<?xml version="1.0" encoding="UTF-8"?>
<gpx
  version="1.0"
  creator="pymavlink"
  xmlns:xsi="http://www.w3.org/2001/XMLSchema-instance"
  xmlns="http://www.topografix.com/GPX/1/0"
  xsi:schemaLocation="http://www.topografix.com/GPX/1/0 http://www.topografix.com/GPX/1/0/gpx.xsd">
<trk>
<trkseg>
<trkpt lat="39.655741" lon="-104.1383097">
  <ele>1566.58</ele>
  <time>2026-08-28T17:48:23Z</time>
  <course>0.0</course>
  <speed>0.0</speed>
  <fix>3d</fix>
</trkpt>
<trkpt lat="40.0713749" lon="-105.229789">
  <ele>1583.0</ele>
  <time>2026-08-28T17:48:23Z</time>
  <course>238.36</course>
  <speed>0.0</speed>
  <fix>3d</fix>
</trkpt>
<trkpt lat="40.0713749" lon="-105.229789">
  <ele>1583.0</ele>
  <time>2026-08-28T17:48:23Z</time>
  <course>0.0</course>
  <speed>0.0</speed>
  <fix>3d</fix>
</trkpt>
<trkpt lat="40.0713749" lon="-105.229789">
  <ele>1583.0</ele>
  <time>2026-08-28T17:48:23Z</time>
  <course>238.36</course>
  <speed>0.0</speed>
  <fix>3d</fix>
</trkpt>
<trkpt lat="40.0713749" lon="-105.229789">
  <ele>1583.0</ele>
  <time>2026-08-28T17:48:23Z</time>
  <course>0.0</course>
  <speed>0.0</speed>
  <fix>3d</fix>
</trkpt>
<trkpt lat="40.0713749" lon="-105.229789">
  <ele>1583.0</ele>
  <time>2026-08-28T17:48:23Z</time>
  <course>238.47</course>
  <speed>0.0</speed>
  <fix>3d</fix>
</trkpt>
<trkpt lat="40.0713749" lon="-105.229789">
  <ele>1583.0</ele>
  <time>2026-08-28T17:48:23Z</time>
  <course>0.0</course>
  <speed>0.0</speed>
  <fix>3d</fix>
</trkpt>
<trkpt lat="40.0713749" lon="-105.229789">
  <ele>1583.0</ele>
  <time>2026-08-28T17:48:23Z</time>
  <course>238.69</course>
  <speed>0.0</speed>
  <fix>3d</fix>
</trkpt>
<trkpt lat="40.0713749" lon="-105.229789">
  <ele>1583.0</ele>
  <time>2026-08-28T17:48:23Z</time>
  <course>0.0</course>
  <speed>0.0</speed>
  <fix>3d</fix>
</trkpt>
<trkpt lat="40.0713749" lon="-105.229789">
  <ele>1583.0</ele>
  <time>2026-08-28T17:48:23Z</time>
  <course>238.98</course>
  <speed>0.0</speed>
  <fix>3d</fix>
</trkpt>
<trkpt lat="40.0713749" lon="-105.229789">
  <ele>1583.0</ele>
  <time>2026-08-28T17:48:23Z</time>
  <course>0.0</course>
  <speed>0.0</speed>
  <fix>3d</fix>
</trkpt>
<trkpt lat="40.0713749" lon="-105.229789">
  <ele>1583.0</ele>
  <time>2026-08-28T17:48:23Z</time>
  <course>239.32</course>
  <speed>0.0</speed>
  <fix>3d</fix>
</trkpt>
<trkpt lat="40.0713749" lon="-105.229789">
  <ele>1583.0</ele>
  <time>2026-08-28T17:48:23Z</time>
  <course>0.0</course>
  <speed>0.0</speed>
  <fix>3d</fix>
</trkpt>
<trkpt lat="40.0713749" lon="-105.229789">
  <ele>1583.0</ele>
  <time>2026-08-28T17:48:23Z</time>
  <course>239.67</course>
  <speed>0.0</speed>
  <fix>3d</fix>
</trkpt>
<trkpt lat="40.0713749" lon="-105.229789">
  <ele>1583.0</ele>
  <time>2026-08-28T17:48:23Z</time>
  <course>0.0</course>
  <speed>0.0</speed>
  <fix>3d</fix>
</trkpt>
<trkpt lat="40.0713749" lon="-105.229789">
  <ele>1583.0</ele>
  <time>2026-08-28T17:48:23Z</time>
  <course>240.02</course>
  <speed>0.0</speed>
  <fix>3d</fix>
</trkpt>
<trkpt lat="40.0713749" lon="-105.229789">
  <ele>1583.0</ele>
  <time>2026-08-28T17:48:23Z</time>
  <course>0.0</course>
  <speed>0.0</speed>
  <fix>3d</fix>
</trkpt>
<trkpt lat="40.0713749" lon="-105.229789">
  <ele>1583.0</ele>
  <time>2026-08-28T17:48:23Z</time>
  <course>240.35</course>
  <speed>0.0</speed>
  <fix>3d</fix>
</trkpt>
<trkpt lat="40.0713749" lon="-105.229789">
  <ele>1583.0</ele>
  <time>2026-08-28T17:48:23Z</time>
  <course>0.0</course>
  <speed>0.0</speed>
  <fix>3d</fix>
</trkpt>
<trkpt lat="40.0713749" lon="-105.229789">
  <ele>1583.0</ele>
  <time>2026-08-28T17:48:23Z</time>
  <course>240.61</course>
  <speed>0.0</speed>
  <fix>3d</fix>
</trkpt>
<trkpt lat="40.0713749" lon="-105.229789">
  <ele>1583.0</ele>
  <time>2026-08-28T17:48:23Z</time>
  <course>0.0</course>
  <speed>0.0</speed>
  <fix>3d</fix>
</trkpt>
<trkpt lat="40.0713749" lon="-105.229789">
  <ele>1583.0</ele>
  <time>2026-08-28T17:48:23Z</time>
  <course>240.92</course>
  <speed>0.0</speed>
  <fix>3d</fix>
</trkpt>
<trkpt lat="40.0713749" lon="-105.229789">
  <ele>1583.0</ele>
  <time>2026-08-28T17:48:23Z</time>
  <course>0.0</course>
  <speed>0.0</speed>
  <fix>3d</fix>
</trkpt>
<trkpt lat="40.0713749" lon="-105.229789">
  <ele>1583.0</ele>
  <time>2026-08-28T17:48:23Z</time>
  <course>241.21</course>
  <speed>0.0</speed>
  <fix>3d</fix>
</trkpt>
<trkpt lat="40.0713749" lon="-105.229789">
  <ele>1583.0</ele>
  <time>2026-08-28T17:48:23Z</time>
  <course>0.0</course>
  <speed>0.0</speed>
  <fix>3d</fix>
</trkpt>
<trkpt lat="40.0713749" lon="-105.229789">
  <ele>1583.0</ele>
  <time>2026-08-28T17:48:23Z</time>
  <course>241.49</course>
  <speed>0.0</speed>
  <fix>3d</fix>
</trkpt>
<trkpt lat="40.0713749" lon="-105.229789">
  <ele>1583.0</ele>
  <time>2026-08-28T17:48:23Z</time>
  <course>0.0</course>
  <speed>0.0</speed>
  <fix>3d</fix>
</trkpt>
<trkpt lat="40.0713749" lon="-105.229789">
  <ele>1583.0</ele>
  <time>2026-08-28T17:48:23Z</time>
  <course>241.77</course>
  <speed>0.0</speed>
  <fix>3d</fix>
</trkpt>
<trkpt lat="40.0713749" lon="-105.229789">
  <ele>1583.0</ele>
  <time>2026-08-28T17:48:23Z</time>
  <course>0.0</course>
  <speed>0.0</speed>
  <fix>3d</fix>
</trkpt>
<trkpt lat="40.0713749" lon="-105.229789">
  <ele>1583.0</ele>
  <time>2026-08-28T17:48:23Z</time>
  <course>242.03</course>
  <speed>0.0</speed>
  <fix>3d</fix>
</trkpt>
<trkpt lat="40.0713749" lon="-105.229789">
  <ele>1583.0</ele>
  <time>2026-08-28T17:48:23Z</time>
  <course>0.0</course>
  <speed>0.0</speed>
  <fix>3d</fix>
</trkpt>
<trkpt lat="40.0713749" lon="-105.229789">
  <ele>1583.0</ele>
  <time>2026-08-28T17:48:23Z</time>
  <course>242.29</course>
  <speed>0.0</speed>
  <fix>3d</fix>
</trkpt>
<trkpt lat="40.0713749" lon="-105.229789">
  <ele>1583.0</ele>
  <time>2026-08-28T17:48:23Z</time>
  <course>0.0</course>
  <speed>0.0</speed>
  <fix>3d</fix>
</trkpt>
<trkpt lat="40.0713749" lon="-105.229789">
  <ele>1583.0</ele>
  <time>2026-08-28T17:48:23Z</time>
  <course>242.54</course>
  <speed>0.0</speed>
  <fix>3d</fix>
</trkpt>
<trkpt lat="40.0713749" lon="-105.229789">
  <ele>1583.0</ele>
  <time>2026-08-28T17:48:23Z</time>
  <course>0.0</course>
  <speed>0.0</speed>
  <fix>3d</fix>
</trkpt>
<trkpt lat="40.0713749" lon="-105.229789">
  <ele>1583.0</ele>
  <time>2026-08-28T17:48:23Z</time>
  <course>242.79</course>
  <speed>0.0</speed>
  <fix>3d</fix>
</trkpt>
<trkpt lat="40.0713749" lon="-105.229789">
  <ele>1583.0</ele>
  <time>2026-08-28T17:48:23Z</time>
  <course>0.0</course>
  <speed>0.0</speed>
  <fix>3d</fix>
</trkpt>
<trkpt lat="40.0713749" lon="-105.229789">
  <ele>1583.0</ele>
  <time>2026-08-28T17:48:23Z</time>
  <course>243.02</course>
  <speed>0.0</speed>
  <fix>3d</fix>
</trkpt>
<trkpt lat="40.0713749" lon="-105.229789">
  <ele>1583.0</ele>
  <time>2026-08-28T17:48:23Z</time>
  <course>0.0</course>
  <speed>0.0</speed>
  <fix>3d</fix>
</trkpt>
<trkpt lat="40.0713749" lon="-105.229789">
  <ele>1583.0</ele>
  <time>2026-08-28T17:48:23Z</time>
  <course>243.29</course>
  <speed>0.0</speed>
  <fix>3d</fix>
</trkpt>
<trkpt lat="40.0713749" lon="-105.229789">
  <ele>1583.0</ele>
  <time>2026-08-28T17:48:23Z</time>
  <course>0.0</course>
  <speed>0.0</speed>
  <fix>3d</fix>
</trkpt>
<trkpt lat="40.0713749" lon="-105.229789">
  <ele>1583.0</ele>
  <time>2026-08-28T17:48:23Z</time>
  <course>243.51</course>
  <speed>0.0</speed>
  <fix>3d</fix>
</trkpt>
<trkpt lat="40.0713749" lon="-105.229789">
  <ele>1583.0</ele>
  <time>2026-08-28T17:48:23Z</time>
  <course>0.0</course>
  <speed>0.0</speed>
  <fix>3d</fix>
</trkpt>
<trkpt lat="40.0713749" lon="-105.229789">
  <ele>1583.0</ele>
  <time>2026-08-28T17:48:23Z</time>
  <course>243.72</course>
  <speed>0.0</speed>
  <fix>3d</fix>
</trkpt>
<trkpt lat="40.0713749" lon="-105.229789">
  <ele>1583.0</ele>
  <time>2026-08-28T17:48:23Z</time>
  <course>0.0</course>
  <speed>0.0</speed>
  <fix>3d</fix>
</trkpt>
<trkpt lat="40.0713749" lon="-105.229789">
  <ele>1583.0</ele>
  <time>2026-08-28T17:48:23Z</time>
  <course>243.93</course>
  <speed>0.0</speed>
  <fix>3d</fix>
</trkpt>
<trkpt lat="40.0713749" lon="-105.229789">
  <ele>1583.0</ele>
  <time>2026-08-28T17:48:23Z</time>
  <course>0.0</course>
  <speed>0.0</speed>
  <fix>3d</fix>
</trkpt>
<trkpt lat="40.0713749" lon="-105.229789">
  <ele>1583.0</ele>
  <time>2026-08-28T17:48:23Z</time>
  <course>244.12</course>
  <speed>0.0</speed>
  <fix>3d</fix>
</trkpt>
<trkpt lat="40.0713749" lon="-105.229789">
  <ele>1583.0</ele>
  <time>2026-08-28T17:48:23Z</time>
  <course>0.0</course>
  <speed>0.0</speed>
  <fix>3d</fix>
</trkpt>
<trkpt lat="40.0713749" lon="-105.229789">
  <ele>1583.0</ele>
  <time>2026-08-28T17:48:23Z</time>
  <course>244.31</course>
  <speed>0.0</speed>
  <fix>3d</fix>
</trkpt>
<trkpt lat="40.0713749" lon="-105.229789">
  <ele>1583.0</ele>
  <time>2026-08-28T17:48:23Z</time>
  <course>0.0</course>
  <speed>0.0</speed>
  <fix>3d</fix>
</trkpt>
<trkpt lat="40.0713749" lon="-105.229789">
  <ele>1583.0</ele>
  <time>2026-08-28T17:48:23Z</time>
  <course>244.5</course>
  <speed>0.0</speed>
  <fix>3d</fix>
</trkpt>
<trkpt lat="40.0713749" lon="-105.229789">
  <ele>1583.0</ele>
  <time>2026-08-28T17:48:23Z</time>
  <course>0.0</course>
  <speed>0.0</speed>
  <fix>3d</fix>
</trkpt>
<trkpt lat="40.0713749" lon="-105.229789">
  <ele>1583.0</ele>
  <time>2026-08-28T17:48:23Z</time>
  <course>244.67</course>
  <speed>0.0</speed>
  <fix>3d</fix>
</trkpt>
<trkpt lat="40.0713749" lon="-105.229789">
  <ele>1583.0</ele>
  <time>2026-08-28T17:48:23Z</time>
  <course>0.0</course>
  <speed>0.0</speed>
  <fix>3d</fix>
</trkpt>
<trkpt lat="40.0713749" lon="-105.229789">
  <ele>1583.0</ele>
  <time>2026-08-28T17:48:23Z</time>
  <course>244.84</course>
  <speed>0.0</speed>
  <fix>3d</fix>
</trkpt>
<trkpt lat="40.0713749" lon="-105.229789">
  <ele>1583.0</ele>
  <time>2026-08-28T17:48:23Z</time>
  <course>0.0</course>
  <speed>0.0</speed>
  <fix>3d</fix>
</trkpt>
<trkpt lat="40.0713749" lon="-105.229789">
  <ele>1583.0</ele>
  <time>2026-08-28T17:48:23Z</time>
  <course>245.01</course>
  <speed>0.0</speed>
  <fix>3d</fix>
</trkpt>
<trkpt lat="40.0713749" lon="-105.229789">
  <ele>1583.0</ele>
  <time>2026-08-28T17:48:23Z</time>
  <course>0.0</course>
  <speed>0.0</speed>
  <fix>3d</fix>
</trkpt>
<trkpt lat="40.0713749" lon="-105.229789">
  <ele>1583.0</ele>
  <time>2026-08-28T17:48:23Z</time>
  <course>245.16</course>
  <speed>0.0</speed>
  <fix>3d</fix>
</trkpt>
<trkpt lat="40.0713749" lon="-105.229789">
  <ele>1583.0</ele>
  <time>2026-08-28T17:48:23Z</time>
  <course>0.0</course>
  <speed>0.0</speed>
  <fix>3d</fix>
</trkpt>
<trkpt lat="40.0713749" lon="-105.229789">
  <ele>1583.0</ele>
  <time>2026-08-28T17:48:23Z</time>
  <course>245.29</course>
  <speed>0.0</speed>
  <fix>3d</fix>
</trkpt>
<trkpt lat="40.0713749" lon="-105.229789">
  <ele>1583.0</ele>
  <time>2026-08-28T17:48:23Z</time>
  <course>0.0</course>
  <speed>0.0</speed>
  <fix>3d</fix>
</trkpt>
<trkpt lat="40.0713749" lon="-105.229789">
  <ele>1583.0</ele>
  <time>2026-08-28T17:48:23Z</time>
  <course>245.43</course>
  <speed>0.0</speed>
  <fix>3d</fix>
</trkpt>
<trkpt lat="40.0713749" lon="-105.229789">
  <ele>1583.0</ele>
  <time>2026-08-28T17:48:23Z</time>
  <course>0.0</course>
  <speed>0.0</speed>
  <fix>3d</fix>
</trkpt>
<trkpt lat="40.0713749" lon="-105.229789">
  <ele>1583.0</ele>
  <time>2026-08-28T17:48:23Z</time>
  <course>245.57</course>
  <speed>0.0</speed>
  <fix>3d</fix>
</trkpt>
<trkpt lat="40.0713749" lon="-105.229789">
  <ele>1583.0</ele>
  <time>2026-08-28T17:48:23Z</time>
  <course>0.0</course>
  <speed>0.0</speed>
  <fix>3d</fix>
</trkpt>
<trkpt lat="40.0713749" lon="-105.229789">
  <ele>1583.0</ele>
  <time>2026-08-28T17:48:23Z</time>
  <course>245.71</course>
  <speed>0.0</speed>
  <fix>3d</fix>
</trkpt>
<trkpt lat="40.0713749" lon="-105.229789">
  <ele>1583.0</ele>
  <time>2026-08-28T17:48:23Z</time>
  <course>0.0</course>
  <speed>0.0</speed>
  <fix>3d</fix>
</trkpt>
<trkpt lat="40.0713749" lon="-105.229789">
  <ele>1583.0</ele>
  <time>2026-08-28T17:48:23Z</time>
  <course>245.84</course>
  <speed>0.0</speed>
  <fix>3d</fix>
</trkpt>
<trkpt lat="40.0713749" lon="-105.229789">
  <ele>1583.0</ele>
  <time>2026-08-28T17:48:23Z</time>
  <course>0.0</course>
  <speed>0.0</speed>
  <fix>3d</fix>
</trkpt>
<trkpt lat="40.0713749" lon="-105.229789">
  <ele>1583.0</ele>
  <time>2026-08-28T17:48:23Z</time>
  <course>245.96</course>
  <speed>0.0</speed>
  <fix>3d</fix>
</trkpt>
<trkpt lat="40.0713749" lon="-105.229789">
  <ele>1583.0</ele>
  <time>2026-08-28T17:48:23Z</time>
  <course>0.0</course>
  <speed>0.0</speed>
  <fix>3d</fix>
</trkpt>
<trkpt lat="40.0713749" lon="-105.229789">
  <ele>1583.0</ele>
  <time>2026-08-28T17:48:23Z</time>
  <course>246.08</course>
  <speed>0.0</speed>
  <fix>3d</fix>
</trkpt>
<trkpt lat="40.0713749" lon="-105.229789">
  <ele>1583.0</ele>
  <time>2026-08-28T17:48:23Z</time>
  <course>0.0</course>
  <speed>0.0</speed>
  <fix>3d</fix>
</trkpt>
<trkpt lat="40.0713749" lon="-105.229789">
  <ele>1583.0</ele>
  <time>2026-08-28T17:48:23Z</time>
  <course>246.19</course>
  <speed>0.0</speed>
  <fix>3d</fix>
</trkpt>
<trkpt lat="40.0713749" lon="-105.229789">
  <ele>1583.0</ele>
  <time>2026-08-28T17:48:23Z</time>
  <course>0.0</course>
  <speed>0.0</speed>
  <fix>3d</fix>
</trkpt>
<trkpt lat="40.0713749" lon="-105.229789">
  <ele>1583.0</ele>
  <time>2026-08-28T17:48:23Z</time>
  <course>246.3</course>
  <speed>0.0</speed>
  <fix>3d</fix>
</trkpt>
<trkpt lat="40.0713749" lon="-105.229789">
  <ele>1583.0</ele>
  <time>2026-08-28T17:48:23Z</time>
  <course>0.0</course>
  <speed>0.0</speed>
  <fix>3d</fix>
</trkpt>
<trkpt lat="40.0713749" lon="-105.229789">
  <ele>1583.0</ele>
  <time>2026-08-28T17:48:23Z</time>
  <course>246.41</course>
  <speed>0.0</speed>
  <fix>3d</fix>
</trkpt>
<trkpt lat="40.0713749" lon="-105.229789">
  <ele>1583.0</ele>
  <time>2026-08-28T17:48:23Z</time>
  <course>0.0</course>
  <speed>0.0</speed>
  <fix>3d</fix>
</trkpt>
<trkpt lat="40.0713749" lon="-105.229789">
  <ele>1583.0</ele>
  <time>2026-08-28T17:48:23Z</time>
  <course>246.53</course>
  <speed>0.0</speed>
  <fix>3d</fix>
</trkpt>
<trkpt lat="40.0713749" lon="-105.229789">
  <ele>1583.0</ele>
  <time>2026-08-28T17:48:23Z</time>
  <course>0.0</course>
  <speed>0.0</speed>
  <fix>3d</fix>
</trkpt>
<trkpt lat="40.0713749" lon="-105.229789">
  <ele>1583.0</ele>
  <time>2026-08-28T17:48:23Z</time>
  <course>246.62</course>
  <speed>0.0</speed>
  <fix>3d</fix>
</trkpt>
<trkpt lat="40.0713749" lon="-105.229789">
  <ele>1583.0</ele>
  <time>2026-08-28T17:48:23Z</time>
  <course>0.0</course>
  <speed>0.0</speed>
  <fix>3d</fix>
</trkpt>
<trkpt lat="40.0713749" lon="-105.229789">
  <ele>1583.0</ele>
  <time>2026-08-28T17:48:23Z</time>
  <course>246.71</course>
  <speed>0.0</speed>
  <fix>3d</fix>
</trkpt>
<trkpt lat="40.0713749" lon="-105.229789">
  <ele>1583.0</ele>
  <time>2026-08-28T17:48:23Z</time>
  <course>0.0</course>
  <speed>0.0</speed>
  <fix>3d</fix>
</trkpt>
<trkpt lat="40.0713749" lon="-105.229789">
  <ele>1583.0</ele>
  <time>2026-08-28T17:48:23Z</time>
  <course>246.8</course>
  <speed>0.0</speed>
  <fix>3d</fix>
</trkpt>
<trkpt lat="40.0713749" lon="-105.229789">
  <ele>1583.0</ele>
  <time>2026-08-28T17:48:23Z</time>
  <course>0.0</course>
  <speed>0.0</speed>
  <fix>3d</fix>
</trkpt>
<trkpt lat="40.0713749" lon="-105.229789">
  <ele>1583.0</ele>
  <time>2026-08-28T17:48:23Z</time>
  <course>246.88</course>
  <speed>0.0</speed>
  <fix>3d</fix>
</trkpt>
<trkpt lat="40.0713749" lon="-105.229789">
  <ele>1583.0</ele>
  <time>2026-08-28T17:48:23Z</time>
  <course>0.0</course>
  <speed>0.0</speed>
  <fix>3d</fix>
</trkpt>
<trkpt lat="40.0713749" lon="-105.229789">
  <ele>1583.0</ele>
  <time>2026-08-28T17:48:23Z</time>
  <course>246.96</course>
  <speed>0.0</speed>
  <fix>3d</fix>
</trkpt>
<trkpt lat="40.0713749" lon="-105.229789">
  <ele>1583.0</ele>
  <time>2026-08-28T17:48:23Z</time>
  <course>0.0</course>
  <speed>0.0</speed>
  <fix>3d</fix>
</trkpt>
<trkpt lat="40.0713749" lon="-105.229789">
  <ele>1583.0</ele>
  <time>2026-08-28T17:48:23Z</time>
  <course>247.04</course>
  <speed>0.0</speed>
  <fix>3d</fix>
</trkpt>
<trkpt lat="40.0713749" lon="-105.229789">
  <ele>1583.0</ele>
  <time>2026-08-28T17:48:23Z</time>
  <course>0.0</course>
  <speed>0.0</speed>
  <fix>3d</fix>
</trkpt>
<trkpt lat="40.0713749" lon="-105.229789">
  <ele>1583.0</ele>
  <time>2026-08-28T17:48:23Z</time>
  <course>247.11</course>
  <speed>0.0</speed>
  <fix>3d</fix>
</trkpt>
<trkpt lat="40.0713749" lon="-105.229789">
  <ele>1583.0</ele>
  <time>2026-08-28T17:48:23Z</time>
  <course>0.0</course>
  <speed>0.0</speed>
  <fix>3d</fix>
</trkpt>
<trkpt lat="40.0713749" lon="-105.229789">
  <ele>1583.0</ele>
  <time>2026-08-28T17:48:23Z</time>
  <course>247.18</course>
  <speed>0.0</speed>
  <fix>3d</fix>
</trkpt>
<trkpt lat="40.0713749" lon="-105.229789">
  <ele>1583.0</ele>
  <time>2026-08-28T17:48:23Z</time>
  <course>0.0</course>
  <speed>0.0</speed>
  <fix>3d</fix>
</trkpt>
<trkpt lat="40.0713749" lon="-105.229789">
  <ele>1583.0</ele>
  <time>2026-08-28T17:48:23Z</time>
  <course>247.25</course>
  <speed>0.0</speed>
  <fix>3d</fix>
</trkpt>
<trkpt lat="40.0713749" lon="-105.229789">
  <ele>1583.0</ele>
  <time>2026-08-28T17:48:23Z</time>
  <course>0.0</course>
  <speed>0.0</speed>
  <fix>3d</fix>
</trkpt>
<trkpt lat="40.0713749" lon="-105.229789">
  <ele>1583.0</ele>
  <time>2026-08-28T17:48:23Z</time>
  <course>247.31</course>
  <speed>0.0</speed>
  <fix>3d</fix>
</trkpt>
<trkpt lat="40.0713749" lon="-105.229789">
  <ele>1583.0</ele>
  <time>2026-08-28T17:48:23Z</time>
  <course>0.0</course>
  <speed>0.0</speed>
  <fix>3d</fix>
</trkpt>
<trkpt lat="40.0713749" lon="-105.229789">
  <ele>1583.0</ele>
  <time>2026-08-28T17:48:23Z</time>
  <course>247.36</course>
  <speed>0.0</speed>
  <fix>3d</fix>
</trkpt>
<trkpt lat="40.0713749" lon="-105.229789">
  <ele>1583.0</ele>
  <time>2026-08-28T17:48:23Z</time>
  <course>0.0</course>
  <speed>0.0</speed>
  <fix>3d</fix>
</trkpt>
<trkpt lat="40.0713749" lon="-105.229789">
  <ele>1583.0</ele>
  <time>2026-08-28T17:48:23Z</time>
  <course>247.42</course>
  <speed>0.0</speed>
  <fix>3d</fix>
</trkpt>
<trkpt lat="40.0713749" lon="-105.229789">
  <ele>1583.0</ele>
  <time>2026-08-28T17:48:23Z</time>
  <course>0.0</course>
  <speed>0.0</speed>
  <fix>3d</fix>
</trkpt>
<trkpt lat="40.0713749" lon="-105.229789">
  <ele>1583.0</ele>
  <time>2026-08-28T17:48:23Z</time>
  <course>247.47</course>
  <speed>0.0</speed>
  <fix>3d</fix>
</trkpt>
<trkpt lat="40.0713749" lon="-105.229789">
  <ele>1583.0</ele>
  <time>2026-08-28T17:48:23Z</time>
  <course>0.0</course>
  <speed>0.0</speed>
  <fix>3d</fix>
</trkpt>
<trkpt lat="40.0713749" lon="-105.229789">
  <ele>1583.0</ele>
  <time>2026-08-28T17:48:23Z</time>
  <course>247.53</course>
  <speed>0.0</speed>
  <fix>3d</fix>
</trkpt>
<trkpt lat="40.0713749" lon="-105.229789">
  <ele>1583.0</ele>
  <time>2026-08-28T17:48:23Z</time>
  <course>0.0</course>
  <speed>0.0</speed>
  <fix>3d</fix>
</trkpt>
<trkpt lat="40.0713749" lon="-105.229789">
  <ele>1583.0</ele>
  <time>2026-08-28T17:48:23Z</time>
  <course>247.58</course>
  <speed>0.0</speed>
  <fix>3d</fix>
</trkpt>
<trkpt lat="40.0713749" lon="-105.229789">
  <ele>1583.0</ele>
  <time>2026-08-28T17:48:23Z</time>
  <course>0.0</course>
  <speed>0.0</speed>
  <fix>3d</fix>
</trkpt>
<trkpt lat="40.0713749" lon="-105.229789">
  <ele>1583.0</ele>
  <time>2026-08-28T17:48:23Z</time>
  <course>247.63</course>
  <speed>0.0</speed>
  <fix>3d</fix>
</trkpt>
<trkpt lat="40.0713749" lon="-105.229789">
  <ele>1583.0</ele>
  <time>2026-08-28T17:48:23Z</time>
  <course>0.0</course>
  <speed>0.0</speed>
  <fix>3d</fix>
</trkpt>
<trkpt lat="40.0713749" lon="-105.229789">
  <ele>1583.0</ele>
  <time>2026-08-28T17:48:23Z</time>
  <course>247.67</course>
  <speed>0.0</speed>
  <fix>3d</fix>
</trkpt>
<trkpt lat="40.0713749" lon="-105.229789">
  <ele>1583.0</ele>
  <time>2026-08-28T17:48:23Z</time>
  <course>0.0</course>
  <speed>0.0</speed>
  <fix>3d</fix>
</trkpt>
<trkpt lat="40.0713749" lon="-105.229789">
  <ele>1583.0</ele>
  <time>2026-08-28T17:48:23Z</time>
  <course>247.72</course>
  <speed>0.0</speed>
  <fix>3d</fix>
</trkpt>
<trkpt lat="40.0713749" lon="-105.229789">
  <ele>1583.0</ele>
  <time>2026-08-28T17:48:23Z</time>
  <course>0.0</course>
  <speed>0.0</speed>
  <fix>3d</fix>
</trkpt>
<trkpt lat="40.0713749" lon="-105.229789">
  <ele>1583.0</ele>
  <time>2026-08-28T17:48:23Z</time>
  <course>247.76</course>
  <speed>0.0</speed>
  <fix>3d</fix>
</trkpt>
<trkpt lat="40.0713749" lon="-105.229789">
  <ele>1583.0</ele>
  <time>2026-08-28T17:48:23Z</time>
  <course>0.0</course>
  <speed>0.0</speed>
  <fix>3d</fix>
</trkpt>
<trkpt lat="40.0713749" lon="-105.229789">
  <ele>1583.0</ele>
  <time>2026-08-28T17:48:23Z</time>
  <course>247.81</course>
  <speed>0.0</speed>
  <fix>3d</fix>
</trkpt>
<trkpt lat="40.0713749" lon="-105.229789">
  <ele>1583.0</ele>
  <time>2026-08-28T17:48:23Z</time>
  <course>0.0</course>
  <speed>0.0</speed>
  <fix>3d</fix>
</trkpt>
<trkpt lat="40.0713749" lon="-105.229789">
  <ele>1583.0</ele>
  <time>2026-08-28T17:48:23Z</time>
  <course>247.84</course>
  <speed>0.0</speed>
  <fix>3d</fix>
</trkpt>
<trkpt lat="40.0713749" lon="-105.229789">
  <ele>1583.0</ele>
  <time>2026-08-28T17:48:23Z</time>
  <course>0.0</course>
  <speed>0.0</speed>
  <fix>3d</fix>
</trkpt>
<trkpt lat="40.0713749" lon="-105.229789">
  <ele>1583.0</ele>
  <time>2026-08-28T17:48:23Z</time>
  <course>247.88</course>
  <speed>0.0</speed>
  <fix>3d</fix>
</trkpt>
<trkpt lat="40.0713749" lon="-105.229789">
  <ele>1583.0</ele>
  <time>2026-08-28T17:48:23Z</time>
  <course>0.0</course>
  <speed>0.0</speed>
  <fix>3d</fix>
</trkpt>
<trkpt lat="40.0713749" lon="-105.229789">
  <ele>1583.0</ele>
  <time>2026-08-28T17:48:23Z</time>
  <course>247.91</course>
  <speed>0.0</speed>
  <fix>3d</fix>
</trkpt>
<trkpt lat="40.0713749" lon="-105.229789">
  <ele>1583.0</ele>
  <time>2026-08-28T17:48:23Z</time>
  <course>0.0</course>
  <speed>0.0</speed>
  <fix>3d</fix>
</trkpt>
<trkpt lat="40.0713749" lon="-105.229789">
  <ele>1583.0</ele>
  <time>2026-08-28T17:48:23Z</time>
  <course>247.94</course>
  <speed>0.0</speed>
  <fix>3d</fix>
</trkpt>
<trkpt lat="40.0713749" lon="-105.229789">
  <ele>1583.0</ele>
  <time>2026-08-28T17:48:23Z</time>
  <course>0.0</course>
  <speed>0.0</speed>
  <fix>3d</fix>
</trkpt>
<trkpt lat="40.0713749" lon="-105.229789">
  <ele>1583.0</ele>
  <time>2026-08-28T17:48:23Z</time>
  <course>247.97</course>
  <speed>0.0</speed>
  <fix>3d</fix>
</trkpt>
<trkpt lat="40.0713749" lon="-105.229789">
  <ele>1583.0</ele>
  <time>2026-08-28T17:48:23Z</time>
  <course>0.0</course>
  <speed>0.0</speed>
  <fix>3d</fix>
</trkpt>
<trkpt lat="40.0713749" lon="-105.229789">
  <ele>1583.0</ele>
  <time>2026-08-28T17:48:23Z</time>
  <course>248.0</course>
  <speed>0.0</speed>
  <fix>3d</fix>
</trkpt>
<trkpt lat="40.0713749" lon="-105.229789">
  <ele>1583.0</ele>
  <time>2026-08-28T17:48:23Z</time>
  <course>0.0</course>
  <speed>0.0</speed>
  <fix>3d</fix>
</trkpt>
<trkpt lat="40.0713749" lon="-105.229789">
  <ele>1583.0</ele>
  <time>2026-08-28T17:48:23Z</time>
  <course>248.03</course>
  <speed>0.0</speed>
  <fix>3d</fix>
</trkpt>
<trkpt lat="40.0713749" lon="-105.229789">
  <ele>1583.0</ele>
  <time>2026-08-28T17:48:23Z</time>
  <course>0.0</course>
  <speed>0.0</speed>
  <fix>3d</fix>
</trkpt>
<trkpt lat="40.0713749" lon="-105.229789">
  <ele>1583.0</ele>
  <time>2026-08-28T17:48:23Z</time>
  <course>248.06</course>
  <speed>0.0</speed>
  <fix>3d</fix>
</trkpt>
<trkpt lat="40.0713749" lon="-105.229789">
  <ele>1583.0</ele>
  <time>2026-08-28T17:48:23Z</time>
  <course>0.0</course>
  <speed>0.0</speed>
  <fix>3d</fix>
</trkpt>
<trkpt lat="40.0713749" lon="-105.229789">
  <ele>1583.0</ele>
  <time>2026-08-28T17:48:23Z</time>
  <course>248.08</course>
  <speed>0.0</speed>
  <fix>3d</fix>
</trkpt>
<trkpt lat="40.0713749" lon="-105.229789">
  <ele>1583.0</ele>
  <time>2026-08-28T17:48:23Z</time>
  <course>0.0</course>
  <speed>0.0</speed>
  <fix>3d</fix>
</trkpt>
<trkpt lat="40.0713749" lon="-105.229789">
  <ele>1583.0</ele>
  <time>2026-08-28T17:48:23Z</time>
  <course>248.11</course>
  <speed>0.0</speed>
  <fix>3d</fix>
</trkpt>
<trkpt lat="40.0713749" lon="-105.229789">
  <ele>1583.0</ele>
  <time>2026-08-28T17:48:23Z</time>
  <course>0.0</course>
  <speed>0.0</speed>
  <fix>3d</fix>
</trkpt>
<trkpt lat="40.0713749" lon="-105.229789">
  <ele>1583.0</ele>
  <time>2026-08-28T17:48:23Z</time>
  <course>248.12</course>
  <speed>0.0</speed>
  <fix>3d</fix>
</trkpt>
<trkpt lat="40.0713749" lon="-105.229789">
  <ele>1583.0</ele>
  <time>2026-08-28T17:48:23Z</time>
  <course>0.0</course>
  <speed>0.0</speed>
  <fix>3d</fix>
</trkpt>
<trkpt lat="40.0713749" lon="-105.229789">
  <ele>1583.0</ele>
  <time>2026-08-28T17:48:23Z</time>
  <course>248.14</course>
  <speed>0.0</speed>
  <fix>3d</fix>
</trkpt>
<trkpt lat="40.0713749" lon="-105.229789">
  <ele>1583.0</ele>
  <time>2026-08-28T17:48:23Z</time>
  <course>0.0</course>
  <speed>0.0</speed>
  <fix>3d</fix>
</trkpt>
<trkpt lat="40.0713749" lon="-105.229789">
  <ele>1583.0</ele>
  <time>2026-08-28T17:48:23Z</time>
  <course>248.16</course>
  <speed>0.0</speed>
  <fix>3d</fix>
</trkpt>
<trkpt lat="40.0713749" lon="-105.229789">
  <ele>1583.0</ele>
  <time>2026-08-28T17:48:23Z</time>
  <course>0.0</course>
  <speed>0.0</speed>
  <fix>3d</fix>
</trkpt>
<trkpt lat="40.0713749" lon="-105.229789">
  <ele>1583.0</ele>
  <time>2026-08-28T17:48:23Z</time>
  <course>248.18</course>
  <speed>0.0</speed>
  <fix>3d</fix>
</trkpt>
<trkpt lat="40.0713749" lon="-105.229789">
  <ele>1583.0</ele>
  <time>2026-08-28T17:48:23Z</time>
  <course>0.0</course>
  <speed>0.0</speed>
  <fix>3d</fix>
</trkpt>
<trkpt lat="40.0713749" lon="-105.229789">
  <ele>1583.0</ele>
  <time>2026-08-28T17:48:23Z</time>
  <course>248.2</course>
  <speed>0.0</speed>
  <fix>3d</fix>
</trkpt>
<trkpt lat="40.0713749" lon="-105.229789">
  <ele>1583.0</ele>
  <time>2026-08-28T17:48:23Z</time>
  <course>0.0</course>
  <speed>0.0</speed>
  <fix>3d</fix>
</trkpt>
<trkpt lat="40.0713749" lon="-105.229789">
  <ele>1583.0</ele>
  <time>2026-08-28T17:48:23Z</time>
  <course>248.22</course>
  <speed>0.0</speed>
  <fix>3d</fix>
</trkpt>
<trkpt lat="40.0713749" lon="-105.229789">
  <ele>1583.0</ele>
  <time>2026-08-28T17:48:23Z</time>
  <course>0.0</course>
  <speed>0.0</speed>
  <fix>3d</fix>
</trkpt>
<trkpt lat="40.0713749" lon="-105.229789">
  <ele>1583.0</ele>
  <time>2026-08-28T17:48:23Z</time>
  <course>248.23</course>
  <speed>0.0</speed>
  <fix>3d</fix>
</trkpt>
<trkpt lat="40.0713749" lon="-105.229789">
  <ele>1583.0</ele>
  <time>2026-08-28T17:48:23Z</time>
  <course>0.0</course>
  <speed>0.0</speed>
  <fix>3d</fix>
</trkpt>
<trkpt lat="40.0713749" lon="-105.229789">
  <ele>1583.0</ele>
  <time>2026-08-28T17:48:23Z</time>
  <course>248.25</course>
  <speed>0.0</speed>
  <fix>3d</fix>
</trkpt>
<trkpt lat="40.0713749" lon="-105.229789">
  <ele>1583.0</ele>
  <time>2026-08-28T17:48:23Z</time>
  <course>0.0</course>
  <speed>0.0</speed>
  <fix>3d</fix>
</trkpt>
<trkpt lat="40.0713749" lon="-105.229789">
  <ele>1583.0</ele>
  <time>2026-08-28T17:48:23Z</time>
  <course>248.26</course>
  <speed>0.0</speed>
  <fix>3d</fix>
</trkpt>
<trkpt lat="40.0713749" lon="-105.229789">
  <ele>1583.0</ele>
  <time>2026-08-28T17:48:23Z</time>
  <course>0.0</course>
  <speed>0.0</speed>
  <fix>3d</fix>
</trkpt>
<trkpt lat="40.0713749" lon="-105.229789">
  <ele>1583.0</ele>
  <time>2026-08-28T17:48:23Z</time>
  <course>248.28</course>
  <speed>0.0</speed>
  <fix>3d</fix>
</trkpt>
<trkpt lat="40.0713749" lon="-105.229789">
  <ele>1583.0</ele>
  <time>2026-08-28T17:48:23Z</time>
  <course>0.0</course>
  <speed>0.0</speed>
  <fix>3d</fix>
</trkpt>
<trkpt lat="40.0713749" lon="-105.229789">
  <ele>1583.0</ele>
  <time>2026-08-28T17:48:23Z</time>
  <course>248.29</course>
  <speed>0.0</speed>
  <fix>3d</fix>
</trkpt>
<trkpt lat="40.0713749" lon="-105.229789">
  <ele>1583.0</ele>
  <time>2026-08-28T17:48:23Z</time>
  <course>0.0</course>
  <speed>0.0</speed>
  <fix>3d</fix>
</trkpt>
<trkpt lat="40.0713749" lon="-105.229789">
  <ele>1583.0</ele>
  <time>2026-08-28T17:48:23Z</time>
  <course>248.3</course>
  <speed>0.0</speed>
  <fix>3d</fix>
</trkpt>
<trkpt lat="40.0713749" lon="-105.229789">
  <ele>1583.0</ele>
  <time>2026-08-28T17:48:23Z</time>
  <course>0.0</course>
  <speed>0.0</speed>
  <fix>3d</fix>
</trkpt>
<trkpt lat="40.0713749" lon="-105.229789">
  <ele>1583.0</ele>
  <time>2026-08-28T17:48:23Z</time>
  <course>248.31</course>
  <speed>0.0</speed>
  <fix>3d</fix>
</trkpt>
<trkpt lat="40.0713749" lon="-105.229789">
  <ele>1583.0</ele>
  <time>2026-08-28T17:48:23Z</time>
  <course>0.0</course>
  <speed>0.0</speed>
  <fix>3d</fix>
</trkpt>
<trkpt lat="40.0713749" lon="-105.229789">
  <ele>1583.0</ele>
  <time>2026-08-28T17:48:23Z</time>
  <course>248.32</course>
  <speed>0.0</speed>
  <fix>3d</fix>
</trkpt>
<trkpt lat="40.0713749" lon="-105.229789">
  <ele>1583.0</ele>
  <time>2026-08-28T17:48:23Z</time>
  <course>0.0</course>
  <speed>0.0</speed>
  <fix>3d</fix>
</trkpt>
<trkpt lat="40.0713749" lon="-105.229789">
  <ele>1583.0</ele>
  <time>2026-08-28T17:48:23Z</time>
  <course>248.33</course>
  <speed>0.0</speed>
  <fix>3d</fix>
</trkpt>
<trkpt lat="40.0713749" lon="-105.229789">
  <ele>1583.0</ele>
  <time>2026-08-28T17:48:23Z</time>
  <course>0.0</course>
  <speed>0.0</speed>
  <fix>3d</fix>
</trkpt>
<trkpt lat="40.0713749" lon="-105.229789">
  <ele>1583.0</ele>
  <time>2026-08-28T17:48:23Z</time>
  <course>248.34</course>
  <speed>0.0</speed>
  <fix>3d</fix>
</trkpt>
<trkpt lat="40.0713749" lon="-105.229789">
  <ele>1583.0</ele>
  <time>2026-08-28T17:48:23Z</time>
  <course>0.0</course>
  <speed>0.0</speed>
  <fix>3d</fix>
</trkpt>
<trkpt lat="40.0713749" lon="-105.229789">
  <ele>1583.0</ele>
  <time>2026-08-28T17:48:23Z</time>
  <course>248.35</course>
  <speed>0.0</speed>
  <fix>3d</fix>
</trkpt>
<trkpt lat="40.0713749" lon="-105.229789">
  <ele>1583.0</ele>
  <time>2026-08-28T17:48:23Z</time>
  <course>0.0</course>
  <speed>0.0</speed>
  <fix>3d</fix>
</trkpt>
<trkpt lat="40.0713749" lon="-105.229789">
  <ele>1583.0</ele>
  <time>2026-08-28T17:48:23Z</time>
  <course>248.36</course>
  <speed>0.0</speed>
  <fix>3d</fix>
</trkpt>
<trkpt lat="40.0713749" lon="-105.229789">
  <ele>1583.0</ele>
  <time>2026-08-28T17:48:23Z</time>
  <course>0.0</course>
  <speed>0.0</speed>
  <fix>3d</fix>
</trkpt>
<trkpt lat="40.0713749" lon="-105.229789">
  <ele>1583.0</ele>
  <time>2026-08-28T17:48:23Z</time>
  <course>248.36</course>
  <speed>0.0</speed>
  <fix>3d</fix>
</trkpt>
<trkpt lat="40.0713749" lon="-105.229789">
  <ele>1583.0</ele>
  <time>2026-08-28T17:48:23Z</time>
  <course>0.0</course>
  <speed>0.0</speed>
  <fix>3d</fix>
</trkpt>
<trkpt lat="40.0713749" lon="-105.229789">
  <ele>1583.0</ele>
  <time>2026-08-28T17:48:23Z</time>
  <course>248.37</course>
  <speed>0.0</speed>
  <fix>3d</fix>
</trkpt>
<trkpt lat="40.0713749" lon="-105.229789">
  <ele>1583.0</ele>
  <time>2026-08-28T17:48:23Z</time>
  <course>0.0</course>
  <speed>0.0</speed>
  <fix>3d</fix>
</trkpt>
<trkpt lat="40.0713749" lon="-105.229789">
  <ele>1583.0</ele>
  <time>2026-08-28T17:48:23Z</time>
  <course>248.38</course>
  <speed>0.0</speed>
  <fix>3d</fix>
</trkpt>
<trkpt lat="40.0713749" lon="-105.229789">
  <ele>1583.0</ele>
  <time>2026-08-28T17:48:23Z</time>
  <course>0.0</course>
  <speed>0.0</speed>
  <fix>3d</fix>
</trkpt>
<trkpt lat="40.0713749" lon="-105.229789">
  <ele>1583.0</ele>
  <time>2026-08-28T17:48:23Z</time>
  <course>248.38</course>
  <speed>0.0</speed>
  <fix>3d</fix>
</trkpt>
<trkpt lat="40.0713749" lon="-105.229789">
  <ele>1583.0</ele>
  <time>2026-08-28T17:48:23Z</time>
  <course>0.0</course>
  <speed>0.0</speed>
  <fix>3d</fix>
</trkpt>
<trkpt lat="40.0713749" lon="-105.229789">
  <ele>1583.0</ele>
  <time>2026-08-28T17:48:23Z</time>
  <course>248.38</course>
  <speed>0.0</speed>
  <fix>3d</fix>
</trkpt>
<trkpt lat="40.0713749" lon="-105.229789">
  <ele>1583.0</ele>
  <time>2026-08-28T17:48:23Z</time>
  <course>0.0</course>
  <speed>0.0</speed>
  <fix>3d</fix>
</trkpt>
<trkpt lat="40.0713749" lon="-105.229789">
  <ele>1583.0</ele>
  <time>2026-08-28T17:48:23Z</time>
  <course>248.39</course>
  <speed>0.0</speed>
  <fix>3d</fix>
</trkpt>
<trkpt lat="40.0713749" lon="-105.229789">
  <ele>1583.0</ele>
  <time>2026-08-28T17:48:23Z</time>
  <course>0.0</course>
  <speed>0.0</speed>
  <fix>3d</fix>
</trkpt>
<trkpt lat="40.0713749" lon="-105.229789">
  <ele>1583.0</ele>
  <time>2026-08-28T17:48:23Z</time>
  <course>248.39</course>
  <speed>0.0</speed>
  <fix>3d</fix>
</trkpt>
<trkpt lat="40.0713749" lon="-105.229789">
  <ele>1583.0</ele>
  <time>2026-08-28T17:48:23Z</time>
  <course>0.0</course>
  <speed>0.0</speed>
  <fix>3d</fix>
</trkpt>
<trkpt lat="40.0713749" lon="-105.229789">
  <ele>1583.0</ele>
  <time>2026-08-28T17:48:23Z</time>
  <course>248.4</course>
  <speed>0.0</speed>
  <fix>3d</fix>
</trkpt>
<trkpt lat="40.0713749" lon="-105.229789">
  <ele>1583.0</ele>
  <time>2026-08-28T17:48:23Z</time>
  <course>0.0</course>
  <speed>0.0</speed>
  <fix>3d</fix>
</trkpt>
<trkpt lat="40.0713749" lon="-105.229789">
  <ele>1583.0</ele>
  <time>2026-08-28T17:48:23Z</time>
  <course>248.4</course>
  <speed>0.0</speed>
  <fix>3d</fix>
</trkpt>
<trkpt lat="40.0713749" lon="-105.229789">
  <ele>1583.0</ele>
  <time>2026-08-28T17:48:23Z</time>
  <course>0.0</course>
  <speed>0.0</speed>
  <fix>3d</fix>
</trkpt>
<trkpt lat="40.0713749" lon="-105.229789">
  <ele>1583.0</ele>
  <time>2026-08-28T17:48:23Z</time>
  <course>248.4</course>
  <speed>0.0</speed>
  <fix>3d</fix>
</trkpt>
<trkpt lat="40.0713749" lon="-105.229789">
  <ele>1583.0</ele>
  <time>2026-08-28T17:48:23Z</time>
  <course>0.0</course>
  <speed>0.0</speed>
  <fix>3d</fix>
</trkpt>
<trkpt lat="40.0713749" lon="-105.229789">
  <ele>1583.0</ele>
  <time>2026-08-28T17:48:23Z</time>
  <course>248.4</course>
  <speed>0.0</speed>
  <fix>3d</fix>
</trkpt>
<trkpt lat="40.0713749" lon="-105.229789">
  <ele>1583.0</ele>
  <time>2026-08-28T17:48:23Z</time>
  <course>0.0</course>
  <speed>0.0</speed>
  <fix>3d</fix>
</trkpt>
<trkpt lat="40.0713749" lon="-105.229789">
  <ele>1583.0</ele>
  <time>2026-08-28T17:48:23Z</time>
  <course>248.41</course>
  <speed>0.0</speed>
  <fix>3d</fix>
</trkpt>
<trkpt lat="40.0713749" lon="-105.229789">
  <ele>1583.0</ele>
  <time>2026-08-28T17:48:23Z</time>
  <course>0.0</course>
  <speed>0.0</speed>
  <fix>3d</fix>
</trkpt>
<trkpt lat="40.0713749" lon="-105.229789">
  <ele>1583.0</ele>
  <time>2026-08-28T17:48:23Z</time>
  <course>248.41</course>
  <speed>0.0</speed>
  <fix>3d</fix>
</trkpt>
<trkpt lat="40.0713749" lon="-105.229789">
  <ele>1583.0</ele>
  <time>2026-08-28T17:48:23Z</time>
  <course>0.0</course>
  <speed>0.0</speed>
  <fix>3d</fix>
</trkpt>
<trkpt lat="40.0713749" lon="-105.229789">
  <ele>1583.0</ele>
  <time>2026-08-28T17:48:23Z</time>
  <course>248.41</course>
  <speed>0.0</speed>
  <fix>3d</fix>
</trkpt>
<trkpt lat="40.0713749" lon="-105.229789">
  <ele>1583.0</ele>
  <time>2026-08-28T17:48:23Z</time>
  <course>0.0</course>
  <speed>0.0</speed>
  <fix>3d</fix>
</trkpt>
<trkpt lat="40.0713749" lon="-105.229789">
  <ele>1583.0</ele>
  <time>2026-08-28T17:48:23Z</time>
  <course>248.41</course>
  <speed>0.0</speed>
  <fix>3d</fix>
</trkpt>
<trkpt lat="40.0713749" lon="-105.229789">
  <ele>1583.0</ele>
  <time>2026-08-28T17:48:23Z</time>
  <course>0.0</course>
  <speed>0.0</speed>
  <fix>3d</fix>
</trkpt>
<trkpt lat="40.0713749" lon="-105.229789">
  <ele>1583.0</ele>
  <time>2026-08-28T17:48:23Z</time>
  <course>248.41</course>
  <speed>0.0</speed>
  <fix>3d</fix>
</trkpt>
<trkpt lat="40.0713749" lon="-105.229789">
  <ele>1583.0</ele>
  <time>2026-08-28T17:48:23Z</time>
  <course>0.0</course>
  <speed>0.0</speed>
  <fix>3d</fix>
</trkpt>
<trkpt lat="40.0713749" lon="-105.229789">
  <ele>1583.0</ele>
  <time>2026-08-28T17:48:23Z</time>
  <course>248.41</course>
  <speed>0.0</speed>
  <fix>3d</fix>
</trkpt>
<trkpt lat="40.0713749" lon="-105.229789">
  <ele>1583.0</ele>
  <time>2026-08-28T17:48:23Z</time>
  <course>0.0</course>
  <speed>0.0</speed>
  <fix>3d</fix>
</trkpt>
<trkpt lat="40.0713749" lon="-105.229789">
  <ele>1583.0</ele>
  <time>2026-08-28T17:48:23Z</time>
  <course>248.41</course>
  <speed>0.0</speed>
  <fix>3d</fix>
</trkpt>
<trkpt lat="40.0713749" lon="-105.229789">
  <ele>1583.0</ele>
  <time>2026-08-28T17:48:23Z</time>
  <course>0.0</course>
  <speed>0.0</speed>
  <fix>3d</fix>
</trkpt>
<trkpt lat="40.0713749" lon="-105.229789">
  <ele>1583.0</ele>
  <time>2026-08-28T17:48:23Z</time>
  <course>248.41</course>
  <speed>0.0</speed>
  <fix>3d</fix>
</trkpt>
<trkpt lat="40.0713749" lon="-105.229789">
  <ele>1583.0</ele>
  <time>2026-08-28T17:48:23Z</time>
  <course>0.0</course>
  <speed>0.0</speed>
  <fix>3d</fix>
</trkpt>
<trkpt lat="40.0713749" lon="-105.229789">
  <ele>1583.0</ele>
  <time>2026-08-28T17:48:24Z</time>
  <course>248.41</course>
  <speed>0.0</speed>
  <fix>3d</fix>
</trkpt>
<trkpt lat="40.0713749" lon="-105.229789">
  <ele>1583.0</ele>
  <time>2026-08-28T17:48:24Z</time>
  <course>0.0</course>
  <speed>0.0</speed>
  <fix>3d</fix>
</trkpt>
<trkpt lat="40.0713749" lon="-105.229789">
  <ele>1583.0</ele>
  <time>2026-08-28T17:48:24Z</time>
  <course>248.41</course>
  <speed>0.0</speed>
  <fix>3d</fix>
</trkpt>
<trkpt lat="40.0713749" lon="-105.229789">
  <ele>1583.0</ele>
  <time>2026-08-28T17:48:24Z</time>
  <course>0.0</course>
  <speed>0.0</speed>
  <fix>3d</fix>
</trkpt>
<trkpt lat="40.0713749" lon="-105.229789">
  <ele>1583.0</ele>
  <time>2026-08-28T17:48:24Z</time>
  <course>248.41</course>
  <speed>0.0</speed>
  <fix>3d</fix>
</trkpt>
<trkpt lat="40.0713749" lon="-105.229789">
  <ele>1583.0</ele>
  <time>2026-08-28T17:48:24Z</time>
  <course>0.0</course>
  <speed>0.0</speed>
  <fix>3d</fix>
</trkpt>
<trkpt lat="40.0713749" lon="-105.229789">
  <ele>1583.0</ele>
  <time>2026-08-28T17:48:24Z</time>
  <course>248.41</course>
  <speed>0.0</speed>
  <fix>3d</fix>
</trkpt>
<trkpt lat="40.0713749" lon="-105.229789">
  <ele>1583.0</ele>
  <time>2026-08-28T17:48:24Z</time>
  <course>0.0</course>
  <speed>0.0</speed>
  <fix>3d</fix>
</trkpt>
<trkpt lat="40.0713749" lon="-105.229789">
  <ele>1583.0</ele>
  <time>2026-08-28T17:48:24Z</time>
  <course>248.41</course>
  <speed>0.0</speed>
  <fix>3d</fix>
</trkpt>
<trkpt lat="40.0713749" lon="-105.229789">
  <ele>1583.0</ele>
  <time>2026-08-28T17:48:24Z</time>
  <course>0.0</course>
  <speed>0.0</speed>
  <fix>3d</fix>
</trkpt>
<trkpt lat="40.0713749" lon="-105.229789">
  <ele>1583.0</ele>
  <time>2026-08-28T17:48:24Z</time>
  <course>248.41</course>
  <speed>0.0</speed>
  <fix>3d</fix>
</trkpt>
<trkpt lat="40.0713749" lon="-105.229789">
  <ele>1583.0</ele>
  <time>2026-08-28T17:48:24Z</time>
  <course>0.0</course>
  <speed>0.0</speed>
  <fix>3d</fix>
</trkpt>
<trkpt lat="40.0713749" lon="-105.229789">
  <ele>1583.0</ele>
  <time>2026-08-28T17:48:24Z</time>
  <course>248.41</course>
  <speed>0.0</speed>
  <fix>3d</fix>
</trkpt>
<trkpt lat="40.0713749" lon="-105.229789">
  <ele>1583.0</ele>
  <time>2026-08-28T17:48:24Z</time>
  <course>0.0</course>
  <speed>0.0</speed>
  <fix>3d</fix>
</trkpt>
<trkpt lat="40.0713749" lon="-105.229789">
  <ele>1583.0</ele>
  <time>2026-08-28T17:48:24Z</time>
  <course>248.41</course>
  <speed>0.0</speed>
  <fix>3d</fix>
</trkpt>
<trkpt lat="40.0713749" lon="-105.229789">
  <ele>1583.0</ele>
  <time>2026-08-28T17:48:24Z</time>
  <course>0.0</course>
  <speed>0.0</speed>
  <fix>3d</fix>
</trkpt>
<trkpt lat="40.0713749" lon="-105.229789">
  <ele>1583.0</ele>
  <time>2026-08-28T17:48:24Z</time>
  <course>248.4</course>
  <speed>0.0</speed>
  <fix>3d</fix>
</trkpt>
<trkpt lat="40.0713749" lon="-105.229789">
  <ele>1583.0</ele>
  <time>2026-08-28T17:48:24Z</time>
  <course>0.0</course>
  <speed>0.0</speed>
  <fix>3d</fix>
</trkpt>
<trkpt lat="40.0713749" lon="-105.229789">
  <ele>1583.0</ele>
  <time>2026-08-28T17:48:24Z</time>
  <course>248.4</course>
  <speed>0.01</speed>
  <fix>3d</fix>
</trkpt>
<trkpt lat="40.0713749" lon="-105.229789">
  <ele>1583.0</ele>
  <time>2026-08-28T17:48:24Z</time>
  <course>0.0</course>
  <speed>0.0</speed>
  <fix>3d</fix>
</trkpt>
<trkpt lat="40.0713749" lon="-105.229789">
  <ele>1583.0</ele>
  <time>2026-08-28T17:48:24Z</time>
  <course>248.4</course>
  <speed>0.01</speed>
  <fix>3d</fix>
</trkpt>
<trkpt lat="40.0713749" lon="-105.229789">
  <ele>1583.0</ele>
  <time>2026-08-28T17:48:24Z</time>
  <course>0.0</course>
  <speed>0.0</speed>
  <fix>3d</fix>
</trkpt>
<trkpt lat="40.0713749" lon="-105.229789">
  <ele>1583.0</ele>
  <time>2026-08-28T17:48:24Z</time>
  <course>248.4</course>
  <speed>0.01</speed>
  <fix>3d</fix>
</trkpt>
<trkpt lat="40.0713749" lon="-105.229789">
  <ele>1583.0</ele>
  <time>2026-08-28T17:48:24Z</time>
  <course>0.0</course>
  <speed>0.0</speed>
  <fix>3d</fix>
</trkpt>
<trkpt lat="40.0713749" lon="-105.229789">
  <ele>1583.0</ele>
  <time>2026-08-28T17:48:24Z</time>
  <course>248.4</course>
  <speed>0.01</speed>
  <fix>3d</fix>
</trkpt>
<trkpt lat="40.0713749" lon="-105.229789">
  <ele>1583.0</ele>
  <time>2026-08-28T17:48:24Z</time>
  <course>0.0</course>
  <speed>0.0</speed>
  <fix>3d</fix>
</trkpt>
<trkpt lat="40.0713749" lon="-105.229789">
  <ele>1583.0</ele>
  <time>2026-08-28T17:48:24Z</time>
  <course>248.39</course>
  <speed>0.01</speed>
  <fix>3d</fix>
</trkpt>
<trkpt lat="40.0713749" lon="-105.229789">
  <ele>1583.0</ele>
  <time>2026-08-28T17:48:24Z</time>
  <course>0.0</course>
  <speed>0.0</speed>
  <fix>3d</fix>
</trkpt>
<trkpt lat="40.0713749" lon="-105.229789">
  <ele>1583.0</ele>
  <time>2026-08-28T17:48:24Z</time>
  <course>248.39</course>
  <speed>0.01</speed>
  <fix>3d</fix>
</trkpt>
<trkpt lat="40.0713749" lon="-105.229789">
  <ele>1583.0</ele>
  <time>2026-08-28T17:48:24Z</time>
  <course>0.0</course>
  <speed>0.0</speed>
  <fix>3d</fix>
</trkpt>
<trkpt lat="40.0713749" lon="-105.229789">
  <ele>1583.0</ele>
  <time>2026-08-28T17:48:24Z</time>
  <course>248.39</course>
  <speed>0.01</speed>
  <fix>3d</fix>
</trkpt>
<trkpt lat="40.0713749" lon="-105.229789">
  <ele>1583.0</ele>
  <time>2026-08-28T17:48:24Z</time>
  <course>0.0</course>
  <speed>0.0</speed>
  <fix>3d</fix>
</trkpt>
<trkpt lat="40.0713749" lon="-105.229789">
  <ele>1583.0</ele>
  <time>2026-08-28T17:48:24Z</time>
  <course>248.38</course>
  <speed>0.01</speed>
  <fix>3d</fix>
</trkpt>
<trkpt lat="40.0713749" lon="-105.229789">
  <ele>1583.0</ele>
  <time>2026-08-28T17:48:24Z</time>
  <course>0.0</course>
  <speed>0.0</speed>
  <fix>3d</fix>
</trkpt>
<trkpt lat="40.0713749" lon="-105.229789">
  <ele>1583.0</ele>
  <time>2026-08-28T17:48:24Z</time>
  <course>248.38</course>
  <speed>0.01</speed>
  <fix>3d</fix>
</trkpt>
<trkpt lat="40.0713749" lon="-105.229789">
  <ele>1583.0</ele>
  <time>2026-08-28T17:48:24Z</time>
  <course>0.0</course>
  <speed>0.0</speed>
  <fix>3d</fix>
</trkpt>
<trkpt lat="40.0713749" lon="-105.229789">
  <ele>1583.0</ele>
  <time>2026-08-28T17:48:24Z</time>
  <course>248.38</course>
  <speed>0.01</speed>
  <fix>3d</fix>
</trkpt>
<trkpt lat="40.0713749" lon="-105.229789">
  <ele>1583.0</ele>
  <time>2026-08-28T17:48:24Z</time>
  <course>0.0</course>
  <speed>0.0</speed>
  <fix>3d</fix>
</trkpt>
<trkpt lat="40.0713749" lon="-105.229789">
  <ele>1583.0</ele>
  <time>2026-08-28T17:48:24Z</time>
  <course>248.38</course>
  <speed>0.01</speed>
  <fix>3d</fix>
</trkpt>
<trkpt lat="40.0713749" lon="-105.229789">
  <ele>1583.0</ele>
  <time>2026-08-28T17:48:24Z</time>
  <course>0.0</course>
  <speed>0.0</speed>
  <fix>3d</fix>
</trkpt>
<trkpt lat="40.0713749" lon="-105.229789">
  <ele>1583.0</ele>
  <time>2026-08-28T17:48:24Z</time>
  <course>248.37</course>
  <speed>0.01</speed>
  <fix>3d</fix>
</trkpt>
<trkpt lat="40.0713749" lon="-105.229789">
  <ele>1583.0</ele>
  <time>2026-08-28T17:48:24Z</time>
  <course>0.0</course>
  <speed>0.0</speed>
  <fix>3d</fix>
</trkpt>
<trkpt lat="40.0713749" lon="-105.229789">
  <ele>1583.0</ele>
  <time>2026-08-28T17:48:24Z</time>
  <course>248.37</course>
  <speed>0.01</speed>
  <fix>3d</fix>
</trkpt>
<trkpt lat="40.0713749" lon="-105.229789">
  <ele>1583.0</ele>
  <time>2026-08-28T17:48:24Z</time>
  <course>0.0</course>
  <speed>0.0</speed>
  <fix>3d</fix>
</trkpt>
<trkpt lat="40.0713749" lon="-105.229789">
  <ele>1583.0</ele>
  <time>2026-08-28T17:48:24Z</time>
  <course>248.37</course>
  <speed>0.01</speed>
  <fix>3d</fix>
</trkpt>
<trkpt lat="40.0713749" lon="-105.229789">
  <ele>1583.0</ele>
  <time>2026-08-28T17:48:24Z</time>
  <course>0.0</course>
  <speed>0.0</speed>
  <fix>3d</fix>
</trkpt>
<trkpt lat="40.0713749" lon="-105.229789">
  <ele>1583.0</ele>
  <time>2026-08-28T17:48:24Z</time>
  <course>248.36</course>
  <speed>0.01</speed>
  <fix>3d</fix>
</trkpt>
<trkpt lat="40.0713749" lon="-105.229789">
  <ele>1583.0</ele>
  <time>2026-08-28T17:48:24Z</time>
  <course>0.0</course>
  <speed>0.0</speed>
  <fix>3d</fix>
</trkpt>
<trkpt lat="40.0713749" lon="-105.229789">
  <ele>1583.0</ele>
  <time>2026-08-28T17:48:24Z</time>
  <course>248.36</course>
  <speed>0.01</speed>
  <fix>3d</fix>
</trkpt>
<trkpt lat="40.0713749" lon="-105.229789">
  <ele>1583.0</ele>
  <time>2026-08-28T17:48:24Z</time>
  <course>0.0</course>
  <speed>0.0</speed>
  <fix>3d</fix>
</trkpt>
<trkpt lat="40.0713749" lon="-105.229789">
  <ele>1583.0</ele>
  <time>2026-08-28T17:48:24Z</time>
  <course>248.35</course>
  <speed>0.01</speed>
  <fix>3d</fix>
</trkpt>
<trkpt lat="40.0713749" lon="-105.229789">
  <ele>1583.0</ele>
  <time>2026-08-28T17:48:24Z</time>
  <course>0.0</course>
  <speed>0.0</speed>
  <fix>3d</fix>
</trkpt>
<trkpt lat="40.0713749" lon="-105.229789">
  <ele>1583.0</ele>
  <time>2026-08-28T17:48:24Z</time>
  <course>248.35</course>
  <speed>0.01</speed>
  <fix>3d</fix>
</trkpt>
<trkpt lat="40.0713749" lon="-105.229789">
  <ele>1583.0</ele>
  <time>2026-08-28T17:48:24Z</time>
  <course>0.0</course>
  <speed>0.0</speed>
  <fix>3d</fix>
</trkpt>
<trkpt lat="40.0713749" lon="-105.229789">
  <ele>1583.0</ele>
  <time>2026-08-28T17:48:24Z</time>
  <course>248.35</course>
  <speed>0.01</speed>
  <fix>3d</fix>
</trkpt>
<trkpt lat="40.0713749" lon="-105.229789">
  <ele>1583.0</ele>
  <time>2026-08-28T17:48:24Z</time>
  <course>0.0</course>
  <speed>0.0</speed>
  <fix>3d</fix>
</trkpt>
<trkpt lat="40.0713749" lon="-105.229789">
  <ele>1583.0</ele>
  <time>2026-08-28T17:48:24Z</time>
  <course>248.34</course>
  <speed>0.01</speed>
  <fix>3d</fix>
</trkpt>
<trkpt lat="40.0713749" lon="-105.229789">
  <ele>1583.0</ele>
  <time>2026-08-28T17:48:24Z</time>
  <course>0.0</course>
  <speed>0.0</speed>
  <fix>3d</fix>
</trkpt>
<trkpt lat="40.0713749" lon="-105.229789">
  <ele>1583.0</ele>
  <time>2026-08-28T17:48:24Z</time>
  <course>248.34</course>
  <speed>0.01</speed>
  <fix>3d</fix>
</trkpt>
<trkpt lat="40.0713749" lon="-105.229789">
  <ele>1583.0</ele>
  <time>2026-08-28T17:48:24Z</time>
  <course>0.0</course>
  <speed>0.0</speed>
  <fix>3d</fix>
</trkpt>
<trkpt lat="40.0713749" lon="-105.229789">
  <ele>1583.0</ele>
  <time>2026-08-28T17:48:24Z</time>
  <course>248.33</course>
  <speed>0.01</speed>
  <fix>3d</fix>
</trkpt>
<trkpt lat="40.0713749" lon="-105.229789">
  <ele>1583.0</ele>
  <time>2026-08-28T17:48:24Z</time>
  <course>0.0</course>
  <speed>0.0</speed>
  <fix>3d</fix>
</trkpt>
<trkpt lat="40.0713749" lon="-105.229789">
  <ele>1583.0</ele>
  <time>2026-08-28T17:48:24Z</time>
  <course>248.33</course>
  <speed>0.01</speed>
  <fix>3d</fix>
</trkpt>
<trkpt lat="40.0713749" lon="-105.229789">
  <ele>1583.0</ele>
  <time>2026-08-28T17:48:24Z</time>
  <course>0.0</course>
  <speed>0.0</speed>
  <fix>3d</fix>
</trkpt>
<trkpt lat="40.0713749" lon="-105.229789">
  <ele>1583.0</ele>
  <time>2026-08-28T17:48:24Z</time>
  <course>248.32</course>
  <speed>0.01</speed>
  <fix>3d</fix>
</trkpt>
<trkpt lat="40.0713749" lon="-105.229789">
  <ele>1583.0</ele>
  <time>2026-08-28T17:48:24Z</time>
  <course>0.0</course>
  <speed>0.0</speed>
  <fix>3d</fix>
</trkpt>
<trkpt lat="40.0713749" lon="-105.229789">
  <ele>1583.0</ele>
  <time>2026-08-28T17:48:24Z</time>
  <course>248.32</course>
  <speed>0.01</speed>
  <fix>3d</fix>
</trkpt>
<trkpt lat="40.0713749" lon="-105.229789">
  <ele>1583.0</ele>
  <time>2026-08-28T17:48:24Z</time>
  <course>0.0</course>
  <speed>0.0</speed>
  <fix>3d</fix>
</trkpt>
<trkpt lat="40.0713749" lon="-105.229789">
  <ele>1583.0</ele>
  <time>2026-08-28T17:48:24Z</time>
  <course>248.32</course>
  <speed>0.01</speed>
  <fix>3d</fix>
</trkpt>
<trkpt lat="40.0713749" lon="-105.229789">
  <ele>1583.0</ele>
  <time>2026-08-28T17:48:24Z</time>
  <course>0.0</course>
  <speed>0.0</speed>
  <fix>3d</fix>
</trkpt>
<trkpt lat="40.0713749" lon="-105.229789">
  <ele>1583.0</ele>
  <time>2026-08-28T17:48:24Z</time>
  <course>248.31</course>
  <speed>0.01</speed>
  <fix>3d</fix>
</trkpt>
<trkpt lat="40.0713749" lon="-105.229789">
  <ele>1583.0</ele>
  <time>2026-08-28T17:48:24Z</time>
  <course>0.0</course>
  <speed>0.0</speed>
  <fix>3d</fix>
</trkpt>
<trkpt lat="40.0713749" lon="-105.229789">
  <ele>1583.0</ele>
  <time>2026-08-28T17:48:24Z</time>
  <course>248.31</course>
  <speed>0.01</speed>
  <fix>3d</fix>
</trkpt>
<trkpt lat="40.0713749" lon="-105.229789">
  <ele>1583.0</ele>
  <time>2026-08-28T17:48:24Z</time>
  <course>0.0</course>
  <speed>0.0</speed>
  <fix>3d</fix>
</trkpt>
<trkpt lat="40.0713749" lon="-105.229789">
  <ele>1583.0</ele>
  <time>2026-08-28T17:48:24Z</time>
  <course>248.3</course>
  <speed>0.01</speed>
  <fix>3d</fix>
</trkpt>
<trkpt lat="40.0713749" lon="-105.229789">
  <ele>1583.0</ele>
  <time>2026-08-28T17:48:24Z</time>
  <course>0.0</course>
  <speed>0.0</speed>
  <fix>3d</fix>
</trkpt>
<trkpt lat="40.0713749" lon="-105.229789">
  <ele>1583.0</ele>
  <time>2026-08-28T17:48:24Z</time>
  <course>248.3</course>
  <speed>0.01</speed>
  <fix>3d</fix>
</trkpt>
<trkpt lat="40.0713749" lon="-105.229789">
  <ele>1583.0</ele>
  <time>2026-08-28T17:48:24Z</time>
  <course>0.0</course>
  <speed>0.0</speed>
  <fix>3d</fix>
</trkpt>
<trkpt lat="40.0713749" lon="-105.229789">
  <ele>1583.0</ele>
  <time>2026-08-28T17:48:24Z</time>
  <course>248.29</course>
  <speed>0.01</speed>
  <fix>3d</fix>
</trkpt>
<trkpt lat="40.0713749" lon="-105.229789">
  <ele>1583.0</ele>
  <time>2026-08-28T17:48:24Z</time>
  <course>0.0</course>
  <speed>0.0</speed>
  <fix>3d</fix>
</trkpt>
<trkpt lat="40.0713749" lon="-105.229789">
  <ele>1583.0</ele>
  <time>2026-08-28T17:48:24Z</time>
  <course>248.29</course>
  <speed>0.01</speed>
  <fix>3d</fix>
</trkpt>
<trkpt lat="40.0713749" lon="-105.229789">
  <ele>1583.0</ele>
  <time>2026-08-28T17:48:24Z</time>
  <course>0.0</course>
  <speed>0.0</speed>
  <fix>3d</fix>
</trkpt>
<trkpt lat="40.0713749" lon="-105.229789">
  <ele>1583.0</ele>
  <time>2026-08-28T17:48:24Z</time>
  <course>248.28</course>
  <speed>0.01</speed>
  <fix>3d</fix>
</trkpt>
<trkpt lat="40.0713749" lon="-105.229789">
  <ele>1583.0</ele>
  <time>2026-08-28T17:48:24Z</time>
  <course>0.0</course>
  <speed>0.0</speed>
  <fix>3d</fix>
</trkpt>
<trkpt lat="40.0713749" lon="-105.229789">
  <ele>1583.0</ele>
  <time>2026-08-28T17:48:24Z</time>
  <course>248.28</course>
  <speed>0.01</speed>
  <fix>3d</fix>
</trkpt>
<trkpt lat="40.0713749" lon="-105.229789">
  <ele>1583.0</ele>
  <time>2026-08-28T17:48:24Z</time>
  <course>0.0</course>
  <speed>0.0</speed>
  <fix>3d</fix>
</trkpt>
<trkpt lat="40.0713749" lon="-105.229789">
  <ele>1583.0</ele>
  <time>2026-08-28T17:48:24Z</time>
  <course>248.27</course>
  <speed>0.01</speed>
  <fix>3d</fix>
</trkpt>
<trkpt lat="40.0713749" lon="-105.229789">
  <ele>1583.0</ele>
  <time>2026-08-28T17:48:24Z</time>
  <course>0.0</course>
  <speed>0.0</speed>
  <fix>3d</fix>
</trkpt>
<trkpt lat="40.0713749" lon="-105.229789">
  <ele>1583.0</ele>
  <time>2026-08-28T17:48:24Z</time>
  <course>248.27</course>
  <speed>0.01</speed>
  <fix>3d</fix>
</trkpt>
<trkpt lat="40.0713749" lon="-105.229789">
  <ele>1583.0</ele>
  <time>2026-08-28T17:48:24Z</time>
  <course>0.0</course>
  <speed>0.0</speed>
  <fix>3d</fix>
</trkpt>
<trkpt lat="40.0713749" lon="-105.229789">
  <ele>1583.0</ele>
  <time>2026-08-28T17:48:24Z</time>
  <course>248.27</course>
  <speed>0.01</speed>
  <fix>3d</fix>
</trkpt>
<trkpt lat="40.0713749" lon="-105.229789">
  <ele>1583.0</ele>
  <time>2026-08-28T17:48:24Z</time>
  <course>0.0</course>
  <speed>0.0</speed>
  <fix>3d</fix>
</trkpt>
<trkpt lat="40.0713749" lon="-105.229789">
  <ele>1583.0</ele>
  <time>2026-08-28T17:48:24Z</time>
  <course>248.26</course>
  <speed>0.01</speed>
  <fix>3d</fix>
</trkpt>
<trkpt lat="40.0713749" lon="-105.229789">
  <ele>1583.0</ele>
  <time>2026-08-28T17:48:24Z</time>
  <course>0.0</course>
  <speed>0.0</speed>
  <fix>3d</fix>
</trkpt>
<trkpt lat="40.0713749" lon="-105.229789">
  <ele>1583.0</ele>
  <time>2026-08-28T17:48:24Z</time>
  <course>248.26</course>
  <speed>0.01</speed>
  <fix>3d</fix>
</trkpt>
<trkpt lat="40.0713749" lon="-105.229789">
  <ele>1583.0</ele>
  <time>2026-08-28T17:48:24Z</time>
  <course>0.0</course>
  <speed>0.0</speed>
  <fix>3d</fix>
</trkpt>
<trkpt lat="40.0713749" lon="-105.229789">
  <ele>1583.0</ele>
  <time>2026-08-28T17:48:24Z</time>
  <course>248.25</course>
  <speed>0.01</speed>
  <fix>3d</fix>
</trkpt>
<trkpt lat="40.0713749" lon="-105.229789">
  <ele>1583.0</ele>
  <time>2026-08-28T17:48:24Z</time>
  <course>0.0</course>
  <speed>0.0</speed>
  <fix>3d</fix>
</trkpt>
<trkpt lat="40.0713749" lon="-105.229789">
  <ele>1583.0</ele>
  <time>2026-08-28T17:48:24Z</time>
  <course>248.25</course>
  <speed>0.01</speed>
  <fix>3d</fix>
</trkpt>
<trkpt lat="40.0713749" lon="-105.229789">
  <ele>1583.0</ele>
  <time>2026-08-28T17:48:24Z</time>
  <course>0.0</course>
  <speed>0.0</speed>
  <fix>3d</fix>
</trkpt>
<trkpt lat="40.0713749" lon="-105.229789">
  <ele>1583.0</ele>
  <time>2026-08-28T17:48:24Z</time>
  <course>248.24</course>
  <speed>0.01</speed>
  <fix>3d</fix>
</trkpt>
<trkpt lat="40.0713749" lon="-105.229789">
  <ele>1583.0</ele>
  <time>2026-08-28T17:48:24Z</time>
  <course>0.0</course>
  <speed>0.0</speed>
  <fix>3d</fix>
</trkpt>
<trkpt lat="40.0713749" lon="-105.229789">
  <ele>1583.0</ele>
  <time>2026-08-28T17:48:24Z</time>
  <course>248.24</course>
  <speed>0.01</speed>
  <fix>3d</fix>
</trkpt>
<trkpt lat="40.0713749" lon="-105.229789">
  <ele>1583.0</ele>
  <time>2026-08-28T17:48:24Z</time>
  <course>0.0</course>
  <speed>0.0</speed>
  <fix>3d</fix>
</trkpt>
<trkpt lat="40.0713749" lon="-105.229789">
  <ele>1583.0</ele>
  <time>2026-08-28T17:48:24Z</time>
  <course>248.23</course>
  <speed>0.01</speed>
  <fix>3d</fix>
</trkpt>
<trkpt lat="40.0713749" lon="-105.229789">
  <ele>1583.0</ele>
  <time>2026-08-28T17:48:24Z</time>
  <course>0.0</course>
  <speed>0.0</speed>
  <fix>3d</fix>
</trkpt>
<trkpt lat="40.0713749" lon="-105.229789">
  <ele>1583.0</ele>
  <time>2026-08-28T17:48:24Z</time>
  <course>248.23</course>
  <speed>0.01</speed>
  <fix>3d</fix>
</trkpt>
<trkpt lat="40.0713749" lon="-105.229789">
  <ele>1583.0</ele>
  <time>2026-08-28T17:48:24Z</time>
  <course>0.0</course>
  <speed>0.0</speed>
  <fix>3d</fix>
</trkpt>
<trkpt lat="40.0713749" lon="-105.229789">
  <ele>1583.0</ele>
  <time>2026-08-28T17:48:24Z</time>
  <course>248.22</course>
  <speed>0.01</speed>
  <fix>3d</fix>
</trkpt>
<trkpt lat="40.0713749" lon="-105.229789">
  <ele>1583.0</ele>
  <time>2026-08-28T17:48:24Z</time>
  <course>0.0</course>
  <speed>0.0</speed>
  <fix>3d</fix>
</trkpt>
<trkpt lat="40.0713749" lon="-105.229789">
  <ele>1583.0</ele>
  <time>2026-08-28T17:48:24Z</time>
  <course>248.22</course>
  <speed>0.01</speed>
  <fix>3d</fix>
</trkpt>
<trkpt lat="40.0713749" lon="-105.229789">
  <ele>1583.0</ele>
  <time>2026-08-28T17:48:24Z</time>
  <course>0.0</course>
  <speed>0.0</speed>
  <fix>3d</fix>
</trkpt>
<trkpt lat="40.0713749" lon="-105.229789">
  <ele>1583.0</ele>
  <time>2026-08-28T17:48:24Z</time>
  <course>248.21</course>
  <speed>0.01</speed>
  <fix>3d</fix>
</trkpt>
<trkpt lat="40.0713749" lon="-105.229789">
  <ele>1583.0</ele>
  <time>2026-08-28T17:48:24Z</time>
  <course>0.0</course>
  <speed>0.0</speed>
  <fix>3d</fix>
</trkpt>
<trkpt lat="40.0713749" lon="-105.229789">
  <ele>1583.0</ele>
  <time>2026-08-28T17:48:24Z</time>
  <course>248.21</course>
  <speed>0.01</speed>
  <fix>3d</fix>
</trkpt>
<trkpt lat="40.0713749" lon="-105.229789">
  <ele>1583.0</ele>
  <time>2026-08-28T17:48:24Z</time>
  <course>0.0</course>
  <speed>0.0</speed>
  <fix>3d</fix>
</trkpt>
<trkpt lat="40.0713749" lon="-105.229789">
  <ele>1583.0</ele>
  <time>2026-08-28T17:48:24Z</time>
  <course>248.2</course>
  <speed>0.01</speed>
  <fix>3d</fix>
</trkpt>
<trkpt lat="40.0713749" lon="-105.229789">
  <ele>1583.0</ele>
  <time>2026-08-28T17:48:24Z</time>
  <course>0.0</course>
  <speed>0.0</speed>
  <fix>3d</fix>
</trkpt>
<trkpt lat="40.0713749" lon="-105.229789">
  <ele>1583.0</ele>
  <time>2026-08-28T17:48:24Z</time>
  <course>248.2</course>
  <speed>0.01</speed>
  <fix>3d</fix>
</trkpt>
<trkpt lat="40.0713749" lon="-105.229789">
  <ele>1583.0</ele>
  <time>2026-08-28T17:48:24Z</time>
  <course>0.0</course>
  <speed>0.0</speed>
  <fix>3d</fix>
</trkpt>
<trkpt lat="40.0713749" lon="-105.229789">
  <ele>1583.0</ele>
  <time>2026-08-28T17:48:24Z</time>
  <course>248.19</course>
  <speed>0.01</speed>
  <fix>3d</fix>
</trkpt>
<trkpt lat="40.0713749" lon="-105.229789">
  <ele>1583.0</ele>
  <time>2026-08-28T17:48:24Z</time>
  <course>0.0</course>
  <speed>0.0</speed>
  <fix>3d</fix>
</trkpt>
<trkpt lat="40.0713749" lon="-105.229789">
  <ele>1583.0</ele>
  <time>2026-08-28T17:48:24Z</time>
  <course>248.19</course>
  <speed>0.01</speed>
  <fix>3d</fix>
</trkpt>
<trkpt lat="40.0713749" lon="-105.229789">
  <ele>1583.0</ele>
  <time>2026-08-28T17:48:24Z</time>
  <course>0.0</course>
  <speed>0.0</speed>
  <fix>3d</fix>
</trkpt>
<trkpt lat="40.0713749" lon="-105.229789">
  <ele>1583.0</ele>
  <time>2026-08-28T17:48:24Z</time>
  <course>248.18</course>
  <speed>0.01</speed>
  <fix>3d</fix>
</trkpt>
<trkpt lat="40.0713749" lon="-105.229789">
  <ele>1583.0</ele>
  <time>2026-08-28T17:48:24Z</time>
  <course>0.0</course>
  <speed>0.0</speed>
  <fix>3d</fix>
</trkpt>
<trkpt lat="40.0713749" lon="-105.229789">
  <ele>1583.0</ele>
  <time>2026-08-28T17:48:24Z</time>
  <course>248.18</course>
  <speed>0.01</speed>
  <fix>3d</fix>
</trkpt>
<trkpt lat="40.0713749" lon="-105.229789">
  <ele>1583.0</ele>
  <time>2026-08-28T17:48:24Z</time>
  <course>0.0</course>
  <speed>0.0</speed>
  <fix>3d</fix>
</trkpt>
<trkpt lat="40.0713749" lon="-105.229789">
  <ele>1583.0</ele>
  <time>2026-08-28T17:48:24Z</time>
  <course>248.17</course>
  <speed>0.022360679774997897</speed>
  <fix>3d</fix>
</trkpt>
<trkpt lat="40.0713749" lon="-105.229789">
  <ele>1583.0</ele>
  <time>2026-08-28T17:48:24Z</time>
  <course>0.0</course>
  <speed>0.0</speed>
  <fix>3d</fix>
</trkpt>
<trkpt lat="40.0713749" lon="-105.229789">
  <ele>1583.0</ele>
  <time>2026-08-28T17:48:24Z</time>
  <course>248.17</course>
  <speed>0.022360679774997897</speed>
  <fix>3d</fix>
</trkpt>
<trkpt lat="40.0713749" lon="-105.229789">
  <ele>1583.0</ele>
  <time>2026-08-28T17:48:24Z</time>
  <course>0.0</course>
  <speed>0.0</speed>
  <fix>3d</fix>
</trkpt>
<trkpt lat="40.0713749" lon="-105.229789">
  <ele>1583.0</ele>
  <time>2026-08-28T17:48:24Z</time>
  <course>248.16</course>
  <speed>0.022360679774997897</speed>
  <fix>3d</fix>
</trkpt>
<trkpt lat="40.0713749" lon="-105.229789">
  <ele>1583.0</ele>
  <time>2026-08-28T17:48:24Z</time>
  <course>0.0</course>
  <speed>0.0</speed>
  <fix>3d</fix>
</trkpt>
<trkpt lat="40.0713749" lon="-105.229789">
  <ele>1583.0</ele>
  <time>2026-08-28T17:48:24Z</time>
  <course>248.16</course>
  <speed>0.022360679774997897</speed>
  <fix>3d</fix>
</trkpt>
<trkpt lat="40.0713749" lon="-105.229789">
  <ele>1583.0</ele>
  <time>2026-08-28T17:48:24Z</time>
  <course>0.0</course>
  <speed>0.0</speed>
  <fix>3d</fix>
</trkpt>
<trkpt lat="40.0713749" lon="-105.229789">
  <ele>1583.0</ele>
  <time>2026-08-28T17:48:24Z</time>
  <course>248.15</course>
  <speed>0.022360679774997897</speed>
  <fix>3d</fix>
</trkpt>
<trkpt lat="40.0713749" lon="-105.229789">
  <ele>1583.0</ele>
  <time>2026-08-28T17:48:24Z</time>
  <course>0.0</course>
  <speed>0.0</speed>
  <fix>3d</fix>
</trkpt>
<trkpt lat="40.0713749" lon="-105.229789">
  <ele>1583.0</ele>
  <time>2026-08-28T17:48:24Z</time>
  <course>248.15</course>
  <speed>0.022360679774997897</speed>
  <fix>3d</fix>
</trkpt>
<trkpt lat="40.0713749" lon="-105.229789">
  <ele>1583.0</ele>
  <time>2026-08-28T17:48:24Z</time>
  <course>0.0</course>
  <speed>0.0</speed>
  <fix>3d</fix>
</trkpt>
<trkpt lat="40.0713749" lon="-105.229789">
  <ele>1583.0</ele>
  <time>2026-08-28T17:48:24Z</time>
  <course>248.14</course>
  <speed>0.022360679774997897</speed>
  <fix>3d</fix>
</trkpt>
<trkpt lat="40.0713749" lon="-105.229789">
  <ele>1583.0</ele>
  <time>2026-08-28T17:48:24Z</time>
  <course>0.0</course>
  <speed>0.0</speed>
  <fix>3d</fix>
</trkpt>
<trkpt lat="40.0713749" lon="-105.229789">
  <ele>1583.0</ele>
  <time>2026-08-28T17:48:24Z</time>
  <course>248.14</course>
  <speed>0.022360679774997897</speed>
  <fix>3d</fix>
</trkpt>
<trkpt lat="40.0713749" lon="-105.229789">
  <ele>1583.0</ele>
  <time>2026-08-28T17:48:24Z</time>
  <course>0.0</course>
  <speed>0.0</speed>
  <fix>3d</fix>
</trkpt>
<trkpt lat="40.0713749" lon="-105.229789">
  <ele>1583.0</ele>
  <time>2026-08-28T17:48:24Z</time>
  <course>248.13</course>
  <speed>0.022360679774997897</speed>
  <fix>3d</fix>
</trkpt>
<trkpt lat="40.0713749" lon="-105.229789">
  <ele>1583.0</ele>
  <time>2026-08-28T17:48:24Z</time>
  <course>0.0</course>
  <speed>0.0</speed>
  <fix>3d</fix>
</trkpt>
<trkpt lat="40.0713749" lon="-105.229789">
  <ele>1583.0</ele>
  <time>2026-08-28T17:48:24Z</time>
  <course>248.13</course>
  <speed>0.022360679774997897</speed>
  <fix>3d</fix>
</trkpt>
<trkpt lat="40.0713749" lon="-105.229789">
  <ele>1583.0</ele>
  <time>2026-08-28T17:48:24Z</time>
  <course>0.0</course>
  <speed>0.0</speed>
  <fix>3d</fix>
</trkpt>
<trkpt lat="40.0713749" lon="-105.229789">
  <ele>1583.0</ele>
  <time>2026-08-28T17:48:24Z</time>
  <course>248.12</course>
  <speed>0.022360679774997897</speed>
  <fix>3d</fix>
</trkpt>
<trkpt lat="40.0713749" lon="-105.229789">
  <ele>1583.0</ele>
  <time>2026-08-28T17:48:24Z</time>
  <course>0.0</course>
  <speed>0.0</speed>
  <fix>3d</fix>
</trkpt>
<trkpt lat="40.0713749" lon="-105.229789">
  <ele>1583.0</ele>
  <time>2026-08-28T17:48:24Z</time>
  <course>248.12</course>
  <speed>0.022360679774997897</speed>
  <fix>3d</fix>
</trkpt>
<trkpt lat="40.0713749" lon="-105.229789">
  <ele>1583.0</ele>
  <time>2026-08-28T17:48:24Z</time>
  <course>0.0</course>
  <speed>0.0</speed>
  <fix>3d</fix>
</trkpt>
<trkpt lat="40.0713749" lon="-105.229789">
  <ele>1583.0</ele>
  <time>2026-08-28T17:48:24Z</time>
  <course>248.11</course>
  <speed>0.022360679774997897</speed>
  <fix>3d</fix>
</trkpt>
<trkpt lat="40.0713749" lon="-105.229789">
  <ele>1583.0</ele>
  <time>2026-08-28T17:48:24Z</time>
  <course>0.0</course>
  <speed>0.0</speed>
  <fix>3d</fix>
</trkpt>
<trkpt lat="40.0713749" lon="-105.229789">
  <ele>1583.0</ele>
  <time>2026-08-28T17:48:24Z</time>
  <course>248.11</course>
  <speed>0.022360679774997897</speed>
  <fix>3d</fix>
</trkpt>
<trkpt lat="40.0713749" lon="-105.229789">
  <ele>1583.0</ele>
  <time>2026-08-28T17:48:24Z</time>
  <course>0.0</course>
  <speed>0.0</speed>
  <fix>3d</fix>
</trkpt>
<trkpt lat="40.0713749" lon="-105.229789">
  <ele>1583.0</ele>
  <time>2026-08-28T17:48:24Z</time>
  <course>248.1</course>
  <speed>0.022360679774997897</speed>
  <fix>3d</fix>
</trkpt>
<trkpt lat="40.0713749" lon="-105.229789">
  <ele>1583.0</ele>
  <time>2026-08-28T17:48:24Z</time>
  <course>0.0</course>
  <speed>0.0</speed>
  <fix>3d</fix>
</trkpt>
<trkpt lat="40.0713749" lon="-105.229789">
  <ele>1583.0</ele>
  <time>2026-08-28T17:48:24Z</time>
  <course>248.1</course>
  <speed>0.022360679774997897</speed>
  <fix>3d</fix>
</trkpt>
<trkpt lat="40.0713749" lon="-105.229789">
  <ele>1583.0</ele>
  <time>2026-08-28T17:48:24Z</time>
  <course>0.0</course>
  <speed>0.0</speed>
  <fix>3d</fix>
</trkpt>
<trkpt lat="40.0713749" lon="-105.229789">
  <ele>1583.0</ele>
  <time>2026-08-28T17:48:24Z</time>
  <course>248.09</course>
  <speed>0.022360679774997897</speed>
  <fix>3d</fix>
</trkpt>
<trkpt lat="40.0713749" lon="-105.229789">
  <ele>1583.0</ele>
  <time>2026-08-28T17:48:24Z</time>
  <course>0.0</course>
  <speed>0.0</speed>
  <fix>3d</fix>
</trkpt>
<trkpt lat="40.0713749" lon="-105.229789">
  <ele>1583.0</ele>
  <time>2026-08-28T17:48:24Z</time>
  <course>248.09</course>
  <speed>0.022360679774997897</speed>
  <fix>3d</fix>
</trkpt>
<trkpt lat="40.0713749" lon="-105.229789">
  <ele>1583.0</ele>
  <time>2026-08-28T17:48:24Z</time>
  <course>0.0</course>
  <speed>0.0</speed>
  <fix>3d</fix>
</trkpt>
<trkpt lat="40.0713749" lon="-105.229789">
  <ele>1583.0</ele>
  <time>2026-08-28T17:48:24Z</time>
  <course>248.08</course>
  <speed>0.022360679774997897</speed>
  <fix>3d</fix>
</trkpt>
<trkpt lat="40.0713749" lon="-105.229789">
  <ele>1583.0</ele>
  <time>2026-08-28T17:48:24Z</time>
  <course>0.0</course>
  <speed>0.0</speed>
  <fix>3d</fix>
</trkpt>
<trkpt lat="40.0713749" lon="-105.229789">
  <ele>1583.0</ele>
  <time>2026-08-28T17:48:24Z</time>
  <course>248.08</course>
  <speed>0.022360679774997897</speed>
  <fix>3d</fix>
</trkpt>
<trkpt lat="40.0713749" lon="-105.229789">
  <ele>1583.0</ele>
  <time>2026-08-28T17:48:24Z</time>
  <course>0.0</course>
  <speed>0.0</speed>
  <fix>3d</fix>
</trkpt>
<trkpt lat="40.0713749" lon="-105.229789">
  <ele>1583.0</ele>
  <time>2026-08-28T17:48:24Z</time>
  <course>248.07</course>
  <speed>0.022360679774997897</speed>
  <fix>3d</fix>
</trkpt>
<trkpt lat="40.0713749" lon="-105.229789">
  <ele>1583.0</ele>
  <time>2026-08-28T17:48:24Z</time>
  <course>0.0</course>
  <speed>0.0</speed>
  <fix>3d</fix>
</trkpt>
<trkpt lat="40.0713749" lon="-105.229789">
  <ele>1583.0</ele>
  <time>2026-08-28T17:48:24Z</time>
  <course>248.07</course>
  <speed>0.022360679774997897</speed>
  <fix>3d</fix>
</trkpt>
<trkpt lat="40.0713749" lon="-105.229789">
  <ele>1583.0</ele>
  <time>2026-08-28T17:48:24Z</time>
  <course>0.0</course>
  <speed>0.0</speed>
  <fix>3d</fix>
</trkpt>
<trkpt lat="40.0713749" lon="-105.229789">
  <ele>1583.0</ele>
  <time>2026-08-28T17:48:24Z</time>
  <course>248.06</course>
  <speed>0.022360679774997897</speed>
  <fix>3d</fix>
</trkpt>
<trkpt lat="40.0713749" lon="-105.229789">
  <ele>1583.0</ele>
  <time>2026-08-28T17:48:24Z</time>
  <course>0.0</course>
  <speed>0.0</speed>
  <fix>3d</fix>
</trkpt>
<trkpt lat="40.0713749" lon="-105.229789">
  <ele>1583.0</ele>
  <time>2026-08-28T17:48:24Z</time>
  <course>248.06</course>
  <speed>0.022360679774997897</speed>
  <fix>3d</fix>
</trkpt>
<trkpt lat="40.0713749" lon="-105.229789">
  <ele>1583.0</ele>
  <time>2026-08-28T17:48:24Z</time>
  <course>0.0</course>
  <speed>0.0</speed>
  <fix>3d</fix>
</trkpt>
<trkpt lat="40.0713749" lon="-105.229789">
  <ele>1583.0</ele>
  <time>2026-08-28T17:48:24Z</time>
  <course>248.05</course>
  <speed>0.022360679774997897</speed>
  <fix>3d</fix>
</trkpt>
<trkpt lat="40.0713749" lon="-105.229789">
  <ele>1583.0</ele>
  <time>2026-08-28T17:48:24Z</time>
  <course>0.0</course>
  <speed>0.0</speed>
  <fix>3d</fix>
</trkpt>
<trkpt lat="40.0713749" lon="-105.229789">
  <ele>1583.0</ele>
  <time>2026-08-28T17:48:24Z</time>
  <course>248.05</course>
  <speed>0.022360679774997897</speed>
  <fix>3d</fix>
</trkpt>
<trkpt lat="40.0713749" lon="-105.229789">
  <ele>1583.0</ele>
  <time>2026-08-28T17:48:24Z</time>
  <course>0.0</course>
  <speed>0.0</speed>
  <fix>3d</fix>
</trkpt>
<trkpt lat="40.0713749" lon="-105.229789">
  <ele>1583.0</ele>
  <time>2026-08-28T17:48:24Z</time>
  <course>248.05</course>
  <speed>0.022360679774997897</speed>
  <fix>3d</fix>
</trkpt>
<trkpt lat="40.0713749" lon="-105.229789">
  <ele>1583.0</ele>
  <time>2026-08-28T17:48:24Z</time>
  <course>0.0</course>
  <speed>0.0</speed>
  <fix>3d</fix>
</trkpt>
<trkpt lat="40.0713749" lon="-105.229789">
  <ele>1583.0</ele>
  <time>2026-08-28T17:48:24Z</time>
  <course>248.04</course>
  <speed>0.022360679774997897</speed>
  <fix>3d</fix>
</trkpt>
<trkpt lat="40.0713749" lon="-105.229789">
  <ele>1583.0</ele>
  <time>2026-08-28T17:48:24Z</time>
  <course>0.0</course>
  <speed>0.0</speed>
  <fix>3d</fix>
</trkpt>
<trkpt lat="40.0713749" lon="-105.229789">
  <ele>1583.0</ele>
  <time>2026-08-28T17:48:24Z</time>
  <course>248.04</course>
  <speed>0.022360679774997897</speed>
  <fix>3d</fix>
</trkpt>
<trkpt lat="40.0713749" lon="-105.229789">
  <ele>1583.0</ele>
  <time>2026-08-28T17:48:24Z</time>
  <course>0.0</course>
  <speed>0.0</speed>
  <fix>3d</fix>
</trkpt>
<trkpt lat="40.0713749" lon="-105.229789">
  <ele>1583.0</ele>
  <time>2026-08-28T17:48:24Z</time>
  <course>248.03</course>
  <speed>0.022360679774997897</speed>
  <fix>3d</fix>
</trkpt>
<trkpt lat="40.0713749" lon="-105.229789">
  <ele>1583.0</ele>
  <time>2026-08-28T17:48:24Z</time>
  <course>0.0</course>
  <speed>0.0</speed>
  <fix>3d</fix>
</trkpt>
<trkpt lat="40.0713749" lon="-105.229789">
  <ele>1583.0</ele>
  <time>2026-08-28T17:48:24Z</time>
  <course>248.03</course>
  <speed>0.022360679774997897</speed>
  <fix>3d</fix>
</trkpt>
<trkpt lat="40.0713749" lon="-105.229789">
  <ele>1583.0</ele>
  <time>2026-08-28T17:48:24Z</time>
  <course>0.0</course>
  <speed>0.0</speed>
  <fix>3d</fix>
</trkpt>
<trkpt lat="40.0713749" lon="-105.229789">
  <ele>1583.0</ele>
  <time>2026-08-28T17:48:24Z</time>
  <course>248.02</course>
  <speed>0.022360679774997897</speed>
  <fix>3d</fix>
</trkpt>
<trkpt lat="40.0713749" lon="-105.229789">
  <ele>1583.0</ele>
  <time>2026-08-28T17:48:24Z</time>
  <course>0.0</course>
  <speed>0.0</speed>
  <fix>3d</fix>
</trkpt>
<trkpt lat="40.0713749" lon="-105.229789">
  <ele>1583.0</ele>
  <time>2026-08-28T17:48:24Z</time>
  <course>248.02</course>
  <speed>0.022360679774997897</speed>
  <fix>3d</fix>
</trkpt>
<trkpt lat="40.0713749" lon="-105.229789">
  <ele>1583.0</ele>
  <time>2026-08-28T17:48:24Z</time>
  <course>0.0</course>
  <speed>0.0</speed>
  <fix>3d</fix>
</trkpt>
<trkpt lat="40.0713749" lon="-105.229789">
  <ele>1583.0</ele>
  <time>2026-08-28T17:48:24Z</time>
  <course>248.01</course>
  <speed>0.022360679774997897</speed>
  <fix>3d</fix>
</trkpt>
<trkpt lat="40.0713749" lon="-105.229789">
  <ele>1583.0</ele>
  <time>2026-08-28T17:48:24Z</time>
  <course>0.0</course>
  <speed>0.0</speed>
  <fix>3d</fix>
</trkpt>
<trkpt lat="40.0713749" lon="-105.229789">
  <ele>1583.0</ele>
  <time>2026-08-28T17:48:24Z</time>
  <course>248.01</course>
  <speed>0.022360679774997897</speed>
  <fix>3d</fix>
</trkpt>
<trkpt lat="40.0713749" lon="-105.229789">
  <ele>1583.0</ele>
  <time>2026-08-28T17:48:24Z</time>
  <course>0.0</course>
  <speed>0.0</speed>
  <fix>3d</fix>
</trkpt>
<trkpt lat="40.0713749" lon="-105.229789">
  <ele>1583.0</ele>
  <time>2026-08-28T17:48:24Z</time>
  <course>248.0</course>
  <speed>0.022360679774997897</speed>
  <fix>3d</fix>
</trkpt>
<trkpt lat="40.0713749" lon="-105.229789">
  <ele>1583.0</ele>
  <time>2026-08-28T17:48:24Z</time>
  <course>0.0</course>
  <speed>0.0</speed>
  <fix>3d</fix>
</trkpt>
<trkpt lat="40.0713749" lon="-105.229789">
  <ele>1583.0</ele>
  <time>2026-08-28T17:48:24Z</time>
  <course>248.0</course>
  <speed>0.022360679774997897</speed>
  <fix>3d</fix>
</trkpt>
<trkpt lat="40.0713749" lon="-105.229789">
  <ele>1583.0</ele>
  <time>2026-08-28T17:48:24Z</time>
  <course>0.0</course>
  <speed>0.0</speed>
  <fix>3d</fix>
</trkpt>
<trkpt lat="40.0713749" lon="-105.229789">
  <ele>1583.0</ele>
  <time>2026-08-28T17:48:24Z</time>
  <course>247.99</course>
  <speed>0.022360679774997897</speed>
  <fix>3d</fix>
</trkpt>
<trkpt lat="40.0713749" lon="-105.229789">
  <ele>1583.0</ele>
  <time>2026-08-28T17:48:24Z</time>
  <course>0.0</course>
  <speed>0.0</speed>
  <fix>3d</fix>
</trkpt>
<trkpt lat="40.0713749" lon="-105.229789">
  <ele>1583.0</ele>
  <time>2026-08-28T17:48:24Z</time>
  <course>247.99</course>
  <speed>0.022360679774997897</speed>
  <fix>3d</fix>
</trkpt>
<trkpt lat="40.0713749" lon="-105.229789">
  <ele>1583.0</ele>
  <time>2026-08-28T17:48:24Z</time>
  <course>0.0</course>
  <speed>0.0</speed>
  <fix>3d</fix>
</trkpt>
<trkpt lat="40.0713749" lon="-105.229789">
  <ele>1583.0</ele>
  <time>2026-08-28T17:48:24Z</time>
  <course>247.99</course>
  <speed>0.022360679774997897</speed>
  <fix>3d</fix>
</trkpt>
<trkpt lat="40.0713749" lon="-105.229789">
  <ele>1583.0</ele>
  <time>2026-08-28T17:48:24Z</time>
  <course>0.0</course>
  <speed>0.0</speed>
  <fix>3d</fix>
</trkpt>
<trkpt lat="40.0713749" lon="-105.229789">
  <ele>1583.0</ele>
  <time>2026-08-28T17:48:24Z</time>
  <course>247.98</course>
  <speed>0.022360679774997897</speed>
  <fix>3d</fix>
</trkpt>
<trkpt lat="40.0713749" lon="-105.229789">
  <ele>1583.0</ele>
  <time>2026-08-28T17:48:24Z</time>
  <course>0.0</course>
  <speed>0.0</speed>
  <fix>3d</fix>
</trkpt>
<trkpt lat="40.0713749" lon="-105.229789">
  <ele>1583.0</ele>
  <time>2026-08-28T17:48:24Z</time>
  <course>247.98</course>
  <speed>0.022360679774997897</speed>
  <fix>3d</fix>
</trkpt>
<trkpt lat="40.0713749" lon="-105.229789">
  <ele>1583.0</ele>
  <time>2026-08-28T17:48:24Z</time>
  <course>0.0</course>
  <speed>0.0</speed>
  <fix>3d</fix>
</trkpt>
<trkpt lat="40.0713749" lon="-105.229789">
  <ele>1583.0</ele>
  <time>2026-08-28T17:48:24Z</time>
  <course>247.97</course>
  <speed>0.022360679774997897</speed>
  <fix>3d</fix>
</trkpt>
<trkpt lat="40.0713749" lon="-105.229789">
  <ele>1583.0</ele>
  <time>2026-08-28T17:48:24Z</time>
  <course>0.0</course>
  <speed>0.0</speed>
  <fix>3d</fix>
</trkpt>
<trkpt lat="40.0713749" lon="-105.229789">
  <ele>1583.0</ele>
  <time>2026-08-28T17:48:24Z</time>
  <course>247.97</course>
  <speed>0.022360679774997897</speed>
  <fix>3d</fix>
</trkpt>
<trkpt lat="40.0713749" lon="-105.229789">
  <ele>1583.0</ele>
  <time>2026-08-28T17:48:24Z</time>
  <course>0.0</course>
  <speed>0.0</speed>
  <fix>3d</fix>
</trkpt>
<trkpt lat="40.0713749" lon="-105.229789">
  <ele>1583.0</ele>
  <time>2026-08-28T17:48:24Z</time>
  <course>247.96</course>
  <speed>0.022360679774997897</speed>
  <fix>3d</fix>
</trkpt>
<trkpt lat="40.0713749" lon="-105.229789">
  <ele>1583.0</ele>
  <time>2026-08-28T17:48:24Z</time>
  <course>0.0</course>
  <speed>0.0</speed>
  <fix>3d</fix>
</trkpt>
<trkpt lat="40.0713749" lon="-105.229789">
  <ele>1583.0</ele>
  <time>2026-08-28T17:48:24Z</time>
  <course>247.96</course>
  <speed>0.022360679774997897</speed>
  <fix>3d</fix>
</trkpt>
<trkpt lat="40.0713749" lon="-105.229789">
  <ele>1583.0</ele>
  <time>2026-08-28T17:48:24Z</time>
  <course>0.0</course>
  <speed>0.0</speed>
  <fix>3d</fix>
</trkpt>
<trkpt lat="40.0713749" lon="-105.229789">
  <ele>1583.0</ele>
  <time>2026-08-28T17:48:24Z</time>
  <course>247.95</course>
  <speed>0.022360679774997897</speed>
  <fix>3d</fix>
</trkpt>
<trkpt lat="40.0713749" lon="-105.229789">
  <ele>1583.0</ele>
  <time>2026-08-28T17:48:24Z</time>
  <course>0.0</course>
  <speed>0.0</speed>
  <fix>3d</fix>
</trkpt>
<trkpt lat="40.0713749" lon="-105.229789">
  <ele>1583.0</ele>
  <time>2026-08-28T17:48:24Z</time>
  <course>247.95</course>
  <speed>0.022360679774997897</speed>
  <fix>3d</fix>
</trkpt>
<trkpt lat="40.0713749" lon="-105.229789">
  <ele>1583.0</ele>
  <time>2026-08-28T17:48:24Z</time>
  <course>0.0</course>
  <speed>0.0</speed>
  <fix>3d</fix>
</trkpt>
<trkpt lat="40.0713749" lon="-105.229789">
  <ele>1583.0</ele>
  <time>2026-08-28T17:48:24Z</time>
  <course>247.95</course>
  <speed>0.022360679774997897</speed>
  <fix>3d</fix>
</trkpt>
<trkpt lat="40.0713749" lon="-105.229789">
  <ele>1583.0</ele>
  <time>2026-08-28T17:48:24Z</time>
  <course>0.0</course>
  <speed>0.0</speed>
  <fix>3d</fix>
</trkpt>
<trkpt lat="40.0713749" lon="-105.229789">
  <ele>1583.0</ele>
  <time>2026-08-28T17:48:24Z</time>
  <course>247.94</course>
  <speed>0.022360679774997897</speed>
  <fix>3d</fix>
</trkpt>
<trkpt lat="40.0713749" lon="-105.229789">
  <ele>1583.0</ele>
  <time>2026-08-28T17:48:24Z</time>
  <course>0.0</course>
  <speed>0.0</speed>
  <fix>3d</fix>
</trkpt>
<trkpt lat="40.0713749" lon="-105.229789">
  <ele>1583.0</ele>
  <time>2026-08-28T17:48:24Z</time>
  <course>247.94</course>
  <speed>0.022360679774997897</speed>
  <fix>3d</fix>
</trkpt>
<trkpt lat="40.0713749" lon="-105.229789">
  <ele>1583.0</ele>
  <time>2026-08-28T17:48:24Z</time>
  <course>0.0</course>
  <speed>0.0</speed>
  <fix>3d</fix>
</trkpt>
<trkpt lat="40.0713749" lon="-105.229789">
  <ele>1583.0</ele>
  <time>2026-08-28T17:48:24Z</time>
  <course>247.93</course>
  <speed>0.022360679774997897</speed>
  <fix>3d</fix>
</trkpt>
<trkpt lat="40.0713749" lon="-105.229789">
  <ele>1583.0</ele>
  <time>2026-08-28T17:48:24Z</time>
  <course>0.0</course>
  <speed>0.0</speed>
  <fix>3d</fix>
</trkpt>
<trkpt lat="40.0713749" lon="-105.229789">
  <ele>1583.0</ele>
  <time>2026-08-28T17:48:24Z</time>
  <course>247.93</course>
  <speed>0.022360679774997897</speed>
  <fix>3d</fix>
</trkpt>
<trkpt lat="40.0713749" lon="-105.229789">
  <ele>1583.0</ele>
  <time>2026-08-28T17:48:24Z</time>
  <course>0.0</course>
  <speed>0.0</speed>
  <fix>3d</fix>
</trkpt>
<trkpt lat="40.0713749" lon="-105.229789">
  <ele>1583.0</ele>
  <time>2026-08-28T17:48:24Z</time>
  <course>247.92</course>
  <speed>0.022360679774997897</speed>
  <fix>3d</fix>
</trkpt>
<trkpt lat="40.0713749" lon="-105.229789">
  <ele>1583.0</ele>
  <time>2026-08-28T17:48:24Z</time>
  <course>0.0</course>
  <speed>0.0</speed>
  <fix>3d</fix>
</trkpt>
<trkpt lat="40.0713749" lon="-105.229789">
  <ele>1583.0</ele>
  <time>2026-08-28T17:48:24Z</time>
  <course>247.92</course>
  <speed>0.022360679774997897</speed>
  <fix>3d</fix>
</trkpt>
<trkpt lat="40.0713749" lon="-105.229789">
  <ele>1583.0</ele>
  <time>2026-08-28T17:48:24Z</time>
  <course>0.0</course>
  <speed>0.0</speed>
  <fix>3d</fix>
</trkpt>
<trkpt lat="40.0713749" lon="-105.229789">
  <ele>1583.0</ele>
  <time>2026-08-28T17:48:24Z</time>
  <course>247.92</course>
  <speed>0.022360679774997897</speed>
  <fix>3d</fix>
</trkpt>
<trkpt lat="40.0713749" lon="-105.229789">
  <ele>1583.0</ele>
  <time>2026-08-28T17:48:24Z</time>
  <course>0.0</course>
  <speed>0.0</speed>
  <fix>3d</fix>
</trkpt>
<trkpt lat="40.0713749" lon="-105.229789">
  <ele>1583.0</ele>
  <time>2026-08-28T17:48:24Z</time>
  <course>247.91</course>
  <speed>0.022360679774997897</speed>
  <fix>3d</fix>
</trkpt>
<trkpt lat="40.0713749" lon="-105.229789">
  <ele>1583.0</ele>
  <time>2026-08-28T17:48:24Z</time>
  <course>0.0</course>
  <speed>0.0</speed>
  <fix>3d</fix>
</trkpt>
<trkpt lat="40.0713749" lon="-105.229789">
  <ele>1583.0</ele>
  <time>2026-08-28T17:48:24Z</time>
  <course>247.91</course>
  <speed>0.022360679774997897</speed>
  <fix>3d</fix>
</trkpt>
<trkpt lat="40.0713749" lon="-105.229789">
  <ele>1583.0</ele>
  <time>2026-08-28T17:48:24Z</time>
  <course>0.0</course>
  <speed>0.0</speed>
  <fix>3d</fix>
</trkpt>
<trkpt lat="40.0713749" lon="-105.229789">
  <ele>1583.0</ele>
  <time>2026-08-28T17:48:24Z</time>
  <course>247.9</course>
  <speed>0.022360679774997897</speed>
  <fix>3d</fix>
</trkpt>
<trkpt lat="40.0713749" lon="-105.229789">
  <ele>1583.0</ele>
  <time>2026-08-28T17:48:24Z</time>
  <course>0.0</course>
  <speed>0.0</speed>
  <fix>3d</fix>
</trkpt>
<trkpt lat="40.0713749" lon="-105.229789">
  <ele>1583.0</ele>
  <time>2026-08-28T17:48:24Z</time>
  <course>247.9</course>
  <speed>0.022360679774997897</speed>
  <fix>3d</fix>
</trkpt>
<trkpt lat="40.0713749" lon="-105.229789">
  <ele>1583.0</ele>
  <time>2026-08-28T17:48:24Z</time>
  <course>0.0</course>
  <speed>0.0</speed>
  <fix>3d</fix>
</trkpt>
<trkpt lat="40.0713749" lon="-105.229789">
  <ele>1583.0</ele>
  <time>2026-08-28T17:48:24Z</time>
  <course>247.89</course>
  <speed>0.022360679774997897</speed>
  <fix>3d</fix>
</trkpt>
<trkpt lat="40.0713749" lon="-105.229789">
  <ele>1583.0</ele>
  <time>2026-08-28T17:48:24Z</time>
  <course>0.0</course>
  <speed>0.0</speed>
  <fix>3d</fix>
</trkpt>
<trkpt lat="40.0713749" lon="-105.229789">
  <ele>1583.0</ele>
  <time>2026-08-28T17:48:24Z</time>
  <course>247.89</course>
  <speed>0.022360679774997897</speed>
  <fix>3d</fix>
</trkpt>
<trkpt lat="40.0713749" lon="-105.229789">
  <ele>1583.0</ele>
  <time>2026-08-28T17:48:24Z</time>
  <course>0.0</course>
  <speed>0.0</speed>
  <fix>3d</fix>
</trkpt>
<trkpt lat="40.0713749" lon="-105.229789">
  <ele>1583.0</ele>
  <time>2026-08-28T17:48:24Z</time>
  <course>247.89</course>
  <speed>0.022360679774997897</speed>
  <fix>3d</fix>
</trkpt>
<trkpt lat="40.0713749" lon="-105.229789">
  <ele>1583.0</ele>
  <time>2026-08-28T17:48:24Z</time>
  <course>0.0</course>
  <speed>0.0</speed>
  <fix>3d</fix>
</trkpt>
<trkpt lat="40.0713749" lon="-105.229789">
  <ele>1583.0</ele>
  <time>2026-08-28T17:48:24Z</time>
  <course>247.88</course>
  <speed>0.0316227766016838</speed>
  <fix>3d</fix>
</trkpt>
<trkpt lat="40.0713749" lon="-105.229789">
  <ele>1583.0</ele>
  <time>2026-08-28T17:48:24Z</time>
  <course>0.0</course>
  <speed>0.0</speed>
  <fix>3d</fix>
</trkpt>
<trkpt lat="40.0713749" lon="-105.229789">
  <ele>1583.0</ele>
  <time>2026-08-28T17:48:24Z</time>
  <course>247.88</course>
  <speed>0.0316227766016838</speed>
  <fix>3d</fix>
</trkpt>
<trkpt lat="40.0713749" lon="-105.229789">
  <ele>1583.0</ele>
  <time>2026-08-28T17:48:24Z</time>
  <course>0.0</course>
  <speed>0.0</speed>
  <fix>3d</fix>
</trkpt>
<trkpt lat="40.0713749" lon="-105.229789">
  <ele>1583.0</ele>
  <time>2026-08-28T17:48:24Z</time>
  <course>247.87</course>
  <speed>0.0316227766016838</speed>
  <fix>3d</fix>
</trkpt>
<trkpt lat="40.0713749" lon="-105.229789">
  <ele>1583.0</ele>
  <time>2026-08-28T17:48:24Z</time>
  <course>0.0</course>
  <speed>0.0</speed>
  <fix>3d</fix>
</trkpt>
<trkpt lat="40.0713749" lon="-105.229789">
  <ele>1583.0</ele>
  <time>2026-08-28T17:48:24Z</time>
  <course>247.87</course>
  <speed>0.0316227766016838</speed>
  <fix>3d</fix>
</trkpt>
<trkpt lat="40.0713749" lon="-105.229789">
  <ele>1583.0</ele>
  <time>2026-08-28T17:48:24Z</time>
  <course>0.0</course>
  <speed>0.0</speed>
  <fix>3d</fix>
</trkpt>
<trkpt lat="40.0713749" lon="-105.229789">
  <ele>1583.0</ele>
  <time>2026-08-28T17:48:24Z</time>
  <course>247.87</course>
  <speed>0.0316227766016838</speed>
  <fix>3d</fix>
</trkpt>
<trkpt lat="40.0713749" lon="-105.229789">
  <ele>1583.0</ele>
  <time>2026-08-28T17:48:24Z</time>
  <course>0.0</course>
  <speed>0.0</speed>
  <fix>3d</fix>
</trkpt>
<trkpt lat="40.0713749" lon="-105.229789">
  <ele>1583.0</ele>
  <time>2026-08-28T17:48:24Z</time>
  <course>247.86</course>
  <speed>0.0316227766016838</speed>
  <fix>3d</fix>
</trkpt>
<trkpt lat="40.0713749" lon="-105.229789">
  <ele>1583.0</ele>
  <time>2026-08-28T17:48:24Z</time>
  <course>0.0</course>
  <speed>0.0</speed>
  <fix>3d</fix>
</trkpt>
<trkpt lat="40.0713749" lon="-105.229789">
  <ele>1583.0</ele>
  <time>2026-08-28T17:48:24Z</time>
  <course>247.86</course>
  <speed>0.0316227766016838</speed>
  <fix>3d</fix>
</trkpt>
<trkpt lat="40.0713749" lon="-105.229789">
  <ele>1583.0</ele>
  <time>2026-08-28T17:48:24Z</time>
  <course>0.0</course>
  <speed>0.0</speed>
  <fix>3d</fix>
</trkpt>
<trkpt lat="40.0713749" lon="-105.229789">
  <ele>1583.0</ele>
  <time>2026-08-28T17:48:24Z</time>
  <course>247.85</course>
  <speed>0.0316227766016838</speed>
  <fix>3d</fix>
</trkpt>
<trkpt lat="40.0713749" lon="-105.229789">
  <ele>1583.0</ele>
  <time>2026-08-28T17:48:24Z</time>
  <course>0.0</course>
  <speed>0.0</speed>
  <fix>3d</fix>
</trkpt>
<trkpt lat="40.0713749" lon="-105.229789">
  <ele>1583.0</ele>
  <time>2026-08-28T17:48:24Z</time>
  <course>247.85</course>
  <speed>0.0316227766016838</speed>
  <fix>3d</fix>
</trkpt>
<trkpt lat="40.0713749" lon="-105.229789">
  <ele>1583.0</ele>
  <time>2026-08-28T17:48:24Z</time>
  <course>0.0</course>
  <speed>0.0</speed>
  <fix>3d</fix>
</trkpt>
<trkpt lat="40.0713749" lon="-105.229789">
  <ele>1583.0</ele>
  <time>2026-08-28T17:48:24Z</time>
  <course>247.85</course>
  <speed>0.0316227766016838</speed>
  <fix>3d</fix>
</trkpt>
<trkpt lat="40.0713749" lon="-105.229789">
  <ele>1583.0</ele>
  <time>2026-08-28T17:48:24Z</time>
  <course>0.0</course>
  <speed>0.0</speed>
  <fix>3d</fix>
</trkpt>
<trkpt lat="40.0713749" lon="-105.229789">
  <ele>1583.0</ele>
  <time>2026-08-28T17:48:24Z</time>
  <course>247.84</course>
  <speed>0.0316227766016838</speed>
  <fix>3d</fix>
</trkpt>
<trkpt lat="40.0713749" lon="-105.229789">
  <ele>1583.0</ele>
  <time>2026-08-28T17:48:24Z</time>
  <course>0.0</course>
  <speed>0.0</speed>
  <fix>3d</fix>
</trkpt>
<trkpt lat="40.0713749" lon="-105.229789">
  <ele>1583.0</ele>
  <time>2026-08-28T17:48:24Z</time>
  <course>247.84</course>
  <speed>0.0316227766016838</speed>
  <fix>3d</fix>
</trkpt>
<trkpt lat="40.0713749" lon="-105.229789">
  <ele>1583.0</ele>
  <time>2026-08-28T17:48:24Z</time>
  <course>0.0</course>
  <speed>0.0</speed>
  <fix>3d</fix>
</trkpt>
<trkpt lat="40.0713749" lon="-105.229789">
  <ele>1583.0</ele>
  <time>2026-08-28T17:48:24Z</time>
  <course>247.83</course>
  <speed>0.0316227766016838</speed>
  <fix>3d</fix>
</trkpt>
<trkpt lat="40.0713749" lon="-105.229789">
  <ele>1583.0</ele>
  <time>2026-08-28T17:48:24Z</time>
  <course>0.0</course>
  <speed>0.0</speed>
  <fix>3d</fix>
</trkpt>
<trkpt lat="40.0713749" lon="-105.229789">
  <ele>1583.0</ele>
  <time>2026-08-28T17:48:24Z</time>
  <course>247.83</course>
  <speed>0.0316227766016838</speed>
  <fix>3d</fix>
</trkpt>
<trkpt lat="40.0713749" lon="-105.229789">
  <ele>1583.0</ele>
  <time>2026-08-28T17:48:24Z</time>
  <course>0.0</course>
  <speed>0.0</speed>
  <fix>3d</fix>
</trkpt>
<trkpt lat="40.0713749" lon="-105.229789">
  <ele>1583.0</ele>
  <time>2026-08-28T17:48:24Z</time>
  <course>247.83</course>
  <speed>0.0316227766016838</speed>
  <fix>3d</fix>
</trkpt>
<trkpt lat="40.0713749" lon="-105.229789">
  <ele>1583.0</ele>
  <time>2026-08-28T17:48:24Z</time>
  <course>0.0</course>
  <speed>0.0</speed>
  <fix>3d</fix>
</trkpt>
<trkpt lat="40.0713749" lon="-105.229789">
  <ele>1583.0</ele>
  <time>2026-08-28T17:48:24Z</time>
  <course>247.82</course>
  <speed>0.0316227766016838</speed>
  <fix>3d</fix>
</trkpt>
<trkpt lat="40.0713749" lon="-105.229789">
  <ele>1583.0</ele>
  <time>2026-08-28T17:48:24Z</time>
  <course>0.0</course>
  <speed>0.0</speed>
  <fix>3d</fix>
</trkpt>
<trkpt lat="40.0713749" lon="-105.229789">
  <ele>1583.0</ele>
  <time>2026-08-28T17:48:24Z</time>
  <course>247.82</course>
  <speed>0.0316227766016838</speed>
  <fix>3d</fix>
</trkpt>
<trkpt lat="40.0713749" lon="-105.229789">
  <ele>1583.0</ele>
  <time>2026-08-28T17:48:24Z</time>
  <course>0.0</course>
  <speed>0.0</speed>
  <fix>3d</fix>
</trkpt>
<trkpt lat="40.0713749" lon="-105.229789">
  <ele>1583.0</ele>
  <time>2026-08-28T17:48:24Z</time>
  <course>247.82</course>
  <speed>0.0316227766016838</speed>
  <fix>3d</fix>
</trkpt>
<trkpt lat="40.0713749" lon="-105.229789">
  <ele>1583.0</ele>
  <time>2026-08-28T17:48:24Z</time>
  <course>0.0</course>
  <speed>0.0</speed>
  <fix>3d</fix>
</trkpt>
<trkpt lat="40.0713749" lon="-105.229789">
  <ele>1583.0</ele>
  <time>2026-08-28T17:48:24Z</time>
  <course>247.81</course>
  <speed>0.0316227766016838</speed>
  <fix>3d</fix>
</trkpt>
<trkpt lat="40.0713749" lon="-105.229789">
  <ele>1583.0</ele>
  <time>2026-08-28T17:48:24Z</time>
  <course>0.0</course>
  <speed>0.0</speed>
  <fix>3d</fix>
</trkpt>
<trkpt lat="40.0713749" lon="-105.229789">
  <ele>1583.0</ele>
  <time>2026-08-28T17:48:24Z</time>
  <course>247.81</course>
  <speed>0.0316227766016838</speed>
  <fix>3d</fix>
</trkpt>
<trkpt lat="40.0713749" lon="-105.229789">
  <ele>1583.0</ele>
  <time>2026-08-28T17:48:24Z</time>
  <course>0.0</course>
  <speed>0.0</speed>
  <fix>3d</fix>
</trkpt>
<trkpt lat="40.0713749" lon="-105.229789">
  <ele>1583.0</ele>
  <time>2026-08-28T17:48:24Z</time>
  <course>247.8</course>
  <speed>0.0316227766016838</speed>
  <fix>3d</fix>
</trkpt>
<trkpt lat="40.0713749" lon="-105.229789">
  <ele>1583.0</ele>
  <time>2026-08-28T17:48:24Z</time>
  <course>0.0</course>
  <speed>0.0</speed>
  <fix>3d</fix>
</trkpt>
<trkpt lat="40.0713749" lon="-105.229789">
  <ele>1583.0</ele>
  <time>2026-08-28T17:48:24Z</time>
  <course>247.8</course>
  <speed>0.0316227766016838</speed>
  <fix>3d</fix>
</trkpt>
<trkpt lat="40.0713749" lon="-105.229789">
  <ele>1583.0</ele>
  <time>2026-08-28T17:48:24Z</time>
  <course>0.0</course>
  <speed>0.0</speed>
  <fix>3d</fix>
</trkpt>
<trkpt lat="40.0713749" lon="-105.229789">
  <ele>1583.0</ele>
  <time>2026-08-28T17:48:24Z</time>
  <course>247.8</course>
  <speed>0.0316227766016838</speed>
  <fix>3d</fix>
</trkpt>
<trkpt lat="40.0713749" lon="-105.229789">
  <ele>1583.0</ele>
  <time>2026-08-28T17:48:24Z</time>
  <course>0.0</course>
  <speed>0.0</speed>
  <fix>3d</fix>
</trkpt>
<trkpt lat="40.0713749" lon="-105.229789">
  <ele>1583.0</ele>
  <time>2026-08-28T17:48:24Z</time>
  <course>247.79</course>
  <speed>0.0316227766016838</speed>
  <fix>3d</fix>
</trkpt>
<trkpt lat="40.0713749" lon="-105.229789">
  <ele>1583.0</ele>
  <time>2026-08-28T17:48:24Z</time>
  <course>0.0</course>
  <speed>0.0</speed>
  <fix>3d</fix>
</trkpt>
<trkpt lat="40.0713749" lon="-105.229789">
  <ele>1583.0</ele>
  <time>2026-08-28T17:48:24Z</time>
  <course>247.79</course>
  <speed>0.0316227766016838</speed>
  <fix>3d</fix>
</trkpt>
<trkpt lat="40.0713749" lon="-105.229789">
  <ele>1583.0</ele>
  <time>2026-08-28T17:48:24Z</time>
  <course>0.0</course>
  <speed>0.0</speed>
  <fix>3d</fix>
</trkpt>
<trkpt lat="40.0713749" lon="-105.229789">
  <ele>1583.0</ele>
  <time>2026-08-28T17:48:24Z</time>
  <course>247.79</course>
  <speed>0.0316227766016838</speed>
  <fix>3d</fix>
</trkpt>
<trkpt lat="40.0713749" lon="-105.229789">
  <ele>1583.0</ele>
  <time>2026-08-28T17:48:24Z</time>
  <course>0.0</course>
  <speed>0.0</speed>
  <fix>3d</fix>
</trkpt>
<trkpt lat="40.0713749" lon="-105.229789">
  <ele>1583.0</ele>
  <time>2026-08-28T17:48:24Z</time>
  <course>247.78</course>
  <speed>0.0316227766016838</speed>
  <fix>3d</fix>
</trkpt>
<trkpt lat="40.0713749" lon="-105.229789">
  <ele>1583.0</ele>
  <time>2026-08-28T17:48:24Z</time>
  <course>0.0</course>
  <speed>0.0</speed>
  <fix>3d</fix>
</trkpt>
<trkpt lat="40.0713749" lon="-105.229789">
  <ele>1583.0</ele>
  <time>2026-08-28T17:48:24Z</time>
  <course>247.78</course>
  <speed>0.0316227766016838</speed>
  <fix>3d</fix>
</trkpt>
<trkpt lat="40.0713749" lon="-105.229789">
  <ele>1583.0</ele>
  <time>2026-08-28T17:48:24Z</time>
  <course>0.0</course>
  <speed>0.0</speed>
  <fix>3d</fix>
</trkpt>
<trkpt lat="40.0713749" lon="-105.229789">
  <ele>1583.0</ele>
  <time>2026-08-28T17:48:24Z</time>
  <course>247.78</course>
  <speed>0.0316227766016838</speed>
  <fix>3d</fix>
</trkpt>
<trkpt lat="40.0713749" lon="-105.229789">
  <ele>1583.0</ele>
  <time>2026-08-28T17:48:24Z</time>
  <course>0.0</course>
  <speed>0.0</speed>
  <fix>3d</fix>
</trkpt>
<trkpt lat="40.0713749" lon="-105.229789">
  <ele>1583.0</ele>
  <time>2026-08-28T17:48:24Z</time>
  <course>247.77</course>
  <speed>0.0316227766016838</speed>
  <fix>3d</fix>
</trkpt>
<trkpt lat="40.0713749" lon="-105.229789">
  <ele>1583.0</ele>
  <time>2026-08-28T17:48:24Z</time>
  <course>0.0</course>
  <speed>0.0</speed>
  <fix>3d</fix>
</trkpt>
<trkpt lat="40.0713749" lon="-105.229789">
  <ele>1583.0</ele>
  <time>2026-08-28T17:48:24Z</time>
  <course>247.77</course>
  <speed>0.0316227766016838</speed>
  <fix>3d</fix>
</trkpt>
<trkpt lat="40.0713749" lon="-105.229789">
  <ele>1583.0</ele>
  <time>2026-08-28T17:48:24Z</time>
  <course>0.0</course>
  <speed>0.0</speed>
  <fix>3d</fix>
</trkpt>
<trkpt lat="40.0713749" lon="-105.229789">
  <ele>1583.0</ele>
  <time>2026-08-28T17:48:24Z</time>
  <course>247.76</course>
  <speed>0.0316227766016838</speed>
  <fix>3d</fix>
</trkpt>
<trkpt lat="40.0713749" lon="-105.229789">
  <ele>1583.0</ele>
  <time>2026-08-28T17:48:24Z</time>
  <course>0.0</course>
  <speed>0.0</speed>
  <fix>3d</fix>
</trkpt>
<trkpt lat="40.0713749" lon="-105.229789">
  <ele>1583.0</ele>
  <time>2026-08-28T17:48:24Z</time>
  <course>247.76</course>
  <speed>0.0316227766016838</speed>
  <fix>3d</fix>
</trkpt>
<trkpt lat="40.0713749" lon="-105.229789">
  <ele>1583.0</ele>
  <time>2026-08-28T17:48:24Z</time>
  <course>0.0</course>
  <speed>0.0</speed>
  <fix>3d</fix>
</trkpt>
<trkpt lat="40.0713749" lon="-105.229789">
  <ele>1583.0</ele>
  <time>2026-08-28T17:48:24Z</time>
  <course>247.76</course>
  <speed>0.0316227766016838</speed>
  <fix>3d</fix>
</trkpt>
<trkpt lat="40.0713749" lon="-105.229789">
  <ele>1583.0</ele>
  <time>2026-08-28T17:48:24Z</time>
  <course>0.0</course>
  <speed>0.0</speed>
  <fix>3d</fix>
</trkpt>
<trkpt lat="40.0713749" lon="-105.229789">
  <ele>1583.0</ele>
  <time>2026-08-28T17:48:24Z</time>
  <course>247.75</course>
  <speed>0.0316227766016838</speed>
  <fix>3d</fix>
</trkpt>
<trkpt lat="40.0713749" lon="-105.229789">
  <ele>1583.0</ele>
  <time>2026-08-28T17:48:24Z</time>
  <course>0.0</course>
  <speed>0.0</speed>
  <fix>3d</fix>
</trkpt>
<trkpt lat="40.0713749" lon="-105.229789">
  <ele>1583.0</ele>
  <time>2026-08-28T17:48:24Z</time>
  <course>247.75</course>
  <speed>0.0316227766016838</speed>
  <fix>3d</fix>
</trkpt>
<trkpt lat="40.0713749" lon="-105.229789">
  <ele>1583.0</ele>
  <time>2026-08-28T17:48:24Z</time>
  <course>0.0</course>
  <speed>0.0</speed>
  <fix>3d</fix>
</trkpt>
<trkpt lat="40.0713749" lon="-105.229789">
  <ele>1583.0</ele>
  <time>2026-08-28T17:48:24Z</time>
  <course>247.75</course>
  <speed>0.0316227766016838</speed>
  <fix>3d</fix>
</trkpt>
<trkpt lat="40.0713749" lon="-105.229789">
  <ele>1583.0</ele>
  <time>2026-08-28T17:48:24Z</time>
  <course>0.0</course>
  <speed>0.0</speed>
  <fix>3d</fix>
</trkpt>
<trkpt lat="40.0713749" lon="-105.229789">
  <ele>1583.0</ele>
  <time>2026-08-28T17:48:24Z</time>
  <course>247.74</course>
  <speed>0.0316227766016838</speed>
  <fix>3d</fix>
</trkpt>
<trkpt lat="40.0713749" lon="-105.229789">
  <ele>1583.0</ele>
  <time>2026-08-28T17:48:24Z</time>
  <course>0.0</course>
  <speed>0.0</speed>
  <fix>3d</fix>
</trkpt>
<trkpt lat="40.0713749" lon="-105.229789">
  <ele>1583.0</ele>
  <time>2026-08-28T17:48:24Z</time>
  <course>247.74</course>
  <speed>0.0316227766016838</speed>
  <fix>3d</fix>
</trkpt>
<trkpt lat="40.0713749" lon="-105.229789">
  <ele>1583.0</ele>
  <time>2026-08-28T17:48:24Z</time>
  <course>0.0</course>
  <speed>0.0</speed>
  <fix>3d</fix>
</trkpt>
<trkpt lat="40.0713749" lon="-105.229789">
  <ele>1583.0</ele>
  <time>2026-08-28T17:48:24Z</time>
  <course>247.74</course>
  <speed>0.0316227766016838</speed>
  <fix>3d</fix>
</trkpt>
<trkpt lat="40.0713749" lon="-105.229789">
  <ele>1583.0</ele>
  <time>2026-08-28T17:48:24Z</time>
  <course>0.0</course>
  <speed>0.0</speed>
  <fix>3d</fix>
</trkpt>
<trkpt lat="40.0713749" lon="-105.229789">
  <ele>1583.0</ele>
  <time>2026-08-28T17:48:24Z</time>
  <course>247.73</course>
  <speed>0.0316227766016838</speed>
  <fix>3d</fix>
</trkpt>
<trkpt lat="40.0713749" lon="-105.229789">
  <ele>1583.0</ele>
  <time>2026-08-28T17:48:24Z</time>
  <course>0.0</course>
  <speed>0.0</speed>
  <fix>3d</fix>
</trkpt>
<trkpt lat="40.0713749" lon="-105.229789">
  <ele>1583.0</ele>
  <time>2026-08-28T17:48:24Z</time>
  <course>247.73</course>
  <speed>0.0316227766016838</speed>
  <fix>3d</fix>
</trkpt>
<trkpt lat="40.0713749" lon="-105.229789">
  <ele>1583.0</ele>
  <time>2026-08-28T17:48:24Z</time>
  <course>0.0</course>
  <speed>0.0</speed>
  <fix>3d</fix>
</trkpt>
<trkpt lat="40.0713749" lon="-105.229789">
  <ele>1583.0</ele>
  <time>2026-08-28T17:48:24Z</time>
  <course>247.73</course>
  <speed>0.0316227766016838</speed>
  <fix>3d</fix>
</trkpt>
<trkpt lat="40.0713749" lon="-105.229789">
  <ele>1583.0</ele>
  <time>2026-08-28T17:48:24Z</time>
  <course>0.0</course>
  <speed>0.0</speed>
  <fix>3d</fix>
</trkpt>
<trkpt lat="40.0713749" lon="-105.229789">
  <ele>1583.0</ele>
  <time>2026-08-28T17:48:24Z</time>
  <course>247.72</course>
  <speed>0.0316227766016838</speed>
  <fix>3d</fix>
</trkpt>
<trkpt lat="40.0713749" lon="-105.229789">
  <ele>1583.0</ele>
  <time>2026-08-28T17:48:24Z</time>
  <course>0.0</course>
  <speed>0.0</speed>
  <fix>3d</fix>
</trkpt>
<trkpt lat="40.0713749" lon="-105.229789">
  <ele>1583.0</ele>
  <time>2026-08-28T17:48:24Z</time>
  <course>247.72</course>
  <speed>0.0316227766016838</speed>
  <fix>3d</fix>
</trkpt>
<trkpt lat="40.0713749" lon="-105.229789">
  <ele>1583.0</ele>
  <time>2026-08-28T17:48:24Z</time>
  <course>0.0</course>
  <speed>0.0</speed>
  <fix>3d</fix>
</trkpt>
<trkpt lat="40.0713749" lon="-105.229789">
  <ele>1583.0</ele>
  <time>2026-08-28T17:48:24Z</time>
  <course>247.72</course>
  <speed>0.0316227766016838</speed>
  <fix>3d</fix>
</trkpt>
<trkpt lat="40.0713749" lon="-105.229789">
  <ele>1583.0</ele>
  <time>2026-08-28T17:48:24Z</time>
  <course>0.0</course>
  <speed>0.0</speed>
  <fix>3d</fix>
</trkpt>
<trkpt lat="40.0713749" lon="-105.229789">
  <ele>1583.0</ele>
  <time>2026-08-28T17:48:24Z</time>
  <course>247.71</course>
  <speed>0.0316227766016838</speed>
  <fix>3d</fix>
</trkpt>
<trkpt lat="40.0713749" lon="-105.229789">
  <ele>1583.0</ele>
  <time>2026-08-28T17:48:24Z</time>
  <course>0.0</course>
  <speed>0.0</speed>
  <fix>3d</fix>
</trkpt>
<trkpt lat="40.0713749" lon="-105.229789">
  <ele>1583.0</ele>
  <time>2026-08-28T17:48:24Z</time>
  <course>247.71</course>
  <speed>0.0316227766016838</speed>
  <fix>3d</fix>
</trkpt>
<trkpt lat="40.0713749" lon="-105.229789">
  <ele>1583.0</ele>
  <time>2026-08-28T17:48:24Z</time>
  <course>0.0</course>
  <speed>0.0</speed>
  <fix>3d</fix>
</trkpt>
<trkpt lat="40.0713749" lon="-105.229789">
  <ele>1583.0</ele>
  <time>2026-08-28T17:48:24Z</time>
  <course>247.71</course>
  <speed>0.0316227766016838</speed>
  <fix>3d</fix>
</trkpt>
<trkpt lat="40.0713749" lon="-105.229789">
  <ele>1583.0</ele>
  <time>2026-08-28T17:48:24Z</time>
  <course>0.0</course>
  <speed>0.0</speed>
  <fix>3d</fix>
</trkpt>
<trkpt lat="40.0713749" lon="-105.229789">
  <ele>1583.0</ele>
  <time>2026-08-28T17:48:24Z</time>
  <course>247.7</course>
  <speed>0.0316227766016838</speed>
  <fix>3d</fix>
</trkpt>
<trkpt lat="40.0713749" lon="-105.229789">
  <ele>1583.0</ele>
  <time>2026-08-28T17:48:24Z</time>
  <course>0.0</course>
  <speed>0.0</speed>
  <fix>3d</fix>
</trkpt>
<trkpt lat="40.0713749" lon="-105.229789">
  <ele>1583.0</ele>
  <time>2026-08-28T17:48:24Z</time>
  <course>247.7</course>
  <speed>0.0316227766016838</speed>
  <fix>3d</fix>
</trkpt>
<trkpt lat="40.0713749" lon="-105.229789">
  <ele>1583.0</ele>
  <time>2026-08-28T17:48:24Z</time>
  <course>0.0</course>
  <speed>0.0</speed>
  <fix>3d</fix>
</trkpt>
<trkpt lat="40.0713749" lon="-105.229789">
  <ele>1583.0</ele>
  <time>2026-08-28T17:48:24Z</time>
  <course>247.7</course>
  <speed>0.0316227766016838</speed>
  <fix>3d</fix>
</trkpt>
<trkpt lat="40.0713749" lon="-105.229789">
  <ele>1583.0</ele>
  <time>2026-08-28T17:48:24Z</time>
  <course>0.0</course>
  <speed>0.0</speed>
  <fix>3d</fix>
</trkpt>
<trkpt lat="40.0713749" lon="-105.229789">
  <ele>1583.0</ele>
  <time>2026-08-28T17:48:24Z</time>
  <course>247.69</course>
  <speed>0.0316227766016838</speed>
  <fix>3d</fix>
</trkpt>
<trkpt lat="40.0713749" lon="-105.229789">
  <ele>1583.0</ele>
  <time>2026-08-28T17:48:24Z</time>
  <course>0.0</course>
  <speed>0.0</speed>
  <fix>3d</fix>
</trkpt>
<trkpt lat="40.0713749" lon="-105.229789">
  <ele>1583.0</ele>
  <time>2026-08-28T17:48:24Z</time>
  <course>247.69</course>
  <speed>0.0316227766016838</speed>
  <fix>3d</fix>
</trkpt>
<trkpt lat="40.0713749" lon="-105.229789">
  <ele>1583.0</ele>
  <time>2026-08-28T17:48:24Z</time>
  <course>0.0</course>
  <speed>0.0</speed>
  <fix>3d</fix>
</trkpt>
<trkpt lat="40.0713749" lon="-105.229789">
  <ele>1583.0</ele>
  <time>2026-08-28T17:48:24Z</time>
  <course>247.69</course>
  <speed>0.0316227766016838</speed>
  <fix>3d</fix>
</trkpt>
<trkpt lat="40.0713749" lon="-105.229789">
  <ele>1583.0</ele>
  <time>2026-08-28T17:48:24Z</time>
  <course>0.0</course>
  <speed>0.0</speed>
  <fix>3d</fix>
</trkpt>
<trkpt lat="40.0713749" lon="-105.229789">
  <ele>1583.0</ele>
  <time>2026-08-28T17:48:24Z</time>
  <course>247.68</course>
  <speed>0.0316227766016838</speed>
  <fix>3d</fix>
</trkpt>
<trkpt lat="40.0713749" lon="-105.229789">
  <ele>1583.0</ele>
  <time>2026-08-28T17:48:24Z</time>
  <course>0.0</course>
  <speed>0.0</speed>
  <fix>3d</fix>
</trkpt>
<trkpt lat="40.0713749" lon="-105.229789">
  <ele>1583.0</ele>
  <time>2026-08-28T17:48:24Z</time>
  <course>247.68</course>
  <speed>0.0316227766016838</speed>
  <fix>3d</fix>
</trkpt>
<trkpt lat="40.0713749" lon="-105.229789">
  <ele>1583.0</ele>
  <time>2026-08-28T17:48:24Z</time>
  <course>0.0</course>
  <speed>0.0</speed>
  <fix>3d</fix>
</trkpt>
<trkpt lat="40.0713749" lon="-105.229789">
  <ele>1583.0</ele>
  <time>2026-08-28T17:48:24Z</time>
  <course>247.68</course>
  <speed>0.0316227766016838</speed>
  <fix>3d</fix>
</trkpt>
<trkpt lat="40.0713749" lon="-105.229789">
  <ele>1583.0</ele>
  <time>2026-08-28T17:48:24Z</time>
  <course>0.0</course>
  <speed>0.0</speed>
  <fix>3d</fix>
</trkpt>
<trkpt lat="40.0713749" lon="-105.229789">
  <ele>1583.0</ele>
  <time>2026-08-28T17:48:24Z</time>
  <course>247.67</course>
  <speed>0.0316227766016838</speed>
  <fix>3d</fix>
</trkpt>
<trkpt lat="40.0713749" lon="-105.229789">
  <ele>1583.0</ele>
  <time>2026-08-28T17:48:24Z</time>
  <course>0.0</course>
  <speed>0.0</speed>
  <fix>3d</fix>
</trkpt>
<trkpt lat="40.0713749" lon="-105.229789">
  <ele>1583.0</ele>
  <time>2026-08-28T17:48:24Z</time>
  <course>247.67</course>
  <speed>0.0316227766016838</speed>
  <fix>3d</fix>
</trkpt>
<trkpt lat="40.0713749" lon="-105.229789">
  <ele>1583.0</ele>
  <time>2026-08-28T17:48:24Z</time>
  <course>0.0</course>
  <speed>0.0</speed>
  <fix>3d</fix>
</trkpt>
<trkpt lat="40.0713749" lon="-105.229789">
  <ele>1583.0</ele>
  <time>2026-08-28T17:48:24Z</time>
  <course>247.67</course>
  <speed>0.0316227766016838</speed>
  <fix>3d</fix>
</trkpt>
<trkpt lat="40.0713749" lon="-105.229789">
  <ele>1583.0</ele>
  <time>2026-08-28T17:48:24Z</time>
  <course>0.0</course>
  <speed>0.0</speed>
  <fix>3d</fix>
</trkpt>
<trkpt lat="40.0713749" lon="-105.229789">
  <ele>1583.0</ele>
  <time>2026-08-28T17:48:24Z</time>
  <course>247.66</course>
  <speed>0.0316227766016838</speed>
  <fix>3d</fix>
</trkpt>
<trkpt lat="40.0713749" lon="-105.229789">
  <ele>1583.0</ele>
  <time>2026-08-28T17:48:24Z</time>
  <course>0.0</course>
  <speed>0.0</speed>
  <fix>3d</fix>
</trkpt>
<trkpt lat="40.0713749" lon="-105.229789">
  <ele>1583.0</ele>
  <time>2026-08-28T17:48:24Z</time>
  <course>247.66</course>
  <speed>0.0316227766016838</speed>
  <fix>3d</fix>
</trkpt>
<trkpt lat="40.0713749" lon="-105.229789">
  <ele>1583.0</ele>
  <time>2026-08-28T17:48:24Z</time>
  <course>0.0</course>
  <speed>0.0</speed>
  <fix>3d</fix>
</trkpt>
<trkpt lat="40.0713749" lon="-105.229789">
  <ele>1583.0</ele>
  <time>2026-08-28T17:48:24Z</time>
  <course>247.66</course>
  <speed>0.0316227766016838</speed>
  <fix>3d</fix>
</trkpt>
<trkpt lat="40.0713749" lon="-105.229789">
  <ele>1583.0</ele>
  <time>2026-08-28T17:48:24Z</time>
  <course>0.0</course>
  <speed>0.0</speed>
  <fix>3d</fix>
</trkpt>
<trkpt lat="40.0713749" lon="-105.229789">
  <ele>1583.0</ele>
  <time>2026-08-28T17:48:24Z</time>
  <course>247.65</course>
  <speed>0.0316227766016838</speed>
  <fix>3d</fix>
</trkpt>
<trkpt lat="40.0713749" lon="-105.229789">
  <ele>1583.0</ele>
  <time>2026-08-28T17:48:24Z</time>
  <course>0.0</course>
  <speed>0.0</speed>
  <fix>3d</fix>
</trkpt>
<trkpt lat="40.0713749" lon="-105.229789">
  <ele>1583.0</ele>
  <time>2026-08-28T17:48:24Z</time>
  <course>247.65</course>
  <speed>0.0316227766016838</speed>
  <fix>3d</fix>
</trkpt>
<trkpt lat="40.0713749" lon="-105.229789">
  <ele>1583.0</ele>
  <time>2026-08-28T17:48:24Z</time>
  <course>0.0</course>
  <speed>0.0</speed>
  <fix>3d</fix>
</trkpt>
<trkpt lat="40.0713749" lon="-105.229789">
  <ele>1583.0</ele>
  <time>2026-08-28T17:48:24Z</time>
  <course>247.65</course>
  <speed>0.0316227766016838</speed>
  <fix>3d</fix>
</trkpt>
<trkpt lat="40.0713749" lon="-105.229789">
  <ele>1583.0</ele>
  <time>2026-08-28T17:48:24Z</time>
  <course>0.0</course>
  <speed>0.0</speed>
  <fix>3d</fix>
</trkpt>
<trkpt lat="40.0713749" lon="-105.229789">
  <ele>1583.0</ele>
  <time>2026-08-28T17:48:24Z</time>
  <course>247.64</course>
  <speed>0.0316227766016838</speed>
  <fix>3d</fix>
</trkpt>
<trkpt lat="40.0713749" lon="-105.229789">
  <ele>1583.0</ele>
  <time>2026-08-28T17:48:24Z</time>
  <course>0.0</course>
  <speed>0.0</speed>
  <fix>3d</fix>
</trkpt>
<trkpt lat="40.0713749" lon="-105.229789">
  <ele>1583.0</ele>
  <time>2026-08-28T17:48:24Z</time>
  <course>247.64</course>
  <speed>0.0316227766016838</speed>
  <fix>3d</fix>
</trkpt>
<trkpt lat="40.0713749" lon="-105.229789">
  <ele>1583.0</ele>
  <time>2026-08-28T17:48:24Z</time>
  <course>0.0</course>
  <speed>0.0</speed>
  <fix>3d</fix>
</trkpt>
<trkpt lat="40.0713749" lon="-105.229789">
  <ele>1583.0</ele>
  <time>2026-08-28T17:48:24Z</time>
  <course>247.64</course>
  <speed>0.0316227766016838</speed>
  <fix>3d</fix>
</trkpt>
<trkpt lat="40.0713749" lon="-105.229789">
  <ele>1583.0</ele>
  <time>2026-08-28T17:48:24Z</time>
  <course>0.0</course>
  <speed>0.0</speed>
  <fix>3d</fix>
</trkpt>
<trkpt lat="40.0713749" lon="-105.229789">
  <ele>1583.0</ele>
  <time>2026-08-28T17:48:24Z</time>
  <course>247.64</course>
  <speed>0.0316227766016838</speed>
  <fix>3d</fix>
</trkpt>
<trkpt lat="40.0713749" lon="-105.229789">
  <ele>1583.0</ele>
  <time>2026-08-28T17:48:24Z</time>
  <course>0.0</course>
  <speed>0.0</speed>
  <fix>3d</fix>
</trkpt>
<trkpt lat="40.0713749" lon="-105.229789">
  <ele>1583.0</ele>
  <time>2026-08-28T17:48:24Z</time>
  <course>247.63</course>
  <speed>0.0316227766016838</speed>
  <fix>3d</fix>
</trkpt>
<trkpt lat="40.0713749" lon="-105.229789">
  <ele>1583.0</ele>
  <time>2026-08-28T17:48:24Z</time>
  <course>0.0</course>
  <speed>0.0</speed>
  <fix>3d</fix>
</trkpt>
<trkpt lat="40.0713749" lon="-105.229789">
  <ele>1583.0</ele>
  <time>2026-08-28T17:48:24Z</time>
  <course>247.63</course>
  <speed>0.0316227766016838</speed>
  <fix>3d</fix>
</trkpt>
<trkpt lat="40.0713749" lon="-105.229789">
  <ele>1583.0</ele>
  <time>2026-08-28T17:48:24Z</time>
  <course>0.0</course>
  <speed>0.0</speed>
  <fix>3d</fix>
</trkpt>
<trkpt lat="40.0713749" lon="-105.229789">
  <ele>1583.0</ele>
  <time>2026-08-28T17:48:24Z</time>
  <course>247.63</course>
  <speed>0.0316227766016838</speed>
  <fix>3d</fix>
</trkpt>
<trkpt lat="40.0713749" lon="-105.229789">
  <ele>1583.0</ele>
  <time>2026-08-28T17:48:24Z</time>
  <course>0.0</course>
  <speed>0.0</speed>
  <fix>3d</fix>
</trkpt>
<trkpt lat="40.0713749" lon="-105.229789">
  <ele>1583.0</ele>
  <time>2026-08-28T17:48:24Z</time>
  <course>247.62</course>
  <speed>0.0316227766016838</speed>
  <fix>3d</fix>
</trkpt>
<trkpt lat="40.0713749" lon="-105.229789">
  <ele>1583.0</ele>
  <time>2026-08-28T17:48:24Z</time>
  <course>0.0</course>
  <speed>0.0</speed>
  <fix>3d</fix>
</trkpt>
<trkpt lat="40.0713749" lon="-105.229789">
  <ele>1583.0</ele>
  <time>2026-08-28T17:48:24Z</time>
  <course>247.62</course>
  <speed>0.0316227766016838</speed>
  <fix>3d</fix>
</trkpt>
<trkpt lat="40.0713749" lon="-105.229789">
  <ele>1583.0</ele>
  <time>2026-08-28T17:48:24Z</time>
  <course>0.0</course>
  <speed>0.0</speed>
  <fix>3d</fix>
</trkpt>
<trkpt lat="40.0713749" lon="-105.229789">
  <ele>1583.0</ele>
  <time>2026-08-28T17:48:24Z</time>
  <course>247.62</course>
  <speed>0.0316227766016838</speed>
  <fix>3d</fix>
</trkpt>
<trkpt lat="40.0713749" lon="-105.229789">
  <ele>1583.0</ele>
  <time>2026-08-28T17:48:24Z</time>
  <course>0.0</course>
  <speed>0.0</speed>
  <fix>3d</fix>
</trkpt>
<trkpt lat="40.0713749" lon="-105.229789">
  <ele>1583.0</ele>
  <time>2026-08-28T17:48:24Z</time>
  <course>247.61</course>
  <speed>0.0316227766016838</speed>
  <fix>3d</fix>
</trkpt>
<trkpt lat="40.0713749" lon="-105.229789">
  <ele>1583.0</ele>
  <time>2026-08-28T17:48:24Z</time>
  <course>0.0</course>
  <speed>0.0</speed>
  <fix>3d</fix>
</trkpt>
<trkpt lat="40.0713749" lon="-105.229789">
  <ele>1583.0</ele>
  <time>2026-08-28T17:48:24Z</time>
  <course>247.61</course>
  <speed>0.0316227766016838</speed>
  <fix>3d</fix>
</trkpt>
<trkpt lat="40.0713749" lon="-105.229789">
  <ele>1583.0</ele>
  <time>2026-08-28T17:48:24Z</time>
  <course>0.0</course>
  <speed>0.0</speed>
  <fix>3d</fix>
</trkpt>
<trkpt lat="40.0713749" lon="-105.229789">
  <ele>1583.0</ele>
  <time>2026-08-28T17:48:24Z</time>
  <course>247.61</course>
  <speed>0.0316227766016838</speed>
  <fix>3d</fix>
</trkpt>
<trkpt lat="40.0713749" lon="-105.229789">
  <ele>1583.0</ele>
  <time>2026-08-28T17:48:24Z</time>
  <course>0.0</course>
  <speed>0.0</speed>
  <fix>3d</fix>
</trkpt>
<trkpt lat="40.0713749" lon="-105.229789">
  <ele>1583.0</ele>
  <time>2026-08-28T17:48:24Z</time>
  <course>247.61</course>
  <speed>0.0316227766016838</speed>
  <fix>3d</fix>
</trkpt>
<trkpt lat="40.0713749" lon="-105.229789">
  <ele>1583.0</ele>
  <time>2026-08-28T17:48:24Z</time>
  <course>0.0</course>
  <speed>0.0</speed>
  <fix>3d</fix>
</trkpt>
<trkpt lat="40.0713749" lon="-105.229789">
  <ele>1583.0</ele>
  <time>2026-08-28T17:48:24Z</time>
  <course>247.6</course>
  <speed>0.0316227766016838</speed>
  <fix>3d</fix>
</trkpt>
<trkpt lat="40.0713749" lon="-105.229789">
  <ele>1583.0</ele>
  <time>2026-08-28T17:48:24Z</time>
  <course>0.0</course>
  <speed>0.0</speed>
  <fix>3d</fix>
</trkpt>
<trkpt lat="40.0713749" lon="-105.229789">
  <ele>1583.0</ele>
  <time>2026-08-28T17:48:24Z</time>
  <course>247.6</course>
  <speed>0.0316227766016838</speed>
  <fix>3d</fix>
</trkpt>
<trkpt lat="40.0713749" lon="-105.229789">
  <ele>1583.0</ele>
  <time>2026-08-28T17:48:24Z</time>
  <course>0.0</course>
  <speed>0.0</speed>
  <fix>3d</fix>
</trkpt>
<trkpt lat="40.0713749" lon="-105.229789">
  <ele>1583.0</ele>
  <time>2026-08-28T17:48:24Z</time>
  <course>247.6</course>
  <speed>0.0316227766016838</speed>
  <fix>3d</fix>
</trkpt>
<trkpt lat="40.0713749" lon="-105.229789">
  <ele>1583.0</ele>
  <time>2026-08-28T17:48:24Z</time>
  <course>0.0</course>
  <speed>0.0</speed>
  <fix>3d</fix>
</trkpt>
<trkpt lat="40.0713749" lon="-105.229789">
  <ele>1583.0</ele>
  <time>2026-08-28T17:48:24Z</time>
  <course>247.6</course>
  <speed>0.0316227766016838</speed>
  <fix>3d</fix>
</trkpt>
<trkpt lat="40.0713749" lon="-105.229789">
  <ele>1583.0</ele>
  <time>2026-08-28T17:48:24Z</time>
  <course>0.0</course>
  <speed>0.0</speed>
  <fix>3d</fix>
</trkpt>
<trkpt lat="40.0713749" lon="-105.229789">
  <ele>1583.0</ele>
  <time>2026-08-28T17:48:24Z</time>
  <course>247.59</course>
  <speed>0.0316227766016838</speed>
  <fix>3d</fix>
</trkpt>
<trkpt lat="40.0713749" lon="-105.229789">
  <ele>1583.0</ele>
  <time>2026-08-28T17:48:24Z</time>
  <course>0.0</course>
  <speed>0.0</speed>
  <fix>3d</fix>
</trkpt>
<trkpt lat="40.0713749" lon="-105.229789">
  <ele>1582.92</ele>
  <time>2026-08-28T17:48:24Z</time>
  <course>247.59</course>
  <speed>0.0</speed>
  <fix>3d</fix>
</trkpt>
<trkpt lat="40.0713749" lon="-105.229789">
  <ele>1583.0</ele>
  <time>2026-08-28T17:48:24Z</time>
  <course>0.0</course>
  <speed>0.0</speed>
  <fix>3d</fix>
</trkpt>
<trkpt lat="40.0713749" lon="-105.229789">
  <ele>1582.92</ele>
  <time>2026-08-28T17:48:24Z</time>
  <course>247.59</course>
  <speed>0.0</speed>
  <fix>3d</fix>
</trkpt>
<trkpt lat="40.0713749" lon="-105.229789">
  <ele>1583.0</ele>
  <time>2026-08-28T17:48:24Z</time>
  <course>0.0</course>
  <speed>0.0</speed>
  <fix>3d</fix>
</trkpt>
<trkpt lat="40.0713749" lon="-105.229789">
  <ele>1582.91</ele>
  <time>2026-08-28T17:48:24Z</time>
  <course>247.58</course>
  <speed>0.0</speed>
  <fix>3d</fix>
</trkpt>
<trkpt lat="40.0713749" lon="-105.229789">
  <ele>1583.0</ele>
  <time>2026-08-28T17:48:24Z</time>
  <course>0.0</course>
  <speed>0.0</speed>
  <fix>3d</fix>
</trkpt>
<trkpt lat="40.0713749" lon="-105.229789">
  <ele>1582.91</ele>
  <time>2026-08-28T17:48:24Z</time>
  <course>247.58</course>
  <speed>0.0</speed>
  <fix>3d</fix>
</trkpt>
<trkpt lat="40.0713749" lon="-105.229789">
  <ele>1583.0</ele>
  <time>2026-08-28T17:48:24Z</time>
  <course>0.0</course>
  <speed>0.0</speed>
  <fix>3d</fix>
</trkpt>
<trkpt lat="40.0713749" lon="-105.229789">
  <ele>1582.9</ele>
  <time>2026-08-28T17:48:24Z</time>
  <course>247.58</course>
  <speed>0.0</speed>
  <fix>3d</fix>
</trkpt>
<trkpt lat="40.0713749" lon="-105.229789">
  <ele>1583.0</ele>
  <time>2026-08-28T17:48:24Z</time>
  <course>0.0</course>
  <speed>0.0</speed>
  <fix>3d</fix>
</trkpt>
<trkpt lat="40.0713749" lon="-105.229789">
  <ele>1582.9</ele>
  <time>2026-08-28T17:48:24Z</time>
  <course>247.58</course>
  <speed>0.0</speed>
  <fix>3d</fix>
</trkpt>
<trkpt lat="40.0713749" lon="-105.229789">
  <ele>1583.0</ele>
  <time>2026-08-28T17:48:24Z</time>
  <course>0.0</course>
  <speed>0.0</speed>
  <fix>3d</fix>
</trkpt>
<trkpt lat="40.0713749" lon="-105.229789">
  <ele>1582.9</ele>
  <time>2026-08-28T17:48:24Z</time>
  <course>247.57</course>
  <speed>0.0</speed>
  <fix>3d</fix>
</trkpt>
<trkpt lat="40.0713749" lon="-105.229789">
  <ele>1583.0</ele>
  <time>2026-08-28T17:48:24Z</time>
  <course>0.0</course>
  <speed>0.0</speed>
  <fix>3d</fix>
</trkpt>
<trkpt lat="40.0713749" lon="-105.229789">
  <ele>1582.9</ele>
  <time>2026-08-28T17:48:24Z</time>
  <course>247.57</course>
  <speed>0.0</speed>
  <fix>3d</fix>
</trkpt>
<trkpt lat="40.0713749" lon="-105.229789">
  <ele>1583.0</ele>
  <time>2026-08-28T17:48:24Z</time>
  <course>0.0</course>
  <speed>0.0</speed>
  <fix>3d</fix>
</trkpt>
<trkpt lat="40.0713749" lon="-105.229789">
  <ele>1582.9</ele>
  <time>2026-08-28T17:48:24Z</time>
  <course>247.57</course>
  <speed>0.0</speed>
  <fix>3d</fix>
</trkpt>
<trkpt lat="40.0713749" lon="-105.229789">
  <ele>1583.0</ele>
  <time>2026-08-28T17:48:24Z</time>
  <course>0.0</course>
  <speed>0.0</speed>
  <fix>3d</fix>
</trkpt>
<trkpt lat="40.0713749" lon="-105.229789">
  <ele>1582.9</ele>
  <time>2026-08-28T17:48:24Z</time>
  <course>247.57</course>
  <speed>0.01</speed>
  <fix>3d</fix>
</trkpt>
<trkpt lat="40.0713749" lon="-105.229789">
  <ele>1583.0</ele>
  <time>2026-08-28T17:48:24Z</time>
  <course>0.0</course>
  <speed>0.0</speed>
  <fix>3d</fix>
</trkpt>
<trkpt lat="40.0713749" lon="-105.229789">
  <ele>1582.91</ele>
  <time>2026-08-28T17:48:24Z</time>
  <course>247.56</course>
  <speed>0.01</speed>
  <fix>3d</fix>
</trkpt>
<trkpt lat="40.0713749" lon="-105.229789">
  <ele>1583.0</ele>
  <time>2026-08-28T17:48:24Z</time>
  <course>0.0</course>
  <speed>0.0</speed>
  <fix>3d</fix>
</trkpt>
<trkpt lat="40.0713749" lon="-105.229789">
  <ele>1582.91</ele>
  <time>2026-08-28T17:48:24Z</time>
  <course>247.56</course>
  <speed>0.01</speed>
  <fix>3d</fix>
</trkpt>
<trkpt lat="40.0713749" lon="-105.229789">
  <ele>1583.0</ele>
  <time>2026-08-28T17:48:24Z</time>
  <course>0.0</course>
  <speed>0.0</speed>
  <fix>3d</fix>
</trkpt>
<trkpt lat="40.0713749" lon="-105.229789">
  <ele>1582.91</ele>
  <time>2026-08-28T17:48:24Z</time>
  <course>247.56</course>
  <speed>0.01</speed>
  <fix>3d</fix>
</trkpt>
<trkpt lat="40.0713749" lon="-105.229789">
  <ele>1583.0</ele>
  <time>2026-08-28T17:48:24Z</time>
  <course>0.0</course>
  <speed>0.0</speed>
  <fix>3d</fix>
</trkpt>
<trkpt lat="40.0713749" lon="-105.229789">
  <ele>1582.92</ele>
  <time>2026-08-28T17:48:24Z</time>
  <course>247.56</course>
  <speed>0.01</speed>
  <fix>3d</fix>
</trkpt>
<trkpt lat="40.0713749" lon="-105.229789">
  <ele>1583.0</ele>
  <time>2026-08-28T17:48:24Z</time>
  <course>0.0</course>
  <speed>0.0</speed>
  <fix>3d</fix>
</trkpt>
<trkpt lat="40.0713749" lon="-105.229789">
  <ele>1582.92</ele>
  <time>2026-08-28T17:48:24Z</time>
  <course>247.55</course>
  <speed>0.01</speed>
  <fix>3d</fix>
</trkpt>
<trkpt lat="40.0713749" lon="-105.229789">
  <ele>1583.0</ele>
  <time>2026-08-28T17:48:24Z</time>
  <course>0.0</course>
  <speed>0.0</speed>
  <fix>3d</fix>
</trkpt>
<trkpt lat="40.0713749" lon="-105.229789">
  <ele>1582.92</ele>
  <time>2026-08-28T17:48:24Z</time>
  <course>247.55</course>
  <speed>0.01</speed>
  <fix>3d</fix>
</trkpt>
<trkpt lat="40.0713749" lon="-105.229789">
  <ele>1583.0</ele>
  <time>2026-08-28T17:48:24Z</time>
  <course>0.0</course>
  <speed>0.0</speed>
  <fix>3d</fix>
</trkpt>
<trkpt lat="40.0713749" lon="-105.229789">
  <ele>1582.93</ele>
  <time>2026-08-28T17:48:24Z</time>
  <course>247.55</course>
  <speed>0.01</speed>
  <fix>3d</fix>
</trkpt>
<trkpt lat="40.0713749" lon="-105.229789">
  <ele>1583.0</ele>
  <time>2026-08-28T17:48:24Z</time>
  <course>0.0</course>
  <speed>0.0</speed>
  <fix>3d</fix>
</trkpt>
<trkpt lat="40.0713749" lon="-105.229789">
  <ele>1582.93</ele>
  <time>2026-08-28T17:48:24Z</time>
  <course>247.55</course>
  <speed>0.02</speed>
  <fix>3d</fix>
</trkpt>
<trkpt lat="40.0713749" lon="-105.229789">
  <ele>1583.0</ele>
  <time>2026-08-28T17:48:24Z</time>
  <course>0.0</course>
  <speed>0.0</speed>
  <fix>3d</fix>
</trkpt>
<trkpt lat="40.0713749" lon="-105.229789">
  <ele>1582.93</ele>
  <time>2026-08-28T17:48:24Z</time>
  <course>247.54</course>
  <speed>0.02</speed>
  <fix>3d</fix>
</trkpt>
<trkpt lat="40.0713749" lon="-105.229789">
  <ele>1583.0</ele>
  <time>2026-08-28T17:48:24Z</time>
  <course>0.0</course>
  <speed>0.0</speed>
  <fix>3d</fix>
</trkpt>
<trkpt lat="40.0713749" lon="-105.229789">
  <ele>1582.93</ele>
  <time>2026-08-28T17:48:24Z</time>
  <course>247.54</course>
  <speed>0.02</speed>
  <fix>3d</fix>
</trkpt>
<trkpt lat="40.0713749" lon="-105.229789">
  <ele>1583.0</ele>
  <time>2026-08-28T17:48:24Z</time>
  <course>0.0</course>
  <speed>0.0</speed>
  <fix>3d</fix>
</trkpt>
<trkpt lat="40.0713749" lon="-105.229789">
  <ele>1582.93</ele>
  <time>2026-08-28T17:48:24Z</time>
  <course>247.54</course>
  <speed>0.02</speed>
  <fix>3d</fix>
</trkpt>
<trkpt lat="40.0713749" lon="-105.229789">
  <ele>1583.0</ele>
  <time>2026-08-28T17:48:24Z</time>
  <course>0.0</course>
  <speed>0.0</speed>
  <fix>3d</fix>
</trkpt>
<trkpt lat="40.0713749" lon="-105.229789">
  <ele>1582.93</ele>
  <time>2026-08-28T17:48:24Z</time>
  <course>247.54</course>
  <speed>0.022360679774997897</speed>
  <fix>3d</fix>
</trkpt>
<trkpt lat="40.0713749" lon="-105.229789">
  <ele>1583.0</ele>
  <time>2026-08-28T17:48:24Z</time>
  <course>0.0</course>
  <speed>0.0</speed>
  <fix>3d</fix>
</trkpt>
<trkpt lat="40.0713749" lon="-105.229789">
  <ele>1582.94</ele>
  <time>2026-08-28T17:48:24Z</time>
  <course>247.53</course>
  <speed>0.022360679774997897</speed>
  <fix>3d</fix>
</trkpt>
<trkpt lat="40.0713749" lon="-105.229789">
  <ele>1583.0</ele>
  <time>2026-08-28T17:48:24Z</time>
  <course>0.0</course>
  <speed>0.0</speed>
  <fix>3d</fix>
</trkpt>
<trkpt lat="40.0713749" lon="-105.229789">
  <ele>1582.94</ele>
  <time>2026-08-28T17:48:24Z</time>
  <course>247.53</course>
  <speed>0.022360679774997897</speed>
  <fix>3d</fix>
</trkpt>
<trkpt lat="40.0713749" lon="-105.229789">
  <ele>1583.0</ele>
  <time>2026-08-28T17:48:24Z</time>
  <course>0.0</course>
  <speed>0.0</speed>
  <fix>3d</fix>
</trkpt>
<trkpt lat="40.071375" lon="-105.229789">
  <ele>1582.94</ele>
  <time>2026-08-28T17:48:24Z</time>
  <course>247.53</course>
  <speed>0.022360679774997897</speed>
  <fix>3d</fix>
</trkpt>
<trkpt lat="40.0713749" lon="-105.229789">
  <ele>1583.0</ele>
  <time>2026-08-28T17:48:24Z</time>
  <course>0.0</course>
  <speed>0.0</speed>
  <fix>3d</fix>
</trkpt>
<trkpt lat="40.071375" lon="-105.229789">
  <ele>1582.95</ele>
  <time>2026-08-28T17:48:24Z</time>
  <course>247.53</course>
  <speed>0.022360679774997897</speed>
  <fix>3d</fix>
</trkpt>
<trkpt lat="40.0713749" lon="-105.229789">
  <ele>1583.0</ele>
  <time>2026-08-28T17:48:24Z</time>
  <course>0.0</course>
  <speed>0.0</speed>
  <fix>3d</fix>
</trkpt>
<trkpt lat="40.071375" lon="-105.229789">
  <ele>1582.95</ele>
  <time>2026-08-28T17:48:24Z</time>
  <course>247.53</course>
  <speed>0.022360679774997897</speed>
  <fix>3d</fix>
</trkpt>
<trkpt lat="40.0713749" lon="-105.229789">
  <ele>1583.0</ele>
  <time>2026-08-28T17:48:24Z</time>
  <course>0.0</course>
  <speed>0.0</speed>
  <fix>3d</fix>
</trkpt>
<trkpt lat="40.071375" lon="-105.229789">
  <ele>1582.95</ele>
  <time>2026-08-28T17:48:24Z</time>
  <course>247.52</course>
  <speed>0.022360679774997897</speed>
  <fix>3d</fix>
</trkpt>
<trkpt lat="40.0713749" lon="-105.229789">
  <ele>1583.0</ele>
  <time>2026-08-28T17:48:24Z</time>
  <course>0.0</course>
  <speed>0.0</speed>
  <fix>3d</fix>
</trkpt>
<trkpt lat="40.071375" lon="-105.229789">
  <ele>1582.95</ele>
  <time>2026-08-28T17:48:24Z</time>
  <course>247.52</course>
  <speed>0.022360679774997897</speed>
  <fix>3d</fix>
</trkpt>
<trkpt lat="40.0713749" lon="-105.229789">
  <ele>1583.0</ele>
  <time>2026-08-28T17:48:24Z</time>
  <course>0.0</course>
  <speed>0.0</speed>
  <fix>3d</fix>
</trkpt>
<trkpt lat="40.071375" lon="-105.229789">
  <ele>1582.95</ele>
  <time>2026-08-28T17:48:24Z</time>
  <course>247.52</course>
  <speed>0.022360679774997897</speed>
  <fix>3d</fix>
</trkpt>
<trkpt lat="40.0713749" lon="-105.229789">
  <ele>1583.0</ele>
  <time>2026-08-28T17:48:24Z</time>
  <course>0.0</course>
  <speed>0.0</speed>
  <fix>3d</fix>
</trkpt>
<trkpt lat="40.071375" lon="-105.229789">
  <ele>1582.95</ele>
  <time>2026-08-28T17:48:24Z</time>
  <course>247.52</course>
  <speed>0.022360679774997897</speed>
  <fix>3d</fix>
</trkpt>
<trkpt lat="40.0713749" lon="-105.229789">
  <ele>1583.0</ele>
  <time>2026-08-28T17:48:24Z</time>
  <course>0.0</course>
  <speed>0.0</speed>
  <fix>3d</fix>
</trkpt>
<trkpt lat="40.071375" lon="-105.229789">
  <ele>1582.95</ele>
  <time>2026-08-28T17:48:24Z</time>
  <course>247.51</course>
  <speed>0.0316227766016838</speed>
  <fix>3d</fix>
</trkpt>
<trkpt lat="40.0713749" lon="-105.229789">
  <ele>1583.0</ele>
  <time>2026-08-28T17:48:24Z</time>
  <course>0.0</course>
  <speed>0.0</speed>
  <fix>3d</fix>
</trkpt>
<trkpt lat="40.071375" lon="-105.229789">
  <ele>1582.95</ele>
  <time>2026-08-28T17:48:24Z</time>
  <course>247.51</course>
  <speed>0.0316227766016838</speed>
  <fix>3d</fix>
</trkpt>
<trkpt lat="40.0713749" lon="-105.229789">
  <ele>1583.0</ele>
  <time>2026-08-28T17:48:24Z</time>
  <course>0.0</course>
  <speed>0.0</speed>
  <fix>3d</fix>
</trkpt>
<trkpt lat="40.071375" lon="-105.229789">
  <ele>1582.95</ele>
  <time>2026-08-28T17:48:24Z</time>
  <course>247.51</course>
  <speed>0.0316227766016838</speed>
  <fix>3d</fix>
</trkpt>
<trkpt lat="40.0713749" lon="-105.229789">
  <ele>1583.0</ele>
  <time>2026-08-28T17:48:24Z</time>
  <course>0.0</course>
  <speed>0.0</speed>
  <fix>3d</fix>
</trkpt>
<trkpt lat="40.071375" lon="-105.2297889">
  <ele>1582.95</ele>
  <time>2026-08-28T17:48:24Z</time>
  <course>247.51</course>
  <speed>0.0316227766016838</speed>
  <fix>3d</fix>
</trkpt>
<trkpt lat="40.0713749" lon="-105.229789">
  <ele>1583.0</ele>
  <time>2026-08-28T17:48:24Z</time>
  <course>0.0</course>
  <speed>0.0</speed>
  <fix>3d</fix>
</trkpt>
<trkpt lat="40.071375" lon="-105.2297889">
  <ele>1582.95</ele>
  <time>2026-08-28T17:48:24Z</time>
  <course>247.5</course>
  <speed>0.0316227766016838</speed>
  <fix>3d</fix>
</trkpt>
<trkpt lat="40.0713749" lon="-105.229789">
  <ele>1583.0</ele>
  <time>2026-08-28T17:48:24Z</time>
  <course>0.0</course>
  <speed>0.0</speed>
  <fix>3d</fix>
</trkpt>
<trkpt lat="40.071375" lon="-105.2297889">
  <ele>1582.95</ele>
  <time>2026-08-28T17:48:24Z</time>
  <course>247.5</course>
  <speed>0.0316227766016838</speed>
  <fix>3d</fix>
</trkpt>
<trkpt lat="40.0713749" lon="-105.229789">
  <ele>1583.0</ele>
  <time>2026-08-28T17:48:24Z</time>
  <course>0.0</course>
  <speed>0.0</speed>
  <fix>3d</fix>
</trkpt>
<trkpt lat="40.0713751" lon="-105.2297889">
  <ele>1582.95</ele>
  <time>2026-08-28T17:48:24Z</time>
  <course>247.5</course>
  <speed>0.0316227766016838</speed>
  <fix>3d</fix>
</trkpt>
<trkpt lat="40.0713749" lon="-105.229789">
  <ele>1583.0</ele>
  <time>2026-08-28T17:48:24Z</time>
  <course>0.0</course>
  <speed>0.0</speed>
  <fix>3d</fix>
</trkpt>
<trkpt lat="40.0713751" lon="-105.2297889">
  <ele>1582.95</ele>
  <time>2026-08-28T17:48:24Z</time>
  <course>247.5</course>
  <speed>0.0316227766016838</speed>
  <fix>3d</fix>
</trkpt>
<trkpt lat="40.0713749" lon="-105.229789">
  <ele>1583.0</ele>
  <time>2026-08-28T17:48:24Z</time>
  <course>0.0</course>
  <speed>0.0</speed>
  <fix>3d</fix>
</trkpt>
<trkpt lat="40.0713751" lon="-105.2297889">
  <ele>1582.95</ele>
  <time>2026-08-28T17:48:24Z</time>
  <course>247.5</course>
  <speed>0.0316227766016838</speed>
  <fix>3d</fix>
</trkpt>
<trkpt lat="40.0713749" lon="-105.229789">
  <ele>1583.0</ele>
  <time>2026-08-28T17:48:24Z</time>
  <course>0.0</course>
  <speed>0.0</speed>
  <fix>3d</fix>
</trkpt>
<trkpt lat="40.0713751" lon="-105.2297889">
  <ele>1582.96</ele>
  <time>2026-08-28T17:48:24Z</time>
  <course>247.49</course>
  <speed>0.0316227766016838</speed>
  <fix>3d</fix>
</trkpt>
<trkpt lat="40.0713749" lon="-105.229789">
  <ele>1583.0</ele>
  <time>2026-08-28T17:48:24Z</time>
  <course>0.0</course>
  <speed>0.0</speed>
  <fix>3d</fix>
</trkpt>
<trkpt lat="40.0713751" lon="-105.2297889">
  <ele>1582.96</ele>
  <time>2026-08-28T17:48:24Z</time>
  <course>247.49</course>
  <speed>0.0316227766016838</speed>
  <fix>3d</fix>
</trkpt>
<trkpt lat="40.0713749" lon="-105.229789">
  <ele>1583.0</ele>
  <time>2026-08-28T17:48:24Z</time>
  <course>0.0</course>
  <speed>0.0</speed>
  <fix>3d</fix>
</trkpt>
<trkpt lat="40.0713751" lon="-105.2297889">
  <ele>1582.97</ele>
  <time>2026-08-28T17:48:24Z</time>
  <course>247.49</course>
  <speed>0.0316227766016838</speed>
  <fix>3d</fix>
</trkpt>
<trkpt lat="40.0713749" lon="-105.229789">
  <ele>1583.0</ele>
  <time>2026-08-28T17:48:24Z</time>
  <course>0.0</course>
  <speed>0.0</speed>
  <fix>3d</fix>
</trkpt>
<trkpt lat="40.0713751" lon="-105.2297889">
  <ele>1582.98</ele>
  <time>2026-08-28T17:48:24Z</time>
  <course>247.49</course>
  <speed>0.0316227766016838</speed>
  <fix>3d</fix>
</trkpt>
<trkpt lat="40.0713749" lon="-105.229789">
  <ele>1583.0</ele>
  <time>2026-08-28T17:48:24Z</time>
  <course>0.0</course>
  <speed>0.0</speed>
  <fix>3d</fix>
</trkpt>
<trkpt lat="40.0713751" lon="-105.2297889">
  <ele>1582.98</ele>
  <time>2026-08-28T17:48:24Z</time>
  <course>247.49</course>
  <speed>0.0316227766016838</speed>
  <fix>3d</fix>
</trkpt>
<trkpt lat="40.0713749" lon="-105.229789">
  <ele>1583.0</ele>
  <time>2026-08-28T17:48:24Z</time>
  <course>0.0</course>
  <speed>0.0</speed>
  <fix>3d</fix>
</trkpt>
<trkpt lat="40.0713751" lon="-105.2297889">
  <ele>1582.99</ele>
  <time>2026-08-28T17:48:24Z</time>
  <course>247.48</course>
  <speed>0.0316227766016838</speed>
  <fix>3d</fix>
</trkpt>
<trkpt lat="40.0713749" lon="-105.229789">
  <ele>1583.0</ele>
  <time>2026-08-28T17:48:24Z</time>
  <course>0.0</course>
  <speed>0.0</speed>
  <fix>3d</fix>
</trkpt>
<trkpt lat="40.0713751" lon="-105.2297889">
  <ele>1583.0</ele>
  <time>2026-08-28T17:48:24Z</time>
  <course>247.48</course>
  <speed>0.022360679774997897</speed>
  <fix>3d</fix>
</trkpt>
<trkpt lat="40.0713749" lon="-105.229789">
  <ele>1583.0</ele>
  <time>2026-08-28T17:48:24Z</time>
  <course>0.0</course>
  <speed>0.0</speed>
  <fix>3d</fix>
</trkpt>
<trkpt lat="40.0713751" lon="-105.2297889">
  <ele>1583.01</ele>
  <time>2026-08-28T17:48:24Z</time>
  <course>247.48</course>
  <speed>0.022360679774997897</speed>
  <fix>3d</fix>
</trkpt>
<trkpt lat="40.0713749" lon="-105.229789">
  <ele>1583.0</ele>
  <time>2026-08-28T17:48:24Z</time>
  <course>0.0</course>
  <speed>0.0</speed>
  <fix>3d</fix>
</trkpt>
<trkpt lat="40.0713751" lon="-105.2297889">
  <ele>1583.01</ele>
  <time>2026-08-28T17:48:24Z</time>
  <course>247.48</course>
  <speed>0.022360679774997897</speed>
  <fix>3d</fix>
</trkpt>
<trkpt lat="40.0713749" lon="-105.229789">
  <ele>1583.0</ele>
  <time>2026-08-28T17:48:24Z</time>
  <course>0.0</course>
  <speed>0.0</speed>
  <fix>3d</fix>
</trkpt>
<trkpt lat="40.0713751" lon="-105.2297889">
  <ele>1583.01</ele>
  <time>2026-08-28T17:48:24Z</time>
  <course>247.47</course>
  <speed>0.022360679774997897</speed>
  <fix>3d</fix>
</trkpt>
<trkpt lat="40.0713749" lon="-105.229789">
  <ele>1583.0</ele>
  <time>2026-08-28T17:48:24Z</time>
  <course>0.0</course>
  <speed>0.0</speed>
  <fix>3d</fix>
</trkpt>
<trkpt lat="40.0713751" lon="-105.2297889">
  <ele>1583.01</ele>
  <time>2026-08-28T17:48:24Z</time>
  <course>247.47</course>
  <speed>0.022360679774997897</speed>
  <fix>3d</fix>
</trkpt>
<trkpt lat="40.0713749" lon="-105.229789">
  <ele>1583.0</ele>
  <time>2026-08-28T17:48:24Z</time>
  <course>0.0</course>
  <speed>0.0</speed>
  <fix>3d</fix>
</trkpt>
<trkpt lat="40.0713751" lon="-105.2297889">
  <ele>1583.01</ele>
  <time>2026-08-28T17:48:24Z</time>
  <course>247.47</course>
  <speed>0.022360679774997897</speed>
  <fix>3d</fix>
</trkpt>
<trkpt lat="40.0713749" lon="-105.229789">
  <ele>1583.0</ele>
  <time>2026-08-28T17:48:24Z</time>
  <course>0.0</course>
  <speed>0.0</speed>
  <fix>3d</fix>
</trkpt>
<trkpt lat="40.071375" lon="-105.2297889">
  <ele>1583.0</ele>
  <time>2026-08-28T17:48:24Z</time>
  <course>247.47</course>
  <speed>0.022360679774997897</speed>
  <fix>3d</fix>
</trkpt>
<trkpt lat="40.0713749" lon="-105.229789">
  <ele>1583.0</ele>
  <time>2026-08-28T17:48:24Z</time>
  <course>0.0</course>
  <speed>0.0</speed>
  <fix>3d</fix>
</trkpt>
<trkpt lat="40.071375" lon="-105.2297889">
  <ele>1583.0</ele>
  <time>2026-08-28T17:48:24Z</time>
  <course>247.47</course>
  <speed>0.022360679774997897</speed>
  <fix>3d</fix>
</trkpt>
<trkpt lat="40.0713749" lon="-105.229789">
  <ele>1583.0</ele>
  <time>2026-08-28T17:48:24Z</time>
  <course>0.0</course>
  <speed>0.0</speed>
  <fix>3d</fix>
</trkpt>
<trkpt lat="40.071375" lon="-105.2297889">
  <ele>1582.99</ele>
  <time>2026-08-28T17:48:24Z</time>
  <course>247.46</course>
  <speed>0.022360679774997897</speed>
  <fix>3d</fix>
</trkpt>
<trkpt lat="40.0713749" lon="-105.229789">
  <ele>1583.0</ele>
  <time>2026-08-28T17:48:24Z</time>
  <course>0.0</course>
  <speed>0.0</speed>
  <fix>3d</fix>
</trkpt>
<trkpt lat="40.071375" lon="-105.2297889">
  <ele>1582.99</ele>
  <time>2026-08-28T17:48:24Z</time>
  <course>247.46</course>
  <speed>0.022360679774997897</speed>
  <fix>3d</fix>
</trkpt>
<trkpt lat="40.0713749" lon="-105.229789">
  <ele>1583.0</ele>
  <time>2026-08-28T17:48:24Z</time>
  <course>0.0</course>
  <speed>0.0</speed>
  <fix>3d</fix>
</trkpt>
<trkpt lat="40.071375" lon="-105.2297889">
  <ele>1582.99</ele>
  <time>2026-08-28T17:48:24Z</time>
  <course>247.46</course>
  <speed>0.022360679774997897</speed>
  <fix>3d</fix>
</trkpt>
<trkpt lat="40.0713749" lon="-105.229789">
  <ele>1583.0</ele>
  <time>2026-08-28T17:48:24Z</time>
  <course>0.0</course>
  <speed>0.0</speed>
  <fix>3d</fix>
</trkpt>
<trkpt lat="40.071375" lon="-105.2297889">
  <ele>1582.99</ele>
  <time>2026-08-28T17:48:24Z</time>
  <course>247.46</course>
  <speed>0.022360679774997897</speed>
  <fix>3d</fix>
</trkpt>
<trkpt lat="40.0713749" lon="-105.229789">
  <ele>1583.0</ele>
  <time>2026-08-28T17:48:24Z</time>
  <course>0.0</course>
  <speed>0.0</speed>
  <fix>3d</fix>
</trkpt>
<trkpt lat="40.071375" lon="-105.2297889">
  <ele>1582.99</ele>
  <time>2026-08-28T17:48:24Z</time>
  <course>247.45</course>
  <speed>0.022360679774997897</speed>
  <fix>3d</fix>
</trkpt>
<trkpt lat="40.0713749" lon="-105.229789">
  <ele>1583.0</ele>
  <time>2026-08-28T17:48:24Z</time>
  <course>0.0</course>
  <speed>0.0</speed>
  <fix>3d</fix>
</trkpt>
<trkpt lat="40.071375" lon="-105.2297889">
  <ele>1582.99</ele>
  <time>2026-08-28T17:48:24Z</time>
  <course>247.45</course>
  <speed>0.022360679774997897</speed>
  <fix>3d</fix>
</trkpt>
<trkpt lat="40.0713749" lon="-105.229789">
  <ele>1583.0</ele>
  <time>2026-08-28T17:48:24Z</time>
  <course>0.0</course>
  <speed>0.0</speed>
  <fix>3d</fix>
</trkpt>
<trkpt lat="40.071375" lon="-105.2297889">
  <ele>1582.99</ele>
  <time>2026-08-28T17:48:24Z</time>
  <course>247.45</course>
  <speed>0.022360679774997897</speed>
  <fix>3d</fix>
</trkpt>
<trkpt lat="40.0713749" lon="-105.229789">
  <ele>1583.0</ele>
  <time>2026-08-28T17:48:24Z</time>
  <course>0.0</course>
  <speed>0.0</speed>
  <fix>3d</fix>
</trkpt>
<trkpt lat="40.071375" lon="-105.2297889">
  <ele>1582.99</ele>
  <time>2026-08-28T17:48:24Z</time>
  <course>247.45</course>
  <speed>0.022360679774997897</speed>
  <fix>3d</fix>
</trkpt>
<trkpt lat="40.0713749" lon="-105.229789">
  <ele>1583.0</ele>
  <time>2026-08-28T17:48:24Z</time>
  <course>0.0</course>
  <speed>0.0</speed>
  <fix>3d</fix>
</trkpt>
<trkpt lat="40.071375" lon="-105.2297889">
  <ele>1583.0</ele>
  <time>2026-08-28T17:48:24Z</time>
  <course>247.45</course>
  <speed>0.022360679774997897</speed>
  <fix>3d</fix>
</trkpt>
<trkpt lat="40.0713749" lon="-105.229789">
  <ele>1583.0</ele>
  <time>2026-08-28T17:48:24Z</time>
  <course>0.0</course>
  <speed>0.0</speed>
  <fix>3d</fix>
</trkpt>
<trkpt lat="40.071375" lon="-105.2297889">
  <ele>1583.0</ele>
  <time>2026-08-28T17:48:24Z</time>
  <course>247.44</course>
  <speed>0.022360679774997897</speed>
  <fix>3d</fix>
</trkpt>
<trkpt lat="40.0713749" lon="-105.229789">
  <ele>1583.0</ele>
  <time>2026-08-28T17:48:24Z</time>
  <course>0.0</course>
  <speed>0.0</speed>
  <fix>3d</fix>
</trkpt>
<trkpt lat="40.071375" lon="-105.229789">
  <ele>1583.0</ele>
  <time>2026-08-28T17:48:24Z</time>
  <course>247.44</course>
  <speed>0.02</speed>
  <fix>3d</fix>
</trkpt>
<trkpt lat="40.0713749" lon="-105.229789">
  <ele>1583.0</ele>
  <time>2026-08-28T17:48:24Z</time>
  <course>0.0</course>
  <speed>0.0</speed>
  <fix>3d</fix>
</trkpt>
<trkpt lat="40.071375" lon="-105.229789">
  <ele>1583.0</ele>
  <time>2026-08-28T17:48:24Z</time>
  <course>247.44</course>
  <speed>0.02</speed>
  <fix>3d</fix>
</trkpt>
<trkpt lat="40.0713749" lon="-105.229789">
  <ele>1583.0</ele>
  <time>2026-08-28T17:48:24Z</time>
  <course>0.0</course>
  <speed>0.0</speed>
  <fix>3d</fix>
</trkpt>
<trkpt lat="40.071375" lon="-105.229789">
  <ele>1583.0</ele>
  <time>2026-08-28T17:48:24Z</time>
  <course>247.44</course>
  <speed>0.02</speed>
  <fix>3d</fix>
</trkpt>
<trkpt lat="40.0713749" lon="-105.229789">
  <ele>1583.0</ele>
  <time>2026-08-28T17:48:24Z</time>
  <course>0.0</course>
  <speed>0.0</speed>
  <fix>3d</fix>
</trkpt>
<trkpt lat="40.071375" lon="-105.229789">
  <ele>1583.01</ele>
  <time>2026-08-28T17:48:24Z</time>
  <course>247.43</course>
  <speed>0.02</speed>
  <fix>3d</fix>
</trkpt>
<trkpt lat="40.0713749" lon="-105.229789">
  <ele>1583.0</ele>
  <time>2026-08-28T17:48:24Z</time>
  <course>0.0</course>
  <speed>0.0</speed>
  <fix>3d</fix>
</trkpt>
<trkpt lat="40.071375" lon="-105.229789">
  <ele>1583.01</ele>
  <time>2026-08-28T17:48:24Z</time>
  <course>247.43</course>
  <speed>0.02</speed>
  <fix>3d</fix>
</trkpt>
<trkpt lat="40.0713749" lon="-105.229789">
  <ele>1583.0</ele>
  <time>2026-08-28T17:48:24Z</time>
  <course>0.0</course>
  <speed>0.0</speed>
  <fix>3d</fix>
</trkpt>
<trkpt lat="40.071375" lon="-105.229789">
  <ele>1583.01</ele>
  <time>2026-08-28T17:48:24Z</time>
  <course>247.43</course>
  <speed>0.02</speed>
  <fix>3d</fix>
</trkpt>
<trkpt lat="40.0713749" lon="-105.229789">
  <ele>1583.0</ele>
  <time>2026-08-28T17:48:24Z</time>
  <course>0.0</course>
  <speed>0.0</speed>
  <fix>3d</fix>
</trkpt>
<trkpt lat="40.071375" lon="-105.229789">
  <ele>1583.01</ele>
  <time>2026-08-28T17:48:24Z</time>
  <course>247.43</course>
  <speed>0.02</speed>
  <fix>3d</fix>
</trkpt>
<trkpt lat="40.0713749" lon="-105.229789">
  <ele>1583.0</ele>
  <time>2026-08-28T17:48:24Z</time>
  <course>0.0</course>
  <speed>0.0</speed>
  <fix>3d</fix>
</trkpt>
<trkpt lat="40.071375" lon="-105.229789">
  <ele>1583.01</ele>
  <time>2026-08-28T17:48:24Z</time>
  <course>247.43</course>
  <speed>0.02</speed>
  <fix>3d</fix>
</trkpt>
<trkpt lat="40.0713749" lon="-105.229789">
  <ele>1583.0</ele>
  <time>2026-08-28T17:48:24Z</time>
  <course>0.0</course>
  <speed>0.0</speed>
  <fix>3d</fix>
</trkpt>
<trkpt lat="40.071375" lon="-105.229789">
  <ele>1583.01</ele>
  <time>2026-08-28T17:48:24Z</time>
  <course>247.42</course>
  <speed>0.02</speed>
  <fix>3d</fix>
</trkpt>
<trkpt lat="40.0713749" lon="-105.229789">
  <ele>1583.0</ele>
  <time>2026-08-28T17:48:24Z</time>
  <course>0.0</course>
  <speed>0.0</speed>
  <fix>3d</fix>
</trkpt>
<trkpt lat="40.071375" lon="-105.229789">
  <ele>1583.01</ele>
  <time>2026-08-28T17:48:24Z</time>
  <course>247.42</course>
  <speed>0.02</speed>
  <fix>3d</fix>
</trkpt>
<trkpt lat="40.0713749" lon="-105.229789">
  <ele>1583.0</ele>
  <time>2026-08-28T17:48:24Z</time>
  <course>0.0</course>
  <speed>0.0</speed>
  <fix>3d</fix>
</trkpt>
<trkpt lat="40.071375" lon="-105.229789">
  <ele>1583.02</ele>
  <time>2026-08-28T17:48:24Z</time>
  <course>247.42</course>
  <speed>0.02</speed>
  <fix>3d</fix>
</trkpt>
<trkpt lat="40.0713749" lon="-105.229789">
  <ele>1583.0</ele>
  <time>2026-08-28T17:48:24Z</time>
  <course>0.0</course>
  <speed>0.0</speed>
  <fix>3d</fix>
</trkpt>
<trkpt lat="40.071375" lon="-105.229789">
  <ele>1583.01</ele>
  <time>2026-08-28T17:48:24Z</time>
  <course>247.42</course>
  <speed>0.02</speed>
  <fix>3d</fix>
</trkpt>
<trkpt lat="40.0713749" lon="-105.229789">
  <ele>1583.0</ele>
  <time>2026-08-28T17:48:24Z</time>
  <course>0.0</course>
  <speed>0.0</speed>
  <fix>3d</fix>
</trkpt>
<trkpt lat="40.071375" lon="-105.229789">
  <ele>1583.01</ele>
  <time>2026-08-28T17:48:24Z</time>
  <course>247.42</course>
  <speed>0.02</speed>
  <fix>3d</fix>
</trkpt>
<trkpt lat="40.0713749" lon="-105.229789">
  <ele>1583.0</ele>
  <time>2026-08-28T17:48:24Z</time>
  <course>0.0</course>
  <speed>0.0</speed>
  <fix>3d</fix>
</trkpt>
<trkpt lat="40.071375" lon="-105.229789">
  <ele>1583.01</ele>
  <time>2026-08-28T17:48:24Z</time>
  <course>247.41</course>
  <speed>0.02</speed>
  <fix>3d</fix>
</trkpt>
<trkpt lat="40.0713749" lon="-105.229789">
  <ele>1583.0</ele>
  <time>2026-08-28T17:48:24Z</time>
  <course>0.0</course>
  <speed>0.0</speed>
  <fix>3d</fix>
</trkpt>
<trkpt lat="40.071375" lon="-105.229789">
  <ele>1583.01</ele>
  <time>2026-08-28T17:48:24Z</time>
  <course>247.41</course>
  <speed>0.02</speed>
  <fix>3d</fix>
</trkpt>
<trkpt lat="40.0713749" lon="-105.229789">
  <ele>1583.0</ele>
  <time>2026-08-28T17:48:24Z</time>
  <course>0.0</course>
  <speed>0.0</speed>
  <fix>3d</fix>
</trkpt>
<trkpt lat="40.071375" lon="-105.229789">
  <ele>1583.01</ele>
  <time>2026-08-28T17:48:24Z</time>
  <course>247.41</course>
  <speed>0.02</speed>
  <fix>3d</fix>
</trkpt>
<trkpt lat="40.0713749" lon="-105.229789">
  <ele>1583.0</ele>
  <time>2026-08-28T17:48:24Z</time>
  <course>0.0</course>
  <speed>0.0</speed>
  <fix>3d</fix>
</trkpt>
<trkpt lat="40.071375" lon="-105.229789">
  <ele>1583.01</ele>
  <time>2026-08-28T17:48:24Z</time>
  <course>247.41</course>
  <speed>0.02</speed>
  <fix>3d</fix>
</trkpt>
<trkpt lat="40.0713749" lon="-105.229789">
  <ele>1583.0</ele>
  <time>2026-08-28T17:48:24Z</time>
  <course>0.0</course>
  <speed>0.0</speed>
  <fix>3d</fix>
</trkpt>
<trkpt lat="40.071375" lon="-105.229789">
  <ele>1583.02</ele>
  <time>2026-08-28T17:48:24Z</time>
  <course>247.41</course>
  <speed>0.02</speed>
  <fix>3d</fix>
</trkpt>
<trkpt lat="40.0713749" lon="-105.229789">
  <ele>1583.0</ele>
  <time>2026-08-28T17:48:24Z</time>
  <course>0.0</course>
  <speed>0.0</speed>
  <fix>3d</fix>
</trkpt>
<trkpt lat="40.071375" lon="-105.229789">
  <ele>1583.02</ele>
  <time>2026-08-28T17:48:24Z</time>
  <course>247.4</course>
  <speed>0.02</speed>
  <fix>3d</fix>
</trkpt>
<trkpt lat="40.0713749" lon="-105.229789">
  <ele>1583.0</ele>
  <time>2026-08-28T17:48:24Z</time>
  <course>0.0</course>
  <speed>0.0</speed>
  <fix>3d</fix>
</trkpt>
<trkpt lat="40.071375" lon="-105.229789">
  <ele>1583.02</ele>
  <time>2026-08-28T17:48:24Z</time>
  <course>247.4</course>
  <speed>0.02</speed>
  <fix>3d</fix>
</trkpt>
<trkpt lat="40.0713749" lon="-105.229789">
  <ele>1583.0</ele>
  <time>2026-08-28T17:48:24Z</time>
  <course>0.0</course>
  <speed>0.0</speed>
  <fix>3d</fix>
</trkpt>
<trkpt lat="40.071375" lon="-105.229789">
  <ele>1583.02</ele>
  <time>2026-08-28T17:48:24Z</time>
  <course>247.4</course>
  <speed>0.02</speed>
  <fix>3d</fix>
</trkpt>
<trkpt lat="40.0713749" lon="-105.229789">
  <ele>1583.0</ele>
  <time>2026-08-28T17:48:24Z</time>
  <course>0.0</course>
  <speed>0.0</speed>
  <fix>3d</fix>
</trkpt>
<trkpt lat="40.071375" lon="-105.229789">
  <ele>1583.02</ele>
  <time>2026-08-28T17:48:24Z</time>
  <course>247.4</course>
  <speed>0.02</speed>
  <fix>3d</fix>
</trkpt>
<trkpt lat="40.0713749" lon="-105.229789">
  <ele>1583.0</ele>
  <time>2026-08-28T17:48:24Z</time>
  <course>0.0</course>
  <speed>0.0</speed>
  <fix>3d</fix>
</trkpt>
<trkpt lat="40.071375" lon="-105.229789">
  <ele>1583.02</ele>
  <time>2026-08-28T17:48:24Z</time>
  <course>247.4</course>
  <speed>0.02</speed>
  <fix>3d</fix>
</trkpt>
<trkpt lat="40.0713749" lon="-105.229789">
  <ele>1583.0</ele>
  <time>2026-08-28T17:48:24Z</time>
  <course>0.0</course>
  <speed>0.0</speed>
  <fix>3d</fix>
</trkpt>
<trkpt lat="40.071375" lon="-105.229789">
  <ele>1583.02</ele>
  <time>2026-08-28T17:48:24Z</time>
  <course>247.39</course>
  <speed>0.02</speed>
  <fix>3d</fix>
</trkpt>
<trkpt lat="40.0713749" lon="-105.229789">
  <ele>1583.0</ele>
  <time>2026-08-28T17:48:24Z</time>
  <course>0.0</course>
  <speed>0.0</speed>
  <fix>3d</fix>
</trkpt>
<trkpt lat="40.071375" lon="-105.229789">
  <ele>1583.03</ele>
  <time>2026-08-28T17:48:24Z</time>
  <course>247.39</course>
  <speed>0.01</speed>
  <fix>3d</fix>
</trkpt>
<trkpt lat="40.0713749" lon="-105.229789">
  <ele>1583.0</ele>
  <time>2026-08-28T17:48:24Z</time>
  <course>0.0</course>
  <speed>0.0</speed>
  <fix>3d</fix>
</trkpt>
<trkpt lat="40.071375" lon="-105.229789">
  <ele>1583.03</ele>
  <time>2026-08-28T17:48:24Z</time>
  <course>247.39</course>
  <speed>0.02</speed>
  <fix>3d</fix>
</trkpt>
<trkpt lat="40.0713749" lon="-105.229789">
  <ele>1583.0</ele>
  <time>2026-08-28T17:48:24Z</time>
  <course>0.0</course>
  <speed>0.0</speed>
  <fix>3d</fix>
</trkpt>
<trkpt lat="40.071375" lon="-105.229789">
  <ele>1583.03</ele>
  <time>2026-08-28T17:48:24Z</time>
  <course>247.39</course>
  <speed>0.02</speed>
  <fix>3d</fix>
</trkpt>
<trkpt lat="40.0713749" lon="-105.229789">
  <ele>1583.0</ele>
  <time>2026-08-28T17:48:24Z</time>
  <course>0.0</course>
  <speed>0.0</speed>
  <fix>3d</fix>
</trkpt>
<trkpt lat="40.071375" lon="-105.229789">
  <ele>1583.03</ele>
  <time>2026-08-28T17:48:24Z</time>
  <course>247.39</course>
  <speed>0.02</speed>
  <fix>3d</fix>
</trkpt>
<trkpt lat="40.0713749" lon="-105.229789">
  <ele>1583.0</ele>
  <time>2026-08-28T17:48:24Z</time>
  <course>0.0</course>
  <speed>0.0</speed>
  <fix>3d</fix>
</trkpt>
<trkpt lat="40.071375" lon="-105.229789">
  <ele>1583.04</ele>
  <time>2026-08-28T17:48:24Z</time>
  <course>247.38</course>
  <speed>0.02</speed>
  <fix>3d</fix>
</trkpt>
<trkpt lat="40.0713749" lon="-105.229789">
  <ele>1583.0</ele>
  <time>2026-08-28T17:48:24Z</time>
  <course>0.0</course>
  <speed>0.0</speed>
  <fix>3d</fix>
</trkpt>
<trkpt lat="40.071375" lon="-105.229789">
  <ele>1583.04</ele>
  <time>2026-08-28T17:48:25Z</time>
  <course>247.38</course>
  <speed>0.02</speed>
  <fix>3d</fix>
</trkpt>
<trkpt lat="40.0713749" lon="-105.229789">
  <ele>1583.0</ele>
  <time>2026-08-28T17:48:25Z</time>
  <course>0.0</course>
  <speed>0.0</speed>
  <fix>3d</fix>
</trkpt>
<trkpt lat="40.071375" lon="-105.229789">
  <ele>1583.05</ele>
  <time>2026-08-28T17:48:25Z</time>
  <course>247.38</course>
  <speed>0.02</speed>
  <fix>3d</fix>
</trkpt>
<trkpt lat="40.0713749" lon="-105.229789">
  <ele>1583.0</ele>
  <time>2026-08-28T17:48:25Z</time>
  <course>0.0</course>
  <speed>0.0</speed>
  <fix>3d</fix>
</trkpt>
<trkpt lat="40.071375" lon="-105.229789">
  <ele>1583.05</ele>
  <time>2026-08-28T17:48:25Z</time>
  <course>247.38</course>
  <speed>0.02</speed>
  <fix>3d</fix>
</trkpt>
<trkpt lat="40.0713749" lon="-105.229789">
  <ele>1583.0</ele>
  <time>2026-08-28T17:48:25Z</time>
  <course>0.0</course>
  <speed>0.0</speed>
  <fix>3d</fix>
</trkpt>
<trkpt lat="40.071375" lon="-105.229789">
  <ele>1583.05</ele>
  <time>2026-08-28T17:48:25Z</time>
  <course>247.38</course>
  <speed>0.02</speed>
  <fix>3d</fix>
</trkpt>
<trkpt lat="40.0713749" lon="-105.229789">
  <ele>1583.0</ele>
  <time>2026-08-28T17:48:25Z</time>
  <course>0.0</course>
  <speed>0.0</speed>
  <fix>3d</fix>
</trkpt>
<trkpt lat="40.071375" lon="-105.229789">
  <ele>1583.05</ele>
  <time>2026-08-28T17:48:25Z</time>
  <course>247.38</course>
  <speed>0.02</speed>
  <fix>3d</fix>
</trkpt>
<trkpt lat="40.0713749" lon="-105.229789">
  <ele>1583.0</ele>
  <time>2026-08-28T17:48:25Z</time>
  <course>0.0</course>
  <speed>0.0</speed>
  <fix>3d</fix>
</trkpt>
<trkpt lat="40.071375" lon="-105.229789">
  <ele>1583.05</ele>
  <time>2026-08-28T17:48:25Z</time>
  <course>247.37</course>
  <speed>0.02</speed>
  <fix>3d</fix>
</trkpt>
<trkpt lat="40.0713749" lon="-105.229789">
  <ele>1583.0</ele>
  <time>2026-08-28T17:48:25Z</time>
  <course>0.0</course>
  <speed>0.0</speed>
  <fix>3d</fix>
</trkpt>
<trkpt lat="40.071375" lon="-105.229789">
  <ele>1583.06</ele>
  <time>2026-08-28T17:48:25Z</time>
  <course>247.37</course>
  <speed>0.02</speed>
  <fix>3d</fix>
</trkpt>
<trkpt lat="40.0713749" lon="-105.229789">
  <ele>1583.0</ele>
  <time>2026-08-28T17:48:25Z</time>
  <course>0.0</course>
  <speed>0.0</speed>
  <fix>3d</fix>
</trkpt>
<trkpt lat="40.071375" lon="-105.229789">
  <ele>1583.06</ele>
  <time>2026-08-28T17:48:25Z</time>
  <course>247.37</course>
  <speed>0.02</speed>
  <fix>3d</fix>
</trkpt>
<trkpt lat="40.0713749" lon="-105.229789">
  <ele>1583.0</ele>
  <time>2026-08-28T17:48:25Z</time>
  <course>0.0</course>
  <speed>0.0</speed>
  <fix>3d</fix>
</trkpt>
<trkpt lat="40.071375" lon="-105.229789">
  <ele>1583.06</ele>
  <time>2026-08-28T17:48:25Z</time>
  <course>247.37</course>
  <speed>0.02</speed>
  <fix>3d</fix>
</trkpt>
<trkpt lat="40.0713749" lon="-105.229789">
  <ele>1583.0</ele>
  <time>2026-08-28T17:48:25Z</time>
  <course>0.0</course>
  <speed>0.0</speed>
  <fix>3d</fix>
</trkpt>
<trkpt lat="40.071375" lon="-105.229789">
  <ele>1583.06</ele>
  <time>2026-08-28T17:48:25Z</time>
  <course>247.37</course>
  <speed>0.02</speed>
  <fix>3d</fix>
</trkpt>
<trkpt lat="40.0713749" lon="-105.229789">
  <ele>1583.0</ele>
  <time>2026-08-28T17:48:25Z</time>
  <course>0.0</course>
  <speed>0.0</speed>
  <fix>3d</fix>
</trkpt>
<trkpt lat="40.071375" lon="-105.229789">
  <ele>1583.06</ele>
  <time>2026-08-28T17:48:25Z</time>
  <course>247.36</course>
  <speed>0.02</speed>
  <fix>3d</fix>
</trkpt>
<trkpt lat="40.0713749" lon="-105.229789">
  <ele>1583.0</ele>
  <time>2026-08-28T17:48:25Z</time>
  <course>0.0</course>
  <speed>0.0</speed>
  <fix>3d</fix>
</trkpt>
<trkpt lat="40.071375" lon="-105.229789">
  <ele>1583.06</ele>
  <time>2026-08-28T17:48:25Z</time>
  <course>247.36</course>
  <speed>0.02</speed>
  <fix>3d</fix>
</trkpt>
<trkpt lat="40.0713749" lon="-105.229789">
  <ele>1583.0</ele>
  <time>2026-08-28T17:48:25Z</time>
  <course>0.0</course>
  <speed>0.0</speed>
  <fix>3d</fix>
</trkpt>
<trkpt lat="40.071375" lon="-105.229789">
  <ele>1583.06</ele>
  <time>2026-08-28T17:48:25Z</time>
  <course>247.36</course>
  <speed>0.02</speed>
  <fix>3d</fix>
</trkpt>
<trkpt lat="40.0713749" lon="-105.229789">
  <ele>1583.0</ele>
  <time>2026-08-28T17:48:25Z</time>
  <course>0.0</course>
  <speed>0.0</speed>
  <fix>3d</fix>
</trkpt>
<trkpt lat="40.071375" lon="-105.229789">
  <ele>1583.06</ele>
  <time>2026-08-28T17:48:25Z</time>
  <course>247.36</course>
  <speed>0.02</speed>
  <fix>3d</fix>
</trkpt>
<trkpt lat="40.0713749" lon="-105.229789">
  <ele>1583.0</ele>
  <time>2026-08-28T17:48:25Z</time>
  <course>0.0</course>
  <speed>0.0</speed>
  <fix>3d</fix>
</trkpt>
<trkpt lat="40.071375" lon="-105.229789">
  <ele>1583.06</ele>
  <time>2026-08-28T17:48:25Z</time>
  <course>247.36</course>
  <speed>0.02</speed>
  <fix>3d</fix>
</trkpt>
<trkpt lat="40.0713749" lon="-105.229789">
  <ele>1583.0</ele>
  <time>2026-08-28T17:48:25Z</time>
  <course>0.0</course>
  <speed>0.0</speed>
  <fix>3d</fix>
</trkpt>
<trkpt lat="40.071375" lon="-105.229789">
  <ele>1583.06</ele>
  <time>2026-08-28T17:48:25Z</time>
  <course>247.36</course>
  <speed>0.02</speed>
  <fix>3d</fix>
</trkpt>
<trkpt lat="40.0713749" lon="-105.229789">
  <ele>1583.0</ele>
  <time>2026-08-28T17:48:25Z</time>
  <course>0.0</course>
  <speed>0.0</speed>
  <fix>3d</fix>
</trkpt>
<trkpt lat="40.071375" lon="-105.229789">
  <ele>1583.05</ele>
  <time>2026-08-28T17:48:25Z</time>
  <course>247.35</course>
  <speed>0.02</speed>
  <fix>3d</fix>
</trkpt>
<trkpt lat="40.0713749" lon="-105.229789">
  <ele>1583.0</ele>
  <time>2026-08-28T17:48:25Z</time>
  <course>0.0</course>
  <speed>0.0</speed>
  <fix>3d</fix>
</trkpt>
<trkpt lat="40.071375" lon="-105.229789">
  <ele>1583.05</ele>
  <time>2026-08-28T17:48:25Z</time>
  <course>247.35</course>
  <speed>0.02</speed>
  <fix>3d</fix>
</trkpt>
<trkpt lat="40.0713749" lon="-105.229789">
  <ele>1583.0</ele>
  <time>2026-08-28T17:48:25Z</time>
  <course>0.0</course>
  <speed>0.0</speed>
  <fix>3d</fix>
</trkpt>
<trkpt lat="40.071375" lon="-105.229789">
  <ele>1583.04</ele>
  <time>2026-08-28T17:48:25Z</time>
  <course>247.35</course>
  <speed>0.02</speed>
  <fix>3d</fix>
</trkpt>
<trkpt lat="40.0713749" lon="-105.229789">
  <ele>1583.0</ele>
  <time>2026-08-28T17:48:25Z</time>
  <course>0.0</course>
  <speed>0.0</speed>
  <fix>3d</fix>
</trkpt>
<trkpt lat="40.071375" lon="-105.229789">
  <ele>1583.04</ele>
  <time>2026-08-28T17:48:25Z</time>
  <course>247.35</course>
  <speed>0.02</speed>
  <fix>3d</fix>
</trkpt>
<trkpt lat="40.0713749" lon="-105.229789">
  <ele>1583.0</ele>
  <time>2026-08-28T17:48:25Z</time>
  <course>0.0</course>
  <speed>0.0</speed>
  <fix>3d</fix>
</trkpt>
<trkpt lat="40.071375" lon="-105.229789">
  <ele>1583.04</ele>
  <time>2026-08-28T17:48:25Z</time>
  <course>247.35</course>
  <speed>0.02</speed>
  <fix>3d</fix>
</trkpt>
<trkpt lat="40.0713749" lon="-105.229789">
  <ele>1583.0</ele>
  <time>2026-08-28T17:48:25Z</time>
  <course>0.0</course>
  <speed>0.0</speed>
  <fix>3d</fix>
</trkpt>
<trkpt lat="40.071375" lon="-105.229789">
  <ele>1583.03</ele>
  <time>2026-08-28T17:48:25Z</time>
  <course>247.35</course>
  <speed>0.02</speed>
  <fix>3d</fix>
</trkpt>
<trkpt lat="40.0713749" lon="-105.229789">
  <ele>1583.0</ele>
  <time>2026-08-28T17:48:25Z</time>
  <course>0.0</course>
  <speed>0.0</speed>
  <fix>3d</fix>
</trkpt>
<trkpt lat="40.071375" lon="-105.229789">
  <ele>1583.03</ele>
  <time>2026-08-28T17:48:25Z</time>
  <course>247.34</course>
  <speed>0.02</speed>
  <fix>3d</fix>
</trkpt>
<trkpt lat="40.0713749" lon="-105.229789">
  <ele>1583.0</ele>
  <time>2026-08-28T17:48:25Z</time>
  <course>0.0</course>
  <speed>0.0</speed>
  <fix>3d</fix>
</trkpt>
<trkpt lat="40.071375" lon="-105.229789">
  <ele>1583.02</ele>
  <time>2026-08-28T17:48:25Z</time>
  <course>247.34</course>
  <speed>0.02</speed>
  <fix>3d</fix>
</trkpt>
<trkpt lat="40.0713749" lon="-105.229789">
  <ele>1583.0</ele>
  <time>2026-08-28T17:48:25Z</time>
  <course>0.0</course>
  <speed>0.0</speed>
  <fix>3d</fix>
</trkpt>
<trkpt lat="40.071375" lon="-105.229789">
  <ele>1583.02</ele>
  <time>2026-08-28T17:48:25Z</time>
  <course>247.34</course>
  <speed>0.02</speed>
  <fix>3d</fix>
</trkpt>
<trkpt lat="40.0713749" lon="-105.229789">
  <ele>1583.0</ele>
  <time>2026-08-28T17:48:25Z</time>
  <course>0.0</course>
  <speed>0.0</speed>
  <fix>3d</fix>
</trkpt>
<trkpt lat="40.071375" lon="-105.229789">
  <ele>1583.02</ele>
  <time>2026-08-28T17:48:25Z</time>
  <course>247.34</course>
  <speed>0.02</speed>
  <fix>3d</fix>
</trkpt>
<trkpt lat="40.0713749" lon="-105.229789">
  <ele>1583.0</ele>
  <time>2026-08-28T17:48:25Z</time>
  <course>0.0</course>
  <speed>0.0</speed>
  <fix>3d</fix>
</trkpt>
<trkpt lat="40.071375" lon="-105.229789">
  <ele>1583.02</ele>
  <time>2026-08-28T17:48:25Z</time>
  <course>247.34</course>
  <speed>0.02</speed>
  <fix>3d</fix>
</trkpt>
<trkpt lat="40.0713749" lon="-105.229789">
  <ele>1583.0</ele>
  <time>2026-08-28T17:48:25Z</time>
  <course>0.0</course>
  <speed>0.0</speed>
  <fix>3d</fix>
</trkpt>
<trkpt lat="40.071375" lon="-105.229789">
  <ele>1583.01</ele>
  <time>2026-08-28T17:48:25Z</time>
  <course>247.34</course>
  <speed>0.02</speed>
  <fix>3d</fix>
</trkpt>
<trkpt lat="40.0713749" lon="-105.229789">
  <ele>1583.0</ele>
  <time>2026-08-28T17:48:25Z</time>
  <course>0.0</course>
  <speed>0.0</speed>
  <fix>3d</fix>
</trkpt>
<trkpt lat="40.071375" lon="-105.229789">
  <ele>1583.01</ele>
  <time>2026-08-28T17:48:25Z</time>
  <course>247.33</course>
  <speed>0.02</speed>
  <fix>3d</fix>
</trkpt>
<trkpt lat="40.0713749" lon="-105.229789">
  <ele>1583.0</ele>
  <time>2026-08-28T17:48:25Z</time>
  <course>0.0</course>
  <speed>0.0</speed>
  <fix>3d</fix>
</trkpt>
<trkpt lat="40.071375" lon="-105.229789">
  <ele>1583.01</ele>
  <time>2026-08-28T17:48:25Z</time>
  <course>247.33</course>
  <speed>0.02</speed>
  <fix>3d</fix>
</trkpt>
<trkpt lat="40.0713749" lon="-105.229789">
  <ele>1583.0</ele>
  <time>2026-08-28T17:48:25Z</time>
  <course>0.0</course>
  <speed>0.0</speed>
  <fix>3d</fix>
</trkpt>
<trkpt lat="40.071375" lon="-105.229789">
  <ele>1583.01</ele>
  <time>2026-08-28T17:48:25Z</time>
  <course>247.33</course>
  <speed>0.02</speed>
  <fix>3d</fix>
</trkpt>
<trkpt lat="40.0713749" lon="-105.229789">
  <ele>1583.0</ele>
  <time>2026-08-28T17:48:25Z</time>
  <course>0.0</course>
  <speed>0.0</speed>
  <fix>3d</fix>
</trkpt>
<trkpt lat="40.071375" lon="-105.229789">
  <ele>1583.01</ele>
  <time>2026-08-28T17:48:25Z</time>
  <course>247.33</course>
  <speed>0.02</speed>
  <fix>3d</fix>
</trkpt>
<trkpt lat="40.0713749" lon="-105.229789">
  <ele>1583.0</ele>
  <time>2026-08-28T17:48:25Z</time>
  <course>0.0</course>
  <speed>0.0</speed>
  <fix>3d</fix>
</trkpt>
<trkpt lat="40.071375" lon="-105.229789">
  <ele>1583.01</ele>
  <time>2026-08-28T17:48:25Z</time>
  <course>247.33</course>
  <speed>0.02</speed>
  <fix>3d</fix>
</trkpt>
<trkpt lat="40.0713749" lon="-105.229789">
  <ele>1583.0</ele>
  <time>2026-08-28T17:48:25Z</time>
  <course>0.0</course>
  <speed>0.0</speed>
  <fix>3d</fix>
</trkpt>
<trkpt lat="40.071375" lon="-105.229789">
  <ele>1583.01</ele>
  <time>2026-08-28T17:48:25Z</time>
  <course>247.33</course>
  <speed>0.02</speed>
  <fix>3d</fix>
</trkpt>
<trkpt lat="40.0713749" lon="-105.229789">
  <ele>1583.0</ele>
  <time>2026-08-28T17:48:25Z</time>
  <course>0.0</course>
  <speed>0.0</speed>
  <fix>3d</fix>
</trkpt>
<trkpt lat="40.071375" lon="-105.229789">
  <ele>1583.01</ele>
  <time>2026-08-28T17:48:25Z</time>
  <course>247.33</course>
  <speed>0.02</speed>
  <fix>3d</fix>
</trkpt>
<trkpt lat="40.0713749" lon="-105.229789">
  <ele>1583.0</ele>
  <time>2026-08-28T17:48:25Z</time>
  <course>0.0</course>
  <speed>0.0</speed>
  <fix>3d</fix>
</trkpt>
<trkpt lat="40.071375" lon="-105.229789">
  <ele>1583.01</ele>
  <time>2026-08-28T17:48:25Z</time>
  <course>247.32</course>
  <speed>0.02</speed>
  <fix>3d</fix>
</trkpt>
<trkpt lat="40.0713749" lon="-105.229789">
  <ele>1583.0</ele>
  <time>2026-08-28T17:48:25Z</time>
  <course>0.0</course>
  <speed>0.0</speed>
  <fix>3d</fix>
</trkpt>
<trkpt lat="40.071375" lon="-105.229789">
  <ele>1583.0</ele>
  <time>2026-08-28T17:48:25Z</time>
  <course>247.32</course>
  <speed>0.02</speed>
  <fix>3d</fix>
</trkpt>
<trkpt lat="40.0713749" lon="-105.229789">
  <ele>1583.0</ele>
  <time>2026-08-28T17:48:25Z</time>
  <course>0.0</course>
  <speed>0.0</speed>
  <fix>3d</fix>
</trkpt>
<trkpt lat="40.071375" lon="-105.229789">
  <ele>1583.0</ele>
  <time>2026-08-28T17:48:25Z</time>
  <course>247.32</course>
  <speed>0.02</speed>
  <fix>3d</fix>
</trkpt>
<trkpt lat="40.0713749" lon="-105.229789">
  <ele>1583.0</ele>
  <time>2026-08-28T17:48:25Z</time>
  <course>0.0</course>
  <speed>0.0</speed>
  <fix>3d</fix>
</trkpt>
<trkpt lat="40.071375" lon="-105.229789">
  <ele>1583.0</ele>
  <time>2026-08-28T17:48:25Z</time>
  <course>247.32</course>
  <speed>0.02</speed>
  <fix>3d</fix>
</trkpt>
<trkpt lat="40.0713749" lon="-105.229789">
  <ele>1583.0</ele>
  <time>2026-08-28T17:48:25Z</time>
  <course>0.0</course>
  <speed>0.0</speed>
  <fix>3d</fix>
</trkpt>
<trkpt lat="40.071375" lon="-105.229789">
  <ele>1582.99</ele>
  <time>2026-08-28T17:48:25Z</time>
  <course>247.32</course>
  <speed>0.02</speed>
  <fix>3d</fix>
</trkpt>
<trkpt lat="40.0713749" lon="-105.229789">
  <ele>1583.0</ele>
  <time>2026-08-28T17:48:25Z</time>
  <course>0.0</course>
  <speed>0.0</speed>
  <fix>3d</fix>
</trkpt>
<trkpt lat="40.071375" lon="-105.229789">
  <ele>1582.99</ele>
  <time>2026-08-28T17:48:25Z</time>
  <course>247.32</course>
  <speed>0.02</speed>
  <fix>3d</fix>
</trkpt>
<trkpt lat="40.0713749" lon="-105.229789">
  <ele>1583.0</ele>
  <time>2026-08-28T17:48:25Z</time>
  <course>0.0</course>
  <speed>0.0</speed>
  <fix>3d</fix>
</trkpt>
<trkpt lat="40.071375" lon="-105.229789">
  <ele>1582.98</ele>
  <time>2026-08-28T17:48:25Z</time>
  <course>247.31</course>
  <speed>0.02</speed>
  <fix>3d</fix>
</trkpt>
<trkpt lat="40.0713749" lon="-105.229789">
  <ele>1583.0</ele>
  <time>2026-08-28T17:48:25Z</time>
  <course>0.0</course>
  <speed>0.0</speed>
  <fix>3d</fix>
</trkpt>
<trkpt lat="40.071375" lon="-105.229789">
  <ele>1582.97</ele>
  <time>2026-08-28T17:48:25Z</time>
  <course>247.31</course>
  <speed>0.02</speed>
  <fix>3d</fix>
</trkpt>
<trkpt lat="40.0713749" lon="-105.229789">
  <ele>1583.0</ele>
  <time>2026-08-28T17:48:25Z</time>
  <course>0.0</course>
  <speed>0.0</speed>
  <fix>3d</fix>
</trkpt>
<trkpt lat="40.071375" lon="-105.229789">
  <ele>1582.97</ele>
  <time>2026-08-28T17:48:25Z</time>
  <course>247.31</course>
  <speed>0.02</speed>
  <fix>3d</fix>
</trkpt>
<trkpt lat="40.0713749" lon="-105.229789">
  <ele>1583.0</ele>
  <time>2026-08-28T17:48:25Z</time>
  <course>0.0</course>
  <speed>0.0</speed>
  <fix>3d</fix>
</trkpt>
<trkpt lat="40.071375" lon="-105.229789">
  <ele>1582.96</ele>
  <time>2026-08-28T17:48:25Z</time>
  <course>247.31</course>
  <speed>0.02</speed>
  <fix>3d</fix>
</trkpt>
<trkpt lat="40.0713749" lon="-105.229789">
  <ele>1583.0</ele>
  <time>2026-08-28T17:48:25Z</time>
  <course>0.0</course>
  <speed>0.0</speed>
  <fix>3d</fix>
</trkpt>
<trkpt lat="40.071375" lon="-105.229789">
  <ele>1582.96</ele>
  <time>2026-08-28T17:48:25Z</time>
  <course>247.31</course>
  <speed>0.02</speed>
  <fix>3d</fix>
</trkpt>
<trkpt lat="40.0713749" lon="-105.229789">
  <ele>1583.0</ele>
  <time>2026-08-28T17:48:25Z</time>
  <course>0.0</course>
  <speed>0.0</speed>
  <fix>3d</fix>
</trkpt>
<trkpt lat="40.071375" lon="-105.229789">
  <ele>1582.95</ele>
  <time>2026-08-28T17:48:25Z</time>
  <course>247.31</course>
  <speed>0.02</speed>
  <fix>3d</fix>
</trkpt>
<trkpt lat="40.0713749" lon="-105.229789">
  <ele>1583.0</ele>
  <time>2026-08-28T17:48:25Z</time>
  <course>0.0</course>
  <speed>0.0</speed>
  <fix>3d</fix>
</trkpt>
<trkpt lat="40.071375" lon="-105.229789">
  <ele>1582.95</ele>
  <time>2026-08-28T17:48:25Z</time>
  <course>247.3</course>
  <speed>0.02</speed>
  <fix>3d</fix>
</trkpt>
<trkpt lat="40.0713749" lon="-105.229789">
  <ele>1583.0</ele>
  <time>2026-08-28T17:48:25Z</time>
  <course>0.0</course>
  <speed>0.0</speed>
  <fix>3d</fix>
</trkpt>
<trkpt lat="40.071375" lon="-105.229789">
  <ele>1582.94</ele>
  <time>2026-08-28T17:48:25Z</time>
  <course>247.3</course>
  <speed>0.02</speed>
  <fix>3d</fix>
</trkpt>
<trkpt lat="40.0713749" lon="-105.229789">
  <ele>1583.0</ele>
  <time>2026-08-28T17:48:25Z</time>
  <course>0.0</course>
  <speed>0.0</speed>
  <fix>3d</fix>
</trkpt>
<trkpt lat="40.071375" lon="-105.229789">
  <ele>1582.93</ele>
  <time>2026-08-28T17:48:25Z</time>
  <course>247.3</course>
  <speed>0.02</speed>
  <fix>3d</fix>
</trkpt>
<trkpt lat="40.0713749" lon="-105.229789">
  <ele>1583.0</ele>
  <time>2026-08-28T17:48:25Z</time>
  <course>0.0</course>
  <speed>0.0</speed>
  <fix>3d</fix>
</trkpt>
<trkpt lat="40.071375" lon="-105.229789">
  <ele>1582.93</ele>
  <time>2026-08-28T17:48:25Z</time>
  <course>247.3</course>
  <speed>0.02</speed>
  <fix>3d</fix>
</trkpt>
<trkpt lat="40.0713749" lon="-105.229789">
  <ele>1583.0</ele>
  <time>2026-08-28T17:48:25Z</time>
  <course>0.0</course>
  <speed>0.0</speed>
  <fix>3d</fix>
</trkpt>
<trkpt lat="40.071375" lon="-105.229789">
  <ele>1582.92</ele>
  <time>2026-08-28T17:48:25Z</time>
  <course>247.3</course>
  <speed>0.02</speed>
  <fix>3d</fix>
</trkpt>
<trkpt lat="40.0713749" lon="-105.229789">
  <ele>1583.0</ele>
  <time>2026-08-28T17:48:25Z</time>
  <course>0.0</course>
  <speed>0.0</speed>
  <fix>3d</fix>
</trkpt>
<trkpt lat="40.071375" lon="-105.229789">
  <ele>1582.92</ele>
  <time>2026-08-28T17:48:25Z</time>
  <course>247.3</course>
  <speed>0.02</speed>
  <fix>3d</fix>
</trkpt>
<trkpt lat="40.0713749" lon="-105.229789">
  <ele>1583.0</ele>
  <time>2026-08-28T17:48:25Z</time>
  <course>0.0</course>
  <speed>0.0</speed>
  <fix>3d</fix>
</trkpt>
<trkpt lat="40.071375" lon="-105.229789">
  <ele>1582.91</ele>
  <time>2026-08-28T17:48:25Z</time>
  <course>247.3</course>
  <speed>0.02</speed>
  <fix>3d</fix>
</trkpt>
<trkpt lat="40.0713749" lon="-105.229789">
  <ele>1583.0</ele>
  <time>2026-08-28T17:48:25Z</time>
  <course>0.0</course>
  <speed>0.0</speed>
  <fix>3d</fix>
</trkpt>
<trkpt lat="40.071375" lon="-105.229789">
  <ele>1582.91</ele>
  <time>2026-08-28T17:48:25Z</time>
  <course>247.3</course>
  <speed>0.02</speed>
  <fix>3d</fix>
</trkpt>
<trkpt lat="40.0713749" lon="-105.229789">
  <ele>1583.0</ele>
  <time>2026-08-28T17:48:25Z</time>
  <course>0.0</course>
  <speed>0.0</speed>
  <fix>3d</fix>
</trkpt>
<trkpt lat="40.071375" lon="-105.229789">
  <ele>1582.91</ele>
  <time>2026-08-28T17:48:25Z</time>
  <course>247.29</course>
  <speed>0.02</speed>
  <fix>3d</fix>
</trkpt>
<trkpt lat="40.0713749" lon="-105.229789">
  <ele>1583.0</ele>
  <time>2026-08-28T17:48:25Z</time>
  <course>0.0</course>
  <speed>0.0</speed>
  <fix>3d</fix>
</trkpt>
<trkpt lat="40.071375" lon="-105.229789">
  <ele>1582.91</ele>
  <time>2026-08-28T17:48:25Z</time>
  <course>247.29</course>
  <speed>0.02</speed>
  <fix>3d</fix>
</trkpt>
<trkpt lat="40.0713749" lon="-105.229789">
  <ele>1583.0</ele>
  <time>2026-08-28T17:48:25Z</time>
  <course>0.0</course>
  <speed>0.0</speed>
  <fix>3d</fix>
</trkpt>
<trkpt lat="40.071375" lon="-105.229789">
  <ele>1582.91</ele>
  <time>2026-08-28T17:48:25Z</time>
  <course>247.29</course>
  <speed>0.02</speed>
  <fix>3d</fix>
</trkpt>
<trkpt lat="40.0713749" lon="-105.229789">
  <ele>1583.0</ele>
  <time>2026-08-28T17:48:25Z</time>
  <course>0.0</course>
  <speed>0.0</speed>
  <fix>3d</fix>
</trkpt>
<trkpt lat="40.071375" lon="-105.229789">
  <ele>1582.91</ele>
  <time>2026-08-28T17:48:25Z</time>
  <course>247.29</course>
  <speed>0.02</speed>
  <fix>3d</fix>
</trkpt>
<trkpt lat="40.0713749" lon="-105.229789">
  <ele>1583.0</ele>
  <time>2026-08-28T17:48:25Z</time>
  <course>0.0</course>
  <speed>0.0</speed>
  <fix>3d</fix>
</trkpt>
<trkpt lat="40.071375" lon="-105.229789">
  <ele>1582.9</ele>
  <time>2026-08-28T17:48:25Z</time>
  <course>247.29</course>
  <speed>0.02</speed>
  <fix>3d</fix>
</trkpt>
<trkpt lat="40.0713749" lon="-105.229789">
  <ele>1583.0</ele>
  <time>2026-08-28T17:48:25Z</time>
  <course>0.0</course>
  <speed>0.0</speed>
  <fix>3d</fix>
</trkpt>
<trkpt lat="40.071375" lon="-105.229789">
  <ele>1582.9</ele>
  <time>2026-08-28T17:48:25Z</time>
  <course>247.29</course>
  <speed>0.02</speed>
  <fix>3d</fix>
</trkpt>
<trkpt lat="40.0713749" lon="-105.229789">
  <ele>1583.0</ele>
  <time>2026-08-28T17:48:25Z</time>
  <course>0.0</course>
  <speed>0.0</speed>
  <fix>3d</fix>
</trkpt>
<trkpt lat="40.071375" lon="-105.229789">
  <ele>1582.9</ele>
  <time>2026-08-28T17:48:25Z</time>
  <course>247.29</course>
  <speed>0.02</speed>
  <fix>3d</fix>
</trkpt>
<trkpt lat="40.0713749" lon="-105.229789">
  <ele>1583.0</ele>
  <time>2026-08-28T17:48:25Z</time>
  <course>0.0</course>
  <speed>0.0</speed>
  <fix>3d</fix>
</trkpt>
<trkpt lat="40.071375" lon="-105.229789">
  <ele>1582.9</ele>
  <time>2026-08-28T17:48:25Z</time>
  <course>247.28</course>
  <speed>0.02</speed>
  <fix>3d</fix>
</trkpt>
<trkpt lat="40.0713749" lon="-105.229789">
  <ele>1583.0</ele>
  <time>2026-08-28T17:48:25Z</time>
  <course>0.0</course>
  <speed>0.0</speed>
  <fix>3d</fix>
</trkpt>
<trkpt lat="40.071375" lon="-105.229789">
  <ele>1582.89</ele>
  <time>2026-08-28T17:48:25Z</time>
  <course>247.28</course>
  <speed>0.02</speed>
  <fix>3d</fix>
</trkpt>
<trkpt lat="40.0713749" lon="-105.229789">
  <ele>1583.0</ele>
  <time>2026-08-28T17:48:25Z</time>
  <course>0.0</course>
  <speed>0.0</speed>
  <fix>3d</fix>
</trkpt>
<trkpt lat="40.071375" lon="-105.229789">
  <ele>1582.9</ele>
  <time>2026-08-28T17:48:25Z</time>
  <course>247.28</course>
  <speed>0.02</speed>
  <fix>3d</fix>
</trkpt>
<trkpt lat="40.0713749" lon="-105.229789">
  <ele>1583.0</ele>
  <time>2026-08-28T17:48:25Z</time>
  <course>0.0</course>
  <speed>0.0</speed>
  <fix>3d</fix>
</trkpt>
<trkpt lat="40.071375" lon="-105.229789">
  <ele>1582.9</ele>
  <time>2026-08-28T17:48:25Z</time>
  <course>247.28</course>
  <speed>0.02</speed>
  <fix>3d</fix>
</trkpt>
<trkpt lat="40.0713749" lon="-105.229789">
  <ele>1583.0</ele>
  <time>2026-08-28T17:48:25Z</time>
  <course>0.0</course>
  <speed>0.0</speed>
  <fix>3d</fix>
</trkpt>
<trkpt lat="40.071375" lon="-105.229789">
  <ele>1582.9</ele>
  <time>2026-08-28T17:48:25Z</time>
  <course>247.28</course>
  <speed>0.02</speed>
  <fix>3d</fix>
</trkpt>
<trkpt lat="40.0713749" lon="-105.229789">
  <ele>1583.0</ele>
  <time>2026-08-28T17:48:25Z</time>
  <course>0.0</course>
  <speed>0.0</speed>
  <fix>3d</fix>
</trkpt>
<trkpt lat="40.071375" lon="-105.229789">
  <ele>1582.91</ele>
  <time>2026-08-28T17:48:25Z</time>
  <course>247.28</course>
  <speed>0.02</speed>
  <fix>3d</fix>
</trkpt>
<trkpt lat="40.0713749" lon="-105.229789">
  <ele>1583.0</ele>
  <time>2026-08-28T17:48:25Z</time>
  <course>0.0</course>
  <speed>0.0</speed>
  <fix>3d</fix>
</trkpt>
<trkpt lat="40.071375" lon="-105.2297889">
  <ele>1582.92</ele>
  <time>2026-08-28T17:48:25Z</time>
  <course>247.28</course>
  <speed>0.02</speed>
  <fix>3d</fix>
</trkpt>
<trkpt lat="40.0713749" lon="-105.229789">
  <ele>1583.0</ele>
  <time>2026-08-28T17:48:25Z</time>
  <course>0.0</course>
  <speed>0.0</speed>
  <fix>3d</fix>
</trkpt>
<trkpt lat="40.071375" lon="-105.2297889">
  <ele>1582.93</ele>
  <time>2026-08-28T17:48:25Z</time>
  <course>247.27</course>
  <speed>0.02</speed>
  <fix>3d</fix>
</trkpt>
<trkpt lat="40.0713749" lon="-105.229789">
  <ele>1583.0</ele>
  <time>2026-08-28T17:48:25Z</time>
  <course>0.0</course>
  <speed>0.0</speed>
  <fix>3d</fix>
</trkpt>
<trkpt lat="40.071375" lon="-105.2297889">
  <ele>1582.93</ele>
  <time>2026-08-28T17:48:25Z</time>
  <course>247.27</course>
  <speed>0.02</speed>
  <fix>3d</fix>
</trkpt>
<trkpt lat="40.0713749" lon="-105.229789">
  <ele>1583.0</ele>
  <time>2026-08-28T17:48:25Z</time>
  <course>0.0</course>
  <speed>0.0</speed>
  <fix>3d</fix>
</trkpt>
<trkpt lat="40.071375" lon="-105.2297889">
  <ele>1582.94</ele>
  <time>2026-08-28T17:48:25Z</time>
  <course>247.27</course>
  <speed>0.02</speed>
  <fix>3d</fix>
</trkpt>
<trkpt lat="40.0713749" lon="-105.229789">
  <ele>1583.0</ele>
  <time>2026-08-28T17:48:25Z</time>
  <course>0.0</course>
  <speed>0.0</speed>
  <fix>3d</fix>
</trkpt>
<trkpt lat="40.071375" lon="-105.2297889">
  <ele>1582.95</ele>
  <time>2026-08-28T17:48:25Z</time>
  <course>247.27</course>
  <speed>0.02</speed>
  <fix>3d</fix>
</trkpt>
<trkpt lat="40.0713749" lon="-105.229789">
  <ele>1583.0</ele>
  <time>2026-08-28T17:48:25Z</time>
  <course>0.0</course>
  <speed>0.0</speed>
  <fix>3d</fix>
</trkpt>
<trkpt lat="40.071375" lon="-105.2297889">
  <ele>1582.95</ele>
  <time>2026-08-28T17:48:25Z</time>
  <course>247.27</course>
  <speed>0.02</speed>
  <fix>3d</fix>
</trkpt>
<trkpt lat="40.0713749" lon="-105.229789">
  <ele>1583.0</ele>
  <time>2026-08-28T17:48:25Z</time>
  <course>0.0</course>
  <speed>0.0</speed>
  <fix>3d</fix>
</trkpt>
<trkpt lat="40.071375" lon="-105.2297889">
  <ele>1582.96</ele>
  <time>2026-08-28T17:48:25Z</time>
  <course>247.27</course>
  <speed>0.02</speed>
  <fix>3d</fix>
</trkpt>
<trkpt lat="40.0713749" lon="-105.229789">
  <ele>1583.0</ele>
  <time>2026-08-28T17:48:25Z</time>
  <course>0.0</course>
  <speed>0.0</speed>
  <fix>3d</fix>
</trkpt>
<trkpt lat="40.071375" lon="-105.229789">
  <ele>1582.97</ele>
  <time>2026-08-28T17:48:25Z</time>
  <course>247.27</course>
  <speed>0.02</speed>
  <fix>3d</fix>
</trkpt>
<trkpt lat="40.0713749" lon="-105.229789">
  <ele>1583.0</ele>
  <time>2026-08-28T17:48:25Z</time>
  <course>0.0</course>
  <speed>0.0</speed>
  <fix>3d</fix>
</trkpt>
<trkpt lat="40.071375" lon="-105.2297889">
  <ele>1582.97</ele>
  <time>2026-08-28T17:48:25Z</time>
  <course>247.27</course>
  <speed>0.02</speed>
  <fix>3d</fix>
</trkpt>
<trkpt lat="40.0713749" lon="-105.229789">
  <ele>1583.0</ele>
  <time>2026-08-28T17:48:25Z</time>
  <course>0.0</course>
  <speed>0.0</speed>
  <fix>3d</fix>
</trkpt>
<trkpt lat="40.071375" lon="-105.229789">
  <ele>1582.97</ele>
  <time>2026-08-28T17:48:25Z</time>
  <course>247.26</course>
  <speed>0.02</speed>
  <fix>3d</fix>
</trkpt>
<trkpt lat="40.0713749" lon="-105.229789">
  <ele>1583.0</ele>
  <time>2026-08-28T17:48:25Z</time>
  <course>0.0</course>
  <speed>0.0</speed>
  <fix>3d</fix>
</trkpt>
<trkpt lat="40.071375" lon="-105.2297889">
  <ele>1582.97</ele>
  <time>2026-08-28T17:48:25Z</time>
  <course>247.26</course>
  <speed>0.02</speed>
  <fix>3d</fix>
</trkpt>
<trkpt lat="40.0713749" lon="-105.229789">
  <ele>1583.0</ele>
  <time>2026-08-28T17:48:25Z</time>
  <course>0.0</course>
  <speed>0.0</speed>
  <fix>3d</fix>
</trkpt>
<trkpt lat="40.071375" lon="-105.229789">
  <ele>1582.98</ele>
  <time>2026-08-28T17:48:25Z</time>
  <course>247.26</course>
  <speed>0.02</speed>
  <fix>3d</fix>
</trkpt>
<trkpt lat="40.0713749" lon="-105.229789">
  <ele>1583.0</ele>
  <time>2026-08-28T17:48:25Z</time>
  <course>0.0</course>
  <speed>0.0</speed>
  <fix>3d</fix>
</trkpt>
<trkpt lat="40.071375" lon="-105.2297889">
  <ele>1582.98</ele>
  <time>2026-08-28T17:48:25Z</time>
  <course>247.26</course>
  <speed>0.02</speed>
  <fix>3d</fix>
</trkpt>
<trkpt lat="40.0713749" lon="-105.229789">
  <ele>1583.0</ele>
  <time>2026-08-28T17:48:25Z</time>
  <course>0.0</course>
  <speed>0.0</speed>
  <fix>3d</fix>
</trkpt>
<trkpt lat="40.071375" lon="-105.229789">
  <ele>1582.99</ele>
  <time>2026-08-28T17:48:25Z</time>
  <course>247.26</course>
  <speed>0.02</speed>
  <fix>3d</fix>
</trkpt>
<trkpt lat="40.0713749" lon="-105.229789">
  <ele>1583.0</ele>
  <time>2026-08-28T17:48:25Z</time>
  <course>0.0</course>
  <speed>0.0</speed>
  <fix>3d</fix>
</trkpt>
<trkpt lat="40.071375" lon="-105.2297889">
  <ele>1582.99</ele>
  <time>2026-08-28T17:48:25Z</time>
  <course>247.26</course>
  <speed>0.02</speed>
  <fix>3d</fix>
</trkpt>
<trkpt lat="40.0713749" lon="-105.229789">
  <ele>1583.0</ele>
  <time>2026-08-28T17:48:25Z</time>
  <course>0.0</course>
  <speed>0.0</speed>
  <fix>3d</fix>
</trkpt>
<trkpt lat="40.071375" lon="-105.229789">
  <ele>1583.0</ele>
  <time>2026-08-28T17:48:25Z</time>
  <course>247.26</course>
  <speed>0.02</speed>
  <fix>3d</fix>
</trkpt>
<trkpt lat="40.0713749" lon="-105.229789">
  <ele>1583.0</ele>
  <time>2026-08-28T17:48:25Z</time>
  <course>0.0</course>
  <speed>0.0</speed>
  <fix>3d</fix>
</trkpt>
<trkpt lat="40.071375" lon="-105.229789">
  <ele>1583.0</ele>
  <time>2026-08-28T17:48:25Z</time>
  <course>247.26</course>
  <speed>0.02</speed>
  <fix>3d</fix>
</trkpt>
<trkpt lat="40.0713749" lon="-105.229789">
  <ele>1583.0</ele>
  <time>2026-08-28T17:48:25Z</time>
  <course>0.0</course>
  <speed>0.0</speed>
  <fix>3d</fix>
</trkpt>
<trkpt lat="40.071375" lon="-105.229789">
  <ele>1583.0</ele>
  <time>2026-08-28T17:48:25Z</time>
  <course>247.25</course>
  <speed>0.02</speed>
  <fix>3d</fix>
</trkpt>
<trkpt lat="40.0713749" lon="-105.229789">
  <ele>1583.0</ele>
  <time>2026-08-28T17:48:25Z</time>
  <course>0.0</course>
  <speed>0.0</speed>
  <fix>3d</fix>
</trkpt>
<trkpt lat="40.071375" lon="-105.229789">
  <ele>1583.0</ele>
  <time>2026-08-28T17:48:25Z</time>
  <course>247.25</course>
  <speed>0.02</speed>
  <fix>3d</fix>
</trkpt>
<trkpt lat="40.0713749" lon="-105.229789">
  <ele>1583.0</ele>
  <time>2026-08-28T17:48:25Z</time>
  <course>0.0</course>
  <speed>0.0</speed>
  <fix>3d</fix>
</trkpt>
<trkpt lat="40.071375" lon="-105.229789">
  <ele>1582.99</ele>
  <time>2026-08-28T17:48:25Z</time>
  <course>247.25</course>
  <speed>0.02</speed>
  <fix>3d</fix>
</trkpt>
<trkpt lat="40.0713749" lon="-105.229789">
  <ele>1583.0</ele>
  <time>2026-08-28T17:48:25Z</time>
  <course>0.0</course>
  <speed>0.0</speed>
  <fix>3d</fix>
</trkpt>
<trkpt lat="40.071375" lon="-105.2297889">
  <ele>1582.98</ele>
  <time>2026-08-28T17:48:25Z</time>
  <course>247.25</course>
  <speed>0.02</speed>
  <fix>3d</fix>
</trkpt>
<trkpt lat="40.0713749" lon="-105.229789">
  <ele>1583.0</ele>
  <time>2026-08-28T17:48:25Z</time>
  <course>0.0</course>
  <speed>0.0</speed>
  <fix>3d</fix>
</trkpt>
<trkpt lat="40.071375" lon="-105.229789">
  <ele>1582.98</ele>
  <time>2026-08-28T17:48:25Z</time>
  <course>247.25</course>
  <speed>0.02</speed>
  <fix>3d</fix>
</trkpt>
<trkpt lat="40.0713749" lon="-105.229789">
  <ele>1583.0</ele>
  <time>2026-08-28T17:48:25Z</time>
  <course>0.0</course>
  <speed>0.0</speed>
  <fix>3d</fix>
</trkpt>
<trkpt lat="40.071375" lon="-105.2297889">
  <ele>1582.97</ele>
  <time>2026-08-28T17:48:25Z</time>
  <course>247.25</course>
  <speed>0.02</speed>
  <fix>3d</fix>
</trkpt>
<trkpt lat="40.0713749" lon="-105.229789">
  <ele>1583.0</ele>
  <time>2026-08-28T17:48:25Z</time>
  <course>0.0</course>
  <speed>0.0</speed>
  <fix>3d</fix>
</trkpt>
<trkpt lat="40.071375" lon="-105.229789">
  <ele>1582.96</ele>
  <time>2026-08-28T17:48:25Z</time>
  <course>247.25</course>
  <speed>0.02</speed>
  <fix>3d</fix>
</trkpt>
<trkpt lat="40.0713749" lon="-105.229789">
  <ele>1583.0</ele>
  <time>2026-08-28T17:48:25Z</time>
  <course>0.0</course>
  <speed>0.0</speed>
  <fix>3d</fix>
</trkpt>
<trkpt lat="40.071375" lon="-105.2297889">
  <ele>1582.96</ele>
  <time>2026-08-28T17:48:25Z</time>
  <course>247.25</course>
  <speed>0.02</speed>
  <fix>3d</fix>
</trkpt>
<trkpt lat="40.0713749" lon="-105.229789">
  <ele>1583.0</ele>
  <time>2026-08-28T17:48:25Z</time>
  <course>0.0</course>
  <speed>0.0</speed>
  <fix>3d</fix>
</trkpt>
<trkpt lat="40.071375" lon="-105.229789">
  <ele>1582.95</ele>
  <time>2026-08-28T17:48:25Z</time>
  <course>247.25</course>
  <speed>0.02</speed>
  <fix>3d</fix>
</trkpt>
<trkpt lat="40.0713749" lon="-105.229789">
  <ele>1583.0</ele>
  <time>2026-08-28T17:48:25Z</time>
  <course>0.0</course>
  <speed>0.0</speed>
  <fix>3d</fix>
</trkpt>
<trkpt lat="40.071375" lon="-105.2297889">
  <ele>1582.95</ele>
  <time>2026-08-28T17:48:25Z</time>
  <course>247.24</course>
  <speed>0.02</speed>
  <fix>3d</fix>
</trkpt>
<trkpt lat="40.0713749" lon="-105.229789">
  <ele>1583.0</ele>
  <time>2026-08-28T17:48:25Z</time>
  <course>0.0</course>
  <speed>0.0</speed>
  <fix>3d</fix>
</trkpt>
<trkpt lat="40.071375" lon="-105.229789">
  <ele>1582.96</ele>
  <time>2026-08-28T17:48:25Z</time>
  <course>247.24</course>
  <speed>0.02</speed>
  <fix>3d</fix>
</trkpt>
<trkpt lat="40.0713749" lon="-105.229789">
  <ele>1583.0</ele>
  <time>2026-08-28T17:48:25Z</time>
  <course>0.0</course>
  <speed>0.0</speed>
  <fix>3d</fix>
</trkpt>
<trkpt lat="40.071375" lon="-105.2297889">
  <ele>1582.96</ele>
  <time>2026-08-28T17:48:25Z</time>
  <course>247.24</course>
  <speed>0.02</speed>
  <fix>3d</fix>
</trkpt>
<trkpt lat="40.0713749" lon="-105.229789">
  <ele>1583.0</ele>
  <time>2026-08-28T17:48:25Z</time>
  <course>0.0</course>
  <speed>0.0</speed>
  <fix>3d</fix>
</trkpt>
<trkpt lat="40.071375" lon="-105.229789">
  <ele>1582.97</ele>
  <time>2026-08-28T17:48:25Z</time>
  <course>247.24</course>
  <speed>0.02</speed>
  <fix>3d</fix>
</trkpt>
<trkpt lat="40.0713749" lon="-105.229789">
  <ele>1583.0</ele>
  <time>2026-08-28T17:48:25Z</time>
  <course>0.0</course>
  <speed>0.0</speed>
  <fix>3d</fix>
</trkpt>
<trkpt lat="40.071375" lon="-105.229789">
  <ele>1582.97</ele>
  <time>2026-08-28T17:48:25Z</time>
  <course>247.24</course>
  <speed>0.02</speed>
  <fix>3d</fix>
</trkpt>
<trkpt lat="40.0713749" lon="-105.229789">
  <ele>1583.0</ele>
  <time>2026-08-28T17:48:25Z</time>
  <course>0.0</course>
  <speed>0.0</speed>
  <fix>3d</fix>
</trkpt>
<trkpt lat="40.071375" lon="-105.229789">
  <ele>1582.98</ele>
  <time>2026-08-28T17:48:25Z</time>
  <course>247.24</course>
  <speed>0.02</speed>
  <fix>3d</fix>
</trkpt>
<trkpt lat="40.0713749" lon="-105.229789">
  <ele>1583.0</ele>
  <time>2026-08-28T17:48:25Z</time>
  <course>0.0</course>
  <speed>0.0</speed>
  <fix>3d</fix>
</trkpt>
<trkpt lat="40.071375" lon="-105.229789">
  <ele>1582.98</ele>
  <time>2026-08-28T17:48:25Z</time>
  <course>247.24</course>
  <speed>0.02</speed>
  <fix>3d</fix>
</trkpt>
<trkpt lat="40.0713749" lon="-105.229789">
  <ele>1583.0</ele>
  <time>2026-08-28T17:48:25Z</time>
  <course>0.0</course>
  <speed>0.0</speed>
  <fix>3d</fix>
</trkpt>
<trkpt lat="40.071375" lon="-105.229789">
  <ele>1582.99</ele>
  <time>2026-08-28T17:48:25Z</time>
  <course>247.24</course>
  <speed>0.02</speed>
  <fix>3d</fix>
</trkpt>
<trkpt lat="40.0713749" lon="-105.229789">
  <ele>1583.0</ele>
  <time>2026-08-28T17:48:25Z</time>
  <course>0.0</course>
  <speed>0.0</speed>
  <fix>3d</fix>
</trkpt>
<trkpt lat="40.071375" lon="-105.229789">
  <ele>1583.0</ele>
  <time>2026-08-28T17:48:25Z</time>
  <course>247.24</course>
  <speed>0.02</speed>
  <fix>3d</fix>
</trkpt>
<trkpt lat="40.0713749" lon="-105.229789">
  <ele>1583.0</ele>
  <time>2026-08-28T17:48:25Z</time>
  <course>0.0</course>
  <speed>0.0</speed>
  <fix>3d</fix>
</trkpt>
<trkpt lat="40.071375" lon="-105.229789">
  <ele>1583.0</ele>
  <time>2026-08-28T17:48:25Z</time>
  <course>247.23</course>
  <speed>0.02</speed>
  <fix>3d</fix>
</trkpt>
<trkpt lat="40.0713749" lon="-105.229789">
  <ele>1583.0</ele>
  <time>2026-08-28T17:48:25Z</time>
  <course>0.0</course>
  <speed>0.0</speed>
  <fix>3d</fix>
</trkpt>
<trkpt lat="40.071375" lon="-105.229789">
  <ele>1583.01</ele>
  <time>2026-08-28T17:48:25Z</time>
  <course>247.23</course>
  <speed>0.02</speed>
  <fix>3d</fix>
</trkpt>
<trkpt lat="40.0713749" lon="-105.229789">
  <ele>1583.0</ele>
  <time>2026-08-28T17:48:25Z</time>
  <course>0.0</course>
  <speed>0.0</speed>
  <fix>3d</fix>
</trkpt>
<trkpt lat="40.071375" lon="-105.229789">
  <ele>1583.02</ele>
  <time>2026-08-28T17:48:25Z</time>
  <course>247.23</course>
  <speed>0.02</speed>
  <fix>3d</fix>
</trkpt>
<trkpt lat="40.0713749" lon="-105.229789">
  <ele>1583.0</ele>
  <time>2026-08-28T17:48:25Z</time>
  <course>0.0</course>
  <speed>0.0</speed>
  <fix>3d</fix>
</trkpt>
<trkpt lat="40.071375" lon="-105.229789">
  <ele>1583.02</ele>
  <time>2026-08-28T17:48:25Z</time>
  <course>247.23</course>
  <speed>0.02</speed>
  <fix>3d</fix>
</trkpt>
<trkpt lat="40.0713749" lon="-105.229789">
  <ele>1583.0</ele>
  <time>2026-08-28T17:48:25Z</time>
  <course>0.0</course>
  <speed>0.0</speed>
  <fix>3d</fix>
</trkpt>
<trkpt lat="40.071375" lon="-105.229789">
  <ele>1583.02</ele>
  <time>2026-08-28T17:48:25Z</time>
  <course>247.23</course>
  <speed>0.02</speed>
  <fix>3d</fix>
</trkpt>
<trkpt lat="40.0713749" lon="-105.229789">
  <ele>1583.0</ele>
  <time>2026-08-28T17:48:25Z</time>
  <course>0.0</course>
  <speed>0.0</speed>
  <fix>3d</fix>
</trkpt>
<trkpt lat="40.071375" lon="-105.229789">
  <ele>1583.03</ele>
  <time>2026-08-28T17:48:25Z</time>
  <course>247.23</course>
  <speed>0.02</speed>
  <fix>3d</fix>
</trkpt>
<trkpt lat="40.0713749" lon="-105.229789">
  <ele>1583.0</ele>
  <time>2026-08-28T17:48:25Z</time>
  <course>0.0</course>
  <speed>0.0</speed>
  <fix>3d</fix>
</trkpt>
<trkpt lat="40.071375" lon="-105.229789">
  <ele>1583.03</ele>
  <time>2026-08-28T17:48:25Z</time>
  <course>247.23</course>
  <speed>0.02</speed>
  <fix>3d</fix>
</trkpt>
<trkpt lat="40.0713749" lon="-105.229789">
  <ele>1583.0</ele>
  <time>2026-08-28T17:48:25Z</time>
  <course>0.0</course>
  <speed>0.0</speed>
  <fix>3d</fix>
</trkpt>
<trkpt lat="40.071375" lon="-105.2297889">
  <ele>1583.03</ele>
  <time>2026-08-28T17:48:25Z</time>
  <course>247.23</course>
  <speed>0.02</speed>
  <fix>3d</fix>
</trkpt>
<trkpt lat="40.0713749" lon="-105.229789">
  <ele>1583.0</ele>
  <time>2026-08-28T17:48:25Z</time>
  <course>0.0</course>
  <speed>0.0</speed>
  <fix>3d</fix>
</trkpt>
<trkpt lat="40.071375" lon="-105.229789">
  <ele>1583.03</ele>
  <time>2026-08-28T17:48:25Z</time>
  <course>247.23</course>
  <speed>0.02</speed>
  <fix>3d</fix>
</trkpt>
<trkpt lat="40.0713749" lon="-105.229789">
  <ele>1583.0</ele>
  <time>2026-08-28T17:48:25Z</time>
  <course>0.0</course>
  <speed>0.0</speed>
  <fix>3d</fix>
</trkpt>
<trkpt lat="40.071375" lon="-105.2297889">
  <ele>1583.03</ele>
  <time>2026-08-28T17:48:25Z</time>
  <course>247.22</course>
  <speed>0.02</speed>
  <fix>3d</fix>
</trkpt>
<trkpt lat="40.0713749" lon="-105.229789">
  <ele>1583.0</ele>
  <time>2026-08-28T17:48:25Z</time>
  <course>0.0</course>
  <speed>0.0</speed>
  <fix>3d</fix>
</trkpt>
<trkpt lat="40.071375" lon="-105.229789">
  <ele>1583.03</ele>
  <time>2026-08-28T17:48:25Z</time>
  <course>247.22</course>
  <speed>0.02</speed>
  <fix>3d</fix>
</trkpt>
<trkpt lat="40.0713749" lon="-105.229789">
  <ele>1583.0</ele>
  <time>2026-08-28T17:48:25Z</time>
  <course>0.0</course>
  <speed>0.0</speed>
  <fix>3d</fix>
</trkpt>
<trkpt lat="40.071375" lon="-105.2297889">
  <ele>1583.03</ele>
  <time>2026-08-28T17:48:25Z</time>
  <course>247.22</course>
  <speed>0.02</speed>
  <fix>3d</fix>
</trkpt>
<trkpt lat="40.0713749" lon="-105.229789">
  <ele>1583.0</ele>
  <time>2026-08-28T17:48:25Z</time>
  <course>0.0</course>
  <speed>0.0</speed>
  <fix>3d</fix>
</trkpt>
<trkpt lat="40.071375" lon="-105.229789">
  <ele>1583.03</ele>
  <time>2026-08-28T17:48:25Z</time>
  <course>247.22</course>
  <speed>0.02</speed>
  <fix>3d</fix>
</trkpt>
<trkpt lat="40.0713749" lon="-105.229789">
  <ele>1583.0</ele>
  <time>2026-08-28T17:48:25Z</time>
  <course>0.0</course>
  <speed>0.0</speed>
  <fix>3d</fix>
</trkpt>
<trkpt lat="40.071375" lon="-105.2297889">
  <ele>1583.02</ele>
  <time>2026-08-28T17:48:25Z</time>
  <course>247.22</course>
  <speed>0.02</speed>
  <fix>3d</fix>
</trkpt>
<trkpt lat="40.0713749" lon="-105.229789">
  <ele>1583.0</ele>
  <time>2026-08-28T17:48:25Z</time>
  <course>0.0</course>
  <speed>0.0</speed>
  <fix>3d</fix>
</trkpt>
<trkpt lat="40.071375" lon="-105.229789">
  <ele>1583.02</ele>
  <time>2026-08-28T17:48:25Z</time>
  <course>247.22</course>
  <speed>0.02</speed>
  <fix>3d</fix>
</trkpt>
<trkpt lat="40.0713749" lon="-105.229789">
  <ele>1583.0</ele>
  <time>2026-08-28T17:48:25Z</time>
  <course>0.0</course>
  <speed>0.0</speed>
  <fix>3d</fix>
</trkpt>
<trkpt lat="40.071375" lon="-105.2297889">
  <ele>1583.01</ele>
  <time>2026-08-28T17:48:25Z</time>
  <course>247.22</course>
  <speed>0.02</speed>
  <fix>3d</fix>
</trkpt>
<trkpt lat="40.0713749" lon="-105.229789">
  <ele>1583.0</ele>
  <time>2026-08-28T17:48:25Z</time>
  <course>0.0</course>
  <speed>0.0</speed>
  <fix>3d</fix>
</trkpt>
<trkpt lat="40.071375" lon="-105.229789">
  <ele>1583.01</ele>
  <time>2026-08-28T17:48:25Z</time>
  <course>247.22</course>
  <speed>0.02</speed>
  <fix>3d</fix>
</trkpt>
<trkpt lat="40.0713749" lon="-105.229789">
  <ele>1583.0</ele>
  <time>2026-08-28T17:48:25Z</time>
  <course>0.0</course>
  <speed>0.0</speed>
  <fix>3d</fix>
</trkpt>
<trkpt lat="40.071375" lon="-105.2297889">
  <ele>1583.0</ele>
  <time>2026-08-28T17:48:25Z</time>
  <course>247.22</course>
  <speed>0.02</speed>
  <fix>3d</fix>
</trkpt>
<trkpt lat="40.0713749" lon="-105.229789">
  <ele>1583.0</ele>
  <time>2026-08-28T17:48:25Z</time>
  <course>0.0</course>
  <speed>0.0</speed>
  <fix>3d</fix>
</trkpt>
<trkpt lat="40.071375" lon="-105.229789">
  <ele>1583.0</ele>
  <time>2026-08-28T17:48:25Z</time>
  <course>247.22</course>
  <speed>0.02</speed>
  <fix>3d</fix>
</trkpt>
<trkpt lat="40.0713749" lon="-105.229789">
  <ele>1583.0</ele>
  <time>2026-08-28T17:48:25Z</time>
  <course>0.0</course>
  <speed>0.0</speed>
  <fix>3d</fix>
</trkpt>
<trkpt lat="40.071375" lon="-105.2297889">
  <ele>1583.0</ele>
  <time>2026-08-28T17:48:25Z</time>
  <course>247.22</course>
  <speed>0.02</speed>
  <fix>3d</fix>
</trkpt>
<trkpt lat="40.0713749" lon="-105.229789">
  <ele>1583.0</ele>
  <time>2026-08-28T17:48:25Z</time>
  <course>0.0</course>
  <speed>0.0</speed>
  <fix>3d</fix>
</trkpt>
<trkpt lat="40.071375" lon="-105.229789">
  <ele>1583.0</ele>
  <time>2026-08-28T17:48:25Z</time>
  <course>247.21</course>
  <speed>0.02</speed>
  <fix>3d</fix>
</trkpt>
<trkpt lat="40.0713749" lon="-105.229789">
  <ele>1583.0</ele>
  <time>2026-08-28T17:48:25Z</time>
  <course>0.0</course>
  <speed>0.0</speed>
  <fix>3d</fix>
</trkpt>
<trkpt lat="40.071375" lon="-105.2297889">
  <ele>1583.0</ele>
  <time>2026-08-28T17:48:25Z</time>
  <course>247.21</course>
  <speed>0.02</speed>
  <fix>3d</fix>
</trkpt>
<trkpt lat="40.0713749" lon="-105.229789">
  <ele>1583.0</ele>
  <time>2026-08-28T17:48:25Z</time>
  <course>0.0</course>
  <speed>0.0</speed>
  <fix>3d</fix>
</trkpt>
<trkpt lat="40.071375" lon="-105.229789">
  <ele>1583.0</ele>
  <time>2026-08-28T17:48:25Z</time>
  <course>247.21</course>
  <speed>0.02</speed>
  <fix>3d</fix>
</trkpt>
<trkpt lat="40.0713749" lon="-105.229789">
  <ele>1583.0</ele>
  <time>2026-08-28T17:48:25Z</time>
  <course>0.0</course>
  <speed>0.0</speed>
  <fix>3d</fix>
</trkpt>
<trkpt lat="40.071375" lon="-105.2297889">
  <ele>1582.99</ele>
  <time>2026-08-28T17:48:25Z</time>
  <course>247.21</course>
  <speed>0.02</speed>
  <fix>3d</fix>
</trkpt>
<trkpt lat="40.0713749" lon="-105.229789">
  <ele>1583.0</ele>
  <time>2026-08-28T17:48:25Z</time>
  <course>0.0</course>
  <speed>0.0</speed>
  <fix>3d</fix>
</trkpt>
<trkpt lat="40.071375" lon="-105.229789">
  <ele>1582.99</ele>
  <time>2026-08-28T17:48:25Z</time>
  <course>247.21</course>
  <speed>0.02</speed>
  <fix>3d</fix>
</trkpt>
<trkpt lat="40.0713749" lon="-105.229789">
  <ele>1583.0</ele>
  <time>2026-08-28T17:48:25Z</time>
  <course>0.0</course>
  <speed>0.0</speed>
  <fix>3d</fix>
</trkpt>
<trkpt lat="40.071375" lon="-105.2297889">
  <ele>1582.99</ele>
  <time>2026-08-28T17:48:25Z</time>
  <course>247.21</course>
  <speed>0.02</speed>
  <fix>3d</fix>
</trkpt>
<trkpt lat="40.0713749" lon="-105.229789">
  <ele>1583.0</ele>
  <time>2026-08-28T17:48:25Z</time>
  <course>0.0</course>
  <speed>0.0</speed>
  <fix>3d</fix>
</trkpt>
<trkpt lat="40.071375" lon="-105.229789">
  <ele>1582.98</ele>
  <time>2026-08-28T17:48:25Z</time>
  <course>247.21</course>
  <speed>0.02</speed>
  <fix>3d</fix>
</trkpt>
<trkpt lat="40.0713749" lon="-105.229789">
  <ele>1583.0</ele>
  <time>2026-08-28T17:48:25Z</time>
  <course>0.0</course>
  <speed>0.0</speed>
  <fix>3d</fix>
</trkpt>
<trkpt lat="40.071375" lon="-105.2297889">
  <ele>1582.98</ele>
  <time>2026-08-28T17:48:25Z</time>
  <course>247.21</course>
  <speed>0.022360679774997897</speed>
  <fix>3d</fix>
</trkpt>
<trkpt lat="40.0713749" lon="-105.229789">
  <ele>1583.0</ele>
  <time>2026-08-28T17:48:25Z</time>
  <course>0.0</course>
  <speed>0.0</speed>
  <fix>3d</fix>
</trkpt>
<trkpt lat="40.071375" lon="-105.2297889">
  <ele>1582.98</ele>
  <time>2026-08-28T17:48:25Z</time>
  <course>247.21</course>
  <speed>0.02</speed>
  <fix>3d</fix>
</trkpt>
<trkpt lat="40.0713749" lon="-105.229789">
  <ele>1583.0</ele>
  <time>2026-08-28T17:48:25Z</time>
  <course>0.0</course>
  <speed>0.0</speed>
  <fix>3d</fix>
</trkpt>
<trkpt lat="40.071375" lon="-105.2297889">
  <ele>1582.98</ele>
  <time>2026-08-28T17:48:25Z</time>
  <course>247.21</course>
  <speed>0.022360679774997897</speed>
  <fix>3d</fix>
</trkpt>
<trkpt lat="40.0713749" lon="-105.229789">
  <ele>1583.0</ele>
  <time>2026-08-28T17:48:25Z</time>
  <course>0.0</course>
  <speed>0.0</speed>
  <fix>3d</fix>
</trkpt>
<trkpt lat="40.071375" lon="-105.2297889">
  <ele>1582.97</ele>
  <time>2026-08-28T17:48:25Z</time>
  <course>247.2</course>
  <speed>0.022360679774997897</speed>
  <fix>3d</fix>
</trkpt>
<trkpt lat="40.0713749" lon="-105.229789">
  <ele>1583.0</ele>
  <time>2026-08-28T17:48:25Z</time>
  <course>0.0</course>
  <speed>0.0</speed>
  <fix>3d</fix>
</trkpt>
<trkpt lat="40.071375" lon="-105.2297889">
  <ele>1582.97</ele>
  <time>2026-08-28T17:48:25Z</time>
  <course>247.2</course>
  <speed>0.022360679774997897</speed>
  <fix>3d</fix>
</trkpt>
<trkpt lat="40.0713749" lon="-105.229789">
  <ele>1583.0</ele>
  <time>2026-08-28T17:48:25Z</time>
  <course>0.0</course>
  <speed>0.0</speed>
  <fix>3d</fix>
</trkpt>
<trkpt lat="40.071375" lon="-105.2297889">
  <ele>1582.97</ele>
  <time>2026-08-28T17:48:25Z</time>
  <course>247.2</course>
  <speed>0.022360679774997897</speed>
  <fix>3d</fix>
</trkpt>
<trkpt lat="40.0713749" lon="-105.229789">
  <ele>1583.0</ele>
  <time>2026-08-28T17:48:25Z</time>
  <course>0.0</course>
  <speed>0.0</speed>
  <fix>3d</fix>
</trkpt>
<trkpt lat="40.071375" lon="-105.2297889">
  <ele>1582.97</ele>
  <time>2026-08-28T17:48:25Z</time>
  <course>247.2</course>
  <speed>0.022360679774997897</speed>
  <fix>3d</fix>
</trkpt>
<trkpt lat="40.0713749" lon="-105.229789">
  <ele>1583.0</ele>
  <time>2026-08-28T17:48:25Z</time>
  <course>0.0</course>
  <speed>0.0</speed>
  <fix>3d</fix>
</trkpt>
<trkpt lat="40.071375" lon="-105.2297889">
  <ele>1582.97</ele>
  <time>2026-08-28T17:48:25Z</time>
  <course>247.2</course>
  <speed>0.02</speed>
  <fix>3d</fix>
</trkpt>
<trkpt lat="40.0713749" lon="-105.229789">
  <ele>1583.0</ele>
  <time>2026-08-28T17:48:25Z</time>
  <course>0.0</course>
  <speed>0.0</speed>
  <fix>3d</fix>
</trkpt>
<trkpt lat="40.071375" lon="-105.2297889">
  <ele>1582.97</ele>
  <time>2026-08-28T17:48:25Z</time>
  <course>247.2</course>
  <speed>0.022360679774997897</speed>
  <fix>3d</fix>
</trkpt>
<trkpt lat="40.0713749" lon="-105.229789">
  <ele>1583.0</ele>
  <time>2026-08-28T17:48:25Z</time>
  <course>0.0</course>
  <speed>0.0</speed>
  <fix>3d</fix>
</trkpt>
<trkpt lat="40.071375" lon="-105.2297889">
  <ele>1582.97</ele>
  <time>2026-08-28T17:48:25Z</time>
  <course>247.2</course>
  <speed>0.022360679774997897</speed>
  <fix>3d</fix>
</trkpt>
<trkpt lat="40.0713749" lon="-105.229789">
  <ele>1583.0</ele>
  <time>2026-08-28T17:48:25Z</time>
  <course>0.0</course>
  <speed>0.0</speed>
  <fix>3d</fix>
</trkpt>
<trkpt lat="40.071375" lon="-105.2297889">
  <ele>1582.98</ele>
  <time>2026-08-28T17:48:25Z</time>
  <course>247.2</course>
  <speed>0.022360679774997897</speed>
  <fix>3d</fix>
</trkpt>
<trkpt lat="40.0713749" lon="-105.229789">
  <ele>1583.0</ele>
  <time>2026-08-28T17:48:25Z</time>
  <course>0.0</course>
  <speed>0.0</speed>
  <fix>3d</fix>
</trkpt>
<trkpt lat="40.071375" lon="-105.2297889">
  <ele>1582.98</ele>
  <time>2026-08-28T17:48:25Z</time>
  <course>247.2</course>
  <speed>0.022360679774997897</speed>
  <fix>3d</fix>
</trkpt>
<trkpt lat="40.0713749" lon="-105.229789">
  <ele>1583.0</ele>
  <time>2026-08-28T17:48:25Z</time>
  <course>0.0</course>
  <speed>0.0</speed>
  <fix>3d</fix>
</trkpt>
<trkpt lat="40.071375" lon="-105.2297889">
  <ele>1582.98</ele>
  <time>2026-08-28T17:48:25Z</time>
  <course>247.2</course>
  <speed>0.022360679774997897</speed>
  <fix>3d</fix>
</trkpt>
<trkpt lat="40.0713749" lon="-105.229789">
  <ele>1583.0</ele>
  <time>2026-08-28T17:48:25Z</time>
  <course>0.0</course>
  <speed>0.0</speed>
  <fix>3d</fix>
</trkpt>
<trkpt lat="40.071375" lon="-105.2297889">
  <ele>1582.98</ele>
  <time>2026-08-28T17:48:25Z</time>
  <course>247.2</course>
  <speed>0.022360679774997897</speed>
  <fix>3d</fix>
</trkpt>
<trkpt lat="40.0713749" lon="-105.229789">
  <ele>1583.0</ele>
  <time>2026-08-28T17:48:25Z</time>
  <course>0.0</course>
  <speed>0.0</speed>
  <fix>3d</fix>
</trkpt>
<trkpt lat="40.071375" lon="-105.2297889">
  <ele>1582.98</ele>
  <time>2026-08-28T17:48:25Z</time>
  <course>247.2</course>
  <speed>0.022360679774997897</speed>
  <fix>3d</fix>
</trkpt>
<trkpt lat="40.0713749" lon="-105.229789">
  <ele>1583.0</ele>
  <time>2026-08-28T17:48:25Z</time>
  <course>0.0</course>
  <speed>0.0</speed>
  <fix>3d</fix>
</trkpt>
<trkpt lat="40.071375" lon="-105.2297889">
  <ele>1582.99</ele>
  <time>2026-08-28T17:48:25Z</time>
  <course>247.19</course>
  <speed>0.022360679774997897</speed>
  <fix>3d</fix>
</trkpt>
<trkpt lat="40.0713749" lon="-105.229789">
  <ele>1583.0</ele>
  <time>2026-08-28T17:48:25Z</time>
  <course>0.0</course>
  <speed>0.0</speed>
  <fix>3d</fix>
</trkpt>
<trkpt lat="40.071375" lon="-105.2297889">
  <ele>1582.99</ele>
  <time>2026-08-28T17:48:25Z</time>
  <course>247.19</course>
  <speed>0.022360679774997897</speed>
  <fix>3d</fix>
</trkpt>
<trkpt lat="40.0713749" lon="-105.229789">
  <ele>1583.0</ele>
  <time>2026-08-28T17:48:25Z</time>
  <course>0.0</course>
  <speed>0.0</speed>
  <fix>3d</fix>
</trkpt>
<trkpt lat="40.071375" lon="-105.2297889">
  <ele>1582.99</ele>
  <time>2026-08-28T17:48:25Z</time>
  <course>247.19</course>
  <speed>0.022360679774997897</speed>
  <fix>3d</fix>
</trkpt>
<trkpt lat="40.0713749" lon="-105.229789">
  <ele>1583.0</ele>
  <time>2026-08-28T17:48:25Z</time>
  <course>0.0</course>
  <speed>0.0</speed>
  <fix>3d</fix>
</trkpt>
<trkpt lat="40.071375" lon="-105.2297889">
  <ele>1583.0</ele>
  <time>2026-08-28T17:48:25Z</time>
  <course>247.19</course>
  <speed>0.022360679774997897</speed>
  <fix>3d</fix>
</trkpt>
<trkpt lat="40.0713749" lon="-105.229789">
  <ele>1583.0</ele>
  <time>2026-08-28T17:48:25Z</time>
  <course>0.0</course>
  <speed>0.0</speed>
  <fix>3d</fix>
</trkpt>
<trkpt lat="40.071375" lon="-105.2297889">
  <ele>1583.0</ele>
  <time>2026-08-28T17:48:25Z</time>
  <course>247.19</course>
  <speed>0.022360679774997897</speed>
  <fix>3d</fix>
</trkpt>
<trkpt lat="40.0713749" lon="-105.229789">
  <ele>1583.0</ele>
  <time>2026-08-28T17:48:25Z</time>
  <course>0.0</course>
  <speed>0.0</speed>
  <fix>3d</fix>
</trkpt>
<trkpt lat="40.071375" lon="-105.2297889">
  <ele>1583.01</ele>
  <time>2026-08-28T17:48:25Z</time>
  <course>247.19</course>
  <speed>0.022360679774997897</speed>
  <fix>3d</fix>
</trkpt>
<trkpt lat="40.0713749" lon="-105.229789">
  <ele>1583.0</ele>
  <time>2026-08-28T17:48:25Z</time>
  <course>0.0</course>
  <speed>0.0</speed>
  <fix>3d</fix>
</trkpt>
<trkpt lat="40.071375" lon="-105.2297889">
  <ele>1583.01</ele>
  <time>2026-08-28T17:48:25Z</time>
  <course>247.19</course>
  <speed>0.022360679774997897</speed>
  <fix>3d</fix>
</trkpt>
<trkpt lat="40.0713749" lon="-105.229789">
  <ele>1583.0</ele>
  <time>2026-08-28T17:48:25Z</time>
  <course>0.0</course>
  <speed>0.0</speed>
  <fix>3d</fix>
</trkpt>
<trkpt lat="40.071375" lon="-105.2297889">
  <ele>1583.02</ele>
  <time>2026-08-28T17:48:25Z</time>
  <course>247.19</course>
  <speed>0.022360679774997897</speed>
  <fix>3d</fix>
</trkpt>
<trkpt lat="40.0713749" lon="-105.229789">
  <ele>1583.0</ele>
  <time>2026-08-28T17:48:25Z</time>
  <course>0.0</course>
  <speed>0.0</speed>
  <fix>3d</fix>
</trkpt>
<trkpt lat="40.071375" lon="-105.2297889">
  <ele>1583.03</ele>
  <time>2026-08-28T17:48:25Z</time>
  <course>247.19</course>
  <speed>0.022360679774997897</speed>
  <fix>3d</fix>
</trkpt>
<trkpt lat="40.0713749" lon="-105.229789">
  <ele>1583.0</ele>
  <time>2026-08-28T17:48:25Z</time>
  <course>0.0</course>
  <speed>0.0</speed>
  <fix>3d</fix>
</trkpt>
<trkpt lat="40.071375" lon="-105.2297889">
  <ele>1583.03</ele>
  <time>2026-08-28T17:48:25Z</time>
  <course>247.19</course>
  <speed>0.022360679774997897</speed>
  <fix>3d</fix>
</trkpt>
<trkpt lat="40.0713749" lon="-105.229789">
  <ele>1583.0</ele>
  <time>2026-08-28T17:48:25Z</time>
  <course>0.0</course>
  <speed>0.0</speed>
  <fix>3d</fix>
</trkpt>
<trkpt lat="40.071375" lon="-105.2297889">
  <ele>1583.03</ele>
  <time>2026-08-28T17:48:25Z</time>
  <course>247.19</course>
  <speed>0.022360679774997897</speed>
  <fix>3d</fix>
</trkpt>
<trkpt lat="40.0713749" lon="-105.229789">
  <ele>1583.0</ele>
  <time>2026-08-28T17:48:25Z</time>
  <course>0.0</course>
  <speed>0.0</speed>
  <fix>3d</fix>
</trkpt>
<trkpt lat="40.071375" lon="-105.2297889">
  <ele>1583.03</ele>
  <time>2026-08-28T17:48:25Z</time>
  <course>247.19</course>
  <speed>0.022360679774997897</speed>
  <fix>3d</fix>
</trkpt>
<trkpt lat="40.0713749" lon="-105.229789">
  <ele>1583.0</ele>
  <time>2026-08-28T17:48:25Z</time>
  <course>0.0</course>
  <speed>0.0</speed>
  <fix>3d</fix>
</trkpt>
<trkpt lat="40.071375" lon="-105.2297889">
  <ele>1583.03</ele>
  <time>2026-08-28T17:48:25Z</time>
  <course>247.19</course>
  <speed>0.022360679774997897</speed>
  <fix>3d</fix>
</trkpt>
<trkpt lat="40.0713749" lon="-105.229789">
  <ele>1583.0</ele>
  <time>2026-08-28T17:48:25Z</time>
  <course>0.0</course>
  <speed>0.0</speed>
  <fix>3d</fix>
</trkpt>
<trkpt lat="40.071375" lon="-105.2297889">
  <ele>1583.03</ele>
  <time>2026-08-28T17:48:25Z</time>
  <course>247.18</course>
  <speed>0.022360679774997897</speed>
  <fix>3d</fix>
</trkpt>
<trkpt lat="40.0713749" lon="-105.229789">
  <ele>1583.0</ele>
  <time>2026-08-28T17:48:25Z</time>
  <course>0.0</course>
  <speed>0.0</speed>
  <fix>3d</fix>
</trkpt>
<trkpt lat="40.071375" lon="-105.2297889">
  <ele>1583.02</ele>
  <time>2026-08-28T17:48:25Z</time>
  <course>247.18</course>
  <speed>0.022360679774997897</speed>
  <fix>3d</fix>
</trkpt>
<trkpt lat="40.0713749" lon="-105.229789">
  <ele>1583.0</ele>
  <time>2026-08-28T17:48:25Z</time>
  <course>0.0</course>
  <speed>0.0</speed>
  <fix>3d</fix>
</trkpt>
<trkpt lat="40.071375" lon="-105.2297889">
  <ele>1583.02</ele>
  <time>2026-08-28T17:48:25Z</time>
  <course>247.18</course>
  <speed>0.022360679774997897</speed>
  <fix>3d</fix>
</trkpt>
<trkpt lat="40.0713749" lon="-105.229789">
  <ele>1583.0</ele>
  <time>2026-08-28T17:48:25Z</time>
  <course>0.0</course>
  <speed>0.0</speed>
  <fix>3d</fix>
</trkpt>
<trkpt lat="40.071375" lon="-105.2297889">
  <ele>1583.02</ele>
  <time>2026-08-28T17:48:25Z</time>
  <course>247.18</course>
  <speed>0.022360679774997897</speed>
  <fix>3d</fix>
</trkpt>
<trkpt lat="40.0713749" lon="-105.229789">
  <ele>1583.0</ele>
  <time>2026-08-28T17:48:25Z</time>
  <course>0.0</course>
  <speed>0.0</speed>
  <fix>3d</fix>
</trkpt>
<trkpt lat="40.071375" lon="-105.2297889">
  <ele>1583.01</ele>
  <time>2026-08-28T17:48:25Z</time>
  <course>247.18</course>
  <speed>0.022360679774997897</speed>
  <fix>3d</fix>
</trkpt>
<trkpt lat="40.0713749" lon="-105.229789">
  <ele>1583.0</ele>
  <time>2026-08-28T17:48:25Z</time>
  <course>0.0</course>
  <speed>0.0</speed>
  <fix>3d</fix>
</trkpt>
<trkpt lat="40.071375" lon="-105.2297889">
  <ele>1583.01</ele>
  <time>2026-08-28T17:48:25Z</time>
  <course>247.18</course>
  <speed>0.022360679774997897</speed>
  <fix>3d</fix>
</trkpt>
<trkpt lat="40.0713749" lon="-105.229789">
  <ele>1583.0</ele>
  <time>2026-08-28T17:48:25Z</time>
  <course>0.0</course>
  <speed>0.0</speed>
  <fix>3d</fix>
</trkpt>
<trkpt lat="40.071375" lon="-105.2297889">
  <ele>1583.01</ele>
  <time>2026-08-28T17:48:25Z</time>
  <course>247.18</course>
  <speed>0.022360679774997897</speed>
  <fix>3d</fix>
</trkpt>
<trkpt lat="40.0713749" lon="-105.229789">
  <ele>1583.0</ele>
  <time>2026-08-28T17:48:25Z</time>
  <course>0.0</course>
  <speed>0.0</speed>
  <fix>3d</fix>
</trkpt>
<trkpt lat="40.071375" lon="-105.2297889">
  <ele>1583.0</ele>
  <time>2026-08-28T17:48:25Z</time>
  <course>247.18</course>
  <speed>0.022360679774997897</speed>
  <fix>3d</fix>
</trkpt>
<trkpt lat="40.0713749" lon="-105.229789">
  <ele>1583.0</ele>
  <time>2026-08-28T17:48:25Z</time>
  <course>0.0</course>
  <speed>0.0</speed>
  <fix>3d</fix>
</trkpt>
<trkpt lat="40.071375" lon="-105.2297889">
  <ele>1583.0</ele>
  <time>2026-08-28T17:48:25Z</time>
  <course>247.18</course>
  <speed>0.022360679774997897</speed>
  <fix>3d</fix>
</trkpt>
<trkpt lat="40.0713749" lon="-105.229789">
  <ele>1583.0</ele>
  <time>2026-08-28T17:48:25Z</time>
  <course>0.0</course>
  <speed>0.0</speed>
  <fix>3d</fix>
</trkpt>
<trkpt lat="40.071375" lon="-105.2297889">
  <ele>1582.99</ele>
  <time>2026-08-28T17:48:25Z</time>
  <course>247.18</course>
  <speed>0.022360679774997897</speed>
  <fix>3d</fix>
</trkpt>
<trkpt lat="40.0713749" lon="-105.229789">
  <ele>1583.0</ele>
  <time>2026-08-28T17:48:25Z</time>
  <course>0.0</course>
  <speed>0.0</speed>
  <fix>3d</fix>
</trkpt>
<trkpt lat="40.071375" lon="-105.2297889">
  <ele>1582.98</ele>
  <time>2026-08-28T17:48:25Z</time>
  <course>247.18</course>
  <speed>0.022360679774997897</speed>
  <fix>3d</fix>
</trkpt>
<trkpt lat="40.0713749" lon="-105.229789">
  <ele>1583.0</ele>
  <time>2026-08-28T17:48:25Z</time>
  <course>0.0</course>
  <speed>0.0</speed>
  <fix>3d</fix>
</trkpt>
<trkpt lat="40.071375" lon="-105.2297889">
  <ele>1582.97</ele>
  <time>2026-08-28T17:48:25Z</time>
  <course>247.18</course>
  <speed>0.022360679774997897</speed>
  <fix>3d</fix>
</trkpt>
<trkpt lat="40.0713749" lon="-105.229789">
  <ele>1583.0</ele>
  <time>2026-08-28T17:48:25Z</time>
  <course>0.0</course>
  <speed>0.0</speed>
  <fix>3d</fix>
</trkpt>
<trkpt lat="40.071375" lon="-105.2297889">
  <ele>1582.97</ele>
  <time>2026-08-28T17:48:25Z</time>
  <course>247.18</course>
  <speed>0.022360679774997897</speed>
  <fix>3d</fix>
</trkpt>
<trkpt lat="40.0713749" lon="-105.229789">
  <ele>1583.0</ele>
  <time>2026-08-28T17:48:25Z</time>
  <course>0.0</course>
  <speed>0.0</speed>
  <fix>3d</fix>
</trkpt>
<trkpt lat="40.071375" lon="-105.2297889">
  <ele>1582.96</ele>
  <time>2026-08-28T17:48:25Z</time>
  <course>247.18</course>
  <speed>0.022360679774997897</speed>
  <fix>3d</fix>
</trkpt>
<trkpt lat="40.0713749" lon="-105.229789">
  <ele>1583.0</ele>
  <time>2026-08-28T17:48:25Z</time>
  <course>0.0</course>
  <speed>0.0</speed>
  <fix>3d</fix>
</trkpt>
<trkpt lat="40.071375" lon="-105.2297889">
  <ele>1582.96</ele>
  <time>2026-08-28T17:48:25Z</time>
  <course>247.17</course>
  <speed>0.022360679774997897</speed>
  <fix>3d</fix>
</trkpt>
<trkpt lat="40.0713749" lon="-105.229789">
  <ele>1583.0</ele>
  <time>2026-08-28T17:48:25Z</time>
  <course>0.0</course>
  <speed>0.0</speed>
  <fix>3d</fix>
</trkpt>
<trkpt lat="40.071375" lon="-105.2297889">
  <ele>1582.95</ele>
  <time>2026-08-28T17:48:25Z</time>
  <course>247.17</course>
  <speed>0.022360679774997897</speed>
  <fix>3d</fix>
</trkpt>
<trkpt lat="40.0713749" lon="-105.229789">
  <ele>1583.0</ele>
  <time>2026-08-28T17:48:25Z</time>
  <course>0.0</course>
  <speed>0.0</speed>
  <fix>3d</fix>
</trkpt>
<trkpt lat="40.071375" lon="-105.2297889">
  <ele>1582.96</ele>
  <time>2026-08-28T17:48:25Z</time>
  <course>247.17</course>
  <speed>0.022360679774997897</speed>
  <fix>3d</fix>
</trkpt>
<trkpt lat="40.0713749" lon="-105.229789">
  <ele>1583.0</ele>
  <time>2026-08-28T17:48:25Z</time>
  <course>0.0</course>
  <speed>0.0</speed>
  <fix>3d</fix>
</trkpt>
<trkpt lat="40.071375" lon="-105.2297889">
  <ele>1582.96</ele>
  <time>2026-08-28T17:48:25Z</time>
  <course>247.17</course>
  <speed>0.022360679774997897</speed>
  <fix>3d</fix>
</trkpt>
<trkpt lat="40.0713749" lon="-105.229789">
  <ele>1583.0</ele>
  <time>2026-08-28T17:48:25Z</time>
  <course>0.0</course>
  <speed>0.0</speed>
  <fix>3d</fix>
</trkpt>
<trkpt lat="40.071375" lon="-105.2297889">
  <ele>1582.96</ele>
  <time>2026-08-28T17:48:25Z</time>
  <course>247.17</course>
  <speed>0.022360679774997897</speed>
  <fix>3d</fix>
</trkpt>
<trkpt lat="40.0713749" lon="-105.229789">
  <ele>1583.0</ele>
  <time>2026-08-28T17:48:25Z</time>
  <course>0.0</course>
  <speed>0.0</speed>
  <fix>3d</fix>
</trkpt>
<trkpt lat="40.071375" lon="-105.2297889">
  <ele>1582.96</ele>
  <time>2026-08-28T17:48:25Z</time>
  <course>247.17</course>
  <speed>0.022360679774997897</speed>
  <fix>3d</fix>
</trkpt>
<trkpt lat="40.0713749" lon="-105.229789">
  <ele>1583.0</ele>
  <time>2026-08-28T17:48:25Z</time>
  <course>0.0</course>
  <speed>0.0</speed>
  <fix>3d</fix>
</trkpt>
<trkpt lat="40.071375" lon="-105.2297889">
  <ele>1582.97</ele>
  <time>2026-08-28T17:48:25Z</time>
  <course>247.17</course>
  <speed>0.022360679774997897</speed>
  <fix>3d</fix>
</trkpt>
<trkpt lat="40.0713749" lon="-105.229789">
  <ele>1583.0</ele>
  <time>2026-08-28T17:48:25Z</time>
  <course>0.0</course>
  <speed>0.0</speed>
  <fix>3d</fix>
</trkpt>
<trkpt lat="40.071375" lon="-105.2297889">
  <ele>1582.97</ele>
  <time>2026-08-28T17:48:25Z</time>
  <course>247.17</course>
  <speed>0.022360679774997897</speed>
  <fix>3d</fix>
</trkpt>
<trkpt lat="40.0713749" lon="-105.229789">
  <ele>1583.0</ele>
  <time>2026-08-28T17:48:25Z</time>
  <course>0.0</course>
  <speed>0.0</speed>
  <fix>3d</fix>
</trkpt>
<trkpt lat="40.071375" lon="-105.2297889">
  <ele>1582.98</ele>
  <time>2026-08-28T17:48:25Z</time>
  <course>247.17</course>
  <speed>0.022360679774997897</speed>
  <fix>3d</fix>
</trkpt>
<trkpt lat="40.0713749" lon="-105.229789">
  <ele>1583.0</ele>
  <time>2026-08-28T17:48:25Z</time>
  <course>0.0</course>
  <speed>0.0</speed>
  <fix>3d</fix>
</trkpt>
<trkpt lat="40.071375" lon="-105.2297889">
  <ele>1582.98</ele>
  <time>2026-08-28T17:48:25Z</time>
  <course>247.17</course>
  <speed>0.022360679774997897</speed>
  <fix>3d</fix>
</trkpt>
<trkpt lat="40.0713749" lon="-105.229789">
  <ele>1583.0</ele>
  <time>2026-08-28T17:48:25Z</time>
  <course>0.0</course>
  <speed>0.0</speed>
  <fix>3d</fix>
</trkpt>
<trkpt lat="40.071375" lon="-105.2297889">
  <ele>1582.99</ele>
  <time>2026-08-28T17:48:25Z</time>
  <course>247.17</course>
  <speed>0.022360679774997897</speed>
  <fix>3d</fix>
</trkpt>
<trkpt lat="40.0713749" lon="-105.229789">
  <ele>1583.0</ele>
  <time>2026-08-28T17:48:25Z</time>
  <course>0.0</course>
  <speed>0.0</speed>
  <fix>3d</fix>
</trkpt>
<trkpt lat="40.071375" lon="-105.2297889">
  <ele>1582.99</ele>
  <time>2026-08-28T17:48:25Z</time>
  <course>247.17</course>
  <speed>0.022360679774997897</speed>
  <fix>3d</fix>
</trkpt>
<trkpt lat="40.0713749" lon="-105.229789">
  <ele>1583.0</ele>
  <time>2026-08-28T17:48:25Z</time>
  <course>0.0</course>
  <speed>0.0</speed>
  <fix>3d</fix>
</trkpt>
<trkpt lat="40.071375" lon="-105.2297889">
  <ele>1583.0</ele>
  <time>2026-08-28T17:48:25Z</time>
  <course>247.17</course>
  <speed>0.022360679774997897</speed>
  <fix>3d</fix>
</trkpt>
<trkpt lat="40.0713749" lon="-105.229789">
  <ele>1583.0</ele>
  <time>2026-08-28T17:48:25Z</time>
  <course>0.0</course>
  <speed>0.0</speed>
  <fix>3d</fix>
</trkpt>
<trkpt lat="40.071375" lon="-105.2297889">
  <ele>1583.0</ele>
  <time>2026-08-28T17:48:25Z</time>
  <course>247.17</course>
  <speed>0.022360679774997897</speed>
  <fix>3d</fix>
</trkpt>
<trkpt lat="40.0713749" lon="-105.229789">
  <ele>1583.0</ele>
  <time>2026-08-28T17:48:25Z</time>
  <course>0.0</course>
  <speed>0.0</speed>
  <fix>3d</fix>
</trkpt>
<trkpt lat="40.071375" lon="-105.2297889">
  <ele>1583.0</ele>
  <time>2026-08-28T17:48:25Z</time>
  <course>247.16</course>
  <speed>0.022360679774997897</speed>
  <fix>3d</fix>
</trkpt>
<trkpt lat="40.0713749" lon="-105.229789">
  <ele>1583.0</ele>
  <time>2026-08-28T17:48:25Z</time>
  <course>0.0</course>
  <speed>0.0</speed>
  <fix>3d</fix>
</trkpt>
<trkpt lat="40.071375" lon="-105.2297889">
  <ele>1583.01</ele>
  <time>2026-08-28T17:48:25Z</time>
  <course>247.16</course>
  <speed>0.022360679774997897</speed>
  <fix>3d</fix>
</trkpt>
<trkpt lat="40.0713749" lon="-105.229789">
  <ele>1583.0</ele>
  <time>2026-08-28T17:48:25Z</time>
  <course>0.0</course>
  <speed>0.0</speed>
  <fix>3d</fix>
</trkpt>
<trkpt lat="40.071375" lon="-105.2297889">
  <ele>1583.01</ele>
  <time>2026-08-28T17:48:25Z</time>
  <course>247.16</course>
  <speed>0.022360679774997897</speed>
  <fix>3d</fix>
</trkpt>
<trkpt lat="40.0713749" lon="-105.229789">
  <ele>1583.0</ele>
  <time>2026-08-28T17:48:25Z</time>
  <course>0.0</course>
  <speed>0.0</speed>
  <fix>3d</fix>
</trkpt>
<trkpt lat="40.071375" lon="-105.2297889">
  <ele>1583.01</ele>
  <time>2026-08-28T17:48:25Z</time>
  <course>247.16</course>
  <speed>0.022360679774997897</speed>
  <fix>3d</fix>
</trkpt>
<trkpt lat="40.0713749" lon="-105.229789">
  <ele>1583.0</ele>
  <time>2026-08-28T17:48:25Z</time>
  <course>0.0</course>
  <speed>0.0</speed>
  <fix>3d</fix>
</trkpt>
<trkpt lat="40.071375" lon="-105.2297889">
  <ele>1583.01</ele>
  <time>2026-08-28T17:48:25Z</time>
  <course>247.16</course>
  <speed>0.022360679774997897</speed>
  <fix>3d</fix>
</trkpt>
<trkpt lat="40.0713749" lon="-105.229789">
  <ele>1583.0</ele>
  <time>2026-08-28T17:48:25Z</time>
  <course>0.0</course>
  <speed>0.0</speed>
  <fix>3d</fix>
</trkpt>
<trkpt lat="40.071375" lon="-105.2297889">
  <ele>1583.02</ele>
  <time>2026-08-28T17:48:25Z</time>
  <course>247.16</course>
  <speed>0.022360679774997897</speed>
  <fix>3d</fix>
</trkpt>
<trkpt lat="40.0713749" lon="-105.229789">
  <ele>1583.0</ele>
  <time>2026-08-28T17:48:25Z</time>
  <course>0.0</course>
  <speed>0.0</speed>
  <fix>3d</fix>
</trkpt>
<trkpt lat="40.071375" lon="-105.2297889">
  <ele>1583.02</ele>
  <time>2026-08-28T17:48:25Z</time>
  <course>247.16</course>
  <speed>0.022360679774997897</speed>
  <fix>3d</fix>
</trkpt>
<trkpt lat="40.0713749" lon="-105.229789">
  <ele>1583.0</ele>
  <time>2026-08-28T17:48:25Z</time>
  <course>0.0</course>
  <speed>0.0</speed>
  <fix>3d</fix>
</trkpt>
<trkpt lat="40.071375" lon="-105.2297889">
  <ele>1583.03</ele>
  <time>2026-08-28T17:48:25Z</time>
  <course>247.16</course>
  <speed>0.022360679774997897</speed>
  <fix>3d</fix>
</trkpt>
<trkpt lat="40.0713749" lon="-105.229789">
  <ele>1583.0</ele>
  <time>2026-08-28T17:48:25Z</time>
  <course>0.0</course>
  <speed>0.0</speed>
  <fix>3d</fix>
</trkpt>
<trkpt lat="40.071375" lon="-105.2297889">
  <ele>1583.03</ele>
  <time>2026-08-28T17:48:25Z</time>
  <course>247.16</course>
  <speed>0.022360679774997897</speed>
  <fix>3d</fix>
</trkpt>
<trkpt lat="40.0713749" lon="-105.229789">
  <ele>1583.0</ele>
  <time>2026-08-28T17:48:25Z</time>
  <course>0.0</course>
  <speed>0.0</speed>
  <fix>3d</fix>
</trkpt>
<trkpt lat="40.071375" lon="-105.2297889">
  <ele>1583.03</ele>
  <time>2026-08-28T17:48:25Z</time>
  <course>247.16</course>
  <speed>0.022360679774997897</speed>
  <fix>3d</fix>
</trkpt>
<trkpt lat="40.0713749" lon="-105.229789">
  <ele>1583.0</ele>
  <time>2026-08-28T17:48:25Z</time>
  <course>0.0</course>
  <speed>0.0</speed>
  <fix>3d</fix>
</trkpt>
<trkpt lat="40.0713751" lon="-105.2297889">
  <ele>1583.03</ele>
  <time>2026-08-28T17:48:25Z</time>
  <course>247.16</course>
  <speed>0.022360679774997897</speed>
  <fix>3d</fix>
</trkpt>
<trkpt lat="40.0713749" lon="-105.229789">
  <ele>1583.0</ele>
  <time>2026-08-28T17:48:25Z</time>
  <course>0.0</course>
  <speed>0.0</speed>
  <fix>3d</fix>
</trkpt>
<trkpt lat="40.071375" lon="-105.2297889">
  <ele>1583.03</ele>
  <time>2026-08-28T17:48:25Z</time>
  <course>247.16</course>
  <speed>0.022360679774997897</speed>
  <fix>3d</fix>
</trkpt>
<trkpt lat="40.0713749" lon="-105.229789">
  <ele>1583.0</ele>
  <time>2026-08-28T17:48:25Z</time>
  <course>0.0</course>
  <speed>0.0</speed>
  <fix>3d</fix>
</trkpt>
<trkpt lat="40.071375" lon="-105.2297889">
  <ele>1583.03</ele>
  <time>2026-08-28T17:48:25Z</time>
  <course>247.16</course>
  <speed>0.022360679774997897</speed>
  <fix>3d</fix>
</trkpt>
<trkpt lat="40.0713749" lon="-105.229789">
  <ele>1583.0</ele>
  <time>2026-08-28T17:48:25Z</time>
  <course>0.0</course>
  <speed>0.0</speed>
  <fix>3d</fix>
</trkpt>
<trkpt lat="40.071375" lon="-105.2297889">
  <ele>1583.03</ele>
  <time>2026-08-28T17:48:25Z</time>
  <course>247.16</course>
  <speed>0.022360679774997897</speed>
  <fix>3d</fix>
</trkpt>
<trkpt lat="40.0713749" lon="-105.229789">
  <ele>1583.0</ele>
  <time>2026-08-28T17:48:25Z</time>
  <course>0.0</course>
  <speed>0.0</speed>
  <fix>3d</fix>
</trkpt>
<trkpt lat="40.071375" lon="-105.2297889">
  <ele>1583.03</ele>
  <time>2026-08-28T17:48:25Z</time>
  <course>247.16</course>
  <speed>0.022360679774997897</speed>
  <fix>3d</fix>
</trkpt>
<trkpt lat="40.0713749" lon="-105.229789">
  <ele>1583.0</ele>
  <time>2026-08-28T17:48:25Z</time>
  <course>0.0</course>
  <speed>0.0</speed>
  <fix>3d</fix>
</trkpt>
<trkpt lat="40.071375" lon="-105.2297889">
  <ele>1583.03</ele>
  <time>2026-08-28T17:48:25Z</time>
  <course>247.16</course>
  <speed>0.022360679774997897</speed>
  <fix>3d</fix>
</trkpt>
<trkpt lat="40.0713749" lon="-105.229789">
  <ele>1583.0</ele>
  <time>2026-08-28T17:48:25Z</time>
  <course>0.0</course>
  <speed>0.0</speed>
  <fix>3d</fix>
</trkpt>
<trkpt lat="40.071375" lon="-105.2297889">
  <ele>1583.02</ele>
  <time>2026-08-28T17:48:25Z</time>
  <course>247.16</course>
  <speed>0.022360679774997897</speed>
  <fix>3d</fix>
</trkpt>
<trkpt lat="40.0713749" lon="-105.229789">
  <ele>1583.0</ele>
  <time>2026-08-28T17:48:25Z</time>
  <course>0.0</course>
  <speed>0.0</speed>
  <fix>3d</fix>
</trkpt>
<trkpt lat="40.071375" lon="-105.2297889">
  <ele>1583.02</ele>
  <time>2026-08-28T17:48:25Z</time>
  <course>247.16</course>
  <speed>0.022360679774997897</speed>
  <fix>3d</fix>
</trkpt>
<trkpt lat="40.0713749" lon="-105.229789">
  <ele>1583.0</ele>
  <time>2026-08-28T17:48:25Z</time>
  <course>0.0</course>
  <speed>0.0</speed>
  <fix>3d</fix>
</trkpt>
<trkpt lat="40.071375" lon="-105.2297889">
  <ele>1583.01</ele>
  <time>2026-08-28T17:48:25Z</time>
  <course>247.15</course>
  <speed>0.022360679774997897</speed>
  <fix>3d</fix>
</trkpt>
<trkpt lat="40.0713749" lon="-105.229789">
  <ele>1583.0</ele>
  <time>2026-08-28T17:48:25Z</time>
  <course>0.0</course>
  <speed>0.0</speed>
  <fix>3d</fix>
</trkpt>
<trkpt lat="40.071375" lon="-105.2297889">
  <ele>1583.01</ele>
  <time>2026-08-28T17:48:25Z</time>
  <course>247.15</course>
  <speed>0.022360679774997897</speed>
  <fix>3d</fix>
</trkpt>
<trkpt lat="40.0713749" lon="-105.229789">
  <ele>1583.0</ele>
  <time>2026-08-28T17:48:25Z</time>
  <course>0.0</course>
  <speed>0.0</speed>
  <fix>3d</fix>
</trkpt>
<trkpt lat="40.071375" lon="-105.2297889">
  <ele>1583.02</ele>
  <time>2026-08-28T17:48:25Z</time>
  <course>247.15</course>
  <speed>0.022360679774997897</speed>
  <fix>3d</fix>
</trkpt>
<trkpt lat="40.0713749" lon="-105.229789">
  <ele>1583.0</ele>
  <time>2026-08-28T17:48:25Z</time>
  <course>0.0</course>
  <speed>0.0</speed>
  <fix>3d</fix>
</trkpt>
<trkpt lat="40.071375" lon="-105.2297889">
  <ele>1583.02</ele>
  <time>2026-08-28T17:48:25Z</time>
  <course>247.15</course>
  <speed>0.022360679774997897</speed>
  <fix>3d</fix>
</trkpt>
<trkpt lat="40.0713749" lon="-105.229789">
  <ele>1583.0</ele>
  <time>2026-08-28T17:48:25Z</time>
  <course>0.0</course>
  <speed>0.0</speed>
  <fix>3d</fix>
</trkpt>
<trkpt lat="40.071375" lon="-105.2297889">
  <ele>1583.02</ele>
  <time>2026-08-28T17:48:25Z</time>
  <course>247.15</course>
  <speed>0.022360679774997897</speed>
  <fix>3d</fix>
</trkpt>
<trkpt lat="40.0713749" lon="-105.229789">
  <ele>1583.0</ele>
  <time>2026-08-28T17:48:25Z</time>
  <course>0.0</course>
  <speed>0.0</speed>
  <fix>3d</fix>
</trkpt>
<trkpt lat="40.071375" lon="-105.2297889">
  <ele>1583.02</ele>
  <time>2026-08-28T17:48:25Z</time>
  <course>247.15</course>
  <speed>0.022360679774997897</speed>
  <fix>3d</fix>
</trkpt>
<trkpt lat="40.0713749" lon="-105.229789">
  <ele>1583.0</ele>
  <time>2026-08-28T17:48:25Z</time>
  <course>0.0</course>
  <speed>0.0</speed>
  <fix>3d</fix>
</trkpt>
<trkpt lat="40.071375" lon="-105.2297889">
  <ele>1583.02</ele>
  <time>2026-08-28T17:48:25Z</time>
  <course>247.15</course>
  <speed>0.022360679774997897</speed>
  <fix>3d</fix>
</trkpt>
<trkpt lat="40.0713749" lon="-105.229789">
  <ele>1583.0</ele>
  <time>2026-08-28T17:48:25Z</time>
  <course>0.0</course>
  <speed>0.0</speed>
  <fix>3d</fix>
</trkpt>
<trkpt lat="40.071375" lon="-105.2297889">
  <ele>1583.02</ele>
  <time>2026-08-28T17:48:25Z</time>
  <course>247.15</course>
  <speed>0.022360679774997897</speed>
  <fix>3d</fix>
</trkpt>
<trkpt lat="40.0713749" lon="-105.229789">
  <ele>1583.0</ele>
  <time>2026-08-28T17:48:25Z</time>
  <course>0.0</course>
  <speed>0.0</speed>
  <fix>3d</fix>
</trkpt>
<trkpt lat="40.071375" lon="-105.2297889">
  <ele>1583.03</ele>
  <time>2026-08-28T17:48:25Z</time>
  <course>247.15</course>
  <speed>0.022360679774997897</speed>
  <fix>3d</fix>
</trkpt>
<trkpt lat="40.0713749" lon="-105.229789">
  <ele>1583.0</ele>
  <time>2026-08-28T17:48:25Z</time>
  <course>0.0</course>
  <speed>0.0</speed>
  <fix>3d</fix>
</trkpt>
<trkpt lat="40.071375" lon="-105.2297889">
  <ele>1583.03</ele>
  <time>2026-08-28T17:48:25Z</time>
  <course>247.15</course>
  <speed>0.022360679774997897</speed>
  <fix>3d</fix>
</trkpt>
<trkpt lat="40.0713749" lon="-105.229789">
  <ele>1583.0</ele>
  <time>2026-08-28T17:48:25Z</time>
  <course>0.0</course>
  <speed>0.0</speed>
  <fix>3d</fix>
</trkpt>
<trkpt lat="40.071375" lon="-105.2297889">
  <ele>1583.03</ele>
  <time>2026-08-28T17:48:25Z</time>
  <course>247.15</course>
  <speed>0.022360679774997897</speed>
  <fix>3d</fix>
</trkpt>
<trkpt lat="40.0713749" lon="-105.229789">
  <ele>1583.0</ele>
  <time>2026-08-28T17:48:25Z</time>
  <course>0.0</course>
  <speed>0.0</speed>
  <fix>3d</fix>
</trkpt>
<trkpt lat="40.071375" lon="-105.2297889">
  <ele>1583.04</ele>
  <time>2026-08-28T17:48:25Z</time>
  <course>247.15</course>
  <speed>0.022360679774997897</speed>
  <fix>3d</fix>
</trkpt>
<trkpt lat="40.0713749" lon="-105.229789">
  <ele>1583.0</ele>
  <time>2026-08-28T17:48:25Z</time>
  <course>0.0</course>
  <speed>0.0</speed>
  <fix>3d</fix>
</trkpt>
<trkpt lat="40.0713751" lon="-105.2297889">
  <ele>1583.04</ele>
  <time>2026-08-28T17:48:25Z</time>
  <course>247.15</course>
  <speed>0.022360679774997897</speed>
  <fix>3d</fix>
</trkpt>
<trkpt lat="40.0713749" lon="-105.229789">
  <ele>1583.0</ele>
  <time>2026-08-28T17:48:25Z</time>
  <course>0.0</course>
  <speed>0.0</speed>
  <fix>3d</fix>
</trkpt>
<trkpt lat="40.071375" lon="-105.2297889">
  <ele>1583.04</ele>
  <time>2026-08-28T17:48:25Z</time>
  <course>247.15</course>
  <speed>0.022360679774997897</speed>
  <fix>3d</fix>
</trkpt>
<trkpt lat="40.0713749" lon="-105.229789">
  <ele>1583.0</ele>
  <time>2026-08-28T17:48:25Z</time>
  <course>0.0</course>
  <speed>0.0</speed>
  <fix>3d</fix>
</trkpt>
<trkpt lat="40.0713751" lon="-105.2297889">
  <ele>1583.03</ele>
  <time>2026-08-28T17:48:25Z</time>
  <course>247.15</course>
  <speed>0.022360679774997897</speed>
  <fix>3d</fix>
</trkpt>
<trkpt lat="40.0713749" lon="-105.229789">
  <ele>1583.0</ele>
  <time>2026-08-28T17:48:25Z</time>
  <course>0.0</course>
  <speed>0.0</speed>
  <fix>3d</fix>
</trkpt>
<trkpt lat="40.071375" lon="-105.2297889">
  <ele>1583.03</ele>
  <time>2026-08-28T17:48:25Z</time>
  <course>247.15</course>
  <speed>0.022360679774997897</speed>
  <fix>3d</fix>
</trkpt>
<trkpt lat="40.0713749" lon="-105.229789">
  <ele>1583.0</ele>
  <time>2026-08-28T17:48:25Z</time>
  <course>0.0</course>
  <speed>0.0</speed>
  <fix>3d</fix>
</trkpt>
<trkpt lat="40.071375" lon="-105.2297889">
  <ele>1583.03</ele>
  <time>2026-08-28T17:48:25Z</time>
  <course>247.15</course>
  <speed>0.022360679774997897</speed>
  <fix>3d</fix>
</trkpt>
<trkpt lat="40.0713749" lon="-105.229789">
  <ele>1583.0</ele>
  <time>2026-08-28T17:48:25Z</time>
  <course>0.0</course>
  <speed>0.0</speed>
  <fix>3d</fix>
</trkpt>
<trkpt lat="40.071375" lon="-105.2297889">
  <ele>1583.03</ele>
  <time>2026-08-28T17:48:25Z</time>
  <course>247.15</course>
  <speed>0.022360679774997897</speed>
  <fix>3d</fix>
</trkpt>
<trkpt lat="40.0713749" lon="-105.229789">
  <ele>1583.0</ele>
  <time>2026-08-28T17:48:25Z</time>
  <course>0.0</course>
  <speed>0.0</speed>
  <fix>3d</fix>
</trkpt>
<trkpt lat="40.071375" lon="-105.2297889">
  <ele>1583.02</ele>
  <time>2026-08-28T17:48:25Z</time>
  <course>247.15</course>
  <speed>0.022360679774997897</speed>
  <fix>3d</fix>
</trkpt>
<trkpt lat="40.0713749" lon="-105.229789">
  <ele>1583.0</ele>
  <time>2026-08-28T17:48:25Z</time>
  <course>0.0</course>
  <speed>0.0</speed>
  <fix>3d</fix>
</trkpt>
<trkpt lat="40.071375" lon="-105.2297889">
  <ele>1583.02</ele>
  <time>2026-08-28T17:48:25Z</time>
  <course>247.15</course>
  <speed>0.022360679774997897</speed>
  <fix>3d</fix>
</trkpt>
<trkpt lat="40.0713749" lon="-105.229789">
  <ele>1583.0</ele>
  <time>2026-08-28T17:48:25Z</time>
  <course>0.0</course>
  <speed>0.0</speed>
  <fix>3d</fix>
</trkpt>
<trkpt lat="40.071375" lon="-105.2297889">
  <ele>1583.02</ele>
  <time>2026-08-28T17:48:25Z</time>
  <course>247.14</course>
  <speed>0.022360679774997897</speed>
  <fix>3d</fix>
</trkpt>
<trkpt lat="40.0713749" lon="-105.229789">
  <ele>1583.0</ele>
  <time>2026-08-28T17:48:25Z</time>
  <course>0.0</course>
  <speed>0.0</speed>
  <fix>3d</fix>
</trkpt>
<trkpt lat="40.071375" lon="-105.2297889">
  <ele>1583.02</ele>
  <time>2026-08-28T17:48:25Z</time>
  <course>247.14</course>
  <speed>0.022360679774997897</speed>
  <fix>3d</fix>
</trkpt>
<trkpt lat="40.0713749" lon="-105.229789">
  <ele>1583.0</ele>
  <time>2026-08-28T17:48:25Z</time>
  <course>0.0</course>
  <speed>0.0</speed>
  <fix>3d</fix>
</trkpt>
<trkpt lat="40.071375" lon="-105.2297889">
  <ele>1583.02</ele>
  <time>2026-08-28T17:48:25Z</time>
  <course>247.14</course>
  <speed>0.022360679774997897</speed>
  <fix>3d</fix>
</trkpt>
<trkpt lat="40.0713749" lon="-105.229789">
  <ele>1583.0</ele>
  <time>2026-08-28T17:48:25Z</time>
  <course>0.0</course>
  <speed>0.0</speed>
  <fix>3d</fix>
</trkpt>
<trkpt lat="40.071375" lon="-105.2297889">
  <ele>1583.02</ele>
  <time>2026-08-28T17:48:25Z</time>
  <course>247.14</course>
  <speed>0.022360679774997897</speed>
  <fix>3d</fix>
</trkpt>
<trkpt lat="40.0713749" lon="-105.229789">
  <ele>1583.0</ele>
  <time>2026-08-28T17:48:25Z</time>
  <course>0.0</course>
  <speed>0.0</speed>
  <fix>3d</fix>
</trkpt>
<trkpt lat="40.071375" lon="-105.2297889">
  <ele>1583.02</ele>
  <time>2026-08-28T17:48:25Z</time>
  <course>247.14</course>
  <speed>0.022360679774997897</speed>
  <fix>3d</fix>
</trkpt>
<trkpt lat="40.0713749" lon="-105.229789">
  <ele>1583.0</ele>
  <time>2026-08-28T17:48:25Z</time>
  <course>0.0</course>
  <speed>0.0</speed>
  <fix>3d</fix>
</trkpt>
<trkpt lat="40.071375" lon="-105.2297889">
  <ele>1583.02</ele>
  <time>2026-08-28T17:48:25Z</time>
  <course>247.14</course>
  <speed>0.022360679774997897</speed>
  <fix>3d</fix>
</trkpt>
<trkpt lat="40.0713749" lon="-105.229789">
  <ele>1583.0</ele>
  <time>2026-08-28T17:48:25Z</time>
  <course>0.0</course>
  <speed>0.0</speed>
  <fix>3d</fix>
</trkpt>
<trkpt lat="40.071375" lon="-105.2297889">
  <ele>1583.03</ele>
  <time>2026-08-28T17:48:25Z</time>
  <course>247.14</course>
  <speed>0.022360679774997897</speed>
  <fix>3d</fix>
</trkpt>
<trkpt lat="40.0713749" lon="-105.229789">
  <ele>1583.0</ele>
  <time>2026-08-28T17:48:25Z</time>
  <course>0.0</course>
  <speed>0.0</speed>
  <fix>3d</fix>
</trkpt>
<trkpt lat="40.071375" lon="-105.2297889">
  <ele>1583.03</ele>
  <time>2026-08-28T17:48:25Z</time>
  <course>247.14</course>
  <speed>0.022360679774997897</speed>
  <fix>3d</fix>
</trkpt>
<trkpt lat="40.0713749" lon="-105.229789">
  <ele>1583.0</ele>
  <time>2026-08-28T17:48:25Z</time>
  <course>0.0</course>
  <speed>0.0</speed>
  <fix>3d</fix>
</trkpt>
<trkpt lat="40.071375" lon="-105.2297889">
  <ele>1583.03</ele>
  <time>2026-08-28T17:48:25Z</time>
  <course>247.14</course>
  <speed>0.022360679774997897</speed>
  <fix>3d</fix>
</trkpt>
<trkpt lat="40.0713749" lon="-105.229789">
  <ele>1583.0</ele>
  <time>2026-08-28T17:48:25Z</time>
  <course>0.0</course>
  <speed>0.0</speed>
  <fix>3d</fix>
</trkpt>
<trkpt lat="40.071375" lon="-105.2297889">
  <ele>1583.03</ele>
  <time>2026-08-28T17:48:25Z</time>
  <course>247.14</course>
  <speed>0.022360679774997897</speed>
  <fix>3d</fix>
</trkpt>
<trkpt lat="40.0713749" lon="-105.229789">
  <ele>1583.0</ele>
  <time>2026-08-28T17:48:25Z</time>
  <course>0.0</course>
  <speed>0.0</speed>
  <fix>3d</fix>
</trkpt>
<trkpt lat="40.071375" lon="-105.2297889">
  <ele>1583.03</ele>
  <time>2026-08-28T17:48:25Z</time>
  <course>247.14</course>
  <speed>0.022360679774997897</speed>
  <fix>3d</fix>
</trkpt>
<trkpt lat="40.0713749" lon="-105.229789">
  <ele>1583.0</ele>
  <time>2026-08-28T17:48:25Z</time>
  <course>0.0</course>
  <speed>0.0</speed>
  <fix>3d</fix>
</trkpt>
<trkpt lat="40.071375" lon="-105.2297889">
  <ele>1583.03</ele>
  <time>2026-08-28T17:48:25Z</time>
  <course>247.14</course>
  <speed>0.022360679774997897</speed>
  <fix>3d</fix>
</trkpt>
<trkpt lat="40.0713749" lon="-105.229789">
  <ele>1583.0</ele>
  <time>2026-08-28T17:48:25Z</time>
  <course>0.0</course>
  <speed>0.0</speed>
  <fix>3d</fix>
</trkpt>
<trkpt lat="40.0713751" lon="-105.2297889">
  <ele>1583.03</ele>
  <time>2026-08-28T17:48:25Z</time>
  <course>247.14</course>
  <speed>0.022360679774997897</speed>
  <fix>3d</fix>
</trkpt>
<trkpt lat="40.0713749" lon="-105.229789">
  <ele>1583.0</ele>
  <time>2026-08-28T17:48:25Z</time>
  <course>0.0</course>
  <speed>0.0</speed>
  <fix>3d</fix>
</trkpt>
<trkpt lat="40.071375" lon="-105.2297889">
  <ele>1583.02</ele>
  <time>2026-08-28T17:48:25Z</time>
  <course>247.14</course>
  <speed>0.022360679774997897</speed>
  <fix>3d</fix>
</trkpt>
<trkpt lat="40.0713749" lon="-105.229789">
  <ele>1583.0</ele>
  <time>2026-08-28T17:48:25Z</time>
  <course>0.0</course>
  <speed>0.0</speed>
  <fix>3d</fix>
</trkpt>
<trkpt lat="40.0713751" lon="-105.2297889">
  <ele>1583.01</ele>
  <time>2026-08-28T17:48:25Z</time>
  <course>247.14</course>
  <speed>0.022360679774997897</speed>
  <fix>3d</fix>
</trkpt>
<trkpt lat="40.0713749" lon="-105.229789">
  <ele>1583.0</ele>
  <time>2026-08-28T17:48:25Z</time>
  <course>0.0</course>
  <speed>0.0</speed>
  <fix>3d</fix>
</trkpt>
<trkpt lat="40.071375" lon="-105.2297889">
  <ele>1583.0</ele>
  <time>2026-08-28T17:48:25Z</time>
  <course>247.14</course>
  <speed>0.022360679774997897</speed>
  <fix>3d</fix>
</trkpt>
<trkpt lat="40.0713749" lon="-105.229789">
  <ele>1583.0</ele>
  <time>2026-08-28T17:48:25Z</time>
  <course>0.0</course>
  <speed>0.0</speed>
  <fix>3d</fix>
</trkpt>
<trkpt lat="40.0713751" lon="-105.2297889">
  <ele>1582.99</ele>
  <time>2026-08-28T17:48:25Z</time>
  <course>247.14</course>
  <speed>0.022360679774997897</speed>
  <fix>3d</fix>
</trkpt>
<trkpt lat="40.0713749" lon="-105.229789">
  <ele>1583.0</ele>
  <time>2026-08-28T17:48:25Z</time>
  <course>0.0</course>
  <speed>0.0</speed>
  <fix>3d</fix>
</trkpt>
<trkpt lat="40.071375" lon="-105.2297889">
  <ele>1582.99</ele>
  <time>2026-08-28T17:48:25Z</time>
  <course>247.14</course>
  <speed>0.022360679774997897</speed>
  <fix>3d</fix>
</trkpt>
<trkpt lat="40.0713749" lon="-105.229789">
  <ele>1583.0</ele>
  <time>2026-08-28T17:48:25Z</time>
  <course>0.0</course>
  <speed>0.0</speed>
  <fix>3d</fix>
</trkpt>
<trkpt lat="40.071375" lon="-105.2297889">
  <ele>1582.99</ele>
  <time>2026-08-28T17:48:25Z</time>
  <course>247.14</course>
  <speed>0.022360679774997897</speed>
  <fix>3d</fix>
</trkpt>
<trkpt lat="40.0713749" lon="-105.229789">
  <ele>1583.0</ele>
  <time>2026-08-28T17:48:25Z</time>
  <course>0.0</course>
  <speed>0.0</speed>
  <fix>3d</fix>
</trkpt>
<trkpt lat="40.071375" lon="-105.2297889">
  <ele>1582.98</ele>
  <time>2026-08-28T17:48:25Z</time>
  <course>247.13</course>
  <speed>0.022360679774997897</speed>
  <fix>3d</fix>
</trkpt>
<trkpt lat="40.0713749" lon="-105.229789">
  <ele>1583.0</ele>
  <time>2026-08-28T17:48:25Z</time>
  <course>0.0</course>
  <speed>0.0</speed>
  <fix>3d</fix>
</trkpt>
<trkpt lat="40.071375" lon="-105.2297889">
  <ele>1582.98</ele>
  <time>2026-08-28T17:48:25Z</time>
  <course>247.13</course>
  <speed>0.022360679774997897</speed>
  <fix>3d</fix>
</trkpt>
<trkpt lat="40.0713749" lon="-105.229789">
  <ele>1583.0</ele>
  <time>2026-08-28T17:48:25Z</time>
  <course>0.0</course>
  <speed>0.0</speed>
  <fix>3d</fix>
</trkpt>
<trkpt lat="40.071375" lon="-105.2297889">
  <ele>1582.97</ele>
  <time>2026-08-28T17:48:25Z</time>
  <course>247.13</course>
  <speed>0.022360679774997897</speed>
  <fix>3d</fix>
</trkpt>
<trkpt lat="40.0713749" lon="-105.229789">
  <ele>1583.0</ele>
  <time>2026-08-28T17:48:25Z</time>
  <course>0.0</course>
  <speed>0.0</speed>
  <fix>3d</fix>
</trkpt>
<trkpt lat="40.071375" lon="-105.2297889">
  <ele>1582.97</ele>
  <time>2026-08-28T17:48:25Z</time>
  <course>247.13</course>
  <speed>0.022360679774997897</speed>
  <fix>3d</fix>
</trkpt>
<trkpt lat="40.0713749" lon="-105.229789">
  <ele>1583.0</ele>
  <time>2026-08-28T17:48:25Z</time>
  <course>0.0</course>
  <speed>0.0</speed>
  <fix>3d</fix>
</trkpt>
<trkpt lat="40.071375" lon="-105.2297889">
  <ele>1582.96</ele>
  <time>2026-08-28T17:48:25Z</time>
  <course>247.13</course>
  <speed>0.022360679774997897</speed>
  <fix>3d</fix>
</trkpt>
<trkpt lat="40.0713749" lon="-105.229789">
  <ele>1583.0</ele>
  <time>2026-08-28T17:48:25Z</time>
  <course>0.0</course>
  <speed>0.0</speed>
  <fix>3d</fix>
</trkpt>
<trkpt lat="40.071375" lon="-105.2297889">
  <ele>1582.95</ele>
  <time>2026-08-28T17:48:25Z</time>
  <course>247.13</course>
  <speed>0.022360679774997897</speed>
  <fix>3d</fix>
</trkpt>
<trkpt lat="40.0713749" lon="-105.229789">
  <ele>1583.0</ele>
  <time>2026-08-28T17:48:25Z</time>
  <course>0.0</course>
  <speed>0.0</speed>
  <fix>3d</fix>
</trkpt>
<trkpt lat="40.071375" lon="-105.2297889">
  <ele>1582.95</ele>
  <time>2026-08-28T17:48:25Z</time>
  <course>247.13</course>
  <speed>0.022360679774997897</speed>
  <fix>3d</fix>
</trkpt>
<trkpt lat="40.0713749" lon="-105.229789">
  <ele>1583.0</ele>
  <time>2026-08-28T17:48:25Z</time>
  <course>0.0</course>
  <speed>0.0</speed>
  <fix>3d</fix>
</trkpt>
<trkpt lat="40.071375" lon="-105.2297889">
  <ele>1582.95</ele>
  <time>2026-08-28T17:48:25Z</time>
  <course>247.13</course>
  <speed>0.022360679774997897</speed>
  <fix>3d</fix>
</trkpt>
<trkpt lat="40.0713749" lon="-105.229789">
  <ele>1583.0</ele>
  <time>2026-08-28T17:48:25Z</time>
  <course>0.0</course>
  <speed>0.0</speed>
  <fix>3d</fix>
</trkpt>
<trkpt lat="40.071375" lon="-105.2297889">
  <ele>1582.95</ele>
  <time>2026-08-28T17:48:25Z</time>
  <course>247.13</course>
  <speed>0.022360679774997897</speed>
  <fix>3d</fix>
</trkpt>
<trkpt lat="40.0713749" lon="-105.229789">
  <ele>1583.0</ele>
  <time>2026-08-28T17:48:25Z</time>
  <course>0.0</course>
  <speed>0.0</speed>
  <fix>3d</fix>
</trkpt>
<trkpt lat="40.071375" lon="-105.2297889">
  <ele>1582.95</ele>
  <time>2026-08-28T17:48:25Z</time>
  <course>247.13</course>
  <speed>0.022360679774997897</speed>
  <fix>3d</fix>
</trkpt>
<trkpt lat="40.0713749" lon="-105.229789">
  <ele>1583.0</ele>
  <time>2026-08-28T17:48:25Z</time>
  <course>0.0</course>
  <speed>0.0</speed>
  <fix>3d</fix>
</trkpt>
<trkpt lat="40.071375" lon="-105.2297889">
  <ele>1582.95</ele>
  <time>2026-08-28T17:48:25Z</time>
  <course>247.13</course>
  <speed>0.022360679774997897</speed>
  <fix>3d</fix>
</trkpt>
<trkpt lat="40.0713749" lon="-105.229789">
  <ele>1583.0</ele>
  <time>2026-08-28T17:48:25Z</time>
  <course>0.0</course>
  <speed>0.0</speed>
  <fix>3d</fix>
</trkpt>
<trkpt lat="40.071375" lon="-105.2297889">
  <ele>1582.96</ele>
  <time>2026-08-28T17:48:25Z</time>
  <course>247.13</course>
  <speed>0.022360679774997897</speed>
  <fix>3d</fix>
</trkpt>
<trkpt lat="40.0713749" lon="-105.229789">
  <ele>1583.0</ele>
  <time>2026-08-28T17:48:25Z</time>
  <course>0.0</course>
  <speed>0.0</speed>
  <fix>3d</fix>
</trkpt>
<trkpt lat="40.071375" lon="-105.2297889">
  <ele>1582.96</ele>
  <time>2026-08-28T17:48:25Z</time>
  <course>247.13</course>
  <speed>0.022360679774997897</speed>
  <fix>3d</fix>
</trkpt>
<trkpt lat="40.0713749" lon="-105.229789">
  <ele>1583.0</ele>
  <time>2026-08-28T17:48:25Z</time>
  <course>0.0</course>
  <speed>0.0</speed>
  <fix>3d</fix>
</trkpt>
<trkpt lat="40.071375" lon="-105.2297889">
  <ele>1582.97</ele>
  <time>2026-08-28T17:48:25Z</time>
  <course>247.13</course>
  <speed>0.022360679774997897</speed>
  <fix>3d</fix>
</trkpt>
<trkpt lat="40.0713749" lon="-105.229789">
  <ele>1583.0</ele>
  <time>2026-08-28T17:48:25Z</time>
  <course>0.0</course>
  <speed>0.0</speed>
  <fix>3d</fix>
</trkpt>
<trkpt lat="40.071375" lon="-105.2297889">
  <ele>1582.97</ele>
  <time>2026-08-28T17:48:25Z</time>
  <course>247.13</course>
  <speed>0.022360679774997897</speed>
  <fix>3d</fix>
</trkpt>
<trkpt lat="40.0713749" lon="-105.229789">
  <ele>1583.0</ele>
  <time>2026-08-28T17:48:25Z</time>
  <course>0.0</course>
  <speed>0.0</speed>
  <fix>3d</fix>
</trkpt>
<trkpt lat="40.071375" lon="-105.2297889">
  <ele>1582.98</ele>
  <time>2026-08-28T17:48:25Z</time>
  <course>247.13</course>
  <speed>0.022360679774997897</speed>
  <fix>3d</fix>
</trkpt>
<trkpt lat="40.0713749" lon="-105.229789">
  <ele>1583.0</ele>
  <time>2026-08-28T17:48:25Z</time>
  <course>0.0</course>
  <speed>0.0</speed>
  <fix>3d</fix>
</trkpt>
<trkpt lat="40.071375" lon="-105.2297889">
  <ele>1582.99</ele>
  <time>2026-08-28T17:48:25Z</time>
  <course>247.13</course>
  <speed>0.022360679774997897</speed>
  <fix>3d</fix>
</trkpt>
<trkpt lat="40.0713749" lon="-105.229789">
  <ele>1583.0</ele>
  <time>2026-08-28T17:48:25Z</time>
  <course>0.0</course>
  <speed>0.0</speed>
  <fix>3d</fix>
</trkpt>
<trkpt lat="40.071375" lon="-105.2297889">
  <ele>1582.99</ele>
  <time>2026-08-28T17:48:25Z</time>
  <course>247.13</course>
  <speed>0.022360679774997897</speed>
  <fix>3d</fix>
</trkpt>
<trkpt lat="40.0713749" lon="-105.229789">
  <ele>1583.0</ele>
  <time>2026-08-28T17:48:25Z</time>
  <course>0.0</course>
  <speed>0.0</speed>
  <fix>3d</fix>
</trkpt>
<trkpt lat="40.071375" lon="-105.2297889">
  <ele>1583.0</ele>
  <time>2026-08-28T17:48:25Z</time>
  <course>247.13</course>
  <speed>0.022360679774997897</speed>
  <fix>3d</fix>
</trkpt>
<trkpt lat="40.0713749" lon="-105.229789">
  <ele>1583.0</ele>
  <time>2026-08-28T17:48:25Z</time>
  <course>0.0</course>
  <speed>0.0</speed>
  <fix>3d</fix>
</trkpt>
<trkpt lat="40.071375" lon="-105.2297889">
  <ele>1583.0</ele>
  <time>2026-08-28T17:48:25Z</time>
  <course>247.13</course>
  <speed>0.022360679774997897</speed>
  <fix>3d</fix>
</trkpt>
<trkpt lat="40.0713749" lon="-105.229789">
  <ele>1583.0</ele>
  <time>2026-08-28T17:48:25Z</time>
  <course>0.0</course>
  <speed>0.0</speed>
  <fix>3d</fix>
</trkpt>
<trkpt lat="40.071375" lon="-105.2297889">
  <ele>1583.01</ele>
  <time>2026-08-28T17:48:25Z</time>
  <course>247.13</course>
  <speed>0.022360679774997897</speed>
  <fix>3d</fix>
</trkpt>
<trkpt lat="40.0713749" lon="-105.229789">
  <ele>1583.0</ele>
  <time>2026-08-28T17:48:25Z</time>
  <course>0.0</course>
  <speed>0.0</speed>
  <fix>3d</fix>
</trkpt>
<trkpt lat="40.071375" lon="-105.2297889">
  <ele>1583.01</ele>
  <time>2026-08-28T17:48:25Z</time>
  <course>247.13</course>
  <speed>0.022360679774997897</speed>
  <fix>3d</fix>
</trkpt>
<trkpt lat="40.0713749" lon="-105.229789">
  <ele>1583.0</ele>
  <time>2026-08-28T17:48:25Z</time>
  <course>0.0</course>
  <speed>0.0</speed>
  <fix>3d</fix>
</trkpt>
<trkpt lat="40.071375" lon="-105.2297889">
  <ele>1583.01</ele>
  <time>2026-08-28T17:48:25Z</time>
  <course>247.13</course>
  <speed>0.022360679774997897</speed>
  <fix>3d</fix>
</trkpt>
<trkpt lat="40.0713749" lon="-105.229789">
  <ele>1583.0</ele>
  <time>2026-08-28T17:48:25Z</time>
  <course>0.0</course>
  <speed>0.0</speed>
  <fix>3d</fix>
</trkpt>
<trkpt lat="40.071375" lon="-105.2297889">
  <ele>1583.01</ele>
  <time>2026-08-28T17:48:25Z</time>
  <course>247.12</course>
  <speed>0.022360679774997897</speed>
  <fix>3d</fix>
</trkpt>
<trkpt lat="40.0713749" lon="-105.229789">
  <ele>1583.0</ele>
  <time>2026-08-28T17:48:25Z</time>
  <course>0.0</course>
  <speed>0.0</speed>
  <fix>3d</fix>
</trkpt>
<trkpt lat="40.071375" lon="-105.2297889">
  <ele>1583.0</ele>
  <time>2026-08-28T17:48:25Z</time>
  <course>247.12</course>
  <speed>0.022360679774997897</speed>
  <fix>3d</fix>
</trkpt>
<trkpt lat="40.0713749" lon="-105.229789">
  <ele>1583.0</ele>
  <time>2026-08-28T17:48:25Z</time>
  <course>0.0</course>
  <speed>0.0</speed>
  <fix>3d</fix>
</trkpt>
<trkpt lat="40.071375" lon="-105.2297889">
  <ele>1583.0</ele>
  <time>2026-08-28T17:48:25Z</time>
  <course>247.12</course>
  <speed>0.022360679774997897</speed>
  <fix>3d</fix>
</trkpt>
<trkpt lat="40.0713749" lon="-105.229789">
  <ele>1583.0</ele>
  <time>2026-08-28T17:48:25Z</time>
  <course>0.0</course>
  <speed>0.0</speed>
  <fix>3d</fix>
</trkpt>
<trkpt lat="40.071375" lon="-105.2297889">
  <ele>1583.0</ele>
  <time>2026-08-28T17:48:25Z</time>
  <course>247.12</course>
  <speed>0.022360679774997897</speed>
  <fix>3d</fix>
</trkpt>
<trkpt lat="40.0713749" lon="-105.229789">
  <ele>1583.0</ele>
  <time>2026-08-28T17:48:25Z</time>
  <course>0.0</course>
  <speed>0.0</speed>
  <fix>3d</fix>
</trkpt>
<trkpt lat="40.071375" lon="-105.2297889">
  <ele>1582.99</ele>
  <time>2026-08-28T17:48:25Z</time>
  <course>247.12</course>
  <speed>0.022360679774997897</speed>
  <fix>3d</fix>
</trkpt>
<trkpt lat="40.0713749" lon="-105.229789">
  <ele>1583.0</ele>
  <time>2026-08-28T17:48:25Z</time>
  <course>0.0</course>
  <speed>0.0</speed>
  <fix>3d</fix>
</trkpt>
<trkpt lat="40.071375" lon="-105.2297889">
  <ele>1582.99</ele>
  <time>2026-08-28T17:48:25Z</time>
  <course>247.12</course>
  <speed>0.022360679774997897</speed>
  <fix>3d</fix>
</trkpt>
<trkpt lat="40.0713749" lon="-105.229789">
  <ele>1583.0</ele>
  <time>2026-08-28T17:48:25Z</time>
  <course>0.0</course>
  <speed>0.0</speed>
  <fix>3d</fix>
</trkpt>
<trkpt lat="40.071375" lon="-105.2297889">
  <ele>1582.98</ele>
  <time>2026-08-28T17:48:25Z</time>
  <course>247.12</course>
  <speed>0.022360679774997897</speed>
  <fix>3d</fix>
</trkpt>
<trkpt lat="40.0713749" lon="-105.229789">
  <ele>1583.0</ele>
  <time>2026-08-28T17:48:25Z</time>
  <course>0.0</course>
  <speed>0.0</speed>
  <fix>3d</fix>
</trkpt>
<trkpt lat="40.071375" lon="-105.2297889">
  <ele>1582.98</ele>
  <time>2026-08-28T17:48:25Z</time>
  <course>247.12</course>
  <speed>0.022360679774997897</speed>
  <fix>3d</fix>
</trkpt>
<trkpt lat="40.0713749" lon="-105.229789">
  <ele>1583.0</ele>
  <time>2026-08-28T17:48:25Z</time>
  <course>0.0</course>
  <speed>0.0</speed>
  <fix>3d</fix>
</trkpt>
<trkpt lat="40.071375" lon="-105.2297889">
  <ele>1582.98</ele>
  <time>2026-08-28T17:48:25Z</time>
  <course>247.12</course>
  <speed>0.022360679774997897</speed>
  <fix>3d</fix>
</trkpt>
<trkpt lat="40.0713749" lon="-105.229789">
  <ele>1583.0</ele>
  <time>2026-08-28T17:48:25Z</time>
  <course>0.0</course>
  <speed>0.0</speed>
  <fix>3d</fix>
</trkpt>
<trkpt lat="40.071375" lon="-105.2297889">
  <ele>1582.97</ele>
  <time>2026-08-28T17:48:25Z</time>
  <course>247.12</course>
  <speed>0.022360679774997897</speed>
  <fix>3d</fix>
</trkpt>
<trkpt lat="40.0713749" lon="-105.229789">
  <ele>1583.0</ele>
  <time>2026-08-28T17:48:25Z</time>
  <course>0.0</course>
  <speed>0.0</speed>
  <fix>3d</fix>
</trkpt>
<trkpt lat="40.071375" lon="-105.2297889">
  <ele>1582.97</ele>
  <time>2026-08-28T17:48:25Z</time>
  <course>247.12</course>
  <speed>0.022360679774997897</speed>
  <fix>3d</fix>
</trkpt>
<trkpt lat="40.0713749" lon="-105.229789">
  <ele>1583.0</ele>
  <time>2026-08-28T17:48:25Z</time>
  <course>0.0</course>
  <speed>0.0</speed>
  <fix>3d</fix>
</trkpt>
<trkpt lat="40.071375" lon="-105.2297889">
  <ele>1582.96</ele>
  <time>2026-08-28T17:48:25Z</time>
  <course>247.12</course>
  <speed>0.022360679774997897</speed>
  <fix>3d</fix>
</trkpt>
<trkpt lat="40.0713749" lon="-105.229789">
  <ele>1583.0</ele>
  <time>2026-08-28T17:48:25Z</time>
  <course>0.0</course>
  <speed>0.0</speed>
  <fix>3d</fix>
</trkpt>
<trkpt lat="40.071375" lon="-105.2297889">
  <ele>1582.95</ele>
  <time>2026-08-28T17:48:25Z</time>
  <course>247.12</course>
  <speed>0.022360679774997897</speed>
  <fix>3d</fix>
</trkpt>
<trkpt lat="40.0713749" lon="-105.229789">
  <ele>1583.0</ele>
  <time>2026-08-28T17:48:25Z</time>
  <course>0.0</course>
  <speed>0.0</speed>
  <fix>3d</fix>
</trkpt>
<trkpt lat="40.071375" lon="-105.2297889">
  <ele>1582.94</ele>
  <time>2026-08-28T17:48:25Z</time>
  <course>247.12</course>
  <speed>0.022360679774997897</speed>
  <fix>3d</fix>
</trkpt>
<trkpt lat="40.0713749" lon="-105.229789">
  <ele>1583.0</ele>
  <time>2026-08-28T17:48:25Z</time>
  <course>0.0</course>
  <speed>0.0</speed>
  <fix>3d</fix>
</trkpt>
<trkpt lat="40.071375" lon="-105.2297889">
  <ele>1582.93</ele>
  <time>2026-08-28T17:48:25Z</time>
  <course>247.12</course>
  <speed>0.022360679774997897</speed>
  <fix>3d</fix>
</trkpt>
<trkpt lat="40.0713749" lon="-105.229789">
  <ele>1583.0</ele>
  <time>2026-08-28T17:48:25Z</time>
  <course>0.0</course>
  <speed>0.0</speed>
  <fix>3d</fix>
</trkpt>
<trkpt lat="40.071375" lon="-105.2297889">
  <ele>1582.93</ele>
  <time>2026-08-28T17:48:25Z</time>
  <course>247.12</course>
  <speed>0.022360679774997897</speed>
  <fix>3d</fix>
</trkpt>
<trkpt lat="40.0713749" lon="-105.229789">
  <ele>1583.0</ele>
  <time>2026-08-28T17:48:25Z</time>
  <course>0.0</course>
  <speed>0.0</speed>
  <fix>3d</fix>
</trkpt>
<trkpt lat="40.071375" lon="-105.2297889">
  <ele>1582.92</ele>
  <time>2026-08-28T17:48:25Z</time>
  <course>247.12</course>
  <speed>0.022360679774997897</speed>
  <fix>3d</fix>
</trkpt>
<trkpt lat="40.0713749" lon="-105.229789">
  <ele>1583.0</ele>
  <time>2026-08-28T17:48:25Z</time>
  <course>0.0</course>
  <speed>0.0</speed>
  <fix>3d</fix>
</trkpt>
<trkpt lat="40.071375" lon="-105.2297889">
  <ele>1582.91</ele>
  <time>2026-08-28T17:48:25Z</time>
  <course>247.12</course>
  <speed>0.022360679774997897</speed>
  <fix>3d</fix>
</trkpt>
<trkpt lat="40.0713749" lon="-105.229789">
  <ele>1583.0</ele>
  <time>2026-08-28T17:48:25Z</time>
  <course>0.0</course>
  <speed>0.0</speed>
  <fix>3d</fix>
</trkpt>
<trkpt lat="40.071375" lon="-105.2297889">
  <ele>1582.9</ele>
  <time>2026-08-28T17:48:25Z</time>
  <course>247.12</course>
  <speed>0.022360679774997897</speed>
  <fix>3d</fix>
</trkpt>
<trkpt lat="40.0713749" lon="-105.229789">
  <ele>1583.0</ele>
  <time>2026-08-28T17:48:25Z</time>
  <course>0.0</course>
  <speed>0.0</speed>
  <fix>3d</fix>
</trkpt>
<trkpt lat="40.071375" lon="-105.2297889">
  <ele>1582.9</ele>
  <time>2026-08-28T17:48:25Z</time>
  <course>247.12</course>
  <speed>0.022360679774997897</speed>
  <fix>3d</fix>
</trkpt>
<trkpt lat="40.0713749" lon="-105.229789">
  <ele>1583.0</ele>
  <time>2026-08-28T17:48:25Z</time>
  <course>0.0</course>
  <speed>0.0</speed>
  <fix>3d</fix>
</trkpt>
<trkpt lat="40.071375" lon="-105.2297889">
  <ele>1582.91</ele>
  <time>2026-08-28T17:48:25Z</time>
  <course>247.12</course>
  <speed>0.022360679774997897</speed>
  <fix>3d</fix>
</trkpt>
<trkpt lat="40.0713749" lon="-105.229789">
  <ele>1583.0</ele>
  <time>2026-08-28T17:48:25Z</time>
  <course>0.0</course>
  <speed>0.0</speed>
  <fix>3d</fix>
</trkpt>
<trkpt lat="40.071375" lon="-105.2297889">
  <ele>1582.92</ele>
  <time>2026-08-28T17:48:25Z</time>
  <course>247.12</course>
  <speed>0.022360679774997897</speed>
  <fix>3d</fix>
</trkpt>
<trkpt lat="40.0713749" lon="-105.229789">
  <ele>1583.0</ele>
  <time>2026-08-28T17:48:25Z</time>
  <course>0.0</course>
  <speed>0.0</speed>
  <fix>3d</fix>
</trkpt>
<trkpt lat="40.071375" lon="-105.2297889">
  <ele>1582.93</ele>
  <time>2026-08-28T17:48:25Z</time>
  <course>247.12</course>
  <speed>0.022360679774997897</speed>
  <fix>3d</fix>
</trkpt>
<trkpt lat="40.0713749" lon="-105.229789">
  <ele>1583.0</ele>
  <time>2026-08-28T17:48:25Z</time>
  <course>0.0</course>
  <speed>0.0</speed>
  <fix>3d</fix>
</trkpt>
<trkpt lat="40.071375" lon="-105.2297889">
  <ele>1582.94</ele>
  <time>2026-08-28T17:48:25Z</time>
  <course>247.12</course>
  <speed>0.022360679774997897</speed>
  <fix>3d</fix>
</trkpt>
<trkpt lat="40.0713749" lon="-105.229789">
  <ele>1583.0</ele>
  <time>2026-08-28T17:48:25Z</time>
  <course>0.0</course>
  <speed>0.0</speed>
  <fix>3d</fix>
</trkpt>
<trkpt lat="40.071375" lon="-105.2297889">
  <ele>1582.95</ele>
  <time>2026-08-28T17:48:25Z</time>
  <course>247.12</course>
  <speed>0.022360679774997897</speed>
  <fix>3d</fix>
</trkpt>
<trkpt lat="40.0713749" lon="-105.229789">
  <ele>1583.0</ele>
  <time>2026-08-28T17:48:25Z</time>
  <course>0.0</course>
  <speed>0.0</speed>
  <fix>3d</fix>
</trkpt>
<trkpt lat="40.071375" lon="-105.2297889">
  <ele>1582.96</ele>
  <time>2026-08-28T17:48:25Z</time>
  <course>247.12</course>
  <speed>0.022360679774997897</speed>
  <fix>3d</fix>
</trkpt>
<trkpt lat="40.0713749" lon="-105.229789">
  <ele>1583.0</ele>
  <time>2026-08-28T17:48:25Z</time>
  <course>0.0</course>
  <speed>0.0</speed>
  <fix>3d</fix>
</trkpt>
<trkpt lat="40.071375" lon="-105.2297889">
  <ele>1582.97</ele>
  <time>2026-08-28T17:48:25Z</time>
  <course>247.12</course>
  <speed>0.022360679774997897</speed>
  <fix>3d</fix>
</trkpt>
<trkpt lat="40.0713749" lon="-105.229789">
  <ele>1583.0</ele>
  <time>2026-08-28T17:48:25Z</time>
  <course>0.0</course>
  <speed>0.0</speed>
  <fix>3d</fix>
</trkpt>
<trkpt lat="40.071375" lon="-105.2297889">
  <ele>1582.98</ele>
  <time>2026-08-28T17:48:25Z</time>
  <course>247.12</course>
  <speed>0.022360679774997897</speed>
  <fix>3d</fix>
</trkpt>
<trkpt lat="40.0713749" lon="-105.229789">
  <ele>1583.0</ele>
  <time>2026-08-28T17:48:25Z</time>
  <course>0.0</course>
  <speed>0.0</speed>
  <fix>3d</fix>
</trkpt>
<trkpt lat="40.071375" lon="-105.2297889">
  <ele>1582.99</ele>
  <time>2026-08-28T17:48:25Z</time>
  <course>247.11</course>
  <speed>0.022360679774997897</speed>
  <fix>3d</fix>
</trkpt>
<trkpt lat="40.0713749" lon="-105.229789">
  <ele>1583.0</ele>
  <time>2026-08-28T17:48:25Z</time>
  <course>0.0</course>
  <speed>0.0</speed>
  <fix>3d</fix>
</trkpt>
<trkpt lat="40.071375" lon="-105.2297889">
  <ele>1582.99</ele>
  <time>2026-08-28T17:48:25Z</time>
  <course>247.11</course>
  <speed>0.022360679774997897</speed>
  <fix>3d</fix>
</trkpt>
<trkpt lat="40.0713749" lon="-105.229789">
  <ele>1583.0</ele>
  <time>2026-08-28T17:48:25Z</time>
  <course>0.0</course>
  <speed>0.0</speed>
  <fix>3d</fix>
</trkpt>
<trkpt lat="40.071375" lon="-105.2297889">
  <ele>1583.0</ele>
  <time>2026-08-28T17:48:25Z</time>
  <course>247.11</course>
  <speed>0.022360679774997897</speed>
  <fix>3d</fix>
</trkpt>
<trkpt lat="40.0713749" lon="-105.229789">
  <ele>1583.0</ele>
  <time>2026-08-28T17:48:25Z</time>
  <course>0.0</course>
  <speed>0.0</speed>
  <fix>3d</fix>
</trkpt>
<trkpt lat="40.071375" lon="-105.2297889">
  <ele>1583.0</ele>
  <time>2026-08-28T17:48:25Z</time>
  <course>247.11</course>
  <speed>0.022360679774997897</speed>
  <fix>3d</fix>
</trkpt>
<trkpt lat="40.0713749" lon="-105.229789">
  <ele>1583.0</ele>
  <time>2026-08-28T17:48:25Z</time>
  <course>0.0</course>
  <speed>0.0</speed>
  <fix>3d</fix>
</trkpt>
<trkpt lat="40.071375" lon="-105.2297889">
  <ele>1583.0</ele>
  <time>2026-08-28T17:48:25Z</time>
  <course>247.11</course>
  <speed>0.022360679774997897</speed>
  <fix>3d</fix>
</trkpt>
<trkpt lat="40.0713749" lon="-105.229789">
  <ele>1583.0</ele>
  <time>2026-08-28T17:48:25Z</time>
  <course>0.0</course>
  <speed>0.0</speed>
  <fix>3d</fix>
</trkpt>
<trkpt lat="40.071375" lon="-105.2297889">
  <ele>1583.01</ele>
  <time>2026-08-28T17:48:25Z</time>
  <course>247.11</course>
  <speed>0.022360679774997897</speed>
  <fix>3d</fix>
</trkpt>
<trkpt lat="40.0713749" lon="-105.229789">
  <ele>1583.0</ele>
  <time>2026-08-28T17:48:25Z</time>
  <course>0.0</course>
  <speed>0.0</speed>
  <fix>3d</fix>
</trkpt>
<trkpt lat="40.071375" lon="-105.2297889">
  <ele>1583.01</ele>
  <time>2026-08-28T17:48:25Z</time>
  <course>247.11</course>
  <speed>0.022360679774997897</speed>
  <fix>3d</fix>
</trkpt>
<trkpt lat="40.0713749" lon="-105.229789">
  <ele>1583.0</ele>
  <time>2026-08-28T17:48:25Z</time>
  <course>0.0</course>
  <speed>0.0</speed>
  <fix>3d</fix>
</trkpt>
<trkpt lat="40.071375" lon="-105.2297889">
  <ele>1583.01</ele>
  <time>2026-08-28T17:48:25Z</time>
  <course>247.11</course>
  <speed>0.022360679774997897</speed>
  <fix>3d</fix>
</trkpt>
<trkpt lat="40.0713749" lon="-105.229789">
  <ele>1583.0</ele>
  <time>2026-08-28T17:48:25Z</time>
  <course>0.0</course>
  <speed>0.0</speed>
  <fix>3d</fix>
</trkpt>
<trkpt lat="40.071375" lon="-105.2297889">
  <ele>1583.01</ele>
  <time>2026-08-28T17:48:25Z</time>
  <course>247.11</course>
  <speed>0.022360679774997897</speed>
  <fix>3d</fix>
</trkpt>
<trkpt lat="40.0713749" lon="-105.229789">
  <ele>1583.0</ele>
  <time>2026-08-28T17:48:25Z</time>
  <course>0.0</course>
  <speed>0.0</speed>
  <fix>3d</fix>
</trkpt>
<trkpt lat="40.071375" lon="-105.2297889">
  <ele>1583.02</ele>
  <time>2026-08-28T17:48:25Z</time>
  <course>247.11</course>
  <speed>0.022360679774997897</speed>
  <fix>3d</fix>
</trkpt>
<trkpt lat="40.0713749" lon="-105.229789">
  <ele>1583.0</ele>
  <time>2026-08-28T17:48:25Z</time>
  <course>0.0</course>
  <speed>0.0</speed>
  <fix>3d</fix>
</trkpt>
<trkpt lat="40.071375" lon="-105.2297889">
  <ele>1583.02</ele>
  <time>2026-08-28T17:48:25Z</time>
  <course>247.11</course>
  <speed>0.022360679774997897</speed>
  <fix>3d</fix>
</trkpt>
<trkpt lat="40.0713749" lon="-105.229789">
  <ele>1583.0</ele>
  <time>2026-08-28T17:48:25Z</time>
  <course>0.0</course>
  <speed>0.0</speed>
  <fix>3d</fix>
</trkpt>
<trkpt lat="40.071375" lon="-105.2297889">
  <ele>1583.02</ele>
  <time>2026-08-28T17:48:25Z</time>
  <course>247.11</course>
  <speed>0.022360679774997897</speed>
  <fix>3d</fix>
</trkpt>
<trkpt lat="40.0713749" lon="-105.229789">
  <ele>1583.0</ele>
  <time>2026-08-28T17:48:25Z</time>
  <course>0.0</course>
  <speed>0.0</speed>
  <fix>3d</fix>
</trkpt>
<trkpt lat="40.071375" lon="-105.2297889">
  <ele>1583.02</ele>
  <time>2026-08-28T17:48:25Z</time>
  <course>247.11</course>
  <speed>0.022360679774997897</speed>
  <fix>3d</fix>
</trkpt>
<trkpt lat="40.0713749" lon="-105.229789">
  <ele>1583.0</ele>
  <time>2026-08-28T17:48:25Z</time>
  <course>0.0</course>
  <speed>0.0</speed>
  <fix>3d</fix>
</trkpt>
<trkpt lat="40.071375" lon="-105.2297889">
  <ele>1583.02</ele>
  <time>2026-08-28T17:48:25Z</time>
  <course>247.11</course>
  <speed>0.022360679774997897</speed>
  <fix>3d</fix>
</trkpt>
<trkpt lat="40.0713749" lon="-105.229789">
  <ele>1583.0</ele>
  <time>2026-08-28T17:48:25Z</time>
  <course>0.0</course>
  <speed>0.0</speed>
  <fix>3d</fix>
</trkpt>
<trkpt lat="40.071375" lon="-105.2297889">
  <ele>1583.01</ele>
  <time>2026-08-28T17:48:25Z</time>
  <course>247.11</course>
  <speed>0.022360679774997897</speed>
  <fix>3d</fix>
</trkpt>
<trkpt lat="40.0713749" lon="-105.229789">
  <ele>1583.0</ele>
  <time>2026-08-28T17:48:25Z</time>
  <course>0.0</course>
  <speed>0.0</speed>
  <fix>3d</fix>
</trkpt>
<trkpt lat="40.071375" lon="-105.2297889">
  <ele>1583.01</ele>
  <time>2026-08-28T17:48:26Z</time>
  <course>247.11</course>
  <speed>0.022360679774997897</speed>
  <fix>3d</fix>
</trkpt>
<trkpt lat="40.0713749" lon="-105.229789">
  <ele>1583.0</ele>
  <time>2026-08-28T17:48:26Z</time>
  <course>0.0</course>
  <speed>0.0</speed>
  <fix>3d</fix>
</trkpt>
<trkpt lat="40.071375" lon="-105.2297889">
  <ele>1583.0</ele>
  <time>2026-08-28T17:48:26Z</time>
  <course>247.11</course>
  <speed>0.022360679774997897</speed>
  <fix>3d</fix>
</trkpt>
<trkpt lat="40.0713749" lon="-105.229789">
  <ele>1583.0</ele>
  <time>2026-08-28T17:48:26Z</time>
  <course>0.0</course>
  <speed>0.0</speed>
  <fix>3d</fix>
</trkpt>
<trkpt lat="40.071375" lon="-105.2297889">
  <ele>1583.0</ele>
  <time>2026-08-28T17:48:26Z</time>
  <course>247.11</course>
  <speed>0.02</speed>
  <fix>3d</fix>
</trkpt>
<trkpt lat="40.0713749" lon="-105.229789">
  <ele>1583.0</ele>
  <time>2026-08-28T17:48:26Z</time>
  <course>0.0</course>
  <speed>0.0</speed>
  <fix>3d</fix>
</trkpt>
<trkpt lat="40.071375" lon="-105.2297889">
  <ele>1582.99</ele>
  <time>2026-08-28T17:48:26Z</time>
  <course>247.11</course>
  <speed>0.022360679774997897</speed>
  <fix>3d</fix>
</trkpt>
<trkpt lat="40.0713749" lon="-105.229789">
  <ele>1583.0</ele>
  <time>2026-08-28T17:48:26Z</time>
  <course>0.0</course>
  <speed>0.0</speed>
  <fix>3d</fix>
</trkpt>
<trkpt lat="40.071375" lon="-105.2297889">
  <ele>1582.99</ele>
  <time>2026-08-28T17:48:26Z</time>
  <course>247.11</course>
  <speed>0.02</speed>
  <fix>3d</fix>
</trkpt>
<trkpt lat="40.0713749" lon="-105.229789">
  <ele>1583.0</ele>
  <time>2026-08-28T17:48:26Z</time>
  <course>0.0</course>
  <speed>0.0</speed>
  <fix>3d</fix>
</trkpt>
<trkpt lat="40.071375" lon="-105.2297889">
  <ele>1582.99</ele>
  <time>2026-08-28T17:48:26Z</time>
  <course>247.11</course>
  <speed>0.02</speed>
  <fix>3d</fix>
</trkpt>
<trkpt lat="40.0713749" lon="-105.229789">
  <ele>1583.0</ele>
  <time>2026-08-28T17:48:26Z</time>
  <course>0.0</course>
  <speed>0.0</speed>
  <fix>3d</fix>
</trkpt>
<trkpt lat="40.071375" lon="-105.2297889">
  <ele>1582.98</ele>
  <time>2026-08-28T17:48:26Z</time>
  <course>247.11</course>
  <speed>0.02</speed>
  <fix>3d</fix>
</trkpt>
<trkpt lat="40.0713749" lon="-105.229789">
  <ele>1583.0</ele>
  <time>2026-08-28T17:48:26Z</time>
  <course>0.0</course>
  <speed>0.0</speed>
  <fix>3d</fix>
</trkpt>
<trkpt lat="40.071375" lon="-105.2297889">
  <ele>1582.98</ele>
  <time>2026-08-28T17:48:26Z</time>
  <course>247.11</course>
  <speed>0.02</speed>
  <fix>3d</fix>
</trkpt>
<trkpt lat="40.0713749" lon="-105.229789">
  <ele>1583.0</ele>
  <time>2026-08-28T17:48:26Z</time>
  <course>0.0</course>
  <speed>0.0</speed>
  <fix>3d</fix>
</trkpt>
<trkpt lat="40.071375" lon="-105.2297889">
  <ele>1582.97</ele>
  <time>2026-08-28T17:48:26Z</time>
  <course>247.11</course>
  <speed>0.02</speed>
  <fix>3d</fix>
</trkpt>
<trkpt lat="40.0713749" lon="-105.229789">
  <ele>1583.0</ele>
  <time>2026-08-28T17:48:26Z</time>
  <course>0.0</course>
  <speed>0.0</speed>
  <fix>3d</fix>
</trkpt>
<trkpt lat="40.071375" lon="-105.2297889">
  <ele>1582.97</ele>
  <time>2026-08-28T17:48:26Z</time>
  <course>247.11</course>
  <speed>0.022360679774997897</speed>
  <fix>3d</fix>
</trkpt>
<trkpt lat="40.0713749" lon="-105.229789">
  <ele>1583.0</ele>
  <time>2026-08-28T17:48:26Z</time>
  <course>0.0</course>
  <speed>0.0</speed>
  <fix>3d</fix>
</trkpt>
<trkpt lat="40.071375" lon="-105.2297889">
  <ele>1582.96</ele>
  <time>2026-08-28T17:48:26Z</time>
  <course>247.11</course>
  <speed>0.022360679774997897</speed>
  <fix>3d</fix>
</trkpt>
<trkpt lat="40.0713749" lon="-105.229789">
  <ele>1583.0</ele>
  <time>2026-08-28T17:48:26Z</time>
  <course>0.0</course>
  <speed>0.0</speed>
  <fix>3d</fix>
</trkpt>
<trkpt lat="40.0713751" lon="-105.2297889">
  <ele>1582.96</ele>
  <time>2026-08-28T17:48:26Z</time>
  <course>247.11</course>
  <speed>0.022360679774997897</speed>
  <fix>3d</fix>
</trkpt>
<trkpt lat="40.0713749" lon="-105.229789">
  <ele>1583.0</ele>
  <time>2026-08-28T17:48:26Z</time>
  <course>0.0</course>
  <speed>0.0</speed>
  <fix>3d</fix>
</trkpt>
<trkpt lat="40.071375" lon="-105.2297889">
  <ele>1582.95</ele>
  <time>2026-08-28T17:48:26Z</time>
  <course>247.11</course>
  <speed>0.022360679774997897</speed>
  <fix>3d</fix>
</trkpt>
<trkpt lat="40.0713749" lon="-105.229789">
  <ele>1583.0</ele>
  <time>2026-08-28T17:48:26Z</time>
  <course>0.0</course>
  <speed>0.0</speed>
  <fix>3d</fix>
</trkpt>
<trkpt lat="40.0713751" lon="-105.2297889">
  <ele>1582.95</ele>
  <time>2026-08-28T17:48:26Z</time>
  <course>247.11</course>
  <speed>0.022360679774997897</speed>
  <fix>3d</fix>
</trkpt>
<trkpt lat="40.0713749" lon="-105.229789">
  <ele>1583.0</ele>
  <time>2026-08-28T17:48:26Z</time>
  <course>0.0</course>
  <speed>0.0</speed>
  <fix>3d</fix>
</trkpt>
<trkpt lat="40.071375" lon="-105.2297889">
  <ele>1582.95</ele>
  <time>2026-08-28T17:48:26Z</time>
  <course>247.11</course>
  <speed>0.02</speed>
  <fix>3d</fix>
</trkpt>
<trkpt lat="40.0713749" lon="-105.229789">
  <ele>1583.0</ele>
  <time>2026-08-28T17:48:26Z</time>
  <course>0.0</course>
  <speed>0.0</speed>
  <fix>3d</fix>
</trkpt>
<trkpt lat="40.0713751" lon="-105.2297889">
  <ele>1582.95</ele>
  <time>2026-08-28T17:48:26Z</time>
  <course>247.11</course>
  <speed>0.022360679774997897</speed>
  <fix>3d</fix>
</trkpt>
<trkpt lat="40.0713749" lon="-105.229789">
  <ele>1583.0</ele>
  <time>2026-08-28T17:48:26Z</time>
  <course>0.0</course>
  <speed>0.0</speed>
  <fix>3d</fix>
</trkpt>
<trkpt lat="40.071375" lon="-105.2297889">
  <ele>1582.95</ele>
  <time>2026-08-28T17:48:26Z</time>
  <course>247.11</course>
  <speed>0.02</speed>
  <fix>3d</fix>
</trkpt>
<trkpt lat="40.0713749" lon="-105.229789">
  <ele>1583.0</ele>
  <time>2026-08-28T17:48:26Z</time>
  <course>0.0</course>
  <speed>0.0</speed>
  <fix>3d</fix>
</trkpt>
<trkpt lat="40.071375" lon="-105.2297889">
  <ele>1582.95</ele>
  <time>2026-08-28T17:48:26Z</time>
  <course>247.1</course>
  <speed>0.022360679774997897</speed>
  <fix>3d</fix>
</trkpt>
<trkpt lat="40.0713749" lon="-105.229789">
  <ele>1583.0</ele>
  <time>2026-08-28T17:48:26Z</time>
  <course>0.0</course>
  <speed>0.0</speed>
  <fix>3d</fix>
</trkpt>
<trkpt lat="40.071375" lon="-105.2297889">
  <ele>1582.95</ele>
  <time>2026-08-28T17:48:26Z</time>
  <course>247.1</course>
  <speed>0.02</speed>
  <fix>3d</fix>
</trkpt>
<trkpt lat="40.0713749" lon="-105.229789">
  <ele>1583.0</ele>
  <time>2026-08-28T17:48:26Z</time>
  <course>0.0</course>
  <speed>0.0</speed>
  <fix>3d</fix>
</trkpt>
<trkpt lat="40.071375" lon="-105.2297889">
  <ele>1582.95</ele>
  <time>2026-08-28T17:48:26Z</time>
  <course>247.1</course>
  <speed>0.02</speed>
  <fix>3d</fix>
</trkpt>
<trkpt lat="40.0713749" lon="-105.229789">
  <ele>1583.0</ele>
  <time>2026-08-28T17:48:26Z</time>
  <course>0.0</course>
  <speed>0.0</speed>
  <fix>3d</fix>
</trkpt>
<trkpt lat="40.071375" lon="-105.2297889">
  <ele>1582.95</ele>
  <time>2026-08-28T17:48:26Z</time>
  <course>247.1</course>
  <speed>0.02</speed>
  <fix>3d</fix>
</trkpt>
<trkpt lat="40.0713749" lon="-105.229789">
  <ele>1583.0</ele>
  <time>2026-08-28T17:48:26Z</time>
  <course>0.0</course>
  <speed>0.0</speed>
  <fix>3d</fix>
</trkpt>
<trkpt lat="40.071375" lon="-105.2297889">
  <ele>1582.96</ele>
  <time>2026-08-28T17:48:26Z</time>
  <course>247.1</course>
  <speed>0.02</speed>
  <fix>3d</fix>
</trkpt>
<trkpt lat="40.0713749" lon="-105.229789">
  <ele>1583.0</ele>
  <time>2026-08-28T17:48:26Z</time>
  <course>0.0</course>
  <speed>0.0</speed>
  <fix>3d</fix>
</trkpt>
<trkpt lat="40.071375" lon="-105.2297889">
  <ele>1582.96</ele>
  <time>2026-08-28T17:48:26Z</time>
  <course>247.1</course>
  <speed>0.02</speed>
  <fix>3d</fix>
</trkpt>
<trkpt lat="40.0713749" lon="-105.229789">
  <ele>1583.0</ele>
  <time>2026-08-28T17:48:26Z</time>
  <course>0.0</course>
  <speed>0.0</speed>
  <fix>3d</fix>
</trkpt>
<trkpt lat="40.071375" lon="-105.2297889">
  <ele>1582.97</ele>
  <time>2026-08-28T17:48:26Z</time>
  <course>247.1</course>
  <speed>0.02</speed>
  <fix>3d</fix>
</trkpt>
<trkpt lat="40.0713749" lon="-105.229789">
  <ele>1583.0</ele>
  <time>2026-08-28T17:48:26Z</time>
  <course>0.0</course>
  <speed>0.0</speed>
  <fix>3d</fix>
</trkpt>
<trkpt lat="40.071375" lon="-105.2297889">
  <ele>1582.97</ele>
  <time>2026-08-28T17:48:26Z</time>
  <course>247.1</course>
  <speed>0.02</speed>
  <fix>3d</fix>
</trkpt>
<trkpt lat="40.0713749" lon="-105.229789">
  <ele>1583.0</ele>
  <time>2026-08-28T17:48:26Z</time>
  <course>0.0</course>
  <speed>0.0</speed>
  <fix>3d</fix>
</trkpt>
<trkpt lat="40.071375" lon="-105.2297889">
  <ele>1582.97</ele>
  <time>2026-08-28T17:48:26Z</time>
  <course>247.1</course>
  <speed>0.02</speed>
  <fix>3d</fix>
</trkpt>
<trkpt lat="40.0713749" lon="-105.229789">
  <ele>1583.0</ele>
  <time>2026-08-28T17:48:26Z</time>
  <course>0.0</course>
  <speed>0.0</speed>
  <fix>3d</fix>
</trkpt>
<trkpt lat="40.071375" lon="-105.2297889">
  <ele>1582.97</ele>
  <time>2026-08-28T17:48:26Z</time>
  <course>247.1</course>
  <speed>0.02</speed>
  <fix>3d</fix>
</trkpt>
<trkpt lat="40.0713749" lon="-105.229789">
  <ele>1583.0</ele>
  <time>2026-08-28T17:48:26Z</time>
  <course>0.0</course>
  <speed>0.0</speed>
  <fix>3d</fix>
</trkpt>
<trkpt lat="40.071375" lon="-105.2297889">
  <ele>1582.97</ele>
  <time>2026-08-28T17:48:26Z</time>
  <course>247.1</course>
  <speed>0.02</speed>
  <fix>3d</fix>
</trkpt>
<trkpt lat="40.0713749" lon="-105.229789">
  <ele>1583.0</ele>
  <time>2026-08-28T17:48:26Z</time>
  <course>0.0</course>
  <speed>0.0</speed>
  <fix>3d</fix>
</trkpt>
<trkpt lat="40.071375" lon="-105.2297889">
  <ele>1582.97</ele>
  <time>2026-08-28T17:48:26Z</time>
  <course>247.1</course>
  <speed>0.02</speed>
  <fix>3d</fix>
</trkpt>
<trkpt lat="40.0713749" lon="-105.229789">
  <ele>1583.0</ele>
  <time>2026-08-28T17:48:26Z</time>
  <course>0.0</course>
  <speed>0.0</speed>
  <fix>3d</fix>
</trkpt>
<trkpt lat="40.0713751" lon="-105.2297889">
  <ele>1582.96</ele>
  <time>2026-08-28T17:48:26Z</time>
  <course>247.1</course>
  <speed>0.022360679774997897</speed>
  <fix>3d</fix>
</trkpt>
<trkpt lat="40.0713749" lon="-105.229789">
  <ele>1583.0</ele>
  <time>2026-08-28T17:48:26Z</time>
  <course>0.0</course>
  <speed>0.0</speed>
  <fix>3d</fix>
</trkpt>
<trkpt lat="40.071375" lon="-105.2297889">
  <ele>1582.96</ele>
  <time>2026-08-28T17:48:26Z</time>
  <course>247.1</course>
  <speed>0.02</speed>
  <fix>3d</fix>
</trkpt>
<trkpt lat="40.0713749" lon="-105.229789">
  <ele>1583.0</ele>
  <time>2026-08-28T17:48:26Z</time>
  <course>0.0</course>
  <speed>0.0</speed>
  <fix>3d</fix>
</trkpt>
<trkpt lat="40.0713751" lon="-105.2297889">
  <ele>1582.95</ele>
  <time>2026-08-28T17:48:26Z</time>
  <course>247.1</course>
  <speed>0.022360679774997897</speed>
  <fix>3d</fix>
</trkpt>
<trkpt lat="40.0713749" lon="-105.229789">
  <ele>1583.0</ele>
  <time>2026-08-28T17:48:26Z</time>
  <course>0.0</course>
  <speed>0.0</speed>
  <fix>3d</fix>
</trkpt>
<trkpt lat="40.071375" lon="-105.2297889">
  <ele>1582.95</ele>
  <time>2026-08-28T17:48:26Z</time>
  <course>247.1</course>
  <speed>0.022360679774997897</speed>
  <fix>3d</fix>
</trkpt>
<trkpt lat="40.0713749" lon="-105.229789">
  <ele>1583.0</ele>
  <time>2026-08-28T17:48:26Z</time>
  <course>0.0</course>
  <speed>0.0</speed>
  <fix>3d</fix>
</trkpt>
<trkpt lat="40.0713751" lon="-105.2297889">
  <ele>1582.94</ele>
  <time>2026-08-28T17:48:26Z</time>
  <course>247.1</course>
  <speed>0.022360679774997897</speed>
  <fix>3d</fix>
</trkpt>
<trkpt lat="40.0713749" lon="-105.229789">
  <ele>1583.0</ele>
  <time>2026-08-28T17:48:26Z</time>
  <course>0.0</course>
  <speed>0.0</speed>
  <fix>3d</fix>
</trkpt>
<trkpt lat="40.071375" lon="-105.2297889">
  <ele>1582.93</ele>
  <time>2026-08-28T17:48:26Z</time>
  <course>247.1</course>
  <speed>0.022360679774997897</speed>
  <fix>3d</fix>
</trkpt>
<trkpt lat="40.0713749" lon="-105.229789">
  <ele>1583.0</ele>
  <time>2026-08-28T17:48:26Z</time>
  <course>0.0</course>
  <speed>0.0</speed>
  <fix>3d</fix>
</trkpt>
<trkpt lat="40.0713751" lon="-105.2297889">
  <ele>1582.93</ele>
  <time>2026-08-28T17:48:26Z</time>
  <course>247.1</course>
  <speed>0.022360679774997897</speed>
  <fix>3d</fix>
</trkpt>
<trkpt lat="40.0713749" lon="-105.229789">
  <ele>1583.0</ele>
  <time>2026-08-28T17:48:26Z</time>
  <course>0.0</course>
  <speed>0.0</speed>
  <fix>3d</fix>
</trkpt>
<trkpt lat="40.071375" lon="-105.2297889">
  <ele>1582.94</ele>
  <time>2026-08-28T17:48:26Z</time>
  <course>247.1</course>
  <speed>0.022360679774997897</speed>
  <fix>3d</fix>
</trkpt>
<trkpt lat="40.0713749" lon="-105.229789">
  <ele>1583.0</ele>
  <time>2026-08-28T17:48:26Z</time>
  <course>0.0</course>
  <speed>0.0</speed>
  <fix>3d</fix>
</trkpt>
<trkpt lat="40.0713751" lon="-105.2297889">
  <ele>1582.94</ele>
  <time>2026-08-28T17:48:26Z</time>
  <course>247.1</course>
  <speed>0.022360679774997897</speed>
  <fix>3d</fix>
</trkpt>
<trkpt lat="40.0713749" lon="-105.229789">
  <ele>1583.0</ele>
  <time>2026-08-28T17:48:26Z</time>
  <course>0.0</course>
  <speed>0.0</speed>
  <fix>3d</fix>
</trkpt>
<trkpt lat="40.071375" lon="-105.2297889">
  <ele>1582.95</ele>
  <time>2026-08-28T17:48:26Z</time>
  <course>247.1</course>
  <speed>0.022360679774997897</speed>
  <fix>3d</fix>
</trkpt>
<trkpt lat="40.0713749" lon="-105.229789">
  <ele>1583.0</ele>
  <time>2026-08-28T17:48:26Z</time>
  <course>0.0</course>
  <speed>0.0</speed>
  <fix>3d</fix>
</trkpt>
<trkpt lat="40.071375" lon="-105.2297889">
  <ele>1582.95</ele>
  <time>2026-08-28T17:48:26Z</time>
  <course>247.1</course>
  <speed>0.022360679774997897</speed>
  <fix>3d</fix>
</trkpt>
<trkpt lat="40.0713749" lon="-105.229789">
  <ele>1583.0</ele>
  <time>2026-08-28T17:48:26Z</time>
  <course>0.0</course>
  <speed>0.0</speed>
  <fix>3d</fix>
</trkpt>
<trkpt lat="40.071375" lon="-105.2297889">
  <ele>1582.96</ele>
  <time>2026-08-28T17:48:26Z</time>
  <course>247.1</course>
  <speed>0.022360679774997897</speed>
  <fix>3d</fix>
</trkpt>
<trkpt lat="40.0713749" lon="-105.229789">
  <ele>1583.0</ele>
  <time>2026-08-28T17:48:26Z</time>
  <course>0.0</course>
  <speed>0.0</speed>
  <fix>3d</fix>
</trkpt>
<trkpt lat="40.071375" lon="-105.2297889">
  <ele>1582.97</ele>
  <time>2026-08-28T17:48:26Z</time>
  <course>247.1</course>
  <speed>0.022360679774997897</speed>
  <fix>3d</fix>
</trkpt>
<trkpt lat="40.0713749" lon="-105.229789">
  <ele>1583.0</ele>
  <time>2026-08-28T17:48:26Z</time>
  <course>0.0</course>
  <speed>0.0</speed>
  <fix>3d</fix>
</trkpt>
<trkpt lat="40.071375" lon="-105.2297889">
  <ele>1582.98</ele>
  <time>2026-08-28T17:48:26Z</time>
  <course>247.1</course>
  <speed>0.022360679774997897</speed>
  <fix>3d</fix>
</trkpt>
<trkpt lat="40.0713749" lon="-105.229789">
  <ele>1583.0</ele>
  <time>2026-08-28T17:48:26Z</time>
  <course>0.0</course>
  <speed>0.0</speed>
  <fix>3d</fix>
</trkpt>
<trkpt lat="40.071375" lon="-105.2297889">
  <ele>1582.98</ele>
  <time>2026-08-28T17:48:26Z</time>
  <course>247.1</course>
  <speed>0.022360679774997897</speed>
  <fix>3d</fix>
</trkpt>
<trkpt lat="40.0713749" lon="-105.229789">
  <ele>1583.0</ele>
  <time>2026-08-28T17:48:26Z</time>
  <course>0.0</course>
  <speed>0.0</speed>
  <fix>3d</fix>
</trkpt>
<trkpt lat="40.071375" lon="-105.2297889">
  <ele>1582.99</ele>
  <time>2026-08-28T17:48:26Z</time>
  <course>247.1</course>
  <speed>0.022360679774997897</speed>
  <fix>3d</fix>
</trkpt>
<trkpt lat="40.0713749" lon="-105.229789">
  <ele>1583.0</ele>
  <time>2026-08-28T17:48:26Z</time>
  <course>0.0</course>
  <speed>0.0</speed>
  <fix>3d</fix>
</trkpt>
<trkpt lat="40.071375" lon="-105.2297889">
  <ele>1582.99</ele>
  <time>2026-08-28T17:48:26Z</time>
  <course>247.1</course>
  <speed>0.022360679774997897</speed>
  <fix>3d</fix>
</trkpt>
<trkpt lat="40.0713749" lon="-105.229789">
  <ele>1583.0</ele>
  <time>2026-08-28T17:48:26Z</time>
  <course>0.0</course>
  <speed>0.0</speed>
  <fix>3d</fix>
</trkpt>
<trkpt lat="40.071375" lon="-105.2297889">
  <ele>1583.0</ele>
  <time>2026-08-28T17:48:26Z</time>
  <course>247.1</course>
  <speed>0.022360679774997897</speed>
  <fix>3d</fix>
</trkpt>
<trkpt lat="40.0713749" lon="-105.229789">
  <ele>1583.0</ele>
  <time>2026-08-28T17:48:26Z</time>
  <course>0.0</course>
  <speed>0.0</speed>
  <fix>3d</fix>
</trkpt>
<trkpt lat="40.071375" lon="-105.2297889">
  <ele>1583.0</ele>
  <time>2026-08-28T17:48:26Z</time>
  <course>247.1</course>
  <speed>0.022360679774997897</speed>
  <fix>3d</fix>
</trkpt>
<trkpt lat="40.0713749" lon="-105.229789">
  <ele>1583.0</ele>
  <time>2026-08-28T17:48:26Z</time>
  <course>0.0</course>
  <speed>0.0</speed>
  <fix>3d</fix>
</trkpt>
<trkpt lat="40.071375" lon="-105.2297889">
  <ele>1583.0</ele>
  <time>2026-08-28T17:48:26Z</time>
  <course>247.1</course>
  <speed>0.022360679774997897</speed>
  <fix>3d</fix>
</trkpt>
<trkpt lat="40.0713749" lon="-105.229789">
  <ele>1583.0</ele>
  <time>2026-08-28T17:48:26Z</time>
  <course>0.0</course>
  <speed>0.0</speed>
  <fix>3d</fix>
</trkpt>
<trkpt lat="40.071375" lon="-105.2297889">
  <ele>1583.0</ele>
  <time>2026-08-28T17:48:26Z</time>
  <course>247.1</course>
  <speed>0.022360679774997897</speed>
  <fix>3d</fix>
</trkpt>
<trkpt lat="40.0713749" lon="-105.229789">
  <ele>1583.0</ele>
  <time>2026-08-28T17:48:26Z</time>
  <course>0.0</course>
  <speed>0.0</speed>
  <fix>3d</fix>
</trkpt>
<trkpt lat="40.071375" lon="-105.2297889">
  <ele>1583.0</ele>
  <time>2026-08-28T17:48:26Z</time>
  <course>247.1</course>
  <speed>0.022360679774997897</speed>
  <fix>3d</fix>
</trkpt>
<trkpt lat="40.0713749" lon="-105.229789">
  <ele>1583.0</ele>
  <time>2026-08-28T17:48:26Z</time>
  <course>0.0</course>
  <speed>0.0</speed>
  <fix>3d</fix>
</trkpt>
<trkpt lat="40.0713751" lon="-105.2297889">
  <ele>1583.0</ele>
  <time>2026-08-28T17:48:26Z</time>
  <course>247.1</course>
  <speed>0.022360679774997897</speed>
  <fix>3d</fix>
</trkpt>
<trkpt lat="40.0713749" lon="-105.229789">
  <ele>1583.0</ele>
  <time>2026-08-28T17:48:26Z</time>
  <course>0.0</course>
  <speed>0.0</speed>
  <fix>3d</fix>
</trkpt>
<trkpt lat="40.071375" lon="-105.2297889">
  <ele>1583.0</ele>
  <time>2026-08-28T17:48:26Z</time>
  <course>247.1</course>
  <speed>0.022360679774997897</speed>
  <fix>3d</fix>
</trkpt>
<trkpt lat="40.0713749" lon="-105.229789">
  <ele>1583.0</ele>
  <time>2026-08-28T17:48:26Z</time>
  <course>0.0</course>
  <speed>0.0</speed>
  <fix>3d</fix>
</trkpt>
<trkpt lat="40.0713751" lon="-105.2297889">
  <ele>1583.01</ele>
  <time>2026-08-28T17:48:26Z</time>
  <course>247.1</course>
  <speed>0.022360679774997897</speed>
  <fix>3d</fix>
</trkpt>
<trkpt lat="40.0713749" lon="-105.229789">
  <ele>1583.0</ele>
  <time>2026-08-28T17:48:26Z</time>
  <course>0.0</course>
  <speed>0.0</speed>
  <fix>3d</fix>
</trkpt>
<trkpt lat="40.071375" lon="-105.2297889">
  <ele>1583.01</ele>
  <time>2026-08-28T17:48:26Z</time>
  <course>247.1</course>
  <speed>0.022360679774997897</speed>
  <fix>3d</fix>
</trkpt>
<trkpt lat="40.0713749" lon="-105.229789">
  <ele>1583.0</ele>
  <time>2026-08-28T17:48:26Z</time>
  <course>0.0</course>
  <speed>0.0</speed>
  <fix>3d</fix>
</trkpt>
<trkpt lat="40.0713751" lon="-105.2297889">
  <ele>1583.01</ele>
  <time>2026-08-28T17:48:26Z</time>
  <course>247.1</course>
  <speed>0.022360679774997897</speed>
  <fix>3d</fix>
</trkpt>
<trkpt lat="40.0713749" lon="-105.229789">
  <ele>1583.0</ele>
  <time>2026-08-28T17:48:26Z</time>
  <course>0.0</course>
  <speed>0.0</speed>
  <fix>3d</fix>
</trkpt>
<trkpt lat="40.071375" lon="-105.2297889">
  <ele>1583.01</ele>
  <time>2026-08-28T17:48:26Z</time>
  <course>247.1</course>
  <speed>0.022360679774997897</speed>
  <fix>3d</fix>
</trkpt>
<trkpt lat="40.0713749" lon="-105.229789">
  <ele>1583.0</ele>
  <time>2026-08-28T17:48:26Z</time>
  <course>0.0</course>
  <speed>0.0</speed>
  <fix>3d</fix>
</trkpt>
<trkpt lat="40.0713751" lon="-105.2297889">
  <ele>1583.01</ele>
  <time>2026-08-28T17:48:26Z</time>
  <course>247.1</course>
  <speed>0.022360679774997897</speed>
  <fix>3d</fix>
</trkpt>
<trkpt lat="40.0713749" lon="-105.229789">
  <ele>1583.0</ele>
  <time>2026-08-28T17:48:26Z</time>
  <course>0.0</course>
  <speed>0.0</speed>
  <fix>3d</fix>
</trkpt>
<trkpt lat="40.071375" lon="-105.2297889">
  <ele>1583.01</ele>
  <time>2026-08-28T17:48:26Z</time>
  <course>247.1</course>
  <speed>0.022360679774997897</speed>
  <fix>3d</fix>
</trkpt>
<trkpt lat="40.0713749" lon="-105.229789">
  <ele>1583.0</ele>
  <time>2026-08-28T17:48:26Z</time>
  <course>0.0</course>
  <speed>0.0</speed>
  <fix>3d</fix>
</trkpt>
<trkpt lat="40.071375" lon="-105.2297889">
  <ele>1583.01</ele>
  <time>2026-08-28T17:48:26Z</time>
  <course>247.1</course>
  <speed>0.022360679774997897</speed>
  <fix>3d</fix>
</trkpt>
<trkpt lat="40.0713749" lon="-105.229789">
  <ele>1583.0</ele>
  <time>2026-08-28T17:48:26Z</time>
  <course>0.0</course>
  <speed>0.0</speed>
  <fix>3d</fix>
</trkpt>
<trkpt lat="40.071375" lon="-105.2297889">
  <ele>1583.01</ele>
  <time>2026-08-28T17:48:26Z</time>
  <course>247.1</course>
  <speed>0.022360679774997897</speed>
  <fix>3d</fix>
</trkpt>
<trkpt lat="40.0713749" lon="-105.229789">
  <ele>1583.0</ele>
  <time>2026-08-28T17:48:26Z</time>
  <course>0.0</course>
  <speed>0.0</speed>
  <fix>3d</fix>
</trkpt>
<trkpt lat="40.071375" lon="-105.2297889">
  <ele>1583.01</ele>
  <time>2026-08-28T17:48:26Z</time>
  <course>247.1</course>
  <speed>0.022360679774997897</speed>
  <fix>3d</fix>
</trkpt>
<trkpt lat="40.0713749" lon="-105.229789">
  <ele>1583.0</ele>
  <time>2026-08-28T17:48:26Z</time>
  <course>0.0</course>
  <speed>0.0</speed>
  <fix>3d</fix>
</trkpt>
<trkpt lat="40.071375" lon="-105.2297889">
  <ele>1583.01</ele>
  <time>2026-08-28T17:48:26Z</time>
  <course>247.09</course>
  <speed>0.022360679774997897</speed>
  <fix>3d</fix>
</trkpt>
<trkpt lat="40.0713749" lon="-105.229789">
  <ele>1583.0</ele>
  <time>2026-08-28T17:48:26Z</time>
  <course>0.0</course>
  <speed>0.0</speed>
  <fix>3d</fix>
</trkpt>
<trkpt lat="40.071375" lon="-105.2297889">
  <ele>1583.01</ele>
  <time>2026-08-28T17:48:26Z</time>
  <course>247.09</course>
  <speed>0.022360679774997897</speed>
  <fix>3d</fix>
</trkpt>
<trkpt lat="40.0713749" lon="-105.229789">
  <ele>1583.0</ele>
  <time>2026-08-28T17:48:26Z</time>
  <course>0.0</course>
  <speed>0.0</speed>
  <fix>3d</fix>
</trkpt>
<trkpt lat="40.071375" lon="-105.2297889">
  <ele>1583.01</ele>
  <time>2026-08-28T17:48:26Z</time>
  <course>247.09</course>
  <speed>0.022360679774997897</speed>
  <fix>3d</fix>
</trkpt>
<trkpt lat="40.0713749" lon="-105.229789">
  <ele>1583.0</ele>
  <time>2026-08-28T17:48:26Z</time>
  <course>0.0</course>
  <speed>0.0</speed>
  <fix>3d</fix>
</trkpt>
<trkpt lat="40.071375" lon="-105.2297889">
  <ele>1583.01</ele>
  <time>2026-08-28T17:48:26Z</time>
  <course>247.09</course>
  <speed>0.022360679774997897</speed>
  <fix>3d</fix>
</trkpt>
<trkpt lat="40.0713749" lon="-105.229789">
  <ele>1583.0</ele>
  <time>2026-08-28T17:48:26Z</time>
  <course>0.0</course>
  <speed>0.0</speed>
  <fix>3d</fix>
</trkpt>
<trkpt lat="40.071375" lon="-105.2297889">
  <ele>1583.01</ele>
  <time>2026-08-28T17:48:26Z</time>
  <course>247.09</course>
  <speed>0.022360679774997897</speed>
  <fix>3d</fix>
</trkpt>
<trkpt lat="40.0713749" lon="-105.229789">
  <ele>1583.0</ele>
  <time>2026-08-28T17:48:26Z</time>
  <course>0.0</course>
  <speed>0.0</speed>
  <fix>3d</fix>
</trkpt>
<trkpt lat="40.071375" lon="-105.2297889">
  <ele>1583.01</ele>
  <time>2026-08-28T17:48:26Z</time>
  <course>247.09</course>
  <speed>0.022360679774997897</speed>
  <fix>3d</fix>
</trkpt>
<trkpt lat="40.0713749" lon="-105.229789">
  <ele>1583.0</ele>
  <time>2026-08-28T17:48:26Z</time>
  <course>0.0</course>
  <speed>0.0</speed>
  <fix>3d</fix>
</trkpt>
<trkpt lat="40.071375" lon="-105.2297889">
  <ele>1583.0</ele>
  <time>2026-08-28T17:48:26Z</time>
  <course>247.09</course>
  <speed>0.022360679774997897</speed>
  <fix>3d</fix>
</trkpt>
<trkpt lat="40.0713749" lon="-105.229789">
  <ele>1583.0</ele>
  <time>2026-08-28T17:48:26Z</time>
  <course>0.0</course>
  <speed>0.0</speed>
  <fix>3d</fix>
</trkpt>
<trkpt lat="40.071375" lon="-105.2297889">
  <ele>1583.0</ele>
  <time>2026-08-28T17:48:26Z</time>
  <course>247.09</course>
  <speed>0.022360679774997897</speed>
  <fix>3d</fix>
</trkpt>
<trkpt lat="40.0713749" lon="-105.229789">
  <ele>1583.0</ele>
  <time>2026-08-28T17:48:26Z</time>
  <course>0.0</course>
  <speed>0.0</speed>
  <fix>3d</fix>
</trkpt>
<trkpt lat="40.071375" lon="-105.2297889">
  <ele>1583.0</ele>
  <time>2026-08-28T17:48:26Z</time>
  <course>247.09</course>
  <speed>0.022360679774997897</speed>
  <fix>3d</fix>
</trkpt>
<trkpt lat="40.0713749" lon="-105.229789">
  <ele>1583.0</ele>
  <time>2026-08-28T17:48:26Z</time>
  <course>0.0</course>
  <speed>0.0</speed>
  <fix>3d</fix>
</trkpt>
<trkpt lat="40.0713751" lon="-105.2297889">
  <ele>1583.0</ele>
  <time>2026-08-28T17:48:26Z</time>
  <course>247.09</course>
  <speed>0.022360679774997897</speed>
  <fix>3d</fix>
</trkpt>
<trkpt lat="40.0713749" lon="-105.229789">
  <ele>1583.0</ele>
  <time>2026-08-28T17:48:26Z</time>
  <course>0.0</course>
  <speed>0.0</speed>
  <fix>3d</fix>
</trkpt>
<trkpt lat="40.071375" lon="-105.2297889">
  <ele>1583.0</ele>
  <time>2026-08-28T17:48:26Z</time>
  <course>247.09</course>
  <speed>0.022360679774997897</speed>
  <fix>3d</fix>
</trkpt>
<trkpt lat="40.0713749" lon="-105.229789">
  <ele>1583.0</ele>
  <time>2026-08-28T17:48:26Z</time>
  <course>0.0</course>
  <speed>0.0</speed>
  <fix>3d</fix>
</trkpt>
<trkpt lat="40.0713751" lon="-105.2297889">
  <ele>1583.0</ele>
  <time>2026-08-28T17:48:26Z</time>
  <course>247.09</course>
  <speed>0.022360679774997897</speed>
  <fix>3d</fix>
</trkpt>
<trkpt lat="40.0713749" lon="-105.229789">
  <ele>1583.0</ele>
  <time>2026-08-28T17:48:26Z</time>
  <course>0.0</course>
  <speed>0.0</speed>
  <fix>3d</fix>
</trkpt>
<trkpt lat="40.071375" lon="-105.2297889">
  <ele>1583.0</ele>
  <time>2026-08-28T17:48:26Z</time>
  <course>247.09</course>
  <speed>0.022360679774997897</speed>
  <fix>3d</fix>
</trkpt>
<trkpt lat="40.0713749" lon="-105.229789">
  <ele>1583.0</ele>
  <time>2026-08-28T17:48:26Z</time>
  <course>0.0</course>
  <speed>0.0</speed>
  <fix>3d</fix>
</trkpt>
<trkpt lat="40.0713751" lon="-105.2297889">
  <ele>1583.0</ele>
  <time>2026-08-28T17:48:26Z</time>
  <course>247.09</course>
  <speed>0.022360679774997897</speed>
  <fix>3d</fix>
</trkpt>
<trkpt lat="40.0713749" lon="-105.229789">
  <ele>1583.0</ele>
  <time>2026-08-28T17:48:26Z</time>
  <course>0.0</course>
  <speed>0.0</speed>
  <fix>3d</fix>
</trkpt>
<trkpt lat="40.071375" lon="-105.2297889">
  <ele>1582.99</ele>
  <time>2026-08-28T17:48:26Z</time>
  <course>247.09</course>
  <speed>0.022360679774997897</speed>
  <fix>3d</fix>
</trkpt>
<trkpt lat="40.0713749" lon="-105.229789">
  <ele>1583.0</ele>
  <time>2026-08-28T17:48:26Z</time>
  <course>0.0</course>
  <speed>0.0</speed>
  <fix>3d</fix>
</trkpt>
<trkpt lat="40.0713751" lon="-105.2297889">
  <ele>1582.99</ele>
  <time>2026-08-28T17:48:26Z</time>
  <course>247.09</course>
  <speed>0.022360679774997897</speed>
  <fix>3d</fix>
</trkpt>
<trkpt lat="40.0713749" lon="-105.229789">
  <ele>1583.0</ele>
  <time>2026-08-28T17:48:26Z</time>
  <course>0.0</course>
  <speed>0.0</speed>
  <fix>3d</fix>
</trkpt>
<trkpt lat="40.071375" lon="-105.2297889">
  <ele>1582.99</ele>
  <time>2026-08-28T17:48:26Z</time>
  <course>247.09</course>
  <speed>0.022360679774997897</speed>
  <fix>3d</fix>
</trkpt>
<trkpt lat="40.0713749" lon="-105.229789">
  <ele>1583.0</ele>
  <time>2026-08-28T17:48:26Z</time>
  <course>0.0</course>
  <speed>0.0</speed>
  <fix>3d</fix>
</trkpt>
<trkpt lat="40.071375" lon="-105.2297889">
  <ele>1582.99</ele>
  <time>2026-08-28T17:48:26Z</time>
  <course>247.09</course>
  <speed>0.022360679774997897</speed>
  <fix>3d</fix>
</trkpt>
<trkpt lat="40.0713749" lon="-105.229789">
  <ele>1583.0</ele>
  <time>2026-08-28T17:48:26Z</time>
  <course>0.0</course>
  <speed>0.0</speed>
  <fix>3d</fix>
</trkpt>
<trkpt lat="40.071375" lon="-105.2297889">
  <ele>1582.99</ele>
  <time>2026-08-28T17:48:26Z</time>
  <course>247.09</course>
  <speed>0.022360679774997897</speed>
  <fix>3d</fix>
</trkpt>
<trkpt lat="40.0713749" lon="-105.229789">
  <ele>1583.0</ele>
  <time>2026-08-28T17:48:26Z</time>
  <course>0.0</course>
  <speed>0.0</speed>
  <fix>3d</fix>
</trkpt>
<trkpt lat="40.071375" lon="-105.2297889">
  <ele>1582.99</ele>
  <time>2026-08-28T17:48:26Z</time>
  <course>247.09</course>
  <speed>0.022360679774997897</speed>
  <fix>3d</fix>
</trkpt>
<trkpt lat="40.0713749" lon="-105.229789">
  <ele>1583.0</ele>
  <time>2026-08-28T17:48:26Z</time>
  <course>0.0</course>
  <speed>0.0</speed>
  <fix>3d</fix>
</trkpt>
<trkpt lat="40.071375" lon="-105.2297889">
  <ele>1582.99</ele>
  <time>2026-08-28T17:48:26Z</time>
  <course>247.09</course>
  <speed>0.022360679774997897</speed>
  <fix>3d</fix>
</trkpt>
<trkpt lat="40.0713749" lon="-105.229789">
  <ele>1583.0</ele>
  <time>2026-08-28T17:48:26Z</time>
  <course>0.0</course>
  <speed>0.0</speed>
  <fix>3d</fix>
</trkpt>
<trkpt lat="40.071375" lon="-105.2297889">
  <ele>1582.99</ele>
  <time>2026-08-28T17:48:26Z</time>
  <course>247.09</course>
  <speed>0.022360679774997897</speed>
  <fix>3d</fix>
</trkpt>
<trkpt lat="40.0713749" lon="-105.229789">
  <ele>1583.0</ele>
  <time>2026-08-28T17:48:26Z</time>
  <course>0.0</course>
  <speed>0.0</speed>
  <fix>3d</fix>
</trkpt>
<trkpt lat="40.071375" lon="-105.2297889">
  <ele>1582.99</ele>
  <time>2026-08-28T17:48:26Z</time>
  <course>247.09</course>
  <speed>0.022360679774997897</speed>
  <fix>3d</fix>
</trkpt>
<trkpt lat="40.0713749" lon="-105.229789">
  <ele>1583.0</ele>
  <time>2026-08-28T17:48:26Z</time>
  <course>0.0</course>
  <speed>0.0</speed>
  <fix>3d</fix>
</trkpt>
<trkpt lat="40.071375" lon="-105.2297889">
  <ele>1582.99</ele>
  <time>2026-08-28T17:48:26Z</time>
  <course>247.09</course>
  <speed>0.022360679774997897</speed>
  <fix>3d</fix>
</trkpt>
<trkpt lat="40.0713749" lon="-105.229789">
  <ele>1583.0</ele>
  <time>2026-08-28T17:48:26Z</time>
  <course>0.0</course>
  <speed>0.0</speed>
  <fix>3d</fix>
</trkpt>
<trkpt lat="40.071375" lon="-105.2297889">
  <ele>1582.99</ele>
  <time>2026-08-28T17:48:26Z</time>
  <course>247.09</course>
  <speed>0.022360679774997897</speed>
  <fix>3d</fix>
</trkpt>
<trkpt lat="40.0713749" lon="-105.229789">
  <ele>1583.0</ele>
  <time>2026-08-28T17:48:26Z</time>
  <course>0.0</course>
  <speed>0.0</speed>
  <fix>3d</fix>
</trkpt>
<trkpt lat="40.071375" lon="-105.2297889">
  <ele>1582.98</ele>
  <time>2026-08-28T17:48:26Z</time>
  <course>247.09</course>
  <speed>0.022360679774997897</speed>
  <fix>3d</fix>
</trkpt>
<trkpt lat="40.0713749" lon="-105.229789">
  <ele>1583.0</ele>
  <time>2026-08-28T17:48:26Z</time>
  <course>0.0</course>
  <speed>0.0</speed>
  <fix>3d</fix>
</trkpt>
<trkpt lat="40.071375" lon="-105.2297889">
  <ele>1582.98</ele>
  <time>2026-08-28T17:48:26Z</time>
  <course>247.09</course>
  <speed>0.022360679774997897</speed>
  <fix>3d</fix>
</trkpt>
<trkpt lat="40.0713749" lon="-105.229789">
  <ele>1583.0</ele>
  <time>2026-08-28T17:48:26Z</time>
  <course>0.0</course>
  <speed>0.0</speed>
  <fix>3d</fix>
</trkpt>
<trkpt lat="40.071375" lon="-105.2297889">
  <ele>1582.98</ele>
  <time>2026-08-28T17:48:26Z</time>
  <course>247.09</course>
  <speed>0.022360679774997897</speed>
  <fix>3d</fix>
</trkpt>
<trkpt lat="40.0713749" lon="-105.229789">
  <ele>1583.0</ele>
  <time>2026-08-28T17:48:26Z</time>
  <course>0.0</course>
  <speed>0.0</speed>
  <fix>3d</fix>
</trkpt>
<trkpt lat="40.071375" lon="-105.2297889">
  <ele>1582.98</ele>
  <time>2026-08-28T17:48:26Z</time>
  <course>247.09</course>
  <speed>0.022360679774997897</speed>
  <fix>3d</fix>
</trkpt>
<trkpt lat="40.0713749" lon="-105.229789">
  <ele>1583.0</ele>
  <time>2026-08-28T17:48:26Z</time>
  <course>0.0</course>
  <speed>0.0</speed>
  <fix>3d</fix>
</trkpt>
<trkpt lat="40.0713751" lon="-105.2297889">
  <ele>1582.98</ele>
  <time>2026-08-28T17:48:26Z</time>
  <course>247.09</course>
  <speed>0.022360679774997897</speed>
  <fix>3d</fix>
</trkpt>
<trkpt lat="40.0713749" lon="-105.229789">
  <ele>1583.0</ele>
  <time>2026-08-28T17:48:26Z</time>
  <course>0.0</course>
  <speed>0.0</speed>
  <fix>3d</fix>
</trkpt>
<trkpt lat="40.071375" lon="-105.2297889">
  <ele>1582.98</ele>
  <time>2026-08-28T17:48:26Z</time>
  <course>247.09</course>
  <speed>0.022360679774997897</speed>
  <fix>3d</fix>
</trkpt>
<trkpt lat="40.0713749" lon="-105.229789">
  <ele>1583.0</ele>
  <time>2026-08-28T17:48:26Z</time>
  <course>0.0</course>
  <speed>0.0</speed>
  <fix>3d</fix>
</trkpt>
<trkpt lat="40.0713751" lon="-105.2297889">
  <ele>1582.98</ele>
  <time>2026-08-28T17:48:26Z</time>
  <course>247.09</course>
  <speed>0.022360679774997897</speed>
  <fix>3d</fix>
</trkpt>
<trkpt lat="40.0713749" lon="-105.229789">
  <ele>1583.0</ele>
  <time>2026-08-28T17:48:26Z</time>
  <course>0.0</course>
  <speed>0.0</speed>
  <fix>3d</fix>
</trkpt>
<trkpt lat="40.071375" lon="-105.2297889">
  <ele>1582.98</ele>
  <time>2026-08-28T17:48:26Z</time>
  <course>247.09</course>
  <speed>0.022360679774997897</speed>
  <fix>3d</fix>
</trkpt>
<trkpt lat="40.0713749" lon="-105.229789">
  <ele>1583.0</ele>
  <time>2026-08-28T17:48:26Z</time>
  <course>0.0</course>
  <speed>0.0</speed>
  <fix>3d</fix>
</trkpt>
<trkpt lat="40.0713751" lon="-105.2297889">
  <ele>1582.98</ele>
  <time>2026-08-28T17:48:26Z</time>
  <course>247.09</course>
  <speed>0.022360679774997897</speed>
  <fix>3d</fix>
</trkpt>
<trkpt lat="40.0713749" lon="-105.229789">
  <ele>1583.0</ele>
  <time>2026-08-28T17:48:26Z</time>
  <course>0.0</course>
  <speed>0.0</speed>
  <fix>3d</fix>
</trkpt>
<trkpt lat="40.071375" lon="-105.2297889">
  <ele>1582.98</ele>
  <time>2026-08-28T17:48:26Z</time>
  <course>247.09</course>
  <speed>0.022360679774997897</speed>
  <fix>3d</fix>
</trkpt>
<trkpt lat="40.0713749" lon="-105.229789">
  <ele>1583.0</ele>
  <time>2026-08-28T17:48:26Z</time>
  <course>0.0</course>
  <speed>0.0</speed>
  <fix>3d</fix>
</trkpt>
<trkpt lat="40.0713751" lon="-105.2297889">
  <ele>1582.97</ele>
  <time>2026-08-28T17:48:26Z</time>
  <course>247.09</course>
  <speed>0.022360679774997897</speed>
  <fix>3d</fix>
</trkpt>
<trkpt lat="40.0713749" lon="-105.229789">
  <ele>1583.0</ele>
  <time>2026-08-28T17:48:26Z</time>
  <course>0.0</course>
  <speed>0.0</speed>
  <fix>3d</fix>
</trkpt>
<trkpt lat="40.071375" lon="-105.2297889">
  <ele>1582.97</ele>
  <time>2026-08-28T17:48:26Z</time>
  <course>247.09</course>
  <speed>0.022360679774997897</speed>
  <fix>3d</fix>
</trkpt>
<trkpt lat="40.0713749" lon="-105.229789">
  <ele>1583.0</ele>
  <time>2026-08-28T17:48:26Z</time>
  <course>0.0</course>
  <speed>0.0</speed>
  <fix>3d</fix>
</trkpt>
<trkpt lat="40.0713751" lon="-105.2297889">
  <ele>1582.97</ele>
  <time>2026-08-28T17:48:26Z</time>
  <course>247.09</course>
  <speed>0.022360679774997897</speed>
  <fix>3d</fix>
</trkpt>
<trkpt lat="40.0713749" lon="-105.229789">
  <ele>1583.0</ele>
  <time>2026-08-28T17:48:26Z</time>
  <course>0.0</course>
  <speed>0.0</speed>
  <fix>3d</fix>
</trkpt>
<trkpt lat="40.071375" lon="-105.2297889">
  <ele>1582.97</ele>
  <time>2026-08-28T17:48:26Z</time>
  <course>247.09</course>
  <speed>0.022360679774997897</speed>
  <fix>3d</fix>
</trkpt>
<trkpt lat="40.0713749" lon="-105.229789">
  <ele>1583.0</ele>
  <time>2026-08-28T17:48:26Z</time>
  <course>0.0</course>
  <speed>0.0</speed>
  <fix>3d</fix>
</trkpt>
<trkpt lat="40.071375" lon="-105.2297889">
  <ele>1582.97</ele>
  <time>2026-08-28T17:48:26Z</time>
  <course>247.09</course>
  <speed>0.022360679774997897</speed>
  <fix>3d</fix>
</trkpt>
<trkpt lat="40.0713749" lon="-105.229789">
  <ele>1583.0</ele>
  <time>2026-08-28T17:48:26Z</time>
  <course>0.0</course>
  <speed>0.0</speed>
  <fix>3d</fix>
</trkpt>
<trkpt lat="40.071375" lon="-105.2297889">
  <ele>1582.97</ele>
  <time>2026-08-28T17:48:26Z</time>
  <course>247.09</course>
  <speed>0.022360679774997897</speed>
  <fix>3d</fix>
</trkpt>
<trkpt lat="40.0713749" lon="-105.229789">
  <ele>1583.0</ele>
  <time>2026-08-28T17:48:26Z</time>
  <course>0.0</course>
  <speed>0.0</speed>
  <fix>3d</fix>
</trkpt>
<trkpt lat="40.071375" lon="-105.2297889">
  <ele>1582.97</ele>
  <time>2026-08-28T17:48:26Z</time>
  <course>247.09</course>
  <speed>0.022360679774997897</speed>
  <fix>3d</fix>
</trkpt>
<trkpt lat="40.0713749" lon="-105.229789">
  <ele>1583.0</ele>
  <time>2026-08-28T17:48:26Z</time>
  <course>0.0</course>
  <speed>0.0</speed>
  <fix>3d</fix>
</trkpt>
<trkpt lat="40.071375" lon="-105.2297889">
  <ele>1582.98</ele>
  <time>2026-08-28T17:48:26Z</time>
  <course>247.09</course>
  <speed>0.022360679774997897</speed>
  <fix>3d</fix>
</trkpt>
<trkpt lat="40.0713749" lon="-105.229789">
  <ele>1583.0</ele>
  <time>2026-08-28T17:48:26Z</time>
  <course>0.0</course>
  <speed>0.0</speed>
  <fix>3d</fix>
</trkpt>
<trkpt lat="40.071375" lon="-105.2297889">
  <ele>1582.98</ele>
  <time>2026-08-28T17:48:26Z</time>
  <course>247.09</course>
  <speed>0.022360679774997897</speed>
  <fix>3d</fix>
</trkpt>
<trkpt lat="40.0713749" lon="-105.229789">
  <ele>1583.0</ele>
  <time>2026-08-28T17:48:26Z</time>
  <course>0.0</course>
  <speed>0.0</speed>
  <fix>3d</fix>
</trkpt>
<trkpt lat="40.071375" lon="-105.2297889">
  <ele>1582.98</ele>
  <time>2026-08-28T17:48:26Z</time>
  <course>247.09</course>
  <speed>0.022360679774997897</speed>
  <fix>3d</fix>
</trkpt>
<trkpt lat="40.0713749" lon="-105.229789">
  <ele>1583.0</ele>
  <time>2026-08-28T17:48:26Z</time>
  <course>0.0</course>
  <speed>0.0</speed>
  <fix>3d</fix>
</trkpt>
<trkpt lat="40.071375" lon="-105.2297889">
  <ele>1582.98</ele>
  <time>2026-08-28T17:48:26Z</time>
  <course>247.09</course>
  <speed>0.022360679774997897</speed>
  <fix>3d</fix>
</trkpt>
<trkpt lat="40.0713749" lon="-105.229789">
  <ele>1583.0</ele>
  <time>2026-08-28T17:48:26Z</time>
  <course>0.0</course>
  <speed>0.0</speed>
  <fix>3d</fix>
</trkpt>
<trkpt lat="40.071375" lon="-105.2297889">
  <ele>1582.98</ele>
  <time>2026-08-28T17:48:26Z</time>
  <course>247.09</course>
  <speed>0.022360679774997897</speed>
  <fix>3d</fix>
</trkpt>
<trkpt lat="40.0713749" lon="-105.229789">
  <ele>1583.0</ele>
  <time>2026-08-28T17:48:26Z</time>
  <course>0.0</course>
  <speed>0.0</speed>
  <fix>3d</fix>
</trkpt>
<trkpt lat="40.071375" lon="-105.2297889">
  <ele>1582.97</ele>
  <time>2026-08-28T17:48:26Z</time>
  <course>247.09</course>
  <speed>0.022360679774997897</speed>
  <fix>3d</fix>
</trkpt>
<trkpt lat="40.0713749" lon="-105.229789">
  <ele>1583.0</ele>
  <time>2026-08-28T17:48:26Z</time>
  <course>0.0</course>
  <speed>0.0</speed>
  <fix>3d</fix>
</trkpt>
<trkpt lat="40.071375" lon="-105.2297889">
  <ele>1582.97</ele>
  <time>2026-08-28T17:48:26Z</time>
  <course>247.09</course>
  <speed>0.022360679774997897</speed>
  <fix>3d</fix>
</trkpt>
<trkpt lat="40.0713749" lon="-105.229789">
  <ele>1583.0</ele>
  <time>2026-08-28T17:48:26Z</time>
  <course>0.0</course>
  <speed>0.0</speed>
  <fix>3d</fix>
</trkpt>
<trkpt lat="40.071375" lon="-105.2297889">
  <ele>1582.97</ele>
  <time>2026-08-28T17:48:26Z</time>
  <course>247.09</course>
  <speed>0.022360679774997897</speed>
  <fix>3d</fix>
</trkpt>
<trkpt lat="40.0713749" lon="-105.229789">
  <ele>1583.0</ele>
  <time>2026-08-28T17:48:26Z</time>
  <course>0.0</course>
  <speed>0.0</speed>
  <fix>3d</fix>
</trkpt>
<trkpt lat="40.071375" lon="-105.2297889">
  <ele>1582.97</ele>
  <time>2026-08-28T17:48:26Z</time>
  <course>247.09</course>
  <speed>0.022360679774997897</speed>
  <fix>3d</fix>
</trkpt>
<trkpt lat="40.0713749" lon="-105.229789">
  <ele>1583.0</ele>
  <time>2026-08-28T17:48:26Z</time>
  <course>0.0</course>
  <speed>0.0</speed>
  <fix>3d</fix>
</trkpt>
<trkpt lat="40.0713751" lon="-105.2297889">
  <ele>1582.97</ele>
  <time>2026-08-28T17:48:26Z</time>
  <course>247.09</course>
  <speed>0.022360679774997897</speed>
  <fix>3d</fix>
</trkpt>
<trkpt lat="40.0713749" lon="-105.229789">
  <ele>1583.0</ele>
  <time>2026-08-28T17:48:26Z</time>
  <course>0.0</course>
  <speed>0.0</speed>
  <fix>3d</fix>
</trkpt>
<trkpt lat="40.071375" lon="-105.2297889">
  <ele>1582.97</ele>
  <time>2026-08-28T17:48:26Z</time>
  <course>247.09</course>
  <speed>0.022360679774997897</speed>
  <fix>3d</fix>
</trkpt>
<trkpt lat="40.0713749" lon="-105.229789">
  <ele>1583.0</ele>
  <time>2026-08-28T17:48:26Z</time>
  <course>0.0</course>
  <speed>0.0</speed>
  <fix>3d</fix>
</trkpt>
<trkpt lat="40.0713751" lon="-105.2297889">
  <ele>1582.96</ele>
  <time>2026-08-28T17:48:26Z</time>
  <course>247.09</course>
  <speed>0.022360679774997897</speed>
  <fix>3d</fix>
</trkpt>
<trkpt lat="40.0713749" lon="-105.229789">
  <ele>1583.0</ele>
  <time>2026-08-28T17:48:26Z</time>
  <course>0.0</course>
  <speed>0.0</speed>
  <fix>3d</fix>
</trkpt>
<trkpt lat="40.071375" lon="-105.2297889">
  <ele>1582.96</ele>
  <time>2026-08-28T17:48:26Z</time>
  <course>247.09</course>
  <speed>0.022360679774997897</speed>
  <fix>3d</fix>
</trkpt>
<trkpt lat="40.0713749" lon="-105.229789">
  <ele>1583.0</ele>
  <time>2026-08-28T17:48:26Z</time>
  <course>0.0</course>
  <speed>0.0</speed>
  <fix>3d</fix>
</trkpt>
<trkpt lat="40.0713751" lon="-105.2297889">
  <ele>1582.96</ele>
  <time>2026-08-28T17:48:26Z</time>
  <course>247.09</course>
  <speed>0.022360679774997897</speed>
  <fix>3d</fix>
</trkpt>
<trkpt lat="40.0713749" lon="-105.229789">
  <ele>1583.0</ele>
  <time>2026-08-28T17:48:26Z</time>
  <course>0.0</course>
  <speed>0.0</speed>
  <fix>3d</fix>
</trkpt>
<trkpt lat="40.071375" lon="-105.2297889">
  <ele>1582.95</ele>
  <time>2026-08-28T17:48:26Z</time>
  <course>247.09</course>
  <speed>0.022360679774997897</speed>
  <fix>3d</fix>
</trkpt>
<trkpt lat="40.0713749" lon="-105.229789">
  <ele>1583.0</ele>
  <time>2026-08-28T17:48:26Z</time>
  <course>0.0</course>
  <speed>0.0</speed>
  <fix>3d</fix>
</trkpt>
<trkpt lat="40.0713751" lon="-105.2297889">
  <ele>1582.95</ele>
  <time>2026-08-28T17:48:26Z</time>
  <course>247.09</course>
  <speed>0.022360679774997897</speed>
  <fix>3d</fix>
</trkpt>
<trkpt lat="40.0713749" lon="-105.229789">
  <ele>1583.0</ele>
  <time>2026-08-28T17:48:26Z</time>
  <course>0.0</course>
  <speed>0.0</speed>
  <fix>3d</fix>
</trkpt>
<trkpt lat="40.071375" lon="-105.2297889">
  <ele>1582.95</ele>
  <time>2026-08-28T17:48:26Z</time>
  <course>247.09</course>
  <speed>0.022360679774997897</speed>
  <fix>3d</fix>
</trkpt>
<trkpt lat="40.0713749" lon="-105.229789">
  <ele>1583.0</ele>
  <time>2026-08-28T17:48:26Z</time>
  <course>0.0</course>
  <speed>0.0</speed>
  <fix>3d</fix>
</trkpt>
<trkpt lat="40.071375" lon="-105.2297889">
  <ele>1582.94</ele>
  <time>2026-08-28T17:48:26Z</time>
  <course>247.09</course>
  <speed>0.022360679774997897</speed>
  <fix>3d</fix>
</trkpt>
<trkpt lat="40.0713749" lon="-105.229789">
  <ele>1583.0</ele>
  <time>2026-08-28T17:48:26Z</time>
  <course>0.0</course>
  <speed>0.0</speed>
  <fix>3d</fix>
</trkpt>
<trkpt lat="40.071375" lon="-105.2297889">
  <ele>1582.94</ele>
  <time>2026-08-28T17:48:26Z</time>
  <course>247.09</course>
  <speed>0.022360679774997897</speed>
  <fix>3d</fix>
</trkpt>
<trkpt lat="40.0713749" lon="-105.229789">
  <ele>1583.0</ele>
  <time>2026-08-28T17:48:26Z</time>
  <course>0.0</course>
  <speed>0.0</speed>
  <fix>3d</fix>
</trkpt>
<trkpt lat="40.071375" lon="-105.2297889">
  <ele>1582.93</ele>
  <time>2026-08-28T17:48:26Z</time>
  <course>247.09</course>
  <speed>0.022360679774997897</speed>
  <fix>3d</fix>
</trkpt>
<trkpt lat="40.0713749" lon="-105.229789">
  <ele>1583.0</ele>
  <time>2026-08-28T17:48:26Z</time>
  <course>0.0</course>
  <speed>0.0</speed>
  <fix>3d</fix>
</trkpt>
<trkpt lat="40.071375" lon="-105.2297889">
  <ele>1582.93</ele>
  <time>2026-08-28T17:48:26Z</time>
  <course>247.09</course>
  <speed>0.022360679774997897</speed>
  <fix>3d</fix>
</trkpt>
<trkpt lat="40.0713749" lon="-105.229789">
  <ele>1583.0</ele>
  <time>2026-08-28T17:48:26Z</time>
  <course>0.0</course>
  <speed>0.0</speed>
  <fix>3d</fix>
</trkpt>
<trkpt lat="40.071375" lon="-105.2297889">
  <ele>1582.93</ele>
  <time>2026-08-28T17:48:26Z</time>
  <course>247.09</course>
  <speed>0.022360679774997897</speed>
  <fix>3d</fix>
</trkpt>
<trkpt lat="40.0713749" lon="-105.229789">
  <ele>1583.0</ele>
  <time>2026-08-28T17:48:26Z</time>
  <course>0.0</course>
  <speed>0.0</speed>
  <fix>3d</fix>
</trkpt>
<trkpt lat="40.071375" lon="-105.2297889">
  <ele>1582.92</ele>
  <time>2026-08-28T17:48:26Z</time>
  <course>247.09</course>
  <speed>0.022360679774997897</speed>
  <fix>3d</fix>
</trkpt>
<trkpt lat="40.0713749" lon="-105.229789">
  <ele>1583.0</ele>
  <time>2026-08-28T17:48:26Z</time>
  <course>0.0</course>
  <speed>0.0</speed>
  <fix>3d</fix>
</trkpt>
<trkpt lat="40.071375" lon="-105.2297889">
  <ele>1582.93</ele>
  <time>2026-08-28T17:48:26Z</time>
  <course>247.09</course>
  <speed>0.022360679774997897</speed>
  <fix>3d</fix>
</trkpt>
<trkpt lat="40.0713749" lon="-105.229789">
  <ele>1583.0</ele>
  <time>2026-08-28T17:48:26Z</time>
  <course>0.0</course>
  <speed>0.0</speed>
  <fix>3d</fix>
</trkpt>
<trkpt lat="40.071375" lon="-105.2297889">
  <ele>1582.93</ele>
  <time>2026-08-28T17:48:26Z</time>
  <course>247.09</course>
  <speed>0.022360679774997897</speed>
  <fix>3d</fix>
</trkpt>
<trkpt lat="40.0713749" lon="-105.229789">
  <ele>1583.0</ele>
  <time>2026-08-28T17:48:26Z</time>
  <course>0.0</course>
  <speed>0.0</speed>
  <fix>3d</fix>
</trkpt>
<trkpt lat="40.071375" lon="-105.2297889">
  <ele>1582.93</ele>
  <time>2026-08-28T17:48:26Z</time>
  <course>247.09</course>
  <speed>0.022360679774997897</speed>
  <fix>3d</fix>
</trkpt>
<trkpt lat="40.0713749" lon="-105.229789">
  <ele>1583.0</ele>
  <time>2026-08-28T17:48:26Z</time>
  <course>0.0</course>
  <speed>0.0</speed>
  <fix>3d</fix>
</trkpt>
<trkpt lat="40.071375" lon="-105.2297889">
  <ele>1582.94</ele>
  <time>2026-08-28T17:48:26Z</time>
  <course>247.09</course>
  <speed>0.022360679774997897</speed>
  <fix>3d</fix>
</trkpt>
<trkpt lat="40.0713749" lon="-105.229789">
  <ele>1583.0</ele>
  <time>2026-08-28T17:48:26Z</time>
  <course>0.0</course>
  <speed>0.0</speed>
  <fix>3d</fix>
</trkpt>
<trkpt lat="40.071375" lon="-105.2297889">
  <ele>1582.95</ele>
  <time>2026-08-28T17:48:26Z</time>
  <course>247.09</course>
  <speed>0.022360679774997897</speed>
  <fix>3d</fix>
</trkpt>
<trkpt lat="40.0713749" lon="-105.229789">
  <ele>1583.0</ele>
  <time>2026-08-28T17:48:26Z</time>
  <course>0.0</course>
  <speed>0.0</speed>
  <fix>3d</fix>
</trkpt>
<trkpt lat="40.071375" lon="-105.2297889">
  <ele>1582.95</ele>
  <time>2026-08-28T17:48:26Z</time>
  <course>247.09</course>
  <speed>0.022360679774997897</speed>
  <fix>3d</fix>
</trkpt>
<trkpt lat="40.0713749" lon="-105.229789">
  <ele>1583.0</ele>
  <time>2026-08-28T17:48:26Z</time>
  <course>0.0</course>
  <speed>0.0</speed>
  <fix>3d</fix>
</trkpt>
<trkpt lat="40.0713751" lon="-105.2297889">
  <ele>1582.96</ele>
  <time>2026-08-28T17:48:26Z</time>
  <course>247.09</course>
  <speed>0.022360679774997897</speed>
  <fix>3d</fix>
</trkpt>
<trkpt lat="40.0713749" lon="-105.229789">
  <ele>1583.0</ele>
  <time>2026-08-28T17:48:26Z</time>
  <course>0.0</course>
  <speed>0.0</speed>
  <fix>3d</fix>
</trkpt>
<trkpt lat="40.071375" lon="-105.2297889">
  <ele>1582.97</ele>
  <time>2026-08-28T17:48:26Z</time>
  <course>247.09</course>
  <speed>0.022360679774997897</speed>
  <fix>3d</fix>
</trkpt>
<trkpt lat="40.0713749" lon="-105.229789">
  <ele>1583.0</ele>
  <time>2026-08-28T17:48:26Z</time>
  <course>0.0</course>
  <speed>0.0</speed>
  <fix>3d</fix>
</trkpt>
<trkpt lat="40.0713751" lon="-105.2297889">
  <ele>1582.97</ele>
  <time>2026-08-28T17:48:26Z</time>
  <course>247.09</course>
  <speed>0.022360679774997897</speed>
  <fix>3d</fix>
</trkpt>
<trkpt lat="40.0713749" lon="-105.229789">
  <ele>1583.0</ele>
  <time>2026-08-28T17:48:26Z</time>
  <course>0.0</course>
  <speed>0.0</speed>
  <fix>3d</fix>
</trkpt>
<trkpt lat="40.0713751" lon="-105.2297889">
  <ele>1582.97</ele>
  <time>2026-08-28T17:48:26Z</time>
  <course>247.09</course>
  <speed>0.022360679774997897</speed>
  <fix>3d</fix>
</trkpt>
<trkpt lat="40.0713749" lon="-105.229789">
  <ele>1583.0</ele>
  <time>2026-08-28T17:48:26Z</time>
  <course>0.0</course>
  <speed>0.0</speed>
  <fix>3d</fix>
</trkpt>
<trkpt lat="40.0713751" lon="-105.2297889">
  <ele>1582.98</ele>
  <time>2026-08-28T17:48:26Z</time>
  <course>247.09</course>
  <speed>0.022360679774997897</speed>
  <fix>3d</fix>
</trkpt>
<trkpt lat="40.0713749" lon="-105.229789">
  <ele>1583.0</ele>
  <time>2026-08-28T17:48:26Z</time>
  <course>0.0</course>
  <speed>0.0</speed>
  <fix>3d</fix>
</trkpt>
<trkpt lat="40.0713751" lon="-105.2297889">
  <ele>1582.98</ele>
  <time>2026-08-28T17:48:26Z</time>
  <course>247.09</course>
  <speed>0.022360679774997897</speed>
  <fix>3d</fix>
</trkpt>
<trkpt lat="40.0713749" lon="-105.229789">
  <ele>1583.0</ele>
  <time>2026-08-28T17:48:26Z</time>
  <course>0.0</course>
  <speed>0.0</speed>
  <fix>3d</fix>
</trkpt>
<trkpt lat="40.0713751" lon="-105.2297889">
  <ele>1582.98</ele>
  <time>2026-08-28T17:48:26Z</time>
  <course>247.09</course>
  <speed>0.022360679774997897</speed>
  <fix>3d</fix>
</trkpt>
<trkpt lat="40.0713749" lon="-105.229789">
  <ele>1583.0</ele>
  <time>2026-08-28T17:48:26Z</time>
  <course>0.0</course>
  <speed>0.0</speed>
  <fix>3d</fix>
</trkpt>
<trkpt lat="40.0713751" lon="-105.2297889">
  <ele>1582.98</ele>
  <time>2026-08-28T17:48:26Z</time>
  <course>247.09</course>
  <speed>0.022360679774997897</speed>
  <fix>3d</fix>
</trkpt>
<trkpt lat="40.0713749" lon="-105.229789">
  <ele>1583.0</ele>
  <time>2026-08-28T17:48:26Z</time>
  <course>0.0</course>
  <speed>0.0</speed>
  <fix>3d</fix>
</trkpt>
<trkpt lat="40.0713751" lon="-105.2297889">
  <ele>1582.98</ele>
  <time>2026-08-28T17:48:26Z</time>
  <course>247.09</course>
  <speed>0.022360679774997897</speed>
  <fix>3d</fix>
</trkpt>
<trkpt lat="40.0713749" lon="-105.229789">
  <ele>1583.0</ele>
  <time>2026-08-28T17:48:26Z</time>
  <course>0.0</course>
  <speed>0.0</speed>
  <fix>3d</fix>
</trkpt>
<trkpt lat="40.071375" lon="-105.2297889">
  <ele>1582.98</ele>
  <time>2026-08-28T17:48:26Z</time>
  <course>247.09</course>
  <speed>0.022360679774997897</speed>
  <fix>3d</fix>
</trkpt>
<trkpt lat="40.0713749" lon="-105.229789">
  <ele>1583.0</ele>
  <time>2026-08-28T17:48:26Z</time>
  <course>0.0</course>
  <speed>0.0</speed>
  <fix>3d</fix>
</trkpt>
<trkpt lat="40.0713751" lon="-105.2297889">
  <ele>1582.98</ele>
  <time>2026-08-28T17:48:26Z</time>
  <course>247.09</course>
  <speed>0.022360679774997897</speed>
  <fix>3d</fix>
</trkpt>
<trkpt lat="40.0713749" lon="-105.229789">
  <ele>1583.0</ele>
  <time>2026-08-28T17:48:26Z</time>
  <course>0.0</course>
  <speed>0.0</speed>
  <fix>3d</fix>
</trkpt>
<trkpt lat="40.071375" lon="-105.2297889">
  <ele>1582.98</ele>
  <time>2026-08-28T17:48:26Z</time>
  <course>247.09</course>
  <speed>0.022360679774997897</speed>
  <fix>3d</fix>
</trkpt>
<trkpt lat="40.0713749" lon="-105.229789">
  <ele>1583.0</ele>
  <time>2026-08-28T17:48:26Z</time>
  <course>0.0</course>
  <speed>0.0</speed>
  <fix>3d</fix>
</trkpt>
<trkpt lat="40.0713751" lon="-105.2297889">
  <ele>1582.99</ele>
  <time>2026-08-28T17:48:26Z</time>
  <course>247.09</course>
  <speed>0.022360679774997897</speed>
  <fix>3d</fix>
</trkpt>
<trkpt lat="40.0713749" lon="-105.229789">
  <ele>1583.0</ele>
  <time>2026-08-28T17:48:26Z</time>
  <course>0.0</course>
  <speed>0.0</speed>
  <fix>3d</fix>
</trkpt>
<trkpt lat="40.071375" lon="-105.2297889">
  <ele>1582.99</ele>
  <time>2026-08-28T17:48:26Z</time>
  <course>247.09</course>
  <speed>0.022360679774997897</speed>
  <fix>3d</fix>
</trkpt>
<trkpt lat="40.0713749" lon="-105.229789">
  <ele>1583.0</ele>
  <time>2026-08-28T17:48:26Z</time>
  <course>0.0</course>
  <speed>0.0</speed>
  <fix>3d</fix>
</trkpt>
<trkpt lat="40.0713751" lon="-105.2297889">
  <ele>1582.99</ele>
  <time>2026-08-28T17:48:26Z</time>
  <course>247.09</course>
  <speed>0.022360679774997897</speed>
  <fix>3d</fix>
</trkpt>
<trkpt lat="40.0713749" lon="-105.229789">
  <ele>1583.0</ele>
  <time>2026-08-28T17:48:26Z</time>
  <course>0.0</course>
  <speed>0.0</speed>
  <fix>3d</fix>
</trkpt>
<trkpt lat="40.071375" lon="-105.2297889">
  <ele>1582.99</ele>
  <time>2026-08-28T17:48:26Z</time>
  <course>247.09</course>
  <speed>0.022360679774997897</speed>
  <fix>3d</fix>
</trkpt>
<trkpt lat="40.0713749" lon="-105.229789">
  <ele>1583.0</ele>
  <time>2026-08-28T17:48:26Z</time>
  <course>0.0</course>
  <speed>0.0</speed>
  <fix>3d</fix>
</trkpt>
<trkpt lat="40.0713751" lon="-105.2297889">
  <ele>1583.0</ele>
  <time>2026-08-28T17:48:26Z</time>
  <course>247.09</course>
  <speed>0.022360679774997897</speed>
  <fix>3d</fix>
</trkpt>
<trkpt lat="40.0713749" lon="-105.229789">
  <ele>1583.0</ele>
  <time>2026-08-28T17:48:26Z</time>
  <course>0.0</course>
  <speed>0.0</speed>
  <fix>3d</fix>
</trkpt>
<trkpt lat="40.071375" lon="-105.2297889">
  <ele>1583.0</ele>
  <time>2026-08-28T17:48:26Z</time>
  <course>247.09</course>
  <speed>0.022360679774997897</speed>
  <fix>3d</fix>
</trkpt>
<trkpt lat="40.0713749" lon="-105.229789">
  <ele>1583.0</ele>
  <time>2026-08-28T17:48:26Z</time>
  <course>0.0</course>
  <speed>0.0</speed>
  <fix>3d</fix>
</trkpt>
<trkpt lat="40.0713751" lon="-105.2297889">
  <ele>1583.0</ele>
  <time>2026-08-28T17:48:26Z</time>
  <course>247.09</course>
  <speed>0.022360679774997897</speed>
  <fix>3d</fix>
</trkpt>
<trkpt lat="40.0713749" lon="-105.229789">
  <ele>1583.0</ele>
  <time>2026-08-28T17:48:26Z</time>
  <course>0.0</course>
  <speed>0.0</speed>
  <fix>3d</fix>
</trkpt>
<trkpt lat="40.071375" lon="-105.2297889">
  <ele>1583.0</ele>
  <time>2026-08-28T17:48:26Z</time>
  <course>247.09</course>
  <speed>0.022360679774997897</speed>
  <fix>3d</fix>
</trkpt>
<trkpt lat="40.0713749" lon="-105.229789">
  <ele>1583.0</ele>
  <time>2026-08-28T17:48:26Z</time>
  <course>0.0</course>
  <speed>0.0</speed>
  <fix>3d</fix>
</trkpt>
<trkpt lat="40.0713751" lon="-105.2297889">
  <ele>1583.01</ele>
  <time>2026-08-28T17:48:26Z</time>
  <course>247.09</course>
  <speed>0.022360679774997897</speed>
  <fix>3d</fix>
</trkpt>
<trkpt lat="40.0713749" lon="-105.229789">
  <ele>1583.0</ele>
  <time>2026-08-28T17:48:26Z</time>
  <course>0.0</course>
  <speed>0.0</speed>
  <fix>3d</fix>
</trkpt>
<trkpt lat="40.071375" lon="-105.2297889">
  <ele>1583.01</ele>
  <time>2026-08-28T17:48:26Z</time>
  <course>247.09</course>
  <speed>0.022360679774997897</speed>
  <fix>3d</fix>
</trkpt>
<trkpt lat="40.0713749" lon="-105.229789">
  <ele>1583.0</ele>
  <time>2026-08-28T17:48:26Z</time>
  <course>0.0</course>
  <speed>0.0</speed>
  <fix>3d</fix>
</trkpt>
<trkpt lat="40.0713751" lon="-105.2297889">
  <ele>1583.02</ele>
  <time>2026-08-28T17:48:26Z</time>
  <course>247.09</course>
  <speed>0.022360679774997897</speed>
  <fix>3d</fix>
</trkpt>
<trkpt lat="40.0713749" lon="-105.229789">
  <ele>1583.0</ele>
  <time>2026-08-28T17:48:26Z</time>
  <course>0.0</course>
  <speed>0.0</speed>
  <fix>3d</fix>
</trkpt>
<trkpt lat="40.0713751" lon="-105.2297889">
  <ele>1583.02</ele>
  <time>2026-08-28T17:48:26Z</time>
  <course>247.09</course>
  <speed>0.022360679774997897</speed>
  <fix>3d</fix>
</trkpt>
<trkpt lat="40.0713749" lon="-105.229789">
  <ele>1583.0</ele>
  <time>2026-08-28T17:48:26Z</time>
  <course>0.0</course>
  <speed>0.0</speed>
  <fix>3d</fix>
</trkpt>
<trkpt lat="40.0713751" lon="-105.2297889">
  <ele>1583.02</ele>
  <time>2026-08-28T17:48:26Z</time>
  <course>247.09</course>
  <speed>0.022360679774997897</speed>
  <fix>3d</fix>
</trkpt>
<trkpt lat="40.0713749" lon="-105.229789">
  <ele>1583.0</ele>
  <time>2026-08-28T17:48:26Z</time>
  <course>0.0</course>
  <speed>0.0</speed>
  <fix>3d</fix>
</trkpt>
<trkpt lat="40.0713751" lon="-105.2297889">
  <ele>1583.03</ele>
  <time>2026-08-28T17:48:26Z</time>
  <course>247.09</course>
  <speed>0.022360679774997897</speed>
  <fix>3d</fix>
</trkpt>
<trkpt lat="40.0713749" lon="-105.229789">
  <ele>1583.0</ele>
  <time>2026-08-28T17:48:26Z</time>
  <course>0.0</course>
  <speed>0.0</speed>
  <fix>3d</fix>
</trkpt>
<trkpt lat="40.0713751" lon="-105.2297889">
  <ele>1583.04</ele>
  <time>2026-08-28T17:48:26Z</time>
  <course>247.09</course>
  <speed>0.022360679774997897</speed>
  <fix>3d</fix>
</trkpt>
<trkpt lat="40.0713749" lon="-105.229789">
  <ele>1583.0</ele>
  <time>2026-08-28T17:48:26Z</time>
  <course>0.0</course>
  <speed>0.0</speed>
  <fix>3d</fix>
</trkpt>
<trkpt lat="40.0713751" lon="-105.2297889">
  <ele>1583.04</ele>
  <time>2026-08-28T17:48:26Z</time>
  <course>247.09</course>
  <speed>0.022360679774997897</speed>
  <fix>3d</fix>
</trkpt>
<trkpt lat="40.0713749" lon="-105.229789">
  <ele>1583.0</ele>
  <time>2026-08-28T17:48:26Z</time>
  <course>0.0</course>
  <speed>0.0</speed>
  <fix>3d</fix>
</trkpt>
<trkpt lat="40.0713751" lon="-105.2297889">
  <ele>1583.04</ele>
  <time>2026-08-28T17:48:26Z</time>
  <course>247.09</course>
  <speed>0.022360679774997897</speed>
  <fix>3d</fix>
</trkpt>
<trkpt lat="40.0713749" lon="-105.229789">
  <ele>1583.0</ele>
  <time>2026-08-28T17:48:26Z</time>
  <course>0.0</course>
  <speed>0.0</speed>
  <fix>3d</fix>
</trkpt>
<trkpt lat="40.071375" lon="-105.2297889">
  <ele>1583.04</ele>
  <time>2026-08-28T17:48:26Z</time>
  <course>247.09</course>
  <speed>0.022360679774997897</speed>
  <fix>3d</fix>
</trkpt>
<trkpt lat="40.0713749" lon="-105.229789">
  <ele>1583.0</ele>
  <time>2026-08-28T17:48:26Z</time>
  <course>0.0</course>
  <speed>0.0</speed>
  <fix>3d</fix>
</trkpt>
<trkpt lat="40.0713751" lon="-105.2297889">
  <ele>1583.04</ele>
  <time>2026-08-28T17:48:26Z</time>
  <course>247.09</course>
  <speed>0.022360679774997897</speed>
  <fix>3d</fix>
</trkpt>
<trkpt lat="40.0713749" lon="-105.229789">
  <ele>1583.0</ele>
  <time>2026-08-28T17:48:26Z</time>
  <course>0.0</course>
  <speed>0.0</speed>
  <fix>3d</fix>
</trkpt>
<trkpt lat="40.071375" lon="-105.2297889">
  <ele>1583.04</ele>
  <time>2026-08-28T17:48:26Z</time>
  <course>247.09</course>
  <speed>0.022360679774997897</speed>
  <fix>3d</fix>
</trkpt>
<trkpt lat="40.0713749" lon="-105.229789">
  <ele>1583.0</ele>
  <time>2026-08-28T17:48:26Z</time>
  <course>0.0</course>
  <speed>0.0</speed>
  <fix>3d</fix>
</trkpt>
<trkpt lat="40.0713751" lon="-105.2297889">
  <ele>1583.04</ele>
  <time>2026-08-28T17:48:26Z</time>
  <course>247.09</course>
  <speed>0.022360679774997897</speed>
  <fix>3d</fix>
</trkpt>
<trkpt lat="40.0713749" lon="-105.229789">
  <ele>1583.0</ele>
  <time>2026-08-28T17:48:26Z</time>
  <course>0.0</course>
  <speed>0.0</speed>
  <fix>3d</fix>
</trkpt>
<trkpt lat="40.071375" lon="-105.2297889">
  <ele>1583.04</ele>
  <time>2026-08-28T17:48:26Z</time>
  <course>247.09</course>
  <speed>0.022360679774997897</speed>
  <fix>3d</fix>
</trkpt>
<trkpt lat="40.0713749" lon="-105.229789">
  <ele>1583.0</ele>
  <time>2026-08-28T17:48:26Z</time>
  <course>0.0</course>
  <speed>0.0</speed>
  <fix>3d</fix>
</trkpt>
<trkpt lat="40.0713751" lon="-105.2297889">
  <ele>1583.04</ele>
  <time>2026-08-28T17:48:26Z</time>
  <course>247.09</course>
  <speed>0.022360679774997897</speed>
  <fix>3d</fix>
</trkpt>
<trkpt lat="40.0713749" lon="-105.229789">
  <ele>1583.0</ele>
  <time>2026-08-28T17:48:26Z</time>
  <course>0.0</course>
  <speed>0.0</speed>
  <fix>3d</fix>
</trkpt>
<trkpt lat="40.071375" lon="-105.2297889">
  <ele>1583.05</ele>
  <time>2026-08-28T17:48:26Z</time>
  <course>247.09</course>
  <speed>0.022360679774997897</speed>
  <fix>3d</fix>
</trkpt>
<trkpt lat="40.0713749" lon="-105.229789">
  <ele>1583.0</ele>
  <time>2026-08-28T17:48:26Z</time>
  <course>0.0</course>
  <speed>0.0</speed>
  <fix>3d</fix>
</trkpt>
<trkpt lat="40.0713751" lon="-105.2297889">
  <ele>1583.05</ele>
  <time>2026-08-28T17:48:26Z</time>
  <course>247.09</course>
  <speed>0.022360679774997897</speed>
  <fix>3d</fix>
</trkpt>
<trkpt lat="40.0713749" lon="-105.229789">
  <ele>1583.0</ele>
  <time>2026-08-28T17:48:26Z</time>
  <course>0.0</course>
  <speed>0.0</speed>
  <fix>3d</fix>
</trkpt>
<trkpt lat="40.071375" lon="-105.2297889">
  <ele>1583.05</ele>
  <time>2026-08-28T17:48:26Z</time>
  <course>247.09</course>
  <speed>0.022360679774997897</speed>
  <fix>3d</fix>
</trkpt>
<trkpt lat="40.0713749" lon="-105.229789">
  <ele>1583.0</ele>
  <time>2026-08-28T17:48:26Z</time>
  <course>0.0</course>
  <speed>0.0</speed>
  <fix>3d</fix>
</trkpt>
<trkpt lat="40.0713751" lon="-105.2297889">
  <ele>1583.05</ele>
  <time>2026-08-28T17:48:26Z</time>
  <course>247.09</course>
  <speed>0.022360679774997897</speed>
  <fix>3d</fix>
</trkpt>
<trkpt lat="40.0713749" lon="-105.229789">
  <ele>1583.0</ele>
  <time>2026-08-28T17:48:26Z</time>
  <course>0.0</course>
  <speed>0.0</speed>
  <fix>3d</fix>
</trkpt>
<trkpt lat="40.071375" lon="-105.2297889">
  <ele>1583.05</ele>
  <time>2026-08-28T17:48:26Z</time>
  <course>247.09</course>
  <speed>0.022360679774997897</speed>
  <fix>3d</fix>
</trkpt>
<trkpt lat="40.0713749" lon="-105.229789">
  <ele>1583.0</ele>
  <time>2026-08-28T17:48:26Z</time>
  <course>0.0</course>
  <speed>0.0</speed>
  <fix>3d</fix>
</trkpt>
<trkpt lat="40.0713751" lon="-105.2297889">
  <ele>1583.05</ele>
  <time>2026-08-28T17:48:26Z</time>
  <course>247.09</course>
  <speed>0.022360679774997897</speed>
  <fix>3d</fix>
</trkpt>
<trkpt lat="40.0713749" lon="-105.229789">
  <ele>1583.0</ele>
  <time>2026-08-28T17:48:26Z</time>
  <course>0.0</course>
  <speed>0.0</speed>
  <fix>3d</fix>
</trkpt>
<trkpt lat="40.071375" lon="-105.2297889">
  <ele>1583.06</ele>
  <time>2026-08-28T17:48:26Z</time>
  <course>247.09</course>
  <speed>0.022360679774997897</speed>
  <fix>3d</fix>
</trkpt>
<trkpt lat="40.0713749" lon="-105.229789">
  <ele>1583.0</ele>
  <time>2026-08-28T17:48:26Z</time>
  <course>0.0</course>
  <speed>0.0</speed>
  <fix>3d</fix>
</trkpt>
<trkpt lat="40.0713751" lon="-105.2297889">
  <ele>1583.06</ele>
  <time>2026-08-28T17:48:26Z</time>
  <course>247.09</course>
  <speed>0.022360679774997897</speed>
  <fix>3d</fix>
</trkpt>
<trkpt lat="40.0713749" lon="-105.229789">
  <ele>1583.0</ele>
  <time>2026-08-28T17:48:26Z</time>
  <course>0.0</course>
  <speed>0.0</speed>
  <fix>3d</fix>
</trkpt>
<trkpt lat="40.0713751" lon="-105.2297889">
  <ele>1583.06</ele>
  <time>2026-08-28T17:48:26Z</time>
  <course>247.09</course>
  <speed>0.022360679774997897</speed>
  <fix>3d</fix>
</trkpt>
<trkpt lat="40.0713749" lon="-105.229789">
  <ele>1583.0</ele>
  <time>2026-08-28T17:48:26Z</time>
  <course>0.0</course>
  <speed>0.0</speed>
  <fix>3d</fix>
</trkpt>
<trkpt lat="40.0713751" lon="-105.2297889">
  <ele>1583.06</ele>
  <time>2026-08-28T17:48:26Z</time>
  <course>247.09</course>
  <speed>0.022360679774997897</speed>
  <fix>3d</fix>
</trkpt>
<trkpt lat="40.0713749" lon="-105.229789">
  <ele>1583.0</ele>
  <time>2026-08-28T17:48:26Z</time>
  <course>0.0</course>
  <speed>0.0</speed>
  <fix>3d</fix>
</trkpt>
<trkpt lat="40.0713751" lon="-105.2297889">
  <ele>1583.07</ele>
  <time>2026-08-28T17:48:26Z</time>
  <course>247.09</course>
  <speed>0.022360679774997897</speed>
  <fix>3d</fix>
</trkpt>
<trkpt lat="40.0713749" lon="-105.229789">
  <ele>1583.0</ele>
  <time>2026-08-28T17:48:26Z</time>
  <course>0.0</course>
  <speed>0.0</speed>
  <fix>3d</fix>
</trkpt>
<trkpt lat="40.0713751" lon="-105.2297889">
  <ele>1583.07</ele>
  <time>2026-08-28T17:48:26Z</time>
  <course>247.09</course>
  <speed>0.022360679774997897</speed>
  <fix>3d</fix>
</trkpt>
<trkpt lat="40.0713749" lon="-105.229789">
  <ele>1583.0</ele>
  <time>2026-08-28T17:48:26Z</time>
  <course>0.0</course>
  <speed>0.0</speed>
  <fix>3d</fix>
</trkpt>
<trkpt lat="40.0713751" lon="-105.2297889">
  <ele>1583.07</ele>
  <time>2026-08-28T17:48:26Z</time>
  <course>247.09</course>
  <speed>0.022360679774997897</speed>
  <fix>3d</fix>
</trkpt>
<trkpt lat="40.0713749" lon="-105.229789">
  <ele>1583.0</ele>
  <time>2026-08-28T17:48:26Z</time>
  <course>0.0</course>
  <speed>0.0</speed>
  <fix>3d</fix>
</trkpt>
<trkpt lat="40.0713751" lon="-105.2297889">
  <ele>1583.08</ele>
  <time>2026-08-28T17:48:26Z</time>
  <course>247.09</course>
  <speed>0.022360679774997897</speed>
  <fix>3d</fix>
</trkpt>
<trkpt lat="40.0713749" lon="-105.229789">
  <ele>1583.0</ele>
  <time>2026-08-28T17:48:26Z</time>
  <course>0.0</course>
  <speed>0.0</speed>
  <fix>3d</fix>
</trkpt>
<trkpt lat="40.0713751" lon="-105.2297889">
  <ele>1583.08</ele>
  <time>2026-08-28T17:48:26Z</time>
  <course>247.09</course>
  <speed>0.02</speed>
  <fix>3d</fix>
</trkpt>
<trkpt lat="40.0713749" lon="-105.229789">
  <ele>1583.0</ele>
  <time>2026-08-28T17:48:26Z</time>
  <course>0.0</course>
  <speed>0.0</speed>
  <fix>3d</fix>
</trkpt>
<trkpt lat="40.0713751" lon="-105.2297889">
  <ele>1583.09</ele>
  <time>2026-08-28T17:48:26Z</time>
  <course>247.09</course>
  <speed>0.022360679774997897</speed>
  <fix>3d</fix>
</trkpt>
<trkpt lat="40.0713749" lon="-105.229789">
  <ele>1583.0</ele>
  <time>2026-08-28T17:48:26Z</time>
  <course>0.0</course>
  <speed>0.0</speed>
  <fix>3d</fix>
</trkpt>
<trkpt lat="40.071375" lon="-105.2297889">
  <ele>1583.09</ele>
  <time>2026-08-28T17:48:26Z</time>
  <course>247.09</course>
  <speed>0.02</speed>
  <fix>3d</fix>
</trkpt>
<trkpt lat="40.0713749" lon="-105.229789">
  <ele>1583.0</ele>
  <time>2026-08-28T17:48:26Z</time>
  <course>0.0</course>
  <speed>0.0</speed>
  <fix>3d</fix>
</trkpt>
<trkpt lat="40.0713751" lon="-105.2297889">
  <ele>1583.09</ele>
  <time>2026-08-28T17:48:26Z</time>
  <course>247.09</course>
  <speed>0.022360679774997897</speed>
  <fix>3d</fix>
</trkpt>
<trkpt lat="40.0713749" lon="-105.229789">
  <ele>1583.0</ele>
  <time>2026-08-28T17:48:26Z</time>
  <course>0.0</course>
  <speed>0.0</speed>
  <fix>3d</fix>
</trkpt>
<trkpt lat="40.071375" lon="-105.2297889">
  <ele>1583.09</ele>
  <time>2026-08-28T17:48:26Z</time>
  <course>247.09</course>
  <speed>0.022360679774997897</speed>
  <fix>3d</fix>
</trkpt>
<trkpt lat="40.0713749" lon="-105.229789">
  <ele>1583.0</ele>
  <time>2026-08-28T17:48:26Z</time>
  <course>0.0</course>
  <speed>0.0</speed>
  <fix>3d</fix>
</trkpt>
<trkpt lat="40.0713751" lon="-105.2297889">
  <ele>1583.08</ele>
  <time>2026-08-28T17:48:26Z</time>
  <course>247.08</course>
  <speed>0.022360679774997897</speed>
  <fix>3d</fix>
</trkpt>
<trkpt lat="40.0713749" lon="-105.229789">
  <ele>1583.0</ele>
  <time>2026-08-28T17:48:26Z</time>
  <course>0.0</course>
  <speed>0.0</speed>
  <fix>3d</fix>
</trkpt>
<trkpt lat="40.071375" lon="-105.2297889">
  <ele>1583.07</ele>
  <time>2026-08-28T17:48:26Z</time>
  <course>247.08</course>
  <speed>0.022360679774997897</speed>
  <fix>3d</fix>
</trkpt>
<trkpt lat="40.0713749" lon="-105.229789">
  <ele>1583.0</ele>
  <time>2026-08-28T17:48:26Z</time>
  <course>0.0</course>
  <speed>0.0</speed>
  <fix>3d</fix>
</trkpt>
<trkpt lat="40.0713751" lon="-105.2297889">
  <ele>1583.06</ele>
  <time>2026-08-28T17:48:26Z</time>
  <course>247.09</course>
  <speed>0.022360679774997897</speed>
  <fix>3d</fix>
</trkpt>
<trkpt lat="40.0713749" lon="-105.229789">
  <ele>1583.0</ele>
  <time>2026-08-28T17:48:26Z</time>
  <course>0.0</course>
  <speed>0.0</speed>
  <fix>3d</fix>
</trkpt>
<trkpt lat="40.071375" lon="-105.2297889">
  <ele>1583.06</ele>
  <time>2026-08-28T17:48:26Z</time>
  <course>247.08</course>
  <speed>0.022360679774997897</speed>
  <fix>3d</fix>
</trkpt>
<trkpt lat="40.0713749" lon="-105.229789">
  <ele>1583.0</ele>
  <time>2026-08-28T17:48:26Z</time>
  <course>0.0</course>
  <speed>0.0</speed>
  <fix>3d</fix>
</trkpt>
<trkpt lat="40.0713751" lon="-105.2297889">
  <ele>1583.05</ele>
  <time>2026-08-28T17:48:26Z</time>
  <course>247.08</course>
  <speed>0.022360679774997897</speed>
  <fix>3d</fix>
</trkpt>
<trkpt lat="40.0713749" lon="-105.229789">
  <ele>1583.0</ele>
  <time>2026-08-28T17:48:26Z</time>
  <course>0.0</course>
  <speed>0.0</speed>
  <fix>3d</fix>
</trkpt>
<trkpt lat="40.071375" lon="-105.2297889">
  <ele>1583.04</ele>
  <time>2026-08-28T17:48:26Z</time>
  <course>247.08</course>
  <speed>0.022360679774997897</speed>
  <fix>3d</fix>
</trkpt>
<trkpt lat="40.0713749" lon="-105.229789">
  <ele>1583.0</ele>
  <time>2026-08-28T17:48:26Z</time>
  <course>0.0</course>
  <speed>0.0</speed>
  <fix>3d</fix>
</trkpt>
<trkpt lat="40.0713751" lon="-105.2297889">
  <ele>1583.04</ele>
  <time>2026-08-28T17:48:26Z</time>
  <course>247.08</course>
  <speed>0.022360679774997897</speed>
  <fix>3d</fix>
</trkpt>
<trkpt lat="40.0713749" lon="-105.229789">
  <ele>1583.0</ele>
  <time>2026-08-28T17:48:26Z</time>
  <course>0.0</course>
  <speed>0.0</speed>
  <fix>3d</fix>
</trkpt>
<trkpt lat="40.071375" lon="-105.2297889">
  <ele>1583.03</ele>
  <time>2026-08-28T17:48:26Z</time>
  <course>247.08</course>
  <speed>0.022360679774997897</speed>
  <fix>3d</fix>
</trkpt>
<trkpt lat="40.0713749" lon="-105.229789">
  <ele>1583.0</ele>
  <time>2026-08-28T17:48:26Z</time>
  <course>0.0</course>
  <speed>0.0</speed>
  <fix>3d</fix>
</trkpt>
<trkpt lat="40.0713751" lon="-105.2297889">
  <ele>1583.03</ele>
  <time>2026-08-28T17:48:26Z</time>
  <course>247.08</course>
  <speed>0.022360679774997897</speed>
  <fix>3d</fix>
</trkpt>
<trkpt lat="40.0713749" lon="-105.229789">
  <ele>1583.0</ele>
  <time>2026-08-28T17:48:26Z</time>
  <course>0.0</course>
  <speed>0.0</speed>
  <fix>3d</fix>
</trkpt>
<trkpt lat="40.0713751" lon="-105.2297889">
  <ele>1583.02</ele>
  <time>2026-08-28T17:48:26Z</time>
  <course>247.08</course>
  <speed>0.022360679774997897</speed>
  <fix>3d</fix>
</trkpt>
<trkpt lat="40.0713749" lon="-105.229789">
  <ele>1583.0</ele>
  <time>2026-08-28T17:48:26Z</time>
  <course>0.0</course>
  <speed>0.0</speed>
  <fix>3d</fix>
</trkpt>
<trkpt lat="40.0713751" lon="-105.2297889">
  <ele>1583.02</ele>
  <time>2026-08-28T17:48:26Z</time>
  <course>247.08</course>
  <speed>0.022360679774997897</speed>
  <fix>3d</fix>
</trkpt>
<trkpt lat="40.0713749" lon="-105.229789">
  <ele>1583.0</ele>
  <time>2026-08-28T17:48:26Z</time>
  <course>0.0</course>
  <speed>0.0</speed>
  <fix>3d</fix>
</trkpt>
<trkpt lat="40.0713751" lon="-105.2297889">
  <ele>1583.02</ele>
  <time>2026-08-28T17:48:26Z</time>
  <course>247.08</course>
  <speed>0.022360679774997897</speed>
  <fix>3d</fix>
</trkpt>
<trkpt lat="40.0713749" lon="-105.229789">
  <ele>1583.0</ele>
  <time>2026-08-28T17:48:26Z</time>
  <course>0.0</course>
  <speed>0.0</speed>
  <fix>3d</fix>
</trkpt>
<trkpt lat="40.0713751" lon="-105.2297889">
  <ele>1583.01</ele>
  <time>2026-08-28T17:48:26Z</time>
  <course>247.08</course>
  <speed>0.022360679774997897</speed>
  <fix>3d</fix>
</trkpt>
<trkpt lat="40.0713749" lon="-105.229789">
  <ele>1583.0</ele>
  <time>2026-08-28T17:48:26Z</time>
  <course>0.0</course>
  <speed>0.0</speed>
  <fix>3d</fix>
</trkpt>
<trkpt lat="40.0713751" lon="-105.2297889">
  <ele>1583.01</ele>
  <time>2026-08-28T17:48:26Z</time>
  <course>247.08</course>
  <speed>0.022360679774997897</speed>
  <fix>3d</fix>
</trkpt>
<trkpt lat="40.0713749" lon="-105.229789">
  <ele>1583.0</ele>
  <time>2026-08-28T17:48:26Z</time>
  <course>0.0</course>
  <speed>0.0</speed>
  <fix>3d</fix>
</trkpt>
<trkpt lat="40.0713751" lon="-105.2297889">
  <ele>1583.0</ele>
  <time>2026-08-28T17:48:26Z</time>
  <course>247.08</course>
  <speed>0.022360679774997897</speed>
  <fix>3d</fix>
</trkpt>
<trkpt lat="40.0713749" lon="-105.229789">
  <ele>1583.0</ele>
  <time>2026-08-28T17:48:26Z</time>
  <course>0.0</course>
  <speed>0.0</speed>
  <fix>3d</fix>
</trkpt>
<trkpt lat="40.0713751" lon="-105.2297889">
  <ele>1583.0</ele>
  <time>2026-08-28T17:48:26Z</time>
  <course>247.08</course>
  <speed>0.022360679774997897</speed>
  <fix>3d</fix>
</trkpt>
<trkpt lat="40.0713749" lon="-105.229789">
  <ele>1583.0</ele>
  <time>2026-08-28T17:48:26Z</time>
  <course>0.0</course>
  <speed>0.0</speed>
  <fix>3d</fix>
</trkpt>
<trkpt lat="40.0713751" lon="-105.2297889">
  <ele>1582.99</ele>
  <time>2026-08-28T17:48:26Z</time>
  <course>247.08</course>
  <speed>0.022360679774997897</speed>
  <fix>3d</fix>
</trkpt>
<trkpt lat="40.0713749" lon="-105.229789">
  <ele>1583.0</ele>
  <time>2026-08-28T17:48:26Z</time>
  <course>0.0</course>
  <speed>0.0</speed>
  <fix>3d</fix>
</trkpt>
<trkpt lat="40.0713751" lon="-105.2297889">
  <ele>1582.99</ele>
  <time>2026-08-28T17:48:26Z</time>
  <course>247.08</course>
  <speed>0.022360679774997897</speed>
  <fix>3d</fix>
</trkpt>
<trkpt lat="40.0713749" lon="-105.229789">
  <ele>1583.0</ele>
  <time>2026-08-28T17:48:26Z</time>
  <course>0.0</course>
  <speed>0.0</speed>
  <fix>3d</fix>
</trkpt>
<trkpt lat="40.0713751" lon="-105.2297889">
  <ele>1582.98</ele>
  <time>2026-08-28T17:48:26Z</time>
  <course>247.08</course>
  <speed>0.022360679774997897</speed>
  <fix>3d</fix>
</trkpt>
<trkpt lat="40.0713749" lon="-105.229789">
  <ele>1583.0</ele>
  <time>2026-08-28T17:48:26Z</time>
  <course>0.0</course>
  <speed>0.0</speed>
  <fix>3d</fix>
</trkpt>
<trkpt lat="40.071375" lon="-105.2297889">
  <ele>1582.98</ele>
  <time>2026-08-28T17:48:26Z</time>
  <course>247.08</course>
  <speed>0.022360679774997897</speed>
  <fix>3d</fix>
</trkpt>
<trkpt lat="40.0713749" lon="-105.229789">
  <ele>1583.0</ele>
  <time>2026-08-28T17:48:26Z</time>
  <course>0.0</course>
  <speed>0.0</speed>
  <fix>3d</fix>
</trkpt>
<trkpt lat="40.0713751" lon="-105.2297889">
  <ele>1582.98</ele>
  <time>2026-08-28T17:48:26Z</time>
  <course>247.08</course>
  <speed>0.022360679774997897</speed>
  <fix>3d</fix>
</trkpt>
<trkpt lat="40.0713749" lon="-105.229789">
  <ele>1583.0</ele>
  <time>2026-08-28T17:48:26Z</time>
  <course>0.0</course>
  <speed>0.0</speed>
  <fix>3d</fix>
</trkpt>
<trkpt lat="40.071375" lon="-105.2297889">
  <ele>1582.98</ele>
  <time>2026-08-28T17:48:26Z</time>
  <course>247.08</course>
  <speed>0.022360679774997897</speed>
  <fix>3d</fix>
</trkpt>
<trkpt lat="40.0713749" lon="-105.229789">
  <ele>1583.0</ele>
  <time>2026-08-28T17:48:26Z</time>
  <course>0.0</course>
  <speed>0.0</speed>
  <fix>3d</fix>
</trkpt>
<trkpt lat="40.0713751" lon="-105.2297889">
  <ele>1582.99</ele>
  <time>2026-08-28T17:48:26Z</time>
  <course>247.08</course>
  <speed>0.022360679774997897</speed>
  <fix>3d</fix>
</trkpt>
<trkpt lat="40.0713749" lon="-105.229789">
  <ele>1583.0</ele>
  <time>2026-08-28T17:48:26Z</time>
  <course>0.0</course>
  <speed>0.0</speed>
  <fix>3d</fix>
</trkpt>
<trkpt lat="40.071375" lon="-105.2297889">
  <ele>1582.99</ele>
  <time>2026-08-28T17:48:26Z</time>
  <course>247.08</course>
  <speed>0.02</speed>
  <fix>3d</fix>
</trkpt>
<trkpt lat="40.0713749" lon="-105.229789">
  <ele>1583.0</ele>
  <time>2026-08-28T17:48:26Z</time>
  <course>0.0</course>
  <speed>0.0</speed>
  <fix>3d</fix>
</trkpt>
<trkpt lat="40.0713751" lon="-105.2297889">
  <ele>1582.99</ele>
  <time>2026-08-28T17:48:26Z</time>
  <course>247.08</course>
  <speed>0.022360679774997897</speed>
  <fix>3d</fix>
</trkpt>
<trkpt lat="40.0713749" lon="-105.229789">
  <ele>1583.0</ele>
  <time>2026-08-28T17:48:26Z</time>
  <course>0.0</course>
  <speed>0.0</speed>
  <fix>3d</fix>
</trkpt>
<trkpt lat="40.071375" lon="-105.2297889">
  <ele>1583.0</ele>
  <time>2026-08-28T17:48:26Z</time>
  <course>247.08</course>
  <speed>0.022360679774997897</speed>
  <fix>3d</fix>
</trkpt>
<trkpt lat="40.0713749" lon="-105.229789">
  <ele>1583.0</ele>
  <time>2026-08-28T17:48:26Z</time>
  <course>0.0</course>
  <speed>0.0</speed>
  <fix>3d</fix>
</trkpt>
<trkpt lat="40.0713751" lon="-105.2297889">
  <ele>1583.0</ele>
  <time>2026-08-28T17:48:26Z</time>
  <course>247.08</course>
  <speed>0.022360679774997897</speed>
  <fix>3d</fix>
</trkpt>
<trkpt lat="40.0713749" lon="-105.229789">
  <ele>1583.0</ele>
  <time>2026-08-28T17:48:26Z</time>
  <course>0.0</course>
  <speed>0.0</speed>
  <fix>3d</fix>
</trkpt>
<trkpt lat="40.071375" lon="-105.2297889">
  <ele>1583.01</ele>
  <time>2026-08-28T17:48:26Z</time>
  <course>247.08</course>
  <speed>0.022360679774997897</speed>
  <fix>3d</fix>
</trkpt>
<trkpt lat="40.0713749" lon="-105.229789">
  <ele>1583.0</ele>
  <time>2026-08-28T17:48:26Z</time>
  <course>0.0</course>
  <speed>0.0</speed>
  <fix>3d</fix>
</trkpt>
<trkpt lat="40.0713751" lon="-105.2297889">
  <ele>1583.01</ele>
  <time>2026-08-28T17:48:26Z</time>
  <course>247.08</course>
  <speed>0.022360679774997897</speed>
  <fix>3d</fix>
</trkpt>
<trkpt lat="40.0713749" lon="-105.229789">
  <ele>1583.0</ele>
  <time>2026-08-28T17:48:26Z</time>
  <course>0.0</course>
  <speed>0.0</speed>
  <fix>3d</fix>
</trkpt>
<trkpt lat="40.0713751" lon="-105.2297889">
  <ele>1583.01</ele>
  <time>2026-08-28T17:48:26Z</time>
  <course>247.08</course>
  <speed>0.022360679774997897</speed>
  <fix>3d</fix>
</trkpt>
<trkpt lat="40.0713749" lon="-105.229789">
  <ele>1583.0</ele>
  <time>2026-08-28T17:48:26Z</time>
  <course>0.0</course>
  <speed>0.0</speed>
  <fix>3d</fix>
</trkpt>
<trkpt lat="40.0713751" lon="-105.2297889">
  <ele>1583.01</ele>
  <time>2026-08-28T17:48:26Z</time>
  <course>247.08</course>
  <speed>0.022360679774997897</speed>
  <fix>3d</fix>
</trkpt>
<trkpt lat="40.0713749" lon="-105.229789">
  <ele>1583.0</ele>
  <time>2026-08-28T17:48:26Z</time>
  <course>0.0</course>
  <speed>0.0</speed>
  <fix>3d</fix>
</trkpt>
<trkpt lat="40.0713751" lon="-105.2297889">
  <ele>1583.01</ele>
  <time>2026-08-28T17:48:26Z</time>
  <course>247.09</course>
  <speed>0.022360679774997897</speed>
  <fix>3d</fix>
</trkpt>
<trkpt lat="40.0713749" lon="-105.229789">
  <ele>1583.0</ele>
  <time>2026-08-28T17:48:26Z</time>
  <course>0.0</course>
  <speed>0.0</speed>
  <fix>3d</fix>
</trkpt>
<trkpt lat="40.0713751" lon="-105.2297889">
  <ele>1583.0</ele>
  <time>2026-08-28T17:48:26Z</time>
  <course>247.08</course>
  <speed>0.022360679774997897</speed>
  <fix>3d</fix>
</trkpt>
<trkpt lat="40.0713749" lon="-105.229789">
  <ele>1583.0</ele>
  <time>2026-08-28T17:48:26Z</time>
  <course>0.0</course>
  <speed>0.0</speed>
  <fix>3d</fix>
</trkpt>
<trkpt lat="40.0713751" lon="-105.2297889">
  <ele>1583.0</ele>
  <time>2026-08-28T17:48:26Z</time>
  <course>247.08</course>
  <speed>0.022360679774997897</speed>
  <fix>3d</fix>
</trkpt>
<trkpt lat="40.0713749" lon="-105.229789">
  <ele>1583.0</ele>
  <time>2026-08-28T17:48:26Z</time>
  <course>0.0</course>
  <speed>0.0</speed>
  <fix>3d</fix>
</trkpt>
<trkpt lat="40.0713751" lon="-105.2297889">
  <ele>1582.99</ele>
  <time>2026-08-28T17:48:26Z</time>
  <course>247.09</course>
  <speed>0.022360679774997897</speed>
  <fix>3d</fix>
</trkpt>
<trkpt lat="40.0713749" lon="-105.229789">
  <ele>1583.0</ele>
  <time>2026-08-28T17:48:26Z</time>
  <course>0.0</course>
  <speed>0.0</speed>
  <fix>3d</fix>
</trkpt>
<trkpt lat="40.0713751" lon="-105.2297889">
  <ele>1582.99</ele>
  <time>2026-08-28T17:48:26Z</time>
  <course>247.09</course>
  <speed>0.022360679774997897</speed>
  <fix>3d</fix>
</trkpt>
<trkpt lat="40.0713749" lon="-105.229789">
  <ele>1583.0</ele>
  <time>2026-08-28T17:48:26Z</time>
  <course>0.0</course>
  <speed>0.0</speed>
  <fix>3d</fix>
</trkpt>
<trkpt lat="40.0713751" lon="-105.2297889">
  <ele>1582.98</ele>
  <time>2026-08-28T17:48:26Z</time>
  <course>247.08</course>
  <speed>0.022360679774997897</speed>
  <fix>3d</fix>
</trkpt>
<trkpt lat="40.0713749" lon="-105.229789">
  <ele>1583.0</ele>
  <time>2026-08-28T17:48:26Z</time>
  <course>0.0</course>
  <speed>0.0</speed>
  <fix>3d</fix>
</trkpt>
<trkpt lat="40.0713751" lon="-105.2297889">
  <ele>1582.98</ele>
  <time>2026-08-28T17:48:26Z</time>
  <course>247.09</course>
  <speed>0.022360679774997897</speed>
  <fix>3d</fix>
</trkpt>
<trkpt lat="40.0713749" lon="-105.229789">
  <ele>1583.0</ele>
  <time>2026-08-28T17:48:26Z</time>
  <course>0.0</course>
  <speed>0.0</speed>
  <fix>3d</fix>
</trkpt>
<trkpt lat="40.0713751" lon="-105.2297889">
  <ele>1582.98</ele>
  <time>2026-08-28T17:48:26Z</time>
  <course>247.09</course>
  <speed>0.022360679774997897</speed>
  <fix>3d</fix>
</trkpt>
<trkpt lat="40.0713749" lon="-105.229789">
  <ele>1583.0</ele>
  <time>2026-08-28T17:48:26Z</time>
  <course>0.0</course>
  <speed>0.0</speed>
  <fix>3d</fix>
</trkpt>
<trkpt lat="40.071375" lon="-105.2297889">
  <ele>1582.97</ele>
  <time>2026-08-28T17:48:26Z</time>
  <course>247.09</course>
  <speed>0.022360679774997897</speed>
  <fix>3d</fix>
</trkpt>
<trkpt lat="40.0713749" lon="-105.229789">
  <ele>1583.0</ele>
  <time>2026-08-28T17:48:26Z</time>
  <course>0.0</course>
  <speed>0.0</speed>
  <fix>3d</fix>
</trkpt>
<trkpt lat="40.0713751" lon="-105.2297889">
  <ele>1582.97</ele>
  <time>2026-08-28T17:48:26Z</time>
  <course>247.09</course>
  <speed>0.022360679774997897</speed>
  <fix>3d</fix>
</trkpt>
<trkpt lat="40.0713749" lon="-105.229789">
  <ele>1583.0</ele>
  <time>2026-08-28T17:48:26Z</time>
  <course>0.0</course>
  <speed>0.0</speed>
  <fix>3d</fix>
</trkpt>
<trkpt lat="40.071375" lon="-105.2297889">
  <ele>1582.97</ele>
  <time>2026-08-28T17:48:26Z</time>
  <course>247.09</course>
  <speed>0.022360679774997897</speed>
  <fix>3d</fix>
</trkpt>
<trkpt lat="40.0713749" lon="-105.229789">
  <ele>1583.0</ele>
  <time>2026-08-28T17:48:26Z</time>
  <course>0.0</course>
  <speed>0.0</speed>
  <fix>3d</fix>
</trkpt>
<trkpt lat="40.0713751" lon="-105.2297889">
  <ele>1582.96</ele>
  <time>2026-08-28T17:48:26Z</time>
  <course>247.09</course>
  <speed>0.022360679774997897</speed>
  <fix>3d</fix>
</trkpt>
<trkpt lat="40.0713749" lon="-105.229789">
  <ele>1583.0</ele>
  <time>2026-08-28T17:48:26Z</time>
  <course>0.0</course>
  <speed>0.0</speed>
  <fix>3d</fix>
</trkpt>
<trkpt lat="40.071375" lon="-105.2297889">
  <ele>1582.96</ele>
  <time>2026-08-28T17:48:26Z</time>
  <course>247.09</course>
  <speed>0.022360679774997897</speed>
  <fix>3d</fix>
</trkpt>
<trkpt lat="40.0713749" lon="-105.229789">
  <ele>1583.0</ele>
  <time>2026-08-28T17:48:26Z</time>
  <course>0.0</course>
  <speed>0.0</speed>
  <fix>3d</fix>
</trkpt>
<trkpt lat="40.0713751" lon="-105.2297889">
  <ele>1582.95</ele>
  <time>2026-08-28T17:48:26Z</time>
  <course>247.09</course>
  <speed>0.022360679774997897</speed>
  <fix>3d</fix>
</trkpt>
<trkpt lat="40.0713749" lon="-105.229789">
  <ele>1583.0</ele>
  <time>2026-08-28T17:48:26Z</time>
  <course>0.0</course>
  <speed>0.0</speed>
  <fix>3d</fix>
</trkpt>
<trkpt lat="40.071375" lon="-105.2297889">
  <ele>1582.95</ele>
  <time>2026-08-28T17:48:26Z</time>
  <course>247.09</course>
  <speed>0.022360679774997897</speed>
  <fix>3d</fix>
</trkpt>
<trkpt lat="40.0713749" lon="-105.229789">
  <ele>1583.0</ele>
  <time>2026-08-28T17:48:26Z</time>
  <course>0.0</course>
  <speed>0.0</speed>
  <fix>3d</fix>
</trkpt>
<trkpt lat="40.0713751" lon="-105.2297889">
  <ele>1582.94</ele>
  <time>2026-08-28T17:48:26Z</time>
  <course>247.09</course>
  <speed>0.022360679774997897</speed>
  <fix>3d</fix>
</trkpt>
<trkpt lat="40.0713749" lon="-105.229789">
  <ele>1583.0</ele>
  <time>2026-08-28T17:48:26Z</time>
  <course>0.0</course>
  <speed>0.0</speed>
  <fix>3d</fix>
</trkpt>
<trkpt lat="40.071375" lon="-105.2297889">
  <ele>1582.94</ele>
  <time>2026-08-28T17:48:26Z</time>
  <course>247.09</course>
  <speed>0.022360679774997897</speed>
  <fix>3d</fix>
</trkpt>
<trkpt lat="40.0713749" lon="-105.229789">
  <ele>1583.0</ele>
  <time>2026-08-28T17:48:26Z</time>
  <course>0.0</course>
  <speed>0.0</speed>
  <fix>3d</fix>
</trkpt>
<trkpt lat="40.0713751" lon="-105.2297889">
  <ele>1582.94</ele>
  <time>2026-08-28T17:48:26Z</time>
  <course>247.09</course>
  <speed>0.022360679774997897</speed>
  <fix>3d</fix>
</trkpt>
<trkpt lat="40.0713749" lon="-105.229789">
  <ele>1583.0</ele>
  <time>2026-08-28T17:48:26Z</time>
  <course>0.0</course>
  <speed>0.0</speed>
  <fix>3d</fix>
</trkpt>
<trkpt lat="40.071375" lon="-105.2297889">
  <ele>1582.94</ele>
  <time>2026-08-28T17:48:26Z</time>
  <course>247.09</course>
  <speed>0.022360679774997897</speed>
  <fix>3d</fix>
</trkpt>
<trkpt lat="40.0713749" lon="-105.229789">
  <ele>1583.0</ele>
  <time>2026-08-28T17:48:26Z</time>
  <course>0.0</course>
  <speed>0.0</speed>
  <fix>3d</fix>
</trkpt>
<trkpt lat="40.0713751" lon="-105.2297889">
  <ele>1582.93</ele>
  <time>2026-08-28T17:48:26Z</time>
  <course>247.09</course>
  <speed>0.022360679774997897</speed>
  <fix>3d</fix>
</trkpt>
<trkpt lat="40.0713749" lon="-105.229789">
  <ele>1583.0</ele>
  <time>2026-08-28T17:48:26Z</time>
  <course>0.0</course>
  <speed>0.0</speed>
  <fix>3d</fix>
</trkpt>
<trkpt lat="40.0713751" lon="-105.2297889">
  <ele>1582.94</ele>
  <time>2026-08-28T17:48:26Z</time>
  <course>247.09</course>
  <speed>0.022360679774997897</speed>
  <fix>3d</fix>
</trkpt>
<trkpt lat="40.0713749" lon="-105.229789">
  <ele>1583.0</ele>
  <time>2026-08-28T17:48:26Z</time>
  <course>0.0</course>
  <speed>0.0</speed>
  <fix>3d</fix>
</trkpt>
<trkpt lat="40.0713751" lon="-105.2297889">
  <ele>1582.94</ele>
  <time>2026-08-28T17:48:26Z</time>
  <course>247.09</course>
  <speed>0.022360679774997897</speed>
  <fix>3d</fix>
</trkpt>
<trkpt lat="40.0713749" lon="-105.229789">
  <ele>1583.0</ele>
  <time>2026-08-28T17:48:26Z</time>
  <course>0.0</course>
  <speed>0.0</speed>
  <fix>3d</fix>
</trkpt>
<trkpt lat="40.0713751" lon="-105.2297889">
  <ele>1582.94</ele>
  <time>2026-08-28T17:48:26Z</time>
  <course>247.09</course>
  <speed>0.022360679774997897</speed>
  <fix>3d</fix>
</trkpt>
<trkpt lat="40.0713749" lon="-105.229789">
  <ele>1583.0</ele>
  <time>2026-08-28T17:48:26Z</time>
  <course>0.0</course>
  <speed>0.0</speed>
  <fix>3d</fix>
</trkpt>
<trkpt lat="40.0713751" lon="-105.2297889">
  <ele>1582.95</ele>
  <time>2026-08-28T17:48:26Z</time>
  <course>247.09</course>
  <speed>0.022360679774997897</speed>
  <fix>3d</fix>
</trkpt>
<trkpt lat="40.0713749" lon="-105.229789">
  <ele>1583.0</ele>
  <time>2026-08-28T17:48:26Z</time>
  <course>0.0</course>
  <speed>0.0</speed>
  <fix>3d</fix>
</trkpt>
<trkpt lat="40.0713751" lon="-105.2297889">
  <ele>1582.95</ele>
  <time>2026-08-28T17:48:26Z</time>
  <course>247.09</course>
  <speed>0.022360679774997897</speed>
  <fix>3d</fix>
</trkpt>
<trkpt lat="40.0713749" lon="-105.229789">
  <ele>1583.0</ele>
  <time>2026-08-28T17:48:26Z</time>
  <course>0.0</course>
  <speed>0.0</speed>
  <fix>3d</fix>
</trkpt>
<trkpt lat="40.0713751" lon="-105.2297889">
  <ele>1582.96</ele>
  <time>2026-08-28T17:48:26Z</time>
  <course>247.09</course>
  <speed>0.022360679774997897</speed>
  <fix>3d</fix>
</trkpt>
<trkpt lat="40.0713749" lon="-105.229789">
  <ele>1583.0</ele>
  <time>2026-08-28T17:48:26Z</time>
  <course>0.0</course>
  <speed>0.0</speed>
  <fix>3d</fix>
</trkpt>
<trkpt lat="40.0713751" lon="-105.2297889">
  <ele>1582.96</ele>
  <time>2026-08-28T17:48:26Z</time>
  <course>247.09</course>
  <speed>0.022360679774997897</speed>
  <fix>3d</fix>
</trkpt>
<trkpt lat="40.0713749" lon="-105.229789">
  <ele>1583.0</ele>
  <time>2026-08-28T17:48:26Z</time>
  <course>0.0</course>
  <speed>0.0</speed>
  <fix>3d</fix>
</trkpt>
<trkpt lat="40.0713751" lon="-105.2297889">
  <ele>1582.96</ele>
  <time>2026-08-28T17:48:26Z</time>
  <course>247.09</course>
  <speed>0.022360679774997897</speed>
  <fix>3d</fix>
</trkpt>
<trkpt lat="40.0713749" lon="-105.229789">
  <ele>1583.0</ele>
  <time>2026-08-28T17:48:26Z</time>
  <course>0.0</course>
  <speed>0.0</speed>
  <fix>3d</fix>
</trkpt>
<trkpt lat="40.0713751" lon="-105.2297889">
  <ele>1582.96</ele>
  <time>2026-08-28T17:48:26Z</time>
  <course>247.09</course>
  <speed>0.022360679774997897</speed>
  <fix>3d</fix>
</trkpt>
<trkpt lat="40.0713749" lon="-105.229789">
  <ele>1583.0</ele>
  <time>2026-08-28T17:48:26Z</time>
  <course>0.0</course>
  <speed>0.0</speed>
  <fix>3d</fix>
</trkpt>
<trkpt lat="40.0713751" lon="-105.2297889">
  <ele>1582.96</ele>
  <time>2026-08-28T17:48:26Z</time>
  <course>247.09</course>
  <speed>0.022360679774997897</speed>
  <fix>3d</fix>
</trkpt>
<trkpt lat="40.0713749" lon="-105.229789">
  <ele>1583.0</ele>
  <time>2026-08-28T17:48:26Z</time>
  <course>0.0</course>
  <speed>0.0</speed>
  <fix>3d</fix>
</trkpt>
<trkpt lat="40.071375" lon="-105.2297889">
  <ele>1582.96</ele>
  <time>2026-08-28T17:48:26Z</time>
  <course>247.09</course>
  <speed>0.022360679774997897</speed>
  <fix>3d</fix>
</trkpt>
<trkpt lat="40.0713749" lon="-105.229789">
  <ele>1583.0</ele>
  <time>2026-08-28T17:48:26Z</time>
  <course>0.0</course>
  <speed>0.0</speed>
  <fix>3d</fix>
</trkpt>
<trkpt lat="40.0713751" lon="-105.2297889">
  <ele>1582.96</ele>
  <time>2026-08-28T17:48:26Z</time>
  <course>247.09</course>
  <speed>0.022360679774997897</speed>
  <fix>3d</fix>
</trkpt>
<trkpt lat="40.0713749" lon="-105.229789">
  <ele>1583.0</ele>
  <time>2026-08-28T17:48:26Z</time>
  <course>0.0</course>
  <speed>0.0</speed>
  <fix>3d</fix>
</trkpt>
<trkpt lat="40.071375" lon="-105.2297889">
  <ele>1582.96</ele>
  <time>2026-08-28T17:48:26Z</time>
  <course>247.09</course>
  <speed>0.022360679774997897</speed>
  <fix>3d</fix>
</trkpt>
<trkpt lat="40.0713749" lon="-105.229789">
  <ele>1583.0</ele>
  <time>2026-08-28T17:48:26Z</time>
  <course>0.0</course>
  <speed>0.0</speed>
  <fix>3d</fix>
</trkpt>
<trkpt lat="40.0713751" lon="-105.2297889">
  <ele>1582.95</ele>
  <time>2026-08-28T17:48:26Z</time>
  <course>247.09</course>
  <speed>0.022360679774997897</speed>
  <fix>3d</fix>
</trkpt>
<trkpt lat="40.0713749" lon="-105.229789">
  <ele>1583.0</ele>
  <time>2026-08-28T17:48:26Z</time>
  <course>0.0</course>
  <speed>0.0</speed>
  <fix>3d</fix>
</trkpt>
<trkpt lat="40.071375" lon="-105.2297889">
  <ele>1582.95</ele>
  <time>2026-08-28T17:48:26Z</time>
  <course>247.09</course>
  <speed>0.022360679774997897</speed>
  <fix>3d</fix>
</trkpt>
<trkpt lat="40.0713749" lon="-105.229789">
  <ele>1583.0</ele>
  <time>2026-08-28T17:48:26Z</time>
  <course>0.0</course>
  <speed>0.0</speed>
  <fix>3d</fix>
</trkpt>
<trkpt lat="40.0713751" lon="-105.2297889">
  <ele>1582.94</ele>
  <time>2026-08-28T17:48:26Z</time>
  <course>247.09</course>
  <speed>0.022360679774997897</speed>
  <fix>3d</fix>
</trkpt>
<trkpt lat="40.0713749" lon="-105.229789">
  <ele>1583.0</ele>
  <time>2026-08-28T17:48:26Z</time>
  <course>0.0</course>
  <speed>0.0</speed>
  <fix>3d</fix>
</trkpt>
<trkpt lat="40.0713751" lon="-105.2297889">
  <ele>1582.94</ele>
  <time>2026-08-28T17:48:26Z</time>
  <course>247.09</course>
  <speed>0.022360679774997897</speed>
  <fix>3d</fix>
</trkpt>
<trkpt lat="40.0713749" lon="-105.229789">
  <ele>1583.0</ele>
  <time>2026-08-28T17:48:26Z</time>
  <course>0.0</course>
  <speed>0.0</speed>
  <fix>3d</fix>
</trkpt>
<trkpt lat="40.0713751" lon="-105.2297889">
  <ele>1582.94</ele>
  <time>2026-08-28T17:48:26Z</time>
  <course>247.09</course>
  <speed>0.022360679774997897</speed>
  <fix>3d</fix>
</trkpt>
<trkpt lat="40.0713749" lon="-105.229789">
  <ele>1583.0</ele>
  <time>2026-08-28T17:48:26Z</time>
  <course>0.0</course>
  <speed>0.0</speed>
  <fix>3d</fix>
</trkpt>
<trkpt lat="40.0713751" lon="-105.2297889">
  <ele>1582.94</ele>
  <time>2026-08-28T17:48:26Z</time>
  <course>247.09</course>
  <speed>0.022360679774997897</speed>
  <fix>3d</fix>
</trkpt>
<trkpt lat="40.0713749" lon="-105.229789">
  <ele>1583.0</ele>
  <time>2026-08-28T17:48:26Z</time>
  <course>0.0</course>
  <speed>0.0</speed>
  <fix>3d</fix>
</trkpt>
<trkpt lat="40.0713751" lon="-105.2297889">
  <ele>1582.95</ele>
  <time>2026-08-28T17:48:26Z</time>
  <course>247.09</course>
  <speed>0.022360679774997897</speed>
  <fix>3d</fix>
</trkpt>
<trkpt lat="40.0713749" lon="-105.229789">
  <ele>1583.0</ele>
  <time>2026-08-28T17:48:26Z</time>
  <course>0.0</course>
  <speed>0.0</speed>
  <fix>3d</fix>
</trkpt>
<trkpt lat="40.0713751" lon="-105.2297889">
  <ele>1582.95</ele>
  <time>2026-08-28T17:48:26Z</time>
  <course>247.09</course>
  <speed>0.022360679774997897</speed>
  <fix>3d</fix>
</trkpt>
<trkpt lat="40.0713749" lon="-105.229789">
  <ele>1583.0</ele>
  <time>2026-08-28T17:48:26Z</time>
  <course>0.0</course>
  <speed>0.0</speed>
  <fix>3d</fix>
</trkpt>
<trkpt lat="40.0713751" lon="-105.2297889">
  <ele>1582.96</ele>
  <time>2026-08-28T17:48:26Z</time>
  <course>247.09</course>
  <speed>0.022360679774997897</speed>
  <fix>3d</fix>
</trkpt>
<trkpt lat="40.0713749" lon="-105.229789">
  <ele>1583.0</ele>
  <time>2026-08-28T17:48:26Z</time>
  <course>0.0</course>
  <speed>0.0</speed>
  <fix>3d</fix>
</trkpt>
<trkpt lat="40.0713751" lon="-105.2297889">
  <ele>1582.97</ele>
  <time>2026-08-28T17:48:26Z</time>
  <course>247.09</course>
  <speed>0.022360679774997897</speed>
  <fix>3d</fix>
</trkpt>
<trkpt lat="40.0713749" lon="-105.229789">
  <ele>1583.0</ele>
  <time>2026-08-28T17:48:26Z</time>
  <course>0.0</course>
  <speed>0.0</speed>
  <fix>3d</fix>
</trkpt>
<trkpt lat="40.0713751" lon="-105.2297889">
  <ele>1582.97</ele>
  <time>2026-08-28T17:48:26Z</time>
  <course>247.09</course>
  <speed>0.022360679774997897</speed>
  <fix>3d</fix>
</trkpt>
<trkpt lat="40.0713749" lon="-105.229789">
  <ele>1583.0</ele>
  <time>2026-08-28T17:48:26Z</time>
  <course>0.0</course>
  <speed>0.0</speed>
  <fix>3d</fix>
</trkpt>
<trkpt lat="40.0713751" lon="-105.2297889">
  <ele>1582.98</ele>
  <time>2026-08-28T17:48:26Z</time>
  <course>247.09</course>
  <speed>0.022360679774997897</speed>
  <fix>3d</fix>
</trkpt>
<trkpt lat="40.0713749" lon="-105.229789">
  <ele>1583.0</ele>
  <time>2026-08-28T17:48:26Z</time>
  <course>0.0</course>
  <speed>0.0</speed>
  <fix>3d</fix>
</trkpt>
<trkpt lat="40.0713751" lon="-105.2297889">
  <ele>1582.99</ele>
  <time>2026-08-28T17:48:26Z</time>
  <course>247.09</course>
  <speed>0.022360679774997897</speed>
  <fix>3d</fix>
</trkpt>
<trkpt lat="40.0713749" lon="-105.229789">
  <ele>1583.0</ele>
  <time>2026-08-28T17:48:26Z</time>
  <course>0.0</course>
  <speed>0.0</speed>
  <fix>3d</fix>
</trkpt>
<trkpt lat="40.0713751" lon="-105.2297889">
  <ele>1583.0</ele>
  <time>2026-08-28T17:48:26Z</time>
  <course>247.09</course>
  <speed>0.022360679774997897</speed>
  <fix>3d</fix>
</trkpt>
<trkpt lat="40.0713749" lon="-105.229789">
  <ele>1583.0</ele>
  <time>2026-08-28T17:48:26Z</time>
  <course>0.0</course>
  <speed>0.0</speed>
  <fix>3d</fix>
</trkpt>
<trkpt lat="40.0713751" lon="-105.2297889">
  <ele>1583.0</ele>
  <time>2026-08-28T17:48:26Z</time>
  <course>247.09</course>
  <speed>0.022360679774997897</speed>
  <fix>3d</fix>
</trkpt>
<trkpt lat="40.0713749" lon="-105.229789">
  <ele>1583.0</ele>
  <time>2026-08-28T17:48:26Z</time>
  <course>0.0</course>
  <speed>0.0</speed>
  <fix>3d</fix>
</trkpt>
<trkpt lat="40.0713751" lon="-105.2297889">
  <ele>1583.01</ele>
  <time>2026-08-28T17:48:26Z</time>
  <course>247.09</course>
  <speed>0.022360679774997897</speed>
  <fix>3d</fix>
</trkpt>
<trkpt lat="40.0713749" lon="-105.229789">
  <ele>1583.0</ele>
  <time>2026-08-28T17:48:26Z</time>
  <course>0.0</course>
  <speed>0.0</speed>
  <fix>3d</fix>
</trkpt>
<trkpt lat="40.0713751" lon="-105.2297889">
  <ele>1583.01</ele>
  <time>2026-08-28T17:48:26Z</time>
  <course>247.09</course>
  <speed>0.022360679774997897</speed>
  <fix>3d</fix>
</trkpt>
<trkpt lat="40.0713749" lon="-105.229789">
  <ele>1583.0</ele>
  <time>2026-08-28T17:48:26Z</time>
  <course>0.0</course>
  <speed>0.0</speed>
  <fix>3d</fix>
</trkpt>
<trkpt lat="40.0713751" lon="-105.2297889">
  <ele>1583.01</ele>
  <time>2026-08-28T17:48:26Z</time>
  <course>247.09</course>
  <speed>0.022360679774997897</speed>
  <fix>3d</fix>
</trkpt>
<trkpt lat="40.0713749" lon="-105.229789">
  <ele>1583.0</ele>
  <time>2026-08-28T17:48:26Z</time>
  <course>0.0</course>
  <speed>0.0</speed>
  <fix>3d</fix>
</trkpt>
<trkpt lat="40.0713751" lon="-105.2297889">
  <ele>1583.02</ele>
  <time>2026-08-28T17:48:26Z</time>
  <course>247.09</course>
  <speed>0.022360679774997897</speed>
  <fix>3d</fix>
</trkpt>
<trkpt lat="40.0713749" lon="-105.229789">
  <ele>1583.0</ele>
  <time>2026-08-28T17:48:26Z</time>
  <course>0.0</course>
  <speed>0.0</speed>
  <fix>3d</fix>
</trkpt>
<trkpt lat="40.0713751" lon="-105.2297889">
  <ele>1583.02</ele>
  <time>2026-08-28T17:48:26Z</time>
  <course>247.09</course>
  <speed>0.022360679774997897</speed>
  <fix>3d</fix>
</trkpt>
<trkpt lat="40.0713749" lon="-105.229789">
  <ele>1583.0</ele>
  <time>2026-08-28T17:48:26Z</time>
  <course>0.0</course>
  <speed>0.0</speed>
  <fix>3d</fix>
</trkpt>
<trkpt lat="40.0713751" lon="-105.2297889">
  <ele>1583.03</ele>
  <time>2026-08-28T17:48:26Z</time>
  <course>247.09</course>
  <speed>0.022360679774997897</speed>
  <fix>3d</fix>
</trkpt>
<trkpt lat="40.0713749" lon="-105.229789">
  <ele>1583.0</ele>
  <time>2026-08-28T17:48:26Z</time>
  <course>0.0</course>
  <speed>0.0</speed>
  <fix>3d</fix>
</trkpt>
<trkpt lat="40.0713751" lon="-105.2297889">
  <ele>1583.03</ele>
  <time>2026-08-28T17:48:26Z</time>
  <course>247.09</course>
  <speed>0.022360679774997897</speed>
  <fix>3d</fix>
</trkpt>
<trkpt lat="40.0713749" lon="-105.229789">
  <ele>1583.0</ele>
  <time>2026-08-28T17:48:26Z</time>
  <course>0.0</course>
  <speed>0.0</speed>
  <fix>3d</fix>
</trkpt>
<trkpt lat="40.0713751" lon="-105.2297889">
  <ele>1583.04</ele>
  <time>2026-08-28T17:48:26Z</time>
  <course>247.09</course>
  <speed>0.022360679774997897</speed>
  <fix>3d</fix>
</trkpt>
<trkpt lat="40.0713749" lon="-105.229789">
  <ele>1583.0</ele>
  <time>2026-08-28T17:48:26Z</time>
  <course>0.0</course>
  <speed>0.0</speed>
  <fix>3d</fix>
</trkpt>
<trkpt lat="40.0713751" lon="-105.2297889">
  <ele>1583.05</ele>
  <time>2026-08-28T17:48:26Z</time>
  <course>247.09</course>
  <speed>0.022360679774997897</speed>
  <fix>3d</fix>
</trkpt>
<trkpt lat="40.0713749" lon="-105.229789">
  <ele>1583.0</ele>
  <time>2026-08-28T17:48:26Z</time>
  <course>0.0</course>
  <speed>0.0</speed>
  <fix>3d</fix>
</trkpt>
<trkpt lat="40.0713751" lon="-105.2297889">
  <ele>1583.05</ele>
  <time>2026-08-28T17:48:26Z</time>
  <course>247.09</course>
  <speed>0.022360679774997897</speed>
  <fix>3d</fix>
</trkpt>
<trkpt lat="40.0713749" lon="-105.229789">
  <ele>1583.0</ele>
  <time>2026-08-28T17:48:26Z</time>
  <course>0.0</course>
  <speed>0.0</speed>
  <fix>3d</fix>
</trkpt>
<trkpt lat="40.0713751" lon="-105.2297889">
  <ele>1583.05</ele>
  <time>2026-08-28T17:48:26Z</time>
  <course>247.09</course>
  <speed>0.022360679774997897</speed>
  <fix>3d</fix>
</trkpt>
<trkpt lat="40.0713749" lon="-105.229789">
  <ele>1583.0</ele>
  <time>2026-08-28T17:48:26Z</time>
  <course>0.0</course>
  <speed>0.0</speed>
  <fix>3d</fix>
</trkpt>
<trkpt lat="40.0713751" lon="-105.2297889">
  <ele>1583.05</ele>
  <time>2026-08-28T17:48:26Z</time>
  <course>247.09</course>
  <speed>0.022360679774997897</speed>
  <fix>3d</fix>
</trkpt>
<trkpt lat="40.0713749" lon="-105.229789">
  <ele>1583.0</ele>
  <time>2026-08-28T17:48:26Z</time>
  <course>0.0</course>
  <speed>0.0</speed>
  <fix>3d</fix>
</trkpt>
<trkpt lat="40.0713751" lon="-105.2297889">
  <ele>1583.05</ele>
  <time>2026-08-28T17:48:26Z</time>
  <course>247.09</course>
  <speed>0.022360679774997897</speed>
  <fix>3d</fix>
</trkpt>
<trkpt lat="40.0713749" lon="-105.229789">
  <ele>1583.0</ele>
  <time>2026-08-28T17:48:26Z</time>
  <course>0.0</course>
  <speed>0.0</speed>
  <fix>3d</fix>
</trkpt>
<trkpt lat="40.0713751" lon="-105.2297889">
  <ele>1583.04</ele>
  <time>2026-08-28T17:48:26Z</time>
  <course>247.09</course>
  <speed>0.022360679774997897</speed>
  <fix>3d</fix>
</trkpt>
<trkpt lat="40.0713749" lon="-105.229789">
  <ele>1583.0</ele>
  <time>2026-08-28T17:48:26Z</time>
  <course>0.0</course>
  <speed>0.0</speed>
  <fix>3d</fix>
</trkpt>
<trkpt lat="40.0713751" lon="-105.2297889">
  <ele>1583.04</ele>
  <time>2026-08-28T17:48:26Z</time>
  <course>247.09</course>
  <speed>0.022360679774997897</speed>
  <fix>3d</fix>
</trkpt>
<trkpt lat="40.0713749" lon="-105.229789">
  <ele>1583.0</ele>
  <time>2026-08-28T17:48:26Z</time>
  <course>0.0</course>
  <speed>0.0</speed>
  <fix>3d</fix>
</trkpt>
<trkpt lat="40.0713751" lon="-105.2297889">
  <ele>1583.03</ele>
  <time>2026-08-28T17:48:26Z</time>
  <course>247.09</course>
  <speed>0.022360679774997897</speed>
  <fix>3d</fix>
</trkpt>
<trkpt lat="40.0713749" lon="-105.229789">
  <ele>1583.0</ele>
  <time>2026-08-28T17:48:26Z</time>
  <course>0.0</course>
  <speed>0.0</speed>
  <fix>3d</fix>
</trkpt>
<trkpt lat="40.0713751" lon="-105.2297889">
  <ele>1583.03</ele>
  <time>2026-08-28T17:48:26Z</time>
  <course>247.09</course>
  <speed>0.022360679774997897</speed>
  <fix>3d</fix>
</trkpt>
<trkpt lat="40.0713749" lon="-105.229789">
  <ele>1583.0</ele>
  <time>2026-08-28T17:48:26Z</time>
  <course>0.0</course>
  <speed>0.0</speed>
  <fix>3d</fix>
</trkpt>
<trkpt lat="40.0713751" lon="-105.2297889">
  <ele>1583.02</ele>
  <time>2026-08-28T17:48:26Z</time>
  <course>247.09</course>
  <speed>0.022360679774997897</speed>
  <fix>3d</fix>
</trkpt>
<trkpt lat="40.0713749" lon="-105.229789">
  <ele>1583.0</ele>
  <time>2026-08-28T17:48:26Z</time>
  <course>0.0</course>
  <speed>0.0</speed>
  <fix>3d</fix>
</trkpt>
<trkpt lat="40.0713751" lon="-105.2297889">
  <ele>1583.02</ele>
  <time>2026-08-28T17:48:26Z</time>
  <course>247.09</course>
  <speed>0.022360679774997897</speed>
  <fix>3d</fix>
</trkpt>
<trkpt lat="40.0713749" lon="-105.229789">
  <ele>1583.0</ele>
  <time>2026-08-28T17:48:26Z</time>
  <course>0.0</course>
  <speed>0.0</speed>
  <fix>3d</fix>
</trkpt>
<trkpt lat="40.0713751" lon="-105.2297889">
  <ele>1583.01</ele>
  <time>2026-08-28T17:48:26Z</time>
  <course>247.09</course>
  <speed>0.022360679774997897</speed>
  <fix>3d</fix>
</trkpt>
<trkpt lat="40.0713749" lon="-105.229789">
  <ele>1583.0</ele>
  <time>2026-08-28T17:48:26Z</time>
  <course>0.0</course>
  <speed>0.0</speed>
  <fix>3d</fix>
</trkpt>
<trkpt lat="40.0713751" lon="-105.2297889">
  <ele>1583.0</ele>
  <time>2026-08-28T17:48:26Z</time>
  <course>247.09</course>
  <speed>0.022360679774997897</speed>
  <fix>3d</fix>
</trkpt>
<trkpt lat="40.0713749" lon="-105.229789">
  <ele>1583.0</ele>
  <time>2026-08-28T17:48:26Z</time>
  <course>0.0</course>
  <speed>0.0</speed>
  <fix>3d</fix>
</trkpt>
<trkpt lat="40.0713751" lon="-105.2297889">
  <ele>1583.0</ele>
  <time>2026-08-28T17:48:26Z</time>
  <course>247.09</course>
  <speed>0.022360679774997897</speed>
  <fix>3d</fix>
</trkpt>
<trkpt lat="40.0713749" lon="-105.229789">
  <ele>1583.0</ele>
  <time>2026-08-28T17:48:26Z</time>
  <course>0.0</course>
  <speed>0.0</speed>
  <fix>3d</fix>
</trkpt>
<trkpt lat="40.071375" lon="-105.2297889">
  <ele>1582.99</ele>
  <time>2026-08-28T17:48:26Z</time>
  <course>247.09</course>
  <speed>0.022360679774997897</speed>
  <fix>3d</fix>
</trkpt>
<trkpt lat="40.0713749" lon="-105.229789">
  <ele>1583.0</ele>
  <time>2026-08-28T17:48:26Z</time>
  <course>0.0</course>
  <speed>0.0</speed>
  <fix>3d</fix>
</trkpt>
<trkpt lat="40.0713751" lon="-105.2297889">
  <ele>1582.98</ele>
  <time>2026-08-28T17:48:26Z</time>
  <course>247.09</course>
  <speed>0.022360679774997897</speed>
  <fix>3d</fix>
</trkpt>
<trkpt lat="40.0713749" lon="-105.229789">
  <ele>1583.0</ele>
  <time>2026-08-28T17:48:26Z</time>
  <course>0.0</course>
  <speed>0.0</speed>
  <fix>3d</fix>
</trkpt>
<trkpt lat="40.071375" lon="-105.2297889">
  <ele>1582.98</ele>
  <time>2026-08-28T17:48:26Z</time>
  <course>247.09</course>
  <speed>0.022360679774997897</speed>
  <fix>3d</fix>
</trkpt>
<trkpt lat="40.0713749" lon="-105.229789">
  <ele>1583.0</ele>
  <time>2026-08-28T17:48:26Z</time>
  <course>0.0</course>
  <speed>0.0</speed>
  <fix>3d</fix>
</trkpt>
<trkpt lat="40.0713751" lon="-105.2297889">
  <ele>1582.97</ele>
  <time>2026-08-28T17:48:26Z</time>
  <course>247.09</course>
  <speed>0.022360679774997897</speed>
  <fix>3d</fix>
</trkpt>
<trkpt lat="40.0713749" lon="-105.229789">
  <ele>1583.0</ele>
  <time>2026-08-28T17:48:26Z</time>
  <course>0.0</course>
  <speed>0.0</speed>
  <fix>3d</fix>
</trkpt>
<trkpt lat="40.071375" lon="-105.2297889">
  <ele>1582.96</ele>
  <time>2026-08-28T17:48:26Z</time>
  <course>247.09</course>
  <speed>0.022360679774997897</speed>
  <fix>3d</fix>
</trkpt>
<trkpt lat="40.0713749" lon="-105.229789">
  <ele>1583.0</ele>
  <time>2026-08-28T17:48:26Z</time>
  <course>0.0</course>
  <speed>0.0</speed>
  <fix>3d</fix>
</trkpt>
<trkpt lat="40.0713751" lon="-105.2297889">
  <ele>1582.95</ele>
  <time>2026-08-28T17:48:26Z</time>
  <course>247.09</course>
  <speed>0.022360679774997897</speed>
  <fix>3d</fix>
</trkpt>
<trkpt lat="40.0713749" lon="-105.229789">
  <ele>1583.0</ele>
  <time>2026-08-28T17:48:26Z</time>
  <course>0.0</course>
  <speed>0.0</speed>
  <fix>3d</fix>
</trkpt>
<trkpt lat="40.071375" lon="-105.2297889">
  <ele>1582.94</ele>
  <time>2026-08-28T17:48:26Z</time>
  <course>247.09</course>
  <speed>0.022360679774997897</speed>
  <fix>3d</fix>
</trkpt>
<trkpt lat="40.0713749" lon="-105.229789">
  <ele>1583.0</ele>
  <time>2026-08-28T17:48:26Z</time>
  <course>0.0</course>
  <speed>0.0</speed>
  <fix>3d</fix>
</trkpt>
<trkpt lat="40.071375" lon="-105.2297889">
  <ele>1582.94</ele>
  <time>2026-08-28T17:48:26Z</time>
  <course>247.09</course>
  <speed>0.022360679774997897</speed>
  <fix>3d</fix>
</trkpt>
<trkpt lat="40.0713749" lon="-105.229789">
  <ele>1583.0</ele>
  <time>2026-08-28T17:48:26Z</time>
  <course>0.0</course>
  <speed>0.0</speed>
  <fix>3d</fix>
</trkpt>
<trkpt lat="40.071375" lon="-105.2297889">
  <ele>1582.93</ele>
  <time>2026-08-28T17:48:26Z</time>
  <course>247.09</course>
  <speed>0.022360679774997897</speed>
  <fix>3d</fix>
</trkpt>
<trkpt lat="40.0713749" lon="-105.229789">
  <ele>1583.0</ele>
  <time>2026-08-28T17:48:26Z</time>
  <course>0.0</course>
  <speed>0.0</speed>
  <fix>3d</fix>
</trkpt>
<trkpt lat="40.071375" lon="-105.2297889">
  <ele>1582.92</ele>
  <time>2026-08-28T17:48:26Z</time>
  <course>247.09</course>
  <speed>0.022360679774997897</speed>
  <fix>3d</fix>
</trkpt>
<trkpt lat="40.0713749" lon="-105.229789">
  <ele>1583.0</ele>
  <time>2026-08-28T17:48:26Z</time>
  <course>0.0</course>
  <speed>0.0</speed>
  <fix>3d</fix>
</trkpt>
<trkpt lat="40.071375" lon="-105.2297889">
  <ele>1582.92</ele>
  <time>2026-08-28T17:48:26Z</time>
  <course>247.09</course>
  <speed>0.022360679774997897</speed>
  <fix>3d</fix>
</trkpt>
<trkpt lat="40.0713749" lon="-105.229789">
  <ele>1583.0</ele>
  <time>2026-08-28T17:48:26Z</time>
  <course>0.0</course>
  <speed>0.0</speed>
  <fix>3d</fix>
</trkpt>
<trkpt lat="40.0713751" lon="-105.2297889">
  <ele>1582.92</ele>
  <time>2026-08-28T17:48:26Z</time>
  <course>247.09</course>
  <speed>0.022360679774997897</speed>
  <fix>3d</fix>
</trkpt>
<trkpt lat="40.0713749" lon="-105.229789">
  <ele>1583.0</ele>
  <time>2026-08-28T17:48:26Z</time>
  <course>0.0</course>
  <speed>0.0</speed>
  <fix>3d</fix>
</trkpt>
<trkpt lat="40.071375" lon="-105.2297889">
  <ele>1582.92</ele>
  <time>2026-08-28T17:48:26Z</time>
  <course>247.09</course>
  <speed>0.022360679774997897</speed>
  <fix>3d</fix>
</trkpt>
<trkpt lat="40.0713749" lon="-105.229789">
  <ele>1583.0</ele>
  <time>2026-08-28T17:48:26Z</time>
  <course>0.0</course>
  <speed>0.0</speed>
  <fix>3d</fix>
</trkpt>
<trkpt lat="40.0713751" lon="-105.2297889">
  <ele>1582.91</ele>
  <time>2026-08-28T17:48:26Z</time>
  <course>247.09</course>
  <speed>0.022360679774997897</speed>
  <fix>3d</fix>
</trkpt>
<trkpt lat="40.0713749" lon="-105.229789">
  <ele>1583.0</ele>
  <time>2026-08-28T17:48:26Z</time>
  <course>0.0</course>
  <speed>0.0</speed>
  <fix>3d</fix>
</trkpt>
<trkpt lat="40.0713751" lon="-105.2297889">
  <ele>1582.91</ele>
  <time>2026-08-28T17:48:26Z</time>
  <course>247.09</course>
  <speed>0.022360679774997897</speed>
  <fix>3d</fix>
</trkpt>
<trkpt lat="40.0713749" lon="-105.229789">
  <ele>1583.0</ele>
  <time>2026-08-28T17:48:26Z</time>
  <course>0.0</course>
  <speed>0.0</speed>
  <fix>3d</fix>
</trkpt>
<trkpt lat="40.0713751" lon="-105.2297889">
  <ele>1582.91</ele>
  <time>2026-08-28T17:48:26Z</time>
  <course>247.09</course>
  <speed>0.022360679774997897</speed>
  <fix>3d</fix>
</trkpt>
<trkpt lat="40.0713749" lon="-105.229789">
  <ele>1583.0</ele>
  <time>2026-08-28T17:48:26Z</time>
  <course>0.0</course>
  <speed>0.0</speed>
  <fix>3d</fix>
</trkpt>
<trkpt lat="40.0713751" lon="-105.2297889">
  <ele>1582.9</ele>
  <time>2026-08-28T17:48:26Z</time>
  <course>247.09</course>
  <speed>0.022360679774997897</speed>
  <fix>3d</fix>
</trkpt>
<trkpt lat="40.0713749" lon="-105.229789">
  <ele>1583.0</ele>
  <time>2026-08-28T17:48:26Z</time>
  <course>0.0</course>
  <speed>0.0</speed>
  <fix>3d</fix>
</trkpt>
<trkpt lat="40.0713751" lon="-105.2297889">
  <ele>1582.9</ele>
  <time>2026-08-28T17:48:26Z</time>
  <course>247.09</course>
  <speed>0.022360679774997897</speed>
  <fix>3d</fix>
</trkpt>
<trkpt lat="40.0713749" lon="-105.229789">
  <ele>1583.0</ele>
  <time>2026-08-28T17:48:26Z</time>
  <course>0.0</course>
  <speed>0.0</speed>
  <fix>3d</fix>
</trkpt>
<trkpt lat="40.0713751" lon="-105.2297889">
  <ele>1582.91</ele>
  <time>2026-08-28T17:48:26Z</time>
  <course>247.09</course>
  <speed>0.022360679774997897</speed>
  <fix>3d</fix>
</trkpt>
<trkpt lat="40.0713749" lon="-105.229789">
  <ele>1583.0</ele>
  <time>2026-08-28T17:48:26Z</time>
  <course>0.0</course>
  <speed>0.0</speed>
  <fix>3d</fix>
</trkpt>
<trkpt lat="40.0713751" lon="-105.2297889">
  <ele>1582.91</ele>
  <time>2026-08-28T17:48:27Z</time>
  <course>247.09</course>
  <speed>0.022360679774997897</speed>
  <fix>3d</fix>
</trkpt>
<trkpt lat="40.0713749" lon="-105.229789">
  <ele>1583.0</ele>
  <time>2026-08-28T17:48:27Z</time>
  <course>0.0</course>
  <speed>0.0</speed>
  <fix>3d</fix>
</trkpt>
<trkpt lat="40.071375" lon="-105.2297889">
  <ele>1582.92</ele>
  <time>2026-08-28T17:48:27Z</time>
  <course>247.09</course>
  <speed>0.022360679774997897</speed>
  <fix>3d</fix>
</trkpt>
<trkpt lat="40.0713749" lon="-105.229789">
  <ele>1583.0</ele>
  <time>2026-08-28T17:48:27Z</time>
  <course>0.0</course>
  <speed>0.0</speed>
  <fix>3d</fix>
</trkpt>
<trkpt lat="40.0713751" lon="-105.2297889">
  <ele>1582.93</ele>
  <time>2026-08-28T17:48:27Z</time>
  <course>247.09</course>
  <speed>0.022360679774997897</speed>
  <fix>3d</fix>
</trkpt>
<trkpt lat="40.0713749" lon="-105.229789">
  <ele>1583.0</ele>
  <time>2026-08-28T17:48:27Z</time>
  <course>0.0</course>
  <speed>0.0</speed>
  <fix>3d</fix>
</trkpt>
<trkpt lat="40.071375" lon="-105.2297889">
  <ele>1582.94</ele>
  <time>2026-08-28T17:48:27Z</time>
  <course>247.09</course>
  <speed>0.022360679774997897</speed>
  <fix>3d</fix>
</trkpt>
<trkpt lat="40.0713749" lon="-105.229789">
  <ele>1583.0</ele>
  <time>2026-08-28T17:48:27Z</time>
  <course>0.0</course>
  <speed>0.0</speed>
  <fix>3d</fix>
</trkpt>
<trkpt lat="40.0713751" lon="-105.2297889">
  <ele>1582.95</ele>
  <time>2026-08-28T17:48:27Z</time>
  <course>247.09</course>
  <speed>0.022360679774997897</speed>
  <fix>3d</fix>
</trkpt>
<trkpt lat="40.0713749" lon="-105.229789">
  <ele>1583.0</ele>
  <time>2026-08-28T17:48:27Z</time>
  <course>0.0</course>
  <speed>0.0</speed>
  <fix>3d</fix>
</trkpt>
<trkpt lat="40.071375" lon="-105.2297889">
  <ele>1582.95</ele>
  <time>2026-08-28T17:48:27Z</time>
  <course>247.09</course>
  <speed>0.022360679774997897</speed>
  <fix>3d</fix>
</trkpt>
<trkpt lat="40.0713749" lon="-105.229789">
  <ele>1583.0</ele>
  <time>2026-08-28T17:48:27Z</time>
  <course>0.0</course>
  <speed>0.0</speed>
  <fix>3d</fix>
</trkpt>
<trkpt lat="40.0713751" lon="-105.2297889">
  <ele>1582.96</ele>
  <time>2026-08-28T17:48:27Z</time>
  <course>247.09</course>
  <speed>0.022360679774997897</speed>
  <fix>3d</fix>
</trkpt>
<trkpt lat="40.0713749" lon="-105.229789">
  <ele>1583.0</ele>
  <time>2026-08-28T17:48:27Z</time>
  <course>0.0</course>
  <speed>0.0</speed>
  <fix>3d</fix>
</trkpt>
<trkpt lat="40.071375" lon="-105.2297889">
  <ele>1582.97</ele>
  <time>2026-08-28T17:48:27Z</time>
  <course>247.09</course>
  <speed>0.022360679774997897</speed>
  <fix>3d</fix>
</trkpt>
<trkpt lat="40.0713749" lon="-105.229789">
  <ele>1583.0</ele>
  <time>2026-08-28T17:48:27Z</time>
  <course>0.0</course>
  <speed>0.0</speed>
  <fix>3d</fix>
</trkpt>
<trkpt lat="40.0713751" lon="-105.2297889">
  <ele>1582.97</ele>
  <time>2026-08-28T17:48:27Z</time>
  <course>247.09</course>
  <speed>0.022360679774997897</speed>
  <fix>3d</fix>
</trkpt>
<trkpt lat="40.0713749" lon="-105.229789">
  <ele>1583.0</ele>
  <time>2026-08-28T17:48:27Z</time>
  <course>0.0</course>
  <speed>0.0</speed>
  <fix>3d</fix>
</trkpt>
<trkpt lat="40.071375" lon="-105.2297889">
  <ele>1582.97</ele>
  <time>2026-08-28T17:48:27Z</time>
  <course>247.09</course>
  <speed>0.022360679774997897</speed>
  <fix>3d</fix>
</trkpt>
<trkpt lat="40.0713749" lon="-105.229789">
  <ele>1583.0</ele>
  <time>2026-08-28T17:48:27Z</time>
  <course>0.0</course>
  <speed>0.0</speed>
  <fix>3d</fix>
</trkpt>
<trkpt lat="40.0713751" lon="-105.2297889">
  <ele>1582.97</ele>
  <time>2026-08-28T17:48:27Z</time>
  <course>247.09</course>
  <speed>0.022360679774997897</speed>
  <fix>3d</fix>
</trkpt>
<trkpt lat="40.0713749" lon="-105.229789">
  <ele>1583.0</ele>
  <time>2026-08-28T17:48:27Z</time>
  <course>0.0</course>
  <speed>0.0</speed>
  <fix>3d</fix>
</trkpt>
<trkpt lat="40.071375" lon="-105.2297889">
  <ele>1582.97</ele>
  <time>2026-08-28T17:48:27Z</time>
  <course>247.09</course>
  <speed>0.022360679774997897</speed>
  <fix>3d</fix>
</trkpt>
<trkpt lat="40.0713749" lon="-105.229789">
  <ele>1583.0</ele>
  <time>2026-08-28T17:48:27Z</time>
  <course>0.0</course>
  <speed>0.0</speed>
  <fix>3d</fix>
</trkpt>
<trkpt lat="40.0713751" lon="-105.2297889">
  <ele>1582.97</ele>
  <time>2026-08-28T17:48:27Z</time>
  <course>247.09</course>
  <speed>0.022360679774997897</speed>
  <fix>3d</fix>
</trkpt>
<trkpt lat="40.0713749" lon="-105.229789">
  <ele>1583.0</ele>
  <time>2026-08-28T17:48:27Z</time>
  <course>0.0</course>
  <speed>0.0</speed>
  <fix>3d</fix>
</trkpt>
<trkpt lat="40.071375" lon="-105.2297889">
  <ele>1582.97</ele>
  <time>2026-08-28T17:48:27Z</time>
  <course>247.09</course>
  <speed>0.022360679774997897</speed>
  <fix>3d</fix>
</trkpt>
<trkpt lat="40.0713749" lon="-105.229789">
  <ele>1583.0</ele>
  <time>2026-08-28T17:48:27Z</time>
  <course>0.0</course>
  <speed>0.0</speed>
  <fix>3d</fix>
</trkpt>
<trkpt lat="40.0713751" lon="-105.2297889">
  <ele>1582.96</ele>
  <time>2026-08-28T17:48:27Z</time>
  <course>247.09</course>
  <speed>0.022360679774997897</speed>
  <fix>3d</fix>
</trkpt>
<trkpt lat="40.0713749" lon="-105.229789">
  <ele>1583.0</ele>
  <time>2026-08-28T17:48:27Z</time>
  <course>0.0</course>
  <speed>0.0</speed>
  <fix>3d</fix>
</trkpt>
<trkpt lat="40.0713751" lon="-105.2297889">
  <ele>1582.96</ele>
  <time>2026-08-28T17:48:27Z</time>
  <course>247.09</course>
  <speed>0.022360679774997897</speed>
  <fix>3d</fix>
</trkpt>
<trkpt lat="40.0713749" lon="-105.229789">
  <ele>1583.0</ele>
  <time>2026-08-28T17:48:27Z</time>
  <course>0.0</course>
  <speed>0.0</speed>
  <fix>3d</fix>
</trkpt>
<trkpt lat="40.0713751" lon="-105.2297889">
  <ele>1582.95</ele>
  <time>2026-08-28T17:48:27Z</time>
  <course>247.09</course>
  <speed>0.022360679774997897</speed>
  <fix>3d</fix>
</trkpt>
<trkpt lat="40.0713749" lon="-105.229789">
  <ele>1583.0</ele>
  <time>2026-08-28T17:48:27Z</time>
  <course>0.0</course>
  <speed>0.0</speed>
  <fix>3d</fix>
</trkpt>
<trkpt lat="40.0713751" lon="-105.2297889">
  <ele>1582.95</ele>
  <time>2026-08-28T17:48:27Z</time>
  <course>247.09</course>
  <speed>0.022360679774997897</speed>
  <fix>3d</fix>
</trkpt>
<trkpt lat="40.0713749" lon="-105.229789">
  <ele>1583.0</ele>
  <time>2026-08-28T17:48:27Z</time>
  <course>0.0</course>
  <speed>0.0</speed>
  <fix>3d</fix>
</trkpt>
<trkpt lat="40.0713751" lon="-105.2297889">
  <ele>1582.95</ele>
  <time>2026-08-28T17:48:27Z</time>
  <course>247.09</course>
  <speed>0.022360679774997897</speed>
  <fix>3d</fix>
</trkpt>
<trkpt lat="40.0713749" lon="-105.229789">
  <ele>1583.0</ele>
  <time>2026-08-28T17:48:27Z</time>
  <course>0.0</course>
  <speed>0.0</speed>
  <fix>3d</fix>
</trkpt>
<trkpt lat="40.0713751" lon="-105.2297889">
  <ele>1582.95</ele>
  <time>2026-08-28T17:48:27Z</time>
  <course>247.09</course>
  <speed>0.022360679774997897</speed>
  <fix>3d</fix>
</trkpt>
<trkpt lat="40.0713749" lon="-105.229789">
  <ele>1583.0</ele>
  <time>2026-08-28T17:48:27Z</time>
  <course>0.0</course>
  <speed>0.0</speed>
  <fix>3d</fix>
</trkpt>
<trkpt lat="40.0713751" lon="-105.2297889">
  <ele>1582.95</ele>
  <time>2026-08-28T17:48:27Z</time>
  <course>247.09</course>
  <speed>0.022360679774997897</speed>
  <fix>3d</fix>
</trkpt>
<trkpt lat="40.0713749" lon="-105.229789">
  <ele>1583.0</ele>
  <time>2026-08-28T17:48:27Z</time>
  <course>0.0</course>
  <speed>0.0</speed>
  <fix>3d</fix>
</trkpt>
<trkpt lat="40.0713751" lon="-105.2297889">
  <ele>1582.95</ele>
  <time>2026-08-28T17:48:27Z</time>
  <course>247.09</course>
  <speed>0.022360679774997897</speed>
  <fix>3d</fix>
</trkpt>
<trkpt lat="40.0713749" lon="-105.229789">
  <ele>1583.0</ele>
  <time>2026-08-28T17:48:27Z</time>
  <course>0.0</course>
  <speed>0.0</speed>
  <fix>3d</fix>
</trkpt>
<trkpt lat="40.0713751" lon="-105.2297889">
  <ele>1582.95</ele>
  <time>2026-08-28T17:48:27Z</time>
  <course>247.09</course>
  <speed>0.022360679774997897</speed>
  <fix>3d</fix>
</trkpt>
<trkpt lat="40.0713749" lon="-105.229789">
  <ele>1583.0</ele>
  <time>2026-08-28T17:48:27Z</time>
  <course>0.0</course>
  <speed>0.0</speed>
  <fix>3d</fix>
</trkpt>
<trkpt lat="40.071375" lon="-105.2297889">
  <ele>1582.94</ele>
  <time>2026-08-28T17:48:27Z</time>
  <course>247.09</course>
  <speed>0.022360679774997897</speed>
  <fix>3d</fix>
</trkpt>
<trkpt lat="40.0713749" lon="-105.229789">
  <ele>1583.0</ele>
  <time>2026-08-28T17:48:27Z</time>
  <course>0.0</course>
  <speed>0.0</speed>
  <fix>3d</fix>
</trkpt>
<trkpt lat="40.0713751" lon="-105.2297889">
  <ele>1582.94</ele>
  <time>2026-08-28T17:48:27Z</time>
  <course>247.09</course>
  <speed>0.022360679774997897</speed>
  <fix>3d</fix>
</trkpt>
<trkpt lat="40.0713749" lon="-105.229789">
  <ele>1583.0</ele>
  <time>2026-08-28T17:48:27Z</time>
  <course>0.0</course>
  <speed>0.0</speed>
  <fix>3d</fix>
</trkpt>
<trkpt lat="40.071375" lon="-105.2297889">
  <ele>1582.93</ele>
  <time>2026-08-28T17:48:27Z</time>
  <course>247.09</course>
  <speed>0.022360679774997897</speed>
  <fix>3d</fix>
</trkpt>
<trkpt lat="40.0713749" lon="-105.229789">
  <ele>1583.0</ele>
  <time>2026-08-28T17:48:27Z</time>
  <course>0.0</course>
  <speed>0.0</speed>
  <fix>3d</fix>
</trkpt>
<trkpt lat="40.0713751" lon="-105.2297889">
  <ele>1582.93</ele>
  <time>2026-08-28T17:48:27Z</time>
  <course>247.09</course>
  <speed>0.022360679774997897</speed>
  <fix>3d</fix>
</trkpt>
<trkpt lat="40.0713749" lon="-105.229789">
  <ele>1583.0</ele>
  <time>2026-08-28T17:48:27Z</time>
  <course>0.0</course>
  <speed>0.0</speed>
  <fix>3d</fix>
</trkpt>
<trkpt lat="40.0713751" lon="-105.2297889">
  <ele>1582.93</ele>
  <time>2026-08-28T17:48:27Z</time>
  <course>247.09</course>
  <speed>0.022360679774997897</speed>
  <fix>3d</fix>
</trkpt>
<trkpt lat="40.0713749" lon="-105.229789">
  <ele>1583.0</ele>
  <time>2026-08-28T17:48:27Z</time>
  <course>0.0</course>
  <speed>0.0</speed>
  <fix>3d</fix>
</trkpt>
<trkpt lat="40.0713751" lon="-105.2297889">
  <ele>1582.93</ele>
  <time>2026-08-28T17:48:27Z</time>
  <course>247.09</course>
  <speed>0.022360679774997897</speed>
  <fix>3d</fix>
</trkpt>
<trkpt lat="40.0713749" lon="-105.229789">
  <ele>1583.0</ele>
  <time>2026-08-28T17:48:27Z</time>
  <course>0.0</course>
  <speed>0.0</speed>
  <fix>3d</fix>
</trkpt>
<trkpt lat="40.0713751" lon="-105.2297889">
  <ele>1582.93</ele>
  <time>2026-08-28T17:48:27Z</time>
  <course>247.09</course>
  <speed>0.022360679774997897</speed>
  <fix>3d</fix>
</trkpt>
<trkpt lat="40.0713749" lon="-105.229789">
  <ele>1583.0</ele>
  <time>2026-08-28T17:48:27Z</time>
  <course>0.0</course>
  <speed>0.0</speed>
  <fix>3d</fix>
</trkpt>
<trkpt lat="40.0713751" lon="-105.2297889">
  <ele>1582.93</ele>
  <time>2026-08-28T17:48:27Z</time>
  <course>247.09</course>
  <speed>0.022360679774997897</speed>
  <fix>3d</fix>
</trkpt>
<trkpt lat="40.0713749" lon="-105.229789">
  <ele>1583.0</ele>
  <time>2026-08-28T17:48:27Z</time>
  <course>0.0</course>
  <speed>0.0</speed>
  <fix>3d</fix>
</trkpt>
<trkpt lat="40.0713751" lon="-105.2297889">
  <ele>1582.93</ele>
  <time>2026-08-28T17:48:27Z</time>
  <course>247.09</course>
  <speed>0.022360679774997897</speed>
  <fix>3d</fix>
</trkpt>
<trkpt lat="40.0713749" lon="-105.229789">
  <ele>1583.0</ele>
  <time>2026-08-28T17:48:27Z</time>
  <course>0.0</course>
  <speed>0.0</speed>
  <fix>3d</fix>
</trkpt>
<trkpt lat="40.0713751" lon="-105.2297889">
  <ele>1582.93</ele>
  <time>2026-08-28T17:48:27Z</time>
  <course>247.09</course>
  <speed>0.022360679774997897</speed>
  <fix>3d</fix>
</trkpt>
<trkpt lat="40.0713749" lon="-105.229789">
  <ele>1583.0</ele>
  <time>2026-08-28T17:48:27Z</time>
  <course>0.0</course>
  <speed>0.0</speed>
  <fix>3d</fix>
</trkpt>
<trkpt lat="40.0713751" lon="-105.2297889">
  <ele>1582.93</ele>
  <time>2026-08-28T17:48:27Z</time>
  <course>247.09</course>
  <speed>0.022360679774997897</speed>
  <fix>3d</fix>
</trkpt>
<trkpt lat="40.0713749" lon="-105.229789">
  <ele>1583.0</ele>
  <time>2026-08-28T17:48:27Z</time>
  <course>0.0</course>
  <speed>0.0</speed>
  <fix>3d</fix>
</trkpt>
<trkpt lat="40.0713751" lon="-105.2297889">
  <ele>1582.93</ele>
  <time>2026-08-28T17:48:27Z</time>
  <course>247.09</course>
  <speed>0.022360679774997897</speed>
  <fix>3d</fix>
</trkpt>
<trkpt lat="40.0713749" lon="-105.229789">
  <ele>1583.0</ele>
  <time>2026-08-28T17:48:27Z</time>
  <course>0.0</course>
  <speed>0.0</speed>
  <fix>3d</fix>
</trkpt>
<trkpt lat="40.0713751" lon="-105.2297889">
  <ele>1582.93</ele>
  <time>2026-08-28T17:48:27Z</time>
  <course>247.09</course>
  <speed>0.022360679774997897</speed>
  <fix>3d</fix>
</trkpt>
<trkpt lat="40.0713749" lon="-105.229789">
  <ele>1583.0</ele>
  <time>2026-08-28T17:48:27Z</time>
  <course>0.0</course>
  <speed>0.0</speed>
  <fix>3d</fix>
</trkpt>
<trkpt lat="40.0713751" lon="-105.2297889">
  <ele>1582.93</ele>
  <time>2026-08-28T17:48:27Z</time>
  <course>247.09</course>
  <speed>0.022360679774997897</speed>
  <fix>3d</fix>
</trkpt>
<trkpt lat="40.0713749" lon="-105.229789">
  <ele>1583.0</ele>
  <time>2026-08-28T17:48:27Z</time>
  <course>0.0</course>
  <speed>0.0</speed>
  <fix>3d</fix>
</trkpt>
<trkpt lat="40.0713751" lon="-105.2297889">
  <ele>1582.93</ele>
  <time>2026-08-28T17:48:27Z</time>
  <course>247.09</course>
  <speed>0.022360679774997897</speed>
  <fix>3d</fix>
</trkpt>
<trkpt lat="40.0713749" lon="-105.229789">
  <ele>1583.0</ele>
  <time>2026-08-28T17:48:27Z</time>
  <course>0.0</course>
  <speed>0.0</speed>
  <fix>3d</fix>
</trkpt>
<trkpt lat="40.0713751" lon="-105.2297889">
  <ele>1582.93</ele>
  <time>2026-08-28T17:48:27Z</time>
  <course>247.09</course>
  <speed>0.022360679774997897</speed>
  <fix>3d</fix>
</trkpt>
<trkpt lat="40.0713749" lon="-105.229789">
  <ele>1583.0</ele>
  <time>2026-08-28T17:48:27Z</time>
  <course>0.0</course>
  <speed>0.0</speed>
  <fix>3d</fix>
</trkpt>
<trkpt lat="40.0713751" lon="-105.2297889">
  <ele>1582.93</ele>
  <time>2026-08-28T17:48:27Z</time>
  <course>247.09</course>
  <speed>0.022360679774997897</speed>
  <fix>3d</fix>
</trkpt>
<trkpt lat="40.0713749" lon="-105.229789">
  <ele>1583.0</ele>
  <time>2026-08-28T17:48:27Z</time>
  <course>0.0</course>
  <speed>0.0</speed>
  <fix>3d</fix>
</trkpt>
<trkpt lat="40.0713751" lon="-105.2297889">
  <ele>1582.93</ele>
  <time>2026-08-28T17:48:27Z</time>
  <course>247.09</course>
  <speed>0.022360679774997897</speed>
  <fix>3d</fix>
</trkpt>
<trkpt lat="40.0713749" lon="-105.229789">
  <ele>1583.0</ele>
  <time>2026-08-28T17:48:27Z</time>
  <course>0.0</course>
  <speed>0.0</speed>
  <fix>3d</fix>
</trkpt>
<trkpt lat="40.0713751" lon="-105.2297889">
  <ele>1582.93</ele>
  <time>2026-08-28T17:48:27Z</time>
  <course>247.09</course>
  <speed>0.022360679774997897</speed>
  <fix>3d</fix>
</trkpt>
<trkpt lat="40.0713749" lon="-105.229789">
  <ele>1583.0</ele>
  <time>2026-08-28T17:48:27Z</time>
  <course>0.0</course>
  <speed>0.0</speed>
  <fix>3d</fix>
</trkpt>
<trkpt lat="40.0713751" lon="-105.2297889">
  <ele>1582.93</ele>
  <time>2026-08-28T17:48:27Z</time>
  <course>247.09</course>
  <speed>0.022360679774997897</speed>
  <fix>3d</fix>
</trkpt>
<trkpt lat="40.0713749" lon="-105.229789">
  <ele>1583.0</ele>
  <time>2026-08-28T17:48:27Z</time>
  <course>0.0</course>
  <speed>0.0</speed>
  <fix>3d</fix>
</trkpt>
<trkpt lat="40.0713751" lon="-105.2297889">
  <ele>1582.93</ele>
  <time>2026-08-28T17:48:27Z</time>
  <course>247.09</course>
  <speed>0.022360679774997897</speed>
  <fix>3d</fix>
</trkpt>
<trkpt lat="40.0713749" lon="-105.229789">
  <ele>1583.0</ele>
  <time>2026-08-28T17:48:27Z</time>
  <course>0.0</course>
  <speed>0.0</speed>
  <fix>3d</fix>
</trkpt>
<trkpt lat="40.0713751" lon="-105.2297889">
  <ele>1582.93</ele>
  <time>2026-08-28T17:48:27Z</time>
  <course>247.09</course>
  <speed>0.022360679774997897</speed>
  <fix>3d</fix>
</trkpt>
<trkpt lat="40.0713749" lon="-105.229789">
  <ele>1583.0</ele>
  <time>2026-08-28T17:48:27Z</time>
  <course>0.0</course>
  <speed>0.0</speed>
  <fix>3d</fix>
</trkpt>
<trkpt lat="40.071375" lon="-105.2297889">
  <ele>1582.93</ele>
  <time>2026-08-28T17:48:27Z</time>
  <course>247.09</course>
  <speed>0.022360679774997897</speed>
  <fix>3d</fix>
</trkpt>
<trkpt lat="40.0713749" lon="-105.229789">
  <ele>1583.0</ele>
  <time>2026-08-28T17:48:27Z</time>
  <course>0.0</course>
  <speed>0.0</speed>
  <fix>3d</fix>
</trkpt>
<trkpt lat="40.0713751" lon="-105.2297889">
  <ele>1582.93</ele>
  <time>2026-08-28T17:48:27Z</time>
  <course>247.09</course>
  <speed>0.022360679774997897</speed>
  <fix>3d</fix>
</trkpt>
<trkpt lat="40.0713749" lon="-105.229789">
  <ele>1583.0</ele>
  <time>2026-08-28T17:48:27Z</time>
  <course>0.0</course>
  <speed>0.0</speed>
  <fix>3d</fix>
</trkpt>
<trkpt lat="40.071375" lon="-105.2297889">
  <ele>1582.93</ele>
  <time>2026-08-28T17:48:27Z</time>
  <course>247.09</course>
  <speed>0.022360679774997897</speed>
  <fix>3d</fix>
</trkpt>
<trkpt lat="40.0713749" lon="-105.229789">
  <ele>1583.0</ele>
  <time>2026-08-28T17:48:27Z</time>
  <course>0.0</course>
  <speed>0.0</speed>
  <fix>3d</fix>
</trkpt>
<trkpt lat="40.0713751" lon="-105.2297889">
  <ele>1582.93</ele>
  <time>2026-08-28T17:48:27Z</time>
  <course>247.09</course>
  <speed>0.022360679774997897</speed>
  <fix>3d</fix>
</trkpt>
<trkpt lat="40.0713749" lon="-105.229789">
  <ele>1583.0</ele>
  <time>2026-08-28T17:48:27Z</time>
  <course>0.0</course>
  <speed>0.0</speed>
  <fix>3d</fix>
</trkpt>
<trkpt lat="40.071375" lon="-105.2297889">
  <ele>1582.93</ele>
  <time>2026-08-28T17:48:27Z</time>
  <course>247.09</course>
  <speed>0.022360679774997897</speed>
  <fix>3d</fix>
</trkpt>
<trkpt lat="40.0713749" lon="-105.229789">
  <ele>1583.0</ele>
  <time>2026-08-28T17:48:27Z</time>
  <course>0.0</course>
  <speed>0.0</speed>
  <fix>3d</fix>
</trkpt>
<trkpt lat="40.0713751" lon="-105.2297889">
  <ele>1582.94</ele>
  <time>2026-08-28T17:48:27Z</time>
  <course>247.09</course>
  <speed>0.022360679774997897</speed>
  <fix>3d</fix>
</trkpt>
<trkpt lat="40.0713749" lon="-105.229789">
  <ele>1583.0</ele>
  <time>2026-08-28T17:48:27Z</time>
  <course>0.0</course>
  <speed>0.0</speed>
  <fix>3d</fix>
</trkpt>
<trkpt lat="40.0713751" lon="-105.2297889">
  <ele>1582.95</ele>
  <time>2026-08-28T17:48:27Z</time>
  <course>247.09</course>
  <speed>0.022360679774997897</speed>
  <fix>3d</fix>
</trkpt>
<trkpt lat="40.0713749" lon="-105.229789">
  <ele>1583.0</ele>
  <time>2026-08-28T17:48:27Z</time>
  <course>0.0</course>
  <speed>0.0</speed>
  <fix>3d</fix>
</trkpt>
<trkpt lat="40.0713751" lon="-105.2297889">
  <ele>1582.95</ele>
  <time>2026-08-28T17:48:27Z</time>
  <course>247.09</course>
  <speed>0.022360679774997897</speed>
  <fix>3d</fix>
</trkpt>
<trkpt lat="40.0713749" lon="-105.229789">
  <ele>1583.0</ele>
  <time>2026-08-28T17:48:27Z</time>
  <course>0.0</course>
  <speed>0.0</speed>
  <fix>3d</fix>
</trkpt>
<trkpt lat="40.0713751" lon="-105.2297889">
  <ele>1582.96</ele>
  <time>2026-08-28T17:48:27Z</time>
  <course>247.09</course>
  <speed>0.022360679774997897</speed>
  <fix>3d</fix>
</trkpt>
<trkpt lat="40.0713749" lon="-105.229789">
  <ele>1583.0</ele>
  <time>2026-08-28T17:48:27Z</time>
  <course>0.0</course>
  <speed>0.0</speed>
  <fix>3d</fix>
</trkpt>
<trkpt lat="40.0713751" lon="-105.2297889">
  <ele>1582.97</ele>
  <time>2026-08-28T17:48:27Z</time>
  <course>247.09</course>
  <speed>0.022360679774997897</speed>
  <fix>3d</fix>
</trkpt>
<trkpt lat="40.0713749" lon="-105.229789">
  <ele>1583.0</ele>
  <time>2026-08-28T17:48:27Z</time>
  <course>0.0</course>
  <speed>0.0</speed>
  <fix>3d</fix>
</trkpt>
<trkpt lat="40.0713751" lon="-105.2297889">
  <ele>1582.98</ele>
  <time>2026-08-28T17:48:27Z</time>
  <course>247.09</course>
  <speed>0.022360679774997897</speed>
  <fix>3d</fix>
</trkpt>
<trkpt lat="40.0713749" lon="-105.229789">
  <ele>1583.0</ele>
  <time>2026-08-28T17:48:27Z</time>
  <course>0.0</course>
  <speed>0.0</speed>
  <fix>3d</fix>
</trkpt>
<trkpt lat="40.0713751" lon="-105.2297889">
  <ele>1582.99</ele>
  <time>2026-08-28T17:48:27Z</time>
  <course>247.09</course>
  <speed>0.022360679774997897</speed>
  <fix>3d</fix>
</trkpt>
<trkpt lat="40.0713749" lon="-105.229789">
  <ele>1583.0</ele>
  <time>2026-08-28T17:48:27Z</time>
  <course>0.0</course>
  <speed>0.0</speed>
  <fix>3d</fix>
</trkpt>
<trkpt lat="40.0713751" lon="-105.2297889">
  <ele>1583.0</ele>
  <time>2026-08-28T17:48:27Z</time>
  <course>247.09</course>
  <speed>0.022360679774997897</speed>
  <fix>3d</fix>
</trkpt>
<trkpt lat="40.0713749" lon="-105.229789">
  <ele>1583.0</ele>
  <time>2026-08-28T17:48:27Z</time>
  <course>0.0</course>
  <speed>0.0</speed>
  <fix>3d</fix>
</trkpt>
<trkpt lat="40.0713751" lon="-105.2297889">
  <ele>1583.0</ele>
  <time>2026-08-28T17:48:27Z</time>
  <course>247.09</course>
  <speed>0.022360679774997897</speed>
  <fix>3d</fix>
</trkpt>
<trkpt lat="40.0713749" lon="-105.229789">
  <ele>1583.0</ele>
  <time>2026-08-28T17:48:27Z</time>
  <course>0.0</course>
  <speed>0.0</speed>
  <fix>3d</fix>
</trkpt>
<trkpt lat="40.0713751" lon="-105.2297889">
  <ele>1583.0</ele>
  <time>2026-08-28T17:48:27Z</time>
  <course>247.09</course>
  <speed>0.022360679774997897</speed>
  <fix>3d</fix>
</trkpt>
<trkpt lat="40.0713749" lon="-105.229789">
  <ele>1583.0</ele>
  <time>2026-08-28T17:48:27Z</time>
  <course>0.0</course>
  <speed>0.0</speed>
  <fix>3d</fix>
</trkpt>
<trkpt lat="40.0713751" lon="-105.2297889">
  <ele>1583.0</ele>
  <time>2026-08-28T17:48:27Z</time>
  <course>247.09</course>
  <speed>0.022360679774997897</speed>
  <fix>3d</fix>
</trkpt>
<trkpt lat="40.0713749" lon="-105.229789">
  <ele>1583.0</ele>
  <time>2026-08-28T17:48:27Z</time>
  <course>0.0</course>
  <speed>0.0</speed>
  <fix>3d</fix>
</trkpt>
<trkpt lat="40.0713751" lon="-105.2297889">
  <ele>1582.99</ele>
  <time>2026-08-28T17:48:27Z</time>
  <course>247.09</course>
  <speed>0.022360679774997897</speed>
  <fix>3d</fix>
</trkpt>
<trkpt lat="40.0713749" lon="-105.229789">
  <ele>1583.0</ele>
  <time>2026-08-28T17:48:27Z</time>
  <course>0.0</course>
  <speed>0.0</speed>
  <fix>3d</fix>
</trkpt>
<trkpt lat="40.0713751" lon="-105.2297889">
  <ele>1582.99</ele>
  <time>2026-08-28T17:48:27Z</time>
  <course>247.09</course>
  <speed>0.022360679774997897</speed>
  <fix>3d</fix>
</trkpt>
<trkpt lat="40.0713749" lon="-105.229789">
  <ele>1583.0</ele>
  <time>2026-08-28T17:48:27Z</time>
  <course>0.0</course>
  <speed>0.0</speed>
  <fix>3d</fix>
</trkpt>
<trkpt lat="40.0713751" lon="-105.2297889">
  <ele>1582.99</ele>
  <time>2026-08-28T17:48:27Z</time>
  <course>247.09</course>
  <speed>0.022360679774997897</speed>
  <fix>3d</fix>
</trkpt>
<trkpt lat="40.0713749" lon="-105.229789">
  <ele>1583.0</ele>
  <time>2026-08-28T17:48:27Z</time>
  <course>0.0</course>
  <speed>0.0</speed>
  <fix>3d</fix>
</trkpt>
<trkpt lat="40.0713751" lon="-105.2297889">
  <ele>1582.98</ele>
  <time>2026-08-28T17:48:27Z</time>
  <course>247.09</course>
  <speed>0.022360679774997897</speed>
  <fix>3d</fix>
</trkpt>
<trkpt lat="40.0713749" lon="-105.229789">
  <ele>1583.0</ele>
  <time>2026-08-28T17:48:27Z</time>
  <course>0.0</course>
  <speed>0.0</speed>
  <fix>3d</fix>
</trkpt>
<trkpt lat="40.071375" lon="-105.2297889">
  <ele>1582.98</ele>
  <time>2026-08-28T17:48:27Z</time>
  <course>247.09</course>
  <speed>0.022360679774997897</speed>
  <fix>3d</fix>
</trkpt>
<trkpt lat="40.0713749" lon="-105.229789">
  <ele>1583.0</ele>
  <time>2026-08-28T17:48:27Z</time>
  <course>0.0</course>
  <speed>0.0</speed>
  <fix>3d</fix>
</trkpt>
<trkpt lat="40.0713751" lon="-105.2297889">
  <ele>1582.97</ele>
  <time>2026-08-28T17:48:27Z</time>
  <course>247.09</course>
  <speed>0.022360679774997897</speed>
  <fix>3d</fix>
</trkpt>
<trkpt lat="40.0713749" lon="-105.229789">
  <ele>1583.0</ele>
  <time>2026-08-28T17:48:27Z</time>
  <course>0.0</course>
  <speed>0.0</speed>
  <fix>3d</fix>
</trkpt>
<trkpt lat="40.071375" lon="-105.2297889">
  <ele>1582.96</ele>
  <time>2026-08-28T17:48:27Z</time>
  <course>247.09</course>
  <speed>0.022360679774997897</speed>
  <fix>3d</fix>
</trkpt>
<trkpt lat="40.0713749" lon="-105.229789">
  <ele>1583.0</ele>
  <time>2026-08-28T17:48:27Z</time>
  <course>0.0</course>
  <speed>0.0</speed>
  <fix>3d</fix>
</trkpt>
<trkpt lat="40.0713751" lon="-105.2297889">
  <ele>1582.96</ele>
  <time>2026-08-28T17:48:27Z</time>
  <course>247.09</course>
  <speed>0.022360679774997897</speed>
  <fix>3d</fix>
</trkpt>
<trkpt lat="40.0713749" lon="-105.229789">
  <ele>1583.0</ele>
  <time>2026-08-28T17:48:27Z</time>
  <course>0.0</course>
  <speed>0.0</speed>
  <fix>3d</fix>
</trkpt>
<trkpt lat="40.071375" lon="-105.2297889">
  <ele>1582.95</ele>
  <time>2026-08-28T17:48:27Z</time>
  <course>247.09</course>
  <speed>0.022360679774997897</speed>
  <fix>3d</fix>
</trkpt>
<trkpt lat="40.0713749" lon="-105.229789">
  <ele>1583.0</ele>
  <time>2026-08-28T17:48:27Z</time>
  <course>0.0</course>
  <speed>0.0</speed>
  <fix>3d</fix>
</trkpt>
<trkpt lat="40.0713751" lon="-105.2297889">
  <ele>1582.96</ele>
  <time>2026-08-28T17:48:27Z</time>
  <course>247.09</course>
  <speed>0.022360679774997897</speed>
  <fix>3d</fix>
</trkpt>
<trkpt lat="40.0713749" lon="-105.229789">
  <ele>1583.0</ele>
  <time>2026-08-28T17:48:27Z</time>
  <course>0.0</course>
  <speed>0.0</speed>
  <fix>3d</fix>
</trkpt>
<trkpt lat="40.071375" lon="-105.2297889">
  <ele>1582.96</ele>
  <time>2026-08-28T17:48:27Z</time>
  <course>247.09</course>
  <speed>0.022360679774997897</speed>
  <fix>3d</fix>
</trkpt>
<trkpt lat="40.0713749" lon="-105.229789">
  <ele>1583.0</ele>
  <time>2026-08-28T17:48:27Z</time>
  <course>0.0</course>
  <speed>0.0</speed>
  <fix>3d</fix>
</trkpt>
<trkpt lat="40.0713751" lon="-105.2297889">
  <ele>1582.97</ele>
  <time>2026-08-28T17:48:27Z</time>
  <course>247.09</course>
  <speed>0.022360679774997897</speed>
  <fix>3d</fix>
</trkpt>
<trkpt lat="40.0713749" lon="-105.229789">
  <ele>1583.0</ele>
  <time>2026-08-28T17:48:27Z</time>
  <course>0.0</course>
  <speed>0.0</speed>
  <fix>3d</fix>
</trkpt>
<trkpt lat="40.071375" lon="-105.2297889">
  <ele>1582.98</ele>
  <time>2026-08-28T17:48:27Z</time>
  <course>247.09</course>
  <speed>0.022360679774997897</speed>
  <fix>3d</fix>
</trkpt>
<trkpt lat="40.0713749" lon="-105.229789">
  <ele>1583.0</ele>
  <time>2026-08-28T17:48:27Z</time>
  <course>0.0</course>
  <speed>0.0</speed>
  <fix>3d</fix>
</trkpt>
<trkpt lat="40.0713751" lon="-105.2297889">
  <ele>1582.99</ele>
  <time>2026-08-28T17:48:27Z</time>
  <course>247.09</course>
  <speed>0.022360679774997897</speed>
  <fix>3d</fix>
</trkpt>
<trkpt lat="40.0713749" lon="-105.229789">
  <ele>1583.0</ele>
  <time>2026-08-28T17:48:27Z</time>
  <course>0.0</course>
  <speed>0.0</speed>
  <fix>3d</fix>
</trkpt>
<trkpt lat="40.071375" lon="-105.2297889">
  <ele>1583.0</ele>
  <time>2026-08-28T17:48:27Z</time>
  <course>247.09</course>
  <speed>0.022360679774997897</speed>
  <fix>3d</fix>
</trkpt>
<trkpt lat="40.0713749" lon="-105.229789">
  <ele>1583.0</ele>
  <time>2026-08-28T17:48:27Z</time>
  <course>0.0</course>
  <speed>0.0</speed>
  <fix>3d</fix>
</trkpt>
<trkpt lat="40.0713751" lon="-105.2297889">
  <ele>1583.0</ele>
  <time>2026-08-28T17:48:27Z</time>
  <course>247.09</course>
  <speed>0.022360679774997897</speed>
  <fix>3d</fix>
</trkpt>
<trkpt lat="40.0713749" lon="-105.229789">
  <ele>1583.0</ele>
  <time>2026-08-28T17:48:27Z</time>
  <course>0.0</course>
  <speed>0.0</speed>
  <fix>3d</fix>
</trkpt>
<trkpt lat="40.0713751" lon="-105.2297889">
  <ele>1583.01</ele>
  <time>2026-08-28T17:48:27Z</time>
  <course>247.09</course>
  <speed>0.022360679774997897</speed>
  <fix>3d</fix>
</trkpt>
<trkpt lat="40.0713749" lon="-105.229789">
  <ele>1583.0</ele>
  <time>2026-08-28T17:48:27Z</time>
  <course>0.0</course>
  <speed>0.0</speed>
  <fix>3d</fix>
</trkpt>
<trkpt lat="40.0713751" lon="-105.2297889">
  <ele>1583.01</ele>
  <time>2026-08-28T17:48:27Z</time>
  <course>247.09</course>
  <speed>0.022360679774997897</speed>
  <fix>3d</fix>
</trkpt>
<trkpt lat="40.0713749" lon="-105.229789">
  <ele>1583.0</ele>
  <time>2026-08-28T17:48:27Z</time>
  <course>0.0</course>
  <speed>0.0</speed>
  <fix>3d</fix>
</trkpt>
<trkpt lat="40.0713751" lon="-105.2297889">
  <ele>1583.02</ele>
  <time>2026-08-28T17:48:27Z</time>
  <course>247.09</course>
  <speed>0.022360679774997897</speed>
  <fix>3d</fix>
</trkpt>
<trkpt lat="40.0713749" lon="-105.229789">
  <ele>1583.0</ele>
  <time>2026-08-28T17:48:27Z</time>
  <course>0.0</course>
  <speed>0.0</speed>
  <fix>3d</fix>
</trkpt>
<trkpt lat="40.0713751" lon="-105.2297889">
  <ele>1583.02</ele>
  <time>2026-08-28T17:48:27Z</time>
  <course>247.09</course>
  <speed>0.022360679774997897</speed>
  <fix>3d</fix>
</trkpt>
<trkpt lat="40.0713749" lon="-105.229789">
  <ele>1583.0</ele>
  <time>2026-08-28T17:48:27Z</time>
  <course>0.0</course>
  <speed>0.0</speed>
  <fix>3d</fix>
</trkpt>
<trkpt lat="40.0713751" lon="-105.2297889">
  <ele>1583.03</ele>
  <time>2026-08-28T17:48:27Z</time>
  <course>247.09</course>
  <speed>0.022360679774997897</speed>
  <fix>3d</fix>
</trkpt>
<trkpt lat="40.0713749" lon="-105.229789">
  <ele>1583.0</ele>
  <time>2026-08-28T17:48:27Z</time>
  <course>0.0</course>
  <speed>0.0</speed>
  <fix>3d</fix>
</trkpt>
<trkpt lat="40.0713751" lon="-105.2297889">
  <ele>1583.03</ele>
  <time>2026-08-28T17:48:27Z</time>
  <course>247.09</course>
  <speed>0.022360679774997897</speed>
  <fix>3d</fix>
</trkpt>
<trkpt lat="40.0713749" lon="-105.229789">
  <ele>1583.0</ele>
  <time>2026-08-28T17:48:27Z</time>
  <course>0.0</course>
  <speed>0.0</speed>
  <fix>3d</fix>
</trkpt>
<trkpt lat="40.0713751" lon="-105.2297889">
  <ele>1583.04</ele>
  <time>2026-08-28T17:48:27Z</time>
  <course>247.09</course>
  <speed>0.022360679774997897</speed>
  <fix>3d</fix>
</trkpt>
<trkpt lat="40.0713749" lon="-105.229789">
  <ele>1583.0</ele>
  <time>2026-08-28T17:48:27Z</time>
  <course>0.0</course>
  <speed>0.0</speed>
  <fix>3d</fix>
</trkpt>
<trkpt lat="40.0713751" lon="-105.2297889">
  <ele>1583.04</ele>
  <time>2026-08-28T17:48:27Z</time>
  <course>247.09</course>
  <speed>0.022360679774997897</speed>
  <fix>3d</fix>
</trkpt>
<trkpt lat="40.0713749" lon="-105.229789">
  <ele>1583.0</ele>
  <time>2026-08-28T17:48:27Z</time>
  <course>0.0</course>
  <speed>0.0</speed>
  <fix>3d</fix>
</trkpt>
<trkpt lat="40.071375" lon="-105.2297889">
  <ele>1583.04</ele>
  <time>2026-08-28T17:48:27Z</time>
  <course>247.09</course>
  <speed>0.022360679774997897</speed>
  <fix>3d</fix>
</trkpt>
<trkpt lat="40.0713749" lon="-105.229789">
  <ele>1583.0</ele>
  <time>2026-08-28T17:48:27Z</time>
  <course>0.0</course>
  <speed>0.0</speed>
  <fix>3d</fix>
</trkpt>
<trkpt lat="40.0713751" lon="-105.2297889">
  <ele>1583.04</ele>
  <time>2026-08-28T17:48:27Z</time>
  <course>247.09</course>
  <speed>0.022360679774997897</speed>
  <fix>3d</fix>
</trkpt>
<trkpt lat="40.0713749" lon="-105.229789">
  <ele>1583.0</ele>
  <time>2026-08-28T17:48:27Z</time>
  <course>0.0</course>
  <speed>0.0</speed>
  <fix>3d</fix>
</trkpt>
<trkpt lat="40.071375" lon="-105.2297889">
  <ele>1583.04</ele>
  <time>2026-08-28T17:48:27Z</time>
  <course>247.09</course>
  <speed>0.022360679774997897</speed>
  <fix>3d</fix>
</trkpt>
<trkpt lat="40.0713749" lon="-105.229789">
  <ele>1583.0</ele>
  <time>2026-08-28T17:48:27Z</time>
  <course>0.0</course>
  <speed>0.0</speed>
  <fix>3d</fix>
</trkpt>
<trkpt lat="40.071375" lon="-105.2297889">
  <ele>1583.04</ele>
  <time>2026-08-28T17:48:27Z</time>
  <course>247.09</course>
  <speed>0.022360679774997897</speed>
  <fix>3d</fix>
</trkpt>
<trkpt lat="40.0713749" lon="-105.229789">
  <ele>1583.0</ele>
  <time>2026-08-28T17:48:27Z</time>
  <course>0.0</course>
  <speed>0.0</speed>
  <fix>3d</fix>
</trkpt>
<trkpt lat="40.071375" lon="-105.2297889">
  <ele>1583.04</ele>
  <time>2026-08-28T17:48:27Z</time>
  <course>247.09</course>
  <speed>0.022360679774997897</speed>
  <fix>3d</fix>
</trkpt>
<trkpt lat="40.0713749" lon="-105.229789">
  <ele>1583.0</ele>
  <time>2026-08-28T17:48:27Z</time>
  <course>0.0</course>
  <speed>0.0</speed>
  <fix>3d</fix>
</trkpt>
<trkpt lat="40.071375" lon="-105.2297889">
  <ele>1583.04</ele>
  <time>2026-08-28T17:48:27Z</time>
  <course>247.09</course>
  <speed>0.022360679774997897</speed>
  <fix>3d</fix>
</trkpt>
<trkpt lat="40.0713749" lon="-105.229789">
  <ele>1583.0</ele>
  <time>2026-08-28T17:48:27Z</time>
  <course>0.0</course>
  <speed>0.0</speed>
  <fix>3d</fix>
</trkpt>
<trkpt lat="40.071375" lon="-105.2297889">
  <ele>1583.04</ele>
  <time>2026-08-28T17:48:27Z</time>
  <course>247.09</course>
  <speed>0.022360679774997897</speed>
  <fix>3d</fix>
</trkpt>
<trkpt lat="40.0713749" lon="-105.229789">
  <ele>1583.0</ele>
  <time>2026-08-28T17:48:27Z</time>
  <course>0.0</course>
  <speed>0.0</speed>
  <fix>3d</fix>
</trkpt>
<trkpt lat="40.071375" lon="-105.2297889">
  <ele>1583.03</ele>
  <time>2026-08-28T17:48:27Z</time>
  <course>247.09</course>
  <speed>0.022360679774997897</speed>
  <fix>3d</fix>
</trkpt>
<trkpt lat="40.0713749" lon="-105.229789">
  <ele>1583.0</ele>
  <time>2026-08-28T17:48:27Z</time>
  <course>0.0</course>
  <speed>0.0</speed>
  <fix>3d</fix>
</trkpt>
<trkpt lat="40.071375" lon="-105.2297889">
  <ele>1583.03</ele>
  <time>2026-08-28T17:48:27Z</time>
  <course>247.09</course>
  <speed>0.022360679774997897</speed>
  <fix>3d</fix>
</trkpt>
<trkpt lat="40.0713749" lon="-105.229789">
  <ele>1583.0</ele>
  <time>2026-08-28T17:48:27Z</time>
  <course>0.0</course>
  <speed>0.0</speed>
  <fix>3d</fix>
</trkpt>
<trkpt lat="40.071375" lon="-105.2297889">
  <ele>1583.03</ele>
  <time>2026-08-28T17:48:27Z</time>
  <course>247.09</course>
  <speed>0.022360679774997897</speed>
  <fix>3d</fix>
</trkpt>
<trkpt lat="40.0713749" lon="-105.229789">
  <ele>1583.0</ele>
  <time>2026-08-28T17:48:27Z</time>
  <course>0.0</course>
  <speed>0.0</speed>
  <fix>3d</fix>
</trkpt>
<trkpt lat="40.071375" lon="-105.2297889">
  <ele>1583.03</ele>
  <time>2026-08-28T17:48:27Z</time>
  <course>247.09</course>
  <speed>0.022360679774997897</speed>
  <fix>3d</fix>
</trkpt>
<trkpt lat="40.0713749" lon="-105.229789">
  <ele>1583.0</ele>
  <time>2026-08-28T17:48:27Z</time>
  <course>0.0</course>
  <speed>0.0</speed>
  <fix>3d</fix>
</trkpt>
<trkpt lat="40.071375" lon="-105.2297889">
  <ele>1583.03</ele>
  <time>2026-08-28T17:48:27Z</time>
  <course>247.09</course>
  <speed>0.022360679774997897</speed>
  <fix>3d</fix>
</trkpt>
<trkpt lat="40.0713749" lon="-105.229789">
  <ele>1583.0</ele>
  <time>2026-08-28T17:48:27Z</time>
  <course>0.0</course>
  <speed>0.0</speed>
  <fix>3d</fix>
</trkpt>
<trkpt lat="40.071375" lon="-105.2297889">
  <ele>1583.03</ele>
  <time>2026-08-28T17:48:27Z</time>
  <course>247.09</course>
  <speed>0.022360679774997897</speed>
  <fix>3d</fix>
</trkpt>
<trkpt lat="40.0713749" lon="-105.229789">
  <ele>1583.0</ele>
  <time>2026-08-28T17:48:27Z</time>
  <course>0.0</course>
  <speed>0.0</speed>
  <fix>3d</fix>
</trkpt>
<trkpt lat="40.0713751" lon="-105.2297889">
  <ele>1583.03</ele>
  <time>2026-08-28T17:48:27Z</time>
  <course>247.09</course>
  <speed>0.022360679774997897</speed>
  <fix>3d</fix>
</trkpt>
<trkpt lat="40.0713749" lon="-105.229789">
  <ele>1583.0</ele>
  <time>2026-08-28T17:48:27Z</time>
  <course>0.0</course>
  <speed>0.0</speed>
  <fix>3d</fix>
</trkpt>
<trkpt lat="40.071375" lon="-105.2297889">
  <ele>1583.03</ele>
  <time>2026-08-28T17:48:27Z</time>
  <course>247.09</course>
  <speed>0.022360679774997897</speed>
  <fix>3d</fix>
</trkpt>
<trkpt lat="40.0713749" lon="-105.229789">
  <ele>1583.0</ele>
  <time>2026-08-28T17:48:27Z</time>
  <course>0.0</course>
  <speed>0.0</speed>
  <fix>3d</fix>
</trkpt>
<trkpt lat="40.0713751" lon="-105.2297889">
  <ele>1583.03</ele>
  <time>2026-08-28T17:48:27Z</time>
  <course>247.09</course>
  <speed>0.022360679774997897</speed>
  <fix>3d</fix>
</trkpt>
<trkpt lat="40.0713749" lon="-105.229789">
  <ele>1583.0</ele>
  <time>2026-08-28T17:48:27Z</time>
  <course>0.0</course>
  <speed>0.0</speed>
  <fix>3d</fix>
</trkpt>
<trkpt lat="40.071375" lon="-105.2297889">
  <ele>1583.03</ele>
  <time>2026-08-28T17:48:27Z</time>
  <course>247.09</course>
  <speed>0.022360679774997897</speed>
  <fix>3d</fix>
</trkpt>
<trkpt lat="40.0713749" lon="-105.229789">
  <ele>1583.0</ele>
  <time>2026-08-28T17:48:27Z</time>
  <course>0.0</course>
  <speed>0.0</speed>
  <fix>3d</fix>
</trkpt>
<trkpt lat="40.0713751" lon="-105.2297889">
  <ele>1583.03</ele>
  <time>2026-08-28T17:48:27Z</time>
  <course>247.09</course>
  <speed>0.022360679774997897</speed>
  <fix>3d</fix>
</trkpt>
<trkpt lat="40.0713749" lon="-105.229789">
  <ele>1583.0</ele>
  <time>2026-08-28T17:48:27Z</time>
  <course>0.0</course>
  <speed>0.0</speed>
  <fix>3d</fix>
</trkpt>
<trkpt lat="40.071375" lon="-105.2297889">
  <ele>1583.03</ele>
  <time>2026-08-28T17:48:27Z</time>
  <course>247.09</course>
  <speed>0.022360679774997897</speed>
  <fix>3d</fix>
</trkpt>
<trkpt lat="40.0713749" lon="-105.229789">
  <ele>1583.0</ele>
  <time>2026-08-28T17:48:27Z</time>
  <course>0.0</course>
  <speed>0.0</speed>
  <fix>3d</fix>
</trkpt>
<trkpt lat="40.0713751" lon="-105.2297889">
  <ele>1583.03</ele>
  <time>2026-08-28T17:48:27Z</time>
  <course>247.09</course>
  <speed>0.022360679774997897</speed>
  <fix>3d</fix>
</trkpt>
<trkpt lat="40.0713749" lon="-105.229789">
  <ele>1583.0</ele>
  <time>2026-08-28T17:48:27Z</time>
  <course>0.0</course>
  <speed>0.0</speed>
  <fix>3d</fix>
</trkpt>
<trkpt lat="40.071375" lon="-105.2297889">
  <ele>1583.03</ele>
  <time>2026-08-28T17:48:27Z</time>
  <course>247.09</course>
  <speed>0.022360679774997897</speed>
  <fix>3d</fix>
</trkpt>
<trkpt lat="40.0713749" lon="-105.229789">
  <ele>1583.0</ele>
  <time>2026-08-28T17:48:27Z</time>
  <course>0.0</course>
  <speed>0.0</speed>
  <fix>3d</fix>
</trkpt>
<trkpt lat="40.071375" lon="-105.2297889">
  <ele>1583.03</ele>
  <time>2026-08-28T17:48:27Z</time>
  <course>247.09</course>
  <speed>0.022360679774997897</speed>
  <fix>3d</fix>
</trkpt>
<trkpt lat="40.0713749" lon="-105.229789">
  <ele>1583.0</ele>
  <time>2026-08-28T17:48:27Z</time>
  <course>0.0</course>
  <speed>0.0</speed>
  <fix>3d</fix>
</trkpt>
<trkpt lat="40.071375" lon="-105.2297889">
  <ele>1583.03</ele>
  <time>2026-08-28T17:48:27Z</time>
  <course>247.09</course>
  <speed>0.022360679774997897</speed>
  <fix>3d</fix>
</trkpt>
<trkpt lat="40.0713749" lon="-105.229789">
  <ele>1583.0</ele>
  <time>2026-08-28T17:48:27Z</time>
  <course>0.0</course>
  <speed>0.0</speed>
  <fix>3d</fix>
</trkpt>
<trkpt lat="40.071375" lon="-105.2297889">
  <ele>1583.03</ele>
  <time>2026-08-28T17:48:27Z</time>
  <course>247.09</course>
  <speed>0.022360679774997897</speed>
  <fix>3d</fix>
</trkpt>
<trkpt lat="40.0713749" lon="-105.229789">
  <ele>1583.0</ele>
  <time>2026-08-28T17:48:27Z</time>
  <course>0.0</course>
  <speed>0.0</speed>
  <fix>3d</fix>
</trkpt>
<trkpt lat="40.071375" lon="-105.2297889">
  <ele>1583.03</ele>
  <time>2026-08-28T17:48:27Z</time>
  <course>247.09</course>
  <speed>0.022360679774997897</speed>
  <fix>3d</fix>
</trkpt>
<trkpt lat="40.0713749" lon="-105.229789">
  <ele>1583.0</ele>
  <time>2026-08-28T17:48:27Z</time>
  <course>0.0</course>
  <speed>0.0</speed>
  <fix>3d</fix>
</trkpt>
<trkpt lat="40.071375" lon="-105.2297889">
  <ele>1583.04</ele>
  <time>2026-08-28T17:48:27Z</time>
  <course>247.09</course>
  <speed>0.022360679774997897</speed>
  <fix>3d</fix>
</trkpt>
<trkpt lat="40.0713749" lon="-105.229789">
  <ele>1583.0</ele>
  <time>2026-08-28T17:48:27Z</time>
  <course>0.0</course>
  <speed>0.0</speed>
  <fix>3d</fix>
</trkpt>
<trkpt lat="40.071375" lon="-105.2297889">
  <ele>1583.04</ele>
  <time>2026-08-28T17:48:27Z</time>
  <course>247.09</course>
  <speed>0.022360679774997897</speed>
  <fix>3d</fix>
</trkpt>
<trkpt lat="40.0713749" lon="-105.229789">
  <ele>1583.0</ele>
  <time>2026-08-28T17:48:27Z</time>
  <course>0.0</course>
  <speed>0.0</speed>
  <fix>3d</fix>
</trkpt>
<trkpt lat="40.071375" lon="-105.2297889">
  <ele>1583.04</ele>
  <time>2026-08-28T17:48:27Z</time>
  <course>247.09</course>
  <speed>0.022360679774997897</speed>
  <fix>3d</fix>
</trkpt>
<trkpt lat="40.0713749" lon="-105.229789">
  <ele>1583.0</ele>
  <time>2026-08-28T17:48:27Z</time>
  <course>0.0</course>
  <speed>0.0</speed>
  <fix>3d</fix>
</trkpt>
<trkpt lat="40.071375" lon="-105.2297889">
  <ele>1583.05</ele>
  <time>2026-08-28T17:48:27Z</time>
  <course>247.09</course>
  <speed>0.022360679774997897</speed>
  <fix>3d</fix>
</trkpt>
<trkpt lat="40.0713749" lon="-105.229789">
  <ele>1583.0</ele>
  <time>2026-08-28T17:48:27Z</time>
  <course>0.0</course>
  <speed>0.0</speed>
  <fix>3d</fix>
</trkpt>
<trkpt lat="40.071375" lon="-105.2297889">
  <ele>1583.05</ele>
  <time>2026-08-28T17:48:27Z</time>
  <course>247.09</course>
  <speed>0.022360679774997897</speed>
  <fix>3d</fix>
</trkpt>
<trkpt lat="40.0713749" lon="-105.229789">
  <ele>1583.0</ele>
  <time>2026-08-28T17:48:27Z</time>
  <course>0.0</course>
  <speed>0.0</speed>
  <fix>3d</fix>
</trkpt>
<trkpt lat="40.071375" lon="-105.2297889">
  <ele>1583.05</ele>
  <time>2026-08-28T17:48:27Z</time>
  <course>247.09</course>
  <speed>0.022360679774997897</speed>
  <fix>3d</fix>
</trkpt>
<trkpt lat="40.0713749" lon="-105.229789">
  <ele>1583.0</ele>
  <time>2026-08-28T17:48:27Z</time>
  <course>0.0</course>
  <speed>0.0</speed>
  <fix>3d</fix>
</trkpt>
<trkpt lat="40.071375" lon="-105.2297889">
  <ele>1583.05</ele>
  <time>2026-08-28T17:48:27Z</time>
  <course>247.09</course>
  <speed>0.022360679774997897</speed>
  <fix>3d</fix>
</trkpt>
<trkpt lat="40.0713749" lon="-105.229789">
  <ele>1583.0</ele>
  <time>2026-08-28T17:48:27Z</time>
  <course>0.0</course>
  <speed>0.0</speed>
  <fix>3d</fix>
</trkpt>
<trkpt lat="40.071375" lon="-105.2297889">
  <ele>1583.05</ele>
  <time>2026-08-28T17:48:27Z</time>
  <course>247.09</course>
  <speed>0.022360679774997897</speed>
  <fix>3d</fix>
</trkpt>
<trkpt lat="40.0713749" lon="-105.229789">
  <ele>1583.0</ele>
  <time>2026-08-28T17:48:27Z</time>
  <course>0.0</course>
  <speed>0.0</speed>
  <fix>3d</fix>
</trkpt>
<trkpt lat="40.0713751" lon="-105.2297889">
  <ele>1583.05</ele>
  <time>2026-08-28T17:48:27Z</time>
  <course>247.09</course>
  <speed>0.022360679774997897</speed>
  <fix>3d</fix>
</trkpt>
<trkpt lat="40.0713749" lon="-105.229789">
  <ele>1583.0</ele>
  <time>2026-08-28T17:48:27Z</time>
  <course>0.0</course>
  <speed>0.0</speed>
  <fix>3d</fix>
</trkpt>
<trkpt lat="40.071375" lon="-105.2297889">
  <ele>1583.05</ele>
  <time>2026-08-28T17:48:27Z</time>
  <course>247.09</course>
  <speed>0.022360679774997897</speed>
  <fix>3d</fix>
</trkpt>
<trkpt lat="40.0713749" lon="-105.229789">
  <ele>1583.0</ele>
  <time>2026-08-28T17:48:27Z</time>
  <course>0.0</course>
  <speed>0.0</speed>
  <fix>3d</fix>
</trkpt>
<trkpt lat="40.0713751" lon="-105.2297889">
  <ele>1583.04</ele>
  <time>2026-08-28T17:48:27Z</time>
  <course>247.09</course>
  <speed>0.022360679774997897</speed>
  <fix>3d</fix>
</trkpt>
<trkpt lat="40.0713749" lon="-105.229789">
  <ele>1583.0</ele>
  <time>2026-08-28T17:48:27Z</time>
  <course>0.0</course>
  <speed>0.0</speed>
  <fix>3d</fix>
</trkpt>
<trkpt lat="40.071375" lon="-105.2297889">
  <ele>1583.04</ele>
  <time>2026-08-28T17:48:27Z</time>
  <course>247.09</course>
  <speed>0.022360679774997897</speed>
  <fix>3d</fix>
</trkpt>
<trkpt lat="40.0713749" lon="-105.229789">
  <ele>1583.0</ele>
  <time>2026-08-28T17:48:27Z</time>
  <course>0.0</course>
  <speed>0.0</speed>
  <fix>3d</fix>
</trkpt>
<trkpt lat="40.0713751" lon="-105.2297889">
  <ele>1583.04</ele>
  <time>2026-08-28T17:48:27Z</time>
  <course>247.09</course>
  <speed>0.022360679774997897</speed>
  <fix>3d</fix>
</trkpt>
<trkpt lat="40.0713749" lon="-105.229789">
  <ele>1583.0</ele>
  <time>2026-08-28T17:48:27Z</time>
  <course>0.0</course>
  <speed>0.0</speed>
  <fix>3d</fix>
</trkpt>
<trkpt lat="40.071375" lon="-105.2297889">
  <ele>1583.03</ele>
  <time>2026-08-28T17:48:27Z</time>
  <course>247.09</course>
  <speed>0.022360679774997897</speed>
  <fix>3d</fix>
</trkpt>
<trkpt lat="40.0713749" lon="-105.229789">
  <ele>1583.0</ele>
  <time>2026-08-28T17:48:27Z</time>
  <course>0.0</course>
  <speed>0.0</speed>
  <fix>3d</fix>
</trkpt>
<trkpt lat="40.0713751" lon="-105.2297889">
  <ele>1583.03</ele>
  <time>2026-08-28T17:48:27Z</time>
  <course>247.09</course>
  <speed>0.022360679774997897</speed>
  <fix>3d</fix>
</trkpt>
<trkpt lat="40.0713749" lon="-105.229789">
  <ele>1583.0</ele>
  <time>2026-08-28T17:48:27Z</time>
  <course>0.0</course>
  <speed>0.0</speed>
  <fix>3d</fix>
</trkpt>
<trkpt lat="40.071375" lon="-105.2297889">
  <ele>1583.03</ele>
  <time>2026-08-28T17:48:27Z</time>
  <course>247.09</course>
  <speed>0.022360679774997897</speed>
  <fix>3d</fix>
</trkpt>
<trkpt lat="40.0713749" lon="-105.229789">
  <ele>1583.0</ele>
  <time>2026-08-28T17:48:27Z</time>
  <course>0.0</course>
  <speed>0.0</speed>
  <fix>3d</fix>
</trkpt>
<trkpt lat="40.0713751" lon="-105.2297889">
  <ele>1583.02</ele>
  <time>2026-08-28T17:48:27Z</time>
  <course>247.09</course>
  <speed>0.022360679774997897</speed>
  <fix>3d</fix>
</trkpt>
<trkpt lat="40.0713749" lon="-105.229789">
  <ele>1583.0</ele>
  <time>2026-08-28T17:48:27Z</time>
  <course>0.0</course>
  <speed>0.0</speed>
  <fix>3d</fix>
</trkpt>
<trkpt lat="40.071375" lon="-105.2297889">
  <ele>1583.02</ele>
  <time>2026-08-28T17:48:27Z</time>
  <course>247.09</course>
  <speed>0.02</speed>
  <fix>3d</fix>
</trkpt>
<trkpt lat="40.0713749" lon="-105.229789">
  <ele>1583.0</ele>
  <time>2026-08-28T17:48:27Z</time>
  <course>0.0</course>
  <speed>0.0</speed>
  <fix>3d</fix>
</trkpt>
<trkpt lat="40.071375" lon="-105.2297889">
  <ele>1583.01</ele>
  <time>2026-08-28T17:48:27Z</time>
  <course>247.09</course>
  <speed>0.022360679774997897</speed>
  <fix>3d</fix>
</trkpt>
<trkpt lat="40.0713749" lon="-105.229789">
  <ele>1583.0</ele>
  <time>2026-08-28T17:48:27Z</time>
  <course>0.0</course>
  <speed>0.0</speed>
  <fix>3d</fix>
</trkpt>
<trkpt lat="40.071375" lon="-105.2297889">
  <ele>1583.01</ele>
  <time>2026-08-28T17:48:27Z</time>
  <course>247.09</course>
  <speed>0.02</speed>
  <fix>3d</fix>
</trkpt>
<trkpt lat="40.0713749" lon="-105.229789">
  <ele>1583.0</ele>
  <time>2026-08-28T17:48:27Z</time>
  <course>0.0</course>
  <speed>0.0</speed>
  <fix>3d</fix>
</trkpt>
<trkpt lat="40.071375" lon="-105.2297889">
  <ele>1583.01</ele>
  <time>2026-08-28T17:48:27Z</time>
  <course>247.09</course>
  <speed>0.022360679774997897</speed>
  <fix>3d</fix>
</trkpt>
<trkpt lat="40.0713749" lon="-105.229789">
  <ele>1583.0</ele>
  <time>2026-08-28T17:48:27Z</time>
  <course>0.0</course>
  <speed>0.0</speed>
  <fix>3d</fix>
</trkpt>
<trkpt lat="40.071375" lon="-105.2297889">
  <ele>1583.01</ele>
  <time>2026-08-28T17:48:27Z</time>
  <course>247.09</course>
  <speed>0.02</speed>
  <fix>3d</fix>
</trkpt>
<trkpt lat="40.0713749" lon="-105.229789">
  <ele>1583.0</ele>
  <time>2026-08-28T17:48:27Z</time>
  <course>0.0</course>
  <speed>0.0</speed>
  <fix>3d</fix>
</trkpt>
<trkpt lat="40.071375" lon="-105.2297889">
  <ele>1583.02</ele>
  <time>2026-08-28T17:48:27Z</time>
  <course>247.09</course>
  <speed>0.022360679774997897</speed>
  <fix>3d</fix>
</trkpt>
<trkpt lat="40.0713749" lon="-105.229789">
  <ele>1583.0</ele>
  <time>2026-08-28T17:48:27Z</time>
  <course>0.0</course>
  <speed>0.0</speed>
  <fix>3d</fix>
</trkpt>
<trkpt lat="40.071375" lon="-105.2297889">
  <ele>1583.02</ele>
  <time>2026-08-28T17:48:27Z</time>
  <course>247.09</course>
  <speed>0.02</speed>
  <fix>3d</fix>
</trkpt>
<trkpt lat="40.0713749" lon="-105.229789">
  <ele>1583.0</ele>
  <time>2026-08-28T17:48:27Z</time>
  <course>0.0</course>
  <speed>0.0</speed>
  <fix>3d</fix>
</trkpt>
<trkpt lat="40.071375" lon="-105.2297889">
  <ele>1583.03</ele>
  <time>2026-08-28T17:48:27Z</time>
  <course>247.09</course>
  <speed>0.02</speed>
  <fix>3d</fix>
</trkpt>
<trkpt lat="40.0713749" lon="-105.229789">
  <ele>1583.0</ele>
  <time>2026-08-28T17:48:27Z</time>
  <course>0.0</course>
  <speed>0.0</speed>
  <fix>3d</fix>
</trkpt>
<trkpt lat="40.071375" lon="-105.2297889">
  <ele>1583.04</ele>
  <time>2026-08-28T17:48:27Z</time>
  <course>247.09</course>
  <speed>0.02</speed>
  <fix>3d</fix>
</trkpt>
<trkpt lat="40.0713749" lon="-105.229789">
  <ele>1583.0</ele>
  <time>2026-08-28T17:48:27Z</time>
  <course>0.0</course>
  <speed>0.0</speed>
  <fix>3d</fix>
</trkpt>
<trkpt lat="40.071375" lon="-105.2297889">
  <ele>1583.04</ele>
  <time>2026-08-28T17:48:27Z</time>
  <course>247.09</course>
  <speed>0.022360679774997897</speed>
  <fix>3d</fix>
</trkpt>
<trkpt lat="40.0713749" lon="-105.229789">
  <ele>1583.0</ele>
  <time>2026-08-28T17:48:27Z</time>
  <course>0.0</course>
  <speed>0.0</speed>
  <fix>3d</fix>
</trkpt>
<trkpt lat="40.071375" lon="-105.2297889">
  <ele>1583.05</ele>
  <time>2026-08-28T17:48:27Z</time>
  <course>247.09</course>
  <speed>0.02</speed>
  <fix>3d</fix>
</trkpt>
<trkpt lat="40.0713749" lon="-105.229789">
  <ele>1583.0</ele>
  <time>2026-08-28T17:48:27Z</time>
  <course>0.0</course>
  <speed>0.0</speed>
  <fix>3d</fix>
</trkpt>
<trkpt lat="40.0713751" lon="-105.2297889">
  <ele>1583.05</ele>
  <time>2026-08-28T17:48:27Z</time>
  <course>247.09</course>
  <speed>0.022360679774997897</speed>
  <fix>3d</fix>
</trkpt>
<trkpt lat="40.0713749" lon="-105.229789">
  <ele>1583.0</ele>
  <time>2026-08-28T17:48:27Z</time>
  <course>0.0</course>
  <speed>0.0</speed>
  <fix>3d</fix>
</trkpt>
<trkpt lat="40.071375" lon="-105.2297889">
  <ele>1583.05</ele>
  <time>2026-08-28T17:48:27Z</time>
  <course>247.09</course>
  <speed>0.022360679774997897</speed>
  <fix>3d</fix>
</trkpt>
<trkpt lat="40.0713749" lon="-105.229789">
  <ele>1583.0</ele>
  <time>2026-08-28T17:48:27Z</time>
  <course>0.0</course>
  <speed>0.0</speed>
  <fix>3d</fix>
</trkpt>
<trkpt lat="40.0713751" lon="-105.2297889">
  <ele>1583.05</ele>
  <time>2026-08-28T17:48:27Z</time>
  <course>247.09</course>
  <speed>0.022360679774997897</speed>
  <fix>3d</fix>
</trkpt>
<trkpt lat="40.0713749" lon="-105.229789">
  <ele>1583.0</ele>
  <time>2026-08-28T17:48:27Z</time>
  <course>0.0</course>
  <speed>0.0</speed>
  <fix>3d</fix>
</trkpt>
<trkpt lat="40.0713751" lon="-105.2297889">
  <ele>1583.06</ele>
  <time>2026-08-28T17:48:27Z</time>
  <course>247.09</course>
  <speed>0.022360679774997897</speed>
  <fix>3d</fix>
</trkpt>
<trkpt lat="40.0713749" lon="-105.229789">
  <ele>1583.0</ele>
  <time>2026-08-28T17:48:27Z</time>
  <course>0.0</course>
  <speed>0.0</speed>
  <fix>3d</fix>
</trkpt>
<trkpt lat="40.0713751" lon="-105.2297889">
  <ele>1583.06</ele>
  <time>2026-08-28T17:48:27Z</time>
  <course>247.09</course>
  <speed>0.022360679774997897</speed>
  <fix>3d</fix>
</trkpt>
<trkpt lat="40.0713749" lon="-105.229789">
  <ele>1583.0</ele>
  <time>2026-08-28T17:48:27Z</time>
  <course>0.0</course>
  <speed>0.0</speed>
  <fix>3d</fix>
</trkpt>
<trkpt lat="40.0713751" lon="-105.2297889">
  <ele>1583.07</ele>
  <time>2026-08-28T17:48:27Z</time>
  <course>247.09</course>
  <speed>0.022360679774997897</speed>
  <fix>3d</fix>
</trkpt>
<trkpt lat="40.0713749" lon="-105.229789">
  <ele>1583.0</ele>
  <time>2026-08-28T17:48:27Z</time>
  <course>0.0</course>
  <speed>0.0</speed>
  <fix>3d</fix>
</trkpt>
<trkpt lat="40.0713751" lon="-105.2297889">
  <ele>1583.07</ele>
  <time>2026-08-28T17:48:27Z</time>
  <course>247.09</course>
  <speed>0.022360679774997897</speed>
  <fix>3d</fix>
</trkpt>
<trkpt lat="40.0713749" lon="-105.229789">
  <ele>1583.0</ele>
  <time>2026-08-28T17:48:27Z</time>
  <course>0.0</course>
  <speed>0.0</speed>
  <fix>3d</fix>
</trkpt>
<trkpt lat="40.071375" lon="-105.2297889">
  <ele>1583.08</ele>
  <time>2026-08-28T17:48:27Z</time>
  <course>247.09</course>
  <speed>0.022360679774997897</speed>
  <fix>3d</fix>
</trkpt>
<trkpt lat="40.0713749" lon="-105.229789">
  <ele>1583.0</ele>
  <time>2026-08-28T17:48:27Z</time>
  <course>0.0</course>
  <speed>0.0</speed>
  <fix>3d</fix>
</trkpt>
<trkpt lat="40.0713751" lon="-105.2297889">
  <ele>1583.08</ele>
  <time>2026-08-28T17:48:27Z</time>
  <course>247.09</course>
  <speed>0.022360679774997897</speed>
  <fix>3d</fix>
</trkpt>
<trkpt lat="40.0713749" lon="-105.229789">
  <ele>1583.0</ele>
  <time>2026-08-28T17:48:27Z</time>
  <course>0.0</course>
  <speed>0.0</speed>
  <fix>3d</fix>
</trkpt>
<trkpt lat="40.071375" lon="-105.2297889">
  <ele>1583.08</ele>
  <time>2026-08-28T17:48:27Z</time>
  <course>247.09</course>
  <speed>0.02</speed>
  <fix>3d</fix>
</trkpt>
<trkpt lat="40.0713749" lon="-105.229789">
  <ele>1583.0</ele>
  <time>2026-08-28T17:48:27Z</time>
  <course>0.0</course>
  <speed>0.0</speed>
  <fix>3d</fix>
</trkpt>
<trkpt lat="40.0713751" lon="-105.2297889">
  <ele>1583.08</ele>
  <time>2026-08-28T17:48:27Z</time>
  <course>247.09</course>
  <speed>0.022360679774997897</speed>
  <fix>3d</fix>
</trkpt>
<trkpt lat="40.0713749" lon="-105.229789">
  <ele>1583.0</ele>
  <time>2026-08-28T17:48:27Z</time>
  <course>0.0</course>
  <speed>0.0</speed>
  <fix>3d</fix>
</trkpt>
<trkpt lat="40.071375" lon="-105.2297889">
  <ele>1583.08</ele>
  <time>2026-08-28T17:48:27Z</time>
  <course>247.09</course>
  <speed>0.022360679774997897</speed>
  <fix>3d</fix>
</trkpt>
<trkpt lat="40.0713749" lon="-105.229789">
  <ele>1583.0</ele>
  <time>2026-08-28T17:48:27Z</time>
  <course>0.0</course>
  <speed>0.0</speed>
  <fix>3d</fix>
</trkpt>
<trkpt lat="40.071375" lon="-105.2297889">
  <ele>1583.08</ele>
  <time>2026-08-28T17:48:27Z</time>
  <course>247.09</course>
  <speed>0.022360679774997897</speed>
  <fix>3d</fix>
</trkpt>
<trkpt lat="40.0713749" lon="-105.229789">
  <ele>1583.0</ele>
  <time>2026-08-28T17:48:27Z</time>
  <course>0.0</course>
  <speed>0.0</speed>
  <fix>3d</fix>
</trkpt>
<trkpt lat="40.071375" lon="-105.2297889">
  <ele>1583.08</ele>
  <time>2026-08-28T17:48:27Z</time>
  <course>247.09</course>
  <speed>0.022360679774997897</speed>
  <fix>3d</fix>
</trkpt>
<trkpt lat="40.0713749" lon="-105.229789">
  <ele>1583.0</ele>
  <time>2026-08-28T17:48:27Z</time>
  <course>0.0</course>
  <speed>0.0</speed>
  <fix>3d</fix>
</trkpt>
<trkpt lat="40.0713751" lon="-105.2297889">
  <ele>1583.08</ele>
  <time>2026-08-28T17:48:27Z</time>
  <course>247.09</course>
  <speed>0.022360679774997897</speed>
  <fix>3d</fix>
</trkpt>
<trkpt lat="40.0713749" lon="-105.229789">
  <ele>1583.0</ele>
  <time>2026-08-28T17:48:27Z</time>
  <course>0.0</course>
  <speed>0.0</speed>
  <fix>3d</fix>
</trkpt>
<trkpt lat="40.071375" lon="-105.2297889">
  <ele>1583.08</ele>
  <time>2026-08-28T17:48:27Z</time>
  <course>247.09</course>
  <speed>0.022360679774997897</speed>
  <fix>3d</fix>
</trkpt>
<trkpt lat="40.0713749" lon="-105.229789">
  <ele>1583.0</ele>
  <time>2026-08-28T17:48:27Z</time>
  <course>0.0</course>
  <speed>0.0</speed>
  <fix>3d</fix>
</trkpt>
<trkpt lat="40.0713751" lon="-105.2297889">
  <ele>1583.08</ele>
  <time>2026-08-28T17:48:27Z</time>
  <course>247.09</course>
  <speed>0.022360679774997897</speed>
  <fix>3d</fix>
</trkpt>
<trkpt lat="40.0713749" lon="-105.229789">
  <ele>1583.0</ele>
  <time>2026-08-28T17:48:27Z</time>
  <course>0.0</course>
  <speed>0.0</speed>
  <fix>3d</fix>
</trkpt>
<trkpt lat="40.071375" lon="-105.2297889">
  <ele>1583.08</ele>
  <time>2026-08-28T17:48:27Z</time>
  <course>247.09</course>
  <speed>0.022360679774997897</speed>
  <fix>3d</fix>
</trkpt>
<trkpt lat="40.0713749" lon="-105.229789">
  <ele>1583.0</ele>
  <time>2026-08-28T17:48:27Z</time>
  <course>0.0</course>
  <speed>0.0</speed>
  <fix>3d</fix>
</trkpt>
<trkpt lat="40.071375" lon="-105.2297889">
  <ele>1583.08</ele>
  <time>2026-08-28T17:48:27Z</time>
  <course>247.09</course>
  <speed>0.022360679774997897</speed>
  <fix>3d</fix>
</trkpt>
<trkpt lat="40.0713749" lon="-105.229789">
  <ele>1583.0</ele>
  <time>2026-08-28T17:48:27Z</time>
  <course>0.0</course>
  <speed>0.0</speed>
  <fix>3d</fix>
</trkpt>
<trkpt lat="40.071375" lon="-105.2297889">
  <ele>1583.08</ele>
  <time>2026-08-28T17:48:27Z</time>
  <course>247.09</course>
  <speed>0.022360679774997897</speed>
  <fix>3d</fix>
</trkpt>
<trkpt lat="40.0713749" lon="-105.229789">
  <ele>1583.0</ele>
  <time>2026-08-28T17:48:27Z</time>
  <course>0.0</course>
  <speed>0.0</speed>
  <fix>3d</fix>
</trkpt>
<trkpt lat="40.071375" lon="-105.2297889">
  <ele>1583.08</ele>
  <time>2026-08-28T17:48:27Z</time>
  <course>247.09</course>
  <speed>0.022360679774997897</speed>
  <fix>3d</fix>
</trkpt>
<trkpt lat="40.0713749" lon="-105.229789">
  <ele>1583.0</ele>
  <time>2026-08-28T17:48:27Z</time>
  <course>0.0</course>
  <speed>0.0</speed>
  <fix>3d</fix>
</trkpt>
<trkpt lat="40.071375" lon="-105.2297889">
  <ele>1583.08</ele>
  <time>2026-08-28T17:48:27Z</time>
  <course>247.09</course>
  <speed>0.022360679774997897</speed>
  <fix>3d</fix>
</trkpt>
<trkpt lat="40.0713749" lon="-105.229789">
  <ele>1583.0</ele>
  <time>2026-08-28T17:48:27Z</time>
  <course>0.0</course>
  <speed>0.0</speed>
  <fix>3d</fix>
</trkpt>
<trkpt lat="40.0713751" lon="-105.2297889">
  <ele>1583.08</ele>
  <time>2026-08-28T17:48:27Z</time>
  <course>247.09</course>
  <speed>0.022360679774997897</speed>
  <fix>3d</fix>
</trkpt>
<trkpt lat="40.0713749" lon="-105.229789">
  <ele>1583.0</ele>
  <time>2026-08-28T17:48:27Z</time>
  <course>0.0</course>
  <speed>0.0</speed>
  <fix>3d</fix>
</trkpt>
<trkpt lat="40.071375" lon="-105.2297889">
  <ele>1583.09</ele>
  <time>2026-08-28T17:48:27Z</time>
  <course>247.09</course>
  <speed>0.022360679774997897</speed>
  <fix>3d</fix>
</trkpt>
<trkpt lat="40.0713749" lon="-105.229789">
  <ele>1583.0</ele>
  <time>2026-08-28T17:48:27Z</time>
  <course>0.0</course>
  <speed>0.0</speed>
  <fix>3d</fix>
</trkpt>
<trkpt lat="40.0713751" lon="-105.2297889">
  <ele>1583.09</ele>
  <time>2026-08-28T17:48:27Z</time>
  <course>247.09</course>
  <speed>0.022360679774997897</speed>
  <fix>3d</fix>
</trkpt>
<trkpt lat="40.0713749" lon="-105.229789">
  <ele>1583.0</ele>
  <time>2026-08-28T17:48:27Z</time>
  <course>0.0</course>
  <speed>0.0</speed>
  <fix>3d</fix>
</trkpt>
<trkpt lat="40.0713751" lon="-105.2297889">
  <ele>1583.1</ele>
  <time>2026-08-28T17:48:27Z</time>
  <course>247.09</course>
  <speed>0.022360679774997897</speed>
  <fix>3d</fix>
</trkpt>
<trkpt lat="40.0713749" lon="-105.229789">
  <ele>1583.0</ele>
  <time>2026-08-28T17:48:27Z</time>
  <course>0.0</course>
  <speed>0.0</speed>
  <fix>3d</fix>
</trkpt>
<trkpt lat="40.0713751" lon="-105.2297889">
  <ele>1583.1</ele>
  <time>2026-08-28T17:48:27Z</time>
  <course>247.09</course>
  <speed>0.022360679774997897</speed>
  <fix>3d</fix>
</trkpt>
<trkpt lat="40.0713749" lon="-105.229789">
  <ele>1583.0</ele>
  <time>2026-08-28T17:48:27Z</time>
  <course>0.0</course>
  <speed>0.0</speed>
  <fix>3d</fix>
</trkpt>
<trkpt lat="40.0713751" lon="-105.2297889">
  <ele>1583.1</ele>
  <time>2026-08-28T17:48:27Z</time>
  <course>247.09</course>
  <speed>0.022360679774997897</speed>
  <fix>3d</fix>
</trkpt>
<trkpt lat="40.0713749" lon="-105.229789">
  <ele>1583.0</ele>
  <time>2026-08-28T17:48:27Z</time>
  <course>0.0</course>
  <speed>0.0</speed>
  <fix>3d</fix>
</trkpt>
<trkpt lat="40.0713751" lon="-105.2297889">
  <ele>1583.1</ele>
  <time>2026-08-28T17:48:27Z</time>
  <course>247.09</course>
  <speed>0.022360679774997897</speed>
  <fix>3d</fix>
</trkpt>
<trkpt lat="40.0713749" lon="-105.229789">
  <ele>1583.0</ele>
  <time>2026-08-28T17:48:27Z</time>
  <course>0.0</course>
  <speed>0.0</speed>
  <fix>3d</fix>
</trkpt>
<trkpt lat="40.071375" lon="-105.2297889">
  <ele>1583.1</ele>
  <time>2026-08-28T17:48:27Z</time>
  <course>247.09</course>
  <speed>0.022360679774997897</speed>
  <fix>3d</fix>
</trkpt>
<trkpt lat="40.0713749" lon="-105.229789">
  <ele>1583.0</ele>
  <time>2026-08-28T17:48:27Z</time>
  <course>0.0</course>
  <speed>0.0</speed>
  <fix>3d</fix>
</trkpt>
<trkpt lat="40.0713751" lon="-105.2297889">
  <ele>1583.11</ele>
  <time>2026-08-28T17:48:27Z</time>
  <course>247.09</course>
  <speed>0.022360679774997897</speed>
  <fix>3d</fix>
</trkpt>
<trkpt lat="40.0713749" lon="-105.229789">
  <ele>1583.0</ele>
  <time>2026-08-28T17:48:27Z</time>
  <course>0.0</course>
  <speed>0.0</speed>
  <fix>3d</fix>
</trkpt>
<trkpt lat="40.071375" lon="-105.2297889">
  <ele>1583.11</ele>
  <time>2026-08-28T17:48:27Z</time>
  <course>247.09</course>
  <speed>0.022360679774997897</speed>
  <fix>3d</fix>
</trkpt>
<trkpt lat="40.0713749" lon="-105.229789">
  <ele>1583.0</ele>
  <time>2026-08-28T17:48:27Z</time>
  <course>0.0</course>
  <speed>0.0</speed>
  <fix>3d</fix>
</trkpt>
<trkpt lat="40.0713751" lon="-105.2297889">
  <ele>1583.11</ele>
  <time>2026-08-28T17:48:27Z</time>
  <course>247.09</course>
  <speed>0.022360679774997897</speed>
  <fix>3d</fix>
</trkpt>
<trkpt lat="40.0713749" lon="-105.229789">
  <ele>1583.0</ele>
  <time>2026-08-28T17:48:27Z</time>
  <course>0.0</course>
  <speed>0.0</speed>
  <fix>3d</fix>
</trkpt>
<trkpt lat="40.071375" lon="-105.2297889">
  <ele>1583.12</ele>
  <time>2026-08-28T17:48:27Z</time>
  <course>247.09</course>
  <speed>0.022360679774997897</speed>
  <fix>3d</fix>
</trkpt>
<trkpt lat="40.0713749" lon="-105.229789">
  <ele>1583.0</ele>
  <time>2026-08-28T17:48:27Z</time>
  <course>0.0</course>
  <speed>0.0</speed>
  <fix>3d</fix>
</trkpt>
<trkpt lat="40.0713751" lon="-105.2297889">
  <ele>1583.12</ele>
  <time>2026-08-28T17:48:27Z</time>
  <course>247.09</course>
  <speed>0.022360679774997897</speed>
  <fix>3d</fix>
</trkpt>
<trkpt lat="40.0713749" lon="-105.229789">
  <ele>1583.0</ele>
  <time>2026-08-28T17:48:27Z</time>
  <course>0.0</course>
  <speed>0.0</speed>
  <fix>3d</fix>
</trkpt>
<trkpt lat="40.071375" lon="-105.2297889">
  <ele>1583.13</ele>
  <time>2026-08-28T17:48:27Z</time>
  <course>247.09</course>
  <speed>0.022360679774997897</speed>
  <fix>3d</fix>
</trkpt>
<trkpt lat="40.0713749" lon="-105.229789">
  <ele>1583.0</ele>
  <time>2026-08-28T17:48:27Z</time>
  <course>0.0</course>
  <speed>0.0</speed>
  <fix>3d</fix>
</trkpt>
<trkpt lat="40.0713751" lon="-105.2297889">
  <ele>1583.13</ele>
  <time>2026-08-28T17:48:27Z</time>
  <course>247.09</course>
  <speed>0.022360679774997897</speed>
  <fix>3d</fix>
</trkpt>
<trkpt lat="40.0713749" lon="-105.229789">
  <ele>1583.0</ele>
  <time>2026-08-28T17:48:27Z</time>
  <course>0.0</course>
  <speed>0.0</speed>
  <fix>3d</fix>
</trkpt>
<trkpt lat="40.071375" lon="-105.2297889">
  <ele>1583.13</ele>
  <time>2026-08-28T17:48:27Z</time>
  <course>247.09</course>
  <speed>0.022360679774997897</speed>
  <fix>3d</fix>
</trkpt>
<trkpt lat="40.0713749" lon="-105.229789">
  <ele>1583.0</ele>
  <time>2026-08-28T17:48:27Z</time>
  <course>0.0</course>
  <speed>0.0</speed>
  <fix>3d</fix>
</trkpt>
<trkpt lat="40.0713751" lon="-105.2297889">
  <ele>1583.14</ele>
  <time>2026-08-28T17:48:27Z</time>
  <course>247.09</course>
  <speed>0.022360679774997897</speed>
  <fix>3d</fix>
</trkpt>
<trkpt lat="40.0713749" lon="-105.229789">
  <ele>1583.0</ele>
  <time>2026-08-28T17:48:27Z</time>
  <course>0.0</course>
  <speed>0.0</speed>
  <fix>3d</fix>
</trkpt>
<trkpt lat="40.071375" lon="-105.2297889">
  <ele>1583.14</ele>
  <time>2026-08-28T17:48:27Z</time>
  <course>247.09</course>
  <speed>0.022360679774997897</speed>
  <fix>3d</fix>
</trkpt>
<trkpt lat="40.0713749" lon="-105.229789">
  <ele>1583.0</ele>
  <time>2026-08-28T17:48:27Z</time>
  <course>0.0</course>
  <speed>0.0</speed>
  <fix>3d</fix>
</trkpt>
<trkpt lat="40.0713751" lon="-105.2297889">
  <ele>1583.14</ele>
  <time>2026-08-28T17:48:27Z</time>
  <course>247.09</course>
  <speed>0.022360679774997897</speed>
  <fix>3d</fix>
</trkpt>
<trkpt lat="40.0713749" lon="-105.229789">
  <ele>1583.0</ele>
  <time>2026-08-28T17:48:27Z</time>
  <course>0.0</course>
  <speed>0.0</speed>
  <fix>3d</fix>
</trkpt>
<trkpt lat="40.071375" lon="-105.2297889">
  <ele>1583.14</ele>
  <time>2026-08-28T17:48:27Z</time>
  <course>247.09</course>
  <speed>0.022360679774997897</speed>
  <fix>3d</fix>
</trkpt>
<trkpt lat="40.0713749" lon="-105.229789">
  <ele>1583.0</ele>
  <time>2026-08-28T17:48:27Z</time>
  <course>0.0</course>
  <speed>0.0</speed>
  <fix>3d</fix>
</trkpt>
<trkpt lat="40.0713751" lon="-105.2297889">
  <ele>1583.13</ele>
  <time>2026-08-28T17:48:27Z</time>
  <course>247.09</course>
  <speed>0.022360679774997897</speed>
  <fix>3d</fix>
</trkpt>
<trkpt lat="40.0713749" lon="-105.229789">
  <ele>1583.0</ele>
  <time>2026-08-28T17:48:27Z</time>
  <course>0.0</course>
  <speed>0.0</speed>
  <fix>3d</fix>
</trkpt>
<trkpt lat="40.0713751" lon="-105.2297889">
  <ele>1583.13</ele>
  <time>2026-08-28T17:48:27Z</time>
  <course>247.09</course>
  <speed>0.022360679774997897</speed>
  <fix>3d</fix>
</trkpt>
<trkpt lat="40.0713749" lon="-105.229789">
  <ele>1583.0</ele>
  <time>2026-08-28T17:48:27Z</time>
  <course>0.0</course>
  <speed>0.0</speed>
  <fix>3d</fix>
</trkpt>
<trkpt lat="40.0713751" lon="-105.2297889">
  <ele>1583.13</ele>
  <time>2026-08-28T17:48:27Z</time>
  <course>247.09</course>
  <speed>0.022360679774997897</speed>
  <fix>3d</fix>
</trkpt>
<trkpt lat="40.0713749" lon="-105.229789">
  <ele>1583.0</ele>
  <time>2026-08-28T17:48:27Z</time>
  <course>0.0</course>
  <speed>0.0</speed>
  <fix>3d</fix>
</trkpt>
<trkpt lat="40.0713751" lon="-105.2297889">
  <ele>1583.12</ele>
  <time>2026-08-28T17:48:27Z</time>
  <course>247.09</course>
  <speed>0.022360679774997897</speed>
  <fix>3d</fix>
</trkpt>
<trkpt lat="40.0713749" lon="-105.229789">
  <ele>1583.0</ele>
  <time>2026-08-28T17:48:27Z</time>
  <course>0.0</course>
  <speed>0.0</speed>
  <fix>3d</fix>
</trkpt>
<trkpt lat="40.0713751" lon="-105.2297889">
  <ele>1583.12</ele>
  <time>2026-08-28T17:48:27Z</time>
  <course>247.09</course>
  <speed>0.022360679774997897</speed>
  <fix>3d</fix>
</trkpt>
<trkpt lat="40.0713749" lon="-105.229789">
  <ele>1583.0</ele>
  <time>2026-08-28T17:48:27Z</time>
  <course>0.0</course>
  <speed>0.0</speed>
  <fix>3d</fix>
</trkpt>
<trkpt lat="40.0713751" lon="-105.2297889">
  <ele>1583.12</ele>
  <time>2026-08-28T17:48:27Z</time>
  <course>247.09</course>
  <speed>0.022360679774997897</speed>
  <fix>3d</fix>
</trkpt>
<trkpt lat="40.0713749" lon="-105.229789">
  <ele>1583.0</ele>
  <time>2026-08-28T17:48:27Z</time>
  <course>0.0</course>
  <speed>0.0</speed>
  <fix>3d</fix>
</trkpt>
<trkpt lat="40.0713751" lon="-105.2297889">
  <ele>1583.11</ele>
  <time>2026-08-28T17:48:27Z</time>
  <course>247.09</course>
  <speed>0.022360679774997897</speed>
  <fix>3d</fix>
</trkpt>
<trkpt lat="40.0713749" lon="-105.229789">
  <ele>1583.0</ele>
  <time>2026-08-28T17:48:27Z</time>
  <course>0.0</course>
  <speed>0.0</speed>
  <fix>3d</fix>
</trkpt>
<trkpt lat="40.0713751" lon="-105.2297889">
  <ele>1583.11</ele>
  <time>2026-08-28T17:48:27Z</time>
  <course>247.09</course>
  <speed>0.022360679774997897</speed>
  <fix>3d</fix>
</trkpt>
<trkpt lat="40.0713749" lon="-105.229789">
  <ele>1583.0</ele>
  <time>2026-08-28T17:48:27Z</time>
  <course>0.0</course>
  <speed>0.0</speed>
  <fix>3d</fix>
</trkpt>
<trkpt lat="40.0713751" lon="-105.2297889">
  <ele>1583.1</ele>
  <time>2026-08-28T17:48:27Z</time>
  <course>247.09</course>
  <speed>0.022360679774997897</speed>
  <fix>3d</fix>
</trkpt>
<trkpt lat="40.0713749" lon="-105.229789">
  <ele>1583.0</ele>
  <time>2026-08-28T17:48:27Z</time>
  <course>0.0</course>
  <speed>0.0</speed>
  <fix>3d</fix>
</trkpt>
<trkpt lat="40.071375" lon="-105.2297889">
  <ele>1583.1</ele>
  <time>2026-08-28T17:48:27Z</time>
  <course>247.09</course>
  <speed>0.022360679774997897</speed>
  <fix>3d</fix>
</trkpt>
<trkpt lat="40.0713749" lon="-105.229789">
  <ele>1583.0</ele>
  <time>2026-08-28T17:48:27Z</time>
  <course>0.0</course>
  <speed>0.0</speed>
  <fix>3d</fix>
</trkpt>
<trkpt lat="40.0713751" lon="-105.2297889">
  <ele>1583.09</ele>
  <time>2026-08-28T17:48:27Z</time>
  <course>247.09</course>
  <speed>0.022360679774997897</speed>
  <fix>3d</fix>
</trkpt>
<trkpt lat="40.0713749" lon="-105.229789">
  <ele>1583.0</ele>
  <time>2026-08-28T17:48:27Z</time>
  <course>0.0</course>
  <speed>0.0</speed>
  <fix>3d</fix>
</trkpt>
<trkpt lat="40.071375" lon="-105.2297889">
  <ele>1583.09</ele>
  <time>2026-08-28T17:48:27Z</time>
  <course>247.09</course>
  <speed>0.022360679774997897</speed>
  <fix>3d</fix>
</trkpt>
<trkpt lat="40.0713749" lon="-105.229789">
  <ele>1583.0</ele>
  <time>2026-08-28T17:48:27Z</time>
  <course>0.0</course>
  <speed>0.0</speed>
  <fix>3d</fix>
</trkpt>
<trkpt lat="40.0713751" lon="-105.2297889">
  <ele>1583.09</ele>
  <time>2026-08-28T17:48:27Z</time>
  <course>247.09</course>
  <speed>0.022360679774997897</speed>
  <fix>3d</fix>
</trkpt>
<trkpt lat="40.0713749" lon="-105.229789">
  <ele>1583.0</ele>
  <time>2026-08-28T17:48:27Z</time>
  <course>0.0</course>
  <speed>0.0</speed>
  <fix>3d</fix>
</trkpt>
<trkpt lat="40.071375" lon="-105.2297889">
  <ele>1583.08</ele>
  <time>2026-08-28T17:48:27Z</time>
  <course>247.09</course>
  <speed>0.022360679774997897</speed>
  <fix>3d</fix>
</trkpt>
<trkpt lat="40.0713749" lon="-105.229789">
  <ele>1583.0</ele>
  <time>2026-08-28T17:48:27Z</time>
  <course>0.0</course>
  <speed>0.0</speed>
  <fix>3d</fix>
</trkpt>
<trkpt lat="40.0713751" lon="-105.2297889">
  <ele>1583.08</ele>
  <time>2026-08-28T17:48:27Z</time>
  <course>247.09</course>
  <speed>0.022360679774997897</speed>
  <fix>3d</fix>
</trkpt>
<trkpt lat="40.0713749" lon="-105.229789">
  <ele>1583.0</ele>
  <time>2026-08-28T17:48:27Z</time>
  <course>0.0</course>
  <speed>0.0</speed>
  <fix>3d</fix>
</trkpt>
<trkpt lat="40.071375" lon="-105.2297889">
  <ele>1583.08</ele>
  <time>2026-08-28T17:48:27Z</time>
  <course>247.09</course>
  <speed>0.022360679774997897</speed>
  <fix>3d</fix>
</trkpt>
<trkpt lat="40.0713749" lon="-105.229789">
  <ele>1583.0</ele>
  <time>2026-08-28T17:48:27Z</time>
  <course>0.0</course>
  <speed>0.0</speed>
  <fix>3d</fix>
</trkpt>
<trkpt lat="40.0713751" lon="-105.2297889">
  <ele>1583.08</ele>
  <time>2026-08-28T17:48:27Z</time>
  <course>247.09</course>
  <speed>0.022360679774997897</speed>
  <fix>3d</fix>
</trkpt>
<trkpt lat="40.0713749" lon="-105.229789">
  <ele>1583.0</ele>
  <time>2026-08-28T17:48:27Z</time>
  <course>0.0</course>
  <speed>0.0</speed>
  <fix>3d</fix>
</trkpt>
<trkpt lat="40.071375" lon="-105.2297889">
  <ele>1583.07</ele>
  <time>2026-08-28T17:48:27Z</time>
  <course>247.09</course>
  <speed>0.022360679774997897</speed>
  <fix>3d</fix>
</trkpt>
<trkpt lat="40.0713749" lon="-105.229789">
  <ele>1583.0</ele>
  <time>2026-08-28T17:48:27Z</time>
  <course>0.0</course>
  <speed>0.0</speed>
  <fix>3d</fix>
</trkpt>
<trkpt lat="40.071375" lon="-105.2297889">
  <ele>1583.07</ele>
  <time>2026-08-28T17:48:27Z</time>
  <course>247.09</course>
  <speed>0.022360679774997897</speed>
  <fix>3d</fix>
</trkpt>
<trkpt lat="40.0713749" lon="-105.229789">
  <ele>1583.0</ele>
  <time>2026-08-28T17:48:27Z</time>
  <course>0.0</course>
  <speed>0.0</speed>
  <fix>3d</fix>
</trkpt>
<trkpt lat="40.071375" lon="-105.2297889">
  <ele>1583.07</ele>
  <time>2026-08-28T17:48:27Z</time>
  <course>247.09</course>
  <speed>0.022360679774997897</speed>
  <fix>3d</fix>
</trkpt>
<trkpt lat="40.0713749" lon="-105.229789">
  <ele>1583.0</ele>
  <time>2026-08-28T17:48:27Z</time>
  <course>0.0</course>
  <speed>0.0</speed>
  <fix>3d</fix>
</trkpt>
<trkpt lat="40.071375" lon="-105.2297889">
  <ele>1583.07</ele>
  <time>2026-08-28T17:48:27Z</time>
  <course>247.09</course>
  <speed>0.022360679774997897</speed>
  <fix>3d</fix>
</trkpt>
<trkpt lat="40.0713749" lon="-105.229789">
  <ele>1583.0</ele>
  <time>2026-08-28T17:48:27Z</time>
  <course>0.0</course>
  <speed>0.0</speed>
  <fix>3d</fix>
</trkpt>
<trkpt lat="40.071375" lon="-105.2297889">
  <ele>1583.07</ele>
  <time>2026-08-28T17:48:27Z</time>
  <course>247.09</course>
  <speed>0.022360679774997897</speed>
  <fix>3d</fix>
</trkpt>
<trkpt lat="40.0713749" lon="-105.229789">
  <ele>1583.0</ele>
  <time>2026-08-28T17:48:27Z</time>
  <course>0.0</course>
  <speed>0.0</speed>
  <fix>3d</fix>
</trkpt>
<trkpt lat="40.0713751" lon="-105.2297889">
  <ele>1583.07</ele>
  <time>2026-08-28T17:48:27Z</time>
  <course>247.09</course>
  <speed>0.022360679774997897</speed>
  <fix>3d</fix>
</trkpt>
<trkpt lat="40.0713749" lon="-105.229789">
  <ele>1583.0</ele>
  <time>2026-08-28T17:48:27Z</time>
  <course>0.0</course>
  <speed>0.0</speed>
  <fix>3d</fix>
</trkpt>
<trkpt lat="40.071375" lon="-105.2297889">
  <ele>1583.08</ele>
  <time>2026-08-28T17:48:27Z</time>
  <course>247.09</course>
  <speed>0.022360679774997897</speed>
  <fix>3d</fix>
</trkpt>
<trkpt lat="40.0713749" lon="-105.229789">
  <ele>1583.0</ele>
  <time>2026-08-28T17:48:27Z</time>
  <course>0.0</course>
  <speed>0.0</speed>
  <fix>3d</fix>
</trkpt>
<trkpt lat="40.0713751" lon="-105.2297889">
  <ele>1583.08</ele>
  <time>2026-08-28T17:48:27Z</time>
  <course>247.09</course>
  <speed>0.022360679774997897</speed>
  <fix>3d</fix>
</trkpt>
<trkpt lat="40.0713749" lon="-105.229789">
  <ele>1583.0</ele>
  <time>2026-08-28T17:48:27Z</time>
  <course>0.0</course>
  <speed>0.0</speed>
  <fix>3d</fix>
</trkpt>
<trkpt lat="40.0713751" lon="-105.2297889">
  <ele>1583.07</ele>
  <time>2026-08-28T17:48:27Z</time>
  <course>247.09</course>
  <speed>0.022360679774997897</speed>
  <fix>3d</fix>
</trkpt>
<trkpt lat="40.0713749" lon="-105.229789">
  <ele>1583.0</ele>
  <time>2026-08-28T17:48:27Z</time>
  <course>0.0</course>
  <speed>0.0</speed>
  <fix>3d</fix>
</trkpt>
<trkpt lat="40.0713751" lon="-105.2297889">
  <ele>1583.08</ele>
  <time>2026-08-28T17:48:27Z</time>
  <course>247.09</course>
  <speed>0.022360679774997897</speed>
  <fix>3d</fix>
</trkpt>
<trkpt lat="40.0713749" lon="-105.229789">
  <ele>1583.0</ele>
  <time>2026-08-28T17:48:27Z</time>
  <course>0.0</course>
  <speed>0.0</speed>
  <fix>3d</fix>
</trkpt>
<trkpt lat="40.0713751" lon="-105.2297889">
  <ele>1583.08</ele>
  <time>2026-08-28T17:48:27Z</time>
  <course>247.09</course>
  <speed>0.022360679774997897</speed>
  <fix>3d</fix>
</trkpt>
<trkpt lat="40.0713749" lon="-105.229789">
  <ele>1583.0</ele>
  <time>2026-08-28T17:48:27Z</time>
  <course>0.0</course>
  <speed>0.0</speed>
  <fix>3d</fix>
</trkpt>
<trkpt lat="40.0713751" lon="-105.2297889">
  <ele>1583.07</ele>
  <time>2026-08-28T17:48:27Z</time>
  <course>247.09</course>
  <speed>0.022360679774997897</speed>
  <fix>3d</fix>
</trkpt>
<trkpt lat="40.0713749" lon="-105.229789">
  <ele>1583.0</ele>
  <time>2026-08-28T17:48:27Z</time>
  <course>0.0</course>
  <speed>0.0</speed>
  <fix>3d</fix>
</trkpt>
<trkpt lat="40.071375" lon="-105.2297889">
  <ele>1583.07</ele>
  <time>2026-08-28T17:48:27Z</time>
  <course>247.09</course>
  <speed>0.022360679774997897</speed>
  <fix>3d</fix>
</trkpt>
<trkpt lat="40.0713749" lon="-105.229789">
  <ele>1583.0</ele>
  <time>2026-08-28T17:48:27Z</time>
  <course>0.0</course>
  <speed>0.0</speed>
  <fix>3d</fix>
</trkpt>
<trkpt lat="40.0713751" lon="-105.2297889">
  <ele>1583.06</ele>
  <time>2026-08-28T17:48:27Z</time>
  <course>247.09</course>
  <speed>0.022360679774997897</speed>
  <fix>3d</fix>
</trkpt>
<trkpt lat="40.0713749" lon="-105.229789">
  <ele>1583.0</ele>
  <time>2026-08-28T17:48:27Z</time>
  <course>0.0</course>
  <speed>0.0</speed>
  <fix>3d</fix>
</trkpt>
<trkpt lat="40.071375" lon="-105.2297889">
  <ele>1583.06</ele>
  <time>2026-08-28T17:48:27Z</time>
  <course>247.09</course>
  <speed>0.022360679774997897</speed>
  <fix>3d</fix>
</trkpt>
<trkpt lat="40.0713749" lon="-105.229789">
  <ele>1583.0</ele>
  <time>2026-08-28T17:48:27Z</time>
  <course>0.0</course>
  <speed>0.0</speed>
  <fix>3d</fix>
</trkpt>
<trkpt lat="40.0713751" lon="-105.2297889">
  <ele>1583.05</ele>
  <time>2026-08-28T17:48:27Z</time>
  <course>247.09</course>
  <speed>0.022360679774997897</speed>
  <fix>3d</fix>
</trkpt>
<trkpt lat="40.0713749" lon="-105.229789">
  <ele>1583.0</ele>
  <time>2026-08-28T17:48:27Z</time>
  <course>0.0</course>
  <speed>0.0</speed>
  <fix>3d</fix>
</trkpt>
<trkpt lat="40.071375" lon="-105.2297889">
  <ele>1583.04</ele>
  <time>2026-08-28T17:48:27Z</time>
  <course>247.09</course>
  <speed>0.022360679774997897</speed>
  <fix>3d</fix>
</trkpt>
<trkpt lat="40.0713749" lon="-105.229789">
  <ele>1583.0</ele>
  <time>2026-08-28T17:48:27Z</time>
  <course>0.0</course>
  <speed>0.0</speed>
  <fix>3d</fix>
</trkpt>
<trkpt lat="40.0713751" lon="-105.2297889">
  <ele>1583.04</ele>
  <time>2026-08-28T17:48:27Z</time>
  <course>247.09</course>
  <speed>0.022360679774997897</speed>
  <fix>3d</fix>
</trkpt>
<trkpt lat="40.0713749" lon="-105.229789">
  <ele>1583.0</ele>
  <time>2026-08-28T17:48:27Z</time>
  <course>0.0</course>
  <speed>0.0</speed>
  <fix>3d</fix>
</trkpt>
<trkpt lat="40.071375" lon="-105.2297889">
  <ele>1583.03</ele>
  <time>2026-08-28T17:48:27Z</time>
  <course>247.09</course>
  <speed>0.022360679774997897</speed>
  <fix>3d</fix>
</trkpt>
<trkpt lat="40.0713749" lon="-105.229789">
  <ele>1583.0</ele>
  <time>2026-08-28T17:48:27Z</time>
  <course>0.0</course>
  <speed>0.0</speed>
  <fix>3d</fix>
</trkpt>
<trkpt lat="40.0713751" lon="-105.2297889">
  <ele>1583.02</ele>
  <time>2026-08-28T17:48:27Z</time>
  <course>247.09</course>
  <speed>0.022360679774997897</speed>
  <fix>3d</fix>
</trkpt>
<trkpt lat="40.0713749" lon="-105.229789">
  <ele>1583.0</ele>
  <time>2026-08-28T17:48:27Z</time>
  <course>0.0</course>
  <speed>0.0</speed>
  <fix>3d</fix>
</trkpt>
<trkpt lat="40.071375" lon="-105.2297889">
  <ele>1583.01</ele>
  <time>2026-08-28T17:48:27Z</time>
  <course>247.09</course>
  <speed>0.022360679774997897</speed>
  <fix>3d</fix>
</trkpt>
<trkpt lat="40.0713749" lon="-105.229789">
  <ele>1583.0</ele>
  <time>2026-08-28T17:48:27Z</time>
  <course>0.0</course>
  <speed>0.0</speed>
  <fix>3d</fix>
</trkpt>
<trkpt lat="40.071375" lon="-105.2297889">
  <ele>1583.01</ele>
  <time>2026-08-28T17:48:27Z</time>
  <course>247.09</course>
  <speed>0.022360679774997897</speed>
  <fix>3d</fix>
</trkpt>
<trkpt lat="40.0713749" lon="-105.229789">
  <ele>1583.0</ele>
  <time>2026-08-28T17:48:27Z</time>
  <course>0.0</course>
  <speed>0.0</speed>
  <fix>3d</fix>
</trkpt>
<trkpt lat="40.071375" lon="-105.2297889">
  <ele>1583.01</ele>
  <time>2026-08-28T17:48:27Z</time>
  <course>247.09</course>
  <speed>0.022360679774997897</speed>
  <fix>3d</fix>
</trkpt>
<trkpt lat="40.0713749" lon="-105.229789">
  <ele>1583.0</ele>
  <time>2026-08-28T17:48:27Z</time>
  <course>0.0</course>
  <speed>0.0</speed>
  <fix>3d</fix>
</trkpt>
<trkpt lat="40.071375" lon="-105.2297889">
  <ele>1583.01</ele>
  <time>2026-08-28T17:48:27Z</time>
  <course>247.09</course>
  <speed>0.022360679774997897</speed>
  <fix>3d</fix>
</trkpt>
<trkpt lat="40.0713749" lon="-105.229789">
  <ele>1583.0</ele>
  <time>2026-08-28T17:48:27Z</time>
  <course>0.0</course>
  <speed>0.0</speed>
  <fix>3d</fix>
</trkpt>
<trkpt lat="40.071375" lon="-105.2297889">
  <ele>1583.01</ele>
  <time>2026-08-28T17:48:27Z</time>
  <course>247.09</course>
  <speed>0.022360679774997897</speed>
  <fix>3d</fix>
</trkpt>
<trkpt lat="40.0713749" lon="-105.229789">
  <ele>1583.0</ele>
  <time>2026-08-28T17:48:27Z</time>
  <course>0.0</course>
  <speed>0.0</speed>
  <fix>3d</fix>
</trkpt>
<trkpt lat="40.0713751" lon="-105.2297889">
  <ele>1583.01</ele>
  <time>2026-08-28T17:48:27Z</time>
  <course>247.09</course>
  <speed>0.022360679774997897</speed>
  <fix>3d</fix>
</trkpt>
<trkpt lat="40.0713749" lon="-105.229789">
  <ele>1583.0</ele>
  <time>2026-08-28T17:48:27Z</time>
  <course>0.0</course>
  <speed>0.0</speed>
  <fix>3d</fix>
</trkpt>
<trkpt lat="40.071375" lon="-105.2297889">
  <ele>1583.02</ele>
  <time>2026-08-28T17:48:27Z</time>
  <course>247.09</course>
  <speed>0.022360679774997897</speed>
  <fix>3d</fix>
</trkpt>
<trkpt lat="40.0713749" lon="-105.229789">
  <ele>1583.0</ele>
  <time>2026-08-28T17:48:27Z</time>
  <course>0.0</course>
  <speed>0.0</speed>
  <fix>3d</fix>
</trkpt>
<trkpt lat="40.0713751" lon="-105.2297889">
  <ele>1583.02</ele>
  <time>2026-08-28T17:48:27Z</time>
  <course>247.09</course>
  <speed>0.022360679774997897</speed>
  <fix>3d</fix>
</trkpt>
<trkpt lat="40.0713749" lon="-105.229789">
  <ele>1583.0</ele>
  <time>2026-08-28T17:48:27Z</time>
  <course>0.0</course>
  <speed>0.0</speed>
  <fix>3d</fix>
</trkpt>
<trkpt lat="40.0713751" lon="-105.2297889">
  <ele>1583.02</ele>
  <time>2026-08-28T17:48:27Z</time>
  <course>247.09</course>
  <speed>0.022360679774997897</speed>
  <fix>3d</fix>
</trkpt>
<trkpt lat="40.0713749" lon="-105.229789">
  <ele>1583.0</ele>
  <time>2026-08-28T17:48:27Z</time>
  <course>0.0</course>
  <speed>0.0</speed>
  <fix>3d</fix>
</trkpt>
<trkpt lat="40.0713751" lon="-105.2297889">
  <ele>1583.02</ele>
  <time>2026-08-28T17:48:27Z</time>
  <course>247.09</course>
  <speed>0.022360679774997897</speed>
  <fix>3d</fix>
</trkpt>
<trkpt lat="40.0713749" lon="-105.229789">
  <ele>1583.0</ele>
  <time>2026-08-28T17:48:27Z</time>
  <course>0.0</course>
  <speed>0.0</speed>
  <fix>3d</fix>
</trkpt>
<trkpt lat="40.0713751" lon="-105.2297889">
  <ele>1583.02</ele>
  <time>2026-08-28T17:48:27Z</time>
  <course>247.09</course>
  <speed>0.022360679774997897</speed>
  <fix>3d</fix>
</trkpt>
<trkpt lat="40.0713749" lon="-105.229789">
  <ele>1583.0</ele>
  <time>2026-08-28T17:48:27Z</time>
  <course>0.0</course>
  <speed>0.0</speed>
  <fix>3d</fix>
</trkpt>
<trkpt lat="40.0713751" lon="-105.2297889">
  <ele>1583.02</ele>
  <time>2026-08-28T17:48:27Z</time>
  <course>247.09</course>
  <speed>0.022360679774997897</speed>
  <fix>3d</fix>
</trkpt>
<trkpt lat="40.0713749" lon="-105.229789">
  <ele>1583.0</ele>
  <time>2026-08-28T17:48:27Z</time>
  <course>0.0</course>
  <speed>0.0</speed>
  <fix>3d</fix>
</trkpt>
<trkpt lat="40.0713751" lon="-105.2297889">
  <ele>1583.02</ele>
  <time>2026-08-28T17:48:27Z</time>
  <course>247.09</course>
  <speed>0.022360679774997897</speed>
  <fix>3d</fix>
</trkpt>
<trkpt lat="40.0713749" lon="-105.229789">
  <ele>1583.0</ele>
  <time>2026-08-28T17:48:27Z</time>
  <course>0.0</course>
  <speed>0.0</speed>
  <fix>3d</fix>
</trkpt>
<trkpt lat="40.0713751" lon="-105.2297889">
  <ele>1583.03</ele>
  <time>2026-08-28T17:48:27Z</time>
  <course>247.09</course>
  <speed>0.022360679774997897</speed>
  <fix>3d</fix>
</trkpt>
<trkpt lat="40.0713749" lon="-105.229789">
  <ele>1583.0</ele>
  <time>2026-08-28T17:48:27Z</time>
  <course>0.0</course>
  <speed>0.0</speed>
  <fix>3d</fix>
</trkpt>
<trkpt lat="40.071375" lon="-105.2297889">
  <ele>1583.03</ele>
  <time>2026-08-28T17:48:27Z</time>
  <course>247.09</course>
  <speed>0.022360679774997897</speed>
  <fix>3d</fix>
</trkpt>
<trkpt lat="40.0713749" lon="-105.229789">
  <ele>1583.0</ele>
  <time>2026-08-28T17:48:27Z</time>
  <course>0.0</course>
  <speed>0.0</speed>
  <fix>3d</fix>
</trkpt>
<trkpt lat="40.0713751" lon="-105.2297889">
  <ele>1583.04</ele>
  <time>2026-08-28T17:48:27Z</time>
  <course>247.09</course>
  <speed>0.022360679774997897</speed>
  <fix>3d</fix>
</trkpt>
<trkpt lat="40.0713749" lon="-105.229789">
  <ele>1583.0</ele>
  <time>2026-08-28T17:48:27Z</time>
  <course>0.0</course>
  <speed>0.0</speed>
  <fix>3d</fix>
</trkpt>
<trkpt lat="40.071375" lon="-105.2297889">
  <ele>1583.04</ele>
  <time>2026-08-28T17:48:27Z</time>
  <course>247.09</course>
  <speed>0.022360679774997897</speed>
  <fix>3d</fix>
</trkpt>
<trkpt lat="40.0713749" lon="-105.229789">
  <ele>1583.0</ele>
  <time>2026-08-28T17:48:27Z</time>
  <course>0.0</course>
  <speed>0.0</speed>
  <fix>3d</fix>
</trkpt>
<trkpt lat="40.071375" lon="-105.2297889">
  <ele>1583.04</ele>
  <time>2026-08-28T17:48:27Z</time>
  <course>247.09</course>
  <speed>0.022360679774997897</speed>
  <fix>3d</fix>
</trkpt>
<trkpt lat="40.0713749" lon="-105.229789">
  <ele>1583.0</ele>
  <time>2026-08-28T17:48:27Z</time>
  <course>0.0</course>
  <speed>0.0</speed>
  <fix>3d</fix>
</trkpt>
<trkpt lat="40.071375" lon="-105.2297889">
  <ele>1583.04</ele>
  <time>2026-08-28T17:48:27Z</time>
  <course>247.09</course>
  <speed>0.022360679774997897</speed>
  <fix>3d</fix>
</trkpt>
<trkpt lat="40.0713749" lon="-105.229789">
  <ele>1583.0</ele>
  <time>2026-08-28T17:48:27Z</time>
  <course>0.0</course>
  <speed>0.0</speed>
  <fix>3d</fix>
</trkpt>
<trkpt lat="40.0713751" lon="-105.2297889">
  <ele>1583.04</ele>
  <time>2026-08-28T17:48:27Z</time>
  <course>247.09</course>
  <speed>0.022360679774997897</speed>
  <fix>3d</fix>
</trkpt>
<trkpt lat="40.0713749" lon="-105.229789">
  <ele>1583.0</ele>
  <time>2026-08-28T17:48:27Z</time>
  <course>0.0</course>
  <speed>0.0</speed>
  <fix>3d</fix>
</trkpt>
<trkpt lat="40.071375" lon="-105.2297889">
  <ele>1583.05</ele>
  <time>2026-08-28T17:48:27Z</time>
  <course>247.09</course>
  <speed>0.022360679774997897</speed>
  <fix>3d</fix>
</trkpt>
<trkpt lat="40.0713749" lon="-105.229789">
  <ele>1583.0</ele>
  <time>2026-08-28T17:48:27Z</time>
  <course>0.0</course>
  <speed>0.0</speed>
  <fix>3d</fix>
</trkpt>
<trkpt lat="40.071375" lon="-105.2297889">
  <ele>1583.05</ele>
  <time>2026-08-28T17:48:27Z</time>
  <course>247.09</course>
  <speed>0.022360679774997897</speed>
  <fix>3d</fix>
</trkpt>
<trkpt lat="40.0713749" lon="-105.229789">
  <ele>1583.0</ele>
  <time>2026-08-28T17:48:27Z</time>
  <course>0.0</course>
  <speed>0.0</speed>
  <fix>3d</fix>
</trkpt>
<trkpt lat="40.071375" lon="-105.2297889">
  <ele>1583.05</ele>
  <time>2026-08-28T17:48:27Z</time>
  <course>247.09</course>
  <speed>0.022360679774997897</speed>
  <fix>3d</fix>
</trkpt>
<trkpt lat="40.0713749" lon="-105.229789">
  <ele>1583.0</ele>
  <time>2026-08-28T17:48:27Z</time>
  <course>0.0</course>
  <speed>0.0</speed>
  <fix>3d</fix>
</trkpt>
<trkpt lat="40.071375" lon="-105.2297889">
  <ele>1583.06</ele>
  <time>2026-08-28T17:48:27Z</time>
  <course>247.09</course>
  <speed>0.022360679774997897</speed>
  <fix>3d</fix>
</trkpt>
<trkpt lat="40.0713749" lon="-105.229789">
  <ele>1583.0</ele>
  <time>2026-08-28T17:48:27Z</time>
  <course>0.0</course>
  <speed>0.0</speed>
  <fix>3d</fix>
</trkpt>
<trkpt lat="40.071375" lon="-105.2297889">
  <ele>1583.06</ele>
  <time>2026-08-28T17:48:27Z</time>
  <course>247.09</course>
  <speed>0.022360679774997897</speed>
  <fix>3d</fix>
</trkpt>
<trkpt lat="40.0713749" lon="-105.229789">
  <ele>1583.0</ele>
  <time>2026-08-28T17:48:27Z</time>
  <course>0.0</course>
  <speed>0.0</speed>
  <fix>3d</fix>
</trkpt>
<trkpt lat="40.0713751" lon="-105.2297889">
  <ele>1583.06</ele>
  <time>2026-08-28T17:48:27Z</time>
  <course>247.09</course>
  <speed>0.022360679774997897</speed>
  <fix>3d</fix>
</trkpt>
<trkpt lat="40.0713749" lon="-105.229789">
  <ele>1583.0</ele>
  <time>2026-08-28T17:48:27Z</time>
  <course>0.0</course>
  <speed>0.0</speed>
  <fix>3d</fix>
</trkpt>
<trkpt lat="40.0713751" lon="-105.2297889">
  <ele>1583.06</ele>
  <time>2026-08-28T17:48:27Z</time>
  <course>247.09</course>
  <speed>0.022360679774997897</speed>
  <fix>3d</fix>
</trkpt>
<trkpt lat="40.0713749" lon="-105.229789">
  <ele>1583.0</ele>
  <time>2026-08-28T17:48:27Z</time>
  <course>0.0</course>
  <speed>0.0</speed>
  <fix>3d</fix>
</trkpt>
<trkpt lat="40.0713751" lon="-105.2297889">
  <ele>1583.06</ele>
  <time>2026-08-28T17:48:27Z</time>
  <course>247.09</course>
  <speed>0.022360679774997897</speed>
  <fix>3d</fix>
</trkpt>
<trkpt lat="40.0713749" lon="-105.229789">
  <ele>1583.0</ele>
  <time>2026-08-28T17:48:27Z</time>
  <course>0.0</course>
  <speed>0.0</speed>
  <fix>3d</fix>
</trkpt>
<trkpt lat="40.0713751" lon="-105.2297889">
  <ele>1583.06</ele>
  <time>2026-08-28T17:48:27Z</time>
  <course>247.09</course>
  <speed>0.022360679774997897</speed>
  <fix>3d</fix>
</trkpt>
<trkpt lat="40.0713749" lon="-105.229789">
  <ele>1583.0</ele>
  <time>2026-08-28T17:48:27Z</time>
  <course>0.0</course>
  <speed>0.0</speed>
  <fix>3d</fix>
</trkpt>
<trkpt lat="40.0713751" lon="-105.2297889">
  <ele>1583.06</ele>
  <time>2026-08-28T17:48:27Z</time>
  <course>247.09</course>
  <speed>0.022360679774997897</speed>
  <fix>3d</fix>
</trkpt>
<trkpt lat="40.0713749" lon="-105.229789">
  <ele>1583.0</ele>
  <time>2026-08-28T17:48:27Z</time>
  <course>0.0</course>
  <speed>0.0</speed>
  <fix>3d</fix>
</trkpt>
<trkpt lat="40.0713751" lon="-105.2297889">
  <ele>1583.06</ele>
  <time>2026-08-28T17:48:27Z</time>
  <course>247.09</course>
  <speed>0.022360679774997897</speed>
  <fix>3d</fix>
</trkpt>
<trkpt lat="40.0713749" lon="-105.229789">
  <ele>1583.0</ele>
  <time>2026-08-28T17:48:27Z</time>
  <course>0.0</course>
  <speed>0.0</speed>
  <fix>3d</fix>
</trkpt>
<trkpt lat="40.0713751" lon="-105.2297889">
  <ele>1583.06</ele>
  <time>2026-08-28T17:48:27Z</time>
  <course>247.09</course>
  <speed>0.022360679774997897</speed>
  <fix>3d</fix>
</trkpt>
<trkpt lat="40.0713749" lon="-105.229789">
  <ele>1583.0</ele>
  <time>2026-08-28T17:48:27Z</time>
  <course>0.0</course>
  <speed>0.0</speed>
  <fix>3d</fix>
</trkpt>
<trkpt lat="40.0713751" lon="-105.2297889">
  <ele>1583.06</ele>
  <time>2026-08-28T17:48:27Z</time>
  <course>247.09</course>
  <speed>0.022360679774997897</speed>
  <fix>3d</fix>
</trkpt>
<trkpt lat="40.0713749" lon="-105.229789">
  <ele>1583.0</ele>
  <time>2026-08-28T17:48:27Z</time>
  <course>0.0</course>
  <speed>0.0</speed>
  <fix>3d</fix>
</trkpt>
<trkpt lat="40.0713751" lon="-105.2297889">
  <ele>1583.05</ele>
  <time>2026-08-28T17:48:27Z</time>
  <course>247.09</course>
  <speed>0.022360679774997897</speed>
  <fix>3d</fix>
</trkpt>
<trkpt lat="40.0713749" lon="-105.229789">
  <ele>1583.0</ele>
  <time>2026-08-28T17:48:27Z</time>
  <course>0.0</course>
  <speed>0.0</speed>
  <fix>3d</fix>
</trkpt>
<trkpt lat="40.0713751" lon="-105.2297889">
  <ele>1583.05</ele>
  <time>2026-08-28T17:48:27Z</time>
  <course>247.09</course>
  <speed>0.022360679774997897</speed>
  <fix>3d</fix>
</trkpt>
<trkpt lat="40.0713749" lon="-105.229789">
  <ele>1583.0</ele>
  <time>2026-08-28T17:48:27Z</time>
  <course>0.0</course>
  <speed>0.0</speed>
  <fix>3d</fix>
</trkpt>
<trkpt lat="40.0713751" lon="-105.2297889">
  <ele>1583.04</ele>
  <time>2026-08-28T17:48:27Z</time>
  <course>247.09</course>
  <speed>0.022360679774997897</speed>
  <fix>3d</fix>
</trkpt>
<trkpt lat="40.0713749" lon="-105.229789">
  <ele>1583.0</ele>
  <time>2026-08-28T17:48:27Z</time>
  <course>0.0</course>
  <speed>0.0</speed>
  <fix>3d</fix>
</trkpt>
<trkpt lat="40.071375" lon="-105.2297889">
  <ele>1583.04</ele>
  <time>2026-08-28T17:48:27Z</time>
  <course>247.09</course>
  <speed>0.022360679774997897</speed>
  <fix>3d</fix>
</trkpt>
<trkpt lat="40.0713749" lon="-105.229789">
  <ele>1583.0</ele>
  <time>2026-08-28T17:48:27Z</time>
  <course>0.0</course>
  <speed>0.0</speed>
  <fix>3d</fix>
</trkpt>
<trkpt lat="40.0713751" lon="-105.2297889">
  <ele>1583.03</ele>
  <time>2026-08-28T17:48:27Z</time>
  <course>247.09</course>
  <speed>0.022360679774997897</speed>
  <fix>3d</fix>
</trkpt>
<trkpt lat="40.0713749" lon="-105.229789">
  <ele>1583.0</ele>
  <time>2026-08-28T17:48:27Z</time>
  <course>0.0</course>
  <speed>0.0</speed>
  <fix>3d</fix>
</trkpt>
<trkpt lat="40.071375" lon="-105.2297889">
  <ele>1583.03</ele>
  <time>2026-08-28T17:48:27Z</time>
  <course>247.09</course>
  <speed>0.022360679774997897</speed>
  <fix>3d</fix>
</trkpt>
<trkpt lat="40.0713749" lon="-105.229789">
  <ele>1583.0</ele>
  <time>2026-08-28T17:48:27Z</time>
  <course>0.0</course>
  <speed>0.0</speed>
  <fix>3d</fix>
</trkpt>
<trkpt lat="40.0713751" lon="-105.2297889">
  <ele>1583.03</ele>
  <time>2026-08-28T17:48:27Z</time>
  <course>247.09</course>
  <speed>0.022360679774997897</speed>
  <fix>3d</fix>
</trkpt>
<trkpt lat="40.0713749" lon="-105.229789">
  <ele>1583.0</ele>
  <time>2026-08-28T17:48:27Z</time>
  <course>0.0</course>
  <speed>0.0</speed>
  <fix>3d</fix>
</trkpt>
<trkpt lat="40.071375" lon="-105.2297889">
  <ele>1583.02</ele>
  <time>2026-08-28T17:48:27Z</time>
  <course>247.09</course>
  <speed>0.022360679774997897</speed>
  <fix>3d</fix>
</trkpt>
<trkpt lat="40.0713749" lon="-105.229789">
  <ele>1583.0</ele>
  <time>2026-08-28T17:48:27Z</time>
  <course>0.0</course>
  <speed>0.0</speed>
  <fix>3d</fix>
</trkpt>
<trkpt lat="40.0713751" lon="-105.2297889">
  <ele>1583.02</ele>
  <time>2026-08-28T17:48:27Z</time>
  <course>247.09</course>
  <speed>0.022360679774997897</speed>
  <fix>3d</fix>
</trkpt>
<trkpt lat="40.0713749" lon="-105.229789">
  <ele>1583.0</ele>
  <time>2026-08-28T17:48:27Z</time>
  <course>0.0</course>
  <speed>0.0</speed>
  <fix>3d</fix>
</trkpt>
<trkpt lat="40.0713751" lon="-105.2297889">
  <ele>1583.02</ele>
  <time>2026-08-28T17:48:27Z</time>
  <course>247.09</course>
  <speed>0.022360679774997897</speed>
  <fix>3d</fix>
</trkpt>
<trkpt lat="40.0713749" lon="-105.229789">
  <ele>1583.0</ele>
  <time>2026-08-28T17:48:27Z</time>
  <course>0.0</course>
  <speed>0.0</speed>
  <fix>3d</fix>
</trkpt>
<trkpt lat="40.0713751" lon="-105.2297889">
  <ele>1583.02</ele>
  <time>2026-08-28T17:48:27Z</time>
  <course>247.09</course>
  <speed>0.022360679774997897</speed>
  <fix>3d</fix>
</trkpt>
<trkpt lat="40.0713749" lon="-105.229789">
  <ele>1583.0</ele>
  <time>2026-08-28T17:48:27Z</time>
  <course>0.0</course>
  <speed>0.0</speed>
  <fix>3d</fix>
</trkpt>
<trkpt lat="40.0713751" lon="-105.2297889">
  <ele>1583.02</ele>
  <time>2026-08-28T17:48:27Z</time>
  <course>247.09</course>
  <speed>0.022360679774997897</speed>
  <fix>3d</fix>
</trkpt>
<trkpt lat="40.0713749" lon="-105.229789">
  <ele>1583.0</ele>
  <time>2026-08-28T17:48:27Z</time>
  <course>0.0</course>
  <speed>0.0</speed>
  <fix>3d</fix>
</trkpt>
<trkpt lat="40.0713751" lon="-105.2297889">
  <ele>1583.02</ele>
  <time>2026-08-28T17:48:27Z</time>
  <course>247.09</course>
  <speed>0.022360679774997897</speed>
  <fix>3d</fix>
</trkpt>
<trkpt lat="40.0713749" lon="-105.229789">
  <ele>1583.0</ele>
  <time>2026-08-28T17:48:27Z</time>
  <course>0.0</course>
  <speed>0.0</speed>
  <fix>3d</fix>
</trkpt>
<trkpt lat="40.0713751" lon="-105.2297889">
  <ele>1583.02</ele>
  <time>2026-08-28T17:48:27Z</time>
  <course>247.09</course>
  <speed>0.022360679774997897</speed>
  <fix>3d</fix>
</trkpt>
<trkpt lat="40.0713749" lon="-105.229789">
  <ele>1583.0</ele>
  <time>2026-08-28T17:48:27Z</time>
  <course>0.0</course>
  <speed>0.0</speed>
  <fix>3d</fix>
</trkpt>
<trkpt lat="40.0713751" lon="-105.2297889">
  <ele>1583.01</ele>
  <time>2026-08-28T17:48:27Z</time>
  <course>247.09</course>
  <speed>0.022360679774997897</speed>
  <fix>3d</fix>
</trkpt>
<trkpt lat="40.0713749" lon="-105.229789">
  <ele>1583.0</ele>
  <time>2026-08-28T17:48:27Z</time>
  <course>0.0</course>
  <speed>0.0</speed>
  <fix>3d</fix>
</trkpt>
<trkpt lat="40.0713751" lon="-105.2297889">
  <ele>1583.01</ele>
  <time>2026-08-28T17:48:27Z</time>
  <course>247.09</course>
  <speed>0.022360679774997897</speed>
  <fix>3d</fix>
</trkpt>
<trkpt lat="40.0713749" lon="-105.229789">
  <ele>1583.0</ele>
  <time>2026-08-28T17:48:27Z</time>
  <course>0.0</course>
  <speed>0.0</speed>
  <fix>3d</fix>
</trkpt>
<trkpt lat="40.0713751" lon="-105.2297889">
  <ele>1583.02</ele>
  <time>2026-08-28T17:48:27Z</time>
  <course>247.09</course>
  <speed>0.022360679774997897</speed>
  <fix>3d</fix>
</trkpt>
<trkpt lat="40.0713749" lon="-105.229789">
  <ele>1583.0</ele>
  <time>2026-08-28T17:48:27Z</time>
  <course>0.0</course>
  <speed>0.0</speed>
  <fix>3d</fix>
</trkpt>
<trkpt lat="40.0713751" lon="-105.2297889">
  <ele>1583.02</ele>
  <time>2026-08-28T17:48:27Z</time>
  <course>247.09</course>
  <speed>0.022360679774997897</speed>
  <fix>3d</fix>
</trkpt>
<trkpt lat="40.0713749" lon="-105.229789">
  <ele>1583.0</ele>
  <time>2026-08-28T17:48:27Z</time>
  <course>0.0</course>
  <speed>0.0</speed>
  <fix>3d</fix>
</trkpt>
<trkpt lat="40.0713751" lon="-105.2297889">
  <ele>1583.02</ele>
  <time>2026-08-28T17:48:27Z</time>
  <course>247.09</course>
  <speed>0.022360679774997897</speed>
  <fix>3d</fix>
</trkpt>
<trkpt lat="40.0713749" lon="-105.229789">
  <ele>1583.0</ele>
  <time>2026-08-28T17:48:27Z</time>
  <course>0.0</course>
  <speed>0.0</speed>
  <fix>3d</fix>
</trkpt>
<trkpt lat="40.0713751" lon="-105.2297889">
  <ele>1583.01</ele>
  <time>2026-08-28T17:48:27Z</time>
  <course>247.09</course>
  <speed>0.022360679774997897</speed>
  <fix>3d</fix>
</trkpt>
<trkpt lat="40.0713749" lon="-105.229789">
  <ele>1583.0</ele>
  <time>2026-08-28T17:48:27Z</time>
  <course>0.0</course>
  <speed>0.0</speed>
  <fix>3d</fix>
</trkpt>
<trkpt lat="40.0713751" lon="-105.2297889">
  <ele>1583.01</ele>
  <time>2026-08-28T17:48:27Z</time>
  <course>247.09</course>
  <speed>0.022360679774997897</speed>
  <fix>3d</fix>
</trkpt>
<trkpt lat="40.0713749" lon="-105.229789">
  <ele>1583.0</ele>
  <time>2026-08-28T17:48:27Z</time>
  <course>0.0</course>
  <speed>0.0</speed>
  <fix>3d</fix>
</trkpt>
<trkpt lat="40.0713751" lon="-105.2297889">
  <ele>1583.0</ele>
  <time>2026-08-28T17:48:27Z</time>
  <course>247.09</course>
  <speed>0.022360679774997897</speed>
  <fix>3d</fix>
</trkpt>
<trkpt lat="40.0713749" lon="-105.229789">
  <ele>1583.0</ele>
  <time>2026-08-28T17:48:27Z</time>
  <course>0.0</course>
  <speed>0.0</speed>
  <fix>3d</fix>
</trkpt>
<trkpt lat="40.0713751" lon="-105.2297889">
  <ele>1583.0</ele>
  <time>2026-08-28T17:48:27Z</time>
  <course>247.09</course>
  <speed>0.022360679774997897</speed>
  <fix>3d</fix>
</trkpt>
<trkpt lat="40.0713749" lon="-105.229789">
  <ele>1583.0</ele>
  <time>2026-08-28T17:48:27Z</time>
  <course>0.0</course>
  <speed>0.0</speed>
  <fix>3d</fix>
</trkpt>
<trkpt lat="40.0713751" lon="-105.2297889">
  <ele>1582.99</ele>
  <time>2026-08-28T17:48:27Z</time>
  <course>247.09</course>
  <speed>0.022360679774997897</speed>
  <fix>3d</fix>
</trkpt>
<trkpt lat="40.0713749" lon="-105.229789">
  <ele>1583.0</ele>
  <time>2026-08-28T17:48:27Z</time>
  <course>0.0</course>
  <speed>0.0</speed>
  <fix>3d</fix>
</trkpt>
<trkpt lat="40.0713751" lon="-105.2297889">
  <ele>1582.98</ele>
  <time>2026-08-28T17:48:27Z</time>
  <course>247.09</course>
  <speed>0.022360679774997897</speed>
  <fix>3d</fix>
</trkpt>
<trkpt lat="40.0713749" lon="-105.229789">
  <ele>1583.0</ele>
  <time>2026-08-28T17:48:27Z</time>
  <course>0.0</course>
  <speed>0.0</speed>
  <fix>3d</fix>
</trkpt>
<trkpt lat="40.0713751" lon="-105.2297889">
  <ele>1582.97</ele>
  <time>2026-08-28T17:48:27Z</time>
  <course>247.09</course>
  <speed>0.022360679774997897</speed>
  <fix>3d</fix>
</trkpt>
<trkpt lat="40.0713749" lon="-105.229789">
  <ele>1583.0</ele>
  <time>2026-08-28T17:48:27Z</time>
  <course>0.0</course>
  <speed>0.0</speed>
  <fix>3d</fix>
</trkpt>
<trkpt lat="40.0713751" lon="-105.2297889">
  <ele>1582.96</ele>
  <time>2026-08-28T17:48:27Z</time>
  <course>247.09</course>
  <speed>0.022360679774997897</speed>
  <fix>3d</fix>
</trkpt>
<trkpt lat="40.0713749" lon="-105.229789">
  <ele>1583.0</ele>
  <time>2026-08-28T17:48:27Z</time>
  <course>0.0</course>
  <speed>0.0</speed>
  <fix>3d</fix>
</trkpt>
<trkpt lat="40.0713751" lon="-105.2297889">
  <ele>1582.95</ele>
  <time>2026-08-28T17:48:27Z</time>
  <course>247.09</course>
  <speed>0.022360679774997897</speed>
  <fix>3d</fix>
</trkpt>
<trkpt lat="40.0713749" lon="-105.229789">
  <ele>1583.0</ele>
  <time>2026-08-28T17:48:27Z</time>
  <course>0.0</course>
  <speed>0.0</speed>
  <fix>3d</fix>
</trkpt>
<trkpt lat="40.0713751" lon="-105.2297889">
  <ele>1582.94</ele>
  <time>2026-08-28T17:48:27Z</time>
  <course>247.09</course>
  <speed>0.022360679774997897</speed>
  <fix>3d</fix>
</trkpt>
<trkpt lat="40.0713749" lon="-105.229789">
  <ele>1583.0</ele>
  <time>2026-08-28T17:48:27Z</time>
  <course>0.0</course>
  <speed>0.0</speed>
  <fix>3d</fix>
</trkpt>
<trkpt lat="40.0713751" lon="-105.2297889">
  <ele>1582.94</ele>
  <time>2026-08-28T17:48:27Z</time>
  <course>247.09</course>
  <speed>0.022360679774997897</speed>
  <fix>3d</fix>
</trkpt>
<trkpt lat="40.0713749" lon="-105.229789">
  <ele>1583.0</ele>
  <time>2026-08-28T17:48:27Z</time>
  <course>0.0</course>
  <speed>0.0</speed>
  <fix>3d</fix>
</trkpt>
<trkpt lat="40.0713751" lon="-105.2297889">
  <ele>1582.94</ele>
  <time>2026-08-28T17:48:27Z</time>
  <course>247.09</course>
  <speed>0.022360679774997897</speed>
  <fix>3d</fix>
</trkpt>
<trkpt lat="40.0713749" lon="-105.229789">
  <ele>1583.0</ele>
  <time>2026-08-28T17:48:27Z</time>
  <course>0.0</course>
  <speed>0.0</speed>
  <fix>3d</fix>
</trkpt>
<trkpt lat="40.0713751" lon="-105.2297889">
  <ele>1582.94</ele>
  <time>2026-08-28T17:48:27Z</time>
  <course>247.09</course>
  <speed>0.022360679774997897</speed>
  <fix>3d</fix>
</trkpt>
<trkpt lat="40.0713749" lon="-105.229789">
  <ele>1583.0</ele>
  <time>2026-08-28T17:48:27Z</time>
  <course>0.0</course>
  <speed>0.0</speed>
  <fix>3d</fix>
</trkpt>
<trkpt lat="40.0713751" lon="-105.2297889">
  <ele>1582.94</ele>
  <time>2026-08-28T17:48:27Z</time>
  <course>247.09</course>
  <speed>0.022360679774997897</speed>
  <fix>3d</fix>
</trkpt>
<trkpt lat="40.0713749" lon="-105.229789">
  <ele>1583.0</ele>
  <time>2026-08-28T17:48:27Z</time>
  <course>0.0</course>
  <speed>0.0</speed>
  <fix>3d</fix>
</trkpt>
<trkpt lat="40.0713751" lon="-105.2297889">
  <ele>1582.95</ele>
  <time>2026-08-28T17:48:27Z</time>
  <course>247.09</course>
  <speed>0.022360679774997897</speed>
  <fix>3d</fix>
</trkpt>
<trkpt lat="40.0713749" lon="-105.229789">
  <ele>1583.0</ele>
  <time>2026-08-28T17:48:27Z</time>
  <course>0.0</course>
  <speed>0.0</speed>
  <fix>3d</fix>
</trkpt>
<trkpt lat="40.0713751" lon="-105.2297889">
  <ele>1582.95</ele>
  <time>2026-08-28T17:48:27Z</time>
  <course>247.09</course>
  <speed>0.022360679774997897</speed>
  <fix>3d</fix>
</trkpt>
<trkpt lat="40.0713749" lon="-105.229789">
  <ele>1583.0</ele>
  <time>2026-08-28T17:48:27Z</time>
  <course>0.0</course>
  <speed>0.0</speed>
  <fix>3d</fix>
</trkpt>
<trkpt lat="40.0713751" lon="-105.2297889">
  <ele>1582.96</ele>
  <time>2026-08-28T17:48:27Z</time>
  <course>247.09</course>
  <speed>0.022360679774997897</speed>
  <fix>3d</fix>
</trkpt>
<trkpt lat="40.0713749" lon="-105.229789">
  <ele>1583.0</ele>
  <time>2026-08-28T17:48:27Z</time>
  <course>0.0</course>
  <speed>0.0</speed>
  <fix>3d</fix>
</trkpt>
<trkpt lat="40.0713751" lon="-105.2297889">
  <ele>1582.96</ele>
  <time>2026-08-28T17:48:27Z</time>
  <course>247.09</course>
  <speed>0.022360679774997897</speed>
  <fix>3d</fix>
</trkpt>
<trkpt lat="40.0713749" lon="-105.229789">
  <ele>1583.0</ele>
  <time>2026-08-28T17:48:27Z</time>
  <course>0.0</course>
  <speed>0.0</speed>
  <fix>3d</fix>
</trkpt>
<trkpt lat="40.0713751" lon="-105.2297889">
  <ele>1582.97</ele>
  <time>2026-08-28T17:48:27Z</time>
  <course>247.09</course>
  <speed>0.022360679774997897</speed>
  <fix>3d</fix>
</trkpt>
<trkpt lat="40.0713749" lon="-105.229789">
  <ele>1583.0</ele>
  <time>2026-08-28T17:48:27Z</time>
  <course>0.0</course>
  <speed>0.0</speed>
  <fix>3d</fix>
</trkpt>
<trkpt lat="40.0713751" lon="-105.2297889">
  <ele>1582.97</ele>
  <time>2026-08-28T17:48:27Z</time>
  <course>247.09</course>
  <speed>0.022360679774997897</speed>
  <fix>3d</fix>
</trkpt>
<trkpt lat="40.0713749" lon="-105.229789">
  <ele>1583.0</ele>
  <time>2026-08-28T17:48:27Z</time>
  <course>0.0</course>
  <speed>0.0</speed>
  <fix>3d</fix>
</trkpt>
<trkpt lat="40.0713751" lon="-105.2297889">
  <ele>1582.98</ele>
  <time>2026-08-28T17:48:27Z</time>
  <course>247.09</course>
  <speed>0.022360679774997897</speed>
  <fix>3d</fix>
</trkpt>
<trkpt lat="40.0713749" lon="-105.229789">
  <ele>1583.0</ele>
  <time>2026-08-28T17:48:27Z</time>
  <course>0.0</course>
  <speed>0.0</speed>
  <fix>3d</fix>
</trkpt>
<trkpt lat="40.0713751" lon="-105.2297889">
  <ele>1582.97</ele>
  <time>2026-08-28T17:48:27Z</time>
  <course>247.09</course>
  <speed>0.022360679774997897</speed>
  <fix>3d</fix>
</trkpt>
<trkpt lat="40.0713749" lon="-105.229789">
  <ele>1583.0</ele>
  <time>2026-08-28T17:48:27Z</time>
  <course>0.0</course>
  <speed>0.0</speed>
  <fix>3d</fix>
</trkpt>
<trkpt lat="40.0713751" lon="-105.2297889">
  <ele>1582.97</ele>
  <time>2026-08-28T17:48:27Z</time>
  <course>247.09</course>
  <speed>0.022360679774997897</speed>
  <fix>3d</fix>
</trkpt>
<trkpt lat="40.0713749" lon="-105.229789">
  <ele>1583.0</ele>
  <time>2026-08-28T17:48:27Z</time>
  <course>0.0</course>
  <speed>0.0</speed>
  <fix>3d</fix>
</trkpt>
<trkpt lat="40.0713751" lon="-105.2297889">
  <ele>1582.97</ele>
  <time>2026-08-28T17:48:27Z</time>
  <course>247.09</course>
  <speed>0.022360679774997897</speed>
  <fix>3d</fix>
</trkpt>
<trkpt lat="40.0713749" lon="-105.229789">
  <ele>1583.0</ele>
  <time>2026-08-28T17:48:27Z</time>
  <course>0.0</course>
  <speed>0.0</speed>
  <fix>3d</fix>
</trkpt>
<trkpt lat="40.0713751" lon="-105.2297889">
  <ele>1582.96</ele>
  <time>2026-08-28T17:48:27Z</time>
  <course>247.09</course>
  <speed>0.022360679774997897</speed>
  <fix>3d</fix>
</trkpt>
<trkpt lat="40.0713749" lon="-105.229789">
  <ele>1583.0</ele>
  <time>2026-08-28T17:48:27Z</time>
  <course>0.0</course>
  <speed>0.0</speed>
  <fix>3d</fix>
</trkpt>
<trkpt lat="40.0713751" lon="-105.2297889">
  <ele>1582.95</ele>
  <time>2026-08-28T17:48:27Z</time>
  <course>247.09</course>
  <speed>0.022360679774997897</speed>
  <fix>3d</fix>
</trkpt>
<trkpt lat="40.0713749" lon="-105.229789">
  <ele>1583.0</ele>
  <time>2026-08-28T17:48:27Z</time>
  <course>0.0</course>
  <speed>0.0</speed>
  <fix>3d</fix>
</trkpt>
<trkpt lat="40.0713751" lon="-105.2297889">
  <ele>1582.95</ele>
  <time>2026-08-28T17:48:27Z</time>
  <course>247.09</course>
  <speed>0.022360679774997897</speed>
  <fix>3d</fix>
</trkpt>
<trkpt lat="40.0713749" lon="-105.229789">
  <ele>1583.0</ele>
  <time>2026-08-28T17:48:27Z</time>
  <course>0.0</course>
  <speed>0.0</speed>
  <fix>3d</fix>
</trkpt>
<trkpt lat="40.0713751" lon="-105.2297889">
  <ele>1582.94</ele>
  <time>2026-08-28T17:48:27Z</time>
  <course>247.09</course>
  <speed>0.022360679774997897</speed>
  <fix>3d</fix>
</trkpt>
<trkpt lat="40.0713749" lon="-105.229789">
  <ele>1583.0</ele>
  <time>2026-08-28T17:48:27Z</time>
  <course>0.0</course>
  <speed>0.0</speed>
  <fix>3d</fix>
</trkpt>
<trkpt lat="40.071375" lon="-105.2297889">
  <ele>1582.93</ele>
  <time>2026-08-28T17:48:27Z</time>
  <course>247.09</course>
  <speed>0.02</speed>
  <fix>3d</fix>
</trkpt>
<trkpt lat="40.0713749" lon="-105.229789">
  <ele>1583.0</ele>
  <time>2026-08-28T17:48:27Z</time>
  <course>0.0</course>
  <speed>0.0</speed>
  <fix>3d</fix>
</trkpt>
<trkpt lat="40.0713751" lon="-105.2297889">
  <ele>1582.93</ele>
  <time>2026-08-28T17:48:27Z</time>
  <course>247.08</course>
  <speed>0.022360679774997897</speed>
  <fix>3d</fix>
</trkpt>
<trkpt lat="40.0713749" lon="-105.229789">
  <ele>1583.0</ele>
  <time>2026-08-28T17:48:27Z</time>
  <course>0.0</course>
  <speed>0.0</speed>
  <fix>3d</fix>
</trkpt>
<trkpt lat="40.071375" lon="-105.2297889">
  <ele>1582.92</ele>
  <time>2026-08-28T17:48:27Z</time>
  <course>247.08</course>
  <speed>0.02</speed>
  <fix>3d</fix>
</trkpt>
<trkpt lat="40.0713749" lon="-105.229789">
  <ele>1583.0</ele>
  <time>2026-08-28T17:48:27Z</time>
  <course>0.0</course>
  <speed>0.0</speed>
  <fix>3d</fix>
</trkpt>
<trkpt lat="40.0713751" lon="-105.2297889">
  <ele>1582.92</ele>
  <time>2026-08-28T17:48:27Z</time>
  <course>247.08</course>
  <speed>0.022360679774997897</speed>
  <fix>3d</fix>
</trkpt>
<trkpt lat="40.0713749" lon="-105.229789">
  <ele>1583.0</ele>
  <time>2026-08-28T17:48:27Z</time>
  <course>0.0</course>
  <speed>0.0</speed>
  <fix>3d</fix>
</trkpt>
<trkpt lat="40.0713751" lon="-105.2297889">
  <ele>1582.91</ele>
  <time>2026-08-28T17:48:27Z</time>
  <course>247.08</course>
  <speed>0.022360679774997897</speed>
  <fix>3d</fix>
</trkpt>
<trkpt lat="40.0713749" lon="-105.229789">
  <ele>1583.0</ele>
  <time>2026-08-28T17:48:27Z</time>
  <course>0.0</course>
  <speed>0.0</speed>
  <fix>3d</fix>
</trkpt>
<trkpt lat="40.0713751" lon="-105.2297889">
  <ele>1582.91</ele>
  <time>2026-08-28T17:48:27Z</time>
  <course>247.08</course>
  <speed>0.022360679774997897</speed>
  <fix>3d</fix>
</trkpt>
<trkpt lat="40.0713749" lon="-105.229789">
  <ele>1583.0</ele>
  <time>2026-08-28T17:48:27Z</time>
  <course>0.0</course>
  <speed>0.0</speed>
  <fix>3d</fix>
</trkpt>
<trkpt lat="40.0713751" lon="-105.2297889">
  <ele>1582.91</ele>
  <time>2026-08-28T17:48:27Z</time>
  <course>247.08</course>
  <speed>0.022360679774997897</speed>
  <fix>3d</fix>
</trkpt>
<trkpt lat="40.0713749" lon="-105.229789">
  <ele>1583.0</ele>
  <time>2026-08-28T17:48:27Z</time>
  <course>0.0</course>
  <speed>0.0</speed>
  <fix>3d</fix>
</trkpt>
<trkpt lat="40.0713751" lon="-105.2297889">
  <ele>1582.9</ele>
  <time>2026-08-28T17:48:27Z</time>
  <course>247.08</course>
  <speed>0.022360679774997897</speed>
  <fix>3d</fix>
</trkpt>
<trkpt lat="40.0713749" lon="-105.229789">
  <ele>1583.0</ele>
  <time>2026-08-28T17:48:27Z</time>
  <course>0.0</course>
  <speed>0.0</speed>
  <fix>3d</fix>
</trkpt>
<trkpt lat="40.0713751" lon="-105.2297889">
  <ele>1582.9</ele>
  <time>2026-08-28T17:48:27Z</time>
  <course>247.08</course>
  <speed>0.022360679774997897</speed>
  <fix>3d</fix>
</trkpt>
<trkpt lat="40.0713749" lon="-105.229789">
  <ele>1583.0</ele>
  <time>2026-08-28T17:48:27Z</time>
  <course>0.0</course>
  <speed>0.0</speed>
  <fix>3d</fix>
</trkpt>
<trkpt lat="40.0713751" lon="-105.2297889">
  <ele>1582.9</ele>
  <time>2026-08-28T17:48:27Z</time>
  <course>247.08</course>
  <speed>0.022360679774997897</speed>
  <fix>3d</fix>
</trkpt>
<trkpt lat="40.0713749" lon="-105.229789">
  <ele>1583.0</ele>
  <time>2026-08-28T17:48:27Z</time>
  <course>0.0</course>
  <speed>0.0</speed>
  <fix>3d</fix>
</trkpt>
<trkpt lat="40.0713751" lon="-105.2297889">
  <ele>1582.89</ele>
  <time>2026-08-28T17:48:28Z</time>
  <course>247.08</course>
  <speed>0.022360679774997897</speed>
  <fix>3d</fix>
</trkpt>
<trkpt lat="40.0713749" lon="-105.229789">
  <ele>1583.0</ele>
  <time>2026-08-28T17:48:28Z</time>
  <course>0.0</course>
  <speed>0.0</speed>
  <fix>3d</fix>
</trkpt>
<trkpt lat="40.0713751" lon="-105.2297889">
  <ele>1582.89</ele>
  <time>2026-08-28T17:48:28Z</time>
  <course>247.08</course>
  <speed>0.022360679774997897</speed>
  <fix>3d</fix>
</trkpt>
<trkpt lat="40.0713749" lon="-105.229789">
  <ele>1583.0</ele>
  <time>2026-08-28T17:48:28Z</time>
  <course>0.0</course>
  <speed>0.0</speed>
  <fix>3d</fix>
</trkpt>
<trkpt lat="40.0713751" lon="-105.2297889">
  <ele>1582.89</ele>
  <time>2026-08-28T17:48:28Z</time>
  <course>247.08</course>
  <speed>0.022360679774997897</speed>
  <fix>3d</fix>
</trkpt>
<trkpt lat="40.0713749" lon="-105.229789">
  <ele>1583.0</ele>
  <time>2026-08-28T17:48:28Z</time>
  <course>0.0</course>
  <speed>0.0</speed>
  <fix>3d</fix>
</trkpt>
<trkpt lat="40.0713751" lon="-105.2297889">
  <ele>1582.9</ele>
  <time>2026-08-28T17:48:28Z</time>
  <course>247.08</course>
  <speed>0.022360679774997897</speed>
  <fix>3d</fix>
</trkpt>
<trkpt lat="40.0713749" lon="-105.229789">
  <ele>1583.0</ele>
  <time>2026-08-28T17:48:28Z</time>
  <course>0.0</course>
  <speed>0.0</speed>
  <fix>3d</fix>
</trkpt>
<trkpt lat="40.0713751" lon="-105.2297889">
  <ele>1582.9</ele>
  <time>2026-08-28T17:48:28Z</time>
  <course>247.08</course>
  <speed>0.022360679774997897</speed>
  <fix>3d</fix>
</trkpt>
<trkpt lat="40.0713749" lon="-105.229789">
  <ele>1583.0</ele>
  <time>2026-08-28T17:48:28Z</time>
  <course>0.0</course>
  <speed>0.0</speed>
  <fix>3d</fix>
</trkpt>
<trkpt lat="40.0713751" lon="-105.2297889">
  <ele>1582.9</ele>
  <time>2026-08-28T17:48:28Z</time>
  <course>247.08</course>
  <speed>0.022360679774997897</speed>
  <fix>3d</fix>
</trkpt>
<trkpt lat="40.0713749" lon="-105.229789">
  <ele>1583.0</ele>
  <time>2026-08-28T17:48:28Z</time>
  <course>0.0</course>
  <speed>0.0</speed>
  <fix>3d</fix>
</trkpt>
<trkpt lat="40.0713751" lon="-105.2297889">
  <ele>1582.9</ele>
  <time>2026-08-28T17:48:28Z</time>
  <course>247.08</course>
  <speed>0.022360679774997897</speed>
  <fix>3d</fix>
</trkpt>
<trkpt lat="40.0713749" lon="-105.229789">
  <ele>1583.0</ele>
  <time>2026-08-28T17:48:28Z</time>
  <course>0.0</course>
  <speed>0.0</speed>
  <fix>3d</fix>
</trkpt>
<trkpt lat="40.0713751" lon="-105.2297889">
  <ele>1582.91</ele>
  <time>2026-08-28T17:48:28Z</time>
  <course>247.08</course>
  <speed>0.022360679774997897</speed>
  <fix>3d</fix>
</trkpt>
<trkpt lat="40.0713749" lon="-105.229789">
  <ele>1583.0</ele>
  <time>2026-08-28T17:48:28Z</time>
  <course>0.0</course>
  <speed>0.0</speed>
  <fix>3d</fix>
</trkpt>
<trkpt lat="40.071375" lon="-105.2297889">
  <ele>1582.91</ele>
  <time>2026-08-28T17:48:28Z</time>
  <course>247.08</course>
  <speed>0.022360679774997897</speed>
  <fix>3d</fix>
</trkpt>
<trkpt lat="40.0713749" lon="-105.229789">
  <ele>1583.0</ele>
  <time>2026-08-28T17:48:28Z</time>
  <course>0.0</course>
  <speed>0.0</speed>
  <fix>3d</fix>
</trkpt>
<trkpt lat="40.0713751" lon="-105.2297889">
  <ele>1582.91</ele>
  <time>2026-08-28T17:48:28Z</time>
  <course>247.08</course>
  <speed>0.022360679774997897</speed>
  <fix>3d</fix>
</trkpt>
<trkpt lat="40.0713749" lon="-105.229789">
  <ele>1583.0</ele>
  <time>2026-08-28T17:48:28Z</time>
  <course>0.0</course>
  <speed>0.0</speed>
  <fix>3d</fix>
</trkpt>
<trkpt lat="40.071375" lon="-105.2297889">
  <ele>1582.91</ele>
  <time>2026-08-28T17:48:28Z</time>
  <course>247.08</course>
  <speed>0.022360679774997897</speed>
  <fix>3d</fix>
</trkpt>
<trkpt lat="40.0713749" lon="-105.229789">
  <ele>1583.0</ele>
  <time>2026-08-28T17:48:28Z</time>
  <course>0.0</course>
  <speed>0.0</speed>
  <fix>3d</fix>
</trkpt>
<trkpt lat="40.0713751" lon="-105.2297889">
  <ele>1582.92</ele>
  <time>2026-08-28T17:48:28Z</time>
  <course>247.08</course>
  <speed>0.022360679774997897</speed>
  <fix>3d</fix>
</trkpt>
<trkpt lat="40.0713749" lon="-105.229789">
  <ele>1583.0</ele>
  <time>2026-08-28T17:48:28Z</time>
  <course>0.0</course>
  <speed>0.0</speed>
  <fix>3d</fix>
</trkpt>
<trkpt lat="40.071375" lon="-105.2297889">
  <ele>1582.92</ele>
  <time>2026-08-28T17:48:28Z</time>
  <course>247.08</course>
  <speed>0.022360679774997897</speed>
  <fix>3d</fix>
</trkpt>
<trkpt lat="40.0713749" lon="-105.229789">
  <ele>1583.0</ele>
  <time>2026-08-28T17:48:28Z</time>
  <course>0.0</course>
  <speed>0.0</speed>
  <fix>3d</fix>
</trkpt>
<trkpt lat="40.0713751" lon="-105.2297889">
  <ele>1582.93</ele>
  <time>2026-08-28T17:48:28Z</time>
  <course>247.08</course>
  <speed>0.022360679774997897</speed>
  <fix>3d</fix>
</trkpt>
<trkpt lat="40.0713749" lon="-105.229789">
  <ele>1583.0</ele>
  <time>2026-08-28T17:48:28Z</time>
  <course>0.0</course>
  <speed>0.0</speed>
  <fix>3d</fix>
</trkpt>
<trkpt lat="40.071375" lon="-105.2297889">
  <ele>1582.93</ele>
  <time>2026-08-28T17:48:28Z</time>
  <course>247.08</course>
  <speed>0.022360679774997897</speed>
  <fix>3d</fix>
</trkpt>
<trkpt lat="40.0713749" lon="-105.229789">
  <ele>1583.0</ele>
  <time>2026-08-28T17:48:28Z</time>
  <course>0.0</course>
  <speed>0.0</speed>
  <fix>3d</fix>
</trkpt>
<trkpt lat="40.0713751" lon="-105.2297889">
  <ele>1582.94</ele>
  <time>2026-08-28T17:48:28Z</time>
  <course>247.08</course>
  <speed>0.022360679774997897</speed>
  <fix>3d</fix>
</trkpt>
<trkpt lat="40.0713749" lon="-105.229789">
  <ele>1583.0</ele>
  <time>2026-08-28T17:48:28Z</time>
  <course>0.0</course>
  <speed>0.0</speed>
  <fix>3d</fix>
</trkpt>
<trkpt lat="40.0713751" lon="-105.2297889">
  <ele>1582.95</ele>
  <time>2026-08-28T17:48:28Z</time>
  <course>247.08</course>
  <speed>0.022360679774997897</speed>
  <fix>3d</fix>
</trkpt>
<trkpt lat="40.0713749" lon="-105.229789">
  <ele>1583.0</ele>
  <time>2026-08-28T17:48:28Z</time>
  <course>0.0</course>
  <speed>0.0</speed>
  <fix>3d</fix>
</trkpt>
<trkpt lat="40.0713751" lon="-105.2297889">
  <ele>1582.95</ele>
  <time>2026-08-28T17:48:28Z</time>
  <course>247.08</course>
  <speed>0.022360679774997897</speed>
  <fix>3d</fix>
</trkpt>
<trkpt lat="40.0713749" lon="-105.229789">
  <ele>1583.0</ele>
  <time>2026-08-28T17:48:28Z</time>
  <course>0.0</course>
  <speed>0.0</speed>
  <fix>3d</fix>
</trkpt>
<trkpt lat="40.0713751" lon="-105.2297889">
  <ele>1582.96</ele>
  <time>2026-08-28T17:48:28Z</time>
  <course>247.08</course>
  <speed>0.022360679774997897</speed>
  <fix>3d</fix>
</trkpt>
<trkpt lat="40.0713749" lon="-105.229789">
  <ele>1583.0</ele>
  <time>2026-08-28T17:48:28Z</time>
  <course>0.0</course>
  <speed>0.0</speed>
  <fix>3d</fix>
</trkpt>
<trkpt lat="40.0713751" lon="-105.2297889">
  <ele>1582.96</ele>
  <time>2026-08-28T17:48:28Z</time>
  <course>247.08</course>
  <speed>0.022360679774997897</speed>
  <fix>3d</fix>
</trkpt>
<trkpt lat="40.0713749" lon="-105.229789">
  <ele>1583.0</ele>
  <time>2026-08-28T17:48:28Z</time>
  <course>0.0</course>
  <speed>0.0</speed>
  <fix>3d</fix>
</trkpt>
<trkpt lat="40.0713751" lon="-105.2297889">
  <ele>1582.97</ele>
  <time>2026-08-28T17:48:28Z</time>
  <course>247.08</course>
  <speed>0.022360679774997897</speed>
  <fix>3d</fix>
</trkpt>
<trkpt lat="40.0713749" lon="-105.229789">
  <ele>1583.0</ele>
  <time>2026-08-28T17:48:28Z</time>
  <course>0.0</course>
  <speed>0.0</speed>
  <fix>3d</fix>
</trkpt>
<trkpt lat="40.0713751" lon="-105.2297889">
  <ele>1582.97</ele>
  <time>2026-08-28T17:48:28Z</time>
  <course>247.08</course>
  <speed>0.022360679774997897</speed>
  <fix>3d</fix>
</trkpt>
<trkpt lat="40.0713749" lon="-105.229789">
  <ele>1583.0</ele>
  <time>2026-08-28T17:48:28Z</time>
  <course>0.0</course>
  <speed>0.0</speed>
  <fix>3d</fix>
</trkpt>
<trkpt lat="40.0713751" lon="-105.2297889">
  <ele>1582.97</ele>
  <time>2026-08-28T17:48:28Z</time>
  <course>247.08</course>
  <speed>0.022360679774997897</speed>
  <fix>3d</fix>
</trkpt>
<trkpt lat="40.0713749" lon="-105.229789">
  <ele>1583.0</ele>
  <time>2026-08-28T17:48:28Z</time>
  <course>0.0</course>
  <speed>0.0</speed>
  <fix>3d</fix>
</trkpt>
<trkpt lat="40.0713751" lon="-105.2297889">
  <ele>1582.98</ele>
  <time>2026-08-28T17:48:28Z</time>
  <course>247.08</course>
  <speed>0.022360679774997897</speed>
  <fix>3d</fix>
</trkpt>
<trkpt lat="40.0713749" lon="-105.229789">
  <ele>1583.0</ele>
  <time>2026-08-28T17:48:28Z</time>
  <course>0.0</course>
  <speed>0.0</speed>
  <fix>3d</fix>
</trkpt>
<trkpt lat="40.0713751" lon="-105.2297889">
  <ele>1582.98</ele>
  <time>2026-08-28T17:48:28Z</time>
  <course>247.08</course>
  <speed>0.022360679774997897</speed>
  <fix>3d</fix>
</trkpt>
<trkpt lat="40.0713749" lon="-105.229789">
  <ele>1583.0</ele>
  <time>2026-08-28T17:48:28Z</time>
  <course>0.0</course>
  <speed>0.0</speed>
  <fix>3d</fix>
</trkpt>
<trkpt lat="40.0713751" lon="-105.2297889">
  <ele>1582.97</ele>
  <time>2026-08-28T17:48:28Z</time>
  <course>247.08</course>
  <speed>0.022360679774997897</speed>
  <fix>3d</fix>
</trkpt>
<trkpt lat="40.0713749" lon="-105.229789">
  <ele>1583.0</ele>
  <time>2026-08-28T17:48:28Z</time>
  <course>0.0</course>
  <speed>0.0</speed>
  <fix>3d</fix>
</trkpt>
<trkpt lat="40.0713751" lon="-105.2297889">
  <ele>1582.97</ele>
  <time>2026-08-28T17:48:28Z</time>
  <course>247.08</course>
  <speed>0.022360679774997897</speed>
  <fix>3d</fix>
</trkpt>
<trkpt lat="40.0713749" lon="-105.229789">
  <ele>1583.0</ele>
  <time>2026-08-28T17:48:28Z</time>
  <course>0.0</course>
  <speed>0.0</speed>
  <fix>3d</fix>
</trkpt>
<trkpt lat="40.0713751" lon="-105.2297889">
  <ele>1582.97</ele>
  <time>2026-08-28T17:48:28Z</time>
  <course>247.08</course>
  <speed>0.022360679774997897</speed>
  <fix>3d</fix>
</trkpt>
<trkpt lat="40.0713749" lon="-105.229789">
  <ele>1583.0</ele>
  <time>2026-08-28T17:48:28Z</time>
  <course>0.0</course>
  <speed>0.0</speed>
  <fix>3d</fix>
</trkpt>
<trkpt lat="40.071375" lon="-105.2297889">
  <ele>1582.97</ele>
  <time>2026-08-28T17:48:28Z</time>
  <course>247.08</course>
  <speed>0.022360679774997897</speed>
  <fix>3d</fix>
</trkpt>
<trkpt lat="40.0713749" lon="-105.229789">
  <ele>1583.0</ele>
  <time>2026-08-28T17:48:28Z</time>
  <course>0.0</course>
  <speed>0.0</speed>
  <fix>3d</fix>
</trkpt>
<trkpt lat="40.0713751" lon="-105.2297889">
  <ele>1582.96</ele>
  <time>2026-08-28T17:48:28Z</time>
  <course>247.08</course>
  <speed>0.022360679774997897</speed>
  <fix>3d</fix>
</trkpt>
<trkpt lat="40.0713749" lon="-105.229789">
  <ele>1583.0</ele>
  <time>2026-08-28T17:48:28Z</time>
  <course>0.0</course>
  <speed>0.0</speed>
  <fix>3d</fix>
</trkpt>
<trkpt lat="40.071375" lon="-105.2297889">
  <ele>1582.96</ele>
  <time>2026-08-28T17:48:28Z</time>
  <course>247.08</course>
  <speed>0.022360679774997897</speed>
  <fix>3d</fix>
</trkpt>
<trkpt lat="40.0713749" lon="-105.229789">
  <ele>1583.0</ele>
  <time>2026-08-28T17:48:28Z</time>
  <course>0.0</course>
  <speed>0.0</speed>
  <fix>3d</fix>
</trkpt>
<trkpt lat="40.0713751" lon="-105.2297889">
  <ele>1582.95</ele>
  <time>2026-08-28T17:48:28Z</time>
  <course>247.08</course>
  <speed>0.022360679774997897</speed>
  <fix>3d</fix>
</trkpt>
<trkpt lat="40.0713749" lon="-105.229789">
  <ele>1583.0</ele>
  <time>2026-08-28T17:48:28Z</time>
  <course>0.0</course>
  <speed>0.0</speed>
  <fix>3d</fix>
</trkpt>
<trkpt lat="40.071375" lon="-105.2297889">
  <ele>1582.95</ele>
  <time>2026-08-28T17:48:28Z</time>
  <course>247.08</course>
  <speed>0.022360679774997897</speed>
  <fix>3d</fix>
</trkpt>
<trkpt lat="40.0713749" lon="-105.229789">
  <ele>1583.0</ele>
  <time>2026-08-28T17:48:28Z</time>
  <course>0.0</course>
  <speed>0.0</speed>
  <fix>3d</fix>
</trkpt>
<trkpt lat="40.0713751" lon="-105.2297889">
  <ele>1582.94</ele>
  <time>2026-08-28T17:48:28Z</time>
  <course>247.08</course>
  <speed>0.022360679774997897</speed>
  <fix>3d</fix>
</trkpt>
<trkpt lat="40.0713749" lon="-105.229789">
  <ele>1583.0</ele>
  <time>2026-08-28T17:48:28Z</time>
  <course>0.0</course>
  <speed>0.0</speed>
  <fix>3d</fix>
</trkpt>
<trkpt lat="40.071375" lon="-105.2297889">
  <ele>1582.94</ele>
  <time>2026-08-28T17:48:28Z</time>
  <course>247.08</course>
  <speed>0.022360679774997897</speed>
  <fix>3d</fix>
</trkpt>
<trkpt lat="40.0713749" lon="-105.229789">
  <ele>1583.0</ele>
  <time>2026-08-28T17:48:28Z</time>
  <course>0.0</course>
  <speed>0.0</speed>
  <fix>3d</fix>
</trkpt>
<trkpt lat="40.0713751" lon="-105.2297889">
  <ele>1582.95</ele>
  <time>2026-08-28T17:48:28Z</time>
  <course>247.08</course>
  <speed>0.022360679774997897</speed>
  <fix>3d</fix>
</trkpt>
<trkpt lat="40.0713749" lon="-105.229789">
  <ele>1583.0</ele>
  <time>2026-08-28T17:48:28Z</time>
  <course>0.0</course>
  <speed>0.0</speed>
  <fix>3d</fix>
</trkpt>
<trkpt lat="40.071375" lon="-105.2297889">
  <ele>1582.95</ele>
  <time>2026-08-28T17:48:28Z</time>
  <course>247.08</course>
  <speed>0.022360679774997897</speed>
  <fix>3d</fix>
</trkpt>
<trkpt lat="40.0713749" lon="-105.229789">
  <ele>1583.0</ele>
  <time>2026-08-28T17:48:28Z</time>
  <course>0.0</course>
  <speed>0.0</speed>
  <fix>3d</fix>
</trkpt>
<trkpt lat="40.0713751" lon="-105.2297889">
  <ele>1582.95</ele>
  <time>2026-08-28T17:48:28Z</time>
  <course>247.08</course>
  <speed>0.022360679774997897</speed>
  <fix>3d</fix>
</trkpt>
<trkpt lat="40.0713749" lon="-105.229789">
  <ele>1583.0</ele>
  <time>2026-08-28T17:48:28Z</time>
  <course>0.0</course>
  <speed>0.0</speed>
  <fix>3d</fix>
</trkpt>
<trkpt lat="40.071375" lon="-105.2297889">
  <ele>1582.96</ele>
  <time>2026-08-28T17:48:28Z</time>
  <course>247.08</course>
  <speed>0.022360679774997897</speed>
  <fix>3d</fix>
</trkpt>
<trkpt lat="40.0713749" lon="-105.229789">
  <ele>1583.0</ele>
  <time>2026-08-28T17:48:28Z</time>
  <course>0.0</course>
  <speed>0.0</speed>
  <fix>3d</fix>
</trkpt>
<trkpt lat="40.0713751" lon="-105.2297889">
  <ele>1582.96</ele>
  <time>2026-08-28T17:48:28Z</time>
  <course>247.08</course>
  <speed>0.022360679774997897</speed>
  <fix>3d</fix>
</trkpt>
<trkpt lat="40.0713749" lon="-105.229789">
  <ele>1583.0</ele>
  <time>2026-08-28T17:48:28Z</time>
  <course>0.0</course>
  <speed>0.0</speed>
  <fix>3d</fix>
</trkpt>
<trkpt lat="40.071375" lon="-105.2297889">
  <ele>1582.96</ele>
  <time>2026-08-28T17:48:28Z</time>
  <course>247.08</course>
  <speed>0.022360679774997897</speed>
  <fix>3d</fix>
</trkpt>
<trkpt lat="40.0713749" lon="-105.229789">
  <ele>1583.0</ele>
  <time>2026-08-28T17:48:28Z</time>
  <course>0.0</course>
  <speed>0.0</speed>
  <fix>3d</fix>
</trkpt>
<trkpt lat="40.0713751" lon="-105.2297889">
  <ele>1582.97</ele>
  <time>2026-08-28T17:48:28Z</time>
  <course>247.08</course>
  <speed>0.022360679774997897</speed>
  <fix>3d</fix>
</trkpt>
<trkpt lat="40.0713749" lon="-105.229789">
  <ele>1583.0</ele>
  <time>2026-08-28T17:48:28Z</time>
  <course>0.0</course>
  <speed>0.0</speed>
  <fix>3d</fix>
</trkpt>
<trkpt lat="40.0713751" lon="-105.2297889">
  <ele>1582.97</ele>
  <time>2026-08-28T17:48:28Z</time>
  <course>247.08</course>
  <speed>0.022360679774997897</speed>
  <fix>3d</fix>
</trkpt>
<trkpt lat="40.0713749" lon="-105.229789">
  <ele>1583.0</ele>
  <time>2026-08-28T17:48:28Z</time>
  <course>0.0</course>
  <speed>0.0</speed>
  <fix>3d</fix>
</trkpt>
<trkpt lat="40.0713751" lon="-105.2297889">
  <ele>1582.97</ele>
  <time>2026-08-28T17:48:28Z</time>
  <course>247.08</course>
  <speed>0.022360679774997897</speed>
  <fix>3d</fix>
</trkpt>
<trkpt lat="40.0713749" lon="-105.229789">
  <ele>1583.0</ele>
  <time>2026-08-28T17:48:28Z</time>
  <course>0.0</course>
  <speed>0.0</speed>
  <fix>3d</fix>
</trkpt>
<trkpt lat="40.0713751" lon="-105.2297889">
  <ele>1582.97</ele>
  <time>2026-08-28T17:48:28Z</time>
  <course>247.08</course>
  <speed>0.022360679774997897</speed>
  <fix>3d</fix>
</trkpt>
<trkpt lat="40.0713749" lon="-105.229789">
  <ele>1583.0</ele>
  <time>2026-08-28T17:48:28Z</time>
  <course>0.0</course>
  <speed>0.0</speed>
  <fix>3d</fix>
</trkpt>
<trkpt lat="40.0713751" lon="-105.2297889">
  <ele>1582.97</ele>
  <time>2026-08-28T17:48:28Z</time>
  <course>247.08</course>
  <speed>0.022360679774997897</speed>
  <fix>3d</fix>
</trkpt>
<trkpt lat="40.0713749" lon="-105.229789">
  <ele>1583.0</ele>
  <time>2026-08-28T17:48:28Z</time>
  <course>0.0</course>
  <speed>0.0</speed>
  <fix>3d</fix>
</trkpt>
<trkpt lat="40.0713751" lon="-105.2297889">
  <ele>1582.97</ele>
  <time>2026-08-28T17:48:28Z</time>
  <course>247.08</course>
  <speed>0.022360679774997897</speed>
  <fix>3d</fix>
</trkpt>
<trkpt lat="40.0713749" lon="-105.229789">
  <ele>1583.0</ele>
  <time>2026-08-28T17:48:28Z</time>
  <course>0.0</course>
  <speed>0.0</speed>
  <fix>3d</fix>
</trkpt>
<trkpt lat="40.0713751" lon="-105.2297889">
  <ele>1582.97</ele>
  <time>2026-08-28T17:48:28Z</time>
  <course>247.08</course>
  <speed>0.022360679774997897</speed>
  <fix>3d</fix>
</trkpt>
<trkpt lat="40.0713749" lon="-105.229789">
  <ele>1583.0</ele>
  <time>2026-08-28T17:48:28Z</time>
  <course>0.0</course>
  <speed>0.0</speed>
  <fix>3d</fix>
</trkpt>
<trkpt lat="40.071375" lon="-105.2297889">
  <ele>1582.97</ele>
  <time>2026-08-28T17:48:28Z</time>
  <course>247.08</course>
  <speed>0.022360679774997897</speed>
  <fix>3d</fix>
</trkpt>
<trkpt lat="40.0713749" lon="-105.229789">
  <ele>1583.0</ele>
  <time>2026-08-28T17:48:28Z</time>
  <course>0.0</course>
  <speed>0.0</speed>
  <fix>3d</fix>
</trkpt>
<trkpt lat="40.0713751" lon="-105.2297889">
  <ele>1582.97</ele>
  <time>2026-08-28T17:48:28Z</time>
  <course>247.08</course>
  <speed>0.022360679774997897</speed>
  <fix>3d</fix>
</trkpt>
<trkpt lat="40.0713749" lon="-105.229789">
  <ele>1583.0</ele>
  <time>2026-08-28T17:48:28Z</time>
  <course>0.0</course>
  <speed>0.0</speed>
  <fix>3d</fix>
</trkpt>
<trkpt lat="40.071375" lon="-105.2297889">
  <ele>1582.97</ele>
  <time>2026-08-28T17:48:28Z</time>
  <course>247.08</course>
  <speed>0.022360679774997897</speed>
  <fix>3d</fix>
</trkpt>
<trkpt lat="40.0713749" lon="-105.229789">
  <ele>1583.0</ele>
  <time>2026-08-28T17:48:28Z</time>
  <course>0.0</course>
  <speed>0.0</speed>
  <fix>3d</fix>
</trkpt>
<trkpt lat="40.0713751" lon="-105.2297889">
  <ele>1582.97</ele>
  <time>2026-08-28T17:48:28Z</time>
  <course>247.08</course>
  <speed>0.022360679774997897</speed>
  <fix>3d</fix>
</trkpt>
<trkpt lat="40.0713749" lon="-105.229789">
  <ele>1583.0</ele>
  <time>2026-08-28T17:48:28Z</time>
  <course>0.0</course>
  <speed>0.0</speed>
  <fix>3d</fix>
</trkpt>
<trkpt lat="40.071375" lon="-105.2297889">
  <ele>1582.97</ele>
  <time>2026-08-28T17:48:28Z</time>
  <course>247.08</course>
  <speed>0.022360679774997897</speed>
  <fix>3d</fix>
</trkpt>
<trkpt lat="40.0713749" lon="-105.229789">
  <ele>1583.0</ele>
  <time>2026-08-28T17:48:28Z</time>
  <course>0.0</course>
  <speed>0.0</speed>
  <fix>3d</fix>
</trkpt>
<trkpt lat="40.0713751" lon="-105.2297889">
  <ele>1582.98</ele>
  <time>2026-08-28T17:48:28Z</time>
  <course>247.08</course>
  <speed>0.022360679774997897</speed>
  <fix>3d</fix>
</trkpt>
<trkpt lat="40.0713749" lon="-105.229789">
  <ele>1583.0</ele>
  <time>2026-08-28T17:48:28Z</time>
  <course>0.0</course>
  <speed>0.0</speed>
  <fix>3d</fix>
</trkpt>
<trkpt lat="40.071375" lon="-105.2297889">
  <ele>1582.98</ele>
  <time>2026-08-28T17:48:28Z</time>
  <course>247.08</course>
  <speed>0.022360679774997897</speed>
  <fix>3d</fix>
</trkpt>
<trkpt lat="40.0713749" lon="-105.229789">
  <ele>1583.0</ele>
  <time>2026-08-28T17:48:28Z</time>
  <course>0.0</course>
  <speed>0.0</speed>
  <fix>3d</fix>
</trkpt>
<trkpt lat="40.0713751" lon="-105.2297889">
  <ele>1582.99</ele>
  <time>2026-08-28T17:48:28Z</time>
  <course>247.08</course>
  <speed>0.022360679774997897</speed>
  <fix>3d</fix>
</trkpt>
<trkpt lat="40.0713749" lon="-105.229789">
  <ele>1583.0</ele>
  <time>2026-08-28T17:48:28Z</time>
  <course>0.0</course>
  <speed>0.0</speed>
  <fix>3d</fix>
</trkpt>
<trkpt lat="40.071375" lon="-105.2297889">
  <ele>1582.99</ele>
  <time>2026-08-28T17:48:28Z</time>
  <course>247.08</course>
  <speed>0.022360679774997897</speed>
  <fix>3d</fix>
</trkpt>
<trkpt lat="40.0713749" lon="-105.229789">
  <ele>1583.0</ele>
  <time>2026-08-28T17:48:28Z</time>
  <course>0.0</course>
  <speed>0.0</speed>
  <fix>3d</fix>
</trkpt>
<trkpt lat="40.0713751" lon="-105.2297889">
  <ele>1582.99</ele>
  <time>2026-08-28T17:48:28Z</time>
  <course>247.08</course>
  <speed>0.022360679774997897</speed>
  <fix>3d</fix>
</trkpt>
<trkpt lat="40.0713749" lon="-105.229789">
  <ele>1583.0</ele>
  <time>2026-08-28T17:48:28Z</time>
  <course>0.0</course>
  <speed>0.0</speed>
  <fix>3d</fix>
</trkpt>
<trkpt lat="40.071375" lon="-105.2297889">
  <ele>1582.99</ele>
  <time>2026-08-28T17:48:28Z</time>
  <course>247.08</course>
  <speed>0.022360679774997897</speed>
  <fix>3d</fix>
</trkpt>
<trkpt lat="40.0713749" lon="-105.229789">
  <ele>1583.0</ele>
  <time>2026-08-28T17:48:28Z</time>
  <course>0.0</course>
  <speed>0.0</speed>
  <fix>3d</fix>
</trkpt>
<trkpt lat="40.0713751" lon="-105.2297889">
  <ele>1583.0</ele>
  <time>2026-08-28T17:48:28Z</time>
  <course>247.08</course>
  <speed>0.022360679774997897</speed>
  <fix>3d</fix>
</trkpt>
<trkpt lat="40.0713749" lon="-105.229789">
  <ele>1583.0</ele>
  <time>2026-08-28T17:48:28Z</time>
  <course>0.0</course>
  <speed>0.0</speed>
  <fix>3d</fix>
</trkpt>
<trkpt lat="40.071375" lon="-105.2297889">
  <ele>1583.0</ele>
  <time>2026-08-28T17:48:28Z</time>
  <course>247.08</course>
  <speed>0.022360679774997897</speed>
  <fix>3d</fix>
</trkpt>
<trkpt lat="40.0713749" lon="-105.229789">
  <ele>1583.0</ele>
  <time>2026-08-28T17:48:28Z</time>
  <course>0.0</course>
  <speed>0.0</speed>
  <fix>3d</fix>
</trkpt>
<trkpt lat="40.0713751" lon="-105.2297889">
  <ele>1583.0</ele>
  <time>2026-08-28T17:48:28Z</time>
  <course>247.08</course>
  <speed>0.022360679774997897</speed>
  <fix>3d</fix>
</trkpt>
<trkpt lat="40.0713749" lon="-105.229789">
  <ele>1583.0</ele>
  <time>2026-08-28T17:48:28Z</time>
  <course>0.0</course>
  <speed>0.0</speed>
  <fix>3d</fix>
</trkpt>
<trkpt lat="40.0713751" lon="-105.2297889">
  <ele>1583.01</ele>
  <time>2026-08-28T17:48:28Z</time>
  <course>247.08</course>
  <speed>0.022360679774997897</speed>
  <fix>3d</fix>
</trkpt>
<trkpt lat="40.0713749" lon="-105.229789">
  <ele>1583.0</ele>
  <time>2026-08-28T17:48:28Z</time>
  <course>0.0</course>
  <speed>0.0</speed>
  <fix>3d</fix>
</trkpt>
<trkpt lat="40.0713751" lon="-105.2297889">
  <ele>1583.01</ele>
  <time>2026-08-28T17:48:28Z</time>
  <course>247.08</course>
  <speed>0.022360679774997897</speed>
  <fix>3d</fix>
</trkpt>
<trkpt lat="40.0713749" lon="-105.229789">
  <ele>1583.0</ele>
  <time>2026-08-28T17:48:28Z</time>
  <course>0.0</course>
  <speed>0.0</speed>
  <fix>3d</fix>
</trkpt>
<trkpt lat="40.0713751" lon="-105.2297889">
  <ele>1583.02</ele>
  <time>2026-08-28T17:48:28Z</time>
  <course>247.08</course>
  <speed>0.022360679774997897</speed>
  <fix>3d</fix>
</trkpt>
<trkpt lat="40.0713749" lon="-105.229789">
  <ele>1583.0</ele>
  <time>2026-08-28T17:48:28Z</time>
  <course>0.0</course>
  <speed>0.0</speed>
  <fix>3d</fix>
</trkpt>
<trkpt lat="40.0713751" lon="-105.2297889">
  <ele>1583.02</ele>
  <time>2026-08-28T17:48:28Z</time>
  <course>247.08</course>
  <speed>0.022360679774997897</speed>
  <fix>3d</fix>
</trkpt>
<trkpt lat="40.0713749" lon="-105.229789">
  <ele>1583.0</ele>
  <time>2026-08-28T17:48:28Z</time>
  <course>0.0</course>
  <speed>0.0</speed>
  <fix>3d</fix>
</trkpt>
<trkpt lat="40.0713751" lon="-105.2297889">
  <ele>1583.02</ele>
  <time>2026-08-28T17:48:28Z</time>
  <course>247.08</course>
  <speed>0.022360679774997897</speed>
  <fix>3d</fix>
</trkpt>
<trkpt lat="40.0713749" lon="-105.229789">
  <ele>1583.0</ele>
  <time>2026-08-28T17:48:28Z</time>
  <course>0.0</course>
  <speed>0.0</speed>
  <fix>3d</fix>
</trkpt>
<trkpt lat="40.0713751" lon="-105.2297889">
  <ele>1583.02</ele>
  <time>2026-08-28T17:48:28Z</time>
  <course>247.08</course>
  <speed>0.022360679774997897</speed>
  <fix>3d</fix>
</trkpt>
<trkpt lat="40.0713749" lon="-105.229789">
  <ele>1583.0</ele>
  <time>2026-08-28T17:48:28Z</time>
  <course>0.0</course>
  <speed>0.0</speed>
  <fix>3d</fix>
</trkpt>
<trkpt lat="40.071375" lon="-105.2297889">
  <ele>1583.02</ele>
  <time>2026-08-28T17:48:28Z</time>
  <course>247.08</course>
  <speed>0.022360679774997897</speed>
  <fix>3d</fix>
</trkpt>
<trkpt lat="40.0713749" lon="-105.229789">
  <ele>1583.0</ele>
  <time>2026-08-28T17:48:28Z</time>
  <course>0.0</course>
  <speed>0.0</speed>
  <fix>3d</fix>
</trkpt>
<trkpt lat="40.0713751" lon="-105.2297889">
  <ele>1583.02</ele>
  <time>2026-08-28T17:48:28Z</time>
  <course>247.08</course>
  <speed>0.022360679774997897</speed>
  <fix>3d</fix>
</trkpt>
<trkpt lat="40.0713749" lon="-105.229789">
  <ele>1583.0</ele>
  <time>2026-08-28T17:48:28Z</time>
  <course>0.0</course>
  <speed>0.0</speed>
  <fix>3d</fix>
</trkpt>
<trkpt lat="40.071375" lon="-105.2297889">
  <ele>1583.02</ele>
  <time>2026-08-28T17:48:28Z</time>
  <course>247.08</course>
  <speed>0.022360679774997897</speed>
  <fix>3d</fix>
</trkpt>
<trkpt lat="40.0713749" lon="-105.229789">
  <ele>1583.0</ele>
  <time>2026-08-28T17:48:28Z</time>
  <course>0.0</course>
  <speed>0.0</speed>
  <fix>3d</fix>
</trkpt>
<trkpt lat="40.0713751" lon="-105.2297889">
  <ele>1583.02</ele>
  <time>2026-08-28T17:48:28Z</time>
  <course>247.08</course>
  <speed>0.022360679774997897</speed>
  <fix>3d</fix>
</trkpt>
<trkpt lat="40.0713749" lon="-105.229789">
  <ele>1583.0</ele>
  <time>2026-08-28T17:48:28Z</time>
  <course>0.0</course>
  <speed>0.0</speed>
  <fix>3d</fix>
</trkpt>
<trkpt lat="40.071375" lon="-105.2297889">
  <ele>1583.02</ele>
  <time>2026-08-28T17:48:28Z</time>
  <course>247.08</course>
  <speed>0.022360679774997897</speed>
  <fix>3d</fix>
</trkpt>
<trkpt lat="40.0713749" lon="-105.229789">
  <ele>1583.0</ele>
  <time>2026-08-28T17:48:28Z</time>
  <course>0.0</course>
  <speed>0.0</speed>
  <fix>3d</fix>
</trkpt>
<trkpt lat="40.0713751" lon="-105.2297889">
  <ele>1583.01</ele>
  <time>2026-08-28T17:48:28Z</time>
  <course>247.08</course>
  <speed>0.022360679774997897</speed>
  <fix>3d</fix>
</trkpt>
<trkpt lat="40.0713749" lon="-105.229789">
  <ele>1583.0</ele>
  <time>2026-08-28T17:48:28Z</time>
  <course>0.0</course>
  <speed>0.0</speed>
  <fix>3d</fix>
</trkpt>
<trkpt lat="40.071375" lon="-105.2297889">
  <ele>1583.01</ele>
  <time>2026-08-28T17:48:28Z</time>
  <course>247.08</course>
  <speed>0.022360679774997897</speed>
  <fix>3d</fix>
</trkpt>
<trkpt lat="40.0713749" lon="-105.229789">
  <ele>1583.0</ele>
  <time>2026-08-28T17:48:28Z</time>
  <course>0.0</course>
  <speed>0.0</speed>
  <fix>3d</fix>
</trkpt>
<trkpt lat="40.0713751" lon="-105.2297889">
  <ele>1583.0</ele>
  <time>2026-08-28T17:48:28Z</time>
  <course>247.08</course>
  <speed>0.022360679774997897</speed>
  <fix>3d</fix>
</trkpt>
<trkpt lat="40.0713749" lon="-105.229789">
  <ele>1583.0</ele>
  <time>2026-08-28T17:48:28Z</time>
  <course>0.0</course>
  <speed>0.0</speed>
  <fix>3d</fix>
</trkpt>
<trkpt lat="40.071375" lon="-105.2297889">
  <ele>1583.0</ele>
  <time>2026-08-28T17:48:28Z</time>
  <course>247.08</course>
  <speed>0.022360679774997897</speed>
  <fix>3d</fix>
</trkpt>
<trkpt lat="40.0713749" lon="-105.229789">
  <ele>1583.0</ele>
  <time>2026-08-28T17:48:28Z</time>
  <course>0.0</course>
  <speed>0.0</speed>
  <fix>3d</fix>
</trkpt>
<trkpt lat="40.0713751" lon="-105.2297889">
  <ele>1583.0</ele>
  <time>2026-08-28T17:48:28Z</time>
  <course>247.08</course>
  <speed>0.022360679774997897</speed>
  <fix>3d</fix>
</trkpt>
<trkpt lat="40.0713749" lon="-105.229789">
  <ele>1583.0</ele>
  <time>2026-08-28T17:48:28Z</time>
  <course>0.0</course>
  <speed>0.0</speed>
  <fix>3d</fix>
</trkpt>
<trkpt lat="40.071375" lon="-105.2297889">
  <ele>1583.0</ele>
  <time>2026-08-28T17:48:28Z</time>
  <course>247.08</course>
  <speed>0.022360679774997897</speed>
  <fix>3d</fix>
</trkpt>
<trkpt lat="40.0713749" lon="-105.229789">
  <ele>1583.0</ele>
  <time>2026-08-28T17:48:28Z</time>
  <course>0.0</course>
  <speed>0.0</speed>
  <fix>3d</fix>
</trkpt>
<trkpt lat="40.0713751" lon="-105.2297889">
  <ele>1583.0</ele>
  <time>2026-08-28T17:48:28Z</time>
  <course>247.08</course>
  <speed>0.022360679774997897</speed>
  <fix>3d</fix>
</trkpt>
<trkpt lat="40.0713749" lon="-105.229789">
  <ele>1583.0</ele>
  <time>2026-08-28T17:48:28Z</time>
  <course>0.0</course>
  <speed>0.0</speed>
  <fix>3d</fix>
</trkpt>
<trkpt lat="40.071375" lon="-105.2297889">
  <ele>1583.0</ele>
  <time>2026-08-28T17:48:28Z</time>
  <course>247.08</course>
  <speed>0.022360679774997897</speed>
  <fix>3d</fix>
</trkpt>
<trkpt lat="40.0713749" lon="-105.229789">
  <ele>1583.0</ele>
  <time>2026-08-28T17:48:28Z</time>
  <course>0.0</course>
  <speed>0.0</speed>
  <fix>3d</fix>
</trkpt>
<trkpt lat="40.0713751" lon="-105.2297889">
  <ele>1582.99</ele>
  <time>2026-08-28T17:48:28Z</time>
  <course>247.08</course>
  <speed>0.022360679774997897</speed>
  <fix>3d</fix>
</trkpt>
<trkpt lat="40.0713749" lon="-105.229789">
  <ele>1583.0</ele>
  <time>2026-08-28T17:48:28Z</time>
  <course>0.0</course>
  <speed>0.0</speed>
  <fix>3d</fix>
</trkpt>
<trkpt lat="40.0713751" lon="-105.2297889">
  <ele>1582.99</ele>
  <time>2026-08-28T17:48:28Z</time>
  <course>247.08</course>
  <speed>0.022360679774997897</speed>
  <fix>3d</fix>
</trkpt>
<trkpt lat="40.0713749" lon="-105.229789">
  <ele>1583.0</ele>
  <time>2026-08-28T17:48:28Z</time>
  <course>0.0</course>
  <speed>0.0</speed>
  <fix>3d</fix>
</trkpt>
<trkpt lat="40.0713751" lon="-105.2297889">
  <ele>1582.98</ele>
  <time>2026-08-28T17:48:28Z</time>
  <course>247.08</course>
  <speed>0.022360679774997897</speed>
  <fix>3d</fix>
</trkpt>
<trkpt lat="40.0713749" lon="-105.229789">
  <ele>1583.0</ele>
  <time>2026-08-28T17:48:28Z</time>
  <course>0.0</course>
  <speed>0.0</speed>
  <fix>3d</fix>
</trkpt>
<trkpt lat="40.0713751" lon="-105.2297889">
  <ele>1582.98</ele>
  <time>2026-08-28T17:48:28Z</time>
  <course>247.08</course>
  <speed>0.022360679774997897</speed>
  <fix>3d</fix>
</trkpt>
<trkpt lat="40.0713749" lon="-105.229789">
  <ele>1583.0</ele>
  <time>2026-08-28T17:48:28Z</time>
  <course>0.0</course>
  <speed>0.0</speed>
  <fix>3d</fix>
</trkpt>
<trkpt lat="40.0713751" lon="-105.2297889">
  <ele>1582.97</ele>
  <time>2026-08-28T17:48:28Z</time>
  <course>247.08</course>
  <speed>0.022360679774997897</speed>
  <fix>3d</fix>
</trkpt>
<trkpt lat="40.0713749" lon="-105.229789">
  <ele>1583.0</ele>
  <time>2026-08-28T17:48:28Z</time>
  <course>0.0</course>
  <speed>0.0</speed>
  <fix>3d</fix>
</trkpt>
<trkpt lat="40.0713751" lon="-105.2297889">
  <ele>1582.97</ele>
  <time>2026-08-28T17:48:28Z</time>
  <course>247.08</course>
  <speed>0.022360679774997897</speed>
  <fix>3d</fix>
</trkpt>
<trkpt lat="40.0713749" lon="-105.229789">
  <ele>1583.0</ele>
  <time>2026-08-28T17:48:28Z</time>
  <course>0.0</course>
  <speed>0.0</speed>
  <fix>3d</fix>
</trkpt>
<trkpt lat="40.0713751" lon="-105.2297889">
  <ele>1582.96</ele>
  <time>2026-08-28T17:48:28Z</time>
  <course>247.08</course>
  <speed>0.022360679774997897</speed>
  <fix>3d</fix>
</trkpt>
<trkpt lat="40.0713749" lon="-105.229789">
  <ele>1583.0</ele>
  <time>2026-08-28T17:48:28Z</time>
  <course>0.0</course>
  <speed>0.0</speed>
  <fix>3d</fix>
</trkpt>
<trkpt lat="40.0713751" lon="-105.2297889">
  <ele>1582.96</ele>
  <time>2026-08-28T17:48:28Z</time>
  <course>247.08</course>
  <speed>0.022360679774997897</speed>
  <fix>3d</fix>
</trkpt>
<trkpt lat="40.0713749" lon="-105.229789">
  <ele>1583.0</ele>
  <time>2026-08-28T17:48:28Z</time>
  <course>0.0</course>
  <speed>0.0</speed>
  <fix>3d</fix>
</trkpt>
<trkpt lat="40.0713751" lon="-105.2297889">
  <ele>1582.95</ele>
  <time>2026-08-28T17:48:28Z</time>
  <course>247.08</course>
  <speed>0.022360679774997897</speed>
  <fix>3d</fix>
</trkpt>
<trkpt lat="40.0713749" lon="-105.229789">
  <ele>1583.0</ele>
  <time>2026-08-28T17:48:28Z</time>
  <course>0.0</course>
  <speed>0.0</speed>
  <fix>3d</fix>
</trkpt>
<trkpt lat="40.071375" lon="-105.2297889">
  <ele>1582.95</ele>
  <time>2026-08-28T17:48:28Z</time>
  <course>247.08</course>
  <speed>0.022360679774997897</speed>
  <fix>3d</fix>
</trkpt>
<trkpt lat="40.0713749" lon="-105.229789">
  <ele>1583.0</ele>
  <time>2026-08-28T17:48:28Z</time>
  <course>0.0</course>
  <speed>0.0</speed>
  <fix>3d</fix>
</trkpt>
<trkpt lat="40.0713751" lon="-105.2297889">
  <ele>1582.94</ele>
  <time>2026-08-28T17:48:28Z</time>
  <course>247.08</course>
  <speed>0.022360679774997897</speed>
  <fix>3d</fix>
</trkpt>
<trkpt lat="40.0713749" lon="-105.229789">
  <ele>1583.0</ele>
  <time>2026-08-28T17:48:28Z</time>
  <course>0.0</course>
  <speed>0.0</speed>
  <fix>3d</fix>
</trkpt>
<trkpt lat="40.071375" lon="-105.2297889">
  <ele>1582.94</ele>
  <time>2026-08-28T17:48:28Z</time>
  <course>247.08</course>
  <speed>0.022360679774997897</speed>
  <fix>3d</fix>
</trkpt>
<trkpt lat="40.0713749" lon="-105.229789">
  <ele>1583.0</ele>
  <time>2026-08-28T17:48:28Z</time>
  <course>0.0</course>
  <speed>0.0</speed>
  <fix>3d</fix>
</trkpt>
<trkpt lat="40.0713751" lon="-105.2297889">
  <ele>1582.94</ele>
  <time>2026-08-28T17:48:28Z</time>
  <course>247.08</course>
  <speed>0.022360679774997897</speed>
  <fix>3d</fix>
</trkpt>
<trkpt lat="40.0713749" lon="-105.229789">
  <ele>1583.0</ele>
  <time>2026-08-28T17:48:28Z</time>
  <course>0.0</course>
  <speed>0.0</speed>
  <fix>3d</fix>
</trkpt>
<trkpt lat="40.071375" lon="-105.2297889">
  <ele>1582.93</ele>
  <time>2026-08-28T17:48:28Z</time>
  <course>247.08</course>
  <speed>0.022360679774997897</speed>
  <fix>3d</fix>
</trkpt>
<trkpt lat="40.0713749" lon="-105.229789">
  <ele>1583.0</ele>
  <time>2026-08-28T17:48:28Z</time>
  <course>0.0</course>
  <speed>0.0</speed>
  <fix>3d</fix>
</trkpt>
<trkpt lat="40.0713751" lon="-105.2297889">
  <ele>1582.93</ele>
  <time>2026-08-28T17:48:28Z</time>
  <course>247.08</course>
  <speed>0.022360679774997897</speed>
  <fix>3d</fix>
</trkpt>
<trkpt lat="40.0713749" lon="-105.229789">
  <ele>1583.0</ele>
  <time>2026-08-28T17:48:28Z</time>
  <course>0.0</course>
  <speed>0.0</speed>
  <fix>3d</fix>
</trkpt>
<trkpt lat="40.071375" lon="-105.2297889">
  <ele>1582.92</ele>
  <time>2026-08-28T17:48:28Z</time>
  <course>247.08</course>
  <speed>0.022360679774997897</speed>
  <fix>3d</fix>
</trkpt>
<trkpt lat="40.0713749" lon="-105.229789">
  <ele>1583.0</ele>
  <time>2026-08-28T17:48:28Z</time>
  <course>0.0</course>
  <speed>0.0</speed>
  <fix>3d</fix>
</trkpt>
<trkpt lat="40.0713751" lon="-105.2297889">
  <ele>1582.92</ele>
  <time>2026-08-28T17:48:28Z</time>
  <course>247.08</course>
  <speed>0.022360679774997897</speed>
  <fix>3d</fix>
</trkpt>
<trkpt lat="40.0713749" lon="-105.229789">
  <ele>1583.0</ele>
  <time>2026-08-28T17:48:28Z</time>
  <course>0.0</course>
  <speed>0.0</speed>
  <fix>3d</fix>
</trkpt>
<trkpt lat="40.071375" lon="-105.2297889">
  <ele>1582.92</ele>
  <time>2026-08-28T17:48:28Z</time>
  <course>247.08</course>
  <speed>0.022360679774997897</speed>
  <fix>3d</fix>
</trkpt>
<trkpt lat="40.0713749" lon="-105.229789">
  <ele>1583.0</ele>
  <time>2026-08-28T17:48:28Z</time>
  <course>0.0</course>
  <speed>0.0</speed>
  <fix>3d</fix>
</trkpt>
<trkpt lat="40.0713751" lon="-105.2297889">
  <ele>1582.91</ele>
  <time>2026-08-28T17:48:28Z</time>
  <course>247.08</course>
  <speed>0.022360679774997897</speed>
  <fix>3d</fix>
</trkpt>
<trkpt lat="40.0713749" lon="-105.229789">
  <ele>1583.0</ele>
  <time>2026-08-28T17:48:28Z</time>
  <course>0.0</course>
  <speed>0.0</speed>
  <fix>3d</fix>
</trkpt>
<trkpt lat="40.071375" lon="-105.2297889">
  <ele>1582.91</ele>
  <time>2026-08-28T17:48:28Z</time>
  <course>247.08</course>
  <speed>0.022360679774997897</speed>
  <fix>3d</fix>
</trkpt>
<trkpt lat="40.0713749" lon="-105.229789">
  <ele>1583.0</ele>
  <time>2026-08-28T17:48:28Z</time>
  <course>0.0</course>
  <speed>0.0</speed>
  <fix>3d</fix>
</trkpt>
<trkpt lat="40.0713751" lon="-105.2297889">
  <ele>1582.91</ele>
  <time>2026-08-28T17:48:28Z</time>
  <course>247.08</course>
  <speed>0.022360679774997897</speed>
  <fix>3d</fix>
</trkpt>
<trkpt lat="40.0713749" lon="-105.229789">
  <ele>1583.0</ele>
  <time>2026-08-28T17:48:28Z</time>
  <course>0.0</course>
  <speed>0.0</speed>
  <fix>3d</fix>
</trkpt>
<trkpt lat="40.071375" lon="-105.2297889">
  <ele>1582.91</ele>
  <time>2026-08-28T17:48:28Z</time>
  <course>247.08</course>
  <speed>0.022360679774997897</speed>
  <fix>3d</fix>
</trkpt>
<trkpt lat="40.0713749" lon="-105.229789">
  <ele>1583.0</ele>
  <time>2026-08-28T17:48:28Z</time>
  <course>0.0</course>
  <speed>0.0</speed>
  <fix>3d</fix>
</trkpt>
<trkpt lat="40.0713751" lon="-105.2297889">
  <ele>1582.91</ele>
  <time>2026-08-28T17:48:28Z</time>
  <course>247.08</course>
  <speed>0.022360679774997897</speed>
  <fix>3d</fix>
</trkpt>
<trkpt lat="40.0713749" lon="-105.229789">
  <ele>1583.0</ele>
  <time>2026-08-28T17:48:28Z</time>
  <course>0.0</course>
  <speed>0.0</speed>
  <fix>3d</fix>
</trkpt>
<trkpt lat="40.0713751" lon="-105.2297889">
  <ele>1582.91</ele>
  <time>2026-08-28T17:48:28Z</time>
  <course>247.08</course>
  <speed>0.022360679774997897</speed>
  <fix>3d</fix>
</trkpt>
<trkpt lat="40.0713749" lon="-105.229789">
  <ele>1583.0</ele>
  <time>2026-08-28T17:48:28Z</time>
  <course>0.0</course>
  <speed>0.0</speed>
  <fix>3d</fix>
</trkpt>
<trkpt lat="40.0713751" lon="-105.2297889">
  <ele>1582.92</ele>
  <time>2026-08-28T17:48:28Z</time>
  <course>247.08</course>
  <speed>0.022360679774997897</speed>
  <fix>3d</fix>
</trkpt>
<trkpt lat="40.0713749" lon="-105.229789">
  <ele>1583.0</ele>
  <time>2026-08-28T17:48:28Z</time>
  <course>0.0</course>
  <speed>0.0</speed>
  <fix>3d</fix>
</trkpt>
<trkpt lat="40.0713751" lon="-105.2297889">
  <ele>1582.92</ele>
  <time>2026-08-28T17:48:28Z</time>
  <course>247.08</course>
  <speed>0.022360679774997897</speed>
  <fix>3d</fix>
</trkpt>
<trkpt lat="40.0713749" lon="-105.229789">
  <ele>1583.0</ele>
  <time>2026-08-28T17:48:28Z</time>
  <course>0.0</course>
  <speed>0.0</speed>
  <fix>3d</fix>
</trkpt>
<trkpt lat="40.0713751" lon="-105.2297889">
  <ele>1582.93</ele>
  <time>2026-08-28T17:48:28Z</time>
  <course>247.08</course>
  <speed>0.022360679774997897</speed>
  <fix>3d</fix>
</trkpt>
<trkpt lat="40.0713749" lon="-105.229789">
  <ele>1583.0</ele>
  <time>2026-08-28T17:48:28Z</time>
  <course>0.0</course>
  <speed>0.0</speed>
  <fix>3d</fix>
</trkpt>
<trkpt lat="40.0713751" lon="-105.2297889">
  <ele>1582.93</ele>
  <time>2026-08-28T17:48:28Z</time>
  <course>247.08</course>
  <speed>0.022360679774997897</speed>
  <fix>3d</fix>
</trkpt>
<trkpt lat="40.0713749" lon="-105.229789">
  <ele>1583.0</ele>
  <time>2026-08-28T17:48:28Z</time>
  <course>0.0</course>
  <speed>0.0</speed>
  <fix>3d</fix>
</trkpt>
<trkpt lat="40.0713751" lon="-105.2297889">
  <ele>1582.94</ele>
  <time>2026-08-28T17:48:28Z</time>
  <course>247.08</course>
  <speed>0.022360679774997897</speed>
  <fix>3d</fix>
</trkpt>
<trkpt lat="40.0713749" lon="-105.229789">
  <ele>1583.0</ele>
  <time>2026-08-28T17:48:28Z</time>
  <course>0.0</course>
  <speed>0.0</speed>
  <fix>3d</fix>
</trkpt>
<trkpt lat="40.071375" lon="-105.2297889">
  <ele>1582.94</ele>
  <time>2026-08-28T17:48:28Z</time>
  <course>247.08</course>
  <speed>0.022360679774997897</speed>
  <fix>3d</fix>
</trkpt>
<trkpt lat="40.0713749" lon="-105.229789">
  <ele>1583.0</ele>
  <time>2026-08-28T17:48:28Z</time>
  <course>0.0</course>
  <speed>0.0</speed>
  <fix>3d</fix>
</trkpt>
<trkpt lat="40.0713751" lon="-105.2297889">
  <ele>1582.94</ele>
  <time>2026-08-28T17:48:28Z</time>
  <course>247.08</course>
  <speed>0.022360679774997897</speed>
  <fix>3d</fix>
</trkpt>
<trkpt lat="40.0713749" lon="-105.229789">
  <ele>1583.0</ele>
  <time>2026-08-28T17:48:28Z</time>
  <course>0.0</course>
  <speed>0.0</speed>
  <fix>3d</fix>
</trkpt>
<trkpt lat="40.071375" lon="-105.2297889">
  <ele>1582.94</ele>
  <time>2026-08-28T17:48:28Z</time>
  <course>247.08</course>
  <speed>0.022360679774997897</speed>
  <fix>3d</fix>
</trkpt>
<trkpt lat="40.0713749" lon="-105.229789">
  <ele>1583.0</ele>
  <time>2026-08-28T17:48:28Z</time>
  <course>0.0</course>
  <speed>0.0</speed>
  <fix>3d</fix>
</trkpt>
<trkpt lat="40.0713751" lon="-105.2297889">
  <ele>1582.94</ele>
  <time>2026-08-28T17:48:28Z</time>
  <course>247.08</course>
  <speed>0.022360679774997897</speed>
  <fix>3d</fix>
</trkpt>
<trkpt lat="40.0713749" lon="-105.229789">
  <ele>1583.0</ele>
  <time>2026-08-28T17:48:28Z</time>
  <course>0.0</course>
  <speed>0.0</speed>
  <fix>3d</fix>
</trkpt>
<trkpt lat="40.071375" lon="-105.2297889">
  <ele>1582.94</ele>
  <time>2026-08-28T17:48:28Z</time>
  <course>247.08</course>
  <speed>0.022360679774997897</speed>
  <fix>3d</fix>
</trkpt>
<trkpt lat="40.0713749" lon="-105.229789">
  <ele>1583.0</ele>
  <time>2026-08-28T17:48:28Z</time>
  <course>0.0</course>
  <speed>0.0</speed>
  <fix>3d</fix>
</trkpt>
<trkpt lat="40.0713751" lon="-105.2297889">
  <ele>1582.93</ele>
  <time>2026-08-28T17:48:28Z</time>
  <course>247.08</course>
  <speed>0.022360679774997897</speed>
  <fix>3d</fix>
</trkpt>
<trkpt lat="40.0713749" lon="-105.229789">
  <ele>1583.0</ele>
  <time>2026-08-28T17:48:28Z</time>
  <course>0.0</course>
  <speed>0.0</speed>
  <fix>3d</fix>
</trkpt>
<trkpt lat="40.071375" lon="-105.2297889">
  <ele>1582.93</ele>
  <time>2026-08-28T17:48:28Z</time>
  <course>247.08</course>
  <speed>0.022360679774997897</speed>
  <fix>3d</fix>
</trkpt>
<trkpt lat="40.0713749" lon="-105.229789">
  <ele>1583.0</ele>
  <time>2026-08-28T17:48:28Z</time>
  <course>0.0</course>
  <speed>0.0</speed>
  <fix>3d</fix>
</trkpt>
<trkpt lat="40.0713751" lon="-105.2297889">
  <ele>1582.93</ele>
  <time>2026-08-28T17:48:28Z</time>
  <course>247.08</course>
  <speed>0.022360679774997897</speed>
  <fix>3d</fix>
</trkpt>
<trkpt lat="40.0713749" lon="-105.229789">
  <ele>1583.0</ele>
  <time>2026-08-28T17:48:28Z</time>
  <course>0.0</course>
  <speed>0.0</speed>
  <fix>3d</fix>
</trkpt>
<trkpt lat="40.071375" lon="-105.2297889">
  <ele>1582.93</ele>
  <time>2026-08-28T17:48:28Z</time>
  <course>247.08</course>
  <speed>0.022360679774997897</speed>
  <fix>3d</fix>
</trkpt>
<trkpt lat="40.0713749" lon="-105.229789">
  <ele>1583.0</ele>
  <time>2026-08-28T17:48:28Z</time>
  <course>0.0</course>
  <speed>0.0</speed>
  <fix>3d</fix>
</trkpt>
<trkpt lat="40.071375" lon="-105.2297889">
  <ele>1582.92</ele>
  <time>2026-08-28T17:48:28Z</time>
  <course>247.08</course>
  <speed>0.022360679774997897</speed>
  <fix>3d</fix>
</trkpt>
<trkpt lat="40.0713749" lon="-105.229789">
  <ele>1583.0</ele>
  <time>2026-08-28T17:48:28Z</time>
  <course>0.0</course>
  <speed>0.0</speed>
  <fix>3d</fix>
</trkpt>
<trkpt lat="40.071375" lon="-105.2297889">
  <ele>1582.92</ele>
  <time>2026-08-28T17:48:28Z</time>
  <course>247.08</course>
  <speed>0.022360679774997897</speed>
  <fix>3d</fix>
</trkpt>
<trkpt lat="40.0713749" lon="-105.229789">
  <ele>1583.0</ele>
  <time>2026-08-28T17:48:28Z</time>
  <course>0.0</course>
  <speed>0.0</speed>
  <fix>3d</fix>
</trkpt>
<trkpt lat="40.071375" lon="-105.2297889">
  <ele>1582.92</ele>
  <time>2026-08-28T17:48:28Z</time>
  <course>247.08</course>
  <speed>0.022360679774997897</speed>
  <fix>3d</fix>
</trkpt>
<trkpt lat="40.0713749" lon="-105.229789">
  <ele>1583.0</ele>
  <time>2026-08-28T17:48:28Z</time>
  <course>0.0</course>
  <speed>0.0</speed>
  <fix>3d</fix>
</trkpt>
<trkpt lat="40.071375" lon="-105.2297889">
  <ele>1582.91</ele>
  <time>2026-08-28T17:48:28Z</time>
  <course>247.08</course>
  <speed>0.022360679774997897</speed>
  <fix>3d</fix>
</trkpt>
<trkpt lat="40.0713749" lon="-105.229789">
  <ele>1583.0</ele>
  <time>2026-08-28T17:48:28Z</time>
  <course>0.0</course>
  <speed>0.0</speed>
  <fix>3d</fix>
</trkpt>
<trkpt lat="40.0713751" lon="-105.2297889">
  <ele>1582.91</ele>
  <time>2026-08-28T17:48:28Z</time>
  <course>247.08</course>
  <speed>0.022360679774997897</speed>
  <fix>3d</fix>
</trkpt>
<trkpt lat="40.0713749" lon="-105.229789">
  <ele>1583.0</ele>
  <time>2026-08-28T17:48:28Z</time>
  <course>0.0</course>
  <speed>0.0</speed>
  <fix>3d</fix>
</trkpt>
<trkpt lat="40.071375" lon="-105.2297889">
  <ele>1582.9</ele>
  <time>2026-08-28T17:48:28Z</time>
  <course>247.08</course>
  <speed>0.022360679774997897</speed>
  <fix>3d</fix>
</trkpt>
<trkpt lat="40.0713749" lon="-105.229789">
  <ele>1583.0</ele>
  <time>2026-08-28T17:48:28Z</time>
  <course>0.0</course>
  <speed>0.0</speed>
  <fix>3d</fix>
</trkpt>
<trkpt lat="40.0713751" lon="-105.2297889">
  <ele>1582.89</ele>
  <time>2026-08-28T17:48:28Z</time>
  <course>247.08</course>
  <speed>0.022360679774997897</speed>
  <fix>3d</fix>
</trkpt>
<trkpt lat="40.0713749" lon="-105.229789">
  <ele>1583.0</ele>
  <time>2026-08-28T17:48:28Z</time>
  <course>0.0</course>
  <speed>0.0</speed>
  <fix>3d</fix>
</trkpt>
<trkpt lat="40.071375" lon="-105.2297889">
  <ele>1582.89</ele>
  <time>2026-08-28T17:48:28Z</time>
  <course>247.08</course>
  <speed>0.022360679774997897</speed>
  <fix>3d</fix>
</trkpt>
<trkpt lat="40.0713749" lon="-105.229789">
  <ele>1583.0</ele>
  <time>2026-08-28T17:48:28Z</time>
  <course>0.0</course>
  <speed>0.0</speed>
  <fix>3d</fix>
</trkpt>
<trkpt lat="40.0713751" lon="-105.2297889">
  <ele>1582.88</ele>
  <time>2026-08-28T17:48:28Z</time>
  <course>247.08</course>
  <speed>0.022360679774997897</speed>
  <fix>3d</fix>
</trkpt>
<trkpt lat="40.0713749" lon="-105.229789">
  <ele>1583.0</ele>
  <time>2026-08-28T17:48:28Z</time>
  <course>0.0</course>
  <speed>0.0</speed>
  <fix>3d</fix>
</trkpt>
<trkpt lat="40.071375" lon="-105.2297889">
  <ele>1582.88</ele>
  <time>2026-08-28T17:48:28Z</time>
  <course>247.08</course>
  <speed>0.022360679774997897</speed>
  <fix>3d</fix>
</trkpt>
<trkpt lat="40.0713749" lon="-105.229789">
  <ele>1583.0</ele>
  <time>2026-08-28T17:48:28Z</time>
  <course>0.0</course>
  <speed>0.0</speed>
  <fix>3d</fix>
</trkpt>
<trkpt lat="40.0713751" lon="-105.2297889">
  <ele>1582.87</ele>
  <time>2026-08-28T17:48:28Z</time>
  <course>247.08</course>
  <speed>0.022360679774997897</speed>
  <fix>3d</fix>
</trkpt>
<trkpt lat="40.0713749" lon="-105.229789">
  <ele>1583.0</ele>
  <time>2026-08-28T17:48:28Z</time>
  <course>0.0</course>
  <speed>0.0</speed>
  <fix>3d</fix>
</trkpt>
<trkpt lat="40.071375" lon="-105.2297889">
  <ele>1582.87</ele>
  <time>2026-08-28T17:48:28Z</time>
  <course>247.08</course>
  <speed>0.022360679774997897</speed>
  <fix>3d</fix>
</trkpt>
<trkpt lat="40.0713749" lon="-105.229789">
  <ele>1583.0</ele>
  <time>2026-08-28T17:48:28Z</time>
  <course>0.0</course>
  <speed>0.0</speed>
  <fix>3d</fix>
</trkpt>
<trkpt lat="40.0713751" lon="-105.2297889">
  <ele>1582.87</ele>
  <time>2026-08-28T17:48:28Z</time>
  <course>247.08</course>
  <speed>0.022360679774997897</speed>
  <fix>3d</fix>
</trkpt>
<trkpt lat="40.0713749" lon="-105.229789">
  <ele>1583.0</ele>
  <time>2026-08-28T17:48:28Z</time>
  <course>0.0</course>
  <speed>0.0</speed>
  <fix>3d</fix>
</trkpt>
<trkpt lat="40.071375" lon="-105.2297889">
  <ele>1582.87</ele>
  <time>2026-08-28T17:48:28Z</time>
  <course>247.08</course>
  <speed>0.022360679774997897</speed>
  <fix>3d</fix>
</trkpt>
<trkpt lat="40.0713749" lon="-105.229789">
  <ele>1583.0</ele>
  <time>2026-08-28T17:48:28Z</time>
  <course>0.0</course>
  <speed>0.0</speed>
  <fix>3d</fix>
</trkpt>
<trkpt lat="40.071375" lon="-105.2297889">
  <ele>1582.88</ele>
  <time>2026-08-28T17:48:28Z</time>
  <course>247.08</course>
  <speed>0.022360679774997897</speed>
  <fix>3d</fix>
</trkpt>
<trkpt lat="40.0713749" lon="-105.229789">
  <ele>1583.0</ele>
  <time>2026-08-28T17:48:28Z</time>
  <course>0.0</course>
  <speed>0.0</speed>
  <fix>3d</fix>
</trkpt>
<trkpt lat="40.071375" lon="-105.2297889">
  <ele>1582.88</ele>
  <time>2026-08-28T17:48:28Z</time>
  <course>247.08</course>
  <speed>0.022360679774997897</speed>
  <fix>3d</fix>
</trkpt>
<trkpt lat="40.0713749" lon="-105.229789">
  <ele>1583.0</ele>
  <time>2026-08-28T17:48:28Z</time>
  <course>0.0</course>
  <speed>0.0</speed>
  <fix>3d</fix>
</trkpt>
<trkpt lat="40.071375" lon="-105.2297889">
  <ele>1582.89</ele>
  <time>2026-08-28T17:48:28Z</time>
  <course>247.07</course>
  <speed>0.022360679774997897</speed>
  <fix>3d</fix>
</trkpt>
<trkpt lat="40.0713749" lon="-105.229789">
  <ele>1583.0</ele>
  <time>2026-08-28T17:48:28Z</time>
  <course>0.0</course>
  <speed>0.0</speed>
  <fix>3d</fix>
</trkpt>
<trkpt lat="40.071375" lon="-105.2297889">
  <ele>1582.89</ele>
  <time>2026-08-28T17:48:28Z</time>
  <course>247.07</course>
  <speed>0.022360679774997897</speed>
  <fix>3d</fix>
</trkpt>
<trkpt lat="40.0713749" lon="-105.229789">
  <ele>1583.0</ele>
  <time>2026-08-28T17:48:28Z</time>
  <course>0.0</course>
  <speed>0.0</speed>
  <fix>3d</fix>
</trkpt>
<trkpt lat="40.071375" lon="-105.2297889">
  <ele>1582.89</ele>
  <time>2026-08-28T17:48:28Z</time>
  <course>247.07</course>
  <speed>0.022360679774997897</speed>
  <fix>3d</fix>
</trkpt>
<trkpt lat="40.0713749" lon="-105.229789">
  <ele>1583.0</ele>
  <time>2026-08-28T17:48:28Z</time>
  <course>0.0</course>
  <speed>0.0</speed>
  <fix>3d</fix>
</trkpt>
<trkpt lat="40.071375" lon="-105.2297889">
  <ele>1582.9</ele>
  <time>2026-08-28T17:48:28Z</time>
  <course>247.07</course>
  <speed>0.022360679774997897</speed>
  <fix>3d</fix>
</trkpt>
<trkpt lat="40.0713749" lon="-105.229789">
  <ele>1583.0</ele>
  <time>2026-08-28T17:48:28Z</time>
  <course>0.0</course>
  <speed>0.0</speed>
  <fix>3d</fix>
</trkpt>
<trkpt lat="40.071375" lon="-105.2297889">
  <ele>1582.91</ele>
  <time>2026-08-28T17:48:28Z</time>
  <course>247.07</course>
  <speed>0.022360679774997897</speed>
  <fix>3d</fix>
</trkpt>
<trkpt lat="40.0713749" lon="-105.229789">
  <ele>1583.0</ele>
  <time>2026-08-28T17:48:28Z</time>
  <course>0.0</course>
  <speed>0.0</speed>
  <fix>3d</fix>
</trkpt>
<trkpt lat="40.071375" lon="-105.2297889">
  <ele>1582.92</ele>
  <time>2026-08-28T17:48:28Z</time>
  <course>247.07</course>
  <speed>0.022360679774997897</speed>
  <fix>3d</fix>
</trkpt>
<trkpt lat="40.0713749" lon="-105.229789">
  <ele>1583.0</ele>
  <time>2026-08-28T17:48:28Z</time>
  <course>0.0</course>
  <speed>0.0</speed>
  <fix>3d</fix>
</trkpt>
<trkpt lat="40.071375" lon="-105.2297889">
  <ele>1582.92</ele>
  <time>2026-08-28T17:48:28Z</time>
  <course>247.07</course>
  <speed>0.022360679774997897</speed>
  <fix>3d</fix>
</trkpt>
<trkpt lat="40.0713749" lon="-105.229789">
  <ele>1583.0</ele>
  <time>2026-08-28T17:48:28Z</time>
  <course>0.0</course>
  <speed>0.0</speed>
  <fix>3d</fix>
</trkpt>
<trkpt lat="40.071375" lon="-105.2297889">
  <ele>1582.93</ele>
  <time>2026-08-28T17:48:28Z</time>
  <course>247.07</course>
  <speed>0.022360679774997897</speed>
  <fix>3d</fix>
</trkpt>
<trkpt lat="40.0713749" lon="-105.229789">
  <ele>1583.0</ele>
  <time>2026-08-28T17:48:28Z</time>
  <course>0.0</course>
  <speed>0.0</speed>
  <fix>3d</fix>
</trkpt>
<trkpt lat="40.071375" lon="-105.2297889">
  <ele>1582.94</ele>
  <time>2026-08-28T17:48:28Z</time>
  <course>247.07</course>
  <speed>0.022360679774997897</speed>
  <fix>3d</fix>
</trkpt>
<trkpt lat="40.0713749" lon="-105.229789">
  <ele>1583.0</ele>
  <time>2026-08-28T17:48:28Z</time>
  <course>0.0</course>
  <speed>0.0</speed>
  <fix>3d</fix>
</trkpt>
<trkpt lat="40.071375" lon="-105.2297889">
  <ele>1582.95</ele>
  <time>2026-08-28T17:48:28Z</time>
  <course>247.07</course>
  <speed>0.022360679774997897</speed>
  <fix>3d</fix>
</trkpt>
<trkpt lat="40.0713749" lon="-105.229789">
  <ele>1583.0</ele>
  <time>2026-08-28T17:48:28Z</time>
  <course>0.0</course>
  <speed>0.0</speed>
  <fix>3d</fix>
</trkpt>
<trkpt lat="40.0713751" lon="-105.2297889">
  <ele>1582.96</ele>
  <time>2026-08-28T17:48:28Z</time>
  <course>247.07</course>
  <speed>0.022360679774997897</speed>
  <fix>3d</fix>
</trkpt>
<trkpt lat="40.0713749" lon="-105.229789">
  <ele>1583.0</ele>
  <time>2026-08-28T17:48:28Z</time>
  <course>0.0</course>
  <speed>0.0</speed>
  <fix>3d</fix>
</trkpt>
<trkpt lat="40.071375" lon="-105.2297889">
  <ele>1582.97</ele>
  <time>2026-08-28T17:48:28Z</time>
  <course>247.07</course>
  <speed>0.022360679774997897</speed>
  <fix>3d</fix>
</trkpt>
<trkpt lat="40.0713749" lon="-105.229789">
  <ele>1583.0</ele>
  <time>2026-08-28T17:48:28Z</time>
  <course>0.0</course>
  <speed>0.0</speed>
  <fix>3d</fix>
</trkpt>
<trkpt lat="40.0713751" lon="-105.2297889">
  <ele>1582.97</ele>
  <time>2026-08-28T17:48:28Z</time>
  <course>247.07</course>
  <speed>0.022360679774997897</speed>
  <fix>3d</fix>
</trkpt>
<trkpt lat="40.0713749" lon="-105.229789">
  <ele>1583.0</ele>
  <time>2026-08-28T17:48:28Z</time>
  <course>0.0</course>
  <speed>0.0</speed>
  <fix>3d</fix>
</trkpt>
<trkpt lat="40.071375" lon="-105.2297889">
  <ele>1582.98</ele>
  <time>2026-08-28T17:48:28Z</time>
  <course>247.07</course>
  <speed>0.022360679774997897</speed>
  <fix>3d</fix>
</trkpt>
<trkpt lat="40.0713749" lon="-105.229789">
  <ele>1583.0</ele>
  <time>2026-08-28T17:48:28Z</time>
  <course>0.0</course>
  <speed>0.0</speed>
  <fix>3d</fix>
</trkpt>
<trkpt lat="40.0713751" lon="-105.2297889">
  <ele>1582.99</ele>
  <time>2026-08-28T17:48:28Z</time>
  <course>247.07</course>
  <speed>0.022360679774997897</speed>
  <fix>3d</fix>
</trkpt>
<trkpt lat="40.0713749" lon="-105.229789">
  <ele>1583.0</ele>
  <time>2026-08-28T17:48:28Z</time>
  <course>0.0</course>
  <speed>0.0</speed>
  <fix>3d</fix>
</trkpt>
<trkpt lat="40.071375" lon="-105.2297889">
  <ele>1583.0</ele>
  <time>2026-08-28T17:48:28Z</time>
  <course>247.07</course>
  <speed>0.022360679774997897</speed>
  <fix>3d</fix>
</trkpt>
<trkpt lat="40.0713749" lon="-105.229789">
  <ele>1583.0</ele>
  <time>2026-08-28T17:48:28Z</time>
  <course>0.0</course>
  <speed>0.0</speed>
  <fix>3d</fix>
</trkpt>
<trkpt lat="40.0713751" lon="-105.2297889">
  <ele>1583.01</ele>
  <time>2026-08-28T17:48:28Z</time>
  <course>247.07</course>
  <speed>0.022360679774997897</speed>
  <fix>3d</fix>
</trkpt>
<trkpt lat="40.0713749" lon="-105.229789">
  <ele>1583.0</ele>
  <time>2026-08-28T17:48:28Z</time>
  <course>0.0</course>
  <speed>0.0</speed>
  <fix>3d</fix>
</trkpt>
<trkpt lat="40.071375" lon="-105.2297889">
  <ele>1583.02</ele>
  <time>2026-08-28T17:48:28Z</time>
  <course>247.07</course>
  <speed>0.022360679774997897</speed>
  <fix>3d</fix>
</trkpt>
<trkpt lat="40.0713749" lon="-105.229789">
  <ele>1583.0</ele>
  <time>2026-08-28T17:48:28Z</time>
  <course>0.0</course>
  <speed>0.0</speed>
  <fix>3d</fix>
</trkpt>
<trkpt lat="40.0713751" lon="-105.2297889">
  <ele>1583.03</ele>
  <time>2026-08-28T17:48:28Z</time>
  <course>247.07</course>
  <speed>0.022360679774997897</speed>
  <fix>3d</fix>
</trkpt>
<trkpt lat="40.0713749" lon="-105.229789">
  <ele>1583.0</ele>
  <time>2026-08-28T17:48:28Z</time>
  <course>0.0</course>
  <speed>0.0</speed>
  <fix>3d</fix>
</trkpt>
<trkpt lat="40.071375" lon="-105.2297889">
  <ele>1583.04</ele>
  <time>2026-08-28T17:48:28Z</time>
  <course>247.07</course>
  <speed>0.022360679774997897</speed>
  <fix>3d</fix>
</trkpt>
<trkpt lat="40.0713749" lon="-105.229789">
  <ele>1583.0</ele>
  <time>2026-08-28T17:48:28Z</time>
  <course>0.0</course>
  <speed>0.0</speed>
  <fix>3d</fix>
</trkpt>
<trkpt lat="40.0713751" lon="-105.2297889">
  <ele>1583.05</ele>
  <time>2026-08-28T17:48:28Z</time>
  <course>247.07</course>
  <speed>0.022360679774997897</speed>
  <fix>3d</fix>
</trkpt>
<trkpt lat="40.0713749" lon="-105.229789">
  <ele>1583.0</ele>
  <time>2026-08-28T17:48:28Z</time>
  <course>0.0</course>
  <speed>0.0</speed>
  <fix>3d</fix>
</trkpt>
<trkpt lat="40.071375" lon="-105.2297889">
  <ele>1583.05</ele>
  <time>2026-08-28T17:48:28Z</time>
  <course>247.07</course>
  <speed>0.022360679774997897</speed>
  <fix>3d</fix>
</trkpt>
<trkpt lat="40.0713749" lon="-105.229789">
  <ele>1583.0</ele>
  <time>2026-08-28T17:48:28Z</time>
  <course>0.0</course>
  <speed>0.0</speed>
  <fix>3d</fix>
</trkpt>
<trkpt lat="40.0713751" lon="-105.2297889">
  <ele>1583.06</ele>
  <time>2026-08-28T17:48:28Z</time>
  <course>247.07</course>
  <speed>0.022360679774997897</speed>
  <fix>3d</fix>
</trkpt>
<trkpt lat="40.0713749" lon="-105.229789">
  <ele>1583.0</ele>
  <time>2026-08-28T17:48:28Z</time>
  <course>0.0</course>
  <speed>0.0</speed>
  <fix>3d</fix>
</trkpt>
<trkpt lat="40.071375" lon="-105.2297889">
  <ele>1583.06</ele>
  <time>2026-08-28T17:48:28Z</time>
  <course>247.07</course>
  <speed>0.022360679774997897</speed>
  <fix>3d</fix>
</trkpt>
<trkpt lat="40.0713749" lon="-105.229789">
  <ele>1583.0</ele>
  <time>2026-08-28T17:48:28Z</time>
  <course>0.0</course>
  <speed>0.0</speed>
  <fix>3d</fix>
</trkpt>
<trkpt lat="40.0713751" lon="-105.2297889">
  <ele>1583.06</ele>
  <time>2026-08-28T17:48:28Z</time>
  <course>247.07</course>
  <speed>0.022360679774997897</speed>
  <fix>3d</fix>
</trkpt>
<trkpt lat="40.0713749" lon="-105.229789">
  <ele>1583.0</ele>
  <time>2026-08-28T17:48:28Z</time>
  <course>0.0</course>
  <speed>0.0</speed>
  <fix>3d</fix>
</trkpt>
<trkpt lat="40.071375" lon="-105.2297889">
  <ele>1583.06</ele>
  <time>2026-08-28T17:48:28Z</time>
  <course>247.07</course>
  <speed>0.022360679774997897</speed>
  <fix>3d</fix>
</trkpt>
<trkpt lat="40.0713749" lon="-105.229789">
  <ele>1583.0</ele>
  <time>2026-08-28T17:48:28Z</time>
  <course>0.0</course>
  <speed>0.0</speed>
  <fix>3d</fix>
</trkpt>
<trkpt lat="40.071375" lon="-105.2297889">
  <ele>1583.06</ele>
  <time>2026-08-28T17:48:28Z</time>
  <course>247.07</course>
  <speed>0.022360679774997897</speed>
  <fix>3d</fix>
</trkpt>
<trkpt lat="40.0713749" lon="-105.229789">
  <ele>1583.0</ele>
  <time>2026-08-28T17:48:28Z</time>
  <course>0.0</course>
  <speed>0.0</speed>
  <fix>3d</fix>
</trkpt>
<trkpt lat="40.071375" lon="-105.2297889">
  <ele>1583.06</ele>
  <time>2026-08-28T17:48:28Z</time>
  <course>247.07</course>
  <speed>0.022360679774997897</speed>
  <fix>3d</fix>
</trkpt>
<trkpt lat="40.0713749" lon="-105.229789">
  <ele>1583.0</ele>
  <time>2026-08-28T17:48:28Z</time>
  <course>0.0</course>
  <speed>0.0</speed>
  <fix>3d</fix>
</trkpt>
<trkpt lat="40.071375" lon="-105.2297889">
  <ele>1583.06</ele>
  <time>2026-08-28T17:48:28Z</time>
  <course>247.07</course>
  <speed>0.022360679774997897</speed>
  <fix>3d</fix>
</trkpt>
<trkpt lat="40.0713749" lon="-105.229789">
  <ele>1583.0</ele>
  <time>2026-08-28T17:48:28Z</time>
  <course>0.0</course>
  <speed>0.0</speed>
  <fix>3d</fix>
</trkpt>
<trkpt lat="40.071375" lon="-105.2297889">
  <ele>1583.06</ele>
  <time>2026-08-28T17:48:28Z</time>
  <course>247.07</course>
  <speed>0.022360679774997897</speed>
  <fix>3d</fix>
</trkpt>
<trkpt lat="40.0713749" lon="-105.229789">
  <ele>1583.0</ele>
  <time>2026-08-28T17:48:28Z</time>
  <course>0.0</course>
  <speed>0.0</speed>
  <fix>3d</fix>
</trkpt>
<trkpt lat="40.0713751" lon="-105.2297889">
  <ele>1583.06</ele>
  <time>2026-08-28T17:48:28Z</time>
  <course>247.07</course>
  <speed>0.022360679774997897</speed>
  <fix>3d</fix>
</trkpt>
<trkpt lat="40.0713749" lon="-105.229789">
  <ele>1583.0</ele>
  <time>2026-08-28T17:48:28Z</time>
  <course>0.0</course>
  <speed>0.0</speed>
  <fix>3d</fix>
</trkpt>
<trkpt lat="40.071375" lon="-105.2297889">
  <ele>1583.06</ele>
  <time>2026-08-28T17:48:28Z</time>
  <course>247.07</course>
  <speed>0.022360679774997897</speed>
  <fix>3d</fix>
</trkpt>
<trkpt lat="40.0713749" lon="-105.229789">
  <ele>1583.0</ele>
  <time>2026-08-28T17:48:28Z</time>
  <course>0.0</course>
  <speed>0.0</speed>
  <fix>3d</fix>
</trkpt>
<trkpt lat="40.0713751" lon="-105.2297889">
  <ele>1583.07</ele>
  <time>2026-08-28T17:48:28Z</time>
  <course>247.07</course>
  <speed>0.022360679774997897</speed>
  <fix>3d</fix>
</trkpt>
<trkpt lat="40.0713749" lon="-105.229789">
  <ele>1583.0</ele>
  <time>2026-08-28T17:48:28Z</time>
  <course>0.0</course>
  <speed>0.0</speed>
  <fix>3d</fix>
</trkpt>
<trkpt lat="40.0713751" lon="-105.2297889">
  <ele>1583.07</ele>
  <time>2026-08-28T17:48:28Z</time>
  <course>247.07</course>
  <speed>0.022360679774997897</speed>
  <fix>3d</fix>
</trkpt>
<trkpt lat="40.0713749" lon="-105.229789">
  <ele>1583.0</ele>
  <time>2026-08-28T17:48:28Z</time>
  <course>0.0</course>
  <speed>0.0</speed>
  <fix>3d</fix>
</trkpt>
<trkpt lat="40.0713751" lon="-105.2297889">
  <ele>1583.07</ele>
  <time>2026-08-28T17:48:28Z</time>
  <course>247.07</course>
  <speed>0.022360679774997897</speed>
  <fix>3d</fix>
</trkpt>
<trkpt lat="40.0713749" lon="-105.229789">
  <ele>1583.0</ele>
  <time>2026-08-28T17:48:28Z</time>
  <course>0.0</course>
  <speed>0.0</speed>
  <fix>3d</fix>
</trkpt>
<trkpt lat="40.0713751" lon="-105.2297889">
  <ele>1583.07</ele>
  <time>2026-08-28T17:48:28Z</time>
  <course>247.07</course>
  <speed>0.022360679774997897</speed>
  <fix>3d</fix>
</trkpt>
<trkpt lat="40.0713749" lon="-105.229789">
  <ele>1583.0</ele>
  <time>2026-08-28T17:48:28Z</time>
  <course>0.0</course>
  <speed>0.0</speed>
  <fix>3d</fix>
</trkpt>
<trkpt lat="40.0713751" lon="-105.2297889">
  <ele>1583.07</ele>
  <time>2026-08-28T17:48:28Z</time>
  <course>247.07</course>
  <speed>0.022360679774997897</speed>
  <fix>3d</fix>
</trkpt>
<trkpt lat="40.0713749" lon="-105.229789">
  <ele>1583.0</ele>
  <time>2026-08-28T17:48:28Z</time>
  <course>0.0</course>
  <speed>0.0</speed>
  <fix>3d</fix>
</trkpt>
<trkpt lat="40.071375" lon="-105.2297889">
  <ele>1583.07</ele>
  <time>2026-08-28T17:48:28Z</time>
  <course>247.07</course>
  <speed>0.022360679774997897</speed>
  <fix>3d</fix>
</trkpt>
<trkpt lat="40.0713749" lon="-105.229789">
  <ele>1583.0</ele>
  <time>2026-08-28T17:48:28Z</time>
  <course>0.0</course>
  <speed>0.0</speed>
  <fix>3d</fix>
</trkpt>
<trkpt lat="40.0713751" lon="-105.2297889">
  <ele>1583.07</ele>
  <time>2026-08-28T17:48:28Z</time>
  <course>247.07</course>
  <speed>0.022360679774997897</speed>
  <fix>3d</fix>
</trkpt>
<trkpt lat="40.0713749" lon="-105.229789">
  <ele>1583.0</ele>
  <time>2026-08-28T17:48:28Z</time>
  <course>0.0</course>
  <speed>0.0</speed>
  <fix>3d</fix>
</trkpt>
<trkpt lat="40.071375" lon="-105.2297889">
  <ele>1583.07</ele>
  <time>2026-08-28T17:48:28Z</time>
  <course>247.07</course>
  <speed>0.022360679774997897</speed>
  <fix>3d</fix>
</trkpt>
<trkpt lat="40.0713749" lon="-105.229789">
  <ele>1583.0</ele>
  <time>2026-08-28T17:48:28Z</time>
  <course>0.0</course>
  <speed>0.0</speed>
  <fix>3d</fix>
</trkpt>
<trkpt lat="40.0713751" lon="-105.2297889">
  <ele>1583.07</ele>
  <time>2026-08-28T17:48:28Z</time>
  <course>247.07</course>
  <speed>0.022360679774997897</speed>
  <fix>3d</fix>
</trkpt>
<trkpt lat="40.0713749" lon="-105.229789">
  <ele>1583.0</ele>
  <time>2026-08-28T17:48:28Z</time>
  <course>0.0</course>
  <speed>0.0</speed>
  <fix>3d</fix>
</trkpt>
<trkpt lat="40.071375" lon="-105.2297889">
  <ele>1583.07</ele>
  <time>2026-08-28T17:48:28Z</time>
  <course>247.07</course>
  <speed>0.022360679774997897</speed>
  <fix>3d</fix>
</trkpt>
<trkpt lat="40.0713749" lon="-105.229789">
  <ele>1583.0</ele>
  <time>2026-08-28T17:48:28Z</time>
  <course>0.0</course>
  <speed>0.0</speed>
  <fix>3d</fix>
</trkpt>
<trkpt lat="40.0713751" lon="-105.2297889">
  <ele>1583.07</ele>
  <time>2026-08-28T17:48:28Z</time>
  <course>247.07</course>
  <speed>0.022360679774997897</speed>
  <fix>3d</fix>
</trkpt>
<trkpt lat="40.0713749" lon="-105.229789">
  <ele>1583.0</ele>
  <time>2026-08-28T17:48:28Z</time>
  <course>0.0</course>
  <speed>0.0</speed>
  <fix>3d</fix>
</trkpt>
<trkpt lat="40.071375" lon="-105.2297889">
  <ele>1583.07</ele>
  <time>2026-08-28T17:48:28Z</time>
  <course>247.07</course>
  <speed>0.022360679774997897</speed>
  <fix>3d</fix>
</trkpt>
<trkpt lat="40.0713749" lon="-105.229789">
  <ele>1583.0</ele>
  <time>2026-08-28T17:48:28Z</time>
  <course>0.0</course>
  <speed>0.0</speed>
  <fix>3d</fix>
</trkpt>
<trkpt lat="40.0713751" lon="-105.2297889">
  <ele>1583.07</ele>
  <time>2026-08-28T17:48:28Z</time>
  <course>247.07</course>
  <speed>0.022360679774997897</speed>
  <fix>3d</fix>
</trkpt>
<trkpt lat="40.0713749" lon="-105.229789">
  <ele>1583.0</ele>
  <time>2026-08-28T17:48:28Z</time>
  <course>0.0</course>
  <speed>0.0</speed>
  <fix>3d</fix>
</trkpt>
<trkpt lat="40.071375" lon="-105.2297889">
  <ele>1583.06</ele>
  <time>2026-08-28T17:48:28Z</time>
  <course>247.07</course>
  <speed>0.022360679774997897</speed>
  <fix>3d</fix>
</trkpt>
<trkpt lat="40.0713749" lon="-105.229789">
  <ele>1583.0</ele>
  <time>2026-08-28T17:48:28Z</time>
  <course>0.0</course>
  <speed>0.0</speed>
  <fix>3d</fix>
</trkpt>
<trkpt lat="40.0713751" lon="-105.2297889">
  <ele>1583.07</ele>
  <time>2026-08-28T17:48:28Z</time>
  <course>247.07</course>
  <speed>0.022360679774997897</speed>
  <fix>3d</fix>
</trkpt>
<trkpt lat="40.0713749" lon="-105.229789">
  <ele>1583.0</ele>
  <time>2026-08-28T17:48:28Z</time>
  <course>0.0</course>
  <speed>0.0</speed>
  <fix>3d</fix>
</trkpt>
<trkpt lat="40.071375" lon="-105.2297889">
  <ele>1583.07</ele>
  <time>2026-08-28T17:48:28Z</time>
  <course>247.07</course>
  <speed>0.022360679774997897</speed>
  <fix>3d</fix>
</trkpt>
<trkpt lat="40.0713749" lon="-105.229789">
  <ele>1583.0</ele>
  <time>2026-08-28T17:48:28Z</time>
  <course>0.0</course>
  <speed>0.0</speed>
  <fix>3d</fix>
</trkpt>
<trkpt lat="40.0713751" lon="-105.2297889">
  <ele>1583.07</ele>
  <time>2026-08-28T17:48:28Z</time>
  <course>247.07</course>
  <speed>0.022360679774997897</speed>
  <fix>3d</fix>
</trkpt>
<trkpt lat="40.0713749" lon="-105.229789">
  <ele>1583.0</ele>
  <time>2026-08-28T17:48:28Z</time>
  <course>0.0</course>
  <speed>0.0</speed>
  <fix>3d</fix>
</trkpt>
<trkpt lat="40.071375" lon="-105.2297889">
  <ele>1583.08</ele>
  <time>2026-08-28T17:48:28Z</time>
  <course>247.07</course>
  <speed>0.02</speed>
  <fix>3d</fix>
</trkpt>
<trkpt lat="40.0713749" lon="-105.229789">
  <ele>1583.0</ele>
  <time>2026-08-28T17:48:28Z</time>
  <course>0.0</course>
  <speed>0.0</speed>
  <fix>3d</fix>
</trkpt>
<trkpt lat="40.0713751" lon="-105.2297889">
  <ele>1583.09</ele>
  <time>2026-08-28T17:48:28Z</time>
  <course>247.07</course>
  <speed>0.022360679774997897</speed>
  <fix>3d</fix>
</trkpt>
<trkpt lat="40.0713749" lon="-105.229789">
  <ele>1583.0</ele>
  <time>2026-08-28T17:48:28Z</time>
  <course>0.0</course>
  <speed>0.0</speed>
  <fix>3d</fix>
</trkpt>
<trkpt lat="40.0713751" lon="-105.2297889">
  <ele>1583.1</ele>
  <time>2026-08-28T17:48:28Z</time>
  <course>247.07</course>
  <speed>0.022360679774997897</speed>
  <fix>3d</fix>
</trkpt>
<trkpt lat="40.0713749" lon="-105.229789">
  <ele>1583.0</ele>
  <time>2026-08-28T17:48:28Z</time>
  <course>0.0</course>
  <speed>0.0</speed>
  <fix>3d</fix>
</trkpt>
<trkpt lat="40.0713751" lon="-105.2297889">
  <ele>1583.1</ele>
  <time>2026-08-28T17:48:28Z</time>
  <course>247.07</course>
  <speed>0.022360679774997897</speed>
  <fix>3d</fix>
</trkpt>
<trkpt lat="40.0713749" lon="-105.229789">
  <ele>1583.0</ele>
  <time>2026-08-28T17:48:28Z</time>
  <course>0.0</course>
  <speed>0.0</speed>
  <fix>3d</fix>
</trkpt>
<trkpt lat="40.0713751" lon="-105.2297889">
  <ele>1583.11</ele>
  <time>2026-08-28T17:48:28Z</time>
  <course>247.07</course>
  <speed>0.022360679774997897</speed>
  <fix>3d</fix>
</trkpt>
<trkpt lat="40.0713749" lon="-105.229789">
  <ele>1583.0</ele>
  <time>2026-08-28T17:48:28Z</time>
  <course>0.0</course>
  <speed>0.0</speed>
  <fix>3d</fix>
</trkpt>
<trkpt lat="40.0713751" lon="-105.2297889">
  <ele>1583.12</ele>
  <time>2026-08-28T17:48:28Z</time>
  <course>247.07</course>
  <speed>0.022360679774997897</speed>
  <fix>3d</fix>
</trkpt>
<trkpt lat="40.0713749" lon="-105.229789">
  <ele>1583.0</ele>
  <time>2026-08-28T17:48:28Z</time>
  <course>0.0</course>
  <speed>0.0</speed>
  <fix>3d</fix>
</trkpt>
<trkpt lat="40.0713751" lon="-105.2297889">
  <ele>1583.12</ele>
  <time>2026-08-28T17:48:28Z</time>
  <course>247.07</course>
  <speed>0.022360679774997897</speed>
  <fix>3d</fix>
</trkpt>
<trkpt lat="40.0713749" lon="-105.229789">
  <ele>1583.0</ele>
  <time>2026-08-28T17:48:28Z</time>
  <course>0.0</course>
  <speed>0.0</speed>
  <fix>3d</fix>
</trkpt>
<trkpt lat="40.0713751" lon="-105.2297889">
  <ele>1583.12</ele>
  <time>2026-08-28T17:48:28Z</time>
  <course>247.07</course>
  <speed>0.022360679774997897</speed>
  <fix>3d</fix>
</trkpt>
<trkpt lat="40.0713749" lon="-105.229789">
  <ele>1583.0</ele>
  <time>2026-08-28T17:48:28Z</time>
  <course>0.0</course>
  <speed>0.0</speed>
  <fix>3d</fix>
</trkpt>
<trkpt lat="40.0713751" lon="-105.2297889">
  <ele>1583.12</ele>
  <time>2026-08-28T17:48:28Z</time>
  <course>247.07</course>
  <speed>0.022360679774997897</speed>
  <fix>3d</fix>
</trkpt>
<trkpt lat="40.0713749" lon="-105.229789">
  <ele>1583.0</ele>
  <time>2026-08-28T17:48:28Z</time>
  <course>0.0</course>
  <speed>0.0</speed>
  <fix>3d</fix>
</trkpt>
<trkpt lat="40.0713751" lon="-105.2297889">
  <ele>1583.12</ele>
  <time>2026-08-28T17:48:28Z</time>
  <course>247.07</course>
  <speed>0.022360679774997897</speed>
  <fix>3d</fix>
</trkpt>
<trkpt lat="40.0713749" lon="-105.229789">
  <ele>1583.0</ele>
  <time>2026-08-28T17:48:28Z</time>
  <course>0.0</course>
  <speed>0.0</speed>
  <fix>3d</fix>
</trkpt>
<trkpt lat="40.071375" lon="-105.2297889">
  <ele>1583.11</ele>
  <time>2026-08-28T17:48:28Z</time>
  <course>247.07</course>
  <speed>0.02</speed>
  <fix>3d</fix>
</trkpt>
<trkpt lat="40.0713749" lon="-105.229789">
  <ele>1583.0</ele>
  <time>2026-08-28T17:48:28Z</time>
  <course>0.0</course>
  <speed>0.0</speed>
  <fix>3d</fix>
</trkpt>
<trkpt lat="40.0713751" lon="-105.2297889">
  <ele>1583.11</ele>
  <time>2026-08-28T17:48:28Z</time>
  <course>247.07</course>
  <speed>0.022360679774997897</speed>
  <fix>3d</fix>
</trkpt>
<trkpt lat="40.0713749" lon="-105.229789">
  <ele>1583.0</ele>
  <time>2026-08-28T17:48:28Z</time>
  <course>0.0</course>
  <speed>0.0</speed>
  <fix>3d</fix>
</trkpt>
<trkpt lat="40.071375" lon="-105.2297889">
  <ele>1583.1</ele>
  <time>2026-08-28T17:48:28Z</time>
  <course>247.07</course>
  <speed>0.02</speed>
  <fix>3d</fix>
</trkpt>
<trkpt lat="40.0713749" lon="-105.229789">
  <ele>1583.0</ele>
  <time>2026-08-28T17:48:28Z</time>
  <course>0.0</course>
  <speed>0.0</speed>
  <fix>3d</fix>
</trkpt>
<trkpt lat="40.0713751" lon="-105.2297889">
  <ele>1583.1</ele>
  <time>2026-08-28T17:48:28Z</time>
  <course>247.07</course>
  <speed>0.022360679774997897</speed>
  <fix>3d</fix>
</trkpt>
<trkpt lat="40.0713749" lon="-105.229789">
  <ele>1583.0</ele>
  <time>2026-08-28T17:48:28Z</time>
  <course>0.0</course>
  <speed>0.0</speed>
  <fix>3d</fix>
</trkpt>
<trkpt lat="40.071375" lon="-105.2297889">
  <ele>1583.09</ele>
  <time>2026-08-28T17:48:28Z</time>
  <course>247.07</course>
  <speed>0.02</speed>
  <fix>3d</fix>
</trkpt>
<trkpt lat="40.0713749" lon="-105.229789">
  <ele>1583.0</ele>
  <time>2026-08-28T17:48:28Z</time>
  <course>0.0</course>
  <speed>0.0</speed>
  <fix>3d</fix>
</trkpt>
<trkpt lat="40.0713751" lon="-105.2297889">
  <ele>1583.09</ele>
  <time>2026-08-28T17:48:28Z</time>
  <course>247.07</course>
  <speed>0.022360679774997897</speed>
  <fix>3d</fix>
</trkpt>
<trkpt lat="40.0713749" lon="-105.229789">
  <ele>1583.0</ele>
  <time>2026-08-28T17:48:28Z</time>
  <course>0.0</course>
  <speed>0.0</speed>
  <fix>3d</fix>
</trkpt>
<trkpt lat="40.071375" lon="-105.2297889">
  <ele>1583.08</ele>
  <time>2026-08-28T17:48:28Z</time>
  <course>247.07</course>
  <speed>0.02</speed>
  <fix>3d</fix>
</trkpt>
<trkpt lat="40.0713749" lon="-105.229789">
  <ele>1583.0</ele>
  <time>2026-08-28T17:48:28Z</time>
  <course>0.0</course>
  <speed>0.0</speed>
  <fix>3d</fix>
</trkpt>
<trkpt lat="40.0713751" lon="-105.2297889">
  <ele>1583.07</ele>
  <time>2026-08-28T17:48:28Z</time>
  <course>247.07</course>
  <speed>0.022360679774997897</speed>
  <fix>3d</fix>
</trkpt>
<trkpt lat="40.0713749" lon="-105.229789">
  <ele>1583.0</ele>
  <time>2026-08-28T17:48:28Z</time>
  <course>0.0</course>
  <speed>0.0</speed>
  <fix>3d</fix>
</trkpt>
<trkpt lat="40.071375" lon="-105.2297889">
  <ele>1583.06</ele>
  <time>2026-08-28T17:48:28Z</time>
  <course>247.07</course>
  <speed>0.022360679774997897</speed>
  <fix>3d</fix>
</trkpt>
<trkpt lat="40.0713749" lon="-105.229789">
  <ele>1583.0</ele>
  <time>2026-08-28T17:48:28Z</time>
  <course>0.0</course>
  <speed>0.0</speed>
  <fix>3d</fix>
</trkpt>
<trkpt lat="40.0713751" lon="-105.2297889">
  <ele>1583.06</ele>
  <time>2026-08-28T17:48:28Z</time>
  <course>247.07</course>
  <speed>0.022360679774997897</speed>
  <fix>3d</fix>
</trkpt>
<trkpt lat="40.0713749" lon="-105.229789">
  <ele>1583.0</ele>
  <time>2026-08-28T17:48:28Z</time>
  <course>0.0</course>
  <speed>0.0</speed>
  <fix>3d</fix>
</trkpt>
<trkpt lat="40.071375" lon="-105.2297889">
  <ele>1583.05</ele>
  <time>2026-08-28T17:48:28Z</time>
  <course>247.07</course>
  <speed>0.022360679774997897</speed>
  <fix>3d</fix>
</trkpt>
<trkpt lat="40.0713749" lon="-105.229789">
  <ele>1583.0</ele>
  <time>2026-08-28T17:48:28Z</time>
  <course>0.0</course>
  <speed>0.0</speed>
  <fix>3d</fix>
</trkpt>
<trkpt lat="40.0713751" lon="-105.2297889">
  <ele>1583.04</ele>
  <time>2026-08-28T17:48:28Z</time>
  <course>247.07</course>
  <speed>0.022360679774997897</speed>
  <fix>3d</fix>
</trkpt>
<trkpt lat="40.0713749" lon="-105.229789">
  <ele>1583.0</ele>
  <time>2026-08-28T17:48:28Z</time>
  <course>0.0</course>
  <speed>0.0</speed>
  <fix>3d</fix>
</trkpt>
<trkpt lat="40.071375" lon="-105.2297889">
  <ele>1583.03</ele>
  <time>2026-08-28T17:48:28Z</time>
  <course>247.07</course>
  <speed>0.022360679774997897</speed>
  <fix>3d</fix>
</trkpt>
<trkpt lat="40.0713749" lon="-105.229789">
  <ele>1583.0</ele>
  <time>2026-08-28T17:48:28Z</time>
  <course>0.0</course>
  <speed>0.0</speed>
  <fix>3d</fix>
</trkpt>
<trkpt lat="40.0713751" lon="-105.2297889">
  <ele>1583.02</ele>
  <time>2026-08-28T17:48:28Z</time>
  <course>247.07</course>
  <speed>0.022360679774997897</speed>
  <fix>3d</fix>
</trkpt>
<trkpt lat="40.0713749" lon="-105.229789">
  <ele>1583.0</ele>
  <time>2026-08-28T17:48:28Z</time>
  <course>0.0</course>
  <speed>0.0</speed>
  <fix>3d</fix>
</trkpt>
<trkpt lat="40.0713751" lon="-105.2297889">
  <ele>1583.01</ele>
  <time>2026-08-28T17:48:28Z</time>
  <course>247.07</course>
  <speed>0.022360679774997897</speed>
  <fix>3d</fix>
</trkpt>
<trkpt lat="40.0713749" lon="-105.229789">
  <ele>1583.0</ele>
  <time>2026-08-28T17:48:28Z</time>
  <course>0.0</course>
  <speed>0.0</speed>
  <fix>3d</fix>
</trkpt>
<trkpt lat="40.0713751" lon="-105.2297889">
  <ele>1583.0</ele>
  <time>2026-08-28T17:48:28Z</time>
  <course>247.07</course>
  <speed>0.022360679774997897</speed>
  <fix>3d</fix>
</trkpt>
<trkpt lat="40.0713749" lon="-105.229789">
  <ele>1583.0</ele>
  <time>2026-08-28T17:48:28Z</time>
  <course>0.0</course>
  <speed>0.0</speed>
  <fix>3d</fix>
</trkpt>
<trkpt lat="40.0713751" lon="-105.2297889">
  <ele>1582.99</ele>
  <time>2026-08-28T17:48:28Z</time>
  <course>247.07</course>
  <speed>0.022360679774997897</speed>
  <fix>3d</fix>
</trkpt>
<trkpt lat="40.0713749" lon="-105.229789">
  <ele>1583.0</ele>
  <time>2026-08-28T17:48:28Z</time>
  <course>0.0</course>
  <speed>0.0</speed>
  <fix>3d</fix>
</trkpt>
<trkpt lat="40.0713751" lon="-105.2297889">
  <ele>1582.98</ele>
  <time>2026-08-28T17:48:28Z</time>
  <course>247.07</course>
  <speed>0.022360679774997897</speed>
  <fix>3d</fix>
</trkpt>
<trkpt lat="40.0713749" lon="-105.229789">
  <ele>1583.0</ele>
  <time>2026-08-28T17:48:28Z</time>
  <course>0.0</course>
  <speed>0.0</speed>
  <fix>3d</fix>
</trkpt>
<trkpt lat="40.0713751" lon="-105.2297889">
  <ele>1582.98</ele>
  <time>2026-08-28T17:48:28Z</time>
  <course>247.07</course>
  <speed>0.022360679774997897</speed>
  <fix>3d</fix>
</trkpt>
<trkpt lat="40.0713749" lon="-105.229789">
  <ele>1583.0</ele>
  <time>2026-08-28T17:48:28Z</time>
  <course>0.0</course>
  <speed>0.0</speed>
  <fix>3d</fix>
</trkpt>
<trkpt lat="40.0713751" lon="-105.2297889">
  <ele>1582.97</ele>
  <time>2026-08-28T17:48:28Z</time>
  <course>247.07</course>
  <speed>0.022360679774997897</speed>
  <fix>3d</fix>
</trkpt>
<trkpt lat="40.0713749" lon="-105.229789">
  <ele>1583.0</ele>
  <time>2026-08-28T17:48:28Z</time>
  <course>0.0</course>
  <speed>0.0</speed>
  <fix>3d</fix>
</trkpt>
<trkpt lat="40.071375" lon="-105.2297889">
  <ele>1582.96</ele>
  <time>2026-08-28T17:48:28Z</time>
  <course>247.07</course>
  <speed>0.022360679774997897</speed>
  <fix>3d</fix>
</trkpt>
<trkpt lat="40.0713749" lon="-105.229789">
  <ele>1583.0</ele>
  <time>2026-08-28T17:48:28Z</time>
  <course>0.0</course>
  <speed>0.0</speed>
  <fix>3d</fix>
</trkpt>
<trkpt lat="40.0713751" lon="-105.2297889">
  <ele>1582.95</ele>
  <time>2026-08-28T17:48:28Z</time>
  <course>247.07</course>
  <speed>0.022360679774997897</speed>
  <fix>3d</fix>
</trkpt>
<trkpt lat="40.0713749" lon="-105.229789">
  <ele>1583.0</ele>
  <time>2026-08-28T17:48:28Z</time>
  <course>0.0</course>
  <speed>0.0</speed>
  <fix>3d</fix>
</trkpt>
<trkpt lat="40.071375" lon="-105.2297889">
  <ele>1582.94</ele>
  <time>2026-08-28T17:48:28Z</time>
  <course>247.07</course>
  <speed>0.022360679774997897</speed>
  <fix>3d</fix>
</trkpt>
<trkpt lat="40.0713749" lon="-105.229789">
  <ele>1583.0</ele>
  <time>2026-08-28T17:48:28Z</time>
  <course>0.0</course>
  <speed>0.0</speed>
  <fix>3d</fix>
</trkpt>
<trkpt lat="40.0713751" lon="-105.2297889">
  <ele>1582.93</ele>
  <time>2026-08-28T17:48:28Z</time>
  <course>247.06</course>
  <speed>0.022360679774997897</speed>
  <fix>3d</fix>
</trkpt>
<trkpt lat="40.0713749" lon="-105.229789">
  <ele>1583.0</ele>
  <time>2026-08-28T17:48:28Z</time>
  <course>0.0</course>
  <speed>0.0</speed>
  <fix>3d</fix>
</trkpt>
<trkpt lat="40.071375" lon="-105.2297889">
  <ele>1582.93</ele>
  <time>2026-08-28T17:48:28Z</time>
  <course>247.06</course>
  <speed>0.022360679774997897</speed>
  <fix>3d</fix>
</trkpt>
<trkpt lat="40.0713749" lon="-105.229789">
  <ele>1583.0</ele>
  <time>2026-08-28T17:48:28Z</time>
  <course>0.0</course>
  <speed>0.0</speed>
  <fix>3d</fix>
</trkpt>
<trkpt lat="40.0713751" lon="-105.2297889">
  <ele>1582.92</ele>
  <time>2026-08-28T17:48:28Z</time>
  <course>247.06</course>
  <speed>0.022360679774997897</speed>
  <fix>3d</fix>
</trkpt>
<trkpt lat="40.0713749" lon="-105.229789">
  <ele>1583.0</ele>
  <time>2026-08-28T17:48:28Z</time>
  <course>0.0</course>
  <speed>0.0</speed>
  <fix>3d</fix>
</trkpt>
<trkpt lat="40.071375" lon="-105.2297889">
  <ele>1582.92</ele>
  <time>2026-08-28T17:48:28Z</time>
  <course>247.06</course>
  <speed>0.022360679774997897</speed>
  <fix>3d</fix>
</trkpt>
<trkpt lat="40.0713749" lon="-105.229789">
  <ele>1583.0</ele>
  <time>2026-08-28T17:48:28Z</time>
  <course>0.0</course>
  <speed>0.0</speed>
  <fix>3d</fix>
</trkpt>
<trkpt lat="40.0713751" lon="-105.2297889">
  <ele>1582.92</ele>
  <time>2026-08-28T17:48:28Z</time>
  <course>247.06</course>
  <speed>0.022360679774997897</speed>
  <fix>3d</fix>
</trkpt>
<trkpt lat="40.0713749" lon="-105.229789">
  <ele>1583.0</ele>
  <time>2026-08-28T17:48:28Z</time>
  <course>0.0</course>
  <speed>0.0</speed>
  <fix>3d</fix>
</trkpt>
<trkpt lat="40.071375" lon="-105.2297889">
  <ele>1582.92</ele>
  <time>2026-08-28T17:48:28Z</time>
  <course>247.06</course>
  <speed>0.022360679774997897</speed>
  <fix>3d</fix>
</trkpt>
<trkpt lat="40.0713749" lon="-105.229789">
  <ele>1583.0</ele>
  <time>2026-08-28T17:48:28Z</time>
  <course>0.0</course>
  <speed>0.0</speed>
  <fix>3d</fix>
</trkpt>
<trkpt lat="40.071375" lon="-105.2297889">
  <ele>1582.92</ele>
  <time>2026-08-28T17:48:28Z</time>
  <course>247.06</course>
  <speed>0.022360679774997897</speed>
  <fix>3d</fix>
</trkpt>
<trkpt lat="40.0713749" lon="-105.229789">
  <ele>1583.0</ele>
  <time>2026-08-28T17:48:28Z</time>
  <course>0.0</course>
  <speed>0.0</speed>
  <fix>3d</fix>
</trkpt>
<trkpt lat="40.071375" lon="-105.2297889">
  <ele>1582.93</ele>
  <time>2026-08-28T17:48:28Z</time>
  <course>247.06</course>
  <speed>0.022360679774997897</speed>
  <fix>3d</fix>
</trkpt>
<trkpt lat="40.0713749" lon="-105.229789">
  <ele>1583.0</ele>
  <time>2026-08-28T17:48:28Z</time>
  <course>0.0</course>
  <speed>0.0</speed>
  <fix>3d</fix>
</trkpt>
<trkpt lat="40.071375" lon="-105.2297889">
  <ele>1582.94</ele>
  <time>2026-08-28T17:48:28Z</time>
  <course>247.06</course>
  <speed>0.022360679774997897</speed>
  <fix>3d</fix>
</trkpt>
<trkpt lat="40.0713749" lon="-105.229789">
  <ele>1583.0</ele>
  <time>2026-08-28T17:48:28Z</time>
  <course>0.0</course>
  <speed>0.0</speed>
  <fix>3d</fix>
</trkpt>
<trkpt lat="40.0713751" lon="-105.2297889">
  <ele>1582.97</ele>
  <time>2026-08-28T17:48:28Z</time>
  <course>247.06</course>
  <speed>0.022360679774997897</speed>
  <fix>3d</fix>
</trkpt>
<trkpt lat="40.0713749" lon="-105.229789">
  <ele>1583.0</ele>
  <time>2026-08-28T17:48:28Z</time>
  <course>0.0</course>
  <speed>0.0</speed>
  <fix>3d</fix>
</trkpt>
<trkpt lat="40.0713751" lon="-105.2297889">
  <ele>1582.99</ele>
  <time>2026-08-28T17:48:28Z</time>
  <course>247.06</course>
  <speed>0.022360679774997897</speed>
  <fix>3d</fix>
</trkpt>
<trkpt lat="40.0713749" lon="-105.229789">
  <ele>1583.0</ele>
  <time>2026-08-28T17:48:28Z</time>
  <course>0.0</course>
  <speed>0.0</speed>
  <fix>3d</fix>
</trkpt>
<trkpt lat="40.0713751" lon="-105.2297889">
  <ele>1582.99</ele>
  <time>2026-08-28T17:48:28Z</time>
  <course>247.06</course>
  <speed>0.022360679774997897</speed>
  <fix>3d</fix>
</trkpt>
<trkpt lat="40.0713749" lon="-105.229789">
  <ele>1583.0</ele>
  <time>2026-08-28T17:48:28Z</time>
  <course>0.0</course>
  <speed>0.0</speed>
  <fix>3d</fix>
</trkpt>
<trkpt lat="40.0713751" lon="-105.2297889">
  <ele>1582.99</ele>
  <time>2026-08-28T17:48:28Z</time>
  <course>247.06</course>
  <speed>0.022360679774997897</speed>
  <fix>3d</fix>
</trkpt>
<trkpt lat="40.0713749" lon="-105.229789">
  <ele>1583.0</ele>
  <time>2026-08-28T17:48:28Z</time>
  <course>0.0</course>
  <speed>0.0</speed>
  <fix>3d</fix>
</trkpt>
<trkpt lat="40.0713751" lon="-105.2297889">
  <ele>1582.98</ele>
  <time>2026-08-28T17:48:28Z</time>
  <course>247.06</course>
  <speed>0.022360679774997897</speed>
  <fix>3d</fix>
</trkpt>
<trkpt lat="40.0713749" lon="-105.229789">
  <ele>1583.0</ele>
  <time>2026-08-28T17:48:28Z</time>
  <course>0.0</course>
  <speed>0.0</speed>
  <fix>3d</fix>
</trkpt>
<trkpt lat="40.071375" lon="-105.2297889">
  <ele>1582.98</ele>
  <time>2026-08-28T17:48:28Z</time>
  <course>247.06</course>
  <speed>0.022360679774997897</speed>
  <fix>3d</fix>
</trkpt>
<trkpt lat="40.0713749" lon="-105.229789">
  <ele>1583.0</ele>
  <time>2026-08-28T17:48:28Z</time>
  <course>0.0</course>
  <speed>0.0</speed>
  <fix>3d</fix>
</trkpt>
<trkpt lat="40.0713751" lon="-105.2297889">
  <ele>1582.97</ele>
  <time>2026-08-28T17:48:28Z</time>
  <course>247.06</course>
  <speed>0.022360679774997897</speed>
  <fix>3d</fix>
</trkpt>
<trkpt lat="40.0713749" lon="-105.229789">
  <ele>1583.0</ele>
  <time>2026-08-28T17:48:28Z</time>
  <course>0.0</course>
  <speed>0.0</speed>
  <fix>3d</fix>
</trkpt>
<trkpt lat="40.071375" lon="-105.2297889">
  <ele>1582.97</ele>
  <time>2026-08-28T17:48:28Z</time>
  <course>247.06</course>
  <speed>0.022360679774997897</speed>
  <fix>3d</fix>
</trkpt>
<trkpt lat="40.0713749" lon="-105.229789">
  <ele>1583.0</ele>
  <time>2026-08-28T17:48:28Z</time>
  <course>0.0</course>
  <speed>0.0</speed>
  <fix>3d</fix>
</trkpt>
<trkpt lat="40.0713751" lon="-105.2297889">
  <ele>1582.96</ele>
  <time>2026-08-28T17:48:28Z</time>
  <course>247.06</course>
  <speed>0.022360679774997897</speed>
  <fix>3d</fix>
</trkpt>
<trkpt lat="40.0713749" lon="-105.229789">
  <ele>1583.0</ele>
  <time>2026-08-28T17:48:28Z</time>
  <course>0.0</course>
  <speed>0.0</speed>
  <fix>3d</fix>
</trkpt>
<trkpt lat="40.071375" lon="-105.2297889">
  <ele>1582.96</ele>
  <time>2026-08-28T17:48:28Z</time>
  <course>247.06</course>
  <speed>0.022360679774997897</speed>
  <fix>3d</fix>
</trkpt>
<trkpt lat="40.0713749" lon="-105.229789">
  <ele>1583.0</ele>
  <time>2026-08-28T17:48:28Z</time>
  <course>0.0</course>
  <speed>0.0</speed>
  <fix>3d</fix>
</trkpt>
<trkpt lat="40.0713751" lon="-105.2297889">
  <ele>1582.95</ele>
  <time>2026-08-28T17:48:28Z</time>
  <course>247.06</course>
  <speed>0.022360679774997897</speed>
  <fix>3d</fix>
</trkpt>
<trkpt lat="40.0713749" lon="-105.229789">
  <ele>1583.0</ele>
  <time>2026-08-28T17:48:28Z</time>
  <course>0.0</course>
  <speed>0.0</speed>
  <fix>3d</fix>
</trkpt>
<trkpt lat="40.071375" lon="-105.2297889">
  <ele>1582.95</ele>
  <time>2026-08-28T17:48:28Z</time>
  <course>247.06</course>
  <speed>0.022360679774997897</speed>
  <fix>3d</fix>
</trkpt>
<trkpt lat="40.0713749" lon="-105.229789">
  <ele>1583.0</ele>
  <time>2026-08-28T17:48:28Z</time>
  <course>0.0</course>
  <speed>0.0</speed>
  <fix>3d</fix>
</trkpt>
<trkpt lat="40.0713751" lon="-105.2297889">
  <ele>1582.95</ele>
  <time>2026-08-28T17:48:28Z</time>
  <course>247.06</course>
  <speed>0.022360679774997897</speed>
  <fix>3d</fix>
</trkpt>
<trkpt lat="40.0713749" lon="-105.229789">
  <ele>1583.0</ele>
  <time>2026-08-28T17:48:28Z</time>
  <course>0.0</course>
  <speed>0.0</speed>
  <fix>3d</fix>
</trkpt>
<trkpt lat="40.071375" lon="-105.2297889">
  <ele>1582.95</ele>
  <time>2026-08-28T17:48:28Z</time>
  <course>247.06</course>
  <speed>0.022360679774997897</speed>
  <fix>3d</fix>
</trkpt>
<trkpt lat="40.0713749" lon="-105.229789">
  <ele>1583.0</ele>
  <time>2026-08-28T17:48:28Z</time>
  <course>0.0</course>
  <speed>0.0</speed>
  <fix>3d</fix>
</trkpt>
<trkpt lat="40.0713751" lon="-105.2297889">
  <ele>1582.95</ele>
  <time>2026-08-28T17:48:28Z</time>
  <course>247.06</course>
  <speed>0.022360679774997897</speed>
  <fix>3d</fix>
</trkpt>
<trkpt lat="40.0713749" lon="-105.229789">
  <ele>1583.0</ele>
  <time>2026-08-28T17:48:28Z</time>
  <course>0.0</course>
  <speed>0.0</speed>
  <fix>3d</fix>
</trkpt>
<trkpt lat="40.071375" lon="-105.2297889">
  <ele>1582.95</ele>
  <time>2026-08-28T17:48:28Z</time>
  <course>247.06</course>
  <speed>0.022360679774997897</speed>
  <fix>3d</fix>
</trkpt>
<trkpt lat="40.0713749" lon="-105.229789">
  <ele>1583.0</ele>
  <time>2026-08-28T17:48:28Z</time>
  <course>0.0</course>
  <speed>0.0</speed>
  <fix>3d</fix>
</trkpt>
<trkpt lat="40.0713751" lon="-105.2297889">
  <ele>1582.96</ele>
  <time>2026-08-28T17:48:28Z</time>
  <course>247.06</course>
  <speed>0.022360679774997897</speed>
  <fix>3d</fix>
</trkpt>
<trkpt lat="40.0713749" lon="-105.229789">
  <ele>1583.0</ele>
  <time>2026-08-28T17:48:28Z</time>
  <course>0.0</course>
  <speed>0.0</speed>
  <fix>3d</fix>
</trkpt>
<trkpt lat="40.071375" lon="-105.2297889">
  <ele>1582.96</ele>
  <time>2026-08-28T17:48:28Z</time>
  <course>247.06</course>
  <speed>0.022360679774997897</speed>
  <fix>3d</fix>
</trkpt>
<trkpt lat="40.0713749" lon="-105.229789">
  <ele>1583.0</ele>
  <time>2026-08-28T17:48:28Z</time>
  <course>0.0</course>
  <speed>0.0</speed>
  <fix>3d</fix>
</trkpt>
<trkpt lat="40.0713751" lon="-105.2297889">
  <ele>1582.96</ele>
  <time>2026-08-28T17:48:28Z</time>
  <course>247.06</course>
  <speed>0.022360679774997897</speed>
  <fix>3d</fix>
</trkpt>
<trkpt lat="40.0713749" lon="-105.229789">
  <ele>1583.0</ele>
  <time>2026-08-28T17:48:28Z</time>
  <course>0.0</course>
  <speed>0.0</speed>
  <fix>3d</fix>
</trkpt>
<trkpt lat="40.0713751" lon="-105.2297889">
  <ele>1582.97</ele>
  <time>2026-08-28T17:48:28Z</time>
  <course>247.06</course>
  <speed>0.022360679774997897</speed>
  <fix>3d</fix>
</trkpt>
<trkpt lat="40.0713749" lon="-105.229789">
  <ele>1583.0</ele>
  <time>2026-08-28T17:48:28Z</time>
  <course>0.0</course>
  <speed>0.0</speed>
  <fix>3d</fix>
</trkpt>
<trkpt lat="40.0713751" lon="-105.2297889">
  <ele>1582.97</ele>
  <time>2026-08-28T17:48:28Z</time>
  <course>247.06</course>
  <speed>0.022360679774997897</speed>
  <fix>3d</fix>
</trkpt>
<trkpt lat="40.0713749" lon="-105.229789">
  <ele>1583.0</ele>
  <time>2026-08-28T17:48:28Z</time>
  <course>0.0</course>
  <speed>0.0</speed>
  <fix>3d</fix>
</trkpt>
<trkpt lat="40.0713751" lon="-105.2297889">
  <ele>1582.97</ele>
  <time>2026-08-28T17:48:28Z</time>
  <course>247.06</course>
  <speed>0.022360679774997897</speed>
  <fix>3d</fix>
</trkpt>
<trkpt lat="40.0713749" lon="-105.229789">
  <ele>1583.0</ele>
  <time>2026-08-28T17:48:28Z</time>
  <course>0.0</course>
  <speed>0.0</speed>
  <fix>3d</fix>
</trkpt>
<trkpt lat="40.0713751" lon="-105.2297889">
  <ele>1582.97</ele>
  <time>2026-08-28T17:48:28Z</time>
  <course>247.06</course>
  <speed>0.022360679774997897</speed>
  <fix>3d</fix>
</trkpt>
<trkpt lat="40.0713749" lon="-105.229789">
  <ele>1583.0</ele>
  <time>2026-08-28T17:48:28Z</time>
  <course>0.0</course>
  <speed>0.0</speed>
  <fix>3d</fix>
</trkpt>
<trkpt lat="40.0713751" lon="-105.2297889">
  <ele>1582.97</ele>
  <time>2026-08-28T17:48:28Z</time>
  <course>247.06</course>
  <speed>0.022360679774997897</speed>
  <fix>3d</fix>
</trkpt>
<trkpt lat="40.0713749" lon="-105.229789">
  <ele>1583.0</ele>
  <time>2026-08-28T17:48:28Z</time>
  <course>0.0</course>
  <speed>0.0</speed>
  <fix>3d</fix>
</trkpt>
<trkpt lat="40.0713751" lon="-105.2297889">
  <ele>1582.97</ele>
  <time>2026-08-28T17:48:28Z</time>
  <course>247.06</course>
  <speed>0.022360679774997897</speed>
  <fix>3d</fix>
</trkpt>
<trkpt lat="40.0713749" lon="-105.229789">
  <ele>1583.0</ele>
  <time>2026-08-28T17:48:28Z</time>
  <course>0.0</course>
  <speed>0.0</speed>
  <fix>3d</fix>
</trkpt>
<trkpt lat="40.071375" lon="-105.2297889">
  <ele>1582.97</ele>
  <time>2026-08-28T17:48:28Z</time>
  <course>247.06</course>
  <speed>0.022360679774997897</speed>
  <fix>3d</fix>
</trkpt>
<trkpt lat="40.0713749" lon="-105.229789">
  <ele>1583.0</ele>
  <time>2026-08-28T17:48:28Z</time>
  <course>0.0</course>
  <speed>0.0</speed>
  <fix>3d</fix>
</trkpt>
<trkpt lat="40.0713751" lon="-105.2297889">
  <ele>1582.98</ele>
  <time>2026-08-28T17:48:28Z</time>
  <course>247.06</course>
  <speed>0.022360679774997897</speed>
  <fix>3d</fix>
</trkpt>
<trkpt lat="40.0713749" lon="-105.229789">
  <ele>1583.0</ele>
  <time>2026-08-28T17:48:28Z</time>
  <course>0.0</course>
  <speed>0.0</speed>
  <fix>3d</fix>
</trkpt>
<trkpt lat="40.071375" lon="-105.2297889">
  <ele>1582.97</ele>
  <time>2026-08-28T17:48:28Z</time>
  <course>247.06</course>
  <speed>0.022360679774997897</speed>
  <fix>3d</fix>
</trkpt>
<trkpt lat="40.0713749" lon="-105.229789">
  <ele>1583.0</ele>
  <time>2026-08-28T17:48:28Z</time>
  <course>0.0</course>
  <speed>0.0</speed>
  <fix>3d</fix>
</trkpt>
<trkpt lat="40.0713751" lon="-105.2297889">
  <ele>1582.97</ele>
  <time>2026-08-28T17:48:28Z</time>
  <course>247.06</course>
  <speed>0.022360679774997897</speed>
  <fix>3d</fix>
</trkpt>
<trkpt lat="40.0713749" lon="-105.229789">
  <ele>1583.0</ele>
  <time>2026-08-28T17:48:28Z</time>
  <course>0.0</course>
  <speed>0.0</speed>
  <fix>3d</fix>
</trkpt>
<trkpt lat="40.071375" lon="-105.2297889">
  <ele>1582.97</ele>
  <time>2026-08-28T17:48:28Z</time>
  <course>247.06</course>
  <speed>0.022360679774997897</speed>
  <fix>3d</fix>
</trkpt>
<trkpt lat="40.0713749" lon="-105.229789">
  <ele>1583.0</ele>
  <time>2026-08-28T17:48:28Z</time>
  <course>0.0</course>
  <speed>0.0</speed>
  <fix>3d</fix>
</trkpt>
<trkpt lat="40.0713751" lon="-105.2297889">
  <ele>1582.97</ele>
  <time>2026-08-28T17:48:28Z</time>
  <course>247.06</course>
  <speed>0.022360679774997897</speed>
  <fix>3d</fix>
</trkpt>
<trkpt lat="40.0713749" lon="-105.229789">
  <ele>1583.0</ele>
  <time>2026-08-28T17:48:28Z</time>
  <course>0.0</course>
  <speed>0.0</speed>
  <fix>3d</fix>
</trkpt>
<trkpt lat="40.071375" lon="-105.2297889">
  <ele>1582.97</ele>
  <time>2026-08-28T17:48:28Z</time>
  <course>247.06</course>
  <speed>0.022360679774997897</speed>
  <fix>3d</fix>
</trkpt>
<trkpt lat="40.0713749" lon="-105.229789">
  <ele>1583.0</ele>
  <time>2026-08-28T17:48:28Z</time>
  <course>0.0</course>
  <speed>0.0</speed>
  <fix>3d</fix>
</trkpt>
<trkpt lat="40.0713751" lon="-105.2297889">
  <ele>1582.96</ele>
  <time>2026-08-28T17:48:28Z</time>
  <course>247.06</course>
  <speed>0.022360679774997897</speed>
  <fix>3d</fix>
</trkpt>
<trkpt lat="40.0713749" lon="-105.229789">
  <ele>1583.0</ele>
  <time>2026-08-28T17:48:28Z</time>
  <course>0.0</course>
  <speed>0.0</speed>
  <fix>3d</fix>
</trkpt>
<trkpt lat="40.071375" lon="-105.2297889">
  <ele>1582.97</ele>
  <time>2026-08-28T17:48:28Z</time>
  <course>247.06</course>
  <speed>0.022360679774997897</speed>
  <fix>3d</fix>
</trkpt>
<trkpt lat="40.0713749" lon="-105.229789">
  <ele>1583.0</ele>
  <time>2026-08-28T17:48:28Z</time>
  <course>0.0</course>
  <speed>0.0</speed>
  <fix>3d</fix>
</trkpt>
<trkpt lat="40.0713751" lon="-105.2297889">
  <ele>1582.97</ele>
  <time>2026-08-28T17:48:28Z</time>
  <course>247.06</course>
  <speed>0.022360679774997897</speed>
  <fix>3d</fix>
</trkpt>
<trkpt lat="40.0713749" lon="-105.229789">
  <ele>1583.0</ele>
  <time>2026-08-28T17:48:28Z</time>
  <course>0.0</course>
  <speed>0.0</speed>
  <fix>3d</fix>
</trkpt>
<trkpt lat="40.071375" lon="-105.2297889">
  <ele>1582.97</ele>
  <time>2026-08-28T17:48:28Z</time>
  <course>247.06</course>
  <speed>0.022360679774997897</speed>
  <fix>3d</fix>
</trkpt>
<trkpt lat="40.0713749" lon="-105.229789">
  <ele>1583.0</ele>
  <time>2026-08-28T17:48:28Z</time>
  <course>0.0</course>
  <speed>0.0</speed>
  <fix>3d</fix>
</trkpt>
<trkpt lat="40.0713751" lon="-105.2297889">
  <ele>1582.97</ele>
  <time>2026-08-28T17:48:28Z</time>
  <course>247.06</course>
  <speed>0.022360679774997897</speed>
  <fix>3d</fix>
</trkpt>
<trkpt lat="40.0713749" lon="-105.229789">
  <ele>1583.0</ele>
  <time>2026-08-28T17:48:28Z</time>
  <course>0.0</course>
  <speed>0.0</speed>
  <fix>3d</fix>
</trkpt>
<trkpt lat="40.071375" lon="-105.2297889">
  <ele>1582.98</ele>
  <time>2026-08-28T17:48:28Z</time>
  <course>247.06</course>
  <speed>0.022360679774997897</speed>
  <fix>3d</fix>
</trkpt>
<trkpt lat="40.0713749" lon="-105.229789">
  <ele>1583.0</ele>
  <time>2026-08-28T17:48:28Z</time>
  <course>0.0</course>
  <speed>0.0</speed>
  <fix>3d</fix>
</trkpt>
<trkpt lat="40.0713751" lon="-105.2297889">
  <ele>1582.99</ele>
  <time>2026-08-28T17:48:28Z</time>
  <course>247.06</course>
  <speed>0.022360679774997897</speed>
  <fix>3d</fix>
</trkpt>
<trkpt lat="40.0713749" lon="-105.229789">
  <ele>1583.0</ele>
  <time>2026-08-28T17:48:28Z</time>
  <course>0.0</course>
  <speed>0.0</speed>
  <fix>3d</fix>
</trkpt>
<trkpt lat="40.0713751" lon="-105.2297889">
  <ele>1582.99</ele>
  <time>2026-08-28T17:48:28Z</time>
  <course>247.06</course>
  <speed>0.022360679774997897</speed>
  <fix>3d</fix>
</trkpt>
<trkpt lat="40.0713749" lon="-105.229789">
  <ele>1583.0</ele>
  <time>2026-08-28T17:48:28Z</time>
  <course>0.0</course>
  <speed>0.0</speed>
  <fix>3d</fix>
</trkpt>
<trkpt lat="40.0713751" lon="-105.2297889">
  <ele>1582.99</ele>
  <time>2026-08-28T17:48:28Z</time>
  <course>247.06</course>
  <speed>0.022360679774997897</speed>
  <fix>3d</fix>
</trkpt>
<trkpt lat="40.0713749" lon="-105.229789">
  <ele>1583.0</ele>
  <time>2026-08-28T17:48:28Z</time>
  <course>0.0</course>
  <speed>0.0</speed>
  <fix>3d</fix>
</trkpt>
<trkpt lat="40.0713751" lon="-105.2297889">
  <ele>1583.0</ele>
  <time>2026-08-28T17:48:28Z</time>
  <course>247.06</course>
  <speed>0.022360679774997897</speed>
  <fix>3d</fix>
</trkpt>
<trkpt lat="40.0713749" lon="-105.229789">
  <ele>1583.0</ele>
  <time>2026-08-28T17:48:28Z</time>
  <course>0.0</course>
  <speed>0.0</speed>
  <fix>3d</fix>
</trkpt>
<trkpt lat="40.0713751" lon="-105.2297889">
  <ele>1583.0</ele>
  <time>2026-08-28T17:48:28Z</time>
  <course>247.06</course>
  <speed>0.022360679774997897</speed>
  <fix>3d</fix>
</trkpt>
<trkpt lat="40.0713749" lon="-105.229789">
  <ele>1583.0</ele>
  <time>2026-08-28T17:48:28Z</time>
  <course>0.0</course>
  <speed>0.0</speed>
  <fix>3d</fix>
</trkpt>
<trkpt lat="40.0713751" lon="-105.2297889">
  <ele>1583.0</ele>
  <time>2026-08-28T17:48:28Z</time>
  <course>247.06</course>
  <speed>0.022360679774997897</speed>
  <fix>3d</fix>
</trkpt>
<trkpt lat="40.0713749" lon="-105.229789">
  <ele>1583.0</ele>
  <time>2026-08-28T17:48:28Z</time>
  <course>0.0</course>
  <speed>0.0</speed>
  <fix>3d</fix>
</trkpt>
<trkpt lat="40.0713751" lon="-105.2297889">
  <ele>1583.0</ele>
  <time>2026-08-28T17:48:28Z</time>
  <course>247.06</course>
  <speed>0.022360679774997897</speed>
  <fix>3d</fix>
</trkpt>
<trkpt lat="40.0713749" lon="-105.229789">
  <ele>1583.0</ele>
  <time>2026-08-28T17:48:28Z</time>
  <course>0.0</course>
  <speed>0.0</speed>
  <fix>3d</fix>
</trkpt>
<trkpt lat="40.0713751" lon="-105.2297889">
  <ele>1583.0</ele>
  <time>2026-08-28T17:48:28Z</time>
  <course>247.06</course>
  <speed>0.022360679774997897</speed>
  <fix>3d</fix>
</trkpt>
<trkpt lat="40.0713749" lon="-105.229789">
  <ele>1583.0</ele>
  <time>2026-08-28T17:48:28Z</time>
  <course>0.0</course>
  <speed>0.0</speed>
  <fix>3d</fix>
</trkpt>
<trkpt lat="40.0713751" lon="-105.2297889">
  <ele>1582.99</ele>
  <time>2026-08-28T17:48:28Z</time>
  <course>247.06</course>
  <speed>0.022360679774997897</speed>
  <fix>3d</fix>
</trkpt>
<trkpt lat="40.0713749" lon="-105.229789">
  <ele>1583.0</ele>
  <time>2026-08-28T17:48:28Z</time>
  <course>0.0</course>
  <speed>0.0</speed>
  <fix>3d</fix>
</trkpt>
<trkpt lat="40.0713751" lon="-105.2297889">
  <ele>1582.99</ele>
  <time>2026-08-28T17:48:28Z</time>
  <course>247.06</course>
  <speed>0.022360679774997897</speed>
  <fix>3d</fix>
</trkpt>
<trkpt lat="40.0713749" lon="-105.229789">
  <ele>1583.0</ele>
  <time>2026-08-28T17:48:28Z</time>
  <course>0.0</course>
  <speed>0.0</speed>
  <fix>3d</fix>
</trkpt>
<trkpt lat="40.0713751" lon="-105.2297889">
  <ele>1582.98</ele>
  <time>2026-08-28T17:48:28Z</time>
  <course>247.06</course>
  <speed>0.022360679774997897</speed>
  <fix>3d</fix>
</trkpt>
<trkpt lat="40.0713749" lon="-105.229789">
  <ele>1583.0</ele>
  <time>2026-08-28T17:48:28Z</time>
  <course>0.0</course>
  <speed>0.0</speed>
  <fix>3d</fix>
</trkpt>
<trkpt lat="40.071375" lon="-105.2297889">
  <ele>1582.98</ele>
  <time>2026-08-28T17:48:28Z</time>
  <course>247.06</course>
  <speed>0.022360679774997897</speed>
  <fix>3d</fix>
</trkpt>
<trkpt lat="40.0713749" lon="-105.229789">
  <ele>1583.0</ele>
  <time>2026-08-28T17:48:28Z</time>
  <course>0.0</course>
  <speed>0.0</speed>
  <fix>3d</fix>
</trkpt>
<trkpt lat="40.0713751" lon="-105.2297889">
  <ele>1582.98</ele>
  <time>2026-08-28T17:48:28Z</time>
  <course>247.06</course>
  <speed>0.022360679774997897</speed>
  <fix>3d</fix>
</trkpt>
<trkpt lat="40.0713749" lon="-105.229789">
  <ele>1583.0</ele>
  <time>2026-08-28T17:48:28Z</time>
  <course>0.0</course>
  <speed>0.0</speed>
  <fix>3d</fix>
</trkpt>
<trkpt lat="40.071375" lon="-105.2297889">
  <ele>1582.98</ele>
  <time>2026-08-28T17:48:28Z</time>
  <course>247.06</course>
  <speed>0.022360679774997897</speed>
  <fix>3d</fix>
</trkpt>
<trkpt lat="40.0713749" lon="-105.229789">
  <ele>1583.0</ele>
  <time>2026-08-28T17:48:28Z</time>
  <course>0.0</course>
  <speed>0.0</speed>
  <fix>3d</fix>
</trkpt>
<trkpt lat="40.0713751" lon="-105.2297889">
  <ele>1582.98</ele>
  <time>2026-08-28T17:48:28Z</time>
  <course>247.06</course>
  <speed>0.022360679774997897</speed>
  <fix>3d</fix>
</trkpt>
<trkpt lat="40.0713749" lon="-105.229789">
  <ele>1583.0</ele>
  <time>2026-08-28T17:48:28Z</time>
  <course>0.0</course>
  <speed>0.0</speed>
  <fix>3d</fix>
</trkpt>
<trkpt lat="40.071375" lon="-105.2297889">
  <ele>1582.98</ele>
  <time>2026-08-28T17:48:28Z</time>
  <course>247.06</course>
  <speed>0.022360679774997897</speed>
  <fix>3d</fix>
</trkpt>
<trkpt lat="40.0713749" lon="-105.229789">
  <ele>1583.0</ele>
  <time>2026-08-28T17:48:28Z</time>
  <course>0.0</course>
  <speed>0.0</speed>
  <fix>3d</fix>
</trkpt>
<trkpt lat="40.0713751" lon="-105.2297889">
  <ele>1582.98</ele>
  <time>2026-08-28T17:48:28Z</time>
  <course>247.06</course>
  <speed>0.022360679774997897</speed>
  <fix>3d</fix>
</trkpt>
<trkpt lat="40.0713749" lon="-105.229789">
  <ele>1583.0</ele>
  <time>2026-08-28T17:48:28Z</time>
  <course>0.0</course>
  <speed>0.0</speed>
  <fix>3d</fix>
</trkpt>
<trkpt lat="40.071375" lon="-105.2297889">
  <ele>1582.98</ele>
  <time>2026-08-28T17:48:28Z</time>
  <course>247.06</course>
  <speed>0.022360679774997897</speed>
  <fix>3d</fix>
</trkpt>
<trkpt lat="40.0713749" lon="-105.229789">
  <ele>1583.0</ele>
  <time>2026-08-28T17:48:28Z</time>
  <course>0.0</course>
  <speed>0.0</speed>
  <fix>3d</fix>
</trkpt>
<trkpt lat="40.0713751" lon="-105.2297889">
  <ele>1582.98</ele>
  <time>2026-08-28T17:48:28Z</time>
  <course>247.06</course>
  <speed>0.022360679774997897</speed>
  <fix>3d</fix>
</trkpt>
<trkpt lat="40.0713749" lon="-105.229789">
  <ele>1583.0</ele>
  <time>2026-08-28T17:48:28Z</time>
  <course>0.0</course>
  <speed>0.0</speed>
  <fix>3d</fix>
</trkpt>
<trkpt lat="40.071375" lon="-105.2297889">
  <ele>1582.98</ele>
  <time>2026-08-28T17:48:28Z</time>
  <course>247.06</course>
  <speed>0.022360679774997897</speed>
  <fix>3d</fix>
</trkpt>
<trkpt lat="40.0713749" lon="-105.229789">
  <ele>1583.0</ele>
  <time>2026-08-28T17:48:28Z</time>
  <course>0.0</course>
  <speed>0.0</speed>
  <fix>3d</fix>
</trkpt>
<trkpt lat="40.0713751" lon="-105.2297889">
  <ele>1582.99</ele>
  <time>2026-08-28T17:48:28Z</time>
  <course>247.06</course>
  <speed>0.022360679774997897</speed>
  <fix>3d</fix>
</trkpt>
<trkpt lat="40.0713749" lon="-105.229789">
  <ele>1583.0</ele>
  <time>2026-08-28T17:48:28Z</time>
  <course>0.0</course>
  <speed>0.0</speed>
  <fix>3d</fix>
</trkpt>
<trkpt lat="40.0713751" lon="-105.2297889">
  <ele>1582.99</ele>
  <time>2026-08-28T17:48:28Z</time>
  <course>247.06</course>
  <speed>0.022360679774997897</speed>
  <fix>3d</fix>
</trkpt>
<trkpt lat="40.0713749" lon="-105.229789">
  <ele>1583.0</ele>
  <time>2026-08-28T17:48:28Z</time>
  <course>0.0</course>
  <speed>0.0</speed>
  <fix>3d</fix>
</trkpt>
<trkpt lat="40.0713751" lon="-105.2297889">
  <ele>1582.99</ele>
  <time>2026-08-28T17:48:28Z</time>
  <course>247.06</course>
  <speed>0.022360679774997897</speed>
  <fix>3d</fix>
</trkpt>
<trkpt lat="40.0713749" lon="-105.229789">
  <ele>1583.0</ele>
  <time>2026-08-28T17:48:28Z</time>
  <course>0.0</course>
  <speed>0.0</speed>
  <fix>3d</fix>
</trkpt>
<trkpt lat="40.0713751" lon="-105.2297889">
  <ele>1582.99</ele>
  <time>2026-08-28T17:48:29Z</time>
  <course>247.06</course>
  <speed>0.022360679774997897</speed>
  <fix>3d</fix>
</trkpt>
<trkpt lat="40.0713749" lon="-105.229789">
  <ele>1583.0</ele>
  <time>2026-08-28T17:48:29Z</time>
  <course>0.0</course>
  <speed>0.0</speed>
  <fix>3d</fix>
</trkpt>
<trkpt lat="40.0713751" lon="-105.2297889">
  <ele>1583.0</ele>
  <time>2026-08-28T17:48:29Z</time>
  <course>247.06</course>
  <speed>0.022360679774997897</speed>
  <fix>3d</fix>
</trkpt>
<trkpt lat="40.0713749" lon="-105.229789">
  <ele>1583.0</ele>
  <time>2026-08-28T17:48:29Z</time>
  <course>0.0</course>
  <speed>0.0</speed>
  <fix>3d</fix>
</trkpt>
<trkpt lat="40.0713751" lon="-105.2297889">
  <ele>1583.01</ele>
  <time>2026-08-28T17:48:29Z</time>
  <course>247.06</course>
  <speed>0.022360679774997897</speed>
  <fix>3d</fix>
</trkpt>
<trkpt lat="40.0713749" lon="-105.229789">
  <ele>1583.0</ele>
  <time>2026-08-28T17:48:29Z</time>
  <course>0.0</course>
  <speed>0.0</speed>
  <fix>3d</fix>
</trkpt>
<trkpt lat="40.0713751" lon="-105.2297889">
  <ele>1583.01</ele>
  <time>2026-08-28T17:48:29Z</time>
  <course>247.06</course>
  <speed>0.022360679774997897</speed>
  <fix>3d</fix>
</trkpt>
<trkpt lat="40.0713749" lon="-105.229789">
  <ele>1583.0</ele>
  <time>2026-08-28T17:48:29Z</time>
  <course>0.0</course>
  <speed>0.0</speed>
  <fix>3d</fix>
</trkpt>
<trkpt lat="40.0713751" lon="-105.2297889">
  <ele>1583.02</ele>
  <time>2026-08-28T17:48:29Z</time>
  <course>247.06</course>
  <speed>0.022360679774997897</speed>
  <fix>3d</fix>
</trkpt>
<trkpt lat="40.0713749" lon="-105.229789">
  <ele>1583.0</ele>
  <time>2026-08-28T17:48:29Z</time>
  <course>0.0</course>
  <speed>0.0</speed>
  <fix>3d</fix>
</trkpt>
<trkpt lat="40.0713751" lon="-105.2297889">
  <ele>1583.02</ele>
  <time>2026-08-28T17:48:29Z</time>
  <course>247.06</course>
  <speed>0.022360679774997897</speed>
  <fix>3d</fix>
</trkpt>
<trkpt lat="40.0713749" lon="-105.229789">
  <ele>1583.0</ele>
  <time>2026-08-28T17:48:29Z</time>
  <course>0.0</course>
  <speed>0.0</speed>
  <fix>3d</fix>
</trkpt>
<trkpt lat="40.071375" lon="-105.2297889">
  <ele>1583.02</ele>
  <time>2026-08-28T17:48:29Z</time>
  <course>247.06</course>
  <speed>0.022360679774997897</speed>
  <fix>3d</fix>
</trkpt>
<trkpt lat="40.0713749" lon="-105.229789">
  <ele>1583.0</ele>
  <time>2026-08-28T17:48:29Z</time>
  <course>0.0</course>
  <speed>0.0</speed>
  <fix>3d</fix>
</trkpt>
<trkpt lat="40.0713751" lon="-105.2297889">
  <ele>1583.03</ele>
  <time>2026-08-28T17:48:29Z</time>
  <course>247.06</course>
  <speed>0.022360679774997897</speed>
  <fix>3d</fix>
</trkpt>
<trkpt lat="40.0713749" lon="-105.229789">
  <ele>1583.0</ele>
  <time>2026-08-28T17:48:29Z</time>
  <course>0.0</course>
  <speed>0.0</speed>
  <fix>3d</fix>
</trkpt>
<trkpt lat="40.071375" lon="-105.2297889">
  <ele>1583.03</ele>
  <time>2026-08-28T17:48:29Z</time>
  <course>247.06</course>
  <speed>0.022360679774997897</speed>
  <fix>3d</fix>
</trkpt>
<trkpt lat="40.0713749" lon="-105.229789">
  <ele>1583.0</ele>
  <time>2026-08-28T17:48:29Z</time>
  <course>0.0</course>
  <speed>0.0</speed>
  <fix>3d</fix>
</trkpt>
<trkpt lat="40.0713751" lon="-105.2297889">
  <ele>1583.03</ele>
  <time>2026-08-28T17:48:29Z</time>
  <course>247.06</course>
  <speed>0.022360679774997897</speed>
  <fix>3d</fix>
</trkpt>
<trkpt lat="40.0713749" lon="-105.229789">
  <ele>1583.0</ele>
  <time>2026-08-28T17:48:29Z</time>
  <course>0.0</course>
  <speed>0.0</speed>
  <fix>3d</fix>
</trkpt>
<trkpt lat="40.071375" lon="-105.2297889">
  <ele>1583.03</ele>
  <time>2026-08-28T17:48:29Z</time>
  <course>247.06</course>
  <speed>0.022360679774997897</speed>
  <fix>3d</fix>
</trkpt>
<trkpt lat="40.0713749" lon="-105.229789">
  <ele>1583.0</ele>
  <time>2026-08-28T17:48:29Z</time>
  <course>0.0</course>
  <speed>0.0</speed>
  <fix>3d</fix>
</trkpt>
<trkpt lat="40.0713751" lon="-105.2297889">
  <ele>1583.02</ele>
  <time>2026-08-28T17:48:29Z</time>
  <course>247.06</course>
  <speed>0.022360679774997897</speed>
  <fix>3d</fix>
</trkpt>
<trkpt lat="40.0713749" lon="-105.229789">
  <ele>1583.0</ele>
  <time>2026-08-28T17:48:29Z</time>
  <course>0.0</course>
  <speed>0.0</speed>
  <fix>3d</fix>
</trkpt>
<trkpt lat="40.071375" lon="-105.2297889">
  <ele>1583.02</ele>
  <time>2026-08-28T17:48:29Z</time>
  <course>247.05</course>
  <speed>0.022360679774997897</speed>
  <fix>3d</fix>
</trkpt>
<trkpt lat="40.0713749" lon="-105.229789">
  <ele>1583.0</ele>
  <time>2026-08-28T17:48:29Z</time>
  <course>0.0</course>
  <speed>0.0</speed>
  <fix>3d</fix>
</trkpt>
<trkpt lat="40.0713751" lon="-105.2297889">
  <ele>1583.01</ele>
  <time>2026-08-28T17:48:29Z</time>
  <course>247.05</course>
  <speed>0.022360679774997897</speed>
  <fix>3d</fix>
</trkpt>
<trkpt lat="40.0713749" lon="-105.229789">
  <ele>1583.0</ele>
  <time>2026-08-28T17:48:29Z</time>
  <course>0.0</course>
  <speed>0.0</speed>
  <fix>3d</fix>
</trkpt>
<trkpt lat="40.071375" lon="-105.2297889">
  <ele>1583.0</ele>
  <time>2026-08-28T17:48:29Z</time>
  <course>247.05</course>
  <speed>0.022360679774997897</speed>
  <fix>3d</fix>
</trkpt>
<trkpt lat="40.0713749" lon="-105.229789">
  <ele>1583.0</ele>
  <time>2026-08-28T17:48:29Z</time>
  <course>0.0</course>
  <speed>0.0</speed>
  <fix>3d</fix>
</trkpt>
<trkpt lat="40.0713751" lon="-105.2297889">
  <ele>1583.0</ele>
  <time>2026-08-28T17:48:29Z</time>
  <course>247.05</course>
  <speed>0.022360679774997897</speed>
  <fix>3d</fix>
</trkpt>
<trkpt lat="40.0713749" lon="-105.229789">
  <ele>1583.0</ele>
  <time>2026-08-28T17:48:29Z</time>
  <course>0.0</course>
  <speed>0.0</speed>
  <fix>3d</fix>
</trkpt>
<trkpt lat="40.071375" lon="-105.2297889">
  <ele>1582.99</ele>
  <time>2026-08-28T17:48:29Z</time>
  <course>247.05</course>
  <speed>0.022360679774997897</speed>
  <fix>3d</fix>
</trkpt>
<trkpt lat="40.0713749" lon="-105.229789">
  <ele>1583.0</ele>
  <time>2026-08-28T17:48:29Z</time>
  <course>0.0</course>
  <speed>0.0</speed>
  <fix>3d</fix>
</trkpt>
<trkpt lat="40.0713751" lon="-105.2297889">
  <ele>1582.98</ele>
  <time>2026-08-28T17:48:29Z</time>
  <course>247.05</course>
  <speed>0.022360679774997897</speed>
  <fix>3d</fix>
</trkpt>
<trkpt lat="40.0713749" lon="-105.229789">
  <ele>1583.0</ele>
  <time>2026-08-28T17:48:29Z</time>
  <course>0.0</course>
  <speed>0.0</speed>
  <fix>3d</fix>
</trkpt>
<trkpt lat="40.071375" lon="-105.2297889">
  <ele>1582.98</ele>
  <time>2026-08-28T17:48:29Z</time>
  <course>247.05</course>
  <speed>0.022360679774997897</speed>
  <fix>3d</fix>
</trkpt>
<trkpt lat="40.0713749" lon="-105.229789">
  <ele>1583.0</ele>
  <time>2026-08-28T17:48:29Z</time>
  <course>0.0</course>
  <speed>0.0</speed>
  <fix>3d</fix>
</trkpt>
<trkpt lat="40.0713751" lon="-105.2297889">
  <ele>1582.97</ele>
  <time>2026-08-28T17:48:29Z</time>
  <course>247.05</course>
  <speed>0.022360679774997897</speed>
  <fix>3d</fix>
</trkpt>
<trkpt lat="40.0713749" lon="-105.229789">
  <ele>1583.0</ele>
  <time>2026-08-28T17:48:29Z</time>
  <course>0.0</course>
  <speed>0.0</speed>
  <fix>3d</fix>
</trkpt>
<trkpt lat="40.0713751" lon="-105.2297889">
  <ele>1582.97</ele>
  <time>2026-08-28T17:48:29Z</time>
  <course>247.05</course>
  <speed>0.022360679774997897</speed>
  <fix>3d</fix>
</trkpt>
<trkpt lat="40.0713749" lon="-105.229789">
  <ele>1583.0</ele>
  <time>2026-08-28T17:48:29Z</time>
  <course>0.0</course>
  <speed>0.0</speed>
  <fix>3d</fix>
</trkpt>
<trkpt lat="40.0713751" lon="-105.2297889">
  <ele>1582.96</ele>
  <time>2026-08-28T17:48:29Z</time>
  <course>247.05</course>
  <speed>0.022360679774997897</speed>
  <fix>3d</fix>
</trkpt>
<trkpt lat="40.0713749" lon="-105.229789">
  <ele>1583.0</ele>
  <time>2026-08-28T17:48:29Z</time>
  <course>0.0</course>
  <speed>0.0</speed>
  <fix>3d</fix>
</trkpt>
<trkpt lat="40.0713751" lon="-105.2297889">
  <ele>1582.96</ele>
  <time>2026-08-28T17:48:29Z</time>
  <course>247.05</course>
  <speed>0.022360679774997897</speed>
  <fix>3d</fix>
</trkpt>
<trkpt lat="40.0713749" lon="-105.229789">
  <ele>1583.0</ele>
  <time>2026-08-28T17:48:29Z</time>
  <course>0.0</course>
  <speed>0.0</speed>
  <fix>3d</fix>
</trkpt>
<trkpt lat="40.0713751" lon="-105.2297889">
  <ele>1582.96</ele>
  <time>2026-08-28T17:48:29Z</time>
  <course>247.05</course>
  <speed>0.022360679774997897</speed>
  <fix>3d</fix>
</trkpt>
<trkpt lat="40.0713749" lon="-105.229789">
  <ele>1583.0</ele>
  <time>2026-08-28T17:48:29Z</time>
  <course>0.0</course>
  <speed>0.0</speed>
  <fix>3d</fix>
</trkpt>
<trkpt lat="40.0713751" lon="-105.2297889">
  <ele>1582.96</ele>
  <time>2026-08-28T17:48:29Z</time>
  <course>247.05</course>
  <speed>0.022360679774997897</speed>
  <fix>3d</fix>
</trkpt>
<trkpt lat="40.0713749" lon="-105.229789">
  <ele>1583.0</ele>
  <time>2026-08-28T17:48:29Z</time>
  <course>0.0</course>
  <speed>0.0</speed>
  <fix>3d</fix>
</trkpt>
<trkpt lat="40.0713751" lon="-105.2297889">
  <ele>1582.96</ele>
  <time>2026-08-28T17:48:29Z</time>
  <course>247.05</course>
  <speed>0.022360679774997897</speed>
  <fix>3d</fix>
</trkpt>
<trkpt lat="40.0713749" lon="-105.229789">
  <ele>1583.0</ele>
  <time>2026-08-28T17:48:29Z</time>
  <course>0.0</course>
  <speed>0.0</speed>
  <fix>3d</fix>
</trkpt>
<trkpt lat="40.0713751" lon="-105.2297889">
  <ele>1582.96</ele>
  <time>2026-08-28T17:48:29Z</time>
  <course>247.05</course>
  <speed>0.022360679774997897</speed>
  <fix>3d</fix>
</trkpt>
<trkpt lat="40.0713749" lon="-105.229789">
  <ele>1583.0</ele>
  <time>2026-08-28T17:48:29Z</time>
  <course>0.0</course>
  <speed>0.0</speed>
  <fix>3d</fix>
</trkpt>
<trkpt lat="40.0713751" lon="-105.2297889">
  <ele>1582.96</ele>
  <time>2026-08-28T17:48:29Z</time>
  <course>247.05</course>
  <speed>0.022360679774997897</speed>
  <fix>3d</fix>
</trkpt>
<trkpt lat="40.0713749" lon="-105.229789">
  <ele>1583.0</ele>
  <time>2026-08-28T17:48:29Z</time>
  <course>0.0</course>
  <speed>0.0</speed>
  <fix>3d</fix>
</trkpt>
<trkpt lat="40.071375" lon="-105.2297889">
  <ele>1582.96</ele>
  <time>2026-08-28T17:48:29Z</time>
  <course>247.05</course>
  <speed>0.022360679774997897</speed>
  <fix>3d</fix>
</trkpt>
<trkpt lat="40.0713749" lon="-105.229789">
  <ele>1583.0</ele>
  <time>2026-08-28T17:48:29Z</time>
  <course>0.0</course>
  <speed>0.0</speed>
  <fix>3d</fix>
</trkpt>
<trkpt lat="40.0713751" lon="-105.2297889">
  <ele>1582.96</ele>
  <time>2026-08-28T17:48:29Z</time>
  <course>247.05</course>
  <speed>0.022360679774997897</speed>
  <fix>3d</fix>
</trkpt>
<trkpt lat="40.0713749" lon="-105.229789">
  <ele>1583.0</ele>
  <time>2026-08-28T17:48:29Z</time>
  <course>0.0</course>
  <speed>0.0</speed>
  <fix>3d</fix>
</trkpt>
<trkpt lat="40.071375" lon="-105.2297889">
  <ele>1582.96</ele>
  <time>2026-08-28T17:48:29Z</time>
  <course>247.05</course>
  <speed>0.022360679774997897</speed>
  <fix>3d</fix>
</trkpt>
<trkpt lat="40.0713749" lon="-105.229789">
  <ele>1583.0</ele>
  <time>2026-08-28T17:48:29Z</time>
  <course>0.0</course>
  <speed>0.0</speed>
  <fix>3d</fix>
</trkpt>
<trkpt lat="40.0713751" lon="-105.2297889">
  <ele>1582.97</ele>
  <time>2026-08-28T17:48:29Z</time>
  <course>247.05</course>
  <speed>0.022360679774997897</speed>
  <fix>3d</fix>
</trkpt>
<trkpt lat="40.0713749" lon="-105.229789">
  <ele>1583.0</ele>
  <time>2026-08-28T17:48:29Z</time>
  <course>0.0</course>
  <speed>0.0</speed>
  <fix>3d</fix>
</trkpt>
<trkpt lat="40.071375" lon="-105.2297889">
  <ele>1582.97</ele>
  <time>2026-08-28T17:48:29Z</time>
  <course>247.05</course>
  <speed>0.022360679774997897</speed>
  <fix>3d</fix>
</trkpt>
<trkpt lat="40.0713749" lon="-105.229789">
  <ele>1583.0</ele>
  <time>2026-08-28T17:48:29Z</time>
  <course>0.0</course>
  <speed>0.0</speed>
  <fix>3d</fix>
</trkpt>
<trkpt lat="40.0713751" lon="-105.2297889">
  <ele>1582.98</ele>
  <time>2026-08-28T17:48:29Z</time>
  <course>247.05</course>
  <speed>0.022360679774997897</speed>
  <fix>3d</fix>
</trkpt>
<trkpt lat="40.0713749" lon="-105.229789">
  <ele>1583.0</ele>
  <time>2026-08-28T17:48:29Z</time>
  <course>0.0</course>
  <speed>0.0</speed>
  <fix>3d</fix>
</trkpt>
<trkpt lat="40.0713751" lon="-105.2297889">
  <ele>1582.99</ele>
  <time>2026-08-28T17:48:29Z</time>
  <course>247.05</course>
  <speed>0.022360679774997897</speed>
  <fix>3d</fix>
</trkpt>
<trkpt lat="40.0713749" lon="-105.229789">
  <ele>1583.0</ele>
  <time>2026-08-28T17:48:29Z</time>
  <course>0.0</course>
  <speed>0.0</speed>
  <fix>3d</fix>
</trkpt>
<trkpt lat="40.0713751" lon="-105.2297889">
  <ele>1583.0</ele>
  <time>2026-08-28T17:48:29Z</time>
  <course>247.05</course>
  <speed>0.022360679774997897</speed>
  <fix>3d</fix>
</trkpt>
<trkpt lat="40.0713749" lon="-105.229789">
  <ele>1583.0</ele>
  <time>2026-08-28T17:48:29Z</time>
  <course>0.0</course>
  <speed>0.0</speed>
  <fix>3d</fix>
</trkpt>
<trkpt lat="40.0713751" lon="-105.2297889">
  <ele>1583.01</ele>
  <time>2026-08-28T17:48:29Z</time>
  <course>247.05</course>
  <speed>0.022360679774997897</speed>
  <fix>3d</fix>
</trkpt>
<trkpt lat="40.0713749" lon="-105.229789">
  <ele>1583.0</ele>
  <time>2026-08-28T17:48:29Z</time>
  <course>0.0</course>
  <speed>0.0</speed>
  <fix>3d</fix>
</trkpt>
<trkpt lat="40.0713751" lon="-105.2297889">
  <ele>1583.02</ele>
  <time>2026-08-28T17:48:29Z</time>
  <course>247.05</course>
  <speed>0.022360679774997897</speed>
  <fix>3d</fix>
</trkpt>
<trkpt lat="40.0713749" lon="-105.229789">
  <ele>1583.0</ele>
  <time>2026-08-28T17:48:29Z</time>
  <course>0.0</course>
  <speed>0.0</speed>
  <fix>3d</fix>
</trkpt>
<trkpt lat="40.0713751" lon="-105.2297889">
  <ele>1583.02</ele>
  <time>2026-08-28T17:48:29Z</time>
  <course>247.05</course>
  <speed>0.022360679774997897</speed>
  <fix>3d</fix>
</trkpt>
<trkpt lat="40.0713749" lon="-105.229789">
  <ele>1583.0</ele>
  <time>2026-08-28T17:48:29Z</time>
  <course>0.0</course>
  <speed>0.0</speed>
  <fix>3d</fix>
</trkpt>
<trkpt lat="40.0713751" lon="-105.2297889">
  <ele>1583.03</ele>
  <time>2026-08-28T17:48:29Z</time>
  <course>247.05</course>
  <speed>0.022360679774997897</speed>
  <fix>3d</fix>
</trkpt>
<trkpt lat="40.0713749" lon="-105.229789">
  <ele>1583.0</ele>
  <time>2026-08-28T17:48:29Z</time>
  <course>0.0</course>
  <speed>0.0</speed>
  <fix>3d</fix>
</trkpt>
<trkpt lat="40.0713751" lon="-105.2297889">
  <ele>1583.03</ele>
  <time>2026-08-28T17:48:29Z</time>
  <course>247.05</course>
  <speed>0.022360679774997897</speed>
  <fix>3d</fix>
</trkpt>
<trkpt lat="40.0713749" lon="-105.229789">
  <ele>1583.0</ele>
  <time>2026-08-28T17:48:29Z</time>
  <course>0.0</course>
  <speed>0.0</speed>
  <fix>3d</fix>
</trkpt>
<trkpt lat="40.0713751" lon="-105.2297889">
  <ele>1583.04</ele>
  <time>2026-08-28T17:48:29Z</time>
  <course>247.05</course>
  <speed>0.022360679774997897</speed>
  <fix>3d</fix>
</trkpt>
<trkpt lat="40.0713749" lon="-105.229789">
  <ele>1583.0</ele>
  <time>2026-08-28T17:48:29Z</time>
  <course>0.0</course>
  <speed>0.0</speed>
  <fix>3d</fix>
</trkpt>
<trkpt lat="40.0713751" lon="-105.2297889">
  <ele>1583.05</ele>
  <time>2026-08-28T17:48:29Z</time>
  <course>247.05</course>
  <speed>0.022360679774997897</speed>
  <fix>3d</fix>
</trkpt>
<trkpt lat="40.0713749" lon="-105.229789">
  <ele>1583.0</ele>
  <time>2026-08-28T17:48:29Z</time>
  <course>0.0</course>
  <speed>0.0</speed>
  <fix>3d</fix>
</trkpt>
<trkpt lat="40.0713751" lon="-105.2297889">
  <ele>1583.05</ele>
  <time>2026-08-28T17:48:29Z</time>
  <course>247.05</course>
  <speed>0.022360679774997897</speed>
  <fix>3d</fix>
</trkpt>
<trkpt lat="40.0713749" lon="-105.229789">
  <ele>1583.0</ele>
  <time>2026-08-28T17:48:29Z</time>
  <course>0.0</course>
  <speed>0.0</speed>
  <fix>3d</fix>
</trkpt>
<trkpt lat="40.0713751" lon="-105.2297889">
  <ele>1583.05</ele>
  <time>2026-08-28T17:48:29Z</time>
  <course>247.05</course>
  <speed>0.022360679774997897</speed>
  <fix>3d</fix>
</trkpt>
<trkpt lat="40.0713749" lon="-105.229789">
  <ele>1583.0</ele>
  <time>2026-08-28T17:48:29Z</time>
  <course>0.0</course>
  <speed>0.0</speed>
  <fix>3d</fix>
</trkpt>
<trkpt lat="40.0713751" lon="-105.2297889">
  <ele>1583.06</ele>
  <time>2026-08-28T17:48:29Z</time>
  <course>247.05</course>
  <speed>0.022360679774997897</speed>
  <fix>3d</fix>
</trkpt>
<trkpt lat="40.0713749" lon="-105.229789">
  <ele>1583.0</ele>
  <time>2026-08-28T17:48:29Z</time>
  <course>0.0</course>
  <speed>0.0</speed>
  <fix>3d</fix>
</trkpt>
<trkpt lat="40.0713751" lon="-105.2297889">
  <ele>1583.07</ele>
  <time>2026-08-28T17:48:29Z</time>
  <course>247.05</course>
  <speed>0.022360679774997897</speed>
  <fix>3d</fix>
</trkpt>
<trkpt lat="40.0713749" lon="-105.229789">
  <ele>1583.0</ele>
  <time>2026-08-28T17:48:29Z</time>
  <course>0.0</course>
  <speed>0.0</speed>
  <fix>3d</fix>
</trkpt>
<trkpt lat="40.0713751" lon="-105.2297889">
  <ele>1583.07</ele>
  <time>2026-08-28T17:48:29Z</time>
  <course>247.05</course>
  <speed>0.022360679774997897</speed>
  <fix>3d</fix>
</trkpt>
<trkpt lat="40.0713749" lon="-105.229789">
  <ele>1583.0</ele>
  <time>2026-08-28T17:48:29Z</time>
  <course>0.0</course>
  <speed>0.0</speed>
  <fix>3d</fix>
</trkpt>
<trkpt lat="40.0713751" lon="-105.2297889">
  <ele>1583.08</ele>
  <time>2026-08-28T17:48:29Z</time>
  <course>247.05</course>
  <speed>0.022360679774997897</speed>
  <fix>3d</fix>
</trkpt>
<trkpt lat="40.0713749" lon="-105.229789">
  <ele>1583.0</ele>
  <time>2026-08-28T17:48:29Z</time>
  <course>0.0</course>
  <speed>0.0</speed>
  <fix>3d</fix>
</trkpt>
<trkpt lat="40.0713751" lon="-105.2297889">
  <ele>1583.08</ele>
  <time>2026-08-28T17:48:29Z</time>
  <course>247.05</course>
  <speed>0.022360679774997897</speed>
  <fix>3d</fix>
</trkpt>
<trkpt lat="40.0713749" lon="-105.229789">
  <ele>1583.0</ele>
  <time>2026-08-28T17:48:29Z</time>
  <course>0.0</course>
  <speed>0.0</speed>
  <fix>3d</fix>
</trkpt>
<trkpt lat="40.071375" lon="-105.2297889">
  <ele>1583.08</ele>
  <time>2026-08-28T17:48:29Z</time>
  <course>247.05</course>
  <speed>0.022360679774997897</speed>
  <fix>3d</fix>
</trkpt>
<trkpt lat="40.0713749" lon="-105.229789">
  <ele>1583.0</ele>
  <time>2026-08-28T17:48:29Z</time>
  <course>0.0</course>
  <speed>0.0</speed>
  <fix>3d</fix>
</trkpt>
<trkpt lat="40.0713751" lon="-105.2297889">
  <ele>1583.07</ele>
  <time>2026-08-28T17:48:29Z</time>
  <course>247.05</course>
  <speed>0.022360679774997897</speed>
  <fix>3d</fix>
</trkpt>
<trkpt lat="40.0713749" lon="-105.229789">
  <ele>1583.0</ele>
  <time>2026-08-28T17:48:29Z</time>
  <course>0.0</course>
  <speed>0.0</speed>
  <fix>3d</fix>
</trkpt>
<trkpt lat="40.071375" lon="-105.2297889">
  <ele>1583.07</ele>
  <time>2026-08-28T17:48:29Z</time>
  <course>247.05</course>
  <speed>0.022360679774997897</speed>
  <fix>3d</fix>
</trkpt>
<trkpt lat="40.0713749" lon="-105.229789">
  <ele>1583.0</ele>
  <time>2026-08-28T17:48:29Z</time>
  <course>0.0</course>
  <speed>0.0</speed>
  <fix>3d</fix>
</trkpt>
<trkpt lat="40.0713751" lon="-105.2297889">
  <ele>1583.06</ele>
  <time>2026-08-28T17:48:29Z</time>
  <course>247.05</course>
  <speed>0.022360679774997897</speed>
  <fix>3d</fix>
</trkpt>
<trkpt lat="40.0713749" lon="-105.229789">
  <ele>1583.0</ele>
  <time>2026-08-28T17:48:29Z</time>
  <course>0.0</course>
  <speed>0.0</speed>
  <fix>3d</fix>
</trkpt>
<trkpt lat="40.071375" lon="-105.2297889">
  <ele>1583.06</ele>
  <time>2026-08-28T17:48:29Z</time>
  <course>247.05</course>
  <speed>0.022360679774997897</speed>
  <fix>3d</fix>
</trkpt>
<trkpt lat="40.0713749" lon="-105.229789">
  <ele>1583.0</ele>
  <time>2026-08-28T17:48:29Z</time>
  <course>0.0</course>
  <speed>0.0</speed>
  <fix>3d</fix>
</trkpt>
<trkpt lat="40.0713751" lon="-105.2297889">
  <ele>1583.05</ele>
  <time>2026-08-28T17:48:29Z</time>
  <course>247.05</course>
  <speed>0.022360679774997897</speed>
  <fix>3d</fix>
</trkpt>
<trkpt lat="40.0713749" lon="-105.229789">
  <ele>1583.0</ele>
  <time>2026-08-28T17:48:29Z</time>
  <course>0.0</course>
  <speed>0.0</speed>
  <fix>3d</fix>
</trkpt>
<trkpt lat="40.071375" lon="-105.2297889">
  <ele>1583.05</ele>
  <time>2026-08-28T17:48:29Z</time>
  <course>247.05</course>
  <speed>0.022360679774997897</speed>
  <fix>3d</fix>
</trkpt>
<trkpt lat="40.0713749" lon="-105.229789">
  <ele>1583.0</ele>
  <time>2026-08-28T17:48:29Z</time>
  <course>0.0</course>
  <speed>0.0</speed>
  <fix>3d</fix>
</trkpt>
<trkpt lat="40.0713751" lon="-105.2297889">
  <ele>1583.04</ele>
  <time>2026-08-28T17:48:29Z</time>
  <course>247.05</course>
  <speed>0.022360679774997897</speed>
  <fix>3d</fix>
</trkpt>
<trkpt lat="40.0713749" lon="-105.229789">
  <ele>1583.0</ele>
  <time>2026-08-28T17:48:29Z</time>
  <course>0.0</course>
  <speed>0.0</speed>
  <fix>3d</fix>
</trkpt>
<trkpt lat="40.071375" lon="-105.2297889">
  <ele>1583.03</ele>
  <time>2026-08-28T17:48:29Z</time>
  <course>247.05</course>
  <speed>0.022360679774997897</speed>
  <fix>3d</fix>
</trkpt>
<trkpt lat="40.0713749" lon="-105.229789">
  <ele>1583.0</ele>
  <time>2026-08-28T17:48:29Z</time>
  <course>0.0</course>
  <speed>0.0</speed>
  <fix>3d</fix>
</trkpt>
<trkpt lat="40.0713751" lon="-105.2297889">
  <ele>1583.02</ele>
  <time>2026-08-28T17:48:29Z</time>
  <course>247.05</course>
  <speed>0.022360679774997897</speed>
  <fix>3d</fix>
</trkpt>
<trkpt lat="40.0713749" lon="-105.229789">
  <ele>1583.0</ele>
  <time>2026-08-28T17:48:29Z</time>
  <course>0.0</course>
  <speed>0.0</speed>
  <fix>3d</fix>
</trkpt>
<trkpt lat="40.071375" lon="-105.2297889">
  <ele>1583.01</ele>
  <time>2026-08-28T17:48:29Z</time>
  <course>247.05</course>
  <speed>0.022360679774997897</speed>
  <fix>3d</fix>
</trkpt>
<trkpt lat="40.0713749" lon="-105.229789">
  <ele>1583.0</ele>
  <time>2026-08-28T17:48:29Z</time>
  <course>0.0</course>
  <speed>0.0</speed>
  <fix>3d</fix>
</trkpt>
<trkpt lat="40.0713751" lon="-105.2297889">
  <ele>1583.0</ele>
  <time>2026-08-28T17:48:29Z</time>
  <course>247.05</course>
  <speed>0.022360679774997897</speed>
  <fix>3d</fix>
</trkpt>
<trkpt lat="40.0713749" lon="-105.229789">
  <ele>1583.0</ele>
  <time>2026-08-28T17:48:29Z</time>
  <course>0.0</course>
  <speed>0.0</speed>
  <fix>3d</fix>
</trkpt>
<trkpt lat="40.0713751" lon="-105.2297889">
  <ele>1583.0</ele>
  <time>2026-08-28T17:48:29Z</time>
  <course>247.05</course>
  <speed>0.022360679774997897</speed>
  <fix>3d</fix>
</trkpt>
<trkpt lat="40.0713749" lon="-105.229789">
  <ele>1583.0</ele>
  <time>2026-08-28T17:48:29Z</time>
  <course>0.0</course>
  <speed>0.0</speed>
  <fix>3d</fix>
</trkpt>
<trkpt lat="40.0713751" lon="-105.2297889">
  <ele>1582.99</ele>
  <time>2026-08-28T17:48:29Z</time>
  <course>247.05</course>
  <speed>0.022360679774997897</speed>
  <fix>3d</fix>
</trkpt>
<trkpt lat="40.0713749" lon="-105.229789">
  <ele>1583.0</ele>
  <time>2026-08-28T17:48:29Z</time>
  <course>0.0</course>
  <speed>0.0</speed>
  <fix>3d</fix>
</trkpt>
<trkpt lat="40.0713751" lon="-105.2297889">
  <ele>1582.99</ele>
  <time>2026-08-28T17:48:29Z</time>
  <course>247.05</course>
  <speed>0.022360679774997897</speed>
  <fix>3d</fix>
</trkpt>
<trkpt lat="40.0713749" lon="-105.229789">
  <ele>1583.0</ele>
  <time>2026-08-28T17:48:29Z</time>
  <course>0.0</course>
  <speed>0.0</speed>
  <fix>3d</fix>
</trkpt>
<trkpt lat="40.0713751" lon="-105.2297889">
  <ele>1582.99</ele>
  <time>2026-08-28T17:48:29Z</time>
  <course>247.05</course>
  <speed>0.022360679774997897</speed>
  <fix>3d</fix>
</trkpt>
<trkpt lat="40.0713749" lon="-105.229789">
  <ele>1583.0</ele>
  <time>2026-08-28T17:48:29Z</time>
  <course>0.0</course>
  <speed>0.0</speed>
  <fix>3d</fix>
</trkpt>
<trkpt lat="40.0713751" lon="-105.2297889">
  <ele>1582.98</ele>
  <time>2026-08-28T17:48:29Z</time>
  <course>247.05</course>
  <speed>0.022360679774997897</speed>
  <fix>3d</fix>
</trkpt>
<trkpt lat="40.0713749" lon="-105.229789">
  <ele>1583.0</ele>
  <time>2026-08-28T17:48:29Z</time>
  <course>0.0</course>
  <speed>0.0</speed>
  <fix>3d</fix>
</trkpt>
<trkpt lat="40.0713751" lon="-105.2297889">
  <ele>1582.98</ele>
  <time>2026-08-28T17:48:29Z</time>
  <course>247.05</course>
  <speed>0.022360679774997897</speed>
  <fix>3d</fix>
</trkpt>
<trkpt lat="40.0713749" lon="-105.229789">
  <ele>1583.0</ele>
  <time>2026-08-28T17:48:29Z</time>
  <course>0.0</course>
  <speed>0.0</speed>
  <fix>3d</fix>
</trkpt>
<trkpt lat="40.071375" lon="-105.2297889">
  <ele>1582.98</ele>
  <time>2026-08-28T17:48:29Z</time>
  <course>247.05</course>
  <speed>0.022360679774997897</speed>
  <fix>3d</fix>
</trkpt>
<trkpt lat="40.0713749" lon="-105.229789">
  <ele>1583.0</ele>
  <time>2026-08-28T17:48:29Z</time>
  <course>0.0</course>
  <speed>0.0</speed>
  <fix>3d</fix>
</trkpt>
<trkpt lat="40.0713751" lon="-105.2297889">
  <ele>1582.98</ele>
  <time>2026-08-28T17:48:29Z</time>
  <course>247.05</course>
  <speed>0.022360679774997897</speed>
  <fix>3d</fix>
</trkpt>
<trkpt lat="40.0713749" lon="-105.229789">
  <ele>1583.0</ele>
  <time>2026-08-28T17:48:29Z</time>
  <course>0.0</course>
  <speed>0.0</speed>
  <fix>3d</fix>
</trkpt>
<trkpt lat="40.071375" lon="-105.2297889">
  <ele>1582.97</ele>
  <time>2026-08-28T17:48:29Z</time>
  <course>247.05</course>
  <speed>0.022360679774997897</speed>
  <fix>3d</fix>
</trkpt>
<trkpt lat="40.0713749" lon="-105.229789">
  <ele>1583.0</ele>
  <time>2026-08-28T17:48:29Z</time>
  <course>0.0</course>
  <speed>0.0</speed>
  <fix>3d</fix>
</trkpt>
<trkpt lat="40.0713751" lon="-105.2297889">
  <ele>1582.97</ele>
  <time>2026-08-28T17:48:29Z</time>
  <course>247.05</course>
  <speed>0.022360679774997897</speed>
  <fix>3d</fix>
</trkpt>
<trkpt lat="40.0713749" lon="-105.229789">
  <ele>1583.0</ele>
  <time>2026-08-28T17:48:29Z</time>
  <course>0.0</course>
  <speed>0.0</speed>
  <fix>3d</fix>
</trkpt>
<trkpt lat="40.071375" lon="-105.2297889">
  <ele>1582.96</ele>
  <time>2026-08-28T17:48:29Z</time>
  <course>247.05</course>
  <speed>0.022360679774997897</speed>
  <fix>3d</fix>
</trkpt>
<trkpt lat="40.0713749" lon="-105.229789">
  <ele>1583.0</ele>
  <time>2026-08-28T17:48:29Z</time>
  <course>0.0</course>
  <speed>0.0</speed>
  <fix>3d</fix>
</trkpt>
<trkpt lat="40.0713751" lon="-105.2297889">
  <ele>1582.96</ele>
  <time>2026-08-28T17:48:29Z</time>
  <course>247.05</course>
  <speed>0.022360679774997897</speed>
  <fix>3d</fix>
</trkpt>
<trkpt lat="40.0713749" lon="-105.229789">
  <ele>1583.0</ele>
  <time>2026-08-28T17:48:29Z</time>
  <course>0.0</course>
  <speed>0.0</speed>
  <fix>3d</fix>
</trkpt>
<trkpt lat="40.071375" lon="-105.2297889">
  <ele>1582.95</ele>
  <time>2026-08-28T17:48:29Z</time>
  <course>247.05</course>
  <speed>0.022360679774997897</speed>
  <fix>3d</fix>
</trkpt>
<trkpt lat="40.0713749" lon="-105.229789">
  <ele>1583.0</ele>
  <time>2026-08-28T17:48:29Z</time>
  <course>0.0</course>
  <speed>0.0</speed>
  <fix>3d</fix>
</trkpt>
<trkpt lat="40.0713751" lon="-105.2297889">
  <ele>1582.95</ele>
  <time>2026-08-28T17:48:29Z</time>
  <course>247.05</course>
  <speed>0.022360679774997897</speed>
  <fix>3d</fix>
</trkpt>
<trkpt lat="40.0713749" lon="-105.229789">
  <ele>1583.0</ele>
  <time>2026-08-28T17:48:29Z</time>
  <course>0.0</course>
  <speed>0.0</speed>
  <fix>3d</fix>
</trkpt>
<trkpt lat="40.071375" lon="-105.2297889">
  <ele>1582.94</ele>
  <time>2026-08-28T17:48:29Z</time>
  <course>247.05</course>
  <speed>0.022360679774997897</speed>
  <fix>3d</fix>
</trkpt>
<trkpt lat="40.0713749" lon="-105.229789">
  <ele>1583.0</ele>
  <time>2026-08-28T17:48:29Z</time>
  <course>0.0</course>
  <speed>0.0</speed>
  <fix>3d</fix>
</trkpt>
<trkpt lat="40.0713751" lon="-105.2297889">
  <ele>1582.94</ele>
  <time>2026-08-28T17:48:29Z</time>
  <course>247.05</course>
  <speed>0.022360679774997897</speed>
  <fix>3d</fix>
</trkpt>
<trkpt lat="40.0713749" lon="-105.229789">
  <ele>1583.0</ele>
  <time>2026-08-28T17:48:29Z</time>
  <course>0.0</course>
  <speed>0.0</speed>
  <fix>3d</fix>
</trkpt>
<trkpt lat="40.071375" lon="-105.2297889">
  <ele>1582.93</ele>
  <time>2026-08-28T17:48:29Z</time>
  <course>247.05</course>
  <speed>0.022360679774997897</speed>
  <fix>3d</fix>
</trkpt>
<trkpt lat="40.0713749" lon="-105.229789">
  <ele>1583.0</ele>
  <time>2026-08-28T17:48:29Z</time>
  <course>0.0</course>
  <speed>0.0</speed>
  <fix>3d</fix>
</trkpt>
<trkpt lat="40.0713751" lon="-105.2297889">
  <ele>1582.93</ele>
  <time>2026-08-28T17:48:29Z</time>
  <course>247.05</course>
  <speed>0.022360679774997897</speed>
  <fix>3d</fix>
</trkpt>
<trkpt lat="40.0713749" lon="-105.229789">
  <ele>1583.0</ele>
  <time>2026-08-28T17:48:29Z</time>
  <course>0.0</course>
  <speed>0.0</speed>
  <fix>3d</fix>
</trkpt>
<trkpt lat="40.071375" lon="-105.2297889">
  <ele>1582.93</ele>
  <time>2026-08-28T17:48:29Z</time>
  <course>247.05</course>
  <speed>0.022360679774997897</speed>
  <fix>3d</fix>
</trkpt>
<trkpt lat="40.0713749" lon="-105.229789">
  <ele>1583.0</ele>
  <time>2026-08-28T17:48:29Z</time>
  <course>0.0</course>
  <speed>0.0</speed>
  <fix>3d</fix>
</trkpt>
<trkpt lat="40.0713751" lon="-105.2297889">
  <ele>1582.92</ele>
  <time>2026-08-28T17:48:29Z</time>
  <course>247.05</course>
  <speed>0.022360679774997897</speed>
  <fix>3d</fix>
</trkpt>
<trkpt lat="40.0713749" lon="-105.229789">
  <ele>1583.0</ele>
  <time>2026-08-28T17:48:29Z</time>
  <course>0.0</course>
  <speed>0.0</speed>
  <fix>3d</fix>
</trkpt>
<trkpt lat="40.0713751" lon="-105.2297889">
  <ele>1582.92</ele>
  <time>2026-08-28T17:48:29Z</time>
  <course>247.05</course>
  <speed>0.022360679774997897</speed>
  <fix>3d</fix>
</trkpt>
<trkpt lat="40.0713749" lon="-105.229789">
  <ele>1583.0</ele>
  <time>2026-08-28T17:48:29Z</time>
  <course>0.0</course>
  <speed>0.0</speed>
  <fix>3d</fix>
</trkpt>
<trkpt lat="40.0713751" lon="-105.2297889">
  <ele>1582.92</ele>
  <time>2026-08-28T17:48:29Z</time>
  <course>247.05</course>
  <speed>0.022360679774997897</speed>
  <fix>3d</fix>
</trkpt>
<trkpt lat="40.0713749" lon="-105.229789">
  <ele>1583.0</ele>
  <time>2026-08-28T17:48:29Z</time>
  <course>0.0</course>
  <speed>0.0</speed>
  <fix>3d</fix>
</trkpt>
<trkpt lat="40.0713751" lon="-105.2297889">
  <ele>1582.91</ele>
  <time>2026-08-28T17:48:29Z</time>
  <course>247.05</course>
  <speed>0.022360679774997897</speed>
  <fix>3d</fix>
</trkpt>
<trkpt lat="40.0713749" lon="-105.229789">
  <ele>1583.0</ele>
  <time>2026-08-28T17:48:29Z</time>
  <course>0.0</course>
  <speed>0.0</speed>
  <fix>3d</fix>
</trkpt>
<trkpt lat="40.0713751" lon="-105.2297889">
  <ele>1582.91</ele>
  <time>2026-08-28T17:48:29Z</time>
  <course>247.05</course>
  <speed>0.022360679774997897</speed>
  <fix>3d</fix>
</trkpt>
<trkpt lat="40.0713749" lon="-105.229789">
  <ele>1583.0</ele>
  <time>2026-08-28T17:48:29Z</time>
  <course>0.0</course>
  <speed>0.0</speed>
  <fix>3d</fix>
</trkpt>
<trkpt lat="40.0713751" lon="-105.2297889">
  <ele>1582.9</ele>
  <time>2026-08-28T17:48:29Z</time>
  <course>247.05</course>
  <speed>0.022360679774997897</speed>
  <fix>3d</fix>
</trkpt>
<trkpt lat="40.0713749" lon="-105.229789">
  <ele>1583.0</ele>
  <time>2026-08-28T17:48:29Z</time>
  <course>0.0</course>
  <speed>0.0</speed>
  <fix>3d</fix>
</trkpt>
<trkpt lat="40.0713751" lon="-105.2297889">
  <ele>1582.89</ele>
  <time>2026-08-28T17:48:29Z</time>
  <course>247.04</course>
  <speed>0.022360679774997897</speed>
  <fix>3d</fix>
</trkpt>
<trkpt lat="40.0713749" lon="-105.229789">
  <ele>1583.0</ele>
  <time>2026-08-28T17:48:29Z</time>
  <course>0.0</course>
  <speed>0.0</speed>
  <fix>3d</fix>
</trkpt>
<trkpt lat="40.0713751" lon="-105.2297889">
  <ele>1582.89</ele>
  <time>2026-08-28T17:48:29Z</time>
  <course>247.04</course>
  <speed>0.022360679774997897</speed>
  <fix>3d</fix>
</trkpt>
<trkpt lat="40.0713749" lon="-105.229789">
  <ele>1583.0</ele>
  <time>2026-08-28T17:48:29Z</time>
  <course>0.0</course>
  <speed>0.0</speed>
  <fix>3d</fix>
</trkpt>
<trkpt lat="40.0713751" lon="-105.2297889">
  <ele>1582.89</ele>
  <time>2026-08-28T17:48:29Z</time>
  <course>247.04</course>
  <speed>0.022360679774997897</speed>
  <fix>3d</fix>
</trkpt>
<trkpt lat="40.0713749" lon="-105.229789">
  <ele>1583.0</ele>
  <time>2026-08-28T17:48:29Z</time>
  <course>0.0</course>
  <speed>0.0</speed>
  <fix>3d</fix>
</trkpt>
<trkpt lat="40.071375" lon="-105.2297889">
  <ele>1582.89</ele>
  <time>2026-08-28T17:48:29Z</time>
  <course>247.04</course>
  <speed>0.022360679774997897</speed>
  <fix>3d</fix>
</trkpt>
<trkpt lat="40.0713749" lon="-105.229789">
  <ele>1583.0</ele>
  <time>2026-08-28T17:48:29Z</time>
  <course>0.0</course>
  <speed>0.0</speed>
  <fix>3d</fix>
</trkpt>
<trkpt lat="40.0713751" lon="-105.2297889">
  <ele>1582.89</ele>
  <time>2026-08-28T17:48:29Z</time>
  <course>247.04</course>
  <speed>0.022360679774997897</speed>
  <fix>3d</fix>
</trkpt>
<trkpt lat="40.0713749" lon="-105.229789">
  <ele>1583.0</ele>
  <time>2026-08-28T17:48:29Z</time>
  <course>0.0</course>
  <speed>0.0</speed>
  <fix>3d</fix>
</trkpt>
<trkpt lat="40.071375" lon="-105.2297889">
  <ele>1582.9</ele>
  <time>2026-08-28T17:48:29Z</time>
  <course>247.04</course>
  <speed>0.022360679774997897</speed>
  <fix>3d</fix>
</trkpt>
<trkpt lat="40.0713749" lon="-105.229789">
  <ele>1583.0</ele>
  <time>2026-08-28T17:48:29Z</time>
  <course>0.0</course>
  <speed>0.0</speed>
  <fix>3d</fix>
</trkpt>
<trkpt lat="40.0713751" lon="-105.2297889">
  <ele>1582.9</ele>
  <time>2026-08-28T17:48:29Z</time>
  <course>247.04</course>
  <speed>0.022360679774997897</speed>
  <fix>3d</fix>
</trkpt>
<trkpt lat="40.0713749" lon="-105.229789">
  <ele>1583.0</ele>
  <time>2026-08-28T17:48:29Z</time>
  <course>0.0</course>
  <speed>0.0</speed>
  <fix>3d</fix>
</trkpt>
<trkpt lat="40.071375" lon="-105.2297889">
  <ele>1582.91</ele>
  <time>2026-08-28T17:48:29Z</time>
  <course>247.04</course>
  <speed>0.022360679774997897</speed>
  <fix>3d</fix>
</trkpt>
<trkpt lat="40.0713749" lon="-105.229789">
  <ele>1583.0</ele>
  <time>2026-08-28T17:48:29Z</time>
  <course>0.0</course>
  <speed>0.0</speed>
  <fix>3d</fix>
</trkpt>
<trkpt lat="40.0713751" lon="-105.2297889">
  <ele>1582.91</ele>
  <time>2026-08-28T17:48:29Z</time>
  <course>247.04</course>
  <speed>0.022360679774997897</speed>
  <fix>3d</fix>
</trkpt>
<trkpt lat="40.0713749" lon="-105.229789">
  <ele>1583.0</ele>
  <time>2026-08-28T17:48:29Z</time>
  <course>0.0</course>
  <speed>0.0</speed>
  <fix>3d</fix>
</trkpt>
<trkpt lat="40.071375" lon="-105.2297889">
  <ele>1582.91</ele>
  <time>2026-08-28T17:48:29Z</time>
  <course>247.04</course>
  <speed>0.022360679774997897</speed>
  <fix>3d</fix>
</trkpt>
<trkpt lat="40.0713749" lon="-105.229789">
  <ele>1583.0</ele>
  <time>2026-08-28T17:48:29Z</time>
  <course>0.0</course>
  <speed>0.0</speed>
  <fix>3d</fix>
</trkpt>
<trkpt lat="40.0713751" lon="-105.2297889">
  <ele>1582.92</ele>
  <time>2026-08-28T17:48:29Z</time>
  <course>247.04</course>
  <speed>0.022360679774997897</speed>
  <fix>3d</fix>
</trkpt>
<trkpt lat="40.0713749" lon="-105.229789">
  <ele>1583.0</ele>
  <time>2026-08-28T17:48:29Z</time>
  <course>0.0</course>
  <speed>0.0</speed>
  <fix>3d</fix>
</trkpt>
<trkpt lat="40.071375" lon="-105.2297889">
  <ele>1582.92</ele>
  <time>2026-08-28T17:48:29Z</time>
  <course>247.04</course>
  <speed>0.022360679774997897</speed>
  <fix>3d</fix>
</trkpt>
<trkpt lat="40.0713749" lon="-105.229789">
  <ele>1583.0</ele>
  <time>2026-08-28T17:48:29Z</time>
  <course>0.0</course>
  <speed>0.0</speed>
  <fix>3d</fix>
</trkpt>
<trkpt lat="40.0713751" lon="-105.2297889">
  <ele>1582.92</ele>
  <time>2026-08-28T17:48:29Z</time>
  <course>247.04</course>
  <speed>0.022360679774997897</speed>
  <fix>3d</fix>
</trkpt>
<trkpt lat="40.0713749" lon="-105.229789">
  <ele>1583.0</ele>
  <time>2026-08-28T17:48:29Z</time>
  <course>0.0</course>
  <speed>0.0</speed>
  <fix>3d</fix>
</trkpt>
<trkpt lat="40.071375" lon="-105.2297889">
  <ele>1582.92</ele>
  <time>2026-08-28T17:48:29Z</time>
  <course>247.04</course>
  <speed>0.02</speed>
  <fix>3d</fix>
</trkpt>
<trkpt lat="40.0713749" lon="-105.229789">
  <ele>1583.0</ele>
  <time>2026-08-28T17:48:29Z</time>
  <course>0.0</course>
  <speed>0.0</speed>
  <fix>3d</fix>
</trkpt>
<trkpt lat="40.0713751" lon="-105.2297889">
  <ele>1582.92</ele>
  <time>2026-08-28T17:48:29Z</time>
  <course>247.04</course>
  <speed>0.022360679774997897</speed>
  <fix>3d</fix>
</trkpt>
<trkpt lat="40.0713749" lon="-105.229789">
  <ele>1583.0</ele>
  <time>2026-08-28T17:48:29Z</time>
  <course>0.0</course>
  <speed>0.0</speed>
  <fix>3d</fix>
</trkpt>
<trkpt lat="40.071375" lon="-105.2297889">
  <ele>1582.92</ele>
  <time>2026-08-28T17:48:29Z</time>
  <course>247.04</course>
  <speed>0.02</speed>
  <fix>3d</fix>
</trkpt>
<trkpt lat="40.0713749" lon="-105.229789">
  <ele>1583.0</ele>
  <time>2026-08-28T17:48:29Z</time>
  <course>0.0</course>
  <speed>0.0</speed>
  <fix>3d</fix>
</trkpt>
<trkpt lat="40.0713751" lon="-105.2297889">
  <ele>1582.92</ele>
  <time>2026-08-28T17:48:29Z</time>
  <course>247.04</course>
  <speed>0.02</speed>
  <fix>3d</fix>
</trkpt>
<trkpt lat="40.0713749" lon="-105.229789">
  <ele>1583.0</ele>
  <time>2026-08-28T17:48:29Z</time>
  <course>0.0</course>
  <speed>0.0</speed>
  <fix>3d</fix>
</trkpt>
<trkpt lat="40.071375" lon="-105.2297889">
  <ele>1582.92</ele>
  <time>2026-08-28T17:48:29Z</time>
  <course>247.04</course>
  <speed>0.02</speed>
  <fix>3d</fix>
</trkpt>
<trkpt lat="40.0713749" lon="-105.229789">
  <ele>1583.0</ele>
  <time>2026-08-28T17:48:29Z</time>
  <course>0.0</course>
  <speed>0.0</speed>
  <fix>3d</fix>
</trkpt>
<trkpt lat="40.0713751" lon="-105.2297889">
  <ele>1582.92</ele>
  <time>2026-08-28T17:48:29Z</time>
  <course>247.04</course>
  <speed>0.02</speed>
  <fix>3d</fix>
</trkpt>
<trkpt lat="40.0713749" lon="-105.229789">
  <ele>1583.0</ele>
  <time>2026-08-28T17:48:29Z</time>
  <course>0.0</course>
  <speed>0.0</speed>
  <fix>3d</fix>
</trkpt>
<trkpt lat="40.071375" lon="-105.2297889">
  <ele>1582.92</ele>
  <time>2026-08-28T17:48:29Z</time>
  <course>247.04</course>
  <speed>0.02</speed>
  <fix>3d</fix>
</trkpt>
<trkpt lat="40.0713749" lon="-105.229789">
  <ele>1583.0</ele>
  <time>2026-08-28T17:48:29Z</time>
  <course>0.0</course>
  <speed>0.0</speed>
  <fix>3d</fix>
</trkpt>
<trkpt lat="40.0713751" lon="-105.2297889">
  <ele>1582.93</ele>
  <time>2026-08-28T17:48:29Z</time>
  <course>247.04</course>
  <speed>0.022360679774997897</speed>
  <fix>3d</fix>
</trkpt>
<trkpt lat="40.0713749" lon="-105.229789">
  <ele>1583.0</ele>
  <time>2026-08-28T17:48:29Z</time>
  <course>0.0</course>
  <speed>0.0</speed>
  <fix>3d</fix>
</trkpt>
<trkpt lat="40.071375" lon="-105.2297889">
  <ele>1582.93</ele>
  <time>2026-08-28T17:48:29Z</time>
  <course>247.04</course>
  <speed>0.02</speed>
  <fix>3d</fix>
</trkpt>
<trkpt lat="40.0713749" lon="-105.229789">
  <ele>1583.0</ele>
  <time>2026-08-28T17:48:29Z</time>
  <course>0.0</course>
  <speed>0.0</speed>
  <fix>3d</fix>
</trkpt>
<trkpt lat="40.0713751" lon="-105.2297889">
  <ele>1582.93</ele>
  <time>2026-08-28T17:48:29Z</time>
  <course>247.04</course>
  <speed>0.02</speed>
  <fix>3d</fix>
</trkpt>
<trkpt lat="40.0713749" lon="-105.229789">
  <ele>1583.0</ele>
  <time>2026-08-28T17:48:29Z</time>
  <course>0.0</course>
  <speed>0.0</speed>
  <fix>3d</fix>
</trkpt>
<trkpt lat="40.071375" lon="-105.2297889">
  <ele>1582.93</ele>
  <time>2026-08-28T17:48:29Z</time>
  <course>247.04</course>
  <speed>0.02</speed>
  <fix>3d</fix>
</trkpt>
<trkpt lat="40.0713749" lon="-105.229789">
  <ele>1583.0</ele>
  <time>2026-08-28T17:48:29Z</time>
  <course>0.0</course>
  <speed>0.0</speed>
  <fix>3d</fix>
</trkpt>
<trkpt lat="40.071375" lon="-105.2297889">
  <ele>1582.94</ele>
  <time>2026-08-28T17:48:29Z</time>
  <course>247.04</course>
  <speed>0.02</speed>
  <fix>3d</fix>
</trkpt>
<trkpt lat="40.0713749" lon="-105.229789">
  <ele>1583.0</ele>
  <time>2026-08-28T17:48:29Z</time>
  <course>0.0</course>
  <speed>0.0</speed>
  <fix>3d</fix>
</trkpt>
<trkpt lat="40.071375" lon="-105.2297889">
  <ele>1582.94</ele>
  <time>2026-08-28T17:48:29Z</time>
  <course>247.04</course>
  <speed>0.02</speed>
  <fix>3d</fix>
</trkpt>
<trkpt lat="40.0713749" lon="-105.229789">
  <ele>1583.0</ele>
  <time>2026-08-28T17:48:29Z</time>
  <course>0.0</course>
  <speed>0.0</speed>
  <fix>3d</fix>
</trkpt>
<trkpt lat="40.071375" lon="-105.2297889">
  <ele>1582.95</ele>
  <time>2026-08-28T17:48:29Z</time>
  <course>247.04</course>
  <speed>0.02</speed>
  <fix>3d</fix>
</trkpt>
<trkpt lat="40.0713749" lon="-105.229789">
  <ele>1583.0</ele>
  <time>2026-08-28T17:48:29Z</time>
  <course>0.0</course>
  <speed>0.0</speed>
  <fix>3d</fix>
</trkpt>
<trkpt lat="40.071375" lon="-105.2297889">
  <ele>1582.96</ele>
  <time>2026-08-28T17:48:29Z</time>
  <course>247.04</course>
  <speed>0.02</speed>
  <fix>3d</fix>
</trkpt>
<trkpt lat="40.0713749" lon="-105.229789">
  <ele>1583.0</ele>
  <time>2026-08-28T17:48:29Z</time>
  <course>0.0</course>
  <speed>0.0</speed>
  <fix>3d</fix>
</trkpt>
<trkpt lat="40.071375" lon="-105.2297889">
  <ele>1582.97</ele>
  <time>2026-08-28T17:48:29Z</time>
  <course>247.04</course>
  <speed>0.02</speed>
  <fix>3d</fix>
</trkpt>
<trkpt lat="40.0713749" lon="-105.229789">
  <ele>1583.0</ele>
  <time>2026-08-28T17:48:29Z</time>
  <course>0.0</course>
  <speed>0.0</speed>
  <fix>3d</fix>
</trkpt>
<trkpt lat="40.071375" lon="-105.2297889">
  <ele>1582.98</ele>
  <time>2026-08-28T17:48:29Z</time>
  <course>247.04</course>
  <speed>0.02</speed>
  <fix>3d</fix>
</trkpt>
<trkpt lat="40.0713749" lon="-105.229789">
  <ele>1583.0</ele>
  <time>2026-08-28T17:48:29Z</time>
  <course>0.0</course>
  <speed>0.0</speed>
  <fix>3d</fix>
</trkpt>
<trkpt lat="40.071375" lon="-105.2297889">
  <ele>1582.99</ele>
  <time>2026-08-28T17:48:29Z</time>
  <course>247.04</course>
  <speed>0.02</speed>
  <fix>3d</fix>
</trkpt>
<trkpt lat="40.0713749" lon="-105.229789">
  <ele>1583.0</ele>
  <time>2026-08-28T17:48:29Z</time>
  <course>0.0</course>
  <speed>0.0</speed>
  <fix>3d</fix>
</trkpt>
<trkpt lat="40.071375" lon="-105.2297889">
  <ele>1582.99</ele>
  <time>2026-08-28T17:48:29Z</time>
  <course>247.04</course>
  <speed>0.02</speed>
  <fix>3d</fix>
</trkpt>
<trkpt lat="40.0713749" lon="-105.229789">
  <ele>1583.0</ele>
  <time>2026-08-28T17:48:29Z</time>
  <course>0.0</course>
  <speed>0.0</speed>
  <fix>3d</fix>
</trkpt>
<trkpt lat="40.071375" lon="-105.2297889">
  <ele>1582.99</ele>
  <time>2026-08-28T17:48:29Z</time>
  <course>247.04</course>
  <speed>0.02</speed>
  <fix>3d</fix>
</trkpt>
<trkpt lat="40.0713749" lon="-105.229789">
  <ele>1583.0</ele>
  <time>2026-08-28T17:48:29Z</time>
  <course>0.0</course>
  <speed>0.0</speed>
  <fix>3d</fix>
</trkpt>
<trkpt lat="40.071375" lon="-105.2297889">
  <ele>1582.99</ele>
  <time>2026-08-28T17:48:29Z</time>
  <course>247.04</course>
  <speed>0.02</speed>
  <fix>3d</fix>
</trkpt>
<trkpt lat="40.0713749" lon="-105.229789">
  <ele>1583.0</ele>
  <time>2026-08-28T17:48:29Z</time>
  <course>0.0</course>
  <speed>0.0</speed>
  <fix>3d</fix>
</trkpt>
<trkpt lat="40.071375" lon="-105.2297889">
  <ele>1582.99</ele>
  <time>2026-08-28T17:48:29Z</time>
  <course>247.04</course>
  <speed>0.022360679774997897</speed>
  <fix>3d</fix>
</trkpt>
<trkpt lat="40.0713749" lon="-105.229789">
  <ele>1583.0</ele>
  <time>2026-08-28T17:48:29Z</time>
  <course>0.0</course>
  <speed>0.0</speed>
  <fix>3d</fix>
</trkpt>
<trkpt lat="40.071375" lon="-105.2297889">
  <ele>1582.99</ele>
  <time>2026-08-28T17:48:29Z</time>
  <course>247.04</course>
  <speed>0.02</speed>
  <fix>3d</fix>
</trkpt>
<trkpt lat="40.0713749" lon="-105.229789">
  <ele>1583.0</ele>
  <time>2026-08-28T17:48:29Z</time>
  <course>0.0</course>
  <speed>0.0</speed>
  <fix>3d</fix>
</trkpt>
<trkpt lat="40.071375" lon="-105.2297889">
  <ele>1582.98</ele>
  <time>2026-08-28T17:48:29Z</time>
  <course>247.04</course>
  <speed>0.02</speed>
  <fix>3d</fix>
</trkpt>
<trkpt lat="40.0713749" lon="-105.229789">
  <ele>1583.0</ele>
  <time>2026-08-28T17:48:29Z</time>
  <course>0.0</course>
  <speed>0.0</speed>
  <fix>3d</fix>
</trkpt>
<trkpt lat="40.071375" lon="-105.2297889">
  <ele>1582.98</ele>
  <time>2026-08-28T17:48:29Z</time>
  <course>247.04</course>
  <speed>0.02</speed>
  <fix>3d</fix>
</trkpt>
<trkpt lat="40.0713749" lon="-105.229789">
  <ele>1583.0</ele>
  <time>2026-08-28T17:48:29Z</time>
  <course>0.0</course>
  <speed>0.0</speed>
  <fix>3d</fix>
</trkpt>
<trkpt lat="40.071375" lon="-105.2297889">
  <ele>1582.98</ele>
  <time>2026-08-28T17:48:29Z</time>
  <course>247.04</course>
  <speed>0.02</speed>
  <fix>3d</fix>
</trkpt>
<trkpt lat="40.0713749" lon="-105.229789">
  <ele>1583.0</ele>
  <time>2026-08-28T17:48:29Z</time>
  <course>0.0</course>
  <speed>0.0</speed>
  <fix>3d</fix>
</trkpt>
<trkpt lat="40.071375" lon="-105.2297889">
  <ele>1582.97</ele>
  <time>2026-08-28T17:48:29Z</time>
  <course>247.04</course>
  <speed>0.02</speed>
  <fix>3d</fix>
</trkpt>
<trkpt lat="40.0713749" lon="-105.229789">
  <ele>1583.0</ele>
  <time>2026-08-28T17:48:29Z</time>
  <course>0.0</course>
  <speed>0.0</speed>
  <fix>3d</fix>
</trkpt>
<trkpt lat="40.071375" lon="-105.2297889">
  <ele>1582.96</ele>
  <time>2026-08-28T17:48:29Z</time>
  <course>247.04</course>
  <speed>0.022360679774997897</speed>
  <fix>3d</fix>
</trkpt>
<trkpt lat="40.0713749" lon="-105.229789">
  <ele>1583.0</ele>
  <time>2026-08-28T17:48:29Z</time>
  <course>0.0</course>
  <speed>0.0</speed>
  <fix>3d</fix>
</trkpt>
<trkpt lat="40.071375" lon="-105.2297889">
  <ele>1582.96</ele>
  <time>2026-08-28T17:48:29Z</time>
  <course>247.04</course>
  <speed>0.02</speed>
  <fix>3d</fix>
</trkpt>
<trkpt lat="40.0713749" lon="-105.229789">
  <ele>1583.0</ele>
  <time>2026-08-28T17:48:29Z</time>
  <course>0.0</course>
  <speed>0.0</speed>
  <fix>3d</fix>
</trkpt>
<trkpt lat="40.0713751" lon="-105.2297889">
  <ele>1582.95</ele>
  <time>2026-08-28T17:48:29Z</time>
  <course>247.04</course>
  <speed>0.022360679774997897</speed>
  <fix>3d</fix>
</trkpt>
<trkpt lat="40.0713749" lon="-105.229789">
  <ele>1583.0</ele>
  <time>2026-08-28T17:48:29Z</time>
  <course>0.0</course>
  <speed>0.0</speed>
  <fix>3d</fix>
</trkpt>
<trkpt lat="40.071375" lon="-105.2297889">
  <ele>1582.95</ele>
  <time>2026-08-28T17:48:29Z</time>
  <course>247.04</course>
  <speed>0.02</speed>
  <fix>3d</fix>
</trkpt>
<trkpt lat="40.0713749" lon="-105.229789">
  <ele>1583.0</ele>
  <time>2026-08-28T17:48:29Z</time>
  <course>0.0</course>
  <speed>0.0</speed>
  <fix>3d</fix>
</trkpt>
<trkpt lat="40.071375" lon="-105.2297889">
  <ele>1582.95</ele>
  <time>2026-08-28T17:48:29Z</time>
  <course>247.04</course>
  <speed>0.02</speed>
  <fix>3d</fix>
</trkpt>
<trkpt lat="40.0713749" lon="-105.229789">
  <ele>1583.0</ele>
  <time>2026-08-28T17:48:29Z</time>
  <course>0.0</course>
  <speed>0.0</speed>
  <fix>3d</fix>
</trkpt>
<trkpt lat="40.071375" lon="-105.2297889">
  <ele>1582.95</ele>
  <time>2026-08-28T17:48:29Z</time>
  <course>247.04</course>
  <speed>0.02</speed>
  <fix>3d</fix>
</trkpt>
<trkpt lat="40.0713749" lon="-105.229789">
  <ele>1583.0</ele>
  <time>2026-08-28T17:48:29Z</time>
  <course>0.0</course>
  <speed>0.0</speed>
  <fix>3d</fix>
</trkpt>
<trkpt lat="40.071375" lon="-105.2297889">
  <ele>1582.96</ele>
  <time>2026-08-28T17:48:29Z</time>
  <course>247.04</course>
  <speed>0.02</speed>
  <fix>3d</fix>
</trkpt>
<trkpt lat="40.0713749" lon="-105.229789">
  <ele>1583.0</ele>
  <time>2026-08-28T17:48:29Z</time>
  <course>0.0</course>
  <speed>0.0</speed>
  <fix>3d</fix>
</trkpt>
<trkpt lat="40.071375" lon="-105.2297889">
  <ele>1582.96</ele>
  <time>2026-08-28T17:48:29Z</time>
  <course>247.04</course>
  <speed>0.02</speed>
  <fix>3d</fix>
</trkpt>
<trkpt lat="40.0713749" lon="-105.229789">
  <ele>1583.0</ele>
  <time>2026-08-28T17:48:29Z</time>
  <course>0.0</course>
  <speed>0.0</speed>
  <fix>3d</fix>
</trkpt>
<trkpt lat="40.071375" lon="-105.2297889">
  <ele>1582.97</ele>
  <time>2026-08-28T17:48:29Z</time>
  <course>247.04</course>
  <speed>0.022360679774997897</speed>
  <fix>3d</fix>
</trkpt>
<trkpt lat="40.0713749" lon="-105.229789">
  <ele>1583.0</ele>
  <time>2026-08-28T17:48:29Z</time>
  <course>0.0</course>
  <speed>0.0</speed>
  <fix>3d</fix>
</trkpt>
<trkpt lat="40.071375" lon="-105.2297889">
  <ele>1582.97</ele>
  <time>2026-08-28T17:48:29Z</time>
  <course>247.04</course>
  <speed>0.02</speed>
  <fix>3d</fix>
</trkpt>
<trkpt lat="40.0713749" lon="-105.229789">
  <ele>1583.0</ele>
  <time>2026-08-28T17:48:29Z</time>
  <course>0.0</course>
  <speed>0.0</speed>
  <fix>3d</fix>
</trkpt>
<trkpt lat="40.0713751" lon="-105.2297889">
  <ele>1582.98</ele>
  <time>2026-08-28T17:48:29Z</time>
  <course>247.04</course>
  <speed>0.022360679774997897</speed>
  <fix>3d</fix>
</trkpt>
<trkpt lat="40.0713749" lon="-105.229789">
  <ele>1583.0</ele>
  <time>2026-08-28T17:48:29Z</time>
  <course>0.0</course>
  <speed>0.0</speed>
  <fix>3d</fix>
</trkpt>
<trkpt lat="40.071375" lon="-105.2297889">
  <ele>1582.98</ele>
  <time>2026-08-28T17:48:29Z</time>
  <course>247.04</course>
  <speed>0.02</speed>
  <fix>3d</fix>
</trkpt>
<trkpt lat="40.0713749" lon="-105.229789">
  <ele>1583.0</ele>
  <time>2026-08-28T17:48:29Z</time>
  <course>0.0</course>
  <speed>0.0</speed>
  <fix>3d</fix>
</trkpt>
<trkpt lat="40.0713751" lon="-105.2297889">
  <ele>1582.98</ele>
  <time>2026-08-28T17:48:29Z</time>
  <course>247.04</course>
  <speed>0.022360679774997897</speed>
  <fix>3d</fix>
</trkpt>
<trkpt lat="40.0713749" lon="-105.229789">
  <ele>1583.0</ele>
  <time>2026-08-28T17:48:29Z</time>
  <course>0.0</course>
  <speed>0.0</speed>
  <fix>3d</fix>
</trkpt>
<trkpt lat="40.071375" lon="-105.2297889">
  <ele>1582.98</ele>
  <time>2026-08-28T17:48:29Z</time>
  <course>247.04</course>
  <speed>0.02</speed>
  <fix>3d</fix>
</trkpt>
<trkpt lat="40.0713749" lon="-105.229789">
  <ele>1583.0</ele>
  <time>2026-08-28T17:48:29Z</time>
  <course>0.0</course>
  <speed>0.0</speed>
  <fix>3d</fix>
</trkpt>
<trkpt lat="40.0713751" lon="-105.2297889">
  <ele>1582.98</ele>
  <time>2026-08-28T17:48:29Z</time>
  <course>247.04</course>
  <speed>0.022360679774997897</speed>
  <fix>3d</fix>
</trkpt>
<trkpt lat="40.0713749" lon="-105.229789">
  <ele>1583.0</ele>
  <time>2026-08-28T17:48:29Z</time>
  <course>0.0</course>
  <speed>0.0</speed>
  <fix>3d</fix>
</trkpt>
<trkpt lat="40.071375" lon="-105.2297889">
  <ele>1582.98</ele>
  <time>2026-08-28T17:48:29Z</time>
  <course>247.04</course>
  <speed>0.02</speed>
  <fix>3d</fix>
</trkpt>
<trkpt lat="40.0713749" lon="-105.229789">
  <ele>1583.0</ele>
  <time>2026-08-28T17:48:29Z</time>
  <course>0.0</course>
  <speed>0.0</speed>
  <fix>3d</fix>
</trkpt>
<trkpt lat="40.0713751" lon="-105.2297889">
  <ele>1582.97</ele>
  <time>2026-08-28T17:48:29Z</time>
  <course>247.04</course>
  <speed>0.022360679774997897</speed>
  <fix>3d</fix>
</trkpt>
<trkpt lat="40.0713749" lon="-105.229789">
  <ele>1583.0</ele>
  <time>2026-08-28T17:48:29Z</time>
  <course>0.0</course>
  <speed>0.0</speed>
  <fix>3d</fix>
</trkpt>
<trkpt lat="40.0713751" lon="-105.2297889">
  <ele>1582.97</ele>
  <time>2026-08-28T17:48:29Z</time>
  <course>247.04</course>
  <speed>0.022360679774997897</speed>
  <fix>3d</fix>
</trkpt>
<trkpt lat="40.0713749" lon="-105.229789">
  <ele>1583.0</ele>
  <time>2026-08-28T17:48:29Z</time>
  <course>0.0</course>
  <speed>0.0</speed>
  <fix>3d</fix>
</trkpt>
<trkpt lat="40.0713751" lon="-105.2297889">
  <ele>1582.97</ele>
  <time>2026-08-28T17:48:29Z</time>
  <course>247.04</course>
  <speed>0.022360679774997897</speed>
  <fix>3d</fix>
</trkpt>
<trkpt lat="40.0713749" lon="-105.229789">
  <ele>1583.0</ele>
  <time>2026-08-28T17:48:29Z</time>
  <course>0.0</course>
  <speed>0.0</speed>
  <fix>3d</fix>
</trkpt>
<trkpt lat="40.0713751" lon="-105.2297889">
  <ele>1582.96</ele>
  <time>2026-08-28T17:48:29Z</time>
  <course>247.04</course>
  <speed>0.022360679774997897</speed>
  <fix>3d</fix>
</trkpt>
<trkpt lat="40.0713749" lon="-105.229789">
  <ele>1583.0</ele>
  <time>2026-08-28T17:48:29Z</time>
  <course>0.0</course>
  <speed>0.0</speed>
  <fix>3d</fix>
</trkpt>
<trkpt lat="40.0713751" lon="-105.2297889">
  <ele>1582.95</ele>
  <time>2026-08-28T17:48:29Z</time>
  <course>247.04</course>
  <speed>0.022360679774997897</speed>
  <fix>3d</fix>
</trkpt>
<trkpt lat="40.0713749" lon="-105.229789">
  <ele>1583.0</ele>
  <time>2026-08-28T17:48:29Z</time>
  <course>0.0</course>
  <speed>0.0</speed>
  <fix>3d</fix>
</trkpt>
<trkpt lat="40.0713751" lon="-105.2297889">
  <ele>1582.95</ele>
  <time>2026-08-28T17:48:29Z</time>
  <course>247.04</course>
  <speed>0.022360679774997897</speed>
  <fix>3d</fix>
</trkpt>
<trkpt lat="40.0713749" lon="-105.229789">
  <ele>1583.0</ele>
  <time>2026-08-28T17:48:29Z</time>
  <course>0.0</course>
  <speed>0.0</speed>
  <fix>3d</fix>
</trkpt>
<trkpt lat="40.0713751" lon="-105.2297889">
  <ele>1582.94</ele>
  <time>2026-08-28T17:48:29Z</time>
  <course>247.04</course>
  <speed>0.022360679774997897</speed>
  <fix>3d</fix>
</trkpt>
<trkpt lat="40.0713749" lon="-105.229789">
  <ele>1583.0</ele>
  <time>2026-08-28T17:48:29Z</time>
  <course>0.0</course>
  <speed>0.0</speed>
  <fix>3d</fix>
</trkpt>
<trkpt lat="40.0713751" lon="-105.2297889">
  <ele>1582.95</ele>
  <time>2026-08-28T17:48:29Z</time>
  <course>247.04</course>
  <speed>0.022360679774997897</speed>
  <fix>3d</fix>
</trkpt>
<trkpt lat="40.0713749" lon="-105.229789">
  <ele>1583.0</ele>
  <time>2026-08-28T17:48:29Z</time>
  <course>0.0</course>
  <speed>0.0</speed>
  <fix>3d</fix>
</trkpt>
<trkpt lat="40.0713751" lon="-105.2297889">
  <ele>1582.95</ele>
  <time>2026-08-28T17:48:29Z</time>
  <course>247.04</course>
  <speed>0.022360679774997897</speed>
  <fix>3d</fix>
</trkpt>
<trkpt lat="40.0713749" lon="-105.229789">
  <ele>1583.0</ele>
  <time>2026-08-28T17:48:29Z</time>
  <course>0.0</course>
  <speed>0.0</speed>
  <fix>3d</fix>
</trkpt>
<trkpt lat="40.0713751" lon="-105.2297889">
  <ele>1582.96</ele>
  <time>2026-08-28T17:48:29Z</time>
  <course>247.04</course>
  <speed>0.022360679774997897</speed>
  <fix>3d</fix>
</trkpt>
<trkpt lat="40.0713749" lon="-105.229789">
  <ele>1583.0</ele>
  <time>2026-08-28T17:48:29Z</time>
  <course>0.0</course>
  <speed>0.0</speed>
  <fix>3d</fix>
</trkpt>
<trkpt lat="40.0713751" lon="-105.2297889">
  <ele>1582.96</ele>
  <time>2026-08-28T17:48:29Z</time>
  <course>247.04</course>
  <speed>0.022360679774997897</speed>
  <fix>3d</fix>
</trkpt>
<trkpt lat="40.0713749" lon="-105.229789">
  <ele>1583.0</ele>
  <time>2026-08-28T17:48:29Z</time>
  <course>0.0</course>
  <speed>0.0</speed>
  <fix>3d</fix>
</trkpt>
<trkpt lat="40.071375" lon="-105.2297889">
  <ele>1582.97</ele>
  <time>2026-08-28T17:48:29Z</time>
  <course>247.04</course>
  <speed>0.022360679774997897</speed>
  <fix>3d</fix>
</trkpt>
<trkpt lat="40.0713749" lon="-105.229789">
  <ele>1583.0</ele>
  <time>2026-08-28T17:48:29Z</time>
  <course>0.0</course>
  <speed>0.0</speed>
  <fix>3d</fix>
</trkpt>
<trkpt lat="40.0713751" lon="-105.2297889">
  <ele>1582.98</ele>
  <time>2026-08-28T17:48:29Z</time>
  <course>247.04</course>
  <speed>0.022360679774997897</speed>
  <fix>3d</fix>
</trkpt>
<trkpt lat="40.0713749" lon="-105.229789">
  <ele>1583.0</ele>
  <time>2026-08-28T17:48:29Z</time>
  <course>0.0</course>
  <speed>0.0</speed>
  <fix>3d</fix>
</trkpt>
<trkpt lat="40.071375" lon="-105.2297889">
  <ele>1582.98</ele>
  <time>2026-08-28T17:48:29Z</time>
  <course>247.04</course>
  <speed>0.022360679774997897</speed>
  <fix>3d</fix>
</trkpt>
<trkpt lat="40.0713749" lon="-105.229789">
  <ele>1583.0</ele>
  <time>2026-08-28T17:48:29Z</time>
  <course>0.0</course>
  <speed>0.0</speed>
  <fix>3d</fix>
</trkpt>
<trkpt lat="40.0713751" lon="-105.2297889">
  <ele>1582.99</ele>
  <time>2026-08-28T17:48:29Z</time>
  <course>247.04</course>
  <speed>0.022360679774997897</speed>
  <fix>3d</fix>
</trkpt>
<trkpt lat="40.0713749" lon="-105.229789">
  <ele>1583.0</ele>
  <time>2026-08-28T17:48:29Z</time>
  <course>0.0</course>
  <speed>0.0</speed>
  <fix>3d</fix>
</trkpt>
<trkpt lat="40.071375" lon="-105.2297889">
  <ele>1582.99</ele>
  <time>2026-08-28T17:48:29Z</time>
  <course>247.04</course>
  <speed>0.022360679774997897</speed>
  <fix>3d</fix>
</trkpt>
<trkpt lat="40.0713749" lon="-105.229789">
  <ele>1583.0</ele>
  <time>2026-08-28T17:48:29Z</time>
  <course>0.0</course>
  <speed>0.0</speed>
  <fix>3d</fix>
</trkpt>
<trkpt lat="40.0713751" lon="-105.2297889">
  <ele>1583.0</ele>
  <time>2026-08-28T17:48:29Z</time>
  <course>247.04</course>
  <speed>0.022360679774997897</speed>
  <fix>3d</fix>
</trkpt>
<trkpt lat="40.0713749" lon="-105.229789">
  <ele>1583.0</ele>
  <time>2026-08-28T17:48:29Z</time>
  <course>0.0</course>
  <speed>0.0</speed>
  <fix>3d</fix>
</trkpt>
<trkpt lat="40.071375" lon="-105.2297889">
  <ele>1583.0</ele>
  <time>2026-08-28T17:48:29Z</time>
  <course>247.04</course>
  <speed>0.022360679774997897</speed>
  <fix>3d</fix>
</trkpt>
<trkpt lat="40.0713749" lon="-105.229789">
  <ele>1583.0</ele>
  <time>2026-08-28T17:48:29Z</time>
  <course>0.0</course>
  <speed>0.0</speed>
  <fix>3d</fix>
</trkpt>
<trkpt lat="40.0713751" lon="-105.2297889">
  <ele>1583.0</ele>
  <time>2026-08-28T17:48:29Z</time>
  <course>247.04</course>
  <speed>0.022360679774997897</speed>
  <fix>3d</fix>
</trkpt>
<trkpt lat="40.0713749" lon="-105.229789">
  <ele>1583.0</ele>
  <time>2026-08-28T17:48:29Z</time>
  <course>0.0</course>
  <speed>0.0</speed>
  <fix>3d</fix>
</trkpt>
<trkpt lat="40.0713751" lon="-105.2297889">
  <ele>1583.0</ele>
  <time>2026-08-28T17:48:29Z</time>
  <course>247.04</course>
  <speed>0.022360679774997897</speed>
  <fix>3d</fix>
</trkpt>
<trkpt lat="40.0713749" lon="-105.229789">
  <ele>1583.0</ele>
  <time>2026-08-28T17:48:29Z</time>
  <course>0.0</course>
  <speed>0.0</speed>
  <fix>3d</fix>
</trkpt>
<trkpt lat="40.0713751" lon="-105.2297889">
  <ele>1583.0</ele>
  <time>2026-08-28T17:48:29Z</time>
  <course>247.04</course>
  <speed>0.022360679774997897</speed>
  <fix>3d</fix>
</trkpt>
<trkpt lat="40.0713749" lon="-105.229789">
  <ele>1583.0</ele>
  <time>2026-08-28T17:48:29Z</time>
  <course>0.0</course>
  <speed>0.0</speed>
  <fix>3d</fix>
</trkpt>
<trkpt lat="40.0713751" lon="-105.2297889">
  <ele>1583.0</ele>
  <time>2026-08-28T17:48:29Z</time>
  <course>247.04</course>
  <speed>0.022360679774997897</speed>
  <fix>3d</fix>
</trkpt>
<trkpt lat="40.0713749" lon="-105.229789">
  <ele>1583.0</ele>
  <time>2026-08-28T17:48:29Z</time>
  <course>0.0</course>
  <speed>0.0</speed>
  <fix>3d</fix>
</trkpt>
<trkpt lat="40.0713751" lon="-105.2297889">
  <ele>1583.0</ele>
  <time>2026-08-28T17:48:29Z</time>
  <course>247.04</course>
  <speed>0.022360679774997897</speed>
  <fix>3d</fix>
</trkpt>
<trkpt lat="40.0713749" lon="-105.229789">
  <ele>1583.0</ele>
  <time>2026-08-28T17:48:29Z</time>
  <course>0.0</course>
  <speed>0.0</speed>
  <fix>3d</fix>
</trkpt>
<trkpt lat="40.0713751" lon="-105.2297889">
  <ele>1583.0</ele>
  <time>2026-08-28T17:48:29Z</time>
  <course>247.04</course>
  <speed>0.022360679774997897</speed>
  <fix>3d</fix>
</trkpt>
<trkpt lat="40.0713749" lon="-105.229789">
  <ele>1583.0</ele>
  <time>2026-08-28T17:48:29Z</time>
  <course>0.0</course>
  <speed>0.0</speed>
  <fix>3d</fix>
</trkpt>
<trkpt lat="40.0713751" lon="-105.2297889">
  <ele>1583.0</ele>
  <time>2026-08-28T17:48:29Z</time>
  <course>247.04</course>
  <speed>0.022360679774997897</speed>
  <fix>3d</fix>
</trkpt>
<trkpt lat="40.0713749" lon="-105.229789">
  <ele>1583.0</ele>
  <time>2026-08-28T17:48:29Z</time>
  <course>0.0</course>
  <speed>0.0</speed>
  <fix>3d</fix>
</trkpt>
<trkpt lat="40.0713751" lon="-105.2297889">
  <ele>1582.99</ele>
  <time>2026-08-28T17:48:29Z</time>
  <course>247.04</course>
  <speed>0.022360679774997897</speed>
  <fix>3d</fix>
</trkpt>
<trkpt lat="40.0713749" lon="-105.229789">
  <ele>1583.0</ele>
  <time>2026-08-28T17:48:29Z</time>
  <course>0.0</course>
  <speed>0.0</speed>
  <fix>3d</fix>
</trkpt>
<trkpt lat="40.0713751" lon="-105.2297889">
  <ele>1582.99</ele>
  <time>2026-08-28T17:48:29Z</time>
  <course>247.03</course>
  <speed>0.022360679774997897</speed>
  <fix>3d</fix>
</trkpt>
<trkpt lat="40.0713749" lon="-105.229789">
  <ele>1583.0</ele>
  <time>2026-08-28T17:48:29Z</time>
  <course>0.0</course>
  <speed>0.0</speed>
  <fix>3d</fix>
</trkpt>
<trkpt lat="40.0713751" lon="-105.2297889">
  <ele>1582.98</ele>
  <time>2026-08-28T17:48:29Z</time>
  <course>247.03</course>
  <speed>0.022360679774997897</speed>
  <fix>3d</fix>
</trkpt>
<trkpt lat="40.0713749" lon="-105.229789">
  <ele>1583.0</ele>
  <time>2026-08-28T17:48:29Z</time>
  <course>0.0</course>
  <speed>0.0</speed>
  <fix>3d</fix>
</trkpt>
<trkpt lat="40.0713751" lon="-105.2297889">
  <ele>1582.98</ele>
  <time>2026-08-28T17:48:29Z</time>
  <course>247.03</course>
  <speed>0.022360679774997897</speed>
  <fix>3d</fix>
</trkpt>
<trkpt lat="40.0713749" lon="-105.229789">
  <ele>1583.0</ele>
  <time>2026-08-28T17:48:29Z</time>
  <course>0.0</course>
  <speed>0.0</speed>
  <fix>3d</fix>
</trkpt>
<trkpt lat="40.0713751" lon="-105.2297889">
  <ele>1582.97</ele>
  <time>2026-08-28T17:48:29Z</time>
  <course>247.03</course>
  <speed>0.022360679774997897</speed>
  <fix>3d</fix>
</trkpt>
<trkpt lat="40.0713749" lon="-105.229789">
  <ele>1583.0</ele>
  <time>2026-08-28T17:48:29Z</time>
  <course>0.0</course>
  <speed>0.0</speed>
  <fix>3d</fix>
</trkpt>
<trkpt lat="40.0713751" lon="-105.2297889">
  <ele>1582.97</ele>
  <time>2026-08-28T17:48:29Z</time>
  <course>247.03</course>
  <speed>0.022360679774997897</speed>
  <fix>3d</fix>
</trkpt>
<trkpt lat="40.0713749" lon="-105.229789">
  <ele>1583.0</ele>
  <time>2026-08-28T17:48:29Z</time>
  <course>0.0</course>
  <speed>0.0</speed>
  <fix>3d</fix>
</trkpt>
<trkpt lat="40.0713751" lon="-105.2297889">
  <ele>1582.96</ele>
  <time>2026-08-28T17:48:29Z</time>
  <course>247.03</course>
  <speed>0.022360679774997897</speed>
  <fix>3d</fix>
</trkpt>
<trkpt lat="40.0713749" lon="-105.229789">
  <ele>1583.0</ele>
  <time>2026-08-28T17:48:29Z</time>
  <course>0.0</course>
  <speed>0.0</speed>
  <fix>3d</fix>
</trkpt>
<trkpt lat="40.0713751" lon="-105.2297889">
  <ele>1582.96</ele>
  <time>2026-08-28T17:48:29Z</time>
  <course>247.03</course>
  <speed>0.022360679774997897</speed>
  <fix>3d</fix>
</trkpt>
<trkpt lat="40.0713749" lon="-105.229789">
  <ele>1583.0</ele>
  <time>2026-08-28T17:48:29Z</time>
  <course>0.0</course>
  <speed>0.0</speed>
  <fix>3d</fix>
</trkpt>
<trkpt lat="40.0713751" lon="-105.2297889">
  <ele>1582.96</ele>
  <time>2026-08-28T17:48:29Z</time>
  <course>247.03</course>
  <speed>0.022360679774997897</speed>
  <fix>3d</fix>
</trkpt>
<trkpt lat="40.0713749" lon="-105.229789">
  <ele>1583.0</ele>
  <time>2026-08-28T17:48:29Z</time>
  <course>0.0</course>
  <speed>0.0</speed>
  <fix>3d</fix>
</trkpt>
<trkpt lat="40.0713751" lon="-105.2297889">
  <ele>1582.96</ele>
  <time>2026-08-28T17:48:29Z</time>
  <course>247.03</course>
  <speed>0.022360679774997897</speed>
  <fix>3d</fix>
</trkpt>
<trkpt lat="40.0713749" lon="-105.229789">
  <ele>1583.0</ele>
  <time>2026-08-28T17:48:29Z</time>
  <course>0.0</course>
  <speed>0.0</speed>
  <fix>3d</fix>
</trkpt>
<trkpt lat="40.0713751" lon="-105.2297889">
  <ele>1582.96</ele>
  <time>2026-08-28T17:48:29Z</time>
  <course>247.03</course>
  <speed>0.022360679774997897</speed>
  <fix>3d</fix>
</trkpt>
<trkpt lat="40.0713749" lon="-105.229789">
  <ele>1583.0</ele>
  <time>2026-08-28T17:48:29Z</time>
  <course>0.0</course>
  <speed>0.0</speed>
  <fix>3d</fix>
</trkpt>
<trkpt lat="40.0713751" lon="-105.2297889">
  <ele>1582.96</ele>
  <time>2026-08-28T17:48:29Z</time>
  <course>247.03</course>
  <speed>0.022360679774997897</speed>
  <fix>3d</fix>
</trkpt>
<trkpt lat="40.0713749" lon="-105.229789">
  <ele>1583.0</ele>
  <time>2026-08-28T17:48:29Z</time>
  <course>0.0</course>
  <speed>0.0</speed>
  <fix>3d</fix>
</trkpt>
<trkpt lat="40.0713751" lon="-105.2297889">
  <ele>1582.96</ele>
  <time>2026-08-28T17:48:29Z</time>
  <course>247.03</course>
  <speed>0.022360679774997897</speed>
  <fix>3d</fix>
</trkpt>
<trkpt lat="40.0713749" lon="-105.229789">
  <ele>1583.0</ele>
  <time>2026-08-28T17:48:29Z</time>
  <course>0.0</course>
  <speed>0.0</speed>
  <fix>3d</fix>
</trkpt>
<trkpt lat="40.0713751" lon="-105.2297889">
  <ele>1582.95</ele>
  <time>2026-08-28T17:48:29Z</time>
  <course>247.03</course>
  <speed>0.022360679774997897</speed>
  <fix>3d</fix>
</trkpt>
<trkpt lat="40.0713749" lon="-105.229789">
  <ele>1583.0</ele>
  <time>2026-08-28T17:48:29Z</time>
  <course>0.0</course>
  <speed>0.0</speed>
  <fix>3d</fix>
</trkpt>
<trkpt lat="40.0713751" lon="-105.2297889">
  <ele>1582.95</ele>
  <time>2026-08-28T17:48:29Z</time>
  <course>247.03</course>
  <speed>0.022360679774997897</speed>
  <fix>3d</fix>
</trkpt>
<trkpt lat="40.0713749" lon="-105.229789">
  <ele>1583.0</ele>
  <time>2026-08-28T17:48:29Z</time>
  <course>0.0</course>
  <speed>0.0</speed>
  <fix>3d</fix>
</trkpt>
<trkpt lat="40.0713751" lon="-105.2297889">
  <ele>1582.94</ele>
  <time>2026-08-28T17:48:29Z</time>
  <course>247.03</course>
  <speed>0.022360679774997897</speed>
  <fix>3d</fix>
</trkpt>
<trkpt lat="40.0713749" lon="-105.229789">
  <ele>1583.0</ele>
  <time>2026-08-28T17:48:29Z</time>
  <course>0.0</course>
  <speed>0.0</speed>
  <fix>3d</fix>
</trkpt>
<trkpt lat="40.0713751" lon="-105.2297889">
  <ele>1582.93</ele>
  <time>2026-08-28T17:48:29Z</time>
  <course>247.03</course>
  <speed>0.022360679774997897</speed>
  <fix>3d</fix>
</trkpt>
<trkpt lat="40.0713749" lon="-105.229789">
  <ele>1583.0</ele>
  <time>2026-08-28T17:48:29Z</time>
  <course>0.0</course>
  <speed>0.0</speed>
  <fix>3d</fix>
</trkpt>
<trkpt lat="40.0713751" lon="-105.2297889">
  <ele>1582.93</ele>
  <time>2026-08-28T17:48:29Z</time>
  <course>247.03</course>
  <speed>0.022360679774997897</speed>
  <fix>3d</fix>
</trkpt>
<trkpt lat="40.0713749" lon="-105.229789">
  <ele>1583.0</ele>
  <time>2026-08-28T17:48:29Z</time>
  <course>0.0</course>
  <speed>0.0</speed>
  <fix>3d</fix>
</trkpt>
<trkpt lat="40.0713751" lon="-105.2297889">
  <ele>1582.92</ele>
  <time>2026-08-28T17:48:29Z</time>
  <course>247.03</course>
  <speed>0.022360679774997897</speed>
  <fix>3d</fix>
</trkpt>
<trkpt lat="40.0713749" lon="-105.229789">
  <ele>1583.0</ele>
  <time>2026-08-28T17:48:29Z</time>
  <course>0.0</course>
  <speed>0.0</speed>
  <fix>3d</fix>
</trkpt>
<trkpt lat="40.0713751" lon="-105.2297889">
  <ele>1582.92</ele>
  <time>2026-08-28T17:48:29Z</time>
  <course>247.03</course>
  <speed>0.022360679774997897</speed>
  <fix>3d</fix>
</trkpt>
<trkpt lat="40.0713749" lon="-105.229789">
  <ele>1583.0</ele>
  <time>2026-08-28T17:48:29Z</time>
  <course>0.0</course>
  <speed>0.0</speed>
  <fix>3d</fix>
</trkpt>
<trkpt lat="40.0713751" lon="-105.2297889">
  <ele>1582.91</ele>
  <time>2026-08-28T17:48:29Z</time>
  <course>247.03</course>
  <speed>0.022360679774997897</speed>
  <fix>3d</fix>
</trkpt>
<trkpt lat="40.0713749" lon="-105.229789">
  <ele>1583.0</ele>
  <time>2026-08-28T17:48:29Z</time>
  <course>0.0</course>
  <speed>0.0</speed>
  <fix>3d</fix>
</trkpt>
<trkpt lat="40.0713751" lon="-105.2297889">
  <ele>1582.91</ele>
  <time>2026-08-28T17:48:29Z</time>
  <course>247.03</course>
  <speed>0.022360679774997897</speed>
  <fix>3d</fix>
</trkpt>
<trkpt lat="40.0713749" lon="-105.229789">
  <ele>1583.0</ele>
  <time>2026-08-28T17:48:29Z</time>
  <course>0.0</course>
  <speed>0.0</speed>
  <fix>3d</fix>
</trkpt>
<trkpt lat="40.0713751" lon="-105.2297889">
  <ele>1582.91</ele>
  <time>2026-08-28T17:48:29Z</time>
  <course>247.03</course>
  <speed>0.02</speed>
  <fix>3d</fix>
</trkpt>
<trkpt lat="40.0713749" lon="-105.229789">
  <ele>1583.0</ele>
  <time>2026-08-28T17:48:29Z</time>
  <course>0.0</course>
  <speed>0.0</speed>
  <fix>3d</fix>
</trkpt>
<trkpt lat="40.0713751" lon="-105.2297889">
  <ele>1582.9</ele>
  <time>2026-08-28T17:48:29Z</time>
  <course>247.03</course>
  <speed>0.02</speed>
  <fix>3d</fix>
</trkpt>
<trkpt lat="40.0713749" lon="-105.229789">
  <ele>1583.0</ele>
  <time>2026-08-28T17:48:29Z</time>
  <course>0.0</course>
  <speed>0.0</speed>
  <fix>3d</fix>
</trkpt>
<trkpt lat="40.071375" lon="-105.2297889">
  <ele>1582.9</ele>
  <time>2026-08-28T17:48:29Z</time>
  <course>247.03</course>
  <speed>0.02</speed>
  <fix>3d</fix>
</trkpt>
<trkpt lat="40.0713749" lon="-105.229789">
  <ele>1583.0</ele>
  <time>2026-08-28T17:48:29Z</time>
  <course>0.0</course>
  <speed>0.0</speed>
  <fix>3d</fix>
</trkpt>
<trkpt lat="40.071375" lon="-105.2297889">
  <ele>1582.9</ele>
  <time>2026-08-28T17:48:29Z</time>
  <course>247.03</course>
  <speed>0.02</speed>
  <fix>3d</fix>
</trkpt>
<trkpt lat="40.0713749" lon="-105.229789">
  <ele>1583.0</ele>
  <time>2026-08-28T17:48:29Z</time>
  <course>0.0</course>
  <speed>0.0</speed>
  <fix>3d</fix>
</trkpt>
<trkpt lat="40.071375" lon="-105.2297889">
  <ele>1582.89</ele>
  <time>2026-08-28T17:48:29Z</time>
  <course>247.03</course>
  <speed>0.01</speed>
  <fix>3d</fix>
</trkpt>
<trkpt lat="40.0713749" lon="-105.229789">
  <ele>1583.0</ele>
  <time>2026-08-28T17:48:29Z</time>
  <course>0.0</course>
  <speed>0.0</speed>
  <fix>3d</fix>
</trkpt>
<trkpt lat="40.071375" lon="-105.2297889">
  <ele>1582.89</ele>
  <time>2026-08-28T17:48:29Z</time>
  <course>247.03</course>
  <speed>0.01</speed>
  <fix>3d</fix>
</trkpt>
<trkpt lat="40.0713749" lon="-105.229789">
  <ele>1583.0</ele>
  <time>2026-08-28T17:48:29Z</time>
  <course>0.0</course>
  <speed>0.0</speed>
  <fix>3d</fix>
</trkpt>
<trkpt lat="40.071375" lon="-105.2297889">
  <ele>1582.89</ele>
  <time>2026-08-28T17:48:29Z</time>
  <course>247.03</course>
  <speed>0.01</speed>
  <fix>3d</fix>
</trkpt>
<trkpt lat="40.0713749" lon="-105.229789">
  <ele>1583.0</ele>
  <time>2026-08-28T17:48:29Z</time>
  <course>0.0</course>
  <speed>0.0</speed>
  <fix>3d</fix>
</trkpt>
<trkpt lat="40.071375" lon="-105.2297889">
  <ele>1582.89</ele>
  <time>2026-08-28T17:48:29Z</time>
  <course>247.03</course>
  <speed>0.01</speed>
  <fix>3d</fix>
</trkpt>
<trkpt lat="40.0713749" lon="-105.229789">
  <ele>1583.0</ele>
  <time>2026-08-28T17:48:29Z</time>
  <course>0.0</course>
  <speed>0.0</speed>
  <fix>3d</fix>
</trkpt>
<trkpt lat="40.071375" lon="-105.2297889">
  <ele>1582.89</ele>
  <time>2026-08-28T17:48:29Z</time>
  <course>247.03</course>
  <speed>0.01</speed>
  <fix>3d</fix>
</trkpt>
<trkpt lat="40.0713749" lon="-105.229789">
  <ele>1583.0</ele>
  <time>2026-08-28T17:48:29Z</time>
  <course>0.0</course>
  <speed>0.0</speed>
  <fix>3d</fix>
</trkpt>
<trkpt lat="40.071375" lon="-105.2297889">
  <ele>1582.88</ele>
  <time>2026-08-28T17:48:29Z</time>
  <course>247.03</course>
  <speed>0.01</speed>
  <fix>3d</fix>
</trkpt>
<trkpt lat="40.0713749" lon="-105.229789">
  <ele>1583.0</ele>
  <time>2026-08-28T17:48:29Z</time>
  <course>0.0</course>
  <speed>0.0</speed>
  <fix>3d</fix>
</trkpt>
<trkpt lat="40.071375" lon="-105.2297889">
  <ele>1582.88</ele>
  <time>2026-08-28T17:48:29Z</time>
  <course>247.03</course>
  <speed>0.0</speed>
  <fix>3d</fix>
</trkpt>
<trkpt lat="40.0713749" lon="-105.229789">
  <ele>1583.0</ele>
  <time>2026-08-28T17:48:29Z</time>
  <course>0.0</course>
  <speed>0.0</speed>
  <fix>3d</fix>
</trkpt>
<trkpt lat="40.071375" lon="-105.2297889">
  <ele>1582.88</ele>
  <time>2026-08-28T17:48:29Z</time>
  <course>247.03</course>
  <speed>0.0</speed>
  <fix>3d</fix>
</trkpt>
<trkpt lat="40.0713749" lon="-105.229789">
  <ele>1583.0</ele>
  <time>2026-08-28T17:48:29Z</time>
  <course>0.0</course>
  <speed>0.0</speed>
  <fix>3d</fix>
</trkpt>
<trkpt lat="40.071375" lon="-105.2297889">
  <ele>1582.88</ele>
  <time>2026-08-28T17:48:29Z</time>
  <course>247.03</course>
  <speed>0.0</speed>
  <fix>3d</fix>
</trkpt>
<trkpt lat="40.0713749" lon="-105.229789">
  <ele>1583.0</ele>
  <time>2026-08-28T17:48:29Z</time>
  <course>0.0</course>
  <speed>0.0</speed>
  <fix>3d</fix>
</trkpt>
<trkpt lat="40.071375" lon="-105.2297889">
  <ele>1582.87</ele>
  <time>2026-08-28T17:48:29Z</time>
  <course>247.03</course>
  <speed>0.0</speed>
  <fix>3d</fix>
</trkpt>
<trkpt lat="40.0713749" lon="-105.229789">
  <ele>1583.0</ele>
  <time>2026-08-28T17:48:29Z</time>
  <course>0.0</course>
  <speed>0.0</speed>
  <fix>3d</fix>
</trkpt>
<trkpt lat="40.071375" lon="-105.2297889">
  <ele>1582.87</ele>
  <time>2026-08-28T17:48:29Z</time>
  <course>247.03</course>
  <speed>0.0</speed>
  <fix>3d</fix>
</trkpt>
<trkpt lat="40.0713749" lon="-105.229789">
  <ele>1583.0</ele>
  <time>2026-08-28T17:48:29Z</time>
  <course>0.0</course>
  <speed>0.0</speed>
  <fix>3d</fix>
</trkpt>
<trkpt lat="40.071375" lon="-105.2297889">
  <ele>1582.87</ele>
  <time>2026-08-28T17:48:29Z</time>
  <course>247.03</course>
  <speed>0.0</speed>
  <fix>3d</fix>
</trkpt>
<trkpt lat="40.0713749" lon="-105.229789">
  <ele>1583.0</ele>
  <time>2026-08-28T17:48:29Z</time>
  <course>0.0</course>
  <speed>0.0</speed>
  <fix>3d</fix>
</trkpt>
<trkpt lat="40.071375" lon="-105.2297889">
  <ele>1582.86</ele>
  <time>2026-08-28T17:48:29Z</time>
  <course>247.03</course>
  <speed>0.0</speed>
  <fix>3d</fix>
</trkpt>
<trkpt lat="40.0713749" lon="-105.229789">
  <ele>1583.0</ele>
  <time>2026-08-28T17:48:29Z</time>
  <course>0.0</course>
  <speed>0.0</speed>
  <fix>3d</fix>
</trkpt>
<trkpt lat="40.071375" lon="-105.2297889">
  <ele>1582.86</ele>
  <time>2026-08-28T17:48:29Z</time>
  <course>247.03</course>
  <speed>0.0</speed>
  <fix>3d</fix>
</trkpt>
<trkpt lat="40.0713749" lon="-105.229789">
  <ele>1583.0</ele>
  <time>2026-08-28T17:48:29Z</time>
  <course>0.0</course>
  <speed>0.0</speed>
  <fix>3d</fix>
</trkpt>
<trkpt lat="40.071375" lon="-105.2297889">
  <ele>1582.86</ele>
  <time>2026-08-28T17:48:29Z</time>
  <course>247.03</course>
  <speed>0.0</speed>
  <fix>3d</fix>
</trkpt>
<trkpt lat="40.0713749" lon="-105.229789">
  <ele>1583.0</ele>
  <time>2026-08-28T17:48:29Z</time>
  <course>0.0</course>
  <speed>0.0</speed>
  <fix>3d</fix>
</trkpt>
<trkpt lat="40.071375" lon="-105.2297889">
  <ele>1582.85</ele>
  <time>2026-08-28T17:48:29Z</time>
  <course>247.03</course>
  <speed>0.0</speed>
  <fix>3d</fix>
</trkpt>
<trkpt lat="40.0713749" lon="-105.229789">
  <ele>1583.0</ele>
  <time>2026-08-28T17:48:29Z</time>
  <course>0.0</course>
  <speed>0.0</speed>
  <fix>3d</fix>
</trkpt>
<trkpt lat="40.071375" lon="-105.2297889">
  <ele>1582.85</ele>
  <time>2026-08-28T17:48:29Z</time>
  <course>247.03</course>
  <speed>0.0</speed>
  <fix>3d</fix>
</trkpt>
<trkpt lat="40.0713749" lon="-105.229789">
  <ele>1583.0</ele>
  <time>2026-08-28T17:48:29Z</time>
  <course>0.0</course>
  <speed>0.0</speed>
  <fix>3d</fix>
</trkpt>
<trkpt lat="40.071375" lon="-105.2297889">
  <ele>1582.85</ele>
  <time>2026-08-28T17:48:29Z</time>
  <course>247.03</course>
  <speed>0.0</speed>
  <fix>3d</fix>
</trkpt>
<trkpt lat="40.0713749" lon="-105.229789">
  <ele>1583.0</ele>
  <time>2026-08-28T17:48:29Z</time>
  <course>0.0</course>
  <speed>0.0</speed>
  <fix>3d</fix>
</trkpt>
<trkpt lat="40.071375" lon="-105.2297889">
  <ele>1582.84</ele>
  <time>2026-08-28T17:48:29Z</time>
  <course>247.03</course>
  <speed>0.0</speed>
  <fix>3d</fix>
</trkpt>
<trkpt lat="40.0713749" lon="-105.229789">
  <ele>1583.0</ele>
  <time>2026-08-28T17:48:29Z</time>
  <course>0.0</course>
  <speed>0.0</speed>
  <fix>3d</fix>
</trkpt>
<trkpt lat="40.071375" lon="-105.2297889">
  <ele>1582.84</ele>
  <time>2026-08-28T17:48:29Z</time>
  <course>247.03</course>
  <speed>0.0</speed>
  <fix>3d</fix>
</trkpt>
<trkpt lat="40.0713749" lon="-105.229789">
  <ele>1583.0</ele>
  <time>2026-08-28T17:48:29Z</time>
  <course>0.0</course>
  <speed>0.0</speed>
  <fix>3d</fix>
</trkpt>
<trkpt lat="40.071375" lon="-105.2297889">
  <ele>1582.83</ele>
  <time>2026-08-28T17:48:29Z</time>
  <course>247.03</course>
  <speed>0.0</speed>
  <fix>3d</fix>
</trkpt>
<trkpt lat="40.0713749" lon="-105.229789">
  <ele>1583.0</ele>
  <time>2026-08-28T17:48:29Z</time>
  <course>0.0</course>
  <speed>0.0</speed>
  <fix>3d</fix>
</trkpt>
<trkpt lat="40.071375" lon="-105.2297889">
  <ele>1582.83</ele>
  <time>2026-08-28T17:48:29Z</time>
  <course>247.03</course>
  <speed>0.0</speed>
  <fix>3d</fix>
</trkpt>
<trkpt lat="40.0713749" lon="-105.229789">
  <ele>1583.0</ele>
  <time>2026-08-28T17:48:29Z</time>
  <course>0.0</course>
  <speed>0.0</speed>
  <fix>3d</fix>
</trkpt>
<trkpt lat="40.071375" lon="-105.2297889">
  <ele>1582.83</ele>
  <time>2026-08-28T17:48:29Z</time>
  <course>247.03</course>
  <speed>0.0</speed>
  <fix>3d</fix>
</trkpt>
<trkpt lat="40.0713749" lon="-105.229789">
  <ele>1583.0</ele>
  <time>2026-08-28T17:48:29Z</time>
  <course>0.0</course>
  <speed>0.0</speed>
  <fix>3d</fix>
</trkpt>
<trkpt lat="40.0713749" lon="-105.229789">
  <ele>1582.82</ele>
  <time>2026-08-28T17:48:29Z</time>
  <course>247.03</course>
  <speed>0.0</speed>
  <fix>3d</fix>
</trkpt>
<trkpt lat="40.0713749" lon="-105.229789">
  <ele>1583.0</ele>
  <time>2026-08-28T17:48:29Z</time>
  <course>0.0</course>
  <speed>0.0</speed>
  <fix>3d</fix>
</trkpt>
<trkpt lat="40.0713749" lon="-105.229789">
  <ele>1582.82</ele>
  <time>2026-08-28T17:48:29Z</time>
  <course>247.03</course>
  <speed>0.0</speed>
  <fix>3d</fix>
</trkpt>
<trkpt lat="40.0713749" lon="-105.229789">
  <ele>1583.0</ele>
  <time>2026-08-28T17:48:29Z</time>
  <course>0.0</course>
  <speed>0.0</speed>
  <fix>3d</fix>
</trkpt>
<trkpt lat="40.0713749" lon="-105.229789">
  <ele>1582.82</ele>
  <time>2026-08-28T17:48:29Z</time>
  <course>247.03</course>
  <speed>0.0</speed>
  <fix>3d</fix>
</trkpt>
<trkpt lat="40.0713749" lon="-105.229789">
  <ele>1583.0</ele>
  <time>2026-08-28T17:48:29Z</time>
  <course>0.0</course>
  <speed>0.0</speed>
  <fix>3d</fix>
</trkpt>
<trkpt lat="40.0713749" lon="-105.229789">
  <ele>1582.82</ele>
  <time>2026-08-28T17:48:29Z</time>
  <course>247.03</course>
  <speed>0.0</speed>
  <fix>3d</fix>
</trkpt>
<trkpt lat="40.0713749" lon="-105.229789">
  <ele>1583.0</ele>
  <time>2026-08-28T17:48:29Z</time>
  <course>0.0</course>
  <speed>0.0</speed>
  <fix>3d</fix>
</trkpt>
<trkpt lat="40.0713749" lon="-105.229789">
  <ele>1582.82</ele>
  <time>2026-08-28T17:48:29Z</time>
  <course>247.03</course>
  <speed>0.0</speed>
  <fix>3d</fix>
</trkpt>
<trkpt lat="40.0713749" lon="-105.229789">
  <ele>1583.0</ele>
  <time>2026-08-28T17:48:29Z</time>
  <course>0.0</course>
  <speed>0.0</speed>
  <fix>3d</fix>
</trkpt>
<trkpt lat="40.0713749" lon="-105.229789">
  <ele>1582.82</ele>
  <time>2026-08-28T17:48:29Z</time>
  <course>247.03</course>
  <speed>0.0</speed>
  <fix>3d</fix>
</trkpt>
<trkpt lat="40.0713749" lon="-105.229789">
  <ele>1583.0</ele>
  <time>2026-08-28T17:48:29Z</time>
  <course>0.0</course>
  <speed>0.0</speed>
  <fix>3d</fix>
</trkpt>
<trkpt lat="40.0713749" lon="-105.229789">
  <ele>1582.82</ele>
  <time>2026-08-28T17:48:29Z</time>
  <course>247.03</course>
  <speed>0.0</speed>
  <fix>3d</fix>
</trkpt>
<trkpt lat="40.0713749" lon="-105.229789">
  <ele>1583.0</ele>
  <time>2026-08-28T17:48:29Z</time>
  <course>0.0</course>
  <speed>0.0</speed>
  <fix>3d</fix>
</trkpt>
<trkpt lat="40.0713749" lon="-105.229789">
  <ele>1582.82</ele>
  <time>2026-08-28T17:48:29Z</time>
  <course>247.03</course>
  <speed>0.0</speed>
  <fix>3d</fix>
</trkpt>
<trkpt lat="40.0713749" lon="-105.229789">
  <ele>1583.0</ele>
  <time>2026-08-28T17:48:29Z</time>
  <course>0.0</course>
  <speed>0.0</speed>
  <fix>3d</fix>
</trkpt>
<trkpt lat="40.071375" lon="-105.2297889">
  <ele>1582.82</ele>
  <time>2026-08-28T17:48:29Z</time>
  <course>247.03</course>
  <speed>0.0</speed>
  <fix>3d</fix>
</trkpt>
<trkpt lat="40.0713749" lon="-105.229789">
  <ele>1583.0</ele>
  <time>2026-08-28T17:48:29Z</time>
  <course>0.0</course>
  <speed>0.0</speed>
  <fix>3d</fix>
</trkpt>
<trkpt lat="40.071375" lon="-105.2297889">
  <ele>1582.82</ele>
  <time>2026-08-28T17:48:29Z</time>
  <course>247.03</course>
  <speed>0.0</speed>
  <fix>3d</fix>
</trkpt>
<trkpt lat="40.0713749" lon="-105.229789">
  <ele>1583.0</ele>
  <time>2026-08-28T17:48:29Z</time>
  <course>0.0</course>
  <speed>0.0</speed>
  <fix>3d</fix>
</trkpt>
<trkpt lat="40.071375" lon="-105.2297889">
  <ele>1582.82</ele>
  <time>2026-08-28T17:48:29Z</time>
  <course>247.03</course>
  <speed>0.0</speed>
  <fix>3d</fix>
</trkpt>
<trkpt lat="40.0713749" lon="-105.229789">
  <ele>1583.0</ele>
  <time>2026-08-28T17:48:29Z</time>
  <course>0.0</course>
  <speed>0.0</speed>
  <fix>3d</fix>
</trkpt>
<trkpt lat="40.071375" lon="-105.2297889">
  <ele>1582.82</ele>
  <time>2026-08-28T17:48:29Z</time>
  <course>247.03</course>
  <speed>0.0</speed>
  <fix>3d</fix>
</trkpt>
<trkpt lat="40.0713749" lon="-105.229789">
  <ele>1583.0</ele>
  <time>2026-08-28T17:48:29Z</time>
  <course>0.0</course>
  <speed>0.0</speed>
  <fix>3d</fix>
</trkpt>
<trkpt lat="40.071375" lon="-105.2297889">
  <ele>1582.81</ele>
  <time>2026-08-28T17:48:29Z</time>
  <course>247.03</course>
  <speed>0.0</speed>
  <fix>3d</fix>
</trkpt>
<trkpt lat="40.0713749" lon="-105.229789">
  <ele>1583.0</ele>
  <time>2026-08-28T17:48:29Z</time>
  <course>0.0</course>
  <speed>0.0</speed>
  <fix>3d</fix>
</trkpt>
<trkpt lat="40.071375" lon="-105.2297889">
  <ele>1582.81</ele>
  <time>2026-08-28T17:48:29Z</time>
  <course>247.03</course>
  <speed>0.0</speed>
  <fix>3d</fix>
</trkpt>
<trkpt lat="40.0713749" lon="-105.229789">
  <ele>1583.0</ele>
  <time>2026-08-28T17:48:29Z</time>
  <course>0.0</course>
  <speed>0.0</speed>
  <fix>3d</fix>
</trkpt>
<trkpt lat="40.071375" lon="-105.2297889">
  <ele>1582.81</ele>
  <time>2026-08-28T17:48:29Z</time>
  <course>247.03</course>
  <speed>0.0</speed>
  <fix>3d</fix>
</trkpt>
<trkpt lat="40.0713749" lon="-105.229789">
  <ele>1583.0</ele>
  <time>2026-08-28T17:48:29Z</time>
  <course>0.0</course>
  <speed>0.0</speed>
  <fix>3d</fix>
</trkpt>
<trkpt lat="40.071375" lon="-105.2297889">
  <ele>1582.81</ele>
  <time>2026-08-28T17:48:29Z</time>
  <course>247.03</course>
  <speed>0.0</speed>
  <fix>3d</fix>
</trkpt>
<trkpt lat="40.0713749" lon="-105.229789">
  <ele>1583.0</ele>
  <time>2026-08-28T17:48:29Z</time>
  <course>0.0</course>
  <speed>0.0</speed>
  <fix>3d</fix>
</trkpt>
<trkpt lat="40.071375" lon="-105.2297889">
  <ele>1582.81</ele>
  <time>2026-08-28T17:48:30Z</time>
  <course>247.03</course>
  <speed>0.0</speed>
  <fix>3d</fix>
</trkpt>
<trkpt lat="40.0713749" lon="-105.229789">
  <ele>1583.0</ele>
  <time>2026-08-28T17:48:30Z</time>
  <course>0.0</course>
  <speed>0.0</speed>
  <fix>3d</fix>
</trkpt>
<trkpt lat="40.071375" lon="-105.2297889">
  <ele>1582.81</ele>
  <time>2026-08-28T17:48:30Z</time>
  <course>247.03</course>
  <speed>0.0</speed>
  <fix>3d</fix>
</trkpt>
<trkpt lat="40.0713749" lon="-105.229789">
  <ele>1583.0</ele>
  <time>2026-08-28T17:48:30Z</time>
  <course>0.0</course>
  <speed>0.0</speed>
  <fix>3d</fix>
</trkpt>
<trkpt lat="40.071375" lon="-105.2297889">
  <ele>1582.81</ele>
  <time>2026-08-28T17:48:30Z</time>
  <course>247.03</course>
  <speed>0.0</speed>
  <fix>3d</fix>
</trkpt>
<trkpt lat="40.0713749" lon="-105.229789">
  <ele>1583.0</ele>
  <time>2026-08-28T17:48:30Z</time>
  <course>0.0</course>
  <speed>0.0</speed>
  <fix>3d</fix>
</trkpt>
<trkpt lat="40.071375" lon="-105.2297889">
  <ele>1582.81</ele>
  <time>2026-08-28T17:48:30Z</time>
  <course>247.03</course>
  <speed>0.01</speed>
  <fix>3d</fix>
</trkpt>
<trkpt lat="40.0713749" lon="-105.229789">
  <ele>1583.0</ele>
  <time>2026-08-28T17:48:30Z</time>
  <course>0.0</course>
  <speed>0.0</speed>
  <fix>3d</fix>
</trkpt>
<trkpt lat="40.071375" lon="-105.2297889">
  <ele>1582.81</ele>
  <time>2026-08-28T17:48:30Z</time>
  <course>247.03</course>
  <speed>0.01</speed>
  <fix>3d</fix>
</trkpt>
<trkpt lat="40.0713749" lon="-105.229789">
  <ele>1583.0</ele>
  <time>2026-08-28T17:48:30Z</time>
  <course>0.0</course>
  <speed>0.0</speed>
  <fix>3d</fix>
</trkpt>
<trkpt lat="40.071375" lon="-105.2297889">
  <ele>1582.81</ele>
  <time>2026-08-28T17:48:30Z</time>
  <course>247.03</course>
  <speed>0.01</speed>
  <fix>3d</fix>
</trkpt>
<trkpt lat="40.0713749" lon="-105.229789">
  <ele>1583.0</ele>
  <time>2026-08-28T17:48:30Z</time>
  <course>0.0</course>
  <speed>0.0</speed>
  <fix>3d</fix>
</trkpt>
<trkpt lat="40.071375" lon="-105.2297889">
  <ele>1582.81</ele>
  <time>2026-08-28T17:48:30Z</time>
  <course>247.03</course>
  <speed>0.01</speed>
  <fix>3d</fix>
</trkpt>
<trkpt lat="40.0713749" lon="-105.229789">
  <ele>1583.0</ele>
  <time>2026-08-28T17:48:30Z</time>
  <course>0.0</course>
  <speed>0.0</speed>
  <fix>3d</fix>
</trkpt>
<trkpt lat="40.071375" lon="-105.2297889">
  <ele>1582.81</ele>
  <time>2026-08-28T17:48:30Z</time>
  <course>247.03</course>
  <speed>0.01</speed>
  <fix>3d</fix>
</trkpt>
<trkpt lat="40.0713749" lon="-105.229789">
  <ele>1583.0</ele>
  <time>2026-08-28T17:48:30Z</time>
  <course>0.0</course>
  <speed>0.0</speed>
  <fix>3d</fix>
</trkpt>
<trkpt lat="40.071375" lon="-105.2297889">
  <ele>1582.81</ele>
  <time>2026-08-28T17:48:30Z</time>
  <course>247.03</course>
  <speed>0.01</speed>
  <fix>3d</fix>
</trkpt>
<trkpt lat="40.0713749" lon="-105.229789">
  <ele>1583.0</ele>
  <time>2026-08-28T17:48:30Z</time>
  <course>0.0</course>
  <speed>0.0</speed>
  <fix>3d</fix>
</trkpt>
<trkpt lat="40.071375" lon="-105.2297889">
  <ele>1582.82</ele>
  <time>2026-08-28T17:48:30Z</time>
  <course>247.03</course>
  <speed>0.01</speed>
  <fix>3d</fix>
</trkpt>
<trkpt lat="40.0713749" lon="-105.229789">
  <ele>1583.0</ele>
  <time>2026-08-28T17:48:30Z</time>
  <course>0.0</course>
  <speed>0.0</speed>
  <fix>3d</fix>
</trkpt>
<trkpt lat="40.071375" lon="-105.2297889">
  <ele>1582.82</ele>
  <time>2026-08-28T17:48:30Z</time>
  <course>247.03</course>
  <speed>0.01</speed>
  <fix>3d</fix>
</trkpt>
<trkpt lat="40.0713749" lon="-105.229789">
  <ele>1583.0</ele>
  <time>2026-08-28T17:48:30Z</time>
  <course>0.0</course>
  <speed>0.0</speed>
  <fix>3d</fix>
</trkpt>
<trkpt lat="40.071375" lon="-105.2297889">
  <ele>1582.83</ele>
  <time>2026-08-28T17:48:30Z</time>
  <course>247.03</course>
  <speed>0.01</speed>
  <fix>3d</fix>
</trkpt>
<trkpt lat="40.0713749" lon="-105.229789">
  <ele>1583.0</ele>
  <time>2026-08-28T17:48:30Z</time>
  <course>0.0</course>
  <speed>0.0</speed>
  <fix>3d</fix>
</trkpt>
<trkpt lat="40.071375" lon="-105.2297889">
  <ele>1582.83</ele>
  <time>2026-08-28T17:48:30Z</time>
  <course>247.03</course>
  <speed>0.01</speed>
  <fix>3d</fix>
</trkpt>
<trkpt lat="40.0713749" lon="-105.229789">
  <ele>1583.0</ele>
  <time>2026-08-28T17:48:30Z</time>
  <course>0.0</course>
  <speed>0.0</speed>
  <fix>3d</fix>
</trkpt>
<trkpt lat="40.071375" lon="-105.2297889">
  <ele>1582.84</ele>
  <time>2026-08-28T17:48:30Z</time>
  <course>247.03</course>
  <speed>0.01</speed>
  <fix>3d</fix>
</trkpt>
<trkpt lat="40.0713749" lon="-105.229789">
  <ele>1583.0</ele>
  <time>2026-08-28T17:48:30Z</time>
  <course>0.0</course>
  <speed>0.0</speed>
  <fix>3d</fix>
</trkpt>
<trkpt lat="40.071375" lon="-105.2297889">
  <ele>1582.85</ele>
  <time>2026-08-28T17:48:30Z</time>
  <course>247.03</course>
  <speed>0.01</speed>
  <fix>3d</fix>
</trkpt>
<trkpt lat="40.0713749" lon="-105.229789">
  <ele>1583.0</ele>
  <time>2026-08-28T17:48:30Z</time>
  <course>0.0</course>
  <speed>0.0</speed>
  <fix>3d</fix>
</trkpt>
<trkpt lat="40.071375" lon="-105.2297889">
  <ele>1582.85</ele>
  <time>2026-08-28T17:48:30Z</time>
  <course>247.03</course>
  <speed>0.01</speed>
  <fix>3d</fix>
</trkpt>
<trkpt lat="40.0713749" lon="-105.229789">
  <ele>1583.0</ele>
  <time>2026-08-28T17:48:30Z</time>
  <course>0.0</course>
  <speed>0.0</speed>
  <fix>3d</fix>
</trkpt>
<trkpt lat="40.071375" lon="-105.2297889">
  <ele>1582.86</ele>
  <time>2026-08-28T17:48:30Z</time>
  <course>247.03</course>
  <speed>0.02</speed>
  <fix>3d</fix>
</trkpt>
<trkpt lat="40.0713749" lon="-105.229789">
  <ele>1583.0</ele>
  <time>2026-08-28T17:48:30Z</time>
  <course>0.0</course>
  <speed>0.0</speed>
  <fix>3d</fix>
</trkpt>
<trkpt lat="40.071375" lon="-105.2297889">
  <ele>1582.86</ele>
  <time>2026-08-28T17:48:30Z</time>
  <course>247.03</course>
  <speed>0.02</speed>
  <fix>3d</fix>
</trkpt>
<trkpt lat="40.0713749" lon="-105.229789">
  <ele>1583.0</ele>
  <time>2026-08-28T17:48:30Z</time>
  <course>0.0</course>
  <speed>0.0</speed>
  <fix>3d</fix>
</trkpt>
<trkpt lat="40.071375" lon="-105.2297889">
  <ele>1582.86</ele>
  <time>2026-08-28T17:48:30Z</time>
  <course>247.03</course>
  <speed>0.02</speed>
  <fix>3d</fix>
</trkpt>
<trkpt lat="40.0713749" lon="-105.229789">
  <ele>1583.0</ele>
  <time>2026-08-28T17:48:30Z</time>
  <course>0.0</course>
  <speed>0.0</speed>
  <fix>3d</fix>
</trkpt>
<trkpt lat="40.071375" lon="-105.2297889">
  <ele>1582.87</ele>
  <time>2026-08-28T17:48:30Z</time>
  <course>247.03</course>
  <speed>0.02</speed>
  <fix>3d</fix>
</trkpt>
<trkpt lat="40.0713749" lon="-105.229789">
  <ele>1583.0</ele>
  <time>2026-08-28T17:48:30Z</time>
  <course>0.0</course>
  <speed>0.0</speed>
  <fix>3d</fix>
</trkpt>
<trkpt lat="40.071375" lon="-105.2297889">
  <ele>1582.87</ele>
  <time>2026-08-28T17:48:30Z</time>
  <course>247.03</course>
  <speed>0.02</speed>
  <fix>3d</fix>
</trkpt>
<trkpt lat="40.0713749" lon="-105.229789">
  <ele>1583.0</ele>
  <time>2026-08-28T17:48:30Z</time>
  <course>0.0</course>
  <speed>0.0</speed>
  <fix>3d</fix>
</trkpt>
<trkpt lat="40.071375" lon="-105.2297889">
  <ele>1582.87</ele>
  <time>2026-08-28T17:48:30Z</time>
  <course>247.03</course>
  <speed>0.02</speed>
  <fix>3d</fix>
</trkpt>
<trkpt lat="40.0713749" lon="-105.229789">
  <ele>1583.0</ele>
  <time>2026-08-28T17:48:30Z</time>
  <course>0.0</course>
  <speed>0.0</speed>
  <fix>3d</fix>
</trkpt>
<trkpt lat="40.071375" lon="-105.2297889">
  <ele>1582.87</ele>
  <time>2026-08-28T17:48:30Z</time>
  <course>247.03</course>
  <speed>0.02</speed>
  <fix>3d</fix>
</trkpt>
<trkpt lat="40.0713749" lon="-105.229789">
  <ele>1583.0</ele>
  <time>2026-08-28T17:48:30Z</time>
  <course>0.0</course>
  <speed>0.0</speed>
  <fix>3d</fix>
</trkpt>
<trkpt lat="40.071375" lon="-105.2297889">
  <ele>1582.87</ele>
  <time>2026-08-28T17:48:30Z</time>
  <course>247.03</course>
  <speed>0.02</speed>
  <fix>3d</fix>
</trkpt>
<trkpt lat="40.0713749" lon="-105.229789">
  <ele>1583.0</ele>
  <time>2026-08-28T17:48:30Z</time>
  <course>0.0</course>
  <speed>0.0</speed>
  <fix>3d</fix>
</trkpt>
<trkpt lat="40.071375" lon="-105.2297889">
  <ele>1582.87</ele>
  <time>2026-08-28T17:48:30Z</time>
  <course>247.03</course>
  <speed>0.02</speed>
  <fix>3d</fix>
</trkpt>
<trkpt lat="40.0713749" lon="-105.229789">
  <ele>1583.0</ele>
  <time>2026-08-28T17:48:30Z</time>
  <course>0.0</course>
  <speed>0.0</speed>
  <fix>3d</fix>
</trkpt>
<trkpt lat="40.071375" lon="-105.2297889">
  <ele>1582.88</ele>
  <time>2026-08-28T17:48:30Z</time>
  <course>247.03</course>
  <speed>0.02</speed>
  <fix>3d</fix>
</trkpt>
<trkpt lat="40.0713749" lon="-105.229789">
  <ele>1583.0</ele>
  <time>2026-08-28T17:48:30Z</time>
  <course>0.0</course>
  <speed>0.0</speed>
  <fix>3d</fix>
</trkpt>
<trkpt lat="40.071375" lon="-105.2297889">
  <ele>1582.88</ele>
  <time>2026-08-28T17:48:30Z</time>
  <course>247.03</course>
  <speed>0.02</speed>
  <fix>3d</fix>
</trkpt>
<trkpt lat="40.0713749" lon="-105.229789">
  <ele>1583.0</ele>
  <time>2026-08-28T17:48:30Z</time>
  <course>0.0</course>
  <speed>0.0</speed>
  <fix>3d</fix>
</trkpt>
<trkpt lat="40.071375" lon="-105.2297889">
  <ele>1582.88</ele>
  <time>2026-08-28T17:48:30Z</time>
  <course>247.03</course>
  <speed>0.02</speed>
  <fix>3d</fix>
</trkpt>
<trkpt lat="40.0713749" lon="-105.229789">
  <ele>1583.0</ele>
  <time>2026-08-28T17:48:30Z</time>
  <course>0.0</course>
  <speed>0.0</speed>
  <fix>3d</fix>
</trkpt>
<trkpt lat="40.071375" lon="-105.2297889">
  <ele>1582.88</ele>
  <time>2026-08-28T17:48:30Z</time>
  <course>247.03</course>
  <speed>0.02</speed>
  <fix>3d</fix>
</trkpt>
<trkpt lat="40.0713749" lon="-105.229789">
  <ele>1583.0</ele>
  <time>2026-08-28T17:48:30Z</time>
  <course>0.0</course>
  <speed>0.0</speed>
  <fix>3d</fix>
</trkpt>
<trkpt lat="40.071375" lon="-105.2297889">
  <ele>1582.88</ele>
  <time>2026-08-28T17:48:30Z</time>
  <course>247.03</course>
  <speed>0.02</speed>
  <fix>3d</fix>
</trkpt>
<trkpt lat="40.0713749" lon="-105.229789">
  <ele>1583.0</ele>
  <time>2026-08-28T17:48:30Z</time>
  <course>0.0</course>
  <speed>0.0</speed>
  <fix>3d</fix>
</trkpt>
<trkpt lat="40.071375" lon="-105.2297889">
  <ele>1582.88</ele>
  <time>2026-08-28T17:48:30Z</time>
  <course>247.03</course>
  <speed>0.02</speed>
  <fix>3d</fix>
</trkpt>
<trkpt lat="40.0713749" lon="-105.229789">
  <ele>1583.0</ele>
  <time>2026-08-28T17:48:30Z</time>
  <course>0.0</course>
  <speed>0.0</speed>
  <fix>3d</fix>
</trkpt>
<trkpt lat="40.071375" lon="-105.2297889">
  <ele>1582.88</ele>
  <time>2026-08-28T17:48:30Z</time>
  <course>247.03</course>
  <speed>0.02</speed>
  <fix>3d</fix>
</trkpt>
<trkpt lat="40.0713749" lon="-105.229789">
  <ele>1583.0</ele>
  <time>2026-08-28T17:48:30Z</time>
  <course>0.0</course>
  <speed>0.0</speed>
  <fix>3d</fix>
</trkpt>
<trkpt lat="40.071375" lon="-105.2297889">
  <ele>1582.88</ele>
  <time>2026-08-28T17:48:30Z</time>
  <course>247.03</course>
  <speed>0.02</speed>
  <fix>3d</fix>
</trkpt>
<trkpt lat="40.0713749" lon="-105.229789">
  <ele>1583.0</ele>
  <time>2026-08-28T17:48:30Z</time>
  <course>0.0</course>
  <speed>0.0</speed>
  <fix>3d</fix>
</trkpt>
<trkpt lat="40.071375" lon="-105.2297889">
  <ele>1582.89</ele>
  <time>2026-08-28T17:48:30Z</time>
  <course>247.03</course>
  <speed>0.02</speed>
  <fix>3d</fix>
</trkpt>
<trkpt lat="40.0713749" lon="-105.229789">
  <ele>1583.0</ele>
  <time>2026-08-28T17:48:30Z</time>
  <course>0.0</course>
  <speed>0.0</speed>
  <fix>3d</fix>
</trkpt>
<trkpt lat="40.071375" lon="-105.2297889">
  <ele>1582.89</ele>
  <time>2026-08-28T17:48:30Z</time>
  <course>247.03</course>
  <speed>0.02</speed>
  <fix>3d</fix>
</trkpt>
<trkpt lat="40.0713749" lon="-105.229789">
  <ele>1583.0</ele>
  <time>2026-08-28T17:48:30Z</time>
  <course>0.0</course>
  <speed>0.0</speed>
  <fix>3d</fix>
</trkpt>
<trkpt lat="40.071375" lon="-105.2297889">
  <ele>1582.89</ele>
  <time>2026-08-28T17:48:30Z</time>
  <course>247.03</course>
  <speed>0.02</speed>
  <fix>3d</fix>
</trkpt>
<trkpt lat="40.0713749" lon="-105.229789">
  <ele>1583.0</ele>
  <time>2026-08-28T17:48:30Z</time>
  <course>0.0</course>
  <speed>0.0</speed>
  <fix>3d</fix>
</trkpt>
<trkpt lat="40.071375" lon="-105.2297889">
  <ele>1582.89</ele>
  <time>2026-08-28T17:48:30Z</time>
  <course>247.03</course>
  <speed>0.02</speed>
  <fix>3d</fix>
</trkpt>
<trkpt lat="40.0713749" lon="-105.229789">
  <ele>1583.0</ele>
  <time>2026-08-28T17:48:30Z</time>
  <course>0.0</course>
  <speed>0.0</speed>
  <fix>3d</fix>
</trkpt>
<trkpt lat="40.071375" lon="-105.2297889">
  <ele>1582.89</ele>
  <time>2026-08-28T17:48:30Z</time>
  <course>247.03</course>
  <speed>0.02</speed>
  <fix>3d</fix>
</trkpt>
<trkpt lat="40.0713749" lon="-105.229789">
  <ele>1583.0</ele>
  <time>2026-08-28T17:48:30Z</time>
  <course>0.0</course>
  <speed>0.0</speed>
  <fix>3d</fix>
</trkpt>
<trkpt lat="40.071375" lon="-105.2297889">
  <ele>1582.89</ele>
  <time>2026-08-28T17:48:30Z</time>
  <course>247.03</course>
  <speed>0.02</speed>
  <fix>3d</fix>
</trkpt>
<trkpt lat="40.0713749" lon="-105.229789">
  <ele>1583.0</ele>
  <time>2026-08-28T17:48:30Z</time>
  <course>0.0</course>
  <speed>0.0</speed>
  <fix>3d</fix>
</trkpt>
<trkpt lat="40.071375" lon="-105.2297889">
  <ele>1582.89</ele>
  <time>2026-08-28T17:48:30Z</time>
  <course>247.03</course>
  <speed>0.02</speed>
  <fix>3d</fix>
</trkpt>
<trkpt lat="40.0713749" lon="-105.229789">
  <ele>1583.0</ele>
  <time>2026-08-28T17:48:30Z</time>
  <course>0.0</course>
  <speed>0.0</speed>
  <fix>3d</fix>
</trkpt>
<trkpt lat="40.071375" lon="-105.2297889">
  <ele>1582.89</ele>
  <time>2026-08-28T17:48:30Z</time>
  <course>247.03</course>
  <speed>0.02</speed>
  <fix>3d</fix>
</trkpt>
<trkpt lat="40.0713749" lon="-105.229789">
  <ele>1583.0</ele>
  <time>2026-08-28T17:48:30Z</time>
  <course>0.0</course>
  <speed>0.0</speed>
  <fix>3d</fix>
</trkpt>
<trkpt lat="40.071375" lon="-105.2297889">
  <ele>1582.89</ele>
  <time>2026-08-28T17:48:30Z</time>
  <course>247.03</course>
  <speed>0.02</speed>
  <fix>3d</fix>
</trkpt>
<trkpt lat="40.0713749" lon="-105.229789">
  <ele>1583.0</ele>
  <time>2026-08-28T17:48:30Z</time>
  <course>0.0</course>
  <speed>0.0</speed>
  <fix>3d</fix>
</trkpt>
<trkpt lat="40.071375" lon="-105.2297889">
  <ele>1582.9</ele>
  <time>2026-08-28T17:48:30Z</time>
  <course>247.03</course>
  <speed>0.02</speed>
  <fix>3d</fix>
</trkpt>
<trkpt lat="40.0713749" lon="-105.229789">
  <ele>1583.0</ele>
  <time>2026-08-28T17:48:30Z</time>
  <course>0.0</course>
  <speed>0.0</speed>
  <fix>3d</fix>
</trkpt>
<trkpt lat="40.071375" lon="-105.2297889">
  <ele>1582.9</ele>
  <time>2026-08-28T17:48:30Z</time>
  <course>247.04</course>
  <speed>0.02</speed>
  <fix>3d</fix>
</trkpt>
<trkpt lat="40.0713749" lon="-105.229789">
  <ele>1583.0</ele>
  <time>2026-08-28T17:48:30Z</time>
  <course>0.0</course>
  <speed>0.0</speed>
  <fix>3d</fix>
</trkpt>
<trkpt lat="40.071375" lon="-105.2297889">
  <ele>1582.9</ele>
  <time>2026-08-28T17:48:30Z</time>
  <course>247.04</course>
  <speed>0.02</speed>
  <fix>3d</fix>
</trkpt>
<trkpt lat="40.0713749" lon="-105.229789">
  <ele>1583.0</ele>
  <time>2026-08-28T17:48:30Z</time>
  <course>0.0</course>
  <speed>0.0</speed>
  <fix>3d</fix>
</trkpt>
<trkpt lat="40.071375" lon="-105.2297889">
  <ele>1582.9</ele>
  <time>2026-08-28T17:48:30Z</time>
  <course>247.04</course>
  <speed>0.02</speed>
  <fix>3d</fix>
</trkpt>
<trkpt lat="40.0713749" lon="-105.229789">
  <ele>1583.0</ele>
  <time>2026-08-28T17:48:30Z</time>
  <course>0.0</course>
  <speed>0.0</speed>
  <fix>3d</fix>
</trkpt>
<trkpt lat="40.071375" lon="-105.2297889">
  <ele>1582.9</ele>
  <time>2026-08-28T17:48:30Z</time>
  <course>247.04</course>
  <speed>0.02</speed>
  <fix>3d</fix>
</trkpt>
<trkpt lat="40.0713749" lon="-105.229789">
  <ele>1583.0</ele>
  <time>2026-08-28T17:48:30Z</time>
  <course>0.0</course>
  <speed>0.0</speed>
  <fix>3d</fix>
</trkpt>
<trkpt lat="40.071375" lon="-105.2297889">
  <ele>1582.9</ele>
  <time>2026-08-28T17:48:30Z</time>
  <course>247.04</course>
  <speed>0.02</speed>
  <fix>3d</fix>
</trkpt>
<trkpt lat="40.0713749" lon="-105.229789">
  <ele>1583.0</ele>
  <time>2026-08-28T17:48:30Z</time>
  <course>0.0</course>
  <speed>0.0</speed>
  <fix>3d</fix>
</trkpt>
<trkpt lat="40.071375" lon="-105.2297889">
  <ele>1582.9</ele>
  <time>2026-08-28T17:48:30Z</time>
  <course>247.04</course>
  <speed>0.02</speed>
  <fix>3d</fix>
</trkpt>
<trkpt lat="40.0713749" lon="-105.229789">
  <ele>1583.0</ele>
  <time>2026-08-28T17:48:30Z</time>
  <course>0.0</course>
  <speed>0.0</speed>
  <fix>3d</fix>
</trkpt>
<trkpt lat="40.071375" lon="-105.2297889">
  <ele>1582.9</ele>
  <time>2026-08-28T17:48:30Z</time>
  <course>247.04</course>
  <speed>0.02</speed>
  <fix>3d</fix>
</trkpt>
<trkpt lat="40.0713749" lon="-105.229789">
  <ele>1583.0</ele>
  <time>2026-08-28T17:48:30Z</time>
  <course>0.0</course>
  <speed>0.0</speed>
  <fix>3d</fix>
</trkpt>
<trkpt lat="40.071375" lon="-105.2297889">
  <ele>1582.89</ele>
  <time>2026-08-28T17:48:30Z</time>
  <course>247.04</course>
  <speed>0.02</speed>
  <fix>3d</fix>
</trkpt>
<trkpt lat="40.0713749" lon="-105.229789">
  <ele>1583.0</ele>
  <time>2026-08-28T17:48:30Z</time>
  <course>0.0</course>
  <speed>0.0</speed>
  <fix>3d</fix>
</trkpt>
<trkpt lat="40.071375" lon="-105.2297889">
  <ele>1582.89</ele>
  <time>2026-08-28T17:48:30Z</time>
  <course>247.04</course>
  <speed>0.02</speed>
  <fix>3d</fix>
</trkpt>
<trkpt lat="40.0713749" lon="-105.229789">
  <ele>1583.0</ele>
  <time>2026-08-28T17:48:30Z</time>
  <course>0.0</course>
  <speed>0.0</speed>
  <fix>3d</fix>
</trkpt>
<trkpt lat="40.071375" lon="-105.2297889">
  <ele>1582.89</ele>
  <time>2026-08-28T17:48:30Z</time>
  <course>247.04</course>
  <speed>0.02</speed>
  <fix>3d</fix>
</trkpt>
<trkpt lat="40.0713749" lon="-105.229789">
  <ele>1583.0</ele>
  <time>2026-08-28T17:48:30Z</time>
  <course>0.0</course>
  <speed>0.0</speed>
  <fix>3d</fix>
</trkpt>
<trkpt lat="40.071375" lon="-105.2297889">
  <ele>1582.89</ele>
  <time>2026-08-28T17:48:30Z</time>
  <course>247.04</course>
  <speed>0.02</speed>
  <fix>3d</fix>
</trkpt>
<trkpt lat="40.0713749" lon="-105.229789">
  <ele>1583.0</ele>
  <time>2026-08-28T17:48:30Z</time>
  <course>0.0</course>
  <speed>0.0</speed>
  <fix>3d</fix>
</trkpt>
<trkpt lat="40.071375" lon="-105.2297889">
  <ele>1582.89</ele>
  <time>2026-08-28T17:48:30Z</time>
  <course>247.04</course>
  <speed>0.02</speed>
  <fix>3d</fix>
</trkpt>
<trkpt lat="40.0713749" lon="-105.229789">
  <ele>1583.0</ele>
  <time>2026-08-28T17:48:30Z</time>
  <course>0.0</course>
  <speed>0.0</speed>
  <fix>3d</fix>
</trkpt>
<trkpt lat="40.071375" lon="-105.2297889">
  <ele>1582.88</ele>
  <time>2026-08-28T17:48:30Z</time>
  <course>247.04</course>
  <speed>0.02</speed>
  <fix>3d</fix>
</trkpt>
<trkpt lat="40.0713749" lon="-105.229789">
  <ele>1583.0</ele>
  <time>2026-08-28T17:48:30Z</time>
  <course>0.0</course>
  <speed>0.0</speed>
  <fix>3d</fix>
</trkpt>
<trkpt lat="40.071375" lon="-105.2297889">
  <ele>1582.88</ele>
  <time>2026-08-28T17:48:30Z</time>
  <course>247.04</course>
  <speed>0.02</speed>
  <fix>3d</fix>
</trkpt>
<trkpt lat="40.0713749" lon="-105.229789">
  <ele>1583.0</ele>
  <time>2026-08-28T17:48:30Z</time>
  <course>0.0</course>
  <speed>0.0</speed>
  <fix>3d</fix>
</trkpt>
<trkpt lat="40.071375" lon="-105.2297889">
  <ele>1582.89</ele>
  <time>2026-08-28T17:48:30Z</time>
  <course>247.04</course>
  <speed>0.02</speed>
  <fix>3d</fix>
</trkpt>
<trkpt lat="40.0713749" lon="-105.229789">
  <ele>1583.0</ele>
  <time>2026-08-28T17:48:30Z</time>
  <course>0.0</course>
  <speed>0.0</speed>
  <fix>3d</fix>
</trkpt>
<trkpt lat="40.071375" lon="-105.2297889">
  <ele>1582.89</ele>
  <time>2026-08-28T17:48:30Z</time>
  <course>247.04</course>
  <speed>0.022360679774997897</speed>
  <fix>3d</fix>
</trkpt>
<trkpt lat="40.0713749" lon="-105.229789">
  <ele>1583.0</ele>
  <time>2026-08-28T17:48:30Z</time>
  <course>0.0</course>
  <speed>0.0</speed>
  <fix>3d</fix>
</trkpt>
<trkpt lat="40.071375" lon="-105.2297889">
  <ele>1582.9</ele>
  <time>2026-08-28T17:48:30Z</time>
  <course>247.04</course>
  <speed>0.022360679774997897</speed>
  <fix>3d</fix>
</trkpt>
<trkpt lat="40.0713749" lon="-105.229789">
  <ele>1583.0</ele>
  <time>2026-08-28T17:48:30Z</time>
  <course>0.0</course>
  <speed>0.0</speed>
  <fix>3d</fix>
</trkpt>
<trkpt lat="40.071375" lon="-105.2297889">
  <ele>1582.9</ele>
  <time>2026-08-28T17:48:30Z</time>
  <course>247.04</course>
  <speed>0.022360679774997897</speed>
  <fix>3d</fix>
</trkpt>
<trkpt lat="40.0713749" lon="-105.229789">
  <ele>1583.0</ele>
  <time>2026-08-28T17:48:30Z</time>
  <course>0.0</course>
  <speed>0.0</speed>
  <fix>3d</fix>
</trkpt>
<trkpt lat="40.071375" lon="-105.2297889">
  <ele>1582.91</ele>
  <time>2026-08-28T17:48:30Z</time>
  <course>247.04</course>
  <speed>0.022360679774997897</speed>
  <fix>3d</fix>
</trkpt>
<trkpt lat="40.0713749" lon="-105.229789">
  <ele>1583.0</ele>
  <time>2026-08-28T17:48:30Z</time>
  <course>0.0</course>
  <speed>0.0</speed>
  <fix>3d</fix>
</trkpt>
<trkpt lat="40.071375" lon="-105.2297889">
  <ele>1582.91</ele>
  <time>2026-08-28T17:48:30Z</time>
  <course>247.04</course>
  <speed>0.022360679774997897</speed>
  <fix>3d</fix>
</trkpt>
<trkpt lat="40.0713749" lon="-105.229789">
  <ele>1583.0</ele>
  <time>2026-08-28T17:48:30Z</time>
  <course>0.0</course>
  <speed>0.0</speed>
  <fix>3d</fix>
</trkpt>
<trkpt lat="40.071375" lon="-105.2297889">
  <ele>1582.92</ele>
  <time>2026-08-28T17:48:30Z</time>
  <course>247.04</course>
  <speed>0.022360679774997897</speed>
  <fix>3d</fix>
</trkpt>
<trkpt lat="40.0713749" lon="-105.229789">
  <ele>1583.0</ele>
  <time>2026-08-28T17:48:30Z</time>
  <course>0.0</course>
  <speed>0.0</speed>
  <fix>3d</fix>
</trkpt>
<trkpt lat="40.071375" lon="-105.2297889">
  <ele>1582.92</ele>
  <time>2026-08-28T17:48:30Z</time>
  <course>247.04</course>
  <speed>0.022360679774997897</speed>
  <fix>3d</fix>
</trkpt>
<trkpt lat="40.0713749" lon="-105.229789">
  <ele>1583.0</ele>
  <time>2026-08-28T17:48:30Z</time>
  <course>0.0</course>
  <speed>0.0</speed>
  <fix>3d</fix>
</trkpt>
<trkpt lat="40.071375" lon="-105.2297889">
  <ele>1582.92</ele>
  <time>2026-08-28T17:48:30Z</time>
  <course>247.04</course>
  <speed>0.022360679774997897</speed>
  <fix>3d</fix>
</trkpt>
<trkpt lat="40.0713749" lon="-105.229789">
  <ele>1583.0</ele>
  <time>2026-08-28T17:48:30Z</time>
  <course>0.0</course>
  <speed>0.0</speed>
  <fix>3d</fix>
</trkpt>
<trkpt lat="40.071375" lon="-105.2297889">
  <ele>1582.92</ele>
  <time>2026-08-28T17:48:30Z</time>
  <course>247.04</course>
  <speed>0.022360679774997897</speed>
  <fix>3d</fix>
</trkpt>
<trkpt lat="40.0713749" lon="-105.229789">
  <ele>1583.0</ele>
  <time>2026-08-28T17:48:30Z</time>
  <course>0.0</course>
  <speed>0.0</speed>
  <fix>3d</fix>
</trkpt>
<trkpt lat="40.071375" lon="-105.2297889">
  <ele>1582.92</ele>
  <time>2026-08-28T17:48:30Z</time>
  <course>247.04</course>
  <speed>0.022360679774997897</speed>
  <fix>3d</fix>
</trkpt>
<trkpt lat="40.0713749" lon="-105.229789">
  <ele>1583.0</ele>
  <time>2026-08-28T17:48:30Z</time>
  <course>0.0</course>
  <speed>0.0</speed>
  <fix>3d</fix>
</trkpt>
<trkpt lat="40.071375" lon="-105.2297889">
  <ele>1582.93</ele>
  <time>2026-08-28T17:48:30Z</time>
  <course>247.04</course>
  <speed>0.022360679774997897</speed>
  <fix>3d</fix>
</trkpt>
<trkpt lat="40.0713749" lon="-105.229789">
  <ele>1583.0</ele>
  <time>2026-08-28T17:48:30Z</time>
  <course>0.0</course>
  <speed>0.0</speed>
  <fix>3d</fix>
</trkpt>
<trkpt lat="40.071375" lon="-105.2297889">
  <ele>1582.93</ele>
  <time>2026-08-28T17:48:30Z</time>
  <course>247.04</course>
  <speed>0.022360679774997897</speed>
  <fix>3d</fix>
</trkpt>
<trkpt lat="40.0713749" lon="-105.229789">
  <ele>1583.0</ele>
  <time>2026-08-28T17:48:30Z</time>
  <course>0.0</course>
  <speed>0.0</speed>
  <fix>3d</fix>
</trkpt>
<trkpt lat="40.071375" lon="-105.2297889">
  <ele>1582.93</ele>
  <time>2026-08-28T17:48:30Z</time>
  <course>247.04</course>
  <speed>0.022360679774997897</speed>
  <fix>3d</fix>
</trkpt>
<trkpt lat="40.0713749" lon="-105.229789">
  <ele>1583.0</ele>
  <time>2026-08-28T17:48:30Z</time>
  <course>0.0</course>
  <speed>0.0</speed>
  <fix>3d</fix>
</trkpt>
<trkpt lat="40.071375" lon="-105.2297889">
  <ele>1582.93</ele>
  <time>2026-08-28T17:48:30Z</time>
  <course>247.04</course>
  <speed>0.022360679774997897</speed>
  <fix>3d</fix>
</trkpt>
<trkpt lat="40.0713749" lon="-105.229789">
  <ele>1583.0</ele>
  <time>2026-08-28T17:48:30Z</time>
  <course>0.0</course>
  <speed>0.0</speed>
  <fix>3d</fix>
</trkpt>
<trkpt lat="40.0713751" lon="-105.2297889">
  <ele>1582.94</ele>
  <time>2026-08-28T17:48:30Z</time>
  <course>247.04</course>
  <speed>0.022360679774997897</speed>
  <fix>3d</fix>
</trkpt>
<trkpt lat="40.0713749" lon="-105.229789">
  <ele>1583.0</ele>
  <time>2026-08-28T17:48:30Z</time>
  <course>0.0</course>
  <speed>0.0</speed>
  <fix>3d</fix>
</trkpt>
<trkpt lat="40.071375" lon="-105.2297889">
  <ele>1582.94</ele>
  <time>2026-08-28T17:48:30Z</time>
  <course>247.04</course>
  <speed>0.022360679774997897</speed>
  <fix>3d</fix>
</trkpt>
<trkpt lat="40.0713749" lon="-105.229789">
  <ele>1583.0</ele>
  <time>2026-08-28T17:48:30Z</time>
  <course>0.0</course>
  <speed>0.0</speed>
  <fix>3d</fix>
</trkpt>
<trkpt lat="40.0713751" lon="-105.2297889">
  <ele>1582.95</ele>
  <time>2026-08-28T17:48:30Z</time>
  <course>247.04</course>
  <speed>0.022360679774997897</speed>
  <fix>3d</fix>
</trkpt>
<trkpt lat="40.0713749" lon="-105.229789">
  <ele>1583.0</ele>
  <time>2026-08-28T17:48:30Z</time>
  <course>0.0</course>
  <speed>0.0</speed>
  <fix>3d</fix>
</trkpt>
<trkpt lat="40.0713751" lon="-105.2297889">
  <ele>1582.95</ele>
  <time>2026-08-28T17:48:30Z</time>
  <course>247.04</course>
  <speed>0.022360679774997897</speed>
  <fix>3d</fix>
</trkpt>
<trkpt lat="40.0713749" lon="-105.229789">
  <ele>1583.0</ele>
  <time>2026-08-28T17:48:30Z</time>
  <course>0.0</course>
  <speed>0.0</speed>
  <fix>3d</fix>
</trkpt>
<trkpt lat="40.0713751" lon="-105.2297889">
  <ele>1582.95</ele>
  <time>2026-08-28T17:48:30Z</time>
  <course>247.04</course>
  <speed>0.022360679774997897</speed>
  <fix>3d</fix>
</trkpt>
<trkpt lat="40.0713749" lon="-105.229789">
  <ele>1583.0</ele>
  <time>2026-08-28T17:48:30Z</time>
  <course>0.0</course>
  <speed>0.0</speed>
  <fix>3d</fix>
</trkpt>
<trkpt lat="40.0713751" lon="-105.2297889">
  <ele>1582.95</ele>
  <time>2026-08-28T17:48:30Z</time>
  <course>247.04</course>
  <speed>0.022360679774997897</speed>
  <fix>3d</fix>
</trkpt>
<trkpt lat="40.0713749" lon="-105.229789">
  <ele>1583.0</ele>
  <time>2026-08-28T17:48:30Z</time>
  <course>0.0</course>
  <speed>0.0</speed>
  <fix>3d</fix>
</trkpt>
<trkpt lat="40.0713751" lon="-105.2297889">
  <ele>1582.95</ele>
  <time>2026-08-28T17:48:30Z</time>
  <course>247.04</course>
  <speed>0.022360679774997897</speed>
  <fix>3d</fix>
</trkpt>
<trkpt lat="40.0713749" lon="-105.229789">
  <ele>1583.0</ele>
  <time>2026-08-28T17:48:30Z</time>
  <course>0.0</course>
  <speed>0.0</speed>
  <fix>3d</fix>
</trkpt>
<trkpt lat="40.0713751" lon="-105.2297889">
  <ele>1582.96</ele>
  <time>2026-08-28T17:48:30Z</time>
  <course>247.04</course>
  <speed>0.022360679774997897</speed>
  <fix>3d</fix>
</trkpt>
<trkpt lat="40.0713749" lon="-105.229789">
  <ele>1583.0</ele>
  <time>2026-08-28T17:48:30Z</time>
  <course>0.0</course>
  <speed>0.0</speed>
  <fix>3d</fix>
</trkpt>
<trkpt lat="40.0713751" lon="-105.2297889">
  <ele>1582.96</ele>
  <time>2026-08-28T17:48:30Z</time>
  <course>247.04</course>
  <speed>0.0316227766016838</speed>
  <fix>3d</fix>
</trkpt>
<trkpt lat="40.0713749" lon="-105.229789">
  <ele>1583.0</ele>
  <time>2026-08-28T17:48:30Z</time>
  <course>0.0</course>
  <speed>0.0</speed>
  <fix>3d</fix>
</trkpt>
<trkpt lat="40.0713751" lon="-105.2297889">
  <ele>1582.96</ele>
  <time>2026-08-28T17:48:30Z</time>
  <course>247.04</course>
  <speed>0.0316227766016838</speed>
  <fix>3d</fix>
</trkpt>
<trkpt lat="40.0713749" lon="-105.229789">
  <ele>1583.0</ele>
  <time>2026-08-28T17:48:30Z</time>
  <course>0.0</course>
  <speed>0.0</speed>
  <fix>3d</fix>
</trkpt>
<trkpt lat="40.0713751" lon="-105.2297889">
  <ele>1582.96</ele>
  <time>2026-08-28T17:48:30Z</time>
  <course>247.04</course>
  <speed>0.0316227766016838</speed>
  <fix>3d</fix>
</trkpt>
<trkpt lat="40.0713749" lon="-105.229789">
  <ele>1583.0</ele>
  <time>2026-08-28T17:48:30Z</time>
  <course>0.0</course>
  <speed>0.0</speed>
  <fix>3d</fix>
</trkpt>
<trkpt lat="40.0713751" lon="-105.2297889">
  <ele>1582.96</ele>
  <time>2026-08-28T17:48:30Z</time>
  <course>247.04</course>
  <speed>0.0316227766016838</speed>
  <fix>3d</fix>
</trkpt>
<trkpt lat="40.0713749" lon="-105.229789">
  <ele>1583.0</ele>
  <time>2026-08-28T17:48:30Z</time>
  <course>0.0</course>
  <speed>0.0</speed>
  <fix>3d</fix>
</trkpt>
<trkpt lat="40.0713751" lon="-105.2297889">
  <ele>1582.96</ele>
  <time>2026-08-28T17:48:30Z</time>
  <course>247.04</course>
  <speed>0.0316227766016838</speed>
  <fix>3d</fix>
</trkpt>
<trkpt lat="40.0713749" lon="-105.229789">
  <ele>1583.0</ele>
  <time>2026-08-28T17:48:30Z</time>
  <course>0.0</course>
  <speed>0.0</speed>
  <fix>3d</fix>
</trkpt>
<trkpt lat="40.0713751" lon="-105.2297889">
  <ele>1582.95</ele>
  <time>2026-08-28T17:48:30Z</time>
  <course>247.04</course>
  <speed>0.0316227766016838</speed>
  <fix>3d</fix>
</trkpt>
<trkpt lat="40.0713749" lon="-105.229789">
  <ele>1583.0</ele>
  <time>2026-08-28T17:48:30Z</time>
  <course>0.0</course>
  <speed>0.0</speed>
  <fix>3d</fix>
</trkpt>
<trkpt lat="40.0713751" lon="-105.2297889">
  <ele>1582.95</ele>
  <time>2026-08-28T17:48:30Z</time>
  <course>247.04</course>
  <speed>0.0316227766016838</speed>
  <fix>3d</fix>
</trkpt>
<trkpt lat="40.0713749" lon="-105.229789">
  <ele>1583.0</ele>
  <time>2026-08-28T17:48:30Z</time>
  <course>0.0</course>
  <speed>0.0</speed>
  <fix>3d</fix>
</trkpt>
<trkpt lat="40.0713751" lon="-105.2297889">
  <ele>1582.96</ele>
  <time>2026-08-28T17:48:30Z</time>
  <course>247.04</course>
  <speed>0.0316227766016838</speed>
  <fix>3d</fix>
</trkpt>
<trkpt lat="40.0713749" lon="-105.229789">
  <ele>1583.0</ele>
  <time>2026-08-28T17:48:30Z</time>
  <course>0.0</course>
  <speed>0.0</speed>
  <fix>3d</fix>
</trkpt>
<trkpt lat="40.0713751" lon="-105.2297889">
  <ele>1582.96</ele>
  <time>2026-08-28T17:48:30Z</time>
  <course>247.04</course>
  <speed>0.0316227766016838</speed>
  <fix>3d</fix>
</trkpt>
<trkpt lat="40.0713749" lon="-105.229789">
  <ele>1583.0</ele>
  <time>2026-08-28T17:48:30Z</time>
  <course>0.0</course>
  <speed>0.0</speed>
  <fix>3d</fix>
</trkpt>
<trkpt lat="40.0713751" lon="-105.2297889">
  <ele>1582.97</ele>
  <time>2026-08-28T17:48:30Z</time>
  <course>247.04</course>
  <speed>0.0316227766016838</speed>
  <fix>3d</fix>
</trkpt>
<trkpt lat="40.0713749" lon="-105.229789">
  <ele>1583.0</ele>
  <time>2026-08-28T17:48:30Z</time>
  <course>0.0</course>
  <speed>0.0</speed>
  <fix>3d</fix>
</trkpt>
<trkpt lat="40.0713751" lon="-105.2297889">
  <ele>1582.98</ele>
  <time>2026-08-28T17:48:30Z</time>
  <course>247.04</course>
  <speed>0.0316227766016838</speed>
  <fix>3d</fix>
</trkpt>
<trkpt lat="40.0713749" lon="-105.229789">
  <ele>1583.0</ele>
  <time>2026-08-28T17:48:30Z</time>
  <course>0.0</course>
  <speed>0.0</speed>
  <fix>3d</fix>
</trkpt>
<trkpt lat="40.0713751" lon="-105.2297889">
  <ele>1583.0</ele>
  <time>2026-08-28T17:48:30Z</time>
  <course>247.04</course>
  <speed>0.0316227766016838</speed>
  <fix>3d</fix>
</trkpt>
<trkpt lat="40.0713749" lon="-105.229789">
  <ele>1583.0</ele>
  <time>2026-08-28T17:48:30Z</time>
  <course>0.0</course>
  <speed>0.0</speed>
  <fix>3d</fix>
</trkpt>
<trkpt lat="40.0713751" lon="-105.2297889">
  <ele>1583.01</ele>
  <time>2026-08-28T17:48:30Z</time>
  <course>247.04</course>
  <speed>0.0316227766016838</speed>
  <fix>3d</fix>
</trkpt>
<trkpt lat="40.0713749" lon="-105.229789">
  <ele>1583.0</ele>
  <time>2026-08-28T17:48:30Z</time>
  <course>0.0</course>
  <speed>0.0</speed>
  <fix>3d</fix>
</trkpt>
<trkpt lat="40.0713751" lon="-105.2297889">
  <ele>1583.02</ele>
  <time>2026-08-28T17:48:30Z</time>
  <course>247.04</course>
  <speed>0.0316227766016838</speed>
  <fix>3d</fix>
</trkpt>
<trkpt lat="40.0713749" lon="-105.229789">
  <ele>1583.0</ele>
  <time>2026-08-28T17:48:30Z</time>
  <course>0.0</course>
  <speed>0.0</speed>
  <fix>3d</fix>
</trkpt>
<trkpt lat="40.0713751" lon="-105.2297889">
  <ele>1583.03</ele>
  <time>2026-08-28T17:48:30Z</time>
  <course>247.04</course>
  <speed>0.0316227766016838</speed>
  <fix>3d</fix>
</trkpt>
<trkpt lat="40.0713749" lon="-105.229789">
  <ele>1583.0</ele>
  <time>2026-08-28T17:48:30Z</time>
  <course>0.0</course>
  <speed>0.0</speed>
  <fix>3d</fix>
</trkpt>
<trkpt lat="40.0713751" lon="-105.2297889">
  <ele>1583.04</ele>
  <time>2026-08-28T17:48:30Z</time>
  <course>247.04</course>
  <speed>0.0316227766016838</speed>
  <fix>3d</fix>
</trkpt>
<trkpt lat="40.0713749" lon="-105.229789">
  <ele>1583.0</ele>
  <time>2026-08-28T17:48:30Z</time>
  <course>0.0</course>
  <speed>0.0</speed>
  <fix>3d</fix>
</trkpt>
<trkpt lat="40.0713751" lon="-105.2297889">
  <ele>1583.04</ele>
  <time>2026-08-28T17:48:30Z</time>
  <course>247.04</course>
  <speed>0.0316227766016838</speed>
  <fix>3d</fix>
</trkpt>
<trkpt lat="40.0713749" lon="-105.229789">
  <ele>1583.0</ele>
  <time>2026-08-28T17:48:30Z</time>
  <course>0.0</course>
  <speed>0.0</speed>
  <fix>3d</fix>
</trkpt>
<trkpt lat="40.0713751" lon="-105.2297889">
  <ele>1583.05</ele>
  <time>2026-08-28T17:48:30Z</time>
  <course>247.04</course>
  <speed>0.0316227766016838</speed>
  <fix>3d</fix>
</trkpt>
<trkpt lat="40.0713749" lon="-105.229789">
  <ele>1583.0</ele>
  <time>2026-08-28T17:48:30Z</time>
  <course>0.0</course>
  <speed>0.0</speed>
  <fix>3d</fix>
</trkpt>
<trkpt lat="40.0713751" lon="-105.2297889">
  <ele>1583.05</ele>
  <time>2026-08-28T17:48:30Z</time>
  <course>247.04</course>
  <speed>0.0316227766016838</speed>
  <fix>3d</fix>
</trkpt>
<trkpt lat="40.0713749" lon="-105.229789">
  <ele>1583.0</ele>
  <time>2026-08-28T17:48:30Z</time>
  <course>0.0</course>
  <speed>0.0</speed>
  <fix>3d</fix>
</trkpt>
<trkpt lat="40.0713751" lon="-105.2297889">
  <ele>1583.05</ele>
  <time>2026-08-28T17:48:30Z</time>
  <course>247.04</course>
  <speed>0.0316227766016838</speed>
  <fix>3d</fix>
</trkpt>
<trkpt lat="40.0713749" lon="-105.229789">
  <ele>1583.0</ele>
  <time>2026-08-28T17:48:30Z</time>
  <course>0.0</course>
  <speed>0.0</speed>
  <fix>3d</fix>
</trkpt>
<trkpt lat="40.0713751" lon="-105.2297889">
  <ele>1583.06</ele>
  <time>2026-08-28T17:48:30Z</time>
  <course>247.04</course>
  <speed>0.0316227766016838</speed>
  <fix>3d</fix>
</trkpt>
<trkpt lat="40.0713749" lon="-105.229789">
  <ele>1583.0</ele>
  <time>2026-08-28T17:48:30Z</time>
  <course>0.0</course>
  <speed>0.0</speed>
  <fix>3d</fix>
</trkpt>
<trkpt lat="40.0713751" lon="-105.2297889">
  <ele>1583.06</ele>
  <time>2026-08-28T17:48:30Z</time>
  <course>247.04</course>
  <speed>0.0316227766016838</speed>
  <fix>3d</fix>
</trkpt>
<trkpt lat="40.0713749" lon="-105.229789">
  <ele>1583.0</ele>
  <time>2026-08-28T17:48:30Z</time>
  <course>0.0</course>
  <speed>0.0</speed>
  <fix>3d</fix>
</trkpt>
<trkpt lat="40.0713751" lon="-105.2297889">
  <ele>1583.06</ele>
  <time>2026-08-28T17:48:30Z</time>
  <course>247.04</course>
  <speed>0.0316227766016838</speed>
  <fix>3d</fix>
</trkpt>
<trkpt lat="40.0713749" lon="-105.229789">
  <ele>1583.0</ele>
  <time>2026-08-28T17:48:30Z</time>
  <course>0.0</course>
  <speed>0.0</speed>
  <fix>3d</fix>
</trkpt>
<trkpt lat="40.0713751" lon="-105.2297889">
  <ele>1583.06</ele>
  <time>2026-08-28T17:48:30Z</time>
  <course>247.04</course>
  <speed>0.0316227766016838</speed>
  <fix>3d</fix>
</trkpt>
<trkpt lat="40.0713749" lon="-105.229789">
  <ele>1583.0</ele>
  <time>2026-08-28T17:48:30Z</time>
  <course>0.0</course>
  <speed>0.0</speed>
  <fix>3d</fix>
</trkpt>
<trkpt lat="40.0713751" lon="-105.2297889">
  <ele>1583.06</ele>
  <time>2026-08-28T17:48:30Z</time>
  <course>247.04</course>
  <speed>0.0316227766016838</speed>
  <fix>3d</fix>
</trkpt>
<trkpt lat="40.0713749" lon="-105.229789">
  <ele>1583.0</ele>
  <time>2026-08-28T17:48:30Z</time>
  <course>0.0</course>
  <speed>0.0</speed>
  <fix>3d</fix>
</trkpt>
<trkpt lat="40.0713751" lon="-105.2297889">
  <ele>1583.06</ele>
  <time>2026-08-28T17:48:30Z</time>
  <course>247.04</course>
  <speed>0.0316227766016838</speed>
  <fix>3d</fix>
</trkpt>
<trkpt lat="40.0713749" lon="-105.229789">
  <ele>1583.0</ele>
  <time>2026-08-28T17:48:30Z</time>
  <course>0.0</course>
  <speed>0.0</speed>
  <fix>3d</fix>
</trkpt>
<trkpt lat="40.0713751" lon="-105.2297889">
  <ele>1583.06</ele>
  <time>2026-08-28T17:48:30Z</time>
  <course>247.04</course>
  <speed>0.0316227766016838</speed>
  <fix>3d</fix>
</trkpt>
<trkpt lat="40.0713749" lon="-105.229789">
  <ele>1583.0</ele>
  <time>2026-08-28T17:48:30Z</time>
  <course>0.0</course>
  <speed>0.0</speed>
  <fix>3d</fix>
</trkpt>
<trkpt lat="40.0713751" lon="-105.2297889">
  <ele>1583.06</ele>
  <time>2026-08-28T17:48:30Z</time>
  <course>247.04</course>
  <speed>0.0316227766016838</speed>
  <fix>3d</fix>
</trkpt>
<trkpt lat="40.0713749" lon="-105.229789">
  <ele>1583.0</ele>
  <time>2026-08-28T17:48:30Z</time>
  <course>0.0</course>
  <speed>0.0</speed>
  <fix>3d</fix>
</trkpt>
<trkpt lat="40.0713751" lon="-105.2297889">
  <ele>1583.06</ele>
  <time>2026-08-28T17:48:30Z</time>
  <course>247.04</course>
  <speed>0.0316227766016838</speed>
  <fix>3d</fix>
</trkpt>
<trkpt lat="40.0713749" lon="-105.229789">
  <ele>1583.0</ele>
  <time>2026-08-28T17:48:30Z</time>
  <course>0.0</course>
  <speed>0.0</speed>
  <fix>3d</fix>
</trkpt>
<trkpt lat="40.0713751" lon="-105.2297889">
  <ele>1583.07</ele>
  <time>2026-08-28T17:48:30Z</time>
  <course>247.04</course>
  <speed>0.0316227766016838</speed>
  <fix>3d</fix>
</trkpt>
<trkpt lat="40.0713749" lon="-105.229789">
  <ele>1583.0</ele>
  <time>2026-08-28T17:48:30Z</time>
  <course>0.0</course>
  <speed>0.0</speed>
  <fix>3d</fix>
</trkpt>
<trkpt lat="40.0713751" lon="-105.2297889">
  <ele>1583.07</ele>
  <time>2026-08-28T17:48:30Z</time>
  <course>247.04</course>
  <speed>0.0316227766016838</speed>
  <fix>3d</fix>
</trkpt>
<trkpt lat="40.0713749" lon="-105.229789">
  <ele>1583.0</ele>
  <time>2026-08-28T17:48:30Z</time>
  <course>0.0</course>
  <speed>0.0</speed>
  <fix>3d</fix>
</trkpt>
<trkpt lat="40.0713751" lon="-105.2297889">
  <ele>1583.07</ele>
  <time>2026-08-28T17:48:30Z</time>
  <course>247.04</course>
  <speed>0.0316227766016838</speed>
  <fix>3d</fix>
</trkpt>
<trkpt lat="40.0713749" lon="-105.229789">
  <ele>1583.0</ele>
  <time>2026-08-28T17:48:30Z</time>
  <course>0.0</course>
  <speed>0.0</speed>
  <fix>3d</fix>
</trkpt>
<trkpt lat="40.0713751" lon="-105.2297889">
  <ele>1583.08</ele>
  <time>2026-08-28T17:48:30Z</time>
  <course>247.04</course>
  <speed>0.0316227766016838</speed>
  <fix>3d</fix>
</trkpt>
<trkpt lat="40.0713749" lon="-105.229789">
  <ele>1583.0</ele>
  <time>2026-08-28T17:48:30Z</time>
  <course>0.0</course>
  <speed>0.0</speed>
  <fix>3d</fix>
</trkpt>
<trkpt lat="40.0713751" lon="-105.2297889">
  <ele>1583.08</ele>
  <time>2026-08-28T17:48:30Z</time>
  <course>247.04</course>
  <speed>0.0316227766016838</speed>
  <fix>3d</fix>
</trkpt>
<trkpt lat="40.0713749" lon="-105.229789">
  <ele>1583.0</ele>
  <time>2026-08-28T17:48:30Z</time>
  <course>0.0</course>
  <speed>0.0</speed>
  <fix>3d</fix>
</trkpt>
<trkpt lat="40.0713751" lon="-105.2297889">
  <ele>1583.09</ele>
  <time>2026-08-28T17:48:30Z</time>
  <course>247.04</course>
  <speed>0.0316227766016838</speed>
  <fix>3d</fix>
</trkpt>
<trkpt lat="40.0713749" lon="-105.229789">
  <ele>1583.0</ele>
  <time>2026-08-28T17:48:30Z</time>
  <course>0.0</course>
  <speed>0.0</speed>
  <fix>3d</fix>
</trkpt>
<trkpt lat="40.0713751" lon="-105.2297889">
  <ele>1583.09</ele>
  <time>2026-08-28T17:48:30Z</time>
  <course>247.04</course>
  <speed>0.0316227766016838</speed>
  <fix>3d</fix>
</trkpt>
<trkpt lat="40.0713749" lon="-105.229789">
  <ele>1583.0</ele>
  <time>2026-08-28T17:48:30Z</time>
  <course>0.0</course>
  <speed>0.0</speed>
  <fix>3d</fix>
</trkpt>
<trkpt lat="40.0713751" lon="-105.2297889">
  <ele>1583.1</ele>
  <time>2026-08-28T17:48:30Z</time>
  <course>247.04</course>
  <speed>0.0316227766016838</speed>
  <fix>3d</fix>
</trkpt>
<trkpt lat="40.0713749" lon="-105.229789">
  <ele>1583.0</ele>
  <time>2026-08-28T17:48:30Z</time>
  <course>0.0</course>
  <speed>0.0</speed>
  <fix>3d</fix>
</trkpt>
<trkpt lat="40.0713751" lon="-105.2297889">
  <ele>1583.1</ele>
  <time>2026-08-28T17:48:30Z</time>
  <course>247.04</course>
  <speed>0.0316227766016838</speed>
  <fix>3d</fix>
</trkpt>
<trkpt lat="40.0713749" lon="-105.229789">
  <ele>1583.0</ele>
  <time>2026-08-28T17:48:30Z</time>
  <course>0.0</course>
  <speed>0.0</speed>
  <fix>3d</fix>
</trkpt>
<trkpt lat="40.0713751" lon="-105.2297889">
  <ele>1583.1</ele>
  <time>2026-08-28T17:48:30Z</time>
  <course>247.04</course>
  <speed>0.0316227766016838</speed>
  <fix>3d</fix>
</trkpt>
<trkpt lat="40.0713749" lon="-105.229789">
  <ele>1583.0</ele>
  <time>2026-08-28T17:48:30Z</time>
  <course>0.0</course>
  <speed>0.0</speed>
  <fix>3d</fix>
</trkpt>
<trkpt lat="40.0713751" lon="-105.2297889">
  <ele>1583.1</ele>
  <time>2026-08-28T17:48:30Z</time>
  <course>247.04</course>
  <speed>0.0316227766016838</speed>
  <fix>3d</fix>
</trkpt>
<trkpt lat="40.0713749" lon="-105.229789">
  <ele>1583.0</ele>
  <time>2026-08-28T17:48:30Z</time>
  <course>0.0</course>
  <speed>0.0</speed>
  <fix>3d</fix>
</trkpt>
<trkpt lat="40.0713751" lon="-105.2297889">
  <ele>1583.1</ele>
  <time>2026-08-28T17:48:30Z</time>
  <course>247.05</course>
  <speed>0.0316227766016838</speed>
  <fix>3d</fix>
</trkpt>
<trkpt lat="40.0713749" lon="-105.229789">
  <ele>1583.0</ele>
  <time>2026-08-28T17:48:30Z</time>
  <course>0.0</course>
  <speed>0.0</speed>
  <fix>3d</fix>
</trkpt>
<trkpt lat="40.0713751" lon="-105.2297889">
  <ele>1583.1</ele>
  <time>2026-08-28T17:48:30Z</time>
  <course>247.05</course>
  <speed>0.0316227766016838</speed>
  <fix>3d</fix>
</trkpt>
<trkpt lat="40.0713749" lon="-105.229789">
  <ele>1583.0</ele>
  <time>2026-08-28T17:48:30Z</time>
  <course>0.0</course>
  <speed>0.0</speed>
  <fix>3d</fix>
</trkpt>
<trkpt lat="40.0713751" lon="-105.2297889">
  <ele>1583.1</ele>
  <time>2026-08-28T17:48:30Z</time>
  <course>247.05</course>
  <speed>0.0316227766016838</speed>
  <fix>3d</fix>
</trkpt>
<trkpt lat="40.0713749" lon="-105.229789">
  <ele>1583.0</ele>
  <time>2026-08-28T17:48:30Z</time>
  <course>0.0</course>
  <speed>0.0</speed>
  <fix>3d</fix>
</trkpt>
<trkpt lat="40.0713751" lon="-105.2297889">
  <ele>1583.09</ele>
  <time>2026-08-28T17:48:30Z</time>
  <course>247.05</course>
  <speed>0.0316227766016838</speed>
  <fix>3d</fix>
</trkpt>
<trkpt lat="40.0713749" lon="-105.229789">
  <ele>1583.0</ele>
  <time>2026-08-28T17:48:30Z</time>
  <course>0.0</course>
  <speed>0.0</speed>
  <fix>3d</fix>
</trkpt>
<trkpt lat="40.0713751" lon="-105.2297889">
  <ele>1583.09</ele>
  <time>2026-08-28T17:48:30Z</time>
  <course>247.05</course>
  <speed>0.0316227766016838</speed>
  <fix>3d</fix>
</trkpt>
<trkpt lat="40.0713749" lon="-105.229789">
  <ele>1583.0</ele>
  <time>2026-08-28T17:48:30Z</time>
  <course>0.0</course>
  <speed>0.0</speed>
  <fix>3d</fix>
</trkpt>
<trkpt lat="40.0713751" lon="-105.2297889">
  <ele>1583.08</ele>
  <time>2026-08-28T17:48:30Z</time>
  <course>247.05</course>
  <speed>0.0316227766016838</speed>
  <fix>3d</fix>
</trkpt>
<trkpt lat="40.0713749" lon="-105.229789">
  <ele>1583.0</ele>
  <time>2026-08-28T17:48:30Z</time>
  <course>0.0</course>
  <speed>0.0</speed>
  <fix>3d</fix>
</trkpt>
<trkpt lat="40.0713751" lon="-105.2297889">
  <ele>1583.07</ele>
  <time>2026-08-28T17:48:30Z</time>
  <course>247.05</course>
  <speed>0.0316227766016838</speed>
  <fix>3d</fix>
</trkpt>
<trkpt lat="40.0713749" lon="-105.229789">
  <ele>1583.0</ele>
  <time>2026-08-28T17:48:30Z</time>
  <course>0.0</course>
  <speed>0.0</speed>
  <fix>3d</fix>
</trkpt>
<trkpt lat="40.0713751" lon="-105.2297889">
  <ele>1583.07</ele>
  <time>2026-08-28T17:48:30Z</time>
  <course>247.05</course>
  <speed>0.0316227766016838</speed>
  <fix>3d</fix>
</trkpt>
<trkpt lat="40.0713749" lon="-105.229789">
  <ele>1583.0</ele>
  <time>2026-08-28T17:48:30Z</time>
  <course>0.0</course>
  <speed>0.0</speed>
  <fix>3d</fix>
</trkpt>
<trkpt lat="40.0713751" lon="-105.2297889">
  <ele>1583.07</ele>
  <time>2026-08-28T17:48:30Z</time>
  <course>247.05</course>
  <speed>0.0316227766016838</speed>
  <fix>3d</fix>
</trkpt>
<trkpt lat="40.0713749" lon="-105.229789">
  <ele>1583.0</ele>
  <time>2026-08-28T17:48:30Z</time>
  <course>0.0</course>
  <speed>0.0</speed>
  <fix>3d</fix>
</trkpt>
<trkpt lat="40.0713751" lon="-105.2297889">
  <ele>1583.07</ele>
  <time>2026-08-28T17:48:30Z</time>
  <course>247.05</course>
  <speed>0.0316227766016838</speed>
  <fix>3d</fix>
</trkpt>
<trkpt lat="40.0713749" lon="-105.229789">
  <ele>1583.0</ele>
  <time>2026-08-28T17:48:30Z</time>
  <course>0.0</course>
  <speed>0.0</speed>
  <fix>3d</fix>
</trkpt>
<trkpt lat="40.0713751" lon="-105.2297889">
  <ele>1583.07</ele>
  <time>2026-08-28T17:48:30Z</time>
  <course>247.05</course>
  <speed>0.0316227766016838</speed>
  <fix>3d</fix>
</trkpt>
<trkpt lat="40.0713749" lon="-105.229789">
  <ele>1583.0</ele>
  <time>2026-08-28T17:48:30Z</time>
  <course>0.0</course>
  <speed>0.0</speed>
  <fix>3d</fix>
</trkpt>
<trkpt lat="40.0713751" lon="-105.2297889">
  <ele>1583.07</ele>
  <time>2026-08-28T17:48:30Z</time>
  <course>247.05</course>
  <speed>0.0316227766016838</speed>
  <fix>3d</fix>
</trkpt>
<trkpt lat="40.0713749" lon="-105.229789">
  <ele>1583.0</ele>
  <time>2026-08-28T17:48:30Z</time>
  <course>0.0</course>
  <speed>0.0</speed>
  <fix>3d</fix>
</trkpt>
<trkpt lat="40.0713751" lon="-105.2297889">
  <ele>1583.07</ele>
  <time>2026-08-28T17:48:30Z</time>
  <course>247.05</course>
  <speed>0.0316227766016838</speed>
  <fix>3d</fix>
</trkpt>
<trkpt lat="40.0713749" lon="-105.229789">
  <ele>1583.0</ele>
  <time>2026-08-28T17:48:30Z</time>
  <course>0.0</course>
  <speed>0.0</speed>
  <fix>3d</fix>
</trkpt>
<trkpt lat="40.0713751" lon="-105.2297889">
  <ele>1583.07</ele>
  <time>2026-08-28T17:48:30Z</time>
  <course>247.05</course>
  <speed>0.0316227766016838</speed>
  <fix>3d</fix>
</trkpt>
<trkpt lat="40.0713749" lon="-105.229789">
  <ele>1583.0</ele>
  <time>2026-08-28T17:48:30Z</time>
  <course>0.0</course>
  <speed>0.0</speed>
  <fix>3d</fix>
</trkpt>
<trkpt lat="40.0713751" lon="-105.2297889">
  <ele>1583.07</ele>
  <time>2026-08-28T17:48:30Z</time>
  <course>247.05</course>
  <speed>0.0316227766016838</speed>
  <fix>3d</fix>
</trkpt>
<trkpt lat="40.0713749" lon="-105.229789">
  <ele>1583.0</ele>
  <time>2026-08-28T17:48:30Z</time>
  <course>0.0</course>
  <speed>0.0</speed>
  <fix>3d</fix>
</trkpt>
<trkpt lat="40.0713751" lon="-105.2297889">
  <ele>1583.07</ele>
  <time>2026-08-28T17:48:30Z</time>
  <course>247.05</course>
  <speed>0.0316227766016838</speed>
  <fix>3d</fix>
</trkpt>
<trkpt lat="40.0713749" lon="-105.229789">
  <ele>1583.0</ele>
  <time>2026-08-28T17:48:30Z</time>
  <course>0.0</course>
  <speed>0.0</speed>
  <fix>3d</fix>
</trkpt>
<trkpt lat="40.0713751" lon="-105.2297889">
  <ele>1583.08</ele>
  <time>2026-08-28T17:48:30Z</time>
  <course>247.05</course>
  <speed>0.0316227766016838</speed>
  <fix>3d</fix>
</trkpt>
<trkpt lat="40.0713749" lon="-105.229789">
  <ele>1583.0</ele>
  <time>2026-08-28T17:48:30Z</time>
  <course>0.0</course>
  <speed>0.0</speed>
  <fix>3d</fix>
</trkpt>
<trkpt lat="40.0713751" lon="-105.2297889">
  <ele>1583.08</ele>
  <time>2026-08-28T17:48:30Z</time>
  <course>247.05</course>
  <speed>0.0316227766016838</speed>
  <fix>3d</fix>
</trkpt>
<trkpt lat="40.0713749" lon="-105.229789">
  <ele>1583.0</ele>
  <time>2026-08-28T17:48:30Z</time>
  <course>0.0</course>
  <speed>0.0</speed>
  <fix>3d</fix>
</trkpt>
<trkpt lat="40.0713751" lon="-105.2297889">
  <ele>1583.08</ele>
  <time>2026-08-28T17:48:30Z</time>
  <course>247.05</course>
  <speed>0.0316227766016838</speed>
  <fix>3d</fix>
</trkpt>
<trkpt lat="40.0713749" lon="-105.229789">
  <ele>1583.0</ele>
  <time>2026-08-28T17:48:30Z</time>
  <course>0.0</course>
  <speed>0.0</speed>
  <fix>3d</fix>
</trkpt>
<trkpt lat="40.0713751" lon="-105.2297889">
  <ele>1583.09</ele>
  <time>2026-08-28T17:48:30Z</time>
  <course>247.05</course>
  <speed>0.0316227766016838</speed>
  <fix>3d</fix>
</trkpt>
<trkpt lat="40.0713749" lon="-105.229789">
  <ele>1583.0</ele>
  <time>2026-08-28T17:48:30Z</time>
  <course>0.0</course>
  <speed>0.0</speed>
  <fix>3d</fix>
</trkpt>
<trkpt lat="40.0713751" lon="-105.2297889">
  <ele>1583.09</ele>
  <time>2026-08-28T17:48:30Z</time>
  <course>247.05</course>
  <speed>0.0316227766016838</speed>
  <fix>3d</fix>
</trkpt>
<trkpt lat="40.0713749" lon="-105.229789">
  <ele>1583.0</ele>
  <time>2026-08-28T17:48:30Z</time>
  <course>0.0</course>
  <speed>0.0</speed>
  <fix>3d</fix>
</trkpt>
<trkpt lat="40.0713751" lon="-105.2297889">
  <ele>1583.1</ele>
  <time>2026-08-28T17:48:30Z</time>
  <course>247.05</course>
  <speed>0.0316227766016838</speed>
  <fix>3d</fix>
</trkpt>
<trkpt lat="40.0713749" lon="-105.229789">
  <ele>1583.0</ele>
  <time>2026-08-28T17:48:30Z</time>
  <course>0.0</course>
  <speed>0.0</speed>
  <fix>3d</fix>
</trkpt>
<trkpt lat="40.0713751" lon="-105.2297889">
  <ele>1583.1</ele>
  <time>2026-08-28T17:48:30Z</time>
  <course>247.05</course>
  <speed>0.0316227766016838</speed>
  <fix>3d</fix>
</trkpt>
<trkpt lat="40.0713749" lon="-105.229789">
  <ele>1583.0</ele>
  <time>2026-08-28T17:48:30Z</time>
  <course>0.0</course>
  <speed>0.0</speed>
  <fix>3d</fix>
</trkpt>
<trkpt lat="40.0713751" lon="-105.2297889">
  <ele>1583.11</ele>
  <time>2026-08-28T17:48:30Z</time>
  <course>247.05</course>
  <speed>0.0316227766016838</speed>
  <fix>3d</fix>
</trkpt>
<trkpt lat="40.0713749" lon="-105.229789">
  <ele>1583.0</ele>
  <time>2026-08-28T17:48:30Z</time>
  <course>0.0</course>
  <speed>0.0</speed>
  <fix>3d</fix>
</trkpt>
<trkpt lat="40.0713751" lon="-105.2297889">
  <ele>1583.11</ele>
  <time>2026-08-28T17:48:30Z</time>
  <course>247.05</course>
  <speed>0.0316227766016838</speed>
  <fix>3d</fix>
</trkpt>
<trkpt lat="40.0713749" lon="-105.229789">
  <ele>1583.0</ele>
  <time>2026-08-28T17:48:30Z</time>
  <course>0.0</course>
  <speed>0.0</speed>
  <fix>3d</fix>
</trkpt>
<trkpt lat="40.0713751" lon="-105.2297889">
  <ele>1583.11</ele>
  <time>2026-08-28T17:48:30Z</time>
  <course>247.05</course>
  <speed>0.0316227766016838</speed>
  <fix>3d</fix>
</trkpt>
<trkpt lat="40.0713749" lon="-105.229789">
  <ele>1583.0</ele>
  <time>2026-08-28T17:48:30Z</time>
  <course>0.0</course>
  <speed>0.0</speed>
  <fix>3d</fix>
</trkpt>
<trkpt lat="40.0713751" lon="-105.2297889">
  <ele>1583.11</ele>
  <time>2026-08-28T17:48:30Z</time>
  <course>247.05</course>
  <speed>0.0316227766016838</speed>
  <fix>3d</fix>
</trkpt>
<trkpt lat="40.0713749" lon="-105.229789">
  <ele>1583.0</ele>
  <time>2026-08-28T17:48:30Z</time>
  <course>0.0</course>
  <speed>0.0</speed>
  <fix>3d</fix>
</trkpt>
<trkpt lat="40.0713751" lon="-105.2297889">
  <ele>1583.11</ele>
  <time>2026-08-28T17:48:30Z</time>
  <course>247.05</course>
  <speed>0.0316227766016838</speed>
  <fix>3d</fix>
</trkpt>
<trkpt lat="40.0713749" lon="-105.229789">
  <ele>1583.0</ele>
  <time>2026-08-28T17:48:30Z</time>
  <course>0.0</course>
  <speed>0.0</speed>
  <fix>3d</fix>
</trkpt>
<trkpt lat="40.0713751" lon="-105.2297889">
  <ele>1583.11</ele>
  <time>2026-08-28T17:48:30Z</time>
  <course>247.05</course>
  <speed>0.0316227766016838</speed>
  <fix>3d</fix>
</trkpt>
<trkpt lat="40.0713749" lon="-105.229789">
  <ele>1583.0</ele>
  <time>2026-08-28T17:48:30Z</time>
  <course>0.0</course>
  <speed>0.0</speed>
  <fix>3d</fix>
</trkpt>
<trkpt lat="40.0713751" lon="-105.2297889">
  <ele>1583.11</ele>
  <time>2026-08-28T17:48:30Z</time>
  <course>247.05</course>
  <speed>0.0316227766016838</speed>
  <fix>3d</fix>
</trkpt>
<trkpt lat="40.0713749" lon="-105.229789">
  <ele>1583.0</ele>
  <time>2026-08-28T17:48:30Z</time>
  <course>0.0</course>
  <speed>0.0</speed>
  <fix>3d</fix>
</trkpt>
<trkpt lat="40.0713751" lon="-105.2297889">
  <ele>1583.11</ele>
  <time>2026-08-28T17:48:30Z</time>
  <course>247.05</course>
  <speed>0.0316227766016838</speed>
  <fix>3d</fix>
</trkpt>
<trkpt lat="40.0713749" lon="-105.229789">
  <ele>1583.0</ele>
  <time>2026-08-28T17:48:30Z</time>
  <course>0.0</course>
  <speed>0.0</speed>
  <fix>3d</fix>
</trkpt>
<trkpt lat="40.0713751" lon="-105.2297889">
  <ele>1583.12</ele>
  <time>2026-08-28T17:48:30Z</time>
  <course>247.05</course>
  <speed>0.022360679774997897</speed>
  <fix>3d</fix>
</trkpt>
<trkpt lat="40.0713749" lon="-105.229789">
  <ele>1583.0</ele>
  <time>2026-08-28T17:48:30Z</time>
  <course>0.0</course>
  <speed>0.0</speed>
  <fix>3d</fix>
</trkpt>
<trkpt lat="40.0713751" lon="-105.2297889">
  <ele>1583.12</ele>
  <time>2026-08-28T17:48:30Z</time>
  <course>247.05</course>
  <speed>0.0316227766016838</speed>
  <fix>3d</fix>
</trkpt>
<trkpt lat="40.0713749" lon="-105.229789">
  <ele>1583.0</ele>
  <time>2026-08-28T17:48:30Z</time>
  <course>0.0</course>
  <speed>0.0</speed>
  <fix>3d</fix>
</trkpt>
<trkpt lat="40.0713751" lon="-105.2297889">
  <ele>1583.12</ele>
  <time>2026-08-28T17:48:30Z</time>
  <course>247.05</course>
  <speed>0.022360679774997897</speed>
  <fix>3d</fix>
</trkpt>
<trkpt lat="40.0713749" lon="-105.229789">
  <ele>1583.0</ele>
  <time>2026-08-28T17:48:30Z</time>
  <course>0.0</course>
  <speed>0.0</speed>
  <fix>3d</fix>
</trkpt>
<trkpt lat="40.0713751" lon="-105.2297889">
  <ele>1583.12</ele>
  <time>2026-08-28T17:48:30Z</time>
  <course>247.05</course>
  <speed>0.0316227766016838</speed>
  <fix>3d</fix>
</trkpt>
<trkpt lat="40.0713749" lon="-105.229789">
  <ele>1583.0</ele>
  <time>2026-08-28T17:48:30Z</time>
  <course>0.0</course>
  <speed>0.0</speed>
  <fix>3d</fix>
</trkpt>
<trkpt lat="40.0713751" lon="-105.2297889">
  <ele>1583.12</ele>
  <time>2026-08-28T17:48:30Z</time>
  <course>247.05</course>
  <speed>0.022360679774997897</speed>
  <fix>3d</fix>
</trkpt>
<trkpt lat="40.0713749" lon="-105.229789">
  <ele>1583.0</ele>
  <time>2026-08-28T17:48:30Z</time>
  <course>0.0</course>
  <speed>0.0</speed>
  <fix>3d</fix>
</trkpt>
<trkpt lat="40.0713751" lon="-105.2297889">
  <ele>1583.12</ele>
  <time>2026-08-28T17:48:30Z</time>
  <course>247.05</course>
  <speed>0.0316227766016838</speed>
  <fix>3d</fix>
</trkpt>
<trkpt lat="40.0713749" lon="-105.229789">
  <ele>1583.0</ele>
  <time>2026-08-28T17:48:30Z</time>
  <course>0.0</course>
  <speed>0.0</speed>
  <fix>3d</fix>
</trkpt>
<trkpt lat="40.0713751" lon="-105.2297889">
  <ele>1583.11</ele>
  <time>2026-08-28T17:48:30Z</time>
  <course>247.05</course>
  <speed>0.022360679774997897</speed>
  <fix>3d</fix>
</trkpt>
<trkpt lat="40.0713749" lon="-105.229789">
  <ele>1583.0</ele>
  <time>2026-08-28T17:48:30Z</time>
  <course>0.0</course>
  <speed>0.0</speed>
  <fix>3d</fix>
</trkpt>
<trkpt lat="40.0713751" lon="-105.2297889">
  <ele>1583.11</ele>
  <time>2026-08-28T17:48:30Z</time>
  <course>247.05</course>
  <speed>0.022360679774997897</speed>
  <fix>3d</fix>
</trkpt>
<trkpt lat="40.0713749" lon="-105.229789">
  <ele>1583.0</ele>
  <time>2026-08-28T17:48:30Z</time>
  <course>0.0</course>
  <speed>0.0</speed>
  <fix>3d</fix>
</trkpt>
<trkpt lat="40.0713751" lon="-105.2297889">
  <ele>1583.1</ele>
  <time>2026-08-28T17:48:30Z</time>
  <course>247.05</course>
  <speed>0.022360679774997897</speed>
  <fix>3d</fix>
</trkpt>
<trkpt lat="40.0713749" lon="-105.229789">
  <ele>1583.0</ele>
  <time>2026-08-28T17:48:30Z</time>
  <course>0.0</course>
  <speed>0.0</speed>
  <fix>3d</fix>
</trkpt>
<trkpt lat="40.0713751" lon="-105.2297889">
  <ele>1583.09</ele>
  <time>2026-08-28T17:48:30Z</time>
  <course>247.05</course>
  <speed>0.022360679774997897</speed>
  <fix>3d</fix>
</trkpt>
<trkpt lat="40.0713749" lon="-105.229789">
  <ele>1583.0</ele>
  <time>2026-08-28T17:48:30Z</time>
  <course>0.0</course>
  <speed>0.0</speed>
  <fix>3d</fix>
</trkpt>
<trkpt lat="40.0713751" lon="-105.2297889">
  <ele>1583.09</ele>
  <time>2026-08-28T17:48:30Z</time>
  <course>247.05</course>
  <speed>0.022360679774997897</speed>
  <fix>3d</fix>
</trkpt>
<trkpt lat="40.0713749" lon="-105.229789">
  <ele>1583.0</ele>
  <time>2026-08-28T17:48:30Z</time>
  <course>0.0</course>
  <speed>0.0</speed>
  <fix>3d</fix>
</trkpt>
<trkpt lat="40.0713751" lon="-105.2297889">
  <ele>1583.08</ele>
  <time>2026-08-28T17:48:30Z</time>
  <course>247.05</course>
  <speed>0.022360679774997897</speed>
  <fix>3d</fix>
</trkpt>
<trkpt lat="40.0713749" lon="-105.229789">
  <ele>1583.0</ele>
  <time>2026-08-28T17:48:30Z</time>
  <course>0.0</course>
  <speed>0.0</speed>
  <fix>3d</fix>
</trkpt>
<trkpt lat="40.0713751" lon="-105.2297889">
  <ele>1583.07</ele>
  <time>2026-08-28T17:48:30Z</time>
  <course>247.05</course>
  <speed>0.022360679774997897</speed>
  <fix>3d</fix>
</trkpt>
<trkpt lat="40.0713749" lon="-105.229789">
  <ele>1583.0</ele>
  <time>2026-08-28T17:48:30Z</time>
  <course>0.0</course>
  <speed>0.0</speed>
  <fix>3d</fix>
</trkpt>
<trkpt lat="40.0713751" lon="-105.2297889">
  <ele>1583.06</ele>
  <time>2026-08-28T17:48:30Z</time>
  <course>247.05</course>
  <speed>0.022360679774997897</speed>
  <fix>3d</fix>
</trkpt>
<trkpt lat="40.0713749" lon="-105.229789">
  <ele>1583.0</ele>
  <time>2026-08-28T17:48:30Z</time>
  <course>0.0</course>
  <speed>0.0</speed>
  <fix>3d</fix>
</trkpt>
<trkpt lat="40.0713751" lon="-105.2297889">
  <ele>1583.05</ele>
  <time>2026-08-28T17:48:30Z</time>
  <course>247.05</course>
  <speed>0.022360679774997897</speed>
  <fix>3d</fix>
</trkpt>
<trkpt lat="40.0713749" lon="-105.229789">
  <ele>1583.0</ele>
  <time>2026-08-28T17:48:30Z</time>
  <course>0.0</course>
  <speed>0.0</speed>
  <fix>3d</fix>
</trkpt>
<trkpt lat="40.0713751" lon="-105.2297889">
  <ele>1583.05</ele>
  <time>2026-08-28T17:48:30Z</time>
  <course>247.05</course>
  <speed>0.022360679774997897</speed>
  <fix>3d</fix>
</trkpt>
<trkpt lat="40.0713749" lon="-105.229789">
  <ele>1583.0</ele>
  <time>2026-08-28T17:48:30Z</time>
  <course>0.0</course>
  <speed>0.0</speed>
  <fix>3d</fix>
</trkpt>
<trkpt lat="40.0713751" lon="-105.2297889">
  <ele>1583.04</ele>
  <time>2026-08-28T17:48:30Z</time>
  <course>247.05</course>
  <speed>0.022360679774997897</speed>
  <fix>3d</fix>
</trkpt>
<trkpt lat="40.0713749" lon="-105.229789">
  <ele>1583.0</ele>
  <time>2026-08-28T17:48:30Z</time>
  <course>0.0</course>
  <speed>0.0</speed>
  <fix>3d</fix>
</trkpt>
<trkpt lat="40.0713751" lon="-105.2297889">
  <ele>1583.04</ele>
  <time>2026-08-28T17:48:30Z</time>
  <course>247.05</course>
  <speed>0.022360679774997897</speed>
  <fix>3d</fix>
</trkpt>
<trkpt lat="40.0713749" lon="-105.229789">
  <ele>1583.0</ele>
  <time>2026-08-28T17:48:30Z</time>
  <course>0.0</course>
  <speed>0.0</speed>
  <fix>3d</fix>
</trkpt>
<trkpt lat="40.0713751" lon="-105.2297889">
  <ele>1583.05</ele>
  <time>2026-08-28T17:48:30Z</time>
  <course>247.05</course>
  <speed>0.022360679774997897</speed>
  <fix>3d</fix>
</trkpt>
<trkpt lat="40.0713749" lon="-105.229789">
  <ele>1583.0</ele>
  <time>2026-08-28T17:48:30Z</time>
  <course>0.0</course>
  <speed>0.0</speed>
  <fix>3d</fix>
</trkpt>
<trkpt lat="40.0713751" lon="-105.2297889">
  <ele>1583.05</ele>
  <time>2026-08-28T17:48:30Z</time>
  <course>247.05</course>
  <speed>0.022360679774997897</speed>
  <fix>3d</fix>
</trkpt>
<trkpt lat="40.0713749" lon="-105.229789">
  <ele>1583.0</ele>
  <time>2026-08-28T17:48:30Z</time>
  <course>0.0</course>
  <speed>0.0</speed>
  <fix>3d</fix>
</trkpt>
<trkpt lat="40.0713751" lon="-105.2297889">
  <ele>1583.05</ele>
  <time>2026-08-28T17:48:30Z</time>
  <course>247.05</course>
  <speed>0.022360679774997897</speed>
  <fix>3d</fix>
</trkpt>
<trkpt lat="40.0713749" lon="-105.229789">
  <ele>1583.0</ele>
  <time>2026-08-28T17:48:30Z</time>
  <course>0.0</course>
  <speed>0.0</speed>
  <fix>3d</fix>
</trkpt>
<trkpt lat="40.0713751" lon="-105.2297889">
  <ele>1583.05</ele>
  <time>2026-08-28T17:48:30Z</time>
  <course>247.05</course>
  <speed>0.022360679774997897</speed>
  <fix>3d</fix>
</trkpt>
<trkpt lat="40.0713749" lon="-105.229789">
  <ele>1583.0</ele>
  <time>2026-08-28T17:48:30Z</time>
  <course>0.0</course>
  <speed>0.0</speed>
  <fix>3d</fix>
</trkpt>
<trkpt lat="40.0713751" lon="-105.2297889">
  <ele>1583.05</ele>
  <time>2026-08-28T17:48:30Z</time>
  <course>247.05</course>
  <speed>0.022360679774997897</speed>
  <fix>3d</fix>
</trkpt>
<trkpt lat="40.0713749" lon="-105.229789">
  <ele>1583.0</ele>
  <time>2026-08-28T17:48:30Z</time>
  <course>0.0</course>
  <speed>0.0</speed>
  <fix>3d</fix>
</trkpt>
<trkpt lat="40.0713751" lon="-105.2297889">
  <ele>1583.05</ele>
  <time>2026-08-28T17:48:30Z</time>
  <course>247.05</course>
  <speed>0.022360679774997897</speed>
  <fix>3d</fix>
</trkpt>
<trkpt lat="40.0713749" lon="-105.229789">
  <ele>1583.0</ele>
  <time>2026-08-28T17:48:30Z</time>
  <course>0.0</course>
  <speed>0.0</speed>
  <fix>3d</fix>
</trkpt>
<trkpt lat="40.0713751" lon="-105.2297889">
  <ele>1583.05</ele>
  <time>2026-08-28T17:48:30Z</time>
  <course>247.05</course>
  <speed>0.022360679774997897</speed>
  <fix>3d</fix>
</trkpt>
<trkpt lat="40.0713749" lon="-105.229789">
  <ele>1583.0</ele>
  <time>2026-08-28T17:48:30Z</time>
  <course>0.0</course>
  <speed>0.0</speed>
  <fix>3d</fix>
</trkpt>
<trkpt lat="40.0713751" lon="-105.2297889">
  <ele>1583.05</ele>
  <time>2026-08-28T17:48:30Z</time>
  <course>247.05</course>
  <speed>0.022360679774997897</speed>
  <fix>3d</fix>
</trkpt>
<trkpt lat="40.0713749" lon="-105.229789">
  <ele>1583.0</ele>
  <time>2026-08-28T17:48:30Z</time>
  <course>0.0</course>
  <speed>0.0</speed>
  <fix>3d</fix>
</trkpt>
<trkpt lat="40.0713751" lon="-105.2297889">
  <ele>1583.06</ele>
  <time>2026-08-28T17:48:30Z</time>
  <course>247.05</course>
  <speed>0.022360679774997897</speed>
  <fix>3d</fix>
</trkpt>
<trkpt lat="40.0713749" lon="-105.229789">
  <ele>1583.0</ele>
  <time>2026-08-28T17:48:30Z</time>
  <course>0.0</course>
  <speed>0.0</speed>
  <fix>3d</fix>
</trkpt>
<trkpt lat="40.0713751" lon="-105.2297889">
  <ele>1583.06</ele>
  <time>2026-08-28T17:48:30Z</time>
  <course>247.05</course>
  <speed>0.022360679774997897</speed>
  <fix>3d</fix>
</trkpt>
<trkpt lat="40.0713749" lon="-105.229789">
  <ele>1583.0</ele>
  <time>2026-08-28T17:48:30Z</time>
  <course>0.0</course>
  <speed>0.0</speed>
  <fix>3d</fix>
</trkpt>
<trkpt lat="40.0713751" lon="-105.2297889">
  <ele>1583.07</ele>
  <time>2026-08-28T17:48:30Z</time>
  <course>247.05</course>
  <speed>0.022360679774997897</speed>
  <fix>3d</fix>
</trkpt>
<trkpt lat="40.0713749" lon="-105.229789">
  <ele>1583.0</ele>
  <time>2026-08-28T17:48:30Z</time>
  <course>0.0</course>
  <speed>0.0</speed>
  <fix>3d</fix>
</trkpt>
<trkpt lat="40.0713751" lon="-105.2297889">
  <ele>1583.07</ele>
  <time>2026-08-28T17:48:30Z</time>
  <course>247.05</course>
  <speed>0.022360679774997897</speed>
  <fix>3d</fix>
</trkpt>
<trkpt lat="40.0713749" lon="-105.229789">
  <ele>1583.0</ele>
  <time>2026-08-28T17:48:30Z</time>
  <course>0.0</course>
  <speed>0.0</speed>
  <fix>3d</fix>
</trkpt>
<trkpt lat="40.0713751" lon="-105.2297889">
  <ele>1583.08</ele>
  <time>2026-08-28T17:48:30Z</time>
  <course>247.05</course>
  <speed>0.022360679774997897</speed>
  <fix>3d</fix>
</trkpt>
<trkpt lat="40.0713749" lon="-105.229789">
  <ele>1583.0</ele>
  <time>2026-08-28T17:48:30Z</time>
  <course>0.0</course>
  <speed>0.0</speed>
  <fix>3d</fix>
</trkpt>
<trkpt lat="40.0713751" lon="-105.2297889">
  <ele>1583.08</ele>
  <time>2026-08-28T17:48:31Z</time>
  <course>247.05</course>
  <speed>0.022360679774997897</speed>
  <fix>3d</fix>
</trkpt>
<trkpt lat="40.0713749" lon="-105.229789">
  <ele>1583.0</ele>
  <time>2026-08-28T17:48:31Z</time>
  <course>0.0</course>
  <speed>0.0</speed>
  <fix>3d</fix>
</trkpt>
<trkpt lat="40.0713751" lon="-105.2297889">
  <ele>1583.08</ele>
  <time>2026-08-28T17:48:31Z</time>
  <course>247.05</course>
  <speed>0.022360679774997897</speed>
  <fix>3d</fix>
</trkpt>
<trkpt lat="40.0713749" lon="-105.229789">
  <ele>1583.0</ele>
  <time>2026-08-28T17:48:31Z</time>
  <course>0.0</course>
  <speed>0.0</speed>
  <fix>3d</fix>
</trkpt>
<trkpt lat="40.0713751" lon="-105.2297889">
  <ele>1583.09</ele>
  <time>2026-08-28T17:48:31Z</time>
  <course>247.05</course>
  <speed>0.022360679774997897</speed>
  <fix>3d</fix>
</trkpt>
<trkpt lat="40.0713749" lon="-105.229789">
  <ele>1583.0</ele>
  <time>2026-08-28T17:48:31Z</time>
  <course>0.0</course>
  <speed>0.0</speed>
  <fix>3d</fix>
</trkpt>
<trkpt lat="40.0713751" lon="-105.2297889">
  <ele>1583.1</ele>
  <time>2026-08-28T17:48:31Z</time>
  <course>247.05</course>
  <speed>0.022360679774997897</speed>
  <fix>3d</fix>
</trkpt>
<trkpt lat="40.0713749" lon="-105.229789">
  <ele>1583.0</ele>
  <time>2026-08-28T17:48:31Z</time>
  <course>0.0</course>
  <speed>0.0</speed>
  <fix>3d</fix>
</trkpt>
<trkpt lat="40.0713751" lon="-105.2297889">
  <ele>1583.1</ele>
  <time>2026-08-28T17:48:31Z</time>
  <course>247.05</course>
  <speed>0.022360679774997897</speed>
  <fix>3d</fix>
</trkpt>
<trkpt lat="40.0713749" lon="-105.229789">
  <ele>1583.0</ele>
  <time>2026-08-28T17:48:31Z</time>
  <course>0.0</course>
  <speed>0.0</speed>
  <fix>3d</fix>
</trkpt>
<trkpt lat="40.0713751" lon="-105.2297889">
  <ele>1583.09</ele>
  <time>2026-08-28T17:48:31Z</time>
  <course>247.05</course>
  <speed>0.022360679774997897</speed>
  <fix>3d</fix>
</trkpt>
<trkpt lat="40.0713749" lon="-105.229789">
  <ele>1583.0</ele>
  <time>2026-08-28T17:48:31Z</time>
  <course>0.0</course>
  <speed>0.0</speed>
  <fix>3d</fix>
</trkpt>
<trkpt lat="40.0713751" lon="-105.2297889">
  <ele>1583.09</ele>
  <time>2026-08-28T17:48:31Z</time>
  <course>247.05</course>
  <speed>0.022360679774997897</speed>
  <fix>3d</fix>
</trkpt>
<trkpt lat="40.0713749" lon="-105.229789">
  <ele>1583.0</ele>
  <time>2026-08-28T17:48:31Z</time>
  <course>0.0</course>
  <speed>0.0</speed>
  <fix>3d</fix>
</trkpt>
<trkpt lat="40.0713751" lon="-105.2297889">
  <ele>1583.08</ele>
  <time>2026-08-28T17:48:31Z</time>
  <course>247.05</course>
  <speed>0.022360679774997897</speed>
  <fix>3d</fix>
</trkpt>
<trkpt lat="40.0713749" lon="-105.229789">
  <ele>1583.0</ele>
  <time>2026-08-28T17:48:31Z</time>
  <course>0.0</course>
  <speed>0.0</speed>
  <fix>3d</fix>
</trkpt>
<trkpt lat="40.0713751" lon="-105.2297889">
  <ele>1583.07</ele>
  <time>2026-08-28T17:48:31Z</time>
  <course>247.05</course>
  <speed>0.022360679774997897</speed>
  <fix>3d</fix>
</trkpt>
<trkpt lat="40.0713749" lon="-105.229789">
  <ele>1583.0</ele>
  <time>2026-08-28T17:48:31Z</time>
  <course>0.0</course>
  <speed>0.0</speed>
  <fix>3d</fix>
</trkpt>
<trkpt lat="40.0713751" lon="-105.2297889">
  <ele>1583.06</ele>
  <time>2026-08-28T17:48:31Z</time>
  <course>247.05</course>
  <speed>0.022360679774997897</speed>
  <fix>3d</fix>
</trkpt>
<trkpt lat="40.0713749" lon="-105.229789">
  <ele>1583.0</ele>
  <time>2026-08-28T17:48:31Z</time>
  <course>0.0</course>
  <speed>0.0</speed>
  <fix>3d</fix>
</trkpt>
<trkpt lat="40.0713751" lon="-105.2297889">
  <ele>1583.05</ele>
  <time>2026-08-28T17:48:31Z</time>
  <course>247.05</course>
  <speed>0.022360679774997897</speed>
  <fix>3d</fix>
</trkpt>
<trkpt lat="40.0713749" lon="-105.229789">
  <ele>1583.0</ele>
  <time>2026-08-28T17:48:31Z</time>
  <course>0.0</course>
  <speed>0.0</speed>
  <fix>3d</fix>
</trkpt>
<trkpt lat="40.0713751" lon="-105.2297889">
  <ele>1583.04</ele>
  <time>2026-08-28T17:48:31Z</time>
  <course>247.05</course>
  <speed>0.022360679774997897</speed>
  <fix>3d</fix>
</trkpt>
<trkpt lat="40.0713749" lon="-105.229789">
  <ele>1583.0</ele>
  <time>2026-08-28T17:48:31Z</time>
  <course>0.0</course>
  <speed>0.0</speed>
  <fix>3d</fix>
</trkpt>
<trkpt lat="40.0713751" lon="-105.2297889">
  <ele>1583.04</ele>
  <time>2026-08-28T17:48:31Z</time>
  <course>247.05</course>
  <speed>0.022360679774997897</speed>
  <fix>3d</fix>
</trkpt>
<trkpt lat="40.0713749" lon="-105.229789">
  <ele>1583.0</ele>
  <time>2026-08-28T17:48:31Z</time>
  <course>0.0</course>
  <speed>0.0</speed>
  <fix>3d</fix>
</trkpt>
<trkpt lat="40.0713751" lon="-105.2297889">
  <ele>1583.03</ele>
  <time>2026-08-28T17:48:31Z</time>
  <course>247.05</course>
  <speed>0.022360679774997897</speed>
  <fix>3d</fix>
</trkpt>
<trkpt lat="40.0713749" lon="-105.229789">
  <ele>1583.0</ele>
  <time>2026-08-28T17:48:31Z</time>
  <course>0.0</course>
  <speed>0.0</speed>
  <fix>3d</fix>
</trkpt>
<trkpt lat="40.0713751" lon="-105.2297889">
  <ele>1583.03</ele>
  <time>2026-08-28T17:48:31Z</time>
  <course>247.05</course>
  <speed>0.022360679774997897</speed>
  <fix>3d</fix>
</trkpt>
<trkpt lat="40.0713749" lon="-105.229789">
  <ele>1583.0</ele>
  <time>2026-08-28T17:48:31Z</time>
  <course>0.0</course>
  <speed>0.0</speed>
  <fix>3d</fix>
</trkpt>
<trkpt lat="40.0713751" lon="-105.2297889">
  <ele>1583.02</ele>
  <time>2026-08-28T17:48:31Z</time>
  <course>247.05</course>
  <speed>0.022360679774997897</speed>
  <fix>3d</fix>
</trkpt>
<trkpt lat="40.0713749" lon="-105.229789">
  <ele>1583.0</ele>
  <time>2026-08-28T17:48:31Z</time>
  <course>0.0</course>
  <speed>0.0</speed>
  <fix>3d</fix>
</trkpt>
<trkpt lat="40.0713751" lon="-105.2297889">
  <ele>1583.02</ele>
  <time>2026-08-28T17:48:31Z</time>
  <course>247.05</course>
  <speed>0.022360679774997897</speed>
  <fix>3d</fix>
</trkpt>
<trkpt lat="40.0713749" lon="-105.229789">
  <ele>1583.0</ele>
  <time>2026-08-28T17:48:31Z</time>
  <course>0.0</course>
  <speed>0.0</speed>
  <fix>3d</fix>
</trkpt>
<trkpt lat="40.0713751" lon="-105.2297889">
  <ele>1583.02</ele>
  <time>2026-08-28T17:48:31Z</time>
  <course>247.05</course>
  <speed>0.022360679774997897</speed>
  <fix>3d</fix>
</trkpt>
<trkpt lat="40.0713749" lon="-105.229789">
  <ele>1583.0</ele>
  <time>2026-08-28T17:48:31Z</time>
  <course>0.0</course>
  <speed>0.0</speed>
  <fix>3d</fix>
</trkpt>
<trkpt lat="40.0713751" lon="-105.2297889">
  <ele>1583.02</ele>
  <time>2026-08-28T17:48:31Z</time>
  <course>247.05</course>
  <speed>0.022360679774997897</speed>
  <fix>3d</fix>
</trkpt>
<trkpt lat="40.0713749" lon="-105.229789">
  <ele>1583.0</ele>
  <time>2026-08-28T17:48:31Z</time>
  <course>0.0</course>
  <speed>0.0</speed>
  <fix>3d</fix>
</trkpt>
<trkpt lat="40.0713751" lon="-105.2297889">
  <ele>1583.03</ele>
  <time>2026-08-28T17:48:31Z</time>
  <course>247.05</course>
  <speed>0.022360679774997897</speed>
  <fix>3d</fix>
</trkpt>
<trkpt lat="40.0713749" lon="-105.229789">
  <ele>1583.0</ele>
  <time>2026-08-28T17:48:31Z</time>
  <course>0.0</course>
  <speed>0.0</speed>
  <fix>3d</fix>
</trkpt>
<trkpt lat="40.0713751" lon="-105.2297889">
  <ele>1583.03</ele>
  <time>2026-08-28T17:48:31Z</time>
  <course>247.05</course>
  <speed>0.022360679774997897</speed>
  <fix>3d</fix>
</trkpt>
<trkpt lat="40.0713749" lon="-105.229789">
  <ele>1583.0</ele>
  <time>2026-08-28T17:48:31Z</time>
  <course>0.0</course>
  <speed>0.0</speed>
  <fix>3d</fix>
</trkpt>
<trkpt lat="40.0713751" lon="-105.2297889">
  <ele>1583.03</ele>
  <time>2026-08-28T17:48:31Z</time>
  <course>247.05</course>
  <speed>0.022360679774997897</speed>
  <fix>3d</fix>
</trkpt>
<trkpt lat="40.0713749" lon="-105.229789">
  <ele>1583.0</ele>
  <time>2026-08-28T17:48:31Z</time>
  <course>0.0</course>
  <speed>0.0</speed>
  <fix>3d</fix>
</trkpt>
<trkpt lat="40.0713751" lon="-105.2297889">
  <ele>1583.03</ele>
  <time>2026-08-28T17:48:31Z</time>
  <course>247.05</course>
  <speed>0.022360679774997897</speed>
  <fix>3d</fix>
</trkpt>
<trkpt lat="40.0713749" lon="-105.229789">
  <ele>1583.0</ele>
  <time>2026-08-28T17:48:31Z</time>
  <course>0.0</course>
  <speed>0.0</speed>
  <fix>3d</fix>
</trkpt>
<trkpt lat="40.0713751" lon="-105.2297889">
  <ele>1583.03</ele>
  <time>2026-08-28T17:48:31Z</time>
  <course>247.05</course>
  <speed>0.022360679774997897</speed>
  <fix>3d</fix>
</trkpt>
<trkpt lat="40.0713749" lon="-105.229789">
  <ele>1583.0</ele>
  <time>2026-08-28T17:48:31Z</time>
  <course>0.0</course>
  <speed>0.0</speed>
  <fix>3d</fix>
</trkpt>
<trkpt lat="40.0713751" lon="-105.2297889">
  <ele>1583.03</ele>
  <time>2026-08-28T17:48:31Z</time>
  <course>247.05</course>
  <speed>0.022360679774997897</speed>
  <fix>3d</fix>
</trkpt>
<trkpt lat="40.0713749" lon="-105.229789">
  <ele>1583.0</ele>
  <time>2026-08-28T17:48:31Z</time>
  <course>0.0</course>
  <speed>0.0</speed>
  <fix>3d</fix>
</trkpt>
<trkpt lat="40.0713751" lon="-105.2297889">
  <ele>1583.03</ele>
  <time>2026-08-28T17:48:31Z</time>
  <course>247.05</course>
  <speed>0.022360679774997897</speed>
  <fix>3d</fix>
</trkpt>
<trkpt lat="40.0713749" lon="-105.229789">
  <ele>1583.0</ele>
  <time>2026-08-28T17:48:31Z</time>
  <course>0.0</course>
  <speed>0.0</speed>
  <fix>3d</fix>
</trkpt>
<trkpt lat="40.0713751" lon="-105.2297889">
  <ele>1583.02</ele>
  <time>2026-08-28T17:48:31Z</time>
  <course>247.05</course>
  <speed>0.022360679774997897</speed>
  <fix>3d</fix>
</trkpt>
<trkpt lat="40.0713749" lon="-105.229789">
  <ele>1583.0</ele>
  <time>2026-08-28T17:48:31Z</time>
  <course>0.0</course>
  <speed>0.0</speed>
  <fix>3d</fix>
</trkpt>
<trkpt lat="40.0713751" lon="-105.2297889">
  <ele>1583.01</ele>
  <time>2026-08-28T17:48:31Z</time>
  <course>247.05</course>
  <speed>0.022360679774997897</speed>
  <fix>3d</fix>
</trkpt>
<trkpt lat="40.0713749" lon="-105.229789">
  <ele>1583.0</ele>
  <time>2026-08-28T17:48:31Z</time>
  <course>0.0</course>
  <speed>0.0</speed>
  <fix>3d</fix>
</trkpt>
<trkpt lat="40.0713751" lon="-105.2297889">
  <ele>1583.0</ele>
  <time>2026-08-28T17:48:31Z</time>
  <course>247.05</course>
  <speed>0.022360679774997897</speed>
  <fix>3d</fix>
</trkpt>
<trkpt lat="40.0713749" lon="-105.229789">
  <ele>1583.0</ele>
  <time>2026-08-28T17:48:31Z</time>
  <course>0.0</course>
  <speed>0.0</speed>
  <fix>3d</fix>
</trkpt>
<trkpt lat="40.0713751" lon="-105.2297889">
  <ele>1582.99</ele>
  <time>2026-08-28T17:48:31Z</time>
  <course>247.05</course>
  <speed>0.022360679774997897</speed>
  <fix>3d</fix>
</trkpt>
<trkpt lat="40.0713749" lon="-105.229789">
  <ele>1583.0</ele>
  <time>2026-08-28T17:48:31Z</time>
  <course>0.0</course>
  <speed>0.0</speed>
  <fix>3d</fix>
</trkpt>
<trkpt lat="40.0713751" lon="-105.2297889">
  <ele>1582.98</ele>
  <time>2026-08-28T17:48:31Z</time>
  <course>247.05</course>
  <speed>0.022360679774997897</speed>
  <fix>3d</fix>
</trkpt>
<trkpt lat="40.0713749" lon="-105.229789">
  <ele>1583.0</ele>
  <time>2026-08-28T17:48:31Z</time>
  <course>0.0</course>
  <speed>0.0</speed>
  <fix>3d</fix>
</trkpt>
<trkpt lat="40.0713751" lon="-105.2297889">
  <ele>1582.97</ele>
  <time>2026-08-28T17:48:31Z</time>
  <course>247.05</course>
  <speed>0.022360679774997897</speed>
  <fix>3d</fix>
</trkpt>
<trkpt lat="40.0713749" lon="-105.229789">
  <ele>1583.0</ele>
  <time>2026-08-28T17:48:31Z</time>
  <course>0.0</course>
  <speed>0.0</speed>
  <fix>3d</fix>
</trkpt>
<trkpt lat="40.0713751" lon="-105.2297889">
  <ele>1582.96</ele>
  <time>2026-08-28T17:48:31Z</time>
  <course>247.05</course>
  <speed>0.022360679774997897</speed>
  <fix>3d</fix>
</trkpt>
<trkpt lat="40.0713749" lon="-105.229789">
  <ele>1583.0</ele>
  <time>2026-08-28T17:48:31Z</time>
  <course>0.0</course>
  <speed>0.0</speed>
  <fix>3d</fix>
</trkpt>
<trkpt lat="40.0713751" lon="-105.2297889">
  <ele>1582.95</ele>
  <time>2026-08-28T17:48:31Z</time>
  <course>247.05</course>
  <speed>0.022360679774997897</speed>
  <fix>3d</fix>
</trkpt>
<trkpt lat="40.0713749" lon="-105.229789">
  <ele>1583.0</ele>
  <time>2026-08-28T17:48:31Z</time>
  <course>0.0</course>
  <speed>0.0</speed>
  <fix>3d</fix>
</trkpt>
<trkpt lat="40.0713751" lon="-105.2297889">
  <ele>1582.95</ele>
  <time>2026-08-28T17:48:31Z</time>
  <course>247.05</course>
  <speed>0.022360679774997897</speed>
  <fix>3d</fix>
</trkpt>
<trkpt lat="40.0713749" lon="-105.229789">
  <ele>1583.0</ele>
  <time>2026-08-28T17:48:31Z</time>
  <course>0.0</course>
  <speed>0.0</speed>
  <fix>3d</fix>
</trkpt>
<trkpt lat="40.0713751" lon="-105.2297889">
  <ele>1582.94</ele>
  <time>2026-08-28T17:48:31Z</time>
  <course>247.05</course>
  <speed>0.022360679774997897</speed>
  <fix>3d</fix>
</trkpt>
<trkpt lat="40.0713749" lon="-105.229789">
  <ele>1583.0</ele>
  <time>2026-08-28T17:48:31Z</time>
  <course>0.0</course>
  <speed>0.0</speed>
  <fix>3d</fix>
</trkpt>
<trkpt lat="40.0713751" lon="-105.2297889">
  <ele>1582.94</ele>
  <time>2026-08-28T17:48:31Z</time>
  <course>247.05</course>
  <speed>0.022360679774997897</speed>
  <fix>3d</fix>
</trkpt>
<trkpt lat="40.0713749" lon="-105.229789">
  <ele>1583.0</ele>
  <time>2026-08-28T17:48:31Z</time>
  <course>0.0</course>
  <speed>0.0</speed>
  <fix>3d</fix>
</trkpt>
<trkpt lat="40.0713751" lon="-105.2297889">
  <ele>1582.93</ele>
  <time>2026-08-28T17:48:31Z</time>
  <course>247.06</course>
  <speed>0.022360679774997897</speed>
  <fix>3d</fix>
</trkpt>
<trkpt lat="40.0713749" lon="-105.229789">
  <ele>1583.0</ele>
  <time>2026-08-28T17:48:31Z</time>
  <course>0.0</course>
  <speed>0.0</speed>
  <fix>3d</fix>
</trkpt>
<trkpt lat="40.0713751" lon="-105.2297889">
  <ele>1582.92</ele>
  <time>2026-08-28T17:48:31Z</time>
  <course>247.06</course>
  <speed>0.022360679774997897</speed>
  <fix>3d</fix>
</trkpt>
<trkpt lat="40.0713749" lon="-105.229789">
  <ele>1583.0</ele>
  <time>2026-08-28T17:48:31Z</time>
  <course>0.0</course>
  <speed>0.0</speed>
  <fix>3d</fix>
</trkpt>
<trkpt lat="40.0713751" lon="-105.2297889">
  <ele>1582.92</ele>
  <time>2026-08-28T17:48:31Z</time>
  <course>247.06</course>
  <speed>0.022360679774997897</speed>
  <fix>3d</fix>
</trkpt>
<trkpt lat="40.0713749" lon="-105.229789">
  <ele>1583.0</ele>
  <time>2026-08-28T17:48:31Z</time>
  <course>0.0</course>
  <speed>0.0</speed>
  <fix>3d</fix>
</trkpt>
<trkpt lat="40.0713751" lon="-105.2297889">
  <ele>1582.91</ele>
  <time>2026-08-28T17:48:31Z</time>
  <course>247.06</course>
  <speed>0.022360679774997897</speed>
  <fix>3d</fix>
</trkpt>
<trkpt lat="40.0713749" lon="-105.229789">
  <ele>1583.0</ele>
  <time>2026-08-28T17:48:31Z</time>
  <course>0.0</course>
  <speed>0.0</speed>
  <fix>3d</fix>
</trkpt>
<trkpt lat="40.0713751" lon="-105.2297889">
  <ele>1582.9</ele>
  <time>2026-08-28T17:48:31Z</time>
  <course>247.06</course>
  <speed>0.022360679774997897</speed>
  <fix>3d</fix>
</trkpt>
<trkpt lat="40.0713749" lon="-105.229789">
  <ele>1583.0</ele>
  <time>2026-08-28T17:48:31Z</time>
  <course>0.0</course>
  <speed>0.0</speed>
  <fix>3d</fix>
</trkpt>
<trkpt lat="40.0713751" lon="-105.2297889">
  <ele>1582.9</ele>
  <time>2026-08-28T17:48:31Z</time>
  <course>247.06</course>
  <speed>0.022360679774997897</speed>
  <fix>3d</fix>
</trkpt>
<trkpt lat="40.0713749" lon="-105.229789">
  <ele>1583.0</ele>
  <time>2026-08-28T17:48:31Z</time>
  <course>0.0</course>
  <speed>0.0</speed>
  <fix>3d</fix>
</trkpt>
<trkpt lat="40.0713751" lon="-105.2297889">
  <ele>1582.89</ele>
  <time>2026-08-28T17:48:31Z</time>
  <course>247.06</course>
  <speed>0.022360679774997897</speed>
  <fix>3d</fix>
</trkpt>
<trkpt lat="40.0713749" lon="-105.229789">
  <ele>1583.0</ele>
  <time>2026-08-28T17:48:31Z</time>
  <course>0.0</course>
  <speed>0.0</speed>
  <fix>3d</fix>
</trkpt>
<trkpt lat="40.0713751" lon="-105.2297889">
  <ele>1582.89</ele>
  <time>2026-08-28T17:48:31Z</time>
  <course>247.06</course>
  <speed>0.022360679774997897</speed>
  <fix>3d</fix>
</trkpt>
<trkpt lat="40.0713749" lon="-105.229789">
  <ele>1583.0</ele>
  <time>2026-08-28T17:48:31Z</time>
  <course>0.0</course>
  <speed>0.0</speed>
  <fix>3d</fix>
</trkpt>
<trkpt lat="40.0713751" lon="-105.2297889">
  <ele>1582.88</ele>
  <time>2026-08-28T17:48:31Z</time>
  <course>247.06</course>
  <speed>0.022360679774997897</speed>
  <fix>3d</fix>
</trkpt>
<trkpt lat="40.0713749" lon="-105.229789">
  <ele>1583.0</ele>
  <time>2026-08-28T17:48:31Z</time>
  <course>0.0</course>
  <speed>0.0</speed>
  <fix>3d</fix>
</trkpt>
<trkpt lat="40.0713751" lon="-105.2297889">
  <ele>1582.88</ele>
  <time>2026-08-28T17:48:31Z</time>
  <course>247.06</course>
  <speed>0.022360679774997897</speed>
  <fix>3d</fix>
</trkpt>
<trkpt lat="40.0713749" lon="-105.229789">
  <ele>1583.0</ele>
  <time>2026-08-28T17:48:31Z</time>
  <course>0.0</course>
  <speed>0.0</speed>
  <fix>3d</fix>
</trkpt>
<trkpt lat="40.0713751" lon="-105.2297889">
  <ele>1582.88</ele>
  <time>2026-08-28T17:48:31Z</time>
  <course>247.06</course>
  <speed>0.022360679774997897</speed>
  <fix>3d</fix>
</trkpt>
<trkpt lat="40.0713749" lon="-105.229789">
  <ele>1583.0</ele>
  <time>2026-08-28T17:48:31Z</time>
  <course>0.0</course>
  <speed>0.0</speed>
  <fix>3d</fix>
</trkpt>
<trkpt lat="40.0713751" lon="-105.2297889">
  <ele>1582.87</ele>
  <time>2026-08-28T17:48:31Z</time>
  <course>247.06</course>
  <speed>0.022360679774997897</speed>
  <fix>3d</fix>
</trkpt>
<trkpt lat="40.0713749" lon="-105.229789">
  <ele>1583.0</ele>
  <time>2026-08-28T17:48:31Z</time>
  <course>0.0</course>
  <speed>0.0</speed>
  <fix>3d</fix>
</trkpt>
<trkpt lat="40.0713751" lon="-105.2297889">
  <ele>1582.87</ele>
  <time>2026-08-28T17:48:31Z</time>
  <course>247.06</course>
  <speed>0.022360679774997897</speed>
  <fix>3d</fix>
</trkpt>
<trkpt lat="40.0713749" lon="-105.229789">
  <ele>1583.0</ele>
  <time>2026-08-28T17:48:31Z</time>
  <course>0.0</course>
  <speed>0.0</speed>
  <fix>3d</fix>
</trkpt>
<trkpt lat="40.0713751" lon="-105.2297889">
  <ele>1582.87</ele>
  <time>2026-08-28T17:48:31Z</time>
  <course>247.06</course>
  <speed>0.022360679774997897</speed>
  <fix>3d</fix>
</trkpt>
<trkpt lat="40.0713749" lon="-105.229789">
  <ele>1583.0</ele>
  <time>2026-08-28T17:48:31Z</time>
  <course>0.0</course>
  <speed>0.0</speed>
  <fix>3d</fix>
</trkpt>
<trkpt lat="40.0713751" lon="-105.2297889">
  <ele>1582.87</ele>
  <time>2026-08-28T17:48:31Z</time>
  <course>247.06</course>
  <speed>0.02</speed>
  <fix>3d</fix>
</trkpt>
<trkpt lat="40.0713749" lon="-105.229789">
  <ele>1583.0</ele>
  <time>2026-08-28T17:48:31Z</time>
  <course>0.0</course>
  <speed>0.0</speed>
  <fix>3d</fix>
</trkpt>
<trkpt lat="40.0713751" lon="-105.2297889">
  <ele>1582.86</ele>
  <time>2026-08-28T17:48:31Z</time>
  <course>247.06</course>
  <speed>0.02</speed>
  <fix>3d</fix>
</trkpt>
<trkpt lat="40.0713749" lon="-105.229789">
  <ele>1583.0</ele>
  <time>2026-08-28T17:48:31Z</time>
  <course>0.0</course>
  <speed>0.0</speed>
  <fix>3d</fix>
</trkpt>
<trkpt lat="40.0713751" lon="-105.2297889">
  <ele>1582.86</ele>
  <time>2026-08-28T17:48:31Z</time>
  <course>247.06</course>
  <speed>0.02</speed>
  <fix>3d</fix>
</trkpt>
<trkpt lat="40.0713749" lon="-105.229789">
  <ele>1583.0</ele>
  <time>2026-08-28T17:48:31Z</time>
  <course>0.0</course>
  <speed>0.0</speed>
  <fix>3d</fix>
</trkpt>
<trkpt lat="40.0713751" lon="-105.2297889">
  <ele>1582.86</ele>
  <time>2026-08-28T17:48:31Z</time>
  <course>247.06</course>
  <speed>0.02</speed>
  <fix>3d</fix>
</trkpt>
<trkpt lat="40.0713749" lon="-105.229789">
  <ele>1583.0</ele>
  <time>2026-08-28T17:48:31Z</time>
  <course>0.0</course>
  <speed>0.0</speed>
  <fix>3d</fix>
</trkpt>
<trkpt lat="40.0713751" lon="-105.2297889">
  <ele>1582.86</ele>
  <time>2026-08-28T17:48:31Z</time>
  <course>247.06</course>
  <speed>0.02</speed>
  <fix>3d</fix>
</trkpt>
<trkpt lat="40.0713749" lon="-105.229789">
  <ele>1583.0</ele>
  <time>2026-08-28T17:48:31Z</time>
  <course>0.0</course>
  <speed>0.0</speed>
  <fix>3d</fix>
</trkpt>
<trkpt lat="40.0713751" lon="-105.2297889">
  <ele>1582.86</ele>
  <time>2026-08-28T17:48:31Z</time>
  <course>247.06</course>
  <speed>0.02</speed>
  <fix>3d</fix>
</trkpt>
<trkpt lat="40.0713749" lon="-105.229789">
  <ele>1583.0</ele>
  <time>2026-08-28T17:48:31Z</time>
  <course>0.0</course>
  <speed>0.0</speed>
  <fix>3d</fix>
</trkpt>
<trkpt lat="40.0713751" lon="-105.2297889">
  <ele>1582.86</ele>
  <time>2026-08-28T17:48:31Z</time>
  <course>247.06</course>
  <speed>0.02</speed>
  <fix>3d</fix>
</trkpt>
<trkpt lat="40.0713749" lon="-105.229789">
  <ele>1583.0</ele>
  <time>2026-08-28T17:48:31Z</time>
  <course>0.0</course>
  <speed>0.0</speed>
  <fix>3d</fix>
</trkpt>
<trkpt lat="40.0713751" lon="-105.2297889">
  <ele>1582.86</ele>
  <time>2026-08-28T17:48:31Z</time>
  <course>247.06</course>
  <speed>0.02</speed>
  <fix>3d</fix>
</trkpt>
<trkpt lat="40.0713749" lon="-105.229789">
  <ele>1583.0</ele>
  <time>2026-08-28T17:48:31Z</time>
  <course>0.0</course>
  <speed>0.0</speed>
  <fix>3d</fix>
</trkpt>
<trkpt lat="40.0713751" lon="-105.2297889">
  <ele>1582.86</ele>
  <time>2026-08-28T17:48:31Z</time>
  <course>247.06</course>
  <speed>0.01</speed>
  <fix>3d</fix>
</trkpt>
<trkpt lat="40.0713749" lon="-105.229789">
  <ele>1583.0</ele>
  <time>2026-08-28T17:48:31Z</time>
  <course>0.0</course>
  <speed>0.0</speed>
  <fix>3d</fix>
</trkpt>
<trkpt lat="40.0713751" lon="-105.2297889">
  <ele>1582.86</ele>
  <time>2026-08-28T17:48:31Z</time>
  <course>247.06</course>
  <speed>0.01</speed>
  <fix>3d</fix>
</trkpt>
<trkpt lat="40.0713749" lon="-105.229789">
  <ele>1583.0</ele>
  <time>2026-08-28T17:48:31Z</time>
  <course>0.0</course>
  <speed>0.0</speed>
  <fix>3d</fix>
</trkpt>
<trkpt lat="40.0713751" lon="-105.2297889">
  <ele>1582.85</ele>
  <time>2026-08-28T17:48:31Z</time>
  <course>247.06</course>
  <speed>0.01</speed>
  <fix>3d</fix>
</trkpt>
<trkpt lat="40.0713749" lon="-105.229789">
  <ele>1583.0</ele>
  <time>2026-08-28T17:48:31Z</time>
  <course>0.0</course>
  <speed>0.0</speed>
  <fix>3d</fix>
</trkpt>
<trkpt lat="40.0713751" lon="-105.2297889">
  <ele>1582.85</ele>
  <time>2026-08-28T17:48:31Z</time>
  <course>247.06</course>
  <speed>0.01</speed>
  <fix>3d</fix>
</trkpt>
<trkpt lat="40.0713749" lon="-105.229789">
  <ele>1583.0</ele>
  <time>2026-08-28T17:48:31Z</time>
  <course>0.0</course>
  <speed>0.0</speed>
  <fix>3d</fix>
</trkpt>
<trkpt lat="40.0713751" lon="-105.2297889">
  <ele>1582.85</ele>
  <time>2026-08-28T17:48:31Z</time>
  <course>247.06</course>
  <speed>0.01</speed>
  <fix>3d</fix>
</trkpt>
<trkpt lat="40.0713749" lon="-105.229789">
  <ele>1583.0</ele>
  <time>2026-08-28T17:48:31Z</time>
  <course>0.0</course>
  <speed>0.0</speed>
  <fix>3d</fix>
</trkpt>
<trkpt lat="40.0713751" lon="-105.2297889">
  <ele>1582.85</ele>
  <time>2026-08-28T17:48:31Z</time>
  <course>247.06</course>
  <speed>0.01</speed>
  <fix>3d</fix>
</trkpt>
<trkpt lat="40.0713749" lon="-105.229789">
  <ele>1583.0</ele>
  <time>2026-08-28T17:48:31Z</time>
  <course>0.0</course>
  <speed>0.0</speed>
  <fix>3d</fix>
</trkpt>
<trkpt lat="40.0713751" lon="-105.2297889">
  <ele>1582.85</ele>
  <time>2026-08-28T17:48:31Z</time>
  <course>247.06</course>
  <speed>0.01</speed>
  <fix>3d</fix>
</trkpt>
<trkpt lat="40.0713749" lon="-105.229789">
  <ele>1583.0</ele>
  <time>2026-08-28T17:48:31Z</time>
  <course>0.0</course>
  <speed>0.0</speed>
  <fix>3d</fix>
</trkpt>
<trkpt lat="40.0713751" lon="-105.2297889">
  <ele>1582.85</ele>
  <time>2026-08-28T17:48:31Z</time>
  <course>247.06</course>
  <speed>0.01</speed>
  <fix>3d</fix>
</trkpt>
<trkpt lat="40.0713749" lon="-105.229789">
  <ele>1583.0</ele>
  <time>2026-08-28T17:48:31Z</time>
  <course>0.0</course>
  <speed>0.0</speed>
  <fix>3d</fix>
</trkpt>
<trkpt lat="40.0713751" lon="-105.2297889">
  <ele>1582.85</ele>
  <time>2026-08-28T17:48:31Z</time>
  <course>247.06</course>
  <speed>0.01</speed>
  <fix>3d</fix>
</trkpt>
<trkpt lat="40.0713749" lon="-105.229789">
  <ele>1583.0</ele>
  <time>2026-08-28T17:48:31Z</time>
  <course>0.0</course>
  <speed>0.0</speed>
  <fix>3d</fix>
</trkpt>
<trkpt lat="40.0713751" lon="-105.2297889">
  <ele>1582.85</ele>
  <time>2026-08-28T17:48:31Z</time>
  <course>247.06</course>
  <speed>0.01</speed>
  <fix>3d</fix>
</trkpt>
<trkpt lat="40.0713749" lon="-105.229789">
  <ele>1583.0</ele>
  <time>2026-08-28T17:48:31Z</time>
  <course>0.0</course>
  <speed>0.0</speed>
  <fix>3d</fix>
</trkpt>
<trkpt lat="40.0713751" lon="-105.2297889">
  <ele>1582.85</ele>
  <time>2026-08-28T17:48:31Z</time>
  <course>247.06</course>
  <speed>0.01</speed>
  <fix>3d</fix>
</trkpt>
<trkpt lat="40.0713749" lon="-105.229789">
  <ele>1583.0</ele>
  <time>2026-08-28T17:48:31Z</time>
  <course>0.0</course>
  <speed>0.0</speed>
  <fix>3d</fix>
</trkpt>
<trkpt lat="40.0713751" lon="-105.2297889">
  <ele>1582.85</ele>
  <time>2026-08-28T17:48:31Z</time>
  <course>247.06</course>
  <speed>0.01</speed>
  <fix>3d</fix>
</trkpt>
<trkpt lat="40.0713749" lon="-105.229789">
  <ele>1583.0</ele>
  <time>2026-08-28T17:48:31Z</time>
  <course>0.0</course>
  <speed>0.0</speed>
  <fix>3d</fix>
</trkpt>
<trkpt lat="40.0713751" lon="-105.2297889">
  <ele>1582.85</ele>
  <time>2026-08-28T17:48:31Z</time>
  <course>247.06</course>
  <speed>0.01</speed>
  <fix>3d</fix>
</trkpt>
<trkpt lat="40.0713749" lon="-105.229789">
  <ele>1583.0</ele>
  <time>2026-08-28T17:48:31Z</time>
  <course>0.0</course>
  <speed>0.0</speed>
  <fix>3d</fix>
</trkpt>
<trkpt lat="40.0713751" lon="-105.2297889">
  <ele>1582.85</ele>
  <time>2026-08-28T17:48:31Z</time>
  <course>247.06</course>
  <speed>0.01</speed>
  <fix>3d</fix>
</trkpt>
<trkpt lat="40.0713749" lon="-105.229789">
  <ele>1583.0</ele>
  <time>2026-08-28T17:48:31Z</time>
  <course>0.0</course>
  <speed>0.0</speed>
  <fix>3d</fix>
</trkpt>
<trkpt lat="40.0713751" lon="-105.2297889">
  <ele>1582.84</ele>
  <time>2026-08-28T17:48:31Z</time>
  <course>247.06</course>
  <speed>0.01</speed>
  <fix>3d</fix>
</trkpt>
<trkpt lat="40.0713749" lon="-105.229789">
  <ele>1583.0</ele>
  <time>2026-08-28T17:48:31Z</time>
  <course>0.0</course>
  <speed>0.0</speed>
  <fix>3d</fix>
</trkpt>
<trkpt lat="40.0713751" lon="-105.2297889">
  <ele>1582.84</ele>
  <time>2026-08-28T17:48:31Z</time>
  <course>247.06</course>
  <speed>0.01</speed>
  <fix>3d</fix>
</trkpt>
<trkpt lat="40.0713749" lon="-105.229789">
  <ele>1583.0</ele>
  <time>2026-08-28T17:48:31Z</time>
  <course>0.0</course>
  <speed>0.0</speed>
  <fix>3d</fix>
</trkpt>
<trkpt lat="40.0713751" lon="-105.2297889">
  <ele>1582.84</ele>
  <time>2026-08-28T17:48:31Z</time>
  <course>247.06</course>
  <speed>0.01</speed>
  <fix>3d</fix>
</trkpt>
<trkpt lat="40.0713749" lon="-105.229789">
  <ele>1583.0</ele>
  <time>2026-08-28T17:48:31Z</time>
  <course>0.0</course>
  <speed>0.0</speed>
  <fix>3d</fix>
</trkpt>
<trkpt lat="40.0713751" lon="-105.2297889">
  <ele>1582.84</ele>
  <time>2026-08-28T17:48:31Z</time>
  <course>247.06</course>
  <speed>0.01</speed>
  <fix>3d</fix>
</trkpt>
<trkpt lat="40.0713749" lon="-105.229789">
  <ele>1583.0</ele>
  <time>2026-08-28T17:48:31Z</time>
  <course>0.0</course>
  <speed>0.0</speed>
  <fix>3d</fix>
</trkpt>
<trkpt lat="40.0713751" lon="-105.2297889">
  <ele>1582.84</ele>
  <time>2026-08-28T17:48:31Z</time>
  <course>247.06</course>
  <speed>0.01</speed>
  <fix>3d</fix>
</trkpt>
<trkpt lat="40.0713749" lon="-105.229789">
  <ele>1583.0</ele>
  <time>2026-08-28T17:48:31Z</time>
  <course>0.0</course>
  <speed>0.0</speed>
  <fix>3d</fix>
</trkpt>
<trkpt lat="40.0713751" lon="-105.2297889">
  <ele>1582.84</ele>
  <time>2026-08-28T17:48:31Z</time>
  <course>247.06</course>
  <speed>0.01</speed>
  <fix>3d</fix>
</trkpt>
<trkpt lat="40.0713749" lon="-105.229789">
  <ele>1583.0</ele>
  <time>2026-08-28T17:48:31Z</time>
  <course>0.0</course>
  <speed>0.0</speed>
  <fix>3d</fix>
</trkpt>
<trkpt lat="40.071375" lon="-105.2297889">
  <ele>1582.84</ele>
  <time>2026-08-28T17:48:31Z</time>
  <course>247.06</course>
  <speed>0.01</speed>
  <fix>3d</fix>
</trkpt>
<trkpt lat="40.0713749" lon="-105.229789">
  <ele>1583.0</ele>
  <time>2026-08-28T17:48:31Z</time>
  <course>0.0</course>
  <speed>0.0</speed>
  <fix>3d</fix>
</trkpt>
<trkpt lat="40.0713751" lon="-105.2297889">
  <ele>1582.84</ele>
  <time>2026-08-28T17:48:31Z</time>
  <course>247.06</course>
  <speed>0.01</speed>
  <fix>3d</fix>
</trkpt>
<trkpt lat="40.0713749" lon="-105.229789">
  <ele>1583.0</ele>
  <time>2026-08-28T17:48:31Z</time>
  <course>0.0</course>
  <speed>0.0</speed>
  <fix>3d</fix>
</trkpt>
<trkpt lat="40.071375" lon="-105.2297889">
  <ele>1582.84</ele>
  <time>2026-08-28T17:48:31Z</time>
  <course>247.06</course>
  <speed>0.01</speed>
  <fix>3d</fix>
</trkpt>
<trkpt lat="40.0713749" lon="-105.229789">
  <ele>1583.0</ele>
  <time>2026-08-28T17:48:31Z</time>
  <course>0.0</course>
  <speed>0.0</speed>
  <fix>3d</fix>
</trkpt>
<trkpt lat="40.0713751" lon="-105.2297889">
  <ele>1582.84</ele>
  <time>2026-08-28T17:48:31Z</time>
  <course>247.06</course>
  <speed>0.01</speed>
  <fix>3d</fix>
</trkpt>
<trkpt lat="40.0713749" lon="-105.229789">
  <ele>1583.0</ele>
  <time>2026-08-28T17:48:31Z</time>
  <course>0.0</course>
  <speed>0.0</speed>
  <fix>3d</fix>
</trkpt>
<trkpt lat="40.071375" lon="-105.2297889">
  <ele>1582.84</ele>
  <time>2026-08-28T17:48:31Z</time>
  <course>247.06</course>
  <speed>0.01</speed>
  <fix>3d</fix>
</trkpt>
<trkpt lat="40.0713749" lon="-105.229789">
  <ele>1583.0</ele>
  <time>2026-08-28T17:48:31Z</time>
  <course>0.0</course>
  <speed>0.0</speed>
  <fix>3d</fix>
</trkpt>
<trkpt lat="40.071375" lon="-105.2297889">
  <ele>1582.83</ele>
  <time>2026-08-28T17:48:31Z</time>
  <course>247.06</course>
  <speed>0.01</speed>
  <fix>3d</fix>
</trkpt>
<trkpt lat="40.0713749" lon="-105.229789">
  <ele>1583.0</ele>
  <time>2026-08-28T17:48:31Z</time>
  <course>0.0</course>
  <speed>0.0</speed>
  <fix>3d</fix>
</trkpt>
<trkpt lat="40.071375" lon="-105.2297889">
  <ele>1582.83</ele>
  <time>2026-08-28T17:48:31Z</time>
  <course>247.06</course>
  <speed>0.01</speed>
  <fix>3d</fix>
</trkpt>
<trkpt lat="40.0713749" lon="-105.229789">
  <ele>1583.0</ele>
  <time>2026-08-28T17:48:31Z</time>
  <course>0.0</course>
  <speed>0.0</speed>
  <fix>3d</fix>
</trkpt>
<trkpt lat="40.071375" lon="-105.2297889">
  <ele>1582.83</ele>
  <time>2026-08-28T17:48:31Z</time>
  <course>247.06</course>
  <speed>0.01</speed>
  <fix>3d</fix>
</trkpt>
<trkpt lat="40.0713749" lon="-105.229789">
  <ele>1583.0</ele>
  <time>2026-08-28T17:48:31Z</time>
  <course>0.0</course>
  <speed>0.0</speed>
  <fix>3d</fix>
</trkpt>
<trkpt lat="40.071375" lon="-105.2297889">
  <ele>1582.82</ele>
  <time>2026-08-28T17:48:31Z</time>
  <course>247.06</course>
  <speed>0.01</speed>
  <fix>3d</fix>
</trkpt>
<trkpt lat="40.0713749" lon="-105.229789">
  <ele>1583.0</ele>
  <time>2026-08-28T17:48:31Z</time>
  <course>0.0</course>
  <speed>0.0</speed>
  <fix>3d</fix>
</trkpt>
<trkpt lat="40.071375" lon="-105.2297889">
  <ele>1582.82</ele>
  <time>2026-08-28T17:48:31Z</time>
  <course>247.06</course>
  <speed>0.01</speed>
  <fix>3d</fix>
</trkpt>
<trkpt lat="40.0713749" lon="-105.229789">
  <ele>1583.0</ele>
  <time>2026-08-28T17:48:31Z</time>
  <course>0.0</course>
  <speed>0.0</speed>
  <fix>3d</fix>
</trkpt>
<trkpt lat="40.071375" lon="-105.2297889">
  <ele>1582.82</ele>
  <time>2026-08-28T17:48:31Z</time>
  <course>247.06</course>
  <speed>0.01</speed>
  <fix>3d</fix>
</trkpt>
<trkpt lat="40.0713749" lon="-105.229789">
  <ele>1583.0</ele>
  <time>2026-08-28T17:48:31Z</time>
  <course>0.0</course>
  <speed>0.0</speed>
  <fix>3d</fix>
</trkpt>
<trkpt lat="40.071375" lon="-105.2297889">
  <ele>1582.82</ele>
  <time>2026-08-28T17:48:31Z</time>
  <course>247.06</course>
  <speed>0.01</speed>
  <fix>3d</fix>
</trkpt>
<trkpt lat="40.0713749" lon="-105.229789">
  <ele>1583.0</ele>
  <time>2026-08-28T17:48:31Z</time>
  <course>0.0</course>
  <speed>0.0</speed>
  <fix>3d</fix>
</trkpt>
<trkpt lat="40.071375" lon="-105.2297889">
  <ele>1582.82</ele>
  <time>2026-08-28T17:48:31Z</time>
  <course>247.06</course>
  <speed>0.01</speed>
  <fix>3d</fix>
</trkpt>
<trkpt lat="40.0713749" lon="-105.229789">
  <ele>1583.0</ele>
  <time>2026-08-28T17:48:31Z</time>
  <course>0.0</course>
  <speed>0.0</speed>
  <fix>3d</fix>
</trkpt>
<trkpt lat="40.071375" lon="-105.2297889">
  <ele>1582.82</ele>
  <time>2026-08-28T17:48:31Z</time>
  <course>247.06</course>
  <speed>0.01</speed>
  <fix>3d</fix>
</trkpt>
<trkpt lat="40.0713749" lon="-105.229789">
  <ele>1583.0</ele>
  <time>2026-08-28T17:48:31Z</time>
  <course>0.0</course>
  <speed>0.0</speed>
  <fix>3d</fix>
</trkpt>
<trkpt lat="40.071375" lon="-105.2297889">
  <ele>1582.82</ele>
  <time>2026-08-28T17:48:31Z</time>
  <course>247.06</course>
  <speed>0.01</speed>
  <fix>3d</fix>
</trkpt>
<trkpt lat="40.0713749" lon="-105.229789">
  <ele>1583.0</ele>
  <time>2026-08-28T17:48:31Z</time>
  <course>0.0</course>
  <speed>0.0</speed>
  <fix>3d</fix>
</trkpt>
<trkpt lat="40.071375" lon="-105.2297889">
  <ele>1582.82</ele>
  <time>2026-08-28T17:48:31Z</time>
  <course>247.06</course>
  <speed>0.02</speed>
  <fix>3d</fix>
</trkpt>
<trkpt lat="40.0713749" lon="-105.229789">
  <ele>1583.0</ele>
  <time>2026-08-28T17:48:31Z</time>
  <course>0.0</course>
  <speed>0.0</speed>
  <fix>3d</fix>
</trkpt>
<trkpt lat="40.071375" lon="-105.2297889">
  <ele>1582.82</ele>
  <time>2026-08-28T17:48:31Z</time>
  <course>247.06</course>
  <speed>0.02</speed>
  <fix>3d</fix>
</trkpt>
<trkpt lat="40.0713749" lon="-105.229789">
  <ele>1583.0</ele>
  <time>2026-08-28T17:48:31Z</time>
  <course>0.0</course>
  <speed>0.0</speed>
  <fix>3d</fix>
</trkpt>
<trkpt lat="40.071375" lon="-105.2297889">
  <ele>1582.83</ele>
  <time>2026-08-28T17:48:31Z</time>
  <course>247.06</course>
  <speed>0.02</speed>
  <fix>3d</fix>
</trkpt>
<trkpt lat="40.0713749" lon="-105.229789">
  <ele>1583.0</ele>
  <time>2026-08-28T17:48:31Z</time>
  <course>0.0</course>
  <speed>0.0</speed>
  <fix>3d</fix>
</trkpt>
<trkpt lat="40.071375" lon="-105.2297889">
  <ele>1582.83</ele>
  <time>2026-08-28T17:48:31Z</time>
  <course>247.06</course>
  <speed>0.02</speed>
  <fix>3d</fix>
</trkpt>
<trkpt lat="40.0713749" lon="-105.229789">
  <ele>1583.0</ele>
  <time>2026-08-28T17:48:31Z</time>
  <course>0.0</course>
  <speed>0.0</speed>
  <fix>3d</fix>
</trkpt>
<trkpt lat="40.071375" lon="-105.2297889">
  <ele>1582.84</ele>
  <time>2026-08-28T17:48:31Z</time>
  <course>247.06</course>
  <speed>0.02</speed>
  <fix>3d</fix>
</trkpt>
<trkpt lat="40.0713749" lon="-105.229789">
  <ele>1583.0</ele>
  <time>2026-08-28T17:48:31Z</time>
  <course>0.0</course>
  <speed>0.0</speed>
  <fix>3d</fix>
</trkpt>
<trkpt lat="40.071375" lon="-105.2297889">
  <ele>1582.85</ele>
  <time>2026-08-28T17:48:31Z</time>
  <course>247.06</course>
  <speed>0.02</speed>
  <fix>3d</fix>
</trkpt>
<trkpt lat="40.0713749" lon="-105.229789">
  <ele>1583.0</ele>
  <time>2026-08-28T17:48:31Z</time>
  <course>0.0</course>
  <speed>0.0</speed>
  <fix>3d</fix>
</trkpt>
<trkpt lat="40.071375" lon="-105.2297889">
  <ele>1582.85</ele>
  <time>2026-08-28T17:48:31Z</time>
  <course>247.06</course>
  <speed>0.02</speed>
  <fix>3d</fix>
</trkpt>
<trkpt lat="40.0713749" lon="-105.229789">
  <ele>1583.0</ele>
  <time>2026-08-28T17:48:31Z</time>
  <course>0.0</course>
  <speed>0.0</speed>
  <fix>3d</fix>
</trkpt>
<trkpt lat="40.071375" lon="-105.2297889">
  <ele>1582.86</ele>
  <time>2026-08-28T17:48:31Z</time>
  <course>247.06</course>
  <speed>0.02</speed>
  <fix>3d</fix>
</trkpt>
<trkpt lat="40.0713749" lon="-105.229789">
  <ele>1583.0</ele>
  <time>2026-08-28T17:48:31Z</time>
  <course>0.0</course>
  <speed>0.0</speed>
  <fix>3d</fix>
</trkpt>
<trkpt lat="40.071375" lon="-105.2297889">
  <ele>1582.86</ele>
  <time>2026-08-28T17:48:31Z</time>
  <course>247.06</course>
  <speed>0.02</speed>
  <fix>3d</fix>
</trkpt>
<trkpt lat="40.0713749" lon="-105.229789">
  <ele>1583.0</ele>
  <time>2026-08-28T17:48:31Z</time>
  <course>0.0</course>
  <speed>0.0</speed>
  <fix>3d</fix>
</trkpt>
<trkpt lat="40.071375" lon="-105.2297889">
  <ele>1582.87</ele>
  <time>2026-08-28T17:48:31Z</time>
  <course>247.06</course>
  <speed>0.02</speed>
  <fix>3d</fix>
</trkpt>
<trkpt lat="40.0713749" lon="-105.229789">
  <ele>1583.0</ele>
  <time>2026-08-28T17:48:31Z</time>
  <course>0.0</course>
  <speed>0.0</speed>
  <fix>3d</fix>
</trkpt>
<trkpt lat="40.071375" lon="-105.2297889">
  <ele>1582.87</ele>
  <time>2026-08-28T17:48:31Z</time>
  <course>247.06</course>
  <speed>0.02</speed>
  <fix>3d</fix>
</trkpt>
<trkpt lat="40.0713749" lon="-105.229789">
  <ele>1583.0</ele>
  <time>2026-08-28T17:48:31Z</time>
  <course>0.0</course>
  <speed>0.0</speed>
  <fix>3d</fix>
</trkpt>
<trkpt lat="40.071375" lon="-105.2297889">
  <ele>1582.88</ele>
  <time>2026-08-28T17:48:31Z</time>
  <course>247.06</course>
  <speed>0.022360679774997897</speed>
  <fix>3d</fix>
</trkpt>
<trkpt lat="40.0713749" lon="-105.229789">
  <ele>1583.0</ele>
  <time>2026-08-28T17:48:31Z</time>
  <course>0.0</course>
  <speed>0.0</speed>
  <fix>3d</fix>
</trkpt>
<trkpt lat="40.071375" lon="-105.2297889">
  <ele>1582.88</ele>
  <time>2026-08-28T17:48:31Z</time>
  <course>247.06</course>
  <speed>0.022360679774997897</speed>
  <fix>3d</fix>
</trkpt>
<trkpt lat="40.0713749" lon="-105.229789">
  <ele>1583.0</ele>
  <time>2026-08-28T17:48:31Z</time>
  <course>0.0</course>
  <speed>0.0</speed>
  <fix>3d</fix>
</trkpt>
<trkpt lat="40.071375" lon="-105.2297889">
  <ele>1582.89</ele>
  <time>2026-08-28T17:48:31Z</time>
  <course>247.06</course>
  <speed>0.022360679774997897</speed>
  <fix>3d</fix>
</trkpt>
<trkpt lat="40.0713749" lon="-105.229789">
  <ele>1583.0</ele>
  <time>2026-08-28T17:48:31Z</time>
  <course>0.0</course>
  <speed>0.0</speed>
  <fix>3d</fix>
</trkpt>
<trkpt lat="40.071375" lon="-105.2297889">
  <ele>1582.9</ele>
  <time>2026-08-28T17:48:31Z</time>
  <course>247.06</course>
  <speed>0.022360679774997897</speed>
  <fix>3d</fix>
</trkpt>
<trkpt lat="40.0713749" lon="-105.229789">
  <ele>1583.0</ele>
  <time>2026-08-28T17:48:31Z</time>
  <course>0.0</course>
  <speed>0.0</speed>
  <fix>3d</fix>
</trkpt>
<trkpt lat="40.071375" lon="-105.2297889">
  <ele>1582.91</ele>
  <time>2026-08-28T17:48:31Z</time>
  <course>247.06</course>
  <speed>0.022360679774997897</speed>
  <fix>3d</fix>
</trkpt>
<trkpt lat="40.0713749" lon="-105.229789">
  <ele>1583.0</ele>
  <time>2026-08-28T17:48:31Z</time>
  <course>0.0</course>
  <speed>0.0</speed>
  <fix>3d</fix>
</trkpt>
<trkpt lat="40.071375" lon="-105.2297889">
  <ele>1582.91</ele>
  <time>2026-08-28T17:48:31Z</time>
  <course>247.06</course>
  <speed>0.022360679774997897</speed>
  <fix>3d</fix>
</trkpt>
<trkpt lat="40.0713749" lon="-105.229789">
  <ele>1583.0</ele>
  <time>2026-08-28T17:48:31Z</time>
  <course>0.0</course>
  <speed>0.0</speed>
  <fix>3d</fix>
</trkpt>
<trkpt lat="40.071375" lon="-105.2297889">
  <ele>1582.92</ele>
  <time>2026-08-28T17:48:31Z</time>
  <course>247.06</course>
  <speed>0.022360679774997897</speed>
  <fix>3d</fix>
</trkpt>
<trkpt lat="40.0713749" lon="-105.229789">
  <ele>1583.0</ele>
  <time>2026-08-28T17:48:31Z</time>
  <course>0.0</course>
  <speed>0.0</speed>
  <fix>3d</fix>
</trkpt>
<trkpt lat="40.071375" lon="-105.2297889">
  <ele>1582.92</ele>
  <time>2026-08-28T17:48:31Z</time>
  <course>247.06</course>
  <speed>0.022360679774997897</speed>
  <fix>3d</fix>
</trkpt>
<trkpt lat="40.0713749" lon="-105.229789">
  <ele>1583.0</ele>
  <time>2026-08-28T17:48:31Z</time>
  <course>0.0</course>
  <speed>0.0</speed>
  <fix>3d</fix>
</trkpt>
<trkpt lat="40.071375" lon="-105.2297889">
  <ele>1582.93</ele>
  <time>2026-08-28T17:48:31Z</time>
  <course>247.06</course>
  <speed>0.022360679774997897</speed>
  <fix>3d</fix>
</trkpt>
<trkpt lat="40.0713749" lon="-105.229789">
  <ele>1583.0</ele>
  <time>2026-08-28T17:48:31Z</time>
  <course>0.0</course>
  <speed>0.0</speed>
  <fix>3d</fix>
</trkpt>
<trkpt lat="40.071375" lon="-105.2297889">
  <ele>1582.93</ele>
  <time>2026-08-28T17:48:31Z</time>
  <course>247.06</course>
  <speed>0.022360679774997897</speed>
  <fix>3d</fix>
</trkpt>
<trkpt lat="40.0713749" lon="-105.229789">
  <ele>1583.0</ele>
  <time>2026-08-28T17:48:31Z</time>
  <course>0.0</course>
  <speed>0.0</speed>
  <fix>3d</fix>
</trkpt>
<trkpt lat="40.071375" lon="-105.2297889">
  <ele>1582.94</ele>
  <time>2026-08-28T17:48:31Z</time>
  <course>247.06</course>
  <speed>0.022360679774997897</speed>
  <fix>3d</fix>
</trkpt>
<trkpt lat="40.0713749" lon="-105.229789">
  <ele>1583.0</ele>
  <time>2026-08-28T17:48:31Z</time>
  <course>0.0</course>
  <speed>0.0</speed>
  <fix>3d</fix>
</trkpt>
<trkpt lat="40.071375" lon="-105.2297889">
  <ele>1582.94</ele>
  <time>2026-08-28T17:48:31Z</time>
  <course>247.06</course>
  <speed>0.022360679774997897</speed>
  <fix>3d</fix>
</trkpt>
<trkpt lat="40.0713749" lon="-105.229789">
  <ele>1583.0</ele>
  <time>2026-08-28T17:48:31Z</time>
  <course>0.0</course>
  <speed>0.0</speed>
  <fix>3d</fix>
</trkpt>
<trkpt lat="40.071375" lon="-105.2297889">
  <ele>1582.94</ele>
  <time>2026-08-28T17:48:31Z</time>
  <course>247.06</course>
  <speed>0.022360679774997897</speed>
  <fix>3d</fix>
</trkpt>
<trkpt lat="40.0713749" lon="-105.229789">
  <ele>1583.0</ele>
  <time>2026-08-28T17:48:31Z</time>
  <course>0.0</course>
  <speed>0.0</speed>
  <fix>3d</fix>
</trkpt>
<trkpt lat="40.071375" lon="-105.2297889">
  <ele>1582.95</ele>
  <time>2026-08-28T17:48:31Z</time>
  <course>247.06</course>
  <speed>0.022360679774997897</speed>
  <fix>3d</fix>
</trkpt>
<trkpt lat="40.0713749" lon="-105.229789">
  <ele>1583.0</ele>
  <time>2026-08-28T17:48:31Z</time>
  <course>0.0</course>
  <speed>0.0</speed>
  <fix>3d</fix>
</trkpt>
<trkpt lat="40.071375" lon="-105.2297889">
  <ele>1582.95</ele>
  <time>2026-08-28T17:48:31Z</time>
  <course>247.06</course>
  <speed>0.022360679774997897</speed>
  <fix>3d</fix>
</trkpt>
<trkpt lat="40.0713749" lon="-105.229789">
  <ele>1583.0</ele>
  <time>2026-08-28T17:48:31Z</time>
  <course>0.0</course>
  <speed>0.0</speed>
  <fix>3d</fix>
</trkpt>
<trkpt lat="40.071375" lon="-105.2297889">
  <ele>1582.96</ele>
  <time>2026-08-28T17:48:31Z</time>
  <course>247.06</course>
  <speed>0.022360679774997897</speed>
  <fix>3d</fix>
</trkpt>
<trkpt lat="40.0713749" lon="-105.229789">
  <ele>1583.0</ele>
  <time>2026-08-28T17:48:31Z</time>
  <course>0.0</course>
  <speed>0.0</speed>
  <fix>3d</fix>
</trkpt>
<trkpt lat="40.071375" lon="-105.2297889">
  <ele>1582.96</ele>
  <time>2026-08-28T17:48:31Z</time>
  <course>247.06</course>
  <speed>0.02</speed>
  <fix>3d</fix>
</trkpt>
<trkpt lat="40.0713749" lon="-105.229789">
  <ele>1583.0</ele>
  <time>2026-08-28T17:48:31Z</time>
  <course>0.0</course>
  <speed>0.0</speed>
  <fix>3d</fix>
</trkpt>
<trkpt lat="40.071375" lon="-105.2297889">
  <ele>1582.97</ele>
  <time>2026-08-28T17:48:31Z</time>
  <course>247.07</course>
  <speed>0.02</speed>
  <fix>3d</fix>
</trkpt>
<trkpt lat="40.0713749" lon="-105.229789">
  <ele>1583.0</ele>
  <time>2026-08-28T17:48:31Z</time>
  <course>0.0</course>
  <speed>0.0</speed>
  <fix>3d</fix>
</trkpt>
<trkpt lat="40.071375" lon="-105.2297889">
  <ele>1582.98</ele>
  <time>2026-08-28T17:48:31Z</time>
  <course>247.07</course>
  <speed>0.02</speed>
  <fix>3d</fix>
</trkpt>
<trkpt lat="40.0713749" lon="-105.229789">
  <ele>1583.0</ele>
  <time>2026-08-28T17:48:31Z</time>
  <course>0.0</course>
  <speed>0.0</speed>
  <fix>3d</fix>
</trkpt>
<trkpt lat="40.071375" lon="-105.2297889">
  <ele>1582.99</ele>
  <time>2026-08-28T17:48:31Z</time>
  <course>247.07</course>
  <speed>0.02</speed>
  <fix>3d</fix>
</trkpt>
<trkpt lat="40.0713749" lon="-105.229789">
  <ele>1583.0</ele>
  <time>2026-08-28T17:48:31Z</time>
  <course>0.0</course>
  <speed>0.0</speed>
  <fix>3d</fix>
</trkpt>
<trkpt lat="40.071375" lon="-105.2297889">
  <ele>1583.0</ele>
  <time>2026-08-28T17:48:31Z</time>
  <course>247.07</course>
  <speed>0.02</speed>
  <fix>3d</fix>
</trkpt>
<trkpt lat="40.0713749" lon="-105.229789">
  <ele>1583.0</ele>
  <time>2026-08-28T17:48:31Z</time>
  <course>0.0</course>
  <speed>0.0</speed>
  <fix>3d</fix>
</trkpt>
<trkpt lat="40.071375" lon="-105.2297889">
  <ele>1583.01</ele>
  <time>2026-08-28T17:48:31Z</time>
  <course>247.07</course>
  <speed>0.02</speed>
  <fix>3d</fix>
</trkpt>
<trkpt lat="40.0713749" lon="-105.229789">
  <ele>1583.0</ele>
  <time>2026-08-28T17:48:31Z</time>
  <course>0.0</course>
  <speed>0.0</speed>
  <fix>3d</fix>
</trkpt>
<trkpt lat="40.071375" lon="-105.2297889">
  <ele>1583.02</ele>
  <time>2026-08-28T17:48:31Z</time>
  <course>247.07</course>
  <speed>0.02</speed>
  <fix>3d</fix>
</trkpt>
<trkpt lat="40.0713749" lon="-105.229789">
  <ele>1583.0</ele>
  <time>2026-08-28T17:48:31Z</time>
  <course>0.0</course>
  <speed>0.0</speed>
  <fix>3d</fix>
</trkpt>
<trkpt lat="40.071375" lon="-105.2297889">
  <ele>1583.02</ele>
  <time>2026-08-28T17:48:31Z</time>
  <course>247.07</course>
  <speed>0.02</speed>
  <fix>3d</fix>
</trkpt>
<trkpt lat="40.0713749" lon="-105.229789">
  <ele>1583.0</ele>
  <time>2026-08-28T17:48:31Z</time>
  <course>0.0</course>
  <speed>0.0</speed>
  <fix>3d</fix>
</trkpt>
<trkpt lat="40.071375" lon="-105.2297889">
  <ele>1583.03</ele>
  <time>2026-08-28T17:48:31Z</time>
  <course>247.07</course>
  <speed>0.02</speed>
  <fix>3d</fix>
</trkpt>
<trkpt lat="40.0713749" lon="-105.229789">
  <ele>1583.0</ele>
  <time>2026-08-28T17:48:31Z</time>
  <course>0.0</course>
  <speed>0.0</speed>
  <fix>3d</fix>
</trkpt>
<trkpt lat="40.071375" lon="-105.2297889">
  <ele>1583.03</ele>
  <time>2026-08-28T17:48:31Z</time>
  <course>247.07</course>
  <speed>0.02</speed>
  <fix>3d</fix>
</trkpt>
<trkpt lat="40.0713749" lon="-105.229789">
  <ele>1583.0</ele>
  <time>2026-08-28T17:48:31Z</time>
  <course>0.0</course>
  <speed>0.0</speed>
  <fix>3d</fix>
</trkpt>
<trkpt lat="40.071375" lon="-105.2297889">
  <ele>1583.04</ele>
  <time>2026-08-28T17:48:31Z</time>
  <course>247.07</course>
  <speed>0.02</speed>
  <fix>3d</fix>
</trkpt>
<trkpt lat="40.0713749" lon="-105.229789">
  <ele>1583.0</ele>
  <time>2026-08-28T17:48:31Z</time>
  <course>0.0</course>
  <speed>0.0</speed>
  <fix>3d</fix>
</trkpt>
<trkpt lat="40.071375" lon="-105.2297889">
  <ele>1583.04</ele>
  <time>2026-08-28T17:48:31Z</time>
  <course>247.07</course>
  <speed>0.02</speed>
  <fix>3d</fix>
</trkpt>
<trkpt lat="40.0713749" lon="-105.229789">
  <ele>1583.0</ele>
  <time>2026-08-28T17:48:31Z</time>
  <course>0.0</course>
  <speed>0.0</speed>
  <fix>3d</fix>
</trkpt>
<trkpt lat="40.071375" lon="-105.2297889">
  <ele>1583.05</ele>
  <time>2026-08-28T17:48:31Z</time>
  <course>247.07</course>
  <speed>0.02</speed>
  <fix>3d</fix>
</trkpt>
<trkpt lat="40.0713749" lon="-105.229789">
  <ele>1583.0</ele>
  <time>2026-08-28T17:48:31Z</time>
  <course>0.0</course>
  <speed>0.0</speed>
  <fix>3d</fix>
</trkpt>
<trkpt lat="40.071375" lon="-105.2297889">
  <ele>1583.05</ele>
  <time>2026-08-28T17:48:31Z</time>
  <course>247.07</course>
  <speed>0.02</speed>
  <fix>3d</fix>
</trkpt>
<trkpt lat="40.0713749" lon="-105.229789">
  <ele>1583.0</ele>
  <time>2026-08-28T17:48:31Z</time>
  <course>0.0</course>
  <speed>0.0</speed>
  <fix>3d</fix>
</trkpt>
<trkpt lat="40.071375" lon="-105.2297889">
  <ele>1583.05</ele>
  <time>2026-08-28T17:48:31Z</time>
  <course>247.07</course>
  <speed>0.02</speed>
  <fix>3d</fix>
</trkpt>
<trkpt lat="40.0713749" lon="-105.229789">
  <ele>1583.0</ele>
  <time>2026-08-28T17:48:31Z</time>
  <course>0.0</course>
  <speed>0.0</speed>
  <fix>3d</fix>
</trkpt>
<trkpt lat="40.071375" lon="-105.2297889">
  <ele>1583.05</ele>
  <time>2026-08-28T17:48:31Z</time>
  <course>247.07</course>
  <speed>0.02</speed>
  <fix>3d</fix>
</trkpt>
<trkpt lat="40.0713749" lon="-105.229789">
  <ele>1583.0</ele>
  <time>2026-08-28T17:48:31Z</time>
  <course>0.0</course>
  <speed>0.0</speed>
  <fix>3d</fix>
</trkpt>
<trkpt lat="40.071375" lon="-105.2297889">
  <ele>1583.05</ele>
  <time>2026-08-28T17:48:31Z</time>
  <course>247.07</course>
  <speed>0.02</speed>
  <fix>3d</fix>
</trkpt>
<trkpt lat="40.0713749" lon="-105.229789">
  <ele>1583.0</ele>
  <time>2026-08-28T17:48:31Z</time>
  <course>0.0</course>
  <speed>0.0</speed>
  <fix>3d</fix>
</trkpt>
<trkpt lat="40.071375" lon="-105.2297889">
  <ele>1583.04</ele>
  <time>2026-08-28T17:48:31Z</time>
  <course>247.07</course>
  <speed>0.02</speed>
  <fix>3d</fix>
</trkpt>
<trkpt lat="40.0713749" lon="-105.229789">
  <ele>1583.0</ele>
  <time>2026-08-28T17:48:31Z</time>
  <course>0.0</course>
  <speed>0.0</speed>
  <fix>3d</fix>
</trkpt>
<trkpt lat="40.071375" lon="-105.2297889">
  <ele>1583.04</ele>
  <time>2026-08-28T17:48:31Z</time>
  <course>247.07</course>
  <speed>0.02</speed>
  <fix>3d</fix>
</trkpt>
<trkpt lat="40.0713749" lon="-105.229789">
  <ele>1583.0</ele>
  <time>2026-08-28T17:48:31Z</time>
  <course>0.0</course>
  <speed>0.0</speed>
  <fix>3d</fix>
</trkpt>
<trkpt lat="40.071375" lon="-105.2297889">
  <ele>1583.03</ele>
  <time>2026-08-28T17:48:31Z</time>
  <course>247.07</course>
  <speed>0.02</speed>
  <fix>3d</fix>
</trkpt>
<trkpt lat="40.0713749" lon="-105.229789">
  <ele>1583.0</ele>
  <time>2026-08-28T17:48:31Z</time>
  <course>0.0</course>
  <speed>0.0</speed>
  <fix>3d</fix>
</trkpt>
<trkpt lat="40.071375" lon="-105.2297889">
  <ele>1583.03</ele>
  <time>2026-08-28T17:48:31Z</time>
  <course>247.07</course>
  <speed>0.02</speed>
  <fix>3d</fix>
</trkpt>
<trkpt lat="40.0713749" lon="-105.229789">
  <ele>1583.0</ele>
  <time>2026-08-28T17:48:31Z</time>
  <course>0.0</course>
  <speed>0.0</speed>
  <fix>3d</fix>
</trkpt>
<trkpt lat="40.071375" lon="-105.2297889">
  <ele>1583.02</ele>
  <time>2026-08-28T17:48:31Z</time>
  <course>247.07</course>
  <speed>0.02</speed>
  <fix>3d</fix>
</trkpt>
<trkpt lat="40.0713749" lon="-105.229789">
  <ele>1583.0</ele>
  <time>2026-08-28T17:48:31Z</time>
  <course>0.0</course>
  <speed>0.0</speed>
  <fix>3d</fix>
</trkpt>
<trkpt lat="40.071375" lon="-105.2297889">
  <ele>1583.01</ele>
  <time>2026-08-28T17:48:31Z</time>
  <course>247.07</course>
  <speed>0.02</speed>
  <fix>3d</fix>
</trkpt>
<trkpt lat="40.0713749" lon="-105.229789">
  <ele>1583.0</ele>
  <time>2026-08-28T17:48:31Z</time>
  <course>0.0</course>
  <speed>0.0</speed>
  <fix>3d</fix>
</trkpt>
<trkpt lat="40.071375" lon="-105.2297889">
  <ele>1583.01</ele>
  <time>2026-08-28T17:48:31Z</time>
  <course>247.07</course>
  <speed>0.02</speed>
  <fix>3d</fix>
</trkpt>
<trkpt lat="40.0713749" lon="-105.229789">
  <ele>1583.0</ele>
  <time>2026-08-28T17:48:31Z</time>
  <course>0.0</course>
  <speed>0.0</speed>
  <fix>3d</fix>
</trkpt>
<trkpt lat="40.071375" lon="-105.2297889">
  <ele>1583.01</ele>
  <time>2026-08-28T17:48:31Z</time>
  <course>247.07</course>
  <speed>0.02</speed>
  <fix>3d</fix>
</trkpt>
<trkpt lat="40.0713749" lon="-105.229789">
  <ele>1583.0</ele>
  <time>2026-08-28T17:48:31Z</time>
  <course>0.0</course>
  <speed>0.0</speed>
  <fix>3d</fix>
</trkpt>
<trkpt lat="40.071375" lon="-105.2297889">
  <ele>1583.01</ele>
  <time>2026-08-28T17:48:31Z</time>
  <course>247.07</course>
  <speed>0.02</speed>
  <fix>3d</fix>
</trkpt>
<trkpt lat="40.0713749" lon="-105.229789">
  <ele>1583.0</ele>
  <time>2026-08-28T17:48:31Z</time>
  <course>0.0</course>
  <speed>0.0</speed>
  <fix>3d</fix>
</trkpt>
<trkpt lat="40.071375" lon="-105.2297889">
  <ele>1583.02</ele>
  <time>2026-08-28T17:48:31Z</time>
  <course>247.07</course>
  <speed>0.02</speed>
  <fix>3d</fix>
</trkpt>
<trkpt lat="40.0713749" lon="-105.229789">
  <ele>1583.0</ele>
  <time>2026-08-28T17:48:31Z</time>
  <course>0.0</course>
  <speed>0.0</speed>
  <fix>3d</fix>
</trkpt>
<trkpt lat="40.071375" lon="-105.2297889">
  <ele>1583.02</ele>
  <time>2026-08-28T17:48:31Z</time>
  <course>247.07</course>
  <speed>0.022360679774997897</speed>
  <fix>3d</fix>
</trkpt>
<trkpt lat="40.0713749" lon="-105.229789">
  <ele>1583.0</ele>
  <time>2026-08-28T17:48:31Z</time>
  <course>0.0</course>
  <speed>0.0</speed>
  <fix>3d</fix>
</trkpt>
<trkpt lat="40.071375" lon="-105.2297889">
  <ele>1583.03</ele>
  <time>2026-08-28T17:48:31Z</time>
  <course>247.07</course>
  <speed>0.022360679774997897</speed>
  <fix>3d</fix>
</trkpt>
<trkpt lat="40.0713749" lon="-105.229789">
  <ele>1583.0</ele>
  <time>2026-08-28T17:48:31Z</time>
  <course>0.0</course>
  <speed>0.0</speed>
  <fix>3d</fix>
</trkpt>
<trkpt lat="40.071375" lon="-105.2297889">
  <ele>1583.03</ele>
  <time>2026-08-28T17:48:31Z</time>
  <course>247.07</course>
  <speed>0.022360679774997897</speed>
  <fix>3d</fix>
</trkpt>
<trkpt lat="40.0713749" lon="-105.229789">
  <ele>1583.0</ele>
  <time>2026-08-28T17:48:31Z</time>
  <course>0.0</course>
  <speed>0.0</speed>
  <fix>3d</fix>
</trkpt>
<trkpt lat="40.071375" lon="-105.2297889">
  <ele>1583.04</ele>
  <time>2026-08-28T17:48:31Z</time>
  <course>247.07</course>
  <speed>0.022360679774997897</speed>
  <fix>3d</fix>
</trkpt>
<trkpt lat="40.0713749" lon="-105.229789">
  <ele>1583.0</ele>
  <time>2026-08-28T17:48:31Z</time>
  <course>0.0</course>
  <speed>0.0</speed>
  <fix>3d</fix>
</trkpt>
<trkpt lat="40.071375" lon="-105.2297889">
  <ele>1583.04</ele>
  <time>2026-08-28T17:48:31Z</time>
  <course>247.07</course>
  <speed>0.022360679774997897</speed>
  <fix>3d</fix>
</trkpt>
<trkpt lat="40.0713749" lon="-105.229789">
  <ele>1583.0</ele>
  <time>2026-08-28T17:48:31Z</time>
  <course>0.0</course>
  <speed>0.0</speed>
  <fix>3d</fix>
</trkpt>
<trkpt lat="40.071375" lon="-105.2297889">
  <ele>1583.05</ele>
  <time>2026-08-28T17:48:31Z</time>
  <course>247.07</course>
  <speed>0.022360679774997897</speed>
  <fix>3d</fix>
</trkpt>
<trkpt lat="40.0713749" lon="-105.229789">
  <ele>1583.0</ele>
  <time>2026-08-28T17:48:31Z</time>
  <course>0.0</course>
  <speed>0.0</speed>
  <fix>3d</fix>
</trkpt>
<trkpt lat="40.071375" lon="-105.2297889">
  <ele>1583.05</ele>
  <time>2026-08-28T17:48:31Z</time>
  <course>247.07</course>
  <speed>0.022360679774997897</speed>
  <fix>3d</fix>
</trkpt>
<trkpt lat="40.0713749" lon="-105.229789">
  <ele>1583.0</ele>
  <time>2026-08-28T17:48:31Z</time>
  <course>0.0</course>
  <speed>0.0</speed>
  <fix>3d</fix>
</trkpt>
<trkpt lat="40.071375" lon="-105.2297889">
  <ele>1583.05</ele>
  <time>2026-08-28T17:48:31Z</time>
  <course>247.07</course>
  <speed>0.022360679774997897</speed>
  <fix>3d</fix>
</trkpt>
<trkpt lat="40.0713749" lon="-105.229789">
  <ele>1583.0</ele>
  <time>2026-08-28T17:48:31Z</time>
  <course>0.0</course>
  <speed>0.0</speed>
  <fix>3d</fix>
</trkpt>
<trkpt lat="40.071375" lon="-105.2297889">
  <ele>1583.05</ele>
  <time>2026-08-28T17:48:31Z</time>
  <course>247.07</course>
  <speed>0.022360679774997897</speed>
  <fix>3d</fix>
</trkpt>
<trkpt lat="40.0713749" lon="-105.229789">
  <ele>1583.0</ele>
  <time>2026-08-28T17:48:31Z</time>
  <course>0.0</course>
  <speed>0.0</speed>
  <fix>3d</fix>
</trkpt>
<trkpt lat="40.071375" lon="-105.2297889">
  <ele>1583.04</ele>
  <time>2026-08-28T17:48:31Z</time>
  <course>247.07</course>
  <speed>0.022360679774997897</speed>
  <fix>3d</fix>
</trkpt>
<trkpt lat="40.0713749" lon="-105.229789">
  <ele>1583.0</ele>
  <time>2026-08-28T17:48:31Z</time>
  <course>0.0</course>
  <speed>0.0</speed>
  <fix>3d</fix>
</trkpt>
<trkpt lat="40.071375" lon="-105.2297889">
  <ele>1583.03</ele>
  <time>2026-08-28T17:48:31Z</time>
  <course>247.07</course>
  <speed>0.022360679774997897</speed>
  <fix>3d</fix>
</trkpt>
<trkpt lat="40.0713749" lon="-105.229789">
  <ele>1583.0</ele>
  <time>2026-08-28T17:48:31Z</time>
  <course>0.0</course>
  <speed>0.0</speed>
  <fix>3d</fix>
</trkpt>
<trkpt lat="40.071375" lon="-105.2297889">
  <ele>1583.03</ele>
  <time>2026-08-28T17:48:31Z</time>
  <course>247.07</course>
  <speed>0.022360679774997897</speed>
  <fix>3d</fix>
</trkpt>
<trkpt lat="40.0713749" lon="-105.229789">
  <ele>1583.0</ele>
  <time>2026-08-28T17:48:31Z</time>
  <course>0.0</course>
  <speed>0.0</speed>
  <fix>3d</fix>
</trkpt>
<trkpt lat="40.0713751" lon="-105.2297889">
  <ele>1583.02</ele>
  <time>2026-08-28T17:48:31Z</time>
  <course>247.07</course>
  <speed>0.022360679774997897</speed>
  <fix>3d</fix>
</trkpt>
<trkpt lat="40.0713749" lon="-105.229789">
  <ele>1583.0</ele>
  <time>2026-08-28T17:48:31Z</time>
  <course>0.0</course>
  <speed>0.0</speed>
  <fix>3d</fix>
</trkpt>
<trkpt lat="40.071375" lon="-105.2297889">
  <ele>1583.02</ele>
  <time>2026-08-28T17:48:31Z</time>
  <course>247.07</course>
  <speed>0.022360679774997897</speed>
  <fix>3d</fix>
</trkpt>
<trkpt lat="40.0713749" lon="-105.229789">
  <ele>1583.0</ele>
  <time>2026-08-28T17:48:31Z</time>
  <course>0.0</course>
  <speed>0.0</speed>
  <fix>3d</fix>
</trkpt>
<trkpt lat="40.0713751" lon="-105.2297889">
  <ele>1583.01</ele>
  <time>2026-08-28T17:48:31Z</time>
  <course>247.07</course>
  <speed>0.022360679774997897</speed>
  <fix>3d</fix>
</trkpt>
<trkpt lat="40.0713749" lon="-105.229789">
  <ele>1583.0</ele>
  <time>2026-08-28T17:48:31Z</time>
  <course>0.0</course>
  <speed>0.0</speed>
  <fix>3d</fix>
</trkpt>
<trkpt lat="40.0713751" lon="-105.2297889">
  <ele>1583.0</ele>
  <time>2026-08-28T17:48:31Z</time>
  <course>247.07</course>
  <speed>0.022360679774997897</speed>
  <fix>3d</fix>
</trkpt>
<trkpt lat="40.0713749" lon="-105.229789">
  <ele>1583.0</ele>
  <time>2026-08-28T17:48:31Z</time>
  <course>0.0</course>
  <speed>0.0</speed>
  <fix>3d</fix>
</trkpt>
<trkpt lat="40.0713751" lon="-105.2297889">
  <ele>1583.0</ele>
  <time>2026-08-28T17:48:31Z</time>
  <course>247.07</course>
  <speed>0.022360679774997897</speed>
  <fix>3d</fix>
</trkpt>
<trkpt lat="40.0713749" lon="-105.229789">
  <ele>1583.0</ele>
  <time>2026-08-28T17:48:31Z</time>
  <course>0.0</course>
  <speed>0.0</speed>
  <fix>3d</fix>
</trkpt>
<trkpt lat="40.0713751" lon="-105.2297889">
  <ele>1582.99</ele>
  <time>2026-08-28T17:48:31Z</time>
  <course>247.07</course>
  <speed>0.022360679774997897</speed>
  <fix>3d</fix>
</trkpt>
<trkpt lat="40.0713749" lon="-105.229789">
  <ele>1583.0</ele>
  <time>2026-08-28T17:48:31Z</time>
  <course>0.0</course>
  <speed>0.0</speed>
  <fix>3d</fix>
</trkpt>
<trkpt lat="40.0713751" lon="-105.2297889">
  <ele>1582.99</ele>
  <time>2026-08-28T17:48:31Z</time>
  <course>247.07</course>
  <speed>0.022360679774997897</speed>
  <fix>3d</fix>
</trkpt>
<trkpt lat="40.0713749" lon="-105.229789">
  <ele>1583.0</ele>
  <time>2026-08-28T17:48:31Z</time>
  <course>0.0</course>
  <speed>0.0</speed>
  <fix>3d</fix>
</trkpt>
<trkpt lat="40.0713751" lon="-105.2297889">
  <ele>1583.0</ele>
  <time>2026-08-28T17:48:31Z</time>
  <course>247.07</course>
  <speed>0.022360679774997897</speed>
  <fix>3d</fix>
</trkpt>
<trkpt lat="40.0713749" lon="-105.229789">
  <ele>1583.0</ele>
  <time>2026-08-28T17:48:31Z</time>
  <course>0.0</course>
  <speed>0.0</speed>
  <fix>3d</fix>
</trkpt>
<trkpt lat="40.0713751" lon="-105.2297889">
  <ele>1583.0</ele>
  <time>2026-08-28T17:48:31Z</time>
  <course>247.07</course>
  <speed>0.022360679774997897</speed>
  <fix>3d</fix>
</trkpt>
<trkpt lat="40.0713749" lon="-105.229789">
  <ele>1583.0</ele>
  <time>2026-08-28T17:48:31Z</time>
  <course>0.0</course>
  <speed>0.0</speed>
  <fix>3d</fix>
</trkpt>
<trkpt lat="40.0713751" lon="-105.2297889">
  <ele>1583.0</ele>
  <time>2026-08-28T17:48:31Z</time>
  <course>247.07</course>
  <speed>0.022360679774997897</speed>
  <fix>3d</fix>
</trkpt>
<trkpt lat="40.0713749" lon="-105.229789">
  <ele>1583.0</ele>
  <time>2026-08-28T17:48:31Z</time>
  <course>0.0</course>
  <speed>0.0</speed>
  <fix>3d</fix>
</trkpt>
<trkpt lat="40.0713751" lon="-105.2297889">
  <ele>1583.01</ele>
  <time>2026-08-28T17:48:31Z</time>
  <course>247.07</course>
  <speed>0.022360679774997897</speed>
  <fix>3d</fix>
</trkpt>
<trkpt lat="40.0713749" lon="-105.229789">
  <ele>1583.0</ele>
  <time>2026-08-28T17:48:31Z</time>
  <course>0.0</course>
  <speed>0.0</speed>
  <fix>3d</fix>
</trkpt>
<trkpt lat="40.0713751" lon="-105.2297889">
  <ele>1583.01</ele>
  <time>2026-08-28T17:48:31Z</time>
  <course>247.07</course>
  <speed>0.022360679774997897</speed>
  <fix>3d</fix>
</trkpt>
<trkpt lat="40.0713749" lon="-105.229789">
  <ele>1583.0</ele>
  <time>2026-08-28T17:48:31Z</time>
  <course>0.0</course>
  <speed>0.0</speed>
  <fix>3d</fix>
</trkpt>
<trkpt lat="40.0713751" lon="-105.2297889">
  <ele>1583.02</ele>
  <time>2026-08-28T17:48:31Z</time>
  <course>247.07</course>
  <speed>0.022360679774997897</speed>
  <fix>3d</fix>
</trkpt>
<trkpt lat="40.0713749" lon="-105.229789">
  <ele>1583.0</ele>
  <time>2026-08-28T17:48:31Z</time>
  <course>0.0</course>
  <speed>0.0</speed>
  <fix>3d</fix>
</trkpt>
<trkpt lat="40.0713751" lon="-105.2297889">
  <ele>1583.03</ele>
  <time>2026-08-28T17:48:31Z</time>
  <course>247.07</course>
  <speed>0.022360679774997897</speed>
  <fix>3d</fix>
</trkpt>
<trkpt lat="40.0713749" lon="-105.229789">
  <ele>1583.0</ele>
  <time>2026-08-28T17:48:31Z</time>
  <course>0.0</course>
  <speed>0.0</speed>
  <fix>3d</fix>
</trkpt>
<trkpt lat="40.0713751" lon="-105.2297889">
  <ele>1583.03</ele>
  <time>2026-08-28T17:48:31Z</time>
  <course>247.08</course>
  <speed>0.022360679774997897</speed>
  <fix>3d</fix>
</trkpt>
<trkpt lat="40.0713749" lon="-105.229789">
  <ele>1583.0</ele>
  <time>2026-08-28T17:48:31Z</time>
  <course>0.0</course>
  <speed>0.0</speed>
  <fix>3d</fix>
</trkpt>
<trkpt lat="40.0713751" lon="-105.2297889">
  <ele>1583.04</ele>
  <time>2026-08-28T17:48:31Z</time>
  <course>247.08</course>
  <speed>0.022360679774997897</speed>
  <fix>3d</fix>
</trkpt>
<trkpt lat="40.0713749" lon="-105.229789">
  <ele>1583.0</ele>
  <time>2026-08-28T17:48:31Z</time>
  <course>0.0</course>
  <speed>0.0</speed>
  <fix>3d</fix>
</trkpt>
<trkpt lat="40.0713751" lon="-105.2297889">
  <ele>1583.04</ele>
  <time>2026-08-28T17:48:31Z</time>
  <course>247.08</course>
  <speed>0.022360679774997897</speed>
  <fix>3d</fix>
</trkpt>
<trkpt lat="40.0713749" lon="-105.229789">
  <ele>1583.0</ele>
  <time>2026-08-28T17:48:31Z</time>
  <course>0.0</course>
  <speed>0.0</speed>
  <fix>3d</fix>
</trkpt>
<trkpt lat="40.0713751" lon="-105.2297889">
  <ele>1583.05</ele>
  <time>2026-08-28T17:48:31Z</time>
  <course>247.08</course>
  <speed>0.022360679774997897</speed>
  <fix>3d</fix>
</trkpt>
<trkpt lat="40.0713749" lon="-105.229789">
  <ele>1583.0</ele>
  <time>2026-08-28T17:48:31Z</time>
  <course>0.0</course>
  <speed>0.0</speed>
  <fix>3d</fix>
</trkpt>
<trkpt lat="40.0713751" lon="-105.2297889">
  <ele>1583.05</ele>
  <time>2026-08-28T17:48:31Z</time>
  <course>247.08</course>
  <speed>0.022360679774997897</speed>
  <fix>3d</fix>
</trkpt>
<trkpt lat="40.0713749" lon="-105.229789">
  <ele>1583.0</ele>
  <time>2026-08-28T17:48:31Z</time>
  <course>0.0</course>
  <speed>0.0</speed>
  <fix>3d</fix>
</trkpt>
<trkpt lat="40.0713751" lon="-105.2297889">
  <ele>1583.05</ele>
  <time>2026-08-28T17:48:31Z</time>
  <course>247.08</course>
  <speed>0.022360679774997897</speed>
  <fix>3d</fix>
</trkpt>
<trkpt lat="40.0713749" lon="-105.229789">
  <ele>1583.0</ele>
  <time>2026-08-28T17:48:31Z</time>
  <course>0.0</course>
  <speed>0.0</speed>
  <fix>3d</fix>
</trkpt>
<trkpt lat="40.0713751" lon="-105.2297889">
  <ele>1583.06</ele>
  <time>2026-08-28T17:48:31Z</time>
  <course>247.08</course>
  <speed>0.022360679774997897</speed>
  <fix>3d</fix>
</trkpt>
<trkpt lat="40.0713749" lon="-105.229789">
  <ele>1583.0</ele>
  <time>2026-08-28T17:48:31Z</time>
  <course>0.0</course>
  <speed>0.0</speed>
  <fix>3d</fix>
</trkpt>
<trkpt lat="40.0713751" lon="-105.2297889">
  <ele>1583.06</ele>
  <time>2026-08-28T17:48:31Z</time>
  <course>247.08</course>
  <speed>0.022360679774997897</speed>
  <fix>3d</fix>
</trkpt>
<trkpt lat="40.0713749" lon="-105.229789">
  <ele>1583.0</ele>
  <time>2026-08-28T17:48:31Z</time>
  <course>0.0</course>
  <speed>0.0</speed>
  <fix>3d</fix>
</trkpt>
<trkpt lat="40.0713751" lon="-105.2297889">
  <ele>1583.06</ele>
  <time>2026-08-28T17:48:31Z</time>
  <course>247.08</course>
  <speed>0.022360679774997897</speed>
  <fix>3d</fix>
</trkpt>
<trkpt lat="40.0713749" lon="-105.229789">
  <ele>1583.0</ele>
  <time>2026-08-28T17:48:31Z</time>
  <course>0.0</course>
  <speed>0.0</speed>
  <fix>3d</fix>
</trkpt>
<trkpt lat="40.0713751" lon="-105.2297889">
  <ele>1583.06</ele>
  <time>2026-08-28T17:48:31Z</time>
  <course>247.08</course>
  <speed>0.022360679774997897</speed>
  <fix>3d</fix>
</trkpt>
<trkpt lat="40.0713749" lon="-105.229789">
  <ele>1583.0</ele>
  <time>2026-08-28T17:48:31Z</time>
  <course>0.0</course>
  <speed>0.0</speed>
  <fix>3d</fix>
</trkpt>
<trkpt lat="40.0713751" lon="-105.2297889">
  <ele>1583.06</ele>
  <time>2026-08-28T17:48:31Z</time>
  <course>247.08</course>
  <speed>0.022360679774997897</speed>
  <fix>3d</fix>
</trkpt>
<trkpt lat="40.0713749" lon="-105.229789">
  <ele>1583.0</ele>
  <time>2026-08-28T17:48:31Z</time>
  <course>0.0</course>
  <speed>0.0</speed>
  <fix>3d</fix>
</trkpt>
<trkpt lat="40.0713751" lon="-105.2297889">
  <ele>1583.06</ele>
  <time>2026-08-28T17:48:31Z</time>
  <course>247.08</course>
  <speed>0.022360679774997897</speed>
  <fix>3d</fix>
</trkpt>
<trkpt lat="40.0713749" lon="-105.229789">
  <ele>1583.0</ele>
  <time>2026-08-28T17:48:31Z</time>
  <course>0.0</course>
  <speed>0.0</speed>
  <fix>3d</fix>
</trkpt>
<trkpt lat="40.0713751" lon="-105.2297889">
  <ele>1583.06</ele>
  <time>2026-08-28T17:48:31Z</time>
  <course>247.08</course>
  <speed>0.022360679774997897</speed>
  <fix>3d</fix>
</trkpt>
<trkpt lat="40.0713749" lon="-105.229789">
  <ele>1583.0</ele>
  <time>2026-08-28T17:48:31Z</time>
  <course>0.0</course>
  <speed>0.0</speed>
  <fix>3d</fix>
</trkpt>
<trkpt lat="40.0713751" lon="-105.2297889">
  <ele>1583.06</ele>
  <time>2026-08-28T17:48:31Z</time>
  <course>247.08</course>
  <speed>0.022360679774997897</speed>
  <fix>3d</fix>
</trkpt>
<trkpt lat="40.0713749" lon="-105.229789">
  <ele>1583.0</ele>
  <time>2026-08-28T17:48:31Z</time>
  <course>0.0</course>
  <speed>0.0</speed>
  <fix>3d</fix>
</trkpt>
<trkpt lat="40.0713751" lon="-105.2297889">
  <ele>1583.06</ele>
  <time>2026-08-28T17:48:31Z</time>
  <course>247.08</course>
  <speed>0.022360679774997897</speed>
  <fix>3d</fix>
</trkpt>
<trkpt lat="40.0713749" lon="-105.229789">
  <ele>1583.0</ele>
  <time>2026-08-28T17:48:31Z</time>
  <course>0.0</course>
  <speed>0.0</speed>
  <fix>3d</fix>
</trkpt>
<trkpt lat="40.0713751" lon="-105.2297889">
  <ele>1583.06</ele>
  <time>2026-08-28T17:48:31Z</time>
  <course>247.08</course>
  <speed>0.022360679774997897</speed>
  <fix>3d</fix>
</trkpt>
<trkpt lat="40.0713749" lon="-105.229789">
  <ele>1583.0</ele>
  <time>2026-08-28T17:48:31Z</time>
  <course>0.0</course>
  <speed>0.0</speed>
  <fix>3d</fix>
</trkpt>
<trkpt lat="40.0713751" lon="-105.2297889">
  <ele>1583.06</ele>
  <time>2026-08-28T17:48:31Z</time>
  <course>247.08</course>
  <speed>0.022360679774997897</speed>
  <fix>3d</fix>
</trkpt>
<trkpt lat="40.0713749" lon="-105.229789">
  <ele>1583.0</ele>
  <time>2026-08-28T17:48:31Z</time>
  <course>0.0</course>
  <speed>0.0</speed>
  <fix>3d</fix>
</trkpt>
<trkpt lat="40.0713751" lon="-105.2297889">
  <ele>1583.06</ele>
  <time>2026-08-28T17:48:31Z</time>
  <course>247.08</course>
  <speed>0.022360679774997897</speed>
  <fix>3d</fix>
</trkpt>
<trkpt lat="40.0713749" lon="-105.229789">
  <ele>1583.0</ele>
  <time>2026-08-28T17:48:31Z</time>
  <course>0.0</course>
  <speed>0.0</speed>
  <fix>3d</fix>
</trkpt>
<trkpt lat="40.0713751" lon="-105.2297889">
  <ele>1583.06</ele>
  <time>2026-08-28T17:48:31Z</time>
  <course>247.08</course>
  <speed>0.022360679774997897</speed>
  <fix>3d</fix>
</trkpt>
<trkpt lat="40.0713749" lon="-105.229789">
  <ele>1583.0</ele>
  <time>2026-08-28T17:48:31Z</time>
  <course>0.0</course>
  <speed>0.0</speed>
  <fix>3d</fix>
</trkpt>
<trkpt lat="40.0713751" lon="-105.2297889">
  <ele>1583.06</ele>
  <time>2026-08-28T17:48:31Z</time>
  <course>247.08</course>
  <speed>0.022360679774997897</speed>
  <fix>3d</fix>
</trkpt>
<trkpt lat="40.0713749" lon="-105.229789">
  <ele>1583.0</ele>
  <time>2026-08-28T17:48:31Z</time>
  <course>0.0</course>
  <speed>0.0</speed>
  <fix>3d</fix>
</trkpt>
<trkpt lat="40.0713751" lon="-105.2297889">
  <ele>1583.06</ele>
  <time>2026-08-28T17:48:31Z</time>
  <course>247.08</course>
  <speed>0.022360679774997897</speed>
  <fix>3d</fix>
</trkpt>
<trkpt lat="40.0713749" lon="-105.229789">
  <ele>1583.0</ele>
  <time>2026-08-28T17:48:31Z</time>
  <course>0.0</course>
  <speed>0.0</speed>
  <fix>3d</fix>
</trkpt>
<trkpt lat="40.0713751" lon="-105.2297889">
  <ele>1583.06</ele>
  <time>2026-08-28T17:48:31Z</time>
  <course>247.08</course>
  <speed>0.022360679774997897</speed>
  <fix>3d</fix>
</trkpt>
<trkpt lat="40.0713749" lon="-105.229789">
  <ele>1583.0</ele>
  <time>2026-08-28T17:48:31Z</time>
  <course>0.0</course>
  <speed>0.0</speed>
  <fix>3d</fix>
</trkpt>
<trkpt lat="40.0713751" lon="-105.2297889">
  <ele>1583.06</ele>
  <time>2026-08-28T17:48:31Z</time>
  <course>247.08</course>
  <speed>0.022360679774997897</speed>
  <fix>3d</fix>
</trkpt>
<trkpt lat="40.0713749" lon="-105.229789">
  <ele>1583.0</ele>
  <time>2026-08-28T17:48:31Z</time>
  <course>0.0</course>
  <speed>0.0</speed>
  <fix>3d</fix>
</trkpt>
<trkpt lat="40.0713751" lon="-105.2297889">
  <ele>1583.06</ele>
  <time>2026-08-28T17:48:31Z</time>
  <course>247.08</course>
  <speed>0.022360679774997897</speed>
  <fix>3d</fix>
</trkpt>
<trkpt lat="40.0713749" lon="-105.229789">
  <ele>1583.0</ele>
  <time>2026-08-28T17:48:31Z</time>
  <course>0.0</course>
  <speed>0.0</speed>
  <fix>3d</fix>
</trkpt>
<trkpt lat="40.0713751" lon="-105.2297889">
  <ele>1583.07</ele>
  <time>2026-08-28T17:48:31Z</time>
  <course>247.08</course>
  <speed>0.022360679774997897</speed>
  <fix>3d</fix>
</trkpt>
<trkpt lat="40.0713749" lon="-105.229789">
  <ele>1583.0</ele>
  <time>2026-08-28T17:48:31Z</time>
  <course>0.0</course>
  <speed>0.0</speed>
  <fix>3d</fix>
</trkpt>
<trkpt lat="40.0713751" lon="-105.2297889">
  <ele>1583.07</ele>
  <time>2026-08-28T17:48:31Z</time>
  <course>247.08</course>
  <speed>0.022360679774997897</speed>
  <fix>3d</fix>
</trkpt>
<trkpt lat="40.0713749" lon="-105.229789">
  <ele>1583.0</ele>
  <time>2026-08-28T17:48:31Z</time>
  <course>0.0</course>
  <speed>0.0</speed>
  <fix>3d</fix>
</trkpt>
<trkpt lat="40.0713751" lon="-105.2297889">
  <ele>1583.07</ele>
  <time>2026-08-28T17:48:31Z</time>
  <course>247.08</course>
  <speed>0.022360679774997897</speed>
  <fix>3d</fix>
</trkpt>
<trkpt lat="40.0713749" lon="-105.229789">
  <ele>1583.0</ele>
  <time>2026-08-28T17:48:31Z</time>
  <course>0.0</course>
  <speed>0.0</speed>
  <fix>3d</fix>
</trkpt>
<trkpt lat="40.0713751" lon="-105.2297889">
  <ele>1583.07</ele>
  <time>2026-08-28T17:48:31Z</time>
  <course>247.08</course>
  <speed>0.022360679774997897</speed>
  <fix>3d</fix>
</trkpt>
<trkpt lat="40.0713749" lon="-105.229789">
  <ele>1583.0</ele>
  <time>2026-08-28T17:48:31Z</time>
  <course>0.0</course>
  <speed>0.0</speed>
  <fix>3d</fix>
</trkpt>
<trkpt lat="40.0713751" lon="-105.2297889">
  <ele>1583.07</ele>
  <time>2026-08-28T17:48:31Z</time>
  <course>247.08</course>
  <speed>0.022360679774997897</speed>
  <fix>3d</fix>
</trkpt>
<trkpt lat="40.0713749" lon="-105.229789">
  <ele>1583.0</ele>
  <time>2026-08-28T17:48:31Z</time>
  <course>0.0</course>
  <speed>0.0</speed>
  <fix>3d</fix>
</trkpt>
<trkpt lat="40.0713751" lon="-105.2297889">
  <ele>1583.07</ele>
  <time>2026-08-28T17:48:31Z</time>
  <course>247.08</course>
  <speed>0.022360679774997897</speed>
  <fix>3d</fix>
</trkpt>
<trkpt lat="40.0713749" lon="-105.229789">
  <ele>1583.0</ele>
  <time>2026-08-28T17:48:31Z</time>
  <course>0.0</course>
  <speed>0.0</speed>
  <fix>3d</fix>
</trkpt>
<trkpt lat="40.0713751" lon="-105.2297889">
  <ele>1583.08</ele>
  <time>2026-08-28T17:48:31Z</time>
  <course>247.08</course>
  <speed>0.022360679774997897</speed>
  <fix>3d</fix>
</trkpt>
<trkpt lat="40.0713749" lon="-105.229789">
  <ele>1583.0</ele>
  <time>2026-08-28T17:48:31Z</time>
  <course>0.0</course>
  <speed>0.0</speed>
  <fix>3d</fix>
</trkpt>
<trkpt lat="40.0713751" lon="-105.2297889">
  <ele>1583.08</ele>
  <time>2026-08-28T17:48:31Z</time>
  <course>247.08</course>
  <speed>0.022360679774997897</speed>
  <fix>3d</fix>
</trkpt>
<trkpt lat="40.0713749" lon="-105.229789">
  <ele>1583.0</ele>
  <time>2026-08-28T17:48:31Z</time>
  <course>0.0</course>
  <speed>0.0</speed>
  <fix>3d</fix>
</trkpt>
<trkpt lat="40.0713751" lon="-105.2297889">
  <ele>1583.09</ele>
  <time>2026-08-28T17:48:31Z</time>
  <course>247.08</course>
  <speed>0.022360679774997897</speed>
  <fix>3d</fix>
</trkpt>
<trkpt lat="40.0713749" lon="-105.229789">
  <ele>1583.0</ele>
  <time>2026-08-28T17:48:31Z</time>
  <course>0.0</course>
  <speed>0.0</speed>
  <fix>3d</fix>
</trkpt>
<trkpt lat="40.0713751" lon="-105.2297889">
  <ele>1583.1</ele>
  <time>2026-08-28T17:48:31Z</time>
  <course>247.08</course>
  <speed>0.022360679774997897</speed>
  <fix>3d</fix>
</trkpt>
<trkpt lat="40.0713749" lon="-105.229789">
  <ele>1583.0</ele>
  <time>2026-08-28T17:48:31Z</time>
  <course>0.0</course>
  <speed>0.0</speed>
  <fix>3d</fix>
</trkpt>
<trkpt lat="40.0713751" lon="-105.2297889">
  <ele>1583.1</ele>
  <time>2026-08-28T17:48:31Z</time>
  <course>247.08</course>
  <speed>0.022360679774997897</speed>
  <fix>3d</fix>
</trkpt>
<trkpt lat="40.0713749" lon="-105.229789">
  <ele>1583.0</ele>
  <time>2026-08-28T17:48:31Z</time>
  <course>0.0</course>
  <speed>0.0</speed>
  <fix>3d</fix>
</trkpt>
<trkpt lat="40.0713751" lon="-105.2297889">
  <ele>1583.1</ele>
  <time>2026-08-28T17:48:31Z</time>
  <course>247.08</course>
  <speed>0.022360679774997897</speed>
  <fix>3d</fix>
</trkpt>
<trkpt lat="40.0713749" lon="-105.229789">
  <ele>1583.0</ele>
  <time>2026-08-28T17:48:31Z</time>
  <course>0.0</course>
  <speed>0.0</speed>
  <fix>3d</fix>
</trkpt>
<trkpt lat="40.0713751" lon="-105.2297889">
  <ele>1583.11</ele>
  <time>2026-08-28T17:48:31Z</time>
  <course>247.08</course>
  <speed>0.022360679774997897</speed>
  <fix>3d</fix>
</trkpt>
<trkpt lat="40.0713749" lon="-105.229789">
  <ele>1583.0</ele>
  <time>2026-08-28T17:48:31Z</time>
  <course>0.0</course>
  <speed>0.0</speed>
  <fix>3d</fix>
</trkpt>
<trkpt lat="40.0713751" lon="-105.2297889">
  <ele>1583.12</ele>
  <time>2026-08-28T17:48:31Z</time>
  <course>247.08</course>
  <speed>0.022360679774997897</speed>
  <fix>3d</fix>
</trkpt>
<trkpt lat="40.0713749" lon="-105.229789">
  <ele>1583.0</ele>
  <time>2026-08-28T17:48:31Z</time>
  <course>0.0</course>
  <speed>0.0</speed>
  <fix>3d</fix>
</trkpt>
<trkpt lat="40.0713751" lon="-105.2297889">
  <ele>1583.12</ele>
  <time>2026-08-28T17:48:31Z</time>
  <course>247.08</course>
  <speed>0.022360679774997897</speed>
  <fix>3d</fix>
</trkpt>
<trkpt lat="40.0713749" lon="-105.229789">
  <ele>1583.0</ele>
  <time>2026-08-28T17:48:31Z</time>
  <course>0.0</course>
  <speed>0.0</speed>
  <fix>3d</fix>
</trkpt>
<trkpt lat="40.0713751" lon="-105.2297889">
  <ele>1583.13</ele>
  <time>2026-08-28T17:48:31Z</time>
  <course>247.08</course>
  <speed>0.022360679774997897</speed>
  <fix>3d</fix>
</trkpt>
<trkpt lat="40.0713749" lon="-105.229789">
  <ele>1583.0</ele>
  <time>2026-08-28T17:48:31Z</time>
  <course>0.0</course>
  <speed>0.0</speed>
  <fix>3d</fix>
</trkpt>
<trkpt lat="40.0713751" lon="-105.2297889">
  <ele>1583.13</ele>
  <time>2026-08-28T17:48:31Z</time>
  <course>247.08</course>
  <speed>0.022360679774997897</speed>
  <fix>3d</fix>
</trkpt>
<trkpt lat="40.0713749" lon="-105.229789">
  <ele>1583.0</ele>
  <time>2026-08-28T17:48:31Z</time>
  <course>0.0</course>
  <speed>0.0</speed>
  <fix>3d</fix>
</trkpt>
<trkpt lat="40.0713751" lon="-105.2297889">
  <ele>1583.13</ele>
  <time>2026-08-28T17:48:31Z</time>
  <course>247.08</course>
  <speed>0.022360679774997897</speed>
  <fix>3d</fix>
</trkpt>
<trkpt lat="40.0713749" lon="-105.229789">
  <ele>1583.0</ele>
  <time>2026-08-28T17:48:31Z</time>
  <course>0.0</course>
  <speed>0.0</speed>
  <fix>3d</fix>
</trkpt>
<trkpt lat="40.0713751" lon="-105.2297889">
  <ele>1583.13</ele>
  <time>2026-08-28T17:48:31Z</time>
  <course>247.08</course>
  <speed>0.022360679774997897</speed>
  <fix>3d</fix>
</trkpt>
<trkpt lat="40.0713749" lon="-105.229789">
  <ele>1583.0</ele>
  <time>2026-08-28T17:48:31Z</time>
  <course>0.0</course>
  <speed>0.0</speed>
  <fix>3d</fix>
</trkpt>
<trkpt lat="40.0713751" lon="-105.2297889">
  <ele>1583.13</ele>
  <time>2026-08-28T17:48:31Z</time>
  <course>247.08</course>
  <speed>0.022360679774997897</speed>
  <fix>3d</fix>
</trkpt>
<trkpt lat="40.0713749" lon="-105.229789">
  <ele>1583.0</ele>
  <time>2026-08-28T17:48:31Z</time>
  <course>0.0</course>
  <speed>0.0</speed>
  <fix>3d</fix>
</trkpt>
<trkpt lat="40.0713751" lon="-105.2297889">
  <ele>1583.13</ele>
  <time>2026-08-28T17:48:31Z</time>
  <course>247.08</course>
  <speed>0.022360679774997897</speed>
  <fix>3d</fix>
</trkpt>
<trkpt lat="40.0713749" lon="-105.229789">
  <ele>1583.0</ele>
  <time>2026-08-28T17:48:31Z</time>
  <course>0.0</course>
  <speed>0.0</speed>
  <fix>3d</fix>
</trkpt>
<trkpt lat="40.0713751" lon="-105.2297889">
  <ele>1583.13</ele>
  <time>2026-08-28T17:48:31Z</time>
  <course>247.08</course>
  <speed>0.022360679774997897</speed>
  <fix>3d</fix>
</trkpt>
<trkpt lat="40.0713749" lon="-105.229789">
  <ele>1583.0</ele>
  <time>2026-08-28T17:48:31Z</time>
  <course>0.0</course>
  <speed>0.0</speed>
  <fix>3d</fix>
</trkpt>
<trkpt lat="40.0713751" lon="-105.2297889">
  <ele>1583.13</ele>
  <time>2026-08-28T17:48:31Z</time>
  <course>247.08</course>
  <speed>0.022360679774997897</speed>
  <fix>3d</fix>
</trkpt>
<trkpt lat="40.0713749" lon="-105.229789">
  <ele>1583.0</ele>
  <time>2026-08-28T17:48:31Z</time>
  <course>0.0</course>
  <speed>0.0</speed>
  <fix>3d</fix>
</trkpt>
<trkpt lat="40.0713751" lon="-105.2297889">
  <ele>1583.13</ele>
  <time>2026-08-28T17:48:31Z</time>
  <course>247.08</course>
  <speed>0.022360679774997897</speed>
  <fix>3d</fix>
</trkpt>
<trkpt lat="40.0713749" lon="-105.229789">
  <ele>1583.0</ele>
  <time>2026-08-28T17:48:31Z</time>
  <course>0.0</course>
  <speed>0.0</speed>
  <fix>3d</fix>
</trkpt>
<trkpt lat="40.0713751" lon="-105.2297889">
  <ele>1583.13</ele>
  <time>2026-08-28T17:48:31Z</time>
  <course>247.08</course>
  <speed>0.022360679774997897</speed>
  <fix>3d</fix>
</trkpt>
<trkpt lat="40.0713749" lon="-105.229789">
  <ele>1583.0</ele>
  <time>2026-08-28T17:48:31Z</time>
  <course>0.0</course>
  <speed>0.0</speed>
  <fix>3d</fix>
</trkpt>
<trkpt lat="40.0713751" lon="-105.2297889">
  <ele>1583.13</ele>
  <time>2026-08-28T17:48:31Z</time>
  <course>247.08</course>
  <speed>0.022360679774997897</speed>
  <fix>3d</fix>
</trkpt>
<trkpt lat="40.0713749" lon="-105.229789">
  <ele>1583.0</ele>
  <time>2026-08-28T17:48:31Z</time>
  <course>0.0</course>
  <speed>0.0</speed>
  <fix>3d</fix>
</trkpt>
<trkpt lat="40.0713751" lon="-105.2297889">
  <ele>1583.13</ele>
  <time>2026-08-28T17:48:31Z</time>
  <course>247.08</course>
  <speed>0.022360679774997897</speed>
  <fix>3d</fix>
</trkpt>
<trkpt lat="40.0713749" lon="-105.229789">
  <ele>1583.0</ele>
  <time>2026-08-28T17:48:31Z</time>
  <course>0.0</course>
  <speed>0.0</speed>
  <fix>3d</fix>
</trkpt>
<trkpt lat="40.0713751" lon="-105.2297889">
  <ele>1583.12</ele>
  <time>2026-08-28T17:48:31Z</time>
  <course>247.08</course>
  <speed>0.022360679774997897</speed>
  <fix>3d</fix>
</trkpt>
<trkpt lat="40.0713749" lon="-105.229789">
  <ele>1583.0</ele>
  <time>2026-08-28T17:48:31Z</time>
  <course>0.0</course>
  <speed>0.0</speed>
  <fix>3d</fix>
</trkpt>
<trkpt lat="40.0713751" lon="-105.2297889">
  <ele>1583.12</ele>
  <time>2026-08-28T17:48:31Z</time>
  <course>247.08</course>
  <speed>0.022360679774997897</speed>
  <fix>3d</fix>
</trkpt>
<trkpt lat="40.0713749" lon="-105.229789">
  <ele>1583.0</ele>
  <time>2026-08-28T17:48:31Z</time>
  <course>0.0</course>
  <speed>0.0</speed>
  <fix>3d</fix>
</trkpt>
<trkpt lat="40.0713751" lon="-105.2297889">
  <ele>1583.11</ele>
  <time>2026-08-28T17:48:31Z</time>
  <course>247.08</course>
  <speed>0.022360679774997897</speed>
  <fix>3d</fix>
</trkpt>
<trkpt lat="40.0713749" lon="-105.229789">
  <ele>1583.0</ele>
  <time>2026-08-28T17:48:31Z</time>
  <course>0.0</course>
  <speed>0.0</speed>
  <fix>3d</fix>
</trkpt>
<trkpt lat="40.0713751" lon="-105.2297889">
  <ele>1583.1</ele>
  <time>2026-08-28T17:48:31Z</time>
  <course>247.08</course>
  <speed>0.022360679774997897</speed>
  <fix>3d</fix>
</trkpt>
<trkpt lat="40.0713749" lon="-105.229789">
  <ele>1583.0</ele>
  <time>2026-08-28T17:48:31Z</time>
  <course>0.0</course>
  <speed>0.0</speed>
  <fix>3d</fix>
</trkpt>
<trkpt lat="40.0713751" lon="-105.2297889">
  <ele>1583.1</ele>
  <time>2026-08-28T17:48:31Z</time>
  <course>247.08</course>
  <speed>0.022360679774997897</speed>
  <fix>3d</fix>
</trkpt>
<trkpt lat="40.0713749" lon="-105.229789">
  <ele>1583.0</ele>
  <time>2026-08-28T17:48:31Z</time>
  <course>0.0</course>
  <speed>0.0</speed>
  <fix>3d</fix>
</trkpt>
<trkpt lat="40.0713751" lon="-105.2297889">
  <ele>1583.09</ele>
  <time>2026-08-28T17:48:31Z</time>
  <course>247.08</course>
  <speed>0.022360679774997897</speed>
  <fix>3d</fix>
</trkpt>
<trkpt lat="40.0713749" lon="-105.229789">
  <ele>1583.0</ele>
  <time>2026-08-28T17:48:31Z</time>
  <course>0.0</course>
  <speed>0.0</speed>
  <fix>3d</fix>
</trkpt>
<trkpt lat="40.0713751" lon="-105.2297889">
  <ele>1583.08</ele>
  <time>2026-08-28T17:48:31Z</time>
  <course>247.09</course>
  <speed>0.022360679774997897</speed>
  <fix>3d</fix>
</trkpt>
<trkpt lat="40.0713749" lon="-105.229789">
  <ele>1583.0</ele>
  <time>2026-08-28T17:48:31Z</time>
  <course>0.0</course>
  <speed>0.0</speed>
  <fix>3d</fix>
</trkpt>
<trkpt lat="40.0713751" lon="-105.2297889">
  <ele>1583.07</ele>
  <time>2026-08-28T17:48:31Z</time>
  <course>247.09</course>
  <speed>0.022360679774997897</speed>
  <fix>3d</fix>
</trkpt>
<trkpt lat="40.0713749" lon="-105.229789">
  <ele>1583.0</ele>
  <time>2026-08-28T17:48:31Z</time>
  <course>0.0</course>
  <speed>0.0</speed>
  <fix>3d</fix>
</trkpt>
<trkpt lat="40.0713751" lon="-105.2297889">
  <ele>1583.06</ele>
  <time>2026-08-28T17:48:31Z</time>
  <course>247.09</course>
  <speed>0.022360679774997897</speed>
  <fix>3d</fix>
</trkpt>
<trkpt lat="40.0713749" lon="-105.229789">
  <ele>1583.0</ele>
  <time>2026-08-28T17:48:31Z</time>
  <course>0.0</course>
  <speed>0.0</speed>
  <fix>3d</fix>
</trkpt>
<trkpt lat="40.0713751" lon="-105.2297889">
  <ele>1583.06</ele>
  <time>2026-08-28T17:48:31Z</time>
  <course>247.09</course>
  <speed>0.022360679774997897</speed>
  <fix>3d</fix>
</trkpt>
<trkpt lat="40.0713749" lon="-105.229789">
  <ele>1583.0</ele>
  <time>2026-08-28T17:48:31Z</time>
  <course>0.0</course>
  <speed>0.0</speed>
  <fix>3d</fix>
</trkpt>
<trkpt lat="40.0713751" lon="-105.2297889">
  <ele>1583.05</ele>
  <time>2026-08-28T17:48:31Z</time>
  <course>247.09</course>
  <speed>0.022360679774997897</speed>
  <fix>3d</fix>
</trkpt>
<trkpt lat="40.0713749" lon="-105.229789">
  <ele>1583.0</ele>
  <time>2026-08-28T17:48:31Z</time>
  <course>0.0</course>
  <speed>0.0</speed>
  <fix>3d</fix>
</trkpt>
<trkpt lat="40.0713751" lon="-105.2297889">
  <ele>1583.05</ele>
  <time>2026-08-28T17:48:31Z</time>
  <course>247.09</course>
  <speed>0.022360679774997897</speed>
  <fix>3d</fix>
</trkpt>
<trkpt lat="40.0713749" lon="-105.229789">
  <ele>1583.0</ele>
  <time>2026-08-28T17:48:31Z</time>
  <course>0.0</course>
  <speed>0.0</speed>
  <fix>3d</fix>
</trkpt>
<trkpt lat="40.0713751" lon="-105.2297889">
  <ele>1583.05</ele>
  <time>2026-08-28T17:48:31Z</time>
  <course>247.09</course>
  <speed>0.022360679774997897</speed>
  <fix>3d</fix>
</trkpt>
<trkpt lat="40.0713749" lon="-105.229789">
  <ele>1583.0</ele>
  <time>2026-08-28T17:48:31Z</time>
  <course>0.0</course>
  <speed>0.0</speed>
  <fix>3d</fix>
</trkpt>
<trkpt lat="40.0713751" lon="-105.2297889">
  <ele>1583.05</ele>
  <time>2026-08-28T17:48:31Z</time>
  <course>247.09</course>
  <speed>0.022360679774997897</speed>
  <fix>3d</fix>
</trkpt>
<trkpt lat="40.0713749" lon="-105.229789">
  <ele>1583.0</ele>
  <time>2026-08-28T17:48:31Z</time>
  <course>0.0</course>
  <speed>0.0</speed>
  <fix>3d</fix>
</trkpt>
<trkpt lat="40.0713751" lon="-105.2297889">
  <ele>1583.05</ele>
  <time>2026-08-28T17:48:31Z</time>
  <course>247.09</course>
  <speed>0.022360679774997897</speed>
  <fix>3d</fix>
</trkpt>
<trkpt lat="40.0713749" lon="-105.229789">
  <ele>1583.0</ele>
  <time>2026-08-28T17:48:31Z</time>
  <course>0.0</course>
  <speed>0.0</speed>
  <fix>3d</fix>
</trkpt>
<trkpt lat="40.0713751" lon="-105.2297889">
  <ele>1583.06</ele>
  <time>2026-08-28T17:48:31Z</time>
  <course>247.09</course>
  <speed>0.022360679774997897</speed>
  <fix>3d</fix>
</trkpt>
<trkpt lat="40.0713749" lon="-105.229789">
  <ele>1583.0</ele>
  <time>2026-08-28T17:48:31Z</time>
  <course>0.0</course>
  <speed>0.0</speed>
  <fix>3d</fix>
</trkpt>
<trkpt lat="40.0713751" lon="-105.2297889">
  <ele>1583.06</ele>
  <time>2026-08-28T17:48:31Z</time>
  <course>247.09</course>
  <speed>0.022360679774997897</speed>
  <fix>3d</fix>
</trkpt>
<trkpt lat="40.0713749" lon="-105.229789">
  <ele>1583.0</ele>
  <time>2026-08-28T17:48:31Z</time>
  <course>0.0</course>
  <speed>0.0</speed>
  <fix>3d</fix>
</trkpt>
<trkpt lat="40.0713751" lon="-105.2297889">
  <ele>1583.06</ele>
  <time>2026-08-28T17:48:31Z</time>
  <course>247.09</course>
  <speed>0.022360679774997897</speed>
  <fix>3d</fix>
</trkpt>
<trkpt lat="40.0713749" lon="-105.229789">
  <ele>1583.0</ele>
  <time>2026-08-28T17:48:31Z</time>
  <course>0.0</course>
  <speed>0.0</speed>
  <fix>3d</fix>
</trkpt>
<trkpt lat="40.0713751" lon="-105.2297889">
  <ele>1583.07</ele>
  <time>2026-08-28T17:48:31Z</time>
  <course>247.09</course>
  <speed>0.022360679774997897</speed>
  <fix>3d</fix>
</trkpt>
<trkpt lat="40.0713749" lon="-105.229789">
  <ele>1583.0</ele>
  <time>2026-08-28T17:48:31Z</time>
  <course>0.0</course>
  <speed>0.0</speed>
  <fix>3d</fix>
</trkpt>
<trkpt lat="40.0713751" lon="-105.2297889">
  <ele>1583.07</ele>
  <time>2026-08-28T17:48:31Z</time>
  <course>247.09</course>
  <speed>0.022360679774997897</speed>
  <fix>3d</fix>
</trkpt>
<trkpt lat="40.0713749" lon="-105.229789">
  <ele>1583.0</ele>
  <time>2026-08-28T17:48:31Z</time>
  <course>0.0</course>
  <speed>0.0</speed>
  <fix>3d</fix>
</trkpt>
<trkpt lat="40.0713751" lon="-105.2297889">
  <ele>1583.06</ele>
  <time>2026-08-28T17:48:31Z</time>
  <course>247.09</course>
  <speed>0.022360679774997897</speed>
  <fix>3d</fix>
</trkpt>
<trkpt lat="40.0713749" lon="-105.229789">
  <ele>1583.0</ele>
  <time>2026-08-28T17:48:31Z</time>
  <course>0.0</course>
  <speed>0.0</speed>
  <fix>3d</fix>
</trkpt>
<trkpt lat="40.0713751" lon="-105.2297889">
  <ele>1583.06</ele>
  <time>2026-08-28T17:48:31Z</time>
  <course>247.09</course>
  <speed>0.022360679774997897</speed>
  <fix>3d</fix>
</trkpt>
<trkpt lat="40.0713749" lon="-105.229789">
  <ele>1583.0</ele>
  <time>2026-08-28T17:48:31Z</time>
  <course>0.0</course>
  <speed>0.0</speed>
  <fix>3d</fix>
</trkpt>
<trkpt lat="40.0713751" lon="-105.2297889">
  <ele>1583.06</ele>
  <time>2026-08-28T17:48:31Z</time>
  <course>247.09</course>
  <speed>0.022360679774997897</speed>
  <fix>3d</fix>
</trkpt>
<trkpt lat="40.0713749" lon="-105.229789">
  <ele>1583.0</ele>
  <time>2026-08-28T17:48:31Z</time>
  <course>0.0</course>
  <speed>0.0</speed>
  <fix>3d</fix>
</trkpt>
<trkpt lat="40.0713751" lon="-105.2297889">
  <ele>1583.05</ele>
  <time>2026-08-28T17:48:31Z</time>
  <course>247.09</course>
  <speed>0.022360679774997897</speed>
  <fix>3d</fix>
</trkpt>
<trkpt lat="40.0713749" lon="-105.229789">
  <ele>1583.0</ele>
  <time>2026-08-28T17:48:31Z</time>
  <course>0.0</course>
  <speed>0.0</speed>
  <fix>3d</fix>
</trkpt>
<trkpt lat="40.0713751" lon="-105.2297889">
  <ele>1583.05</ele>
  <time>2026-08-28T17:48:31Z</time>
  <course>247.09</course>
  <speed>0.022360679774997897</speed>
  <fix>3d</fix>
</trkpt>
<trkpt lat="40.0713749" lon="-105.229789">
  <ele>1583.0</ele>
  <time>2026-08-28T17:48:31Z</time>
  <course>0.0</course>
  <speed>0.0</speed>
  <fix>3d</fix>
</trkpt>
<trkpt lat="40.0713751" lon="-105.2297889">
  <ele>1583.05</ele>
  <time>2026-08-28T17:48:31Z</time>
  <course>247.09</course>
  <speed>0.022360679774997897</speed>
  <fix>3d</fix>
</trkpt>
<trkpt lat="40.0713749" lon="-105.229789">
  <ele>1583.0</ele>
  <time>2026-08-28T17:48:31Z</time>
  <course>0.0</course>
  <speed>0.0</speed>
  <fix>3d</fix>
</trkpt>
<trkpt lat="40.0713751" lon="-105.2297889">
  <ele>1583.05</ele>
  <time>2026-08-28T17:48:31Z</time>
  <course>247.09</course>
  <speed>0.022360679774997897</speed>
  <fix>3d</fix>
</trkpt>
<trkpt lat="40.0713749" lon="-105.229789">
  <ele>1583.0</ele>
  <time>2026-08-28T17:48:31Z</time>
  <course>0.0</course>
  <speed>0.0</speed>
  <fix>3d</fix>
</trkpt>
<trkpt lat="40.0713751" lon="-105.2297889">
  <ele>1583.05</ele>
  <time>2026-08-28T17:48:31Z</time>
  <course>247.09</course>
  <speed>0.022360679774997897</speed>
  <fix>3d</fix>
</trkpt>
<trkpt lat="40.0713749" lon="-105.229789">
  <ele>1583.0</ele>
  <time>2026-08-28T17:48:31Z</time>
  <course>0.0</course>
  <speed>0.0</speed>
  <fix>3d</fix>
</trkpt>
<trkpt lat="40.0713751" lon="-105.2297889">
  <ele>1583.05</ele>
  <time>2026-08-28T17:48:31Z</time>
  <course>247.09</course>
  <speed>0.022360679774997897</speed>
  <fix>3d</fix>
</trkpt>
<trkpt lat="40.0713749" lon="-105.229789">
  <ele>1583.0</ele>
  <time>2026-08-28T17:48:31Z</time>
  <course>0.0</course>
  <speed>0.0</speed>
  <fix>3d</fix>
</trkpt>
<trkpt lat="40.0713751" lon="-105.2297889">
  <ele>1583.04</ele>
  <time>2026-08-28T17:48:31Z</time>
  <course>247.09</course>
  <speed>0.022360679774997897</speed>
  <fix>3d</fix>
</trkpt>
<trkpt lat="40.0713749" lon="-105.229789">
  <ele>1583.0</ele>
  <time>2026-08-28T17:48:31Z</time>
  <course>0.0</course>
  <speed>0.0</speed>
  <fix>3d</fix>
</trkpt>
<trkpt lat="40.0713751" lon="-105.2297889">
  <ele>1583.04</ele>
  <time>2026-08-28T17:48:31Z</time>
  <course>247.09</course>
  <speed>0.022360679774997897</speed>
  <fix>3d</fix>
</trkpt>
<trkpt lat="40.0713749" lon="-105.229789">
  <ele>1583.0</ele>
  <time>2026-08-28T17:48:31Z</time>
  <course>0.0</course>
  <speed>0.0</speed>
  <fix>3d</fix>
</trkpt>
<trkpt lat="40.0713751" lon="-105.2297889">
  <ele>1583.04</ele>
  <time>2026-08-28T17:48:31Z</time>
  <course>247.09</course>
  <speed>0.022360679774997897</speed>
  <fix>3d</fix>
</trkpt>
<trkpt lat="40.0713749" lon="-105.229789">
  <ele>1583.0</ele>
  <time>2026-08-28T17:48:31Z</time>
  <course>0.0</course>
  <speed>0.0</speed>
  <fix>3d</fix>
</trkpt>
<trkpt lat="40.0713751" lon="-105.2297889">
  <ele>1583.04</ele>
  <time>2026-08-28T17:48:31Z</time>
  <course>247.09</course>
  <speed>0.022360679774997897</speed>
  <fix>3d</fix>
</trkpt>
<trkpt lat="40.0713749" lon="-105.229789">
  <ele>1583.0</ele>
  <time>2026-08-28T17:48:31Z</time>
  <course>0.0</course>
  <speed>0.0</speed>
  <fix>3d</fix>
</trkpt>
<trkpt lat="40.0713751" lon="-105.2297889">
  <ele>1583.04</ele>
  <time>2026-08-28T17:48:31Z</time>
  <course>247.09</course>
  <speed>0.022360679774997897</speed>
  <fix>3d</fix>
</trkpt>
<trkpt lat="40.0713749" lon="-105.229789">
  <ele>1583.0</ele>
  <time>2026-08-28T17:48:31Z</time>
  <course>0.0</course>
  <speed>0.0</speed>
  <fix>3d</fix>
</trkpt>
<trkpt lat="40.0713751" lon="-105.2297889">
  <ele>1583.04</ele>
  <time>2026-08-28T17:48:31Z</time>
  <course>247.09</course>
  <speed>0.022360679774997897</speed>
  <fix>3d</fix>
</trkpt>
<trkpt lat="40.0713749" lon="-105.229789">
  <ele>1583.0</ele>
  <time>2026-08-28T17:48:31Z</time>
  <course>0.0</course>
  <speed>0.0</speed>
  <fix>3d</fix>
</trkpt>
<trkpt lat="40.0713751" lon="-105.2297889">
  <ele>1583.04</ele>
  <time>2026-08-28T17:48:31Z</time>
  <course>247.09</course>
  <speed>0.022360679774997897</speed>
  <fix>3d</fix>
</trkpt>
<trkpt lat="40.0713749" lon="-105.229789">
  <ele>1583.0</ele>
  <time>2026-08-28T17:48:31Z</time>
  <course>0.0</course>
  <speed>0.0</speed>
  <fix>3d</fix>
</trkpt>
<trkpt lat="40.0713751" lon="-105.2297889">
  <ele>1583.04</ele>
  <time>2026-08-28T17:48:31Z</time>
  <course>247.09</course>
  <speed>0.022360679774997897</speed>
  <fix>3d</fix>
</trkpt>
<trkpt lat="40.0713749" lon="-105.229789">
  <ele>1583.0</ele>
  <time>2026-08-28T17:48:31Z</time>
  <course>0.0</course>
  <speed>0.0</speed>
  <fix>3d</fix>
</trkpt>
<trkpt lat="40.0713751" lon="-105.2297889">
  <ele>1583.04</ele>
  <time>2026-08-28T17:48:31Z</time>
  <course>247.09</course>
  <speed>0.022360679774997897</speed>
  <fix>3d</fix>
</trkpt>
<trkpt lat="40.0713749" lon="-105.229789">
  <ele>1583.0</ele>
  <time>2026-08-28T17:48:31Z</time>
  <course>0.0</course>
  <speed>0.0</speed>
  <fix>3d</fix>
</trkpt>
<trkpt lat="40.0713751" lon="-105.2297889">
  <ele>1583.03</ele>
  <time>2026-08-28T17:48:31Z</time>
  <course>247.09</course>
  <speed>0.022360679774997897</speed>
  <fix>3d</fix>
</trkpt>
<trkpt lat="40.0713749" lon="-105.229789">
  <ele>1583.0</ele>
  <time>2026-08-28T17:48:31Z</time>
  <course>0.0</course>
  <speed>0.0</speed>
  <fix>3d</fix>
</trkpt>
<trkpt lat="40.0713751" lon="-105.2297889">
  <ele>1583.04</ele>
  <time>2026-08-28T17:48:31Z</time>
  <course>247.09</course>
  <speed>0.022360679774997897</speed>
  <fix>3d</fix>
</trkpt>
<trkpt lat="40.0713749" lon="-105.229789">
  <ele>1583.0</ele>
  <time>2026-08-28T17:48:31Z</time>
  <course>0.0</course>
  <speed>0.0</speed>
  <fix>3d</fix>
</trkpt>
<trkpt lat="40.0713751" lon="-105.2297889">
  <ele>1583.04</ele>
  <time>2026-08-28T17:48:31Z</time>
  <course>247.09</course>
  <speed>0.022360679774997897</speed>
  <fix>3d</fix>
</trkpt>
<trkpt lat="40.0713749" lon="-105.229789">
  <ele>1583.0</ele>
  <time>2026-08-28T17:48:31Z</time>
  <course>0.0</course>
  <speed>0.0</speed>
  <fix>3d</fix>
</trkpt>
<trkpt lat="40.0713751" lon="-105.2297889">
  <ele>1583.05</ele>
  <time>2026-08-28T17:48:31Z</time>
  <course>247.09</course>
  <speed>0.022360679774997897</speed>
  <fix>3d</fix>
</trkpt>
<trkpt lat="40.0713749" lon="-105.229789">
  <ele>1583.0</ele>
  <time>2026-08-28T17:48:31Z</time>
  <course>0.0</course>
  <speed>0.0</speed>
  <fix>3d</fix>
</trkpt>
<trkpt lat="40.0713751" lon="-105.2297889">
  <ele>1583.05</ele>
  <time>2026-08-28T17:48:31Z</time>
  <course>247.09</course>
  <speed>0.022360679774997897</speed>
  <fix>3d</fix>
</trkpt>
<trkpt lat="40.0713749" lon="-105.229789">
  <ele>1583.0</ele>
  <time>2026-08-28T17:48:31Z</time>
  <course>0.0</course>
  <speed>0.0</speed>
  <fix>3d</fix>
</trkpt>
<trkpt lat="40.0713751" lon="-105.2297889">
  <ele>1583.06</ele>
  <time>2026-08-28T17:48:31Z</time>
  <course>247.09</course>
  <speed>0.022360679774997897</speed>
  <fix>3d</fix>
</trkpt>
<trkpt lat="40.0713749" lon="-105.229789">
  <ele>1583.0</ele>
  <time>2026-08-28T17:48:31Z</time>
  <course>0.0</course>
  <speed>0.0</speed>
  <fix>3d</fix>
</trkpt>
<trkpt lat="40.0713751" lon="-105.2297889">
  <ele>1583.06</ele>
  <time>2026-08-28T17:48:31Z</time>
  <course>247.09</course>
  <speed>0.022360679774997897</speed>
  <fix>3d</fix>
</trkpt>
<trkpt lat="40.0713749" lon="-105.229789">
  <ele>1583.0</ele>
  <time>2026-08-28T17:48:31Z</time>
  <course>0.0</course>
  <speed>0.0</speed>
  <fix>3d</fix>
</trkpt>
<trkpt lat="40.0713751" lon="-105.2297889">
  <ele>1583.06</ele>
  <time>2026-08-28T17:48:31Z</time>
  <course>247.09</course>
  <speed>0.022360679774997897</speed>
  <fix>3d</fix>
</trkpt>
<trkpt lat="40.0713749" lon="-105.229789">
  <ele>1583.0</ele>
  <time>2026-08-28T17:48:31Z</time>
  <course>0.0</course>
  <speed>0.0</speed>
  <fix>3d</fix>
</trkpt>
<trkpt lat="40.0713751" lon="-105.2297889">
  <ele>1583.06</ele>
  <time>2026-08-28T17:48:31Z</time>
  <course>247.09</course>
  <speed>0.022360679774997897</speed>
  <fix>3d</fix>
</trkpt>
<trkpt lat="40.0713749" lon="-105.229789">
  <ele>1583.0</ele>
  <time>2026-08-28T17:48:31Z</time>
  <course>0.0</course>
  <speed>0.0</speed>
  <fix>3d</fix>
</trkpt>
<trkpt lat="40.0713751" lon="-105.2297889">
  <ele>1583.06</ele>
  <time>2026-08-28T17:48:31Z</time>
  <course>247.09</course>
  <speed>0.022360679774997897</speed>
  <fix>3d</fix>
</trkpt>
<trkpt lat="40.0713749" lon="-105.229789">
  <ele>1583.0</ele>
  <time>2026-08-28T17:48:31Z</time>
  <course>0.0</course>
  <speed>0.0</speed>
  <fix>3d</fix>
</trkpt>
<trkpt lat="40.0713751" lon="-105.2297889">
  <ele>1583.06</ele>
  <time>2026-08-28T17:48:31Z</time>
  <course>247.09</course>
  <speed>0.022360679774997897</speed>
  <fix>3d</fix>
</trkpt>
<trkpt lat="40.0713749" lon="-105.229789">
  <ele>1583.0</ele>
  <time>2026-08-28T17:48:31Z</time>
  <course>0.0</course>
  <speed>0.0</speed>
  <fix>3d</fix>
</trkpt>
<trkpt lat="40.0713751" lon="-105.2297889">
  <ele>1583.06</ele>
  <time>2026-08-28T17:48:31Z</time>
  <course>247.09</course>
  <speed>0.022360679774997897</speed>
  <fix>3d</fix>
</trkpt>
<trkpt lat="40.0713749" lon="-105.229789">
  <ele>1583.0</ele>
  <time>2026-08-28T17:48:31Z</time>
  <course>0.0</course>
  <speed>0.0</speed>
  <fix>3d</fix>
</trkpt>
<trkpt lat="40.0713751" lon="-105.2297889">
  <ele>1583.06</ele>
  <time>2026-08-28T17:48:31Z</time>
  <course>247.09</course>
  <speed>0.022360679774997897</speed>
  <fix>3d</fix>
</trkpt>
<trkpt lat="40.0713749" lon="-105.229789">
  <ele>1583.0</ele>
  <time>2026-08-28T17:48:31Z</time>
  <course>0.0</course>
  <speed>0.0</speed>
  <fix>3d</fix>
</trkpt>
<trkpt lat="40.0713751" lon="-105.2297889">
  <ele>1583.06</ele>
  <time>2026-08-28T17:48:31Z</time>
  <course>247.09</course>
  <speed>0.022360679774997897</speed>
  <fix>3d</fix>
</trkpt>
<trkpt lat="40.0713749" lon="-105.229789">
  <ele>1583.0</ele>
  <time>2026-08-28T17:48:31Z</time>
  <course>0.0</course>
  <speed>0.0</speed>
  <fix>3d</fix>
</trkpt>
<trkpt lat="40.0713751" lon="-105.2297889">
  <ele>1583.05</ele>
  <time>2026-08-28T17:48:31Z</time>
  <course>247.09</course>
  <speed>0.022360679774997897</speed>
  <fix>3d</fix>
</trkpt>
<trkpt lat="40.0713749" lon="-105.229789">
  <ele>1583.0</ele>
  <time>2026-08-28T17:48:31Z</time>
  <course>0.0</course>
  <speed>0.0</speed>
  <fix>3d</fix>
</trkpt>
<trkpt lat="40.0713751" lon="-105.2297889">
  <ele>1583.05</ele>
  <time>2026-08-28T17:48:31Z</time>
  <course>247.09</course>
  <speed>0.022360679774997897</speed>
  <fix>3d</fix>
</trkpt>
<trkpt lat="40.0713749" lon="-105.229789">
  <ele>1583.0</ele>
  <time>2026-08-28T17:48:31Z</time>
  <course>0.0</course>
  <speed>0.0</speed>
  <fix>3d</fix>
</trkpt>
<trkpt lat="40.0713751" lon="-105.2297889">
  <ele>1583.05</ele>
  <time>2026-08-28T17:48:31Z</time>
  <course>247.09</course>
  <speed>0.022360679774997897</speed>
  <fix>3d</fix>
</trkpt>
<trkpt lat="40.0713749" lon="-105.229789">
  <ele>1583.0</ele>
  <time>2026-08-28T17:48:31Z</time>
  <course>0.0</course>
  <speed>0.0</speed>
  <fix>3d</fix>
</trkpt>
<trkpt lat="40.0713751" lon="-105.2297889">
  <ele>1583.05</ele>
  <time>2026-08-28T17:48:31Z</time>
  <course>247.09</course>
  <speed>0.022360679774997897</speed>
  <fix>3d</fix>
</trkpt>
<trkpt lat="40.0713749" lon="-105.229789">
  <ele>1583.0</ele>
  <time>2026-08-28T17:48:31Z</time>
  <course>0.0</course>
  <speed>0.0</speed>
  <fix>3d</fix>
</trkpt>
<trkpt lat="40.0713751" lon="-105.2297889">
  <ele>1583.05</ele>
  <time>2026-08-28T17:48:31Z</time>
  <course>247.09</course>
  <speed>0.022360679774997897</speed>
  <fix>3d</fix>
</trkpt>
<trkpt lat="40.0713749" lon="-105.229789">
  <ele>1583.0</ele>
  <time>2026-08-28T17:48:31Z</time>
  <course>0.0</course>
  <speed>0.0</speed>
  <fix>3d</fix>
</trkpt>
<trkpt lat="40.0713751" lon="-105.2297889">
  <ele>1583.06</ele>
  <time>2026-08-28T17:48:31Z</time>
  <course>247.09</course>
  <speed>0.022360679774997897</speed>
  <fix>3d</fix>
</trkpt>
<trkpt lat="40.0713749" lon="-105.229789">
  <ele>1583.0</ele>
  <time>2026-08-28T17:48:31Z</time>
  <course>0.0</course>
  <speed>0.0</speed>
  <fix>3d</fix>
</trkpt>
<trkpt lat="40.0713751" lon="-105.2297889">
  <ele>1583.06</ele>
  <time>2026-08-28T17:48:31Z</time>
  <course>247.09</course>
  <speed>0.022360679774997897</speed>
  <fix>3d</fix>
</trkpt>
<trkpt lat="40.0713749" lon="-105.229789">
  <ele>1583.0</ele>
  <time>2026-08-28T17:48:31Z</time>
  <course>0.0</course>
  <speed>0.0</speed>
  <fix>3d</fix>
</trkpt>
<trkpt lat="40.0713751" lon="-105.2297889">
  <ele>1583.06</ele>
  <time>2026-08-28T17:48:31Z</time>
  <course>247.09</course>
  <speed>0.022360679774997897</speed>
  <fix>3d</fix>
</trkpt>
<trkpt lat="40.0713749" lon="-105.229789">
  <ele>1583.0</ele>
  <time>2026-08-28T17:48:31Z</time>
  <course>0.0</course>
  <speed>0.0</speed>
  <fix>3d</fix>
</trkpt>
<trkpt lat="40.0713751" lon="-105.2297889">
  <ele>1583.06</ele>
  <time>2026-08-28T17:48:31Z</time>
  <course>247.09</course>
  <speed>0.022360679774997897</speed>
  <fix>3d</fix>
</trkpt>
<trkpt lat="40.0713749" lon="-105.229789">
  <ele>1583.0</ele>
  <time>2026-08-28T17:48:31Z</time>
  <course>0.0</course>
  <speed>0.0</speed>
  <fix>3d</fix>
</trkpt>
<trkpt lat="40.0713751" lon="-105.2297889">
  <ele>1583.06</ele>
  <time>2026-08-28T17:48:31Z</time>
  <course>247.09</course>
  <speed>0.022360679774997897</speed>
  <fix>3d</fix>
</trkpt>
<trkpt lat="40.0713749" lon="-105.229789">
  <ele>1583.0</ele>
  <time>2026-08-28T17:48:31Z</time>
  <course>0.0</course>
  <speed>0.0</speed>
  <fix>3d</fix>
</trkpt>
<trkpt lat="40.0713751" lon="-105.2297889">
  <ele>1583.06</ele>
  <time>2026-08-28T17:48:31Z</time>
  <course>247.09</course>
  <speed>0.022360679774997897</speed>
  <fix>3d</fix>
</trkpt>
<trkpt lat="40.0713749" lon="-105.229789">
  <ele>1583.0</ele>
  <time>2026-08-28T17:48:31Z</time>
  <course>0.0</course>
  <speed>0.0</speed>
  <fix>3d</fix>
</trkpt>
<trkpt lat="40.0713751" lon="-105.2297889">
  <ele>1583.05</ele>
  <time>2026-08-28T17:48:31Z</time>
  <course>247.09</course>
  <speed>0.022360679774997897</speed>
  <fix>3d</fix>
</trkpt>
<trkpt lat="40.0713749" lon="-105.229789">
  <ele>1583.0</ele>
  <time>2026-08-28T17:48:31Z</time>
  <course>0.0</course>
  <speed>0.0</speed>
  <fix>3d</fix>
</trkpt>
<trkpt lat="40.0713751" lon="-105.2297889">
  <ele>1583.05</ele>
  <time>2026-08-28T17:48:31Z</time>
  <course>247.09</course>
  <speed>0.022360679774997897</speed>
  <fix>3d</fix>
</trkpt>
<trkpt lat="40.0713749" lon="-105.229789">
  <ele>1583.0</ele>
  <time>2026-08-28T17:48:31Z</time>
  <course>0.0</course>
  <speed>0.0</speed>
  <fix>3d</fix>
</trkpt>
<trkpt lat="40.0713751" lon="-105.2297889">
  <ele>1583.04</ele>
  <time>2026-08-28T17:48:31Z</time>
  <course>247.09</course>
  <speed>0.022360679774997897</speed>
  <fix>3d</fix>
</trkpt>
<trkpt lat="40.0713749" lon="-105.229789">
  <ele>1583.0</ele>
  <time>2026-08-28T17:48:31Z</time>
  <course>0.0</course>
  <speed>0.0</speed>
  <fix>3d</fix>
</trkpt>
<trkpt lat="40.0713751" lon="-105.2297889">
  <ele>1583.04</ele>
  <time>2026-08-28T17:48:31Z</time>
  <course>247.09</course>
  <speed>0.022360679774997897</speed>
  <fix>3d</fix>
</trkpt>
<trkpt lat="40.0713749" lon="-105.229789">
  <ele>1583.0</ele>
  <time>2026-08-28T17:48:31Z</time>
  <course>0.0</course>
  <speed>0.0</speed>
  <fix>3d</fix>
</trkpt>
<trkpt lat="40.0713751" lon="-105.2297889">
  <ele>1583.04</ele>
  <time>2026-08-28T17:48:31Z</time>
  <course>247.09</course>
  <speed>0.022360679774997897</speed>
  <fix>3d</fix>
</trkpt>
<trkpt lat="40.0713749" lon="-105.229789">
  <ele>1583.0</ele>
  <time>2026-08-28T17:48:31Z</time>
  <course>0.0</course>
  <speed>0.0</speed>
  <fix>3d</fix>
</trkpt>
<trkpt lat="40.0713751" lon="-105.2297889">
  <ele>1583.03</ele>
  <time>2026-08-28T17:48:31Z</time>
  <course>247.09</course>
  <speed>0.022360679774997897</speed>
  <fix>3d</fix>
</trkpt>
<trkpt lat="40.0713749" lon="-105.229789">
  <ele>1583.0</ele>
  <time>2026-08-28T17:48:31Z</time>
  <course>0.0</course>
  <speed>0.0</speed>
  <fix>3d</fix>
</trkpt>
<trkpt lat="40.0713751" lon="-105.2297889">
  <ele>1583.03</ele>
  <time>2026-08-28T17:48:31Z</time>
  <course>247.09</course>
  <speed>0.022360679774997897</speed>
  <fix>3d</fix>
</trkpt>
<trkpt lat="40.0713749" lon="-105.229789">
  <ele>1583.0</ele>
  <time>2026-08-28T17:48:31Z</time>
  <course>0.0</course>
  <speed>0.0</speed>
  <fix>3d</fix>
</trkpt>
<trkpt lat="40.0713751" lon="-105.2297889">
  <ele>1583.02</ele>
  <time>2026-08-28T17:48:31Z</time>
  <course>247.09</course>
  <speed>0.022360679774997897</speed>
  <fix>3d</fix>
</trkpt>
<trkpt lat="40.0713749" lon="-105.229789">
  <ele>1583.0</ele>
  <time>2026-08-28T17:48:31Z</time>
  <course>0.0</course>
  <speed>0.0</speed>
  <fix>3d</fix>
</trkpt>
<trkpt lat="40.0713751" lon="-105.2297889">
  <ele>1583.01</ele>
  <time>2026-08-28T17:48:31Z</time>
  <course>247.09</course>
  <speed>0.022360679774997897</speed>
  <fix>3d</fix>
</trkpt>
<trkpt lat="40.0713749" lon="-105.229789">
  <ele>1583.0</ele>
  <time>2026-08-28T17:48:31Z</time>
  <course>0.0</course>
  <speed>0.0</speed>
  <fix>3d</fix>
</trkpt>
<trkpt lat="40.0713751" lon="-105.2297889">
  <ele>1583.0</ele>
  <time>2026-08-28T17:48:31Z</time>
  <course>247.09</course>
  <speed>0.022360679774997897</speed>
  <fix>3d</fix>
</trkpt>
<trkpt lat="40.0713749" lon="-105.229789">
  <ele>1583.0</ele>
  <time>2026-08-28T17:48:31Z</time>
  <course>0.0</course>
  <speed>0.0</speed>
  <fix>3d</fix>
</trkpt>
<trkpt lat="40.0713751" lon="-105.2297889">
  <ele>1582.99</ele>
  <time>2026-08-28T17:48:31Z</time>
  <course>247.09</course>
  <speed>0.022360679774997897</speed>
  <fix>3d</fix>
</trkpt>
<trkpt lat="40.0713749" lon="-105.229789">
  <ele>1583.0</ele>
  <time>2026-08-28T17:48:31Z</time>
  <course>0.0</course>
  <speed>0.0</speed>
  <fix>3d</fix>
</trkpt>
<trkpt lat="40.0713751" lon="-105.2297889">
  <ele>1582.98</ele>
  <time>2026-08-28T17:48:31Z</time>
  <course>247.09</course>
  <speed>0.022360679774997897</speed>
  <fix>3d</fix>
</trkpt>
<trkpt lat="40.0713749" lon="-105.229789">
  <ele>1583.0</ele>
  <time>2026-08-28T17:48:31Z</time>
  <course>0.0</course>
  <speed>0.0</speed>
  <fix>3d</fix>
</trkpt>
<trkpt lat="40.0713751" lon="-105.2297889">
  <ele>1582.97</ele>
  <time>2026-08-28T17:48:31Z</time>
  <course>247.09</course>
  <speed>0.022360679774997897</speed>
  <fix>3d</fix>
</trkpt>
<trkpt lat="40.0713749" lon="-105.229789">
  <ele>1583.0</ele>
  <time>2026-08-28T17:48:31Z</time>
  <course>0.0</course>
  <speed>0.0</speed>
  <fix>3d</fix>
</trkpt>
<trkpt lat="40.0713751" lon="-105.2297889">
  <ele>1582.96</ele>
  <time>2026-08-28T17:48:31Z</time>
  <course>247.09</course>
  <speed>0.022360679774997897</speed>
  <fix>3d</fix>
</trkpt>
<trkpt lat="40.0713749" lon="-105.229789">
  <ele>1583.0</ele>
  <time>2026-08-28T17:48:31Z</time>
  <course>0.0</course>
  <speed>0.0</speed>
  <fix>3d</fix>
</trkpt>
<trkpt lat="40.0713751" lon="-105.2297889">
  <ele>1582.96</ele>
  <time>2026-08-28T17:48:31Z</time>
  <course>247.09</course>
  <speed>0.022360679774997897</speed>
  <fix>3d</fix>
</trkpt>
<trkpt lat="40.0713749" lon="-105.229789">
  <ele>1583.0</ele>
  <time>2026-08-28T17:48:31Z</time>
  <course>0.0</course>
  <speed>0.0</speed>
  <fix>3d</fix>
</trkpt>
<trkpt lat="40.0713751" lon="-105.2297889">
  <ele>1582.95</ele>
  <time>2026-08-28T17:48:31Z</time>
  <course>247.09</course>
  <speed>0.022360679774997897</speed>
  <fix>3d</fix>
</trkpt>
<trkpt lat="40.0713749" lon="-105.229789">
  <ele>1583.0</ele>
  <time>2026-08-28T17:48:31Z</time>
  <course>0.0</course>
  <speed>0.0</speed>
  <fix>3d</fix>
</trkpt>
<trkpt lat="40.0713751" lon="-105.2297889">
  <ele>1582.94</ele>
  <time>2026-08-28T17:48:31Z</time>
  <course>247.09</course>
  <speed>0.022360679774997897</speed>
  <fix>3d</fix>
</trkpt>
<trkpt lat="40.0713749" lon="-105.229789">
  <ele>1583.0</ele>
  <time>2026-08-28T17:48:31Z</time>
  <course>0.0</course>
  <speed>0.0</speed>
  <fix>3d</fix>
</trkpt>
<trkpt lat="40.0713751" lon="-105.2297889">
  <ele>1582.94</ele>
  <time>2026-08-28T17:48:31Z</time>
  <course>247.09</course>
  <speed>0.022360679774997897</speed>
  <fix>3d</fix>
</trkpt>
<trkpt lat="40.0713749" lon="-105.229789">
  <ele>1583.0</ele>
  <time>2026-08-28T17:48:31Z</time>
  <course>0.0</course>
  <speed>0.0</speed>
  <fix>3d</fix>
</trkpt>
<trkpt lat="40.0713751" lon="-105.2297889">
  <ele>1582.94</ele>
  <time>2026-08-28T17:48:31Z</time>
  <course>247.09</course>
  <speed>0.022360679774997897</speed>
  <fix>3d</fix>
</trkpt>
<trkpt lat="40.0713749" lon="-105.229789">
  <ele>1583.0</ele>
  <time>2026-08-28T17:48:31Z</time>
  <course>0.0</course>
  <speed>0.0</speed>
  <fix>3d</fix>
</trkpt>
<trkpt lat="40.0713751" lon="-105.2297889">
  <ele>1582.94</ele>
  <time>2026-08-28T17:48:31Z</time>
  <course>247.09</course>
  <speed>0.022360679774997897</speed>
  <fix>3d</fix>
</trkpt>
<trkpt lat="40.0713749" lon="-105.229789">
  <ele>1583.0</ele>
  <time>2026-08-28T17:48:31Z</time>
  <course>0.0</course>
  <speed>0.0</speed>
  <fix>3d</fix>
</trkpt>
<trkpt lat="40.0713751" lon="-105.2297889">
  <ele>1582.93</ele>
  <time>2026-08-28T17:48:32Z</time>
  <course>247.09</course>
  <speed>0.022360679774997897</speed>
  <fix>3d</fix>
</trkpt>
<trkpt lat="40.0713749" lon="-105.229789">
  <ele>1583.0</ele>
  <time>2026-08-28T17:48:32Z</time>
  <course>0.0</course>
  <speed>0.0</speed>
  <fix>3d</fix>
</trkpt>
<trkpt lat="40.0713751" lon="-105.2297889">
  <ele>1582.93</ele>
  <time>2026-08-28T17:48:32Z</time>
  <course>247.09</course>
  <speed>0.022360679774997897</speed>
  <fix>3d</fix>
</trkpt>
<trkpt lat="40.0713749" lon="-105.229789">
  <ele>1583.0</ele>
  <time>2026-08-28T17:48:32Z</time>
  <course>0.0</course>
  <speed>0.0</speed>
  <fix>3d</fix>
</trkpt>
<trkpt lat="40.0713751" lon="-105.2297889">
  <ele>1582.93</ele>
  <time>2026-08-28T17:48:32Z</time>
  <course>247.09</course>
  <speed>0.022360679774997897</speed>
  <fix>3d</fix>
</trkpt>
<trkpt lat="40.0713749" lon="-105.229789">
  <ele>1583.0</ele>
  <time>2026-08-28T17:48:32Z</time>
  <course>0.0</course>
  <speed>0.0</speed>
  <fix>3d</fix>
</trkpt>
<trkpt lat="40.0713751" lon="-105.2297889">
  <ele>1582.92</ele>
  <time>2026-08-28T17:48:32Z</time>
  <course>247.09</course>
  <speed>0.022360679774997897</speed>
  <fix>3d</fix>
</trkpt>
<trkpt lat="40.0713749" lon="-105.229789">
  <ele>1583.0</ele>
  <time>2026-08-28T17:48:32Z</time>
  <course>0.0</course>
  <speed>0.0</speed>
  <fix>3d</fix>
</trkpt>
<trkpt lat="40.0713751" lon="-105.2297889">
  <ele>1582.92</ele>
  <time>2026-08-28T17:48:32Z</time>
  <course>247.09</course>
  <speed>0.022360679774997897</speed>
  <fix>3d</fix>
</trkpt>
<trkpt lat="40.0713749" lon="-105.229789">
  <ele>1583.0</ele>
  <time>2026-08-28T17:48:32Z</time>
  <course>0.0</course>
  <speed>0.0</speed>
  <fix>3d</fix>
</trkpt>
<trkpt lat="40.0713751" lon="-105.2297889">
  <ele>1582.92</ele>
  <time>2026-08-28T17:48:32Z</time>
  <course>247.09</course>
  <speed>0.022360679774997897</speed>
  <fix>3d</fix>
</trkpt>
<trkpt lat="40.0713749" lon="-105.229789">
  <ele>1583.0</ele>
  <time>2026-08-28T17:48:32Z</time>
  <course>0.0</course>
  <speed>0.0</speed>
  <fix>3d</fix>
</trkpt>
<trkpt lat="40.0713751" lon="-105.2297889">
  <ele>1582.92</ele>
  <time>2026-08-28T17:48:32Z</time>
  <course>247.09</course>
  <speed>0.022360679774997897</speed>
  <fix>3d</fix>
</trkpt>
<trkpt lat="40.0713749" lon="-105.229789">
  <ele>1583.0</ele>
  <time>2026-08-28T17:48:32Z</time>
  <course>0.0</course>
  <speed>0.0</speed>
  <fix>3d</fix>
</trkpt>
<trkpt lat="40.0713751" lon="-105.2297889">
  <ele>1582.93</ele>
  <time>2026-08-28T17:48:32Z</time>
  <course>247.09</course>
  <speed>0.022360679774997897</speed>
  <fix>3d</fix>
</trkpt>
<trkpt lat="40.0713749" lon="-105.229789">
  <ele>1583.0</ele>
  <time>2026-08-28T17:48:32Z</time>
  <course>0.0</course>
  <speed>0.0</speed>
  <fix>3d</fix>
</trkpt>
<trkpt lat="40.0713751" lon="-105.2297889">
  <ele>1582.93</ele>
  <time>2026-08-28T17:48:32Z</time>
  <course>247.09</course>
  <speed>0.022360679774997897</speed>
  <fix>3d</fix>
</trkpt>
<trkpt lat="40.0713749" lon="-105.229789">
  <ele>1583.0</ele>
  <time>2026-08-28T17:48:32Z</time>
  <course>0.0</course>
  <speed>0.0</speed>
  <fix>3d</fix>
</trkpt>
<trkpt lat="40.0713751" lon="-105.2297889">
  <ele>1582.94</ele>
  <time>2026-08-28T17:48:32Z</time>
  <course>247.09</course>
  <speed>0.022360679774997897</speed>
  <fix>3d</fix>
</trkpt>
<trkpt lat="40.0713749" lon="-105.229789">
  <ele>1583.0</ele>
  <time>2026-08-28T17:48:32Z</time>
  <course>0.0</course>
  <speed>0.0</speed>
  <fix>3d</fix>
</trkpt>
<trkpt lat="40.0713751" lon="-105.2297889">
  <ele>1582.95</ele>
  <time>2026-08-28T17:48:32Z</time>
  <course>247.09</course>
  <speed>0.022360679774997897</speed>
  <fix>3d</fix>
</trkpt>
<trkpt lat="40.0713749" lon="-105.229789">
  <ele>1583.0</ele>
  <time>2026-08-28T17:48:32Z</time>
  <course>0.0</course>
  <speed>0.0</speed>
  <fix>3d</fix>
</trkpt>
<trkpt lat="40.0713751" lon="-105.2297889">
  <ele>1582.96</ele>
  <time>2026-08-28T17:48:32Z</time>
  <course>247.09</course>
  <speed>0.022360679774997897</speed>
  <fix>3d</fix>
</trkpt>
<trkpt lat="40.0713749" lon="-105.229789">
  <ele>1583.0</ele>
  <time>2026-08-28T17:48:32Z</time>
  <course>0.0</course>
  <speed>0.0</speed>
  <fix>3d</fix>
</trkpt>
<trkpt lat="40.0713751" lon="-105.2297889">
  <ele>1582.96</ele>
  <time>2026-08-28T17:48:32Z</time>
  <course>247.09</course>
  <speed>0.022360679774997897</speed>
  <fix>3d</fix>
</trkpt>
<trkpt lat="40.0713749" lon="-105.229789">
  <ele>1583.0</ele>
  <time>2026-08-28T17:48:32Z</time>
  <course>0.0</course>
  <speed>0.0</speed>
  <fix>3d</fix>
</trkpt>
<trkpt lat="40.0713751" lon="-105.2297889">
  <ele>1582.97</ele>
  <time>2026-08-28T17:48:32Z</time>
  <course>247.09</course>
  <speed>0.022360679774997897</speed>
  <fix>3d</fix>
</trkpt>
<trkpt lat="40.0713749" lon="-105.229789">
  <ele>1583.0</ele>
  <time>2026-08-28T17:48:32Z</time>
  <course>0.0</course>
  <speed>0.0</speed>
  <fix>3d</fix>
</trkpt>
<trkpt lat="40.0713751" lon="-105.2297889">
  <ele>1582.97</ele>
  <time>2026-08-28T17:48:32Z</time>
  <course>247.09</course>
  <speed>0.022360679774997897</speed>
  <fix>3d</fix>
</trkpt>
<trkpt lat="40.0713749" lon="-105.229789">
  <ele>1583.0</ele>
  <time>2026-08-28T17:48:32Z</time>
  <course>0.0</course>
  <speed>0.0</speed>
  <fix>3d</fix>
</trkpt>
<trkpt lat="40.0713751" lon="-105.2297889">
  <ele>1582.98</ele>
  <time>2026-08-28T17:48:32Z</time>
  <course>247.09</course>
  <speed>0.022360679774997897</speed>
  <fix>3d</fix>
</trkpt>
<trkpt lat="40.0713749" lon="-105.229789">
  <ele>1583.0</ele>
  <time>2026-08-28T17:48:32Z</time>
  <course>0.0</course>
  <speed>0.0</speed>
  <fix>3d</fix>
</trkpt>
<trkpt lat="40.0713751" lon="-105.2297889">
  <ele>1582.98</ele>
  <time>2026-08-28T17:48:32Z</time>
  <course>247.09</course>
  <speed>0.022360679774997897</speed>
  <fix>3d</fix>
</trkpt>
<trkpt lat="40.0713749" lon="-105.229789">
  <ele>1583.0</ele>
  <time>2026-08-28T17:48:32Z</time>
  <course>0.0</course>
  <speed>0.0</speed>
  <fix>3d</fix>
</trkpt>
<trkpt lat="40.0713751" lon="-105.2297889">
  <ele>1582.99</ele>
  <time>2026-08-28T17:48:32Z</time>
  <course>247.1</course>
  <speed>0.022360679774997897</speed>
  <fix>3d</fix>
</trkpt>
<trkpt lat="40.0713749" lon="-105.229789">
  <ele>1583.0</ele>
  <time>2026-08-28T17:48:32Z</time>
  <course>0.0</course>
  <speed>0.0</speed>
  <fix>3d</fix>
</trkpt>
<trkpt lat="40.0713751" lon="-105.2297889">
  <ele>1582.99</ele>
  <time>2026-08-28T17:48:32Z</time>
  <course>247.1</course>
  <speed>0.022360679774997897</speed>
  <fix>3d</fix>
</trkpt>
<trkpt lat="40.0713749" lon="-105.229789">
  <ele>1583.0</ele>
  <time>2026-08-28T17:48:32Z</time>
  <course>0.0</course>
  <speed>0.0</speed>
  <fix>3d</fix>
</trkpt>
<trkpt lat="40.0713751" lon="-105.2297889">
  <ele>1582.99</ele>
  <time>2026-08-28T17:48:32Z</time>
  <course>247.1</course>
  <speed>0.022360679774997897</speed>
  <fix>3d</fix>
</trkpt>
<trkpt lat="40.0713749" lon="-105.229789">
  <ele>1583.0</ele>
  <time>2026-08-28T17:48:32Z</time>
  <course>0.0</course>
  <speed>0.0</speed>
  <fix>3d</fix>
</trkpt>
<trkpt lat="40.0713751" lon="-105.2297889">
  <ele>1582.99</ele>
  <time>2026-08-28T17:48:32Z</time>
  <course>247.1</course>
  <speed>0.022360679774997897</speed>
  <fix>3d</fix>
</trkpt>
<trkpt lat="40.0713749" lon="-105.229789">
  <ele>1583.0</ele>
  <time>2026-08-28T17:48:32Z</time>
  <course>0.0</course>
  <speed>0.0</speed>
  <fix>3d</fix>
</trkpt>
<trkpt lat="40.0713751" lon="-105.2297889">
  <ele>1582.99</ele>
  <time>2026-08-28T17:48:32Z</time>
  <course>247.1</course>
  <speed>0.022360679774997897</speed>
  <fix>3d</fix>
</trkpt>
<trkpt lat="40.0713749" lon="-105.229789">
  <ele>1583.0</ele>
  <time>2026-08-28T17:48:32Z</time>
  <course>0.0</course>
  <speed>0.0</speed>
  <fix>3d</fix>
</trkpt>
<trkpt lat="40.0713751" lon="-105.2297889">
  <ele>1582.99</ele>
  <time>2026-08-28T17:48:32Z</time>
  <course>247.1</course>
  <speed>0.022360679774997897</speed>
  <fix>3d</fix>
</trkpt>
<trkpt lat="40.0713749" lon="-105.229789">
  <ele>1583.0</ele>
  <time>2026-08-28T17:48:32Z</time>
  <course>0.0</course>
  <speed>0.0</speed>
  <fix>3d</fix>
</trkpt>
<trkpt lat="40.0713751" lon="-105.2297889">
  <ele>1582.99</ele>
  <time>2026-08-28T17:48:32Z</time>
  <course>247.1</course>
  <speed>0.022360679774997897</speed>
  <fix>3d</fix>
</trkpt>
<trkpt lat="40.0713749" lon="-105.229789">
  <ele>1583.0</ele>
  <time>2026-08-28T17:48:32Z</time>
  <course>0.0</course>
  <speed>0.0</speed>
  <fix>3d</fix>
</trkpt>
<trkpt lat="40.0713751" lon="-105.2297889">
  <ele>1582.99</ele>
  <time>2026-08-28T17:48:32Z</time>
  <course>247.1</course>
  <speed>0.022360679774997897</speed>
  <fix>3d</fix>
</trkpt>
<trkpt lat="40.0713749" lon="-105.229789">
  <ele>1583.0</ele>
  <time>2026-08-28T17:48:32Z</time>
  <course>0.0</course>
  <speed>0.0</speed>
  <fix>3d</fix>
</trkpt>
<trkpt lat="40.0713751" lon="-105.2297889">
  <ele>1583.0</ele>
  <time>2026-08-28T17:48:32Z</time>
  <course>247.1</course>
  <speed>0.022360679774997897</speed>
  <fix>3d</fix>
</trkpt>
<trkpt lat="40.0713749" lon="-105.229789">
  <ele>1583.0</ele>
  <time>2026-08-28T17:48:32Z</time>
  <course>0.0</course>
  <speed>0.0</speed>
  <fix>3d</fix>
</trkpt>
<trkpt lat="40.0713751" lon="-105.2297889">
  <ele>1583.0</ele>
  <time>2026-08-28T17:48:32Z</time>
  <course>247.1</course>
  <speed>0.022360679774997897</speed>
  <fix>3d</fix>
</trkpt>
<trkpt lat="40.0713749" lon="-105.229789">
  <ele>1583.0</ele>
  <time>2026-08-28T17:48:32Z</time>
  <course>0.0</course>
  <speed>0.0</speed>
  <fix>3d</fix>
</trkpt>
<trkpt lat="40.0713751" lon="-105.2297889">
  <ele>1583.0</ele>
  <time>2026-08-28T17:48:32Z</time>
  <course>247.1</course>
  <speed>0.022360679774997897</speed>
  <fix>3d</fix>
</trkpt>
<trkpt lat="40.0713749" lon="-105.229789">
  <ele>1583.0</ele>
  <time>2026-08-28T17:48:32Z</time>
  <course>0.0</course>
  <speed>0.0</speed>
  <fix>3d</fix>
</trkpt>
<trkpt lat="40.0713751" lon="-105.2297889">
  <ele>1583.0</ele>
  <time>2026-08-28T17:48:32Z</time>
  <course>247.1</course>
  <speed>0.022360679774997897</speed>
  <fix>3d</fix>
</trkpt>
<trkpt lat="40.0713749" lon="-105.229789">
  <ele>1583.0</ele>
  <time>2026-08-28T17:48:32Z</time>
  <course>0.0</course>
  <speed>0.0</speed>
  <fix>3d</fix>
</trkpt>
<trkpt lat="40.0713751" lon="-105.2297889">
  <ele>1583.0</ele>
  <time>2026-08-28T17:48:32Z</time>
  <course>247.1</course>
  <speed>0.022360679774997897</speed>
  <fix>3d</fix>
</trkpt>
<trkpt lat="40.0713749" lon="-105.229789">
  <ele>1583.0</ele>
  <time>2026-08-28T17:48:32Z</time>
  <course>0.0</course>
  <speed>0.0</speed>
  <fix>3d</fix>
</trkpt>
<trkpt lat="40.0713751" lon="-105.2297889">
  <ele>1583.0</ele>
  <time>2026-08-28T17:48:32Z</time>
  <course>247.1</course>
  <speed>0.022360679774997897</speed>
  <fix>3d</fix>
</trkpt>
<trkpt lat="40.0713749" lon="-105.229789">
  <ele>1583.0</ele>
  <time>2026-08-28T17:48:32Z</time>
  <course>0.0</course>
  <speed>0.0</speed>
  <fix>3d</fix>
</trkpt>
<trkpt lat="40.0713751" lon="-105.2297889">
  <ele>1583.0</ele>
  <time>2026-08-28T17:48:32Z</time>
  <course>247.1</course>
  <speed>0.022360679774997897</speed>
  <fix>3d</fix>
</trkpt>
<trkpt lat="40.0713749" lon="-105.229789">
  <ele>1583.0</ele>
  <time>2026-08-28T17:48:32Z</time>
  <course>0.0</course>
  <speed>0.0</speed>
  <fix>3d</fix>
</trkpt>
<trkpt lat="40.0713751" lon="-105.2297889">
  <ele>1582.99</ele>
  <time>2026-08-28T17:48:32Z</time>
  <course>247.1</course>
  <speed>0.022360679774997897</speed>
  <fix>3d</fix>
</trkpt>
<trkpt lat="40.0713749" lon="-105.229789">
  <ele>1583.0</ele>
  <time>2026-08-28T17:48:32Z</time>
  <course>0.0</course>
  <speed>0.0</speed>
  <fix>3d</fix>
</trkpt>
<trkpt lat="40.0713751" lon="-105.2297889">
  <ele>1582.99</ele>
  <time>2026-08-28T17:48:32Z</time>
  <course>247.1</course>
  <speed>0.022360679774997897</speed>
  <fix>3d</fix>
</trkpt>
<trkpt lat="40.0713749" lon="-105.229789">
  <ele>1583.0</ele>
  <time>2026-08-28T17:48:32Z</time>
  <course>0.0</course>
  <speed>0.0</speed>
  <fix>3d</fix>
</trkpt>
<trkpt lat="40.0713751" lon="-105.2297889">
  <ele>1582.99</ele>
  <time>2026-08-28T17:48:32Z</time>
  <course>247.1</course>
  <speed>0.022360679774997897</speed>
  <fix>3d</fix>
</trkpt>
<trkpt lat="40.0713749" lon="-105.229789">
  <ele>1583.0</ele>
  <time>2026-08-28T17:48:32Z</time>
  <course>0.0</course>
  <speed>0.0</speed>
  <fix>3d</fix>
</trkpt>
<trkpt lat="40.0713751" lon="-105.2297889">
  <ele>1582.99</ele>
  <time>2026-08-28T17:48:32Z</time>
  <course>247.1</course>
  <speed>0.022360679774997897</speed>
  <fix>3d</fix>
</trkpt>
<trkpt lat="40.0713749" lon="-105.229789">
  <ele>1583.0</ele>
  <time>2026-08-28T17:48:32Z</time>
  <course>0.0</course>
  <speed>0.0</speed>
  <fix>3d</fix>
</trkpt>
<trkpt lat="40.0713751" lon="-105.2297889">
  <ele>1582.98</ele>
  <time>2026-08-28T17:48:32Z</time>
  <course>247.1</course>
  <speed>0.022360679774997897</speed>
  <fix>3d</fix>
</trkpt>
<trkpt lat="40.0713749" lon="-105.229789">
  <ele>1583.0</ele>
  <time>2026-08-28T17:48:32Z</time>
  <course>0.0</course>
  <speed>0.0</speed>
  <fix>3d</fix>
</trkpt>
<trkpt lat="40.0713751" lon="-105.2297889">
  <ele>1582.98</ele>
  <time>2026-08-28T17:48:32Z</time>
  <course>247.1</course>
  <speed>0.022360679774997897</speed>
  <fix>3d</fix>
</trkpt>
<trkpt lat="40.0713749" lon="-105.229789">
  <ele>1583.0</ele>
  <time>2026-08-28T17:48:32Z</time>
  <course>0.0</course>
  <speed>0.0</speed>
  <fix>3d</fix>
</trkpt>
<trkpt lat="40.0713751" lon="-105.2297889">
  <ele>1582.98</ele>
  <time>2026-08-28T17:48:32Z</time>
  <course>247.1</course>
  <speed>0.022360679774997897</speed>
  <fix>3d</fix>
</trkpt>
<trkpt lat="40.0713749" lon="-105.229789">
  <ele>1583.0</ele>
  <time>2026-08-28T17:48:32Z</time>
  <course>0.0</course>
  <speed>0.0</speed>
  <fix>3d</fix>
</trkpt>
<trkpt lat="40.0713751" lon="-105.2297889">
  <ele>1582.98</ele>
  <time>2026-08-28T17:48:32Z</time>
  <course>247.1</course>
  <speed>0.022360679774997897</speed>
  <fix>3d</fix>
</trkpt>
<trkpt lat="40.0713749" lon="-105.229789">
  <ele>1583.0</ele>
  <time>2026-08-28T17:48:32Z</time>
  <course>0.0</course>
  <speed>0.0</speed>
  <fix>3d</fix>
</trkpt>
<trkpt lat="40.0713751" lon="-105.2297889">
  <ele>1582.99</ele>
  <time>2026-08-28T17:48:32Z</time>
  <course>247.1</course>
  <speed>0.022360679774997897</speed>
  <fix>3d</fix>
</trkpt>
<trkpt lat="40.0713749" lon="-105.229789">
  <ele>1583.0</ele>
  <time>2026-08-28T17:48:32Z</time>
  <course>0.0</course>
  <speed>0.0</speed>
  <fix>3d</fix>
</trkpt>
<trkpt lat="40.0713751" lon="-105.2297889">
  <ele>1582.99</ele>
  <time>2026-08-28T17:48:32Z</time>
  <course>247.1</course>
  <speed>0.022360679774997897</speed>
  <fix>3d</fix>
</trkpt>
<trkpt lat="40.0713749" lon="-105.229789">
  <ele>1583.0</ele>
  <time>2026-08-28T17:48:32Z</time>
  <course>0.0</course>
  <speed>0.0</speed>
  <fix>3d</fix>
</trkpt>
<trkpt lat="40.0713751" lon="-105.2297889">
  <ele>1583.0</ele>
  <time>2026-08-28T17:48:32Z</time>
  <course>247.1</course>
  <speed>0.022360679774997897</speed>
  <fix>3d</fix>
</trkpt>
<trkpt lat="40.0713749" lon="-105.229789">
  <ele>1583.0</ele>
  <time>2026-08-28T17:48:32Z</time>
  <course>0.0</course>
  <speed>0.0</speed>
  <fix>3d</fix>
</trkpt>
<trkpt lat="40.0713751" lon="-105.2297889">
  <ele>1583.0</ele>
  <time>2026-08-28T17:48:32Z</time>
  <course>247.1</course>
  <speed>0.022360679774997897</speed>
  <fix>3d</fix>
</trkpt>
<trkpt lat="40.0713749" lon="-105.229789">
  <ele>1583.0</ele>
  <time>2026-08-28T17:48:32Z</time>
  <course>0.0</course>
  <speed>0.0</speed>
  <fix>3d</fix>
</trkpt>
<trkpt lat="40.0713751" lon="-105.2297889">
  <ele>1583.01</ele>
  <time>2026-08-28T17:48:32Z</time>
  <course>247.1</course>
  <speed>0.022360679774997897</speed>
  <fix>3d</fix>
</trkpt>
<trkpt lat="40.0713749" lon="-105.229789">
  <ele>1583.0</ele>
  <time>2026-08-28T17:48:32Z</time>
  <course>0.0</course>
  <speed>0.0</speed>
  <fix>3d</fix>
</trkpt>
<trkpt lat="40.0713751" lon="-105.2297889">
  <ele>1583.02</ele>
  <time>2026-08-28T17:48:32Z</time>
  <course>247.1</course>
  <speed>0.022360679774997897</speed>
  <fix>3d</fix>
</trkpt>
<trkpt lat="40.0713749" lon="-105.229789">
  <ele>1583.0</ele>
  <time>2026-08-28T17:48:32Z</time>
  <course>0.0</course>
  <speed>0.0</speed>
  <fix>3d</fix>
</trkpt>
<trkpt lat="40.0713751" lon="-105.2297889">
  <ele>1583.02</ele>
  <time>2026-08-28T17:48:32Z</time>
  <course>247.1</course>
  <speed>0.022360679774997897</speed>
  <fix>3d</fix>
</trkpt>
<trkpt lat="40.0713749" lon="-105.229789">
  <ele>1583.0</ele>
  <time>2026-08-28T17:48:32Z</time>
  <course>0.0</course>
  <speed>0.0</speed>
  <fix>3d</fix>
</trkpt>
<trkpt lat="40.0713751" lon="-105.2297889">
  <ele>1583.03</ele>
  <time>2026-08-28T17:48:32Z</time>
  <course>247.1</course>
  <speed>0.022360679774997897</speed>
  <fix>3d</fix>
</trkpt>
<trkpt lat="40.0713749" lon="-105.229789">
  <ele>1583.0</ele>
  <time>2026-08-28T17:48:32Z</time>
  <course>0.0</course>
  <speed>0.0</speed>
  <fix>3d</fix>
</trkpt>
<trkpt lat="40.0713751" lon="-105.2297889">
  <ele>1583.03</ele>
  <time>2026-08-28T17:48:32Z</time>
  <course>247.1</course>
  <speed>0.022360679774997897</speed>
  <fix>3d</fix>
</trkpt>
<trkpt lat="40.0713749" lon="-105.229789">
  <ele>1583.0</ele>
  <time>2026-08-28T17:48:32Z</time>
  <course>0.0</course>
  <speed>0.0</speed>
  <fix>3d</fix>
</trkpt>
<trkpt lat="40.0713751" lon="-105.2297889">
  <ele>1583.03</ele>
  <time>2026-08-28T17:48:32Z</time>
  <course>247.1</course>
  <speed>0.022360679774997897</speed>
  <fix>3d</fix>
</trkpt>
<trkpt lat="40.0713749" lon="-105.229789">
  <ele>1583.0</ele>
  <time>2026-08-28T17:48:32Z</time>
  <course>0.0</course>
  <speed>0.0</speed>
  <fix>3d</fix>
</trkpt>
<trkpt lat="40.0713751" lon="-105.2297889">
  <ele>1583.03</ele>
  <time>2026-08-28T17:48:32Z</time>
  <course>247.1</course>
  <speed>0.022360679774997897</speed>
  <fix>3d</fix>
</trkpt>
<trkpt lat="40.0713749" lon="-105.229789">
  <ele>1583.0</ele>
  <time>2026-08-28T17:48:32Z</time>
  <course>0.0</course>
  <speed>0.0</speed>
  <fix>3d</fix>
</trkpt>
<trkpt lat="40.0713751" lon="-105.2297889">
  <ele>1583.03</ele>
  <time>2026-08-28T17:48:32Z</time>
  <course>247.1</course>
  <speed>0.022360679774997897</speed>
  <fix>3d</fix>
</trkpt>
<trkpt lat="40.0713749" lon="-105.229789">
  <ele>1583.0</ele>
  <time>2026-08-28T17:48:32Z</time>
  <course>0.0</course>
  <speed>0.0</speed>
  <fix>3d</fix>
</trkpt>
<trkpt lat="40.0713751" lon="-105.2297889">
  <ele>1583.02</ele>
  <time>2026-08-28T17:48:32Z</time>
  <course>247.1</course>
  <speed>0.022360679774997897</speed>
  <fix>3d</fix>
</trkpt>
<trkpt lat="40.0713749" lon="-105.229789">
  <ele>1583.0</ele>
  <time>2026-08-28T17:48:32Z</time>
  <course>0.0</course>
  <speed>0.0</speed>
  <fix>3d</fix>
</trkpt>
<trkpt lat="40.0713751" lon="-105.2297889">
  <ele>1583.02</ele>
  <time>2026-08-28T17:48:32Z</time>
  <course>247.1</course>
  <speed>0.022360679774997897</speed>
  <fix>3d</fix>
</trkpt>
<trkpt lat="40.0713749" lon="-105.229789">
  <ele>1583.0</ele>
  <time>2026-08-28T17:48:32Z</time>
  <course>0.0</course>
  <speed>0.0</speed>
  <fix>3d</fix>
</trkpt>
<trkpt lat="40.0713751" lon="-105.2297889">
  <ele>1583.02</ele>
  <time>2026-08-28T17:48:32Z</time>
  <course>247.1</course>
  <speed>0.022360679774997897</speed>
  <fix>3d</fix>
</trkpt>
<trkpt lat="40.0713749" lon="-105.229789">
  <ele>1583.0</ele>
  <time>2026-08-28T17:48:32Z</time>
  <course>0.0</course>
  <speed>0.0</speed>
  <fix>3d</fix>
</trkpt>
<trkpt lat="40.0713751" lon="-105.2297889">
  <ele>1583.02</ele>
  <time>2026-08-28T17:48:32Z</time>
  <course>247.1</course>
  <speed>0.022360679774997897</speed>
  <fix>3d</fix>
</trkpt>
<trkpt lat="40.0713749" lon="-105.229789">
  <ele>1583.0</ele>
  <time>2026-08-28T17:48:32Z</time>
  <course>0.0</course>
  <speed>0.0</speed>
  <fix>3d</fix>
</trkpt>
<trkpt lat="40.0713751" lon="-105.2297889">
  <ele>1583.01</ele>
  <time>2026-08-28T17:48:32Z</time>
  <course>247.1</course>
  <speed>0.022360679774997897</speed>
  <fix>3d</fix>
</trkpt>
<trkpt lat="40.0713749" lon="-105.229789">
  <ele>1583.0</ele>
  <time>2026-08-28T17:48:32Z</time>
  <course>0.0</course>
  <speed>0.0</speed>
  <fix>3d</fix>
</trkpt>
<trkpt lat="40.0713751" lon="-105.2297889">
  <ele>1583.01</ele>
  <time>2026-08-28T17:48:32Z</time>
  <course>247.1</course>
  <speed>0.022360679774997897</speed>
  <fix>3d</fix>
</trkpt>
<trkpt lat="40.0713749" lon="-105.229789">
  <ele>1583.0</ele>
  <time>2026-08-28T17:48:32Z</time>
  <course>0.0</course>
  <speed>0.0</speed>
  <fix>3d</fix>
</trkpt>
<trkpt lat="40.0713751" lon="-105.2297889">
  <ele>1583.01</ele>
  <time>2026-08-28T17:48:32Z</time>
  <course>247.1</course>
  <speed>0.022360679774997897</speed>
  <fix>3d</fix>
</trkpt>
<trkpt lat="40.0713749" lon="-105.229789">
  <ele>1583.0</ele>
  <time>2026-08-28T17:48:32Z</time>
  <course>0.0</course>
  <speed>0.0</speed>
  <fix>3d</fix>
</trkpt>
<trkpt lat="40.0713751" lon="-105.2297889">
  <ele>1583.01</ele>
  <time>2026-08-28T17:48:32Z</time>
  <course>247.1</course>
  <speed>0.022360679774997897</speed>
  <fix>3d</fix>
</trkpt>
<trkpt lat="40.0713749" lon="-105.229789">
  <ele>1583.0</ele>
  <time>2026-08-28T17:48:32Z</time>
  <course>0.0</course>
  <speed>0.0</speed>
  <fix>3d</fix>
</trkpt>
<trkpt lat="40.0713751" lon="-105.2297889">
  <ele>1583.01</ele>
  <time>2026-08-28T17:48:32Z</time>
  <course>247.1</course>
  <speed>0.022360679774997897</speed>
  <fix>3d</fix>
</trkpt>
<trkpt lat="40.0713749" lon="-105.229789">
  <ele>1583.0</ele>
  <time>2026-08-28T17:48:32Z</time>
  <course>0.0</course>
  <speed>0.0</speed>
  <fix>3d</fix>
</trkpt>
<trkpt lat="40.0713751" lon="-105.2297889">
  <ele>1583.01</ele>
  <time>2026-08-28T17:48:32Z</time>
  <course>247.1</course>
  <speed>0.022360679774997897</speed>
  <fix>3d</fix>
</trkpt>
<trkpt lat="40.0713749" lon="-105.229789">
  <ele>1583.0</ele>
  <time>2026-08-28T17:48:32Z</time>
  <course>0.0</course>
  <speed>0.0</speed>
  <fix>3d</fix>
</trkpt>
<trkpt lat="40.0713751" lon="-105.2297889">
  <ele>1583.01</ele>
  <time>2026-08-28T17:48:32Z</time>
  <course>247.1</course>
  <speed>0.022360679774997897</speed>
  <fix>3d</fix>
</trkpt>
<trkpt lat="40.0713749" lon="-105.229789">
  <ele>1583.0</ele>
  <time>2026-08-28T17:48:32Z</time>
  <course>0.0</course>
  <speed>0.0</speed>
  <fix>3d</fix>
</trkpt>
<trkpt lat="40.0713751" lon="-105.2297889">
  <ele>1583.01</ele>
  <time>2026-08-28T17:48:32Z</time>
  <course>247.1</course>
  <speed>0.022360679774997897</speed>
  <fix>3d</fix>
</trkpt>
<trkpt lat="40.0713749" lon="-105.229789">
  <ele>1583.0</ele>
  <time>2026-08-28T17:48:32Z</time>
  <course>0.0</course>
  <speed>0.0</speed>
  <fix>3d</fix>
</trkpt>
<trkpt lat="40.0713751" lon="-105.2297889">
  <ele>1583.01</ele>
  <time>2026-08-28T17:48:32Z</time>
  <course>247.1</course>
  <speed>0.022360679774997897</speed>
  <fix>3d</fix>
</trkpt>
<trkpt lat="40.0713749" lon="-105.229789">
  <ele>1583.0</ele>
  <time>2026-08-28T17:48:32Z</time>
  <course>0.0</course>
  <speed>0.0</speed>
  <fix>3d</fix>
</trkpt>
<trkpt lat="40.0713751" lon="-105.2297889">
  <ele>1583.01</ele>
  <time>2026-08-28T17:48:32Z</time>
  <course>247.1</course>
  <speed>0.022360679774997897</speed>
  <fix>3d</fix>
</trkpt>
<trkpt lat="40.0713749" lon="-105.229789">
  <ele>1583.0</ele>
  <time>2026-08-28T17:48:32Z</time>
  <course>0.0</course>
  <speed>0.0</speed>
  <fix>3d</fix>
</trkpt>
<trkpt lat="40.0713751" lon="-105.2297889">
  <ele>1583.01</ele>
  <time>2026-08-28T17:48:32Z</time>
  <course>247.1</course>
  <speed>0.022360679774997897</speed>
  <fix>3d</fix>
</trkpt>
<trkpt lat="40.0713749" lon="-105.229789">
  <ele>1583.0</ele>
  <time>2026-08-28T17:48:32Z</time>
  <course>0.0</course>
  <speed>0.0</speed>
  <fix>3d</fix>
</trkpt>
<trkpt lat="40.0713751" lon="-105.2297889">
  <ele>1583.01</ele>
  <time>2026-08-28T17:48:32Z</time>
  <course>247.1</course>
  <speed>0.022360679774997897</speed>
  <fix>3d</fix>
</trkpt>
<trkpt lat="40.0713749" lon="-105.229789">
  <ele>1583.0</ele>
  <time>2026-08-28T17:48:32Z</time>
  <course>0.0</course>
  <speed>0.0</speed>
  <fix>3d</fix>
</trkpt>
<trkpt lat="40.0713751" lon="-105.2297889">
  <ele>1583.01</ele>
  <time>2026-08-28T17:48:32Z</time>
  <course>247.1</course>
  <speed>0.022360679774997897</speed>
  <fix>3d</fix>
</trkpt>
<trkpt lat="40.0713749" lon="-105.229789">
  <ele>1583.0</ele>
  <time>2026-08-28T17:48:32Z</time>
  <course>0.0</course>
  <speed>0.0</speed>
  <fix>3d</fix>
</trkpt>
<trkpt lat="40.0713751" lon="-105.2297889">
  <ele>1583.01</ele>
  <time>2026-08-28T17:48:32Z</time>
  <course>247.1</course>
  <speed>0.022360679774997897</speed>
  <fix>3d</fix>
</trkpt>
<trkpt lat="40.0713749" lon="-105.229789">
  <ele>1583.0</ele>
  <time>2026-08-28T17:48:32Z</time>
  <course>0.0</course>
  <speed>0.0</speed>
  <fix>3d</fix>
</trkpt>
<trkpt lat="40.0713751" lon="-105.2297889">
  <ele>1583.01</ele>
  <time>2026-08-28T17:48:32Z</time>
  <course>247.1</course>
  <speed>0.022360679774997897</speed>
  <fix>3d</fix>
</trkpt>
<trkpt lat="40.0713749" lon="-105.229789">
  <ele>1583.0</ele>
  <time>2026-08-28T17:48:32Z</time>
  <course>0.0</course>
  <speed>0.0</speed>
  <fix>3d</fix>
</trkpt>
<trkpt lat="40.0713751" lon="-105.2297889">
  <ele>1583.02</ele>
  <time>2026-08-28T17:48:32Z</time>
  <course>247.1</course>
  <speed>0.02</speed>
  <fix>3d</fix>
</trkpt>
<trkpt lat="40.0713749" lon="-105.229789">
  <ele>1583.0</ele>
  <time>2026-08-28T17:48:32Z</time>
  <course>0.0</course>
  <speed>0.0</speed>
  <fix>3d</fix>
</trkpt>
<trkpt lat="40.0713751" lon="-105.2297889">
  <ele>1583.02</ele>
  <time>2026-08-28T17:48:32Z</time>
  <course>247.1</course>
  <speed>0.02</speed>
  <fix>3d</fix>
</trkpt>
<trkpt lat="40.0713749" lon="-105.229789">
  <ele>1583.0</ele>
  <time>2026-08-28T17:48:32Z</time>
  <course>0.0</course>
  <speed>0.0</speed>
  <fix>3d</fix>
</trkpt>
<trkpt lat="40.0713751" lon="-105.2297889">
  <ele>1583.02</ele>
  <time>2026-08-28T17:48:32Z</time>
  <course>247.1</course>
  <speed>0.02</speed>
  <fix>3d</fix>
</trkpt>
<trkpt lat="40.0713749" lon="-105.229789">
  <ele>1583.0</ele>
  <time>2026-08-28T17:48:32Z</time>
  <course>0.0</course>
  <speed>0.0</speed>
  <fix>3d</fix>
</trkpt>
<trkpt lat="40.0713751" lon="-105.2297889">
  <ele>1583.02</ele>
  <time>2026-08-28T17:48:32Z</time>
  <course>247.1</course>
  <speed>0.02</speed>
  <fix>3d</fix>
</trkpt>
<trkpt lat="40.0713749" lon="-105.229789">
  <ele>1583.0</ele>
  <time>2026-08-28T17:48:32Z</time>
  <course>0.0</course>
  <speed>0.0</speed>
  <fix>3d</fix>
</trkpt>
<trkpt lat="40.0713751" lon="-105.2297889">
  <ele>1583.02</ele>
  <time>2026-08-28T17:48:32Z</time>
  <course>247.1</course>
  <speed>0.02</speed>
  <fix>3d</fix>
</trkpt>
<trkpt lat="40.0713749" lon="-105.229789">
  <ele>1583.0</ele>
  <time>2026-08-28T17:48:32Z</time>
  <course>0.0</course>
  <speed>0.0</speed>
  <fix>3d</fix>
</trkpt>
<trkpt lat="40.0713751" lon="-105.2297889">
  <ele>1583.03</ele>
  <time>2026-08-28T17:48:32Z</time>
  <course>247.1</course>
  <speed>0.02</speed>
  <fix>3d</fix>
</trkpt>
<trkpt lat="40.0713749" lon="-105.229789">
  <ele>1583.0</ele>
  <time>2026-08-28T17:48:32Z</time>
  <course>0.0</course>
  <speed>0.0</speed>
  <fix>3d</fix>
</trkpt>
<trkpt lat="40.0713751" lon="-105.2297889">
  <ele>1583.03</ele>
  <time>2026-08-28T17:48:32Z</time>
  <course>247.1</course>
  <speed>0.02</speed>
  <fix>3d</fix>
</trkpt>
<trkpt lat="40.0713749" lon="-105.229789">
  <ele>1583.0</ele>
  <time>2026-08-28T17:48:32Z</time>
  <course>0.0</course>
  <speed>0.0</speed>
  <fix>3d</fix>
</trkpt>
<trkpt lat="40.0713751" lon="-105.2297889">
  <ele>1583.03</ele>
  <time>2026-08-28T17:48:32Z</time>
  <course>247.1</course>
  <speed>0.02</speed>
  <fix>3d</fix>
</trkpt>
<trkpt lat="40.0713749" lon="-105.229789">
  <ele>1583.0</ele>
  <time>2026-08-28T17:48:32Z</time>
  <course>0.0</course>
  <speed>0.0</speed>
  <fix>3d</fix>
</trkpt>
<trkpt lat="40.0713751" lon="-105.2297889">
  <ele>1583.03</ele>
  <time>2026-08-28T17:48:32Z</time>
  <course>247.1</course>
  <speed>0.02</speed>
  <fix>3d</fix>
</trkpt>
<trkpt lat="40.0713749" lon="-105.229789">
  <ele>1583.0</ele>
  <time>2026-08-28T17:48:32Z</time>
  <course>0.0</course>
  <speed>0.0</speed>
  <fix>3d</fix>
</trkpt>
<trkpt lat="40.0713751" lon="-105.2297889">
  <ele>1583.03</ele>
  <time>2026-08-28T17:48:32Z</time>
  <course>247.1</course>
  <speed>0.02</speed>
  <fix>3d</fix>
</trkpt>
<trkpt lat="40.0713749" lon="-105.229789">
  <ele>1583.0</ele>
  <time>2026-08-28T17:48:32Z</time>
  <course>0.0</course>
  <speed>0.0</speed>
  <fix>3d</fix>
</trkpt>
<trkpt lat="40.0713751" lon="-105.2297889">
  <ele>1583.03</ele>
  <time>2026-08-28T17:48:32Z</time>
  <course>247.1</course>
  <speed>0.01</speed>
  <fix>3d</fix>
</trkpt>
<trkpt lat="40.0713749" lon="-105.229789">
  <ele>1583.0</ele>
  <time>2026-08-28T17:48:32Z</time>
  <course>0.0</course>
  <speed>0.0</speed>
  <fix>3d</fix>
</trkpt>
<trkpt lat="40.0713751" lon="-105.2297889">
  <ele>1583.03</ele>
  <time>2026-08-28T17:48:32Z</time>
  <course>247.1</course>
  <speed>0.01</speed>
  <fix>3d</fix>
</trkpt>
<trkpt lat="40.0713749" lon="-105.229789">
  <ele>1583.0</ele>
  <time>2026-08-28T17:48:32Z</time>
  <course>0.0</course>
  <speed>0.0</speed>
  <fix>3d</fix>
</trkpt>
<trkpt lat="40.0713751" lon="-105.2297889">
  <ele>1583.02</ele>
  <time>2026-08-28T17:48:32Z</time>
  <course>247.1</course>
  <speed>0.01</speed>
  <fix>3d</fix>
</trkpt>
<trkpt lat="40.0713749" lon="-105.229789">
  <ele>1583.0</ele>
  <time>2026-08-28T17:48:32Z</time>
  <course>0.0</course>
  <speed>0.0</speed>
  <fix>3d</fix>
</trkpt>
<trkpt lat="40.0713751" lon="-105.2297889">
  <ele>1583.02</ele>
  <time>2026-08-28T17:48:32Z</time>
  <course>247.1</course>
  <speed>0.01</speed>
  <fix>3d</fix>
</trkpt>
<trkpt lat="40.0713749" lon="-105.229789">
  <ele>1583.0</ele>
  <time>2026-08-28T17:48:32Z</time>
  <course>0.0</course>
  <speed>0.0</speed>
  <fix>3d</fix>
</trkpt>
<trkpt lat="40.0713751" lon="-105.2297889">
  <ele>1583.02</ele>
  <time>2026-08-28T17:48:32Z</time>
  <course>247.1</course>
  <speed>0.01</speed>
  <fix>3d</fix>
</trkpt>
<trkpt lat="40.0713749" lon="-105.229789">
  <ele>1583.0</ele>
  <time>2026-08-28T17:48:32Z</time>
  <course>0.0</course>
  <speed>0.0</speed>
  <fix>3d</fix>
</trkpt>
<trkpt lat="40.0713751" lon="-105.2297889">
  <ele>1583.02</ele>
  <time>2026-08-28T17:48:32Z</time>
  <course>247.1</course>
  <speed>0.01</speed>
  <fix>3d</fix>
</trkpt>
<trkpt lat="40.0713749" lon="-105.229789">
  <ele>1583.0</ele>
  <time>2026-08-28T17:48:32Z</time>
  <course>0.0</course>
  <speed>0.0</speed>
  <fix>3d</fix>
</trkpt>
<trkpt lat="40.0713751" lon="-105.2297889">
  <ele>1583.02</ele>
  <time>2026-08-28T17:48:32Z</time>
  <course>247.1</course>
  <speed>0.01</speed>
  <fix>3d</fix>
</trkpt>
<trkpt lat="40.0713749" lon="-105.229789">
  <ele>1583.0</ele>
  <time>2026-08-28T17:48:32Z</time>
  <course>0.0</course>
  <speed>0.0</speed>
  <fix>3d</fix>
</trkpt>
<trkpt lat="40.0713751" lon="-105.2297889">
  <ele>1583.02</ele>
  <time>2026-08-28T17:48:32Z</time>
  <course>247.1</course>
  <speed>0.01</speed>
  <fix>3d</fix>
</trkpt>
<trkpt lat="40.0713749" lon="-105.229789">
  <ele>1583.0</ele>
  <time>2026-08-28T17:48:32Z</time>
  <course>0.0</course>
  <speed>0.0</speed>
  <fix>3d</fix>
</trkpt>
<trkpt lat="40.0713751" lon="-105.2297889">
  <ele>1583.02</ele>
  <time>2026-08-28T17:48:32Z</time>
  <course>247.1</course>
  <speed>0.01</speed>
  <fix>3d</fix>
</trkpt>
<trkpt lat="40.0713749" lon="-105.229789">
  <ele>1583.0</ele>
  <time>2026-08-28T17:48:32Z</time>
  <course>0.0</course>
  <speed>0.0</speed>
  <fix>3d</fix>
</trkpt>
<trkpt lat="40.0713751" lon="-105.2297889">
  <ele>1583.02</ele>
  <time>2026-08-28T17:48:32Z</time>
  <course>247.1</course>
  <speed>0.01</speed>
  <fix>3d</fix>
</trkpt>
<trkpt lat="40.0713749" lon="-105.229789">
  <ele>1583.0</ele>
  <time>2026-08-28T17:48:32Z</time>
  <course>0.0</course>
  <speed>0.0</speed>
  <fix>3d</fix>
</trkpt>
<trkpt lat="40.0713751" lon="-105.2297889">
  <ele>1583.02</ele>
  <time>2026-08-28T17:48:32Z</time>
  <course>247.1</course>
  <speed>0.01</speed>
  <fix>3d</fix>
</trkpt>
<trkpt lat="40.0713749" lon="-105.229789">
  <ele>1583.0</ele>
  <time>2026-08-28T17:48:32Z</time>
  <course>0.0</course>
  <speed>0.0</speed>
  <fix>3d</fix>
</trkpt>
<trkpt lat="40.0713751" lon="-105.2297889">
  <ele>1583.02</ele>
  <time>2026-08-28T17:48:32Z</time>
  <course>247.1</course>
  <speed>0.01</speed>
  <fix>3d</fix>
</trkpt>
<trkpt lat="40.0713749" lon="-105.229789">
  <ele>1583.0</ele>
  <time>2026-08-28T17:48:32Z</time>
  <course>0.0</course>
  <speed>0.0</speed>
  <fix>3d</fix>
</trkpt>
<trkpt lat="40.0713751" lon="-105.2297889">
  <ele>1583.02</ele>
  <time>2026-08-28T17:48:32Z</time>
  <course>247.1</course>
  <speed>0.01</speed>
  <fix>3d</fix>
</trkpt>
<trkpt lat="40.0713749" lon="-105.229789">
  <ele>1583.0</ele>
  <time>2026-08-28T17:48:32Z</time>
  <course>0.0</course>
  <speed>0.0</speed>
  <fix>3d</fix>
</trkpt>
<trkpt lat="40.0713751" lon="-105.2297889">
  <ele>1583.02</ele>
  <time>2026-08-28T17:48:32Z</time>
  <course>247.1</course>
  <speed>0.01</speed>
  <fix>3d</fix>
</trkpt>
<trkpt lat="40.0713749" lon="-105.229789">
  <ele>1583.0</ele>
  <time>2026-08-28T17:48:32Z</time>
  <course>0.0</course>
  <speed>0.0</speed>
  <fix>3d</fix>
</trkpt>
<trkpt lat="40.0713751" lon="-105.2297889">
  <ele>1583.02</ele>
  <time>2026-08-28T17:48:32Z</time>
  <course>247.1</course>
  <speed>0.01</speed>
  <fix>3d</fix>
</trkpt>
<trkpt lat="40.0713749" lon="-105.229789">
  <ele>1583.0</ele>
  <time>2026-08-28T17:48:32Z</time>
  <course>0.0</course>
  <speed>0.0</speed>
  <fix>3d</fix>
</trkpt>
<trkpt lat="40.0713751" lon="-105.2297889">
  <ele>1583.02</ele>
  <time>2026-08-28T17:48:32Z</time>
  <course>247.1</course>
  <speed>0.01</speed>
  <fix>3d</fix>
</trkpt>
<trkpt lat="40.0713749" lon="-105.229789">
  <ele>1583.0</ele>
  <time>2026-08-28T17:48:32Z</time>
  <course>0.0</course>
  <speed>0.0</speed>
  <fix>3d</fix>
</trkpt>
<trkpt lat="40.0713751" lon="-105.2297889">
  <ele>1583.02</ele>
  <time>2026-08-28T17:48:32Z</time>
  <course>247.1</course>
  <speed>0.01</speed>
  <fix>3d</fix>
</trkpt>
<trkpt lat="40.0713749" lon="-105.229789">
  <ele>1583.0</ele>
  <time>2026-08-28T17:48:32Z</time>
  <course>0.0</course>
  <speed>0.0</speed>
  <fix>3d</fix>
</trkpt>
<trkpt lat="40.0713751" lon="-105.2297889">
  <ele>1583.02</ele>
  <time>2026-08-28T17:48:32Z</time>
  <course>247.1</course>
  <speed>0.01</speed>
  <fix>3d</fix>
</trkpt>
<trkpt lat="40.0713749" lon="-105.229789">
  <ele>1583.0</ele>
  <time>2026-08-28T17:48:32Z</time>
  <course>0.0</course>
  <speed>0.0</speed>
  <fix>3d</fix>
</trkpt>
<trkpt lat="40.0713751" lon="-105.2297889">
  <ele>1583.02</ele>
  <time>2026-08-28T17:48:32Z</time>
  <course>247.1</course>
  <speed>0.01</speed>
  <fix>3d</fix>
</trkpt>
<trkpt lat="40.0713749" lon="-105.229789">
  <ele>1583.0</ele>
  <time>2026-08-28T17:48:32Z</time>
  <course>0.0</course>
  <speed>0.0</speed>
  <fix>3d</fix>
</trkpt>
<trkpt lat="40.0713751" lon="-105.2297889">
  <ele>1583.02</ele>
  <time>2026-08-28T17:48:32Z</time>
  <course>247.1</course>
  <speed>0.01</speed>
  <fix>3d</fix>
</trkpt>
<trkpt lat="40.0713749" lon="-105.229789">
  <ele>1583.0</ele>
  <time>2026-08-28T17:48:32Z</time>
  <course>0.0</course>
  <speed>0.0</speed>
  <fix>3d</fix>
</trkpt>
<trkpt lat="40.0713751" lon="-105.2297889">
  <ele>1583.02</ele>
  <time>2026-08-28T17:48:32Z</time>
  <course>247.1</course>
  <speed>0.01</speed>
  <fix>3d</fix>
</trkpt>
<trkpt lat="40.0713749" lon="-105.229789">
  <ele>1583.0</ele>
  <time>2026-08-28T17:48:32Z</time>
  <course>0.0</course>
  <speed>0.0</speed>
  <fix>3d</fix>
</trkpt>
<trkpt lat="40.0713751" lon="-105.2297889">
  <ele>1583.02</ele>
  <time>2026-08-28T17:48:32Z</time>
  <course>247.1</course>
  <speed>0.01</speed>
  <fix>3d</fix>
</trkpt>
<trkpt lat="40.0713749" lon="-105.229789">
  <ele>1583.0</ele>
  <time>2026-08-28T17:48:32Z</time>
  <course>0.0</course>
  <speed>0.0</speed>
  <fix>3d</fix>
</trkpt>
<trkpt lat="40.0713751" lon="-105.2297889">
  <ele>1583.02</ele>
  <time>2026-08-28T17:48:32Z</time>
  <course>247.1</course>
  <speed>0.01</speed>
  <fix>3d</fix>
</trkpt>
<trkpt lat="40.0713749" lon="-105.229789">
  <ele>1583.0</ele>
  <time>2026-08-28T17:48:32Z</time>
  <course>0.0</course>
  <speed>0.0</speed>
  <fix>3d</fix>
</trkpt>
<trkpt lat="40.0713751" lon="-105.2297889">
  <ele>1583.02</ele>
  <time>2026-08-28T17:48:32Z</time>
  <course>247.1</course>
  <speed>0.01</speed>
  <fix>3d</fix>
</trkpt>
<trkpt lat="40.0713749" lon="-105.229789">
  <ele>1583.0</ele>
  <time>2026-08-28T17:48:32Z</time>
  <course>0.0</course>
  <speed>0.0</speed>
  <fix>3d</fix>
</trkpt>
<trkpt lat="40.0713751" lon="-105.2297889">
  <ele>1583.02</ele>
  <time>2026-08-28T17:48:32Z</time>
  <course>247.1</course>
  <speed>0.01</speed>
  <fix>3d</fix>
</trkpt>
<trkpt lat="40.0713749" lon="-105.229789">
  <ele>1583.0</ele>
  <time>2026-08-28T17:48:32Z</time>
  <course>0.0</course>
  <speed>0.0</speed>
  <fix>3d</fix>
</trkpt>
<trkpt lat="40.0713751" lon="-105.2297889">
  <ele>1583.02</ele>
  <time>2026-08-28T17:48:32Z</time>
  <course>247.1</course>
  <speed>0.02</speed>
  <fix>3d</fix>
</trkpt>
<trkpt lat="40.0713749" lon="-105.229789">
  <ele>1583.0</ele>
  <time>2026-08-28T17:48:32Z</time>
  <course>0.0</course>
  <speed>0.0</speed>
  <fix>3d</fix>
</trkpt>
<trkpt lat="40.0713751" lon="-105.2297889">
  <ele>1583.02</ele>
  <time>2026-08-28T17:48:32Z</time>
  <course>247.1</course>
  <speed>0.02</speed>
  <fix>3d</fix>
</trkpt>
<trkpt lat="40.0713749" lon="-105.229789">
  <ele>1583.0</ele>
  <time>2026-08-28T17:48:32Z</time>
  <course>0.0</course>
  <speed>0.0</speed>
  <fix>3d</fix>
</trkpt>
<trkpt lat="40.0713751" lon="-105.2297889">
  <ele>1583.02</ele>
  <time>2026-08-28T17:48:32Z</time>
  <course>247.1</course>
  <speed>0.02</speed>
  <fix>3d</fix>
</trkpt>
<trkpt lat="40.0713749" lon="-105.229789">
  <ele>1583.0</ele>
  <time>2026-08-28T17:48:32Z</time>
  <course>0.0</course>
  <speed>0.0</speed>
  <fix>3d</fix>
</trkpt>
<trkpt lat="40.0713751" lon="-105.2297889">
  <ele>1583.02</ele>
  <time>2026-08-28T17:48:32Z</time>
  <course>247.1</course>
  <speed>0.02</speed>
  <fix>3d</fix>
</trkpt>
<trkpt lat="40.0713749" lon="-105.229789">
  <ele>1583.0</ele>
  <time>2026-08-28T17:48:32Z</time>
  <course>0.0</course>
  <speed>0.0</speed>
  <fix>3d</fix>
</trkpt>
<trkpt lat="40.0713751" lon="-105.2297889">
  <ele>1583.02</ele>
  <time>2026-08-28T17:48:32Z</time>
  <course>247.1</course>
  <speed>0.02</speed>
  <fix>3d</fix>
</trkpt>
<trkpt lat="40.0713749" lon="-105.229789">
  <ele>1583.0</ele>
  <time>2026-08-28T17:48:32Z</time>
  <course>0.0</course>
  <speed>0.0</speed>
  <fix>3d</fix>
</trkpt>
<trkpt lat="40.0713751" lon="-105.2297889">
  <ele>1583.02</ele>
  <time>2026-08-28T17:48:32Z</time>
  <course>247.1</course>
  <speed>0.02</speed>
  <fix>3d</fix>
</trkpt>
<trkpt lat="40.0713749" lon="-105.229789">
  <ele>1583.0</ele>
  <time>2026-08-28T17:48:32Z</time>
  <course>0.0</course>
  <speed>0.0</speed>
  <fix>3d</fix>
</trkpt>
<trkpt lat="40.0713751" lon="-105.2297889">
  <ele>1583.02</ele>
  <time>2026-08-28T17:48:32Z</time>
  <course>247.1</course>
  <speed>0.02</speed>
  <fix>3d</fix>
</trkpt>
<trkpt lat="40.0713749" lon="-105.229789">
  <ele>1583.0</ele>
  <time>2026-08-28T17:48:32Z</time>
  <course>0.0</course>
  <speed>0.0</speed>
  <fix>3d</fix>
</trkpt>
<trkpt lat="40.0713751" lon="-105.2297889">
  <ele>1583.02</ele>
  <time>2026-08-28T17:48:32Z</time>
  <course>247.1</course>
  <speed>0.02</speed>
  <fix>3d</fix>
</trkpt>
<trkpt lat="40.0713749" lon="-105.229789">
  <ele>1583.0</ele>
  <time>2026-08-28T17:48:32Z</time>
  <course>0.0</course>
  <speed>0.0</speed>
  <fix>3d</fix>
</trkpt>
<trkpt lat="40.0713751" lon="-105.2297889">
  <ele>1583.02</ele>
  <time>2026-08-28T17:48:32Z</time>
  <course>247.1</course>
  <speed>0.02</speed>
  <fix>3d</fix>
</trkpt>
<trkpt lat="40.0713749" lon="-105.229789">
  <ele>1583.0</ele>
  <time>2026-08-28T17:48:32Z</time>
  <course>0.0</course>
  <speed>0.0</speed>
  <fix>3d</fix>
</trkpt>
<trkpt lat="40.0713751" lon="-105.2297889">
  <ele>1583.03</ele>
  <time>2026-08-28T17:48:32Z</time>
  <course>247.1</course>
  <speed>0.02</speed>
  <fix>3d</fix>
</trkpt>
<trkpt lat="40.0713749" lon="-105.229789">
  <ele>1583.0</ele>
  <time>2026-08-28T17:48:32Z</time>
  <course>0.0</course>
  <speed>0.0</speed>
  <fix>3d</fix>
</trkpt>
<trkpt lat="40.0713751" lon="-105.2297889">
  <ele>1583.03</ele>
  <time>2026-08-28T17:48:32Z</time>
  <course>247.1</course>
  <speed>0.02</speed>
  <fix>3d</fix>
</trkpt>
<trkpt lat="40.0713749" lon="-105.229789">
  <ele>1583.0</ele>
  <time>2026-08-28T17:48:32Z</time>
  <course>0.0</course>
  <speed>0.0</speed>
  <fix>3d</fix>
</trkpt>
<trkpt lat="40.0713751" lon="-105.2297889">
  <ele>1583.03</ele>
  <time>2026-08-28T17:48:32Z</time>
  <course>247.1</course>
  <speed>0.02</speed>
  <fix>3d</fix>
</trkpt>
<trkpt lat="40.0713749" lon="-105.229789">
  <ele>1583.0</ele>
  <time>2026-08-28T17:48:32Z</time>
  <course>0.0</course>
  <speed>0.0</speed>
  <fix>3d</fix>
</trkpt>
<trkpt lat="40.0713751" lon="-105.2297889">
  <ele>1583.03</ele>
  <time>2026-08-28T17:48:32Z</time>
  <course>247.1</course>
  <speed>0.02</speed>
  <fix>3d</fix>
</trkpt>
<trkpt lat="40.0713749" lon="-105.229789">
  <ele>1583.0</ele>
  <time>2026-08-28T17:48:32Z</time>
  <course>0.0</course>
  <speed>0.0</speed>
  <fix>3d</fix>
</trkpt>
<trkpt lat="40.0713751" lon="-105.2297889">
  <ele>1583.02</ele>
  <time>2026-08-28T17:48:32Z</time>
  <course>247.11</course>
  <speed>0.02</speed>
  <fix>3d</fix>
</trkpt>
<trkpt lat="40.0713749" lon="-105.229789">
  <ele>1583.0</ele>
  <time>2026-08-28T17:48:32Z</time>
  <course>0.0</course>
  <speed>0.0</speed>
  <fix>3d</fix>
</trkpt>
<trkpt lat="40.0713751" lon="-105.2297889">
  <ele>1583.02</ele>
  <time>2026-08-28T17:48:32Z</time>
  <course>247.11</course>
  <speed>0.02</speed>
  <fix>3d</fix>
</trkpt>
<trkpt lat="40.0713749" lon="-105.229789">
  <ele>1583.0</ele>
  <time>2026-08-28T17:48:32Z</time>
  <course>0.0</course>
  <speed>0.0</speed>
  <fix>3d</fix>
</trkpt>
<trkpt lat="40.0713751" lon="-105.2297889">
  <ele>1583.02</ele>
  <time>2026-08-28T17:48:32Z</time>
  <course>247.11</course>
  <speed>0.02</speed>
  <fix>3d</fix>
</trkpt>
<trkpt lat="40.0713749" lon="-105.229789">
  <ele>1583.0</ele>
  <time>2026-08-28T17:48:32Z</time>
  <course>0.0</course>
  <speed>0.0</speed>
  <fix>3d</fix>
</trkpt>
<trkpt lat="40.0713751" lon="-105.2297889">
  <ele>1583.01</ele>
  <time>2026-08-28T17:48:32Z</time>
  <course>247.11</course>
  <speed>0.02</speed>
  <fix>3d</fix>
</trkpt>
<trkpt lat="40.0713749" lon="-105.229789">
  <ele>1583.0</ele>
  <time>2026-08-28T17:48:32Z</time>
  <course>0.0</course>
  <speed>0.0</speed>
  <fix>3d</fix>
</trkpt>
<trkpt lat="40.0713751" lon="-105.2297889">
  <ele>1583.01</ele>
  <time>2026-08-28T17:48:32Z</time>
  <course>247.11</course>
  <speed>0.02</speed>
  <fix>3d</fix>
</trkpt>
<trkpt lat="40.0713749" lon="-105.229789">
  <ele>1583.0</ele>
  <time>2026-08-28T17:48:32Z</time>
  <course>0.0</course>
  <speed>0.0</speed>
  <fix>3d</fix>
</trkpt>
<trkpt lat="40.0713751" lon="-105.2297889">
  <ele>1583.01</ele>
  <time>2026-08-28T17:48:32Z</time>
  <course>247.11</course>
  <speed>0.022360679774997897</speed>
  <fix>3d</fix>
</trkpt>
<trkpt lat="40.0713749" lon="-105.229789">
  <ele>1583.0</ele>
  <time>2026-08-28T17:48:32Z</time>
  <course>0.0</course>
  <speed>0.0</speed>
  <fix>3d</fix>
</trkpt>
<trkpt lat="40.0713751" lon="-105.2297889">
  <ele>1583.01</ele>
  <time>2026-08-28T17:48:32Z</time>
  <course>247.11</course>
  <speed>0.022360679774997897</speed>
  <fix>3d</fix>
</trkpt>
<trkpt lat="40.0713749" lon="-105.229789">
  <ele>1583.0</ele>
  <time>2026-08-28T17:48:32Z</time>
  <course>0.0</course>
  <speed>0.0</speed>
  <fix>3d</fix>
</trkpt>
<trkpt lat="40.0713751" lon="-105.2297889">
  <ele>1583.01</ele>
  <time>2026-08-28T17:48:32Z</time>
  <course>247.11</course>
  <speed>0.022360679774997897</speed>
  <fix>3d</fix>
</trkpt>
<trkpt lat="40.0713749" lon="-105.229789">
  <ele>1583.0</ele>
  <time>2026-08-28T17:48:32Z</time>
  <course>0.0</course>
  <speed>0.0</speed>
  <fix>3d</fix>
</trkpt>
<trkpt lat="40.0713751" lon="-105.2297889">
  <ele>1583.02</ele>
  <time>2026-08-28T17:48:32Z</time>
  <course>247.11</course>
  <speed>0.022360679774997897</speed>
  <fix>3d</fix>
</trkpt>
<trkpt lat="40.0713749" lon="-105.229789">
  <ele>1583.0</ele>
  <time>2026-08-28T17:48:32Z</time>
  <course>0.0</course>
  <speed>0.0</speed>
  <fix>3d</fix>
</trkpt>
<trkpt lat="40.0713751" lon="-105.2297889">
  <ele>1583.02</ele>
  <time>2026-08-28T17:48:32Z</time>
  <course>247.11</course>
  <speed>0.022360679774997897</speed>
  <fix>3d</fix>
</trkpt>
<trkpt lat="40.0713749" lon="-105.229789">
  <ele>1583.0</ele>
  <time>2026-08-28T17:48:32Z</time>
  <course>0.0</course>
  <speed>0.0</speed>
  <fix>3d</fix>
</trkpt>
<trkpt lat="40.0713751" lon="-105.2297889">
  <ele>1583.02</ele>
  <time>2026-08-28T17:48:32Z</time>
  <course>247.11</course>
  <speed>0.022360679774997897</speed>
  <fix>3d</fix>
</trkpt>
<trkpt lat="40.0713749" lon="-105.229789">
  <ele>1583.0</ele>
  <time>2026-08-28T17:48:32Z</time>
  <course>0.0</course>
  <speed>0.0</speed>
  <fix>3d</fix>
</trkpt>
<trkpt lat="40.0713751" lon="-105.2297889">
  <ele>1583.02</ele>
  <time>2026-08-28T17:48:32Z</time>
  <course>247.11</course>
  <speed>0.022360679774997897</speed>
  <fix>3d</fix>
</trkpt>
<trkpt lat="40.0713749" lon="-105.229789">
  <ele>1583.0</ele>
  <time>2026-08-28T17:48:32Z</time>
  <course>0.0</course>
  <speed>0.0</speed>
  <fix>3d</fix>
</trkpt>
<trkpt lat="40.0713751" lon="-105.2297889">
  <ele>1583.02</ele>
  <time>2026-08-28T17:48:32Z</time>
  <course>247.11</course>
  <speed>0.022360679774997897</speed>
  <fix>3d</fix>
</trkpt>
<trkpt lat="40.0713749" lon="-105.229789">
  <ele>1583.0</ele>
  <time>2026-08-28T17:48:32Z</time>
  <course>0.0</course>
  <speed>0.0</speed>
  <fix>3d</fix>
</trkpt>
<trkpt lat="40.0713751" lon="-105.2297889">
  <ele>1583.02</ele>
  <time>2026-08-28T17:48:32Z</time>
  <course>247.11</course>
  <speed>0.022360679774997897</speed>
  <fix>3d</fix>
</trkpt>
<trkpt lat="40.0713749" lon="-105.229789">
  <ele>1583.0</ele>
  <time>2026-08-28T17:48:32Z</time>
  <course>0.0</course>
  <speed>0.0</speed>
  <fix>3d</fix>
</trkpt>
<trkpt lat="40.0713751" lon="-105.2297889">
  <ele>1583.02</ele>
  <time>2026-08-28T17:48:32Z</time>
  <course>247.11</course>
  <speed>0.022360679774997897</speed>
  <fix>3d</fix>
</trkpt>
<trkpt lat="40.0713749" lon="-105.229789">
  <ele>1583.0</ele>
  <time>2026-08-28T17:48:32Z</time>
  <course>0.0</course>
  <speed>0.0</speed>
  <fix>3d</fix>
</trkpt>
<trkpt lat="40.0713751" lon="-105.2297889">
  <ele>1583.02</ele>
  <time>2026-08-28T17:48:32Z</time>
  <course>247.11</course>
  <speed>0.022360679774997897</speed>
  <fix>3d</fix>
</trkpt>
<trkpt lat="40.0713749" lon="-105.229789">
  <ele>1583.0</ele>
  <time>2026-08-28T17:48:32Z</time>
  <course>0.0</course>
  <speed>0.0</speed>
  <fix>3d</fix>
</trkpt>
<trkpt lat="40.0713751" lon="-105.2297889">
  <ele>1583.02</ele>
  <time>2026-08-28T17:48:32Z</time>
  <course>247.11</course>
  <speed>0.022360679774997897</speed>
  <fix>3d</fix>
</trkpt>
<trkpt lat="40.0713749" lon="-105.229789">
  <ele>1583.0</ele>
  <time>2026-08-28T17:48:32Z</time>
  <course>0.0</course>
  <speed>0.0</speed>
  <fix>3d</fix>
</trkpt>
<trkpt lat="40.0713751" lon="-105.2297889">
  <ele>1583.02</ele>
  <time>2026-08-28T17:48:32Z</time>
  <course>247.11</course>
  <speed>0.022360679774997897</speed>
  <fix>3d</fix>
</trkpt>
<trkpt lat="40.0713749" lon="-105.229789">
  <ele>1583.0</ele>
  <time>2026-08-28T17:48:32Z</time>
  <course>0.0</course>
  <speed>0.0</speed>
  <fix>3d</fix>
</trkpt>
<trkpt lat="40.0713751" lon="-105.2297889">
  <ele>1583.01</ele>
  <time>2026-08-28T17:48:32Z</time>
  <course>247.11</course>
  <speed>0.022360679774997897</speed>
  <fix>3d</fix>
</trkpt>
<trkpt lat="40.0713749" lon="-105.229789">
  <ele>1583.0</ele>
  <time>2026-08-28T17:48:32Z</time>
  <course>0.0</course>
  <speed>0.0</speed>
  <fix>3d</fix>
</trkpt>
<trkpt lat="40.0713751" lon="-105.2297889">
  <ele>1583.01</ele>
  <time>2026-08-28T17:48:32Z</time>
  <course>247.11</course>
  <speed>0.022360679774997897</speed>
  <fix>3d</fix>
</trkpt>
<trkpt lat="40.0713749" lon="-105.229789">
  <ele>1583.0</ele>
  <time>2026-08-28T17:48:32Z</time>
  <course>0.0</course>
  <speed>0.0</speed>
  <fix>3d</fix>
</trkpt>
<trkpt lat="40.0713751" lon="-105.2297889">
  <ele>1583.01</ele>
  <time>2026-08-28T17:48:32Z</time>
  <course>247.11</course>
  <speed>0.022360679774997897</speed>
  <fix>3d</fix>
</trkpt>
<trkpt lat="40.0713749" lon="-105.229789">
  <ele>1583.0</ele>
  <time>2026-08-28T17:48:32Z</time>
  <course>0.0</course>
  <speed>0.0</speed>
  <fix>3d</fix>
</trkpt>
<trkpt lat="40.0713751" lon="-105.2297889">
  <ele>1583.01</ele>
  <time>2026-08-28T17:48:32Z</time>
  <course>247.11</course>
  <speed>0.022360679774997897</speed>
  <fix>3d</fix>
</trkpt>
<trkpt lat="40.0713749" lon="-105.229789">
  <ele>1583.0</ele>
  <time>2026-08-28T17:48:32Z</time>
  <course>0.0</course>
  <speed>0.0</speed>
  <fix>3d</fix>
</trkpt>
<trkpt lat="40.0713751" lon="-105.2297889">
  <ele>1583.01</ele>
  <time>2026-08-28T17:48:32Z</time>
  <course>247.11</course>
  <speed>0.022360679774997897</speed>
  <fix>3d</fix>
</trkpt>
<trkpt lat="40.0713749" lon="-105.229789">
  <ele>1583.0</ele>
  <time>2026-08-28T17:48:32Z</time>
  <course>0.0</course>
  <speed>0.0</speed>
  <fix>3d</fix>
</trkpt>
<trkpt lat="40.0713751" lon="-105.2297889">
  <ele>1583.01</ele>
  <time>2026-08-28T17:48:32Z</time>
  <course>247.11</course>
  <speed>0.022360679774997897</speed>
  <fix>3d</fix>
</trkpt>
<trkpt lat="40.0713749" lon="-105.229789">
  <ele>1583.0</ele>
  <time>2026-08-28T17:48:32Z</time>
  <course>0.0</course>
  <speed>0.0</speed>
  <fix>3d</fix>
</trkpt>
<trkpt lat="40.0713751" lon="-105.2297889">
  <ele>1583.01</ele>
  <time>2026-08-28T17:48:32Z</time>
  <course>247.11</course>
  <speed>0.022360679774997897</speed>
  <fix>3d</fix>
</trkpt>
<trkpt lat="40.0713749" lon="-105.229789">
  <ele>1583.0</ele>
  <time>2026-08-28T17:48:32Z</time>
  <course>0.0</course>
  <speed>0.0</speed>
  <fix>3d</fix>
</trkpt>
<trkpt lat="40.0713751" lon="-105.2297889">
  <ele>1583.01</ele>
  <time>2026-08-28T17:48:32Z</time>
  <course>247.11</course>
  <speed>0.022360679774997897</speed>
  <fix>3d</fix>
</trkpt>
<trkpt lat="40.0713749" lon="-105.229789">
  <ele>1583.0</ele>
  <time>2026-08-28T17:48:32Z</time>
  <course>0.0</course>
  <speed>0.0</speed>
  <fix>3d</fix>
</trkpt>
<trkpt lat="40.0713751" lon="-105.2297889">
  <ele>1583.01</ele>
  <time>2026-08-28T17:48:32Z</time>
  <course>247.11</course>
  <speed>0.022360679774997897</speed>
  <fix>3d</fix>
</trkpt>
<trkpt lat="40.0713749" lon="-105.229789">
  <ele>1583.0</ele>
  <time>2026-08-28T17:48:32Z</time>
  <course>0.0</course>
  <speed>0.0</speed>
  <fix>3d</fix>
</trkpt>
<trkpt lat="40.0713751" lon="-105.2297889">
  <ele>1583.01</ele>
  <time>2026-08-28T17:48:32Z</time>
  <course>247.11</course>
  <speed>0.022360679774997897</speed>
  <fix>3d</fix>
</trkpt>
<trkpt lat="40.0713749" lon="-105.229789">
  <ele>1583.0</ele>
  <time>2026-08-28T17:48:32Z</time>
  <course>0.0</course>
  <speed>0.0</speed>
  <fix>3d</fix>
</trkpt>
<trkpt lat="40.0713751" lon="-105.2297889">
  <ele>1583.01</ele>
  <time>2026-08-28T17:48:32Z</time>
  <course>247.11</course>
  <speed>0.022360679774997897</speed>
  <fix>3d</fix>
</trkpt>
<trkpt lat="40.0713749" lon="-105.229789">
  <ele>1583.0</ele>
  <time>2026-08-28T17:48:32Z</time>
  <course>0.0</course>
  <speed>0.0</speed>
  <fix>3d</fix>
</trkpt>
<trkpt lat="40.0713751" lon="-105.2297889">
  <ele>1583.0</ele>
  <time>2026-08-28T17:48:32Z</time>
  <course>247.11</course>
  <speed>0.022360679774997897</speed>
  <fix>3d</fix>
</trkpt>
<trkpt lat="40.0713749" lon="-105.229789">
  <ele>1583.0</ele>
  <time>2026-08-28T17:48:32Z</time>
  <course>0.0</course>
  <speed>0.0</speed>
  <fix>3d</fix>
</trkpt>
<trkpt lat="40.0713751" lon="-105.2297889">
  <ele>1583.0</ele>
  <time>2026-08-28T17:48:32Z</time>
  <course>247.11</course>
  <speed>0.022360679774997897</speed>
  <fix>3d</fix>
</trkpt>
<trkpt lat="40.0713749" lon="-105.229789">
  <ele>1583.0</ele>
  <time>2026-08-28T17:48:32Z</time>
  <course>0.0</course>
  <speed>0.0</speed>
  <fix>3d</fix>
</trkpt>
<trkpt lat="40.0713751" lon="-105.2297889">
  <ele>1583.01</ele>
  <time>2026-08-28T17:48:32Z</time>
  <course>247.11</course>
  <speed>0.022360679774997897</speed>
  <fix>3d</fix>
</trkpt>
<trkpt lat="40.0713749" lon="-105.229789">
  <ele>1583.0</ele>
  <time>2026-08-28T17:48:32Z</time>
  <course>0.0</course>
  <speed>0.0</speed>
  <fix>3d</fix>
</trkpt>
<trkpt lat="40.0713751" lon="-105.2297889">
  <ele>1583.01</ele>
  <time>2026-08-28T17:48:32Z</time>
  <course>247.11</course>
  <speed>0.022360679774997897</speed>
  <fix>3d</fix>
</trkpt>
<trkpt lat="40.0713749" lon="-105.229789">
  <ele>1583.0</ele>
  <time>2026-08-28T17:48:32Z</time>
  <course>0.0</course>
  <speed>0.0</speed>
  <fix>3d</fix>
</trkpt>
<trkpt lat="40.0713751" lon="-105.2297889">
  <ele>1583.01</ele>
  <time>2026-08-28T17:48:32Z</time>
  <course>247.11</course>
  <speed>0.022360679774997897</speed>
  <fix>3d</fix>
</trkpt>
<trkpt lat="40.0713749" lon="-105.229789">
  <ele>1583.0</ele>
  <time>2026-08-28T17:48:32Z</time>
  <course>0.0</course>
  <speed>0.0</speed>
  <fix>3d</fix>
</trkpt>
<trkpt lat="40.0713751" lon="-105.2297889">
  <ele>1583.0</ele>
  <time>2026-08-28T17:48:32Z</time>
  <course>247.11</course>
  <speed>0.022360679774997897</speed>
  <fix>3d</fix>
</trkpt>
<trkpt lat="40.0713749" lon="-105.229789">
  <ele>1583.0</ele>
  <time>2026-08-28T17:48:32Z</time>
  <course>0.0</course>
  <speed>0.0</speed>
  <fix>3d</fix>
</trkpt>
<trkpt lat="40.0713751" lon="-105.2297889">
  <ele>1583.0</ele>
  <time>2026-08-28T17:48:32Z</time>
  <course>247.11</course>
  <speed>0.022360679774997897</speed>
  <fix>3d</fix>
</trkpt>
<trkpt lat="40.0713749" lon="-105.229789">
  <ele>1583.0</ele>
  <time>2026-08-28T17:48:32Z</time>
  <course>0.0</course>
  <speed>0.0</speed>
  <fix>3d</fix>
</trkpt>
<trkpt lat="40.0713751" lon="-105.2297889">
  <ele>1583.01</ele>
  <time>2026-08-28T17:48:32Z</time>
  <course>247.11</course>
  <speed>0.022360679774997897</speed>
  <fix>3d</fix>
</trkpt>
<trkpt lat="40.0713749" lon="-105.229789">
  <ele>1583.0</ele>
  <time>2026-08-28T17:48:32Z</time>
  <course>0.0</course>
  <speed>0.0</speed>
  <fix>3d</fix>
</trkpt>
<trkpt lat="40.0713751" lon="-105.2297889">
  <ele>1583.01</ele>
  <time>2026-08-28T17:48:32Z</time>
  <course>247.11</course>
  <speed>0.022360679774997897</speed>
  <fix>3d</fix>
</trkpt>
<trkpt lat="40.0713749" lon="-105.229789">
  <ele>1583.0</ele>
  <time>2026-08-28T17:48:32Z</time>
  <course>0.0</course>
  <speed>0.0</speed>
  <fix>3d</fix>
</trkpt>
<trkpt lat="40.0713751" lon="-105.2297889">
  <ele>1583.01</ele>
  <time>2026-08-28T17:48:32Z</time>
  <course>247.11</course>
  <speed>0.022360679774997897</speed>
  <fix>3d</fix>
</trkpt>
<trkpt lat="40.0713749" lon="-105.229789">
  <ele>1583.0</ele>
  <time>2026-08-28T17:48:32Z</time>
  <course>0.0</course>
  <speed>0.0</speed>
  <fix>3d</fix>
</trkpt>
<trkpt lat="40.0713751" lon="-105.2297889">
  <ele>1583.01</ele>
  <time>2026-08-28T17:48:32Z</time>
  <course>247.11</course>
  <speed>0.022360679774997897</speed>
  <fix>3d</fix>
</trkpt>
<trkpt lat="40.0713749" lon="-105.229789">
  <ele>1583.0</ele>
  <time>2026-08-28T17:48:32Z</time>
  <course>0.0</course>
  <speed>0.0</speed>
  <fix>3d</fix>
</trkpt>
<trkpt lat="40.0713751" lon="-105.2297889">
  <ele>1583.01</ele>
  <time>2026-08-28T17:48:32Z</time>
  <course>247.11</course>
  <speed>0.022360679774997897</speed>
  <fix>3d</fix>
</trkpt>
<trkpt lat="40.0713749" lon="-105.229789">
  <ele>1583.0</ele>
  <time>2026-08-28T17:48:32Z</time>
  <course>0.0</course>
  <speed>0.0</speed>
  <fix>3d</fix>
</trkpt>
<trkpt lat="40.0713751" lon="-105.2297889">
  <ele>1583.01</ele>
  <time>2026-08-28T17:48:32Z</time>
  <course>247.11</course>
  <speed>0.022360679774997897</speed>
  <fix>3d</fix>
</trkpt>
<trkpt lat="40.0713749" lon="-105.229789">
  <ele>1583.0</ele>
  <time>2026-08-28T17:48:32Z</time>
  <course>0.0</course>
  <speed>0.0</speed>
  <fix>3d</fix>
</trkpt>
<trkpt lat="40.0713751" lon="-105.2297889">
  <ele>1583.01</ele>
  <time>2026-08-28T17:48:32Z</time>
  <course>247.11</course>
  <speed>0.022360679774997897</speed>
  <fix>3d</fix>
</trkpt>
<trkpt lat="40.0713749" lon="-105.229789">
  <ele>1583.0</ele>
  <time>2026-08-28T17:48:32Z</time>
  <course>0.0</course>
  <speed>0.0</speed>
  <fix>3d</fix>
</trkpt>
<trkpt lat="40.0713751" lon="-105.2297889">
  <ele>1583.01</ele>
  <time>2026-08-28T17:48:32Z</time>
  <course>247.11</course>
  <speed>0.022360679774997897</speed>
  <fix>3d</fix>
</trkpt>
<trkpt lat="40.0713749" lon="-105.229789">
  <ele>1583.0</ele>
  <time>2026-08-28T17:48:32Z</time>
  <course>0.0</course>
  <speed>0.0</speed>
  <fix>3d</fix>
</trkpt>
<trkpt lat="40.0713751" lon="-105.2297889">
  <ele>1583.01</ele>
  <time>2026-08-28T17:48:32Z</time>
  <course>247.11</course>
  <speed>0.022360679774997897</speed>
  <fix>3d</fix>
</trkpt>
<trkpt lat="40.0713749" lon="-105.229789">
  <ele>1583.0</ele>
  <time>2026-08-28T17:48:32Z</time>
  <course>0.0</course>
  <speed>0.0</speed>
  <fix>3d</fix>
</trkpt>
<trkpt lat="40.0713751" lon="-105.2297889">
  <ele>1583.01</ele>
  <time>2026-08-28T17:48:32Z</time>
  <course>247.11</course>
  <speed>0.022360679774997897</speed>
  <fix>3d</fix>
</trkpt>
<trkpt lat="40.0713749" lon="-105.229789">
  <ele>1583.0</ele>
  <time>2026-08-28T17:48:32Z</time>
  <course>0.0</course>
  <speed>0.0</speed>
  <fix>3d</fix>
</trkpt>
<trkpt lat="40.0713751" lon="-105.2297889">
  <ele>1583.01</ele>
  <time>2026-08-28T17:48:32Z</time>
  <course>247.11</course>
  <speed>0.022360679774997897</speed>
  <fix>3d</fix>
</trkpt>
<trkpt lat="40.0713749" lon="-105.229789">
  <ele>1583.0</ele>
  <time>2026-08-28T17:48:32Z</time>
  <course>0.0</course>
  <speed>0.0</speed>
  <fix>3d</fix>
</trkpt>
<trkpt lat="40.0713751" lon="-105.2297889">
  <ele>1583.01</ele>
  <time>2026-08-28T17:48:32Z</time>
  <course>247.11</course>
  <speed>0.022360679774997897</speed>
  <fix>3d</fix>
</trkpt>
<trkpt lat="40.0713749" lon="-105.229789">
  <ele>1583.0</ele>
  <time>2026-08-28T17:48:32Z</time>
  <course>0.0</course>
  <speed>0.0</speed>
  <fix>3d</fix>
</trkpt>
<trkpt lat="40.0713751" lon="-105.2297889">
  <ele>1583.0</ele>
  <time>2026-08-28T17:48:32Z</time>
  <course>247.11</course>
  <speed>0.022360679774997897</speed>
  <fix>3d</fix>
</trkpt>
<trkpt lat="40.0713749" lon="-105.229789">
  <ele>1583.0</ele>
  <time>2026-08-28T17:48:32Z</time>
  <course>0.0</course>
  <speed>0.0</speed>
  <fix>3d</fix>
</trkpt>
<trkpt lat="40.0713751" lon="-105.2297889">
  <ele>1583.0</ele>
  <time>2026-08-28T17:48:32Z</time>
  <course>247.11</course>
  <speed>0.022360679774997897</speed>
  <fix>3d</fix>
</trkpt>
<trkpt lat="40.0713749" lon="-105.229789">
  <ele>1583.0</ele>
  <time>2026-08-28T17:48:32Z</time>
  <course>0.0</course>
  <speed>0.0</speed>
  <fix>3d</fix>
</trkpt>
<trkpt lat="40.0713751" lon="-105.2297889">
  <ele>1583.0</ele>
  <time>2026-08-28T17:48:32Z</time>
  <course>247.11</course>
  <speed>0.022360679774997897</speed>
  <fix>3d</fix>
</trkpt>
<trkpt lat="40.0713749" lon="-105.229789">
  <ele>1583.0</ele>
  <time>2026-08-28T17:48:32Z</time>
  <course>0.0</course>
  <speed>0.0</speed>
  <fix>3d</fix>
</trkpt>
<trkpt lat="40.0713751" lon="-105.2297889">
  <ele>1582.99</ele>
  <time>2026-08-28T17:48:32Z</time>
  <course>247.11</course>
  <speed>0.022360679774997897</speed>
  <fix>3d</fix>
</trkpt>
<trkpt lat="40.0713749" lon="-105.229789">
  <ele>1583.0</ele>
  <time>2026-08-28T17:48:32Z</time>
  <course>0.0</course>
  <speed>0.0</speed>
  <fix>3d</fix>
</trkpt>
<trkpt lat="40.0713751" lon="-105.2297889">
  <ele>1582.99</ele>
  <time>2026-08-28T17:48:32Z</time>
  <course>247.12</course>
  <speed>0.022360679774997897</speed>
  <fix>3d</fix>
</trkpt>
<trkpt lat="40.0713749" lon="-105.229789">
  <ele>1583.0</ele>
  <time>2026-08-28T17:48:32Z</time>
  <course>0.0</course>
  <speed>0.0</speed>
  <fix>3d</fix>
</trkpt>
<trkpt lat="40.0713751" lon="-105.2297889">
  <ele>1582.99</ele>
  <time>2026-08-28T17:48:32Z</time>
  <course>247.12</course>
  <speed>0.022360679774997897</speed>
  <fix>3d</fix>
</trkpt>
<trkpt lat="40.0713749" lon="-105.229789">
  <ele>1583.0</ele>
  <time>2026-08-28T17:48:32Z</time>
  <course>0.0</course>
  <speed>0.0</speed>
  <fix>3d</fix>
</trkpt>
<trkpt lat="40.0713751" lon="-105.2297889">
  <ele>1582.99</ele>
  <time>2026-08-28T17:48:32Z</time>
  <course>247.12</course>
  <speed>0.022360679774997897</speed>
  <fix>3d</fix>
</trkpt>
<trkpt lat="40.0713749" lon="-105.229789">
  <ele>1583.0</ele>
  <time>2026-08-28T17:48:32Z</time>
  <course>0.0</course>
  <speed>0.0</speed>
  <fix>3d</fix>
</trkpt>
<trkpt lat="40.0713751" lon="-105.2297889">
  <ele>1582.99</ele>
  <time>2026-08-28T17:48:32Z</time>
  <course>247.12</course>
  <speed>0.022360679774997897</speed>
  <fix>3d</fix>
</trkpt>
<trkpt lat="40.0713749" lon="-105.229789">
  <ele>1583.0</ele>
  <time>2026-08-28T17:48:32Z</time>
  <course>0.0</course>
  <speed>0.0</speed>
  <fix>3d</fix>
</trkpt>
<trkpt lat="40.0713751" lon="-105.2297889">
  <ele>1582.99</ele>
  <time>2026-08-28T17:48:32Z</time>
  <course>247.12</course>
  <speed>0.022360679774997897</speed>
  <fix>3d</fix>
</trkpt>
<trkpt lat="40.0713749" lon="-105.229789">
  <ele>1583.0</ele>
  <time>2026-08-28T17:48:32Z</time>
  <course>0.0</course>
  <speed>0.0</speed>
  <fix>3d</fix>
</trkpt>
<trkpt lat="40.0713751" lon="-105.2297889">
  <ele>1582.98</ele>
  <time>2026-08-28T17:48:32Z</time>
  <course>247.12</course>
  <speed>0.022360679774997897</speed>
  <fix>3d</fix>
</trkpt>
<trkpt lat="40.0713749" lon="-105.229789">
  <ele>1583.0</ele>
  <time>2026-08-28T17:48:32Z</time>
  <course>0.0</course>
  <speed>0.0</speed>
  <fix>3d</fix>
</trkpt>
<trkpt lat="40.0713751" lon="-105.2297889">
  <ele>1582.98</ele>
  <time>2026-08-28T17:48:32Z</time>
  <course>247.12</course>
  <speed>0.022360679774997897</speed>
  <fix>3d</fix>
</trkpt>
<trkpt lat="40.0713749" lon="-105.229789">
  <ele>1583.0</ele>
  <time>2026-08-28T17:48:32Z</time>
  <course>0.0</course>
  <speed>0.0</speed>
  <fix>3d</fix>
</trkpt>
<trkpt lat="40.0713751" lon="-105.2297889">
  <ele>1582.98</ele>
  <time>2026-08-28T17:48:32Z</time>
  <course>247.12</course>
  <speed>0.022360679774997897</speed>
  <fix>3d</fix>
</trkpt>
<trkpt lat="40.0713749" lon="-105.229789">
  <ele>1583.0</ele>
  <time>2026-08-28T17:48:32Z</time>
  <course>0.0</course>
  <speed>0.0</speed>
  <fix>3d</fix>
</trkpt>
<trkpt lat="40.0713751" lon="-105.2297889">
  <ele>1582.98</ele>
  <time>2026-08-28T17:48:32Z</time>
  <course>247.12</course>
  <speed>0.022360679774997897</speed>
  <fix>3d</fix>
</trkpt>
<trkpt lat="40.0713749" lon="-105.229789">
  <ele>1583.0</ele>
  <time>2026-08-28T17:48:32Z</time>
  <course>0.0</course>
  <speed>0.0</speed>
  <fix>3d</fix>
</trkpt>
<trkpt lat="40.0713751" lon="-105.2297889">
  <ele>1582.98</ele>
  <time>2026-08-28T17:48:32Z</time>
  <course>247.12</course>
  <speed>0.022360679774997897</speed>
  <fix>3d</fix>
</trkpt>
<trkpt lat="40.0713749" lon="-105.229789">
  <ele>1583.0</ele>
  <time>2026-08-28T17:48:32Z</time>
  <course>0.0</course>
  <speed>0.0</speed>
  <fix>3d</fix>
</trkpt>
<trkpt lat="40.0713751" lon="-105.2297889">
  <ele>1582.98</ele>
  <time>2026-08-28T17:48:32Z</time>
  <course>247.12</course>
  <speed>0.022360679774997897</speed>
  <fix>3d</fix>
</trkpt>
<trkpt lat="40.0713749" lon="-105.229789">
  <ele>1583.0</ele>
  <time>2026-08-28T17:48:32Z</time>
  <course>0.0</course>
  <speed>0.0</speed>
  <fix>3d</fix>
</trkpt>
<trkpt lat="40.0713751" lon="-105.2297889">
  <ele>1582.97</ele>
  <time>2026-08-28T17:48:32Z</time>
  <course>247.12</course>
  <speed>0.022360679774997897</speed>
  <fix>3d</fix>
</trkpt>
<trkpt lat="40.0713749" lon="-105.229789">
  <ele>1583.0</ele>
  <time>2026-08-28T17:48:32Z</time>
  <course>0.0</course>
  <speed>0.0</speed>
  <fix>3d</fix>
</trkpt>
<trkpt lat="40.0713751" lon="-105.2297889">
  <ele>1582.97</ele>
  <time>2026-08-28T17:48:32Z</time>
  <course>247.12</course>
  <speed>0.022360679774997897</speed>
  <fix>3d</fix>
</trkpt>
<trkpt lat="40.0713749" lon="-105.229789">
  <ele>1583.0</ele>
  <time>2026-08-28T17:48:32Z</time>
  <course>0.0</course>
  <speed>0.0</speed>
  <fix>3d</fix>
</trkpt>
<trkpt lat="40.0713751" lon="-105.2297889">
  <ele>1582.97</ele>
  <time>2026-08-28T17:48:32Z</time>
  <course>247.12</course>
  <speed>0.022360679774997897</speed>
  <fix>3d</fix>
</trkpt>
<trkpt lat="40.0713749" lon="-105.229789">
  <ele>1583.0</ele>
  <time>2026-08-28T17:48:32Z</time>
  <course>0.0</course>
  <speed>0.0</speed>
  <fix>3d</fix>
</trkpt>
<trkpt lat="40.0713751" lon="-105.2297889">
  <ele>1582.97</ele>
  <time>2026-08-28T17:48:32Z</time>
  <course>247.12</course>
  <speed>0.022360679774997897</speed>
  <fix>3d</fix>
</trkpt>
<trkpt lat="40.0713749" lon="-105.229789">
  <ele>1583.0</ele>
  <time>2026-08-28T17:48:32Z</time>
  <course>0.0</course>
  <speed>0.0</speed>
  <fix>3d</fix>
</trkpt>
<trkpt lat="40.0713751" lon="-105.2297889">
  <ele>1582.97</ele>
  <time>2026-08-28T17:48:32Z</time>
  <course>247.12</course>
  <speed>0.022360679774997897</speed>
  <fix>3d</fix>
</trkpt>
<trkpt lat="40.0713749" lon="-105.229789">
  <ele>1583.0</ele>
  <time>2026-08-28T17:48:32Z</time>
  <course>0.0</course>
  <speed>0.0</speed>
  <fix>3d</fix>
</trkpt>
<trkpt lat="40.0713751" lon="-105.2297889">
  <ele>1582.97</ele>
  <time>2026-08-28T17:48:32Z</time>
  <course>247.12</course>
  <speed>0.022360679774997897</speed>
  <fix>3d</fix>
</trkpt>
<trkpt lat="40.0713749" lon="-105.229789">
  <ele>1583.0</ele>
  <time>2026-08-28T17:48:32Z</time>
  <course>0.0</course>
  <speed>0.0</speed>
  <fix>3d</fix>
</trkpt>
<trkpt lat="40.0713751" lon="-105.2297889">
  <ele>1582.97</ele>
  <time>2026-08-28T17:48:32Z</time>
  <course>247.12</course>
  <speed>0.022360679774997897</speed>
  <fix>3d</fix>
</trkpt>
<trkpt lat="40.0713749" lon="-105.229789">
  <ele>1583.0</ele>
  <time>2026-08-28T17:48:32Z</time>
  <course>0.0</course>
  <speed>0.0</speed>
  <fix>3d</fix>
</trkpt>
<trkpt lat="40.0713751" lon="-105.2297889">
  <ele>1582.97</ele>
  <time>2026-08-28T17:48:32Z</time>
  <course>247.12</course>
  <speed>0.022360679774997897</speed>
  <fix>3d</fix>
</trkpt>
<trkpt lat="40.0713749" lon="-105.229789">
  <ele>1583.0</ele>
  <time>2026-08-28T17:48:32Z</time>
  <course>0.0</course>
  <speed>0.0</speed>
  <fix>3d</fix>
</trkpt>
<trkpt lat="40.0713751" lon="-105.2297889">
  <ele>1582.97</ele>
  <time>2026-08-28T17:48:32Z</time>
  <course>247.12</course>
  <speed>0.022360679774997897</speed>
  <fix>3d</fix>
</trkpt>
<trkpt lat="40.0713749" lon="-105.229789">
  <ele>1583.0</ele>
  <time>2026-08-28T17:48:32Z</time>
  <course>0.0</course>
  <speed>0.0</speed>
  <fix>3d</fix>
</trkpt>
<trkpt lat="40.0713751" lon="-105.2297889">
  <ele>1582.97</ele>
  <time>2026-08-28T17:48:32Z</time>
  <course>247.12</course>
  <speed>0.022360679774997897</speed>
  <fix>3d</fix>
</trkpt>
<trkpt lat="40.0713749" lon="-105.229789">
  <ele>1583.0</ele>
  <time>2026-08-28T17:48:32Z</time>
  <course>0.0</course>
  <speed>0.0</speed>
  <fix>3d</fix>
</trkpt>
<trkpt lat="40.0713751" lon="-105.2297889">
  <ele>1582.98</ele>
  <time>2026-08-28T17:48:32Z</time>
  <course>247.12</course>
  <speed>0.022360679774997897</speed>
  <fix>3d</fix>
</trkpt>
<trkpt lat="40.0713749" lon="-105.229789">
  <ele>1583.0</ele>
  <time>2026-08-28T17:48:32Z</time>
  <course>0.0</course>
  <speed>0.0</speed>
  <fix>3d</fix>
</trkpt>
<trkpt lat="40.0713751" lon="-105.2297889">
  <ele>1582.98</ele>
  <time>2026-08-28T17:48:32Z</time>
  <course>247.12</course>
  <speed>0.022360679774997897</speed>
  <fix>3d</fix>
</trkpt>
<trkpt lat="40.0713749" lon="-105.229789">
  <ele>1583.0</ele>
  <time>2026-08-28T17:48:32Z</time>
  <course>0.0</course>
  <speed>0.0</speed>
  <fix>3d</fix>
</trkpt>
<trkpt lat="40.0713751" lon="-105.2297889">
  <ele>1582.98</ele>
  <time>2026-08-28T17:48:32Z</time>
  <course>247.12</course>
  <speed>0.022360679774997897</speed>
  <fix>3d</fix>
</trkpt>
<trkpt lat="40.0713749" lon="-105.229789">
  <ele>1583.0</ele>
  <time>2026-08-28T17:48:32Z</time>
  <course>0.0</course>
  <speed>0.0</speed>
  <fix>3d</fix>
</trkpt>
<trkpt lat="40.0713751" lon="-105.2297889">
  <ele>1582.99</ele>
  <time>2026-08-28T17:48:32Z</time>
  <course>247.12</course>
  <speed>0.022360679774997897</speed>
  <fix>3d</fix>
</trkpt>
<trkpt lat="40.0713749" lon="-105.229789">
  <ele>1583.0</ele>
  <time>2026-08-28T17:48:32Z</time>
  <course>0.0</course>
  <speed>0.0</speed>
  <fix>3d</fix>
</trkpt>
<trkpt lat="40.0713751" lon="-105.2297889">
  <ele>1582.99</ele>
  <time>2026-08-28T17:48:32Z</time>
  <course>247.12</course>
  <speed>0.022360679774997897</speed>
  <fix>3d</fix>
</trkpt>
<trkpt lat="40.0713749" lon="-105.229789">
  <ele>1583.0</ele>
  <time>2026-08-28T17:48:32Z</time>
  <course>0.0</course>
  <speed>0.0</speed>
  <fix>3d</fix>
</trkpt>
<trkpt lat="40.0713751" lon="-105.2297889">
  <ele>1582.99</ele>
  <time>2026-08-28T17:48:32Z</time>
  <course>247.12</course>
  <speed>0.022360679774997897</speed>
  <fix>3d</fix>
</trkpt>
<trkpt lat="40.0713749" lon="-105.229789">
  <ele>1583.0</ele>
  <time>2026-08-28T17:48:32Z</time>
  <course>0.0</course>
  <speed>0.0</speed>
  <fix>3d</fix>
</trkpt>
<trkpt lat="40.0713751" lon="-105.2297889">
  <ele>1582.99</ele>
  <time>2026-08-28T17:48:32Z</time>
  <course>247.12</course>
  <speed>0.022360679774997897</speed>
  <fix>3d</fix>
</trkpt>
<trkpt lat="40.0713749" lon="-105.229789">
  <ele>1583.0</ele>
  <time>2026-08-28T17:48:32Z</time>
  <course>0.0</course>
  <speed>0.0</speed>
  <fix>3d</fix>
</trkpt>
<trkpt lat="40.0713751" lon="-105.2297889">
  <ele>1583.0</ele>
  <time>2026-08-28T17:48:32Z</time>
  <course>247.12</course>
  <speed>0.022360679774997897</speed>
  <fix>3d</fix>
</trkpt>
<trkpt lat="40.0713749" lon="-105.229789">
  <ele>1583.0</ele>
  <time>2026-08-28T17:48:32Z</time>
  <course>0.0</course>
  <speed>0.0</speed>
  <fix>3d</fix>
</trkpt>
<trkpt lat="40.0713751" lon="-105.2297889">
  <ele>1583.0</ele>
  <time>2026-08-28T17:48:32Z</time>
  <course>247.12</course>
  <speed>0.022360679774997897</speed>
  <fix>3d</fix>
</trkpt>
<trkpt lat="40.0713749" lon="-105.229789">
  <ele>1583.0</ele>
  <time>2026-08-28T17:48:32Z</time>
  <course>0.0</course>
  <speed>0.0</speed>
  <fix>3d</fix>
</trkpt>
<trkpt lat="40.0713751" lon="-105.2297889">
  <ele>1583.0</ele>
  <time>2026-08-28T17:48:32Z</time>
  <course>247.12</course>
  <speed>0.022360679774997897</speed>
  <fix>3d</fix>
</trkpt>
<trkpt lat="40.0713749" lon="-105.229789">
  <ele>1583.0</ele>
  <time>2026-08-28T17:48:32Z</time>
  <course>0.0</course>
  <speed>0.0</speed>
  <fix>3d</fix>
</trkpt>
<trkpt lat="40.0713751" lon="-105.2297889">
  <ele>1583.0</ele>
  <time>2026-08-28T17:48:32Z</time>
  <course>247.12</course>
  <speed>0.022360679774997897</speed>
  <fix>3d</fix>
</trkpt>
<trkpt lat="40.0713749" lon="-105.229789">
  <ele>1583.0</ele>
  <time>2026-08-28T17:48:32Z</time>
  <course>0.0</course>
  <speed>0.0</speed>
  <fix>3d</fix>
</trkpt>
<trkpt lat="40.0713751" lon="-105.2297889">
  <ele>1583.0</ele>
  <time>2026-08-28T17:48:32Z</time>
  <course>247.12</course>
  <speed>0.022360679774997897</speed>
  <fix>3d</fix>
</trkpt>
<trkpt lat="40.0713749" lon="-105.229789">
  <ele>1583.0</ele>
  <time>2026-08-28T17:48:32Z</time>
  <course>0.0</course>
  <speed>0.0</speed>
  <fix>3d</fix>
</trkpt>
<trkpt lat="40.0713751" lon="-105.2297889">
  <ele>1583.0</ele>
  <time>2026-08-28T17:48:32Z</time>
  <course>247.12</course>
  <speed>0.022360679774997897</speed>
  <fix>3d</fix>
</trkpt>
<trkpt lat="40.0713749" lon="-105.229789">
  <ele>1583.0</ele>
  <time>2026-08-28T17:48:32Z</time>
  <course>0.0</course>
  <speed>0.0</speed>
  <fix>3d</fix>
</trkpt>
<trkpt lat="40.0713751" lon="-105.2297889">
  <ele>1582.99</ele>
  <time>2026-08-28T17:48:32Z</time>
  <course>247.12</course>
  <speed>0.022360679774997897</speed>
  <fix>3d</fix>
</trkpt>
<trkpt lat="40.0713749" lon="-105.229789">
  <ele>1583.0</ele>
  <time>2026-08-28T17:48:32Z</time>
  <course>0.0</course>
  <speed>0.0</speed>
  <fix>3d</fix>
</trkpt>
<trkpt lat="40.0713751" lon="-105.2297889">
  <ele>1582.99</ele>
  <time>2026-08-28T17:48:32Z</time>
  <course>247.12</course>
  <speed>0.022360679774997897</speed>
  <fix>3d</fix>
</trkpt>
<trkpt lat="40.0713749" lon="-105.229789">
  <ele>1583.0</ele>
  <time>2026-08-28T17:48:32Z</time>
  <course>0.0</course>
  <speed>0.0</speed>
  <fix>3d</fix>
</trkpt>
<trkpt lat="40.0713751" lon="-105.2297889">
  <ele>1582.99</ele>
  <time>2026-08-28T17:48:32Z</time>
  <course>247.12</course>
  <speed>0.022360679774997897</speed>
  <fix>3d</fix>
</trkpt>
<trkpt lat="40.0713749" lon="-105.229789">
  <ele>1583.0</ele>
  <time>2026-08-28T17:48:32Z</time>
  <course>0.0</course>
  <speed>0.0</speed>
  <fix>3d</fix>
</trkpt>
<trkpt lat="40.0713751" lon="-105.2297889">
  <ele>1582.99</ele>
  <time>2026-08-28T17:48:32Z</time>
  <course>247.12</course>
  <speed>0.022360679774997897</speed>
  <fix>3d</fix>
</trkpt>
<trkpt lat="40.0713749" lon="-105.229789">
  <ele>1583.0</ele>
  <time>2026-08-28T17:48:32Z</time>
  <course>0.0</course>
  <speed>0.0</speed>
  <fix>3d</fix>
</trkpt>
<trkpt lat="40.0713751" lon="-105.2297889">
  <ele>1582.99</ele>
  <time>2026-08-28T17:48:32Z</time>
  <course>247.12</course>
  <speed>0.022360679774997897</speed>
  <fix>3d</fix>
</trkpt>
<trkpt lat="40.0713749" lon="-105.229789">
  <ele>1583.0</ele>
  <time>2026-08-28T17:48:32Z</time>
  <course>0.0</course>
  <speed>0.0</speed>
  <fix>3d</fix>
</trkpt>
<trkpt lat="40.0713751" lon="-105.2297889">
  <ele>1582.99</ele>
  <time>2026-08-28T17:48:32Z</time>
  <course>247.12</course>
  <speed>0.022360679774997897</speed>
  <fix>3d</fix>
</trkpt>
<trkpt lat="40.0713749" lon="-105.229789">
  <ele>1583.0</ele>
  <time>2026-08-28T17:48:32Z</time>
  <course>0.0</course>
  <speed>0.0</speed>
  <fix>3d</fix>
</trkpt>
<trkpt lat="40.0713751" lon="-105.2297889">
  <ele>1583.0</ele>
  <time>2026-08-28T17:48:32Z</time>
  <course>247.12</course>
  <speed>0.022360679774997897</speed>
  <fix>3d</fix>
</trkpt>
<trkpt lat="40.0713749" lon="-105.229789">
  <ele>1583.0</ele>
  <time>2026-08-28T17:48:32Z</time>
  <course>0.0</course>
  <speed>0.0</speed>
  <fix>3d</fix>
</trkpt>
<trkpt lat="40.0713751" lon="-105.2297889">
  <ele>1583.0</ele>
  <time>2026-08-28T17:48:32Z</time>
  <course>247.12</course>
  <speed>0.022360679774997897</speed>
  <fix>3d</fix>
</trkpt>
<trkpt lat="40.0713749" lon="-105.229789">
  <ele>1583.0</ele>
  <time>2026-08-28T17:48:32Z</time>
  <course>0.0</course>
  <speed>0.0</speed>
  <fix>3d</fix>
</trkpt>
<trkpt lat="40.0713751" lon="-105.2297889">
  <ele>1583.0</ele>
  <time>2026-08-28T17:48:32Z</time>
  <course>247.12</course>
  <speed>0.022360679774997897</speed>
  <fix>3d</fix>
</trkpt>
<trkpt lat="40.0713749" lon="-105.229789">
  <ele>1583.0</ele>
  <time>2026-08-28T17:48:32Z</time>
  <course>0.0</course>
  <speed>0.0</speed>
  <fix>3d</fix>
</trkpt>
<trkpt lat="40.0713751" lon="-105.2297889">
  <ele>1583.0</ele>
  <time>2026-08-28T17:48:32Z</time>
  <course>247.12</course>
  <speed>0.022360679774997897</speed>
  <fix>3d</fix>
</trkpt>
<trkpt lat="40.0713749" lon="-105.229789">
  <ele>1583.0</ele>
  <time>2026-08-28T17:48:32Z</time>
  <course>0.0</course>
  <speed>0.0</speed>
  <fix>3d</fix>
</trkpt>
<trkpt lat="40.0713751" lon="-105.2297889">
  <ele>1583.0</ele>
  <time>2026-08-28T17:48:32Z</time>
  <course>247.12</course>
  <speed>0.022360679774997897</speed>
  <fix>3d</fix>
</trkpt>
<trkpt lat="40.0713749" lon="-105.229789">
  <ele>1583.0</ele>
  <time>2026-08-28T17:48:32Z</time>
  <course>0.0</course>
  <speed>0.0</speed>
  <fix>3d</fix>
</trkpt>
<trkpt lat="40.0713751" lon="-105.2297889">
  <ele>1583.0</ele>
  <time>2026-08-28T17:48:32Z</time>
  <course>247.12</course>
  <speed>0.022360679774997897</speed>
  <fix>3d</fix>
</trkpt>
<trkpt lat="40.0713749" lon="-105.229789">
  <ele>1583.0</ele>
  <time>2026-08-28T17:48:32Z</time>
  <course>0.0</course>
  <speed>0.0</speed>
  <fix>3d</fix>
</trkpt>
<trkpt lat="40.0713751" lon="-105.2297889">
  <ele>1583.0</ele>
  <time>2026-08-28T17:48:32Z</time>
  <course>247.12</course>
  <speed>0.022360679774997897</speed>
  <fix>3d</fix>
</trkpt>
<trkpt lat="40.0713749" lon="-105.229789">
  <ele>1583.0</ele>
  <time>2026-08-28T17:48:32Z</time>
  <course>0.0</course>
  <speed>0.0</speed>
  <fix>3d</fix>
</trkpt>
<trkpt lat="40.0713751" lon="-105.2297889">
  <ele>1583.0</ele>
  <time>2026-08-28T17:48:32Z</time>
  <course>247.12</course>
  <speed>0.022360679774997897</speed>
  <fix>3d</fix>
</trkpt>
<trkpt lat="40.0713749" lon="-105.229789">
  <ele>1583.0</ele>
  <time>2026-08-28T17:48:32Z</time>
  <course>0.0</course>
  <speed>0.0</speed>
  <fix>3d</fix>
</trkpt>
<trkpt lat="40.0713751" lon="-105.2297889">
  <ele>1583.0</ele>
  <time>2026-08-28T17:48:32Z</time>
  <course>247.12</course>
  <speed>0.022360679774997897</speed>
  <fix>3d</fix>
</trkpt>
<trkpt lat="40.0713749" lon="-105.229789">
  <ele>1583.0</ele>
  <time>2026-08-28T17:48:32Z</time>
  <course>0.0</course>
  <speed>0.0</speed>
  <fix>3d</fix>
</trkpt>
<trkpt lat="40.0713751" lon="-105.2297889">
  <ele>1583.01</ele>
  <time>2026-08-28T17:48:32Z</time>
  <course>247.12</course>
  <speed>0.022360679774997897</speed>
  <fix>3d</fix>
</trkpt>
<trkpt lat="40.0713749" lon="-105.229789">
  <ele>1583.0</ele>
  <time>2026-08-28T17:48:32Z</time>
  <course>0.0</course>
  <speed>0.0</speed>
  <fix>3d</fix>
</trkpt>
<trkpt lat="40.0713751" lon="-105.2297889">
  <ele>1583.01</ele>
  <time>2026-08-28T17:48:32Z</time>
  <course>247.12</course>
  <speed>0.022360679774997897</speed>
  <fix>3d</fix>
</trkpt>
<trkpt lat="40.0713749" lon="-105.229789">
  <ele>1583.0</ele>
  <time>2026-08-28T17:48:32Z</time>
  <course>0.0</course>
  <speed>0.0</speed>
  <fix>3d</fix>
</trkpt>
<trkpt lat="40.0713751" lon="-105.2297889">
  <ele>1583.01</ele>
  <time>2026-08-28T17:48:32Z</time>
  <course>247.12</course>
  <speed>0.022360679774997897</speed>
  <fix>3d</fix>
</trkpt>
<trkpt lat="40.0713749" lon="-105.229789">
  <ele>1583.0</ele>
  <time>2026-08-28T17:48:32Z</time>
  <course>0.0</course>
  <speed>0.0</speed>
  <fix>3d</fix>
</trkpt>
<trkpt lat="40.0713751" lon="-105.2297889">
  <ele>1583.01</ele>
  <time>2026-08-28T17:48:32Z</time>
  <course>247.12</course>
  <speed>0.022360679774997897</speed>
  <fix>3d</fix>
</trkpt>
<trkpt lat="40.0713749" lon="-105.229789">
  <ele>1583.0</ele>
  <time>2026-08-28T17:48:32Z</time>
  <course>0.0</course>
  <speed>0.0</speed>
  <fix>3d</fix>
</trkpt>
<trkpt lat="40.0713751" lon="-105.2297889">
  <ele>1583.01</ele>
  <time>2026-08-28T17:48:32Z</time>
  <course>247.12</course>
  <speed>0.022360679774997897</speed>
  <fix>3d</fix>
</trkpt>
<trkpt lat="40.0713749" lon="-105.229789">
  <ele>1583.0</ele>
  <time>2026-08-28T17:48:32Z</time>
  <course>0.0</course>
  <speed>0.0</speed>
  <fix>3d</fix>
</trkpt>
<trkpt lat="40.0713751" lon="-105.2297889">
  <ele>1583.01</ele>
  <time>2026-08-28T17:48:32Z</time>
  <course>247.12</course>
  <speed>0.022360679774997897</speed>
  <fix>3d</fix>
</trkpt>
<trkpt lat="40.0713749" lon="-105.229789">
  <ele>1583.0</ele>
  <time>2026-08-28T17:48:32Z</time>
  <course>0.0</course>
  <speed>0.0</speed>
  <fix>3d</fix>
</trkpt>
<trkpt lat="40.0713751" lon="-105.2297889">
  <ele>1583.02</ele>
  <time>2026-08-28T17:48:32Z</time>
  <course>247.12</course>
  <speed>0.022360679774997897</speed>
  <fix>3d</fix>
</trkpt>
<trkpt lat="40.0713749" lon="-105.229789">
  <ele>1583.0</ele>
  <time>2026-08-28T17:48:32Z</time>
  <course>0.0</course>
  <speed>0.0</speed>
  <fix>3d</fix>
</trkpt>
<trkpt lat="40.0713751" lon="-105.2297889">
  <ele>1583.01</ele>
  <time>2026-08-28T17:48:32Z</time>
  <course>247.12</course>
  <speed>0.022360679774997897</speed>
  <fix>3d</fix>
</trkpt>
<trkpt lat="40.0713749" lon="-105.229789">
  <ele>1583.0</ele>
  <time>2026-08-28T17:48:32Z</time>
  <course>0.0</course>
  <speed>0.0</speed>
  <fix>3d</fix>
</trkpt>
<trkpt lat="40.0713751" lon="-105.2297889">
  <ele>1583.01</ele>
  <time>2026-08-28T17:48:32Z</time>
  <course>247.12</course>
  <speed>0.022360679774997897</speed>
  <fix>3d</fix>
</trkpt>
<trkpt lat="40.0713749" lon="-105.229789">
  <ele>1583.0</ele>
  <time>2026-08-28T17:48:32Z</time>
  <course>0.0</course>
  <speed>0.0</speed>
  <fix>3d</fix>
</trkpt>
<trkpt lat="40.0713751" lon="-105.2297889">
  <ele>1583.01</ele>
  <time>2026-08-28T17:48:32Z</time>
  <course>247.12</course>
  <speed>0.022360679774997897</speed>
  <fix>3d</fix>
</trkpt>
<trkpt lat="40.0713749" lon="-105.229789">
  <ele>1583.0</ele>
  <time>2026-08-28T17:48:32Z</time>
  <course>0.0</course>
  <speed>0.0</speed>
  <fix>3d</fix>
</trkpt>
<trkpt lat="40.0713751" lon="-105.2297889">
  <ele>1583.01</ele>
  <time>2026-08-28T17:48:32Z</time>
  <course>247.12</course>
  <speed>0.022360679774997897</speed>
  <fix>3d</fix>
</trkpt>
<trkpt lat="40.0713749" lon="-105.229789">
  <ele>1583.0</ele>
  <time>2026-08-28T17:48:32Z</time>
  <course>0.0</course>
  <speed>0.0</speed>
  <fix>3d</fix>
</trkpt>
<trkpt lat="40.0713751" lon="-105.2297889">
  <ele>1583.01</ele>
  <time>2026-08-28T17:48:32Z</time>
  <course>247.12</course>
  <speed>0.022360679774997897</speed>
  <fix>3d</fix>
</trkpt>
<trkpt lat="40.0713749" lon="-105.229789">
  <ele>1583.0</ele>
  <time>2026-08-28T17:48:32Z</time>
  <course>0.0</course>
  <speed>0.0</speed>
  <fix>3d</fix>
</trkpt>
<trkpt lat="40.0713751" lon="-105.2297889">
  <ele>1583.01</ele>
  <time>2026-08-28T17:48:32Z</time>
  <course>247.12</course>
  <speed>0.022360679774997897</speed>
  <fix>3d</fix>
</trkpt>
<trkpt lat="40.0713749" lon="-105.229789">
  <ele>1583.0</ele>
  <time>2026-08-28T17:48:32Z</time>
  <course>0.0</course>
  <speed>0.0</speed>
  <fix>3d</fix>
</trkpt>
<trkpt lat="40.0713751" lon="-105.2297889">
  <ele>1583.01</ele>
  <time>2026-08-28T17:48:32Z</time>
  <course>247.12</course>
  <speed>0.022360679774997897</speed>
  <fix>3d</fix>
</trkpt>
<trkpt lat="40.0713749" lon="-105.229789">
  <ele>1583.0</ele>
  <time>2026-08-28T17:48:32Z</time>
  <course>0.0</course>
  <speed>0.0</speed>
  <fix>3d</fix>
</trkpt>
<trkpt lat="40.0713751" lon="-105.2297889">
  <ele>1583.01</ele>
  <time>2026-08-28T17:48:32Z</time>
  <course>247.12</course>
  <speed>0.022360679774997897</speed>
  <fix>3d</fix>
</trkpt>
<trkpt lat="40.0713749" lon="-105.229789">
  <ele>1583.0</ele>
  <time>2026-08-28T17:48:32Z</time>
  <course>0.0</course>
  <speed>0.0</speed>
  <fix>3d</fix>
</trkpt>
<trkpt lat="40.0713751" lon="-105.2297889">
  <ele>1583.01</ele>
  <time>2026-08-28T17:48:32Z</time>
  <course>247.12</course>
  <speed>0.022360679774997897</speed>
  <fix>3d</fix>
</trkpt>
<trkpt lat="40.0713749" lon="-105.229789">
  <ele>1583.0</ele>
  <time>2026-08-28T17:48:32Z</time>
  <course>0.0</course>
  <speed>0.0</speed>
  <fix>3d</fix>
</trkpt>
<trkpt lat="40.0713751" lon="-105.2297889">
  <ele>1583.01</ele>
  <time>2026-08-28T17:48:32Z</time>
  <course>247.12</course>
  <speed>0.022360679774997897</speed>
  <fix>3d</fix>
</trkpt>
<trkpt lat="40.0713749" lon="-105.229789">
  <ele>1583.0</ele>
  <time>2026-08-28T17:48:32Z</time>
  <course>0.0</course>
  <speed>0.0</speed>
  <fix>3d</fix>
</trkpt>
<trkpt lat="40.0713751" lon="-105.2297889">
  <ele>1583.01</ele>
  <time>2026-08-28T17:48:32Z</time>
  <course>247.12</course>
  <speed>0.022360679774997897</speed>
  <fix>3d</fix>
</trkpt>
<trkpt lat="40.0713749" lon="-105.229789">
  <ele>1583.0</ele>
  <time>2026-08-28T17:48:32Z</time>
  <course>0.0</course>
  <speed>0.0</speed>
  <fix>3d</fix>
</trkpt>
<trkpt lat="40.0713751" lon="-105.2297889">
  <ele>1583.01</ele>
  <time>2026-08-28T17:48:32Z</time>
  <course>247.12</course>
  <speed>0.022360679774997897</speed>
  <fix>3d</fix>
</trkpt>
<trkpt lat="40.0713749" lon="-105.229789">
  <ele>1583.0</ele>
  <time>2026-08-28T17:48:32Z</time>
  <course>0.0</course>
  <speed>0.0</speed>
  <fix>3d</fix>
</trkpt>
<trkpt lat="40.0713751" lon="-105.2297889">
  <ele>1583.02</ele>
  <time>2026-08-28T17:48:32Z</time>
  <course>247.12</course>
  <speed>0.022360679774997897</speed>
  <fix>3d</fix>
</trkpt>
<trkpt lat="40.0713749" lon="-105.229789">
  <ele>1583.0</ele>
  <time>2026-08-28T17:48:32Z</time>
  <course>0.0</course>
  <speed>0.0</speed>
  <fix>3d</fix>
</trkpt>
<trkpt lat="40.0713751" lon="-105.2297889">
  <ele>1583.02</ele>
  <time>2026-08-28T17:48:32Z</time>
  <course>247.12</course>
  <speed>0.022360679774997897</speed>
  <fix>3d</fix>
</trkpt>
<trkpt lat="40.0713749" lon="-105.229789">
  <ele>1583.0</ele>
  <time>2026-08-28T17:48:32Z</time>
  <course>0.0</course>
  <speed>0.0</speed>
  <fix>3d</fix>
</trkpt>
<trkpt lat="40.0713751" lon="-105.2297889">
  <ele>1583.02</ele>
  <time>2026-08-28T17:48:32Z</time>
  <course>247.12</course>
  <speed>0.022360679774997897</speed>
  <fix>3d</fix>
</trkpt>
<trkpt lat="40.0713749" lon="-105.229789">
  <ele>1583.0</ele>
  <time>2026-08-28T17:48:32Z</time>
  <course>0.0</course>
  <speed>0.0</speed>
  <fix>3d</fix>
</trkpt>
<trkpt lat="40.0713751" lon="-105.2297889">
  <ele>1583.02</ele>
  <time>2026-08-28T17:48:32Z</time>
  <course>247.12</course>
  <speed>0.022360679774997897</speed>
  <fix>3d</fix>
</trkpt>
<trkpt lat="40.0713749" lon="-105.229789">
  <ele>1583.0</ele>
  <time>2026-08-28T17:48:32Z</time>
  <course>0.0</course>
  <speed>0.0</speed>
  <fix>3d</fix>
</trkpt>
<trkpt lat="40.0713751" lon="-105.2297889">
  <ele>1583.02</ele>
  <time>2026-08-28T17:48:32Z</time>
  <course>247.12</course>
  <speed>0.022360679774997897</speed>
  <fix>3d</fix>
</trkpt>
<trkpt lat="40.0713749" lon="-105.229789">
  <ele>1583.0</ele>
  <time>2026-08-28T17:48:32Z</time>
  <course>0.0</course>
  <speed>0.0</speed>
  <fix>3d</fix>
</trkpt>
<trkpt lat="40.0713751" lon="-105.2297889">
  <ele>1583.02</ele>
  <time>2026-08-28T17:48:32Z</time>
  <course>247.12</course>
  <speed>0.022360679774997897</speed>
  <fix>3d</fix>
</trkpt>
<trkpt lat="40.0713749" lon="-105.229789">
  <ele>1583.0</ele>
  <time>2026-08-28T17:48:32Z</time>
  <course>0.0</course>
  <speed>0.0</speed>
  <fix>3d</fix>
</trkpt>
<trkpt lat="40.0713751" lon="-105.2297889">
  <ele>1583.02</ele>
  <time>2026-08-28T17:48:32Z</time>
  <course>247.12</course>
  <speed>0.022360679774997897</speed>
  <fix>3d</fix>
</trkpt>
<trkpt lat="40.0713749" lon="-105.229789">
  <ele>1583.0</ele>
  <time>2026-08-28T17:48:32Z</time>
  <course>0.0</course>
  <speed>0.0</speed>
  <fix>3d</fix>
</trkpt>
<trkpt lat="40.0713751" lon="-105.2297889">
  <ele>1583.02</ele>
  <time>2026-08-28T17:48:32Z</time>
  <course>247.12</course>
  <speed>0.022360679774997897</speed>
  <fix>3d</fix>
</trkpt>
<trkpt lat="40.0713749" lon="-105.229789">
  <ele>1583.0</ele>
  <time>2026-08-28T17:48:32Z</time>
  <course>0.0</course>
  <speed>0.0</speed>
  <fix>3d</fix>
</trkpt>
<trkpt lat="40.0713751" lon="-105.2297889">
  <ele>1583.02</ele>
  <time>2026-08-28T17:48:32Z</time>
  <course>247.12</course>
  <speed>0.022360679774997897</speed>
  <fix>3d</fix>
</trkpt>
<trkpt lat="40.0713749" lon="-105.229789">
  <ele>1583.0</ele>
  <time>2026-08-28T17:48:32Z</time>
  <course>0.0</course>
  <speed>0.0</speed>
  <fix>3d</fix>
</trkpt>
<trkpt lat="40.0713751" lon="-105.2297889">
  <ele>1583.01</ele>
  <time>2026-08-28T17:48:32Z</time>
  <course>247.12</course>
  <speed>0.022360679774997897</speed>
  <fix>3d</fix>
</trkpt>
<trkpt lat="40.0713749" lon="-105.229789">
  <ele>1583.0</ele>
  <time>2026-08-28T17:48:32Z</time>
  <course>0.0</course>
  <speed>0.0</speed>
  <fix>3d</fix>
</trkpt>
<trkpt lat="40.0713751" lon="-105.2297889">
  <ele>1583.01</ele>
  <time>2026-08-28T17:48:32Z</time>
  <course>247.12</course>
  <speed>0.022360679774997897</speed>
  <fix>3d</fix>
</trkpt>
<trkpt lat="40.0713749" lon="-105.229789">
  <ele>1583.0</ele>
  <time>2026-08-28T17:48:32Z</time>
  <course>0.0</course>
  <speed>0.0</speed>
  <fix>3d</fix>
</trkpt>
<trkpt lat="40.0713751" lon="-105.2297889">
  <ele>1583.01</ele>
  <time>2026-08-28T17:48:32Z</time>
  <course>247.12</course>
  <speed>0.022360679774997897</speed>
  <fix>3d</fix>
</trkpt>
<trkpt lat="40.0713749" lon="-105.229789">
  <ele>1583.0</ele>
  <time>2026-08-28T17:48:32Z</time>
  <course>0.0</course>
  <speed>0.0</speed>
  <fix>3d</fix>
</trkpt>
<trkpt lat="40.0713751" lon="-105.2297889">
  <ele>1583.0</ele>
  <time>2026-08-28T17:48:32Z</time>
  <course>247.12</course>
  <speed>0.022360679774997897</speed>
  <fix>3d</fix>
</trkpt>
<trkpt lat="40.0713749" lon="-105.229789">
  <ele>1583.0</ele>
  <time>2026-08-28T17:48:32Z</time>
  <course>0.0</course>
  <speed>0.0</speed>
  <fix>3d</fix>
</trkpt>
<trkpt lat="40.0713751" lon="-105.2297889">
  <ele>1583.0</ele>
  <time>2026-08-28T17:48:32Z</time>
  <course>247.12</course>
  <speed>0.022360679774997897</speed>
  <fix>3d</fix>
</trkpt>
<trkpt lat="40.0713749" lon="-105.229789">
  <ele>1583.0</ele>
  <time>2026-08-28T17:48:32Z</time>
  <course>0.0</course>
  <speed>0.0</speed>
  <fix>3d</fix>
</trkpt>
<trkpt lat="40.0713751" lon="-105.2297889">
  <ele>1583.0</ele>
  <time>2026-08-28T17:48:32Z</time>
  <course>247.12</course>
  <speed>0.022360679774997897</speed>
  <fix>3d</fix>
</trkpt>
<trkpt lat="40.0713749" lon="-105.229789">
  <ele>1583.0</ele>
  <time>2026-08-28T17:48:32Z</time>
  <course>0.0</course>
  <speed>0.0</speed>
  <fix>3d</fix>
</trkpt>
<trkpt lat="40.0713751" lon="-105.2297889">
  <ele>1582.99</ele>
  <time>2026-08-28T17:48:32Z</time>
  <course>247.12</course>
  <speed>0.022360679774997897</speed>
  <fix>3d</fix>
</trkpt>
<trkpt lat="40.0713749" lon="-105.229789">
  <ele>1583.0</ele>
  <time>2026-08-28T17:48:32Z</time>
  <course>0.0</course>
  <speed>0.0</speed>
  <fix>3d</fix>
</trkpt>
<trkpt lat="40.0713751" lon="-105.2297889">
  <ele>1582.99</ele>
  <time>2026-08-28T17:48:32Z</time>
  <course>247.12</course>
  <speed>0.022360679774997897</speed>
  <fix>3d</fix>
</trkpt>
<trkpt lat="40.0713749" lon="-105.229789">
  <ele>1583.0</ele>
  <time>2026-08-28T17:48:32Z</time>
  <course>0.0</course>
  <speed>0.0</speed>
  <fix>3d</fix>
</trkpt>
<trkpt lat="40.0713751" lon="-105.2297889">
  <ele>1582.99</ele>
  <time>2026-08-28T17:48:32Z</time>
  <course>247.12</course>
  <speed>0.022360679774997897</speed>
  <fix>3d</fix>
</trkpt>
<trkpt lat="40.0713749" lon="-105.229789">
  <ele>1583.0</ele>
  <time>2026-08-28T17:48:32Z</time>
  <course>0.0</course>
  <speed>0.0</speed>
  <fix>3d</fix>
</trkpt>
<trkpt lat="40.0713751" lon="-105.2297889">
  <ele>1582.98</ele>
  <time>2026-08-28T17:48:32Z</time>
  <course>247.12</course>
  <speed>0.022360679774997897</speed>
  <fix>3d</fix>
</trkpt>
<trkpt lat="40.0713749" lon="-105.229789">
  <ele>1583.0</ele>
  <time>2026-08-28T17:48:32Z</time>
  <course>0.0</course>
  <speed>0.0</speed>
  <fix>3d</fix>
</trkpt>
<trkpt lat="40.0713751" lon="-105.2297889">
  <ele>1582.98</ele>
  <time>2026-08-28T17:48:32Z</time>
  <course>247.12</course>
  <speed>0.022360679774997897</speed>
  <fix>3d</fix>
</trkpt>
<trkpt lat="40.0713749" lon="-105.229789">
  <ele>1583.0</ele>
  <time>2026-08-28T17:48:32Z</time>
  <course>0.0</course>
  <speed>0.0</speed>
  <fix>3d</fix>
</trkpt>
<trkpt lat="40.0713751" lon="-105.2297889">
  <ele>1582.98</ele>
  <time>2026-08-28T17:48:32Z</time>
  <course>247.12</course>
  <speed>0.022360679774997897</speed>
  <fix>3d</fix>
</trkpt>
<trkpt lat="40.0713749" lon="-105.229789">
  <ele>1583.0</ele>
  <time>2026-08-28T17:48:32Z</time>
  <course>0.0</course>
  <speed>0.0</speed>
  <fix>3d</fix>
</trkpt>
<trkpt lat="40.0713751" lon="-105.2297889">
  <ele>1582.98</ele>
  <time>2026-08-28T17:48:32Z</time>
  <course>247.12</course>
  <speed>0.022360679774997897</speed>
  <fix>3d</fix>
</trkpt>
<trkpt lat="40.0713749" lon="-105.229789">
  <ele>1583.0</ele>
  <time>2026-08-28T17:48:32Z</time>
  <course>0.0</course>
  <speed>0.0</speed>
  <fix>3d</fix>
</trkpt>
<trkpt lat="40.0713751" lon="-105.2297889">
  <ele>1582.98</ele>
  <time>2026-08-28T17:48:32Z</time>
  <course>247.12</course>
  <speed>0.022360679774997897</speed>
  <fix>3d</fix>
</trkpt>
<trkpt lat="40.0713749" lon="-105.229789">
  <ele>1583.0</ele>
  <time>2026-08-28T17:48:32Z</time>
  <course>0.0</course>
  <speed>0.0</speed>
  <fix>3d</fix>
</trkpt>
<trkpt lat="40.0713751" lon="-105.2297889">
  <ele>1582.99</ele>
  <time>2026-08-28T17:48:32Z</time>
  <course>247.12</course>
  <speed>0.022360679774997897</speed>
  <fix>3d</fix>
</trkpt>
<trkpt lat="40.0713749" lon="-105.229789">
  <ele>1583.0</ele>
  <time>2026-08-28T17:48:32Z</time>
  <course>0.0</course>
  <speed>0.0</speed>
  <fix>3d</fix>
</trkpt>
<trkpt lat="40.0713751" lon="-105.2297889">
  <ele>1582.99</ele>
  <time>2026-08-28T17:48:32Z</time>
  <course>247.12</course>
  <speed>0.022360679774997897</speed>
  <fix>3d</fix>
</trkpt>
<trkpt lat="40.0713749" lon="-105.229789">
  <ele>1583.0</ele>
  <time>2026-08-28T17:48:32Z</time>
  <course>0.0</course>
  <speed>0.0</speed>
  <fix>3d</fix>
</trkpt>
<trkpt lat="40.0713751" lon="-105.2297889">
  <ele>1582.99</ele>
  <time>2026-08-28T17:48:32Z</time>
  <course>247.12</course>
  <speed>0.022360679774997897</speed>
  <fix>3d</fix>
</trkpt>
<trkpt lat="40.0713749" lon="-105.229789">
  <ele>1583.0</ele>
  <time>2026-08-28T17:48:32Z</time>
  <course>0.0</course>
  <speed>0.0</speed>
  <fix>3d</fix>
</trkpt>
<trkpt lat="40.0713751" lon="-105.2297889">
  <ele>1582.99</ele>
  <time>2026-08-28T17:48:32Z</time>
  <course>247.12</course>
  <speed>0.022360679774997897</speed>
  <fix>3d</fix>
</trkpt>
<trkpt lat="40.0713749" lon="-105.229789">
  <ele>1583.0</ele>
  <time>2026-08-28T17:48:32Z</time>
  <course>0.0</course>
  <speed>0.0</speed>
  <fix>3d</fix>
</trkpt>
<trkpt lat="40.0713751" lon="-105.2297889">
  <ele>1582.99</ele>
  <time>2026-08-28T17:48:32Z</time>
  <course>247.12</course>
  <speed>0.022360679774997897</speed>
  <fix>3d</fix>
</trkpt>
<trkpt lat="40.0713749" lon="-105.229789">
  <ele>1583.0</ele>
  <time>2026-08-28T17:48:32Z</time>
  <course>0.0</course>
  <speed>0.0</speed>
  <fix>3d</fix>
</trkpt>
<trkpt lat="40.0713751" lon="-105.2297889">
  <ele>1582.99</ele>
  <time>2026-08-28T17:48:32Z</time>
  <course>247.12</course>
  <speed>0.022360679774997897</speed>
  <fix>3d</fix>
</trkpt>
<trkpt lat="40.0713749" lon="-105.229789">
  <ele>1583.0</ele>
  <time>2026-08-28T17:48:32Z</time>
  <course>0.0</course>
  <speed>0.0</speed>
  <fix>3d</fix>
</trkpt>
<trkpt lat="40.0713751" lon="-105.2297889">
  <ele>1582.99</ele>
  <time>2026-08-28T17:48:32Z</time>
  <course>247.12</course>
  <speed>0.022360679774997897</speed>
  <fix>3d</fix>
</trkpt>
<trkpt lat="40.0713749" lon="-105.229789">
  <ele>1583.0</ele>
  <time>2026-08-28T17:48:32Z</time>
  <course>0.0</course>
  <speed>0.0</speed>
  <fix>3d</fix>
</trkpt>
<trkpt lat="40.0713751" lon="-105.2297889">
  <ele>1582.99</ele>
  <time>2026-08-28T17:48:32Z</time>
  <course>247.12</course>
  <speed>0.022360679774997897</speed>
  <fix>3d</fix>
</trkpt>
<trkpt lat="40.0713749" lon="-105.229789">
  <ele>1583.0</ele>
  <time>2026-08-28T17:48:32Z</time>
  <course>0.0</course>
  <speed>0.0</speed>
  <fix>3d</fix>
</trkpt>
<trkpt lat="40.0713751" lon="-105.2297889">
  <ele>1582.99</ele>
  <time>2026-08-28T17:48:32Z</time>
  <course>247.12</course>
  <speed>0.022360679774997897</speed>
  <fix>3d</fix>
</trkpt>
<trkpt lat="40.0713749" lon="-105.229789">
  <ele>1583.0</ele>
  <time>2026-08-28T17:48:32Z</time>
  <course>0.0</course>
  <speed>0.0</speed>
  <fix>3d</fix>
</trkpt>
<trkpt lat="40.0713751" lon="-105.2297889">
  <ele>1582.99</ele>
  <time>2026-08-28T17:48:32Z</time>
  <course>247.12</course>
  <speed>0.022360679774997897</speed>
  <fix>3d</fix>
</trkpt>
<trkpt lat="40.0713749" lon="-105.229789">
  <ele>1583.0</ele>
  <time>2026-08-28T17:48:32Z</time>
  <course>0.0</course>
  <speed>0.0</speed>
  <fix>3d</fix>
</trkpt>
<trkpt lat="40.0713751" lon="-105.2297889">
  <ele>1582.99</ele>
  <time>2026-08-28T17:48:32Z</time>
  <course>247.12</course>
  <speed>0.022360679774997897</speed>
  <fix>3d</fix>
</trkpt>
<trkpt lat="40.0713749" lon="-105.229789">
  <ele>1583.0</ele>
  <time>2026-08-28T17:48:32Z</time>
  <course>0.0</course>
  <speed>0.0</speed>
  <fix>3d</fix>
</trkpt>
<trkpt lat="40.0713751" lon="-105.2297889">
  <ele>1582.99</ele>
  <time>2026-08-28T17:48:32Z</time>
  <course>247.12</course>
  <speed>0.022360679774997897</speed>
  <fix>3d</fix>
</trkpt>
<trkpt lat="40.0713749" lon="-105.229789">
  <ele>1583.0</ele>
  <time>2026-08-28T17:48:32Z</time>
  <course>0.0</course>
  <speed>0.0</speed>
  <fix>3d</fix>
</trkpt>
<trkpt lat="40.0713751" lon="-105.2297889">
  <ele>1582.99</ele>
  <time>2026-08-28T17:48:32Z</time>
  <course>247.12</course>
  <speed>0.022360679774997897</speed>
  <fix>3d</fix>
</trkpt>
<trkpt lat="40.0713749" lon="-105.229789">
  <ele>1583.0</ele>
  <time>2026-08-28T17:48:32Z</time>
  <course>0.0</course>
  <speed>0.0</speed>
  <fix>3d</fix>
</trkpt>
<trkpt lat="40.0713751" lon="-105.2297889">
  <ele>1582.99</ele>
  <time>2026-08-28T17:48:32Z</time>
  <course>247.12</course>
  <speed>0.022360679774997897</speed>
  <fix>3d</fix>
</trkpt>
<trkpt lat="40.0713749" lon="-105.229789">
  <ele>1583.0</ele>
  <time>2026-08-28T17:48:32Z</time>
  <course>0.0</course>
  <speed>0.0</speed>
  <fix>3d</fix>
</trkpt>
<trkpt lat="40.0713751" lon="-105.2297889">
  <ele>1582.99</ele>
  <time>2026-08-28T17:48:32Z</time>
  <course>247.12</course>
  <speed>0.022360679774997897</speed>
  <fix>3d</fix>
</trkpt>
<trkpt lat="40.0713749" lon="-105.229789">
  <ele>1583.0</ele>
  <time>2026-08-28T17:48:32Z</time>
  <course>0.0</course>
  <speed>0.0</speed>
  <fix>3d</fix>
</trkpt>
<trkpt lat="40.0713751" lon="-105.2297889">
  <ele>1582.99</ele>
  <time>2026-08-28T17:48:32Z</time>
  <course>247.12</course>
  <speed>0.022360679774997897</speed>
  <fix>3d</fix>
</trkpt>
<trkpt lat="40.0713749" lon="-105.229789">
  <ele>1583.0</ele>
  <time>2026-08-28T17:48:32Z</time>
  <course>0.0</course>
  <speed>0.0</speed>
  <fix>3d</fix>
</trkpt>
<trkpt lat="40.0713751" lon="-105.2297889">
  <ele>1582.99</ele>
  <time>2026-08-28T17:48:32Z</time>
  <course>247.12</course>
  <speed>0.022360679774997897</speed>
  <fix>3d</fix>
</trkpt>
<trkpt lat="40.0713749" lon="-105.229789">
  <ele>1583.0</ele>
  <time>2026-08-28T17:48:32Z</time>
  <course>0.0</course>
  <speed>0.0</speed>
  <fix>3d</fix>
</trkpt>
<trkpt lat="40.0713751" lon="-105.2297889">
  <ele>1582.99</ele>
  <time>2026-08-28T17:48:32Z</time>
  <course>247.12</course>
  <speed>0.022360679774997897</speed>
  <fix>3d</fix>
</trkpt>
<trkpt lat="40.0713749" lon="-105.229789">
  <ele>1583.0</ele>
  <time>2026-08-28T17:48:32Z</time>
  <course>0.0</course>
  <speed>0.0</speed>
  <fix>3d</fix>
</trkpt>
<trkpt lat="40.0713751" lon="-105.2297889">
  <ele>1582.99</ele>
  <time>2026-08-28T17:48:32Z</time>
  <course>247.12</course>
  <speed>0.022360679774997897</speed>
  <fix>3d</fix>
</trkpt>
<trkpt lat="40.0713749" lon="-105.229789">
  <ele>1583.0</ele>
  <time>2026-08-28T17:48:32Z</time>
  <course>0.0</course>
  <speed>0.0</speed>
  <fix>3d</fix>
</trkpt>
<trkpt lat="40.0713751" lon="-105.2297889">
  <ele>1582.98</ele>
  <time>2026-08-28T17:48:32Z</time>
  <course>247.12</course>
  <speed>0.022360679774997897</speed>
  <fix>3d</fix>
</trkpt>
<trkpt lat="40.0713749" lon="-105.229789">
  <ele>1583.0</ele>
  <time>2026-08-28T17:48:32Z</time>
  <course>0.0</course>
  <speed>0.0</speed>
  <fix>3d</fix>
</trkpt>
<trkpt lat="40.0713751" lon="-105.2297889">
  <ele>1582.98</ele>
  <time>2026-08-28T17:48:32Z</time>
  <course>247.12</course>
  <speed>0.022360679774997897</speed>
  <fix>3d</fix>
</trkpt>
<trkpt lat="40.0713749" lon="-105.229789">
  <ele>1583.0</ele>
  <time>2026-08-28T17:48:32Z</time>
  <course>0.0</course>
  <speed>0.0</speed>
  <fix>3d</fix>
</trkpt>
<trkpt lat="40.0713751" lon="-105.2297889">
  <ele>1582.98</ele>
  <time>2026-08-28T17:48:32Z</time>
  <course>247.12</course>
  <speed>0.022360679774997897</speed>
  <fix>3d</fix>
</trkpt>
<trkpt lat="40.0713749" lon="-105.229789">
  <ele>1583.0</ele>
  <time>2026-08-28T17:48:32Z</time>
  <course>0.0</course>
  <speed>0.0</speed>
  <fix>3d</fix>
</trkpt>
<trkpt lat="40.0713751" lon="-105.2297889">
  <ele>1582.97</ele>
  <time>2026-08-28T17:48:32Z</time>
  <course>247.12</course>
  <speed>0.022360679774997897</speed>
  <fix>3d</fix>
</trkpt>
<trkpt lat="40.0713749" lon="-105.229789">
  <ele>1583.0</ele>
  <time>2026-08-28T17:48:32Z</time>
  <course>0.0</course>
  <speed>0.0</speed>
  <fix>3d</fix>
</trkpt>
<trkpt lat="40.0713751" lon="-105.2297889">
  <ele>1582.97</ele>
  <time>2026-08-28T17:48:32Z</time>
  <course>247.12</course>
  <speed>0.022360679774997897</speed>
  <fix>3d</fix>
</trkpt>
<trkpt lat="40.0713749" lon="-105.229789">
  <ele>1583.0</ele>
  <time>2026-08-28T17:48:32Z</time>
  <course>0.0</course>
  <speed>0.0</speed>
  <fix>3d</fix>
</trkpt>
<trkpt lat="40.0713751" lon="-105.2297889">
  <ele>1582.97</ele>
  <time>2026-08-28T17:48:32Z</time>
  <course>247.12</course>
  <speed>0.022360679774997897</speed>
  <fix>3d</fix>
</trkpt>
<trkpt lat="40.0713749" lon="-105.229789">
  <ele>1583.0</ele>
  <time>2026-08-28T17:48:32Z</time>
  <course>0.0</course>
  <speed>0.0</speed>
  <fix>3d</fix>
</trkpt>
<trkpt lat="40.0713751" lon="-105.2297889">
  <ele>1582.97</ele>
  <time>2026-08-28T17:48:32Z</time>
  <course>247.12</course>
  <speed>0.022360679774997897</speed>
  <fix>3d</fix>
</trkpt>
<trkpt lat="40.0713749" lon="-105.229789">
  <ele>1583.0</ele>
  <time>2026-08-28T17:48:32Z</time>
  <course>0.0</course>
  <speed>0.0</speed>
  <fix>3d</fix>
</trkpt>
<trkpt lat="40.0713751" lon="-105.2297889">
  <ele>1582.97</ele>
  <time>2026-08-28T17:48:32Z</time>
  <course>247.12</course>
  <speed>0.022360679774997897</speed>
  <fix>3d</fix>
</trkpt>
<trkpt lat="40.0713749" lon="-105.229789">
  <ele>1583.0</ele>
  <time>2026-08-28T17:48:32Z</time>
  <course>0.0</course>
  <speed>0.0</speed>
  <fix>3d</fix>
</trkpt>
<trkpt lat="40.0713751" lon="-105.2297889">
  <ele>1582.97</ele>
  <time>2026-08-28T17:48:32Z</time>
  <course>247.12</course>
  <speed>0.022360679774997897</speed>
  <fix>3d</fix>
</trkpt>
<trkpt lat="40.0713749" lon="-105.229789">
  <ele>1583.0</ele>
  <time>2026-08-28T17:48:32Z</time>
  <course>0.0</course>
  <speed>0.0</speed>
  <fix>3d</fix>
</trkpt>
<trkpt lat="40.0713751" lon="-105.2297889">
  <ele>1582.97</ele>
  <time>2026-08-28T17:48:32Z</time>
  <course>247.12</course>
  <speed>0.022360679774997897</speed>
  <fix>3d</fix>
</trkpt>
<trkpt lat="40.0713749" lon="-105.229789">
  <ele>1583.0</ele>
  <time>2026-08-28T17:48:32Z</time>
  <course>0.0</course>
  <speed>0.0</speed>
  <fix>3d</fix>
</trkpt>
<trkpt lat="40.0713751" lon="-105.2297889">
  <ele>1582.97</ele>
  <time>2026-08-28T17:48:32Z</time>
  <course>247.12</course>
  <speed>0.022360679774997897</speed>
  <fix>3d</fix>
</trkpt>
<trkpt lat="40.0713749" lon="-105.229789">
  <ele>1583.0</ele>
  <time>2026-08-28T17:48:32Z</time>
  <course>0.0</course>
  <speed>0.0</speed>
  <fix>3d</fix>
</trkpt>
<trkpt lat="40.0713751" lon="-105.2297889">
  <ele>1582.97</ele>
  <time>2026-08-28T17:48:32Z</time>
  <course>247.12</course>
  <speed>0.022360679774997897</speed>
  <fix>3d</fix>
</trkpt>
<trkpt lat="40.0713749" lon="-105.229789">
  <ele>1583.0</ele>
  <time>2026-08-28T17:48:32Z</time>
  <course>0.0</course>
  <speed>0.0</speed>
  <fix>3d</fix>
</trkpt>
<trkpt lat="40.0713751" lon="-105.2297889">
  <ele>1582.97</ele>
  <time>2026-08-28T17:48:32Z</time>
  <course>247.12</course>
  <speed>0.022360679774997897</speed>
  <fix>3d</fix>
</trkpt>
<trkpt lat="40.0713749" lon="-105.229789">
  <ele>1583.0</ele>
  <time>2026-08-28T17:48:32Z</time>
  <course>0.0</course>
  <speed>0.0</speed>
  <fix>3d</fix>
</trkpt>
<trkpt lat="40.0713751" lon="-105.2297889">
  <ele>1582.98</ele>
  <time>2026-08-28T17:48:32Z</time>
  <course>247.12</course>
  <speed>0.022360679774997897</speed>
  <fix>3d</fix>
</trkpt>
<trkpt lat="40.0713749" lon="-105.229789">
  <ele>1583.0</ele>
  <time>2026-08-28T17:48:32Z</time>
  <course>0.0</course>
  <speed>0.0</speed>
  <fix>3d</fix>
</trkpt>
<trkpt lat="40.0713751" lon="-105.2297889">
  <ele>1582.98</ele>
  <time>2026-08-28T17:48:32Z</time>
  <course>247.12</course>
  <speed>0.022360679774997897</speed>
  <fix>3d</fix>
</trkpt>
<trkpt lat="40.0713749" lon="-105.229789">
  <ele>1583.0</ele>
  <time>2026-08-28T17:48:32Z</time>
  <course>0.0</course>
  <speed>0.0</speed>
  <fix>3d</fix>
</trkpt>
<trkpt lat="40.0713751" lon="-105.2297889">
  <ele>1582.98</ele>
  <time>2026-08-28T17:48:32Z</time>
  <course>247.12</course>
  <speed>0.022360679774997897</speed>
  <fix>3d</fix>
</trkpt>
<trkpt lat="40.0713749" lon="-105.229789">
  <ele>1583.0</ele>
  <time>2026-08-28T17:48:32Z</time>
  <course>0.0</course>
  <speed>0.0</speed>
  <fix>3d</fix>
</trkpt>
<trkpt lat="40.0713751" lon="-105.2297889">
  <ele>1582.98</ele>
  <time>2026-08-28T17:48:32Z</time>
  <course>247.12</course>
  <speed>0.022360679774997897</speed>
  <fix>3d</fix>
</trkpt>
<trkpt lat="40.0713749" lon="-105.229789">
  <ele>1583.0</ele>
  <time>2026-08-28T17:48:32Z</time>
  <course>0.0</course>
  <speed>0.0</speed>
  <fix>3d</fix>
</trkpt>
<trkpt lat="40.0713751" lon="-105.2297889">
  <ele>1582.98</ele>
  <time>2026-08-28T17:48:32Z</time>
  <course>247.12</course>
  <speed>0.022360679774997897</speed>
  <fix>3d</fix>
</trkpt>
<trkpt lat="40.0713749" lon="-105.229789">
  <ele>1583.0</ele>
  <time>2026-08-28T17:48:32Z</time>
  <course>0.0</course>
  <speed>0.0</speed>
  <fix>3d</fix>
</trkpt>
<trkpt lat="40.0713751" lon="-105.2297889">
  <ele>1582.98</ele>
  <time>2026-08-28T17:48:32Z</time>
  <course>247.12</course>
  <speed>0.022360679774997897</speed>
  <fix>3d</fix>
</trkpt>
<trkpt lat="40.0713749" lon="-105.229789">
  <ele>1583.0</ele>
  <time>2026-08-28T17:48:32Z</time>
  <course>0.0</course>
  <speed>0.0</speed>
  <fix>3d</fix>
</trkpt>
<trkpt lat="40.0713751" lon="-105.2297889">
  <ele>1582.97</ele>
  <time>2026-08-28T17:48:32Z</time>
  <course>247.12</course>
  <speed>0.022360679774997897</speed>
  <fix>3d</fix>
</trkpt>
<trkpt lat="40.0713749" lon="-105.229789">
  <ele>1583.0</ele>
  <time>2026-08-28T17:48:32Z</time>
  <course>0.0</course>
  <speed>0.0</speed>
  <fix>3d</fix>
</trkpt>
<trkpt lat="40.0713751" lon="-105.2297889">
  <ele>1582.97</ele>
  <time>2026-08-28T17:48:32Z</time>
  <course>247.12</course>
  <speed>0.022360679774997897</speed>
  <fix>3d</fix>
</trkpt>
<trkpt lat="40.0713749" lon="-105.229789">
  <ele>1583.0</ele>
  <time>2026-08-28T17:48:32Z</time>
  <course>0.0</course>
  <speed>0.0</speed>
  <fix>3d</fix>
</trkpt>
<trkpt lat="40.0713751" lon="-105.2297889">
  <ele>1582.96</ele>
  <time>2026-08-28T17:48:32Z</time>
  <course>247.12</course>
  <speed>0.022360679774997897</speed>
  <fix>3d</fix>
</trkpt>
<trkpt lat="40.0713749" lon="-105.229789">
  <ele>1583.0</ele>
  <time>2026-08-28T17:48:32Z</time>
  <course>0.0</course>
  <speed>0.0</speed>
  <fix>3d</fix>
</trkpt>
<trkpt lat="40.0713751" lon="-105.2297889">
  <ele>1582.96</ele>
  <time>2026-08-28T17:48:32Z</time>
  <course>247.12</course>
  <speed>0.022360679774997897</speed>
  <fix>3d</fix>
</trkpt>
<trkpt lat="40.0713749" lon="-105.229789">
  <ele>1583.0</ele>
  <time>2026-08-28T17:48:32Z</time>
  <course>0.0</course>
  <speed>0.0</speed>
  <fix>3d</fix>
</trkpt>
<trkpt lat="40.0713751" lon="-105.2297889">
  <ele>1582.95</ele>
  <time>2026-08-28T17:48:32Z</time>
  <course>247.12</course>
  <speed>0.022360679774997897</speed>
  <fix>3d</fix>
</trkpt>
<trkpt lat="40.0713749" lon="-105.229789">
  <ele>1583.0</ele>
  <time>2026-08-28T17:48:32Z</time>
  <course>0.0</course>
  <speed>0.0</speed>
  <fix>3d</fix>
</trkpt>
<trkpt lat="40.0713751" lon="-105.2297889">
  <ele>1582.94</ele>
  <time>2026-08-28T17:48:32Z</time>
  <course>247.12</course>
  <speed>0.022360679774997897</speed>
  <fix>3d</fix>
</trkpt>
<trkpt lat="40.0713749" lon="-105.229789">
  <ele>1583.0</ele>
  <time>2026-08-28T17:48:32Z</time>
  <course>0.0</course>
  <speed>0.0</speed>
  <fix>3d</fix>
</trkpt>
<trkpt lat="40.0713751" lon="-105.2297889">
  <ele>1582.94</ele>
  <time>2026-08-28T17:48:32Z</time>
  <course>247.12</course>
  <speed>0.022360679774997897</speed>
  <fix>3d</fix>
</trkpt>
<trkpt lat="40.0713749" lon="-105.229789">
  <ele>1583.0</ele>
  <time>2026-08-28T17:48:32Z</time>
  <course>0.0</course>
  <speed>0.0</speed>
  <fix>3d</fix>
</trkpt>
<trkpt lat="40.0713751" lon="-105.2297889">
  <ele>1582.95</ele>
  <time>2026-08-28T17:48:32Z</time>
  <course>247.12</course>
  <speed>0.02</speed>
  <fix>3d</fix>
</trkpt>
<trkpt lat="40.0713749" lon="-105.229789">
  <ele>1583.0</ele>
  <time>2026-08-28T17:48:32Z</time>
  <course>0.0</course>
  <speed>0.0</speed>
  <fix>3d</fix>
</trkpt>
<trkpt lat="40.0713751" lon="-105.2297889">
  <ele>1582.96</ele>
  <time>2026-08-28T17:48:33Z</time>
  <course>247.12</course>
  <speed>0.02</speed>
  <fix>3d</fix>
</trkpt>
<trkpt lat="40.0713749" lon="-105.229789">
  <ele>1583.0</ele>
  <time>2026-08-28T17:48:33Z</time>
  <course>0.0</course>
  <speed>0.0</speed>
  <fix>3d</fix>
</trkpt>
<trkpt lat="40.0713751" lon="-105.2297889">
  <ele>1582.97</ele>
  <time>2026-08-28T17:48:33Z</time>
  <course>247.12</course>
  <speed>0.02</speed>
  <fix>3d</fix>
</trkpt>
<trkpt lat="40.0713749" lon="-105.229789">
  <ele>1583.0</ele>
  <time>2026-08-28T17:48:33Z</time>
  <course>0.0</course>
  <speed>0.0</speed>
  <fix>3d</fix>
</trkpt>
<trkpt lat="40.0713751" lon="-105.2297889">
  <ele>1582.97</ele>
  <time>2026-08-28T17:48:33Z</time>
  <course>247.12</course>
  <speed>0.02</speed>
  <fix>3d</fix>
</trkpt>
<trkpt lat="40.0713749" lon="-105.229789">
  <ele>1583.0</ele>
  <time>2026-08-28T17:48:33Z</time>
  <course>0.0</course>
  <speed>0.0</speed>
  <fix>3d</fix>
</trkpt>
<trkpt lat="40.0713751" lon="-105.2297889">
  <ele>1582.98</ele>
  <time>2026-08-28T17:48:33Z</time>
  <course>247.12</course>
  <speed>0.02</speed>
  <fix>3d</fix>
</trkpt>
<trkpt lat="40.0713749" lon="-105.229789">
  <ele>1583.0</ele>
  <time>2026-08-28T17:48:33Z</time>
  <course>0.0</course>
  <speed>0.0</speed>
  <fix>3d</fix>
</trkpt>
<trkpt lat="40.0713751" lon="-105.2297889">
  <ele>1582.99</ele>
  <time>2026-08-28T17:48:33Z</time>
  <course>247.12</course>
  <speed>0.02</speed>
  <fix>3d</fix>
</trkpt>
<trkpt lat="40.0713749" lon="-105.229789">
  <ele>1583.0</ele>
  <time>2026-08-28T17:48:33Z</time>
  <course>0.0</course>
  <speed>0.0</speed>
  <fix>3d</fix>
</trkpt>
<trkpt lat="40.0713751" lon="-105.2297889">
  <ele>1583.0</ele>
  <time>2026-08-28T17:48:33Z</time>
  <course>247.12</course>
  <speed>0.02</speed>
  <fix>3d</fix>
</trkpt>
<trkpt lat="40.0713749" lon="-105.229789">
  <ele>1583.0</ele>
  <time>2026-08-28T17:48:33Z</time>
  <course>0.0</course>
  <speed>0.0</speed>
  <fix>3d</fix>
</trkpt>
<trkpt lat="40.0713751" lon="-105.2297889">
  <ele>1583.01</ele>
  <time>2026-08-28T17:48:33Z</time>
  <course>247.12</course>
  <speed>0.02</speed>
  <fix>3d</fix>
</trkpt>
<trkpt lat="40.0713749" lon="-105.229789">
  <ele>1583.0</ele>
  <time>2026-08-28T17:48:33Z</time>
  <course>0.0</course>
  <speed>0.0</speed>
  <fix>3d</fix>
</trkpt>
<trkpt lat="40.0713751" lon="-105.2297889">
  <ele>1583.02</ele>
  <time>2026-08-28T17:48:33Z</time>
  <course>247.12</course>
  <speed>0.02</speed>
  <fix>3d</fix>
</trkpt>
<trkpt lat="40.0713749" lon="-105.229789">
  <ele>1583.0</ele>
  <time>2026-08-28T17:48:33Z</time>
  <course>0.0</course>
  <speed>0.0</speed>
  <fix>3d</fix>
</trkpt>
<trkpt lat="40.0713751" lon="-105.2297889">
  <ele>1583.02</ele>
  <time>2026-08-28T17:48:33Z</time>
  <course>247.12</course>
  <speed>0.02</speed>
  <fix>3d</fix>
</trkpt>
<trkpt lat="40.0713749" lon="-105.229789">
  <ele>1583.0</ele>
  <time>2026-08-28T17:48:33Z</time>
  <course>0.0</course>
  <speed>0.0</speed>
  <fix>3d</fix>
</trkpt>
<trkpt lat="40.0713751" lon="-105.2297889">
  <ele>1583.03</ele>
  <time>2026-08-28T17:48:33Z</time>
  <course>247.12</course>
  <speed>0.02</speed>
  <fix>3d</fix>
</trkpt>
<trkpt lat="40.0713749" lon="-105.229789">
  <ele>1583.0</ele>
  <time>2026-08-28T17:48:33Z</time>
  <course>0.0</course>
  <speed>0.0</speed>
  <fix>3d</fix>
</trkpt>
<trkpt lat="40.0713751" lon="-105.2297889">
  <ele>1583.03</ele>
  <time>2026-08-28T17:48:33Z</time>
  <course>247.12</course>
  <speed>0.02</speed>
  <fix>3d</fix>
</trkpt>
<trkpt lat="40.0713749" lon="-105.229789">
  <ele>1583.0</ele>
  <time>2026-08-28T17:48:33Z</time>
  <course>0.0</course>
  <speed>0.0</speed>
  <fix>3d</fix>
</trkpt>
<trkpt lat="40.0713751" lon="-105.2297889">
  <ele>1583.04</ele>
  <time>2026-08-28T17:48:33Z</time>
  <course>247.12</course>
  <speed>0.02</speed>
  <fix>3d</fix>
</trkpt>
<trkpt lat="40.0713749" lon="-105.229789">
  <ele>1583.0</ele>
  <time>2026-08-28T17:48:33Z</time>
  <course>0.0</course>
  <speed>0.0</speed>
  <fix>3d</fix>
</trkpt>
<trkpt lat="40.0713751" lon="-105.2297889">
  <ele>1583.04</ele>
  <time>2026-08-28T17:48:33Z</time>
  <course>247.12</course>
  <speed>0.02</speed>
  <fix>3d</fix>
</trkpt>
<trkpt lat="40.0713749" lon="-105.229789">
  <ele>1583.0</ele>
  <time>2026-08-28T17:48:33Z</time>
  <course>0.0</course>
  <speed>0.0</speed>
  <fix>3d</fix>
</trkpt>
<trkpt lat="40.0713751" lon="-105.2297889">
  <ele>1583.04</ele>
  <time>2026-08-28T17:48:33Z</time>
  <course>247.12</course>
  <speed>0.02</speed>
  <fix>3d</fix>
</trkpt>
<trkpt lat="40.0713749" lon="-105.229789">
  <ele>1583.0</ele>
  <time>2026-08-28T17:48:33Z</time>
  <course>0.0</course>
  <speed>0.0</speed>
  <fix>3d</fix>
</trkpt>
<trkpt lat="40.0713751" lon="-105.2297889">
  <ele>1583.05</ele>
  <time>2026-08-28T17:48:33Z</time>
  <course>247.12</course>
  <speed>0.02</speed>
  <fix>3d</fix>
</trkpt>
<trkpt lat="40.0713749" lon="-105.229789">
  <ele>1583.0</ele>
  <time>2026-08-28T17:48:33Z</time>
  <course>0.0</course>
  <speed>0.0</speed>
  <fix>3d</fix>
</trkpt>
<trkpt lat="40.0713751" lon="-105.2297889">
  <ele>1583.05</ele>
  <time>2026-08-28T17:48:33Z</time>
  <course>247.12</course>
  <speed>0.02</speed>
  <fix>3d</fix>
</trkpt>
<trkpt lat="40.0713749" lon="-105.229789">
  <ele>1583.0</ele>
  <time>2026-08-28T17:48:33Z</time>
  <course>0.0</course>
  <speed>0.0</speed>
  <fix>3d</fix>
</trkpt>
<trkpt lat="40.0713751" lon="-105.2297889">
  <ele>1583.06</ele>
  <time>2026-08-28T17:48:33Z</time>
  <course>247.12</course>
  <speed>0.02</speed>
  <fix>3d</fix>
</trkpt>
<trkpt lat="40.0713749" lon="-105.229789">
  <ele>1583.0</ele>
  <time>2026-08-28T17:48:33Z</time>
  <course>0.0</course>
  <speed>0.0</speed>
  <fix>3d</fix>
</trkpt>
<trkpt lat="40.0713751" lon="-105.2297889">
  <ele>1583.06</ele>
  <time>2026-08-28T17:48:33Z</time>
  <course>247.12</course>
  <speed>0.01</speed>
  <fix>3d</fix>
</trkpt>
<trkpt lat="40.0713749" lon="-105.229789">
  <ele>1583.0</ele>
  <time>2026-08-28T17:48:33Z</time>
  <course>0.0</course>
  <speed>0.0</speed>
  <fix>3d</fix>
</trkpt>
<trkpt lat="40.0713751" lon="-105.2297889">
  <ele>1583.07</ele>
  <time>2026-08-28T17:48:33Z</time>
  <course>247.12</course>
  <speed>0.01</speed>
  <fix>3d</fix>
</trkpt>
<trkpt lat="40.0713749" lon="-105.229789">
  <ele>1583.0</ele>
  <time>2026-08-28T17:48:33Z</time>
  <course>0.0</course>
  <speed>0.0</speed>
  <fix>3d</fix>
</trkpt>
<trkpt lat="40.0713751" lon="-105.2297889">
  <ele>1583.07</ele>
  <time>2026-08-28T17:48:33Z</time>
  <course>247.12</course>
  <speed>0.01</speed>
  <fix>3d</fix>
</trkpt>
<trkpt lat="40.0713749" lon="-105.229789">
  <ele>1583.0</ele>
  <time>2026-08-28T17:48:33Z</time>
  <course>0.0</course>
  <speed>0.0</speed>
  <fix>3d</fix>
</trkpt>
<trkpt lat="40.0713751" lon="-105.2297889">
  <ele>1583.07</ele>
  <time>2026-08-28T17:48:33Z</time>
  <course>247.12</course>
  <speed>0.01</speed>
  <fix>3d</fix>
</trkpt>
<trkpt lat="40.0713749" lon="-105.229789">
  <ele>1583.0</ele>
  <time>2026-08-28T17:48:33Z</time>
  <course>0.0</course>
  <speed>0.0</speed>
  <fix>3d</fix>
</trkpt>
<trkpt lat="40.0713751" lon="-105.2297889">
  <ele>1583.07</ele>
  <time>2026-08-28T17:48:33Z</time>
  <course>247.12</course>
  <speed>0.01</speed>
  <fix>3d</fix>
</trkpt>
<trkpt lat="40.0713749" lon="-105.229789">
  <ele>1583.0</ele>
  <time>2026-08-28T17:48:33Z</time>
  <course>0.0</course>
  <speed>0.0</speed>
  <fix>3d</fix>
</trkpt>
<trkpt lat="40.0713751" lon="-105.2297889">
  <ele>1583.07</ele>
  <time>2026-08-28T17:48:33Z</time>
  <course>247.12</course>
  <speed>0.01</speed>
  <fix>3d</fix>
</trkpt>
<trkpt lat="40.0713749" lon="-105.229789">
  <ele>1583.0</ele>
  <time>2026-08-28T17:48:33Z</time>
  <course>0.0</course>
  <speed>0.0</speed>
  <fix>3d</fix>
</trkpt>
<trkpt lat="40.0713751" lon="-105.2297889">
  <ele>1583.08</ele>
  <time>2026-08-28T17:48:33Z</time>
  <course>247.12</course>
  <speed>0.01</speed>
  <fix>3d</fix>
</trkpt>
<trkpt lat="40.0713749" lon="-105.229789">
  <ele>1583.0</ele>
  <time>2026-08-28T17:48:33Z</time>
  <course>0.0</course>
  <speed>0.0</speed>
  <fix>3d</fix>
</trkpt>
<trkpt lat="40.0713751" lon="-105.2297889">
  <ele>1583.08</ele>
  <time>2026-08-28T17:48:33Z</time>
  <course>247.12</course>
  <speed>0.01</speed>
  <fix>3d</fix>
</trkpt>
<trkpt lat="40.0713749" lon="-105.229789">
  <ele>1583.0</ele>
  <time>2026-08-28T17:48:33Z</time>
  <course>0.0</course>
  <speed>0.0</speed>
  <fix>3d</fix>
</trkpt>
<trkpt lat="40.0713751" lon="-105.2297889">
  <ele>1583.08</ele>
  <time>2026-08-28T17:48:33Z</time>
  <course>247.12</course>
  <speed>0.01</speed>
  <fix>3d</fix>
</trkpt>
<trkpt lat="40.0713749" lon="-105.229789">
  <ele>1583.0</ele>
  <time>2026-08-28T17:48:33Z</time>
  <course>0.0</course>
  <speed>0.0</speed>
  <fix>3d</fix>
</trkpt>
<trkpt lat="40.0713751" lon="-105.2297889">
  <ele>1583.09</ele>
  <time>2026-08-28T17:48:33Z</time>
  <course>247.12</course>
  <speed>0.01</speed>
  <fix>3d</fix>
</trkpt>
<trkpt lat="40.0713749" lon="-105.229789">
  <ele>1583.0</ele>
  <time>2026-08-28T17:48:33Z</time>
  <course>0.0</course>
  <speed>0.0</speed>
  <fix>3d</fix>
</trkpt>
<trkpt lat="40.0713751" lon="-105.2297889">
  <ele>1583.09</ele>
  <time>2026-08-28T17:48:33Z</time>
  <course>247.12</course>
  <speed>0.01</speed>
  <fix>3d</fix>
</trkpt>
<trkpt lat="40.0713749" lon="-105.229789">
  <ele>1583.0</ele>
  <time>2026-08-28T17:48:33Z</time>
  <course>0.0</course>
  <speed>0.0</speed>
  <fix>3d</fix>
</trkpt>
<trkpt lat="40.0713751" lon="-105.2297889">
  <ele>1583.09</ele>
  <time>2026-08-28T17:48:33Z</time>
  <course>247.12</course>
  <speed>0.01</speed>
  <fix>3d</fix>
</trkpt>
<trkpt lat="40.0713749" lon="-105.229789">
  <ele>1583.0</ele>
  <time>2026-08-28T17:48:33Z</time>
  <course>0.0</course>
  <speed>0.0</speed>
  <fix>3d</fix>
</trkpt>
<trkpt lat="40.0713751" lon="-105.2297889">
  <ele>1583.1</ele>
  <time>2026-08-28T17:48:33Z</time>
  <course>247.12</course>
  <speed>0.01</speed>
  <fix>3d</fix>
</trkpt>
<trkpt lat="40.0713749" lon="-105.229789">
  <ele>1583.0</ele>
  <time>2026-08-28T17:48:33Z</time>
  <course>0.0</course>
  <speed>0.0</speed>
  <fix>3d</fix>
</trkpt>
<trkpt lat="40.0713751" lon="-105.2297889">
  <ele>1583.1</ele>
  <time>2026-08-28T17:48:33Z</time>
  <course>247.12</course>
  <speed>0.01</speed>
  <fix>3d</fix>
</trkpt>
<trkpt lat="40.0713749" lon="-105.229789">
  <ele>1583.0</ele>
  <time>2026-08-28T17:48:33Z</time>
  <course>0.0</course>
  <speed>0.0</speed>
  <fix>3d</fix>
</trkpt>
<trkpt lat="40.0713751" lon="-105.2297889">
  <ele>1583.11</ele>
  <time>2026-08-28T17:48:33Z</time>
  <course>247.12</course>
  <speed>0.01</speed>
  <fix>3d</fix>
</trkpt>
<trkpt lat="40.0713749" lon="-105.229789">
  <ele>1583.0</ele>
  <time>2026-08-28T17:48:33Z</time>
  <course>0.0</course>
  <speed>0.0</speed>
  <fix>3d</fix>
</trkpt>
<trkpt lat="40.0713751" lon="-105.2297889">
  <ele>1583.11</ele>
  <time>2026-08-28T17:48:33Z</time>
  <course>247.12</course>
  <speed>0.01</speed>
  <fix>3d</fix>
</trkpt>
<trkpt lat="40.0713749" lon="-105.229789">
  <ele>1583.0</ele>
  <time>2026-08-28T17:48:33Z</time>
  <course>0.0</course>
  <speed>0.0</speed>
  <fix>3d</fix>
</trkpt>
<trkpt lat="40.0713751" lon="-105.2297889">
  <ele>1583.11</ele>
  <time>2026-08-28T17:48:33Z</time>
  <course>247.12</course>
  <speed>0.01</speed>
  <fix>3d</fix>
</trkpt>
<trkpt lat="40.0713749" lon="-105.229789">
  <ele>1583.0</ele>
  <time>2026-08-28T17:48:33Z</time>
  <course>0.0</course>
  <speed>0.0</speed>
  <fix>3d</fix>
</trkpt>
<trkpt lat="40.0713751" lon="-105.2297889">
  <ele>1583.12</ele>
  <time>2026-08-28T17:48:33Z</time>
  <course>247.12</course>
  <speed>0.01</speed>
  <fix>3d</fix>
</trkpt>
<trkpt lat="40.0713749" lon="-105.229789">
  <ele>1583.0</ele>
  <time>2026-08-28T17:48:33Z</time>
  <course>0.0</course>
  <speed>0.0</speed>
  <fix>3d</fix>
</trkpt>
<trkpt lat="40.0713751" lon="-105.2297889">
  <ele>1583.12</ele>
  <time>2026-08-28T17:48:33Z</time>
  <course>247.12</course>
  <speed>0.01</speed>
  <fix>3d</fix>
</trkpt>
<trkpt lat="40.0713749" lon="-105.229789">
  <ele>1583.0</ele>
  <time>2026-08-28T17:48:33Z</time>
  <course>0.0</course>
  <speed>0.0</speed>
  <fix>3d</fix>
</trkpt>
<trkpt lat="40.0713751" lon="-105.2297889">
  <ele>1583.12</ele>
  <time>2026-08-28T17:48:33Z</time>
  <course>247.12</course>
  <speed>0.01</speed>
  <fix>3d</fix>
</trkpt>
<trkpt lat="40.0713749" lon="-105.229789">
  <ele>1583.0</ele>
  <time>2026-08-28T17:48:33Z</time>
  <course>0.0</course>
  <speed>0.0</speed>
  <fix>3d</fix>
</trkpt>
<trkpt lat="40.0713751" lon="-105.2297889">
  <ele>1583.12</ele>
  <time>2026-08-28T17:48:33Z</time>
  <course>247.12</course>
  <speed>0.01</speed>
  <fix>3d</fix>
</trkpt>
<trkpt lat="40.0713749" lon="-105.229789">
  <ele>1583.0</ele>
  <time>2026-08-28T17:48:33Z</time>
  <course>0.0</course>
  <speed>0.0</speed>
  <fix>3d</fix>
</trkpt>
<trkpt lat="40.0713751" lon="-105.2297889">
  <ele>1583.12</ele>
  <time>2026-08-28T17:48:33Z</time>
  <course>247.12</course>
  <speed>0.01</speed>
  <fix>3d</fix>
</trkpt>
<trkpt lat="40.0713749" lon="-105.229789">
  <ele>1583.0</ele>
  <time>2026-08-28T17:48:33Z</time>
  <course>0.0</course>
  <speed>0.0</speed>
  <fix>3d</fix>
</trkpt>
<trkpt lat="40.0713751" lon="-105.2297889">
  <ele>1583.12</ele>
  <time>2026-08-28T17:48:33Z</time>
  <course>247.12</course>
  <speed>0.01</speed>
  <fix>3d</fix>
</trkpt>
<trkpt lat="40.0713749" lon="-105.229789">
  <ele>1583.0</ele>
  <time>2026-08-28T17:48:33Z</time>
  <course>0.0</course>
  <speed>0.0</speed>
  <fix>3d</fix>
</trkpt>
<trkpt lat="40.0713751" lon="-105.2297889">
  <ele>1583.12</ele>
  <time>2026-08-28T17:48:33Z</time>
  <course>247.12</course>
  <speed>0.01</speed>
  <fix>3d</fix>
</trkpt>
<trkpt lat="40.0713749" lon="-105.229789">
  <ele>1583.0</ele>
  <time>2026-08-28T17:48:33Z</time>
  <course>0.0</course>
  <speed>0.0</speed>
  <fix>3d</fix>
</trkpt>
<trkpt lat="40.0713751" lon="-105.2297889">
  <ele>1583.12</ele>
  <time>2026-08-28T17:48:33Z</time>
  <course>247.12</course>
  <speed>0.01</speed>
  <fix>3d</fix>
</trkpt>
<trkpt lat="40.0713749" lon="-105.229789">
  <ele>1583.0</ele>
  <time>2026-08-28T17:48:33Z</time>
  <course>0.0</course>
  <speed>0.0</speed>
  <fix>3d</fix>
</trkpt>
<trkpt lat="40.0713751" lon="-105.2297889">
  <ele>1583.12</ele>
  <time>2026-08-28T17:48:33Z</time>
  <course>247.12</course>
  <speed>0.01</speed>
  <fix>3d</fix>
</trkpt>
<trkpt lat="40.0713749" lon="-105.229789">
  <ele>1583.0</ele>
  <time>2026-08-28T17:48:33Z</time>
  <course>0.0</course>
  <speed>0.0</speed>
  <fix>3d</fix>
</trkpt>
<trkpt lat="40.0713751" lon="-105.2297889">
  <ele>1583.12</ele>
  <time>2026-08-28T17:48:33Z</time>
  <course>247.12</course>
  <speed>0.01</speed>
  <fix>3d</fix>
</trkpt>
<trkpt lat="40.0713749" lon="-105.229789">
  <ele>1583.0</ele>
  <time>2026-08-28T17:48:33Z</time>
  <course>0.0</course>
  <speed>0.0</speed>
  <fix>3d</fix>
</trkpt>
<trkpt lat="40.0713751" lon="-105.2297889">
  <ele>1583.12</ele>
  <time>2026-08-28T17:48:33Z</time>
  <course>247.12</course>
  <speed>0.01</speed>
  <fix>3d</fix>
</trkpt>
<trkpt lat="40.0713749" lon="-105.229789">
  <ele>1583.0</ele>
  <time>2026-08-28T17:48:33Z</time>
  <course>0.0</course>
  <speed>0.0</speed>
  <fix>3d</fix>
</trkpt>
<trkpt lat="40.0713751" lon="-105.2297889">
  <ele>1583.12</ele>
  <time>2026-08-28T17:48:33Z</time>
  <course>247.12</course>
  <speed>0.01</speed>
  <fix>3d</fix>
</trkpt>
<trkpt lat="40.0713749" lon="-105.229789">
  <ele>1583.0</ele>
  <time>2026-08-28T17:48:33Z</time>
  <course>0.0</course>
  <speed>0.0</speed>
  <fix>3d</fix>
</trkpt>
<trkpt lat="40.0713751" lon="-105.2297889">
  <ele>1583.12</ele>
  <time>2026-08-28T17:48:33Z</time>
  <course>247.12</course>
  <speed>0.01</speed>
  <fix>3d</fix>
</trkpt>
<trkpt lat="40.0713749" lon="-105.229789">
  <ele>1583.0</ele>
  <time>2026-08-28T17:48:33Z</time>
  <course>0.0</course>
  <speed>0.0</speed>
  <fix>3d</fix>
</trkpt>
<trkpt lat="40.0713751" lon="-105.2297889">
  <ele>1583.12</ele>
  <time>2026-08-28T17:48:33Z</time>
  <course>247.12</course>
  <speed>0.01</speed>
  <fix>3d</fix>
</trkpt>
<trkpt lat="40.0713749" lon="-105.229789">
  <ele>1583.0</ele>
  <time>2026-08-28T17:48:33Z</time>
  <course>0.0</course>
  <speed>0.0</speed>
  <fix>3d</fix>
</trkpt>
<trkpt lat="40.0713751" lon="-105.2297889">
  <ele>1583.12</ele>
  <time>2026-08-28T17:48:33Z</time>
  <course>247.12</course>
  <speed>0.01</speed>
  <fix>3d</fix>
</trkpt>
<trkpt lat="40.0713749" lon="-105.229789">
  <ele>1583.0</ele>
  <time>2026-08-28T17:48:33Z</time>
  <course>0.0</course>
  <speed>0.0</speed>
  <fix>3d</fix>
</trkpt>
<trkpt lat="40.0713751" lon="-105.2297889">
  <ele>1583.12</ele>
  <time>2026-08-28T17:48:33Z</time>
  <course>247.12</course>
  <speed>0.01</speed>
  <fix>3d</fix>
</trkpt>
<trkpt lat="40.0713749" lon="-105.229789">
  <ele>1583.0</ele>
  <time>2026-08-28T17:48:33Z</time>
  <course>0.0</course>
  <speed>0.0</speed>
  <fix>3d</fix>
</trkpt>
<trkpt lat="40.0713751" lon="-105.2297889">
  <ele>1583.12</ele>
  <time>2026-08-28T17:48:33Z</time>
  <course>247.12</course>
  <speed>0.01</speed>
  <fix>3d</fix>
</trkpt>
<trkpt lat="40.0713749" lon="-105.229789">
  <ele>1583.0</ele>
  <time>2026-08-28T17:48:33Z</time>
  <course>0.0</course>
  <speed>0.0</speed>
  <fix>3d</fix>
</trkpt>
<trkpt lat="40.0713751" lon="-105.2297889">
  <ele>1583.12</ele>
  <time>2026-08-28T17:48:33Z</time>
  <course>247.12</course>
  <speed>0.01</speed>
  <fix>3d</fix>
</trkpt>
<trkpt lat="40.0713749" lon="-105.229789">
  <ele>1583.0</ele>
  <time>2026-08-28T17:48:33Z</time>
  <course>0.0</course>
  <speed>0.0</speed>
  <fix>3d</fix>
</trkpt>
<trkpt lat="40.0713751" lon="-105.2297889">
  <ele>1583.12</ele>
  <time>2026-08-28T17:48:33Z</time>
  <course>247.12</course>
  <speed>0.01</speed>
  <fix>3d</fix>
</trkpt>
<trkpt lat="40.0713749" lon="-105.229789">
  <ele>1583.0</ele>
  <time>2026-08-28T17:48:33Z</time>
  <course>0.0</course>
  <speed>0.0</speed>
  <fix>3d</fix>
</trkpt>
<trkpt lat="40.0713751" lon="-105.2297889">
  <ele>1583.12</ele>
  <time>2026-08-28T17:48:33Z</time>
  <course>247.12</course>
  <speed>0.01</speed>
  <fix>3d</fix>
</trkpt>
<trkpt lat="40.0713749" lon="-105.229789">
  <ele>1583.0</ele>
  <time>2026-08-28T17:48:33Z</time>
  <course>0.0</course>
  <speed>0.0</speed>
  <fix>3d</fix>
</trkpt>
<trkpt lat="40.0713751" lon="-105.2297889">
  <ele>1583.12</ele>
  <time>2026-08-28T17:48:33Z</time>
  <course>247.12</course>
  <speed>0.02</speed>
  <fix>3d</fix>
</trkpt>
<trkpt lat="40.0713749" lon="-105.229789">
  <ele>1583.0</ele>
  <time>2026-08-28T17:48:33Z</time>
  <course>0.0</course>
  <speed>0.0</speed>
  <fix>3d</fix>
</trkpt>
<trkpt lat="40.0713751" lon="-105.2297889">
  <ele>1583.12</ele>
  <time>2026-08-28T17:48:33Z</time>
  <course>247.12</course>
  <speed>0.02</speed>
  <fix>3d</fix>
</trkpt>
<trkpt lat="40.0713749" lon="-105.229789">
  <ele>1583.0</ele>
  <time>2026-08-28T17:48:33Z</time>
  <course>0.0</course>
  <speed>0.0</speed>
  <fix>3d</fix>
</trkpt>
<trkpt lat="40.0713751" lon="-105.2297889">
  <ele>1583.12</ele>
  <time>2026-08-28T17:48:33Z</time>
  <course>247.12</course>
  <speed>0.02</speed>
  <fix>3d</fix>
</trkpt>
<trkpt lat="40.0713749" lon="-105.229789">
  <ele>1583.0</ele>
  <time>2026-08-28T17:48:33Z</time>
  <course>0.0</course>
  <speed>0.0</speed>
  <fix>3d</fix>
</trkpt>
<trkpt lat="40.0713751" lon="-105.2297889">
  <ele>1583.12</ele>
  <time>2026-08-28T17:48:33Z</time>
  <course>247.12</course>
  <speed>0.02</speed>
  <fix>3d</fix>
</trkpt>
<trkpt lat="40.0713749" lon="-105.229789">
  <ele>1583.0</ele>
  <time>2026-08-28T17:48:33Z</time>
  <course>0.0</course>
  <speed>0.0</speed>
  <fix>3d</fix>
</trkpt>
<trkpt lat="40.0713751" lon="-105.2297889">
  <ele>1583.12</ele>
  <time>2026-08-28T17:48:33Z</time>
  <course>247.12</course>
  <speed>0.02</speed>
  <fix>3d</fix>
</trkpt>
<trkpt lat="40.0713749" lon="-105.229789">
  <ele>1583.0</ele>
  <time>2026-08-28T17:48:33Z</time>
  <course>0.0</course>
  <speed>0.0</speed>
  <fix>3d</fix>
</trkpt>
<trkpt lat="40.0713751" lon="-105.2297889">
  <ele>1583.12</ele>
  <time>2026-08-28T17:48:33Z</time>
  <course>247.12</course>
  <speed>0.02</speed>
  <fix>3d</fix>
</trkpt>
<trkpt lat="40.0713749" lon="-105.229789">
  <ele>1583.0</ele>
  <time>2026-08-28T17:48:33Z</time>
  <course>0.0</course>
  <speed>0.0</speed>
  <fix>3d</fix>
</trkpt>
<trkpt lat="40.0713751" lon="-105.2297889">
  <ele>1583.12</ele>
  <time>2026-08-28T17:48:33Z</time>
  <course>247.12</course>
  <speed>0.02</speed>
  <fix>3d</fix>
</trkpt>
<trkpt lat="40.0713749" lon="-105.229789">
  <ele>1583.0</ele>
  <time>2026-08-28T17:48:33Z</time>
  <course>0.0</course>
  <speed>0.0</speed>
  <fix>3d</fix>
</trkpt>
<trkpt lat="40.0713751" lon="-105.2297889">
  <ele>1583.11</ele>
  <time>2026-08-28T17:48:33Z</time>
  <course>247.12</course>
  <speed>0.02</speed>
  <fix>3d</fix>
</trkpt>
<trkpt lat="40.0713749" lon="-105.229789">
  <ele>1583.0</ele>
  <time>2026-08-28T17:48:33Z</time>
  <course>0.0</course>
  <speed>0.0</speed>
  <fix>3d</fix>
</trkpt>
<trkpt lat="40.0713751" lon="-105.2297889">
  <ele>1583.11</ele>
  <time>2026-08-28T17:48:33Z</time>
  <course>247.12</course>
  <speed>0.02</speed>
  <fix>3d</fix>
</trkpt>
<trkpt lat="40.0713749" lon="-105.229789">
  <ele>1583.0</ele>
  <time>2026-08-28T17:48:33Z</time>
  <course>0.0</course>
  <speed>0.0</speed>
  <fix>3d</fix>
</trkpt>
<trkpt lat="40.0713751" lon="-105.2297889">
  <ele>1583.11</ele>
  <time>2026-08-28T17:48:33Z</time>
  <course>247.12</course>
  <speed>0.02</speed>
  <fix>3d</fix>
</trkpt>
<trkpt lat="40.0713749" lon="-105.229789">
  <ele>1583.0</ele>
  <time>2026-08-28T17:48:33Z</time>
  <course>0.0</course>
  <speed>0.0</speed>
  <fix>3d</fix>
</trkpt>
<trkpt lat="40.0713751" lon="-105.2297889">
  <ele>1583.11</ele>
  <time>2026-08-28T17:48:33Z</time>
  <course>247.12</course>
  <speed>0.02</speed>
  <fix>3d</fix>
</trkpt>
<trkpt lat="40.0713749" lon="-105.229789">
  <ele>1583.0</ele>
  <time>2026-08-28T17:48:33Z</time>
  <course>0.0</course>
  <speed>0.0</speed>
  <fix>3d</fix>
</trkpt>
<trkpt lat="40.0713751" lon="-105.2297889">
  <ele>1583.11</ele>
  <time>2026-08-28T17:48:33Z</time>
  <course>247.12</course>
  <speed>0.02</speed>
  <fix>3d</fix>
</trkpt>
<trkpt lat="40.0713749" lon="-105.229789">
  <ele>1583.0</ele>
  <time>2026-08-28T17:48:33Z</time>
  <course>0.0</course>
  <speed>0.0</speed>
  <fix>3d</fix>
</trkpt>
<trkpt lat="40.0713751" lon="-105.2297889">
  <ele>1583.11</ele>
  <time>2026-08-28T17:48:33Z</time>
  <course>247.12</course>
  <speed>0.02</speed>
  <fix>3d</fix>
</trkpt>
<trkpt lat="40.0713749" lon="-105.229789">
  <ele>1583.0</ele>
  <time>2026-08-28T17:48:33Z</time>
  <course>0.0</course>
  <speed>0.0</speed>
  <fix>3d</fix>
</trkpt>
<trkpt lat="40.0713751" lon="-105.2297889">
  <ele>1583.11</ele>
  <time>2026-08-28T17:48:33Z</time>
  <course>247.12</course>
  <speed>0.02</speed>
  <fix>3d</fix>
</trkpt>
<trkpt lat="40.0713749" lon="-105.229789">
  <ele>1583.0</ele>
  <time>2026-08-28T17:48:33Z</time>
  <course>0.0</course>
  <speed>0.0</speed>
  <fix>3d</fix>
</trkpt>
<trkpt lat="40.0713751" lon="-105.2297889">
  <ele>1583.11</ele>
  <time>2026-08-28T17:48:33Z</time>
  <course>247.12</course>
  <speed>0.022360679774997897</speed>
  <fix>3d</fix>
</trkpt>
<trkpt lat="40.0713749" lon="-105.229789">
  <ele>1583.0</ele>
  <time>2026-08-28T17:48:33Z</time>
  <course>0.0</course>
  <speed>0.0</speed>
  <fix>3d</fix>
</trkpt>
<trkpt lat="40.0713751" lon="-105.2297889">
  <ele>1583.11</ele>
  <time>2026-08-28T17:48:33Z</time>
  <course>247.12</course>
  <speed>0.022360679774997897</speed>
  <fix>3d</fix>
</trkpt>
<trkpt lat="40.0713749" lon="-105.229789">
  <ele>1583.0</ele>
  <time>2026-08-28T17:48:33Z</time>
  <course>0.0</course>
  <speed>0.0</speed>
  <fix>3d</fix>
</trkpt>
<trkpt lat="40.0713751" lon="-105.2297889">
  <ele>1583.11</ele>
  <time>2026-08-28T17:48:33Z</time>
  <course>247.12</course>
  <speed>0.022360679774997897</speed>
  <fix>3d</fix>
</trkpt>
<trkpt lat="40.0713749" lon="-105.229789">
  <ele>1583.0</ele>
  <time>2026-08-28T17:48:33Z</time>
  <course>0.0</course>
  <speed>0.0</speed>
  <fix>3d</fix>
</trkpt>
<trkpt lat="40.0713751" lon="-105.2297889">
  <ele>1583.11</ele>
  <time>2026-08-28T17:48:33Z</time>
  <course>247.12</course>
  <speed>0.022360679774997897</speed>
  <fix>3d</fix>
</trkpt>
<trkpt lat="40.0713749" lon="-105.229789">
  <ele>1583.0</ele>
  <time>2026-08-28T17:48:33Z</time>
  <course>0.0</course>
  <speed>0.0</speed>
  <fix>3d</fix>
</trkpt>
<trkpt lat="40.0713751" lon="-105.2297889">
  <ele>1583.11</ele>
  <time>2026-08-28T17:48:33Z</time>
  <course>247.12</course>
  <speed>0.022360679774997897</speed>
  <fix>3d</fix>
</trkpt>
<trkpt lat="40.0713749" lon="-105.229789">
  <ele>1583.0</ele>
  <time>2026-08-28T17:48:33Z</time>
  <course>0.0</course>
  <speed>0.0</speed>
  <fix>3d</fix>
</trkpt>
<trkpt lat="40.0713751" lon="-105.2297889">
  <ele>1583.1</ele>
  <time>2026-08-28T17:48:33Z</time>
  <course>247.12</course>
  <speed>0.022360679774997897</speed>
  <fix>3d</fix>
</trkpt>
<trkpt lat="40.0713749" lon="-105.229789">
  <ele>1583.0</ele>
  <time>2026-08-28T17:48:33Z</time>
  <course>0.0</course>
  <speed>0.0</speed>
  <fix>3d</fix>
</trkpt>
<trkpt lat="40.0713751" lon="-105.2297889">
  <ele>1583.1</ele>
  <time>2026-08-28T17:48:33Z</time>
  <course>247.12</course>
  <speed>0.022360679774997897</speed>
  <fix>3d</fix>
</trkpt>
<trkpt lat="40.0713749" lon="-105.229789">
  <ele>1583.0</ele>
  <time>2026-08-28T17:48:33Z</time>
  <course>0.0</course>
  <speed>0.0</speed>
  <fix>3d</fix>
</trkpt>
<trkpt lat="40.0713751" lon="-105.2297889">
  <ele>1583.1</ele>
  <time>2026-08-28T17:48:33Z</time>
  <course>247.12</course>
  <speed>0.022360679774997897</speed>
  <fix>3d</fix>
</trkpt>
<trkpt lat="40.0713749" lon="-105.229789">
  <ele>1583.0</ele>
  <time>2026-08-28T17:48:33Z</time>
  <course>0.0</course>
  <speed>0.0</speed>
  <fix>3d</fix>
</trkpt>
<trkpt lat="40.0713751" lon="-105.2297889">
  <ele>1583.1</ele>
  <time>2026-08-28T17:48:33Z</time>
  <course>247.12</course>
  <speed>0.022360679774997897</speed>
  <fix>3d</fix>
</trkpt>
<trkpt lat="40.0713749" lon="-105.229789">
  <ele>1583.0</ele>
  <time>2026-08-28T17:48:33Z</time>
  <course>0.0</course>
  <speed>0.0</speed>
  <fix>3d</fix>
</trkpt>
<trkpt lat="40.0713751" lon="-105.2297889">
  <ele>1583.1</ele>
  <time>2026-08-28T17:48:33Z</time>
  <course>247.12</course>
  <speed>0.022360679774997897</speed>
  <fix>3d</fix>
</trkpt>
<trkpt lat="40.0713749" lon="-105.229789">
  <ele>1583.0</ele>
  <time>2026-08-28T17:48:33Z</time>
  <course>0.0</course>
  <speed>0.0</speed>
  <fix>3d</fix>
</trkpt>
<trkpt lat="40.0713751" lon="-105.2297889">
  <ele>1583.11</ele>
  <time>2026-08-28T17:48:33Z</time>
  <course>247.12</course>
  <speed>0.022360679774997897</speed>
  <fix>3d</fix>
</trkpt>
<trkpt lat="40.0713749" lon="-105.229789">
  <ele>1583.0</ele>
  <time>2026-08-28T17:48:33Z</time>
  <course>0.0</course>
  <speed>0.0</speed>
  <fix>3d</fix>
</trkpt>
<trkpt lat="40.0713751" lon="-105.2297889">
  <ele>1583.11</ele>
  <time>2026-08-28T17:48:33Z</time>
  <course>247.12</course>
  <speed>0.022360679774997897</speed>
  <fix>3d</fix>
</trkpt>
<trkpt lat="40.0713749" lon="-105.229789">
  <ele>1583.0</ele>
  <time>2026-08-28T17:48:33Z</time>
  <course>0.0</course>
  <speed>0.0</speed>
  <fix>3d</fix>
</trkpt>
<trkpt lat="40.0713751" lon="-105.2297889">
  <ele>1583.11</ele>
  <time>2026-08-28T17:48:33Z</time>
  <course>247.12</course>
  <speed>0.022360679774997897</speed>
  <fix>3d</fix>
</trkpt>
<trkpt lat="40.0713749" lon="-105.229789">
  <ele>1583.0</ele>
  <time>2026-08-28T17:48:33Z</time>
  <course>0.0</course>
  <speed>0.0</speed>
  <fix>3d</fix>
</trkpt>
<trkpt lat="40.0713751" lon="-105.2297889">
  <ele>1583.11</ele>
  <time>2026-08-28T17:48:33Z</time>
  <course>247.12</course>
  <speed>0.022360679774997897</speed>
  <fix>3d</fix>
</trkpt>
<trkpt lat="40.0713749" lon="-105.229789">
  <ele>1583.0</ele>
  <time>2026-08-28T17:48:33Z</time>
  <course>0.0</course>
  <speed>0.0</speed>
  <fix>3d</fix>
</trkpt>
<trkpt lat="40.0713751" lon="-105.2297889">
  <ele>1583.11</ele>
  <time>2026-08-28T17:48:33Z</time>
  <course>247.12</course>
  <speed>0.022360679774997897</speed>
  <fix>3d</fix>
</trkpt>
<trkpt lat="40.0713749" lon="-105.229789">
  <ele>1583.0</ele>
  <time>2026-08-28T17:48:33Z</time>
  <course>0.0</course>
  <speed>0.0</speed>
  <fix>3d</fix>
</trkpt>
<trkpt lat="40.0713751" lon="-105.2297889">
  <ele>1583.11</ele>
  <time>2026-08-28T17:48:33Z</time>
  <course>247.12</course>
  <speed>0.022360679774997897</speed>
  <fix>3d</fix>
</trkpt>
<trkpt lat="40.0713749" lon="-105.229789">
  <ele>1583.0</ele>
  <time>2026-08-28T17:48:33Z</time>
  <course>0.0</course>
  <speed>0.0</speed>
  <fix>3d</fix>
</trkpt>
<trkpt lat="40.0713751" lon="-105.2297889">
  <ele>1583.11</ele>
  <time>2026-08-28T17:48:33Z</time>
  <course>247.12</course>
  <speed>0.022360679774997897</speed>
  <fix>3d</fix>
</trkpt>
<trkpt lat="40.0713749" lon="-105.229789">
  <ele>1583.0</ele>
  <time>2026-08-28T17:48:33Z</time>
  <course>0.0</course>
  <speed>0.0</speed>
  <fix>3d</fix>
</trkpt>
<trkpt lat="40.0713751" lon="-105.2297889">
  <ele>1583.11</ele>
  <time>2026-08-28T17:48:33Z</time>
  <course>247.12</course>
  <speed>0.022360679774997897</speed>
  <fix>3d</fix>
</trkpt>
<trkpt lat="40.0713749" lon="-105.229789">
  <ele>1583.0</ele>
  <time>2026-08-28T17:48:33Z</time>
  <course>0.0</course>
  <speed>0.0</speed>
  <fix>3d</fix>
</trkpt>
<trkpt lat="40.0713751" lon="-105.2297889">
  <ele>1583.11</ele>
  <time>2026-08-28T17:48:33Z</time>
  <course>247.12</course>
  <speed>0.022360679774997897</speed>
  <fix>3d</fix>
</trkpt>
<trkpt lat="40.0713749" lon="-105.229789">
  <ele>1583.0</ele>
  <time>2026-08-28T17:48:33Z</time>
  <course>0.0</course>
  <speed>0.0</speed>
  <fix>3d</fix>
</trkpt>
<trkpt lat="40.0713751" lon="-105.2297889">
  <ele>1583.11</ele>
  <time>2026-08-28T17:48:33Z</time>
  <course>247.12</course>
  <speed>0.022360679774997897</speed>
  <fix>3d</fix>
</trkpt>
<trkpt lat="40.0713749" lon="-105.229789">
  <ele>1583.0</ele>
  <time>2026-08-28T17:48:33Z</time>
  <course>0.0</course>
  <speed>0.0</speed>
  <fix>3d</fix>
</trkpt>
<trkpt lat="40.0713751" lon="-105.2297889">
  <ele>1583.11</ele>
  <time>2026-08-28T17:48:33Z</time>
  <course>247.12</course>
  <speed>0.022360679774997897</speed>
  <fix>3d</fix>
</trkpt>
<trkpt lat="40.0713749" lon="-105.229789">
  <ele>1583.0</ele>
  <time>2026-08-28T17:48:33Z</time>
  <course>0.0</course>
  <speed>0.0</speed>
  <fix>3d</fix>
</trkpt>
<trkpt lat="40.0713751" lon="-105.2297889">
  <ele>1583.11</ele>
  <time>2026-08-28T17:48:33Z</time>
  <course>247.12</course>
  <speed>0.022360679774997897</speed>
  <fix>3d</fix>
</trkpt>
<trkpt lat="40.0713749" lon="-105.229789">
  <ele>1583.0</ele>
  <time>2026-08-28T17:48:33Z</time>
  <course>0.0</course>
  <speed>0.0</speed>
  <fix>3d</fix>
</trkpt>
<trkpt lat="40.0713751" lon="-105.2297889">
  <ele>1583.12</ele>
  <time>2026-08-28T17:48:33Z</time>
  <course>247.12</course>
  <speed>0.022360679774997897</speed>
  <fix>3d</fix>
</trkpt>
<trkpt lat="40.0713749" lon="-105.229789">
  <ele>1583.0</ele>
  <time>2026-08-28T17:48:33Z</time>
  <course>0.0</course>
  <speed>0.0</speed>
  <fix>3d</fix>
</trkpt>
<trkpt lat="40.0713751" lon="-105.2297889">
  <ele>1583.12</ele>
  <time>2026-08-28T17:48:33Z</time>
  <course>247.12</course>
  <speed>0.022360679774997897</speed>
  <fix>3d</fix>
</trkpt>
<trkpt lat="40.0713749" lon="-105.229789">
  <ele>1583.0</ele>
  <time>2026-08-28T17:48:33Z</time>
  <course>0.0</course>
  <speed>0.0</speed>
  <fix>3d</fix>
</trkpt>
<trkpt lat="40.0713751" lon="-105.2297889">
  <ele>1583.12</ele>
  <time>2026-08-28T17:48:33Z</time>
  <course>247.12</course>
  <speed>0.022360679774997897</speed>
  <fix>3d</fix>
</trkpt>
<trkpt lat="40.0713749" lon="-105.229789">
  <ele>1583.0</ele>
  <time>2026-08-28T17:48:33Z</time>
  <course>0.0</course>
  <speed>0.0</speed>
  <fix>3d</fix>
</trkpt>
<trkpt lat="40.0713751" lon="-105.2297889">
  <ele>1583.13</ele>
  <time>2026-08-28T17:48:33Z</time>
  <course>247.12</course>
  <speed>0.022360679774997897</speed>
  <fix>3d</fix>
</trkpt>
<trkpt lat="40.0713749" lon="-105.229789">
  <ele>1583.0</ele>
  <time>2026-08-28T17:48:33Z</time>
  <course>0.0</course>
  <speed>0.0</speed>
  <fix>3d</fix>
</trkpt>
<trkpt lat="40.0713751" lon="-105.2297889">
  <ele>1583.13</ele>
  <time>2026-08-28T17:48:33Z</time>
  <course>247.12</course>
  <speed>0.022360679774997897</speed>
  <fix>3d</fix>
</trkpt>
<trkpt lat="40.0713749" lon="-105.229789">
  <ele>1583.0</ele>
  <time>2026-08-28T17:48:33Z</time>
  <course>0.0</course>
  <speed>0.0</speed>
  <fix>3d</fix>
</trkpt>
<trkpt lat="40.0713751" lon="-105.2297889">
  <ele>1583.13</ele>
  <time>2026-08-28T17:48:33Z</time>
  <course>247.12</course>
  <speed>0.022360679774997897</speed>
  <fix>3d</fix>
</trkpt>
<trkpt lat="40.0713749" lon="-105.229789">
  <ele>1583.0</ele>
  <time>2026-08-28T17:48:33Z</time>
  <course>0.0</course>
  <speed>0.0</speed>
  <fix>3d</fix>
</trkpt>
<trkpt lat="40.0713751" lon="-105.2297889">
  <ele>1583.13</ele>
  <time>2026-08-28T17:48:33Z</time>
  <course>247.12</course>
  <speed>0.022360679774997897</speed>
  <fix>3d</fix>
</trkpt>
<trkpt lat="40.0713749" lon="-105.229789">
  <ele>1583.0</ele>
  <time>2026-08-28T17:48:33Z</time>
  <course>0.0</course>
  <speed>0.0</speed>
  <fix>3d</fix>
</trkpt>
<trkpt lat="40.0713751" lon="-105.2297889">
  <ele>1583.13</ele>
  <time>2026-08-28T17:48:33Z</time>
  <course>247.12</course>
  <speed>0.022360679774997897</speed>
  <fix>3d</fix>
</trkpt>
<trkpt lat="40.0713749" lon="-105.229789">
  <ele>1583.0</ele>
  <time>2026-08-28T17:48:33Z</time>
  <course>0.0</course>
  <speed>0.0</speed>
  <fix>3d</fix>
</trkpt>
<trkpt lat="40.0713751" lon="-105.2297889">
  <ele>1583.13</ele>
  <time>2026-08-28T17:48:33Z</time>
  <course>247.12</course>
  <speed>0.022360679774997897</speed>
  <fix>3d</fix>
</trkpt>
<trkpt lat="40.0713749" lon="-105.229789">
  <ele>1583.0</ele>
  <time>2026-08-28T17:48:33Z</time>
  <course>0.0</course>
  <speed>0.0</speed>
  <fix>3d</fix>
</trkpt>
<trkpt lat="40.0713751" lon="-105.2297889">
  <ele>1583.13</ele>
  <time>2026-08-28T17:48:33Z</time>
  <course>247.12</course>
  <speed>0.022360679774997897</speed>
  <fix>3d</fix>
</trkpt>
<trkpt lat="40.0713749" lon="-105.229789">
  <ele>1583.0</ele>
  <time>2026-08-28T17:48:33Z</time>
  <course>0.0</course>
  <speed>0.0</speed>
  <fix>3d</fix>
</trkpt>
<trkpt lat="40.0713751" lon="-105.2297889">
  <ele>1583.12</ele>
  <time>2026-08-28T17:48:33Z</time>
  <course>247.12</course>
  <speed>0.022360679774997897</speed>
  <fix>3d</fix>
</trkpt>
<trkpt lat="40.0713749" lon="-105.229789">
  <ele>1583.0</ele>
  <time>2026-08-28T17:48:33Z</time>
  <course>0.0</course>
  <speed>0.0</speed>
  <fix>3d</fix>
</trkpt>
<trkpt lat="40.0713751" lon="-105.2297889">
  <ele>1583.13</ele>
  <time>2026-08-28T17:48:33Z</time>
  <course>247.12</course>
  <speed>0.022360679774997897</speed>
  <fix>3d</fix>
</trkpt>
<trkpt lat="40.0713749" lon="-105.229789">
  <ele>1583.0</ele>
  <time>2026-08-28T17:48:33Z</time>
  <course>0.0</course>
  <speed>0.0</speed>
  <fix>3d</fix>
</trkpt>
<trkpt lat="40.0713751" lon="-105.2297889">
  <ele>1583.13</ele>
  <time>2026-08-28T17:48:33Z</time>
  <course>247.12</course>
  <speed>0.022360679774997897</speed>
  <fix>3d</fix>
</trkpt>
<trkpt lat="40.0713749" lon="-105.229789">
  <ele>1583.0</ele>
  <time>2026-08-28T17:48:33Z</time>
  <course>0.0</course>
  <speed>0.0</speed>
  <fix>3d</fix>
</trkpt>
<trkpt lat="40.0713751" lon="-105.2297889">
  <ele>1583.13</ele>
  <time>2026-08-28T17:48:33Z</time>
  <course>247.12</course>
  <speed>0.022360679774997897</speed>
  <fix>3d</fix>
</trkpt>
<trkpt lat="40.0713749" lon="-105.229789">
  <ele>1583.0</ele>
  <time>2026-08-28T17:48:33Z</time>
  <course>0.0</course>
  <speed>0.0</speed>
  <fix>3d</fix>
</trkpt>
<trkpt lat="40.0713751" lon="-105.2297889">
  <ele>1583.13</ele>
  <time>2026-08-28T17:48:33Z</time>
  <course>247.12</course>
  <speed>0.022360679774997897</speed>
  <fix>3d</fix>
</trkpt>
<trkpt lat="40.0713749" lon="-105.229789">
  <ele>1583.0</ele>
  <time>2026-08-28T17:48:33Z</time>
  <course>0.0</course>
  <speed>0.0</speed>
  <fix>3d</fix>
</trkpt>
<trkpt lat="40.0713751" lon="-105.2297889">
  <ele>1583.12</ele>
  <time>2026-08-28T17:48:33Z</time>
  <course>247.12</course>
  <speed>0.022360679774997897</speed>
  <fix>3d</fix>
</trkpt>
<trkpt lat="40.0713749" lon="-105.229789">
  <ele>1583.0</ele>
  <time>2026-08-28T17:48:33Z</time>
  <course>0.0</course>
  <speed>0.0</speed>
  <fix>3d</fix>
</trkpt>
<trkpt lat="40.0713751" lon="-105.2297889">
  <ele>1583.12</ele>
  <time>2026-08-28T17:48:33Z</time>
  <course>247.12</course>
  <speed>0.022360679774997897</speed>
  <fix>3d</fix>
</trkpt>
<trkpt lat="40.0713749" lon="-105.229789">
  <ele>1583.0</ele>
  <time>2026-08-28T17:48:33Z</time>
  <course>0.0</course>
  <speed>0.0</speed>
  <fix>3d</fix>
</trkpt>
<trkpt lat="40.0713751" lon="-105.2297889">
  <ele>1583.12</ele>
  <time>2026-08-28T17:48:33Z</time>
  <course>247.12</course>
  <speed>0.022360679774997897</speed>
  <fix>3d</fix>
</trkpt>
<trkpt lat="40.0713749" lon="-105.229789">
  <ele>1583.0</ele>
  <time>2026-08-28T17:48:33Z</time>
  <course>0.0</course>
  <speed>0.0</speed>
  <fix>3d</fix>
</trkpt>
<trkpt lat="40.0713751" lon="-105.2297889">
  <ele>1583.12</ele>
  <time>2026-08-28T17:48:33Z</time>
  <course>247.12</course>
  <speed>0.022360679774997897</speed>
  <fix>3d</fix>
</trkpt>
<trkpt lat="40.0713749" lon="-105.229789">
  <ele>1583.0</ele>
  <time>2026-08-28T17:48:33Z</time>
  <course>0.0</course>
  <speed>0.0</speed>
  <fix>3d</fix>
</trkpt>
<trkpt lat="40.0713751" lon="-105.2297889">
  <ele>1583.12</ele>
  <time>2026-08-28T17:48:33Z</time>
  <course>247.12</course>
  <speed>0.022360679774997897</speed>
  <fix>3d</fix>
</trkpt>
<trkpt lat="40.0713749" lon="-105.229789">
  <ele>1583.0</ele>
  <time>2026-08-28T17:48:33Z</time>
  <course>0.0</course>
  <speed>0.0</speed>
  <fix>3d</fix>
</trkpt>
<trkpt lat="40.0713751" lon="-105.2297889">
  <ele>1583.12</ele>
  <time>2026-08-28T17:48:33Z</time>
  <course>247.12</course>
  <speed>0.022360679774997897</speed>
  <fix>3d</fix>
</trkpt>
<trkpt lat="40.0713749" lon="-105.229789">
  <ele>1583.0</ele>
  <time>2026-08-28T17:48:33Z</time>
  <course>0.0</course>
  <speed>0.0</speed>
  <fix>3d</fix>
</trkpt>
<trkpt lat="40.0713751" lon="-105.2297889">
  <ele>1583.12</ele>
  <time>2026-08-28T17:48:33Z</time>
  <course>247.12</course>
  <speed>0.022360679774997897</speed>
  <fix>3d</fix>
</trkpt>
<trkpt lat="40.0713749" lon="-105.229789">
  <ele>1583.0</ele>
  <time>2026-08-28T17:48:33Z</time>
  <course>0.0</course>
  <speed>0.0</speed>
  <fix>3d</fix>
</trkpt>
<trkpt lat="40.0713751" lon="-105.2297889">
  <ele>1583.12</ele>
  <time>2026-08-28T17:48:33Z</time>
  <course>247.12</course>
  <speed>0.022360679774997897</speed>
  <fix>3d</fix>
</trkpt>
<trkpt lat="40.0713749" lon="-105.229789">
  <ele>1583.0</ele>
  <time>2026-08-28T17:48:33Z</time>
  <course>0.0</course>
  <speed>0.0</speed>
  <fix>3d</fix>
</trkpt>
<trkpt lat="40.0713751" lon="-105.2297889">
  <ele>1583.12</ele>
  <time>2026-08-28T17:48:33Z</time>
  <course>247.12</course>
  <speed>0.022360679774997897</speed>
  <fix>3d</fix>
</trkpt>
<trkpt lat="40.0713749" lon="-105.229789">
  <ele>1583.0</ele>
  <time>2026-08-28T17:48:33Z</time>
  <course>0.0</course>
  <speed>0.0</speed>
  <fix>3d</fix>
</trkpt>
<trkpt lat="40.0713751" lon="-105.2297889">
  <ele>1583.12</ele>
  <time>2026-08-28T17:48:33Z</time>
  <course>247.12</course>
  <speed>0.022360679774997897</speed>
  <fix>3d</fix>
</trkpt>
<trkpt lat="40.0713749" lon="-105.229789">
  <ele>1583.0</ele>
  <time>2026-08-28T17:48:33Z</time>
  <course>0.0</course>
  <speed>0.0</speed>
  <fix>3d</fix>
</trkpt>
<trkpt lat="40.0713751" lon="-105.2297889">
  <ele>1583.12</ele>
  <time>2026-08-28T17:48:33Z</time>
  <course>247.12</course>
  <speed>0.022360679774997897</speed>
  <fix>3d</fix>
</trkpt>
<trkpt lat="40.0713749" lon="-105.229789">
  <ele>1583.0</ele>
  <time>2026-08-28T17:48:33Z</time>
  <course>0.0</course>
  <speed>0.0</speed>
  <fix>3d</fix>
</trkpt>
<trkpt lat="40.0713751" lon="-105.2297889">
  <ele>1583.12</ele>
  <time>2026-08-28T17:48:33Z</time>
  <course>247.12</course>
  <speed>0.022360679774997897</speed>
  <fix>3d</fix>
</trkpt>
<trkpt lat="40.0713749" lon="-105.229789">
  <ele>1583.0</ele>
  <time>2026-08-28T17:48:33Z</time>
  <course>0.0</course>
  <speed>0.0</speed>
  <fix>3d</fix>
</trkpt>
<trkpt lat="40.0713751" lon="-105.2297889">
  <ele>1583.12</ele>
  <time>2026-08-28T17:48:33Z</time>
  <course>247.12</course>
  <speed>0.022360679774997897</speed>
  <fix>3d</fix>
</trkpt>
<trkpt lat="40.0713749" lon="-105.229789">
  <ele>1583.0</ele>
  <time>2026-08-28T17:48:33Z</time>
  <course>0.0</course>
  <speed>0.0</speed>
  <fix>3d</fix>
</trkpt>
<trkpt lat="40.0713751" lon="-105.2297889">
  <ele>1583.12</ele>
  <time>2026-08-28T17:48:33Z</time>
  <course>247.12</course>
  <speed>0.022360679774997897</speed>
  <fix>3d</fix>
</trkpt>
<trkpt lat="40.0713749" lon="-105.229789">
  <ele>1583.0</ele>
  <time>2026-08-28T17:48:33Z</time>
  <course>0.0</course>
  <speed>0.0</speed>
  <fix>3d</fix>
</trkpt>
<trkpt lat="40.0713751" lon="-105.2297889">
  <ele>1583.12</ele>
  <time>2026-08-28T17:48:33Z</time>
  <course>247.12</course>
  <speed>0.022360679774997897</speed>
  <fix>3d</fix>
</trkpt>
<trkpt lat="40.0713749" lon="-105.229789">
  <ele>1583.0</ele>
  <time>2026-08-28T17:48:33Z</time>
  <course>0.0</course>
  <speed>0.0</speed>
  <fix>3d</fix>
</trkpt>
<trkpt lat="40.0713751" lon="-105.2297889">
  <ele>1583.12</ele>
  <time>2026-08-28T17:48:33Z</time>
  <course>247.12</course>
  <speed>0.022360679774997897</speed>
  <fix>3d</fix>
</trkpt>
<trkpt lat="40.0713749" lon="-105.229789">
  <ele>1583.0</ele>
  <time>2026-08-28T17:48:33Z</time>
  <course>0.0</course>
  <speed>0.0</speed>
  <fix>3d</fix>
</trkpt>
<trkpt lat="40.0713751" lon="-105.2297889">
  <ele>1583.12</ele>
  <time>2026-08-28T17:48:33Z</time>
  <course>247.12</course>
  <speed>0.022360679774997897</speed>
  <fix>3d</fix>
</trkpt>
<trkpt lat="40.0713749" lon="-105.229789">
  <ele>1583.0</ele>
  <time>2026-08-28T17:48:33Z</time>
  <course>0.0</course>
  <speed>0.0</speed>
  <fix>3d</fix>
</trkpt>
<trkpt lat="40.0713751" lon="-105.2297889">
  <ele>1583.12</ele>
  <time>2026-08-28T17:48:33Z</time>
  <course>247.12</course>
  <speed>0.022360679774997897</speed>
  <fix>3d</fix>
</trkpt>
<trkpt lat="40.0713749" lon="-105.229789">
  <ele>1583.0</ele>
  <time>2026-08-28T17:48:33Z</time>
  <course>0.0</course>
  <speed>0.0</speed>
  <fix>3d</fix>
</trkpt>
<trkpt lat="40.0713751" lon="-105.2297889">
  <ele>1583.12</ele>
  <time>2026-08-28T17:48:33Z</time>
  <course>247.12</course>
  <speed>0.022360679774997897</speed>
  <fix>3d</fix>
</trkpt>
<trkpt lat="40.0713749" lon="-105.229789">
  <ele>1583.0</ele>
  <time>2026-08-28T17:48:33Z</time>
  <course>0.0</course>
  <speed>0.0</speed>
  <fix>3d</fix>
</trkpt>
<trkpt lat="40.0713751" lon="-105.2297889">
  <ele>1583.12</ele>
  <time>2026-08-28T17:48:33Z</time>
  <course>247.12</course>
  <speed>0.022360679774997897</speed>
  <fix>3d</fix>
</trkpt>
<trkpt lat="40.0713749" lon="-105.229789">
  <ele>1583.0</ele>
  <time>2026-08-28T17:48:33Z</time>
  <course>0.0</course>
  <speed>0.0</speed>
  <fix>3d</fix>
</trkpt>
<trkpt lat="40.0713751" lon="-105.2297889">
  <ele>1583.12</ele>
  <time>2026-08-28T17:48:33Z</time>
  <course>247.13</course>
  <speed>0.022360679774997897</speed>
  <fix>3d</fix>
</trkpt>
<trkpt lat="40.0713749" lon="-105.229789">
  <ele>1583.0</ele>
  <time>2026-08-28T17:48:33Z</time>
  <course>0.0</course>
  <speed>0.0</speed>
  <fix>3d</fix>
</trkpt>
<trkpt lat="40.0713751" lon="-105.2297889">
  <ele>1583.12</ele>
  <time>2026-08-28T17:48:33Z</time>
  <course>247.13</course>
  <speed>0.022360679774997897</speed>
  <fix>3d</fix>
</trkpt>
<trkpt lat="40.0713749" lon="-105.229789">
  <ele>1583.0</ele>
  <time>2026-08-28T17:48:33Z</time>
  <course>0.0</course>
  <speed>0.0</speed>
  <fix>3d</fix>
</trkpt>
<trkpt lat="40.0713751" lon="-105.2297889">
  <ele>1583.12</ele>
  <time>2026-08-28T17:48:33Z</time>
  <course>247.13</course>
  <speed>0.022360679774997897</speed>
  <fix>3d</fix>
</trkpt>
<trkpt lat="40.0713749" lon="-105.229789">
  <ele>1583.0</ele>
  <time>2026-08-28T17:48:33Z</time>
  <course>0.0</course>
  <speed>0.0</speed>
  <fix>3d</fix>
</trkpt>
<trkpt lat="40.0713751" lon="-105.2297889">
  <ele>1583.11</ele>
  <time>2026-08-28T17:48:33Z</time>
  <course>247.13</course>
  <speed>0.022360679774997897</speed>
  <fix>3d</fix>
</trkpt>
<trkpt lat="40.0713749" lon="-105.229789">
  <ele>1583.0</ele>
  <time>2026-08-28T17:48:33Z</time>
  <course>0.0</course>
  <speed>0.0</speed>
  <fix>3d</fix>
</trkpt>
<trkpt lat="40.0713751" lon="-105.2297889">
  <ele>1583.11</ele>
  <time>2026-08-28T17:48:33Z</time>
  <course>247.13</course>
  <speed>0.022360679774997897</speed>
  <fix>3d</fix>
</trkpt>
<trkpt lat="40.0713749" lon="-105.229789">
  <ele>1583.0</ele>
  <time>2026-08-28T17:48:33Z</time>
  <course>0.0</course>
  <speed>0.0</speed>
  <fix>3d</fix>
</trkpt>
<trkpt lat="40.0713751" lon="-105.2297889">
  <ele>1583.11</ele>
  <time>2026-08-28T17:48:33Z</time>
  <course>247.13</course>
  <speed>0.022360679774997897</speed>
  <fix>3d</fix>
</trkpt>
<trkpt lat="40.0713749" lon="-105.229789">
  <ele>1583.0</ele>
  <time>2026-08-28T17:48:33Z</time>
  <course>0.0</course>
  <speed>0.0</speed>
  <fix>3d</fix>
</trkpt>
<trkpt lat="40.0713751" lon="-105.2297889">
  <ele>1583.11</ele>
  <time>2026-08-28T17:48:33Z</time>
  <course>247.13</course>
  <speed>0.022360679774997897</speed>
  <fix>3d</fix>
</trkpt>
<trkpt lat="40.0713749" lon="-105.229789">
  <ele>1583.0</ele>
  <time>2026-08-28T17:48:33Z</time>
  <course>0.0</course>
  <speed>0.0</speed>
  <fix>3d</fix>
</trkpt>
<trkpt lat="40.0713751" lon="-105.2297889">
  <ele>1583.1</ele>
  <time>2026-08-28T17:48:33Z</time>
  <course>247.13</course>
  <speed>0.022360679774997897</speed>
  <fix>3d</fix>
</trkpt>
<trkpt lat="40.0713749" lon="-105.229789">
  <ele>1583.0</ele>
  <time>2026-08-28T17:48:33Z</time>
  <course>0.0</course>
  <speed>0.0</speed>
  <fix>3d</fix>
</trkpt>
<trkpt lat="40.0713751" lon="-105.2297889">
  <ele>1583.1</ele>
  <time>2026-08-28T17:48:33Z</time>
  <course>247.13</course>
  <speed>0.022360679774997897</speed>
  <fix>3d</fix>
</trkpt>
<trkpt lat="40.0713749" lon="-105.229789">
  <ele>1583.0</ele>
  <time>2026-08-28T17:48:33Z</time>
  <course>0.0</course>
  <speed>0.0</speed>
  <fix>3d</fix>
</trkpt>
<trkpt lat="40.0713751" lon="-105.2297889">
  <ele>1583.1</ele>
  <time>2026-08-28T17:48:33Z</time>
  <course>247.13</course>
  <speed>0.022360679774997897</speed>
  <fix>3d</fix>
</trkpt>
<trkpt lat="40.0713749" lon="-105.229789">
  <ele>1583.0</ele>
  <time>2026-08-28T17:48:33Z</time>
  <course>0.0</course>
  <speed>0.0</speed>
  <fix>3d</fix>
</trkpt>
<trkpt lat="40.0713751" lon="-105.2297889">
  <ele>1583.1</ele>
  <time>2026-08-28T17:48:33Z</time>
  <course>247.13</course>
  <speed>0.022360679774997897</speed>
  <fix>3d</fix>
</trkpt>
<trkpt lat="40.0713749" lon="-105.229789">
  <ele>1583.0</ele>
  <time>2026-08-28T17:48:33Z</time>
  <course>0.0</course>
  <speed>0.0</speed>
  <fix>3d</fix>
</trkpt>
<trkpt lat="40.0713751" lon="-105.2297889">
  <ele>1583.1</ele>
  <time>2026-08-28T17:48:33Z</time>
  <course>247.13</course>
  <speed>0.022360679774997897</speed>
  <fix>3d</fix>
</trkpt>
<trkpt lat="40.0713749" lon="-105.229789">
  <ele>1583.0</ele>
  <time>2026-08-28T17:48:33Z</time>
  <course>0.0</course>
  <speed>0.0</speed>
  <fix>3d</fix>
</trkpt>
<trkpt lat="40.0713751" lon="-105.2297889">
  <ele>1583.1</ele>
  <time>2026-08-28T17:48:33Z</time>
  <course>247.13</course>
  <speed>0.022360679774997897</speed>
  <fix>3d</fix>
</trkpt>
<trkpt lat="40.0713749" lon="-105.229789">
  <ele>1583.0</ele>
  <time>2026-08-28T17:48:33Z</time>
  <course>0.0</course>
  <speed>0.0</speed>
  <fix>3d</fix>
</trkpt>
<trkpt lat="40.0713751" lon="-105.2297889">
  <ele>1583.1</ele>
  <time>2026-08-28T17:48:33Z</time>
  <course>247.13</course>
  <speed>0.022360679774997897</speed>
  <fix>3d</fix>
</trkpt>
<trkpt lat="40.0713749" lon="-105.229789">
  <ele>1583.0</ele>
  <time>2026-08-28T17:48:33Z</time>
  <course>0.0</course>
  <speed>0.0</speed>
  <fix>3d</fix>
</trkpt>
<trkpt lat="40.0713751" lon="-105.2297889">
  <ele>1583.1</ele>
  <time>2026-08-28T17:48:33Z</time>
  <course>247.13</course>
  <speed>0.022360679774997897</speed>
  <fix>3d</fix>
</trkpt>
<trkpt lat="40.0713749" lon="-105.229789">
  <ele>1583.0</ele>
  <time>2026-08-28T17:48:33Z</time>
  <course>0.0</course>
  <speed>0.0</speed>
  <fix>3d</fix>
</trkpt>
<trkpt lat="40.0713751" lon="-105.2297889">
  <ele>1583.1</ele>
  <time>2026-08-28T17:48:33Z</time>
  <course>247.13</course>
  <speed>0.022360679774997897</speed>
  <fix>3d</fix>
</trkpt>
<trkpt lat="40.0713749" lon="-105.229789">
  <ele>1583.0</ele>
  <time>2026-08-28T17:48:33Z</time>
  <course>0.0</course>
  <speed>0.0</speed>
  <fix>3d</fix>
</trkpt>
<trkpt lat="40.0713751" lon="-105.2297889">
  <ele>1583.1</ele>
  <time>2026-08-28T17:48:33Z</time>
  <course>247.13</course>
  <speed>0.022360679774997897</speed>
  <fix>3d</fix>
</trkpt>
<trkpt lat="40.0713749" lon="-105.229789">
  <ele>1583.0</ele>
  <time>2026-08-28T17:48:33Z</time>
  <course>0.0</course>
  <speed>0.0</speed>
  <fix>3d</fix>
</trkpt>
<trkpt lat="40.0713751" lon="-105.2297889">
  <ele>1583.1</ele>
  <time>2026-08-28T17:48:33Z</time>
  <course>247.13</course>
  <speed>0.022360679774997897</speed>
  <fix>3d</fix>
</trkpt>
<trkpt lat="40.0713749" lon="-105.229789">
  <ele>1583.0</ele>
  <time>2026-08-28T17:48:33Z</time>
  <course>0.0</course>
  <speed>0.0</speed>
  <fix>3d</fix>
</trkpt>
<trkpt lat="40.0713751" lon="-105.2297889">
  <ele>1583.1</ele>
  <time>2026-08-28T17:48:33Z</time>
  <course>247.13</course>
  <speed>0.022360679774997897</speed>
  <fix>3d</fix>
</trkpt>
<trkpt lat="40.0713749" lon="-105.229789">
  <ele>1583.0</ele>
  <time>2026-08-28T17:48:33Z</time>
  <course>0.0</course>
  <speed>0.0</speed>
  <fix>3d</fix>
</trkpt>
<trkpt lat="40.0713751" lon="-105.2297889">
  <ele>1583.1</ele>
  <time>2026-08-28T17:48:33Z</time>
  <course>247.13</course>
  <speed>0.022360679774997897</speed>
  <fix>3d</fix>
</trkpt>
<trkpt lat="40.0713749" lon="-105.229789">
  <ele>1583.0</ele>
  <time>2026-08-28T17:48:33Z</time>
  <course>0.0</course>
  <speed>0.0</speed>
  <fix>3d</fix>
</trkpt>
<trkpt lat="40.0713751" lon="-105.2297889">
  <ele>1583.1</ele>
  <time>2026-08-28T17:48:33Z</time>
  <course>247.13</course>
  <speed>0.022360679774997897</speed>
  <fix>3d</fix>
</trkpt>
<trkpt lat="40.0713749" lon="-105.229789">
  <ele>1583.0</ele>
  <time>2026-08-28T17:48:33Z</time>
  <course>0.0</course>
  <speed>0.0</speed>
  <fix>3d</fix>
</trkpt>
<trkpt lat="40.0713751" lon="-105.2297889">
  <ele>1583.1</ele>
  <time>2026-08-28T17:48:33Z</time>
  <course>247.13</course>
  <speed>0.022360679774997897</speed>
  <fix>3d</fix>
</trkpt>
<trkpt lat="40.0713749" lon="-105.229789">
  <ele>1583.0</ele>
  <time>2026-08-28T17:48:33Z</time>
  <course>0.0</course>
  <speed>0.0</speed>
  <fix>3d</fix>
</trkpt>
<trkpt lat="40.0713751" lon="-105.2297889">
  <ele>1583.1</ele>
  <time>2026-08-28T17:48:33Z</time>
  <course>247.13</course>
  <speed>0.022360679774997897</speed>
  <fix>3d</fix>
</trkpt>
<trkpt lat="40.0713749" lon="-105.229789">
  <ele>1583.0</ele>
  <time>2026-08-28T17:48:33Z</time>
  <course>0.0</course>
  <speed>0.0</speed>
  <fix>3d</fix>
</trkpt>
<trkpt lat="40.0713751" lon="-105.2297889">
  <ele>1583.1</ele>
  <time>2026-08-28T17:48:33Z</time>
  <course>247.13</course>
  <speed>0.022360679774997897</speed>
  <fix>3d</fix>
</trkpt>
<trkpt lat="40.0713749" lon="-105.229789">
  <ele>1583.0</ele>
  <time>2026-08-28T17:48:33Z</time>
  <course>0.0</course>
  <speed>0.0</speed>
  <fix>3d</fix>
</trkpt>
<trkpt lat="40.0713751" lon="-105.2297889">
  <ele>1583.09</ele>
  <time>2026-08-28T17:48:33Z</time>
  <course>247.13</course>
  <speed>0.022360679774997897</speed>
  <fix>3d</fix>
</trkpt>
<trkpt lat="40.0713749" lon="-105.229789">
  <ele>1583.0</ele>
  <time>2026-08-28T17:48:33Z</time>
  <course>0.0</course>
  <speed>0.0</speed>
  <fix>3d</fix>
</trkpt>
<trkpt lat="40.0713751" lon="-105.2297889">
  <ele>1583.09</ele>
  <time>2026-08-28T17:48:33Z</time>
  <course>247.13</course>
  <speed>0.022360679774997897</speed>
  <fix>3d</fix>
</trkpt>
<trkpt lat="40.0713749" lon="-105.229789">
  <ele>1583.0</ele>
  <time>2026-08-28T17:48:33Z</time>
  <course>0.0</course>
  <speed>0.0</speed>
  <fix>3d</fix>
</trkpt>
<trkpt lat="40.0713751" lon="-105.2297889">
  <ele>1583.09</ele>
  <time>2026-08-28T17:48:33Z</time>
  <course>247.13</course>
  <speed>0.022360679774997897</speed>
  <fix>3d</fix>
</trkpt>
<trkpt lat="40.0713749" lon="-105.229789">
  <ele>1583.0</ele>
  <time>2026-08-28T17:48:33Z</time>
  <course>0.0</course>
  <speed>0.0</speed>
  <fix>3d</fix>
</trkpt>
<trkpt lat="40.0713751" lon="-105.2297889">
  <ele>1583.09</ele>
  <time>2026-08-28T17:48:33Z</time>
  <course>247.13</course>
  <speed>0.022360679774997897</speed>
  <fix>3d</fix>
</trkpt>
<trkpt lat="40.0713749" lon="-105.229789">
  <ele>1583.0</ele>
  <time>2026-08-28T17:48:33Z</time>
  <course>0.0</course>
  <speed>0.0</speed>
  <fix>3d</fix>
</trkpt>
<trkpt lat="40.0713751" lon="-105.2297889">
  <ele>1583.09</ele>
  <time>2026-08-28T17:48:33Z</time>
  <course>247.13</course>
  <speed>0.022360679774997897</speed>
  <fix>3d</fix>
</trkpt>
<trkpt lat="40.0713749" lon="-105.229789">
  <ele>1583.0</ele>
  <time>2026-08-28T17:48:33Z</time>
  <course>0.0</course>
  <speed>0.0</speed>
  <fix>3d</fix>
</trkpt>
<trkpt lat="40.0713751" lon="-105.2297889">
  <ele>1583.09</ele>
  <time>2026-08-28T17:48:33Z</time>
  <course>247.13</course>
  <speed>0.022360679774997897</speed>
  <fix>3d</fix>
</trkpt>
<trkpt lat="40.0713749" lon="-105.229789">
  <ele>1583.0</ele>
  <time>2026-08-28T17:48:33Z</time>
  <course>0.0</course>
  <speed>0.0</speed>
  <fix>3d</fix>
</trkpt>
<trkpt lat="40.0713751" lon="-105.2297889">
  <ele>1583.09</ele>
  <time>2026-08-28T17:48:33Z</time>
  <course>247.13</course>
  <speed>0.022360679774997897</speed>
  <fix>3d</fix>
</trkpt>
<trkpt lat="40.0713749" lon="-105.229789">
  <ele>1583.0</ele>
  <time>2026-08-28T17:48:33Z</time>
  <course>0.0</course>
  <speed>0.0</speed>
  <fix>3d</fix>
</trkpt>
<trkpt lat="40.0713751" lon="-105.2297889">
  <ele>1583.09</ele>
  <time>2026-08-28T17:48:33Z</time>
  <course>247.13</course>
  <speed>0.022360679774997897</speed>
  <fix>3d</fix>
</trkpt>
<trkpt lat="40.0713749" lon="-105.229789">
  <ele>1583.0</ele>
  <time>2026-08-28T17:48:33Z</time>
  <course>0.0</course>
  <speed>0.0</speed>
  <fix>3d</fix>
</trkpt>
<trkpt lat="40.0713751" lon="-105.2297889">
  <ele>1583.09</ele>
  <time>2026-08-28T17:48:33Z</time>
  <course>247.13</course>
  <speed>0.022360679774997897</speed>
  <fix>3d</fix>
</trkpt>
<trkpt lat="40.0713749" lon="-105.229789">
  <ele>1583.0</ele>
  <time>2026-08-28T17:48:33Z</time>
  <course>0.0</course>
  <speed>0.0</speed>
  <fix>3d</fix>
</trkpt>
<trkpt lat="40.0713751" lon="-105.2297889">
  <ele>1583.09</ele>
  <time>2026-08-28T17:48:33Z</time>
  <course>247.13</course>
  <speed>0.022360679774997897</speed>
  <fix>3d</fix>
</trkpt>
<trkpt lat="40.0713749" lon="-105.229789">
  <ele>1583.0</ele>
  <time>2026-08-28T17:48:33Z</time>
  <course>0.0</course>
  <speed>0.0</speed>
  <fix>3d</fix>
</trkpt>
<trkpt lat="40.0713751" lon="-105.2297889">
  <ele>1583.09</ele>
  <time>2026-08-28T17:48:33Z</time>
  <course>247.13</course>
  <speed>0.022360679774997897</speed>
  <fix>3d</fix>
</trkpt>
<trkpt lat="40.0713749" lon="-105.229789">
  <ele>1583.0</ele>
  <time>2026-08-28T17:48:33Z</time>
  <course>0.0</course>
  <speed>0.0</speed>
  <fix>3d</fix>
</trkpt>
<trkpt lat="40.0713751" lon="-105.2297889">
  <ele>1583.09</ele>
  <time>2026-08-28T17:48:33Z</time>
  <course>247.13</course>
  <speed>0.022360679774997897</speed>
  <fix>3d</fix>
</trkpt>
<trkpt lat="40.0713749" lon="-105.229789">
  <ele>1583.0</ele>
  <time>2026-08-28T17:48:33Z</time>
  <course>0.0</course>
  <speed>0.0</speed>
  <fix>3d</fix>
</trkpt>
<trkpt lat="40.0713751" lon="-105.2297889">
  <ele>1583.09</ele>
  <time>2026-08-28T17:48:33Z</time>
  <course>247.13</course>
  <speed>0.022360679774997897</speed>
  <fix>3d</fix>
</trkpt>
<trkpt lat="40.0713749" lon="-105.229789">
  <ele>1583.0</ele>
  <time>2026-08-28T17:48:33Z</time>
  <course>0.0</course>
  <speed>0.0</speed>
  <fix>3d</fix>
</trkpt>
<trkpt lat="40.0713751" lon="-105.2297889">
  <ele>1583.09</ele>
  <time>2026-08-28T17:48:33Z</time>
  <course>247.13</course>
  <speed>0.022360679774997897</speed>
  <fix>3d</fix>
</trkpt>
<trkpt lat="40.0713749" lon="-105.229789">
  <ele>1583.0</ele>
  <time>2026-08-28T17:48:33Z</time>
  <course>0.0</course>
  <speed>0.0</speed>
  <fix>3d</fix>
</trkpt>
<trkpt lat="40.0713751" lon="-105.2297889">
  <ele>1583.08</ele>
  <time>2026-08-28T17:48:33Z</time>
  <course>247.13</course>
  <speed>0.022360679774997897</speed>
  <fix>3d</fix>
</trkpt>
<trkpt lat="40.0713749" lon="-105.229789">
  <ele>1583.0</ele>
  <time>2026-08-28T17:48:33Z</time>
  <course>0.0</course>
  <speed>0.0</speed>
  <fix>3d</fix>
</trkpt>
<trkpt lat="40.0713751" lon="-105.2297889">
  <ele>1583.08</ele>
  <time>2026-08-28T17:48:33Z</time>
  <course>247.13</course>
  <speed>0.022360679774997897</speed>
  <fix>3d</fix>
</trkpt>
<trkpt lat="40.0713749" lon="-105.229789">
  <ele>1583.0</ele>
  <time>2026-08-28T17:48:33Z</time>
  <course>0.0</course>
  <speed>0.0</speed>
  <fix>3d</fix>
</trkpt>
<trkpt lat="40.0713751" lon="-105.2297889">
  <ele>1583.08</ele>
  <time>2026-08-28T17:48:33Z</time>
  <course>247.13</course>
  <speed>0.022360679774997897</speed>
  <fix>3d</fix>
</trkpt>
<trkpt lat="40.0713749" lon="-105.229789">
  <ele>1583.0</ele>
  <time>2026-08-28T17:48:33Z</time>
  <course>0.0</course>
  <speed>0.0</speed>
  <fix>3d</fix>
</trkpt>
<trkpt lat="40.0713751" lon="-105.2297889">
  <ele>1583.08</ele>
  <time>2026-08-28T17:48:33Z</time>
  <course>247.13</course>
  <speed>0.022360679774997897</speed>
  <fix>3d</fix>
</trkpt>
<trkpt lat="40.0713749" lon="-105.229789">
  <ele>1583.0</ele>
  <time>2026-08-28T17:48:33Z</time>
  <course>0.0</course>
  <speed>0.0</speed>
  <fix>3d</fix>
</trkpt>
<trkpt lat="40.0713751" lon="-105.2297889">
  <ele>1583.08</ele>
  <time>2026-08-28T17:48:33Z</time>
  <course>247.13</course>
  <speed>0.022360679774997897</speed>
  <fix>3d</fix>
</trkpt>
<trkpt lat="40.0713749" lon="-105.229789">
  <ele>1583.0</ele>
  <time>2026-08-28T17:48:33Z</time>
  <course>0.0</course>
  <speed>0.0</speed>
  <fix>3d</fix>
</trkpt>
<trkpt lat="40.0713751" lon="-105.2297889">
  <ele>1583.08</ele>
  <time>2026-08-28T17:48:33Z</time>
  <course>247.13</course>
  <speed>0.022360679774997897</speed>
  <fix>3d</fix>
</trkpt>
<trkpt lat="40.0713749" lon="-105.229789">
  <ele>1583.0</ele>
  <time>2026-08-28T17:48:33Z</time>
  <course>0.0</course>
  <speed>0.0</speed>
  <fix>3d</fix>
</trkpt>
<trkpt lat="40.0713751" lon="-105.2297889">
  <ele>1583.08</ele>
  <time>2026-08-28T17:48:33Z</time>
  <course>247.13</course>
  <speed>0.022360679774997897</speed>
  <fix>3d</fix>
</trkpt>
<trkpt lat="40.0713749" lon="-105.229789">
  <ele>1583.0</ele>
  <time>2026-08-28T17:48:33Z</time>
  <course>0.0</course>
  <speed>0.0</speed>
  <fix>3d</fix>
</trkpt>
<trkpt lat="40.0713751" lon="-105.2297889">
  <ele>1583.08</ele>
  <time>2026-08-28T17:48:33Z</time>
  <course>247.13</course>
  <speed>0.022360679774997897</speed>
  <fix>3d</fix>
</trkpt>
<trkpt lat="40.0713749" lon="-105.229789">
  <ele>1583.0</ele>
  <time>2026-08-28T17:48:33Z</time>
  <course>0.0</course>
  <speed>0.0</speed>
  <fix>3d</fix>
</trkpt>
<trkpt lat="40.0713751" lon="-105.2297889">
  <ele>1583.08</ele>
  <time>2026-08-28T17:48:33Z</time>
  <course>247.13</course>
  <speed>0.022360679774997897</speed>
  <fix>3d</fix>
</trkpt>
<trkpt lat="40.0713749" lon="-105.229789">
  <ele>1583.0</ele>
  <time>2026-08-28T17:48:33Z</time>
  <course>0.0</course>
  <speed>0.0</speed>
  <fix>3d</fix>
</trkpt>
<trkpt lat="40.0713751" lon="-105.2297889">
  <ele>1583.08</ele>
  <time>2026-08-28T17:48:33Z</time>
  <course>247.13</course>
  <speed>0.022360679774997897</speed>
  <fix>3d</fix>
</trkpt>
<trkpt lat="40.0713749" lon="-105.229789">
  <ele>1583.0</ele>
  <time>2026-08-28T17:48:33Z</time>
  <course>0.0</course>
  <speed>0.0</speed>
  <fix>3d</fix>
</trkpt>
<trkpt lat="40.0713751" lon="-105.2297889">
  <ele>1583.08</ele>
  <time>2026-08-28T17:48:33Z</time>
  <course>247.13</course>
  <speed>0.022360679774997897</speed>
  <fix>3d</fix>
</trkpt>
<trkpt lat="40.0713749" lon="-105.229789">
  <ele>1583.0</ele>
  <time>2026-08-28T17:48:33Z</time>
  <course>0.0</course>
  <speed>0.0</speed>
  <fix>3d</fix>
</trkpt>
<trkpt lat="40.0713751" lon="-105.2297889">
  <ele>1583.08</ele>
  <time>2026-08-28T17:48:33Z</time>
  <course>247.13</course>
  <speed>0.022360679774997897</speed>
  <fix>3d</fix>
</trkpt>
<trkpt lat="40.0713749" lon="-105.229789">
  <ele>1583.0</ele>
  <time>2026-08-28T17:48:33Z</time>
  <course>0.0</course>
  <speed>0.0</speed>
  <fix>3d</fix>
</trkpt>
<trkpt lat="40.0713751" lon="-105.2297889">
  <ele>1583.07</ele>
  <time>2026-08-28T17:48:33Z</time>
  <course>247.13</course>
  <speed>0.022360679774997897</speed>
  <fix>3d</fix>
</trkpt>
<trkpt lat="40.0713749" lon="-105.229789">
  <ele>1583.0</ele>
  <time>2026-08-28T17:48:33Z</time>
  <course>0.0</course>
  <speed>0.0</speed>
  <fix>3d</fix>
</trkpt>
<trkpt lat="40.0713751" lon="-105.2297889">
  <ele>1583.07</ele>
  <time>2026-08-28T17:48:33Z</time>
  <course>247.13</course>
  <speed>0.022360679774997897</speed>
  <fix>3d</fix>
</trkpt>
<trkpt lat="40.0713749" lon="-105.229789">
  <ele>1583.0</ele>
  <time>2026-08-28T17:48:33Z</time>
  <course>0.0</course>
  <speed>0.0</speed>
  <fix>3d</fix>
</trkpt>
<trkpt lat="40.0713751" lon="-105.2297889">
  <ele>1583.07</ele>
  <time>2026-08-28T17:48:33Z</time>
  <course>247.13</course>
  <speed>0.022360679774997897</speed>
  <fix>3d</fix>
</trkpt>
<trkpt lat="40.0713749" lon="-105.229789">
  <ele>1583.0</ele>
  <time>2026-08-28T17:48:33Z</time>
  <course>0.0</course>
  <speed>0.0</speed>
  <fix>3d</fix>
</trkpt>
<trkpt lat="40.0713751" lon="-105.2297889">
  <ele>1583.06</ele>
  <time>2026-08-28T17:48:33Z</time>
  <course>247.13</course>
  <speed>0.022360679774997897</speed>
  <fix>3d</fix>
</trkpt>
<trkpt lat="40.0713749" lon="-105.229789">
  <ele>1583.0</ele>
  <time>2026-08-28T17:48:33Z</time>
  <course>0.0</course>
  <speed>0.0</speed>
  <fix>3d</fix>
</trkpt>
<trkpt lat="40.0713751" lon="-105.2297889">
  <ele>1583.06</ele>
  <time>2026-08-28T17:48:33Z</time>
  <course>247.13</course>
  <speed>0.022360679774997897</speed>
  <fix>3d</fix>
</trkpt>
<trkpt lat="40.0713749" lon="-105.229789">
  <ele>1583.0</ele>
  <time>2026-08-28T17:48:33Z</time>
  <course>0.0</course>
  <speed>0.0</speed>
  <fix>3d</fix>
</trkpt>
<trkpt lat="40.0713751" lon="-105.2297889">
  <ele>1583.06</ele>
  <time>2026-08-28T17:48:33Z</time>
  <course>247.13</course>
  <speed>0.022360679774997897</speed>
  <fix>3d</fix>
</trkpt>
<trkpt lat="40.0713749" lon="-105.229789">
  <ele>1583.0</ele>
  <time>2026-08-28T17:48:33Z</time>
  <course>0.0</course>
  <speed>0.0</speed>
  <fix>3d</fix>
</trkpt>
<trkpt lat="40.0713751" lon="-105.2297889">
  <ele>1583.06</ele>
  <time>2026-08-28T17:48:33Z</time>
  <course>247.13</course>
  <speed>0.022360679774997897</speed>
  <fix>3d</fix>
</trkpt>
<trkpt lat="40.0713749" lon="-105.229789">
  <ele>1583.0</ele>
  <time>2026-08-28T17:48:33Z</time>
  <course>0.0</course>
  <speed>0.0</speed>
  <fix>3d</fix>
</trkpt>
<trkpt lat="40.0713751" lon="-105.2297889">
  <ele>1583.06</ele>
  <time>2026-08-28T17:48:33Z</time>
  <course>247.13</course>
  <speed>0.022360679774997897</speed>
  <fix>3d</fix>
</trkpt>
<trkpt lat="40.0713749" lon="-105.229789">
  <ele>1583.0</ele>
  <time>2026-08-28T17:48:33Z</time>
  <course>0.0</course>
  <speed>0.0</speed>
  <fix>3d</fix>
</trkpt>
<trkpt lat="40.0713751" lon="-105.2297889">
  <ele>1583.06</ele>
  <time>2026-08-28T17:48:33Z</time>
  <course>247.13</course>
  <speed>0.022360679774997897</speed>
  <fix>3d</fix>
</trkpt>
<trkpt lat="40.0713749" lon="-105.229789">
  <ele>1583.0</ele>
  <time>2026-08-28T17:48:33Z</time>
  <course>0.0</course>
  <speed>0.0</speed>
  <fix>3d</fix>
</trkpt>
<trkpt lat="40.0713751" lon="-105.2297889">
  <ele>1583.06</ele>
  <time>2026-08-28T17:48:33Z</time>
  <course>247.13</course>
  <speed>0.022360679774997897</speed>
  <fix>3d</fix>
</trkpt>
<trkpt lat="40.0713749" lon="-105.229789">
  <ele>1583.0</ele>
  <time>2026-08-28T17:48:33Z</time>
  <course>0.0</course>
  <speed>0.0</speed>
  <fix>3d</fix>
</trkpt>
<trkpt lat="40.0713751" lon="-105.2297889">
  <ele>1583.06</ele>
  <time>2026-08-28T17:48:33Z</time>
  <course>247.13</course>
  <speed>0.022360679774997897</speed>
  <fix>3d</fix>
</trkpt>
<trkpt lat="40.0713749" lon="-105.229789">
  <ele>1583.0</ele>
  <time>2026-08-28T17:48:33Z</time>
  <course>0.0</course>
  <speed>0.0</speed>
  <fix>3d</fix>
</trkpt>
<trkpt lat="40.0713751" lon="-105.2297889">
  <ele>1583.06</ele>
  <time>2026-08-28T17:48:33Z</time>
  <course>247.13</course>
  <speed>0.022360679774997897</speed>
  <fix>3d</fix>
</trkpt>
<trkpt lat="40.0713749" lon="-105.229789">
  <ele>1583.0</ele>
  <time>2026-08-28T17:48:33Z</time>
  <course>0.0</course>
  <speed>0.0</speed>
  <fix>3d</fix>
</trkpt>
<trkpt lat="40.0713751" lon="-105.2297889">
  <ele>1583.06</ele>
  <time>2026-08-28T17:48:33Z</time>
  <course>247.13</course>
  <speed>0.022360679774997897</speed>
  <fix>3d</fix>
</trkpt>
<trkpt lat="40.0713749" lon="-105.229789">
  <ele>1583.0</ele>
  <time>2026-08-28T17:48:33Z</time>
  <course>0.0</course>
  <speed>0.0</speed>
  <fix>3d</fix>
</trkpt>
<trkpt lat="40.0713751" lon="-105.2297889">
  <ele>1583.06</ele>
  <time>2026-08-28T17:48:33Z</time>
  <course>247.13</course>
  <speed>0.022360679774997897</speed>
  <fix>3d</fix>
</trkpt>
<trkpt lat="40.0713749" lon="-105.229789">
  <ele>1583.0</ele>
  <time>2026-08-28T17:48:33Z</time>
  <course>0.0</course>
  <speed>0.0</speed>
  <fix>3d</fix>
</trkpt>
<trkpt lat="40.0713751" lon="-105.2297889">
  <ele>1583.06</ele>
  <time>2026-08-28T17:48:33Z</time>
  <course>247.13</course>
  <speed>0.022360679774997897</speed>
  <fix>3d</fix>
</trkpt>
<trkpt lat="40.0713749" lon="-105.229789">
  <ele>1583.0</ele>
  <time>2026-08-28T17:48:33Z</time>
  <course>0.0</course>
  <speed>0.0</speed>
  <fix>3d</fix>
</trkpt>
<trkpt lat="40.0713751" lon="-105.2297889">
  <ele>1583.07</ele>
  <time>2026-08-28T17:48:33Z</time>
  <course>247.13</course>
  <speed>0.022360679774997897</speed>
  <fix>3d</fix>
</trkpt>
<trkpt lat="40.0713749" lon="-105.229789">
  <ele>1583.0</ele>
  <time>2026-08-28T17:48:33Z</time>
  <course>0.0</course>
  <speed>0.0</speed>
  <fix>3d</fix>
</trkpt>
<trkpt lat="40.0713751" lon="-105.2297889">
  <ele>1583.07</ele>
  <time>2026-08-28T17:48:33Z</time>
  <course>247.13</course>
  <speed>0.022360679774997897</speed>
  <fix>3d</fix>
</trkpt>
<trkpt lat="40.0713749" lon="-105.229789">
  <ele>1583.0</ele>
  <time>2026-08-28T17:48:33Z</time>
  <course>0.0</course>
  <speed>0.0</speed>
  <fix>3d</fix>
</trkpt>
<trkpt lat="40.0713751" lon="-105.2297889">
  <ele>1583.07</ele>
  <time>2026-08-28T17:48:33Z</time>
  <course>247.13</course>
  <speed>0.022360679774997897</speed>
  <fix>3d</fix>
</trkpt>
<trkpt lat="40.0713749" lon="-105.229789">
  <ele>1583.0</ele>
  <time>2026-08-28T17:48:33Z</time>
  <course>0.0</course>
  <speed>0.0</speed>
  <fix>3d</fix>
</trkpt>
<trkpt lat="40.0713751" lon="-105.2297889">
  <ele>1583.06</ele>
  <time>2026-08-28T17:48:33Z</time>
  <course>247.13</course>
  <speed>0.022360679774997897</speed>
  <fix>3d</fix>
</trkpt>
<trkpt lat="40.0713749" lon="-105.229789">
  <ele>1583.0</ele>
  <time>2026-08-28T17:48:33Z</time>
  <course>0.0</course>
  <speed>0.0</speed>
  <fix>3d</fix>
</trkpt>
<trkpt lat="40.0713751" lon="-105.2297889">
  <ele>1583.06</ele>
  <time>2026-08-28T17:48:33Z</time>
  <course>247.13</course>
  <speed>0.022360679774997897</speed>
  <fix>3d</fix>
</trkpt>
<trkpt lat="40.0713749" lon="-105.229789">
  <ele>1583.0</ele>
  <time>2026-08-28T17:48:33Z</time>
  <course>0.0</course>
  <speed>0.0</speed>
  <fix>3d</fix>
</trkpt>
<trkpt lat="40.0713751" lon="-105.2297889">
  <ele>1583.06</ele>
  <time>2026-08-28T17:48:33Z</time>
  <course>247.13</course>
  <speed>0.022360679774997897</speed>
  <fix>3d</fix>
</trkpt>
<trkpt lat="40.0713749" lon="-105.229789">
  <ele>1583.0</ele>
  <time>2026-08-28T17:48:33Z</time>
  <course>0.0</course>
  <speed>0.0</speed>
  <fix>3d</fix>
</trkpt>
<trkpt lat="40.0713751" lon="-105.2297889">
  <ele>1583.06</ele>
  <time>2026-08-28T17:48:33Z</time>
  <course>247.13</course>
  <speed>0.022360679774997897</speed>
  <fix>3d</fix>
</trkpt>
<trkpt lat="40.0713749" lon="-105.229789">
  <ele>1583.0</ele>
  <time>2026-08-28T17:48:33Z</time>
  <course>0.0</course>
  <speed>0.0</speed>
  <fix>3d</fix>
</trkpt>
<trkpt lat="40.0713751" lon="-105.2297889">
  <ele>1583.06</ele>
  <time>2026-08-28T17:48:33Z</time>
  <course>247.13</course>
  <speed>0.022360679774997897</speed>
  <fix>3d</fix>
</trkpt>
<trkpt lat="40.0713749" lon="-105.229789">
  <ele>1583.0</ele>
  <time>2026-08-28T17:48:33Z</time>
  <course>0.0</course>
  <speed>0.0</speed>
  <fix>3d</fix>
</trkpt>
<trkpt lat="40.0713751" lon="-105.2297889">
  <ele>1583.06</ele>
  <time>2026-08-28T17:48:33Z</time>
  <course>247.13</course>
  <speed>0.022360679774997897</speed>
  <fix>3d</fix>
</trkpt>
<trkpt lat="40.0713749" lon="-105.229789">
  <ele>1583.0</ele>
  <time>2026-08-28T17:48:33Z</time>
  <course>0.0</course>
  <speed>0.0</speed>
  <fix>3d</fix>
</trkpt>
<trkpt lat="40.0713751" lon="-105.2297889">
  <ele>1583.06</ele>
  <time>2026-08-28T17:48:33Z</time>
  <course>247.13</course>
  <speed>0.022360679774997897</speed>
  <fix>3d</fix>
</trkpt>
<trkpt lat="40.0713749" lon="-105.229789">
  <ele>1583.0</ele>
  <time>2026-08-28T17:48:33Z</time>
  <course>0.0</course>
  <speed>0.0</speed>
  <fix>3d</fix>
</trkpt>
<trkpt lat="40.0713751" lon="-105.2297889">
  <ele>1583.06</ele>
  <time>2026-08-28T17:48:33Z</time>
  <course>247.13</course>
  <speed>0.022360679774997897</speed>
  <fix>3d</fix>
</trkpt>
<trkpt lat="40.0713749" lon="-105.229789">
  <ele>1583.0</ele>
  <time>2026-08-28T17:48:33Z</time>
  <course>0.0</course>
  <speed>0.0</speed>
  <fix>3d</fix>
</trkpt>
<trkpt lat="40.0713751" lon="-105.2297889">
  <ele>1583.06</ele>
  <time>2026-08-28T17:48:33Z</time>
  <course>247.13</course>
  <speed>0.022360679774997897</speed>
  <fix>3d</fix>
</trkpt>
<trkpt lat="40.0713749" lon="-105.229789">
  <ele>1583.0</ele>
  <time>2026-08-28T17:48:33Z</time>
  <course>0.0</course>
  <speed>0.0</speed>
  <fix>3d</fix>
</trkpt>
<trkpt lat="40.0713751" lon="-105.2297889">
  <ele>1583.06</ele>
  <time>2026-08-28T17:48:33Z</time>
  <course>247.13</course>
  <speed>0.022360679774997897</speed>
  <fix>3d</fix>
</trkpt>
<trkpt lat="40.0713749" lon="-105.229789">
  <ele>1583.0</ele>
  <time>2026-08-28T17:48:33Z</time>
  <course>0.0</course>
  <speed>0.0</speed>
  <fix>3d</fix>
</trkpt>
<trkpt lat="40.0713751" lon="-105.2297889">
  <ele>1583.07</ele>
  <time>2026-08-28T17:48:33Z</time>
  <course>247.13</course>
  <speed>0.022360679774997897</speed>
  <fix>3d</fix>
</trkpt>
<trkpt lat="40.0713749" lon="-105.229789">
  <ele>1583.0</ele>
  <time>2026-08-28T17:48:33Z</time>
  <course>0.0</course>
  <speed>0.0</speed>
  <fix>3d</fix>
</trkpt>
<trkpt lat="40.0713751" lon="-105.2297889">
  <ele>1583.07</ele>
  <time>2026-08-28T17:48:33Z</time>
  <course>247.13</course>
  <speed>0.022360679774997897</speed>
  <fix>3d</fix>
</trkpt>
<trkpt lat="40.0713749" lon="-105.229789">
  <ele>1583.0</ele>
  <time>2026-08-28T17:48:33Z</time>
  <course>0.0</course>
  <speed>0.0</speed>
  <fix>3d</fix>
</trkpt>
<trkpt lat="40.0713751" lon="-105.2297889">
  <ele>1583.08</ele>
  <time>2026-08-28T17:48:33Z</time>
  <course>247.13</course>
  <speed>0.022360679774997897</speed>
  <fix>3d</fix>
</trkpt>
<trkpt lat="40.0713749" lon="-105.229789">
  <ele>1583.0</ele>
  <time>2026-08-28T17:48:33Z</time>
  <course>0.0</course>
  <speed>0.0</speed>
  <fix>3d</fix>
</trkpt>
<trkpt lat="40.0713751" lon="-105.2297889">
  <ele>1583.08</ele>
  <time>2026-08-28T17:48:33Z</time>
  <course>247.13</course>
  <speed>0.022360679774997897</speed>
  <fix>3d</fix>
</trkpt>
<trkpt lat="40.0713749" lon="-105.229789">
  <ele>1583.0</ele>
  <time>2026-08-28T17:48:33Z</time>
  <course>0.0</course>
  <speed>0.0</speed>
  <fix>3d</fix>
</trkpt>
<trkpt lat="40.0713751" lon="-105.2297889">
  <ele>1583.08</ele>
  <time>2026-08-28T17:48:33Z</time>
  <course>247.13</course>
  <speed>0.022360679774997897</speed>
  <fix>3d</fix>
</trkpt>
<trkpt lat="40.0713749" lon="-105.229789">
  <ele>1583.0</ele>
  <time>2026-08-28T17:48:33Z</time>
  <course>0.0</course>
  <speed>0.0</speed>
  <fix>3d</fix>
</trkpt>
<trkpt lat="40.0713751" lon="-105.2297889">
  <ele>1583.08</ele>
  <time>2026-08-28T17:48:33Z</time>
  <course>247.13</course>
  <speed>0.022360679774997897</speed>
  <fix>3d</fix>
</trkpt>
<trkpt lat="40.0713749" lon="-105.229789">
  <ele>1583.0</ele>
  <time>2026-08-28T17:48:33Z</time>
  <course>0.0</course>
  <speed>0.0</speed>
  <fix>3d</fix>
</trkpt>
<trkpt lat="40.0713751" lon="-105.2297889">
  <ele>1583.08</ele>
  <time>2026-08-28T17:48:33Z</time>
  <course>247.13</course>
  <speed>0.022360679774997897</speed>
  <fix>3d</fix>
</trkpt>
<trkpt lat="40.0713749" lon="-105.229789">
  <ele>1583.0</ele>
  <time>2026-08-28T17:48:33Z</time>
  <course>0.0</course>
  <speed>0.0</speed>
  <fix>3d</fix>
</trkpt>
<trkpt lat="40.0713751" lon="-105.2297889">
  <ele>1583.08</ele>
  <time>2026-08-28T17:48:33Z</time>
  <course>247.13</course>
  <speed>0.022360679774997897</speed>
  <fix>3d</fix>
</trkpt>
<trkpt lat="40.0713749" lon="-105.229789">
  <ele>1583.0</ele>
  <time>2026-08-28T17:48:33Z</time>
  <course>0.0</course>
  <speed>0.0</speed>
  <fix>3d</fix>
</trkpt>
<trkpt lat="40.0713751" lon="-105.2297889">
  <ele>1583.08</ele>
  <time>2026-08-28T17:48:33Z</time>
  <course>247.13</course>
  <speed>0.022360679774997897</speed>
  <fix>3d</fix>
</trkpt>
<trkpt lat="40.0713749" lon="-105.229789">
  <ele>1583.0</ele>
  <time>2026-08-28T17:48:33Z</time>
  <course>0.0</course>
  <speed>0.0</speed>
  <fix>3d</fix>
</trkpt>
<trkpt lat="40.0713751" lon="-105.2297889">
  <ele>1583.08</ele>
  <time>2026-08-28T17:48:33Z</time>
  <course>247.13</course>
  <speed>0.022360679774997897</speed>
  <fix>3d</fix>
</trkpt>
<trkpt lat="40.0713749" lon="-105.229789">
  <ele>1583.0</ele>
  <time>2026-08-28T17:48:33Z</time>
  <course>0.0</course>
  <speed>0.0</speed>
  <fix>3d</fix>
</trkpt>
<trkpt lat="40.0713751" lon="-105.2297889">
  <ele>1583.08</ele>
  <time>2026-08-28T17:48:33Z</time>
  <course>247.13</course>
  <speed>0.022360679774997897</speed>
  <fix>3d</fix>
</trkpt>
<trkpt lat="40.0713749" lon="-105.229789">
  <ele>1583.0</ele>
  <time>2026-08-28T17:48:33Z</time>
  <course>0.0</course>
  <speed>0.0</speed>
  <fix>3d</fix>
</trkpt>
<trkpt lat="40.0713751" lon="-105.2297889">
  <ele>1583.09</ele>
  <time>2026-08-28T17:48:33Z</time>
  <course>247.13</course>
  <speed>0.022360679774997897</speed>
  <fix>3d</fix>
</trkpt>
<trkpt lat="40.0713749" lon="-105.229789">
  <ele>1583.0</ele>
  <time>2026-08-28T17:48:33Z</time>
  <course>0.0</course>
  <speed>0.0</speed>
  <fix>3d</fix>
</trkpt>
<trkpt lat="40.0713751" lon="-105.2297889">
  <ele>1583.09</ele>
  <time>2026-08-28T17:48:33Z</time>
  <course>247.13</course>
  <speed>0.022360679774997897</speed>
  <fix>3d</fix>
</trkpt>
<trkpt lat="40.0713749" lon="-105.229789">
  <ele>1583.0</ele>
  <time>2026-08-28T17:48:33Z</time>
  <course>0.0</course>
  <speed>0.0</speed>
  <fix>3d</fix>
</trkpt>
<trkpt lat="40.0713751" lon="-105.2297889">
  <ele>1583.09</ele>
  <time>2026-08-28T17:48:33Z</time>
  <course>247.13</course>
  <speed>0.022360679774997897</speed>
  <fix>3d</fix>
</trkpt>
<trkpt lat="40.0713749" lon="-105.229789">
  <ele>1583.0</ele>
  <time>2026-08-28T17:48:33Z</time>
  <course>0.0</course>
  <speed>0.0</speed>
  <fix>3d</fix>
</trkpt>
<trkpt lat="40.0713751" lon="-105.2297889">
  <ele>1583.09</ele>
  <time>2026-08-28T17:48:33Z</time>
  <course>247.13</course>
  <speed>0.022360679774997897</speed>
  <fix>3d</fix>
</trkpt>
<trkpt lat="40.0713749" lon="-105.229789">
  <ele>1583.0</ele>
  <time>2026-08-28T17:48:33Z</time>
  <course>0.0</course>
  <speed>0.0</speed>
  <fix>3d</fix>
</trkpt>
<trkpt lat="40.0713751" lon="-105.2297889">
  <ele>1583.1</ele>
  <time>2026-08-28T17:48:33Z</time>
  <course>247.13</course>
  <speed>0.022360679774997897</speed>
  <fix>3d</fix>
</trkpt>
<trkpt lat="40.0713749" lon="-105.229789">
  <ele>1583.0</ele>
  <time>2026-08-28T17:48:33Z</time>
  <course>0.0</course>
  <speed>0.0</speed>
  <fix>3d</fix>
</trkpt>
<trkpt lat="40.0713751" lon="-105.2297889">
  <ele>1583.1</ele>
  <time>2026-08-28T17:48:33Z</time>
  <course>247.13</course>
  <speed>0.022360679774997897</speed>
  <fix>3d</fix>
</trkpt>
<trkpt lat="40.0713749" lon="-105.229789">
  <ele>1583.0</ele>
  <time>2026-08-28T17:48:33Z</time>
  <course>0.0</course>
  <speed>0.0</speed>
  <fix>3d</fix>
</trkpt>
<trkpt lat="40.0713751" lon="-105.2297889">
  <ele>1583.1</ele>
  <time>2026-08-28T17:48:33Z</time>
  <course>247.13</course>
  <speed>0.022360679774997897</speed>
  <fix>3d</fix>
</trkpt>
<trkpt lat="40.0713749" lon="-105.229789">
  <ele>1583.0</ele>
  <time>2026-08-28T17:48:33Z</time>
  <course>0.0</course>
  <speed>0.0</speed>
  <fix>3d</fix>
</trkpt>
<trkpt lat="40.0713751" lon="-105.2297889">
  <ele>1583.1</ele>
  <time>2026-08-28T17:48:33Z</time>
  <course>247.13</course>
  <speed>0.022360679774997897</speed>
  <fix>3d</fix>
</trkpt>
<trkpt lat="40.0713749" lon="-105.229789">
  <ele>1583.0</ele>
  <time>2026-08-28T17:48:33Z</time>
  <course>0.0</course>
  <speed>0.0</speed>
  <fix>3d</fix>
</trkpt>
<trkpt lat="40.0713751" lon="-105.2297889">
  <ele>1583.1</ele>
  <time>2026-08-28T17:48:33Z</time>
  <course>247.13</course>
  <speed>0.022360679774997897</speed>
  <fix>3d</fix>
</trkpt>
<trkpt lat="40.0713749" lon="-105.229789">
  <ele>1583.0</ele>
  <time>2026-08-28T17:48:33Z</time>
  <course>0.0</course>
  <speed>0.0</speed>
  <fix>3d</fix>
</trkpt>
<trkpt lat="40.0713751" lon="-105.2297889">
  <ele>1583.11</ele>
  <time>2026-08-28T17:48:33Z</time>
  <course>247.13</course>
  <speed>0.022360679774997897</speed>
  <fix>3d</fix>
</trkpt>
<trkpt lat="40.0713749" lon="-105.229789">
  <ele>1583.0</ele>
  <time>2026-08-28T17:48:33Z</time>
  <course>0.0</course>
  <speed>0.0</speed>
  <fix>3d</fix>
</trkpt>
<trkpt lat="40.0713751" lon="-105.2297889">
  <ele>1583.11</ele>
  <time>2026-08-28T17:48:33Z</time>
  <course>247.13</course>
  <speed>0.022360679774997897</speed>
  <fix>3d</fix>
</trkpt>
<trkpt lat="40.0713749" lon="-105.229789">
  <ele>1583.0</ele>
  <time>2026-08-28T17:48:33Z</time>
  <course>0.0</course>
  <speed>0.0</speed>
  <fix>3d</fix>
</trkpt>
<trkpt lat="40.0713751" lon="-105.2297889">
  <ele>1583.11</ele>
  <time>2026-08-28T17:48:33Z</time>
  <course>247.13</course>
  <speed>0.022360679774997897</speed>
  <fix>3d</fix>
</trkpt>
<trkpt lat="40.0713749" lon="-105.229789">
  <ele>1583.0</ele>
  <time>2026-08-28T17:48:33Z</time>
  <course>0.0</course>
  <speed>0.0</speed>
  <fix>3d</fix>
</trkpt>
<trkpt lat="40.0713751" lon="-105.2297889">
  <ele>1583.11</ele>
  <time>2026-08-28T17:48:33Z</time>
  <course>247.13</course>
  <speed>0.022360679774997897</speed>
  <fix>3d</fix>
</trkpt>
<trkpt lat="40.0713749" lon="-105.229789">
  <ele>1583.0</ele>
  <time>2026-08-28T17:48:33Z</time>
  <course>0.0</course>
  <speed>0.0</speed>
  <fix>3d</fix>
</trkpt>
<trkpt lat="40.0713751" lon="-105.2297889">
  <ele>1583.11</ele>
  <time>2026-08-28T17:48:33Z</time>
  <course>247.13</course>
  <speed>0.022360679774997897</speed>
  <fix>3d</fix>
</trkpt>
<trkpt lat="40.0713749" lon="-105.229789">
  <ele>1583.0</ele>
  <time>2026-08-28T17:48:33Z</time>
  <course>0.0</course>
  <speed>0.0</speed>
  <fix>3d</fix>
</trkpt>
<trkpt lat="40.0713751" lon="-105.2297889">
  <ele>1583.11</ele>
  <time>2026-08-28T17:48:33Z</time>
  <course>247.13</course>
  <speed>0.022360679774997897</speed>
  <fix>3d</fix>
</trkpt>
<trkpt lat="40.0713749" lon="-105.229789">
  <ele>1583.0</ele>
  <time>2026-08-28T17:48:33Z</time>
  <course>0.0</course>
  <speed>0.0</speed>
  <fix>3d</fix>
</trkpt>
<trkpt lat="40.0713751" lon="-105.2297889">
  <ele>1583.11</ele>
  <time>2026-08-28T17:48:33Z</time>
  <course>247.13</course>
  <speed>0.022360679774997897</speed>
  <fix>3d</fix>
</trkpt>
<trkpt lat="40.0713749" lon="-105.229789">
  <ele>1583.0</ele>
  <time>2026-08-28T17:48:33Z</time>
  <course>0.0</course>
  <speed>0.0</speed>
  <fix>3d</fix>
</trkpt>
<trkpt lat="40.0713751" lon="-105.2297889">
  <ele>1583.11</ele>
  <time>2026-08-28T17:48:33Z</time>
  <course>247.13</course>
  <speed>0.022360679774997897</speed>
  <fix>3d</fix>
</trkpt>
<trkpt lat="40.0713749" lon="-105.229789">
  <ele>1583.0</ele>
  <time>2026-08-28T17:48:33Z</time>
  <course>0.0</course>
  <speed>0.0</speed>
  <fix>3d</fix>
</trkpt>
<trkpt lat="40.0713751" lon="-105.2297889">
  <ele>1583.12</ele>
  <time>2026-08-28T17:48:33Z</time>
  <course>247.13</course>
  <speed>0.022360679774997897</speed>
  <fix>3d</fix>
</trkpt>
<trkpt lat="40.0713749" lon="-105.229789">
  <ele>1583.0</ele>
  <time>2026-08-28T17:48:33Z</time>
  <course>0.0</course>
  <speed>0.0</speed>
  <fix>3d</fix>
</trkpt>
<trkpt lat="40.0713751" lon="-105.2297889">
  <ele>1583.12</ele>
  <time>2026-08-28T17:48:33Z</time>
  <course>247.13</course>
  <speed>0.022360679774997897</speed>
  <fix>3d</fix>
</trkpt>
<trkpt lat="40.0713749" lon="-105.229789">
  <ele>1583.0</ele>
  <time>2026-08-28T17:48:33Z</time>
  <course>0.0</course>
  <speed>0.0</speed>
  <fix>3d</fix>
</trkpt>
<trkpt lat="40.0713751" lon="-105.2297889">
  <ele>1583.12</ele>
  <time>2026-08-28T17:48:33Z</time>
  <course>247.13</course>
  <speed>0.022360679774997897</speed>
  <fix>3d</fix>
</trkpt>
<trkpt lat="40.0713749" lon="-105.229789">
  <ele>1583.0</ele>
  <time>2026-08-28T17:48:33Z</time>
  <course>0.0</course>
  <speed>0.0</speed>
  <fix>3d</fix>
</trkpt>
<trkpt lat="40.0713751" lon="-105.2297889">
  <ele>1583.13</ele>
  <time>2026-08-28T17:48:33Z</time>
  <course>247.13</course>
  <speed>0.022360679774997897</speed>
  <fix>3d</fix>
</trkpt>
<trkpt lat="40.0713749" lon="-105.229789">
  <ele>1583.0</ele>
  <time>2026-08-28T17:48:33Z</time>
  <course>0.0</course>
  <speed>0.0</speed>
  <fix>3d</fix>
</trkpt>
<trkpt lat="40.0713751" lon="-105.2297889">
  <ele>1583.13</ele>
  <time>2026-08-28T17:48:33Z</time>
  <course>247.13</course>
  <speed>0.022360679774997897</speed>
  <fix>3d</fix>
</trkpt>
<trkpt lat="40.0713749" lon="-105.229789">
  <ele>1583.0</ele>
  <time>2026-08-28T17:48:33Z</time>
  <course>0.0</course>
  <speed>0.0</speed>
  <fix>3d</fix>
</trkpt>
<trkpt lat="40.0713751" lon="-105.2297889">
  <ele>1583.13</ele>
  <time>2026-08-28T17:48:33Z</time>
  <course>247.13</course>
  <speed>0.022360679774997897</speed>
  <fix>3d</fix>
</trkpt>
<trkpt lat="40.0713749" lon="-105.229789">
  <ele>1583.0</ele>
  <time>2026-08-28T17:48:33Z</time>
  <course>0.0</course>
  <speed>0.0</speed>
  <fix>3d</fix>
</trkpt>
<trkpt lat="40.0713751" lon="-105.2297889">
  <ele>1583.13</ele>
  <time>2026-08-28T17:48:33Z</time>
  <course>247.13</course>
  <speed>0.022360679774997897</speed>
  <fix>3d</fix>
</trkpt>
<trkpt lat="40.0713749" lon="-105.229789">
  <ele>1583.0</ele>
  <time>2026-08-28T17:48:33Z</time>
  <course>0.0</course>
  <speed>0.0</speed>
  <fix>3d</fix>
</trkpt>
<trkpt lat="40.0713751" lon="-105.2297889">
  <ele>1583.13</ele>
  <time>2026-08-28T17:48:33Z</time>
  <course>247.13</course>
  <speed>0.022360679774997897</speed>
  <fix>3d</fix>
</trkpt>
<trkpt lat="40.0713749" lon="-105.229789">
  <ele>1583.0</ele>
  <time>2026-08-28T17:48:33Z</time>
  <course>0.0</course>
  <speed>0.0</speed>
  <fix>3d</fix>
</trkpt>
<trkpt lat="40.0713751" lon="-105.2297889">
  <ele>1583.13</ele>
  <time>2026-08-28T17:48:33Z</time>
  <course>247.13</course>
  <speed>0.022360679774997897</speed>
  <fix>3d</fix>
</trkpt>
<trkpt lat="40.0713749" lon="-105.229789">
  <ele>1583.0</ele>
  <time>2026-08-28T17:48:33Z</time>
  <course>0.0</course>
  <speed>0.0</speed>
  <fix>3d</fix>
</trkpt>
<trkpt lat="40.0713751" lon="-105.2297889">
  <ele>1583.13</ele>
  <time>2026-08-28T17:48:33Z</time>
  <course>247.13</course>
  <speed>0.022360679774997897</speed>
  <fix>3d</fix>
</trkpt>
<trkpt lat="40.0713749" lon="-105.229789">
  <ele>1583.0</ele>
  <time>2026-08-28T17:48:33Z</time>
  <course>0.0</course>
  <speed>0.0</speed>
  <fix>3d</fix>
</trkpt>
<trkpt lat="40.0713751" lon="-105.2297889">
  <ele>1583.13</ele>
  <time>2026-08-28T17:48:33Z</time>
  <course>247.13</course>
  <speed>0.022360679774997897</speed>
  <fix>3d</fix>
</trkpt>
<trkpt lat="40.0713749" lon="-105.229789">
  <ele>1583.0</ele>
  <time>2026-08-28T17:48:33Z</time>
  <course>0.0</course>
  <speed>0.0</speed>
  <fix>3d</fix>
</trkpt>
<trkpt lat="40.0713751" lon="-105.2297889">
  <ele>1583.12</ele>
  <time>2026-08-28T17:48:33Z</time>
  <course>247.13</course>
  <speed>0.022360679774997897</speed>
  <fix>3d</fix>
</trkpt>
<trkpt lat="40.0713749" lon="-105.229789">
  <ele>1583.0</ele>
  <time>2026-08-28T17:48:33Z</time>
  <course>0.0</course>
  <speed>0.0</speed>
  <fix>3d</fix>
</trkpt>
<trkpt lat="40.0713751" lon="-105.2297889">
  <ele>1583.12</ele>
  <time>2026-08-28T17:48:33Z</time>
  <course>247.13</course>
  <speed>0.022360679774997897</speed>
  <fix>3d</fix>
</trkpt>
<trkpt lat="40.0713749" lon="-105.229789">
  <ele>1583.0</ele>
  <time>2026-08-28T17:48:33Z</time>
  <course>0.0</course>
  <speed>0.0</speed>
  <fix>3d</fix>
</trkpt>
<trkpt lat="40.0713751" lon="-105.2297889">
  <ele>1583.12</ele>
  <time>2026-08-28T17:48:33Z</time>
  <course>247.13</course>
  <speed>0.022360679774997897</speed>
  <fix>3d</fix>
</trkpt>
<trkpt lat="40.0713749" lon="-105.229789">
  <ele>1583.0</ele>
  <time>2026-08-28T17:48:33Z</time>
  <course>0.0</course>
  <speed>0.0</speed>
  <fix>3d</fix>
</trkpt>
<trkpt lat="40.0713751" lon="-105.2297889">
  <ele>1583.12</ele>
  <time>2026-08-28T17:48:33Z</time>
  <course>247.13</course>
  <speed>0.022360679774997897</speed>
  <fix>3d</fix>
</trkpt>
<trkpt lat="40.0713749" lon="-105.229789">
  <ele>1583.0</ele>
  <time>2026-08-28T17:48:33Z</time>
  <course>0.0</course>
  <speed>0.0</speed>
  <fix>3d</fix>
</trkpt>
<trkpt lat="40.0713751" lon="-105.2297889">
  <ele>1583.11</ele>
  <time>2026-08-28T17:48:33Z</time>
  <course>247.13</course>
  <speed>0.022360679774997897</speed>
  <fix>3d</fix>
</trkpt>
<trkpt lat="40.0713749" lon="-105.229789">
  <ele>1583.0</ele>
  <time>2026-08-28T17:48:33Z</time>
  <course>0.0</course>
  <speed>0.0</speed>
  <fix>3d</fix>
</trkpt>
<trkpt lat="40.0713751" lon="-105.2297889">
  <ele>1583.11</ele>
  <time>2026-08-28T17:48:33Z</time>
  <course>247.13</course>
  <speed>0.022360679774997897</speed>
  <fix>3d</fix>
</trkpt>
<trkpt lat="40.0713749" lon="-105.229789">
  <ele>1583.0</ele>
  <time>2026-08-28T17:48:33Z</time>
  <course>0.0</course>
  <speed>0.0</speed>
  <fix>3d</fix>
</trkpt>
<trkpt lat="40.0713751" lon="-105.2297889">
  <ele>1583.11</ele>
  <time>2026-08-28T17:48:33Z</time>
  <course>247.13</course>
  <speed>0.022360679774997897</speed>
  <fix>3d</fix>
</trkpt>
<trkpt lat="40.0713749" lon="-105.229789">
  <ele>1583.0</ele>
  <time>2026-08-28T17:48:33Z</time>
  <course>0.0</course>
  <speed>0.0</speed>
  <fix>3d</fix>
</trkpt>
<trkpt lat="40.0713751" lon="-105.2297889">
  <ele>1583.11</ele>
  <time>2026-08-28T17:48:33Z</time>
  <course>247.13</course>
  <speed>0.022360679774997897</speed>
  <fix>3d</fix>
</trkpt>
<trkpt lat="40.0713749" lon="-105.229789">
  <ele>1583.0</ele>
  <time>2026-08-28T17:48:33Z</time>
  <course>0.0</course>
  <speed>0.0</speed>
  <fix>3d</fix>
</trkpt>
<trkpt lat="40.0713751" lon="-105.2297889">
  <ele>1583.1</ele>
  <time>2026-08-28T17:48:33Z</time>
  <course>247.13</course>
  <speed>0.022360679774997897</speed>
  <fix>3d</fix>
</trkpt>
<trkpt lat="40.0713749" lon="-105.229789">
  <ele>1583.0</ele>
  <time>2026-08-28T17:48:33Z</time>
  <course>0.0</course>
  <speed>0.0</speed>
  <fix>3d</fix>
</trkpt>
<trkpt lat="40.0713751" lon="-105.2297889">
  <ele>1583.1</ele>
  <time>2026-08-28T17:48:33Z</time>
  <course>247.13</course>
  <speed>0.022360679774997897</speed>
  <fix>3d</fix>
</trkpt>
<trkpt lat="40.0713749" lon="-105.229789">
  <ele>1583.0</ele>
  <time>2026-08-28T17:48:33Z</time>
  <course>0.0</course>
  <speed>0.0</speed>
  <fix>3d</fix>
</trkpt>
<trkpt lat="40.0713751" lon="-105.2297889">
  <ele>1583.09</ele>
  <time>2026-08-28T17:48:33Z</time>
  <course>247.13</course>
  <speed>0.022360679774997897</speed>
  <fix>3d</fix>
</trkpt>
<trkpt lat="40.0713749" lon="-105.229789">
  <ele>1583.0</ele>
  <time>2026-08-28T17:48:33Z</time>
  <course>0.0</course>
  <speed>0.0</speed>
  <fix>3d</fix>
</trkpt>
<trkpt lat="40.0713751" lon="-105.2297889">
  <ele>1583.08</ele>
  <time>2026-08-28T17:48:33Z</time>
  <course>247.12</course>
  <speed>0.022360679774997897</speed>
  <fix>3d</fix>
</trkpt>
<trkpt lat="40.0713749" lon="-105.229789">
  <ele>1583.0</ele>
  <time>2026-08-28T17:48:33Z</time>
  <course>0.0</course>
  <speed>0.0</speed>
  <fix>3d</fix>
</trkpt>
<trkpt lat="40.0713751" lon="-105.2297889">
  <ele>1583.08</ele>
  <time>2026-08-28T17:48:33Z</time>
  <course>247.12</course>
  <speed>0.022360679774997897</speed>
  <fix>3d</fix>
</trkpt>
<trkpt lat="40.0713749" lon="-105.229789">
  <ele>1583.0</ele>
  <time>2026-08-28T17:48:33Z</time>
  <course>0.0</course>
  <speed>0.0</speed>
  <fix>3d</fix>
</trkpt>
<trkpt lat="40.0713751" lon="-105.2297889">
  <ele>1583.07</ele>
  <time>2026-08-28T17:48:33Z</time>
  <course>247.12</course>
  <speed>0.022360679774997897</speed>
  <fix>3d</fix>
</trkpt>
<trkpt lat="40.0713749" lon="-105.229789">
  <ele>1583.0</ele>
  <time>2026-08-28T17:48:33Z</time>
  <course>0.0</course>
  <speed>0.0</speed>
  <fix>3d</fix>
</trkpt>
<trkpt lat="40.0713751" lon="-105.2297889">
  <ele>1583.06</ele>
  <time>2026-08-28T17:48:33Z</time>
  <course>247.12</course>
  <speed>0.022360679774997897</speed>
  <fix>3d</fix>
</trkpt>
<trkpt lat="40.0713749" lon="-105.229789">
  <ele>1583.0</ele>
  <time>2026-08-28T17:48:33Z</time>
  <course>0.0</course>
  <speed>0.0</speed>
  <fix>3d</fix>
</trkpt>
<trkpt lat="40.0713751" lon="-105.2297889">
  <ele>1583.06</ele>
  <time>2026-08-28T17:48:33Z</time>
  <course>247.12</course>
  <speed>0.022360679774997897</speed>
  <fix>3d</fix>
</trkpt>
<trkpt lat="40.0713749" lon="-105.229789">
  <ele>1583.0</ele>
  <time>2026-08-28T17:48:33Z</time>
  <course>0.0</course>
  <speed>0.0</speed>
  <fix>3d</fix>
</trkpt>
<trkpt lat="40.0713751" lon="-105.2297889">
  <ele>1583.05</ele>
  <time>2026-08-28T17:48:33Z</time>
  <course>247.12</course>
  <speed>0.022360679774997897</speed>
  <fix>3d</fix>
</trkpt>
<trkpt lat="40.0713749" lon="-105.229789">
  <ele>1583.0</ele>
  <time>2026-08-28T17:48:33Z</time>
  <course>0.0</course>
  <speed>0.0</speed>
  <fix>3d</fix>
</trkpt>
<trkpt lat="40.0713751" lon="-105.2297889">
  <ele>1583.04</ele>
  <time>2026-08-28T17:48:33Z</time>
  <course>247.12</course>
  <speed>0.022360679774997897</speed>
  <fix>3d</fix>
</trkpt>
<trkpt lat="40.0713749" lon="-105.229789">
  <ele>1583.0</ele>
  <time>2026-08-28T17:48:33Z</time>
  <course>0.0</course>
  <speed>0.0</speed>
  <fix>3d</fix>
</trkpt>
<trkpt lat="40.0713751" lon="-105.2297889">
  <ele>1583.04</ele>
  <time>2026-08-28T17:48:33Z</time>
  <course>247.12</course>
  <speed>0.02</speed>
  <fix>3d</fix>
</trkpt>
<trkpt lat="40.0713749" lon="-105.229789">
  <ele>1583.0</ele>
  <time>2026-08-28T17:48:33Z</time>
  <course>0.0</course>
  <speed>0.0</speed>
  <fix>3d</fix>
</trkpt>
<trkpt lat="40.0713751" lon="-105.2297889">
  <ele>1583.04</ele>
  <time>2026-08-28T17:48:33Z</time>
  <course>247.12</course>
  <speed>0.02</speed>
  <fix>3d</fix>
</trkpt>
<trkpt lat="40.0713749" lon="-105.229789">
  <ele>1583.0</ele>
  <time>2026-08-28T17:48:33Z</time>
  <course>0.0</course>
  <speed>0.0</speed>
  <fix>3d</fix>
</trkpt>
<trkpt lat="40.0713751" lon="-105.2297889">
  <ele>1583.03</ele>
  <time>2026-08-28T17:48:33Z</time>
  <course>247.12</course>
  <speed>0.02</speed>
  <fix>3d</fix>
</trkpt>
<trkpt lat="40.0713749" lon="-105.229789">
  <ele>1583.0</ele>
  <time>2026-08-28T17:48:33Z</time>
  <course>0.0</course>
  <speed>0.0</speed>
  <fix>3d</fix>
</trkpt>
<trkpt lat="40.0713751" lon="-105.2297889">
  <ele>1583.03</ele>
  <time>2026-08-28T17:48:33Z</time>
  <course>247.12</course>
  <speed>0.02</speed>
  <fix>3d</fix>
</trkpt>
<trkpt lat="40.0713749" lon="-105.229789">
  <ele>1583.0</ele>
  <time>2026-08-28T17:48:33Z</time>
  <course>0.0</course>
  <speed>0.0</speed>
  <fix>3d</fix>
</trkpt>
<trkpt lat="40.0713751" lon="-105.2297889">
  <ele>1583.03</ele>
  <time>2026-08-28T17:48:33Z</time>
  <course>247.12</course>
  <speed>0.02</speed>
  <fix>3d</fix>
</trkpt>
<trkpt lat="40.0713749" lon="-105.229789">
  <ele>1583.0</ele>
  <time>2026-08-28T17:48:33Z</time>
  <course>0.0</course>
  <speed>0.0</speed>
  <fix>3d</fix>
</trkpt>
<trkpt lat="40.0713751" lon="-105.2297889">
  <ele>1583.03</ele>
  <time>2026-08-28T17:48:33Z</time>
  <course>247.12</course>
  <speed>0.02</speed>
  <fix>3d</fix>
</trkpt>
<trkpt lat="40.0713749" lon="-105.229789">
  <ele>1583.0</ele>
  <time>2026-08-28T17:48:33Z</time>
  <course>0.0</course>
  <speed>0.0</speed>
  <fix>3d</fix>
</trkpt>
<trkpt lat="40.0713751" lon="-105.2297889">
  <ele>1583.03</ele>
  <time>2026-08-28T17:48:33Z</time>
  <course>247.12</course>
  <speed>0.02</speed>
  <fix>3d</fix>
</trkpt>
<trkpt lat="40.0713749" lon="-105.229789">
  <ele>1583.0</ele>
  <time>2026-08-28T17:48:33Z</time>
  <course>0.0</course>
  <speed>0.0</speed>
  <fix>3d</fix>
</trkpt>
<trkpt lat="40.0713751" lon="-105.2297889">
  <ele>1583.04</ele>
  <time>2026-08-28T17:48:33Z</time>
  <course>247.12</course>
  <speed>0.02</speed>
  <fix>3d</fix>
</trkpt>
<trkpt lat="40.0713749" lon="-105.229789">
  <ele>1583.0</ele>
  <time>2026-08-28T17:48:33Z</time>
  <course>0.0</course>
  <speed>0.0</speed>
  <fix>3d</fix>
</trkpt>
<trkpt lat="40.0713751" lon="-105.2297889">
  <ele>1583.03</ele>
  <time>2026-08-28T17:48:33Z</time>
  <course>247.12</course>
  <speed>0.02</speed>
  <fix>3d</fix>
</trkpt>
<trkpt lat="40.0713749" lon="-105.229789">
  <ele>1583.0</ele>
  <time>2026-08-28T17:48:33Z</time>
  <course>0.0</course>
  <speed>0.0</speed>
  <fix>3d</fix>
</trkpt>
<trkpt lat="40.0713751" lon="-105.2297889">
  <ele>1583.03</ele>
  <time>2026-08-28T17:48:33Z</time>
  <course>247.12</course>
  <speed>0.02</speed>
  <fix>3d</fix>
</trkpt>
<trkpt lat="40.0713749" lon="-105.229789">
  <ele>1583.0</ele>
  <time>2026-08-28T17:48:33Z</time>
  <course>0.0</course>
  <speed>0.0</speed>
  <fix>3d</fix>
</trkpt>
<trkpt lat="40.0713751" lon="-105.2297889">
  <ele>1583.03</ele>
  <time>2026-08-28T17:48:33Z</time>
  <course>247.12</course>
  <speed>0.02</speed>
  <fix>3d</fix>
</trkpt>
<trkpt lat="40.0713749" lon="-105.229789">
  <ele>1583.0</ele>
  <time>2026-08-28T17:48:33Z</time>
  <course>0.0</course>
  <speed>0.0</speed>
  <fix>3d</fix>
</trkpt>
<trkpt lat="40.0713751" lon="-105.2297889">
  <ele>1583.03</ele>
  <time>2026-08-28T17:48:33Z</time>
  <course>247.12</course>
  <speed>0.02</speed>
  <fix>3d</fix>
</trkpt>
<trkpt lat="40.0713749" lon="-105.229789">
  <ele>1583.0</ele>
  <time>2026-08-28T17:48:33Z</time>
  <course>0.0</course>
  <speed>0.0</speed>
  <fix>3d</fix>
</trkpt>
<trkpt lat="40.0713751" lon="-105.2297889">
  <ele>1583.02</ele>
  <time>2026-08-28T17:48:33Z</time>
  <course>247.12</course>
  <speed>0.02</speed>
  <fix>3d</fix>
</trkpt>
<trkpt lat="40.0713749" lon="-105.229789">
  <ele>1583.0</ele>
  <time>2026-08-28T17:48:33Z</time>
  <course>0.0</course>
  <speed>0.0</speed>
  <fix>3d</fix>
</trkpt>
<trkpt lat="40.0713751" lon="-105.2297889">
  <ele>1583.02</ele>
  <time>2026-08-28T17:48:33Z</time>
  <course>247.12</course>
  <speed>0.01</speed>
  <fix>3d</fix>
</trkpt>
<trkpt lat="40.0713749" lon="-105.229789">
  <ele>1583.0</ele>
  <time>2026-08-28T17:48:33Z</time>
  <course>0.0</course>
  <speed>0.0</speed>
  <fix>3d</fix>
</trkpt>
<trkpt lat="40.0713751" lon="-105.2297889">
  <ele>1583.01</ele>
  <time>2026-08-28T17:48:33Z</time>
  <course>247.12</course>
  <speed>0.01</speed>
  <fix>3d</fix>
</trkpt>
<trkpt lat="40.0713749" lon="-105.229789">
  <ele>1583.0</ele>
  <time>2026-08-28T17:48:33Z</time>
  <course>0.0</course>
  <speed>0.0</speed>
  <fix>3d</fix>
</trkpt>
<trkpt lat="40.0713751" lon="-105.2297889">
  <ele>1583.0</ele>
  <time>2026-08-28T17:48:33Z</time>
  <course>247.12</course>
  <speed>0.01</speed>
  <fix>3d</fix>
</trkpt>
<trkpt lat="40.0713749" lon="-105.229789">
  <ele>1583.0</ele>
  <time>2026-08-28T17:48:33Z</time>
  <course>0.0</course>
  <speed>0.0</speed>
  <fix>3d</fix>
</trkpt>
<trkpt lat="40.0713751" lon="-105.2297889">
  <ele>1582.99</ele>
  <time>2026-08-28T17:48:33Z</time>
  <course>247.12</course>
  <speed>0.01</speed>
  <fix>3d</fix>
</trkpt>
<trkpt lat="40.0713749" lon="-105.229789">
  <ele>1583.0</ele>
  <time>2026-08-28T17:48:33Z</time>
  <course>0.0</course>
  <speed>0.0</speed>
  <fix>3d</fix>
</trkpt>
<trkpt lat="40.0713751" lon="-105.2297889">
  <ele>1582.98</ele>
  <time>2026-08-28T17:48:33Z</time>
  <course>247.12</course>
  <speed>0.01</speed>
  <fix>3d</fix>
</trkpt>
<trkpt lat="40.0713749" lon="-105.229789">
  <ele>1583.0</ele>
  <time>2026-08-28T17:48:33Z</time>
  <course>0.0</course>
  <speed>0.0</speed>
  <fix>3d</fix>
</trkpt>
<trkpt lat="40.0713751" lon="-105.2297889">
  <ele>1582.98</ele>
  <time>2026-08-28T17:48:33Z</time>
  <course>247.11</course>
  <speed>0.01</speed>
  <fix>3d</fix>
</trkpt>
<trkpt lat="40.0713749" lon="-105.229789">
  <ele>1583.0</ele>
  <time>2026-08-28T17:48:33Z</time>
  <course>0.0</course>
  <speed>0.0</speed>
  <fix>3d</fix>
</trkpt>
<trkpt lat="40.0713751" lon="-105.2297889">
  <ele>1582.97</ele>
  <time>2026-08-28T17:48:33Z</time>
  <course>247.11</course>
  <speed>0.01</speed>
  <fix>3d</fix>
</trkpt>
<trkpt lat="40.0713749" lon="-105.229789">
  <ele>1583.0</ele>
  <time>2026-08-28T17:48:33Z</time>
  <course>0.0</course>
  <speed>0.0</speed>
  <fix>3d</fix>
</trkpt>
<trkpt lat="40.0713751" lon="-105.2297889">
  <ele>1582.97</ele>
  <time>2026-08-28T17:48:33Z</time>
  <course>247.11</course>
  <speed>0.01</speed>
  <fix>3d</fix>
</trkpt>
<trkpt lat="40.0713749" lon="-105.229789">
  <ele>1583.0</ele>
  <time>2026-08-28T17:48:33Z</time>
  <course>0.0</course>
  <speed>0.0</speed>
  <fix>3d</fix>
</trkpt>
<trkpt lat="40.0713751" lon="-105.2297889">
  <ele>1582.98</ele>
  <time>2026-08-28T17:48:33Z</time>
  <course>247.11</course>
  <speed>0.01</speed>
  <fix>3d</fix>
</trkpt>
<trkpt lat="40.0713749" lon="-105.229789">
  <ele>1583.0</ele>
  <time>2026-08-28T17:48:33Z</time>
  <course>0.0</course>
  <speed>0.0</speed>
  <fix>3d</fix>
</trkpt>
<trkpt lat="40.0713751" lon="-105.2297889">
  <ele>1582.98</ele>
  <time>2026-08-28T17:48:33Z</time>
  <course>247.11</course>
  <speed>0.01</speed>
  <fix>3d</fix>
</trkpt>
<trkpt lat="40.0713749" lon="-105.229789">
  <ele>1583.0</ele>
  <time>2026-08-28T17:48:33Z</time>
  <course>0.0</course>
  <speed>0.0</speed>
  <fix>3d</fix>
</trkpt>
<trkpt lat="40.0713751" lon="-105.2297889">
  <ele>1582.99</ele>
  <time>2026-08-28T17:48:33Z</time>
  <course>247.11</course>
  <speed>0.01</speed>
  <fix>3d</fix>
</trkpt>
<trkpt lat="40.0713749" lon="-105.229789">
  <ele>1583.0</ele>
  <time>2026-08-28T17:48:33Z</time>
  <course>0.0</course>
  <speed>0.0</speed>
  <fix>3d</fix>
</trkpt>
<trkpt lat="40.0713751" lon="-105.2297889">
  <ele>1583.0</ele>
  <time>2026-08-28T17:48:33Z</time>
  <course>247.11</course>
  <speed>0.01</speed>
  <fix>3d</fix>
</trkpt>
<trkpt lat="40.0713749" lon="-105.229789">
  <ele>1583.0</ele>
  <time>2026-08-28T17:48:33Z</time>
  <course>0.0</course>
  <speed>0.0</speed>
  <fix>3d</fix>
</trkpt>
<trkpt lat="40.0713751" lon="-105.2297889">
  <ele>1583.01</ele>
  <time>2026-08-28T17:48:33Z</time>
  <course>247.11</course>
  <speed>0.01</speed>
  <fix>3d</fix>
</trkpt>
<trkpt lat="40.0713749" lon="-105.229789">
  <ele>1583.0</ele>
  <time>2026-08-28T17:48:33Z</time>
  <course>0.0</course>
  <speed>0.0</speed>
  <fix>3d</fix>
</trkpt>
<trkpt lat="40.0713751" lon="-105.2297889">
  <ele>1583.02</ele>
  <time>2026-08-28T17:48:33Z</time>
  <course>247.11</course>
  <speed>0.01</speed>
  <fix>3d</fix>
</trkpt>
<trkpt lat="40.0713749" lon="-105.229789">
  <ele>1583.0</ele>
  <time>2026-08-28T17:48:33Z</time>
  <course>0.0</course>
  <speed>0.0</speed>
  <fix>3d</fix>
</trkpt>
<trkpt lat="40.0713751" lon="-105.2297889">
  <ele>1583.03</ele>
  <time>2026-08-28T17:48:33Z</time>
  <course>247.11</course>
  <speed>0.01</speed>
  <fix>3d</fix>
</trkpt>
<trkpt lat="40.0713749" lon="-105.229789">
  <ele>1583.0</ele>
  <time>2026-08-28T17:48:33Z</time>
  <course>0.0</course>
  <speed>0.0</speed>
  <fix>3d</fix>
</trkpt>
<trkpt lat="40.0713751" lon="-105.2297889">
  <ele>1583.03</ele>
  <time>2026-08-28T17:48:33Z</time>
  <course>247.11</course>
  <speed>0.01</speed>
  <fix>3d</fix>
</trkpt>
<trkpt lat="40.0713749" lon="-105.229789">
  <ele>1583.0</ele>
  <time>2026-08-28T17:48:33Z</time>
  <course>0.0</course>
  <speed>0.0</speed>
  <fix>3d</fix>
</trkpt>
<trkpt lat="40.0713751" lon="-105.2297889">
  <ele>1583.03</ele>
  <time>2026-08-28T17:48:33Z</time>
  <course>247.11</course>
  <speed>0.01</speed>
  <fix>3d</fix>
</trkpt>
<trkpt lat="40.0713749" lon="-105.229789">
  <ele>1583.0</ele>
  <time>2026-08-28T17:48:33Z</time>
  <course>0.0</course>
  <speed>0.0</speed>
  <fix>3d</fix>
</trkpt>
<trkpt lat="40.0713751" lon="-105.2297889">
  <ele>1583.03</ele>
  <time>2026-08-28T17:48:33Z</time>
  <course>247.11</course>
  <speed>0.01</speed>
  <fix>3d</fix>
</trkpt>
<trkpt lat="40.0713749" lon="-105.229789">
  <ele>1583.0</ele>
  <time>2026-08-28T17:48:33Z</time>
  <course>0.0</course>
  <speed>0.0</speed>
  <fix>3d</fix>
</trkpt>
<trkpt lat="40.0713751" lon="-105.2297889">
  <ele>1583.03</ele>
  <time>2026-08-28T17:48:33Z</time>
  <course>247.1</course>
  <speed>0.01</speed>
  <fix>3d</fix>
</trkpt>
<trkpt lat="40.0713749" lon="-105.229789">
  <ele>1583.0</ele>
  <time>2026-08-28T17:48:33Z</time>
  <course>0.0</course>
  <speed>0.0</speed>
  <fix>3d</fix>
</trkpt>
<trkpt lat="40.0713751" lon="-105.2297889">
  <ele>1583.03</ele>
  <time>2026-08-28T17:48:33Z</time>
  <course>247.1</course>
  <speed>0.01</speed>
  <fix>3d</fix>
</trkpt>
<trkpt lat="40.0713749" lon="-105.229789">
  <ele>1583.0</ele>
  <time>2026-08-28T17:48:33Z</time>
  <course>0.0</course>
  <speed>0.0</speed>
  <fix>3d</fix>
</trkpt>
<trkpt lat="40.0713751" lon="-105.2297889">
  <ele>1583.03</ele>
  <time>2026-08-28T17:48:33Z</time>
  <course>247.1</course>
  <speed>0.01</speed>
  <fix>3d</fix>
</trkpt>
<trkpt lat="40.0713749" lon="-105.229789">
  <ele>1583.0</ele>
  <time>2026-08-28T17:48:33Z</time>
  <course>0.0</course>
  <speed>0.0</speed>
  <fix>3d</fix>
</trkpt>
<trkpt lat="40.0713751" lon="-105.2297889">
  <ele>1583.02</ele>
  <time>2026-08-28T17:48:33Z</time>
  <course>247.1</course>
  <speed>0.01</speed>
  <fix>3d</fix>
</trkpt>
<trkpt lat="40.0713749" lon="-105.229789">
  <ele>1583.0</ele>
  <time>2026-08-28T17:48:33Z</time>
  <course>0.0</course>
  <speed>0.0</speed>
  <fix>3d</fix>
</trkpt>
<trkpt lat="40.0713751" lon="-105.2297889">
  <ele>1583.02</ele>
  <time>2026-08-28T17:48:33Z</time>
  <course>247.1</course>
  <speed>0.01</speed>
  <fix>3d</fix>
</trkpt>
<trkpt lat="40.0713749" lon="-105.229789">
  <ele>1583.0</ele>
  <time>2026-08-28T17:48:33Z</time>
  <course>0.0</course>
  <speed>0.0</speed>
  <fix>3d</fix>
</trkpt>
<trkpt lat="40.0713751" lon="-105.2297889">
  <ele>1583.02</ele>
  <time>2026-08-28T17:48:33Z</time>
  <course>247.1</course>
  <speed>0.01</speed>
  <fix>3d</fix>
</trkpt>
<trkpt lat="40.0713749" lon="-105.229789">
  <ele>1583.0</ele>
  <time>2026-08-28T17:48:33Z</time>
  <course>0.0</course>
  <speed>0.0</speed>
  <fix>3d</fix>
</trkpt>
<trkpt lat="40.0713751" lon="-105.2297889">
  <ele>1583.02</ele>
  <time>2026-08-28T17:48:33Z</time>
  <course>247.1</course>
  <speed>0.01</speed>
  <fix>3d</fix>
</trkpt>
<trkpt lat="40.0713749" lon="-105.229789">
  <ele>1583.0</ele>
  <time>2026-08-28T17:48:33Z</time>
  <course>0.0</course>
  <speed>0.0</speed>
  <fix>3d</fix>
</trkpt>
<trkpt lat="40.0713751" lon="-105.2297889">
  <ele>1583.02</ele>
  <time>2026-08-28T17:48:33Z</time>
  <course>247.1</course>
  <speed>0.01</speed>
  <fix>3d</fix>
</trkpt>
<trkpt lat="40.0713749" lon="-105.229789">
  <ele>1583.0</ele>
  <time>2026-08-28T17:48:33Z</time>
  <course>0.0</course>
  <speed>0.0</speed>
  <fix>3d</fix>
</trkpt>
<trkpt lat="40.0713751" lon="-105.2297889">
  <ele>1583.02</ele>
  <time>2026-08-28T17:48:33Z</time>
  <course>247.1</course>
  <speed>0.01</speed>
  <fix>3d</fix>
</trkpt>
<trkpt lat="40.0713749" lon="-105.229789">
  <ele>1583.0</ele>
  <time>2026-08-28T17:48:33Z</time>
  <course>0.0</course>
  <speed>0.0</speed>
  <fix>3d</fix>
</trkpt>
<trkpt lat="40.0713751" lon="-105.2297889">
  <ele>1583.01</ele>
  <time>2026-08-28T17:48:33Z</time>
  <course>247.1</course>
  <speed>0.01</speed>
  <fix>3d</fix>
</trkpt>
<trkpt lat="40.0713749" lon="-105.229789">
  <ele>1583.0</ele>
  <time>2026-08-28T17:48:33Z</time>
  <course>0.0</course>
  <speed>0.0</speed>
  <fix>3d</fix>
</trkpt>
<trkpt lat="40.0713751" lon="-105.2297889">
  <ele>1583.0</ele>
  <time>2026-08-28T17:48:33Z</time>
  <course>247.1</course>
  <speed>0.01</speed>
  <fix>3d</fix>
</trkpt>
<trkpt lat="40.0713749" lon="-105.229789">
  <ele>1583.0</ele>
  <time>2026-08-28T17:48:33Z</time>
  <course>0.0</course>
  <speed>0.0</speed>
  <fix>3d</fix>
</trkpt>
<trkpt lat="40.0713751" lon="-105.2297889">
  <ele>1583.0</ele>
  <time>2026-08-28T17:48:33Z</time>
  <course>247.09</course>
  <speed>0.01</speed>
  <fix>3d</fix>
</trkpt>
<trkpt lat="40.0713749" lon="-105.229789">
  <ele>1583.0</ele>
  <time>2026-08-28T17:48:33Z</time>
  <course>0.0</course>
  <speed>0.0</speed>
  <fix>3d</fix>
</trkpt>
<trkpt lat="40.0713751" lon="-105.2297889">
  <ele>1583.0</ele>
  <time>2026-08-28T17:48:33Z</time>
  <course>247.09</course>
  <speed>0.01</speed>
  <fix>3d</fix>
</trkpt>
<trkpt lat="40.0713749" lon="-105.229789">
  <ele>1583.0</ele>
  <time>2026-08-28T17:48:33Z</time>
  <course>0.0</course>
  <speed>0.0</speed>
  <fix>3d</fix>
</trkpt>
<trkpt lat="40.0713751" lon="-105.2297889">
  <ele>1582.99</ele>
  <time>2026-08-28T17:48:33Z</time>
  <course>247.09</course>
  <speed>0.01</speed>
  <fix>3d</fix>
</trkpt>
<trkpt lat="40.0713749" lon="-105.229789">
  <ele>1583.0</ele>
  <time>2026-08-28T17:48:33Z</time>
  <course>0.0</course>
  <speed>0.0</speed>
  <fix>3d</fix>
</trkpt>
<trkpt lat="40.0713751" lon="-105.2297889">
  <ele>1582.99</ele>
  <time>2026-08-28T17:48:33Z</time>
  <course>247.09</course>
  <speed>0.01</speed>
  <fix>3d</fix>
</trkpt>
<trkpt lat="40.0713749" lon="-105.229789">
  <ele>1583.0</ele>
  <time>2026-08-28T17:48:33Z</time>
  <course>0.0</course>
  <speed>0.0</speed>
  <fix>3d</fix>
</trkpt>
<trkpt lat="40.0713751" lon="-105.2297889">
  <ele>1582.99</ele>
  <time>2026-08-28T17:48:33Z</time>
  <course>247.09</course>
  <speed>0.01</speed>
  <fix>3d</fix>
</trkpt>
<trkpt lat="40.0713749" lon="-105.229789">
  <ele>1583.0</ele>
  <time>2026-08-28T17:48:33Z</time>
  <course>0.0</course>
  <speed>0.0</speed>
  <fix>3d</fix>
</trkpt>
<trkpt lat="40.0713751" lon="-105.2297889">
  <ele>1582.99</ele>
  <time>2026-08-28T17:48:34Z</time>
  <course>247.09</course>
  <speed>0.01</speed>
  <fix>3d</fix>
</trkpt>
<trkpt lat="40.0713749" lon="-105.229789">
  <ele>1583.0</ele>
  <time>2026-08-28T17:48:34Z</time>
  <course>0.0</course>
  <speed>0.0</speed>
  <fix>3d</fix>
</trkpt>
<trkpt lat="40.0713751" lon="-105.2297889">
  <ele>1582.99</ele>
  <time>2026-08-28T17:48:34Z</time>
  <course>247.09</course>
  <speed>0.01</speed>
  <fix>3d</fix>
</trkpt>
<trkpt lat="40.0713749" lon="-105.229789">
  <ele>1583.0</ele>
  <time>2026-08-28T17:48:34Z</time>
  <course>0.0</course>
  <speed>0.0</speed>
  <fix>3d</fix>
</trkpt>
<trkpt lat="40.0713751" lon="-105.2297889">
  <ele>1582.99</ele>
  <time>2026-08-28T17:48:34Z</time>
  <course>247.09</course>
  <speed>0.01</speed>
  <fix>3d</fix>
</trkpt>
<trkpt lat="40.0713749" lon="-105.229789">
  <ele>1583.0</ele>
  <time>2026-08-28T17:48:34Z</time>
  <course>0.0</course>
  <speed>0.0</speed>
  <fix>3d</fix>
</trkpt>
<trkpt lat="40.0713751" lon="-105.2297889">
  <ele>1582.99</ele>
  <time>2026-08-28T17:48:34Z</time>
  <course>247.09</course>
  <speed>0.01</speed>
  <fix>3d</fix>
</trkpt>
<trkpt lat="40.0713749" lon="-105.229789">
  <ele>1583.0</ele>
  <time>2026-08-28T17:48:34Z</time>
  <course>0.0</course>
  <speed>0.0</speed>
  <fix>3d</fix>
</trkpt>
<trkpt lat="40.0713751" lon="-105.2297889">
  <ele>1582.99</ele>
  <time>2026-08-28T17:48:34Z</time>
  <course>247.08</course>
  <speed>0.01</speed>
  <fix>3d</fix>
</trkpt>
<trkpt lat="40.0713749" lon="-105.229789">
  <ele>1583.0</ele>
  <time>2026-08-28T17:48:34Z</time>
  <course>0.0</course>
  <speed>0.0</speed>
  <fix>3d</fix>
</trkpt>
<trkpt lat="40.0713751" lon="-105.2297889">
  <ele>1582.99</ele>
  <time>2026-08-28T17:48:34Z</time>
  <course>247.08</course>
  <speed>0.01</speed>
  <fix>3d</fix>
</trkpt>
<trkpt lat="40.0713749" lon="-105.229789">
  <ele>1583.0</ele>
  <time>2026-08-28T17:48:34Z</time>
  <course>0.0</course>
  <speed>0.0</speed>
  <fix>3d</fix>
</trkpt>
<trkpt lat="40.0713751" lon="-105.2297889">
  <ele>1582.99</ele>
  <time>2026-08-28T17:48:34Z</time>
  <course>247.08</course>
  <speed>0.01</speed>
  <fix>3d</fix>
</trkpt>
<trkpt lat="40.0713749" lon="-105.229789">
  <ele>1583.0</ele>
  <time>2026-08-28T17:48:34Z</time>
  <course>0.0</course>
  <speed>0.0</speed>
  <fix>3d</fix>
</trkpt>
<trkpt lat="40.0713751" lon="-105.2297889">
  <ele>1582.99</ele>
  <time>2026-08-28T17:48:34Z</time>
  <course>247.08</course>
  <speed>0.01</speed>
  <fix>3d</fix>
</trkpt>
<trkpt lat="40.0713749" lon="-105.229789">
  <ele>1583.0</ele>
  <time>2026-08-28T17:48:34Z</time>
  <course>0.0</course>
  <speed>0.0</speed>
  <fix>3d</fix>
</trkpt>
<trkpt lat="40.071375" lon="-105.2297889">
  <ele>1582.99</ele>
  <time>2026-08-28T17:48:34Z</time>
  <course>247.08</course>
  <speed>0.01</speed>
  <fix>3d</fix>
</trkpt>
<trkpt lat="40.0713749" lon="-105.229789">
  <ele>1583.0</ele>
  <time>2026-08-28T17:48:34Z</time>
  <course>0.0</course>
  <speed>0.0</speed>
  <fix>3d</fix>
</trkpt>
<trkpt lat="40.071375" lon="-105.2297889">
  <ele>1582.99</ele>
  <time>2026-08-28T17:48:34Z</time>
  <course>247.08</course>
  <speed>0.01</speed>
  <fix>3d</fix>
</trkpt>
<trkpt lat="40.0713749" lon="-105.229789">
  <ele>1583.0</ele>
  <time>2026-08-28T17:48:34Z</time>
  <course>0.0</course>
  <speed>0.0</speed>
  <fix>3d</fix>
</trkpt>
<trkpt lat="40.071375" lon="-105.2297889">
  <ele>1582.99</ele>
  <time>2026-08-28T17:48:34Z</time>
  <course>247.08</course>
  <speed>0.01</speed>
  <fix>3d</fix>
</trkpt>
<trkpt lat="40.0713749" lon="-105.229789">
  <ele>1583.0</ele>
  <time>2026-08-28T17:48:34Z</time>
  <course>0.0</course>
  <speed>0.0</speed>
  <fix>3d</fix>
</trkpt>
<trkpt lat="40.071375" lon="-105.2297889">
  <ele>1582.99</ele>
  <time>2026-08-28T17:48:34Z</time>
  <course>247.08</course>
  <speed>0.01</speed>
  <fix>3d</fix>
</trkpt>
<trkpt lat="40.0713749" lon="-105.229789">
  <ele>1583.0</ele>
  <time>2026-08-28T17:48:34Z</time>
  <course>0.0</course>
  <speed>0.0</speed>
  <fix>3d</fix>
</trkpt>
<trkpt lat="40.071375" lon="-105.2297889">
  <ele>1582.99</ele>
  <time>2026-08-28T17:48:34Z</time>
  <course>247.08</course>
  <speed>0.01</speed>
  <fix>3d</fix>
</trkpt>
<trkpt lat="40.0713749" lon="-105.229789">
  <ele>1583.0</ele>
  <time>2026-08-28T17:48:34Z</time>
  <course>0.0</course>
  <speed>0.0</speed>
  <fix>3d</fix>
</trkpt>
<trkpt lat="40.071375" lon="-105.2297889">
  <ele>1582.99</ele>
  <time>2026-08-28T17:48:34Z</time>
  <course>247.07</course>
  <speed>0.01</speed>
  <fix>3d</fix>
</trkpt>
<trkpt lat="40.0713749" lon="-105.229789">
  <ele>1583.0</ele>
  <time>2026-08-28T17:48:34Z</time>
  <course>0.0</course>
  <speed>0.0</speed>
  <fix>3d</fix>
</trkpt>
<trkpt lat="40.071375" lon="-105.2297889">
  <ele>1582.99</ele>
  <time>2026-08-28T17:48:34Z</time>
  <course>247.07</course>
  <speed>0.01</speed>
  <fix>3d</fix>
</trkpt>
<trkpt lat="40.0713749" lon="-105.229789">
  <ele>1583.0</ele>
  <time>2026-08-28T17:48:34Z</time>
  <course>0.0</course>
  <speed>0.0</speed>
  <fix>3d</fix>
</trkpt>
<trkpt lat="40.071375" lon="-105.2297889">
  <ele>1582.99</ele>
  <time>2026-08-28T17:48:34Z</time>
  <course>247.07</course>
  <speed>0.01</speed>
  <fix>3d</fix>
</trkpt>
<trkpt lat="40.0713749" lon="-105.229789">
  <ele>1583.0</ele>
  <time>2026-08-28T17:48:34Z</time>
  <course>0.0</course>
  <speed>0.0</speed>
  <fix>3d</fix>
</trkpt>
<trkpt lat="40.071375" lon="-105.2297889">
  <ele>1582.99</ele>
  <time>2026-08-28T17:48:34Z</time>
  <course>247.07</course>
  <speed>0.01</speed>
  <fix>3d</fix>
</trkpt>
<trkpt lat="40.0713749" lon="-105.229789">
  <ele>1583.0</ele>
  <time>2026-08-28T17:48:34Z</time>
  <course>0.0</course>
  <speed>0.0</speed>
  <fix>3d</fix>
</trkpt>
<trkpt lat="40.071375" lon="-105.2297889">
  <ele>1583.0</ele>
  <time>2026-08-28T17:48:34Z</time>
  <course>247.07</course>
  <speed>0.01</speed>
  <fix>3d</fix>
</trkpt>
<trkpt lat="40.0713749" lon="-105.229789">
  <ele>1583.0</ele>
  <time>2026-08-28T17:48:34Z</time>
  <course>0.0</course>
  <speed>0.0</speed>
  <fix>3d</fix>
</trkpt>
<trkpt lat="40.071375" lon="-105.2297889">
  <ele>1583.0</ele>
  <time>2026-08-28T17:48:34Z</time>
  <course>247.07</course>
  <speed>0.01</speed>
  <fix>3d</fix>
</trkpt>
<trkpt lat="40.0713749" lon="-105.229789">
  <ele>1583.0</ele>
  <time>2026-08-28T17:48:34Z</time>
  <course>0.0</course>
  <speed>0.0</speed>
  <fix>3d</fix>
</trkpt>
<trkpt lat="40.071375" lon="-105.2297889">
  <ele>1583.0</ele>
  <time>2026-08-28T17:48:34Z</time>
  <course>247.07</course>
  <speed>0.01</speed>
  <fix>3d</fix>
</trkpt>
<trkpt lat="40.0713749" lon="-105.229789">
  <ele>1583.0</ele>
  <time>2026-08-28T17:48:34Z</time>
  <course>0.0</course>
  <speed>0.0</speed>
  <fix>3d</fix>
</trkpt>
<trkpt lat="40.071375" lon="-105.2297889">
  <ele>1583.0</ele>
  <time>2026-08-28T17:48:34Z</time>
  <course>247.07</course>
  <speed>0.01</speed>
  <fix>3d</fix>
</trkpt>
<trkpt lat="40.0713749" lon="-105.229789">
  <ele>1583.0</ele>
  <time>2026-08-28T17:48:34Z</time>
  <course>0.0</course>
  <speed>0.0</speed>
  <fix>3d</fix>
</trkpt>
<trkpt lat="40.071375" lon="-105.2297889">
  <ele>1583.01</ele>
  <time>2026-08-28T17:48:34Z</time>
  <course>247.06</course>
  <speed>0.01</speed>
  <fix>3d</fix>
</trkpt>
<trkpt lat="40.0713749" lon="-105.229789">
  <ele>1583.0</ele>
  <time>2026-08-28T17:48:34Z</time>
  <course>0.0</course>
  <speed>0.0</speed>
  <fix>3d</fix>
</trkpt>
<trkpt lat="40.071375" lon="-105.2297889">
  <ele>1583.01</ele>
  <time>2026-08-28T17:48:34Z</time>
  <course>247.06</course>
  <speed>0.01</speed>
  <fix>3d</fix>
</trkpt>
<trkpt lat="40.0713749" lon="-105.229789">
  <ele>1583.0</ele>
  <time>2026-08-28T17:48:34Z</time>
  <course>0.0</course>
  <speed>0.0</speed>
  <fix>3d</fix>
</trkpt>
<trkpt lat="40.071375" lon="-105.2297889">
  <ele>1583.01</ele>
  <time>2026-08-28T17:48:34Z</time>
  <course>247.06</course>
  <speed>0.01</speed>
  <fix>3d</fix>
</trkpt>
<trkpt lat="40.0713749" lon="-105.229789">
  <ele>1583.0</ele>
  <time>2026-08-28T17:48:34Z</time>
  <course>0.0</course>
  <speed>0.0</speed>
  <fix>3d</fix>
</trkpt>
<trkpt lat="40.071375" lon="-105.2297889">
  <ele>1583.01</ele>
  <time>2026-08-28T17:48:34Z</time>
  <course>247.06</course>
  <speed>0.01</speed>
  <fix>3d</fix>
</trkpt>
<trkpt lat="40.0713749" lon="-105.229789">
  <ele>1583.0</ele>
  <time>2026-08-28T17:48:34Z</time>
  <course>0.0</course>
  <speed>0.0</speed>
  <fix>3d</fix>
</trkpt>
<trkpt lat="40.071375" lon="-105.2297889">
  <ele>1583.01</ele>
  <time>2026-08-28T17:48:34Z</time>
  <course>247.06</course>
  <speed>0.01</speed>
  <fix>3d</fix>
</trkpt>
<trkpt lat="40.0713749" lon="-105.229789">
  <ele>1583.0</ele>
  <time>2026-08-28T17:48:34Z</time>
  <course>0.0</course>
  <speed>0.0</speed>
  <fix>3d</fix>
</trkpt>
<trkpt lat="40.071375" lon="-105.2297889">
  <ele>1583.0</ele>
  <time>2026-08-28T17:48:34Z</time>
  <course>247.06</course>
  <speed>0.01</speed>
  <fix>3d</fix>
</trkpt>
<trkpt lat="40.0713749" lon="-105.229789">
  <ele>1583.0</ele>
  <time>2026-08-28T17:48:34Z</time>
  <course>0.0</course>
  <speed>0.0</speed>
  <fix>3d</fix>
</trkpt>
<trkpt lat="40.071375" lon="-105.2297889">
  <ele>1583.0</ele>
  <time>2026-08-28T17:48:34Z</time>
  <course>247.06</course>
  <speed>0.01</speed>
  <fix>3d</fix>
</trkpt>
<trkpt lat="40.0713749" lon="-105.229789">
  <ele>1583.0</ele>
  <time>2026-08-28T17:48:34Z</time>
  <course>0.0</course>
  <speed>0.0</speed>
  <fix>3d</fix>
</trkpt>
<trkpt lat="40.071375" lon="-105.2297889">
  <ele>1583.0</ele>
  <time>2026-08-28T17:48:34Z</time>
  <course>247.05</course>
  <speed>0.01</speed>
  <fix>3d</fix>
</trkpt>
<trkpt lat="40.0713749" lon="-105.229789">
  <ele>1583.0</ele>
  <time>2026-08-28T17:48:34Z</time>
  <course>0.0</course>
  <speed>0.0</speed>
  <fix>3d</fix>
</trkpt>
<trkpt lat="40.071375" lon="-105.2297889">
  <ele>1583.0</ele>
  <time>2026-08-28T17:48:34Z</time>
  <course>247.05</course>
  <speed>0.01</speed>
  <fix>3d</fix>
</trkpt>
<trkpt lat="40.0713749" lon="-105.229789">
  <ele>1583.0</ele>
  <time>2026-08-28T17:48:34Z</time>
  <course>0.0</course>
  <speed>0.0</speed>
  <fix>3d</fix>
</trkpt>
<trkpt lat="40.071375" lon="-105.2297889">
  <ele>1583.0</ele>
  <time>2026-08-28T17:48:34Z</time>
  <course>247.05</course>
  <speed>0.01</speed>
  <fix>3d</fix>
</trkpt>
<trkpt lat="40.0713749" lon="-105.229789">
  <ele>1583.0</ele>
  <time>2026-08-28T17:48:34Z</time>
  <course>0.0</course>
  <speed>0.0</speed>
  <fix>3d</fix>
</trkpt>
<trkpt lat="40.071375" lon="-105.2297889">
  <ele>1583.0</ele>
  <time>2026-08-28T17:48:34Z</time>
  <course>247.05</course>
  <speed>0.01</speed>
  <fix>3d</fix>
</trkpt>
<trkpt lat="40.0713749" lon="-105.229789">
  <ele>1583.0</ele>
  <time>2026-08-28T17:48:34Z</time>
  <course>0.0</course>
  <speed>0.0</speed>
  <fix>3d</fix>
</trkpt>
<trkpt lat="40.071375" lon="-105.2297889">
  <ele>1582.99</ele>
  <time>2026-08-28T17:48:34Z</time>
  <course>247.05</course>
  <speed>0.01</speed>
  <fix>3d</fix>
</trkpt>
<trkpt lat="40.0713749" lon="-105.229789">
  <ele>1583.0</ele>
  <time>2026-08-28T17:48:34Z</time>
  <course>0.0</course>
  <speed>0.0</speed>
  <fix>3d</fix>
</trkpt>
<trkpt lat="40.071375" lon="-105.2297889">
  <ele>1582.99</ele>
  <time>2026-08-28T17:48:34Z</time>
  <course>247.05</course>
  <speed>0.01</speed>
  <fix>3d</fix>
</trkpt>
<trkpt lat="40.0713749" lon="-105.229789">
  <ele>1583.0</ele>
  <time>2026-08-28T17:48:34Z</time>
  <course>0.0</course>
  <speed>0.0</speed>
  <fix>3d</fix>
</trkpt>
<trkpt lat="40.071375" lon="-105.2297889">
  <ele>1582.98</ele>
  <time>2026-08-28T17:48:34Z</time>
  <course>247.05</course>
  <speed>0.01</speed>
  <fix>3d</fix>
</trkpt>
<trkpt lat="40.0713749" lon="-105.229789">
  <ele>1583.0</ele>
  <time>2026-08-28T17:48:34Z</time>
  <course>0.0</course>
  <speed>0.0</speed>
  <fix>3d</fix>
</trkpt>
<trkpt lat="40.071375" lon="-105.2297889">
  <ele>1582.98</ele>
  <time>2026-08-28T17:48:34Z</time>
  <course>247.04</course>
  <speed>0.0</speed>
  <fix>3d</fix>
</trkpt>
<trkpt lat="40.0713749" lon="-105.229789">
  <ele>1583.0</ele>
  <time>2026-08-28T17:48:34Z</time>
  <course>0.0</course>
  <speed>0.0</speed>
  <fix>3d</fix>
</trkpt>
<trkpt lat="40.071375" lon="-105.2297889">
  <ele>1582.97</ele>
  <time>2026-08-28T17:48:34Z</time>
  <course>247.04</course>
  <speed>0.0</speed>
  <fix>3d</fix>
</trkpt>
<trkpt lat="40.0713749" lon="-105.229789">
  <ele>1583.0</ele>
  <time>2026-08-28T17:48:34Z</time>
  <course>0.0</course>
  <speed>0.0</speed>
  <fix>3d</fix>
</trkpt>
<trkpt lat="40.071375" lon="-105.2297889">
  <ele>1582.97</ele>
  <time>2026-08-28T17:48:34Z</time>
  <course>247.04</course>
  <speed>0.0</speed>
  <fix>3d</fix>
</trkpt>
<trkpt lat="40.0713749" lon="-105.229789">
  <ele>1583.0</ele>
  <time>2026-08-28T17:48:34Z</time>
  <course>0.0</course>
  <speed>0.0</speed>
  <fix>3d</fix>
</trkpt>
<trkpt lat="40.071375" lon="-105.2297889">
  <ele>1582.96</ele>
  <time>2026-08-28T17:48:34Z</time>
  <course>247.04</course>
  <speed>0.0</speed>
  <fix>3d</fix>
</trkpt>
<trkpt lat="40.0713749" lon="-105.229789">
  <ele>1583.0</ele>
  <time>2026-08-28T17:48:34Z</time>
  <course>0.0</course>
  <speed>0.0</speed>
  <fix>3d</fix>
</trkpt>
<trkpt lat="40.071375" lon="-105.2297889">
  <ele>1582.96</ele>
  <time>2026-08-28T17:48:34Z</time>
  <course>247.04</course>
  <speed>0.0</speed>
  <fix>3d</fix>
</trkpt>
<trkpt lat="40.0713749" lon="-105.229789">
  <ele>1583.0</ele>
  <time>2026-08-28T17:48:34Z</time>
  <course>0.0</course>
  <speed>0.0</speed>
  <fix>3d</fix>
</trkpt>
<trkpt lat="40.071375" lon="-105.2297889">
  <ele>1582.95</ele>
  <time>2026-08-28T17:48:34Z</time>
  <course>247.04</course>
  <speed>0.0</speed>
  <fix>3d</fix>
</trkpt>
<trkpt lat="40.0713749" lon="-105.229789">
  <ele>1583.0</ele>
  <time>2026-08-28T17:48:34Z</time>
  <course>0.0</course>
  <speed>0.0</speed>
  <fix>3d</fix>
</trkpt>
<trkpt lat="40.071375" lon="-105.2297889">
  <ele>1582.95</ele>
  <time>2026-08-28T17:48:34Z</time>
  <course>247.04</course>
  <speed>0.0</speed>
  <fix>3d</fix>
</trkpt>
<trkpt lat="40.0713749" lon="-105.229789">
  <ele>1583.0</ele>
  <time>2026-08-28T17:48:34Z</time>
  <course>0.0</course>
  <speed>0.0</speed>
  <fix>3d</fix>
</trkpt>
<trkpt lat="40.071375" lon="-105.2297889">
  <ele>1582.95</ele>
  <time>2026-08-28T17:48:34Z</time>
  <course>247.03</course>
  <speed>0.0</speed>
  <fix>3d</fix>
</trkpt>
<trkpt lat="40.0713749" lon="-105.229789">
  <ele>1583.0</ele>
  <time>2026-08-28T17:48:34Z</time>
  <course>0.0</course>
  <speed>0.0</speed>
  <fix>3d</fix>
</trkpt>
<trkpt lat="40.071375" lon="-105.2297889">
  <ele>1582.95</ele>
  <time>2026-08-28T17:48:34Z</time>
  <course>247.03</course>
  <speed>0.0</speed>
  <fix>3d</fix>
</trkpt>
<trkpt lat="40.0713749" lon="-105.229789">
  <ele>1583.0</ele>
  <time>2026-08-28T17:48:34Z</time>
  <course>0.0</course>
  <speed>0.0</speed>
  <fix>3d</fix>
</trkpt>
<trkpt lat="40.071375" lon="-105.2297889">
  <ele>1582.95</ele>
  <time>2026-08-28T17:48:34Z</time>
  <course>247.03</course>
  <speed>0.0</speed>
  <fix>3d</fix>
</trkpt>
<trkpt lat="40.0713749" lon="-105.229789">
  <ele>1583.0</ele>
  <time>2026-08-28T17:48:34Z</time>
  <course>0.0</course>
  <speed>0.0</speed>
  <fix>3d</fix>
</trkpt>
<trkpt lat="40.071375" lon="-105.2297889">
  <ele>1582.94</ele>
  <time>2026-08-28T17:48:34Z</time>
  <course>247.03</course>
  <speed>0.0</speed>
  <fix>3d</fix>
</trkpt>
<trkpt lat="40.0713749" lon="-105.229789">
  <ele>1583.0</ele>
  <time>2026-08-28T17:48:34Z</time>
  <course>0.0</course>
  <speed>0.0</speed>
  <fix>3d</fix>
</trkpt>
<trkpt lat="40.071375" lon="-105.2297889">
  <ele>1582.94</ele>
  <time>2026-08-28T17:48:34Z</time>
  <course>247.03</course>
  <speed>0.0</speed>
  <fix>3d</fix>
</trkpt>
<trkpt lat="40.0713749" lon="-105.229789">
  <ele>1583.0</ele>
  <time>2026-08-28T17:48:34Z</time>
  <course>0.0</course>
  <speed>0.0</speed>
  <fix>3d</fix>
</trkpt>
<trkpt lat="40.071375" lon="-105.2297889">
  <ele>1582.94</ele>
  <time>2026-08-28T17:48:34Z</time>
  <course>247.03</course>
  <speed>0.0</speed>
  <fix>3d</fix>
</trkpt>
<trkpt lat="40.0713749" lon="-105.229789">
  <ele>1583.0</ele>
  <time>2026-08-28T17:48:34Z</time>
  <course>0.0</course>
  <speed>0.0</speed>
  <fix>3d</fix>
</trkpt>
<trkpt lat="40.071375" lon="-105.2297889">
  <ele>1582.94</ele>
  <time>2026-08-28T17:48:34Z</time>
  <course>247.02</course>
  <speed>0.0</speed>
  <fix>3d</fix>
</trkpt>
<trkpt lat="40.0713749" lon="-105.229789">
  <ele>1583.0</ele>
  <time>2026-08-28T17:48:34Z</time>
  <course>0.0</course>
  <speed>0.0</speed>
  <fix>3d</fix>
</trkpt>
<trkpt lat="40.071375" lon="-105.2297889">
  <ele>1582.93</ele>
  <time>2026-08-28T17:48:34Z</time>
  <course>247.02</course>
  <speed>0.0</speed>
  <fix>3d</fix>
</trkpt>
<trkpt lat="40.0713749" lon="-105.229789">
  <ele>1583.0</ele>
  <time>2026-08-28T17:48:34Z</time>
  <course>0.0</course>
  <speed>0.0</speed>
  <fix>3d</fix>
</trkpt>
<trkpt lat="40.071375" lon="-105.2297889">
  <ele>1582.93</ele>
  <time>2026-08-28T17:48:34Z</time>
  <course>247.02</course>
  <speed>0.0</speed>
  <fix>3d</fix>
</trkpt>
<trkpt lat="40.0713749" lon="-105.229789">
  <ele>1583.0</ele>
  <time>2026-08-28T17:48:34Z</time>
  <course>0.0</course>
  <speed>0.0</speed>
  <fix>3d</fix>
</trkpt>
<trkpt lat="40.071375" lon="-105.2297889">
  <ele>1582.93</ele>
  <time>2026-08-28T17:48:34Z</time>
  <course>247.02</course>
  <speed>0.0</speed>
  <fix>3d</fix>
</trkpt>
<trkpt lat="40.0713749" lon="-105.229789">
  <ele>1583.0</ele>
  <time>2026-08-28T17:48:34Z</time>
  <course>0.0</course>
  <speed>0.0</speed>
  <fix>3d</fix>
</trkpt>
<trkpt lat="40.071375" lon="-105.2297889">
  <ele>1582.93</ele>
  <time>2026-08-28T17:48:34Z</time>
  <course>247.02</course>
  <speed>0.0</speed>
  <fix>3d</fix>
</trkpt>
<trkpt lat="40.0713749" lon="-105.229789">
  <ele>1583.0</ele>
  <time>2026-08-28T17:48:34Z</time>
  <course>0.0</course>
  <speed>0.0</speed>
  <fix>3d</fix>
</trkpt>
<trkpt lat="40.071375" lon="-105.2297889">
  <ele>1582.93</ele>
  <time>2026-08-28T17:48:34Z</time>
  <course>247.02</course>
  <speed>0.0</speed>
  <fix>3d</fix>
</trkpt>
<trkpt lat="40.0713749" lon="-105.229789">
  <ele>1583.0</ele>
  <time>2026-08-28T17:48:34Z</time>
  <course>0.0</course>
  <speed>0.0</speed>
  <fix>3d</fix>
</trkpt>
<trkpt lat="40.071375" lon="-105.2297889">
  <ele>1582.93</ele>
  <time>2026-08-28T17:48:34Z</time>
  <course>247.01</course>
  <speed>0.0</speed>
  <fix>3d</fix>
</trkpt>
<trkpt lat="40.0713749" lon="-105.229789">
  <ele>1583.0</ele>
  <time>2026-08-28T17:48:34Z</time>
  <course>0.0</course>
  <speed>0.0</speed>
  <fix>3d</fix>
</trkpt>
<trkpt lat="40.071375" lon="-105.2297889">
  <ele>1582.92</ele>
  <time>2026-08-28T17:48:34Z</time>
  <course>247.01</course>
  <speed>0.0</speed>
  <fix>3d</fix>
</trkpt>
<trkpt lat="40.0713749" lon="-105.229789">
  <ele>1583.0</ele>
  <time>2026-08-28T17:48:34Z</time>
  <course>0.0</course>
  <speed>0.0</speed>
  <fix>3d</fix>
</trkpt>
<trkpt lat="40.071375" lon="-105.2297889">
  <ele>1582.93</ele>
  <time>2026-08-28T17:48:34Z</time>
  <course>247.01</course>
  <speed>0.0</speed>
  <fix>3d</fix>
</trkpt>
<trkpt lat="40.0713749" lon="-105.229789">
  <ele>1583.0</ele>
  <time>2026-08-28T17:48:34Z</time>
  <course>0.0</course>
  <speed>0.0</speed>
  <fix>3d</fix>
</trkpt>
<trkpt lat="40.071375" lon="-105.2297889">
  <ele>1582.92</ele>
  <time>2026-08-28T17:48:34Z</time>
  <course>247.01</course>
  <speed>0.0</speed>
  <fix>3d</fix>
</trkpt>
<trkpt lat="40.0713749" lon="-105.229789">
  <ele>1583.0</ele>
  <time>2026-08-28T17:48:34Z</time>
  <course>0.0</course>
  <speed>0.0</speed>
  <fix>3d</fix>
</trkpt>
<trkpt lat="40.071375" lon="-105.2297889">
  <ele>1582.93</ele>
  <time>2026-08-28T17:48:34Z</time>
  <course>247.01</course>
  <speed>0.0</speed>
  <fix>3d</fix>
</trkpt>
<trkpt lat="40.0713749" lon="-105.229789">
  <ele>1583.0</ele>
  <time>2026-08-28T17:48:34Z</time>
  <course>0.0</course>
  <speed>0.0</speed>
  <fix>3d</fix>
</trkpt>
<trkpt lat="40.071375" lon="-105.2297889">
  <ele>1582.93</ele>
  <time>2026-08-28T17:48:34Z</time>
  <course>247.0</course>
  <speed>0.0</speed>
  <fix>3d</fix>
</trkpt>
<trkpt lat="40.0713749" lon="-105.229789">
  <ele>1583.0</ele>
  <time>2026-08-28T17:48:34Z</time>
  <course>0.0</course>
  <speed>0.0</speed>
  <fix>3d</fix>
</trkpt>
<trkpt lat="40.071375" lon="-105.2297889">
  <ele>1582.93</ele>
  <time>2026-08-28T17:48:34Z</time>
  <course>247.0</course>
  <speed>0.0</speed>
  <fix>3d</fix>
</trkpt>
<trkpt lat="40.0713749" lon="-105.229789">
  <ele>1583.0</ele>
  <time>2026-08-28T17:48:34Z</time>
  <course>0.0</course>
  <speed>0.0</speed>
  <fix>3d</fix>
</trkpt>
<trkpt lat="40.071375" lon="-105.2297889">
  <ele>1582.93</ele>
  <time>2026-08-28T17:48:34Z</time>
  <course>247.0</course>
  <speed>0.0</speed>
  <fix>3d</fix>
</trkpt>
<trkpt lat="40.0713749" lon="-105.229789">
  <ele>1583.0</ele>
  <time>2026-08-28T17:48:34Z</time>
  <course>0.0</course>
  <speed>0.0</speed>
  <fix>3d</fix>
</trkpt>
<trkpt lat="40.071375" lon="-105.2297889">
  <ele>1582.92</ele>
  <time>2026-08-28T17:48:34Z</time>
  <course>247.0</course>
  <speed>0.0</speed>
  <fix>3d</fix>
</trkpt>
<trkpt lat="40.0713749" lon="-105.229789">
  <ele>1583.0</ele>
  <time>2026-08-28T17:48:34Z</time>
  <course>0.0</course>
  <speed>0.0</speed>
  <fix>3d</fix>
</trkpt>
<trkpt lat="40.071375" lon="-105.2297889">
  <ele>1582.92</ele>
  <time>2026-08-28T17:48:34Z</time>
  <course>247.0</course>
  <speed>0.0</speed>
  <fix>3d</fix>
</trkpt>
<trkpt lat="40.0713749" lon="-105.229789">
  <ele>1583.0</ele>
  <time>2026-08-28T17:48:34Z</time>
  <course>0.0</course>
  <speed>0.0</speed>
  <fix>3d</fix>
</trkpt>
<trkpt lat="40.071375" lon="-105.2297889">
  <ele>1582.92</ele>
  <time>2026-08-28T17:48:34Z</time>
  <course>247.0</course>
  <speed>0.0</speed>
  <fix>3d</fix>
</trkpt>
<trkpt lat="40.0713749" lon="-105.229789">
  <ele>1583.0</ele>
  <time>2026-08-28T17:48:34Z</time>
  <course>0.0</course>
  <speed>0.0</speed>
  <fix>3d</fix>
</trkpt>
<trkpt lat="40.071375" lon="-105.2297889">
  <ele>1582.92</ele>
  <time>2026-08-28T17:48:34Z</time>
  <course>246.99</course>
  <speed>0.0</speed>
  <fix>3d</fix>
</trkpt>
<trkpt lat="40.0713749" lon="-105.229789">
  <ele>1583.0</ele>
  <time>2026-08-28T17:48:34Z</time>
  <course>0.0</course>
  <speed>0.0</speed>
  <fix>3d</fix>
</trkpt>
<trkpt lat="40.071375" lon="-105.2297889">
  <ele>1582.92</ele>
  <time>2026-08-28T17:48:34Z</time>
  <course>246.99</course>
  <speed>0.0</speed>
  <fix>3d</fix>
</trkpt>
<trkpt lat="40.0713749" lon="-105.229789">
  <ele>1583.0</ele>
  <time>2026-08-28T17:48:34Z</time>
  <course>0.0</course>
  <speed>0.0</speed>
  <fix>3d</fix>
</trkpt>
<trkpt lat="40.071375" lon="-105.2297889">
  <ele>1582.92</ele>
  <time>2026-08-28T17:48:34Z</time>
  <course>246.99</course>
  <speed>0.0</speed>
  <fix>3d</fix>
</trkpt>
<trkpt lat="40.0713749" lon="-105.229789">
  <ele>1583.0</ele>
  <time>2026-08-28T17:48:34Z</time>
  <course>0.0</course>
  <speed>0.0</speed>
  <fix>3d</fix>
</trkpt>
<trkpt lat="40.071375" lon="-105.2297889">
  <ele>1582.92</ele>
  <time>2026-08-28T17:48:34Z</time>
  <course>246.99</course>
  <speed>0.0</speed>
  <fix>3d</fix>
</trkpt>
<trkpt lat="40.0713749" lon="-105.229789">
  <ele>1583.0</ele>
  <time>2026-08-28T17:48:34Z</time>
  <course>0.0</course>
  <speed>0.0</speed>
  <fix>3d</fix>
</trkpt>
<trkpt lat="40.071375" lon="-105.2297889">
  <ele>1582.91</ele>
  <time>2026-08-28T17:48:34Z</time>
  <course>246.99</course>
  <speed>0.0</speed>
  <fix>3d</fix>
</trkpt>
<trkpt lat="40.0713749" lon="-105.229789">
  <ele>1583.0</ele>
  <time>2026-08-28T17:48:34Z</time>
  <course>0.0</course>
  <speed>0.0</speed>
  <fix>3d</fix>
</trkpt>
<trkpt lat="40.071375" lon="-105.2297889">
  <ele>1582.91</ele>
  <time>2026-08-28T17:48:34Z</time>
  <course>246.98</course>
  <speed>0.0</speed>
  <fix>3d</fix>
</trkpt>
<trkpt lat="40.0713749" lon="-105.229789">
  <ele>1583.0</ele>
  <time>2026-08-28T17:48:34Z</time>
  <course>0.0</course>
  <speed>0.0</speed>
  <fix>3d</fix>
</trkpt>
<trkpt lat="40.071375" lon="-105.2297889">
  <ele>1582.91</ele>
  <time>2026-08-28T17:48:34Z</time>
  <course>246.98</course>
  <speed>0.0</speed>
  <fix>3d</fix>
</trkpt>
<trkpt lat="40.0713749" lon="-105.229789">
  <ele>1583.0</ele>
  <time>2026-08-28T17:48:34Z</time>
  <course>0.0</course>
  <speed>0.0</speed>
  <fix>3d</fix>
</trkpt>
<trkpt lat="40.071375" lon="-105.2297889">
  <ele>1582.91</ele>
  <time>2026-08-28T17:48:34Z</time>
  <course>246.98</course>
  <speed>0.0</speed>
  <fix>3d</fix>
</trkpt>
<trkpt lat="40.0713749" lon="-105.229789">
  <ele>1583.0</ele>
  <time>2026-08-28T17:48:34Z</time>
  <course>0.0</course>
  <speed>0.0</speed>
  <fix>3d</fix>
</trkpt>
<trkpt lat="40.071375" lon="-105.2297889">
  <ele>1582.91</ele>
  <time>2026-08-28T17:48:34Z</time>
  <course>246.98</course>
  <speed>0.0</speed>
  <fix>3d</fix>
</trkpt>
<trkpt lat="40.0713749" lon="-105.229789">
  <ele>1583.0</ele>
  <time>2026-08-28T17:48:34Z</time>
  <course>0.0</course>
  <speed>0.0</speed>
  <fix>3d</fix>
</trkpt>
<trkpt lat="40.071375" lon="-105.2297889">
  <ele>1582.91</ele>
  <time>2026-08-28T17:48:34Z</time>
  <course>246.98</course>
  <speed>0.0</speed>
  <fix>3d</fix>
</trkpt>
<trkpt lat="40.0713749" lon="-105.229789">
  <ele>1583.0</ele>
  <time>2026-08-28T17:48:34Z</time>
  <course>0.0</course>
  <speed>0.0</speed>
  <fix>3d</fix>
</trkpt>
<trkpt lat="40.071375" lon="-105.2297889">
  <ele>1582.91</ele>
  <time>2026-08-28T17:48:34Z</time>
  <course>246.97</course>
  <speed>0.0</speed>
  <fix>3d</fix>
</trkpt>
<trkpt lat="40.0713749" lon="-105.229789">
  <ele>1583.0</ele>
  <time>2026-08-28T17:48:34Z</time>
  <course>0.0</course>
  <speed>0.0</speed>
  <fix>3d</fix>
</trkpt>
<trkpt lat="40.071375" lon="-105.2297889">
  <ele>1582.91</ele>
  <time>2026-08-28T17:48:34Z</time>
  <course>246.97</course>
  <speed>0.0</speed>
  <fix>3d</fix>
</trkpt>
<trkpt lat="40.0713749" lon="-105.229789">
  <ele>1583.0</ele>
  <time>2026-08-28T17:48:34Z</time>
  <course>0.0</course>
  <speed>0.0</speed>
  <fix>3d</fix>
</trkpt>
<trkpt lat="40.071375" lon="-105.2297889">
  <ele>1582.91</ele>
  <time>2026-08-28T17:48:34Z</time>
  <course>246.97</course>
  <speed>0.0</speed>
  <fix>3d</fix>
</trkpt>
<trkpt lat="40.0713749" lon="-105.229789">
  <ele>1583.0</ele>
  <time>2026-08-28T17:48:34Z</time>
  <course>0.0</course>
  <speed>0.0</speed>
  <fix>3d</fix>
</trkpt>
<trkpt lat="40.071375" lon="-105.2297889">
  <ele>1582.91</ele>
  <time>2026-08-28T17:48:34Z</time>
  <course>246.97</course>
  <speed>0.0</speed>
  <fix>3d</fix>
</trkpt>
<trkpt lat="40.0713749" lon="-105.229789">
  <ele>1583.0</ele>
  <time>2026-08-28T17:48:34Z</time>
  <course>0.0</course>
  <speed>0.0</speed>
  <fix>3d</fix>
</trkpt>
<trkpt lat="40.071375" lon="-105.2297889">
  <ele>1582.92</ele>
  <time>2026-08-28T17:48:34Z</time>
  <course>246.97</course>
  <speed>0.0</speed>
  <fix>3d</fix>
</trkpt>
<trkpt lat="40.0713749" lon="-105.229789">
  <ele>1583.0</ele>
  <time>2026-08-28T17:48:34Z</time>
  <course>0.0</course>
  <speed>0.0</speed>
  <fix>3d</fix>
</trkpt>
<trkpt lat="40.071375" lon="-105.2297889">
  <ele>1582.92</ele>
  <time>2026-08-28T17:48:34Z</time>
  <course>246.97</course>
  <speed>0.0</speed>
  <fix>3d</fix>
</trkpt>
<trkpt lat="40.0713749" lon="-105.229789">
  <ele>1583.0</ele>
  <time>2026-08-28T17:48:34Z</time>
  <course>0.0</course>
  <speed>0.0</speed>
  <fix>3d</fix>
</trkpt>
<trkpt lat="40.071375" lon="-105.2297889">
  <ele>1582.93</ele>
  <time>2026-08-28T17:48:34Z</time>
  <course>246.96</course>
  <speed>0.0</speed>
  <fix>3d</fix>
</trkpt>
<trkpt lat="40.0713749" lon="-105.229789">
  <ele>1583.0</ele>
  <time>2026-08-28T17:48:34Z</time>
  <course>0.0</course>
  <speed>0.0</speed>
  <fix>3d</fix>
</trkpt>
<trkpt lat="40.071375" lon="-105.2297889">
  <ele>1582.93</ele>
  <time>2026-08-28T17:48:34Z</time>
  <course>246.96</course>
  <speed>0.0</speed>
  <fix>3d</fix>
</trkpt>
<trkpt lat="40.0713749" lon="-105.229789">
  <ele>1583.0</ele>
  <time>2026-08-28T17:48:34Z</time>
  <course>0.0</course>
  <speed>0.0</speed>
  <fix>3d</fix>
</trkpt>
<trkpt lat="40.071375" lon="-105.2297889">
  <ele>1582.93</ele>
  <time>2026-08-28T17:48:34Z</time>
  <course>246.96</course>
  <speed>0.0</speed>
  <fix>3d</fix>
</trkpt>
<trkpt lat="40.0713749" lon="-105.229789">
  <ele>1583.0</ele>
  <time>2026-08-28T17:48:34Z</time>
  <course>0.0</course>
  <speed>0.0</speed>
  <fix>3d</fix>
</trkpt>
<trkpt lat="40.071375" lon="-105.2297889">
  <ele>1582.93</ele>
  <time>2026-08-28T17:48:34Z</time>
  <course>246.96</course>
  <speed>0.0</speed>
  <fix>3d</fix>
</trkpt>
<trkpt lat="40.0713749" lon="-105.229789">
  <ele>1583.0</ele>
  <time>2026-08-28T17:48:34Z</time>
  <course>0.0</course>
  <speed>0.0</speed>
  <fix>3d</fix>
</trkpt>
<trkpt lat="40.071375" lon="-105.2297889">
  <ele>1582.93</ele>
  <time>2026-08-28T17:48:34Z</time>
  <course>246.96</course>
  <speed>0.0</speed>
  <fix>3d</fix>
</trkpt>
<trkpt lat="40.0713749" lon="-105.229789">
  <ele>1583.0</ele>
  <time>2026-08-28T17:48:34Z</time>
  <course>0.0</course>
  <speed>0.0</speed>
  <fix>3d</fix>
</trkpt>
<trkpt lat="40.0713751" lon="-105.2297889">
  <ele>1582.92</ele>
  <time>2026-08-28T17:48:34Z</time>
  <course>246.95</course>
  <speed>0.0</speed>
  <fix>3d</fix>
</trkpt>
<trkpt lat="40.0713749" lon="-105.229789">
  <ele>1583.0</ele>
  <time>2026-08-28T17:48:34Z</time>
  <course>0.0</course>
  <speed>0.0</speed>
  <fix>3d</fix>
</trkpt>
<trkpt lat="40.0713751" lon="-105.2297889">
  <ele>1582.92</ele>
  <time>2026-08-28T17:48:34Z</time>
  <course>246.95</course>
  <speed>0.0</speed>
  <fix>3d</fix>
</trkpt>
<trkpt lat="40.0713749" lon="-105.229789">
  <ele>1583.0</ele>
  <time>2026-08-28T17:48:34Z</time>
  <course>0.0</course>
  <speed>0.0</speed>
  <fix>3d</fix>
</trkpt>
<trkpt lat="40.0713751" lon="-105.2297889">
  <ele>1582.92</ele>
  <time>2026-08-28T17:48:34Z</time>
  <course>246.95</course>
  <speed>0.0</speed>
  <fix>3d</fix>
</trkpt>
<trkpt lat="40.0713749" lon="-105.229789">
  <ele>1583.0</ele>
  <time>2026-08-28T17:48:34Z</time>
  <course>0.0</course>
  <speed>0.0</speed>
  <fix>3d</fix>
</trkpt>
<trkpt lat="40.0713751" lon="-105.2297889">
  <ele>1582.92</ele>
  <time>2026-08-28T17:48:34Z</time>
  <course>246.95</course>
  <speed>0.0</speed>
  <fix>3d</fix>
</trkpt>
<trkpt lat="40.0713749" lon="-105.229789">
  <ele>1583.0</ele>
  <time>2026-08-28T17:48:34Z</time>
  <course>0.0</course>
  <speed>0.0</speed>
  <fix>3d</fix>
</trkpt>
<trkpt lat="40.0713751" lon="-105.2297889">
  <ele>1582.92</ele>
  <time>2026-08-28T17:48:34Z</time>
  <course>246.95</course>
  <speed>0.0</speed>
  <fix>3d</fix>
</trkpt>
<trkpt lat="40.0713749" lon="-105.229789">
  <ele>1583.0</ele>
  <time>2026-08-28T17:48:34Z</time>
  <course>0.0</course>
  <speed>0.0</speed>
  <fix>3d</fix>
</trkpt>
<trkpt lat="40.0713751" lon="-105.2297889">
  <ele>1582.92</ele>
  <time>2026-08-28T17:48:34Z</time>
  <course>246.94</course>
  <speed>0.0</speed>
  <fix>3d</fix>
</trkpt>
<trkpt lat="40.0713749" lon="-105.229789">
  <ele>1583.0</ele>
  <time>2026-08-28T17:48:34Z</time>
  <course>0.0</course>
  <speed>0.0</speed>
  <fix>3d</fix>
</trkpt>
<trkpt lat="40.0713751" lon="-105.2297889">
  <ele>1582.92</ele>
  <time>2026-08-28T17:48:34Z</time>
  <course>246.94</course>
  <speed>0.0</speed>
  <fix>3d</fix>
</trkpt>
<trkpt lat="40.0713749" lon="-105.229789">
  <ele>1583.0</ele>
  <time>2026-08-28T17:48:34Z</time>
  <course>0.0</course>
  <speed>0.0</speed>
  <fix>3d</fix>
</trkpt>
<trkpt lat="40.0713751" lon="-105.2297889">
  <ele>1582.92</ele>
  <time>2026-08-28T17:48:34Z</time>
  <course>246.94</course>
  <speed>0.0</speed>
  <fix>3d</fix>
</trkpt>
<trkpt lat="40.0713749" lon="-105.229789">
  <ele>1583.0</ele>
  <time>2026-08-28T17:48:34Z</time>
  <course>0.0</course>
  <speed>0.0</speed>
  <fix>3d</fix>
</trkpt>
<trkpt lat="40.0713751" lon="-105.2297889">
  <ele>1582.92</ele>
  <time>2026-08-28T17:48:34Z</time>
  <course>246.94</course>
  <speed>0.0</speed>
  <fix>3d</fix>
</trkpt>
<trkpt lat="40.0713749" lon="-105.229789">
  <ele>1583.0</ele>
  <time>2026-08-28T17:48:34Z</time>
  <course>0.0</course>
  <speed>0.0</speed>
  <fix>3d</fix>
</trkpt>
<trkpt lat="40.0713751" lon="-105.2297889">
  <ele>1582.92</ele>
  <time>2026-08-28T17:48:34Z</time>
  <course>246.94</course>
  <speed>0.0</speed>
  <fix>3d</fix>
</trkpt>
<trkpt lat="40.0713749" lon="-105.229789">
  <ele>1583.0</ele>
  <time>2026-08-28T17:48:34Z</time>
  <course>0.0</course>
  <speed>0.0</speed>
  <fix>3d</fix>
</trkpt>
<trkpt lat="40.0713751" lon="-105.2297889">
  <ele>1582.92</ele>
  <time>2026-08-28T17:48:34Z</time>
  <course>246.93</course>
  <speed>0.0</speed>
  <fix>3d</fix>
</trkpt>
<trkpt lat="40.0713749" lon="-105.229789">
  <ele>1583.0</ele>
  <time>2026-08-28T17:48:34Z</time>
  <course>0.0</course>
  <speed>0.0</speed>
  <fix>3d</fix>
</trkpt>
<trkpt lat="40.0713751" lon="-105.2297889">
  <ele>1582.91</ele>
  <time>2026-08-28T17:48:34Z</time>
  <course>246.93</course>
  <speed>0.0</speed>
  <fix>3d</fix>
</trkpt>
<trkpt lat="40.0713749" lon="-105.229789">
  <ele>1583.0</ele>
  <time>2026-08-28T17:48:34Z</time>
  <course>0.0</course>
  <speed>0.0</speed>
  <fix>3d</fix>
</trkpt>
<trkpt lat="40.0713751" lon="-105.2297889">
  <ele>1582.91</ele>
  <time>2026-08-28T17:48:34Z</time>
  <course>246.93</course>
  <speed>0.0</speed>
  <fix>3d</fix>
</trkpt>
<trkpt lat="40.0713749" lon="-105.229789">
  <ele>1583.0</ele>
  <time>2026-08-28T17:48:34Z</time>
  <course>0.0</course>
  <speed>0.0</speed>
  <fix>3d</fix>
</trkpt>
<trkpt lat="40.0713751" lon="-105.2297889">
  <ele>1582.91</ele>
  <time>2026-08-28T17:48:34Z</time>
  <course>246.93</course>
  <speed>0.0</speed>
  <fix>3d</fix>
</trkpt>
<trkpt lat="40.0713749" lon="-105.229789">
  <ele>1583.0</ele>
  <time>2026-08-28T17:48:34Z</time>
  <course>0.0</course>
  <speed>0.0</speed>
  <fix>3d</fix>
</trkpt>
<trkpt lat="40.0713752" lon="-105.2297889">
  <ele>1582.9</ele>
  <time>2026-08-28T17:48:34Z</time>
  <course>246.93</course>
  <speed>0.0</speed>
  <fix>3d</fix>
</trkpt>
<trkpt lat="40.0713749" lon="-105.229789">
  <ele>1583.0</ele>
  <time>2026-08-28T17:48:34Z</time>
  <course>0.0</course>
  <speed>0.0</speed>
  <fix>3d</fix>
</trkpt>
<trkpt lat="40.0713752" lon="-105.2297889">
  <ele>1582.9</ele>
  <time>2026-08-28T17:48:34Z</time>
  <course>246.92</course>
  <speed>0.0</speed>
  <fix>3d</fix>
</trkpt>
<trkpt lat="40.0713749" lon="-105.229789">
  <ele>1583.0</ele>
  <time>2026-08-28T17:48:34Z</time>
  <course>0.0</course>
  <speed>0.0</speed>
  <fix>3d</fix>
</trkpt>
<trkpt lat="40.0713752" lon="-105.2297889">
  <ele>1582.9</ele>
  <time>2026-08-28T17:48:34Z</time>
  <course>246.92</course>
  <speed>0.0</speed>
  <fix>3d</fix>
</trkpt>
<trkpt lat="40.0713749" lon="-105.229789">
  <ele>1583.0</ele>
  <time>2026-08-28T17:48:34Z</time>
  <course>0.0</course>
  <speed>0.0</speed>
  <fix>3d</fix>
</trkpt>
<trkpt lat="40.0713752" lon="-105.2297889">
  <ele>1582.9</ele>
  <time>2026-08-28T17:48:34Z</time>
  <course>246.92</course>
  <speed>0.0</speed>
  <fix>3d</fix>
</trkpt>
<trkpt lat="40.0713749" lon="-105.229789">
  <ele>1583.0</ele>
  <time>2026-08-28T17:48:34Z</time>
  <course>0.0</course>
  <speed>0.0</speed>
  <fix>3d</fix>
</trkpt>
<trkpt lat="40.0713752" lon="-105.2297889">
  <ele>1582.89</ele>
  <time>2026-08-28T17:48:34Z</time>
  <course>246.92</course>
  <speed>0.0</speed>
  <fix>3d</fix>
</trkpt>
<trkpt lat="40.0713749" lon="-105.229789">
  <ele>1583.0</ele>
  <time>2026-08-28T17:48:34Z</time>
  <course>0.0</course>
  <speed>0.0</speed>
  <fix>3d</fix>
</trkpt>
<trkpt lat="40.0713752" lon="-105.2297889">
  <ele>1582.89</ele>
  <time>2026-08-28T17:48:34Z</time>
  <course>246.92</course>
  <speed>0.0</speed>
  <fix>3d</fix>
</trkpt>
<trkpt lat="40.0713749" lon="-105.229789">
  <ele>1583.0</ele>
  <time>2026-08-28T17:48:34Z</time>
  <course>0.0</course>
  <speed>0.0</speed>
  <fix>3d</fix>
</trkpt>
<trkpt lat="40.0713752" lon="-105.2297889">
  <ele>1582.89</ele>
  <time>2026-08-28T17:48:34Z</time>
  <course>246.91</course>
  <speed>0.0</speed>
  <fix>3d</fix>
</trkpt>
<trkpt lat="40.0713749" lon="-105.229789">
  <ele>1583.0</ele>
  <time>2026-08-28T17:48:34Z</time>
  <course>0.0</course>
  <speed>0.0</speed>
  <fix>3d</fix>
</trkpt>
<trkpt lat="40.0713752" lon="-105.2297889">
  <ele>1582.89</ele>
  <time>2026-08-28T17:48:34Z</time>
  <course>246.91</course>
  <speed>0.0</speed>
  <fix>3d</fix>
</trkpt>
<trkpt lat="40.0713749" lon="-105.229789">
  <ele>1583.0</ele>
  <time>2026-08-28T17:48:34Z</time>
  <course>0.0</course>
  <speed>0.0</speed>
  <fix>3d</fix>
</trkpt>
<trkpt lat="40.0713752" lon="-105.2297889">
  <ele>1582.88</ele>
  <time>2026-08-28T17:48:34Z</time>
  <course>246.91</course>
  <speed>0.0</speed>
  <fix>3d</fix>
</trkpt>
<trkpt lat="40.0713749" lon="-105.229789">
  <ele>1583.0</ele>
  <time>2026-08-28T17:48:34Z</time>
  <course>0.0</course>
  <speed>0.0</speed>
  <fix>3d</fix>
</trkpt>
<trkpt lat="40.0713752" lon="-105.2297889">
  <ele>1582.88</ele>
  <time>2026-08-28T17:48:34Z</time>
  <course>246.91</course>
  <speed>0.0</speed>
  <fix>3d</fix>
</trkpt>
<trkpt lat="40.0713749" lon="-105.229789">
  <ele>1583.0</ele>
  <time>2026-08-28T17:48:34Z</time>
  <course>0.0</course>
  <speed>0.0</speed>
  <fix>3d</fix>
</trkpt>
<trkpt lat="40.0713752" lon="-105.2297889">
  <ele>1582.88</ele>
  <time>2026-08-28T17:48:34Z</time>
  <course>246.9</course>
  <speed>0.0</speed>
  <fix>3d</fix>
</trkpt>
<trkpt lat="40.0713749" lon="-105.229789">
  <ele>1583.0</ele>
  <time>2026-08-28T17:48:34Z</time>
  <course>0.0</course>
  <speed>0.0</speed>
  <fix>3d</fix>
</trkpt>
<trkpt lat="40.0713752" lon="-105.2297888">
  <ele>1582.87</ele>
  <time>2026-08-28T17:48:34Z</time>
  <course>246.9</course>
  <speed>0.0</speed>
  <fix>3d</fix>
</trkpt>
<trkpt lat="40.0713749" lon="-105.229789">
  <ele>1583.0</ele>
  <time>2026-08-28T17:48:34Z</time>
  <course>0.0</course>
  <speed>0.0</speed>
  <fix>3d</fix>
</trkpt>
<trkpt lat="40.0713752" lon="-105.2297888">
  <ele>1582.87</ele>
  <time>2026-08-28T17:48:34Z</time>
  <course>246.9</course>
  <speed>0.0</speed>
  <fix>3d</fix>
</trkpt>
<trkpt lat="40.0713749" lon="-105.229789">
  <ele>1583.0</ele>
  <time>2026-08-28T17:48:34Z</time>
  <course>0.0</course>
  <speed>0.0</speed>
  <fix>3d</fix>
</trkpt>
<trkpt lat="40.0713752" lon="-105.2297888">
  <ele>1582.87</ele>
  <time>2026-08-28T17:48:34Z</time>
  <course>246.9</course>
  <speed>0.0</speed>
  <fix>3d</fix>
</trkpt>
<trkpt lat="40.0713749" lon="-105.229789">
  <ele>1583.0</ele>
  <time>2026-08-28T17:48:34Z</time>
  <course>0.0</course>
  <speed>0.0</speed>
  <fix>3d</fix>
</trkpt>
<trkpt lat="40.0713752" lon="-105.2297888">
  <ele>1582.87</ele>
  <time>2026-08-28T17:48:34Z</time>
  <course>246.89</course>
  <speed>0.0</speed>
  <fix>3d</fix>
</trkpt>
<trkpt lat="40.0713749" lon="-105.229789">
  <ele>1583.0</ele>
  <time>2026-08-28T17:48:34Z</time>
  <course>0.0</course>
  <speed>0.0</speed>
  <fix>3d</fix>
</trkpt>
<trkpt lat="40.0713752" lon="-105.2297888">
  <ele>1582.87</ele>
  <time>2026-08-28T17:48:34Z</time>
  <course>246.89</course>
  <speed>0.0</speed>
  <fix>3d</fix>
</trkpt>
<trkpt lat="40.0713749" lon="-105.229789">
  <ele>1583.0</ele>
  <time>2026-08-28T17:48:34Z</time>
  <course>0.0</course>
  <speed>0.0</speed>
  <fix>3d</fix>
</trkpt>
<trkpt lat="40.0713752" lon="-105.2297888">
  <ele>1582.87</ele>
  <time>2026-08-28T17:48:34Z</time>
  <course>246.89</course>
  <speed>0.0</speed>
  <fix>3d</fix>
</trkpt>
<trkpt lat="40.0713749" lon="-105.229789">
  <ele>1583.0</ele>
  <time>2026-08-28T17:48:34Z</time>
  <course>0.0</course>
  <speed>0.0</speed>
  <fix>3d</fix>
</trkpt>
<trkpt lat="40.0713752" lon="-105.2297888">
  <ele>1582.88</ele>
  <time>2026-08-28T17:48:34Z</time>
  <course>246.89</course>
  <speed>0.0</speed>
  <fix>3d</fix>
</trkpt>
<trkpt lat="40.0713749" lon="-105.229789">
  <ele>1583.0</ele>
  <time>2026-08-28T17:48:34Z</time>
  <course>0.0</course>
  <speed>0.0</speed>
  <fix>3d</fix>
</trkpt>
<trkpt lat="40.0713752" lon="-105.2297888">
  <ele>1582.88</ele>
  <time>2026-08-28T17:48:34Z</time>
  <course>246.89</course>
  <speed>0.0</speed>
  <fix>3d</fix>
</trkpt>
<trkpt lat="40.0713749" lon="-105.229789">
  <ele>1583.0</ele>
  <time>2026-08-28T17:48:34Z</time>
  <course>0.0</course>
  <speed>0.0</speed>
  <fix>3d</fix>
</trkpt>
<trkpt lat="40.0713752" lon="-105.2297888">
  <ele>1582.89</ele>
  <time>2026-08-28T17:48:34Z</time>
  <course>246.88</course>
  <speed>0.0</speed>
  <fix>3d</fix>
</trkpt>
<trkpt lat="40.0713749" lon="-105.229789">
  <ele>1583.0</ele>
  <time>2026-08-28T17:48:34Z</time>
  <course>0.0</course>
  <speed>0.0</speed>
  <fix>3d</fix>
</trkpt>
<trkpt lat="40.0713752" lon="-105.2297888">
  <ele>1582.89</ele>
  <time>2026-08-28T17:48:34Z</time>
  <course>246.88</course>
  <speed>0.0</speed>
  <fix>3d</fix>
</trkpt>
<trkpt lat="40.0713749" lon="-105.229789">
  <ele>1583.0</ele>
  <time>2026-08-28T17:48:34Z</time>
  <course>0.0</course>
  <speed>0.0</speed>
  <fix>3d</fix>
</trkpt>
<trkpt lat="40.0713752" lon="-105.2297888">
  <ele>1582.9</ele>
  <time>2026-08-28T17:48:34Z</time>
  <course>246.88</course>
  <speed>0.0</speed>
  <fix>3d</fix>
</trkpt>
<trkpt lat="40.0713749" lon="-105.229789">
  <ele>1583.0</ele>
  <time>2026-08-28T17:48:34Z</time>
  <course>0.0</course>
  <speed>0.0</speed>
  <fix>3d</fix>
</trkpt>
<trkpt lat="40.0713752" lon="-105.2297888">
  <ele>1582.9</ele>
  <time>2026-08-28T17:48:34Z</time>
  <course>246.88</course>
  <speed>0.0</speed>
  <fix>3d</fix>
</trkpt>
<trkpt lat="40.0713749" lon="-105.229789">
  <ele>1583.0</ele>
  <time>2026-08-28T17:48:34Z</time>
  <course>0.0</course>
  <speed>0.0</speed>
  <fix>3d</fix>
</trkpt>
<trkpt lat="40.0713752" lon="-105.2297888">
  <ele>1582.91</ele>
  <time>2026-08-28T17:48:34Z</time>
  <course>246.87</course>
  <speed>0.0</speed>
  <fix>3d</fix>
</trkpt>
<trkpt lat="40.0713749" lon="-105.229789">
  <ele>1583.0</ele>
  <time>2026-08-28T17:48:34Z</time>
  <course>0.0</course>
  <speed>0.0</speed>
  <fix>3d</fix>
</trkpt>
<trkpt lat="40.0713752" lon="-105.2297888">
  <ele>1582.91</ele>
  <time>2026-08-28T17:48:34Z</time>
  <course>246.87</course>
  <speed>0.0</speed>
  <fix>3d</fix>
</trkpt>
<trkpt lat="40.0713749" lon="-105.229789">
  <ele>1583.0</ele>
  <time>2026-08-28T17:48:34Z</time>
  <course>0.0</course>
  <speed>0.0</speed>
  <fix>3d</fix>
</trkpt>
<trkpt lat="40.0713752" lon="-105.2297888">
  <ele>1582.92</ele>
  <time>2026-08-28T17:48:34Z</time>
  <course>246.87</course>
  <speed>0.0</speed>
  <fix>3d</fix>
</trkpt>
<trkpt lat="40.0713749" lon="-105.229789">
  <ele>1583.0</ele>
  <time>2026-08-28T17:48:34Z</time>
  <course>0.0</course>
  <speed>0.0</speed>
  <fix>3d</fix>
</trkpt>
<trkpt lat="40.0713752" lon="-105.2297888">
  <ele>1582.92</ele>
  <time>2026-08-28T17:48:34Z</time>
  <course>246.87</course>
  <speed>0.0</speed>
  <fix>3d</fix>
</trkpt>
<trkpt lat="40.0713749" lon="-105.229789">
  <ele>1583.0</ele>
  <time>2026-08-28T17:48:34Z</time>
  <course>0.0</course>
  <speed>0.0</speed>
  <fix>3d</fix>
</trkpt>
<trkpt lat="40.0713752" lon="-105.2297888">
  <ele>1582.92</ele>
  <time>2026-08-28T17:48:34Z</time>
  <course>246.87</course>
  <speed>0.0</speed>
  <fix>3d</fix>
</trkpt>
<trkpt lat="40.0713749" lon="-105.229789">
  <ele>1583.0</ele>
  <time>2026-08-28T17:48:34Z</time>
  <course>0.0</course>
  <speed>0.0</speed>
  <fix>3d</fix>
</trkpt>
<trkpt lat="40.0713752" lon="-105.2297888">
  <ele>1582.91</ele>
  <time>2026-08-28T17:48:34Z</time>
  <course>246.86</course>
  <speed>0.0</speed>
  <fix>3d</fix>
</trkpt>
<trkpt lat="40.0713749" lon="-105.229789">
  <ele>1583.0</ele>
  <time>2026-08-28T17:48:34Z</time>
  <course>0.0</course>
  <speed>0.0</speed>
  <fix>3d</fix>
</trkpt>
<trkpt lat="40.0713752" lon="-105.2297888">
  <ele>1582.92</ele>
  <time>2026-08-28T17:48:34Z</time>
  <course>246.86</course>
  <speed>0.0</speed>
  <fix>3d</fix>
</trkpt>
<trkpt lat="40.0713749" lon="-105.229789">
  <ele>1583.0</ele>
  <time>2026-08-28T17:48:34Z</time>
  <course>0.0</course>
  <speed>0.0</speed>
  <fix>3d</fix>
</trkpt>
<trkpt lat="40.0713752" lon="-105.2297888">
  <ele>1582.92</ele>
  <time>2026-08-28T17:48:34Z</time>
  <course>246.86</course>
  <speed>0.0</speed>
  <fix>3d</fix>
</trkpt>
<trkpt lat="40.0713749" lon="-105.229789">
  <ele>1583.0</ele>
  <time>2026-08-28T17:48:34Z</time>
  <course>0.0</course>
  <speed>0.0</speed>
  <fix>3d</fix>
</trkpt>
<trkpt lat="40.0713752" lon="-105.2297888">
  <ele>1582.92</ele>
  <time>2026-08-28T17:48:34Z</time>
  <course>246.86</course>
  <speed>0.0</speed>
  <fix>3d</fix>
</trkpt>
<trkpt lat="40.0713749" lon="-105.229789">
  <ele>1583.0</ele>
  <time>2026-08-28T17:48:34Z</time>
  <course>0.0</course>
  <speed>0.0</speed>
  <fix>3d</fix>
</trkpt>
<trkpt lat="40.0713752" lon="-105.2297888">
  <ele>1582.93</ele>
  <time>2026-08-28T17:48:34Z</time>
  <course>246.85</course>
  <speed>0.0</speed>
  <fix>3d</fix>
</trkpt>
<trkpt lat="40.0713749" lon="-105.229789">
  <ele>1583.0</ele>
  <time>2026-08-28T17:48:34Z</time>
  <course>0.0</course>
  <speed>0.0</speed>
  <fix>3d</fix>
</trkpt>
<trkpt lat="40.0713752" lon="-105.2297888">
  <ele>1582.93</ele>
  <time>2026-08-28T17:48:34Z</time>
  <course>246.85</course>
  <speed>0.0</speed>
  <fix>3d</fix>
</trkpt>
<trkpt lat="40.0713749" lon="-105.229789">
  <ele>1583.0</ele>
  <time>2026-08-28T17:48:34Z</time>
  <course>0.0</course>
  <speed>0.0</speed>
  <fix>3d</fix>
</trkpt>
<trkpt lat="40.0713752" lon="-105.2297888">
  <ele>1582.94</ele>
  <time>2026-08-28T17:48:34Z</time>
  <course>246.85</course>
  <speed>0.0</speed>
  <fix>3d</fix>
</trkpt>
<trkpt lat="40.0713749" lon="-105.229789">
  <ele>1583.0</ele>
  <time>2026-08-28T17:48:34Z</time>
  <course>0.0</course>
  <speed>0.0</speed>
  <fix>3d</fix>
</trkpt>
<trkpt lat="40.0713752" lon="-105.2297888">
  <ele>1582.94</ele>
  <time>2026-08-28T17:48:34Z</time>
  <course>246.85</course>
  <speed>0.0</speed>
  <fix>3d</fix>
</trkpt>
<trkpt lat="40.0713749" lon="-105.229789">
  <ele>1583.0</ele>
  <time>2026-08-28T17:48:34Z</time>
  <course>0.0</course>
  <speed>0.0</speed>
  <fix>3d</fix>
</trkpt>
<trkpt lat="40.0713752" lon="-105.2297888">
  <ele>1582.94</ele>
  <time>2026-08-28T17:48:34Z</time>
  <course>246.84</course>
  <speed>0.0</speed>
  <fix>3d</fix>
</trkpt>
<trkpt lat="40.0713749" lon="-105.229789">
  <ele>1583.0</ele>
  <time>2026-08-28T17:48:34Z</time>
  <course>0.0</course>
  <speed>0.0</speed>
  <fix>3d</fix>
</trkpt>
<trkpt lat="40.0713752" lon="-105.2297888">
  <ele>1582.95</ele>
  <time>2026-08-28T17:48:34Z</time>
  <course>246.84</course>
  <speed>0.0</speed>
  <fix>3d</fix>
</trkpt>
<trkpt lat="40.0713749" lon="-105.229789">
  <ele>1583.0</ele>
  <time>2026-08-28T17:48:34Z</time>
  <course>0.0</course>
  <speed>0.0</speed>
  <fix>3d</fix>
</trkpt>
<trkpt lat="40.0713752" lon="-105.2297888">
  <ele>1582.95</ele>
  <time>2026-08-28T17:48:34Z</time>
  <course>246.84</course>
  <speed>0.0</speed>
  <fix>3d</fix>
</trkpt>
<trkpt lat="40.0713749" lon="-105.229789">
  <ele>1583.0</ele>
  <time>2026-08-28T17:48:34Z</time>
  <course>0.0</course>
  <speed>0.0</speed>
  <fix>3d</fix>
</trkpt>
<trkpt lat="40.0713752" lon="-105.2297888">
  <ele>1582.96</ele>
  <time>2026-08-28T17:48:34Z</time>
  <course>246.84</course>
  <speed>0.0</speed>
  <fix>3d</fix>
</trkpt>
<trkpt lat="40.0713749" lon="-105.229789">
  <ele>1583.0</ele>
  <time>2026-08-28T17:48:34Z</time>
  <course>0.0</course>
  <speed>0.0</speed>
  <fix>3d</fix>
</trkpt>
<trkpt lat="40.0713752" lon="-105.2297888">
  <ele>1582.96</ele>
  <time>2026-08-28T17:48:34Z</time>
  <course>246.83</course>
  <speed>0.0</speed>
  <fix>3d</fix>
</trkpt>
<trkpt lat="40.0713749" lon="-105.229789">
  <ele>1583.0</ele>
  <time>2026-08-28T17:48:34Z</time>
  <course>0.0</course>
  <speed>0.0</speed>
  <fix>3d</fix>
</trkpt>
<trkpt lat="40.0713752" lon="-105.2297888">
  <ele>1582.97</ele>
  <time>2026-08-28T17:48:34Z</time>
  <course>246.83</course>
  <speed>0.0</speed>
  <fix>3d</fix>
</trkpt>
<trkpt lat="40.0713749" lon="-105.229789">
  <ele>1583.0</ele>
  <time>2026-08-28T17:48:34Z</time>
  <course>0.0</course>
  <speed>0.0</speed>
  <fix>3d</fix>
</trkpt>
<trkpt lat="40.0713752" lon="-105.2297888">
  <ele>1582.97</ele>
  <time>2026-08-28T17:48:34Z</time>
  <course>246.83</course>
  <speed>0.0</speed>
  <fix>3d</fix>
</trkpt>
<trkpt lat="40.0713749" lon="-105.229789">
  <ele>1583.0</ele>
  <time>2026-08-28T17:48:34Z</time>
  <course>0.0</course>
  <speed>0.0</speed>
  <fix>3d</fix>
</trkpt>
<trkpt lat="40.0713752" lon="-105.2297888">
  <ele>1582.98</ele>
  <time>2026-08-28T17:48:34Z</time>
  <course>246.83</course>
  <speed>0.0</speed>
  <fix>3d</fix>
</trkpt>
<trkpt lat="40.0713749" lon="-105.229789">
  <ele>1583.0</ele>
  <time>2026-08-28T17:48:34Z</time>
  <course>0.0</course>
  <speed>0.0</speed>
  <fix>3d</fix>
</trkpt>
<trkpt lat="40.0713752" lon="-105.2297888">
  <ele>1582.99</ele>
  <time>2026-08-28T17:48:34Z</time>
  <course>246.83</course>
  <speed>0.0</speed>
  <fix>3d</fix>
</trkpt>
<trkpt lat="40.0713749" lon="-105.229789">
  <ele>1583.0</ele>
  <time>2026-08-28T17:48:34Z</time>
  <course>0.0</course>
  <speed>0.0</speed>
  <fix>3d</fix>
</trkpt>
<trkpt lat="40.0713752" lon="-105.2297888">
  <ele>1582.99</ele>
  <time>2026-08-28T17:48:34Z</time>
  <course>246.82</course>
  <speed>0.0</speed>
  <fix>3d</fix>
</trkpt>
<trkpt lat="40.0713749" lon="-105.229789">
  <ele>1583.0</ele>
  <time>2026-08-28T17:48:34Z</time>
  <course>0.0</course>
  <speed>0.0</speed>
  <fix>3d</fix>
</trkpt>
<trkpt lat="40.0713752" lon="-105.2297888">
  <ele>1583.0</ele>
  <time>2026-08-28T17:48:34Z</time>
  <course>246.82</course>
  <speed>0.0</speed>
  <fix>3d</fix>
</trkpt>
<trkpt lat="40.0713749" lon="-105.229789">
  <ele>1583.0</ele>
  <time>2026-08-28T17:48:34Z</time>
  <course>0.0</course>
  <speed>0.0</speed>
  <fix>3d</fix>
</trkpt>
<trkpt lat="40.0713752" lon="-105.2297888">
  <ele>1583.0</ele>
  <time>2026-08-28T17:48:34Z</time>
  <course>246.82</course>
  <speed>0.0</speed>
  <fix>3d</fix>
</trkpt>
<trkpt lat="40.0713749" lon="-105.229789">
  <ele>1583.0</ele>
  <time>2026-08-28T17:48:34Z</time>
  <course>0.0</course>
  <speed>0.0</speed>
  <fix>3d</fix>
</trkpt>
<trkpt lat="40.0713752" lon="-105.2297888">
  <ele>1583.01</ele>
  <time>2026-08-28T17:48:34Z</time>
  <course>246.82</course>
  <speed>0.0</speed>
  <fix>3d</fix>
</trkpt>
<trkpt lat="40.0713749" lon="-105.229789">
  <ele>1583.0</ele>
  <time>2026-08-28T17:48:34Z</time>
  <course>0.0</course>
  <speed>0.0</speed>
  <fix>3d</fix>
</trkpt>
<trkpt lat="40.0713752" lon="-105.2297888">
  <ele>1583.01</ele>
  <time>2026-08-28T17:48:34Z</time>
  <course>246.81</course>
  <speed>0.0</speed>
  <fix>3d</fix>
</trkpt>
<trkpt lat="40.0713749" lon="-105.229789">
  <ele>1583.0</ele>
  <time>2026-08-28T17:48:34Z</time>
  <course>0.0</course>
  <speed>0.0</speed>
  <fix>3d</fix>
</trkpt>
<trkpt lat="40.0713752" lon="-105.2297888">
  <ele>1583.02</ele>
  <time>2026-08-28T17:48:34Z</time>
  <course>246.81</course>
  <speed>0.0</speed>
  <fix>3d</fix>
</trkpt>
<trkpt lat="40.0713749" lon="-105.229789">
  <ele>1583.0</ele>
  <time>2026-08-28T17:48:34Z</time>
  <course>0.0</course>
  <speed>0.0</speed>
  <fix>3d</fix>
</trkpt>
<trkpt lat="40.0713752" lon="-105.2297889">
  <ele>1583.02</ele>
  <time>2026-08-28T17:48:34Z</time>
  <course>246.81</course>
  <speed>0.01</speed>
  <fix>3d</fix>
</trkpt>
<trkpt lat="40.0713749" lon="-105.229789">
  <ele>1583.0</ele>
  <time>2026-08-28T17:48:34Z</time>
  <course>0.0</course>
  <speed>0.0</speed>
  <fix>3d</fix>
</trkpt>
<trkpt lat="40.0713752" lon="-105.2297889">
  <ele>1583.03</ele>
  <time>2026-08-28T17:48:34Z</time>
  <course>246.81</course>
  <speed>0.01</speed>
  <fix>3d</fix>
</trkpt>
<trkpt lat="40.0713749" lon="-105.229789">
  <ele>1583.0</ele>
  <time>2026-08-28T17:48:34Z</time>
  <course>0.0</course>
  <speed>0.0</speed>
  <fix>3d</fix>
</trkpt>
<trkpt lat="40.0713752" lon="-105.2297889">
  <ele>1583.04</ele>
  <time>2026-08-28T17:48:34Z</time>
  <course>246.8</course>
  <speed>0.01</speed>
  <fix>3d</fix>
</trkpt>
<trkpt lat="40.0713749" lon="-105.229789">
  <ele>1583.0</ele>
  <time>2026-08-28T17:48:34Z</time>
  <course>0.0</course>
  <speed>0.0</speed>
  <fix>3d</fix>
</trkpt>
<trkpt lat="40.0713752" lon="-105.2297889">
  <ele>1583.04</ele>
  <time>2026-08-28T17:48:34Z</time>
  <course>246.8</course>
  <speed>0.01</speed>
  <fix>3d</fix>
</trkpt>
<trkpt lat="40.0713749" lon="-105.229789">
  <ele>1583.0</ele>
  <time>2026-08-28T17:48:34Z</time>
  <course>0.0</course>
  <speed>0.0</speed>
  <fix>3d</fix>
</trkpt>
<trkpt lat="40.0713752" lon="-105.2297889">
  <ele>1583.05</ele>
  <time>2026-08-28T17:48:34Z</time>
  <course>246.8</course>
  <speed>0.01</speed>
  <fix>3d</fix>
</trkpt>
<trkpt lat="40.0713749" lon="-105.229789">
  <ele>1583.0</ele>
  <time>2026-08-28T17:48:34Z</time>
  <course>0.0</course>
  <speed>0.0</speed>
  <fix>3d</fix>
</trkpt>
<trkpt lat="40.0713752" lon="-105.2297888">
  <ele>1583.06</ele>
  <time>2026-08-28T17:48:34Z</time>
  <course>246.8</course>
  <speed>0.01</speed>
  <fix>3d</fix>
</trkpt>
<trkpt lat="40.0713749" lon="-105.229789">
  <ele>1583.0</ele>
  <time>2026-08-28T17:48:34Z</time>
  <course>0.0</course>
  <speed>0.0</speed>
  <fix>3d</fix>
</trkpt>
<trkpt lat="40.0713752" lon="-105.2297888">
  <ele>1583.07</ele>
  <time>2026-08-28T17:48:34Z</time>
  <course>246.79</course>
  <speed>0.01</speed>
  <fix>3d</fix>
</trkpt>
<trkpt lat="40.0713749" lon="-105.229789">
  <ele>1583.0</ele>
  <time>2026-08-28T17:48:34Z</time>
  <course>0.0</course>
  <speed>0.0</speed>
  <fix>3d</fix>
</trkpt>
<trkpt lat="40.0713752" lon="-105.2297888">
  <ele>1583.07</ele>
  <time>2026-08-28T17:48:34Z</time>
  <course>246.79</course>
  <speed>0.01</speed>
  <fix>3d</fix>
</trkpt>
<trkpt lat="40.0713749" lon="-105.229789">
  <ele>1583.0</ele>
  <time>2026-08-28T17:48:34Z</time>
  <course>0.0</course>
  <speed>0.0</speed>
  <fix>3d</fix>
</trkpt>
<trkpt lat="40.0713752" lon="-105.2297888">
  <ele>1583.08</ele>
  <time>2026-08-28T17:48:34Z</time>
  <course>246.79</course>
  <speed>0.01</speed>
  <fix>3d</fix>
</trkpt>
<trkpt lat="40.0713749" lon="-105.229789">
  <ele>1583.0</ele>
  <time>2026-08-28T17:48:34Z</time>
  <course>0.0</course>
  <speed>0.0</speed>
  <fix>3d</fix>
</trkpt>
<trkpt lat="40.0713749" lon="-105.229789">
  <ele>1583.08</ele>
  <time>2026-08-28T17:48:34Z</time>
  <course>246.79</course>
  <speed>0.01</speed>
  <fix>3d</fix>
</trkpt>
<trkpt lat="40.0713749" lon="-105.229789">
  <ele>1583.0</ele>
  <time>2026-08-28T17:48:34Z</time>
  <course>0.0</course>
  <speed>0.0</speed>
  <fix>3d</fix>
</trkpt>
<trkpt lat="40.0713749" lon="-105.229789">
  <ele>1582.88</ele>
  <time>2026-08-28T17:48:34Z</time>
  <course>246.78</course>
  <speed>0.01</speed>
  <fix>3d</fix>
</trkpt>
<trkpt lat="40.0713749" lon="-105.229789">
  <ele>1583.0</ele>
  <time>2026-08-28T17:48:34Z</time>
  <course>0.0</course>
  <speed>0.0</speed>
  <fix>3d</fix>
</trkpt>
<trkpt lat="40.0713749" lon="-105.229789">
  <ele>1583.02</ele>
  <time>2026-08-28T17:48:34Z</time>
  <course>246.78</course>
  <speed>0.01</speed>
  <fix>3d</fix>
</trkpt>
<trkpt lat="40.0713749" lon="-105.229789">
  <ele>1583.0</ele>
  <time>2026-08-28T17:48:34Z</time>
  <course>0.0</course>
  <speed>0.0</speed>
  <fix>3d</fix>
</trkpt>
<trkpt lat="40.0713749" lon="-105.229789">
  <ele>1583.04</ele>
  <time>2026-08-28T17:48:34Z</time>
  <course>246.78</course>
  <speed>0.01</speed>
  <fix>3d</fix>
</trkpt>
<trkpt lat="40.0713749" lon="-105.229789">
  <ele>1583.0</ele>
  <time>2026-08-28T17:48:34Z</time>
  <course>0.0</course>
  <speed>0.0</speed>
  <fix>3d</fix>
</trkpt>
<trkpt lat="40.0713749" lon="-105.229789">
  <ele>1582.82</ele>
  <time>2026-08-28T17:48:34Z</time>
  <course>246.78</course>
  <speed>0.01</speed>
  <fix>3d</fix>
</trkpt>
<trkpt lat="40.0713749" lon="-105.229789">
  <ele>1583.0</ele>
  <time>2026-08-28T17:48:34Z</time>
  <course>0.0</course>
  <speed>0.0</speed>
  <fix>3d</fix>
</trkpt>
<trkpt lat="40.0713749" lon="-105.229789">
  <ele>1582.78</ele>
  <time>2026-08-28T17:48:34Z</time>
  <course>246.77</course>
  <speed>0.01</speed>
  <fix>3d</fix>
</trkpt>
<trkpt lat="40.0713749" lon="-105.229789">
  <ele>1583.0</ele>
  <time>2026-08-28T17:48:34Z</time>
  <course>0.0</course>
  <speed>0.0</speed>
  <fix>3d</fix>
</trkpt>
<trkpt lat="40.0713749" lon="-105.229789">
  <ele>1582.81</ele>
  <time>2026-08-28T17:48:34Z</time>
  <course>246.77</course>
  <speed>0.01</speed>
  <fix>3d</fix>
</trkpt>
<trkpt lat="40.0713749" lon="-105.229789">
  <ele>1583.0</ele>
  <time>2026-08-28T17:48:34Z</time>
  <course>0.0</course>
  <speed>0.0</speed>
  <fix>3d</fix>
</trkpt>
<trkpt lat="40.0713749" lon="-105.229789">
  <ele>1583.03</ele>
  <time>2026-08-28T17:48:34Z</time>
  <course>246.77</course>
  <speed>0.01</speed>
  <fix>3d</fix>
</trkpt>
<trkpt lat="40.0713749" lon="-105.229789">
  <ele>1583.0</ele>
  <time>2026-08-28T17:48:34Z</time>
  <course>0.0</course>
  <speed>0.0</speed>
  <fix>3d</fix>
</trkpt>
<trkpt lat="40.0713749" lon="-105.229789">
  <ele>1582.75</ele>
  <time>2026-08-28T17:48:34Z</time>
  <course>246.77</course>
  <speed>0.01</speed>
  <fix>3d</fix>
</trkpt>
<trkpt lat="40.0713749" lon="-105.229789">
  <ele>1583.0</ele>
  <time>2026-08-28T17:48:34Z</time>
  <course>0.0</course>
  <speed>0.0</speed>
  <fix>3d</fix>
</trkpt>
<trkpt lat="40.0713749" lon="-105.229789">
  <ele>1582.79</ele>
  <time>2026-08-28T17:48:34Z</time>
  <course>246.76</course>
  <speed>0.01</speed>
  <fix>3d</fix>
</trkpt>
<trkpt lat="40.0713749" lon="-105.229789">
  <ele>1583.0</ele>
  <time>2026-08-28T17:48:34Z</time>
  <course>0.0</course>
  <speed>0.0</speed>
  <fix>3d</fix>
</trkpt>
<trkpt lat="40.0713749" lon="-105.229789">
  <ele>1583.16</ele>
  <time>2026-08-28T17:48:34Z</time>
  <course>246.76</course>
  <speed>0.02</speed>
  <fix>3d</fix>
</trkpt>
<trkpt lat="40.0713749" lon="-105.229789">
  <ele>1583.0</ele>
  <time>2026-08-28T17:48:34Z</time>
  <course>0.0</course>
  <speed>0.0</speed>
  <fix>3d</fix>
</trkpt>
<trkpt lat="40.0713749" lon="-105.229789">
  <ele>1583.2</ele>
  <time>2026-08-28T17:48:34Z</time>
  <course>246.76</course>
  <speed>0.02</speed>
  <fix>3d</fix>
</trkpt>
<trkpt lat="40.0713749" lon="-105.229789">
  <ele>1583.0</ele>
  <time>2026-08-28T17:48:34Z</time>
  <course>0.0</course>
  <speed>0.0</speed>
  <fix>3d</fix>
</trkpt>
<trkpt lat="40.0713749" lon="-105.229789">
  <ele>1583.3</ele>
  <time>2026-08-28T17:48:34Z</time>
  <course>246.76</course>
  <speed>0.02</speed>
  <fix>3d</fix>
</trkpt>
<trkpt lat="40.0713749" lon="-105.229789">
  <ele>1583.0</ele>
  <time>2026-08-28T17:48:34Z</time>
  <course>0.0</course>
  <speed>0.0</speed>
  <fix>3d</fix>
</trkpt>
<trkpt lat="40.0713749" lon="-105.229789">
  <ele>1583.02</ele>
  <time>2026-08-28T17:48:34Z</time>
  <course>246.75</course>
  <speed>0.02</speed>
  <fix>3d</fix>
</trkpt>
<trkpt lat="40.0713749" lon="-105.229789">
  <ele>1583.0</ele>
  <time>2026-08-28T17:48:34Z</time>
  <course>0.0</course>
  <speed>0.0</speed>
  <fix>3d</fix>
</trkpt>
<trkpt lat="40.0713749" lon="-105.229789">
  <ele>1583.06</ele>
  <time>2026-08-28T17:48:34Z</time>
  <course>246.75</course>
  <speed>0.02</speed>
  <fix>3d</fix>
</trkpt>
<trkpt lat="40.0713749" lon="-105.229789">
  <ele>1583.0</ele>
  <time>2026-08-28T17:48:34Z</time>
  <course>0.0</course>
  <speed>0.0</speed>
  <fix>3d</fix>
</trkpt>
<trkpt lat="40.0713749" lon="-105.229789">
  <ele>1583.06</ele>
  <time>2026-08-28T17:48:34Z</time>
  <course>246.75</course>
  <speed>0.01</speed>
  <fix>3d</fix>
</trkpt>
<trkpt lat="40.0713749" lon="-105.229789">
  <ele>1583.0</ele>
  <time>2026-08-28T17:48:34Z</time>
  <course>0.0</course>
  <speed>0.0</speed>
  <fix>3d</fix>
</trkpt>
<trkpt lat="40.0713749" lon="-105.229789">
  <ele>1583.06</ele>
  <time>2026-08-28T17:48:34Z</time>
  <course>246.74</course>
  <speed>0.01</speed>
  <fix>3d</fix>
</trkpt>
<trkpt lat="40.0713749" lon="-105.229789">
  <ele>1583.0</ele>
  <time>2026-08-28T17:48:34Z</time>
  <course>0.0</course>
  <speed>0.0</speed>
  <fix>3d</fix>
</trkpt>
<trkpt lat="40.0713749" lon="-105.229789">
  <ele>1583.06</ele>
  <time>2026-08-28T17:48:34Z</time>
  <course>246.74</course>
  <speed>0.01</speed>
  <fix>3d</fix>
</trkpt>
<trkpt lat="40.0713749" lon="-105.229789">
  <ele>1583.0</ele>
  <time>2026-08-28T17:48:34Z</time>
  <course>0.0</course>
  <speed>0.0</speed>
  <fix>3d</fix>
</trkpt>
<trkpt lat="40.0713749" lon="-105.229789">
  <ele>1583.06</ele>
  <time>2026-08-28T17:48:34Z</time>
  <course>246.74</course>
  <speed>0.01</speed>
  <fix>3d</fix>
</trkpt>
<trkpt lat="40.0713749" lon="-105.229789">
  <ele>1583.0</ele>
  <time>2026-08-28T17:48:34Z</time>
  <course>0.0</course>
  <speed>0.0</speed>
  <fix>3d</fix>
</trkpt>
<trkpt lat="40.0713749" lon="-105.229789">
  <ele>1583.06</ele>
  <time>2026-08-28T17:48:34Z</time>
  <course>246.74</course>
  <speed>0.01</speed>
  <fix>3d</fix>
</trkpt>
<trkpt lat="40.0713749" lon="-105.229789">
  <ele>1583.0</ele>
  <time>2026-08-28T17:48:34Z</time>
  <course>0.0</course>
  <speed>0.0</speed>
  <fix>3d</fix>
</trkpt>
<trkpt lat="40.0713749" lon="-105.229789">
  <ele>1583.06</ele>
  <time>2026-08-28T17:48:34Z</time>
  <course>246.73</course>
  <speed>0.01</speed>
  <fix>3d</fix>
</trkpt>
<trkpt lat="40.0713749" lon="-105.229789">
  <ele>1583.0</ele>
  <time>2026-08-28T17:48:34Z</time>
  <course>0.0</course>
  <speed>0.0</speed>
  <fix>3d</fix>
</trkpt>
<trkpt lat="40.0713749" lon="-105.229789">
  <ele>1583.06</ele>
  <time>2026-08-28T17:48:34Z</time>
  <course>246.73</course>
  <speed>0.01</speed>
  <fix>3d</fix>
</trkpt>
<trkpt lat="40.0713749" lon="-105.229789">
  <ele>1583.0</ele>
  <time>2026-08-28T17:48:34Z</time>
  <course>0.0</course>
  <speed>0.0</speed>
  <fix>3d</fix>
</trkpt>
<trkpt lat="40.0713749" lon="-105.229789">
  <ele>1583.06</ele>
  <time>2026-08-28T17:48:34Z</time>
  <course>246.73</course>
  <speed>0.01</speed>
  <fix>3d</fix>
</trkpt>
<trkpt lat="40.0713749" lon="-105.229789">
  <ele>1583.0</ele>
  <time>2026-08-28T17:48:34Z</time>
  <course>0.0</course>
  <speed>0.0</speed>
  <fix>3d</fix>
</trkpt>
<trkpt lat="40.0713749" lon="-105.229789">
  <ele>1583.07</ele>
  <time>2026-08-28T17:48:34Z</time>
  <course>246.73</course>
  <speed>0.0</speed>
  <fix>3d</fix>
</trkpt>
<trkpt lat="40.0713749" lon="-105.229789">
  <ele>1583.0</ele>
  <time>2026-08-28T17:48:34Z</time>
  <course>0.0</course>
  <speed>0.0</speed>
  <fix>3d</fix>
</trkpt>
<trkpt lat="40.0713749" lon="-105.229789">
  <ele>1583.07</ele>
  <time>2026-08-28T17:48:34Z</time>
  <course>246.72</course>
  <speed>0.0</speed>
  <fix>3d</fix>
</trkpt>
<trkpt lat="40.0713749" lon="-105.229789">
  <ele>1583.0</ele>
  <time>2026-08-28T17:48:34Z</time>
  <course>0.0</course>
  <speed>0.0</speed>
  <fix>3d</fix>
</trkpt>
<trkpt lat="40.0713749" lon="-105.229789">
  <ele>1583.07</ele>
  <time>2026-08-28T17:48:34Z</time>
  <course>246.72</course>
  <speed>0.0</speed>
  <fix>3d</fix>
</trkpt>
<trkpt lat="40.0713749" lon="-105.229789">
  <ele>1583.0</ele>
  <time>2026-08-28T17:48:34Z</time>
  <course>0.0</course>
  <speed>0.0</speed>
  <fix>3d</fix>
</trkpt>
<trkpt lat="40.0713749" lon="-105.229789">
  <ele>1583.07</ele>
  <time>2026-08-28T17:48:34Z</time>
  <course>246.72</course>
  <speed>0.0</speed>
  <fix>3d</fix>
</trkpt>
<trkpt lat="40.0713749" lon="-105.229789">
  <ele>1583.0</ele>
  <time>2026-08-28T17:48:34Z</time>
  <course>0.0</course>
  <speed>0.0</speed>
  <fix>3d</fix>
</trkpt>
<trkpt lat="40.0713749" lon="-105.229789">
  <ele>1583.07</ele>
  <time>2026-08-28T17:48:34Z</time>
  <course>246.72</course>
  <speed>0.01</speed>
  <fix>3d</fix>
</trkpt>
<trkpt lat="40.0713749" lon="-105.229789">
  <ele>1583.0</ele>
  <time>2026-08-28T17:48:34Z</time>
  <course>0.0</course>
  <speed>0.0</speed>
  <fix>3d</fix>
</trkpt>
<trkpt lat="40.0713749" lon="-105.229789">
  <ele>1583.07</ele>
  <time>2026-08-28T17:48:34Z</time>
  <course>246.71</course>
  <speed>0.01</speed>
  <fix>3d</fix>
</trkpt>
<trkpt lat="40.0713749" lon="-105.229789">
  <ele>1583.0</ele>
  <time>2026-08-28T17:48:34Z</time>
  <course>0.0</course>
  <speed>0.0</speed>
  <fix>3d</fix>
</trkpt>
<trkpt lat="40.0713749" lon="-105.229789">
  <ele>1583.07</ele>
  <time>2026-08-28T17:48:34Z</time>
  <course>246.71</course>
  <speed>0.01</speed>
  <fix>3d</fix>
</trkpt>
<trkpt lat="40.0713749" lon="-105.229789">
  <ele>1583.0</ele>
  <time>2026-08-28T17:48:34Z</time>
  <course>0.0</course>
  <speed>0.0</speed>
  <fix>3d</fix>
</trkpt>
<trkpt lat="40.0713749" lon="-105.229789">
  <ele>1583.08</ele>
  <time>2026-08-28T17:48:34Z</time>
  <course>246.71</course>
  <speed>0.01</speed>
  <fix>3d</fix>
</trkpt>
<trkpt lat="40.0713749" lon="-105.229789">
  <ele>1583.0</ele>
  <time>2026-08-28T17:48:34Z</time>
  <course>0.0</course>
  <speed>0.0</speed>
  <fix>3d</fix>
</trkpt>
<trkpt lat="40.0713749" lon="-105.229789">
  <ele>1583.07</ele>
  <time>2026-08-28T17:48:34Z</time>
  <course>246.71</course>
  <speed>0.01</speed>
  <fix>3d</fix>
</trkpt>
<trkpt lat="40.0713749" lon="-105.229789">
  <ele>1583.0</ele>
  <time>2026-08-28T17:48:34Z</time>
  <course>0.0</course>
  <speed>0.0</speed>
  <fix>3d</fix>
</trkpt>
<trkpt lat="40.0713749" lon="-105.229789">
  <ele>1583.07</ele>
  <time>2026-08-28T17:48:34Z</time>
  <course>246.7</course>
  <speed>0.01</speed>
  <fix>3d</fix>
</trkpt>
<trkpt lat="40.0713749" lon="-105.229789">
  <ele>1583.0</ele>
  <time>2026-08-28T17:48:34Z</time>
  <course>0.0</course>
  <speed>0.0</speed>
  <fix>3d</fix>
</trkpt>
<trkpt lat="40.0713749" lon="-105.229789">
  <ele>1583.06</ele>
  <time>2026-08-28T17:48:34Z</time>
  <course>246.7</course>
  <speed>0.01</speed>
  <fix>3d</fix>
</trkpt>
<trkpt lat="40.0713749" lon="-105.229789">
  <ele>1583.0</ele>
  <time>2026-08-28T17:48:34Z</time>
  <course>0.0</course>
  <speed>0.0</speed>
  <fix>3d</fix>
</trkpt>
<trkpt lat="40.0713749" lon="-105.229789">
  <ele>1583.06</ele>
  <time>2026-08-28T17:48:34Z</time>
  <course>246.7</course>
  <speed>0.01</speed>
  <fix>3d</fix>
</trkpt>
<trkpt lat="40.0713749" lon="-105.229789">
  <ele>1583.0</ele>
  <time>2026-08-28T17:48:34Z</time>
  <course>0.0</course>
  <speed>0.0</speed>
  <fix>3d</fix>
</trkpt>
<trkpt lat="40.0713749" lon="-105.229789">
  <ele>1583.05</ele>
  <time>2026-08-28T17:48:34Z</time>
  <course>246.7</course>
  <speed>0.01</speed>
  <fix>3d</fix>
</trkpt>
<trkpt lat="40.0713749" lon="-105.229789">
  <ele>1583.0</ele>
  <time>2026-08-28T17:48:34Z</time>
  <course>0.0</course>
  <speed>0.0</speed>
  <fix>3d</fix>
</trkpt>
<trkpt lat="40.0713749" lon="-105.229789">
  <ele>1583.04</ele>
  <time>2026-08-28T17:48:34Z</time>
  <course>246.69</course>
  <speed>0.01</speed>
  <fix>3d</fix>
</trkpt>
<trkpt lat="40.0713749" lon="-105.229789">
  <ele>1583.0</ele>
  <time>2026-08-28T17:48:34Z</time>
  <course>0.0</course>
  <speed>0.0</speed>
  <fix>3d</fix>
</trkpt>
<trkpt lat="40.0713749" lon="-105.229789">
  <ele>1583.03</ele>
  <time>2026-08-28T17:48:34Z</time>
  <course>246.69</course>
  <speed>0.01</speed>
  <fix>3d</fix>
</trkpt>
<trkpt lat="40.0713749" lon="-105.229789">
  <ele>1583.0</ele>
  <time>2026-08-28T17:48:34Z</time>
  <course>0.0</course>
  <speed>0.0</speed>
  <fix>3d</fix>
</trkpt>
<trkpt lat="40.0713749" lon="-105.229789">
  <ele>1583.02</ele>
  <time>2026-08-28T17:48:34Z</time>
  <course>246.69</course>
  <speed>0.01</speed>
  <fix>3d</fix>
</trkpt>
<trkpt lat="40.0713749" lon="-105.229789">
  <ele>1583.0</ele>
  <time>2026-08-28T17:48:34Z</time>
  <course>0.0</course>
  <speed>0.0</speed>
  <fix>3d</fix>
</trkpt>
<trkpt lat="40.0713749" lon="-105.229789">
  <ele>1583.01</ele>
  <time>2026-08-28T17:48:34Z</time>
  <course>246.69</course>
  <speed>0.01</speed>
  <fix>3d</fix>
</trkpt>
<trkpt lat="40.0713749" lon="-105.229789">
  <ele>1583.0</ele>
  <time>2026-08-28T17:48:34Z</time>
  <course>0.0</course>
  <speed>0.0</speed>
  <fix>3d</fix>
</trkpt>
<trkpt lat="40.0713749" lon="-105.229789">
  <ele>1583.0</ele>
  <time>2026-08-28T17:48:34Z</time>
  <course>246.68</course>
  <speed>0.01</speed>
  <fix>3d</fix>
</trkpt>
<trkpt lat="40.0713749" lon="-105.229789">
  <ele>1583.0</ele>
  <time>2026-08-28T17:48:34Z</time>
  <course>0.0</course>
  <speed>0.0</speed>
  <fix>3d</fix>
</trkpt>
<trkpt lat="40.0713749" lon="-105.229789">
  <ele>1582.99</ele>
  <time>2026-08-28T17:48:34Z</time>
  <course>246.68</course>
  <speed>0.01</speed>
  <fix>3d</fix>
</trkpt>
<trkpt lat="40.0713749" lon="-105.229789">
  <ele>1583.0</ele>
  <time>2026-08-28T17:48:34Z</time>
  <course>0.0</course>
  <speed>0.0</speed>
  <fix>3d</fix>
</trkpt>
<trkpt lat="40.0713749" lon="-105.229789">
  <ele>1582.99</ele>
  <time>2026-08-28T17:48:34Z</time>
  <course>246.68</course>
  <speed>0.01</speed>
  <fix>3d</fix>
</trkpt>
<trkpt lat="40.0713749" lon="-105.229789">
  <ele>1583.0</ele>
  <time>2026-08-28T17:48:34Z</time>
  <course>0.0</course>
  <speed>0.0</speed>
  <fix>3d</fix>
</trkpt>
<trkpt lat="40.0713749" lon="-105.229789">
  <ele>1582.98</ele>
  <time>2026-08-28T17:48:34Z</time>
  <course>246.67</course>
  <speed>0.01</speed>
  <fix>3d</fix>
</trkpt>
<trkpt lat="40.0713749" lon="-105.229789">
  <ele>1583.0</ele>
  <time>2026-08-28T17:48:34Z</time>
  <course>0.0</course>
  <speed>0.0</speed>
  <fix>3d</fix>
</trkpt>
<trkpt lat="40.0713749" lon="-105.229789">
  <ele>1582.97</ele>
  <time>2026-08-28T17:48:34Z</time>
  <course>246.67</course>
  <speed>0.01</speed>
  <fix>3d</fix>
</trkpt>
<trkpt lat="40.0713749" lon="-105.229789">
  <ele>1583.0</ele>
  <time>2026-08-28T17:48:34Z</time>
  <course>0.0</course>
  <speed>0.0</speed>
  <fix>3d</fix>
</trkpt>
<trkpt lat="40.0713749" lon="-105.229789">
  <ele>1582.97</ele>
  <time>2026-08-28T17:48:34Z</time>
  <course>246.67</course>
  <speed>0.01</speed>
  <fix>3d</fix>
</trkpt>
<trkpt lat="40.0713749" lon="-105.229789">
  <ele>1583.0</ele>
  <time>2026-08-28T17:48:34Z</time>
  <course>0.0</course>
  <speed>0.0</speed>
  <fix>3d</fix>
</trkpt>
<trkpt lat="40.0713749" lon="-105.229789">
  <ele>1582.96</ele>
  <time>2026-08-28T17:48:34Z</time>
  <course>246.67</course>
  <speed>0.01</speed>
  <fix>3d</fix>
</trkpt>
<trkpt lat="40.0713749" lon="-105.229789">
  <ele>1583.0</ele>
  <time>2026-08-28T17:48:34Z</time>
  <course>0.0</course>
  <speed>0.0</speed>
  <fix>3d</fix>
</trkpt>
<trkpt lat="40.0713749" lon="-105.229789">
  <ele>1582.96</ele>
  <time>2026-08-28T17:48:34Z</time>
  <course>246.66</course>
  <speed>0.01</speed>
  <fix>3d</fix>
</trkpt>
<trkpt lat="40.0713749" lon="-105.229789">
  <ele>1583.0</ele>
  <time>2026-08-28T17:48:34Z</time>
  <course>0.0</course>
  <speed>0.0</speed>
  <fix>3d</fix>
</trkpt>
<trkpt lat="40.0713749" lon="-105.229789">
  <ele>1582.96</ele>
  <time>2026-08-28T17:48:34Z</time>
  <course>246.66</course>
  <speed>0.01</speed>
  <fix>3d</fix>
</trkpt>
<trkpt lat="40.0713749" lon="-105.229789">
  <ele>1583.0</ele>
  <time>2026-08-28T17:48:34Z</time>
  <course>0.0</course>
  <speed>0.0</speed>
  <fix>3d</fix>
</trkpt>
<trkpt lat="40.0713748" lon="-105.229789">
  <ele>1582.96</ele>
  <time>2026-08-28T17:48:34Z</time>
  <course>246.66</course>
  <speed>0.01</speed>
  <fix>3d</fix>
</trkpt>
<trkpt lat="40.0713749" lon="-105.229789">
  <ele>1583.0</ele>
  <time>2026-08-28T17:48:34Z</time>
  <course>0.0</course>
  <speed>0.0</speed>
  <fix>3d</fix>
</trkpt>
<trkpt lat="40.0713748" lon="-105.229789">
  <ele>1582.96</ele>
  <time>2026-08-28T17:48:34Z</time>
  <course>246.66</course>
  <speed>0.01</speed>
  <fix>3d</fix>
</trkpt>
<trkpt lat="40.0713749" lon="-105.229789">
  <ele>1583.0</ele>
  <time>2026-08-28T17:48:34Z</time>
  <course>0.0</course>
  <speed>0.0</speed>
  <fix>3d</fix>
</trkpt>
<trkpt lat="40.0713748" lon="-105.229789">
  <ele>1582.95</ele>
  <time>2026-08-28T17:48:34Z</time>
  <course>246.65</course>
  <speed>0.01</speed>
  <fix>3d</fix>
</trkpt>
<trkpt lat="40.0713749" lon="-105.229789">
  <ele>1583.0</ele>
  <time>2026-08-28T17:48:34Z</time>
  <course>0.0</course>
  <speed>0.0</speed>
  <fix>3d</fix>
</trkpt>
<trkpt lat="40.0713748" lon="-105.229789">
  <ele>1582.95</ele>
  <time>2026-08-28T17:48:34Z</time>
  <course>246.65</course>
  <speed>0.01</speed>
  <fix>3d</fix>
</trkpt>
<trkpt lat="40.0713749" lon="-105.229789">
  <ele>1583.0</ele>
  <time>2026-08-28T17:48:34Z</time>
  <course>0.0</course>
  <speed>0.0</speed>
  <fix>3d</fix>
</trkpt>
<trkpt lat="40.0713748" lon="-105.229789">
  <ele>1582.95</ele>
  <time>2026-08-28T17:48:34Z</time>
  <course>246.65</course>
  <speed>0.01</speed>
  <fix>3d</fix>
</trkpt>
<trkpt lat="40.0713749" lon="-105.229789">
  <ele>1583.0</ele>
  <time>2026-08-28T17:48:34Z</time>
  <course>0.0</course>
  <speed>0.0</speed>
  <fix>3d</fix>
</trkpt>
<trkpt lat="40.0713748" lon="-105.229789">
  <ele>1582.94</ele>
  <time>2026-08-28T17:48:34Z</time>
  <course>246.65</course>
  <speed>0.01</speed>
  <fix>3d</fix>
</trkpt>
<trkpt lat="40.0713749" lon="-105.229789">
  <ele>1583.0</ele>
  <time>2026-08-28T17:48:34Z</time>
  <course>0.0</course>
  <speed>0.0</speed>
  <fix>3d</fix>
</trkpt>
<trkpt lat="40.0713748" lon="-105.229789">
  <ele>1582.94</ele>
  <time>2026-08-28T17:48:34Z</time>
  <course>246.64</course>
  <speed>0.01</speed>
  <fix>3d</fix>
</trkpt>
<trkpt lat="40.0713749" lon="-105.229789">
  <ele>1583.0</ele>
  <time>2026-08-28T17:48:34Z</time>
  <course>0.0</course>
  <speed>0.0</speed>
  <fix>3d</fix>
</trkpt>
<trkpt lat="40.0713748" lon="-105.229789">
  <ele>1582.93</ele>
  <time>2026-08-28T17:48:34Z</time>
  <course>246.64</course>
  <speed>0.01</speed>
  <fix>3d</fix>
</trkpt>
<trkpt lat="40.0713749" lon="-105.229789">
  <ele>1583.0</ele>
  <time>2026-08-28T17:48:34Z</time>
  <course>0.0</course>
  <speed>0.0</speed>
  <fix>3d</fix>
</trkpt>
<trkpt lat="40.0713748" lon="-105.229789">
  <ele>1582.93</ele>
  <time>2026-08-28T17:48:34Z</time>
  <course>246.64</course>
  <speed>0.01</speed>
  <fix>3d</fix>
</trkpt>
<trkpt lat="40.0713749" lon="-105.229789">
  <ele>1583.0</ele>
  <time>2026-08-28T17:48:34Z</time>
  <course>0.0</course>
  <speed>0.0</speed>
  <fix>3d</fix>
</trkpt>
<trkpt lat="40.0713748" lon="-105.229789">
  <ele>1582.92</ele>
  <time>2026-08-28T17:48:34Z</time>
  <course>246.63</course>
  <speed>0.01</speed>
  <fix>3d</fix>
</trkpt>
<trkpt lat="40.0713749" lon="-105.229789">
  <ele>1583.0</ele>
  <time>2026-08-28T17:48:34Z</time>
  <course>0.0</course>
  <speed>0.0</speed>
  <fix>3d</fix>
</trkpt>
<trkpt lat="40.0713748" lon="-105.229789">
  <ele>1582.91</ele>
  <time>2026-08-28T17:48:34Z</time>
  <course>246.63</course>
  <speed>0.01</speed>
  <fix>3d</fix>
</trkpt>
<trkpt lat="40.0713749" lon="-105.229789">
  <ele>1583.0</ele>
  <time>2026-08-28T17:48:34Z</time>
  <course>0.0</course>
  <speed>0.0</speed>
  <fix>3d</fix>
</trkpt>
<trkpt lat="40.0713748" lon="-105.229789">
  <ele>1582.91</ele>
  <time>2026-08-28T17:48:34Z</time>
  <course>246.63</course>
  <speed>0.01</speed>
  <fix>3d</fix>
</trkpt>
<trkpt lat="40.0713749" lon="-105.229789">
  <ele>1583.0</ele>
  <time>2026-08-28T17:48:34Z</time>
  <course>0.0</course>
  <speed>0.0</speed>
  <fix>3d</fix>
</trkpt>
<trkpt lat="40.0713748" lon="-105.229789">
  <ele>1582.91</ele>
  <time>2026-08-28T17:48:34Z</time>
  <course>246.63</course>
  <speed>0.01</speed>
  <fix>3d</fix>
</trkpt>
<trkpt lat="40.0713749" lon="-105.229789">
  <ele>1583.0</ele>
  <time>2026-08-28T17:48:34Z</time>
  <course>0.0</course>
  <speed>0.0</speed>
  <fix>3d</fix>
</trkpt>
<trkpt lat="40.0713748" lon="-105.229789">
  <ele>1582.91</ele>
  <time>2026-08-28T17:48:34Z</time>
  <course>246.62</course>
  <speed>0.01</speed>
  <fix>3d</fix>
</trkpt>
<trkpt lat="40.0713749" lon="-105.229789">
  <ele>1583.0</ele>
  <time>2026-08-28T17:48:34Z</time>
  <course>0.0</course>
  <speed>0.0</speed>
  <fix>3d</fix>
</trkpt>
<trkpt lat="40.0713748" lon="-105.229789">
  <ele>1582.91</ele>
  <time>2026-08-28T17:48:34Z</time>
  <course>246.62</course>
  <speed>0.01</speed>
  <fix>3d</fix>
</trkpt>
<trkpt lat="40.0713749" lon="-105.229789">
  <ele>1583.0</ele>
  <time>2026-08-28T17:48:34Z</time>
  <course>0.0</course>
  <speed>0.0</speed>
  <fix>3d</fix>
</trkpt>
<trkpt lat="40.0713748" lon="-105.229789">
  <ele>1582.9</ele>
  <time>2026-08-28T17:48:34Z</time>
  <course>246.62</course>
  <speed>0.01</speed>
  <fix>3d</fix>
</trkpt>
<trkpt lat="40.0713749" lon="-105.229789">
  <ele>1583.0</ele>
  <time>2026-08-28T17:48:34Z</time>
  <course>0.0</course>
  <speed>0.0</speed>
  <fix>3d</fix>
</trkpt>
<trkpt lat="40.0713748" lon="-105.229789">
  <ele>1582.9</ele>
  <time>2026-08-28T17:48:34Z</time>
  <course>246.62</course>
  <speed>0.01</speed>
  <fix>3d</fix>
</trkpt>
<trkpt lat="40.0713749" lon="-105.229789">
  <ele>1583.0</ele>
  <time>2026-08-28T17:48:34Z</time>
  <course>0.0</course>
  <speed>0.0</speed>
  <fix>3d</fix>
</trkpt>
<trkpt lat="40.0713748" lon="-105.229789">
  <ele>1582.9</ele>
  <time>2026-08-28T17:48:34Z</time>
  <course>246.61</course>
  <speed>0.01</speed>
  <fix>3d</fix>
</trkpt>
<trkpt lat="40.0713749" lon="-105.229789">
  <ele>1583.0</ele>
  <time>2026-08-28T17:48:34Z</time>
  <course>0.0</course>
  <speed>0.0</speed>
  <fix>3d</fix>
</trkpt>
<trkpt lat="40.0713748" lon="-105.229789">
  <ele>1582.9</ele>
  <time>2026-08-28T17:48:34Z</time>
  <course>246.61</course>
  <speed>0.01</speed>
  <fix>3d</fix>
</trkpt>
<trkpt lat="40.0713749" lon="-105.229789">
  <ele>1583.0</ele>
  <time>2026-08-28T17:48:34Z</time>
  <course>0.0</course>
  <speed>0.0</speed>
  <fix>3d</fix>
</trkpt>
<trkpt lat="40.0713748" lon="-105.229789">
  <ele>1582.91</ele>
  <time>2026-08-28T17:48:34Z</time>
  <course>246.61</course>
  <speed>0.01</speed>
  <fix>3d</fix>
</trkpt>
<trkpt lat="40.0713749" lon="-105.229789">
  <ele>1583.0</ele>
  <time>2026-08-28T17:48:34Z</time>
  <course>0.0</course>
  <speed>0.0</speed>
  <fix>3d</fix>
</trkpt>
<trkpt lat="40.0713748" lon="-105.229789">
  <ele>1582.91</ele>
  <time>2026-08-28T17:48:34Z</time>
  <course>246.6</course>
  <speed>0.01</speed>
  <fix>3d</fix>
</trkpt>
<trkpt lat="40.0713749" lon="-105.229789">
  <ele>1583.0</ele>
  <time>2026-08-28T17:48:34Z</time>
  <course>0.0</course>
  <speed>0.0</speed>
  <fix>3d</fix>
</trkpt>
<trkpt lat="40.0713748" lon="-105.229789">
  <ele>1582.91</ele>
  <time>2026-08-28T17:48:34Z</time>
  <course>246.6</course>
  <speed>0.01</speed>
  <fix>3d</fix>
</trkpt>
<trkpt lat="40.0713749" lon="-105.229789">
  <ele>1583.0</ele>
  <time>2026-08-28T17:48:34Z</time>
  <course>0.0</course>
  <speed>0.0</speed>
  <fix>3d</fix>
</trkpt>
<trkpt lat="40.0713748" lon="-105.229789">
  <ele>1582.91</ele>
  <time>2026-08-28T17:48:34Z</time>
  <course>246.6</course>
  <speed>0.01</speed>
  <fix>3d</fix>
</trkpt>
<trkpt lat="40.0713749" lon="-105.229789">
  <ele>1583.0</ele>
  <time>2026-08-28T17:48:34Z</time>
  <course>0.0</course>
  <speed>0.0</speed>
  <fix>3d</fix>
</trkpt>
<trkpt lat="40.0713748" lon="-105.229789">
  <ele>1582.91</ele>
  <time>2026-08-28T17:48:34Z</time>
  <course>246.6</course>
  <speed>0.01</speed>
  <fix>3d</fix>
</trkpt>
<trkpt lat="40.0713749" lon="-105.229789">
  <ele>1583.0</ele>
  <time>2026-08-28T17:48:34Z</time>
  <course>0.0</course>
  <speed>0.0</speed>
  <fix>3d</fix>
</trkpt>
<trkpt lat="40.0713748" lon="-105.229789">
  <ele>1582.91</ele>
  <time>2026-08-28T17:48:34Z</time>
  <course>246.59</course>
  <speed>0.02</speed>
  <fix>3d</fix>
</trkpt>
<trkpt lat="40.0713749" lon="-105.229789">
  <ele>1583.0</ele>
  <time>2026-08-28T17:48:34Z</time>
  <course>0.0</course>
  <speed>0.0</speed>
  <fix>3d</fix>
</trkpt>
<trkpt lat="40.0713748" lon="-105.229789">
  <ele>1582.91</ele>
  <time>2026-08-28T17:48:34Z</time>
  <course>246.59</course>
  <speed>0.02</speed>
  <fix>3d</fix>
</trkpt>
<trkpt lat="40.0713749" lon="-105.229789">
  <ele>1583.0</ele>
  <time>2026-08-28T17:48:34Z</time>
  <course>0.0</course>
  <speed>0.0</speed>
  <fix>3d</fix>
</trkpt>
<trkpt lat="40.0713748" lon="-105.229789">
  <ele>1582.92</ele>
  <time>2026-08-28T17:48:34Z</time>
  <course>246.59</course>
  <speed>0.02</speed>
  <fix>3d</fix>
</trkpt>
<trkpt lat="40.0713749" lon="-105.229789">
  <ele>1583.0</ele>
  <time>2026-08-28T17:48:34Z</time>
  <course>0.0</course>
  <speed>0.0</speed>
  <fix>3d</fix>
</trkpt>
<trkpt lat="40.0713747" lon="-105.229789">
  <ele>1582.92</ele>
  <time>2026-08-28T17:48:34Z</time>
  <course>246.59</course>
  <speed>0.02</speed>
  <fix>3d</fix>
</trkpt>
<trkpt lat="40.0713749" lon="-105.229789">
  <ele>1583.0</ele>
  <time>2026-08-28T17:48:34Z</time>
  <course>0.0</course>
  <speed>0.0</speed>
  <fix>3d</fix>
</trkpt>
<trkpt lat="40.0713747" lon="-105.2297891">
  <ele>1582.92</ele>
  <time>2026-08-28T17:48:34Z</time>
  <course>246.58</course>
  <speed>0.02</speed>
  <fix>3d</fix>
</trkpt>
<trkpt lat="40.0713749" lon="-105.229789">
  <ele>1583.0</ele>
  <time>2026-08-28T17:48:34Z</time>
  <course>0.0</course>
  <speed>0.0</speed>
  <fix>3d</fix>
</trkpt>
<trkpt lat="40.0713747" lon="-105.2297891">
  <ele>1582.92</ele>
  <time>2026-08-28T17:48:34Z</time>
  <course>246.58</course>
  <speed>0.02</speed>
  <fix>3d</fix>
</trkpt>
<trkpt lat="40.0713749" lon="-105.229789">
  <ele>1583.0</ele>
  <time>2026-08-28T17:48:34Z</time>
  <course>0.0</course>
  <speed>0.0</speed>
  <fix>3d</fix>
</trkpt>
<trkpt lat="40.0713747" lon="-105.2297891">
  <ele>1582.92</ele>
  <time>2026-08-28T17:48:34Z</time>
  <course>246.58</course>
  <speed>0.022360679774997897</speed>
  <fix>3d</fix>
</trkpt>
<trkpt lat="40.0713749" lon="-105.229789">
  <ele>1583.0</ele>
  <time>2026-08-28T17:48:34Z</time>
  <course>0.0</course>
  <speed>0.0</speed>
  <fix>3d</fix>
</trkpt>
<trkpt lat="40.0713746" lon="-105.2297891">
  <ele>1582.91</ele>
  <time>2026-08-28T17:48:34Z</time>
  <course>246.57</course>
  <speed>0.022360679774997897</speed>
  <fix>3d</fix>
</trkpt>
<trkpt lat="40.0713749" lon="-105.229789">
  <ele>1583.0</ele>
  <time>2026-08-28T17:48:34Z</time>
  <course>0.0</course>
  <speed>0.0</speed>
  <fix>3d</fix>
</trkpt>
<trkpt lat="40.0713746" lon="-105.2297891">
  <ele>1582.91</ele>
  <time>2026-08-28T17:48:34Z</time>
  <course>246.57</course>
  <speed>0.0316227766016838</speed>
  <fix>3d</fix>
</trkpt>
<trkpt lat="40.0713749" lon="-105.229789">
  <ele>1583.0</ele>
  <time>2026-08-28T17:48:34Z</time>
  <course>0.0</course>
  <speed>0.0</speed>
  <fix>3d</fix>
</trkpt>
<trkpt lat="40.0713746" lon="-105.2297891">
  <ele>1582.91</ele>
  <time>2026-08-28T17:48:34Z</time>
  <course>246.57</course>
  <speed>0.0316227766016838</speed>
  <fix>3d</fix>
</trkpt>
<trkpt lat="40.0713749" lon="-105.229789">
  <ele>1583.0</ele>
  <time>2026-08-28T17:48:34Z</time>
  <course>0.0</course>
  <speed>0.0</speed>
  <fix>3d</fix>
</trkpt>
<trkpt lat="40.0713746" lon="-105.2297891">
  <ele>1582.92</ele>
  <time>2026-08-28T17:48:34Z</time>
  <course>246.57</course>
  <speed>0.0316227766016838</speed>
  <fix>3d</fix>
</trkpt>
<trkpt lat="40.0713749" lon="-105.229789">
  <ele>1583.0</ele>
  <time>2026-08-28T17:48:34Z</time>
  <course>0.0</course>
  <speed>0.0</speed>
  <fix>3d</fix>
</trkpt>
<trkpt lat="40.0713745" lon="-105.2297892">
  <ele>1582.92</ele>
  <time>2026-08-28T17:48:34Z</time>
  <course>246.56</course>
  <speed>0.0316227766016838</speed>
  <fix>3d</fix>
</trkpt>
<trkpt lat="40.0713749" lon="-105.229789">
  <ele>1583.0</ele>
  <time>2026-08-28T17:48:34Z</time>
  <course>0.0</course>
  <speed>0.0</speed>
  <fix>3d</fix>
</trkpt>
<trkpt lat="40.0713745" lon="-105.2297892">
  <ele>1582.93</ele>
  <time>2026-08-28T17:48:34Z</time>
  <course>246.56</course>
  <speed>0.0316227766016838</speed>
  <fix>3d</fix>
</trkpt>
<trkpt lat="40.0713749" lon="-105.229789">
  <ele>1583.0</ele>
  <time>2026-08-28T17:48:34Z</time>
  <course>0.0</course>
  <speed>0.0</speed>
  <fix>3d</fix>
</trkpt>
<trkpt lat="40.0713745" lon="-105.2297892">
  <ele>1582.94</ele>
  <time>2026-08-28T17:48:34Z</time>
  <course>246.56</course>
  <speed>0.0316227766016838</speed>
  <fix>3d</fix>
</trkpt>
<trkpt lat="40.0713749" lon="-105.229789">
  <ele>1583.0</ele>
  <time>2026-08-28T17:48:34Z</time>
  <course>0.0</course>
  <speed>0.0</speed>
  <fix>3d</fix>
</trkpt>
<trkpt lat="40.0713744" lon="-105.2297892">
  <ele>1582.94</ele>
  <time>2026-08-28T17:48:34Z</time>
  <course>246.56</course>
  <speed>0.0316227766016838</speed>
  <fix>3d</fix>
</trkpt>
<trkpt lat="40.0713749" lon="-105.229789">
  <ele>1583.0</ele>
  <time>2026-08-28T17:48:34Z</time>
  <course>0.0</course>
  <speed>0.0</speed>
  <fix>3d</fix>
</trkpt>
<trkpt lat="40.0713744" lon="-105.2297892">
  <ele>1582.95</ele>
  <time>2026-08-28T17:48:34Z</time>
  <course>246.55</course>
  <speed>0.0412310562561766</speed>
  <fix>3d</fix>
</trkpt>
<trkpt lat="40.0713749" lon="-105.229789">
  <ele>1583.0</ele>
  <time>2026-08-28T17:48:34Z</time>
  <course>0.0</course>
  <speed>0.0</speed>
  <fix>3d</fix>
</trkpt>
<trkpt lat="40.0713743" lon="-105.2297892">
  <ele>1582.95</ele>
  <time>2026-08-28T17:48:34Z</time>
  <course>246.55</course>
  <speed>0.0412310562561766</speed>
  <fix>3d</fix>
</trkpt>
<trkpt lat="40.0713749" lon="-105.229789">
  <ele>1583.0</ele>
  <time>2026-08-28T17:48:34Z</time>
  <course>0.0</course>
  <speed>0.0</speed>
  <fix>3d</fix>
</trkpt>
<trkpt lat="40.0713743" lon="-105.2297893">
  <ele>1582.96</ele>
  <time>2026-08-28T17:48:34Z</time>
  <course>246.55</course>
  <speed>0.0412310562561766</speed>
  <fix>3d</fix>
</trkpt>
<trkpt lat="40.0713749" lon="-105.229789">
  <ele>1583.0</ele>
  <time>2026-08-28T17:48:34Z</time>
  <course>0.0</course>
  <speed>0.0</speed>
  <fix>3d</fix>
</trkpt>
<trkpt lat="40.0713743" lon="-105.2297893">
  <ele>1582.97</ele>
  <time>2026-08-28T17:48:34Z</time>
  <course>246.54</course>
  <speed>0.0412310562561766</speed>
  <fix>3d</fix>
</trkpt>
<trkpt lat="40.0713749" lon="-105.229789">
  <ele>1583.0</ele>
  <time>2026-08-28T17:48:34Z</time>
  <course>0.0</course>
  <speed>0.0</speed>
  <fix>3d</fix>
</trkpt>
<trkpt lat="40.0713743" lon="-105.2297893">
  <ele>1582.97</ele>
  <time>2026-08-28T17:48:34Z</time>
  <course>246.54</course>
  <speed>0.0412310562561766</speed>
  <fix>3d</fix>
</trkpt>
<trkpt lat="40.0713749" lon="-105.229789">
  <ele>1583.0</ele>
  <time>2026-08-28T17:48:34Z</time>
  <course>0.0</course>
  <speed>0.0</speed>
  <fix>3d</fix>
</trkpt>
<trkpt lat="40.0713742" lon="-105.2297893">
  <ele>1582.98</ele>
  <time>2026-08-28T17:48:34Z</time>
  <course>246.54</course>
  <speed>0.0412310562561766</speed>
  <fix>3d</fix>
</trkpt>
<trkpt lat="40.0713749" lon="-105.229789">
  <ele>1583.0</ele>
  <time>2026-08-28T17:48:34Z</time>
  <course>0.0</course>
  <speed>0.0</speed>
  <fix>3d</fix>
</trkpt>
<trkpt lat="40.0713742" lon="-105.2297893">
  <ele>1582.98</ele>
  <time>2026-08-28T17:48:34Z</time>
  <course>246.54</course>
  <speed>0.0412310562561766</speed>
  <fix>3d</fix>
</trkpt>
<trkpt lat="40.0713749" lon="-105.229789">
  <ele>1583.0</ele>
  <time>2026-08-28T17:48:34Z</time>
  <course>0.0</course>
  <speed>0.0</speed>
  <fix>3d</fix>
</trkpt>
<trkpt lat="40.0713741" lon="-105.2297893">
  <ele>1582.98</ele>
  <time>2026-08-28T17:48:34Z</time>
  <course>246.53</course>
  <speed>0.05099019513592785</speed>
  <fix>3d</fix>
</trkpt>
<trkpt lat="40.0713749" lon="-105.229789">
  <ele>1583.0</ele>
  <time>2026-08-28T17:48:34Z</time>
  <course>0.0</course>
  <speed>0.0</speed>
  <fix>3d</fix>
</trkpt>
<trkpt lat="40.0713741" lon="-105.2297894">
  <ele>1582.99</ele>
  <time>2026-08-28T17:48:34Z</time>
  <course>246.53</course>
  <speed>0.05099019513592785</speed>
  <fix>3d</fix>
</trkpt>
<trkpt lat="40.0713749" lon="-105.229789">
  <ele>1583.0</ele>
  <time>2026-08-28T17:48:34Z</time>
  <course>0.0</course>
  <speed>0.0</speed>
  <fix>3d</fix>
</trkpt>
<trkpt lat="40.071374" lon="-105.2297894">
  <ele>1582.99</ele>
  <time>2026-08-28T17:48:34Z</time>
  <course>246.53</course>
  <speed>0.053851648071345036</speed>
  <fix>3d</fix>
</trkpt>
<trkpt lat="40.0713749" lon="-105.229789">
  <ele>1583.0</ele>
  <time>2026-08-28T17:48:34Z</time>
  <course>0.0</course>
  <speed>0.0</speed>
  <fix>3d</fix>
</trkpt>
<trkpt lat="40.071374" lon="-105.2297894">
  <ele>1582.99</ele>
  <time>2026-08-28T17:48:34Z</time>
  <course>246.52</course>
  <speed>0.053851648071345036</speed>
  <fix>3d</fix>
</trkpt>
<trkpt lat="40.0713749" lon="-105.229789">
  <ele>1583.0</ele>
  <time>2026-08-28T17:48:34Z</time>
  <course>0.0</course>
  <speed>0.0</speed>
  <fix>3d</fix>
</trkpt>
<trkpt lat="40.0713739" lon="-105.2297894">
  <ele>1582.99</ele>
  <time>2026-08-28T17:48:34Z</time>
  <course>246.52</course>
  <speed>0.053851648071345036</speed>
  <fix>3d</fix>
</trkpt>
<trkpt lat="40.0713749" lon="-105.229789">
  <ele>1583.0</ele>
  <time>2026-08-28T17:48:34Z</time>
  <course>0.0</course>
  <speed>0.0</speed>
  <fix>3d</fix>
</trkpt>
<trkpt lat="40.0713739" lon="-105.2297895">
  <ele>1582.99</ele>
  <time>2026-08-28T17:48:34Z</time>
  <course>246.52</course>
  <speed>0.053851648071345036</speed>
  <fix>3d</fix>
</trkpt>
<trkpt lat="40.0713749" lon="-105.229789">
  <ele>1583.0</ele>
  <time>2026-08-28T17:48:34Z</time>
  <course>0.0</course>
  <speed>0.0</speed>
  <fix>3d</fix>
</trkpt>
<trkpt lat="40.0713738" lon="-105.2297895">
  <ele>1583.0</ele>
  <time>2026-08-28T17:48:34Z</time>
  <course>246.52</course>
  <speed>0.0632455532033676</speed>
  <fix>3d</fix>
</trkpt>
<trkpt lat="40.0713749" lon="-105.229789">
  <ele>1583.0</ele>
  <time>2026-08-28T17:48:34Z</time>
  <course>0.0</course>
  <speed>0.0</speed>
  <fix>3d</fix>
</trkpt>
<trkpt lat="40.0713738" lon="-105.2297895">
  <ele>1583.0</ele>
  <time>2026-08-28T17:48:34Z</time>
  <course>246.51</course>
  <speed>0.0632455532033676</speed>
  <fix>3d</fix>
</trkpt>
<trkpt lat="40.0713749" lon="-105.229789">
  <ele>1583.0</ele>
  <time>2026-08-28T17:48:34Z</time>
  <course>0.0</course>
  <speed>0.0</speed>
  <fix>3d</fix>
</trkpt>
<trkpt lat="40.0713738" lon="-105.2297895">
  <ele>1583.0</ele>
  <time>2026-08-28T17:48:34Z</time>
  <course>246.51</course>
  <speed>0.0632455532033676</speed>
  <fix>3d</fix>
</trkpt>
<trkpt lat="40.0713749" lon="-105.229789">
  <ele>1583.0</ele>
  <time>2026-08-28T17:48:34Z</time>
  <course>0.0</course>
  <speed>0.0</speed>
  <fix>3d</fix>
</trkpt>
<trkpt lat="40.0713738" lon="-105.2297895">
  <ele>1583.0</ele>
  <time>2026-08-28T17:48:34Z</time>
  <course>246.51</course>
  <speed>0.0632455532033676</speed>
  <fix>3d</fix>
</trkpt>
<trkpt lat="40.0713749" lon="-105.229789">
  <ele>1583.0</ele>
  <time>2026-08-28T17:48:34Z</time>
  <course>0.0</course>
  <speed>0.0</speed>
  <fix>3d</fix>
</trkpt>
<trkpt lat="40.0713737" lon="-105.2297895">
  <ele>1583.0</ele>
  <time>2026-08-28T17:48:34Z</time>
  <course>246.5</course>
  <speed>0.0632455532033676</speed>
  <fix>3d</fix>
</trkpt>
<trkpt lat="40.0713749" lon="-105.229789">
  <ele>1583.0</ele>
  <time>2026-08-28T17:48:34Z</time>
  <course>0.0</course>
  <speed>0.0</speed>
  <fix>3d</fix>
</trkpt>
<trkpt lat="40.0713737" lon="-105.2297896">
  <ele>1583.0</ele>
  <time>2026-08-28T17:48:34Z</time>
  <course>246.5</course>
  <speed>0.0632455532033676</speed>
  <fix>3d</fix>
</trkpt>
<trkpt lat="40.0713749" lon="-105.229789">
  <ele>1583.0</ele>
  <time>2026-08-28T17:48:34Z</time>
  <course>0.0</course>
  <speed>0.0</speed>
  <fix>3d</fix>
</trkpt>
<trkpt lat="40.0713736" lon="-105.2297896">
  <ele>1583.0</ele>
  <time>2026-08-28T17:48:34Z</time>
  <course>246.5</course>
  <speed>0.0632455532033676</speed>
  <fix>3d</fix>
</trkpt>
<trkpt lat="40.0713749" lon="-105.229789">
  <ele>1583.0</ele>
  <time>2026-08-28T17:48:34Z</time>
  <course>0.0</course>
  <speed>0.0</speed>
  <fix>3d</fix>
</trkpt>
<trkpt lat="40.0713736" lon="-105.2297896">
  <ele>1583.0</ele>
  <time>2026-08-28T17:48:34Z</time>
  <course>246.5</course>
  <speed>0.0632455532033676</speed>
  <fix>3d</fix>
</trkpt>
<trkpt lat="40.0713749" lon="-105.229789">
  <ele>1583.0</ele>
  <time>2026-08-28T17:48:34Z</time>
  <course>0.0</course>
  <speed>0.0</speed>
  <fix>3d</fix>
</trkpt>
<trkpt lat="40.0713735" lon="-105.2297897">
  <ele>1583.0</ele>
  <time>2026-08-28T17:48:34Z</time>
  <course>246.49</course>
  <speed>0.07280109889280519</speed>
  <fix>3d</fix>
</trkpt>
<trkpt lat="40.0713749" lon="-105.229789">
  <ele>1583.0</ele>
  <time>2026-08-28T17:48:34Z</time>
  <course>0.0</course>
  <speed>0.0</speed>
  <fix>3d</fix>
</trkpt>
<trkpt lat="40.0713734" lon="-105.2297897">
  <ele>1583.0</ele>
  <time>2026-08-28T17:48:34Z</time>
  <course>246.49</course>
  <speed>0.07280109889280519</speed>
  <fix>3d</fix>
</trkpt>
<trkpt lat="40.0713749" lon="-105.229789">
  <ele>1583.0</ele>
  <time>2026-08-28T17:48:34Z</time>
  <course>0.0</course>
  <speed>0.0</speed>
  <fix>3d</fix>
</trkpt>
<trkpt lat="40.0713734" lon="-105.2297897">
  <ele>1583.0</ele>
  <time>2026-08-28T17:48:34Z</time>
  <course>246.49</course>
  <speed>0.07280109889280519</speed>
  <fix>3d</fix>
</trkpt>
<trkpt lat="40.0713749" lon="-105.229789">
  <ele>1583.0</ele>
  <time>2026-08-28T17:48:34Z</time>
  <course>0.0</course>
  <speed>0.0</speed>
  <fix>3d</fix>
</trkpt>
<trkpt lat="40.0713734" lon="-105.2297897">
  <ele>1583.0</ele>
  <time>2026-08-28T17:48:34Z</time>
  <course>246.48</course>
  <speed>0.07280109889280519</speed>
  <fix>3d</fix>
</trkpt>
<trkpt lat="40.0713749" lon="-105.229789">
  <ele>1583.0</ele>
  <time>2026-08-28T17:48:34Z</time>
  <course>0.0</course>
  <speed>0.0</speed>
  <fix>3d</fix>
</trkpt>
<trkpt lat="40.0713734" lon="-105.2297897">
  <ele>1583.01</ele>
  <time>2026-08-28T17:48:34Z</time>
  <course>246.48</course>
  <speed>0.07280109889280519</speed>
  <fix>3d</fix>
</trkpt>
<trkpt lat="40.0713749" lon="-105.229789">
  <ele>1583.0</ele>
  <time>2026-08-28T17:48:34Z</time>
  <course>0.0</course>
  <speed>0.0</speed>
  <fix>3d</fix>
</trkpt>
<trkpt lat="40.0713733" lon="-105.2297897">
  <ele>1583.01</ele>
  <time>2026-08-28T17:48:34Z</time>
  <course>246.48</course>
  <speed>0.07280109889280519</speed>
  <fix>3d</fix>
</trkpt>
<trkpt lat="40.0713749" lon="-105.229789">
  <ele>1583.0</ele>
  <time>2026-08-28T17:48:34Z</time>
  <course>0.0</course>
  <speed>0.0</speed>
  <fix>3d</fix>
</trkpt>
<trkpt lat="40.0713733" lon="-105.2297898">
  <ele>1583.02</ele>
  <time>2026-08-28T17:48:34Z</time>
  <course>246.48</course>
  <speed>0.07280109889280519</speed>
  <fix>3d</fix>
</trkpt>
<trkpt lat="40.0713749" lon="-105.229789">
  <ele>1583.0</ele>
  <time>2026-08-28T17:48:34Z</time>
  <course>0.0</course>
  <speed>0.0</speed>
  <fix>3d</fix>
</trkpt>
<trkpt lat="40.0713732" lon="-105.2297898">
  <ele>1583.02</ele>
  <time>2026-08-28T17:48:34Z</time>
  <course>246.47</course>
  <speed>0.07280109889280519</speed>
  <fix>3d</fix>
</trkpt>
<trkpt lat="40.0713749" lon="-105.229789">
  <ele>1583.0</ele>
  <time>2026-08-28T17:48:34Z</time>
  <course>0.0</course>
  <speed>0.0</speed>
  <fix>3d</fix>
</trkpt>
<trkpt lat="40.0713732" lon="-105.2297898">
  <ele>1583.02</ele>
  <time>2026-08-28T17:48:34Z</time>
  <course>246.47</course>
  <speed>0.07615773105863909</speed>
  <fix>3d</fix>
</trkpt>
<trkpt lat="40.0713749" lon="-105.229789">
  <ele>1583.0</ele>
  <time>2026-08-28T17:48:34Z</time>
  <course>0.0</course>
  <speed>0.0</speed>
  <fix>3d</fix>
</trkpt>
<trkpt lat="40.0713731" lon="-105.2297898">
  <ele>1583.03</ele>
  <time>2026-08-28T17:48:34Z</time>
  <course>246.47</course>
  <speed>0.0854400374531753</speed>
  <fix>3d</fix>
</trkpt>
<trkpt lat="40.0713749" lon="-105.229789">
  <ele>1583.0</ele>
  <time>2026-08-28T17:48:34Z</time>
  <course>0.0</course>
  <speed>0.0</speed>
  <fix>3d</fix>
</trkpt>
<trkpt lat="40.071373" lon="-105.2297899">
  <ele>1583.04</ele>
  <time>2026-08-28T17:48:34Z</time>
  <course>246.46</course>
  <speed>0.0854400374531753</speed>
  <fix>3d</fix>
</trkpt>
<trkpt lat="40.0713749" lon="-105.229789">
  <ele>1583.0</ele>
  <time>2026-08-28T17:48:34Z</time>
  <course>0.0</course>
  <speed>0.0</speed>
  <fix>3d</fix>
</trkpt>
<trkpt lat="40.071373" lon="-105.2297899">
  <ele>1583.04</ele>
  <time>2026-08-28T17:48:34Z</time>
  <course>246.46</course>
  <speed>0.0854400374531753</speed>
  <fix>3d</fix>
</trkpt>
<trkpt lat="40.0713749" lon="-105.229789">
  <ele>1583.0</ele>
  <time>2026-08-28T17:48:34Z</time>
  <course>0.0</course>
  <speed>0.0</speed>
  <fix>3d</fix>
</trkpt>
<trkpt lat="40.0713729" lon="-105.22979">
  <ele>1583.04</ele>
  <time>2026-08-28T17:48:34Z</time>
  <course>246.46</course>
  <speed>0.0854400374531753</speed>
  <fix>3d</fix>
</trkpt>
<trkpt lat="40.0713749" lon="-105.229789">
  <ele>1583.0</ele>
  <time>2026-08-28T17:48:34Z</time>
  <course>0.0</course>
  <speed>0.0</speed>
  <fix>3d</fix>
</trkpt>
<trkpt lat="40.0713728" lon="-105.22979">
  <ele>1583.04</ele>
  <time>2026-08-28T17:48:34Z</time>
  <course>246.46</course>
  <speed>0.0854400374531753</speed>
  <fix>3d</fix>
</trkpt>
<trkpt lat="40.0713749" lon="-105.229789">
  <ele>1583.0</ele>
  <time>2026-08-28T17:48:34Z</time>
  <course>0.0</course>
  <speed>0.0</speed>
  <fix>3d</fix>
</trkpt>
<trkpt lat="40.0713729" lon="-105.22979">
  <ele>1583.03</ele>
  <time>2026-08-28T17:48:34Z</time>
  <course>246.45</course>
  <speed>0.0854400374531753</speed>
  <fix>3d</fix>
</trkpt>
<trkpt lat="40.0713749" lon="-105.229789">
  <ele>1583.0</ele>
  <time>2026-08-28T17:48:34Z</time>
  <course>0.0</course>
  <speed>0.0</speed>
  <fix>3d</fix>
</trkpt>
<trkpt lat="40.0713729" lon="-105.22979">
  <ele>1583.03</ele>
  <time>2026-08-28T17:48:34Z</time>
  <course>246.45</course>
  <speed>0.0854400374531753</speed>
  <fix>3d</fix>
</trkpt>
<trkpt lat="40.0713749" lon="-105.229789">
  <ele>1583.0</ele>
  <time>2026-08-28T17:48:34Z</time>
  <course>0.0</course>
  <speed>0.0</speed>
  <fix>3d</fix>
</trkpt>
<trkpt lat="40.0713729" lon="-105.22979">
  <ele>1583.02</ele>
  <time>2026-08-28T17:48:34Z</time>
  <course>246.45</course>
  <speed>0.0854400374531753</speed>
  <fix>3d</fix>
</trkpt>
<trkpt lat="40.0713749" lon="-105.229789">
  <ele>1583.0</ele>
  <time>2026-08-28T17:48:34Z</time>
  <course>0.0</course>
  <speed>0.0</speed>
  <fix>3d</fix>
</trkpt>
<trkpt lat="40.0713728" lon="-105.22979">
  <ele>1583.02</ele>
  <time>2026-08-28T17:48:34Z</time>
  <course>246.45</course>
  <speed>0.0854400374531753</speed>
  <fix>3d</fix>
</trkpt>
<trkpt lat="40.0713749" lon="-105.229789">
  <ele>1583.0</ele>
  <time>2026-08-28T17:48:34Z</time>
  <course>0.0</course>
  <speed>0.0</speed>
  <fix>3d</fix>
</trkpt>
<trkpt lat="40.0713728" lon="-105.22979">
  <ele>1583.01</ele>
  <time>2026-08-28T17:48:34Z</time>
  <course>246.44</course>
  <speed>0.0854400374531753</speed>
  <fix>3d</fix>
</trkpt>
<trkpt lat="40.0713749" lon="-105.229789">
  <ele>1583.0</ele>
  <time>2026-08-28T17:48:34Z</time>
  <course>0.0</course>
  <speed>0.0</speed>
  <fix>3d</fix>
</trkpt>
<trkpt lat="40.0713727" lon="-105.22979">
  <ele>1583.0</ele>
  <time>2026-08-28T17:48:34Z</time>
  <course>246.44</course>
  <speed>0.09486832980505139</speed>
  <fix>3d</fix>
</trkpt>
<trkpt lat="40.0713749" lon="-105.229789">
  <ele>1583.0</ele>
  <time>2026-08-28T17:48:34Z</time>
  <course>0.0</course>
  <speed>0.0</speed>
  <fix>3d</fix>
</trkpt>
<trkpt lat="40.0713727" lon="-105.2297901">
  <ele>1583.0</ele>
  <time>2026-08-28T17:48:34Z</time>
  <course>246.44</course>
  <speed>0.09486832980505139</speed>
  <fix>3d</fix>
</trkpt>
<trkpt lat="40.0713749" lon="-105.229789">
  <ele>1583.0</ele>
  <time>2026-08-28T17:48:34Z</time>
  <course>0.0</course>
  <speed>0.0</speed>
  <fix>3d</fix>
</trkpt>
<trkpt lat="40.0713726" lon="-105.2297901">
  <ele>1582.99</ele>
  <time>2026-08-28T17:48:34Z</time>
  <course>246.43</course>
  <speed>0.09486832980505139</speed>
  <fix>3d</fix>
</trkpt>
<trkpt lat="40.0713749" lon="-105.229789">
  <ele>1583.0</ele>
  <time>2026-08-28T17:48:34Z</time>
  <course>0.0</course>
  <speed>0.0</speed>
  <fix>3d</fix>
</trkpt>
<trkpt lat="40.0713725" lon="-105.2297901">
  <ele>1582.99</ele>
  <time>2026-08-28T17:48:34Z</time>
  <course>246.43</course>
  <speed>0.09486832980505139</speed>
  <fix>3d</fix>
</trkpt>
<trkpt lat="40.0713749" lon="-105.229789">
  <ele>1583.0</ele>
  <time>2026-08-28T17:48:34Z</time>
  <course>0.0</course>
  <speed>0.0</speed>
  <fix>3d</fix>
</trkpt>
<trkpt lat="40.0713725" lon="-105.2297902">
  <ele>1582.99</ele>
  <time>2026-08-28T17:48:34Z</time>
  <course>246.43</course>
  <speed>0.09486832980505139</speed>
  <fix>3d</fix>
</trkpt>
<trkpt lat="40.0713749" lon="-105.229789">
  <ele>1583.0</ele>
  <time>2026-08-28T17:48:34Z</time>
  <course>0.0</course>
  <speed>0.0</speed>
  <fix>3d</fix>
</trkpt>
<trkpt lat="40.0713726" lon="-105.2297901">
  <ele>1582.99</ele>
  <time>2026-08-28T17:48:34Z</time>
  <course>246.42</course>
  <speed>0.09486832980505139</speed>
  <fix>3d</fix>
</trkpt>
<trkpt lat="40.0713749" lon="-105.229789">
  <ele>1583.0</ele>
  <time>2026-08-28T17:48:34Z</time>
  <course>0.0</course>
  <speed>0.0</speed>
  <fix>3d</fix>
</trkpt>
<trkpt lat="40.0713726" lon="-105.2297901">
  <ele>1583.0</ele>
  <time>2026-08-28T17:48:34Z</time>
  <course>246.42</course>
  <speed>0.09486832980505139</speed>
  <fix>3d</fix>
</trkpt>
<trkpt lat="40.0713749" lon="-105.229789">
  <ele>1583.0</ele>
  <time>2026-08-28T17:48:34Z</time>
  <course>0.0</course>
  <speed>0.0</speed>
  <fix>3d</fix>
</trkpt>
<trkpt lat="40.0713726" lon="-105.2297901">
  <ele>1583.0</ele>
  <time>2026-08-28T17:48:34Z</time>
  <course>246.42</course>
  <speed>0.09486832980505139</speed>
  <fix>3d</fix>
</trkpt>
<trkpt lat="40.0713749" lon="-105.229789">
  <ele>1583.0</ele>
  <time>2026-08-28T17:48:34Z</time>
  <course>0.0</course>
  <speed>0.0</speed>
  <fix>3d</fix>
</trkpt>
<trkpt lat="40.0713726" lon="-105.2297901">
  <ele>1583.0</ele>
  <time>2026-08-28T17:48:34Z</time>
  <course>246.42</course>
  <speed>0.09486832980505139</speed>
  <fix>3d</fix>
</trkpt>
<trkpt lat="40.0713749" lon="-105.229789">
  <ele>1583.0</ele>
  <time>2026-08-28T17:48:34Z</time>
  <course>0.0</course>
  <speed>0.0</speed>
  <fix>3d</fix>
</trkpt>
<trkpt lat="40.0713725" lon="-105.2297901">
  <ele>1583.01</ele>
  <time>2026-08-28T17:48:34Z</time>
  <course>246.41</course>
  <speed>0.09486832980505139</speed>
  <fix>3d</fix>
</trkpt>
<trkpt lat="40.0713749" lon="-105.229789">
  <ele>1583.0</ele>
  <time>2026-08-28T17:48:34Z</time>
  <course>0.0</course>
  <speed>0.0</speed>
  <fix>3d</fix>
</trkpt>
<trkpt lat="40.0713725" lon="-105.2297902">
  <ele>1583.01</ele>
  <time>2026-08-28T17:48:34Z</time>
  <course>246.41</course>
  <speed>0.09486832980505139</speed>
  <fix>3d</fix>
</trkpt>
<trkpt lat="40.0713749" lon="-105.229789">
  <ele>1583.0</ele>
  <time>2026-08-28T17:48:34Z</time>
  <course>0.0</course>
  <speed>0.0</speed>
  <fix>3d</fix>
</trkpt>
<trkpt lat="40.0713724" lon="-105.2297902">
  <ele>1583.02</ele>
  <time>2026-08-28T17:48:34Z</time>
  <course>246.41</course>
  <speed>0.09486832980505139</speed>
  <fix>3d</fix>
</trkpt>
<trkpt lat="40.0713749" lon="-105.229789">
  <ele>1583.0</ele>
  <time>2026-08-28T17:48:34Z</time>
  <course>0.0</course>
  <speed>0.0</speed>
  <fix>3d</fix>
</trkpt>
<trkpt lat="40.0713723" lon="-105.2297902">
  <ele>1583.02</ele>
  <time>2026-08-28T17:48:34Z</time>
  <course>246.4</course>
  <speed>0.09486832980505139</speed>
  <fix>3d</fix>
</trkpt>
<trkpt lat="40.0713749" lon="-105.229789">
  <ele>1583.0</ele>
  <time>2026-08-28T17:48:34Z</time>
  <course>0.0</course>
  <speed>0.0</speed>
  <fix>3d</fix>
</trkpt>
<trkpt lat="40.0713723" lon="-105.2297903">
  <ele>1583.03</ele>
  <time>2026-08-28T17:48:34Z</time>
  <course>246.4</course>
  <speed>0.1044030650891055</speed>
  <fix>3d</fix>
</trkpt>
<trkpt lat="40.0713749" lon="-105.229789">
  <ele>1583.0</ele>
  <time>2026-08-28T17:48:34Z</time>
  <course>0.0</course>
  <speed>0.0</speed>
  <fix>3d</fix>
</trkpt>
<trkpt lat="40.0713722" lon="-105.2297903">
  <ele>1583.03</ele>
  <time>2026-08-28T17:48:34Z</time>
  <course>246.4</course>
  <speed>0.1044030650891055</speed>
  <fix>3d</fix>
</trkpt>
<trkpt lat="40.0713749" lon="-105.229789">
  <ele>1583.0</ele>
  <time>2026-08-28T17:48:34Z</time>
  <course>0.0</course>
  <speed>0.0</speed>
  <fix>3d</fix>
</trkpt>
<trkpt lat="40.0713721" lon="-105.2297903">
  <ele>1583.03</ele>
  <time>2026-08-28T17:48:34Z</time>
  <course>246.4</course>
  <speed>0.10770329614269007</speed>
  <fix>3d</fix>
</trkpt>
<trkpt lat="40.0713749" lon="-105.229789">
  <ele>1583.0</ele>
  <time>2026-08-28T17:48:34Z</time>
  <course>0.0</course>
  <speed>0.0</speed>
  <fix>3d</fix>
</trkpt>
<trkpt lat="40.0713723" lon="-105.2297903">
  <ele>1583.02</ele>
  <time>2026-08-28T17:48:34Z</time>
  <course>246.39</course>
  <speed>0.1044030650891055</speed>
  <fix>3d</fix>
</trkpt>
<trkpt lat="40.0713749" lon="-105.229789">
  <ele>1583.0</ele>
  <time>2026-08-28T17:48:34Z</time>
  <course>0.0</course>
  <speed>0.0</speed>
  <fix>3d</fix>
</trkpt>
<trkpt lat="40.0713723" lon="-105.2297902">
  <ele>1583.01</ele>
  <time>2026-08-28T17:48:34Z</time>
  <course>246.39</course>
  <speed>0.09486832980505139</speed>
  <fix>3d</fix>
</trkpt>
<trkpt lat="40.0713749" lon="-105.229789">
  <ele>1583.0</ele>
  <time>2026-08-28T17:48:34Z</time>
  <course>0.0</course>
  <speed>0.0</speed>
  <fix>3d</fix>
</trkpt>
<trkpt lat="40.0713724" lon="-105.2297902">
  <ele>1583.01</ele>
  <time>2026-08-28T17:48:34Z</time>
  <course>246.39</course>
  <speed>0.09486832980505139</speed>
  <fix>3d</fix>
</trkpt>
<trkpt lat="40.0713749" lon="-105.229789">
  <ele>1583.0</ele>
  <time>2026-08-28T17:48:35Z</time>
  <course>0.0</course>
  <speed>0.0</speed>
  <fix>3d</fix>
</trkpt>
<trkpt lat="40.0713724" lon="-105.2297902">
  <ele>1583.0</ele>
  <time>2026-08-28T17:48:35Z</time>
  <course>246.38</course>
  <speed>0.09486832980505139</speed>
  <fix>3d</fix>
</trkpt>
<trkpt lat="40.0713749" lon="-105.229789">
  <ele>1583.0</ele>
  <time>2026-08-28T17:48:35Z</time>
  <course>0.0</course>
  <speed>0.0</speed>
  <fix>3d</fix>
</trkpt>
<trkpt lat="40.0713723" lon="-105.2297902">
  <ele>1582.99</ele>
  <time>2026-08-28T17:48:35Z</time>
  <course>246.38</course>
  <speed>0.09486832980505139</speed>
  <fix>3d</fix>
</trkpt>
<trkpt lat="40.0713749" lon="-105.229789">
  <ele>1583.0</ele>
  <time>2026-08-28T17:48:35Z</time>
  <course>0.0</course>
  <speed>0.0</speed>
  <fix>3d</fix>
</trkpt>
<trkpt lat="40.0713723" lon="-105.2297903">
  <ele>1582.98</ele>
  <time>2026-08-28T17:48:35Z</time>
  <course>246.38</course>
  <speed>0.09486832980505139</speed>
  <fix>3d</fix>
</trkpt>
<trkpt lat="40.0713749" lon="-105.229789">
  <ele>1583.0</ele>
  <time>2026-08-28T17:48:35Z</time>
  <course>0.0</course>
  <speed>0.0</speed>
  <fix>3d</fix>
</trkpt>
<trkpt lat="40.0713722" lon="-105.2297903">
  <ele>1582.97</ele>
  <time>2026-08-28T17:48:35Z</time>
  <course>246.38</course>
  <speed>0.1044030650891055</speed>
  <fix>3d</fix>
</trkpt>
<trkpt lat="40.0713749" lon="-105.229789">
  <ele>1583.0</ele>
  <time>2026-08-28T17:48:35Z</time>
  <course>0.0</course>
  <speed>0.0</speed>
  <fix>3d</fix>
</trkpt>
<trkpt lat="40.0713721" lon="-105.2297903">
  <ele>1582.96</ele>
  <time>2026-08-28T17:48:35Z</time>
  <course>246.37</course>
  <speed>0.1044030650891055</speed>
  <fix>3d</fix>
</trkpt>
<trkpt lat="40.0713749" lon="-105.229789">
  <ele>1583.0</ele>
  <time>2026-08-28T17:48:35Z</time>
  <course>0.0</course>
  <speed>0.0</speed>
  <fix>3d</fix>
</trkpt>
<trkpt lat="40.0713721" lon="-105.2297904">
  <ele>1582.96</ele>
  <time>2026-08-28T17:48:35Z</time>
  <course>246.37</course>
  <speed>0.10770329614269007</speed>
  <fix>3d</fix>
</trkpt>
<trkpt lat="40.0713749" lon="-105.229789">
  <ele>1583.0</ele>
  <time>2026-08-28T17:48:35Z</time>
  <course>0.0</course>
  <speed>0.0</speed>
  <fix>3d</fix>
</trkpt>
<trkpt lat="40.071372" lon="-105.2297904">
  <ele>1582.95</ele>
  <time>2026-08-28T17:48:35Z</time>
  <course>246.37</course>
  <speed>0.10770329614269007</speed>
  <fix>3d</fix>
</trkpt>
<trkpt lat="40.0713749" lon="-105.229789">
  <ele>1583.0</ele>
  <time>2026-08-28T17:48:35Z</time>
  <course>0.0</course>
  <speed>0.0</speed>
  <fix>3d</fix>
</trkpt>
<trkpt lat="40.0713722" lon="-105.2297903">
  <ele>1582.95</ele>
  <time>2026-08-28T17:48:35Z</time>
  <course>246.36</course>
  <speed>0.1044030650891055</speed>
  <fix>3d</fix>
</trkpt>
<trkpt lat="40.0713749" lon="-105.229789">
  <ele>1583.0</ele>
  <time>2026-08-28T17:48:35Z</time>
  <course>0.0</course>
  <speed>0.0</speed>
  <fix>3d</fix>
</trkpt>
<trkpt lat="40.0713723" lon="-105.2297902">
  <ele>1582.95</ele>
  <time>2026-08-28T17:48:35Z</time>
  <course>246.36</course>
  <speed>0.09486832980505139</speed>
  <fix>3d</fix>
</trkpt>
<trkpt lat="40.0713749" lon="-105.229789">
  <ele>1583.0</ele>
  <time>2026-08-28T17:48:35Z</time>
  <course>0.0</course>
  <speed>0.0</speed>
  <fix>3d</fix>
</trkpt>
<trkpt lat="40.0713724" lon="-105.2297902">
  <ele>1582.95</ele>
  <time>2026-08-28T17:48:35Z</time>
  <course>246.36</course>
  <speed>0.09486832980505139</speed>
  <fix>3d</fix>
</trkpt>
<trkpt lat="40.0713749" lon="-105.229789">
  <ele>1583.0</ele>
  <time>2026-08-28T17:48:35Z</time>
  <course>0.0</course>
  <speed>0.0</speed>
  <fix>3d</fix>
</trkpt>
<trkpt lat="40.0713724" lon="-105.2297902">
  <ele>1582.94</ele>
  <time>2026-08-28T17:48:35Z</time>
  <course>246.36</course>
  <speed>0.09486832980505139</speed>
  <fix>3d</fix>
</trkpt>
<trkpt lat="40.0713749" lon="-105.229789">
  <ele>1583.0</ele>
  <time>2026-08-28T17:48:35Z</time>
  <course>0.0</course>
  <speed>0.0</speed>
  <fix>3d</fix>
</trkpt>
<trkpt lat="40.0713724" lon="-105.2297902">
  <ele>1582.94</ele>
  <time>2026-08-28T17:48:35Z</time>
  <course>246.35</course>
  <speed>0.09486832980505139</speed>
  <fix>3d</fix>
</trkpt>
<trkpt lat="40.0713749" lon="-105.229789">
  <ele>1583.0</ele>
  <time>2026-08-28T17:48:35Z</time>
  <course>0.0</course>
  <speed>0.0</speed>
  <fix>3d</fix>
</trkpt>
<trkpt lat="40.0713723" lon="-105.2297902">
  <ele>1582.94</ele>
  <time>2026-08-28T17:48:35Z</time>
  <course>246.35</course>
  <speed>0.1044030650891055</speed>
  <fix>3d</fix>
</trkpt>
<trkpt lat="40.0713749" lon="-105.229789">
  <ele>1583.0</ele>
  <time>2026-08-28T17:48:35Z</time>
  <course>0.0</course>
  <speed>0.0</speed>
  <fix>3d</fix>
</trkpt>
<trkpt lat="40.0713722" lon="-105.2297903">
  <ele>1582.94</ele>
  <time>2026-08-28T17:48:35Z</time>
  <course>246.35</course>
  <speed>0.1044030650891055</speed>
  <fix>3d</fix>
</trkpt>
<trkpt lat="40.0713749" lon="-105.229789">
  <ele>1583.0</ele>
  <time>2026-08-28T17:48:35Z</time>
  <course>0.0</course>
  <speed>0.0</speed>
  <fix>3d</fix>
</trkpt>
<trkpt lat="40.0713722" lon="-105.2297903">
  <ele>1582.94</ele>
  <time>2026-08-28T17:48:35Z</time>
  <course>246.34</course>
  <speed>0.10770329614269007</speed>
  <fix>3d</fix>
</trkpt>
<trkpt lat="40.0713749" lon="-105.229789">
  <ele>1583.0</ele>
  <time>2026-08-28T17:48:35Z</time>
  <course>0.0</course>
  <speed>0.0</speed>
  <fix>3d</fix>
</trkpt>
<trkpt lat="40.0713721" lon="-105.2297904">
  <ele>1582.94</ele>
  <time>2026-08-28T17:48:35Z</time>
  <course>246.34</course>
  <speed>0.10770329614269007</speed>
  <fix>3d</fix>
</trkpt>
<trkpt lat="40.0713749" lon="-105.229789">
  <ele>1583.0</ele>
  <time>2026-08-28T17:48:35Z</time>
  <course>0.0</course>
  <speed>0.0</speed>
  <fix>3d</fix>
</trkpt>
<trkpt lat="40.071372" lon="-105.2297904">
  <ele>1582.95</ele>
  <time>2026-08-28T17:48:35Z</time>
  <course>246.34</course>
  <speed>0.10770329614269007</speed>
  <fix>3d</fix>
</trkpt>
<trkpt lat="40.0713749" lon="-105.229789">
  <ele>1583.0</ele>
  <time>2026-08-28T17:48:35Z</time>
  <course>0.0</course>
  <speed>0.0</speed>
  <fix>3d</fix>
</trkpt>
<trkpt lat="40.071372" lon="-105.2297904">
  <ele>1582.95</ele>
  <time>2026-08-28T17:48:35Z</time>
  <course>246.33</course>
  <speed>0.10770329614269007</speed>
  <fix>3d</fix>
</trkpt>
<trkpt lat="40.0713749" lon="-105.229789">
  <ele>1583.0</ele>
  <time>2026-08-28T17:48:35Z</time>
  <course>0.0</course>
  <speed>0.0</speed>
  <fix>3d</fix>
</trkpt>
<trkpt lat="40.0713722" lon="-105.2297903">
  <ele>1582.96</ele>
  <time>2026-08-28T17:48:35Z</time>
  <course>246.33</course>
  <speed>0.10770329614269007</speed>
  <fix>3d</fix>
</trkpt>
<trkpt lat="40.0713749" lon="-105.229789">
  <ele>1583.0</ele>
  <time>2026-08-28T17:48:35Z</time>
  <course>0.0</course>
  <speed>0.0</speed>
  <fix>3d</fix>
</trkpt>
<trkpt lat="40.0713723" lon="-105.2297902">
  <ele>1582.97</ele>
  <time>2026-08-28T17:48:35Z</time>
  <course>246.33</course>
  <speed>0.1044030650891055</speed>
  <fix>3d</fix>
</trkpt>
<trkpt lat="40.0713749" lon="-105.229789">
  <ele>1583.0</ele>
  <time>2026-08-28T17:48:35Z</time>
  <course>0.0</course>
  <speed>0.0</speed>
  <fix>3d</fix>
</trkpt>
<trkpt lat="40.0713724" lon="-105.2297902">
  <ele>1582.98</ele>
  <time>2026-08-28T17:48:35Z</time>
  <course>246.33</course>
  <speed>0.09486832980505139</speed>
  <fix>3d</fix>
</trkpt>
<trkpt lat="40.0713749" lon="-105.229789">
  <ele>1583.0</ele>
  <time>2026-08-28T17:48:35Z</time>
  <course>0.0</course>
  <speed>0.0</speed>
  <fix>3d</fix>
</trkpt>
<trkpt lat="40.0713724" lon="-105.2297902">
  <ele>1582.99</ele>
  <time>2026-08-28T17:48:35Z</time>
  <course>246.32</course>
  <speed>0.09486832980505139</speed>
  <fix>3d</fix>
</trkpt>
<trkpt lat="40.0713749" lon="-105.229789">
  <ele>1583.0</ele>
  <time>2026-08-28T17:48:35Z</time>
  <course>0.0</course>
  <speed>0.0</speed>
  <fix>3d</fix>
</trkpt>
<trkpt lat="40.0713724" lon="-105.2297902">
  <ele>1583.0</ele>
  <time>2026-08-28T17:48:35Z</time>
  <course>246.32</course>
  <speed>0.09486832980505139</speed>
  <fix>3d</fix>
</trkpt>
<trkpt lat="40.0713749" lon="-105.229789">
  <ele>1583.0</ele>
  <time>2026-08-28T17:48:35Z</time>
  <course>0.0</course>
  <speed>0.0</speed>
  <fix>3d</fix>
</trkpt>
<trkpt lat="40.0713749" lon="-105.229789">
  <ele>1583.08</ele>
  <time>2026-08-28T17:48:35Z</time>
  <course>246.32</course>
  <speed>0.1044030650891055</speed>
  <fix>3d</fix>
</trkpt>
<trkpt lat="40.0713749" lon="-105.229789">
  <ele>1583.0</ele>
  <time>2026-08-28T17:48:35Z</time>
  <course>0.0</course>
  <speed>0.0</speed>
  <fix>3d</fix>
</trkpt>
<trkpt lat="40.0713749" lon="-105.229789">
  <ele>1583.09</ele>
  <time>2026-08-28T17:48:35Z</time>
  <course>246.31</course>
  <speed>0.10770329614269007</speed>
  <fix>3d</fix>
</trkpt>
<trkpt lat="40.0713749" lon="-105.229789">
  <ele>1583.0</ele>
  <time>2026-08-28T17:48:35Z</time>
  <course>0.0</course>
  <speed>0.0</speed>
  <fix>3d</fix>
</trkpt>
<trkpt lat="40.0713749" lon="-105.229789">
  <ele>1583.01</ele>
  <time>2026-08-28T17:48:35Z</time>
  <course>246.31</course>
  <speed>0.10770329614269007</speed>
  <fix>3d</fix>
</trkpt>
<trkpt lat="40.0713749" lon="-105.229789">
  <ele>1583.0</ele>
  <time>2026-08-28T17:48:35Z</time>
  <course>0.0</course>
  <speed>0.0</speed>
  <fix>3d</fix>
</trkpt>
<trkpt lat="40.0713749" lon="-105.229789">
  <ele>1583.14</ele>
  <time>2026-08-28T17:48:35Z</time>
  <course>246.31</course>
  <speed>0.10770329614269007</speed>
  <fix>3d</fix>
</trkpt>
<trkpt lat="40.0713749" lon="-105.229789">
  <ele>1583.0</ele>
  <time>2026-08-28T17:48:35Z</time>
  <course>0.0</course>
  <speed>0.0</speed>
  <fix>3d</fix>
</trkpt>
<trkpt lat="40.0713749" lon="-105.229789">
  <ele>1582.91</ele>
  <time>2026-08-28T17:48:35Z</time>
  <course>246.3</course>
  <speed>0.10770329614269007</speed>
  <fix>3d</fix>
</trkpt>
<trkpt lat="40.0713749" lon="-105.229789">
  <ele>1583.0</ele>
  <time>2026-08-28T17:48:35Z</time>
  <course>0.0</course>
  <speed>0.0</speed>
  <fix>3d</fix>
</trkpt>
<trkpt lat="40.0713749" lon="-105.229789">
  <ele>1583.06</ele>
  <time>2026-08-28T17:48:35Z</time>
  <course>246.3</course>
  <speed>0.1044030650891055</speed>
  <fix>3d</fix>
</trkpt>
<trkpt lat="40.0713749" lon="-105.229789">
  <ele>1583.0</ele>
  <time>2026-08-28T17:48:35Z</time>
  <course>0.0</course>
  <speed>0.0</speed>
  <fix>3d</fix>
</trkpt>
<trkpt lat="40.0713749" lon="-105.229789">
  <ele>1582.92</ele>
  <time>2026-08-28T17:48:35Z</time>
  <course>246.3</course>
  <speed>0.09486832980505139</speed>
  <fix>3d</fix>
</trkpt>
<trkpt lat="40.0713749" lon="-105.229789">
  <ele>1583.0</ele>
  <time>2026-08-28T17:48:35Z</time>
  <course>0.0</course>
  <speed>0.0</speed>
  <fix>3d</fix>
</trkpt>
<trkpt lat="40.0713749" lon="-105.229789">
  <ele>1582.99</ele>
  <time>2026-08-28T17:48:35Z</time>
  <course>246.3</course>
  <speed>0.09486832980505139</speed>
  <fix>3d</fix>
</trkpt>
<trkpt lat="40.0713749" lon="-105.229789">
  <ele>1583.0</ele>
  <time>2026-08-28T17:48:35Z</time>
  <course>0.0</course>
  <speed>0.0</speed>
  <fix>3d</fix>
</trkpt>
<trkpt lat="40.0713749" lon="-105.229789">
  <ele>1583.0</ele>
  <time>2026-08-28T17:48:35Z</time>
  <course>246.29</course>
  <speed>0.09486832980505139</speed>
  <fix>3d</fix>
</trkpt>
<trkpt lat="40.0713749" lon="-105.229789">
  <ele>1583.0</ele>
  <time>2026-08-28T17:48:35Z</time>
  <course>0.0</course>
  <speed>0.0</speed>
  <fix>3d</fix>
</trkpt>
<trkpt lat="40.0713749" lon="-105.229789">
  <ele>1583.17</ele>
  <time>2026-08-28T17:48:35Z</time>
  <course>246.29</course>
  <speed>0.09486832980505139</speed>
  <fix>3d</fix>
</trkpt>
<trkpt lat="40.0713749" lon="-105.229789">
  <ele>1583.0</ele>
  <time>2026-08-28T17:48:35Z</time>
  <course>0.0</course>
  <speed>0.0</speed>
  <fix>3d</fix>
</trkpt>
<trkpt lat="40.0713749" lon="-105.229789">
  <ele>1583.0</ele>
  <time>2026-08-28T17:48:35Z</time>
  <course>246.29</course>
  <speed>0.1044030650891055</speed>
  <fix>3d</fix>
</trkpt>
<trkpt lat="40.0713749" lon="-105.229789">
  <ele>1583.0</ele>
  <time>2026-08-28T17:48:35Z</time>
  <course>0.0</course>
  <speed>0.0</speed>
  <fix>3d</fix>
</trkpt>
<trkpt lat="40.0713749" lon="-105.229789">
  <ele>1582.95</ele>
  <time>2026-08-28T17:48:35Z</time>
  <course>246.28</course>
  <speed>0.1044030650891055</speed>
  <fix>3d</fix>
</trkpt>
<trkpt lat="40.0713749" lon="-105.229789">
  <ele>1583.0</ele>
  <time>2026-08-28T17:48:35Z</time>
  <course>0.0</course>
  <speed>0.0</speed>
  <fix>3d</fix>
</trkpt>
<trkpt lat="40.0713748" lon="-105.2297891">
  <ele>1583.04</ele>
  <time>2026-08-28T17:48:35Z</time>
  <course>246.28</course>
  <speed>0.0854400374531753</speed>
  <fix>3d</fix>
</trkpt>
<trkpt lat="40.0713749" lon="-105.229789">
  <ele>1583.0</ele>
  <time>2026-08-28T17:48:35Z</time>
  <course>0.0</course>
  <speed>0.0</speed>
  <fix>3d</fix>
</trkpt>
<trkpt lat="40.0713748" lon="-105.2297891">
  <ele>1583.04</ele>
  <time>2026-08-28T17:48:35Z</time>
  <course>246.28</course>
  <speed>0.07280109889280519</speed>
  <fix>3d</fix>
</trkpt>
<trkpt lat="40.0713749" lon="-105.229789">
  <ele>1583.0</ele>
  <time>2026-08-28T17:48:35Z</time>
  <course>0.0</course>
  <speed>0.0</speed>
  <fix>3d</fix>
</trkpt>
<trkpt lat="40.0713748" lon="-105.2297891">
  <ele>1583.04</ele>
  <time>2026-08-28T17:48:35Z</time>
  <course>246.28</course>
  <speed>0.0632455532033676</speed>
  <fix>3d</fix>
</trkpt>
<trkpt lat="40.0713749" lon="-105.229789">
  <ele>1583.0</ele>
  <time>2026-08-28T17:48:35Z</time>
  <course>0.0</course>
  <speed>0.0</speed>
  <fix>3d</fix>
</trkpt>
<trkpt lat="40.0713748" lon="-105.2297891">
  <ele>1583.04</ele>
  <time>2026-08-28T17:48:35Z</time>
  <course>246.27</course>
  <speed>0.053851648071345036</speed>
  <fix>3d</fix>
</trkpt>
<trkpt lat="40.0713749" lon="-105.229789">
  <ele>1583.0</ele>
  <time>2026-08-28T17:48:35Z</time>
  <course>0.0</course>
  <speed>0.0</speed>
  <fix>3d</fix>
</trkpt>
<trkpt lat="40.0713748" lon="-105.2297891">
  <ele>1583.03</ele>
  <time>2026-08-28T17:48:35Z</time>
  <course>246.27</course>
  <speed>0.0412310562561766</speed>
  <fix>3d</fix>
</trkpt>
<trkpt lat="40.0713749" lon="-105.229789">
  <ele>1583.0</ele>
  <time>2026-08-28T17:48:35Z</time>
  <course>0.0</course>
  <speed>0.0</speed>
  <fix>3d</fix>
</trkpt>
<trkpt lat="40.0713748" lon="-105.2297891">
  <ele>1583.03</ele>
  <time>2026-08-28T17:48:35Z</time>
  <course>246.27</course>
  <speed>0.0316227766016838</speed>
  <fix>3d</fix>
</trkpt>
<trkpt lat="40.0713749" lon="-105.229789">
  <ele>1583.0</ele>
  <time>2026-08-28T17:48:35Z</time>
  <course>0.0</course>
  <speed>0.0</speed>
  <fix>3d</fix>
</trkpt>
<trkpt lat="40.0713748" lon="-105.2297891">
  <ele>1583.03</ele>
  <time>2026-08-28T17:48:35Z</time>
  <course>246.27</course>
  <speed>0.0316227766016838</speed>
  <fix>3d</fix>
</trkpt>
<trkpt lat="40.0713749" lon="-105.229789">
  <ele>1583.0</ele>
  <time>2026-08-28T17:48:35Z</time>
  <course>0.0</course>
  <speed>0.0</speed>
  <fix>3d</fix>
</trkpt>
<trkpt lat="40.0713749" lon="-105.2297891">
  <ele>1583.02</ele>
  <time>2026-08-28T17:48:35Z</time>
  <course>246.26</course>
  <speed>0.022360679774997897</speed>
  <fix>3d</fix>
</trkpt>
<trkpt lat="40.0713749" lon="-105.229789">
  <ele>1583.0</ele>
  <time>2026-08-28T17:48:35Z</time>
  <course>0.0</course>
  <speed>0.0</speed>
  <fix>3d</fix>
</trkpt>
<trkpt lat="40.0713749" lon="-105.229789">
  <ele>1583.02</ele>
  <time>2026-08-28T17:48:35Z</time>
  <course>246.26</course>
  <speed>0.02</speed>
  <fix>3d</fix>
</trkpt>
<trkpt lat="40.0713749" lon="-105.229789">
  <ele>1583.0</ele>
  <time>2026-08-28T17:48:35Z</time>
  <course>0.0</course>
  <speed>0.0</speed>
  <fix>3d</fix>
</trkpt>
<trkpt lat="40.0713749" lon="-105.229789">
  <ele>1583.02</ele>
  <time>2026-08-28T17:48:35Z</time>
  <course>246.26</course>
  <speed>0.02</speed>
  <fix>3d</fix>
</trkpt>
<trkpt lat="40.0713749" lon="-105.229789">
  <ele>1583.0</ele>
  <time>2026-08-28T17:48:35Z</time>
  <course>0.0</course>
  <speed>0.0</speed>
  <fix>3d</fix>
</trkpt>
<trkpt lat="40.0713749" lon="-105.229789">
  <ele>1583.01</ele>
  <time>2026-08-28T17:48:35Z</time>
  <course>246.25</course>
  <speed>0.02</speed>
  <fix>3d</fix>
</trkpt>
<trkpt lat="40.0713749" lon="-105.229789">
  <ele>1583.0</ele>
  <time>2026-08-28T17:48:35Z</time>
  <course>0.0</course>
  <speed>0.0</speed>
  <fix>3d</fix>
</trkpt>
<trkpt lat="40.0713749" lon="-105.229789">
  <ele>1583.01</ele>
  <time>2026-08-28T17:48:35Z</time>
  <course>246.25</course>
  <speed>0.01</speed>
  <fix>3d</fix>
</trkpt>
<trkpt lat="40.0713749" lon="-105.229789">
  <ele>1583.0</ele>
  <time>2026-08-28T17:48:35Z</time>
  <course>0.0</course>
  <speed>0.0</speed>
  <fix>3d</fix>
</trkpt>
<trkpt lat="40.0713749" lon="-105.229789">
  <ele>1583.01</ele>
  <time>2026-08-28T17:48:35Z</time>
  <course>246.25</course>
  <speed>0.01</speed>
  <fix>3d</fix>
</trkpt>
<trkpt lat="40.0713749" lon="-105.229789">
  <ele>1583.0</ele>
  <time>2026-08-28T17:48:35Z</time>
  <course>0.0</course>
  <speed>0.0</speed>
  <fix>3d</fix>
</trkpt>
<trkpt lat="40.0713749" lon="-105.229789">
  <ele>1583.01</ele>
  <time>2026-08-28T17:48:35Z</time>
  <course>246.25</course>
  <speed>0.01</speed>
  <fix>3d</fix>
</trkpt>
<trkpt lat="40.0713749" lon="-105.229789">
  <ele>1583.0</ele>
  <time>2026-08-28T17:48:35Z</time>
  <course>66.0</course>
  <speed>0.0</speed>
  <fix>3d</fix>
</trkpt>
<trkpt lat="40.0713749" lon="-105.229789">
  <ele>1583.02</ele>
  <time>2026-08-28T17:48:35Z</time>
  <course>246.24</course>
  <speed>0.01</speed>
  <fix>3d</fix>
</trkpt>
<trkpt lat="40.0713749" lon="-105.229789">
  <ele>1583.0</ele>
  <time>2026-08-28T17:48:35Z</time>
  <course>66.0</course>
  <speed>0.0</speed>
  <fix>3d</fix>
</trkpt>
<trkpt lat="40.0713749" lon="-105.229789">
  <ele>1583.02</ele>
  <time>2026-08-28T17:48:35Z</time>
  <course>246.24</course>
  <speed>0.01</speed>
  <fix>3d</fix>
</trkpt>
<trkpt lat="40.0713749" lon="-105.229789">
  <ele>1583.0</ele>
  <time>2026-08-28T17:48:35Z</time>
  <course>66.0</course>
  <speed>0.0</speed>
  <fix>3d</fix>
</trkpt>
<trkpt lat="40.0713749" lon="-105.229789">
  <ele>1583.02</ele>
  <time>2026-08-28T17:48:35Z</time>
  <course>246.24</course>
  <speed>0.01</speed>
  <fix>3d</fix>
</trkpt>
<trkpt lat="40.0713749" lon="-105.229789">
  <ele>1583.0</ele>
  <time>2026-08-28T17:48:35Z</time>
  <course>66.0</course>
  <speed>0.0</speed>
  <fix>3d</fix>
</trkpt>
<trkpt lat="40.0713749" lon="-105.229789">
  <ele>1583.02</ele>
  <time>2026-08-28T17:48:35Z</time>
  <course>246.23</course>
  <speed>0.01</speed>
  <fix>3d</fix>
</trkpt>
<trkpt lat="40.0713749" lon="-105.229789">
  <ele>1583.0</ele>
  <time>2026-08-28T17:48:35Z</time>
  <course>66.0</course>
  <speed>0.0</speed>
  <fix>3d</fix>
</trkpt>
<trkpt lat="40.0713749" lon="-105.229789">
  <ele>1583.02</ele>
  <time>2026-08-28T17:48:35Z</time>
  <course>246.23</course>
  <speed>0.01</speed>
  <fix>3d</fix>
</trkpt>
<trkpt lat="40.0713749" lon="-105.229789">
  <ele>1583.0</ele>
  <time>2026-08-28T17:48:35Z</time>
  <course>66.0</course>
  <speed>0.0</speed>
  <fix>3d</fix>
</trkpt>
<trkpt lat="40.0713749" lon="-105.229789">
  <ele>1583.02</ele>
  <time>2026-08-28T17:48:35Z</time>
  <course>246.23</course>
  <speed>0.01</speed>
  <fix>3d</fix>
</trkpt>
<trkpt lat="40.0713749" lon="-105.229789">
  <ele>1583.0</ele>
  <time>2026-08-28T17:48:35Z</time>
  <course>66.0</course>
  <speed>0.0</speed>
  <fix>3d</fix>
</trkpt>
<trkpt lat="40.0713749" lon="-105.229789">
  <ele>1583.02</ele>
  <time>2026-08-28T17:48:35Z</time>
  <course>246.23</course>
  <speed>0.01</speed>
  <fix>3d</fix>
</trkpt>
<trkpt lat="40.0713749" lon="-105.229789">
  <ele>1583.0</ele>
  <time>2026-08-28T17:48:35Z</time>
  <course>66.0</course>
  <speed>0.0</speed>
  <fix>3d</fix>
</trkpt>
<trkpt lat="40.0713749" lon="-105.229789">
  <ele>1583.03</ele>
  <time>2026-08-28T17:48:35Z</time>
  <course>246.22</course>
  <speed>0.01</speed>
  <fix>3d</fix>
</trkpt>
<trkpt lat="40.0713749" lon="-105.229789">
  <ele>1583.0</ele>
  <time>2026-08-28T17:48:35Z</time>
  <course>66.0</course>
  <speed>0.01</speed>
  <fix>3d</fix>
</trkpt>
<trkpt lat="40.0713749" lon="-105.229789">
  <ele>1583.03</ele>
  <time>2026-08-28T17:48:35Z</time>
  <course>246.22</course>
  <speed>0.01</speed>
  <fix>3d</fix>
</trkpt>
<trkpt lat="40.0713749" lon="-105.229789">
  <ele>1583.0</ele>
  <time>2026-08-28T17:48:35Z</time>
  <course>66.0</course>
  <speed>0.01</speed>
  <fix>3d</fix>
</trkpt>
<trkpt lat="40.0713748" lon="-105.229789">
  <ele>1583.04</ele>
  <time>2026-08-28T17:48:35Z</time>
  <course>246.22</course>
  <speed>0.01</speed>
  <fix>3d</fix>
</trkpt>
<trkpt lat="40.0713749" lon="-105.229789">
  <ele>1583.0</ele>
  <time>2026-08-28T17:48:35Z</time>
  <course>66.0</course>
  <speed>0.01</speed>
  <fix>3d</fix>
</trkpt>
<trkpt lat="40.0713748" lon="-105.229789">
  <ele>1583.04</ele>
  <time>2026-08-28T17:48:35Z</time>
  <course>246.22</course>
  <speed>0.01</speed>
  <fix>3d</fix>
</trkpt>
<trkpt lat="40.0713749" lon="-105.229789">
  <ele>1583.0</ele>
  <time>2026-08-28T17:48:35Z</time>
  <course>66.0</course>
  <speed>0.01</speed>
  <fix>3d</fix>
</trkpt>
<trkpt lat="40.0713748" lon="-105.229789">
  <ele>1583.04</ele>
  <time>2026-08-28T17:48:35Z</time>
  <course>246.21</course>
  <speed>0.01</speed>
  <fix>3d</fix>
</trkpt>
<trkpt lat="40.0713749" lon="-105.229789">
  <ele>1583.0</ele>
  <time>2026-08-28T17:48:35Z</time>
  <course>66.0</course>
  <speed>0.01</speed>
  <fix>3d</fix>
</trkpt>
<trkpt lat="40.0713748" lon="-105.229789">
  <ele>1583.05</ele>
  <time>2026-08-28T17:48:35Z</time>
  <course>246.21</course>
  <speed>0.01</speed>
  <fix>3d</fix>
</trkpt>
<trkpt lat="40.0713749" lon="-105.2297889">
  <ele>1583.0</ele>
  <time>2026-08-28T17:48:35Z</time>
  <course>66.0</course>
  <speed>0.01</speed>
  <fix>3d</fix>
</trkpt>
<trkpt lat="40.0713748" lon="-105.229789">
  <ele>1583.05</ele>
  <time>2026-08-28T17:48:35Z</time>
  <course>246.21</course>
  <speed>0.01</speed>
  <fix>3d</fix>
</trkpt>
<trkpt lat="40.0713749" lon="-105.2297889">
  <ele>1583.0</ele>
  <time>2026-08-28T17:48:35Z</time>
  <course>66.0</course>
  <speed>0.01</speed>
  <fix>3d</fix>
</trkpt>
<trkpt lat="40.0713748" lon="-105.229789">
  <ele>1583.05</ele>
  <time>2026-08-28T17:48:35Z</time>
  <course>246.2</course>
  <speed>0.01</speed>
  <fix>3d</fix>
</trkpt>
<trkpt lat="40.0713749" lon="-105.2297888">
  <ele>1583.0</ele>
  <time>2026-08-28T17:48:35Z</time>
  <course>66.0</course>
  <speed>0.01</speed>
  <fix>3d</fix>
</trkpt>
<trkpt lat="40.0713748" lon="-105.2297889">
  <ele>1583.05</ele>
  <time>2026-08-28T17:48:35Z</time>
  <course>246.2</course>
  <speed>0.01</speed>
  <fix>3d</fix>
</trkpt>
<trkpt lat="40.0713749" lon="-105.2297888">
  <ele>1583.0</ele>
  <time>2026-08-28T17:48:35Z</time>
  <course>66.0</course>
  <speed>0.01</speed>
  <fix>3d</fix>
</trkpt>
<trkpt lat="40.0713748" lon="-105.2297889">
  <ele>1583.05</ele>
  <time>2026-08-28T17:48:35Z</time>
  <course>246.2</course>
  <speed>0.01</speed>
  <fix>3d</fix>
</trkpt>
<trkpt lat="40.0713749" lon="-105.2297888">
  <ele>1583.0</ele>
  <time>2026-08-28T17:48:35Z</time>
  <course>66.0</course>
  <speed>0.01</speed>
  <fix>3d</fix>
</trkpt>
<trkpt lat="40.0713748" lon="-105.2297889">
  <ele>1583.04</ele>
  <time>2026-08-28T17:48:35Z</time>
  <course>246.2</course>
  <speed>0.01</speed>
  <fix>3d</fix>
</trkpt>
<trkpt lat="40.0713749" lon="-105.2297888">
  <ele>1583.0</ele>
  <time>2026-08-28T17:48:35Z</time>
  <course>66.0</course>
  <speed>0.01</speed>
  <fix>3d</fix>
</trkpt>
<trkpt lat="40.0713748" lon="-105.2297889">
  <ele>1583.04</ele>
  <time>2026-08-28T17:48:35Z</time>
  <course>246.19</course>
  <speed>0.01</speed>
  <fix>3d</fix>
</trkpt>
<trkpt lat="40.0713749" lon="-105.2297888">
  <ele>1583.0</ele>
  <time>2026-08-28T17:48:35Z</time>
  <course>66.0</course>
  <speed>0.01</speed>
  <fix>3d</fix>
</trkpt>
<trkpt lat="40.0713748" lon="-105.2297889">
  <ele>1583.04</ele>
  <time>2026-08-28T17:48:35Z</time>
  <course>246.19</course>
  <speed>0.01</speed>
  <fix>3d</fix>
</trkpt>
<trkpt lat="40.0713749" lon="-105.2297888">
  <ele>1583.0</ele>
  <time>2026-08-28T17:48:35Z</time>
  <course>66.0</course>
  <speed>0.0</speed>
  <fix>3d</fix>
</trkpt>
<trkpt lat="40.0713748" lon="-105.2297889">
  <ele>1583.04</ele>
  <time>2026-08-28T17:48:35Z</time>
  <course>246.19</course>
  <speed>0.02</speed>
  <fix>3d</fix>
</trkpt>
<trkpt lat="40.0713749" lon="-105.2297888">
  <ele>1583.0</ele>
  <time>2026-08-28T17:48:35Z</time>
  <course>66.0</course>
  <speed>0.0</speed>
  <fix>3d</fix>
</trkpt>
<trkpt lat="40.0713748" lon="-105.2297889">
  <ele>1583.03</ele>
  <time>2026-08-28T17:48:35Z</time>
  <course>246.18</course>
  <speed>0.02</speed>
  <fix>3d</fix>
</trkpt>
<trkpt lat="40.0713749" lon="-105.2297888">
  <ele>1583.0</ele>
  <time>2026-08-28T17:48:35Z</time>
  <course>66.0</course>
  <speed>0.0</speed>
  <fix>3d</fix>
</trkpt>
<trkpt lat="40.0713748" lon="-105.2297889">
  <ele>1583.03</ele>
  <time>2026-08-28T17:48:35Z</time>
  <course>246.18</course>
  <speed>0.02</speed>
  <fix>3d</fix>
</trkpt>
<trkpt lat="40.0713749" lon="-105.2297888">
  <ele>1583.0</ele>
  <time>2026-08-28T17:48:35Z</time>
  <course>66.0</course>
  <speed>0.0</speed>
  <fix>3d</fix>
</trkpt>
<trkpt lat="40.0713748" lon="-105.2297889">
  <ele>1583.02</ele>
  <time>2026-08-28T17:48:35Z</time>
  <course>246.18</course>
  <speed>0.02</speed>
  <fix>3d</fix>
</trkpt>
<trkpt lat="40.0713749" lon="-105.2297888">
  <ele>1583.0</ele>
  <time>2026-08-28T17:48:35Z</time>
  <course>66.0</course>
  <speed>0.0</speed>
  <fix>3d</fix>
</trkpt>
<trkpt lat="40.0713748" lon="-105.2297889">
  <ele>1583.02</ele>
  <time>2026-08-28T17:48:35Z</time>
  <course>246.18</course>
  <speed>0.02</speed>
  <fix>3d</fix>
</trkpt>
<trkpt lat="40.0713749" lon="-105.2297888">
  <ele>1583.0</ele>
  <time>2026-08-28T17:48:35Z</time>
  <course>66.0</course>
  <speed>0.0</speed>
  <fix>3d</fix>
</trkpt>
<trkpt lat="40.0713748" lon="-105.2297889">
  <ele>1583.02</ele>
  <time>2026-08-28T17:48:35Z</time>
  <course>246.17</course>
  <speed>0.02</speed>
  <fix>3d</fix>
</trkpt>
<trkpt lat="40.0713749" lon="-105.2297888">
  <ele>1583.0</ele>
  <time>2026-08-28T17:48:35Z</time>
  <course>66.0</course>
  <speed>0.0</speed>
  <fix>3d</fix>
</trkpt>
<trkpt lat="40.0713748" lon="-105.2297889">
  <ele>1583.02</ele>
  <time>2026-08-28T17:48:35Z</time>
  <course>246.17</course>
  <speed>0.02</speed>
  <fix>3d</fix>
</trkpt>
<trkpt lat="40.0713749" lon="-105.2297888">
  <ele>1583.0</ele>
  <time>2026-08-28T17:48:35Z</time>
  <course>66.0</course>
  <speed>0.0</speed>
  <fix>3d</fix>
</trkpt>
<trkpt lat="40.0713748" lon="-105.2297889">
  <ele>1583.01</ele>
  <time>2026-08-28T17:48:35Z</time>
  <course>246.17</course>
  <speed>0.02</speed>
  <fix>3d</fix>
</trkpt>
<trkpt lat="40.0713749" lon="-105.2297888">
  <ele>1583.0</ele>
  <time>2026-08-28T17:48:35Z</time>
  <course>66.0</course>
  <speed>0.0</speed>
  <fix>3d</fix>
</trkpt>
<trkpt lat="40.0713748" lon="-105.2297889">
  <ele>1583.01</ele>
  <time>2026-08-28T17:48:35Z</time>
  <course>246.17</course>
  <speed>0.02</speed>
  <fix>3d</fix>
</trkpt>
<trkpt lat="40.0713749" lon="-105.2297888">
  <ele>1583.0</ele>
  <time>2026-08-28T17:48:35Z</time>
  <course>66.0</course>
  <speed>0.0</speed>
  <fix>3d</fix>
</trkpt>
<trkpt lat="40.0713748" lon="-105.2297889">
  <ele>1583.0</ele>
  <time>2026-08-28T17:48:35Z</time>
  <course>246.16</course>
  <speed>0.03</speed>
  <fix>3d</fix>
</trkpt>
<trkpt lat="40.0713749" lon="-105.2297888">
  <ele>1583.0</ele>
  <time>2026-08-28T17:48:35Z</time>
  <course>66.0</course>
  <speed>0.0</speed>
  <fix>3d</fix>
</trkpt>
<trkpt lat="40.0713747" lon="-105.2297889">
  <ele>1583.0</ele>
  <time>2026-08-28T17:48:35Z</time>
  <course>246.16</course>
  <speed>0.03</speed>
  <fix>3d</fix>
</trkpt>
<trkpt lat="40.0713749" lon="-105.2297888">
  <ele>1583.0</ele>
  <time>2026-08-28T17:48:35Z</time>
  <course>66.0</course>
  <speed>0.0</speed>
  <fix>3d</fix>
</trkpt>
<trkpt lat="40.0713747" lon="-105.2297889">
  <ele>1582.99</ele>
  <time>2026-08-28T17:48:35Z</time>
  <course>246.16</course>
  <speed>0.03</speed>
  <fix>3d</fix>
</trkpt>
<trkpt lat="40.0713749" lon="-105.2297888">
  <ele>1583.0</ele>
  <time>2026-08-28T17:48:35Z</time>
  <course>66.0</course>
  <speed>0.0</speed>
  <fix>3d</fix>
</trkpt>
<trkpt lat="40.0713747" lon="-105.2297889">
  <ele>1582.98</ele>
  <time>2026-08-28T17:48:35Z</time>
  <course>246.16</course>
  <speed>0.0316227766016838</speed>
  <fix>3d</fix>
</trkpt>
<trkpt lat="40.0713749" lon="-105.2297888">
  <ele>1583.0</ele>
  <time>2026-08-28T17:48:35Z</time>
  <course>66.0</course>
  <speed>0.0</speed>
  <fix>3d</fix>
</trkpt>
<trkpt lat="40.0713746" lon="-105.2297889">
  <ele>1582.98</ele>
  <time>2026-08-28T17:48:35Z</time>
  <course>246.15</course>
  <speed>0.0316227766016838</speed>
  <fix>3d</fix>
</trkpt>
<trkpt lat="40.0713749" lon="-105.2297888">
  <ele>1583.0</ele>
  <time>2026-08-28T17:48:35Z</time>
  <course>66.0</course>
  <speed>0.0</speed>
  <fix>3d</fix>
</trkpt>
<trkpt lat="40.0713746" lon="-105.2297889">
  <ele>1582.97</ele>
  <time>2026-08-28T17:48:35Z</time>
  <course>246.15</course>
  <speed>0.0412310562561766</speed>
  <fix>3d</fix>
</trkpt>
<trkpt lat="40.071375" lon="-105.2297887">
  <ele>1583.0</ele>
  <time>2026-08-28T17:48:35Z</time>
  <course>66.0</course>
  <speed>0.0</speed>
  <fix>3d</fix>
</trkpt>
<trkpt lat="40.0713745" lon="-105.2297889">
  <ele>1582.97</ele>
  <time>2026-08-28T17:48:35Z</time>
  <course>246.15</course>
  <speed>0.0412310562561766</speed>
  <fix>3d</fix>
</trkpt>
<trkpt lat="40.071375" lon="-105.2297887">
  <ele>1583.0</ele>
  <time>2026-08-28T17:48:35Z</time>
  <course>66.0</course>
  <speed>0.0</speed>
  <fix>3d</fix>
</trkpt>
<trkpt lat="40.0713745" lon="-105.2297889">
  <ele>1582.97</ele>
  <time>2026-08-28T17:48:35Z</time>
  <course>246.14</course>
  <speed>0.0412310562561766</speed>
  <fix>3d</fix>
</trkpt>
<trkpt lat="40.0713751" lon="-105.2297887">
  <ele>1583.0</ele>
  <time>2026-08-28T17:48:35Z</time>
  <course>66.0</course>
  <speed>0.0</speed>
  <fix>3d</fix>
</trkpt>
<trkpt lat="40.0713744" lon="-105.2297889">
  <ele>1582.96</ele>
  <time>2026-08-28T17:48:35Z</time>
  <course>246.14</course>
  <speed>0.0412310562561766</speed>
  <fix>3d</fix>
</trkpt>
<trkpt lat="40.0713751" lon="-105.2297887">
  <ele>1583.0</ele>
  <time>2026-08-28T17:48:35Z</time>
  <course>66.0</course>
  <speed>0.0</speed>
  <fix>3d</fix>
</trkpt>
<trkpt lat="40.0713744" lon="-105.2297889">
  <ele>1582.96</ele>
  <time>2026-08-28T17:48:35Z</time>
  <course>246.14</course>
  <speed>0.0412310562561766</speed>
  <fix>3d</fix>
</trkpt>
<trkpt lat="40.0713751" lon="-105.2297887">
  <ele>1583.0</ele>
  <time>2026-08-28T17:48:35Z</time>
  <course>66.0</course>
  <speed>0.0</speed>
  <fix>3d</fix>
</trkpt>
<trkpt lat="40.0713743" lon="-105.229789">
  <ele>1582.95</ele>
  <time>2026-08-28T17:48:35Z</time>
  <course>246.14</course>
  <speed>0.05099019513592785</speed>
  <fix>3d</fix>
</trkpt>
<trkpt lat="40.0713751" lon="-105.2297887">
  <ele>1583.0</ele>
  <time>2026-08-28T17:48:35Z</time>
  <course>66.0</course>
  <speed>0.0</speed>
  <fix>3d</fix>
</trkpt>
<trkpt lat="40.0713743" lon="-105.229789">
  <ele>1582.95</ele>
  <time>2026-08-28T17:48:35Z</time>
  <course>246.13</course>
  <speed>0.05099019513592785</speed>
  <fix>3d</fix>
</trkpt>
<trkpt lat="40.0713751" lon="-105.2297887">
  <ele>1583.0</ele>
  <time>2026-08-28T17:48:35Z</time>
  <course>66.0</course>
  <speed>0.0</speed>
  <fix>3d</fix>
</trkpt>
<trkpt lat="40.0713742" lon="-105.229789">
  <ele>1582.94</ele>
  <time>2026-08-28T17:48:35Z</time>
  <course>246.13</course>
  <speed>0.05099019513592785</speed>
  <fix>3d</fix>
</trkpt>
<trkpt lat="40.0713751" lon="-105.2297887">
  <ele>1583.0</ele>
  <time>2026-08-28T17:48:35Z</time>
  <course>66.0</course>
  <speed>0.0</speed>
  <fix>3d</fix>
</trkpt>
<trkpt lat="40.0713742" lon="-105.229789">
  <ele>1582.94</ele>
  <time>2026-08-28T17:48:35Z</time>
  <course>246.13</course>
  <speed>0.053851648071345036</speed>
  <fix>3d</fix>
</trkpt>
<trkpt lat="40.0713751" lon="-105.2297887">
  <ele>1583.0</ele>
  <time>2026-08-28T17:48:35Z</time>
  <course>66.0</course>
  <speed>0.0</speed>
  <fix>3d</fix>
</trkpt>
<trkpt lat="40.0713741" lon="-105.2297891">
  <ele>1582.94</ele>
  <time>2026-08-28T17:48:35Z</time>
  <course>246.13</course>
  <speed>0.0632455532033676</speed>
  <fix>3d</fix>
</trkpt>
<trkpt lat="40.0713751" lon="-105.2297887">
  <ele>1583.0</ele>
  <time>2026-08-28T17:48:35Z</time>
  <course>66.0</course>
  <speed>0.0</speed>
  <fix>3d</fix>
</trkpt>
<trkpt lat="40.0713741" lon="-105.2297891">
  <ele>1582.93</ele>
  <time>2026-08-28T17:48:35Z</time>
  <course>246.12</course>
  <speed>0.0632455532033676</speed>
  <fix>3d</fix>
</trkpt>
<trkpt lat="40.0713751" lon="-105.2297887">
  <ele>1583.0</ele>
  <time>2026-08-28T17:48:35Z</time>
  <course>66.0</course>
  <speed>0.0</speed>
  <fix>3d</fix>
</trkpt>
<trkpt lat="40.071374" lon="-105.2297891">
  <ele>1582.93</ele>
  <time>2026-08-28T17:48:35Z</time>
  <course>246.12</course>
  <speed>0.0632455532033676</speed>
  <fix>3d</fix>
</trkpt>
<trkpt lat="40.0713751" lon="-105.2297887">
  <ele>1583.0</ele>
  <time>2026-08-28T17:48:35Z</time>
  <course>66.0</course>
  <speed>0.0</speed>
  <fix>3d</fix>
</trkpt>
<trkpt lat="40.071374" lon="-105.2297891">
  <ele>1582.94</ele>
  <time>2026-08-28T17:48:35Z</time>
  <course>246.12</course>
  <speed>0.0632455532033676</speed>
  <fix>3d</fix>
</trkpt>
<trkpt lat="40.0713751" lon="-105.2297887">
  <ele>1583.0</ele>
  <time>2026-08-28T17:48:35Z</time>
  <course>66.0</course>
  <speed>0.0</speed>
  <fix>3d</fix>
</trkpt>
<trkpt lat="40.0713739" lon="-105.2297892">
  <ele>1582.94</ele>
  <time>2026-08-28T17:48:35Z</time>
  <course>246.11</course>
  <speed>0.0632455532033676</speed>
  <fix>3d</fix>
</trkpt>
<trkpt lat="40.0713751" lon="-105.2297887">
  <ele>1583.0</ele>
  <time>2026-08-28T17:48:35Z</time>
  <course>66.0</course>
  <speed>0.0</speed>
  <fix>3d</fix>
</trkpt>
<trkpt lat="40.0713739" lon="-105.2297892">
  <ele>1582.94</ele>
  <time>2026-08-28T17:48:35Z</time>
  <course>246.11</course>
  <speed>0.07280109889280519</speed>
  <fix>3d</fix>
</trkpt>
<trkpt lat="40.0713751" lon="-105.2297887">
  <ele>1583.0</ele>
  <time>2026-08-28T17:48:35Z</time>
  <course>66.0</course>
  <speed>0.0</speed>
  <fix>3d</fix>
</trkpt>
<trkpt lat="40.0713738" lon="-105.2297892">
  <ele>1582.94</ele>
  <time>2026-08-28T17:48:35Z</time>
  <course>246.11</course>
  <speed>0.07280109889280519</speed>
  <fix>3d</fix>
</trkpt>
<trkpt lat="40.0713751" lon="-105.2297887">
  <ele>1583.0</ele>
  <time>2026-08-28T17:48:35Z</time>
  <course>66.0</course>
  <speed>0.0</speed>
  <fix>3d</fix>
</trkpt>
<trkpt lat="40.0713737" lon="-105.2297893">
  <ele>1582.94</ele>
  <time>2026-08-28T17:48:35Z</time>
  <course>246.11</course>
  <speed>0.07280109889280519</speed>
  <fix>3d</fix>
</trkpt>
<trkpt lat="40.0713751" lon="-105.2297887">
  <ele>1583.0</ele>
  <time>2026-08-28T17:48:35Z</time>
  <course>66.0</course>
  <speed>0.0</speed>
  <fix>3d</fix>
</trkpt>
<trkpt lat="40.0713737" lon="-105.2297893">
  <ele>1582.94</ele>
  <time>2026-08-28T17:48:35Z</time>
  <course>246.1</course>
  <speed>0.07280109889280519</speed>
  <fix>3d</fix>
</trkpt>
<trkpt lat="40.0713751" lon="-105.2297887">
  <ele>1583.0</ele>
  <time>2026-08-28T17:48:35Z</time>
  <course>66.0</course>
  <speed>0.0</speed>
  <fix>3d</fix>
</trkpt>
<trkpt lat="40.0713736" lon="-105.2297893">
  <ele>1582.94</ele>
  <time>2026-08-28T17:48:35Z</time>
  <course>246.1</course>
  <speed>0.0854400374531753</speed>
  <fix>3d</fix>
</trkpt>
<trkpt lat="40.0713751" lon="-105.2297887">
  <ele>1583.0</ele>
  <time>2026-08-28T17:48:35Z</time>
  <course>66.0</course>
  <speed>0.0</speed>
  <fix>3d</fix>
</trkpt>
<trkpt lat="40.0713735" lon="-105.2297894">
  <ele>1582.95</ele>
  <time>2026-08-28T17:48:35Z</time>
  <course>246.1</course>
  <speed>0.0854400374531753</speed>
  <fix>3d</fix>
</trkpt>
<trkpt lat="40.0713751" lon="-105.2297887">
  <ele>1583.0</ele>
  <time>2026-08-28T17:48:35Z</time>
  <course>66.0</course>
  <speed>0.0</speed>
  <fix>3d</fix>
</trkpt>
<trkpt lat="40.0713734" lon="-105.2297894">
  <ele>1582.95</ele>
  <time>2026-08-28T17:48:35Z</time>
  <course>246.1</course>
  <speed>0.0854400374531753</speed>
  <fix>3d</fix>
</trkpt>
<trkpt lat="40.0713751" lon="-105.2297887">
  <ele>1583.0</ele>
  <time>2026-08-28T17:48:35Z</time>
  <course>66.0</course>
  <speed>0.0</speed>
  <fix>3d</fix>
</trkpt>
<trkpt lat="40.0713734" lon="-105.2297894">
  <ele>1582.95</ele>
  <time>2026-08-28T17:48:35Z</time>
  <course>246.09</course>
  <speed>0.09486832980505139</speed>
  <fix>3d</fix>
</trkpt>
<trkpt lat="40.0713751" lon="-105.2297887">
  <ele>1583.0</ele>
  <time>2026-08-28T17:48:35Z</time>
  <course>66.0</course>
  <speed>0.0</speed>
  <fix>3d</fix>
</trkpt>
<trkpt lat="40.0713733" lon="-105.2297895">
  <ele>1582.95</ele>
  <time>2026-08-28T17:48:35Z</time>
  <course>246.09</course>
  <speed>0.09486832980505139</speed>
  <fix>3d</fix>
</trkpt>
<trkpt lat="40.0713751" lon="-105.2297887">
  <ele>1583.0</ele>
  <time>2026-08-28T17:48:35Z</time>
  <course>66.0</course>
  <speed>0.0</speed>
  <fix>3d</fix>
</trkpt>
<trkpt lat="40.0713733" lon="-105.2297895">
  <ele>1582.95</ele>
  <time>2026-08-28T17:48:35Z</time>
  <course>246.09</course>
  <speed>0.09486832980505139</speed>
  <fix>3d</fix>
</trkpt>
<trkpt lat="40.0713751" lon="-105.2297887">
  <ele>1583.0</ele>
  <time>2026-08-28T17:48:35Z</time>
  <course>66.0</course>
  <speed>0.0</speed>
  <fix>3d</fix>
</trkpt>
<trkpt lat="40.0713732" lon="-105.2297895">
  <ele>1582.95</ele>
  <time>2026-08-28T17:48:35Z</time>
  <course>246.08</course>
  <speed>0.09486832980505139</speed>
  <fix>3d</fix>
</trkpt>
<trkpt lat="40.0713751" lon="-105.2297887">
  <ele>1583.0</ele>
  <time>2026-08-28T17:48:35Z</time>
  <course>66.0</course>
  <speed>0.0</speed>
  <fix>3d</fix>
</trkpt>
<trkpt lat="40.0713732" lon="-105.2297895">
  <ele>1582.95</ele>
  <time>2026-08-28T17:48:35Z</time>
  <course>246.08</course>
  <speed>0.09486832980505139</speed>
  <fix>3d</fix>
</trkpt>
<trkpt lat="40.0713751" lon="-105.2297887">
  <ele>1583.0</ele>
  <time>2026-08-28T17:48:35Z</time>
  <course>66.0</course>
  <speed>0.0</speed>
  <fix>3d</fix>
</trkpt>
<trkpt lat="40.0713731" lon="-105.2297896">
  <ele>1582.94</ele>
  <time>2026-08-28T17:48:35Z</time>
  <course>246.08</course>
  <speed>0.09486832980505139</speed>
  <fix>3d</fix>
</trkpt>
<trkpt lat="40.0713751" lon="-105.2297887">
  <ele>1583.0</ele>
  <time>2026-08-28T17:48:35Z</time>
  <course>66.0</course>
  <speed>0.0</speed>
  <fix>3d</fix>
</trkpt>
<trkpt lat="40.071373" lon="-105.2297896">
  <ele>1582.94</ele>
  <time>2026-08-28T17:48:35Z</time>
  <course>246.08</course>
  <speed>0.09486832980505139</speed>
  <fix>3d</fix>
</trkpt>
<trkpt lat="40.0713751" lon="-105.2297887">
  <ele>1583.0</ele>
  <time>2026-08-28T17:48:35Z</time>
  <course>66.0</course>
  <speed>0.0</speed>
  <fix>3d</fix>
</trkpt>
<trkpt lat="40.0713729" lon="-105.2297897">
  <ele>1582.94</ele>
  <time>2026-08-28T17:48:35Z</time>
  <course>246.07</course>
  <speed>0.1044030650891055</speed>
  <fix>3d</fix>
</trkpt>
<trkpt lat="40.0713751" lon="-105.2297887">
  <ele>1583.0</ele>
  <time>2026-08-28T17:48:35Z</time>
  <course>66.0</course>
  <speed>0.0</speed>
  <fix>3d</fix>
</trkpt>
<trkpt lat="40.0713728" lon="-105.2297897">
  <ele>1582.94</ele>
  <time>2026-08-28T17:48:35Z</time>
  <course>246.07</course>
  <speed>0.10770329614269007</speed>
  <fix>3d</fix>
</trkpt>
<trkpt lat="40.0713751" lon="-105.2297887">
  <ele>1583.0</ele>
  <time>2026-08-28T17:48:35Z</time>
  <course>66.0</course>
  <speed>0.0</speed>
  <fix>3d</fix>
</trkpt>
<trkpt lat="40.0713727" lon="-105.2297898">
  <ele>1582.94</ele>
  <time>2026-08-28T17:48:35Z</time>
  <course>246.07</course>
  <speed>0.10770329614269007</speed>
  <fix>3d</fix>
</trkpt>
<trkpt lat="40.0713751" lon="-105.2297887">
  <ele>1583.0</ele>
  <time>2026-08-28T17:48:35Z</time>
  <course>66.0</course>
  <speed>0.0</speed>
  <fix>3d</fix>
</trkpt>
<trkpt lat="40.0713727" lon="-105.2297898">
  <ele>1582.94</ele>
  <time>2026-08-28T17:48:35Z</time>
  <course>246.07</course>
  <speed>0.11704699910719625</speed>
  <fix>3d</fix>
</trkpt>
<trkpt lat="40.0713751" lon="-105.2297887">
  <ele>1583.0</ele>
  <time>2026-08-28T17:48:35Z</time>
  <course>66.0</course>
  <speed>0.0</speed>
  <fix>3d</fix>
</trkpt>
<trkpt lat="40.0713727" lon="-105.2297898">
  <ele>1582.94</ele>
  <time>2026-08-28T17:48:35Z</time>
  <course>246.06</course>
  <speed>0.10770329614269007</speed>
  <fix>3d</fix>
</trkpt>
<trkpt lat="40.0713751" lon="-105.2297887">
  <ele>1583.0</ele>
  <time>2026-08-28T17:48:35Z</time>
  <course>66.0</course>
  <speed>0.0</speed>
  <fix>3d</fix>
</trkpt>
<trkpt lat="40.0713726" lon="-105.2297898">
  <ele>1582.93</ele>
  <time>2026-08-28T17:48:35Z</time>
  <course>246.06</course>
  <speed>0.10770329614269007</speed>
  <fix>3d</fix>
</trkpt>
<trkpt lat="40.0713751" lon="-105.2297887">
  <ele>1583.0</ele>
  <time>2026-08-28T17:48:35Z</time>
  <course>66.0</course>
  <speed>0.0</speed>
  <fix>3d</fix>
</trkpt>
<trkpt lat="40.0713726" lon="-105.2297898">
  <ele>1582.93</ele>
  <time>2026-08-28T17:48:35Z</time>
  <course>246.06</course>
  <speed>0.10770329614269007</speed>
  <fix>3d</fix>
</trkpt>
<trkpt lat="40.0713751" lon="-105.2297887">
  <ele>1583.0</ele>
  <time>2026-08-28T17:48:35Z</time>
  <course>66.0</course>
  <speed>0.0</speed>
  <fix>3d</fix>
</trkpt>
<trkpt lat="40.0713725" lon="-105.2297899">
  <ele>1582.93</ele>
  <time>2026-08-28T17:48:35Z</time>
  <course>246.05</course>
  <speed>0.11704699910719625</speed>
  <fix>3d</fix>
</trkpt>
<trkpt lat="40.0713751" lon="-105.2297887">
  <ele>1583.0</ele>
  <time>2026-08-28T17:48:35Z</time>
  <course>66.0</course>
  <speed>0.0</speed>
  <fix>3d</fix>
</trkpt>
<trkpt lat="40.0713725" lon="-105.2297899">
  <ele>1582.92</ele>
  <time>2026-08-28T17:48:35Z</time>
  <course>246.05</course>
  <speed>0.11704699910719625</speed>
  <fix>3d</fix>
</trkpt>
<trkpt lat="40.0713751" lon="-105.2297887">
  <ele>1583.0</ele>
  <time>2026-08-28T17:48:35Z</time>
  <course>66.0</course>
  <speed>0.0</speed>
  <fix>3d</fix>
</trkpt>
<trkpt lat="40.0713724" lon="-105.2297899">
  <ele>1582.91</ele>
  <time>2026-08-28T17:48:35Z</time>
  <course>246.05</course>
  <speed>0.11704699910719625</speed>
  <fix>3d</fix>
</trkpt>
<trkpt lat="40.0713751" lon="-105.2297887">
  <ele>1583.0</ele>
  <time>2026-08-28T17:48:35Z</time>
  <course>66.0</course>
  <speed>0.0</speed>
  <fix>3d</fix>
</trkpt>
<trkpt lat="40.0713723" lon="-105.22979">
  <ele>1582.91</ele>
  <time>2026-08-28T17:48:35Z</time>
  <course>246.05</course>
  <speed>0.11704699910719625</speed>
  <fix>3d</fix>
</trkpt>
<trkpt lat="40.0713751" lon="-105.2297887">
  <ele>1583.0</ele>
  <time>2026-08-28T17:48:35Z</time>
  <course>66.0</course>
  <speed>0.0</speed>
  <fix>3d</fix>
</trkpt>
<trkpt lat="40.0713722" lon="-105.22979">
  <ele>1582.9</ele>
  <time>2026-08-28T17:48:35Z</time>
  <course>246.04</course>
  <speed>0.1264911064067352</speed>
  <fix>3d</fix>
</trkpt>
<trkpt lat="40.0713751" lon="-105.2297887">
  <ele>1583.0</ele>
  <time>2026-08-28T17:48:35Z</time>
  <course>66.0</course>
  <speed>0.0</speed>
  <fix>3d</fix>
</trkpt>
<trkpt lat="40.0713721" lon="-105.2297901">
  <ele>1582.9</ele>
  <time>2026-08-28T17:48:35Z</time>
  <course>246.04</course>
  <speed>0.1264911064067352</speed>
  <fix>3d</fix>
</trkpt>
<trkpt lat="40.0713751" lon="-105.2297887">
  <ele>1583.0</ele>
  <time>2026-08-28T17:48:35Z</time>
  <course>66.0</course>
  <speed>0.0</speed>
  <fix>3d</fix>
</trkpt>
<trkpt lat="40.071372" lon="-105.2297901">
  <ele>1582.9</ele>
  <time>2026-08-28T17:48:35Z</time>
  <course>246.04</course>
  <speed>0.13</speed>
  <fix>3d</fix>
</trkpt>
<trkpt lat="40.0713751" lon="-105.2297887">
  <ele>1583.0</ele>
  <time>2026-08-28T17:48:35Z</time>
  <course>66.0</course>
  <speed>0.0</speed>
  <fix>3d</fix>
</trkpt>
<trkpt lat="40.0713719" lon="-105.2297902">
  <ele>1582.9</ele>
  <time>2026-08-28T17:48:35Z</time>
  <course>246.03</course>
  <speed>0.13</speed>
  <fix>3d</fix>
</trkpt>
<trkpt lat="40.0713751" lon="-105.2297887">
  <ele>1583.0</ele>
  <time>2026-08-28T17:48:35Z</time>
  <course>66.0</course>
  <speed>0.0</speed>
  <fix>3d</fix>
</trkpt>
<trkpt lat="40.071372" lon="-105.2297902">
  <ele>1582.9</ele>
  <time>2026-08-28T17:48:35Z</time>
  <course>246.03</course>
  <speed>0.1264911064067352</speed>
  <fix>3d</fix>
</trkpt>
<trkpt lat="40.0713751" lon="-105.2297887">
  <ele>1583.0</ele>
  <time>2026-08-28T17:48:35Z</time>
  <course>66.0</course>
  <speed>0.0</speed>
  <fix>3d</fix>
</trkpt>
<trkpt lat="40.071372" lon="-105.2297901">
  <ele>1582.9</ele>
  <time>2026-08-28T17:48:35Z</time>
  <course>246.03</course>
  <speed>0.1264911064067352</speed>
  <fix>3d</fix>
</trkpt>
<trkpt lat="40.0713751" lon="-105.2297887">
  <ele>1583.0</ele>
  <time>2026-08-28T17:48:35Z</time>
  <course>66.0</course>
  <speed>0.0</speed>
  <fix>3d</fix>
</trkpt>
<trkpt lat="40.071372" lon="-105.2297902">
  <ele>1582.89</ele>
  <time>2026-08-28T17:48:35Z</time>
  <course>246.03</course>
  <speed>0.1264911064067352</speed>
  <fix>3d</fix>
</trkpt>
<trkpt lat="40.0713751" lon="-105.2297887">
  <ele>1583.0</ele>
  <time>2026-08-28T17:48:35Z</time>
  <course>66.0</course>
  <speed>0.0</speed>
  <fix>3d</fix>
</trkpt>
<trkpt lat="40.0713719" lon="-105.2297902">
  <ele>1582.89</ele>
  <time>2026-08-28T17:48:35Z</time>
  <course>246.02</course>
  <speed>0.1264911064067352</speed>
  <fix>3d</fix>
</trkpt>
<trkpt lat="40.0713751" lon="-105.2297887">
  <ele>1583.0</ele>
  <time>2026-08-28T17:48:35Z</time>
  <course>66.0</course>
  <speed>0.0</speed>
  <fix>3d</fix>
</trkpt>
<trkpt lat="40.0713718" lon="-105.2297902">
  <ele>1582.9</ele>
  <time>2026-08-28T17:48:35Z</time>
  <course>246.02</course>
  <speed>0.13</speed>
  <fix>3d</fix>
</trkpt>
<trkpt lat="40.0713751" lon="-105.2297887">
  <ele>1583.0</ele>
  <time>2026-08-28T17:48:35Z</time>
  <course>66.0</course>
  <speed>0.0</speed>
  <fix>3d</fix>
</trkpt>
<trkpt lat="40.0713718" lon="-105.2297903">
  <ele>1582.9</ele>
  <time>2026-08-28T17:48:35Z</time>
  <course>246.02</course>
  <speed>0.13</speed>
  <fix>3d</fix>
</trkpt>
<trkpt lat="40.0713751" lon="-105.2297887">
  <ele>1583.0</ele>
  <time>2026-08-28T17:48:35Z</time>
  <course>66.0</course>
  <speed>0.0</speed>
  <fix>3d</fix>
</trkpt>
<trkpt lat="40.0713717" lon="-105.2297903">
  <ele>1582.9</ele>
  <time>2026-08-28T17:48:35Z</time>
  <course>246.01</course>
  <speed>0.1392838827718412</speed>
  <fix>3d</fix>
</trkpt>
<trkpt lat="40.0713751" lon="-105.2297887">
  <ele>1583.0</ele>
  <time>2026-08-28T17:48:35Z</time>
  <course>66.0</course>
  <speed>0.0</speed>
  <fix>3d</fix>
</trkpt>
<trkpt lat="40.0713716" lon="-105.2297904">
  <ele>1582.91</ele>
  <time>2026-08-28T17:48:35Z</time>
  <course>246.01</course>
  <speed>0.1392838827718412</speed>
  <fix>3d</fix>
</trkpt>
<trkpt lat="40.0713751" lon="-105.2297887">
  <ele>1583.0</ele>
  <time>2026-08-28T17:48:35Z</time>
  <course>66.0</course>
  <speed>0.0</speed>
  <fix>3d</fix>
</trkpt>
<trkpt lat="40.0713714" lon="-105.2297904">
  <ele>1582.91</ele>
  <time>2026-08-28T17:48:35Z</time>
  <course>246.01</course>
  <speed>0.1392838827718412</speed>
  <fix>3d</fix>
</trkpt>
<trkpt lat="40.0713751" lon="-105.2297887">
  <ele>1583.0</ele>
  <time>2026-08-28T17:48:35Z</time>
  <course>66.0</course>
  <speed>0.0</speed>
  <fix>3d</fix>
</trkpt>
<trkpt lat="40.0713714" lon="-105.2297905">
  <ele>1582.91</ele>
  <time>2026-08-28T17:48:35Z</time>
  <course>246.01</course>
  <speed>0.1392838827718412</speed>
  <fix>3d</fix>
</trkpt>
<trkpt lat="40.0713751" lon="-105.2297887">
  <ele>1583.0</ele>
  <time>2026-08-28T17:48:35Z</time>
  <course>66.0</course>
  <speed>0.0</speed>
  <fix>3d</fix>
</trkpt>
<trkpt lat="40.0713715" lon="-105.2297904">
  <ele>1582.91</ele>
  <time>2026-08-28T17:48:35Z</time>
  <course>246.0</course>
  <speed>0.1392838827718412</speed>
  <fix>3d</fix>
</trkpt>
<trkpt lat="40.0713751" lon="-105.2297887">
  <ele>1583.0</ele>
  <time>2026-08-28T17:48:35Z</time>
  <course>66.0</course>
  <speed>0.0</speed>
  <fix>3d</fix>
</trkpt>
<trkpt lat="40.0713716" lon="-105.2297904">
  <ele>1582.9</ele>
  <time>2026-08-28T17:48:35Z</time>
  <course>246.0</course>
  <speed>0.1392838827718412</speed>
  <fix>3d</fix>
</trkpt>
<trkpt lat="40.0713751" lon="-105.2297887">
  <ele>1583.0</ele>
  <time>2026-08-28T17:48:35Z</time>
  <course>66.0</course>
  <speed>0.0</speed>
  <fix>3d</fix>
</trkpt>
<trkpt lat="40.0713716" lon="-105.2297903">
  <ele>1582.9</ele>
  <time>2026-08-28T17:48:35Z</time>
  <course>246.0</course>
  <speed>0.13</speed>
  <fix>3d</fix>
</trkpt>
<trkpt lat="40.0713751" lon="-105.2297887">
  <ele>1583.0</ele>
  <time>2026-08-28T17:48:35Z</time>
  <course>66.0</course>
  <speed>0.0</speed>
  <fix>3d</fix>
</trkpt>
<trkpt lat="40.0713716" lon="-105.2297904">
  <ele>1582.9</ele>
  <time>2026-08-28T17:48:35Z</time>
  <course>246.0</course>
  <speed>0.1392838827718412</speed>
  <fix>3d</fix>
</trkpt>
<trkpt lat="40.0713751" lon="-105.2297887">
  <ele>1583.0</ele>
  <time>2026-08-28T17:48:35Z</time>
  <course>66.0</course>
  <speed>0.0</speed>
  <fix>3d</fix>
</trkpt>
<trkpt lat="40.0713715" lon="-105.2297904">
  <ele>1582.9</ele>
  <time>2026-08-28T17:48:35Z</time>
  <course>245.99</course>
  <speed>0.1392838827718412</speed>
  <fix>3d</fix>
</trkpt>
<trkpt lat="40.0713751" lon="-105.2297887">
  <ele>1583.0</ele>
  <time>2026-08-28T17:48:35Z</time>
  <course>66.0</course>
  <speed>0.0</speed>
  <fix>3d</fix>
</trkpt>
<trkpt lat="40.0713714" lon="-105.2297904">
  <ele>1582.9</ele>
  <time>2026-08-28T17:48:35Z</time>
  <course>245.99</course>
  <speed>0.1392838827718412</speed>
  <fix>3d</fix>
</trkpt>
<trkpt lat="40.0713751" lon="-105.2297887">
  <ele>1583.0</ele>
  <time>2026-08-28T17:48:35Z</time>
  <course>66.0</course>
  <speed>0.0</speed>
  <fix>3d</fix>
</trkpt>
<trkpt lat="40.0713713" lon="-105.2297905">
  <ele>1582.9</ele>
  <time>2026-08-28T17:48:35Z</time>
  <course>245.99</course>
  <speed>0.1392838827718412</speed>
  <fix>3d</fix>
</trkpt>
<trkpt lat="40.0713751" lon="-105.2297887">
  <ele>1583.0</ele>
  <time>2026-08-28T17:48:35Z</time>
  <course>66.0</course>
  <speed>0.0</speed>
  <fix>3d</fix>
</trkpt>
<trkpt lat="40.0713712" lon="-105.2297905">
  <ele>1582.9</ele>
  <time>2026-08-28T17:48:35Z</time>
  <course>245.99</course>
  <speed>0.1392838827718412</speed>
  <fix>3d</fix>
</trkpt>
<trkpt lat="40.0713751" lon="-105.2297887">
  <ele>1583.0</ele>
  <time>2026-08-28T17:48:35Z</time>
  <course>66.0</course>
  <speed>0.0</speed>
  <fix>3d</fix>
</trkpt>
<trkpt lat="40.0713711" lon="-105.2297906">
  <ele>1582.9</ele>
  <time>2026-08-28T17:48:35Z</time>
  <course>245.98</course>
  <speed>0.14866068747318506</speed>
  <fix>3d</fix>
</trkpt>
<trkpt lat="40.0713751" lon="-105.2297887">
  <ele>1583.0</ele>
  <time>2026-08-28T17:48:35Z</time>
  <course>66.0</course>
  <speed>0.0</speed>
  <fix>3d</fix>
</trkpt>
<trkpt lat="40.071371" lon="-105.2297907">
  <ele>1582.9</ele>
  <time>2026-08-28T17:48:35Z</time>
  <course>245.98</course>
  <speed>0.14866068747318506</speed>
  <fix>3d</fix>
</trkpt>
<trkpt lat="40.0713751" lon="-105.2297887">
  <ele>1583.0</ele>
  <time>2026-08-28T17:48:35Z</time>
  <course>66.0</course>
  <speed>0.0</speed>
  <fix>3d</fix>
</trkpt>
<trkpt lat="40.0713709" lon="-105.2297907">
  <ele>1582.9</ele>
  <time>2026-08-28T17:48:35Z</time>
  <course>245.98</course>
  <speed>0.14866068747318506</speed>
  <fix>3d</fix>
</trkpt>
<trkpt lat="40.0713751" lon="-105.2297887">
  <ele>1583.0</ele>
  <time>2026-08-28T17:48:35Z</time>
  <course>66.0</course>
  <speed>0.0</speed>
  <fix>3d</fix>
</trkpt>
<trkpt lat="40.0713711" lon="-105.2297906">
  <ele>1582.9</ele>
  <time>2026-08-28T17:48:35Z</time>
  <course>245.97</course>
  <speed>0.1392838827718412</speed>
  <fix>3d</fix>
</trkpt>
<trkpt lat="40.0713751" lon="-105.2297887">
  <ele>1583.0</ele>
  <time>2026-08-28T17:48:35Z</time>
  <course>66.0</course>
  <speed>0.0</speed>
  <fix>3d</fix>
</trkpt>
<trkpt lat="40.0713712" lon="-105.2297905">
  <ele>1582.9</ele>
  <time>2026-08-28T17:48:35Z</time>
  <course>245.97</course>
  <speed>0.1392838827718412</speed>
  <fix>3d</fix>
</trkpt>
<trkpt lat="40.0713751" lon="-105.2297887">
  <ele>1583.0</ele>
  <time>2026-08-28T17:48:35Z</time>
  <course>66.0</course>
  <speed>0.0</speed>
  <fix>3d</fix>
</trkpt>
<trkpt lat="40.0713713" lon="-105.2297905">
  <ele>1582.9</ele>
  <time>2026-08-28T17:48:35Z</time>
  <course>245.97</course>
  <speed>0.1392838827718412</speed>
  <fix>3d</fix>
</trkpt>
<trkpt lat="40.0713751" lon="-105.2297887">
  <ele>1583.0</ele>
  <time>2026-08-28T17:48:35Z</time>
  <course>66.0</course>
  <speed>0.0</speed>
  <fix>3d</fix>
</trkpt>
<trkpt lat="40.0713713" lon="-105.2297905">
  <ele>1582.9</ele>
  <time>2026-08-28T17:48:35Z</time>
  <course>245.97</course>
  <speed>0.1392838827718412</speed>
  <fix>3d</fix>
</trkpt>
<trkpt lat="40.0713751" lon="-105.2297887">
  <ele>1583.0</ele>
  <time>2026-08-28T17:48:35Z</time>
  <course>66.0</course>
  <speed>0.0</speed>
  <fix>3d</fix>
</trkpt>
<trkpt lat="40.0713712" lon="-105.2297905">
  <ele>1582.91</ele>
  <time>2026-08-28T17:48:35Z</time>
  <course>245.96</course>
  <speed>0.1392838827718412</speed>
  <fix>3d</fix>
</trkpt>
<trkpt lat="40.0713751" lon="-105.2297887">
  <ele>1583.0</ele>
  <time>2026-08-28T17:48:35Z</time>
  <course>66.0</course>
  <speed>0.0</speed>
  <fix>3d</fix>
</trkpt>
<trkpt lat="40.0713712" lon="-105.2297906">
  <ele>1582.91</ele>
  <time>2026-08-28T17:48:35Z</time>
  <course>245.96</course>
  <speed>0.1392838827718412</speed>
  <fix>3d</fix>
</trkpt>
<trkpt lat="40.0713751" lon="-105.2297887">
  <ele>1583.0</ele>
  <time>2026-08-28T17:48:35Z</time>
  <course>66.0</course>
  <speed>0.0</speed>
  <fix>3d</fix>
</trkpt>
<trkpt lat="40.0713711" lon="-105.2297906">
  <ele>1582.92</ele>
  <time>2026-08-28T17:48:35Z</time>
  <course>245.96</course>
  <speed>0.1392838827718412</speed>
  <fix>3d</fix>
</trkpt>
<trkpt lat="40.0713751" lon="-105.2297887">
  <ele>1583.0</ele>
  <time>2026-08-28T17:48:35Z</time>
  <course>66.0</course>
  <speed>0.0</speed>
  <fix>3d</fix>
</trkpt>
<trkpt lat="40.071371" lon="-105.2297907">
  <ele>1582.92</ele>
  <time>2026-08-28T17:48:35Z</time>
  <course>245.96</course>
  <speed>0.14866068747318506</speed>
  <fix>3d</fix>
</trkpt>
<trkpt lat="40.0713751" lon="-105.2297887">
  <ele>1583.0</ele>
  <time>2026-08-28T17:48:35Z</time>
  <course>66.0</course>
  <speed>0.0</speed>
  <fix>3d</fix>
</trkpt>
<trkpt lat="40.0713709" lon="-105.2297907">
  <ele>1582.92</ele>
  <time>2026-08-28T17:48:35Z</time>
  <course>245.95</course>
  <speed>0.14866068747318506</speed>
  <fix>3d</fix>
</trkpt>
<trkpt lat="40.0713751" lon="-105.2297887">
  <ele>1583.0</ele>
  <time>2026-08-28T17:48:35Z</time>
  <course>66.0</course>
  <speed>0.0</speed>
  <fix>3d</fix>
</trkpt>
<trkpt lat="40.0713708" lon="-105.2297907">
  <ele>1582.92</ele>
  <time>2026-08-28T17:48:35Z</time>
  <course>245.95</course>
  <speed>0.14866068747318506</speed>
  <fix>3d</fix>
</trkpt>
<trkpt lat="40.0713751" lon="-105.2297887">
  <ele>1583.0</ele>
  <time>2026-08-28T17:48:35Z</time>
  <course>66.0</course>
  <speed>0.0</speed>
  <fix>3d</fix>
</trkpt>
<trkpt lat="40.0713711" lon="-105.2297906">
  <ele>1582.91</ele>
  <time>2026-08-28T17:48:35Z</time>
  <course>245.95</course>
  <speed>0.1392838827718412</speed>
  <fix>3d</fix>
</trkpt>
<trkpt lat="40.0713751" lon="-105.2297887">
  <ele>1583.0</ele>
  <time>2026-08-28T17:48:35Z</time>
  <course>66.0</course>
  <speed>0.0</speed>
  <fix>3d</fix>
</trkpt>
<trkpt lat="40.0713712" lon="-105.2297905">
  <ele>1582.91</ele>
  <time>2026-08-28T17:48:35Z</time>
  <course>245.95</course>
  <speed>0.1392838827718412</speed>
  <fix>3d</fix>
</trkpt>
<trkpt lat="40.0713751" lon="-105.2297887">
  <ele>1583.0</ele>
  <time>2026-08-28T17:48:35Z</time>
  <course>66.0</course>
  <speed>0.0</speed>
  <fix>3d</fix>
</trkpt>
<trkpt lat="40.0713713" lon="-105.2297905">
  <ele>1582.9</ele>
  <time>2026-08-28T17:48:35Z</time>
  <course>245.94</course>
  <speed>0.1392838827718412</speed>
  <fix>3d</fix>
</trkpt>
<trkpt lat="40.0713751" lon="-105.2297887">
  <ele>1583.0</ele>
  <time>2026-08-28T17:48:35Z</time>
  <course>66.0</course>
  <speed>0.0</speed>
  <fix>3d</fix>
</trkpt>
<trkpt lat="40.0713713" lon="-105.2297905">
  <ele>1582.9</ele>
  <time>2026-08-28T17:48:35Z</time>
  <course>245.94</course>
  <speed>0.1392838827718412</speed>
  <fix>3d</fix>
</trkpt>
<trkpt lat="40.0713751" lon="-105.2297887">
  <ele>1583.0</ele>
  <time>2026-08-28T17:48:35Z</time>
  <course>66.0</course>
  <speed>0.0</speed>
  <fix>3d</fix>
</trkpt>
<trkpt lat="40.0713713" lon="-105.2297905">
  <ele>1582.9</ele>
  <time>2026-08-28T17:48:35Z</time>
  <course>245.94</course>
  <speed>0.1392838827718412</speed>
  <fix>3d</fix>
</trkpt>
<trkpt lat="40.0713751" lon="-105.2297887">
  <ele>1583.0</ele>
  <time>2026-08-28T17:48:35Z</time>
  <course>66.0</course>
  <speed>0.0</speed>
  <fix>3d</fix>
</trkpt>
<trkpt lat="40.0713712" lon="-105.2297905">
  <ele>1582.89</ele>
  <time>2026-08-28T17:48:35Z</time>
  <course>245.94</course>
  <speed>0.1392838827718412</speed>
  <fix>3d</fix>
</trkpt>
<trkpt lat="40.0713751" lon="-105.2297887">
  <ele>1583.0</ele>
  <time>2026-08-28T17:48:35Z</time>
  <course>66.0</course>
  <speed>0.0</speed>
  <fix>3d</fix>
</trkpt>
<trkpt lat="40.0713711" lon="-105.2297906">
  <ele>1582.89</ele>
  <time>2026-08-28T17:48:35Z</time>
  <course>245.93</course>
  <speed>0.1392838827718412</speed>
  <fix>3d</fix>
</trkpt>
<trkpt lat="40.0713751" lon="-105.2297887">
  <ele>1583.0</ele>
  <time>2026-08-28T17:48:35Z</time>
  <course>66.0</course>
  <speed>0.0</speed>
  <fix>3d</fix>
</trkpt>
<trkpt lat="40.071371" lon="-105.2297906">
  <ele>1582.89</ele>
  <time>2026-08-28T17:48:35Z</time>
  <course>245.93</course>
  <speed>0.1392838827718412</speed>
  <fix>3d</fix>
</trkpt>
<trkpt lat="40.0713751" lon="-105.2297887">
  <ele>1583.0</ele>
  <time>2026-08-28T17:48:35Z</time>
  <course>66.0</course>
  <speed>0.0</speed>
  <fix>3d</fix>
</trkpt>
<trkpt lat="40.0713709" lon="-105.2297907">
  <ele>1582.89</ele>
  <time>2026-08-28T17:48:35Z</time>
  <course>245.93</course>
  <speed>0.14866068747318506</speed>
  <fix>3d</fix>
</trkpt>
<trkpt lat="40.0713751" lon="-105.2297887">
  <ele>1583.0</ele>
  <time>2026-08-28T17:48:35Z</time>
  <course>66.0</course>
  <speed>0.0</speed>
  <fix>3d</fix>
</trkpt>
<trkpt lat="40.0713708" lon="-105.2297908">
  <ele>1582.9</ele>
  <time>2026-08-28T17:48:35Z</time>
  <course>245.93</course>
  <speed>0.14866068747318506</speed>
  <fix>3d</fix>
</trkpt>
<trkpt lat="40.0713751" lon="-105.2297887">
  <ele>1583.0</ele>
  <time>2026-08-28T17:48:35Z</time>
  <course>66.0</course>
  <speed>0.0</speed>
  <fix>3d</fix>
</trkpt>
<trkpt lat="40.0713708" lon="-105.2297908">
  <ele>1582.9</ele>
  <time>2026-08-28T17:48:35Z</time>
  <course>245.92</course>
  <speed>0.14866068747318506</speed>
  <fix>3d</fix>
</trkpt>
<trkpt lat="40.0713751" lon="-105.2297887">
  <ele>1583.0</ele>
  <time>2026-08-28T17:48:35Z</time>
  <course>66.0</course>
  <speed>0.0</speed>
  <fix>3d</fix>
</trkpt>
<trkpt lat="40.0713711" lon="-105.2297906">
  <ele>1582.91</ele>
  <time>2026-08-28T17:48:35Z</time>
  <course>245.92</course>
  <speed>0.1392838827718412</speed>
  <fix>3d</fix>
</trkpt>
<trkpt lat="40.0713751" lon="-105.2297887">
  <ele>1583.0</ele>
  <time>2026-08-28T17:48:35Z</time>
  <course>66.0</course>
  <speed>0.0</speed>
  <fix>3d</fix>
</trkpt>
<trkpt lat="40.0713713" lon="-105.2297905">
  <ele>1582.92</ele>
  <time>2026-08-28T17:48:35Z</time>
  <course>245.92</course>
  <speed>0.1392838827718412</speed>
  <fix>3d</fix>
</trkpt>
<trkpt lat="40.0713751" lon="-105.2297887">
  <ele>1583.0</ele>
  <time>2026-08-28T17:48:35Z</time>
  <course>66.0</course>
  <speed>0.0</speed>
  <fix>3d</fix>
</trkpt>
<trkpt lat="40.0713714" lon="-105.2297905">
  <ele>1582.93</ele>
  <time>2026-08-28T17:48:35Z</time>
  <course>245.92</course>
  <speed>0.1392838827718412</speed>
  <fix>3d</fix>
</trkpt>
<trkpt lat="40.0713751" lon="-105.2297887">
  <ele>1583.0</ele>
  <time>2026-08-28T17:48:35Z</time>
  <course>66.0</course>
  <speed>0.0</speed>
  <fix>3d</fix>
</trkpt>
<trkpt lat="40.0713714" lon="-105.2297904">
  <ele>1582.93</ele>
  <time>2026-08-28T17:48:35Z</time>
  <course>245.91</course>
  <speed>0.13</speed>
  <fix>3d</fix>
</trkpt>
<trkpt lat="40.0713751" lon="-105.2297887">
  <ele>1583.0</ele>
  <time>2026-08-28T17:48:35Z</time>
  <course>66.01</course>
  <speed>0.0</speed>
  <fix>3d</fix>
</trkpt>
<trkpt lat="40.0713714" lon="-105.2297905">
  <ele>1582.94</ele>
  <time>2026-08-28T17:48:35Z</time>
  <course>245.91</course>
  <speed>0.1392838827718412</speed>
  <fix>3d</fix>
</trkpt>
<trkpt lat="40.0713751" lon="-105.2297887">
  <ele>1583.0</ele>
  <time>2026-08-28T17:48:35Z</time>
  <course>66.01</course>
  <speed>0.0</speed>
  <fix>3d</fix>
</trkpt>
<trkpt lat="40.0713749" lon="-105.2297888">
  <ele>1583.05</ele>
  <time>2026-08-28T17:48:35Z</time>
  <course>245.91</course>
  <speed>0.1392838827718412</speed>
  <fix>3d</fix>
</trkpt>
<trkpt lat="40.0713751" lon="-105.2297887">
  <ele>1583.0</ele>
  <time>2026-08-28T17:48:35Z</time>
  <course>66.01</course>
  <speed>0.0</speed>
  <fix>3d</fix>
</trkpt>
<trkpt lat="40.0713749" lon="-105.2297888">
  <ele>1583.25</ele>
  <time>2026-08-28T17:48:35Z</time>
  <course>245.9</course>
  <speed>0.1392838827718412</speed>
  <fix>3d</fix>
</trkpt>
<trkpt lat="40.0713751" lon="-105.2297887">
  <ele>1583.0</ele>
  <time>2026-08-28T17:48:35Z</time>
  <course>66.01</course>
  <speed>0.0</speed>
  <fix>3d</fix>
</trkpt>
<trkpt lat="40.0713749" lon="-105.2297888">
  <ele>1583.28</ele>
  <time>2026-08-28T17:48:35Z</time>
  <course>245.9</course>
  <speed>0.1392838827718412</speed>
  <fix>3d</fix>
</trkpt>
<trkpt lat="40.0713751" lon="-105.2297887">
  <ele>1583.0</ele>
  <time>2026-08-28T17:48:35Z</time>
  <course>66.01</course>
  <speed>0.0</speed>
  <fix>3d</fix>
</trkpt>
<trkpt lat="40.0713749" lon="-105.2297888">
  <ele>1583.06</ele>
  <time>2026-08-28T17:48:35Z</time>
  <course>245.9</course>
  <speed>0.1392838827718412</speed>
  <fix>3d</fix>
</trkpt>
<trkpt lat="40.0713751" lon="-105.2297887">
  <ele>1583.0</ele>
  <time>2026-08-28T17:48:35Z</time>
  <course>66.01</course>
  <speed>0.0</speed>
  <fix>3d</fix>
</trkpt>
<trkpt lat="40.0713749" lon="-105.2297888">
  <ele>1583.28</ele>
  <time>2026-08-28T17:48:35Z</time>
  <course>245.9</course>
  <speed>0.1392838827718412</speed>
  <fix>3d</fix>
</trkpt>
<trkpt lat="40.0713751" lon="-105.2297887">
  <ele>1583.0</ele>
  <time>2026-08-28T17:48:35Z</time>
  <course>66.01</course>
  <speed>0.0</speed>
  <fix>3d</fix>
</trkpt>
<trkpt lat="40.0713749" lon="-105.2297888">
  <ele>1582.94</ele>
  <time>2026-08-28T17:48:35Z</time>
  <course>245.9</course>
  <speed>0.1392838827718412</speed>
  <fix>3d</fix>
</trkpt>
<trkpt lat="40.0713751" lon="-105.2297887">
  <ele>1583.0</ele>
  <time>2026-08-28T17:48:35Z</time>
  <course>66.01</course>
  <speed>0.0</speed>
  <fix>3d</fix>
</trkpt>
<trkpt lat="40.0713749" lon="-105.2297888">
  <ele>1583.16</ele>
  <time>2026-08-28T17:48:35Z</time>
  <course>245.89</course>
  <speed>0.13</speed>
  <fix>3d</fix>
</trkpt>
<trkpt lat="40.0713751" lon="-105.2297887">
  <ele>1583.0</ele>
  <time>2026-08-28T17:48:35Z</time>
  <course>66.01</course>
  <speed>0.0</speed>
  <fix>3d</fix>
</trkpt>
<trkpt lat="40.0713749" lon="-105.2297888">
  <ele>1582.93</ele>
  <time>2026-08-28T17:48:35Z</time>
  <course>245.89</course>
  <speed>0.1264911064067352</speed>
  <fix>3d</fix>
</trkpt>
<trkpt lat="40.0713751" lon="-105.2297887">
  <ele>1583.0</ele>
  <time>2026-08-28T17:48:35Z</time>
  <course>66.01</course>
  <speed>0.0</speed>
  <fix>3d</fix>
</trkpt>
<trkpt lat="40.0713749" lon="-105.2297888">
  <ele>1583.27</ele>
  <time>2026-08-28T17:48:35Z</time>
  <course>245.89</course>
  <speed>0.1264911064067352</speed>
  <fix>3d</fix>
</trkpt>
<trkpt lat="40.0713751" lon="-105.2297887">
  <ele>1583.0</ele>
  <time>2026-08-28T17:48:35Z</time>
  <course>66.01</course>
  <speed>0.0</speed>
  <fix>3d</fix>
</trkpt>
<trkpt lat="40.0713749" lon="-105.2297888">
  <ele>1582.99</ele>
  <time>2026-08-28T17:48:35Z</time>
  <course>245.89</course>
  <speed>0.1264911064067352</speed>
  <fix>3d</fix>
</trkpt>
<trkpt lat="40.0713751" lon="-105.2297887">
  <ele>1583.0</ele>
  <time>2026-08-28T17:48:35Z</time>
  <course>66.01</course>
  <speed>0.0</speed>
  <fix>3d</fix>
</trkpt>
<trkpt lat="40.0713749" lon="-105.2297888">
  <ele>1582.92</ele>
  <time>2026-08-28T17:48:35Z</time>
  <course>245.88</course>
  <speed>0.13</speed>
  <fix>3d</fix>
</trkpt>
<trkpt lat="40.0713751" lon="-105.2297887">
  <ele>1583.0</ele>
  <time>2026-08-28T17:48:35Z</time>
  <course>66.01</course>
  <speed>0.0</speed>
  <fix>3d</fix>
</trkpt>
<trkpt lat="40.0713749" lon="-105.2297888">
  <ele>1583.11</ele>
  <time>2026-08-28T17:48:35Z</time>
  <course>245.88</course>
  <speed>0.13</speed>
  <fix>3d</fix>
</trkpt>
<trkpt lat="40.0713751" lon="-105.2297887">
  <ele>1583.0</ele>
  <time>2026-08-28T17:48:35Z</time>
  <course>66.02</course>
  <speed>0.0</speed>
  <fix>3d</fix>
</trkpt>
<trkpt lat="40.0713749" lon="-105.2297888">
  <ele>1583.14</ele>
  <time>2026-08-28T17:48:35Z</time>
  <course>245.88</course>
  <speed>0.1392838827718412</speed>
  <fix>3d</fix>
</trkpt>
<trkpt lat="40.0713751" lon="-105.2297887">
  <ele>1583.0</ele>
  <time>2026-08-28T17:48:35Z</time>
  <course>66.02</course>
  <speed>0.0</speed>
  <fix>3d</fix>
</trkpt>
<trkpt lat="40.0713749" lon="-105.2297888">
  <ele>1583.17</ele>
  <time>2026-08-28T17:48:35Z</time>
  <course>245.88</course>
  <speed>0.1392838827718412</speed>
  <fix>3d</fix>
</trkpt>
<trkpt lat="40.0713751" lon="-105.2297887">
  <ele>1583.0</ele>
  <time>2026-08-28T17:48:35Z</time>
  <course>66.02</course>
  <speed>0.0</speed>
  <fix>3d</fix>
</trkpt>
<trkpt lat="40.071375" lon="-105.2297888">
  <ele>1583.03</ele>
  <time>2026-08-28T17:48:35Z</time>
  <course>245.87</course>
  <speed>0.11704699910719625</speed>
  <fix>3d</fix>
</trkpt>
<trkpt lat="40.0713751" lon="-105.2297887">
  <ele>1583.0</ele>
  <time>2026-08-28T17:48:35Z</time>
  <course>66.02</course>
  <speed>0.0</speed>
  <fix>3d</fix>
</trkpt>
<trkpt lat="40.071375" lon="-105.2297888">
  <ele>1583.04</ele>
  <time>2026-08-28T17:48:35Z</time>
  <course>245.87</course>
  <speed>0.09486832980505139</speed>
  <fix>3d</fix>
</trkpt>
<trkpt lat="40.0713751" lon="-105.2297887">
  <ele>1583.0</ele>
  <time>2026-08-28T17:48:35Z</time>
  <course>66.02</course>
  <speed>0.0</speed>
  <fix>3d</fix>
</trkpt>
<trkpt lat="40.071375" lon="-105.2297888">
  <ele>1583.04</ele>
  <time>2026-08-28T17:48:35Z</time>
  <course>245.87</course>
  <speed>0.0854400374531753</speed>
  <fix>3d</fix>
</trkpt>
<trkpt lat="40.0713751" lon="-105.2297887">
  <ele>1583.0</ele>
  <time>2026-08-28T17:48:35Z</time>
  <course>66.02</course>
  <speed>0.0</speed>
  <fix>3d</fix>
</trkpt>
<trkpt lat="40.071375" lon="-105.2297888">
  <ele>1583.05</ele>
  <time>2026-08-28T17:48:35Z</time>
  <course>245.86</course>
  <speed>0.0632455532033676</speed>
  <fix>3d</fix>
</trkpt>
<trkpt lat="40.0713751" lon="-105.2297887">
  <ele>1583.0</ele>
  <time>2026-08-28T17:48:35Z</time>
  <course>66.02</course>
  <speed>0.0</speed>
  <fix>3d</fix>
</trkpt>
<trkpt lat="40.071375" lon="-105.2297888">
  <ele>1583.06</ele>
  <time>2026-08-28T17:48:35Z</time>
  <course>245.86</course>
  <speed>0.053851648071345036</speed>
  <fix>3d</fix>
</trkpt>
<trkpt lat="40.0713751" lon="-105.2297887">
  <ele>1583.0</ele>
  <time>2026-08-28T17:48:35Z</time>
  <course>66.02</course>
  <speed>0.0</speed>
  <fix>3d</fix>
</trkpt>
<trkpt lat="40.071375" lon="-105.2297888">
  <ele>1583.06</ele>
  <time>2026-08-28T17:48:35Z</time>
  <course>245.86</course>
  <speed>0.0412310562561766</speed>
  <fix>3d</fix>
</trkpt>
<trkpt lat="40.0713751" lon="-105.2297887">
  <ele>1583.0</ele>
  <time>2026-08-28T17:48:35Z</time>
  <course>66.03</course>
  <speed>0.0</speed>
  <fix>3d</fix>
</trkpt>
<trkpt lat="40.071375" lon="-105.2297888">
  <ele>1583.07</ele>
  <time>2026-08-28T17:48:35Z</time>
  <course>245.86</course>
  <speed>0.0316227766016838</speed>
  <fix>3d</fix>
</trkpt>
<trkpt lat="40.0713751" lon="-105.2297887">
  <ele>1583.0</ele>
  <time>2026-08-28T17:48:35Z</time>
  <course>66.03</course>
  <speed>0.0</speed>
  <fix>3d</fix>
</trkpt>
<trkpt lat="40.0713751" lon="-105.2297887">
  <ele>1583.07</ele>
  <time>2026-08-28T17:48:35Z</time>
  <course>245.86</course>
  <speed>0.0316227766016838</speed>
  <fix>3d</fix>
</trkpt>
<trkpt lat="40.0713751" lon="-105.2297887">
  <ele>1583.0</ele>
  <time>2026-08-28T17:48:35Z</time>
  <course>66.03</course>
  <speed>0.0</speed>
  <fix>3d</fix>
</trkpt>
<trkpt lat="40.0713751" lon="-105.2297887">
  <ele>1583.07</ele>
  <time>2026-08-28T17:48:35Z</time>
  <course>245.85</course>
  <speed>0.022360679774997897</speed>
  <fix>3d</fix>
</trkpt>
<trkpt lat="40.0713751" lon="-105.2297887">
  <ele>1583.0</ele>
  <time>2026-08-28T17:48:35Z</time>
  <course>66.03</course>
  <speed>0.0</speed>
  <fix>3d</fix>
</trkpt>
<trkpt lat="40.0713751" lon="-105.2297887">
  <ele>1583.06</ele>
  <time>2026-08-28T17:48:35Z</time>
  <course>245.85</course>
  <speed>0.02</speed>
  <fix>3d</fix>
</trkpt>
<trkpt lat="40.0713751" lon="-105.2297887">
  <ele>1583.0</ele>
  <time>2026-08-28T17:48:35Z</time>
  <course>66.03</course>
  <speed>0.0</speed>
  <fix>3d</fix>
</trkpt>
<trkpt lat="40.0713751" lon="-105.2297887">
  <ele>1583.06</ele>
  <time>2026-08-28T17:48:35Z</time>
  <course>245.85</course>
  <speed>0.02</speed>
  <fix>3d</fix>
</trkpt>
<trkpt lat="40.0713751" lon="-105.2297887">
  <ele>1583.0</ele>
  <time>2026-08-28T17:48:35Z</time>
  <course>66.03</course>
  <speed>0.0</speed>
  <fix>3d</fix>
</trkpt>
<trkpt lat="40.0713751" lon="-105.2297887">
  <ele>1583.05</ele>
  <time>2026-08-28T17:48:35Z</time>
  <course>245.85</course>
  <speed>0.02</speed>
  <fix>3d</fix>
</trkpt>
<trkpt lat="40.0713751" lon="-105.2297887">
  <ele>1583.0</ele>
  <time>2026-08-28T17:48:35Z</time>
  <course>66.04</course>
  <speed>0.0</speed>
  <fix>3d</fix>
</trkpt>
<trkpt lat="40.0713751" lon="-105.2297887">
  <ele>1583.05</ele>
  <time>2026-08-28T17:48:35Z</time>
  <course>245.84</course>
  <speed>0.01</speed>
  <fix>3d</fix>
</trkpt>
<trkpt lat="40.0713751" lon="-105.2297887">
  <ele>1583.0</ele>
  <time>2026-08-28T17:48:35Z</time>
  <course>66.04</course>
  <speed>0.0</speed>
  <fix>3d</fix>
</trkpt>
<trkpt lat="40.0713751" lon="-105.2297887">
  <ele>1583.04</ele>
  <time>2026-08-28T17:48:35Z</time>
  <course>245.84</course>
  <speed>0.01</speed>
  <fix>3d</fix>
</trkpt>
<trkpt lat="40.0713751" lon="-105.2297887">
  <ele>1583.0</ele>
  <time>2026-08-28T17:48:35Z</time>
  <course>66.04</course>
  <speed>0.0</speed>
  <fix>3d</fix>
</trkpt>
<trkpt lat="40.0713751" lon="-105.2297887">
  <ele>1583.03</ele>
  <time>2026-08-28T17:48:35Z</time>
  <course>245.84</course>
  <speed>0.01</speed>
  <fix>3d</fix>
</trkpt>
<trkpt lat="40.0713751" lon="-105.2297887">
  <ele>1583.0</ele>
  <time>2026-08-28T17:48:35Z</time>
  <course>66.04</course>
  <speed>0.0</speed>
  <fix>3d</fix>
</trkpt>
<trkpt lat="40.0713751" lon="-105.2297887">
  <ele>1583.02</ele>
  <time>2026-08-28T17:48:35Z</time>
  <course>245.84</course>
  <speed>0.01</speed>
  <fix>3d</fix>
</trkpt>
<trkpt lat="40.0713751" lon="-105.2297887">
  <ele>1583.0</ele>
  <time>2026-08-28T17:48:35Z</time>
  <course>66.05</course>
  <speed>0.0</speed>
  <fix>3d</fix>
</trkpt>
<trkpt lat="40.0713751" lon="-105.2297887">
  <ele>1583.01</ele>
  <time>2026-08-28T17:48:35Z</time>
  <course>245.83</course>
  <speed>0.01</speed>
  <fix>3d</fix>
</trkpt>
<trkpt lat="40.0713751" lon="-105.2297887">
  <ele>1583.0</ele>
  <time>2026-08-28T17:48:35Z</time>
  <course>66.05</course>
  <speed>0.0</speed>
  <fix>3d</fix>
</trkpt>
<trkpt lat="40.0713751" lon="-105.2297887">
  <ele>1583.01</ele>
  <time>2026-08-28T17:48:35Z</time>
  <course>245.83</course>
  <speed>0.01</speed>
  <fix>3d</fix>
</trkpt>
<trkpt lat="40.0713751" lon="-105.2297887">
  <ele>1583.0</ele>
  <time>2026-08-28T17:48:35Z</time>
  <course>66.05</course>
  <speed>0.0</speed>
  <fix>3d</fix>
</trkpt>
<trkpt lat="40.0713751" lon="-105.2297887">
  <ele>1583.0</ele>
  <time>2026-08-28T17:48:35Z</time>
  <course>245.83</course>
  <speed>0.01</speed>
  <fix>3d</fix>
</trkpt>
<trkpt lat="40.0713751" lon="-105.2297887">
  <ele>1583.0</ele>
  <time>2026-08-28T17:48:35Z</time>
  <course>66.05</course>
  <speed>0.0</speed>
  <fix>3d</fix>
</trkpt>
<trkpt lat="40.0713751" lon="-105.2297887">
  <ele>1583.0</ele>
  <time>2026-08-28T17:48:35Z</time>
  <course>245.83</course>
  <speed>0.01</speed>
  <fix>3d</fix>
</trkpt>
<trkpt lat="40.0713751" lon="-105.2297887">
  <ele>1583.0</ele>
  <time>2026-08-28T17:48:35Z</time>
  <course>66.05</course>
  <speed>0.0</speed>
  <fix>3d</fix>
</trkpt>
<trkpt lat="40.0713751" lon="-105.2297887">
  <ele>1583.0</ele>
  <time>2026-08-28T17:48:35Z</time>
  <course>245.83</course>
  <speed>0.01</speed>
  <fix>3d</fix>
</trkpt>
<trkpt lat="40.0713751" lon="-105.2297887">
  <ele>1583.0</ele>
  <time>2026-08-28T17:48:35Z</time>
  <course>66.06</course>
  <speed>0.0</speed>
  <fix>3d</fix>
</trkpt>
<trkpt lat="40.071375" lon="-105.2297888">
  <ele>1582.99</ele>
  <time>2026-08-28T17:48:35Z</time>
  <course>245.82</course>
  <speed>0.01</speed>
  <fix>3d</fix>
</trkpt>
<trkpt lat="40.0713751" lon="-105.2297887">
  <ele>1583.0</ele>
  <time>2026-08-28T17:48:35Z</time>
  <course>66.06</course>
  <speed>0.0</speed>
  <fix>3d</fix>
</trkpt>
<trkpt lat="40.071375" lon="-105.2297888">
  <ele>1582.99</ele>
  <time>2026-08-28T17:48:35Z</time>
  <course>245.82</course>
  <speed>0.01</speed>
  <fix>3d</fix>
</trkpt>
<trkpt lat="40.0713751" lon="-105.2297887">
  <ele>1583.0</ele>
  <time>2026-08-28T17:48:35Z</time>
  <course>66.06</course>
  <speed>0.0</speed>
  <fix>3d</fix>
</trkpt>
<trkpt lat="40.071375" lon="-105.2297888">
  <ele>1582.99</ele>
  <time>2026-08-28T17:48:35Z</time>
  <course>245.82</course>
  <speed>0.02</speed>
  <fix>3d</fix>
</trkpt>
<trkpt lat="40.0713751" lon="-105.2297887">
  <ele>1583.0</ele>
  <time>2026-08-28T17:48:35Z</time>
  <course>66.06</course>
  <speed>0.0</speed>
  <fix>3d</fix>
</trkpt>
<trkpt lat="40.071375" lon="-105.2297888">
  <ele>1582.99</ele>
  <time>2026-08-28T17:48:35Z</time>
  <course>245.82</course>
  <speed>0.02</speed>
  <fix>3d</fix>
</trkpt>
<trkpt lat="40.0713751" lon="-105.2297887">
  <ele>1583.0</ele>
  <time>2026-08-28T17:48:35Z</time>
  <course>66.07</course>
  <speed>0.0</speed>
  <fix>3d</fix>
</trkpt>
<trkpt lat="40.071375" lon="-105.2297888">
  <ele>1582.99</ele>
  <time>2026-08-28T17:48:35Z</time>
  <course>245.81</course>
  <speed>0.02</speed>
  <fix>3d</fix>
</trkpt>
<trkpt lat="40.0713751" lon="-105.2297887">
  <ele>1583.0</ele>
  <time>2026-08-28T17:48:35Z</time>
  <course>66.07</course>
  <speed>0.0</speed>
  <fix>3d</fix>
</trkpt>
<trkpt lat="40.071375" lon="-105.2297888">
  <ele>1582.99</ele>
  <time>2026-08-28T17:48:35Z</time>
  <course>245.81</course>
  <speed>0.02</speed>
  <fix>3d</fix>
</trkpt>
<trkpt lat="40.0713751" lon="-105.2297887">
  <ele>1583.0</ele>
  <time>2026-08-28T17:48:35Z</time>
  <course>66.08</course>
  <speed>0.0</speed>
  <fix>3d</fix>
</trkpt>
<trkpt lat="40.071375" lon="-105.2297888">
  <ele>1582.99</ele>
  <time>2026-08-28T17:48:35Z</time>
  <course>245.81</course>
  <speed>0.02</speed>
  <fix>3d</fix>
</trkpt>
<trkpt lat="40.0713751" lon="-105.2297887">
  <ele>1583.0</ele>
  <time>2026-08-28T17:48:35Z</time>
  <course>66.09</course>
  <speed>0.0</speed>
  <fix>3d</fix>
</trkpt>
<trkpt lat="40.071375" lon="-105.2297888">
  <ele>1582.99</ele>
  <time>2026-08-28T17:48:35Z</time>
  <course>245.81</course>
  <speed>0.02</speed>
  <fix>3d</fix>
</trkpt>
<trkpt lat="40.0713751" lon="-105.2297887">
  <ele>1583.0</ele>
  <time>2026-08-28T17:48:35Z</time>
  <course>66.09</course>
  <speed>0.0</speed>
  <fix>3d</fix>
</trkpt>
<trkpt lat="40.071375" lon="-105.2297888">
  <ele>1582.99</ele>
  <time>2026-08-28T17:48:35Z</time>
  <course>245.81</course>
  <speed>0.02</speed>
  <fix>3d</fix>
</trkpt>
<trkpt lat="40.0713751" lon="-105.2297887">
  <ele>1583.0</ele>
  <time>2026-08-28T17:48:35Z</time>
  <course>66.1</course>
  <speed>0.0</speed>
  <fix>3d</fix>
</trkpt>
<trkpt lat="40.071375" lon="-105.2297888">
  <ele>1582.99</ele>
  <time>2026-08-28T17:48:35Z</time>
  <course>245.8</course>
  <speed>0.02</speed>
  <fix>3d</fix>
</trkpt>
<trkpt lat="40.0713751" lon="-105.2297887">
  <ele>1583.0</ele>
  <time>2026-08-28T17:48:35Z</time>
  <course>66.1</course>
  <speed>0.0</speed>
  <fix>3d</fix>
</trkpt>
<trkpt lat="40.071375" lon="-105.2297888">
  <ele>1582.99</ele>
  <time>2026-08-28T17:48:35Z</time>
  <course>245.8</course>
  <speed>0.02</speed>
  <fix>3d</fix>
</trkpt>
<trkpt lat="40.0713751" lon="-105.2297887">
  <ele>1583.0</ele>
  <time>2026-08-28T17:48:35Z</time>
  <course>66.11</course>
  <speed>0.0</speed>
  <fix>3d</fix>
</trkpt>
<trkpt lat="40.071375" lon="-105.2297888">
  <ele>1582.99</ele>
  <time>2026-08-28T17:48:35Z</time>
  <course>245.8</course>
  <speed>0.02</speed>
  <fix>3d</fix>
</trkpt>
<trkpt lat="40.0713751" lon="-105.2297887">
  <ele>1583.0</ele>
  <time>2026-08-28T17:48:35Z</time>
  <course>66.11</course>
  <speed>0.0</speed>
  <fix>3d</fix>
</trkpt>
<trkpt lat="40.071375" lon="-105.2297888">
  <ele>1582.99</ele>
  <time>2026-08-28T17:48:35Z</time>
  <course>245.8</course>
  <speed>0.02</speed>
  <fix>3d</fix>
</trkpt>
<trkpt lat="40.0713751" lon="-105.2297887">
  <ele>1583.0</ele>
  <time>2026-08-28T17:48:35Z</time>
  <course>66.12</course>
  <speed>0.0</speed>
  <fix>3d</fix>
</trkpt>
<trkpt lat="40.071375" lon="-105.2297888">
  <ele>1582.99</ele>
  <time>2026-08-28T17:48:35Z</time>
  <course>245.79</course>
  <speed>0.02</speed>
  <fix>3d</fix>
</trkpt>
<trkpt lat="40.0713751" lon="-105.2297887">
  <ele>1583.0</ele>
  <time>2026-08-28T17:48:35Z</time>
  <course>66.12</course>
  <speed>0.0</speed>
  <fix>3d</fix>
</trkpt>
<trkpt lat="40.071375" lon="-105.2297888">
  <ele>1582.98</ele>
  <time>2026-08-28T17:48:35Z</time>
  <course>245.79</course>
  <speed>0.02</speed>
  <fix>3d</fix>
</trkpt>
<trkpt lat="40.0713751" lon="-105.2297887">
  <ele>1583.0</ele>
  <time>2026-08-28T17:48:35Z</time>
  <course>66.14</course>
  <speed>0.0</speed>
  <fix>3d</fix>
</trkpt>
<trkpt lat="40.071375" lon="-105.2297888">
  <ele>1582.98</ele>
  <time>2026-08-28T17:48:35Z</time>
  <course>245.79</course>
  <speed>0.02</speed>
  <fix>3d</fix>
</trkpt>
<trkpt lat="40.0713751" lon="-105.2297887">
  <ele>1583.0</ele>
  <time>2026-08-28T17:48:35Z</time>
  <course>66.14</course>
  <speed>0.0</speed>
  <fix>3d</fix>
</trkpt>
<trkpt lat="40.071375" lon="-105.2297888">
  <ele>1582.98</ele>
  <time>2026-08-28T17:48:35Z</time>
  <course>245.79</course>
  <speed>0.02</speed>
  <fix>3d</fix>
</trkpt>
<trkpt lat="40.0713751" lon="-105.2297887">
  <ele>1583.0</ele>
  <time>2026-08-28T17:48:35Z</time>
  <course>66.15</course>
  <speed>0.0</speed>
  <fix>3d</fix>
</trkpt>
<trkpt lat="40.071375" lon="-105.2297888">
  <ele>1582.98</ele>
  <time>2026-08-28T17:48:35Z</time>
  <course>245.79</course>
  <speed>0.02</speed>
  <fix>3d</fix>
</trkpt>
<trkpt lat="40.0713751" lon="-105.2297887">
  <ele>1583.0</ele>
  <time>2026-08-28T17:48:35Z</time>
  <course>66.15</course>
  <speed>0.0</speed>
  <fix>3d</fix>
</trkpt>
<trkpt lat="40.071375" lon="-105.2297888">
  <ele>1582.98</ele>
  <time>2026-08-28T17:48:35Z</time>
  <course>245.78</course>
  <speed>0.02</speed>
  <fix>3d</fix>
</trkpt>
<trkpt lat="40.0713751" lon="-105.2297887">
  <ele>1583.0</ele>
  <time>2026-08-28T17:48:35Z</time>
  <course>66.17</course>
  <speed>0.0</speed>
  <fix>3d</fix>
</trkpt>
<trkpt lat="40.071375" lon="-105.2297888">
  <ele>1582.98</ele>
  <time>2026-08-28T17:48:35Z</time>
  <course>245.78</course>
  <speed>0.02</speed>
  <fix>3d</fix>
</trkpt>
<trkpt lat="40.0713751" lon="-105.2297887">
  <ele>1583.0</ele>
  <time>2026-08-28T17:48:35Z</time>
  <course>66.17</course>
  <speed>0.0</speed>
  <fix>3d</fix>
</trkpt>
<trkpt lat="40.071375" lon="-105.2297888">
  <ele>1582.98</ele>
  <time>2026-08-28T17:48:35Z</time>
  <course>245.78</course>
  <speed>0.02</speed>
  <fix>3d</fix>
</trkpt>
<trkpt lat="40.0713751" lon="-105.2297887">
  <ele>1583.0</ele>
  <time>2026-08-28T17:48:35Z</time>
  <course>66.17</course>
  <speed>0.0</speed>
  <fix>3d</fix>
</trkpt>
<trkpt lat="40.071375" lon="-105.2297888">
  <ele>1582.99</ele>
  <time>2026-08-28T17:48:35Z</time>
  <course>245.78</course>
  <speed>0.02</speed>
  <fix>3d</fix>
</trkpt>
<trkpt lat="40.0713751" lon="-105.2297887">
  <ele>1583.0</ele>
  <time>2026-08-28T17:48:35Z</time>
  <course>66.18</course>
  <speed>0.0</speed>
  <fix>3d</fix>
</trkpt>
<trkpt lat="40.071375" lon="-105.2297888">
  <ele>1582.99</ele>
  <time>2026-08-28T17:48:35Z</time>
  <course>245.77</course>
  <speed>0.022360679774997897</speed>
  <fix>3d</fix>
</trkpt>
<trkpt lat="40.0713751" lon="-105.2297887">
  <ele>1583.0</ele>
  <time>2026-08-28T17:48:35Z</time>
  <course>66.18</course>
  <speed>0.0</speed>
  <fix>3d</fix>
</trkpt>
<trkpt lat="40.071375" lon="-105.2297888">
  <ele>1583.0</ele>
  <time>2026-08-28T17:48:35Z</time>
  <course>245.77</course>
  <speed>0.022360679774997897</speed>
  <fix>3d</fix>
</trkpt>
<trkpt lat="40.0713751" lon="-105.2297887">
  <ele>1583.0</ele>
  <time>2026-08-28T17:48:35Z</time>
  <course>66.2</course>
  <speed>0.0</speed>
  <fix>3d</fix>
</trkpt>
<trkpt lat="40.071375" lon="-105.2297888">
  <ele>1583.01</ele>
  <time>2026-08-28T17:48:35Z</time>
  <course>245.77</course>
  <speed>0.022360679774997897</speed>
  <fix>3d</fix>
</trkpt>
<trkpt lat="40.0713751" lon="-105.2297887">
  <ele>1583.0</ele>
  <time>2026-08-28T17:48:35Z</time>
  <course>66.2</course>
  <speed>0.0</speed>
  <fix>3d</fix>
</trkpt>
<trkpt lat="40.071375" lon="-105.2297888">
  <ele>1583.01</ele>
  <time>2026-08-28T17:48:35Z</time>
  <course>245.77</course>
  <speed>0.022360679774997897</speed>
  <fix>3d</fix>
</trkpt>
<trkpt lat="40.0713751" lon="-105.2297887">
  <ele>1583.0</ele>
  <time>2026-08-28T17:48:35Z</time>
  <course>66.23</course>
  <speed>0.0</speed>
  <fix>3d</fix>
</trkpt>
<trkpt lat="40.0713749" lon="-105.2297888">
  <ele>1583.02</ele>
  <time>2026-08-28T17:48:35Z</time>
  <course>245.77</course>
  <speed>0.022360679774997897</speed>
  <fix>3d</fix>
</trkpt>
<trkpt lat="40.0713751" lon="-105.2297887">
  <ele>1583.0</ele>
  <time>2026-08-28T17:48:35Z</time>
  <course>66.25</course>
  <speed>0.0</speed>
  <fix>3d</fix>
</trkpt>
<trkpt lat="40.0713749" lon="-105.2297888">
  <ele>1583.03</ele>
  <time>2026-08-28T17:48:35Z</time>
  <course>245.76</course>
  <speed>0.0316227766016838</speed>
  <fix>3d</fix>
</trkpt>
<trkpt lat="40.0713751" lon="-105.2297887">
  <ele>1583.0</ele>
  <time>2026-08-28T17:48:35Z</time>
  <course>66.25</course>
  <speed>0.0</speed>
  <fix>3d</fix>
</trkpt>
<trkpt lat="40.0713749" lon="-105.2297888">
  <ele>1583.03</ele>
  <time>2026-08-28T17:48:35Z</time>
  <course>245.76</course>
  <speed>0.0316227766016838</speed>
  <fix>3d</fix>
</trkpt>
<trkpt lat="40.0713751" lon="-105.2297887">
  <ele>1583.0</ele>
  <time>2026-08-28T17:48:35Z</time>
  <course>66.28</course>
  <speed>0.0</speed>
  <fix>3d</fix>
</trkpt>
<trkpt lat="40.0713749" lon="-105.2297888">
  <ele>1583.03</ele>
  <time>2026-08-28T17:48:35Z</time>
  <course>245.76</course>
  <speed>0.0316227766016838</speed>
  <fix>3d</fix>
</trkpt>
<trkpt lat="40.0713751" lon="-105.2297887">
  <ele>1583.0</ele>
  <time>2026-08-28T17:48:35Z</time>
  <course>66.28</course>
  <speed>0.0</speed>
  <fix>3d</fix>
</trkpt>
<trkpt lat="40.0713748" lon="-105.2297888">
  <ele>1583.03</ele>
  <time>2026-08-28T17:48:35Z</time>
  <course>245.76</course>
  <speed>0.0316227766016838</speed>
  <fix>3d</fix>
</trkpt>
<trkpt lat="40.0713751" lon="-105.2297887">
  <ele>1583.0</ele>
  <time>2026-08-28T17:48:35Z</time>
  <course>66.31</course>
  <speed>0.0</speed>
  <fix>3d</fix>
</trkpt>
<trkpt lat="40.0713748" lon="-105.2297888">
  <ele>1583.03</ele>
  <time>2026-08-28T17:48:35Z</time>
  <course>245.76</course>
  <speed>0.0316227766016838</speed>
  <fix>3d</fix>
</trkpt>
<trkpt lat="40.0713751" lon="-105.2297887">
  <ele>1583.0</ele>
  <time>2026-08-28T17:48:35Z</time>
  <course>66.31</course>
  <speed>0.0</speed>
  <fix>3d</fix>
</trkpt>
<trkpt lat="40.0713747" lon="-105.2297889">
  <ele>1583.03</ele>
  <time>2026-08-28T17:48:35Z</time>
  <course>245.75</course>
  <speed>0.0412310562561766</speed>
  <fix>3d</fix>
</trkpt>
<trkpt lat="40.0713751" lon="-105.2297887">
  <ele>1583.0</ele>
  <time>2026-08-28T17:48:35Z</time>
  <course>66.34</course>
  <speed>0.0</speed>
  <fix>3d</fix>
</trkpt>
<trkpt lat="40.0713747" lon="-105.2297889">
  <ele>1583.03</ele>
  <time>2026-08-28T17:48:35Z</time>
  <course>245.75</course>
  <speed>0.0412310562561766</speed>
  <fix>3d</fix>
</trkpt>
<trkpt lat="40.0713751" lon="-105.2297887">
  <ele>1583.0</ele>
  <time>2026-08-28T17:48:35Z</time>
  <course>66.34</course>
  <speed>0.0</speed>
  <fix>3d</fix>
</trkpt>
<trkpt lat="40.0713746" lon="-105.2297889">
  <ele>1583.03</ele>
  <time>2026-08-28T17:48:35Z</time>
  <course>245.75</course>
  <speed>0.0412310562561766</speed>
  <fix>3d</fix>
</trkpt>
<trkpt lat="40.0713751" lon="-105.2297887">
  <ele>1583.0</ele>
  <time>2026-08-28T17:48:35Z</time>
  <course>66.38</course>
  <speed>0.0</speed>
  <fix>3d</fix>
</trkpt>
<trkpt lat="40.0713746" lon="-105.2297889">
  <ele>1583.04</ele>
  <time>2026-08-28T17:48:35Z</time>
  <course>245.75</course>
  <speed>0.0412310562561766</speed>
  <fix>3d</fix>
</trkpt>
<trkpt lat="40.0713751" lon="-105.2297887">
  <ele>1583.0</ele>
  <time>2026-08-28T17:48:35Z</time>
  <course>66.38</course>
  <speed>0.0</speed>
  <fix>3d</fix>
</trkpt>
<trkpt lat="40.0713746" lon="-105.2297889">
  <ele>1583.04</ele>
  <time>2026-08-28T17:48:35Z</time>
  <course>245.74</course>
  <speed>0.05099019513592785</speed>
  <fix>3d</fix>
</trkpt>
<trkpt lat="40.0713751" lon="-105.2297887">
  <ele>1583.0</ele>
  <time>2026-08-28T17:48:35Z</time>
  <course>66.42</course>
  <speed>0.0</speed>
  <fix>3d</fix>
</trkpt>
<trkpt lat="40.0713745" lon="-105.229789">
  <ele>1583.04</ele>
  <time>2026-08-28T17:48:35Z</time>
  <course>245.74</course>
  <speed>0.053851648071345036</speed>
  <fix>3d</fix>
</trkpt>
<trkpt lat="40.0713751" lon="-105.2297887">
  <ele>1583.0</ele>
  <time>2026-08-28T17:48:35Z</time>
  <course>66.42</course>
  <speed>0.0</speed>
  <fix>3d</fix>
</trkpt>
<trkpt lat="40.0713744" lon="-105.229789">
  <ele>1583.04</ele>
  <time>2026-08-28T17:48:35Z</time>
  <course>245.74</course>
  <speed>0.053851648071345036</speed>
  <fix>3d</fix>
</trkpt>
<trkpt lat="40.0713751" lon="-105.2297887">
  <ele>1583.0</ele>
  <time>2026-08-28T17:48:35Z</time>
  <course>66.46</course>
  <speed>0.0</speed>
  <fix>3d</fix>
</trkpt>
<trkpt lat="40.0713744" lon="-105.229789">
  <ele>1583.04</ele>
  <time>2026-08-28T17:48:35Z</time>
  <course>245.74</course>
  <speed>0.053851648071345036</speed>
  <fix>3d</fix>
</trkpt>
<trkpt lat="40.0713751" lon="-105.2297887">
  <ele>1583.0</ele>
  <time>2026-08-28T17:48:35Z</time>
  <course>66.46</course>
  <speed>0.0</speed>
  <fix>3d</fix>
</trkpt>
<trkpt lat="40.0713743" lon="-105.2297891">
  <ele>1583.04</ele>
  <time>2026-08-28T17:48:35Z</time>
  <course>245.74</course>
  <speed>0.0632455532033676</speed>
  <fix>3d</fix>
</trkpt>
<trkpt lat="40.0713751" lon="-105.2297887">
  <ele>1583.0</ele>
  <time>2026-08-28T17:48:35Z</time>
  <course>66.46</course>
  <speed>0.0</speed>
  <fix>3d</fix>
</trkpt>
<trkpt lat="40.0713743" lon="-105.2297891">
  <ele>1583.03</ele>
  <time>2026-08-28T17:48:35Z</time>
  <course>245.73</course>
  <speed>0.0632455532033676</speed>
  <fix>3d</fix>
</trkpt>
<trkpt lat="40.0713751" lon="-105.2297887">
  <ele>1583.0</ele>
  <time>2026-08-28T17:48:35Z</time>
  <course>66.51</course>
  <speed>0.0</speed>
  <fix>3d</fix>
</trkpt>
<trkpt lat="40.0713742" lon="-105.2297891">
  <ele>1583.04</ele>
  <time>2026-08-28T17:48:35Z</time>
  <course>245.73</course>
  <speed>0.0632455532033676</speed>
  <fix>3d</fix>
</trkpt>
<trkpt lat="40.0713751" lon="-105.2297887">
  <ele>1583.0</ele>
  <time>2026-08-28T17:48:35Z</time>
  <course>66.51</course>
  <speed>0.0</speed>
  <fix>3d</fix>
</trkpt>
<trkpt lat="40.0713741" lon="-105.2297892">
  <ele>1583.04</ele>
  <time>2026-08-28T17:48:35Z</time>
  <course>245.73</course>
  <speed>0.0632455532033676</speed>
  <fix>3d</fix>
</trkpt>
<trkpt lat="40.0713751" lon="-105.2297887">
  <ele>1583.0</ele>
  <time>2026-08-28T17:48:35Z</time>
  <course>66.56</course>
  <speed>0.0</speed>
  <fix>3d</fix>
</trkpt>
<trkpt lat="40.0713741" lon="-105.2297892">
  <ele>1583.04</ele>
  <time>2026-08-28T17:48:35Z</time>
  <course>245.73</course>
  <speed>0.07280109889280519</speed>
  <fix>3d</fix>
</trkpt>
<trkpt lat="40.0713751" lon="-105.2297887">
  <ele>1583.0</ele>
  <time>2026-08-28T17:48:35Z</time>
  <course>66.56</course>
  <speed>0.0</speed>
  <fix>3d</fix>
</trkpt>
<trkpt lat="40.071374" lon="-105.2297892">
  <ele>1583.04</ele>
  <time>2026-08-28T17:48:35Z</time>
  <course>245.72</course>
  <speed>0.07280109889280519</speed>
  <fix>3d</fix>
</trkpt>
<trkpt lat="40.0713751" lon="-105.2297887">
  <ele>1583.0</ele>
  <time>2026-08-28T17:48:35Z</time>
  <course>66.62</course>
  <speed>0.0</speed>
  <fix>3d</fix>
</trkpt>
<trkpt lat="40.071374" lon="-105.2297892">
  <ele>1583.04</ele>
  <time>2026-08-28T17:48:35Z</time>
  <course>245.72</course>
  <speed>0.07280109889280519</speed>
  <fix>3d</fix>
</trkpt>
<trkpt lat="40.0713751" lon="-105.2297887">
  <ele>1583.0</ele>
  <time>2026-08-28T17:48:35Z</time>
  <course>66.69</course>
  <speed>0.0</speed>
  <fix>3d</fix>
</trkpt>
<trkpt lat="40.0713739" lon="-105.2297893">
  <ele>1583.04</ele>
  <time>2026-08-28T17:48:35Z</time>
  <course>245.72</course>
  <speed>0.07280109889280519</speed>
  <fix>3d</fix>
</trkpt>
<trkpt lat="40.0713751" lon="-105.2297887">
  <ele>1583.0</ele>
  <time>2026-08-28T17:48:35Z</time>
  <course>66.69</course>
  <speed>0.0</speed>
  <fix>3d</fix>
</trkpt>
<trkpt lat="40.0713739" lon="-105.2297893">
  <ele>1583.04</ele>
  <time>2026-08-28T17:48:35Z</time>
  <course>245.72</course>
  <speed>0.07280109889280519</speed>
  <fix>3d</fix>
</trkpt>
<trkpt lat="40.0713751" lon="-105.2297887">
  <ele>1583.0</ele>
  <time>2026-08-28T17:48:35Z</time>
  <course>66.76</course>
  <speed>0.0</speed>
  <fix>3d</fix>
</trkpt>
<trkpt lat="40.0713738" lon="-105.2297893">
  <ele>1583.04</ele>
  <time>2026-08-28T17:48:35Z</time>
  <course>245.72</course>
  <speed>0.0854400374531753</speed>
  <fix>3d</fix>
</trkpt>
<trkpt lat="40.0713751" lon="-105.2297887">
  <ele>1583.0</ele>
  <time>2026-08-28T17:48:35Z</time>
  <course>66.76</course>
  <speed>0.0</speed>
  <fix>3d</fix>
</trkpt>
<trkpt lat="40.0713737" lon="-105.2297894">
  <ele>1583.04</ele>
  <time>2026-08-28T17:48:35Z</time>
  <course>245.71</course>
  <speed>0.0854400374531753</speed>
  <fix>3d</fix>
</trkpt>
<trkpt lat="40.0713751" lon="-105.2297887">
  <ele>1583.0</ele>
  <time>2026-08-28T17:48:35Z</time>
  <course>66.84</course>
  <speed>0.0</speed>
  <fix>3d</fix>
</trkpt>
<trkpt lat="40.0713736" lon="-105.2297894">
  <ele>1583.04</ele>
  <time>2026-08-28T17:48:35Z</time>
  <course>245.71</course>
  <speed>0.0854400374531753</speed>
  <fix>3d</fix>
</trkpt>
<trkpt lat="40.0713751" lon="-105.2297887">
  <ele>1583.0</ele>
  <time>2026-08-28T17:48:35Z</time>
  <course>66.84</course>
  <speed>0.0</speed>
  <fix>3d</fix>
</trkpt>
<trkpt lat="40.0713736" lon="-105.2297894">
  <ele>1583.04</ele>
  <time>2026-08-28T17:48:35Z</time>
  <course>245.71</course>
  <speed>0.0854400374531753</speed>
  <fix>3d</fix>
</trkpt>
<trkpt lat="40.0713751" lon="-105.2297887">
  <ele>1583.0</ele>
  <time>2026-08-28T17:48:35Z</time>
  <course>66.93</course>
  <speed>0.0</speed>
  <fix>3d</fix>
</trkpt>
<trkpt lat="40.0713735" lon="-105.2297895">
  <ele>1583.04</ele>
  <time>2026-08-28T17:48:35Z</time>
  <course>245.71</course>
  <speed>0.09486832980505139</speed>
  <fix>3d</fix>
</trkpt>
<trkpt lat="40.0713751" lon="-105.2297887">
  <ele>1583.0</ele>
  <time>2026-08-28T17:48:35Z</time>
  <course>66.93</course>
  <speed>0.0</speed>
  <fix>3d</fix>
</trkpt>
<trkpt lat="40.0713734" lon="-105.2297895">
  <ele>1583.04</ele>
  <time>2026-08-28T17:48:35Z</time>
  <course>245.71</course>
  <speed>0.09486832980505139</speed>
  <fix>3d</fix>
</trkpt>
<trkpt lat="40.0713751" lon="-105.2297887">
  <ele>1583.0</ele>
  <time>2026-08-28T17:48:35Z</time>
  <course>67.03</course>
  <speed>0.0</speed>
  <fix>3d</fix>
</trkpt>
<trkpt lat="40.0713734" lon="-105.2297895">
  <ele>1583.04</ele>
  <time>2026-08-28T17:48:35Z</time>
  <course>245.7</course>
  <speed>0.09486832980505139</speed>
  <fix>3d</fix>
</trkpt>
<trkpt lat="40.0713751" lon="-105.2297887">
  <ele>1583.0</ele>
  <time>2026-08-28T17:48:35Z</time>
  <course>67.03</course>
  <speed>0.0</speed>
  <fix>3d</fix>
</trkpt>
<trkpt lat="40.0713733" lon="-105.2297896">
  <ele>1583.04</ele>
  <time>2026-08-28T17:48:35Z</time>
  <course>245.7</course>
  <speed>0.09486832980505139</speed>
  <fix>3d</fix>
</trkpt>
<trkpt lat="40.0713751" lon="-105.2297887">
  <ele>1583.0</ele>
  <time>2026-08-28T17:48:35Z</time>
  <course>67.14</course>
  <speed>0.0</speed>
  <fix>3d</fix>
</trkpt>
<trkpt lat="40.0713733" lon="-105.2297896">
  <ele>1583.04</ele>
  <time>2026-08-28T17:48:35Z</time>
  <course>245.7</course>
  <speed>0.09486832980505139</speed>
  <fix>3d</fix>
</trkpt>
<trkpt lat="40.0713751" lon="-105.2297887">
  <ele>1583.0</ele>
  <time>2026-08-28T17:48:35Z</time>
  <course>67.14</course>
  <speed>0.0</speed>
  <fix>3d</fix>
</trkpt>
<trkpt lat="40.0713732" lon="-105.2297896">
  <ele>1583.03</ele>
  <time>2026-08-28T17:48:35Z</time>
  <course>245.7</course>
  <speed>0.09486832980505139</speed>
  <fix>3d</fix>
</trkpt>
<trkpt lat="40.0713751" lon="-105.2297887">
  <ele>1583.0</ele>
  <time>2026-08-28T17:48:35Z</time>
  <course>67.26</course>
  <speed>0.0</speed>
  <fix>3d</fix>
</trkpt>
<trkpt lat="40.0713731" lon="-105.2297897">
  <ele>1583.02</ele>
  <time>2026-08-28T17:48:35Z</time>
  <course>245.69</course>
  <speed>0.1044030650891055</speed>
  <fix>3d</fix>
</trkpt>
<trkpt lat="40.0713751" lon="-105.2297887">
  <ele>1583.0</ele>
  <time>2026-08-28T17:48:35Z</time>
  <course>67.26</course>
  <speed>0.0</speed>
  <fix>3d</fix>
</trkpt>
<trkpt lat="40.071373" lon="-105.2297897">
  <ele>1583.01</ele>
  <time>2026-08-28T17:48:35Z</time>
  <course>245.69</course>
  <speed>0.1044030650891055</speed>
  <fix>3d</fix>
</trkpt>
<trkpt lat="40.0713751" lon="-105.2297887">
  <ele>1583.0</ele>
  <time>2026-08-28T17:48:35Z</time>
  <course>67.26</course>
  <speed>0.0</speed>
  <fix>3d</fix>
</trkpt>
<trkpt lat="40.0713729" lon="-105.2297898">
  <ele>1583.01</ele>
  <time>2026-08-28T17:48:35Z</time>
  <course>245.69</course>
  <speed>0.10770329614269007</speed>
  <fix>3d</fix>
</trkpt>
<trkpt lat="40.0713751" lon="-105.2297887">
  <ele>1583.0</ele>
  <time>2026-08-28T17:48:35Z</time>
  <course>67.39</course>
  <speed>0.0</speed>
  <fix>3d</fix>
</trkpt>
<trkpt lat="40.0713728" lon="-105.2297898">
  <ele>1583.0</ele>
  <time>2026-08-28T17:48:35Z</time>
  <course>245.69</course>
  <speed>0.11704699910719625</speed>
  <fix>3d</fix>
</trkpt>
<trkpt lat="40.0713751" lon="-105.2297887">
  <ele>1583.0</ele>
  <time>2026-08-28T17:48:35Z</time>
  <course>67.39</course>
  <speed>0.0</speed>
  <fix>3d</fix>
</trkpt>
<trkpt lat="40.0713727" lon="-105.2297898">
  <ele>1582.99</ele>
  <time>2026-08-28T17:48:35Z</time>
  <course>245.69</course>
  <speed>0.11704699910719625</speed>
  <fix>3d</fix>
</trkpt>
<trkpt lat="40.0713751" lon="-105.2297887">
  <ele>1583.0</ele>
  <time>2026-08-28T17:48:35Z</time>
  <course>67.54</course>
  <speed>0.0</speed>
  <fix>3d</fix>
</trkpt>
<trkpt lat="40.0713726" lon="-105.2297899">
  <ele>1582.98</ele>
  <time>2026-08-28T17:48:35Z</time>
  <course>245.68</course>
  <speed>0.11704699910719625</speed>
  <fix>3d</fix>
</trkpt>
<trkpt lat="40.0713751" lon="-105.2297887">
  <ele>1583.0</ele>
  <time>2026-08-28T17:48:35Z</time>
  <course>67.54</course>
  <speed>0.0</speed>
  <fix>3d</fix>
</trkpt>
<trkpt lat="40.0713726" lon="-105.2297899">
  <ele>1582.98</ele>
  <time>2026-08-28T17:48:35Z</time>
  <course>245.68</course>
  <speed>0.11704699910719625</speed>
  <fix>3d</fix>
</trkpt>
<trkpt lat="40.0713751" lon="-105.2297887">
  <ele>1583.0</ele>
  <time>2026-08-28T17:48:35Z</time>
  <course>67.7</course>
  <speed>0.0</speed>
  <fix>3d</fix>
</trkpt>
<trkpt lat="40.0713726" lon="-105.2297899">
  <ele>1582.97</ele>
  <time>2026-08-28T17:48:35Z</time>
  <course>245.68</course>
  <speed>0.11704699910719625</speed>
  <fix>3d</fix>
</trkpt>
<trkpt lat="40.0713751" lon="-105.2297887">
  <ele>1583.0</ele>
  <time>2026-08-28T17:48:35Z</time>
  <course>67.7</course>
  <speed>0.0</speed>
  <fix>3d</fix>
</trkpt>
<trkpt lat="40.0713725" lon="-105.2297899">
  <ele>1582.97</ele>
  <time>2026-08-28T17:48:35Z</time>
  <course>245.68</course>
  <speed>0.11704699910719625</speed>
  <fix>3d</fix>
</trkpt>
<trkpt lat="40.0713751" lon="-105.2297887">
  <ele>1583.0</ele>
  <time>2026-08-28T17:48:35Z</time>
  <course>67.88</course>
  <speed>0.0</speed>
  <fix>3d</fix>
</trkpt>
<trkpt lat="40.0713725" lon="-105.22979">
  <ele>1582.96</ele>
  <time>2026-08-28T17:48:35Z</time>
  <course>245.67</course>
  <speed>0.11704699910719625</speed>
  <fix>3d</fix>
</trkpt>
<trkpt lat="40.0713751" lon="-105.2297887">
  <ele>1583.0</ele>
  <time>2026-08-28T17:48:35Z</time>
  <course>68.08</course>
  <speed>0.0</speed>
  <fix>3d</fix>
</trkpt>
<trkpt lat="40.0713724" lon="-105.22979">
  <ele>1582.96</ele>
  <time>2026-08-28T17:48:35Z</time>
  <course>245.67</course>
  <speed>0.1264911064067352</speed>
  <fix>3d</fix>
</trkpt>
<trkpt lat="40.0713751" lon="-105.2297887">
  <ele>1583.0</ele>
  <time>2026-08-28T17:48:35Z</time>
  <course>68.08</course>
  <speed>0.0</speed>
  <fix>3d</fix>
</trkpt>
<trkpt lat="40.0713724" lon="-105.22979">
  <ele>1582.95</ele>
  <time>2026-08-28T17:48:35Z</time>
  <course>245.67</course>
  <speed>0.1264911064067352</speed>
  <fix>3d</fix>
</trkpt>
<trkpt lat="40.0713751" lon="-105.2297887">
  <ele>1583.0</ele>
  <time>2026-08-28T17:48:35Z</time>
  <course>68.3</course>
  <speed>0.0</speed>
  <fix>3d</fix>
</trkpt>
<trkpt lat="40.0713723" lon="-105.2297901">
  <ele>1582.95</ele>
  <time>2026-08-28T17:48:35Z</time>
  <course>245.67</course>
  <speed>0.1264911064067352</speed>
  <fix>3d</fix>
</trkpt>
<trkpt lat="40.0713751" lon="-105.2297887">
  <ele>1583.0</ele>
  <time>2026-08-28T17:48:35Z</time>
  <course>68.3</course>
  <speed>0.0</speed>
  <fix>3d</fix>
</trkpt>
<trkpt lat="40.0713722" lon="-105.2297901">
  <ele>1582.94</ele>
  <time>2026-08-28T17:48:35Z</time>
  <course>245.67</course>
  <speed>0.1264911064067352</speed>
  <fix>3d</fix>
</trkpt>
<trkpt lat="40.0713751" lon="-105.2297887">
  <ele>1583.0</ele>
  <time>2026-08-28T17:48:35Z</time>
  <course>68.54</course>
  <speed>0.0</speed>
  <fix>3d</fix>
</trkpt>
<trkpt lat="40.0713721" lon="-105.2297902">
  <ele>1582.93</ele>
  <time>2026-08-28T17:48:35Z</time>
  <course>245.66</course>
  <speed>0.13601470508735444</speed>
  <fix>3d</fix>
</trkpt>
<trkpt lat="40.0713751" lon="-105.2297887">
  <ele>1583.0</ele>
  <time>2026-08-28T17:48:35Z</time>
  <course>68.54</course>
  <speed>0.0</speed>
  <fix>3d</fix>
</trkpt>
<trkpt lat="40.0713719" lon="-105.2297902">
  <ele>1582.92</ele>
  <time>2026-08-28T17:48:35Z</time>
  <course>245.66</course>
  <speed>0.1392838827718412</speed>
  <fix>3d</fix>
</trkpt>
<trkpt lat="40.0713751" lon="-105.2297887">
  <ele>1583.0</ele>
  <time>2026-08-28T17:48:35Z</time>
  <course>68.81</course>
  <speed>0.0</speed>
  <fix>3d</fix>
</trkpt>
<trkpt lat="40.0713719" lon="-105.2297903">
  <ele>1582.92</ele>
  <time>2026-08-28T17:48:35Z</time>
  <course>245.66</course>
  <speed>0.1392838827718412</speed>
  <fix>3d</fix>
</trkpt>
<trkpt lat="40.0713751" lon="-105.2297887">
  <ele>1583.0</ele>
  <time>2026-08-28T17:48:35Z</time>
  <course>68.81</course>
  <speed>0.0</speed>
  <fix>3d</fix>
</trkpt>
<trkpt lat="40.0713719" lon="-105.2297902">
  <ele>1582.91</ele>
  <time>2026-08-28T17:48:35Z</time>
  <course>245.66</course>
  <speed>0.13601470508735444</speed>
  <fix>3d</fix>
</trkpt>
<trkpt lat="40.0713751" lon="-105.2297887">
  <ele>1583.0</ele>
  <time>2026-08-28T17:48:35Z</time>
  <course>69.1</course>
  <speed>0.0</speed>
  <fix>3d</fix>
</trkpt>
<trkpt lat="40.071372" lon="-105.2297902">
  <ele>1582.91</ele>
  <time>2026-08-28T17:48:35Z</time>
  <course>245.65</course>
  <speed>0.13601470508735444</speed>
  <fix>3d</fix>
</trkpt>
<trkpt lat="40.0713751" lon="-105.2297887">
  <ele>1583.0</ele>
  <time>2026-08-28T17:48:35Z</time>
  <course>69.1</course>
  <speed>0.0</speed>
  <fix>3d</fix>
</trkpt>
<trkpt lat="40.0713719" lon="-105.2297902">
  <ele>1582.92</ele>
  <time>2026-08-28T17:48:35Z</time>
  <course>245.65</course>
  <speed>0.13601470508735444</speed>
  <fix>3d</fix>
</trkpt>
<trkpt lat="40.0713751" lon="-105.2297887">
  <ele>1583.0</ele>
  <time>2026-08-28T17:48:35Z</time>
  <course>69.43</course>
  <speed>0.0</speed>
  <fix>3d</fix>
</trkpt>
<trkpt lat="40.0713719" lon="-105.2297903">
  <ele>1582.93</ele>
  <time>2026-08-28T17:48:35Z</time>
  <course>245.65</course>
  <speed>0.13601470508735444</speed>
  <fix>3d</fix>
</trkpt>
<trkpt lat="40.0713751" lon="-105.2297887">
  <ele>1583.0</ele>
  <time>2026-08-28T17:48:35Z</time>
  <course>69.43</course>
  <speed>0.0</speed>
  <fix>3d</fix>
</trkpt>
<trkpt lat="40.0713718" lon="-105.2297903">
  <ele>1582.94</ele>
  <time>2026-08-28T17:48:35Z</time>
  <course>245.65</course>
  <speed>0.1392838827718412</speed>
  <fix>3d</fix>
</trkpt>
<trkpt lat="40.0713751" lon="-105.2297887">
  <ele>1583.0</ele>
  <time>2026-08-28T17:48:35Z</time>
  <course>69.79</course>
  <speed>0.0</speed>
  <fix>3d</fix>
</trkpt>
<trkpt lat="40.0713717" lon="-105.2297904">
  <ele>1582.94</ele>
  <time>2026-08-28T17:48:35Z</time>
  <course>245.65</course>
  <speed>0.1392838827718412</speed>
  <fix>3d</fix>
</trkpt>
<trkpt lat="40.0713751" lon="-105.2297887">
  <ele>1583.0</ele>
  <time>2026-08-28T17:48:35Z</time>
  <course>69.79</course>
  <speed>0.0</speed>
  <fix>3d</fix>
</trkpt>
<trkpt lat="40.0713716" lon="-105.2297904">
  <ele>1582.95</ele>
  <time>2026-08-28T17:48:35Z</time>
  <course>245.64</course>
  <speed>0.1392838827718412</speed>
  <fix>3d</fix>
</trkpt>
<trkpt lat="40.0713751" lon="-105.2297887">
  <ele>1583.0</ele>
  <time>2026-08-28T17:48:35Z</time>
  <course>69.79</course>
  <speed>0.0</speed>
  <fix>3d</fix>
</trkpt>
<trkpt lat="40.0713715" lon="-105.2297905">
  <ele>1582.96</ele>
  <time>2026-08-28T17:48:35Z</time>
  <course>245.64</course>
  <speed>0.14866068747318506</speed>
  <fix>3d</fix>
</trkpt>
<trkpt lat="40.0713751" lon="-105.2297887">
  <ele>1583.0</ele>
  <time>2026-08-28T17:48:35Z</time>
  <course>70.19</course>
  <speed>0.0</speed>
  <fix>3d</fix>
</trkpt>
<trkpt lat="40.0713714" lon="-105.2297905">
  <ele>1582.97</ele>
  <time>2026-08-28T17:48:35Z</time>
  <course>245.64</course>
  <speed>0.14866068747318506</speed>
  <fix>3d</fix>
</trkpt>
<trkpt lat="40.0713751" lon="-105.2297887">
  <ele>1583.0</ele>
  <time>2026-08-28T17:48:35Z</time>
  <course>70.19</course>
  <speed>0.0</speed>
  <fix>3d</fix>
</trkpt>
<trkpt lat="40.0713713" lon="-105.2297906">
  <ele>1582.98</ele>
  <time>2026-08-28T17:48:35Z</time>
  <course>245.64</course>
  <speed>0.14866068747318506</speed>
  <fix>3d</fix>
</trkpt>
<trkpt lat="40.0713751" lon="-105.2297887">
  <ele>1583.0</ele>
  <time>2026-08-28T17:48:35Z</time>
  <course>70.63</course>
  <speed>0.0</speed>
  <fix>3d</fix>
</trkpt>
<trkpt lat="40.0713712" lon="-105.2297906">
  <ele>1582.99</ele>
  <time>2026-08-28T17:48:35Z</time>
  <course>245.64</course>
  <speed>0.14866068747318506</speed>
  <fix>3d</fix>
</trkpt>
<trkpt lat="40.0713751" lon="-105.2297887">
  <ele>1583.0</ele>
  <time>2026-08-28T17:48:35Z</time>
  <course>70.63</course>
  <speed>0.0</speed>
  <fix>3d</fix>
</trkpt>
<trkpt lat="40.0713713" lon="-105.2297905">
  <ele>1583.0</ele>
  <time>2026-08-28T17:48:35Z</time>
  <course>245.63</course>
  <speed>0.14866068747318506</speed>
  <fix>3d</fix>
</trkpt>
<trkpt lat="40.0713751" lon="-105.2297887">
  <ele>1583.0</ele>
  <time>2026-08-28T17:48:35Z</time>
  <course>71.11</course>
  <speed>0.0</speed>
  <fix>3d</fix>
</trkpt>
<trkpt lat="40.0713714" lon="-105.2297905">
  <ele>1583.0</ele>
  <time>2026-08-28T17:48:35Z</time>
  <course>245.63</course>
  <speed>0.14866068747318506</speed>
  <fix>3d</fix>
</trkpt>
<trkpt lat="40.0713751" lon="-105.2297887">
  <ele>1583.0</ele>
  <time>2026-08-28T17:48:35Z</time>
  <course>71.65</course>
  <speed>0.0</speed>
  <fix>3d</fix>
</trkpt>
<trkpt lat="40.0713714" lon="-105.2297905">
  <ele>1583.0</ele>
  <time>2026-08-28T17:48:35Z</time>
  <course>245.63</course>
  <speed>0.1392838827718412</speed>
  <fix>3d</fix>
</trkpt>
<trkpt lat="40.0713751" lon="-105.2297887">
  <ele>1583.0</ele>
  <time>2026-08-28T17:48:35Z</time>
  <course>71.65</course>
  <speed>0.0</speed>
  <fix>3d</fix>
</trkpt>
<trkpt lat="40.0713714" lon="-105.2297905">
  <ele>1583.01</ele>
  <time>2026-08-28T17:48:35Z</time>
  <course>245.63</course>
  <speed>0.1392838827718412</speed>
  <fix>3d</fix>
</trkpt>
<trkpt lat="40.0713751" lon="-105.2297887">
  <ele>1583.0</ele>
  <time>2026-08-28T17:48:35Z</time>
  <course>72.24</course>
  <speed>0.0</speed>
  <fix>3d</fix>
</trkpt>
<trkpt lat="40.0713713" lon="-105.2297905">
  <ele>1583.01</ele>
  <time>2026-08-28T17:48:35Z</time>
  <course>245.62</course>
  <speed>0.14866068747318506</speed>
  <fix>3d</fix>
</trkpt>
<trkpt lat="40.0713751" lon="-105.2297887">
  <ele>1583.0</ele>
  <time>2026-08-28T17:48:35Z</time>
  <course>72.24</course>
  <speed>0.0</speed>
  <fix>3d</fix>
</trkpt>
<trkpt lat="40.0713713" lon="-105.2297906">
  <ele>1583.01</ele>
  <time>2026-08-28T17:48:35Z</time>
  <course>245.62</course>
  <speed>0.14866068747318506</speed>
  <fix>3d</fix>
</trkpt>
<trkpt lat="40.0713751" lon="-105.2297887">
  <ele>1583.0</ele>
  <time>2026-08-28T17:48:35Z</time>
  <course>72.89</course>
  <speed>0.0</speed>
  <fix>3d</fix>
</trkpt>
<trkpt lat="40.0713712" lon="-105.2297906">
  <ele>1583.02</ele>
  <time>2026-08-28T17:48:35Z</time>
  <course>245.62</course>
  <speed>0.14866068747318506</speed>
  <fix>3d</fix>
</trkpt>
<trkpt lat="40.0713751" lon="-105.2297887">
  <ele>1583.0</ele>
  <time>2026-08-28T17:48:35Z</time>
  <course>72.89</course>
  <speed>0.0</speed>
  <fix>3d</fix>
</trkpt>
<trkpt lat="40.0713711" lon="-105.2297907">
  <ele>1583.03</ele>
  <time>2026-08-28T17:48:35Z</time>
  <course>245.62</course>
  <speed>0.14866068747318506</speed>
  <fix>3d</fix>
</trkpt>
<trkpt lat="40.0713751" lon="-105.2297887">
  <ele>1583.0</ele>
  <time>2026-08-28T17:48:35Z</time>
  <course>73.61</course>
  <speed>0.0</speed>
  <fix>3d</fix>
</trkpt>
<trkpt lat="40.0713709" lon="-105.2297907">
  <ele>1583.03</ele>
  <time>2026-08-28T17:48:35Z</time>
  <course>245.62</course>
  <speed>0.15811388300841897</speed>
  <fix>3d</fix>
</trkpt>
<trkpt lat="40.0713751" lon="-105.2297887">
  <ele>1583.0</ele>
  <time>2026-08-28T17:48:35Z</time>
  <course>73.61</course>
  <speed>0.0</speed>
  <fix>3d</fix>
</trkpt>
<trkpt lat="40.0713709" lon="-105.2297908">
  <ele>1583.04</ele>
  <time>2026-08-28T17:48:35Z</time>
  <course>245.61</course>
  <speed>0.15811388300841897</speed>
  <fix>3d</fix>
</trkpt>
<trkpt lat="40.0713751" lon="-105.2297887">
  <ele>1583.0</ele>
  <time>2026-08-28T17:48:35Z</time>
  <course>74.4</course>
  <speed>0.0</speed>
  <fix>3d</fix>
</trkpt>
<trkpt lat="40.0713711" lon="-105.2297907">
  <ele>1583.04</ele>
  <time>2026-08-28T17:48:35Z</time>
  <course>245.61</course>
  <speed>0.14866068747318506</speed>
  <fix>3d</fix>
</trkpt>
<trkpt lat="40.0713751" lon="-105.2297887">
  <ele>1583.0</ele>
  <time>2026-08-28T17:48:35Z</time>
  <course>74.4</course>
  <speed>0.0</speed>
  <fix>3d</fix>
</trkpt>
<trkpt lat="40.0713712" lon="-105.2297906">
  <ele>1583.04</ele>
  <time>2026-08-28T17:48:35Z</time>
  <course>245.61</course>
  <speed>0.14866068747318506</speed>
  <fix>3d</fix>
</trkpt>
<trkpt lat="40.0713751" lon="-105.2297887">
  <ele>1583.0</ele>
  <time>2026-08-28T17:48:35Z</time>
  <course>75.27</course>
  <speed>0.0</speed>
  <fix>3d</fix>
</trkpt>
<trkpt lat="40.0713713" lon="-105.2297906">
  <ele>1583.04</ele>
  <time>2026-08-28T17:48:35Z</time>
  <course>245.61</course>
  <speed>0.14866068747318506</speed>
  <fix>3d</fix>
</trkpt>
<trkpt lat="40.0713751" lon="-105.2297887">
  <ele>1583.0</ele>
  <time>2026-08-28T17:48:36Z</time>
  <course>75.27</course>
  <speed>0.0</speed>
  <fix>3d</fix>
</trkpt>
<trkpt lat="40.0713712" lon="-105.2297906">
  <ele>1583.03</ele>
  <time>2026-08-28T17:48:36Z</time>
  <course>245.61</course>
  <speed>0.14866068747318506</speed>
  <fix>3d</fix>
</trkpt>
<trkpt lat="40.0713751" lon="-105.2297887">
  <ele>1583.0</ele>
  <time>2026-08-28T17:48:36Z</time>
  <course>76.22</course>
  <speed>0.0</speed>
  <fix>3d</fix>
</trkpt>
<trkpt lat="40.0713712" lon="-105.2297906">
  <ele>1583.03</ele>
  <time>2026-08-28T17:48:36Z</time>
  <course>245.6</course>
  <speed>0.14866068747318506</speed>
  <fix>3d</fix>
</trkpt>
<trkpt lat="40.0713751" lon="-105.2297887">
  <ele>1583.0</ele>
  <time>2026-08-28T17:48:36Z</time>
  <course>76.22</course>
  <speed>0.0</speed>
  <fix>3d</fix>
</trkpt>
<trkpt lat="40.0713711" lon="-105.2297906">
  <ele>1583.02</ele>
  <time>2026-08-28T17:48:36Z</time>
  <course>245.6</course>
  <speed>0.14866068747318506</speed>
  <fix>3d</fix>
</trkpt>
<trkpt lat="40.0713751" lon="-105.2297887">
  <ele>1583.0</ele>
  <time>2026-08-28T17:48:36Z</time>
  <course>76.22</course>
  <speed>0.0</speed>
  <fix>3d</fix>
</trkpt>
<trkpt lat="40.071371" lon="-105.2297907">
  <ele>1583.02</ele>
  <time>2026-08-28T17:48:36Z</time>
  <course>245.6</course>
  <speed>0.14866068747318506</speed>
  <fix>3d</fix>
</trkpt>
<trkpt lat="40.0713751" lon="-105.2297887">
  <ele>1583.0</ele>
  <time>2026-08-28T17:48:36Z</time>
  <course>77.27</course>
  <speed>0.0</speed>
  <fix>3d</fix>
</trkpt>
<trkpt lat="40.0713709" lon="-105.2297907">
  <ele>1583.01</ele>
  <time>2026-08-28T17:48:36Z</time>
  <course>245.6</course>
  <speed>0.14866068747318506</speed>
  <fix>3d</fix>
</trkpt>
<trkpt lat="40.0713751" lon="-105.2297887">
  <ele>1583.0</ele>
  <time>2026-08-28T17:48:36Z</time>
  <course>77.27</course>
  <speed>0.0</speed>
  <fix>3d</fix>
</trkpt>
<trkpt lat="40.0713708" lon="-105.2297908">
  <ele>1583.0</ele>
  <time>2026-08-28T17:48:36Z</time>
  <course>245.6</course>
  <speed>0.15811388300841897</speed>
  <fix>3d</fix>
</trkpt>
<trkpt lat="40.0713751" lon="-105.2297887">
  <ele>1583.0</ele>
  <time>2026-08-28T17:48:36Z</time>
  <course>78.43</course>
  <speed>0.0</speed>
  <fix>3d</fix>
</trkpt>
<trkpt lat="40.0713707" lon="-105.2297909">
  <ele>1583.0</ele>
  <time>2026-08-28T17:48:36Z</time>
  <course>245.59</course>
  <speed>0.15811388300841897</speed>
  <fix>3d</fix>
</trkpt>
<trkpt lat="40.0713751" lon="-105.2297887">
  <ele>1583.0</ele>
  <time>2026-08-28T17:48:36Z</time>
  <course>78.43</course>
  <speed>0.0</speed>
  <fix>3d</fix>
</trkpt>
<trkpt lat="40.0713706" lon="-105.2297909">
  <ele>1583.0</ele>
  <time>2026-08-28T17:48:36Z</time>
  <course>245.59</course>
  <speed>0.15811388300841897</speed>
  <fix>3d</fix>
</trkpt>
<trkpt lat="40.0713751" lon="-105.2297887">
  <ele>1583.0</ele>
  <time>2026-08-28T17:48:36Z</time>
  <course>79.69</course>
  <speed>0.0</speed>
  <fix>3d</fix>
</trkpt>
<trkpt lat="40.0713709" lon="-105.2297908">
  <ele>1583.0</ele>
  <time>2026-08-28T17:48:36Z</time>
  <course>245.59</course>
  <speed>0.14866068747318506</speed>
  <fix>3d</fix>
</trkpt>
<trkpt lat="40.0713751" lon="-105.2297887">
  <ele>1583.0</ele>
  <time>2026-08-28T17:48:36Z</time>
  <course>79.69</course>
  <speed>0.0</speed>
  <fix>3d</fix>
</trkpt>
<trkpt lat="40.0713711" lon="-105.2297907">
  <ele>1583.0</ele>
  <time>2026-08-28T17:48:36Z</time>
  <course>245.59</course>
  <speed>0.14866068747318506</speed>
  <fix>3d</fix>
</trkpt>
<trkpt lat="40.0713751" lon="-105.2297887">
  <ele>1583.0</ele>
  <time>2026-08-28T17:48:36Z</time>
  <course>81.06</course>
  <speed>0.0</speed>
  <fix>3d</fix>
</trkpt>
<trkpt lat="40.0713711" lon="-105.2297906">
  <ele>1583.01</ele>
  <time>2026-08-28T17:48:36Z</time>
  <course>245.59</course>
  <speed>0.14866068747318506</speed>
  <fix>3d</fix>
</trkpt>
<trkpt lat="40.0713751" lon="-105.2297887">
  <ele>1583.0</ele>
  <time>2026-08-28T17:48:36Z</time>
  <course>82.56</course>
  <speed>0.0</speed>
  <fix>3d</fix>
</trkpt>
<trkpt lat="40.0713712" lon="-105.2297906">
  <ele>1583.02</ele>
  <time>2026-08-28T17:48:36Z</time>
  <course>245.58</course>
  <speed>0.14866068747318506</speed>
  <fix>3d</fix>
</trkpt>
<trkpt lat="40.0713751" lon="-105.2297887">
  <ele>1583.0</ele>
  <time>2026-08-28T17:48:36Z</time>
  <course>82.56</course>
  <speed>0.0</speed>
  <fix>3d</fix>
</trkpt>
<trkpt lat="40.0713711" lon="-105.2297906">
  <ele>1583.03</ele>
  <time>2026-08-28T17:48:36Z</time>
  <course>245.58</course>
  <speed>0.14866068747318506</speed>
  <fix>3d</fix>
</trkpt>
<trkpt lat="40.0713751" lon="-105.2297887">
  <ele>1583.0</ele>
  <time>2026-08-28T17:48:36Z</time>
  <course>84.2</course>
  <speed>0.0</speed>
  <fix>3d</fix>
</trkpt>
<trkpt lat="40.0713711" lon="-105.2297907">
  <ele>1583.04</ele>
  <time>2026-08-28T17:48:36Z</time>
  <course>245.58</course>
  <speed>0.14866068747318506</speed>
  <fix>3d</fix>
</trkpt>
<trkpt lat="40.0713751" lon="-105.2297887">
  <ele>1583.0</ele>
  <time>2026-08-28T17:48:36Z</time>
  <course>84.2</course>
  <speed>0.0</speed>
  <fix>3d</fix>
</trkpt>
<trkpt lat="40.071371" lon="-105.2297907">
  <ele>1583.05</ele>
  <time>2026-08-28T17:48:36Z</time>
  <course>245.58</course>
  <speed>0.14866068747318506</speed>
  <fix>3d</fix>
</trkpt>
<trkpt lat="40.0713751" lon="-105.2297887">
  <ele>1583.0</ele>
  <time>2026-08-28T17:48:36Z</time>
  <course>85.97</course>
  <speed>0.0</speed>
  <fix>3d</fix>
</trkpt>
<trkpt lat="40.0713709" lon="-105.2297908">
  <ele>1583.06</ele>
  <time>2026-08-28T17:48:36Z</time>
  <course>245.58</course>
  <speed>0.14866068747318506</speed>
  <fix>3d</fix>
</trkpt>
<trkpt lat="40.0713751" lon="-105.2297887">
  <ele>1583.0</ele>
  <time>2026-08-28T17:48:36Z</time>
  <course>85.97</course>
  <speed>0.0</speed>
  <fix>3d</fix>
</trkpt>
<trkpt lat="40.0713708" lon="-105.2297908">
  <ele>1583.06</ele>
  <time>2026-08-28T17:48:36Z</time>
  <course>245.57</course>
  <speed>0.15811388300841897</speed>
  <fix>3d</fix>
</trkpt>
<trkpt lat="40.0713751" lon="-105.2297887">
  <ele>1583.0</ele>
  <time>2026-08-28T17:48:36Z</time>
  <course>87.88</course>
  <speed>0.0</speed>
  <fix>3d</fix>
</trkpt>
<trkpt lat="40.0713707" lon="-105.2297908">
  <ele>1583.06</ele>
  <time>2026-08-28T17:48:36Z</time>
  <course>245.57</course>
  <speed>0.15811388300841897</speed>
  <fix>3d</fix>
</trkpt>
<trkpt lat="40.0713751" lon="-105.2297887">
  <ele>1583.0</ele>
  <time>2026-08-28T17:48:36Z</time>
  <course>87.88</course>
  <speed>0.0</speed>
  <fix>3d</fix>
</trkpt>
<trkpt lat="40.071371" lon="-105.2297907">
  <ele>1583.06</ele>
  <time>2026-08-28T17:48:36Z</time>
  <course>245.57</course>
  <speed>0.14866068747318506</speed>
  <fix>3d</fix>
</trkpt>
<trkpt lat="40.0713751" lon="-105.2297887">
  <ele>1583.0</ele>
  <time>2026-08-28T17:48:36Z</time>
  <course>89.93</course>
  <speed>0.0</speed>
  <fix>3d</fix>
</trkpt>
<trkpt lat="40.0713712" lon="-105.2297906">
  <ele>1583.06</ele>
  <time>2026-08-28T17:48:36Z</time>
  <course>245.57</course>
  <speed>0.1392838827718412</speed>
  <fix>3d</fix>
</trkpt>
<trkpt lat="40.0713751" lon="-105.2297887">
  <ele>1583.0</ele>
  <time>2026-08-28T17:48:36Z</time>
  <course>89.93</course>
  <speed>0.0</speed>
  <fix>3d</fix>
</trkpt>
<trkpt lat="40.0713713" lon="-105.2297905">
  <ele>1583.05</ele>
  <time>2026-08-28T17:48:36Z</time>
  <course>245.57</course>
  <speed>0.1392838827718412</speed>
  <fix>3d</fix>
</trkpt>
<trkpt lat="40.0713751" lon="-105.2297887">
  <ele>1583.0</ele>
  <time>2026-08-28T17:48:36Z</time>
  <course>92.12</course>
  <speed>0.0</speed>
  <fix>3d</fix>
</trkpt>
<trkpt lat="40.0713714" lon="-105.2297905">
  <ele>1583.05</ele>
  <time>2026-08-28T17:48:36Z</time>
  <course>245.56</course>
  <speed>0.1392838827718412</speed>
  <fix>3d</fix>
</trkpt>
<trkpt lat="40.0713751" lon="-105.2297887">
  <ele>1583.0</ele>
  <time>2026-08-28T17:48:36Z</time>
  <course>92.12</course>
  <speed>0.0</speed>
  <fix>3d</fix>
</trkpt>
<trkpt lat="40.0713713" lon="-105.2297905">
  <ele>1583.04</ele>
  <time>2026-08-28T17:48:36Z</time>
  <course>245.56</course>
  <speed>0.1392838827718412</speed>
  <fix>3d</fix>
</trkpt>
<trkpt lat="40.0713751" lon="-105.2297887">
  <ele>1583.0</ele>
  <time>2026-08-28T17:48:36Z</time>
  <course>94.46</course>
  <speed>0.0</speed>
  <fix>3d</fix>
</trkpt>
<trkpt lat="40.0713751" lon="-105.2297887">
  <ele>1583.03</ele>
  <time>2026-08-28T17:48:36Z</time>
  <course>245.56</course>
  <speed>0.1392838827718412</speed>
  <fix>3d</fix>
</trkpt>
<trkpt lat="40.0713751" lon="-105.2297887">
  <ele>1583.0</ele>
  <time>2026-08-28T17:48:36Z</time>
  <course>94.46</course>
  <speed>0.0</speed>
  <fix>3d</fix>
</trkpt>
<trkpt lat="40.0713751" lon="-105.2297887">
  <ele>1582.75</ele>
  <time>2026-08-28T17:48:36Z</time>
  <course>245.56</course>
  <speed>0.14866068747318506</speed>
  <fix>3d</fix>
</trkpt>
<trkpt lat="40.0713751" lon="-105.2297887">
  <ele>1583.0</ele>
  <time>2026-08-28T17:48:36Z</time>
  <course>94.46</course>
  <speed>0.0</speed>
  <fix>3d</fix>
</trkpt>
<trkpt lat="40.0713751" lon="-105.2297887">
  <ele>1582.96</ele>
  <time>2026-08-28T17:48:36Z</time>
  <course>245.56</course>
  <speed>0.14866068747318506</speed>
  <fix>3d</fix>
</trkpt>
<trkpt lat="40.0713751" lon="-105.2297887">
  <ele>1583.0</ele>
  <time>2026-08-28T17:48:36Z</time>
  <course>96.92</course>
  <speed>0.0</speed>
  <fix>3d</fix>
</trkpt>
<trkpt lat="40.0713751" lon="-105.2297887">
  <ele>1583.12</ele>
  <time>2026-08-28T17:48:36Z</time>
  <course>245.55</course>
  <speed>0.14866068747318506</speed>
  <fix>3d</fix>
</trkpt>
<trkpt lat="40.0713751" lon="-105.2297887">
  <ele>1583.0</ele>
  <time>2026-08-28T17:48:36Z</time>
  <course>96.92</course>
  <speed>0.0</speed>
  <fix>3d</fix>
</trkpt>
<trkpt lat="40.0713751" lon="-105.2297887">
  <ele>1583.02</ele>
  <time>2026-08-28T17:48:36Z</time>
  <course>245.55</course>
  <speed>0.15811388300841897</speed>
  <fix>3d</fix>
</trkpt>
<trkpt lat="40.0713751" lon="-105.2297887">
  <ele>1583.0</ele>
  <time>2026-08-28T17:48:36Z</time>
  <course>99.51</course>
  <speed>0.0</speed>
  <fix>3d</fix>
</trkpt>
<trkpt lat="40.0713751" lon="-105.2297887">
  <ele>1583.13</ele>
  <time>2026-08-28T17:48:36Z</time>
  <course>245.55</course>
  <speed>0.15811388300841897</speed>
  <fix>3d</fix>
</trkpt>
<trkpt lat="40.0713751" lon="-105.2297887">
  <ele>1583.0</ele>
  <time>2026-08-28T17:48:36Z</time>
  <course>99.51</course>
  <speed>0.0</speed>
  <fix>3d</fix>
</trkpt>
<trkpt lat="40.0713751" lon="-105.2297887">
  <ele>1583.16</ele>
  <time>2026-08-28T17:48:36Z</time>
  <course>245.55</course>
  <speed>0.14866068747318506</speed>
  <fix>3d</fix>
</trkpt>
<trkpt lat="40.0713751" lon="-105.2297887">
  <ele>1583.0</ele>
  <time>2026-08-28T17:48:36Z</time>
  <course>102.2</course>
  <speed>0.0</speed>
  <fix>3d</fix>
</trkpt>
<trkpt lat="40.0713751" lon="-105.2297887">
  <ele>1583.04</ele>
  <time>2026-08-28T17:48:36Z</time>
  <course>245.55</course>
  <speed>0.1392838827718412</speed>
  <fix>3d</fix>
</trkpt>
<trkpt lat="40.0713751" lon="-105.2297887">
  <ele>1583.0</ele>
  <time>2026-08-28T17:48:36Z</time>
  <course>104.97</course>
  <speed>0.0</speed>
  <fix>3d</fix>
</trkpt>
<trkpt lat="40.0713751" lon="-105.2297887">
  <ele>1583.25</ele>
  <time>2026-08-28T17:48:36Z</time>
  <course>245.54</course>
  <speed>0.1392838827718412</speed>
  <fix>3d</fix>
</trkpt>
<trkpt lat="40.0713751" lon="-105.2297887">
  <ele>1583.0</ele>
  <time>2026-08-28T17:48:36Z</time>
  <course>104.97</course>
  <speed>0.0</speed>
  <fix>3d</fix>
</trkpt>
<trkpt lat="40.0713751" lon="-105.2297887">
  <ele>1583.26</ele>
  <time>2026-08-28T17:48:36Z</time>
  <course>245.54</course>
  <speed>0.1392838827718412</speed>
  <fix>3d</fix>
</trkpt>
<trkpt lat="40.0713751" lon="-105.2297887">
  <ele>1583.0</ele>
  <time>2026-08-28T17:48:36Z</time>
  <course>107.79</course>
  <speed>0.0</speed>
  <fix>3d</fix>
</trkpt>
<trkpt lat="40.0713751" lon="-105.2297887">
  <ele>1583.11</ele>
  <time>2026-08-28T17:48:36Z</time>
  <course>245.54</course>
  <speed>0.1392838827718412</speed>
  <fix>3d</fix>
</trkpt>
<trkpt lat="40.0713751" lon="-105.2297887">
  <ele>1583.0</ele>
  <time>2026-08-28T17:48:36Z</time>
  <course>107.79</course>
  <speed>0.0</speed>
  <fix>3d</fix>
</trkpt>
<trkpt lat="40.0713751" lon="-105.2297887">
  <ele>1583.19</ele>
  <time>2026-08-28T17:48:36Z</time>
  <course>245.54</course>
  <speed>0.1392838827718412</speed>
  <fix>3d</fix>
</trkpt>
<trkpt lat="40.0713751" lon="-105.2297887">
  <ele>1583.0</ele>
  <time>2026-08-28T17:48:36Z</time>
  <course>110.65</course>
  <speed>0.0</speed>
  <fix>3d</fix>
</trkpt>
<trkpt lat="40.0713751" lon="-105.2297887">
  <ele>1583.03</ele>
  <time>2026-08-28T17:48:36Z</time>
  <course>245.54</course>
  <speed>0.1392838827718412</speed>
  <fix>3d</fix>
</trkpt>
<trkpt lat="40.0713751" lon="-105.2297887">
  <ele>1583.0</ele>
  <time>2026-08-28T17:48:36Z</time>
  <course>110.65</course>
  <speed>0.0</speed>
  <fix>3d</fix>
</trkpt>
<trkpt lat="40.0713751" lon="-105.2297887">
  <ele>1583.08</ele>
  <time>2026-08-28T17:48:36Z</time>
  <course>245.53</course>
  <speed>0.14866068747318506</speed>
  <fix>3d</fix>
</trkpt>
<trkpt lat="40.0713751" lon="-105.2297887">
  <ele>1583.0</ele>
  <time>2026-08-28T17:48:36Z</time>
  <course>113.51</course>
  <speed>0.0</speed>
  <fix>3d</fix>
</trkpt>
<trkpt lat="40.0713751" lon="-105.2297887">
  <ele>1583.1</ele>
  <time>2026-08-28T17:48:36Z</time>
  <course>245.53</course>
  <speed>0.14866068747318506</speed>
  <fix>3d</fix>
</trkpt>
<trkpt lat="40.0713751" lon="-105.2297887">
  <ele>1583.0</ele>
  <time>2026-08-28T17:48:36Z</time>
  <course>113.51</course>
  <speed>0.0</speed>
  <fix>3d</fix>
</trkpt>
<trkpt lat="40.0713751" lon="-105.2297887">
  <ele>1583.08</ele>
  <time>2026-08-28T17:48:36Z</time>
  <course>245.53</course>
  <speed>0.14866068747318506</speed>
  <fix>3d</fix>
</trkpt>
<trkpt lat="40.0713751" lon="-105.2297887">
  <ele>1583.0</ele>
  <time>2026-08-28T17:48:36Z</time>
  <course>116.35</course>
  <speed>0.0</speed>
  <fix>3d</fix>
</trkpt>
<trkpt lat="40.071375" lon="-105.2297888">
  <ele>1583.06</ele>
  <time>2026-08-28T17:48:36Z</time>
  <course>245.53</course>
  <speed>0.11704699910719625</speed>
  <fix>3d</fix>
</trkpt>
<trkpt lat="40.0713751" lon="-105.2297887">
  <ele>1583.0</ele>
  <time>2026-08-28T17:48:36Z</time>
  <course>116.35</course>
  <speed>0.0</speed>
  <fix>3d</fix>
</trkpt>
<trkpt lat="40.071375" lon="-105.2297888">
  <ele>1583.06</ele>
  <time>2026-08-28T17:48:36Z</time>
  <course>245.53</course>
  <speed>0.09486832980505139</speed>
  <fix>3d</fix>
</trkpt>
<trkpt lat="40.0713751" lon="-105.2297887">
  <ele>1583.0</ele>
  <time>2026-08-28T17:48:36Z</time>
  <course>119.13</course>
  <speed>0.0</speed>
  <fix>3d</fix>
</trkpt>
<trkpt lat="40.071375" lon="-105.2297888">
  <ele>1583.06</ele>
  <time>2026-08-28T17:48:36Z</time>
  <course>245.52</course>
  <speed>0.07280109889280519</speed>
  <fix>3d</fix>
</trkpt>
<trkpt lat="40.0713751" lon="-105.2297887">
  <ele>1583.0</ele>
  <time>2026-08-28T17:48:36Z</time>
  <course>119.13</course>
  <speed>0.0</speed>
  <fix>3d</fix>
</trkpt>
<trkpt lat="40.071375" lon="-105.2297888">
  <ele>1583.06</ele>
  <time>2026-08-28T17:48:36Z</time>
  <course>245.52</course>
  <speed>0.0632455532033676</speed>
  <fix>3d</fix>
</trkpt>
<trkpt lat="40.0713751" lon="-105.2297887">
  <ele>1583.0</ele>
  <time>2026-08-28T17:48:36Z</time>
  <course>121.84</course>
  <speed>0.0</speed>
  <fix>3d</fix>
</trkpt>
<trkpt lat="40.071375" lon="-105.2297888">
  <ele>1583.05</ele>
  <time>2026-08-28T17:48:36Z</time>
  <course>245.52</course>
  <speed>0.05099019513592785</speed>
  <fix>3d</fix>
</trkpt>
<trkpt lat="40.0713751" lon="-105.2297887">
  <ele>1583.0</ele>
  <time>2026-08-28T17:48:36Z</time>
  <course>121.84</course>
  <speed>0.0</speed>
  <fix>3d</fix>
</trkpt>
<trkpt lat="40.071375" lon="-105.2297888">
  <ele>1583.05</ele>
  <time>2026-08-28T17:48:36Z</time>
  <course>245.52</course>
  <speed>0.0412310562561766</speed>
  <fix>3d</fix>
</trkpt>
<trkpt lat="40.0713751" lon="-105.2297887">
  <ele>1583.0</ele>
  <time>2026-08-28T17:48:36Z</time>
  <course>121.84</course>
  <speed>0.0</speed>
  <fix>3d</fix>
</trkpt>
<trkpt lat="40.071375" lon="-105.2297888">
  <ele>1583.05</ele>
  <time>2026-08-28T17:48:36Z</time>
  <course>245.52</course>
  <speed>0.0316227766016838</speed>
  <fix>3d</fix>
</trkpt>
<trkpt lat="40.0713751" lon="-105.2297887">
  <ele>1583.0</ele>
  <time>2026-08-28T17:48:36Z</time>
  <course>124.45</course>
  <speed>0.0</speed>
  <fix>3d</fix>
</trkpt>
<trkpt lat="40.0713751" lon="-105.2297887">
  <ele>1583.05</ele>
  <time>2026-08-28T17:48:36Z</time>
  <course>245.52</course>
  <speed>0.0316227766016838</speed>
  <fix>3d</fix>
</trkpt>
<trkpt lat="40.0713751" lon="-105.2297887">
  <ele>1583.0</ele>
  <time>2026-08-28T17:48:36Z</time>
  <course>124.45</course>
  <speed>0.0</speed>
  <fix>3d</fix>
</trkpt>
<trkpt lat="40.0713751" lon="-105.2297887">
  <ele>1583.04</ele>
  <time>2026-08-28T17:48:36Z</time>
  <course>245.51</course>
  <speed>0.022360679774997897</speed>
  <fix>3d</fix>
</trkpt>
<trkpt lat="40.0713751" lon="-105.2297887">
  <ele>1583.0</ele>
  <time>2026-08-28T17:48:36Z</time>
  <course>126.95</course>
  <speed>0.0</speed>
  <fix>3d</fix>
</trkpt>
<trkpt lat="40.0713751" lon="-105.2297887">
  <ele>1583.04</ele>
  <time>2026-08-28T17:48:36Z</time>
  <course>245.51</course>
  <speed>0.02</speed>
  <fix>3d</fix>
</trkpt>
<trkpt lat="40.0713751" lon="-105.2297887">
  <ele>1583.0</ele>
  <time>2026-08-28T17:48:36Z</time>
  <course>126.95</course>
  <speed>0.0</speed>
  <fix>3d</fix>
</trkpt>
<trkpt lat="40.0713751" lon="-105.2297887">
  <ele>1583.04</ele>
  <time>2026-08-28T17:48:36Z</time>
  <course>245.51</course>
  <speed>0.02</speed>
  <fix>3d</fix>
</trkpt>
<trkpt lat="40.0713751" lon="-105.2297887">
  <ele>1583.0</ele>
  <time>2026-08-28T17:48:36Z</time>
  <course>129.32</course>
  <speed>0.0</speed>
  <fix>3d</fix>
</trkpt>
<trkpt lat="40.0713751" lon="-105.2297887">
  <ele>1583.04</ele>
  <time>2026-08-28T17:48:36Z</time>
  <course>245.51</course>
  <speed>0.02</speed>
  <fix>3d</fix>
</trkpt>
<trkpt lat="40.0713751" lon="-105.2297887">
  <ele>1583.0</ele>
  <time>2026-08-28T17:48:36Z</time>
  <course>129.32</course>
  <speed>0.0</speed>
  <fix>3d</fix>
</trkpt>
<trkpt lat="40.0713751" lon="-105.2297887">
  <ele>1583.03</ele>
  <time>2026-08-28T17:48:36Z</time>
  <course>245.51</course>
  <speed>0.02</speed>
  <fix>3d</fix>
</trkpt>
<trkpt lat="40.0713751" lon="-105.2297887">
  <ele>1583.0</ele>
  <time>2026-08-28T17:48:36Z</time>
  <course>131.55</course>
  <speed>0.0</speed>
  <fix>3d</fix>
</trkpt>
<trkpt lat="40.0713751" lon="-105.2297887">
  <ele>1583.03</ele>
  <time>2026-08-28T17:48:36Z</time>
  <course>245.51</course>
  <speed>0.02</speed>
  <fix>3d</fix>
</trkpt>
<trkpt lat="40.0713751" lon="-105.2297887">
  <ele>1583.0</ele>
  <time>2026-08-28T17:48:36Z</time>
  <course>133.63</course>
  <speed>0.0</speed>
  <fix>3d</fix>
</trkpt>
<trkpt lat="40.0713751" lon="-105.2297887">
  <ele>1583.03</ele>
  <time>2026-08-28T17:48:36Z</time>
  <course>245.5</course>
  <speed>0.01</speed>
  <fix>3d</fix>
</trkpt>
<trkpt lat="40.0713751" lon="-105.2297887">
  <ele>1583.0</ele>
  <time>2026-08-28T17:48:36Z</time>
  <course>133.63</course>
  <speed>0.0</speed>
  <fix>3d</fix>
</trkpt>
<trkpt lat="40.0713751" lon="-105.2297887">
  <ele>1583.02</ele>
  <time>2026-08-28T17:48:36Z</time>
  <course>245.5</course>
  <speed>0.01</speed>
  <fix>3d</fix>
</trkpt>
<trkpt lat="40.0713751" lon="-105.2297887">
  <ele>1583.0</ele>
  <time>2026-08-28T17:48:36Z</time>
  <course>135.58</course>
  <speed>0.0</speed>
  <fix>3d</fix>
</trkpt>
<trkpt lat="40.0713751" lon="-105.2297887">
  <ele>1583.02</ele>
  <time>2026-08-28T17:48:36Z</time>
  <course>245.5</course>
  <speed>0.01</speed>
  <fix>3d</fix>
</trkpt>
<trkpt lat="40.0713751" lon="-105.2297887">
  <ele>1583.0</ele>
  <time>2026-08-28T17:48:36Z</time>
  <course>135.58</course>
  <speed>0.0</speed>
  <fix>3d</fix>
</trkpt>
<trkpt lat="40.0713751" lon="-105.2297887">
  <ele>1583.01</ele>
  <time>2026-08-28T17:48:36Z</time>
  <course>245.5</course>
  <speed>0.01</speed>
  <fix>3d</fix>
</trkpt>
<trkpt lat="40.0713751" lon="-105.2297887">
  <ele>1583.0</ele>
  <time>2026-08-28T17:48:36Z</time>
  <course>137.38</course>
  <speed>0.0</speed>
  <fix>3d</fix>
</trkpt>
<trkpt lat="40.0713751" lon="-105.2297887">
  <ele>1583.02</ele>
  <time>2026-08-28T17:48:36Z</time>
  <course>245.5</course>
  <speed>0.01</speed>
  <fix>3d</fix>
</trkpt>
<trkpt lat="40.0713751" lon="-105.2297887">
  <ele>1583.0</ele>
  <time>2026-08-28T17:48:36Z</time>
  <course>137.38</course>
  <speed>0.0</speed>
  <fix>3d</fix>
</trkpt>
<trkpt lat="40.0713751" lon="-105.2297887">
  <ele>1583.02</ele>
  <time>2026-08-28T17:48:36Z</time>
  <course>245.5</course>
  <speed>0.01</speed>
  <fix>3d</fix>
</trkpt>
<trkpt lat="40.0713751" lon="-105.2297887">
  <ele>1583.0</ele>
  <time>2026-08-28T17:48:36Z</time>
  <course>139.04</course>
  <speed>0.0</speed>
  <fix>3d</fix>
</trkpt>
<trkpt lat="40.0713751" lon="-105.2297887">
  <ele>1583.02</ele>
  <time>2026-08-28T17:48:36Z</time>
  <course>245.49</course>
  <speed>0.01</speed>
  <fix>3d</fix>
</trkpt>
<trkpt lat="40.0713751" lon="-105.2297887">
  <ele>1583.0</ele>
  <time>2026-08-28T17:48:36Z</time>
  <course>139.04</course>
  <speed>0.0</speed>
  <fix>3d</fix>
</trkpt>
<trkpt lat="40.071375" lon="-105.2297888">
  <ele>1583.03</ele>
  <time>2026-08-28T17:48:36Z</time>
  <course>245.49</course>
  <speed>0.02</speed>
  <fix>3d</fix>
</trkpt>
<trkpt lat="40.0713751" lon="-105.2297887">
  <ele>1583.0</ele>
  <time>2026-08-28T17:48:36Z</time>
  <course>140.58</course>
  <speed>0.0</speed>
  <fix>3d</fix>
</trkpt>
<trkpt lat="40.071375" lon="-105.2297888">
  <ele>1583.03</ele>
  <time>2026-08-28T17:48:36Z</time>
  <course>245.49</course>
  <speed>0.02</speed>
  <fix>3d</fix>
</trkpt>
<trkpt lat="40.0713751" lon="-105.2297887">
  <ele>1583.0</ele>
  <time>2026-08-28T17:48:36Z</time>
  <course>140.58</course>
  <speed>0.0</speed>
  <fix>3d</fix>
</trkpt>
<trkpt lat="40.071375" lon="-105.2297888">
  <ele>1583.04</ele>
  <time>2026-08-28T17:48:36Z</time>
  <course>245.49</course>
  <speed>0.02</speed>
  <fix>3d</fix>
</trkpt>
<trkpt lat="40.0713751" lon="-105.2297887">
  <ele>1583.0</ele>
  <time>2026-08-28T17:48:36Z</time>
  <course>141.98</course>
  <speed>0.0</speed>
  <fix>3d</fix>
</trkpt>
<trkpt lat="40.071375" lon="-105.2297888">
  <ele>1583.04</ele>
  <time>2026-08-28T17:48:36Z</time>
  <course>245.49</course>
  <speed>0.02</speed>
  <fix>3d</fix>
</trkpt>
<trkpt lat="40.0713751" lon="-105.2297887">
  <ele>1583.0</ele>
  <time>2026-08-28T17:48:36Z</time>
  <course>141.98</course>
  <speed>0.0</speed>
  <fix>3d</fix>
</trkpt>
<trkpt lat="40.071375" lon="-105.2297888">
  <ele>1583.05</ele>
  <time>2026-08-28T17:48:36Z</time>
  <course>245.49</course>
  <speed>0.02</speed>
  <fix>3d</fix>
</trkpt>
<trkpt lat="40.0713751" lon="-105.2297887">
  <ele>1583.0</ele>
  <time>2026-08-28T17:48:36Z</time>
  <course>141.98</course>
  <speed>0.0</speed>
  <fix>3d</fix>
</trkpt>
<trkpt lat="40.071375" lon="-105.2297888">
  <ele>1583.05</ele>
  <time>2026-08-28T17:48:36Z</time>
  <course>245.48</course>
  <speed>0.02</speed>
  <fix>3d</fix>
</trkpt>
<trkpt lat="40.0713751" lon="-105.2297887">
  <ele>1583.0</ele>
  <time>2026-08-28T17:48:36Z</time>
  <course>143.27</course>
  <speed>0.0</speed>
  <fix>3d</fix>
</trkpt>
<trkpt lat="40.071375" lon="-105.2297888">
  <ele>1583.05</ele>
  <time>2026-08-28T17:48:36Z</time>
  <course>245.48</course>
  <speed>0.02</speed>
  <fix>3d</fix>
</trkpt>
<trkpt lat="40.0713751" lon="-105.2297887">
  <ele>1583.0</ele>
  <time>2026-08-28T17:48:36Z</time>
  <course>143.27</course>
  <speed>0.0</speed>
  <fix>3d</fix>
</trkpt>
<trkpt lat="40.071375" lon="-105.2297888">
  <ele>1583.05</ele>
  <time>2026-08-28T17:48:36Z</time>
  <course>245.48</course>
  <speed>0.02</speed>
  <fix>3d</fix>
</trkpt>
<trkpt lat="40.0713751" lon="-105.2297887">
  <ele>1583.0</ele>
  <time>2026-08-28T17:48:36Z</time>
  <course>144.45</course>
  <speed>0.0</speed>
  <fix>3d</fix>
</trkpt>
<trkpt lat="40.071375" lon="-105.2297888">
  <ele>1583.05</ele>
  <time>2026-08-28T17:48:36Z</time>
  <course>245.48</course>
  <speed>0.02</speed>
  <fix>3d</fix>
</trkpt>
<trkpt lat="40.0713751" lon="-105.2297887">
  <ele>1583.0</ele>
  <time>2026-08-28T17:48:36Z</time>
  <course>144.45</course>
  <speed>0.0</speed>
  <fix>3d</fix>
</trkpt>
<trkpt lat="40.071375" lon="-105.2297888">
  <ele>1583.05</ele>
  <time>2026-08-28T17:48:36Z</time>
  <course>245.48</course>
  <speed>0.02</speed>
  <fix>3d</fix>
</trkpt>
<trkpt lat="40.0713751" lon="-105.2297887">
  <ele>1583.0</ele>
  <time>2026-08-28T17:48:36Z</time>
  <course>145.52</course>
  <speed>0.0</speed>
  <fix>3d</fix>
</trkpt>
<trkpt lat="40.071375" lon="-105.2297888">
  <ele>1583.05</ele>
  <time>2026-08-28T17:48:36Z</time>
  <course>245.48</course>
  <speed>0.02</speed>
  <fix>3d</fix>
</trkpt>
<trkpt lat="40.0713751" lon="-105.2297887">
  <ele>1583.0</ele>
  <time>2026-08-28T17:48:36Z</time>
  <course>145.52</course>
  <speed>0.0</speed>
  <fix>3d</fix>
</trkpt>
<trkpt lat="40.071375" lon="-105.2297888">
  <ele>1583.06</ele>
  <time>2026-08-28T17:48:36Z</time>
  <course>245.47</course>
  <speed>0.02</speed>
  <fix>3d</fix>
</trkpt>
<trkpt lat="40.0713751" lon="-105.2297887">
  <ele>1583.0</ele>
  <time>2026-08-28T17:48:36Z</time>
  <course>146.5</course>
  <speed>0.0</speed>
  <fix>3d</fix>
</trkpt>
<trkpt lat="40.071375" lon="-105.2297888">
  <ele>1583.06</ele>
  <time>2026-08-28T17:48:36Z</time>
  <course>245.47</course>
  <speed>0.02</speed>
  <fix>3d</fix>
</trkpt>
<trkpt lat="40.0713751" lon="-105.2297887">
  <ele>1583.0</ele>
  <time>2026-08-28T17:48:36Z</time>
  <course>147.39</course>
  <speed>0.0</speed>
  <fix>3d</fix>
</trkpt>
<trkpt lat="40.071375" lon="-105.2297888">
  <ele>1583.07</ele>
  <time>2026-08-28T17:48:36Z</time>
  <course>245.47</course>
  <speed>0.02</speed>
  <fix>3d</fix>
</trkpt>
<trkpt lat="40.0713751" lon="-105.2297887">
  <ele>1583.0</ele>
  <time>2026-08-28T17:48:36Z</time>
  <course>147.39</course>
  <speed>0.0</speed>
  <fix>3d</fix>
</trkpt>
<trkpt lat="40.071375" lon="-105.2297888">
  <ele>1583.07</ele>
  <time>2026-08-28T17:48:36Z</time>
  <course>245.47</course>
  <speed>0.02</speed>
  <fix>3d</fix>
</trkpt>
<trkpt lat="40.0713751" lon="-105.2297887">
  <ele>1583.0</ele>
  <time>2026-08-28T17:48:36Z</time>
  <course>148.2</course>
  <speed>0.0</speed>
  <fix>3d</fix>
</trkpt>
<trkpt lat="40.071375" lon="-105.2297888">
  <ele>1583.08</ele>
  <time>2026-08-28T17:48:36Z</time>
  <course>245.47</course>
  <speed>0.02</speed>
  <fix>3d</fix>
</trkpt>
<trkpt lat="40.0713751" lon="-105.2297887">
  <ele>1583.0</ele>
  <time>2026-08-28T17:48:36Z</time>
  <course>148.2</course>
  <speed>0.0</speed>
  <fix>3d</fix>
</trkpt>
<trkpt lat="40.071375" lon="-105.2297888">
  <ele>1583.08</ele>
  <time>2026-08-28T17:48:36Z</time>
  <course>245.47</course>
  <speed>0.02</speed>
  <fix>3d</fix>
</trkpt>
<trkpt lat="40.0713751" lon="-105.2297887">
  <ele>1583.0</ele>
  <time>2026-08-28T17:48:36Z</time>
  <course>148.93</course>
  <speed>0.0</speed>
  <fix>3d</fix>
</trkpt>
<trkpt lat="40.071375" lon="-105.2297888">
  <ele>1583.09</ele>
  <time>2026-08-28T17:48:36Z</time>
  <course>245.47</course>
  <speed>0.02</speed>
  <fix>3d</fix>
</trkpt>
<trkpt lat="40.0713751" lon="-105.2297887">
  <ele>1583.0</ele>
  <time>2026-08-28T17:48:36Z</time>
  <course>148.93</course>
  <speed>0.0</speed>
  <fix>3d</fix>
</trkpt>
<trkpt lat="40.071375" lon="-105.2297888">
  <ele>1583.09</ele>
  <time>2026-08-28T17:48:36Z</time>
  <course>245.46</course>
  <speed>0.022360679774997897</speed>
  <fix>3d</fix>
</trkpt>
<trkpt lat="40.0713751" lon="-105.2297887">
  <ele>1583.0</ele>
  <time>2026-08-28T17:48:36Z</time>
  <course>149.6</course>
  <speed>0.0</speed>
  <fix>3d</fix>
</trkpt>
<trkpt lat="40.071375" lon="-105.2297888">
  <ele>1583.1</ele>
  <time>2026-08-28T17:48:36Z</time>
  <course>245.46</course>
  <speed>0.022360679774997897</speed>
  <fix>3d</fix>
</trkpt>
<trkpt lat="40.0713751" lon="-105.2297887">
  <ele>1583.0</ele>
  <time>2026-08-28T17:48:36Z</time>
  <course>149.6</course>
  <speed>0.0</speed>
  <fix>3d</fix>
</trkpt>
<trkpt lat="40.071375" lon="-105.2297888">
  <ele>1583.11</ele>
  <time>2026-08-28T17:48:36Z</time>
  <course>245.46</course>
  <speed>0.022360679774997897</speed>
  <fix>3d</fix>
</trkpt>
<trkpt lat="40.0713751" lon="-105.2297887">
  <ele>1583.0</ele>
  <time>2026-08-28T17:48:36Z</time>
  <course>150.2</course>
  <speed>0.0</speed>
  <fix>3d</fix>
</trkpt>
<trkpt lat="40.071375" lon="-105.2297888">
  <ele>1583.12</ele>
  <time>2026-08-28T17:48:36Z</time>
  <course>245.46</course>
  <speed>0.022360679774997897</speed>
  <fix>3d</fix>
</trkpt>
<trkpt lat="40.0713751" lon="-105.2297887">
  <ele>1583.0</ele>
  <time>2026-08-28T17:48:36Z</time>
  <course>150.2</course>
  <speed>0.0</speed>
  <fix>3d</fix>
</trkpt>
<trkpt lat="40.071375" lon="-105.2297888">
  <ele>1583.12</ele>
  <time>2026-08-28T17:48:36Z</time>
  <course>245.46</course>
  <speed>0.022360679774997897</speed>
  <fix>3d</fix>
</trkpt>
<trkpt lat="40.0713751" lon="-105.2297887">
  <ele>1583.0</ele>
  <time>2026-08-28T17:48:36Z</time>
  <course>150.75</course>
  <speed>0.0</speed>
  <fix>3d</fix>
</trkpt>
<trkpt lat="40.071375" lon="-105.2297888">
  <ele>1583.13</ele>
  <time>2026-08-28T17:48:36Z</time>
  <course>245.46</course>
  <speed>0.022360679774997897</speed>
  <fix>3d</fix>
</trkpt>
<trkpt lat="40.0713751" lon="-105.2297887">
  <ele>1583.0</ele>
  <time>2026-08-28T17:48:36Z</time>
  <course>150.75</course>
  <speed>0.0</speed>
  <fix>3d</fix>
</trkpt>
<trkpt lat="40.071375" lon="-105.2297888">
  <ele>1583.14</ele>
  <time>2026-08-28T17:48:36Z</time>
  <course>245.45</course>
  <speed>0.022360679774997897</speed>
  <fix>3d</fix>
</trkpt>
<trkpt lat="40.0713751" lon="-105.2297887">
  <ele>1583.0</ele>
  <time>2026-08-28T17:48:36Z</time>
  <course>151.25</course>
  <speed>0.0</speed>
  <fix>3d</fix>
</trkpt>
<trkpt lat="40.071375" lon="-105.2297888">
  <ele>1583.14</ele>
  <time>2026-08-28T17:48:36Z</time>
  <course>245.45</course>
  <speed>0.022360679774997897</speed>
  <fix>3d</fix>
</trkpt>
<trkpt lat="40.0713751" lon="-105.2297887">
  <ele>1583.0</ele>
  <time>2026-08-28T17:48:36Z</time>
  <course>151.25</course>
  <speed>0.0</speed>
  <fix>3d</fix>
</trkpt>
<trkpt lat="40.071375" lon="-105.2297888">
  <ele>1583.14</ele>
  <time>2026-08-28T17:48:36Z</time>
  <course>245.45</course>
  <speed>0.0316227766016838</speed>
  <fix>3d</fix>
</trkpt>
<trkpt lat="40.0713751" lon="-105.2297887">
  <ele>1583.0</ele>
  <time>2026-08-28T17:48:36Z</time>
  <course>151.25</course>
  <speed>0.0</speed>
  <fix>3d</fix>
</trkpt>
<trkpt lat="40.071375" lon="-105.2297888">
  <ele>1583.14</ele>
  <time>2026-08-28T17:48:36Z</time>
  <course>245.45</course>
  <speed>0.022360679774997897</speed>
  <fix>3d</fix>
</trkpt>
<trkpt lat="40.0713751" lon="-105.2297887">
  <ele>1583.0</ele>
  <time>2026-08-28T17:48:36Z</time>
  <course>151.7</course>
  <speed>0.0</speed>
  <fix>3d</fix>
</trkpt>
<trkpt lat="40.0713749" lon="-105.2297888">
  <ele>1583.14</ele>
  <time>2026-08-28T17:48:36Z</time>
  <course>245.45</course>
  <speed>0.0316227766016838</speed>
  <fix>3d</fix>
</trkpt>
<trkpt lat="40.0713751" lon="-105.2297887">
  <ele>1583.0</ele>
  <time>2026-08-28T17:48:36Z</time>
  <course>151.7</course>
  <speed>0.0</speed>
  <fix>3d</fix>
</trkpt>
<trkpt lat="40.0713749" lon="-105.2297888">
  <ele>1583.13</ele>
  <time>2026-08-28T17:48:36Z</time>
  <course>245.45</course>
  <speed>0.0316227766016838</speed>
  <fix>3d</fix>
</trkpt>
<trkpt lat="40.0713751" lon="-105.2297887">
  <ele>1583.0</ele>
  <time>2026-08-28T17:48:36Z</time>
  <course>152.11</course>
  <speed>0.0</speed>
  <fix>3d</fix>
</trkpt>
<trkpt lat="40.0713749" lon="-105.2297888">
  <ele>1583.13</ele>
  <time>2026-08-28T17:48:36Z</time>
  <course>245.45</course>
  <speed>0.0316227766016838</speed>
  <fix>3d</fix>
</trkpt>
<trkpt lat="40.0713751" lon="-105.2297887">
  <ele>1583.0</ele>
  <time>2026-08-28T17:48:36Z</time>
  <course>152.11</course>
  <speed>0.0</speed>
  <fix>3d</fix>
</trkpt>
<trkpt lat="40.0713749" lon="-105.2297888">
  <ele>1583.12</ele>
  <time>2026-08-28T17:48:36Z</time>
  <course>245.44</course>
  <speed>0.0316227766016838</speed>
  <fix>3d</fix>
</trkpt>
<trkpt lat="40.0713751" lon="-105.2297887">
  <ele>1583.0</ele>
  <time>2026-08-28T17:48:36Z</time>
  <course>152.48</course>
  <speed>0.0</speed>
  <fix>3d</fix>
</trkpt>
<trkpt lat="40.0713749" lon="-105.2297888">
  <ele>1583.11</ele>
  <time>2026-08-28T17:48:36Z</time>
  <course>245.44</course>
  <speed>0.0316227766016838</speed>
  <fix>3d</fix>
</trkpt>
<trkpt lat="40.0713751" lon="-105.2297887">
  <ele>1583.0</ele>
  <time>2026-08-28T17:48:36Z</time>
  <course>152.81</course>
  <speed>0.0</speed>
  <fix>3d</fix>
</trkpt>
<trkpt lat="40.0713749" lon="-105.2297888">
  <ele>1583.11</ele>
  <time>2026-08-28T17:48:36Z</time>
  <course>245.44</course>
  <speed>0.022360679774997897</speed>
  <fix>3d</fix>
</trkpt>
<trkpt lat="40.0713751" lon="-105.2297887">
  <ele>1583.0</ele>
  <time>2026-08-28T17:48:36Z</time>
  <course>152.81</course>
  <speed>0.0</speed>
  <fix>3d</fix>
</trkpt>
<trkpt lat="40.0713749" lon="-105.2297888">
  <ele>1583.1</ele>
  <time>2026-08-28T17:48:36Z</time>
  <course>245.44</course>
  <speed>0.0316227766016838</speed>
  <fix>3d</fix>
</trkpt>
<trkpt lat="40.0713751" lon="-105.2297887">
  <ele>1583.0</ele>
  <time>2026-08-28T17:48:36Z</time>
  <course>153.11</course>
  <speed>0.0</speed>
  <fix>3d</fix>
</trkpt>
<trkpt lat="40.0713749" lon="-105.2297888">
  <ele>1583.09</ele>
  <time>2026-08-28T17:48:36Z</time>
  <course>245.44</course>
  <speed>0.022360679774997897</speed>
  <fix>3d</fix>
</trkpt>
<trkpt lat="40.0713751" lon="-105.2297887">
  <ele>1583.0</ele>
  <time>2026-08-28T17:48:36Z</time>
  <course>153.11</course>
  <speed>0.0</speed>
  <fix>3d</fix>
</trkpt>
<trkpt lat="40.0713749" lon="-105.2297888">
  <ele>1583.08</ele>
  <time>2026-08-28T17:48:36Z</time>
  <course>245.44</course>
  <speed>0.022360679774997897</speed>
  <fix>3d</fix>
</trkpt>
<trkpt lat="40.0713751" lon="-105.2297887">
  <ele>1583.0</ele>
  <time>2026-08-28T17:48:36Z</time>
  <course>153.39</course>
  <speed>0.0</speed>
  <fix>3d</fix>
</trkpt>
<trkpt lat="40.0713749" lon="-105.2297888">
  <ele>1583.07</ele>
  <time>2026-08-28T17:48:36Z</time>
  <course>245.43</course>
  <speed>0.022360679774997897</speed>
  <fix>3d</fix>
</trkpt>
<trkpt lat="40.0713751" lon="-105.2297887">
  <ele>1583.0</ele>
  <time>2026-08-28T17:48:36Z</time>
  <course>153.39</course>
  <speed>0.0</speed>
  <fix>3d</fix>
</trkpt>
<trkpt lat="40.0713749" lon="-105.2297888">
  <ele>1583.07</ele>
  <time>2026-08-28T17:48:36Z</time>
  <course>245.43</course>
  <speed>0.022360679774997897</speed>
  <fix>3d</fix>
</trkpt>
<trkpt lat="40.0713751" lon="-105.2297887">
  <ele>1583.0</ele>
  <time>2026-08-28T17:48:36Z</time>
  <course>153.63</course>
  <speed>0.0</speed>
  <fix>3d</fix>
</trkpt>
<trkpt lat="40.0713749" lon="-105.2297888">
  <ele>1583.06</ele>
  <time>2026-08-28T17:48:36Z</time>
  <course>245.43</course>
  <speed>0.022360679774997897</speed>
  <fix>3d</fix>
</trkpt>
<trkpt lat="40.0713751" lon="-105.2297887">
  <ele>1583.0</ele>
  <time>2026-08-28T17:48:36Z</time>
  <course>153.63</course>
  <speed>0.0</speed>
  <fix>3d</fix>
</trkpt>
<trkpt lat="40.0713749" lon="-105.2297888">
  <ele>1583.05</ele>
  <time>2026-08-28T17:48:36Z</time>
  <course>245.43</course>
  <speed>0.022360679774997897</speed>
  <fix>3d</fix>
</trkpt>
<trkpt lat="40.0713751" lon="-105.2297887">
  <ele>1583.0</ele>
  <time>2026-08-28T17:48:36Z</time>
  <course>153.86</course>
  <speed>0.0</speed>
  <fix>3d</fix>
</trkpt>
<trkpt lat="40.0713749" lon="-105.2297888">
  <ele>1583.02</ele>
  <time>2026-08-28T17:48:36Z</time>
  <course>245.42</course>
  <speed>0.022360679774997897</speed>
  <fix>3d</fix>
</trkpt>
<trkpt lat="40.0713751" lon="-105.2297887">
  <ele>1583.0</ele>
  <time>2026-08-28T17:48:36Z</time>
  <course>154.25</course>
  <speed>0.0</speed>
  <fix>3d</fix>
</trkpt>
<trkpt lat="40.0713749" lon="-105.2297888">
  <ele>1583.01</ele>
  <time>2026-08-28T17:48:36Z</time>
  <course>245.42</course>
  <speed>0.022360679774997897</speed>
  <fix>3d</fix>
</trkpt>
<trkpt lat="40.0713751" lon="-105.2297887">
  <ele>1583.0</ele>
  <time>2026-08-28T17:48:36Z</time>
  <course>154.41</course>
  <speed>0.0</speed>
  <fix>3d</fix>
</trkpt>
<trkpt lat="40.0713749" lon="-105.2297888">
  <ele>1583.0</ele>
  <time>2026-08-28T17:48:36Z</time>
  <course>245.42</course>
  <speed>0.022360679774997897</speed>
  <fix>3d</fix>
</trkpt>
<trkpt lat="40.0713751" lon="-105.2297887">
  <ele>1583.0</ele>
  <time>2026-08-28T17:48:36Z</time>
  <course>154.41</course>
  <speed>0.0</speed>
  <fix>3d</fix>
</trkpt>
<trkpt lat="40.0713749" lon="-105.2297888">
  <ele>1583.0</ele>
  <time>2026-08-28T17:48:36Z</time>
  <course>245.42</course>
  <speed>0.022360679774997897</speed>
  <fix>3d</fix>
</trkpt>
<trkpt lat="40.0713751" lon="-105.2297887">
  <ele>1583.0</ele>
  <time>2026-08-28T17:48:36Z</time>
  <course>154.56</course>
  <speed>0.0</speed>
  <fix>3d</fix>
</trkpt>
<trkpt lat="40.0713749" lon="-105.2297888">
  <ele>1583.0</ele>
  <time>2026-08-28T17:48:36Z</time>
  <course>245.42</course>
  <speed>0.022360679774997897</speed>
  <fix>3d</fix>
</trkpt>
<trkpt lat="40.0713751" lon="-105.2297887">
  <ele>1583.0</ele>
  <time>2026-08-28T17:48:36Z</time>
  <course>154.56</course>
  <speed>0.0</speed>
  <fix>3d</fix>
</trkpt>
<trkpt lat="40.0713749" lon="-105.2297888">
  <ele>1583.0</ele>
  <time>2026-08-28T17:48:36Z</time>
  <course>245.42</course>
  <speed>0.022360679774997897</speed>
  <fix>3d</fix>
</trkpt>
<trkpt lat="40.0713751" lon="-105.2297887">
  <ele>1583.0</ele>
  <time>2026-08-28T17:48:36Z</time>
  <course>154.7</course>
  <speed>0.0</speed>
  <fix>3d</fix>
</trkpt>
<trkpt lat="40.0713749" lon="-105.2297888">
  <ele>1583.01</ele>
  <time>2026-08-28T17:48:36Z</time>
  <course>245.41</course>
  <speed>0.022360679774997897</speed>
  <fix>3d</fix>
</trkpt>
<trkpt lat="40.0713751" lon="-105.2297887">
  <ele>1583.0</ele>
  <time>2026-08-28T17:48:36Z</time>
  <course>154.7</course>
  <speed>0.0</speed>
  <fix>3d</fix>
</trkpt>
<trkpt lat="40.0713749" lon="-105.2297888">
  <ele>1583.0</ele>
  <time>2026-08-28T17:48:36Z</time>
  <course>245.41</course>
  <speed>0.022360679774997897</speed>
  <fix>3d</fix>
</trkpt>
<trkpt lat="40.0713751" lon="-105.2297887">
  <ele>1583.0</ele>
  <time>2026-08-28T17:48:36Z</time>
  <course>154.82</course>
  <speed>0.0</speed>
  <fix>3d</fix>
</trkpt>
<trkpt lat="40.0713749" lon="-105.2297888">
  <ele>1583.0</ele>
  <time>2026-08-28T17:48:36Z</time>
  <course>245.41</course>
  <speed>0.022360679774997897</speed>
  <fix>3d</fix>
</trkpt>
<trkpt lat="40.0713751" lon="-105.2297887">
  <ele>1583.0</ele>
  <time>2026-08-28T17:48:36Z</time>
  <course>154.93</course>
  <speed>0.0</speed>
  <fix>3d</fix>
</trkpt>
<trkpt lat="40.0713749" lon="-105.2297888">
  <ele>1583.0</ele>
  <time>2026-08-28T17:48:36Z</time>
  <course>245.41</course>
  <speed>0.022360679774997897</speed>
  <fix>3d</fix>
</trkpt>
<trkpt lat="40.0713751" lon="-105.2297887">
  <ele>1583.0</ele>
  <time>2026-08-28T17:48:36Z</time>
  <course>154.93</course>
  <speed>0.0</speed>
  <fix>3d</fix>
</trkpt>
<trkpt lat="40.0713749" lon="-105.2297888">
  <ele>1583.0</ele>
  <time>2026-08-28T17:48:36Z</time>
  <course>245.41</course>
  <speed>0.022360679774997897</speed>
  <fix>3d</fix>
</trkpt>
<trkpt lat="40.0713751" lon="-105.2297887">
  <ele>1583.0</ele>
  <time>2026-08-28T17:48:36Z</time>
  <course>155.03</course>
  <speed>0.0</speed>
  <fix>3d</fix>
</trkpt>
<trkpt lat="40.0713749" lon="-105.2297888">
  <ele>1583.0</ele>
  <time>2026-08-28T17:48:36Z</time>
  <course>245.41</course>
  <speed>0.022360679774997897</speed>
  <fix>3d</fix>
</trkpt>
<trkpt lat="40.0713751" lon="-105.2297887">
  <ele>1583.0</ele>
  <time>2026-08-28T17:48:36Z</time>
  <course>155.03</course>
  <speed>0.0</speed>
  <fix>3d</fix>
</trkpt>
<trkpt lat="40.0713749" lon="-105.2297888">
  <ele>1582.99</ele>
  <time>2026-08-28T17:48:36Z</time>
  <course>245.41</course>
  <speed>0.022360679774997897</speed>
  <fix>3d</fix>
</trkpt>
<trkpt lat="40.0713751" lon="-105.2297887">
  <ele>1583.0</ele>
  <time>2026-08-28T17:48:36Z</time>
  <course>155.13</course>
  <speed>0.0</speed>
  <fix>3d</fix>
</trkpt>
<trkpt lat="40.0713749" lon="-105.2297888">
  <ele>1582.99</ele>
  <time>2026-08-28T17:48:36Z</time>
  <course>245.4</course>
  <speed>0.022360679774997897</speed>
  <fix>3d</fix>
</trkpt>
<trkpt lat="40.0713751" lon="-105.2297887">
  <ele>1583.0</ele>
  <time>2026-08-28T17:48:36Z</time>
  <course>155.13</course>
  <speed>0.0</speed>
  <fix>3d</fix>
</trkpt>
<trkpt lat="40.0713749" lon="-105.2297888">
  <ele>1582.98</ele>
  <time>2026-08-28T17:48:36Z</time>
  <course>245.4</course>
  <speed>0.022360679774997897</speed>
  <fix>3d</fix>
</trkpt>
<trkpt lat="40.0713751" lon="-105.2297887">
  <ele>1583.0</ele>
  <time>2026-08-28T17:48:36Z</time>
  <course>155.21</course>
  <speed>0.0</speed>
  <fix>3d</fix>
</trkpt>
<trkpt lat="40.0713749" lon="-105.2297888">
  <ele>1582.97</ele>
  <time>2026-08-28T17:48:36Z</time>
  <course>245.4</course>
  <speed>0.022360679774997897</speed>
  <fix>3d</fix>
</trkpt>
<trkpt lat="40.0713751" lon="-105.2297887">
  <ele>1583.0</ele>
  <time>2026-08-28T17:48:36Z</time>
  <course>155.21</course>
  <speed>0.0</speed>
  <fix>3d</fix>
</trkpt>
<trkpt lat="40.0713749" lon="-105.2297888">
  <ele>1582.97</ele>
  <time>2026-08-28T17:48:36Z</time>
  <course>245.4</course>
  <speed>0.022360679774997897</speed>
  <fix>3d</fix>
</trkpt>
<trkpt lat="40.0713751" lon="-105.2297887">
  <ele>1583.0</ele>
  <time>2026-08-28T17:48:36Z</time>
  <course>155.28</course>
  <speed>0.0</speed>
  <fix>3d</fix>
</trkpt>
<trkpt lat="40.0713749" lon="-105.2297888">
  <ele>1582.96</ele>
  <time>2026-08-28T17:48:36Z</time>
  <course>245.4</course>
  <speed>0.022360679774997897</speed>
  <fix>3d</fix>
</trkpt>
<trkpt lat="40.0713751" lon="-105.2297887">
  <ele>1583.0</ele>
  <time>2026-08-28T17:48:36Z</time>
  <course>155.28</course>
  <speed>0.0</speed>
  <fix>3d</fix>
</trkpt>
<trkpt lat="40.0713749" lon="-105.2297888">
  <ele>1582.95</ele>
  <time>2026-08-28T17:48:36Z</time>
  <course>245.4</course>
  <speed>0.022360679774997897</speed>
  <fix>3d</fix>
</trkpt>
<trkpt lat="40.0713751" lon="-105.2297887">
  <ele>1583.0</ele>
  <time>2026-08-28T17:48:36Z</time>
  <course>155.35</course>
  <speed>0.0</speed>
  <fix>3d</fix>
</trkpt>
<trkpt lat="40.0713749" lon="-105.2297888">
  <ele>1582.95</ele>
  <time>2026-08-28T17:48:36Z</time>
  <course>245.4</course>
  <speed>0.022360679774997897</speed>
  <fix>3d</fix>
</trkpt>
<trkpt lat="40.0713751" lon="-105.2297887">
  <ele>1583.0</ele>
  <time>2026-08-28T17:48:36Z</time>
  <course>155.35</course>
  <speed>0.0</speed>
  <fix>3d</fix>
</trkpt>
<trkpt lat="40.0713749" lon="-105.2297888">
  <ele>1582.95</ele>
  <time>2026-08-28T17:48:36Z</time>
  <course>245.39</course>
  <speed>0.022360679774997897</speed>
  <fix>3d</fix>
</trkpt>
<trkpt lat="40.0713751" lon="-105.2297887">
  <ele>1583.0</ele>
  <time>2026-08-28T17:48:36Z</time>
  <course>155.41</course>
  <speed>0.0</speed>
  <fix>3d</fix>
</trkpt>
<trkpt lat="40.0713749" lon="-105.2297888">
  <ele>1582.95</ele>
  <time>2026-08-28T17:48:36Z</time>
  <course>245.39</course>
  <speed>0.02</speed>
  <fix>3d</fix>
</trkpt>
<trkpt lat="40.0713751" lon="-105.2297887">
  <ele>1583.0</ele>
  <time>2026-08-28T17:48:36Z</time>
  <course>155.41</course>
  <speed>0.0</speed>
  <fix>3d</fix>
</trkpt>
<trkpt lat="40.0713749" lon="-105.2297888">
  <ele>1582.95</ele>
  <time>2026-08-28T17:48:36Z</time>
  <course>245.39</course>
  <speed>0.022360679774997897</speed>
  <fix>3d</fix>
</trkpt>
<trkpt lat="40.0713751" lon="-105.2297887">
  <ele>1583.0</ele>
  <time>2026-08-28T17:48:36Z</time>
  <course>155.41</course>
  <speed>0.0</speed>
  <fix>3d</fix>
</trkpt>
<trkpt lat="40.0713749" lon="-105.2297888">
  <ele>1582.95</ele>
  <time>2026-08-28T17:48:36Z</time>
  <course>245.39</course>
  <speed>0.02</speed>
  <fix>3d</fix>
</trkpt>
<trkpt lat="40.0713751" lon="-105.2297887">
  <ele>1583.0</ele>
  <time>2026-08-28T17:48:36Z</time>
  <course>155.47</course>
  <speed>0.0</speed>
  <fix>3d</fix>
</trkpt>
<trkpt lat="40.0713749" lon="-105.2297888">
  <ele>1582.95</ele>
  <time>2026-08-28T17:48:36Z</time>
  <course>245.39</course>
  <speed>0.022360679774997897</speed>
  <fix>3d</fix>
</trkpt>
<trkpt lat="40.0713751" lon="-105.2297887">
  <ele>1583.0</ele>
  <time>2026-08-28T17:48:36Z</time>
  <course>155.47</course>
  <speed>0.0</speed>
  <fix>3d</fix>
</trkpt>
<trkpt lat="40.0713749" lon="-105.2297888">
  <ele>1582.95</ele>
  <time>2026-08-28T17:48:36Z</time>
  <course>245.39</course>
  <speed>0.02</speed>
  <fix>3d</fix>
</trkpt>
<trkpt lat="40.0713751" lon="-105.2297887">
  <ele>1583.0</ele>
  <time>2026-08-28T17:48:36Z</time>
  <course>155.52</course>
  <speed>0.0</speed>
  <fix>3d</fix>
</trkpt>
<trkpt lat="40.0713749" lon="-105.2297888">
  <ele>1582.95</ele>
  <time>2026-08-28T17:48:36Z</time>
  <course>245.39</course>
  <speed>0.02</speed>
  <fix>3d</fix>
</trkpt>
<trkpt lat="40.0713751" lon="-105.2297887">
  <ele>1583.0</ele>
  <time>2026-08-28T17:48:36Z</time>
  <course>155.52</course>
  <speed>0.0</speed>
  <fix>3d</fix>
</trkpt>
<trkpt lat="40.0713749" lon="-105.2297888">
  <ele>1582.95</ele>
  <time>2026-08-28T17:48:36Z</time>
  <course>245.39</course>
  <speed>0.02</speed>
  <fix>3d</fix>
</trkpt>
<trkpt lat="40.0713751" lon="-105.2297887">
  <ele>1583.0</ele>
  <time>2026-08-28T17:48:36Z</time>
  <course>155.56</course>
  <speed>0.0</speed>
  <fix>3d</fix>
</trkpt>
<trkpt lat="39.655741" lon="-104.1383097">
  <ele>1566.58</ele>
  <time>2026-08-28T17:48:36Z</time>
  <course>0.0</course>
  <speed>0.0</speed>
  <fix>3d</fix>
</trkpt>
<trkpt lat="40.0713749" lon="-105.229789">
  <ele>1583.0</ele>
  <time>2026-08-28T17:48:36Z</time>
  <course>0.0</course>
  <speed>0.0</speed>
  <fix>3d</fix>
</trkpt>
<trkpt lat="40.0713749" lon="-105.229789">
  <ele>1583.0</ele>
  <time>2026-08-28T17:48:36Z</time>
  <course>238.36</course>
  <speed>0.0</speed>
  <fix>3d</fix>
</trkpt>
<trkpt lat="40.0713749" lon="-105.229789">
  <ele>1583.0</ele>
  <time>2026-08-28T17:48:36Z</time>
  <course>0.0</course>
  <speed>0.0</speed>
  <fix>3d</fix>
</trkpt>
<trkpt lat="40.0713749" lon="-105.229789">
  <ele>1583.0</ele>
  <time>2026-08-28T17:48:36Z</time>
  <course>238.44</course>
  <speed>0.0</speed>
  <fix>3d</fix>
</trkpt>
<trkpt lat="40.0713749" lon="-105.229789">
  <ele>1583.0</ele>
  <time>2026-08-28T17:48:36Z</time>
  <course>0.0</course>
  <speed>0.0</speed>
  <fix>3d</fix>
</trkpt>
<trkpt lat="40.0713749" lon="-105.229789">
  <ele>1583.0</ele>
  <time>2026-08-28T17:48:36Z</time>
  <course>238.64</course>
  <speed>0.0</speed>
  <fix>3d</fix>
</trkpt>
<trkpt lat="40.0713749" lon="-105.229789">
  <ele>1583.0</ele>
  <time>2026-08-28T17:48:36Z</time>
  <course>0.0</course>
  <speed>0.0</speed>
  <fix>3d</fix>
</trkpt>
<trkpt lat="40.0713749" lon="-105.229789">
  <ele>1583.0</ele>
  <time>2026-08-28T17:48:36Z</time>
  <course>238.93</course>
  <speed>0.0</speed>
  <fix>3d</fix>
</trkpt>
<trkpt lat="40.0713749" lon="-105.229789">
  <ele>1583.0</ele>
  <time>2026-08-28T17:48:36Z</time>
  <course>0.0</course>
  <speed>0.0</speed>
  <fix>3d</fix>
</trkpt>
<trkpt lat="40.0713749" lon="-105.229789">
  <ele>1583.0</ele>
  <time>2026-08-28T17:48:36Z</time>
  <course>239.26</course>
  <speed>0.0</speed>
  <fix>3d</fix>
</trkpt>
<trkpt lat="40.0713749" lon="-105.229789">
  <ele>1583.0</ele>
  <time>2026-08-28T17:48:36Z</time>
  <course>0.0</course>
  <speed>0.0</speed>
  <fix>3d</fix>
</trkpt>
<trkpt lat="40.0713749" lon="-105.229789">
  <ele>1583.0</ele>
  <time>2026-08-28T17:48:36Z</time>
  <course>239.61</course>
  <speed>0.0</speed>
  <fix>3d</fix>
</trkpt>
<trkpt lat="40.0713749" lon="-105.229789">
  <ele>1583.0</ele>
  <time>2026-08-28T17:48:36Z</time>
  <course>0.0</course>
  <speed>0.0</speed>
  <fix>3d</fix>
</trkpt>
<trkpt lat="40.0713749" lon="-105.229789">
  <ele>1583.0</ele>
  <time>2026-08-28T17:48:36Z</time>
  <course>239.96</course>
  <speed>0.0</speed>
  <fix>3d</fix>
</trkpt>
<trkpt lat="40.0713749" lon="-105.229789">
  <ele>1583.0</ele>
  <time>2026-08-28T17:48:36Z</time>
  <course>0.0</course>
  <speed>0.0</speed>
  <fix>3d</fix>
</trkpt>
<trkpt lat="40.0713749" lon="-105.229789">
  <ele>1583.0</ele>
  <time>2026-08-28T17:48:36Z</time>
  <course>240.29</course>
  <speed>0.0</speed>
  <fix>3d</fix>
</trkpt>
<trkpt lat="40.0713749" lon="-105.229789">
  <ele>1583.0</ele>
  <time>2026-08-28T17:48:36Z</time>
  <course>0.0</course>
  <speed>0.0</speed>
  <fix>3d</fix>
</trkpt>
<trkpt lat="40.0713749" lon="-105.229789">
  <ele>1583.0</ele>
  <time>2026-08-28T17:48:36Z</time>
  <course>240.61</course>
  <speed>0.0</speed>
  <fix>3d</fix>
</trkpt>
<trkpt lat="40.0713749" lon="-105.229789">
  <ele>1583.0</ele>
  <time>2026-08-28T17:48:36Z</time>
  <course>0.0</course>
  <speed>0.0</speed>
  <fix>3d</fix>
</trkpt>
<trkpt lat="40.0713749" lon="-105.229789">
  <ele>1583.0</ele>
  <time>2026-08-28T17:48:36Z</time>
  <course>240.92</course>
  <speed>0.0</speed>
  <fix>3d</fix>
</trkpt>
<trkpt lat="40.0713749" lon="-105.229789">
  <ele>1583.0</ele>
  <time>2026-08-28T17:48:36Z</time>
  <course>0.0</course>
  <speed>0.0</speed>
  <fix>3d</fix>
</trkpt>
<trkpt lat="40.0713749" lon="-105.229789">
  <ele>1583.0</ele>
  <time>2026-08-28T17:48:36Z</time>
  <course>241.21</course>
  <speed>0.0</speed>
  <fix>3d</fix>
</trkpt>
<trkpt lat="40.0713749" lon="-105.229789">
  <ele>1583.0</ele>
  <time>2026-08-28T17:48:36Z</time>
  <course>0.0</course>
  <speed>0.0</speed>
  <fix>3d</fix>
</trkpt>
<trkpt lat="40.0713749" lon="-105.229789">
  <ele>1583.0</ele>
  <time>2026-08-28T17:48:36Z</time>
  <course>241.49</course>
  <speed>0.0</speed>
  <fix>3d</fix>
</trkpt>
<trkpt lat="40.0713749" lon="-105.229789">
  <ele>1583.0</ele>
  <time>2026-08-28T17:48:36Z</time>
  <course>0.0</course>
  <speed>0.0</speed>
  <fix>3d</fix>
</trkpt>
<trkpt lat="40.0713749" lon="-105.229789">
  <ele>1583.0</ele>
  <time>2026-08-28T17:48:36Z</time>
  <course>241.77</course>
  <speed>0.0</speed>
  <fix>3d</fix>
</trkpt>
<trkpt lat="40.0713749" lon="-105.229789">
  <ele>1583.0</ele>
  <time>2026-08-28T17:48:36Z</time>
  <course>0.0</course>
  <speed>0.0</speed>
  <fix>3d</fix>
</trkpt>
<trkpt lat="40.0713749" lon="-105.229789">
  <ele>1583.0</ele>
  <time>2026-08-28T17:48:36Z</time>
  <course>242.03</course>
  <speed>0.0</speed>
  <fix>3d</fix>
</trkpt>
<trkpt lat="40.0713749" lon="-105.229789">
  <ele>1583.0</ele>
  <time>2026-08-28T17:48:36Z</time>
  <course>0.0</course>
  <speed>0.0</speed>
  <fix>3d</fix>
</trkpt>
<trkpt lat="40.0713749" lon="-105.229789">
  <ele>1583.0</ele>
  <time>2026-08-28T17:48:36Z</time>
  <course>242.29</course>
  <speed>0.0</speed>
  <fix>3d</fix>
</trkpt>
<trkpt lat="40.0713749" lon="-105.229789">
  <ele>1583.0</ele>
  <time>2026-08-28T17:48:36Z</time>
  <course>0.0</course>
  <speed>0.0</speed>
  <fix>3d</fix>
</trkpt>
<trkpt lat="40.0713749" lon="-105.229789">
  <ele>1583.0</ele>
  <time>2026-08-28T17:48:36Z</time>
  <course>242.54</course>
  <speed>0.0</speed>
  <fix>3d</fix>
</trkpt>
<trkpt lat="40.0713749" lon="-105.229789">
  <ele>1583.0</ele>
  <time>2026-08-28T17:48:36Z</time>
  <course>0.0</course>
  <speed>0.0</speed>
  <fix>3d</fix>
</trkpt>
<trkpt lat="40.0713749" lon="-105.229789">
  <ele>1583.0</ele>
  <time>2026-08-28T17:48:36Z</time>
  <course>242.79</course>
  <speed>0.0</speed>
  <fix>3d</fix>
</trkpt>
<trkpt lat="40.0713749" lon="-105.229789">
  <ele>1583.0</ele>
  <time>2026-08-28T17:48:36Z</time>
  <course>0.0</course>
  <speed>0.0</speed>
  <fix>3d</fix>
</trkpt>
<trkpt lat="40.0713749" lon="-105.229789">
  <ele>1583.0</ele>
  <time>2026-08-28T17:48:36Z</time>
  <course>243.02</course>
  <speed>0.0</speed>
  <fix>3d</fix>
</trkpt>
<trkpt lat="40.0713749" lon="-105.229789">
  <ele>1583.0</ele>
  <time>2026-08-28T17:48:36Z</time>
  <course>0.0</course>
  <speed>0.0</speed>
  <fix>3d</fix>
</trkpt>
<trkpt lat="40.0713749" lon="-105.229789">
  <ele>1583.0</ele>
  <time>2026-08-28T17:48:36Z</time>
  <course>243.25</course>
  <speed>0.0</speed>
  <fix>3d</fix>
</trkpt>
<trkpt lat="40.0713749" lon="-105.229789">
  <ele>1583.0</ele>
  <time>2026-08-28T17:48:36Z</time>
  <course>0.0</course>
  <speed>0.0</speed>
  <fix>3d</fix>
</trkpt>
<trkpt lat="40.0713749" lon="-105.229789">
  <ele>1583.0</ele>
  <time>2026-08-28T17:48:36Z</time>
  <course>243.47</course>
  <speed>0.0</speed>
  <fix>3d</fix>
</trkpt>
<trkpt lat="40.0713749" lon="-105.229789">
  <ele>1583.0</ele>
  <time>2026-08-28T17:48:36Z</time>
  <course>0.0</course>
  <speed>0.0</speed>
  <fix>3d</fix>
</trkpt>
<trkpt lat="40.0713749" lon="-105.229789">
  <ele>1583.0</ele>
  <time>2026-08-28T17:48:36Z</time>
  <course>243.68</course>
  <speed>0.0</speed>
  <fix>3d</fix>
</trkpt>
<trkpt lat="40.0713749" lon="-105.229789">
  <ele>1583.0</ele>
  <time>2026-08-28T17:48:36Z</time>
  <course>0.0</course>
  <speed>0.0</speed>
  <fix>3d</fix>
</trkpt>
<trkpt lat="40.0713749" lon="-105.229789">
  <ele>1583.0</ele>
  <time>2026-08-28T17:48:36Z</time>
  <course>243.89</course>
  <speed>0.0</speed>
  <fix>3d</fix>
</trkpt>
<trkpt lat="40.0713749" lon="-105.229789">
  <ele>1583.0</ele>
  <time>2026-08-28T17:48:36Z</time>
  <course>0.0</course>
  <speed>0.0</speed>
  <fix>3d</fix>
</trkpt>
<trkpt lat="40.0713749" lon="-105.229789">
  <ele>1583.0</ele>
  <time>2026-08-28T17:48:36Z</time>
  <course>244.09</course>
  <speed>0.0</speed>
  <fix>3d</fix>
</trkpt>
<trkpt lat="40.0713749" lon="-105.229789">
  <ele>1583.0</ele>
  <time>2026-08-28T17:48:36Z</time>
  <course>0.0</course>
  <speed>0.0</speed>
  <fix>3d</fix>
</trkpt>
<trkpt lat="40.0713749" lon="-105.229789">
  <ele>1583.0</ele>
  <time>2026-08-28T17:48:36Z</time>
  <course>244.28</course>
  <speed>0.0</speed>
  <fix>3d</fix>
</trkpt>
<trkpt lat="40.0713749" lon="-105.229789">
  <ele>1583.0</ele>
  <time>2026-08-28T17:48:36Z</time>
  <course>0.0</course>
  <speed>0.0</speed>
  <fix>3d</fix>
</trkpt>
<trkpt lat="40.0713749" lon="-105.229789">
  <ele>1583.0</ele>
  <time>2026-08-28T17:48:36Z</time>
  <course>244.46</course>
  <speed>0.0</speed>
  <fix>3d</fix>
</trkpt>
<trkpt lat="40.0713749" lon="-105.229789">
  <ele>1583.0</ele>
  <time>2026-08-28T17:48:36Z</time>
  <course>0.0</course>
  <speed>0.0</speed>
  <fix>3d</fix>
</trkpt>
<trkpt lat="40.0713749" lon="-105.229789">
  <ele>1583.0</ele>
  <time>2026-08-28T17:48:36Z</time>
  <course>244.64</course>
  <speed>0.0</speed>
  <fix>3d</fix>
</trkpt>
<trkpt lat="40.0713749" lon="-105.229789">
  <ele>1583.0</ele>
  <time>2026-08-28T17:48:36Z</time>
  <course>0.0</course>
  <speed>0.0</speed>
  <fix>3d</fix>
</trkpt>
<trkpt lat="40.0713749" lon="-105.229789">
  <ele>1583.0</ele>
  <time>2026-08-28T17:48:36Z</time>
  <course>244.81</course>
  <speed>0.0</speed>
  <fix>3d</fix>
</trkpt>
<trkpt lat="40.0713749" lon="-105.229789">
  <ele>1583.0</ele>
  <time>2026-08-28T17:48:36Z</time>
  <course>0.0</course>
  <speed>0.0</speed>
  <fix>3d</fix>
</trkpt>
<trkpt lat="40.0713749" lon="-105.229789">
  <ele>1583.0</ele>
  <time>2026-08-28T17:48:36Z</time>
  <course>244.97</course>
  <speed>0.0</speed>
  <fix>3d</fix>
</trkpt>
<trkpt lat="40.0713749" lon="-105.229789">
  <ele>1583.0</ele>
  <time>2026-08-28T17:48:36Z</time>
  <course>0.0</course>
  <speed>0.0</speed>
  <fix>3d</fix>
</trkpt>
<trkpt lat="40.0713749" lon="-105.229789">
  <ele>1583.0</ele>
  <time>2026-08-28T17:48:36Z</time>
  <course>245.13</course>
  <speed>0.0</speed>
  <fix>3d</fix>
</trkpt>
<trkpt lat="40.0713749" lon="-105.229789">
  <ele>1583.0</ele>
  <time>2026-08-28T17:48:36Z</time>
  <course>0.0</course>
  <speed>0.0</speed>
  <fix>3d</fix>
</trkpt>
<trkpt lat="40.0713749" lon="-105.229789">
  <ele>1583.0</ele>
  <time>2026-08-28T17:48:36Z</time>
  <course>245.29</course>
  <speed>0.0</speed>
  <fix>3d</fix>
</trkpt>
<trkpt lat="40.0713749" lon="-105.229789">
  <ele>1583.0</ele>
  <time>2026-08-28T17:48:36Z</time>
  <course>0.0</course>
  <speed>0.0</speed>
  <fix>3d</fix>
</trkpt>
<trkpt lat="40.0713749" lon="-105.229789">
  <ele>1583.0</ele>
  <time>2026-08-28T17:48:36Z</time>
  <course>245.43</course>
  <speed>0.0</speed>
  <fix>3d</fix>
</trkpt>
<trkpt lat="40.0713749" lon="-105.229789">
  <ele>1583.0</ele>
  <time>2026-08-28T17:48:36Z</time>
  <course>0.0</course>
  <speed>0.0</speed>
  <fix>3d</fix>
</trkpt>
<trkpt lat="40.0713749" lon="-105.229789">
  <ele>1583.0</ele>
  <time>2026-08-28T17:48:36Z</time>
  <course>245.57</course>
  <speed>0.0</speed>
  <fix>3d</fix>
</trkpt>
<trkpt lat="40.0713749" lon="-105.229789">
  <ele>1583.0</ele>
  <time>2026-08-28T17:48:36Z</time>
  <course>0.0</course>
  <speed>0.0</speed>
  <fix>3d</fix>
</trkpt>
<trkpt lat="40.0713749" lon="-105.229789">
  <ele>1583.0</ele>
  <time>2026-08-28T17:48:36Z</time>
  <course>245.71</course>
  <speed>0.0</speed>
  <fix>3d</fix>
</trkpt>
<trkpt lat="40.0713749" lon="-105.229789">
  <ele>1583.0</ele>
  <time>2026-08-28T17:48:36Z</time>
  <course>0.0</course>
  <speed>0.0</speed>
  <fix>3d</fix>
</trkpt>
<trkpt lat="40.0713749" lon="-105.229789">
  <ele>1583.0</ele>
  <time>2026-08-28T17:48:36Z</time>
  <course>245.84</course>
  <speed>0.0</speed>
  <fix>3d</fix>
</trkpt>
<trkpt lat="40.0713749" lon="-105.229789">
  <ele>1583.0</ele>
  <time>2026-08-28T17:48:36Z</time>
  <course>0.0</course>
  <speed>0.0</speed>
  <fix>3d</fix>
</trkpt>
<trkpt lat="40.0713749" lon="-105.229789">
  <ele>1583.0</ele>
  <time>2026-08-28T17:48:36Z</time>
  <course>245.96</course>
  <speed>0.0</speed>
  <fix>3d</fix>
</trkpt>
<trkpt lat="40.0713749" lon="-105.229789">
  <ele>1583.0</ele>
  <time>2026-08-28T17:48:36Z</time>
  <course>0.0</course>
  <speed>0.0</speed>
  <fix>3d</fix>
</trkpt>
<trkpt lat="40.0713749" lon="-105.229789">
  <ele>1583.0</ele>
  <time>2026-08-28T17:48:36Z</time>
  <course>246.08</course>
  <speed>0.0</speed>
  <fix>3d</fix>
</trkpt>
<trkpt lat="40.0713749" lon="-105.229789">
  <ele>1583.0</ele>
  <time>2026-08-28T17:48:36Z</time>
  <course>0.0</course>
  <speed>0.0</speed>
  <fix>3d</fix>
</trkpt>
<trkpt lat="40.0713749" lon="-105.229789">
  <ele>1583.0</ele>
  <time>2026-08-28T17:48:36Z</time>
  <course>246.19</course>
  <speed>0.0</speed>
  <fix>3d</fix>
</trkpt>
<trkpt lat="40.0713749" lon="-105.229789">
  <ele>1583.0</ele>
  <time>2026-08-28T17:48:36Z</time>
  <course>0.0</course>
  <speed>0.0</speed>
  <fix>3d</fix>
</trkpt>
<trkpt lat="40.0713749" lon="-105.229789">
  <ele>1583.0</ele>
  <time>2026-08-28T17:48:36Z</time>
  <course>246.3</course>
  <speed>0.0</speed>
  <fix>3d</fix>
</trkpt>
<trkpt lat="40.0713749" lon="-105.229789">
  <ele>1583.0</ele>
  <time>2026-08-28T17:48:36Z</time>
  <course>0.0</course>
  <speed>0.0</speed>
  <fix>3d</fix>
</trkpt>
<trkpt lat="40.0713749" lon="-105.229789">
  <ele>1583.0</ele>
  <time>2026-08-28T17:48:36Z</time>
  <course>246.41</course>
  <speed>0.0</speed>
  <fix>3d</fix>
</trkpt>
<trkpt lat="40.0713749" lon="-105.229789">
  <ele>1583.0</ele>
  <time>2026-08-28T17:48:36Z</time>
  <course>0.0</course>
  <speed>0.0</speed>
  <fix>3d</fix>
</trkpt>
<trkpt lat="40.0713749" lon="-105.229789">
  <ele>1583.0</ele>
  <time>2026-08-28T17:48:36Z</time>
  <course>246.51</course>
  <speed>0.0</speed>
  <fix>3d</fix>
</trkpt>
<trkpt lat="40.0713749" lon="-105.229789">
  <ele>1583.0</ele>
  <time>2026-08-28T17:48:36Z</time>
  <course>0.0</course>
  <speed>0.0</speed>
  <fix>3d</fix>
</trkpt>
<trkpt lat="40.0713749" lon="-105.229789">
  <ele>1583.0</ele>
  <time>2026-08-28T17:48:37Z</time>
  <course>246.6</course>
  <speed>0.0</speed>
  <fix>3d</fix>
</trkpt>
<trkpt lat="40.0713749" lon="-105.229789">
  <ele>1583.0</ele>
  <time>2026-08-28T17:48:37Z</time>
  <course>0.0</course>
  <speed>0.0</speed>
  <fix>3d</fix>
</trkpt>
<trkpt lat="40.0713749" lon="-105.229789">
  <ele>1583.0</ele>
  <time>2026-08-28T17:48:37Z</time>
  <course>246.7</course>
  <speed>0.0</speed>
  <fix>3d</fix>
</trkpt>
<trkpt lat="40.0713749" lon="-105.229789">
  <ele>1583.0</ele>
  <time>2026-08-28T17:48:37Z</time>
  <course>0.0</course>
  <speed>0.0</speed>
  <fix>3d</fix>
</trkpt>
<trkpt lat="40.0713749" lon="-105.229789">
  <ele>1583.0</ele>
  <time>2026-08-28T17:48:37Z</time>
  <course>246.78</course>
  <speed>0.0</speed>
  <fix>3d</fix>
</trkpt>
<trkpt lat="40.0713749" lon="-105.229789">
  <ele>1583.0</ele>
  <time>2026-08-28T17:48:37Z</time>
  <course>0.0</course>
  <speed>0.0</speed>
  <fix>3d</fix>
</trkpt>
<trkpt lat="40.0713749" lon="-105.229789">
  <ele>1583.0</ele>
  <time>2026-08-28T17:48:37Z</time>
  <course>246.87</course>
  <speed>0.0</speed>
  <fix>3d</fix>
</trkpt>
<trkpt lat="40.0713749" lon="-105.229789">
  <ele>1583.0</ele>
  <time>2026-08-28T17:48:37Z</time>
  <course>0.0</course>
  <speed>0.0</speed>
  <fix>3d</fix>
</trkpt>
<trkpt lat="40.0713749" lon="-105.229789">
  <ele>1583.0</ele>
  <time>2026-08-28T17:48:37Z</time>
  <course>246.95</course>
  <speed>0.0</speed>
  <fix>3d</fix>
</trkpt>
<trkpt lat="40.0713749" lon="-105.229789">
  <ele>1583.0</ele>
  <time>2026-08-28T17:48:37Z</time>
  <course>0.0</course>
  <speed>0.0</speed>
  <fix>3d</fix>
</trkpt>
<trkpt lat="40.0713749" lon="-105.229789">
  <ele>1583.0</ele>
  <time>2026-08-28T17:48:37Z</time>
  <course>247.02</course>
  <speed>0.0</speed>
  <fix>3d</fix>
</trkpt>
<trkpt lat="40.0713749" lon="-105.229789">
  <ele>1583.0</ele>
  <time>2026-08-28T17:48:37Z</time>
  <course>0.0</course>
  <speed>0.0</speed>
  <fix>3d</fix>
</trkpt>
<trkpt lat="40.0713749" lon="-105.229789">
  <ele>1583.0</ele>
  <time>2026-08-28T17:48:37Z</time>
  <course>247.1</course>
  <speed>0.0</speed>
  <fix>3d</fix>
</trkpt>
<trkpt lat="40.0713749" lon="-105.229789">
  <ele>1583.0</ele>
  <time>2026-08-28T17:48:37Z</time>
  <course>0.0</course>
  <speed>0.0</speed>
  <fix>3d</fix>
</trkpt>
<trkpt lat="40.0713749" lon="-105.229789">
  <ele>1583.0</ele>
  <time>2026-08-28T17:48:37Z</time>
  <course>247.17</course>
  <speed>0.0</speed>
  <fix>3d</fix>
</trkpt>
<trkpt lat="40.0713749" lon="-105.229789">
  <ele>1583.0</ele>
  <time>2026-08-28T17:48:37Z</time>
  <course>0.0</course>
  <speed>0.0</speed>
  <fix>3d</fix>
</trkpt>
<trkpt lat="40.0713749" lon="-105.229789">
  <ele>1583.0</ele>
  <time>2026-08-28T17:48:37Z</time>
  <course>247.24</course>
  <speed>0.0</speed>
  <fix>3d</fix>
</trkpt>
<trkpt lat="40.0713749" lon="-105.229789">
  <ele>1583.0</ele>
  <time>2026-08-28T17:48:37Z</time>
  <course>0.0</course>
  <speed>0.0</speed>
  <fix>3d</fix>
</trkpt>
<trkpt lat="40.0713749" lon="-105.229789">
  <ele>1583.0</ele>
  <time>2026-08-28T17:48:37Z</time>
  <course>247.3</course>
  <speed>0.0</speed>
  <fix>3d</fix>
</trkpt>
<trkpt lat="40.0713749" lon="-105.229789">
  <ele>1583.0</ele>
  <time>2026-08-28T17:48:37Z</time>
  <course>0.0</course>
  <speed>0.0</speed>
  <fix>3d</fix>
</trkpt>
<trkpt lat="40.0713749" lon="-105.229789">
  <ele>1583.0</ele>
  <time>2026-08-28T17:48:37Z</time>
  <course>247.36</course>
  <speed>0.0</speed>
  <fix>3d</fix>
</trkpt>
<trkpt lat="40.0713749" lon="-105.229789">
  <ele>1583.0</ele>
  <time>2026-08-28T17:48:37Z</time>
  <course>0.0</course>
  <speed>0.0</speed>
  <fix>3d</fix>
</trkpt>
<trkpt lat="40.0713749" lon="-105.229789">
  <ele>1583.0</ele>
  <time>2026-08-28T17:48:37Z</time>
  <course>247.42</course>
  <speed>0.0</speed>
  <fix>3d</fix>
</trkpt>
<trkpt lat="40.0713749" lon="-105.229789">
  <ele>1583.0</ele>
  <time>2026-08-28T17:48:37Z</time>
  <course>0.0</course>
  <speed>0.0</speed>
  <fix>3d</fix>
</trkpt>
<trkpt lat="40.0713749" lon="-105.229789">
  <ele>1583.0</ele>
  <time>2026-08-28T17:48:37Z</time>
  <course>247.47</course>
  <speed>0.0</speed>
  <fix>3d</fix>
</trkpt>
<trkpt lat="40.0713749" lon="-105.229789">
  <ele>1583.0</ele>
  <time>2026-08-28T17:48:37Z</time>
  <course>0.0</course>
  <speed>0.0</speed>
  <fix>3d</fix>
</trkpt>
<trkpt lat="40.0713749" lon="-105.229789">
  <ele>1583.0</ele>
  <time>2026-08-28T17:48:37Z</time>
  <course>247.53</course>
  <speed>0.0</speed>
  <fix>3d</fix>
</trkpt>
<trkpt lat="40.0713749" lon="-105.229789">
  <ele>1583.0</ele>
  <time>2026-08-28T17:48:37Z</time>
  <course>0.0</course>
  <speed>0.0</speed>
  <fix>3d</fix>
</trkpt>
<trkpt lat="40.0713749" lon="-105.229789">
  <ele>1583.0</ele>
  <time>2026-08-28T17:48:37Z</time>
  <course>247.58</course>
  <speed>0.0</speed>
  <fix>3d</fix>
</trkpt>
<trkpt lat="40.0713749" lon="-105.229789">
  <ele>1583.0</ele>
  <time>2026-08-28T17:48:37Z</time>
  <course>0.0</course>
  <speed>0.0</speed>
  <fix>3d</fix>
</trkpt>
<trkpt lat="40.0713749" lon="-105.229789">
  <ele>1583.0</ele>
  <time>2026-08-28T17:48:37Z</time>
  <course>247.63</course>
  <speed>0.0</speed>
  <fix>3d</fix>
</trkpt>
<trkpt lat="40.0713749" lon="-105.229789">
  <ele>1583.0</ele>
  <time>2026-08-28T17:48:37Z</time>
  <course>0.0</course>
  <speed>0.0</speed>
  <fix>3d</fix>
</trkpt>
<trkpt lat="40.0713749" lon="-105.229789">
  <ele>1583.0</ele>
  <time>2026-08-28T17:48:37Z</time>
  <course>247.67</course>
  <speed>0.0</speed>
  <fix>3d</fix>
</trkpt>
<trkpt lat="40.0713749" lon="-105.229789">
  <ele>1583.0</ele>
  <time>2026-08-28T17:48:37Z</time>
  <course>0.0</course>
  <speed>0.0</speed>
  <fix>3d</fix>
</trkpt>
<trkpt lat="40.0713749" lon="-105.229789">
  <ele>1583.0</ele>
  <time>2026-08-28T17:48:37Z</time>
  <course>247.72</course>
  <speed>0.0</speed>
  <fix>3d</fix>
</trkpt>
<trkpt lat="40.0713749" lon="-105.229789">
  <ele>1583.0</ele>
  <time>2026-08-28T17:48:37Z</time>
  <course>0.0</course>
  <speed>0.0</speed>
  <fix>3d</fix>
</trkpt>
<trkpt lat="40.0713749" lon="-105.229789">
  <ele>1583.0</ele>
  <time>2026-08-28T17:48:37Z</time>
  <course>247.76</course>
  <speed>0.0</speed>
  <fix>3d</fix>
</trkpt>
<trkpt lat="40.0713749" lon="-105.229789">
  <ele>1583.0</ele>
  <time>2026-08-28T17:48:37Z</time>
  <course>0.0</course>
  <speed>0.0</speed>
  <fix>3d</fix>
</trkpt>
<trkpt lat="40.0713749" lon="-105.229789">
  <ele>1583.0</ele>
  <time>2026-08-28T17:48:37Z</time>
  <course>247.8</course>
  <speed>0.0</speed>
  <fix>3d</fix>
</trkpt>
<trkpt lat="40.0713749" lon="-105.229789">
  <ele>1583.0</ele>
  <time>2026-08-28T17:48:37Z</time>
  <course>0.0</course>
  <speed>0.0</speed>
  <fix>3d</fix>
</trkpt>
<trkpt lat="40.0713749" lon="-105.229789">
  <ele>1583.0</ele>
  <time>2026-08-28T17:48:37Z</time>
  <course>247.83</course>
  <speed>0.0</speed>
  <fix>3d</fix>
</trkpt>
<trkpt lat="40.0713749" lon="-105.229789">
  <ele>1583.0</ele>
  <time>2026-08-28T17:48:37Z</time>
  <course>0.0</course>
  <speed>0.0</speed>
  <fix>3d</fix>
</trkpt>
<trkpt lat="40.0713749" lon="-105.229789">
  <ele>1583.0</ele>
  <time>2026-08-28T17:48:37Z</time>
  <course>247.87</course>
  <speed>0.0</speed>
  <fix>3d</fix>
</trkpt>
<trkpt lat="40.0713749" lon="-105.229789">
  <ele>1583.0</ele>
  <time>2026-08-28T17:48:37Z</time>
  <course>0.0</course>
  <speed>0.0</speed>
  <fix>3d</fix>
</trkpt>
<trkpt lat="40.0713749" lon="-105.229789">
  <ele>1583.0</ele>
  <time>2026-08-28T17:48:37Z</time>
  <course>247.9</course>
  <speed>0.0</speed>
  <fix>3d</fix>
</trkpt>
<trkpt lat="40.0713749" lon="-105.229789">
  <ele>1583.0</ele>
  <time>2026-08-28T17:48:37Z</time>
  <course>0.0</course>
  <speed>0.0</speed>
  <fix>3d</fix>
</trkpt>
<trkpt lat="40.0713749" lon="-105.229789">
  <ele>1583.0</ele>
  <time>2026-08-28T17:48:37Z</time>
  <course>247.94</course>
  <speed>0.0</speed>
  <fix>3d</fix>
</trkpt>
<trkpt lat="40.0713749" lon="-105.229789">
  <ele>1583.0</ele>
  <time>2026-08-28T17:48:37Z</time>
  <course>0.0</course>
  <speed>0.0</speed>
  <fix>3d</fix>
</trkpt>
<trkpt lat="40.0713749" lon="-105.229789">
  <ele>1583.0</ele>
  <time>2026-08-28T17:48:37Z</time>
  <course>247.97</course>
  <speed>0.0</speed>
  <fix>3d</fix>
</trkpt>
<trkpt lat="40.0713749" lon="-105.229789">
  <ele>1583.0</ele>
  <time>2026-08-28T17:48:37Z</time>
  <course>0.0</course>
  <speed>0.0</speed>
  <fix>3d</fix>
</trkpt>
<trkpt lat="40.0713749" lon="-105.229789">
  <ele>1583.0</ele>
  <time>2026-08-28T17:48:37Z</time>
  <course>248.0</course>
  <speed>0.0</speed>
  <fix>3d</fix>
</trkpt>
<trkpt lat="40.0713749" lon="-105.229789">
  <ele>1583.0</ele>
  <time>2026-08-28T17:48:37Z</time>
  <course>0.0</course>
  <speed>0.0</speed>
  <fix>3d</fix>
</trkpt>
<trkpt lat="40.0713749" lon="-105.229789">
  <ele>1583.0</ele>
  <time>2026-08-28T17:48:37Z</time>
  <course>248.02</course>
  <speed>0.0</speed>
  <fix>3d</fix>
</trkpt>
<trkpt lat="40.0713749" lon="-105.229789">
  <ele>1583.0</ele>
  <time>2026-08-28T17:48:37Z</time>
  <course>0.0</course>
  <speed>0.0</speed>
  <fix>3d</fix>
</trkpt>
<trkpt lat="40.0713749" lon="-105.229789">
  <ele>1583.0</ele>
  <time>2026-08-28T17:48:37Z</time>
  <course>248.05</course>
  <speed>0.0</speed>
  <fix>3d</fix>
</trkpt>
<trkpt lat="40.0713749" lon="-105.229789">
  <ele>1583.0</ele>
  <time>2026-08-28T17:48:37Z</time>
  <course>0.0</course>
  <speed>0.0</speed>
  <fix>3d</fix>
</trkpt>
<trkpt lat="40.0713749" lon="-105.229789">
  <ele>1583.0</ele>
  <time>2026-08-28T17:48:37Z</time>
  <course>248.08</course>
  <speed>0.0</speed>
  <fix>3d</fix>
</trkpt>
<trkpt lat="40.0713749" lon="-105.229789">
  <ele>1583.0</ele>
  <time>2026-08-28T17:48:37Z</time>
  <course>0.0</course>
  <speed>0.0</speed>
  <fix>3d</fix>
</trkpt>
<trkpt lat="40.0713749" lon="-105.229789">
  <ele>1583.0</ele>
  <time>2026-08-28T17:48:37Z</time>
  <course>248.1</course>
  <speed>0.0</speed>
  <fix>3d</fix>
</trkpt>
<trkpt lat="40.0713749" lon="-105.229789">
  <ele>1583.0</ele>
  <time>2026-08-28T17:48:37Z</time>
  <course>0.0</course>
  <speed>0.0</speed>
  <fix>3d</fix>
</trkpt>
<trkpt lat="40.0713749" lon="-105.229789">
  <ele>1583.0</ele>
  <time>2026-08-28T17:48:37Z</time>
  <course>248.12</course>
  <speed>0.0</speed>
  <fix>3d</fix>
</trkpt>
<trkpt lat="40.0713749" lon="-105.229789">
  <ele>1583.0</ele>
  <time>2026-08-28T17:48:37Z</time>
  <course>0.0</course>
  <speed>0.0</speed>
  <fix>3d</fix>
</trkpt>
<trkpt lat="40.0713749" lon="-105.229789">
  <ele>1583.0</ele>
  <time>2026-08-28T17:48:37Z</time>
  <course>248.14</course>
  <speed>0.0</speed>
  <fix>3d</fix>
</trkpt>
<trkpt lat="40.0713749" lon="-105.229789">
  <ele>1583.0</ele>
  <time>2026-08-28T17:48:37Z</time>
  <course>0.0</course>
  <speed>0.0</speed>
  <fix>3d</fix>
</trkpt>
<trkpt lat="40.0713749" lon="-105.229789">
  <ele>1583.0</ele>
  <time>2026-08-28T17:48:37Z</time>
  <course>248.16</course>
  <speed>0.0</speed>
  <fix>3d</fix>
</trkpt>
<trkpt lat="40.0713749" lon="-105.229789">
  <ele>1583.0</ele>
  <time>2026-08-28T17:48:37Z</time>
  <course>0.0</course>
  <speed>0.0</speed>
  <fix>3d</fix>
</trkpt>
<trkpt lat="40.0713749" lon="-105.229789">
  <ele>1583.0</ele>
  <time>2026-08-28T17:48:37Z</time>
  <course>248.18</course>
  <speed>0.0</speed>
  <fix>3d</fix>
</trkpt>
<trkpt lat="40.0713749" lon="-105.229789">
  <ele>1583.0</ele>
  <time>2026-08-28T17:48:37Z</time>
  <course>0.0</course>
  <speed>0.0</speed>
  <fix>3d</fix>
</trkpt>
<trkpt lat="40.0713749" lon="-105.229789">
  <ele>1583.0</ele>
  <time>2026-08-28T17:48:37Z</time>
  <course>248.2</course>
  <speed>0.0</speed>
  <fix>3d</fix>
</trkpt>
<trkpt lat="40.0713749" lon="-105.229789">
  <ele>1583.0</ele>
  <time>2026-08-28T17:48:37Z</time>
  <course>0.0</course>
  <speed>0.0</speed>
  <fix>3d</fix>
</trkpt>
<trkpt lat="40.0713749" lon="-105.229789">
  <ele>1583.0</ele>
  <time>2026-08-28T17:48:37Z</time>
  <course>248.22</course>
  <speed>0.0</speed>
  <fix>3d</fix>
</trkpt>
<trkpt lat="40.0713749" lon="-105.229789">
  <ele>1583.0</ele>
  <time>2026-08-28T17:48:37Z</time>
  <course>0.0</course>
  <speed>0.0</speed>
  <fix>3d</fix>
</trkpt>
<trkpt lat="40.0713749" lon="-105.229789">
  <ele>1583.0</ele>
  <time>2026-08-28T17:48:37Z</time>
  <course>248.23</course>
  <speed>0.0</speed>
  <fix>3d</fix>
</trkpt>
<trkpt lat="40.0713749" lon="-105.229789">
  <ele>1583.0</ele>
  <time>2026-08-28T17:48:37Z</time>
  <course>0.0</course>
  <speed>0.0</speed>
  <fix>3d</fix>
</trkpt>
<trkpt lat="40.0713749" lon="-105.229789">
  <ele>1583.0</ele>
  <time>2026-08-28T17:48:37Z</time>
  <course>248.25</course>
  <speed>0.0</speed>
  <fix>3d</fix>
</trkpt>
<trkpt lat="40.0713749" lon="-105.229789">
  <ele>1583.0</ele>
  <time>2026-08-28T17:48:37Z</time>
  <course>0.0</course>
  <speed>0.0</speed>
  <fix>3d</fix>
</trkpt>
<trkpt lat="40.0713749" lon="-105.229789">
  <ele>1583.0</ele>
  <time>2026-08-28T17:48:37Z</time>
  <course>248.26</course>
  <speed>0.0</speed>
  <fix>3d</fix>
</trkpt>
<trkpt lat="40.0713749" lon="-105.229789">
  <ele>1583.0</ele>
  <time>2026-08-28T17:48:37Z</time>
  <course>0.0</course>
  <speed>0.0</speed>
  <fix>3d</fix>
</trkpt>
<trkpt lat="40.0713749" lon="-105.229789">
  <ele>1583.0</ele>
  <time>2026-08-28T17:48:37Z</time>
  <course>248.28</course>
  <speed>0.0</speed>
  <fix>3d</fix>
</trkpt>
<trkpt lat="40.0713749" lon="-105.229789">
  <ele>1583.0</ele>
  <time>2026-08-28T17:48:37Z</time>
  <course>0.0</course>
  <speed>0.0</speed>
  <fix>3d</fix>
</trkpt>
<trkpt lat="40.0713749" lon="-105.229789">
  <ele>1583.0</ele>
  <time>2026-08-28T17:48:37Z</time>
  <course>248.29</course>
  <speed>0.0</speed>
  <fix>3d</fix>
</trkpt>
<trkpt lat="40.0713749" lon="-105.229789">
  <ele>1583.0</ele>
  <time>2026-08-28T17:48:37Z</time>
  <course>0.0</course>
  <speed>0.0</speed>
  <fix>3d</fix>
</trkpt>
<trkpt lat="40.0713749" lon="-105.229789">
  <ele>1583.0</ele>
  <time>2026-08-28T17:48:37Z</time>
  <course>248.3</course>
  <speed>0.0</speed>
  <fix>3d</fix>
</trkpt>
<trkpt lat="40.0713749" lon="-105.229789">
  <ele>1583.0</ele>
  <time>2026-08-28T17:48:37Z</time>
  <course>0.0</course>
  <speed>0.0</speed>
  <fix>3d</fix>
</trkpt>
<trkpt lat="40.0713749" lon="-105.229789">
  <ele>1583.0</ele>
  <time>2026-08-28T17:48:37Z</time>
  <course>248.31</course>
  <speed>0.0</speed>
  <fix>3d</fix>
</trkpt>
<trkpt lat="40.0713749" lon="-105.229789">
  <ele>1583.0</ele>
  <time>2026-08-28T17:48:37Z</time>
  <course>0.0</course>
  <speed>0.0</speed>
  <fix>3d</fix>
</trkpt>
<trkpt lat="40.0713749" lon="-105.229789">
  <ele>1583.0</ele>
  <time>2026-08-28T17:48:37Z</time>
  <course>248.32</course>
  <speed>0.0</speed>
  <fix>3d</fix>
</trkpt>
<trkpt lat="40.0713749" lon="-105.229789">
  <ele>1583.0</ele>
  <time>2026-08-28T17:48:37Z</time>
  <course>0.0</course>
  <speed>0.0</speed>
  <fix>3d</fix>
</trkpt>
<trkpt lat="40.0713749" lon="-105.229789">
  <ele>1583.0</ele>
  <time>2026-08-28T17:48:37Z</time>
  <course>248.33</course>
  <speed>0.0</speed>
  <fix>3d</fix>
</trkpt>
<trkpt lat="40.0713749" lon="-105.229789">
  <ele>1583.0</ele>
  <time>2026-08-28T17:48:37Z</time>
  <course>0.0</course>
  <speed>0.0</speed>
  <fix>3d</fix>
</trkpt>
<trkpt lat="40.0713749" lon="-105.229789">
  <ele>1583.0</ele>
  <time>2026-08-28T17:48:37Z</time>
  <course>248.34</course>
  <speed>0.0</speed>
  <fix>3d</fix>
</trkpt>
<trkpt lat="40.0713749" lon="-105.229789">
  <ele>1583.0</ele>
  <time>2026-08-28T17:48:37Z</time>
  <course>0.0</course>
  <speed>0.0</speed>
  <fix>3d</fix>
</trkpt>
<trkpt lat="40.0713749" lon="-105.229789">
  <ele>1583.0</ele>
  <time>2026-08-28T17:48:37Z</time>
  <course>248.35</course>
  <speed>0.0</speed>
  <fix>3d</fix>
</trkpt>
<trkpt lat="40.0713749" lon="-105.229789">
  <ele>1583.0</ele>
  <time>2026-08-28T17:48:37Z</time>
  <course>0.0</course>
  <speed>0.0</speed>
  <fix>3d</fix>
</trkpt>
<trkpt lat="40.0713749" lon="-105.229789">
  <ele>1583.0</ele>
  <time>2026-08-28T17:48:37Z</time>
  <course>248.35</course>
  <speed>0.0</speed>
  <fix>3d</fix>
</trkpt>
<trkpt lat="40.0713749" lon="-105.229789">
  <ele>1583.0</ele>
  <time>2026-08-28T17:48:37Z</time>
  <course>0.0</course>
  <speed>0.0</speed>
  <fix>3d</fix>
</trkpt>
<trkpt lat="40.0713749" lon="-105.229789">
  <ele>1583.0</ele>
  <time>2026-08-28T17:48:37Z</time>
  <course>248.36</course>
  <speed>0.0</speed>
  <fix>3d</fix>
</trkpt>
<trkpt lat="40.0713749" lon="-105.229789">
  <ele>1583.0</ele>
  <time>2026-08-28T17:48:37Z</time>
  <course>0.0</course>
  <speed>0.0</speed>
  <fix>3d</fix>
</trkpt>
<trkpt lat="40.0713749" lon="-105.229789">
  <ele>1583.0</ele>
  <time>2026-08-28T17:48:37Z</time>
  <course>248.37</course>
  <speed>0.0</speed>
  <fix>3d</fix>
</trkpt>
<trkpt lat="40.0713749" lon="-105.229789">
  <ele>1583.0</ele>
  <time>2026-08-28T17:48:37Z</time>
  <course>0.0</course>
  <speed>0.0</speed>
  <fix>3d</fix>
</trkpt>
<trkpt lat="40.0713749" lon="-105.229789">
  <ele>1583.0</ele>
  <time>2026-08-28T17:48:37Z</time>
  <course>248.37</course>
  <speed>0.0</speed>
  <fix>3d</fix>
</trkpt>
<trkpt lat="40.0713749" lon="-105.229789">
  <ele>1583.0</ele>
  <time>2026-08-28T17:48:37Z</time>
  <course>0.0</course>
  <speed>0.0</speed>
  <fix>3d</fix>
</trkpt>
<trkpt lat="40.0713749" lon="-105.229789">
  <ele>1583.0</ele>
  <time>2026-08-28T17:48:37Z</time>
  <course>248.38</course>
  <speed>0.0</speed>
  <fix>3d</fix>
</trkpt>
<trkpt lat="40.0713749" lon="-105.229789">
  <ele>1583.0</ele>
  <time>2026-08-28T17:48:37Z</time>
  <course>0.0</course>
  <speed>0.0</speed>
  <fix>3d</fix>
</trkpt>
<trkpt lat="40.0713749" lon="-105.229789">
  <ele>1583.0</ele>
  <time>2026-08-28T17:48:37Z</time>
  <course>248.38</course>
  <speed>0.0</speed>
  <fix>3d</fix>
</trkpt>
<trkpt lat="40.0713749" lon="-105.229789">
  <ele>1583.0</ele>
  <time>2026-08-28T17:48:37Z</time>
  <course>0.0</course>
  <speed>0.0</speed>
  <fix>3d</fix>
</trkpt>
<trkpt lat="40.0713749" lon="-105.229789">
  <ele>1583.0</ele>
  <time>2026-08-28T17:48:37Z</time>
  <course>248.39</course>
  <speed>0.0</speed>
  <fix>3d</fix>
</trkpt>
<trkpt lat="40.0713749" lon="-105.229789">
  <ele>1583.0</ele>
  <time>2026-08-28T17:48:37Z</time>
  <course>0.0</course>
  <speed>0.0</speed>
  <fix>3d</fix>
</trkpt>
<trkpt lat="40.0713749" lon="-105.229789">
  <ele>1583.0</ele>
  <time>2026-08-28T17:48:37Z</time>
  <course>248.39</course>
  <speed>0.0</speed>
  <fix>3d</fix>
</trkpt>
<trkpt lat="40.0713749" lon="-105.229789">
  <ele>1583.0</ele>
  <time>2026-08-28T17:48:37Z</time>
  <course>0.0</course>
  <speed>0.0</speed>
  <fix>3d</fix>
</trkpt>
<trkpt lat="40.0713749" lon="-105.229789">
  <ele>1583.0</ele>
  <time>2026-08-28T17:48:37Z</time>
  <course>248.4</course>
  <speed>0.0</speed>
  <fix>3d</fix>
</trkpt>
<trkpt lat="40.0713749" lon="-105.229789">
  <ele>1583.0</ele>
  <time>2026-08-28T17:48:37Z</time>
  <course>0.0</course>
  <speed>0.0</speed>
  <fix>3d</fix>
</trkpt>
<trkpt lat="40.0713749" lon="-105.229789">
  <ele>1583.0</ele>
  <time>2026-08-28T17:48:37Z</time>
  <course>248.4</course>
  <speed>0.0</speed>
  <fix>3d</fix>
</trkpt>
<trkpt lat="40.0713749" lon="-105.229789">
  <ele>1583.0</ele>
  <time>2026-08-28T17:48:37Z</time>
  <course>0.0</course>
  <speed>0.0</speed>
  <fix>3d</fix>
</trkpt>
<trkpt lat="40.0713749" lon="-105.229789">
  <ele>1583.0</ele>
  <time>2026-08-28T17:48:37Z</time>
  <course>248.4</course>
  <speed>0.0</speed>
  <fix>3d</fix>
</trkpt>
<trkpt lat="40.0713749" lon="-105.229789">
  <ele>1583.0</ele>
  <time>2026-08-28T17:48:37Z</time>
  <course>0.0</course>
  <speed>0.0</speed>
  <fix>3d</fix>
</trkpt>
<trkpt lat="40.0713749" lon="-105.229789">
  <ele>1583.0</ele>
  <time>2026-08-28T17:48:37Z</time>
  <course>248.4</course>
  <speed>0.0</speed>
  <fix>3d</fix>
</trkpt>
<trkpt lat="40.0713749" lon="-105.229789">
  <ele>1583.0</ele>
  <time>2026-08-28T17:48:37Z</time>
  <course>0.0</course>
  <speed>0.0</speed>
  <fix>3d</fix>
</trkpt>
<trkpt lat="40.0713749" lon="-105.229789">
  <ele>1583.0</ele>
  <time>2026-08-28T17:48:37Z</time>
  <course>248.41</course>
  <speed>0.0</speed>
  <fix>3d</fix>
</trkpt>
<trkpt lat="40.0713749" lon="-105.229789">
  <ele>1583.0</ele>
  <time>2026-08-28T17:48:37Z</time>
  <course>0.0</course>
  <speed>0.0</speed>
  <fix>3d</fix>
</trkpt>
<trkpt lat="40.0713749" lon="-105.229789">
  <ele>1583.0</ele>
  <time>2026-08-28T17:48:37Z</time>
  <course>248.41</course>
  <speed>0.0</speed>
  <fix>3d</fix>
</trkpt>
<trkpt lat="40.0713749" lon="-105.229789">
  <ele>1583.0</ele>
  <time>2026-08-28T17:48:37Z</time>
  <course>0.0</course>
  <speed>0.0</speed>
  <fix>3d</fix>
</trkpt>
<trkpt lat="40.0713749" lon="-105.229789">
  <ele>1583.0</ele>
  <time>2026-08-28T17:48:37Z</time>
  <course>248.41</course>
  <speed>0.0</speed>
  <fix>3d</fix>
</trkpt>
<trkpt lat="40.0713749" lon="-105.229789">
  <ele>1583.0</ele>
  <time>2026-08-28T17:48:37Z</time>
  <course>0.0</course>
  <speed>0.0</speed>
  <fix>3d</fix>
</trkpt>
<trkpt lat="40.0713749" lon="-105.229789">
  <ele>1583.0</ele>
  <time>2026-08-28T17:48:37Z</time>
  <course>248.41</course>
  <speed>0.0</speed>
  <fix>3d</fix>
</trkpt>
<trkpt lat="40.0713749" lon="-105.229789">
  <ele>1583.0</ele>
  <time>2026-08-28T17:48:37Z</time>
  <course>0.0</course>
  <speed>0.0</speed>
  <fix>3d</fix>
</trkpt>
<trkpt lat="40.0713749" lon="-105.229789">
  <ele>1583.0</ele>
  <time>2026-08-28T17:48:37Z</time>
  <course>248.41</course>
  <speed>0.0</speed>
  <fix>3d</fix>
</trkpt>
<trkpt lat="40.0713749" lon="-105.229789">
  <ele>1583.0</ele>
  <time>2026-08-28T17:48:37Z</time>
  <course>0.0</course>
  <speed>0.0</speed>
  <fix>3d</fix>
</trkpt>
<trkpt lat="40.0713749" lon="-105.229789">
  <ele>1583.0</ele>
  <time>2026-08-28T17:48:37Z</time>
  <course>248.41</course>
  <speed>0.0</speed>
  <fix>3d</fix>
</trkpt>
<trkpt lat="40.0713749" lon="-105.229789">
  <ele>1583.0</ele>
  <time>2026-08-28T17:48:37Z</time>
  <course>0.0</course>
  <speed>0.0</speed>
  <fix>3d</fix>
</trkpt>
<trkpt lat="40.0713749" lon="-105.229789">
  <ele>1583.0</ele>
  <time>2026-08-28T17:48:37Z</time>
  <course>248.41</course>
  <speed>0.0</speed>
  <fix>3d</fix>
</trkpt>
<trkpt lat="40.0713749" lon="-105.229789">
  <ele>1583.0</ele>
  <time>2026-08-28T17:48:37Z</time>
  <course>0.0</course>
  <speed>0.0</speed>
  <fix>3d</fix>
</trkpt>
<trkpt lat="40.0713749" lon="-105.229789">
  <ele>1583.0</ele>
  <time>2026-08-28T17:48:37Z</time>
  <course>248.41</course>
  <speed>0.0</speed>
  <fix>3d</fix>
</trkpt>
<trkpt lat="40.0713749" lon="-105.229789">
  <ele>1583.0</ele>
  <time>2026-08-28T17:48:37Z</time>
  <course>0.0</course>
  <speed>0.0</speed>
  <fix>3d</fix>
</trkpt>
<trkpt lat="40.0713749" lon="-105.229789">
  <ele>1583.0</ele>
  <time>2026-08-28T17:48:37Z</time>
  <course>248.41</course>
  <speed>0.0</speed>
  <fix>3d</fix>
</trkpt>
<trkpt lat="40.0713749" lon="-105.229789">
  <ele>1583.0</ele>
  <time>2026-08-28T17:48:37Z</time>
  <course>0.0</course>
  <speed>0.0</speed>
  <fix>3d</fix>
</trkpt>
<trkpt lat="40.0713749" lon="-105.229789">
  <ele>1583.0</ele>
  <time>2026-08-28T17:48:37Z</time>
  <course>248.41</course>
  <speed>0.0</speed>
  <fix>3d</fix>
</trkpt>
<trkpt lat="40.0713749" lon="-105.229789">
  <ele>1583.0</ele>
  <time>2026-08-28T17:48:37Z</time>
  <course>0.0</course>
  <speed>0.0</speed>
  <fix>3d</fix>
</trkpt>
<trkpt lat="40.0713749" lon="-105.229789">
  <ele>1583.0</ele>
  <time>2026-08-28T17:48:37Z</time>
  <course>248.41</course>
  <speed>0.0</speed>
  <fix>3d</fix>
</trkpt>
<trkpt lat="40.0713749" lon="-105.229789">
  <ele>1583.0</ele>
  <time>2026-08-28T17:48:37Z</time>
  <course>0.0</course>
  <speed>0.0</speed>
  <fix>3d</fix>
</trkpt>
<trkpt lat="40.0713749" lon="-105.229789">
  <ele>1583.0</ele>
  <time>2026-08-28T17:48:37Z</time>
  <course>248.41</course>
  <speed>0.0</speed>
  <fix>3d</fix>
</trkpt>
<trkpt lat="40.0713749" lon="-105.229789">
  <ele>1583.0</ele>
  <time>2026-08-28T17:48:37Z</time>
  <course>0.0</course>
  <speed>0.0</speed>
  <fix>3d</fix>
</trkpt>
<trkpt lat="40.0713749" lon="-105.229789">
  <ele>1583.0</ele>
  <time>2026-08-28T17:48:37Z</time>
  <course>248.41</course>
  <speed>0.0</speed>
  <fix>3d</fix>
</trkpt>
<trkpt lat="40.0713749" lon="-105.229789">
  <ele>1583.0</ele>
  <time>2026-08-28T17:48:37Z</time>
  <course>0.0</course>
  <speed>0.0</speed>
  <fix>3d</fix>
</trkpt>
<trkpt lat="40.0713749" lon="-105.229789">
  <ele>1583.0</ele>
  <time>2026-08-28T17:48:37Z</time>
  <course>248.41</course>
  <speed>0.0</speed>
  <fix>3d</fix>
</trkpt>
<trkpt lat="40.0713749" lon="-105.229789">
  <ele>1583.0</ele>
  <time>2026-08-28T17:48:37Z</time>
  <course>0.0</course>
  <speed>0.0</speed>
  <fix>3d</fix>
</trkpt>
<trkpt lat="40.0713749" lon="-105.229789">
  <ele>1583.0</ele>
  <time>2026-08-28T17:48:37Z</time>
  <course>248.41</course>
  <speed>0.0</speed>
  <fix>3d</fix>
</trkpt>
<trkpt lat="40.0713749" lon="-105.229789">
  <ele>1583.0</ele>
  <time>2026-08-28T17:48:37Z</time>
  <course>0.0</course>
  <speed>0.0</speed>
  <fix>3d</fix>
</trkpt>
<trkpt lat="40.0713749" lon="-105.229789">
  <ele>1583.0</ele>
  <time>2026-08-28T17:48:37Z</time>
  <course>248.41</course>
  <speed>0.0</speed>
  <fix>3d</fix>
</trkpt>
<trkpt lat="40.0713749" lon="-105.229789">
  <ele>1583.0</ele>
  <time>2026-08-28T17:48:37Z</time>
  <course>0.0</course>
  <speed>0.0</speed>
  <fix>3d</fix>
</trkpt>
<trkpt lat="40.0713749" lon="-105.229789">
  <ele>1583.0</ele>
  <time>2026-08-28T17:48:37Z</time>
  <course>248.4</course>
  <speed>0.0</speed>
  <fix>3d</fix>
</trkpt>
<trkpt lat="40.0713749" lon="-105.229789">
  <ele>1583.0</ele>
  <time>2026-08-28T17:48:37Z</time>
  <course>0.0</course>
  <speed>0.0</speed>
  <fix>3d</fix>
</trkpt>
<trkpt lat="40.0713749" lon="-105.229789">
  <ele>1583.0</ele>
  <time>2026-08-28T17:48:37Z</time>
  <course>248.4</course>
  <speed>0.01</speed>
  <fix>3d</fix>
</trkpt>
<trkpt lat="40.0713749" lon="-105.229789">
  <ele>1583.0</ele>
  <time>2026-08-28T17:48:37Z</time>
  <course>0.0</course>
  <speed>0.0</speed>
  <fix>3d</fix>
</trkpt>
<trkpt lat="40.0713749" lon="-105.229789">
  <ele>1583.0</ele>
  <time>2026-08-28T17:48:37Z</time>
  <course>248.4</course>
  <speed>0.01</speed>
  <fix>3d</fix>
</trkpt>
<trkpt lat="40.0713749" lon="-105.229789">
  <ele>1583.0</ele>
  <time>2026-08-28T17:48:37Z</time>
  <course>0.0</course>
  <speed>0.0</speed>
  <fix>3d</fix>
</trkpt>
<trkpt lat="40.0713749" lon="-105.229789">
  <ele>1583.0</ele>
  <time>2026-08-28T17:48:37Z</time>
  <course>248.4</course>
  <speed>0.01</speed>
  <fix>3d</fix>
</trkpt>
<trkpt lat="40.0713749" lon="-105.229789">
  <ele>1583.0</ele>
  <time>2026-08-28T17:48:37Z</time>
  <course>0.0</course>
  <speed>0.0</speed>
  <fix>3d</fix>
</trkpt>
<trkpt lat="40.0713749" lon="-105.229789">
  <ele>1583.0</ele>
  <time>2026-08-28T17:48:37Z</time>
  <course>248.4</course>
  <speed>0.01</speed>
  <fix>3d</fix>
</trkpt>
<trkpt lat="40.0713749" lon="-105.229789">
  <ele>1583.0</ele>
  <time>2026-08-28T17:48:37Z</time>
  <course>0.0</course>
  <speed>0.0</speed>
  <fix>3d</fix>
</trkpt>
<trkpt lat="40.0713749" lon="-105.229789">
  <ele>1583.0</ele>
  <time>2026-08-28T17:48:37Z</time>
  <course>248.39</course>
  <speed>0.01</speed>
  <fix>3d</fix>
</trkpt>
<trkpt lat="40.0713749" lon="-105.229789">
  <ele>1583.0</ele>
  <time>2026-08-28T17:48:37Z</time>
  <course>0.0</course>
  <speed>0.0</speed>
  <fix>3d</fix>
</trkpt>
<trkpt lat="40.0713749" lon="-105.229789">
  <ele>1583.0</ele>
  <time>2026-08-28T17:48:37Z</time>
  <course>248.39</course>
  <speed>0.01</speed>
  <fix>3d</fix>
</trkpt>
<trkpt lat="40.0713749" lon="-105.229789">
  <ele>1583.0</ele>
  <time>2026-08-28T17:48:37Z</time>
  <course>0.0</course>
  <speed>0.0</speed>
  <fix>3d</fix>
</trkpt>
<trkpt lat="40.0713749" lon="-105.229789">
  <ele>1583.0</ele>
  <time>2026-08-28T17:48:37Z</time>
  <course>248.39</course>
  <speed>0.01</speed>
  <fix>3d</fix>
</trkpt>
<trkpt lat="40.0713749" lon="-105.229789">
  <ele>1583.0</ele>
  <time>2026-08-28T17:48:37Z</time>
  <course>0.0</course>
  <speed>0.0</speed>
  <fix>3d</fix>
</trkpt>
<trkpt lat="40.0713749" lon="-105.229789">
  <ele>1583.0</ele>
  <time>2026-08-28T17:48:37Z</time>
  <course>248.38</course>
  <speed>0.01</speed>
  <fix>3d</fix>
</trkpt>
<trkpt lat="40.0713749" lon="-105.229789">
  <ele>1583.0</ele>
  <time>2026-08-28T17:48:37Z</time>
  <course>0.0</course>
  <speed>0.0</speed>
  <fix>3d</fix>
</trkpt>
<trkpt lat="40.0713749" lon="-105.229789">
  <ele>1583.0</ele>
  <time>2026-08-28T17:48:37Z</time>
  <course>248.38</course>
  <speed>0.01</speed>
  <fix>3d</fix>
</trkpt>
<trkpt lat="40.0713749" lon="-105.229789">
  <ele>1583.0</ele>
  <time>2026-08-28T17:48:37Z</time>
  <course>0.0</course>
  <speed>0.0</speed>
  <fix>3d</fix>
</trkpt>
<trkpt lat="40.0713749" lon="-105.229789">
  <ele>1583.0</ele>
  <time>2026-08-28T17:48:37Z</time>
  <course>248.38</course>
  <speed>0.01</speed>
  <fix>3d</fix>
</trkpt>
<trkpt lat="40.0713749" lon="-105.229789">
  <ele>1583.0</ele>
  <time>2026-08-28T17:48:37Z</time>
  <course>0.0</course>
  <speed>0.0</speed>
  <fix>3d</fix>
</trkpt>
<trkpt lat="40.0713749" lon="-105.229789">
  <ele>1583.0</ele>
  <time>2026-08-28T17:48:37Z</time>
  <course>248.37</course>
  <speed>0.01</speed>
  <fix>3d</fix>
</trkpt>
<trkpt lat="40.0713749" lon="-105.229789">
  <ele>1583.0</ele>
  <time>2026-08-28T17:48:37Z</time>
  <course>0.0</course>
  <speed>0.0</speed>
  <fix>3d</fix>
</trkpt>
<trkpt lat="40.0713749" lon="-105.229789">
  <ele>1583.0</ele>
  <time>2026-08-28T17:48:37Z</time>
  <course>248.37</course>
  <speed>0.01</speed>
  <fix>3d</fix>
</trkpt>
<trkpt lat="40.0713749" lon="-105.229789">
  <ele>1583.0</ele>
  <time>2026-08-28T17:48:37Z</time>
  <course>0.0</course>
  <speed>0.0</speed>
  <fix>3d</fix>
</trkpt>
<trkpt lat="40.0713749" lon="-105.229789">
  <ele>1583.0</ele>
  <time>2026-08-28T17:48:37Z</time>
  <course>248.37</course>
  <speed>0.01</speed>
  <fix>3d</fix>
</trkpt>
<trkpt lat="40.0713749" lon="-105.229789">
  <ele>1583.0</ele>
  <time>2026-08-28T17:48:37Z</time>
  <course>0.0</course>
  <speed>0.0</speed>
  <fix>3d</fix>
</trkpt>
<trkpt lat="40.0713749" lon="-105.229789">
  <ele>1583.0</ele>
  <time>2026-08-28T17:48:37Z</time>
  <course>248.36</course>
  <speed>0.01</speed>
  <fix>3d</fix>
</trkpt>
<trkpt lat="40.0713749" lon="-105.229789">
  <ele>1583.0</ele>
  <time>2026-08-28T17:48:37Z</time>
  <course>0.0</course>
  <speed>0.0</speed>
  <fix>3d</fix>
</trkpt>
<trkpt lat="40.0713749" lon="-105.229789">
  <ele>1583.0</ele>
  <time>2026-08-28T17:48:37Z</time>
  <course>248.36</course>
  <speed>0.01</speed>
  <fix>3d</fix>
</trkpt>
<trkpt lat="40.0713749" lon="-105.229789">
  <ele>1583.0</ele>
  <time>2026-08-28T17:48:37Z</time>
  <course>0.0</course>
  <speed>0.0</speed>
  <fix>3d</fix>
</trkpt>
<trkpt lat="40.0713749" lon="-105.229789">
  <ele>1583.0</ele>
  <time>2026-08-28T17:48:37Z</time>
  <course>248.36</course>
  <speed>0.01</speed>
  <fix>3d</fix>
</trkpt>
<trkpt lat="40.0713749" lon="-105.229789">
  <ele>1583.0</ele>
  <time>2026-08-28T17:48:37Z</time>
  <course>0.0</course>
  <speed>0.0</speed>
  <fix>3d</fix>
</trkpt>
<trkpt lat="40.0713749" lon="-105.229789">
  <ele>1583.0</ele>
  <time>2026-08-28T17:48:37Z</time>
  <course>248.35</course>
  <speed>0.01</speed>
  <fix>3d</fix>
</trkpt>
<trkpt lat="40.0713749" lon="-105.229789">
  <ele>1583.0</ele>
  <time>2026-08-28T17:48:37Z</time>
  <course>0.0</course>
  <speed>0.0</speed>
  <fix>3d</fix>
</trkpt>
<trkpt lat="40.0713749" lon="-105.229789">
  <ele>1583.0</ele>
  <time>2026-08-28T17:48:37Z</time>
  <course>248.35</course>
  <speed>0.01</speed>
  <fix>3d</fix>
</trkpt>
<trkpt lat="40.0713749" lon="-105.229789">
  <ele>1583.0</ele>
  <time>2026-08-28T17:48:37Z</time>
  <course>0.0</course>
  <speed>0.0</speed>
  <fix>3d</fix>
</trkpt>
<trkpt lat="40.0713749" lon="-105.229789">
  <ele>1583.0</ele>
  <time>2026-08-28T17:48:37Z</time>
  <course>248.35</course>
  <speed>0.01</speed>
  <fix>3d</fix>
</trkpt>
<trkpt lat="40.0713749" lon="-105.229789">
  <ele>1583.0</ele>
  <time>2026-08-28T17:48:37Z</time>
  <course>0.0</course>
  <speed>0.0</speed>
  <fix>3d</fix>
</trkpt>
<trkpt lat="40.0713749" lon="-105.229789">
  <ele>1583.0</ele>
  <time>2026-08-28T17:48:37Z</time>
  <course>248.34</course>
  <speed>0.01</speed>
  <fix>3d</fix>
</trkpt>
<trkpt lat="40.0713749" lon="-105.229789">
  <ele>1583.0</ele>
  <time>2026-08-28T17:48:37Z</time>
  <course>0.0</course>
  <speed>0.0</speed>
  <fix>3d</fix>
</trkpt>
<trkpt lat="40.0713749" lon="-105.229789">
  <ele>1583.0</ele>
  <time>2026-08-28T17:48:37Z</time>
  <course>248.34</course>
  <speed>0.01</speed>
  <fix>3d</fix>
</trkpt>
<trkpt lat="40.0713749" lon="-105.229789">
  <ele>1583.0</ele>
  <time>2026-08-28T17:48:37Z</time>
  <course>0.0</course>
  <speed>0.0</speed>
  <fix>3d</fix>
</trkpt>
<trkpt lat="40.0713749" lon="-105.229789">
  <ele>1583.0</ele>
  <time>2026-08-28T17:48:37Z</time>
  <course>248.33</course>
  <speed>0.01</speed>
  <fix>3d</fix>
</trkpt>
<trkpt lat="40.0713749" lon="-105.229789">
  <ele>1583.0</ele>
  <time>2026-08-28T17:48:37Z</time>
  <course>0.0</course>
  <speed>0.0</speed>
  <fix>3d</fix>
</trkpt>
<trkpt lat="40.0713749" lon="-105.229789">
  <ele>1583.0</ele>
  <time>2026-08-28T17:48:37Z</time>
  <course>248.33</course>
  <speed>0.01</speed>
  <fix>3d</fix>
</trkpt>
<trkpt lat="40.0713749" lon="-105.229789">
  <ele>1583.0</ele>
  <time>2026-08-28T17:48:37Z</time>
  <course>0.0</course>
  <speed>0.0</speed>
  <fix>3d</fix>
</trkpt>
<trkpt lat="40.0713749" lon="-105.229789">
  <ele>1583.0</ele>
  <time>2026-08-28T17:48:37Z</time>
  <course>248.32</course>
  <speed>0.01</speed>
  <fix>3d</fix>
</trkpt>
<trkpt lat="40.0713749" lon="-105.229789">
  <ele>1583.0</ele>
  <time>2026-08-28T17:48:37Z</time>
  <course>0.0</course>
  <speed>0.0</speed>
  <fix>3d</fix>
</trkpt>
<trkpt lat="40.0713749" lon="-105.229789">
  <ele>1583.0</ele>
  <time>2026-08-28T17:48:37Z</time>
  <course>248.32</course>
  <speed>0.01</speed>
  <fix>3d</fix>
</trkpt>
<trkpt lat="40.0713749" lon="-105.229789">
  <ele>1583.0</ele>
  <time>2026-08-28T17:48:37Z</time>
  <course>0.0</course>
  <speed>0.0</speed>
  <fix>3d</fix>
</trkpt>
<trkpt lat="40.0713749" lon="-105.229789">
  <ele>1583.0</ele>
  <time>2026-08-28T17:48:37Z</time>
  <course>248.32</course>
  <speed>0.01</speed>
  <fix>3d</fix>
</trkpt>
<trkpt lat="40.0713749" lon="-105.229789">
  <ele>1583.0</ele>
  <time>2026-08-28T17:48:37Z</time>
  <course>0.0</course>
  <speed>0.0</speed>
  <fix>3d</fix>
</trkpt>
<trkpt lat="40.0713749" lon="-105.229789">
  <ele>1583.0</ele>
  <time>2026-08-28T17:48:37Z</time>
  <course>248.31</course>
  <speed>0.01</speed>
  <fix>3d</fix>
</trkpt>
<trkpt lat="40.0713749" lon="-105.229789">
  <ele>1583.0</ele>
  <time>2026-08-28T17:48:37Z</time>
  <course>0.0</course>
  <speed>0.0</speed>
  <fix>3d</fix>
</trkpt>
<trkpt lat="40.0713749" lon="-105.229789">
  <ele>1583.0</ele>
  <time>2026-08-28T17:48:37Z</time>
  <course>248.31</course>
  <speed>0.01</speed>
  <fix>3d</fix>
</trkpt>
<trkpt lat="40.0713749" lon="-105.229789">
  <ele>1583.0</ele>
  <time>2026-08-28T17:48:37Z</time>
  <course>0.0</course>
  <speed>0.0</speed>
  <fix>3d</fix>
</trkpt>
<trkpt lat="40.0713749" lon="-105.229789">
  <ele>1583.0</ele>
  <time>2026-08-28T17:48:37Z</time>
  <course>248.3</course>
  <speed>0.01</speed>
  <fix>3d</fix>
</trkpt>
<trkpt lat="40.0713749" lon="-105.229789">
  <ele>1583.0</ele>
  <time>2026-08-28T17:48:37Z</time>
  <course>0.0</course>
  <speed>0.0</speed>
  <fix>3d</fix>
</trkpt>
<trkpt lat="40.0713749" lon="-105.229789">
  <ele>1583.0</ele>
  <time>2026-08-28T17:48:37Z</time>
  <course>248.3</course>
  <speed>0.01</speed>
  <fix>3d</fix>
</trkpt>
<trkpt lat="40.0713749" lon="-105.229789">
  <ele>1583.0</ele>
  <time>2026-08-28T17:48:37Z</time>
  <course>0.0</course>
  <speed>0.0</speed>
  <fix>3d</fix>
</trkpt>
<trkpt lat="40.0713749" lon="-105.229789">
  <ele>1583.0</ele>
  <time>2026-08-28T17:48:37Z</time>
  <course>248.29</course>
  <speed>0.01</speed>
  <fix>3d</fix>
</trkpt>
<trkpt lat="40.0713749" lon="-105.229789">
  <ele>1583.0</ele>
  <time>2026-08-28T17:48:37Z</time>
  <course>0.0</course>
  <speed>0.0</speed>
  <fix>3d</fix>
</trkpt>
<trkpt lat="40.0713749" lon="-105.229789">
  <ele>1583.0</ele>
  <time>2026-08-28T17:48:37Z</time>
  <course>248.29</course>
  <speed>0.01</speed>
  <fix>3d</fix>
</trkpt>
<trkpt lat="40.0713749" lon="-105.229789">
  <ele>1583.0</ele>
  <time>2026-08-28T17:48:37Z</time>
  <course>0.0</course>
  <speed>0.0</speed>
  <fix>3d</fix>
</trkpt>
<trkpt lat="40.0713749" lon="-105.229789">
  <ele>1583.0</ele>
  <time>2026-08-28T17:48:37Z</time>
  <course>248.28</course>
  <speed>0.01</speed>
  <fix>3d</fix>
</trkpt>
<trkpt lat="40.0713749" lon="-105.229789">
  <ele>1583.0</ele>
  <time>2026-08-28T17:48:37Z</time>
  <course>0.0</course>
  <speed>0.0</speed>
  <fix>3d</fix>
</trkpt>
<trkpt lat="40.0713749" lon="-105.229789">
  <ele>1583.0</ele>
  <time>2026-08-28T17:48:37Z</time>
  <course>248.28</course>
  <speed>0.01</speed>
  <fix>3d</fix>
</trkpt>
<trkpt lat="40.0713749" lon="-105.229789">
  <ele>1583.0</ele>
  <time>2026-08-28T17:48:37Z</time>
  <course>0.0</course>
  <speed>0.0</speed>
  <fix>3d</fix>
</trkpt>
<trkpt lat="40.0713749" lon="-105.229789">
  <ele>1583.0</ele>
  <time>2026-08-28T17:48:37Z</time>
  <course>248.27</course>
  <speed>0.01</speed>
  <fix>3d</fix>
</trkpt>
<trkpt lat="40.0713749" lon="-105.229789">
  <ele>1583.0</ele>
  <time>2026-08-28T17:48:37Z</time>
  <course>0.0</course>
  <speed>0.0</speed>
  <fix>3d</fix>
</trkpt>
<trkpt lat="40.0713749" lon="-105.229789">
  <ele>1583.0</ele>
  <time>2026-08-28T17:48:37Z</time>
  <course>248.27</course>
  <speed>0.01</speed>
  <fix>3d</fix>
</trkpt>
<trkpt lat="40.0713749" lon="-105.229789">
  <ele>1583.0</ele>
  <time>2026-08-28T17:48:37Z</time>
  <course>0.0</course>
  <speed>0.0</speed>
  <fix>3d</fix>
</trkpt>
<trkpt lat="40.0713749" lon="-105.229789">
  <ele>1583.0</ele>
  <time>2026-08-28T17:48:37Z</time>
  <course>248.26</course>
  <speed>0.01</speed>
  <fix>3d</fix>
</trkpt>
<trkpt lat="40.0713749" lon="-105.229789">
  <ele>1583.0</ele>
  <time>2026-08-28T17:48:37Z</time>
  <course>0.0</course>
  <speed>0.0</speed>
  <fix>3d</fix>
</trkpt>
<trkpt lat="40.0713749" lon="-105.229789">
  <ele>1583.0</ele>
  <time>2026-08-28T17:48:37Z</time>
  <course>248.26</course>
  <speed>0.01</speed>
  <fix>3d</fix>
</trkpt>
<trkpt lat="40.0713749" lon="-105.229789">
  <ele>1583.0</ele>
  <time>2026-08-28T17:48:37Z</time>
  <course>0.0</course>
  <speed>0.0</speed>
  <fix>3d</fix>
</trkpt>
<trkpt lat="40.0713749" lon="-105.229789">
  <ele>1583.0</ele>
  <time>2026-08-28T17:48:37Z</time>
  <course>248.26</course>
  <speed>0.01</speed>
  <fix>3d</fix>
</trkpt>
<trkpt lat="40.0713749" lon="-105.229789">
  <ele>1583.0</ele>
  <time>2026-08-28T17:48:37Z</time>
  <course>0.0</course>
  <speed>0.0</speed>
  <fix>3d</fix>
</trkpt>
<trkpt lat="40.0713749" lon="-105.229789">
  <ele>1583.0</ele>
  <time>2026-08-28T17:48:37Z</time>
  <course>248.25</course>
  <speed>0.01</speed>
  <fix>3d</fix>
</trkpt>
<trkpt lat="40.0713749" lon="-105.229789">
  <ele>1583.0</ele>
  <time>2026-08-28T17:48:37Z</time>
  <course>0.0</course>
  <speed>0.0</speed>
  <fix>3d</fix>
</trkpt>
<trkpt lat="40.0713749" lon="-105.229789">
  <ele>1583.0</ele>
  <time>2026-08-28T17:48:37Z</time>
  <course>248.25</course>
  <speed>0.01</speed>
  <fix>3d</fix>
</trkpt>
<trkpt lat="40.0713749" lon="-105.229789">
  <ele>1583.0</ele>
  <time>2026-08-28T17:48:37Z</time>
  <course>0.0</course>
  <speed>0.0</speed>
  <fix>3d</fix>
</trkpt>
<trkpt lat="40.0713749" lon="-105.229789">
  <ele>1583.0</ele>
  <time>2026-08-28T17:48:37Z</time>
  <course>248.24</course>
  <speed>0.01</speed>
  <fix>3d</fix>
</trkpt>
<trkpt lat="40.0713749" lon="-105.229789">
  <ele>1583.0</ele>
  <time>2026-08-28T17:48:37Z</time>
  <course>0.0</course>
  <speed>0.0</speed>
  <fix>3d</fix>
</trkpt>
<trkpt lat="40.0713749" lon="-105.229789">
  <ele>1583.0</ele>
  <time>2026-08-28T17:48:37Z</time>
  <course>248.24</course>
  <speed>0.01</speed>
  <fix>3d</fix>
</trkpt>
<trkpt lat="40.0713749" lon="-105.229789">
  <ele>1583.0</ele>
  <time>2026-08-28T17:48:37Z</time>
  <course>0.0</course>
  <speed>0.0</speed>
  <fix>3d</fix>
</trkpt>
<trkpt lat="40.0713749" lon="-105.229789">
  <ele>1583.0</ele>
  <time>2026-08-28T17:48:37Z</time>
  <course>248.23</course>
  <speed>0.01</speed>
  <fix>3d</fix>
</trkpt>
<trkpt lat="40.0713749" lon="-105.229789">
  <ele>1583.0</ele>
  <time>2026-08-28T17:48:37Z</time>
  <course>0.0</course>
  <speed>0.0</speed>
  <fix>3d</fix>
</trkpt>
<trkpt lat="40.0713749" lon="-105.229789">
  <ele>1583.0</ele>
  <time>2026-08-28T17:48:37Z</time>
  <course>248.23</course>
  <speed>0.01</speed>
  <fix>3d</fix>
</trkpt>
<trkpt lat="40.0713749" lon="-105.229789">
  <ele>1583.0</ele>
  <time>2026-08-28T17:48:37Z</time>
  <course>0.0</course>
  <speed>0.0</speed>
  <fix>3d</fix>
</trkpt>
<trkpt lat="40.0713749" lon="-105.229789">
  <ele>1583.0</ele>
  <time>2026-08-28T17:48:37Z</time>
  <course>248.22</course>
  <speed>0.01</speed>
  <fix>3d</fix>
</trkpt>
<trkpt lat="40.0713749" lon="-105.229789">
  <ele>1583.0</ele>
  <time>2026-08-28T17:48:37Z</time>
  <course>0.0</course>
  <speed>0.0</speed>
  <fix>3d</fix>
</trkpt>
<trkpt lat="40.0713749" lon="-105.229789">
  <ele>1583.0</ele>
  <time>2026-08-28T17:48:37Z</time>
  <course>248.22</course>
  <speed>0.01</speed>
  <fix>3d</fix>
</trkpt>
<trkpt lat="40.0713749" lon="-105.229789">
  <ele>1583.0</ele>
  <time>2026-08-28T17:48:37Z</time>
  <course>0.0</course>
  <speed>0.0</speed>
  <fix>3d</fix>
</trkpt>
<trkpt lat="40.0713749" lon="-105.229789">
  <ele>1583.0</ele>
  <time>2026-08-28T17:48:37Z</time>
  <course>248.21</course>
  <speed>0.01</speed>
  <fix>3d</fix>
</trkpt>
<trkpt lat="40.0713749" lon="-105.229789">
  <ele>1583.0</ele>
  <time>2026-08-28T17:48:37Z</time>
  <course>0.0</course>
  <speed>0.0</speed>
  <fix>3d</fix>
</trkpt>
<trkpt lat="40.0713749" lon="-105.229789">
  <ele>1583.0</ele>
  <time>2026-08-28T17:48:37Z</time>
  <course>248.21</course>
  <speed>0.01</speed>
  <fix>3d</fix>
</trkpt>
<trkpt lat="40.0713749" lon="-105.229789">
  <ele>1583.0</ele>
  <time>2026-08-28T17:48:37Z</time>
  <course>0.0</course>
  <speed>0.0</speed>
  <fix>3d</fix>
</trkpt>
<trkpt lat="40.0713749" lon="-105.229789">
  <ele>1583.0</ele>
  <time>2026-08-28T17:48:37Z</time>
  <course>248.2</course>
  <speed>0.01</speed>
  <fix>3d</fix>
</trkpt>
<trkpt lat="40.0713749" lon="-105.229789">
  <ele>1583.0</ele>
  <time>2026-08-28T17:48:37Z</time>
  <course>0.0</course>
  <speed>0.0</speed>
  <fix>3d</fix>
</trkpt>
<trkpt lat="40.0713749" lon="-105.229789">
  <ele>1583.0</ele>
  <time>2026-08-28T17:48:37Z</time>
  <course>248.2</course>
  <speed>0.01</speed>
  <fix>3d</fix>
</trkpt>
<trkpt lat="40.0713749" lon="-105.229789">
  <ele>1583.0</ele>
  <time>2026-08-28T17:48:37Z</time>
  <course>0.0</course>
  <speed>0.0</speed>
  <fix>3d</fix>
</trkpt>
<trkpt lat="40.0713749" lon="-105.229789">
  <ele>1583.0</ele>
  <time>2026-08-28T17:48:37Z</time>
  <course>248.19</course>
  <speed>0.01</speed>
  <fix>3d</fix>
</trkpt>
<trkpt lat="40.0713749" lon="-105.229789">
  <ele>1583.0</ele>
  <time>2026-08-28T17:48:37Z</time>
  <course>0.0</course>
  <speed>0.0</speed>
  <fix>3d</fix>
</trkpt>
<trkpt lat="40.0713749" lon="-105.229789">
  <ele>1583.0</ele>
  <time>2026-08-28T17:48:37Z</time>
  <course>248.19</course>
  <speed>0.01</speed>
  <fix>3d</fix>
</trkpt>
<trkpt lat="40.0713749" lon="-105.229789">
  <ele>1583.0</ele>
  <time>2026-08-28T17:48:37Z</time>
  <course>0.0</course>
  <speed>0.0</speed>
  <fix>3d</fix>
</trkpt>
<trkpt lat="40.0713749" lon="-105.229789">
  <ele>1583.0</ele>
  <time>2026-08-28T17:48:37Z</time>
  <course>248.18</course>
  <speed>0.01</speed>
  <fix>3d</fix>
</trkpt>
<trkpt lat="40.0713749" lon="-105.229789">
  <ele>1583.0</ele>
  <time>2026-08-28T17:48:37Z</time>
  <course>0.0</course>
  <speed>0.0</speed>
  <fix>3d</fix>
</trkpt>
<trkpt lat="40.0713749" lon="-105.229789">
  <ele>1583.0</ele>
  <time>2026-08-28T17:48:37Z</time>
  <course>248.18</course>
  <speed>0.01</speed>
  <fix>3d</fix>
</trkpt>
<trkpt lat="40.0713749" lon="-105.229789">
  <ele>1583.0</ele>
  <time>2026-08-28T17:48:37Z</time>
  <course>0.0</course>
  <speed>0.0</speed>
  <fix>3d</fix>
</trkpt>
<trkpt lat="40.0713749" lon="-105.229789">
  <ele>1583.0</ele>
  <time>2026-08-28T17:48:37Z</time>
  <course>248.17</course>
  <speed>0.022360679774997897</speed>
  <fix>3d</fix>
</trkpt>
<trkpt lat="40.0713749" lon="-105.229789">
  <ele>1583.0</ele>
  <time>2026-08-28T17:48:37Z</time>
  <course>0.0</course>
  <speed>0.0</speed>
  <fix>3d</fix>
</trkpt>
<trkpt lat="40.0713749" lon="-105.229789">
  <ele>1583.0</ele>
  <time>2026-08-28T17:48:37Z</time>
  <course>248.17</course>
  <speed>0.022360679774997897</speed>
  <fix>3d</fix>
</trkpt>
<trkpt lat="40.0713749" lon="-105.229789">
  <ele>1583.0</ele>
  <time>2026-08-28T17:48:37Z</time>
  <course>0.0</course>
  <speed>0.0</speed>
  <fix>3d</fix>
</trkpt>
<trkpt lat="40.0713749" lon="-105.229789">
  <ele>1583.0</ele>
  <time>2026-08-28T17:48:37Z</time>
  <course>248.16</course>
  <speed>0.022360679774997897</speed>
  <fix>3d</fix>
</trkpt>
<trkpt lat="40.0713749" lon="-105.229789">
  <ele>1583.0</ele>
  <time>2026-08-28T17:48:37Z</time>
  <course>0.0</course>
  <speed>0.0</speed>
  <fix>3d</fix>
</trkpt>
<trkpt lat="40.0713749" lon="-105.229789">
  <ele>1583.0</ele>
  <time>2026-08-28T17:48:37Z</time>
  <course>248.16</course>
  <speed>0.022360679774997897</speed>
  <fix>3d</fix>
</trkpt>
<trkpt lat="40.0713749" lon="-105.229789">
  <ele>1583.0</ele>
  <time>2026-08-28T17:48:37Z</time>
  <course>0.0</course>
  <speed>0.0</speed>
  <fix>3d</fix>
</trkpt>
<trkpt lat="40.0713749" lon="-105.229789">
  <ele>1583.0</ele>
  <time>2026-08-28T17:48:37Z</time>
  <course>248.15</course>
  <speed>0.022360679774997897</speed>
  <fix>3d</fix>
</trkpt>
<trkpt lat="40.0713749" lon="-105.229789">
  <ele>1583.0</ele>
  <time>2026-08-28T17:48:37Z</time>
  <course>0.0</course>
  <speed>0.0</speed>
  <fix>3d</fix>
</trkpt>
<trkpt lat="40.0713749" lon="-105.229789">
  <ele>1583.0</ele>
  <time>2026-08-28T17:48:37Z</time>
  <course>248.15</course>
  <speed>0.022360679774997897</speed>
  <fix>3d</fix>
</trkpt>
<trkpt lat="40.0713749" lon="-105.229789">
  <ele>1583.0</ele>
  <time>2026-08-28T17:48:37Z</time>
  <course>0.0</course>
  <speed>0.0</speed>
  <fix>3d</fix>
</trkpt>
<trkpt lat="40.0713749" lon="-105.229789">
  <ele>1583.0</ele>
  <time>2026-08-28T17:48:37Z</time>
  <course>248.14</course>
  <speed>0.022360679774997897</speed>
  <fix>3d</fix>
</trkpt>
<trkpt lat="40.0713749" lon="-105.229789">
  <ele>1583.0</ele>
  <time>2026-08-28T17:48:37Z</time>
  <course>0.0</course>
  <speed>0.0</speed>
  <fix>3d</fix>
</trkpt>
<trkpt lat="40.0713749" lon="-105.229789">
  <ele>1583.0</ele>
  <time>2026-08-28T17:48:37Z</time>
  <course>248.14</course>
  <speed>0.022360679774997897</speed>
  <fix>3d</fix>
</trkpt>
<trkpt lat="40.0713749" lon="-105.229789">
  <ele>1583.0</ele>
  <time>2026-08-28T17:48:37Z</time>
  <course>0.0</course>
  <speed>0.0</speed>
  <fix>3d</fix>
</trkpt>
<trkpt lat="40.0713749" lon="-105.229789">
  <ele>1583.0</ele>
  <time>2026-08-28T17:48:37Z</time>
  <course>248.13</course>
  <speed>0.022360679774997897</speed>
  <fix>3d</fix>
</trkpt>
<trkpt lat="40.0713749" lon="-105.229789">
  <ele>1583.0</ele>
  <time>2026-08-28T17:48:37Z</time>
  <course>0.0</course>
  <speed>0.0</speed>
  <fix>3d</fix>
</trkpt>
<trkpt lat="40.0713749" lon="-105.229789">
  <ele>1583.0</ele>
  <time>2026-08-28T17:48:37Z</time>
  <course>248.13</course>
  <speed>0.022360679774997897</speed>
  <fix>3d</fix>
</trkpt>
<trkpt lat="40.0713749" lon="-105.229789">
  <ele>1583.0</ele>
  <time>2026-08-28T17:48:37Z</time>
  <course>0.0</course>
  <speed>0.0</speed>
  <fix>3d</fix>
</trkpt>
<trkpt lat="40.0713749" lon="-105.229789">
  <ele>1583.0</ele>
  <time>2026-08-28T17:48:37Z</time>
  <course>248.12</course>
  <speed>0.022360679774997897</speed>
  <fix>3d</fix>
</trkpt>
<trkpt lat="40.0713749" lon="-105.229789">
  <ele>1583.0</ele>
  <time>2026-08-28T17:48:37Z</time>
  <course>0.0</course>
  <speed>0.0</speed>
  <fix>3d</fix>
</trkpt>
<trkpt lat="40.0713749" lon="-105.229789">
  <ele>1583.0</ele>
  <time>2026-08-28T17:48:37Z</time>
  <course>248.12</course>
  <speed>0.022360679774997897</speed>
  <fix>3d</fix>
</trkpt>
<trkpt lat="40.0713749" lon="-105.229789">
  <ele>1583.0</ele>
  <time>2026-08-28T17:48:37Z</time>
  <course>0.0</course>
  <speed>0.0</speed>
  <fix>3d</fix>
</trkpt>
<trkpt lat="40.0713749" lon="-105.229789">
  <ele>1583.0</ele>
  <time>2026-08-28T17:48:37Z</time>
  <course>248.11</course>
  <speed>0.022360679774997897</speed>
  <fix>3d</fix>
</trkpt>
<trkpt lat="40.0713749" lon="-105.229789">
  <ele>1583.0</ele>
  <time>2026-08-28T17:48:37Z</time>
  <course>0.0</course>
  <speed>0.0</speed>
  <fix>3d</fix>
</trkpt>
<trkpt lat="40.0713749" lon="-105.229789">
  <ele>1583.0</ele>
  <time>2026-08-28T17:48:37Z</time>
  <course>248.11</course>
  <speed>0.022360679774997897</speed>
  <fix>3d</fix>
</trkpt>
<trkpt lat="40.0713749" lon="-105.229789">
  <ele>1583.0</ele>
  <time>2026-08-28T17:48:37Z</time>
  <course>0.0</course>
  <speed>0.0</speed>
  <fix>3d</fix>
</trkpt>
<trkpt lat="40.0713749" lon="-105.229789">
  <ele>1583.0</ele>
  <time>2026-08-28T17:48:37Z</time>
  <course>248.1</course>
  <speed>0.022360679774997897</speed>
  <fix>3d</fix>
</trkpt>
<trkpt lat="40.0713749" lon="-105.229789">
  <ele>1583.0</ele>
  <time>2026-08-28T17:48:37Z</time>
  <course>0.0</course>
  <speed>0.0</speed>
  <fix>3d</fix>
</trkpt>
<trkpt lat="40.0713749" lon="-105.229789">
  <ele>1583.0</ele>
  <time>2026-08-28T17:48:37Z</time>
  <course>248.1</course>
  <speed>0.022360679774997897</speed>
  <fix>3d</fix>
</trkpt>
<trkpt lat="40.0713749" lon="-105.229789">
  <ele>1583.0</ele>
  <time>2026-08-28T17:48:37Z</time>
  <course>0.0</course>
  <speed>0.0</speed>
  <fix>3d</fix>
</trkpt>
<trkpt lat="40.0713749" lon="-105.229789">
  <ele>1583.0</ele>
  <time>2026-08-28T17:48:37Z</time>
  <course>248.09</course>
  <speed>0.022360679774997897</speed>
  <fix>3d</fix>
</trkpt>
<trkpt lat="40.0713749" lon="-105.229789">
  <ele>1583.0</ele>
  <time>2026-08-28T17:48:37Z</time>
  <course>0.0</course>
  <speed>0.0</speed>
  <fix>3d</fix>
</trkpt>
<trkpt lat="40.0713749" lon="-105.229789">
  <ele>1583.0</ele>
  <time>2026-08-28T17:48:37Z</time>
  <course>248.09</course>
  <speed>0.022360679774997897</speed>
  <fix>3d</fix>
</trkpt>
<trkpt lat="40.0713749" lon="-105.229789">
  <ele>1583.0</ele>
  <time>2026-08-28T17:48:37Z</time>
  <course>0.0</course>
  <speed>0.0</speed>
  <fix>3d</fix>
</trkpt>
<trkpt lat="40.0713749" lon="-105.229789">
  <ele>1583.0</ele>
  <time>2026-08-28T17:48:37Z</time>
  <course>248.08</course>
  <speed>0.022360679774997897</speed>
  <fix>3d</fix>
</trkpt>
<trkpt lat="40.0713749" lon="-105.229789">
  <ele>1583.0</ele>
  <time>2026-08-28T17:48:37Z</time>
  <course>0.0</course>
  <speed>0.0</speed>
  <fix>3d</fix>
</trkpt>
<trkpt lat="40.0713749" lon="-105.229789">
  <ele>1583.0</ele>
  <time>2026-08-28T17:48:37Z</time>
  <course>248.08</course>
  <speed>0.022360679774997897</speed>
  <fix>3d</fix>
</trkpt>
<trkpt lat="40.0713749" lon="-105.229789">
  <ele>1583.0</ele>
  <time>2026-08-28T17:48:37Z</time>
  <course>0.0</course>
  <speed>0.0</speed>
  <fix>3d</fix>
</trkpt>
<trkpt lat="40.0713749" lon="-105.229789">
  <ele>1583.0</ele>
  <time>2026-08-28T17:48:37Z</time>
  <course>248.07</course>
  <speed>0.022360679774997897</speed>
  <fix>3d</fix>
</trkpt>
<trkpt lat="40.0713749" lon="-105.229789">
  <ele>1583.0</ele>
  <time>2026-08-28T17:48:37Z</time>
  <course>0.0</course>
  <speed>0.0</speed>
  <fix>3d</fix>
</trkpt>
<trkpt lat="40.0713749" lon="-105.229789">
  <ele>1583.0</ele>
  <time>2026-08-28T17:48:37Z</time>
  <course>248.07</course>
  <speed>0.022360679774997897</speed>
  <fix>3d</fix>
</trkpt>
<trkpt lat="40.0713749" lon="-105.229789">
  <ele>1583.0</ele>
  <time>2026-08-28T17:48:37Z</time>
  <course>0.0</course>
  <speed>0.0</speed>
  <fix>3d</fix>
</trkpt>
<trkpt lat="40.0713749" lon="-105.229789">
  <ele>1583.0</ele>
  <time>2026-08-28T17:48:37Z</time>
  <course>248.06</course>
  <speed>0.022360679774997897</speed>
  <fix>3d</fix>
</trkpt>
<trkpt lat="40.0713749" lon="-105.229789">
  <ele>1583.0</ele>
  <time>2026-08-28T17:48:37Z</time>
  <course>0.0</course>
  <speed>0.0</speed>
  <fix>3d</fix>
</trkpt>
<trkpt lat="40.0713749" lon="-105.229789">
  <ele>1583.0</ele>
  <time>2026-08-28T17:48:37Z</time>
  <course>248.06</course>
  <speed>0.022360679774997897</speed>
  <fix>3d</fix>
</trkpt>
<trkpt lat="40.0713749" lon="-105.229789">
  <ele>1583.0</ele>
  <time>2026-08-28T17:48:37Z</time>
  <course>0.0</course>
  <speed>0.0</speed>
  <fix>3d</fix>
</trkpt>
<trkpt lat="40.0713749" lon="-105.229789">
  <ele>1583.0</ele>
  <time>2026-08-28T17:48:37Z</time>
  <course>248.05</course>
  <speed>0.022360679774997897</speed>
  <fix>3d</fix>
</trkpt>
<trkpt lat="40.0713749" lon="-105.229789">
  <ele>1583.0</ele>
  <time>2026-08-28T17:48:37Z</time>
  <course>0.0</course>
  <speed>0.0</speed>
  <fix>3d</fix>
</trkpt>
<trkpt lat="40.0713749" lon="-105.229789">
  <ele>1583.0</ele>
  <time>2026-08-28T17:48:37Z</time>
  <course>248.05</course>
  <speed>0.022360679774997897</speed>
  <fix>3d</fix>
</trkpt>
<trkpt lat="40.0713749" lon="-105.229789">
  <ele>1583.0</ele>
  <time>2026-08-28T17:48:37Z</time>
  <course>0.0</course>
  <speed>0.0</speed>
  <fix>3d</fix>
</trkpt>
<trkpt lat="40.0713749" lon="-105.229789">
  <ele>1583.0</ele>
  <time>2026-08-28T17:48:37Z</time>
  <course>248.05</course>
  <speed>0.022360679774997897</speed>
  <fix>3d</fix>
</trkpt>
<trkpt lat="40.0713749" lon="-105.229789">
  <ele>1583.0</ele>
  <time>2026-08-28T17:48:37Z</time>
  <course>0.0</course>
  <speed>0.0</speed>
  <fix>3d</fix>
</trkpt>
<trkpt lat="40.0713749" lon="-105.229789">
  <ele>1583.0</ele>
  <time>2026-08-28T17:48:37Z</time>
  <course>248.04</course>
  <speed>0.022360679774997897</speed>
  <fix>3d</fix>
</trkpt>
<trkpt lat="40.0713749" lon="-105.229789">
  <ele>1583.0</ele>
  <time>2026-08-28T17:48:37Z</time>
  <course>0.0</course>
  <speed>0.0</speed>
  <fix>3d</fix>
</trkpt>
<trkpt lat="40.0713749" lon="-105.229789">
  <ele>1583.0</ele>
  <time>2026-08-28T17:48:37Z</time>
  <course>248.04</course>
  <speed>0.022360679774997897</speed>
  <fix>3d</fix>
</trkpt>
<trkpt lat="40.0713749" lon="-105.229789">
  <ele>1583.0</ele>
  <time>2026-08-28T17:48:37Z</time>
  <course>0.0</course>
  <speed>0.0</speed>
  <fix>3d</fix>
</trkpt>
<trkpt lat="40.0713749" lon="-105.229789">
  <ele>1583.0</ele>
  <time>2026-08-28T17:48:37Z</time>
  <course>248.03</course>
  <speed>0.022360679774997897</speed>
  <fix>3d</fix>
</trkpt>
<trkpt lat="40.0713749" lon="-105.229789">
  <ele>1583.0</ele>
  <time>2026-08-28T17:48:37Z</time>
  <course>0.0</course>
  <speed>0.0</speed>
  <fix>3d</fix>
</trkpt>
<trkpt lat="40.0713749" lon="-105.229789">
  <ele>1583.0</ele>
  <time>2026-08-28T17:48:37Z</time>
  <course>248.03</course>
  <speed>0.022360679774997897</speed>
  <fix>3d</fix>
</trkpt>
<trkpt lat="40.0713749" lon="-105.229789">
  <ele>1583.0</ele>
  <time>2026-08-28T17:48:37Z</time>
  <course>0.0</course>
  <speed>0.0</speed>
  <fix>3d</fix>
</trkpt>
<trkpt lat="40.0713749" lon="-105.229789">
  <ele>1583.0</ele>
  <time>2026-08-28T17:48:37Z</time>
  <course>248.02</course>
  <speed>0.022360679774997897</speed>
  <fix>3d</fix>
</trkpt>
<trkpt lat="40.0713749" lon="-105.229789">
  <ele>1583.0</ele>
  <time>2026-08-28T17:48:37Z</time>
  <course>0.0</course>
  <speed>0.0</speed>
  <fix>3d</fix>
</trkpt>
<trkpt lat="40.0713749" lon="-105.229789">
  <ele>1583.0</ele>
  <time>2026-08-28T17:48:37Z</time>
  <course>248.02</course>
  <speed>0.022360679774997897</speed>
  <fix>3d</fix>
</trkpt>
<trkpt lat="40.0713749" lon="-105.229789">
  <ele>1583.0</ele>
  <time>2026-08-28T17:48:37Z</time>
  <course>0.0</course>
  <speed>0.0</speed>
  <fix>3d</fix>
</trkpt>
<trkpt lat="40.0713749" lon="-105.229789">
  <ele>1583.0</ele>
  <time>2026-08-28T17:48:37Z</time>
  <course>248.01</course>
  <speed>0.022360679774997897</speed>
  <fix>3d</fix>
</trkpt>
<trkpt lat="40.0713749" lon="-105.229789">
  <ele>1583.0</ele>
  <time>2026-08-28T17:48:37Z</time>
  <course>0.0</course>
  <speed>0.0</speed>
  <fix>3d</fix>
</trkpt>
<trkpt lat="40.0713749" lon="-105.229789">
  <ele>1583.0</ele>
  <time>2026-08-28T17:48:37Z</time>
  <course>248.01</course>
  <speed>0.022360679774997897</speed>
  <fix>3d</fix>
</trkpt>
<trkpt lat="40.0713749" lon="-105.229789">
  <ele>1583.0</ele>
  <time>2026-08-28T17:48:37Z</time>
  <course>0.0</course>
  <speed>0.0</speed>
  <fix>3d</fix>
</trkpt>
<trkpt lat="40.0713749" lon="-105.229789">
  <ele>1583.0</ele>
  <time>2026-08-28T17:48:37Z</time>
  <course>248.0</course>
  <speed>0.022360679774997897</speed>
  <fix>3d</fix>
</trkpt>
<trkpt lat="40.0713749" lon="-105.229789">
  <ele>1583.0</ele>
  <time>2026-08-28T17:48:37Z</time>
  <course>0.0</course>
  <speed>0.0</speed>
  <fix>3d</fix>
</trkpt>
<trkpt lat="40.0713749" lon="-105.229789">
  <ele>1583.0</ele>
  <time>2026-08-28T17:48:37Z</time>
  <course>248.0</course>
  <speed>0.022360679774997897</speed>
  <fix>3d</fix>
</trkpt>
<trkpt lat="40.0713749" lon="-105.229789">
  <ele>1583.0</ele>
  <time>2026-08-28T17:48:37Z</time>
  <course>0.0</course>
  <speed>0.0</speed>
  <fix>3d</fix>
</trkpt>
<trkpt lat="40.0713749" lon="-105.229789">
  <ele>1583.0</ele>
  <time>2026-08-28T17:48:37Z</time>
  <course>247.99</course>
  <speed>0.022360679774997897</speed>
  <fix>3d</fix>
</trkpt>
<trkpt lat="40.0713749" lon="-105.229789">
  <ele>1583.0</ele>
  <time>2026-08-28T17:48:37Z</time>
  <course>0.0</course>
  <speed>0.0</speed>
  <fix>3d</fix>
</trkpt>
<trkpt lat="40.0713749" lon="-105.229789">
  <ele>1583.0</ele>
  <time>2026-08-28T17:48:37Z</time>
  <course>247.99</course>
  <speed>0.022360679774997897</speed>
  <fix>3d</fix>
</trkpt>
<trkpt lat="40.0713749" lon="-105.229789">
  <ele>1583.0</ele>
  <time>2026-08-28T17:48:37Z</time>
  <course>0.0</course>
  <speed>0.0</speed>
  <fix>3d</fix>
</trkpt>
<trkpt lat="40.0713749" lon="-105.229789">
  <ele>1583.0</ele>
  <time>2026-08-28T17:48:37Z</time>
  <course>247.99</course>
  <speed>0.022360679774997897</speed>
  <fix>3d</fix>
</trkpt>
<trkpt lat="40.0713749" lon="-105.229789">
  <ele>1583.0</ele>
  <time>2026-08-28T17:48:37Z</time>
  <course>0.0</course>
  <speed>0.0</speed>
  <fix>3d</fix>
</trkpt>
<trkpt lat="40.0713749" lon="-105.229789">
  <ele>1583.0</ele>
  <time>2026-08-28T17:48:37Z</time>
  <course>247.98</course>
  <speed>0.022360679774997897</speed>
  <fix>3d</fix>
</trkpt>
<trkpt lat="40.0713749" lon="-105.229789">
  <ele>1583.0</ele>
  <time>2026-08-28T17:48:37Z</time>
  <course>0.0</course>
  <speed>0.0</speed>
  <fix>3d</fix>
</trkpt>
<trkpt lat="40.0713749" lon="-105.229789">
  <ele>1583.0</ele>
  <time>2026-08-28T17:48:37Z</time>
  <course>247.98</course>
  <speed>0.022360679774997897</speed>
  <fix>3d</fix>
</trkpt>
<trkpt lat="40.0713749" lon="-105.229789">
  <ele>1583.0</ele>
  <time>2026-08-28T17:48:37Z</time>
  <course>0.0</course>
  <speed>0.0</speed>
  <fix>3d</fix>
</trkpt>
<trkpt lat="40.0713749" lon="-105.229789">
  <ele>1583.0</ele>
  <time>2026-08-28T17:48:37Z</time>
  <course>247.97</course>
  <speed>0.022360679774997897</speed>
  <fix>3d</fix>
</trkpt>
<trkpt lat="40.0713749" lon="-105.229789">
  <ele>1583.0</ele>
  <time>2026-08-28T17:48:37Z</time>
  <course>0.0</course>
  <speed>0.0</speed>
  <fix>3d</fix>
</trkpt>
<trkpt lat="40.0713749" lon="-105.229789">
  <ele>1583.0</ele>
  <time>2026-08-28T17:48:37Z</time>
  <course>247.97</course>
  <speed>0.022360679774997897</speed>
  <fix>3d</fix>
</trkpt>
<trkpt lat="40.0713749" lon="-105.229789">
  <ele>1583.0</ele>
  <time>2026-08-28T17:48:37Z</time>
  <course>0.0</course>
  <speed>0.0</speed>
  <fix>3d</fix>
</trkpt>
<trkpt lat="40.0713749" lon="-105.229789">
  <ele>1583.0</ele>
  <time>2026-08-28T17:48:37Z</time>
  <course>247.96</course>
  <speed>0.022360679774997897</speed>
  <fix>3d</fix>
</trkpt>
<trkpt lat="40.0713749" lon="-105.229789">
  <ele>1583.0</ele>
  <time>2026-08-28T17:48:37Z</time>
  <course>0.0</course>
  <speed>0.0</speed>
  <fix>3d</fix>
</trkpt>
<trkpt lat="40.0713749" lon="-105.229789">
  <ele>1583.0</ele>
  <time>2026-08-28T17:48:37Z</time>
  <course>247.96</course>
  <speed>0.022360679774997897</speed>
  <fix>3d</fix>
</trkpt>
<trkpt lat="40.0713749" lon="-105.229789">
  <ele>1583.0</ele>
  <time>2026-08-28T17:48:37Z</time>
  <course>0.0</course>
  <speed>0.0</speed>
  <fix>3d</fix>
</trkpt>
<trkpt lat="40.0713749" lon="-105.229789">
  <ele>1583.0</ele>
  <time>2026-08-28T17:48:37Z</time>
  <course>247.95</course>
  <speed>0.022360679774997897</speed>
  <fix>3d</fix>
</trkpt>
<trkpt lat="40.0713749" lon="-105.229789">
  <ele>1583.0</ele>
  <time>2026-08-28T17:48:37Z</time>
  <course>0.0</course>
  <speed>0.0</speed>
  <fix>3d</fix>
</trkpt>
<trkpt lat="40.0713749" lon="-105.229789">
  <ele>1583.0</ele>
  <time>2026-08-28T17:48:37Z</time>
  <course>247.95</course>
  <speed>0.022360679774997897</speed>
  <fix>3d</fix>
</trkpt>
<trkpt lat="40.0713749" lon="-105.229789">
  <ele>1583.0</ele>
  <time>2026-08-28T17:48:37Z</time>
  <course>0.0</course>
  <speed>0.0</speed>
  <fix>3d</fix>
</trkpt>
<trkpt lat="40.0713749" lon="-105.229789">
  <ele>1583.0</ele>
  <time>2026-08-28T17:48:37Z</time>
  <course>247.95</course>
  <speed>0.022360679774997897</speed>
  <fix>3d</fix>
</trkpt>
<trkpt lat="40.0713749" lon="-105.229789">
  <ele>1583.0</ele>
  <time>2026-08-28T17:48:37Z</time>
  <course>0.0</course>
  <speed>0.0</speed>
  <fix>3d</fix>
</trkpt>
<trkpt lat="40.0713749" lon="-105.229789">
  <ele>1583.0</ele>
  <time>2026-08-28T17:48:37Z</time>
  <course>247.94</course>
  <speed>0.022360679774997897</speed>
  <fix>3d</fix>
</trkpt>
<trkpt lat="40.0713749" lon="-105.229789">
  <ele>1583.0</ele>
  <time>2026-08-28T17:48:37Z</time>
  <course>0.0</course>
  <speed>0.0</speed>
  <fix>3d</fix>
</trkpt>
<trkpt lat="40.0713749" lon="-105.229789">
  <ele>1583.0</ele>
  <time>2026-08-28T17:48:37Z</time>
  <course>247.94</course>
  <speed>0.022360679774997897</speed>
  <fix>3d</fix>
</trkpt>
<trkpt lat="40.0713749" lon="-105.229789">
  <ele>1583.0</ele>
  <time>2026-08-28T17:48:37Z</time>
  <course>0.0</course>
  <speed>0.0</speed>
  <fix>3d</fix>
</trkpt>
<trkpt lat="40.0713749" lon="-105.229789">
  <ele>1583.0</ele>
  <time>2026-08-28T17:48:37Z</time>
  <course>247.93</course>
  <speed>0.022360679774997897</speed>
  <fix>3d</fix>
</trkpt>
<trkpt lat="40.0713749" lon="-105.229789">
  <ele>1583.0</ele>
  <time>2026-08-28T17:48:37Z</time>
  <course>0.0</course>
  <speed>0.0</speed>
  <fix>3d</fix>
</trkpt>
<trkpt lat="40.0713749" lon="-105.229789">
  <ele>1583.0</ele>
  <time>2026-08-28T17:48:37Z</time>
  <course>247.93</course>
  <speed>0.022360679774997897</speed>
  <fix>3d</fix>
</trkpt>
<trkpt lat="40.0713749" lon="-105.229789">
  <ele>1583.0</ele>
  <time>2026-08-28T17:48:37Z</time>
  <course>0.0</course>
  <speed>0.0</speed>
  <fix>3d</fix>
</trkpt>
<trkpt lat="40.0713749" lon="-105.229789">
  <ele>1583.0</ele>
  <time>2026-08-28T17:48:37Z</time>
  <course>247.92</course>
  <speed>0.022360679774997897</speed>
  <fix>3d</fix>
</trkpt>
<trkpt lat="40.0713749" lon="-105.229789">
  <ele>1583.0</ele>
  <time>2026-08-28T17:48:37Z</time>
  <course>0.0</course>
  <speed>0.0</speed>
  <fix>3d</fix>
</trkpt>
<trkpt lat="40.0713749" lon="-105.229789">
  <ele>1583.0</ele>
  <time>2026-08-28T17:48:37Z</time>
  <course>247.92</course>
  <speed>0.022360679774997897</speed>
  <fix>3d</fix>
</trkpt>
<trkpt lat="40.0713749" lon="-105.229789">
  <ele>1583.0</ele>
  <time>2026-08-28T17:48:37Z</time>
  <course>0.0</course>
  <speed>0.0</speed>
  <fix>3d</fix>
</trkpt>
<trkpt lat="40.0713749" lon="-105.229789">
  <ele>1583.0</ele>
  <time>2026-08-28T17:48:37Z</time>
  <course>247.92</course>
  <speed>0.022360679774997897</speed>
  <fix>3d</fix>
</trkpt>
<trkpt lat="40.0713749" lon="-105.229789">
  <ele>1583.0</ele>
  <time>2026-08-28T17:48:37Z</time>
  <course>0.0</course>
  <speed>0.0</speed>
  <fix>3d</fix>
</trkpt>
<trkpt lat="40.0713749" lon="-105.229789">
  <ele>1583.0</ele>
  <time>2026-08-28T17:48:37Z</time>
  <course>247.91</course>
  <speed>0.022360679774997897</speed>
  <fix>3d</fix>
</trkpt>
<trkpt lat="40.0713749" lon="-105.229789">
  <ele>1583.0</ele>
  <time>2026-08-28T17:48:37Z</time>
  <course>0.0</course>
  <speed>0.0</speed>
  <fix>3d</fix>
</trkpt>
<trkpt lat="40.0713749" lon="-105.229789">
  <ele>1583.0</ele>
  <time>2026-08-28T17:48:37Z</time>
  <course>247.91</course>
  <speed>0.022360679774997897</speed>
  <fix>3d</fix>
</trkpt>
<trkpt lat="40.0713749" lon="-105.229789">
  <ele>1583.0</ele>
  <time>2026-08-28T17:48:37Z</time>
  <course>0.0</course>
  <speed>0.0</speed>
  <fix>3d</fix>
</trkpt>
<trkpt lat="40.0713749" lon="-105.229789">
  <ele>1583.0</ele>
  <time>2026-08-28T17:48:37Z</time>
  <course>247.9</course>
  <speed>0.022360679774997897</speed>
  <fix>3d</fix>
</trkpt>
<trkpt lat="40.0713749" lon="-105.229789">
  <ele>1583.0</ele>
  <time>2026-08-28T17:48:37Z</time>
  <course>0.0</course>
  <speed>0.0</speed>
  <fix>3d</fix>
</trkpt>
<trkpt lat="40.0713749" lon="-105.229789">
  <ele>1583.0</ele>
  <time>2026-08-28T17:48:37Z</time>
  <course>247.9</course>
  <speed>0.022360679774997897</speed>
  <fix>3d</fix>
</trkpt>
<trkpt lat="40.0713749" lon="-105.229789">
  <ele>1583.0</ele>
  <time>2026-08-28T17:48:37Z</time>
  <course>0.0</course>
  <speed>0.0</speed>
  <fix>3d</fix>
</trkpt>
<trkpt lat="40.0713749" lon="-105.229789">
  <ele>1583.0</ele>
  <time>2026-08-28T17:48:37Z</time>
  <course>247.89</course>
  <speed>0.022360679774997897</speed>
  <fix>3d</fix>
</trkpt>
<trkpt lat="40.0713749" lon="-105.229789">
  <ele>1583.0</ele>
  <time>2026-08-28T17:48:37Z</time>
  <course>0.0</course>
  <speed>0.0</speed>
  <fix>3d</fix>
</trkpt>
<trkpt lat="40.0713749" lon="-105.229789">
  <ele>1583.0</ele>
  <time>2026-08-28T17:48:37Z</time>
  <course>247.89</course>
  <speed>0.022360679774997897</speed>
  <fix>3d</fix>
</trkpt>
<trkpt lat="40.0713749" lon="-105.229789">
  <ele>1583.0</ele>
  <time>2026-08-28T17:48:37Z</time>
  <course>0.0</course>
  <speed>0.0</speed>
  <fix>3d</fix>
</trkpt>
<trkpt lat="40.0713749" lon="-105.229789">
  <ele>1583.0</ele>
  <time>2026-08-28T17:48:37Z</time>
  <course>247.89</course>
  <speed>0.022360679774997897</speed>
  <fix>3d</fix>
</trkpt>
<trkpt lat="40.0713749" lon="-105.229789">
  <ele>1583.0</ele>
  <time>2026-08-28T17:48:37Z</time>
  <course>0.0</course>
  <speed>0.0</speed>
  <fix>3d</fix>
</trkpt>
<trkpt lat="40.0713749" lon="-105.229789">
  <ele>1583.0</ele>
  <time>2026-08-28T17:48:37Z</time>
  <course>247.88</course>
  <speed>0.0316227766016838</speed>
  <fix>3d</fix>
</trkpt>
<trkpt lat="40.0713749" lon="-105.229789">
  <ele>1583.0</ele>
  <time>2026-08-28T17:48:37Z</time>
  <course>0.0</course>
  <speed>0.0</speed>
  <fix>3d</fix>
</trkpt>
<trkpt lat="40.0713749" lon="-105.229789">
  <ele>1583.0</ele>
  <time>2026-08-28T17:48:37Z</time>
  <course>247.88</course>
  <speed>0.0316227766016838</speed>
  <fix>3d</fix>
</trkpt>
<trkpt lat="40.0713749" lon="-105.229789">
  <ele>1583.0</ele>
  <time>2026-08-28T17:48:37Z</time>
  <course>0.0</course>
  <speed>0.0</speed>
  <fix>3d</fix>
</trkpt>
<trkpt lat="40.0713749" lon="-105.229789">
  <ele>1583.0</ele>
  <time>2026-08-28T17:48:37Z</time>
  <course>247.87</course>
  <speed>0.0316227766016838</speed>
  <fix>3d</fix>
</trkpt>
<trkpt lat="40.0713749" lon="-105.229789">
  <ele>1583.0</ele>
  <time>2026-08-28T17:48:37Z</time>
  <course>0.0</course>
  <speed>0.0</speed>
  <fix>3d</fix>
</trkpt>
<trkpt lat="40.0713749" lon="-105.229789">
  <ele>1583.0</ele>
  <time>2026-08-28T17:48:37Z</time>
  <course>247.87</course>
  <speed>0.0316227766016838</speed>
  <fix>3d</fix>
</trkpt>
<trkpt lat="40.0713749" lon="-105.229789">
  <ele>1583.0</ele>
  <time>2026-08-28T17:48:37Z</time>
  <course>0.0</course>
  <speed>0.0</speed>
  <fix>3d</fix>
</trkpt>
<trkpt lat="40.0713749" lon="-105.229789">
  <ele>1583.0</ele>
  <time>2026-08-28T17:48:37Z</time>
  <course>247.87</course>
  <speed>0.0316227766016838</speed>
  <fix>3d</fix>
</trkpt>
<trkpt lat="40.0713749" lon="-105.229789">
  <ele>1583.0</ele>
  <time>2026-08-28T17:48:37Z</time>
  <course>0.0</course>
  <speed>0.0</speed>
  <fix>3d</fix>
</trkpt>
<trkpt lat="40.0713749" lon="-105.229789">
  <ele>1583.0</ele>
  <time>2026-08-28T17:48:37Z</time>
  <course>247.86</course>
  <speed>0.0316227766016838</speed>
  <fix>3d</fix>
</trkpt>
<trkpt lat="40.0713749" lon="-105.229789">
  <ele>1583.0</ele>
  <time>2026-08-28T17:48:37Z</time>
  <course>0.0</course>
  <speed>0.0</speed>
  <fix>3d</fix>
</trkpt>
<trkpt lat="40.0713749" lon="-105.229789">
  <ele>1583.0</ele>
  <time>2026-08-28T17:48:37Z</time>
  <course>247.86</course>
  <speed>0.0316227766016838</speed>
  <fix>3d</fix>
</trkpt>
<trkpt lat="40.0713749" lon="-105.229789">
  <ele>1583.0</ele>
  <time>2026-08-28T17:48:37Z</time>
  <course>0.0</course>
  <speed>0.0</speed>
  <fix>3d</fix>
</trkpt>
<trkpt lat="40.0713749" lon="-105.229789">
  <ele>1583.0</ele>
  <time>2026-08-28T17:48:37Z</time>
  <course>247.85</course>
  <speed>0.0316227766016838</speed>
  <fix>3d</fix>
</trkpt>
<trkpt lat="40.0713749" lon="-105.229789">
  <ele>1583.0</ele>
  <time>2026-08-28T17:48:37Z</time>
  <course>0.0</course>
  <speed>0.0</speed>
  <fix>3d</fix>
</trkpt>
<trkpt lat="40.0713749" lon="-105.229789">
  <ele>1583.0</ele>
  <time>2026-08-28T17:48:37Z</time>
  <course>247.85</course>
  <speed>0.0316227766016838</speed>
  <fix>3d</fix>
</trkpt>
<trkpt lat="40.0713749" lon="-105.229789">
  <ele>1583.0</ele>
  <time>2026-08-28T17:48:37Z</time>
  <course>0.0</course>
  <speed>0.0</speed>
  <fix>3d</fix>
</trkpt>
<trkpt lat="40.0713749" lon="-105.229789">
  <ele>1583.0</ele>
  <time>2026-08-28T17:48:37Z</time>
  <course>247.85</course>
  <speed>0.0316227766016838</speed>
  <fix>3d</fix>
</trkpt>
<trkpt lat="40.0713749" lon="-105.229789">
  <ele>1583.0</ele>
  <time>2026-08-28T17:48:37Z</time>
  <course>0.0</course>
  <speed>0.0</speed>
  <fix>3d</fix>
</trkpt>
<trkpt lat="40.0713749" lon="-105.229789">
  <ele>1583.0</ele>
  <time>2026-08-28T17:48:37Z</time>
  <course>247.84</course>
  <speed>0.0316227766016838</speed>
  <fix>3d</fix>
</trkpt>
<trkpt lat="40.0713749" lon="-105.229789">
  <ele>1583.0</ele>
  <time>2026-08-28T17:48:37Z</time>
  <course>0.0</course>
  <speed>0.0</speed>
  <fix>3d</fix>
</trkpt>
<trkpt lat="40.0713749" lon="-105.229789">
  <ele>1583.0</ele>
  <time>2026-08-28T17:48:37Z</time>
  <course>247.84</course>
  <speed>0.0316227766016838</speed>
  <fix>3d</fix>
</trkpt>
<trkpt lat="40.0713749" lon="-105.229789">
  <ele>1583.0</ele>
  <time>2026-08-28T17:48:37Z</time>
  <course>0.0</course>
  <speed>0.0</speed>
  <fix>3d</fix>
</trkpt>
<trkpt lat="40.0713749" lon="-105.229789">
  <ele>1583.0</ele>
  <time>2026-08-28T17:48:37Z</time>
  <course>247.83</course>
  <speed>0.0316227766016838</speed>
  <fix>3d</fix>
</trkpt>
<trkpt lat="40.0713749" lon="-105.229789">
  <ele>1583.0</ele>
  <time>2026-08-28T17:48:37Z</time>
  <course>0.0</course>
  <speed>0.0</speed>
  <fix>3d</fix>
</trkpt>
<trkpt lat="40.0713749" lon="-105.229789">
  <ele>1583.0</ele>
  <time>2026-08-28T17:48:37Z</time>
  <course>247.83</course>
  <speed>0.0316227766016838</speed>
  <fix>3d</fix>
</trkpt>
<trkpt lat="40.0713749" lon="-105.229789">
  <ele>1583.0</ele>
  <time>2026-08-28T17:48:37Z</time>
  <course>0.0</course>
  <speed>0.0</speed>
  <fix>3d</fix>
</trkpt>
<trkpt lat="40.0713749" lon="-105.229789">
  <ele>1583.0</ele>
  <time>2026-08-28T17:48:37Z</time>
  <course>247.83</course>
  <speed>0.0316227766016838</speed>
  <fix>3d</fix>
</trkpt>
<trkpt lat="40.0713749" lon="-105.229789">
  <ele>1583.0</ele>
  <time>2026-08-28T17:48:37Z</time>
  <course>0.0</course>
  <speed>0.0</speed>
  <fix>3d</fix>
</trkpt>
<trkpt lat="40.0713749" lon="-105.229789">
  <ele>1583.0</ele>
  <time>2026-08-28T17:48:37Z</time>
  <course>247.82</course>
  <speed>0.0316227766016838</speed>
  <fix>3d</fix>
</trkpt>
<trkpt lat="40.0713749" lon="-105.229789">
  <ele>1583.0</ele>
  <time>2026-08-28T17:48:37Z</time>
  <course>0.0</course>
  <speed>0.0</speed>
  <fix>3d</fix>
</trkpt>
<trkpt lat="40.0713749" lon="-105.229789">
  <ele>1583.0</ele>
  <time>2026-08-28T17:48:37Z</time>
  <course>247.82</course>
  <speed>0.0316227766016838</speed>
  <fix>3d</fix>
</trkpt>
<trkpt lat="40.0713749" lon="-105.229789">
  <ele>1583.0</ele>
  <time>2026-08-28T17:48:37Z</time>
  <course>0.0</course>
  <speed>0.0</speed>
  <fix>3d</fix>
</trkpt>
<trkpt lat="40.0713749" lon="-105.229789">
  <ele>1583.0</ele>
  <time>2026-08-28T17:48:37Z</time>
  <course>247.82</course>
  <speed>0.0316227766016838</speed>
  <fix>3d</fix>
</trkpt>
<trkpt lat="40.0713749" lon="-105.229789">
  <ele>1583.0</ele>
  <time>2026-08-28T17:48:37Z</time>
  <course>0.0</course>
  <speed>0.0</speed>
  <fix>3d</fix>
</trkpt>
<trkpt lat="40.0713749" lon="-105.229789">
  <ele>1583.0</ele>
  <time>2026-08-28T17:48:37Z</time>
  <course>247.81</course>
  <speed>0.0316227766016838</speed>
  <fix>3d</fix>
</trkpt>
<trkpt lat="40.0713749" lon="-105.229789">
  <ele>1583.0</ele>
  <time>2026-08-28T17:48:37Z</time>
  <course>0.0</course>
  <speed>0.0</speed>
  <fix>3d</fix>
</trkpt>
<trkpt lat="40.0713749" lon="-105.229789">
  <ele>1583.0</ele>
  <time>2026-08-28T17:48:37Z</time>
  <course>247.81</course>
  <speed>0.0316227766016838</speed>
  <fix>3d</fix>
</trkpt>
<trkpt lat="40.0713749" lon="-105.229789">
  <ele>1583.0</ele>
  <time>2026-08-28T17:48:37Z</time>
  <course>0.0</course>
  <speed>0.0</speed>
  <fix>3d</fix>
</trkpt>
<trkpt lat="40.0713749" lon="-105.229789">
  <ele>1583.0</ele>
  <time>2026-08-28T17:48:37Z</time>
  <course>247.8</course>
  <speed>0.0316227766016838</speed>
  <fix>3d</fix>
</trkpt>
<trkpt lat="40.0713749" lon="-105.229789">
  <ele>1583.0</ele>
  <time>2026-08-28T17:48:37Z</time>
  <course>0.0</course>
  <speed>0.0</speed>
  <fix>3d</fix>
</trkpt>
<trkpt lat="40.0713749" lon="-105.229789">
  <ele>1583.0</ele>
  <time>2026-08-28T17:48:37Z</time>
  <course>247.8</course>
  <speed>0.0316227766016838</speed>
  <fix>3d</fix>
</trkpt>
<trkpt lat="40.0713749" lon="-105.229789">
  <ele>1583.0</ele>
  <time>2026-08-28T17:48:37Z</time>
  <course>0.0</course>
  <speed>0.0</speed>
  <fix>3d</fix>
</trkpt>
<trkpt lat="40.0713749" lon="-105.229789">
  <ele>1583.0</ele>
  <time>2026-08-28T17:48:37Z</time>
  <course>247.8</course>
  <speed>0.0316227766016838</speed>
  <fix>3d</fix>
</trkpt>
<trkpt lat="40.0713749" lon="-105.229789">
  <ele>1583.0</ele>
  <time>2026-08-28T17:48:37Z</time>
  <course>0.0</course>
  <speed>0.0</speed>
  <fix>3d</fix>
</trkpt>
<trkpt lat="40.0713749" lon="-105.229789">
  <ele>1583.0</ele>
  <time>2026-08-28T17:48:37Z</time>
  <course>247.79</course>
  <speed>0.0316227766016838</speed>
  <fix>3d</fix>
</trkpt>
<trkpt lat="40.0713749" lon="-105.229789">
  <ele>1583.0</ele>
  <time>2026-08-28T17:48:37Z</time>
  <course>0.0</course>
  <speed>0.0</speed>
  <fix>3d</fix>
</trkpt>
<trkpt lat="40.0713749" lon="-105.229789">
  <ele>1583.0</ele>
  <time>2026-08-28T17:48:37Z</time>
  <course>247.79</course>
  <speed>0.0316227766016838</speed>
  <fix>3d</fix>
</trkpt>
<trkpt lat="40.0713749" lon="-105.229789">
  <ele>1583.0</ele>
  <time>2026-08-28T17:48:37Z</time>
  <course>0.0</course>
  <speed>0.0</speed>
  <fix>3d</fix>
</trkpt>
<trkpt lat="40.0713749" lon="-105.229789">
  <ele>1583.0</ele>
  <time>2026-08-28T17:48:37Z</time>
  <course>247.79</course>
  <speed>0.0316227766016838</speed>
  <fix>3d</fix>
</trkpt>
<trkpt lat="40.0713749" lon="-105.229789">
  <ele>1583.0</ele>
  <time>2026-08-28T17:48:37Z</time>
  <course>0.0</course>
  <speed>0.0</speed>
  <fix>3d</fix>
</trkpt>
<trkpt lat="40.0713749" lon="-105.229789">
  <ele>1583.0</ele>
  <time>2026-08-28T17:48:37Z</time>
  <course>247.78</course>
  <speed>0.0316227766016838</speed>
  <fix>3d</fix>
</trkpt>
<trkpt lat="40.0713749" lon="-105.229789">
  <ele>1583.0</ele>
  <time>2026-08-28T17:48:37Z</time>
  <course>0.0</course>
  <speed>0.0</speed>
  <fix>3d</fix>
</trkpt>
<trkpt lat="40.0713749" lon="-105.229789">
  <ele>1583.0</ele>
  <time>2026-08-28T17:48:37Z</time>
  <course>247.78</course>
  <speed>0.0316227766016838</speed>
  <fix>3d</fix>
</trkpt>
<trkpt lat="40.0713749" lon="-105.229789">
  <ele>1583.0</ele>
  <time>2026-08-28T17:48:37Z</time>
  <course>0.0</course>
  <speed>0.0</speed>
  <fix>3d</fix>
</trkpt>
<trkpt lat="40.0713749" lon="-105.229789">
  <ele>1583.0</ele>
  <time>2026-08-28T17:48:37Z</time>
  <course>247.78</course>
  <speed>0.0316227766016838</speed>
  <fix>3d</fix>
</trkpt>
<trkpt lat="40.0713749" lon="-105.229789">
  <ele>1583.0</ele>
  <time>2026-08-28T17:48:37Z</time>
  <course>0.0</course>
  <speed>0.0</speed>
  <fix>3d</fix>
</trkpt>
<trkpt lat="40.0713749" lon="-105.229789">
  <ele>1583.0</ele>
  <time>2026-08-28T17:48:37Z</time>
  <course>247.77</course>
  <speed>0.0316227766016838</speed>
  <fix>3d</fix>
</trkpt>
<trkpt lat="40.0713749" lon="-105.229789">
  <ele>1583.0</ele>
  <time>2026-08-28T17:48:37Z</time>
  <course>0.0</course>
  <speed>0.0</speed>
  <fix>3d</fix>
</trkpt>
<trkpt lat="40.0713749" lon="-105.229789">
  <ele>1583.0</ele>
  <time>2026-08-28T17:48:37Z</time>
  <course>247.77</course>
  <speed>0.0316227766016838</speed>
  <fix>3d</fix>
</trkpt>
<trkpt lat="40.0713749" lon="-105.229789">
  <ele>1583.0</ele>
  <time>2026-08-28T17:48:37Z</time>
  <course>0.0</course>
  <speed>0.0</speed>
  <fix>3d</fix>
</trkpt>
<trkpt lat="40.0713749" lon="-105.229789">
  <ele>1583.0</ele>
  <time>2026-08-28T17:48:37Z</time>
  <course>247.76</course>
  <speed>0.0316227766016838</speed>
  <fix>3d</fix>
</trkpt>
<trkpt lat="40.0713749" lon="-105.229789">
  <ele>1583.0</ele>
  <time>2026-08-28T17:48:37Z</time>
  <course>0.0</course>
  <speed>0.0</speed>
  <fix>3d</fix>
</trkpt>
<trkpt lat="40.0713749" lon="-105.229789">
  <ele>1583.0</ele>
  <time>2026-08-28T17:48:37Z</time>
  <course>247.76</course>
  <speed>0.0316227766016838</speed>
  <fix>3d</fix>
</trkpt>
<trkpt lat="40.0713749" lon="-105.229789">
  <ele>1583.0</ele>
  <time>2026-08-28T17:48:37Z</time>
  <course>0.0</course>
  <speed>0.0</speed>
  <fix>3d</fix>
</trkpt>
<trkpt lat="40.0713749" lon="-105.229789">
  <ele>1583.0</ele>
  <time>2026-08-28T17:48:37Z</time>
  <course>247.76</course>
  <speed>0.0316227766016838</speed>
  <fix>3d</fix>
</trkpt>
<trkpt lat="40.0713749" lon="-105.229789">
  <ele>1583.0</ele>
  <time>2026-08-28T17:48:37Z</time>
  <course>0.0</course>
  <speed>0.0</speed>
  <fix>3d</fix>
</trkpt>
<trkpt lat="40.0713749" lon="-105.229789">
  <ele>1583.0</ele>
  <time>2026-08-28T17:48:37Z</time>
  <course>247.75</course>
  <speed>0.0316227766016838</speed>
  <fix>3d</fix>
</trkpt>
<trkpt lat="40.0713749" lon="-105.229789">
  <ele>1583.0</ele>
  <time>2026-08-28T17:48:37Z</time>
  <course>0.0</course>
  <speed>0.0</speed>
  <fix>3d</fix>
</trkpt>
<trkpt lat="40.0713749" lon="-105.229789">
  <ele>1583.0</ele>
  <time>2026-08-28T17:48:37Z</time>
  <course>247.75</course>
  <speed>0.0316227766016838</speed>
  <fix>3d</fix>
</trkpt>
<trkpt lat="40.0713749" lon="-105.229789">
  <ele>1583.0</ele>
  <time>2026-08-28T17:48:37Z</time>
  <course>0.0</course>
  <speed>0.0</speed>
  <fix>3d</fix>
</trkpt>
<trkpt lat="40.0713749" lon="-105.229789">
  <ele>1583.0</ele>
  <time>2026-08-28T17:48:37Z</time>
  <course>247.75</course>
  <speed>0.0316227766016838</speed>
  <fix>3d</fix>
</trkpt>
<trkpt lat="40.0713749" lon="-105.229789">
  <ele>1583.0</ele>
  <time>2026-08-28T17:48:37Z</time>
  <course>0.0</course>
  <speed>0.0</speed>
  <fix>3d</fix>
</trkpt>
<trkpt lat="40.0713749" lon="-105.229789">
  <ele>1583.0</ele>
  <time>2026-08-28T17:48:37Z</time>
  <course>247.74</course>
  <speed>0.0316227766016838</speed>
  <fix>3d</fix>
</trkpt>
<trkpt lat="40.0713749" lon="-105.229789">
  <ele>1583.0</ele>
  <time>2026-08-28T17:48:37Z</time>
  <course>0.0</course>
  <speed>0.0</speed>
  <fix>3d</fix>
</trkpt>
<trkpt lat="40.0713749" lon="-105.229789">
  <ele>1583.0</ele>
  <time>2026-08-28T17:48:37Z</time>
  <course>247.74</course>
  <speed>0.0316227766016838</speed>
  <fix>3d</fix>
</trkpt>
<trkpt lat="40.0713749" lon="-105.229789">
  <ele>1583.0</ele>
  <time>2026-08-28T17:48:37Z</time>
  <course>0.0</course>
  <speed>0.0</speed>
  <fix>3d</fix>
</trkpt>
<trkpt lat="40.0713749" lon="-105.229789">
  <ele>1583.0</ele>
  <time>2026-08-28T17:48:37Z</time>
  <course>247.74</course>
  <speed>0.0316227766016838</speed>
  <fix>3d</fix>
</trkpt>
<trkpt lat="40.0713749" lon="-105.229789">
  <ele>1583.0</ele>
  <time>2026-08-28T17:48:37Z</time>
  <course>0.0</course>
  <speed>0.0</speed>
  <fix>3d</fix>
</trkpt>
<trkpt lat="40.0713749" lon="-105.229789">
  <ele>1583.0</ele>
  <time>2026-08-28T17:48:37Z</time>
  <course>247.73</course>
  <speed>0.0316227766016838</speed>
  <fix>3d</fix>
</trkpt>
<trkpt lat="40.0713749" lon="-105.229789">
  <ele>1583.0</ele>
  <time>2026-08-28T17:48:37Z</time>
  <course>0.0</course>
  <speed>0.0</speed>
  <fix>3d</fix>
</trkpt>
<trkpt lat="40.0713749" lon="-105.229789">
  <ele>1583.0</ele>
  <time>2026-08-28T17:48:37Z</time>
  <course>247.73</course>
  <speed>0.0316227766016838</speed>
  <fix>3d</fix>
</trkpt>
<trkpt lat="40.0713749" lon="-105.229789">
  <ele>1583.0</ele>
  <time>2026-08-28T17:48:37Z</time>
  <course>0.0</course>
  <speed>0.0</speed>
  <fix>3d</fix>
</trkpt>
<trkpt lat="40.0713749" lon="-105.229789">
  <ele>1583.0</ele>
  <time>2026-08-28T17:48:37Z</time>
  <course>247.73</course>
  <speed>0.0316227766016838</speed>
  <fix>3d</fix>
</trkpt>
<trkpt lat="40.0713749" lon="-105.229789">
  <ele>1583.0</ele>
  <time>2026-08-28T17:48:37Z</time>
  <course>0.0</course>
  <speed>0.0</speed>
  <fix>3d</fix>
</trkpt>
<trkpt lat="40.0713749" lon="-105.229789">
  <ele>1583.0</ele>
  <time>2026-08-28T17:48:37Z</time>
  <course>247.72</course>
  <speed>0.0316227766016838</speed>
  <fix>3d</fix>
</trkpt>
<trkpt lat="40.0713749" lon="-105.229789">
  <ele>1583.0</ele>
  <time>2026-08-28T17:48:37Z</time>
  <course>0.0</course>
  <speed>0.0</speed>
  <fix>3d</fix>
</trkpt>
<trkpt lat="40.0713749" lon="-105.229789">
  <ele>1583.0</ele>
  <time>2026-08-28T17:48:37Z</time>
  <course>247.72</course>
  <speed>0.0316227766016838</speed>
  <fix>3d</fix>
</trkpt>
<trkpt lat="40.0713749" lon="-105.229789">
  <ele>1583.0</ele>
  <time>2026-08-28T17:48:37Z</time>
  <course>0.0</course>
  <speed>0.0</speed>
  <fix>3d</fix>
</trkpt>
<trkpt lat="40.0713749" lon="-105.229789">
  <ele>1583.0</ele>
  <time>2026-08-28T17:48:37Z</time>
  <course>247.72</course>
  <speed>0.0316227766016838</speed>
  <fix>3d</fix>
</trkpt>
<trkpt lat="40.0713749" lon="-105.229789">
  <ele>1583.0</ele>
  <time>2026-08-28T17:48:37Z</time>
  <course>0.0</course>
  <speed>0.0</speed>
  <fix>3d</fix>
</trkpt>
<trkpt lat="40.0713749" lon="-105.229789">
  <ele>1583.0</ele>
  <time>2026-08-28T17:48:37Z</time>
  <course>247.71</course>
  <speed>0.0316227766016838</speed>
  <fix>3d</fix>
</trkpt>
<trkpt lat="40.0713749" lon="-105.229789">
  <ele>1583.0</ele>
  <time>2026-08-28T17:48:37Z</time>
  <course>0.0</course>
  <speed>0.0</speed>
  <fix>3d</fix>
</trkpt>
<trkpt lat="40.0713749" lon="-105.229789">
  <ele>1583.0</ele>
  <time>2026-08-28T17:48:37Z</time>
  <course>247.71</course>
  <speed>0.0316227766016838</speed>
  <fix>3d</fix>
</trkpt>
<trkpt lat="40.0713749" lon="-105.229789">
  <ele>1583.0</ele>
  <time>2026-08-28T17:48:37Z</time>
  <course>0.0</course>
  <speed>0.0</speed>
  <fix>3d</fix>
</trkpt>
<trkpt lat="40.0713749" lon="-105.229789">
  <ele>1583.0</ele>
  <time>2026-08-28T17:48:37Z</time>
  <course>247.71</course>
  <speed>0.0316227766016838</speed>
  <fix>3d</fix>
</trkpt>
<trkpt lat="40.0713749" lon="-105.229789">
  <ele>1583.0</ele>
  <time>2026-08-28T17:48:37Z</time>
  <course>0.0</course>
  <speed>0.0</speed>
  <fix>3d</fix>
</trkpt>
<trkpt lat="40.0713749" lon="-105.229789">
  <ele>1583.0</ele>
  <time>2026-08-28T17:48:37Z</time>
  <course>247.7</course>
  <speed>0.0316227766016838</speed>
  <fix>3d</fix>
</trkpt>
<trkpt lat="40.0713749" lon="-105.229789">
  <ele>1583.0</ele>
  <time>2026-08-28T17:48:37Z</time>
  <course>0.0</course>
  <speed>0.0</speed>
  <fix>3d</fix>
</trkpt>
<trkpt lat="40.0713749" lon="-105.229789">
  <ele>1583.0</ele>
  <time>2026-08-28T17:48:37Z</time>
  <course>247.7</course>
  <speed>0.0316227766016838</speed>
  <fix>3d</fix>
</trkpt>
<trkpt lat="40.0713749" lon="-105.229789">
  <ele>1583.0</ele>
  <time>2026-08-28T17:48:37Z</time>
  <course>0.0</course>
  <speed>0.0</speed>
  <fix>3d</fix>
</trkpt>
<trkpt lat="40.0713749" lon="-105.229789">
  <ele>1583.0</ele>
  <time>2026-08-28T17:48:37Z</time>
  <course>247.7</course>
  <speed>0.0316227766016838</speed>
  <fix>3d</fix>
</trkpt>
<trkpt lat="40.0713749" lon="-105.229789">
  <ele>1583.0</ele>
  <time>2026-08-28T17:48:37Z</time>
  <course>0.0</course>
  <speed>0.0</speed>
  <fix>3d</fix>
</trkpt>
<trkpt lat="40.0713749" lon="-105.229789">
  <ele>1583.0</ele>
  <time>2026-08-28T17:48:37Z</time>
  <course>247.69</course>
  <speed>0.0316227766016838</speed>
  <fix>3d</fix>
</trkpt>
<trkpt lat="40.0713749" lon="-105.229789">
  <ele>1583.0</ele>
  <time>2026-08-28T17:48:37Z</time>
  <course>0.0</course>
  <speed>0.0</speed>
  <fix>3d</fix>
</trkpt>
<trkpt lat="40.0713749" lon="-105.229789">
  <ele>1583.0</ele>
  <time>2026-08-28T17:48:37Z</time>
  <course>247.69</course>
  <speed>0.0316227766016838</speed>
  <fix>3d</fix>
</trkpt>
<trkpt lat="40.0713749" lon="-105.229789">
  <ele>1583.0</ele>
  <time>2026-08-28T17:48:37Z</time>
  <course>0.0</course>
  <speed>0.0</speed>
  <fix>3d</fix>
</trkpt>
<trkpt lat="40.0713749" lon="-105.229789">
  <ele>1583.0</ele>
  <time>2026-08-28T17:48:37Z</time>
  <course>247.69</course>
  <speed>0.0316227766016838</speed>
  <fix>3d</fix>
</trkpt>
<trkpt lat="40.0713749" lon="-105.229789">
  <ele>1583.0</ele>
  <time>2026-08-28T17:48:37Z</time>
  <course>0.0</course>
  <speed>0.0</speed>
  <fix>3d</fix>
</trkpt>
<trkpt lat="40.0713749" lon="-105.229789">
  <ele>1583.0</ele>
  <time>2026-08-28T17:48:37Z</time>
  <course>247.68</course>
  <speed>0.0316227766016838</speed>
  <fix>3d</fix>
</trkpt>
<trkpt lat="40.0713749" lon="-105.229789">
  <ele>1583.0</ele>
  <time>2026-08-28T17:48:37Z</time>
  <course>0.0</course>
  <speed>0.0</speed>
  <fix>3d</fix>
</trkpt>
<trkpt lat="40.0713749" lon="-105.229789">
  <ele>1583.0</ele>
  <time>2026-08-28T17:48:37Z</time>
  <course>247.68</course>
  <speed>0.0316227766016838</speed>
  <fix>3d</fix>
</trkpt>
<trkpt lat="40.0713749" lon="-105.229789">
  <ele>1583.0</ele>
  <time>2026-08-28T17:48:37Z</time>
  <course>0.0</course>
  <speed>0.0</speed>
  <fix>3d</fix>
</trkpt>
<trkpt lat="40.0713749" lon="-105.229789">
  <ele>1583.0</ele>
  <time>2026-08-28T17:48:37Z</time>
  <course>247.68</course>
  <speed>0.0316227766016838</speed>
  <fix>3d</fix>
</trkpt>
<trkpt lat="40.0713749" lon="-105.229789">
  <ele>1583.0</ele>
  <time>2026-08-28T17:48:37Z</time>
  <course>0.0</course>
  <speed>0.0</speed>
  <fix>3d</fix>
</trkpt>
<trkpt lat="40.0713749" lon="-105.229789">
  <ele>1583.0</ele>
  <time>2026-08-28T17:48:37Z</time>
  <course>247.67</course>
  <speed>0.0316227766016838</speed>
  <fix>3d</fix>
</trkpt>
<trkpt lat="40.0713749" lon="-105.229789">
  <ele>1583.0</ele>
  <time>2026-08-28T17:48:37Z</time>
  <course>0.0</course>
  <speed>0.0</speed>
  <fix>3d</fix>
</trkpt>
<trkpt lat="40.0713749" lon="-105.229789">
  <ele>1583.0</ele>
  <time>2026-08-28T17:48:37Z</time>
  <course>247.67</course>
  <speed>0.0316227766016838</speed>
  <fix>3d</fix>
</trkpt>
<trkpt lat="40.0713749" lon="-105.229789">
  <ele>1583.0</ele>
  <time>2026-08-28T17:48:37Z</time>
  <course>0.0</course>
  <speed>0.0</speed>
  <fix>3d</fix>
</trkpt>
<trkpt lat="40.0713749" lon="-105.229789">
  <ele>1583.0</ele>
  <time>2026-08-28T17:48:37Z</time>
  <course>247.67</course>
  <speed>0.0316227766016838</speed>
  <fix>3d</fix>
</trkpt>
<trkpt lat="40.0713749" lon="-105.229789">
  <ele>1583.0</ele>
  <time>2026-08-28T17:48:37Z</time>
  <course>0.0</course>
  <speed>0.0</speed>
  <fix>3d</fix>
</trkpt>
<trkpt lat="40.0713749" lon="-105.229789">
  <ele>1583.0</ele>
  <time>2026-08-28T17:48:37Z</time>
  <course>247.66</course>
  <speed>0.0316227766016838</speed>
  <fix>3d</fix>
</trkpt>
<trkpt lat="40.0713749" lon="-105.229789">
  <ele>1583.0</ele>
  <time>2026-08-28T17:48:37Z</time>
  <course>0.0</course>
  <speed>0.0</speed>
  <fix>3d</fix>
</trkpt>
<trkpt lat="40.0713749" lon="-105.229789">
  <ele>1583.0</ele>
  <time>2026-08-28T17:48:37Z</time>
  <course>247.66</course>
  <speed>0.0316227766016838</speed>
  <fix>3d</fix>
</trkpt>
<trkpt lat="40.0713749" lon="-105.229789">
  <ele>1583.0</ele>
  <time>2026-08-28T17:48:37Z</time>
  <course>0.0</course>
  <speed>0.0</speed>
  <fix>3d</fix>
</trkpt>
<trkpt lat="40.0713749" lon="-105.229789">
  <ele>1583.0</ele>
  <time>2026-08-28T17:48:37Z</time>
  <course>247.66</course>
  <speed>0.0316227766016838</speed>
  <fix>3d</fix>
</trkpt>
<trkpt lat="40.0713749" lon="-105.229789">
  <ele>1583.0</ele>
  <time>2026-08-28T17:48:37Z</time>
  <course>0.0</course>
  <speed>0.0</speed>
  <fix>3d</fix>
</trkpt>
<trkpt lat="40.0713749" lon="-105.229789">
  <ele>1583.0</ele>
  <time>2026-08-28T17:48:37Z</time>
  <course>247.65</course>
  <speed>0.0316227766016838</speed>
  <fix>3d</fix>
</trkpt>
<trkpt lat="40.0713749" lon="-105.229789">
  <ele>1583.0</ele>
  <time>2026-08-28T17:48:37Z</time>
  <course>0.0</course>
  <speed>0.0</speed>
  <fix>3d</fix>
</trkpt>
<trkpt lat="40.0713749" lon="-105.229789">
  <ele>1583.0</ele>
  <time>2026-08-28T17:48:37Z</time>
  <course>247.65</course>
  <speed>0.0316227766016838</speed>
  <fix>3d</fix>
</trkpt>
<trkpt lat="40.0713749" lon="-105.229789">
  <ele>1583.0</ele>
  <time>2026-08-28T17:48:37Z</time>
  <course>0.0</course>
  <speed>0.0</speed>
  <fix>3d</fix>
</trkpt>
<trkpt lat="40.0713749" lon="-105.229789">
  <ele>1583.0</ele>
  <time>2026-08-28T17:48:37Z</time>
  <course>247.65</course>
  <speed>0.0316227766016838</speed>
  <fix>3d</fix>
</trkpt>
<trkpt lat="40.0713749" lon="-105.229789">
  <ele>1583.0</ele>
  <time>2026-08-28T17:48:37Z</time>
  <course>0.0</course>
  <speed>0.0</speed>
  <fix>3d</fix>
</trkpt>
<trkpt lat="40.0713749" lon="-105.229789">
  <ele>1583.0</ele>
  <time>2026-08-28T17:48:37Z</time>
  <course>247.64</course>
  <speed>0.0316227766016838</speed>
  <fix>3d</fix>
</trkpt>
<trkpt lat="40.0713749" lon="-105.229789">
  <ele>1583.0</ele>
  <time>2026-08-28T17:48:37Z</time>
  <course>0.0</course>
  <speed>0.0</speed>
  <fix>3d</fix>
</trkpt>
<trkpt lat="40.0713749" lon="-105.229789">
  <ele>1583.0</ele>
  <time>2026-08-28T17:48:37Z</time>
  <course>247.64</course>
  <speed>0.0316227766016838</speed>
  <fix>3d</fix>
</trkpt>
<trkpt lat="40.0713749" lon="-105.229789">
  <ele>1583.0</ele>
  <time>2026-08-28T17:48:37Z</time>
  <course>0.0</course>
  <speed>0.0</speed>
  <fix>3d</fix>
</trkpt>
<trkpt lat="40.0713749" lon="-105.229789">
  <ele>1583.0</ele>
  <time>2026-08-28T17:48:37Z</time>
  <course>247.64</course>
  <speed>0.0316227766016838</speed>
  <fix>3d</fix>
</trkpt>
<trkpt lat="40.0713749" lon="-105.229789">
  <ele>1583.0</ele>
  <time>2026-08-28T17:48:37Z</time>
  <course>0.0</course>
  <speed>0.0</speed>
  <fix>3d</fix>
</trkpt>
<trkpt lat="40.0713749" lon="-105.229789">
  <ele>1583.0</ele>
  <time>2026-08-28T17:48:37Z</time>
  <course>247.64</course>
  <speed>0.0316227766016838</speed>
  <fix>3d</fix>
</trkpt>
<trkpt lat="40.0713749" lon="-105.229789">
  <ele>1583.0</ele>
  <time>2026-08-28T17:48:37Z</time>
  <course>0.0</course>
  <speed>0.0</speed>
  <fix>3d</fix>
</trkpt>
<trkpt lat="40.0713749" lon="-105.229789">
  <ele>1583.0</ele>
  <time>2026-08-28T17:48:37Z</time>
  <course>247.63</course>
  <speed>0.0316227766016838</speed>
  <fix>3d</fix>
</trkpt>
<trkpt lat="40.0713749" lon="-105.229789">
  <ele>1583.0</ele>
  <time>2026-08-28T17:48:37Z</time>
  <course>0.0</course>
  <speed>0.0</speed>
  <fix>3d</fix>
</trkpt>
<trkpt lat="40.0713749" lon="-105.229789">
  <ele>1583.0</ele>
  <time>2026-08-28T17:48:37Z</time>
  <course>247.63</course>
  <speed>0.0316227766016838</speed>
  <fix>3d</fix>
</trkpt>
<trkpt lat="40.0713749" lon="-105.229789">
  <ele>1583.0</ele>
  <time>2026-08-28T17:48:37Z</time>
  <course>0.0</course>
  <speed>0.0</speed>
  <fix>3d</fix>
</trkpt>
<trkpt lat="40.0713749" lon="-105.229789">
  <ele>1583.0</ele>
  <time>2026-08-28T17:48:37Z</time>
  <course>247.63</course>
  <speed>0.0316227766016838</speed>
  <fix>3d</fix>
</trkpt>
<trkpt lat="40.0713749" lon="-105.229789">
  <ele>1583.0</ele>
  <time>2026-08-28T17:48:37Z</time>
  <course>0.0</course>
  <speed>0.0</speed>
  <fix>3d</fix>
</trkpt>
<trkpt lat="40.0713749" lon="-105.229789">
  <ele>1583.0</ele>
  <time>2026-08-28T17:48:37Z</time>
  <course>247.62</course>
  <speed>0.0316227766016838</speed>
  <fix>3d</fix>
</trkpt>
<trkpt lat="40.0713749" lon="-105.229789">
  <ele>1583.0</ele>
  <time>2026-08-28T17:48:37Z</time>
  <course>0.0</course>
  <speed>0.0</speed>
  <fix>3d</fix>
</trkpt>
<trkpt lat="40.0713749" lon="-105.229789">
  <ele>1583.0</ele>
  <time>2026-08-28T17:48:37Z</time>
  <course>247.62</course>
  <speed>0.0316227766016838</speed>
  <fix>3d</fix>
</trkpt>
<trkpt lat="40.0713749" lon="-105.229789">
  <ele>1583.0</ele>
  <time>2026-08-28T17:48:37Z</time>
  <course>0.0</course>
  <speed>0.0</speed>
  <fix>3d</fix>
</trkpt>
<trkpt lat="40.0713749" lon="-105.229789">
  <ele>1583.0</ele>
  <time>2026-08-28T17:48:37Z</time>
  <course>247.62</course>
  <speed>0.0316227766016838</speed>
  <fix>3d</fix>
</trkpt>
<trkpt lat="40.0713749" lon="-105.229789">
  <ele>1583.0</ele>
  <time>2026-08-28T17:48:37Z</time>
  <course>0.0</course>
  <speed>0.0</speed>
  <fix>3d</fix>
</trkpt>
<trkpt lat="40.0713749" lon="-105.229789">
  <ele>1583.0</ele>
  <time>2026-08-28T17:48:37Z</time>
  <course>247.62</course>
  <speed>0.0316227766016838</speed>
  <fix>3d</fix>
</trkpt>
<trkpt lat="40.0713749" lon="-105.229789">
  <ele>1583.0</ele>
  <time>2026-08-28T17:48:37Z</time>
  <course>0.0</course>
  <speed>0.0</speed>
  <fix>3d</fix>
</trkpt>
<trkpt lat="40.0713749" lon="-105.229789">
  <ele>1583.0</ele>
  <time>2026-08-28T17:48:37Z</time>
  <course>247.61</course>
  <speed>0.0316227766016838</speed>
  <fix>3d</fix>
</trkpt>
<trkpt lat="40.0713749" lon="-105.229789">
  <ele>1583.0</ele>
  <time>2026-08-28T17:48:37Z</time>
  <course>0.0</course>
  <speed>0.0</speed>
  <fix>3d</fix>
</trkpt>
<trkpt lat="40.0713749" lon="-105.229789">
  <ele>1583.0</ele>
  <time>2026-08-28T17:48:37Z</time>
  <course>247.61</course>
  <speed>0.0316227766016838</speed>
  <fix>3d</fix>
</trkpt>
<trkpt lat="40.0713749" lon="-105.229789">
  <ele>1583.0</ele>
  <time>2026-08-28T17:48:37Z</time>
  <course>0.0</course>
  <speed>0.0</speed>
  <fix>3d</fix>
</trkpt>
<trkpt lat="40.0713749" lon="-105.229789">
  <ele>1583.0</ele>
  <time>2026-08-28T17:48:37Z</time>
  <course>247.61</course>
  <speed>0.0316227766016838</speed>
  <fix>3d</fix>
</trkpt>
<trkpt lat="40.0713749" lon="-105.229789">
  <ele>1583.0</ele>
  <time>2026-08-28T17:48:37Z</time>
  <course>0.0</course>
  <speed>0.0</speed>
  <fix>3d</fix>
</trkpt>
<trkpt lat="40.0713749" lon="-105.229789">
  <ele>1583.0</ele>
  <time>2026-08-28T17:48:37Z</time>
  <course>247.6</course>
  <speed>0.0316227766016838</speed>
  <fix>3d</fix>
</trkpt>
<trkpt lat="40.0713749" lon="-105.229789">
  <ele>1583.0</ele>
  <time>2026-08-28T17:48:37Z</time>
  <course>0.0</course>
  <speed>0.0</speed>
  <fix>3d</fix>
</trkpt>
<trkpt lat="40.0713749" lon="-105.229789">
  <ele>1583.0</ele>
  <time>2026-08-28T17:48:37Z</time>
  <course>247.6</course>
  <speed>0.0316227766016838</speed>
  <fix>3d</fix>
</trkpt>
<trkpt lat="40.0713749" lon="-105.229789">
  <ele>1583.0</ele>
  <time>2026-08-28T17:48:37Z</time>
  <course>0.0</course>
  <speed>0.0</speed>
  <fix>3d</fix>
</trkpt>
<trkpt lat="40.0713749" lon="-105.229789">
  <ele>1583.0</ele>
  <time>2026-08-28T17:48:37Z</time>
  <course>247.6</course>
  <speed>0.0316227766016838</speed>
  <fix>3d</fix>
</trkpt>
<trkpt lat="40.0713749" lon="-105.229789">
  <ele>1583.0</ele>
  <time>2026-08-28T17:48:37Z</time>
  <course>0.0</course>
  <speed>0.0</speed>
  <fix>3d</fix>
</trkpt>
<trkpt lat="40.0713749" lon="-105.229789">
  <ele>1583.0</ele>
  <time>2026-08-28T17:48:37Z</time>
  <course>247.6</course>
  <speed>0.0316227766016838</speed>
  <fix>3d</fix>
</trkpt>
<trkpt lat="40.0713749" lon="-105.229789">
  <ele>1583.0</ele>
  <time>2026-08-28T17:48:37Z</time>
  <course>0.0</course>
  <speed>0.0</speed>
  <fix>3d</fix>
</trkpt>
<trkpt lat="40.0713749" lon="-105.229789">
  <ele>1583.0</ele>
  <time>2026-08-28T17:48:37Z</time>
  <course>247.59</course>
  <speed>0.0316227766016838</speed>
  <fix>3d</fix>
</trkpt>
<trkpt lat="40.0713749" lon="-105.229789">
  <ele>1583.0</ele>
  <time>2026-08-28T17:48:37Z</time>
  <course>0.0</course>
  <speed>0.0</speed>
  <fix>3d</fix>
</trkpt>
<trkpt lat="40.0713749" lon="-105.229789">
  <ele>1582.92</ele>
  <time>2026-08-28T17:48:37Z</time>
  <course>247.59</course>
  <speed>0.0</speed>
  <fix>3d</fix>
</trkpt>
<trkpt lat="40.0713749" lon="-105.229789">
  <ele>1583.0</ele>
  <time>2026-08-28T17:48:37Z</time>
  <course>0.0</course>
  <speed>0.0</speed>
  <fix>3d</fix>
</trkpt>
<trkpt lat="40.0713749" lon="-105.229789">
  <ele>1582.92</ele>
  <time>2026-08-28T17:48:37Z</time>
  <course>247.59</course>
  <speed>0.0</speed>
  <fix>3d</fix>
</trkpt>
<trkpt lat="40.0713749" lon="-105.229789">
  <ele>1583.0</ele>
  <time>2026-08-28T17:48:37Z</time>
  <course>0.0</course>
  <speed>0.0</speed>
  <fix>3d</fix>
</trkpt>
<trkpt lat="40.0713749" lon="-105.229789">
  <ele>1582.91</ele>
  <time>2026-08-28T17:48:37Z</time>
  <course>247.58</course>
  <speed>0.0</speed>
  <fix>3d</fix>
</trkpt>
<trkpt lat="40.0713749" lon="-105.229789">
  <ele>1583.0</ele>
  <time>2026-08-28T17:48:37Z</time>
  <course>0.0</course>
  <speed>0.0</speed>
  <fix>3d</fix>
</trkpt>
<trkpt lat="40.0713749" lon="-105.229789">
  <ele>1582.91</ele>
  <time>2026-08-28T17:48:37Z</time>
  <course>247.58</course>
  <speed>0.0</speed>
  <fix>3d</fix>
</trkpt>
<trkpt lat="40.0713749" lon="-105.229789">
  <ele>1583.0</ele>
  <time>2026-08-28T17:48:37Z</time>
  <course>0.0</course>
  <speed>0.0</speed>
  <fix>3d</fix>
</trkpt>
<trkpt lat="40.0713749" lon="-105.229789">
  <ele>1582.9</ele>
  <time>2026-08-28T17:48:37Z</time>
  <course>247.58</course>
  <speed>0.0</speed>
  <fix>3d</fix>
</trkpt>
<trkpt lat="40.0713749" lon="-105.229789">
  <ele>1583.0</ele>
  <time>2026-08-28T17:48:37Z</time>
  <course>0.0</course>
  <speed>0.0</speed>
  <fix>3d</fix>
</trkpt>
<trkpt lat="40.0713749" lon="-105.229789">
  <ele>1582.9</ele>
  <time>2026-08-28T17:48:37Z</time>
  <course>247.58</course>
  <speed>0.0</speed>
  <fix>3d</fix>
</trkpt>
<trkpt lat="40.0713749" lon="-105.229789">
  <ele>1583.0</ele>
  <time>2026-08-28T17:48:37Z</time>
  <course>0.0</course>
  <speed>0.0</speed>
  <fix>3d</fix>
</trkpt>
<trkpt lat="40.0713749" lon="-105.229789">
  <ele>1582.9</ele>
  <time>2026-08-28T17:48:37Z</time>
  <course>247.57</course>
  <speed>0.0</speed>
  <fix>3d</fix>
</trkpt>
<trkpt lat="40.0713749" lon="-105.229789">
  <ele>1583.0</ele>
  <time>2026-08-28T17:48:37Z</time>
  <course>0.0</course>
  <speed>0.0</speed>
  <fix>3d</fix>
</trkpt>
<trkpt lat="40.0713749" lon="-105.229789">
  <ele>1582.9</ele>
  <time>2026-08-28T17:48:37Z</time>
  <course>247.57</course>
  <speed>0.0</speed>
  <fix>3d</fix>
</trkpt>
<trkpt lat="40.0713749" lon="-105.229789">
  <ele>1583.0</ele>
  <time>2026-08-28T17:48:37Z</time>
  <course>0.0</course>
  <speed>0.0</speed>
  <fix>3d</fix>
</trkpt>
<trkpt lat="40.0713749" lon="-105.229789">
  <ele>1582.9</ele>
  <time>2026-08-28T17:48:37Z</time>
  <course>247.57</course>
  <speed>0.0</speed>
  <fix>3d</fix>
</trkpt>
<trkpt lat="40.0713749" lon="-105.229789">
  <ele>1583.0</ele>
  <time>2026-08-28T17:48:37Z</time>
  <course>0.0</course>
  <speed>0.0</speed>
  <fix>3d</fix>
</trkpt>
<trkpt lat="40.0713749" lon="-105.229789">
  <ele>1582.9</ele>
  <time>2026-08-28T17:48:37Z</time>
  <course>247.57</course>
  <speed>0.01</speed>
  <fix>3d</fix>
</trkpt>
<trkpt lat="40.0713749" lon="-105.229789">
  <ele>1583.0</ele>
  <time>2026-08-28T17:48:37Z</time>
  <course>0.0</course>
  <speed>0.0</speed>
  <fix>3d</fix>
</trkpt>
<trkpt lat="40.0713749" lon="-105.229789">
  <ele>1582.89</ele>
  <time>2026-08-28T17:48:37Z</time>
  <course>247.56</course>
  <speed>0.01</speed>
  <fix>3d</fix>
</trkpt>
<trkpt lat="40.0713749" lon="-105.229789">
  <ele>1583.0</ele>
  <time>2026-08-28T17:48:37Z</time>
  <course>0.0</course>
  <speed>0.0</speed>
  <fix>3d</fix>
</trkpt>
<trkpt lat="40.0713749" lon="-105.229789">
  <ele>1582.89</ele>
  <time>2026-08-28T17:48:37Z</time>
  <course>247.56</course>
  <speed>0.01</speed>
  <fix>3d</fix>
</trkpt>
<trkpt lat="40.0713749" lon="-105.229789">
  <ele>1583.0</ele>
  <time>2026-08-28T17:48:37Z</time>
  <course>0.0</course>
  <speed>0.0</speed>
  <fix>3d</fix>
</trkpt>
<trkpt lat="40.0713749" lon="-105.229789">
  <ele>1582.89</ele>
  <time>2026-08-28T17:48:37Z</time>
  <course>247.56</course>
  <speed>0.01</speed>
  <fix>3d</fix>
</trkpt>
<trkpt lat="40.0713749" lon="-105.229789">
  <ele>1583.0</ele>
  <time>2026-08-28T17:48:37Z</time>
  <course>0.0</course>
  <speed>0.0</speed>
  <fix>3d</fix>
</trkpt>
<trkpt lat="40.0713749" lon="-105.229789">
  <ele>1582.89</ele>
  <time>2026-08-28T17:48:37Z</time>
  <course>247.56</course>
  <speed>0.01</speed>
  <fix>3d</fix>
</trkpt>
<trkpt lat="40.0713749" lon="-105.229789">
  <ele>1583.0</ele>
  <time>2026-08-28T17:48:37Z</time>
  <course>0.0</course>
  <speed>0.0</speed>
  <fix>3d</fix>
</trkpt>
<trkpt lat="40.0713749" lon="-105.229789">
  <ele>1582.89</ele>
  <time>2026-08-28T17:48:37Z</time>
  <course>247.55</course>
  <speed>0.01</speed>
  <fix>3d</fix>
</trkpt>
<trkpt lat="40.0713749" lon="-105.229789">
  <ele>1583.0</ele>
  <time>2026-08-28T17:48:37Z</time>
  <course>0.0</course>
  <speed>0.0</speed>
  <fix>3d</fix>
</trkpt>
<trkpt lat="40.0713749" lon="-105.229789">
  <ele>1582.89</ele>
  <time>2026-08-28T17:48:37Z</time>
  <course>247.55</course>
  <speed>0.01</speed>
  <fix>3d</fix>
</trkpt>
<trkpt lat="40.0713749" lon="-105.229789">
  <ele>1583.0</ele>
  <time>2026-08-28T17:48:37Z</time>
  <course>0.0</course>
  <speed>0.0</speed>
  <fix>3d</fix>
</trkpt>
<trkpt lat="40.0713749" lon="-105.229789">
  <ele>1582.89</ele>
  <time>2026-08-28T17:48:37Z</time>
  <course>247.55</course>
  <speed>0.01</speed>
  <fix>3d</fix>
</trkpt>
<trkpt lat="40.0713749" lon="-105.229789">
  <ele>1583.0</ele>
  <time>2026-08-28T17:48:37Z</time>
  <course>0.0</course>
  <speed>0.0</speed>
  <fix>3d</fix>
</trkpt>
<trkpt lat="40.0713749" lon="-105.229789">
  <ele>1582.89</ele>
  <time>2026-08-28T17:48:37Z</time>
  <course>247.55</course>
  <speed>0.01</speed>
  <fix>3d</fix>
</trkpt>
<trkpt lat="40.0713749" lon="-105.229789">
  <ele>1583.0</ele>
  <time>2026-08-28T17:48:37Z</time>
  <course>0.0</course>
  <speed>0.0</speed>
  <fix>3d</fix>
</trkpt>
<trkpt lat="40.0713749" lon="-105.229789">
  <ele>1582.89</ele>
  <time>2026-08-28T17:48:37Z</time>
  <course>247.54</course>
  <speed>0.02</speed>
  <fix>3d</fix>
</trkpt>
<trkpt lat="40.0713749" lon="-105.229789">
  <ele>1583.0</ele>
  <time>2026-08-28T17:48:37Z</time>
  <course>0.0</course>
  <speed>0.0</speed>
  <fix>3d</fix>
</trkpt>
<trkpt lat="40.0713749" lon="-105.229789">
  <ele>1582.89</ele>
  <time>2026-08-28T17:48:37Z</time>
  <course>247.54</course>
  <speed>0.02</speed>
  <fix>3d</fix>
</trkpt>
<trkpt lat="40.0713749" lon="-105.229789">
  <ele>1583.0</ele>
  <time>2026-08-28T17:48:37Z</time>
  <course>0.0</course>
  <speed>0.0</speed>
  <fix>3d</fix>
</trkpt>
<trkpt lat="40.0713749" lon="-105.229789">
  <ele>1582.88</ele>
  <time>2026-08-28T17:48:37Z</time>
  <course>247.54</course>
  <speed>0.02</speed>
  <fix>3d</fix>
</trkpt>
<trkpt lat="40.0713749" lon="-105.229789">
  <ele>1583.0</ele>
  <time>2026-08-28T17:48:37Z</time>
  <course>0.0</course>
  <speed>0.0</speed>
  <fix>3d</fix>
</trkpt>
<trkpt lat="40.0713749" lon="-105.229789">
  <ele>1582.88</ele>
  <time>2026-08-28T17:48:37Z</time>
  <course>247.54</course>
  <speed>0.022360679774997897</speed>
  <fix>3d</fix>
</trkpt>
<trkpt lat="40.0713749" lon="-105.229789">
  <ele>1583.0</ele>
  <time>2026-08-28T17:48:37Z</time>
  <course>0.0</course>
  <speed>0.0</speed>
  <fix>3d</fix>
</trkpt>
<trkpt lat="40.0713749" lon="-105.229789">
  <ele>1582.88</ele>
  <time>2026-08-28T17:48:37Z</time>
  <course>247.53</course>
  <speed>0.022360679774997897</speed>
  <fix>3d</fix>
</trkpt>
<trkpt lat="40.0713749" lon="-105.229789">
  <ele>1583.0</ele>
  <time>2026-08-28T17:48:37Z</time>
  <course>0.0</course>
  <speed>0.0</speed>
  <fix>3d</fix>
</trkpt>
<trkpt lat="40.0713749" lon="-105.229789">
  <ele>1582.89</ele>
  <time>2026-08-28T17:48:37Z</time>
  <course>247.53</course>
  <speed>0.022360679774997897</speed>
  <fix>3d</fix>
</trkpt>
<trkpt lat="40.0713749" lon="-105.229789">
  <ele>1583.0</ele>
  <time>2026-08-28T17:48:37Z</time>
  <course>0.0</course>
  <speed>0.0</speed>
  <fix>3d</fix>
</trkpt>
<trkpt lat="40.071375" lon="-105.229789">
  <ele>1582.89</ele>
  <time>2026-08-28T17:48:37Z</time>
  <course>247.53</course>
  <speed>0.022360679774997897</speed>
  <fix>3d</fix>
</trkpt>
<trkpt lat="40.0713749" lon="-105.229789">
  <ele>1583.0</ele>
  <time>2026-08-28T17:48:37Z</time>
  <course>0.0</course>
  <speed>0.0</speed>
  <fix>3d</fix>
</trkpt>
<trkpt lat="40.071375" lon="-105.229789">
  <ele>1582.89</ele>
  <time>2026-08-28T17:48:37Z</time>
  <course>247.53</course>
  <speed>0.022360679774997897</speed>
  <fix>3d</fix>
</trkpt>
<trkpt lat="40.0713749" lon="-105.229789">
  <ele>1583.0</ele>
  <time>2026-08-28T17:48:37Z</time>
  <course>0.0</course>
  <speed>0.0</speed>
  <fix>3d</fix>
</trkpt>
<trkpt lat="40.071375" lon="-105.229789">
  <ele>1582.89</ele>
  <time>2026-08-28T17:48:38Z</time>
  <course>247.53</course>
  <speed>0.022360679774997897</speed>
  <fix>3d</fix>
</trkpt>
<trkpt lat="40.0713749" lon="-105.229789">
  <ele>1583.0</ele>
  <time>2026-08-28T17:48:38Z</time>
  <course>0.0</course>
  <speed>0.0</speed>
  <fix>3d</fix>
</trkpt>
<trkpt lat="40.071375" lon="-105.229789">
  <ele>1582.89</ele>
  <time>2026-08-28T17:48:38Z</time>
  <course>247.52</course>
  <speed>0.022360679774997897</speed>
  <fix>3d</fix>
</trkpt>
<trkpt lat="40.0713749" lon="-105.229789">
  <ele>1583.0</ele>
  <time>2026-08-28T17:48:38Z</time>
  <course>0.0</course>
  <speed>0.0</speed>
  <fix>3d</fix>
</trkpt>
<trkpt lat="40.071375" lon="-105.229789">
  <ele>1582.88</ele>
  <time>2026-08-28T17:48:38Z</time>
  <course>247.52</course>
  <speed>0.022360679774997897</speed>
  <fix>3d</fix>
</trkpt>
<trkpt lat="40.0713749" lon="-105.229789">
  <ele>1583.0</ele>
  <time>2026-08-28T17:48:38Z</time>
  <course>0.0</course>
  <speed>0.0</speed>
  <fix>3d</fix>
</trkpt>
<trkpt lat="40.071375" lon="-105.229789">
  <ele>1582.88</ele>
  <time>2026-08-28T17:48:38Z</time>
  <course>247.52</course>
  <speed>0.022360679774997897</speed>
  <fix>3d</fix>
</trkpt>
<trkpt lat="40.0713749" lon="-105.229789">
  <ele>1583.0</ele>
  <time>2026-08-28T17:48:38Z</time>
  <course>0.0</course>
  <speed>0.0</speed>
  <fix>3d</fix>
</trkpt>
<trkpt lat="40.071375" lon="-105.229789">
  <ele>1582.88</ele>
  <time>2026-08-28T17:48:38Z</time>
  <course>247.52</course>
  <speed>0.022360679774997897</speed>
  <fix>3d</fix>
</trkpt>
<trkpt lat="40.0713749" lon="-105.229789">
  <ele>1583.0</ele>
  <time>2026-08-28T17:48:38Z</time>
  <course>0.0</course>
  <speed>0.0</speed>
  <fix>3d</fix>
</trkpt>
<trkpt lat="40.071375" lon="-105.229789">
  <ele>1582.88</ele>
  <time>2026-08-28T17:48:38Z</time>
  <course>247.51</course>
  <speed>0.0316227766016838</speed>
  <fix>3d</fix>
</trkpt>
<trkpt lat="40.0713749" lon="-105.229789">
  <ele>1583.0</ele>
  <time>2026-08-28T17:48:38Z</time>
  <course>0.0</course>
  <speed>0.0</speed>
  <fix>3d</fix>
</trkpt>
<trkpt lat="40.071375" lon="-105.229789">
  <ele>1582.87</ele>
  <time>2026-08-28T17:48:38Z</time>
  <course>247.51</course>
  <speed>0.0316227766016838</speed>
  <fix>3d</fix>
</trkpt>
<trkpt lat="40.0713749" lon="-105.229789">
  <ele>1583.0</ele>
  <time>2026-08-28T17:48:38Z</time>
  <course>0.0</course>
  <speed>0.0</speed>
  <fix>3d</fix>
</trkpt>
<trkpt lat="40.071375" lon="-105.229789">
  <ele>1582.87</ele>
  <time>2026-08-28T17:48:38Z</time>
  <course>247.51</course>
  <speed>0.0316227766016838</speed>
  <fix>3d</fix>
</trkpt>
<trkpt lat="40.0713749" lon="-105.229789">
  <ele>1583.0</ele>
  <time>2026-08-28T17:48:38Z</time>
  <course>0.0</course>
  <speed>0.0</speed>
  <fix>3d</fix>
</trkpt>
<trkpt lat="40.071375" lon="-105.2297889">
  <ele>1582.87</ele>
  <time>2026-08-28T17:48:38Z</time>
  <course>247.51</course>
  <speed>0.0316227766016838</speed>
  <fix>3d</fix>
</trkpt>
<trkpt lat="40.0713749" lon="-105.229789">
  <ele>1583.0</ele>
  <time>2026-08-28T17:48:38Z</time>
  <course>0.0</course>
  <speed>0.0</speed>
  <fix>3d</fix>
</trkpt>
<trkpt lat="40.071375" lon="-105.2297889">
  <ele>1582.87</ele>
  <time>2026-08-28T17:48:38Z</time>
  <course>247.51</course>
  <speed>0.0316227766016838</speed>
  <fix>3d</fix>
</trkpt>
<trkpt lat="40.0713749" lon="-105.229789">
  <ele>1583.0</ele>
  <time>2026-08-28T17:48:38Z</time>
  <course>0.0</course>
  <speed>0.0</speed>
  <fix>3d</fix>
</trkpt>
<trkpt lat="40.071375" lon="-105.2297889">
  <ele>1582.86</ele>
  <time>2026-08-28T17:48:38Z</time>
  <course>247.5</course>
  <speed>0.0316227766016838</speed>
  <fix>3d</fix>
</trkpt>
<trkpt lat="40.0713749" lon="-105.229789">
  <ele>1583.0</ele>
  <time>2026-08-28T17:48:38Z</time>
  <course>0.0</course>
  <speed>0.0</speed>
  <fix>3d</fix>
</trkpt>
<trkpt lat="40.071375" lon="-105.2297889">
  <ele>1582.86</ele>
  <time>2026-08-28T17:48:38Z</time>
  <course>247.5</course>
  <speed>0.0316227766016838</speed>
  <fix>3d</fix>
</trkpt>
<trkpt lat="40.0713749" lon="-105.229789">
  <ele>1583.0</ele>
  <time>2026-08-28T17:48:38Z</time>
  <course>0.0</course>
  <speed>0.0</speed>
  <fix>3d</fix>
</trkpt>
<trkpt lat="40.071375" lon="-105.2297889">
  <ele>1582.86</ele>
  <time>2026-08-28T17:48:38Z</time>
  <course>247.5</course>
  <speed>0.0316227766016838</speed>
  <fix>3d</fix>
</trkpt>
<trkpt lat="40.0713749" lon="-105.229789">
  <ele>1583.0</ele>
  <time>2026-08-28T17:48:38Z</time>
  <course>0.0</course>
  <speed>0.0</speed>
  <fix>3d</fix>
</trkpt>
<trkpt lat="40.0713751" lon="-105.2297889">
  <ele>1582.85</ele>
  <time>2026-08-28T17:48:38Z</time>
  <course>247.5</course>
  <speed>0.0316227766016838</speed>
  <fix>3d</fix>
</trkpt>
<trkpt lat="40.0713749" lon="-105.229789">
  <ele>1583.0</ele>
  <time>2026-08-28T17:48:38Z</time>
  <course>0.0</course>
  <speed>0.0</speed>
  <fix>3d</fix>
</trkpt>
<trkpt lat="40.0713751" lon="-105.2297889">
  <ele>1582.85</ele>
  <time>2026-08-28T17:48:38Z</time>
  <course>247.49</course>
  <speed>0.0316227766016838</speed>
  <fix>3d</fix>
</trkpt>
<trkpt lat="40.0713749" lon="-105.229789">
  <ele>1583.0</ele>
  <time>2026-08-28T17:48:38Z</time>
  <course>0.0</course>
  <speed>0.0</speed>
  <fix>3d</fix>
</trkpt>
<trkpt lat="40.0713751" lon="-105.2297889">
  <ele>1582.85</ele>
  <time>2026-08-28T17:48:38Z</time>
  <course>247.49</course>
  <speed>0.0316227766016838</speed>
  <fix>3d</fix>
</trkpt>
<trkpt lat="40.0713749" lon="-105.229789">
  <ele>1583.0</ele>
  <time>2026-08-28T17:48:38Z</time>
  <course>0.0</course>
  <speed>0.0</speed>
  <fix>3d</fix>
</trkpt>
<trkpt lat="40.0713751" lon="-105.2297889">
  <ele>1582.85</ele>
  <time>2026-08-28T17:48:38Z</time>
  <course>247.49</course>
  <speed>0.0316227766016838</speed>
  <fix>3d</fix>
</trkpt>
<trkpt lat="40.0713749" lon="-105.229789">
  <ele>1583.0</ele>
  <time>2026-08-28T17:48:38Z</time>
  <course>0.0</course>
  <speed>0.0</speed>
  <fix>3d</fix>
</trkpt>
<trkpt lat="40.0713751" lon="-105.2297889">
  <ele>1582.85</ele>
  <time>2026-08-28T17:48:38Z</time>
  <course>247.49</course>
  <speed>0.0316227766016838</speed>
  <fix>3d</fix>
</trkpt>
<trkpt lat="40.0713749" lon="-105.229789">
  <ele>1583.0</ele>
  <time>2026-08-28T17:48:38Z</time>
  <course>0.0</course>
  <speed>0.0</speed>
  <fix>3d</fix>
</trkpt>
<trkpt lat="40.0713751" lon="-105.2297889">
  <ele>1582.86</ele>
  <time>2026-08-28T17:48:38Z</time>
  <course>247.49</course>
  <speed>0.0316227766016838</speed>
  <fix>3d</fix>
</trkpt>
<trkpt lat="40.0713749" lon="-105.229789">
  <ele>1583.0</ele>
  <time>2026-08-28T17:48:38Z</time>
  <course>0.0</course>
  <speed>0.0</speed>
  <fix>3d</fix>
</trkpt>
<trkpt lat="40.0713751" lon="-105.2297889">
  <ele>1582.86</ele>
  <time>2026-08-28T17:48:38Z</time>
  <course>247.48</course>
  <speed>0.0316227766016838</speed>
  <fix>3d</fix>
</trkpt>
<trkpt lat="40.0713749" lon="-105.229789">
  <ele>1583.0</ele>
  <time>2026-08-28T17:48:38Z</time>
  <course>0.0</course>
  <speed>0.0</speed>
  <fix>3d</fix>
</trkpt>
<trkpt lat="40.0713751" lon="-105.2297889">
  <ele>1582.87</ele>
  <time>2026-08-28T17:48:38Z</time>
  <course>247.48</course>
  <speed>0.022360679774997897</speed>
  <fix>3d</fix>
</trkpt>
<trkpt lat="40.0713749" lon="-105.229789">
  <ele>1583.0</ele>
  <time>2026-08-28T17:48:38Z</time>
  <course>0.0</course>
  <speed>0.0</speed>
  <fix>3d</fix>
</trkpt>
<trkpt lat="40.0713751" lon="-105.2297889">
  <ele>1582.87</ele>
  <time>2026-08-28T17:48:38Z</time>
  <course>247.48</course>
  <speed>0.022360679774997897</speed>
  <fix>3d</fix>
</trkpt>
<trkpt lat="40.0713749" lon="-105.229789">
  <ele>1583.0</ele>
  <time>2026-08-28T17:48:38Z</time>
  <course>0.0</course>
  <speed>0.0</speed>
  <fix>3d</fix>
</trkpt>
<trkpt lat="40.0713751" lon="-105.2297889">
  <ele>1582.87</ele>
  <time>2026-08-28T17:48:38Z</time>
  <course>247.48</course>
  <speed>0.022360679774997897</speed>
  <fix>3d</fix>
</trkpt>
<trkpt lat="40.0713749" lon="-105.229789">
  <ele>1583.0</ele>
  <time>2026-08-28T17:48:38Z</time>
  <course>0.0</course>
  <speed>0.0</speed>
  <fix>3d</fix>
</trkpt>
<trkpt lat="40.0713751" lon="-105.2297889">
  <ele>1582.87</ele>
  <time>2026-08-28T17:48:38Z</time>
  <course>247.47</course>
  <speed>0.022360679774997897</speed>
  <fix>3d</fix>
</trkpt>
<trkpt lat="40.0713749" lon="-105.229789">
  <ele>1583.0</ele>
  <time>2026-08-28T17:48:38Z</time>
  <course>0.0</course>
  <speed>0.0</speed>
  <fix>3d</fix>
</trkpt>
<trkpt lat="40.0713751" lon="-105.2297889">
  <ele>1582.87</ele>
  <time>2026-08-28T17:48:38Z</time>
  <course>247.47</course>
  <speed>0.022360679774997897</speed>
  <fix>3d</fix>
</trkpt>
<trkpt lat="40.0713749" lon="-105.229789">
  <ele>1583.0</ele>
  <time>2026-08-28T17:48:38Z</time>
  <course>0.0</course>
  <speed>0.0</speed>
  <fix>3d</fix>
</trkpt>
<trkpt lat="40.0713751" lon="-105.2297889">
  <ele>1582.87</ele>
  <time>2026-08-28T17:48:38Z</time>
  <course>247.47</course>
  <speed>0.022360679774997897</speed>
  <fix>3d</fix>
</trkpt>
<trkpt lat="40.0713749" lon="-105.229789">
  <ele>1583.0</ele>
  <time>2026-08-28T17:48:38Z</time>
  <course>0.0</course>
  <speed>0.0</speed>
  <fix>3d</fix>
</trkpt>
<trkpt lat="40.071375" lon="-105.2297889">
  <ele>1582.87</ele>
  <time>2026-08-28T17:48:38Z</time>
  <course>247.47</course>
  <speed>0.022360679774997897</speed>
  <fix>3d</fix>
</trkpt>
<trkpt lat="40.0713749" lon="-105.229789">
  <ele>1583.0</ele>
  <time>2026-08-28T17:48:38Z</time>
  <course>0.0</course>
  <speed>0.0</speed>
  <fix>3d</fix>
</trkpt>
<trkpt lat="40.0713751" lon="-105.2297889">
  <ele>1582.87</ele>
  <time>2026-08-28T17:48:38Z</time>
  <course>247.47</course>
  <speed>0.022360679774997897</speed>
  <fix>3d</fix>
</trkpt>
<trkpt lat="40.0713749" lon="-105.229789">
  <ele>1583.0</ele>
  <time>2026-08-28T17:48:38Z</time>
  <course>0.0</course>
  <speed>0.0</speed>
  <fix>3d</fix>
</trkpt>
<trkpt lat="40.071375" lon="-105.2297889">
  <ele>1582.87</ele>
  <time>2026-08-28T17:48:38Z</time>
  <course>247.46</course>
  <speed>0.022360679774997897</speed>
  <fix>3d</fix>
</trkpt>
<trkpt lat="40.0713749" lon="-105.229789">
  <ele>1583.0</ele>
  <time>2026-08-28T17:48:38Z</time>
  <course>0.0</course>
  <speed>0.0</speed>
  <fix>3d</fix>
</trkpt>
<trkpt lat="40.071375" lon="-105.2297889">
  <ele>1582.87</ele>
  <time>2026-08-28T17:48:38Z</time>
  <course>247.46</course>
  <speed>0.022360679774997897</speed>
  <fix>3d</fix>
</trkpt>
<trkpt lat="40.0713749" lon="-105.229789">
  <ele>1583.0</ele>
  <time>2026-08-28T17:48:38Z</time>
  <course>0.0</course>
  <speed>0.0</speed>
  <fix>3d</fix>
</trkpt>
<trkpt lat="40.071375" lon="-105.2297889">
  <ele>1582.87</ele>
  <time>2026-08-28T17:48:38Z</time>
  <course>247.46</course>
  <speed>0.022360679774997897</speed>
  <fix>3d</fix>
</trkpt>
<trkpt lat="40.0713749" lon="-105.229789">
  <ele>1583.0</ele>
  <time>2026-08-28T17:48:38Z</time>
  <course>0.0</course>
  <speed>0.0</speed>
  <fix>3d</fix>
</trkpt>
<trkpt lat="40.071375" lon="-105.2297889">
  <ele>1582.87</ele>
  <time>2026-08-28T17:48:38Z</time>
  <course>247.46</course>
  <speed>0.022360679774997897</speed>
  <fix>3d</fix>
</trkpt>
<trkpt lat="40.0713749" lon="-105.229789">
  <ele>1583.0</ele>
  <time>2026-08-28T17:48:38Z</time>
  <course>0.0</course>
  <speed>0.0</speed>
  <fix>3d</fix>
</trkpt>
<trkpt lat="40.071375" lon="-105.2297889">
  <ele>1582.87</ele>
  <time>2026-08-28T17:48:38Z</time>
  <course>247.45</course>
  <speed>0.022360679774997897</speed>
  <fix>3d</fix>
</trkpt>
<trkpt lat="40.0713749" lon="-105.229789">
  <ele>1583.0</ele>
  <time>2026-08-28T17:48:38Z</time>
  <course>0.0</course>
  <speed>0.0</speed>
  <fix>3d</fix>
</trkpt>
<trkpt lat="40.071375" lon="-105.2297889">
  <ele>1582.87</ele>
  <time>2026-08-28T17:48:38Z</time>
  <course>247.45</course>
  <speed>0.022360679774997897</speed>
  <fix>3d</fix>
</trkpt>
<trkpt lat="40.0713749" lon="-105.229789">
  <ele>1583.0</ele>
  <time>2026-08-28T17:48:38Z</time>
  <course>0.0</course>
  <speed>0.0</speed>
  <fix>3d</fix>
</trkpt>
<trkpt lat="40.071375" lon="-105.2297889">
  <ele>1582.87</ele>
  <time>2026-08-28T17:48:38Z</time>
  <course>247.45</course>
  <speed>0.022360679774997897</speed>
  <fix>3d</fix>
</trkpt>
<trkpt lat="40.0713749" lon="-105.229789">
  <ele>1583.0</ele>
  <time>2026-08-28T17:48:38Z</time>
  <course>0.0</course>
  <speed>0.0</speed>
  <fix>3d</fix>
</trkpt>
<trkpt lat="40.071375" lon="-105.2297889">
  <ele>1582.87</ele>
  <time>2026-08-28T17:48:38Z</time>
  <course>247.45</course>
  <speed>0.022360679774997897</speed>
  <fix>3d</fix>
</trkpt>
<trkpt lat="40.0713749" lon="-105.229789">
  <ele>1583.0</ele>
  <time>2026-08-28T17:48:38Z</time>
  <course>0.0</course>
  <speed>0.0</speed>
  <fix>3d</fix>
</trkpt>
<trkpt lat="40.071375" lon="-105.2297889">
  <ele>1582.86</ele>
  <time>2026-08-28T17:48:38Z</time>
  <course>247.45</course>
  <speed>0.022360679774997897</speed>
  <fix>3d</fix>
</trkpt>
<trkpt lat="40.0713749" lon="-105.229789">
  <ele>1583.0</ele>
  <time>2026-08-28T17:48:38Z</time>
  <course>0.0</course>
  <speed>0.0</speed>
  <fix>3d</fix>
</trkpt>
<trkpt lat="40.071375" lon="-105.2297889">
  <ele>1582.86</ele>
  <time>2026-08-28T17:48:38Z</time>
  <course>247.44</course>
  <speed>0.022360679774997897</speed>
  <fix>3d</fix>
</trkpt>
<trkpt lat="40.0713749" lon="-105.229789">
  <ele>1583.0</ele>
  <time>2026-08-28T17:48:38Z</time>
  <course>0.0</course>
  <speed>0.0</speed>
  <fix>3d</fix>
</trkpt>
<trkpt lat="40.071375" lon="-105.229789">
  <ele>1582.86</ele>
  <time>2026-08-28T17:48:38Z</time>
  <course>247.44</course>
  <speed>0.02</speed>
  <fix>3d</fix>
</trkpt>
<trkpt lat="40.0713749" lon="-105.229789">
  <ele>1583.0</ele>
  <time>2026-08-28T17:48:38Z</time>
  <course>0.0</course>
  <speed>0.0</speed>
  <fix>3d</fix>
</trkpt>
<trkpt lat="40.071375" lon="-105.229789">
  <ele>1582.86</ele>
  <time>2026-08-28T17:48:38Z</time>
  <course>247.44</course>
  <speed>0.02</speed>
  <fix>3d</fix>
</trkpt>
<trkpt lat="40.0713749" lon="-105.229789">
  <ele>1583.0</ele>
  <time>2026-08-28T17:48:38Z</time>
  <course>0.0</course>
  <speed>0.0</speed>
  <fix>3d</fix>
</trkpt>
<trkpt lat="40.071375" lon="-105.229789">
  <ele>1582.86</ele>
  <time>2026-08-28T17:48:38Z</time>
  <course>247.44</course>
  <speed>0.02</speed>
  <fix>3d</fix>
</trkpt>
<trkpt lat="40.0713749" lon="-105.229789">
  <ele>1583.0</ele>
  <time>2026-08-28T17:48:38Z</time>
  <course>0.0</course>
  <speed>0.0</speed>
  <fix>3d</fix>
</trkpt>
<trkpt lat="40.071375" lon="-105.229789">
  <ele>1582.87</ele>
  <time>2026-08-28T17:48:38Z</time>
  <course>247.44</course>
  <speed>0.02</speed>
  <fix>3d</fix>
</trkpt>
<trkpt lat="40.0713749" lon="-105.229789">
  <ele>1583.0</ele>
  <time>2026-08-28T17:48:38Z</time>
  <course>0.0</course>
  <speed>0.0</speed>
  <fix>3d</fix>
</trkpt>
<trkpt lat="40.071375" lon="-105.229789">
  <ele>1582.87</ele>
  <time>2026-08-28T17:48:38Z</time>
  <course>247.43</course>
  <speed>0.02</speed>
  <fix>3d</fix>
</trkpt>
<trkpt lat="40.0713749" lon="-105.229789">
  <ele>1583.0</ele>
  <time>2026-08-28T17:48:38Z</time>
  <course>0.0</course>
  <speed>0.0</speed>
  <fix>3d</fix>
</trkpt>
<trkpt lat="40.071375" lon="-105.229789">
  <ele>1582.87</ele>
  <time>2026-08-28T17:48:38Z</time>
  <course>247.43</course>
  <speed>0.02</speed>
  <fix>3d</fix>
</trkpt>
<trkpt lat="40.0713749" lon="-105.229789">
  <ele>1583.0</ele>
  <time>2026-08-28T17:48:38Z</time>
  <course>0.0</course>
  <speed>0.0</speed>
  <fix>3d</fix>
</trkpt>
<trkpt lat="40.071375" lon="-105.229789">
  <ele>1582.88</ele>
  <time>2026-08-28T17:48:38Z</time>
  <course>247.43</course>
  <speed>0.02</speed>
  <fix>3d</fix>
</trkpt>
<trkpt lat="40.0713749" lon="-105.229789">
  <ele>1583.0</ele>
  <time>2026-08-28T17:48:38Z</time>
  <course>0.0</course>
  <speed>0.0</speed>
  <fix>3d</fix>
</trkpt>
<trkpt lat="40.071375" lon="-105.229789">
  <ele>1582.88</ele>
  <time>2026-08-28T17:48:38Z</time>
  <course>247.43</course>
  <speed>0.02</speed>
  <fix>3d</fix>
</trkpt>
<trkpt lat="40.0713749" lon="-105.229789">
  <ele>1583.0</ele>
  <time>2026-08-28T17:48:38Z</time>
  <course>0.0</course>
  <speed>0.0</speed>
  <fix>3d</fix>
</trkpt>
<trkpt lat="40.071375" lon="-105.229789">
  <ele>1582.88</ele>
  <time>2026-08-28T17:48:38Z</time>
  <course>247.42</course>
  <speed>0.02</speed>
  <fix>3d</fix>
</trkpt>
<trkpt lat="40.0713749" lon="-105.229789">
  <ele>1583.0</ele>
  <time>2026-08-28T17:48:38Z</time>
  <course>0.0</course>
  <speed>0.0</speed>
  <fix>3d</fix>
</trkpt>
<trkpt lat="40.071375" lon="-105.229789">
  <ele>1582.88</ele>
  <time>2026-08-28T17:48:38Z</time>
  <course>247.42</course>
  <speed>0.02</speed>
  <fix>3d</fix>
</trkpt>
<trkpt lat="40.0713749" lon="-105.229789">
  <ele>1583.0</ele>
  <time>2026-08-28T17:48:38Z</time>
  <course>0.0</course>
  <speed>0.0</speed>
  <fix>3d</fix>
</trkpt>
<trkpt lat="40.071375" lon="-105.229789">
  <ele>1582.88</ele>
  <time>2026-08-28T17:48:38Z</time>
  <course>247.42</course>
  <speed>0.02</speed>
  <fix>3d</fix>
</trkpt>
<trkpt lat="40.0713749" lon="-105.229789">
  <ele>1583.0</ele>
  <time>2026-08-28T17:48:38Z</time>
  <course>0.0</course>
  <speed>0.0</speed>
  <fix>3d</fix>
</trkpt>
<trkpt lat="40.071375" lon="-105.229789">
  <ele>1582.89</ele>
  <time>2026-08-28T17:48:38Z</time>
  <course>247.42</course>
  <speed>0.02</speed>
  <fix>3d</fix>
</trkpt>
<trkpt lat="40.0713749" lon="-105.229789">
  <ele>1583.0</ele>
  <time>2026-08-28T17:48:38Z</time>
  <course>0.0</course>
  <speed>0.0</speed>
  <fix>3d</fix>
</trkpt>
<trkpt lat="40.071375" lon="-105.229789">
  <ele>1582.89</ele>
  <time>2026-08-28T17:48:38Z</time>
  <course>247.42</course>
  <speed>0.02</speed>
  <fix>3d</fix>
</trkpt>
<trkpt lat="40.0713749" lon="-105.229789">
  <ele>1583.0</ele>
  <time>2026-08-28T17:48:38Z</time>
  <course>0.0</course>
  <speed>0.0</speed>
  <fix>3d</fix>
</trkpt>
<trkpt lat="40.071375" lon="-105.229789">
  <ele>1582.89</ele>
  <time>2026-08-28T17:48:38Z</time>
  <course>247.41</course>
  <speed>0.02</speed>
  <fix>3d</fix>
</trkpt>
<trkpt lat="40.0713749" lon="-105.229789">
  <ele>1583.0</ele>
  <time>2026-08-28T17:48:38Z</time>
  <course>0.0</course>
  <speed>0.0</speed>
  <fix>3d</fix>
</trkpt>
<trkpt lat="40.071375" lon="-105.229789">
  <ele>1582.89</ele>
  <time>2026-08-28T17:48:38Z</time>
  <course>247.41</course>
  <speed>0.02</speed>
  <fix>3d</fix>
</trkpt>
<trkpt lat="40.0713749" lon="-105.229789">
  <ele>1583.0</ele>
  <time>2026-08-28T17:48:38Z</time>
  <course>0.0</course>
  <speed>0.0</speed>
  <fix>3d</fix>
</trkpt>
<trkpt lat="40.071375" lon="-105.229789">
  <ele>1582.89</ele>
  <time>2026-08-28T17:48:38Z</time>
  <course>247.41</course>
  <speed>0.02</speed>
  <fix>3d</fix>
</trkpt>
<trkpt lat="40.0713749" lon="-105.229789">
  <ele>1583.0</ele>
  <time>2026-08-28T17:48:38Z</time>
  <course>0.0</course>
  <speed>0.0</speed>
  <fix>3d</fix>
</trkpt>
<trkpt lat="40.071375" lon="-105.229789">
  <ele>1582.89</ele>
  <time>2026-08-28T17:48:38Z</time>
  <course>247.41</course>
  <speed>0.02</speed>
  <fix>3d</fix>
</trkpt>
<trkpt lat="40.0713749" lon="-105.229789">
  <ele>1583.0</ele>
  <time>2026-08-28T17:48:38Z</time>
  <course>0.0</course>
  <speed>0.0</speed>
  <fix>3d</fix>
</trkpt>
<trkpt lat="40.071375" lon="-105.229789">
  <ele>1582.89</ele>
  <time>2026-08-28T17:48:38Z</time>
  <course>247.41</course>
  <speed>0.02</speed>
  <fix>3d</fix>
</trkpt>
<trkpt lat="40.0713749" lon="-105.229789">
  <ele>1583.0</ele>
  <time>2026-08-28T17:48:38Z</time>
  <course>0.0</course>
  <speed>0.0</speed>
  <fix>3d</fix>
</trkpt>
<trkpt lat="40.071375" lon="-105.229789">
  <ele>1582.89</ele>
  <time>2026-08-28T17:48:38Z</time>
  <course>247.4</course>
  <speed>0.02</speed>
  <fix>3d</fix>
</trkpt>
<trkpt lat="40.0713749" lon="-105.229789">
  <ele>1583.0</ele>
  <time>2026-08-28T17:48:38Z</time>
  <course>0.0</course>
  <speed>0.0</speed>
  <fix>3d</fix>
</trkpt>
<trkpt lat="40.071375" lon="-105.229789">
  <ele>1582.89</ele>
  <time>2026-08-28T17:48:38Z</time>
  <course>247.4</course>
  <speed>0.02</speed>
  <fix>3d</fix>
</trkpt>
<trkpt lat="40.0713749" lon="-105.229789">
  <ele>1583.0</ele>
  <time>2026-08-28T17:48:38Z</time>
  <course>0.0</course>
  <speed>0.0</speed>
  <fix>3d</fix>
</trkpt>
<trkpt lat="40.071375" lon="-105.229789">
  <ele>1582.89</ele>
  <time>2026-08-28T17:48:38Z</time>
  <course>247.4</course>
  <speed>0.02</speed>
  <fix>3d</fix>
</trkpt>
<trkpt lat="40.0713749" lon="-105.229789">
  <ele>1583.0</ele>
  <time>2026-08-28T17:48:38Z</time>
  <course>0.0</course>
  <speed>0.0</speed>
  <fix>3d</fix>
</trkpt>
<trkpt lat="40.071375" lon="-105.229789">
  <ele>1582.89</ele>
  <time>2026-08-28T17:48:38Z</time>
  <course>247.4</course>
  <speed>0.02</speed>
  <fix>3d</fix>
</trkpt>
<trkpt lat="40.0713749" lon="-105.229789">
  <ele>1583.0</ele>
  <time>2026-08-28T17:48:38Z</time>
  <course>0.0</course>
  <speed>0.0</speed>
  <fix>3d</fix>
</trkpt>
<trkpt lat="40.071375" lon="-105.229789">
  <ele>1582.89</ele>
  <time>2026-08-28T17:48:38Z</time>
  <course>247.4</course>
  <speed>0.02</speed>
  <fix>3d</fix>
</trkpt>
<trkpt lat="40.0713749" lon="-105.229789">
  <ele>1583.0</ele>
  <time>2026-08-28T17:48:38Z</time>
  <course>0.0</course>
  <speed>0.0</speed>
  <fix>3d</fix>
</trkpt>
<trkpt lat="40.071375" lon="-105.229789">
  <ele>1582.89</ele>
  <time>2026-08-28T17:48:38Z</time>
  <course>247.39</course>
  <speed>0.02</speed>
  <fix>3d</fix>
</trkpt>
<trkpt lat="40.0713749" lon="-105.229789">
  <ele>1583.0</ele>
  <time>2026-08-28T17:48:38Z</time>
  <course>0.0</course>
  <speed>0.0</speed>
  <fix>3d</fix>
</trkpt>
<trkpt lat="40.071375" lon="-105.229789">
  <ele>1582.88</ele>
  <time>2026-08-28T17:48:38Z</time>
  <course>247.39</course>
  <speed>0.01</speed>
  <fix>3d</fix>
</trkpt>
<trkpt lat="40.0713749" lon="-105.229789">
  <ele>1583.0</ele>
  <time>2026-08-28T17:48:38Z</time>
  <course>0.0</course>
  <speed>0.0</speed>
  <fix>3d</fix>
</trkpt>
<trkpt lat="40.071375" lon="-105.229789">
  <ele>1582.89</ele>
  <time>2026-08-28T17:48:38Z</time>
  <course>247.39</course>
  <speed>0.02</speed>
  <fix>3d</fix>
</trkpt>
<trkpt lat="40.0713749" lon="-105.229789">
  <ele>1583.0</ele>
  <time>2026-08-28T17:48:38Z</time>
  <course>0.0</course>
  <speed>0.0</speed>
  <fix>3d</fix>
</trkpt>
<trkpt lat="40.071375" lon="-105.229789">
  <ele>1582.89</ele>
  <time>2026-08-28T17:48:38Z</time>
  <course>247.39</course>
  <speed>0.01</speed>
  <fix>3d</fix>
</trkpt>
<trkpt lat="40.0713749" lon="-105.229789">
  <ele>1583.0</ele>
  <time>2026-08-28T17:48:38Z</time>
  <course>0.0</course>
  <speed>0.0</speed>
  <fix>3d</fix>
</trkpt>
<trkpt lat="40.071375" lon="-105.229789">
  <ele>1582.89</ele>
  <time>2026-08-28T17:48:38Z</time>
  <course>247.39</course>
  <speed>0.02</speed>
  <fix>3d</fix>
</trkpt>
<trkpt lat="40.0713749" lon="-105.229789">
  <ele>1583.0</ele>
  <time>2026-08-28T17:48:38Z</time>
  <course>0.0</course>
  <speed>0.0</speed>
  <fix>3d</fix>
</trkpt>
<trkpt lat="40.071375" lon="-105.229789">
  <ele>1582.89</ele>
  <time>2026-08-28T17:48:38Z</time>
  <course>247.38</course>
  <speed>0.02</speed>
  <fix>3d</fix>
</trkpt>
<trkpt lat="40.0713749" lon="-105.229789">
  <ele>1583.0</ele>
  <time>2026-08-28T17:48:38Z</time>
  <course>0.0</course>
  <speed>0.0</speed>
  <fix>3d</fix>
</trkpt>
<trkpt lat="40.071375" lon="-105.229789">
  <ele>1582.89</ele>
  <time>2026-08-28T17:48:38Z</time>
  <course>247.38</course>
  <speed>0.02</speed>
  <fix>3d</fix>
</trkpt>
<trkpt lat="40.0713749" lon="-105.229789">
  <ele>1583.0</ele>
  <time>2026-08-28T17:48:38Z</time>
  <course>0.0</course>
  <speed>0.0</speed>
  <fix>3d</fix>
</trkpt>
<trkpt lat="40.071375" lon="-105.229789">
  <ele>1582.89</ele>
  <time>2026-08-28T17:48:38Z</time>
  <course>247.38</course>
  <speed>0.02</speed>
  <fix>3d</fix>
</trkpt>
<trkpt lat="40.0713749" lon="-105.229789">
  <ele>1583.0</ele>
  <time>2026-08-28T17:48:38Z</time>
  <course>0.0</course>
  <speed>0.0</speed>
  <fix>3d</fix>
</trkpt>
<trkpt lat="40.071375" lon="-105.229789">
  <ele>1582.89</ele>
  <time>2026-08-28T17:48:38Z</time>
  <course>247.38</course>
  <speed>0.02</speed>
  <fix>3d</fix>
</trkpt>
<trkpt lat="40.0713749" lon="-105.229789">
  <ele>1583.0</ele>
  <time>2026-08-28T17:48:38Z</time>
  <course>0.0</course>
  <speed>0.0</speed>
  <fix>3d</fix>
</trkpt>
<trkpt lat="40.071375" lon="-105.229789">
  <ele>1582.89</ele>
  <time>2026-08-28T17:48:38Z</time>
  <course>247.38</course>
  <speed>0.02</speed>
  <fix>3d</fix>
</trkpt>
<trkpt lat="40.0713749" lon="-105.229789">
  <ele>1583.0</ele>
  <time>2026-08-28T17:48:38Z</time>
  <course>0.0</course>
  <speed>0.0</speed>
  <fix>3d</fix>
</trkpt>
<trkpt lat="40.071375" lon="-105.229789">
  <ele>1582.89</ele>
  <time>2026-08-28T17:48:38Z</time>
  <course>247.38</course>
  <speed>0.02</speed>
  <fix>3d</fix>
</trkpt>
<trkpt lat="40.0713749" lon="-105.229789">
  <ele>1583.0</ele>
  <time>2026-08-28T17:48:38Z</time>
  <course>0.0</course>
  <speed>0.0</speed>
  <fix>3d</fix>
</trkpt>
<trkpt lat="40.071375" lon="-105.229789">
  <ele>1582.89</ele>
  <time>2026-08-28T17:48:38Z</time>
  <course>247.37</course>
  <speed>0.02</speed>
  <fix>3d</fix>
</trkpt>
<trkpt lat="40.0713749" lon="-105.229789">
  <ele>1583.0</ele>
  <time>2026-08-28T17:48:38Z</time>
  <course>0.0</course>
  <speed>0.0</speed>
  <fix>3d</fix>
</trkpt>
<trkpt lat="40.071375" lon="-105.229789">
  <ele>1582.9</ele>
  <time>2026-08-28T17:48:38Z</time>
  <course>247.37</course>
  <speed>0.02</speed>
  <fix>3d</fix>
</trkpt>
<trkpt lat="40.0713749" lon="-105.229789">
  <ele>1583.0</ele>
  <time>2026-08-28T17:48:38Z</time>
  <course>0.0</course>
  <speed>0.0</speed>
  <fix>3d</fix>
</trkpt>
<trkpt lat="40.071375" lon="-105.229789">
  <ele>1582.9</ele>
  <time>2026-08-28T17:48:38Z</time>
  <course>247.37</course>
  <speed>0.02</speed>
  <fix>3d</fix>
</trkpt>
<trkpt lat="40.0713749" lon="-105.229789">
  <ele>1583.0</ele>
  <time>2026-08-28T17:48:38Z</time>
  <course>0.0</course>
  <speed>0.0</speed>
  <fix>3d</fix>
</trkpt>
<trkpt lat="40.071375" lon="-105.229789">
  <ele>1582.9</ele>
  <time>2026-08-28T17:48:38Z</time>
  <course>247.37</course>
  <speed>0.02</speed>
  <fix>3d</fix>
</trkpt>
<trkpt lat="40.0713749" lon="-105.229789">
  <ele>1583.0</ele>
  <time>2026-08-28T17:48:38Z</time>
  <course>0.0</course>
  <speed>0.0</speed>
  <fix>3d</fix>
</trkpt>
<trkpt lat="40.071375" lon="-105.229789">
  <ele>1582.9</ele>
  <time>2026-08-28T17:48:38Z</time>
  <course>247.37</course>
  <speed>0.02</speed>
  <fix>3d</fix>
</trkpt>
<trkpt lat="40.0713749" lon="-105.229789">
  <ele>1583.0</ele>
  <time>2026-08-28T17:48:38Z</time>
  <course>0.0</course>
  <speed>0.0</speed>
  <fix>3d</fix>
</trkpt>
<trkpt lat="40.071375" lon="-105.229789">
  <ele>1582.9</ele>
  <time>2026-08-28T17:48:38Z</time>
  <course>247.37</course>
  <speed>0.02</speed>
  <fix>3d</fix>
</trkpt>
<trkpt lat="40.0713749" lon="-105.229789">
  <ele>1583.0</ele>
  <time>2026-08-28T17:48:38Z</time>
  <course>0.0</course>
  <speed>0.0</speed>
  <fix>3d</fix>
</trkpt>
<trkpt lat="40.071375" lon="-105.229789">
  <ele>1582.9</ele>
  <time>2026-08-28T17:48:38Z</time>
  <course>247.36</course>
  <speed>0.02</speed>
  <fix>3d</fix>
</trkpt>
<trkpt lat="40.0713749" lon="-105.229789">
  <ele>1583.0</ele>
  <time>2026-08-28T17:48:38Z</time>
  <course>0.0</course>
  <speed>0.0</speed>
  <fix>3d</fix>
</trkpt>
<trkpt lat="40.071375" lon="-105.229789">
  <ele>1582.9</ele>
  <time>2026-08-28T17:48:38Z</time>
  <course>247.36</course>
  <speed>0.02</speed>
  <fix>3d</fix>
</trkpt>
<trkpt lat="40.0713749" lon="-105.229789">
  <ele>1583.0</ele>
  <time>2026-08-28T17:48:38Z</time>
  <course>0.0</course>
  <speed>0.0</speed>
  <fix>3d</fix>
</trkpt>
<trkpt lat="40.071375" lon="-105.229789">
  <ele>1582.9</ele>
  <time>2026-08-28T17:48:38Z</time>
  <course>247.36</course>
  <speed>0.02</speed>
  <fix>3d</fix>
</trkpt>
<trkpt lat="40.0713749" lon="-105.229789">
  <ele>1583.0</ele>
  <time>2026-08-28T17:48:38Z</time>
  <course>0.0</course>
  <speed>0.0</speed>
  <fix>3d</fix>
</trkpt>
<trkpt lat="40.071375" lon="-105.229789">
  <ele>1582.9</ele>
  <time>2026-08-28T17:48:38Z</time>
  <course>247.36</course>
  <speed>0.02</speed>
  <fix>3d</fix>
</trkpt>
<trkpt lat="40.0713749" lon="-105.229789">
  <ele>1583.0</ele>
  <time>2026-08-28T17:48:38Z</time>
  <course>0.0</course>
  <speed>0.0</speed>
  <fix>3d</fix>
</trkpt>
<trkpt lat="40.071375" lon="-105.229789">
  <ele>1582.91</ele>
  <time>2026-08-28T17:48:38Z</time>
  <course>247.36</course>
  <speed>0.02</speed>
  <fix>3d</fix>
</trkpt>
<trkpt lat="40.0713749" lon="-105.229789">
  <ele>1583.0</ele>
  <time>2026-08-28T17:48:38Z</time>
  <course>0.0</course>
  <speed>0.0</speed>
  <fix>3d</fix>
</trkpt>
<trkpt lat="40.071375" lon="-105.229789">
  <ele>1582.91</ele>
  <time>2026-08-28T17:48:38Z</time>
  <course>247.35</course>
  <speed>0.02</speed>
  <fix>3d</fix>
</trkpt>
<trkpt lat="40.0713749" lon="-105.229789">
  <ele>1583.0</ele>
  <time>2026-08-28T17:48:38Z</time>
  <course>0.0</course>
  <speed>0.0</speed>
  <fix>3d</fix>
</trkpt>
<trkpt lat="40.071375" lon="-105.229789">
  <ele>1582.91</ele>
  <time>2026-08-28T17:48:38Z</time>
  <course>247.35</course>
  <speed>0.02</speed>
  <fix>3d</fix>
</trkpt>
<trkpt lat="40.0713749" lon="-105.229789">
  <ele>1583.0</ele>
  <time>2026-08-28T17:48:38Z</time>
  <course>0.0</course>
  <speed>0.0</speed>
  <fix>3d</fix>
</trkpt>
<trkpt lat="40.071375" lon="-105.229789">
  <ele>1582.91</ele>
  <time>2026-08-28T17:48:38Z</time>
  <course>247.35</course>
  <speed>0.02</speed>
  <fix>3d</fix>
</trkpt>
<trkpt lat="40.0713749" lon="-105.229789">
  <ele>1583.0</ele>
  <time>2026-08-28T17:48:38Z</time>
  <course>0.0</course>
  <speed>0.0</speed>
  <fix>3d</fix>
</trkpt>
<trkpt lat="40.071375" lon="-105.229789">
  <ele>1582.91</ele>
  <time>2026-08-28T17:48:38Z</time>
  <course>247.35</course>
  <speed>0.02</speed>
  <fix>3d</fix>
</trkpt>
<trkpt lat="40.0713749" lon="-105.229789">
  <ele>1583.0</ele>
  <time>2026-08-28T17:48:38Z</time>
  <course>0.0</course>
  <speed>0.0</speed>
  <fix>3d</fix>
</trkpt>
<trkpt lat="40.071375" lon="-105.229789">
  <ele>1582.91</ele>
  <time>2026-08-28T17:48:38Z</time>
  <course>247.35</course>
  <speed>0.02</speed>
  <fix>3d</fix>
</trkpt>
<trkpt lat="40.0713749" lon="-105.229789">
  <ele>1583.0</ele>
  <time>2026-08-28T17:48:38Z</time>
  <course>0.0</course>
  <speed>0.0</speed>
  <fix>3d</fix>
</trkpt>
<trkpt lat="40.071375" lon="-105.229789">
  <ele>1582.91</ele>
  <time>2026-08-28T17:48:38Z</time>
  <course>247.35</course>
  <speed>0.02</speed>
  <fix>3d</fix>
</trkpt>
<trkpt lat="40.0713749" lon="-105.229789">
  <ele>1583.0</ele>
  <time>2026-08-28T17:48:38Z</time>
  <course>0.0</course>
  <speed>0.0</speed>
  <fix>3d</fix>
</trkpt>
<trkpt lat="40.071375" lon="-105.229789">
  <ele>1582.91</ele>
  <time>2026-08-28T17:48:38Z</time>
  <course>247.34</course>
  <speed>0.02</speed>
  <fix>3d</fix>
</trkpt>
<trkpt lat="40.0713749" lon="-105.229789">
  <ele>1583.0</ele>
  <time>2026-08-28T17:48:38Z</time>
  <course>0.0</course>
  <speed>0.0</speed>
  <fix>3d</fix>
</trkpt>
<trkpt lat="40.071375" lon="-105.229789">
  <ele>1582.91</ele>
  <time>2026-08-28T17:48:38Z</time>
  <course>247.34</course>
  <speed>0.02</speed>
  <fix>3d</fix>
</trkpt>
<trkpt lat="40.0713749" lon="-105.229789">
  <ele>1583.0</ele>
  <time>2026-08-28T17:48:38Z</time>
  <course>0.0</course>
  <speed>0.0</speed>
  <fix>3d</fix>
</trkpt>
<trkpt lat="40.071375" lon="-105.229789">
  <ele>1582.92</ele>
  <time>2026-08-28T17:48:38Z</time>
  <course>247.34</course>
  <speed>0.02</speed>
  <fix>3d</fix>
</trkpt>
<trkpt lat="40.0713749" lon="-105.229789">
  <ele>1583.0</ele>
  <time>2026-08-28T17:48:38Z</time>
  <course>0.0</course>
  <speed>0.0</speed>
  <fix>3d</fix>
</trkpt>
<trkpt lat="40.071375" lon="-105.229789">
  <ele>1582.92</ele>
  <time>2026-08-28T17:48:38Z</time>
  <course>247.34</course>
  <speed>0.02</speed>
  <fix>3d</fix>
</trkpt>
<trkpt lat="40.0713749" lon="-105.229789">
  <ele>1583.0</ele>
  <time>2026-08-28T17:48:38Z</time>
  <course>0.0</course>
  <speed>0.0</speed>
  <fix>3d</fix>
</trkpt>
<trkpt lat="40.071375" lon="-105.229789">
  <ele>1582.92</ele>
  <time>2026-08-28T17:48:38Z</time>
  <course>247.34</course>
  <speed>0.02</speed>
  <fix>3d</fix>
</trkpt>
<trkpt lat="40.0713749" lon="-105.229789">
  <ele>1583.0</ele>
  <time>2026-08-28T17:48:38Z</time>
  <course>0.0</course>
  <speed>0.0</speed>
  <fix>3d</fix>
</trkpt>
<trkpt lat="40.071375" lon="-105.229789">
  <ele>1582.92</ele>
  <time>2026-08-28T17:48:38Z</time>
  <course>247.34</course>
  <speed>0.02</speed>
  <fix>3d</fix>
</trkpt>
<trkpt lat="40.0713749" lon="-105.229789">
  <ele>1583.0</ele>
  <time>2026-08-28T17:48:38Z</time>
  <course>0.0</course>
  <speed>0.0</speed>
  <fix>3d</fix>
</trkpt>
<trkpt lat="40.071375" lon="-105.229789">
  <ele>1582.92</ele>
  <time>2026-08-28T17:48:38Z</time>
  <course>247.33</course>
  <speed>0.02</speed>
  <fix>3d</fix>
</trkpt>
<trkpt lat="40.0713749" lon="-105.229789">
  <ele>1583.0</ele>
  <time>2026-08-28T17:48:38Z</time>
  <course>0.0</course>
  <speed>0.0</speed>
  <fix>3d</fix>
</trkpt>
<trkpt lat="40.071375" lon="-105.229789">
  <ele>1582.92</ele>
  <time>2026-08-28T17:48:38Z</time>
  <course>247.33</course>
  <speed>0.02</speed>
  <fix>3d</fix>
</trkpt>
<trkpt lat="40.0713749" lon="-105.229789">
  <ele>1583.0</ele>
  <time>2026-08-28T17:48:38Z</time>
  <course>0.0</course>
  <speed>0.0</speed>
  <fix>3d</fix>
</trkpt>
<trkpt lat="40.071375" lon="-105.229789">
  <ele>1582.92</ele>
  <time>2026-08-28T17:48:38Z</time>
  <course>247.33</course>
  <speed>0.02</speed>
  <fix>3d</fix>
</trkpt>
<trkpt lat="40.0713749" lon="-105.229789">
  <ele>1583.0</ele>
  <time>2026-08-28T17:48:38Z</time>
  <course>0.0</course>
  <speed>0.0</speed>
  <fix>3d</fix>
</trkpt>
<trkpt lat="40.071375" lon="-105.229789">
  <ele>1582.93</ele>
  <time>2026-08-28T17:48:38Z</time>
  <course>247.33</course>
  <speed>0.02</speed>
  <fix>3d</fix>
</trkpt>
<trkpt lat="40.0713749" lon="-105.229789">
  <ele>1583.0</ele>
  <time>2026-08-28T17:48:38Z</time>
  <course>0.0</course>
  <speed>0.0</speed>
  <fix>3d</fix>
</trkpt>
<trkpt lat="40.071375" lon="-105.229789">
  <ele>1582.93</ele>
  <time>2026-08-28T17:48:38Z</time>
  <course>247.33</course>
  <speed>0.02</speed>
  <fix>3d</fix>
</trkpt>
<trkpt lat="40.0713749" lon="-105.229789">
  <ele>1583.0</ele>
  <time>2026-08-28T17:48:38Z</time>
  <course>0.0</course>
  <speed>0.0</speed>
  <fix>3d</fix>
</trkpt>
<trkpt lat="40.071375" lon="-105.229789">
  <ele>1582.93</ele>
  <time>2026-08-28T17:48:38Z</time>
  <course>247.33</course>
  <speed>0.02</speed>
  <fix>3d</fix>
</trkpt>
<trkpt lat="40.0713749" lon="-105.229789">
  <ele>1583.0</ele>
  <time>2026-08-28T17:48:38Z</time>
  <course>0.0</course>
  <speed>0.0</speed>
  <fix>3d</fix>
</trkpt>
<trkpt lat="40.071375" lon="-105.229789">
  <ele>1582.94</ele>
  <time>2026-08-28T17:48:38Z</time>
  <course>247.33</course>
  <speed>0.02</speed>
  <fix>3d</fix>
</trkpt>
<trkpt lat="40.0713749" lon="-105.229789">
  <ele>1583.0</ele>
  <time>2026-08-28T17:48:38Z</time>
  <course>0.0</course>
  <speed>0.0</speed>
  <fix>3d</fix>
</trkpt>
<trkpt lat="40.071375" lon="-105.229789">
  <ele>1582.94</ele>
  <time>2026-08-28T17:48:38Z</time>
  <course>247.32</course>
  <speed>0.02</speed>
  <fix>3d</fix>
</trkpt>
<trkpt lat="40.0713749" lon="-105.229789">
  <ele>1583.0</ele>
  <time>2026-08-28T17:48:38Z</time>
  <course>0.0</course>
  <speed>0.0</speed>
  <fix>3d</fix>
</trkpt>
<trkpt lat="40.071375" lon="-105.229789">
  <ele>1582.94</ele>
  <time>2026-08-28T17:48:38Z</time>
  <course>247.32</course>
  <speed>0.02</speed>
  <fix>3d</fix>
</trkpt>
<trkpt lat="40.0713749" lon="-105.229789">
  <ele>1583.0</ele>
  <time>2026-08-28T17:48:38Z</time>
  <course>0.0</course>
  <speed>0.0</speed>
  <fix>3d</fix>
</trkpt>
<trkpt lat="40.071375" lon="-105.229789">
  <ele>1582.94</ele>
  <time>2026-08-28T17:48:38Z</time>
  <course>247.32</course>
  <speed>0.02</speed>
  <fix>3d</fix>
</trkpt>
<trkpt lat="40.0713749" lon="-105.229789">
  <ele>1583.0</ele>
  <time>2026-08-28T17:48:38Z</time>
  <course>0.0</course>
  <speed>0.0</speed>
  <fix>3d</fix>
</trkpt>
<trkpt lat="40.071375" lon="-105.229789">
  <ele>1582.95</ele>
  <time>2026-08-28T17:48:38Z</time>
  <course>247.32</course>
  <speed>0.02</speed>
  <fix>3d</fix>
</trkpt>
<trkpt lat="40.0713749" lon="-105.229789">
  <ele>1583.0</ele>
  <time>2026-08-28T17:48:38Z</time>
  <course>0.0</course>
  <speed>0.0</speed>
  <fix>3d</fix>
</trkpt>
<trkpt lat="40.071375" lon="-105.229789">
  <ele>1582.95</ele>
  <time>2026-08-28T17:48:38Z</time>
  <course>247.32</course>
  <speed>0.02</speed>
  <fix>3d</fix>
</trkpt>
<trkpt lat="40.0713749" lon="-105.229789">
  <ele>1583.0</ele>
  <time>2026-08-28T17:48:38Z</time>
  <course>0.0</course>
  <speed>0.0</speed>
  <fix>3d</fix>
</trkpt>
<trkpt lat="40.071375" lon="-105.229789">
  <ele>1582.95</ele>
  <time>2026-08-28T17:48:38Z</time>
  <course>247.32</course>
  <speed>0.02</speed>
  <fix>3d</fix>
</trkpt>
<trkpt lat="40.0713749" lon="-105.229789">
  <ele>1583.0</ele>
  <time>2026-08-28T17:48:38Z</time>
  <course>0.0</course>
  <speed>0.0</speed>
  <fix>3d</fix>
</trkpt>
<trkpt lat="40.071375" lon="-105.229789">
  <ele>1582.95</ele>
  <time>2026-08-28T17:48:38Z</time>
  <course>247.31</course>
  <speed>0.02</speed>
  <fix>3d</fix>
</trkpt>
<trkpt lat="40.0713749" lon="-105.229789">
  <ele>1583.0</ele>
  <time>2026-08-28T17:48:38Z</time>
  <course>0.0</course>
  <speed>0.0</speed>
  <fix>3d</fix>
</trkpt>
<trkpt lat="40.071375" lon="-105.229789">
  <ele>1582.95</ele>
  <time>2026-08-28T17:48:38Z</time>
  <course>247.31</course>
  <speed>0.02</speed>
  <fix>3d</fix>
</trkpt>
<trkpt lat="40.0713749" lon="-105.229789">
  <ele>1583.0</ele>
  <time>2026-08-28T17:48:38Z</time>
  <course>0.0</course>
  <speed>0.0</speed>
  <fix>3d</fix>
</trkpt>
<trkpt lat="40.071375" lon="-105.229789">
  <ele>1582.95</ele>
  <time>2026-08-28T17:48:38Z</time>
  <course>247.31</course>
  <speed>0.02</speed>
  <fix>3d</fix>
</trkpt>
<trkpt lat="40.0713749" lon="-105.229789">
  <ele>1583.0</ele>
  <time>2026-08-28T17:48:38Z</time>
  <course>0.0</course>
  <speed>0.0</speed>
  <fix>3d</fix>
</trkpt>
<trkpt lat="40.071375" lon="-105.229789">
  <ele>1582.95</ele>
  <time>2026-08-28T17:48:38Z</time>
  <course>247.31</course>
  <speed>0.02</speed>
  <fix>3d</fix>
</trkpt>
<trkpt lat="40.0713749" lon="-105.229789">
  <ele>1583.0</ele>
  <time>2026-08-28T17:48:38Z</time>
  <course>0.0</course>
  <speed>0.0</speed>
  <fix>3d</fix>
</trkpt>
<trkpt lat="40.071375" lon="-105.229789">
  <ele>1582.95</ele>
  <time>2026-08-28T17:48:38Z</time>
  <course>247.31</course>
  <speed>0.02</speed>
  <fix>3d</fix>
</trkpt>
<trkpt lat="40.0713749" lon="-105.229789">
  <ele>1583.0</ele>
  <time>2026-08-28T17:48:38Z</time>
  <course>0.0</course>
  <speed>0.0</speed>
  <fix>3d</fix>
</trkpt>
<trkpt lat="40.071375" lon="-105.229789">
  <ele>1582.95</ele>
  <time>2026-08-28T17:48:38Z</time>
  <course>247.31</course>
  <speed>0.02</speed>
  <fix>3d</fix>
</trkpt>
<trkpt lat="40.0713749" lon="-105.229789">
  <ele>1583.0</ele>
  <time>2026-08-28T17:48:38Z</time>
  <course>0.0</course>
  <speed>0.0</speed>
  <fix>3d</fix>
</trkpt>
<trkpt lat="40.071375" lon="-105.229789">
  <ele>1582.95</ele>
  <time>2026-08-28T17:48:38Z</time>
  <course>247.3</course>
  <speed>0.02</speed>
  <fix>3d</fix>
</trkpt>
<trkpt lat="40.0713749" lon="-105.229789">
  <ele>1583.0</ele>
  <time>2026-08-28T17:48:38Z</time>
  <course>0.0</course>
  <speed>0.0</speed>
  <fix>3d</fix>
</trkpt>
<trkpt lat="40.071375" lon="-105.229789">
  <ele>1582.94</ele>
  <time>2026-08-28T17:48:38Z</time>
  <course>247.3</course>
  <speed>0.02</speed>
  <fix>3d</fix>
</trkpt>
<trkpt lat="40.0713749" lon="-105.229789">
  <ele>1583.0</ele>
  <time>2026-08-28T17:48:38Z</time>
  <course>0.0</course>
  <speed>0.0</speed>
  <fix>3d</fix>
</trkpt>
<trkpt lat="40.071375" lon="-105.229789">
  <ele>1582.94</ele>
  <time>2026-08-28T17:48:38Z</time>
  <course>247.3</course>
  <speed>0.02</speed>
  <fix>3d</fix>
</trkpt>
<trkpt lat="40.0713749" lon="-105.229789">
  <ele>1583.0</ele>
  <time>2026-08-28T17:48:38Z</time>
  <course>0.0</course>
  <speed>0.0</speed>
  <fix>3d</fix>
</trkpt>
<trkpt lat="40.071375" lon="-105.229789">
  <ele>1582.94</ele>
  <time>2026-08-28T17:48:38Z</time>
  <course>247.3</course>
  <speed>0.02</speed>
  <fix>3d</fix>
</trkpt>
<trkpt lat="40.0713749" lon="-105.229789">
  <ele>1583.0</ele>
  <time>2026-08-28T17:48:38Z</time>
  <course>0.0</course>
  <speed>0.0</speed>
  <fix>3d</fix>
</trkpt>
<trkpt lat="40.071375" lon="-105.229789">
  <ele>1582.94</ele>
  <time>2026-08-28T17:48:38Z</time>
  <course>247.3</course>
  <speed>0.02</speed>
  <fix>3d</fix>
</trkpt>
<trkpt lat="40.0713749" lon="-105.229789">
  <ele>1583.0</ele>
  <time>2026-08-28T17:48:38Z</time>
  <course>0.0</course>
  <speed>0.0</speed>
  <fix>3d</fix>
</trkpt>
<trkpt lat="39.655741" lon="-104.1383097">
  <ele>1566.58</ele>
  <time>2026-08-28T17:48:40Z</time>
  <course>0.0</course>
  <speed>0.0</speed>
  <fix>3d</fix>
</trkpt>
<trkpt lat="40.0713749" lon="-105.229789">
  <ele>1583.0</ele>
  <time>2026-08-28T17:48:40Z</time>
  <course>0.0</course>
  <speed>0.0</speed>
  <fix>3d</fix>
</trkpt>
<trkpt lat="40.0713749" lon="-105.229789">
  <ele>1583.0</ele>
  <time>2026-08-28T17:48:40Z</time>
  <course>238.36</course>
  <speed>0.0</speed>
  <fix>3d</fix>
</trkpt>
<trkpt lat="40.0713749" lon="-105.229789">
  <ele>1583.0</ele>
  <time>2026-08-28T17:48:40Z</time>
  <course>0.0</course>
  <speed>0.0</speed>
  <fix>3d</fix>
</trkpt>
<trkpt lat="40.0713749" lon="-105.229789">
  <ele>1583.0</ele>
  <time>2026-08-28T17:48:40Z</time>
  <course>238.44</course>
  <speed>0.0</speed>
  <fix>3d</fix>
</trkpt>
<trkpt lat="40.0713749" lon="-105.229789">
  <ele>1583.0</ele>
  <time>2026-08-28T17:48:40Z</time>
  <course>0.0</course>
  <speed>0.0</speed>
  <fix>3d</fix>
</trkpt>
<trkpt lat="40.0713749" lon="-105.229789">
  <ele>1583.0</ele>
  <time>2026-08-28T17:48:40Z</time>
  <course>238.64</course>
  <speed>0.0</speed>
  <fix>3d</fix>
</trkpt>
<trkpt lat="40.0713749" lon="-105.229789">
  <ele>1583.0</ele>
  <time>2026-08-28T17:48:40Z</time>
  <course>0.0</course>
  <speed>0.0</speed>
  <fix>3d</fix>
</trkpt>
<trkpt lat="40.0713749" lon="-105.229789">
  <ele>1583.0</ele>
  <time>2026-08-28T17:48:40Z</time>
  <course>238.93</course>
  <speed>0.0</speed>
  <fix>3d</fix>
</trkpt>
<trkpt lat="40.0713749" lon="-105.229789">
  <ele>1583.0</ele>
  <time>2026-08-28T17:48:40Z</time>
  <course>0.0</course>
  <speed>0.0</speed>
  <fix>3d</fix>
</trkpt>
<trkpt lat="40.0713749" lon="-105.229789">
  <ele>1583.0</ele>
  <time>2026-08-28T17:48:40Z</time>
  <course>239.26</course>
  <speed>0.0</speed>
  <fix>3d</fix>
</trkpt>
<trkpt lat="40.0713749" lon="-105.229789">
  <ele>1583.0</ele>
  <time>2026-08-28T17:48:40Z</time>
  <course>0.0</course>
  <speed>0.0</speed>
  <fix>3d</fix>
</trkpt>
<trkpt lat="40.0713749" lon="-105.229789">
  <ele>1583.0</ele>
  <time>2026-08-28T17:48:40Z</time>
  <course>239.61</course>
  <speed>0.0</speed>
  <fix>3d</fix>
</trkpt>
<trkpt lat="40.0713749" lon="-105.229789">
  <ele>1583.0</ele>
  <time>2026-08-28T17:48:40Z</time>
  <course>0.0</course>
  <speed>0.0</speed>
  <fix>3d</fix>
</trkpt>
<trkpt lat="40.0713749" lon="-105.229789">
  <ele>1583.0</ele>
  <time>2026-08-28T17:48:40Z</time>
  <course>239.96</course>
  <speed>0.0</speed>
  <fix>3d</fix>
</trkpt>
<trkpt lat="40.0713749" lon="-105.229789">
  <ele>1583.0</ele>
  <time>2026-08-28T17:48:40Z</time>
  <course>0.0</course>
  <speed>0.0</speed>
  <fix>3d</fix>
</trkpt>
<trkpt lat="40.0713749" lon="-105.229789">
  <ele>1583.0</ele>
  <time>2026-08-28T17:48:40Z</time>
  <course>240.29</course>
  <speed>0.0</speed>
  <fix>3d</fix>
</trkpt>
<trkpt lat="40.0713749" lon="-105.229789">
  <ele>1583.0</ele>
  <time>2026-08-28T17:48:40Z</time>
  <course>0.0</course>
  <speed>0.0</speed>
  <fix>3d</fix>
</trkpt>
<trkpt lat="40.0713749" lon="-105.229789">
  <ele>1583.0</ele>
  <time>2026-08-28T17:48:40Z</time>
  <course>240.61</course>
  <speed>0.0</speed>
  <fix>3d</fix>
</trkpt>
<trkpt lat="40.0713749" lon="-105.229789">
  <ele>1583.0</ele>
  <time>2026-08-28T17:48:40Z</time>
  <course>0.0</course>
  <speed>0.0</speed>
  <fix>3d</fix>
</trkpt>
<trkpt lat="40.0713749" lon="-105.229789">
  <ele>1583.0</ele>
  <time>2026-08-28T17:48:40Z</time>
  <course>240.92</course>
  <speed>0.0</speed>
  <fix>3d</fix>
</trkpt>
<trkpt lat="40.0713749" lon="-105.229789">
  <ele>1583.0</ele>
  <time>2026-08-28T17:48:40Z</time>
  <course>0.0</course>
  <speed>0.0</speed>
  <fix>3d</fix>
</trkpt>
<trkpt lat="40.0713749" lon="-105.229789">
  <ele>1583.0</ele>
  <time>2026-08-28T17:48:40Z</time>
  <course>241.21</course>
  <speed>0.0</speed>
  <fix>3d</fix>
</trkpt>
<trkpt lat="40.0713749" lon="-105.229789">
  <ele>1583.0</ele>
  <time>2026-08-28T17:48:40Z</time>
  <course>0.0</course>
  <speed>0.0</speed>
  <fix>3d</fix>
</trkpt>
<trkpt lat="40.0713749" lon="-105.229789">
  <ele>1583.0</ele>
  <time>2026-08-28T17:48:40Z</time>
  <course>241.49</course>
  <speed>0.0</speed>
  <fix>3d</fix>
</trkpt>
<trkpt lat="40.0713749" lon="-105.229789">
  <ele>1583.0</ele>
  <time>2026-08-28T17:48:40Z</time>
  <course>0.0</course>
  <speed>0.0</speed>
  <fix>3d</fix>
</trkpt>
<trkpt lat="40.0713749" lon="-105.229789">
  <ele>1583.0</ele>
  <time>2026-08-28T17:48:40Z</time>
  <course>241.77</course>
  <speed>0.0</speed>
  <fix>3d</fix>
</trkpt>
<trkpt lat="40.0713749" lon="-105.229789">
  <ele>1583.0</ele>
  <time>2026-08-28T17:48:40Z</time>
  <course>0.0</course>
  <speed>0.0</speed>
  <fix>3d</fix>
</trkpt>
<trkpt lat="40.0713749" lon="-105.229789">
  <ele>1583.0</ele>
  <time>2026-08-28T17:48:40Z</time>
  <course>242.03</course>
  <speed>0.0</speed>
  <fix>3d</fix>
</trkpt>
<trkpt lat="40.0713749" lon="-105.229789">
  <ele>1583.0</ele>
  <time>2026-08-28T17:48:40Z</time>
  <course>0.0</course>
  <speed>0.0</speed>
  <fix>3d</fix>
</trkpt>
<trkpt lat="40.0713749" lon="-105.229789">
  <ele>1583.0</ele>
  <time>2026-08-28T17:48:40Z</time>
  <course>242.29</course>
  <speed>0.0</speed>
  <fix>3d</fix>
</trkpt>
<trkpt lat="40.0713749" lon="-105.229789">
  <ele>1583.0</ele>
  <time>2026-08-28T17:48:40Z</time>
  <course>0.0</course>
  <speed>0.0</speed>
  <fix>3d</fix>
</trkpt>
<trkpt lat="40.0713749" lon="-105.229789">
  <ele>1583.0</ele>
  <time>2026-08-28T17:48:40Z</time>
  <course>242.54</course>
  <speed>0.0</speed>
  <fix>3d</fix>
</trkpt>
<trkpt lat="40.0713749" lon="-105.229789">
  <ele>1583.0</ele>
  <time>2026-08-28T17:48:40Z</time>
  <course>0.0</course>
  <speed>0.0</speed>
  <fix>3d</fix>
</trkpt>
<trkpt lat="40.0713749" lon="-105.229789">
  <ele>1583.0</ele>
  <time>2026-08-28T17:48:40Z</time>
  <course>242.79</course>
  <speed>0.0</speed>
  <fix>3d</fix>
</trkpt>
<trkpt lat="40.0713749" lon="-105.229789">
  <ele>1583.0</ele>
  <time>2026-08-28T17:48:40Z</time>
  <course>0.0</course>
  <speed>0.0</speed>
  <fix>3d</fix>
</trkpt>
<trkpt lat="40.0713749" lon="-105.229789">
  <ele>1583.0</ele>
  <time>2026-08-28T17:48:40Z</time>
  <course>243.02</course>
  <speed>0.0</speed>
  <fix>3d</fix>
</trkpt>
<trkpt lat="40.0713749" lon="-105.229789">
  <ele>1583.0</ele>
  <time>2026-08-28T17:48:40Z</time>
  <course>0.0</course>
  <speed>0.0</speed>
  <fix>3d</fix>
</trkpt>
<trkpt lat="40.0713749" lon="-105.229789">
  <ele>1583.0</ele>
  <time>2026-08-28T17:48:40Z</time>
  <course>243.25</course>
  <speed>0.0</speed>
  <fix>3d</fix>
</trkpt>
<trkpt lat="40.0713749" lon="-105.229789">
  <ele>1583.0</ele>
  <time>2026-08-28T17:48:40Z</time>
  <course>0.0</course>
  <speed>0.0</speed>
  <fix>3d</fix>
</trkpt>
<trkpt lat="40.0713749" lon="-105.229789">
  <ele>1583.0</ele>
  <time>2026-08-28T17:48:40Z</time>
  <course>243.47</course>
  <speed>0.0</speed>
  <fix>3d</fix>
</trkpt>
<trkpt lat="40.0713749" lon="-105.229789">
  <ele>1583.0</ele>
  <time>2026-08-28T17:48:40Z</time>
  <course>0.0</course>
  <speed>0.0</speed>
  <fix>3d</fix>
</trkpt>
<trkpt lat="40.0713749" lon="-105.229789">
  <ele>1583.0</ele>
  <time>2026-08-28T17:48:40Z</time>
  <course>243.68</course>
  <speed>0.0</speed>
  <fix>3d</fix>
</trkpt>
<trkpt lat="40.0713749" lon="-105.229789">
  <ele>1583.0</ele>
  <time>2026-08-28T17:48:40Z</time>
  <course>0.0</course>
  <speed>0.0</speed>
  <fix>3d</fix>
</trkpt>
<trkpt lat="40.0713749" lon="-105.229789">
  <ele>1583.0</ele>
  <time>2026-08-28T17:48:40Z</time>
  <course>243.89</course>
  <speed>0.0</speed>
  <fix>3d</fix>
</trkpt>
<trkpt lat="40.0713749" lon="-105.229789">
  <ele>1583.0</ele>
  <time>2026-08-28T17:48:40Z</time>
  <course>0.0</course>
  <speed>0.0</speed>
  <fix>3d</fix>
</trkpt>
<trkpt lat="40.0713749" lon="-105.229789">
  <ele>1583.0</ele>
  <time>2026-08-28T17:48:40Z</time>
  <course>244.09</course>
  <speed>0.0</speed>
  <fix>3d</fix>
</trkpt>
<trkpt lat="40.0713749" lon="-105.229789">
  <ele>1583.0</ele>
  <time>2026-08-28T17:48:40Z</time>
  <course>0.0</course>
  <speed>0.0</speed>
  <fix>3d</fix>
</trkpt>
<trkpt lat="40.0713749" lon="-105.229789">
  <ele>1583.0</ele>
  <time>2026-08-28T17:48:40Z</time>
  <course>244.28</course>
  <speed>0.0</speed>
  <fix>3d</fix>
</trkpt>
<trkpt lat="40.0713749" lon="-105.229789">
  <ele>1583.0</ele>
  <time>2026-08-28T17:48:40Z</time>
  <course>0.0</course>
  <speed>0.0</speed>
  <fix>3d</fix>
</trkpt>
<trkpt lat="40.0713749" lon="-105.229789">
  <ele>1583.0</ele>
  <time>2026-08-28T17:48:40Z</time>
  <course>244.46</course>
  <speed>0.0</speed>
  <fix>3d</fix>
</trkpt>
<trkpt lat="40.0713749" lon="-105.229789">
  <ele>1583.0</ele>
  <time>2026-08-28T17:48:40Z</time>
  <course>0.0</course>
  <speed>0.0</speed>
  <fix>3d</fix>
</trkpt>
<trkpt lat="40.0713749" lon="-105.229789">
  <ele>1583.0</ele>
  <time>2026-08-28T17:48:40Z</time>
  <course>244.64</course>
  <speed>0.0</speed>
  <fix>3d</fix>
</trkpt>
<trkpt lat="40.0713749" lon="-105.229789">
  <ele>1583.0</ele>
  <time>2026-08-28T17:48:40Z</time>
  <course>0.0</course>
  <speed>0.0</speed>
  <fix>3d</fix>
</trkpt>
<trkpt lat="40.0713749" lon="-105.229789">
  <ele>1583.0</ele>
  <time>2026-08-28T17:48:40Z</time>
  <course>244.81</course>
  <speed>0.0</speed>
  <fix>3d</fix>
</trkpt>
<trkpt lat="40.0713749" lon="-105.229789">
  <ele>1583.0</ele>
  <time>2026-08-28T17:48:40Z</time>
  <course>0.0</course>
  <speed>0.0</speed>
  <fix>3d</fix>
</trkpt>
<trkpt lat="40.0713749" lon="-105.229789">
  <ele>1583.0</ele>
  <time>2026-08-28T17:48:40Z</time>
  <course>244.97</course>
  <speed>0.0</speed>
  <fix>3d</fix>
</trkpt>
<trkpt lat="40.0713749" lon="-105.229789">
  <ele>1583.0</ele>
  <time>2026-08-28T17:48:40Z</time>
  <course>0.0</course>
  <speed>0.0</speed>
  <fix>3d</fix>
</trkpt>
<trkpt lat="40.0713749" lon="-105.229789">
  <ele>1583.0</ele>
  <time>2026-08-28T17:48:40Z</time>
  <course>245.13</course>
  <speed>0.0</speed>
  <fix>3d</fix>
</trkpt>
<trkpt lat="40.0713749" lon="-105.229789">
  <ele>1583.0</ele>
  <time>2026-08-28T17:48:40Z</time>
  <course>0.0</course>
  <speed>0.0</speed>
  <fix>3d</fix>
</trkpt>
<trkpt lat="40.0713749" lon="-105.229789">
  <ele>1583.0</ele>
  <time>2026-08-28T17:48:40Z</time>
  <course>245.29</course>
  <speed>0.0</speed>
  <fix>3d</fix>
</trkpt>
<trkpt lat="40.0713749" lon="-105.229789">
  <ele>1583.0</ele>
  <time>2026-08-28T17:48:40Z</time>
  <course>0.0</course>
  <speed>0.0</speed>
  <fix>3d</fix>
</trkpt>
<trkpt lat="40.0713749" lon="-105.229789">
  <ele>1583.0</ele>
  <time>2026-08-28T17:48:40Z</time>
  <course>245.43</course>
  <speed>0.0</speed>
  <fix>3d</fix>
</trkpt>
<trkpt lat="40.0713749" lon="-105.229789">
  <ele>1583.0</ele>
  <time>2026-08-28T17:48:40Z</time>
  <course>0.0</course>
  <speed>0.0</speed>
  <fix>3d</fix>
</trkpt>
<trkpt lat="40.0713749" lon="-105.229789">
  <ele>1583.0</ele>
  <time>2026-08-28T17:48:40Z</time>
  <course>245.57</course>
  <speed>0.0</speed>
  <fix>3d</fix>
</trkpt>
<trkpt lat="40.0713749" lon="-105.229789">
  <ele>1583.0</ele>
  <time>2026-08-28T17:48:40Z</time>
  <course>0.0</course>
  <speed>0.0</speed>
  <fix>3d</fix>
</trkpt>
<trkpt lat="40.0713749" lon="-105.229789">
  <ele>1583.0</ele>
  <time>2026-08-28T17:48:40Z</time>
  <course>245.71</course>
  <speed>0.0</speed>
  <fix>3d</fix>
</trkpt>
<trkpt lat="40.0713749" lon="-105.229789">
  <ele>1583.0</ele>
  <time>2026-08-28T17:48:40Z</time>
  <course>0.0</course>
  <speed>0.0</speed>
  <fix>3d</fix>
</trkpt>
<trkpt lat="40.0713749" lon="-105.229789">
  <ele>1583.0</ele>
  <time>2026-08-28T17:48:40Z</time>
  <course>245.84</course>
  <speed>0.0</speed>
  <fix>3d</fix>
</trkpt>
<trkpt lat="40.0713749" lon="-105.229789">
  <ele>1583.0</ele>
  <time>2026-08-28T17:48:40Z</time>
  <course>0.0</course>
  <speed>0.0</speed>
  <fix>3d</fix>
</trkpt>
<trkpt lat="40.0713749" lon="-105.229789">
  <ele>1583.0</ele>
  <time>2026-08-28T17:48:40Z</time>
  <course>245.96</course>
  <speed>0.0</speed>
  <fix>3d</fix>
</trkpt>
<trkpt lat="40.0713749" lon="-105.229789">
  <ele>1583.0</ele>
  <time>2026-08-28T17:48:40Z</time>
  <course>0.0</course>
  <speed>0.0</speed>
  <fix>3d</fix>
</trkpt>
<trkpt lat="40.0713749" lon="-105.229789">
  <ele>1583.0</ele>
  <time>2026-08-28T17:48:40Z</time>
  <course>246.08</course>
  <speed>0.0</speed>
  <fix>3d</fix>
</trkpt>
<trkpt lat="40.0713749" lon="-105.229789">
  <ele>1583.0</ele>
  <time>2026-08-28T17:48:40Z</time>
  <course>0.0</course>
  <speed>0.0</speed>
  <fix>3d</fix>
</trkpt>
<trkpt lat="40.0713749" lon="-105.229789">
  <ele>1583.0</ele>
  <time>2026-08-28T17:48:40Z</time>
  <course>246.19</course>
  <speed>0.0</speed>
  <fix>3d</fix>
</trkpt>
<trkpt lat="40.0713749" lon="-105.229789">
  <ele>1583.0</ele>
  <time>2026-08-28T17:48:40Z</time>
  <course>0.0</course>
  <speed>0.0</speed>
  <fix>3d</fix>
</trkpt>
<trkpt lat="40.0713749" lon="-105.229789">
  <ele>1583.0</ele>
  <time>2026-08-28T17:48:40Z</time>
  <course>246.3</course>
  <speed>0.0</speed>
  <fix>3d</fix>
</trkpt>
<trkpt lat="40.0713749" lon="-105.229789">
  <ele>1583.0</ele>
  <time>2026-08-28T17:48:40Z</time>
  <course>0.0</course>
  <speed>0.0</speed>
  <fix>3d</fix>
</trkpt>
<trkpt lat="40.0713749" lon="-105.229789">
  <ele>1583.0</ele>
  <time>2026-08-28T17:48:40Z</time>
  <course>246.41</course>
  <speed>0.0</speed>
  <fix>3d</fix>
</trkpt>
<trkpt lat="40.0713749" lon="-105.229789">
  <ele>1583.0</ele>
  <time>2026-08-28T17:48:40Z</time>
  <course>0.0</course>
  <speed>0.0</speed>
  <fix>3d</fix>
</trkpt>
<trkpt lat="40.0713749" lon="-105.229789">
  <ele>1583.0</ele>
  <time>2026-08-28T17:48:40Z</time>
  <course>246.51</course>
  <speed>0.0</speed>
  <fix>3d</fix>
</trkpt>
<trkpt lat="40.0713749" lon="-105.229789">
  <ele>1583.0</ele>
  <time>2026-08-28T17:48:40Z</time>
  <course>0.0</course>
  <speed>0.0</speed>
  <fix>3d</fix>
</trkpt>
<trkpt lat="40.0713749" lon="-105.229789">
  <ele>1583.0</ele>
  <time>2026-08-28T17:48:40Z</time>
  <course>246.6</course>
  <speed>0.0</speed>
  <fix>3d</fix>
</trkpt>
<trkpt lat="40.0713749" lon="-105.229789">
  <ele>1583.0</ele>
  <time>2026-08-28T17:48:40Z</time>
  <course>0.0</course>
  <speed>0.0</speed>
  <fix>3d</fix>
</trkpt>
<trkpt lat="40.0713749" lon="-105.229789">
  <ele>1583.0</ele>
  <time>2026-08-28T17:48:40Z</time>
  <course>246.7</course>
  <speed>0.0</speed>
  <fix>3d</fix>
</trkpt>
<trkpt lat="40.0713749" lon="-105.229789">
  <ele>1583.0</ele>
  <time>2026-08-28T17:48:40Z</time>
  <course>0.0</course>
  <speed>0.0</speed>
  <fix>3d</fix>
</trkpt>
<trkpt lat="40.0713749" lon="-105.229789">
  <ele>1583.0</ele>
  <time>2026-08-28T17:48:40Z</time>
  <course>246.78</course>
  <speed>0.0</speed>
  <fix>3d</fix>
</trkpt>
<trkpt lat="40.0713749" lon="-105.229789">
  <ele>1583.0</ele>
  <time>2026-08-28T17:48:40Z</time>
  <course>0.0</course>
  <speed>0.0</speed>
  <fix>3d</fix>
</trkpt>
<trkpt lat="40.0713749" lon="-105.229789">
  <ele>1583.0</ele>
  <time>2026-08-28T17:48:40Z</time>
  <course>246.87</course>
  <speed>0.0</speed>
  <fix>3d</fix>
</trkpt>
<trkpt lat="40.0713749" lon="-105.229789">
  <ele>1583.0</ele>
  <time>2026-08-28T17:48:40Z</time>
  <course>0.0</course>
  <speed>0.0</speed>
  <fix>3d</fix>
</trkpt>
<trkpt lat="40.0713749" lon="-105.229789">
  <ele>1583.0</ele>
  <time>2026-08-28T17:48:40Z</time>
  <course>246.95</course>
  <speed>0.0</speed>
  <fix>3d</fix>
</trkpt>
<trkpt lat="40.0713749" lon="-105.229789">
  <ele>1583.0</ele>
  <time>2026-08-28T17:48:40Z</time>
  <course>0.0</course>
  <speed>0.0</speed>
  <fix>3d</fix>
</trkpt>
<trkpt lat="40.0713749" lon="-105.229789">
  <ele>1583.0</ele>
  <time>2026-08-28T17:48:40Z</time>
  <course>247.02</course>
  <speed>0.0</speed>
  <fix>3d</fix>
</trkpt>
<trkpt lat="40.0713749" lon="-105.229789">
  <ele>1583.0</ele>
  <time>2026-08-28T17:48:40Z</time>
  <course>0.0</course>
  <speed>0.0</speed>
  <fix>3d</fix>
</trkpt>
<trkpt lat="40.0713749" lon="-105.229789">
  <ele>1583.0</ele>
  <time>2026-08-28T17:48:40Z</time>
  <course>247.1</course>
  <speed>0.0</speed>
  <fix>3d</fix>
</trkpt>
<trkpt lat="40.0713749" lon="-105.229789">
  <ele>1583.0</ele>
  <time>2026-08-28T17:48:40Z</time>
  <course>0.0</course>
  <speed>0.0</speed>
  <fix>3d</fix>
</trkpt>
<trkpt lat="40.0713749" lon="-105.229789">
  <ele>1583.0</ele>
  <time>2026-08-28T17:48:40Z</time>
  <course>247.17</course>
  <speed>0.0</speed>
  <fix>3d</fix>
</trkpt>
<trkpt lat="40.0713749" lon="-105.229789">
  <ele>1583.0</ele>
  <time>2026-08-28T17:48:40Z</time>
  <course>0.0</course>
  <speed>0.0</speed>
  <fix>3d</fix>
</trkpt>
<trkpt lat="40.0713749" lon="-105.229789">
  <ele>1583.0</ele>
  <time>2026-08-28T17:48:40Z</time>
  <course>247.24</course>
  <speed>0.0</speed>
  <fix>3d</fix>
</trkpt>
<trkpt lat="40.0713749" lon="-105.229789">
  <ele>1583.0</ele>
  <time>2026-08-28T17:48:40Z</time>
  <course>0.0</course>
  <speed>0.0</speed>
  <fix>3d</fix>
</trkpt>
<trkpt lat="40.0713749" lon="-105.229789">
  <ele>1583.0</ele>
  <time>2026-08-28T17:48:40Z</time>
  <course>247.3</course>
  <speed>0.0</speed>
  <fix>3d</fix>
</trkpt>
<trkpt lat="40.0713749" lon="-105.229789">
  <ele>1583.0</ele>
  <time>2026-08-28T17:48:40Z</time>
  <course>0.0</course>
  <speed>0.0</speed>
  <fix>3d</fix>
</trkpt>
<trkpt lat="40.0713749" lon="-105.229789">
  <ele>1583.0</ele>
  <time>2026-08-28T17:48:40Z</time>
  <course>247.36</course>
  <speed>0.0</speed>
  <fix>3d</fix>
</trkpt>
<trkpt lat="40.0713749" lon="-105.229789">
  <ele>1583.0</ele>
  <time>2026-08-28T17:48:40Z</time>
  <course>0.0</course>
  <speed>0.0</speed>
  <fix>3d</fix>
</trkpt>
<trkpt lat="40.0713749" lon="-105.229789">
  <ele>1583.0</ele>
  <time>2026-08-28T17:48:40Z</time>
  <course>247.42</course>
  <speed>0.0</speed>
  <fix>3d</fix>
</trkpt>
<trkpt lat="40.0713749" lon="-105.229789">
  <ele>1583.0</ele>
  <time>2026-08-28T17:48:40Z</time>
  <course>0.0</course>
  <speed>0.0</speed>
  <fix>3d</fix>
</trkpt>
<trkpt lat="40.0713749" lon="-105.229789">
  <ele>1583.0</ele>
  <time>2026-08-28T17:48:40Z</time>
  <course>247.47</course>
  <speed>0.0</speed>
  <fix>3d</fix>
</trkpt>
<trkpt lat="40.0713749" lon="-105.229789">
  <ele>1583.0</ele>
  <time>2026-08-28T17:48:40Z</time>
  <course>0.0</course>
  <speed>0.0</speed>
  <fix>3d</fix>
</trkpt>
<trkpt lat="40.0713749" lon="-105.229789">
  <ele>1583.0</ele>
  <time>2026-08-28T17:48:40Z</time>
  <course>247.53</course>
  <speed>0.0</speed>
  <fix>3d</fix>
</trkpt>
<trkpt lat="40.0713749" lon="-105.229789">
  <ele>1583.0</ele>
  <time>2026-08-28T17:48:40Z</time>
  <course>0.0</course>
  <speed>0.0</speed>
  <fix>3d</fix>
</trkpt>
<trkpt lat="40.0713749" lon="-105.229789">
  <ele>1583.0</ele>
  <time>2026-08-28T17:48:40Z</time>
  <course>247.58</course>
  <speed>0.0</speed>
  <fix>3d</fix>
</trkpt>
<trkpt lat="40.0713749" lon="-105.229789">
  <ele>1583.0</ele>
  <time>2026-08-28T17:48:40Z</time>
  <course>0.0</course>
  <speed>0.0</speed>
  <fix>3d</fix>
</trkpt>
<trkpt lat="40.0713749" lon="-105.229789">
  <ele>1583.0</ele>
  <time>2026-08-28T17:48:40Z</time>
  <course>247.63</course>
  <speed>0.0</speed>
  <fix>3d</fix>
</trkpt>
<trkpt lat="40.0713749" lon="-105.229789">
  <ele>1583.0</ele>
  <time>2026-08-28T17:48:40Z</time>
  <course>0.0</course>
  <speed>0.0</speed>
  <fix>3d</fix>
</trkpt>
<trkpt lat="40.0713749" lon="-105.229789">
  <ele>1583.0</ele>
  <time>2026-08-28T17:48:40Z</time>
  <course>247.67</course>
  <speed>0.0</speed>
  <fix>3d</fix>
</trkpt>
<trkpt lat="40.0713749" lon="-105.229789">
  <ele>1583.0</ele>
  <time>2026-08-28T17:48:40Z</time>
  <course>0.0</course>
  <speed>0.0</speed>
  <fix>3d</fix>
</trkpt>
<trkpt lat="40.0713749" lon="-105.229789">
  <ele>1583.0</ele>
  <time>2026-08-28T17:48:40Z</time>
  <course>247.72</course>
  <speed>0.0</speed>
  <fix>3d</fix>
</trkpt>
<trkpt lat="40.0713749" lon="-105.229789">
  <ele>1583.0</ele>
  <time>2026-08-28T17:48:40Z</time>
  <course>0.0</course>
  <speed>0.0</speed>
  <fix>3d</fix>
</trkpt>
<trkpt lat="40.0713749" lon="-105.229789">
  <ele>1583.0</ele>
  <time>2026-08-28T17:48:40Z</time>
  <course>247.76</course>
  <speed>0.0</speed>
  <fix>3d</fix>
</trkpt>
<trkpt lat="40.0713749" lon="-105.229789">
  <ele>1583.0</ele>
  <time>2026-08-28T17:48:40Z</time>
  <course>0.0</course>
  <speed>0.0</speed>
  <fix>3d</fix>
</trkpt>
<trkpt lat="40.0713749" lon="-105.229789">
  <ele>1583.0</ele>
  <time>2026-08-28T17:48:40Z</time>
  <course>247.8</course>
  <speed>0.0</speed>
  <fix>3d</fix>
</trkpt>
<trkpt lat="40.0713749" lon="-105.229789">
  <ele>1583.0</ele>
  <time>2026-08-28T17:48:40Z</time>
  <course>0.0</course>
  <speed>0.0</speed>
  <fix>3d</fix>
</trkpt>
<trkpt lat="40.0713749" lon="-105.229789">
  <ele>1583.0</ele>
  <time>2026-08-28T17:48:40Z</time>
  <course>247.83</course>
  <speed>0.0</speed>
  <fix>3d</fix>
</trkpt>
<trkpt lat="40.0713749" lon="-105.229789">
  <ele>1583.0</ele>
  <time>2026-08-28T17:48:40Z</time>
  <course>0.0</course>
  <speed>0.0</speed>
  <fix>3d</fix>
</trkpt>
<trkpt lat="40.0713749" lon="-105.229789">
  <ele>1583.0</ele>
  <time>2026-08-28T17:48:40Z</time>
  <course>247.87</course>
  <speed>0.0</speed>
  <fix>3d</fix>
</trkpt>
<trkpt lat="40.0713749" lon="-105.229789">
  <ele>1583.0</ele>
  <time>2026-08-28T17:48:40Z</time>
  <course>0.0</course>
  <speed>0.0</speed>
  <fix>3d</fix>
</trkpt>
<trkpt lat="40.0713749" lon="-105.229789">
  <ele>1583.0</ele>
  <time>2026-08-28T17:48:40Z</time>
  <course>247.9</course>
  <speed>0.0</speed>
  <fix>3d</fix>
</trkpt>
<trkpt lat="40.0713749" lon="-105.229789">
  <ele>1583.0</ele>
  <time>2026-08-28T17:48:40Z</time>
  <course>0.0</course>
  <speed>0.0</speed>
  <fix>3d</fix>
</trkpt>
<trkpt lat="40.0713749" lon="-105.229789">
  <ele>1583.0</ele>
  <time>2026-08-28T17:48:40Z</time>
  <course>247.94</course>
  <speed>0.0</speed>
  <fix>3d</fix>
</trkpt>
<trkpt lat="40.0713749" lon="-105.229789">
  <ele>1583.0</ele>
  <time>2026-08-28T17:48:40Z</time>
  <course>0.0</course>
  <speed>0.0</speed>
  <fix>3d</fix>
</trkpt>
<trkpt lat="40.0713749" lon="-105.229789">
  <ele>1583.0</ele>
  <time>2026-08-28T17:48:40Z</time>
  <course>247.97</course>
  <speed>0.0</speed>
  <fix>3d</fix>
</trkpt>
<trkpt lat="40.0713749" lon="-105.229789">
  <ele>1583.0</ele>
  <time>2026-08-28T17:48:40Z</time>
  <course>0.0</course>
  <speed>0.0</speed>
  <fix>3d</fix>
</trkpt>
<trkpt lat="40.0713749" lon="-105.229789">
  <ele>1583.0</ele>
  <time>2026-08-28T17:48:40Z</time>
  <course>248.0</course>
  <speed>0.0</speed>
  <fix>3d</fix>
</trkpt>
<trkpt lat="40.0713749" lon="-105.229789">
  <ele>1583.0</ele>
  <time>2026-08-28T17:48:40Z</time>
  <course>0.0</course>
  <speed>0.0</speed>
  <fix>3d</fix>
</trkpt>
<trkpt lat="40.0713749" lon="-105.229789">
  <ele>1583.0</ele>
  <time>2026-08-28T17:48:40Z</time>
  <course>248.02</course>
  <speed>0.0</speed>
  <fix>3d</fix>
</trkpt>
<trkpt lat="40.0713749" lon="-105.229789">
  <ele>1583.0</ele>
  <time>2026-08-28T17:48:40Z</time>
  <course>0.0</course>
  <speed>0.0</speed>
  <fix>3d</fix>
</trkpt>
<trkpt lat="40.0713749" lon="-105.229789">
  <ele>1583.0</ele>
  <time>2026-08-28T17:48:40Z</time>
  <course>248.05</course>
  <speed>0.0</speed>
  <fix>3d</fix>
</trkpt>
<trkpt lat="40.0713749" lon="-105.229789">
  <ele>1583.0</ele>
  <time>2026-08-28T17:48:40Z</time>
  <course>0.0</course>
  <speed>0.0</speed>
  <fix>3d</fix>
</trkpt>
<trkpt lat="40.0713749" lon="-105.229789">
  <ele>1583.0</ele>
  <time>2026-08-28T17:48:40Z</time>
  <course>248.08</course>
  <speed>0.0</speed>
  <fix>3d</fix>
</trkpt>
<trkpt lat="40.0713749" lon="-105.229789">
  <ele>1583.0</ele>
  <time>2026-08-28T17:48:40Z</time>
  <course>0.0</course>
  <speed>0.0</speed>
  <fix>3d</fix>
</trkpt>
<trkpt lat="40.0713749" lon="-105.229789">
  <ele>1583.0</ele>
  <time>2026-08-28T17:48:40Z</time>
  <course>248.1</course>
  <speed>0.0</speed>
  <fix>3d</fix>
</trkpt>
<trkpt lat="40.0713749" lon="-105.229789">
  <ele>1583.0</ele>
  <time>2026-08-28T17:48:40Z</time>
  <course>0.0</course>
  <speed>0.0</speed>
  <fix>3d</fix>
</trkpt>
<trkpt lat="40.0713749" lon="-105.229789">
  <ele>1583.0</ele>
  <time>2026-08-28T17:48:40Z</time>
  <course>248.12</course>
  <speed>0.0</speed>
  <fix>3d</fix>
</trkpt>
<trkpt lat="40.0713749" lon="-105.229789">
  <ele>1583.0</ele>
  <time>2026-08-28T17:48:40Z</time>
  <course>0.0</course>
  <speed>0.0</speed>
  <fix>3d</fix>
</trkpt>
<trkpt lat="40.0713749" lon="-105.229789">
  <ele>1583.0</ele>
  <time>2026-08-28T17:48:40Z</time>
  <course>248.14</course>
  <speed>0.0</speed>
  <fix>3d</fix>
</trkpt>
<trkpt lat="40.0713749" lon="-105.229789">
  <ele>1583.0</ele>
  <time>2026-08-28T17:48:40Z</time>
  <course>0.0</course>
  <speed>0.0</speed>
  <fix>3d</fix>
</trkpt>
<trkpt lat="40.0713749" lon="-105.229789">
  <ele>1583.0</ele>
  <time>2026-08-28T17:48:40Z</time>
  <course>248.16</course>
  <speed>0.0</speed>
  <fix>3d</fix>
</trkpt>
<trkpt lat="40.0713749" lon="-105.229789">
  <ele>1583.0</ele>
  <time>2026-08-28T17:48:40Z</time>
  <course>0.0</course>
  <speed>0.0</speed>
  <fix>3d</fix>
</trkpt>
<trkpt lat="40.0713749" lon="-105.229789">
  <ele>1583.0</ele>
  <time>2026-08-28T17:48:40Z</time>
  <course>248.18</course>
  <speed>0.0</speed>
  <fix>3d</fix>
</trkpt>
<trkpt lat="40.0713749" lon="-105.229789">
  <ele>1583.0</ele>
  <time>2026-08-28T17:48:40Z</time>
  <course>0.0</course>
  <speed>0.0</speed>
  <fix>3d</fix>
</trkpt>
<trkpt lat="40.0713749" lon="-105.229789">
  <ele>1583.0</ele>
  <time>2026-08-28T17:48:40Z</time>
  <course>248.2</course>
  <speed>0.0</speed>
  <fix>3d</fix>
</trkpt>
<trkpt lat="40.0713749" lon="-105.229789">
  <ele>1583.0</ele>
  <time>2026-08-28T17:48:40Z</time>
  <course>0.0</course>
  <speed>0.0</speed>
  <fix>3d</fix>
</trkpt>
<trkpt lat="40.0713749" lon="-105.229789">
  <ele>1583.0</ele>
  <time>2026-08-28T17:48:40Z</time>
  <course>248.22</course>
  <speed>0.0</speed>
  <fix>3d</fix>
</trkpt>
<trkpt lat="40.0713749" lon="-105.229789">
  <ele>1583.0</ele>
  <time>2026-08-28T17:48:40Z</time>
  <course>0.0</course>
  <speed>0.0</speed>
  <fix>3d</fix>
</trkpt>
<trkpt lat="40.0713749" lon="-105.229789">
  <ele>1583.0</ele>
  <time>2026-08-28T17:48:40Z</time>
  <course>248.23</course>
  <speed>0.0</speed>
  <fix>3d</fix>
</trkpt>
<trkpt lat="40.0713749" lon="-105.229789">
  <ele>1583.0</ele>
  <time>2026-08-28T17:48:40Z</time>
  <course>0.0</course>
  <speed>0.0</speed>
  <fix>3d</fix>
</trkpt>
<trkpt lat="40.0713749" lon="-105.229789">
  <ele>1583.0</ele>
  <time>2026-08-28T17:48:40Z</time>
  <course>248.25</course>
  <speed>0.0</speed>
  <fix>3d</fix>
</trkpt>
<trkpt lat="40.0713749" lon="-105.229789">
  <ele>1583.0</ele>
  <time>2026-08-28T17:48:40Z</time>
  <course>0.0</course>
  <speed>0.0</speed>
  <fix>3d</fix>
</trkpt>
<trkpt lat="40.0713749" lon="-105.229789">
  <ele>1583.0</ele>
  <time>2026-08-28T17:48:40Z</time>
  <course>248.26</course>
  <speed>0.0</speed>
  <fix>3d</fix>
</trkpt>
<trkpt lat="40.0713749" lon="-105.229789">
  <ele>1583.0</ele>
  <time>2026-08-28T17:48:40Z</time>
  <course>0.0</course>
  <speed>0.0</speed>
  <fix>3d</fix>
</trkpt>
<trkpt lat="40.0713749" lon="-105.229789">
  <ele>1583.0</ele>
  <time>2026-08-28T17:48:40Z</time>
  <course>248.28</course>
  <speed>0.0</speed>
  <fix>3d</fix>
</trkpt>
<trkpt lat="40.0713749" lon="-105.229789">
  <ele>1583.0</ele>
  <time>2026-08-28T17:48:40Z</time>
  <course>0.0</course>
  <speed>0.0</speed>
  <fix>3d</fix>
</trkpt>
<trkpt lat="40.0713749" lon="-105.229789">
  <ele>1583.0</ele>
  <time>2026-08-28T17:48:40Z</time>
  <course>248.29</course>
  <speed>0.0</speed>
  <fix>3d</fix>
</trkpt>
<trkpt lat="40.0713749" lon="-105.229789">
  <ele>1583.0</ele>
  <time>2026-08-28T17:48:40Z</time>
  <course>0.0</course>
  <speed>0.0</speed>
  <fix>3d</fix>
</trkpt>
<trkpt lat="40.0713749" lon="-105.229789">
  <ele>1583.0</ele>
  <time>2026-08-28T17:48:40Z</time>
  <course>248.3</course>
  <speed>0.0</speed>
  <fix>3d</fix>
</trkpt>
<trkpt lat="40.0713749" lon="-105.229789">
  <ele>1583.0</ele>
  <time>2026-08-28T17:48:40Z</time>
  <course>0.0</course>
  <speed>0.0</speed>
  <fix>3d</fix>
</trkpt>
<trkpt lat="40.0713749" lon="-105.229789">
  <ele>1583.0</ele>
  <time>2026-08-28T17:48:40Z</time>
  <course>248.31</course>
  <speed>0.0</speed>
  <fix>3d</fix>
</trkpt>
<trkpt lat="40.0713749" lon="-105.229789">
  <ele>1583.0</ele>
  <time>2026-08-28T17:48:40Z</time>
  <course>0.0</course>
  <speed>0.0</speed>
  <fix>3d</fix>
</trkpt>
<trkpt lat="40.0713749" lon="-105.229789">
  <ele>1583.0</ele>
  <time>2026-08-28T17:48:40Z</time>
  <course>248.32</course>
  <speed>0.0</speed>
  <fix>3d</fix>
</trkpt>
<trkpt lat="40.0713749" lon="-105.229789">
  <ele>1583.0</ele>
  <time>2026-08-28T17:48:40Z</time>
  <course>0.0</course>
  <speed>0.0</speed>
  <fix>3d</fix>
</trkpt>
<trkpt lat="40.0713749" lon="-105.229789">
  <ele>1583.0</ele>
  <time>2026-08-28T17:48:40Z</time>
  <course>248.33</course>
  <speed>0.0</speed>
  <fix>3d</fix>
</trkpt>
<trkpt lat="40.0713749" lon="-105.229789">
  <ele>1583.0</ele>
  <time>2026-08-28T17:48:40Z</time>
  <course>0.0</course>
  <speed>0.0</speed>
  <fix>3d</fix>
</trkpt>
<trkpt lat="40.0713749" lon="-105.229789">
  <ele>1583.0</ele>
  <time>2026-08-28T17:48:40Z</time>
  <course>248.34</course>
  <speed>0.0</speed>
  <fix>3d</fix>
</trkpt>
<trkpt lat="40.0713749" lon="-105.229789">
  <ele>1583.0</ele>
  <time>2026-08-28T17:48:40Z</time>
  <course>0.0</course>
  <speed>0.0</speed>
  <fix>3d</fix>
</trkpt>
<trkpt lat="40.0713749" lon="-105.229789">
  <ele>1583.0</ele>
  <time>2026-08-28T17:48:40Z</time>
  <course>248.35</course>
  <speed>0.0</speed>
  <fix>3d</fix>
</trkpt>
<trkpt lat="40.0713749" lon="-105.229789">
  <ele>1583.0</ele>
  <time>2026-08-28T17:48:40Z</time>
  <course>0.0</course>
  <speed>0.0</speed>
  <fix>3d</fix>
</trkpt>
<trkpt lat="40.0713749" lon="-105.229789">
  <ele>1583.0</ele>
  <time>2026-08-28T17:48:40Z</time>
  <course>248.35</course>
  <speed>0.0</speed>
  <fix>3d</fix>
</trkpt>
<trkpt lat="40.0713749" lon="-105.229789">
  <ele>1583.0</ele>
  <time>2026-08-28T17:48:40Z</time>
  <course>0.0</course>
  <speed>0.0</speed>
  <fix>3d</fix>
</trkpt>
<trkpt lat="40.0713749" lon="-105.229789">
  <ele>1583.0</ele>
  <time>2026-08-28T17:48:40Z</time>
  <course>248.36</course>
  <speed>0.0</speed>
  <fix>3d</fix>
</trkpt>
<trkpt lat="40.0713749" lon="-105.229789">
  <ele>1583.0</ele>
  <time>2026-08-28T17:48:40Z</time>
  <course>0.0</course>
  <speed>0.0</speed>
  <fix>3d</fix>
</trkpt>
<trkpt lat="40.0713749" lon="-105.229789">
  <ele>1583.0</ele>
  <time>2026-08-28T17:48:40Z</time>
  <course>248.37</course>
  <speed>0.0</speed>
  <fix>3d</fix>
</trkpt>
<trkpt lat="40.0713749" lon="-105.229789">
  <ele>1583.0</ele>
  <time>2026-08-28T17:48:40Z</time>
  <course>0.0</course>
  <speed>0.0</speed>
  <fix>3d</fix>
</trkpt>
<trkpt lat="40.0713749" lon="-105.229789">
  <ele>1583.0</ele>
  <time>2026-08-28T17:48:40Z</time>
  <course>248.37</course>
  <speed>0.0</speed>
  <fix>3d</fix>
</trkpt>
<trkpt lat="40.0713749" lon="-105.229789">
  <ele>1583.0</ele>
  <time>2026-08-28T17:48:40Z</time>
  <course>0.0</course>
  <speed>0.0</speed>
  <fix>3d</fix>
</trkpt>
<trkpt lat="40.0713749" lon="-105.229789">
  <ele>1583.0</ele>
  <time>2026-08-28T17:48:40Z</time>
  <course>248.38</course>
  <speed>0.0</speed>
  <fix>3d</fix>
</trkpt>
<trkpt lat="40.0713749" lon="-105.229789">
  <ele>1583.0</ele>
  <time>2026-08-28T17:48:40Z</time>
  <course>0.0</course>
  <speed>0.0</speed>
  <fix>3d</fix>
</trkpt>
<trkpt lat="40.0713749" lon="-105.229789">
  <ele>1583.0</ele>
  <time>2026-08-28T17:48:40Z</time>
  <course>248.38</course>
  <speed>0.0</speed>
  <fix>3d</fix>
</trkpt>
<trkpt lat="40.0713749" lon="-105.229789">
  <ele>1583.0</ele>
  <time>2026-08-28T17:48:40Z</time>
  <course>0.0</course>
  <speed>0.0</speed>
  <fix>3d</fix>
</trkpt>
<trkpt lat="40.0713749" lon="-105.229789">
  <ele>1583.0</ele>
  <time>2026-08-28T17:48:40Z</time>
  <course>248.39</course>
  <speed>0.0</speed>
  <fix>3d</fix>
</trkpt>
<trkpt lat="40.0713749" lon="-105.229789">
  <ele>1583.0</ele>
  <time>2026-08-28T17:48:40Z</time>
  <course>0.0</course>
  <speed>0.0</speed>
  <fix>3d</fix>
</trkpt>
<trkpt lat="40.0713749" lon="-105.229789">
  <ele>1583.0</ele>
  <time>2026-08-28T17:48:40Z</time>
  <course>248.39</course>
  <speed>0.0</speed>
  <fix>3d</fix>
</trkpt>
<trkpt lat="40.0713749" lon="-105.229789">
  <ele>1583.0</ele>
  <time>2026-08-28T17:48:40Z</time>
  <course>0.0</course>
  <speed>0.0</speed>
  <fix>3d</fix>
</trkpt>
<trkpt lat="40.0713749" lon="-105.229789">
  <ele>1583.0</ele>
  <time>2026-08-28T17:48:40Z</time>
  <course>248.4</course>
  <speed>0.0</speed>
  <fix>3d</fix>
</trkpt>
<trkpt lat="40.0713749" lon="-105.229789">
  <ele>1583.0</ele>
  <time>2026-08-28T17:48:40Z</time>
  <course>0.0</course>
  <speed>0.0</speed>
  <fix>3d</fix>
</trkpt>
<trkpt lat="40.0713749" lon="-105.229789">
  <ele>1583.0</ele>
  <time>2026-08-28T17:48:40Z</time>
  <course>248.4</course>
  <speed>0.0</speed>
  <fix>3d</fix>
</trkpt>
<trkpt lat="40.0713749" lon="-105.229789">
  <ele>1583.0</ele>
  <time>2026-08-28T17:48:40Z</time>
  <course>0.0</course>
  <speed>0.0</speed>
  <fix>3d</fix>
</trkpt>
<trkpt lat="40.0713749" lon="-105.229789">
  <ele>1583.0</ele>
  <time>2026-08-28T17:48:40Z</time>
  <course>248.4</course>
  <speed>0.0</speed>
  <fix>3d</fix>
</trkpt>
<trkpt lat="40.0713749" lon="-105.229789">
  <ele>1583.0</ele>
  <time>2026-08-28T17:48:40Z</time>
  <course>0.0</course>
  <speed>0.0</speed>
  <fix>3d</fix>
</trkpt>
<trkpt lat="40.0713749" lon="-105.229789">
  <ele>1583.0</ele>
  <time>2026-08-28T17:48:40Z</time>
  <course>248.4</course>
  <speed>0.0</speed>
  <fix>3d</fix>
</trkpt>
<trkpt lat="40.0713749" lon="-105.229789">
  <ele>1583.0</ele>
  <time>2026-08-28T17:48:40Z</time>
  <course>0.0</course>
  <speed>0.0</speed>
  <fix>3d</fix>
</trkpt>
<trkpt lat="40.0713749" lon="-105.229789">
  <ele>1583.0</ele>
  <time>2026-08-28T17:48:40Z</time>
  <course>248.41</course>
  <speed>0.0</speed>
  <fix>3d</fix>
</trkpt>
<trkpt lat="40.0713749" lon="-105.229789">
  <ele>1583.0</ele>
  <time>2026-08-28T17:48:40Z</time>
  <course>0.0</course>
  <speed>0.0</speed>
  <fix>3d</fix>
</trkpt>
<trkpt lat="40.0713749" lon="-105.229789">
  <ele>1583.0</ele>
  <time>2026-08-28T17:48:40Z</time>
  <course>248.41</course>
  <speed>0.0</speed>
  <fix>3d</fix>
</trkpt>
<trkpt lat="40.0713749" lon="-105.229789">
  <ele>1583.0</ele>
  <time>2026-08-28T17:48:40Z</time>
  <course>0.0</course>
  <speed>0.0</speed>
  <fix>3d</fix>
</trkpt>
<trkpt lat="40.0713749" lon="-105.229789">
  <ele>1583.0</ele>
  <time>2026-08-28T17:48:40Z</time>
  <course>248.41</course>
  <speed>0.0</speed>
  <fix>3d</fix>
</trkpt>
<trkpt lat="40.0713749" lon="-105.229789">
  <ele>1583.0</ele>
  <time>2026-08-28T17:48:40Z</time>
  <course>0.0</course>
  <speed>0.0</speed>
  <fix>3d</fix>
</trkpt>
<trkpt lat="40.0713749" lon="-105.229789">
  <ele>1583.0</ele>
  <time>2026-08-28T17:48:40Z</time>
  <course>248.41</course>
  <speed>0.0</speed>
  <fix>3d</fix>
</trkpt>
<trkpt lat="40.0713749" lon="-105.229789">
  <ele>1583.0</ele>
  <time>2026-08-28T17:48:40Z</time>
  <course>0.0</course>
  <speed>0.0</speed>
  <fix>3d</fix>
</trkpt>
<trkpt lat="40.0713749" lon="-105.229789">
  <ele>1583.0</ele>
  <time>2026-08-28T17:48:40Z</time>
  <course>248.41</course>
  <speed>0.0</speed>
  <fix>3d</fix>
</trkpt>
<trkpt lat="40.0713749" lon="-105.229789">
  <ele>1583.0</ele>
  <time>2026-08-28T17:48:40Z</time>
  <course>0.0</course>
  <speed>0.0</speed>
  <fix>3d</fix>
</trkpt>
<trkpt lat="40.0713749" lon="-105.229789">
  <ele>1583.0</ele>
  <time>2026-08-28T17:48:40Z</time>
  <course>248.41</course>
  <speed>0.0</speed>
  <fix>3d</fix>
</trkpt>
<trkpt lat="40.0713749" lon="-105.229789">
  <ele>1583.0</ele>
  <time>2026-08-28T17:48:40Z</time>
  <course>0.0</course>
  <speed>0.0</speed>
  <fix>3d</fix>
</trkpt>
<trkpt lat="40.0713749" lon="-105.229789">
  <ele>1583.0</ele>
  <time>2026-08-28T17:48:40Z</time>
  <course>248.41</course>
  <speed>0.0</speed>
  <fix>3d</fix>
</trkpt>
<trkpt lat="40.0713749" lon="-105.229789">
  <ele>1583.0</ele>
  <time>2026-08-28T17:48:40Z</time>
  <course>0.0</course>
  <speed>0.0</speed>
  <fix>3d</fix>
</trkpt>
<trkpt lat="40.0713749" lon="-105.229789">
  <ele>1583.0</ele>
  <time>2026-08-28T17:48:40Z</time>
  <course>248.41</course>
  <speed>0.0</speed>
  <fix>3d</fix>
</trkpt>
<trkpt lat="40.0713749" lon="-105.229789">
  <ele>1583.0</ele>
  <time>2026-08-28T17:48:40Z</time>
  <course>0.0</course>
  <speed>0.0</speed>
  <fix>3d</fix>
</trkpt>
<trkpt lat="40.0713749" lon="-105.229789">
  <ele>1583.0</ele>
  <time>2026-08-28T17:48:40Z</time>
  <course>248.41</course>
  <speed>0.0</speed>
  <fix>3d</fix>
</trkpt>
<trkpt lat="40.0713749" lon="-105.229789">
  <ele>1583.0</ele>
  <time>2026-08-28T17:48:40Z</time>
  <course>0.0</course>
  <speed>0.0</speed>
  <fix>3d</fix>
</trkpt>
<trkpt lat="40.0713749" lon="-105.229789">
  <ele>1583.0</ele>
  <time>2026-08-28T17:48:40Z</time>
  <course>248.41</course>
  <speed>0.0</speed>
  <fix>3d</fix>
</trkpt>
<trkpt lat="40.0713749" lon="-105.229789">
  <ele>1583.0</ele>
  <time>2026-08-28T17:48:40Z</time>
  <course>0.0</course>
  <speed>0.0</speed>
  <fix>3d</fix>
</trkpt>
<trkpt lat="40.0713749" lon="-105.229789">
  <ele>1583.0</ele>
  <time>2026-08-28T17:48:40Z</time>
  <course>248.41</course>
  <speed>0.0</speed>
  <fix>3d</fix>
</trkpt>
<trkpt lat="40.0713749" lon="-105.229789">
  <ele>1583.0</ele>
  <time>2026-08-28T17:48:40Z</time>
  <course>0.0</course>
  <speed>0.0</speed>
  <fix>3d</fix>
</trkpt>
<trkpt lat="40.0713749" lon="-105.229789">
  <ele>1583.0</ele>
  <time>2026-08-28T17:48:40Z</time>
  <course>248.41</course>
  <speed>0.0</speed>
  <fix>3d</fix>
</trkpt>
<trkpt lat="40.0713749" lon="-105.229789">
  <ele>1583.0</ele>
  <time>2026-08-28T17:48:40Z</time>
  <course>0.0</course>
  <speed>0.0</speed>
  <fix>3d</fix>
</trkpt>
<trkpt lat="40.0713749" lon="-105.229789">
  <ele>1583.0</ele>
  <time>2026-08-28T17:48:40Z</time>
  <course>248.41</course>
  <speed>0.0</speed>
  <fix>3d</fix>
</trkpt>
<trkpt lat="40.0713749" lon="-105.229789">
  <ele>1583.0</ele>
  <time>2026-08-28T17:48:40Z</time>
  <course>0.0</course>
  <speed>0.0</speed>
  <fix>3d</fix>
</trkpt>
<trkpt lat="40.0713749" lon="-105.229789">
  <ele>1583.0</ele>
  <time>2026-08-28T17:48:40Z</time>
  <course>248.41</course>
  <speed>0.0</speed>
  <fix>3d</fix>
</trkpt>
<trkpt lat="40.0713749" lon="-105.229789">
  <ele>1583.0</ele>
  <time>2026-08-28T17:48:40Z</time>
  <course>0.0</course>
  <speed>0.0</speed>
  <fix>3d</fix>
</trkpt>
<trkpt lat="40.0713749" lon="-105.229789">
  <ele>1583.0</ele>
  <time>2026-08-28T17:48:40Z</time>
  <course>248.41</course>
  <speed>0.0</speed>
  <fix>3d</fix>
</trkpt>
<trkpt lat="40.0713749" lon="-105.229789">
  <ele>1583.0</ele>
  <time>2026-08-28T17:48:40Z</time>
  <course>0.0</course>
  <speed>0.0</speed>
  <fix>3d</fix>
</trkpt>
<trkpt lat="40.0713749" lon="-105.229789">
  <ele>1583.0</ele>
  <time>2026-08-28T17:48:40Z</time>
  <course>248.41</course>
  <speed>0.0</speed>
  <fix>3d</fix>
</trkpt>
<trkpt lat="40.0713749" lon="-105.229789">
  <ele>1583.0</ele>
  <time>2026-08-28T17:48:40Z</time>
  <course>0.0</course>
  <speed>0.0</speed>
  <fix>3d</fix>
</trkpt>
<trkpt lat="40.0713749" lon="-105.229789">
  <ele>1583.0</ele>
  <time>2026-08-28T17:48:40Z</time>
  <course>248.4</course>
  <speed>0.0</speed>
  <fix>3d</fix>
</trkpt>
<trkpt lat="40.0713749" lon="-105.229789">
  <ele>1583.0</ele>
  <time>2026-08-28T17:48:40Z</time>
  <course>0.0</course>
  <speed>0.0</speed>
  <fix>3d</fix>
</trkpt>
<trkpt lat="40.0713749" lon="-105.229789">
  <ele>1583.0</ele>
  <time>2026-08-28T17:48:40Z</time>
  <course>248.4</course>
  <speed>0.01</speed>
  <fix>3d</fix>
</trkpt>
<trkpt lat="40.0713749" lon="-105.229789">
  <ele>1583.0</ele>
  <time>2026-08-28T17:48:40Z</time>
  <course>0.0</course>
  <speed>0.0</speed>
  <fix>3d</fix>
</trkpt>
<trkpt lat="40.0713749" lon="-105.229789">
  <ele>1583.0</ele>
  <time>2026-08-28T17:48:40Z</time>
  <course>248.4</course>
  <speed>0.01</speed>
  <fix>3d</fix>
</trkpt>
<trkpt lat="40.0713749" lon="-105.229789">
  <ele>1583.0</ele>
  <time>2026-08-28T17:48:40Z</time>
  <course>0.0</course>
  <speed>0.0</speed>
  <fix>3d</fix>
</trkpt>
<trkpt lat="40.0713749" lon="-105.229789">
  <ele>1583.0</ele>
  <time>2026-08-28T17:48:40Z</time>
  <course>248.4</course>
  <speed>0.01</speed>
  <fix>3d</fix>
</trkpt>
<trkpt lat="40.0713749" lon="-105.229789">
  <ele>1583.0</ele>
  <time>2026-08-28T17:48:40Z</time>
  <course>0.0</course>
  <speed>0.0</speed>
  <fix>3d</fix>
</trkpt>
<trkpt lat="40.0713749" lon="-105.229789">
  <ele>1583.0</ele>
  <time>2026-08-28T17:48:40Z</time>
  <course>248.4</course>
  <speed>0.01</speed>
  <fix>3d</fix>
</trkpt>
<trkpt lat="40.0713749" lon="-105.229789">
  <ele>1583.0</ele>
  <time>2026-08-28T17:48:40Z</time>
  <course>0.0</course>
  <speed>0.0</speed>
  <fix>3d</fix>
</trkpt>
<trkpt lat="40.0713749" lon="-105.229789">
  <ele>1583.0</ele>
  <time>2026-08-28T17:48:40Z</time>
  <course>248.39</course>
  <speed>0.01</speed>
  <fix>3d</fix>
</trkpt>
<trkpt lat="40.0713749" lon="-105.229789">
  <ele>1583.0</ele>
  <time>2026-08-28T17:48:40Z</time>
  <course>0.0</course>
  <speed>0.0</speed>
  <fix>3d</fix>
</trkpt>
<trkpt lat="40.0713749" lon="-105.229789">
  <ele>1583.0</ele>
  <time>2026-08-28T17:48:40Z</time>
  <course>248.39</course>
  <speed>0.01</speed>
  <fix>3d</fix>
</trkpt>
<trkpt lat="40.0713749" lon="-105.229789">
  <ele>1583.0</ele>
  <time>2026-08-28T17:48:40Z</time>
  <course>0.0</course>
  <speed>0.0</speed>
  <fix>3d</fix>
</trkpt>
<trkpt lat="40.0713749" lon="-105.229789">
  <ele>1583.0</ele>
  <time>2026-08-28T17:48:40Z</time>
  <course>248.39</course>
  <speed>0.01</speed>
  <fix>3d</fix>
</trkpt>
<trkpt lat="40.0713749" lon="-105.229789">
  <ele>1583.0</ele>
  <time>2026-08-28T17:48:40Z</time>
  <course>0.0</course>
  <speed>0.0</speed>
  <fix>3d</fix>
</trkpt>
<trkpt lat="40.0713749" lon="-105.229789">
  <ele>1583.0</ele>
  <time>2026-08-28T17:48:40Z</time>
  <course>248.38</course>
  <speed>0.01</speed>
  <fix>3d</fix>
</trkpt>
<trkpt lat="40.0713749" lon="-105.229789">
  <ele>1583.0</ele>
  <time>2026-08-28T17:48:40Z</time>
  <course>0.0</course>
  <speed>0.0</speed>
  <fix>3d</fix>
</trkpt>
<trkpt lat="40.0713749" lon="-105.229789">
  <ele>1583.0</ele>
  <time>2026-08-28T17:48:40Z</time>
  <course>248.38</course>
  <speed>0.01</speed>
  <fix>3d</fix>
</trkpt>
<trkpt lat="40.0713749" lon="-105.229789">
  <ele>1583.0</ele>
  <time>2026-08-28T17:48:40Z</time>
  <course>0.0</course>
  <speed>0.0</speed>
  <fix>3d</fix>
</trkpt>
<trkpt lat="40.0713749" lon="-105.229789">
  <ele>1583.0</ele>
  <time>2026-08-28T17:48:40Z</time>
  <course>248.38</course>
  <speed>0.01</speed>
  <fix>3d</fix>
</trkpt>
<trkpt lat="40.0713749" lon="-105.229789">
  <ele>1583.0</ele>
  <time>2026-08-28T17:48:40Z</time>
  <course>0.0</course>
  <speed>0.0</speed>
  <fix>3d</fix>
</trkpt>
<trkpt lat="40.0713749" lon="-105.229789">
  <ele>1583.0</ele>
  <time>2026-08-28T17:48:40Z</time>
  <course>248.37</course>
  <speed>0.01</speed>
  <fix>3d</fix>
</trkpt>
<trkpt lat="40.0713749" lon="-105.229789">
  <ele>1583.0</ele>
  <time>2026-08-28T17:48:40Z</time>
  <course>0.0</course>
  <speed>0.0</speed>
  <fix>3d</fix>
</trkpt>
<trkpt lat="40.0713749" lon="-105.229789">
  <ele>1583.0</ele>
  <time>2026-08-28T17:48:40Z</time>
  <course>248.37</course>
  <speed>0.01</speed>
  <fix>3d</fix>
</trkpt>
<trkpt lat="40.0713749" lon="-105.229789">
  <ele>1583.0</ele>
  <time>2026-08-28T17:48:40Z</time>
  <course>0.0</course>
  <speed>0.0</speed>
  <fix>3d</fix>
</trkpt>
<trkpt lat="40.0713749" lon="-105.229789">
  <ele>1583.0</ele>
  <time>2026-08-28T17:48:40Z</time>
  <course>248.37</course>
  <speed>0.01</speed>
  <fix>3d</fix>
</trkpt>
<trkpt lat="40.0713749" lon="-105.229789">
  <ele>1583.0</ele>
  <time>2026-08-28T17:48:40Z</time>
  <course>0.0</course>
  <speed>0.0</speed>
  <fix>3d</fix>
</trkpt>
<trkpt lat="40.0713749" lon="-105.229789">
  <ele>1583.0</ele>
  <time>2026-08-28T17:48:40Z</time>
  <course>248.36</course>
  <speed>0.01</speed>
  <fix>3d</fix>
</trkpt>
<trkpt lat="40.0713749" lon="-105.229789">
  <ele>1583.0</ele>
  <time>2026-08-28T17:48:40Z</time>
  <course>0.0</course>
  <speed>0.0</speed>
  <fix>3d</fix>
</trkpt>
<trkpt lat="40.0713749" lon="-105.229789">
  <ele>1583.0</ele>
  <time>2026-08-28T17:48:40Z</time>
  <course>248.36</course>
  <speed>0.01</speed>
  <fix>3d</fix>
</trkpt>
<trkpt lat="40.0713749" lon="-105.229789">
  <ele>1583.0</ele>
  <time>2026-08-28T17:48:40Z</time>
  <course>0.0</course>
  <speed>0.0</speed>
  <fix>3d</fix>
</trkpt>
<trkpt lat="40.0713749" lon="-105.229789">
  <ele>1583.0</ele>
  <time>2026-08-28T17:48:40Z</time>
  <course>248.36</course>
  <speed>0.01</speed>
  <fix>3d</fix>
</trkpt>
<trkpt lat="40.0713749" lon="-105.229789">
  <ele>1583.0</ele>
  <time>2026-08-28T17:48:40Z</time>
  <course>0.0</course>
  <speed>0.0</speed>
  <fix>3d</fix>
</trkpt>
<trkpt lat="40.0713749" lon="-105.229789">
  <ele>1583.0</ele>
  <time>2026-08-28T17:48:40Z</time>
  <course>248.35</course>
  <speed>0.01</speed>
  <fix>3d</fix>
</trkpt>
<trkpt lat="40.0713749" lon="-105.229789">
  <ele>1583.0</ele>
  <time>2026-08-28T17:48:40Z</time>
  <course>0.0</course>
  <speed>0.0</speed>
  <fix>3d</fix>
</trkpt>
<trkpt lat="40.0713749" lon="-105.229789">
  <ele>1583.0</ele>
  <time>2026-08-28T17:48:40Z</time>
  <course>248.35</course>
  <speed>0.01</speed>
  <fix>3d</fix>
</trkpt>
<trkpt lat="40.0713749" lon="-105.229789">
  <ele>1583.0</ele>
  <time>2026-08-28T17:48:40Z</time>
  <course>0.0</course>
  <speed>0.0</speed>
  <fix>3d</fix>
</trkpt>
<trkpt lat="40.0713749" lon="-105.229789">
  <ele>1583.0</ele>
  <time>2026-08-28T17:48:40Z</time>
  <course>248.35</course>
  <speed>0.01</speed>
  <fix>3d</fix>
</trkpt>
<trkpt lat="40.0713749" lon="-105.229789">
  <ele>1583.0</ele>
  <time>2026-08-28T17:48:40Z</time>
  <course>0.0</course>
  <speed>0.0</speed>
  <fix>3d</fix>
</trkpt>
<trkpt lat="40.0713749" lon="-105.229789">
  <ele>1583.0</ele>
  <time>2026-08-28T17:48:40Z</time>
  <course>248.34</course>
  <speed>0.01</speed>
  <fix>3d</fix>
</trkpt>
<trkpt lat="40.0713749" lon="-105.229789">
  <ele>1583.0</ele>
  <time>2026-08-28T17:48:40Z</time>
  <course>0.0</course>
  <speed>0.0</speed>
  <fix>3d</fix>
</trkpt>
<trkpt lat="40.0713749" lon="-105.229789">
  <ele>1583.0</ele>
  <time>2026-08-28T17:48:40Z</time>
  <course>248.34</course>
  <speed>0.01</speed>
  <fix>3d</fix>
</trkpt>
<trkpt lat="40.0713749" lon="-105.229789">
  <ele>1583.0</ele>
  <time>2026-08-28T17:48:40Z</time>
  <course>0.0</course>
  <speed>0.0</speed>
  <fix>3d</fix>
</trkpt>
<trkpt lat="40.0713749" lon="-105.229789">
  <ele>1583.0</ele>
  <time>2026-08-28T17:48:40Z</time>
  <course>248.33</course>
  <speed>0.01</speed>
  <fix>3d</fix>
</trkpt>
<trkpt lat="40.0713749" lon="-105.229789">
  <ele>1583.0</ele>
  <time>2026-08-28T17:48:40Z</time>
  <course>0.0</course>
  <speed>0.0</speed>
  <fix>3d</fix>
</trkpt>
<trkpt lat="40.0713749" lon="-105.229789">
  <ele>1583.0</ele>
  <time>2026-08-28T17:48:40Z</time>
  <course>248.33</course>
  <speed>0.01</speed>
  <fix>3d</fix>
</trkpt>
<trkpt lat="40.0713749" lon="-105.229789">
  <ele>1583.0</ele>
  <time>2026-08-28T17:48:40Z</time>
  <course>0.0</course>
  <speed>0.0</speed>
  <fix>3d</fix>
</trkpt>
<trkpt lat="40.0713749" lon="-105.229789">
  <ele>1583.0</ele>
  <time>2026-08-28T17:48:40Z</time>
  <course>248.32</course>
  <speed>0.01</speed>
  <fix>3d</fix>
</trkpt>
<trkpt lat="40.0713749" lon="-105.229789">
  <ele>1583.0</ele>
  <time>2026-08-28T17:48:40Z</time>
  <course>0.0</course>
  <speed>0.0</speed>
  <fix>3d</fix>
</trkpt>
<trkpt lat="40.0713749" lon="-105.229789">
  <ele>1583.0</ele>
  <time>2026-08-28T17:48:40Z</time>
  <course>248.32</course>
  <speed>0.01</speed>
  <fix>3d</fix>
</trkpt>
<trkpt lat="40.0713749" lon="-105.229789">
  <ele>1583.0</ele>
  <time>2026-08-28T17:48:40Z</time>
  <course>0.0</course>
  <speed>0.0</speed>
  <fix>3d</fix>
</trkpt>
<trkpt lat="40.0713749" lon="-105.229789">
  <ele>1583.0</ele>
  <time>2026-08-28T17:48:40Z</time>
  <course>248.32</course>
  <speed>0.01</speed>
  <fix>3d</fix>
</trkpt>
<trkpt lat="40.0713749" lon="-105.229789">
  <ele>1583.0</ele>
  <time>2026-08-28T17:48:40Z</time>
  <course>0.0</course>
  <speed>0.0</speed>
  <fix>3d</fix>
</trkpt>
<trkpt lat="40.0713749" lon="-105.229789">
  <ele>1583.0</ele>
  <time>2026-08-28T17:48:40Z</time>
  <course>248.31</course>
  <speed>0.01</speed>
  <fix>3d</fix>
</trkpt>
<trkpt lat="40.0713749" lon="-105.229789">
  <ele>1583.0</ele>
  <time>2026-08-28T17:48:40Z</time>
  <course>0.0</course>
  <speed>0.0</speed>
  <fix>3d</fix>
</trkpt>
<trkpt lat="40.0713749" lon="-105.229789">
  <ele>1583.0</ele>
  <time>2026-08-28T17:48:40Z</time>
  <course>248.31</course>
  <speed>0.01</speed>
  <fix>3d</fix>
</trkpt>
<trkpt lat="40.0713749" lon="-105.229789">
  <ele>1583.0</ele>
  <time>2026-08-28T17:48:40Z</time>
  <course>0.0</course>
  <speed>0.0</speed>
  <fix>3d</fix>
</trkpt>
<trkpt lat="40.0713749" lon="-105.229789">
  <ele>1583.0</ele>
  <time>2026-08-28T17:48:40Z</time>
  <course>248.3</course>
  <speed>0.01</speed>
  <fix>3d</fix>
</trkpt>
<trkpt lat="40.0713749" lon="-105.229789">
  <ele>1583.0</ele>
  <time>2026-08-28T17:48:40Z</time>
  <course>0.0</course>
  <speed>0.0</speed>
  <fix>3d</fix>
</trkpt>
<trkpt lat="40.0713749" lon="-105.229789">
  <ele>1583.0</ele>
  <time>2026-08-28T17:48:40Z</time>
  <course>248.3</course>
  <speed>0.01</speed>
  <fix>3d</fix>
</trkpt>
<trkpt lat="40.0713749" lon="-105.229789">
  <ele>1583.0</ele>
  <time>2026-08-28T17:48:40Z</time>
  <course>0.0</course>
  <speed>0.0</speed>
  <fix>3d</fix>
</trkpt>
<trkpt lat="40.0713749" lon="-105.229789">
  <ele>1583.0</ele>
  <time>2026-08-28T17:48:40Z</time>
  <course>248.29</course>
  <speed>0.01</speed>
  <fix>3d</fix>
</trkpt>
<trkpt lat="40.0713749" lon="-105.229789">
  <ele>1583.0</ele>
  <time>2026-08-28T17:48:40Z</time>
  <course>0.0</course>
  <speed>0.0</speed>
  <fix>3d</fix>
</trkpt>
<trkpt lat="40.0713749" lon="-105.229789">
  <ele>1583.0</ele>
  <time>2026-08-28T17:48:40Z</time>
  <course>248.29</course>
  <speed>0.01</speed>
  <fix>3d</fix>
</trkpt>
<trkpt lat="40.0713749" lon="-105.229789">
  <ele>1583.0</ele>
  <time>2026-08-28T17:48:40Z</time>
  <course>0.0</course>
  <speed>0.0</speed>
  <fix>3d</fix>
</trkpt>
<trkpt lat="40.0713749" lon="-105.229789">
  <ele>1583.0</ele>
  <time>2026-08-28T17:48:40Z</time>
  <course>248.28</course>
  <speed>0.01</speed>
  <fix>3d</fix>
</trkpt>
<trkpt lat="40.0713749" lon="-105.229789">
  <ele>1583.0</ele>
  <time>2026-08-28T17:48:40Z</time>
  <course>0.0</course>
  <speed>0.0</speed>
  <fix>3d</fix>
</trkpt>
<trkpt lat="40.0713749" lon="-105.229789">
  <ele>1583.0</ele>
  <time>2026-08-28T17:48:40Z</time>
  <course>248.28</course>
  <speed>0.01</speed>
  <fix>3d</fix>
</trkpt>
<trkpt lat="40.0713749" lon="-105.229789">
  <ele>1583.0</ele>
  <time>2026-08-28T17:48:40Z</time>
  <course>0.0</course>
  <speed>0.0</speed>
  <fix>3d</fix>
</trkpt>
<trkpt lat="40.0713749" lon="-105.229789">
  <ele>1583.0</ele>
  <time>2026-08-28T17:48:40Z</time>
  <course>248.27</course>
  <speed>0.01</speed>
  <fix>3d</fix>
</trkpt>
<trkpt lat="40.0713749" lon="-105.229789">
  <ele>1583.0</ele>
  <time>2026-08-28T17:48:40Z</time>
  <course>0.0</course>
  <speed>0.0</speed>
  <fix>3d</fix>
</trkpt>
<trkpt lat="40.0713749" lon="-105.229789">
  <ele>1583.0</ele>
  <time>2026-08-28T17:48:40Z</time>
  <course>248.27</course>
  <speed>0.01</speed>
  <fix>3d</fix>
</trkpt>
<trkpt lat="40.0713749" lon="-105.229789">
  <ele>1583.0</ele>
  <time>2026-08-28T17:48:40Z</time>
  <course>0.0</course>
  <speed>0.0</speed>
  <fix>3d</fix>
</trkpt>
<trkpt lat="40.0713749" lon="-105.229789">
  <ele>1583.0</ele>
  <time>2026-08-28T17:48:40Z</time>
  <course>248.26</course>
  <speed>0.01</speed>
  <fix>3d</fix>
</trkpt>
<trkpt lat="40.0713749" lon="-105.229789">
  <ele>1583.0</ele>
  <time>2026-08-28T17:48:40Z</time>
  <course>0.0</course>
  <speed>0.0</speed>
  <fix>3d</fix>
</trkpt>
<trkpt lat="40.0713749" lon="-105.229789">
  <ele>1583.0</ele>
  <time>2026-08-28T17:48:40Z</time>
  <course>248.26</course>
  <speed>0.01</speed>
  <fix>3d</fix>
</trkpt>
<trkpt lat="40.0713749" lon="-105.229789">
  <ele>1583.0</ele>
  <time>2026-08-28T17:48:40Z</time>
  <course>0.0</course>
  <speed>0.0</speed>
  <fix>3d</fix>
</trkpt>
<trkpt lat="40.0713749" lon="-105.229789">
  <ele>1583.0</ele>
  <time>2026-08-28T17:48:40Z</time>
  <course>248.26</course>
  <speed>0.01</speed>
  <fix>3d</fix>
</trkpt>
<trkpt lat="40.0713749" lon="-105.229789">
  <ele>1583.0</ele>
  <time>2026-08-28T17:48:40Z</time>
  <course>0.0</course>
  <speed>0.0</speed>
  <fix>3d</fix>
</trkpt>
<trkpt lat="40.0713749" lon="-105.229789">
  <ele>1583.0</ele>
  <time>2026-08-28T17:48:40Z</time>
  <course>248.25</course>
  <speed>0.01</speed>
  <fix>3d</fix>
</trkpt>
<trkpt lat="40.0713749" lon="-105.229789">
  <ele>1583.0</ele>
  <time>2026-08-28T17:48:40Z</time>
  <course>0.0</course>
  <speed>0.0</speed>
  <fix>3d</fix>
</trkpt>
<trkpt lat="40.0713749" lon="-105.229789">
  <ele>1583.0</ele>
  <time>2026-08-28T17:48:40Z</time>
  <course>248.25</course>
  <speed>0.01</speed>
  <fix>3d</fix>
</trkpt>
<trkpt lat="40.0713749" lon="-105.229789">
  <ele>1583.0</ele>
  <time>2026-08-28T17:48:40Z</time>
  <course>0.0</course>
  <speed>0.0</speed>
  <fix>3d</fix>
</trkpt>
<trkpt lat="40.0713749" lon="-105.229789">
  <ele>1583.0</ele>
  <time>2026-08-28T17:48:40Z</time>
  <course>248.24</course>
  <speed>0.01</speed>
  <fix>3d</fix>
</trkpt>
<trkpt lat="40.0713749" lon="-105.229789">
  <ele>1583.0</ele>
  <time>2026-08-28T17:48:40Z</time>
  <course>0.0</course>
  <speed>0.0</speed>
  <fix>3d</fix>
</trkpt>
<trkpt lat="40.0713749" lon="-105.229789">
  <ele>1583.0</ele>
  <time>2026-08-28T17:48:40Z</time>
  <course>248.24</course>
  <speed>0.01</speed>
  <fix>3d</fix>
</trkpt>
<trkpt lat="40.0713749" lon="-105.229789">
  <ele>1583.0</ele>
  <time>2026-08-28T17:48:40Z</time>
  <course>0.0</course>
  <speed>0.0</speed>
  <fix>3d</fix>
</trkpt>
<trkpt lat="40.0713749" lon="-105.229789">
  <ele>1583.0</ele>
  <time>2026-08-28T17:48:40Z</time>
  <course>248.23</course>
  <speed>0.01</speed>
  <fix>3d</fix>
</trkpt>
<trkpt lat="40.0713749" lon="-105.229789">
  <ele>1583.0</ele>
  <time>2026-08-28T17:48:40Z</time>
  <course>0.0</course>
  <speed>0.0</speed>
  <fix>3d</fix>
</trkpt>
<trkpt lat="40.0713749" lon="-105.229789">
  <ele>1583.0</ele>
  <time>2026-08-28T17:48:40Z</time>
  <course>248.23</course>
  <speed>0.01</speed>
  <fix>3d</fix>
</trkpt>
<trkpt lat="40.0713749" lon="-105.229789">
  <ele>1583.0</ele>
  <time>2026-08-28T17:48:40Z</time>
  <course>0.0</course>
  <speed>0.0</speed>
  <fix>3d</fix>
</trkpt>
<trkpt lat="40.0713749" lon="-105.229789">
  <ele>1583.0</ele>
  <time>2026-08-28T17:48:40Z</time>
  <course>248.22</course>
  <speed>0.01</speed>
  <fix>3d</fix>
</trkpt>
<trkpt lat="40.0713749" lon="-105.229789">
  <ele>1583.0</ele>
  <time>2026-08-28T17:48:40Z</time>
  <course>0.0</course>
  <speed>0.0</speed>
  <fix>3d</fix>
</trkpt>
<trkpt lat="40.0713749" lon="-105.229789">
  <ele>1583.0</ele>
  <time>2026-08-28T17:48:40Z</time>
  <course>248.22</course>
  <speed>0.01</speed>
  <fix>3d</fix>
</trkpt>
<trkpt lat="40.0713749" lon="-105.229789">
  <ele>1583.0</ele>
  <time>2026-08-28T17:48:40Z</time>
  <course>0.0</course>
  <speed>0.0</speed>
  <fix>3d</fix>
</trkpt>
<trkpt lat="40.0713749" lon="-105.229789">
  <ele>1583.0</ele>
  <time>2026-08-28T17:48:40Z</time>
  <course>248.21</course>
  <speed>0.01</speed>
  <fix>3d</fix>
</trkpt>
<trkpt lat="40.0713749" lon="-105.229789">
  <ele>1583.0</ele>
  <time>2026-08-28T17:48:40Z</time>
  <course>0.0</course>
  <speed>0.0</speed>
  <fix>3d</fix>
</trkpt>
<trkpt lat="40.0713749" lon="-105.229789">
  <ele>1583.0</ele>
  <time>2026-08-28T17:48:40Z</time>
  <course>248.21</course>
  <speed>0.01</speed>
  <fix>3d</fix>
</trkpt>
<trkpt lat="40.0713749" lon="-105.229789">
  <ele>1583.0</ele>
  <time>2026-08-28T17:48:40Z</time>
  <course>0.0</course>
  <speed>0.0</speed>
  <fix>3d</fix>
</trkpt>
<trkpt lat="40.0713749" lon="-105.229789">
  <ele>1583.0</ele>
  <time>2026-08-28T17:48:40Z</time>
  <course>248.2</course>
  <speed>0.01</speed>
  <fix>3d</fix>
</trkpt>
<trkpt lat="40.0713749" lon="-105.229789">
  <ele>1583.0</ele>
  <time>2026-08-28T17:48:40Z</time>
  <course>0.0</course>
  <speed>0.0</speed>
  <fix>3d</fix>
</trkpt>
<trkpt lat="40.0713749" lon="-105.229789">
  <ele>1583.0</ele>
  <time>2026-08-28T17:48:40Z</time>
  <course>248.2</course>
  <speed>0.01</speed>
  <fix>3d</fix>
</trkpt>
<trkpt lat="40.0713749" lon="-105.229789">
  <ele>1583.0</ele>
  <time>2026-08-28T17:48:40Z</time>
  <course>0.0</course>
  <speed>0.0</speed>
  <fix>3d</fix>
</trkpt>
<trkpt lat="40.0713749" lon="-105.229789">
  <ele>1583.0</ele>
  <time>2026-08-28T17:48:40Z</time>
  <course>248.19</course>
  <speed>0.01</speed>
  <fix>3d</fix>
</trkpt>
<trkpt lat="40.0713749" lon="-105.229789">
  <ele>1583.0</ele>
  <time>2026-08-28T17:48:40Z</time>
  <course>0.0</course>
  <speed>0.0</speed>
  <fix>3d</fix>
</trkpt>
<trkpt lat="40.0713749" lon="-105.229789">
  <ele>1583.0</ele>
  <time>2026-08-28T17:48:40Z</time>
  <course>248.19</course>
  <speed>0.01</speed>
  <fix>3d</fix>
</trkpt>
<trkpt lat="40.0713749" lon="-105.229789">
  <ele>1583.0</ele>
  <time>2026-08-28T17:48:40Z</time>
  <course>0.0</course>
  <speed>0.0</speed>
  <fix>3d</fix>
</trkpt>
<trkpt lat="40.0713749" lon="-105.229789">
  <ele>1583.0</ele>
  <time>2026-08-28T17:48:40Z</time>
  <course>248.18</course>
  <speed>0.01</speed>
  <fix>3d</fix>
</trkpt>
<trkpt lat="40.0713749" lon="-105.229789">
  <ele>1583.0</ele>
  <time>2026-08-28T17:48:40Z</time>
  <course>0.0</course>
  <speed>0.0</speed>
  <fix>3d</fix>
</trkpt>
<trkpt lat="40.0713749" lon="-105.229789">
  <ele>1583.0</ele>
  <time>2026-08-28T17:48:40Z</time>
  <course>248.18</course>
  <speed>0.01</speed>
  <fix>3d</fix>
</trkpt>
<trkpt lat="40.0713749" lon="-105.229789">
  <ele>1583.0</ele>
  <time>2026-08-28T17:48:40Z</time>
  <course>0.0</course>
  <speed>0.0</speed>
  <fix>3d</fix>
</trkpt>
<trkpt lat="40.0713749" lon="-105.229789">
  <ele>1583.0</ele>
  <time>2026-08-28T17:48:40Z</time>
  <course>248.17</course>
  <speed>0.022360679774997897</speed>
  <fix>3d</fix>
</trkpt>
<trkpt lat="40.0713749" lon="-105.229789">
  <ele>1583.0</ele>
  <time>2026-08-28T17:48:40Z</time>
  <course>0.0</course>
  <speed>0.0</speed>
  <fix>3d</fix>
</trkpt>
<trkpt lat="40.0713749" lon="-105.229789">
  <ele>1583.0</ele>
  <time>2026-08-28T17:48:40Z</time>
  <course>248.17</course>
  <speed>0.022360679774997897</speed>
  <fix>3d</fix>
</trkpt>
<trkpt lat="40.0713749" lon="-105.229789">
  <ele>1583.0</ele>
  <time>2026-08-28T17:48:40Z</time>
  <course>0.0</course>
  <speed>0.0</speed>
  <fix>3d</fix>
</trkpt>
<trkpt lat="40.0713749" lon="-105.229789">
  <ele>1583.0</ele>
  <time>2026-08-28T17:48:40Z</time>
  <course>248.16</course>
  <speed>0.022360679774997897</speed>
  <fix>3d</fix>
</trkpt>
<trkpt lat="40.0713749" lon="-105.229789">
  <ele>1583.0</ele>
  <time>2026-08-28T17:48:40Z</time>
  <course>0.0</course>
  <speed>0.0</speed>
  <fix>3d</fix>
</trkpt>
<trkpt lat="40.0713749" lon="-105.229789">
  <ele>1583.0</ele>
  <time>2026-08-28T17:48:40Z</time>
  <course>248.16</course>
  <speed>0.022360679774997897</speed>
  <fix>3d</fix>
</trkpt>
<trkpt lat="40.0713749" lon="-105.229789">
  <ele>1583.0</ele>
  <time>2026-08-28T17:48:40Z</time>
  <course>0.0</course>
  <speed>0.0</speed>
  <fix>3d</fix>
</trkpt>
<trkpt lat="40.0713749" lon="-105.229789">
  <ele>1583.0</ele>
  <time>2026-08-28T17:48:40Z</time>
  <course>248.15</course>
  <speed>0.022360679774997897</speed>
  <fix>3d</fix>
</trkpt>
<trkpt lat="40.0713749" lon="-105.229789">
  <ele>1583.0</ele>
  <time>2026-08-28T17:48:40Z</time>
  <course>0.0</course>
  <speed>0.0</speed>
  <fix>3d</fix>
</trkpt>
<trkpt lat="40.0713749" lon="-105.229789">
  <ele>1583.0</ele>
  <time>2026-08-28T17:48:40Z</time>
  <course>248.15</course>
  <speed>0.022360679774997897</speed>
  <fix>3d</fix>
</trkpt>
<trkpt lat="40.0713749" lon="-105.229789">
  <ele>1583.0</ele>
  <time>2026-08-28T17:48:40Z</time>
  <course>0.0</course>
  <speed>0.0</speed>
  <fix>3d</fix>
</trkpt>
<trkpt lat="40.0713749" lon="-105.229789">
  <ele>1583.0</ele>
  <time>2026-08-28T17:48:40Z</time>
  <course>248.14</course>
  <speed>0.022360679774997897</speed>
  <fix>3d</fix>
</trkpt>
<trkpt lat="40.0713749" lon="-105.229789">
  <ele>1583.0</ele>
  <time>2026-08-28T17:48:40Z</time>
  <course>0.0</course>
  <speed>0.0</speed>
  <fix>3d</fix>
</trkpt>
<trkpt lat="40.0713749" lon="-105.229789">
  <ele>1583.0</ele>
  <time>2026-08-28T17:48:40Z</time>
  <course>248.14</course>
  <speed>0.022360679774997897</speed>
  <fix>3d</fix>
</trkpt>
<trkpt lat="40.0713749" lon="-105.229789">
  <ele>1583.0</ele>
  <time>2026-08-28T17:48:40Z</time>
  <course>0.0</course>
  <speed>0.0</speed>
  <fix>3d</fix>
</trkpt>
<trkpt lat="40.0713749" lon="-105.229789">
  <ele>1583.0</ele>
  <time>2026-08-28T17:48:40Z</time>
  <course>248.13</course>
  <speed>0.022360679774997897</speed>
  <fix>3d</fix>
</trkpt>
<trkpt lat="40.0713749" lon="-105.229789">
  <ele>1583.0</ele>
  <time>2026-08-28T17:48:40Z</time>
  <course>0.0</course>
  <speed>0.0</speed>
  <fix>3d</fix>
</trkpt>
<trkpt lat="40.0713749" lon="-105.229789">
  <ele>1583.0</ele>
  <time>2026-08-28T17:48:40Z</time>
  <course>248.13</course>
  <speed>0.022360679774997897</speed>
  <fix>3d</fix>
</trkpt>
<trkpt lat="40.0713749" lon="-105.229789">
  <ele>1583.0</ele>
  <time>2026-08-28T17:48:40Z</time>
  <course>0.0</course>
  <speed>0.0</speed>
  <fix>3d</fix>
</trkpt>
<trkpt lat="40.0713749" lon="-105.229789">
  <ele>1583.0</ele>
  <time>2026-08-28T17:48:40Z</time>
  <course>248.12</course>
  <speed>0.022360679774997897</speed>
  <fix>3d</fix>
</trkpt>
<trkpt lat="40.0713749" lon="-105.229789">
  <ele>1583.0</ele>
  <time>2026-08-28T17:48:40Z</time>
  <course>0.0</course>
  <speed>0.0</speed>
  <fix>3d</fix>
</trkpt>
<trkpt lat="40.0713749" lon="-105.229789">
  <ele>1583.0</ele>
  <time>2026-08-28T17:48:40Z</time>
  <course>248.12</course>
  <speed>0.022360679774997897</speed>
  <fix>3d</fix>
</trkpt>
<trkpt lat="40.0713749" lon="-105.229789">
  <ele>1583.0</ele>
  <time>2026-08-28T17:48:40Z</time>
  <course>0.0</course>
  <speed>0.0</speed>
  <fix>3d</fix>
</trkpt>
<trkpt lat="40.0713749" lon="-105.229789">
  <ele>1583.0</ele>
  <time>2026-08-28T17:48:40Z</time>
  <course>248.11</course>
  <speed>0.022360679774997897</speed>
  <fix>3d</fix>
</trkpt>
<trkpt lat="40.0713749" lon="-105.229789">
  <ele>1583.0</ele>
  <time>2026-08-28T17:48:40Z</time>
  <course>0.0</course>
  <speed>0.0</speed>
  <fix>3d</fix>
</trkpt>
<trkpt lat="40.0713749" lon="-105.229789">
  <ele>1583.0</ele>
  <time>2026-08-28T17:48:40Z</time>
  <course>248.11</course>
  <speed>0.022360679774997897</speed>
  <fix>3d</fix>
</trkpt>
<trkpt lat="40.0713749" lon="-105.229789">
  <ele>1583.0</ele>
  <time>2026-08-28T17:48:40Z</time>
  <course>0.0</course>
  <speed>0.0</speed>
  <fix>3d</fix>
</trkpt>
<trkpt lat="40.0713749" lon="-105.229789">
  <ele>1583.0</ele>
  <time>2026-08-28T17:48:40Z</time>
  <course>248.1</course>
  <speed>0.022360679774997897</speed>
  <fix>3d</fix>
</trkpt>
<trkpt lat="40.0713749" lon="-105.229789">
  <ele>1583.0</ele>
  <time>2026-08-28T17:48:40Z</time>
  <course>0.0</course>
  <speed>0.0</speed>
  <fix>3d</fix>
</trkpt>
<trkpt lat="40.0713749" lon="-105.229789">
  <ele>1583.0</ele>
  <time>2026-08-28T17:48:40Z</time>
  <course>248.1</course>
  <speed>0.022360679774997897</speed>
  <fix>3d</fix>
</trkpt>
<trkpt lat="40.0713749" lon="-105.229789">
  <ele>1583.0</ele>
  <time>2026-08-28T17:48:40Z</time>
  <course>0.0</course>
  <speed>0.0</speed>
  <fix>3d</fix>
</trkpt>
<trkpt lat="40.0713749" lon="-105.229789">
  <ele>1583.0</ele>
  <time>2026-08-28T17:48:40Z</time>
  <course>248.09</course>
  <speed>0.022360679774997897</speed>
  <fix>3d</fix>
</trkpt>
<trkpt lat="40.0713749" lon="-105.229789">
  <ele>1583.0</ele>
  <time>2026-08-28T17:48:40Z</time>
  <course>0.0</course>
  <speed>0.0</speed>
  <fix>3d</fix>
</trkpt>
<trkpt lat="40.0713749" lon="-105.229789">
  <ele>1583.0</ele>
  <time>2026-08-28T17:48:40Z</time>
  <course>248.09</course>
  <speed>0.022360679774997897</speed>
  <fix>3d</fix>
</trkpt>
<trkpt lat="40.0713749" lon="-105.229789">
  <ele>1583.0</ele>
  <time>2026-08-28T17:48:40Z</time>
  <course>0.0</course>
  <speed>0.0</speed>
  <fix>3d</fix>
</trkpt>
<trkpt lat="40.0713749" lon="-105.229789">
  <ele>1583.0</ele>
  <time>2026-08-28T17:48:40Z</time>
  <course>248.08</course>
  <speed>0.022360679774997897</speed>
  <fix>3d</fix>
</trkpt>
<trkpt lat="40.0713749" lon="-105.229789">
  <ele>1583.0</ele>
  <time>2026-08-28T17:48:40Z</time>
  <course>0.0</course>
  <speed>0.0</speed>
  <fix>3d</fix>
</trkpt>
<trkpt lat="40.0713749" lon="-105.229789">
  <ele>1583.0</ele>
  <time>2026-08-28T17:48:40Z</time>
  <course>248.08</course>
  <speed>0.022360679774997897</speed>
  <fix>3d</fix>
</trkpt>
<trkpt lat="40.0713749" lon="-105.229789">
  <ele>1583.0</ele>
  <time>2026-08-28T17:48:40Z</time>
  <course>0.0</course>
  <speed>0.0</speed>
  <fix>3d</fix>
</trkpt>
<trkpt lat="40.0713749" lon="-105.229789">
  <ele>1583.0</ele>
  <time>2026-08-28T17:48:40Z</time>
  <course>248.07</course>
  <speed>0.022360679774997897</speed>
  <fix>3d</fix>
</trkpt>
<trkpt lat="40.0713749" lon="-105.229789">
  <ele>1583.0</ele>
  <time>2026-08-28T17:48:40Z</time>
  <course>0.0</course>
  <speed>0.0</speed>
  <fix>3d</fix>
</trkpt>
<trkpt lat="40.0713749" lon="-105.229789">
  <ele>1583.0</ele>
  <time>2026-08-28T17:48:40Z</time>
  <course>248.07</course>
  <speed>0.022360679774997897</speed>
  <fix>3d</fix>
</trkpt>
<trkpt lat="40.0713749" lon="-105.229789">
  <ele>1583.0</ele>
  <time>2026-08-28T17:48:40Z</time>
  <course>0.0</course>
  <speed>0.0</speed>
  <fix>3d</fix>
</trkpt>
<trkpt lat="40.0713749" lon="-105.229789">
  <ele>1583.0</ele>
  <time>2026-08-28T17:48:40Z</time>
  <course>248.06</course>
  <speed>0.022360679774997897</speed>
  <fix>3d</fix>
</trkpt>
<trkpt lat="40.0713749" lon="-105.229789">
  <ele>1583.0</ele>
  <time>2026-08-28T17:48:40Z</time>
  <course>0.0</course>
  <speed>0.0</speed>
  <fix>3d</fix>
</trkpt>
<trkpt lat="40.0713749" lon="-105.229789">
  <ele>1583.0</ele>
  <time>2026-08-28T17:48:40Z</time>
  <course>248.06</course>
  <speed>0.022360679774997897</speed>
  <fix>3d</fix>
</trkpt>
<trkpt lat="40.0713749" lon="-105.229789">
  <ele>1583.0</ele>
  <time>2026-08-28T17:48:40Z</time>
  <course>0.0</course>
  <speed>0.0</speed>
  <fix>3d</fix>
</trkpt>
<trkpt lat="40.0713749" lon="-105.229789">
  <ele>1583.0</ele>
  <time>2026-08-28T17:48:40Z</time>
  <course>248.05</course>
  <speed>0.022360679774997897</speed>
  <fix>3d</fix>
</trkpt>
<trkpt lat="40.0713749" lon="-105.229789">
  <ele>1583.0</ele>
  <time>2026-08-28T17:48:40Z</time>
  <course>0.0</course>
  <speed>0.0</speed>
  <fix>3d</fix>
</trkpt>
<trkpt lat="40.0713749" lon="-105.229789">
  <ele>1583.0</ele>
  <time>2026-08-28T17:48:40Z</time>
  <course>248.05</course>
  <speed>0.022360679774997897</speed>
  <fix>3d</fix>
</trkpt>
<trkpt lat="40.0713749" lon="-105.229789">
  <ele>1583.0</ele>
  <time>2026-08-28T17:48:40Z</time>
  <course>0.0</course>
  <speed>0.0</speed>
  <fix>3d</fix>
</trkpt>
<trkpt lat="40.0713749" lon="-105.229789">
  <ele>1583.0</ele>
  <time>2026-08-28T17:48:40Z</time>
  <course>248.05</course>
  <speed>0.022360679774997897</speed>
  <fix>3d</fix>
</trkpt>
<trkpt lat="40.0713749" lon="-105.229789">
  <ele>1583.0</ele>
  <time>2026-08-28T17:48:40Z</time>
  <course>0.0</course>
  <speed>0.0</speed>
  <fix>3d</fix>
</trkpt>
<trkpt lat="40.0713749" lon="-105.229789">
  <ele>1583.0</ele>
  <time>2026-08-28T17:48:40Z</time>
  <course>248.04</course>
  <speed>0.022360679774997897</speed>
  <fix>3d</fix>
</trkpt>
<trkpt lat="40.0713749" lon="-105.229789">
  <ele>1583.0</ele>
  <time>2026-08-28T17:48:40Z</time>
  <course>0.0</course>
  <speed>0.0</speed>
  <fix>3d</fix>
</trkpt>
<trkpt lat="40.0713749" lon="-105.229789">
  <ele>1583.0</ele>
  <time>2026-08-28T17:48:40Z</time>
  <course>248.04</course>
  <speed>0.022360679774997897</speed>
  <fix>3d</fix>
</trkpt>
<trkpt lat="40.0713749" lon="-105.229789">
  <ele>1583.0</ele>
  <time>2026-08-28T17:48:40Z</time>
  <course>0.0</course>
  <speed>0.0</speed>
  <fix>3d</fix>
</trkpt>
<trkpt lat="40.0713749" lon="-105.229789">
  <ele>1583.0</ele>
  <time>2026-08-28T17:48:40Z</time>
  <course>248.03</course>
  <speed>0.022360679774997897</speed>
  <fix>3d</fix>
</trkpt>
<trkpt lat="40.0713749" lon="-105.229789">
  <ele>1583.0</ele>
  <time>2026-08-28T17:48:40Z</time>
  <course>0.0</course>
  <speed>0.0</speed>
  <fix>3d</fix>
</trkpt>
<trkpt lat="40.0713749" lon="-105.229789">
  <ele>1583.0</ele>
  <time>2026-08-28T17:48:40Z</time>
  <course>248.03</course>
  <speed>0.022360679774997897</speed>
  <fix>3d</fix>
</trkpt>
<trkpt lat="40.0713749" lon="-105.229789">
  <ele>1583.0</ele>
  <time>2026-08-28T17:48:40Z</time>
  <course>0.0</course>
  <speed>0.0</speed>
  <fix>3d</fix>
</trkpt>
<trkpt lat="40.0713749" lon="-105.229789">
  <ele>1583.0</ele>
  <time>2026-08-28T17:48:40Z</time>
  <course>248.02</course>
  <speed>0.022360679774997897</speed>
  <fix>3d</fix>
</trkpt>
<trkpt lat="40.0713749" lon="-105.229789">
  <ele>1583.0</ele>
  <time>2026-08-28T17:48:40Z</time>
  <course>0.0</course>
  <speed>0.0</speed>
  <fix>3d</fix>
</trkpt>
<trkpt lat="40.0713749" lon="-105.229789">
  <ele>1583.0</ele>
  <time>2026-08-28T17:48:40Z</time>
  <course>248.02</course>
  <speed>0.022360679774997897</speed>
  <fix>3d</fix>
</trkpt>
<trkpt lat="40.0713749" lon="-105.229789">
  <ele>1583.0</ele>
  <time>2026-08-28T17:48:40Z</time>
  <course>0.0</course>
  <speed>0.0</speed>
  <fix>3d</fix>
</trkpt>
<trkpt lat="40.0713749" lon="-105.229789">
  <ele>1583.0</ele>
  <time>2026-08-28T17:48:40Z</time>
  <course>248.01</course>
  <speed>0.022360679774997897</speed>
  <fix>3d</fix>
</trkpt>
<trkpt lat="40.0713749" lon="-105.229789">
  <ele>1583.0</ele>
  <time>2026-08-28T17:48:40Z</time>
  <course>0.0</course>
  <speed>0.0</speed>
  <fix>3d</fix>
</trkpt>
<trkpt lat="40.0713749" lon="-105.229789">
  <ele>1583.0</ele>
  <time>2026-08-28T17:48:40Z</time>
  <course>248.01</course>
  <speed>0.022360679774997897</speed>
  <fix>3d</fix>
</trkpt>
<trkpt lat="40.0713749" lon="-105.229789">
  <ele>1583.0</ele>
  <time>2026-08-28T17:48:40Z</time>
  <course>0.0</course>
  <speed>0.0</speed>
  <fix>3d</fix>
</trkpt>
<trkpt lat="40.0713749" lon="-105.229789">
  <ele>1583.0</ele>
  <time>2026-08-28T17:48:40Z</time>
  <course>248.0</course>
  <speed>0.022360679774997897</speed>
  <fix>3d</fix>
</trkpt>
<trkpt lat="40.0713749" lon="-105.229789">
  <ele>1583.0</ele>
  <time>2026-08-28T17:48:40Z</time>
  <course>0.0</course>
  <speed>0.0</speed>
  <fix>3d</fix>
</trkpt>
<trkpt lat="40.0713749" lon="-105.229789">
  <ele>1583.0</ele>
  <time>2026-08-28T17:48:40Z</time>
  <course>248.0</course>
  <speed>0.022360679774997897</speed>
  <fix>3d</fix>
</trkpt>
<trkpt lat="40.0713749" lon="-105.229789">
  <ele>1583.0</ele>
  <time>2026-08-28T17:48:40Z</time>
  <course>0.0</course>
  <speed>0.0</speed>
  <fix>3d</fix>
</trkpt>
<trkpt lat="40.0713749" lon="-105.229789">
  <ele>1583.0</ele>
  <time>2026-08-28T17:48:40Z</time>
  <course>247.99</course>
  <speed>0.022360679774997897</speed>
  <fix>3d</fix>
</trkpt>
<trkpt lat="40.0713749" lon="-105.229789">
  <ele>1583.0</ele>
  <time>2026-08-28T17:48:40Z</time>
  <course>0.0</course>
  <speed>0.0</speed>
  <fix>3d</fix>
</trkpt>
<trkpt lat="40.0713749" lon="-105.229789">
  <ele>1583.0</ele>
  <time>2026-08-28T17:48:40Z</time>
  <course>247.99</course>
  <speed>0.022360679774997897</speed>
  <fix>3d</fix>
</trkpt>
<trkpt lat="40.0713749" lon="-105.229789">
  <ele>1583.0</ele>
  <time>2026-08-28T17:48:40Z</time>
  <course>0.0</course>
  <speed>0.0</speed>
  <fix>3d</fix>
</trkpt>
<trkpt lat="40.0713749" lon="-105.229789">
  <ele>1583.0</ele>
  <time>2026-08-28T17:48:40Z</time>
  <course>247.99</course>
  <speed>0.022360679774997897</speed>
  <fix>3d</fix>
</trkpt>
<trkpt lat="40.0713749" lon="-105.229789">
  <ele>1583.0</ele>
  <time>2026-08-28T17:48:40Z</time>
  <course>0.0</course>
  <speed>0.0</speed>
  <fix>3d</fix>
</trkpt>
<trkpt lat="40.0713749" lon="-105.229789">
  <ele>1583.0</ele>
  <time>2026-08-28T17:48:40Z</time>
  <course>247.98</course>
  <speed>0.022360679774997897</speed>
  <fix>3d</fix>
</trkpt>
<trkpt lat="40.0713749" lon="-105.229789">
  <ele>1583.0</ele>
  <time>2026-08-28T17:48:40Z</time>
  <course>0.0</course>
  <speed>0.0</speed>
  <fix>3d</fix>
</trkpt>
<trkpt lat="40.0713749" lon="-105.229789">
  <ele>1583.0</ele>
  <time>2026-08-28T17:48:40Z</time>
  <course>247.98</course>
  <speed>0.022360679774997897</speed>
  <fix>3d</fix>
</trkpt>
<trkpt lat="40.0713749" lon="-105.229789">
  <ele>1583.0</ele>
  <time>2026-08-28T17:48:40Z</time>
  <course>0.0</course>
  <speed>0.0</speed>
  <fix>3d</fix>
</trkpt>
<trkpt lat="40.0713749" lon="-105.229789">
  <ele>1583.0</ele>
  <time>2026-08-28T17:48:40Z</time>
  <course>247.97</course>
  <speed>0.022360679774997897</speed>
  <fix>3d</fix>
</trkpt>
<trkpt lat="40.0713749" lon="-105.229789">
  <ele>1583.0</ele>
  <time>2026-08-28T17:48:40Z</time>
  <course>0.0</course>
  <speed>0.0</speed>
  <fix>3d</fix>
</trkpt>
<trkpt lat="40.0713749" lon="-105.229789">
  <ele>1583.0</ele>
  <time>2026-08-28T17:48:40Z</time>
  <course>247.97</course>
  <speed>0.022360679774997897</speed>
  <fix>3d</fix>
</trkpt>
<trkpt lat="40.0713749" lon="-105.229789">
  <ele>1583.0</ele>
  <time>2026-08-28T17:48:40Z</time>
  <course>0.0</course>
  <speed>0.0</speed>
  <fix>3d</fix>
</trkpt>
<trkpt lat="40.0713749" lon="-105.229789">
  <ele>1583.0</ele>
  <time>2026-08-28T17:48:40Z</time>
  <course>247.96</course>
  <speed>0.022360679774997897</speed>
  <fix>3d</fix>
</trkpt>
<trkpt lat="40.0713749" lon="-105.229789">
  <ele>1583.0</ele>
  <time>2026-08-28T17:48:40Z</time>
  <course>0.0</course>
  <speed>0.0</speed>
  <fix>3d</fix>
</trkpt>
<trkpt lat="40.0713749" lon="-105.229789">
  <ele>1583.0</ele>
  <time>2026-08-28T17:48:40Z</time>
  <course>247.96</course>
  <speed>0.022360679774997897</speed>
  <fix>3d</fix>
</trkpt>
<trkpt lat="40.0713749" lon="-105.229789">
  <ele>1583.0</ele>
  <time>2026-08-28T17:48:40Z</time>
  <course>0.0</course>
  <speed>0.0</speed>
  <fix>3d</fix>
</trkpt>
<trkpt lat="40.0713749" lon="-105.229789">
  <ele>1583.0</ele>
  <time>2026-08-28T17:48:40Z</time>
  <course>247.95</course>
  <speed>0.022360679774997897</speed>
  <fix>3d</fix>
</trkpt>
<trkpt lat="40.0713749" lon="-105.229789">
  <ele>1583.0</ele>
  <time>2026-08-28T17:48:40Z</time>
  <course>0.0</course>
  <speed>0.0</speed>
  <fix>3d</fix>
</trkpt>
<trkpt lat="40.0713749" lon="-105.229789">
  <ele>1583.0</ele>
  <time>2026-08-28T17:48:40Z</time>
  <course>247.95</course>
  <speed>0.022360679774997897</speed>
  <fix>3d</fix>
</trkpt>
<trkpt lat="40.0713749" lon="-105.229789">
  <ele>1583.0</ele>
  <time>2026-08-28T17:48:40Z</time>
  <course>0.0</course>
  <speed>0.0</speed>
  <fix>3d</fix>
</trkpt>
<trkpt lat="40.0713749" lon="-105.229789">
  <ele>1583.0</ele>
  <time>2026-08-28T17:48:40Z</time>
  <course>247.95</course>
  <speed>0.022360679774997897</speed>
  <fix>3d</fix>
</trkpt>
<trkpt lat="40.0713749" lon="-105.229789">
  <ele>1583.0</ele>
  <time>2026-08-28T17:48:40Z</time>
  <course>0.0</course>
  <speed>0.0</speed>
  <fix>3d</fix>
</trkpt>
<trkpt lat="40.0713749" lon="-105.229789">
  <ele>1583.0</ele>
  <time>2026-08-28T17:48:40Z</time>
  <course>247.94</course>
  <speed>0.022360679774997897</speed>
  <fix>3d</fix>
</trkpt>
<trkpt lat="40.0713749" lon="-105.229789">
  <ele>1583.0</ele>
  <time>2026-08-28T17:48:40Z</time>
  <course>0.0</course>
  <speed>0.0</speed>
  <fix>3d</fix>
</trkpt>
<trkpt lat="40.0713749" lon="-105.229789">
  <ele>1583.0</ele>
  <time>2026-08-28T17:48:40Z</time>
  <course>247.94</course>
  <speed>0.022360679774997897</speed>
  <fix>3d</fix>
</trkpt>
<trkpt lat="40.0713749" lon="-105.229789">
  <ele>1583.0</ele>
  <time>2026-08-28T17:48:40Z</time>
  <course>0.0</course>
  <speed>0.0</speed>
  <fix>3d</fix>
</trkpt>
<trkpt lat="40.0713749" lon="-105.229789">
  <ele>1583.0</ele>
  <time>2026-08-28T17:48:40Z</time>
  <course>247.93</course>
  <speed>0.022360679774997897</speed>
  <fix>3d</fix>
</trkpt>
<trkpt lat="40.0713749" lon="-105.229789">
  <ele>1583.0</ele>
  <time>2026-08-28T17:48:40Z</time>
  <course>0.0</course>
  <speed>0.0</speed>
  <fix>3d</fix>
</trkpt>
<trkpt lat="40.0713749" lon="-105.229789">
  <ele>1583.0</ele>
  <time>2026-08-28T17:48:40Z</time>
  <course>247.93</course>
  <speed>0.022360679774997897</speed>
  <fix>3d</fix>
</trkpt>
<trkpt lat="40.0713749" lon="-105.229789">
  <ele>1583.0</ele>
  <time>2026-08-28T17:48:40Z</time>
  <course>0.0</course>
  <speed>0.0</speed>
  <fix>3d</fix>
</trkpt>
<trkpt lat="40.0713749" lon="-105.229789">
  <ele>1583.0</ele>
  <time>2026-08-28T17:48:40Z</time>
  <course>247.92</course>
  <speed>0.022360679774997897</speed>
  <fix>3d</fix>
</trkpt>
<trkpt lat="40.0713749" lon="-105.229789">
  <ele>1583.0</ele>
  <time>2026-08-28T17:48:40Z</time>
  <course>0.0</course>
  <speed>0.0</speed>
  <fix>3d</fix>
</trkpt>
<trkpt lat="40.0713749" lon="-105.229789">
  <ele>1583.0</ele>
  <time>2026-08-28T17:48:40Z</time>
  <course>247.92</course>
  <speed>0.022360679774997897</speed>
  <fix>3d</fix>
</trkpt>
<trkpt lat="40.0713749" lon="-105.229789">
  <ele>1583.0</ele>
  <time>2026-08-28T17:48:40Z</time>
  <course>0.0</course>
  <speed>0.0</speed>
  <fix>3d</fix>
</trkpt>
<trkpt lat="40.0713749" lon="-105.229789">
  <ele>1583.0</ele>
  <time>2026-08-28T17:48:40Z</time>
  <course>247.92</course>
  <speed>0.022360679774997897</speed>
  <fix>3d</fix>
</trkpt>
<trkpt lat="40.0713749" lon="-105.229789">
  <ele>1583.0</ele>
  <time>2026-08-28T17:48:40Z</time>
  <course>0.0</course>
  <speed>0.0</speed>
  <fix>3d</fix>
</trkpt>
<trkpt lat="40.0713749" lon="-105.229789">
  <ele>1583.0</ele>
  <time>2026-08-28T17:48:40Z</time>
  <course>247.91</course>
  <speed>0.022360679774997897</speed>
  <fix>3d</fix>
</trkpt>
<trkpt lat="40.0713749" lon="-105.229789">
  <ele>1583.0</ele>
  <time>2026-08-28T17:48:40Z</time>
  <course>0.0</course>
  <speed>0.0</speed>
  <fix>3d</fix>
</trkpt>
<trkpt lat="40.0713749" lon="-105.229789">
  <ele>1583.0</ele>
  <time>2026-08-28T17:48:40Z</time>
  <course>247.91</course>
  <speed>0.022360679774997897</speed>
  <fix>3d</fix>
</trkpt>
<trkpt lat="40.0713749" lon="-105.229789">
  <ele>1583.0</ele>
  <time>2026-08-28T17:48:40Z</time>
  <course>0.0</course>
  <speed>0.0</speed>
  <fix>3d</fix>
</trkpt>
<trkpt lat="40.0713749" lon="-105.229789">
  <ele>1583.0</ele>
  <time>2026-08-28T17:48:40Z</time>
  <course>247.9</course>
  <speed>0.022360679774997897</speed>
  <fix>3d</fix>
</trkpt>
<trkpt lat="40.0713749" lon="-105.229789">
  <ele>1583.0</ele>
  <time>2026-08-28T17:48:40Z</time>
  <course>0.0</course>
  <speed>0.0</speed>
  <fix>3d</fix>
</trkpt>
<trkpt lat="40.0713749" lon="-105.229789">
  <ele>1583.0</ele>
  <time>2026-08-28T17:48:40Z</time>
  <course>247.9</course>
  <speed>0.022360679774997897</speed>
  <fix>3d</fix>
</trkpt>
<trkpt lat="40.0713749" lon="-105.229789">
  <ele>1583.0</ele>
  <time>2026-08-28T17:48:40Z</time>
  <course>0.0</course>
  <speed>0.0</speed>
  <fix>3d</fix>
</trkpt>
<trkpt lat="40.0713749" lon="-105.229789">
  <ele>1583.0</ele>
  <time>2026-08-28T17:48:40Z</time>
  <course>247.89</course>
  <speed>0.022360679774997897</speed>
  <fix>3d</fix>
</trkpt>
<trkpt lat="40.0713749" lon="-105.229789">
  <ele>1583.0</ele>
  <time>2026-08-28T17:48:40Z</time>
  <course>0.0</course>
  <speed>0.0</speed>
  <fix>3d</fix>
</trkpt>
<trkpt lat="40.0713749" lon="-105.229789">
  <ele>1583.0</ele>
  <time>2026-08-28T17:48:40Z</time>
  <course>247.89</course>
  <speed>0.022360679774997897</speed>
  <fix>3d</fix>
</trkpt>
<trkpt lat="40.0713749" lon="-105.229789">
  <ele>1583.0</ele>
  <time>2026-08-28T17:48:40Z</time>
  <course>0.0</course>
  <speed>0.0</speed>
  <fix>3d</fix>
</trkpt>
<trkpt lat="40.0713749" lon="-105.229789">
  <ele>1583.0</ele>
  <time>2026-08-28T17:48:40Z</time>
  <course>247.89</course>
  <speed>0.022360679774997897</speed>
  <fix>3d</fix>
</trkpt>
<trkpt lat="40.0713749" lon="-105.229789">
  <ele>1583.0</ele>
  <time>2026-08-28T17:48:40Z</time>
  <course>0.0</course>
  <speed>0.0</speed>
  <fix>3d</fix>
</trkpt>
<trkpt lat="40.0713749" lon="-105.229789">
  <ele>1583.0</ele>
  <time>2026-08-28T17:48:40Z</time>
  <course>247.88</course>
  <speed>0.0316227766016838</speed>
  <fix>3d</fix>
</trkpt>
<trkpt lat="40.0713749" lon="-105.229789">
  <ele>1583.0</ele>
  <time>2026-08-28T17:48:40Z</time>
  <course>0.0</course>
  <speed>0.0</speed>
  <fix>3d</fix>
</trkpt>
<trkpt lat="40.0713749" lon="-105.229789">
  <ele>1583.0</ele>
  <time>2026-08-28T17:48:40Z</time>
  <course>247.88</course>
  <speed>0.0316227766016838</speed>
  <fix>3d</fix>
</trkpt>
<trkpt lat="40.0713749" lon="-105.229789">
  <ele>1583.0</ele>
  <time>2026-08-28T17:48:40Z</time>
  <course>0.0</course>
  <speed>0.0</speed>
  <fix>3d</fix>
</trkpt>
<trkpt lat="40.0713749" lon="-105.229789">
  <ele>1583.0</ele>
  <time>2026-08-28T17:48:40Z</time>
  <course>247.87</course>
  <speed>0.0316227766016838</speed>
  <fix>3d</fix>
</trkpt>
<trkpt lat="40.0713749" lon="-105.229789">
  <ele>1583.0</ele>
  <time>2026-08-28T17:48:40Z</time>
  <course>0.0</course>
  <speed>0.0</speed>
  <fix>3d</fix>
</trkpt>
<trkpt lat="40.0713749" lon="-105.229789">
  <ele>1583.0</ele>
  <time>2026-08-28T17:48:40Z</time>
  <course>247.87</course>
  <speed>0.0316227766016838</speed>
  <fix>3d</fix>
</trkpt>
<trkpt lat="40.0713749" lon="-105.229789">
  <ele>1583.0</ele>
  <time>2026-08-28T17:48:40Z</time>
  <course>0.0</course>
  <speed>0.0</speed>
  <fix>3d</fix>
</trkpt>
<trkpt lat="40.0713749" lon="-105.229789">
  <ele>1583.0</ele>
  <time>2026-08-28T17:48:40Z</time>
  <course>247.87</course>
  <speed>0.0316227766016838</speed>
  <fix>3d</fix>
</trkpt>
<trkpt lat="40.0713749" lon="-105.229789">
  <ele>1583.0</ele>
  <time>2026-08-28T17:48:40Z</time>
  <course>0.0</course>
  <speed>0.0</speed>
  <fix>3d</fix>
</trkpt>
<trkpt lat="40.0713749" lon="-105.229789">
  <ele>1583.0</ele>
  <time>2026-08-28T17:48:40Z</time>
  <course>247.86</course>
  <speed>0.0316227766016838</speed>
  <fix>3d</fix>
</trkpt>
<trkpt lat="40.0713749" lon="-105.229789">
  <ele>1583.0</ele>
  <time>2026-08-28T17:48:40Z</time>
  <course>0.0</course>
  <speed>0.0</speed>
  <fix>3d</fix>
</trkpt>
<trkpt lat="40.0713749" lon="-105.229789">
  <ele>1583.0</ele>
  <time>2026-08-28T17:48:40Z</time>
  <course>247.86</course>
  <speed>0.0316227766016838</speed>
  <fix>3d</fix>
</trkpt>
<trkpt lat="40.0713749" lon="-105.229789">
  <ele>1583.0</ele>
  <time>2026-08-28T17:48:40Z</time>
  <course>0.0</course>
  <speed>0.0</speed>
  <fix>3d</fix>
</trkpt>
<trkpt lat="40.0713749" lon="-105.229789">
  <ele>1583.0</ele>
  <time>2026-08-28T17:48:40Z</time>
  <course>247.85</course>
  <speed>0.0316227766016838</speed>
  <fix>3d</fix>
</trkpt>
<trkpt lat="40.0713749" lon="-105.229789">
  <ele>1583.0</ele>
  <time>2026-08-28T17:48:40Z</time>
  <course>0.0</course>
  <speed>0.0</speed>
  <fix>3d</fix>
</trkpt>
<trkpt lat="40.0713749" lon="-105.229789">
  <ele>1583.0</ele>
  <time>2026-08-28T17:48:40Z</time>
  <course>247.85</course>
  <speed>0.0316227766016838</speed>
  <fix>3d</fix>
</trkpt>
<trkpt lat="40.0713749" lon="-105.229789">
  <ele>1583.0</ele>
  <time>2026-08-28T17:48:40Z</time>
  <course>0.0</course>
  <speed>0.0</speed>
  <fix>3d</fix>
</trkpt>
<trkpt lat="40.0713749" lon="-105.229789">
  <ele>1583.0</ele>
  <time>2026-08-28T17:48:40Z</time>
  <course>247.85</course>
  <speed>0.0316227766016838</speed>
  <fix>3d</fix>
</trkpt>
<trkpt lat="40.0713749" lon="-105.229789">
  <ele>1583.0</ele>
  <time>2026-08-28T17:48:40Z</time>
  <course>0.0</course>
  <speed>0.0</speed>
  <fix>3d</fix>
</trkpt>
<trkpt lat="40.0713749" lon="-105.229789">
  <ele>1583.0</ele>
  <time>2026-08-28T17:48:40Z</time>
  <course>247.84</course>
  <speed>0.0316227766016838</speed>
  <fix>3d</fix>
</trkpt>
<trkpt lat="40.0713749" lon="-105.229789">
  <ele>1583.0</ele>
  <time>2026-08-28T17:48:40Z</time>
  <course>0.0</course>
  <speed>0.0</speed>
  <fix>3d</fix>
</trkpt>
<trkpt lat="40.0713749" lon="-105.229789">
  <ele>1583.0</ele>
  <time>2026-08-28T17:48:40Z</time>
  <course>247.84</course>
  <speed>0.0316227766016838</speed>
  <fix>3d</fix>
</trkpt>
<trkpt lat="40.0713749" lon="-105.229789">
  <ele>1583.0</ele>
  <time>2026-08-28T17:48:40Z</time>
  <course>0.0</course>
  <speed>0.0</speed>
  <fix>3d</fix>
</trkpt>
<trkpt lat="40.0713749" lon="-105.229789">
  <ele>1583.0</ele>
  <time>2026-08-28T17:48:40Z</time>
  <course>247.83</course>
  <speed>0.0316227766016838</speed>
  <fix>3d</fix>
</trkpt>
<trkpt lat="40.0713749" lon="-105.229789">
  <ele>1583.0</ele>
  <time>2026-08-28T17:48:40Z</time>
  <course>0.0</course>
  <speed>0.0</speed>
  <fix>3d</fix>
</trkpt>
<trkpt lat="40.0713749" lon="-105.229789">
  <ele>1583.0</ele>
  <time>2026-08-28T17:48:40Z</time>
  <course>247.83</course>
  <speed>0.0316227766016838</speed>
  <fix>3d</fix>
</trkpt>
<trkpt lat="40.0713749" lon="-105.229789">
  <ele>1583.0</ele>
  <time>2026-08-28T17:48:40Z</time>
  <course>0.0</course>
  <speed>0.0</speed>
  <fix>3d</fix>
</trkpt>
<trkpt lat="40.0713749" lon="-105.229789">
  <ele>1583.0</ele>
  <time>2026-08-28T17:48:40Z</time>
  <course>247.83</course>
  <speed>0.0316227766016838</speed>
  <fix>3d</fix>
</trkpt>
<trkpt lat="40.0713749" lon="-105.229789">
  <ele>1583.0</ele>
  <time>2026-08-28T17:48:40Z</time>
  <course>0.0</course>
  <speed>0.0</speed>
  <fix>3d</fix>
</trkpt>
<trkpt lat="40.0713749" lon="-105.229789">
  <ele>1583.0</ele>
  <time>2026-08-28T17:48:41Z</time>
  <course>247.82</course>
  <speed>0.0316227766016838</speed>
  <fix>3d</fix>
</trkpt>
<trkpt lat="40.0713749" lon="-105.229789">
  <ele>1583.0</ele>
  <time>2026-08-28T17:48:41Z</time>
  <course>0.0</course>
  <speed>0.0</speed>
  <fix>3d</fix>
</trkpt>
<trkpt lat="40.0713749" lon="-105.229789">
  <ele>1583.0</ele>
  <time>2026-08-28T17:48:41Z</time>
  <course>247.82</course>
  <speed>0.0316227766016838</speed>
  <fix>3d</fix>
</trkpt>
<trkpt lat="40.0713749" lon="-105.229789">
  <ele>1583.0</ele>
  <time>2026-08-28T17:48:41Z</time>
  <course>0.0</course>
  <speed>0.0</speed>
  <fix>3d</fix>
</trkpt>
<trkpt lat="40.0713749" lon="-105.229789">
  <ele>1583.0</ele>
  <time>2026-08-28T17:48:41Z</time>
  <course>247.82</course>
  <speed>0.0316227766016838</speed>
  <fix>3d</fix>
</trkpt>
<trkpt lat="40.0713749" lon="-105.229789">
  <ele>1583.0</ele>
  <time>2026-08-28T17:48:41Z</time>
  <course>0.0</course>
  <speed>0.0</speed>
  <fix>3d</fix>
</trkpt>
<trkpt lat="40.0713749" lon="-105.229789">
  <ele>1583.0</ele>
  <time>2026-08-28T17:48:41Z</time>
  <course>247.81</course>
  <speed>0.0316227766016838</speed>
  <fix>3d</fix>
</trkpt>
<trkpt lat="40.0713749" lon="-105.229789">
  <ele>1583.0</ele>
  <time>2026-08-28T17:48:41Z</time>
  <course>0.0</course>
  <speed>0.0</speed>
  <fix>3d</fix>
</trkpt>
<trkpt lat="40.0713749" lon="-105.229789">
  <ele>1583.0</ele>
  <time>2026-08-28T17:48:41Z</time>
  <course>247.81</course>
  <speed>0.0316227766016838</speed>
  <fix>3d</fix>
</trkpt>
<trkpt lat="40.0713749" lon="-105.229789">
  <ele>1583.0</ele>
  <time>2026-08-28T17:48:41Z</time>
  <course>0.0</course>
  <speed>0.0</speed>
  <fix>3d</fix>
</trkpt>
<trkpt lat="40.0713749" lon="-105.229789">
  <ele>1583.0</ele>
  <time>2026-08-28T17:48:41Z</time>
  <course>247.8</course>
  <speed>0.0316227766016838</speed>
  <fix>3d</fix>
</trkpt>
<trkpt lat="40.0713749" lon="-105.229789">
  <ele>1583.0</ele>
  <time>2026-08-28T17:48:41Z</time>
  <course>0.0</course>
  <speed>0.0</speed>
  <fix>3d</fix>
</trkpt>
<trkpt lat="40.0713749" lon="-105.229789">
  <ele>1583.0</ele>
  <time>2026-08-28T17:48:41Z</time>
  <course>247.8</course>
  <speed>0.0316227766016838</speed>
  <fix>3d</fix>
</trkpt>
<trkpt lat="40.0713749" lon="-105.229789">
  <ele>1583.0</ele>
  <time>2026-08-28T17:48:41Z</time>
  <course>0.0</course>
  <speed>0.0</speed>
  <fix>3d</fix>
</trkpt>
<trkpt lat="40.0713749" lon="-105.229789">
  <ele>1583.0</ele>
  <time>2026-08-28T17:48:41Z</time>
  <course>247.8</course>
  <speed>0.0316227766016838</speed>
  <fix>3d</fix>
</trkpt>
<trkpt lat="40.0713749" lon="-105.229789">
  <ele>1583.0</ele>
  <time>2026-08-28T17:48:41Z</time>
  <course>0.0</course>
  <speed>0.0</speed>
  <fix>3d</fix>
</trkpt>
<trkpt lat="40.0713749" lon="-105.229789">
  <ele>1583.0</ele>
  <time>2026-08-28T17:48:41Z</time>
  <course>247.79</course>
  <speed>0.0316227766016838</speed>
  <fix>3d</fix>
</trkpt>
<trkpt lat="40.0713749" lon="-105.229789">
  <ele>1583.0</ele>
  <time>2026-08-28T17:48:41Z</time>
  <course>0.0</course>
  <speed>0.0</speed>
  <fix>3d</fix>
</trkpt>
<trkpt lat="40.0713749" lon="-105.229789">
  <ele>1583.0</ele>
  <time>2026-08-28T17:48:41Z</time>
  <course>247.79</course>
  <speed>0.0316227766016838</speed>
  <fix>3d</fix>
</trkpt>
<trkpt lat="40.0713749" lon="-105.229789">
  <ele>1583.0</ele>
  <time>2026-08-28T17:48:41Z</time>
  <course>0.0</course>
  <speed>0.0</speed>
  <fix>3d</fix>
</trkpt>
<trkpt lat="40.0713749" lon="-105.229789">
  <ele>1583.0</ele>
  <time>2026-08-28T17:48:41Z</time>
  <course>247.79</course>
  <speed>0.0316227766016838</speed>
  <fix>3d</fix>
</trkpt>
<trkpt lat="40.0713749" lon="-105.229789">
  <ele>1583.0</ele>
  <time>2026-08-28T17:48:41Z</time>
  <course>0.0</course>
  <speed>0.0</speed>
  <fix>3d</fix>
</trkpt>
<trkpt lat="40.0713749" lon="-105.229789">
  <ele>1583.0</ele>
  <time>2026-08-28T17:48:41Z</time>
  <course>247.78</course>
  <speed>0.0316227766016838</speed>
  <fix>3d</fix>
</trkpt>
<trkpt lat="40.0713749" lon="-105.229789">
  <ele>1583.0</ele>
  <time>2026-08-28T17:48:41Z</time>
  <course>0.0</course>
  <speed>0.0</speed>
  <fix>3d</fix>
</trkpt>
<trkpt lat="40.0713749" lon="-105.229789">
  <ele>1583.0</ele>
  <time>2026-08-28T17:48:41Z</time>
  <course>247.78</course>
  <speed>0.0316227766016838</speed>
  <fix>3d</fix>
</trkpt>
<trkpt lat="40.0713749" lon="-105.229789">
  <ele>1583.0</ele>
  <time>2026-08-28T17:48:41Z</time>
  <course>0.0</course>
  <speed>0.0</speed>
  <fix>3d</fix>
</trkpt>
<trkpt lat="40.0713749" lon="-105.229789">
  <ele>1583.0</ele>
  <time>2026-08-28T17:48:41Z</time>
  <course>247.78</course>
  <speed>0.0316227766016838</speed>
  <fix>3d</fix>
</trkpt>
<trkpt lat="40.0713749" lon="-105.229789">
  <ele>1583.0</ele>
  <time>2026-08-28T17:48:41Z</time>
  <course>0.0</course>
  <speed>0.0</speed>
  <fix>3d</fix>
</trkpt>
<trkpt lat="40.0713749" lon="-105.229789">
  <ele>1583.0</ele>
  <time>2026-08-28T17:48:41Z</time>
  <course>247.77</course>
  <speed>0.0316227766016838</speed>
  <fix>3d</fix>
</trkpt>
<trkpt lat="40.0713749" lon="-105.229789">
  <ele>1583.0</ele>
  <time>2026-08-28T17:48:41Z</time>
  <course>0.0</course>
  <speed>0.0</speed>
  <fix>3d</fix>
</trkpt>
<trkpt lat="40.0713749" lon="-105.229789">
  <ele>1583.0</ele>
  <time>2026-08-28T17:48:41Z</time>
  <course>247.77</course>
  <speed>0.0316227766016838</speed>
  <fix>3d</fix>
</trkpt>
<trkpt lat="40.0713749" lon="-105.229789">
  <ele>1583.0</ele>
  <time>2026-08-28T17:48:41Z</time>
  <course>0.0</course>
  <speed>0.0</speed>
  <fix>3d</fix>
</trkpt>
<trkpt lat="40.0713749" lon="-105.229789">
  <ele>1583.0</ele>
  <time>2026-08-28T17:48:41Z</time>
  <course>247.76</course>
  <speed>0.0316227766016838</speed>
  <fix>3d</fix>
</trkpt>
<trkpt lat="40.0713749" lon="-105.229789">
  <ele>1583.0</ele>
  <time>2026-08-28T17:48:41Z</time>
  <course>0.0</course>
  <speed>0.0</speed>
  <fix>3d</fix>
</trkpt>
<trkpt lat="40.0713749" lon="-105.229789">
  <ele>1583.0</ele>
  <time>2026-08-28T17:48:41Z</time>
  <course>247.76</course>
  <speed>0.0316227766016838</speed>
  <fix>3d</fix>
</trkpt>
<trkpt lat="40.0713749" lon="-105.229789">
  <ele>1583.0</ele>
  <time>2026-08-28T17:48:41Z</time>
  <course>0.0</course>
  <speed>0.0</speed>
  <fix>3d</fix>
</trkpt>
<trkpt lat="40.0713749" lon="-105.229789">
  <ele>1583.0</ele>
  <time>2026-08-28T17:48:41Z</time>
  <course>247.76</course>
  <speed>0.0316227766016838</speed>
  <fix>3d</fix>
</trkpt>
<trkpt lat="40.0713749" lon="-105.229789">
  <ele>1583.0</ele>
  <time>2026-08-28T17:48:41Z</time>
  <course>0.0</course>
  <speed>0.0</speed>
  <fix>3d</fix>
</trkpt>
<trkpt lat="40.0713749" lon="-105.229789">
  <ele>1583.0</ele>
  <time>2026-08-28T17:48:41Z</time>
  <course>247.75</course>
  <speed>0.0316227766016838</speed>
  <fix>3d</fix>
</trkpt>
<trkpt lat="40.0713749" lon="-105.229789">
  <ele>1583.0</ele>
  <time>2026-08-28T17:48:41Z</time>
  <course>0.0</course>
  <speed>0.0</speed>
  <fix>3d</fix>
</trkpt>
<trkpt lat="40.0713749" lon="-105.229789">
  <ele>1583.0</ele>
  <time>2026-08-28T17:48:41Z</time>
  <course>247.75</course>
  <speed>0.0316227766016838</speed>
  <fix>3d</fix>
</trkpt>
<trkpt lat="40.0713749" lon="-105.229789">
  <ele>1583.0</ele>
  <time>2026-08-28T17:48:41Z</time>
  <course>0.0</course>
  <speed>0.0</speed>
  <fix>3d</fix>
</trkpt>
<trkpt lat="40.0713749" lon="-105.229789">
  <ele>1583.0</ele>
  <time>2026-08-28T17:48:41Z</time>
  <course>247.75</course>
  <speed>0.0316227766016838</speed>
  <fix>3d</fix>
</trkpt>
<trkpt lat="40.0713749" lon="-105.229789">
  <ele>1583.0</ele>
  <time>2026-08-28T17:48:41Z</time>
  <course>0.0</course>
  <speed>0.0</speed>
  <fix>3d</fix>
</trkpt>
<trkpt lat="40.0713749" lon="-105.229789">
  <ele>1583.0</ele>
  <time>2026-08-28T17:48:41Z</time>
  <course>247.74</course>
  <speed>0.0316227766016838</speed>
  <fix>3d</fix>
</trkpt>
<trkpt lat="40.0713749" lon="-105.229789">
  <ele>1583.0</ele>
  <time>2026-08-28T17:48:41Z</time>
  <course>0.0</course>
  <speed>0.0</speed>
  <fix>3d</fix>
</trkpt>
<trkpt lat="40.0713749" lon="-105.229789">
  <ele>1583.0</ele>
  <time>2026-08-28T17:48:41Z</time>
  <course>247.74</course>
  <speed>0.0316227766016838</speed>
  <fix>3d</fix>
</trkpt>
<trkpt lat="40.0713749" lon="-105.229789">
  <ele>1583.0</ele>
  <time>2026-08-28T17:48:41Z</time>
  <course>0.0</course>
  <speed>0.0</speed>
  <fix>3d</fix>
</trkpt>
<trkpt lat="40.0713749" lon="-105.229789">
  <ele>1583.0</ele>
  <time>2026-08-28T17:48:41Z</time>
  <course>247.74</course>
  <speed>0.0316227766016838</speed>
  <fix>3d</fix>
</trkpt>
<trkpt lat="40.0713749" lon="-105.229789">
  <ele>1583.0</ele>
  <time>2026-08-28T17:48:41Z</time>
  <course>0.0</course>
  <speed>0.0</speed>
  <fix>3d</fix>
</trkpt>
<trkpt lat="40.0713749" lon="-105.229789">
  <ele>1583.0</ele>
  <time>2026-08-28T17:48:41Z</time>
  <course>247.73</course>
  <speed>0.0316227766016838</speed>
  <fix>3d</fix>
</trkpt>
<trkpt lat="40.0713749" lon="-105.229789">
  <ele>1583.0</ele>
  <time>2026-08-28T17:48:41Z</time>
  <course>0.0</course>
  <speed>0.0</speed>
  <fix>3d</fix>
</trkpt>
<trkpt lat="40.0713749" lon="-105.229789">
  <ele>1583.0</ele>
  <time>2026-08-28T17:48:41Z</time>
  <course>247.73</course>
  <speed>0.0316227766016838</speed>
  <fix>3d</fix>
</trkpt>
<trkpt lat="40.0713749" lon="-105.229789">
  <ele>1583.0</ele>
  <time>2026-08-28T17:48:41Z</time>
  <course>0.0</course>
  <speed>0.0</speed>
  <fix>3d</fix>
</trkpt>
<trkpt lat="40.0713749" lon="-105.229789">
  <ele>1583.0</ele>
  <time>2026-08-28T17:48:41Z</time>
  <course>247.73</course>
  <speed>0.0316227766016838</speed>
  <fix>3d</fix>
</trkpt>
<trkpt lat="40.0713749" lon="-105.229789">
  <ele>1583.0</ele>
  <time>2026-08-28T17:48:41Z</time>
  <course>0.0</course>
  <speed>0.0</speed>
  <fix>3d</fix>
</trkpt>
<trkpt lat="40.0713749" lon="-105.229789">
  <ele>1583.0</ele>
  <time>2026-08-28T17:48:41Z</time>
  <course>247.72</course>
  <speed>0.0316227766016838</speed>
  <fix>3d</fix>
</trkpt>
<trkpt lat="40.0713749" lon="-105.229789">
  <ele>1583.0</ele>
  <time>2026-08-28T17:48:41Z</time>
  <course>0.0</course>
  <speed>0.0</speed>
  <fix>3d</fix>
</trkpt>
<trkpt lat="40.0713749" lon="-105.229789">
  <ele>1583.0</ele>
  <time>2026-08-28T17:48:41Z</time>
  <course>247.72</course>
  <speed>0.0316227766016838</speed>
  <fix>3d</fix>
</trkpt>
<trkpt lat="40.0713749" lon="-105.229789">
  <ele>1583.0</ele>
  <time>2026-08-28T17:48:41Z</time>
  <course>0.0</course>
  <speed>0.0</speed>
  <fix>3d</fix>
</trkpt>
<trkpt lat="40.0713749" lon="-105.229789">
  <ele>1583.0</ele>
  <time>2026-08-28T17:48:41Z</time>
  <course>247.72</course>
  <speed>0.0316227766016838</speed>
  <fix>3d</fix>
</trkpt>
<trkpt lat="40.0713749" lon="-105.229789">
  <ele>1583.0</ele>
  <time>2026-08-28T17:48:41Z</time>
  <course>0.0</course>
  <speed>0.0</speed>
  <fix>3d</fix>
</trkpt>
<trkpt lat="40.0713749" lon="-105.229789">
  <ele>1583.0</ele>
  <time>2026-08-28T17:48:41Z</time>
  <course>247.71</course>
  <speed>0.0316227766016838</speed>
  <fix>3d</fix>
</trkpt>
<trkpt lat="40.0713749" lon="-105.229789">
  <ele>1583.0</ele>
  <time>2026-08-28T17:48:41Z</time>
  <course>0.0</course>
  <speed>0.0</speed>
  <fix>3d</fix>
</trkpt>
<trkpt lat="40.0713749" lon="-105.229789">
  <ele>1583.0</ele>
  <time>2026-08-28T17:48:41Z</time>
  <course>247.71</course>
  <speed>0.0316227766016838</speed>
  <fix>3d</fix>
</trkpt>
<trkpt lat="40.0713749" lon="-105.229789">
  <ele>1583.0</ele>
  <time>2026-08-28T17:48:41Z</time>
  <course>0.0</course>
  <speed>0.0</speed>
  <fix>3d</fix>
</trkpt>
<trkpt lat="40.0713749" lon="-105.229789">
  <ele>1583.0</ele>
  <time>2026-08-28T17:48:41Z</time>
  <course>247.71</course>
  <speed>0.0316227766016838</speed>
  <fix>3d</fix>
</trkpt>
<trkpt lat="40.0713749" lon="-105.229789">
  <ele>1583.0</ele>
  <time>2026-08-28T17:48:41Z</time>
  <course>0.0</course>
  <speed>0.0</speed>
  <fix>3d</fix>
</trkpt>
<trkpt lat="40.0713749" lon="-105.229789">
  <ele>1583.0</ele>
  <time>2026-08-28T17:48:41Z</time>
  <course>247.7</course>
  <speed>0.0316227766016838</speed>
  <fix>3d</fix>
</trkpt>
<trkpt lat="40.0713749" lon="-105.229789">
  <ele>1583.0</ele>
  <time>2026-08-28T17:48:41Z</time>
  <course>0.0</course>
  <speed>0.0</speed>
  <fix>3d</fix>
</trkpt>
<trkpt lat="40.0713749" lon="-105.229789">
  <ele>1583.0</ele>
  <time>2026-08-28T17:48:41Z</time>
  <course>247.7</course>
  <speed>0.0316227766016838</speed>
  <fix>3d</fix>
</trkpt>
<trkpt lat="40.0713749" lon="-105.229789">
  <ele>1583.0</ele>
  <time>2026-08-28T17:48:41Z</time>
  <course>0.0</course>
  <speed>0.0</speed>
  <fix>3d</fix>
</trkpt>
<trkpt lat="40.0713749" lon="-105.229789">
  <ele>1583.0</ele>
  <time>2026-08-28T17:48:41Z</time>
  <course>247.7</course>
  <speed>0.0316227766016838</speed>
  <fix>3d</fix>
</trkpt>
<trkpt lat="40.0713749" lon="-105.229789">
  <ele>1583.0</ele>
  <time>2026-08-28T17:48:41Z</time>
  <course>0.0</course>
  <speed>0.0</speed>
  <fix>3d</fix>
</trkpt>
<trkpt lat="40.0713749" lon="-105.229789">
  <ele>1583.0</ele>
  <time>2026-08-28T17:48:41Z</time>
  <course>247.69</course>
  <speed>0.0316227766016838</speed>
  <fix>3d</fix>
</trkpt>
<trkpt lat="40.0713749" lon="-105.229789">
  <ele>1583.0</ele>
  <time>2026-08-28T17:48:41Z</time>
  <course>0.0</course>
  <speed>0.0</speed>
  <fix>3d</fix>
</trkpt>
<trkpt lat="40.0713749" lon="-105.229789">
  <ele>1583.0</ele>
  <time>2026-08-28T17:48:41Z</time>
  <course>247.69</course>
  <speed>0.0316227766016838</speed>
  <fix>3d</fix>
</trkpt>
<trkpt lat="40.0713749" lon="-105.229789">
  <ele>1583.0</ele>
  <time>2026-08-28T17:48:41Z</time>
  <course>0.0</course>
  <speed>0.0</speed>
  <fix>3d</fix>
</trkpt>
<trkpt lat="40.0713749" lon="-105.229789">
  <ele>1583.0</ele>
  <time>2026-08-28T17:48:41Z</time>
  <course>247.69</course>
  <speed>0.0316227766016838</speed>
  <fix>3d</fix>
</trkpt>
<trkpt lat="40.0713749" lon="-105.229789">
  <ele>1583.0</ele>
  <time>2026-08-28T17:48:41Z</time>
  <course>0.0</course>
  <speed>0.0</speed>
  <fix>3d</fix>
</trkpt>
<trkpt lat="40.0713749" lon="-105.229789">
  <ele>1583.0</ele>
  <time>2026-08-28T17:48:41Z</time>
  <course>247.68</course>
  <speed>0.0316227766016838</speed>
  <fix>3d</fix>
</trkpt>
<trkpt lat="40.0713749" lon="-105.229789">
  <ele>1583.0</ele>
  <time>2026-08-28T17:48:41Z</time>
  <course>0.0</course>
  <speed>0.0</speed>
  <fix>3d</fix>
</trkpt>
<trkpt lat="40.0713749" lon="-105.229789">
  <ele>1583.0</ele>
  <time>2026-08-28T17:48:41Z</time>
  <course>247.68</course>
  <speed>0.0316227766016838</speed>
  <fix>3d</fix>
</trkpt>
<trkpt lat="40.0713749" lon="-105.229789">
  <ele>1583.0</ele>
  <time>2026-08-28T17:48:41Z</time>
  <course>0.0</course>
  <speed>0.0</speed>
  <fix>3d</fix>
</trkpt>
<trkpt lat="40.0713749" lon="-105.229789">
  <ele>1583.0</ele>
  <time>2026-08-28T17:48:41Z</time>
  <course>247.68</course>
  <speed>0.0316227766016838</speed>
  <fix>3d</fix>
</trkpt>
<trkpt lat="40.0713749" lon="-105.229789">
  <ele>1583.0</ele>
  <time>2026-08-28T17:48:41Z</time>
  <course>0.0</course>
  <speed>0.0</speed>
  <fix>3d</fix>
</trkpt>
<trkpt lat="40.0713749" lon="-105.229789">
  <ele>1583.0</ele>
  <time>2026-08-28T17:48:41Z</time>
  <course>247.67</course>
  <speed>0.0316227766016838</speed>
  <fix>3d</fix>
</trkpt>
<trkpt lat="40.0713749" lon="-105.229789">
  <ele>1583.0</ele>
  <time>2026-08-28T17:48:41Z</time>
  <course>0.0</course>
  <speed>0.0</speed>
  <fix>3d</fix>
</trkpt>
<trkpt lat="40.0713749" lon="-105.229789">
  <ele>1583.0</ele>
  <time>2026-08-28T17:48:41Z</time>
  <course>247.67</course>
  <speed>0.0316227766016838</speed>
  <fix>3d</fix>
</trkpt>
<trkpt lat="40.0713749" lon="-105.229789">
  <ele>1583.0</ele>
  <time>2026-08-28T17:48:41Z</time>
  <course>0.0</course>
  <speed>0.0</speed>
  <fix>3d</fix>
</trkpt>
<trkpt lat="40.0713749" lon="-105.229789">
  <ele>1583.0</ele>
  <time>2026-08-28T17:48:41Z</time>
  <course>247.67</course>
  <speed>0.0316227766016838</speed>
  <fix>3d</fix>
</trkpt>
<trkpt lat="40.0713749" lon="-105.229789">
  <ele>1583.0</ele>
  <time>2026-08-28T17:48:41Z</time>
  <course>0.0</course>
  <speed>0.0</speed>
  <fix>3d</fix>
</trkpt>
<trkpt lat="40.0713749" lon="-105.229789">
  <ele>1583.0</ele>
  <time>2026-08-28T17:48:41Z</time>
  <course>247.66</course>
  <speed>0.0316227766016838</speed>
  <fix>3d</fix>
</trkpt>
<trkpt lat="40.0713749" lon="-105.229789">
  <ele>1583.0</ele>
  <time>2026-08-28T17:48:41Z</time>
  <course>0.0</course>
  <speed>0.0</speed>
  <fix>3d</fix>
</trkpt>
<trkpt lat="40.0713749" lon="-105.229789">
  <ele>1583.0</ele>
  <time>2026-08-28T17:48:41Z</time>
  <course>247.66</course>
  <speed>0.0316227766016838</speed>
  <fix>3d</fix>
</trkpt>
<trkpt lat="40.0713749" lon="-105.229789">
  <ele>1583.0</ele>
  <time>2026-08-28T17:48:41Z</time>
  <course>0.0</course>
  <speed>0.0</speed>
  <fix>3d</fix>
</trkpt>
<trkpt lat="40.0713749" lon="-105.229789">
  <ele>1583.0</ele>
  <time>2026-08-28T17:48:41Z</time>
  <course>247.66</course>
  <speed>0.0316227766016838</speed>
  <fix>3d</fix>
</trkpt>
<trkpt lat="40.0713749" lon="-105.229789">
  <ele>1583.0</ele>
  <time>2026-08-28T17:48:41Z</time>
  <course>0.0</course>
  <speed>0.0</speed>
  <fix>3d</fix>
</trkpt>
<trkpt lat="40.0713749" lon="-105.229789">
  <ele>1583.0</ele>
  <time>2026-08-28T17:48:41Z</time>
  <course>247.65</course>
  <speed>0.0316227766016838</speed>
  <fix>3d</fix>
</trkpt>
<trkpt lat="40.0713749" lon="-105.229789">
  <ele>1583.0</ele>
  <time>2026-08-28T17:48:41Z</time>
  <course>0.0</course>
  <speed>0.0</speed>
  <fix>3d</fix>
</trkpt>
<trkpt lat="40.0713749" lon="-105.229789">
  <ele>1583.0</ele>
  <time>2026-08-28T17:48:41Z</time>
  <course>247.65</course>
  <speed>0.0316227766016838</speed>
  <fix>3d</fix>
</trkpt>
<trkpt lat="40.0713749" lon="-105.229789">
  <ele>1583.0</ele>
  <time>2026-08-28T17:48:41Z</time>
  <course>0.0</course>
  <speed>0.0</speed>
  <fix>3d</fix>
</trkpt>
<trkpt lat="40.0713749" lon="-105.229789">
  <ele>1583.0</ele>
  <time>2026-08-28T17:48:41Z</time>
  <course>247.65</course>
  <speed>0.0316227766016838</speed>
  <fix>3d</fix>
</trkpt>
<trkpt lat="40.0713749" lon="-105.229789">
  <ele>1583.0</ele>
  <time>2026-08-28T17:48:41Z</time>
  <course>0.0</course>
  <speed>0.0</speed>
  <fix>3d</fix>
</trkpt>
<trkpt lat="40.0713749" lon="-105.229789">
  <ele>1583.0</ele>
  <time>2026-08-28T17:48:41Z</time>
  <course>247.64</course>
  <speed>0.0316227766016838</speed>
  <fix>3d</fix>
</trkpt>
<trkpt lat="40.0713749" lon="-105.229789">
  <ele>1583.0</ele>
  <time>2026-08-28T17:48:41Z</time>
  <course>0.0</course>
  <speed>0.0</speed>
  <fix>3d</fix>
</trkpt>
<trkpt lat="40.0713749" lon="-105.229789">
  <ele>1583.0</ele>
  <time>2026-08-28T17:48:41Z</time>
  <course>247.64</course>
  <speed>0.0316227766016838</speed>
  <fix>3d</fix>
</trkpt>
<trkpt lat="40.0713749" lon="-105.229789">
  <ele>1583.0</ele>
  <time>2026-08-28T17:48:41Z</time>
  <course>0.0</course>
  <speed>0.0</speed>
  <fix>3d</fix>
</trkpt>
<trkpt lat="40.0713749" lon="-105.229789">
  <ele>1583.0</ele>
  <time>2026-08-28T17:48:41Z</time>
  <course>247.64</course>
  <speed>0.0316227766016838</speed>
  <fix>3d</fix>
</trkpt>
<trkpt lat="40.0713749" lon="-105.229789">
  <ele>1583.0</ele>
  <time>2026-08-28T17:48:41Z</time>
  <course>0.0</course>
  <speed>0.0</speed>
  <fix>3d</fix>
</trkpt>
<trkpt lat="40.0713749" lon="-105.229789">
  <ele>1583.0</ele>
  <time>2026-08-28T17:48:41Z</time>
  <course>247.64</course>
  <speed>0.0316227766016838</speed>
  <fix>3d</fix>
</trkpt>
<trkpt lat="40.0713749" lon="-105.229789">
  <ele>1583.0</ele>
  <time>2026-08-28T17:48:41Z</time>
  <course>0.0</course>
  <speed>0.0</speed>
  <fix>3d</fix>
</trkpt>
<trkpt lat="40.0713749" lon="-105.229789">
  <ele>1583.0</ele>
  <time>2026-08-28T17:48:41Z</time>
  <course>247.63</course>
  <speed>0.0316227766016838</speed>
  <fix>3d</fix>
</trkpt>
<trkpt lat="40.0713749" lon="-105.229789">
  <ele>1583.0</ele>
  <time>2026-08-28T17:48:41Z</time>
  <course>0.0</course>
  <speed>0.0</speed>
  <fix>3d</fix>
</trkpt>
<trkpt lat="40.0713749" lon="-105.229789">
  <ele>1583.0</ele>
  <time>2026-08-28T17:48:41Z</time>
  <course>247.63</course>
  <speed>0.0316227766016838</speed>
  <fix>3d</fix>
</trkpt>
<trkpt lat="40.0713749" lon="-105.229789">
  <ele>1583.0</ele>
  <time>2026-08-28T17:48:41Z</time>
  <course>0.0</course>
  <speed>0.0</speed>
  <fix>3d</fix>
</trkpt>
<trkpt lat="40.0713749" lon="-105.229789">
  <ele>1583.0</ele>
  <time>2026-08-28T17:48:41Z</time>
  <course>247.63</course>
  <speed>0.0316227766016838</speed>
  <fix>3d</fix>
</trkpt>
<trkpt lat="40.0713749" lon="-105.229789">
  <ele>1583.0</ele>
  <time>2026-08-28T17:48:41Z</time>
  <course>0.0</course>
  <speed>0.0</speed>
  <fix>3d</fix>
</trkpt>
<trkpt lat="40.0713749" lon="-105.229789">
  <ele>1583.0</ele>
  <time>2026-08-28T17:48:41Z</time>
  <course>247.62</course>
  <speed>0.0316227766016838</speed>
  <fix>3d</fix>
</trkpt>
<trkpt lat="40.0713749" lon="-105.229789">
  <ele>1583.0</ele>
  <time>2026-08-28T17:48:41Z</time>
  <course>0.0</course>
  <speed>0.0</speed>
  <fix>3d</fix>
</trkpt>
<trkpt lat="40.0713749" lon="-105.229789">
  <ele>1583.0</ele>
  <time>2026-08-28T17:48:41Z</time>
  <course>247.62</course>
  <speed>0.0316227766016838</speed>
  <fix>3d</fix>
</trkpt>
<trkpt lat="40.0713749" lon="-105.229789">
  <ele>1583.0</ele>
  <time>2026-08-28T17:48:41Z</time>
  <course>0.0</course>
  <speed>0.0</speed>
  <fix>3d</fix>
</trkpt>
<trkpt lat="40.0713749" lon="-105.229789">
  <ele>1583.0</ele>
  <time>2026-08-28T17:48:41Z</time>
  <course>247.62</course>
  <speed>0.0316227766016838</speed>
  <fix>3d</fix>
</trkpt>
<trkpt lat="40.0713749" lon="-105.229789">
  <ele>1583.0</ele>
  <time>2026-08-28T17:48:41Z</time>
  <course>0.0</course>
  <speed>0.0</speed>
  <fix>3d</fix>
</trkpt>
<trkpt lat="40.0713749" lon="-105.229789">
  <ele>1583.0</ele>
  <time>2026-08-28T17:48:41Z</time>
  <course>247.62</course>
  <speed>0.0316227766016838</speed>
  <fix>3d</fix>
</trkpt>
<trkpt lat="40.0713749" lon="-105.229789">
  <ele>1583.0</ele>
  <time>2026-08-28T17:48:41Z</time>
  <course>0.0</course>
  <speed>0.0</speed>
  <fix>3d</fix>
</trkpt>
<trkpt lat="40.0713749" lon="-105.229789">
  <ele>1583.0</ele>
  <time>2026-08-28T17:48:41Z</time>
  <course>247.61</course>
  <speed>0.0316227766016838</speed>
  <fix>3d</fix>
</trkpt>
<trkpt lat="40.0713749" lon="-105.229789">
  <ele>1583.0</ele>
  <time>2026-08-28T17:48:41Z</time>
  <course>0.0</course>
  <speed>0.0</speed>
  <fix>3d</fix>
</trkpt>
<trkpt lat="40.0713749" lon="-105.229789">
  <ele>1583.0</ele>
  <time>2026-08-28T17:48:41Z</time>
  <course>247.61</course>
  <speed>0.0316227766016838</speed>
  <fix>3d</fix>
</trkpt>
<trkpt lat="40.0713749" lon="-105.229789">
  <ele>1583.0</ele>
  <time>2026-08-28T17:48:41Z</time>
  <course>0.0</course>
  <speed>0.0</speed>
  <fix>3d</fix>
</trkpt>
<trkpt lat="40.0713749" lon="-105.229789">
  <ele>1583.0</ele>
  <time>2026-08-28T17:48:41Z</time>
  <course>247.61</course>
  <speed>0.0316227766016838</speed>
  <fix>3d</fix>
</trkpt>
<trkpt lat="40.0713749" lon="-105.229789">
  <ele>1583.0</ele>
  <time>2026-08-28T17:48:41Z</time>
  <course>0.0</course>
  <speed>0.0</speed>
  <fix>3d</fix>
</trkpt>
<trkpt lat="40.0713749" lon="-105.229789">
  <ele>1583.0</ele>
  <time>2026-08-28T17:48:41Z</time>
  <course>247.6</course>
  <speed>0.0316227766016838</speed>
  <fix>3d</fix>
</trkpt>
<trkpt lat="40.0713749" lon="-105.229789">
  <ele>1583.0</ele>
  <time>2026-08-28T17:48:41Z</time>
  <course>0.0</course>
  <speed>0.0</speed>
  <fix>3d</fix>
</trkpt>
<trkpt lat="40.0713749" lon="-105.229789">
  <ele>1583.0</ele>
  <time>2026-08-28T17:48:41Z</time>
  <course>247.6</course>
  <speed>0.0316227766016838</speed>
  <fix>3d</fix>
</trkpt>
<trkpt lat="40.0713749" lon="-105.229789">
  <ele>1583.0</ele>
  <time>2026-08-28T17:48:41Z</time>
  <course>0.0</course>
  <speed>0.0</speed>
  <fix>3d</fix>
</trkpt>
<trkpt lat="40.0713749" lon="-105.229789">
  <ele>1583.0</ele>
  <time>2026-08-28T17:48:41Z</time>
  <course>247.6</course>
  <speed>0.0316227766016838</speed>
  <fix>3d</fix>
</trkpt>
<trkpt lat="40.0713749" lon="-105.229789">
  <ele>1583.0</ele>
  <time>2026-08-28T17:48:41Z</time>
  <course>0.0</course>
  <speed>0.0</speed>
  <fix>3d</fix>
</trkpt>
<trkpt lat="40.0713749" lon="-105.229789">
  <ele>1583.0</ele>
  <time>2026-08-28T17:48:41Z</time>
  <course>247.6</course>
  <speed>0.0316227766016838</speed>
  <fix>3d</fix>
</trkpt>
<trkpt lat="40.0713749" lon="-105.229789">
  <ele>1583.0</ele>
  <time>2026-08-28T17:48:41Z</time>
  <course>0.0</course>
  <speed>0.0</speed>
  <fix>3d</fix>
</trkpt>
<trkpt lat="40.0713749" lon="-105.229789">
  <ele>1583.0</ele>
  <time>2026-08-28T17:48:41Z</time>
  <course>247.59</course>
  <speed>0.0316227766016838</speed>
  <fix>3d</fix>
</trkpt>
<trkpt lat="40.0713749" lon="-105.229789">
  <ele>1583.0</ele>
  <time>2026-08-28T17:48:41Z</time>
  <course>0.0</course>
  <speed>0.0</speed>
  <fix>3d</fix>
</trkpt>
<trkpt lat="40.0713749" lon="-105.229789">
  <ele>1582.92</ele>
  <time>2026-08-28T17:48:41Z</time>
  <course>247.59</course>
  <speed>0.0</speed>
  <fix>3d</fix>
</trkpt>
<trkpt lat="40.0713749" lon="-105.229789">
  <ele>1583.0</ele>
  <time>2026-08-28T17:48:41Z</time>
  <course>0.0</course>
  <speed>0.0</speed>
  <fix>3d</fix>
</trkpt>
<trkpt lat="40.0713749" lon="-105.229789">
  <ele>1582.92</ele>
  <time>2026-08-28T17:48:41Z</time>
  <course>247.59</course>
  <speed>0.0</speed>
  <fix>3d</fix>
</trkpt>
<trkpt lat="40.0713749" lon="-105.229789">
  <ele>1583.0</ele>
  <time>2026-08-28T17:48:41Z</time>
  <course>0.0</course>
  <speed>0.0</speed>
  <fix>3d</fix>
</trkpt>
<trkpt lat="40.0713749" lon="-105.229789">
  <ele>1582.91</ele>
  <time>2026-08-28T17:48:41Z</time>
  <course>247.58</course>
  <speed>0.0</speed>
  <fix>3d</fix>
</trkpt>
<trkpt lat="40.0713749" lon="-105.229789">
  <ele>1583.0</ele>
  <time>2026-08-28T17:48:41Z</time>
  <course>0.0</course>
  <speed>0.0</speed>
  <fix>3d</fix>
</trkpt>
<trkpt lat="40.0713749" lon="-105.229789">
  <ele>1582.91</ele>
  <time>2026-08-28T17:48:41Z</time>
  <course>247.58</course>
  <speed>0.0</speed>
  <fix>3d</fix>
</trkpt>
<trkpt lat="40.0713749" lon="-105.229789">
  <ele>1583.0</ele>
  <time>2026-08-28T17:48:41Z</time>
  <course>0.0</course>
  <speed>0.0</speed>
  <fix>3d</fix>
</trkpt>
<trkpt lat="40.0713749" lon="-105.229789">
  <ele>1582.9</ele>
  <time>2026-08-28T17:48:41Z</time>
  <course>247.58</course>
  <speed>0.0</speed>
  <fix>3d</fix>
</trkpt>
<trkpt lat="40.0713749" lon="-105.229789">
  <ele>1583.0</ele>
  <time>2026-08-28T17:48:41Z</time>
  <course>0.0</course>
  <speed>0.0</speed>
  <fix>3d</fix>
</trkpt>
<trkpt lat="40.0713749" lon="-105.229789">
  <ele>1582.9</ele>
  <time>2026-08-28T17:48:41Z</time>
  <course>247.58</course>
  <speed>0.0</speed>
  <fix>3d</fix>
</trkpt>
<trkpt lat="40.0713749" lon="-105.229789">
  <ele>1583.0</ele>
  <time>2026-08-28T17:48:41Z</time>
  <course>0.0</course>
  <speed>0.0</speed>
  <fix>3d</fix>
</trkpt>
<trkpt lat="40.0713749" lon="-105.229789">
  <ele>1582.9</ele>
  <time>2026-08-28T17:48:41Z</time>
  <course>247.57</course>
  <speed>0.0</speed>
  <fix>3d</fix>
</trkpt>
<trkpt lat="40.0713749" lon="-105.229789">
  <ele>1583.0</ele>
  <time>2026-08-28T17:48:41Z</time>
  <course>0.0</course>
  <speed>0.0</speed>
  <fix>3d</fix>
</trkpt>
<trkpt lat="40.0713749" lon="-105.229789">
  <ele>1582.9</ele>
  <time>2026-08-28T17:48:41Z</time>
  <course>247.57</course>
  <speed>0.0</speed>
  <fix>3d</fix>
</trkpt>
<trkpt lat="40.0713749" lon="-105.229789">
  <ele>1583.0</ele>
  <time>2026-08-28T17:48:41Z</time>
  <course>0.0</course>
  <speed>0.0</speed>
  <fix>3d</fix>
</trkpt>
<trkpt lat="40.0713749" lon="-105.229789">
  <ele>1582.9</ele>
  <time>2026-08-28T17:48:41Z</time>
  <course>247.57</course>
  <speed>0.0</speed>
  <fix>3d</fix>
</trkpt>
<trkpt lat="40.0713749" lon="-105.229789">
  <ele>1583.0</ele>
  <time>2026-08-28T17:48:41Z</time>
  <course>0.0</course>
  <speed>0.0</speed>
  <fix>3d</fix>
</trkpt>
<trkpt lat="40.0713749" lon="-105.229789">
  <ele>1582.9</ele>
  <time>2026-08-28T17:48:41Z</time>
  <course>247.57</course>
  <speed>0.01</speed>
  <fix>3d</fix>
</trkpt>
<trkpt lat="40.0713749" lon="-105.229789">
  <ele>1583.0</ele>
  <time>2026-08-28T17:48:41Z</time>
  <course>0.0</course>
  <speed>0.0</speed>
  <fix>3d</fix>
</trkpt>
<trkpt lat="40.0713749" lon="-105.229789">
  <ele>1582.9</ele>
  <time>2026-08-28T17:48:41Z</time>
  <course>247.56</course>
  <speed>0.01</speed>
  <fix>3d</fix>
</trkpt>
<trkpt lat="40.0713749" lon="-105.229789">
  <ele>1583.0</ele>
  <time>2026-08-28T17:48:41Z</time>
  <course>0.0</course>
  <speed>0.0</speed>
  <fix>3d</fix>
</trkpt>
<trkpt lat="40.0713749" lon="-105.229789">
  <ele>1582.91</ele>
  <time>2026-08-28T17:48:41Z</time>
  <course>247.56</course>
  <speed>0.01</speed>
  <fix>3d</fix>
</trkpt>
<trkpt lat="40.0713749" lon="-105.229789">
  <ele>1583.0</ele>
  <time>2026-08-28T17:48:41Z</time>
  <course>0.0</course>
  <speed>0.0</speed>
  <fix>3d</fix>
</trkpt>
<trkpt lat="40.0713749" lon="-105.229789">
  <ele>1582.91</ele>
  <time>2026-08-28T17:48:41Z</time>
  <course>247.56</course>
  <speed>0.01</speed>
  <fix>3d</fix>
</trkpt>
<trkpt lat="40.0713749" lon="-105.229789">
  <ele>1583.0</ele>
  <time>2026-08-28T17:48:41Z</time>
  <course>0.0</course>
  <speed>0.0</speed>
  <fix>3d</fix>
</trkpt>
<trkpt lat="39.655741" lon="-104.1383097">
  <ele>1566.58</ele>
  <time>2026-08-28T17:48:45Z</time>
  <course>0.0</course>
  <speed>0.0</speed>
  <fix>3d</fix>
</trkpt>
<trkpt lat="40.0713749" lon="-105.229789">
  <ele>1583.0</ele>
  <time>2026-08-28T17:48:45Z</time>
  <course>238.36</course>
  <speed>0.0</speed>
  <fix>3d</fix>
</trkpt>
<trkpt lat="40.0713749" lon="-105.229789">
  <ele>1583.0</ele>
  <time>2026-08-28T17:48:45Z</time>
  <course>0.0</course>
  <speed>0.0</speed>
  <fix>3d</fix>
</trkpt>
<trkpt lat="40.0713749" lon="-105.229789">
  <ele>1583.0</ele>
  <time>2026-08-28T17:48:45Z</time>
  <course>238.36</course>
  <speed>0.0</speed>
  <fix>3d</fix>
</trkpt>
<trkpt lat="40.0713749" lon="-105.229789">
  <ele>1583.0</ele>
  <time>2026-08-28T17:48:45Z</time>
  <course>0.0</course>
  <speed>0.0</speed>
  <fix>3d</fix>
</trkpt>
<trkpt lat="40.0713749" lon="-105.229789">
  <ele>1583.0</ele>
  <time>2026-08-28T17:48:45Z</time>
  <course>238.47</course>
  <speed>0.0</speed>
  <fix>3d</fix>
</trkpt>
<trkpt lat="40.0713749" lon="-105.229789">
  <ele>1583.0</ele>
  <time>2026-08-28T17:48:45Z</time>
  <course>0.0</course>
  <speed>0.0</speed>
  <fix>3d</fix>
</trkpt>
<trkpt lat="40.0713749" lon="-105.229789">
  <ele>1583.0</ele>
  <time>2026-08-28T17:48:45Z</time>
  <course>238.69</course>
  <speed>0.0</speed>
  <fix>3d</fix>
</trkpt>
<trkpt lat="40.0713749" lon="-105.229789">
  <ele>1583.0</ele>
  <time>2026-08-28T17:48:45Z</time>
  <course>0.0</course>
  <speed>0.0</speed>
  <fix>3d</fix>
</trkpt>
<trkpt lat="40.0713749" lon="-105.229789">
  <ele>1583.0</ele>
  <time>2026-08-28T17:48:45Z</time>
  <course>238.98</course>
  <speed>0.0</speed>
  <fix>3d</fix>
</trkpt>
<trkpt lat="40.0713749" lon="-105.229789">
  <ele>1583.0</ele>
  <time>2026-08-28T17:48:45Z</time>
  <course>0.0</course>
  <speed>0.0</speed>
  <fix>3d</fix>
</trkpt>
<trkpt lat="40.0713749" lon="-105.229789">
  <ele>1583.0</ele>
  <time>2026-08-28T17:48:45Z</time>
  <course>239.32</course>
  <speed>0.0</speed>
  <fix>3d</fix>
</trkpt>
<trkpt lat="40.0713749" lon="-105.229789">
  <ele>1583.0</ele>
  <time>2026-08-28T17:48:45Z</time>
  <course>0.0</course>
  <speed>0.0</speed>
  <fix>3d</fix>
</trkpt>
<trkpt lat="40.0713749" lon="-105.229789">
  <ele>1583.0</ele>
  <time>2026-08-28T17:48:45Z</time>
  <course>239.67</course>
  <speed>0.0</speed>
  <fix>3d</fix>
</trkpt>
<trkpt lat="40.0713749" lon="-105.229789">
  <ele>1583.0</ele>
  <time>2026-08-28T17:48:45Z</time>
  <course>0.0</course>
  <speed>0.0</speed>
  <fix>3d</fix>
</trkpt>
<trkpt lat="40.0713749" lon="-105.229789">
  <ele>1583.0</ele>
  <time>2026-08-28T17:48:45Z</time>
  <course>240.02</course>
  <speed>0.0</speed>
  <fix>3d</fix>
</trkpt>
<trkpt lat="40.0713749" lon="-105.229789">
  <ele>1583.0</ele>
  <time>2026-08-28T17:48:45Z</time>
  <course>0.0</course>
  <speed>0.0</speed>
  <fix>3d</fix>
</trkpt>
<trkpt lat="40.0713749" lon="-105.229789">
  <ele>1583.0</ele>
  <time>2026-08-28T17:48:45Z</time>
  <course>240.35</course>
  <speed>0.0</speed>
  <fix>3d</fix>
</trkpt>
<trkpt lat="40.0713749" lon="-105.229789">
  <ele>1583.0</ele>
  <time>2026-08-28T17:48:45Z</time>
  <course>0.0</course>
  <speed>0.0</speed>
  <fix>3d</fix>
</trkpt>
<trkpt lat="40.0713749" lon="-105.229789">
  <ele>1583.0</ele>
  <time>2026-08-28T17:48:45Z</time>
  <course>240.61</course>
  <speed>0.0</speed>
  <fix>3d</fix>
</trkpt>
<trkpt lat="40.0713749" lon="-105.229789">
  <ele>1583.0</ele>
  <time>2026-08-28T17:48:45Z</time>
  <course>0.0</course>
  <speed>0.0</speed>
  <fix>3d</fix>
</trkpt>
<trkpt lat="40.0713749" lon="-105.229789">
  <ele>1583.0</ele>
  <time>2026-08-28T17:48:45Z</time>
  <course>240.92</course>
  <speed>0.0</speed>
  <fix>3d</fix>
</trkpt>
<trkpt lat="40.0713749" lon="-105.229789">
  <ele>1583.0</ele>
  <time>2026-08-28T17:48:45Z</time>
  <course>0.0</course>
  <speed>0.0</speed>
  <fix>3d</fix>
</trkpt>
<trkpt lat="40.0713749" lon="-105.229789">
  <ele>1583.0</ele>
  <time>2026-08-28T17:48:45Z</time>
  <course>241.21</course>
  <speed>0.0</speed>
  <fix>3d</fix>
</trkpt>
<trkpt lat="40.0713749" lon="-105.229789">
  <ele>1583.0</ele>
  <time>2026-08-28T17:48:45Z</time>
  <course>0.0</course>
  <speed>0.0</speed>
  <fix>3d</fix>
</trkpt>
<trkpt lat="40.0713749" lon="-105.229789">
  <ele>1583.0</ele>
  <time>2026-08-28T17:48:45Z</time>
  <course>241.49</course>
  <speed>0.0</speed>
  <fix>3d</fix>
</trkpt>
<trkpt lat="40.0713749" lon="-105.229789">
  <ele>1583.0</ele>
  <time>2026-08-28T17:48:45Z</time>
  <course>0.0</course>
  <speed>0.0</speed>
  <fix>3d</fix>
</trkpt>
<trkpt lat="40.0713749" lon="-105.229789">
  <ele>1583.0</ele>
  <time>2026-08-28T17:48:45Z</time>
  <course>241.77</course>
  <speed>0.0</speed>
  <fix>3d</fix>
</trkpt>
<trkpt lat="40.0713749" lon="-105.229789">
  <ele>1583.0</ele>
  <time>2026-08-28T17:48:45Z</time>
  <course>0.0</course>
  <speed>0.0</speed>
  <fix>3d</fix>
</trkpt>
<trkpt lat="40.0713749" lon="-105.229789">
  <ele>1583.0</ele>
  <time>2026-08-28T17:48:45Z</time>
  <course>242.03</course>
  <speed>0.0</speed>
  <fix>3d</fix>
</trkpt>
<trkpt lat="40.0713749" lon="-105.229789">
  <ele>1583.0</ele>
  <time>2026-08-28T17:48:45Z</time>
  <course>0.0</course>
  <speed>0.0</speed>
  <fix>3d</fix>
</trkpt>
<trkpt lat="40.0713749" lon="-105.229789">
  <ele>1583.0</ele>
  <time>2026-08-28T17:48:45Z</time>
  <course>242.29</course>
  <speed>0.0</speed>
  <fix>3d</fix>
</trkpt>
<trkpt lat="40.0713749" lon="-105.229789">
  <ele>1583.0</ele>
  <time>2026-08-28T17:48:45Z</time>
  <course>0.0</course>
  <speed>0.0</speed>
  <fix>3d</fix>
</trkpt>
<trkpt lat="40.0713749" lon="-105.229789">
  <ele>1583.0</ele>
  <time>2026-08-28T17:48:45Z</time>
  <course>242.54</course>
  <speed>0.0</speed>
  <fix>3d</fix>
</trkpt>
<trkpt lat="40.0713749" lon="-105.229789">
  <ele>1583.0</ele>
  <time>2026-08-28T17:48:45Z</time>
  <course>0.0</course>
  <speed>0.0</speed>
  <fix>3d</fix>
</trkpt>
<trkpt lat="40.0713749" lon="-105.229789">
  <ele>1583.0</ele>
  <time>2026-08-28T17:48:45Z</time>
  <course>242.79</course>
  <speed>0.0</speed>
  <fix>3d</fix>
</trkpt>
<trkpt lat="40.0713749" lon="-105.229789">
  <ele>1583.0</ele>
  <time>2026-08-28T17:48:45Z</time>
  <course>0.0</course>
  <speed>0.0</speed>
  <fix>3d</fix>
</trkpt>
<trkpt lat="40.0713749" lon="-105.229789">
  <ele>1583.0</ele>
  <time>2026-08-28T17:48:45Z</time>
  <course>243.02</course>
  <speed>0.0</speed>
  <fix>3d</fix>
</trkpt>
<trkpt lat="40.0713749" lon="-105.229789">
  <ele>1583.0</ele>
  <time>2026-08-28T17:48:45Z</time>
  <course>0.0</course>
  <speed>0.0</speed>
  <fix>3d</fix>
</trkpt>
<trkpt lat="40.0713749" lon="-105.229789">
  <ele>1583.0</ele>
  <time>2026-08-28T17:48:45Z</time>
  <course>243.29</course>
  <speed>0.0</speed>
  <fix>3d</fix>
</trkpt>
<trkpt lat="40.0713749" lon="-105.229789">
  <ele>1583.0</ele>
  <time>2026-08-28T17:48:45Z</time>
  <course>0.0</course>
  <speed>0.0</speed>
  <fix>3d</fix>
</trkpt>
<trkpt lat="40.0713749" lon="-105.229789">
  <ele>1583.0</ele>
  <time>2026-08-28T17:48:45Z</time>
  <course>243.51</course>
  <speed>0.0</speed>
  <fix>3d</fix>
</trkpt>
<trkpt lat="40.0713749" lon="-105.229789">
  <ele>1583.0</ele>
  <time>2026-08-28T17:48:45Z</time>
  <course>0.0</course>
  <speed>0.0</speed>
  <fix>3d</fix>
</trkpt>
<trkpt lat="40.0713749" lon="-105.229789">
  <ele>1583.0</ele>
  <time>2026-08-28T17:48:45Z</time>
  <course>243.72</course>
  <speed>0.0</speed>
  <fix>3d</fix>
</trkpt>
<trkpt lat="40.0713749" lon="-105.229789">
  <ele>1583.0</ele>
  <time>2026-08-28T17:48:45Z</time>
  <course>0.0</course>
  <speed>0.0</speed>
  <fix>3d</fix>
</trkpt>
<trkpt lat="40.0713749" lon="-105.229789">
  <ele>1583.0</ele>
  <time>2026-08-28T17:48:45Z</time>
  <course>243.93</course>
  <speed>0.0</speed>
  <fix>3d</fix>
</trkpt>
<trkpt lat="40.0713749" lon="-105.229789">
  <ele>1583.0</ele>
  <time>2026-08-28T17:48:45Z</time>
  <course>0.0</course>
  <speed>0.0</speed>
  <fix>3d</fix>
</trkpt>
<trkpt lat="40.0713749" lon="-105.229789">
  <ele>1583.0</ele>
  <time>2026-08-28T17:48:45Z</time>
  <course>244.12</course>
  <speed>0.0</speed>
  <fix>3d</fix>
</trkpt>
<trkpt lat="40.0713749" lon="-105.229789">
  <ele>1583.0</ele>
  <time>2026-08-28T17:48:45Z</time>
  <course>0.0</course>
  <speed>0.0</speed>
  <fix>3d</fix>
</trkpt>
<trkpt lat="40.0713749" lon="-105.229789">
  <ele>1583.0</ele>
  <time>2026-08-28T17:48:45Z</time>
  <course>244.31</course>
  <speed>0.0</speed>
  <fix>3d</fix>
</trkpt>
<trkpt lat="40.0713749" lon="-105.229789">
  <ele>1583.0</ele>
  <time>2026-08-28T17:48:45Z</time>
  <course>0.0</course>
  <speed>0.0</speed>
  <fix>3d</fix>
</trkpt>
<trkpt lat="40.0713749" lon="-105.229789">
  <ele>1583.0</ele>
  <time>2026-08-28T17:48:45Z</time>
  <course>244.5</course>
  <speed>0.0</speed>
  <fix>3d</fix>
</trkpt>
<trkpt lat="40.0713749" lon="-105.229789">
  <ele>1583.0</ele>
  <time>2026-08-28T17:48:45Z</time>
  <course>0.0</course>
  <speed>0.0</speed>
  <fix>3d</fix>
</trkpt>
<trkpt lat="40.0713749" lon="-105.229789">
  <ele>1583.0</ele>
  <time>2026-08-28T17:48:45Z</time>
  <course>244.67</course>
  <speed>0.0</speed>
  <fix>3d</fix>
</trkpt>
<trkpt lat="40.0713749" lon="-105.229789">
  <ele>1583.0</ele>
  <time>2026-08-28T17:48:45Z</time>
  <course>0.0</course>
  <speed>0.0</speed>
  <fix>3d</fix>
</trkpt>
<trkpt lat="40.0713749" lon="-105.229789">
  <ele>1583.0</ele>
  <time>2026-08-28T17:48:45Z</time>
  <course>244.84</course>
  <speed>0.0</speed>
  <fix>3d</fix>
</trkpt>
<trkpt lat="40.0713749" lon="-105.229789">
  <ele>1583.0</ele>
  <time>2026-08-28T17:48:45Z</time>
  <course>0.0</course>
  <speed>0.0</speed>
  <fix>3d</fix>
</trkpt>
<trkpt lat="40.0713749" lon="-105.229789">
  <ele>1583.0</ele>
  <time>2026-08-28T17:48:45Z</time>
  <course>245.01</course>
  <speed>0.0</speed>
  <fix>3d</fix>
</trkpt>
<trkpt lat="40.0713749" lon="-105.229789">
  <ele>1583.0</ele>
  <time>2026-08-28T17:48:45Z</time>
  <course>0.0</course>
  <speed>0.0</speed>
  <fix>3d</fix>
</trkpt>
<trkpt lat="40.0713749" lon="-105.229789">
  <ele>1583.0</ele>
  <time>2026-08-28T17:48:45Z</time>
  <course>245.16</course>
  <speed>0.0</speed>
  <fix>3d</fix>
</trkpt>
<trkpt lat="40.0713749" lon="-105.229789">
  <ele>1583.0</ele>
  <time>2026-08-28T17:48:45Z</time>
  <course>0.0</course>
  <speed>0.0</speed>
  <fix>3d</fix>
</trkpt>
<trkpt lat="40.0713749" lon="-105.229789">
  <ele>1583.0</ele>
  <time>2026-08-28T17:48:45Z</time>
  <course>245.29</course>
  <speed>0.0</speed>
  <fix>3d</fix>
</trkpt>
<trkpt lat="40.0713749" lon="-105.229789">
  <ele>1583.0</ele>
  <time>2026-08-28T17:48:45Z</time>
  <course>0.0</course>
  <speed>0.0</speed>
  <fix>3d</fix>
</trkpt>
<trkpt lat="40.0713749" lon="-105.229789">
  <ele>1583.0</ele>
  <time>2026-08-28T17:48:45Z</time>
  <course>245.43</course>
  <speed>0.0</speed>
  <fix>3d</fix>
</trkpt>
<trkpt lat="40.0713749" lon="-105.229789">
  <ele>1583.0</ele>
  <time>2026-08-28T17:48:45Z</time>
  <course>0.0</course>
  <speed>0.0</speed>
  <fix>3d</fix>
</trkpt>
<trkpt lat="40.0713749" lon="-105.229789">
  <ele>1583.0</ele>
  <time>2026-08-28T17:48:45Z</time>
  <course>245.57</course>
  <speed>0.0</speed>
  <fix>3d</fix>
</trkpt>
<trkpt lat="40.0713749" lon="-105.229789">
  <ele>1583.0</ele>
  <time>2026-08-28T17:48:45Z</time>
  <course>0.0</course>
  <speed>0.0</speed>
  <fix>3d</fix>
</trkpt>
<trkpt lat="40.0713749" lon="-105.229789">
  <ele>1583.0</ele>
  <time>2026-08-28T17:48:45Z</time>
  <course>245.71</course>
  <speed>0.0</speed>
  <fix>3d</fix>
</trkpt>
<trkpt lat="40.0713749" lon="-105.229789">
  <ele>1583.0</ele>
  <time>2026-08-28T17:48:45Z</time>
  <course>0.0</course>
  <speed>0.0</speed>
  <fix>3d</fix>
</trkpt>
<trkpt lat="40.0713749" lon="-105.229789">
  <ele>1583.0</ele>
  <time>2026-08-28T17:48:45Z</time>
  <course>245.84</course>
  <speed>0.0</speed>
  <fix>3d</fix>
</trkpt>
<trkpt lat="40.0713749" lon="-105.229789">
  <ele>1583.0</ele>
  <time>2026-08-28T17:48:45Z</time>
  <course>0.0</course>
  <speed>0.0</speed>
  <fix>3d</fix>
</trkpt>
<trkpt lat="40.0713749" lon="-105.229789">
  <ele>1583.0</ele>
  <time>2026-08-28T17:48:45Z</time>
  <course>245.96</course>
  <speed>0.0</speed>
  <fix>3d</fix>
</trkpt>
<trkpt lat="40.0713749" lon="-105.229789">
  <ele>1583.0</ele>
  <time>2026-08-28T17:48:45Z</time>
  <course>0.0</course>
  <speed>0.0</speed>
  <fix>3d</fix>
</trkpt>
<trkpt lat="40.0713749" lon="-105.229789">
  <ele>1583.0</ele>
  <time>2026-08-28T17:48:45Z</time>
  <course>246.08</course>
  <speed>0.0</speed>
  <fix>3d</fix>
</trkpt>
<trkpt lat="40.0713749" lon="-105.229789">
  <ele>1583.0</ele>
  <time>2026-08-28T17:48:45Z</time>
  <course>0.0</course>
  <speed>0.0</speed>
  <fix>3d</fix>
</trkpt>
<trkpt lat="40.0713749" lon="-105.229789">
  <ele>1583.0</ele>
  <time>2026-08-28T17:48:45Z</time>
  <course>246.19</course>
  <speed>0.0</speed>
  <fix>3d</fix>
</trkpt>
<trkpt lat="40.0713749" lon="-105.229789">
  <ele>1583.0</ele>
  <time>2026-08-28T17:48:45Z</time>
  <course>0.0</course>
  <speed>0.0</speed>
  <fix>3d</fix>
</trkpt>
<trkpt lat="40.0713749" lon="-105.229789">
  <ele>1583.0</ele>
  <time>2026-08-28T17:48:45Z</time>
  <course>246.3</course>
  <speed>0.0</speed>
  <fix>3d</fix>
</trkpt>
<trkpt lat="40.0713749" lon="-105.229789">
  <ele>1583.0</ele>
  <time>2026-08-28T17:48:45Z</time>
  <course>0.0</course>
  <speed>0.0</speed>
  <fix>3d</fix>
</trkpt>
<trkpt lat="40.0713749" lon="-105.229789">
  <ele>1583.0</ele>
  <time>2026-08-28T17:48:45Z</time>
  <course>246.41</course>
  <speed>0.0</speed>
  <fix>3d</fix>
</trkpt>
<trkpt lat="40.0713749" lon="-105.229789">
  <ele>1583.0</ele>
  <time>2026-08-28T17:48:45Z</time>
  <course>0.0</course>
  <speed>0.0</speed>
  <fix>3d</fix>
</trkpt>
<trkpt lat="40.0713749" lon="-105.229789">
  <ele>1583.0</ele>
  <time>2026-08-28T17:48:45Z</time>
  <course>246.53</course>
  <speed>0.0</speed>
  <fix>3d</fix>
</trkpt>
<trkpt lat="40.0713749" lon="-105.229789">
  <ele>1583.0</ele>
  <time>2026-08-28T17:48:45Z</time>
  <course>0.0</course>
  <speed>0.0</speed>
  <fix>3d</fix>
</trkpt>
<trkpt lat="40.0713749" lon="-105.229789">
  <ele>1583.0</ele>
  <time>2026-08-28T17:48:45Z</time>
  <course>246.62</course>
  <speed>0.0</speed>
  <fix>3d</fix>
</trkpt>
<trkpt lat="40.0713749" lon="-105.229789">
  <ele>1583.0</ele>
  <time>2026-08-28T17:48:45Z</time>
  <course>0.0</course>
  <speed>0.0</speed>
  <fix>3d</fix>
</trkpt>
<trkpt lat="40.0713749" lon="-105.229789">
  <ele>1583.0</ele>
  <time>2026-08-28T17:48:45Z</time>
  <course>246.71</course>
  <speed>0.0</speed>
  <fix>3d</fix>
</trkpt>
<trkpt lat="40.0713749" lon="-105.229789">
  <ele>1583.0</ele>
  <time>2026-08-28T17:48:45Z</time>
  <course>0.0</course>
  <speed>0.0</speed>
  <fix>3d</fix>
</trkpt>
<trkpt lat="40.0713749" lon="-105.229789">
  <ele>1583.0</ele>
  <time>2026-08-28T17:48:45Z</time>
  <course>246.8</course>
  <speed>0.0</speed>
  <fix>3d</fix>
</trkpt>
<trkpt lat="40.0713749" lon="-105.229789">
  <ele>1583.0</ele>
  <time>2026-08-28T17:48:45Z</time>
  <course>0.0</course>
  <speed>0.0</speed>
  <fix>3d</fix>
</trkpt>
<trkpt lat="40.0713749" lon="-105.229789">
  <ele>1583.0</ele>
  <time>2026-08-28T17:48:45Z</time>
  <course>246.88</course>
  <speed>0.0</speed>
  <fix>3d</fix>
</trkpt>
<trkpt lat="40.0713749" lon="-105.229789">
  <ele>1583.0</ele>
  <time>2026-08-28T17:48:45Z</time>
  <course>0.0</course>
  <speed>0.0</speed>
  <fix>3d</fix>
</trkpt>
<trkpt lat="40.0713749" lon="-105.229789">
  <ele>1583.0</ele>
  <time>2026-08-28T17:48:45Z</time>
  <course>246.96</course>
  <speed>0.0</speed>
  <fix>3d</fix>
</trkpt>
<trkpt lat="40.0713749" lon="-105.229789">
  <ele>1583.0</ele>
  <time>2026-08-28T17:48:45Z</time>
  <course>0.0</course>
  <speed>0.0</speed>
  <fix>3d</fix>
</trkpt>
<trkpt lat="40.0713749" lon="-105.229789">
  <ele>1583.0</ele>
  <time>2026-08-28T17:48:45Z</time>
  <course>247.04</course>
  <speed>0.0</speed>
  <fix>3d</fix>
</trkpt>
<trkpt lat="40.0713749" lon="-105.229789">
  <ele>1583.0</ele>
  <time>2026-08-28T17:48:45Z</time>
  <course>0.0</course>
  <speed>0.0</speed>
  <fix>3d</fix>
</trkpt>
<trkpt lat="40.0713749" lon="-105.229789">
  <ele>1583.0</ele>
  <time>2026-08-28T17:48:45Z</time>
  <course>247.11</course>
  <speed>0.0</speed>
  <fix>3d</fix>
</trkpt>
<trkpt lat="40.0713749" lon="-105.229789">
  <ele>1583.0</ele>
  <time>2026-08-28T17:48:45Z</time>
  <course>0.0</course>
  <speed>0.0</speed>
  <fix>3d</fix>
</trkpt>
<trkpt lat="40.0713749" lon="-105.229789">
  <ele>1583.0</ele>
  <time>2026-08-28T17:48:45Z</time>
  <course>247.18</course>
  <speed>0.0</speed>
  <fix>3d</fix>
</trkpt>
<trkpt lat="40.0713749" lon="-105.229789">
  <ele>1583.0</ele>
  <time>2026-08-28T17:48:45Z</time>
  <course>0.0</course>
  <speed>0.0</speed>
  <fix>3d</fix>
</trkpt>
<trkpt lat="40.0713749" lon="-105.229789">
  <ele>1583.0</ele>
  <time>2026-08-28T17:48:45Z</time>
  <course>247.25</course>
  <speed>0.0</speed>
  <fix>3d</fix>
</trkpt>
<trkpt lat="40.0713749" lon="-105.229789">
  <ele>1583.0</ele>
  <time>2026-08-28T17:48:45Z</time>
  <course>0.0</course>
  <speed>0.0</speed>
  <fix>3d</fix>
</trkpt>
<trkpt lat="40.0713749" lon="-105.229789">
  <ele>1583.0</ele>
  <time>2026-08-28T17:48:45Z</time>
  <course>247.31</course>
  <speed>0.0</speed>
  <fix>3d</fix>
</trkpt>
<trkpt lat="40.0713749" lon="-105.229789">
  <ele>1583.0</ele>
  <time>2026-08-28T17:48:45Z</time>
  <course>0.0</course>
  <speed>0.0</speed>
  <fix>3d</fix>
</trkpt>
<trkpt lat="40.0713749" lon="-105.229789">
  <ele>1583.0</ele>
  <time>2026-08-28T17:48:45Z</time>
  <course>247.36</course>
  <speed>0.0</speed>
  <fix>3d</fix>
</trkpt>
<trkpt lat="40.0713749" lon="-105.229789">
  <ele>1583.0</ele>
  <time>2026-08-28T17:48:45Z</time>
  <course>0.0</course>
  <speed>0.0</speed>
  <fix>3d</fix>
</trkpt>
<trkpt lat="40.0713749" lon="-105.229789">
  <ele>1583.0</ele>
  <time>2026-08-28T17:48:45Z</time>
  <course>247.42</course>
  <speed>0.0</speed>
  <fix>3d</fix>
</trkpt>
<trkpt lat="40.0713749" lon="-105.229789">
  <ele>1583.0</ele>
  <time>2026-08-28T17:48:45Z</time>
  <course>0.0</course>
  <speed>0.0</speed>
  <fix>3d</fix>
</trkpt>
<trkpt lat="40.0713749" lon="-105.229789">
  <ele>1583.0</ele>
  <time>2026-08-28T17:48:45Z</time>
  <course>247.47</course>
  <speed>0.0</speed>
  <fix>3d</fix>
</trkpt>
<trkpt lat="40.0713749" lon="-105.229789">
  <ele>1583.0</ele>
  <time>2026-08-28T17:48:45Z</time>
  <course>0.0</course>
  <speed>0.0</speed>
  <fix>3d</fix>
</trkpt>
<trkpt lat="40.0713749" lon="-105.229789">
  <ele>1583.0</ele>
  <time>2026-08-28T17:48:45Z</time>
  <course>247.53</course>
  <speed>0.0</speed>
  <fix>3d</fix>
</trkpt>
<trkpt lat="40.0713749" lon="-105.229789">
  <ele>1583.0</ele>
  <time>2026-08-28T17:48:45Z</time>
  <course>0.0</course>
  <speed>0.0</speed>
  <fix>3d</fix>
</trkpt>
<trkpt lat="40.0713749" lon="-105.229789">
  <ele>1583.0</ele>
  <time>2026-08-28T17:48:45Z</time>
  <course>247.58</course>
  <speed>0.0</speed>
  <fix>3d</fix>
</trkpt>
<trkpt lat="40.0713749" lon="-105.229789">
  <ele>1583.0</ele>
  <time>2026-08-28T17:48:45Z</time>
  <course>0.0</course>
  <speed>0.0</speed>
  <fix>3d</fix>
</trkpt>
<trkpt lat="40.0713749" lon="-105.229789">
  <ele>1583.0</ele>
  <time>2026-08-28T17:48:45Z</time>
  <course>247.63</course>
  <speed>0.0</speed>
  <fix>3d</fix>
</trkpt>
<trkpt lat="40.0713749" lon="-105.229789">
  <ele>1583.0</ele>
  <time>2026-08-28T17:48:45Z</time>
  <course>0.0</course>
  <speed>0.0</speed>
  <fix>3d</fix>
</trkpt>
<trkpt lat="40.0713749" lon="-105.229789">
  <ele>1583.0</ele>
  <time>2026-08-28T17:48:45Z</time>
  <course>247.67</course>
  <speed>0.0</speed>
  <fix>3d</fix>
</trkpt>
<trkpt lat="40.0713749" lon="-105.229789">
  <ele>1583.0</ele>
  <time>2026-08-28T17:48:45Z</time>
  <course>0.0</course>
  <speed>0.0</speed>
  <fix>3d</fix>
</trkpt>
<trkpt lat="40.0713749" lon="-105.229789">
  <ele>1583.0</ele>
  <time>2026-08-28T17:48:45Z</time>
  <course>247.72</course>
  <speed>0.0</speed>
  <fix>3d</fix>
</trkpt>
<trkpt lat="40.0713749" lon="-105.229789">
  <ele>1583.0</ele>
  <time>2026-08-28T17:48:45Z</time>
  <course>0.0</course>
  <speed>0.0</speed>
  <fix>3d</fix>
</trkpt>
<trkpt lat="40.0713749" lon="-105.229789">
  <ele>1583.0</ele>
  <time>2026-08-28T17:48:45Z</time>
  <course>247.76</course>
  <speed>0.0</speed>
  <fix>3d</fix>
</trkpt>
<trkpt lat="40.0713749" lon="-105.229789">
  <ele>1583.0</ele>
  <time>2026-08-28T17:48:45Z</time>
  <course>0.0</course>
  <speed>0.0</speed>
  <fix>3d</fix>
</trkpt>
<trkpt lat="40.0713749" lon="-105.229789">
  <ele>1583.0</ele>
  <time>2026-08-28T17:48:45Z</time>
  <course>247.81</course>
  <speed>0.0</speed>
  <fix>3d</fix>
</trkpt>
<trkpt lat="40.0713749" lon="-105.229789">
  <ele>1583.0</ele>
  <time>2026-08-28T17:48:45Z</time>
  <course>0.0</course>
  <speed>0.0</speed>
  <fix>3d</fix>
</trkpt>
<trkpt lat="40.0713749" lon="-105.229789">
  <ele>1583.0</ele>
  <time>2026-08-28T17:48:45Z</time>
  <course>247.84</course>
  <speed>0.0</speed>
  <fix>3d</fix>
</trkpt>
<trkpt lat="40.0713749" lon="-105.229789">
  <ele>1583.0</ele>
  <time>2026-08-28T17:48:45Z</time>
  <course>0.0</course>
  <speed>0.0</speed>
  <fix>3d</fix>
</trkpt>
<trkpt lat="40.0713749" lon="-105.229789">
  <ele>1583.0</ele>
  <time>2026-08-28T17:48:45Z</time>
  <course>247.88</course>
  <speed>0.0</speed>
  <fix>3d</fix>
</trkpt>
<trkpt lat="40.0713749" lon="-105.229789">
  <ele>1583.0</ele>
  <time>2026-08-28T17:48:45Z</time>
  <course>0.0</course>
  <speed>0.0</speed>
  <fix>3d</fix>
</trkpt>
<trkpt lat="40.0713749" lon="-105.229789">
  <ele>1583.0</ele>
  <time>2026-08-28T17:48:45Z</time>
  <course>247.91</course>
  <speed>0.0</speed>
  <fix>3d</fix>
</trkpt>
<trkpt lat="40.0713749" lon="-105.229789">
  <ele>1583.0</ele>
  <time>2026-08-28T17:48:45Z</time>
  <course>0.0</course>
  <speed>0.0</speed>
  <fix>3d</fix>
</trkpt>
<trkpt lat="40.0713749" lon="-105.229789">
  <ele>1583.0</ele>
  <time>2026-08-28T17:48:45Z</time>
  <course>247.94</course>
  <speed>0.0</speed>
  <fix>3d</fix>
</trkpt>
<trkpt lat="40.0713749" lon="-105.229789">
  <ele>1583.0</ele>
  <time>2026-08-28T17:48:45Z</time>
  <course>0.0</course>
  <speed>0.0</speed>
  <fix>3d</fix>
</trkpt>
<trkpt lat="40.0713749" lon="-105.229789">
  <ele>1583.0</ele>
  <time>2026-08-28T17:48:45Z</time>
  <course>247.97</course>
  <speed>0.0</speed>
  <fix>3d</fix>
</trkpt>
<trkpt lat="40.0713749" lon="-105.229789">
  <ele>1583.0</ele>
  <time>2026-08-28T17:48:45Z</time>
  <course>0.0</course>
  <speed>0.0</speed>
  <fix>3d</fix>
</trkpt>
<trkpt lat="40.0713749" lon="-105.229789">
  <ele>1583.0</ele>
  <time>2026-08-28T17:48:45Z</time>
  <course>248.0</course>
  <speed>0.0</speed>
  <fix>3d</fix>
</trkpt>
<trkpt lat="40.0713749" lon="-105.229789">
  <ele>1583.0</ele>
  <time>2026-08-28T17:48:45Z</time>
  <course>0.0</course>
  <speed>0.0</speed>
  <fix>3d</fix>
</trkpt>
<trkpt lat="40.0713749" lon="-105.229789">
  <ele>1583.0</ele>
  <time>2026-08-28T17:48:45Z</time>
  <course>248.03</course>
  <speed>0.0</speed>
  <fix>3d</fix>
</trkpt>
<trkpt lat="40.0713749" lon="-105.229789">
  <ele>1583.0</ele>
  <time>2026-08-28T17:48:45Z</time>
  <course>0.0</course>
  <speed>0.0</speed>
  <fix>3d</fix>
</trkpt>
<trkpt lat="40.0713749" lon="-105.229789">
  <ele>1583.0</ele>
  <time>2026-08-28T17:48:45Z</time>
  <course>248.06</course>
  <speed>0.0</speed>
  <fix>3d</fix>
</trkpt>
<trkpt lat="40.0713749" lon="-105.229789">
  <ele>1583.0</ele>
  <time>2026-08-28T17:48:45Z</time>
  <course>0.0</course>
  <speed>0.0</speed>
  <fix>3d</fix>
</trkpt>
<trkpt lat="40.0713749" lon="-105.229789">
  <ele>1583.0</ele>
  <time>2026-08-28T17:48:45Z</time>
  <course>248.08</course>
  <speed>0.0</speed>
  <fix>3d</fix>
</trkpt>
<trkpt lat="40.0713749" lon="-105.229789">
  <ele>1583.0</ele>
  <time>2026-08-28T17:48:45Z</time>
  <course>0.0</course>
  <speed>0.0</speed>
  <fix>3d</fix>
</trkpt>
<trkpt lat="40.0713749" lon="-105.229789">
  <ele>1583.0</ele>
  <time>2026-08-28T17:48:45Z</time>
  <course>248.11</course>
  <speed>0.0</speed>
  <fix>3d</fix>
</trkpt>
<trkpt lat="40.0713749" lon="-105.229789">
  <ele>1583.0</ele>
  <time>2026-08-28T17:48:45Z</time>
  <course>0.0</course>
  <speed>0.0</speed>
  <fix>3d</fix>
</trkpt>
<trkpt lat="40.0713749" lon="-105.229789">
  <ele>1583.0</ele>
  <time>2026-08-28T17:48:45Z</time>
  <course>248.12</course>
  <speed>0.0</speed>
  <fix>3d</fix>
</trkpt>
<trkpt lat="40.0713749" lon="-105.229789">
  <ele>1583.0</ele>
  <time>2026-08-28T17:48:45Z</time>
  <course>0.0</course>
  <speed>0.0</speed>
  <fix>3d</fix>
</trkpt>
<trkpt lat="40.0713749" lon="-105.229789">
  <ele>1583.0</ele>
  <time>2026-08-28T17:48:45Z</time>
  <course>248.14</course>
  <speed>0.0</speed>
  <fix>3d</fix>
</trkpt>
<trkpt lat="40.0713749" lon="-105.229789">
  <ele>1583.0</ele>
  <time>2026-08-28T17:48:45Z</time>
  <course>0.0</course>
  <speed>0.0</speed>
  <fix>3d</fix>
</trkpt>
<trkpt lat="40.0713749" lon="-105.229789">
  <ele>1583.0</ele>
  <time>2026-08-28T17:48:45Z</time>
  <course>248.16</course>
  <speed>0.0</speed>
  <fix>3d</fix>
</trkpt>
<trkpt lat="40.0713749" lon="-105.229789">
  <ele>1583.0</ele>
  <time>2026-08-28T17:48:45Z</time>
  <course>0.0</course>
  <speed>0.0</speed>
  <fix>3d</fix>
</trkpt>
<trkpt lat="40.0713749" lon="-105.229789">
  <ele>1583.0</ele>
  <time>2026-08-28T17:48:45Z</time>
  <course>248.18</course>
  <speed>0.0</speed>
  <fix>3d</fix>
</trkpt>
<trkpt lat="40.0713749" lon="-105.229789">
  <ele>1583.0</ele>
  <time>2026-08-28T17:48:45Z</time>
  <course>0.0</course>
  <speed>0.0</speed>
  <fix>3d</fix>
</trkpt>
<trkpt lat="40.0713749" lon="-105.229789">
  <ele>1583.0</ele>
  <time>2026-08-28T17:48:45Z</time>
  <course>248.2</course>
  <speed>0.0</speed>
  <fix>3d</fix>
</trkpt>
<trkpt lat="40.0713749" lon="-105.229789">
  <ele>1583.0</ele>
  <time>2026-08-28T17:48:45Z</time>
  <course>0.0</course>
  <speed>0.0</speed>
  <fix>3d</fix>
</trkpt>
<trkpt lat="40.0713749" lon="-105.229789">
  <ele>1583.0</ele>
  <time>2026-08-28T17:48:45Z</time>
  <course>248.22</course>
  <speed>0.0</speed>
  <fix>3d</fix>
</trkpt>
<trkpt lat="40.0713749" lon="-105.229789">
  <ele>1583.0</ele>
  <time>2026-08-28T17:48:45Z</time>
  <course>0.0</course>
  <speed>0.0</speed>
  <fix>3d</fix>
</trkpt>
<trkpt lat="40.0713749" lon="-105.229789">
  <ele>1583.0</ele>
  <time>2026-08-28T17:48:45Z</time>
  <course>248.23</course>
  <speed>0.0</speed>
  <fix>3d</fix>
</trkpt>
<trkpt lat="40.0713749" lon="-105.229789">
  <ele>1583.0</ele>
  <time>2026-08-28T17:48:45Z</time>
  <course>0.0</course>
  <speed>0.0</speed>
  <fix>3d</fix>
</trkpt>
<trkpt lat="40.0713749" lon="-105.229789">
  <ele>1583.0</ele>
  <time>2026-08-28T17:48:45Z</time>
  <course>248.25</course>
  <speed>0.0</speed>
  <fix>3d</fix>
</trkpt>
<trkpt lat="40.0713749" lon="-105.229789">
  <ele>1583.0</ele>
  <time>2026-08-28T17:48:45Z</time>
  <course>0.0</course>
  <speed>0.0</speed>
  <fix>3d</fix>
</trkpt>
<trkpt lat="40.0713749" lon="-105.229789">
  <ele>1583.0</ele>
  <time>2026-08-28T17:48:45Z</time>
  <course>248.26</course>
  <speed>0.0</speed>
  <fix>3d</fix>
</trkpt>
<trkpt lat="40.0713749" lon="-105.229789">
  <ele>1583.0</ele>
  <time>2026-08-28T17:48:45Z</time>
  <course>0.0</course>
  <speed>0.0</speed>
  <fix>3d</fix>
</trkpt>
<trkpt lat="40.0713749" lon="-105.229789">
  <ele>1583.0</ele>
  <time>2026-08-28T17:48:45Z</time>
  <course>248.28</course>
  <speed>0.0</speed>
  <fix>3d</fix>
</trkpt>
<trkpt lat="40.0713749" lon="-105.229789">
  <ele>1583.0</ele>
  <time>2026-08-28T17:48:45Z</time>
  <course>0.0</course>
  <speed>0.0</speed>
  <fix>3d</fix>
</trkpt>
<trkpt lat="40.0713749" lon="-105.229789">
  <ele>1583.0</ele>
  <time>2026-08-28T17:48:45Z</time>
  <course>248.29</course>
  <speed>0.0</speed>
  <fix>3d</fix>
</trkpt>
<trkpt lat="40.0713749" lon="-105.229789">
  <ele>1583.0</ele>
  <time>2026-08-28T17:48:45Z</time>
  <course>0.0</course>
  <speed>0.0</speed>
  <fix>3d</fix>
</trkpt>
<trkpt lat="40.0713749" lon="-105.229789">
  <ele>1583.0</ele>
  <time>2026-08-28T17:48:45Z</time>
  <course>248.3</course>
  <speed>0.0</speed>
  <fix>3d</fix>
</trkpt>
<trkpt lat="40.0713749" lon="-105.229789">
  <ele>1583.0</ele>
  <time>2026-08-28T17:48:45Z</time>
  <course>0.0</course>
  <speed>0.0</speed>
  <fix>3d</fix>
</trkpt>
<trkpt lat="40.0713749" lon="-105.229789">
  <ele>1583.0</ele>
  <time>2026-08-28T17:48:45Z</time>
  <course>248.31</course>
  <speed>0.0</speed>
  <fix>3d</fix>
</trkpt>
<trkpt lat="40.0713749" lon="-105.229789">
  <ele>1583.0</ele>
  <time>2026-08-28T17:48:45Z</time>
  <course>0.0</course>
  <speed>0.0</speed>
  <fix>3d</fix>
</trkpt>
<trkpt lat="40.0713749" lon="-105.229789">
  <ele>1583.0</ele>
  <time>2026-08-28T17:48:45Z</time>
  <course>248.32</course>
  <speed>0.0</speed>
  <fix>3d</fix>
</trkpt>
<trkpt lat="40.0713749" lon="-105.229789">
  <ele>1583.0</ele>
  <time>2026-08-28T17:48:45Z</time>
  <course>0.0</course>
  <speed>0.0</speed>
  <fix>3d</fix>
</trkpt>
<trkpt lat="40.0713749" lon="-105.229789">
  <ele>1583.0</ele>
  <time>2026-08-28T17:48:45Z</time>
  <course>248.33</course>
  <speed>0.0</speed>
  <fix>3d</fix>
</trkpt>
<trkpt lat="40.0713749" lon="-105.229789">
  <ele>1583.0</ele>
  <time>2026-08-28T17:48:45Z</time>
  <course>0.0</course>
  <speed>0.0</speed>
  <fix>3d</fix>
</trkpt>
<trkpt lat="40.0713749" lon="-105.229789">
  <ele>1583.0</ele>
  <time>2026-08-28T17:48:45Z</time>
  <course>248.34</course>
  <speed>0.0</speed>
  <fix>3d</fix>
</trkpt>
<trkpt lat="40.0713749" lon="-105.229789">
  <ele>1583.0</ele>
  <time>2026-08-28T17:48:45Z</time>
  <course>0.0</course>
  <speed>0.0</speed>
  <fix>3d</fix>
</trkpt>
<trkpt lat="40.0713749" lon="-105.229789">
  <ele>1583.0</ele>
  <time>2026-08-28T17:48:45Z</time>
  <course>248.35</course>
  <speed>0.0</speed>
  <fix>3d</fix>
</trkpt>
<trkpt lat="40.0713749" lon="-105.229789">
  <ele>1583.0</ele>
  <time>2026-08-28T17:48:45Z</time>
  <course>0.0</course>
  <speed>0.0</speed>
  <fix>3d</fix>
</trkpt>
<trkpt lat="40.0713749" lon="-105.229789">
  <ele>1583.0</ele>
  <time>2026-08-28T17:48:45Z</time>
  <course>248.36</course>
  <speed>0.0</speed>
  <fix>3d</fix>
</trkpt>
<trkpt lat="40.0713749" lon="-105.229789">
  <ele>1583.0</ele>
  <time>2026-08-28T17:48:45Z</time>
  <course>0.0</course>
  <speed>0.0</speed>
  <fix>3d</fix>
</trkpt>
<trkpt lat="40.0713749" lon="-105.229789">
  <ele>1583.0</ele>
  <time>2026-08-28T17:48:45Z</time>
  <course>248.36</course>
  <speed>0.0</speed>
  <fix>3d</fix>
</trkpt>
<trkpt lat="40.0713749" lon="-105.229789">
  <ele>1583.0</ele>
  <time>2026-08-28T17:48:45Z</time>
  <course>0.0</course>
  <speed>0.0</speed>
  <fix>3d</fix>
</trkpt>
<trkpt lat="40.0713749" lon="-105.229789">
  <ele>1583.0</ele>
  <time>2026-08-28T17:48:45Z</time>
  <course>248.37</course>
  <speed>0.0</speed>
  <fix>3d</fix>
</trkpt>
<trkpt lat="40.0713749" lon="-105.229789">
  <ele>1583.0</ele>
  <time>2026-08-28T17:48:45Z</time>
  <course>0.0</course>
  <speed>0.0</speed>
  <fix>3d</fix>
</trkpt>
<trkpt lat="40.0713749" lon="-105.229789">
  <ele>1583.0</ele>
  <time>2026-08-28T17:48:45Z</time>
  <course>248.38</course>
  <speed>0.0</speed>
  <fix>3d</fix>
</trkpt>
<trkpt lat="40.0713749" lon="-105.229789">
  <ele>1583.0</ele>
  <time>2026-08-28T17:48:45Z</time>
  <course>0.0</course>
  <speed>0.0</speed>
  <fix>3d</fix>
</trkpt>
<trkpt lat="40.0713749" lon="-105.229789">
  <ele>1583.0</ele>
  <time>2026-08-28T17:48:45Z</time>
  <course>248.38</course>
  <speed>0.0</speed>
  <fix>3d</fix>
</trkpt>
<trkpt lat="40.0713749" lon="-105.229789">
  <ele>1583.0</ele>
  <time>2026-08-28T17:48:45Z</time>
  <course>0.0</course>
  <speed>0.0</speed>
  <fix>3d</fix>
</trkpt>
<trkpt lat="40.0713749" lon="-105.229789">
  <ele>1583.0</ele>
  <time>2026-08-28T17:48:45Z</time>
  <course>248.38</course>
  <speed>0.0</speed>
  <fix>3d</fix>
</trkpt>
<trkpt lat="40.0713749" lon="-105.229789">
  <ele>1583.0</ele>
  <time>2026-08-28T17:48:45Z</time>
  <course>0.0</course>
  <speed>0.0</speed>
  <fix>3d</fix>
</trkpt>
<trkpt lat="40.0713749" lon="-105.229789">
  <ele>1583.0</ele>
  <time>2026-08-28T17:48:45Z</time>
  <course>248.39</course>
  <speed>0.0</speed>
  <fix>3d</fix>
</trkpt>
<trkpt lat="40.0713749" lon="-105.229789">
  <ele>1583.0</ele>
  <time>2026-08-28T17:48:45Z</time>
  <course>0.0</course>
  <speed>0.0</speed>
  <fix>3d</fix>
</trkpt>
<trkpt lat="40.0713749" lon="-105.229789">
  <ele>1583.0</ele>
  <time>2026-08-28T17:48:45Z</time>
  <course>248.39</course>
  <speed>0.0</speed>
  <fix>3d</fix>
</trkpt>
<trkpt lat="40.0713749" lon="-105.229789">
  <ele>1583.0</ele>
  <time>2026-08-28T17:48:45Z</time>
  <course>0.0</course>
  <speed>0.0</speed>
  <fix>3d</fix>
</trkpt>
<trkpt lat="40.0713749" lon="-105.229789">
  <ele>1583.0</ele>
  <time>2026-08-28T17:48:45Z</time>
  <course>248.4</course>
  <speed>0.0</speed>
  <fix>3d</fix>
</trkpt>
<trkpt lat="40.0713749" lon="-105.229789">
  <ele>1583.0</ele>
  <time>2026-08-28T17:48:45Z</time>
  <course>0.0</course>
  <speed>0.0</speed>
  <fix>3d</fix>
</trkpt>
<trkpt lat="40.0713749" lon="-105.229789">
  <ele>1583.0</ele>
  <time>2026-08-28T17:48:45Z</time>
  <course>248.4</course>
  <speed>0.0</speed>
  <fix>3d</fix>
</trkpt>
<trkpt lat="40.0713749" lon="-105.229789">
  <ele>1583.0</ele>
  <time>2026-08-28T17:48:45Z</time>
  <course>0.0</course>
  <speed>0.0</speed>
  <fix>3d</fix>
</trkpt>
<trkpt lat="40.0713749" lon="-105.229789">
  <ele>1583.0</ele>
  <time>2026-08-28T17:48:45Z</time>
  <course>248.4</course>
  <speed>0.0</speed>
  <fix>3d</fix>
</trkpt>
<trkpt lat="40.0713749" lon="-105.229789">
  <ele>1583.0</ele>
  <time>2026-08-28T17:48:45Z</time>
  <course>0.0</course>
  <speed>0.0</speed>
  <fix>3d</fix>
</trkpt>
<trkpt lat="40.0713749" lon="-105.229789">
  <ele>1583.0</ele>
  <time>2026-08-28T17:48:45Z</time>
  <course>248.4</course>
  <speed>0.0</speed>
  <fix>3d</fix>
</trkpt>
<trkpt lat="40.0713749" lon="-105.229789">
  <ele>1583.0</ele>
  <time>2026-08-28T17:48:45Z</time>
  <course>0.0</course>
  <speed>0.0</speed>
  <fix>3d</fix>
</trkpt>
<trkpt lat="40.0713749" lon="-105.229789">
  <ele>1583.0</ele>
  <time>2026-08-28T17:48:45Z</time>
  <course>248.41</course>
  <speed>0.0</speed>
  <fix>3d</fix>
</trkpt>
<trkpt lat="40.0713749" lon="-105.229789">
  <ele>1583.0</ele>
  <time>2026-08-28T17:48:45Z</time>
  <course>0.0</course>
  <speed>0.0</speed>
  <fix>3d</fix>
</trkpt>
<trkpt lat="40.0713749" lon="-105.229789">
  <ele>1583.0</ele>
  <time>2026-08-28T17:48:45Z</time>
  <course>248.41</course>
  <speed>0.0</speed>
  <fix>3d</fix>
</trkpt>
<trkpt lat="40.0713749" lon="-105.229789">
  <ele>1583.0</ele>
  <time>2026-08-28T17:48:45Z</time>
  <course>0.0</course>
  <speed>0.0</speed>
  <fix>3d</fix>
</trkpt>
<trkpt lat="40.0713749" lon="-105.229789">
  <ele>1583.0</ele>
  <time>2026-08-28T17:48:45Z</time>
  <course>248.41</course>
  <speed>0.0</speed>
  <fix>3d</fix>
</trkpt>
<trkpt lat="40.0713749" lon="-105.229789">
  <ele>1583.0</ele>
  <time>2026-08-28T17:48:45Z</time>
  <course>0.0</course>
  <speed>0.0</speed>
  <fix>3d</fix>
</trkpt>
<trkpt lat="40.0713749" lon="-105.229789">
  <ele>1583.0</ele>
  <time>2026-08-28T17:48:45Z</time>
  <course>248.41</course>
  <speed>0.0</speed>
  <fix>3d</fix>
</trkpt>
<trkpt lat="40.0713749" lon="-105.229789">
  <ele>1583.0</ele>
  <time>2026-08-28T17:48:45Z</time>
  <course>0.0</course>
  <speed>0.0</speed>
  <fix>3d</fix>
</trkpt>
<trkpt lat="40.0713749" lon="-105.229789">
  <ele>1583.0</ele>
  <time>2026-08-28T17:48:45Z</time>
  <course>248.41</course>
  <speed>0.0</speed>
  <fix>3d</fix>
</trkpt>
<trkpt lat="40.0713749" lon="-105.229789">
  <ele>1583.0</ele>
  <time>2026-08-28T17:48:45Z</time>
  <course>0.0</course>
  <speed>0.0</speed>
  <fix>3d</fix>
</trkpt>
<trkpt lat="40.0713749" lon="-105.229789">
  <ele>1583.0</ele>
  <time>2026-08-28T17:48:45Z</time>
  <course>248.41</course>
  <speed>0.0</speed>
  <fix>3d</fix>
</trkpt>
<trkpt lat="40.0713749" lon="-105.229789">
  <ele>1583.0</ele>
  <time>2026-08-28T17:48:45Z</time>
  <course>0.0</course>
  <speed>0.0</speed>
  <fix>3d</fix>
</trkpt>
<trkpt lat="40.0713749" lon="-105.229789">
  <ele>1583.0</ele>
  <time>2026-08-28T17:48:45Z</time>
  <course>248.41</course>
  <speed>0.0</speed>
  <fix>3d</fix>
</trkpt>
<trkpt lat="40.0713749" lon="-105.229789">
  <ele>1583.0</ele>
  <time>2026-08-28T17:48:45Z</time>
  <course>0.0</course>
  <speed>0.0</speed>
  <fix>3d</fix>
</trkpt>
<trkpt lat="40.0713749" lon="-105.229789">
  <ele>1583.0</ele>
  <time>2026-08-28T17:48:45Z</time>
  <course>248.41</course>
  <speed>0.0</speed>
  <fix>3d</fix>
</trkpt>
<trkpt lat="40.0713749" lon="-105.229789">
  <ele>1583.0</ele>
  <time>2026-08-28T17:48:45Z</time>
  <course>0.0</course>
  <speed>0.0</speed>
  <fix>3d</fix>
</trkpt>
<trkpt lat="40.0713749" lon="-105.229789">
  <ele>1583.0</ele>
  <time>2026-08-28T17:48:45Z</time>
  <course>248.41</course>
  <speed>0.0</speed>
  <fix>3d</fix>
</trkpt>
<trkpt lat="40.0713749" lon="-105.229789">
  <ele>1583.0</ele>
  <time>2026-08-28T17:48:45Z</time>
  <course>0.0</course>
  <speed>0.0</speed>
  <fix>3d</fix>
</trkpt>
<trkpt lat="40.0713749" lon="-105.229789">
  <ele>1583.0</ele>
  <time>2026-08-28T17:48:45Z</time>
  <course>248.41</course>
  <speed>0.0</speed>
  <fix>3d</fix>
</trkpt>
<trkpt lat="40.0713749" lon="-105.229789">
  <ele>1583.0</ele>
  <time>2026-08-28T17:48:45Z</time>
  <course>0.0</course>
  <speed>0.0</speed>
  <fix>3d</fix>
</trkpt>
<trkpt lat="40.0713749" lon="-105.229789">
  <ele>1583.0</ele>
  <time>2026-08-28T17:48:45Z</time>
  <course>248.41</course>
  <speed>0.0</speed>
  <fix>3d</fix>
</trkpt>
<trkpt lat="40.0713749" lon="-105.229789">
  <ele>1583.0</ele>
  <time>2026-08-28T17:48:45Z</time>
  <course>0.0</course>
  <speed>0.0</speed>
  <fix>3d</fix>
</trkpt>
<trkpt lat="40.0713749" lon="-105.229789">
  <ele>1583.0</ele>
  <time>2026-08-28T17:48:45Z</time>
  <course>248.41</course>
  <speed>0.0</speed>
  <fix>3d</fix>
</trkpt>
<trkpt lat="40.0713749" lon="-105.229789">
  <ele>1583.0</ele>
  <time>2026-08-28T17:48:45Z</time>
  <course>0.0</course>
  <speed>0.0</speed>
  <fix>3d</fix>
</trkpt>
<trkpt lat="40.0713749" lon="-105.229789">
  <ele>1583.0</ele>
  <time>2026-08-28T17:48:45Z</time>
  <course>248.41</course>
  <speed>0.0</speed>
  <fix>3d</fix>
</trkpt>
<trkpt lat="40.0713749" lon="-105.229789">
  <ele>1583.0</ele>
  <time>2026-08-28T17:48:45Z</time>
  <course>0.0</course>
  <speed>0.0</speed>
  <fix>3d</fix>
</trkpt>
<trkpt lat="40.0713749" lon="-105.229789">
  <ele>1583.0</ele>
  <time>2026-08-28T17:48:45Z</time>
  <course>248.41</course>
  <speed>0.0</speed>
  <fix>3d</fix>
</trkpt>
<trkpt lat="40.0713749" lon="-105.229789">
  <ele>1583.0</ele>
  <time>2026-08-28T17:48:45Z</time>
  <course>0.0</course>
  <speed>0.0</speed>
  <fix>3d</fix>
</trkpt>
<trkpt lat="40.0713749" lon="-105.229789">
  <ele>1583.0</ele>
  <time>2026-08-28T17:48:45Z</time>
  <course>248.41</course>
  <speed>0.0</speed>
  <fix>3d</fix>
</trkpt>
<trkpt lat="40.0713749" lon="-105.229789">
  <ele>1583.0</ele>
  <time>2026-08-28T17:48:45Z</time>
  <course>0.0</course>
  <speed>0.0</speed>
  <fix>3d</fix>
</trkpt>
<trkpt lat="40.0713749" lon="-105.229789">
  <ele>1583.0</ele>
  <time>2026-08-28T17:48:45Z</time>
  <course>248.41</course>
  <speed>0.0</speed>
  <fix>3d</fix>
</trkpt>
<trkpt lat="40.0713749" lon="-105.229789">
  <ele>1583.0</ele>
  <time>2026-08-28T17:48:45Z</time>
  <course>0.0</course>
  <speed>0.0</speed>
  <fix>3d</fix>
</trkpt>
<trkpt lat="40.0713749" lon="-105.229789">
  <ele>1583.0</ele>
  <time>2026-08-28T17:48:45Z</time>
  <course>248.4</course>
  <speed>0.0</speed>
  <fix>3d</fix>
</trkpt>
<trkpt lat="40.0713749" lon="-105.229789">
  <ele>1583.0</ele>
  <time>2026-08-28T17:48:45Z</time>
  <course>0.0</course>
  <speed>0.0</speed>
  <fix>3d</fix>
</trkpt>
<trkpt lat="40.0713749" lon="-105.229789">
  <ele>1583.0</ele>
  <time>2026-08-28T17:48:45Z</time>
  <course>248.4</course>
  <speed>0.01</speed>
  <fix>3d</fix>
</trkpt>
<trkpt lat="40.0713749" lon="-105.229789">
  <ele>1583.0</ele>
  <time>2026-08-28T17:48:45Z</time>
  <course>0.0</course>
  <speed>0.0</speed>
  <fix>3d</fix>
</trkpt>
<trkpt lat="40.0713749" lon="-105.229789">
  <ele>1583.0</ele>
  <time>2026-08-28T17:48:45Z</time>
  <course>248.4</course>
  <speed>0.01</speed>
  <fix>3d</fix>
</trkpt>
<trkpt lat="40.0713749" lon="-105.229789">
  <ele>1583.0</ele>
  <time>2026-08-28T17:48:45Z</time>
  <course>0.0</course>
  <speed>0.0</speed>
  <fix>3d</fix>
</trkpt>
<trkpt lat="40.0713749" lon="-105.229789">
  <ele>1583.0</ele>
  <time>2026-08-28T17:48:45Z</time>
  <course>248.4</course>
  <speed>0.01</speed>
  <fix>3d</fix>
</trkpt>
<trkpt lat="40.0713749" lon="-105.229789">
  <ele>1583.0</ele>
  <time>2026-08-28T17:48:45Z</time>
  <course>0.0</course>
  <speed>0.0</speed>
  <fix>3d</fix>
</trkpt>
<trkpt lat="40.0713749" lon="-105.229789">
  <ele>1583.0</ele>
  <time>2026-08-28T17:48:45Z</time>
  <course>248.4</course>
  <speed>0.01</speed>
  <fix>3d</fix>
</trkpt>
<trkpt lat="40.0713749" lon="-105.229789">
  <ele>1583.0</ele>
  <time>2026-08-28T17:48:45Z</time>
  <course>0.0</course>
  <speed>0.0</speed>
  <fix>3d</fix>
</trkpt>
<trkpt lat="40.0713749" lon="-105.229789">
  <ele>1583.0</ele>
  <time>2026-08-28T17:48:45Z</time>
  <course>248.39</course>
  <speed>0.01</speed>
  <fix>3d</fix>
</trkpt>
<trkpt lat="40.0713749" lon="-105.229789">
  <ele>1583.0</ele>
  <time>2026-08-28T17:48:45Z</time>
  <course>0.0</course>
  <speed>0.0</speed>
  <fix>3d</fix>
</trkpt>
<trkpt lat="40.0713749" lon="-105.229789">
  <ele>1583.0</ele>
  <time>2026-08-28T17:48:45Z</time>
  <course>248.39</course>
  <speed>0.01</speed>
  <fix>3d</fix>
</trkpt>
<trkpt lat="40.0713749" lon="-105.229789">
  <ele>1583.0</ele>
  <time>2026-08-28T17:48:45Z</time>
  <course>0.0</course>
  <speed>0.0</speed>
  <fix>3d</fix>
</trkpt>
<trkpt lat="40.0713749" lon="-105.229789">
  <ele>1583.0</ele>
  <time>2026-08-28T17:48:45Z</time>
  <course>248.39</course>
  <speed>0.01</speed>
  <fix>3d</fix>
</trkpt>
<trkpt lat="40.0713749" lon="-105.229789">
  <ele>1583.0</ele>
  <time>2026-08-28T17:48:45Z</time>
  <course>0.0</course>
  <speed>0.0</speed>
  <fix>3d</fix>
</trkpt>
<trkpt lat="40.0713749" lon="-105.229789">
  <ele>1583.0</ele>
  <time>2026-08-28T17:48:45Z</time>
  <course>248.38</course>
  <speed>0.01</speed>
  <fix>3d</fix>
</trkpt>
<trkpt lat="40.0713749" lon="-105.229789">
  <ele>1583.0</ele>
  <time>2026-08-28T17:48:45Z</time>
  <course>0.0</course>
  <speed>0.0</speed>
  <fix>3d</fix>
</trkpt>
<trkpt lat="40.0713749" lon="-105.229789">
  <ele>1583.0</ele>
  <time>2026-08-28T17:48:45Z</time>
  <course>248.38</course>
  <speed>0.01</speed>
  <fix>3d</fix>
</trkpt>
<trkpt lat="40.0713749" lon="-105.229789">
  <ele>1583.0</ele>
  <time>2026-08-28T17:48:45Z</time>
  <course>0.0</course>
  <speed>0.0</speed>
  <fix>3d</fix>
</trkpt>
<trkpt lat="40.0713749" lon="-105.229789">
  <ele>1583.0</ele>
  <time>2026-08-28T17:48:45Z</time>
  <course>248.38</course>
  <speed>0.01</speed>
  <fix>3d</fix>
</trkpt>
<trkpt lat="40.0713749" lon="-105.229789">
  <ele>1583.0</ele>
  <time>2026-08-28T17:48:45Z</time>
  <course>0.0</course>
  <speed>0.0</speed>
  <fix>3d</fix>
</trkpt>
<trkpt lat="40.0713749" lon="-105.229789">
  <ele>1583.0</ele>
  <time>2026-08-28T17:48:45Z</time>
  <course>248.38</course>
  <speed>0.01</speed>
  <fix>3d</fix>
</trkpt>
<trkpt lat="40.0713749" lon="-105.229789">
  <ele>1583.0</ele>
  <time>2026-08-28T17:48:45Z</time>
  <course>0.0</course>
  <speed>0.0</speed>
  <fix>3d</fix>
</trkpt>
<trkpt lat="40.0713749" lon="-105.229789">
  <ele>1583.0</ele>
  <time>2026-08-28T17:48:45Z</time>
  <course>248.37</course>
  <speed>0.01</speed>
  <fix>3d</fix>
</trkpt>
<trkpt lat="40.0713749" lon="-105.229789">
  <ele>1583.0</ele>
  <time>2026-08-28T17:48:45Z</time>
  <course>0.0</course>
  <speed>0.0</speed>
  <fix>3d</fix>
</trkpt>
<trkpt lat="40.0713749" lon="-105.229789">
  <ele>1583.0</ele>
  <time>2026-08-28T17:48:45Z</time>
  <course>248.37</course>
  <speed>0.01</speed>
  <fix>3d</fix>
</trkpt>
<trkpt lat="40.0713749" lon="-105.229789">
  <ele>1583.0</ele>
  <time>2026-08-28T17:48:45Z</time>
  <course>0.0</course>
  <speed>0.0</speed>
  <fix>3d</fix>
</trkpt>
<trkpt lat="40.0713749" lon="-105.229789">
  <ele>1583.0</ele>
  <time>2026-08-28T17:48:45Z</time>
  <course>248.37</course>
  <speed>0.01</speed>
  <fix>3d</fix>
</trkpt>
<trkpt lat="40.0713749" lon="-105.229789">
  <ele>1583.0</ele>
  <time>2026-08-28T17:48:45Z</time>
  <course>0.0</course>
  <speed>0.0</speed>
  <fix>3d</fix>
</trkpt>
<trkpt lat="40.0713749" lon="-105.229789">
  <ele>1583.0</ele>
  <time>2026-08-28T17:48:45Z</time>
  <course>248.36</course>
  <speed>0.01</speed>
  <fix>3d</fix>
</trkpt>
<trkpt lat="40.0713749" lon="-105.229789">
  <ele>1583.0</ele>
  <time>2026-08-28T17:48:45Z</time>
  <course>0.0</course>
  <speed>0.0</speed>
  <fix>3d</fix>
</trkpt>
<trkpt lat="40.0713749" lon="-105.229789">
  <ele>1583.0</ele>
  <time>2026-08-28T17:48:45Z</time>
  <course>248.36</course>
  <speed>0.01</speed>
  <fix>3d</fix>
</trkpt>
<trkpt lat="40.0713749" lon="-105.229789">
  <ele>1583.0</ele>
  <time>2026-08-28T17:48:45Z</time>
  <course>0.0</course>
  <speed>0.0</speed>
  <fix>3d</fix>
</trkpt>
<trkpt lat="40.0713749" lon="-105.229789">
  <ele>1583.0</ele>
  <time>2026-08-28T17:48:45Z</time>
  <course>248.35</course>
  <speed>0.01</speed>
  <fix>3d</fix>
</trkpt>
<trkpt lat="40.0713749" lon="-105.229789">
  <ele>1583.0</ele>
  <time>2026-08-28T17:48:45Z</time>
  <course>0.0</course>
  <speed>0.0</speed>
  <fix>3d</fix>
</trkpt>
<trkpt lat="40.0713749" lon="-105.229789">
  <ele>1583.0</ele>
  <time>2026-08-28T17:48:45Z</time>
  <course>248.35</course>
  <speed>0.01</speed>
  <fix>3d</fix>
</trkpt>
<trkpt lat="40.0713749" lon="-105.229789">
  <ele>1583.0</ele>
  <time>2026-08-28T17:48:45Z</time>
  <course>0.0</course>
  <speed>0.0</speed>
  <fix>3d</fix>
</trkpt>
<trkpt lat="40.0713749" lon="-105.229789">
  <ele>1583.0</ele>
  <time>2026-08-28T17:48:45Z</time>
  <course>248.35</course>
  <speed>0.01</speed>
  <fix>3d</fix>
</trkpt>
<trkpt lat="40.0713749" lon="-105.229789">
  <ele>1583.0</ele>
  <time>2026-08-28T17:48:45Z</time>
  <course>0.0</course>
  <speed>0.0</speed>
  <fix>3d</fix>
</trkpt>
<trkpt lat="40.0713749" lon="-105.229789">
  <ele>1583.0</ele>
  <time>2026-08-28T17:48:45Z</time>
  <course>248.34</course>
  <speed>0.01</speed>
  <fix>3d</fix>
</trkpt>
<trkpt lat="40.0713749" lon="-105.229789">
  <ele>1583.0</ele>
  <time>2026-08-28T17:48:45Z</time>
  <course>0.0</course>
  <speed>0.0</speed>
  <fix>3d</fix>
</trkpt>
<trkpt lat="40.0713749" lon="-105.229789">
  <ele>1583.0</ele>
  <time>2026-08-28T17:48:45Z</time>
  <course>248.34</course>
  <speed>0.01</speed>
  <fix>3d</fix>
</trkpt>
<trkpt lat="40.0713749" lon="-105.229789">
  <ele>1583.0</ele>
  <time>2026-08-28T17:48:45Z</time>
  <course>0.0</course>
  <speed>0.0</speed>
  <fix>3d</fix>
</trkpt>
<trkpt lat="40.0713749" lon="-105.229789">
  <ele>1583.0</ele>
  <time>2026-08-28T17:48:45Z</time>
  <course>248.33</course>
  <speed>0.01</speed>
  <fix>3d</fix>
</trkpt>
<trkpt lat="40.0713749" lon="-105.229789">
  <ele>1583.0</ele>
  <time>2026-08-28T17:48:45Z</time>
  <course>0.0</course>
  <speed>0.0</speed>
  <fix>3d</fix>
</trkpt>
<trkpt lat="40.0713749" lon="-105.229789">
  <ele>1583.0</ele>
  <time>2026-08-28T17:48:45Z</time>
  <course>248.33</course>
  <speed>0.01</speed>
  <fix>3d</fix>
</trkpt>
<trkpt lat="40.0713749" lon="-105.229789">
  <ele>1583.0</ele>
  <time>2026-08-28T17:48:45Z</time>
  <course>0.0</course>
  <speed>0.0</speed>
  <fix>3d</fix>
</trkpt>
<trkpt lat="40.0713749" lon="-105.229789">
  <ele>1583.0</ele>
  <time>2026-08-28T17:48:45Z</time>
  <course>248.32</course>
  <speed>0.01</speed>
  <fix>3d</fix>
</trkpt>
<trkpt lat="40.0713749" lon="-105.229789">
  <ele>1583.0</ele>
  <time>2026-08-28T17:48:45Z</time>
  <course>0.0</course>
  <speed>0.0</speed>
  <fix>3d</fix>
</trkpt>
<trkpt lat="40.0713749" lon="-105.229789">
  <ele>1583.0</ele>
  <time>2026-08-28T17:48:45Z</time>
  <course>248.32</course>
  <speed>0.01</speed>
  <fix>3d</fix>
</trkpt>
<trkpt lat="40.0713749" lon="-105.229789">
  <ele>1583.0</ele>
  <time>2026-08-28T17:48:45Z</time>
  <course>0.0</course>
  <speed>0.0</speed>
  <fix>3d</fix>
</trkpt>
<trkpt lat="40.0713749" lon="-105.229789">
  <ele>1583.0</ele>
  <time>2026-08-28T17:48:45Z</time>
  <course>248.32</course>
  <speed>0.01</speed>
  <fix>3d</fix>
</trkpt>
<trkpt lat="40.0713749" lon="-105.229789">
  <ele>1583.0</ele>
  <time>2026-08-28T17:48:45Z</time>
  <course>0.0</course>
  <speed>0.0</speed>
  <fix>3d</fix>
</trkpt>
<trkpt lat="40.0713749" lon="-105.229789">
  <ele>1583.0</ele>
  <time>2026-08-28T17:48:45Z</time>
  <course>248.31</course>
  <speed>0.01</speed>
  <fix>3d</fix>
</trkpt>
<trkpt lat="40.0713749" lon="-105.229789">
  <ele>1583.0</ele>
  <time>2026-08-28T17:48:45Z</time>
  <course>0.0</course>
  <speed>0.0</speed>
  <fix>3d</fix>
</trkpt>
<trkpt lat="40.0713749" lon="-105.229789">
  <ele>1583.0</ele>
  <time>2026-08-28T17:48:45Z</time>
  <course>248.31</course>
  <speed>0.01</speed>
  <fix>3d</fix>
</trkpt>
<trkpt lat="40.0713749" lon="-105.229789">
  <ele>1583.0</ele>
  <time>2026-08-28T17:48:45Z</time>
  <course>0.0</course>
  <speed>0.0</speed>
  <fix>3d</fix>
</trkpt>
<trkpt lat="40.0713749" lon="-105.229789">
  <ele>1583.0</ele>
  <time>2026-08-28T17:48:45Z</time>
  <course>248.3</course>
  <speed>0.01</speed>
  <fix>3d</fix>
</trkpt>
<trkpt lat="40.0713749" lon="-105.229789">
  <ele>1583.0</ele>
  <time>2026-08-28T17:48:45Z</time>
  <course>0.0</course>
  <speed>0.0</speed>
  <fix>3d</fix>
</trkpt>
<trkpt lat="40.0713749" lon="-105.229789">
  <ele>1583.0</ele>
  <time>2026-08-28T17:48:45Z</time>
  <course>248.3</course>
  <speed>0.01</speed>
  <fix>3d</fix>
</trkpt>
<trkpt lat="40.0713749" lon="-105.229789">
  <ele>1583.0</ele>
  <time>2026-08-28T17:48:45Z</time>
  <course>0.0</course>
  <speed>0.0</speed>
  <fix>3d</fix>
</trkpt>
<trkpt lat="40.0713749" lon="-105.229789">
  <ele>1583.0</ele>
  <time>2026-08-28T17:48:45Z</time>
  <course>248.29</course>
  <speed>0.01</speed>
  <fix>3d</fix>
</trkpt>
<trkpt lat="40.0713749" lon="-105.229789">
  <ele>1583.0</ele>
  <time>2026-08-28T17:48:45Z</time>
  <course>0.0</course>
  <speed>0.0</speed>
  <fix>3d</fix>
</trkpt>
<trkpt lat="40.0713749" lon="-105.229789">
  <ele>1583.0</ele>
  <time>2026-08-28T17:48:45Z</time>
  <course>248.29</course>
  <speed>0.01</speed>
  <fix>3d</fix>
</trkpt>
<trkpt lat="40.0713749" lon="-105.229789">
  <ele>1583.0</ele>
  <time>2026-08-28T17:48:45Z</time>
  <course>0.0</course>
  <speed>0.0</speed>
  <fix>3d</fix>
</trkpt>
<trkpt lat="40.0713749" lon="-105.229789">
  <ele>1583.0</ele>
  <time>2026-08-28T17:48:45Z</time>
  <course>248.28</course>
  <speed>0.01</speed>
  <fix>3d</fix>
</trkpt>
<trkpt lat="40.0713749" lon="-105.229789">
  <ele>1583.0</ele>
  <time>2026-08-28T17:48:45Z</time>
  <course>0.0</course>
  <speed>0.0</speed>
  <fix>3d</fix>
</trkpt>
<trkpt lat="40.0713749" lon="-105.229789">
  <ele>1583.0</ele>
  <time>2026-08-28T17:48:45Z</time>
  <course>248.28</course>
  <speed>0.01</speed>
  <fix>3d</fix>
</trkpt>
<trkpt lat="40.0713749" lon="-105.229789">
  <ele>1583.0</ele>
  <time>2026-08-28T17:48:45Z</time>
  <course>0.0</course>
  <speed>0.0</speed>
  <fix>3d</fix>
</trkpt>
<trkpt lat="40.0713749" lon="-105.229789">
  <ele>1583.0</ele>
  <time>2026-08-28T17:48:45Z</time>
  <course>248.27</course>
  <speed>0.01</speed>
  <fix>3d</fix>
</trkpt>
<trkpt lat="40.0713749" lon="-105.229789">
  <ele>1583.0</ele>
  <time>2026-08-28T17:48:45Z</time>
  <course>0.0</course>
  <speed>0.0</speed>
  <fix>3d</fix>
</trkpt>
<trkpt lat="40.0713749" lon="-105.229789">
  <ele>1583.0</ele>
  <time>2026-08-28T17:48:45Z</time>
  <course>248.27</course>
  <speed>0.01</speed>
  <fix>3d</fix>
</trkpt>
<trkpt lat="40.0713749" lon="-105.229789">
  <ele>1583.0</ele>
  <time>2026-08-28T17:48:45Z</time>
  <course>0.0</course>
  <speed>0.0</speed>
  <fix>3d</fix>
</trkpt>
<trkpt lat="40.0713749" lon="-105.229789">
  <ele>1583.0</ele>
  <time>2026-08-28T17:48:45Z</time>
  <course>248.27</course>
  <speed>0.01</speed>
  <fix>3d</fix>
</trkpt>
<trkpt lat="40.0713749" lon="-105.229789">
  <ele>1583.0</ele>
  <time>2026-08-28T17:48:45Z</time>
  <course>0.0</course>
  <speed>0.0</speed>
  <fix>3d</fix>
</trkpt>
<trkpt lat="40.0713749" lon="-105.229789">
  <ele>1583.0</ele>
  <time>2026-08-28T17:48:45Z</time>
  <course>248.26</course>
  <speed>0.01</speed>
  <fix>3d</fix>
</trkpt>
<trkpt lat="40.0713749" lon="-105.229789">
  <ele>1583.0</ele>
  <time>2026-08-28T17:48:45Z</time>
  <course>0.0</course>
  <speed>0.0</speed>
  <fix>3d</fix>
</trkpt>
<trkpt lat="40.0713749" lon="-105.229789">
  <ele>1583.0</ele>
  <time>2026-08-28T17:48:45Z</time>
  <course>248.26</course>
  <speed>0.01</speed>
  <fix>3d</fix>
</trkpt>
<trkpt lat="40.0713749" lon="-105.229789">
  <ele>1583.0</ele>
  <time>2026-08-28T17:48:45Z</time>
  <course>0.0</course>
  <speed>0.0</speed>
  <fix>3d</fix>
</trkpt>
<trkpt lat="40.0713749" lon="-105.229789">
  <ele>1583.0</ele>
  <time>2026-08-28T17:48:45Z</time>
  <course>248.25</course>
  <speed>0.01</speed>
  <fix>3d</fix>
</trkpt>
<trkpt lat="40.0713749" lon="-105.229789">
  <ele>1583.0</ele>
  <time>2026-08-28T17:48:45Z</time>
  <course>0.0</course>
  <speed>0.0</speed>
  <fix>3d</fix>
</trkpt>
<trkpt lat="40.0713749" lon="-105.229789">
  <ele>1583.0</ele>
  <time>2026-08-28T17:48:45Z</time>
  <course>248.25</course>
  <speed>0.01</speed>
  <fix>3d</fix>
</trkpt>
<trkpt lat="40.0713749" lon="-105.229789">
  <ele>1583.0</ele>
  <time>2026-08-28T17:48:45Z</time>
  <course>0.0</course>
  <speed>0.0</speed>
  <fix>3d</fix>
</trkpt>
<trkpt lat="40.0713749" lon="-105.229789">
  <ele>1583.0</ele>
  <time>2026-08-28T17:48:45Z</time>
  <course>248.24</course>
  <speed>0.01</speed>
  <fix>3d</fix>
</trkpt>
<trkpt lat="40.0713749" lon="-105.229789">
  <ele>1583.0</ele>
  <time>2026-08-28T17:48:45Z</time>
  <course>0.0</course>
  <speed>0.0</speed>
  <fix>3d</fix>
</trkpt>
<trkpt lat="40.0713749" lon="-105.229789">
  <ele>1583.0</ele>
  <time>2026-08-28T17:48:45Z</time>
  <course>248.24</course>
  <speed>0.01</speed>
  <fix>3d</fix>
</trkpt>
<trkpt lat="40.0713749" lon="-105.229789">
  <ele>1583.0</ele>
  <time>2026-08-28T17:48:45Z</time>
  <course>0.0</course>
  <speed>0.0</speed>
  <fix>3d</fix>
</trkpt>
<trkpt lat="40.0713749" lon="-105.229789">
  <ele>1583.0</ele>
  <time>2026-08-28T17:48:45Z</time>
  <course>248.23</course>
  <speed>0.01</speed>
  <fix>3d</fix>
</trkpt>
<trkpt lat="40.0713749" lon="-105.229789">
  <ele>1583.0</ele>
  <time>2026-08-28T17:48:45Z</time>
  <course>0.0</course>
  <speed>0.0</speed>
  <fix>3d</fix>
</trkpt>
<trkpt lat="40.0713749" lon="-105.229789">
  <ele>1583.0</ele>
  <time>2026-08-28T17:48:45Z</time>
  <course>248.23</course>
  <speed>0.01</speed>
  <fix>3d</fix>
</trkpt>
<trkpt lat="40.0713749" lon="-105.229789">
  <ele>1583.0</ele>
  <time>2026-08-28T17:48:45Z</time>
  <course>0.0</course>
  <speed>0.0</speed>
  <fix>3d</fix>
</trkpt>
<trkpt lat="40.0713749" lon="-105.229789">
  <ele>1583.0</ele>
  <time>2026-08-28T17:48:45Z</time>
  <course>248.22</course>
  <speed>0.01</speed>
  <fix>3d</fix>
</trkpt>
<trkpt lat="40.0713749" lon="-105.229789">
  <ele>1583.0</ele>
  <time>2026-08-28T17:48:45Z</time>
  <course>0.0</course>
  <speed>0.0</speed>
  <fix>3d</fix>
</trkpt>
<trkpt lat="40.0713749" lon="-105.229789">
  <ele>1583.0</ele>
  <time>2026-08-28T17:48:45Z</time>
  <course>248.22</course>
  <speed>0.01</speed>
  <fix>3d</fix>
</trkpt>
<trkpt lat="40.0713749" lon="-105.229789">
  <ele>1583.0</ele>
  <time>2026-08-28T17:48:45Z</time>
  <course>0.0</course>
  <speed>0.0</speed>
  <fix>3d</fix>
</trkpt>
<trkpt lat="40.0713749" lon="-105.229789">
  <ele>1583.0</ele>
  <time>2026-08-28T17:48:45Z</time>
  <course>248.21</course>
  <speed>0.01</speed>
  <fix>3d</fix>
</trkpt>
<trkpt lat="40.0713749" lon="-105.229789">
  <ele>1583.0</ele>
  <time>2026-08-28T17:48:45Z</time>
  <course>0.0</course>
  <speed>0.0</speed>
  <fix>3d</fix>
</trkpt>
<trkpt lat="40.0713749" lon="-105.229789">
  <ele>1583.0</ele>
  <time>2026-08-28T17:48:45Z</time>
  <course>248.21</course>
  <speed>0.01</speed>
  <fix>3d</fix>
</trkpt>
<trkpt lat="40.0713749" lon="-105.229789">
  <ele>1583.0</ele>
  <time>2026-08-28T17:48:45Z</time>
  <course>0.0</course>
  <speed>0.0</speed>
  <fix>3d</fix>
</trkpt>
<trkpt lat="40.0713749" lon="-105.229789">
  <ele>1583.0</ele>
  <time>2026-08-28T17:48:45Z</time>
  <course>248.2</course>
  <speed>0.01</speed>
  <fix>3d</fix>
</trkpt>
<trkpt lat="40.0713749" lon="-105.229789">
  <ele>1583.0</ele>
  <time>2026-08-28T17:48:45Z</time>
  <course>0.0</course>
  <speed>0.0</speed>
  <fix>3d</fix>
</trkpt>
<trkpt lat="40.0713749" lon="-105.229789">
  <ele>1583.0</ele>
  <time>2026-08-28T17:48:45Z</time>
  <course>248.2</course>
  <speed>0.01</speed>
  <fix>3d</fix>
</trkpt>
<trkpt lat="40.0713749" lon="-105.229789">
  <ele>1583.0</ele>
  <time>2026-08-28T17:48:45Z</time>
  <course>0.0</course>
  <speed>0.0</speed>
  <fix>3d</fix>
</trkpt>
<trkpt lat="40.0713749" lon="-105.229789">
  <ele>1583.0</ele>
  <time>2026-08-28T17:48:45Z</time>
  <course>248.19</course>
  <speed>0.01</speed>
  <fix>3d</fix>
</trkpt>
<trkpt lat="40.0713749" lon="-105.229789">
  <ele>1583.0</ele>
  <time>2026-08-28T17:48:45Z</time>
  <course>0.0</course>
  <speed>0.0</speed>
  <fix>3d</fix>
</trkpt>
<trkpt lat="40.0713749" lon="-105.229789">
  <ele>1583.0</ele>
  <time>2026-08-28T17:48:45Z</time>
  <course>248.19</course>
  <speed>0.01</speed>
  <fix>3d</fix>
</trkpt>
<trkpt lat="40.0713749" lon="-105.229789">
  <ele>1583.0</ele>
  <time>2026-08-28T17:48:45Z</time>
  <course>0.0</course>
  <speed>0.0</speed>
  <fix>3d</fix>
</trkpt>
<trkpt lat="40.0713749" lon="-105.229789">
  <ele>1583.0</ele>
  <time>2026-08-28T17:48:45Z</time>
  <course>248.18</course>
  <speed>0.01</speed>
  <fix>3d</fix>
</trkpt>
<trkpt lat="40.0713749" lon="-105.229789">
  <ele>1583.0</ele>
  <time>2026-08-28T17:48:45Z</time>
  <course>0.0</course>
  <speed>0.0</speed>
  <fix>3d</fix>
</trkpt>
<trkpt lat="40.0713749" lon="-105.229789">
  <ele>1583.0</ele>
  <time>2026-08-28T17:48:45Z</time>
  <course>248.18</course>
  <speed>0.01</speed>
  <fix>3d</fix>
</trkpt>
<trkpt lat="40.0713749" lon="-105.229789">
  <ele>1583.0</ele>
  <time>2026-08-28T17:48:45Z</time>
  <course>0.0</course>
  <speed>0.0</speed>
  <fix>3d</fix>
</trkpt>
<trkpt lat="40.0713749" lon="-105.229789">
  <ele>1583.0</ele>
  <time>2026-08-28T17:48:45Z</time>
  <course>248.17</course>
  <speed>0.022360679774997897</speed>
  <fix>3d</fix>
</trkpt>
<trkpt lat="40.0713749" lon="-105.229789">
  <ele>1583.0</ele>
  <time>2026-08-28T17:48:45Z</time>
  <course>0.0</course>
  <speed>0.0</speed>
  <fix>3d</fix>
</trkpt>
<trkpt lat="40.0713749" lon="-105.229789">
  <ele>1583.0</ele>
  <time>2026-08-28T17:48:45Z</time>
  <course>248.17</course>
  <speed>0.022360679774997897</speed>
  <fix>3d</fix>
</trkpt>
<trkpt lat="40.0713749" lon="-105.229789">
  <ele>1583.0</ele>
  <time>2026-08-28T17:48:45Z</time>
  <course>0.0</course>
  <speed>0.0</speed>
  <fix>3d</fix>
</trkpt>
<trkpt lat="40.0713749" lon="-105.229789">
  <ele>1583.0</ele>
  <time>2026-08-28T17:48:45Z</time>
  <course>248.16</course>
  <speed>0.022360679774997897</speed>
  <fix>3d</fix>
</trkpt>
<trkpt lat="40.0713749" lon="-105.229789">
  <ele>1583.0</ele>
  <time>2026-08-28T17:48:45Z</time>
  <course>0.0</course>
  <speed>0.0</speed>
  <fix>3d</fix>
</trkpt>
<trkpt lat="40.0713749" lon="-105.229789">
  <ele>1583.0</ele>
  <time>2026-08-28T17:48:45Z</time>
  <course>248.16</course>
  <speed>0.022360679774997897</speed>
  <fix>3d</fix>
</trkpt>
<trkpt lat="40.0713749" lon="-105.229789">
  <ele>1583.0</ele>
  <time>2026-08-28T17:48:45Z</time>
  <course>0.0</course>
  <speed>0.0</speed>
  <fix>3d</fix>
</trkpt>
<trkpt lat="40.0713749" lon="-105.229789">
  <ele>1583.0</ele>
  <time>2026-08-28T17:48:45Z</time>
  <course>248.15</course>
  <speed>0.022360679774997897</speed>
  <fix>3d</fix>
</trkpt>
<trkpt lat="40.0713749" lon="-105.229789">
  <ele>1583.0</ele>
  <time>2026-08-28T17:48:45Z</time>
  <course>0.0</course>
  <speed>0.0</speed>
  <fix>3d</fix>
</trkpt>
<trkpt lat="40.0713749" lon="-105.229789">
  <ele>1583.0</ele>
  <time>2026-08-28T17:48:45Z</time>
  <course>248.15</course>
  <speed>0.022360679774997897</speed>
  <fix>3d</fix>
</trkpt>
<trkpt lat="40.0713749" lon="-105.229789">
  <ele>1583.0</ele>
  <time>2026-08-28T17:48:45Z</time>
  <course>0.0</course>
  <speed>0.0</speed>
  <fix>3d</fix>
</trkpt>
<trkpt lat="40.0713749" lon="-105.229789">
  <ele>1583.0</ele>
  <time>2026-08-28T17:48:45Z</time>
  <course>248.14</course>
  <speed>0.022360679774997897</speed>
  <fix>3d</fix>
</trkpt>
<trkpt lat="40.0713749" lon="-105.229789">
  <ele>1583.0</ele>
  <time>2026-08-28T17:48:45Z</time>
  <course>0.0</course>
  <speed>0.0</speed>
  <fix>3d</fix>
</trkpt>
<trkpt lat="40.0713749" lon="-105.229789">
  <ele>1583.0</ele>
  <time>2026-08-28T17:48:45Z</time>
  <course>248.14</course>
  <speed>0.022360679774997897</speed>
  <fix>3d</fix>
</trkpt>
<trkpt lat="40.0713749" lon="-105.229789">
  <ele>1583.0</ele>
  <time>2026-08-28T17:48:45Z</time>
  <course>0.0</course>
  <speed>0.0</speed>
  <fix>3d</fix>
</trkpt>
<trkpt lat="40.0713749" lon="-105.229789">
  <ele>1583.0</ele>
  <time>2026-08-28T17:48:45Z</time>
  <course>248.13</course>
  <speed>0.022360679774997897</speed>
  <fix>3d</fix>
</trkpt>
<trkpt lat="40.0713749" lon="-105.229789">
  <ele>1583.0</ele>
  <time>2026-08-28T17:48:45Z</time>
  <course>0.0</course>
  <speed>0.0</speed>
  <fix>3d</fix>
</trkpt>
<trkpt lat="40.0713749" lon="-105.229789">
  <ele>1583.0</ele>
  <time>2026-08-28T17:48:45Z</time>
  <course>248.13</course>
  <speed>0.022360679774997897</speed>
  <fix>3d</fix>
</trkpt>
<trkpt lat="40.0713749" lon="-105.229789">
  <ele>1583.0</ele>
  <time>2026-08-28T17:48:45Z</time>
  <course>0.0</course>
  <speed>0.0</speed>
  <fix>3d</fix>
</trkpt>
<trkpt lat="40.0713749" lon="-105.229789">
  <ele>1583.0</ele>
  <time>2026-08-28T17:48:45Z</time>
  <course>248.12</course>
  <speed>0.022360679774997897</speed>
  <fix>3d</fix>
</trkpt>
<trkpt lat="40.0713749" lon="-105.229789">
  <ele>1583.0</ele>
  <time>2026-08-28T17:48:45Z</time>
  <course>0.0</course>
  <speed>0.0</speed>
  <fix>3d</fix>
</trkpt>
<trkpt lat="40.0713749" lon="-105.229789">
  <ele>1583.0</ele>
  <time>2026-08-28T17:48:45Z</time>
  <course>248.12</course>
  <speed>0.022360679774997897</speed>
  <fix>3d</fix>
</trkpt>
<trkpt lat="40.0713749" lon="-105.229789">
  <ele>1583.0</ele>
  <time>2026-08-28T17:48:45Z</time>
  <course>0.0</course>
  <speed>0.0</speed>
  <fix>3d</fix>
</trkpt>
<trkpt lat="40.0713749" lon="-105.229789">
  <ele>1583.0</ele>
  <time>2026-08-28T17:48:45Z</time>
  <course>248.11</course>
  <speed>0.022360679774997897</speed>
  <fix>3d</fix>
</trkpt>
<trkpt lat="40.0713749" lon="-105.229789">
  <ele>1583.0</ele>
  <time>2026-08-28T17:48:45Z</time>
  <course>0.0</course>
  <speed>0.0</speed>
  <fix>3d</fix>
</trkpt>
<trkpt lat="40.0713749" lon="-105.229789">
  <ele>1583.0</ele>
  <time>2026-08-28T17:48:45Z</time>
  <course>248.11</course>
  <speed>0.022360679774997897</speed>
  <fix>3d</fix>
</trkpt>
<trkpt lat="40.0713749" lon="-105.229789">
  <ele>1583.0</ele>
  <time>2026-08-28T17:48:45Z</time>
  <course>0.0</course>
  <speed>0.0</speed>
  <fix>3d</fix>
</trkpt>
<trkpt lat="40.0713749" lon="-105.229789">
  <ele>1583.0</ele>
  <time>2026-08-28T17:48:45Z</time>
  <course>248.1</course>
  <speed>0.022360679774997897</speed>
  <fix>3d</fix>
</trkpt>
<trkpt lat="40.0713749" lon="-105.229789">
  <ele>1583.0</ele>
  <time>2026-08-28T17:48:45Z</time>
  <course>0.0</course>
  <speed>0.0</speed>
  <fix>3d</fix>
</trkpt>
<trkpt lat="40.0713749" lon="-105.229789">
  <ele>1583.0</ele>
  <time>2026-08-28T17:48:45Z</time>
  <course>248.1</course>
  <speed>0.022360679774997897</speed>
  <fix>3d</fix>
</trkpt>
<trkpt lat="40.0713749" lon="-105.229789">
  <ele>1583.0</ele>
  <time>2026-08-28T17:48:45Z</time>
  <course>0.0</course>
  <speed>0.0</speed>
  <fix>3d</fix>
</trkpt>
<trkpt lat="40.0713749" lon="-105.229789">
  <ele>1583.0</ele>
  <time>2026-08-28T17:48:45Z</time>
  <course>248.09</course>
  <speed>0.022360679774997897</speed>
  <fix>3d</fix>
</trkpt>
<trkpt lat="40.0713749" lon="-105.229789">
  <ele>1583.0</ele>
  <time>2026-08-28T17:48:45Z</time>
  <course>0.0</course>
  <speed>0.0</speed>
  <fix>3d</fix>
</trkpt>
<trkpt lat="40.0713749" lon="-105.229789">
  <ele>1583.0</ele>
  <time>2026-08-28T17:48:45Z</time>
  <course>248.09</course>
  <speed>0.022360679774997897</speed>
  <fix>3d</fix>
</trkpt>
<trkpt lat="40.0713749" lon="-105.229789">
  <ele>1583.0</ele>
  <time>2026-08-28T17:48:45Z</time>
  <course>0.0</course>
  <speed>0.0</speed>
  <fix>3d</fix>
</trkpt>
<trkpt lat="40.0713749" lon="-105.229789">
  <ele>1583.0</ele>
  <time>2026-08-28T17:48:45Z</time>
  <course>248.08</course>
  <speed>0.022360679774997897</speed>
  <fix>3d</fix>
</trkpt>
<trkpt lat="40.0713749" lon="-105.229789">
  <ele>1583.0</ele>
  <time>2026-08-28T17:48:45Z</time>
  <course>0.0</course>
  <speed>0.0</speed>
  <fix>3d</fix>
</trkpt>
<trkpt lat="40.0713749" lon="-105.229789">
  <ele>1583.0</ele>
  <time>2026-08-28T17:48:45Z</time>
  <course>248.08</course>
  <speed>0.022360679774997897</speed>
  <fix>3d</fix>
</trkpt>
<trkpt lat="40.0713749" lon="-105.229789">
  <ele>1583.0</ele>
  <time>2026-08-28T17:48:45Z</time>
  <course>0.0</course>
  <speed>0.0</speed>
  <fix>3d</fix>
</trkpt>
<trkpt lat="40.0713749" lon="-105.229789">
  <ele>1583.0</ele>
  <time>2026-08-28T17:48:45Z</time>
  <course>248.07</course>
  <speed>0.022360679774997897</speed>
  <fix>3d</fix>
</trkpt>
<trkpt lat="40.0713749" lon="-105.229789">
  <ele>1583.0</ele>
  <time>2026-08-28T17:48:45Z</time>
  <course>0.0</course>
  <speed>0.0</speed>
  <fix>3d</fix>
</trkpt>
<trkpt lat="40.0713749" lon="-105.229789">
  <ele>1583.0</ele>
  <time>2026-08-28T17:48:45Z</time>
  <course>248.07</course>
  <speed>0.022360679774997897</speed>
  <fix>3d</fix>
</trkpt>
<trkpt lat="40.0713749" lon="-105.229789">
  <ele>1583.0</ele>
  <time>2026-08-28T17:48:45Z</time>
  <course>0.0</course>
  <speed>0.0</speed>
  <fix>3d</fix>
</trkpt>
<trkpt lat="40.0713749" lon="-105.229789">
  <ele>1583.0</ele>
  <time>2026-08-28T17:48:45Z</time>
  <course>248.06</course>
  <speed>0.022360679774997897</speed>
  <fix>3d</fix>
</trkpt>
<trkpt lat="40.0713749" lon="-105.229789">
  <ele>1583.0</ele>
  <time>2026-08-28T17:48:45Z</time>
  <course>0.0</course>
  <speed>0.0</speed>
  <fix>3d</fix>
</trkpt>
<trkpt lat="40.0713749" lon="-105.229789">
  <ele>1583.0</ele>
  <time>2026-08-28T17:48:45Z</time>
  <course>248.06</course>
  <speed>0.022360679774997897</speed>
  <fix>3d</fix>
</trkpt>
<trkpt lat="40.0713749" lon="-105.229789">
  <ele>1583.0</ele>
  <time>2026-08-28T17:48:45Z</time>
  <course>0.0</course>
  <speed>0.0</speed>
  <fix>3d</fix>
</trkpt>
<trkpt lat="40.0713749" lon="-105.229789">
  <ele>1583.0</ele>
  <time>2026-08-28T17:48:45Z</time>
  <course>248.05</course>
  <speed>0.022360679774997897</speed>
  <fix>3d</fix>
</trkpt>
<trkpt lat="40.0713749" lon="-105.229789">
  <ele>1583.0</ele>
  <time>2026-08-28T17:48:45Z</time>
  <course>0.0</course>
  <speed>0.0</speed>
  <fix>3d</fix>
</trkpt>
<trkpt lat="40.0713749" lon="-105.229789">
  <ele>1583.0</ele>
  <time>2026-08-28T17:48:45Z</time>
  <course>248.05</course>
  <speed>0.022360679774997897</speed>
  <fix>3d</fix>
</trkpt>
<trkpt lat="40.0713749" lon="-105.229789">
  <ele>1583.0</ele>
  <time>2026-08-28T17:48:45Z</time>
  <course>0.0</course>
  <speed>0.0</speed>
  <fix>3d</fix>
</trkpt>
<trkpt lat="40.0713749" lon="-105.229789">
  <ele>1583.0</ele>
  <time>2026-08-28T17:48:45Z</time>
  <course>248.05</course>
  <speed>0.022360679774997897</speed>
  <fix>3d</fix>
</trkpt>
<trkpt lat="40.0713749" lon="-105.229789">
  <ele>1583.0</ele>
  <time>2026-08-28T17:48:45Z</time>
  <course>0.0</course>
  <speed>0.0</speed>
  <fix>3d</fix>
</trkpt>
<trkpt lat="40.0713749" lon="-105.229789">
  <ele>1583.0</ele>
  <time>2026-08-28T17:48:45Z</time>
  <course>248.04</course>
  <speed>0.022360679774997897</speed>
  <fix>3d</fix>
</trkpt>
<trkpt lat="40.0713749" lon="-105.229789">
  <ele>1583.0</ele>
  <time>2026-08-28T17:48:45Z</time>
  <course>0.0</course>
  <speed>0.0</speed>
  <fix>3d</fix>
</trkpt>
<trkpt lat="40.0713749" lon="-105.229789">
  <ele>1583.0</ele>
  <time>2026-08-28T17:48:45Z</time>
  <course>248.04</course>
  <speed>0.022360679774997897</speed>
  <fix>3d</fix>
</trkpt>
<trkpt lat="40.0713749" lon="-105.229789">
  <ele>1583.0</ele>
  <time>2026-08-28T17:48:45Z</time>
  <course>0.0</course>
  <speed>0.0</speed>
  <fix>3d</fix>
</trkpt>
<trkpt lat="40.0713749" lon="-105.229789">
  <ele>1583.0</ele>
  <time>2026-08-28T17:48:45Z</time>
  <course>248.03</course>
  <speed>0.022360679774997897</speed>
  <fix>3d</fix>
</trkpt>
<trkpt lat="40.0713749" lon="-105.229789">
  <ele>1583.0</ele>
  <time>2026-08-28T17:48:45Z</time>
  <course>0.0</course>
  <speed>0.0</speed>
  <fix>3d</fix>
</trkpt>
<trkpt lat="40.0713749" lon="-105.229789">
  <ele>1583.0</ele>
  <time>2026-08-28T17:48:45Z</time>
  <course>248.03</course>
  <speed>0.022360679774997897</speed>
  <fix>3d</fix>
</trkpt>
<trkpt lat="40.0713749" lon="-105.229789">
  <ele>1583.0</ele>
  <time>2026-08-28T17:48:45Z</time>
  <course>0.0</course>
  <speed>0.0</speed>
  <fix>3d</fix>
</trkpt>
<trkpt lat="40.0713749" lon="-105.229789">
  <ele>1583.0</ele>
  <time>2026-08-28T17:48:45Z</time>
  <course>248.02</course>
  <speed>0.022360679774997897</speed>
  <fix>3d</fix>
</trkpt>
<trkpt lat="40.0713749" lon="-105.229789">
  <ele>1583.0</ele>
  <time>2026-08-28T17:48:45Z</time>
  <course>0.0</course>
  <speed>0.0</speed>
  <fix>3d</fix>
</trkpt>
<trkpt lat="40.0713749" lon="-105.229789">
  <ele>1583.0</ele>
  <time>2026-08-28T17:48:45Z</time>
  <course>248.02</course>
  <speed>0.022360679774997897</speed>
  <fix>3d</fix>
</trkpt>
<trkpt lat="40.0713749" lon="-105.229789">
  <ele>1583.0</ele>
  <time>2026-08-28T17:48:45Z</time>
  <course>0.0</course>
  <speed>0.0</speed>
  <fix>3d</fix>
</trkpt>
<trkpt lat="40.0713749" lon="-105.229789">
  <ele>1583.0</ele>
  <time>2026-08-28T17:48:45Z</time>
  <course>248.01</course>
  <speed>0.022360679774997897</speed>
  <fix>3d</fix>
</trkpt>
<trkpt lat="40.0713749" lon="-105.229789">
  <ele>1583.0</ele>
  <time>2026-08-28T17:48:45Z</time>
  <course>0.0</course>
  <speed>0.0</speed>
  <fix>3d</fix>
</trkpt>
<trkpt lat="40.0713749" lon="-105.229789">
  <ele>1583.0</ele>
  <time>2026-08-28T17:48:45Z</time>
  <course>248.01</course>
  <speed>0.022360679774997897</speed>
  <fix>3d</fix>
</trkpt>
<trkpt lat="40.0713749" lon="-105.229789">
  <ele>1583.0</ele>
  <time>2026-08-28T17:48:45Z</time>
  <course>0.0</course>
  <speed>0.0</speed>
  <fix>3d</fix>
</trkpt>
<trkpt lat="40.0713749" lon="-105.229789">
  <ele>1583.0</ele>
  <time>2026-08-28T17:48:45Z</time>
  <course>248.0</course>
  <speed>0.022360679774997897</speed>
  <fix>3d</fix>
</trkpt>
<trkpt lat="40.0713749" lon="-105.229789">
  <ele>1583.0</ele>
  <time>2026-08-28T17:48:45Z</time>
  <course>0.0</course>
  <speed>0.0</speed>
  <fix>3d</fix>
</trkpt>
<trkpt lat="40.0713749" lon="-105.229789">
  <ele>1583.0</ele>
  <time>2026-08-28T17:48:45Z</time>
  <course>248.0</course>
  <speed>0.022360679774997897</speed>
  <fix>3d</fix>
</trkpt>
<trkpt lat="40.0713749" lon="-105.229789">
  <ele>1583.0</ele>
  <time>2026-08-28T17:48:45Z</time>
  <course>0.0</course>
  <speed>0.0</speed>
  <fix>3d</fix>
</trkpt>
<trkpt lat="40.0713749" lon="-105.229789">
  <ele>1583.0</ele>
  <time>2026-08-28T17:48:45Z</time>
  <course>247.99</course>
  <speed>0.022360679774997897</speed>
  <fix>3d</fix>
</trkpt>
<trkpt lat="40.0713749" lon="-105.229789">
  <ele>1583.0</ele>
  <time>2026-08-28T17:48:45Z</time>
  <course>0.0</course>
  <speed>0.0</speed>
  <fix>3d</fix>
</trkpt>
<trkpt lat="40.0713749" lon="-105.229789">
  <ele>1583.0</ele>
  <time>2026-08-28T17:48:45Z</time>
  <course>247.99</course>
  <speed>0.022360679774997897</speed>
  <fix>3d</fix>
</trkpt>
<trkpt lat="40.0713749" lon="-105.229789">
  <ele>1583.0</ele>
  <time>2026-08-28T17:48:45Z</time>
  <course>0.0</course>
  <speed>0.0</speed>
  <fix>3d</fix>
</trkpt>
<trkpt lat="40.0713749" lon="-105.229789">
  <ele>1583.0</ele>
  <time>2026-08-28T17:48:45Z</time>
  <course>247.99</course>
  <speed>0.022360679774997897</speed>
  <fix>3d</fix>
</trkpt>
<trkpt lat="40.0713749" lon="-105.229789">
  <ele>1583.0</ele>
  <time>2026-08-28T17:48:45Z</time>
  <course>0.0</course>
  <speed>0.0</speed>
  <fix>3d</fix>
</trkpt>
<trkpt lat="40.0713749" lon="-105.229789">
  <ele>1583.0</ele>
  <time>2026-08-28T17:48:45Z</time>
  <course>247.98</course>
  <speed>0.022360679774997897</speed>
  <fix>3d</fix>
</trkpt>
<trkpt lat="40.0713749" lon="-105.229789">
  <ele>1583.0</ele>
  <time>2026-08-28T17:48:45Z</time>
  <course>0.0</course>
  <speed>0.0</speed>
  <fix>3d</fix>
</trkpt>
<trkpt lat="40.0713749" lon="-105.229789">
  <ele>1583.0</ele>
  <time>2026-08-28T17:48:45Z</time>
  <course>247.98</course>
  <speed>0.022360679774997897</speed>
  <fix>3d</fix>
</trkpt>
<trkpt lat="40.0713749" lon="-105.229789">
  <ele>1583.0</ele>
  <time>2026-08-28T17:48:45Z</time>
  <course>0.0</course>
  <speed>0.0</speed>
  <fix>3d</fix>
</trkpt>
<trkpt lat="39.655741" lon="-104.1383097">
  <ele>1566.58</ele>
  <time>2026-08-28T17:48:46Z</time>
  <course>0.0</course>
  <speed>0.0</speed>
  <fix>3d</fix>
</trkpt>
<trkpt lat="40.0713749" lon="-105.229789">
  <ele>1583.0</ele>
  <time>2026-08-28T17:48:46Z</time>
  <course>0.0</course>
  <speed>0.0</speed>
  <fix>3d</fix>
</trkpt>
<trkpt lat="40.0713749" lon="-105.229789">
  <ele>1583.0</ele>
  <time>2026-08-28T17:48:46Z</time>
  <course>238.36</course>
  <speed>0.0</speed>
  <fix>3d</fix>
</trkpt>
<trkpt lat="40.0713749" lon="-105.229789">
  <ele>1583.0</ele>
  <time>2026-08-28T17:48:46Z</time>
  <course>0.0</course>
  <speed>0.0</speed>
  <fix>3d</fix>
</trkpt>
<trkpt lat="40.0713749" lon="-105.229789">
  <ele>1583.0</ele>
  <time>2026-08-28T17:48:46Z</time>
  <course>238.44</course>
  <speed>0.0</speed>
  <fix>3d</fix>
</trkpt>
<trkpt lat="40.0713749" lon="-105.229789">
  <ele>1583.0</ele>
  <time>2026-08-28T17:48:46Z</time>
  <course>0.0</course>
  <speed>0.0</speed>
  <fix>3d</fix>
</trkpt>
<trkpt lat="40.0713749" lon="-105.229789">
  <ele>1583.0</ele>
  <time>2026-08-28T17:48:46Z</time>
  <course>238.64</course>
  <speed>0.0</speed>
  <fix>3d</fix>
</trkpt>
<trkpt lat="40.0713749" lon="-105.229789">
  <ele>1583.0</ele>
  <time>2026-08-28T17:48:46Z</time>
  <course>0.0</course>
  <speed>0.0</speed>
  <fix>3d</fix>
</trkpt>
<trkpt lat="40.0713749" lon="-105.229789">
  <ele>1583.0</ele>
  <time>2026-08-28T17:48:46Z</time>
  <course>238.93</course>
  <speed>0.0</speed>
  <fix>3d</fix>
</trkpt>
<trkpt lat="40.0713749" lon="-105.229789">
  <ele>1583.0</ele>
  <time>2026-08-28T17:48:46Z</time>
  <course>0.0</course>
  <speed>0.0</speed>
  <fix>3d</fix>
</trkpt>
<trkpt lat="40.0713749" lon="-105.229789">
  <ele>1583.0</ele>
  <time>2026-08-28T17:48:46Z</time>
  <course>239.26</course>
  <speed>0.0</speed>
  <fix>3d</fix>
</trkpt>
<trkpt lat="40.0713749" lon="-105.229789">
  <ele>1583.0</ele>
  <time>2026-08-28T17:48:46Z</time>
  <course>0.0</course>
  <speed>0.0</speed>
  <fix>3d</fix>
</trkpt>
<trkpt lat="40.0713749" lon="-105.229789">
  <ele>1583.0</ele>
  <time>2026-08-28T17:48:46Z</time>
  <course>239.61</course>
  <speed>0.0</speed>
  <fix>3d</fix>
</trkpt>
<trkpt lat="40.0713749" lon="-105.229789">
  <ele>1583.0</ele>
  <time>2026-08-28T17:48:46Z</time>
  <course>0.0</course>
  <speed>0.0</speed>
  <fix>3d</fix>
</trkpt>
<trkpt lat="40.0713749" lon="-105.229789">
  <ele>1583.0</ele>
  <time>2026-08-28T17:48:46Z</time>
  <course>239.96</course>
  <speed>0.0</speed>
  <fix>3d</fix>
</trkpt>
<trkpt lat="40.0713749" lon="-105.229789">
  <ele>1583.0</ele>
  <time>2026-08-28T17:48:46Z</time>
  <course>0.0</course>
  <speed>0.0</speed>
  <fix>3d</fix>
</trkpt>
<trkpt lat="40.0713749" lon="-105.229789">
  <ele>1583.0</ele>
  <time>2026-08-28T17:48:46Z</time>
  <course>240.29</course>
  <speed>0.0</speed>
  <fix>3d</fix>
</trkpt>
<trkpt lat="40.0713749" lon="-105.229789">
  <ele>1583.0</ele>
  <time>2026-08-28T17:48:46Z</time>
  <course>0.0</course>
  <speed>0.0</speed>
  <fix>3d</fix>
</trkpt>
<trkpt lat="40.0713749" lon="-105.229789">
  <ele>1583.0</ele>
  <time>2026-08-28T17:48:46Z</time>
  <course>240.61</course>
  <speed>0.0</speed>
  <fix>3d</fix>
</trkpt>
<trkpt lat="40.0713749" lon="-105.229789">
  <ele>1583.0</ele>
  <time>2026-08-28T17:48:46Z</time>
  <course>0.0</course>
  <speed>0.0</speed>
  <fix>3d</fix>
</trkpt>
<trkpt lat="40.0713749" lon="-105.229789">
  <ele>1583.0</ele>
  <time>2026-08-28T17:48:46Z</time>
  <course>240.92</course>
  <speed>0.0</speed>
  <fix>3d</fix>
</trkpt>
<trkpt lat="40.0713749" lon="-105.229789">
  <ele>1583.0</ele>
  <time>2026-08-28T17:48:46Z</time>
  <course>0.0</course>
  <speed>0.0</speed>
  <fix>3d</fix>
</trkpt>
<trkpt lat="40.0713749" lon="-105.229789">
  <ele>1583.0</ele>
  <time>2026-08-28T17:48:46Z</time>
  <course>241.21</course>
  <speed>0.0</speed>
  <fix>3d</fix>
</trkpt>
<trkpt lat="40.0713749" lon="-105.229789">
  <ele>1583.0</ele>
  <time>2026-08-28T17:48:46Z</time>
  <course>0.0</course>
  <speed>0.0</speed>
  <fix>3d</fix>
</trkpt>
<trkpt lat="40.0713749" lon="-105.229789">
  <ele>1583.0</ele>
  <time>2026-08-28T17:48:46Z</time>
  <course>241.49</course>
  <speed>0.0</speed>
  <fix>3d</fix>
</trkpt>
<trkpt lat="40.0713749" lon="-105.229789">
  <ele>1583.0</ele>
  <time>2026-08-28T17:48:46Z</time>
  <course>0.0</course>
  <speed>0.0</speed>
  <fix>3d</fix>
</trkpt>
<trkpt lat="40.0713749" lon="-105.229789">
  <ele>1583.0</ele>
  <time>2026-08-28T17:48:46Z</time>
  <course>241.77</course>
  <speed>0.0</speed>
  <fix>3d</fix>
</trkpt>
<trkpt lat="40.0713749" lon="-105.229789">
  <ele>1583.0</ele>
  <time>2026-08-28T17:48:46Z</time>
  <course>0.0</course>
  <speed>0.0</speed>
  <fix>3d</fix>
</trkpt>
<trkpt lat="40.0713749" lon="-105.229789">
  <ele>1583.0</ele>
  <time>2026-08-28T17:48:46Z</time>
  <course>242.03</course>
  <speed>0.0</speed>
  <fix>3d</fix>
</trkpt>
<trkpt lat="40.0713749" lon="-105.229789">
  <ele>1583.0</ele>
  <time>2026-08-28T17:48:46Z</time>
  <course>0.0</course>
  <speed>0.0</speed>
  <fix>3d</fix>
</trkpt>
<trkpt lat="40.0713749" lon="-105.229789">
  <ele>1583.0</ele>
  <time>2026-08-28T17:48:46Z</time>
  <course>242.29</course>
  <speed>0.0</speed>
  <fix>3d</fix>
</trkpt>
<trkpt lat="40.0713749" lon="-105.229789">
  <ele>1583.0</ele>
  <time>2026-08-28T17:48:46Z</time>
  <course>0.0</course>
  <speed>0.0</speed>
  <fix>3d</fix>
</trkpt>
<trkpt lat="40.0713749" lon="-105.229789">
  <ele>1583.0</ele>
  <time>2026-08-28T17:48:46Z</time>
  <course>242.54</course>
  <speed>0.0</speed>
  <fix>3d</fix>
</trkpt>
<trkpt lat="40.0713749" lon="-105.229789">
  <ele>1583.0</ele>
  <time>2026-08-28T17:48:46Z</time>
  <course>0.0</course>
  <speed>0.0</speed>
  <fix>3d</fix>
</trkpt>
<trkpt lat="40.0713749" lon="-105.229789">
  <ele>1583.0</ele>
  <time>2026-08-28T17:48:46Z</time>
  <course>242.79</course>
  <speed>0.0</speed>
  <fix>3d</fix>
</trkpt>
<trkpt lat="40.0713749" lon="-105.229789">
  <ele>1583.0</ele>
  <time>2026-08-28T17:48:46Z</time>
  <course>0.0</course>
  <speed>0.0</speed>
  <fix>3d</fix>
</trkpt>
<trkpt lat="40.0713749" lon="-105.229789">
  <ele>1583.0</ele>
  <time>2026-08-28T17:48:46Z</time>
  <course>243.02</course>
  <speed>0.0</speed>
  <fix>3d</fix>
</trkpt>
<trkpt lat="40.0713749" lon="-105.229789">
  <ele>1583.0</ele>
  <time>2026-08-28T17:48:46Z</time>
  <course>0.0</course>
  <speed>0.0</speed>
  <fix>3d</fix>
</trkpt>
<trkpt lat="40.0713749" lon="-105.229789">
  <ele>1583.0</ele>
  <time>2026-08-28T17:48:46Z</time>
  <course>243.25</course>
  <speed>0.0</speed>
  <fix>3d</fix>
</trkpt>
<trkpt lat="40.0713749" lon="-105.229789">
  <ele>1583.0</ele>
  <time>2026-08-28T17:48:46Z</time>
  <course>0.0</course>
  <speed>0.0</speed>
  <fix>3d</fix>
</trkpt>
<trkpt lat="40.0713749" lon="-105.229789">
  <ele>1583.0</ele>
  <time>2026-08-28T17:48:46Z</time>
  <course>243.47</course>
  <speed>0.0</speed>
  <fix>3d</fix>
</trkpt>
<trkpt lat="40.0713749" lon="-105.229789">
  <ele>1583.0</ele>
  <time>2026-08-28T17:48:46Z</time>
  <course>0.0</course>
  <speed>0.0</speed>
  <fix>3d</fix>
</trkpt>
<trkpt lat="40.0713749" lon="-105.229789">
  <ele>1583.0</ele>
  <time>2026-08-28T17:48:46Z</time>
  <course>243.68</course>
  <speed>0.0</speed>
  <fix>3d</fix>
</trkpt>
<trkpt lat="40.0713749" lon="-105.229789">
  <ele>1583.0</ele>
  <time>2026-08-28T17:48:46Z</time>
  <course>0.0</course>
  <speed>0.0</speed>
  <fix>3d</fix>
</trkpt>
<trkpt lat="40.0713749" lon="-105.229789">
  <ele>1583.0</ele>
  <time>2026-08-28T17:48:46Z</time>
  <course>243.89</course>
  <speed>0.0</speed>
  <fix>3d</fix>
</trkpt>
<trkpt lat="40.0713749" lon="-105.229789">
  <ele>1583.0</ele>
  <time>2026-08-28T17:48:46Z</time>
  <course>0.0</course>
  <speed>0.0</speed>
  <fix>3d</fix>
</trkpt>
<trkpt lat="40.0713749" lon="-105.229789">
  <ele>1583.0</ele>
  <time>2026-08-28T17:48:46Z</time>
  <course>244.09</course>
  <speed>0.0</speed>
  <fix>3d</fix>
</trkpt>
<trkpt lat="40.0713749" lon="-105.229789">
  <ele>1583.0</ele>
  <time>2026-08-28T17:48:46Z</time>
  <course>0.0</course>
  <speed>0.0</speed>
  <fix>3d</fix>
</trkpt>
<trkpt lat="40.0713749" lon="-105.229789">
  <ele>1583.0</ele>
  <time>2026-08-28T17:48:46Z</time>
  <course>244.28</course>
  <speed>0.0</speed>
  <fix>3d</fix>
</trkpt>
<trkpt lat="40.0713749" lon="-105.229789">
  <ele>1583.0</ele>
  <time>2026-08-28T17:48:46Z</time>
  <course>0.0</course>
  <speed>0.0</speed>
  <fix>3d</fix>
</trkpt>
<trkpt lat="40.0713749" lon="-105.229789">
  <ele>1583.0</ele>
  <time>2026-08-28T17:48:46Z</time>
  <course>244.46</course>
  <speed>0.0</speed>
  <fix>3d</fix>
</trkpt>
<trkpt lat="40.0713749" lon="-105.229789">
  <ele>1583.0</ele>
  <time>2026-08-28T17:48:46Z</time>
  <course>0.0</course>
  <speed>0.0</speed>
  <fix>3d</fix>
</trkpt>
<trkpt lat="40.0713749" lon="-105.229789">
  <ele>1583.0</ele>
  <time>2026-08-28T17:48:46Z</time>
  <course>244.64</course>
  <speed>0.0</speed>
  <fix>3d</fix>
</trkpt>
<trkpt lat="40.0713749" lon="-105.229789">
  <ele>1583.0</ele>
  <time>2026-08-28T17:48:46Z</time>
  <course>0.0</course>
  <speed>0.0</speed>
  <fix>3d</fix>
</trkpt>
<trkpt lat="40.0713749" lon="-105.229789">
  <ele>1583.0</ele>
  <time>2026-08-28T17:48:46Z</time>
  <course>244.81</course>
  <speed>0.0</speed>
  <fix>3d</fix>
</trkpt>
<trkpt lat="40.0713749" lon="-105.229789">
  <ele>1583.0</ele>
  <time>2026-08-28T17:48:46Z</time>
  <course>0.0</course>
  <speed>0.0</speed>
  <fix>3d</fix>
</trkpt>
<trkpt lat="40.0713749" lon="-105.229789">
  <ele>1583.0</ele>
  <time>2026-08-28T17:48:46Z</time>
  <course>244.97</course>
  <speed>0.0</speed>
  <fix>3d</fix>
</trkpt>
<trkpt lat="40.0713749" lon="-105.229789">
  <ele>1583.0</ele>
  <time>2026-08-28T17:48:46Z</time>
  <course>0.0</course>
  <speed>0.0</speed>
  <fix>3d</fix>
</trkpt>
<trkpt lat="40.0713749" lon="-105.229789">
  <ele>1583.0</ele>
  <time>2026-08-28T17:48:46Z</time>
  <course>245.13</course>
  <speed>0.0</speed>
  <fix>3d</fix>
</trkpt>
<trkpt lat="40.0713749" lon="-105.229789">
  <ele>1583.0</ele>
  <time>2026-08-28T17:48:46Z</time>
  <course>0.0</course>
  <speed>0.0</speed>
  <fix>3d</fix>
</trkpt>
<trkpt lat="40.0713749" lon="-105.229789">
  <ele>1583.0</ele>
  <time>2026-08-28T17:48:46Z</time>
  <course>245.29</course>
  <speed>0.0</speed>
  <fix>3d</fix>
</trkpt>
<trkpt lat="40.0713749" lon="-105.229789">
  <ele>1583.0</ele>
  <time>2026-08-28T17:48:46Z</time>
  <course>0.0</course>
  <speed>0.0</speed>
  <fix>3d</fix>
</trkpt>
<trkpt lat="40.0713749" lon="-105.229789">
  <ele>1583.0</ele>
  <time>2026-08-28T17:48:46Z</time>
  <course>245.43</course>
  <speed>0.0</speed>
  <fix>3d</fix>
</trkpt>
<trkpt lat="40.0713749" lon="-105.229789">
  <ele>1583.0</ele>
  <time>2026-08-28T17:48:46Z</time>
  <course>0.0</course>
  <speed>0.0</speed>
  <fix>3d</fix>
</trkpt>
<trkpt lat="40.0713749" lon="-105.229789">
  <ele>1583.0</ele>
  <time>2026-08-28T17:48:46Z</time>
  <course>245.57</course>
  <speed>0.0</speed>
  <fix>3d</fix>
</trkpt>
<trkpt lat="40.0713749" lon="-105.229789">
  <ele>1583.0</ele>
  <time>2026-08-28T17:48:46Z</time>
  <course>0.0</course>
  <speed>0.0</speed>
  <fix>3d</fix>
</trkpt>
<trkpt lat="40.0713749" lon="-105.229789">
  <ele>1583.0</ele>
  <time>2026-08-28T17:48:46Z</time>
  <course>245.71</course>
  <speed>0.0</speed>
  <fix>3d</fix>
</trkpt>
<trkpt lat="40.0713749" lon="-105.229789">
  <ele>1583.0</ele>
  <time>2026-08-28T17:48:46Z</time>
  <course>0.0</course>
  <speed>0.0</speed>
  <fix>3d</fix>
</trkpt>
<trkpt lat="40.0713749" lon="-105.229789">
  <ele>1583.0</ele>
  <time>2026-08-28T17:48:46Z</time>
  <course>245.84</course>
  <speed>0.0</speed>
  <fix>3d</fix>
</trkpt>
<trkpt lat="40.0713749" lon="-105.229789">
  <ele>1583.0</ele>
  <time>2026-08-28T17:48:46Z</time>
  <course>0.0</course>
  <speed>0.0</speed>
  <fix>3d</fix>
</trkpt>
<trkpt lat="40.0713749" lon="-105.229789">
  <ele>1583.0</ele>
  <time>2026-08-28T17:48:46Z</time>
  <course>245.96</course>
  <speed>0.0</speed>
  <fix>3d</fix>
</trkpt>
<trkpt lat="40.0713749" lon="-105.229789">
  <ele>1583.0</ele>
  <time>2026-08-28T17:48:46Z</time>
  <course>0.0</course>
  <speed>0.0</speed>
  <fix>3d</fix>
</trkpt>
<trkpt lat="40.0713749" lon="-105.229789">
  <ele>1583.0</ele>
  <time>2026-08-28T17:48:46Z</time>
  <course>246.08</course>
  <speed>0.0</speed>
  <fix>3d</fix>
</trkpt>
<trkpt lat="40.0713749" lon="-105.229789">
  <ele>1583.0</ele>
  <time>2026-08-28T17:48:46Z</time>
  <course>0.0</course>
  <speed>0.0</speed>
  <fix>3d</fix>
</trkpt>
<trkpt lat="40.0713749" lon="-105.229789">
  <ele>1583.0</ele>
  <time>2026-08-28T17:48:46Z</time>
  <course>246.19</course>
  <speed>0.0</speed>
  <fix>3d</fix>
</trkpt>
<trkpt lat="40.0713749" lon="-105.229789">
  <ele>1583.0</ele>
  <time>2026-08-28T17:48:46Z</time>
  <course>0.0</course>
  <speed>0.0</speed>
  <fix>3d</fix>
</trkpt>
<trkpt lat="40.0713749" lon="-105.229789">
  <ele>1583.0</ele>
  <time>2026-08-28T17:48:46Z</time>
  <course>246.3</course>
  <speed>0.0</speed>
  <fix>3d</fix>
</trkpt>
<trkpt lat="40.0713749" lon="-105.229789">
  <ele>1583.0</ele>
  <time>2026-08-28T17:48:46Z</time>
  <course>0.0</course>
  <speed>0.0</speed>
  <fix>3d</fix>
</trkpt>
<trkpt lat="40.0713749" lon="-105.229789">
  <ele>1583.0</ele>
  <time>2026-08-28T17:48:46Z</time>
  <course>246.41</course>
  <speed>0.0</speed>
  <fix>3d</fix>
</trkpt>
<trkpt lat="40.0713749" lon="-105.229789">
  <ele>1583.0</ele>
  <time>2026-08-28T17:48:46Z</time>
  <course>0.0</course>
  <speed>0.0</speed>
  <fix>3d</fix>
</trkpt>
<trkpt lat="40.0713749" lon="-105.229789">
  <ele>1583.0</ele>
  <time>2026-08-28T17:48:46Z</time>
  <course>246.51</course>
  <speed>0.0</speed>
  <fix>3d</fix>
</trkpt>
<trkpt lat="40.0713749" lon="-105.229789">
  <ele>1583.0</ele>
  <time>2026-08-28T17:48:46Z</time>
  <course>0.0</course>
  <speed>0.0</speed>
  <fix>3d</fix>
</trkpt>
<trkpt lat="40.0713749" lon="-105.229789">
  <ele>1583.0</ele>
  <time>2026-08-28T17:48:46Z</time>
  <course>246.6</course>
  <speed>0.0</speed>
  <fix>3d</fix>
</trkpt>
<trkpt lat="40.0713749" lon="-105.229789">
  <ele>1583.0</ele>
  <time>2026-08-28T17:48:46Z</time>
  <course>0.0</course>
  <speed>0.0</speed>
  <fix>3d</fix>
</trkpt>
<trkpt lat="40.0713749" lon="-105.229789">
  <ele>1583.0</ele>
  <time>2026-08-28T17:48:46Z</time>
  <course>246.7</course>
  <speed>0.0</speed>
  <fix>3d</fix>
</trkpt>
<trkpt lat="40.0713749" lon="-105.229789">
  <ele>1583.0</ele>
  <time>2026-08-28T17:48:46Z</time>
  <course>0.0</course>
  <speed>0.0</speed>
  <fix>3d</fix>
</trkpt>
<trkpt lat="40.0713749" lon="-105.229789">
  <ele>1583.0</ele>
  <time>2026-08-28T17:48:46Z</time>
  <course>246.78</course>
  <speed>0.0</speed>
  <fix>3d</fix>
</trkpt>
<trkpt lat="40.0713749" lon="-105.229789">
  <ele>1583.0</ele>
  <time>2026-08-28T17:48:46Z</time>
  <course>0.0</course>
  <speed>0.0</speed>
  <fix>3d</fix>
</trkpt>
<trkpt lat="40.0713749" lon="-105.229789">
  <ele>1583.0</ele>
  <time>2026-08-28T17:48:46Z</time>
  <course>246.87</course>
  <speed>0.0</speed>
  <fix>3d</fix>
</trkpt>
<trkpt lat="40.0713749" lon="-105.229789">
  <ele>1583.0</ele>
  <time>2026-08-28T17:48:46Z</time>
  <course>0.0</course>
  <speed>0.0</speed>
  <fix>3d</fix>
</trkpt>
<trkpt lat="40.0713749" lon="-105.229789">
  <ele>1583.0</ele>
  <time>2026-08-28T17:48:46Z</time>
  <course>246.95</course>
  <speed>0.0</speed>
  <fix>3d</fix>
</trkpt>
<trkpt lat="40.0713749" lon="-105.229789">
  <ele>1583.0</ele>
  <time>2026-08-28T17:48:46Z</time>
  <course>0.0</course>
  <speed>0.0</speed>
  <fix>3d</fix>
</trkpt>
<trkpt lat="39.655741" lon="-104.1383097">
  <ele>1566.58</ele>
  <time>2026-08-28T17:48:49Z</time>
  <course>0.0</course>
  <speed>0.0</speed>
  <fix>3d</fix>
</trkpt>
<trkpt lat="40.0713749" lon="-105.229789">
  <ele>1583.0</ele>
  <time>2026-08-28T17:48:49Z</time>
  <course>0.0</course>
  <speed>0.0</speed>
  <fix>3d</fix>
</trkpt>
<trkpt lat="40.0713749" lon="-105.229789">
  <ele>1583.0</ele>
  <time>2026-08-28T17:48:49Z</time>
  <course>0.0</course>
  <speed>0.0</speed>
  <fix>3d</fix>
</trkpt>
<trkpt lat="40.0713749" lon="-105.229789">
  <ele>1583.0</ele>
  <time>2026-08-28T17:48:49Z</time>
  <course>0.0</course>
  <speed>0.0</speed>
  <fix>3d</fix>
</trkpt>
<trkpt lat="40.0713749" lon="-105.229789">
  <ele>1583.0</ele>
  <time>2026-08-28T17:48:49Z</time>
  <course>0.0</course>
  <speed>0.0</speed>
  <fix>3d</fix>
</trkpt>
<trkpt lat="40.0713749" lon="-105.229789">
  <ele>1583.0</ele>
  <time>2026-08-28T17:48:49Z</time>
  <course>0.0</course>
  <speed>0.0</speed>
  <fix>3d</fix>
</trkpt>
<trkpt lat="40.0713749" lon="-105.229789">
  <ele>1583.0</ele>
  <time>2026-08-28T17:48:49Z</time>
  <course>0.0</course>
  <speed>0.0</speed>
  <fix>3d</fix>
</trkpt>
<trkpt lat="40.0713749" lon="-105.229789">
  <ele>1583.0</ele>
  <time>2026-08-28T17:48:49Z</time>
  <course>0.0</course>
  <speed>0.0</speed>
  <fix>3d</fix>
</trkpt>
<trkpt lat="40.0713749" lon="-105.229789">
  <ele>1583.0</ele>
  <time>2026-08-28T17:48:49Z</time>
  <course>0.0</course>
  <speed>0.0</speed>
  <fix>3d</fix>
</trkpt>
<trkpt lat="40.0713749" lon="-105.229789">
  <ele>1583.0</ele>
  <time>2026-08-28T17:48:49Z</time>
  <course>0.0</course>
  <speed>0.0</speed>
  <fix>3d</fix>
</trkpt>
<trkpt lat="40.0713749" lon="-105.229789">
  <ele>1583.0</ele>
  <time>2026-08-28T17:48:49Z</time>
  <course>0.0</course>
  <speed>0.0</speed>
  <fix>3d</fix>
</trkpt>
<trkpt lat="40.0713749" lon="-105.229789">
  <ele>1583.0</ele>
  <time>2026-08-28T17:48:49Z</time>
  <course>0.0</course>
  <speed>0.0</speed>
  <fix>3d</fix>
</trkpt>
<trkpt lat="40.0713749" lon="-105.229789">
  <ele>1583.0</ele>
  <time>2026-08-28T17:48:49Z</time>
  <course>0.0</course>
  <speed>0.0</speed>
  <fix>3d</fix>
</trkpt>
<trkpt lat="40.0713749" lon="-105.229789">
  <ele>1583.0</ele>
  <time>2026-08-28T17:48:49Z</time>
  <course>0.0</course>
  <speed>0.0</speed>
  <fix>3d</fix>
</trkpt>
<trkpt lat="40.0713749" lon="-105.229789">
  <ele>1583.0</ele>
  <time>2026-08-28T17:48:49Z</time>
  <course>0.0</course>
  <speed>0.0</speed>
  <fix>3d</fix>
</trkpt>
<trkpt lat="40.0713749" lon="-105.229789">
  <ele>1583.0</ele>
  <time>2026-08-28T17:48:49Z</time>
  <course>0.0</course>
  <speed>0.0</speed>
  <fix>3d</fix>
</trkpt>
<trkpt lat="40.0713749" lon="-105.229789">
  <ele>1583.0</ele>
  <time>2026-08-28T17:48:49Z</time>
  <course>0.0</course>
  <speed>0.0</speed>
  <fix>3d</fix>
</trkpt>
<trkpt lat="40.0713749" lon="-105.229789">
  <ele>1583.0</ele>
  <time>2026-08-28T17:48:49Z</time>
  <course>0.0</course>
  <speed>0.0</speed>
  <fix>3d</fix>
</trkpt>
<trkpt lat="40.0713749" lon="-105.229789">
  <ele>1583.0</ele>
  <time>2026-08-28T17:48:49Z</time>
  <course>0.0</course>
  <speed>0.0</speed>
  <fix>3d</fix>
</trkpt>
<trkpt lat="40.0713749" lon="-105.229789">
  <ele>1583.0</ele>
  <time>2026-08-28T17:48:49Z</time>
  <course>0.0</course>
  <speed>0.0</speed>
  <fix>3d</fix>
</trkpt>
<trkpt lat="40.0713749" lon="-105.229789">
  <ele>1583.0</ele>
  <time>2026-08-28T17:48:49Z</time>
  <course>0.0</course>
  <speed>0.0</speed>
  <fix>3d</fix>
</trkpt>
<trkpt lat="40.0713749" lon="-105.229789">
  <ele>1583.0</ele>
  <time>2026-08-28T17:48:49Z</time>
  <course>0.0</course>
  <speed>0.0</speed>
  <fix>3d</fix>
</trkpt>
<trkpt lat="40.0713749" lon="-105.229789">
  <ele>1583.0</ele>
  <time>2026-08-28T17:48:49Z</time>
  <course>0.0</course>
  <speed>0.0</speed>
  <fix>3d</fix>
</trkpt>
<trkpt lat="40.0713749" lon="-105.229789">
  <ele>1583.0</ele>
  <time>2026-08-28T17:48:49Z</time>
  <course>0.0</course>
  <speed>0.0</speed>
  <fix>3d</fix>
</trkpt>
<trkpt lat="40.0713749" lon="-105.229789">
  <ele>1583.0</ele>
  <time>2026-08-28T17:48:49Z</time>
  <course>0.0</course>
  <speed>0.0</speed>
  <fix>3d</fix>
</trkpt>
<trkpt lat="40.0713749" lon="-105.229789">
  <ele>1583.0</ele>
  <time>2026-08-28T17:48:49Z</time>
  <course>0.0</course>
  <speed>0.0</speed>
  <fix>3d</fix>
</trkpt>
<trkpt lat="40.0713749" lon="-105.229789">
  <ele>1583.0</ele>
  <time>2026-08-28T17:48:49Z</time>
  <course>0.0</course>
  <speed>0.0</speed>
  <fix>3d</fix>
</trkpt>
<trkpt lat="40.0713749" lon="-105.229789">
  <ele>1583.0</ele>
  <time>2026-08-28T17:48:49Z</time>
  <course>0.0</course>
  <speed>0.0</speed>
  <fix>3d</fix>
</trkpt>
<trkpt lat="40.0713749" lon="-105.229789">
  <ele>1583.0</ele>
  <time>2026-08-28T17:48:49Z</time>
  <course>0.0</course>
  <speed>0.0</speed>
  <fix>3d</fix>
</trkpt>
<trkpt lat="40.0713749" lon="-105.229789">
  <ele>1583.0</ele>
  <time>2026-08-28T17:48:49Z</time>
  <course>0.0</course>
  <speed>0.0</speed>
  <fix>3d</fix>
</trkpt>
<trkpt lat="40.0713749" lon="-105.229789">
  <ele>1583.0</ele>
  <time>2026-08-28T17:48:49Z</time>
  <course>0.0</course>
  <speed>0.0</speed>
  <fix>3d</fix>
</trkpt>
<trkpt lat="40.0713749" lon="-105.229789">
  <ele>1583.0</ele>
  <time>2026-08-28T17:48:49Z</time>
  <course>0.0</course>
  <speed>0.0</speed>
  <fix>3d</fix>
</trkpt>
<trkpt lat="40.0713749" lon="-105.229789">
  <ele>1583.0</ele>
  <time>2026-08-28T17:48:49Z</time>
  <course>0.0</course>
  <speed>0.0</speed>
  <fix>3d</fix>
</trkpt>
<trkpt lat="40.0713749" lon="-105.229789">
  <ele>1583.0</ele>
  <time>2026-08-28T17:48:49Z</time>
  <course>0.0</course>
  <speed>0.0</speed>
  <fix>3d</fix>
</trkpt>
<trkpt lat="40.0713749" lon="-105.229789">
  <ele>1583.0</ele>
  <time>2026-08-28T17:48:49Z</time>
  <course>0.0</course>
  <speed>0.0</speed>
  <fix>3d</fix>
</trkpt>
<trkpt lat="40.0713749" lon="-105.229789">
  <ele>1583.0</ele>
  <time>2026-08-28T17:48:49Z</time>
  <course>0.0</course>
  <speed>0.0</speed>
  <fix>3d</fix>
</trkpt>
<trkpt lat="40.0713749" lon="-105.229789">
  <ele>1583.0</ele>
  <time>2026-08-28T17:48:49Z</time>
  <course>0.0</course>
  <speed>0.0</speed>
  <fix>3d</fix>
</trkpt>
<trkpt lat="40.0713749" lon="-105.229789">
  <ele>1583.0</ele>
  <time>2026-08-28T17:48:49Z</time>
  <course>0.0</course>
  <speed>0.0</speed>
  <fix>3d</fix>
</trkpt>
<trkpt lat="40.0713749" lon="-105.229789">
  <ele>1583.0</ele>
  <time>2026-08-28T17:48:49Z</time>
  <course>0.0</course>
  <speed>0.0</speed>
  <fix>3d</fix>
</trkpt>
<trkpt lat="40.0713749" lon="-105.229789">
  <ele>1583.0</ele>
  <time>2026-08-28T17:48:49Z</time>
  <course>0.0</course>
  <speed>0.0</speed>
  <fix>3d</fix>
</trkpt>
<trkpt lat="40.0713749" lon="-105.229789">
  <ele>1583.0</ele>
  <time>2026-08-28T17:48:49Z</time>
  <course>0.0</course>
  <speed>0.0</speed>
  <fix>3d</fix>
</trkpt>
<trkpt lat="40.0713749" lon="-105.229789">
  <ele>1583.0</ele>
  <time>2026-08-28T17:48:49Z</time>
  <course>0.0</course>
  <speed>0.0</speed>
  <fix>3d</fix>
</trkpt>
<trkpt lat="40.0713749" lon="-105.229789">
  <ele>1583.0</ele>
  <time>2026-08-28T17:48:49Z</time>
  <course>0.0</course>
  <speed>0.0</speed>
  <fix>3d</fix>
</trkpt>
<trkpt lat="40.0713749" lon="-105.229789">
  <ele>1583.0</ele>
  <time>2026-08-28T17:48:49Z</time>
  <course>0.0</course>
  <speed>0.0</speed>
  <fix>3d</fix>
</trkpt>
<trkpt lat="40.0713749" lon="-105.229789">
  <ele>1583.0</ele>
  <time>2026-08-28T17:48:49Z</time>
  <course>0.0</course>
  <speed>0.0</speed>
  <fix>3d</fix>
</trkpt>
<trkpt lat="40.0713749" lon="-105.229789">
  <ele>1583.0</ele>
  <time>2026-08-28T17:48:49Z</time>
  <course>0.0</course>
  <speed>0.0</speed>
  <fix>3d</fix>
</trkpt>
<trkpt lat="40.0713749" lon="-105.229789">
  <ele>1583.0</ele>
  <time>2026-08-28T17:48:49Z</time>
  <course>0.0</course>
  <speed>0.0</speed>
  <fix>3d</fix>
</trkpt>
<trkpt lat="40.0713749" lon="-105.229789">
  <ele>1583.0</ele>
  <time>2026-08-28T17:48:49Z</time>
  <course>0.0</course>
  <speed>0.0</speed>
  <fix>3d</fix>
</trkpt>
<trkpt lat="40.0713749" lon="-105.229789">
  <ele>1583.0</ele>
  <time>2026-08-28T17:48:49Z</time>
  <course>0.0</course>
  <speed>0.0</speed>
  <fix>3d</fix>
</trkpt>
<trkpt lat="40.0713749" lon="-105.229789">
  <ele>1583.0</ele>
  <time>2026-08-28T17:48:49Z</time>
  <course>0.0</course>
  <speed>0.0</speed>
  <fix>3d</fix>
</trkpt>
<trkpt lat="40.0713749" lon="-105.229789">
  <ele>1583.0</ele>
  <time>2026-08-28T17:48:49Z</time>
  <course>0.0</course>
  <speed>0.0</speed>
  <fix>3d</fix>
</trkpt>
<trkpt lat="40.0713749" lon="-105.229789">
  <ele>1583.0</ele>
  <time>2026-08-28T17:48:49Z</time>
  <course>0.0</course>
  <speed>0.0</speed>
  <fix>3d</fix>
</trkpt>
<trkpt lat="40.0713749" lon="-105.229789">
  <ele>1583.0</ele>
  <time>2026-08-28T17:48:49Z</time>
  <course>0.0</course>
  <speed>0.0</speed>
  <fix>3d</fix>
</trkpt>
<trkpt lat="40.0713749" lon="-105.229789">
  <ele>1583.0</ele>
  <time>2026-08-28T17:48:49Z</time>
  <course>0.0</course>
  <speed>0.0</speed>
  <fix>3d</fix>
</trkpt>
<trkpt lat="40.0713749" lon="-105.229789">
  <ele>1583.0</ele>
  <time>2026-08-28T17:48:49Z</time>
  <course>0.0</course>
  <speed>0.0</speed>
  <fix>3d</fix>
</trkpt>
<trkpt lat="40.0713749" lon="-105.229789">
  <ele>1583.0</ele>
  <time>2026-08-28T17:48:49Z</time>
  <course>0.0</course>
  <speed>0.0</speed>
  <fix>3d</fix>
</trkpt>
<trkpt lat="40.0713749" lon="-105.229789">
  <ele>1583.0</ele>
  <time>2026-08-28T17:48:49Z</time>
  <course>0.0</course>
  <speed>0.0</speed>
  <fix>3d</fix>
</trkpt>
<trkpt lat="40.0713749" lon="-105.229789">
  <ele>1583.0</ele>
  <time>2026-08-28T17:48:49Z</time>
  <course>0.0</course>
  <speed>0.0</speed>
  <fix>3d</fix>
</trkpt>
<trkpt lat="40.0713749" lon="-105.229789">
  <ele>1583.0</ele>
  <time>2026-08-28T17:48:49Z</time>
  <course>0.0</course>
  <speed>0.0</speed>
  <fix>3d</fix>
</trkpt>
<trkpt lat="40.0713749" lon="-105.229789">
  <ele>1583.0</ele>
  <time>2026-08-28T17:48:49Z</time>
  <course>0.0</course>
  <speed>0.0</speed>
  <fix>3d</fix>
</trkpt>
<trkpt lat="40.0713749" lon="-105.229789">
  <ele>1583.0</ele>
  <time>2026-08-28T17:48:49Z</time>
  <course>0.0</course>
  <speed>0.0</speed>
  <fix>3d</fix>
</trkpt>
<trkpt lat="40.0713749" lon="-105.229789">
  <ele>1583.0</ele>
  <time>2026-08-28T17:48:49Z</time>
  <course>0.0</course>
  <speed>0.0</speed>
  <fix>3d</fix>
</trkpt>
<trkpt lat="40.0713749" lon="-105.229789">
  <ele>1583.0</ele>
  <time>2026-08-28T17:48:49Z</time>
  <course>0.0</course>
  <speed>0.0</speed>
  <fix>3d</fix>
</trkpt>
<trkpt lat="40.0713749" lon="-105.229789">
  <ele>1583.0</ele>
  <time>2026-08-28T17:48:49Z</time>
  <course>0.0</course>
  <speed>0.0</speed>
  <fix>3d</fix>
</trkpt>
<trkpt lat="40.0713749" lon="-105.229789">
  <ele>1583.0</ele>
  <time>2026-08-28T17:48:49Z</time>
  <course>0.0</course>
  <speed>0.0</speed>
  <fix>3d</fix>
</trkpt>
<trkpt lat="40.0713749" lon="-105.229789">
  <ele>1583.0</ele>
  <time>2026-08-28T17:48:49Z</time>
  <course>0.0</course>
  <speed>0.0</speed>
  <fix>3d</fix>
</trkpt>
<trkpt lat="40.0713749" lon="-105.229789">
  <ele>1583.0</ele>
  <time>2026-08-28T17:48:49Z</time>
  <course>0.0</course>
  <speed>0.0</speed>
  <fix>3d</fix>
</trkpt>
<trkpt lat="40.0713749" lon="-105.229789">
  <ele>1583.0</ele>
  <time>2026-08-28T17:48:49Z</time>
  <course>0.0</course>
  <speed>0.0</speed>
  <fix>3d</fix>
</trkpt>
<trkpt lat="40.0713749" lon="-105.229789">
  <ele>1583.0</ele>
  <time>2026-08-28T17:48:49Z</time>
  <course>0.0</course>
  <speed>0.0</speed>
  <fix>3d</fix>
</trkpt>
<trkpt lat="40.0713749" lon="-105.229789">
  <ele>1583.0</ele>
  <time>2026-08-28T17:48:49Z</time>
  <course>0.0</course>
  <speed>0.0</speed>
  <fix>3d</fix>
</trkpt>
<trkpt lat="40.0713749" lon="-105.229789">
  <ele>1583.0</ele>
  <time>2026-08-28T17:48:49Z</time>
  <course>0.0</course>
  <speed>0.0</speed>
  <fix>3d</fix>
</trkpt>
<trkpt lat="40.0713749" lon="-105.229789">
  <ele>1583.0</ele>
  <time>2026-08-28T17:48:49Z</time>
  <course>0.0</course>
  <speed>0.0</speed>
  <fix>3d</fix>
</trkpt>
<trkpt lat="40.0713749" lon="-105.229789">
  <ele>1583.0</ele>
  <time>2026-08-28T17:48:49Z</time>
  <course>0.0</course>
  <speed>0.0</speed>
  <fix>3d</fix>
</trkpt>
<trkpt lat="40.0713749" lon="-105.229789">
  <ele>1583.0</ele>
  <time>2026-08-28T17:48:49Z</time>
  <course>0.0</course>
  <speed>0.0</speed>
  <fix>3d</fix>
</trkpt>
<trkpt lat="40.0713749" lon="-105.229789">
  <ele>1583.0</ele>
  <time>2026-08-28T17:48:49Z</time>
  <course>0.0</course>
  <speed>0.0</speed>
  <fix>3d</fix>
</trkpt>
<trkpt lat="40.0713749" lon="-105.229789">
  <ele>1583.0</ele>
  <time>2026-08-28T17:48:49Z</time>
  <course>0.0</course>
  <speed>0.0</speed>
  <fix>3d</fix>
</trkpt>
<trkpt lat="40.0713749" lon="-105.229789">
  <ele>1583.0</ele>
  <time>2026-08-28T17:48:49Z</time>
  <course>0.0</course>
  <speed>0.0</speed>
  <fix>3d</fix>
</trkpt>
<trkpt lat="40.0713749" lon="-105.229789">
  <ele>1583.0</ele>
  <time>2026-08-28T17:48:49Z</time>
  <course>0.0</course>
  <speed>0.0</speed>
  <fix>3d</fix>
</trkpt>
<trkpt lat="40.0713749" lon="-105.229789">
  <ele>1583.0</ele>
  <time>2026-08-28T17:48:49Z</time>
  <course>0.0</course>
  <speed>0.0</speed>
  <fix>3d</fix>
</trkpt>
<trkpt lat="40.0713749" lon="-105.229789">
  <ele>1583.0</ele>
  <time>2026-08-28T17:48:49Z</time>
  <course>0.0</course>
  <speed>0.0</speed>
  <fix>3d</fix>
</trkpt>
<trkpt lat="40.0713749" lon="-105.229789">
  <ele>1583.0</ele>
  <time>2026-08-28T17:48:49Z</time>
  <course>0.0</course>
  <speed>0.0</speed>
  <fix>3d</fix>
</trkpt>
<trkpt lat="40.0713749" lon="-105.229789">
  <ele>1583.0</ele>
  <time>2026-08-28T17:48:49Z</time>
  <course>0.0</course>
  <speed>0.0</speed>
  <fix>3d</fix>
</trkpt>
<trkpt lat="40.0713749" lon="-105.229789">
  <ele>1583.0</ele>
  <time>2026-08-28T17:48:49Z</time>
  <course>0.0</course>
  <speed>0.0</speed>
  <fix>3d</fix>
</trkpt>
<trkpt lat="40.0713749" lon="-105.229789">
  <ele>1583.0</ele>
  <time>2026-08-28T17:48:49Z</time>
  <course>0.0</course>
  <speed>0.0</speed>
  <fix>3d</fix>
</trkpt>
<trkpt lat="40.0713749" lon="-105.229789">
  <ele>1583.0</ele>
  <time>2026-08-28T17:48:49Z</time>
  <course>0.0</course>
  <speed>0.0</speed>
  <fix>3d</fix>
</trkpt>
<trkpt lat="40.0713749" lon="-105.229789">
  <ele>1583.0</ele>
  <time>2026-08-28T17:48:49Z</time>
  <course>0.0</course>
  <speed>0.0</speed>
  <fix>3d</fix>
</trkpt>
<trkpt lat="40.0713749" lon="-105.229789">
  <ele>1583.0</ele>
  <time>2026-08-28T17:48:49Z</time>
  <course>0.0</course>
  <speed>0.0</speed>
  <fix>3d</fix>
</trkpt>
<trkpt lat="40.0713749" lon="-105.229789">
  <ele>1583.0</ele>
  <time>2026-08-28T17:48:49Z</time>
  <course>0.0</course>
  <speed>0.0</speed>
  <fix>3d</fix>
</trkpt>
<trkpt lat="40.0713749" lon="-105.229789">
  <ele>1583.0</ele>
  <time>2026-08-28T17:48:49Z</time>
  <course>0.0</course>
  <speed>0.0</speed>
  <fix>3d</fix>
</trkpt>
<trkpt lat="40.0713749" lon="-105.229789">
  <ele>1583.0</ele>
  <time>2026-08-28T17:48:49Z</time>
  <course>0.0</course>
  <speed>0.0</speed>
  <fix>3d</fix>
</trkpt>
<trkpt lat="40.0713749" lon="-105.229789">
  <ele>1583.0</ele>
  <time>2026-08-28T17:48:49Z</time>
  <course>0.0</course>
  <speed>0.0</speed>
  <fix>3d</fix>
</trkpt>
<trkpt lat="40.0713749" lon="-105.229789">
  <ele>1583.0</ele>
  <time>2026-08-28T17:48:49Z</time>
  <course>0.0</course>
  <speed>0.0</speed>
  <fix>3d</fix>
</trkpt>
<trkpt lat="40.0713749" lon="-105.229789">
  <ele>1583.0</ele>
  <time>2026-08-28T17:48:49Z</time>
  <course>0.0</course>
  <speed>0.0</speed>
  <fix>3d</fix>
</trkpt>
<trkpt lat="40.0713749" lon="-105.229789">
  <ele>1583.0</ele>
  <time>2026-08-28T17:48:49Z</time>
  <course>0.0</course>
  <speed>0.0</speed>
  <fix>3d</fix>
</trkpt>
<trkpt lat="40.0713749" lon="-105.229789">
  <ele>1583.0</ele>
  <time>2026-08-28T17:48:49Z</time>
  <course>0.0</course>
  <speed>0.0</speed>
  <fix>3d</fix>
</trkpt>
<trkpt lat="40.0713749" lon="-105.229789">
  <ele>1583.0</ele>
  <time>2026-08-28T17:48:49Z</time>
  <course>0.0</course>
  <speed>0.0</speed>
  <fix>3d</fix>
</trkpt>
<trkpt lat="40.0713749" lon="-105.229789">
  <ele>1583.0</ele>
  <time>2026-08-28T17:48:49Z</time>
  <course>0.0</course>
  <speed>0.0</speed>
  <fix>3d</fix>
</trkpt>
<trkpt lat="40.0713749" lon="-105.229789">
  <ele>1583.0</ele>
  <time>2026-08-28T17:48:49Z</time>
  <course>0.0</course>
  <speed>0.0</speed>
  <fix>3d</fix>
</trkpt>
<trkpt lat="40.0713749" lon="-105.229789">
  <ele>1583.0</ele>
  <time>2026-08-28T17:48:49Z</time>
  <course>0.0</course>
  <speed>0.0</speed>
  <fix>3d</fix>
</trkpt>
<trkpt lat="40.0713749" lon="-105.229789">
  <ele>1583.0</ele>
  <time>2026-08-28T17:48:49Z</time>
  <course>0.0</course>
  <speed>0.0</speed>
  <fix>3d</fix>
</trkpt>
<trkpt lat="40.0713749" lon="-105.229789">
  <ele>1583.0</ele>
  <time>2026-08-28T17:48:49Z</time>
  <course>0.0</course>
  <speed>0.0</speed>
  <fix>3d</fix>
</trkpt>
<trkpt lat="40.0713749" lon="-105.229789">
  <ele>1583.0</ele>
  <time>2026-08-28T17:48:49Z</time>
  <course>0.0</course>
  <speed>0.0</speed>
  <fix>3d</fix>
</trkpt>
<trkpt lat="40.0713749" lon="-105.229789">
  <ele>1583.0</ele>
  <time>2026-08-28T17:48:49Z</time>
  <course>0.0</course>
  <speed>0.0</speed>
  <fix>3d</fix>
</trkpt>
<trkpt lat="40.0713749" lon="-105.229789">
  <ele>1583.0</ele>
  <time>2026-08-28T17:48:49Z</time>
  <course>0.0</course>
  <speed>0.0</speed>
  <fix>3d</fix>
</trkpt>
<trkpt lat="40.0713749" lon="-105.229789">
  <ele>1583.0</ele>
  <time>2026-08-28T17:48:49Z</time>
  <course>0.0</course>
  <speed>0.0</speed>
  <fix>3d</fix>
</trkpt>
<trkpt lat="40.0713749" lon="-105.229789">
  <ele>1583.0</ele>
  <time>2026-08-28T17:48:49Z</time>
  <course>0.0</course>
  <speed>0.0</speed>
  <fix>3d</fix>
</trkpt>
<trkpt lat="40.0713749" lon="-105.229789">
  <ele>1583.0</ele>
  <time>2026-08-28T17:48:49Z</time>
  <course>0.0</course>
  <speed>0.0</speed>
  <fix>3d</fix>
</trkpt>
<trkpt lat="40.0713749" lon="-105.229789">
  <ele>1583.0</ele>
  <time>2026-08-28T17:48:49Z</time>
  <course>0.0</course>
  <speed>0.0</speed>
  <fix>3d</fix>
</trkpt>
<trkpt lat="40.0713749" lon="-105.229789">
  <ele>1583.0</ele>
  <time>2026-08-28T17:48:49Z</time>
  <course>0.0</course>
  <speed>0.0</speed>
  <fix>3d</fix>
</trkpt>
<trkpt lat="40.0713749" lon="-105.229789">
  <ele>1583.0</ele>
  <time>2026-08-28T17:48:49Z</time>
  <course>0.0</course>
  <speed>0.0</speed>
  <fix>3d</fix>
</trkpt>
<trkpt lat="40.0713749" lon="-105.229789">
  <ele>1583.0</ele>
  <time>2026-08-28T17:48:49Z</time>
  <course>0.0</course>
  <speed>0.0</speed>
  <fix>3d</fix>
</trkpt>
<trkpt lat="40.0713749" lon="-105.229789">
  <ele>1583.0</ele>
  <time>2026-08-28T17:48:49Z</time>
  <course>0.0</course>
  <speed>0.0</speed>
  <fix>3d</fix>
</trkpt>
<trkpt lat="40.0713749" lon="-105.229789">
  <ele>1583.0</ele>
  <time>2026-08-28T17:48:49Z</time>
  <course>0.0</course>
  <speed>0.0</speed>
  <fix>3d</fix>
</trkpt>
<trkpt lat="40.0713749" lon="-105.229789">
  <ele>1583.0</ele>
  <time>2026-08-28T17:48:49Z</time>
  <course>0.0</course>
  <speed>0.0</speed>
  <fix>3d</fix>
</trkpt>
<trkpt lat="40.0713749" lon="-105.229789">
  <ele>1583.0</ele>
  <time>2026-08-28T17:48:49Z</time>
  <course>0.0</course>
  <speed>0.0</speed>
  <fix>3d</fix>
</trkpt>
<trkpt lat="40.0713749" lon="-105.229789">
  <ele>1583.0</ele>
  <time>2026-08-28T17:48:49Z</time>
  <course>0.0</course>
  <speed>0.0</speed>
  <fix>3d</fix>
</trkpt>
<trkpt lat="40.0713749" lon="-105.229789">
  <ele>1583.0</ele>
  <time>2026-08-28T17:48:49Z</time>
  <course>0.0</course>
  <speed>0.0</speed>
  <fix>3d</fix>
</trkpt>
<trkpt lat="40.0713749" lon="-105.229789">
  <ele>1583.0</ele>
  <time>2026-08-28T17:48:49Z</time>
  <course>0.0</course>
  <speed>0.0</speed>
  <fix>3d</fix>
</trkpt>
<trkpt lat="40.0713749" lon="-105.229789">
  <ele>1583.0</ele>
  <time>2026-08-28T17:48:49Z</time>
  <course>0.0</course>
  <speed>0.0</speed>
  <fix>3d</fix>
</trkpt>
<trkpt lat="40.0713749" lon="-105.229789">
  <ele>1583.0</ele>
  <time>2026-08-28T17:48:49Z</time>
  <course>0.0</course>
  <speed>0.0</speed>
  <fix>3d</fix>
</trkpt>
<trkpt lat="40.0713749" lon="-105.229789">
  <ele>1583.0</ele>
  <time>2026-08-28T17:48:49Z</time>
  <course>0.0</course>
  <speed>0.0</speed>
  <fix>3d</fix>
</trkpt>
<trkpt lat="40.0713749" lon="-105.229789">
  <ele>1583.0</ele>
  <time>2026-08-28T17:48:49Z</time>
  <course>0.0</course>
  <speed>0.0</speed>
  <fix>3d</fix>
</trkpt>
<trkpt lat="40.0713749" lon="-105.229789">
  <ele>1583.0</ele>
  <time>2026-08-28T17:48:49Z</time>
  <course>0.0</course>
  <speed>0.0</speed>
  <fix>3d</fix>
</trkpt>
<trkpt lat="40.0713749" lon="-105.229789">
  <ele>1583.0</ele>
  <time>2026-08-28T17:48:49Z</time>
  <course>0.0</course>
  <speed>0.0</speed>
  <fix>3d</fix>
</trkpt>
<trkpt lat="40.0713749" lon="-105.229789">
  <ele>1583.0</ele>
  <time>2026-08-28T17:48:49Z</time>
  <course>0.0</course>
  <speed>0.0</speed>
  <fix>3d</fix>
</trkpt>
<trkpt lat="40.0713749" lon="-105.229789">
  <ele>1583.0</ele>
  <time>2026-08-28T17:48:49Z</time>
  <course>0.0</course>
  <speed>0.0</speed>
  <fix>3d</fix>
</trkpt>
<trkpt lat="40.0713749" lon="-105.229789">
  <ele>1583.0</ele>
  <time>2026-08-28T17:48:49Z</time>
  <course>0.0</course>
  <speed>0.0</speed>
  <fix>3d</fix>
</trkpt>
<trkpt lat="40.0713749" lon="-105.229789">
  <ele>1583.0</ele>
  <time>2026-08-28T17:48:49Z</time>
  <course>0.0</course>
  <speed>0.0</speed>
  <fix>3d</fix>
</trkpt>
<trkpt lat="40.0713749" lon="-105.229789">
  <ele>1583.0</ele>
  <time>2026-08-28T17:48:49Z</time>
  <course>0.0</course>
  <speed>0.0</speed>
  <fix>3d</fix>
</trkpt>
<trkpt lat="40.0713749" lon="-105.229789">
  <ele>1583.0</ele>
  <time>2026-08-28T17:48:49Z</time>
  <course>0.0</course>
  <speed>0.0</speed>
  <fix>3d</fix>
</trkpt>
<trkpt lat="40.0713749" lon="-105.229789">
  <ele>1583.0</ele>
  <time>2026-08-28T17:48:49Z</time>
  <course>0.0</course>
  <speed>0.0</speed>
  <fix>3d</fix>
</trkpt>
<trkpt lat="40.0713749" lon="-105.229789">
  <ele>1583.0</ele>
  <time>2026-08-28T17:48:49Z</time>
  <course>0.0</course>
  <speed>0.0</speed>
  <fix>3d</fix>
</trkpt>
<trkpt lat="40.0713749" lon="-105.229789">
  <ele>1583.0</ele>
  <time>2026-08-28T17:48:49Z</time>
  <course>0.0</course>
  <speed>0.0</speed>
  <fix>3d</fix>
</trkpt>
<trkpt lat="40.0713749" lon="-105.229789">
  <ele>1583.0</ele>
  <time>2026-08-28T17:48:49Z</time>
  <course>0.0</course>
  <speed>0.0</speed>
  <fix>3d</fix>
</trkpt>
<trkpt lat="40.0713749" lon="-105.229789">
  <ele>1583.0</ele>
  <time>2026-08-28T17:48:49Z</time>
  <course>0.0</course>
  <speed>0.0</speed>
  <fix>3d</fix>
</trkpt>
<trkpt lat="40.0713749" lon="-105.229789">
  <ele>1583.0</ele>
  <time>2026-08-28T17:48:49Z</time>
  <course>0.0</course>
  <speed>0.0</speed>
  <fix>3d</fix>
</trkpt>
<trkpt lat="40.0713749" lon="-105.229789">
  <ele>1583.0</ele>
  <time>2026-08-28T17:48:49Z</time>
  <course>0.0</course>
  <speed>0.0</speed>
  <fix>3d</fix>
</trkpt>
<trkpt lat="40.0713749" lon="-105.229789">
  <ele>1583.0</ele>
  <time>2026-08-28T17:48:49Z</time>
  <course>0.0</course>
  <speed>0.0</speed>
  <fix>3d</fix>
</trkpt>
<trkpt lat="40.0713749" lon="-105.229789">
  <ele>1583.0</ele>
  <time>2026-08-28T17:48:49Z</time>
  <course>0.0</course>
  <speed>0.0</speed>
  <fix>3d</fix>
</trkpt>
<trkpt lat="40.0713749" lon="-105.229789">
  <ele>1583.0</ele>
  <time>2026-08-28T17:48:49Z</time>
  <course>0.0</course>
  <speed>0.0</speed>
  <fix>3d</fix>
</trkpt>
<trkpt lat="40.0713749" lon="-105.229789">
  <ele>1583.0</ele>
  <time>2026-08-28T17:48:49Z</time>
  <course>0.0</course>
  <speed>0.0</speed>
  <fix>3d</fix>
</trkpt>
<trkpt lat="40.0713749" lon="-105.229789">
  <ele>1583.0</ele>
  <time>2026-08-28T17:48:49Z</time>
  <course>0.0</course>
  <speed>0.0</speed>
  <fix>3d</fix>
</trkpt>
<trkpt lat="40.0713749" lon="-105.229789">
  <ele>1583.0</ele>
  <time>2026-08-28T17:48:49Z</time>
  <course>0.0</course>
  <speed>0.0</speed>
  <fix>3d</fix>
</trkpt>
<trkpt lat="40.0713749" lon="-105.229789">
  <ele>1583.0</ele>
  <time>2026-08-28T17:48:49Z</time>
  <course>0.0</course>
  <speed>0.0</speed>
  <fix>3d</fix>
</trkpt>
<trkpt lat="40.0713749" lon="-105.229789">
  <ele>1583.0</ele>
  <time>2026-08-28T17:48:49Z</time>
  <course>0.0</course>
  <speed>0.0</speed>
  <fix>3d</fix>
</trkpt>
<trkpt lat="40.0713749" lon="-105.229789">
  <ele>1583.0</ele>
  <time>2026-08-28T17:48:49Z</time>
  <course>0.0</course>
  <speed>0.0</speed>
  <fix>3d</fix>
</trkpt>
<trkpt lat="40.0713749" lon="-105.229789">
  <ele>1583.0</ele>
  <time>2026-08-28T17:48:49Z</time>
  <course>0.0</course>
  <speed>0.0</speed>
  <fix>3d</fix>
</trkpt>
<trkpt lat="40.0713749" lon="-105.229789">
  <ele>1583.0</ele>
  <time>2026-08-28T17:48:49Z</time>
  <course>0.0</course>
  <speed>0.0</speed>
  <fix>3d</fix>
</trkpt>
<trkpt lat="40.0713749" lon="-105.229789">
  <ele>1583.0</ele>
  <time>2026-08-28T17:48:49Z</time>
  <course>0.0</course>
  <speed>0.0</speed>
  <fix>3d</fix>
</trkpt>
<trkpt lat="40.0713749" lon="-105.229789">
  <ele>1583.0</ele>
  <time>2026-08-28T17:48:49Z</time>
  <course>0.0</course>
  <speed>0.0</speed>
  <fix>3d</fix>
</trkpt>
<trkpt lat="40.0713749" lon="-105.229789">
  <ele>1583.0</ele>
  <time>2026-08-28T17:48:49Z</time>
  <course>0.0</course>
  <speed>0.0</speed>
  <fix>3d</fix>
</trkpt>
<trkpt lat="40.0713749" lon="-105.229789">
  <ele>1583.0</ele>
  <time>2026-08-28T17:48:49Z</time>
  <course>0.0</course>
  <speed>0.0</speed>
  <fix>3d</fix>
</trkpt>
<trkpt lat="40.0713749" lon="-105.229789">
  <ele>1583.0</ele>
  <time>2026-08-28T17:48:49Z</time>
  <course>0.0</course>
  <speed>0.0</speed>
  <fix>3d</fix>
</trkpt>
<trkpt lat="40.0713749" lon="-105.229789">
  <ele>1583.0</ele>
  <time>2026-08-28T17:48:49Z</time>
  <course>0.0</course>
  <speed>0.0</speed>
  <fix>3d</fix>
</trkpt>
<trkpt lat="40.0713749" lon="-105.229789">
  <ele>1583.0</ele>
  <time>2026-08-28T17:48:49Z</time>
  <course>0.0</course>
  <speed>0.0</speed>
  <fix>3d</fix>
</trkpt>
<trkpt lat="40.0713749" lon="-105.229789">
  <ele>1583.0</ele>
  <time>2026-08-28T17:48:49Z</time>
  <course>0.0</course>
  <speed>0.0</speed>
  <fix>3d</fix>
</trkpt>
<trkpt lat="40.0713749" lon="-105.229789">
  <ele>1583.0</ele>
  <time>2026-08-28T17:48:49Z</time>
  <course>0.0</course>
  <speed>0.0</speed>
  <fix>3d</fix>
</trkpt>
<trkpt lat="40.0713749" lon="-105.229789">
  <ele>1583.0</ele>
  <time>2026-08-28T17:48:49Z</time>
  <course>0.0</course>
  <speed>0.0</speed>
  <fix>3d</fix>
</trkpt>
<trkpt lat="40.0713749" lon="-105.229789">
  <ele>1583.0</ele>
  <time>2026-08-28T17:48:49Z</time>
  <course>0.0</course>
  <speed>0.0</speed>
  <fix>3d</fix>
</trkpt>
<trkpt lat="40.0713749" lon="-105.229789">
  <ele>1583.0</ele>
  <time>2026-08-28T17:48:49Z</time>
  <course>0.0</course>
  <speed>0.0</speed>
  <fix>3d</fix>
</trkpt>
<trkpt lat="40.0713749" lon="-105.229789">
  <ele>1583.0</ele>
  <time>2026-08-28T17:48:49Z</time>
  <course>0.0</course>
  <speed>0.0</speed>
  <fix>3d</fix>
</trkpt>
<trkpt lat="40.0713749" lon="-105.229789">
  <ele>1583.0</ele>
  <time>2026-08-28T17:48:49Z</time>
  <course>0.0</course>
  <speed>0.0</speed>
  <fix>3d</fix>
</trkpt>
<trkpt lat="40.0713749" lon="-105.229789">
  <ele>1583.0</ele>
  <time>2026-08-28T17:48:49Z</time>
  <course>0.0</course>
  <speed>0.0</speed>
  <fix>3d</fix>
</trkpt>
<trkpt lat="40.0713749" lon="-105.229789">
  <ele>1583.0</ele>
  <time>2026-08-28T17:48:49Z</time>
  <course>0.0</course>
  <speed>0.0</speed>
  <fix>3d</fix>
</trkpt>
<trkpt lat="40.0713749" lon="-105.229789">
  <ele>1583.0</ele>
  <time>2026-08-28T17:48:49Z</time>
  <course>0.0</course>
  <speed>0.0</speed>
  <fix>3d</fix>
</trkpt>
<trkpt lat="40.0713749" lon="-105.229789">
  <ele>1583.0</ele>
  <time>2026-08-28T17:48:49Z</time>
  <course>0.0</course>
  <speed>0.0</speed>
  <fix>3d</fix>
</trkpt>
<trkpt lat="40.0713749" lon="-105.229789">
  <ele>1583.0</ele>
  <time>2026-08-28T17:48:49Z</time>
  <course>0.0</course>
  <speed>0.0</speed>
  <fix>3d</fix>
</trkpt>
<trkpt lat="40.0713749" lon="-105.229789">
  <ele>1583.0</ele>
  <time>2026-08-28T17:48:49Z</time>
  <course>0.0</course>
  <speed>0.0</speed>
  <fix>3d</fix>
</trkpt>
<trkpt lat="40.0713749" lon="-105.229789">
  <ele>1583.0</ele>
  <time>2026-08-28T17:48:49Z</time>
  <course>0.0</course>
  <speed>0.0</speed>
  <fix>3d</fix>
</trkpt>
<trkpt lat="40.0713749" lon="-105.229789">
  <ele>1583.0</ele>
  <time>2026-08-28T17:48:49Z</time>
  <course>0.0</course>
  <speed>0.0</speed>
  <fix>3d</fix>
</trkpt>
<trkpt lat="40.0713749" lon="-105.229789">
  <ele>1583.0</ele>
  <time>2026-08-28T17:48:49Z</time>
  <course>0.0</course>
  <speed>0.0</speed>
  <fix>3d</fix>
</trkpt>
<trkpt lat="40.0713749" lon="-105.229789">
  <ele>1583.0</ele>
  <time>2026-08-28T17:48:49Z</time>
  <course>0.0</course>
  <speed>0.0</speed>
  <fix>3d</fix>
</trkpt>
<trkpt lat="40.0713749" lon="-105.229789">
  <ele>1583.0</ele>
  <time>2026-08-28T17:48:49Z</time>
  <course>0.0</course>
  <speed>0.0</speed>
  <fix>3d</fix>
</trkpt>
<trkpt lat="40.0713749" lon="-105.229789">
  <ele>1583.0</ele>
  <time>2026-08-28T17:48:49Z</time>
  <course>0.0</course>
  <speed>0.0</speed>
  <fix>3d</fix>
</trkpt>
<trkpt lat="40.0713749" lon="-105.229789">
  <ele>1583.0</ele>
  <time>2026-08-28T17:48:49Z</time>
  <course>0.0</course>
  <speed>0.0</speed>
  <fix>3d</fix>
</trkpt>
<trkpt lat="40.0713749" lon="-105.229789">
  <ele>1583.0</ele>
  <time>2026-08-28T17:48:49Z</time>
  <course>0.0</course>
  <speed>0.0</speed>
  <fix>3d</fix>
</trkpt>
<trkpt lat="40.0713749" lon="-105.229789">
  <ele>1583.0</ele>
  <time>2026-08-28T17:48:49Z</time>
  <course>0.0</course>
  <speed>0.0</speed>
  <fix>3d</fix>
</trkpt>
<trkpt lat="40.0713749" lon="-105.229789">
  <ele>1583.0</ele>
  <time>2026-08-28T17:48:49Z</time>
  <course>0.0</course>
  <speed>0.0</speed>
  <fix>3d</fix>
</trkpt>
<trkpt lat="40.0713749" lon="-105.229789">
  <ele>1583.0</ele>
  <time>2026-08-28T17:48:49Z</time>
  <course>0.0</course>
  <speed>0.0</speed>
  <fix>3d</fix>
</trkpt>
<trkpt lat="40.0713749" lon="-105.229789">
  <ele>1583.0</ele>
  <time>2026-08-28T17:48:49Z</time>
  <course>0.0</course>
  <speed>0.0</speed>
  <fix>3d</fix>
</trkpt>
<trkpt lat="40.0713749" lon="-105.229789">
  <ele>1583.0</ele>
  <time>2026-08-28T17:48:49Z</time>
  <course>238.42</course>
  <speed>0.01</speed>
  <fix>3d</fix>
</trkpt>
<trkpt lat="40.0713749" lon="-105.229789">
  <ele>1583.0</ele>
  <time>2026-08-28T17:48:49Z</time>
  <course>0.0</course>
  <speed>0.0</speed>
  <fix>3d</fix>
</trkpt>
<trkpt lat="40.0713749" lon="-105.229789">
  <ele>1583.0</ele>
  <time>2026-08-28T17:48:49Z</time>
  <course>238.45</course>
  <speed>0.01</speed>
  <fix>3d</fix>
</trkpt>
<trkpt lat="40.0713749" lon="-105.229789">
  <ele>1583.0</ele>
  <time>2026-08-28T17:48:49Z</time>
  <course>0.0</course>
  <speed>0.0</speed>
  <fix>3d</fix>
</trkpt>
<trkpt lat="40.0713749" lon="-105.229789">
  <ele>1583.0</ele>
  <time>2026-08-28T17:48:49Z</time>
  <course>238.53</course>
  <speed>0.01</speed>
  <fix>3d</fix>
</trkpt>
<trkpt lat="40.0713749" lon="-105.229789">
  <ele>1583.0</ele>
  <time>2026-08-28T17:48:49Z</time>
  <course>0.0</course>
  <speed>0.0</speed>
  <fix>3d</fix>
</trkpt>
<trkpt lat="40.0713749" lon="-105.229789">
  <ele>1583.0</ele>
  <time>2026-08-28T17:48:49Z</time>
  <course>238.64</course>
  <speed>0.01</speed>
  <fix>3d</fix>
</trkpt>
<trkpt lat="40.0713749" lon="-105.229789">
  <ele>1583.0</ele>
  <time>2026-08-28T17:48:49Z</time>
  <course>0.0</course>
  <speed>0.0</speed>
  <fix>3d</fix>
</trkpt>
<trkpt lat="40.0713749" lon="-105.229789">
  <ele>1583.0</ele>
  <time>2026-08-28T17:48:49Z</time>
  <course>238.78</course>
  <speed>0.01</speed>
  <fix>3d</fix>
</trkpt>
<trkpt lat="40.0713749" lon="-105.229789">
  <ele>1583.0</ele>
  <time>2026-08-28T17:48:49Z</time>
  <course>0.0</course>
  <speed>0.0</speed>
  <fix>3d</fix>
</trkpt>
<trkpt lat="40.0713749" lon="-105.229789">
  <ele>1583.0</ele>
  <time>2026-08-28T17:48:49Z</time>
  <course>238.92</course>
  <speed>0.01</speed>
  <fix>3d</fix>
</trkpt>
<trkpt lat="40.0713749" lon="-105.229789">
  <ele>1583.0</ele>
  <time>2026-08-28T17:48:49Z</time>
  <course>0.0</course>
  <speed>0.0</speed>
  <fix>3d</fix>
</trkpt>
<trkpt lat="40.0713749" lon="-105.229789">
  <ele>1583.0</ele>
  <time>2026-08-28T17:48:49Z</time>
  <course>239.06</course>
  <speed>0.01</speed>
  <fix>3d</fix>
</trkpt>
<trkpt lat="40.0713749" lon="-105.229789">
  <ele>1583.0</ele>
  <time>2026-08-28T17:48:49Z</time>
  <course>0.0</course>
  <speed>0.0</speed>
  <fix>3d</fix>
</trkpt>
<trkpt lat="39.655741" lon="-104.1383097">
  <ele>1566.58</ele>
  <time>2026-08-28T17:48:56Z</time>
  <course>0.0</course>
  <speed>0.0</speed>
  <fix>3d</fix>
</trkpt>
<trkpt lat="40.0713749" lon="-105.229789">
  <ele>1583.0</ele>
  <time>2026-08-28T17:48:56Z</time>
  <course>0.0</course>
  <speed>0.0</speed>
  <fix>3d</fix>
</trkpt>
<trkpt lat="40.0713749" lon="-105.229789">
  <ele>1583.0</ele>
  <time>2026-08-28T17:48:56Z</time>
  <course>238.36</course>
  <speed>0.0</speed>
  <fix>3d</fix>
</trkpt>
<trkpt lat="40.0713749" lon="-105.229789">
  <ele>1583.0</ele>
  <time>2026-08-28T17:48:56Z</time>
  <course>0.0</course>
  <speed>0.0</speed>
  <fix>3d</fix>
</trkpt>
<trkpt lat="40.0713749" lon="-105.229789">
  <ele>1583.0</ele>
  <time>2026-08-28T17:48:56Z</time>
  <course>238.44</course>
  <speed>0.0</speed>
  <fix>3d</fix>
</trkpt>
<trkpt lat="40.0713749" lon="-105.229789">
  <ele>1583.0</ele>
  <time>2026-08-28T17:48:56Z</time>
  <course>0.0</course>
  <speed>0.0</speed>
  <fix>3d</fix>
</trkpt>
<trkpt lat="40.0713749" lon="-105.229789">
  <ele>1583.0</ele>
  <time>2026-08-28T17:48:56Z</time>
  <course>238.64</course>
  <speed>0.0</speed>
  <fix>3d</fix>
</trkpt>
<trkpt lat="40.0713749" lon="-105.229789">
  <ele>1583.0</ele>
  <time>2026-08-28T17:48:56Z</time>
  <course>0.0</course>
  <speed>0.0</speed>
  <fix>3d</fix>
</trkpt>
<trkpt lat="40.0713749" lon="-105.229789">
  <ele>1583.0</ele>
  <time>2026-08-28T17:48:56Z</time>
  <course>238.93</course>
  <speed>0.0</speed>
  <fix>3d</fix>
</trkpt>
<trkpt lat="40.0713749" lon="-105.229789">
  <ele>1583.0</ele>
  <time>2026-08-28T17:48:56Z</time>
  <course>0.0</course>
  <speed>0.0</speed>
  <fix>3d</fix>
</trkpt>
<trkpt lat="40.0713749" lon="-105.229789">
  <ele>1583.0</ele>
  <time>2026-08-28T17:48:56Z</time>
  <course>239.26</course>
  <speed>0.0</speed>
  <fix>3d</fix>
</trkpt>
<trkpt lat="40.0713749" lon="-105.229789">
  <ele>1583.0</ele>
  <time>2026-08-28T17:48:56Z</time>
  <course>0.0</course>
  <speed>0.0</speed>
  <fix>3d</fix>
</trkpt>
<trkpt lat="40.0713749" lon="-105.229789">
  <ele>1583.0</ele>
  <time>2026-08-28T17:48:56Z</time>
  <course>239.61</course>
  <speed>0.0</speed>
  <fix>3d</fix>
</trkpt>
<trkpt lat="40.0713749" lon="-105.229789">
  <ele>1583.0</ele>
  <time>2026-08-28T17:48:56Z</time>
  <course>0.0</course>
  <speed>0.0</speed>
  <fix>3d</fix>
</trkpt>
<trkpt lat="40.0713749" lon="-105.229789">
  <ele>1583.0</ele>
  <time>2026-08-28T17:48:56Z</time>
  <course>239.96</course>
  <speed>0.0</speed>
  <fix>3d</fix>
</trkpt>
<trkpt lat="40.0713749" lon="-105.229789">
  <ele>1583.0</ele>
  <time>2026-08-28T17:48:56Z</time>
  <course>0.0</course>
  <speed>0.0</speed>
  <fix>3d</fix>
</trkpt>
<trkpt lat="40.0713749" lon="-105.229789">
  <ele>1583.0</ele>
  <time>2026-08-28T17:48:56Z</time>
  <course>240.29</course>
  <speed>0.0</speed>
  <fix>3d</fix>
</trkpt>
<trkpt lat="40.0713749" lon="-105.229789">
  <ele>1583.0</ele>
  <time>2026-08-28T17:48:56Z</time>
  <course>0.0</course>
  <speed>0.0</speed>
  <fix>3d</fix>
</trkpt>
<trkpt lat="40.0713749" lon="-105.229789">
  <ele>1583.0</ele>
  <time>2026-08-28T17:48:56Z</time>
  <course>240.61</course>
  <speed>0.0</speed>
  <fix>3d</fix>
</trkpt>
<trkpt lat="40.0713749" lon="-105.229789">
  <ele>1583.0</ele>
  <time>2026-08-28T17:48:56Z</time>
  <course>0.0</course>
  <speed>0.0</speed>
  <fix>3d</fix>
</trkpt>
<trkpt lat="40.0713749" lon="-105.229789">
  <ele>1583.0</ele>
  <time>2026-08-28T17:48:56Z</time>
  <course>240.92</course>
  <speed>0.0</speed>
  <fix>3d</fix>
</trkpt>
<trkpt lat="40.0713749" lon="-105.229789">
  <ele>1583.0</ele>
  <time>2026-08-28T17:48:56Z</time>
  <course>0.0</course>
  <speed>0.0</speed>
  <fix>3d</fix>
</trkpt>
<trkpt lat="40.0713749" lon="-105.229789">
  <ele>1583.0</ele>
  <time>2026-08-28T17:48:56Z</time>
  <course>241.21</course>
  <speed>0.0</speed>
  <fix>3d</fix>
</trkpt>
<trkpt lat="40.0713749" lon="-105.229789">
  <ele>1583.0</ele>
  <time>2026-08-28T17:48:56Z</time>
  <course>0.0</course>
  <speed>0.0</speed>
  <fix>3d</fix>
</trkpt>
<trkpt lat="40.0713749" lon="-105.229789">
  <ele>1583.0</ele>
  <time>2026-08-28T17:48:56Z</time>
  <course>241.49</course>
  <speed>0.0</speed>
  <fix>3d</fix>
</trkpt>
<trkpt lat="40.0713749" lon="-105.229789">
  <ele>1583.0</ele>
  <time>2026-08-28T17:48:56Z</time>
  <course>0.0</course>
  <speed>0.0</speed>
  <fix>3d</fix>
</trkpt>
<trkpt lat="40.0713749" lon="-105.229789">
  <ele>1583.0</ele>
  <time>2026-08-28T17:48:56Z</time>
  <course>241.77</course>
  <speed>0.0</speed>
  <fix>3d</fix>
</trkpt>
<trkpt lat="40.0713749" lon="-105.229789">
  <ele>1583.0</ele>
  <time>2026-08-28T17:48:56Z</time>
  <course>0.0</course>
  <speed>0.0</speed>
  <fix>3d</fix>
</trkpt>
<trkpt lat="40.0713749" lon="-105.229789">
  <ele>1583.0</ele>
  <time>2026-08-28T17:48:56Z</time>
  <course>242.03</course>
  <speed>0.0</speed>
  <fix>3d</fix>
</trkpt>
<trkpt lat="40.0713749" lon="-105.229789">
  <ele>1583.0</ele>
  <time>2026-08-28T17:48:56Z</time>
  <course>0.0</course>
  <speed>0.0</speed>
  <fix>3d</fix>
</trkpt>
<trkpt lat="40.0713749" lon="-105.229789">
  <ele>1583.0</ele>
  <time>2026-08-28T17:48:56Z</time>
  <course>242.29</course>
  <speed>0.0</speed>
  <fix>3d</fix>
</trkpt>
<trkpt lat="40.0713749" lon="-105.229789">
  <ele>1583.0</ele>
  <time>2026-08-28T17:48:56Z</time>
  <course>0.0</course>
  <speed>0.0</speed>
  <fix>3d</fix>
</trkpt>
<trkpt lat="40.0713749" lon="-105.229789">
  <ele>1583.0</ele>
  <time>2026-08-28T17:48:56Z</time>
  <course>242.54</course>
  <speed>0.0</speed>
  <fix>3d</fix>
</trkpt>
<trkpt lat="40.0713749" lon="-105.229789">
  <ele>1583.0</ele>
  <time>2026-08-28T17:48:56Z</time>
  <course>0.0</course>
  <speed>0.0</speed>
  <fix>3d</fix>
</trkpt>
<trkpt lat="40.0713749" lon="-105.229789">
  <ele>1583.0</ele>
  <time>2026-08-28T17:48:56Z</time>
  <course>242.79</course>
  <speed>0.0</speed>
  <fix>3d</fix>
</trkpt>
<trkpt lat="40.0713749" lon="-105.229789">
  <ele>1583.0</ele>
  <time>2026-08-28T17:48:56Z</time>
  <course>0.0</course>
  <speed>0.0</speed>
  <fix>3d</fix>
</trkpt>
<trkpt lat="40.0713749" lon="-105.229789">
  <ele>1583.0</ele>
  <time>2026-08-28T17:48:56Z</time>
  <course>243.02</course>
  <speed>0.0</speed>
  <fix>3d</fix>
</trkpt>
<trkpt lat="40.0713749" lon="-105.229789">
  <ele>1583.0</ele>
  <time>2026-08-28T17:48:56Z</time>
  <course>0.0</course>
  <speed>0.0</speed>
  <fix>3d</fix>
</trkpt>
<trkpt lat="40.0713749" lon="-105.229789">
  <ele>1583.0</ele>
  <time>2026-08-28T17:48:56Z</time>
  <course>243.25</course>
  <speed>0.0</speed>
  <fix>3d</fix>
</trkpt>
<trkpt lat="40.0713749" lon="-105.229789">
  <ele>1583.0</ele>
  <time>2026-08-28T17:48:56Z</time>
  <course>0.0</course>
  <speed>0.0</speed>
  <fix>3d</fix>
</trkpt>
<trkpt lat="40.0713749" lon="-105.229789">
  <ele>1583.0</ele>
  <time>2026-08-28T17:48:56Z</time>
  <course>243.47</course>
  <speed>0.0</speed>
  <fix>3d</fix>
</trkpt>
<trkpt lat="40.0713749" lon="-105.229789">
  <ele>1583.0</ele>
  <time>2026-08-28T17:48:56Z</time>
  <course>0.0</course>
  <speed>0.0</speed>
  <fix>3d</fix>
</trkpt>
<trkpt lat="40.0713749" lon="-105.229789">
  <ele>1583.0</ele>
  <time>2026-08-28T17:48:56Z</time>
  <course>243.68</course>
  <speed>0.0</speed>
  <fix>3d</fix>
</trkpt>
<trkpt lat="40.0713749" lon="-105.229789">
  <ele>1583.0</ele>
  <time>2026-08-28T17:48:56Z</time>
  <course>0.0</course>
  <speed>0.0</speed>
  <fix>3d</fix>
</trkpt>
<trkpt lat="40.0713749" lon="-105.229789">
  <ele>1583.0</ele>
  <time>2026-08-28T17:48:56Z</time>
  <course>243.89</course>
  <speed>0.0</speed>
  <fix>3d</fix>
</trkpt>
<trkpt lat="40.0713749" lon="-105.229789">
  <ele>1583.0</ele>
  <time>2026-08-28T17:48:56Z</time>
  <course>0.0</course>
  <speed>0.0</speed>
  <fix>3d</fix>
</trkpt>
<trkpt lat="40.0713749" lon="-105.229789">
  <ele>1583.0</ele>
  <time>2026-08-28T17:48:56Z</time>
  <course>244.09</course>
  <speed>0.0</speed>
  <fix>3d</fix>
</trkpt>
<trkpt lat="40.0713749" lon="-105.229789">
  <ele>1583.0</ele>
  <time>2026-08-28T17:48:56Z</time>
  <course>0.0</course>
  <speed>0.0</speed>
  <fix>3d</fix>
</trkpt>
<trkpt lat="40.0713749" lon="-105.229789">
  <ele>1583.0</ele>
  <time>2026-08-28T17:48:56Z</time>
  <course>244.28</course>
  <speed>0.0</speed>
  <fix>3d</fix>
</trkpt>
<trkpt lat="40.0713749" lon="-105.229789">
  <ele>1583.0</ele>
  <time>2026-08-28T17:48:56Z</time>
  <course>0.0</course>
  <speed>0.0</speed>
  <fix>3d</fix>
</trkpt>
<trkpt lat="40.0713749" lon="-105.229789">
  <ele>1583.0</ele>
  <time>2026-08-28T17:48:56Z</time>
  <course>244.46</course>
  <speed>0.0</speed>
  <fix>3d</fix>
</trkpt>
<trkpt lat="40.0713749" lon="-105.229789">
  <ele>1583.0</ele>
  <time>2026-08-28T17:48:56Z</time>
  <course>0.0</course>
  <speed>0.0</speed>
  <fix>3d</fix>
</trkpt>
<trkpt lat="40.0713749" lon="-105.229789">
  <ele>1583.0</ele>
  <time>2026-08-28T17:48:56Z</time>
  <course>244.64</course>
  <speed>0.0</speed>
  <fix>3d</fix>
</trkpt>
<trkpt lat="40.0713749" lon="-105.229789">
  <ele>1583.0</ele>
  <time>2026-08-28T17:48:56Z</time>
  <course>0.0</course>
  <speed>0.0</speed>
  <fix>3d</fix>
</trkpt>
<trkpt lat="40.0713749" lon="-105.229789">
  <ele>1583.0</ele>
  <time>2026-08-28T17:48:56Z</time>
  <course>244.81</course>
  <speed>0.0</speed>
  <fix>3d</fix>
</trkpt>
<trkpt lat="40.0713749" lon="-105.229789">
  <ele>1583.0</ele>
  <time>2026-08-28T17:48:56Z</time>
  <course>0.0</course>
  <speed>0.0</speed>
  <fix>3d</fix>
</trkpt>
<trkpt lat="40.0713749" lon="-105.229789">
  <ele>1583.0</ele>
  <time>2026-08-28T17:48:56Z</time>
  <course>244.97</course>
  <speed>0.0</speed>
  <fix>3d</fix>
</trkpt>
<trkpt lat="40.0713749" lon="-105.229789">
  <ele>1583.0</ele>
  <time>2026-08-28T17:48:56Z</time>
  <course>0.0</course>
  <speed>0.0</speed>
  <fix>3d</fix>
</trkpt>
<trkpt lat="40.0713749" lon="-105.229789">
  <ele>1583.0</ele>
  <time>2026-08-28T17:48:56Z</time>
  <course>245.13</course>
  <speed>0.0</speed>
  <fix>3d</fix>
</trkpt>
<trkpt lat="40.0713749" lon="-105.229789">
  <ele>1583.0</ele>
  <time>2026-08-28T17:48:56Z</time>
  <course>0.0</course>
  <speed>0.0</speed>
  <fix>3d</fix>
</trkpt>
<trkpt lat="40.0713749" lon="-105.229789">
  <ele>1583.0</ele>
  <time>2026-08-28T17:48:56Z</time>
  <course>245.29</course>
  <speed>0.0</speed>
  <fix>3d</fix>
</trkpt>
<trkpt lat="40.0713749" lon="-105.229789">
  <ele>1583.0</ele>
  <time>2026-08-28T17:48:56Z</time>
  <course>0.0</course>
  <speed>0.0</speed>
  <fix>3d</fix>
</trkpt>
<trkpt lat="40.0713749" lon="-105.229789">
  <ele>1583.0</ele>
  <time>2026-08-28T17:48:56Z</time>
  <course>245.43</course>
  <speed>0.0</speed>
  <fix>3d</fix>
</trkpt>
<trkpt lat="40.0713749" lon="-105.229789">
  <ele>1583.0</ele>
  <time>2026-08-28T17:48:56Z</time>
  <course>0.0</course>
  <speed>0.0</speed>
  <fix>3d</fix>
</trkpt>
<trkpt lat="40.0713749" lon="-105.229789">
  <ele>1583.0</ele>
  <time>2026-08-28T17:48:56Z</time>
  <course>245.57</course>
  <speed>0.0</speed>
  <fix>3d</fix>
</trkpt>
<trkpt lat="40.0713749" lon="-105.229789">
  <ele>1583.0</ele>
  <time>2026-08-28T17:48:56Z</time>
  <course>0.0</course>
  <speed>0.0</speed>
  <fix>3d</fix>
</trkpt>
<trkpt lat="40.0713749" lon="-105.229789">
  <ele>1583.0</ele>
  <time>2026-08-28T17:48:56Z</time>
  <course>245.71</course>
  <speed>0.0</speed>
  <fix>3d</fix>
</trkpt>
<trkpt lat="40.0713749" lon="-105.229789">
  <ele>1583.0</ele>
  <time>2026-08-28T17:48:56Z</time>
  <course>0.0</course>
  <speed>0.0</speed>
  <fix>3d</fix>
</trkpt>
<trkpt lat="40.0713749" lon="-105.229789">
  <ele>1583.0</ele>
  <time>2026-08-28T17:48:56Z</time>
  <course>245.84</course>
  <speed>0.0</speed>
  <fix>3d</fix>
</trkpt>
<trkpt lat="40.0713749" lon="-105.229789">
  <ele>1583.0</ele>
  <time>2026-08-28T17:48:56Z</time>
  <course>0.0</course>
  <speed>0.0</speed>
  <fix>3d</fix>
</trkpt>
<trkpt lat="40.0713749" lon="-105.229789">
  <ele>1583.0</ele>
  <time>2026-08-28T17:48:56Z</time>
  <course>245.96</course>
  <speed>0.0</speed>
  <fix>3d</fix>
</trkpt>
<trkpt lat="40.0713749" lon="-105.229789">
  <ele>1583.0</ele>
  <time>2026-08-28T17:48:56Z</time>
  <course>0.0</course>
  <speed>0.0</speed>
  <fix>3d</fix>
</trkpt>
<trkpt lat="40.0713749" lon="-105.229789">
  <ele>1583.0</ele>
  <time>2026-08-28T17:48:56Z</time>
  <course>246.08</course>
  <speed>0.0</speed>
  <fix>3d</fix>
</trkpt>
<trkpt lat="40.0713749" lon="-105.229789">
  <ele>1583.0</ele>
  <time>2026-08-28T17:48:56Z</time>
  <course>0.0</course>
  <speed>0.0</speed>
  <fix>3d</fix>
</trkpt>
<trkpt lat="40.0713749" lon="-105.229789">
  <ele>1583.0</ele>
  <time>2026-08-28T17:48:56Z</time>
  <course>246.19</course>
  <speed>0.0</speed>
  <fix>3d</fix>
</trkpt>
<trkpt lat="40.0713749" lon="-105.229789">
  <ele>1583.0</ele>
  <time>2026-08-28T17:48:56Z</time>
  <course>0.0</course>
  <speed>0.0</speed>
  <fix>3d</fix>
</trkpt>
<trkpt lat="40.0713749" lon="-105.229789">
  <ele>1583.0</ele>
  <time>2026-08-28T17:48:56Z</time>
  <course>246.3</course>
  <speed>0.0</speed>
  <fix>3d</fix>
</trkpt>
<trkpt lat="40.0713749" lon="-105.229789">
  <ele>1583.0</ele>
  <time>2026-08-28T17:48:56Z</time>
  <course>0.0</course>
  <speed>0.0</speed>
  <fix>3d</fix>
</trkpt>
<trkpt lat="40.0713749" lon="-105.229789">
  <ele>1583.0</ele>
  <time>2026-08-28T17:48:56Z</time>
  <course>246.41</course>
  <speed>0.0</speed>
  <fix>3d</fix>
</trkpt>
<trkpt lat="40.0713749" lon="-105.229789">
  <ele>1583.0</ele>
  <time>2026-08-28T17:48:56Z</time>
  <course>0.0</course>
  <speed>0.0</speed>
  <fix>3d</fix>
</trkpt>
<trkpt lat="40.0713749" lon="-105.229789">
  <ele>1583.0</ele>
  <time>2026-08-28T17:48:56Z</time>
  <course>246.51</course>
  <speed>0.0</speed>
  <fix>3d</fix>
</trkpt>
<trkpt lat="40.0713749" lon="-105.229789">
  <ele>1583.0</ele>
  <time>2026-08-28T17:48:56Z</time>
  <course>0.0</course>
  <speed>0.0</speed>
  <fix>3d</fix>
</trkpt>
<trkpt lat="40.0713749" lon="-105.229789">
  <ele>1583.0</ele>
  <time>2026-08-28T17:48:56Z</time>
  <course>246.6</course>
  <speed>0.0</speed>
  <fix>3d</fix>
</trkpt>
<trkpt lat="40.0713749" lon="-105.229789">
  <ele>1583.0</ele>
  <time>2026-08-28T17:48:56Z</time>
  <course>0.0</course>
  <speed>0.0</speed>
  <fix>3d</fix>
</trkpt>
<trkpt lat="40.0713749" lon="-105.229789">
  <ele>1583.0</ele>
  <time>2026-08-28T17:48:56Z</time>
  <course>246.7</course>
  <speed>0.0</speed>
  <fix>3d</fix>
</trkpt>
<trkpt lat="40.0713749" lon="-105.229789">
  <ele>1583.0</ele>
  <time>2026-08-28T17:48:56Z</time>
  <course>0.0</course>
  <speed>0.0</speed>
  <fix>3d</fix>
</trkpt>
<trkpt lat="40.0713749" lon="-105.229789">
  <ele>1583.0</ele>
  <time>2026-08-28T17:48:56Z</time>
  <course>246.78</course>
  <speed>0.0</speed>
  <fix>3d</fix>
</trkpt>
<trkpt lat="40.0713749" lon="-105.229789">
  <ele>1583.0</ele>
  <time>2026-08-28T17:48:56Z</time>
  <course>0.0</course>
  <speed>0.0</speed>
  <fix>3d</fix>
</trkpt>
<trkpt lat="40.0713749" lon="-105.229789">
  <ele>1583.0</ele>
  <time>2026-08-28T17:48:56Z</time>
  <course>246.87</course>
  <speed>0.0</speed>
  <fix>3d</fix>
</trkpt>
<trkpt lat="40.0713749" lon="-105.229789">
  <ele>1583.0</ele>
  <time>2026-08-28T17:48:56Z</time>
  <course>0.0</course>
  <speed>0.0</speed>
  <fix>3d</fix>
</trkpt>
<trkpt lat="40.0713749" lon="-105.229789">
  <ele>1583.0</ele>
  <time>2026-08-28T17:48:56Z</time>
  <course>246.95</course>
  <speed>0.0</speed>
  <fix>3d</fix>
</trkpt>
<trkpt lat="40.0713749" lon="-105.229789">
  <ele>1583.0</ele>
  <time>2026-08-28T17:48:56Z</time>
  <course>0.0</course>
  <speed>0.0</speed>
  <fix>3d</fix>
</trkpt>
<trkpt lat="40.0713749" lon="-105.229789">
  <ele>1583.0</ele>
  <time>2026-08-28T17:48:56Z</time>
  <course>247.02</course>
  <speed>0.0</speed>
  <fix>3d</fix>
</trkpt>
<trkpt lat="40.0713749" lon="-105.229789">
  <ele>1583.0</ele>
  <time>2026-08-28T17:48:56Z</time>
  <course>0.0</course>
  <speed>0.0</speed>
  <fix>3d</fix>
</trkpt>
<trkpt lat="40.0713749" lon="-105.229789">
  <ele>1583.0</ele>
  <time>2026-08-28T17:48:56Z</time>
  <course>247.1</course>
  <speed>0.0</speed>
  <fix>3d</fix>
</trkpt>
<trkpt lat="40.0713749" lon="-105.229789">
  <ele>1583.0</ele>
  <time>2026-08-28T17:48:56Z</time>
  <course>0.0</course>
  <speed>0.0</speed>
  <fix>3d</fix>
</trkpt>
<trkpt lat="40.0713749" lon="-105.229789">
  <ele>1583.0</ele>
  <time>2026-08-28T17:48:56Z</time>
  <course>247.17</course>
  <speed>0.0</speed>
  <fix>3d</fix>
</trkpt>
<trkpt lat="40.0713749" lon="-105.229789">
  <ele>1583.0</ele>
  <time>2026-08-28T17:48:56Z</time>
  <course>0.0</course>
  <speed>0.0</speed>
  <fix>3d</fix>
</trkpt>
<trkpt lat="40.0713749" lon="-105.229789">
  <ele>1583.0</ele>
  <time>2026-08-28T17:48:56Z</time>
  <course>247.24</course>
  <speed>0.0</speed>
  <fix>3d</fix>
</trkpt>
<trkpt lat="40.0713749" lon="-105.229789">
  <ele>1583.0</ele>
  <time>2026-08-28T17:48:56Z</time>
  <course>0.0</course>
  <speed>0.0</speed>
  <fix>3d</fix>
</trkpt>
<trkpt lat="40.0713749" lon="-105.229789">
  <ele>1583.0</ele>
  <time>2026-08-28T17:48:56Z</time>
  <course>247.3</course>
  <speed>0.0</speed>
  <fix>3d</fix>
</trkpt>
<trkpt lat="40.0713749" lon="-105.229789">
  <ele>1583.0</ele>
  <time>2026-08-28T17:48:56Z</time>
  <course>0.0</course>
  <speed>0.0</speed>
  <fix>3d</fix>
</trkpt>
<trkpt lat="40.0713749" lon="-105.229789">
  <ele>1583.0</ele>
  <time>2026-08-28T17:48:56Z</time>
  <course>247.36</course>
  <speed>0.0</speed>
  <fix>3d</fix>
</trkpt>
<trkpt lat="40.0713749" lon="-105.229789">
  <ele>1583.0</ele>
  <time>2026-08-28T17:48:56Z</time>
  <course>0.0</course>
  <speed>0.0</speed>
  <fix>3d</fix>
</trkpt>
<trkpt lat="40.0713749" lon="-105.229789">
  <ele>1583.0</ele>
  <time>2026-08-28T17:48:56Z</time>
  <course>247.42</course>
  <speed>0.0</speed>
  <fix>3d</fix>
</trkpt>
<trkpt lat="40.0713749" lon="-105.229789">
  <ele>1583.0</ele>
  <time>2026-08-28T17:48:56Z</time>
  <course>0.0</course>
  <speed>0.0</speed>
  <fix>3d</fix>
</trkpt>
<trkpt lat="40.0713749" lon="-105.229789">
  <ele>1583.0</ele>
  <time>2026-08-28T17:48:56Z</time>
  <course>247.47</course>
  <speed>0.0</speed>
  <fix>3d</fix>
</trkpt>
<trkpt lat="40.0713749" lon="-105.229789">
  <ele>1583.0</ele>
  <time>2026-08-28T17:48:56Z</time>
  <course>0.0</course>
  <speed>0.0</speed>
  <fix>3d</fix>
</trkpt>
<trkpt lat="40.0713749" lon="-105.229789">
  <ele>1583.0</ele>
  <time>2026-08-28T17:48:56Z</time>
  <course>247.53</course>
  <speed>0.0</speed>
  <fix>3d</fix>
</trkpt>
<trkpt lat="40.0713749" lon="-105.229789">
  <ele>1583.0</ele>
  <time>2026-08-28T17:48:56Z</time>
  <course>0.0</course>
  <speed>0.0</speed>
  <fix>3d</fix>
</trkpt>
<trkpt lat="40.0713749" lon="-105.229789">
  <ele>1583.0</ele>
  <time>2026-08-28T17:48:56Z</time>
  <course>247.58</course>
  <speed>0.0</speed>
  <fix>3d</fix>
</trkpt>
<trkpt lat="40.0713749" lon="-105.229789">
  <ele>1583.0</ele>
  <time>2026-08-28T17:48:56Z</time>
  <course>0.0</course>
  <speed>0.0</speed>
  <fix>3d</fix>
</trkpt>
<trkpt lat="40.0713749" lon="-105.229789">
  <ele>1583.0</ele>
  <time>2026-08-28T17:48:56Z</time>
  <course>247.63</course>
  <speed>0.0</speed>
  <fix>3d</fix>
</trkpt>
<trkpt lat="40.0713749" lon="-105.229789">
  <ele>1583.0</ele>
  <time>2026-08-28T17:48:56Z</time>
  <course>0.0</course>
  <speed>0.0</speed>
  <fix>3d</fix>
</trkpt>
<trkpt lat="40.0713749" lon="-105.229789">
  <ele>1583.0</ele>
  <time>2026-08-28T17:48:56Z</time>
  <course>247.67</course>
  <speed>0.0</speed>
  <fix>3d</fix>
</trkpt>
<trkpt lat="40.0713749" lon="-105.229789">
  <ele>1583.0</ele>
  <time>2026-08-28T17:48:56Z</time>
  <course>0.0</course>
  <speed>0.0</speed>
  <fix>3d</fix>
</trkpt>
<trkpt lat="40.0713749" lon="-105.229789">
  <ele>1583.0</ele>
  <time>2026-08-28T17:48:56Z</time>
  <course>247.72</course>
  <speed>0.0</speed>
  <fix>3d</fix>
</trkpt>
<trkpt lat="40.0713749" lon="-105.229789">
  <ele>1583.0</ele>
  <time>2026-08-28T17:48:56Z</time>
  <course>0.0</course>
  <speed>0.0</speed>
  <fix>3d</fix>
</trkpt>
<trkpt lat="40.0713749" lon="-105.229789">
  <ele>1583.0</ele>
  <time>2026-08-28T17:48:56Z</time>
  <course>247.76</course>
  <speed>0.0</speed>
  <fix>3d</fix>
</trkpt>
<trkpt lat="40.0713749" lon="-105.229789">
  <ele>1583.0</ele>
  <time>2026-08-28T17:48:56Z</time>
  <course>0.0</course>
  <speed>0.0</speed>
  <fix>3d</fix>
</trkpt>
<trkpt lat="40.0713749" lon="-105.229789">
  <ele>1583.0</ele>
  <time>2026-08-28T17:48:56Z</time>
  <course>247.8</course>
  <speed>0.0</speed>
  <fix>3d</fix>
</trkpt>
<trkpt lat="40.0713749" lon="-105.229789">
  <ele>1583.0</ele>
  <time>2026-08-28T17:48:56Z</time>
  <course>0.0</course>
  <speed>0.0</speed>
  <fix>3d</fix>
</trkpt>
<trkpt lat="40.0713749" lon="-105.229789">
  <ele>1583.0</ele>
  <time>2026-08-28T17:48:56Z</time>
  <course>247.83</course>
  <speed>0.0</speed>
  <fix>3d</fix>
</trkpt>
<trkpt lat="40.0713749" lon="-105.229789">
  <ele>1583.0</ele>
  <time>2026-08-28T17:48:56Z</time>
  <course>0.0</course>
  <speed>0.0</speed>
  <fix>3d</fix>
</trkpt>
<trkpt lat="40.0713749" lon="-105.229789">
  <ele>1583.0</ele>
  <time>2026-08-28T17:48:56Z</time>
  <course>247.87</course>
  <speed>0.0</speed>
  <fix>3d</fix>
</trkpt>
<trkpt lat="40.0713749" lon="-105.229789">
  <ele>1583.0</ele>
  <time>2026-08-28T17:48:56Z</time>
  <course>0.0</course>
  <speed>0.0</speed>
  <fix>3d</fix>
</trkpt>
<trkpt lat="40.0713749" lon="-105.229789">
  <ele>1583.0</ele>
  <time>2026-08-28T17:48:56Z</time>
  <course>247.9</course>
  <speed>0.0</speed>
  <fix>3d</fix>
</trkpt>
<trkpt lat="40.0713749" lon="-105.229789">
  <ele>1583.0</ele>
  <time>2026-08-28T17:48:56Z</time>
  <course>0.0</course>
  <speed>0.0</speed>
  <fix>3d</fix>
</trkpt>
<trkpt lat="40.0713749" lon="-105.229789">
  <ele>1583.0</ele>
  <time>2026-08-28T17:48:56Z</time>
  <course>247.94</course>
  <speed>0.0</speed>
  <fix>3d</fix>
</trkpt>
<trkpt lat="40.0713749" lon="-105.229789">
  <ele>1583.0</ele>
  <time>2026-08-28T17:48:56Z</time>
  <course>0.0</course>
  <speed>0.0</speed>
  <fix>3d</fix>
</trkpt>
<trkpt lat="40.0713749" lon="-105.229789">
  <ele>1583.0</ele>
  <time>2026-08-28T17:48:56Z</time>
  <course>247.97</course>
  <speed>0.0</speed>
  <fix>3d</fix>
</trkpt>
<trkpt lat="40.0713749" lon="-105.229789">
  <ele>1583.0</ele>
  <time>2026-08-28T17:48:56Z</time>
  <course>0.0</course>
  <speed>0.0</speed>
  <fix>3d</fix>
</trkpt>
<trkpt lat="40.0713749" lon="-105.229789">
  <ele>1583.0</ele>
  <time>2026-08-28T17:48:56Z</time>
  <course>248.0</course>
  <speed>0.0</speed>
  <fix>3d</fix>
</trkpt>
<trkpt lat="40.0713749" lon="-105.229789">
  <ele>1583.0</ele>
  <time>2026-08-28T17:48:56Z</time>
  <course>0.0</course>
  <speed>0.0</speed>
  <fix>3d</fix>
</trkpt>
<trkpt lat="40.0713749" lon="-105.229789">
  <ele>1583.0</ele>
  <time>2026-08-28T17:48:56Z</time>
  <course>248.02</course>
  <speed>0.0</speed>
  <fix>3d</fix>
</trkpt>
<trkpt lat="40.0713749" lon="-105.229789">
  <ele>1583.0</ele>
  <time>2026-08-28T17:48:56Z</time>
  <course>0.0</course>
  <speed>0.0</speed>
  <fix>3d</fix>
</trkpt>
<trkpt lat="40.0713749" lon="-105.229789">
  <ele>1583.0</ele>
  <time>2026-08-28T17:48:56Z</time>
  <course>248.05</course>
  <speed>0.0</speed>
  <fix>3d</fix>
</trkpt>
<trkpt lat="40.0713749" lon="-105.229789">
  <ele>1583.0</ele>
  <time>2026-08-28T17:48:56Z</time>
  <course>0.0</course>
  <speed>0.0</speed>
  <fix>3d</fix>
</trkpt>
<trkpt lat="40.0713749" lon="-105.229789">
  <ele>1583.0</ele>
  <time>2026-08-28T17:48:56Z</time>
  <course>248.08</course>
  <speed>0.0</speed>
  <fix>3d</fix>
</trkpt>
<trkpt lat="40.0713749" lon="-105.229789">
  <ele>1583.0</ele>
  <time>2026-08-28T17:48:56Z</time>
  <course>0.0</course>
  <speed>0.0</speed>
  <fix>3d</fix>
</trkpt>
<trkpt lat="40.0713749" lon="-105.229789">
  <ele>1583.0</ele>
  <time>2026-08-28T17:48:56Z</time>
  <course>248.1</course>
  <speed>0.0</speed>
  <fix>3d</fix>
</trkpt>
<trkpt lat="40.0713749" lon="-105.229789">
  <ele>1583.0</ele>
  <time>2026-08-28T17:48:56Z</time>
  <course>0.0</course>
  <speed>0.0</speed>
  <fix>3d</fix>
</trkpt>
<trkpt lat="40.0713749" lon="-105.229789">
  <ele>1583.0</ele>
  <time>2026-08-28T17:48:56Z</time>
  <course>248.12</course>
  <speed>0.0</speed>
  <fix>3d</fix>
</trkpt>
<trkpt lat="40.0713749" lon="-105.229789">
  <ele>1583.0</ele>
  <time>2026-08-28T17:48:56Z</time>
  <course>0.0</course>
  <speed>0.0</speed>
  <fix>3d</fix>
</trkpt>
<trkpt lat="40.0713749" lon="-105.229789">
  <ele>1583.0</ele>
  <time>2026-08-28T17:48:56Z</time>
  <course>248.14</course>
  <speed>0.0</speed>
  <fix>3d</fix>
</trkpt>
<trkpt lat="40.0713749" lon="-105.229789">
  <ele>1583.0</ele>
  <time>2026-08-28T17:48:56Z</time>
  <course>0.0</course>
  <speed>0.0</speed>
  <fix>3d</fix>
</trkpt>
<trkpt lat="40.0713749" lon="-105.229789">
  <ele>1583.0</ele>
  <time>2026-08-28T17:48:56Z</time>
  <course>248.16</course>
  <speed>0.0</speed>
  <fix>3d</fix>
</trkpt>
<trkpt lat="40.0713749" lon="-105.229789">
  <ele>1583.0</ele>
  <time>2026-08-28T17:48:56Z</time>
  <course>0.0</course>
  <speed>0.0</speed>
  <fix>3d</fix>
</trkpt>
<trkpt lat="40.0713749" lon="-105.229789">
  <ele>1583.0</ele>
  <time>2026-08-28T17:48:56Z</time>
  <course>248.18</course>
  <speed>0.0</speed>
  <fix>3d</fix>
</trkpt>
<trkpt lat="40.0713749" lon="-105.229789">
  <ele>1583.0</ele>
  <time>2026-08-28T17:48:56Z</time>
  <course>0.0</course>
  <speed>0.0</speed>
  <fix>3d</fix>
</trkpt>
<trkpt lat="40.0713749" lon="-105.229789">
  <ele>1583.0</ele>
  <time>2026-08-28T17:48:56Z</time>
  <course>248.2</course>
  <speed>0.0</speed>
  <fix>3d</fix>
</trkpt>
<trkpt lat="40.0713749" lon="-105.229789">
  <ele>1583.0</ele>
  <time>2026-08-28T17:48:56Z</time>
  <course>0.0</course>
  <speed>0.0</speed>
  <fix>3d</fix>
</trkpt>
<trkpt lat="40.0713749" lon="-105.229789">
  <ele>1583.0</ele>
  <time>2026-08-28T17:48:56Z</time>
  <course>248.22</course>
  <speed>0.0</speed>
  <fix>3d</fix>
</trkpt>
<trkpt lat="40.0713749" lon="-105.229789">
  <ele>1583.0</ele>
  <time>2026-08-28T17:48:56Z</time>
  <course>0.0</course>
  <speed>0.0</speed>
  <fix>3d</fix>
</trkpt>
<trkpt lat="40.0713749" lon="-105.229789">
  <ele>1583.0</ele>
  <time>2026-08-28T17:48:56Z</time>
  <course>248.23</course>
  <speed>0.0</speed>
  <fix>3d</fix>
</trkpt>
<trkpt lat="40.0713749" lon="-105.229789">
  <ele>1583.0</ele>
  <time>2026-08-28T17:48:56Z</time>
  <course>0.0</course>
  <speed>0.0</speed>
  <fix>3d</fix>
</trkpt>
<trkpt lat="40.0713749" lon="-105.229789">
  <ele>1583.0</ele>
  <time>2026-08-28T17:48:56Z</time>
  <course>248.25</course>
  <speed>0.0</speed>
  <fix>3d</fix>
</trkpt>
<trkpt lat="40.0713749" lon="-105.229789">
  <ele>1583.0</ele>
  <time>2026-08-28T17:48:56Z</time>
  <course>0.0</course>
  <speed>0.0</speed>
  <fix>3d</fix>
</trkpt>
<trkpt lat="40.0713749" lon="-105.229789">
  <ele>1583.0</ele>
  <time>2026-08-28T17:48:56Z</time>
  <course>248.26</course>
  <speed>0.0</speed>
  <fix>3d</fix>
</trkpt>
<trkpt lat="40.0713749" lon="-105.229789">
  <ele>1583.0</ele>
  <time>2026-08-28T17:48:56Z</time>
  <course>0.0</course>
  <speed>0.0</speed>
  <fix>3d</fix>
</trkpt>
<trkpt lat="40.0713749" lon="-105.229789">
  <ele>1583.0</ele>
  <time>2026-08-28T17:48:56Z</time>
  <course>248.28</course>
  <speed>0.0</speed>
  <fix>3d</fix>
</trkpt>
<trkpt lat="40.0713749" lon="-105.229789">
  <ele>1583.0</ele>
  <time>2026-08-28T17:48:56Z</time>
  <course>0.0</course>
  <speed>0.0</speed>
  <fix>3d</fix>
</trkpt>
<trkpt lat="40.0713749" lon="-105.229789">
  <ele>1583.0</ele>
  <time>2026-08-28T17:48:56Z</time>
  <course>248.29</course>
  <speed>0.0</speed>
  <fix>3d</fix>
</trkpt>
<trkpt lat="40.0713749" lon="-105.229789">
  <ele>1583.0</ele>
  <time>2026-08-28T17:48:56Z</time>
  <course>0.0</course>
  <speed>0.0</speed>
  <fix>3d</fix>
</trkpt>
<trkpt lat="40.0713749" lon="-105.229789">
  <ele>1583.0</ele>
  <time>2026-08-28T17:48:56Z</time>
  <course>248.3</course>
  <speed>0.0</speed>
  <fix>3d</fix>
</trkpt>
<trkpt lat="40.0713749" lon="-105.229789">
  <ele>1583.0</ele>
  <time>2026-08-28T17:48:56Z</time>
  <course>0.0</course>
  <speed>0.0</speed>
  <fix>3d</fix>
</trkpt>
<trkpt lat="40.0713749" lon="-105.229789">
  <ele>1583.0</ele>
  <time>2026-08-28T17:48:56Z</time>
  <course>248.31</course>
  <speed>0.0</speed>
  <fix>3d</fix>
</trkpt>
<trkpt lat="40.0713749" lon="-105.229789">
  <ele>1583.0</ele>
  <time>2026-08-28T17:48:56Z</time>
  <course>0.0</course>
  <speed>0.0</speed>
  <fix>3d</fix>
</trkpt>
<trkpt lat="40.0713749" lon="-105.229789">
  <ele>1583.0</ele>
  <time>2026-08-28T17:48:56Z</time>
  <course>248.32</course>
  <speed>0.0</speed>
  <fix>3d</fix>
</trkpt>
<trkpt lat="40.0713749" lon="-105.229789">
  <ele>1583.0</ele>
  <time>2026-08-28T17:48:56Z</time>
  <course>0.0</course>
  <speed>0.0</speed>
  <fix>3d</fix>
</trkpt>
<trkpt lat="40.0713749" lon="-105.229789">
  <ele>1583.0</ele>
  <time>2026-08-28T17:48:56Z</time>
  <course>248.33</course>
  <speed>0.0</speed>
  <fix>3d</fix>
</trkpt>
<trkpt lat="40.0713749" lon="-105.229789">
  <ele>1583.0</ele>
  <time>2026-08-28T17:48:56Z</time>
  <course>0.0</course>
  <speed>0.0</speed>
  <fix>3d</fix>
</trkpt>
<trkpt lat="40.0713749" lon="-105.229789">
  <ele>1583.0</ele>
  <time>2026-08-28T17:48:56Z</time>
  <course>248.34</course>
  <speed>0.0</speed>
  <fix>3d</fix>
</trkpt>
<trkpt lat="40.0713749" lon="-105.229789">
  <ele>1583.0</ele>
  <time>2026-08-28T17:48:56Z</time>
  <course>0.0</course>
  <speed>0.0</speed>
  <fix>3d</fix>
</trkpt>
<trkpt lat="40.0713749" lon="-105.229789">
  <ele>1583.0</ele>
  <time>2026-08-28T17:48:56Z</time>
  <course>248.35</course>
  <speed>0.0</speed>
  <fix>3d</fix>
</trkpt>
<trkpt lat="40.0713749" lon="-105.229789">
  <ele>1583.0</ele>
  <time>2026-08-28T17:48:56Z</time>
  <course>0.0</course>
  <speed>0.0</speed>
  <fix>3d</fix>
</trkpt>
<trkpt lat="40.0713749" lon="-105.229789">
  <ele>1583.0</ele>
  <time>2026-08-28T17:48:56Z</time>
  <course>248.35</course>
  <speed>0.0</speed>
  <fix>3d</fix>
</trkpt>
<trkpt lat="40.0713749" lon="-105.229789">
  <ele>1583.0</ele>
  <time>2026-08-28T17:48:56Z</time>
  <course>0.0</course>
  <speed>0.0</speed>
  <fix>3d</fix>
</trkpt>
<trkpt lat="40.0713749" lon="-105.229789">
  <ele>1583.0</ele>
  <time>2026-08-28T17:48:56Z</time>
  <course>248.36</course>
  <speed>0.0</speed>
  <fix>3d</fix>
</trkpt>
<trkpt lat="40.0713749" lon="-105.229789">
  <ele>1583.0</ele>
  <time>2026-08-28T17:48:56Z</time>
  <course>0.0</course>
  <speed>0.0</speed>
  <fix>3d</fix>
</trkpt>
<trkpt lat="40.0713749" lon="-105.229789">
  <ele>1583.0</ele>
  <time>2026-08-28T17:48:56Z</time>
  <course>248.37</course>
  <speed>0.0</speed>
  <fix>3d</fix>
</trkpt>
<trkpt lat="40.0713749" lon="-105.229789">
  <ele>1583.0</ele>
  <time>2026-08-28T17:48:56Z</time>
  <course>0.0</course>
  <speed>0.0</speed>
  <fix>3d</fix>
</trkpt>
<trkpt lat="40.0713749" lon="-105.229789">
  <ele>1583.0</ele>
  <time>2026-08-28T17:48:56Z</time>
  <course>248.37</course>
  <speed>0.0</speed>
  <fix>3d</fix>
</trkpt>
<trkpt lat="40.0713749" lon="-105.229789">
  <ele>1583.0</ele>
  <time>2026-08-28T17:48:56Z</time>
  <course>0.0</course>
  <speed>0.0</speed>
  <fix>3d</fix>
</trkpt>
<trkpt lat="40.0713749" lon="-105.229789">
  <ele>1583.0</ele>
  <time>2026-08-28T17:48:56Z</time>
  <course>248.38</course>
  <speed>0.0</speed>
  <fix>3d</fix>
</trkpt>
<trkpt lat="40.0713749" lon="-105.229789">
  <ele>1583.0</ele>
  <time>2026-08-28T17:48:56Z</time>
  <course>0.0</course>
  <speed>0.0</speed>
  <fix>3d</fix>
</trkpt>
<trkpt lat="40.0713749" lon="-105.229789">
  <ele>1583.0</ele>
  <time>2026-08-28T17:48:56Z</time>
  <course>248.38</course>
  <speed>0.0</speed>
  <fix>3d</fix>
</trkpt>
<trkpt lat="40.0713749" lon="-105.229789">
  <ele>1583.0</ele>
  <time>2026-08-28T17:48:56Z</time>
  <course>0.0</course>
  <speed>0.0</speed>
  <fix>3d</fix>
</trkpt>
<trkpt lat="40.0713749" lon="-105.229789">
  <ele>1583.0</ele>
  <time>2026-08-28T17:48:56Z</time>
  <course>248.39</course>
  <speed>0.0</speed>
  <fix>3d</fix>
</trkpt>
<trkpt lat="40.0713749" lon="-105.229789">
  <ele>1583.0</ele>
  <time>2026-08-28T17:48:56Z</time>
  <course>0.0</course>
  <speed>0.0</speed>
  <fix>3d</fix>
</trkpt>
<trkpt lat="40.0713749" lon="-105.229789">
  <ele>1583.0</ele>
  <time>2026-08-28T17:48:56Z</time>
  <course>248.39</course>
  <speed>0.0</speed>
  <fix>3d</fix>
</trkpt>
<trkpt lat="40.0713749" lon="-105.229789">
  <ele>1583.0</ele>
  <time>2026-08-28T17:48:56Z</time>
  <course>0.0</course>
  <speed>0.0</speed>
  <fix>3d</fix>
</trkpt>
<trkpt lat="40.0713749" lon="-105.229789">
  <ele>1583.0</ele>
  <time>2026-08-28T17:48:56Z</time>
  <course>248.4</course>
  <speed>0.0</speed>
  <fix>3d</fix>
</trkpt>
<trkpt lat="40.0713749" lon="-105.229789">
  <ele>1583.0</ele>
  <time>2026-08-28T17:48:56Z</time>
  <course>0.0</course>
  <speed>0.0</speed>
  <fix>3d</fix>
</trkpt>
<trkpt lat="40.0713749" lon="-105.229789">
  <ele>1583.0</ele>
  <time>2026-08-28T17:48:56Z</time>
  <course>248.4</course>
  <speed>0.0</speed>
  <fix>3d</fix>
</trkpt>
<trkpt lat="40.0713749" lon="-105.229789">
  <ele>1583.0</ele>
  <time>2026-08-28T17:48:56Z</time>
  <course>0.0</course>
  <speed>0.0</speed>
  <fix>3d</fix>
</trkpt>
<trkpt lat="40.0713749" lon="-105.229789">
  <ele>1583.0</ele>
  <time>2026-08-28T17:48:56Z</time>
  <course>248.4</course>
  <speed>0.0</speed>
  <fix>3d</fix>
</trkpt>
<trkpt lat="40.0713749" lon="-105.229789">
  <ele>1583.0</ele>
  <time>2026-08-28T17:48:56Z</time>
  <course>0.0</course>
  <speed>0.0</speed>
  <fix>3d</fix>
</trkpt>
<trkpt lat="40.0713749" lon="-105.229789">
  <ele>1583.0</ele>
  <time>2026-08-28T17:48:56Z</time>
  <course>248.4</course>
  <speed>0.0</speed>
  <fix>3d</fix>
</trkpt>
<trkpt lat="40.0713749" lon="-105.229789">
  <ele>1583.0</ele>
  <time>2026-08-28T17:48:56Z</time>
  <course>0.0</course>
  <speed>0.0</speed>
  <fix>3d</fix>
</trkpt>
<trkpt lat="40.0713749" lon="-105.229789">
  <ele>1583.0</ele>
  <time>2026-08-28T17:48:56Z</time>
  <course>248.41</course>
  <speed>0.0</speed>
  <fix>3d</fix>
</trkpt>
<trkpt lat="40.0713749" lon="-105.229789">
  <ele>1583.0</ele>
  <time>2026-08-28T17:48:56Z</time>
  <course>0.0</course>
  <speed>0.0</speed>
  <fix>3d</fix>
</trkpt>
<trkpt lat="40.0713749" lon="-105.229789">
  <ele>1583.0</ele>
  <time>2026-08-28T17:48:56Z</time>
  <course>248.41</course>
  <speed>0.0</speed>
  <fix>3d</fix>
</trkpt>
<trkpt lat="40.0713749" lon="-105.229789">
  <ele>1583.0</ele>
  <time>2026-08-28T17:48:56Z</time>
  <course>0.0</course>
  <speed>0.0</speed>
  <fix>3d</fix>
</trkpt>
<trkpt lat="40.0713749" lon="-105.229789">
  <ele>1583.0</ele>
  <time>2026-08-28T17:48:56Z</time>
  <course>248.41</course>
  <speed>0.0</speed>
  <fix>3d</fix>
</trkpt>
<trkpt lat="40.0713749" lon="-105.229789">
  <ele>1583.0</ele>
  <time>2026-08-28T17:48:56Z</time>
  <course>0.0</course>
  <speed>0.0</speed>
  <fix>3d</fix>
</trkpt>
<trkpt lat="40.0713749" lon="-105.229789">
  <ele>1583.0</ele>
  <time>2026-08-28T17:48:56Z</time>
  <course>248.41</course>
  <speed>0.0</speed>
  <fix>3d</fix>
</trkpt>
<trkpt lat="40.0713749" lon="-105.229789">
  <ele>1583.0</ele>
  <time>2026-08-28T17:48:56Z</time>
  <course>0.0</course>
  <speed>0.0</speed>
  <fix>3d</fix>
</trkpt>
<trkpt lat="40.0713749" lon="-105.229789">
  <ele>1583.0</ele>
  <time>2026-08-28T17:48:56Z</time>
  <course>248.41</course>
  <speed>0.0</speed>
  <fix>3d</fix>
</trkpt>
<trkpt lat="40.0713749" lon="-105.229789">
  <ele>1583.0</ele>
  <time>2026-08-28T17:48:56Z</time>
  <course>0.0</course>
  <speed>0.0</speed>
  <fix>3d</fix>
</trkpt>
<trkpt lat="40.0713749" lon="-105.229789">
  <ele>1583.0</ele>
  <time>2026-08-28T17:48:56Z</time>
  <course>248.41</course>
  <speed>0.0</speed>
  <fix>3d</fix>
</trkpt>
<trkpt lat="40.0713749" lon="-105.229789">
  <ele>1583.0</ele>
  <time>2026-08-28T17:48:56Z</time>
  <course>0.0</course>
  <speed>0.0</speed>
  <fix>3d</fix>
</trkpt>
<trkpt lat="40.0713749" lon="-105.229789">
  <ele>1583.0</ele>
  <time>2026-08-28T17:48:56Z</time>
  <course>248.41</course>
  <speed>0.0</speed>
  <fix>3d</fix>
</trkpt>
<trkpt lat="40.0713749" lon="-105.229789">
  <ele>1583.0</ele>
  <time>2026-08-28T17:48:56Z</time>
  <course>0.0</course>
  <speed>0.0</speed>
  <fix>3d</fix>
</trkpt>
<trkpt lat="40.0713749" lon="-105.229789">
  <ele>1583.0</ele>
  <time>2026-08-28T17:48:56Z</time>
  <course>248.41</course>
  <speed>0.0</speed>
  <fix>3d</fix>
</trkpt>
<trkpt lat="40.0713749" lon="-105.229789">
  <ele>1583.0</ele>
  <time>2026-08-28T17:48:56Z</time>
  <course>0.0</course>
  <speed>0.0</speed>
  <fix>3d</fix>
</trkpt>
<trkpt lat="40.0713749" lon="-105.229789">
  <ele>1583.0</ele>
  <time>2026-08-28T17:48:56Z</time>
  <course>248.41</course>
  <speed>0.0</speed>
  <fix>3d</fix>
</trkpt>
<trkpt lat="40.0713749" lon="-105.229789">
  <ele>1583.0</ele>
  <time>2026-08-28T17:48:56Z</time>
  <course>0.0</course>
  <speed>0.0</speed>
  <fix>3d</fix>
</trkpt>
<trkpt lat="40.0713749" lon="-105.229789">
  <ele>1583.0</ele>
  <time>2026-08-28T17:48:56Z</time>
  <course>248.41</course>
  <speed>0.0</speed>
  <fix>3d</fix>
</trkpt>
<trkpt lat="40.0713749" lon="-105.229789">
  <ele>1583.0</ele>
  <time>2026-08-28T17:48:56Z</time>
  <course>0.0</course>
  <speed>0.0</speed>
  <fix>3d</fix>
</trkpt>
<trkpt lat="40.0713749" lon="-105.229789">
  <ele>1583.0</ele>
  <time>2026-08-28T17:48:56Z</time>
  <course>248.41</course>
  <speed>0.0</speed>
  <fix>3d</fix>
</trkpt>
<trkpt lat="40.0713749" lon="-105.229789">
  <ele>1583.0</ele>
  <time>2026-08-28T17:48:56Z</time>
  <course>0.0</course>
  <speed>0.0</speed>
  <fix>3d</fix>
</trkpt>
<trkpt lat="40.0713749" lon="-105.229789">
  <ele>1583.0</ele>
  <time>2026-08-28T17:48:56Z</time>
  <course>248.41</course>
  <speed>0.0</speed>
  <fix>3d</fix>
</trkpt>
<trkpt lat="40.0713749" lon="-105.229789">
  <ele>1583.0</ele>
  <time>2026-08-28T17:48:56Z</time>
  <course>0.0</course>
  <speed>0.0</speed>
  <fix>3d</fix>
</trkpt>
<trkpt lat="40.0713749" lon="-105.229789">
  <ele>1583.0</ele>
  <time>2026-08-28T17:48:56Z</time>
  <course>248.41</course>
  <speed>0.0</speed>
  <fix>3d</fix>
</trkpt>
<trkpt lat="40.0713749" lon="-105.229789">
  <ele>1583.0</ele>
  <time>2026-08-28T17:48:56Z</time>
  <course>0.0</course>
  <speed>0.0</speed>
  <fix>3d</fix>
</trkpt>
<trkpt lat="40.0713749" lon="-105.229789">
  <ele>1583.0</ele>
  <time>2026-08-28T17:48:56Z</time>
  <course>248.41</course>
  <speed>0.0</speed>
  <fix>3d</fix>
</trkpt>
<trkpt lat="40.0713749" lon="-105.229789">
  <ele>1583.0</ele>
  <time>2026-08-28T17:48:56Z</time>
  <course>0.0</course>
  <speed>0.0</speed>
  <fix>3d</fix>
</trkpt>
<trkpt lat="40.0713749" lon="-105.229789">
  <ele>1583.0</ele>
  <time>2026-08-28T17:48:56Z</time>
  <course>248.41</course>
  <speed>0.0</speed>
  <fix>3d</fix>
</trkpt>
<trkpt lat="40.0713749" lon="-105.229789">
  <ele>1583.0</ele>
  <time>2026-08-28T17:48:56Z</time>
  <course>0.0</course>
  <speed>0.0</speed>
  <fix>3d</fix>
</trkpt>
<trkpt lat="40.0713749" lon="-105.229789">
  <ele>1583.0</ele>
  <time>2026-08-28T17:48:56Z</time>
  <course>248.41</course>
  <speed>0.0</speed>
  <fix>3d</fix>
</trkpt>
<trkpt lat="40.0713749" lon="-105.229789">
  <ele>1583.0</ele>
  <time>2026-08-28T17:48:56Z</time>
  <course>0.0</course>
  <speed>0.0</speed>
  <fix>3d</fix>
</trkpt>
<trkpt lat="40.0713749" lon="-105.229789">
  <ele>1583.0</ele>
  <time>2026-08-28T17:48:56Z</time>
  <course>248.4</course>
  <speed>0.0</speed>
  <fix>3d</fix>
</trkpt>
<trkpt lat="40.0713749" lon="-105.229789">
  <ele>1583.0</ele>
  <time>2026-08-28T17:48:56Z</time>
  <course>0.0</course>
  <speed>0.0</speed>
  <fix>3d</fix>
</trkpt>
<trkpt lat="40.0713749" lon="-105.229789">
  <ele>1583.0</ele>
  <time>2026-08-28T17:48:56Z</time>
  <course>248.4</course>
  <speed>0.01</speed>
  <fix>3d</fix>
</trkpt>
<trkpt lat="40.0713749" lon="-105.229789">
  <ele>1583.0</ele>
  <time>2026-08-28T17:48:56Z</time>
  <course>0.0</course>
  <speed>0.0</speed>
  <fix>3d</fix>
</trkpt>
<trkpt lat="40.0713749" lon="-105.229789">
  <ele>1583.0</ele>
  <time>2026-08-28T17:48:56Z</time>
  <course>248.4</course>
  <speed>0.01</speed>
  <fix>3d</fix>
</trkpt>
<trkpt lat="40.0713749" lon="-105.229789">
  <ele>1583.0</ele>
  <time>2026-08-28T17:48:56Z</time>
  <course>0.0</course>
  <speed>0.0</speed>
  <fix>3d</fix>
</trkpt>
<trkpt lat="40.0713749" lon="-105.229789">
  <ele>1583.0</ele>
  <time>2026-08-28T17:48:56Z</time>
  <course>248.4</course>
  <speed>0.01</speed>
  <fix>3d</fix>
</trkpt>
<trkpt lat="40.0713749" lon="-105.229789">
  <ele>1583.0</ele>
  <time>2026-08-28T17:48:56Z</time>
  <course>0.0</course>
  <speed>0.0</speed>
  <fix>3d</fix>
</trkpt>
<trkpt lat="40.0713749" lon="-105.229789">
  <ele>1583.0</ele>
  <time>2026-08-28T17:48:56Z</time>
  <course>248.4</course>
  <speed>0.01</speed>
  <fix>3d</fix>
</trkpt>
<trkpt lat="40.0713749" lon="-105.229789">
  <ele>1583.0</ele>
  <time>2026-08-28T17:48:56Z</time>
  <course>0.0</course>
  <speed>0.0</speed>
  <fix>3d</fix>
</trkpt>
<trkpt lat="40.0713749" lon="-105.229789">
  <ele>1583.0</ele>
  <time>2026-08-28T17:48:56Z</time>
  <course>248.39</course>
  <speed>0.01</speed>
  <fix>3d</fix>
</trkpt>
<trkpt lat="40.0713749" lon="-105.229789">
  <ele>1583.0</ele>
  <time>2026-08-28T17:48:56Z</time>
  <course>0.0</course>
  <speed>0.0</speed>
  <fix>3d</fix>
</trkpt>
<trkpt lat="40.0713749" lon="-105.229789">
  <ele>1583.0</ele>
  <time>2026-08-28T17:48:56Z</time>
  <course>248.39</course>
  <speed>0.01</speed>
  <fix>3d</fix>
</trkpt>
<trkpt lat="40.0713749" lon="-105.229789">
  <ele>1583.0</ele>
  <time>2026-08-28T17:48:56Z</time>
  <course>0.0</course>
  <speed>0.0</speed>
  <fix>3d</fix>
</trkpt>
<trkpt lat="40.0713749" lon="-105.229789">
  <ele>1583.0</ele>
  <time>2026-08-28T17:48:56Z</time>
  <course>248.39</course>
  <speed>0.01</speed>
  <fix>3d</fix>
</trkpt>
<trkpt lat="40.0713749" lon="-105.229789">
  <ele>1583.0</ele>
  <time>2026-08-28T17:48:56Z</time>
  <course>0.0</course>
  <speed>0.0</speed>
  <fix>3d</fix>
</trkpt>
<trkpt lat="40.0713749" lon="-105.229789">
  <ele>1583.0</ele>
  <time>2026-08-28T17:48:56Z</time>
  <course>248.38</course>
  <speed>0.01</speed>
  <fix>3d</fix>
</trkpt>
<trkpt lat="40.0713749" lon="-105.229789">
  <ele>1583.0</ele>
  <time>2026-08-28T17:48:56Z</time>
  <course>0.0</course>
  <speed>0.0</speed>
  <fix>3d</fix>
</trkpt>
<trkpt lat="40.0713749" lon="-105.229789">
  <ele>1583.0</ele>
  <time>2026-08-28T17:48:56Z</time>
  <course>248.38</course>
  <speed>0.01</speed>
  <fix>3d</fix>
</trkpt>
<trkpt lat="40.0713749" lon="-105.229789">
  <ele>1583.0</ele>
  <time>2026-08-28T17:48:56Z</time>
  <course>0.0</course>
  <speed>0.0</speed>
  <fix>3d</fix>
</trkpt>
<trkpt lat="40.0713749" lon="-105.229789">
  <ele>1583.0</ele>
  <time>2026-08-28T17:48:56Z</time>
  <course>248.38</course>
  <speed>0.01</speed>
  <fix>3d</fix>
</trkpt>
<trkpt lat="40.0713749" lon="-105.229789">
  <ele>1583.0</ele>
  <time>2026-08-28T17:48:56Z</time>
  <course>0.0</course>
  <speed>0.0</speed>
  <fix>3d</fix>
</trkpt>
<trkpt lat="40.0713749" lon="-105.229789">
  <ele>1583.0</ele>
  <time>2026-08-28T17:48:56Z</time>
  <course>248.37</course>
  <speed>0.01</speed>
  <fix>3d</fix>
</trkpt>
<trkpt lat="40.0713749" lon="-105.229789">
  <ele>1583.0</ele>
  <time>2026-08-28T17:48:56Z</time>
  <course>0.0</course>
  <speed>0.0</speed>
  <fix>3d</fix>
</trkpt>
<trkpt lat="40.0713749" lon="-105.229789">
  <ele>1583.0</ele>
  <time>2026-08-28T17:48:56Z</time>
  <course>248.37</course>
  <speed>0.01</speed>
  <fix>3d</fix>
</trkpt>
<trkpt lat="40.0713749" lon="-105.229789">
  <ele>1583.0</ele>
  <time>2026-08-28T17:48:56Z</time>
  <course>0.0</course>
  <speed>0.0</speed>
  <fix>3d</fix>
</trkpt>
<trkpt lat="40.0713749" lon="-105.229789">
  <ele>1583.0</ele>
  <time>2026-08-28T17:48:56Z</time>
  <course>248.37</course>
  <speed>0.01</speed>
  <fix>3d</fix>
</trkpt>
<trkpt lat="40.0713749" lon="-105.229789">
  <ele>1583.0</ele>
  <time>2026-08-28T17:48:56Z</time>
  <course>0.0</course>
  <speed>0.0</speed>
  <fix>3d</fix>
</trkpt>
<trkpt lat="40.0713749" lon="-105.229789">
  <ele>1583.0</ele>
  <time>2026-08-28T17:48:56Z</time>
  <course>248.36</course>
  <speed>0.01</speed>
  <fix>3d</fix>
</trkpt>
<trkpt lat="40.0713749" lon="-105.229789">
  <ele>1583.0</ele>
  <time>2026-08-28T17:48:56Z</time>
  <course>0.0</course>
  <speed>0.0</speed>
  <fix>3d</fix>
</trkpt>
<trkpt lat="40.0713749" lon="-105.229789">
  <ele>1583.0</ele>
  <time>2026-08-28T17:48:56Z</time>
  <course>248.36</course>
  <speed>0.01</speed>
  <fix>3d</fix>
</trkpt>
<trkpt lat="40.0713749" lon="-105.229789">
  <ele>1583.0</ele>
  <time>2026-08-28T17:48:56Z</time>
  <course>0.0</course>
  <speed>0.0</speed>
  <fix>3d</fix>
</trkpt>
<trkpt lat="40.0713749" lon="-105.229789">
  <ele>1583.0</ele>
  <time>2026-08-28T17:48:56Z</time>
  <course>248.36</course>
  <speed>0.01</speed>
  <fix>3d</fix>
</trkpt>
<trkpt lat="40.0713749" lon="-105.229789">
  <ele>1583.0</ele>
  <time>2026-08-28T17:48:56Z</time>
  <course>0.0</course>
  <speed>0.0</speed>
  <fix>3d</fix>
</trkpt>
<trkpt lat="40.0713749" lon="-105.229789">
  <ele>1583.0</ele>
  <time>2026-08-28T17:48:56Z</time>
  <course>248.35</course>
  <speed>0.01</speed>
  <fix>3d</fix>
</trkpt>
<trkpt lat="40.0713749" lon="-105.229789">
  <ele>1583.0</ele>
  <time>2026-08-28T17:48:56Z</time>
  <course>0.0</course>
  <speed>0.0</speed>
  <fix>3d</fix>
</trkpt>
<trkpt lat="40.0713749" lon="-105.229789">
  <ele>1583.0</ele>
  <time>2026-08-28T17:48:56Z</time>
  <course>248.35</course>
  <speed>0.01</speed>
  <fix>3d</fix>
</trkpt>
<trkpt lat="40.0713749" lon="-105.229789">
  <ele>1583.0</ele>
  <time>2026-08-28T17:48:56Z</time>
  <course>0.0</course>
  <speed>0.0</speed>
  <fix>3d</fix>
</trkpt>
<trkpt lat="40.0713749" lon="-105.229789">
  <ele>1583.0</ele>
  <time>2026-08-28T17:48:56Z</time>
  <course>248.35</course>
  <speed>0.01</speed>
  <fix>3d</fix>
</trkpt>
<trkpt lat="40.0713749" lon="-105.229789">
  <ele>1583.0</ele>
  <time>2026-08-28T17:48:56Z</time>
  <course>0.0</course>
  <speed>0.0</speed>
  <fix>3d</fix>
</trkpt>
<trkpt lat="40.0713749" lon="-105.229789">
  <ele>1583.0</ele>
  <time>2026-08-28T17:48:56Z</time>
  <course>248.34</course>
  <speed>0.01</speed>
  <fix>3d</fix>
</trkpt>
<trkpt lat="40.0713749" lon="-105.229789">
  <ele>1583.0</ele>
  <time>2026-08-28T17:48:56Z</time>
  <course>0.0</course>
  <speed>0.0</speed>
  <fix>3d</fix>
</trkpt>
<trkpt lat="40.0713749" lon="-105.229789">
  <ele>1583.0</ele>
  <time>2026-08-28T17:48:56Z</time>
  <course>248.34</course>
  <speed>0.01</speed>
  <fix>3d</fix>
</trkpt>
<trkpt lat="40.0713749" lon="-105.229789">
  <ele>1583.0</ele>
  <time>2026-08-28T17:48:56Z</time>
  <course>0.0</course>
  <speed>0.0</speed>
  <fix>3d</fix>
</trkpt>
<trkpt lat="40.0713749" lon="-105.229789">
  <ele>1583.0</ele>
  <time>2026-08-28T17:48:56Z</time>
  <course>248.33</course>
  <speed>0.01</speed>
  <fix>3d</fix>
</trkpt>
<trkpt lat="40.0713749" lon="-105.229789">
  <ele>1583.0</ele>
  <time>2026-08-28T17:48:56Z</time>
  <course>0.0</course>
  <speed>0.0</speed>
  <fix>3d</fix>
</trkpt>
<trkpt lat="40.0713749" lon="-105.229789">
  <ele>1583.0</ele>
  <time>2026-08-28T17:48:56Z</time>
  <course>248.33</course>
  <speed>0.01</speed>
  <fix>3d</fix>
</trkpt>
<trkpt lat="40.0713749" lon="-105.229789">
  <ele>1583.0</ele>
  <time>2026-08-28T17:48:56Z</time>
  <course>0.0</course>
  <speed>0.0</speed>
  <fix>3d</fix>
</trkpt>
<trkpt lat="40.0713749" lon="-105.229789">
  <ele>1583.0</ele>
  <time>2026-08-28T17:48:56Z</time>
  <course>248.32</course>
  <speed>0.01</speed>
  <fix>3d</fix>
</trkpt>
<trkpt lat="40.0713749" lon="-105.229789">
  <ele>1583.0</ele>
  <time>2026-08-28T17:48:56Z</time>
  <course>0.0</course>
  <speed>0.0</speed>
  <fix>3d</fix>
</trkpt>
<trkpt lat="40.0713749" lon="-105.229789">
  <ele>1583.0</ele>
  <time>2026-08-28T17:48:56Z</time>
  <course>248.32</course>
  <speed>0.01</speed>
  <fix>3d</fix>
</trkpt>
<trkpt lat="40.0713749" lon="-105.229789">
  <ele>1583.0</ele>
  <time>2026-08-28T17:48:56Z</time>
  <course>0.0</course>
  <speed>0.0</speed>
  <fix>3d</fix>
</trkpt>
<trkpt lat="40.0713749" lon="-105.229789">
  <ele>1583.0</ele>
  <time>2026-08-28T17:48:56Z</time>
  <course>248.32</course>
  <speed>0.01</speed>
  <fix>3d</fix>
</trkpt>
<trkpt lat="40.0713749" lon="-105.229789">
  <ele>1583.0</ele>
  <time>2026-08-28T17:48:56Z</time>
  <course>0.0</course>
  <speed>0.0</speed>
  <fix>3d</fix>
</trkpt>
<trkpt lat="40.0713749" lon="-105.229789">
  <ele>1583.0</ele>
  <time>2026-08-28T17:48:56Z</time>
  <course>248.31</course>
  <speed>0.01</speed>
  <fix>3d</fix>
</trkpt>
<trkpt lat="40.0713749" lon="-105.229789">
  <ele>1583.0</ele>
  <time>2026-08-28T17:48:56Z</time>
  <course>0.0</course>
  <speed>0.0</speed>
  <fix>3d</fix>
</trkpt>
<trkpt lat="40.0713749" lon="-105.229789">
  <ele>1583.0</ele>
  <time>2026-08-28T17:48:56Z</time>
  <course>248.31</course>
  <speed>0.01</speed>
  <fix>3d</fix>
</trkpt>
<trkpt lat="40.0713749" lon="-105.229789">
  <ele>1583.0</ele>
  <time>2026-08-28T17:48:56Z</time>
  <course>0.0</course>
  <speed>0.0</speed>
  <fix>3d</fix>
</trkpt>
<trkpt lat="40.0713749" lon="-105.229789">
  <ele>1583.0</ele>
  <time>2026-08-28T17:48:56Z</time>
  <course>248.3</course>
  <speed>0.01</speed>
  <fix>3d</fix>
</trkpt>
<trkpt lat="40.0713749" lon="-105.229789">
  <ele>1583.0</ele>
  <time>2026-08-28T17:48:56Z</time>
  <course>0.0</course>
  <speed>0.0</speed>
  <fix>3d</fix>
</trkpt>
<trkpt lat="40.0713749" lon="-105.229789">
  <ele>1583.0</ele>
  <time>2026-08-28T17:48:56Z</time>
  <course>248.3</course>
  <speed>0.01</speed>
  <fix>3d</fix>
</trkpt>
<trkpt lat="40.0713749" lon="-105.229789">
  <ele>1583.0</ele>
  <time>2026-08-28T17:48:56Z</time>
  <course>0.0</course>
  <speed>0.0</speed>
  <fix>3d</fix>
</trkpt>
<trkpt lat="40.0713749" lon="-105.229789">
  <ele>1583.0</ele>
  <time>2026-08-28T17:48:56Z</time>
  <course>248.29</course>
  <speed>0.01</speed>
  <fix>3d</fix>
</trkpt>
<trkpt lat="40.0713749" lon="-105.229789">
  <ele>1583.0</ele>
  <time>2026-08-28T17:48:56Z</time>
  <course>0.0</course>
  <speed>0.0</speed>
  <fix>3d</fix>
</trkpt>
<trkpt lat="40.0713749" lon="-105.229789">
  <ele>1583.0</ele>
  <time>2026-08-28T17:48:56Z</time>
  <course>248.29</course>
  <speed>0.01</speed>
  <fix>3d</fix>
</trkpt>
<trkpt lat="40.0713749" lon="-105.229789">
  <ele>1583.0</ele>
  <time>2026-08-28T17:48:56Z</time>
  <course>0.0</course>
  <speed>0.0</speed>
  <fix>3d</fix>
</trkpt>
<trkpt lat="40.0713749" lon="-105.229789">
  <ele>1583.0</ele>
  <time>2026-08-28T17:48:56Z</time>
  <course>248.28</course>
  <speed>0.01</speed>
  <fix>3d</fix>
</trkpt>
<trkpt lat="40.0713749" lon="-105.229789">
  <ele>1583.0</ele>
  <time>2026-08-28T17:48:56Z</time>
  <course>0.0</course>
  <speed>0.0</speed>
  <fix>3d</fix>
</trkpt>
<trkpt lat="40.0713749" lon="-105.229789">
  <ele>1583.0</ele>
  <time>2026-08-28T17:48:56Z</time>
  <course>248.28</course>
  <speed>0.01</speed>
  <fix>3d</fix>
</trkpt>
<trkpt lat="40.0713749" lon="-105.229789">
  <ele>1583.0</ele>
  <time>2026-08-28T17:48:56Z</time>
  <course>0.0</course>
  <speed>0.0</speed>
  <fix>3d</fix>
</trkpt>
<trkpt lat="40.0713749" lon="-105.229789">
  <ele>1583.0</ele>
  <time>2026-08-28T17:48:56Z</time>
  <course>248.27</course>
  <speed>0.01</speed>
  <fix>3d</fix>
</trkpt>
<trkpt lat="40.0713749" lon="-105.229789">
  <ele>1583.0</ele>
  <time>2026-08-28T17:48:56Z</time>
  <course>0.0</course>
  <speed>0.0</speed>
  <fix>3d</fix>
</trkpt>
<trkpt lat="40.0713749" lon="-105.229789">
  <ele>1583.0</ele>
  <time>2026-08-28T17:48:56Z</time>
  <course>248.27</course>
  <speed>0.01</speed>
  <fix>3d</fix>
</trkpt>
<trkpt lat="40.0713749" lon="-105.229789">
  <ele>1583.0</ele>
  <time>2026-08-28T17:48:56Z</time>
  <course>0.0</course>
  <speed>0.0</speed>
  <fix>3d</fix>
</trkpt>
<trkpt lat="40.0713749" lon="-105.229789">
  <ele>1583.0</ele>
  <time>2026-08-28T17:48:56Z</time>
  <course>248.26</course>
  <speed>0.01</speed>
  <fix>3d</fix>
</trkpt>
<trkpt lat="40.0713749" lon="-105.229789">
  <ele>1583.0</ele>
  <time>2026-08-28T17:48:56Z</time>
  <course>0.0</course>
  <speed>0.0</speed>
  <fix>3d</fix>
</trkpt>
<trkpt lat="40.0713749" lon="-105.229789">
  <ele>1583.0</ele>
  <time>2026-08-28T17:48:56Z</time>
  <course>248.26</course>
  <speed>0.01</speed>
  <fix>3d</fix>
</trkpt>
<trkpt lat="40.0713749" lon="-105.229789">
  <ele>1583.0</ele>
  <time>2026-08-28T17:48:56Z</time>
  <course>0.0</course>
  <speed>0.0</speed>
  <fix>3d</fix>
</trkpt>
<trkpt lat="40.0713749" lon="-105.229789">
  <ele>1583.0</ele>
  <time>2026-08-28T17:48:56Z</time>
  <course>248.26</course>
  <speed>0.01</speed>
  <fix>3d</fix>
</trkpt>
<trkpt lat="40.0713749" lon="-105.229789">
  <ele>1583.0</ele>
  <time>2026-08-28T17:48:56Z</time>
  <course>0.0</course>
  <speed>0.0</speed>
  <fix>3d</fix>
</trkpt>
<trkpt lat="40.0713749" lon="-105.229789">
  <ele>1583.0</ele>
  <time>2026-08-28T17:48:56Z</time>
  <course>248.25</course>
  <speed>0.01</speed>
  <fix>3d</fix>
</trkpt>
<trkpt lat="40.0713749" lon="-105.229789">
  <ele>1583.0</ele>
  <time>2026-08-28T17:48:56Z</time>
  <course>0.0</course>
  <speed>0.0</speed>
  <fix>3d</fix>
</trkpt>
<trkpt lat="40.0713749" lon="-105.229789">
  <ele>1583.0</ele>
  <time>2026-08-28T17:48:56Z</time>
  <course>248.25</course>
  <speed>0.01</speed>
  <fix>3d</fix>
</trkpt>
<trkpt lat="40.0713749" lon="-105.229789">
  <ele>1583.0</ele>
  <time>2026-08-28T17:48:56Z</time>
  <course>0.0</course>
  <speed>0.0</speed>
  <fix>3d</fix>
</trkpt>
<trkpt lat="40.0713749" lon="-105.229789">
  <ele>1583.0</ele>
  <time>2026-08-28T17:48:56Z</time>
  <course>248.24</course>
  <speed>0.01</speed>
  <fix>3d</fix>
</trkpt>
<trkpt lat="40.0713749" lon="-105.229789">
  <ele>1583.0</ele>
  <time>2026-08-28T17:48:56Z</time>
  <course>0.0</course>
  <speed>0.0</speed>
  <fix>3d</fix>
</trkpt>
<trkpt lat="40.0713749" lon="-105.229789">
  <ele>1583.0</ele>
  <time>2026-08-28T17:48:56Z</time>
  <course>248.24</course>
  <speed>0.01</speed>
  <fix>3d</fix>
</trkpt>
<trkpt lat="40.0713749" lon="-105.229789">
  <ele>1583.0</ele>
  <time>2026-08-28T17:48:56Z</time>
  <course>0.0</course>
  <speed>0.0</speed>
  <fix>3d</fix>
</trkpt>
<trkpt lat="40.0713749" lon="-105.229789">
  <ele>1583.0</ele>
  <time>2026-08-28T17:48:56Z</time>
  <course>248.23</course>
  <speed>0.01</speed>
  <fix>3d</fix>
</trkpt>
<trkpt lat="40.0713749" lon="-105.229789">
  <ele>1583.0</ele>
  <time>2026-08-28T17:48:56Z</time>
  <course>0.0</course>
  <speed>0.0</speed>
  <fix>3d</fix>
</trkpt>
<trkpt lat="40.0713749" lon="-105.229789">
  <ele>1583.0</ele>
  <time>2026-08-28T17:48:56Z</time>
  <course>248.23</course>
  <speed>0.01</speed>
  <fix>3d</fix>
</trkpt>
<trkpt lat="40.0713749" lon="-105.229789">
  <ele>1583.0</ele>
  <time>2026-08-28T17:48:56Z</time>
  <course>0.0</course>
  <speed>0.0</speed>
  <fix>3d</fix>
</trkpt>
<trkpt lat="40.0713749" lon="-105.229789">
  <ele>1583.0</ele>
  <time>2026-08-28T17:48:56Z</time>
  <course>248.22</course>
  <speed>0.01</speed>
  <fix>3d</fix>
</trkpt>
<trkpt lat="40.0713749" lon="-105.229789">
  <ele>1583.0</ele>
  <time>2026-08-28T17:48:56Z</time>
  <course>0.0</course>
  <speed>0.0</speed>
  <fix>3d</fix>
</trkpt>
<trkpt lat="40.0713749" lon="-105.229789">
  <ele>1583.0</ele>
  <time>2026-08-28T17:48:56Z</time>
  <course>248.22</course>
  <speed>0.01</speed>
  <fix>3d</fix>
</trkpt>
<trkpt lat="40.0713749" lon="-105.229789">
  <ele>1583.0</ele>
  <time>2026-08-28T17:48:56Z</time>
  <course>0.0</course>
  <speed>0.0</speed>
  <fix>3d</fix>
</trkpt>
<trkpt lat="40.0713749" lon="-105.229789">
  <ele>1583.0</ele>
  <time>2026-08-28T17:48:56Z</time>
  <course>248.21</course>
  <speed>0.01</speed>
  <fix>3d</fix>
</trkpt>
<trkpt lat="40.0713749" lon="-105.229789">
  <ele>1583.0</ele>
  <time>2026-08-28T17:48:56Z</time>
  <course>0.0</course>
  <speed>0.0</speed>
  <fix>3d</fix>
</trkpt>
<trkpt lat="40.0713749" lon="-105.229789">
  <ele>1583.0</ele>
  <time>2026-08-28T17:48:56Z</time>
  <course>248.21</course>
  <speed>0.01</speed>
  <fix>3d</fix>
</trkpt>
<trkpt lat="40.0713749" lon="-105.229789">
  <ele>1583.0</ele>
  <time>2026-08-28T17:48:56Z</time>
  <course>0.0</course>
  <speed>0.0</speed>
  <fix>3d</fix>
</trkpt>
<trkpt lat="40.0713749" lon="-105.229789">
  <ele>1583.0</ele>
  <time>2026-08-28T17:48:56Z</time>
  <course>248.2</course>
  <speed>0.01</speed>
  <fix>3d</fix>
</trkpt>
<trkpt lat="40.0713749" lon="-105.229789">
  <ele>1583.0</ele>
  <time>2026-08-28T17:48:56Z</time>
  <course>0.0</course>
  <speed>0.0</speed>
  <fix>3d</fix>
</trkpt>
<trkpt lat="40.0713749" lon="-105.229789">
  <ele>1583.0</ele>
  <time>2026-08-28T17:48:56Z</time>
  <course>248.2</course>
  <speed>0.01</speed>
  <fix>3d</fix>
</trkpt>
<trkpt lat="40.0713749" lon="-105.229789">
  <ele>1583.0</ele>
  <time>2026-08-28T17:48:56Z</time>
  <course>0.0</course>
  <speed>0.0</speed>
  <fix>3d</fix>
</trkpt>
<trkpt lat="40.0713749" lon="-105.229789">
  <ele>1583.0</ele>
  <time>2026-08-28T17:48:56Z</time>
  <course>248.19</course>
  <speed>0.01</speed>
  <fix>3d</fix>
</trkpt>
<trkpt lat="40.0713749" lon="-105.229789">
  <ele>1583.0</ele>
  <time>2026-08-28T17:48:56Z</time>
  <course>0.0</course>
  <speed>0.0</speed>
  <fix>3d</fix>
</trkpt>
<trkpt lat="40.0713749" lon="-105.229789">
  <ele>1583.0</ele>
  <time>2026-08-28T17:48:56Z</time>
  <course>248.19</course>
  <speed>0.01</speed>
  <fix>3d</fix>
</trkpt>
<trkpt lat="40.0713749" lon="-105.229789">
  <ele>1583.0</ele>
  <time>2026-08-28T17:48:56Z</time>
  <course>0.0</course>
  <speed>0.0</speed>
  <fix>3d</fix>
</trkpt>
<trkpt lat="40.0713749" lon="-105.229789">
  <ele>1583.0</ele>
  <time>2026-08-28T17:48:56Z</time>
  <course>248.18</course>
  <speed>0.01</speed>
  <fix>3d</fix>
</trkpt>
<trkpt lat="40.0713749" lon="-105.229789">
  <ele>1583.0</ele>
  <time>2026-08-28T17:48:56Z</time>
  <course>0.0</course>
  <speed>0.0</speed>
  <fix>3d</fix>
</trkpt>
<trkpt lat="40.0713749" lon="-105.229789">
  <ele>1583.0</ele>
  <time>2026-08-28T17:48:56Z</time>
  <course>248.18</course>
  <speed>0.01</speed>
  <fix>3d</fix>
</trkpt>
<trkpt lat="40.0713749" lon="-105.229789">
  <ele>1583.0</ele>
  <time>2026-08-28T17:48:56Z</time>
  <course>0.0</course>
  <speed>0.0</speed>
  <fix>3d</fix>
</trkpt>
<trkpt lat="40.0713749" lon="-105.229789">
  <ele>1583.0</ele>
  <time>2026-08-28T17:48:56Z</time>
  <course>248.17</course>
  <speed>0.022360679774997897</speed>
  <fix>3d</fix>
</trkpt>
<trkpt lat="40.0713749" lon="-105.229789">
  <ele>1583.0</ele>
  <time>2026-08-28T17:48:56Z</time>
  <course>0.0</course>
  <speed>0.0</speed>
  <fix>3d</fix>
</trkpt>
<trkpt lat="40.0713749" lon="-105.229789">
  <ele>1583.0</ele>
  <time>2026-08-28T17:48:56Z</time>
  <course>248.17</course>
  <speed>0.022360679774997897</speed>
  <fix>3d</fix>
</trkpt>
<trkpt lat="40.0713749" lon="-105.229789">
  <ele>1583.0</ele>
  <time>2026-08-28T17:48:56Z</time>
  <course>0.0</course>
  <speed>0.0</speed>
  <fix>3d</fix>
</trkpt>
<trkpt lat="40.0713749" lon="-105.229789">
  <ele>1583.0</ele>
  <time>2026-08-28T17:48:56Z</time>
  <course>248.16</course>
  <speed>0.022360679774997897</speed>
  <fix>3d</fix>
</trkpt>
<trkpt lat="40.0713749" lon="-105.229789">
  <ele>1583.0</ele>
  <time>2026-08-28T17:48:56Z</time>
  <course>0.0</course>
  <speed>0.0</speed>
  <fix>3d</fix>
</trkpt>
<trkpt lat="40.0713749" lon="-105.229789">
  <ele>1583.0</ele>
  <time>2026-08-28T17:48:56Z</time>
  <course>248.16</course>
  <speed>0.022360679774997897</speed>
  <fix>3d</fix>
</trkpt>
<trkpt lat="40.0713749" lon="-105.229789">
  <ele>1583.0</ele>
  <time>2026-08-28T17:48:56Z</time>
  <course>0.0</course>
  <speed>0.0</speed>
  <fix>3d</fix>
</trkpt>
<trkpt lat="40.0713749" lon="-105.229789">
  <ele>1583.0</ele>
  <time>2026-08-28T17:48:56Z</time>
  <course>248.15</course>
  <speed>0.022360679774997897</speed>
  <fix>3d</fix>
</trkpt>
<trkpt lat="40.0713749" lon="-105.229789">
  <ele>1583.0</ele>
  <time>2026-08-28T17:48:56Z</time>
  <course>0.0</course>
  <speed>0.0</speed>
  <fix>3d</fix>
</trkpt>
<trkpt lat="40.0713749" lon="-105.229789">
  <ele>1583.0</ele>
  <time>2026-08-28T17:48:56Z</time>
  <course>248.15</course>
  <speed>0.022360679774997897</speed>
  <fix>3d</fix>
</trkpt>
<trkpt lat="40.0713749" lon="-105.229789">
  <ele>1583.0</ele>
  <time>2026-08-28T17:48:56Z</time>
  <course>0.0</course>
  <speed>0.0</speed>
  <fix>3d</fix>
</trkpt>
<trkpt lat="40.0713749" lon="-105.229789">
  <ele>1583.0</ele>
  <time>2026-08-28T17:48:56Z</time>
  <course>248.14</course>
  <speed>0.022360679774997897</speed>
  <fix>3d</fix>
</trkpt>
<trkpt lat="40.0713749" lon="-105.229789">
  <ele>1583.0</ele>
  <time>2026-08-28T17:48:56Z</time>
  <course>0.0</course>
  <speed>0.0</speed>
  <fix>3d</fix>
</trkpt>
<trkpt lat="40.0713749" lon="-105.229789">
  <ele>1583.0</ele>
  <time>2026-08-28T17:48:56Z</time>
  <course>248.14</course>
  <speed>0.022360679774997897</speed>
  <fix>3d</fix>
</trkpt>
<trkpt lat="40.0713749" lon="-105.229789">
  <ele>1583.0</ele>
  <time>2026-08-28T17:48:56Z</time>
  <course>0.0</course>
  <speed>0.0</speed>
  <fix>3d</fix>
</trkpt>
<trkpt lat="40.0713749" lon="-105.229789">
  <ele>1583.0</ele>
  <time>2026-08-28T17:48:56Z</time>
  <course>248.13</course>
  <speed>0.022360679774997897</speed>
  <fix>3d</fix>
</trkpt>
<trkpt lat="40.0713749" lon="-105.229789">
  <ele>1583.0</ele>
  <time>2026-08-28T17:48:56Z</time>
  <course>0.0</course>
  <speed>0.0</speed>
  <fix>3d</fix>
</trkpt>
<trkpt lat="40.0713749" lon="-105.229789">
  <ele>1583.0</ele>
  <time>2026-08-28T17:48:56Z</time>
  <course>248.13</course>
  <speed>0.022360679774997897</speed>
  <fix>3d</fix>
</trkpt>
<trkpt lat="40.0713749" lon="-105.229789">
  <ele>1583.0</ele>
  <time>2026-08-28T17:48:56Z</time>
  <course>0.0</course>
  <speed>0.0</speed>
  <fix>3d</fix>
</trkpt>
<trkpt lat="40.0713749" lon="-105.229789">
  <ele>1583.0</ele>
  <time>2026-08-28T17:48:56Z</time>
  <course>248.12</course>
  <speed>0.022360679774997897</speed>
  <fix>3d</fix>
</trkpt>
<trkpt lat="40.0713749" lon="-105.229789">
  <ele>1583.0</ele>
  <time>2026-08-28T17:48:56Z</time>
  <course>0.0</course>
  <speed>0.0</speed>
  <fix>3d</fix>
</trkpt>
<trkpt lat="40.0713749" lon="-105.229789">
  <ele>1583.0</ele>
  <time>2026-08-28T17:48:56Z</time>
  <course>248.12</course>
  <speed>0.022360679774997897</speed>
  <fix>3d</fix>
</trkpt>
<trkpt lat="40.0713749" lon="-105.229789">
  <ele>1583.0</ele>
  <time>2026-08-28T17:48:56Z</time>
  <course>0.0</course>
  <speed>0.0</speed>
  <fix>3d</fix>
</trkpt>
<trkpt lat="40.0713749" lon="-105.229789">
  <ele>1583.0</ele>
  <time>2026-08-28T17:48:56Z</time>
  <course>248.11</course>
  <speed>0.022360679774997897</speed>
  <fix>3d</fix>
</trkpt>
<trkpt lat="40.0713749" lon="-105.229789">
  <ele>1583.0</ele>
  <time>2026-08-28T17:48:56Z</time>
  <course>0.0</course>
  <speed>0.0</speed>
  <fix>3d</fix>
</trkpt>
<trkpt lat="40.0713749" lon="-105.229789">
  <ele>1583.0</ele>
  <time>2026-08-28T17:48:56Z</time>
  <course>248.11</course>
  <speed>0.022360679774997897</speed>
  <fix>3d</fix>
</trkpt>
<trkpt lat="40.0713749" lon="-105.229789">
  <ele>1583.0</ele>
  <time>2026-08-28T17:48:56Z</time>
  <course>0.0</course>
  <speed>0.0</speed>
  <fix>3d</fix>
</trkpt>
<trkpt lat="40.0713749" lon="-105.229789">
  <ele>1583.0</ele>
  <time>2026-08-28T17:48:56Z</time>
  <course>248.1</course>
  <speed>0.022360679774997897</speed>
  <fix>3d</fix>
</trkpt>
<trkpt lat="40.0713749" lon="-105.229789">
  <ele>1583.0</ele>
  <time>2026-08-28T17:48:56Z</time>
  <course>0.0</course>
  <speed>0.0</speed>
  <fix>3d</fix>
</trkpt>
<trkpt lat="40.0713749" lon="-105.229789">
  <ele>1583.0</ele>
  <time>2026-08-28T17:48:56Z</time>
  <course>248.1</course>
  <speed>0.022360679774997897</speed>
  <fix>3d</fix>
</trkpt>
<trkpt lat="40.0713749" lon="-105.229789">
  <ele>1583.0</ele>
  <time>2026-08-28T17:48:56Z</time>
  <course>0.0</course>
  <speed>0.0</speed>
  <fix>3d</fix>
</trkpt>
<trkpt lat="40.0713749" lon="-105.229789">
  <ele>1583.0</ele>
  <time>2026-08-28T17:48:56Z</time>
  <course>248.09</course>
  <speed>0.022360679774997897</speed>
  <fix>3d</fix>
</trkpt>
<trkpt lat="40.0713749" lon="-105.229789">
  <ele>1583.0</ele>
  <time>2026-08-28T17:48:56Z</time>
  <course>0.0</course>
  <speed>0.0</speed>
  <fix>3d</fix>
</trkpt>
<trkpt lat="40.0713749" lon="-105.229789">
  <ele>1583.0</ele>
  <time>2026-08-28T17:48:56Z</time>
  <course>248.09</course>
  <speed>0.022360679774997897</speed>
  <fix>3d</fix>
</trkpt>
<trkpt lat="40.0713749" lon="-105.229789">
  <ele>1583.0</ele>
  <time>2026-08-28T17:48:56Z</time>
  <course>0.0</course>
  <speed>0.0</speed>
  <fix>3d</fix>
</trkpt>
<trkpt lat="40.0713749" lon="-105.229789">
  <ele>1583.0</ele>
  <time>2026-08-28T17:48:56Z</time>
  <course>248.08</course>
  <speed>0.022360679774997897</speed>
  <fix>3d</fix>
</trkpt>
<trkpt lat="40.0713749" lon="-105.229789">
  <ele>1583.0</ele>
  <time>2026-08-28T17:48:56Z</time>
  <course>0.0</course>
  <speed>0.0</speed>
  <fix>3d</fix>
</trkpt>
<trkpt lat="40.0713749" lon="-105.229789">
  <ele>1583.0</ele>
  <time>2026-08-28T17:48:56Z</time>
  <course>248.08</course>
  <speed>0.022360679774997897</speed>
  <fix>3d</fix>
</trkpt>
<trkpt lat="40.0713749" lon="-105.229789">
  <ele>1583.0</ele>
  <time>2026-08-28T17:48:56Z</time>
  <course>0.0</course>
  <speed>0.0</speed>
  <fix>3d</fix>
</trkpt>
<trkpt lat="40.0713749" lon="-105.229789">
  <ele>1583.0</ele>
  <time>2026-08-28T17:48:56Z</time>
  <course>248.07</course>
  <speed>0.022360679774997897</speed>
  <fix>3d</fix>
</trkpt>
<trkpt lat="40.0713749" lon="-105.229789">
  <ele>1583.0</ele>
  <time>2026-08-28T17:48:56Z</time>
  <course>0.0</course>
  <speed>0.0</speed>
  <fix>3d</fix>
</trkpt>
<trkpt lat="40.0713749" lon="-105.229789">
  <ele>1583.0</ele>
  <time>2026-08-28T17:48:56Z</time>
  <course>248.07</course>
  <speed>0.022360679774997897</speed>
  <fix>3d</fix>
</trkpt>
<trkpt lat="40.0713749" lon="-105.229789">
  <ele>1583.0</ele>
  <time>2026-08-28T17:48:56Z</time>
  <course>0.0</course>
  <speed>0.0</speed>
  <fix>3d</fix>
</trkpt>
<trkpt lat="40.0713749" lon="-105.229789">
  <ele>1583.0</ele>
  <time>2026-08-28T17:48:56Z</time>
  <course>248.06</course>
  <speed>0.022360679774997897</speed>
  <fix>3d</fix>
</trkpt>
<trkpt lat="40.0713749" lon="-105.229789">
  <ele>1583.0</ele>
  <time>2026-08-28T17:48:56Z</time>
  <course>0.0</course>
  <speed>0.0</speed>
  <fix>3d</fix>
</trkpt>
<trkpt lat="40.0713749" lon="-105.229789">
  <ele>1583.0</ele>
  <time>2026-08-28T17:48:56Z</time>
  <course>248.06</course>
  <speed>0.022360679774997897</speed>
  <fix>3d</fix>
</trkpt>
<trkpt lat="40.0713749" lon="-105.229789">
  <ele>1583.0</ele>
  <time>2026-08-28T17:48:56Z</time>
  <course>0.0</course>
  <speed>0.0</speed>
  <fix>3d</fix>
</trkpt>
<trkpt lat="40.0713749" lon="-105.229789">
  <ele>1583.0</ele>
  <time>2026-08-28T17:48:56Z</time>
  <course>248.05</course>
  <speed>0.022360679774997897</speed>
  <fix>3d</fix>
</trkpt>
<trkpt lat="40.0713749" lon="-105.229789">
  <ele>1583.0</ele>
  <time>2026-08-28T17:48:56Z</time>
  <course>0.0</course>
  <speed>0.0</speed>
  <fix>3d</fix>
</trkpt>
<trkpt lat="40.0713749" lon="-105.229789">
  <ele>1583.0</ele>
  <time>2026-08-28T17:48:56Z</time>
  <course>248.05</course>
  <speed>0.022360679774997897</speed>
  <fix>3d</fix>
</trkpt>
<trkpt lat="40.0713749" lon="-105.229789">
  <ele>1583.0</ele>
  <time>2026-08-28T17:48:56Z</time>
  <course>0.0</course>
  <speed>0.0</speed>
  <fix>3d</fix>
</trkpt>
<trkpt lat="40.0713749" lon="-105.229789">
  <ele>1583.0</ele>
  <time>2026-08-28T17:48:56Z</time>
  <course>248.05</course>
  <speed>0.022360679774997897</speed>
  <fix>3d</fix>
</trkpt>
<trkpt lat="40.0713749" lon="-105.229789">
  <ele>1583.0</ele>
  <time>2026-08-28T17:48:56Z</time>
  <course>0.0</course>
  <speed>0.0</speed>
  <fix>3d</fix>
</trkpt>
<trkpt lat="40.0713749" lon="-105.229789">
  <ele>1583.0</ele>
  <time>2026-08-28T17:48:56Z</time>
  <course>248.04</course>
  <speed>0.022360679774997897</speed>
  <fix>3d</fix>
</trkpt>
<trkpt lat="40.0713749" lon="-105.229789">
  <ele>1583.0</ele>
  <time>2026-08-28T17:48:56Z</time>
  <course>0.0</course>
  <speed>0.0</speed>
  <fix>3d</fix>
</trkpt>
<trkpt lat="40.0713749" lon="-105.229789">
  <ele>1583.0</ele>
  <time>2026-08-28T17:48:56Z</time>
  <course>248.04</course>
  <speed>0.022360679774997897</speed>
  <fix>3d</fix>
</trkpt>
<trkpt lat="40.0713749" lon="-105.229789">
  <ele>1583.0</ele>
  <time>2026-08-28T17:48:56Z</time>
  <course>0.0</course>
  <speed>0.0</speed>
  <fix>3d</fix>
</trkpt>
<trkpt lat="40.0713749" lon="-105.229789">
  <ele>1583.0</ele>
  <time>2026-08-28T17:48:56Z</time>
  <course>248.03</course>
  <speed>0.022360679774997897</speed>
  <fix>3d</fix>
</trkpt>
<trkpt lat="40.0713749" lon="-105.229789">
  <ele>1583.0</ele>
  <time>2026-08-28T17:48:56Z</time>
  <course>0.0</course>
  <speed>0.0</speed>
  <fix>3d</fix>
</trkpt>
<trkpt lat="40.0713749" lon="-105.229789">
  <ele>1583.0</ele>
  <time>2026-08-28T17:48:56Z</time>
  <course>248.03</course>
  <speed>0.022360679774997897</speed>
  <fix>3d</fix>
</trkpt>
<trkpt lat="40.0713749" lon="-105.229789">
  <ele>1583.0</ele>
  <time>2026-08-28T17:48:56Z</time>
  <course>0.0</course>
  <speed>0.0</speed>
  <fix>3d</fix>
</trkpt>
<trkpt lat="40.0713749" lon="-105.229789">
  <ele>1583.0</ele>
  <time>2026-08-28T17:48:56Z</time>
  <course>248.02</course>
  <speed>0.022360679774997897</speed>
  <fix>3d</fix>
</trkpt>
<trkpt lat="40.0713749" lon="-105.229789">
  <ele>1583.0</ele>
  <time>2026-08-28T17:48:56Z</time>
  <course>0.0</course>
  <speed>0.0</speed>
  <fix>3d</fix>
</trkpt>
<trkpt lat="40.0713749" lon="-105.229789">
  <ele>1583.0</ele>
  <time>2026-08-28T17:48:56Z</time>
  <course>248.02</course>
  <speed>0.022360679774997897</speed>
  <fix>3d</fix>
</trkpt>
<trkpt lat="40.0713749" lon="-105.229789">
  <ele>1583.0</ele>
  <time>2026-08-28T17:48:56Z</time>
  <course>0.0</course>
  <speed>0.0</speed>
  <fix>3d</fix>
</trkpt>
<trkpt lat="40.0713749" lon="-105.229789">
  <ele>1583.0</ele>
  <time>2026-08-28T17:48:56Z</time>
  <course>248.01</course>
  <speed>0.022360679774997897</speed>
  <fix>3d</fix>
</trkpt>
<trkpt lat="40.0713749" lon="-105.229789">
  <ele>1583.0</ele>
  <time>2026-08-28T17:48:56Z</time>
  <course>0.0</course>
  <speed>0.0</speed>
  <fix>3d</fix>
</trkpt>
<trkpt lat="40.0713749" lon="-105.229789">
  <ele>1583.0</ele>
  <time>2026-08-28T17:48:56Z</time>
  <course>248.01</course>
  <speed>0.022360679774997897</speed>
  <fix>3d</fix>
</trkpt>
<trkpt lat="40.0713749" lon="-105.229789">
  <ele>1583.0</ele>
  <time>2026-08-28T17:48:56Z</time>
  <course>0.0</course>
  <speed>0.0</speed>
  <fix>3d</fix>
</trkpt>
<trkpt lat="40.0713749" lon="-105.229789">
  <ele>1583.0</ele>
  <time>2026-08-28T17:48:56Z</time>
  <course>248.0</course>
  <speed>0.022360679774997897</speed>
  <fix>3d</fix>
</trkpt>
<trkpt lat="40.0713749" lon="-105.229789">
  <ele>1583.0</ele>
  <time>2026-08-28T17:48:56Z</time>
  <course>0.0</course>
  <speed>0.0</speed>
  <fix>3d</fix>
</trkpt>
<trkpt lat="40.0713749" lon="-105.229789">
  <ele>1583.0</ele>
  <time>2026-08-28T17:48:56Z</time>
  <course>248.0</course>
  <speed>0.022360679774997897</speed>
  <fix>3d</fix>
</trkpt>
<trkpt lat="40.0713749" lon="-105.229789">
  <ele>1583.0</ele>
  <time>2026-08-28T17:48:56Z</time>
  <course>0.0</course>
  <speed>0.0</speed>
  <fix>3d</fix>
</trkpt>
<trkpt lat="40.0713749" lon="-105.229789">
  <ele>1583.0</ele>
  <time>2026-08-28T17:48:56Z</time>
  <course>247.99</course>
  <speed>0.022360679774997897</speed>
  <fix>3d</fix>
</trkpt>
<trkpt lat="40.0713749" lon="-105.229789">
  <ele>1583.0</ele>
  <time>2026-08-28T17:48:56Z</time>
  <course>0.0</course>
  <speed>0.0</speed>
  <fix>3d</fix>
</trkpt>
<trkpt lat="40.0713749" lon="-105.229789">
  <ele>1583.0</ele>
  <time>2026-08-28T17:48:56Z</time>
  <course>247.99</course>
  <speed>0.022360679774997897</speed>
  <fix>3d</fix>
</trkpt>
<trkpt lat="40.0713749" lon="-105.229789">
  <ele>1583.0</ele>
  <time>2026-08-28T17:48:56Z</time>
  <course>0.0</course>
  <speed>0.0</speed>
  <fix>3d</fix>
</trkpt>
<trkpt lat="40.0713749" lon="-105.229789">
  <ele>1583.0</ele>
  <time>2026-08-28T17:48:56Z</time>
  <course>247.99</course>
  <speed>0.022360679774997897</speed>
  <fix>3d</fix>
</trkpt>
<trkpt lat="40.0713749" lon="-105.229789">
  <ele>1583.0</ele>
  <time>2026-08-28T17:48:56Z</time>
  <course>0.0</course>
  <speed>0.0</speed>
  <fix>3d</fix>
</trkpt>
<trkpt lat="40.0713749" lon="-105.229789">
  <ele>1583.0</ele>
  <time>2026-08-28T17:48:56Z</time>
  <course>247.98</course>
  <speed>0.022360679774997897</speed>
  <fix>3d</fix>
</trkpt>
<trkpt lat="40.0713749" lon="-105.229789">
  <ele>1583.0</ele>
  <time>2026-08-28T17:48:56Z</time>
  <course>0.0</course>
  <speed>0.0</speed>
  <fix>3d</fix>
</trkpt>
<trkpt lat="40.0713749" lon="-105.229789">
  <ele>1583.0</ele>
  <time>2026-08-28T17:48:56Z</time>
  <course>247.96</course>
  <speed>0.022360679774997897</speed>
  <fix>3d</fix>
</trkpt>
<trkpt lat="40.0713749" lon="-105.229789">
  <ele>1583.0</ele>
  <time>2026-08-28T17:48:56Z</time>
  <course>0.0</course>
  <speed>0.0</speed>
  <fix>3d</fix>
</trkpt>
<trkpt lat="40.0713749" lon="-105.229789">
  <ele>1583.0</ele>
  <time>2026-08-28T17:48:56Z</time>
  <course>247.95</course>
  <speed>0.022360679774997897</speed>
  <fix>3d</fix>
</trkpt>
<trkpt lat="40.0713749" lon="-105.229789">
  <ele>1583.0</ele>
  <time>2026-08-28T17:48:56Z</time>
  <course>0.0</course>
  <speed>0.0</speed>
  <fix>3d</fix>
</trkpt>
<trkpt lat="40.0713749" lon="-105.229789">
  <ele>1583.0</ele>
  <time>2026-08-28T17:48:56Z</time>
  <course>247.95</course>
  <speed>0.022360679774997897</speed>
  <fix>3d</fix>
</trkpt>
<trkpt lat="40.0713749" lon="-105.229789">
  <ele>1583.0</ele>
  <time>2026-08-28T17:48:56Z</time>
  <course>0.0</course>
  <speed>0.0</speed>
  <fix>3d</fix>
</trkpt>
<trkpt lat="40.0713749" lon="-105.229789">
  <ele>1583.0</ele>
  <time>2026-08-28T17:48:56Z</time>
  <course>247.94</course>
  <speed>0.022360679774997897</speed>
  <fix>3d</fix>
</trkpt>
<trkpt lat="40.0713749" lon="-105.229789">
  <ele>1583.0</ele>
  <time>2026-08-28T17:48:56Z</time>
  <course>0.0</course>
  <speed>0.0</speed>
  <fix>3d</fix>
</trkpt>
<trkpt lat="40.0713749" lon="-105.229789">
  <ele>1583.0</ele>
  <time>2026-08-28T17:48:56Z</time>
  <course>247.94</course>
  <speed>0.022360679774997897</speed>
  <fix>3d</fix>
</trkpt>
<trkpt lat="40.0713749" lon="-105.229789">
  <ele>1583.0</ele>
  <time>2026-08-28T17:48:56Z</time>
  <course>0.0</course>
  <speed>0.0</speed>
  <fix>3d</fix>
</trkpt>
<trkpt lat="40.0713749" lon="-105.229789">
  <ele>1583.0</ele>
  <time>2026-08-28T17:48:56Z</time>
  <course>247.93</course>
  <speed>0.022360679774997897</speed>
  <fix>3d</fix>
</trkpt>
<trkpt lat="40.0713749" lon="-105.229789">
  <ele>1583.0</ele>
  <time>2026-08-28T17:48:56Z</time>
  <course>0.0</course>
  <speed>0.0</speed>
  <fix>3d</fix>
</trkpt>
<trkpt lat="40.0713749" lon="-105.229789">
  <ele>1583.0</ele>
  <time>2026-08-28T17:48:56Z</time>
  <course>247.93</course>
  <speed>0.022360679774997897</speed>
  <fix>3d</fix>
</trkpt>
<trkpt lat="40.0713749" lon="-105.229789">
  <ele>1583.0</ele>
  <time>2026-08-28T17:48:56Z</time>
  <course>0.0</course>
  <speed>0.0</speed>
  <fix>3d</fix>
</trkpt>
<trkpt lat="40.0713749" lon="-105.229789">
  <ele>1583.0</ele>
  <time>2026-08-28T17:48:56Z</time>
  <course>247.92</course>
  <speed>0.022360679774997897</speed>
  <fix>3d</fix>
</trkpt>
<trkpt lat="40.0713749" lon="-105.229789">
  <ele>1583.0</ele>
  <time>2026-08-28T17:48:56Z</time>
  <course>0.0</course>
  <speed>0.0</speed>
  <fix>3d</fix>
</trkpt>
<trkpt lat="40.0713749" lon="-105.229789">
  <ele>1583.0</ele>
  <time>2026-08-28T17:48:56Z</time>
  <course>247.92</course>
  <speed>0.022360679774997897</speed>
  <fix>3d</fix>
</trkpt>
<trkpt lat="40.0713749" lon="-105.229789">
  <ele>1583.0</ele>
  <time>2026-08-28T17:48:56Z</time>
  <course>0.0</course>
  <speed>0.0</speed>
  <fix>3d</fix>
</trkpt>
<trkpt lat="40.0713749" lon="-105.229789">
  <ele>1583.0</ele>
  <time>2026-08-28T17:48:56Z</time>
  <course>247.92</course>
  <speed>0.022360679774997897</speed>
  <fix>3d</fix>
</trkpt>
<trkpt lat="40.0713749" lon="-105.229789">
  <ele>1583.0</ele>
  <time>2026-08-28T17:48:56Z</time>
  <course>0.0</course>
  <speed>0.0</speed>
  <fix>3d</fix>
</trkpt>
<trkpt lat="40.0713749" lon="-105.229789">
  <ele>1583.0</ele>
  <time>2026-08-28T17:48:56Z</time>
  <course>247.91</course>
  <speed>0.022360679774997897</speed>
  <fix>3d</fix>
</trkpt>
<trkpt lat="40.0713749" lon="-105.229789">
  <ele>1583.0</ele>
  <time>2026-08-28T17:48:56Z</time>
  <course>0.0</course>
  <speed>0.0</speed>
  <fix>3d</fix>
</trkpt>
<trkpt lat="40.0713749" lon="-105.229789">
  <ele>1583.0</ele>
  <time>2026-08-28T17:48:56Z</time>
  <course>247.91</course>
  <speed>0.022360679774997897</speed>
  <fix>3d</fix>
</trkpt>
<trkpt lat="40.0713749" lon="-105.229789">
  <ele>1583.0</ele>
  <time>2026-08-28T17:48:56Z</time>
  <course>0.0</course>
  <speed>0.0</speed>
  <fix>3d</fix>
</trkpt>
<trkpt lat="40.0713749" lon="-105.229789">
  <ele>1583.0</ele>
  <time>2026-08-28T17:48:56Z</time>
  <course>247.9</course>
  <speed>0.022360679774997897</speed>
  <fix>3d</fix>
</trkpt>
<trkpt lat="40.0713749" lon="-105.229789">
  <ele>1583.0</ele>
  <time>2026-08-28T17:48:56Z</time>
  <course>0.0</course>
  <speed>0.0</speed>
  <fix>3d</fix>
</trkpt>
<trkpt lat="40.0713749" lon="-105.229789">
  <ele>1583.0</ele>
  <time>2026-08-28T17:48:56Z</time>
  <course>247.9</course>
  <speed>0.022360679774997897</speed>
  <fix>3d</fix>
</trkpt>
<trkpt lat="40.0713749" lon="-105.229789">
  <ele>1583.0</ele>
  <time>2026-08-28T17:48:56Z</time>
  <course>0.0</course>
  <speed>0.0</speed>
  <fix>3d</fix>
</trkpt>
<trkpt lat="40.0713749" lon="-105.229789">
  <ele>1583.0</ele>
  <time>2026-08-28T17:48:56Z</time>
  <course>247.89</course>
  <speed>0.022360679774997897</speed>
  <fix>3d</fix>
</trkpt>
<trkpt lat="40.0713749" lon="-105.229789">
  <ele>1583.0</ele>
  <time>2026-08-28T17:48:56Z</time>
  <course>0.0</course>
  <speed>0.0</speed>
  <fix>3d</fix>
</trkpt>
<trkpt lat="40.0713749" lon="-105.229789">
  <ele>1583.0</ele>
  <time>2026-08-28T17:48:56Z</time>
  <course>247.89</course>
  <speed>0.022360679774997897</speed>
  <fix>3d</fix>
</trkpt>
<trkpt lat="40.0713749" lon="-105.229789">
  <ele>1583.0</ele>
  <time>2026-08-28T17:48:56Z</time>
  <course>0.0</course>
  <speed>0.0</speed>
  <fix>3d</fix>
</trkpt>
<trkpt lat="40.0713749" lon="-105.229789">
  <ele>1583.0</ele>
  <time>2026-08-28T17:48:56Z</time>
  <course>247.89</course>
  <speed>0.022360679774997897</speed>
  <fix>3d</fix>
</trkpt>
<trkpt lat="40.0713749" lon="-105.229789">
  <ele>1583.0</ele>
  <time>2026-08-28T17:48:56Z</time>
  <course>0.0</course>
  <speed>0.0</speed>
  <fix>3d</fix>
</trkpt>
<trkpt lat="40.0713749" lon="-105.229789">
  <ele>1583.0</ele>
  <time>2026-08-28T17:48:56Z</time>
  <course>247.88</course>
  <speed>0.0316227766016838</speed>
  <fix>3d</fix>
</trkpt>
<trkpt lat="40.0713749" lon="-105.229789">
  <ele>1583.0</ele>
  <time>2026-08-28T17:48:56Z</time>
  <course>0.0</course>
  <speed>0.0</speed>
  <fix>3d</fix>
</trkpt>
<trkpt lat="40.0713749" lon="-105.229789">
  <ele>1583.0</ele>
  <time>2026-08-28T17:48:56Z</time>
  <course>247.88</course>
  <speed>0.0316227766016838</speed>
  <fix>3d</fix>
</trkpt>
<trkpt lat="40.0713749" lon="-105.229789">
  <ele>1583.0</ele>
  <time>2026-08-28T17:48:56Z</time>
  <course>0.0</course>
  <speed>0.0</speed>
  <fix>3d</fix>
</trkpt>
<trkpt lat="40.0713749" lon="-105.229789">
  <ele>1583.0</ele>
  <time>2026-08-28T17:48:56Z</time>
  <course>247.87</course>
  <speed>0.0316227766016838</speed>
  <fix>3d</fix>
</trkpt>
<trkpt lat="40.0713749" lon="-105.229789">
  <ele>1583.0</ele>
  <time>2026-08-28T17:48:56Z</time>
  <course>0.0</course>
  <speed>0.0</speed>
  <fix>3d</fix>
</trkpt>
<trkpt lat="40.0713749" lon="-105.229789">
  <ele>1583.0</ele>
  <time>2026-08-28T17:48:56Z</time>
  <course>247.87</course>
  <speed>0.0316227766016838</speed>
  <fix>3d</fix>
</trkpt>
<trkpt lat="40.0713749" lon="-105.229789">
  <ele>1583.0</ele>
  <time>2026-08-28T17:48:56Z</time>
  <course>0.0</course>
  <speed>0.0</speed>
  <fix>3d</fix>
</trkpt>
<trkpt lat="40.0713749" lon="-105.229789">
  <ele>1583.0</ele>
  <time>2026-08-28T17:48:56Z</time>
  <course>247.87</course>
  <speed>0.0316227766016838</speed>
  <fix>3d</fix>
</trkpt>
<trkpt lat="40.0713749" lon="-105.229789">
  <ele>1583.0</ele>
  <time>2026-08-28T17:48:56Z</time>
  <course>0.0</course>
  <speed>0.0</speed>
  <fix>3d</fix>
</trkpt>
<trkpt lat="40.0713749" lon="-105.229789">
  <ele>1583.0</ele>
  <time>2026-08-28T17:48:56Z</time>
  <course>247.86</course>
  <speed>0.0316227766016838</speed>
  <fix>3d</fix>
</trkpt>
<trkpt lat="40.0713749" lon="-105.229789">
  <ele>1583.0</ele>
  <time>2026-08-28T17:48:56Z</time>
  <course>0.0</course>
  <speed>0.0</speed>
  <fix>3d</fix>
</trkpt>
<trkpt lat="40.0713749" lon="-105.229789">
  <ele>1583.0</ele>
  <time>2026-08-28T17:48:56Z</time>
  <course>247.86</course>
  <speed>0.0316227766016838</speed>
  <fix>3d</fix>
</trkpt>
<trkpt lat="40.0713749" lon="-105.229789">
  <ele>1583.0</ele>
  <time>2026-08-28T17:48:56Z</time>
  <course>0.0</course>
  <speed>0.0</speed>
  <fix>3d</fix>
</trkpt>
<trkpt lat="40.0713749" lon="-105.229789">
  <ele>1583.0</ele>
  <time>2026-08-28T17:48:56Z</time>
  <course>247.85</course>
  <speed>0.0316227766016838</speed>
  <fix>3d</fix>
</trkpt>
<trkpt lat="40.0713749" lon="-105.229789">
  <ele>1583.0</ele>
  <time>2026-08-28T17:48:56Z</time>
  <course>0.0</course>
  <speed>0.0</speed>
  <fix>3d</fix>
</trkpt>
<trkpt lat="40.0713749" lon="-105.229789">
  <ele>1583.0</ele>
  <time>2026-08-28T17:48:56Z</time>
  <course>247.85</course>
  <speed>0.0316227766016838</speed>
  <fix>3d</fix>
</trkpt>
<trkpt lat="40.0713749" lon="-105.229789">
  <ele>1583.0</ele>
  <time>2026-08-28T17:48:56Z</time>
  <course>0.0</course>
  <speed>0.0</speed>
  <fix>3d</fix>
</trkpt>
<trkpt lat="40.0713749" lon="-105.229789">
  <ele>1583.0</ele>
  <time>2026-08-28T17:48:56Z</time>
  <course>247.85</course>
  <speed>0.0316227766016838</speed>
  <fix>3d</fix>
</trkpt>
<trkpt lat="40.0713749" lon="-105.229789">
  <ele>1583.0</ele>
  <time>2026-08-28T17:48:56Z</time>
  <course>0.0</course>
  <speed>0.0</speed>
  <fix>3d</fix>
</trkpt>
<trkpt lat="40.0713749" lon="-105.229789">
  <ele>1583.0</ele>
  <time>2026-08-28T17:48:56Z</time>
  <course>247.84</course>
  <speed>0.0316227766016838</speed>
  <fix>3d</fix>
</trkpt>
<trkpt lat="40.0713749" lon="-105.229789">
  <ele>1583.0</ele>
  <time>2026-08-28T17:48:56Z</time>
  <course>0.0</course>
  <speed>0.0</speed>
  <fix>3d</fix>
</trkpt>
<trkpt lat="39.655741" lon="-104.1383097">
  <ele>1566.58</ele>
  <time>2026-08-28T17:48:56Z</time>
  <course>0.0</course>
  <speed>0.0</speed>
  <fix>3d</fix>
</trkpt>
<trkpt lat="40.0713749" lon="-105.229789">
  <ele>1583.0</ele>
  <time>2026-08-28T17:48:56Z</time>
  <course>0.0</course>
  <speed>0.0</speed>
  <fix>3d</fix>
</trkpt>
<trkpt lat="40.0713749" lon="-105.229789">
  <ele>1583.0</ele>
  <time>2026-08-28T17:48:56Z</time>
  <course>238.36</course>
  <speed>0.0</speed>
  <fix>3d</fix>
</trkpt>
<trkpt lat="40.0713749" lon="-105.229789">
  <ele>1583.0</ele>
  <time>2026-08-28T17:48:56Z</time>
  <course>0.0</course>
  <speed>0.0</speed>
  <fix>3d</fix>
</trkpt>
<trkpt lat="40.0713749" lon="-105.229789">
  <ele>1583.0</ele>
  <time>2026-08-28T17:48:56Z</time>
  <course>238.44</course>
  <speed>0.0</speed>
  <fix>3d</fix>
</trkpt>
<trkpt lat="40.0713749" lon="-105.229789">
  <ele>1583.0</ele>
  <time>2026-08-28T17:48:56Z</time>
  <course>0.0</course>
  <speed>0.0</speed>
  <fix>3d</fix>
</trkpt>
<trkpt lat="40.0713749" lon="-105.229789">
  <ele>1583.0</ele>
  <time>2026-08-28T17:48:56Z</time>
  <course>238.64</course>
  <speed>0.0</speed>
  <fix>3d</fix>
</trkpt>
<trkpt lat="40.0713749" lon="-105.229789">
  <ele>1583.0</ele>
  <time>2026-08-28T17:48:56Z</time>
  <course>0.0</course>
  <speed>0.0</speed>
  <fix>3d</fix>
</trkpt>
<trkpt lat="40.0713749" lon="-105.229789">
  <ele>1583.0</ele>
  <time>2026-08-28T17:48:56Z</time>
  <course>238.93</course>
  <speed>0.0</speed>
  <fix>3d</fix>
</trkpt>
<trkpt lat="40.0713749" lon="-105.229789">
  <ele>1583.0</ele>
  <time>2026-08-28T17:48:56Z</time>
  <course>0.0</course>
  <speed>0.0</speed>
  <fix>3d</fix>
</trkpt>
<trkpt lat="40.0713749" lon="-105.229789">
  <ele>1583.0</ele>
  <time>2026-08-28T17:48:56Z</time>
  <course>239.26</course>
  <speed>0.0</speed>
  <fix>3d</fix>
</trkpt>
<trkpt lat="40.0713749" lon="-105.229789">
  <ele>1583.0</ele>
  <time>2026-08-28T17:48:56Z</time>
  <course>0.0</course>
  <speed>0.0</speed>
  <fix>3d</fix>
</trkpt>
<trkpt lat="40.0713749" lon="-105.229789">
  <ele>1583.0</ele>
  <time>2026-08-28T17:48:56Z</time>
  <course>239.61</course>
  <speed>0.0</speed>
  <fix>3d</fix>
</trkpt>
<trkpt lat="40.0713749" lon="-105.229789">
  <ele>1583.0</ele>
  <time>2026-08-28T17:48:56Z</time>
  <course>0.0</course>
  <speed>0.0</speed>
  <fix>3d</fix>
</trkpt>
<trkpt lat="40.0713749" lon="-105.229789">
  <ele>1583.0</ele>
  <time>2026-08-28T17:48:56Z</time>
  <course>239.96</course>
  <speed>0.0</speed>
  <fix>3d</fix>
</trkpt>
<trkpt lat="40.0713749" lon="-105.229789">
  <ele>1583.0</ele>
  <time>2026-08-28T17:48:56Z</time>
  <course>0.0</course>
  <speed>0.0</speed>
  <fix>3d</fix>
</trkpt>
<trkpt lat="40.0713749" lon="-105.229789">
  <ele>1583.0</ele>
  <time>2026-08-28T17:48:56Z</time>
  <course>240.29</course>
  <speed>0.0</speed>
  <fix>3d</fix>
</trkpt>
<trkpt lat="40.0713749" lon="-105.229789">
  <ele>1583.0</ele>
  <time>2026-08-28T17:48:56Z</time>
  <course>0.0</course>
  <speed>0.0</speed>
  <fix>3d</fix>
</trkpt>
<trkpt lat="40.0713749" lon="-105.229789">
  <ele>1583.0</ele>
  <time>2026-08-28T17:48:56Z</time>
  <course>240.61</course>
  <speed>0.0</speed>
  <fix>3d</fix>
</trkpt>
<trkpt lat="40.0713749" lon="-105.229789">
  <ele>1583.0</ele>
  <time>2026-08-28T17:48:56Z</time>
  <course>0.0</course>
  <speed>0.0</speed>
  <fix>3d</fix>
</trkpt>
<trkpt lat="40.0713749" lon="-105.229789">
  <ele>1583.0</ele>
  <time>2026-08-28T17:48:56Z</time>
  <course>240.92</course>
  <speed>0.0</speed>
  <fix>3d</fix>
</trkpt>
<trkpt lat="40.0713749" lon="-105.229789">
  <ele>1583.0</ele>
  <time>2026-08-28T17:48:56Z</time>
  <course>0.0</course>
  <speed>0.0</speed>
  <fix>3d</fix>
</trkpt>
<trkpt lat="40.0713749" lon="-105.229789">
  <ele>1583.0</ele>
  <time>2026-08-28T17:48:56Z</time>
  <course>241.21</course>
  <speed>0.0</speed>
  <fix>3d</fix>
</trkpt>
<trkpt lat="40.0713749" lon="-105.229789">
  <ele>1583.0</ele>
  <time>2026-08-28T17:48:56Z</time>
  <course>0.0</course>
  <speed>0.0</speed>
  <fix>3d</fix>
</trkpt>
<trkpt lat="40.0713749" lon="-105.229789">
  <ele>1583.0</ele>
  <time>2026-08-28T17:48:56Z</time>
  <course>241.49</course>
  <speed>0.0</speed>
  <fix>3d</fix>
</trkpt>
<trkpt lat="40.0713749" lon="-105.229789">
  <ele>1583.0</ele>
  <time>2026-08-28T17:48:56Z</time>
  <course>0.0</course>
  <speed>0.0</speed>
  <fix>3d</fix>
</trkpt>
<trkpt lat="40.0713749" lon="-105.229789">
  <ele>1583.0</ele>
  <time>2026-08-28T17:48:56Z</time>
  <course>241.77</course>
  <speed>0.0</speed>
  <fix>3d</fix>
</trkpt>
<trkpt lat="40.0713749" lon="-105.229789">
  <ele>1583.0</ele>
  <time>2026-08-28T17:48:56Z</time>
  <course>0.0</course>
  <speed>0.0</speed>
  <fix>3d</fix>
</trkpt>
<trkpt lat="40.0713749" lon="-105.229789">
  <ele>1583.0</ele>
  <time>2026-08-28T17:48:56Z</time>
  <course>242.03</course>
  <speed>0.0</speed>
  <fix>3d</fix>
</trkpt>
<trkpt lat="40.0713749" lon="-105.229789">
  <ele>1583.0</ele>
  <time>2026-08-28T17:48:56Z</time>
  <course>0.0</course>
  <speed>0.0</speed>
  <fix>3d</fix>
</trkpt>
<trkpt lat="40.0713749" lon="-105.229789">
  <ele>1583.0</ele>
  <time>2026-08-28T17:48:56Z</time>
  <course>242.29</course>
  <speed>0.0</speed>
  <fix>3d</fix>
</trkpt>
<trkpt lat="40.0713749" lon="-105.229789">
  <ele>1583.0</ele>
  <time>2026-08-28T17:48:56Z</time>
  <course>0.0</course>
  <speed>0.0</speed>
  <fix>3d</fix>
</trkpt>
<trkpt lat="40.0713749" lon="-105.229789">
  <ele>1583.0</ele>
  <time>2026-08-28T17:48:56Z</time>
  <course>242.54</course>
  <speed>0.0</speed>
  <fix>3d</fix>
</trkpt>
<trkpt lat="40.0713749" lon="-105.229789">
  <ele>1583.0</ele>
  <time>2026-08-28T17:48:56Z</time>
  <course>0.0</course>
  <speed>0.0</speed>
  <fix>3d</fix>
</trkpt>
<trkpt lat="40.0713749" lon="-105.229789">
  <ele>1583.0</ele>
  <time>2026-08-28T17:48:56Z</time>
  <course>242.79</course>
  <speed>0.0</speed>
  <fix>3d</fix>
</trkpt>
<trkpt lat="40.0713749" lon="-105.229789">
  <ele>1583.0</ele>
  <time>2026-08-28T17:48:56Z</time>
  <course>0.0</course>
  <speed>0.0</speed>
  <fix>3d</fix>
</trkpt>
<trkpt lat="40.0713749" lon="-105.229789">
  <ele>1583.0</ele>
  <time>2026-08-28T17:48:56Z</time>
  <course>243.02</course>
  <speed>0.0</speed>
  <fix>3d</fix>
</trkpt>
<trkpt lat="40.0713749" lon="-105.229789">
  <ele>1583.0</ele>
  <time>2026-08-28T17:48:56Z</time>
  <course>0.0</course>
  <speed>0.0</speed>
  <fix>3d</fix>
</trkpt>
<trkpt lat="40.0713749" lon="-105.229789">
  <ele>1583.0</ele>
  <time>2026-08-28T17:48:56Z</time>
  <course>243.25</course>
  <speed>0.0</speed>
  <fix>3d</fix>
</trkpt>
<trkpt lat="40.0713749" lon="-105.229789">
  <ele>1583.0</ele>
  <time>2026-08-28T17:48:56Z</time>
  <course>0.0</course>
  <speed>0.0</speed>
  <fix>3d</fix>
</trkpt>
<trkpt lat="40.0713749" lon="-105.229789">
  <ele>1583.0</ele>
  <time>2026-08-28T17:48:56Z</time>
  <course>243.47</course>
  <speed>0.0</speed>
  <fix>3d</fix>
</trkpt>
<trkpt lat="40.0713749" lon="-105.229789">
  <ele>1583.0</ele>
  <time>2026-08-28T17:48:56Z</time>
  <course>0.0</course>
  <speed>0.0</speed>
  <fix>3d</fix>
</trkpt>
<trkpt lat="40.0713749" lon="-105.229789">
  <ele>1583.0</ele>
  <time>2026-08-28T17:48:56Z</time>
  <course>243.68</course>
  <speed>0.0</speed>
  <fix>3d</fix>
</trkpt>
<trkpt lat="40.0713749" lon="-105.229789">
  <ele>1583.0</ele>
  <time>2026-08-28T17:48:56Z</time>
  <course>0.0</course>
  <speed>0.0</speed>
  <fix>3d</fix>
</trkpt>
<trkpt lat="40.0713749" lon="-105.229789">
  <ele>1583.0</ele>
  <time>2026-08-28T17:48:56Z</time>
  <course>243.89</course>
  <speed>0.0</speed>
  <fix>3d</fix>
</trkpt>
<trkpt lat="40.0713749" lon="-105.229789">
  <ele>1583.0</ele>
  <time>2026-08-28T17:48:56Z</time>
  <course>0.0</course>
  <speed>0.0</speed>
  <fix>3d</fix>
</trkpt>
<trkpt lat="40.0713749" lon="-105.229789">
  <ele>1583.0</ele>
  <time>2026-08-28T17:48:56Z</time>
  <course>244.09</course>
  <speed>0.0</speed>
  <fix>3d</fix>
</trkpt>
<trkpt lat="40.0713749" lon="-105.229789">
  <ele>1583.0</ele>
  <time>2026-08-28T17:48:56Z</time>
  <course>0.0</course>
  <speed>0.0</speed>
  <fix>3d</fix>
</trkpt>
<trkpt lat="40.0713749" lon="-105.229789">
  <ele>1583.0</ele>
  <time>2026-08-28T17:48:56Z</time>
  <course>244.28</course>
  <speed>0.0</speed>
  <fix>3d</fix>
</trkpt>
<trkpt lat="40.0713749" lon="-105.229789">
  <ele>1583.0</ele>
  <time>2026-08-28T17:48:56Z</time>
  <course>0.0</course>
  <speed>0.0</speed>
  <fix>3d</fix>
</trkpt>
<trkpt lat="40.0713749" lon="-105.229789">
  <ele>1583.0</ele>
  <time>2026-08-28T17:48:56Z</time>
  <course>244.46</course>
  <speed>0.0</speed>
  <fix>3d</fix>
</trkpt>
<trkpt lat="40.0713749" lon="-105.229789">
  <ele>1583.0</ele>
  <time>2026-08-28T17:48:56Z</time>
  <course>0.0</course>
  <speed>0.0</speed>
  <fix>3d</fix>
</trkpt>
<trkpt lat="40.0713749" lon="-105.229789">
  <ele>1583.0</ele>
  <time>2026-08-28T17:48:56Z</time>
  <course>244.64</course>
  <speed>0.0</speed>
  <fix>3d</fix>
</trkpt>
<trkpt lat="40.0713749" lon="-105.229789">
  <ele>1583.0</ele>
  <time>2026-08-28T17:48:56Z</time>
  <course>0.0</course>
  <speed>0.0</speed>
  <fix>3d</fix>
</trkpt>
<trkpt lat="40.0713749" lon="-105.229789">
  <ele>1583.0</ele>
  <time>2026-08-28T17:48:56Z</time>
  <course>244.81</course>
  <speed>0.0</speed>
  <fix>3d</fix>
</trkpt>
<trkpt lat="40.0713749" lon="-105.229789">
  <ele>1583.0</ele>
  <time>2026-08-28T17:48:56Z</time>
  <course>0.0</course>
  <speed>0.0</speed>
  <fix>3d</fix>
</trkpt>
<trkpt lat="40.0713749" lon="-105.229789">
  <ele>1583.0</ele>
  <time>2026-08-28T17:48:56Z</time>
  <course>244.97</course>
  <speed>0.0</speed>
  <fix>3d</fix>
</trkpt>
<trkpt lat="40.0713749" lon="-105.229789">
  <ele>1583.0</ele>
  <time>2026-08-28T17:48:56Z</time>
  <course>0.0</course>
  <speed>0.0</speed>
  <fix>3d</fix>
</trkpt>
<trkpt lat="40.0713749" lon="-105.229789">
  <ele>1583.0</ele>
  <time>2026-08-28T17:48:56Z</time>
  <course>245.13</course>
  <speed>0.0</speed>
  <fix>3d</fix>
</trkpt>
<trkpt lat="40.0713749" lon="-105.229789">
  <ele>1583.0</ele>
  <time>2026-08-28T17:48:56Z</time>
  <course>0.0</course>
  <speed>0.0</speed>
  <fix>3d</fix>
</trkpt>
<trkpt lat="40.0713749" lon="-105.229789">
  <ele>1583.0</ele>
  <time>2026-08-28T17:48:56Z</time>
  <course>245.29</course>
  <speed>0.0</speed>
  <fix>3d</fix>
</trkpt>
<trkpt lat="40.0713749" lon="-105.229789">
  <ele>1583.0</ele>
  <time>2026-08-28T17:48:56Z</time>
  <course>0.0</course>
  <speed>0.0</speed>
  <fix>3d</fix>
</trkpt>
<trkpt lat="40.0713749" lon="-105.229789">
  <ele>1583.0</ele>
  <time>2026-08-28T17:48:56Z</time>
  <course>245.43</course>
  <speed>0.0</speed>
  <fix>3d</fix>
</trkpt>
<trkpt lat="40.0713749" lon="-105.229789">
  <ele>1583.0</ele>
  <time>2026-08-28T17:48:56Z</time>
  <course>0.0</course>
  <speed>0.0</speed>
  <fix>3d</fix>
</trkpt>
<trkpt lat="40.0713749" lon="-105.229789">
  <ele>1583.0</ele>
  <time>2026-08-28T17:48:56Z</time>
  <course>245.57</course>
  <speed>0.0</speed>
  <fix>3d</fix>
</trkpt>
<trkpt lat="40.0713749" lon="-105.229789">
  <ele>1583.0</ele>
  <time>2026-08-28T17:48:56Z</time>
  <course>0.0</course>
  <speed>0.0</speed>
  <fix>3d</fix>
</trkpt>
<trkpt lat="40.0713749" lon="-105.229789">
  <ele>1583.0</ele>
  <time>2026-08-28T17:48:56Z</time>
  <course>245.71</course>
  <speed>0.0</speed>
  <fix>3d</fix>
</trkpt>
<trkpt lat="40.0713749" lon="-105.229789">
  <ele>1583.0</ele>
  <time>2026-08-28T17:48:56Z</time>
  <course>0.0</course>
  <speed>0.0</speed>
  <fix>3d</fix>
</trkpt>
<trkpt lat="40.0713749" lon="-105.229789">
  <ele>1583.0</ele>
  <time>2026-08-28T17:48:56Z</time>
  <course>245.84</course>
  <speed>0.0</speed>
  <fix>3d</fix>
</trkpt>
<trkpt lat="40.0713749" lon="-105.229789">
  <ele>1583.0</ele>
  <time>2026-08-28T17:48:56Z</time>
  <course>0.0</course>
  <speed>0.0</speed>
  <fix>3d</fix>
</trkpt>
<trkpt lat="40.0713749" lon="-105.229789">
  <ele>1583.0</ele>
  <time>2026-08-28T17:48:56Z</time>
  <course>245.96</course>
  <speed>0.0</speed>
  <fix>3d</fix>
</trkpt>
<trkpt lat="40.0713749" lon="-105.229789">
  <ele>1583.0</ele>
  <time>2026-08-28T17:48:56Z</time>
  <course>0.0</course>
  <speed>0.0</speed>
  <fix>3d</fix>
</trkpt>
<trkpt lat="40.0713749" lon="-105.229789">
  <ele>1583.0</ele>
  <time>2026-08-28T17:48:56Z</time>
  <course>246.08</course>
  <speed>0.0</speed>
  <fix>3d</fix>
</trkpt>
<trkpt lat="40.0713749" lon="-105.229789">
  <ele>1583.0</ele>
  <time>2026-08-28T17:48:56Z</time>
  <course>0.0</course>
  <speed>0.0</speed>
  <fix>3d</fix>
</trkpt>
<trkpt lat="40.0713749" lon="-105.229789">
  <ele>1583.0</ele>
  <time>2026-08-28T17:48:56Z</time>
  <course>246.19</course>
  <speed>0.0</speed>
  <fix>3d</fix>
</trkpt>
<trkpt lat="40.0713749" lon="-105.229789">
  <ele>1583.0</ele>
  <time>2026-08-28T17:48:56Z</time>
  <course>0.0</course>
  <speed>0.0</speed>
  <fix>3d</fix>
</trkpt>
<trkpt lat="40.0713749" lon="-105.229789">
  <ele>1583.0</ele>
  <time>2026-08-28T17:48:56Z</time>
  <course>246.3</course>
  <speed>0.0</speed>
  <fix>3d</fix>
</trkpt>
<trkpt lat="40.0713749" lon="-105.229789">
  <ele>1583.0</ele>
  <time>2026-08-28T17:48:56Z</time>
  <course>0.0</course>
  <speed>0.0</speed>
  <fix>3d</fix>
</trkpt>
<trkpt lat="40.0713749" lon="-105.229789">
  <ele>1583.0</ele>
  <time>2026-08-28T17:48:56Z</time>
  <course>246.41</course>
  <speed>0.0</speed>
  <fix>3d</fix>
</trkpt>
<trkpt lat="40.0713749" lon="-105.229789">
  <ele>1583.0</ele>
  <time>2026-08-28T17:48:56Z</time>
  <course>0.0</course>
  <speed>0.0</speed>
  <fix>3d</fix>
</trkpt>
<trkpt lat="40.0713749" lon="-105.229789">
  <ele>1583.0</ele>
  <time>2026-08-28T17:48:56Z</time>
  <course>246.51</course>
  <speed>0.0</speed>
  <fix>3d</fix>
</trkpt>
<trkpt lat="40.0713749" lon="-105.229789">
  <ele>1583.0</ele>
  <time>2026-08-28T17:48:56Z</time>
  <course>0.0</course>
  <speed>0.0</speed>
  <fix>3d</fix>
</trkpt>
<trkpt lat="40.0713749" lon="-105.229789">
  <ele>1583.0</ele>
  <time>2026-08-28T17:48:56Z</time>
  <course>246.6</course>
  <speed>0.0</speed>
  <fix>3d</fix>
</trkpt>
<trkpt lat="40.0713749" lon="-105.229789">
  <ele>1583.0</ele>
  <time>2026-08-28T17:48:56Z</time>
  <course>0.0</course>
  <speed>0.0</speed>
  <fix>3d</fix>
</trkpt>
<trkpt lat="40.0713749" lon="-105.229789">
  <ele>1583.0</ele>
  <time>2026-08-28T17:48:56Z</time>
  <course>246.7</course>
  <speed>0.0</speed>
  <fix>3d</fix>
</trkpt>
<trkpt lat="40.0713749" lon="-105.229789">
  <ele>1583.0</ele>
  <time>2026-08-28T17:48:56Z</time>
  <course>0.0</course>
  <speed>0.0</speed>
  <fix>3d</fix>
</trkpt>
<trkpt lat="40.0713749" lon="-105.229789">
  <ele>1583.0</ele>
  <time>2026-08-28T17:48:56Z</time>
  <course>246.78</course>
  <speed>0.0</speed>
  <fix>3d</fix>
</trkpt>
<trkpt lat="40.0713749" lon="-105.229789">
  <ele>1583.0</ele>
  <time>2026-08-28T17:48:56Z</time>
  <course>0.0</course>
  <speed>0.0</speed>
  <fix>3d</fix>
</trkpt>
<trkpt lat="40.0713749" lon="-105.229789">
  <ele>1583.0</ele>
  <time>2026-08-28T17:48:56Z</time>
  <course>246.87</course>
  <speed>0.0</speed>
  <fix>3d</fix>
</trkpt>
<trkpt lat="40.0713749" lon="-105.229789">
  <ele>1583.0</ele>
  <time>2026-08-28T17:48:56Z</time>
  <course>0.0</course>
  <speed>0.0</speed>
  <fix>3d</fix>
</trkpt>
<trkpt lat="40.0713749" lon="-105.229789">
  <ele>1583.0</ele>
  <time>2026-08-28T17:48:56Z</time>
  <course>246.95</course>
  <speed>0.0</speed>
  <fix>3d</fix>
</trkpt>
<trkpt lat="40.0713749" lon="-105.229789">
  <ele>1583.0</ele>
  <time>2026-08-28T17:48:56Z</time>
  <course>0.0</course>
  <speed>0.0</speed>
  <fix>3d</fix>
</trkpt>
<trkpt lat="40.0713749" lon="-105.229789">
  <ele>1583.0</ele>
  <time>2026-08-28T17:48:56Z</time>
  <course>247.02</course>
  <speed>0.0</speed>
  <fix>3d</fix>
</trkpt>
<trkpt lat="40.0713749" lon="-105.229789">
  <ele>1583.0</ele>
  <time>2026-08-28T17:48:56Z</time>
  <course>0.0</course>
  <speed>0.0</speed>
  <fix>3d</fix>
</trkpt>
<trkpt lat="40.0713749" lon="-105.229789">
  <ele>1583.0</ele>
  <time>2026-08-28T17:48:56Z</time>
  <course>247.1</course>
  <speed>0.0</speed>
  <fix>3d</fix>
</trkpt>
<trkpt lat="40.0713749" lon="-105.229789">
  <ele>1583.0</ele>
  <time>2026-08-28T17:48:56Z</time>
  <course>0.0</course>
  <speed>0.0</speed>
  <fix>3d</fix>
</trkpt>
<trkpt lat="40.0713749" lon="-105.229789">
  <ele>1583.0</ele>
  <time>2026-08-28T17:48:56Z</time>
  <course>247.17</course>
  <speed>0.0</speed>
  <fix>3d</fix>
</trkpt>
<trkpt lat="40.0713749" lon="-105.229789">
  <ele>1583.0</ele>
  <time>2026-08-28T17:48:56Z</time>
  <course>0.0</course>
  <speed>0.0</speed>
  <fix>3d</fix>
</trkpt>
<trkpt lat="40.0713749" lon="-105.229789">
  <ele>1583.0</ele>
  <time>2026-08-28T17:48:56Z</time>
  <course>247.24</course>
  <speed>0.0</speed>
  <fix>3d</fix>
</trkpt>
<trkpt lat="40.0713749" lon="-105.229789">
  <ele>1583.0</ele>
  <time>2026-08-28T17:48:56Z</time>
  <course>0.0</course>
  <speed>0.0</speed>
  <fix>3d</fix>
</trkpt>
<trkpt lat="40.0713749" lon="-105.229789">
  <ele>1583.0</ele>
  <time>2026-08-28T17:48:56Z</time>
  <course>247.3</course>
  <speed>0.0</speed>
  <fix>3d</fix>
</trkpt>
<trkpt lat="40.0713749" lon="-105.229789">
  <ele>1583.0</ele>
  <time>2026-08-28T17:48:56Z</time>
  <course>0.0</course>
  <speed>0.0</speed>
  <fix>3d</fix>
</trkpt>
<trkpt lat="40.0713749" lon="-105.229789">
  <ele>1583.0</ele>
  <time>2026-08-28T17:48:56Z</time>
  <course>247.36</course>
  <speed>0.0</speed>
  <fix>3d</fix>
</trkpt>
<trkpt lat="40.0713749" lon="-105.229789">
  <ele>1583.0</ele>
  <time>2026-08-28T17:48:56Z</time>
  <course>0.0</course>
  <speed>0.0</speed>
  <fix>3d</fix>
</trkpt>
<trkpt lat="40.0713749" lon="-105.229789">
  <ele>1583.0</ele>
  <time>2026-08-28T17:48:56Z</time>
  <course>247.42</course>
  <speed>0.0</speed>
  <fix>3d</fix>
</trkpt>
<trkpt lat="40.0713749" lon="-105.229789">
  <ele>1583.0</ele>
  <time>2026-08-28T17:48:56Z</time>
  <course>0.0</course>
  <speed>0.0</speed>
  <fix>3d</fix>
</trkpt>
<trkpt lat="40.0713749" lon="-105.229789">
  <ele>1583.0</ele>
  <time>2026-08-28T17:48:56Z</time>
  <course>247.47</course>
  <speed>0.0</speed>
  <fix>3d</fix>
</trkpt>
<trkpt lat="40.0713749" lon="-105.229789">
  <ele>1583.0</ele>
  <time>2026-08-28T17:48:56Z</time>
  <course>0.0</course>
  <speed>0.0</speed>
  <fix>3d</fix>
</trkpt>
<trkpt lat="40.0713749" lon="-105.229789">
  <ele>1583.0</ele>
  <time>2026-08-28T17:48:56Z</time>
  <course>247.53</course>
  <speed>0.0</speed>
  <fix>3d</fix>
</trkpt>
<trkpt lat="40.0713749" lon="-105.229789">
  <ele>1583.0</ele>
  <time>2026-08-28T17:48:56Z</time>
  <course>0.0</course>
  <speed>0.0</speed>
  <fix>3d</fix>
</trkpt>
<trkpt lat="40.0713749" lon="-105.229789">
  <ele>1583.0</ele>
  <time>2026-08-28T17:48:56Z</time>
  <course>247.58</course>
  <speed>0.0</speed>
  <fix>3d</fix>
</trkpt>
<trkpt lat="40.0713749" lon="-105.229789">
  <ele>1583.0</ele>
  <time>2026-08-28T17:48:56Z</time>
  <course>0.0</course>
  <speed>0.0</speed>
  <fix>3d</fix>
</trkpt>
<trkpt lat="40.0713749" lon="-105.229789">
  <ele>1583.0</ele>
  <time>2026-08-28T17:48:56Z</time>
  <course>247.63</course>
  <speed>0.0</speed>
  <fix>3d</fix>
</trkpt>
<trkpt lat="40.0713749" lon="-105.229789">
  <ele>1583.0</ele>
  <time>2026-08-28T17:48:56Z</time>
  <course>0.0</course>
  <speed>0.0</speed>
  <fix>3d</fix>
</trkpt>
<trkpt lat="40.0713749" lon="-105.229789">
  <ele>1583.0</ele>
  <time>2026-08-28T17:48:56Z</time>
  <course>247.67</course>
  <speed>0.0</speed>
  <fix>3d</fix>
</trkpt>
<trkpt lat="40.0713749" lon="-105.229789">
  <ele>1583.0</ele>
  <time>2026-08-28T17:48:56Z</time>
  <course>0.0</course>
  <speed>0.0</speed>
  <fix>3d</fix>
</trkpt>
<trkpt lat="40.0713749" lon="-105.229789">
  <ele>1583.0</ele>
  <time>2026-08-28T17:48:56Z</time>
  <course>247.72</course>
  <speed>0.0</speed>
  <fix>3d</fix>
</trkpt>
<trkpt lat="40.0713749" lon="-105.229789">
  <ele>1583.0</ele>
  <time>2026-08-28T17:48:56Z</time>
  <course>0.0</course>
  <speed>0.0</speed>
  <fix>3d</fix>
</trkpt>
<trkpt lat="40.0713749" lon="-105.229789">
  <ele>1583.0</ele>
  <time>2026-08-28T17:48:56Z</time>
  <course>247.76</course>
  <speed>0.0</speed>
  <fix>3d</fix>
</trkpt>
<trkpt lat="40.0713749" lon="-105.229789">
  <ele>1583.0</ele>
  <time>2026-08-28T17:48:56Z</time>
  <course>0.0</course>
  <speed>0.0</speed>
  <fix>3d</fix>
</trkpt>
<trkpt lat="40.0713749" lon="-105.229789">
  <ele>1583.0</ele>
  <time>2026-08-28T17:48:56Z</time>
  <course>247.8</course>
  <speed>0.0</speed>
  <fix>3d</fix>
</trkpt>
<trkpt lat="40.0713749" lon="-105.229789">
  <ele>1583.0</ele>
  <time>2026-08-28T17:48:56Z</time>
  <course>0.0</course>
  <speed>0.0</speed>
  <fix>3d</fix>
</trkpt>
<trkpt lat="40.0713749" lon="-105.229789">
  <ele>1583.0</ele>
  <time>2026-08-28T17:48:56Z</time>
  <course>247.83</course>
  <speed>0.0</speed>
  <fix>3d</fix>
</trkpt>
<trkpt lat="40.0713749" lon="-105.229789">
  <ele>1583.0</ele>
  <time>2026-08-28T17:48:56Z</time>
  <course>0.0</course>
  <speed>0.0</speed>
  <fix>3d</fix>
</trkpt>
<trkpt lat="40.0713749" lon="-105.229789">
  <ele>1583.0</ele>
  <time>2026-08-28T17:48:56Z</time>
  <course>247.87</course>
  <speed>0.0</speed>
  <fix>3d</fix>
</trkpt>
<trkpt lat="40.0713749" lon="-105.229789">
  <ele>1583.0</ele>
  <time>2026-08-28T17:48:56Z</time>
  <course>0.0</course>
  <speed>0.0</speed>
  <fix>3d</fix>
</trkpt>
<trkpt lat="40.0713749" lon="-105.229789">
  <ele>1583.0</ele>
  <time>2026-08-28T17:48:56Z</time>
  <course>247.9</course>
  <speed>0.0</speed>
  <fix>3d</fix>
</trkpt>
<trkpt lat="40.0713749" lon="-105.229789">
  <ele>1583.0</ele>
  <time>2026-08-28T17:48:56Z</time>
  <course>0.0</course>
  <speed>0.0</speed>
  <fix>3d</fix>
</trkpt>
<trkpt lat="40.0713749" lon="-105.229789">
  <ele>1583.0</ele>
  <time>2026-08-28T17:48:56Z</time>
  <course>247.94</course>
  <speed>0.0</speed>
  <fix>3d</fix>
</trkpt>
<trkpt lat="40.0713749" lon="-105.229789">
  <ele>1583.0</ele>
  <time>2026-08-28T17:48:56Z</time>
  <course>0.0</course>
  <speed>0.0</speed>
  <fix>3d</fix>
</trkpt>
<trkpt lat="40.0713749" lon="-105.229789">
  <ele>1583.0</ele>
  <time>2026-08-28T17:48:56Z</time>
  <course>247.97</course>
  <speed>0.0</speed>
  <fix>3d</fix>
</trkpt>
<trkpt lat="40.0713749" lon="-105.229789">
  <ele>1583.0</ele>
  <time>2026-08-28T17:48:56Z</time>
  <course>0.0</course>
  <speed>0.0</speed>
  <fix>3d</fix>
</trkpt>
<trkpt lat="40.0713749" lon="-105.229789">
  <ele>1583.0</ele>
  <time>2026-08-28T17:48:56Z</time>
  <course>248.0</course>
  <speed>0.0</speed>
  <fix>3d</fix>
</trkpt>
<trkpt lat="40.0713749" lon="-105.229789">
  <ele>1583.0</ele>
  <time>2026-08-28T17:48:56Z</time>
  <course>0.0</course>
  <speed>0.0</speed>
  <fix>3d</fix>
</trkpt>
<trkpt lat="40.0713749" lon="-105.229789">
  <ele>1583.0</ele>
  <time>2026-08-28T17:48:56Z</time>
  <course>248.02</course>
  <speed>0.0</speed>
  <fix>3d</fix>
</trkpt>
<trkpt lat="40.0713749" lon="-105.229789">
  <ele>1583.0</ele>
  <time>2026-08-28T17:48:56Z</time>
  <course>0.0</course>
  <speed>0.0</speed>
  <fix>3d</fix>
</trkpt>
<trkpt lat="40.0713749" lon="-105.229789">
  <ele>1583.0</ele>
  <time>2026-08-28T17:48:56Z</time>
  <course>248.05</course>
  <speed>0.0</speed>
  <fix>3d</fix>
</trkpt>
<trkpt lat="40.0713749" lon="-105.229789">
  <ele>1583.0</ele>
  <time>2026-08-28T17:48:56Z</time>
  <course>0.0</course>
  <speed>0.0</speed>
  <fix>3d</fix>
</trkpt>
<trkpt lat="40.0713749" lon="-105.229789">
  <ele>1583.0</ele>
  <time>2026-08-28T17:48:56Z</time>
  <course>248.08</course>
  <speed>0.0</speed>
  <fix>3d</fix>
</trkpt>
<trkpt lat="40.0713749" lon="-105.229789">
  <ele>1583.0</ele>
  <time>2026-08-28T17:48:56Z</time>
  <course>0.0</course>
  <speed>0.0</speed>
  <fix>3d</fix>
</trkpt>
<trkpt lat="40.0713749" lon="-105.229789">
  <ele>1583.0</ele>
  <time>2026-08-28T17:48:56Z</time>
  <course>248.1</course>
  <speed>0.0</speed>
  <fix>3d</fix>
</trkpt>
<trkpt lat="40.0713749" lon="-105.229789">
  <ele>1583.0</ele>
  <time>2026-08-28T17:48:56Z</time>
  <course>0.0</course>
  <speed>0.0</speed>
  <fix>3d</fix>
</trkpt>
<trkpt lat="40.0713749" lon="-105.229789">
  <ele>1583.0</ele>
  <time>2026-08-28T17:48:56Z</time>
  <course>248.12</course>
  <speed>0.0</speed>
  <fix>3d</fix>
</trkpt>
<trkpt lat="40.0713749" lon="-105.229789">
  <ele>1583.0</ele>
  <time>2026-08-28T17:48:56Z</time>
  <course>0.0</course>
  <speed>0.0</speed>
  <fix>3d</fix>
</trkpt>
<trkpt lat="40.0713749" lon="-105.229789">
  <ele>1583.0</ele>
  <time>2026-08-28T17:48:57Z</time>
  <course>248.14</course>
  <speed>0.0</speed>
  <fix>3d</fix>
</trkpt>
<trkpt lat="40.0713749" lon="-105.229789">
  <ele>1583.0</ele>
  <time>2026-08-28T17:48:57Z</time>
  <course>0.0</course>
  <speed>0.0</speed>
  <fix>3d</fix>
</trkpt>
<trkpt lat="40.0713749" lon="-105.229789">
  <ele>1583.0</ele>
  <time>2026-08-28T17:48:57Z</time>
  <course>248.16</course>
  <speed>0.0</speed>
  <fix>3d</fix>
</trkpt>
<trkpt lat="40.0713749" lon="-105.229789">
  <ele>1583.0</ele>
  <time>2026-08-28T17:48:57Z</time>
  <course>0.0</course>
  <speed>0.0</speed>
  <fix>3d</fix>
</trkpt>
<trkpt lat="40.0713749" lon="-105.229789">
  <ele>1583.0</ele>
  <time>2026-08-28T17:48:57Z</time>
  <course>248.18</course>
  <speed>0.0</speed>
  <fix>3d</fix>
</trkpt>
<trkpt lat="40.0713749" lon="-105.229789">
  <ele>1583.0</ele>
  <time>2026-08-28T17:48:57Z</time>
  <course>0.0</course>
  <speed>0.0</speed>
  <fix>3d</fix>
</trkpt>
<trkpt lat="40.0713749" lon="-105.229789">
  <ele>1583.0</ele>
  <time>2026-08-28T17:48:57Z</time>
  <course>248.2</course>
  <speed>0.0</speed>
  <fix>3d</fix>
</trkpt>
<trkpt lat="40.0713749" lon="-105.229789">
  <ele>1583.0</ele>
  <time>2026-08-28T17:48:57Z</time>
  <course>0.0</course>
  <speed>0.0</speed>
  <fix>3d</fix>
</trkpt>
<trkpt lat="40.0713749" lon="-105.229789">
  <ele>1583.0</ele>
  <time>2026-08-28T17:48:57Z</time>
  <course>248.22</course>
  <speed>0.0</speed>
  <fix>3d</fix>
</trkpt>
<trkpt lat="40.0713749" lon="-105.229789">
  <ele>1583.0</ele>
  <time>2026-08-28T17:48:57Z</time>
  <course>0.0</course>
  <speed>0.0</speed>
  <fix>3d</fix>
</trkpt>
<trkpt lat="40.0713749" lon="-105.229789">
  <ele>1583.0</ele>
  <time>2026-08-28T17:48:57Z</time>
  <course>248.23</course>
  <speed>0.0</speed>
  <fix>3d</fix>
</trkpt>
<trkpt lat="40.0713749" lon="-105.229789">
  <ele>1583.0</ele>
  <time>2026-08-28T17:48:57Z</time>
  <course>0.0</course>
  <speed>0.0</speed>
  <fix>3d</fix>
</trkpt>
<trkpt lat="40.0713749" lon="-105.229789">
  <ele>1583.0</ele>
  <time>2026-08-28T17:48:57Z</time>
  <course>248.25</course>
  <speed>0.0</speed>
  <fix>3d</fix>
</trkpt>
<trkpt lat="40.0713749" lon="-105.229789">
  <ele>1583.0</ele>
  <time>2026-08-28T17:48:57Z</time>
  <course>0.0</course>
  <speed>0.0</speed>
  <fix>3d</fix>
</trkpt>
<trkpt lat="40.0713749" lon="-105.229789">
  <ele>1583.0</ele>
  <time>2026-08-28T17:48:57Z</time>
  <course>248.26</course>
  <speed>0.0</speed>
  <fix>3d</fix>
</trkpt>
<trkpt lat="40.0713749" lon="-105.229789">
  <ele>1583.0</ele>
  <time>2026-08-28T17:48:57Z</time>
  <course>0.0</course>
  <speed>0.0</speed>
  <fix>3d</fix>
</trkpt>
<trkpt lat="40.0713749" lon="-105.229789">
  <ele>1583.0</ele>
  <time>2026-08-28T17:48:57Z</time>
  <course>248.28</course>
  <speed>0.0</speed>
  <fix>3d</fix>
</trkpt>
<trkpt lat="40.0713749" lon="-105.229789">
  <ele>1583.0</ele>
  <time>2026-08-28T17:48:57Z</time>
  <course>0.0</course>
  <speed>0.0</speed>
  <fix>3d</fix>
</trkpt>
<trkpt lat="40.0713749" lon="-105.229789">
  <ele>1583.0</ele>
  <time>2026-08-28T17:48:57Z</time>
  <course>248.29</course>
  <speed>0.0</speed>
  <fix>3d</fix>
</trkpt>
<trkpt lat="40.0713749" lon="-105.229789">
  <ele>1583.0</ele>
  <time>2026-08-28T17:48:57Z</time>
  <course>0.0</course>
  <speed>0.0</speed>
  <fix>3d</fix>
</trkpt>
<trkpt lat="40.0713749" lon="-105.229789">
  <ele>1583.0</ele>
  <time>2026-08-28T17:48:57Z</time>
  <course>248.3</course>
  <speed>0.0</speed>
  <fix>3d</fix>
</trkpt>
<trkpt lat="40.0713749" lon="-105.229789">
  <ele>1583.0</ele>
  <time>2026-08-28T17:48:57Z</time>
  <course>0.0</course>
  <speed>0.0</speed>
  <fix>3d</fix>
</trkpt>
<trkpt lat="40.0713749" lon="-105.229789">
  <ele>1583.0</ele>
  <time>2026-08-28T17:48:57Z</time>
  <course>248.31</course>
  <speed>0.0</speed>
  <fix>3d</fix>
</trkpt>
<trkpt lat="40.0713749" lon="-105.229789">
  <ele>1583.0</ele>
  <time>2026-08-28T17:48:57Z</time>
  <course>0.0</course>
  <speed>0.0</speed>
  <fix>3d</fix>
</trkpt>
<trkpt lat="40.0713749" lon="-105.229789">
  <ele>1583.0</ele>
  <time>2026-08-28T17:48:57Z</time>
  <course>248.32</course>
  <speed>0.0</speed>
  <fix>3d</fix>
</trkpt>
<trkpt lat="40.0713749" lon="-105.229789">
  <ele>1583.0</ele>
  <time>2026-08-28T17:48:57Z</time>
  <course>0.0</course>
  <speed>0.0</speed>
  <fix>3d</fix>
</trkpt>
<trkpt lat="40.0713749" lon="-105.229789">
  <ele>1583.0</ele>
  <time>2026-08-28T17:48:57Z</time>
  <course>248.33</course>
  <speed>0.0</speed>
  <fix>3d</fix>
</trkpt>
<trkpt lat="40.0713749" lon="-105.229789">
  <ele>1583.0</ele>
  <time>2026-08-28T17:48:57Z</time>
  <course>0.0</course>
  <speed>0.0</speed>
  <fix>3d</fix>
</trkpt>
<trkpt lat="40.0713749" lon="-105.229789">
  <ele>1583.0</ele>
  <time>2026-08-28T17:48:57Z</time>
  <course>248.34</course>
  <speed>0.0</speed>
  <fix>3d</fix>
</trkpt>
<trkpt lat="40.0713749" lon="-105.229789">
  <ele>1583.0</ele>
  <time>2026-08-28T17:48:57Z</time>
  <course>0.0</course>
  <speed>0.0</speed>
  <fix>3d</fix>
</trkpt>
<trkpt lat="40.0713749" lon="-105.229789">
  <ele>1583.0</ele>
  <time>2026-08-28T17:48:57Z</time>
  <course>248.35</course>
  <speed>0.0</speed>
  <fix>3d</fix>
</trkpt>
<trkpt lat="40.0713749" lon="-105.229789">
  <ele>1583.0</ele>
  <time>2026-08-28T17:48:57Z</time>
  <course>0.0</course>
  <speed>0.0</speed>
  <fix>3d</fix>
</trkpt>
<trkpt lat="40.0713749" lon="-105.229789">
  <ele>1583.0</ele>
  <time>2026-08-28T17:48:57Z</time>
  <course>248.35</course>
  <speed>0.0</speed>
  <fix>3d</fix>
</trkpt>
<trkpt lat="40.0713749" lon="-105.229789">
  <ele>1583.0</ele>
  <time>2026-08-28T17:48:57Z</time>
  <course>0.0</course>
  <speed>0.0</speed>
  <fix>3d</fix>
</trkpt>
<trkpt lat="40.0713749" lon="-105.229789">
  <ele>1583.0</ele>
  <time>2026-08-28T17:48:57Z</time>
  <course>248.36</course>
  <speed>0.0</speed>
  <fix>3d</fix>
</trkpt>
<trkpt lat="40.0713749" lon="-105.229789">
  <ele>1583.0</ele>
  <time>2026-08-28T17:48:57Z</time>
  <course>0.0</course>
  <speed>0.0</speed>
  <fix>3d</fix>
</trkpt>
<trkpt lat="40.0713749" lon="-105.229789">
  <ele>1583.0</ele>
  <time>2026-08-28T17:48:57Z</time>
  <course>248.37</course>
  <speed>0.0</speed>
  <fix>3d</fix>
</trkpt>
<trkpt lat="40.0713749" lon="-105.229789">
  <ele>1583.0</ele>
  <time>2026-08-28T17:48:57Z</time>
  <course>0.0</course>
  <speed>0.0</speed>
  <fix>3d</fix>
</trkpt>
<trkpt lat="40.0713749" lon="-105.229789">
  <ele>1583.0</ele>
  <time>2026-08-28T17:48:57Z</time>
  <course>248.37</course>
  <speed>0.0</speed>
  <fix>3d</fix>
</trkpt>
<trkpt lat="40.0713749" lon="-105.229789">
  <ele>1583.0</ele>
  <time>2026-08-28T17:48:57Z</time>
  <course>0.0</course>
  <speed>0.0</speed>
  <fix>3d</fix>
</trkpt>
<trkpt lat="40.0713749" lon="-105.229789">
  <ele>1583.0</ele>
  <time>2026-08-28T17:48:57Z</time>
  <course>248.38</course>
  <speed>0.0</speed>
  <fix>3d</fix>
</trkpt>
<trkpt lat="40.0713749" lon="-105.229789">
  <ele>1583.0</ele>
  <time>2026-08-28T17:48:57Z</time>
  <course>0.0</course>
  <speed>0.0</speed>
  <fix>3d</fix>
</trkpt>
<trkpt lat="40.0713749" lon="-105.229789">
  <ele>1583.0</ele>
  <time>2026-08-28T17:48:57Z</time>
  <course>248.38</course>
  <speed>0.0</speed>
  <fix>3d</fix>
</trkpt>
<trkpt lat="40.0713749" lon="-105.229789">
  <ele>1583.0</ele>
  <time>2026-08-28T17:48:57Z</time>
  <course>0.0</course>
  <speed>0.0</speed>
  <fix>3d</fix>
</trkpt>
<trkpt lat="40.0713749" lon="-105.229789">
  <ele>1583.0</ele>
  <time>2026-08-28T17:48:57Z</time>
  <course>248.39</course>
  <speed>0.0</speed>
  <fix>3d</fix>
</trkpt>
<trkpt lat="40.0713749" lon="-105.229789">
  <ele>1583.0</ele>
  <time>2026-08-28T17:48:57Z</time>
  <course>0.0</course>
  <speed>0.0</speed>
  <fix>3d</fix>
</trkpt>
<trkpt lat="40.0713749" lon="-105.229789">
  <ele>1583.0</ele>
  <time>2026-08-28T17:48:57Z</time>
  <course>248.39</course>
  <speed>0.0</speed>
  <fix>3d</fix>
</trkpt>
<trkpt lat="40.0713749" lon="-105.229789">
  <ele>1583.0</ele>
  <time>2026-08-28T17:48:57Z</time>
  <course>0.0</course>
  <speed>0.0</speed>
  <fix>3d</fix>
</trkpt>
<trkpt lat="40.0713749" lon="-105.229789">
  <ele>1583.0</ele>
  <time>2026-08-28T17:48:57Z</time>
  <course>248.4</course>
  <speed>0.0</speed>
  <fix>3d</fix>
</trkpt>
<trkpt lat="40.0713749" lon="-105.229789">
  <ele>1583.0</ele>
  <time>2026-08-28T17:48:57Z</time>
  <course>0.0</course>
  <speed>0.0</speed>
  <fix>3d</fix>
</trkpt>
<trkpt lat="40.0713749" lon="-105.229789">
  <ele>1583.0</ele>
  <time>2026-08-28T17:48:57Z</time>
  <course>248.4</course>
  <speed>0.0</speed>
  <fix>3d</fix>
</trkpt>
<trkpt lat="40.0713749" lon="-105.229789">
  <ele>1583.0</ele>
  <time>2026-08-28T17:48:57Z</time>
  <course>0.0</course>
  <speed>0.0</speed>
  <fix>3d</fix>
</trkpt>
<trkpt lat="40.0713749" lon="-105.229789">
  <ele>1583.0</ele>
  <time>2026-08-28T17:48:57Z</time>
  <course>248.4</course>
  <speed>0.0</speed>
  <fix>3d</fix>
</trkpt>
<trkpt lat="40.0713749" lon="-105.229789">
  <ele>1583.0</ele>
  <time>2026-08-28T17:48:57Z</time>
  <course>0.0</course>
  <speed>0.0</speed>
  <fix>3d</fix>
</trkpt>
<trkpt lat="40.0713749" lon="-105.229789">
  <ele>1583.0</ele>
  <time>2026-08-28T17:48:57Z</time>
  <course>248.4</course>
  <speed>0.0</speed>
  <fix>3d</fix>
</trkpt>
<trkpt lat="40.0713749" lon="-105.229789">
  <ele>1583.0</ele>
  <time>2026-08-28T17:48:57Z</time>
  <course>0.0</course>
  <speed>0.0</speed>
  <fix>3d</fix>
</trkpt>
<trkpt lat="40.0713749" lon="-105.229789">
  <ele>1583.0</ele>
  <time>2026-08-28T17:48:57Z</time>
  <course>248.41</course>
  <speed>0.0</speed>
  <fix>3d</fix>
</trkpt>
<trkpt lat="40.0713749" lon="-105.229789">
  <ele>1583.0</ele>
  <time>2026-08-28T17:48:57Z</time>
  <course>0.0</course>
  <speed>0.0</speed>
  <fix>3d</fix>
</trkpt>
<trkpt lat="40.0713749" lon="-105.229789">
  <ele>1583.0</ele>
  <time>2026-08-28T17:48:57Z</time>
  <course>248.41</course>
  <speed>0.0</speed>
  <fix>3d</fix>
</trkpt>
<trkpt lat="40.0713749" lon="-105.229789">
  <ele>1583.0</ele>
  <time>2026-08-28T17:48:57Z</time>
  <course>0.0</course>
  <speed>0.0</speed>
  <fix>3d</fix>
</trkpt>
<trkpt lat="40.0713749" lon="-105.229789">
  <ele>1583.0</ele>
  <time>2026-08-28T17:48:57Z</time>
  <course>248.41</course>
  <speed>0.0</speed>
  <fix>3d</fix>
</trkpt>
<trkpt lat="40.0713749" lon="-105.229789">
  <ele>1583.0</ele>
  <time>2026-08-28T17:48:57Z</time>
  <course>0.0</course>
  <speed>0.0</speed>
  <fix>3d</fix>
</trkpt>
<trkpt lat="40.0713749" lon="-105.229789">
  <ele>1583.0</ele>
  <time>2026-08-28T17:48:57Z</time>
  <course>248.41</course>
  <speed>0.0</speed>
  <fix>3d</fix>
</trkpt>
<trkpt lat="40.0713749" lon="-105.229789">
  <ele>1583.0</ele>
  <time>2026-08-28T17:48:57Z</time>
  <course>0.0</course>
  <speed>0.0</speed>
  <fix>3d</fix>
</trkpt>
<trkpt lat="40.0713749" lon="-105.229789">
  <ele>1583.0</ele>
  <time>2026-08-28T17:48:57Z</time>
  <course>248.41</course>
  <speed>0.0</speed>
  <fix>3d</fix>
</trkpt>
<trkpt lat="40.0713749" lon="-105.229789">
  <ele>1583.0</ele>
  <time>2026-08-28T17:48:57Z</time>
  <course>0.0</course>
  <speed>0.0</speed>
  <fix>3d</fix>
</trkpt>
<trkpt lat="40.0713749" lon="-105.229789">
  <ele>1583.0</ele>
  <time>2026-08-28T17:48:57Z</time>
  <course>248.41</course>
  <speed>0.0</speed>
  <fix>3d</fix>
</trkpt>
<trkpt lat="40.0713749" lon="-105.229789">
  <ele>1583.0</ele>
  <time>2026-08-28T17:48:57Z</time>
  <course>0.0</course>
  <speed>0.0</speed>
  <fix>3d</fix>
</trkpt>
<trkpt lat="40.0713749" lon="-105.229789">
  <ele>1583.0</ele>
  <time>2026-08-28T17:48:57Z</time>
  <course>248.41</course>
  <speed>0.0</speed>
  <fix>3d</fix>
</trkpt>
<trkpt lat="40.0713749" lon="-105.229789">
  <ele>1583.0</ele>
  <time>2026-08-28T17:48:57Z</time>
  <course>0.0</course>
  <speed>0.0</speed>
  <fix>3d</fix>
</trkpt>
<trkpt lat="40.0713749" lon="-105.229789">
  <ele>1583.0</ele>
  <time>2026-08-28T17:48:57Z</time>
  <course>248.41</course>
  <speed>0.0</speed>
  <fix>3d</fix>
</trkpt>
<trkpt lat="40.0713749" lon="-105.229789">
  <ele>1583.0</ele>
  <time>2026-08-28T17:48:57Z</time>
  <course>0.0</course>
  <speed>0.0</speed>
  <fix>3d</fix>
</trkpt>
<trkpt lat="40.0713749" lon="-105.229789">
  <ele>1583.0</ele>
  <time>2026-08-28T17:48:57Z</time>
  <course>248.41</course>
  <speed>0.0</speed>
  <fix>3d</fix>
</trkpt>
<trkpt lat="40.0713749" lon="-105.229789">
  <ele>1583.0</ele>
  <time>2026-08-28T17:48:57Z</time>
  <course>0.0</course>
  <speed>0.0</speed>
  <fix>3d</fix>
</trkpt>
<trkpt lat="40.0713749" lon="-105.229789">
  <ele>1583.0</ele>
  <time>2026-08-28T17:48:57Z</time>
  <course>248.41</course>
  <speed>0.0</speed>
  <fix>3d</fix>
</trkpt>
<trkpt lat="40.0713749" lon="-105.229789">
  <ele>1583.0</ele>
  <time>2026-08-28T17:48:57Z</time>
  <course>0.0</course>
  <speed>0.0</speed>
  <fix>3d</fix>
</trkpt>
<trkpt lat="40.0713749" lon="-105.229789">
  <ele>1583.0</ele>
  <time>2026-08-28T17:48:57Z</time>
  <course>248.41</course>
  <speed>0.0</speed>
  <fix>3d</fix>
</trkpt>
<trkpt lat="40.0713749" lon="-105.229789">
  <ele>1583.0</ele>
  <time>2026-08-28T17:48:57Z</time>
  <course>0.0</course>
  <speed>0.0</speed>
  <fix>3d</fix>
</trkpt>
<trkpt lat="40.0713749" lon="-105.229789">
  <ele>1583.0</ele>
  <time>2026-08-28T17:48:57Z</time>
  <course>248.41</course>
  <speed>0.0</speed>
  <fix>3d</fix>
</trkpt>
<trkpt lat="40.0713749" lon="-105.229789">
  <ele>1583.0</ele>
  <time>2026-08-28T17:48:57Z</time>
  <course>0.0</course>
  <speed>0.0</speed>
  <fix>3d</fix>
</trkpt>
<trkpt lat="40.0713749" lon="-105.229789">
  <ele>1583.0</ele>
  <time>2026-08-28T17:48:57Z</time>
  <course>248.41</course>
  <speed>0.0</speed>
  <fix>3d</fix>
</trkpt>
<trkpt lat="40.0713749" lon="-105.229789">
  <ele>1583.0</ele>
  <time>2026-08-28T17:48:57Z</time>
  <course>0.0</course>
  <speed>0.0</speed>
  <fix>3d</fix>
</trkpt>
<trkpt lat="40.0713749" lon="-105.229789">
  <ele>1583.0</ele>
  <time>2026-08-28T17:48:57Z</time>
  <course>248.41</course>
  <speed>0.0</speed>
  <fix>3d</fix>
</trkpt>
<trkpt lat="40.0713749" lon="-105.229789">
  <ele>1583.0</ele>
  <time>2026-08-28T17:48:57Z</time>
  <course>0.0</course>
  <speed>0.0</speed>
  <fix>3d</fix>
</trkpt>
<trkpt lat="40.0713749" lon="-105.229789">
  <ele>1583.0</ele>
  <time>2026-08-28T17:48:57Z</time>
  <course>248.41</course>
  <speed>0.0</speed>
  <fix>3d</fix>
</trkpt>
<trkpt lat="40.0713749" lon="-105.229789">
  <ele>1583.0</ele>
  <time>2026-08-28T17:48:57Z</time>
  <course>0.0</course>
  <speed>0.0</speed>
  <fix>3d</fix>
</trkpt>
<trkpt lat="40.0713749" lon="-105.229789">
  <ele>1583.0</ele>
  <time>2026-08-28T17:48:57Z</time>
  <course>248.41</course>
  <speed>0.0</speed>
  <fix>3d</fix>
</trkpt>
<trkpt lat="40.0713749" lon="-105.229789">
  <ele>1583.0</ele>
  <time>2026-08-28T17:48:57Z</time>
  <course>0.0</course>
  <speed>0.0</speed>
  <fix>3d</fix>
</trkpt>
<trkpt lat="40.0713749" lon="-105.229789">
  <ele>1583.0</ele>
  <time>2026-08-28T17:48:57Z</time>
  <course>248.4</course>
  <speed>0.0</speed>
  <fix>3d</fix>
</trkpt>
<trkpt lat="40.0713749" lon="-105.229789">
  <ele>1583.0</ele>
  <time>2026-08-28T17:48:57Z</time>
  <course>0.0</course>
  <speed>0.0</speed>
  <fix>3d</fix>
</trkpt>
<trkpt lat="40.0713749" lon="-105.229789">
  <ele>1583.0</ele>
  <time>2026-08-28T17:48:57Z</time>
  <course>248.4</course>
  <speed>0.01</speed>
  <fix>3d</fix>
</trkpt>
<trkpt lat="40.0713749" lon="-105.229789">
  <ele>1583.0</ele>
  <time>2026-08-28T17:48:57Z</time>
  <course>0.0</course>
  <speed>0.0</speed>
  <fix>3d</fix>
</trkpt>
<trkpt lat="40.0713749" lon="-105.229789">
  <ele>1583.0</ele>
  <time>2026-08-28T17:48:57Z</time>
  <course>248.4</course>
  <speed>0.01</speed>
  <fix>3d</fix>
</trkpt>
<trkpt lat="40.0713749" lon="-105.229789">
  <ele>1583.0</ele>
  <time>2026-08-28T17:48:57Z</time>
  <course>0.0</course>
  <speed>0.0</speed>
  <fix>3d</fix>
</trkpt>
<trkpt lat="40.0713749" lon="-105.229789">
  <ele>1583.0</ele>
  <time>2026-08-28T17:48:57Z</time>
  <course>248.4</course>
  <speed>0.01</speed>
  <fix>3d</fix>
</trkpt>
<trkpt lat="40.0713749" lon="-105.229789">
  <ele>1583.0</ele>
  <time>2026-08-28T17:48:57Z</time>
  <course>0.0</course>
  <speed>0.0</speed>
  <fix>3d</fix>
</trkpt>
<trkpt lat="40.0713749" lon="-105.229789">
  <ele>1583.0</ele>
  <time>2026-08-28T17:48:57Z</time>
  <course>248.4</course>
  <speed>0.01</speed>
  <fix>3d</fix>
</trkpt>
<trkpt lat="40.0713749" lon="-105.229789">
  <ele>1583.0</ele>
  <time>2026-08-28T17:48:57Z</time>
  <course>0.0</course>
  <speed>0.0</speed>
  <fix>3d</fix>
</trkpt>
<trkpt lat="40.0713749" lon="-105.229789">
  <ele>1583.0</ele>
  <time>2026-08-28T17:48:57Z</time>
  <course>248.39</course>
  <speed>0.01</speed>
  <fix>3d</fix>
</trkpt>
<trkpt lat="40.0713749" lon="-105.229789">
  <ele>1583.0</ele>
  <time>2026-08-28T17:48:57Z</time>
  <course>0.0</course>
  <speed>0.0</speed>
  <fix>3d</fix>
</trkpt>
<trkpt lat="40.0713749" lon="-105.229789">
  <ele>1583.0</ele>
  <time>2026-08-28T17:48:57Z</time>
  <course>248.39</course>
  <speed>0.01</speed>
  <fix>3d</fix>
</trkpt>
<trkpt lat="40.0713749" lon="-105.229789">
  <ele>1583.0</ele>
  <time>2026-08-28T17:48:57Z</time>
  <course>0.0</course>
  <speed>0.0</speed>
  <fix>3d</fix>
</trkpt>
<trkpt lat="40.0713749" lon="-105.229789">
  <ele>1583.0</ele>
  <time>2026-08-28T17:48:57Z</time>
  <course>248.39</course>
  <speed>0.01</speed>
  <fix>3d</fix>
</trkpt>
<trkpt lat="40.0713749" lon="-105.229789">
  <ele>1583.0</ele>
  <time>2026-08-28T17:48:57Z</time>
  <course>0.0</course>
  <speed>0.0</speed>
  <fix>3d</fix>
</trkpt>
<trkpt lat="40.0713749" lon="-105.229789">
  <ele>1583.0</ele>
  <time>2026-08-28T17:48:57Z</time>
  <course>248.38</course>
  <speed>0.01</speed>
  <fix>3d</fix>
</trkpt>
<trkpt lat="40.0713749" lon="-105.229789">
  <ele>1583.0</ele>
  <time>2026-08-28T17:48:57Z</time>
  <course>0.0</course>
  <speed>0.0</speed>
  <fix>3d</fix>
</trkpt>
<trkpt lat="40.0713749" lon="-105.229789">
  <ele>1583.0</ele>
  <time>2026-08-28T17:48:57Z</time>
  <course>248.38</course>
  <speed>0.01</speed>
  <fix>3d</fix>
</trkpt>
<trkpt lat="40.0713749" lon="-105.229789">
  <ele>1583.0</ele>
  <time>2026-08-28T17:48:57Z</time>
  <course>0.0</course>
  <speed>0.0</speed>
  <fix>3d</fix>
</trkpt>
<trkpt lat="40.0713749" lon="-105.229789">
  <ele>1583.0</ele>
  <time>2026-08-28T17:48:57Z</time>
  <course>248.38</course>
  <speed>0.01</speed>
  <fix>3d</fix>
</trkpt>
<trkpt lat="40.0713749" lon="-105.229789">
  <ele>1583.0</ele>
  <time>2026-08-28T17:48:57Z</time>
  <course>0.0</course>
  <speed>0.0</speed>
  <fix>3d</fix>
</trkpt>
<trkpt lat="40.0713749" lon="-105.229789">
  <ele>1583.0</ele>
  <time>2026-08-28T17:48:57Z</time>
  <course>248.37</course>
  <speed>0.01</speed>
  <fix>3d</fix>
</trkpt>
<trkpt lat="40.0713749" lon="-105.229789">
  <ele>1583.0</ele>
  <time>2026-08-28T17:48:57Z</time>
  <course>0.0</course>
  <speed>0.0</speed>
  <fix>3d</fix>
</trkpt>
<trkpt lat="40.0713749" lon="-105.229789">
  <ele>1583.0</ele>
  <time>2026-08-28T17:48:57Z</time>
  <course>248.37</course>
  <speed>0.01</speed>
  <fix>3d</fix>
</trkpt>
<trkpt lat="40.0713749" lon="-105.229789">
  <ele>1583.0</ele>
  <time>2026-08-28T17:48:57Z</time>
  <course>0.0</course>
  <speed>0.0</speed>
  <fix>3d</fix>
</trkpt>
<trkpt lat="40.0713749" lon="-105.229789">
  <ele>1583.0</ele>
  <time>2026-08-28T17:48:57Z</time>
  <course>248.37</course>
  <speed>0.01</speed>
  <fix>3d</fix>
</trkpt>
<trkpt lat="40.0713749" lon="-105.229789">
  <ele>1583.0</ele>
  <time>2026-08-28T17:48:57Z</time>
  <course>0.0</course>
  <speed>0.0</speed>
  <fix>3d</fix>
</trkpt>
<trkpt lat="40.0713749" lon="-105.229789">
  <ele>1583.0</ele>
  <time>2026-08-28T17:48:57Z</time>
  <course>248.36</course>
  <speed>0.01</speed>
  <fix>3d</fix>
</trkpt>
<trkpt lat="40.0713749" lon="-105.229789">
  <ele>1583.0</ele>
  <time>2026-08-28T17:48:57Z</time>
  <course>0.0</course>
  <speed>0.0</speed>
  <fix>3d</fix>
</trkpt>
<trkpt lat="40.0713749" lon="-105.229789">
  <ele>1583.0</ele>
  <time>2026-08-28T17:48:57Z</time>
  <course>248.36</course>
  <speed>0.01</speed>
  <fix>3d</fix>
</trkpt>
<trkpt lat="40.0713749" lon="-105.229789">
  <ele>1583.0</ele>
  <time>2026-08-28T17:48:57Z</time>
  <course>0.0</course>
  <speed>0.0</speed>
  <fix>3d</fix>
</trkpt>
<trkpt lat="40.0713749" lon="-105.229789">
  <ele>1583.0</ele>
  <time>2026-08-28T17:48:57Z</time>
  <course>248.36</course>
  <speed>0.01</speed>
  <fix>3d</fix>
</trkpt>
<trkpt lat="40.0713749" lon="-105.229789">
  <ele>1583.0</ele>
  <time>2026-08-28T17:48:57Z</time>
  <course>0.0</course>
  <speed>0.0</speed>
  <fix>3d</fix>
</trkpt>
<trkpt lat="40.0713749" lon="-105.229789">
  <ele>1583.0</ele>
  <time>2026-08-28T17:48:57Z</time>
  <course>248.35</course>
  <speed>0.01</speed>
  <fix>3d</fix>
</trkpt>
<trkpt lat="40.0713749" lon="-105.229789">
  <ele>1583.0</ele>
  <time>2026-08-28T17:48:57Z</time>
  <course>0.0</course>
  <speed>0.0</speed>
  <fix>3d</fix>
</trkpt>
<trkpt lat="40.0713749" lon="-105.229789">
  <ele>1583.0</ele>
  <time>2026-08-28T17:48:57Z</time>
  <course>248.35</course>
  <speed>0.01</speed>
  <fix>3d</fix>
</trkpt>
<trkpt lat="40.0713749" lon="-105.229789">
  <ele>1583.0</ele>
  <time>2026-08-28T17:48:57Z</time>
  <course>0.0</course>
  <speed>0.0</speed>
  <fix>3d</fix>
</trkpt>
<trkpt lat="40.0713749" lon="-105.229789">
  <ele>1583.0</ele>
  <time>2026-08-28T17:48:57Z</time>
  <course>248.35</course>
  <speed>0.01</speed>
  <fix>3d</fix>
</trkpt>
<trkpt lat="40.0713749" lon="-105.229789">
  <ele>1583.0</ele>
  <time>2026-08-28T17:48:57Z</time>
  <course>0.0</course>
  <speed>0.0</speed>
  <fix>3d</fix>
</trkpt>
<trkpt lat="40.0713749" lon="-105.229789">
  <ele>1583.0</ele>
  <time>2026-08-28T17:48:57Z</time>
  <course>248.34</course>
  <speed>0.01</speed>
  <fix>3d</fix>
</trkpt>
<trkpt lat="40.0713749" lon="-105.229789">
  <ele>1583.0</ele>
  <time>2026-08-28T17:48:57Z</time>
  <course>0.0</course>
  <speed>0.0</speed>
  <fix>3d</fix>
</trkpt>
<trkpt lat="40.0713749" lon="-105.229789">
  <ele>1583.0</ele>
  <time>2026-08-28T17:48:57Z</time>
  <course>248.34</course>
  <speed>0.01</speed>
  <fix>3d</fix>
</trkpt>
<trkpt lat="40.0713749" lon="-105.229789">
  <ele>1583.0</ele>
  <time>2026-08-28T17:48:57Z</time>
  <course>0.0</course>
  <speed>0.0</speed>
  <fix>3d</fix>
</trkpt>
<trkpt lat="40.0713749" lon="-105.229789">
  <ele>1583.0</ele>
  <time>2026-08-28T17:48:57Z</time>
  <course>248.33</course>
  <speed>0.01</speed>
  <fix>3d</fix>
</trkpt>
<trkpt lat="40.0713749" lon="-105.229789">
  <ele>1583.0</ele>
  <time>2026-08-28T17:48:57Z</time>
  <course>0.0</course>
  <speed>0.0</speed>
  <fix>3d</fix>
</trkpt>
<trkpt lat="40.0713749" lon="-105.229789">
  <ele>1583.0</ele>
  <time>2026-08-28T17:48:57Z</time>
  <course>248.33</course>
  <speed>0.01</speed>
  <fix>3d</fix>
</trkpt>
<trkpt lat="40.0713749" lon="-105.229789">
  <ele>1583.0</ele>
  <time>2026-08-28T17:48:57Z</time>
  <course>0.0</course>
  <speed>0.0</speed>
  <fix>3d</fix>
</trkpt>
<trkpt lat="40.0713749" lon="-105.229789">
  <ele>1583.0</ele>
  <time>2026-08-28T17:48:57Z</time>
  <course>248.32</course>
  <speed>0.01</speed>
  <fix>3d</fix>
</trkpt>
<trkpt lat="40.0713749" lon="-105.229789">
  <ele>1583.0</ele>
  <time>2026-08-28T17:48:57Z</time>
  <course>0.0</course>
  <speed>0.0</speed>
  <fix>3d</fix>
</trkpt>
<trkpt lat="40.0713749" lon="-105.229789">
  <ele>1583.0</ele>
  <time>2026-08-28T17:48:57Z</time>
  <course>248.32</course>
  <speed>0.01</speed>
  <fix>3d</fix>
</trkpt>
<trkpt lat="40.0713749" lon="-105.229789">
  <ele>1583.0</ele>
  <time>2026-08-28T17:48:57Z</time>
  <course>0.0</course>
  <speed>0.0</speed>
  <fix>3d</fix>
</trkpt>
<trkpt lat="40.0713749" lon="-105.229789">
  <ele>1583.0</ele>
  <time>2026-08-28T17:48:57Z</time>
  <course>248.32</course>
  <speed>0.01</speed>
  <fix>3d</fix>
</trkpt>
<trkpt lat="40.0713749" lon="-105.229789">
  <ele>1583.0</ele>
  <time>2026-08-28T17:48:57Z</time>
  <course>0.0</course>
  <speed>0.0</speed>
  <fix>3d</fix>
</trkpt>
<trkpt lat="40.0713749" lon="-105.229789">
  <ele>1583.0</ele>
  <time>2026-08-28T17:48:57Z</time>
  <course>248.31</course>
  <speed>0.01</speed>
  <fix>3d</fix>
</trkpt>
<trkpt lat="40.0713749" lon="-105.229789">
  <ele>1583.0</ele>
  <time>2026-08-28T17:48:57Z</time>
  <course>0.0</course>
  <speed>0.0</speed>
  <fix>3d</fix>
</trkpt>
<trkpt lat="40.0713749" lon="-105.229789">
  <ele>1583.0</ele>
  <time>2026-08-28T17:48:57Z</time>
  <course>248.31</course>
  <speed>0.01</speed>
  <fix>3d</fix>
</trkpt>
<trkpt lat="40.0713749" lon="-105.229789">
  <ele>1583.0</ele>
  <time>2026-08-28T17:48:57Z</time>
  <course>0.0</course>
  <speed>0.0</speed>
  <fix>3d</fix>
</trkpt>
<trkpt lat="40.0713749" lon="-105.229789">
  <ele>1583.0</ele>
  <time>2026-08-28T17:48:57Z</time>
  <course>248.3</course>
  <speed>0.01</speed>
  <fix>3d</fix>
</trkpt>
<trkpt lat="40.0713749" lon="-105.229789">
  <ele>1583.0</ele>
  <time>2026-08-28T17:48:57Z</time>
  <course>0.0</course>
  <speed>0.0</speed>
  <fix>3d</fix>
</trkpt>
<trkpt lat="40.0713749" lon="-105.229789">
  <ele>1583.0</ele>
  <time>2026-08-28T17:48:57Z</time>
  <course>248.3</course>
  <speed>0.01</speed>
  <fix>3d</fix>
</trkpt>
<trkpt lat="40.0713749" lon="-105.229789">
  <ele>1583.0</ele>
  <time>2026-08-28T17:48:57Z</time>
  <course>0.0</course>
  <speed>0.0</speed>
  <fix>3d</fix>
</trkpt>
<trkpt lat="40.0713749" lon="-105.229789">
  <ele>1583.0</ele>
  <time>2026-08-28T17:48:57Z</time>
  <course>248.29</course>
  <speed>0.01</speed>
  <fix>3d</fix>
</trkpt>
<trkpt lat="40.0713749" lon="-105.229789">
  <ele>1583.0</ele>
  <time>2026-08-28T17:48:57Z</time>
  <course>0.0</course>
  <speed>0.0</speed>
  <fix>3d</fix>
</trkpt>
<trkpt lat="40.0713749" lon="-105.229789">
  <ele>1583.0</ele>
  <time>2026-08-28T17:48:57Z</time>
  <course>248.29</course>
  <speed>0.01</speed>
  <fix>3d</fix>
</trkpt>
<trkpt lat="40.0713749" lon="-105.229789">
  <ele>1583.0</ele>
  <time>2026-08-28T17:48:57Z</time>
  <course>0.0</course>
  <speed>0.0</speed>
  <fix>3d</fix>
</trkpt>
<trkpt lat="40.0713749" lon="-105.229789">
  <ele>1583.0</ele>
  <time>2026-08-28T17:48:57Z</time>
  <course>248.28</course>
  <speed>0.01</speed>
  <fix>3d</fix>
</trkpt>
<trkpt lat="40.0713749" lon="-105.229789">
  <ele>1583.0</ele>
  <time>2026-08-28T17:48:57Z</time>
  <course>0.0</course>
  <speed>0.0</speed>
  <fix>3d</fix>
</trkpt>
<trkpt lat="40.0713749" lon="-105.229789">
  <ele>1583.0</ele>
  <time>2026-08-28T17:48:57Z</time>
  <course>248.28</course>
  <speed>0.01</speed>
  <fix>3d</fix>
</trkpt>
<trkpt lat="40.0713749" lon="-105.229789">
  <ele>1583.0</ele>
  <time>2026-08-28T17:48:57Z</time>
  <course>0.0</course>
  <speed>0.0</speed>
  <fix>3d</fix>
</trkpt>
<trkpt lat="40.0713749" lon="-105.229789">
  <ele>1583.0</ele>
  <time>2026-08-28T17:48:57Z</time>
  <course>248.27</course>
  <speed>0.01</speed>
  <fix>3d</fix>
</trkpt>
<trkpt lat="40.0713749" lon="-105.229789">
  <ele>1583.0</ele>
  <time>2026-08-28T17:48:57Z</time>
  <course>0.0</course>
  <speed>0.0</speed>
  <fix>3d</fix>
</trkpt>
<trkpt lat="40.0713749" lon="-105.229789">
  <ele>1583.0</ele>
  <time>2026-08-28T17:48:57Z</time>
  <course>248.27</course>
  <speed>0.01</speed>
  <fix>3d</fix>
</trkpt>
<trkpt lat="40.0713749" lon="-105.229789">
  <ele>1583.0</ele>
  <time>2026-08-28T17:48:57Z</time>
  <course>0.0</course>
  <speed>0.0</speed>
  <fix>3d</fix>
</trkpt>
<trkpt lat="40.0713749" lon="-105.229789">
  <ele>1583.0</ele>
  <time>2026-08-28T17:48:57Z</time>
  <course>248.26</course>
  <speed>0.01</speed>
  <fix>3d</fix>
</trkpt>
<trkpt lat="40.0713749" lon="-105.229789">
  <ele>1583.0</ele>
  <time>2026-08-28T17:48:57Z</time>
  <course>0.0</course>
  <speed>0.0</speed>
  <fix>3d</fix>
</trkpt>
<trkpt lat="40.0713749" lon="-105.229789">
  <ele>1583.0</ele>
  <time>2026-08-28T17:48:57Z</time>
  <course>248.26</course>
  <speed>0.01</speed>
  <fix>3d</fix>
</trkpt>
<trkpt lat="40.0713749" lon="-105.229789">
  <ele>1583.0</ele>
  <time>2026-08-28T17:48:57Z</time>
  <course>0.0</course>
  <speed>0.0</speed>
  <fix>3d</fix>
</trkpt>
<trkpt lat="40.0713749" lon="-105.229789">
  <ele>1583.0</ele>
  <time>2026-08-28T17:48:57Z</time>
  <course>248.26</course>
  <speed>0.01</speed>
  <fix>3d</fix>
</trkpt>
<trkpt lat="40.0713749" lon="-105.229789">
  <ele>1583.0</ele>
  <time>2026-08-28T17:48:57Z</time>
  <course>0.0</course>
  <speed>0.0</speed>
  <fix>3d</fix>
</trkpt>
<trkpt lat="40.0713749" lon="-105.229789">
  <ele>1583.0</ele>
  <time>2026-08-28T17:48:57Z</time>
  <course>248.25</course>
  <speed>0.01</speed>
  <fix>3d</fix>
</trkpt>
<trkpt lat="40.0713749" lon="-105.229789">
  <ele>1583.0</ele>
  <time>2026-08-28T17:48:57Z</time>
  <course>0.0</course>
  <speed>0.0</speed>
  <fix>3d</fix>
</trkpt>
<trkpt lat="40.0713749" lon="-105.229789">
  <ele>1583.0</ele>
  <time>2026-08-28T17:48:57Z</time>
  <course>248.25</course>
  <speed>0.01</speed>
  <fix>3d</fix>
</trkpt>
<trkpt lat="40.0713749" lon="-105.229789">
  <ele>1583.0</ele>
  <time>2026-08-28T17:48:57Z</time>
  <course>0.0</course>
  <speed>0.0</speed>
  <fix>3d</fix>
</trkpt>
<trkpt lat="40.0713749" lon="-105.229789">
  <ele>1583.0</ele>
  <time>2026-08-28T17:48:57Z</time>
  <course>248.24</course>
  <speed>0.01</speed>
  <fix>3d</fix>
</trkpt>
<trkpt lat="40.0713749" lon="-105.229789">
  <ele>1583.0</ele>
  <time>2026-08-28T17:48:57Z</time>
  <course>0.0</course>
  <speed>0.0</speed>
  <fix>3d</fix>
</trkpt>
<trkpt lat="40.0713749" lon="-105.229789">
  <ele>1583.0</ele>
  <time>2026-08-28T17:48:57Z</time>
  <course>248.24</course>
  <speed>0.01</speed>
  <fix>3d</fix>
</trkpt>
<trkpt lat="40.0713749" lon="-105.229789">
  <ele>1583.0</ele>
  <time>2026-08-28T17:48:57Z</time>
  <course>0.0</course>
  <speed>0.0</speed>
  <fix>3d</fix>
</trkpt>
<trkpt lat="40.0713749" lon="-105.229789">
  <ele>1583.0</ele>
  <time>2026-08-28T17:48:57Z</time>
  <course>248.23</course>
  <speed>0.01</speed>
  <fix>3d</fix>
</trkpt>
<trkpt lat="40.0713749" lon="-105.229789">
  <ele>1583.0</ele>
  <time>2026-08-28T17:48:57Z</time>
  <course>0.0</course>
  <speed>0.0</speed>
  <fix>3d</fix>
</trkpt>
<trkpt lat="40.0713749" lon="-105.229789">
  <ele>1583.0</ele>
  <time>2026-08-28T17:48:57Z</time>
  <course>248.23</course>
  <speed>0.01</speed>
  <fix>3d</fix>
</trkpt>
<trkpt lat="40.0713749" lon="-105.229789">
  <ele>1583.0</ele>
  <time>2026-08-28T17:48:57Z</time>
  <course>0.0</course>
  <speed>0.0</speed>
  <fix>3d</fix>
</trkpt>
<trkpt lat="40.0713749" lon="-105.229789">
  <ele>1583.0</ele>
  <time>2026-08-28T17:48:57Z</time>
  <course>248.22</course>
  <speed>0.01</speed>
  <fix>3d</fix>
</trkpt>
<trkpt lat="40.0713749" lon="-105.229789">
  <ele>1583.0</ele>
  <time>2026-08-28T17:48:57Z</time>
  <course>0.0</course>
  <speed>0.0</speed>
  <fix>3d</fix>
</trkpt>
<trkpt lat="40.0713749" lon="-105.229789">
  <ele>1583.0</ele>
  <time>2026-08-28T17:48:57Z</time>
  <course>248.22</course>
  <speed>0.01</speed>
  <fix>3d</fix>
</trkpt>
<trkpt lat="40.0713749" lon="-105.229789">
  <ele>1583.0</ele>
  <time>2026-08-28T17:48:57Z</time>
  <course>0.0</course>
  <speed>0.0</speed>
  <fix>3d</fix>
</trkpt>
<trkpt lat="40.0713749" lon="-105.229789">
  <ele>1583.0</ele>
  <time>2026-08-28T17:48:57Z</time>
  <course>248.21</course>
  <speed>0.01</speed>
  <fix>3d</fix>
</trkpt>
<trkpt lat="40.0713749" lon="-105.229789">
  <ele>1583.0</ele>
  <time>2026-08-28T17:48:57Z</time>
  <course>0.0</course>
  <speed>0.0</speed>
  <fix>3d</fix>
</trkpt>
<trkpt lat="40.0713749" lon="-105.229789">
  <ele>1583.0</ele>
  <time>2026-08-28T17:48:57Z</time>
  <course>248.21</course>
  <speed>0.01</speed>
  <fix>3d</fix>
</trkpt>
<trkpt lat="40.0713749" lon="-105.229789">
  <ele>1583.0</ele>
  <time>2026-08-28T17:48:57Z</time>
  <course>0.0</course>
  <speed>0.0</speed>
  <fix>3d</fix>
</trkpt>
<trkpt lat="40.0713749" lon="-105.229789">
  <ele>1583.0</ele>
  <time>2026-08-28T17:48:57Z</time>
  <course>248.2</course>
  <speed>0.01</speed>
  <fix>3d</fix>
</trkpt>
<trkpt lat="40.0713749" lon="-105.229789">
  <ele>1583.0</ele>
  <time>2026-08-28T17:48:57Z</time>
  <course>0.0</course>
  <speed>0.0</speed>
  <fix>3d</fix>
</trkpt>
<trkpt lat="40.0713749" lon="-105.229789">
  <ele>1583.0</ele>
  <time>2026-08-28T17:48:57Z</time>
  <course>248.2</course>
  <speed>0.01</speed>
  <fix>3d</fix>
</trkpt>
<trkpt lat="40.0713749" lon="-105.229789">
  <ele>1583.0</ele>
  <time>2026-08-28T17:48:57Z</time>
  <course>0.0</course>
  <speed>0.0</speed>
  <fix>3d</fix>
</trkpt>
<trkpt lat="40.0713749" lon="-105.229789">
  <ele>1583.0</ele>
  <time>2026-08-28T17:48:57Z</time>
  <course>248.19</course>
  <speed>0.01</speed>
  <fix>3d</fix>
</trkpt>
<trkpt lat="40.0713749" lon="-105.229789">
  <ele>1583.0</ele>
  <time>2026-08-28T17:48:57Z</time>
  <course>0.0</course>
  <speed>0.0</speed>
  <fix>3d</fix>
</trkpt>
<trkpt lat="40.0713749" lon="-105.229789">
  <ele>1583.0</ele>
  <time>2026-08-28T17:48:57Z</time>
  <course>248.19</course>
  <speed>0.01</speed>
  <fix>3d</fix>
</trkpt>
<trkpt lat="40.0713749" lon="-105.229789">
  <ele>1583.0</ele>
  <time>2026-08-28T17:48:57Z</time>
  <course>0.0</course>
  <speed>0.0</speed>
  <fix>3d</fix>
</trkpt>
<trkpt lat="40.0713749" lon="-105.229789">
  <ele>1583.0</ele>
  <time>2026-08-28T17:48:57Z</time>
  <course>248.18</course>
  <speed>0.01</speed>
  <fix>3d</fix>
</trkpt>
<trkpt lat="40.0713749" lon="-105.229789">
  <ele>1583.0</ele>
  <time>2026-08-28T17:48:57Z</time>
  <course>0.0</course>
  <speed>0.0</speed>
  <fix>3d</fix>
</trkpt>
<trkpt lat="40.0713749" lon="-105.229789">
  <ele>1583.0</ele>
  <time>2026-08-28T17:48:57Z</time>
  <course>248.18</course>
  <speed>0.01</speed>
  <fix>3d</fix>
</trkpt>
<trkpt lat="40.0713749" lon="-105.229789">
  <ele>1583.0</ele>
  <time>2026-08-28T17:48:57Z</time>
  <course>0.0</course>
  <speed>0.0</speed>
  <fix>3d</fix>
</trkpt>
<trkpt lat="40.0713749" lon="-105.229789">
  <ele>1583.0</ele>
  <time>2026-08-28T17:48:57Z</time>
  <course>248.17</course>
  <speed>0.022360679774997897</speed>
  <fix>3d</fix>
</trkpt>
<trkpt lat="40.0713749" lon="-105.229789">
  <ele>1583.0</ele>
  <time>2026-08-28T17:48:57Z</time>
  <course>0.0</course>
  <speed>0.0</speed>
  <fix>3d</fix>
</trkpt>
<trkpt lat="40.0713749" lon="-105.229789">
  <ele>1583.0</ele>
  <time>2026-08-28T17:48:57Z</time>
  <course>248.17</course>
  <speed>0.022360679774997897</speed>
  <fix>3d</fix>
</trkpt>
<trkpt lat="40.0713749" lon="-105.229789">
  <ele>1583.0</ele>
  <time>2026-08-28T17:48:57Z</time>
  <course>0.0</course>
  <speed>0.0</speed>
  <fix>3d</fix>
</trkpt>
<trkpt lat="40.0713749" lon="-105.229789">
  <ele>1583.0</ele>
  <time>2026-08-28T17:48:57Z</time>
  <course>248.16</course>
  <speed>0.022360679774997897</speed>
  <fix>3d</fix>
</trkpt>
<trkpt lat="40.0713749" lon="-105.229789">
  <ele>1583.0</ele>
  <time>2026-08-28T17:48:57Z</time>
  <course>0.0</course>
  <speed>0.0</speed>
  <fix>3d</fix>
</trkpt>
<trkpt lat="40.0713749" lon="-105.229789">
  <ele>1583.0</ele>
  <time>2026-08-28T17:48:57Z</time>
  <course>248.16</course>
  <speed>0.022360679774997897</speed>
  <fix>3d</fix>
</trkpt>
<trkpt lat="40.0713749" lon="-105.229789">
  <ele>1583.0</ele>
  <time>2026-08-28T17:48:57Z</time>
  <course>0.0</course>
  <speed>0.0</speed>
  <fix>3d</fix>
</trkpt>
<trkpt lat="40.0713749" lon="-105.229789">
  <ele>1583.0</ele>
  <time>2026-08-28T17:48:57Z</time>
  <course>248.15</course>
  <speed>0.022360679774997897</speed>
  <fix>3d</fix>
</trkpt>
<trkpt lat="40.0713749" lon="-105.229789">
  <ele>1583.0</ele>
  <time>2026-08-28T17:48:57Z</time>
  <course>0.0</course>
  <speed>0.0</speed>
  <fix>3d</fix>
</trkpt>
<trkpt lat="40.0713749" lon="-105.229789">
  <ele>1583.0</ele>
  <time>2026-08-28T17:48:57Z</time>
  <course>248.15</course>
  <speed>0.022360679774997897</speed>
  <fix>3d</fix>
</trkpt>
<trkpt lat="40.0713749" lon="-105.229789">
  <ele>1583.0</ele>
  <time>2026-08-28T17:48:57Z</time>
  <course>0.0</course>
  <speed>0.0</speed>
  <fix>3d</fix>
</trkpt>
<trkpt lat="40.0713749" lon="-105.229789">
  <ele>1583.0</ele>
  <time>2026-08-28T17:48:57Z</time>
  <course>248.14</course>
  <speed>0.022360679774997897</speed>
  <fix>3d</fix>
</trkpt>
<trkpt lat="40.0713749" lon="-105.229789">
  <ele>1583.0</ele>
  <time>2026-08-28T17:48:57Z</time>
  <course>0.0</course>
  <speed>0.0</speed>
  <fix>3d</fix>
</trkpt>
<trkpt lat="40.0713749" lon="-105.229789">
  <ele>1583.0</ele>
  <time>2026-08-28T17:48:57Z</time>
  <course>248.14</course>
  <speed>0.022360679774997897</speed>
  <fix>3d</fix>
</trkpt>
<trkpt lat="40.0713749" lon="-105.229789">
  <ele>1583.0</ele>
  <time>2026-08-28T17:48:57Z</time>
  <course>0.0</course>
  <speed>0.0</speed>
  <fix>3d</fix>
</trkpt>
<trkpt lat="40.0713749" lon="-105.229789">
  <ele>1583.0</ele>
  <time>2026-08-28T17:48:57Z</time>
  <course>248.13</course>
  <speed>0.022360679774997897</speed>
  <fix>3d</fix>
</trkpt>
<trkpt lat="40.0713749" lon="-105.229789">
  <ele>1583.0</ele>
  <time>2026-08-28T17:48:57Z</time>
  <course>0.0</course>
  <speed>0.0</speed>
  <fix>3d</fix>
</trkpt>
<trkpt lat="40.0713749" lon="-105.229789">
  <ele>1583.0</ele>
  <time>2026-08-28T17:48:57Z</time>
  <course>248.13</course>
  <speed>0.022360679774997897</speed>
  <fix>3d</fix>
</trkpt>
<trkpt lat="40.0713749" lon="-105.229789">
  <ele>1583.0</ele>
  <time>2026-08-28T17:48:57Z</time>
  <course>0.0</course>
  <speed>0.0</speed>
  <fix>3d</fix>
</trkpt>
<trkpt lat="40.0713749" lon="-105.229789">
  <ele>1583.0</ele>
  <time>2026-08-28T17:48:57Z</time>
  <course>248.12</course>
  <speed>0.022360679774997897</speed>
  <fix>3d</fix>
</trkpt>
<trkpt lat="40.0713749" lon="-105.229789">
  <ele>1583.0</ele>
  <time>2026-08-28T17:48:57Z</time>
  <course>0.0</course>
  <speed>0.0</speed>
  <fix>3d</fix>
</trkpt>
<trkpt lat="40.0713749" lon="-105.229789">
  <ele>1583.0</ele>
  <time>2026-08-28T17:48:57Z</time>
  <course>248.12</course>
  <speed>0.022360679774997897</speed>
  <fix>3d</fix>
</trkpt>
<trkpt lat="40.0713749" lon="-105.229789">
  <ele>1583.0</ele>
  <time>2026-08-28T17:48:57Z</time>
  <course>0.0</course>
  <speed>0.0</speed>
  <fix>3d</fix>
</trkpt>
<trkpt lat="40.0713749" lon="-105.229789">
  <ele>1583.0</ele>
  <time>2026-08-28T17:48:57Z</time>
  <course>248.11</course>
  <speed>0.022360679774997897</speed>
  <fix>3d</fix>
</trkpt>
<trkpt lat="40.0713749" lon="-105.229789">
  <ele>1583.0</ele>
  <time>2026-08-28T17:48:57Z</time>
  <course>0.0</course>
  <speed>0.0</speed>
  <fix>3d</fix>
</trkpt>
<trkpt lat="40.0713749" lon="-105.229789">
  <ele>1583.0</ele>
  <time>2026-08-28T17:48:57Z</time>
  <course>248.11</course>
  <speed>0.022360679774997897</speed>
  <fix>3d</fix>
</trkpt>
<trkpt lat="40.0713749" lon="-105.229789">
  <ele>1583.0</ele>
  <time>2026-08-28T17:48:57Z</time>
  <course>0.0</course>
  <speed>0.0</speed>
  <fix>3d</fix>
</trkpt>
<trkpt lat="40.0713749" lon="-105.229789">
  <ele>1583.0</ele>
  <time>2026-08-28T17:48:57Z</time>
  <course>248.1</course>
  <speed>0.022360679774997897</speed>
  <fix>3d</fix>
</trkpt>
<trkpt lat="40.0713749" lon="-105.229789">
  <ele>1583.0</ele>
  <time>2026-08-28T17:48:57Z</time>
  <course>0.0</course>
  <speed>0.0</speed>
  <fix>3d</fix>
</trkpt>
<trkpt lat="40.0713749" lon="-105.229789">
  <ele>1583.0</ele>
  <time>2026-08-28T17:48:57Z</time>
  <course>248.1</course>
  <speed>0.022360679774997897</speed>
  <fix>3d</fix>
</trkpt>
<trkpt lat="40.0713749" lon="-105.229789">
  <ele>1583.0</ele>
  <time>2026-08-28T17:48:57Z</time>
  <course>0.0</course>
  <speed>0.0</speed>
  <fix>3d</fix>
</trkpt>
<trkpt lat="40.0713749" lon="-105.229789">
  <ele>1583.0</ele>
  <time>2026-08-28T17:48:57Z</time>
  <course>248.09</course>
  <speed>0.022360679774997897</speed>
  <fix>3d</fix>
</trkpt>
<trkpt lat="40.0713749" lon="-105.229789">
  <ele>1583.0</ele>
  <time>2026-08-28T17:48:57Z</time>
  <course>0.0</course>
  <speed>0.0</speed>
  <fix>3d</fix>
</trkpt>
<trkpt lat="40.0713749" lon="-105.229789">
  <ele>1583.0</ele>
  <time>2026-08-28T17:48:57Z</time>
  <course>248.09</course>
  <speed>0.022360679774997897</speed>
  <fix>3d</fix>
</trkpt>
<trkpt lat="40.0713749" lon="-105.229789">
  <ele>1583.0</ele>
  <time>2026-08-28T17:48:57Z</time>
  <course>0.0</course>
  <speed>0.0</speed>
  <fix>3d</fix>
</trkpt>
<trkpt lat="40.0713749" lon="-105.229789">
  <ele>1583.0</ele>
  <time>2026-08-28T17:48:57Z</time>
  <course>248.08</course>
  <speed>0.022360679774997897</speed>
  <fix>3d</fix>
</trkpt>
<trkpt lat="40.0713749" lon="-105.229789">
  <ele>1583.0</ele>
  <time>2026-08-28T17:48:57Z</time>
  <course>0.0</course>
  <speed>0.0</speed>
  <fix>3d</fix>
</trkpt>
<trkpt lat="40.0713749" lon="-105.229789">
  <ele>1583.0</ele>
  <time>2026-08-28T17:48:57Z</time>
  <course>248.08</course>
  <speed>0.022360679774997897</speed>
  <fix>3d</fix>
</trkpt>
<trkpt lat="40.0713749" lon="-105.229789">
  <ele>1583.0</ele>
  <time>2026-08-28T17:48:57Z</time>
  <course>0.0</course>
  <speed>0.0</speed>
  <fix>3d</fix>
</trkpt>
<trkpt lat="40.0713749" lon="-105.229789">
  <ele>1583.0</ele>
  <time>2026-08-28T17:48:57Z</time>
  <course>248.07</course>
  <speed>0.022360679774997897</speed>
  <fix>3d</fix>
</trkpt>
<trkpt lat="40.0713749" lon="-105.229789">
  <ele>1583.0</ele>
  <time>2026-08-28T17:48:57Z</time>
  <course>0.0</course>
  <speed>0.0</speed>
  <fix>3d</fix>
</trkpt>
<trkpt lat="40.0713749" lon="-105.229789">
  <ele>1583.0</ele>
  <time>2026-08-28T17:48:57Z</time>
  <course>248.07</course>
  <speed>0.022360679774997897</speed>
  <fix>3d</fix>
</trkpt>
<trkpt lat="40.0713749" lon="-105.229789">
  <ele>1583.0</ele>
  <time>2026-08-28T17:48:57Z</time>
  <course>0.0</course>
  <speed>0.0</speed>
  <fix>3d</fix>
</trkpt>
<trkpt lat="40.0713749" lon="-105.229789">
  <ele>1583.0</ele>
  <time>2026-08-28T17:48:57Z</time>
  <course>248.06</course>
  <speed>0.022360679774997897</speed>
  <fix>3d</fix>
</trkpt>
<trkpt lat="40.0713749" lon="-105.229789">
  <ele>1583.0</ele>
  <time>2026-08-28T17:48:57Z</time>
  <course>0.0</course>
  <speed>0.0</speed>
  <fix>3d</fix>
</trkpt>
<trkpt lat="40.0713749" lon="-105.229789">
  <ele>1583.0</ele>
  <time>2026-08-28T17:48:57Z</time>
  <course>248.06</course>
  <speed>0.022360679774997897</speed>
  <fix>3d</fix>
</trkpt>
<trkpt lat="40.0713749" lon="-105.229789">
  <ele>1583.0</ele>
  <time>2026-08-28T17:48:57Z</time>
  <course>0.0</course>
  <speed>0.0</speed>
  <fix>3d</fix>
</trkpt>
<trkpt lat="40.0713749" lon="-105.229789">
  <ele>1583.0</ele>
  <time>2026-08-28T17:48:57Z</time>
  <course>248.05</course>
  <speed>0.022360679774997897</speed>
  <fix>3d</fix>
</trkpt>
<trkpt lat="40.0713749" lon="-105.229789">
  <ele>1583.0</ele>
  <time>2026-08-28T17:48:57Z</time>
  <course>0.0</course>
  <speed>0.0</speed>
  <fix>3d</fix>
</trkpt>
<trkpt lat="40.0713749" lon="-105.229789">
  <ele>1583.0</ele>
  <time>2026-08-28T17:48:57Z</time>
  <course>248.05</course>
  <speed>0.022360679774997897</speed>
  <fix>3d</fix>
</trkpt>
<trkpt lat="40.0713749" lon="-105.229789">
  <ele>1583.0</ele>
  <time>2026-08-28T17:48:57Z</time>
  <course>0.0</course>
  <speed>0.0</speed>
  <fix>3d</fix>
</trkpt>
<trkpt lat="40.0713749" lon="-105.229789">
  <ele>1583.0</ele>
  <time>2026-08-28T17:48:57Z</time>
  <course>248.05</course>
  <speed>0.022360679774997897</speed>
  <fix>3d</fix>
</trkpt>
<trkpt lat="40.0713749" lon="-105.229789">
  <ele>1583.0</ele>
  <time>2026-08-28T17:48:57Z</time>
  <course>0.0</course>
  <speed>0.0</speed>
  <fix>3d</fix>
</trkpt>
<trkpt lat="40.0713749" lon="-105.229789">
  <ele>1583.0</ele>
  <time>2026-08-28T17:48:57Z</time>
  <course>248.04</course>
  <speed>0.022360679774997897</speed>
  <fix>3d</fix>
</trkpt>
<trkpt lat="40.0713749" lon="-105.229789">
  <ele>1583.0</ele>
  <time>2026-08-28T17:48:57Z</time>
  <course>0.0</course>
  <speed>0.0</speed>
  <fix>3d</fix>
</trkpt>
<trkpt lat="40.0713749" lon="-105.229789">
  <ele>1583.0</ele>
  <time>2026-08-28T17:48:57Z</time>
  <course>248.04</course>
  <speed>0.022360679774997897</speed>
  <fix>3d</fix>
</trkpt>
<trkpt lat="40.0713749" lon="-105.229789">
  <ele>1583.0</ele>
  <time>2026-08-28T17:48:57Z</time>
  <course>0.0</course>
  <speed>0.0</speed>
  <fix>3d</fix>
</trkpt>
<trkpt lat="40.0713749" lon="-105.229789">
  <ele>1583.0</ele>
  <time>2026-08-28T17:48:57Z</time>
  <course>248.03</course>
  <speed>0.022360679774997897</speed>
  <fix>3d</fix>
</trkpt>
<trkpt lat="40.0713749" lon="-105.229789">
  <ele>1583.0</ele>
  <time>2026-08-28T17:48:57Z</time>
  <course>0.0</course>
  <speed>0.0</speed>
  <fix>3d</fix>
</trkpt>
<trkpt lat="40.0713749" lon="-105.229789">
  <ele>1583.0</ele>
  <time>2026-08-28T17:48:57Z</time>
  <course>248.03</course>
  <speed>0.022360679774997897</speed>
  <fix>3d</fix>
</trkpt>
<trkpt lat="40.0713749" lon="-105.229789">
  <ele>1583.0</ele>
  <time>2026-08-28T17:48:57Z</time>
  <course>0.0</course>
  <speed>0.0</speed>
  <fix>3d</fix>
</trkpt>
<trkpt lat="40.0713749" lon="-105.229789">
  <ele>1583.0</ele>
  <time>2026-08-28T17:48:57Z</time>
  <course>248.02</course>
  <speed>0.022360679774997897</speed>
  <fix>3d</fix>
</trkpt>
<trkpt lat="40.0713749" lon="-105.229789">
  <ele>1583.0</ele>
  <time>2026-08-28T17:48:57Z</time>
  <course>0.0</course>
  <speed>0.0</speed>
  <fix>3d</fix>
</trkpt>
<trkpt lat="40.0713749" lon="-105.229789">
  <ele>1583.0</ele>
  <time>2026-08-28T17:48:57Z</time>
  <course>248.02</course>
  <speed>0.022360679774997897</speed>
  <fix>3d</fix>
</trkpt>
<trkpt lat="40.0713749" lon="-105.229789">
  <ele>1583.0</ele>
  <time>2026-08-28T17:48:57Z</time>
  <course>0.0</course>
  <speed>0.0</speed>
  <fix>3d</fix>
</trkpt>
<trkpt lat="40.0713749" lon="-105.229789">
  <ele>1583.0</ele>
  <time>2026-08-28T17:48:57Z</time>
  <course>248.01</course>
  <speed>0.022360679774997897</speed>
  <fix>3d</fix>
</trkpt>
<trkpt lat="40.0713749" lon="-105.229789">
  <ele>1583.0</ele>
  <time>2026-08-28T17:48:57Z</time>
  <course>0.0</course>
  <speed>0.0</speed>
  <fix>3d</fix>
</trkpt>
<trkpt lat="40.0713749" lon="-105.229789">
  <ele>1583.0</ele>
  <time>2026-08-28T17:48:57Z</time>
  <course>248.01</course>
  <speed>0.022360679774997897</speed>
  <fix>3d</fix>
</trkpt>
<trkpt lat="40.0713749" lon="-105.229789">
  <ele>1583.0</ele>
  <time>2026-08-28T17:48:57Z</time>
  <course>0.0</course>
  <speed>0.0</speed>
  <fix>3d</fix>
</trkpt>
<trkpt lat="40.0713749" lon="-105.229789">
  <ele>1583.0</ele>
  <time>2026-08-28T17:48:57Z</time>
  <course>248.0</course>
  <speed>0.022360679774997897</speed>
  <fix>3d</fix>
</trkpt>
<trkpt lat="40.0713749" lon="-105.229789">
  <ele>1583.0</ele>
  <time>2026-08-28T17:48:57Z</time>
  <course>0.0</course>
  <speed>0.0</speed>
  <fix>3d</fix>
</trkpt>
<trkpt lat="40.0713749" lon="-105.229789">
  <ele>1583.0</ele>
  <time>2026-08-28T17:48:57Z</time>
  <course>248.0</course>
  <speed>0.022360679774997897</speed>
  <fix>3d</fix>
</trkpt>
<trkpt lat="40.0713749" lon="-105.229789">
  <ele>1583.0</ele>
  <time>2026-08-28T17:48:57Z</time>
  <course>0.0</course>
  <speed>0.0</speed>
  <fix>3d</fix>
</trkpt>
<trkpt lat="40.0713749" lon="-105.229789">
  <ele>1583.0</ele>
  <time>2026-08-28T17:48:57Z</time>
  <course>247.99</course>
  <speed>0.022360679774997897</speed>
  <fix>3d</fix>
</trkpt>
<trkpt lat="40.0713749" lon="-105.229789">
  <ele>1583.0</ele>
  <time>2026-08-28T17:48:57Z</time>
  <course>0.0</course>
  <speed>0.0</speed>
  <fix>3d</fix>
</trkpt>
<trkpt lat="40.0713749" lon="-105.229789">
  <ele>1583.0</ele>
  <time>2026-08-28T17:48:57Z</time>
  <course>247.99</course>
  <speed>0.022360679774997897</speed>
  <fix>3d</fix>
</trkpt>
<trkpt lat="40.0713749" lon="-105.229789">
  <ele>1583.0</ele>
  <time>2026-08-28T17:48:57Z</time>
  <course>0.0</course>
  <speed>0.0</speed>
  <fix>3d</fix>
</trkpt>
<trkpt lat="40.0713749" lon="-105.229789">
  <ele>1583.0</ele>
  <time>2026-08-28T17:48:57Z</time>
  <course>247.99</course>
  <speed>0.022360679774997897</speed>
  <fix>3d</fix>
</trkpt>
<trkpt lat="40.0713749" lon="-105.229789">
  <ele>1583.0</ele>
  <time>2026-08-28T17:48:57Z</time>
  <course>0.0</course>
  <speed>0.0</speed>
  <fix>3d</fix>
</trkpt>
<trkpt lat="40.0713749" lon="-105.229789">
  <ele>1583.0</ele>
  <time>2026-08-28T17:48:57Z</time>
  <course>247.98</course>
  <speed>0.022360679774997897</speed>
  <fix>3d</fix>
</trkpt>
<trkpt lat="40.0713749" lon="-105.229789">
  <ele>1583.0</ele>
  <time>2026-08-28T17:48:57Z</time>
  <course>0.0</course>
  <speed>0.0</speed>
  <fix>3d</fix>
</trkpt>
<trkpt lat="40.0713749" lon="-105.229789">
  <ele>1583.0</ele>
  <time>2026-08-28T17:48:57Z</time>
  <course>247.98</course>
  <speed>0.022360679774997897</speed>
  <fix>3d</fix>
</trkpt>
<trkpt lat="40.0713749" lon="-105.229789">
  <ele>1583.0</ele>
  <time>2026-08-28T17:48:57Z</time>
  <course>0.0</course>
  <speed>0.0</speed>
  <fix>3d</fix>
</trkpt>
<trkpt lat="40.0713749" lon="-105.229789">
  <ele>1583.0</ele>
  <time>2026-08-28T17:48:57Z</time>
  <course>247.97</course>
  <speed>0.022360679774997897</speed>
  <fix>3d</fix>
</trkpt>
<trkpt lat="40.0713749" lon="-105.229789">
  <ele>1583.0</ele>
  <time>2026-08-28T17:48:57Z</time>
  <course>0.0</course>
  <speed>0.0</speed>
  <fix>3d</fix>
</trkpt>
<trkpt lat="40.0713749" lon="-105.229789">
  <ele>1583.0</ele>
  <time>2026-08-28T17:48:57Z</time>
  <course>247.97</course>
  <speed>0.022360679774997897</speed>
  <fix>3d</fix>
</trkpt>
<trkpt lat="40.0713749" lon="-105.229789">
  <ele>1583.0</ele>
  <time>2026-08-28T17:48:57Z</time>
  <course>0.0</course>
  <speed>0.0</speed>
  <fix>3d</fix>
</trkpt>
<trkpt lat="40.0713749" lon="-105.229789">
  <ele>1583.0</ele>
  <time>2026-08-28T17:48:57Z</time>
  <course>247.96</course>
  <speed>0.022360679774997897</speed>
  <fix>3d</fix>
</trkpt>
<trkpt lat="40.0713749" lon="-105.229789">
  <ele>1583.0</ele>
  <time>2026-08-28T17:48:57Z</time>
  <course>0.0</course>
  <speed>0.0</speed>
  <fix>3d</fix>
</trkpt>
<trkpt lat="40.0713749" lon="-105.229789">
  <ele>1583.0</ele>
  <time>2026-08-28T17:48:57Z</time>
  <course>247.96</course>
  <speed>0.022360679774997897</speed>
  <fix>3d</fix>
</trkpt>
<trkpt lat="40.0713749" lon="-105.229789">
  <ele>1583.0</ele>
  <time>2026-08-28T17:48:57Z</time>
  <course>0.0</course>
  <speed>0.0</speed>
  <fix>3d</fix>
</trkpt>
<trkpt lat="40.0713749" lon="-105.229789">
  <ele>1583.0</ele>
  <time>2026-08-28T17:48:57Z</time>
  <course>247.95</course>
  <speed>0.022360679774997897</speed>
  <fix>3d</fix>
</trkpt>
<trkpt lat="40.0713749" lon="-105.229789">
  <ele>1583.0</ele>
  <time>2026-08-28T17:48:57Z</time>
  <course>0.0</course>
  <speed>0.0</speed>
  <fix>3d</fix>
</trkpt>
<trkpt lat="40.0713749" lon="-105.229789">
  <ele>1583.0</ele>
  <time>2026-08-28T17:48:57Z</time>
  <course>247.95</course>
  <speed>0.022360679774997897</speed>
  <fix>3d</fix>
</trkpt>
<trkpt lat="40.0713749" lon="-105.229789">
  <ele>1583.0</ele>
  <time>2026-08-28T17:48:57Z</time>
  <course>0.0</course>
  <speed>0.0</speed>
  <fix>3d</fix>
</trkpt>
<trkpt lat="40.0713749" lon="-105.229789">
  <ele>1583.0</ele>
  <time>2026-08-28T17:48:57Z</time>
  <course>247.95</course>
  <speed>0.022360679774997897</speed>
  <fix>3d</fix>
</trkpt>
<trkpt lat="40.0713749" lon="-105.229789">
  <ele>1583.0</ele>
  <time>2026-08-28T17:48:57Z</time>
  <course>0.0</course>
  <speed>0.0</speed>
  <fix>3d</fix>
</trkpt>
<trkpt lat="40.0713749" lon="-105.229789">
  <ele>1583.0</ele>
  <time>2026-08-28T17:48:57Z</time>
  <course>247.94</course>
  <speed>0.022360679774997897</speed>
  <fix>3d</fix>
</trkpt>
<trkpt lat="40.0713749" lon="-105.229789">
  <ele>1583.0</ele>
  <time>2026-08-28T17:48:57Z</time>
  <course>0.0</course>
  <speed>0.0</speed>
  <fix>3d</fix>
</trkpt>
<trkpt lat="40.0713749" lon="-105.229789">
  <ele>1583.0</ele>
  <time>2026-08-28T17:48:57Z</time>
  <course>247.94</course>
  <speed>0.022360679774997897</speed>
  <fix>3d</fix>
</trkpt>
<trkpt lat="40.0713749" lon="-105.229789">
  <ele>1583.0</ele>
  <time>2026-08-28T17:48:57Z</time>
  <course>0.0</course>
  <speed>0.0</speed>
  <fix>3d</fix>
</trkpt>
<trkpt lat="40.0713749" lon="-105.229789">
  <ele>1583.0</ele>
  <time>2026-08-28T17:48:57Z</time>
  <course>247.93</course>
  <speed>0.022360679774997897</speed>
  <fix>3d</fix>
</trkpt>
<trkpt lat="40.0713749" lon="-105.229789">
  <ele>1583.0</ele>
  <time>2026-08-28T17:48:57Z</time>
  <course>0.0</course>
  <speed>0.0</speed>
  <fix>3d</fix>
</trkpt>
<trkpt lat="40.0713749" lon="-105.229789">
  <ele>1583.0</ele>
  <time>2026-08-28T17:48:57Z</time>
  <course>247.93</course>
  <speed>0.022360679774997897</speed>
  <fix>3d</fix>
</trkpt>
<trkpt lat="40.0713749" lon="-105.229789">
  <ele>1583.0</ele>
  <time>2026-08-28T17:48:57Z</time>
  <course>0.0</course>
  <speed>0.0</speed>
  <fix>3d</fix>
</trkpt>
<trkpt lat="40.0713749" lon="-105.229789">
  <ele>1583.0</ele>
  <time>2026-08-28T17:48:57Z</time>
  <course>247.92</course>
  <speed>0.022360679774997897</speed>
  <fix>3d</fix>
</trkpt>
<trkpt lat="40.0713749" lon="-105.229789">
  <ele>1583.0</ele>
  <time>2026-08-28T17:48:57Z</time>
  <course>0.0</course>
  <speed>0.0</speed>
  <fix>3d</fix>
</trkpt>
<trkpt lat="40.0713749" lon="-105.229789">
  <ele>1583.0</ele>
  <time>2026-08-28T17:48:57Z</time>
  <course>247.92</course>
  <speed>0.022360679774997897</speed>
  <fix>3d</fix>
</trkpt>
<trkpt lat="40.0713749" lon="-105.229789">
  <ele>1583.0</ele>
  <time>2026-08-28T17:48:57Z</time>
  <course>0.0</course>
  <speed>0.0</speed>
  <fix>3d</fix>
</trkpt>
<trkpt lat="40.0713749" lon="-105.229789">
  <ele>1583.0</ele>
  <time>2026-08-28T17:48:57Z</time>
  <course>247.92</course>
  <speed>0.022360679774997897</speed>
  <fix>3d</fix>
</trkpt>
<trkpt lat="40.0713749" lon="-105.229789">
  <ele>1583.0</ele>
  <time>2026-08-28T17:48:57Z</time>
  <course>0.0</course>
  <speed>0.0</speed>
  <fix>3d</fix>
</trkpt>
<trkpt lat="40.0713749" lon="-105.229789">
  <ele>1583.0</ele>
  <time>2026-08-28T17:48:57Z</time>
  <course>247.91</course>
  <speed>0.022360679774997897</speed>
  <fix>3d</fix>
</trkpt>
<trkpt lat="40.0713749" lon="-105.229789">
  <ele>1583.0</ele>
  <time>2026-08-28T17:48:57Z</time>
  <course>0.0</course>
  <speed>0.0</speed>
  <fix>3d</fix>
</trkpt>
<trkpt lat="40.0713749" lon="-105.229789">
  <ele>1583.0</ele>
  <time>2026-08-28T17:48:57Z</time>
  <course>247.91</course>
  <speed>0.022360679774997897</speed>
  <fix>3d</fix>
</trkpt>
<trkpt lat="40.0713749" lon="-105.229789">
  <ele>1583.0</ele>
  <time>2026-08-28T17:48:57Z</time>
  <course>0.0</course>
  <speed>0.0</speed>
  <fix>3d</fix>
</trkpt>
<trkpt lat="40.0713749" lon="-105.229789">
  <ele>1583.0</ele>
  <time>2026-08-28T17:48:57Z</time>
  <course>247.9</course>
  <speed>0.022360679774997897</speed>
  <fix>3d</fix>
</trkpt>
<trkpt lat="40.0713749" lon="-105.229789">
  <ele>1583.0</ele>
  <time>2026-08-28T17:48:57Z</time>
  <course>0.0</course>
  <speed>0.0</speed>
  <fix>3d</fix>
</trkpt>
<trkpt lat="40.0713749" lon="-105.229789">
  <ele>1583.0</ele>
  <time>2026-08-28T17:48:57Z</time>
  <course>247.9</course>
  <speed>0.022360679774997897</speed>
  <fix>3d</fix>
</trkpt>
<trkpt lat="40.0713749" lon="-105.229789">
  <ele>1583.0</ele>
  <time>2026-08-28T17:48:57Z</time>
  <course>0.0</course>
  <speed>0.0</speed>
  <fix>3d</fix>
</trkpt>
<trkpt lat="40.0713749" lon="-105.229789">
  <ele>1583.0</ele>
  <time>2026-08-28T17:48:57Z</time>
  <course>247.89</course>
  <speed>0.022360679774997897</speed>
  <fix>3d</fix>
</trkpt>
<trkpt lat="40.0713749" lon="-105.229789">
  <ele>1583.0</ele>
  <time>2026-08-28T17:48:57Z</time>
  <course>0.0</course>
  <speed>0.0</speed>
  <fix>3d</fix>
</trkpt>
<trkpt lat="40.0713749" lon="-105.229789">
  <ele>1583.0</ele>
  <time>2026-08-28T17:48:57Z</time>
  <course>247.89</course>
  <speed>0.022360679774997897</speed>
  <fix>3d</fix>
</trkpt>
<trkpt lat="40.0713749" lon="-105.229789">
  <ele>1583.0</ele>
  <time>2026-08-28T17:48:57Z</time>
  <course>0.0</course>
  <speed>0.0</speed>
  <fix>3d</fix>
</trkpt>
<trkpt lat="40.0713749" lon="-105.229789">
  <ele>1583.0</ele>
  <time>2026-08-28T17:48:57Z</time>
  <course>247.89</course>
  <speed>0.022360679774997897</speed>
  <fix>3d</fix>
</trkpt>
<trkpt lat="40.0713749" lon="-105.229789">
  <ele>1583.0</ele>
  <time>2026-08-28T17:48:57Z</time>
  <course>0.0</course>
  <speed>0.0</speed>
  <fix>3d</fix>
</trkpt>
<trkpt lat="40.0713749" lon="-105.229789">
  <ele>1583.0</ele>
  <time>2026-08-28T17:48:57Z</time>
  <course>247.88</course>
  <speed>0.0316227766016838</speed>
  <fix>3d</fix>
</trkpt>
<trkpt lat="40.0713749" lon="-105.229789">
  <ele>1583.0</ele>
  <time>2026-08-28T17:48:57Z</time>
  <course>0.0</course>
  <speed>0.0</speed>
  <fix>3d</fix>
</trkpt>
<trkpt lat="40.0713749" lon="-105.229789">
  <ele>1583.0</ele>
  <time>2026-08-28T17:48:57Z</time>
  <course>247.88</course>
  <speed>0.0316227766016838</speed>
  <fix>3d</fix>
</trkpt>
<trkpt lat="40.0713749" lon="-105.229789">
  <ele>1583.0</ele>
  <time>2026-08-28T17:48:57Z</time>
  <course>0.0</course>
  <speed>0.0</speed>
  <fix>3d</fix>
</trkpt>
<trkpt lat="40.0713749" lon="-105.229789">
  <ele>1583.0</ele>
  <time>2026-08-28T17:48:57Z</time>
  <course>247.87</course>
  <speed>0.0316227766016838</speed>
  <fix>3d</fix>
</trkpt>
<trkpt lat="40.0713749" lon="-105.229789">
  <ele>1583.0</ele>
  <time>2026-08-28T17:48:57Z</time>
  <course>0.0</course>
  <speed>0.0</speed>
  <fix>3d</fix>
</trkpt>
<trkpt lat="40.0713749" lon="-105.229789">
  <ele>1583.0</ele>
  <time>2026-08-28T17:48:57Z</time>
  <course>247.87</course>
  <speed>0.0316227766016838</speed>
  <fix>3d</fix>
</trkpt>
<trkpt lat="40.0713749" lon="-105.229789">
  <ele>1583.0</ele>
  <time>2026-08-28T17:48:57Z</time>
  <course>0.0</course>
  <speed>0.0</speed>
  <fix>3d</fix>
</trkpt>
<trkpt lat="40.0713749" lon="-105.229789">
  <ele>1583.0</ele>
  <time>2026-08-28T17:48:57Z</time>
  <course>247.87</course>
  <speed>0.0316227766016838</speed>
  <fix>3d</fix>
</trkpt>
<trkpt lat="40.0713749" lon="-105.229789">
  <ele>1583.0</ele>
  <time>2026-08-28T17:48:57Z</time>
  <course>0.0</course>
  <speed>0.0</speed>
  <fix>3d</fix>
</trkpt>
<trkpt lat="40.0713749" lon="-105.229789">
  <ele>1583.0</ele>
  <time>2026-08-28T17:48:57Z</time>
  <course>247.86</course>
  <speed>0.0316227766016838</speed>
  <fix>3d</fix>
</trkpt>
<trkpt lat="40.0713749" lon="-105.229789">
  <ele>1583.0</ele>
  <time>2026-08-28T17:48:57Z</time>
  <course>0.0</course>
  <speed>0.0</speed>
  <fix>3d</fix>
</trkpt>
<trkpt lat="40.0713749" lon="-105.229789">
  <ele>1583.0</ele>
  <time>2026-08-28T17:48:57Z</time>
  <course>247.86</course>
  <speed>0.0316227766016838</speed>
  <fix>3d</fix>
</trkpt>
<trkpt lat="40.0713749" lon="-105.229789">
  <ele>1583.0</ele>
  <time>2026-08-28T17:48:57Z</time>
  <course>0.0</course>
  <speed>0.0</speed>
  <fix>3d</fix>
</trkpt>
<trkpt lat="40.0713749" lon="-105.229789">
  <ele>1583.0</ele>
  <time>2026-08-28T17:48:57Z</time>
  <course>247.85</course>
  <speed>0.0316227766016838</speed>
  <fix>3d</fix>
</trkpt>
<trkpt lat="40.0713749" lon="-105.229789">
  <ele>1583.0</ele>
  <time>2026-08-28T17:48:57Z</time>
  <course>0.0</course>
  <speed>0.0</speed>
  <fix>3d</fix>
</trkpt>
<trkpt lat="40.0713749" lon="-105.229789">
  <ele>1583.0</ele>
  <time>2026-08-28T17:48:57Z</time>
  <course>247.85</course>
  <speed>0.0316227766016838</speed>
  <fix>3d</fix>
</trkpt>
<trkpt lat="40.0713749" lon="-105.229789">
  <ele>1583.0</ele>
  <time>2026-08-28T17:48:57Z</time>
  <course>0.0</course>
  <speed>0.0</speed>
  <fix>3d</fix>
</trkpt>
<trkpt lat="40.0713749" lon="-105.229789">
  <ele>1583.0</ele>
  <time>2026-08-28T17:48:57Z</time>
  <course>247.85</course>
  <speed>0.0316227766016838</speed>
  <fix>3d</fix>
</trkpt>
<trkpt lat="40.0713749" lon="-105.229789">
  <ele>1583.0</ele>
  <time>2026-08-28T17:48:57Z</time>
  <course>0.0</course>
  <speed>0.0</speed>
  <fix>3d</fix>
</trkpt>
<trkpt lat="40.0713749" lon="-105.229789">
  <ele>1583.0</ele>
  <time>2026-08-28T17:48:57Z</time>
  <course>247.84</course>
  <speed>0.0316227766016838</speed>
  <fix>3d</fix>
</trkpt>
<trkpt lat="40.0713749" lon="-105.229789">
  <ele>1583.0</ele>
  <time>2026-08-28T17:48:57Z</time>
  <course>0.0</course>
  <speed>0.0</speed>
  <fix>3d</fix>
</trkpt>
<trkpt lat="40.0713749" lon="-105.229789">
  <ele>1583.0</ele>
  <time>2026-08-28T17:48:57Z</time>
  <course>247.84</course>
  <speed>0.0316227766016838</speed>
  <fix>3d</fix>
</trkpt>
<trkpt lat="40.0713749" lon="-105.229789">
  <ele>1583.0</ele>
  <time>2026-08-28T17:48:57Z</time>
  <course>0.0</course>
  <speed>0.0</speed>
  <fix>3d</fix>
</trkpt>
<trkpt lat="40.0713749" lon="-105.229789">
  <ele>1583.0</ele>
  <time>2026-08-28T17:48:57Z</time>
  <course>247.83</course>
  <speed>0.0316227766016838</speed>
  <fix>3d</fix>
</trkpt>
<trkpt lat="40.0713749" lon="-105.229789">
  <ele>1583.0</ele>
  <time>2026-08-28T17:48:57Z</time>
  <course>0.0</course>
  <speed>0.0</speed>
  <fix>3d</fix>
</trkpt>
<trkpt lat="40.0713749" lon="-105.229789">
  <ele>1583.0</ele>
  <time>2026-08-28T17:48:57Z</time>
  <course>247.83</course>
  <speed>0.0316227766016838</speed>
  <fix>3d</fix>
</trkpt>
<trkpt lat="40.0713749" lon="-105.229789">
  <ele>1583.0</ele>
  <time>2026-08-28T17:48:57Z</time>
  <course>0.0</course>
  <speed>0.0</speed>
  <fix>3d</fix>
</trkpt>
<trkpt lat="40.0713749" lon="-105.229789">
  <ele>1583.0</ele>
  <time>2026-08-28T17:48:57Z</time>
  <course>247.83</course>
  <speed>0.0316227766016838</speed>
  <fix>3d</fix>
</trkpt>
<trkpt lat="40.0713749" lon="-105.229789">
  <ele>1583.0</ele>
  <time>2026-08-28T17:48:57Z</time>
  <course>0.0</course>
  <speed>0.0</speed>
  <fix>3d</fix>
</trkpt>
<trkpt lat="40.0713749" lon="-105.229789">
  <ele>1583.0</ele>
  <time>2026-08-28T17:48:57Z</time>
  <course>247.82</course>
  <speed>0.0316227766016838</speed>
  <fix>3d</fix>
</trkpt>
<trkpt lat="40.0713749" lon="-105.229789">
  <ele>1583.0</ele>
  <time>2026-08-28T17:48:57Z</time>
  <course>0.0</course>
  <speed>0.0</speed>
  <fix>3d</fix>
</trkpt>
<trkpt lat="40.0713749" lon="-105.229789">
  <ele>1583.0</ele>
  <time>2026-08-28T17:48:57Z</time>
  <course>247.82</course>
  <speed>0.0316227766016838</speed>
  <fix>3d</fix>
</trkpt>
<trkpt lat="40.0713749" lon="-105.229789">
  <ele>1583.0</ele>
  <time>2026-08-28T17:48:57Z</time>
  <course>0.0</course>
  <speed>0.0</speed>
  <fix>3d</fix>
</trkpt>
<trkpt lat="40.0713749" lon="-105.229789">
  <ele>1583.0</ele>
  <time>2026-08-28T17:48:57Z</time>
  <course>247.82</course>
  <speed>0.0316227766016838</speed>
  <fix>3d</fix>
</trkpt>
<trkpt lat="40.0713749" lon="-105.229789">
  <ele>1583.0</ele>
  <time>2026-08-28T17:48:57Z</time>
  <course>0.0</course>
  <speed>0.0</speed>
  <fix>3d</fix>
</trkpt>
<trkpt lat="40.0713749" lon="-105.229789">
  <ele>1583.0</ele>
  <time>2026-08-28T17:48:57Z</time>
  <course>247.81</course>
  <speed>0.0316227766016838</speed>
  <fix>3d</fix>
</trkpt>
<trkpt lat="40.0713749" lon="-105.229789">
  <ele>1583.0</ele>
  <time>2026-08-28T17:48:57Z</time>
  <course>0.0</course>
  <speed>0.0</speed>
  <fix>3d</fix>
</trkpt>
<trkpt lat="40.0713749" lon="-105.229789">
  <ele>1583.0</ele>
  <time>2026-08-28T17:48:57Z</time>
  <course>247.81</course>
  <speed>0.0316227766016838</speed>
  <fix>3d</fix>
</trkpt>
<trkpt lat="40.0713749" lon="-105.229789">
  <ele>1583.0</ele>
  <time>2026-08-28T17:48:57Z</time>
  <course>0.0</course>
  <speed>0.0</speed>
  <fix>3d</fix>
</trkpt>
<trkpt lat="40.0713749" lon="-105.229789">
  <ele>1583.0</ele>
  <time>2026-08-28T17:48:57Z</time>
  <course>247.8</course>
  <speed>0.0316227766016838</speed>
  <fix>3d</fix>
</trkpt>
<trkpt lat="40.0713749" lon="-105.229789">
  <ele>1583.0</ele>
  <time>2026-08-28T17:48:57Z</time>
  <course>0.0</course>
  <speed>0.0</speed>
  <fix>3d</fix>
</trkpt>
<trkpt lat="40.0713749" lon="-105.229789">
  <ele>1583.0</ele>
  <time>2026-08-28T17:48:57Z</time>
  <course>247.8</course>
  <speed>0.0316227766016838</speed>
  <fix>3d</fix>
</trkpt>
<trkpt lat="40.0713749" lon="-105.229789">
  <ele>1583.0</ele>
  <time>2026-08-28T17:48:57Z</time>
  <course>0.0</course>
  <speed>0.0</speed>
  <fix>3d</fix>
</trkpt>
<trkpt lat="40.0713749" lon="-105.229789">
  <ele>1583.0</ele>
  <time>2026-08-28T17:48:57Z</time>
  <course>247.8</course>
  <speed>0.0316227766016838</speed>
  <fix>3d</fix>
</trkpt>
<trkpt lat="40.0713749" lon="-105.229789">
  <ele>1583.0</ele>
  <time>2026-08-28T17:48:57Z</time>
  <course>0.0</course>
  <speed>0.0</speed>
  <fix>3d</fix>
</trkpt>
<trkpt lat="40.0713749" lon="-105.229789">
  <ele>1583.0</ele>
  <time>2026-08-28T17:48:57Z</time>
  <course>247.79</course>
  <speed>0.0316227766016838</speed>
  <fix>3d</fix>
</trkpt>
<trkpt lat="40.0713749" lon="-105.229789">
  <ele>1583.0</ele>
  <time>2026-08-28T17:48:57Z</time>
  <course>0.0</course>
  <speed>0.0</speed>
  <fix>3d</fix>
</trkpt>
<trkpt lat="40.0713749" lon="-105.229789">
  <ele>1583.0</ele>
  <time>2026-08-28T17:48:57Z</time>
  <course>247.79</course>
  <speed>0.0316227766016838</speed>
  <fix>3d</fix>
</trkpt>
<trkpt lat="40.0713749" lon="-105.229789">
  <ele>1583.0</ele>
  <time>2026-08-28T17:48:57Z</time>
  <course>0.0</course>
  <speed>0.0</speed>
  <fix>3d</fix>
</trkpt>
<trkpt lat="40.0713749" lon="-105.229789">
  <ele>1583.0</ele>
  <time>2026-08-28T17:48:57Z</time>
  <course>247.79</course>
  <speed>0.0316227766016838</speed>
  <fix>3d</fix>
</trkpt>
<trkpt lat="40.0713749" lon="-105.229789">
  <ele>1583.0</ele>
  <time>2026-08-28T17:48:57Z</time>
  <course>0.0</course>
  <speed>0.0</speed>
  <fix>3d</fix>
</trkpt>
<trkpt lat="40.0713749" lon="-105.229789">
  <ele>1583.0</ele>
  <time>2026-08-28T17:48:57Z</time>
  <course>247.78</course>
  <speed>0.0316227766016838</speed>
  <fix>3d</fix>
</trkpt>
<trkpt lat="40.0713749" lon="-105.229789">
  <ele>1583.0</ele>
  <time>2026-08-28T17:48:57Z</time>
  <course>0.0</course>
  <speed>0.0</speed>
  <fix>3d</fix>
</trkpt>
<trkpt lat="40.0713749" lon="-105.229789">
  <ele>1583.0</ele>
  <time>2026-08-28T17:48:57Z</time>
  <course>247.78</course>
  <speed>0.0316227766016838</speed>
  <fix>3d</fix>
</trkpt>
<trkpt lat="40.0713749" lon="-105.229789">
  <ele>1583.0</ele>
  <time>2026-08-28T17:48:57Z</time>
  <course>0.0</course>
  <speed>0.0</speed>
  <fix>3d</fix>
</trkpt>
<trkpt lat="40.0713749" lon="-105.229789">
  <ele>1583.0</ele>
  <time>2026-08-28T17:48:57Z</time>
  <course>247.78</course>
  <speed>0.0316227766016838</speed>
  <fix>3d</fix>
</trkpt>
<trkpt lat="40.0713749" lon="-105.229789">
  <ele>1583.0</ele>
  <time>2026-08-28T17:48:57Z</time>
  <course>0.0</course>
  <speed>0.0</speed>
  <fix>3d</fix>
</trkpt>
<trkpt lat="40.0713749" lon="-105.229789">
  <ele>1583.0</ele>
  <time>2026-08-28T17:48:57Z</time>
  <course>247.77</course>
  <speed>0.0316227766016838</speed>
  <fix>3d</fix>
</trkpt>
<trkpt lat="40.0713749" lon="-105.229789">
  <ele>1583.0</ele>
  <time>2026-08-28T17:48:57Z</time>
  <course>0.0</course>
  <speed>0.0</speed>
  <fix>3d</fix>
</trkpt>
<trkpt lat="40.0713749" lon="-105.229789">
  <ele>1583.0</ele>
  <time>2026-08-28T17:48:57Z</time>
  <course>247.77</course>
  <speed>0.0316227766016838</speed>
  <fix>3d</fix>
</trkpt>
<trkpt lat="40.0713749" lon="-105.229789">
  <ele>1583.0</ele>
  <time>2026-08-28T17:48:57Z</time>
  <course>0.0</course>
  <speed>0.0</speed>
  <fix>3d</fix>
</trkpt>
<trkpt lat="40.0713749" lon="-105.229789">
  <ele>1583.0</ele>
  <time>2026-08-28T17:48:57Z</time>
  <course>247.76</course>
  <speed>0.0316227766016838</speed>
  <fix>3d</fix>
</trkpt>
<trkpt lat="40.0713749" lon="-105.229789">
  <ele>1583.0</ele>
  <time>2026-08-28T17:48:57Z</time>
  <course>0.0</course>
  <speed>0.0</speed>
  <fix>3d</fix>
</trkpt>
<trkpt lat="40.0713749" lon="-105.229789">
  <ele>1583.0</ele>
  <time>2026-08-28T17:48:57Z</time>
  <course>247.76</course>
  <speed>0.0316227766016838</speed>
  <fix>3d</fix>
</trkpt>
<trkpt lat="40.0713749" lon="-105.229789">
  <ele>1583.0</ele>
  <time>2026-08-28T17:48:57Z</time>
  <course>0.0</course>
  <speed>0.0</speed>
  <fix>3d</fix>
</trkpt>
<trkpt lat="40.0713749" lon="-105.229789">
  <ele>1583.0</ele>
  <time>2026-08-28T17:48:57Z</time>
  <course>247.76</course>
  <speed>0.0316227766016838</speed>
  <fix>3d</fix>
</trkpt>
<trkpt lat="40.0713749" lon="-105.229789">
  <ele>1583.0</ele>
  <time>2026-08-28T17:48:57Z</time>
  <course>0.0</course>
  <speed>0.0</speed>
  <fix>3d</fix>
</trkpt>
<trkpt lat="40.0713749" lon="-105.229789">
  <ele>1583.0</ele>
  <time>2026-08-28T17:48:57Z</time>
  <course>247.75</course>
  <speed>0.0316227766016838</speed>
  <fix>3d</fix>
</trkpt>
<trkpt lat="40.0713749" lon="-105.229789">
  <ele>1583.0</ele>
  <time>2026-08-28T17:48:57Z</time>
  <course>0.0</course>
  <speed>0.0</speed>
  <fix>3d</fix>
</trkpt>
<trkpt lat="40.0713749" lon="-105.229789">
  <ele>1583.0</ele>
  <time>2026-08-28T17:48:57Z</time>
  <course>247.75</course>
  <speed>0.0316227766016838</speed>
  <fix>3d</fix>
</trkpt>
<trkpt lat="40.0713749" lon="-105.229789">
  <ele>1583.0</ele>
  <time>2026-08-28T17:48:57Z</time>
  <course>0.0</course>
  <speed>0.0</speed>
  <fix>3d</fix>
</trkpt>
<trkpt lat="40.0713749" lon="-105.229789">
  <ele>1583.0</ele>
  <time>2026-08-28T17:48:57Z</time>
  <course>247.75</course>
  <speed>0.0316227766016838</speed>
  <fix>3d</fix>
</trkpt>
<trkpt lat="40.0713749" lon="-105.229789">
  <ele>1583.0</ele>
  <time>2026-08-28T17:48:57Z</time>
  <course>0.0</course>
  <speed>0.0</speed>
  <fix>3d</fix>
</trkpt>
<trkpt lat="40.0713749" lon="-105.229789">
  <ele>1583.0</ele>
  <time>2026-08-28T17:48:57Z</time>
  <course>247.74</course>
  <speed>0.0316227766016838</speed>
  <fix>3d</fix>
</trkpt>
<trkpt lat="40.0713749" lon="-105.229789">
  <ele>1583.0</ele>
  <time>2026-08-28T17:48:57Z</time>
  <course>0.0</course>
  <speed>0.0</speed>
  <fix>3d</fix>
</trkpt>
<trkpt lat="40.0713749" lon="-105.229789">
  <ele>1583.0</ele>
  <time>2026-08-28T17:48:57Z</time>
  <course>247.74</course>
  <speed>0.0316227766016838</speed>
  <fix>3d</fix>
</trkpt>
<trkpt lat="40.0713749" lon="-105.229789">
  <ele>1583.0</ele>
  <time>2026-08-28T17:48:57Z</time>
  <course>0.0</course>
  <speed>0.0</speed>
  <fix>3d</fix>
</trkpt>
<trkpt lat="40.0713749" lon="-105.229789">
  <ele>1583.0</ele>
  <time>2026-08-28T17:48:57Z</time>
  <course>247.74</course>
  <speed>0.0316227766016838</speed>
  <fix>3d</fix>
</trkpt>
<trkpt lat="40.0713749" lon="-105.229789">
  <ele>1583.0</ele>
  <time>2026-08-28T17:48:57Z</time>
  <course>0.0</course>
  <speed>0.0</speed>
  <fix>3d</fix>
</trkpt>
<trkpt lat="40.0713749" lon="-105.229789">
  <ele>1583.0</ele>
  <time>2026-08-28T17:48:57Z</time>
  <course>247.73</course>
  <speed>0.0316227766016838</speed>
  <fix>3d</fix>
</trkpt>
<trkpt lat="40.0713749" lon="-105.229789">
  <ele>1583.0</ele>
  <time>2026-08-28T17:48:57Z</time>
  <course>0.0</course>
  <speed>0.0</speed>
  <fix>3d</fix>
</trkpt>
<trkpt lat="40.0713749" lon="-105.229789">
  <ele>1583.0</ele>
  <time>2026-08-28T17:48:57Z</time>
  <course>247.73</course>
  <speed>0.0316227766016838</speed>
  <fix>3d</fix>
</trkpt>
<trkpt lat="40.0713749" lon="-105.229789">
  <ele>1583.0</ele>
  <time>2026-08-28T17:48:57Z</time>
  <course>0.0</course>
  <speed>0.0</speed>
  <fix>3d</fix>
</trkpt>
<trkpt lat="40.0713749" lon="-105.229789">
  <ele>1583.0</ele>
  <time>2026-08-28T17:48:57Z</time>
  <course>247.73</course>
  <speed>0.0316227766016838</speed>
  <fix>3d</fix>
</trkpt>
<trkpt lat="40.0713749" lon="-105.229789">
  <ele>1583.0</ele>
  <time>2026-08-28T17:48:57Z</time>
  <course>0.0</course>
  <speed>0.0</speed>
  <fix>3d</fix>
</trkpt>
<trkpt lat="40.0713749" lon="-105.229789">
  <ele>1583.0</ele>
  <time>2026-08-28T17:48:57Z</time>
  <course>247.72</course>
  <speed>0.0316227766016838</speed>
  <fix>3d</fix>
</trkpt>
<trkpt lat="40.0713749" lon="-105.229789">
  <ele>1583.0</ele>
  <time>2026-08-28T17:48:57Z</time>
  <course>0.0</course>
  <speed>0.0</speed>
  <fix>3d</fix>
</trkpt>
<trkpt lat="40.0713749" lon="-105.229789">
  <ele>1583.0</ele>
  <time>2026-08-28T17:48:57Z</time>
  <course>247.72</course>
  <speed>0.0316227766016838</speed>
  <fix>3d</fix>
</trkpt>
<trkpt lat="40.0713749" lon="-105.229789">
  <ele>1583.0</ele>
  <time>2026-08-28T17:48:57Z</time>
  <course>0.0</course>
  <speed>0.0</speed>
  <fix>3d</fix>
</trkpt>
<trkpt lat="40.0713749" lon="-105.229789">
  <ele>1583.0</ele>
  <time>2026-08-28T17:48:57Z</time>
  <course>247.72</course>
  <speed>0.0316227766016838</speed>
  <fix>3d</fix>
</trkpt>
<trkpt lat="40.0713749" lon="-105.229789">
  <ele>1583.0</ele>
  <time>2026-08-28T17:48:57Z</time>
  <course>0.0</course>
  <speed>0.0</speed>
  <fix>3d</fix>
</trkpt>
<trkpt lat="40.0713749" lon="-105.229789">
  <ele>1583.0</ele>
  <time>2026-08-28T17:48:57Z</time>
  <course>247.71</course>
  <speed>0.0316227766016838</speed>
  <fix>3d</fix>
</trkpt>
<trkpt lat="40.0713749" lon="-105.229789">
  <ele>1583.0</ele>
  <time>2026-08-28T17:48:57Z</time>
  <course>0.0</course>
  <speed>0.0</speed>
  <fix>3d</fix>
</trkpt>
<trkpt lat="40.0713749" lon="-105.229789">
  <ele>1583.0</ele>
  <time>2026-08-28T17:48:57Z</time>
  <course>247.71</course>
  <speed>0.0316227766016838</speed>
  <fix>3d</fix>
</trkpt>
<trkpt lat="40.0713749" lon="-105.229789">
  <ele>1583.0</ele>
  <time>2026-08-28T17:48:57Z</time>
  <course>0.0</course>
  <speed>0.0</speed>
  <fix>3d</fix>
</trkpt>
<trkpt lat="40.0713749" lon="-105.229789">
  <ele>1583.0</ele>
  <time>2026-08-28T17:48:57Z</time>
  <course>247.71</course>
  <speed>0.0316227766016838</speed>
  <fix>3d</fix>
</trkpt>
<trkpt lat="40.0713749" lon="-105.229789">
  <ele>1583.0</ele>
  <time>2026-08-28T17:48:57Z</time>
  <course>0.0</course>
  <speed>0.0</speed>
  <fix>3d</fix>
</trkpt>
<trkpt lat="40.0713749" lon="-105.229789">
  <ele>1583.0</ele>
  <time>2026-08-28T17:48:57Z</time>
  <course>247.7</course>
  <speed>0.0316227766016838</speed>
  <fix>3d</fix>
</trkpt>
<trkpt lat="40.0713749" lon="-105.229789">
  <ele>1583.0</ele>
  <time>2026-08-28T17:48:57Z</time>
  <course>0.0</course>
  <speed>0.0</speed>
  <fix>3d</fix>
</trkpt>
<trkpt lat="40.0713749" lon="-105.229789">
  <ele>1583.0</ele>
  <time>2026-08-28T17:48:57Z</time>
  <course>247.7</course>
  <speed>0.0316227766016838</speed>
  <fix>3d</fix>
</trkpt>
<trkpt lat="40.0713749" lon="-105.229789">
  <ele>1583.0</ele>
  <time>2026-08-28T17:48:57Z</time>
  <course>0.0</course>
  <speed>0.0</speed>
  <fix>3d</fix>
</trkpt>
<trkpt lat="40.0713749" lon="-105.229789">
  <ele>1583.0</ele>
  <time>2026-08-28T17:48:57Z</time>
  <course>247.7</course>
  <speed>0.0316227766016838</speed>
  <fix>3d</fix>
</trkpt>
<trkpt lat="40.0713749" lon="-105.229789">
  <ele>1583.0</ele>
  <time>2026-08-28T17:48:57Z</time>
  <course>0.0</course>
  <speed>0.0</speed>
  <fix>3d</fix>
</trkpt>
<trkpt lat="40.0713749" lon="-105.229789">
  <ele>1583.0</ele>
  <time>2026-08-28T17:48:57Z</time>
  <course>247.69</course>
  <speed>0.0316227766016838</speed>
  <fix>3d</fix>
</trkpt>
<trkpt lat="40.0713749" lon="-105.229789">
  <ele>1583.0</ele>
  <time>2026-08-28T17:48:57Z</time>
  <course>0.0</course>
  <speed>0.0</speed>
  <fix>3d</fix>
</trkpt>
<trkpt lat="40.0713749" lon="-105.229789">
  <ele>1583.0</ele>
  <time>2026-08-28T17:48:57Z</time>
  <course>247.69</course>
  <speed>0.0316227766016838</speed>
  <fix>3d</fix>
</trkpt>
<trkpt lat="40.0713749" lon="-105.229789">
  <ele>1583.0</ele>
  <time>2026-08-28T17:48:57Z</time>
  <course>0.0</course>
  <speed>0.0</speed>
  <fix>3d</fix>
</trkpt>
<trkpt lat="40.0713749" lon="-105.229789">
  <ele>1583.0</ele>
  <time>2026-08-28T17:48:57Z</time>
  <course>247.69</course>
  <speed>0.0316227766016838</speed>
  <fix>3d</fix>
</trkpt>
<trkpt lat="40.0713749" lon="-105.229789">
  <ele>1583.0</ele>
  <time>2026-08-28T17:48:57Z</time>
  <course>0.0</course>
  <speed>0.0</speed>
  <fix>3d</fix>
</trkpt>
<trkpt lat="40.0713749" lon="-105.229789">
  <ele>1583.0</ele>
  <time>2026-08-28T17:48:57Z</time>
  <course>247.68</course>
  <speed>0.0316227766016838</speed>
  <fix>3d</fix>
</trkpt>
<trkpt lat="40.0713749" lon="-105.229789">
  <ele>1583.0</ele>
  <time>2026-08-28T17:48:57Z</time>
  <course>0.0</course>
  <speed>0.0</speed>
  <fix>3d</fix>
</trkpt>
<trkpt lat="40.0713749" lon="-105.229789">
  <ele>1583.0</ele>
  <time>2026-08-28T17:48:57Z</time>
  <course>247.68</course>
  <speed>0.0316227766016838</speed>
  <fix>3d</fix>
</trkpt>
<trkpt lat="40.0713749" lon="-105.229789">
  <ele>1583.0</ele>
  <time>2026-08-28T17:48:57Z</time>
  <course>0.0</course>
  <speed>0.0</speed>
  <fix>3d</fix>
</trkpt>
<trkpt lat="40.0713749" lon="-105.229789">
  <ele>1583.0</ele>
  <time>2026-08-28T17:48:57Z</time>
  <course>247.68</course>
  <speed>0.0316227766016838</speed>
  <fix>3d</fix>
</trkpt>
<trkpt lat="40.0713749" lon="-105.229789">
  <ele>1583.0</ele>
  <time>2026-08-28T17:48:57Z</time>
  <course>0.0</course>
  <speed>0.0</speed>
  <fix>3d</fix>
</trkpt>
<trkpt lat="40.0713749" lon="-105.229789">
  <ele>1583.0</ele>
  <time>2026-08-28T17:48:57Z</time>
  <course>247.67</course>
  <speed>0.0316227766016838</speed>
  <fix>3d</fix>
</trkpt>
<trkpt lat="40.0713749" lon="-105.229789">
  <ele>1583.0</ele>
  <time>2026-08-28T17:48:57Z</time>
  <course>0.0</course>
  <speed>0.0</speed>
  <fix>3d</fix>
</trkpt>
<trkpt lat="40.0713749" lon="-105.229789">
  <ele>1583.0</ele>
  <time>2026-08-28T17:48:57Z</time>
  <course>247.67</course>
  <speed>0.0316227766016838</speed>
  <fix>3d</fix>
</trkpt>
<trkpt lat="40.0713749" lon="-105.229789">
  <ele>1583.0</ele>
  <time>2026-08-28T17:48:57Z</time>
  <course>0.0</course>
  <speed>0.0</speed>
  <fix>3d</fix>
</trkpt>
<trkpt lat="40.0713749" lon="-105.229789">
  <ele>1583.0</ele>
  <time>2026-08-28T17:48:57Z</time>
  <course>247.67</course>
  <speed>0.0316227766016838</speed>
  <fix>3d</fix>
</trkpt>
<trkpt lat="40.0713749" lon="-105.229789">
  <ele>1583.0</ele>
  <time>2026-08-28T17:48:57Z</time>
  <course>0.0</course>
  <speed>0.0</speed>
  <fix>3d</fix>
</trkpt>
<trkpt lat="40.0713749" lon="-105.229789">
  <ele>1583.0</ele>
  <time>2026-08-28T17:48:57Z</time>
  <course>247.66</course>
  <speed>0.0316227766016838</speed>
  <fix>3d</fix>
</trkpt>
<trkpt lat="40.0713749" lon="-105.229789">
  <ele>1583.0</ele>
  <time>2026-08-28T17:48:57Z</time>
  <course>0.0</course>
  <speed>0.0</speed>
  <fix>3d</fix>
</trkpt>
<trkpt lat="40.0713749" lon="-105.229789">
  <ele>1583.0</ele>
  <time>2026-08-28T17:48:57Z</time>
  <course>247.66</course>
  <speed>0.0316227766016838</speed>
  <fix>3d</fix>
</trkpt>
<trkpt lat="40.0713749" lon="-105.229789">
  <ele>1583.0</ele>
  <time>2026-08-28T17:48:57Z</time>
  <course>0.0</course>
  <speed>0.0</speed>
  <fix>3d</fix>
</trkpt>
<trkpt lat="40.0713749" lon="-105.229789">
  <ele>1583.0</ele>
  <time>2026-08-28T17:48:57Z</time>
  <course>247.66</course>
  <speed>0.0316227766016838</speed>
  <fix>3d</fix>
</trkpt>
<trkpt lat="40.0713749" lon="-105.229789">
  <ele>1583.0</ele>
  <time>2026-08-28T17:48:57Z</time>
  <course>0.0</course>
  <speed>0.0</speed>
  <fix>3d</fix>
</trkpt>
<trkpt lat="40.0713749" lon="-105.229789">
  <ele>1583.0</ele>
  <time>2026-08-28T17:48:57Z</time>
  <course>247.65</course>
  <speed>0.0316227766016838</speed>
  <fix>3d</fix>
</trkpt>
<trkpt lat="40.0713749" lon="-105.229789">
  <ele>1583.0</ele>
  <time>2026-08-28T17:48:57Z</time>
  <course>0.0</course>
  <speed>0.0</speed>
  <fix>3d</fix>
</trkpt>
<trkpt lat="40.0713749" lon="-105.229789">
  <ele>1583.0</ele>
  <time>2026-08-28T17:48:57Z</time>
  <course>247.65</course>
  <speed>0.0316227766016838</speed>
  <fix>3d</fix>
</trkpt>
<trkpt lat="40.0713749" lon="-105.229789">
  <ele>1583.0</ele>
  <time>2026-08-28T17:48:57Z</time>
  <course>0.0</course>
  <speed>0.0</speed>
  <fix>3d</fix>
</trkpt>
<trkpt lat="40.0713749" lon="-105.229789">
  <ele>1583.0</ele>
  <time>2026-08-28T17:48:57Z</time>
  <course>247.65</course>
  <speed>0.0316227766016838</speed>
  <fix>3d</fix>
</trkpt>
<trkpt lat="40.0713749" lon="-105.229789">
  <ele>1583.0</ele>
  <time>2026-08-28T17:48:57Z</time>
  <course>0.0</course>
  <speed>0.0</speed>
  <fix>3d</fix>
</trkpt>
<trkpt lat="40.0713749" lon="-105.229789">
  <ele>1583.0</ele>
  <time>2026-08-28T17:48:57Z</time>
  <course>247.64</course>
  <speed>0.0316227766016838</speed>
  <fix>3d</fix>
</trkpt>
<trkpt lat="40.0713749" lon="-105.229789">
  <ele>1583.0</ele>
  <time>2026-08-28T17:48:57Z</time>
  <course>0.0</course>
  <speed>0.0</speed>
  <fix>3d</fix>
</trkpt>
<trkpt lat="40.0713749" lon="-105.229789">
  <ele>1583.0</ele>
  <time>2026-08-28T17:48:57Z</time>
  <course>247.64</course>
  <speed>0.0316227766016838</speed>
  <fix>3d</fix>
</trkpt>
<trkpt lat="40.0713749" lon="-105.229789">
  <ele>1583.0</ele>
  <time>2026-08-28T17:48:57Z</time>
  <course>0.0</course>
  <speed>0.0</speed>
  <fix>3d</fix>
</trkpt>
<trkpt lat="40.0713749" lon="-105.229789">
  <ele>1583.0</ele>
  <time>2026-08-28T17:48:57Z</time>
  <course>247.64</course>
  <speed>0.0316227766016838</speed>
  <fix>3d</fix>
</trkpt>
<trkpt lat="40.0713749" lon="-105.229789">
  <ele>1583.0</ele>
  <time>2026-08-28T17:48:57Z</time>
  <course>0.0</course>
  <speed>0.0</speed>
  <fix>3d</fix>
</trkpt>
<trkpt lat="40.0713749" lon="-105.229789">
  <ele>1583.0</ele>
  <time>2026-08-28T17:48:57Z</time>
  <course>247.64</course>
  <speed>0.0316227766016838</speed>
  <fix>3d</fix>
</trkpt>
<trkpt lat="40.0713749" lon="-105.229789">
  <ele>1583.0</ele>
  <time>2026-08-28T17:48:57Z</time>
  <course>0.0</course>
  <speed>0.0</speed>
  <fix>3d</fix>
</trkpt>
<trkpt lat="40.0713749" lon="-105.229789">
  <ele>1583.0</ele>
  <time>2026-08-28T17:48:57Z</time>
  <course>247.63</course>
  <speed>0.0316227766016838</speed>
  <fix>3d</fix>
</trkpt>
<trkpt lat="40.0713749" lon="-105.229789">
  <ele>1583.0</ele>
  <time>2026-08-28T17:48:57Z</time>
  <course>0.0</course>
  <speed>0.0</speed>
  <fix>3d</fix>
</trkpt>
<trkpt lat="40.0713749" lon="-105.229789">
  <ele>1583.0</ele>
  <time>2026-08-28T17:48:57Z</time>
  <course>247.63</course>
  <speed>0.0316227766016838</speed>
  <fix>3d</fix>
</trkpt>
<trkpt lat="40.0713749" lon="-105.229789">
  <ele>1583.0</ele>
  <time>2026-08-28T17:48:57Z</time>
  <course>0.0</course>
  <speed>0.0</speed>
  <fix>3d</fix>
</trkpt>
<trkpt lat="40.0713749" lon="-105.229789">
  <ele>1583.0</ele>
  <time>2026-08-28T17:48:57Z</time>
  <course>247.63</course>
  <speed>0.0316227766016838</speed>
  <fix>3d</fix>
</trkpt>
<trkpt lat="40.0713749" lon="-105.229789">
  <ele>1583.0</ele>
  <time>2026-08-28T17:48:57Z</time>
  <course>0.0</course>
  <speed>0.0</speed>
  <fix>3d</fix>
</trkpt>
<trkpt lat="40.0713749" lon="-105.229789">
  <ele>1583.0</ele>
  <time>2026-08-28T17:48:57Z</time>
  <course>247.62</course>
  <speed>0.0316227766016838</speed>
  <fix>3d</fix>
</trkpt>
<trkpt lat="40.0713749" lon="-105.229789">
  <ele>1583.0</ele>
  <time>2026-08-28T17:48:57Z</time>
  <course>0.0</course>
  <speed>0.0</speed>
  <fix>3d</fix>
</trkpt>
<trkpt lat="40.0713749" lon="-105.229789">
  <ele>1583.0</ele>
  <time>2026-08-28T17:48:57Z</time>
  <course>247.62</course>
  <speed>0.0316227766016838</speed>
  <fix>3d</fix>
</trkpt>
<trkpt lat="40.0713749" lon="-105.229789">
  <ele>1583.0</ele>
  <time>2026-08-28T17:48:57Z</time>
  <course>0.0</course>
  <speed>0.0</speed>
  <fix>3d</fix>
</trkpt>
<trkpt lat="40.0713749" lon="-105.229789">
  <ele>1583.0</ele>
  <time>2026-08-28T17:48:57Z</time>
  <course>247.62</course>
  <speed>0.0316227766016838</speed>
  <fix>3d</fix>
</trkpt>
<trkpt lat="40.0713749" lon="-105.229789">
  <ele>1583.0</ele>
  <time>2026-08-28T17:48:57Z</time>
  <course>0.0</course>
  <speed>0.0</speed>
  <fix>3d</fix>
</trkpt>
<trkpt lat="40.0713749" lon="-105.229789">
  <ele>1583.0</ele>
  <time>2026-08-28T17:48:57Z</time>
  <course>247.62</course>
  <speed>0.0316227766016838</speed>
  <fix>3d</fix>
</trkpt>
<trkpt lat="40.0713749" lon="-105.229789">
  <ele>1583.0</ele>
  <time>2026-08-28T17:48:57Z</time>
  <course>0.0</course>
  <speed>0.0</speed>
  <fix>3d</fix>
</trkpt>
<trkpt lat="40.0713749" lon="-105.229789">
  <ele>1583.0</ele>
  <time>2026-08-28T17:48:57Z</time>
  <course>247.61</course>
  <speed>0.0316227766016838</speed>
  <fix>3d</fix>
</trkpt>
<trkpt lat="40.0713749" lon="-105.229789">
  <ele>1583.0</ele>
  <time>2026-08-28T17:48:57Z</time>
  <course>0.0</course>
  <speed>0.0</speed>
  <fix>3d</fix>
</trkpt>
<trkpt lat="40.0713749" lon="-105.229789">
  <ele>1583.0</ele>
  <time>2026-08-28T17:48:57Z</time>
  <course>247.61</course>
  <speed>0.0316227766016838</speed>
  <fix>3d</fix>
</trkpt>
<trkpt lat="40.0713749" lon="-105.229789">
  <ele>1583.0</ele>
  <time>2026-08-28T17:48:57Z</time>
  <course>0.0</course>
  <speed>0.0</speed>
  <fix>3d</fix>
</trkpt>
<trkpt lat="40.0713749" lon="-105.229789">
  <ele>1583.0</ele>
  <time>2026-08-28T17:48:57Z</time>
  <course>247.61</course>
  <speed>0.0316227766016838</speed>
  <fix>3d</fix>
</trkpt>
<trkpt lat="40.0713749" lon="-105.229789">
  <ele>1583.0</ele>
  <time>2026-08-28T17:48:57Z</time>
  <course>0.0</course>
  <speed>0.0</speed>
  <fix>3d</fix>
</trkpt>
<trkpt lat="40.0713749" lon="-105.229789">
  <ele>1583.0</ele>
  <time>2026-08-28T17:48:57Z</time>
  <course>247.6</course>
  <speed>0.0316227766016838</speed>
  <fix>3d</fix>
</trkpt>
<trkpt lat="40.0713749" lon="-105.229789">
  <ele>1583.0</ele>
  <time>2026-08-28T17:48:57Z</time>
  <course>0.0</course>
  <speed>0.0</speed>
  <fix>3d</fix>
</trkpt>
<trkpt lat="40.0713749" lon="-105.229789">
  <ele>1583.0</ele>
  <time>2026-08-28T17:48:57Z</time>
  <course>247.6</course>
  <speed>0.0316227766016838</speed>
  <fix>3d</fix>
</trkpt>
<trkpt lat="40.0713749" lon="-105.229789">
  <ele>1583.0</ele>
  <time>2026-08-28T17:48:57Z</time>
  <course>0.0</course>
  <speed>0.0</speed>
  <fix>3d</fix>
</trkpt>
<trkpt lat="40.0713749" lon="-105.229789">
  <ele>1583.0</ele>
  <time>2026-08-28T17:48:57Z</time>
  <course>247.6</course>
  <speed>0.0316227766016838</speed>
  <fix>3d</fix>
</trkpt>
<trkpt lat="40.0713749" lon="-105.229789">
  <ele>1583.0</ele>
  <time>2026-08-28T17:48:57Z</time>
  <course>0.0</course>
  <speed>0.0</speed>
  <fix>3d</fix>
</trkpt>
<trkpt lat="40.0713749" lon="-105.229789">
  <ele>1583.0</ele>
  <time>2026-08-28T17:48:57Z</time>
  <course>247.6</course>
  <speed>0.0316227766016838</speed>
  <fix>3d</fix>
</trkpt>
<trkpt lat="40.0713749" lon="-105.229789">
  <ele>1583.0</ele>
  <time>2026-08-28T17:48:57Z</time>
  <course>0.0</course>
  <speed>0.0</speed>
  <fix>3d</fix>
</trkpt>
<trkpt lat="40.0713749" lon="-105.229789">
  <ele>1583.0</ele>
  <time>2026-08-28T17:48:57Z</time>
  <course>247.59</course>
  <speed>0.0316227766016838</speed>
  <fix>3d</fix>
</trkpt>
<trkpt lat="40.0713749" lon="-105.229789">
  <ele>1583.0</ele>
  <time>2026-08-28T17:48:57Z</time>
  <course>0.0</course>
  <speed>0.0</speed>
  <fix>3d</fix>
</trkpt>
<trkpt lat="40.0713749" lon="-105.229789">
  <ele>1582.92</ele>
  <time>2026-08-28T17:48:57Z</time>
  <course>247.59</course>
  <speed>0.0</speed>
  <fix>3d</fix>
</trkpt>
<trkpt lat="40.0713749" lon="-105.229789">
  <ele>1583.0</ele>
  <time>2026-08-28T17:48:57Z</time>
  <course>0.0</course>
  <speed>0.0</speed>
  <fix>3d</fix>
</trkpt>
<trkpt lat="40.0713749" lon="-105.229789">
  <ele>1582.92</ele>
  <time>2026-08-28T17:48:57Z</time>
  <course>247.59</course>
  <speed>0.0</speed>
  <fix>3d</fix>
</trkpt>
<trkpt lat="40.0713749" lon="-105.229789">
  <ele>1583.0</ele>
  <time>2026-08-28T17:48:57Z</time>
  <course>0.0</course>
  <speed>0.0</speed>
  <fix>3d</fix>
</trkpt>
<trkpt lat="40.0713749" lon="-105.229789">
  <ele>1582.91</ele>
  <time>2026-08-28T17:48:57Z</time>
  <course>247.58</course>
  <speed>0.0</speed>
  <fix>3d</fix>
</trkpt>
<trkpt lat="40.0713749" lon="-105.229789">
  <ele>1583.0</ele>
  <time>2026-08-28T17:48:57Z</time>
  <course>0.0</course>
  <speed>0.0</speed>
  <fix>3d</fix>
</trkpt>
<trkpt lat="40.0713749" lon="-105.229789">
  <ele>1582.91</ele>
  <time>2026-08-28T17:48:57Z</time>
  <course>247.58</course>
  <speed>0.0</speed>
  <fix>3d</fix>
</trkpt>
<trkpt lat="40.0713749" lon="-105.229789">
  <ele>1583.0</ele>
  <time>2026-08-28T17:48:57Z</time>
  <course>0.0</course>
  <speed>0.0</speed>
  <fix>3d</fix>
</trkpt>
<trkpt lat="40.0713749" lon="-105.229789">
  <ele>1582.9</ele>
  <time>2026-08-28T17:48:57Z</time>
  <course>247.58</course>
  <speed>0.0</speed>
  <fix>3d</fix>
</trkpt>
<trkpt lat="40.0713749" lon="-105.229789">
  <ele>1583.0</ele>
  <time>2026-08-28T17:48:57Z</time>
  <course>0.0</course>
  <speed>0.0</speed>
  <fix>3d</fix>
</trkpt>
<trkpt lat="40.0713749" lon="-105.229789">
  <ele>1582.9</ele>
  <time>2026-08-28T17:48:57Z</time>
  <course>247.58</course>
  <speed>0.0</speed>
  <fix>3d</fix>
</trkpt>
<trkpt lat="40.0713749" lon="-105.229789">
  <ele>1583.0</ele>
  <time>2026-08-28T17:48:57Z</time>
  <course>0.0</course>
  <speed>0.0</speed>
  <fix>3d</fix>
</trkpt>
<trkpt lat="40.0713749" lon="-105.229789">
  <ele>1582.9</ele>
  <time>2026-08-28T17:48:57Z</time>
  <course>247.57</course>
  <speed>0.0</speed>
  <fix>3d</fix>
</trkpt>
<trkpt lat="40.0713749" lon="-105.229789">
  <ele>1583.0</ele>
  <time>2026-08-28T17:48:57Z</time>
  <course>0.0</course>
  <speed>0.0</speed>
  <fix>3d</fix>
</trkpt>
<trkpt lat="40.0713749" lon="-105.229789">
  <ele>1582.9</ele>
  <time>2026-08-28T17:48:57Z</time>
  <course>247.57</course>
  <speed>0.0</speed>
  <fix>3d</fix>
</trkpt>
<trkpt lat="40.0713749" lon="-105.229789">
  <ele>1583.0</ele>
  <time>2026-08-28T17:48:57Z</time>
  <course>0.0</course>
  <speed>0.0</speed>
  <fix>3d</fix>
</trkpt>
<trkpt lat="40.0713749" lon="-105.229789">
  <ele>1582.9</ele>
  <time>2026-08-28T17:48:57Z</time>
  <course>247.57</course>
  <speed>0.0</speed>
  <fix>3d</fix>
</trkpt>
<trkpt lat="40.0713749" lon="-105.229789">
  <ele>1583.0</ele>
  <time>2026-08-28T17:48:57Z</time>
  <course>0.0</course>
  <speed>0.0</speed>
  <fix>3d</fix>
</trkpt>
<trkpt lat="40.0713749" lon="-105.229789">
  <ele>1582.9</ele>
  <time>2026-08-28T17:48:57Z</time>
  <course>247.57</course>
  <speed>0.01</speed>
  <fix>3d</fix>
</trkpt>
<trkpt lat="40.0713749" lon="-105.229789">
  <ele>1583.0</ele>
  <time>2026-08-28T17:48:57Z</time>
  <course>0.0</course>
  <speed>0.0</speed>
  <fix>3d</fix>
</trkpt>
<trkpt lat="40.0713749" lon="-105.229789">
  <ele>1582.9</ele>
  <time>2026-08-28T17:48:57Z</time>
  <course>247.56</course>
  <speed>0.01</speed>
  <fix>3d</fix>
</trkpt>
<trkpt lat="40.0713749" lon="-105.229789">
  <ele>1583.0</ele>
  <time>2026-08-28T17:48:57Z</time>
  <course>0.0</course>
  <speed>0.0</speed>
  <fix>3d</fix>
</trkpt>
<trkpt lat="40.0713749" lon="-105.229789">
  <ele>1582.91</ele>
  <time>2026-08-28T17:48:57Z</time>
  <course>247.56</course>
  <speed>0.01</speed>
  <fix>3d</fix>
</trkpt>
<trkpt lat="40.0713749" lon="-105.229789">
  <ele>1583.0</ele>
  <time>2026-08-28T17:48:57Z</time>
  <course>0.0</course>
  <speed>0.0</speed>
  <fix>3d</fix>
</trkpt>
<trkpt lat="40.0713749" lon="-105.229789">
  <ele>1582.91</ele>
  <time>2026-08-28T17:48:57Z</time>
  <course>247.56</course>
  <speed>0.01</speed>
  <fix>3d</fix>
</trkpt>
<trkpt lat="40.0713749" lon="-105.229789">
  <ele>1583.0</ele>
  <time>2026-08-28T17:48:57Z</time>
  <course>0.0</course>
  <speed>0.0</speed>
  <fix>3d</fix>
</trkpt>
<trkpt lat="40.0713749" lon="-105.229789">
  <ele>1582.92</ele>
  <time>2026-08-28T17:48:57Z</time>
  <course>247.56</course>
  <speed>0.01</speed>
  <fix>3d</fix>
</trkpt>
<trkpt lat="40.0713749" lon="-105.229789">
  <ele>1583.0</ele>
  <time>2026-08-28T17:48:57Z</time>
  <course>0.0</course>
  <speed>0.0</speed>
  <fix>3d</fix>
</trkpt>
<trkpt lat="40.0713749" lon="-105.229789">
  <ele>1582.92</ele>
  <time>2026-08-28T17:48:57Z</time>
  <course>247.55</course>
  <speed>0.01</speed>
  <fix>3d</fix>
</trkpt>
<trkpt lat="40.0713749" lon="-105.229789">
  <ele>1583.0</ele>
  <time>2026-08-28T17:48:57Z</time>
  <course>0.0</course>
  <speed>0.0</speed>
  <fix>3d</fix>
</trkpt>
<trkpt lat="40.0713749" lon="-105.229789">
  <ele>1582.92</ele>
  <time>2026-08-28T17:48:57Z</time>
  <course>247.55</course>
  <speed>0.01</speed>
  <fix>3d</fix>
</trkpt>
<trkpt lat="40.0713749" lon="-105.229789">
  <ele>1583.0</ele>
  <time>2026-08-28T17:48:57Z</time>
  <course>0.0</course>
  <speed>0.0</speed>
  <fix>3d</fix>
</trkpt>
<trkpt lat="40.0713749" lon="-105.229789">
  <ele>1582.93</ele>
  <time>2026-08-28T17:48:57Z</time>
  <course>247.55</course>
  <speed>0.01</speed>
  <fix>3d</fix>
</trkpt>
<trkpt lat="40.0713749" lon="-105.229789">
  <ele>1583.0</ele>
  <time>2026-08-28T17:48:57Z</time>
  <course>0.0</course>
  <speed>0.0</speed>
  <fix>3d</fix>
</trkpt>
<trkpt lat="40.0713749" lon="-105.229789">
  <ele>1582.93</ele>
  <time>2026-08-28T17:48:57Z</time>
  <course>247.55</course>
  <speed>0.01</speed>
  <fix>3d</fix>
</trkpt>
<trkpt lat="40.0713749" lon="-105.229789">
  <ele>1583.0</ele>
  <time>2026-08-28T17:48:57Z</time>
  <course>0.0</course>
  <speed>0.0</speed>
  <fix>3d</fix>
</trkpt>
<trkpt lat="40.0713749" lon="-105.229789">
  <ele>1582.93</ele>
  <time>2026-08-28T17:48:57Z</time>
  <course>247.54</course>
  <speed>0.01</speed>
  <fix>3d</fix>
</trkpt>
<trkpt lat="40.0713749" lon="-105.229789">
  <ele>1583.0</ele>
  <time>2026-08-28T17:48:57Z</time>
  <course>0.0</course>
  <speed>0.0</speed>
  <fix>3d</fix>
</trkpt>
<trkpt lat="40.0713749" lon="-105.229789">
  <ele>1582.93</ele>
  <time>2026-08-28T17:48:57Z</time>
  <course>247.54</course>
  <speed>0.01</speed>
  <fix>3d</fix>
</trkpt>
<trkpt lat="40.0713749" lon="-105.229789">
  <ele>1583.0</ele>
  <time>2026-08-28T17:48:57Z</time>
  <course>0.0</course>
  <speed>0.0</speed>
  <fix>3d</fix>
</trkpt>
<trkpt lat="40.0713749" lon="-105.229789">
  <ele>1582.94</ele>
  <time>2026-08-28T17:48:57Z</time>
  <course>247.54</course>
  <speed>0.01</speed>
  <fix>3d</fix>
</trkpt>
<trkpt lat="40.0713749" lon="-105.229789">
  <ele>1583.0</ele>
  <time>2026-08-28T17:48:57Z</time>
  <course>0.0</course>
  <speed>0.0</speed>
  <fix>3d</fix>
</trkpt>
<trkpt lat="40.0713749" lon="-105.229789">
  <ele>1582.94</ele>
  <time>2026-08-28T17:48:57Z</time>
  <course>247.54</course>
  <speed>0.02</speed>
  <fix>3d</fix>
</trkpt>
<trkpt lat="40.0713749" lon="-105.229789">
  <ele>1583.0</ele>
  <time>2026-08-28T17:48:57Z</time>
  <course>0.0</course>
  <speed>0.0</speed>
  <fix>3d</fix>
</trkpt>
<trkpt lat="40.0713749" lon="-105.229789">
  <ele>1582.94</ele>
  <time>2026-08-28T17:48:57Z</time>
  <course>247.53</course>
  <speed>0.01</speed>
  <fix>3d</fix>
</trkpt>
<trkpt lat="40.0713749" lon="-105.229789">
  <ele>1583.0</ele>
  <time>2026-08-28T17:48:57Z</time>
  <course>0.0</course>
  <speed>0.0</speed>
  <fix>3d</fix>
</trkpt>
<trkpt lat="40.0713749" lon="-105.229789">
  <ele>1582.95</ele>
  <time>2026-08-28T17:48:57Z</time>
  <course>247.53</course>
  <speed>0.01</speed>
  <fix>3d</fix>
</trkpt>
<trkpt lat="40.0713749" lon="-105.229789">
  <ele>1583.0</ele>
  <time>2026-08-28T17:48:57Z</time>
  <course>0.0</course>
  <speed>0.0</speed>
  <fix>3d</fix>
</trkpt>
<trkpt lat="40.0713749" lon="-105.229789">
  <ele>1582.95</ele>
  <time>2026-08-28T17:48:57Z</time>
  <course>247.53</course>
  <speed>0.01</speed>
  <fix>3d</fix>
</trkpt>
<trkpt lat="40.0713749" lon="-105.229789">
  <ele>1583.0</ele>
  <time>2026-08-28T17:48:57Z</time>
  <course>0.0</course>
  <speed>0.0</speed>
  <fix>3d</fix>
</trkpt>
<trkpt lat="40.0713749" lon="-105.229789">
  <ele>1582.95</ele>
  <time>2026-08-28T17:48:57Z</time>
  <course>247.53</course>
  <speed>0.01</speed>
  <fix>3d</fix>
</trkpt>
<trkpt lat="40.0713749" lon="-105.229789">
  <ele>1583.0</ele>
  <time>2026-08-28T17:48:57Z</time>
  <course>0.0</course>
  <speed>0.0</speed>
  <fix>3d</fix>
</trkpt>
<trkpt lat="40.0713749" lon="-105.229789">
  <ele>1582.96</ele>
  <time>2026-08-28T17:48:57Z</time>
  <course>247.53</course>
  <speed>0.01</speed>
  <fix>3d</fix>
</trkpt>
<trkpt lat="40.0713749" lon="-105.229789">
  <ele>1583.0</ele>
  <time>2026-08-28T17:48:57Z</time>
  <course>0.0</course>
  <speed>0.0</speed>
  <fix>3d</fix>
</trkpt>
<trkpt lat="40.0713749" lon="-105.229789">
  <ele>1582.96</ele>
  <time>2026-08-28T17:48:57Z</time>
  <course>247.52</course>
  <speed>0.01</speed>
  <fix>3d</fix>
</trkpt>
<trkpt lat="40.0713749" lon="-105.229789">
  <ele>1583.0</ele>
  <time>2026-08-28T17:48:57Z</time>
  <course>0.0</course>
  <speed>0.0</speed>
  <fix>3d</fix>
</trkpt>
<trkpt lat="40.0713749" lon="-105.229789">
  <ele>1582.96</ele>
  <time>2026-08-28T17:48:57Z</time>
  <course>247.52</course>
  <speed>0.01</speed>
  <fix>3d</fix>
</trkpt>
<trkpt lat="40.0713749" lon="-105.229789">
  <ele>1583.0</ele>
  <time>2026-08-28T17:48:57Z</time>
  <course>0.0</course>
  <speed>0.0</speed>
  <fix>3d</fix>
</trkpt>
<trkpt lat="40.0713749" lon="-105.229789">
  <ele>1582.96</ele>
  <time>2026-08-28T17:48:57Z</time>
  <course>247.52</course>
  <speed>0.01</speed>
  <fix>3d</fix>
</trkpt>
<trkpt lat="40.0713749" lon="-105.229789">
  <ele>1583.0</ele>
  <time>2026-08-28T17:48:57Z</time>
  <course>0.0</course>
  <speed>0.0</speed>
  <fix>3d</fix>
</trkpt>
<trkpt lat="40.0713749" lon="-105.229789">
  <ele>1582.96</ele>
  <time>2026-08-28T17:48:57Z</time>
  <course>247.52</course>
  <speed>0.01</speed>
  <fix>3d</fix>
</trkpt>
<trkpt lat="40.0713749" lon="-105.229789">
  <ele>1583.0</ele>
  <time>2026-08-28T17:48:57Z</time>
  <course>0.0</course>
  <speed>0.0</speed>
  <fix>3d</fix>
</trkpt>
<trkpt lat="40.0713749" lon="-105.229789">
  <ele>1582.96</ele>
  <time>2026-08-28T17:48:57Z</time>
  <course>247.51</course>
  <speed>0.01</speed>
  <fix>3d</fix>
</trkpt>
<trkpt lat="40.0713749" lon="-105.229789">
  <ele>1583.0</ele>
  <time>2026-08-28T17:48:57Z</time>
  <course>0.0</course>
  <speed>0.0</speed>
  <fix>3d</fix>
</trkpt>
<trkpt lat="40.0713749" lon="-105.229789">
  <ele>1582.95</ele>
  <time>2026-08-28T17:48:57Z</time>
  <course>247.51</course>
  <speed>0.01</speed>
  <fix>3d</fix>
</trkpt>
<trkpt lat="40.0713749" lon="-105.229789">
  <ele>1583.0</ele>
  <time>2026-08-28T17:48:57Z</time>
  <course>0.0</course>
  <speed>0.0</speed>
  <fix>3d</fix>
</trkpt>
<trkpt lat="40.0713749" lon="-105.229789">
  <ele>1582.95</ele>
  <time>2026-08-28T17:48:57Z</time>
  <course>247.51</course>
  <speed>0.01</speed>
  <fix>3d</fix>
</trkpt>
<trkpt lat="40.0713749" lon="-105.229789">
  <ele>1583.0</ele>
  <time>2026-08-28T17:48:57Z</time>
  <course>0.0</course>
  <speed>0.0</speed>
  <fix>3d</fix>
</trkpt>
<trkpt lat="40.0713749" lon="-105.229789">
  <ele>1582.95</ele>
  <time>2026-08-28T17:48:57Z</time>
  <course>247.51</course>
  <speed>0.01</speed>
  <fix>3d</fix>
</trkpt>
<trkpt lat="40.0713749" lon="-105.229789">
  <ele>1583.0</ele>
  <time>2026-08-28T17:48:57Z</time>
  <course>0.0</course>
  <speed>0.0</speed>
  <fix>3d</fix>
</trkpt>
<trkpt lat="40.0713749" lon="-105.229789">
  <ele>1582.95</ele>
  <time>2026-08-28T17:48:57Z</time>
  <course>247.51</course>
  <speed>0.01</speed>
  <fix>3d</fix>
</trkpt>
<trkpt lat="40.0713749" lon="-105.229789">
  <ele>1583.0</ele>
  <time>2026-08-28T17:48:57Z</time>
  <course>0.0</course>
  <speed>0.0</speed>
  <fix>3d</fix>
</trkpt>
<trkpt lat="40.0713749" lon="-105.229789">
  <ele>1582.95</ele>
  <time>2026-08-28T17:48:57Z</time>
  <course>247.5</course>
  <speed>0.01</speed>
  <fix>3d</fix>
</trkpt>
<trkpt lat="40.0713749" lon="-105.229789">
  <ele>1583.0</ele>
  <time>2026-08-28T17:48:57Z</time>
  <course>0.0</course>
  <speed>0.0</speed>
  <fix>3d</fix>
</trkpt>
<trkpt lat="40.0713749" lon="-105.229789">
  <ele>1582.95</ele>
  <time>2026-08-28T17:48:57Z</time>
  <course>247.5</course>
  <speed>0.01</speed>
  <fix>3d</fix>
</trkpt>
<trkpt lat="40.0713749" lon="-105.229789">
  <ele>1583.0</ele>
  <time>2026-08-28T17:48:57Z</time>
  <course>0.0</course>
  <speed>0.0</speed>
  <fix>3d</fix>
</trkpt>
<trkpt lat="40.0713749" lon="-105.229789">
  <ele>1582.95</ele>
  <time>2026-08-28T17:48:57Z</time>
  <course>247.5</course>
  <speed>0.01</speed>
  <fix>3d</fix>
</trkpt>
<trkpt lat="40.0713749" lon="-105.229789">
  <ele>1583.0</ele>
  <time>2026-08-28T17:48:57Z</time>
  <course>0.0</course>
  <speed>0.0</speed>
  <fix>3d</fix>
</trkpt>
<trkpt lat="40.0713749" lon="-105.229789">
  <ele>1582.95</ele>
  <time>2026-08-28T17:48:57Z</time>
  <course>247.5</course>
  <speed>0.01</speed>
  <fix>3d</fix>
</trkpt>
<trkpt lat="40.0713749" lon="-105.229789">
  <ele>1583.0</ele>
  <time>2026-08-28T17:48:57Z</time>
  <course>0.0</course>
  <speed>0.0</speed>
  <fix>3d</fix>
</trkpt>
<trkpt lat="40.0713749" lon="-105.229789">
  <ele>1582.95</ele>
  <time>2026-08-28T17:48:57Z</time>
  <course>247.5</course>
  <speed>0.01</speed>
  <fix>3d</fix>
</trkpt>
<trkpt lat="40.0713749" lon="-105.229789">
  <ele>1583.0</ele>
  <time>2026-08-28T17:48:57Z</time>
  <course>0.0</course>
  <speed>0.0</speed>
  <fix>3d</fix>
</trkpt>
<trkpt lat="40.0713749" lon="-105.229789">
  <ele>1582.95</ele>
  <time>2026-08-28T17:48:57Z</time>
  <course>247.49</course>
  <speed>0.01</speed>
  <fix>3d</fix>
</trkpt>
<trkpt lat="40.0713749" lon="-105.229789">
  <ele>1583.0</ele>
  <time>2026-08-28T17:48:57Z</time>
  <course>0.0</course>
  <speed>0.0</speed>
  <fix>3d</fix>
</trkpt>
<trkpt lat="40.0713749" lon="-105.229789">
  <ele>1582.95</ele>
  <time>2026-08-28T17:48:57Z</time>
  <course>247.49</course>
  <speed>0.01</speed>
  <fix>3d</fix>
</trkpt>
<trkpt lat="40.0713749" lon="-105.229789">
  <ele>1583.0</ele>
  <time>2026-08-28T17:48:57Z</time>
  <course>0.0</course>
  <speed>0.0</speed>
  <fix>3d</fix>
</trkpt>
<trkpt lat="40.0713749" lon="-105.229789">
  <ele>1582.95</ele>
  <time>2026-08-28T17:48:57Z</time>
  <course>247.49</course>
  <speed>0.0</speed>
  <fix>3d</fix>
</trkpt>
<trkpt lat="40.0713749" lon="-105.229789">
  <ele>1583.0</ele>
  <time>2026-08-28T17:48:57Z</time>
  <course>0.0</course>
  <speed>0.0</speed>
  <fix>3d</fix>
</trkpt>
<trkpt lat="40.0713749" lon="-105.229789">
  <ele>1582.96</ele>
  <time>2026-08-28T17:48:57Z</time>
  <course>247.49</course>
  <speed>0.0</speed>
  <fix>3d</fix>
</trkpt>
<trkpt lat="40.0713749" lon="-105.229789">
  <ele>1583.0</ele>
  <time>2026-08-28T17:48:57Z</time>
  <course>0.0</course>
  <speed>0.0</speed>
  <fix>3d</fix>
</trkpt>
<trkpt lat="40.0713749" lon="-105.229789">
  <ele>1582.97</ele>
  <time>2026-08-28T17:48:57Z</time>
  <course>247.49</course>
  <speed>0.0</speed>
  <fix>3d</fix>
</trkpt>
<trkpt lat="40.0713749" lon="-105.229789">
  <ele>1583.0</ele>
  <time>2026-08-28T17:48:57Z</time>
  <course>0.0</course>
  <speed>0.0</speed>
  <fix>3d</fix>
</trkpt>
<trkpt lat="40.0713749" lon="-105.229789">
  <ele>1582.97</ele>
  <time>2026-08-28T17:48:57Z</time>
  <course>247.48</course>
  <speed>0.0</speed>
  <fix>3d</fix>
</trkpt>
<trkpt lat="40.0713749" lon="-105.229789">
  <ele>1583.0</ele>
  <time>2026-08-28T17:48:57Z</time>
  <course>0.0</course>
  <speed>0.0</speed>
  <fix>3d</fix>
</trkpt>
<trkpt lat="40.0713749" lon="-105.229789">
  <ele>1582.98</ele>
  <time>2026-08-28T17:48:57Z</time>
  <course>247.48</course>
  <speed>0.0</speed>
  <fix>3d</fix>
</trkpt>
<trkpt lat="40.0713749" lon="-105.229789">
  <ele>1583.0</ele>
  <time>2026-08-28T17:48:57Z</time>
  <course>0.0</course>
  <speed>0.0</speed>
  <fix>3d</fix>
</trkpt>
<trkpt lat="40.0713749" lon="-105.229789">
  <ele>1582.98</ele>
  <time>2026-08-28T17:48:57Z</time>
  <course>247.48</course>
  <speed>0.0</speed>
  <fix>3d</fix>
</trkpt>
<trkpt lat="40.0713749" lon="-105.229789">
  <ele>1583.0</ele>
  <time>2026-08-28T17:48:57Z</time>
  <course>0.0</course>
  <speed>0.0</speed>
  <fix>3d</fix>
</trkpt>
<trkpt lat="40.0713749" lon="-105.229789">
  <ele>1582.98</ele>
  <time>2026-08-28T17:48:57Z</time>
  <course>247.48</course>
  <speed>0.0</speed>
  <fix>3d</fix>
</trkpt>
<trkpt lat="40.0713749" lon="-105.229789">
  <ele>1583.0</ele>
  <time>2026-08-28T17:48:57Z</time>
  <course>0.0</course>
  <speed>0.0</speed>
  <fix>3d</fix>
</trkpt>
<trkpt lat="40.0713749" lon="-105.229789">
  <ele>1582.98</ele>
  <time>2026-08-28T17:48:57Z</time>
  <course>247.48</course>
  <speed>0.01</speed>
  <fix>3d</fix>
</trkpt>
<trkpt lat="40.0713749" lon="-105.229789">
  <ele>1583.0</ele>
  <time>2026-08-28T17:48:57Z</time>
  <course>0.0</course>
  <speed>0.0</speed>
  <fix>3d</fix>
</trkpt>
<trkpt lat="40.0713749" lon="-105.229789">
  <ele>1582.98</ele>
  <time>2026-08-28T17:48:57Z</time>
  <course>247.47</course>
  <speed>0.01</speed>
  <fix>3d</fix>
</trkpt>
<trkpt lat="40.0713749" lon="-105.229789">
  <ele>1583.0</ele>
  <time>2026-08-28T17:48:57Z</time>
  <course>0.0</course>
  <speed>0.0</speed>
  <fix>3d</fix>
</trkpt>
<trkpt lat="40.0713749" lon="-105.229789">
  <ele>1582.98</ele>
  <time>2026-08-28T17:48:57Z</time>
  <course>247.47</course>
  <speed>0.01</speed>
  <fix>3d</fix>
</trkpt>
<trkpt lat="40.0713749" lon="-105.229789">
  <ele>1583.0</ele>
  <time>2026-08-28T17:48:57Z</time>
  <course>0.0</course>
  <speed>0.0</speed>
  <fix>3d</fix>
</trkpt>
<trkpt lat="40.0713749" lon="-105.229789">
  <ele>1582.98</ele>
  <time>2026-08-28T17:48:57Z</time>
  <course>247.47</course>
  <speed>0.01</speed>
  <fix>3d</fix>
</trkpt>
<trkpt lat="40.0713749" lon="-105.229789">
  <ele>1583.0</ele>
  <time>2026-08-28T17:48:57Z</time>
  <course>0.0</course>
  <speed>0.0</speed>
  <fix>3d</fix>
</trkpt>
<trkpt lat="40.0713749" lon="-105.229789">
  <ele>1582.98</ele>
  <time>2026-08-28T17:48:57Z</time>
  <course>247.47</course>
  <speed>0.01</speed>
  <fix>3d</fix>
</trkpt>
<trkpt lat="40.0713749" lon="-105.229789">
  <ele>1583.0</ele>
  <time>2026-08-28T17:48:57Z</time>
  <course>0.0</course>
  <speed>0.0</speed>
  <fix>3d</fix>
</trkpt>
<trkpt lat="40.0713749" lon="-105.229789">
  <ele>1582.98</ele>
  <time>2026-08-28T17:48:57Z</time>
  <course>247.47</course>
  <speed>0.01</speed>
  <fix>3d</fix>
</trkpt>
<trkpt lat="40.0713749" lon="-105.229789">
  <ele>1583.0</ele>
  <time>2026-08-28T17:48:57Z</time>
  <course>0.0</course>
  <speed>0.0</speed>
  <fix>3d</fix>
</trkpt>
<trkpt lat="40.0713749" lon="-105.229789">
  <ele>1582.98</ele>
  <time>2026-08-28T17:48:57Z</time>
  <course>247.47</course>
  <speed>0.01</speed>
  <fix>3d</fix>
</trkpt>
<trkpt lat="40.0713749" lon="-105.229789">
  <ele>1583.0</ele>
  <time>2026-08-28T17:48:57Z</time>
  <course>0.0</course>
  <speed>0.0</speed>
  <fix>3d</fix>
</trkpt>
<trkpt lat="40.0713749" lon="-105.229789">
  <ele>1582.98</ele>
  <time>2026-08-28T17:48:57Z</time>
  <course>247.46</course>
  <speed>0.01</speed>
  <fix>3d</fix>
</trkpt>
<trkpt lat="40.0713749" lon="-105.229789">
  <ele>1583.0</ele>
  <time>2026-08-28T17:48:57Z</time>
  <course>0.0</course>
  <speed>0.0</speed>
  <fix>3d</fix>
</trkpt>
<trkpt lat="40.0713749" lon="-105.229789">
  <ele>1582.98</ele>
  <time>2026-08-28T17:48:57Z</time>
  <course>247.46</course>
  <speed>0.01</speed>
  <fix>3d</fix>
</trkpt>
<trkpt lat="40.0713749" lon="-105.229789">
  <ele>1583.0</ele>
  <time>2026-08-28T17:48:57Z</time>
  <course>0.0</course>
  <speed>0.0</speed>
  <fix>3d</fix>
</trkpt>
<trkpt lat="40.0713749" lon="-105.229789">
  <ele>1582.98</ele>
  <time>2026-08-28T17:48:58Z</time>
  <course>247.46</course>
  <speed>0.01</speed>
  <fix>3d</fix>
</trkpt>
<trkpt lat="40.0713749" lon="-105.229789">
  <ele>1583.0</ele>
  <time>2026-08-28T17:48:58Z</time>
  <course>0.0</course>
  <speed>0.0</speed>
  <fix>3d</fix>
</trkpt>
<trkpt lat="40.0713749" lon="-105.229789">
  <ele>1582.98</ele>
  <time>2026-08-28T17:48:58Z</time>
  <course>247.46</course>
  <speed>0.01</speed>
  <fix>3d</fix>
</trkpt>
<trkpt lat="40.0713749" lon="-105.229789">
  <ele>1583.0</ele>
  <time>2026-08-28T17:48:58Z</time>
  <course>0.0</course>
  <speed>0.0</speed>
  <fix>3d</fix>
</trkpt>
<trkpt lat="40.0713749" lon="-105.229789">
  <ele>1582.98</ele>
  <time>2026-08-28T17:48:58Z</time>
  <course>247.46</course>
  <speed>0.01</speed>
  <fix>3d</fix>
</trkpt>
<trkpt lat="40.0713749" lon="-105.229789">
  <ele>1583.0</ele>
  <time>2026-08-28T17:48:58Z</time>
  <course>0.0</course>
  <speed>0.0</speed>
  <fix>3d</fix>
</trkpt>
<trkpt lat="40.0713749" lon="-105.229789">
  <ele>1582.98</ele>
  <time>2026-08-28T17:48:58Z</time>
  <course>247.46</course>
  <speed>0.01</speed>
  <fix>3d</fix>
</trkpt>
<trkpt lat="40.0713749" lon="-105.229789">
  <ele>1583.0</ele>
  <time>2026-08-28T17:48:58Z</time>
  <course>0.0</course>
  <speed>0.0</speed>
  <fix>3d</fix>
</trkpt>
<trkpt lat="40.0713749" lon="-105.229789">
  <ele>1582.98</ele>
  <time>2026-08-28T17:48:58Z</time>
  <course>247.45</course>
  <speed>0.01</speed>
  <fix>3d</fix>
</trkpt>
<trkpt lat="40.0713749" lon="-105.229789">
  <ele>1583.0</ele>
  <time>2026-08-28T17:48:58Z</time>
  <course>0.0</course>
  <speed>0.0</speed>
  <fix>3d</fix>
</trkpt>
<trkpt lat="40.0713749" lon="-105.229789">
  <ele>1582.98</ele>
  <time>2026-08-28T17:48:58Z</time>
  <course>247.45</course>
  <speed>0.01</speed>
  <fix>3d</fix>
</trkpt>
<trkpt lat="40.0713749" lon="-105.229789">
  <ele>1583.0</ele>
  <time>2026-08-28T17:48:58Z</time>
  <course>0.0</course>
  <speed>0.0</speed>
  <fix>3d</fix>
</trkpt>
<trkpt lat="40.0713749" lon="-105.229789">
  <ele>1582.98</ele>
  <time>2026-08-28T17:48:58Z</time>
  <course>247.45</course>
  <speed>0.01</speed>
  <fix>3d</fix>
</trkpt>
<trkpt lat="40.0713749" lon="-105.229789">
  <ele>1583.0</ele>
  <time>2026-08-28T17:48:58Z</time>
  <course>0.0</course>
  <speed>0.0</speed>
  <fix>3d</fix>
</trkpt>
<trkpt lat="40.0713749" lon="-105.229789">
  <ele>1582.98</ele>
  <time>2026-08-28T17:48:58Z</time>
  <course>247.45</course>
  <speed>0.01</speed>
  <fix>3d</fix>
</trkpt>
<trkpt lat="40.0713749" lon="-105.229789">
  <ele>1583.0</ele>
  <time>2026-08-28T17:48:58Z</time>
  <course>0.0</course>
  <speed>0.0</speed>
  <fix>3d</fix>
</trkpt>
<trkpt lat="40.0713749" lon="-105.229789">
  <ele>1582.98</ele>
  <time>2026-08-28T17:48:58Z</time>
  <course>247.45</course>
  <speed>0.01</speed>
  <fix>3d</fix>
</trkpt>
<trkpt lat="40.0713749" lon="-105.229789">
  <ele>1583.0</ele>
  <time>2026-08-28T17:48:58Z</time>
  <course>0.0</course>
  <speed>0.0</speed>
  <fix>3d</fix>
</trkpt>
<trkpt lat="40.0713749" lon="-105.229789">
  <ele>1582.99</ele>
  <time>2026-08-28T17:48:58Z</time>
  <course>247.45</course>
  <speed>0.01</speed>
  <fix>3d</fix>
</trkpt>
<trkpt lat="40.0713749" lon="-105.229789">
  <ele>1583.0</ele>
  <time>2026-08-28T17:48:58Z</time>
  <course>0.0</course>
  <speed>0.0</speed>
  <fix>3d</fix>
</trkpt>
<trkpt lat="40.0713749" lon="-105.229789">
  <ele>1582.99</ele>
  <time>2026-08-28T17:48:58Z</time>
  <course>247.44</course>
  <speed>0.01</speed>
  <fix>3d</fix>
</trkpt>
<trkpt lat="40.0713749" lon="-105.229789">
  <ele>1583.0</ele>
  <time>2026-08-28T17:48:58Z</time>
  <course>0.0</course>
  <speed>0.0</speed>
  <fix>3d</fix>
</trkpt>
<trkpt lat="40.0713749" lon="-105.229789">
  <ele>1582.99</ele>
  <time>2026-08-28T17:48:58Z</time>
  <course>247.44</course>
  <speed>0.01</speed>
  <fix>3d</fix>
</trkpt>
<trkpt lat="40.0713749" lon="-105.229789">
  <ele>1583.0</ele>
  <time>2026-08-28T17:48:58Z</time>
  <course>0.0</course>
  <speed>0.0</speed>
  <fix>3d</fix>
</trkpt>
<trkpt lat="40.0713749" lon="-105.229789">
  <ele>1582.99</ele>
  <time>2026-08-28T17:48:58Z</time>
  <course>247.44</course>
  <speed>0.01</speed>
  <fix>3d</fix>
</trkpt>
<trkpt lat="40.0713749" lon="-105.229789">
  <ele>1583.0</ele>
  <time>2026-08-28T17:48:58Z</time>
  <course>0.0</course>
  <speed>0.0</speed>
  <fix>3d</fix>
</trkpt>
<trkpt lat="40.0713749" lon="-105.229789">
  <ele>1583.0</ele>
  <time>2026-08-28T17:48:58Z</time>
  <course>247.44</course>
  <speed>0.01</speed>
  <fix>3d</fix>
</trkpt>
<trkpt lat="40.0713749" lon="-105.229789">
  <ele>1583.0</ele>
  <time>2026-08-28T17:48:58Z</time>
  <course>0.0</course>
  <speed>0.0</speed>
  <fix>3d</fix>
</trkpt>
<trkpt lat="40.071375" lon="-105.229789">
  <ele>1583.0</ele>
  <time>2026-08-28T17:48:58Z</time>
  <course>247.44</course>
  <speed>0.01</speed>
  <fix>3d</fix>
</trkpt>
<trkpt lat="40.0713749" lon="-105.229789">
  <ele>1583.0</ele>
  <time>2026-08-28T17:48:58Z</time>
  <course>0.0</course>
  <speed>0.0</speed>
  <fix>3d</fix>
</trkpt>
<trkpt lat="40.071375" lon="-105.229789">
  <ele>1583.0</ele>
  <time>2026-08-28T17:48:58Z</time>
  <course>247.44</course>
  <speed>0.01</speed>
  <fix>3d</fix>
</trkpt>
<trkpt lat="40.0713749" lon="-105.229789">
  <ele>1583.0</ele>
  <time>2026-08-28T17:48:58Z</time>
  <course>0.0</course>
  <speed>0.0</speed>
  <fix>3d</fix>
</trkpt>
<trkpt lat="40.071375" lon="-105.229789">
  <ele>1583.0</ele>
  <time>2026-08-28T17:48:58Z</time>
  <course>247.44</course>
  <speed>0.01</speed>
  <fix>3d</fix>
</trkpt>
<trkpt lat="40.0713749" lon="-105.229789">
  <ele>1583.0</ele>
  <time>2026-08-28T17:48:58Z</time>
  <course>0.0</course>
  <speed>0.0</speed>
  <fix>3d</fix>
</trkpt>
<trkpt lat="40.071375" lon="-105.229789">
  <ele>1583.0</ele>
  <time>2026-08-28T17:48:58Z</time>
  <course>247.43</course>
  <speed>0.01</speed>
  <fix>3d</fix>
</trkpt>
<trkpt lat="40.0713749" lon="-105.229789">
  <ele>1583.0</ele>
  <time>2026-08-28T17:48:58Z</time>
  <course>0.0</course>
  <speed>0.0</speed>
  <fix>3d</fix>
</trkpt>
<trkpt lat="40.071375" lon="-105.229789">
  <ele>1583.0</ele>
  <time>2026-08-28T17:48:58Z</time>
  <course>247.43</course>
  <speed>0.01</speed>
  <fix>3d</fix>
</trkpt>
<trkpt lat="40.0713749" lon="-105.229789">
  <ele>1583.0</ele>
  <time>2026-08-28T17:48:58Z</time>
  <course>0.0</course>
  <speed>0.0</speed>
  <fix>3d</fix>
</trkpt>
<trkpt lat="40.071375" lon="-105.229789">
  <ele>1583.01</ele>
  <time>2026-08-28T17:48:58Z</time>
  <course>247.43</course>
  <speed>0.01</speed>
  <fix>3d</fix>
</trkpt>
<trkpt lat="40.0713749" lon="-105.229789">
  <ele>1583.0</ele>
  <time>2026-08-28T17:48:58Z</time>
  <course>0.0</course>
  <speed>0.0</speed>
  <fix>3d</fix>
</trkpt>
<trkpt lat="40.071375" lon="-105.229789">
  <ele>1583.01</ele>
  <time>2026-08-28T17:48:58Z</time>
  <course>247.43</course>
  <speed>0.02</speed>
  <fix>3d</fix>
</trkpt>
<trkpt lat="40.0713749" lon="-105.229789">
  <ele>1583.0</ele>
  <time>2026-08-28T17:48:58Z</time>
  <course>0.0</course>
  <speed>0.0</speed>
  <fix>3d</fix>
</trkpt>
<trkpt lat="40.071375" lon="-105.229789">
  <ele>1583.0</ele>
  <time>2026-08-28T17:48:58Z</time>
  <course>247.43</course>
  <speed>0.02</speed>
  <fix>3d</fix>
</trkpt>
<trkpt lat="40.0713749" lon="-105.229789">
  <ele>1583.0</ele>
  <time>2026-08-28T17:48:58Z</time>
  <course>0.0</course>
  <speed>0.0</speed>
  <fix>3d</fix>
</trkpt>
<trkpt lat="40.071375" lon="-105.229789">
  <ele>1583.01</ele>
  <time>2026-08-28T17:48:58Z</time>
  <course>247.43</course>
  <speed>0.02</speed>
  <fix>3d</fix>
</trkpt>
<trkpt lat="40.0713749" lon="-105.229789">
  <ele>1583.0</ele>
  <time>2026-08-28T17:48:58Z</time>
  <course>0.0</course>
  <speed>0.0</speed>
  <fix>3d</fix>
</trkpt>
<trkpt lat="40.071375" lon="-105.229789">
  <ele>1583.01</ele>
  <time>2026-08-28T17:48:58Z</time>
  <course>247.43</course>
  <speed>0.02</speed>
  <fix>3d</fix>
</trkpt>
<trkpt lat="40.0713749" lon="-105.229789">
  <ele>1583.0</ele>
  <time>2026-08-28T17:48:58Z</time>
  <course>0.0</course>
  <speed>0.0</speed>
  <fix>3d</fix>
</trkpt>
<trkpt lat="40.071375" lon="-105.229789">
  <ele>1583.01</ele>
  <time>2026-08-28T17:48:58Z</time>
  <course>247.42</course>
  <speed>0.02</speed>
  <fix>3d</fix>
</trkpt>
<trkpt lat="40.0713749" lon="-105.229789">
  <ele>1583.0</ele>
  <time>2026-08-28T17:48:58Z</time>
  <course>0.0</course>
  <speed>0.0</speed>
  <fix>3d</fix>
</trkpt>
<trkpt lat="40.071375" lon="-105.229789">
  <ele>1583.01</ele>
  <time>2026-08-28T17:48:58Z</time>
  <course>247.42</course>
  <speed>0.02</speed>
  <fix>3d</fix>
</trkpt>
<trkpt lat="40.0713749" lon="-105.229789">
  <ele>1583.0</ele>
  <time>2026-08-28T17:48:58Z</time>
  <course>0.0</course>
  <speed>0.0</speed>
  <fix>3d</fix>
</trkpt>
<trkpt lat="40.071375" lon="-105.229789">
  <ele>1583.01</ele>
  <time>2026-08-28T17:48:58Z</time>
  <course>247.42</course>
  <speed>0.02</speed>
  <fix>3d</fix>
</trkpt>
<trkpt lat="40.0713749" lon="-105.229789">
  <ele>1583.0</ele>
  <time>2026-08-28T17:48:58Z</time>
  <course>0.0</course>
  <speed>0.0</speed>
  <fix>3d</fix>
</trkpt>
<trkpt lat="40.071375" lon="-105.229789">
  <ele>1583.01</ele>
  <time>2026-08-28T17:48:58Z</time>
  <course>247.42</course>
  <speed>0.02</speed>
  <fix>3d</fix>
</trkpt>
<trkpt lat="40.0713749" lon="-105.229789">
  <ele>1583.0</ele>
  <time>2026-08-28T17:48:58Z</time>
  <course>0.0</course>
  <speed>0.0</speed>
  <fix>3d</fix>
</trkpt>
<trkpt lat="40.071375" lon="-105.229789">
  <ele>1583.0</ele>
  <time>2026-08-28T17:48:58Z</time>
  <course>247.42</course>
  <speed>0.02</speed>
  <fix>3d</fix>
</trkpt>
<trkpt lat="40.0713749" lon="-105.229789">
  <ele>1583.0</ele>
  <time>2026-08-28T17:48:58Z</time>
  <course>0.0</course>
  <speed>0.0</speed>
  <fix>3d</fix>
</trkpt>
<trkpt lat="40.071375" lon="-105.229789">
  <ele>1583.0</ele>
  <time>2026-08-28T17:48:58Z</time>
  <course>247.42</course>
  <speed>0.02</speed>
  <fix>3d</fix>
</trkpt>
<trkpt lat="40.0713749" lon="-105.229789">
  <ele>1583.0</ele>
  <time>2026-08-28T17:48:58Z</time>
  <course>0.0</course>
  <speed>0.0</speed>
  <fix>3d</fix>
</trkpt>
<trkpt lat="40.071375" lon="-105.229789">
  <ele>1583.0</ele>
  <time>2026-08-28T17:48:58Z</time>
  <course>247.42</course>
  <speed>0.022360679774997897</speed>
  <fix>3d</fix>
</trkpt>
<trkpt lat="40.0713749" lon="-105.229789">
  <ele>1583.0</ele>
  <time>2026-08-28T17:48:58Z</time>
  <course>0.0</course>
  <speed>0.0</speed>
  <fix>3d</fix>
</trkpt>
<trkpt lat="40.071375" lon="-105.229789">
  <ele>1583.0</ele>
  <time>2026-08-28T17:48:58Z</time>
  <course>247.42</course>
  <speed>0.022360679774997897</speed>
  <fix>3d</fix>
</trkpt>
<trkpt lat="40.0713749" lon="-105.229789">
  <ele>1583.0</ele>
  <time>2026-08-28T17:48:58Z</time>
  <course>0.0</course>
  <speed>0.0</speed>
  <fix>3d</fix>
</trkpt>
<trkpt lat="40.071375" lon="-105.229789">
  <ele>1583.0</ele>
  <time>2026-08-28T17:48:58Z</time>
  <course>247.41</course>
  <speed>0.022360679774997897</speed>
  <fix>3d</fix>
</trkpt>
<trkpt lat="40.0713749" lon="-105.229789">
  <ele>1583.0</ele>
  <time>2026-08-28T17:48:58Z</time>
  <course>0.0</course>
  <speed>0.0</speed>
  <fix>3d</fix>
</trkpt>
<trkpt lat="40.071375" lon="-105.229789">
  <ele>1583.0</ele>
  <time>2026-08-28T17:48:58Z</time>
  <course>247.41</course>
  <speed>0.022360679774997897</speed>
  <fix>3d</fix>
</trkpt>
<trkpt lat="40.0713749" lon="-105.229789">
  <ele>1583.0</ele>
  <time>2026-08-28T17:48:58Z</time>
  <course>0.0</course>
  <speed>0.0</speed>
  <fix>3d</fix>
</trkpt>
<trkpt lat="40.071375" lon="-105.229789">
  <ele>1583.01</ele>
  <time>2026-08-28T17:48:58Z</time>
  <course>247.41</course>
  <speed>0.022360679774997897</speed>
  <fix>3d</fix>
</trkpt>
<trkpt lat="40.0713749" lon="-105.229789">
  <ele>1583.0</ele>
  <time>2026-08-28T17:48:58Z</time>
  <course>0.0</course>
  <speed>0.0</speed>
  <fix>3d</fix>
</trkpt>
<trkpt lat="40.071375" lon="-105.229789">
  <ele>1583.01</ele>
  <time>2026-08-28T17:48:58Z</time>
  <course>247.41</course>
  <speed>0.022360679774997897</speed>
  <fix>3d</fix>
</trkpt>
<trkpt lat="40.0713749" lon="-105.229789">
  <ele>1583.0</ele>
  <time>2026-08-28T17:48:58Z</time>
  <course>0.0</course>
  <speed>0.0</speed>
  <fix>3d</fix>
</trkpt>
<trkpt lat="40.071375" lon="-105.229789">
  <ele>1583.01</ele>
  <time>2026-08-28T17:48:58Z</time>
  <course>247.41</course>
  <speed>0.022360679774997897</speed>
  <fix>3d</fix>
</trkpt>
<trkpt lat="40.0713749" lon="-105.229789">
  <ele>1583.0</ele>
  <time>2026-08-28T17:48:58Z</time>
  <course>0.0</course>
  <speed>0.0</speed>
  <fix>3d</fix>
</trkpt>
<trkpt lat="40.071375" lon="-105.229789">
  <ele>1583.01</ele>
  <time>2026-08-28T17:48:58Z</time>
  <course>247.41</course>
  <speed>0.022360679774997897</speed>
  <fix>3d</fix>
</trkpt>
<trkpt lat="40.0713749" lon="-105.229789">
  <ele>1583.0</ele>
  <time>2026-08-28T17:48:58Z</time>
  <course>0.0</course>
  <speed>0.0</speed>
  <fix>3d</fix>
</trkpt>
<trkpt lat="40.071375" lon="-105.2297889">
  <ele>1583.01</ele>
  <time>2026-08-28T17:48:58Z</time>
  <course>247.41</course>
  <speed>0.022360679774997897</speed>
  <fix>3d</fix>
</trkpt>
<trkpt lat="40.0713749" lon="-105.229789">
  <ele>1583.0</ele>
  <time>2026-08-28T17:48:58Z</time>
  <course>0.0</course>
  <speed>0.0</speed>
  <fix>3d</fix>
</trkpt>
<trkpt lat="40.071375" lon="-105.2297889">
  <ele>1583.01</ele>
  <time>2026-08-28T17:48:58Z</time>
  <course>247.41</course>
  <speed>0.022360679774997897</speed>
  <fix>3d</fix>
</trkpt>
<trkpt lat="40.0713749" lon="-105.229789">
  <ele>1583.0</ele>
  <time>2026-08-28T17:48:58Z</time>
  <course>0.0</course>
  <speed>0.0</speed>
  <fix>3d</fix>
</trkpt>
<trkpt lat="40.071375" lon="-105.2297889">
  <ele>1583.01</ele>
  <time>2026-08-28T17:48:58Z</time>
  <course>247.41</course>
  <speed>0.022360679774997897</speed>
  <fix>3d</fix>
</trkpt>
<trkpt lat="40.0713749" lon="-105.229789">
  <ele>1583.0</ele>
  <time>2026-08-28T17:48:58Z</time>
  <course>0.0</course>
  <speed>0.0</speed>
  <fix>3d</fix>
</trkpt>
<trkpt lat="40.071375" lon="-105.2297889">
  <ele>1583.02</ele>
  <time>2026-08-28T17:48:58Z</time>
  <course>247.4</course>
  <speed>0.022360679774997897</speed>
  <fix>3d</fix>
</trkpt>
<trkpt lat="40.0713749" lon="-105.229789">
  <ele>1583.0</ele>
  <time>2026-08-28T17:48:58Z</time>
  <course>0.0</course>
  <speed>0.0</speed>
  <fix>3d</fix>
</trkpt>
<trkpt lat="40.0713751" lon="-105.2297889">
  <ele>1583.02</ele>
  <time>2026-08-28T17:48:58Z</time>
  <course>247.4</course>
  <speed>0.022360679774997897</speed>
  <fix>3d</fix>
</trkpt>
<trkpt lat="40.0713749" lon="-105.229789">
  <ele>1583.0</ele>
  <time>2026-08-28T17:48:58Z</time>
  <course>0.0</course>
  <speed>0.0</speed>
  <fix>3d</fix>
</trkpt>
<trkpt lat="40.0713751" lon="-105.2297889">
  <ele>1583.02</ele>
  <time>2026-08-28T17:48:58Z</time>
  <course>247.4</course>
  <speed>0.022360679774997897</speed>
  <fix>3d</fix>
</trkpt>
<trkpt lat="40.0713749" lon="-105.229789">
  <ele>1583.0</ele>
  <time>2026-08-28T17:48:58Z</time>
  <course>0.0</course>
  <speed>0.0</speed>
  <fix>3d</fix>
</trkpt>
<trkpt lat="40.0713751" lon="-105.2297889">
  <ele>1583.02</ele>
  <time>2026-08-28T17:48:58Z</time>
  <course>247.4</course>
  <speed>0.022360679774997897</speed>
  <fix>3d</fix>
</trkpt>
<trkpt lat="40.0713749" lon="-105.229789">
  <ele>1583.0</ele>
  <time>2026-08-28T17:48:58Z</time>
  <course>0.0</course>
  <speed>0.0</speed>
  <fix>3d</fix>
</trkpt>
<trkpt lat="40.0713751" lon="-105.2297889">
  <ele>1583.02</ele>
  <time>2026-08-28T17:48:58Z</time>
  <course>247.4</course>
  <speed>0.022360679774997897</speed>
  <fix>3d</fix>
</trkpt>
<trkpt lat="40.0713749" lon="-105.229789">
  <ele>1583.0</ele>
  <time>2026-08-28T17:48:58Z</time>
  <course>0.0</course>
  <speed>0.0</speed>
  <fix>3d</fix>
</trkpt>
<trkpt lat="40.0713751" lon="-105.2297889">
  <ele>1583.02</ele>
  <time>2026-08-28T17:48:58Z</time>
  <course>247.4</course>
  <speed>0.022360679774997897</speed>
  <fix>3d</fix>
</trkpt>
<trkpt lat="40.0713749" lon="-105.229789">
  <ele>1583.0</ele>
  <time>2026-08-28T17:48:58Z</time>
  <course>0.0</course>
  <speed>0.0</speed>
  <fix>3d</fix>
</trkpt>
<trkpt lat="40.0713751" lon="-105.2297889">
  <ele>1583.02</ele>
  <time>2026-08-28T17:48:58Z</time>
  <course>247.4</course>
  <speed>0.022360679774997897</speed>
  <fix>3d</fix>
</trkpt>
<trkpt lat="40.0713749" lon="-105.229789">
  <ele>1583.0</ele>
  <time>2026-08-28T17:48:58Z</time>
  <course>0.0</course>
  <speed>0.0</speed>
  <fix>3d</fix>
</trkpt>
<trkpt lat="40.0713751" lon="-105.2297889">
  <ele>1583.02</ele>
  <time>2026-08-28T17:48:58Z</time>
  <course>247.4</course>
  <speed>0.022360679774997897</speed>
  <fix>3d</fix>
</trkpt>
<trkpt lat="40.0713749" lon="-105.229789">
  <ele>1583.0</ele>
  <time>2026-08-28T17:48:58Z</time>
  <course>0.0</course>
  <speed>0.0</speed>
  <fix>3d</fix>
</trkpt>
<trkpt lat="40.0713751" lon="-105.2297889">
  <ele>1583.02</ele>
  <time>2026-08-28T17:48:58Z</time>
  <course>247.39</course>
  <speed>0.022360679774997897</speed>
  <fix>3d</fix>
</trkpt>
<trkpt lat="40.0713749" lon="-105.229789">
  <ele>1583.0</ele>
  <time>2026-08-28T17:48:58Z</time>
  <course>0.0</course>
  <speed>0.0</speed>
  <fix>3d</fix>
</trkpt>
<trkpt lat="40.0713751" lon="-105.2297889">
  <ele>1583.02</ele>
  <time>2026-08-28T17:48:58Z</time>
  <course>247.39</course>
  <speed>0.022360679774997897</speed>
  <fix>3d</fix>
</trkpt>
<trkpt lat="40.0713749" lon="-105.229789">
  <ele>1583.0</ele>
  <time>2026-08-28T17:48:58Z</time>
  <course>0.0</course>
  <speed>0.0</speed>
  <fix>3d</fix>
</trkpt>
<trkpt lat="40.0713751" lon="-105.2297889">
  <ele>1583.02</ele>
  <time>2026-08-28T17:48:58Z</time>
  <course>247.39</course>
  <speed>0.022360679774997897</speed>
  <fix>3d</fix>
</trkpt>
<trkpt lat="40.0713749" lon="-105.229789">
  <ele>1583.0</ele>
  <time>2026-08-28T17:48:58Z</time>
  <course>0.0</course>
  <speed>0.0</speed>
  <fix>3d</fix>
</trkpt>
<trkpt lat="40.0713751" lon="-105.2297889">
  <ele>1583.02</ele>
  <time>2026-08-28T17:48:58Z</time>
  <course>247.39</course>
  <speed>0.022360679774997897</speed>
  <fix>3d</fix>
</trkpt>
<trkpt lat="40.0713749" lon="-105.229789">
  <ele>1583.0</ele>
  <time>2026-08-28T17:48:58Z</time>
  <course>0.0</course>
  <speed>0.0</speed>
  <fix>3d</fix>
</trkpt>
<trkpt lat="40.0713751" lon="-105.2297889">
  <ele>1583.03</ele>
  <time>2026-08-28T17:48:58Z</time>
  <course>247.39</course>
  <speed>0.022360679774997897</speed>
  <fix>3d</fix>
</trkpt>
<trkpt lat="40.0713749" lon="-105.229789">
  <ele>1583.0</ele>
  <time>2026-08-28T17:48:58Z</time>
  <course>0.0</course>
  <speed>0.0</speed>
  <fix>3d</fix>
</trkpt>
<trkpt lat="40.0713751" lon="-105.2297889">
  <ele>1583.03</ele>
  <time>2026-08-28T17:48:58Z</time>
  <course>247.39</course>
  <speed>0.022360679774997897</speed>
  <fix>3d</fix>
</trkpt>
<trkpt lat="40.0713749" lon="-105.229789">
  <ele>1583.0</ele>
  <time>2026-08-28T17:48:58Z</time>
  <course>0.0</course>
  <speed>0.0</speed>
  <fix>3d</fix>
</trkpt>
<trkpt lat="40.0713751" lon="-105.2297889">
  <ele>1583.03</ele>
  <time>2026-08-28T17:48:58Z</time>
  <course>247.39</course>
  <speed>0.022360679774997897</speed>
  <fix>3d</fix>
</trkpt>
<trkpt lat="40.0713749" lon="-105.229789">
  <ele>1583.0</ele>
  <time>2026-08-28T17:48:58Z</time>
  <course>0.0</course>
  <speed>0.0</speed>
  <fix>3d</fix>
</trkpt>
<trkpt lat="40.0713751" lon="-105.2297889">
  <ele>1583.03</ele>
  <time>2026-08-28T17:48:58Z</time>
  <course>247.39</course>
  <speed>0.022360679774997897</speed>
  <fix>3d</fix>
</trkpt>
<trkpt lat="40.0713749" lon="-105.229789">
  <ele>1583.0</ele>
  <time>2026-08-28T17:48:58Z</time>
  <course>0.0</course>
  <speed>0.0</speed>
  <fix>3d</fix>
</trkpt>
<trkpt lat="40.0713751" lon="-105.2297889">
  <ele>1583.03</ele>
  <time>2026-08-28T17:48:58Z</time>
  <course>247.39</course>
  <speed>0.022360679774997897</speed>
  <fix>3d</fix>
</trkpt>
<trkpt lat="40.0713749" lon="-105.229789">
  <ele>1583.0</ele>
  <time>2026-08-28T17:48:58Z</time>
  <course>0.0</course>
  <speed>0.0</speed>
  <fix>3d</fix>
</trkpt>
<trkpt lat="40.0713751" lon="-105.2297889">
  <ele>1583.03</ele>
  <time>2026-08-28T17:48:58Z</time>
  <course>247.38</course>
  <speed>0.022360679774997897</speed>
  <fix>3d</fix>
</trkpt>
<trkpt lat="40.0713749" lon="-105.229789">
  <ele>1583.0</ele>
  <time>2026-08-28T17:48:58Z</time>
  <course>0.0</course>
  <speed>0.0</speed>
  <fix>3d</fix>
</trkpt>
<trkpt lat="40.0713751" lon="-105.2297889">
  <ele>1583.03</ele>
  <time>2026-08-28T17:48:58Z</time>
  <course>247.38</course>
  <speed>0.022360679774997897</speed>
  <fix>3d</fix>
</trkpt>
<trkpt lat="40.0713749" lon="-105.229789">
  <ele>1583.0</ele>
  <time>2026-08-28T17:48:58Z</time>
  <course>0.0</course>
  <speed>0.0</speed>
  <fix>3d</fix>
</trkpt>
<trkpt lat="40.0713751" lon="-105.2297889">
  <ele>1583.03</ele>
  <time>2026-08-28T17:48:58Z</time>
  <course>247.38</course>
  <speed>0.022360679774997897</speed>
  <fix>3d</fix>
</trkpt>
<trkpt lat="40.0713749" lon="-105.229789">
  <ele>1583.0</ele>
  <time>2026-08-28T17:48:58Z</time>
  <course>0.0</course>
  <speed>0.0</speed>
  <fix>3d</fix>
</trkpt>
<trkpt lat="40.0713751" lon="-105.2297889">
  <ele>1583.03</ele>
  <time>2026-08-28T17:48:58Z</time>
  <course>247.38</course>
  <speed>0.022360679774997897</speed>
  <fix>3d</fix>
</trkpt>
<trkpt lat="40.0713749" lon="-105.229789">
  <ele>1583.0</ele>
  <time>2026-08-28T17:48:58Z</time>
  <course>0.0</course>
  <speed>0.0</speed>
  <fix>3d</fix>
</trkpt>
<trkpt lat="40.0713751" lon="-105.2297889">
  <ele>1583.03</ele>
  <time>2026-08-28T17:48:58Z</time>
  <course>247.38</course>
  <speed>0.022360679774997897</speed>
  <fix>3d</fix>
</trkpt>
<trkpt lat="40.0713749" lon="-105.229789">
  <ele>1583.0</ele>
  <time>2026-08-28T17:48:58Z</time>
  <course>0.0</course>
  <speed>0.0</speed>
  <fix>3d</fix>
</trkpt>
<trkpt lat="40.0713751" lon="-105.2297889">
  <ele>1583.02</ele>
  <time>2026-08-28T17:48:58Z</time>
  <course>247.38</course>
  <speed>0.022360679774997897</speed>
  <fix>3d</fix>
</trkpt>
<trkpt lat="40.0713749" lon="-105.229789">
  <ele>1583.0</ele>
  <time>2026-08-28T17:48:58Z</time>
  <course>0.0</course>
  <speed>0.0</speed>
  <fix>3d</fix>
</trkpt>
<trkpt lat="40.0713751" lon="-105.2297889">
  <ele>1583.02</ele>
  <time>2026-08-28T17:48:58Z</time>
  <course>247.38</course>
  <speed>0.022360679774997897</speed>
  <fix>3d</fix>
</trkpt>
<trkpt lat="40.0713749" lon="-105.229789">
  <ele>1583.0</ele>
  <time>2026-08-28T17:48:58Z</time>
  <course>0.0</course>
  <speed>0.0</speed>
  <fix>3d</fix>
</trkpt>
<trkpt lat="40.0713751" lon="-105.2297889">
  <ele>1583.02</ele>
  <time>2026-08-28T17:48:58Z</time>
  <course>247.38</course>
  <speed>0.022360679774997897</speed>
  <fix>3d</fix>
</trkpt>
<trkpt lat="40.0713749" lon="-105.229789">
  <ele>1583.0</ele>
  <time>2026-08-28T17:48:58Z</time>
  <course>0.0</course>
  <speed>0.0</speed>
  <fix>3d</fix>
</trkpt>
<trkpt lat="40.0713751" lon="-105.2297889">
  <ele>1583.02</ele>
  <time>2026-08-28T17:48:58Z</time>
  <course>247.37</course>
  <speed>0.022360679774997897</speed>
  <fix>3d</fix>
</trkpt>
<trkpt lat="40.0713749" lon="-105.229789">
  <ele>1583.0</ele>
  <time>2026-08-28T17:48:58Z</time>
  <course>0.0</course>
  <speed>0.0</speed>
  <fix>3d</fix>
</trkpt>
<trkpt lat="40.0713751" lon="-105.2297889">
  <ele>1583.03</ele>
  <time>2026-08-28T17:48:58Z</time>
  <course>247.37</course>
  <speed>0.022360679774997897</speed>
  <fix>3d</fix>
</trkpt>
<trkpt lat="40.0713749" lon="-105.229789">
  <ele>1583.0</ele>
  <time>2026-08-28T17:48:58Z</time>
  <course>0.0</course>
  <speed>0.0</speed>
  <fix>3d</fix>
</trkpt>
<trkpt lat="40.0713751" lon="-105.2297889">
  <ele>1583.02</ele>
  <time>2026-08-28T17:48:58Z</time>
  <course>247.37</course>
  <speed>0.02</speed>
  <fix>3d</fix>
</trkpt>
<trkpt lat="40.0713749" lon="-105.229789">
  <ele>1583.0</ele>
  <time>2026-08-28T17:48:58Z</time>
  <course>0.0</course>
  <speed>0.0</speed>
  <fix>3d</fix>
</trkpt>
<trkpt lat="40.0713751" lon="-105.2297889">
  <ele>1583.02</ele>
  <time>2026-08-28T17:48:58Z</time>
  <course>247.37</course>
  <speed>0.02</speed>
  <fix>3d</fix>
</trkpt>
<trkpt lat="40.0713749" lon="-105.229789">
  <ele>1583.0</ele>
  <time>2026-08-28T17:48:58Z</time>
  <course>0.0</course>
  <speed>0.0</speed>
  <fix>3d</fix>
</trkpt>
<trkpt lat="40.071375" lon="-105.2297889">
  <ele>1583.02</ele>
  <time>2026-08-28T17:48:58Z</time>
  <course>247.37</course>
  <speed>0.02</speed>
  <fix>3d</fix>
</trkpt>
<trkpt lat="40.0713749" lon="-105.229789">
  <ele>1583.0</ele>
  <time>2026-08-28T17:48:58Z</time>
  <course>0.0</course>
  <speed>0.0</speed>
  <fix>3d</fix>
</trkpt>
<trkpt lat="40.071375" lon="-105.229789">
  <ele>1583.01</ele>
  <time>2026-08-28T17:48:58Z</time>
  <course>247.37</course>
  <speed>0.02</speed>
  <fix>3d</fix>
</trkpt>
<trkpt lat="40.0713749" lon="-105.229789">
  <ele>1583.0</ele>
  <time>2026-08-28T17:48:58Z</time>
  <course>0.0</course>
  <speed>0.0</speed>
  <fix>3d</fix>
</trkpt>
<trkpt lat="40.071375" lon="-105.229789">
  <ele>1583.01</ele>
  <time>2026-08-28T17:48:58Z</time>
  <course>247.37</course>
  <speed>0.02</speed>
  <fix>3d</fix>
</trkpt>
<trkpt lat="40.0713749" lon="-105.229789">
  <ele>1583.0</ele>
  <time>2026-08-28T17:48:58Z</time>
  <course>0.0</course>
  <speed>0.0</speed>
  <fix>3d</fix>
</trkpt>
<trkpt lat="40.071375" lon="-105.229789">
  <ele>1583.01</ele>
  <time>2026-08-28T17:48:58Z</time>
  <course>247.37</course>
  <speed>0.01</speed>
  <fix>3d</fix>
</trkpt>
<trkpt lat="40.0713749" lon="-105.229789">
  <ele>1583.0</ele>
  <time>2026-08-28T17:48:58Z</time>
  <course>0.0</course>
  <speed>0.0</speed>
  <fix>3d</fix>
</trkpt>
<trkpt lat="40.071375" lon="-105.229789">
  <ele>1583.0</ele>
  <time>2026-08-28T17:48:58Z</time>
  <course>247.36</course>
  <speed>0.01</speed>
  <fix>3d</fix>
</trkpt>
<trkpt lat="40.0713749" lon="-105.229789">
  <ele>1583.0</ele>
  <time>2026-08-28T17:48:58Z</time>
  <course>0.0</course>
  <speed>0.0</speed>
  <fix>3d</fix>
</trkpt>
<trkpt lat="40.071375" lon="-105.229789">
  <ele>1582.99</ele>
  <time>2026-08-28T17:48:58Z</time>
  <course>247.36</course>
  <speed>0.01</speed>
  <fix>3d</fix>
</trkpt>
<trkpt lat="40.0713749" lon="-105.229789">
  <ele>1583.0</ele>
  <time>2026-08-28T17:48:58Z</time>
  <course>0.0</course>
  <speed>0.0</speed>
  <fix>3d</fix>
</trkpt>
<trkpt lat="39.655741" lon="-104.1383097">
  <ele>1566.58</ele>
  <time>2026-08-28T17:48:58Z</time>
  <course>0.0</course>
  <speed>0.0</speed>
  <fix>3d</fix>
</trkpt>
<trkpt lat="40.0713749" lon="-105.229789">
  <ele>1583.0</ele>
  <time>2026-08-28T17:48:58Z</time>
  <course>0.0</course>
  <speed>0.0</speed>
  <fix>3d</fix>
</trkpt>
<trkpt lat="40.0713749" lon="-105.229789">
  <ele>1583.0</ele>
  <time>2026-08-28T17:48:58Z</time>
  <course>238.36</course>
  <speed>0.0</speed>
  <fix>3d</fix>
</trkpt>
<trkpt lat="40.0713749" lon="-105.229789">
  <ele>1583.0</ele>
  <time>2026-08-28T17:48:58Z</time>
  <course>0.0</course>
  <speed>0.0</speed>
  <fix>3d</fix>
</trkpt>
<trkpt lat="40.0713749" lon="-105.229789">
  <ele>1583.0</ele>
  <time>2026-08-28T17:48:58Z</time>
  <course>238.44</course>
  <speed>0.0</speed>
  <fix>3d</fix>
</trkpt>
<trkpt lat="40.0713749" lon="-105.229789">
  <ele>1583.0</ele>
  <time>2026-08-28T17:48:58Z</time>
  <course>0.0</course>
  <speed>0.0</speed>
  <fix>3d</fix>
</trkpt>
<trkpt lat="40.0713749" lon="-105.229789">
  <ele>1583.0</ele>
  <time>2026-08-28T17:48:58Z</time>
  <course>238.64</course>
  <speed>0.0</speed>
  <fix>3d</fix>
</trkpt>
<trkpt lat="40.0713749" lon="-105.229789">
  <ele>1583.0</ele>
  <time>2026-08-28T17:48:58Z</time>
  <course>0.0</course>
  <speed>0.0</speed>
  <fix>3d</fix>
</trkpt>
<trkpt lat="40.0713749" lon="-105.229789">
  <ele>1583.0</ele>
  <time>2026-08-28T17:48:58Z</time>
  <course>238.93</course>
  <speed>0.0</speed>
  <fix>3d</fix>
</trkpt>
<trkpt lat="40.0713749" lon="-105.229789">
  <ele>1583.0</ele>
  <time>2026-08-28T17:48:58Z</time>
  <course>0.0</course>
  <speed>0.0</speed>
  <fix>3d</fix>
</trkpt>
<trkpt lat="40.0713749" lon="-105.229789">
  <ele>1583.0</ele>
  <time>2026-08-28T17:48:58Z</time>
  <course>239.26</course>
  <speed>0.0</speed>
  <fix>3d</fix>
</trkpt>
<trkpt lat="40.0713749" lon="-105.229789">
  <ele>1583.0</ele>
  <time>2026-08-28T17:48:58Z</time>
  <course>0.0</course>
  <speed>0.0</speed>
  <fix>3d</fix>
</trkpt>
<trkpt lat="40.0713749" lon="-105.229789">
  <ele>1583.0</ele>
  <time>2026-08-28T17:48:58Z</time>
  <course>239.61</course>
  <speed>0.0</speed>
  <fix>3d</fix>
</trkpt>
<trkpt lat="40.0713749" lon="-105.229789">
  <ele>1583.0</ele>
  <time>2026-08-28T17:48:58Z</time>
  <course>0.0</course>
  <speed>0.0</speed>
  <fix>3d</fix>
</trkpt>
<trkpt lat="40.0713749" lon="-105.229789">
  <ele>1583.0</ele>
  <time>2026-08-28T17:48:58Z</time>
  <course>239.96</course>
  <speed>0.0</speed>
  <fix>3d</fix>
</trkpt>
<trkpt lat="40.0713749" lon="-105.229789">
  <ele>1583.0</ele>
  <time>2026-08-28T17:48:58Z</time>
  <course>0.0</course>
  <speed>0.0</speed>
  <fix>3d</fix>
</trkpt>
<trkpt lat="40.0713749" lon="-105.229789">
  <ele>1583.0</ele>
  <time>2026-08-28T17:48:58Z</time>
  <course>240.29</course>
  <speed>0.0</speed>
  <fix>3d</fix>
</trkpt>
<trkpt lat="40.0713749" lon="-105.229789">
  <ele>1583.0</ele>
  <time>2026-08-28T17:48:58Z</time>
  <course>0.0</course>
  <speed>0.0</speed>
  <fix>3d</fix>
</trkpt>
<trkpt lat="40.0713749" lon="-105.229789">
  <ele>1583.0</ele>
  <time>2026-08-28T17:48:58Z</time>
  <course>240.61</course>
  <speed>0.0</speed>
  <fix>3d</fix>
</trkpt>
<trkpt lat="40.0713749" lon="-105.229789">
  <ele>1583.0</ele>
  <time>2026-08-28T17:48:58Z</time>
  <course>0.0</course>
  <speed>0.0</speed>
  <fix>3d</fix>
</trkpt>
<trkpt lat="40.0713749" lon="-105.229789">
  <ele>1583.0</ele>
  <time>2026-08-28T17:48:58Z</time>
  <course>240.92</course>
  <speed>0.0</speed>
  <fix>3d</fix>
</trkpt>
<trkpt lat="40.0713749" lon="-105.229789">
  <ele>1583.0</ele>
  <time>2026-08-28T17:48:58Z</time>
  <course>0.0</course>
  <speed>0.0</speed>
  <fix>3d</fix>
</trkpt>
<trkpt lat="40.0713749" lon="-105.229789">
  <ele>1583.0</ele>
  <time>2026-08-28T17:48:58Z</time>
  <course>241.21</course>
  <speed>0.0</speed>
  <fix>3d</fix>
</trkpt>
<trkpt lat="40.0713749" lon="-105.229789">
  <ele>1583.0</ele>
  <time>2026-08-28T17:48:58Z</time>
  <course>0.0</course>
  <speed>0.0</speed>
  <fix>3d</fix>
</trkpt>
<trkpt lat="40.0713749" lon="-105.229789">
  <ele>1583.0</ele>
  <time>2026-08-28T17:48:58Z</time>
  <course>241.49</course>
  <speed>0.0</speed>
  <fix>3d</fix>
</trkpt>
<trkpt lat="40.0713749" lon="-105.229789">
  <ele>1583.0</ele>
  <time>2026-08-28T17:48:58Z</time>
  <course>0.0</course>
  <speed>0.0</speed>
  <fix>3d</fix>
</trkpt>
<trkpt lat="40.0713749" lon="-105.229789">
  <ele>1583.0</ele>
  <time>2026-08-28T17:48:58Z</time>
  <course>241.77</course>
  <speed>0.0</speed>
  <fix>3d</fix>
</trkpt>
<trkpt lat="40.0713749" lon="-105.229789">
  <ele>1583.0</ele>
  <time>2026-08-28T17:48:58Z</time>
  <course>0.0</course>
  <speed>0.0</speed>
  <fix>3d</fix>
</trkpt>
<trkpt lat="40.0713749" lon="-105.229789">
  <ele>1583.0</ele>
  <time>2026-08-28T17:48:58Z</time>
  <course>242.03</course>
  <speed>0.0</speed>
  <fix>3d</fix>
</trkpt>
<trkpt lat="40.0713749" lon="-105.229789">
  <ele>1583.0</ele>
  <time>2026-08-28T17:48:58Z</time>
  <course>0.0</course>
  <speed>0.0</speed>
  <fix>3d</fix>
</trkpt>
<trkpt lat="40.0713749" lon="-105.229789">
  <ele>1583.0</ele>
  <time>2026-08-28T17:48:58Z</time>
  <course>242.29</course>
  <speed>0.0</speed>
  <fix>3d</fix>
</trkpt>
<trkpt lat="40.0713749" lon="-105.229789">
  <ele>1583.0</ele>
  <time>2026-08-28T17:48:58Z</time>
  <course>0.0</course>
  <speed>0.0</speed>
  <fix>3d</fix>
</trkpt>
<trkpt lat="40.0713749" lon="-105.229789">
  <ele>1583.0</ele>
  <time>2026-08-28T17:48:58Z</time>
  <course>242.54</course>
  <speed>0.0</speed>
  <fix>3d</fix>
</trkpt>
<trkpt lat="40.0713749" lon="-105.229789">
  <ele>1583.0</ele>
  <time>2026-08-28T17:48:58Z</time>
  <course>0.0</course>
  <speed>0.0</speed>
  <fix>3d</fix>
</trkpt>
<trkpt lat="40.0713749" lon="-105.229789">
  <ele>1583.0</ele>
  <time>2026-08-28T17:48:58Z</time>
  <course>242.79</course>
  <speed>0.0</speed>
  <fix>3d</fix>
</trkpt>
<trkpt lat="40.0713749" lon="-105.229789">
  <ele>1583.0</ele>
  <time>2026-08-28T17:48:58Z</time>
  <course>0.0</course>
  <speed>0.0</speed>
  <fix>3d</fix>
</trkpt>
<trkpt lat="40.0713749" lon="-105.229789">
  <ele>1583.0</ele>
  <time>2026-08-28T17:48:58Z</time>
  <course>243.02</course>
  <speed>0.0</speed>
  <fix>3d</fix>
</trkpt>
<trkpt lat="40.0713749" lon="-105.229789">
  <ele>1583.0</ele>
  <time>2026-08-28T17:48:58Z</time>
  <course>0.0</course>
  <speed>0.0</speed>
  <fix>3d</fix>
</trkpt>
<trkpt lat="40.0713749" lon="-105.229789">
  <ele>1583.0</ele>
  <time>2026-08-28T17:48:58Z</time>
  <course>243.25</course>
  <speed>0.0</speed>
  <fix>3d</fix>
</trkpt>
<trkpt lat="40.0713749" lon="-105.229789">
  <ele>1583.0</ele>
  <time>2026-08-28T17:48:58Z</time>
  <course>0.0</course>
  <speed>0.0</speed>
  <fix>3d</fix>
</trkpt>
<trkpt lat="40.0713749" lon="-105.229789">
  <ele>1583.0</ele>
  <time>2026-08-28T17:48:58Z</time>
  <course>243.47</course>
  <speed>0.0</speed>
  <fix>3d</fix>
</trkpt>
<trkpt lat="40.0713749" lon="-105.229789">
  <ele>1583.0</ele>
  <time>2026-08-28T17:48:58Z</time>
  <course>0.0</course>
  <speed>0.0</speed>
  <fix>3d</fix>
</trkpt>
<trkpt lat="40.0713749" lon="-105.229789">
  <ele>1583.0</ele>
  <time>2026-08-28T17:48:58Z</time>
  <course>243.68</course>
  <speed>0.0</speed>
  <fix>3d</fix>
</trkpt>
<trkpt lat="40.0713749" lon="-105.229789">
  <ele>1583.0</ele>
  <time>2026-08-28T17:48:58Z</time>
  <course>0.0</course>
  <speed>0.0</speed>
  <fix>3d</fix>
</trkpt>
<trkpt lat="40.0713749" lon="-105.229789">
  <ele>1583.0</ele>
  <time>2026-08-28T17:48:58Z</time>
  <course>243.89</course>
  <speed>0.0</speed>
  <fix>3d</fix>
</trkpt>
<trkpt lat="40.0713749" lon="-105.229789">
  <ele>1583.0</ele>
  <time>2026-08-28T17:48:58Z</time>
  <course>0.0</course>
  <speed>0.0</speed>
  <fix>3d</fix>
</trkpt>
<trkpt lat="40.0713749" lon="-105.229789">
  <ele>1583.0</ele>
  <time>2026-08-28T17:48:58Z</time>
  <course>244.09</course>
  <speed>0.0</speed>
  <fix>3d</fix>
</trkpt>
<trkpt lat="40.0713749" lon="-105.229789">
  <ele>1583.0</ele>
  <time>2026-08-28T17:48:58Z</time>
  <course>0.0</course>
  <speed>0.0</speed>
  <fix>3d</fix>
</trkpt>
<trkpt lat="40.0713749" lon="-105.229789">
  <ele>1583.0</ele>
  <time>2026-08-28T17:48:58Z</time>
  <course>244.28</course>
  <speed>0.0</speed>
  <fix>3d</fix>
</trkpt>
<trkpt lat="40.0713749" lon="-105.229789">
  <ele>1583.0</ele>
  <time>2026-08-28T17:48:58Z</time>
  <course>0.0</course>
  <speed>0.0</speed>
  <fix>3d</fix>
</trkpt>
<trkpt lat="40.0713749" lon="-105.229789">
  <ele>1583.0</ele>
  <time>2026-08-28T17:48:58Z</time>
  <course>244.46</course>
  <speed>0.0</speed>
  <fix>3d</fix>
</trkpt>
<trkpt lat="40.0713749" lon="-105.229789">
  <ele>1583.0</ele>
  <time>2026-08-28T17:48:58Z</time>
  <course>0.0</course>
  <speed>0.0</speed>
  <fix>3d</fix>
</trkpt>
<trkpt lat="40.0713749" lon="-105.229789">
  <ele>1583.0</ele>
  <time>2026-08-28T17:48:58Z</time>
  <course>244.64</course>
  <speed>0.0</speed>
  <fix>3d</fix>
</trkpt>
<trkpt lat="40.0713749" lon="-105.229789">
  <ele>1583.0</ele>
  <time>2026-08-28T17:48:58Z</time>
  <course>0.0</course>
  <speed>0.0</speed>
  <fix>3d</fix>
</trkpt>
<trkpt lat="40.0713749" lon="-105.229789">
  <ele>1583.0</ele>
  <time>2026-08-28T17:48:58Z</time>
  <course>244.81</course>
  <speed>0.0</speed>
  <fix>3d</fix>
</trkpt>
<trkpt lat="40.0713749" lon="-105.229789">
  <ele>1583.0</ele>
  <time>2026-08-28T17:48:58Z</time>
  <course>0.0</course>
  <speed>0.0</speed>
  <fix>3d</fix>
</trkpt>
<trkpt lat="40.0713749" lon="-105.229789">
  <ele>1583.0</ele>
  <time>2026-08-28T17:48:58Z</time>
  <course>244.97</course>
  <speed>0.0</speed>
  <fix>3d</fix>
</trkpt>
<trkpt lat="40.0713749" lon="-105.229789">
  <ele>1583.0</ele>
  <time>2026-08-28T17:48:58Z</time>
  <course>0.0</course>
  <speed>0.0</speed>
  <fix>3d</fix>
</trkpt>
<trkpt lat="40.0713749" lon="-105.229789">
  <ele>1583.0</ele>
  <time>2026-08-28T17:48:58Z</time>
  <course>245.13</course>
  <speed>0.0</speed>
  <fix>3d</fix>
</trkpt>
<trkpt lat="40.0713749" lon="-105.229789">
  <ele>1583.0</ele>
  <time>2026-08-28T17:48:58Z</time>
  <course>0.0</course>
  <speed>0.0</speed>
  <fix>3d</fix>
</trkpt>
<trkpt lat="40.0713749" lon="-105.229789">
  <ele>1583.0</ele>
  <time>2026-08-28T17:48:58Z</time>
  <course>245.29</course>
  <speed>0.0</speed>
  <fix>3d</fix>
</trkpt>
<trkpt lat="40.0713749" lon="-105.229789">
  <ele>1583.0</ele>
  <time>2026-08-28T17:48:58Z</time>
  <course>0.0</course>
  <speed>0.0</speed>
  <fix>3d</fix>
</trkpt>
<trkpt lat="40.0713749" lon="-105.229789">
  <ele>1583.0</ele>
  <time>2026-08-28T17:48:58Z</time>
  <course>245.43</course>
  <speed>0.0</speed>
  <fix>3d</fix>
</trkpt>
<trkpt lat="40.0713749" lon="-105.229789">
  <ele>1583.0</ele>
  <time>2026-08-28T17:48:58Z</time>
  <course>0.0</course>
  <speed>0.0</speed>
  <fix>3d</fix>
</trkpt>
<trkpt lat="40.0713749" lon="-105.229789">
  <ele>1583.0</ele>
  <time>2026-08-28T17:48:58Z</time>
  <course>245.57</course>
  <speed>0.0</speed>
  <fix>3d</fix>
</trkpt>
<trkpt lat="40.0713749" lon="-105.229789">
  <ele>1583.0</ele>
  <time>2026-08-28T17:48:58Z</time>
  <course>0.0</course>
  <speed>0.0</speed>
  <fix>3d</fix>
</trkpt>
<trkpt lat="40.0713749" lon="-105.229789">
  <ele>1583.0</ele>
  <time>2026-08-28T17:48:58Z</time>
  <course>245.71</course>
  <speed>0.0</speed>
  <fix>3d</fix>
</trkpt>
<trkpt lat="40.0713749" lon="-105.229789">
  <ele>1583.0</ele>
  <time>2026-08-28T17:48:58Z</time>
  <course>0.0</course>
  <speed>0.0</speed>
  <fix>3d</fix>
</trkpt>
<trkpt lat="40.0713749" lon="-105.229789">
  <ele>1583.0</ele>
  <time>2026-08-28T17:48:58Z</time>
  <course>245.84</course>
  <speed>0.0</speed>
  <fix>3d</fix>
</trkpt>
<trkpt lat="40.0713749" lon="-105.229789">
  <ele>1583.0</ele>
  <time>2026-08-28T17:48:58Z</time>
  <course>0.0</course>
  <speed>0.0</speed>
  <fix>3d</fix>
</trkpt>
<trkpt lat="40.0713749" lon="-105.229789">
  <ele>1583.0</ele>
  <time>2026-08-28T17:48:58Z</time>
  <course>245.96</course>
  <speed>0.0</speed>
  <fix>3d</fix>
</trkpt>
<trkpt lat="40.0713749" lon="-105.229789">
  <ele>1583.0</ele>
  <time>2026-08-28T17:48:58Z</time>
  <course>0.0</course>
  <speed>0.0</speed>
  <fix>3d</fix>
</trkpt>
<trkpt lat="40.0713749" lon="-105.229789">
  <ele>1583.0</ele>
  <time>2026-08-28T17:48:58Z</time>
  <course>246.08</course>
  <speed>0.0</speed>
  <fix>3d</fix>
</trkpt>
<trkpt lat="40.0713749" lon="-105.229789">
  <ele>1583.0</ele>
  <time>2026-08-28T17:48:58Z</time>
  <course>0.0</course>
  <speed>0.0</speed>
  <fix>3d</fix>
</trkpt>
<trkpt lat="40.0713749" lon="-105.229789">
  <ele>1583.0</ele>
  <time>2026-08-28T17:48:58Z</time>
  <course>246.19</course>
  <speed>0.0</speed>
  <fix>3d</fix>
</trkpt>
<trkpt lat="40.0713749" lon="-105.229789">
  <ele>1583.0</ele>
  <time>2026-08-28T17:48:58Z</time>
  <course>0.0</course>
  <speed>0.0</speed>
  <fix>3d</fix>
</trkpt>
<trkpt lat="40.0713749" lon="-105.229789">
  <ele>1583.0</ele>
  <time>2026-08-28T17:48:58Z</time>
  <course>246.3</course>
  <speed>0.0</speed>
  <fix>3d</fix>
</trkpt>
<trkpt lat="40.0713749" lon="-105.229789">
  <ele>1583.0</ele>
  <time>2026-08-28T17:48:58Z</time>
  <course>0.0</course>
  <speed>0.0</speed>
  <fix>3d</fix>
</trkpt>
<trkpt lat="40.0713749" lon="-105.229789">
  <ele>1583.0</ele>
  <time>2026-08-28T17:48:58Z</time>
  <course>246.41</course>
  <speed>0.0</speed>
  <fix>3d</fix>
</trkpt>
<trkpt lat="40.0713749" lon="-105.229789">
  <ele>1583.0</ele>
  <time>2026-08-28T17:48:58Z</time>
  <course>0.0</course>
  <speed>0.0</speed>
  <fix>3d</fix>
</trkpt>
<trkpt lat="40.0713749" lon="-105.229789">
  <ele>1583.0</ele>
  <time>2026-08-28T17:48:58Z</time>
  <course>246.51</course>
  <speed>0.0</speed>
  <fix>3d</fix>
</trkpt>
<trkpt lat="40.0713749" lon="-105.229789">
  <ele>1583.0</ele>
  <time>2026-08-28T17:48:58Z</time>
  <course>0.0</course>
  <speed>0.0</speed>
  <fix>3d</fix>
</trkpt>
<trkpt lat="40.0713749" lon="-105.229789">
  <ele>1583.0</ele>
  <time>2026-08-28T17:48:58Z</time>
  <course>246.6</course>
  <speed>0.0</speed>
  <fix>3d</fix>
</trkpt>
<trkpt lat="40.0713749" lon="-105.229789">
  <ele>1583.0</ele>
  <time>2026-08-28T17:48:58Z</time>
  <course>0.0</course>
  <speed>0.0</speed>
  <fix>3d</fix>
</trkpt>
<trkpt lat="40.0713749" lon="-105.229789">
  <ele>1583.0</ele>
  <time>2026-08-28T17:48:58Z</time>
  <course>246.7</course>
  <speed>0.0</speed>
  <fix>3d</fix>
</trkpt>
<trkpt lat="40.0713749" lon="-105.229789">
  <ele>1583.0</ele>
  <time>2026-08-28T17:48:58Z</time>
  <course>0.0</course>
  <speed>0.0</speed>
  <fix>3d</fix>
</trkpt>
<trkpt lat="40.0713749" lon="-105.229789">
  <ele>1583.0</ele>
  <time>2026-08-28T17:48:58Z</time>
  <course>246.78</course>
  <speed>0.0</speed>
  <fix>3d</fix>
</trkpt>
<trkpt lat="40.0713749" lon="-105.229789">
  <ele>1583.0</ele>
  <time>2026-08-28T17:48:58Z</time>
  <course>0.0</course>
  <speed>0.0</speed>
  <fix>3d</fix>
</trkpt>
<trkpt lat="40.0713749" lon="-105.229789">
  <ele>1583.0</ele>
  <time>2026-08-28T17:48:58Z</time>
  <course>246.87</course>
  <speed>0.0</speed>
  <fix>3d</fix>
</trkpt>
<trkpt lat="40.0713749" lon="-105.229789">
  <ele>1583.0</ele>
  <time>2026-08-28T17:48:58Z</time>
  <course>0.0</course>
  <speed>0.0</speed>
  <fix>3d</fix>
</trkpt>
<trkpt lat="40.0713749" lon="-105.229789">
  <ele>1583.0</ele>
  <time>2026-08-28T17:48:58Z</time>
  <course>246.95</course>
  <speed>0.0</speed>
  <fix>3d</fix>
</trkpt>
<trkpt lat="40.0713749" lon="-105.229789">
  <ele>1583.0</ele>
  <time>2026-08-28T17:48:58Z</time>
  <course>0.0</course>
  <speed>0.0</speed>
  <fix>3d</fix>
</trkpt>
<trkpt lat="40.0713749" lon="-105.229789">
  <ele>1583.0</ele>
  <time>2026-08-28T17:48:58Z</time>
  <course>247.02</course>
  <speed>0.0</speed>
  <fix>3d</fix>
</trkpt>
<trkpt lat="40.0713749" lon="-105.229789">
  <ele>1583.0</ele>
  <time>2026-08-28T17:48:58Z</time>
  <course>0.0</course>
  <speed>0.0</speed>
  <fix>3d</fix>
</trkpt>
<trkpt lat="40.0713749" lon="-105.229789">
  <ele>1583.0</ele>
  <time>2026-08-28T17:48:58Z</time>
  <course>247.1</course>
  <speed>0.0</speed>
  <fix>3d</fix>
</trkpt>
<trkpt lat="40.0713749" lon="-105.229789">
  <ele>1583.0</ele>
  <time>2026-08-28T17:48:58Z</time>
  <course>0.0</course>
  <speed>0.0</speed>
  <fix>3d</fix>
</trkpt>
<trkpt lat="40.0713749" lon="-105.229789">
  <ele>1583.0</ele>
  <time>2026-08-28T17:48:58Z</time>
  <course>247.17</course>
  <speed>0.0</speed>
  <fix>3d</fix>
</trkpt>
<trkpt lat="40.0713749" lon="-105.229789">
  <ele>1583.0</ele>
  <time>2026-08-28T17:48:58Z</time>
  <course>0.0</course>
  <speed>0.0</speed>
  <fix>3d</fix>
</trkpt>
<trkpt lat="40.0713749" lon="-105.229789">
  <ele>1583.0</ele>
  <time>2026-08-28T17:48:58Z</time>
  <course>247.24</course>
  <speed>0.0</speed>
  <fix>3d</fix>
</trkpt>
<trkpt lat="40.0713749" lon="-105.229789">
  <ele>1583.0</ele>
  <time>2026-08-28T17:48:58Z</time>
  <course>0.0</course>
  <speed>0.0</speed>
  <fix>3d</fix>
</trkpt>
<trkpt lat="40.0713749" lon="-105.229789">
  <ele>1583.0</ele>
  <time>2026-08-28T17:48:58Z</time>
  <course>247.3</course>
  <speed>0.0</speed>
  <fix>3d</fix>
</trkpt>
<trkpt lat="40.0713749" lon="-105.229789">
  <ele>1583.0</ele>
  <time>2026-08-28T17:48:58Z</time>
  <course>0.0</course>
  <speed>0.0</speed>
  <fix>3d</fix>
</trkpt>
<trkpt lat="40.0713749" lon="-105.229789">
  <ele>1583.0</ele>
  <time>2026-08-28T17:48:58Z</time>
  <course>247.36</course>
  <speed>0.0</speed>
  <fix>3d</fix>
</trkpt>
<trkpt lat="40.0713749" lon="-105.229789">
  <ele>1583.0</ele>
  <time>2026-08-28T17:48:58Z</time>
  <course>0.0</course>
  <speed>0.0</speed>
  <fix>3d</fix>
</trkpt>
<trkpt lat="40.0713749" lon="-105.229789">
  <ele>1583.0</ele>
  <time>2026-08-28T17:48:58Z</time>
  <course>247.42</course>
  <speed>0.0</speed>
  <fix>3d</fix>
</trkpt>
<trkpt lat="40.0713749" lon="-105.229789">
  <ele>1583.0</ele>
  <time>2026-08-28T17:48:58Z</time>
  <course>0.0</course>
  <speed>0.0</speed>
  <fix>3d</fix>
</trkpt>
<trkpt lat="40.0713749" lon="-105.229789">
  <ele>1583.0</ele>
  <time>2026-08-28T17:48:58Z</time>
  <course>247.47</course>
  <speed>0.0</speed>
  <fix>3d</fix>
</trkpt>
<trkpt lat="40.0713749" lon="-105.229789">
  <ele>1583.0</ele>
  <time>2026-08-28T17:48:58Z</time>
  <course>0.0</course>
  <speed>0.0</speed>
  <fix>3d</fix>
</trkpt>
<trkpt lat="40.0713749" lon="-105.229789">
  <ele>1583.0</ele>
  <time>2026-08-28T17:48:58Z</time>
  <course>247.53</course>
  <speed>0.0</speed>
  <fix>3d</fix>
</trkpt>
<trkpt lat="40.0713749" lon="-105.229789">
  <ele>1583.0</ele>
  <time>2026-08-28T17:48:58Z</time>
  <course>0.0</course>
  <speed>0.0</speed>
  <fix>3d</fix>
</trkpt>
<trkpt lat="40.0713749" lon="-105.229789">
  <ele>1583.0</ele>
  <time>2026-08-28T17:48:58Z</time>
  <course>247.58</course>
  <speed>0.0</speed>
  <fix>3d</fix>
</trkpt>
<trkpt lat="40.0713749" lon="-105.229789">
  <ele>1583.0</ele>
  <time>2026-08-28T17:48:58Z</time>
  <course>0.0</course>
  <speed>0.0</speed>
  <fix>3d</fix>
</trkpt>
<trkpt lat="40.0713749" lon="-105.229789">
  <ele>1583.0</ele>
  <time>2026-08-28T17:48:58Z</time>
  <course>247.63</course>
  <speed>0.0</speed>
  <fix>3d</fix>
</trkpt>
<trkpt lat="40.0713749" lon="-105.229789">
  <ele>1583.0</ele>
  <time>2026-08-28T17:48:58Z</time>
  <course>0.0</course>
  <speed>0.0</speed>
  <fix>3d</fix>
</trkpt>
<trkpt lat="40.0713749" lon="-105.229789">
  <ele>1583.0</ele>
  <time>2026-08-28T17:48:58Z</time>
  <course>247.67</course>
  <speed>0.0</speed>
  <fix>3d</fix>
</trkpt>
<trkpt lat="40.0713749" lon="-105.229789">
  <ele>1583.0</ele>
  <time>2026-08-28T17:48:58Z</time>
  <course>0.0</course>
  <speed>0.0</speed>
  <fix>3d</fix>
</trkpt>
<trkpt lat="40.0713749" lon="-105.229789">
  <ele>1583.0</ele>
  <time>2026-08-28T17:48:58Z</time>
  <course>247.72</course>
  <speed>0.0</speed>
  <fix>3d</fix>
</trkpt>
<trkpt lat="40.0713749" lon="-105.229789">
  <ele>1583.0</ele>
  <time>2026-08-28T17:48:58Z</time>
  <course>0.0</course>
  <speed>0.0</speed>
  <fix>3d</fix>
</trkpt>
<trkpt lat="40.0713749" lon="-105.229789">
  <ele>1583.0</ele>
  <time>2026-08-28T17:48:58Z</time>
  <course>247.76</course>
  <speed>0.0</speed>
  <fix>3d</fix>
</trkpt>
<trkpt lat="40.0713749" lon="-105.229789">
  <ele>1583.0</ele>
  <time>2026-08-28T17:48:58Z</time>
  <course>0.0</course>
  <speed>0.0</speed>
  <fix>3d</fix>
</trkpt>
<trkpt lat="40.0713749" lon="-105.229789">
  <ele>1583.0</ele>
  <time>2026-08-28T17:48:58Z</time>
  <course>247.8</course>
  <speed>0.0</speed>
  <fix>3d</fix>
</trkpt>
<trkpt lat="40.0713749" lon="-105.229789">
  <ele>1583.0</ele>
  <time>2026-08-28T17:48:58Z</time>
  <course>0.0</course>
  <speed>0.0</speed>
  <fix>3d</fix>
</trkpt>
<trkpt lat="40.0713749" lon="-105.229789">
  <ele>1583.0</ele>
  <time>2026-08-28T17:48:58Z</time>
  <course>247.83</course>
  <speed>0.0</speed>
  <fix>3d</fix>
</trkpt>
<trkpt lat="40.0713749" lon="-105.229789">
  <ele>1583.0</ele>
  <time>2026-08-28T17:48:58Z</time>
  <course>0.0</course>
  <speed>0.0</speed>
  <fix>3d</fix>
</trkpt>
<trkpt lat="40.0713749" lon="-105.229789">
  <ele>1583.0</ele>
  <time>2026-08-28T17:48:58Z</time>
  <course>247.87</course>
  <speed>0.0</speed>
  <fix>3d</fix>
</trkpt>
<trkpt lat="40.0713749" lon="-105.229789">
  <ele>1583.0</ele>
  <time>2026-08-28T17:48:58Z</time>
  <course>0.0</course>
  <speed>0.0</speed>
  <fix>3d</fix>
</trkpt>
<trkpt lat="40.0713749" lon="-105.229789">
  <ele>1583.0</ele>
  <time>2026-08-28T17:48:58Z</time>
  <course>247.9</course>
  <speed>0.0</speed>
  <fix>3d</fix>
</trkpt>
<trkpt lat="40.0713749" lon="-105.229789">
  <ele>1583.0</ele>
  <time>2026-08-28T17:48:58Z</time>
  <course>0.0</course>
  <speed>0.0</speed>
  <fix>3d</fix>
</trkpt>
<trkpt lat="40.0713749" lon="-105.229789">
  <ele>1583.0</ele>
  <time>2026-08-28T17:48:58Z</time>
  <course>247.94</course>
  <speed>0.0</speed>
  <fix>3d</fix>
</trkpt>
<trkpt lat="40.0713749" lon="-105.229789">
  <ele>1583.0</ele>
  <time>2026-08-28T17:48:58Z</time>
  <course>0.0</course>
  <speed>0.0</speed>
  <fix>3d</fix>
</trkpt>
<trkpt lat="40.0713749" lon="-105.229789">
  <ele>1583.0</ele>
  <time>2026-08-28T17:48:58Z</time>
  <course>247.97</course>
  <speed>0.0</speed>
  <fix>3d</fix>
</trkpt>
<trkpt lat="40.0713749" lon="-105.229789">
  <ele>1583.0</ele>
  <time>2026-08-28T17:48:58Z</time>
  <course>0.0</course>
  <speed>0.0</speed>
  <fix>3d</fix>
</trkpt>
<trkpt lat="40.0713749" lon="-105.229789">
  <ele>1583.0</ele>
  <time>2026-08-28T17:48:58Z</time>
  <course>248.0</course>
  <speed>0.0</speed>
  <fix>3d</fix>
</trkpt>
<trkpt lat="40.0713749" lon="-105.229789">
  <ele>1583.0</ele>
  <time>2026-08-28T17:48:58Z</time>
  <course>0.0</course>
  <speed>0.0</speed>
  <fix>3d</fix>
</trkpt>
<trkpt lat="40.0713749" lon="-105.229789">
  <ele>1583.0</ele>
  <time>2026-08-28T17:48:58Z</time>
  <course>248.02</course>
  <speed>0.0</speed>
  <fix>3d</fix>
</trkpt>
<trkpt lat="40.0713749" lon="-105.229789">
  <ele>1583.0</ele>
  <time>2026-08-28T17:48:58Z</time>
  <course>0.0</course>
  <speed>0.0</speed>
  <fix>3d</fix>
</trkpt>
<trkpt lat="40.0713749" lon="-105.229789">
  <ele>1583.0</ele>
  <time>2026-08-28T17:48:58Z</time>
  <course>248.05</course>
  <speed>0.0</speed>
  <fix>3d</fix>
</trkpt>
<trkpt lat="40.0713749" lon="-105.229789">
  <ele>1583.0</ele>
  <time>2026-08-28T17:48:58Z</time>
  <course>0.0</course>
  <speed>0.0</speed>
  <fix>3d</fix>
</trkpt>
<trkpt lat="40.0713749" lon="-105.229789">
  <ele>1583.0</ele>
  <time>2026-08-28T17:48:58Z</time>
  <course>248.08</course>
  <speed>0.0</speed>
  <fix>3d</fix>
</trkpt>
<trkpt lat="40.0713749" lon="-105.229789">
  <ele>1583.0</ele>
  <time>2026-08-28T17:48:58Z</time>
  <course>0.0</course>
  <speed>0.0</speed>
  <fix>3d</fix>
</trkpt>
<trkpt lat="40.0713749" lon="-105.229789">
  <ele>1583.0</ele>
  <time>2026-08-28T17:48:58Z</time>
  <course>248.1</course>
  <speed>0.0</speed>
  <fix>3d</fix>
</trkpt>
<trkpt lat="40.0713749" lon="-105.229789">
  <ele>1583.0</ele>
  <time>2026-08-28T17:48:58Z</time>
  <course>0.0</course>
  <speed>0.0</speed>
  <fix>3d</fix>
</trkpt>
<trkpt lat="40.0713749" lon="-105.229789">
  <ele>1583.0</ele>
  <time>2026-08-28T17:48:58Z</time>
  <course>248.12</course>
  <speed>0.0</speed>
  <fix>3d</fix>
</trkpt>
<trkpt lat="40.0713749" lon="-105.229789">
  <ele>1583.0</ele>
  <time>2026-08-28T17:48:58Z</time>
  <course>0.0</course>
  <speed>0.0</speed>
  <fix>3d</fix>
</trkpt>
<trkpt lat="40.0713749" lon="-105.229789">
  <ele>1583.0</ele>
  <time>2026-08-28T17:48:58Z</time>
  <course>248.14</course>
  <speed>0.0</speed>
  <fix>3d</fix>
</trkpt>
<trkpt lat="40.0713749" lon="-105.229789">
  <ele>1583.0</ele>
  <time>2026-08-28T17:48:58Z</time>
  <course>0.0</course>
  <speed>0.0</speed>
  <fix>3d</fix>
</trkpt>
<trkpt lat="40.0713749" lon="-105.229789">
  <ele>1583.0</ele>
  <time>2026-08-28T17:48:58Z</time>
  <course>248.16</course>
  <speed>0.0</speed>
  <fix>3d</fix>
</trkpt>
<trkpt lat="40.0713749" lon="-105.229789">
  <ele>1583.0</ele>
  <time>2026-08-28T17:48:58Z</time>
  <course>0.0</course>
  <speed>0.0</speed>
  <fix>3d</fix>
</trkpt>
<trkpt lat="40.0713749" lon="-105.229789">
  <ele>1583.0</ele>
  <time>2026-08-28T17:48:58Z</time>
  <course>248.18</course>
  <speed>0.0</speed>
  <fix>3d</fix>
</trkpt>
<trkpt lat="40.0713749" lon="-105.229789">
  <ele>1583.0</ele>
  <time>2026-08-28T17:48:58Z</time>
  <course>0.0</course>
  <speed>0.0</speed>
  <fix>3d</fix>
</trkpt>
<trkpt lat="40.0713749" lon="-105.229789">
  <ele>1583.0</ele>
  <time>2026-08-28T17:48:58Z</time>
  <course>248.2</course>
  <speed>0.0</speed>
  <fix>3d</fix>
</trkpt>
<trkpt lat="40.0713749" lon="-105.229789">
  <ele>1583.0</ele>
  <time>2026-08-28T17:48:58Z</time>
  <course>0.0</course>
  <speed>0.0</speed>
  <fix>3d</fix>
</trkpt>
<trkpt lat="40.0713749" lon="-105.229789">
  <ele>1583.0</ele>
  <time>2026-08-28T17:48:58Z</time>
  <course>248.22</course>
  <speed>0.0</speed>
  <fix>3d</fix>
</trkpt>
<trkpt lat="40.0713749" lon="-105.229789">
  <ele>1583.0</ele>
  <time>2026-08-28T17:48:58Z</time>
  <course>0.0</course>
  <speed>0.0</speed>
  <fix>3d</fix>
</trkpt>
<trkpt lat="40.0713749" lon="-105.229789">
  <ele>1583.0</ele>
  <time>2026-08-28T17:48:58Z</time>
  <course>248.23</course>
  <speed>0.0</speed>
  <fix>3d</fix>
</trkpt>
<trkpt lat="40.0713749" lon="-105.229789">
  <ele>1583.0</ele>
  <time>2026-08-28T17:48:58Z</time>
  <course>0.0</course>
  <speed>0.0</speed>
  <fix>3d</fix>
</trkpt>
<trkpt lat="40.0713749" lon="-105.229789">
  <ele>1583.0</ele>
  <time>2026-08-28T17:48:58Z</time>
  <course>248.25</course>
  <speed>0.0</speed>
  <fix>3d</fix>
</trkpt>
<trkpt lat="40.0713749" lon="-105.229789">
  <ele>1583.0</ele>
  <time>2026-08-28T17:48:58Z</time>
  <course>0.0</course>
  <speed>0.0</speed>
  <fix>3d</fix>
</trkpt>
<trkpt lat="40.0713749" lon="-105.229789">
  <ele>1583.0</ele>
  <time>2026-08-28T17:48:58Z</time>
  <course>248.26</course>
  <speed>0.0</speed>
  <fix>3d</fix>
</trkpt>
<trkpt lat="40.0713749" lon="-105.229789">
  <ele>1583.0</ele>
  <time>2026-08-28T17:48:58Z</time>
  <course>0.0</course>
  <speed>0.0</speed>
  <fix>3d</fix>
</trkpt>
<trkpt lat="40.0713749" lon="-105.229789">
  <ele>1583.0</ele>
  <time>2026-08-28T17:48:58Z</time>
  <course>248.28</course>
  <speed>0.0</speed>
  <fix>3d</fix>
</trkpt>
<trkpt lat="40.0713749" lon="-105.229789">
  <ele>1583.0</ele>
  <time>2026-08-28T17:48:58Z</time>
  <course>0.0</course>
  <speed>0.0</speed>
  <fix>3d</fix>
</trkpt>
<trkpt lat="40.0713749" lon="-105.229789">
  <ele>1583.0</ele>
  <time>2026-08-28T17:48:58Z</time>
  <course>248.29</course>
  <speed>0.0</speed>
  <fix>3d</fix>
</trkpt>
<trkpt lat="40.0713749" lon="-105.229789">
  <ele>1583.0</ele>
  <time>2026-08-28T17:48:58Z</time>
  <course>0.0</course>
  <speed>0.0</speed>
  <fix>3d</fix>
</trkpt>
<trkpt lat="40.0713749" lon="-105.229789">
  <ele>1583.0</ele>
  <time>2026-08-28T17:48:58Z</time>
  <course>248.3</course>
  <speed>0.0</speed>
  <fix>3d</fix>
</trkpt>
<trkpt lat="40.0713749" lon="-105.229789">
  <ele>1583.0</ele>
  <time>2026-08-28T17:48:58Z</time>
  <course>0.0</course>
  <speed>0.0</speed>
  <fix>3d</fix>
</trkpt>
<trkpt lat="40.0713749" lon="-105.229789">
  <ele>1583.0</ele>
  <time>2026-08-28T17:48:58Z</time>
  <course>248.31</course>
  <speed>0.0</speed>
  <fix>3d</fix>
</trkpt>
<trkpt lat="40.0713749" lon="-105.229789">
  <ele>1583.0</ele>
  <time>2026-08-28T17:48:58Z</time>
  <course>0.0</course>
  <speed>0.0</speed>
  <fix>3d</fix>
</trkpt>
<trkpt lat="40.0713749" lon="-105.229789">
  <ele>1583.0</ele>
  <time>2026-08-28T17:48:58Z</time>
  <course>248.32</course>
  <speed>0.0</speed>
  <fix>3d</fix>
</trkpt>
<trkpt lat="40.0713749" lon="-105.229789">
  <ele>1583.0</ele>
  <time>2026-08-28T17:48:58Z</time>
  <course>0.0</course>
  <speed>0.0</speed>
  <fix>3d</fix>
</trkpt>
<trkpt lat="40.0713749" lon="-105.229789">
  <ele>1583.0</ele>
  <time>2026-08-28T17:48:58Z</time>
  <course>248.33</course>
  <speed>0.0</speed>
  <fix>3d</fix>
</trkpt>
<trkpt lat="40.0713749" lon="-105.229789">
  <ele>1583.0</ele>
  <time>2026-08-28T17:48:58Z</time>
  <course>0.0</course>
  <speed>0.0</speed>
  <fix>3d</fix>
</trkpt>
<trkpt lat="40.0713749" lon="-105.229789">
  <ele>1583.0</ele>
  <time>2026-08-28T17:48:58Z</time>
  <course>248.34</course>
  <speed>0.0</speed>
  <fix>3d</fix>
</trkpt>
<trkpt lat="40.0713749" lon="-105.229789">
  <ele>1583.0</ele>
  <time>2026-08-28T17:48:58Z</time>
  <course>0.0</course>
  <speed>0.0</speed>
  <fix>3d</fix>
</trkpt>
<trkpt lat="40.0713749" lon="-105.229789">
  <ele>1583.0</ele>
  <time>2026-08-28T17:48:58Z</time>
  <course>248.35</course>
  <speed>0.0</speed>
  <fix>3d</fix>
</trkpt>
<trkpt lat="40.0713749" lon="-105.229789">
  <ele>1583.0</ele>
  <time>2026-08-28T17:48:58Z</time>
  <course>0.0</course>
  <speed>0.0</speed>
  <fix>3d</fix>
</trkpt>
<trkpt lat="40.0713749" lon="-105.229789">
  <ele>1583.0</ele>
  <time>2026-08-28T17:48:58Z</time>
  <course>248.35</course>
  <speed>0.0</speed>
  <fix>3d</fix>
</trkpt>
<trkpt lat="40.0713749" lon="-105.229789">
  <ele>1583.0</ele>
  <time>2026-08-28T17:48:58Z</time>
  <course>0.0</course>
  <speed>0.0</speed>
  <fix>3d</fix>
</trkpt>
<trkpt lat="40.0713749" lon="-105.229789">
  <ele>1583.0</ele>
  <time>2026-08-28T17:48:58Z</time>
  <course>248.36</course>
  <speed>0.0</speed>
  <fix>3d</fix>
</trkpt>
<trkpt lat="40.0713749" lon="-105.229789">
  <ele>1583.0</ele>
  <time>2026-08-28T17:48:58Z</time>
  <course>0.0</course>
  <speed>0.0</speed>
  <fix>3d</fix>
</trkpt>
<trkpt lat="40.0713749" lon="-105.229789">
  <ele>1583.0</ele>
  <time>2026-08-28T17:48:58Z</time>
  <course>248.37</course>
  <speed>0.0</speed>
  <fix>3d</fix>
</trkpt>
<trkpt lat="40.0713749" lon="-105.229789">
  <ele>1583.0</ele>
  <time>2026-08-28T17:48:58Z</time>
  <course>0.0</course>
  <speed>0.0</speed>
  <fix>3d</fix>
</trkpt>
<trkpt lat="40.0713749" lon="-105.229789">
  <ele>1583.0</ele>
  <time>2026-08-28T17:48:58Z</time>
  <course>248.37</course>
  <speed>0.0</speed>
  <fix>3d</fix>
</trkpt>
<trkpt lat="40.0713749" lon="-105.229789">
  <ele>1583.0</ele>
  <time>2026-08-28T17:48:58Z</time>
  <course>0.0</course>
  <speed>0.0</speed>
  <fix>3d</fix>
</trkpt>
<trkpt lat="40.0713749" lon="-105.229789">
  <ele>1583.0</ele>
  <time>2026-08-28T17:48:58Z</time>
  <course>248.38</course>
  <speed>0.0</speed>
  <fix>3d</fix>
</trkpt>
<trkpt lat="40.0713749" lon="-105.229789">
  <ele>1583.0</ele>
  <time>2026-08-28T17:48:58Z</time>
  <course>0.0</course>
  <speed>0.0</speed>
  <fix>3d</fix>
</trkpt>
<trkpt lat="40.0713749" lon="-105.229789">
  <ele>1583.0</ele>
  <time>2026-08-28T17:48:58Z</time>
  <course>248.38</course>
  <speed>0.0</speed>
  <fix>3d</fix>
</trkpt>
<trkpt lat="40.0713749" lon="-105.229789">
  <ele>1583.0</ele>
  <time>2026-08-28T17:48:58Z</time>
  <course>0.0</course>
  <speed>0.0</speed>
  <fix>3d</fix>
</trkpt>
<trkpt lat="40.0713749" lon="-105.229789">
  <ele>1583.0</ele>
  <time>2026-08-28T17:48:58Z</time>
  <course>248.39</course>
  <speed>0.0</speed>
  <fix>3d</fix>
</trkpt>
<trkpt lat="40.0713749" lon="-105.229789">
  <ele>1583.0</ele>
  <time>2026-08-28T17:48:58Z</time>
  <course>0.0</course>
  <speed>0.0</speed>
  <fix>3d</fix>
</trkpt>
<trkpt lat="40.0713749" lon="-105.229789">
  <ele>1583.0</ele>
  <time>2026-08-28T17:48:58Z</time>
  <course>248.39</course>
  <speed>0.0</speed>
  <fix>3d</fix>
</trkpt>
<trkpt lat="40.0713749" lon="-105.229789">
  <ele>1583.0</ele>
  <time>2026-08-28T17:48:58Z</time>
  <course>0.0</course>
  <speed>0.0</speed>
  <fix>3d</fix>
</trkpt>
<trkpt lat="40.0713749" lon="-105.229789">
  <ele>1583.0</ele>
  <time>2026-08-28T17:48:58Z</time>
  <course>248.4</course>
  <speed>0.0</speed>
  <fix>3d</fix>
</trkpt>
<trkpt lat="40.0713749" lon="-105.229789">
  <ele>1583.0</ele>
  <time>2026-08-28T17:48:58Z</time>
  <course>0.0</course>
  <speed>0.0</speed>
  <fix>3d</fix>
</trkpt>
<trkpt lat="40.0713749" lon="-105.229789">
  <ele>1583.0</ele>
  <time>2026-08-28T17:48:58Z</time>
  <course>248.4</course>
  <speed>0.0</speed>
  <fix>3d</fix>
</trkpt>
<trkpt lat="40.0713749" lon="-105.229789">
  <ele>1583.0</ele>
  <time>2026-08-28T17:48:58Z</time>
  <course>0.0</course>
  <speed>0.0</speed>
  <fix>3d</fix>
</trkpt>
<trkpt lat="40.0713749" lon="-105.229789">
  <ele>1583.0</ele>
  <time>2026-08-28T17:48:58Z</time>
  <course>248.4</course>
  <speed>0.0</speed>
  <fix>3d</fix>
</trkpt>
<trkpt lat="40.0713749" lon="-105.229789">
  <ele>1583.0</ele>
  <time>2026-08-28T17:48:58Z</time>
  <course>0.0</course>
  <speed>0.0</speed>
  <fix>3d</fix>
</trkpt>
<trkpt lat="40.0713749" lon="-105.229789">
  <ele>1583.0</ele>
  <time>2026-08-28T17:48:58Z</time>
  <course>248.4</course>
  <speed>0.0</speed>
  <fix>3d</fix>
</trkpt>
<trkpt lat="40.0713749" lon="-105.229789">
  <ele>1583.0</ele>
  <time>2026-08-28T17:48:58Z</time>
  <course>0.0</course>
  <speed>0.0</speed>
  <fix>3d</fix>
</trkpt>
<trkpt lat="40.0713749" lon="-105.229789">
  <ele>1583.0</ele>
  <time>2026-08-28T17:48:58Z</time>
  <course>248.41</course>
  <speed>0.0</speed>
  <fix>3d</fix>
</trkpt>
<trkpt lat="40.0713749" lon="-105.229789">
  <ele>1583.0</ele>
  <time>2026-08-28T17:48:58Z</time>
  <course>0.0</course>
  <speed>0.0</speed>
  <fix>3d</fix>
</trkpt>
<trkpt lat="40.0713749" lon="-105.229789">
  <ele>1583.0</ele>
  <time>2026-08-28T17:48:58Z</time>
  <course>248.41</course>
  <speed>0.0</speed>
  <fix>3d</fix>
</trkpt>
<trkpt lat="40.0713749" lon="-105.229789">
  <ele>1583.0</ele>
  <time>2026-08-28T17:48:58Z</time>
  <course>0.0</course>
  <speed>0.0</speed>
  <fix>3d</fix>
</trkpt>
<trkpt lat="40.0713749" lon="-105.229789">
  <ele>1583.0</ele>
  <time>2026-08-28T17:48:58Z</time>
  <course>248.41</course>
  <speed>0.0</speed>
  <fix>3d</fix>
</trkpt>
<trkpt lat="40.0713749" lon="-105.229789">
  <ele>1583.0</ele>
  <time>2026-08-28T17:48:58Z</time>
  <course>0.0</course>
  <speed>0.0</speed>
  <fix>3d</fix>
</trkpt>
<trkpt lat="40.0713749" lon="-105.229789">
  <ele>1583.0</ele>
  <time>2026-08-28T17:48:58Z</time>
  <course>248.41</course>
  <speed>0.0</speed>
  <fix>3d</fix>
</trkpt>
<trkpt lat="40.0713749" lon="-105.229789">
  <ele>1583.0</ele>
  <time>2026-08-28T17:48:58Z</time>
  <course>0.0</course>
  <speed>0.0</speed>
  <fix>3d</fix>
</trkpt>
<trkpt lat="40.0713749" lon="-105.229789">
  <ele>1583.0</ele>
  <time>2026-08-28T17:48:58Z</time>
  <course>248.41</course>
  <speed>0.0</speed>
  <fix>3d</fix>
</trkpt>
<trkpt lat="40.0713749" lon="-105.229789">
  <ele>1583.0</ele>
  <time>2026-08-28T17:48:58Z</time>
  <course>0.0</course>
  <speed>0.0</speed>
  <fix>3d</fix>
</trkpt>
<trkpt lat="40.0713749" lon="-105.229789">
  <ele>1583.0</ele>
  <time>2026-08-28T17:48:58Z</time>
  <course>248.41</course>
  <speed>0.0</speed>
  <fix>3d</fix>
</trkpt>
<trkpt lat="40.0713749" lon="-105.229789">
  <ele>1583.0</ele>
  <time>2026-08-28T17:48:58Z</time>
  <course>0.0</course>
  <speed>0.0</speed>
  <fix>3d</fix>
</trkpt>
<trkpt lat="40.0713749" lon="-105.229789">
  <ele>1583.0</ele>
  <time>2026-08-28T17:48:58Z</time>
  <course>248.41</course>
  <speed>0.0</speed>
  <fix>3d</fix>
</trkpt>
<trkpt lat="40.0713749" lon="-105.229789">
  <ele>1583.0</ele>
  <time>2026-08-28T17:48:58Z</time>
  <course>0.0</course>
  <speed>0.0</speed>
  <fix>3d</fix>
</trkpt>
<trkpt lat="40.0713749" lon="-105.229789">
  <ele>1583.0</ele>
  <time>2026-08-28T17:48:58Z</time>
  <course>248.41</course>
  <speed>0.0</speed>
  <fix>3d</fix>
</trkpt>
<trkpt lat="40.0713749" lon="-105.229789">
  <ele>1583.0</ele>
  <time>2026-08-28T17:48:58Z</time>
  <course>0.0</course>
  <speed>0.0</speed>
  <fix>3d</fix>
</trkpt>
<trkpt lat="40.0713749" lon="-105.229789">
  <ele>1583.0</ele>
  <time>2026-08-28T17:48:58Z</time>
  <course>248.41</course>
  <speed>0.0</speed>
  <fix>3d</fix>
</trkpt>
<trkpt lat="40.0713749" lon="-105.229789">
  <ele>1583.0</ele>
  <time>2026-08-28T17:48:58Z</time>
  <course>0.0</course>
  <speed>0.0</speed>
  <fix>3d</fix>
</trkpt>
<trkpt lat="40.0713749" lon="-105.229789">
  <ele>1583.0</ele>
  <time>2026-08-28T17:48:58Z</time>
  <course>248.41</course>
  <speed>0.0</speed>
  <fix>3d</fix>
</trkpt>
<trkpt lat="40.0713749" lon="-105.229789">
  <ele>1583.0</ele>
  <time>2026-08-28T17:48:58Z</time>
  <course>0.0</course>
  <speed>0.0</speed>
  <fix>3d</fix>
</trkpt>
<trkpt lat="40.0713749" lon="-105.229789">
  <ele>1583.0</ele>
  <time>2026-08-28T17:48:58Z</time>
  <course>248.41</course>
  <speed>0.0</speed>
  <fix>3d</fix>
</trkpt>
<trkpt lat="40.0713749" lon="-105.229789">
  <ele>1583.0</ele>
  <time>2026-08-28T17:48:58Z</time>
  <course>0.0</course>
  <speed>0.0</speed>
  <fix>3d</fix>
</trkpt>
<trkpt lat="40.0713749" lon="-105.229789">
  <ele>1583.0</ele>
  <time>2026-08-28T17:48:58Z</time>
  <course>248.41</course>
  <speed>0.0</speed>
  <fix>3d</fix>
</trkpt>
<trkpt lat="40.0713749" lon="-105.229789">
  <ele>1583.0</ele>
  <time>2026-08-28T17:48:58Z</time>
  <course>0.0</course>
  <speed>0.0</speed>
  <fix>3d</fix>
</trkpt>
<trkpt lat="40.0713749" lon="-105.229789">
  <ele>1583.0</ele>
  <time>2026-08-28T17:48:58Z</time>
  <course>248.41</course>
  <speed>0.0</speed>
  <fix>3d</fix>
</trkpt>
<trkpt lat="40.0713749" lon="-105.229789">
  <ele>1583.0</ele>
  <time>2026-08-28T17:48:58Z</time>
  <course>0.0</course>
  <speed>0.0</speed>
  <fix>3d</fix>
</trkpt>
<trkpt lat="40.0713749" lon="-105.229789">
  <ele>1583.0</ele>
  <time>2026-08-28T17:48:58Z</time>
  <course>248.41</course>
  <speed>0.0</speed>
  <fix>3d</fix>
</trkpt>
<trkpt lat="40.0713749" lon="-105.229789">
  <ele>1583.0</ele>
  <time>2026-08-28T17:48:58Z</time>
  <course>0.0</course>
  <speed>0.0</speed>
  <fix>3d</fix>
</trkpt>
<trkpt lat="40.0713749" lon="-105.229789">
  <ele>1583.0</ele>
  <time>2026-08-28T17:48:58Z</time>
  <course>248.41</course>
  <speed>0.0</speed>
  <fix>3d</fix>
</trkpt>
<trkpt lat="40.0713749" lon="-105.229789">
  <ele>1583.0</ele>
  <time>2026-08-28T17:48:58Z</time>
  <course>0.0</course>
  <speed>0.0</speed>
  <fix>3d</fix>
</trkpt>
<trkpt lat="40.0713749" lon="-105.229789">
  <ele>1583.0</ele>
  <time>2026-08-28T17:48:58Z</time>
  <course>248.41</course>
  <speed>0.0</speed>
  <fix>3d</fix>
</trkpt>
<trkpt lat="40.0713749" lon="-105.229789">
  <ele>1583.0</ele>
  <time>2026-08-28T17:48:58Z</time>
  <course>0.0</course>
  <speed>0.0</speed>
  <fix>3d</fix>
</trkpt>
<trkpt lat="40.0713749" lon="-105.229789">
  <ele>1583.0</ele>
  <time>2026-08-28T17:48:58Z</time>
  <course>248.4</course>
  <speed>0.0</speed>
  <fix>3d</fix>
</trkpt>
<trkpt lat="40.0713749" lon="-105.229789">
  <ele>1583.0</ele>
  <time>2026-08-28T17:48:58Z</time>
  <course>0.0</course>
  <speed>0.0</speed>
  <fix>3d</fix>
</trkpt>
<trkpt lat="40.0713749" lon="-105.229789">
  <ele>1583.0</ele>
  <time>2026-08-28T17:48:58Z</time>
  <course>248.4</course>
  <speed>0.01</speed>
  <fix>3d</fix>
</trkpt>
<trkpt lat="40.0713749" lon="-105.229789">
  <ele>1583.0</ele>
  <time>2026-08-28T17:48:58Z</time>
  <course>0.0</course>
  <speed>0.0</speed>
  <fix>3d</fix>
</trkpt>
<trkpt lat="40.0713749" lon="-105.229789">
  <ele>1583.0</ele>
  <time>2026-08-28T17:48:58Z</time>
  <course>248.4</course>
  <speed>0.01</speed>
  <fix>3d</fix>
</trkpt>
<trkpt lat="40.0713749" lon="-105.229789">
  <ele>1583.0</ele>
  <time>2026-08-28T17:48:58Z</time>
  <course>0.0</course>
  <speed>0.0</speed>
  <fix>3d</fix>
</trkpt>
<trkpt lat="40.0713749" lon="-105.229789">
  <ele>1583.0</ele>
  <time>2026-08-28T17:48:58Z</time>
  <course>248.4</course>
  <speed>0.01</speed>
  <fix>3d</fix>
</trkpt>
<trkpt lat="40.0713749" lon="-105.229789">
  <ele>1583.0</ele>
  <time>2026-08-28T17:48:58Z</time>
  <course>0.0</course>
  <speed>0.0</speed>
  <fix>3d</fix>
</trkpt>
<trkpt lat="40.0713749" lon="-105.229789">
  <ele>1583.0</ele>
  <time>2026-08-28T17:48:58Z</time>
  <course>248.4</course>
  <speed>0.01</speed>
  <fix>3d</fix>
</trkpt>
<trkpt lat="40.0713749" lon="-105.229789">
  <ele>1583.0</ele>
  <time>2026-08-28T17:48:58Z</time>
  <course>0.0</course>
  <speed>0.0</speed>
  <fix>3d</fix>
</trkpt>
<trkpt lat="40.0713749" lon="-105.229789">
  <ele>1583.0</ele>
  <time>2026-08-28T17:48:58Z</time>
  <course>248.39</course>
  <speed>0.01</speed>
  <fix>3d</fix>
</trkpt>
<trkpt lat="40.0713749" lon="-105.229789">
  <ele>1583.0</ele>
  <time>2026-08-28T17:48:58Z</time>
  <course>0.0</course>
  <speed>0.0</speed>
  <fix>3d</fix>
</trkpt>
<trkpt lat="40.0713749" lon="-105.229789">
  <ele>1583.0</ele>
  <time>2026-08-28T17:48:58Z</time>
  <course>248.39</course>
  <speed>0.01</speed>
  <fix>3d</fix>
</trkpt>
<trkpt lat="40.0713749" lon="-105.229789">
  <ele>1583.0</ele>
  <time>2026-08-28T17:48:58Z</time>
  <course>0.0</course>
  <speed>0.0</speed>
  <fix>3d</fix>
</trkpt>
<trkpt lat="40.0713749" lon="-105.229789">
  <ele>1583.0</ele>
  <time>2026-08-28T17:48:58Z</time>
  <course>248.39</course>
  <speed>0.01</speed>
  <fix>3d</fix>
</trkpt>
<trkpt lat="40.0713749" lon="-105.229789">
  <ele>1583.0</ele>
  <time>2026-08-28T17:48:58Z</time>
  <course>0.0</course>
  <speed>0.0</speed>
  <fix>3d</fix>
</trkpt>
<trkpt lat="40.0713749" lon="-105.229789">
  <ele>1583.0</ele>
  <time>2026-08-28T17:48:58Z</time>
  <course>248.38</course>
  <speed>0.01</speed>
  <fix>3d</fix>
</trkpt>
<trkpt lat="40.0713749" lon="-105.229789">
  <ele>1583.0</ele>
  <time>2026-08-28T17:48:58Z</time>
  <course>0.0</course>
  <speed>0.0</speed>
  <fix>3d</fix>
</trkpt>
<trkpt lat="40.0713749" lon="-105.229789">
  <ele>1583.0</ele>
  <time>2026-08-28T17:48:58Z</time>
  <course>248.38</course>
  <speed>0.01</speed>
  <fix>3d</fix>
</trkpt>
<trkpt lat="40.0713749" lon="-105.229789">
  <ele>1583.0</ele>
  <time>2026-08-28T17:48:58Z</time>
  <course>0.0</course>
  <speed>0.0</speed>
  <fix>3d</fix>
</trkpt>
<trkpt lat="40.0713749" lon="-105.229789">
  <ele>1583.0</ele>
  <time>2026-08-28T17:48:58Z</time>
  <course>248.38</course>
  <speed>0.01</speed>
  <fix>3d</fix>
</trkpt>
<trkpt lat="40.0713749" lon="-105.229789">
  <ele>1583.0</ele>
  <time>2026-08-28T17:48:58Z</time>
  <course>0.0</course>
  <speed>0.0</speed>
  <fix>3d</fix>
</trkpt>
<trkpt lat="40.0713749" lon="-105.229789">
  <ele>1583.0</ele>
  <time>2026-08-28T17:48:58Z</time>
  <course>248.37</course>
  <speed>0.01</speed>
  <fix>3d</fix>
</trkpt>
<trkpt lat="40.0713749" lon="-105.229789">
  <ele>1583.0</ele>
  <time>2026-08-28T17:48:58Z</time>
  <course>0.0</course>
  <speed>0.0</speed>
  <fix>3d</fix>
</trkpt>
<trkpt lat="40.0713749" lon="-105.229789">
  <ele>1583.0</ele>
  <time>2026-08-28T17:48:58Z</time>
  <course>248.37</course>
  <speed>0.01</speed>
  <fix>3d</fix>
</trkpt>
<trkpt lat="40.0713749" lon="-105.229789">
  <ele>1583.0</ele>
  <time>2026-08-28T17:48:59Z</time>
  <course>0.0</course>
  <speed>0.0</speed>
  <fix>3d</fix>
</trkpt>
<trkpt lat="40.0713749" lon="-105.229789">
  <ele>1583.0</ele>
  <time>2026-08-28T17:48:59Z</time>
  <course>248.37</course>
  <speed>0.01</speed>
  <fix>3d</fix>
</trkpt>
<trkpt lat="40.0713749" lon="-105.229789">
  <ele>1583.0</ele>
  <time>2026-08-28T17:48:59Z</time>
  <course>0.0</course>
  <speed>0.0</speed>
  <fix>3d</fix>
</trkpt>
<trkpt lat="40.0713749" lon="-105.229789">
  <ele>1583.0</ele>
  <time>2026-08-28T17:48:59Z</time>
  <course>248.36</course>
  <speed>0.01</speed>
  <fix>3d</fix>
</trkpt>
<trkpt lat="40.0713749" lon="-105.229789">
  <ele>1583.0</ele>
  <time>2026-08-28T17:48:59Z</time>
  <course>0.0</course>
  <speed>0.0</speed>
  <fix>3d</fix>
</trkpt>
<trkpt lat="40.0713749" lon="-105.229789">
  <ele>1583.0</ele>
  <time>2026-08-28T17:48:59Z</time>
  <course>248.36</course>
  <speed>0.01</speed>
  <fix>3d</fix>
</trkpt>
<trkpt lat="40.0713749" lon="-105.229789">
  <ele>1583.0</ele>
  <time>2026-08-28T17:48:59Z</time>
  <course>0.0</course>
  <speed>0.0</speed>
  <fix>3d</fix>
</trkpt>
<trkpt lat="40.0713749" lon="-105.229789">
  <ele>1583.0</ele>
  <time>2026-08-28T17:48:59Z</time>
  <course>248.36</course>
  <speed>0.01</speed>
  <fix>3d</fix>
</trkpt>
<trkpt lat="40.0713749" lon="-105.229789">
  <ele>1583.0</ele>
  <time>2026-08-28T17:48:59Z</time>
  <course>0.0</course>
  <speed>0.0</speed>
  <fix>3d</fix>
</trkpt>
<trkpt lat="40.0713749" lon="-105.229789">
  <ele>1583.0</ele>
  <time>2026-08-28T17:48:59Z</time>
  <course>248.35</course>
  <speed>0.01</speed>
  <fix>3d</fix>
</trkpt>
<trkpt lat="40.0713749" lon="-105.229789">
  <ele>1583.0</ele>
  <time>2026-08-28T17:48:59Z</time>
  <course>0.0</course>
  <speed>0.0</speed>
  <fix>3d</fix>
</trkpt>
<trkpt lat="40.0713749" lon="-105.229789">
  <ele>1583.0</ele>
  <time>2026-08-28T17:48:59Z</time>
  <course>248.35</course>
  <speed>0.01</speed>
  <fix>3d</fix>
</trkpt>
<trkpt lat="40.0713749" lon="-105.229789">
  <ele>1583.0</ele>
  <time>2026-08-28T17:48:59Z</time>
  <course>0.0</course>
  <speed>0.0</speed>
  <fix>3d</fix>
</trkpt>
<trkpt lat="40.0713749" lon="-105.229789">
  <ele>1583.0</ele>
  <time>2026-08-28T17:48:59Z</time>
  <course>248.35</course>
  <speed>0.01</speed>
  <fix>3d</fix>
</trkpt>
<trkpt lat="40.0713749" lon="-105.229789">
  <ele>1583.0</ele>
  <time>2026-08-28T17:48:59Z</time>
  <course>0.0</course>
  <speed>0.0</speed>
  <fix>3d</fix>
</trkpt>
<trkpt lat="40.0713749" lon="-105.229789">
  <ele>1583.0</ele>
  <time>2026-08-28T17:48:59Z</time>
  <course>248.34</course>
  <speed>0.01</speed>
  <fix>3d</fix>
</trkpt>
<trkpt lat="40.0713749" lon="-105.229789">
  <ele>1583.0</ele>
  <time>2026-08-28T17:48:59Z</time>
  <course>0.0</course>
  <speed>0.0</speed>
  <fix>3d</fix>
</trkpt>
<trkpt lat="40.0713749" lon="-105.229789">
  <ele>1583.0</ele>
  <time>2026-08-28T17:48:59Z</time>
  <course>248.34</course>
  <speed>0.01</speed>
  <fix>3d</fix>
</trkpt>
<trkpt lat="40.0713749" lon="-105.229789">
  <ele>1583.0</ele>
  <time>2026-08-28T17:48:59Z</time>
  <course>0.0</course>
  <speed>0.0</speed>
  <fix>3d</fix>
</trkpt>
<trkpt lat="40.0713749" lon="-105.229789">
  <ele>1583.0</ele>
  <time>2026-08-28T17:48:59Z</time>
  <course>248.33</course>
  <speed>0.01</speed>
  <fix>3d</fix>
</trkpt>
<trkpt lat="40.0713749" lon="-105.229789">
  <ele>1583.0</ele>
  <time>2026-08-28T17:48:59Z</time>
  <course>0.0</course>
  <speed>0.0</speed>
  <fix>3d</fix>
</trkpt>
<trkpt lat="40.0713749" lon="-105.229789">
  <ele>1583.0</ele>
  <time>2026-08-28T17:48:59Z</time>
  <course>248.33</course>
  <speed>0.01</speed>
  <fix>3d</fix>
</trkpt>
<trkpt lat="40.0713749" lon="-105.229789">
  <ele>1583.0</ele>
  <time>2026-08-28T17:48:59Z</time>
  <course>0.0</course>
  <speed>0.0</speed>
  <fix>3d</fix>
</trkpt>
<trkpt lat="40.0713749" lon="-105.229789">
  <ele>1583.0</ele>
  <time>2026-08-28T17:48:59Z</time>
  <course>248.32</course>
  <speed>0.01</speed>
  <fix>3d</fix>
</trkpt>
<trkpt lat="40.0713749" lon="-105.229789">
  <ele>1583.0</ele>
  <time>2026-08-28T17:48:59Z</time>
  <course>0.0</course>
  <speed>0.0</speed>
  <fix>3d</fix>
</trkpt>
<trkpt lat="40.0713749" lon="-105.229789">
  <ele>1583.0</ele>
  <time>2026-08-28T17:48:59Z</time>
  <course>248.32</course>
  <speed>0.01</speed>
  <fix>3d</fix>
</trkpt>
<trkpt lat="40.0713749" lon="-105.229789">
  <ele>1583.0</ele>
  <time>2026-08-28T17:48:59Z</time>
  <course>0.0</course>
  <speed>0.0</speed>
  <fix>3d</fix>
</trkpt>
<trkpt lat="40.0713749" lon="-105.229789">
  <ele>1583.0</ele>
  <time>2026-08-28T17:48:59Z</time>
  <course>248.32</course>
  <speed>0.01</speed>
  <fix>3d</fix>
</trkpt>
<trkpt lat="40.0713749" lon="-105.229789">
  <ele>1583.0</ele>
  <time>2026-08-28T17:48:59Z</time>
  <course>0.0</course>
  <speed>0.0</speed>
  <fix>3d</fix>
</trkpt>
<trkpt lat="40.0713749" lon="-105.229789">
  <ele>1583.0</ele>
  <time>2026-08-28T17:48:59Z</time>
  <course>248.31</course>
  <speed>0.01</speed>
  <fix>3d</fix>
</trkpt>
<trkpt lat="40.0713749" lon="-105.229789">
  <ele>1583.0</ele>
  <time>2026-08-28T17:48:59Z</time>
  <course>0.0</course>
  <speed>0.0</speed>
  <fix>3d</fix>
</trkpt>
<trkpt lat="40.0713749" lon="-105.229789">
  <ele>1583.0</ele>
  <time>2026-08-28T17:48:59Z</time>
  <course>248.31</course>
  <speed>0.01</speed>
  <fix>3d</fix>
</trkpt>
<trkpt lat="40.0713749" lon="-105.229789">
  <ele>1583.0</ele>
  <time>2026-08-28T17:48:59Z</time>
  <course>0.0</course>
  <speed>0.0</speed>
  <fix>3d</fix>
</trkpt>
<trkpt lat="40.0713749" lon="-105.229789">
  <ele>1583.0</ele>
  <time>2026-08-28T17:48:59Z</time>
  <course>248.3</course>
  <speed>0.01</speed>
  <fix>3d</fix>
</trkpt>
<trkpt lat="40.0713749" lon="-105.229789">
  <ele>1583.0</ele>
  <time>2026-08-28T17:48:59Z</time>
  <course>0.0</course>
  <speed>0.0</speed>
  <fix>3d</fix>
</trkpt>
<trkpt lat="40.0713749" lon="-105.229789">
  <ele>1583.0</ele>
  <time>2026-08-28T17:48:59Z</time>
  <course>248.3</course>
  <speed>0.01</speed>
  <fix>3d</fix>
</trkpt>
<trkpt lat="40.0713749" lon="-105.229789">
  <ele>1583.0</ele>
  <time>2026-08-28T17:48:59Z</time>
  <course>0.0</course>
  <speed>0.0</speed>
  <fix>3d</fix>
</trkpt>
<trkpt lat="40.0713749" lon="-105.229789">
  <ele>1583.0</ele>
  <time>2026-08-28T17:48:59Z</time>
  <course>248.29</course>
  <speed>0.01</speed>
  <fix>3d</fix>
</trkpt>
<trkpt lat="40.0713749" lon="-105.229789">
  <ele>1583.0</ele>
  <time>2026-08-28T17:48:59Z</time>
  <course>0.0</course>
  <speed>0.0</speed>
  <fix>3d</fix>
</trkpt>
<trkpt lat="40.0713749" lon="-105.229789">
  <ele>1583.0</ele>
  <time>2026-08-28T17:48:59Z</time>
  <course>248.29</course>
  <speed>0.01</speed>
  <fix>3d</fix>
</trkpt>
<trkpt lat="40.0713749" lon="-105.229789">
  <ele>1583.0</ele>
  <time>2026-08-28T17:48:59Z</time>
  <course>0.0</course>
  <speed>0.0</speed>
  <fix>3d</fix>
</trkpt>
<trkpt lat="40.0713749" lon="-105.229789">
  <ele>1583.0</ele>
  <time>2026-08-28T17:48:59Z</time>
  <course>248.28</course>
  <speed>0.01</speed>
  <fix>3d</fix>
</trkpt>
<trkpt lat="40.0713749" lon="-105.229789">
  <ele>1583.0</ele>
  <time>2026-08-28T17:48:59Z</time>
  <course>0.0</course>
  <speed>0.0</speed>
  <fix>3d</fix>
</trkpt>
<trkpt lat="40.0713749" lon="-105.229789">
  <ele>1583.0</ele>
  <time>2026-08-28T17:48:59Z</time>
  <course>248.28</course>
  <speed>0.01</speed>
  <fix>3d</fix>
</trkpt>
<trkpt lat="40.0713749" lon="-105.229789">
  <ele>1583.0</ele>
  <time>2026-08-28T17:48:59Z</time>
  <course>0.0</course>
  <speed>0.0</speed>
  <fix>3d</fix>
</trkpt>
<trkpt lat="40.0713749" lon="-105.229789">
  <ele>1583.0</ele>
  <time>2026-08-28T17:48:59Z</time>
  <course>248.27</course>
  <speed>0.01</speed>
  <fix>3d</fix>
</trkpt>
<trkpt lat="40.0713749" lon="-105.229789">
  <ele>1583.0</ele>
  <time>2026-08-28T17:48:59Z</time>
  <course>0.0</course>
  <speed>0.0</speed>
  <fix>3d</fix>
</trkpt>
<trkpt lat="40.0713749" lon="-105.229789">
  <ele>1583.0</ele>
  <time>2026-08-28T17:48:59Z</time>
  <course>248.27</course>
  <speed>0.01</speed>
  <fix>3d</fix>
</trkpt>
<trkpt lat="40.0713749" lon="-105.229789">
  <ele>1583.0</ele>
  <time>2026-08-28T17:48:59Z</time>
  <course>0.0</course>
  <speed>0.0</speed>
  <fix>3d</fix>
</trkpt>
<trkpt lat="40.0713749" lon="-105.229789">
  <ele>1583.0</ele>
  <time>2026-08-28T17:48:59Z</time>
  <course>248.26</course>
  <speed>0.01</speed>
  <fix>3d</fix>
</trkpt>
<trkpt lat="40.0713749" lon="-105.229789">
  <ele>1583.0</ele>
  <time>2026-08-28T17:48:59Z</time>
  <course>0.0</course>
  <speed>0.0</speed>
  <fix>3d</fix>
</trkpt>
<trkpt lat="40.0713749" lon="-105.229789">
  <ele>1583.0</ele>
  <time>2026-08-28T17:48:59Z</time>
  <course>248.26</course>
  <speed>0.01</speed>
  <fix>3d</fix>
</trkpt>
<trkpt lat="40.0713749" lon="-105.229789">
  <ele>1583.0</ele>
  <time>2026-08-28T17:48:59Z</time>
  <course>0.0</course>
  <speed>0.0</speed>
  <fix>3d</fix>
</trkpt>
<trkpt lat="40.0713749" lon="-105.229789">
  <ele>1583.0</ele>
  <time>2026-08-28T17:48:59Z</time>
  <course>248.26</course>
  <speed>0.01</speed>
  <fix>3d</fix>
</trkpt>
<trkpt lat="40.0713749" lon="-105.229789">
  <ele>1583.0</ele>
  <time>2026-08-28T17:48:59Z</time>
  <course>0.0</course>
  <speed>0.0</speed>
  <fix>3d</fix>
</trkpt>
<trkpt lat="40.0713749" lon="-105.229789">
  <ele>1583.0</ele>
  <time>2026-08-28T17:48:59Z</time>
  <course>248.25</course>
  <speed>0.01</speed>
  <fix>3d</fix>
</trkpt>
<trkpt lat="40.0713749" lon="-105.229789">
  <ele>1583.0</ele>
  <time>2026-08-28T17:48:59Z</time>
  <course>0.0</course>
  <speed>0.0</speed>
  <fix>3d</fix>
</trkpt>
<trkpt lat="40.0713749" lon="-105.229789">
  <ele>1583.0</ele>
  <time>2026-08-28T17:48:59Z</time>
  <course>248.25</course>
  <speed>0.01</speed>
  <fix>3d</fix>
</trkpt>
<trkpt lat="40.0713749" lon="-105.229789">
  <ele>1583.0</ele>
  <time>2026-08-28T17:48:59Z</time>
  <course>0.0</course>
  <speed>0.0</speed>
  <fix>3d</fix>
</trkpt>
<trkpt lat="40.0713749" lon="-105.229789">
  <ele>1583.0</ele>
  <time>2026-08-28T17:48:59Z</time>
  <course>248.24</course>
  <speed>0.01</speed>
  <fix>3d</fix>
</trkpt>
<trkpt lat="40.0713749" lon="-105.229789">
  <ele>1583.0</ele>
  <time>2026-08-28T17:48:59Z</time>
  <course>0.0</course>
  <speed>0.0</speed>
  <fix>3d</fix>
</trkpt>
<trkpt lat="40.0713749" lon="-105.229789">
  <ele>1583.0</ele>
  <time>2026-08-28T17:48:59Z</time>
  <course>248.24</course>
  <speed>0.01</speed>
  <fix>3d</fix>
</trkpt>
<trkpt lat="40.0713749" lon="-105.229789">
  <ele>1583.0</ele>
  <time>2026-08-28T17:48:59Z</time>
  <course>0.0</course>
  <speed>0.0</speed>
  <fix>3d</fix>
</trkpt>
<trkpt lat="40.0713749" lon="-105.229789">
  <ele>1583.0</ele>
  <time>2026-08-28T17:48:59Z</time>
  <course>248.23</course>
  <speed>0.01</speed>
  <fix>3d</fix>
</trkpt>
<trkpt lat="40.0713749" lon="-105.229789">
  <ele>1583.0</ele>
  <time>2026-08-28T17:48:59Z</time>
  <course>0.0</course>
  <speed>0.0</speed>
  <fix>3d</fix>
</trkpt>
<trkpt lat="40.0713749" lon="-105.229789">
  <ele>1583.0</ele>
  <time>2026-08-28T17:48:59Z</time>
  <course>248.23</course>
  <speed>0.01</speed>
  <fix>3d</fix>
</trkpt>
<trkpt lat="40.0713749" lon="-105.229789">
  <ele>1583.0</ele>
  <time>2026-08-28T17:48:59Z</time>
  <course>0.0</course>
  <speed>0.0</speed>
  <fix>3d</fix>
</trkpt>
<trkpt lat="40.0713749" lon="-105.229789">
  <ele>1583.0</ele>
  <time>2026-08-28T17:48:59Z</time>
  <course>248.22</course>
  <speed>0.01</speed>
  <fix>3d</fix>
</trkpt>
<trkpt lat="40.0713749" lon="-105.229789">
  <ele>1583.0</ele>
  <time>2026-08-28T17:48:59Z</time>
  <course>0.0</course>
  <speed>0.0</speed>
  <fix>3d</fix>
</trkpt>
<trkpt lat="40.0713749" lon="-105.229789">
  <ele>1583.0</ele>
  <time>2026-08-28T17:48:59Z</time>
  <course>248.22</course>
  <speed>0.01</speed>
  <fix>3d</fix>
</trkpt>
<trkpt lat="40.0713749" lon="-105.229789">
  <ele>1583.0</ele>
  <time>2026-08-28T17:48:59Z</time>
  <course>0.0</course>
  <speed>0.0</speed>
  <fix>3d</fix>
</trkpt>
<trkpt lat="40.0713749" lon="-105.229789">
  <ele>1583.0</ele>
  <time>2026-08-28T17:48:59Z</time>
  <course>248.21</course>
  <speed>0.01</speed>
  <fix>3d</fix>
</trkpt>
<trkpt lat="40.0713749" lon="-105.229789">
  <ele>1583.0</ele>
  <time>2026-08-28T17:48:59Z</time>
  <course>0.0</course>
  <speed>0.0</speed>
  <fix>3d</fix>
</trkpt>
<trkpt lat="40.0713749" lon="-105.229789">
  <ele>1583.0</ele>
  <time>2026-08-28T17:48:59Z</time>
  <course>248.21</course>
  <speed>0.01</speed>
  <fix>3d</fix>
</trkpt>
<trkpt lat="40.0713749" lon="-105.229789">
  <ele>1583.0</ele>
  <time>2026-08-28T17:48:59Z</time>
  <course>0.0</course>
  <speed>0.0</speed>
  <fix>3d</fix>
</trkpt>
<trkpt lat="40.0713749" lon="-105.229789">
  <ele>1583.0</ele>
  <time>2026-08-28T17:48:59Z</time>
  <course>248.2</course>
  <speed>0.01</speed>
  <fix>3d</fix>
</trkpt>
<trkpt lat="40.0713749" lon="-105.229789">
  <ele>1583.0</ele>
  <time>2026-08-28T17:48:59Z</time>
  <course>0.0</course>
  <speed>0.0</speed>
  <fix>3d</fix>
</trkpt>
<trkpt lat="40.0713749" lon="-105.229789">
  <ele>1583.0</ele>
  <time>2026-08-28T17:48:59Z</time>
  <course>248.2</course>
  <speed>0.01</speed>
  <fix>3d</fix>
</trkpt>
<trkpt lat="40.0713749" lon="-105.229789">
  <ele>1583.0</ele>
  <time>2026-08-28T17:48:59Z</time>
  <course>0.0</course>
  <speed>0.0</speed>
  <fix>3d</fix>
</trkpt>
<trkpt lat="40.0713749" lon="-105.229789">
  <ele>1583.0</ele>
  <time>2026-08-28T17:48:59Z</time>
  <course>248.19</course>
  <speed>0.01</speed>
  <fix>3d</fix>
</trkpt>
<trkpt lat="40.0713749" lon="-105.229789">
  <ele>1583.0</ele>
  <time>2026-08-28T17:48:59Z</time>
  <course>0.0</course>
  <speed>0.0</speed>
  <fix>3d</fix>
</trkpt>
<trkpt lat="40.0713749" lon="-105.229789">
  <ele>1583.0</ele>
  <time>2026-08-28T17:48:59Z</time>
  <course>248.19</course>
  <speed>0.01</speed>
  <fix>3d</fix>
</trkpt>
<trkpt lat="40.0713749" lon="-105.229789">
  <ele>1583.0</ele>
  <time>2026-08-28T17:48:59Z</time>
  <course>0.0</course>
  <speed>0.0</speed>
  <fix>3d</fix>
</trkpt>
<trkpt lat="40.0713749" lon="-105.229789">
  <ele>1583.0</ele>
  <time>2026-08-28T17:48:59Z</time>
  <course>248.18</course>
  <speed>0.01</speed>
  <fix>3d</fix>
</trkpt>
<trkpt lat="40.0713749" lon="-105.229789">
  <ele>1583.0</ele>
  <time>2026-08-28T17:48:59Z</time>
  <course>0.0</course>
  <speed>0.0</speed>
  <fix>3d</fix>
</trkpt>
<trkpt lat="40.0713749" lon="-105.229789">
  <ele>1583.0</ele>
  <time>2026-08-28T17:48:59Z</time>
  <course>248.18</course>
  <speed>0.01</speed>
  <fix>3d</fix>
</trkpt>
<trkpt lat="40.0713749" lon="-105.229789">
  <ele>1583.0</ele>
  <time>2026-08-28T17:48:59Z</time>
  <course>0.0</course>
  <speed>0.0</speed>
  <fix>3d</fix>
</trkpt>
<trkpt lat="40.0713749" lon="-105.229789">
  <ele>1583.0</ele>
  <time>2026-08-28T17:48:59Z</time>
  <course>248.17</course>
  <speed>0.022360679774997897</speed>
  <fix>3d</fix>
</trkpt>
<trkpt lat="40.0713749" lon="-105.229789">
  <ele>1583.0</ele>
  <time>2026-08-28T17:48:59Z</time>
  <course>0.0</course>
  <speed>0.0</speed>
  <fix>3d</fix>
</trkpt>
<trkpt lat="40.0713749" lon="-105.229789">
  <ele>1583.0</ele>
  <time>2026-08-28T17:48:59Z</time>
  <course>248.17</course>
  <speed>0.022360679774997897</speed>
  <fix>3d</fix>
</trkpt>
<trkpt lat="40.0713749" lon="-105.229789">
  <ele>1583.0</ele>
  <time>2026-08-28T17:48:59Z</time>
  <course>0.0</course>
  <speed>0.0</speed>
  <fix>3d</fix>
</trkpt>
<trkpt lat="40.0713749" lon="-105.229789">
  <ele>1583.0</ele>
  <time>2026-08-28T17:48:59Z</time>
  <course>248.16</course>
  <speed>0.022360679774997897</speed>
  <fix>3d</fix>
</trkpt>
<trkpt lat="40.0713749" lon="-105.229789">
  <ele>1583.0</ele>
  <time>2026-08-28T17:48:59Z</time>
  <course>0.0</course>
  <speed>0.0</speed>
  <fix>3d</fix>
</trkpt>
<trkpt lat="40.0713749" lon="-105.229789">
  <ele>1583.0</ele>
  <time>2026-08-28T17:48:59Z</time>
  <course>248.16</course>
  <speed>0.022360679774997897</speed>
  <fix>3d</fix>
</trkpt>
<trkpt lat="40.0713749" lon="-105.229789">
  <ele>1583.0</ele>
  <time>2026-08-28T17:48:59Z</time>
  <course>0.0</course>
  <speed>0.0</speed>
  <fix>3d</fix>
</trkpt>
<trkpt lat="40.0713749" lon="-105.229789">
  <ele>1583.0</ele>
  <time>2026-08-28T17:48:59Z</time>
  <course>248.15</course>
  <speed>0.022360679774997897</speed>
  <fix>3d</fix>
</trkpt>
<trkpt lat="40.0713749" lon="-105.229789">
  <ele>1583.0</ele>
  <time>2026-08-28T17:48:59Z</time>
  <course>0.0</course>
  <speed>0.0</speed>
  <fix>3d</fix>
</trkpt>
<trkpt lat="40.0713749" lon="-105.229789">
  <ele>1583.0</ele>
  <time>2026-08-28T17:48:59Z</time>
  <course>248.15</course>
  <speed>0.022360679774997897</speed>
  <fix>3d</fix>
</trkpt>
<trkpt lat="40.0713749" lon="-105.229789">
  <ele>1583.0</ele>
  <time>2026-08-28T17:48:59Z</time>
  <course>0.0</course>
  <speed>0.0</speed>
  <fix>3d</fix>
</trkpt>
<trkpt lat="40.0713749" lon="-105.229789">
  <ele>1583.0</ele>
  <time>2026-08-28T17:48:59Z</time>
  <course>248.14</course>
  <speed>0.022360679774997897</speed>
  <fix>3d</fix>
</trkpt>
<trkpt lat="40.0713749" lon="-105.229789">
  <ele>1583.0</ele>
  <time>2026-08-28T17:48:59Z</time>
  <course>0.0</course>
  <speed>0.0</speed>
  <fix>3d</fix>
</trkpt>
<trkpt lat="40.0713749" lon="-105.229789">
  <ele>1583.0</ele>
  <time>2026-08-28T17:48:59Z</time>
  <course>248.14</course>
  <speed>0.022360679774997897</speed>
  <fix>3d</fix>
</trkpt>
<trkpt lat="40.0713749" lon="-105.229789">
  <ele>1583.0</ele>
  <time>2026-08-28T17:48:59Z</time>
  <course>0.0</course>
  <speed>0.0</speed>
  <fix>3d</fix>
</trkpt>
<trkpt lat="40.0713749" lon="-105.229789">
  <ele>1583.0</ele>
  <time>2026-08-28T17:48:59Z</time>
  <course>248.13</course>
  <speed>0.022360679774997897</speed>
  <fix>3d</fix>
</trkpt>
<trkpt lat="40.0713749" lon="-105.229789">
  <ele>1583.0</ele>
  <time>2026-08-28T17:48:59Z</time>
  <course>0.0</course>
  <speed>0.0</speed>
  <fix>3d</fix>
</trkpt>
<trkpt lat="40.0713749" lon="-105.229789">
  <ele>1583.0</ele>
  <time>2026-08-28T17:48:59Z</time>
  <course>248.13</course>
  <speed>0.022360679774997897</speed>
  <fix>3d</fix>
</trkpt>
<trkpt lat="40.0713749" lon="-105.229789">
  <ele>1583.0</ele>
  <time>2026-08-28T17:48:59Z</time>
  <course>0.0</course>
  <speed>0.0</speed>
  <fix>3d</fix>
</trkpt>
<trkpt lat="40.0713749" lon="-105.229789">
  <ele>1583.0</ele>
  <time>2026-08-28T17:48:59Z</time>
  <course>248.12</course>
  <speed>0.022360679774997897</speed>
  <fix>3d</fix>
</trkpt>
<trkpt lat="40.0713749" lon="-105.229789">
  <ele>1583.0</ele>
  <time>2026-08-28T17:48:59Z</time>
  <course>0.0</course>
  <speed>0.0</speed>
  <fix>3d</fix>
</trkpt>
<trkpt lat="40.0713749" lon="-105.229789">
  <ele>1583.0</ele>
  <time>2026-08-28T17:48:59Z</time>
  <course>248.12</course>
  <speed>0.022360679774997897</speed>
  <fix>3d</fix>
</trkpt>
<trkpt lat="40.0713749" lon="-105.229789">
  <ele>1583.0</ele>
  <time>2026-08-28T17:48:59Z</time>
  <course>0.0</course>
  <speed>0.0</speed>
  <fix>3d</fix>
</trkpt>
<trkpt lat="40.0713749" lon="-105.229789">
  <ele>1583.0</ele>
  <time>2026-08-28T17:48:59Z</time>
  <course>248.11</course>
  <speed>0.022360679774997897</speed>
  <fix>3d</fix>
</trkpt>
<trkpt lat="40.0713749" lon="-105.229789">
  <ele>1583.0</ele>
  <time>2026-08-28T17:48:59Z</time>
  <course>0.0</course>
  <speed>0.0</speed>
  <fix>3d</fix>
</trkpt>
<trkpt lat="40.0713749" lon="-105.229789">
  <ele>1583.0</ele>
  <time>2026-08-28T17:48:59Z</time>
  <course>248.11</course>
  <speed>0.022360679774997897</speed>
  <fix>3d</fix>
</trkpt>
<trkpt lat="40.0713749" lon="-105.229789">
  <ele>1583.0</ele>
  <time>2026-08-28T17:48:59Z</time>
  <course>0.0</course>
  <speed>0.0</speed>
  <fix>3d</fix>
</trkpt>
<trkpt lat="40.0713749" lon="-105.229789">
  <ele>1583.0</ele>
  <time>2026-08-28T17:48:59Z</time>
  <course>248.1</course>
  <speed>0.022360679774997897</speed>
  <fix>3d</fix>
</trkpt>
<trkpt lat="40.0713749" lon="-105.229789">
  <ele>1583.0</ele>
  <time>2026-08-28T17:48:59Z</time>
  <course>0.0</course>
  <speed>0.0</speed>
  <fix>3d</fix>
</trkpt>
<trkpt lat="40.0713749" lon="-105.229789">
  <ele>1583.0</ele>
  <time>2026-08-28T17:48:59Z</time>
  <course>248.1</course>
  <speed>0.022360679774997897</speed>
  <fix>3d</fix>
</trkpt>
<trkpt lat="40.0713749" lon="-105.229789">
  <ele>1583.0</ele>
  <time>2026-08-28T17:48:59Z</time>
  <course>0.0</course>
  <speed>0.0</speed>
  <fix>3d</fix>
</trkpt>
<trkpt lat="40.0713749" lon="-105.229789">
  <ele>1583.0</ele>
  <time>2026-08-28T17:48:59Z</time>
  <course>248.09</course>
  <speed>0.022360679774997897</speed>
  <fix>3d</fix>
</trkpt>
<trkpt lat="40.0713749" lon="-105.229789">
  <ele>1583.0</ele>
  <time>2026-08-28T17:48:59Z</time>
  <course>0.0</course>
  <speed>0.0</speed>
  <fix>3d</fix>
</trkpt>
<trkpt lat="40.0713749" lon="-105.229789">
  <ele>1583.0</ele>
  <time>2026-08-28T17:48:59Z</time>
  <course>248.09</course>
  <speed>0.022360679774997897</speed>
  <fix>3d</fix>
</trkpt>
<trkpt lat="40.0713749" lon="-105.229789">
  <ele>1583.0</ele>
  <time>2026-08-28T17:48:59Z</time>
  <course>0.0</course>
  <speed>0.0</speed>
  <fix>3d</fix>
</trkpt>
<trkpt lat="40.0713749" lon="-105.229789">
  <ele>1583.0</ele>
  <time>2026-08-28T17:48:59Z</time>
  <course>248.08</course>
  <speed>0.022360679774997897</speed>
  <fix>3d</fix>
</trkpt>
<trkpt lat="40.0713749" lon="-105.229789">
  <ele>1583.0</ele>
  <time>2026-08-28T17:48:59Z</time>
  <course>0.0</course>
  <speed>0.0</speed>
  <fix>3d</fix>
</trkpt>
<trkpt lat="40.0713749" lon="-105.229789">
  <ele>1583.0</ele>
  <time>2026-08-28T17:48:59Z</time>
  <course>248.08</course>
  <speed>0.022360679774997897</speed>
  <fix>3d</fix>
</trkpt>
<trkpt lat="40.0713749" lon="-105.229789">
  <ele>1583.0</ele>
  <time>2026-08-28T17:48:59Z</time>
  <course>0.0</course>
  <speed>0.0</speed>
  <fix>3d</fix>
</trkpt>
<trkpt lat="40.0713749" lon="-105.229789">
  <ele>1583.0</ele>
  <time>2026-08-28T17:48:59Z</time>
  <course>248.07</course>
  <speed>0.022360679774997897</speed>
  <fix>3d</fix>
</trkpt>
<trkpt lat="40.0713749" lon="-105.229789">
  <ele>1583.0</ele>
  <time>2026-08-28T17:48:59Z</time>
  <course>0.0</course>
  <speed>0.0</speed>
  <fix>3d</fix>
</trkpt>
<trkpt lat="40.0713749" lon="-105.229789">
  <ele>1583.0</ele>
  <time>2026-08-28T17:48:59Z</time>
  <course>248.07</course>
  <speed>0.022360679774997897</speed>
  <fix>3d</fix>
</trkpt>
<trkpt lat="40.0713749" lon="-105.229789">
  <ele>1583.0</ele>
  <time>2026-08-28T17:48:59Z</time>
  <course>0.0</course>
  <speed>0.0</speed>
  <fix>3d</fix>
</trkpt>
<trkpt lat="40.0713749" lon="-105.229789">
  <ele>1583.0</ele>
  <time>2026-08-28T17:48:59Z</time>
  <course>248.06</course>
  <speed>0.022360679774997897</speed>
  <fix>3d</fix>
</trkpt>
<trkpt lat="40.0713749" lon="-105.229789">
  <ele>1583.0</ele>
  <time>2026-08-28T17:48:59Z</time>
  <course>0.0</course>
  <speed>0.0</speed>
  <fix>3d</fix>
</trkpt>
<trkpt lat="40.0713749" lon="-105.229789">
  <ele>1583.0</ele>
  <time>2026-08-28T17:48:59Z</time>
  <course>248.06</course>
  <speed>0.022360679774997897</speed>
  <fix>3d</fix>
</trkpt>
<trkpt lat="40.0713749" lon="-105.229789">
  <ele>1583.0</ele>
  <time>2026-08-28T17:48:59Z</time>
  <course>0.0</course>
  <speed>0.0</speed>
  <fix>3d</fix>
</trkpt>
<trkpt lat="40.0713749" lon="-105.229789">
  <ele>1583.0</ele>
  <time>2026-08-28T17:48:59Z</time>
  <course>248.05</course>
  <speed>0.022360679774997897</speed>
  <fix>3d</fix>
</trkpt>
<trkpt lat="40.0713749" lon="-105.229789">
  <ele>1583.0</ele>
  <time>2026-08-28T17:48:59Z</time>
  <course>0.0</course>
  <speed>0.0</speed>
  <fix>3d</fix>
</trkpt>
<trkpt lat="40.0713749" lon="-105.229789">
  <ele>1583.0</ele>
  <time>2026-08-28T17:48:59Z</time>
  <course>248.05</course>
  <speed>0.022360679774997897</speed>
  <fix>3d</fix>
</trkpt>
<trkpt lat="40.0713749" lon="-105.229789">
  <ele>1583.0</ele>
  <time>2026-08-28T17:48:59Z</time>
  <course>0.0</course>
  <speed>0.0</speed>
  <fix>3d</fix>
</trkpt>
<trkpt lat="40.0713749" lon="-105.229789">
  <ele>1583.0</ele>
  <time>2026-08-28T17:48:59Z</time>
  <course>248.05</course>
  <speed>0.022360679774997897</speed>
  <fix>3d</fix>
</trkpt>
<trkpt lat="40.0713749" lon="-105.229789">
  <ele>1583.0</ele>
  <time>2026-08-28T17:48:59Z</time>
  <course>0.0</course>
  <speed>0.0</speed>
  <fix>3d</fix>
</trkpt>
<trkpt lat="40.0713749" lon="-105.229789">
  <ele>1583.0</ele>
  <time>2026-08-28T17:48:59Z</time>
  <course>248.04</course>
  <speed>0.022360679774997897</speed>
  <fix>3d</fix>
</trkpt>
<trkpt lat="40.0713749" lon="-105.229789">
  <ele>1583.0</ele>
  <time>2026-08-28T17:48:59Z</time>
  <course>0.0</course>
  <speed>0.0</speed>
  <fix>3d</fix>
</trkpt>
<trkpt lat="40.0713749" lon="-105.229789">
  <ele>1583.0</ele>
  <time>2026-08-28T17:48:59Z</time>
  <course>248.04</course>
  <speed>0.022360679774997897</speed>
  <fix>3d</fix>
</trkpt>
<trkpt lat="40.0713749" lon="-105.229789">
  <ele>1583.0</ele>
  <time>2026-08-28T17:48:59Z</time>
  <course>0.0</course>
  <speed>0.0</speed>
  <fix>3d</fix>
</trkpt>
<trkpt lat="40.0713749" lon="-105.229789">
  <ele>1583.0</ele>
  <time>2026-08-28T17:48:59Z</time>
  <course>248.03</course>
  <speed>0.022360679774997897</speed>
  <fix>3d</fix>
</trkpt>
<trkpt lat="40.0713749" lon="-105.229789">
  <ele>1583.0</ele>
  <time>2026-08-28T17:48:59Z</time>
  <course>0.0</course>
  <speed>0.0</speed>
  <fix>3d</fix>
</trkpt>
<trkpt lat="40.0713749" lon="-105.229789">
  <ele>1583.0</ele>
  <time>2026-08-28T17:48:59Z</time>
  <course>248.03</course>
  <speed>0.022360679774997897</speed>
  <fix>3d</fix>
</trkpt>
<trkpt lat="40.0713749" lon="-105.229789">
  <ele>1583.0</ele>
  <time>2026-08-28T17:48:59Z</time>
  <course>0.0</course>
  <speed>0.0</speed>
  <fix>3d</fix>
</trkpt>
<trkpt lat="40.0713749" lon="-105.229789">
  <ele>1583.0</ele>
  <time>2026-08-28T17:48:59Z</time>
  <course>248.02</course>
  <speed>0.022360679774997897</speed>
  <fix>3d</fix>
</trkpt>
<trkpt lat="40.0713749" lon="-105.229789">
  <ele>1583.0</ele>
  <time>2026-08-28T17:48:59Z</time>
  <course>0.0</course>
  <speed>0.0</speed>
  <fix>3d</fix>
</trkpt>
<trkpt lat="40.0713749" lon="-105.229789">
  <ele>1583.0</ele>
  <time>2026-08-28T17:48:59Z</time>
  <course>248.02</course>
  <speed>0.022360679774997897</speed>
  <fix>3d</fix>
</trkpt>
<trkpt lat="40.0713749" lon="-105.229789">
  <ele>1583.0</ele>
  <time>2026-08-28T17:48:59Z</time>
  <course>0.0</course>
  <speed>0.0</speed>
  <fix>3d</fix>
</trkpt>
<trkpt lat="40.0713749" lon="-105.229789">
  <ele>1583.0</ele>
  <time>2026-08-28T17:48:59Z</time>
  <course>248.01</course>
  <speed>0.022360679774997897</speed>
  <fix>3d</fix>
</trkpt>
<trkpt lat="40.0713749" lon="-105.229789">
  <ele>1583.0</ele>
  <time>2026-08-28T17:48:59Z</time>
  <course>0.0</course>
  <speed>0.0</speed>
  <fix>3d</fix>
</trkpt>
<trkpt lat="40.0713749" lon="-105.229789">
  <ele>1583.0</ele>
  <time>2026-08-28T17:48:59Z</time>
  <course>248.01</course>
  <speed>0.022360679774997897</speed>
  <fix>3d</fix>
</trkpt>
<trkpt lat="40.0713749" lon="-105.229789">
  <ele>1583.0</ele>
  <time>2026-08-28T17:48:59Z</time>
  <course>0.0</course>
  <speed>0.0</speed>
  <fix>3d</fix>
</trkpt>
<trkpt lat="40.0713749" lon="-105.229789">
  <ele>1583.0</ele>
  <time>2026-08-28T17:48:59Z</time>
  <course>248.0</course>
  <speed>0.022360679774997897</speed>
  <fix>3d</fix>
</trkpt>
<trkpt lat="40.0713749" lon="-105.229789">
  <ele>1583.0</ele>
  <time>2026-08-28T17:48:59Z</time>
  <course>0.0</course>
  <speed>0.0</speed>
  <fix>3d</fix>
</trkpt>
<trkpt lat="40.0713749" lon="-105.229789">
  <ele>1583.0</ele>
  <time>2026-08-28T17:48:59Z</time>
  <course>248.0</course>
  <speed>0.022360679774997897</speed>
  <fix>3d</fix>
</trkpt>
<trkpt lat="40.0713749" lon="-105.229789">
  <ele>1583.0</ele>
  <time>2026-08-28T17:48:59Z</time>
  <course>0.0</course>
  <speed>0.0</speed>
  <fix>3d</fix>
</trkpt>
<trkpt lat="40.0713749" lon="-105.229789">
  <ele>1583.0</ele>
  <time>2026-08-28T17:48:59Z</time>
  <course>247.99</course>
  <speed>0.022360679774997897</speed>
  <fix>3d</fix>
</trkpt>
<trkpt lat="40.0713749" lon="-105.229789">
  <ele>1583.0</ele>
  <time>2026-08-28T17:48:59Z</time>
  <course>0.0</course>
  <speed>0.0</speed>
  <fix>3d</fix>
</trkpt>
<trkpt lat="40.0713749" lon="-105.229789">
  <ele>1583.0</ele>
  <time>2026-08-28T17:48:59Z</time>
  <course>247.99</course>
  <speed>0.022360679774997897</speed>
  <fix>3d</fix>
</trkpt>
<trkpt lat="40.0713749" lon="-105.229789">
  <ele>1583.0</ele>
  <time>2026-08-28T17:48:59Z</time>
  <course>0.0</course>
  <speed>0.0</speed>
  <fix>3d</fix>
</trkpt>
<trkpt lat="40.0713749" lon="-105.229789">
  <ele>1583.0</ele>
  <time>2026-08-28T17:48:59Z</time>
  <course>247.99</course>
  <speed>0.022360679774997897</speed>
  <fix>3d</fix>
</trkpt>
<trkpt lat="40.0713749" lon="-105.229789">
  <ele>1583.0</ele>
  <time>2026-08-28T17:48:59Z</time>
  <course>0.0</course>
  <speed>0.0</speed>
  <fix>3d</fix>
</trkpt>
<trkpt lat="40.0713749" lon="-105.229789">
  <ele>1583.0</ele>
  <time>2026-08-28T17:48:59Z</time>
  <course>247.98</course>
  <speed>0.022360679774997897</speed>
  <fix>3d</fix>
</trkpt>
<trkpt lat="40.0713749" lon="-105.229789">
  <ele>1583.0</ele>
  <time>2026-08-28T17:48:59Z</time>
  <course>0.0</course>
  <speed>0.0</speed>
  <fix>3d</fix>
</trkpt>
<trkpt lat="40.0713749" lon="-105.229789">
  <ele>1583.0</ele>
  <time>2026-08-28T17:48:59Z</time>
  <course>247.98</course>
  <speed>0.022360679774997897</speed>
  <fix>3d</fix>
</trkpt>
<trkpt lat="40.0713749" lon="-105.229789">
  <ele>1583.0</ele>
  <time>2026-08-28T17:48:59Z</time>
  <course>0.0</course>
  <speed>0.0</speed>
  <fix>3d</fix>
</trkpt>
<trkpt lat="40.0713749" lon="-105.229789">
  <ele>1583.0</ele>
  <time>2026-08-28T17:48:59Z</time>
  <course>247.97</course>
  <speed>0.022360679774997897</speed>
  <fix>3d</fix>
</trkpt>
<trkpt lat="40.0713749" lon="-105.229789">
  <ele>1583.0</ele>
  <time>2026-08-28T17:48:59Z</time>
  <course>0.0</course>
  <speed>0.0</speed>
  <fix>3d</fix>
</trkpt>
<trkpt lat="40.0713749" lon="-105.229789">
  <ele>1583.0</ele>
  <time>2026-08-28T17:48:59Z</time>
  <course>247.97</course>
  <speed>0.022360679774997897</speed>
  <fix>3d</fix>
</trkpt>
<trkpt lat="40.0713749" lon="-105.229789">
  <ele>1583.0</ele>
  <time>2026-08-28T17:48:59Z</time>
  <course>0.0</course>
  <speed>0.0</speed>
  <fix>3d</fix>
</trkpt>
<trkpt lat="39.655741" lon="-104.1383097">
  <ele>1566.58</ele>
  <time>2026-08-28T17:48:59Z</time>
  <course>0.0</course>
  <speed>0.0</speed>
  <fix>3d</fix>
</trkpt>
<trkpt lat="40.0713749" lon="-105.229789">
  <ele>1583.0</ele>
  <time>2026-08-28T17:48:59Z</time>
  <course>0.0</course>
  <speed>0.0</speed>
  <fix>3d</fix>
</trkpt>
<trkpt lat="40.0713749" lon="-105.229789">
  <ele>1583.0</ele>
  <time>2026-08-28T17:48:59Z</time>
  <course>238.36</course>
  <speed>0.0</speed>
  <fix>3d</fix>
</trkpt>
<trkpt lat="40.0713749" lon="-105.229789">
  <ele>1583.0</ele>
  <time>2026-08-28T17:48:59Z</time>
  <course>0.0</course>
  <speed>0.0</speed>
  <fix>3d</fix>
</trkpt>
<trkpt lat="40.0713749" lon="-105.229789">
  <ele>1583.0</ele>
  <time>2026-08-28T17:48:59Z</time>
  <course>238.44</course>
  <speed>0.0</speed>
  <fix>3d</fix>
</trkpt>
<trkpt lat="40.0713749" lon="-105.229789">
  <ele>1583.0</ele>
  <time>2026-08-28T17:48:59Z</time>
  <course>0.0</course>
  <speed>0.0</speed>
  <fix>3d</fix>
</trkpt>
<trkpt lat="40.0713749" lon="-105.229789">
  <ele>1583.0</ele>
  <time>2026-08-28T17:48:59Z</time>
  <course>238.64</course>
  <speed>0.0</speed>
  <fix>3d</fix>
</trkpt>
<trkpt lat="40.0713749" lon="-105.229789">
  <ele>1583.0</ele>
  <time>2026-08-28T17:48:59Z</time>
  <course>0.0</course>
  <speed>0.0</speed>
  <fix>3d</fix>
</trkpt>
<trkpt lat="40.0713749" lon="-105.229789">
  <ele>1583.0</ele>
  <time>2026-08-28T17:48:59Z</time>
  <course>238.93</course>
  <speed>0.0</speed>
  <fix>3d</fix>
</trkpt>
<trkpt lat="40.0713749" lon="-105.229789">
  <ele>1583.0</ele>
  <time>2026-08-28T17:48:59Z</time>
  <course>0.0</course>
  <speed>0.0</speed>
  <fix>3d</fix>
</trkpt>
<trkpt lat="40.0713749" lon="-105.229789">
  <ele>1583.0</ele>
  <time>2026-08-28T17:48:59Z</time>
  <course>239.26</course>
  <speed>0.0</speed>
  <fix>3d</fix>
</trkpt>
<trkpt lat="40.0713749" lon="-105.229789">
  <ele>1583.0</ele>
  <time>2026-08-28T17:48:59Z</time>
  <course>0.0</course>
  <speed>0.0</speed>
  <fix>3d</fix>
</trkpt>
<trkpt lat="40.0713749" lon="-105.229789">
  <ele>1583.0</ele>
  <time>2026-08-28T17:48:59Z</time>
  <course>239.61</course>
  <speed>0.0</speed>
  <fix>3d</fix>
</trkpt>
<trkpt lat="40.0713749" lon="-105.229789">
  <ele>1583.0</ele>
  <time>2026-08-28T17:48:59Z</time>
  <course>0.0</course>
  <speed>0.0</speed>
  <fix>3d</fix>
</trkpt>
<trkpt lat="40.0713749" lon="-105.229789">
  <ele>1583.0</ele>
  <time>2026-08-28T17:48:59Z</time>
  <course>239.96</course>
  <speed>0.0</speed>
  <fix>3d</fix>
</trkpt>
<trkpt lat="40.0713749" lon="-105.229789">
  <ele>1583.0</ele>
  <time>2026-08-28T17:48:59Z</time>
  <course>0.0</course>
  <speed>0.0</speed>
  <fix>3d</fix>
</trkpt>
<trkpt lat="40.0713749" lon="-105.229789">
  <ele>1583.0</ele>
  <time>2026-08-28T17:48:59Z</time>
  <course>240.29</course>
  <speed>0.0</speed>
  <fix>3d</fix>
</trkpt>
<trkpt lat="40.0713749" lon="-105.229789">
  <ele>1583.0</ele>
  <time>2026-08-28T17:48:59Z</time>
  <course>0.0</course>
  <speed>0.0</speed>
  <fix>3d</fix>
</trkpt>
<trkpt lat="40.0713749" lon="-105.229789">
  <ele>1583.0</ele>
  <time>2026-08-28T17:48:59Z</time>
  <course>240.61</course>
  <speed>0.0</speed>
  <fix>3d</fix>
</trkpt>
<trkpt lat="40.0713749" lon="-105.229789">
  <ele>1583.0</ele>
  <time>2026-08-28T17:48:59Z</time>
  <course>0.0</course>
  <speed>0.0</speed>
  <fix>3d</fix>
</trkpt>
<trkpt lat="40.0713749" lon="-105.229789">
  <ele>1583.0</ele>
  <time>2026-08-28T17:48:59Z</time>
  <course>240.92</course>
  <speed>0.0</speed>
  <fix>3d</fix>
</trkpt>
<trkpt lat="40.0713749" lon="-105.229789">
  <ele>1583.0</ele>
  <time>2026-08-28T17:48:59Z</time>
  <course>0.0</course>
  <speed>0.0</speed>
  <fix>3d</fix>
</trkpt>
<trkpt lat="40.0713749" lon="-105.229789">
  <ele>1583.0</ele>
  <time>2026-08-28T17:48:59Z</time>
  <course>241.21</course>
  <speed>0.0</speed>
  <fix>3d</fix>
</trkpt>
<trkpt lat="40.0713749" lon="-105.229789">
  <ele>1583.0</ele>
  <time>2026-08-28T17:48:59Z</time>
  <course>0.0</course>
  <speed>0.0</speed>
  <fix>3d</fix>
</trkpt>
<trkpt lat="40.0713749" lon="-105.229789">
  <ele>1583.0</ele>
  <time>2026-08-28T17:48:59Z</time>
  <course>241.49</course>
  <speed>0.0</speed>
  <fix>3d</fix>
</trkpt>
<trkpt lat="40.0713749" lon="-105.229789">
  <ele>1583.0</ele>
  <time>2026-08-28T17:48:59Z</time>
  <course>0.0</course>
  <speed>0.0</speed>
  <fix>3d</fix>
</trkpt>
<trkpt lat="40.0713749" lon="-105.229789">
  <ele>1583.0</ele>
  <time>2026-08-28T17:48:59Z</time>
  <course>241.77</course>
  <speed>0.0</speed>
  <fix>3d</fix>
</trkpt>
<trkpt lat="40.0713749" lon="-105.229789">
  <ele>1583.0</ele>
  <time>2026-08-28T17:48:59Z</time>
  <course>0.0</course>
  <speed>0.0</speed>
  <fix>3d</fix>
</trkpt>
<trkpt lat="40.0713749" lon="-105.229789">
  <ele>1583.0</ele>
  <time>2026-08-28T17:48:59Z</time>
  <course>242.03</course>
  <speed>0.0</speed>
  <fix>3d</fix>
</trkpt>
<trkpt lat="40.0713749" lon="-105.229789">
  <ele>1583.0</ele>
  <time>2026-08-28T17:48:59Z</time>
  <course>0.0</course>
  <speed>0.0</speed>
  <fix>3d</fix>
</trkpt>
<trkpt lat="40.0713749" lon="-105.229789">
  <ele>1583.0</ele>
  <time>2026-08-28T17:48:59Z</time>
  <course>242.29</course>
  <speed>0.0</speed>
  <fix>3d</fix>
</trkpt>
<trkpt lat="40.0713749" lon="-105.229789">
  <ele>1583.0</ele>
  <time>2026-08-28T17:48:59Z</time>
  <course>0.0</course>
  <speed>0.0</speed>
  <fix>3d</fix>
</trkpt>
<trkpt lat="40.0713749" lon="-105.229789">
  <ele>1583.0</ele>
  <time>2026-08-28T17:48:59Z</time>
  <course>242.54</course>
  <speed>0.0</speed>
  <fix>3d</fix>
</trkpt>
<trkpt lat="40.0713749" lon="-105.229789">
  <ele>1583.0</ele>
  <time>2026-08-28T17:48:59Z</time>
  <course>0.0</course>
  <speed>0.0</speed>
  <fix>3d</fix>
</trkpt>
<trkpt lat="40.0713749" lon="-105.229789">
  <ele>1583.0</ele>
  <time>2026-08-28T17:48:59Z</time>
  <course>242.79</course>
  <speed>0.0</speed>
  <fix>3d</fix>
</trkpt>
<trkpt lat="40.0713749" lon="-105.229789">
  <ele>1583.0</ele>
  <time>2026-08-28T17:48:59Z</time>
  <course>0.0</course>
  <speed>0.0</speed>
  <fix>3d</fix>
</trkpt>
<trkpt lat="40.0713749" lon="-105.229789">
  <ele>1583.0</ele>
  <time>2026-08-28T17:48:59Z</time>
  <course>243.02</course>
  <speed>0.0</speed>
  <fix>3d</fix>
</trkpt>
<trkpt lat="40.0713749" lon="-105.229789">
  <ele>1583.0</ele>
  <time>2026-08-28T17:48:59Z</time>
  <course>0.0</course>
  <speed>0.0</speed>
  <fix>3d</fix>
</trkpt>
<trkpt lat="40.0713749" lon="-105.229789">
  <ele>1583.0</ele>
  <time>2026-08-28T17:48:59Z</time>
  <course>243.25</course>
  <speed>0.0</speed>
  <fix>3d</fix>
</trkpt>
<trkpt lat="40.0713749" lon="-105.229789">
  <ele>1583.0</ele>
  <time>2026-08-28T17:48:59Z</time>
  <course>0.0</course>
  <speed>0.0</speed>
  <fix>3d</fix>
</trkpt>
<trkpt lat="40.0713749" lon="-105.229789">
  <ele>1583.0</ele>
  <time>2026-08-28T17:48:59Z</time>
  <course>243.47</course>
  <speed>0.0</speed>
  <fix>3d</fix>
</trkpt>
<trkpt lat="40.0713749" lon="-105.229789">
  <ele>1583.0</ele>
  <time>2026-08-28T17:48:59Z</time>
  <course>0.0</course>
  <speed>0.0</speed>
  <fix>3d</fix>
</trkpt>
<trkpt lat="40.0713749" lon="-105.229789">
  <ele>1583.0</ele>
  <time>2026-08-28T17:48:59Z</time>
  <course>243.68</course>
  <speed>0.0</speed>
  <fix>3d</fix>
</trkpt>
<trkpt lat="40.0713749" lon="-105.229789">
  <ele>1583.0</ele>
  <time>2026-08-28T17:48:59Z</time>
  <course>0.0</course>
  <speed>0.0</speed>
  <fix>3d</fix>
</trkpt>
<trkpt lat="40.0713749" lon="-105.229789">
  <ele>1583.0</ele>
  <time>2026-08-28T17:48:59Z</time>
  <course>243.89</course>
  <speed>0.0</speed>
  <fix>3d</fix>
</trkpt>
<trkpt lat="40.0713749" lon="-105.229789">
  <ele>1583.0</ele>
  <time>2026-08-28T17:48:59Z</time>
  <course>0.0</course>
  <speed>0.0</speed>
  <fix>3d</fix>
</trkpt>
<trkpt lat="40.0713749" lon="-105.229789">
  <ele>1583.0</ele>
  <time>2026-08-28T17:48:59Z</time>
  <course>244.09</course>
  <speed>0.0</speed>
  <fix>3d</fix>
</trkpt>
<trkpt lat="40.0713749" lon="-105.229789">
  <ele>1583.0</ele>
  <time>2026-08-28T17:48:59Z</time>
  <course>0.0</course>
  <speed>0.0</speed>
  <fix>3d</fix>
</trkpt>
<trkpt lat="40.0713749" lon="-105.229789">
  <ele>1583.0</ele>
  <time>2026-08-28T17:48:59Z</time>
  <course>244.28</course>
  <speed>0.0</speed>
  <fix>3d</fix>
</trkpt>
<trkpt lat="40.0713749" lon="-105.229789">
  <ele>1583.0</ele>
  <time>2026-08-28T17:48:59Z</time>
  <course>0.0</course>
  <speed>0.0</speed>
  <fix>3d</fix>
</trkpt>
<trkpt lat="40.0713749" lon="-105.229789">
  <ele>1583.0</ele>
  <time>2026-08-28T17:48:59Z</time>
  <course>244.46</course>
  <speed>0.0</speed>
  <fix>3d</fix>
</trkpt>
<trkpt lat="40.0713749" lon="-105.229789">
  <ele>1583.0</ele>
  <time>2026-08-28T17:48:59Z</time>
  <course>0.0</course>
  <speed>0.0</speed>
  <fix>3d</fix>
</trkpt>
<trkpt lat="40.0713749" lon="-105.229789">
  <ele>1583.0</ele>
  <time>2026-08-28T17:48:59Z</time>
  <course>244.64</course>
  <speed>0.0</speed>
  <fix>3d</fix>
</trkpt>
<trkpt lat="40.0713749" lon="-105.229789">
  <ele>1583.0</ele>
  <time>2026-08-28T17:48:59Z</time>
  <course>0.0</course>
  <speed>0.0</speed>
  <fix>3d</fix>
</trkpt>
<trkpt lat="40.0713749" lon="-105.229789">
  <ele>1583.0</ele>
  <time>2026-08-28T17:48:59Z</time>
  <course>244.81</course>
  <speed>0.0</speed>
  <fix>3d</fix>
</trkpt>
<trkpt lat="40.0713749" lon="-105.229789">
  <ele>1583.0</ele>
  <time>2026-08-28T17:48:59Z</time>
  <course>0.0</course>
  <speed>0.0</speed>
  <fix>3d</fix>
</trkpt>
<trkpt lat="40.0713749" lon="-105.229789">
  <ele>1583.0</ele>
  <time>2026-08-28T17:48:59Z</time>
  <course>244.97</course>
  <speed>0.0</speed>
  <fix>3d</fix>
</trkpt>
<trkpt lat="40.0713749" lon="-105.229789">
  <ele>1583.0</ele>
  <time>2026-08-28T17:48:59Z</time>
  <course>0.0</course>
  <speed>0.0</speed>
  <fix>3d</fix>
</trkpt>
<trkpt lat="40.0713749" lon="-105.229789">
  <ele>1583.0</ele>
  <time>2026-08-28T17:48:59Z</time>
  <course>245.13</course>
  <speed>0.0</speed>
  <fix>3d</fix>
</trkpt>
<trkpt lat="40.0713749" lon="-105.229789">
  <ele>1583.0</ele>
  <time>2026-08-28T17:48:59Z</time>
  <course>0.0</course>
  <speed>0.0</speed>
  <fix>3d</fix>
</trkpt>
<trkpt lat="40.0713749" lon="-105.229789">
  <ele>1583.0</ele>
  <time>2026-08-28T17:48:59Z</time>
  <course>245.29</course>
  <speed>0.0</speed>
  <fix>3d</fix>
</trkpt>
<trkpt lat="40.0713749" lon="-105.229789">
  <ele>1583.0</ele>
  <time>2026-08-28T17:48:59Z</time>
  <course>0.0</course>
  <speed>0.0</speed>
  <fix>3d</fix>
</trkpt>
<trkpt lat="40.0713749" lon="-105.229789">
  <ele>1583.0</ele>
  <time>2026-08-28T17:48:59Z</time>
  <course>245.43</course>
  <speed>0.0</speed>
  <fix>3d</fix>
</trkpt>
<trkpt lat="40.0713749" lon="-105.229789">
  <ele>1583.0</ele>
  <time>2026-08-28T17:48:59Z</time>
  <course>0.0</course>
  <speed>0.0</speed>
  <fix>3d</fix>
</trkpt>
<trkpt lat="40.0713749" lon="-105.229789">
  <ele>1583.0</ele>
  <time>2026-08-28T17:48:59Z</time>
  <course>245.57</course>
  <speed>0.0</speed>
  <fix>3d</fix>
</trkpt>
<trkpt lat="40.0713749" lon="-105.229789">
  <ele>1583.0</ele>
  <time>2026-08-28T17:48:59Z</time>
  <course>0.0</course>
  <speed>0.0</speed>
  <fix>3d</fix>
</trkpt>
<trkpt lat="40.0713749" lon="-105.229789">
  <ele>1583.0</ele>
  <time>2026-08-28T17:48:59Z</time>
  <course>245.71</course>
  <speed>0.0</speed>
  <fix>3d</fix>
</trkpt>
<trkpt lat="40.0713749" lon="-105.229789">
  <ele>1583.0</ele>
  <time>2026-08-28T17:48:59Z</time>
  <course>0.0</course>
  <speed>0.0</speed>
  <fix>3d</fix>
</trkpt>
<trkpt lat="40.0713749" lon="-105.229789">
  <ele>1583.0</ele>
  <time>2026-08-28T17:48:59Z</time>
  <course>245.84</course>
  <speed>0.0</speed>
  <fix>3d</fix>
</trkpt>
<trkpt lat="40.0713749" lon="-105.229789">
  <ele>1583.0</ele>
  <time>2026-08-28T17:48:59Z</time>
  <course>0.0</course>
  <speed>0.0</speed>
  <fix>3d</fix>
</trkpt>
<trkpt lat="40.0713749" lon="-105.229789">
  <ele>1583.0</ele>
  <time>2026-08-28T17:48:59Z</time>
  <course>245.96</course>
  <speed>0.0</speed>
  <fix>3d</fix>
</trkpt>
<trkpt lat="40.0713749" lon="-105.229789">
  <ele>1583.0</ele>
  <time>2026-08-28T17:48:59Z</time>
  <course>0.0</course>
  <speed>0.0</speed>
  <fix>3d</fix>
</trkpt>
<trkpt lat="40.0713749" lon="-105.229789">
  <ele>1583.0</ele>
  <time>2026-08-28T17:48:59Z</time>
  <course>246.08</course>
  <speed>0.0</speed>
  <fix>3d</fix>
</trkpt>
<trkpt lat="40.0713749" lon="-105.229789">
  <ele>1583.0</ele>
  <time>2026-08-28T17:48:59Z</time>
  <course>0.0</course>
  <speed>0.0</speed>
  <fix>3d</fix>
</trkpt>
<trkpt lat="40.0713749" lon="-105.229789">
  <ele>1583.0</ele>
  <time>2026-08-28T17:48:59Z</time>
  <course>246.19</course>
  <speed>0.0</speed>
  <fix>3d</fix>
</trkpt>
<trkpt lat="40.0713749" lon="-105.229789">
  <ele>1583.0</ele>
  <time>2026-08-28T17:48:59Z</time>
  <course>0.0</course>
  <speed>0.0</speed>
  <fix>3d</fix>
</trkpt>
<trkpt lat="40.0713749" lon="-105.229789">
  <ele>1583.0</ele>
  <time>2026-08-28T17:48:59Z</time>
  <course>246.3</course>
  <speed>0.0</speed>
  <fix>3d</fix>
</trkpt>
<trkpt lat="40.0713749" lon="-105.229789">
  <ele>1583.0</ele>
  <time>2026-08-28T17:48:59Z</time>
  <course>0.0</course>
  <speed>0.0</speed>
  <fix>3d</fix>
</trkpt>
<trkpt lat="40.0713749" lon="-105.229789">
  <ele>1583.0</ele>
  <time>2026-08-28T17:48:59Z</time>
  <course>246.41</course>
  <speed>0.0</speed>
  <fix>3d</fix>
</trkpt>
<trkpt lat="40.0713749" lon="-105.229789">
  <ele>1583.0</ele>
  <time>2026-08-28T17:48:59Z</time>
  <course>0.0</course>
  <speed>0.0</speed>
  <fix>3d</fix>
</trkpt>
<trkpt lat="40.0713749" lon="-105.229789">
  <ele>1583.0</ele>
  <time>2026-08-28T17:48:59Z</time>
  <course>246.51</course>
  <speed>0.0</speed>
  <fix>3d</fix>
</trkpt>
<trkpt lat="40.0713749" lon="-105.229789">
  <ele>1583.0</ele>
  <time>2026-08-28T17:48:59Z</time>
  <course>0.0</course>
  <speed>0.0</speed>
  <fix>3d</fix>
</trkpt>
<trkpt lat="40.0713749" lon="-105.229789">
  <ele>1583.0</ele>
  <time>2026-08-28T17:48:59Z</time>
  <course>246.6</course>
  <speed>0.0</speed>
  <fix>3d</fix>
</trkpt>
<trkpt lat="40.0713749" lon="-105.229789">
  <ele>1583.0</ele>
  <time>2026-08-28T17:48:59Z</time>
  <course>0.0</course>
  <speed>0.0</speed>
  <fix>3d</fix>
</trkpt>
<trkpt lat="40.0713749" lon="-105.229789">
  <ele>1583.0</ele>
  <time>2026-08-28T17:48:59Z</time>
  <course>246.7</course>
  <speed>0.0</speed>
  <fix>3d</fix>
</trkpt>
<trkpt lat="40.0713749" lon="-105.229789">
  <ele>1583.0</ele>
  <time>2026-08-28T17:48:59Z</time>
  <course>0.0</course>
  <speed>0.0</speed>
  <fix>3d</fix>
</trkpt>
<trkpt lat="40.0713749" lon="-105.229789">
  <ele>1583.0</ele>
  <time>2026-08-28T17:48:59Z</time>
  <course>246.78</course>
  <speed>0.0</speed>
  <fix>3d</fix>
</trkpt>
<trkpt lat="40.0713749" lon="-105.229789">
  <ele>1583.0</ele>
  <time>2026-08-28T17:48:59Z</time>
  <course>0.0</course>
  <speed>0.0</speed>
  <fix>3d</fix>
</trkpt>
<trkpt lat="40.0713749" lon="-105.229789">
  <ele>1583.0</ele>
  <time>2026-08-28T17:48:59Z</time>
  <course>246.87</course>
  <speed>0.0</speed>
  <fix>3d</fix>
</trkpt>
<trkpt lat="40.0713749" lon="-105.229789">
  <ele>1583.0</ele>
  <time>2026-08-28T17:48:59Z</time>
  <course>0.0</course>
  <speed>0.0</speed>
  <fix>3d</fix>
</trkpt>
<trkpt lat="40.0713749" lon="-105.229789">
  <ele>1583.0</ele>
  <time>2026-08-28T17:48:59Z</time>
  <course>246.95</course>
  <speed>0.0</speed>
  <fix>3d</fix>
</trkpt>
<trkpt lat="40.0713749" lon="-105.229789">
  <ele>1583.0</ele>
  <time>2026-08-28T17:48:59Z</time>
  <course>0.0</course>
  <speed>0.0</speed>
  <fix>3d</fix>
</trkpt>
<trkpt lat="40.0713749" lon="-105.229789">
  <ele>1583.0</ele>
  <time>2026-08-28T17:48:59Z</time>
  <course>247.02</course>
  <speed>0.0</speed>
  <fix>3d</fix>
</trkpt>
<trkpt lat="40.0713749" lon="-105.229789">
  <ele>1583.0</ele>
  <time>2026-08-28T17:48:59Z</time>
  <course>0.0</course>
  <speed>0.0</speed>
  <fix>3d</fix>
</trkpt>
<trkpt lat="40.0713749" lon="-105.229789">
  <ele>1583.0</ele>
  <time>2026-08-28T17:48:59Z</time>
  <course>247.1</course>
  <speed>0.0</speed>
  <fix>3d</fix>
</trkpt>
<trkpt lat="40.0713749" lon="-105.229789">
  <ele>1583.0</ele>
  <time>2026-08-28T17:48:59Z</time>
  <course>0.0</course>
  <speed>0.0</speed>
  <fix>3d</fix>
</trkpt>
<trkpt lat="40.0713749" lon="-105.229789">
  <ele>1583.0</ele>
  <time>2026-08-28T17:48:59Z</time>
  <course>247.17</course>
  <speed>0.0</speed>
  <fix>3d</fix>
</trkpt>
<trkpt lat="40.0713749" lon="-105.229789">
  <ele>1583.0</ele>
  <time>2026-08-28T17:48:59Z</time>
  <course>0.0</course>
  <speed>0.0</speed>
  <fix>3d</fix>
</trkpt>
<trkpt lat="40.0713749" lon="-105.229789">
  <ele>1583.0</ele>
  <time>2026-08-28T17:48:59Z</time>
  <course>247.24</course>
  <speed>0.0</speed>
  <fix>3d</fix>
</trkpt>
<trkpt lat="40.0713749" lon="-105.229789">
  <ele>1583.0</ele>
  <time>2026-08-28T17:48:59Z</time>
  <course>0.0</course>
  <speed>0.0</speed>
  <fix>3d</fix>
</trkpt>
<trkpt lat="40.0713749" lon="-105.229789">
  <ele>1583.0</ele>
  <time>2026-08-28T17:48:59Z</time>
  <course>247.3</course>
  <speed>0.0</speed>
  <fix>3d</fix>
</trkpt>
<trkpt lat="40.0713749" lon="-105.229789">
  <ele>1583.0</ele>
  <time>2026-08-28T17:48:59Z</time>
  <course>0.0</course>
  <speed>0.0</speed>
  <fix>3d</fix>
</trkpt>
<trkpt lat="40.0713749" lon="-105.229789">
  <ele>1583.0</ele>
  <time>2026-08-28T17:48:59Z</time>
  <course>247.36</course>
  <speed>0.0</speed>
  <fix>3d</fix>
</trkpt>
<trkpt lat="40.0713749" lon="-105.229789">
  <ele>1583.0</ele>
  <time>2026-08-28T17:48:59Z</time>
  <course>0.0</course>
  <speed>0.0</speed>
  <fix>3d</fix>
</trkpt>
<trkpt lat="40.0713749" lon="-105.229789">
  <ele>1583.0</ele>
  <time>2026-08-28T17:48:59Z</time>
  <course>247.42</course>
  <speed>0.0</speed>
  <fix>3d</fix>
</trkpt>
<trkpt lat="40.0713749" lon="-105.229789">
  <ele>1583.0</ele>
  <time>2026-08-28T17:48:59Z</time>
  <course>0.0</course>
  <speed>0.0</speed>
  <fix>3d</fix>
</trkpt>
<trkpt lat="40.0713749" lon="-105.229789">
  <ele>1583.0</ele>
  <time>2026-08-28T17:48:59Z</time>
  <course>247.47</course>
  <speed>0.0</speed>
  <fix>3d</fix>
</trkpt>
<trkpt lat="40.0713749" lon="-105.229789">
  <ele>1583.0</ele>
  <time>2026-08-28T17:48:59Z</time>
  <course>0.0</course>
  <speed>0.0</speed>
  <fix>3d</fix>
</trkpt>
<trkpt lat="40.0713749" lon="-105.229789">
  <ele>1583.0</ele>
  <time>2026-08-28T17:48:59Z</time>
  <course>247.53</course>
  <speed>0.0</speed>
  <fix>3d</fix>
</trkpt>
<trkpt lat="40.0713749" lon="-105.229789">
  <ele>1583.0</ele>
  <time>2026-08-28T17:48:59Z</time>
  <course>0.0</course>
  <speed>0.0</speed>
  <fix>3d</fix>
</trkpt>
<trkpt lat="40.0713749" lon="-105.229789">
  <ele>1583.0</ele>
  <time>2026-08-28T17:48:59Z</time>
  <course>247.58</course>
  <speed>0.0</speed>
  <fix>3d</fix>
</trkpt>
<trkpt lat="40.0713749" lon="-105.229789">
  <ele>1583.0</ele>
  <time>2026-08-28T17:48:59Z</time>
  <course>0.0</course>
  <speed>0.0</speed>
  <fix>3d</fix>
</trkpt>
<trkpt lat="40.0713749" lon="-105.229789">
  <ele>1583.0</ele>
  <time>2026-08-28T17:48:59Z</time>
  <course>247.63</course>
  <speed>0.0</speed>
  <fix>3d</fix>
</trkpt>
<trkpt lat="40.0713749" lon="-105.229789">
  <ele>1583.0</ele>
  <time>2026-08-28T17:48:59Z</time>
  <course>0.0</course>
  <speed>0.0</speed>
  <fix>3d</fix>
</trkpt>
<trkpt lat="40.0713749" lon="-105.229789">
  <ele>1583.0</ele>
  <time>2026-08-28T17:48:59Z</time>
  <course>247.67</course>
  <speed>0.0</speed>
  <fix>3d</fix>
</trkpt>
<trkpt lat="40.0713749" lon="-105.229789">
  <ele>1583.0</ele>
  <time>2026-08-28T17:48:59Z</time>
  <course>0.0</course>
  <speed>0.0</speed>
  <fix>3d</fix>
</trkpt>
<trkpt lat="40.0713749" lon="-105.229789">
  <ele>1583.0</ele>
  <time>2026-08-28T17:48:59Z</time>
  <course>247.72</course>
  <speed>0.0</speed>
  <fix>3d</fix>
</trkpt>
<trkpt lat="40.0713749" lon="-105.229789">
  <ele>1583.0</ele>
  <time>2026-08-28T17:48:59Z</time>
  <course>0.0</course>
  <speed>0.0</speed>
  <fix>3d</fix>
</trkpt>
<trkpt lat="40.0713749" lon="-105.229789">
  <ele>1583.0</ele>
  <time>2026-08-28T17:48:59Z</time>
  <course>247.76</course>
  <speed>0.0</speed>
  <fix>3d</fix>
</trkpt>
<trkpt lat="40.0713749" lon="-105.229789">
  <ele>1583.0</ele>
  <time>2026-08-28T17:48:59Z</time>
  <course>0.0</course>
  <speed>0.0</speed>
  <fix>3d</fix>
</trkpt>
<trkpt lat="40.0713749" lon="-105.229789">
  <ele>1583.0</ele>
  <time>2026-08-28T17:48:59Z</time>
  <course>247.8</course>
  <speed>0.0</speed>
  <fix>3d</fix>
</trkpt>
<trkpt lat="40.0713749" lon="-105.229789">
  <ele>1583.0</ele>
  <time>2026-08-28T17:48:59Z</time>
  <course>0.0</course>
  <speed>0.0</speed>
  <fix>3d</fix>
</trkpt>
<trkpt lat="40.0713749" lon="-105.229789">
  <ele>1583.0</ele>
  <time>2026-08-28T17:48:59Z</time>
  <course>247.83</course>
  <speed>0.0</speed>
  <fix>3d</fix>
</trkpt>
<trkpt lat="40.0713749" lon="-105.229789">
  <ele>1583.0</ele>
  <time>2026-08-28T17:48:59Z</time>
  <course>0.0</course>
  <speed>0.0</speed>
  <fix>3d</fix>
</trkpt>
<trkpt lat="40.0713749" lon="-105.229789">
  <ele>1583.0</ele>
  <time>2026-08-28T17:48:59Z</time>
  <course>247.87</course>
  <speed>0.0</speed>
  <fix>3d</fix>
</trkpt>
<trkpt lat="40.0713749" lon="-105.229789">
  <ele>1583.0</ele>
  <time>2026-08-28T17:48:59Z</time>
  <course>0.0</course>
  <speed>0.0</speed>
  <fix>3d</fix>
</trkpt>
<trkpt lat="40.0713749" lon="-105.229789">
  <ele>1583.0</ele>
  <time>2026-08-28T17:48:59Z</time>
  <course>247.9</course>
  <speed>0.0</speed>
  <fix>3d</fix>
</trkpt>
<trkpt lat="40.0713749" lon="-105.229789">
  <ele>1583.0</ele>
  <time>2026-08-28T17:48:59Z</time>
  <course>0.0</course>
  <speed>0.0</speed>
  <fix>3d</fix>
</trkpt>
<trkpt lat="40.0713749" lon="-105.229789">
  <ele>1583.0</ele>
  <time>2026-08-28T17:48:59Z</time>
  <course>247.94</course>
  <speed>0.0</speed>
  <fix>3d</fix>
</trkpt>
<trkpt lat="40.0713749" lon="-105.229789">
  <ele>1583.0</ele>
  <time>2026-08-28T17:48:59Z</time>
  <course>0.0</course>
  <speed>0.0</speed>
  <fix>3d</fix>
</trkpt>
<trkpt lat="40.0713749" lon="-105.229789">
  <ele>1583.0</ele>
  <time>2026-08-28T17:48:59Z</time>
  <course>247.97</course>
  <speed>0.0</speed>
  <fix>3d</fix>
</trkpt>
<trkpt lat="40.0713749" lon="-105.229789">
  <ele>1583.0</ele>
  <time>2026-08-28T17:48:59Z</time>
  <course>0.0</course>
  <speed>0.0</speed>
  <fix>3d</fix>
</trkpt>
<trkpt lat="40.0713749" lon="-105.229789">
  <ele>1583.0</ele>
  <time>2026-08-28T17:48:59Z</time>
  <course>248.0</course>
  <speed>0.0</speed>
  <fix>3d</fix>
</trkpt>
<trkpt lat="40.0713749" lon="-105.229789">
  <ele>1583.0</ele>
  <time>2026-08-28T17:48:59Z</time>
  <course>0.0</course>
  <speed>0.0</speed>
  <fix>3d</fix>
</trkpt>
<trkpt lat="40.0713749" lon="-105.229789">
  <ele>1583.0</ele>
  <time>2026-08-28T17:48:59Z</time>
  <course>248.02</course>
  <speed>0.0</speed>
  <fix>3d</fix>
</trkpt>
<trkpt lat="40.0713749" lon="-105.229789">
  <ele>1583.0</ele>
  <time>2026-08-28T17:48:59Z</time>
  <course>0.0</course>
  <speed>0.0</speed>
  <fix>3d</fix>
</trkpt>
<trkpt lat="40.0713749" lon="-105.229789">
  <ele>1583.0</ele>
  <time>2026-08-28T17:48:59Z</time>
  <course>248.05</course>
  <speed>0.0</speed>
  <fix>3d</fix>
</trkpt>
<trkpt lat="40.0713749" lon="-105.229789">
  <ele>1583.0</ele>
  <time>2026-08-28T17:48:59Z</time>
  <course>0.0</course>
  <speed>0.0</speed>
  <fix>3d</fix>
</trkpt>
<trkpt lat="40.0713749" lon="-105.229789">
  <ele>1583.0</ele>
  <time>2026-08-28T17:48:59Z</time>
  <course>248.08</course>
  <speed>0.0</speed>
  <fix>3d</fix>
</trkpt>
<trkpt lat="40.0713749" lon="-105.229789">
  <ele>1583.0</ele>
  <time>2026-08-28T17:48:59Z</time>
  <course>0.0</course>
  <speed>0.0</speed>
  <fix>3d</fix>
</trkpt>
<trkpt lat="40.0713749" lon="-105.229789">
  <ele>1583.0</ele>
  <time>2026-08-28T17:48:59Z</time>
  <course>248.1</course>
  <speed>0.0</speed>
  <fix>3d</fix>
</trkpt>
<trkpt lat="40.0713749" lon="-105.229789">
  <ele>1583.0</ele>
  <time>2026-08-28T17:48:59Z</time>
  <course>0.0</course>
  <speed>0.0</speed>
  <fix>3d</fix>
</trkpt>
<trkpt lat="40.0713749" lon="-105.229789">
  <ele>1583.0</ele>
  <time>2026-08-28T17:48:59Z</time>
  <course>248.12</course>
  <speed>0.0</speed>
  <fix>3d</fix>
</trkpt>
<trkpt lat="40.0713749" lon="-105.229789">
  <ele>1583.0</ele>
  <time>2026-08-28T17:48:59Z</time>
  <course>0.0</course>
  <speed>0.0</speed>
  <fix>3d</fix>
</trkpt>
<trkpt lat="40.0713749" lon="-105.229789">
  <ele>1583.0</ele>
  <time>2026-08-28T17:48:59Z</time>
  <course>248.14</course>
  <speed>0.0</speed>
  <fix>3d</fix>
</trkpt>
<trkpt lat="40.0713749" lon="-105.229789">
  <ele>1583.0</ele>
  <time>2026-08-28T17:48:59Z</time>
  <course>0.0</course>
  <speed>0.0</speed>
  <fix>3d</fix>
</trkpt>
<trkpt lat="40.0713749" lon="-105.229789">
  <ele>1583.0</ele>
  <time>2026-08-28T17:48:59Z</time>
  <course>248.16</course>
  <speed>0.0</speed>
  <fix>3d</fix>
</trkpt>
<trkpt lat="40.0713749" lon="-105.229789">
  <ele>1583.0</ele>
  <time>2026-08-28T17:48:59Z</time>
  <course>0.0</course>
  <speed>0.0</speed>
  <fix>3d</fix>
</trkpt>
<trkpt lat="40.0713749" lon="-105.229789">
  <ele>1583.0</ele>
  <time>2026-08-28T17:48:59Z</time>
  <course>248.18</course>
  <speed>0.0</speed>
  <fix>3d</fix>
</trkpt>
<trkpt lat="40.0713749" lon="-105.229789">
  <ele>1583.0</ele>
  <time>2026-08-28T17:48:59Z</time>
  <course>0.0</course>
  <speed>0.0</speed>
  <fix>3d</fix>
</trkpt>
<trkpt lat="40.0713749" lon="-105.229789">
  <ele>1583.0</ele>
  <time>2026-08-28T17:48:59Z</time>
  <course>248.2</course>
  <speed>0.0</speed>
  <fix>3d</fix>
</trkpt>
<trkpt lat="40.0713749" lon="-105.229789">
  <ele>1583.0</ele>
  <time>2026-08-28T17:48:59Z</time>
  <course>0.0</course>
  <speed>0.0</speed>
  <fix>3d</fix>
</trkpt>
<trkpt lat="40.0713749" lon="-105.229789">
  <ele>1583.0</ele>
  <time>2026-08-28T17:48:59Z</time>
  <course>248.22</course>
  <speed>0.0</speed>
  <fix>3d</fix>
</trkpt>
<trkpt lat="40.0713749" lon="-105.229789">
  <ele>1583.0</ele>
  <time>2026-08-28T17:48:59Z</time>
  <course>0.0</course>
  <speed>0.0</speed>
  <fix>3d</fix>
</trkpt>
<trkpt lat="40.0713749" lon="-105.229789">
  <ele>1583.0</ele>
  <time>2026-08-28T17:48:59Z</time>
  <course>248.23</course>
  <speed>0.0</speed>
  <fix>3d</fix>
</trkpt>
<trkpt lat="40.0713749" lon="-105.229789">
  <ele>1583.0</ele>
  <time>2026-08-28T17:48:59Z</time>
  <course>0.0</course>
  <speed>0.0</speed>
  <fix>3d</fix>
</trkpt>
<trkpt lat="40.0713749" lon="-105.229789">
  <ele>1583.0</ele>
  <time>2026-08-28T17:48:59Z</time>
  <course>248.25</course>
  <speed>0.0</speed>
  <fix>3d</fix>
</trkpt>
<trkpt lat="40.0713749" lon="-105.229789">
  <ele>1583.0</ele>
  <time>2026-08-28T17:48:59Z</time>
  <course>0.0</course>
  <speed>0.0</speed>
  <fix>3d</fix>
</trkpt>
<trkpt lat="40.0713749" lon="-105.229789">
  <ele>1583.0</ele>
  <time>2026-08-28T17:48:59Z</time>
  <course>248.26</course>
  <speed>0.0</speed>
  <fix>3d</fix>
</trkpt>
<trkpt lat="40.0713749" lon="-105.229789">
  <ele>1583.0</ele>
  <time>2026-08-28T17:48:59Z</time>
  <course>0.0</course>
  <speed>0.0</speed>
  <fix>3d</fix>
</trkpt>
<trkpt lat="40.0713749" lon="-105.229789">
  <ele>1583.0</ele>
  <time>2026-08-28T17:48:59Z</time>
  <course>248.28</course>
  <speed>0.0</speed>
  <fix>3d</fix>
</trkpt>
<trkpt lat="40.0713749" lon="-105.229789">
  <ele>1583.0</ele>
  <time>2026-08-28T17:48:59Z</time>
  <course>0.0</course>
  <speed>0.0</speed>
  <fix>3d</fix>
</trkpt>
<trkpt lat="40.0713749" lon="-105.229789">
  <ele>1583.0</ele>
  <time>2026-08-28T17:48:59Z</time>
  <course>248.29</course>
  <speed>0.0</speed>
  <fix>3d</fix>
</trkpt>
<trkpt lat="40.0713749" lon="-105.229789">
  <ele>1583.0</ele>
  <time>2026-08-28T17:48:59Z</time>
  <course>0.0</course>
  <speed>0.0</speed>
  <fix>3d</fix>
</trkpt>
<trkpt lat="40.0713749" lon="-105.229789">
  <ele>1583.0</ele>
  <time>2026-08-28T17:48:59Z</time>
  <course>248.3</course>
  <speed>0.0</speed>
  <fix>3d</fix>
</trkpt>
<trkpt lat="40.0713749" lon="-105.229789">
  <ele>1583.0</ele>
  <time>2026-08-28T17:48:59Z</time>
  <course>0.0</course>
  <speed>0.0</speed>
  <fix>3d</fix>
</trkpt>
<trkpt lat="40.0713749" lon="-105.229789">
  <ele>1583.0</ele>
  <time>2026-08-28T17:48:59Z</time>
  <course>248.31</course>
  <speed>0.0</speed>
  <fix>3d</fix>
</trkpt>
<trkpt lat="40.0713749" lon="-105.229789">
  <ele>1583.0</ele>
  <time>2026-08-28T17:48:59Z</time>
  <course>0.0</course>
  <speed>0.0</speed>
  <fix>3d</fix>
</trkpt>
<trkpt lat="40.0713749" lon="-105.229789">
  <ele>1583.0</ele>
  <time>2026-08-28T17:48:59Z</time>
  <course>248.32</course>
  <speed>0.0</speed>
  <fix>3d</fix>
</trkpt>
<trkpt lat="40.0713749" lon="-105.229789">
  <ele>1583.0</ele>
  <time>2026-08-28T17:48:59Z</time>
  <course>0.0</course>
  <speed>0.0</speed>
  <fix>3d</fix>
</trkpt>
<trkpt lat="40.0713749" lon="-105.229789">
  <ele>1583.0</ele>
  <time>2026-08-28T17:48:59Z</time>
  <course>248.33</course>
  <speed>0.0</speed>
  <fix>3d</fix>
</trkpt>
<trkpt lat="40.0713749" lon="-105.229789">
  <ele>1583.0</ele>
  <time>2026-08-28T17:48:59Z</time>
  <course>0.0</course>
  <speed>0.0</speed>
  <fix>3d</fix>
</trkpt>
<trkpt lat="40.0713749" lon="-105.229789">
  <ele>1583.0</ele>
  <time>2026-08-28T17:48:59Z</time>
  <course>248.34</course>
  <speed>0.0</speed>
  <fix>3d</fix>
</trkpt>
<trkpt lat="40.0713749" lon="-105.229789">
  <ele>1583.0</ele>
  <time>2026-08-28T17:48:59Z</time>
  <course>0.0</course>
  <speed>0.0</speed>
  <fix>3d</fix>
</trkpt>
<trkpt lat="40.0713749" lon="-105.229789">
  <ele>1583.0</ele>
  <time>2026-08-28T17:48:59Z</time>
  <course>248.35</course>
  <speed>0.0</speed>
  <fix>3d</fix>
</trkpt>
<trkpt lat="40.0713749" lon="-105.229789">
  <ele>1583.0</ele>
  <time>2026-08-28T17:48:59Z</time>
  <course>0.0</course>
  <speed>0.0</speed>
  <fix>3d</fix>
</trkpt>
<trkpt lat="40.0713749" lon="-105.229789">
  <ele>1583.0</ele>
  <time>2026-08-28T17:48:59Z</time>
  <course>248.35</course>
  <speed>0.0</speed>
  <fix>3d</fix>
</trkpt>
<trkpt lat="40.0713749" lon="-105.229789">
  <ele>1583.0</ele>
  <time>2026-08-28T17:48:59Z</time>
  <course>0.0</course>
  <speed>0.0</speed>
  <fix>3d</fix>
</trkpt>
<trkpt lat="40.0713749" lon="-105.229789">
  <ele>1583.0</ele>
  <time>2026-08-28T17:48:59Z</time>
  <course>248.36</course>
  <speed>0.0</speed>
  <fix>3d</fix>
</trkpt>
<trkpt lat="40.0713749" lon="-105.229789">
  <ele>1583.0</ele>
  <time>2026-08-28T17:48:59Z</time>
  <course>0.0</course>
  <speed>0.0</speed>
  <fix>3d</fix>
</trkpt>
<trkpt lat="40.0713749" lon="-105.229789">
  <ele>1583.0</ele>
  <time>2026-08-28T17:48:59Z</time>
  <course>248.37</course>
  <speed>0.0</speed>
  <fix>3d</fix>
</trkpt>
<trkpt lat="40.0713749" lon="-105.229789">
  <ele>1583.0</ele>
  <time>2026-08-28T17:48:59Z</time>
  <course>0.0</course>
  <speed>0.0</speed>
  <fix>3d</fix>
</trkpt>
<trkpt lat="40.0713749" lon="-105.229789">
  <ele>1583.0</ele>
  <time>2026-08-28T17:48:59Z</time>
  <course>248.37</course>
  <speed>0.0</speed>
  <fix>3d</fix>
</trkpt>
<trkpt lat="40.0713749" lon="-105.229789">
  <ele>1583.0</ele>
  <time>2026-08-28T17:48:59Z</time>
  <course>0.0</course>
  <speed>0.0</speed>
  <fix>3d</fix>
</trkpt>
<trkpt lat="40.0713749" lon="-105.229789">
  <ele>1583.0</ele>
  <time>2026-08-28T17:48:59Z</time>
  <course>248.38</course>
  <speed>0.0</speed>
  <fix>3d</fix>
</trkpt>
<trkpt lat="40.0713749" lon="-105.229789">
  <ele>1583.0</ele>
  <time>2026-08-28T17:48:59Z</time>
  <course>0.0</course>
  <speed>0.0</speed>
  <fix>3d</fix>
</trkpt>
<trkpt lat="40.0713749" lon="-105.229789">
  <ele>1583.0</ele>
  <time>2026-08-28T17:48:59Z</time>
  <course>248.38</course>
  <speed>0.0</speed>
  <fix>3d</fix>
</trkpt>
<trkpt lat="40.0713749" lon="-105.229789">
  <ele>1583.0</ele>
  <time>2026-08-28T17:48:59Z</time>
  <course>0.0</course>
  <speed>0.0</speed>
  <fix>3d</fix>
</trkpt>
<trkpt lat="40.0713749" lon="-105.229789">
  <ele>1583.0</ele>
  <time>2026-08-28T17:48:59Z</time>
  <course>248.39</course>
  <speed>0.0</speed>
  <fix>3d</fix>
</trkpt>
<trkpt lat="40.0713749" lon="-105.229789">
  <ele>1583.0</ele>
  <time>2026-08-28T17:48:59Z</time>
  <course>0.0</course>
  <speed>0.0</speed>
  <fix>3d</fix>
</trkpt>
<trkpt lat="40.0713749" lon="-105.229789">
  <ele>1583.0</ele>
  <time>2026-08-28T17:48:59Z</time>
  <course>248.39</course>
  <speed>0.0</speed>
  <fix>3d</fix>
</trkpt>
<trkpt lat="40.0713749" lon="-105.229789">
  <ele>1583.0</ele>
  <time>2026-08-28T17:48:59Z</time>
  <course>0.0</course>
  <speed>0.0</speed>
  <fix>3d</fix>
</trkpt>
<trkpt lat="40.0713749" lon="-105.229789">
  <ele>1583.0</ele>
  <time>2026-08-28T17:48:59Z</time>
  <course>248.4</course>
  <speed>0.0</speed>
  <fix>3d</fix>
</trkpt>
<trkpt lat="40.0713749" lon="-105.229789">
  <ele>1583.0</ele>
  <time>2026-08-28T17:48:59Z</time>
  <course>0.0</course>
  <speed>0.0</speed>
  <fix>3d</fix>
</trkpt>
<trkpt lat="40.0713749" lon="-105.229789">
  <ele>1583.0</ele>
  <time>2026-08-28T17:48:59Z</time>
  <course>248.4</course>
  <speed>0.0</speed>
  <fix>3d</fix>
</trkpt>
<trkpt lat="40.0713749" lon="-105.229789">
  <ele>1583.0</ele>
  <time>2026-08-28T17:48:59Z</time>
  <course>0.0</course>
  <speed>0.0</speed>
  <fix>3d</fix>
</trkpt>
<trkpt lat="40.0713749" lon="-105.229789">
  <ele>1583.0</ele>
  <time>2026-08-28T17:48:59Z</time>
  <course>248.4</course>
  <speed>0.0</speed>
  <fix>3d</fix>
</trkpt>
<trkpt lat="40.0713749" lon="-105.229789">
  <ele>1583.0</ele>
  <time>2026-08-28T17:48:59Z</time>
  <course>0.0</course>
  <speed>0.0</speed>
  <fix>3d</fix>
</trkpt>
<trkpt lat="40.0713749" lon="-105.229789">
  <ele>1583.0</ele>
  <time>2026-08-28T17:48:59Z</time>
  <course>248.4</course>
  <speed>0.0</speed>
  <fix>3d</fix>
</trkpt>
<trkpt lat="40.0713749" lon="-105.229789">
  <ele>1583.0</ele>
  <time>2026-08-28T17:48:59Z</time>
  <course>0.0</course>
  <speed>0.0</speed>
  <fix>3d</fix>
</trkpt>
<trkpt lat="40.0713749" lon="-105.229789">
  <ele>1583.0</ele>
  <time>2026-08-28T17:48:59Z</time>
  <course>248.41</course>
  <speed>0.0</speed>
  <fix>3d</fix>
</trkpt>
<trkpt lat="40.0713749" lon="-105.229789">
  <ele>1583.0</ele>
  <time>2026-08-28T17:48:59Z</time>
  <course>0.0</course>
  <speed>0.0</speed>
  <fix>3d</fix>
</trkpt>
<trkpt lat="40.0713749" lon="-105.229789">
  <ele>1583.0</ele>
  <time>2026-08-28T17:48:59Z</time>
  <course>248.41</course>
  <speed>0.0</speed>
  <fix>3d</fix>
</trkpt>
<trkpt lat="40.0713749" lon="-105.229789">
  <ele>1583.0</ele>
  <time>2026-08-28T17:48:59Z</time>
  <course>0.0</course>
  <speed>0.0</speed>
  <fix>3d</fix>
</trkpt>
<trkpt lat="40.0713749" lon="-105.229789">
  <ele>1583.0</ele>
  <time>2026-08-28T17:48:59Z</time>
  <course>248.41</course>
  <speed>0.0</speed>
  <fix>3d</fix>
</trkpt>
<trkpt lat="40.0713749" lon="-105.229789">
  <ele>1583.0</ele>
  <time>2026-08-28T17:48:59Z</time>
  <course>0.0</course>
  <speed>0.0</speed>
  <fix>3d</fix>
</trkpt>
<trkpt lat="40.0713749" lon="-105.229789">
  <ele>1583.0</ele>
  <time>2026-08-28T17:48:59Z</time>
  <course>248.41</course>
  <speed>0.0</speed>
  <fix>3d</fix>
</trkpt>
<trkpt lat="40.0713749" lon="-105.229789">
  <ele>1583.0</ele>
  <time>2026-08-28T17:48:59Z</time>
  <course>0.0</course>
  <speed>0.0</speed>
  <fix>3d</fix>
</trkpt>
<trkpt lat="40.0713749" lon="-105.229789">
  <ele>1583.0</ele>
  <time>2026-08-28T17:48:59Z</time>
  <course>248.41</course>
  <speed>0.0</speed>
  <fix>3d</fix>
</trkpt>
<trkpt lat="40.0713749" lon="-105.229789">
  <ele>1583.0</ele>
  <time>2026-08-28T17:48:59Z</time>
  <course>0.0</course>
  <speed>0.0</speed>
  <fix>3d</fix>
</trkpt>
<trkpt lat="40.0713749" lon="-105.229789">
  <ele>1583.0</ele>
  <time>2026-08-28T17:48:59Z</time>
  <course>248.41</course>
  <speed>0.0</speed>
  <fix>3d</fix>
</trkpt>
<trkpt lat="40.0713749" lon="-105.229789">
  <ele>1583.0</ele>
  <time>2026-08-28T17:48:59Z</time>
  <course>0.0</course>
  <speed>0.0</speed>
  <fix>3d</fix>
</trkpt>
<trkpt lat="40.0713749" lon="-105.229789">
  <ele>1583.0</ele>
  <time>2026-08-28T17:48:59Z</time>
  <course>248.41</course>
  <speed>0.0</speed>
  <fix>3d</fix>
</trkpt>
<trkpt lat="40.0713749" lon="-105.229789">
  <ele>1583.0</ele>
  <time>2026-08-28T17:48:59Z</time>
  <course>0.0</course>
  <speed>0.0</speed>
  <fix>3d</fix>
</trkpt>
<trkpt lat="40.0713749" lon="-105.229789">
  <ele>1583.0</ele>
  <time>2026-08-28T17:48:59Z</time>
  <course>248.41</course>
  <speed>0.0</speed>
  <fix>3d</fix>
</trkpt>
<trkpt lat="40.0713749" lon="-105.229789">
  <ele>1583.0</ele>
  <time>2026-08-28T17:48:59Z</time>
  <course>0.0</course>
  <speed>0.0</speed>
  <fix>3d</fix>
</trkpt>
<trkpt lat="40.0713749" lon="-105.229789">
  <ele>1583.0</ele>
  <time>2026-08-28T17:48:59Z</time>
  <course>248.41</course>
  <speed>0.0</speed>
  <fix>3d</fix>
</trkpt>
<trkpt lat="40.0713749" lon="-105.229789">
  <ele>1583.0</ele>
  <time>2026-08-28T17:48:59Z</time>
  <course>0.0</course>
  <speed>0.0</speed>
  <fix>3d</fix>
</trkpt>
<trkpt lat="40.0713749" lon="-105.229789">
  <ele>1583.0</ele>
  <time>2026-08-28T17:48:59Z</time>
  <course>248.41</course>
  <speed>0.0</speed>
  <fix>3d</fix>
</trkpt>
<trkpt lat="40.0713749" lon="-105.229789">
  <ele>1583.0</ele>
  <time>2026-08-28T17:48:59Z</time>
  <course>0.0</course>
  <speed>0.0</speed>
  <fix>3d</fix>
</trkpt>
<trkpt lat="40.0713749" lon="-105.229789">
  <ele>1583.0</ele>
  <time>2026-08-28T17:48:59Z</time>
  <course>248.41</course>
  <speed>0.0</speed>
  <fix>3d</fix>
</trkpt>
<trkpt lat="40.0713749" lon="-105.229789">
  <ele>1583.0</ele>
  <time>2026-08-28T17:48:59Z</time>
  <course>0.0</course>
  <speed>0.0</speed>
  <fix>3d</fix>
</trkpt>
<trkpt lat="40.0713749" lon="-105.229789">
  <ele>1583.0</ele>
  <time>2026-08-28T17:48:59Z</time>
  <course>248.41</course>
  <speed>0.0</speed>
  <fix>3d</fix>
</trkpt>
<trkpt lat="40.0713749" lon="-105.229789">
  <ele>1583.0</ele>
  <time>2026-08-28T17:48:59Z</time>
  <course>0.0</course>
  <speed>0.0</speed>
  <fix>3d</fix>
</trkpt>
<trkpt lat="40.0713749" lon="-105.229789">
  <ele>1583.0</ele>
  <time>2026-08-28T17:48:59Z</time>
  <course>248.41</course>
  <speed>0.0</speed>
  <fix>3d</fix>
</trkpt>
<trkpt lat="40.0713749" lon="-105.229789">
  <ele>1583.0</ele>
  <time>2026-08-28T17:48:59Z</time>
  <course>0.0</course>
  <speed>0.0</speed>
  <fix>3d</fix>
</trkpt>
<trkpt lat="40.0713749" lon="-105.229789">
  <ele>1583.0</ele>
  <time>2026-08-28T17:48:59Z</time>
  <course>248.41</course>
  <speed>0.0</speed>
  <fix>3d</fix>
</trkpt>
<trkpt lat="40.0713749" lon="-105.229789">
  <ele>1583.0</ele>
  <time>2026-08-28T17:48:59Z</time>
  <course>0.0</course>
  <speed>0.0</speed>
  <fix>3d</fix>
</trkpt>
<trkpt lat="40.0713749" lon="-105.229789">
  <ele>1583.0</ele>
  <time>2026-08-28T17:48:59Z</time>
  <course>248.41</course>
  <speed>0.0</speed>
  <fix>3d</fix>
</trkpt>
<trkpt lat="40.0713749" lon="-105.229789">
  <ele>1583.0</ele>
  <time>2026-08-28T17:48:59Z</time>
  <course>0.0</course>
  <speed>0.0</speed>
  <fix>3d</fix>
</trkpt>
<trkpt lat="40.0713749" lon="-105.229789">
  <ele>1583.0</ele>
  <time>2026-08-28T17:48:59Z</time>
  <course>248.41</course>
  <speed>0.0</speed>
  <fix>3d</fix>
</trkpt>
<trkpt lat="40.0713749" lon="-105.229789">
  <ele>1583.0</ele>
  <time>2026-08-28T17:48:59Z</time>
  <course>0.0</course>
  <speed>0.0</speed>
  <fix>3d</fix>
</trkpt>
<trkpt lat="40.0713749" lon="-105.229789">
  <ele>1583.0</ele>
  <time>2026-08-28T17:48:59Z</time>
  <course>248.4</course>
  <speed>0.0</speed>
  <fix>3d</fix>
</trkpt>
<trkpt lat="40.0713749" lon="-105.229789">
  <ele>1583.0</ele>
  <time>2026-08-28T17:48:59Z</time>
  <course>0.0</course>
  <speed>0.0</speed>
  <fix>3d</fix>
</trkpt>
<trkpt lat="40.0713749" lon="-105.229789">
  <ele>1583.0</ele>
  <time>2026-08-28T17:48:59Z</time>
  <course>248.4</course>
  <speed>0.01</speed>
  <fix>3d</fix>
</trkpt>
<trkpt lat="40.0713749" lon="-105.229789">
  <ele>1583.0</ele>
  <time>2026-08-28T17:48:59Z</time>
  <course>0.0</course>
  <speed>0.0</speed>
  <fix>3d</fix>
</trkpt>
<trkpt lat="40.0713749" lon="-105.229789">
  <ele>1583.0</ele>
  <time>2026-08-28T17:48:59Z</time>
  <course>248.4</course>
  <speed>0.01</speed>
  <fix>3d</fix>
</trkpt>
<trkpt lat="40.0713749" lon="-105.229789">
  <ele>1583.0</ele>
  <time>2026-08-28T17:48:59Z</time>
  <course>0.0</course>
  <speed>0.0</speed>
  <fix>3d</fix>
</trkpt>
<trkpt lat="40.0713749" lon="-105.229789">
  <ele>1583.0</ele>
  <time>2026-08-28T17:49:00Z</time>
  <course>248.4</course>
  <speed>0.01</speed>
  <fix>3d</fix>
</trkpt>
<trkpt lat="40.0713749" lon="-105.229789">
  <ele>1583.0</ele>
  <time>2026-08-28T17:49:00Z</time>
  <course>0.0</course>
  <speed>0.0</speed>
  <fix>3d</fix>
</trkpt>
<trkpt lat="40.0713749" lon="-105.229789">
  <ele>1583.0</ele>
  <time>2026-08-28T17:49:00Z</time>
  <course>248.4</course>
  <speed>0.01</speed>
  <fix>3d</fix>
</trkpt>
<trkpt lat="40.0713749" lon="-105.229789">
  <ele>1583.0</ele>
  <time>2026-08-28T17:49:00Z</time>
  <course>0.0</course>
  <speed>0.0</speed>
  <fix>3d</fix>
</trkpt>
<trkpt lat="40.0713749" lon="-105.229789">
  <ele>1583.0</ele>
  <time>2026-08-28T17:49:00Z</time>
  <course>248.39</course>
  <speed>0.01</speed>
  <fix>3d</fix>
</trkpt>
<trkpt lat="40.0713749" lon="-105.229789">
  <ele>1583.0</ele>
  <time>2026-08-28T17:49:00Z</time>
  <course>0.0</course>
  <speed>0.0</speed>
  <fix>3d</fix>
</trkpt>
<trkpt lat="40.0713749" lon="-105.229789">
  <ele>1583.0</ele>
  <time>2026-08-28T17:49:00Z</time>
  <course>248.39</course>
  <speed>0.01</speed>
  <fix>3d</fix>
</trkpt>
<trkpt lat="40.0713749" lon="-105.229789">
  <ele>1583.0</ele>
  <time>2026-08-28T17:49:00Z</time>
  <course>0.0</course>
  <speed>0.0</speed>
  <fix>3d</fix>
</trkpt>
<trkpt lat="40.0713749" lon="-105.229789">
  <ele>1583.0</ele>
  <time>2026-08-28T17:49:00Z</time>
  <course>248.39</course>
  <speed>0.01</speed>
  <fix>3d</fix>
</trkpt>
<trkpt lat="40.0713749" lon="-105.229789">
  <ele>1583.0</ele>
  <time>2026-08-28T17:49:00Z</time>
  <course>0.0</course>
  <speed>0.0</speed>
  <fix>3d</fix>
</trkpt>
<trkpt lat="40.0713749" lon="-105.229789">
  <ele>1583.0</ele>
  <time>2026-08-28T17:49:00Z</time>
  <course>248.38</course>
  <speed>0.01</speed>
  <fix>3d</fix>
</trkpt>
<trkpt lat="40.0713749" lon="-105.229789">
  <ele>1583.0</ele>
  <time>2026-08-28T17:49:00Z</time>
  <course>0.0</course>
  <speed>0.0</speed>
  <fix>3d</fix>
</trkpt>
<trkpt lat="40.0713749" lon="-105.229789">
  <ele>1583.0</ele>
  <time>2026-08-28T17:49:00Z</time>
  <course>248.38</course>
  <speed>0.01</speed>
  <fix>3d</fix>
</trkpt>
<trkpt lat="40.0713749" lon="-105.229789">
  <ele>1583.0</ele>
  <time>2026-08-28T17:49:00Z</time>
  <course>0.0</course>
  <speed>0.0</speed>
  <fix>3d</fix>
</trkpt>
<trkpt lat="40.0713749" lon="-105.229789">
  <ele>1583.0</ele>
  <time>2026-08-28T17:49:00Z</time>
  <course>248.38</course>
  <speed>0.01</speed>
  <fix>3d</fix>
</trkpt>
<trkpt lat="40.0713749" lon="-105.229789">
  <ele>1583.0</ele>
  <time>2026-08-28T17:49:00Z</time>
  <course>0.0</course>
  <speed>0.0</speed>
  <fix>3d</fix>
</trkpt>
<trkpt lat="40.0713749" lon="-105.229789">
  <ele>1583.0</ele>
  <time>2026-08-28T17:49:00Z</time>
  <course>248.37</course>
  <speed>0.01</speed>
  <fix>3d</fix>
</trkpt>
<trkpt lat="40.0713749" lon="-105.229789">
  <ele>1583.0</ele>
  <time>2026-08-28T17:49:00Z</time>
  <course>0.0</course>
  <speed>0.0</speed>
  <fix>3d</fix>
</trkpt>
<trkpt lat="40.0713749" lon="-105.229789">
  <ele>1583.0</ele>
  <time>2026-08-28T17:49:00Z</time>
  <course>248.37</course>
  <speed>0.01</speed>
  <fix>3d</fix>
</trkpt>
<trkpt lat="40.0713749" lon="-105.229789">
  <ele>1583.0</ele>
  <time>2026-08-28T17:49:00Z</time>
  <course>0.0</course>
  <speed>0.0</speed>
  <fix>3d</fix>
</trkpt>
<trkpt lat="40.0713749" lon="-105.229789">
  <ele>1583.0</ele>
  <time>2026-08-28T17:49:00Z</time>
  <course>248.37</course>
  <speed>0.01</speed>
  <fix>3d</fix>
</trkpt>
<trkpt lat="40.0713749" lon="-105.229789">
  <ele>1583.0</ele>
  <time>2026-08-28T17:49:00Z</time>
  <course>0.0</course>
  <speed>0.0</speed>
  <fix>3d</fix>
</trkpt>
<trkpt lat="40.0713749" lon="-105.229789">
  <ele>1583.0</ele>
  <time>2026-08-28T17:49:00Z</time>
  <course>248.36</course>
  <speed>0.01</speed>
  <fix>3d</fix>
</trkpt>
<trkpt lat="40.0713749" lon="-105.229789">
  <ele>1583.0</ele>
  <time>2026-08-28T17:49:00Z</time>
  <course>0.0</course>
  <speed>0.0</speed>
  <fix>3d</fix>
</trkpt>
<trkpt lat="40.0713749" lon="-105.229789">
  <ele>1583.0</ele>
  <time>2026-08-28T17:49:00Z</time>
  <course>248.36</course>
  <speed>0.01</speed>
  <fix>3d</fix>
</trkpt>
<trkpt lat="40.0713749" lon="-105.229789">
  <ele>1583.0</ele>
  <time>2026-08-28T17:49:00Z</time>
  <course>0.0</course>
  <speed>0.0</speed>
  <fix>3d</fix>
</trkpt>
<trkpt lat="40.0713749" lon="-105.229789">
  <ele>1583.0</ele>
  <time>2026-08-28T17:49:00Z</time>
  <course>248.36</course>
  <speed>0.01</speed>
  <fix>3d</fix>
</trkpt>
<trkpt lat="40.0713749" lon="-105.229789">
  <ele>1583.0</ele>
  <time>2026-08-28T17:49:00Z</time>
  <course>0.0</course>
  <speed>0.0</speed>
  <fix>3d</fix>
</trkpt>
<trkpt lat="40.0713749" lon="-105.229789">
  <ele>1583.0</ele>
  <time>2026-08-28T17:49:00Z</time>
  <course>248.35</course>
  <speed>0.01</speed>
  <fix>3d</fix>
</trkpt>
<trkpt lat="40.0713749" lon="-105.229789">
  <ele>1583.0</ele>
  <time>2026-08-28T17:49:00Z</time>
  <course>0.0</course>
  <speed>0.0</speed>
  <fix>3d</fix>
</trkpt>
<trkpt lat="40.0713749" lon="-105.229789">
  <ele>1583.0</ele>
  <time>2026-08-28T17:49:00Z</time>
  <course>248.35</course>
  <speed>0.01</speed>
  <fix>3d</fix>
</trkpt>
<trkpt lat="40.0713749" lon="-105.229789">
  <ele>1583.0</ele>
  <time>2026-08-28T17:49:00Z</time>
  <course>0.0</course>
  <speed>0.0</speed>
  <fix>3d</fix>
</trkpt>
<trkpt lat="40.0713749" lon="-105.229789">
  <ele>1583.0</ele>
  <time>2026-08-28T17:49:00Z</time>
  <course>248.35</course>
  <speed>0.01</speed>
  <fix>3d</fix>
</trkpt>
<trkpt lat="40.0713749" lon="-105.229789">
  <ele>1583.0</ele>
  <time>2026-08-28T17:49:00Z</time>
  <course>0.0</course>
  <speed>0.0</speed>
  <fix>3d</fix>
</trkpt>
<trkpt lat="40.0713749" lon="-105.229789">
  <ele>1583.0</ele>
  <time>2026-08-28T17:49:00Z</time>
  <course>248.34</course>
  <speed>0.01</speed>
  <fix>3d</fix>
</trkpt>
<trkpt lat="40.0713749" lon="-105.229789">
  <ele>1583.0</ele>
  <time>2026-08-28T17:49:00Z</time>
  <course>0.0</course>
  <speed>0.0</speed>
  <fix>3d</fix>
</trkpt>
<trkpt lat="40.0713749" lon="-105.229789">
  <ele>1583.0</ele>
  <time>2026-08-28T17:49:00Z</time>
  <course>248.34</course>
  <speed>0.01</speed>
  <fix>3d</fix>
</trkpt>
<trkpt lat="40.0713749" lon="-105.229789">
  <ele>1583.0</ele>
  <time>2026-08-28T17:49:00Z</time>
  <course>0.0</course>
  <speed>0.0</speed>
  <fix>3d</fix>
</trkpt>
<trkpt lat="40.0713749" lon="-105.229789">
  <ele>1583.0</ele>
  <time>2026-08-28T17:49:00Z</time>
  <course>248.33</course>
  <speed>0.01</speed>
  <fix>3d</fix>
</trkpt>
<trkpt lat="40.0713749" lon="-105.229789">
  <ele>1583.0</ele>
  <time>2026-08-28T17:49:00Z</time>
  <course>0.0</course>
  <speed>0.0</speed>
  <fix>3d</fix>
</trkpt>
<trkpt lat="40.0713749" lon="-105.229789">
  <ele>1583.0</ele>
  <time>2026-08-28T17:49:00Z</time>
  <course>248.33</course>
  <speed>0.01</speed>
  <fix>3d</fix>
</trkpt>
<trkpt lat="40.0713749" lon="-105.229789">
  <ele>1583.0</ele>
  <time>2026-08-28T17:49:00Z</time>
  <course>0.0</course>
  <speed>0.0</speed>
  <fix>3d</fix>
</trkpt>
<trkpt lat="40.0713749" lon="-105.229789">
  <ele>1583.0</ele>
  <time>2026-08-28T17:49:00Z</time>
  <course>248.32</course>
  <speed>0.01</speed>
  <fix>3d</fix>
</trkpt>
<trkpt lat="40.0713749" lon="-105.229789">
  <ele>1583.0</ele>
  <time>2026-08-28T17:49:00Z</time>
  <course>0.0</course>
  <speed>0.0</speed>
  <fix>3d</fix>
</trkpt>
<trkpt lat="40.0713749" lon="-105.229789">
  <ele>1583.0</ele>
  <time>2026-08-28T17:49:00Z</time>
  <course>248.32</course>
  <speed>0.01</speed>
  <fix>3d</fix>
</trkpt>
<trkpt lat="40.0713749" lon="-105.229789">
  <ele>1583.0</ele>
  <time>2026-08-28T17:49:00Z</time>
  <course>0.0</course>
  <speed>0.0</speed>
  <fix>3d</fix>
</trkpt>
<trkpt lat="40.0713749" lon="-105.229789">
  <ele>1583.0</ele>
  <time>2026-08-28T17:49:00Z</time>
  <course>248.32</course>
  <speed>0.01</speed>
  <fix>3d</fix>
</trkpt>
<trkpt lat="40.0713749" lon="-105.229789">
  <ele>1583.0</ele>
  <time>2026-08-28T17:49:00Z</time>
  <course>0.0</course>
  <speed>0.0</speed>
  <fix>3d</fix>
</trkpt>
<trkpt lat="40.0713749" lon="-105.229789">
  <ele>1583.0</ele>
  <time>2026-08-28T17:49:00Z</time>
  <course>248.31</course>
  <speed>0.01</speed>
  <fix>3d</fix>
</trkpt>
<trkpt lat="40.0713749" lon="-105.229789">
  <ele>1583.0</ele>
  <time>2026-08-28T17:49:00Z</time>
  <course>0.0</course>
  <speed>0.0</speed>
  <fix>3d</fix>
</trkpt>
<trkpt lat="40.0713749" lon="-105.229789">
  <ele>1583.0</ele>
  <time>2026-08-28T17:49:00Z</time>
  <course>248.31</course>
  <speed>0.01</speed>
  <fix>3d</fix>
</trkpt>
<trkpt lat="40.0713749" lon="-105.229789">
  <ele>1583.0</ele>
  <time>2026-08-28T17:49:00Z</time>
  <course>0.0</course>
  <speed>0.0</speed>
  <fix>3d</fix>
</trkpt>
<trkpt lat="40.0713749" lon="-105.229789">
  <ele>1583.0</ele>
  <time>2026-08-28T17:49:00Z</time>
  <course>248.3</course>
  <speed>0.01</speed>
  <fix>3d</fix>
</trkpt>
<trkpt lat="40.0713749" lon="-105.229789">
  <ele>1583.0</ele>
  <time>2026-08-28T17:49:00Z</time>
  <course>0.0</course>
  <speed>0.0</speed>
  <fix>3d</fix>
</trkpt>
<trkpt lat="40.0713749" lon="-105.229789">
  <ele>1583.0</ele>
  <time>2026-08-28T17:49:00Z</time>
  <course>248.3</course>
  <speed>0.01</speed>
  <fix>3d</fix>
</trkpt>
<trkpt lat="40.0713749" lon="-105.229789">
  <ele>1583.0</ele>
  <time>2026-08-28T17:49:00Z</time>
  <course>0.0</course>
  <speed>0.0</speed>
  <fix>3d</fix>
</trkpt>
<trkpt lat="40.0713749" lon="-105.229789">
  <ele>1583.0</ele>
  <time>2026-08-28T17:49:00Z</time>
  <course>248.29</course>
  <speed>0.01</speed>
  <fix>3d</fix>
</trkpt>
<trkpt lat="40.0713749" lon="-105.229789">
  <ele>1583.0</ele>
  <time>2026-08-28T17:49:00Z</time>
  <course>0.0</course>
  <speed>0.0</speed>
  <fix>3d</fix>
</trkpt>
<trkpt lat="40.0713749" lon="-105.229789">
  <ele>1583.0</ele>
  <time>2026-08-28T17:49:00Z</time>
  <course>248.29</course>
  <speed>0.01</speed>
  <fix>3d</fix>
</trkpt>
<trkpt lat="40.0713749" lon="-105.229789">
  <ele>1583.0</ele>
  <time>2026-08-28T17:49:00Z</time>
  <course>0.0</course>
  <speed>0.0</speed>
  <fix>3d</fix>
</trkpt>
<trkpt lat="40.0713749" lon="-105.229789">
  <ele>1583.0</ele>
  <time>2026-08-28T17:49:00Z</time>
  <course>248.28</course>
  <speed>0.01</speed>
  <fix>3d</fix>
</trkpt>
<trkpt lat="40.0713749" lon="-105.229789">
  <ele>1583.0</ele>
  <time>2026-08-28T17:49:00Z</time>
  <course>0.0</course>
  <speed>0.0</speed>
  <fix>3d</fix>
</trkpt>
<trkpt lat="40.0713749" lon="-105.229789">
  <ele>1583.0</ele>
  <time>2026-08-28T17:49:00Z</time>
  <course>248.28</course>
  <speed>0.01</speed>
  <fix>3d</fix>
</trkpt>
<trkpt lat="40.0713749" lon="-105.229789">
  <ele>1583.0</ele>
  <time>2026-08-28T17:49:00Z</time>
  <course>0.0</course>
  <speed>0.0</speed>
  <fix>3d</fix>
</trkpt>
<trkpt lat="40.0713749" lon="-105.229789">
  <ele>1583.0</ele>
  <time>2026-08-28T17:49:00Z</time>
  <course>248.27</course>
  <speed>0.01</speed>
  <fix>3d</fix>
</trkpt>
<trkpt lat="40.0713749" lon="-105.229789">
  <ele>1583.0</ele>
  <time>2026-08-28T17:49:00Z</time>
  <course>0.0</course>
  <speed>0.0</speed>
  <fix>3d</fix>
</trkpt>
<trkpt lat="40.0713749" lon="-105.229789">
  <ele>1583.0</ele>
  <time>2026-08-28T17:49:00Z</time>
  <course>248.27</course>
  <speed>0.01</speed>
  <fix>3d</fix>
</trkpt>
<trkpt lat="40.0713749" lon="-105.229789">
  <ele>1583.0</ele>
  <time>2026-08-28T17:49:00Z</time>
  <course>0.0</course>
  <speed>0.0</speed>
  <fix>3d</fix>
</trkpt>
<trkpt lat="40.0713749" lon="-105.229789">
  <ele>1583.0</ele>
  <time>2026-08-28T17:49:00Z</time>
  <course>248.26</course>
  <speed>0.01</speed>
  <fix>3d</fix>
</trkpt>
<trkpt lat="40.0713749" lon="-105.229789">
  <ele>1583.0</ele>
  <time>2026-08-28T17:49:00Z</time>
  <course>0.0</course>
  <speed>0.0</speed>
  <fix>3d</fix>
</trkpt>
<trkpt lat="40.0713749" lon="-105.229789">
  <ele>1583.0</ele>
  <time>2026-08-28T17:49:00Z</time>
  <course>248.26</course>
  <speed>0.01</speed>
  <fix>3d</fix>
</trkpt>
<trkpt lat="40.0713749" lon="-105.229789">
  <ele>1583.0</ele>
  <time>2026-08-28T17:49:00Z</time>
  <course>0.0</course>
  <speed>0.0</speed>
  <fix>3d</fix>
</trkpt>
<trkpt lat="40.0713749" lon="-105.229789">
  <ele>1583.0</ele>
  <time>2026-08-28T17:49:00Z</time>
  <course>248.26</course>
  <speed>0.01</speed>
  <fix>3d</fix>
</trkpt>
<trkpt lat="40.0713749" lon="-105.229789">
  <ele>1583.0</ele>
  <time>2026-08-28T17:49:00Z</time>
  <course>0.0</course>
  <speed>0.0</speed>
  <fix>3d</fix>
</trkpt>
<trkpt lat="40.0713749" lon="-105.229789">
  <ele>1583.0</ele>
  <time>2026-08-28T17:49:00Z</time>
  <course>248.25</course>
  <speed>0.01</speed>
  <fix>3d</fix>
</trkpt>
<trkpt lat="40.0713749" lon="-105.229789">
  <ele>1583.0</ele>
  <time>2026-08-28T17:49:00Z</time>
  <course>0.0</course>
  <speed>0.0</speed>
  <fix>3d</fix>
</trkpt>
<trkpt lat="40.0713749" lon="-105.229789">
  <ele>1583.0</ele>
  <time>2026-08-28T17:49:00Z</time>
  <course>248.25</course>
  <speed>0.01</speed>
  <fix>3d</fix>
</trkpt>
<trkpt lat="40.0713749" lon="-105.229789">
  <ele>1583.0</ele>
  <time>2026-08-28T17:49:00Z</time>
  <course>0.0</course>
  <speed>0.0</speed>
  <fix>3d</fix>
</trkpt>
<trkpt lat="40.0713749" lon="-105.229789">
  <ele>1583.0</ele>
  <time>2026-08-28T17:49:00Z</time>
  <course>248.24</course>
  <speed>0.01</speed>
  <fix>3d</fix>
</trkpt>
<trkpt lat="40.0713749" lon="-105.229789">
  <ele>1583.0</ele>
  <time>2026-08-28T17:49:00Z</time>
  <course>0.0</course>
  <speed>0.0</speed>
  <fix>3d</fix>
</trkpt>
<trkpt lat="40.0713749" lon="-105.229789">
  <ele>1583.0</ele>
  <time>2026-08-28T17:49:00Z</time>
  <course>248.24</course>
  <speed>0.01</speed>
  <fix>3d</fix>
</trkpt>
<trkpt lat="40.0713749" lon="-105.229789">
  <ele>1583.0</ele>
  <time>2026-08-28T17:49:00Z</time>
  <course>0.0</course>
  <speed>0.0</speed>
  <fix>3d</fix>
</trkpt>
<trkpt lat="40.0713749" lon="-105.229789">
  <ele>1583.0</ele>
  <time>2026-08-28T17:49:00Z</time>
  <course>248.23</course>
  <speed>0.01</speed>
  <fix>3d</fix>
</trkpt>
<trkpt lat="40.0713749" lon="-105.229789">
  <ele>1583.0</ele>
  <time>2026-08-28T17:49:00Z</time>
  <course>0.0</course>
  <speed>0.0</speed>
  <fix>3d</fix>
</trkpt>
<trkpt lat="40.0713749" lon="-105.229789">
  <ele>1583.0</ele>
  <time>2026-08-28T17:49:00Z</time>
  <course>248.23</course>
  <speed>0.01</speed>
  <fix>3d</fix>
</trkpt>
<trkpt lat="40.0713749" lon="-105.229789">
  <ele>1583.0</ele>
  <time>2026-08-28T17:49:00Z</time>
  <course>0.0</course>
  <speed>0.0</speed>
  <fix>3d</fix>
</trkpt>
<trkpt lat="40.0713749" lon="-105.229789">
  <ele>1583.0</ele>
  <time>2026-08-28T17:49:00Z</time>
  <course>248.22</course>
  <speed>0.01</speed>
  <fix>3d</fix>
</trkpt>
<trkpt lat="40.0713749" lon="-105.229789">
  <ele>1583.0</ele>
  <time>2026-08-28T17:49:00Z</time>
  <course>0.0</course>
  <speed>0.0</speed>
  <fix>3d</fix>
</trkpt>
<trkpt lat="40.0713749" lon="-105.229789">
  <ele>1583.0</ele>
  <time>2026-08-28T17:49:00Z</time>
  <course>248.22</course>
  <speed>0.01</speed>
  <fix>3d</fix>
</trkpt>
<trkpt lat="40.0713749" lon="-105.229789">
  <ele>1583.0</ele>
  <time>2026-08-28T17:49:00Z</time>
  <course>0.0</course>
  <speed>0.0</speed>
  <fix>3d</fix>
</trkpt>
<trkpt lat="40.0713749" lon="-105.229789">
  <ele>1583.0</ele>
  <time>2026-08-28T17:49:00Z</time>
  <course>248.21</course>
  <speed>0.01</speed>
  <fix>3d</fix>
</trkpt>
<trkpt lat="40.0713749" lon="-105.229789">
  <ele>1583.0</ele>
  <time>2026-08-28T17:49:00Z</time>
  <course>0.0</course>
  <speed>0.0</speed>
  <fix>3d</fix>
</trkpt>
<trkpt lat="40.0713749" lon="-105.229789">
  <ele>1583.0</ele>
  <time>2026-08-28T17:49:00Z</time>
  <course>248.21</course>
  <speed>0.01</speed>
  <fix>3d</fix>
</trkpt>
<trkpt lat="40.0713749" lon="-105.229789">
  <ele>1583.0</ele>
  <time>2026-08-28T17:49:00Z</time>
  <course>0.0</course>
  <speed>0.0</speed>
  <fix>3d</fix>
</trkpt>
<trkpt lat="40.0713749" lon="-105.229789">
  <ele>1583.0</ele>
  <time>2026-08-28T17:49:00Z</time>
  <course>248.2</course>
  <speed>0.01</speed>
  <fix>3d</fix>
</trkpt>
<trkpt lat="40.0713749" lon="-105.229789">
  <ele>1583.0</ele>
  <time>2026-08-28T17:49:00Z</time>
  <course>0.0</course>
  <speed>0.0</speed>
  <fix>3d</fix>
</trkpt>
<trkpt lat="40.0713749" lon="-105.229789">
  <ele>1583.0</ele>
  <time>2026-08-28T17:49:00Z</time>
  <course>248.2</course>
  <speed>0.01</speed>
  <fix>3d</fix>
</trkpt>
<trkpt lat="40.0713749" lon="-105.229789">
  <ele>1583.0</ele>
  <time>2026-08-28T17:49:00Z</time>
  <course>0.0</course>
  <speed>0.0</speed>
  <fix>3d</fix>
</trkpt>
<trkpt lat="40.0713749" lon="-105.229789">
  <ele>1583.0</ele>
  <time>2026-08-28T17:49:00Z</time>
  <course>248.19</course>
  <speed>0.01</speed>
  <fix>3d</fix>
</trkpt>
<trkpt lat="40.0713749" lon="-105.229789">
  <ele>1583.0</ele>
  <time>2026-08-28T17:49:00Z</time>
  <course>0.0</course>
  <speed>0.0</speed>
  <fix>3d</fix>
</trkpt>
<trkpt lat="40.0713749" lon="-105.229789">
  <ele>1583.0</ele>
  <time>2026-08-28T17:49:00Z</time>
  <course>248.19</course>
  <speed>0.01</speed>
  <fix>3d</fix>
</trkpt>
<trkpt lat="40.0713749" lon="-105.229789">
  <ele>1583.0</ele>
  <time>2026-08-28T17:49:00Z</time>
  <course>0.0</course>
  <speed>0.0</speed>
  <fix>3d</fix>
</trkpt>
<trkpt lat="40.0713749" lon="-105.229789">
  <ele>1583.0</ele>
  <time>2026-08-28T17:49:00Z</time>
  <course>248.18</course>
  <speed>0.01</speed>
  <fix>3d</fix>
</trkpt>
<trkpt lat="40.0713749" lon="-105.229789">
  <ele>1583.0</ele>
  <time>2026-08-28T17:49:00Z</time>
  <course>0.0</course>
  <speed>0.0</speed>
  <fix>3d</fix>
</trkpt>
<trkpt lat="40.0713749" lon="-105.229789">
  <ele>1583.0</ele>
  <time>2026-08-28T17:49:00Z</time>
  <course>248.18</course>
  <speed>0.01</speed>
  <fix>3d</fix>
</trkpt>
<trkpt lat="40.0713749" lon="-105.229789">
  <ele>1583.0</ele>
  <time>2026-08-28T17:49:00Z</time>
  <course>0.0</course>
  <speed>0.0</speed>
  <fix>3d</fix>
</trkpt>
<trkpt lat="40.0713749" lon="-105.229789">
  <ele>1583.0</ele>
  <time>2026-08-28T17:49:00Z</time>
  <course>248.17</course>
  <speed>0.022360679774997897</speed>
  <fix>3d</fix>
</trkpt>
<trkpt lat="40.0713749" lon="-105.229789">
  <ele>1583.0</ele>
  <time>2026-08-28T17:49:00Z</time>
  <course>0.0</course>
  <speed>0.0</speed>
  <fix>3d</fix>
</trkpt>
<trkpt lat="40.0713749" lon="-105.229789">
  <ele>1583.0</ele>
  <time>2026-08-28T17:49:00Z</time>
  <course>248.17</course>
  <speed>0.022360679774997897</speed>
  <fix>3d</fix>
</trkpt>
<trkpt lat="40.0713749" lon="-105.229789">
  <ele>1583.0</ele>
  <time>2026-08-28T17:49:00Z</time>
  <course>0.0</course>
  <speed>0.0</speed>
  <fix>3d</fix>
</trkpt>
<trkpt lat="40.0713749" lon="-105.229789">
  <ele>1583.0</ele>
  <time>2026-08-28T17:49:00Z</time>
  <course>248.16</course>
  <speed>0.022360679774997897</speed>
  <fix>3d</fix>
</trkpt>
<trkpt lat="40.0713749" lon="-105.229789">
  <ele>1583.0</ele>
  <time>2026-08-28T17:49:00Z</time>
  <course>0.0</course>
  <speed>0.0</speed>
  <fix>3d</fix>
</trkpt>
<trkpt lat="40.0713749" lon="-105.229789">
  <ele>1583.0</ele>
  <time>2026-08-28T17:49:00Z</time>
  <course>248.16</course>
  <speed>0.022360679774997897</speed>
  <fix>3d</fix>
</trkpt>
<trkpt lat="40.0713749" lon="-105.229789">
  <ele>1583.0</ele>
  <time>2026-08-28T17:49:00Z</time>
  <course>0.0</course>
  <speed>0.0</speed>
  <fix>3d</fix>
</trkpt>
<trkpt lat="40.0713749" lon="-105.229789">
  <ele>1583.0</ele>
  <time>2026-08-28T17:49:00Z</time>
  <course>248.15</course>
  <speed>0.022360679774997897</speed>
  <fix>3d</fix>
</trkpt>
<trkpt lat="40.0713749" lon="-105.229789">
  <ele>1583.0</ele>
  <time>2026-08-28T17:49:00Z</time>
  <course>0.0</course>
  <speed>0.0</speed>
  <fix>3d</fix>
</trkpt>
<trkpt lat="40.0713749" lon="-105.229789">
  <ele>1583.0</ele>
  <time>2026-08-28T17:49:00Z</time>
  <course>248.15</course>
  <speed>0.022360679774997897</speed>
  <fix>3d</fix>
</trkpt>
<trkpt lat="40.0713749" lon="-105.229789">
  <ele>1583.0</ele>
  <time>2026-08-28T17:49:00Z</time>
  <course>0.0</course>
  <speed>0.0</speed>
  <fix>3d</fix>
</trkpt>
<trkpt lat="40.0713749" lon="-105.229789">
  <ele>1583.0</ele>
  <time>2026-08-28T17:49:00Z</time>
  <course>248.14</course>
  <speed>0.022360679774997897</speed>
  <fix>3d</fix>
</trkpt>
<trkpt lat="40.0713749" lon="-105.229789">
  <ele>1583.0</ele>
  <time>2026-08-28T17:49:00Z</time>
  <course>0.0</course>
  <speed>0.0</speed>
  <fix>3d</fix>
</trkpt>
<trkpt lat="40.0713749" lon="-105.229789">
  <ele>1583.0</ele>
  <time>2026-08-28T17:49:00Z</time>
  <course>248.14</course>
  <speed>0.022360679774997897</speed>
  <fix>3d</fix>
</trkpt>
<trkpt lat="40.0713749" lon="-105.229789">
  <ele>1583.0</ele>
  <time>2026-08-28T17:49:00Z</time>
  <course>0.0</course>
  <speed>0.0</speed>
  <fix>3d</fix>
</trkpt>
<trkpt lat="40.0713749" lon="-105.229789">
  <ele>1583.0</ele>
  <time>2026-08-28T17:49:00Z</time>
  <course>248.13</course>
  <speed>0.022360679774997897</speed>
  <fix>3d</fix>
</trkpt>
<trkpt lat="40.0713749" lon="-105.229789">
  <ele>1583.0</ele>
  <time>2026-08-28T17:49:00Z</time>
  <course>0.0</course>
  <speed>0.0</speed>
  <fix>3d</fix>
</trkpt>
<trkpt lat="40.0713749" lon="-105.229789">
  <ele>1583.0</ele>
  <time>2026-08-28T17:49:00Z</time>
  <course>248.13</course>
  <speed>0.022360679774997897</speed>
  <fix>3d</fix>
</trkpt>
<trkpt lat="40.0713749" lon="-105.229789">
  <ele>1583.0</ele>
  <time>2026-08-28T17:49:00Z</time>
  <course>0.0</course>
  <speed>0.0</speed>
  <fix>3d</fix>
</trkpt>
<trkpt lat="40.0713749" lon="-105.229789">
  <ele>1583.0</ele>
  <time>2026-08-28T17:49:00Z</time>
  <course>248.12</course>
  <speed>0.022360679774997897</speed>
  <fix>3d</fix>
</trkpt>
<trkpt lat="40.0713749" lon="-105.229789">
  <ele>1583.0</ele>
  <time>2026-08-28T17:49:00Z</time>
  <course>0.0</course>
  <speed>0.0</speed>
  <fix>3d</fix>
</trkpt>
<trkpt lat="40.0713749" lon="-105.229789">
  <ele>1583.0</ele>
  <time>2026-08-28T17:49:00Z</time>
  <course>248.12</course>
  <speed>0.022360679774997897</speed>
  <fix>3d</fix>
</trkpt>
<trkpt lat="40.0713749" lon="-105.229789">
  <ele>1583.0</ele>
  <time>2026-08-28T17:49:00Z</time>
  <course>0.0</course>
  <speed>0.0</speed>
  <fix>3d</fix>
</trkpt>
<trkpt lat="40.0713749" lon="-105.229789">
  <ele>1583.0</ele>
  <time>2026-08-28T17:49:00Z</time>
  <course>248.11</course>
  <speed>0.022360679774997897</speed>
  <fix>3d</fix>
</trkpt>
<trkpt lat="40.0713749" lon="-105.229789">
  <ele>1583.0</ele>
  <time>2026-08-28T17:49:00Z</time>
  <course>0.0</course>
  <speed>0.0</speed>
  <fix>3d</fix>
</trkpt>
<trkpt lat="40.0713749" lon="-105.229789">
  <ele>1583.0</ele>
  <time>2026-08-28T17:49:00Z</time>
  <course>248.11</course>
  <speed>0.022360679774997897</speed>
  <fix>3d</fix>
</trkpt>
<trkpt lat="40.0713749" lon="-105.229789">
  <ele>1583.0</ele>
  <time>2026-08-28T17:49:00Z</time>
  <course>0.0</course>
  <speed>0.0</speed>
  <fix>3d</fix>
</trkpt>
<trkpt lat="40.0713749" lon="-105.229789">
  <ele>1583.0</ele>
  <time>2026-08-28T17:49:00Z</time>
  <course>248.1</course>
  <speed>0.022360679774997897</speed>
  <fix>3d</fix>
</trkpt>
<trkpt lat="40.0713749" lon="-105.229789">
  <ele>1583.0</ele>
  <time>2026-08-28T17:49:00Z</time>
  <course>0.0</course>
  <speed>0.0</speed>
  <fix>3d</fix>
</trkpt>
<trkpt lat="40.0713749" lon="-105.229789">
  <ele>1583.0</ele>
  <time>2026-08-28T17:49:00Z</time>
  <course>248.1</course>
  <speed>0.022360679774997897</speed>
  <fix>3d</fix>
</trkpt>
<trkpt lat="40.0713749" lon="-105.229789">
  <ele>1583.0</ele>
  <time>2026-08-28T17:49:00Z</time>
  <course>0.0</course>
  <speed>0.0</speed>
  <fix>3d</fix>
</trkpt>
<trkpt lat="40.0713749" lon="-105.229789">
  <ele>1583.0</ele>
  <time>2026-08-28T17:49:00Z</time>
  <course>248.09</course>
  <speed>0.022360679774997897</speed>
  <fix>3d</fix>
</trkpt>
<trkpt lat="40.0713749" lon="-105.229789">
  <ele>1583.0</ele>
  <time>2026-08-28T17:49:00Z</time>
  <course>0.0</course>
  <speed>0.0</speed>
  <fix>3d</fix>
</trkpt>
<trkpt lat="40.0713749" lon="-105.229789">
  <ele>1583.0</ele>
  <time>2026-08-28T17:49:00Z</time>
  <course>248.09</course>
  <speed>0.022360679774997897</speed>
  <fix>3d</fix>
</trkpt>
<trkpt lat="40.0713749" lon="-105.229789">
  <ele>1583.0</ele>
  <time>2026-08-28T17:49:00Z</time>
  <course>0.0</course>
  <speed>0.0</speed>
  <fix>3d</fix>
</trkpt>
<trkpt lat="40.0713749" lon="-105.229789">
  <ele>1583.0</ele>
  <time>2026-08-28T17:49:00Z</time>
  <course>248.08</course>
  <speed>0.022360679774997897</speed>
  <fix>3d</fix>
</trkpt>
<trkpt lat="40.0713749" lon="-105.229789">
  <ele>1583.0</ele>
  <time>2026-08-28T17:49:00Z</time>
  <course>0.0</course>
  <speed>0.0</speed>
  <fix>3d</fix>
</trkpt>
<trkpt lat="40.0713749" lon="-105.229789">
  <ele>1583.0</ele>
  <time>2026-08-28T17:49:00Z</time>
  <course>248.08</course>
  <speed>0.022360679774997897</speed>
  <fix>3d</fix>
</trkpt>
<trkpt lat="40.0713749" lon="-105.229789">
  <ele>1583.0</ele>
  <time>2026-08-28T17:49:00Z</time>
  <course>0.0</course>
  <speed>0.0</speed>
  <fix>3d</fix>
</trkpt>
<trkpt lat="40.0713749" lon="-105.229789">
  <ele>1583.0</ele>
  <time>2026-08-28T17:49:00Z</time>
  <course>248.07</course>
  <speed>0.022360679774997897</speed>
  <fix>3d</fix>
</trkpt>
<trkpt lat="40.0713749" lon="-105.229789">
  <ele>1583.0</ele>
  <time>2026-08-28T17:49:00Z</time>
  <course>0.0</course>
  <speed>0.0</speed>
  <fix>3d</fix>
</trkpt>
<trkpt lat="40.0713749" lon="-105.229789">
  <ele>1583.0</ele>
  <time>2026-08-28T17:49:00Z</time>
  <course>248.07</course>
  <speed>0.022360679774997897</speed>
  <fix>3d</fix>
</trkpt>
<trkpt lat="40.0713749" lon="-105.229789">
  <ele>1583.0</ele>
  <time>2026-08-28T17:49:00Z</time>
  <course>0.0</course>
  <speed>0.0</speed>
  <fix>3d</fix>
</trkpt>
<trkpt lat="40.0713749" lon="-105.229789">
  <ele>1583.0</ele>
  <time>2026-08-28T17:49:00Z</time>
  <course>248.06</course>
  <speed>0.022360679774997897</speed>
  <fix>3d</fix>
</trkpt>
<trkpt lat="40.0713749" lon="-105.229789">
  <ele>1583.0</ele>
  <time>2026-08-28T17:49:00Z</time>
  <course>0.0</course>
  <speed>0.0</speed>
  <fix>3d</fix>
</trkpt>
<trkpt lat="40.0713749" lon="-105.229789">
  <ele>1583.0</ele>
  <time>2026-08-28T17:49:00Z</time>
  <course>248.06</course>
  <speed>0.022360679774997897</speed>
  <fix>3d</fix>
</trkpt>
<trkpt lat="40.0713749" lon="-105.229789">
  <ele>1583.0</ele>
  <time>2026-08-28T17:49:00Z</time>
  <course>0.0</course>
  <speed>0.0</speed>
  <fix>3d</fix>
</trkpt>
<trkpt lat="40.0713749" lon="-105.229789">
  <ele>1583.0</ele>
  <time>2026-08-28T17:49:00Z</time>
  <course>248.05</course>
  <speed>0.022360679774997897</speed>
  <fix>3d</fix>
</trkpt>
<trkpt lat="40.0713749" lon="-105.229789">
  <ele>1583.0</ele>
  <time>2026-08-28T17:49:00Z</time>
  <course>0.0</course>
  <speed>0.0</speed>
  <fix>3d</fix>
</trkpt>
<trkpt lat="40.0713749" lon="-105.229789">
  <ele>1583.0</ele>
  <time>2026-08-28T17:49:00Z</time>
  <course>248.05</course>
  <speed>0.022360679774997897</speed>
  <fix>3d</fix>
</trkpt>
<trkpt lat="40.0713749" lon="-105.229789">
  <ele>1583.0</ele>
  <time>2026-08-28T17:49:00Z</time>
  <course>0.0</course>
  <speed>0.0</speed>
  <fix>3d</fix>
</trkpt>
<trkpt lat="40.0713749" lon="-105.229789">
  <ele>1583.0</ele>
  <time>2026-08-28T17:49:00Z</time>
  <course>248.05</course>
  <speed>0.022360679774997897</speed>
  <fix>3d</fix>
</trkpt>
<trkpt lat="40.0713749" lon="-105.229789">
  <ele>1583.0</ele>
  <time>2026-08-28T17:49:00Z</time>
  <course>0.0</course>
  <speed>0.0</speed>
  <fix>3d</fix>
</trkpt>
<trkpt lat="40.0713749" lon="-105.229789">
  <ele>1583.0</ele>
  <time>2026-08-28T17:49:00Z</time>
  <course>248.04</course>
  <speed>0.022360679774997897</speed>
  <fix>3d</fix>
</trkpt>
<trkpt lat="40.0713749" lon="-105.229789">
  <ele>1583.0</ele>
  <time>2026-08-28T17:49:00Z</time>
  <course>0.0</course>
  <speed>0.0</speed>
  <fix>3d</fix>
</trkpt>
<trkpt lat="40.0713749" lon="-105.229789">
  <ele>1583.0</ele>
  <time>2026-08-28T17:49:00Z</time>
  <course>248.04</course>
  <speed>0.022360679774997897</speed>
  <fix>3d</fix>
</trkpt>
<trkpt lat="40.0713749" lon="-105.229789">
  <ele>1583.0</ele>
  <time>2026-08-28T17:49:00Z</time>
  <course>0.0</course>
  <speed>0.0</speed>
  <fix>3d</fix>
</trkpt>
<trkpt lat="40.0713749" lon="-105.229789">
  <ele>1583.0</ele>
  <time>2026-08-28T17:49:00Z</time>
  <course>248.03</course>
  <speed>0.022360679774997897</speed>
  <fix>3d</fix>
</trkpt>
<trkpt lat="40.0713749" lon="-105.229789">
  <ele>1583.0</ele>
  <time>2026-08-28T17:49:00Z</time>
  <course>0.0</course>
  <speed>0.0</speed>
  <fix>3d</fix>
</trkpt>
<trkpt lat="40.0713749" lon="-105.229789">
  <ele>1583.0</ele>
  <time>2026-08-28T17:49:00Z</time>
  <course>248.03</course>
  <speed>0.022360679774997897</speed>
  <fix>3d</fix>
</trkpt>
<trkpt lat="40.0713749" lon="-105.229789">
  <ele>1583.0</ele>
  <time>2026-08-28T17:49:00Z</time>
  <course>0.0</course>
  <speed>0.0</speed>
  <fix>3d</fix>
</trkpt>
<trkpt lat="40.0713749" lon="-105.229789">
  <ele>1583.0</ele>
  <time>2026-08-28T17:49:00Z</time>
  <course>248.02</course>
  <speed>0.022360679774997897</speed>
  <fix>3d</fix>
</trkpt>
<trkpt lat="40.0713749" lon="-105.229789">
  <ele>1583.0</ele>
  <time>2026-08-28T17:49:00Z</time>
  <course>0.0</course>
  <speed>0.0</speed>
  <fix>3d</fix>
</trkpt>
<trkpt lat="40.0713749" lon="-105.229789">
  <ele>1583.0</ele>
  <time>2026-08-28T17:49:00Z</time>
  <course>248.02</course>
  <speed>0.022360679774997897</speed>
  <fix>3d</fix>
</trkpt>
<trkpt lat="40.0713749" lon="-105.229789">
  <ele>1583.0</ele>
  <time>2026-08-28T17:49:00Z</time>
  <course>0.0</course>
  <speed>0.0</speed>
  <fix>3d</fix>
</trkpt>
<trkpt lat="40.0713749" lon="-105.229789">
  <ele>1583.0</ele>
  <time>2026-08-28T17:49:00Z</time>
  <course>248.01</course>
  <speed>0.022360679774997897</speed>
  <fix>3d</fix>
</trkpt>
<trkpt lat="40.0713749" lon="-105.229789">
  <ele>1583.0</ele>
  <time>2026-08-28T17:49:00Z</time>
  <course>0.0</course>
  <speed>0.0</speed>
  <fix>3d</fix>
</trkpt>
<trkpt lat="40.0713749" lon="-105.229789">
  <ele>1583.0</ele>
  <time>2026-08-28T17:49:00Z</time>
  <course>248.01</course>
  <speed>0.022360679774997897</speed>
  <fix>3d</fix>
</trkpt>
<trkpt lat="40.0713749" lon="-105.229789">
  <ele>1583.0</ele>
  <time>2026-08-28T17:49:00Z</time>
  <course>0.0</course>
  <speed>0.0</speed>
  <fix>3d</fix>
</trkpt>
<trkpt lat="40.0713749" lon="-105.229789">
  <ele>1583.0</ele>
  <time>2026-08-28T17:49:00Z</time>
  <course>248.0</course>
  <speed>0.022360679774997897</speed>
  <fix>3d</fix>
</trkpt>
<trkpt lat="40.0713749" lon="-105.229789">
  <ele>1583.0</ele>
  <time>2026-08-28T17:49:00Z</time>
  <course>0.0</course>
  <speed>0.0</speed>
  <fix>3d</fix>
</trkpt>
<trkpt lat="40.0713749" lon="-105.229789">
  <ele>1583.0</ele>
  <time>2026-08-28T17:49:00Z</time>
  <course>248.0</course>
  <speed>0.022360679774997897</speed>
  <fix>3d</fix>
</trkpt>
<trkpt lat="40.0713749" lon="-105.229789">
  <ele>1583.0</ele>
  <time>2026-08-28T17:49:00Z</time>
  <course>0.0</course>
  <speed>0.0</speed>
  <fix>3d</fix>
</trkpt>
<trkpt lat="40.0713749" lon="-105.229789">
  <ele>1583.0</ele>
  <time>2026-08-28T17:49:00Z</time>
  <course>247.99</course>
  <speed>0.022360679774997897</speed>
  <fix>3d</fix>
</trkpt>
<trkpt lat="40.0713749" lon="-105.229789">
  <ele>1583.0</ele>
  <time>2026-08-28T17:49:00Z</time>
  <course>0.0</course>
  <speed>0.0</speed>
  <fix>3d</fix>
</trkpt>
<trkpt lat="40.0713749" lon="-105.229789">
  <ele>1583.0</ele>
  <time>2026-08-28T17:49:00Z</time>
  <course>247.99</course>
  <speed>0.022360679774997897</speed>
  <fix>3d</fix>
</trkpt>
<trkpt lat="40.0713749" lon="-105.229789">
  <ele>1583.0</ele>
  <time>2026-08-28T17:49:00Z</time>
  <course>0.0</course>
  <speed>0.0</speed>
  <fix>3d</fix>
</trkpt>
<trkpt lat="40.0713749" lon="-105.229789">
  <ele>1583.0</ele>
  <time>2026-08-28T17:49:00Z</time>
  <course>247.99</course>
  <speed>0.022360679774997897</speed>
  <fix>3d</fix>
</trkpt>
<trkpt lat="40.0713749" lon="-105.229789">
  <ele>1583.0</ele>
  <time>2026-08-28T17:49:00Z</time>
  <course>0.0</course>
  <speed>0.0</speed>
  <fix>3d</fix>
</trkpt>
<trkpt lat="40.0713749" lon="-105.229789">
  <ele>1583.0</ele>
  <time>2026-08-28T17:49:00Z</time>
  <course>247.98</course>
  <speed>0.022360679774997897</speed>
  <fix>3d</fix>
</trkpt>
<trkpt lat="40.0713749" lon="-105.229789">
  <ele>1583.0</ele>
  <time>2026-08-28T17:49:00Z</time>
  <course>0.0</course>
  <speed>0.0</speed>
  <fix>3d</fix>
</trkpt>
<trkpt lat="40.0713749" lon="-105.229789">
  <ele>1583.0</ele>
  <time>2026-08-28T17:49:00Z</time>
  <course>247.98</course>
  <speed>0.022360679774997897</speed>
  <fix>3d</fix>
</trkpt>
<trkpt lat="40.0713749" lon="-105.229789">
  <ele>1583.0</ele>
  <time>2026-08-28T17:49:00Z</time>
  <course>0.0</course>
  <speed>0.0</speed>
  <fix>3d</fix>
</trkpt>
<trkpt lat="40.0713749" lon="-105.229789">
  <ele>1583.0</ele>
  <time>2026-08-28T17:49:00Z</time>
  <course>247.97</course>
  <speed>0.022360679774997897</speed>
  <fix>3d</fix>
</trkpt>
<trkpt lat="40.0713749" lon="-105.229789">
  <ele>1583.0</ele>
  <time>2026-08-28T17:49:00Z</time>
  <course>0.0</course>
  <speed>0.0</speed>
  <fix>3d</fix>
</trkpt>
<trkpt lat="40.0713749" lon="-105.229789">
  <ele>1583.0</ele>
  <time>2026-08-28T17:49:00Z</time>
  <course>247.97</course>
  <speed>0.022360679774997897</speed>
  <fix>3d</fix>
</trkpt>
<trkpt lat="40.0713749" lon="-105.229789">
  <ele>1583.0</ele>
  <time>2026-08-28T17:49:00Z</time>
  <course>0.0</course>
  <speed>0.0</speed>
  <fix>3d</fix>
</trkpt>
<trkpt lat="40.0713749" lon="-105.229789">
  <ele>1583.0</ele>
  <time>2026-08-28T17:49:00Z</time>
  <course>247.96</course>
  <speed>0.022360679774997897</speed>
  <fix>3d</fix>
</trkpt>
<trkpt lat="40.0713749" lon="-105.229789">
  <ele>1583.0</ele>
  <time>2026-08-28T17:49:00Z</time>
  <course>0.0</course>
  <speed>0.0</speed>
  <fix>3d</fix>
</trkpt>
<trkpt lat="40.0713749" lon="-105.229789">
  <ele>1583.0</ele>
  <time>2026-08-28T17:49:00Z</time>
  <course>247.96</course>
  <speed>0.022360679774997897</speed>
  <fix>3d</fix>
</trkpt>
<trkpt lat="40.0713749" lon="-105.229789">
  <ele>1583.0</ele>
  <time>2026-08-28T17:49:00Z</time>
  <course>0.0</course>
  <speed>0.0</speed>
  <fix>3d</fix>
</trkpt>
<trkpt lat="40.0713749" lon="-105.229789">
  <ele>1583.0</ele>
  <time>2026-08-28T17:49:00Z</time>
  <course>247.95</course>
  <speed>0.022360679774997897</speed>
  <fix>3d</fix>
</trkpt>
<trkpt lat="40.0713749" lon="-105.229789">
  <ele>1583.0</ele>
  <time>2026-08-28T17:49:00Z</time>
  <course>0.0</course>
  <speed>0.0</speed>
  <fix>3d</fix>
</trkpt>
<trkpt lat="40.0713749" lon="-105.229789">
  <ele>1583.0</ele>
  <time>2026-08-28T17:49:00Z</time>
  <course>247.95</course>
  <speed>0.022360679774997897</speed>
  <fix>3d</fix>
</trkpt>
<trkpt lat="40.0713749" lon="-105.229789">
  <ele>1583.0</ele>
  <time>2026-08-28T17:49:00Z</time>
  <course>0.0</course>
  <speed>0.0</speed>
  <fix>3d</fix>
</trkpt>
<trkpt lat="40.0713749" lon="-105.229789">
  <ele>1583.0</ele>
  <time>2026-08-28T17:49:00Z</time>
  <course>247.95</course>
  <speed>0.022360679774997897</speed>
  <fix>3d</fix>
</trkpt>
<trkpt lat="40.0713749" lon="-105.229789">
  <ele>1583.0</ele>
  <time>2026-08-28T17:49:00Z</time>
  <course>0.0</course>
  <speed>0.0</speed>
  <fix>3d</fix>
</trkpt>
<trkpt lat="40.0713749" lon="-105.229789">
  <ele>1583.0</ele>
  <time>2026-08-28T17:49:00Z</time>
  <course>247.94</course>
  <speed>0.022360679774997897</speed>
  <fix>3d</fix>
</trkpt>
<trkpt lat="40.0713749" lon="-105.229789">
  <ele>1583.0</ele>
  <time>2026-08-28T17:49:00Z</time>
  <course>0.0</course>
  <speed>0.0</speed>
  <fix>3d</fix>
</trkpt>
<trkpt lat="40.0713749" lon="-105.229789">
  <ele>1583.0</ele>
  <time>2026-08-28T17:49:00Z</time>
  <course>247.94</course>
  <speed>0.022360679774997897</speed>
  <fix>3d</fix>
</trkpt>
<trkpt lat="40.0713749" lon="-105.229789">
  <ele>1583.0</ele>
  <time>2026-08-28T17:49:00Z</time>
  <course>0.0</course>
  <speed>0.0</speed>
  <fix>3d</fix>
</trkpt>
<trkpt lat="40.0713749" lon="-105.229789">
  <ele>1583.0</ele>
  <time>2026-08-28T17:49:00Z</time>
  <course>247.93</course>
  <speed>0.022360679774997897</speed>
  <fix>3d</fix>
</trkpt>
<trkpt lat="40.0713749" lon="-105.229789">
  <ele>1583.0</ele>
  <time>2026-08-28T17:49:00Z</time>
  <course>0.0</course>
  <speed>0.0</speed>
  <fix>3d</fix>
</trkpt>
<trkpt lat="40.0713749" lon="-105.229789">
  <ele>1583.0</ele>
  <time>2026-08-28T17:49:00Z</time>
  <course>247.93</course>
  <speed>0.022360679774997897</speed>
  <fix>3d</fix>
</trkpt>
<trkpt lat="40.0713749" lon="-105.229789">
  <ele>1583.0</ele>
  <time>2026-08-28T17:49:00Z</time>
  <course>0.0</course>
  <speed>0.0</speed>
  <fix>3d</fix>
</trkpt>
<trkpt lat="40.0713749" lon="-105.229789">
  <ele>1583.0</ele>
  <time>2026-08-28T17:49:00Z</time>
  <course>247.92</course>
  <speed>0.022360679774997897</speed>
  <fix>3d</fix>
</trkpt>
<trkpt lat="40.0713749" lon="-105.229789">
  <ele>1583.0</ele>
  <time>2026-08-28T17:49:00Z</time>
  <course>0.0</course>
  <speed>0.0</speed>
  <fix>3d</fix>
</trkpt>
<trkpt lat="39.655741" lon="-104.1383097">
  <ele>1566.58</ele>
  <time>2026-08-28T17:49:00Z</time>
  <course>0.0</course>
  <speed>0.0</speed>
  <fix>3d</fix>
</trkpt>
<trkpt lat="40.0713749" lon="-105.229789">
  <ele>1583.0</ele>
  <time>2026-08-28T17:49:00Z</time>
  <course>0.0</course>
  <speed>0.0</speed>
  <fix>3d</fix>
</trkpt>
<trkpt lat="40.0713749" lon="-105.229789">
  <ele>1583.0</ele>
  <time>2026-08-28T17:49:00Z</time>
  <course>238.36</course>
  <speed>0.0</speed>
  <fix>3d</fix>
</trkpt>
<trkpt lat="40.0713749" lon="-105.229789">
  <ele>1583.0</ele>
  <time>2026-08-28T17:49:00Z</time>
  <course>0.0</course>
  <speed>0.0</speed>
  <fix>3d</fix>
</trkpt>
<trkpt lat="40.0713749" lon="-105.229789">
  <ele>1583.0</ele>
  <time>2026-08-28T17:49:00Z</time>
  <course>238.44</course>
  <speed>0.0</speed>
  <fix>3d</fix>
</trkpt>
<trkpt lat="40.0713749" lon="-105.229789">
  <ele>1583.0</ele>
  <time>2026-08-28T17:49:00Z</time>
  <course>0.0</course>
  <speed>0.0</speed>
  <fix>3d</fix>
</trkpt>
<trkpt lat="40.0713749" lon="-105.229789">
  <ele>1583.0</ele>
  <time>2026-08-28T17:49:00Z</time>
  <course>238.64</course>
  <speed>0.0</speed>
  <fix>3d</fix>
</trkpt>
<trkpt lat="40.0713749" lon="-105.229789">
  <ele>1583.0</ele>
  <time>2026-08-28T17:49:00Z</time>
  <course>0.0</course>
  <speed>0.0</speed>
  <fix>3d</fix>
</trkpt>
<trkpt lat="40.0713749" lon="-105.229789">
  <ele>1583.0</ele>
  <time>2026-08-28T17:49:00Z</time>
  <course>238.93</course>
  <speed>0.0</speed>
  <fix>3d</fix>
</trkpt>
<trkpt lat="40.0713749" lon="-105.229789">
  <ele>1583.0</ele>
  <time>2026-08-28T17:49:00Z</time>
  <course>0.0</course>
  <speed>0.0</speed>
  <fix>3d</fix>
</trkpt>
<trkpt lat="40.0713749" lon="-105.229789">
  <ele>1583.0</ele>
  <time>2026-08-28T17:49:00Z</time>
  <course>239.26</course>
  <speed>0.0</speed>
  <fix>3d</fix>
</trkpt>
<trkpt lat="40.0713749" lon="-105.229789">
  <ele>1583.0</ele>
  <time>2026-08-28T17:49:00Z</time>
  <course>0.0</course>
  <speed>0.0</speed>
  <fix>3d</fix>
</trkpt>
<trkpt lat="40.0713749" lon="-105.229789">
  <ele>1583.0</ele>
  <time>2026-08-28T17:49:00Z</time>
  <course>239.61</course>
  <speed>0.0</speed>
  <fix>3d</fix>
</trkpt>
<trkpt lat="40.0713749" lon="-105.229789">
  <ele>1583.0</ele>
  <time>2026-08-28T17:49:00Z</time>
  <course>0.0</course>
  <speed>0.0</speed>
  <fix>3d</fix>
</trkpt>
<trkpt lat="40.0713749" lon="-105.229789">
  <ele>1583.0</ele>
  <time>2026-08-28T17:49:00Z</time>
  <course>239.96</course>
  <speed>0.0</speed>
  <fix>3d</fix>
</trkpt>
<trkpt lat="40.0713749" lon="-105.229789">
  <ele>1583.0</ele>
  <time>2026-08-28T17:49:00Z</time>
  <course>0.0</course>
  <speed>0.0</speed>
  <fix>3d</fix>
</trkpt>
<trkpt lat="40.0713749" lon="-105.229789">
  <ele>1583.0</ele>
  <time>2026-08-28T17:49:00Z</time>
  <course>240.29</course>
  <speed>0.0</speed>
  <fix>3d</fix>
</trkpt>
<trkpt lat="40.0713749" lon="-105.229789">
  <ele>1583.0</ele>
  <time>2026-08-28T17:49:00Z</time>
  <course>0.0</course>
  <speed>0.0</speed>
  <fix>3d</fix>
</trkpt>
<trkpt lat="40.0713749" lon="-105.229789">
  <ele>1583.0</ele>
  <time>2026-08-28T17:49:00Z</time>
  <course>240.61</course>
  <speed>0.0</speed>
  <fix>3d</fix>
</trkpt>
<trkpt lat="40.0713749" lon="-105.229789">
  <ele>1583.0</ele>
  <time>2026-08-28T17:49:00Z</time>
  <course>0.0</course>
  <speed>0.0</speed>
  <fix>3d</fix>
</trkpt>
<trkpt lat="40.0713749" lon="-105.229789">
  <ele>1583.0</ele>
  <time>2026-08-28T17:49:00Z</time>
  <course>240.92</course>
  <speed>0.0</speed>
  <fix>3d</fix>
</trkpt>
<trkpt lat="40.0713749" lon="-105.229789">
  <ele>1583.0</ele>
  <time>2026-08-28T17:49:00Z</time>
  <course>0.0</course>
  <speed>0.0</speed>
  <fix>3d</fix>
</trkpt>
<trkpt lat="40.0713749" lon="-105.229789">
  <ele>1583.0</ele>
  <time>2026-08-28T17:49:00Z</time>
  <course>241.21</course>
  <speed>0.0</speed>
  <fix>3d</fix>
</trkpt>
<trkpt lat="40.0713749" lon="-105.229789">
  <ele>1583.0</ele>
  <time>2026-08-28T17:49:00Z</time>
  <course>0.0</course>
  <speed>0.0</speed>
  <fix>3d</fix>
</trkpt>
<trkpt lat="40.0713749" lon="-105.229789">
  <ele>1583.0</ele>
  <time>2026-08-28T17:49:00Z</time>
  <course>241.49</course>
  <speed>0.0</speed>
  <fix>3d</fix>
</trkpt>
<trkpt lat="40.0713749" lon="-105.229789">
  <ele>1583.0</ele>
  <time>2026-08-28T17:49:00Z</time>
  <course>0.0</course>
  <speed>0.0</speed>
  <fix>3d</fix>
</trkpt>
<trkpt lat="40.0713749" lon="-105.229789">
  <ele>1583.0</ele>
  <time>2026-08-28T17:49:00Z</time>
  <course>241.77</course>
  <speed>0.0</speed>
  <fix>3d</fix>
</trkpt>
<trkpt lat="40.0713749" lon="-105.229789">
  <ele>1583.0</ele>
  <time>2026-08-28T17:49:00Z</time>
  <course>0.0</course>
  <speed>0.0</speed>
  <fix>3d</fix>
</trkpt>
<trkpt lat="40.0713749" lon="-105.229789">
  <ele>1583.0</ele>
  <time>2026-08-28T17:49:00Z</time>
  <course>242.03</course>
  <speed>0.0</speed>
  <fix>3d</fix>
</trkpt>
<trkpt lat="40.0713749" lon="-105.229789">
  <ele>1583.0</ele>
  <time>2026-08-28T17:49:00Z</time>
  <course>0.0</course>
  <speed>0.0</speed>
  <fix>3d</fix>
</trkpt>
<trkpt lat="40.0713749" lon="-105.229789">
  <ele>1583.0</ele>
  <time>2026-08-28T17:49:00Z</time>
  <course>242.29</course>
  <speed>0.0</speed>
  <fix>3d</fix>
</trkpt>
<trkpt lat="40.0713749" lon="-105.229789">
  <ele>1583.0</ele>
  <time>2026-08-28T17:49:00Z</time>
  <course>0.0</course>
  <speed>0.0</speed>
  <fix>3d</fix>
</trkpt>
<trkpt lat="40.0713749" lon="-105.229789">
  <ele>1583.0</ele>
  <time>2026-08-28T17:49:00Z</time>
  <course>242.54</course>
  <speed>0.0</speed>
  <fix>3d</fix>
</trkpt>
<trkpt lat="40.0713749" lon="-105.229789">
  <ele>1583.0</ele>
  <time>2026-08-28T17:49:00Z</time>
  <course>0.0</course>
  <speed>0.0</speed>
  <fix>3d</fix>
</trkpt>
<trkpt lat="40.0713749" lon="-105.229789">
  <ele>1583.0</ele>
  <time>2026-08-28T17:49:00Z</time>
  <course>242.79</course>
  <speed>0.0</speed>
  <fix>3d</fix>
</trkpt>
<trkpt lat="40.0713749" lon="-105.229789">
  <ele>1583.0</ele>
  <time>2026-08-28T17:49:00Z</time>
  <course>0.0</course>
  <speed>0.0</speed>
  <fix>3d</fix>
</trkpt>
<trkpt lat="40.0713749" lon="-105.229789">
  <ele>1583.0</ele>
  <time>2026-08-28T17:49:00Z</time>
  <course>243.02</course>
  <speed>0.0</speed>
  <fix>3d</fix>
</trkpt>
<trkpt lat="40.0713749" lon="-105.229789">
  <ele>1583.0</ele>
  <time>2026-08-28T17:49:00Z</time>
  <course>0.0</course>
  <speed>0.0</speed>
  <fix>3d</fix>
</trkpt>
<trkpt lat="40.0713749" lon="-105.229789">
  <ele>1583.0</ele>
  <time>2026-08-28T17:49:00Z</time>
  <course>243.25</course>
  <speed>0.0</speed>
  <fix>3d</fix>
</trkpt>
<trkpt lat="40.0713749" lon="-105.229789">
  <ele>1583.0</ele>
  <time>2026-08-28T17:49:00Z</time>
  <course>0.0</course>
  <speed>0.0</speed>
  <fix>3d</fix>
</trkpt>
<trkpt lat="40.0713749" lon="-105.229789">
  <ele>1583.0</ele>
  <time>2026-08-28T17:49:00Z</time>
  <course>243.47</course>
  <speed>0.0</speed>
  <fix>3d</fix>
</trkpt>
<trkpt lat="40.0713749" lon="-105.229789">
  <ele>1583.0</ele>
  <time>2026-08-28T17:49:00Z</time>
  <course>0.0</course>
  <speed>0.0</speed>
  <fix>3d</fix>
</trkpt>
<trkpt lat="40.0713749" lon="-105.229789">
  <ele>1583.0</ele>
  <time>2026-08-28T17:49:00Z</time>
  <course>243.68</course>
  <speed>0.0</speed>
  <fix>3d</fix>
</trkpt>
<trkpt lat="40.0713749" lon="-105.229789">
  <ele>1583.0</ele>
  <time>2026-08-28T17:49:00Z</time>
  <course>0.0</course>
  <speed>0.0</speed>
  <fix>3d</fix>
</trkpt>
<trkpt lat="40.0713749" lon="-105.229789">
  <ele>1583.0</ele>
  <time>2026-08-28T17:49:00Z</time>
  <course>243.89</course>
  <speed>0.0</speed>
  <fix>3d</fix>
</trkpt>
<trkpt lat="40.0713749" lon="-105.229789">
  <ele>1583.0</ele>
  <time>2026-08-28T17:49:00Z</time>
  <course>0.0</course>
  <speed>0.0</speed>
  <fix>3d</fix>
</trkpt>
<trkpt lat="40.0713749" lon="-105.229789">
  <ele>1583.0</ele>
  <time>2026-08-28T17:49:00Z</time>
  <course>244.09</course>
  <speed>0.0</speed>
  <fix>3d</fix>
</trkpt>
<trkpt lat="40.0713749" lon="-105.229789">
  <ele>1583.0</ele>
  <time>2026-08-28T17:49:00Z</time>
  <course>0.0</course>
  <speed>0.0</speed>
  <fix>3d</fix>
</trkpt>
<trkpt lat="40.0713749" lon="-105.229789">
  <ele>1583.0</ele>
  <time>2026-08-28T17:49:00Z</time>
  <course>244.28</course>
  <speed>0.0</speed>
  <fix>3d</fix>
</trkpt>
<trkpt lat="40.0713749" lon="-105.229789">
  <ele>1583.0</ele>
  <time>2026-08-28T17:49:00Z</time>
  <course>0.0</course>
  <speed>0.0</speed>
  <fix>3d</fix>
</trkpt>
<trkpt lat="40.0713749" lon="-105.229789">
  <ele>1583.0</ele>
  <time>2026-08-28T17:49:00Z</time>
  <course>244.46</course>
  <speed>0.0</speed>
  <fix>3d</fix>
</trkpt>
<trkpt lat="40.0713749" lon="-105.229789">
  <ele>1583.0</ele>
  <time>2026-08-28T17:49:00Z</time>
  <course>0.0</course>
  <speed>0.0</speed>
  <fix>3d</fix>
</trkpt>
<trkpt lat="40.0713749" lon="-105.229789">
  <ele>1583.0</ele>
  <time>2026-08-28T17:49:00Z</time>
  <course>244.64</course>
  <speed>0.0</speed>
  <fix>3d</fix>
</trkpt>
<trkpt lat="40.0713749" lon="-105.229789">
  <ele>1583.0</ele>
  <time>2026-08-28T17:49:00Z</time>
  <course>0.0</course>
  <speed>0.0</speed>
  <fix>3d</fix>
</trkpt>
<trkpt lat="40.0713749" lon="-105.229789">
  <ele>1583.0</ele>
  <time>2026-08-28T17:49:00Z</time>
  <course>244.81</course>
  <speed>0.0</speed>
  <fix>3d</fix>
</trkpt>
<trkpt lat="40.0713749" lon="-105.229789">
  <ele>1583.0</ele>
  <time>2026-08-28T17:49:00Z</time>
  <course>0.0</course>
  <speed>0.0</speed>
  <fix>3d</fix>
</trkpt>
<trkpt lat="40.0713749" lon="-105.229789">
  <ele>1583.0</ele>
  <time>2026-08-28T17:49:00Z</time>
  <course>244.97</course>
  <speed>0.0</speed>
  <fix>3d</fix>
</trkpt>
<trkpt lat="40.0713749" lon="-105.229789">
  <ele>1583.0</ele>
  <time>2026-08-28T17:49:00Z</time>
  <course>0.0</course>
  <speed>0.0</speed>
  <fix>3d</fix>
</trkpt>
<trkpt lat="40.0713749" lon="-105.229789">
  <ele>1583.0</ele>
  <time>2026-08-28T17:49:00Z</time>
  <course>245.13</course>
  <speed>0.0</speed>
  <fix>3d</fix>
</trkpt>
<trkpt lat="40.0713749" lon="-105.229789">
  <ele>1583.0</ele>
  <time>2026-08-28T17:49:00Z</time>
  <course>0.0</course>
  <speed>0.0</speed>
  <fix>3d</fix>
</trkpt>
<trkpt lat="40.0713749" lon="-105.229789">
  <ele>1583.0</ele>
  <time>2026-08-28T17:49:00Z</time>
  <course>245.29</course>
  <speed>0.0</speed>
  <fix>3d</fix>
</trkpt>
<trkpt lat="40.0713749" lon="-105.229789">
  <ele>1583.0</ele>
  <time>2026-08-28T17:49:00Z</time>
  <course>0.0</course>
  <speed>0.0</speed>
  <fix>3d</fix>
</trkpt>
<trkpt lat="40.0713749" lon="-105.229789">
  <ele>1583.0</ele>
  <time>2026-08-28T17:49:00Z</time>
  <course>245.43</course>
  <speed>0.0</speed>
  <fix>3d</fix>
</trkpt>
<trkpt lat="40.0713749" lon="-105.229789">
  <ele>1583.0</ele>
  <time>2026-08-28T17:49:00Z</time>
  <course>0.0</course>
  <speed>0.0</speed>
  <fix>3d</fix>
</trkpt>
<trkpt lat="40.0713749" lon="-105.229789">
  <ele>1583.0</ele>
  <time>2026-08-28T17:49:00Z</time>
  <course>245.57</course>
  <speed>0.0</speed>
  <fix>3d</fix>
</trkpt>
<trkpt lat="40.0713749" lon="-105.229789">
  <ele>1583.0</ele>
  <time>2026-08-28T17:49:00Z</time>
  <course>0.0</course>
  <speed>0.0</speed>
  <fix>3d</fix>
</trkpt>
<trkpt lat="40.0713749" lon="-105.229789">
  <ele>1583.0</ele>
  <time>2026-08-28T17:49:00Z</time>
  <course>245.71</course>
  <speed>0.0</speed>
  <fix>3d</fix>
</trkpt>
<trkpt lat="40.0713749" lon="-105.229789">
  <ele>1583.0</ele>
  <time>2026-08-28T17:49:00Z</time>
  <course>0.0</course>
  <speed>0.0</speed>
  <fix>3d</fix>
</trkpt>
<trkpt lat="40.0713749" lon="-105.229789">
  <ele>1583.0</ele>
  <time>2026-08-28T17:49:00Z</time>
  <course>245.84</course>
  <speed>0.0</speed>
  <fix>3d</fix>
</trkpt>
<trkpt lat="40.0713749" lon="-105.229789">
  <ele>1583.0</ele>
  <time>2026-08-28T17:49:00Z</time>
  <course>0.0</course>
  <speed>0.0</speed>
  <fix>3d</fix>
</trkpt>
<trkpt lat="40.0713749" lon="-105.229789">
  <ele>1583.0</ele>
  <time>2026-08-28T17:49:00Z</time>
  <course>245.96</course>
  <speed>0.0</speed>
  <fix>3d</fix>
</trkpt>
<trkpt lat="40.0713749" lon="-105.229789">
  <ele>1583.0</ele>
  <time>2026-08-28T17:49:00Z</time>
  <course>0.0</course>
  <speed>0.0</speed>
  <fix>3d</fix>
</trkpt>
<trkpt lat="40.0713749" lon="-105.229789">
  <ele>1583.0</ele>
  <time>2026-08-28T17:49:00Z</time>
  <course>246.08</course>
  <speed>0.0</speed>
  <fix>3d</fix>
</trkpt>
<trkpt lat="40.0713749" lon="-105.229789">
  <ele>1583.0</ele>
  <time>2026-08-28T17:49:00Z</time>
  <course>0.0</course>
  <speed>0.0</speed>
  <fix>3d</fix>
</trkpt>
<trkpt lat="40.0713749" lon="-105.229789">
  <ele>1583.0</ele>
  <time>2026-08-28T17:49:00Z</time>
  <course>246.19</course>
  <speed>0.0</speed>
  <fix>3d</fix>
</trkpt>
<trkpt lat="40.0713749" lon="-105.229789">
  <ele>1583.0</ele>
  <time>2026-08-28T17:49:00Z</time>
  <course>0.0</course>
  <speed>0.0</speed>
  <fix>3d</fix>
</trkpt>
<trkpt lat="40.0713749" lon="-105.229789">
  <ele>1583.0</ele>
  <time>2026-08-28T17:49:00Z</time>
  <course>246.3</course>
  <speed>0.0</speed>
  <fix>3d</fix>
</trkpt>
<trkpt lat="40.0713749" lon="-105.229789">
  <ele>1583.0</ele>
  <time>2026-08-28T17:49:00Z</time>
  <course>0.0</course>
  <speed>0.0</speed>
  <fix>3d</fix>
</trkpt>
<trkpt lat="40.0713749" lon="-105.229789">
  <ele>1583.0</ele>
  <time>2026-08-28T17:49:00Z</time>
  <course>246.41</course>
  <speed>0.0</speed>
  <fix>3d</fix>
</trkpt>
<trkpt lat="40.0713749" lon="-105.229789">
  <ele>1583.0</ele>
  <time>2026-08-28T17:49:00Z</time>
  <course>0.0</course>
  <speed>0.0</speed>
  <fix>3d</fix>
</trkpt>
<trkpt lat="40.0713749" lon="-105.229789">
  <ele>1583.0</ele>
  <time>2026-08-28T17:49:00Z</time>
  <course>246.51</course>
  <speed>0.0</speed>
  <fix>3d</fix>
</trkpt>
<trkpt lat="40.0713749" lon="-105.229789">
  <ele>1583.0</ele>
  <time>2026-08-28T17:49:00Z</time>
  <course>0.0</course>
  <speed>0.0</speed>
  <fix>3d</fix>
</trkpt>
<trkpt lat="40.0713749" lon="-105.229789">
  <ele>1583.0</ele>
  <time>2026-08-28T17:49:00Z</time>
  <course>246.6</course>
  <speed>0.0</speed>
  <fix>3d</fix>
</trkpt>
<trkpt lat="40.0713749" lon="-105.229789">
  <ele>1583.0</ele>
  <time>2026-08-28T17:49:00Z</time>
  <course>0.0</course>
  <speed>0.0</speed>
  <fix>3d</fix>
</trkpt>
<trkpt lat="40.0713749" lon="-105.229789">
  <ele>1583.0</ele>
  <time>2026-08-28T17:49:00Z</time>
  <course>246.7</course>
  <speed>0.0</speed>
  <fix>3d</fix>
</trkpt>
<trkpt lat="40.0713749" lon="-105.229789">
  <ele>1583.0</ele>
  <time>2026-08-28T17:49:00Z</time>
  <course>0.0</course>
  <speed>0.0</speed>
  <fix>3d</fix>
</trkpt>
<trkpt lat="40.0713749" lon="-105.229789">
  <ele>1583.0</ele>
  <time>2026-08-28T17:49:00Z</time>
  <course>246.78</course>
  <speed>0.0</speed>
  <fix>3d</fix>
</trkpt>
<trkpt lat="40.0713749" lon="-105.229789">
  <ele>1583.0</ele>
  <time>2026-08-28T17:49:00Z</time>
  <course>0.0</course>
  <speed>0.0</speed>
  <fix>3d</fix>
</trkpt>
<trkpt lat="40.0713749" lon="-105.229789">
  <ele>1583.0</ele>
  <time>2026-08-28T17:49:00Z</time>
  <course>246.87</course>
  <speed>0.0</speed>
  <fix>3d</fix>
</trkpt>
<trkpt lat="40.0713749" lon="-105.229789">
  <ele>1583.0</ele>
  <time>2026-08-28T17:49:00Z</time>
  <course>0.0</course>
  <speed>0.0</speed>
  <fix>3d</fix>
</trkpt>
<trkpt lat="40.0713749" lon="-105.229789">
  <ele>1583.0</ele>
  <time>2026-08-28T17:49:00Z</time>
  <course>246.95</course>
  <speed>0.0</speed>
  <fix>3d</fix>
</trkpt>
<trkpt lat="40.0713749" lon="-105.229789">
  <ele>1583.0</ele>
  <time>2026-08-28T17:49:00Z</time>
  <course>0.0</course>
  <speed>0.0</speed>
  <fix>3d</fix>
</trkpt>
<trkpt lat="40.0713749" lon="-105.229789">
  <ele>1583.0</ele>
  <time>2026-08-28T17:49:00Z</time>
  <course>247.02</course>
  <speed>0.0</speed>
  <fix>3d</fix>
</trkpt>
<trkpt lat="40.0713749" lon="-105.229789">
  <ele>1583.0</ele>
  <time>2026-08-28T17:49:00Z</time>
  <course>0.0</course>
  <speed>0.0</speed>
  <fix>3d</fix>
</trkpt>
<trkpt lat="40.0713749" lon="-105.229789">
  <ele>1583.0</ele>
  <time>2026-08-28T17:49:00Z</time>
  <course>247.1</course>
  <speed>0.0</speed>
  <fix>3d</fix>
</trkpt>
<trkpt lat="40.0713749" lon="-105.229789">
  <ele>1583.0</ele>
  <time>2026-08-28T17:49:00Z</time>
  <course>0.0</course>
  <speed>0.0</speed>
  <fix>3d</fix>
</trkpt>
<trkpt lat="40.0713749" lon="-105.229789">
  <ele>1583.0</ele>
  <time>2026-08-28T17:49:00Z</time>
  <course>247.17</course>
  <speed>0.0</speed>
  <fix>3d</fix>
</trkpt>
<trkpt lat="40.0713749" lon="-105.229789">
  <ele>1583.0</ele>
  <time>2026-08-28T17:49:00Z</time>
  <course>0.0</course>
  <speed>0.0</speed>
  <fix>3d</fix>
</trkpt>
<trkpt lat="40.0713749" lon="-105.229789">
  <ele>1583.0</ele>
  <time>2026-08-28T17:49:00Z</time>
  <course>247.24</course>
  <speed>0.0</speed>
  <fix>3d</fix>
</trkpt>
<trkpt lat="40.0713749" lon="-105.229789">
  <ele>1583.0</ele>
  <time>2026-08-28T17:49:00Z</time>
  <course>0.0</course>
  <speed>0.0</speed>
  <fix>3d</fix>
</trkpt>
<trkpt lat="40.0713749" lon="-105.229789">
  <ele>1583.0</ele>
  <time>2026-08-28T17:49:00Z</time>
  <course>247.3</course>
  <speed>0.0</speed>
  <fix>3d</fix>
</trkpt>
<trkpt lat="40.0713749" lon="-105.229789">
  <ele>1583.0</ele>
  <time>2026-08-28T17:49:00Z</time>
  <course>0.0</course>
  <speed>0.0</speed>
  <fix>3d</fix>
</trkpt>
<trkpt lat="40.0713749" lon="-105.229789">
  <ele>1583.0</ele>
  <time>2026-08-28T17:49:00Z</time>
  <course>247.36</course>
  <speed>0.0</speed>
  <fix>3d</fix>
</trkpt>
<trkpt lat="40.0713749" lon="-105.229789">
  <ele>1583.0</ele>
  <time>2026-08-28T17:49:00Z</time>
  <course>0.0</course>
  <speed>0.0</speed>
  <fix>3d</fix>
</trkpt>
<trkpt lat="40.0713749" lon="-105.229789">
  <ele>1583.0</ele>
  <time>2026-08-28T17:49:00Z</time>
  <course>247.42</course>
  <speed>0.0</speed>
  <fix>3d</fix>
</trkpt>
<trkpt lat="40.0713749" lon="-105.229789">
  <ele>1583.0</ele>
  <time>2026-08-28T17:49:00Z</time>
  <course>0.0</course>
  <speed>0.0</speed>
  <fix>3d</fix>
</trkpt>
<trkpt lat="40.0713749" lon="-105.229789">
  <ele>1583.0</ele>
  <time>2026-08-28T17:49:00Z</time>
  <course>247.47</course>
  <speed>0.0</speed>
  <fix>3d</fix>
</trkpt>
<trkpt lat="40.0713749" lon="-105.229789">
  <ele>1583.0</ele>
  <time>2026-08-28T17:49:00Z</time>
  <course>0.0</course>
  <speed>0.0</speed>
  <fix>3d</fix>
</trkpt>
<trkpt lat="40.0713749" lon="-105.229789">
  <ele>1583.0</ele>
  <time>2026-08-28T17:49:00Z</time>
  <course>247.53</course>
  <speed>0.0</speed>
  <fix>3d</fix>
</trkpt>
<trkpt lat="40.0713749" lon="-105.229789">
  <ele>1583.0</ele>
  <time>2026-08-28T17:49:00Z</time>
  <course>0.0</course>
  <speed>0.0</speed>
  <fix>3d</fix>
</trkpt>
<trkpt lat="40.0713749" lon="-105.229789">
  <ele>1583.0</ele>
  <time>2026-08-28T17:49:00Z</time>
  <course>247.58</course>
  <speed>0.0</speed>
  <fix>3d</fix>
</trkpt>
<trkpt lat="40.0713749" lon="-105.229789">
  <ele>1583.0</ele>
  <time>2026-08-28T17:49:00Z</time>
  <course>0.0</course>
  <speed>0.0</speed>
  <fix>3d</fix>
</trkpt>
<trkpt lat="40.0713749" lon="-105.229789">
  <ele>1583.0</ele>
  <time>2026-08-28T17:49:00Z</time>
  <course>247.63</course>
  <speed>0.0</speed>
  <fix>3d</fix>
</trkpt>
<trkpt lat="40.0713749" lon="-105.229789">
  <ele>1583.0</ele>
  <time>2026-08-28T17:49:00Z</time>
  <course>0.0</course>
  <speed>0.0</speed>
  <fix>3d</fix>
</trkpt>
<trkpt lat="40.0713749" lon="-105.229789">
  <ele>1583.0</ele>
  <time>2026-08-28T17:49:00Z</time>
  <course>247.67</course>
  <speed>0.0</speed>
  <fix>3d</fix>
</trkpt>
<trkpt lat="40.0713749" lon="-105.229789">
  <ele>1583.0</ele>
  <time>2026-08-28T17:49:00Z</time>
  <course>0.0</course>
  <speed>0.0</speed>
  <fix>3d</fix>
</trkpt>
<trkpt lat="40.0713749" lon="-105.229789">
  <ele>1583.0</ele>
  <time>2026-08-28T17:49:00Z</time>
  <course>247.72</course>
  <speed>0.0</speed>
  <fix>3d</fix>
</trkpt>
<trkpt lat="40.0713749" lon="-105.229789">
  <ele>1583.0</ele>
  <time>2026-08-28T17:49:00Z</time>
  <course>0.0</course>
  <speed>0.0</speed>
  <fix>3d</fix>
</trkpt>
<trkpt lat="40.0713749" lon="-105.229789">
  <ele>1583.0</ele>
  <time>2026-08-28T17:49:00Z</time>
  <course>247.76</course>
  <speed>0.0</speed>
  <fix>3d</fix>
</trkpt>
<trkpt lat="40.0713749" lon="-105.229789">
  <ele>1583.0</ele>
  <time>2026-08-28T17:49:00Z</time>
  <course>0.0</course>
  <speed>0.0</speed>
  <fix>3d</fix>
</trkpt>
<trkpt lat="40.0713749" lon="-105.229789">
  <ele>1583.0</ele>
  <time>2026-08-28T17:49:00Z</time>
  <course>247.8</course>
  <speed>0.0</speed>
  <fix>3d</fix>
</trkpt>
<trkpt lat="40.0713749" lon="-105.229789">
  <ele>1583.0</ele>
  <time>2026-08-28T17:49:00Z</time>
  <course>0.0</course>
  <speed>0.0</speed>
  <fix>3d</fix>
</trkpt>
<trkpt lat="40.0713749" lon="-105.229789">
  <ele>1583.0</ele>
  <time>2026-08-28T17:49:00Z</time>
  <course>247.83</course>
  <speed>0.0</speed>
  <fix>3d</fix>
</trkpt>
<trkpt lat="40.0713749" lon="-105.229789">
  <ele>1583.0</ele>
  <time>2026-08-28T17:49:00Z</time>
  <course>0.0</course>
  <speed>0.0</speed>
  <fix>3d</fix>
</trkpt>
<trkpt lat="40.0713749" lon="-105.229789">
  <ele>1583.0</ele>
  <time>2026-08-28T17:49:00Z</time>
  <course>247.87</course>
  <speed>0.0</speed>
  <fix>3d</fix>
</trkpt>
<trkpt lat="40.0713749" lon="-105.229789">
  <ele>1583.0</ele>
  <time>2026-08-28T17:49:00Z</time>
  <course>0.0</course>
  <speed>0.0</speed>
  <fix>3d</fix>
</trkpt>
<trkpt lat="40.0713749" lon="-105.229789">
  <ele>1583.0</ele>
  <time>2026-08-28T17:49:00Z</time>
  <course>247.9</course>
  <speed>0.0</speed>
  <fix>3d</fix>
</trkpt>
<trkpt lat="40.0713749" lon="-105.229789">
  <ele>1583.0</ele>
  <time>2026-08-28T17:49:00Z</time>
  <course>0.0</course>
  <speed>0.0</speed>
  <fix>3d</fix>
</trkpt>
<trkpt lat="40.0713749" lon="-105.229789">
  <ele>1583.0</ele>
  <time>2026-08-28T17:49:00Z</time>
  <course>247.94</course>
  <speed>0.0</speed>
  <fix>3d</fix>
</trkpt>
<trkpt lat="40.0713749" lon="-105.229789">
  <ele>1583.0</ele>
  <time>2026-08-28T17:49:00Z</time>
  <course>0.0</course>
  <speed>0.0</speed>
  <fix>3d</fix>
</trkpt>
<trkpt lat="40.0713749" lon="-105.229789">
  <ele>1583.0</ele>
  <time>2026-08-28T17:49:00Z</time>
  <course>247.97</course>
  <speed>0.0</speed>
  <fix>3d</fix>
</trkpt>
<trkpt lat="40.0713749" lon="-105.229789">
  <ele>1583.0</ele>
  <time>2026-08-28T17:49:00Z</time>
  <course>0.0</course>
  <speed>0.0</speed>
  <fix>3d</fix>
</trkpt>
<trkpt lat="40.0713749" lon="-105.229789">
  <ele>1583.0</ele>
  <time>2026-08-28T17:49:00Z</time>
  <course>248.0</course>
  <speed>0.0</speed>
  <fix>3d</fix>
</trkpt>
<trkpt lat="40.0713749" lon="-105.229789">
  <ele>1583.0</ele>
  <time>2026-08-28T17:49:00Z</time>
  <course>0.0</course>
  <speed>0.0</speed>
  <fix>3d</fix>
</trkpt>
<trkpt lat="40.0713749" lon="-105.229789">
  <ele>1583.0</ele>
  <time>2026-08-28T17:49:00Z</time>
  <course>248.02</course>
  <speed>0.0</speed>
  <fix>3d</fix>
</trkpt>
<trkpt lat="40.0713749" lon="-105.229789">
  <ele>1583.0</ele>
  <time>2026-08-28T17:49:00Z</time>
  <course>0.0</course>
  <speed>0.0</speed>
  <fix>3d</fix>
</trkpt>
<trkpt lat="40.0713749" lon="-105.229789">
  <ele>1583.0</ele>
  <time>2026-08-28T17:49:00Z</time>
  <course>248.05</course>
  <speed>0.0</speed>
  <fix>3d</fix>
</trkpt>
<trkpt lat="40.0713749" lon="-105.229789">
  <ele>1583.0</ele>
  <time>2026-08-28T17:49:00Z</time>
  <course>0.0</course>
  <speed>0.0</speed>
  <fix>3d</fix>
</trkpt>
<trkpt lat="40.0713749" lon="-105.229789">
  <ele>1583.0</ele>
  <time>2026-08-28T17:49:00Z</time>
  <course>248.08</course>
  <speed>0.0</speed>
  <fix>3d</fix>
</trkpt>
<trkpt lat="40.0713749" lon="-105.229789">
  <ele>1583.0</ele>
  <time>2026-08-28T17:49:00Z</time>
  <course>0.0</course>
  <speed>0.0</speed>
  <fix>3d</fix>
</trkpt>
<trkpt lat="40.0713749" lon="-105.229789">
  <ele>1583.0</ele>
  <time>2026-08-28T17:49:00Z</time>
  <course>248.1</course>
  <speed>0.0</speed>
  <fix>3d</fix>
</trkpt>
<trkpt lat="40.0713749" lon="-105.229789">
  <ele>1583.0</ele>
  <time>2026-08-28T17:49:00Z</time>
  <course>0.0</course>
  <speed>0.0</speed>
  <fix>3d</fix>
</trkpt>
<trkpt lat="40.0713749" lon="-105.229789">
  <ele>1583.0</ele>
  <time>2026-08-28T17:49:00Z</time>
  <course>248.12</course>
  <speed>0.0</speed>
  <fix>3d</fix>
</trkpt>
<trkpt lat="40.0713749" lon="-105.229789">
  <ele>1583.0</ele>
  <time>2026-08-28T17:49:00Z</time>
  <course>0.0</course>
  <speed>0.0</speed>
  <fix>3d</fix>
</trkpt>
<trkpt lat="40.0713749" lon="-105.229789">
  <ele>1583.0</ele>
  <time>2026-08-28T17:49:00Z</time>
  <course>248.14</course>
  <speed>0.0</speed>
  <fix>3d</fix>
</trkpt>
<trkpt lat="40.0713749" lon="-105.229789">
  <ele>1583.0</ele>
  <time>2026-08-28T17:49:00Z</time>
  <course>0.0</course>
  <speed>0.0</speed>
  <fix>3d</fix>
</trkpt>
<trkpt lat="40.0713749" lon="-105.229789">
  <ele>1583.0</ele>
  <time>2026-08-28T17:49:00Z</time>
  <course>248.16</course>
  <speed>0.0</speed>
  <fix>3d</fix>
</trkpt>
<trkpt lat="40.0713749" lon="-105.229789">
  <ele>1583.0</ele>
  <time>2026-08-28T17:49:00Z</time>
  <course>0.0</course>
  <speed>0.0</speed>
  <fix>3d</fix>
</trkpt>
<trkpt lat="40.0713749" lon="-105.229789">
  <ele>1583.0</ele>
  <time>2026-08-28T17:49:00Z</time>
  <course>248.18</course>
  <speed>0.0</speed>
  <fix>3d</fix>
</trkpt>
<trkpt lat="40.0713749" lon="-105.229789">
  <ele>1583.0</ele>
  <time>2026-08-28T17:49:00Z</time>
  <course>0.0</course>
  <speed>0.0</speed>
  <fix>3d</fix>
</trkpt>
<trkpt lat="40.0713749" lon="-105.229789">
  <ele>1583.0</ele>
  <time>2026-08-28T17:49:00Z</time>
  <course>248.2</course>
  <speed>0.0</speed>
  <fix>3d</fix>
</trkpt>
<trkpt lat="40.0713749" lon="-105.229789">
  <ele>1583.0</ele>
  <time>2026-08-28T17:49:00Z</time>
  <course>0.0</course>
  <speed>0.0</speed>
  <fix>3d</fix>
</trkpt>
<trkpt lat="40.0713749" lon="-105.229789">
  <ele>1583.0</ele>
  <time>2026-08-28T17:49:00Z</time>
  <course>248.22</course>
  <speed>0.0</speed>
  <fix>3d</fix>
</trkpt>
<trkpt lat="40.0713749" lon="-105.229789">
  <ele>1583.0</ele>
  <time>2026-08-28T17:49:00Z</time>
  <course>0.0</course>
  <speed>0.0</speed>
  <fix>3d</fix>
</trkpt>
<trkpt lat="40.0713749" lon="-105.229789">
  <ele>1583.0</ele>
  <time>2026-08-28T17:49:00Z</time>
  <course>248.23</course>
  <speed>0.0</speed>
  <fix>3d</fix>
</trkpt>
<trkpt lat="40.0713749" lon="-105.229789">
  <ele>1583.0</ele>
  <time>2026-08-28T17:49:00Z</time>
  <course>0.0</course>
  <speed>0.0</speed>
  <fix>3d</fix>
</trkpt>
<trkpt lat="40.0713749" lon="-105.229789">
  <ele>1583.0</ele>
  <time>2026-08-28T17:49:00Z</time>
  <course>248.25</course>
  <speed>0.0</speed>
  <fix>3d</fix>
</trkpt>
<trkpt lat="40.0713749" lon="-105.229789">
  <ele>1583.0</ele>
  <time>2026-08-28T17:49:00Z</time>
  <course>0.0</course>
  <speed>0.0</speed>
  <fix>3d</fix>
</trkpt>
<trkpt lat="40.0713749" lon="-105.229789">
  <ele>1583.0</ele>
  <time>2026-08-28T17:49:00Z</time>
  <course>248.26</course>
  <speed>0.0</speed>
  <fix>3d</fix>
</trkpt>
<trkpt lat="40.0713749" lon="-105.229789">
  <ele>1583.0</ele>
  <time>2026-08-28T17:49:00Z</time>
  <course>0.0</course>
  <speed>0.0</speed>
  <fix>3d</fix>
</trkpt>
<trkpt lat="40.0713749" lon="-105.229789">
  <ele>1583.0</ele>
  <time>2026-08-28T17:49:00Z</time>
  <course>248.28</course>
  <speed>0.0</speed>
  <fix>3d</fix>
</trkpt>
<trkpt lat="40.0713749" lon="-105.229789">
  <ele>1583.0</ele>
  <time>2026-08-28T17:49:00Z</time>
  <course>0.0</course>
  <speed>0.0</speed>
  <fix>3d</fix>
</trkpt>
<trkpt lat="40.0713749" lon="-105.229789">
  <ele>1583.0</ele>
  <time>2026-08-28T17:49:00Z</time>
  <course>248.29</course>
  <speed>0.0</speed>
  <fix>3d</fix>
</trkpt>
<trkpt lat="40.0713749" lon="-105.229789">
  <ele>1583.0</ele>
  <time>2026-08-28T17:49:00Z</time>
  <course>0.0</course>
  <speed>0.0</speed>
  <fix>3d</fix>
</trkpt>
<trkpt lat="40.0713749" lon="-105.229789">
  <ele>1583.0</ele>
  <time>2026-08-28T17:49:00Z</time>
  <course>248.3</course>
  <speed>0.0</speed>
  <fix>3d</fix>
</trkpt>
<trkpt lat="40.0713749" lon="-105.229789">
  <ele>1583.0</ele>
  <time>2026-08-28T17:49:00Z</time>
  <course>0.0</course>
  <speed>0.0</speed>
  <fix>3d</fix>
</trkpt>
<trkpt lat="40.0713749" lon="-105.229789">
  <ele>1583.0</ele>
  <time>2026-08-28T17:49:00Z</time>
  <course>248.31</course>
  <speed>0.0</speed>
  <fix>3d</fix>
</trkpt>
<trkpt lat="40.0713749" lon="-105.229789">
  <ele>1583.0</ele>
  <time>2026-08-28T17:49:00Z</time>
  <course>0.0</course>
  <speed>0.0</speed>
  <fix>3d</fix>
</trkpt>
<trkpt lat="40.0713749" lon="-105.229789">
  <ele>1583.0</ele>
  <time>2026-08-28T17:49:00Z</time>
  <course>248.32</course>
  <speed>0.0</speed>
  <fix>3d</fix>
</trkpt>
<trkpt lat="40.0713749" lon="-105.229789">
  <ele>1583.0</ele>
  <time>2026-08-28T17:49:00Z</time>
  <course>0.0</course>
  <speed>0.0</speed>
  <fix>3d</fix>
</trkpt>
<trkpt lat="40.0713749" lon="-105.229789">
  <ele>1583.0</ele>
  <time>2026-08-28T17:49:00Z</time>
  <course>248.33</course>
  <speed>0.0</speed>
  <fix>3d</fix>
</trkpt>
<trkpt lat="40.0713749" lon="-105.229789">
  <ele>1583.0</ele>
  <time>2026-08-28T17:49:00Z</time>
  <course>0.0</course>
  <speed>0.0</speed>
  <fix>3d</fix>
</trkpt>
<trkpt lat="40.0713749" lon="-105.229789">
  <ele>1583.0</ele>
  <time>2026-08-28T17:49:00Z</time>
  <course>248.34</course>
  <speed>0.0</speed>
  <fix>3d</fix>
</trkpt>
<trkpt lat="40.0713749" lon="-105.229789">
  <ele>1583.0</ele>
  <time>2026-08-28T17:49:00Z</time>
  <course>0.0</course>
  <speed>0.0</speed>
  <fix>3d</fix>
</trkpt>
<trkpt lat="40.0713749" lon="-105.229789">
  <ele>1583.0</ele>
  <time>2026-08-28T17:49:00Z</time>
  <course>248.35</course>
  <speed>0.0</speed>
  <fix>3d</fix>
</trkpt>
<trkpt lat="40.0713749" lon="-105.229789">
  <ele>1583.0</ele>
  <time>2026-08-28T17:49:00Z</time>
  <course>0.0</course>
  <speed>0.0</speed>
  <fix>3d</fix>
</trkpt>
<trkpt lat="40.0713749" lon="-105.229789">
  <ele>1583.0</ele>
  <time>2026-08-28T17:49:00Z</time>
  <course>248.35</course>
  <speed>0.0</speed>
  <fix>3d</fix>
</trkpt>
<trkpt lat="40.0713749" lon="-105.229789">
  <ele>1583.0</ele>
  <time>2026-08-28T17:49:00Z</time>
  <course>0.0</course>
  <speed>0.0</speed>
  <fix>3d</fix>
</trkpt>
<trkpt lat="40.0713749" lon="-105.229789">
  <ele>1583.0</ele>
  <time>2026-08-28T17:49:00Z</time>
  <course>248.36</course>
  <speed>0.0</speed>
  <fix>3d</fix>
</trkpt>
<trkpt lat="40.0713749" lon="-105.229789">
  <ele>1583.0</ele>
  <time>2026-08-28T17:49:00Z</time>
  <course>0.0</course>
  <speed>0.0</speed>
  <fix>3d</fix>
</trkpt>
<trkpt lat="40.0713749" lon="-105.229789">
  <ele>1583.0</ele>
  <time>2026-08-28T17:49:00Z</time>
  <course>248.37</course>
  <speed>0.0</speed>
  <fix>3d</fix>
</trkpt>
<trkpt lat="40.0713749" lon="-105.229789">
  <ele>1583.0</ele>
  <time>2026-08-28T17:49:00Z</time>
  <course>0.0</course>
  <speed>0.0</speed>
  <fix>3d</fix>
</trkpt>
<trkpt lat="40.0713749" lon="-105.229789">
  <ele>1583.0</ele>
  <time>2026-08-28T17:49:00Z</time>
  <course>248.37</course>
  <speed>0.0</speed>
  <fix>3d</fix>
</trkpt>
<trkpt lat="40.0713749" lon="-105.229789">
  <ele>1583.0</ele>
  <time>2026-08-28T17:49:00Z</time>
  <course>0.0</course>
  <speed>0.0</speed>
  <fix>3d</fix>
</trkpt>
<trkpt lat="40.0713749" lon="-105.229789">
  <ele>1583.0</ele>
  <time>2026-08-28T17:49:00Z</time>
  <course>248.38</course>
  <speed>0.0</speed>
  <fix>3d</fix>
</trkpt>
<trkpt lat="40.0713749" lon="-105.229789">
  <ele>1583.0</ele>
  <time>2026-08-28T17:49:00Z</time>
  <course>0.0</course>
  <speed>0.0</speed>
  <fix>3d</fix>
</trkpt>
<trkpt lat="40.0713749" lon="-105.229789">
  <ele>1583.0</ele>
  <time>2026-08-28T17:49:00Z</time>
  <course>248.38</course>
  <speed>0.0</speed>
  <fix>3d</fix>
</trkpt>
<trkpt lat="40.0713749" lon="-105.229789">
  <ele>1583.0</ele>
  <time>2026-08-28T17:49:00Z</time>
  <course>0.0</course>
  <speed>0.0</speed>
  <fix>3d</fix>
</trkpt>
<trkpt lat="40.0713749" lon="-105.229789">
  <ele>1583.0</ele>
  <time>2026-08-28T17:49:00Z</time>
  <course>248.39</course>
  <speed>0.0</speed>
  <fix>3d</fix>
</trkpt>
<trkpt lat="40.0713749" lon="-105.229789">
  <ele>1583.0</ele>
  <time>2026-08-28T17:49:00Z</time>
  <course>0.0</course>
  <speed>0.0</speed>
  <fix>3d</fix>
</trkpt>
<trkpt lat="40.0713749" lon="-105.229789">
  <ele>1583.0</ele>
  <time>2026-08-28T17:49:00Z</time>
  <course>248.39</course>
  <speed>0.0</speed>
  <fix>3d</fix>
</trkpt>
<trkpt lat="40.0713749" lon="-105.229789">
  <ele>1583.0</ele>
  <time>2026-08-28T17:49:00Z</time>
  <course>0.0</course>
  <speed>0.0</speed>
  <fix>3d</fix>
</trkpt>
<trkpt lat="40.0713749" lon="-105.229789">
  <ele>1583.0</ele>
  <time>2026-08-28T17:49:00Z</time>
  <course>248.4</course>
  <speed>0.0</speed>
  <fix>3d</fix>
</trkpt>
<trkpt lat="40.0713749" lon="-105.229789">
  <ele>1583.0</ele>
  <time>2026-08-28T17:49:00Z</time>
  <course>0.0</course>
  <speed>0.0</speed>
  <fix>3d</fix>
</trkpt>
<trkpt lat="40.0713749" lon="-105.229789">
  <ele>1583.0</ele>
  <time>2026-08-28T17:49:00Z</time>
  <course>248.4</course>
  <speed>0.0</speed>
  <fix>3d</fix>
</trkpt>
<trkpt lat="40.0713749" lon="-105.229789">
  <ele>1583.0</ele>
  <time>2026-08-28T17:49:00Z</time>
  <course>0.0</course>
  <speed>0.0</speed>
  <fix>3d</fix>
</trkpt>
<trkpt lat="40.0713749" lon="-105.229789">
  <ele>1583.0</ele>
  <time>2026-08-28T17:49:00Z</time>
  <course>248.4</course>
  <speed>0.0</speed>
  <fix>3d</fix>
</trkpt>
<trkpt lat="40.0713749" lon="-105.229789">
  <ele>1583.0</ele>
  <time>2026-08-28T17:49:00Z</time>
  <course>0.0</course>
  <speed>0.0</speed>
  <fix>3d</fix>
</trkpt>
<trkpt lat="40.0713749" lon="-105.229789">
  <ele>1583.0</ele>
  <time>2026-08-28T17:49:00Z</time>
  <course>248.4</course>
  <speed>0.0</speed>
  <fix>3d</fix>
</trkpt>
<trkpt lat="40.0713749" lon="-105.229789">
  <ele>1583.0</ele>
  <time>2026-08-28T17:49:00Z</time>
  <course>0.0</course>
  <speed>0.0</speed>
  <fix>3d</fix>
</trkpt>
<trkpt lat="40.0713749" lon="-105.229789">
  <ele>1583.0</ele>
  <time>2026-08-28T17:49:01Z</time>
  <course>248.41</course>
  <speed>0.0</speed>
  <fix>3d</fix>
</trkpt>
<trkpt lat="40.0713749" lon="-105.229789">
  <ele>1583.0</ele>
  <time>2026-08-28T17:49:01Z</time>
  <course>0.0</course>
  <speed>0.0</speed>
  <fix>3d</fix>
</trkpt>
<trkpt lat="40.0713749" lon="-105.229789">
  <ele>1583.0</ele>
  <time>2026-08-28T17:49:01Z</time>
  <course>248.41</course>
  <speed>0.0</speed>
  <fix>3d</fix>
</trkpt>
<trkpt lat="40.0713749" lon="-105.229789">
  <ele>1583.0</ele>
  <time>2026-08-28T17:49:01Z</time>
  <course>0.0</course>
  <speed>0.0</speed>
  <fix>3d</fix>
</trkpt>
<trkpt lat="40.0713749" lon="-105.229789">
  <ele>1583.0</ele>
  <time>2026-08-28T17:49:01Z</time>
  <course>248.41</course>
  <speed>0.0</speed>
  <fix>3d</fix>
</trkpt>
<trkpt lat="40.0713749" lon="-105.229789">
  <ele>1583.0</ele>
  <time>2026-08-28T17:49:01Z</time>
  <course>0.0</course>
  <speed>0.0</speed>
  <fix>3d</fix>
</trkpt>
<trkpt lat="40.0713749" lon="-105.229789">
  <ele>1583.0</ele>
  <time>2026-08-28T17:49:01Z</time>
  <course>248.41</course>
  <speed>0.0</speed>
  <fix>3d</fix>
</trkpt>
<trkpt lat="40.0713749" lon="-105.229789">
  <ele>1583.0</ele>
  <time>2026-08-28T17:49:01Z</time>
  <course>0.0</course>
  <speed>0.0</speed>
  <fix>3d</fix>
</trkpt>
<trkpt lat="40.0713749" lon="-105.229789">
  <ele>1583.0</ele>
  <time>2026-08-28T17:49:01Z</time>
  <course>248.41</course>
  <speed>0.0</speed>
  <fix>3d</fix>
</trkpt>
<trkpt lat="40.0713749" lon="-105.229789">
  <ele>1583.0</ele>
  <time>2026-08-28T17:49:01Z</time>
  <course>0.0</course>
  <speed>0.0</speed>
  <fix>3d</fix>
</trkpt>
<trkpt lat="40.0713749" lon="-105.229789">
  <ele>1583.0</ele>
  <time>2026-08-28T17:49:01Z</time>
  <course>248.41</course>
  <speed>0.0</speed>
  <fix>3d</fix>
</trkpt>
<trkpt lat="40.0713749" lon="-105.229789">
  <ele>1583.0</ele>
  <time>2026-08-28T17:49:01Z</time>
  <course>0.0</course>
  <speed>0.0</speed>
  <fix>3d</fix>
</trkpt>
<trkpt lat="40.0713749" lon="-105.229789">
  <ele>1583.0</ele>
  <time>2026-08-28T17:49:01Z</time>
  <course>248.41</course>
  <speed>0.0</speed>
  <fix>3d</fix>
</trkpt>
<trkpt lat="40.0713749" lon="-105.229789">
  <ele>1583.0</ele>
  <time>2026-08-28T17:49:01Z</time>
  <course>0.0</course>
  <speed>0.0</speed>
  <fix>3d</fix>
</trkpt>
<trkpt lat="40.0713749" lon="-105.229789">
  <ele>1583.0</ele>
  <time>2026-08-28T17:49:01Z</time>
  <course>248.41</course>
  <speed>0.0</speed>
  <fix>3d</fix>
</trkpt>
<trkpt lat="40.0713749" lon="-105.229789">
  <ele>1583.0</ele>
  <time>2026-08-28T17:49:01Z</time>
  <course>0.0</course>
  <speed>0.0</speed>
  <fix>3d</fix>
</trkpt>
<trkpt lat="40.0713749" lon="-105.229789">
  <ele>1583.0</ele>
  <time>2026-08-28T17:49:01Z</time>
  <course>248.41</course>
  <speed>0.0</speed>
  <fix>3d</fix>
</trkpt>
<trkpt lat="40.0713749" lon="-105.229789">
  <ele>1583.0</ele>
  <time>2026-08-28T17:49:01Z</time>
  <course>0.0</course>
  <speed>0.0</speed>
  <fix>3d</fix>
</trkpt>
<trkpt lat="40.0713749" lon="-105.229789">
  <ele>1583.0</ele>
  <time>2026-08-28T17:49:01Z</time>
  <course>248.41</course>
  <speed>0.0</speed>
  <fix>3d</fix>
</trkpt>
<trkpt lat="40.0713749" lon="-105.229789">
  <ele>1583.0</ele>
  <time>2026-08-28T17:49:01Z</time>
  <course>0.0</course>
  <speed>0.0</speed>
  <fix>3d</fix>
</trkpt>
<trkpt lat="40.0713749" lon="-105.229789">
  <ele>1583.0</ele>
  <time>2026-08-28T17:49:01Z</time>
  <course>248.41</course>
  <speed>0.0</speed>
  <fix>3d</fix>
</trkpt>
<trkpt lat="40.0713749" lon="-105.229789">
  <ele>1583.0</ele>
  <time>2026-08-28T17:49:01Z</time>
  <course>0.0</course>
  <speed>0.0</speed>
  <fix>3d</fix>
</trkpt>
<trkpt lat="40.0713749" lon="-105.229789">
  <ele>1583.0</ele>
  <time>2026-08-28T17:49:01Z</time>
  <course>248.41</course>
  <speed>0.0</speed>
  <fix>3d</fix>
</trkpt>
<trkpt lat="40.0713749" lon="-105.229789">
  <ele>1583.0</ele>
  <time>2026-08-28T17:49:01Z</time>
  <course>0.0</course>
  <speed>0.0</speed>
  <fix>3d</fix>
</trkpt>
<trkpt lat="40.0713749" lon="-105.229789">
  <ele>1583.0</ele>
  <time>2026-08-28T17:49:01Z</time>
  <course>248.41</course>
  <speed>0.0</speed>
  <fix>3d</fix>
</trkpt>
<trkpt lat="40.0713749" lon="-105.229789">
  <ele>1583.0</ele>
  <time>2026-08-28T17:49:01Z</time>
  <course>0.0</course>
  <speed>0.0</speed>
  <fix>3d</fix>
</trkpt>
<trkpt lat="40.0713749" lon="-105.229789">
  <ele>1583.0</ele>
  <time>2026-08-28T17:49:01Z</time>
  <course>248.41</course>
  <speed>0.0</speed>
  <fix>3d</fix>
</trkpt>
<trkpt lat="40.0713749" lon="-105.229789">
  <ele>1583.0</ele>
  <time>2026-08-28T17:49:01Z</time>
  <course>0.0</course>
  <speed>0.0</speed>
  <fix>3d</fix>
</trkpt>
<trkpt lat="40.0713749" lon="-105.229789">
  <ele>1583.0</ele>
  <time>2026-08-28T17:49:01Z</time>
  <course>248.41</course>
  <speed>0.0</speed>
  <fix>3d</fix>
</trkpt>
<trkpt lat="40.0713749" lon="-105.229789">
  <ele>1583.0</ele>
  <time>2026-08-28T17:49:01Z</time>
  <course>0.0</course>
  <speed>0.0</speed>
  <fix>3d</fix>
</trkpt>
<trkpt lat="40.0713749" lon="-105.229789">
  <ele>1583.0</ele>
  <time>2026-08-28T17:49:01Z</time>
  <course>248.41</course>
  <speed>0.0</speed>
  <fix>3d</fix>
</trkpt>
<trkpt lat="40.0713749" lon="-105.229789">
  <ele>1583.0</ele>
  <time>2026-08-28T17:49:01Z</time>
  <course>0.0</course>
  <speed>0.0</speed>
  <fix>3d</fix>
</trkpt>
<trkpt lat="40.0713749" lon="-105.229789">
  <ele>1583.0</ele>
  <time>2026-08-28T17:49:01Z</time>
  <course>248.4</course>
  <speed>0.0</speed>
  <fix>3d</fix>
</trkpt>
<trkpt lat="40.0713749" lon="-105.229789">
  <ele>1583.0</ele>
  <time>2026-08-28T17:49:01Z</time>
  <course>0.0</course>
  <speed>0.0</speed>
  <fix>3d</fix>
</trkpt>
<trkpt lat="40.0713749" lon="-105.229789">
  <ele>1583.0</ele>
  <time>2026-08-28T17:49:01Z</time>
  <course>248.4</course>
  <speed>0.01</speed>
  <fix>3d</fix>
</trkpt>
<trkpt lat="40.0713749" lon="-105.229789">
  <ele>1583.0</ele>
  <time>2026-08-28T17:49:01Z</time>
  <course>0.0</course>
  <speed>0.0</speed>
  <fix>3d</fix>
</trkpt>
<trkpt lat="40.0713749" lon="-105.229789">
  <ele>1583.0</ele>
  <time>2026-08-28T17:49:01Z</time>
  <course>248.4</course>
  <speed>0.01</speed>
  <fix>3d</fix>
</trkpt>
<trkpt lat="40.0713749" lon="-105.229789">
  <ele>1583.0</ele>
  <time>2026-08-28T17:49:01Z</time>
  <course>0.0</course>
  <speed>0.0</speed>
  <fix>3d</fix>
</trkpt>
<trkpt lat="40.0713749" lon="-105.229789">
  <ele>1583.0</ele>
  <time>2026-08-28T17:49:01Z</time>
  <course>248.4</course>
  <speed>0.01</speed>
  <fix>3d</fix>
</trkpt>
<trkpt lat="40.0713749" lon="-105.229789">
  <ele>1583.0</ele>
  <time>2026-08-28T17:49:01Z</time>
  <course>0.0</course>
  <speed>0.0</speed>
  <fix>3d</fix>
</trkpt>
<trkpt lat="40.0713749" lon="-105.229789">
  <ele>1583.0</ele>
  <time>2026-08-28T17:49:01Z</time>
  <course>248.4</course>
  <speed>0.01</speed>
  <fix>3d</fix>
</trkpt>
<trkpt lat="40.0713749" lon="-105.229789">
  <ele>1583.0</ele>
  <time>2026-08-28T17:49:01Z</time>
  <course>0.0</course>
  <speed>0.0</speed>
  <fix>3d</fix>
</trkpt>
<trkpt lat="40.0713749" lon="-105.229789">
  <ele>1583.0</ele>
  <time>2026-08-28T17:49:01Z</time>
  <course>248.39</course>
  <speed>0.01</speed>
  <fix>3d</fix>
</trkpt>
<trkpt lat="40.0713749" lon="-105.229789">
  <ele>1583.0</ele>
  <time>2026-08-28T17:49:01Z</time>
  <course>0.0</course>
  <speed>0.0</speed>
  <fix>3d</fix>
</trkpt>
<trkpt lat="40.0713749" lon="-105.229789">
  <ele>1583.0</ele>
  <time>2026-08-28T17:49:01Z</time>
  <course>248.39</course>
  <speed>0.01</speed>
  <fix>3d</fix>
</trkpt>
<trkpt lat="40.0713749" lon="-105.229789">
  <ele>1583.0</ele>
  <time>2026-08-28T17:49:01Z</time>
  <course>0.0</course>
  <speed>0.0</speed>
  <fix>3d</fix>
</trkpt>
<trkpt lat="40.0713749" lon="-105.229789">
  <ele>1583.0</ele>
  <time>2026-08-28T17:49:01Z</time>
  <course>248.39</course>
  <speed>0.01</speed>
  <fix>3d</fix>
</trkpt>
<trkpt lat="40.0713749" lon="-105.229789">
  <ele>1583.0</ele>
  <time>2026-08-28T17:49:01Z</time>
  <course>0.0</course>
  <speed>0.0</speed>
  <fix>3d</fix>
</trkpt>
<trkpt lat="40.0713749" lon="-105.229789">
  <ele>1583.0</ele>
  <time>2026-08-28T17:49:01Z</time>
  <course>248.38</course>
  <speed>0.01</speed>
  <fix>3d</fix>
</trkpt>
<trkpt lat="40.0713749" lon="-105.229789">
  <ele>1583.0</ele>
  <time>2026-08-28T17:49:01Z</time>
  <course>0.0</course>
  <speed>0.0</speed>
  <fix>3d</fix>
</trkpt>
<trkpt lat="40.0713749" lon="-105.229789">
  <ele>1583.0</ele>
  <time>2026-08-28T17:49:01Z</time>
  <course>248.38</course>
  <speed>0.01</speed>
  <fix>3d</fix>
</trkpt>
<trkpt lat="40.0713749" lon="-105.229789">
  <ele>1583.0</ele>
  <time>2026-08-28T17:49:01Z</time>
  <course>0.0</course>
  <speed>0.0</speed>
  <fix>3d</fix>
</trkpt>
<trkpt lat="40.0713749" lon="-105.229789">
  <ele>1583.0</ele>
  <time>2026-08-28T17:49:01Z</time>
  <course>248.38</course>
  <speed>0.01</speed>
  <fix>3d</fix>
</trkpt>
<trkpt lat="40.0713749" lon="-105.229789">
  <ele>1583.0</ele>
  <time>2026-08-28T17:49:01Z</time>
  <course>0.0</course>
  <speed>0.0</speed>
  <fix>3d</fix>
</trkpt>
<trkpt lat="40.0713749" lon="-105.229789">
  <ele>1583.0</ele>
  <time>2026-08-28T17:49:01Z</time>
  <course>248.37</course>
  <speed>0.01</speed>
  <fix>3d</fix>
</trkpt>
<trkpt lat="40.0713749" lon="-105.229789">
  <ele>1583.0</ele>
  <time>2026-08-28T17:49:01Z</time>
  <course>0.0</course>
  <speed>0.0</speed>
  <fix>3d</fix>
</trkpt>
<trkpt lat="40.0713749" lon="-105.229789">
  <ele>1583.0</ele>
  <time>2026-08-28T17:49:01Z</time>
  <course>248.37</course>
  <speed>0.01</speed>
  <fix>3d</fix>
</trkpt>
<trkpt lat="40.0713749" lon="-105.229789">
  <ele>1583.0</ele>
  <time>2026-08-28T17:49:01Z</time>
  <course>0.0</course>
  <speed>0.0</speed>
  <fix>3d</fix>
</trkpt>
<trkpt lat="40.0713749" lon="-105.229789">
  <ele>1583.0</ele>
  <time>2026-08-28T17:49:01Z</time>
  <course>248.37</course>
  <speed>0.01</speed>
  <fix>3d</fix>
</trkpt>
<trkpt lat="40.0713749" lon="-105.229789">
  <ele>1583.0</ele>
  <time>2026-08-28T17:49:01Z</time>
  <course>0.0</course>
  <speed>0.0</speed>
  <fix>3d</fix>
</trkpt>
<trkpt lat="40.0713749" lon="-105.229789">
  <ele>1583.0</ele>
  <time>2026-08-28T17:49:01Z</time>
  <course>248.36</course>
  <speed>0.01</speed>
  <fix>3d</fix>
</trkpt>
<trkpt lat="40.0713749" lon="-105.229789">
  <ele>1583.0</ele>
  <time>2026-08-28T17:49:01Z</time>
  <course>0.0</course>
  <speed>0.0</speed>
  <fix>3d</fix>
</trkpt>
<trkpt lat="40.0713749" lon="-105.229789">
  <ele>1583.0</ele>
  <time>2026-08-28T17:49:01Z</time>
  <course>248.36</course>
  <speed>0.01</speed>
  <fix>3d</fix>
</trkpt>
<trkpt lat="40.0713749" lon="-105.229789">
  <ele>1583.0</ele>
  <time>2026-08-28T17:49:01Z</time>
  <course>0.0</course>
  <speed>0.0</speed>
  <fix>3d</fix>
</trkpt>
<trkpt lat="40.0713749" lon="-105.229789">
  <ele>1583.0</ele>
  <time>2026-08-28T17:49:01Z</time>
  <course>248.36</course>
  <speed>0.01</speed>
  <fix>3d</fix>
</trkpt>
<trkpt lat="40.0713749" lon="-105.229789">
  <ele>1583.0</ele>
  <time>2026-08-28T17:49:01Z</time>
  <course>0.0</course>
  <speed>0.0</speed>
  <fix>3d</fix>
</trkpt>
<trkpt lat="40.0713749" lon="-105.229789">
  <ele>1583.0</ele>
  <time>2026-08-28T17:49:01Z</time>
  <course>248.35</course>
  <speed>0.01</speed>
  <fix>3d</fix>
</trkpt>
<trkpt lat="40.0713749" lon="-105.229789">
  <ele>1583.0</ele>
  <time>2026-08-28T17:49:01Z</time>
  <course>0.0</course>
  <speed>0.0</speed>
  <fix>3d</fix>
</trkpt>
<trkpt lat="40.0713749" lon="-105.229789">
  <ele>1583.0</ele>
  <time>2026-08-28T17:49:01Z</time>
  <course>248.35</course>
  <speed>0.01</speed>
  <fix>3d</fix>
</trkpt>
<trkpt lat="40.0713749" lon="-105.229789">
  <ele>1583.0</ele>
  <time>2026-08-28T17:49:01Z</time>
  <course>0.0</course>
  <speed>0.0</speed>
  <fix>3d</fix>
</trkpt>
<trkpt lat="40.0713749" lon="-105.229789">
  <ele>1583.0</ele>
  <time>2026-08-28T17:49:01Z</time>
  <course>248.35</course>
  <speed>0.01</speed>
  <fix>3d</fix>
</trkpt>
<trkpt lat="40.0713749" lon="-105.229789">
  <ele>1583.0</ele>
  <time>2026-08-28T17:49:01Z</time>
  <course>0.0</course>
  <speed>0.0</speed>
  <fix>3d</fix>
</trkpt>
<trkpt lat="40.0713749" lon="-105.229789">
  <ele>1583.0</ele>
  <time>2026-08-28T17:49:01Z</time>
  <course>248.34</course>
  <speed>0.01</speed>
  <fix>3d</fix>
</trkpt>
<trkpt lat="40.0713749" lon="-105.229789">
  <ele>1583.0</ele>
  <time>2026-08-28T17:49:01Z</time>
  <course>0.0</course>
  <speed>0.0</speed>
  <fix>3d</fix>
</trkpt>
<trkpt lat="40.0713749" lon="-105.229789">
  <ele>1583.0</ele>
  <time>2026-08-28T17:49:01Z</time>
  <course>248.34</course>
  <speed>0.01</speed>
  <fix>3d</fix>
</trkpt>
<trkpt lat="40.0713749" lon="-105.229789">
  <ele>1583.0</ele>
  <time>2026-08-28T17:49:01Z</time>
  <course>0.0</course>
  <speed>0.0</speed>
  <fix>3d</fix>
</trkpt>
<trkpt lat="40.0713749" lon="-105.229789">
  <ele>1583.0</ele>
  <time>2026-08-28T17:49:01Z</time>
  <course>248.33</course>
  <speed>0.01</speed>
  <fix>3d</fix>
</trkpt>
<trkpt lat="40.0713749" lon="-105.229789">
  <ele>1583.0</ele>
  <time>2026-08-28T17:49:01Z</time>
  <course>0.0</course>
  <speed>0.0</speed>
  <fix>3d</fix>
</trkpt>
<trkpt lat="40.0713749" lon="-105.229789">
  <ele>1583.0</ele>
  <time>2026-08-28T17:49:01Z</time>
  <course>248.33</course>
  <speed>0.01</speed>
  <fix>3d</fix>
</trkpt>
<trkpt lat="40.0713749" lon="-105.229789">
  <ele>1583.0</ele>
  <time>2026-08-28T17:49:01Z</time>
  <course>0.0</course>
  <speed>0.0</speed>
  <fix>3d</fix>
</trkpt>
<trkpt lat="40.0713749" lon="-105.229789">
  <ele>1583.0</ele>
  <time>2026-08-28T17:49:01Z</time>
  <course>248.32</course>
  <speed>0.01</speed>
  <fix>3d</fix>
</trkpt>
<trkpt lat="40.0713749" lon="-105.229789">
  <ele>1583.0</ele>
  <time>2026-08-28T17:49:01Z</time>
  <course>0.0</course>
  <speed>0.0</speed>
  <fix>3d</fix>
</trkpt>
<trkpt lat="40.0713749" lon="-105.229789">
  <ele>1583.0</ele>
  <time>2026-08-28T17:49:01Z</time>
  <course>248.32</course>
  <speed>0.01</speed>
  <fix>3d</fix>
</trkpt>
<trkpt lat="40.0713749" lon="-105.229789">
  <ele>1583.0</ele>
  <time>2026-08-28T17:49:01Z</time>
  <course>0.0</course>
  <speed>0.0</speed>
  <fix>3d</fix>
</trkpt>
<trkpt lat="40.0713749" lon="-105.229789">
  <ele>1583.0</ele>
  <time>2026-08-28T17:49:01Z</time>
  <course>248.32</course>
  <speed>0.01</speed>
  <fix>3d</fix>
</trkpt>
<trkpt lat="40.0713749" lon="-105.229789">
  <ele>1583.0</ele>
  <time>2026-08-28T17:49:01Z</time>
  <course>0.0</course>
  <speed>0.0</speed>
  <fix>3d</fix>
</trkpt>
<trkpt lat="40.0713749" lon="-105.229789">
  <ele>1583.0</ele>
  <time>2026-08-28T17:49:01Z</time>
  <course>248.31</course>
  <speed>0.01</speed>
  <fix>3d</fix>
</trkpt>
<trkpt lat="40.0713749" lon="-105.229789">
  <ele>1583.0</ele>
  <time>2026-08-28T17:49:01Z</time>
  <course>0.0</course>
  <speed>0.0</speed>
  <fix>3d</fix>
</trkpt>
<trkpt lat="40.0713749" lon="-105.229789">
  <ele>1583.0</ele>
  <time>2026-08-28T17:49:01Z</time>
  <course>248.31</course>
  <speed>0.01</speed>
  <fix>3d</fix>
</trkpt>
<trkpt lat="40.0713749" lon="-105.229789">
  <ele>1583.0</ele>
  <time>2026-08-28T17:49:01Z</time>
  <course>0.0</course>
  <speed>0.0</speed>
  <fix>3d</fix>
</trkpt>
<trkpt lat="40.0713749" lon="-105.229789">
  <ele>1583.0</ele>
  <time>2026-08-28T17:49:01Z</time>
  <course>248.3</course>
  <speed>0.01</speed>
  <fix>3d</fix>
</trkpt>
<trkpt lat="40.0713749" lon="-105.229789">
  <ele>1583.0</ele>
  <time>2026-08-28T17:49:01Z</time>
  <course>0.0</course>
  <speed>0.0</speed>
  <fix>3d</fix>
</trkpt>
<trkpt lat="40.0713749" lon="-105.229789">
  <ele>1583.0</ele>
  <time>2026-08-28T17:49:01Z</time>
  <course>248.3</course>
  <speed>0.01</speed>
  <fix>3d</fix>
</trkpt>
<trkpt lat="40.0713749" lon="-105.229789">
  <ele>1583.0</ele>
  <time>2026-08-28T17:49:01Z</time>
  <course>0.0</course>
  <speed>0.0</speed>
  <fix>3d</fix>
</trkpt>
<trkpt lat="40.0713749" lon="-105.229789">
  <ele>1583.0</ele>
  <time>2026-08-28T17:49:01Z</time>
  <course>248.29</course>
  <speed>0.01</speed>
  <fix>3d</fix>
</trkpt>
<trkpt lat="40.0713749" lon="-105.229789">
  <ele>1583.0</ele>
  <time>2026-08-28T17:49:01Z</time>
  <course>0.0</course>
  <speed>0.0</speed>
  <fix>3d</fix>
</trkpt>
<trkpt lat="40.0713749" lon="-105.229789">
  <ele>1583.0</ele>
  <time>2026-08-28T17:49:01Z</time>
  <course>248.29</course>
  <speed>0.01</speed>
  <fix>3d</fix>
</trkpt>
<trkpt lat="40.0713749" lon="-105.229789">
  <ele>1583.0</ele>
  <time>2026-08-28T17:49:01Z</time>
  <course>0.0</course>
  <speed>0.0</speed>
  <fix>3d</fix>
</trkpt>
<trkpt lat="40.0713749" lon="-105.229789">
  <ele>1583.0</ele>
  <time>2026-08-28T17:49:01Z</time>
  <course>248.28</course>
  <speed>0.01</speed>
  <fix>3d</fix>
</trkpt>
<trkpt lat="40.0713749" lon="-105.229789">
  <ele>1583.0</ele>
  <time>2026-08-28T17:49:01Z</time>
  <course>0.0</course>
  <speed>0.0</speed>
  <fix>3d</fix>
</trkpt>
<trkpt lat="40.0713749" lon="-105.229789">
  <ele>1583.0</ele>
  <time>2026-08-28T17:49:01Z</time>
  <course>248.28</course>
  <speed>0.01</speed>
  <fix>3d</fix>
</trkpt>
<trkpt lat="40.0713749" lon="-105.229789">
  <ele>1583.0</ele>
  <time>2026-08-28T17:49:01Z</time>
  <course>0.0</course>
  <speed>0.0</speed>
  <fix>3d</fix>
</trkpt>
<trkpt lat="40.0713749" lon="-105.229789">
  <ele>1583.0</ele>
  <time>2026-08-28T17:49:01Z</time>
  <course>248.27</course>
  <speed>0.01</speed>
  <fix>3d</fix>
</trkpt>
<trkpt lat="40.0713749" lon="-105.229789">
  <ele>1583.0</ele>
  <time>2026-08-28T17:49:01Z</time>
  <course>0.0</course>
  <speed>0.0</speed>
  <fix>3d</fix>
</trkpt>
<trkpt lat="40.0713749" lon="-105.229789">
  <ele>1583.0</ele>
  <time>2026-08-28T17:49:01Z</time>
  <course>248.27</course>
  <speed>0.01</speed>
  <fix>3d</fix>
</trkpt>
<trkpt lat="40.0713749" lon="-105.229789">
  <ele>1583.0</ele>
  <time>2026-08-28T17:49:01Z</time>
  <course>0.0</course>
  <speed>0.0</speed>
  <fix>3d</fix>
</trkpt>
<trkpt lat="40.0713749" lon="-105.229789">
  <ele>1583.0</ele>
  <time>2026-08-28T17:49:01Z</time>
  <course>248.26</course>
  <speed>0.01</speed>
  <fix>3d</fix>
</trkpt>
<trkpt lat="40.0713749" lon="-105.229789">
  <ele>1583.0</ele>
  <time>2026-08-28T17:49:01Z</time>
  <course>0.0</course>
  <speed>0.0</speed>
  <fix>3d</fix>
</trkpt>
<trkpt lat="40.0713749" lon="-105.229789">
  <ele>1583.0</ele>
  <time>2026-08-28T17:49:01Z</time>
  <course>248.26</course>
  <speed>0.01</speed>
  <fix>3d</fix>
</trkpt>
<trkpt lat="40.0713749" lon="-105.229789">
  <ele>1583.0</ele>
  <time>2026-08-28T17:49:01Z</time>
  <course>0.0</course>
  <speed>0.0</speed>
  <fix>3d</fix>
</trkpt>
<trkpt lat="40.0713749" lon="-105.229789">
  <ele>1583.0</ele>
  <time>2026-08-28T17:49:01Z</time>
  <course>248.26</course>
  <speed>0.01</speed>
  <fix>3d</fix>
</trkpt>
<trkpt lat="40.0713749" lon="-105.229789">
  <ele>1583.0</ele>
  <time>2026-08-28T17:49:01Z</time>
  <course>0.0</course>
  <speed>0.0</speed>
  <fix>3d</fix>
</trkpt>
<trkpt lat="40.0713749" lon="-105.229789">
  <ele>1583.0</ele>
  <time>2026-08-28T17:49:01Z</time>
  <course>248.25</course>
  <speed>0.01</speed>
  <fix>3d</fix>
</trkpt>
<trkpt lat="40.0713749" lon="-105.229789">
  <ele>1583.0</ele>
  <time>2026-08-28T17:49:01Z</time>
  <course>0.0</course>
  <speed>0.0</speed>
  <fix>3d</fix>
</trkpt>
<trkpt lat="40.0713749" lon="-105.229789">
  <ele>1583.0</ele>
  <time>2026-08-28T17:49:01Z</time>
  <course>248.25</course>
  <speed>0.01</speed>
  <fix>3d</fix>
</trkpt>
<trkpt lat="40.0713749" lon="-105.229789">
  <ele>1583.0</ele>
  <time>2026-08-28T17:49:01Z</time>
  <course>0.0</course>
  <speed>0.0</speed>
  <fix>3d</fix>
</trkpt>
<trkpt lat="40.0713749" lon="-105.229789">
  <ele>1583.0</ele>
  <time>2026-08-28T17:49:01Z</time>
  <course>248.24</course>
  <speed>0.01</speed>
  <fix>3d</fix>
</trkpt>
<trkpt lat="40.0713749" lon="-105.229789">
  <ele>1583.0</ele>
  <time>2026-08-28T17:49:01Z</time>
  <course>0.0</course>
  <speed>0.0</speed>
  <fix>3d</fix>
</trkpt>
<trkpt lat="40.0713749" lon="-105.229789">
  <ele>1583.0</ele>
  <time>2026-08-28T17:49:01Z</time>
  <course>248.24</course>
  <speed>0.01</speed>
  <fix>3d</fix>
</trkpt>
<trkpt lat="40.0713749" lon="-105.229789">
  <ele>1583.0</ele>
  <time>2026-08-28T17:49:01Z</time>
  <course>0.0</course>
  <speed>0.0</speed>
  <fix>3d</fix>
</trkpt>
<trkpt lat="40.0713749" lon="-105.229789">
  <ele>1583.0</ele>
  <time>2026-08-28T17:49:01Z</time>
  <course>248.23</course>
  <speed>0.01</speed>
  <fix>3d</fix>
</trkpt>
<trkpt lat="40.0713749" lon="-105.229789">
  <ele>1583.0</ele>
  <time>2026-08-28T17:49:01Z</time>
  <course>0.0</course>
  <speed>0.0</speed>
  <fix>3d</fix>
</trkpt>
<trkpt lat="40.0713749" lon="-105.229789">
  <ele>1583.0</ele>
  <time>2026-08-28T17:49:01Z</time>
  <course>248.23</course>
  <speed>0.01</speed>
  <fix>3d</fix>
</trkpt>
<trkpt lat="40.0713749" lon="-105.229789">
  <ele>1583.0</ele>
  <time>2026-08-28T17:49:01Z</time>
  <course>0.0</course>
  <speed>0.0</speed>
  <fix>3d</fix>
</trkpt>
<trkpt lat="40.0713749" lon="-105.229789">
  <ele>1583.0</ele>
  <time>2026-08-28T17:49:01Z</time>
  <course>248.22</course>
  <speed>0.01</speed>
  <fix>3d</fix>
</trkpt>
<trkpt lat="40.0713749" lon="-105.229789">
  <ele>1583.0</ele>
  <time>2026-08-28T17:49:01Z</time>
  <course>0.0</course>
  <speed>0.0</speed>
  <fix>3d</fix>
</trkpt>
<trkpt lat="40.0713749" lon="-105.229789">
  <ele>1583.0</ele>
  <time>2026-08-28T17:49:01Z</time>
  <course>248.22</course>
  <speed>0.01</speed>
  <fix>3d</fix>
</trkpt>
<trkpt lat="40.0713749" lon="-105.229789">
  <ele>1583.0</ele>
  <time>2026-08-28T17:49:01Z</time>
  <course>0.0</course>
  <speed>0.0</speed>
  <fix>3d</fix>
</trkpt>
<trkpt lat="40.0713749" lon="-105.229789">
  <ele>1583.0</ele>
  <time>2026-08-28T17:49:01Z</time>
  <course>248.21</course>
  <speed>0.01</speed>
  <fix>3d</fix>
</trkpt>
<trkpt lat="40.0713749" lon="-105.229789">
  <ele>1583.0</ele>
  <time>2026-08-28T17:49:01Z</time>
  <course>0.0</course>
  <speed>0.0</speed>
  <fix>3d</fix>
</trkpt>
<trkpt lat="40.0713749" lon="-105.229789">
  <ele>1583.0</ele>
  <time>2026-08-28T17:49:01Z</time>
  <course>248.21</course>
  <speed>0.01</speed>
  <fix>3d</fix>
</trkpt>
<trkpt lat="40.0713749" lon="-105.229789">
  <ele>1583.0</ele>
  <time>2026-08-28T17:49:01Z</time>
  <course>0.0</course>
  <speed>0.0</speed>
  <fix>3d</fix>
</trkpt>
<trkpt lat="40.0713749" lon="-105.229789">
  <ele>1583.0</ele>
  <time>2026-08-28T17:49:01Z</time>
  <course>248.2</course>
  <speed>0.01</speed>
  <fix>3d</fix>
</trkpt>
<trkpt lat="40.0713749" lon="-105.229789">
  <ele>1583.0</ele>
  <time>2026-08-28T17:49:01Z</time>
  <course>0.0</course>
  <speed>0.0</speed>
  <fix>3d</fix>
</trkpt>
<trkpt lat="40.0713749" lon="-105.229789">
  <ele>1583.0</ele>
  <time>2026-08-28T17:49:01Z</time>
  <course>248.2</course>
  <speed>0.01</speed>
  <fix>3d</fix>
</trkpt>
<trkpt lat="40.0713749" lon="-105.229789">
  <ele>1583.0</ele>
  <time>2026-08-28T17:49:01Z</time>
  <course>0.0</course>
  <speed>0.0</speed>
  <fix>3d</fix>
</trkpt>
<trkpt lat="40.0713749" lon="-105.229789">
  <ele>1583.0</ele>
  <time>2026-08-28T17:49:01Z</time>
  <course>248.19</course>
  <speed>0.01</speed>
  <fix>3d</fix>
</trkpt>
<trkpt lat="40.0713749" lon="-105.229789">
  <ele>1583.0</ele>
  <time>2026-08-28T17:49:01Z</time>
  <course>0.0</course>
  <speed>0.0</speed>
  <fix>3d</fix>
</trkpt>
<trkpt lat="40.0713749" lon="-105.229789">
  <ele>1583.0</ele>
  <time>2026-08-28T17:49:01Z</time>
  <course>248.19</course>
  <speed>0.01</speed>
  <fix>3d</fix>
</trkpt>
<trkpt lat="40.0713749" lon="-105.229789">
  <ele>1583.0</ele>
  <time>2026-08-28T17:49:01Z</time>
  <course>0.0</course>
  <speed>0.0</speed>
  <fix>3d</fix>
</trkpt>
<trkpt lat="40.0713749" lon="-105.229789">
  <ele>1583.0</ele>
  <time>2026-08-28T17:49:01Z</time>
  <course>248.18</course>
  <speed>0.01</speed>
  <fix>3d</fix>
</trkpt>
<trkpt lat="40.0713749" lon="-105.229789">
  <ele>1583.0</ele>
  <time>2026-08-28T17:49:01Z</time>
  <course>0.0</course>
  <speed>0.0</speed>
  <fix>3d</fix>
</trkpt>
<trkpt lat="40.0713749" lon="-105.229789">
  <ele>1583.0</ele>
  <time>2026-08-28T17:49:01Z</time>
  <course>248.18</course>
  <speed>0.01</speed>
  <fix>3d</fix>
</trkpt>
<trkpt lat="40.0713749" lon="-105.229789">
  <ele>1583.0</ele>
  <time>2026-08-28T17:49:01Z</time>
  <course>0.0</course>
  <speed>0.0</speed>
  <fix>3d</fix>
</trkpt>
<trkpt lat="40.0713749" lon="-105.229789">
  <ele>1583.0</ele>
  <time>2026-08-28T17:49:01Z</time>
  <course>248.17</course>
  <speed>0.022360679774997897</speed>
  <fix>3d</fix>
</trkpt>
<trkpt lat="40.0713749" lon="-105.229789">
  <ele>1583.0</ele>
  <time>2026-08-28T17:49:01Z</time>
  <course>0.0</course>
  <speed>0.0</speed>
  <fix>3d</fix>
</trkpt>
<trkpt lat="40.0713749" lon="-105.229789">
  <ele>1583.0</ele>
  <time>2026-08-28T17:49:01Z</time>
  <course>248.17</course>
  <speed>0.022360679774997897</speed>
  <fix>3d</fix>
</trkpt>
<trkpt lat="40.0713749" lon="-105.229789">
  <ele>1583.0</ele>
  <time>2026-08-28T17:49:01Z</time>
  <course>0.0</course>
  <speed>0.0</speed>
  <fix>3d</fix>
</trkpt>
<trkpt lat="40.0713749" lon="-105.229789">
  <ele>1583.0</ele>
  <time>2026-08-28T17:49:01Z</time>
  <course>248.16</course>
  <speed>0.022360679774997897</speed>
  <fix>3d</fix>
</trkpt>
<trkpt lat="40.0713749" lon="-105.229789">
  <ele>1583.0</ele>
  <time>2026-08-28T17:49:01Z</time>
  <course>0.0</course>
  <speed>0.0</speed>
  <fix>3d</fix>
</trkpt>
<trkpt lat="40.0713749" lon="-105.229789">
  <ele>1583.0</ele>
  <time>2026-08-28T17:49:01Z</time>
  <course>248.16</course>
  <speed>0.022360679774997897</speed>
  <fix>3d</fix>
</trkpt>
<trkpt lat="40.0713749" lon="-105.229789">
  <ele>1583.0</ele>
  <time>2026-08-28T17:49:01Z</time>
  <course>0.0</course>
  <speed>0.0</speed>
  <fix>3d</fix>
</trkpt>
<trkpt lat="40.0713749" lon="-105.229789">
  <ele>1583.0</ele>
  <time>2026-08-28T17:49:01Z</time>
  <course>248.15</course>
  <speed>0.022360679774997897</speed>
  <fix>3d</fix>
</trkpt>
<trkpt lat="40.0713749" lon="-105.229789">
  <ele>1583.0</ele>
  <time>2026-08-28T17:49:01Z</time>
  <course>0.0</course>
  <speed>0.0</speed>
  <fix>3d</fix>
</trkpt>
<trkpt lat="40.0713749" lon="-105.229789">
  <ele>1583.0</ele>
  <time>2026-08-28T17:49:01Z</time>
  <course>248.15</course>
  <speed>0.022360679774997897</speed>
  <fix>3d</fix>
</trkpt>
<trkpt lat="40.0713749" lon="-105.229789">
  <ele>1583.0</ele>
  <time>2026-08-28T17:49:01Z</time>
  <course>0.0</course>
  <speed>0.0</speed>
  <fix>3d</fix>
</trkpt>
<trkpt lat="40.0713749" lon="-105.229789">
  <ele>1583.0</ele>
  <time>2026-08-28T17:49:01Z</time>
  <course>248.14</course>
  <speed>0.022360679774997897</speed>
  <fix>3d</fix>
</trkpt>
<trkpt lat="40.0713749" lon="-105.229789">
  <ele>1583.0</ele>
  <time>2026-08-28T17:49:01Z</time>
  <course>0.0</course>
  <speed>0.0</speed>
  <fix>3d</fix>
</trkpt>
<trkpt lat="40.0713749" lon="-105.229789">
  <ele>1583.0</ele>
  <time>2026-08-28T17:49:01Z</time>
  <course>248.14</course>
  <speed>0.022360679774997897</speed>
  <fix>3d</fix>
</trkpt>
<trkpt lat="40.0713749" lon="-105.229789">
  <ele>1583.0</ele>
  <time>2026-08-28T17:49:01Z</time>
  <course>0.0</course>
  <speed>0.0</speed>
  <fix>3d</fix>
</trkpt>
<trkpt lat="40.0713749" lon="-105.229789">
  <ele>1583.0</ele>
  <time>2026-08-28T17:49:01Z</time>
  <course>248.13</course>
  <speed>0.022360679774997897</speed>
  <fix>3d</fix>
</trkpt>
<trkpt lat="40.0713749" lon="-105.229789">
  <ele>1583.0</ele>
  <time>2026-08-28T17:49:01Z</time>
  <course>0.0</course>
  <speed>0.0</speed>
  <fix>3d</fix>
</trkpt>
<trkpt lat="40.0713749" lon="-105.229789">
  <ele>1583.0</ele>
  <time>2026-08-28T17:49:01Z</time>
  <course>248.13</course>
  <speed>0.022360679774997897</speed>
  <fix>3d</fix>
</trkpt>
<trkpt lat="40.0713749" lon="-105.229789">
  <ele>1583.0</ele>
  <time>2026-08-28T17:49:01Z</time>
  <course>0.0</course>
  <speed>0.0</speed>
  <fix>3d</fix>
</trkpt>
<trkpt lat="40.0713749" lon="-105.229789">
  <ele>1583.0</ele>
  <time>2026-08-28T17:49:01Z</time>
  <course>248.12</course>
  <speed>0.022360679774997897</speed>
  <fix>3d</fix>
</trkpt>
<trkpt lat="40.0713749" lon="-105.229789">
  <ele>1583.0</ele>
  <time>2026-08-28T17:49:01Z</time>
  <course>0.0</course>
  <speed>0.0</speed>
  <fix>3d</fix>
</trkpt>
<trkpt lat="40.0713749" lon="-105.229789">
  <ele>1583.0</ele>
  <time>2026-08-28T17:49:01Z</time>
  <course>248.12</course>
  <speed>0.022360679774997897</speed>
  <fix>3d</fix>
</trkpt>
<trkpt lat="40.0713749" lon="-105.229789">
  <ele>1583.0</ele>
  <time>2026-08-28T17:49:01Z</time>
  <course>0.0</course>
  <speed>0.0</speed>
  <fix>3d</fix>
</trkpt>
<trkpt lat="40.0713749" lon="-105.229789">
  <ele>1583.0</ele>
  <time>2026-08-28T17:49:01Z</time>
  <course>248.11</course>
  <speed>0.022360679774997897</speed>
  <fix>3d</fix>
</trkpt>
<trkpt lat="40.0713749" lon="-105.229789">
  <ele>1583.0</ele>
  <time>2026-08-28T17:49:01Z</time>
  <course>0.0</course>
  <speed>0.0</speed>
  <fix>3d</fix>
</trkpt>
<trkpt lat="40.0713749" lon="-105.229789">
  <ele>1583.0</ele>
  <time>2026-08-28T17:49:01Z</time>
  <course>248.11</course>
  <speed>0.022360679774997897</speed>
  <fix>3d</fix>
</trkpt>
<trkpt lat="40.0713749" lon="-105.229789">
  <ele>1583.0</ele>
  <time>2026-08-28T17:49:01Z</time>
  <course>0.0</course>
  <speed>0.0</speed>
  <fix>3d</fix>
</trkpt>
<trkpt lat="40.0713749" lon="-105.229789">
  <ele>1583.0</ele>
  <time>2026-08-28T17:49:01Z</time>
  <course>248.1</course>
  <speed>0.022360679774997897</speed>
  <fix>3d</fix>
</trkpt>
<trkpt lat="40.0713749" lon="-105.229789">
  <ele>1583.0</ele>
  <time>2026-08-28T17:49:01Z</time>
  <course>0.0</course>
  <speed>0.0</speed>
  <fix>3d</fix>
</trkpt>
<trkpt lat="40.0713749" lon="-105.229789">
  <ele>1583.0</ele>
  <time>2026-08-28T17:49:01Z</time>
  <course>248.1</course>
  <speed>0.022360679774997897</speed>
  <fix>3d</fix>
</trkpt>
<trkpt lat="40.0713749" lon="-105.229789">
  <ele>1583.0</ele>
  <time>2026-08-28T17:49:01Z</time>
  <course>0.0</course>
  <speed>0.0</speed>
  <fix>3d</fix>
</trkpt>
<trkpt lat="40.0713749" lon="-105.229789">
  <ele>1583.0</ele>
  <time>2026-08-28T17:49:01Z</time>
  <course>248.09</course>
  <speed>0.022360679774997897</speed>
  <fix>3d</fix>
</trkpt>
<trkpt lat="40.0713749" lon="-105.229789">
  <ele>1583.0</ele>
  <time>2026-08-28T17:49:01Z</time>
  <course>0.0</course>
  <speed>0.0</speed>
  <fix>3d</fix>
</trkpt>
<trkpt lat="40.0713749" lon="-105.229789">
  <ele>1583.0</ele>
  <time>2026-08-28T17:49:01Z</time>
  <course>248.09</course>
  <speed>0.022360679774997897</speed>
  <fix>3d</fix>
</trkpt>
<trkpt lat="40.0713749" lon="-105.229789">
  <ele>1583.0</ele>
  <time>2026-08-28T17:49:01Z</time>
  <course>0.0</course>
  <speed>0.0</speed>
  <fix>3d</fix>
</trkpt>
<trkpt lat="40.0713749" lon="-105.229789">
  <ele>1583.0</ele>
  <time>2026-08-28T17:49:01Z</time>
  <course>248.08</course>
  <speed>0.022360679774997897</speed>
  <fix>3d</fix>
</trkpt>
<trkpt lat="40.0713749" lon="-105.229789">
  <ele>1583.0</ele>
  <time>2026-08-28T17:49:01Z</time>
  <course>0.0</course>
  <speed>0.0</speed>
  <fix>3d</fix>
</trkpt>
<trkpt lat="40.0713749" lon="-105.229789">
  <ele>1583.0</ele>
  <time>2026-08-28T17:49:01Z</time>
  <course>248.08</course>
  <speed>0.022360679774997897</speed>
  <fix>3d</fix>
</trkpt>
<trkpt lat="40.0713749" lon="-105.229789">
  <ele>1583.0</ele>
  <time>2026-08-28T17:49:01Z</time>
  <course>0.0</course>
  <speed>0.0</speed>
  <fix>3d</fix>
</trkpt>
<trkpt lat="40.0713749" lon="-105.229789">
  <ele>1583.0</ele>
  <time>2026-08-28T17:49:01Z</time>
  <course>248.07</course>
  <speed>0.022360679774997897</speed>
  <fix>3d</fix>
</trkpt>
<trkpt lat="40.0713749" lon="-105.229789">
  <ele>1583.0</ele>
  <time>2026-08-28T17:49:01Z</time>
  <course>0.0</course>
  <speed>0.0</speed>
  <fix>3d</fix>
</trkpt>
<trkpt lat="40.0713749" lon="-105.229789">
  <ele>1583.0</ele>
  <time>2026-08-28T17:49:01Z</time>
  <course>248.07</course>
  <speed>0.022360679774997897</speed>
  <fix>3d</fix>
</trkpt>
<trkpt lat="40.0713749" lon="-105.229789">
  <ele>1583.0</ele>
  <time>2026-08-28T17:49:01Z</time>
  <course>0.0</course>
  <speed>0.0</speed>
  <fix>3d</fix>
</trkpt>
<trkpt lat="40.0713749" lon="-105.229789">
  <ele>1583.0</ele>
  <time>2026-08-28T17:49:01Z</time>
  <course>248.06</course>
  <speed>0.022360679774997897</speed>
  <fix>3d</fix>
</trkpt>
<trkpt lat="40.0713749" lon="-105.229789">
  <ele>1583.0</ele>
  <time>2026-08-28T17:49:01Z</time>
  <course>0.0</course>
  <speed>0.0</speed>
  <fix>3d</fix>
</trkpt>
<trkpt lat="40.0713749" lon="-105.229789">
  <ele>1583.0</ele>
  <time>2026-08-28T17:49:01Z</time>
  <course>248.06</course>
  <speed>0.022360679774997897</speed>
  <fix>3d</fix>
</trkpt>
<trkpt lat="40.0713749" lon="-105.229789">
  <ele>1583.0</ele>
  <time>2026-08-28T17:49:01Z</time>
  <course>0.0</course>
  <speed>0.0</speed>
  <fix>3d</fix>
</trkpt>
<trkpt lat="40.0713749" lon="-105.229789">
  <ele>1583.0</ele>
  <time>2026-08-28T17:49:01Z</time>
  <course>248.05</course>
  <speed>0.022360679774997897</speed>
  <fix>3d</fix>
</trkpt>
<trkpt lat="40.0713749" lon="-105.229789">
  <ele>1583.0</ele>
  <time>2026-08-28T17:49:01Z</time>
  <course>0.0</course>
  <speed>0.0</speed>
  <fix>3d</fix>
</trkpt>
<trkpt lat="40.0713749" lon="-105.229789">
  <ele>1583.0</ele>
  <time>2026-08-28T17:49:01Z</time>
  <course>248.05</course>
  <speed>0.022360679774997897</speed>
  <fix>3d</fix>
</trkpt>
<trkpt lat="40.0713749" lon="-105.229789">
  <ele>1583.0</ele>
  <time>2026-08-28T17:49:01Z</time>
  <course>0.0</course>
  <speed>0.0</speed>
  <fix>3d</fix>
</trkpt>
<trkpt lat="40.0713749" lon="-105.229789">
  <ele>1583.0</ele>
  <time>2026-08-28T17:49:01Z</time>
  <course>248.05</course>
  <speed>0.022360679774997897</speed>
  <fix>3d</fix>
</trkpt>
<trkpt lat="40.0713749" lon="-105.229789">
  <ele>1583.0</ele>
  <time>2026-08-28T17:49:01Z</time>
  <course>0.0</course>
  <speed>0.0</speed>
  <fix>3d</fix>
</trkpt>
<trkpt lat="40.0713749" lon="-105.229789">
  <ele>1583.0</ele>
  <time>2026-08-28T17:49:01Z</time>
  <course>248.04</course>
  <speed>0.022360679774997897</speed>
  <fix>3d</fix>
</trkpt>
<trkpt lat="40.0713749" lon="-105.229789">
  <ele>1583.0</ele>
  <time>2026-08-28T17:49:01Z</time>
  <course>0.0</course>
  <speed>0.0</speed>
  <fix>3d</fix>
</trkpt>
<trkpt lat="40.0713749" lon="-105.229789">
  <ele>1583.0</ele>
  <time>2026-08-28T17:49:01Z</time>
  <course>248.04</course>
  <speed>0.022360679774997897</speed>
  <fix>3d</fix>
</trkpt>
<trkpt lat="40.0713749" lon="-105.229789">
  <ele>1583.0</ele>
  <time>2026-08-28T17:49:01Z</time>
  <course>0.0</course>
  <speed>0.0</speed>
  <fix>3d</fix>
</trkpt>
<trkpt lat="40.0713749" lon="-105.229789">
  <ele>1583.0</ele>
  <time>2026-08-28T17:49:01Z</time>
  <course>248.03</course>
  <speed>0.022360679774997897</speed>
  <fix>3d</fix>
</trkpt>
<trkpt lat="40.0713749" lon="-105.229789">
  <ele>1583.0</ele>
  <time>2026-08-28T17:49:01Z</time>
  <course>0.0</course>
  <speed>0.0</speed>
  <fix>3d</fix>
</trkpt>
<trkpt lat="40.0713749" lon="-105.229789">
  <ele>1583.0</ele>
  <time>2026-08-28T17:49:01Z</time>
  <course>248.03</course>
  <speed>0.022360679774997897</speed>
  <fix>3d</fix>
</trkpt>
<trkpt lat="40.0713749" lon="-105.229789">
  <ele>1583.0</ele>
  <time>2026-08-28T17:49:01Z</time>
  <course>0.0</course>
  <speed>0.0</speed>
  <fix>3d</fix>
</trkpt>
<trkpt lat="40.0713749" lon="-105.229789">
  <ele>1583.0</ele>
  <time>2026-08-28T17:49:01Z</time>
  <course>248.02</course>
  <speed>0.022360679774997897</speed>
  <fix>3d</fix>
</trkpt>
<trkpt lat="40.0713749" lon="-105.229789">
  <ele>1583.0</ele>
  <time>2026-08-28T17:49:01Z</time>
  <course>0.0</course>
  <speed>0.0</speed>
  <fix>3d</fix>
</trkpt>
<trkpt lat="40.0713749" lon="-105.229789">
  <ele>1583.0</ele>
  <time>2026-08-28T17:49:01Z</time>
  <course>248.02</course>
  <speed>0.022360679774997897</speed>
  <fix>3d</fix>
</trkpt>
<trkpt lat="40.0713749" lon="-105.229789">
  <ele>1583.0</ele>
  <time>2026-08-28T17:49:01Z</time>
  <course>0.0</course>
  <speed>0.0</speed>
  <fix>3d</fix>
</trkpt>
<trkpt lat="40.0713749" lon="-105.229789">
  <ele>1583.0</ele>
  <time>2026-08-28T17:49:01Z</time>
  <course>248.01</course>
  <speed>0.022360679774997897</speed>
  <fix>3d</fix>
</trkpt>
<trkpt lat="40.0713749" lon="-105.229789">
  <ele>1583.0</ele>
  <time>2026-08-28T17:49:01Z</time>
  <course>0.0</course>
  <speed>0.0</speed>
  <fix>3d</fix>
</trkpt>
<trkpt lat="40.0713749" lon="-105.229789">
  <ele>1583.0</ele>
  <time>2026-08-28T17:49:01Z</time>
  <course>248.01</course>
  <speed>0.022360679774997897</speed>
  <fix>3d</fix>
</trkpt>
<trkpt lat="40.0713749" lon="-105.229789">
  <ele>1583.0</ele>
  <time>2026-08-28T17:49:01Z</time>
  <course>0.0</course>
  <speed>0.0</speed>
  <fix>3d</fix>
</trkpt>
<trkpt lat="40.0713749" lon="-105.229789">
  <ele>1583.0</ele>
  <time>2026-08-28T17:49:01Z</time>
  <course>248.0</course>
  <speed>0.022360679774997897</speed>
  <fix>3d</fix>
</trkpt>
<trkpt lat="40.0713749" lon="-105.229789">
  <ele>1583.0</ele>
  <time>2026-08-28T17:49:01Z</time>
  <course>0.0</course>
  <speed>0.0</speed>
  <fix>3d</fix>
</trkpt>
<trkpt lat="40.0713749" lon="-105.229789">
  <ele>1583.0</ele>
  <time>2026-08-28T17:49:01Z</time>
  <course>248.0</course>
  <speed>0.022360679774997897</speed>
  <fix>3d</fix>
</trkpt>
<trkpt lat="40.0713749" lon="-105.229789">
  <ele>1583.0</ele>
  <time>2026-08-28T17:49:01Z</time>
  <course>0.0</course>
  <speed>0.0</speed>
  <fix>3d</fix>
</trkpt>
<trkpt lat="40.0713749" lon="-105.229789">
  <ele>1583.0</ele>
  <time>2026-08-28T17:49:01Z</time>
  <course>247.99</course>
  <speed>0.022360679774997897</speed>
  <fix>3d</fix>
</trkpt>
<trkpt lat="40.0713749" lon="-105.229789">
  <ele>1583.0</ele>
  <time>2026-08-28T17:49:01Z</time>
  <course>0.0</course>
  <speed>0.0</speed>
  <fix>3d</fix>
</trkpt>
<trkpt lat="40.0713749" lon="-105.229789">
  <ele>1583.0</ele>
  <time>2026-08-28T17:49:01Z</time>
  <course>247.99</course>
  <speed>0.022360679774997897</speed>
  <fix>3d</fix>
</trkpt>
<trkpt lat="40.0713749" lon="-105.229789">
  <ele>1583.0</ele>
  <time>2026-08-28T17:49:01Z</time>
  <course>0.0</course>
  <speed>0.0</speed>
  <fix>3d</fix>
</trkpt>
<trkpt lat="40.0713749" lon="-105.229789">
  <ele>1583.0</ele>
  <time>2026-08-28T17:49:01Z</time>
  <course>247.99</course>
  <speed>0.022360679774997897</speed>
  <fix>3d</fix>
</trkpt>
<trkpt lat="40.0713749" lon="-105.229789">
  <ele>1583.0</ele>
  <time>2026-08-28T17:49:01Z</time>
  <course>0.0</course>
  <speed>0.0</speed>
  <fix>3d</fix>
</trkpt>
<trkpt lat="40.0713749" lon="-105.229789">
  <ele>1583.0</ele>
  <time>2026-08-28T17:49:01Z</time>
  <course>247.98</course>
  <speed>0.022360679774997897</speed>
  <fix>3d</fix>
</trkpt>
<trkpt lat="40.0713749" lon="-105.229789">
  <ele>1583.0</ele>
  <time>2026-08-28T17:49:01Z</time>
  <course>0.0</course>
  <speed>0.0</speed>
  <fix>3d</fix>
</trkpt>
<trkpt lat="40.0713749" lon="-105.229789">
  <ele>1583.0</ele>
  <time>2026-08-28T17:49:01Z</time>
  <course>247.98</course>
  <speed>0.022360679774997897</speed>
  <fix>3d</fix>
</trkpt>
<trkpt lat="40.0713749" lon="-105.229789">
  <ele>1583.0</ele>
  <time>2026-08-28T17:49:01Z</time>
  <course>0.0</course>
  <speed>0.0</speed>
  <fix>3d</fix>
</trkpt>
<trkpt lat="40.0713749" lon="-105.229789">
  <ele>1583.0</ele>
  <time>2026-08-28T17:49:01Z</time>
  <course>247.97</course>
  <speed>0.022360679774997897</speed>
  <fix>3d</fix>
</trkpt>
<trkpt lat="40.0713749" lon="-105.229789">
  <ele>1583.0</ele>
  <time>2026-08-28T17:49:01Z</time>
  <course>0.0</course>
  <speed>0.0</speed>
  <fix>3d</fix>
</trkpt>
<trkpt lat="40.0713749" lon="-105.229789">
  <ele>1583.0</ele>
  <time>2026-08-28T17:49:01Z</time>
  <course>247.97</course>
  <speed>0.022360679774997897</speed>
  <fix>3d</fix>
</trkpt>
<trkpt lat="40.0713749" lon="-105.229789">
  <ele>1583.0</ele>
  <time>2026-08-28T17:49:01Z</time>
  <course>0.0</course>
  <speed>0.0</speed>
  <fix>3d</fix>
</trkpt>
<trkpt lat="40.0713749" lon="-105.229789">
  <ele>1583.0</ele>
  <time>2026-08-28T17:49:01Z</time>
  <course>247.96</course>
  <speed>0.022360679774997897</speed>
  <fix>3d</fix>
</trkpt>
<trkpt lat="40.0713749" lon="-105.229789">
  <ele>1583.0</ele>
  <time>2026-08-28T17:49:01Z</time>
  <course>0.0</course>
  <speed>0.0</speed>
  <fix>3d</fix>
</trkpt>
<trkpt lat="40.0713749" lon="-105.229789">
  <ele>1583.0</ele>
  <time>2026-08-28T17:49:01Z</time>
  <course>247.96</course>
  <speed>0.022360679774997897</speed>
  <fix>3d</fix>
</trkpt>
<trkpt lat="40.0713749" lon="-105.229789">
  <ele>1583.0</ele>
  <time>2026-08-28T17:49:01Z</time>
  <course>0.0</course>
  <speed>0.0</speed>
  <fix>3d</fix>
</trkpt>
<trkpt lat="40.0713749" lon="-105.229789">
  <ele>1583.0</ele>
  <time>2026-08-28T17:49:01Z</time>
  <course>247.95</course>
  <speed>0.022360679774997897</speed>
  <fix>3d</fix>
</trkpt>
<trkpt lat="40.0713749" lon="-105.229789">
  <ele>1583.0</ele>
  <time>2026-08-28T17:49:01Z</time>
  <course>0.0</course>
  <speed>0.0</speed>
  <fix>3d</fix>
</trkpt>
<trkpt lat="40.0713749" lon="-105.229789">
  <ele>1583.0</ele>
  <time>2026-08-28T17:49:01Z</time>
  <course>247.95</course>
  <speed>0.022360679774997897</speed>
  <fix>3d</fix>
</trkpt>
<trkpt lat="40.0713749" lon="-105.229789">
  <ele>1583.0</ele>
  <time>2026-08-28T17:49:01Z</time>
  <course>0.0</course>
  <speed>0.0</speed>
  <fix>3d</fix>
</trkpt>
<trkpt lat="40.0713749" lon="-105.229789">
  <ele>1583.0</ele>
  <time>2026-08-28T17:49:01Z</time>
  <course>247.95</course>
  <speed>0.022360679774997897</speed>
  <fix>3d</fix>
</trkpt>
<trkpt lat="40.0713749" lon="-105.229789">
  <ele>1583.0</ele>
  <time>2026-08-28T17:49:01Z</time>
  <course>0.0</course>
  <speed>0.0</speed>
  <fix>3d</fix>
</trkpt>
<trkpt lat="40.0713749" lon="-105.229789">
  <ele>1583.0</ele>
  <time>2026-08-28T17:49:01Z</time>
  <course>247.94</course>
  <speed>0.022360679774997897</speed>
  <fix>3d</fix>
</trkpt>
<trkpt lat="40.0713749" lon="-105.229789">
  <ele>1583.0</ele>
  <time>2026-08-28T17:49:01Z</time>
  <course>0.0</course>
  <speed>0.0</speed>
  <fix>3d</fix>
</trkpt>
<trkpt lat="40.0713749" lon="-105.229789">
  <ele>1583.0</ele>
  <time>2026-08-28T17:49:01Z</time>
  <course>247.94</course>
  <speed>0.022360679774997897</speed>
  <fix>3d</fix>
</trkpt>
<trkpt lat="40.0713749" lon="-105.229789">
  <ele>1583.0</ele>
  <time>2026-08-28T17:49:01Z</time>
  <course>0.0</course>
  <speed>0.0</speed>
  <fix>3d</fix>
</trkpt>
<trkpt lat="40.0713749" lon="-105.229789">
  <ele>1583.0</ele>
  <time>2026-08-28T17:49:01Z</time>
  <course>247.93</course>
  <speed>0.022360679774997897</speed>
  <fix>3d</fix>
</trkpt>
<trkpt lat="40.0713749" lon="-105.229789">
  <ele>1583.0</ele>
  <time>2026-08-28T17:49:01Z</time>
  <course>0.0</course>
  <speed>0.0</speed>
  <fix>3d</fix>
</trkpt>
<trkpt lat="40.0713749" lon="-105.229789">
  <ele>1583.0</ele>
  <time>2026-08-28T17:49:01Z</time>
  <course>247.93</course>
  <speed>0.022360679774997897</speed>
  <fix>3d</fix>
</trkpt>
<trkpt lat="40.0713749" lon="-105.229789">
  <ele>1583.0</ele>
  <time>2026-08-28T17:49:01Z</time>
  <course>0.0</course>
  <speed>0.0</speed>
  <fix>3d</fix>
</trkpt>
<trkpt lat="40.0713749" lon="-105.229789">
  <ele>1583.0</ele>
  <time>2026-08-28T17:49:01Z</time>
  <course>247.92</course>
  <speed>0.022360679774997897</speed>
  <fix>3d</fix>
</trkpt>
<trkpt lat="40.0713749" lon="-105.229789">
  <ele>1583.0</ele>
  <time>2026-08-28T17:49:01Z</time>
  <course>0.0</course>
  <speed>0.0</speed>
  <fix>3d</fix>
</trkpt>
<trkpt lat="40.0713749" lon="-105.229789">
  <ele>1583.0</ele>
  <time>2026-08-28T17:49:01Z</time>
  <course>247.92</course>
  <speed>0.022360679774997897</speed>
  <fix>3d</fix>
</trkpt>
<trkpt lat="40.0713749" lon="-105.229789">
  <ele>1583.0</ele>
  <time>2026-08-28T17:49:01Z</time>
  <course>0.0</course>
  <speed>0.0</speed>
  <fix>3d</fix>
</trkpt>
<trkpt lat="40.0713749" lon="-105.229789">
  <ele>1583.0</ele>
  <time>2026-08-28T17:49:01Z</time>
  <course>247.92</course>
  <speed>0.022360679774997897</speed>
  <fix>3d</fix>
</trkpt>
<trkpt lat="40.0713749" lon="-105.229789">
  <ele>1583.0</ele>
  <time>2026-08-28T17:49:01Z</time>
  <course>0.0</course>
  <speed>0.0</speed>
  <fix>3d</fix>
</trkpt>
<trkpt lat="40.0713749" lon="-105.229789">
  <ele>1583.0</ele>
  <time>2026-08-28T17:49:01Z</time>
  <course>247.91</course>
  <speed>0.022360679774997897</speed>
  <fix>3d</fix>
</trkpt>
<trkpt lat="40.0713749" lon="-105.229789">
  <ele>1583.0</ele>
  <time>2026-08-28T17:49:01Z</time>
  <course>0.0</course>
  <speed>0.0</speed>
  <fix>3d</fix>
</trkpt>
<trkpt lat="40.0713749" lon="-105.229789">
  <ele>1583.0</ele>
  <time>2026-08-28T17:49:01Z</time>
  <course>247.91</course>
  <speed>0.022360679774997897</speed>
  <fix>3d</fix>
</trkpt>
<trkpt lat="40.0713749" lon="-105.229789">
  <ele>1583.0</ele>
  <time>2026-08-28T17:49:01Z</time>
  <course>0.0</course>
  <speed>0.0</speed>
  <fix>3d</fix>
</trkpt>
<trkpt lat="40.0713749" lon="-105.229789">
  <ele>1583.0</ele>
  <time>2026-08-28T17:49:01Z</time>
  <course>247.9</course>
  <speed>0.022360679774997897</speed>
  <fix>3d</fix>
</trkpt>
<trkpt lat="40.0713749" lon="-105.229789">
  <ele>1583.0</ele>
  <time>2026-08-28T17:49:01Z</time>
  <course>0.0</course>
  <speed>0.0</speed>
  <fix>3d</fix>
</trkpt>
<trkpt lat="40.0713749" lon="-105.229789">
  <ele>1583.0</ele>
  <time>2026-08-28T17:49:01Z</time>
  <course>247.9</course>
  <speed>0.022360679774997897</speed>
  <fix>3d</fix>
</trkpt>
<trkpt lat="40.0713749" lon="-105.229789">
  <ele>1583.0</ele>
  <time>2026-08-28T17:49:01Z</time>
  <course>0.0</course>
  <speed>0.0</speed>
  <fix>3d</fix>
</trkpt>
<trkpt lat="40.0713749" lon="-105.229789">
  <ele>1583.0</ele>
  <time>2026-08-28T17:49:01Z</time>
  <course>247.89</course>
  <speed>0.022360679774997897</speed>
  <fix>3d</fix>
</trkpt>
<trkpt lat="40.0713749" lon="-105.229789">
  <ele>1583.0</ele>
  <time>2026-08-28T17:49:01Z</time>
  <course>0.0</course>
  <speed>0.0</speed>
  <fix>3d</fix>
</trkpt>
<trkpt lat="40.0713749" lon="-105.229789">
  <ele>1583.0</ele>
  <time>2026-08-28T17:49:01Z</time>
  <course>247.89</course>
  <speed>0.022360679774997897</speed>
  <fix>3d</fix>
</trkpt>
<trkpt lat="40.0713749" lon="-105.229789">
  <ele>1583.0</ele>
  <time>2026-08-28T17:49:01Z</time>
  <course>0.0</course>
  <speed>0.0</speed>
  <fix>3d</fix>
</trkpt>
<trkpt lat="40.0713749" lon="-105.229789">
  <ele>1583.0</ele>
  <time>2026-08-28T17:49:01Z</time>
  <course>247.89</course>
  <speed>0.022360679774997897</speed>
  <fix>3d</fix>
</trkpt>
<trkpt lat="40.0713749" lon="-105.229789">
  <ele>1583.0</ele>
  <time>2026-08-28T17:49:01Z</time>
  <course>0.0</course>
  <speed>0.0</speed>
  <fix>3d</fix>
</trkpt>
<trkpt lat="40.0713749" lon="-105.229789">
  <ele>1583.0</ele>
  <time>2026-08-28T17:49:01Z</time>
  <course>247.88</course>
  <speed>0.0316227766016838</speed>
  <fix>3d</fix>
</trkpt>
<trkpt lat="40.0713749" lon="-105.229789">
  <ele>1583.0</ele>
  <time>2026-08-28T17:49:01Z</time>
  <course>0.0</course>
  <speed>0.0</speed>
  <fix>3d</fix>
</trkpt>
<trkpt lat="40.0713749" lon="-105.229789">
  <ele>1583.0</ele>
  <time>2026-08-28T17:49:01Z</time>
  <course>247.88</course>
  <speed>0.0316227766016838</speed>
  <fix>3d</fix>
</trkpt>
<trkpt lat="40.0713749" lon="-105.229789">
  <ele>1583.0</ele>
  <time>2026-08-28T17:49:01Z</time>
  <course>0.0</course>
  <speed>0.0</speed>
  <fix>3d</fix>
</trkpt>
<trkpt lat="40.0713749" lon="-105.229789">
  <ele>1583.0</ele>
  <time>2026-08-28T17:49:01Z</time>
  <course>247.87</course>
  <speed>0.0316227766016838</speed>
  <fix>3d</fix>
</trkpt>
<trkpt lat="40.0713749" lon="-105.229789">
  <ele>1583.0</ele>
  <time>2026-08-28T17:49:01Z</time>
  <course>0.0</course>
  <speed>0.0</speed>
  <fix>3d</fix>
</trkpt>
<trkpt lat="40.0713749" lon="-105.229789">
  <ele>1583.0</ele>
  <time>2026-08-28T17:49:01Z</time>
  <course>247.87</course>
  <speed>0.0316227766016838</speed>
  <fix>3d</fix>
</trkpt>
<trkpt lat="40.0713749" lon="-105.229789">
  <ele>1583.0</ele>
  <time>2026-08-28T17:49:01Z</time>
  <course>0.0</course>
  <speed>0.0</speed>
  <fix>3d</fix>
</trkpt>
<trkpt lat="40.0713749" lon="-105.229789">
  <ele>1583.0</ele>
  <time>2026-08-28T17:49:01Z</time>
  <course>247.87</course>
  <speed>0.0316227766016838</speed>
  <fix>3d</fix>
</trkpt>
<trkpt lat="40.0713749" lon="-105.229789">
  <ele>1583.0</ele>
  <time>2026-08-28T17:49:01Z</time>
  <course>0.0</course>
  <speed>0.0</speed>
  <fix>3d</fix>
</trkpt>
<trkpt lat="40.0713749" lon="-105.229789">
  <ele>1583.0</ele>
  <time>2026-08-28T17:49:01Z</time>
  <course>247.86</course>
  <speed>0.0316227766016838</speed>
  <fix>3d</fix>
</trkpt>
<trkpt lat="40.0713749" lon="-105.229789">
  <ele>1583.0</ele>
  <time>2026-08-28T17:49:01Z</time>
  <course>0.0</course>
  <speed>0.0</speed>
  <fix>3d</fix>
</trkpt>
<trkpt lat="40.0713749" lon="-105.229789">
  <ele>1583.0</ele>
  <time>2026-08-28T17:49:01Z</time>
  <course>247.86</course>
  <speed>0.0316227766016838</speed>
  <fix>3d</fix>
</trkpt>
<trkpt lat="40.0713749" lon="-105.229789">
  <ele>1583.0</ele>
  <time>2026-08-28T17:49:01Z</time>
  <course>0.0</course>
  <speed>0.0</speed>
  <fix>3d</fix>
</trkpt>
<trkpt lat="40.0713749" lon="-105.229789">
  <ele>1583.0</ele>
  <time>2026-08-28T17:49:01Z</time>
  <course>247.85</course>
  <speed>0.0316227766016838</speed>
  <fix>3d</fix>
</trkpt>
<trkpt lat="40.0713749" lon="-105.229789">
  <ele>1583.0</ele>
  <time>2026-08-28T17:49:01Z</time>
  <course>0.0</course>
  <speed>0.0</speed>
  <fix>3d</fix>
</trkpt>
<trkpt lat="40.0713749" lon="-105.229789">
  <ele>1583.0</ele>
  <time>2026-08-28T17:49:01Z</time>
  <course>247.85</course>
  <speed>0.0316227766016838</speed>
  <fix>3d</fix>
</trkpt>
<trkpt lat="40.0713749" lon="-105.229789">
  <ele>1583.0</ele>
  <time>2026-08-28T17:49:01Z</time>
  <course>0.0</course>
  <speed>0.0</speed>
  <fix>3d</fix>
</trkpt>
<trkpt lat="40.0713749" lon="-105.229789">
  <ele>1583.0</ele>
  <time>2026-08-28T17:49:01Z</time>
  <course>247.85</course>
  <speed>0.0316227766016838</speed>
  <fix>3d</fix>
</trkpt>
<trkpt lat="40.0713749" lon="-105.229789">
  <ele>1583.0</ele>
  <time>2026-08-28T17:49:01Z</time>
  <course>0.0</course>
  <speed>0.0</speed>
  <fix>3d</fix>
</trkpt>
<trkpt lat="40.0713749" lon="-105.229789">
  <ele>1583.0</ele>
  <time>2026-08-28T17:49:01Z</time>
  <course>247.84</course>
  <speed>0.0316227766016838</speed>
  <fix>3d</fix>
</trkpt>
<trkpt lat="40.0713749" lon="-105.229789">
  <ele>1583.0</ele>
  <time>2026-08-28T17:49:01Z</time>
  <course>0.0</course>
  <speed>0.0</speed>
  <fix>3d</fix>
</trkpt>
<trkpt lat="40.0713749" lon="-105.229789">
  <ele>1583.0</ele>
  <time>2026-08-28T17:49:01Z</time>
  <course>247.84</course>
  <speed>0.0316227766016838</speed>
  <fix>3d</fix>
</trkpt>
<trkpt lat="40.0713749" lon="-105.229789">
  <ele>1583.0</ele>
  <time>2026-08-28T17:49:01Z</time>
  <course>0.0</course>
  <speed>0.0</speed>
  <fix>3d</fix>
</trkpt>
<trkpt lat="40.0713749" lon="-105.229789">
  <ele>1583.0</ele>
  <time>2026-08-28T17:49:01Z</time>
  <course>247.83</course>
  <speed>0.0316227766016838</speed>
  <fix>3d</fix>
</trkpt>
<trkpt lat="40.0713749" lon="-105.229789">
  <ele>1583.0</ele>
  <time>2026-08-28T17:49:01Z</time>
  <course>0.0</course>
  <speed>0.0</speed>
  <fix>3d</fix>
</trkpt>
<trkpt lat="40.0713749" lon="-105.229789">
  <ele>1583.0</ele>
  <time>2026-08-28T17:49:01Z</time>
  <course>247.83</course>
  <speed>0.0316227766016838</speed>
  <fix>3d</fix>
</trkpt>
<trkpt lat="40.0713749" lon="-105.229789">
  <ele>1583.0</ele>
  <time>2026-08-28T17:49:01Z</time>
  <course>0.0</course>
  <speed>0.0</speed>
  <fix>3d</fix>
</trkpt>
<trkpt lat="40.0713749" lon="-105.229789">
  <ele>1583.0</ele>
  <time>2026-08-28T17:49:01Z</time>
  <course>247.83</course>
  <speed>0.0316227766016838</speed>
  <fix>3d</fix>
</trkpt>
<trkpt lat="40.0713749" lon="-105.229789">
  <ele>1583.0</ele>
  <time>2026-08-28T17:49:01Z</time>
  <course>0.0</course>
  <speed>0.0</speed>
  <fix>3d</fix>
</trkpt>
<trkpt lat="40.0713749" lon="-105.229789">
  <ele>1583.0</ele>
  <time>2026-08-28T17:49:01Z</time>
  <course>247.82</course>
  <speed>0.0316227766016838</speed>
  <fix>3d</fix>
</trkpt>
<trkpt lat="40.0713749" lon="-105.229789">
  <ele>1583.0</ele>
  <time>2026-08-28T17:49:01Z</time>
  <course>0.0</course>
  <speed>0.0</speed>
  <fix>3d</fix>
</trkpt>
<trkpt lat="40.0713749" lon="-105.229789">
  <ele>1583.0</ele>
  <time>2026-08-28T17:49:01Z</time>
  <course>247.82</course>
  <speed>0.0316227766016838</speed>
  <fix>3d</fix>
</trkpt>
<trkpt lat="40.0713749" lon="-105.229789">
  <ele>1583.0</ele>
  <time>2026-08-28T17:49:01Z</time>
  <course>0.0</course>
  <speed>0.0</speed>
  <fix>3d</fix>
</trkpt>
<trkpt lat="40.0713749" lon="-105.229789">
  <ele>1583.0</ele>
  <time>2026-08-28T17:49:01Z</time>
  <course>247.82</course>
  <speed>0.0316227766016838</speed>
  <fix>3d</fix>
</trkpt>
<trkpt lat="40.0713749" lon="-105.229789">
  <ele>1583.0</ele>
  <time>2026-08-28T17:49:01Z</time>
  <course>0.0</course>
  <speed>0.0</speed>
  <fix>3d</fix>
</trkpt>
<trkpt lat="40.0713749" lon="-105.229789">
  <ele>1583.0</ele>
  <time>2026-08-28T17:49:01Z</time>
  <course>247.81</course>
  <speed>0.0316227766016838</speed>
  <fix>3d</fix>
</trkpt>
<trkpt lat="40.0713749" lon="-105.229789">
  <ele>1583.0</ele>
  <time>2026-08-28T17:49:01Z</time>
  <course>0.0</course>
  <speed>0.0</speed>
  <fix>3d</fix>
</trkpt>
<trkpt lat="40.0713749" lon="-105.229789">
  <ele>1583.0</ele>
  <time>2026-08-28T17:49:01Z</time>
  <course>247.81</course>
  <speed>0.0316227766016838</speed>
  <fix>3d</fix>
</trkpt>
<trkpt lat="40.0713749" lon="-105.229789">
  <ele>1583.0</ele>
  <time>2026-08-28T17:49:01Z</time>
  <course>0.0</course>
  <speed>0.0</speed>
  <fix>3d</fix>
</trkpt>
<trkpt lat="40.0713749" lon="-105.229789">
  <ele>1583.0</ele>
  <time>2026-08-28T17:49:01Z</time>
  <course>247.8</course>
  <speed>0.0316227766016838</speed>
  <fix>3d</fix>
</trkpt>
<trkpt lat="40.0713749" lon="-105.229789">
  <ele>1583.0</ele>
  <time>2026-08-28T17:49:01Z</time>
  <course>0.0</course>
  <speed>0.0</speed>
  <fix>3d</fix>
</trkpt>
<trkpt lat="40.0713749" lon="-105.229789">
  <ele>1583.0</ele>
  <time>2026-08-28T17:49:01Z</time>
  <course>247.8</course>
  <speed>0.0316227766016838</speed>
  <fix>3d</fix>
</trkpt>
<trkpt lat="40.0713749" lon="-105.229789">
  <ele>1583.0</ele>
  <time>2026-08-28T17:49:01Z</time>
  <course>0.0</course>
  <speed>0.0</speed>
  <fix>3d</fix>
</trkpt>
<trkpt lat="40.0713749" lon="-105.229789">
  <ele>1583.0</ele>
  <time>2026-08-28T17:49:01Z</time>
  <course>247.8</course>
  <speed>0.0316227766016838</speed>
  <fix>3d</fix>
</trkpt>
<trkpt lat="40.0713749" lon="-105.229789">
  <ele>1583.0</ele>
  <time>2026-08-28T17:49:01Z</time>
  <course>0.0</course>
  <speed>0.0</speed>
  <fix>3d</fix>
</trkpt>
<trkpt lat="40.0713749" lon="-105.229789">
  <ele>1583.0</ele>
  <time>2026-08-28T17:49:01Z</time>
  <course>247.79</course>
  <speed>0.0316227766016838</speed>
  <fix>3d</fix>
</trkpt>
<trkpt lat="40.0713749" lon="-105.229789">
  <ele>1583.0</ele>
  <time>2026-08-28T17:49:01Z</time>
  <course>0.0</course>
  <speed>0.0</speed>
  <fix>3d</fix>
</trkpt>
<trkpt lat="40.0713749" lon="-105.229789">
  <ele>1583.0</ele>
  <time>2026-08-28T17:49:01Z</time>
  <course>247.79</course>
  <speed>0.0316227766016838</speed>
  <fix>3d</fix>
</trkpt>
<trkpt lat="40.0713749" lon="-105.229789">
  <ele>1583.0</ele>
  <time>2026-08-28T17:49:01Z</time>
  <course>0.0</course>
  <speed>0.0</speed>
  <fix>3d</fix>
</trkpt>
<trkpt lat="40.0713749" lon="-105.229789">
  <ele>1583.0</ele>
  <time>2026-08-28T17:49:01Z</time>
  <course>247.79</course>
  <speed>0.0316227766016838</speed>
  <fix>3d</fix>
</trkpt>
<trkpt lat="40.0713749" lon="-105.229789">
  <ele>1583.0</ele>
  <time>2026-08-28T17:49:01Z</time>
  <course>0.0</course>
  <speed>0.0</speed>
  <fix>3d</fix>
</trkpt>
<trkpt lat="40.0713749" lon="-105.229789">
  <ele>1583.0</ele>
  <time>2026-08-28T17:49:01Z</time>
  <course>247.78</course>
  <speed>0.0316227766016838</speed>
  <fix>3d</fix>
</trkpt>
<trkpt lat="40.0713749" lon="-105.229789">
  <ele>1583.0</ele>
  <time>2026-08-28T17:49:01Z</time>
  <course>0.0</course>
  <speed>0.0</speed>
  <fix>3d</fix>
</trkpt>
<trkpt lat="40.0713749" lon="-105.229789">
  <ele>1583.0</ele>
  <time>2026-08-28T17:49:01Z</time>
  <course>247.78</course>
  <speed>0.0316227766016838</speed>
  <fix>3d</fix>
</trkpt>
<trkpt lat="40.0713749" lon="-105.229789">
  <ele>1583.0</ele>
  <time>2026-08-28T17:49:01Z</time>
  <course>0.0</course>
  <speed>0.0</speed>
  <fix>3d</fix>
</trkpt>
<trkpt lat="40.0713749" lon="-105.229789">
  <ele>1583.0</ele>
  <time>2026-08-28T17:49:01Z</time>
  <course>247.78</course>
  <speed>0.0316227766016838</speed>
  <fix>3d</fix>
</trkpt>
<trkpt lat="40.0713749" lon="-105.229789">
  <ele>1583.0</ele>
  <time>2026-08-28T17:49:01Z</time>
  <course>0.0</course>
  <speed>0.0</speed>
  <fix>3d</fix>
</trkpt>
<trkpt lat="40.0713749" lon="-105.229789">
  <ele>1583.0</ele>
  <time>2026-08-28T17:49:01Z</time>
  <course>247.77</course>
  <speed>0.0316227766016838</speed>
  <fix>3d</fix>
</trkpt>
<trkpt lat="40.0713749" lon="-105.229789">
  <ele>1583.0</ele>
  <time>2026-08-28T17:49:01Z</time>
  <course>0.0</course>
  <speed>0.0</speed>
  <fix>3d</fix>
</trkpt>
<trkpt lat="40.0713749" lon="-105.229789">
  <ele>1583.0</ele>
  <time>2026-08-28T17:49:01Z</time>
  <course>247.77</course>
  <speed>0.0316227766016838</speed>
  <fix>3d</fix>
</trkpt>
<trkpt lat="40.0713749" lon="-105.229789">
  <ele>1583.0</ele>
  <time>2026-08-28T17:49:01Z</time>
  <course>0.0</course>
  <speed>0.0</speed>
  <fix>3d</fix>
</trkpt>
<trkpt lat="40.0713749" lon="-105.229789">
  <ele>1583.0</ele>
  <time>2026-08-28T17:49:01Z</time>
  <course>247.76</course>
  <speed>0.0316227766016838</speed>
  <fix>3d</fix>
</trkpt>
<trkpt lat="40.0713749" lon="-105.229789">
  <ele>1583.0</ele>
  <time>2026-08-28T17:49:01Z</time>
  <course>0.0</course>
  <speed>0.0</speed>
  <fix>3d</fix>
</trkpt>
<trkpt lat="40.0713749" lon="-105.229789">
  <ele>1583.0</ele>
  <time>2026-08-28T17:49:01Z</time>
  <course>247.76</course>
  <speed>0.0316227766016838</speed>
  <fix>3d</fix>
</trkpt>
<trkpt lat="40.0713749" lon="-105.229789">
  <ele>1583.0</ele>
  <time>2026-08-28T17:49:01Z</time>
  <course>0.0</course>
  <speed>0.0</speed>
  <fix>3d</fix>
</trkpt>
<trkpt lat="40.0713749" lon="-105.229789">
  <ele>1583.0</ele>
  <time>2026-08-28T17:49:01Z</time>
  <course>247.76</course>
  <speed>0.0316227766016838</speed>
  <fix>3d</fix>
</trkpt>
<trkpt lat="40.0713749" lon="-105.229789">
  <ele>1583.0</ele>
  <time>2026-08-28T17:49:01Z</time>
  <course>0.0</course>
  <speed>0.0</speed>
  <fix>3d</fix>
</trkpt>
<trkpt lat="40.0713749" lon="-105.229789">
  <ele>1583.0</ele>
  <time>2026-08-28T17:49:01Z</time>
  <course>247.75</course>
  <speed>0.0316227766016838</speed>
  <fix>3d</fix>
</trkpt>
<trkpt lat="40.0713749" lon="-105.229789">
  <ele>1583.0</ele>
  <time>2026-08-28T17:49:01Z</time>
  <course>0.0</course>
  <speed>0.0</speed>
  <fix>3d</fix>
</trkpt>
<trkpt lat="40.0713749" lon="-105.229789">
  <ele>1583.0</ele>
  <time>2026-08-28T17:49:01Z</time>
  <course>247.75</course>
  <speed>0.0316227766016838</speed>
  <fix>3d</fix>
</trkpt>
<trkpt lat="40.0713749" lon="-105.229789">
  <ele>1583.0</ele>
  <time>2026-08-28T17:49:01Z</time>
  <course>0.0</course>
  <speed>0.0</speed>
  <fix>3d</fix>
</trkpt>
<trkpt lat="40.0713749" lon="-105.229789">
  <ele>1583.0</ele>
  <time>2026-08-28T17:49:01Z</time>
  <course>247.75</course>
  <speed>0.0316227766016838</speed>
  <fix>3d</fix>
</trkpt>
<trkpt lat="40.0713749" lon="-105.229789">
  <ele>1583.0</ele>
  <time>2026-08-28T17:49:01Z</time>
  <course>0.0</course>
  <speed>0.0</speed>
  <fix>3d</fix>
</trkpt>
<trkpt lat="40.0713749" lon="-105.229789">
  <ele>1583.0</ele>
  <time>2026-08-28T17:49:01Z</time>
  <course>247.74</course>
  <speed>0.0316227766016838</speed>
  <fix>3d</fix>
</trkpt>
<trkpt lat="40.0713749" lon="-105.229789">
  <ele>1583.0</ele>
  <time>2026-08-28T17:49:01Z</time>
  <course>0.0</course>
  <speed>0.0</speed>
  <fix>3d</fix>
</trkpt>
<trkpt lat="40.0713749" lon="-105.229789">
  <ele>1583.0</ele>
  <time>2026-08-28T17:49:01Z</time>
  <course>247.74</course>
  <speed>0.0316227766016838</speed>
  <fix>3d</fix>
</trkpt>
<trkpt lat="40.0713749" lon="-105.229789">
  <ele>1583.0</ele>
  <time>2026-08-28T17:49:01Z</time>
  <course>0.0</course>
  <speed>0.0</speed>
  <fix>3d</fix>
</trkpt>
<trkpt lat="40.0713749" lon="-105.229789">
  <ele>1583.0</ele>
  <time>2026-08-28T17:49:01Z</time>
  <course>247.74</course>
  <speed>0.0316227766016838</speed>
  <fix>3d</fix>
</trkpt>
<trkpt lat="40.0713749" lon="-105.229789">
  <ele>1583.0</ele>
  <time>2026-08-28T17:49:01Z</time>
  <course>0.0</course>
  <speed>0.0</speed>
  <fix>3d</fix>
</trkpt>
<trkpt lat="40.0713749" lon="-105.229789">
  <ele>1583.0</ele>
  <time>2026-08-28T17:49:01Z</time>
  <course>247.73</course>
  <speed>0.0316227766016838</speed>
  <fix>3d</fix>
</trkpt>
<trkpt lat="40.0713749" lon="-105.229789">
  <ele>1583.0</ele>
  <time>2026-08-28T17:49:01Z</time>
  <course>0.0</course>
  <speed>0.0</speed>
  <fix>3d</fix>
</trkpt>
<trkpt lat="40.0713749" lon="-105.229789">
  <ele>1583.0</ele>
  <time>2026-08-28T17:49:01Z</time>
  <course>247.73</course>
  <speed>0.0316227766016838</speed>
  <fix>3d</fix>
</trkpt>
<trkpt lat="40.0713749" lon="-105.229789">
  <ele>1583.0</ele>
  <time>2026-08-28T17:49:01Z</time>
  <course>0.0</course>
  <speed>0.0</speed>
  <fix>3d</fix>
</trkpt>
<trkpt lat="40.0713749" lon="-105.229789">
  <ele>1583.0</ele>
  <time>2026-08-28T17:49:01Z</time>
  <course>247.73</course>
  <speed>0.0316227766016838</speed>
  <fix>3d</fix>
</trkpt>
<trkpt lat="40.0713749" lon="-105.229789">
  <ele>1583.0</ele>
  <time>2026-08-28T17:49:01Z</time>
  <course>0.0</course>
  <speed>0.0</speed>
  <fix>3d</fix>
</trkpt>
<trkpt lat="40.0713749" lon="-105.229789">
  <ele>1583.0</ele>
  <time>2026-08-28T17:49:01Z</time>
  <course>247.72</course>
  <speed>0.0316227766016838</speed>
  <fix>3d</fix>
</trkpt>
<trkpt lat="40.0713749" lon="-105.229789">
  <ele>1583.0</ele>
  <time>2026-08-28T17:49:01Z</time>
  <course>0.0</course>
  <speed>0.0</speed>
  <fix>3d</fix>
</trkpt>
<trkpt lat="40.0713749" lon="-105.229789">
  <ele>1583.0</ele>
  <time>2026-08-28T17:49:01Z</time>
  <course>247.72</course>
  <speed>0.0316227766016838</speed>
  <fix>3d</fix>
</trkpt>
<trkpt lat="40.0713749" lon="-105.229789">
  <ele>1583.0</ele>
  <time>2026-08-28T17:49:01Z</time>
  <course>0.0</course>
  <speed>0.0</speed>
  <fix>3d</fix>
</trkpt>
<trkpt lat="40.0713749" lon="-105.229789">
  <ele>1583.0</ele>
  <time>2026-08-28T17:49:01Z</time>
  <course>247.72</course>
  <speed>0.0316227766016838</speed>
  <fix>3d</fix>
</trkpt>
<trkpt lat="40.0713749" lon="-105.229789">
  <ele>1583.0</ele>
  <time>2026-08-28T17:49:01Z</time>
  <course>0.0</course>
  <speed>0.0</speed>
  <fix>3d</fix>
</trkpt>
<trkpt lat="40.0713749" lon="-105.229789">
  <ele>1583.0</ele>
  <time>2026-08-28T17:49:01Z</time>
  <course>247.71</course>
  <speed>0.0316227766016838</speed>
  <fix>3d</fix>
</trkpt>
<trkpt lat="40.0713749" lon="-105.229789">
  <ele>1583.0</ele>
  <time>2026-08-28T17:49:01Z</time>
  <course>0.0</course>
  <speed>0.0</speed>
  <fix>3d</fix>
</trkpt>
<trkpt lat="40.0713749" lon="-105.229789">
  <ele>1583.0</ele>
  <time>2026-08-28T17:49:01Z</time>
  <course>247.71</course>
  <speed>0.0316227766016838</speed>
  <fix>3d</fix>
</trkpt>
<trkpt lat="40.0713749" lon="-105.229789">
  <ele>1583.0</ele>
  <time>2026-08-28T17:49:01Z</time>
  <course>0.0</course>
  <speed>0.0</speed>
  <fix>3d</fix>
</trkpt>
<trkpt lat="40.0713749" lon="-105.229789">
  <ele>1583.0</ele>
  <time>2026-08-28T17:49:01Z</time>
  <course>247.71</course>
  <speed>0.0316227766016838</speed>
  <fix>3d</fix>
</trkpt>
<trkpt lat="40.0713749" lon="-105.229789">
  <ele>1583.0</ele>
  <time>2026-08-28T17:49:01Z</time>
  <course>0.0</course>
  <speed>0.0</speed>
  <fix>3d</fix>
</trkpt>
<trkpt lat="40.0713749" lon="-105.229789">
  <ele>1583.0</ele>
  <time>2026-08-28T17:49:01Z</time>
  <course>247.7</course>
  <speed>0.0316227766016838</speed>
  <fix>3d</fix>
</trkpt>
<trkpt lat="40.0713749" lon="-105.229789">
  <ele>1583.0</ele>
  <time>2026-08-28T17:49:01Z</time>
  <course>0.0</course>
  <speed>0.0</speed>
  <fix>3d</fix>
</trkpt>
<trkpt lat="40.0713749" lon="-105.229789">
  <ele>1583.0</ele>
  <time>2026-08-28T17:49:01Z</time>
  <course>247.7</course>
  <speed>0.0316227766016838</speed>
  <fix>3d</fix>
</trkpt>
<trkpt lat="40.0713749" lon="-105.229789">
  <ele>1583.0</ele>
  <time>2026-08-28T17:49:01Z</time>
  <course>0.0</course>
  <speed>0.0</speed>
  <fix>3d</fix>
</trkpt>
<trkpt lat="40.0713749" lon="-105.229789">
  <ele>1583.0</ele>
  <time>2026-08-28T17:49:01Z</time>
  <course>247.7</course>
  <speed>0.0316227766016838</speed>
  <fix>3d</fix>
</trkpt>
<trkpt lat="40.0713749" lon="-105.229789">
  <ele>1583.0</ele>
  <time>2026-08-28T17:49:01Z</time>
  <course>0.0</course>
  <speed>0.0</speed>
  <fix>3d</fix>
</trkpt>
<trkpt lat="40.0713749" lon="-105.229789">
  <ele>1583.0</ele>
  <time>2026-08-28T17:49:01Z</time>
  <course>247.69</course>
  <speed>0.0316227766016838</speed>
  <fix>3d</fix>
</trkpt>
<trkpt lat="40.0713749" lon="-105.229789">
  <ele>1583.0</ele>
  <time>2026-08-28T17:49:01Z</time>
  <course>0.0</course>
  <speed>0.0</speed>
  <fix>3d</fix>
</trkpt>
<trkpt lat="40.0713749" lon="-105.229789">
  <ele>1583.0</ele>
  <time>2026-08-28T17:49:01Z</time>
  <course>247.69</course>
  <speed>0.0316227766016838</speed>
  <fix>3d</fix>
</trkpt>
<trkpt lat="40.0713749" lon="-105.229789">
  <ele>1583.0</ele>
  <time>2026-08-28T17:49:01Z</time>
  <course>0.0</course>
  <speed>0.0</speed>
  <fix>3d</fix>
</trkpt>
<trkpt lat="40.0713749" lon="-105.229789">
  <ele>1583.0</ele>
  <time>2026-08-28T17:49:01Z</time>
  <course>247.69</course>
  <speed>0.0316227766016838</speed>
  <fix>3d</fix>
</trkpt>
<trkpt lat="40.0713749" lon="-105.229789">
  <ele>1583.0</ele>
  <time>2026-08-28T17:49:01Z</time>
  <course>0.0</course>
  <speed>0.0</speed>
  <fix>3d</fix>
</trkpt>
<trkpt lat="40.0713749" lon="-105.229789">
  <ele>1583.0</ele>
  <time>2026-08-28T17:49:01Z</time>
  <course>247.68</course>
  <speed>0.0316227766016838</speed>
  <fix>3d</fix>
</trkpt>
<trkpt lat="40.0713749" lon="-105.229789">
  <ele>1583.0</ele>
  <time>2026-08-28T17:49:01Z</time>
  <course>0.0</course>
  <speed>0.0</speed>
  <fix>3d</fix>
</trkpt>
<trkpt lat="40.0713749" lon="-105.229789">
  <ele>1583.0</ele>
  <time>2026-08-28T17:49:01Z</time>
  <course>247.68</course>
  <speed>0.0316227766016838</speed>
  <fix>3d</fix>
</trkpt>
<trkpt lat="40.0713749" lon="-105.229789">
  <ele>1583.0</ele>
  <time>2026-08-28T17:49:01Z</time>
  <course>0.0</course>
  <speed>0.0</speed>
  <fix>3d</fix>
</trkpt>
<trkpt lat="40.0713749" lon="-105.229789">
  <ele>1583.0</ele>
  <time>2026-08-28T17:49:01Z</time>
  <course>247.68</course>
  <speed>0.0316227766016838</speed>
  <fix>3d</fix>
</trkpt>
<trkpt lat="40.0713749" lon="-105.229789">
  <ele>1583.0</ele>
  <time>2026-08-28T17:49:01Z</time>
  <course>0.0</course>
  <speed>0.0</speed>
  <fix>3d</fix>
</trkpt>
<trkpt lat="40.0713749" lon="-105.229789">
  <ele>1583.0</ele>
  <time>2026-08-28T17:49:01Z</time>
  <course>247.67</course>
  <speed>0.0316227766016838</speed>
  <fix>3d</fix>
</trkpt>
<trkpt lat="40.0713749" lon="-105.229789">
  <ele>1583.0</ele>
  <time>2026-08-28T17:49:01Z</time>
  <course>0.0</course>
  <speed>0.0</speed>
  <fix>3d</fix>
</trkpt>
<trkpt lat="40.0713749" lon="-105.229789">
  <ele>1583.0</ele>
  <time>2026-08-28T17:49:01Z</time>
  <course>247.67</course>
  <speed>0.0316227766016838</speed>
  <fix>3d</fix>
</trkpt>
<trkpt lat="40.0713749" lon="-105.229789">
  <ele>1583.0</ele>
  <time>2026-08-28T17:49:01Z</time>
  <course>0.0</course>
  <speed>0.0</speed>
  <fix>3d</fix>
</trkpt>
<trkpt lat="40.0713749" lon="-105.229789">
  <ele>1583.0</ele>
  <time>2026-08-28T17:49:01Z</time>
  <course>247.67</course>
  <speed>0.0316227766016838</speed>
  <fix>3d</fix>
</trkpt>
<trkpt lat="40.0713749" lon="-105.229789">
  <ele>1583.0</ele>
  <time>2026-08-28T17:49:01Z</time>
  <course>0.0</course>
  <speed>0.0</speed>
  <fix>3d</fix>
</trkpt>
<trkpt lat="40.0713749" lon="-105.229789">
  <ele>1583.0</ele>
  <time>2026-08-28T17:49:01Z</time>
  <course>247.66</course>
  <speed>0.0316227766016838</speed>
  <fix>3d</fix>
</trkpt>
<trkpt lat="40.0713749" lon="-105.229789">
  <ele>1583.0</ele>
  <time>2026-08-28T17:49:01Z</time>
  <course>0.0</course>
  <speed>0.0</speed>
  <fix>3d</fix>
</trkpt>
<trkpt lat="40.0713749" lon="-105.229789">
  <ele>1583.0</ele>
  <time>2026-08-28T17:49:01Z</time>
  <course>247.66</course>
  <speed>0.0316227766016838</speed>
  <fix>3d</fix>
</trkpt>
<trkpt lat="40.0713749" lon="-105.229789">
  <ele>1583.0</ele>
  <time>2026-08-28T17:49:01Z</time>
  <course>0.0</course>
  <speed>0.0</speed>
  <fix>3d</fix>
</trkpt>
<trkpt lat="40.0713749" lon="-105.229789">
  <ele>1583.0</ele>
  <time>2026-08-28T17:49:01Z</time>
  <course>247.66</course>
  <speed>0.0316227766016838</speed>
  <fix>3d</fix>
</trkpt>
<trkpt lat="40.0713749" lon="-105.229789">
  <ele>1583.0</ele>
  <time>2026-08-28T17:49:01Z</time>
  <course>0.0</course>
  <speed>0.0</speed>
  <fix>3d</fix>
</trkpt>
<trkpt lat="40.0713749" lon="-105.229789">
  <ele>1583.0</ele>
  <time>2026-08-28T17:49:01Z</time>
  <course>247.65</course>
  <speed>0.0316227766016838</speed>
  <fix>3d</fix>
</trkpt>
<trkpt lat="40.0713749" lon="-105.229789">
  <ele>1583.0</ele>
  <time>2026-08-28T17:49:01Z</time>
  <course>0.0</course>
  <speed>0.0</speed>
  <fix>3d</fix>
</trkpt>
<trkpt lat="40.0713749" lon="-105.229789">
  <ele>1583.0</ele>
  <time>2026-08-28T17:49:01Z</time>
  <course>247.65</course>
  <speed>0.0316227766016838</speed>
  <fix>3d</fix>
</trkpt>
<trkpt lat="40.0713749" lon="-105.229789">
  <ele>1583.0</ele>
  <time>2026-08-28T17:49:01Z</time>
  <course>0.0</course>
  <speed>0.0</speed>
  <fix>3d</fix>
</trkpt>
<trkpt lat="40.0713749" lon="-105.229789">
  <ele>1583.0</ele>
  <time>2026-08-28T17:49:01Z</time>
  <course>247.65</course>
  <speed>0.0316227766016838</speed>
  <fix>3d</fix>
</trkpt>
<trkpt lat="40.0713749" lon="-105.229789">
  <ele>1583.0</ele>
  <time>2026-08-28T17:49:01Z</time>
  <course>0.0</course>
  <speed>0.0</speed>
  <fix>3d</fix>
</trkpt>
<trkpt lat="40.0713749" lon="-105.229789">
  <ele>1583.0</ele>
  <time>2026-08-28T17:49:01Z</time>
  <course>247.64</course>
  <speed>0.0316227766016838</speed>
  <fix>3d</fix>
</trkpt>
<trkpt lat="40.0713749" lon="-105.229789">
  <ele>1583.0</ele>
  <time>2026-08-28T17:49:01Z</time>
  <course>0.0</course>
  <speed>0.0</speed>
  <fix>3d</fix>
</trkpt>
<trkpt lat="40.0713749" lon="-105.229789">
  <ele>1583.0</ele>
  <time>2026-08-28T17:49:01Z</time>
  <course>247.64</course>
  <speed>0.0316227766016838</speed>
  <fix>3d</fix>
</trkpt>
<trkpt lat="40.0713749" lon="-105.229789">
  <ele>1583.0</ele>
  <time>2026-08-28T17:49:01Z</time>
  <course>0.0</course>
  <speed>0.0</speed>
  <fix>3d</fix>
</trkpt>
<trkpt lat="40.0713749" lon="-105.229789">
  <ele>1583.0</ele>
  <time>2026-08-28T17:49:01Z</time>
  <course>247.64</course>
  <speed>0.0316227766016838</speed>
  <fix>3d</fix>
</trkpt>
<trkpt lat="40.0713749" lon="-105.229789">
  <ele>1583.0</ele>
  <time>2026-08-28T17:49:01Z</time>
  <course>0.0</course>
  <speed>0.0</speed>
  <fix>3d</fix>
</trkpt>
<trkpt lat="40.0713749" lon="-105.229789">
  <ele>1583.0</ele>
  <time>2026-08-28T17:49:01Z</time>
  <course>247.64</course>
  <speed>0.0316227766016838</speed>
  <fix>3d</fix>
</trkpt>
<trkpt lat="40.0713749" lon="-105.229789">
  <ele>1583.0</ele>
  <time>2026-08-28T17:49:01Z</time>
  <course>0.0</course>
  <speed>0.0</speed>
  <fix>3d</fix>
</trkpt>
<trkpt lat="40.0713749" lon="-105.229789">
  <ele>1583.0</ele>
  <time>2026-08-28T17:49:01Z</time>
  <course>247.63</course>
  <speed>0.0316227766016838</speed>
  <fix>3d</fix>
</trkpt>
<trkpt lat="40.0713749" lon="-105.229789">
  <ele>1583.0</ele>
  <time>2026-08-28T17:49:01Z</time>
  <course>0.0</course>
  <speed>0.0</speed>
  <fix>3d</fix>
</trkpt>
<trkpt lat="40.0713749" lon="-105.229789">
  <ele>1583.0</ele>
  <time>2026-08-28T17:49:01Z</time>
  <course>247.63</course>
  <speed>0.0316227766016838</speed>
  <fix>3d</fix>
</trkpt>
<trkpt lat="40.0713749" lon="-105.229789">
  <ele>1583.0</ele>
  <time>2026-08-28T17:49:01Z</time>
  <course>0.0</course>
  <speed>0.0</speed>
  <fix>3d</fix>
</trkpt>
<trkpt lat="40.0713749" lon="-105.229789">
  <ele>1583.0</ele>
  <time>2026-08-28T17:49:01Z</time>
  <course>247.63</course>
  <speed>0.0316227766016838</speed>
  <fix>3d</fix>
</trkpt>
<trkpt lat="40.0713749" lon="-105.229789">
  <ele>1583.0</ele>
  <time>2026-08-28T17:49:01Z</time>
  <course>0.0</course>
  <speed>0.0</speed>
  <fix>3d</fix>
</trkpt>
<trkpt lat="40.0713749" lon="-105.229789">
  <ele>1583.0</ele>
  <time>2026-08-28T17:49:01Z</time>
  <course>247.62</course>
  <speed>0.0316227766016838</speed>
  <fix>3d</fix>
</trkpt>
<trkpt lat="40.0713749" lon="-105.229789">
  <ele>1583.0</ele>
  <time>2026-08-28T17:49:01Z</time>
  <course>0.0</course>
  <speed>0.0</speed>
  <fix>3d</fix>
</trkpt>
<trkpt lat="40.0713749" lon="-105.229789">
  <ele>1583.0</ele>
  <time>2026-08-28T17:49:01Z</time>
  <course>247.62</course>
  <speed>0.0316227766016838</speed>
  <fix>3d</fix>
</trkpt>
<trkpt lat="40.0713749" lon="-105.229789">
  <ele>1583.0</ele>
  <time>2026-08-28T17:49:01Z</time>
  <course>0.0</course>
  <speed>0.0</speed>
  <fix>3d</fix>
</trkpt>
<trkpt lat="40.0713749" lon="-105.229789">
  <ele>1583.0</ele>
  <time>2026-08-28T17:49:01Z</time>
  <course>247.62</course>
  <speed>0.0316227766016838</speed>
  <fix>3d</fix>
</trkpt>
<trkpt lat="40.0713749" lon="-105.229789">
  <ele>1583.0</ele>
  <time>2026-08-28T17:49:01Z</time>
  <course>0.0</course>
  <speed>0.0</speed>
  <fix>3d</fix>
</trkpt>
<trkpt lat="40.0713749" lon="-105.229789">
  <ele>1583.0</ele>
  <time>2026-08-28T17:49:01Z</time>
  <course>247.62</course>
  <speed>0.0316227766016838</speed>
  <fix>3d</fix>
</trkpt>
<trkpt lat="40.0713749" lon="-105.229789">
  <ele>1583.0</ele>
  <time>2026-08-28T17:49:01Z</time>
  <course>0.0</course>
  <speed>0.0</speed>
  <fix>3d</fix>
</trkpt>
<trkpt lat="40.0713749" lon="-105.229789">
  <ele>1583.0</ele>
  <time>2026-08-28T17:49:01Z</time>
  <course>247.61</course>
  <speed>0.0316227766016838</speed>
  <fix>3d</fix>
</trkpt>
<trkpt lat="40.0713749" lon="-105.229789">
  <ele>1583.0</ele>
  <time>2026-08-28T17:49:01Z</time>
  <course>0.0</course>
  <speed>0.0</speed>
  <fix>3d</fix>
</trkpt>
<trkpt lat="40.0713749" lon="-105.229789">
  <ele>1583.0</ele>
  <time>2026-08-28T17:49:01Z</time>
  <course>247.61</course>
  <speed>0.0316227766016838</speed>
  <fix>3d</fix>
</trkpt>
<trkpt lat="40.0713749" lon="-105.229789">
  <ele>1583.0</ele>
  <time>2026-08-28T17:49:01Z</time>
  <course>0.0</course>
  <speed>0.0</speed>
  <fix>3d</fix>
</trkpt>
<trkpt lat="40.0713749" lon="-105.229789">
  <ele>1583.0</ele>
  <time>2026-08-28T17:49:01Z</time>
  <course>247.61</course>
  <speed>0.0316227766016838</speed>
  <fix>3d</fix>
</trkpt>
<trkpt lat="40.0713749" lon="-105.229789">
  <ele>1583.0</ele>
  <time>2026-08-28T17:49:01Z</time>
  <course>0.0</course>
  <speed>0.0</speed>
  <fix>3d</fix>
</trkpt>
<trkpt lat="40.0713749" lon="-105.229789">
  <ele>1583.0</ele>
  <time>2026-08-28T17:49:01Z</time>
  <course>247.6</course>
  <speed>0.0316227766016838</speed>
  <fix>3d</fix>
</trkpt>
<trkpt lat="40.0713749" lon="-105.229789">
  <ele>1583.0</ele>
  <time>2026-08-28T17:49:01Z</time>
  <course>0.0</course>
  <speed>0.0</speed>
  <fix>3d</fix>
</trkpt>
<trkpt lat="40.0713749" lon="-105.229789">
  <ele>1583.0</ele>
  <time>2026-08-28T17:49:01Z</time>
  <course>247.6</course>
  <speed>0.0316227766016838</speed>
  <fix>3d</fix>
</trkpt>
<trkpt lat="40.0713749" lon="-105.229789">
  <ele>1583.0</ele>
  <time>2026-08-28T17:49:01Z</time>
  <course>0.0</course>
  <speed>0.0</speed>
  <fix>3d</fix>
</trkpt>
<trkpt lat="40.0713749" lon="-105.229789">
  <ele>1583.0</ele>
  <time>2026-08-28T17:49:01Z</time>
  <course>247.6</course>
  <speed>0.0316227766016838</speed>
  <fix>3d</fix>
</trkpt>
<trkpt lat="40.0713749" lon="-105.229789">
  <ele>1583.0</ele>
  <time>2026-08-28T17:49:01Z</time>
  <course>0.0</course>
  <speed>0.0</speed>
  <fix>3d</fix>
</trkpt>
<trkpt lat="40.0713749" lon="-105.229789">
  <ele>1583.0</ele>
  <time>2026-08-28T17:49:01Z</time>
  <course>247.6</course>
  <speed>0.0316227766016838</speed>
  <fix>3d</fix>
</trkpt>
<trkpt lat="40.0713749" lon="-105.229789">
  <ele>1583.0</ele>
  <time>2026-08-28T17:49:01Z</time>
  <course>0.0</course>
  <speed>0.0</speed>
  <fix>3d</fix>
</trkpt>
<trkpt lat="40.0713749" lon="-105.229789">
  <ele>1583.0</ele>
  <time>2026-08-28T17:49:01Z</time>
  <course>247.59</course>
  <speed>0.0316227766016838</speed>
  <fix>3d</fix>
</trkpt>
<trkpt lat="40.0713749" lon="-105.229789">
  <ele>1583.0</ele>
  <time>2026-08-28T17:49:01Z</time>
  <course>0.0</course>
  <speed>0.0</speed>
  <fix>3d</fix>
</trkpt>
<trkpt lat="40.0713749" lon="-105.229789">
  <ele>1582.92</ele>
  <time>2026-08-28T17:49:01Z</time>
  <course>247.59</course>
  <speed>0.0</speed>
  <fix>3d</fix>
</trkpt>
<trkpt lat="40.0713749" lon="-105.229789">
  <ele>1583.0</ele>
  <time>2026-08-28T17:49:01Z</time>
  <course>0.0</course>
  <speed>0.0</speed>
  <fix>3d</fix>
</trkpt>
<trkpt lat="40.0713749" lon="-105.229789">
  <ele>1582.92</ele>
  <time>2026-08-28T17:49:01Z</time>
  <course>247.59</course>
  <speed>0.0</speed>
  <fix>3d</fix>
</trkpt>
<trkpt lat="40.0713749" lon="-105.229789">
  <ele>1583.0</ele>
  <time>2026-08-28T17:49:01Z</time>
  <course>0.0</course>
  <speed>0.0</speed>
  <fix>3d</fix>
</trkpt>
<trkpt lat="40.0713749" lon="-105.229789">
  <ele>1582.91</ele>
  <time>2026-08-28T17:49:01Z</time>
  <course>247.58</course>
  <speed>0.0</speed>
  <fix>3d</fix>
</trkpt>
<trkpt lat="40.0713749" lon="-105.229789">
  <ele>1583.0</ele>
  <time>2026-08-28T17:49:01Z</time>
  <course>0.0</course>
  <speed>0.0</speed>
  <fix>3d</fix>
</trkpt>
<trkpt lat="40.0713749" lon="-105.229789">
  <ele>1582.91</ele>
  <time>2026-08-28T17:49:01Z</time>
  <course>247.58</course>
  <speed>0.0</speed>
  <fix>3d</fix>
</trkpt>
<trkpt lat="40.0713749" lon="-105.229789">
  <ele>1583.0</ele>
  <time>2026-08-28T17:49:01Z</time>
  <course>0.0</course>
  <speed>0.0</speed>
  <fix>3d</fix>
</trkpt>
<trkpt lat="40.0713749" lon="-105.229789">
  <ele>1582.9</ele>
  <time>2026-08-28T17:49:01Z</time>
  <course>247.58</course>
  <speed>0.0</speed>
  <fix>3d</fix>
</trkpt>
<trkpt lat="40.0713749" lon="-105.229789">
  <ele>1583.0</ele>
  <time>2026-08-28T17:49:01Z</time>
  <course>0.0</course>
  <speed>0.0</speed>
  <fix>3d</fix>
</trkpt>
<trkpt lat="40.0713749" lon="-105.229789">
  <ele>1582.9</ele>
  <time>2026-08-28T17:49:01Z</time>
  <course>247.58</course>
  <speed>0.0</speed>
  <fix>3d</fix>
</trkpt>
<trkpt lat="40.0713749" lon="-105.229789">
  <ele>1583.0</ele>
  <time>2026-08-28T17:49:01Z</time>
  <course>0.0</course>
  <speed>0.0</speed>
  <fix>3d</fix>
</trkpt>
<trkpt lat="40.0713749" lon="-105.229789">
  <ele>1582.9</ele>
  <time>2026-08-28T17:49:01Z</time>
  <course>247.57</course>
  <speed>0.0</speed>
  <fix>3d</fix>
</trkpt>
<trkpt lat="40.0713749" lon="-105.229789">
  <ele>1583.0</ele>
  <time>2026-08-28T17:49:01Z</time>
  <course>0.0</course>
  <speed>0.0</speed>
  <fix>3d</fix>
</trkpt>
<trkpt lat="40.0713749" lon="-105.229789">
  <ele>1582.9</ele>
  <time>2026-08-28T17:49:01Z</time>
  <course>247.57</course>
  <speed>0.0</speed>
  <fix>3d</fix>
</trkpt>
<trkpt lat="40.0713749" lon="-105.229789">
  <ele>1583.0</ele>
  <time>2026-08-28T17:49:01Z</time>
  <course>0.0</course>
  <speed>0.0</speed>
  <fix>3d</fix>
</trkpt>
<trkpt lat="40.0713749" lon="-105.229789">
  <ele>1582.9</ele>
  <time>2026-08-28T17:49:01Z</time>
  <course>247.57</course>
  <speed>0.0</speed>
  <fix>3d</fix>
</trkpt>
<trkpt lat="40.0713749" lon="-105.229789">
  <ele>1583.0</ele>
  <time>2026-08-28T17:49:01Z</time>
  <course>0.0</course>
  <speed>0.0</speed>
  <fix>3d</fix>
</trkpt>
<trkpt lat="40.0713749" lon="-105.229789">
  <ele>1582.9</ele>
  <time>2026-08-28T17:49:01Z</time>
  <course>247.57</course>
  <speed>0.01</speed>
  <fix>3d</fix>
</trkpt>
<trkpt lat="40.0713749" lon="-105.229789">
  <ele>1583.0</ele>
  <time>2026-08-28T17:49:01Z</time>
  <course>0.0</course>
  <speed>0.0</speed>
  <fix>3d</fix>
</trkpt>
<trkpt lat="40.0713749" lon="-105.229789">
  <ele>1582.9</ele>
  <time>2026-08-28T17:49:01Z</time>
  <course>247.56</course>
  <speed>0.01</speed>
  <fix>3d</fix>
</trkpt>
<trkpt lat="40.0713749" lon="-105.229789">
  <ele>1583.0</ele>
  <time>2026-08-28T17:49:01Z</time>
  <course>0.0</course>
  <speed>0.0</speed>
  <fix>3d</fix>
</trkpt>
<trkpt lat="40.0713749" lon="-105.229789">
  <ele>1582.91</ele>
  <time>2026-08-28T17:49:01Z</time>
  <course>247.56</course>
  <speed>0.01</speed>
  <fix>3d</fix>
</trkpt>
<trkpt lat="40.0713749" lon="-105.229789">
  <ele>1583.0</ele>
  <time>2026-08-28T17:49:01Z</time>
  <course>0.0</course>
  <speed>0.0</speed>
  <fix>3d</fix>
</trkpt>
<trkpt lat="40.0713749" lon="-105.229789">
  <ele>1582.91</ele>
  <time>2026-08-28T17:49:01Z</time>
  <course>247.56</course>
  <speed>0.01</speed>
  <fix>3d</fix>
</trkpt>
<trkpt lat="40.0713749" lon="-105.229789">
  <ele>1583.0</ele>
  <time>2026-08-28T17:49:01Z</time>
  <course>0.0</course>
  <speed>0.0</speed>
  <fix>3d</fix>
</trkpt>
<trkpt lat="40.0713749" lon="-105.229789">
  <ele>1582.92</ele>
  <time>2026-08-28T17:49:01Z</time>
  <course>247.56</course>
  <speed>0.01</speed>
  <fix>3d</fix>
</trkpt>
<trkpt lat="40.0713749" lon="-105.229789">
  <ele>1583.0</ele>
  <time>2026-08-28T17:49:01Z</time>
  <course>0.0</course>
  <speed>0.0</speed>
  <fix>3d</fix>
</trkpt>
<trkpt lat="40.0713749" lon="-105.229789">
  <ele>1582.92</ele>
  <time>2026-08-28T17:49:01Z</time>
  <course>247.55</course>
  <speed>0.01</speed>
  <fix>3d</fix>
</trkpt>
<trkpt lat="40.0713749" lon="-105.229789">
  <ele>1583.0</ele>
  <time>2026-08-28T17:49:01Z</time>
  <course>0.0</course>
  <speed>0.0</speed>
  <fix>3d</fix>
</trkpt>
<trkpt lat="40.0713749" lon="-105.229789">
  <ele>1582.92</ele>
  <time>2026-08-28T17:49:01Z</time>
  <course>247.55</course>
  <speed>0.01</speed>
  <fix>3d</fix>
</trkpt>
<trkpt lat="40.0713749" lon="-105.229789">
  <ele>1583.0</ele>
  <time>2026-08-28T17:49:01Z</time>
  <course>0.0</course>
  <speed>0.0</speed>
  <fix>3d</fix>
</trkpt>
<trkpt lat="40.0713749" lon="-105.229789">
  <ele>1582.93</ele>
  <time>2026-08-28T17:49:01Z</time>
  <course>247.55</course>
  <speed>0.01</speed>
  <fix>3d</fix>
</trkpt>
<trkpt lat="40.0713749" lon="-105.229789">
  <ele>1583.0</ele>
  <time>2026-08-28T17:49:01Z</time>
  <course>0.0</course>
  <speed>0.0</speed>
  <fix>3d</fix>
</trkpt>
<trkpt lat="40.0713749" lon="-105.229789">
  <ele>1582.93</ele>
  <time>2026-08-28T17:49:01Z</time>
  <course>247.55</course>
  <speed>0.01</speed>
  <fix>3d</fix>
</trkpt>
<trkpt lat="40.0713749" lon="-105.229789">
  <ele>1583.0</ele>
  <time>2026-08-28T17:49:01Z</time>
  <course>0.0</course>
  <speed>0.0</speed>
  <fix>3d</fix>
</trkpt>
<trkpt lat="40.0713749" lon="-105.229789">
  <ele>1582.93</ele>
  <time>2026-08-28T17:49:01Z</time>
  <course>247.54</course>
  <speed>0.02</speed>
  <fix>3d</fix>
</trkpt>
<trkpt lat="40.0713749" lon="-105.229789">
  <ele>1583.0</ele>
  <time>2026-08-28T17:49:01Z</time>
  <course>0.0</course>
  <speed>0.0</speed>
  <fix>3d</fix>
</trkpt>
<trkpt lat="40.0713749" lon="-105.229789">
  <ele>1582.93</ele>
  <time>2026-08-28T17:49:01Z</time>
  <course>247.54</course>
  <speed>0.02</speed>
  <fix>3d</fix>
</trkpt>
<trkpt lat="40.0713749" lon="-105.229789">
  <ele>1583.0</ele>
  <time>2026-08-28T17:49:01Z</time>
  <course>0.0</course>
  <speed>0.0</speed>
  <fix>3d</fix>
</trkpt>
<trkpt lat="40.0713749" lon="-105.229789">
  <ele>1582.93</ele>
  <time>2026-08-28T17:49:01Z</time>
  <course>247.54</course>
  <speed>0.02</speed>
  <fix>3d</fix>
</trkpt>
<trkpt lat="40.0713749" lon="-105.229789">
  <ele>1583.0</ele>
  <time>2026-08-28T17:49:01Z</time>
  <course>0.0</course>
  <speed>0.0</speed>
  <fix>3d</fix>
</trkpt>
<trkpt lat="40.0713749" lon="-105.229789">
  <ele>1582.93</ele>
  <time>2026-08-28T17:49:01Z</time>
  <course>247.54</course>
  <speed>0.022360679774997897</speed>
  <fix>3d</fix>
</trkpt>
<trkpt lat="40.0713749" lon="-105.229789">
  <ele>1583.0</ele>
  <time>2026-08-28T17:49:01Z</time>
  <course>0.0</course>
  <speed>0.0</speed>
  <fix>3d</fix>
</trkpt>
<trkpt lat="40.0713749" lon="-105.229789">
  <ele>1582.94</ele>
  <time>2026-08-28T17:49:01Z</time>
  <course>247.53</course>
  <speed>0.022360679774997897</speed>
  <fix>3d</fix>
</trkpt>
<trkpt lat="40.0713749" lon="-105.229789">
  <ele>1583.0</ele>
  <time>2026-08-28T17:49:01Z</time>
  <course>0.0</course>
  <speed>0.0</speed>
  <fix>3d</fix>
</trkpt>
<trkpt lat="40.0713749" lon="-105.229789">
  <ele>1582.94</ele>
  <time>2026-08-28T17:49:01Z</time>
  <course>247.53</course>
  <speed>0.022360679774997897</speed>
  <fix>3d</fix>
</trkpt>
<trkpt lat="40.0713749" lon="-105.229789">
  <ele>1583.0</ele>
  <time>2026-08-28T17:49:01Z</time>
  <course>0.0</course>
  <speed>0.0</speed>
  <fix>3d</fix>
</trkpt>
<trkpt lat="40.071375" lon="-105.229789">
  <ele>1582.94</ele>
  <time>2026-08-28T17:49:01Z</time>
  <course>247.53</course>
  <speed>0.022360679774997897</speed>
  <fix>3d</fix>
</trkpt>
<trkpt lat="40.0713749" lon="-105.229789">
  <ele>1583.0</ele>
  <time>2026-08-28T17:49:01Z</time>
  <course>0.0</course>
  <speed>0.0</speed>
  <fix>3d</fix>
</trkpt>
<trkpt lat="40.071375" lon="-105.229789">
  <ele>1582.95</ele>
  <time>2026-08-28T17:49:01Z</time>
  <course>247.53</course>
  <speed>0.022360679774997897</speed>
  <fix>3d</fix>
</trkpt>
<trkpt lat="40.0713749" lon="-105.229789">
  <ele>1583.0</ele>
  <time>2026-08-28T17:49:01Z</time>
  <course>0.0</course>
  <speed>0.0</speed>
  <fix>3d</fix>
</trkpt>
<trkpt lat="40.071375" lon="-105.229789">
  <ele>1582.95</ele>
  <time>2026-08-28T17:49:01Z</time>
  <course>247.53</course>
  <speed>0.022360679774997897</speed>
  <fix>3d</fix>
</trkpt>
<trkpt lat="40.0713749" lon="-105.229789">
  <ele>1583.0</ele>
  <time>2026-08-28T17:49:01Z</time>
  <course>0.0</course>
  <speed>0.0</speed>
  <fix>3d</fix>
</trkpt>
<trkpt lat="40.071375" lon="-105.229789">
  <ele>1582.95</ele>
  <time>2026-08-28T17:49:01Z</time>
  <course>247.52</course>
  <speed>0.022360679774997897</speed>
  <fix>3d</fix>
</trkpt>
<trkpt lat="40.0713749" lon="-105.229789">
  <ele>1583.0</ele>
  <time>2026-08-28T17:49:01Z</time>
  <course>0.0</course>
  <speed>0.0</speed>
  <fix>3d</fix>
</trkpt>
<trkpt lat="40.071375" lon="-105.229789">
  <ele>1582.95</ele>
  <time>2026-08-28T17:49:01Z</time>
  <course>247.52</course>
  <speed>0.022360679774997897</speed>
  <fix>3d</fix>
</trkpt>
<trkpt lat="40.0713749" lon="-105.229789">
  <ele>1583.0</ele>
  <time>2026-08-28T17:49:01Z</time>
  <course>0.0</course>
  <speed>0.0</speed>
  <fix>3d</fix>
</trkpt>
<trkpt lat="40.071375" lon="-105.229789">
  <ele>1582.95</ele>
  <time>2026-08-28T17:49:01Z</time>
  <course>247.52</course>
  <speed>0.022360679774997897</speed>
  <fix>3d</fix>
</trkpt>
<trkpt lat="40.0713749" lon="-105.229789">
  <ele>1583.0</ele>
  <time>2026-08-28T17:49:01Z</time>
  <course>0.0</course>
  <speed>0.0</speed>
  <fix>3d</fix>
</trkpt>
<trkpt lat="40.071375" lon="-105.229789">
  <ele>1582.95</ele>
  <time>2026-08-28T17:49:01Z</time>
  <course>247.52</course>
  <speed>0.022360679774997897</speed>
  <fix>3d</fix>
</trkpt>
<trkpt lat="40.0713749" lon="-105.229789">
  <ele>1583.0</ele>
  <time>2026-08-28T17:49:01Z</time>
  <course>0.0</course>
  <speed>0.0</speed>
  <fix>3d</fix>
</trkpt>
<trkpt lat="40.071375" lon="-105.229789">
  <ele>1582.95</ele>
  <time>2026-08-28T17:49:01Z</time>
  <course>247.51</course>
  <speed>0.0316227766016838</speed>
  <fix>3d</fix>
</trkpt>
<trkpt lat="40.0713749" lon="-105.229789">
  <ele>1583.0</ele>
  <time>2026-08-28T17:49:01Z</time>
  <course>0.0</course>
  <speed>0.0</speed>
  <fix>3d</fix>
</trkpt>
<trkpt lat="40.071375" lon="-105.229789">
  <ele>1582.95</ele>
  <time>2026-08-28T17:49:01Z</time>
  <course>247.51</course>
  <speed>0.0316227766016838</speed>
  <fix>3d</fix>
</trkpt>
<trkpt lat="40.0713749" lon="-105.229789">
  <ele>1583.0</ele>
  <time>2026-08-28T17:49:01Z</time>
  <course>0.0</course>
  <speed>0.0</speed>
  <fix>3d</fix>
</trkpt>
<trkpt lat="40.071375" lon="-105.229789">
  <ele>1582.95</ele>
  <time>2026-08-28T17:49:01Z</time>
  <course>247.51</course>
  <speed>0.0316227766016838</speed>
  <fix>3d</fix>
</trkpt>
<trkpt lat="40.0713749" lon="-105.229789">
  <ele>1583.0</ele>
  <time>2026-08-28T17:49:01Z</time>
  <course>0.0</course>
  <speed>0.0</speed>
  <fix>3d</fix>
</trkpt>
<trkpt lat="40.071375" lon="-105.2297889">
  <ele>1582.95</ele>
  <time>2026-08-28T17:49:01Z</time>
  <course>247.51</course>
  <speed>0.0316227766016838</speed>
  <fix>3d</fix>
</trkpt>
<trkpt lat="40.0713749" lon="-105.229789">
  <ele>1583.0</ele>
  <time>2026-08-28T17:49:01Z</time>
  <course>0.0</course>
  <speed>0.0</speed>
  <fix>3d</fix>
</trkpt>
<trkpt lat="40.071375" lon="-105.2297889">
  <ele>1582.95</ele>
  <time>2026-08-28T17:49:01Z</time>
  <course>247.51</course>
  <speed>0.0316227766016838</speed>
  <fix>3d</fix>
</trkpt>
<trkpt lat="40.0713749" lon="-105.229789">
  <ele>1583.0</ele>
  <time>2026-08-28T17:49:01Z</time>
  <course>0.0</course>
  <speed>0.0</speed>
  <fix>3d</fix>
</trkpt>
<trkpt lat="40.071375" lon="-105.2297889">
  <ele>1582.95</ele>
  <time>2026-08-28T17:49:01Z</time>
  <course>247.5</course>
  <speed>0.0316227766016838</speed>
  <fix>3d</fix>
</trkpt>
<trkpt lat="40.0713749" lon="-105.229789">
  <ele>1583.0</ele>
  <time>2026-08-28T17:49:01Z</time>
  <course>0.0</course>
  <speed>0.0</speed>
  <fix>3d</fix>
</trkpt>
<trkpt lat="40.071375" lon="-105.2297889">
  <ele>1582.95</ele>
  <time>2026-08-28T17:49:01Z</time>
  <course>247.5</course>
  <speed>0.0316227766016838</speed>
  <fix>3d</fix>
</trkpt>
<trkpt lat="40.0713749" lon="-105.229789">
  <ele>1583.0</ele>
  <time>2026-08-28T17:49:01Z</time>
  <course>0.0</course>
  <speed>0.0</speed>
  <fix>3d</fix>
</trkpt>
<trkpt lat="40.071375" lon="-105.2297889">
  <ele>1582.95</ele>
  <time>2026-08-28T17:49:01Z</time>
  <course>247.5</course>
  <speed>0.0316227766016838</speed>
  <fix>3d</fix>
</trkpt>
<trkpt lat="40.0713749" lon="-105.229789">
  <ele>1583.0</ele>
  <time>2026-08-28T17:49:01Z</time>
  <course>0.0</course>
  <speed>0.0</speed>
  <fix>3d</fix>
</trkpt>
<trkpt lat="40.0713751" lon="-105.2297889">
  <ele>1582.95</ele>
  <time>2026-08-28T17:49:01Z</time>
  <course>247.5</course>
  <speed>0.0316227766016838</speed>
  <fix>3d</fix>
</trkpt>
<trkpt lat="40.0713749" lon="-105.229789">
  <ele>1583.0</ele>
  <time>2026-08-28T17:49:01Z</time>
  <course>0.0</course>
  <speed>0.0</speed>
  <fix>3d</fix>
</trkpt>
<trkpt lat="40.0713751" lon="-105.2297889">
  <ele>1582.96</ele>
  <time>2026-08-28T17:49:01Z</time>
  <course>247.49</course>
  <speed>0.0316227766016838</speed>
  <fix>3d</fix>
</trkpt>
<trkpt lat="40.0713749" lon="-105.229789">
  <ele>1583.0</ele>
  <time>2026-08-28T17:49:01Z</time>
  <course>0.0</course>
  <speed>0.0</speed>
  <fix>3d</fix>
</trkpt>
<trkpt lat="40.0713751" lon="-105.2297889">
  <ele>1582.96</ele>
  <time>2026-08-28T17:49:01Z</time>
  <course>247.49</course>
  <speed>0.0316227766016838</speed>
  <fix>3d</fix>
</trkpt>
<trkpt lat="40.0713749" lon="-105.229789">
  <ele>1583.0</ele>
  <time>2026-08-28T17:49:01Z</time>
  <course>0.0</course>
  <speed>0.0</speed>
  <fix>3d</fix>
</trkpt>
<trkpt lat="40.0713751" lon="-105.2297889">
  <ele>1582.97</ele>
  <time>2026-08-28T17:49:01Z</time>
  <course>247.49</course>
  <speed>0.0316227766016838</speed>
  <fix>3d</fix>
</trkpt>
<trkpt lat="40.0713749" lon="-105.229789">
  <ele>1583.0</ele>
  <time>2026-08-28T17:49:01Z</time>
  <course>0.0</course>
  <speed>0.0</speed>
  <fix>3d</fix>
</trkpt>
<trkpt lat="40.0713751" lon="-105.2297889">
  <ele>1582.98</ele>
  <time>2026-08-28T17:49:01Z</time>
  <course>247.49</course>
  <speed>0.0316227766016838</speed>
  <fix>3d</fix>
</trkpt>
<trkpt lat="40.0713749" lon="-105.229789">
  <ele>1583.0</ele>
  <time>2026-08-28T17:49:01Z</time>
  <course>0.0</course>
  <speed>0.0</speed>
  <fix>3d</fix>
</trkpt>
<trkpt lat="40.0713751" lon="-105.2297889">
  <ele>1582.98</ele>
  <time>2026-08-28T17:49:01Z</time>
  <course>247.49</course>
  <speed>0.0316227766016838</speed>
  <fix>3d</fix>
</trkpt>
<trkpt lat="40.0713749" lon="-105.229789">
  <ele>1583.0</ele>
  <time>2026-08-28T17:49:01Z</time>
  <course>0.0</course>
  <speed>0.0</speed>
  <fix>3d</fix>
</trkpt>
<trkpt lat="40.0713751" lon="-105.2297889">
  <ele>1582.99</ele>
  <time>2026-08-28T17:49:01Z</time>
  <course>247.48</course>
  <speed>0.0316227766016838</speed>
  <fix>3d</fix>
</trkpt>
<trkpt lat="40.0713749" lon="-105.229789">
  <ele>1583.0</ele>
  <time>2026-08-28T17:49:01Z</time>
  <course>0.0</course>
  <speed>0.0</speed>
  <fix>3d</fix>
</trkpt>
<trkpt lat="40.0713751" lon="-105.2297889">
  <ele>1583.0</ele>
  <time>2026-08-28T17:49:01Z</time>
  <course>247.48</course>
  <speed>0.022360679774997897</speed>
  <fix>3d</fix>
</trkpt>
<trkpt lat="40.0713749" lon="-105.229789">
  <ele>1583.0</ele>
  <time>2026-08-28T17:49:01Z</time>
  <course>0.0</course>
  <speed>0.0</speed>
  <fix>3d</fix>
</trkpt>
<trkpt lat="40.0713751" lon="-105.2297889">
  <ele>1583.01</ele>
  <time>2026-08-28T17:49:01Z</time>
  <course>247.48</course>
  <speed>0.022360679774997897</speed>
  <fix>3d</fix>
</trkpt>
<trkpt lat="40.0713749" lon="-105.229789">
  <ele>1583.0</ele>
  <time>2026-08-28T17:49:01Z</time>
  <course>0.0</course>
  <speed>0.0</speed>
  <fix>3d</fix>
</trkpt>
<trkpt lat="40.0713751" lon="-105.2297889">
  <ele>1583.01</ele>
  <time>2026-08-28T17:49:01Z</time>
  <course>247.48</course>
  <speed>0.022360679774997897</speed>
  <fix>3d</fix>
</trkpt>
<trkpt lat="40.0713749" lon="-105.229789">
  <ele>1583.0</ele>
  <time>2026-08-28T17:49:01Z</time>
  <course>0.0</course>
  <speed>0.0</speed>
  <fix>3d</fix>
</trkpt>
<trkpt lat="40.0713751" lon="-105.2297889">
  <ele>1583.01</ele>
  <time>2026-08-28T17:49:01Z</time>
  <course>247.47</course>
  <speed>0.022360679774997897</speed>
  <fix>3d</fix>
</trkpt>
<trkpt lat="40.0713749" lon="-105.229789">
  <ele>1583.0</ele>
  <time>2026-08-28T17:49:01Z</time>
  <course>0.0</course>
  <speed>0.0</speed>
  <fix>3d</fix>
</trkpt>
<trkpt lat="40.0713751" lon="-105.2297889">
  <ele>1583.01</ele>
  <time>2026-08-28T17:49:01Z</time>
  <course>247.47</course>
  <speed>0.022360679774997897</speed>
  <fix>3d</fix>
</trkpt>
<trkpt lat="40.0713749" lon="-105.229789">
  <ele>1583.0</ele>
  <time>2026-08-28T17:49:01Z</time>
  <course>0.0</course>
  <speed>0.0</speed>
  <fix>3d</fix>
</trkpt>
<trkpt lat="40.0713751" lon="-105.2297889">
  <ele>1583.01</ele>
  <time>2026-08-28T17:49:01Z</time>
  <course>247.47</course>
  <speed>0.022360679774997897</speed>
  <fix>3d</fix>
</trkpt>
<trkpt lat="40.0713749" lon="-105.229789">
  <ele>1583.0</ele>
  <time>2026-08-28T17:49:01Z</time>
  <course>0.0</course>
  <speed>0.0</speed>
  <fix>3d</fix>
</trkpt>
<trkpt lat="40.071375" lon="-105.2297889">
  <ele>1583.0</ele>
  <time>2026-08-28T17:49:01Z</time>
  <course>247.47</course>
  <speed>0.022360679774997897</speed>
  <fix>3d</fix>
</trkpt>
<trkpt lat="40.0713749" lon="-105.229789">
  <ele>1583.0</ele>
  <time>2026-08-28T17:49:01Z</time>
  <course>0.0</course>
  <speed>0.0</speed>
  <fix>3d</fix>
</trkpt>
<trkpt lat="40.0713751" lon="-105.2297889">
  <ele>1583.0</ele>
  <time>2026-08-28T17:49:01Z</time>
  <course>247.47</course>
  <speed>0.022360679774997897</speed>
  <fix>3d</fix>
</trkpt>
<trkpt lat="40.0713749" lon="-105.229789">
  <ele>1583.0</ele>
  <time>2026-08-28T17:49:01Z</time>
  <course>0.0</course>
  <speed>0.0</speed>
  <fix>3d</fix>
</trkpt>
<trkpt lat="40.071375" lon="-105.2297889">
  <ele>1583.0</ele>
  <time>2026-08-28T17:49:01Z</time>
  <course>247.46</course>
  <speed>0.022360679774997897</speed>
  <fix>3d</fix>
</trkpt>
<trkpt lat="40.0713749" lon="-105.229789">
  <ele>1583.0</ele>
  <time>2026-08-28T17:49:01Z</time>
  <course>0.0</course>
  <speed>0.0</speed>
  <fix>3d</fix>
</trkpt>
<trkpt lat="40.071375" lon="-105.2297889">
  <ele>1582.99</ele>
  <time>2026-08-28T17:49:01Z</time>
  <course>247.46</course>
  <speed>0.022360679774997897</speed>
  <fix>3d</fix>
</trkpt>
<trkpt lat="40.0713749" lon="-105.229789">
  <ele>1583.0</ele>
  <time>2026-08-28T17:49:01Z</time>
  <course>0.0</course>
  <speed>0.0</speed>
  <fix>3d</fix>
</trkpt>
<trkpt lat="40.071375" lon="-105.2297889">
  <ele>1582.99</ele>
  <time>2026-08-28T17:49:01Z</time>
  <course>247.46</course>
  <speed>0.022360679774997897</speed>
  <fix>3d</fix>
</trkpt>
<trkpt lat="40.0713749" lon="-105.229789">
  <ele>1583.0</ele>
  <time>2026-08-28T17:49:01Z</time>
  <course>0.0</course>
  <speed>0.0</speed>
  <fix>3d</fix>
</trkpt>
<trkpt lat="40.071375" lon="-105.2297889">
  <ele>1582.99</ele>
  <time>2026-08-28T17:49:01Z</time>
  <course>247.46</course>
  <speed>0.022360679774997897</speed>
  <fix>3d</fix>
</trkpt>
<trkpt lat="40.0713749" lon="-105.229789">
  <ele>1583.0</ele>
  <time>2026-08-28T17:49:01Z</time>
  <course>0.0</course>
  <speed>0.0</speed>
  <fix>3d</fix>
</trkpt>
<trkpt lat="40.071375" lon="-105.2297889">
  <ele>1582.99</ele>
  <time>2026-08-28T17:49:01Z</time>
  <course>247.45</course>
  <speed>0.022360679774997897</speed>
  <fix>3d</fix>
</trkpt>
<trkpt lat="40.0713749" lon="-105.229789">
  <ele>1583.0</ele>
  <time>2026-08-28T17:49:01Z</time>
  <course>0.0</course>
  <speed>0.0</speed>
  <fix>3d</fix>
</trkpt>
<trkpt lat="40.071375" lon="-105.2297889">
  <ele>1582.99</ele>
  <time>2026-08-28T17:49:01Z</time>
  <course>247.45</course>
  <speed>0.022360679774997897</speed>
  <fix>3d</fix>
</trkpt>
<trkpt lat="40.0713749" lon="-105.229789">
  <ele>1583.0</ele>
  <time>2026-08-28T17:49:01Z</time>
  <course>0.0</course>
  <speed>0.0</speed>
  <fix>3d</fix>
</trkpt>
<trkpt lat="40.071375" lon="-105.2297889">
  <ele>1582.99</ele>
  <time>2026-08-28T17:49:01Z</time>
  <course>247.45</course>
  <speed>0.022360679774997897</speed>
  <fix>3d</fix>
</trkpt>
<trkpt lat="40.0713749" lon="-105.229789">
  <ele>1583.0</ele>
  <time>2026-08-28T17:49:01Z</time>
  <course>0.0</course>
  <speed>0.0</speed>
  <fix>3d</fix>
</trkpt>
<trkpt lat="40.071375" lon="-105.2297889">
  <ele>1582.99</ele>
  <time>2026-08-28T17:49:01Z</time>
  <course>247.45</course>
  <speed>0.022360679774997897</speed>
  <fix>3d</fix>
</trkpt>
<trkpt lat="40.0713749" lon="-105.229789">
  <ele>1583.0</ele>
  <time>2026-08-28T17:49:01Z</time>
  <course>0.0</course>
  <speed>0.0</speed>
  <fix>3d</fix>
</trkpt>
<trkpt lat="40.071375" lon="-105.2297889">
  <ele>1583.0</ele>
  <time>2026-08-28T17:49:01Z</time>
  <course>247.45</course>
  <speed>0.022360679774997897</speed>
  <fix>3d</fix>
</trkpt>
<trkpt lat="40.0713749" lon="-105.229789">
  <ele>1583.0</ele>
  <time>2026-08-28T17:49:01Z</time>
  <course>0.0</course>
  <speed>0.0</speed>
  <fix>3d</fix>
</trkpt>
<trkpt lat="40.071375" lon="-105.2297889">
  <ele>1583.0</ele>
  <time>2026-08-28T17:49:01Z</time>
  <course>247.44</course>
  <speed>0.022360679774997897</speed>
  <fix>3d</fix>
</trkpt>
<trkpt lat="40.0713749" lon="-105.229789">
  <ele>1583.0</ele>
  <time>2026-08-28T17:49:01Z</time>
  <course>0.0</course>
  <speed>0.0</speed>
  <fix>3d</fix>
</trkpt>
<trkpt lat="40.071375" lon="-105.229789">
  <ele>1583.0</ele>
  <time>2026-08-28T17:49:01Z</time>
  <course>247.44</course>
  <speed>0.02</speed>
  <fix>3d</fix>
</trkpt>
<trkpt lat="40.0713749" lon="-105.229789">
  <ele>1583.0</ele>
  <time>2026-08-28T17:49:01Z</time>
  <course>0.0</course>
  <speed>0.0</speed>
  <fix>3d</fix>
</trkpt>
<trkpt lat="40.071375" lon="-105.229789">
  <ele>1583.0</ele>
  <time>2026-08-28T17:49:01Z</time>
  <course>247.44</course>
  <speed>0.02</speed>
  <fix>3d</fix>
</trkpt>
<trkpt lat="40.0713749" lon="-105.229789">
  <ele>1583.0</ele>
  <time>2026-08-28T17:49:01Z</time>
  <course>0.0</course>
  <speed>0.0</speed>
  <fix>3d</fix>
</trkpt>
<trkpt lat="40.071375" lon="-105.229789">
  <ele>1583.0</ele>
  <time>2026-08-28T17:49:01Z</time>
  <course>247.44</course>
  <speed>0.02</speed>
  <fix>3d</fix>
</trkpt>
<trkpt lat="40.0713749" lon="-105.229789">
  <ele>1583.0</ele>
  <time>2026-08-28T17:49:01Z</time>
  <course>0.0</course>
  <speed>0.0</speed>
  <fix>3d</fix>
</trkpt>
<trkpt lat="40.071375" lon="-105.229789">
  <ele>1583.01</ele>
  <time>2026-08-28T17:49:01Z</time>
  <course>247.43</course>
  <speed>0.02</speed>
  <fix>3d</fix>
</trkpt>
<trkpt lat="40.0713749" lon="-105.229789">
  <ele>1583.0</ele>
  <time>2026-08-28T17:49:01Z</time>
  <course>0.0</course>
  <speed>0.0</speed>
  <fix>3d</fix>
</trkpt>
<trkpt lat="40.071375" lon="-105.229789">
  <ele>1583.01</ele>
  <time>2026-08-28T17:49:01Z</time>
  <course>247.43</course>
  <speed>0.02</speed>
  <fix>3d</fix>
</trkpt>
<trkpt lat="40.0713749" lon="-105.229789">
  <ele>1583.0</ele>
  <time>2026-08-28T17:49:01Z</time>
  <course>0.0</course>
  <speed>0.0</speed>
  <fix>3d</fix>
</trkpt>
<trkpt lat="40.071375" lon="-105.229789">
  <ele>1583.01</ele>
  <time>2026-08-28T17:49:01Z</time>
  <course>247.43</course>
  <speed>0.02</speed>
  <fix>3d</fix>
</trkpt>
<trkpt lat="40.0713749" lon="-105.229789">
  <ele>1583.0</ele>
  <time>2026-08-28T17:49:01Z</time>
  <course>0.0</course>
  <speed>0.0</speed>
  <fix>3d</fix>
</trkpt>
<trkpt lat="40.071375" lon="-105.229789">
  <ele>1583.01</ele>
  <time>2026-08-28T17:49:01Z</time>
  <course>247.43</course>
  <speed>0.02</speed>
  <fix>3d</fix>
</trkpt>
<trkpt lat="40.0713749" lon="-105.229789">
  <ele>1583.0</ele>
  <time>2026-08-28T17:49:01Z</time>
  <course>0.0</course>
  <speed>0.0</speed>
  <fix>3d</fix>
</trkpt>
<trkpt lat="40.071375" lon="-105.229789">
  <ele>1583.01</ele>
  <time>2026-08-28T17:49:01Z</time>
  <course>247.43</course>
  <speed>0.02</speed>
  <fix>3d</fix>
</trkpt>
<trkpt lat="40.0713749" lon="-105.229789">
  <ele>1583.0</ele>
  <time>2026-08-28T17:49:01Z</time>
  <course>0.0</course>
  <speed>0.0</speed>
  <fix>3d</fix>
</trkpt>
<trkpt lat="40.071375" lon="-105.229789">
  <ele>1583.01</ele>
  <time>2026-08-28T17:49:01Z</time>
  <course>247.42</course>
  <speed>0.02</speed>
  <fix>3d</fix>
</trkpt>
<trkpt lat="40.0713749" lon="-105.229789">
  <ele>1583.0</ele>
  <time>2026-08-28T17:49:01Z</time>
  <course>0.0</course>
  <speed>0.0</speed>
  <fix>3d</fix>
</trkpt>
<trkpt lat="40.071375" lon="-105.229789">
  <ele>1583.01</ele>
  <time>2026-08-28T17:49:01Z</time>
  <course>247.42</course>
  <speed>0.02</speed>
  <fix>3d</fix>
</trkpt>
<trkpt lat="40.0713749" lon="-105.229789">
  <ele>1583.0</ele>
  <time>2026-08-28T17:49:01Z</time>
  <course>0.0</course>
  <speed>0.0</speed>
  <fix>3d</fix>
</trkpt>
<trkpt lat="40.071375" lon="-105.229789">
  <ele>1583.02</ele>
  <time>2026-08-28T17:49:01Z</time>
  <course>247.42</course>
  <speed>0.02</speed>
  <fix>3d</fix>
</trkpt>
<trkpt lat="40.0713749" lon="-105.229789">
  <ele>1583.0</ele>
  <time>2026-08-28T17:49:01Z</time>
  <course>0.0</course>
  <speed>0.0</speed>
  <fix>3d</fix>
</trkpt>
<trkpt lat="40.071375" lon="-105.229789">
  <ele>1583.01</ele>
  <time>2026-08-28T17:49:02Z</time>
  <course>247.42</course>
  <speed>0.02</speed>
  <fix>3d</fix>
</trkpt>
<trkpt lat="40.0713749" lon="-105.229789">
  <ele>1583.0</ele>
  <time>2026-08-28T17:49:02Z</time>
  <course>0.0</course>
  <speed>0.0</speed>
  <fix>3d</fix>
</trkpt>
<trkpt lat="40.071375" lon="-105.229789">
  <ele>1583.01</ele>
  <time>2026-08-28T17:49:02Z</time>
  <course>247.42</course>
  <speed>0.02</speed>
  <fix>3d</fix>
</trkpt>
<trkpt lat="40.0713749" lon="-105.229789">
  <ele>1583.0</ele>
  <time>2026-08-28T17:49:02Z</time>
  <course>0.0</course>
  <speed>0.0</speed>
  <fix>3d</fix>
</trkpt>
<trkpt lat="40.071375" lon="-105.229789">
  <ele>1583.01</ele>
  <time>2026-08-28T17:49:02Z</time>
  <course>247.41</course>
  <speed>0.02</speed>
  <fix>3d</fix>
</trkpt>
<trkpt lat="40.0713749" lon="-105.229789">
  <ele>1583.0</ele>
  <time>2026-08-28T17:49:02Z</time>
  <course>0.0</course>
  <speed>0.0</speed>
  <fix>3d</fix>
</trkpt>
<trkpt lat="40.071375" lon="-105.229789">
  <ele>1583.01</ele>
  <time>2026-08-28T17:49:02Z</time>
  <course>247.41</course>
  <speed>0.02</speed>
  <fix>3d</fix>
</trkpt>
<trkpt lat="40.0713749" lon="-105.229789">
  <ele>1583.0</ele>
  <time>2026-08-28T17:49:02Z</time>
  <course>0.0</course>
  <speed>0.0</speed>
  <fix>3d</fix>
</trkpt>
<trkpt lat="40.071375" lon="-105.229789">
  <ele>1583.01</ele>
  <time>2026-08-28T17:49:02Z</time>
  <course>247.41</course>
  <speed>0.02</speed>
  <fix>3d</fix>
</trkpt>
<trkpt lat="40.0713749" lon="-105.229789">
  <ele>1583.0</ele>
  <time>2026-08-28T17:49:02Z</time>
  <course>0.0</course>
  <speed>0.0</speed>
  <fix>3d</fix>
</trkpt>
<trkpt lat="40.071375" lon="-105.229789">
  <ele>1583.01</ele>
  <time>2026-08-28T17:49:02Z</time>
  <course>247.41</course>
  <speed>0.02</speed>
  <fix>3d</fix>
</trkpt>
<trkpt lat="40.0713749" lon="-105.229789">
  <ele>1583.0</ele>
  <time>2026-08-28T17:49:02Z</time>
  <course>0.0</course>
  <speed>0.0</speed>
  <fix>3d</fix>
</trkpt>
<trkpt lat="40.071375" lon="-105.229789">
  <ele>1583.02</ele>
  <time>2026-08-28T17:49:02Z</time>
  <course>247.41</course>
  <speed>0.02</speed>
  <fix>3d</fix>
</trkpt>
<trkpt lat="40.0713749" lon="-105.229789">
  <ele>1583.0</ele>
  <time>2026-08-28T17:49:02Z</time>
  <course>0.0</course>
  <speed>0.0</speed>
  <fix>3d</fix>
</trkpt>
<trkpt lat="40.071375" lon="-105.229789">
  <ele>1583.02</ele>
  <time>2026-08-28T17:49:02Z</time>
  <course>247.4</course>
  <speed>0.01</speed>
  <fix>3d</fix>
</trkpt>
<trkpt lat="40.0713749" lon="-105.229789">
  <ele>1583.0</ele>
  <time>2026-08-28T17:49:02Z</time>
  <course>0.0</course>
  <speed>0.0</speed>
  <fix>3d</fix>
</trkpt>
<trkpt lat="40.071375" lon="-105.229789">
  <ele>1583.02</ele>
  <time>2026-08-28T17:49:02Z</time>
  <course>247.4</course>
  <speed>0.01</speed>
  <fix>3d</fix>
</trkpt>
<trkpt lat="40.0713749" lon="-105.229789">
  <ele>1583.0</ele>
  <time>2026-08-28T17:49:02Z</time>
  <course>0.0</course>
  <speed>0.0</speed>
  <fix>3d</fix>
</trkpt>
<trkpt lat="40.071375" lon="-105.229789">
  <ele>1583.02</ele>
  <time>2026-08-28T17:49:02Z</time>
  <course>247.4</course>
  <speed>0.01</speed>
  <fix>3d</fix>
</trkpt>
<trkpt lat="40.0713749" lon="-105.229789">
  <ele>1583.0</ele>
  <time>2026-08-28T17:49:02Z</time>
  <course>0.0</course>
  <speed>0.0</speed>
  <fix>3d</fix>
</trkpt>
<trkpt lat="40.071375" lon="-105.229789">
  <ele>1583.02</ele>
  <time>2026-08-28T17:49:03Z</time>
  <course>247.4</course>
  <speed>0.01</speed>
  <fix>3d</fix>
</trkpt>
<trkpt lat="40.0713749" lon="-105.229789">
  <ele>1583.0</ele>
  <time>2026-08-28T17:49:03Z</time>
  <course>0.0</course>
  <speed>0.0</speed>
  <fix>3d</fix>
</trkpt>
<trkpt lat="40.071375" lon="-105.229789">
  <ele>1583.02</ele>
  <time>2026-08-28T17:49:03Z</time>
  <course>247.4</course>
  <speed>0.01</speed>
  <fix>3d</fix>
</trkpt>
<trkpt lat="40.0713749" lon="-105.229789">
  <ele>1583.0</ele>
  <time>2026-08-28T17:49:03Z</time>
  <course>0.0</course>
  <speed>0.0</speed>
  <fix>3d</fix>
</trkpt>
<trkpt lat="40.071375" lon="-105.229789">
  <ele>1583.02</ele>
  <time>2026-08-28T17:49:03Z</time>
  <course>247.39</course>
  <speed>0.01</speed>
  <fix>3d</fix>
</trkpt>
<trkpt lat="40.0713749" lon="-105.229789">
  <ele>1583.0</ele>
  <time>2026-08-28T17:49:03Z</time>
  <course>0.0</course>
  <speed>0.0</speed>
  <fix>3d</fix>
</trkpt>
<trkpt lat="40.071375" lon="-105.229789">
  <ele>1583.03</ele>
  <time>2026-08-28T17:49:03Z</time>
  <course>247.39</course>
  <speed>0.01</speed>
  <fix>3d</fix>
</trkpt>
<trkpt lat="40.0713749" lon="-105.229789">
  <ele>1583.0</ele>
  <time>2026-08-28T17:49:03Z</time>
  <course>0.0</course>
  <speed>0.0</speed>
  <fix>3d</fix>
</trkpt>
<trkpt lat="40.071375" lon="-105.229789">
  <ele>1583.03</ele>
  <time>2026-08-28T17:49:03Z</time>
  <course>247.39</course>
  <speed>0.01</speed>
  <fix>3d</fix>
</trkpt>
<trkpt lat="40.0713749" lon="-105.229789">
  <ele>1583.0</ele>
  <time>2026-08-28T17:49:03Z</time>
  <course>0.0</course>
  <speed>0.0</speed>
  <fix>3d</fix>
</trkpt>
<trkpt lat="40.071375" lon="-105.229789">
  <ele>1583.03</ele>
  <time>2026-08-28T17:49:03Z</time>
  <course>247.39</course>
  <speed>0.01</speed>
  <fix>3d</fix>
</trkpt>
<trkpt lat="40.0713749" lon="-105.229789">
  <ele>1583.0</ele>
  <time>2026-08-28T17:49:03Z</time>
  <course>0.0</course>
  <speed>0.0</speed>
  <fix>3d</fix>
</trkpt>
<trkpt lat="40.071375" lon="-105.229789">
  <ele>1583.03</ele>
  <time>2026-08-28T17:49:03Z</time>
  <course>247.39</course>
  <speed>0.01</speed>
  <fix>3d</fix>
</trkpt>
<trkpt lat="40.0713749" lon="-105.229789">
  <ele>1583.0</ele>
  <time>2026-08-28T17:49:03Z</time>
  <course>0.0</course>
  <speed>0.0</speed>
  <fix>3d</fix>
</trkpt>
<trkpt lat="40.071375" lon="-105.229789">
  <ele>1583.04</ele>
  <time>2026-08-28T17:49:03Z</time>
  <course>247.38</course>
  <speed>0.01</speed>
  <fix>3d</fix>
</trkpt>
<trkpt lat="40.0713749" lon="-105.229789">
  <ele>1583.0</ele>
  <time>2026-08-28T17:49:03Z</time>
  <course>0.0</course>
  <speed>0.0</speed>
  <fix>3d</fix>
</trkpt>
<trkpt lat="40.071375" lon="-105.229789">
  <ele>1583.04</ele>
  <time>2026-08-28T17:49:03Z</time>
  <course>247.38</course>
  <speed>0.01</speed>
  <fix>3d</fix>
</trkpt>
<trkpt lat="40.0713749" lon="-105.229789">
  <ele>1583.0</ele>
  <time>2026-08-28T17:49:03Z</time>
  <course>0.0</course>
  <speed>0.0</speed>
  <fix>3d</fix>
</trkpt>
<trkpt lat="40.071375" lon="-105.229789">
  <ele>1583.05</ele>
  <time>2026-08-28T17:49:03Z</time>
  <course>247.38</course>
  <speed>0.01</speed>
  <fix>3d</fix>
</trkpt>
<trkpt lat="40.0713749" lon="-105.229789">
  <ele>1583.0</ele>
  <time>2026-08-28T17:49:03Z</time>
  <course>0.0</course>
  <speed>0.0</speed>
  <fix>3d</fix>
</trkpt>
<trkpt lat="40.071375" lon="-105.229789">
  <ele>1583.05</ele>
  <time>2026-08-28T17:49:03Z</time>
  <course>247.38</course>
  <speed>0.01</speed>
  <fix>3d</fix>
</trkpt>
<trkpt lat="40.0713749" lon="-105.229789">
  <ele>1583.0</ele>
  <time>2026-08-28T17:49:03Z</time>
  <course>0.0</course>
  <speed>0.0</speed>
  <fix>3d</fix>
</trkpt>
<trkpt lat="40.071375" lon="-105.229789">
  <ele>1583.05</ele>
  <time>2026-08-28T17:49:03Z</time>
  <course>247.38</course>
  <speed>0.01</speed>
  <fix>3d</fix>
</trkpt>
<trkpt lat="40.0713749" lon="-105.229789">
  <ele>1583.0</ele>
  <time>2026-08-28T17:49:03Z</time>
  <course>0.0</course>
  <speed>0.0</speed>
  <fix>3d</fix>
</trkpt>
<trkpt lat="40.071375" lon="-105.229789">
  <ele>1583.05</ele>
  <time>2026-08-28T17:49:03Z</time>
  <course>247.38</course>
  <speed>0.01</speed>
  <fix>3d</fix>
</trkpt>
<trkpt lat="40.0713749" lon="-105.229789">
  <ele>1583.0</ele>
  <time>2026-08-28T17:49:03Z</time>
  <course>0.0</course>
  <speed>0.0</speed>
  <fix>3d</fix>
</trkpt>
<trkpt lat="40.071375" lon="-105.229789">
  <ele>1583.05</ele>
  <time>2026-08-28T17:49:03Z</time>
  <course>247.37</course>
  <speed>0.01</speed>
  <fix>3d</fix>
</trkpt>
<trkpt lat="40.0713749" lon="-105.229789">
  <ele>1583.0</ele>
  <time>2026-08-28T17:49:03Z</time>
  <course>0.0</course>
  <speed>0.0</speed>
  <fix>3d</fix>
</trkpt>
<trkpt lat="40.071375" lon="-105.229789">
  <ele>1583.06</ele>
  <time>2026-08-28T17:49:03Z</time>
  <course>247.37</course>
  <speed>0.01</speed>
  <fix>3d</fix>
</trkpt>
<trkpt lat="40.0713749" lon="-105.229789">
  <ele>1583.0</ele>
  <time>2026-08-28T17:49:03Z</time>
  <course>0.0</course>
  <speed>0.0</speed>
  <fix>3d</fix>
</trkpt>
<trkpt lat="40.071375" lon="-105.229789">
  <ele>1583.06</ele>
  <time>2026-08-28T17:49:03Z</time>
  <course>247.37</course>
  <speed>0.01</speed>
  <fix>3d</fix>
</trkpt>
<trkpt lat="40.0713749" lon="-105.229789">
  <ele>1583.0</ele>
  <time>2026-08-28T17:49:03Z</time>
  <course>0.0</course>
  <speed>0.0</speed>
  <fix>3d</fix>
</trkpt>
<trkpt lat="40.071375" lon="-105.229789">
  <ele>1583.06</ele>
  <time>2026-08-28T17:49:03Z</time>
  <course>247.37</course>
  <speed>0.01</speed>
  <fix>3d</fix>
</trkpt>
<trkpt lat="40.0713749" lon="-105.229789">
  <ele>1583.0</ele>
  <time>2026-08-28T17:49:03Z</time>
  <course>0.0</course>
  <speed>0.0</speed>
  <fix>3d</fix>
</trkpt>
<trkpt lat="40.071375" lon="-105.229789">
  <ele>1583.06</ele>
  <time>2026-08-28T17:49:03Z</time>
  <course>247.37</course>
  <speed>0.01</speed>
  <fix>3d</fix>
</trkpt>
<trkpt lat="40.0713749" lon="-105.229789">
  <ele>1583.0</ele>
  <time>2026-08-28T17:49:03Z</time>
  <course>0.0</course>
  <speed>0.0</speed>
  <fix>3d</fix>
</trkpt>
<trkpt lat="40.071375" lon="-105.229789">
  <ele>1583.06</ele>
  <time>2026-08-28T17:49:03Z</time>
  <course>247.37</course>
  <speed>0.01</speed>
  <fix>3d</fix>
</trkpt>
<trkpt lat="40.0713749" lon="-105.229789">
  <ele>1583.0</ele>
  <time>2026-08-28T17:49:03Z</time>
  <course>0.0</course>
  <speed>0.0</speed>
  <fix>3d</fix>
</trkpt>
<trkpt lat="40.071375" lon="-105.229789">
  <ele>1583.06</ele>
  <time>2026-08-28T17:49:03Z</time>
  <course>247.36</course>
  <speed>0.01</speed>
  <fix>3d</fix>
</trkpt>
<trkpt lat="40.0713749" lon="-105.229789">
  <ele>1583.0</ele>
  <time>2026-08-28T17:49:03Z</time>
  <course>0.0</course>
  <speed>0.0</speed>
  <fix>3d</fix>
</trkpt>
<trkpt lat="40.071375" lon="-105.229789">
  <ele>1583.06</ele>
  <time>2026-08-28T17:49:03Z</time>
  <course>247.36</course>
  <speed>0.01</speed>
  <fix>3d</fix>
</trkpt>
<trkpt lat="40.0713749" lon="-105.229789">
  <ele>1583.0</ele>
  <time>2026-08-28T17:49:03Z</time>
  <course>0.0</course>
  <speed>0.0</speed>
  <fix>3d</fix>
</trkpt>
<trkpt lat="40.071375" lon="-105.229789">
  <ele>1583.06</ele>
  <time>2026-08-28T17:49:03Z</time>
  <course>247.36</course>
  <speed>0.01</speed>
  <fix>3d</fix>
</trkpt>
<trkpt lat="40.0713749" lon="-105.229789">
  <ele>1583.0</ele>
  <time>2026-08-28T17:49:03Z</time>
  <course>0.0</course>
  <speed>0.0</speed>
  <fix>3d</fix>
</trkpt>
<trkpt lat="40.071375" lon="-105.229789">
  <ele>1583.06</ele>
  <time>2026-08-28T17:49:03Z</time>
  <course>247.36</course>
  <speed>0.01</speed>
  <fix>3d</fix>
</trkpt>
<trkpt lat="40.0713749" lon="-105.229789">
  <ele>1583.0</ele>
  <time>2026-08-28T17:49:03Z</time>
  <course>0.0</course>
  <speed>0.0</speed>
  <fix>3d</fix>
</trkpt>
<trkpt lat="40.071375" lon="-105.229789">
  <ele>1583.06</ele>
  <time>2026-08-28T17:49:03Z</time>
  <course>247.36</course>
  <speed>0.01</speed>
  <fix>3d</fix>
</trkpt>
<trkpt lat="40.0713749" lon="-105.229789">
  <ele>1583.0</ele>
  <time>2026-08-28T17:49:03Z</time>
  <course>0.0</course>
  <speed>0.0</speed>
  <fix>3d</fix>
</trkpt>
<trkpt lat="40.071375" lon="-105.229789">
  <ele>1583.05</ele>
  <time>2026-08-28T17:49:03Z</time>
  <course>247.36</course>
  <speed>0.01</speed>
  <fix>3d</fix>
</trkpt>
<trkpt lat="40.0713749" lon="-105.229789">
  <ele>1583.0</ele>
  <time>2026-08-28T17:49:03Z</time>
  <course>0.0</course>
  <speed>0.0</speed>
  <fix>3d</fix>
</trkpt>
<trkpt lat="40.071375" lon="-105.229789">
  <ele>1583.05</ele>
  <time>2026-08-28T17:49:03Z</time>
  <course>247.35</course>
  <speed>0.01</speed>
  <fix>3d</fix>
</trkpt>
<trkpt lat="40.0713749" lon="-105.229789">
  <ele>1583.0</ele>
  <time>2026-08-28T17:49:03Z</time>
  <course>0.0</course>
  <speed>0.0</speed>
  <fix>3d</fix>
</trkpt>
<trkpt lat="40.071375" lon="-105.229789">
  <ele>1583.04</ele>
  <time>2026-08-28T17:49:03Z</time>
  <course>247.35</course>
  <speed>0.01</speed>
  <fix>3d</fix>
</trkpt>
<trkpt lat="40.0713749" lon="-105.229789">
  <ele>1583.0</ele>
  <time>2026-08-28T17:49:03Z</time>
  <course>0.0</course>
  <speed>0.0</speed>
  <fix>3d</fix>
</trkpt>
<trkpt lat="40.071375" lon="-105.229789">
  <ele>1583.04</ele>
  <time>2026-08-28T17:49:03Z</time>
  <course>247.35</course>
  <speed>0.01</speed>
  <fix>3d</fix>
</trkpt>
<trkpt lat="40.0713749" lon="-105.229789">
  <ele>1583.0</ele>
  <time>2026-08-28T17:49:03Z</time>
  <course>0.0</course>
  <speed>0.0</speed>
  <fix>3d</fix>
</trkpt>
<trkpt lat="40.071375" lon="-105.229789">
  <ele>1583.04</ele>
  <time>2026-08-28T17:49:03Z</time>
  <course>247.35</course>
  <speed>0.01</speed>
  <fix>3d</fix>
</trkpt>
<trkpt lat="40.0713749" lon="-105.229789">
  <ele>1583.0</ele>
  <time>2026-08-28T17:49:03Z</time>
  <course>0.0</course>
  <speed>0.0</speed>
  <fix>3d</fix>
</trkpt>
<trkpt lat="40.071375" lon="-105.229789">
  <ele>1583.03</ele>
  <time>2026-08-28T17:49:03Z</time>
  <course>247.35</course>
  <speed>0.01</speed>
  <fix>3d</fix>
</trkpt>
<trkpt lat="40.0713749" lon="-105.229789">
  <ele>1583.0</ele>
  <time>2026-08-28T17:49:03Z</time>
  <course>0.0</course>
  <speed>0.0</speed>
  <fix>3d</fix>
</trkpt>
<trkpt lat="40.071375" lon="-105.229789">
  <ele>1583.03</ele>
  <time>2026-08-28T17:49:03Z</time>
  <course>247.35</course>
  <speed>0.02</speed>
  <fix>3d</fix>
</trkpt>
<trkpt lat="40.0713749" lon="-105.229789">
  <ele>1583.0</ele>
  <time>2026-08-28T17:49:03Z</time>
  <course>0.0</course>
  <speed>0.0</speed>
  <fix>3d</fix>
</trkpt>
<trkpt lat="40.071375" lon="-105.229789">
  <ele>1583.02</ele>
  <time>2026-08-28T17:49:03Z</time>
  <course>247.34</course>
  <speed>0.02</speed>
  <fix>3d</fix>
</trkpt>
<trkpt lat="40.0713749" lon="-105.229789">
  <ele>1583.0</ele>
  <time>2026-08-28T17:49:03Z</time>
  <course>0.0</course>
  <speed>0.0</speed>
  <fix>3d</fix>
</trkpt>
<trkpt lat="40.071375" lon="-105.229789">
  <ele>1583.02</ele>
  <time>2026-08-28T17:49:03Z</time>
  <course>247.34</course>
  <speed>0.02</speed>
  <fix>3d</fix>
</trkpt>
<trkpt lat="40.0713749" lon="-105.229789">
  <ele>1583.0</ele>
  <time>2026-08-28T17:49:03Z</time>
  <course>0.0</course>
  <speed>0.0</speed>
  <fix>3d</fix>
</trkpt>
<trkpt lat="40.071375" lon="-105.229789">
  <ele>1583.02</ele>
  <time>2026-08-28T17:49:03Z</time>
  <course>247.34</course>
  <speed>0.02</speed>
  <fix>3d</fix>
</trkpt>
<trkpt lat="40.0713749" lon="-105.229789">
  <ele>1583.0</ele>
  <time>2026-08-28T17:49:03Z</time>
  <course>0.0</course>
  <speed>0.0</speed>
  <fix>3d</fix>
</trkpt>
<trkpt lat="40.071375" lon="-105.229789">
  <ele>1583.02</ele>
  <time>2026-08-28T17:49:03Z</time>
  <course>247.34</course>
  <speed>0.02</speed>
  <fix>3d</fix>
</trkpt>
<trkpt lat="40.0713749" lon="-105.229789">
  <ele>1583.0</ele>
  <time>2026-08-28T17:49:03Z</time>
  <course>0.0</course>
  <speed>0.0</speed>
  <fix>3d</fix>
</trkpt>
<trkpt lat="40.071375" lon="-105.229789">
  <ele>1583.01</ele>
  <time>2026-08-28T17:49:03Z</time>
  <course>247.34</course>
  <speed>0.02</speed>
  <fix>3d</fix>
</trkpt>
<trkpt lat="40.0713749" lon="-105.229789">
  <ele>1583.0</ele>
  <time>2026-08-28T17:49:03Z</time>
  <course>0.0</course>
  <speed>0.0</speed>
  <fix>3d</fix>
</trkpt>
<trkpt lat="40.071375" lon="-105.229789">
  <ele>1583.01</ele>
  <time>2026-08-28T17:49:03Z</time>
  <course>247.34</course>
  <speed>0.02</speed>
  <fix>3d</fix>
</trkpt>
<trkpt lat="40.0713749" lon="-105.229789">
  <ele>1583.0</ele>
  <time>2026-08-28T17:49:03Z</time>
  <course>0.0</course>
  <speed>0.0</speed>
  <fix>3d</fix>
</trkpt>
<trkpt lat="40.071375" lon="-105.229789">
  <ele>1583.01</ele>
  <time>2026-08-28T17:49:03Z</time>
  <course>247.33</course>
  <speed>0.02</speed>
  <fix>3d</fix>
</trkpt>
<trkpt lat="40.0713749" lon="-105.229789">
  <ele>1583.0</ele>
  <time>2026-08-28T17:49:03Z</time>
  <course>0.0</course>
  <speed>0.0</speed>
  <fix>3d</fix>
</trkpt>
<trkpt lat="40.071375" lon="-105.229789">
  <ele>1583.01</ele>
  <time>2026-08-28T17:49:03Z</time>
  <course>247.33</course>
  <speed>0.02</speed>
  <fix>3d</fix>
</trkpt>
<trkpt lat="40.0713749" lon="-105.229789">
  <ele>1583.0</ele>
  <time>2026-08-28T17:49:03Z</time>
  <course>0.0</course>
  <speed>0.0</speed>
  <fix>3d</fix>
</trkpt>
<trkpt lat="40.071375" lon="-105.229789">
  <ele>1583.01</ele>
  <time>2026-08-28T17:49:03Z</time>
  <course>247.33</course>
  <speed>0.02</speed>
  <fix>3d</fix>
</trkpt>
<trkpt lat="40.0713749" lon="-105.229789">
  <ele>1583.0</ele>
  <time>2026-08-28T17:49:03Z</time>
  <course>0.0</course>
  <speed>0.0</speed>
  <fix>3d</fix>
</trkpt>
<trkpt lat="40.071375" lon="-105.229789">
  <ele>1583.01</ele>
  <time>2026-08-28T17:49:03Z</time>
  <course>247.33</course>
  <speed>0.02</speed>
  <fix>3d</fix>
</trkpt>
<trkpt lat="40.0713749" lon="-105.229789">
  <ele>1583.0</ele>
  <time>2026-08-28T17:49:03Z</time>
  <course>0.0</course>
  <speed>0.0</speed>
  <fix>3d</fix>
</trkpt>
<trkpt lat="40.071375" lon="-105.229789">
  <ele>1583.01</ele>
  <time>2026-08-28T17:49:03Z</time>
  <course>247.33</course>
  <speed>0.02</speed>
  <fix>3d</fix>
</trkpt>
<trkpt lat="40.0713749" lon="-105.229789">
  <ele>1583.0</ele>
  <time>2026-08-28T17:49:03Z</time>
  <course>0.0</course>
  <speed>0.0</speed>
  <fix>3d</fix>
</trkpt>
<trkpt lat="40.071375" lon="-105.229789">
  <ele>1583.01</ele>
  <time>2026-08-28T17:49:03Z</time>
  <course>247.33</course>
  <speed>0.02</speed>
  <fix>3d</fix>
</trkpt>
<trkpt lat="40.0713749" lon="-105.229789">
  <ele>1583.0</ele>
  <time>2026-08-28T17:49:03Z</time>
  <course>0.0</course>
  <speed>0.0</speed>
  <fix>3d</fix>
</trkpt>
<trkpt lat="40.071375" lon="-105.229789">
  <ele>1583.01</ele>
  <time>2026-08-28T17:49:03Z</time>
  <course>247.33</course>
  <speed>0.02</speed>
  <fix>3d</fix>
</trkpt>
<trkpt lat="40.0713749" lon="-105.229789">
  <ele>1583.0</ele>
  <time>2026-08-28T17:49:03Z</time>
  <course>0.0</course>
  <speed>0.0</speed>
  <fix>3d</fix>
</trkpt>
<trkpt lat="40.071375" lon="-105.229789">
  <ele>1583.0</ele>
  <time>2026-08-28T17:49:03Z</time>
  <course>247.32</course>
  <speed>0.02</speed>
  <fix>3d</fix>
</trkpt>
<trkpt lat="40.0713749" lon="-105.229789">
  <ele>1583.0</ele>
  <time>2026-08-28T17:49:03Z</time>
  <course>0.0</course>
  <speed>0.0</speed>
  <fix>3d</fix>
</trkpt>
<trkpt lat="40.071375" lon="-105.229789">
  <ele>1583.0</ele>
  <time>2026-08-28T17:49:03Z</time>
  <course>247.32</course>
  <speed>0.02</speed>
  <fix>3d</fix>
</trkpt>
<trkpt lat="40.0713749" lon="-105.229789">
  <ele>1583.0</ele>
  <time>2026-08-28T17:49:03Z</time>
  <course>0.0</course>
  <speed>0.0</speed>
  <fix>3d</fix>
</trkpt>
<trkpt lat="40.071375" lon="-105.229789">
  <ele>1583.0</ele>
  <time>2026-08-28T17:49:03Z</time>
  <course>247.32</course>
  <speed>0.02</speed>
  <fix>3d</fix>
</trkpt>
<trkpt lat="40.0713749" lon="-105.229789">
  <ele>1583.0</ele>
  <time>2026-08-28T17:49:03Z</time>
  <course>0.0</course>
  <speed>0.0</speed>
  <fix>3d</fix>
</trkpt>
<trkpt lat="40.071375" lon="-105.229789">
  <ele>1582.99</ele>
  <time>2026-08-28T17:49:03Z</time>
  <course>247.32</course>
  <speed>0.02</speed>
  <fix>3d</fix>
</trkpt>
<trkpt lat="40.0713749" lon="-105.229789">
  <ele>1583.0</ele>
  <time>2026-08-28T17:49:03Z</time>
  <course>0.0</course>
  <speed>0.0</speed>
  <fix>3d</fix>
</trkpt>
<trkpt lat="40.071375" lon="-105.229789">
  <ele>1582.99</ele>
  <time>2026-08-28T17:49:03Z</time>
  <course>247.32</course>
  <speed>0.02</speed>
  <fix>3d</fix>
</trkpt>
<trkpt lat="40.0713749" lon="-105.229789">
  <ele>1583.0</ele>
  <time>2026-08-28T17:49:03Z</time>
  <course>0.0</course>
  <speed>0.0</speed>
  <fix>3d</fix>
</trkpt>
<trkpt lat="40.071375" lon="-105.229789">
  <ele>1582.98</ele>
  <time>2026-08-28T17:49:03Z</time>
  <course>247.32</course>
  <speed>0.02</speed>
  <fix>3d</fix>
</trkpt>
<trkpt lat="40.0713749" lon="-105.229789">
  <ele>1583.0</ele>
  <time>2026-08-28T17:49:03Z</time>
  <course>0.0</course>
  <speed>0.0</speed>
  <fix>3d</fix>
</trkpt>
<trkpt lat="40.071375" lon="-105.229789">
  <ele>1582.97</ele>
  <time>2026-08-28T17:49:03Z</time>
  <course>247.31</course>
  <speed>0.02</speed>
  <fix>3d</fix>
</trkpt>
<trkpt lat="40.0713749" lon="-105.229789">
  <ele>1583.0</ele>
  <time>2026-08-28T17:49:03Z</time>
  <course>0.0</course>
  <speed>0.0</speed>
  <fix>3d</fix>
</trkpt>
<trkpt lat="40.071375" lon="-105.229789">
  <ele>1582.97</ele>
  <time>2026-08-28T17:49:03Z</time>
  <course>247.31</course>
  <speed>0.02</speed>
  <fix>3d</fix>
</trkpt>
<trkpt lat="40.0713749" lon="-105.229789">
  <ele>1583.0</ele>
  <time>2026-08-28T17:49:03Z</time>
  <course>0.0</course>
  <speed>0.0</speed>
  <fix>3d</fix>
</trkpt>
<trkpt lat="40.071375" lon="-105.229789">
  <ele>1582.96</ele>
  <time>2026-08-28T17:49:03Z</time>
  <course>247.31</course>
  <speed>0.02</speed>
  <fix>3d</fix>
</trkpt>
<trkpt lat="40.0713749" lon="-105.229789">
  <ele>1583.0</ele>
  <time>2026-08-28T17:49:03Z</time>
  <course>0.0</course>
  <speed>0.0</speed>
  <fix>3d</fix>
</trkpt>
<trkpt lat="40.071375" lon="-105.229789">
  <ele>1582.96</ele>
  <time>2026-08-28T17:49:03Z</time>
  <course>247.31</course>
  <speed>0.02</speed>
  <fix>3d</fix>
</trkpt>
<trkpt lat="40.0713749" lon="-105.229789">
  <ele>1583.0</ele>
  <time>2026-08-28T17:49:03Z</time>
  <course>0.0</course>
  <speed>0.0</speed>
  <fix>3d</fix>
</trkpt>
<trkpt lat="40.071375" lon="-105.229789">
  <ele>1582.95</ele>
  <time>2026-08-28T17:49:03Z</time>
  <course>247.31</course>
  <speed>0.02</speed>
  <fix>3d</fix>
</trkpt>
<trkpt lat="40.0713749" lon="-105.229789">
  <ele>1583.0</ele>
  <time>2026-08-28T17:49:03Z</time>
  <course>0.0</course>
  <speed>0.0</speed>
  <fix>3d</fix>
</trkpt>
<trkpt lat="40.071375" lon="-105.229789">
  <ele>1582.95</ele>
  <time>2026-08-28T17:49:03Z</time>
  <course>247.31</course>
  <speed>0.02</speed>
  <fix>3d</fix>
</trkpt>
<trkpt lat="40.0713749" lon="-105.229789">
  <ele>1583.0</ele>
  <time>2026-08-28T17:49:03Z</time>
  <course>0.0</course>
  <speed>0.0</speed>
  <fix>3d</fix>
</trkpt>
<trkpt lat="40.071375" lon="-105.229789">
  <ele>1582.94</ele>
  <time>2026-08-28T17:49:03Z</time>
  <course>247.31</course>
  <speed>0.02</speed>
  <fix>3d</fix>
</trkpt>
<trkpt lat="40.0713749" lon="-105.229789">
  <ele>1583.0</ele>
  <time>2026-08-28T17:49:03Z</time>
  <course>0.0</course>
  <speed>0.0</speed>
  <fix>3d</fix>
</trkpt>
<trkpt lat="40.071375" lon="-105.229789">
  <ele>1582.93</ele>
  <time>2026-08-28T17:49:03Z</time>
  <course>247.3</course>
  <speed>0.02</speed>
  <fix>3d</fix>
</trkpt>
<trkpt lat="40.0713749" lon="-105.229789">
  <ele>1583.0</ele>
  <time>2026-08-28T17:49:03Z</time>
  <course>0.0</course>
  <speed>0.0</speed>
  <fix>3d</fix>
</trkpt>
<trkpt lat="40.071375" lon="-105.229789">
  <ele>1582.93</ele>
  <time>2026-08-28T17:49:03Z</time>
  <course>247.3</course>
  <speed>0.02</speed>
  <fix>3d</fix>
</trkpt>
<trkpt lat="40.0713749" lon="-105.229789">
  <ele>1583.0</ele>
  <time>2026-08-28T17:49:03Z</time>
  <course>0.0</course>
  <speed>0.0</speed>
  <fix>3d</fix>
</trkpt>
<trkpt lat="40.071375" lon="-105.229789">
  <ele>1582.92</ele>
  <time>2026-08-28T17:49:03Z</time>
  <course>247.3</course>
  <speed>0.02</speed>
  <fix>3d</fix>
</trkpt>
<trkpt lat="40.0713749" lon="-105.229789">
  <ele>1583.0</ele>
  <time>2026-08-28T17:49:03Z</time>
  <course>0.0</course>
  <speed>0.0</speed>
  <fix>3d</fix>
</trkpt>
<trkpt lat="40.071375" lon="-105.229789">
  <ele>1582.92</ele>
  <time>2026-08-28T17:49:03Z</time>
  <course>247.3</course>
  <speed>0.02</speed>
  <fix>3d</fix>
</trkpt>
<trkpt lat="40.0713749" lon="-105.229789">
  <ele>1583.0</ele>
  <time>2026-08-28T17:49:03Z</time>
  <course>0.0</course>
  <speed>0.0</speed>
  <fix>3d</fix>
</trkpt>
<trkpt lat="40.071375" lon="-105.229789">
  <ele>1582.91</ele>
  <time>2026-08-28T17:49:03Z</time>
  <course>247.3</course>
  <speed>0.02</speed>
  <fix>3d</fix>
</trkpt>
<trkpt lat="40.0713749" lon="-105.229789">
  <ele>1583.0</ele>
  <time>2026-08-28T17:49:03Z</time>
  <course>0.0</course>
  <speed>0.0</speed>
  <fix>3d</fix>
</trkpt>
<trkpt lat="40.071375" lon="-105.229789">
  <ele>1582.91</ele>
  <time>2026-08-28T17:49:03Z</time>
  <course>247.3</course>
  <speed>0.02</speed>
  <fix>3d</fix>
</trkpt>
<trkpt lat="40.0713749" lon="-105.229789">
  <ele>1583.0</ele>
  <time>2026-08-28T17:49:03Z</time>
  <course>0.0</course>
  <speed>0.0</speed>
  <fix>3d</fix>
</trkpt>
<trkpt lat="40.071375" lon="-105.229789">
  <ele>1582.91</ele>
  <time>2026-08-28T17:49:03Z</time>
  <course>247.3</course>
  <speed>0.02</speed>
  <fix>3d</fix>
</trkpt>
<trkpt lat="40.0713749" lon="-105.229789">
  <ele>1583.0</ele>
  <time>2026-08-28T17:49:03Z</time>
  <course>0.0</course>
  <speed>0.0</speed>
  <fix>3d</fix>
</trkpt>
<trkpt lat="40.071375" lon="-105.229789">
  <ele>1582.91</ele>
  <time>2026-08-28T17:49:03Z</time>
  <course>247.3</course>
  <speed>0.02</speed>
  <fix>3d</fix>
</trkpt>
<trkpt lat="40.0713749" lon="-105.229789">
  <ele>1583.0</ele>
  <time>2026-08-28T17:49:03Z</time>
  <course>0.0</course>
  <speed>0.0</speed>
  <fix>3d</fix>
</trkpt>
<trkpt lat="40.071375" lon="-105.229789">
  <ele>1582.9</ele>
  <time>2026-08-28T17:49:03Z</time>
  <course>247.3</course>
  <speed>0.02</speed>
  <fix>3d</fix>
</trkpt>
<trkpt lat="40.0713749" lon="-105.229789">
  <ele>1583.0</ele>
  <time>2026-08-28T17:49:03Z</time>
  <course>0.0</course>
  <speed>0.0</speed>
  <fix>3d</fix>
</trkpt>
<trkpt lat="40.071375" lon="-105.229789">
  <ele>1582.9</ele>
  <time>2026-08-28T17:49:03Z</time>
  <course>247.29</course>
  <speed>0.02</speed>
  <fix>3d</fix>
</trkpt>
<trkpt lat="40.0713749" lon="-105.229789">
  <ele>1583.0</ele>
  <time>2026-08-28T17:49:03Z</time>
  <course>0.0</course>
  <speed>0.0</speed>
  <fix>3d</fix>
</trkpt>
<trkpt lat="40.071375" lon="-105.229789">
  <ele>1582.9</ele>
  <time>2026-08-28T17:49:03Z</time>
  <course>247.29</course>
  <speed>0.02</speed>
  <fix>3d</fix>
</trkpt>
<trkpt lat="40.0713749" lon="-105.229789">
  <ele>1583.0</ele>
  <time>2026-08-28T17:49:03Z</time>
  <course>0.0</course>
  <speed>0.0</speed>
  <fix>3d</fix>
</trkpt>
<trkpt lat="40.071375" lon="-105.229789">
  <ele>1582.89</ele>
  <time>2026-08-28T17:49:03Z</time>
  <course>247.29</course>
  <speed>0.02</speed>
  <fix>3d</fix>
</trkpt>
<trkpt lat="40.0713749" lon="-105.229789">
  <ele>1583.0</ele>
  <time>2026-08-28T17:49:03Z</time>
  <course>0.0</course>
  <speed>0.0</speed>
  <fix>3d</fix>
</trkpt>
<trkpt lat="40.071375" lon="-105.229789">
  <ele>1582.89</ele>
  <time>2026-08-28T17:49:03Z</time>
  <course>247.29</course>
  <speed>0.02</speed>
  <fix>3d</fix>
</trkpt>
<trkpt lat="40.0713749" lon="-105.229789">
  <ele>1583.0</ele>
  <time>2026-08-28T17:49:03Z</time>
  <course>0.0</course>
  <speed>0.0</speed>
  <fix>3d</fix>
</trkpt>
<trkpt lat="40.071375" lon="-105.229789">
  <ele>1582.89</ele>
  <time>2026-08-28T17:49:03Z</time>
  <course>247.29</course>
  <speed>0.02</speed>
  <fix>3d</fix>
</trkpt>
<trkpt lat="40.0713749" lon="-105.229789">
  <ele>1583.0</ele>
  <time>2026-08-28T17:49:03Z</time>
  <course>0.0</course>
  <speed>0.0</speed>
  <fix>3d</fix>
</trkpt>
<trkpt lat="40.071375" lon="-105.229789">
  <ele>1582.89</ele>
  <time>2026-08-28T17:49:03Z</time>
  <course>247.29</course>
  <speed>0.02</speed>
  <fix>3d</fix>
</trkpt>
<trkpt lat="40.0713749" lon="-105.229789">
  <ele>1583.0</ele>
  <time>2026-08-28T17:49:03Z</time>
  <course>0.0</course>
  <speed>0.0</speed>
  <fix>3d</fix>
</trkpt>
<trkpt lat="40.071375" lon="-105.229789">
  <ele>1582.89</ele>
  <time>2026-08-28T17:49:03Z</time>
  <course>247.29</course>
  <speed>0.02</speed>
  <fix>3d</fix>
</trkpt>
<trkpt lat="40.0713749" lon="-105.229789">
  <ele>1583.0</ele>
  <time>2026-08-28T17:49:03Z</time>
  <course>0.0</course>
  <speed>0.0</speed>
  <fix>3d</fix>
</trkpt>
<trkpt lat="40.071375" lon="-105.229789">
  <ele>1582.9</ele>
  <time>2026-08-28T17:49:03Z</time>
  <course>247.28</course>
  <speed>0.01</speed>
  <fix>3d</fix>
</trkpt>
<trkpt lat="40.0713749" lon="-105.229789">
  <ele>1583.0</ele>
  <time>2026-08-28T17:49:03Z</time>
  <course>0.0</course>
  <speed>0.0</speed>
  <fix>3d</fix>
</trkpt>
<trkpt lat="40.071375" lon="-105.229789">
  <ele>1582.9</ele>
  <time>2026-08-28T17:49:04Z</time>
  <course>247.28</course>
  <speed>0.01</speed>
  <fix>3d</fix>
</trkpt>
<trkpt lat="40.0713749" lon="-105.229789">
  <ele>1583.0</ele>
  <time>2026-08-28T17:49:04Z</time>
  <course>0.0</course>
  <speed>0.0</speed>
  <fix>3d</fix>
</trkpt>
<trkpt lat="40.071375" lon="-105.229789">
  <ele>1582.91</ele>
  <time>2026-08-28T17:49:04Z</time>
  <course>247.28</course>
  <speed>0.01</speed>
  <fix>3d</fix>
</trkpt>
<trkpt lat="40.0713749" lon="-105.229789">
  <ele>1583.0</ele>
  <time>2026-08-28T17:49:04Z</time>
  <course>0.0</course>
  <speed>0.0</speed>
  <fix>3d</fix>
</trkpt>
<trkpt lat="40.071375" lon="-105.229789">
  <ele>1582.92</ele>
  <time>2026-08-28T17:49:04Z</time>
  <course>247.28</course>
  <speed>0.01</speed>
  <fix>3d</fix>
</trkpt>
<trkpt lat="40.0713749" lon="-105.229789">
  <ele>1583.0</ele>
  <time>2026-08-28T17:49:04Z</time>
  <course>0.0</course>
  <speed>0.0</speed>
  <fix>3d</fix>
</trkpt>
<trkpt lat="40.071375" lon="-105.229789">
  <ele>1582.93</ele>
  <time>2026-08-28T17:49:04Z</time>
  <course>247.28</course>
  <speed>0.01</speed>
  <fix>3d</fix>
</trkpt>
<trkpt lat="40.0713749" lon="-105.229789">
  <ele>1583.0</ele>
  <time>2026-08-28T17:49:04Z</time>
  <course>0.0</course>
  <speed>0.0</speed>
  <fix>3d</fix>
</trkpt>
<trkpt lat="40.071375" lon="-105.229789">
  <ele>1582.94</ele>
  <time>2026-08-28T17:49:04Z</time>
  <course>247.28</course>
  <speed>0.01</speed>
  <fix>3d</fix>
</trkpt>
<trkpt lat="40.0713749" lon="-105.229789">
  <ele>1583.0</ele>
  <time>2026-08-28T17:49:04Z</time>
  <course>0.0</course>
  <speed>0.0</speed>
  <fix>3d</fix>
</trkpt>
<trkpt lat="40.071375" lon="-105.229789">
  <ele>1582.95</ele>
  <time>2026-08-28T17:49:04Z</time>
  <course>247.28</course>
  <speed>0.01</speed>
  <fix>3d</fix>
</trkpt>
<trkpt lat="40.0713749" lon="-105.229789">
  <ele>1583.0</ele>
  <time>2026-08-28T17:49:04Z</time>
  <course>0.0</course>
  <speed>0.0</speed>
  <fix>3d</fix>
</trkpt>
<trkpt lat="40.071375" lon="-105.229789">
  <ele>1582.96</ele>
  <time>2026-08-28T17:49:04Z</time>
  <course>247.28</course>
  <speed>0.01</speed>
  <fix>3d</fix>
</trkpt>
<trkpt lat="40.0713749" lon="-105.229789">
  <ele>1583.0</ele>
  <time>2026-08-28T17:49:04Z</time>
  <course>0.0</course>
  <speed>0.0</speed>
  <fix>3d</fix>
</trkpt>
<trkpt lat="40.071375" lon="-105.229789">
  <ele>1582.97</ele>
  <time>2026-08-28T17:49:04Z</time>
  <course>247.27</course>
  <speed>0.01</speed>
  <fix>3d</fix>
</trkpt>
<trkpt lat="40.0713749" lon="-105.229789">
  <ele>1583.0</ele>
  <time>2026-08-28T17:49:04Z</time>
  <course>0.0</course>
  <speed>0.0</speed>
  <fix>3d</fix>
</trkpt>
<trkpt lat="40.071375" lon="-105.229789">
  <ele>1582.97</ele>
  <time>2026-08-28T17:49:04Z</time>
  <course>247.27</course>
  <speed>0.01</speed>
  <fix>3d</fix>
</trkpt>
<trkpt lat="40.0713749" lon="-105.229789">
  <ele>1583.0</ele>
  <time>2026-08-28T17:49:04Z</time>
  <course>0.0</course>
  <speed>0.0</speed>
  <fix>3d</fix>
</trkpt>
<trkpt lat="40.071375" lon="-105.229789">
  <ele>1582.98</ele>
  <time>2026-08-28T17:49:04Z</time>
  <course>247.27</course>
  <speed>0.01</speed>
  <fix>3d</fix>
</trkpt>
<trkpt lat="40.0713749" lon="-105.229789">
  <ele>1583.0</ele>
  <time>2026-08-28T17:49:04Z</time>
  <course>0.0</course>
  <speed>0.0</speed>
  <fix>3d</fix>
</trkpt>
<trkpt lat="40.071375" lon="-105.229789">
  <ele>1582.98</ele>
  <time>2026-08-28T17:49:04Z</time>
  <course>247.27</course>
  <speed>0.01</speed>
  <fix>3d</fix>
</trkpt>
<trkpt lat="40.0713749" lon="-105.229789">
  <ele>1583.0</ele>
  <time>2026-08-28T17:49:04Z</time>
  <course>0.0</course>
  <speed>0.0</speed>
  <fix>3d</fix>
</trkpt>
<trkpt lat="40.071375" lon="-105.229789">
  <ele>1582.98</ele>
  <time>2026-08-28T17:49:04Z</time>
  <course>247.27</course>
  <speed>0.01</speed>
  <fix>3d</fix>
</trkpt>
<trkpt lat="40.0713749" lon="-105.229789">
  <ele>1583.0</ele>
  <time>2026-08-28T17:49:04Z</time>
  <course>0.0</course>
  <speed>0.0</speed>
  <fix>3d</fix>
</trkpt>
<trkpt lat="40.071375" lon="-105.229789">
  <ele>1582.98</ele>
  <time>2026-08-28T17:49:04Z</time>
  <course>247.27</course>
  <speed>0.01</speed>
  <fix>3d</fix>
</trkpt>
<trkpt lat="40.0713749" lon="-105.229789">
  <ele>1583.0</ele>
  <time>2026-08-28T17:49:04Z</time>
  <course>0.0</course>
  <speed>0.0</speed>
  <fix>3d</fix>
</trkpt>
<trkpt lat="40.071375" lon="-105.229789">
  <ele>1582.98</ele>
  <time>2026-08-28T17:49:04Z</time>
  <course>247.27</course>
  <speed>0.01</speed>
  <fix>3d</fix>
</trkpt>
<trkpt lat="40.0713749" lon="-105.229789">
  <ele>1583.0</ele>
  <time>2026-08-28T17:49:04Z</time>
  <course>0.0</course>
  <speed>0.0</speed>
  <fix>3d</fix>
</trkpt>
<trkpt lat="40.071375" lon="-105.229789">
  <ele>1582.98</ele>
  <time>2026-08-28T17:49:04Z</time>
  <course>247.27</course>
  <speed>0.02</speed>
  <fix>3d</fix>
</trkpt>
<trkpt lat="40.0713749" lon="-105.229789">
  <ele>1583.0</ele>
  <time>2026-08-28T17:49:04Z</time>
  <course>0.0</course>
  <speed>0.0</speed>
  <fix>3d</fix>
</trkpt>
<trkpt lat="40.071375" lon="-105.229789">
  <ele>1582.98</ele>
  <time>2026-08-28T17:49:04Z</time>
  <course>247.26</course>
  <speed>0.02</speed>
  <fix>3d</fix>
</trkpt>
<trkpt lat="40.0713749" lon="-105.229789">
  <ele>1583.0</ele>
  <time>2026-08-28T17:49:04Z</time>
  <course>0.0</course>
  <speed>0.0</speed>
  <fix>3d</fix>
</trkpt>
<trkpt lat="40.071375" lon="-105.229789">
  <ele>1582.98</ele>
  <time>2026-08-28T17:49:04Z</time>
  <course>247.26</course>
  <speed>0.02</speed>
  <fix>3d</fix>
</trkpt>
<trkpt lat="40.0713749" lon="-105.229789">
  <ele>1583.0</ele>
  <time>2026-08-28T17:49:04Z</time>
  <course>0.0</course>
  <speed>0.0</speed>
  <fix>3d</fix>
</trkpt>
<trkpt lat="40.071375" lon="-105.229789">
  <ele>1582.98</ele>
  <time>2026-08-28T17:49:04Z</time>
  <course>247.26</course>
  <speed>0.02</speed>
  <fix>3d</fix>
</trkpt>
<trkpt lat="40.0713749" lon="-105.229789">
  <ele>1583.0</ele>
  <time>2026-08-28T17:49:04Z</time>
  <course>0.0</course>
  <speed>0.0</speed>
  <fix>3d</fix>
</trkpt>
<trkpt lat="40.071375" lon="-105.229789">
  <ele>1582.98</ele>
  <time>2026-08-28T17:49:04Z</time>
  <course>247.26</course>
  <speed>0.02</speed>
  <fix>3d</fix>
</trkpt>
<trkpt lat="40.0713749" lon="-105.229789">
  <ele>1583.0</ele>
  <time>2026-08-28T17:49:04Z</time>
  <course>0.0</course>
  <speed>0.0</speed>
  <fix>3d</fix>
</trkpt>
<trkpt lat="40.071375" lon="-105.229789">
  <ele>1582.98</ele>
  <time>2026-08-28T17:49:04Z</time>
  <course>247.26</course>
  <speed>0.02</speed>
  <fix>3d</fix>
</trkpt>
<trkpt lat="40.0713749" lon="-105.229789">
  <ele>1583.0</ele>
  <time>2026-08-28T17:49:04Z</time>
  <course>0.0</course>
  <speed>0.0</speed>
  <fix>3d</fix>
</trkpt>
<trkpt lat="40.071375" lon="-105.229789">
  <ele>1582.98</ele>
  <time>2026-08-28T17:49:04Z</time>
  <course>247.26</course>
  <speed>0.02</speed>
  <fix>3d</fix>
</trkpt>
<trkpt lat="40.0713749" lon="-105.229789">
  <ele>1583.0</ele>
  <time>2026-08-28T17:49:04Z</time>
  <course>0.0</course>
  <speed>0.0</speed>
  <fix>3d</fix>
</trkpt>
<trkpt lat="40.071375" lon="-105.229789">
  <ele>1582.98</ele>
  <time>2026-08-28T17:49:04Z</time>
  <course>247.26</course>
  <speed>0.02</speed>
  <fix>3d</fix>
</trkpt>
<trkpt lat="40.0713749" lon="-105.229789">
  <ele>1583.0</ele>
  <time>2026-08-28T17:49:04Z</time>
  <course>0.0</course>
  <speed>0.0</speed>
  <fix>3d</fix>
</trkpt>
<trkpt lat="40.071375" lon="-105.229789">
  <ele>1582.98</ele>
  <time>2026-08-28T17:49:04Z</time>
  <course>247.26</course>
  <speed>0.02</speed>
  <fix>3d</fix>
</trkpt>
<trkpt lat="40.0713749" lon="-105.229789">
  <ele>1583.0</ele>
  <time>2026-08-28T17:49:04Z</time>
  <course>0.0</course>
  <speed>0.0</speed>
  <fix>3d</fix>
</trkpt>
<trkpt lat="40.071375" lon="-105.229789">
  <ele>1582.98</ele>
  <time>2026-08-28T17:49:04Z</time>
  <course>247.26</course>
  <speed>0.02</speed>
  <fix>3d</fix>
</trkpt>
<trkpt lat="40.0713749" lon="-105.229789">
  <ele>1583.0</ele>
  <time>2026-08-28T17:49:04Z</time>
  <course>0.0</course>
  <speed>0.0</speed>
  <fix>3d</fix>
</trkpt>
<trkpt lat="40.071375" lon="-105.229789">
  <ele>1582.97</ele>
  <time>2026-08-28T17:49:04Z</time>
  <course>247.25</course>
  <speed>0.02</speed>
  <fix>3d</fix>
</trkpt>
<trkpt lat="40.0713749" lon="-105.229789">
  <ele>1583.0</ele>
  <time>2026-08-28T17:49:04Z</time>
  <course>0.0</course>
  <speed>0.0</speed>
  <fix>3d</fix>
</trkpt>
<trkpt lat="40.071375" lon="-105.229789">
  <ele>1582.97</ele>
  <time>2026-08-28T17:49:04Z</time>
  <course>247.25</course>
  <speed>0.02</speed>
  <fix>3d</fix>
</trkpt>
<trkpt lat="40.0713749" lon="-105.229789">
  <ele>1583.0</ele>
  <time>2026-08-28T17:49:04Z</time>
  <course>0.0</course>
  <speed>0.0</speed>
  <fix>3d</fix>
</trkpt>
<trkpt lat="40.071375" lon="-105.229789">
  <ele>1582.96</ele>
  <time>2026-08-28T17:49:04Z</time>
  <course>247.25</course>
  <speed>0.02</speed>
  <fix>3d</fix>
</trkpt>
<trkpt lat="40.0713749" lon="-105.229789">
  <ele>1583.0</ele>
  <time>2026-08-28T17:49:04Z</time>
  <course>0.0</course>
  <speed>0.0</speed>
  <fix>3d</fix>
</trkpt>
<trkpt lat="40.071375" lon="-105.229789">
  <ele>1582.96</ele>
  <time>2026-08-28T17:49:04Z</time>
  <course>247.25</course>
  <speed>0.02</speed>
  <fix>3d</fix>
</trkpt>
<trkpt lat="40.0713749" lon="-105.229789">
  <ele>1583.0</ele>
  <time>2026-08-28T17:49:04Z</time>
  <course>0.0</course>
  <speed>0.0</speed>
  <fix>3d</fix>
</trkpt>
<trkpt lat="40.071375" lon="-105.229789">
  <ele>1582.96</ele>
  <time>2026-08-28T17:49:04Z</time>
  <course>247.25</course>
  <speed>0.02</speed>
  <fix>3d</fix>
</trkpt>
<trkpt lat="40.0713749" lon="-105.229789">
  <ele>1583.0</ele>
  <time>2026-08-28T17:49:04Z</time>
  <course>0.0</course>
  <speed>0.0</speed>
  <fix>3d</fix>
</trkpt>
<trkpt lat="40.071375" lon="-105.229789">
  <ele>1582.96</ele>
  <time>2026-08-28T17:49:04Z</time>
  <course>247.25</course>
  <speed>0.02</speed>
  <fix>3d</fix>
</trkpt>
<trkpt lat="40.0713749" lon="-105.229789">
  <ele>1583.0</ele>
  <time>2026-08-28T17:49:04Z</time>
  <course>0.0</course>
  <speed>0.0</speed>
  <fix>3d</fix>
</trkpt>
<trkpt lat="40.071375" lon="-105.229789">
  <ele>1582.96</ele>
  <time>2026-08-28T17:49:04Z</time>
  <course>247.25</course>
  <speed>0.02</speed>
  <fix>3d</fix>
</trkpt>
<trkpt lat="40.0713749" lon="-105.229789">
  <ele>1583.0</ele>
  <time>2026-08-28T17:49:04Z</time>
  <course>0.0</course>
  <speed>0.0</speed>
  <fix>3d</fix>
</trkpt>
<trkpt lat="40.071375" lon="-105.229789">
  <ele>1582.96</ele>
  <time>2026-08-28T17:49:04Z</time>
  <course>247.25</course>
  <speed>0.02</speed>
  <fix>3d</fix>
</trkpt>
<trkpt lat="40.0713749" lon="-105.229789">
  <ele>1583.0</ele>
  <time>2026-08-28T17:49:04Z</time>
  <course>0.0</course>
  <speed>0.0</speed>
  <fix>3d</fix>
</trkpt>
<trkpt lat="40.071375" lon="-105.229789">
  <ele>1582.97</ele>
  <time>2026-08-28T17:49:04Z</time>
  <course>247.25</course>
  <speed>0.02</speed>
  <fix>3d</fix>
</trkpt>
<trkpt lat="40.0713749" lon="-105.229789">
  <ele>1583.0</ele>
  <time>2026-08-28T17:49:04Z</time>
  <course>0.0</course>
  <speed>0.0</speed>
  <fix>3d</fix>
</trkpt>
<trkpt lat="40.071375" lon="-105.229789">
  <ele>1582.96</ele>
  <time>2026-08-28T17:49:04Z</time>
  <course>247.25</course>
  <speed>0.02</speed>
  <fix>3d</fix>
</trkpt>
<trkpt lat="40.0713749" lon="-105.229789">
  <ele>1583.0</ele>
  <time>2026-08-28T17:49:04Z</time>
  <course>0.0</course>
  <speed>0.0</speed>
  <fix>3d</fix>
</trkpt>
<trkpt lat="40.071375" lon="-105.229789">
  <ele>1582.96</ele>
  <time>2026-08-28T17:49:04Z</time>
  <course>247.24</course>
  <speed>0.02</speed>
  <fix>3d</fix>
</trkpt>
<trkpt lat="40.0713749" lon="-105.229789">
  <ele>1583.0</ele>
  <time>2026-08-28T17:49:04Z</time>
  <course>0.0</course>
  <speed>0.0</speed>
  <fix>3d</fix>
</trkpt>
<trkpt lat="40.071375" lon="-105.229789">
  <ele>1582.97</ele>
  <time>2026-08-28T17:49:04Z</time>
  <course>247.24</course>
  <speed>0.02</speed>
  <fix>3d</fix>
</trkpt>
<trkpt lat="40.0713749" lon="-105.229789">
  <ele>1583.0</ele>
  <time>2026-08-28T17:49:04Z</time>
  <course>0.0</course>
  <speed>0.0</speed>
  <fix>3d</fix>
</trkpt>
<trkpt lat="40.071375" lon="-105.229789">
  <ele>1582.97</ele>
  <time>2026-08-28T17:49:04Z</time>
  <course>247.24</course>
  <speed>0.022360679774997897</speed>
  <fix>3d</fix>
</trkpt>
<trkpt lat="40.0713749" lon="-105.229789">
  <ele>1583.0</ele>
  <time>2026-08-28T17:49:04Z</time>
  <course>0.0</course>
  <speed>0.0</speed>
  <fix>3d</fix>
</trkpt>
<trkpt lat="40.071375" lon="-105.229789">
  <ele>1582.97</ele>
  <time>2026-08-28T17:49:04Z</time>
  <course>247.24</course>
  <speed>0.02</speed>
  <fix>3d</fix>
</trkpt>
<trkpt lat="40.0713749" lon="-105.229789">
  <ele>1583.0</ele>
  <time>2026-08-28T17:49:04Z</time>
  <course>0.0</course>
  <speed>0.0</speed>
  <fix>3d</fix>
</trkpt>
<trkpt lat="40.071375" lon="-105.229789">
  <ele>1582.98</ele>
  <time>2026-08-28T17:49:04Z</time>
  <course>247.24</course>
  <speed>0.022360679774997897</speed>
  <fix>3d</fix>
</trkpt>
<trkpt lat="40.0713749" lon="-105.229789">
  <ele>1583.0</ele>
  <time>2026-08-28T17:49:04Z</time>
  <course>0.0</course>
  <speed>0.0</speed>
  <fix>3d</fix>
</trkpt>
<trkpt lat="40.071375" lon="-105.229789">
  <ele>1582.98</ele>
  <time>2026-08-28T17:49:04Z</time>
  <course>247.24</course>
  <speed>0.02</speed>
  <fix>3d</fix>
</trkpt>
<trkpt lat="40.0713749" lon="-105.229789">
  <ele>1583.0</ele>
  <time>2026-08-28T17:49:04Z</time>
  <course>0.0</course>
  <speed>0.0</speed>
  <fix>3d</fix>
</trkpt>
<trkpt lat="40.071375" lon="-105.2297889">
  <ele>1582.99</ele>
  <time>2026-08-28T17:49:04Z</time>
  <course>247.24</course>
  <speed>0.022360679774997897</speed>
  <fix>3d</fix>
</trkpt>
<trkpt lat="40.0713749" lon="-105.229789">
  <ele>1583.0</ele>
  <time>2026-08-28T17:49:04Z</time>
  <course>0.0</course>
  <speed>0.0</speed>
  <fix>3d</fix>
</trkpt>
<trkpt lat="40.071375" lon="-105.229789">
  <ele>1582.99</ele>
  <time>2026-08-28T17:49:04Z</time>
  <course>247.24</course>
  <speed>0.022360679774997897</speed>
  <fix>3d</fix>
</trkpt>
<trkpt lat="40.0713749" lon="-105.229789">
  <ele>1583.0</ele>
  <time>2026-08-28T17:49:04Z</time>
  <course>0.0</course>
  <speed>0.0</speed>
  <fix>3d</fix>
</trkpt>
<trkpt lat="40.071375" lon="-105.2297889">
  <ele>1583.0</ele>
  <time>2026-08-28T17:49:04Z</time>
  <course>247.24</course>
  <speed>0.022360679774997897</speed>
  <fix>3d</fix>
</trkpt>
<trkpt lat="40.0713749" lon="-105.229789">
  <ele>1583.0</ele>
  <time>2026-08-28T17:49:04Z</time>
  <course>0.0</course>
  <speed>0.0</speed>
  <fix>3d</fix>
</trkpt>
<trkpt lat="40.071375" lon="-105.229789">
  <ele>1583.01</ele>
  <time>2026-08-28T17:49:04Z</time>
  <course>247.24</course>
  <speed>0.022360679774997897</speed>
  <fix>3d</fix>
</trkpt>
<trkpt lat="40.0713749" lon="-105.229789">
  <ele>1583.0</ele>
  <time>2026-08-28T17:49:04Z</time>
  <course>0.0</course>
  <speed>0.0</speed>
  <fix>3d</fix>
</trkpt>
<trkpt lat="40.071375" lon="-105.2297889">
  <ele>1583.01</ele>
  <time>2026-08-28T17:49:04Z</time>
  <course>247.24</course>
  <speed>0.022360679774997897</speed>
  <fix>3d</fix>
</trkpt>
<trkpt lat="40.0713749" lon="-105.229789">
  <ele>1583.0</ele>
  <time>2026-08-28T17:49:04Z</time>
  <course>0.0</course>
  <speed>0.0</speed>
  <fix>3d</fix>
</trkpt>
<trkpt lat="40.071375" lon="-105.2297889">
  <ele>1583.02</ele>
  <time>2026-08-28T17:49:04Z</time>
  <course>247.23</course>
  <speed>0.022360679774997897</speed>
  <fix>3d</fix>
</trkpt>
<trkpt lat="40.0713749" lon="-105.229789">
  <ele>1583.0</ele>
  <time>2026-08-28T17:49:04Z</time>
  <course>0.0</course>
  <speed>0.0</speed>
  <fix>3d</fix>
</trkpt>
<trkpt lat="40.071375" lon="-105.2297889">
  <ele>1583.03</ele>
  <time>2026-08-28T17:49:04Z</time>
  <course>247.23</course>
  <speed>0.022360679774997897</speed>
  <fix>3d</fix>
</trkpt>
<trkpt lat="40.0713749" lon="-105.229789">
  <ele>1583.0</ele>
  <time>2026-08-28T17:49:04Z</time>
  <course>0.0</course>
  <speed>0.0</speed>
  <fix>3d</fix>
</trkpt>
<trkpt lat="40.071375" lon="-105.2297889">
  <ele>1583.04</ele>
  <time>2026-08-28T17:49:04Z</time>
  <course>247.23</course>
  <speed>0.022360679774997897</speed>
  <fix>3d</fix>
</trkpt>
<trkpt lat="40.0713749" lon="-105.229789">
  <ele>1583.0</ele>
  <time>2026-08-28T17:49:04Z</time>
  <course>0.0</course>
  <speed>0.0</speed>
  <fix>3d</fix>
</trkpt>
<trkpt lat="40.071375" lon="-105.2297889">
  <ele>1583.04</ele>
  <time>2026-08-28T17:49:04Z</time>
  <course>247.23</course>
  <speed>0.022360679774997897</speed>
  <fix>3d</fix>
</trkpt>
<trkpt lat="40.0713749" lon="-105.229789">
  <ele>1583.0</ele>
  <time>2026-08-28T17:49:04Z</time>
  <course>0.0</course>
  <speed>0.0</speed>
  <fix>3d</fix>
</trkpt>
<trkpt lat="40.071375" lon="-105.2297889">
  <ele>1583.04</ele>
  <time>2026-08-28T17:49:04Z</time>
  <course>247.23</course>
  <speed>0.022360679774997897</speed>
  <fix>3d</fix>
</trkpt>
<trkpt lat="40.0713749" lon="-105.229789">
  <ele>1583.0</ele>
  <time>2026-08-28T17:49:04Z</time>
  <course>0.0</course>
  <speed>0.0</speed>
  <fix>3d</fix>
</trkpt>
<trkpt lat="40.071375" lon="-105.2297889">
  <ele>1583.04</ele>
  <time>2026-08-28T17:49:04Z</time>
  <course>247.23</course>
  <speed>0.022360679774997897</speed>
  <fix>3d</fix>
</trkpt>
<trkpt lat="40.0713749" lon="-105.229789">
  <ele>1583.0</ele>
  <time>2026-08-28T17:49:04Z</time>
  <course>0.0</course>
  <speed>0.0</speed>
  <fix>3d</fix>
</trkpt>
<trkpt lat="40.071375" lon="-105.2297889">
  <ele>1583.04</ele>
  <time>2026-08-28T17:49:04Z</time>
  <course>247.23</course>
  <speed>0.022360679774997897</speed>
  <fix>3d</fix>
</trkpt>
<trkpt lat="40.0713749" lon="-105.229789">
  <ele>1583.0</ele>
  <time>2026-08-28T17:49:04Z</time>
  <course>0.0</course>
  <speed>0.0</speed>
  <fix>3d</fix>
</trkpt>
<trkpt lat="40.071375" lon="-105.2297889">
  <ele>1583.04</ele>
  <time>2026-08-28T17:49:04Z</time>
  <course>247.23</course>
  <speed>0.022360679774997897</speed>
  <fix>3d</fix>
</trkpt>
<trkpt lat="40.0713749" lon="-105.229789">
  <ele>1583.0</ele>
  <time>2026-08-28T17:49:04Z</time>
  <course>0.0</course>
  <speed>0.0</speed>
  <fix>3d</fix>
</trkpt>
<trkpt lat="40.071375" lon="-105.2297889">
  <ele>1583.03</ele>
  <time>2026-08-28T17:49:04Z</time>
  <course>247.23</course>
  <speed>0.022360679774997897</speed>
  <fix>3d</fix>
</trkpt>
<trkpt lat="40.0713749" lon="-105.229789">
  <ele>1583.0</ele>
  <time>2026-08-28T17:49:04Z</time>
  <course>0.0</course>
  <speed>0.0</speed>
  <fix>3d</fix>
</trkpt>
<trkpt lat="40.071375" lon="-105.2297889">
  <ele>1583.03</ele>
  <time>2026-08-28T17:49:04Z</time>
  <course>247.23</course>
  <speed>0.022360679774997897</speed>
  <fix>3d</fix>
</trkpt>
<trkpt lat="40.0713749" lon="-105.229789">
  <ele>1583.0</ele>
  <time>2026-08-28T17:49:04Z</time>
  <course>0.0</course>
  <speed>0.0</speed>
  <fix>3d</fix>
</trkpt>
<trkpt lat="40.071375" lon="-105.2297889">
  <ele>1583.02</ele>
  <time>2026-08-28T17:49:04Z</time>
  <course>247.22</course>
  <speed>0.022360679774997897</speed>
  <fix>3d</fix>
</trkpt>
<trkpt lat="40.0713749" lon="-105.229789">
  <ele>1583.0</ele>
  <time>2026-08-28T17:49:04Z</time>
  <course>0.0</course>
  <speed>0.0</speed>
  <fix>3d</fix>
</trkpt>
<trkpt lat="40.071375" lon="-105.2297889">
  <ele>1583.02</ele>
  <time>2026-08-28T17:49:04Z</time>
  <course>247.22</course>
  <speed>0.022360679774997897</speed>
  <fix>3d</fix>
</trkpt>
<trkpt lat="40.0713749" lon="-105.229789">
  <ele>1583.0</ele>
  <time>2026-08-28T17:49:04Z</time>
  <course>0.0</course>
  <speed>0.0</speed>
  <fix>3d</fix>
</trkpt>
<trkpt lat="40.071375" lon="-105.2297889">
  <ele>1583.01</ele>
  <time>2026-08-28T17:49:04Z</time>
  <course>247.22</course>
  <speed>0.022360679774997897</speed>
  <fix>3d</fix>
</trkpt>
<trkpt lat="40.0713749" lon="-105.229789">
  <ele>1583.0</ele>
  <time>2026-08-28T17:49:04Z</time>
  <course>0.0</course>
  <speed>0.0</speed>
  <fix>3d</fix>
</trkpt>
<trkpt lat="40.071375" lon="-105.2297889">
  <ele>1583.01</ele>
  <time>2026-08-28T17:49:04Z</time>
  <course>247.22</course>
  <speed>0.022360679774997897</speed>
  <fix>3d</fix>
</trkpt>
<trkpt lat="40.0713749" lon="-105.229789">
  <ele>1583.0</ele>
  <time>2026-08-28T17:49:04Z</time>
  <course>0.0</course>
  <speed>0.0</speed>
  <fix>3d</fix>
</trkpt>
<trkpt lat="40.071375" lon="-105.2297889">
  <ele>1583.01</ele>
  <time>2026-08-28T17:49:04Z</time>
  <course>247.22</course>
  <speed>0.022360679774997897</speed>
  <fix>3d</fix>
</trkpt>
<trkpt lat="40.0713749" lon="-105.229789">
  <ele>1583.0</ele>
  <time>2026-08-28T17:49:04Z</time>
  <course>0.0</course>
  <speed>0.0</speed>
  <fix>3d</fix>
</trkpt>
<trkpt lat="40.071375" lon="-105.2297889">
  <ele>1583.01</ele>
  <time>2026-08-28T17:49:04Z</time>
  <course>247.22</course>
  <speed>0.022360679774997897</speed>
  <fix>3d</fix>
</trkpt>
<trkpt lat="40.0713749" lon="-105.229789">
  <ele>1583.0</ele>
  <time>2026-08-28T17:49:04Z</time>
  <course>0.0</course>
  <speed>0.0</speed>
  <fix>3d</fix>
</trkpt>
<trkpt lat="40.071375" lon="-105.2297889">
  <ele>1583.0</ele>
  <time>2026-08-28T17:49:04Z</time>
  <course>247.22</course>
  <speed>0.022360679774997897</speed>
  <fix>3d</fix>
</trkpt>
<trkpt lat="40.0713749" lon="-105.229789">
  <ele>1583.0</ele>
  <time>2026-08-28T17:49:04Z</time>
  <course>0.0</course>
  <speed>0.0</speed>
  <fix>3d</fix>
</trkpt>
<trkpt lat="40.071375" lon="-105.2297889">
  <ele>1583.0</ele>
  <time>2026-08-28T17:49:04Z</time>
  <course>247.22</course>
  <speed>0.022360679774997897</speed>
  <fix>3d</fix>
</trkpt>
<trkpt lat="40.0713749" lon="-105.229789">
  <ele>1583.0</ele>
  <time>2026-08-28T17:49:04Z</time>
  <course>0.0</course>
  <speed>0.0</speed>
  <fix>3d</fix>
</trkpt>
<trkpt lat="40.071375" lon="-105.2297889">
  <ele>1583.0</ele>
  <time>2026-08-28T17:49:04Z</time>
  <course>247.22</course>
  <speed>0.022360679774997897</speed>
  <fix>3d</fix>
</trkpt>
<trkpt lat="40.0713749" lon="-105.229789">
  <ele>1583.0</ele>
  <time>2026-08-28T17:49:04Z</time>
  <course>0.0</course>
  <speed>0.0</speed>
  <fix>3d</fix>
</trkpt>
<trkpt lat="40.071375" lon="-105.2297889">
  <ele>1583.0</ele>
  <time>2026-08-28T17:49:04Z</time>
  <course>247.22</course>
  <speed>0.022360679774997897</speed>
  <fix>3d</fix>
</trkpt>
<trkpt lat="40.0713749" lon="-105.229789">
  <ele>1583.0</ele>
  <time>2026-08-28T17:49:04Z</time>
  <course>0.0</course>
  <speed>0.0</speed>
  <fix>3d</fix>
</trkpt>
<trkpt lat="40.071375" lon="-105.2297889">
  <ele>1583.0</ele>
  <time>2026-08-28T17:49:04Z</time>
  <course>247.22</course>
  <speed>0.022360679774997897</speed>
  <fix>3d</fix>
</trkpt>
<trkpt lat="40.0713749" lon="-105.229789">
  <ele>1583.0</ele>
  <time>2026-08-28T17:49:04Z</time>
  <course>0.0</course>
  <speed>0.0</speed>
  <fix>3d</fix>
</trkpt>
<trkpt lat="40.071375" lon="-105.2297889">
  <ele>1582.99</ele>
  <time>2026-08-28T17:49:04Z</time>
  <course>247.22</course>
  <speed>0.022360679774997897</speed>
  <fix>3d</fix>
</trkpt>
<trkpt lat="40.0713749" lon="-105.229789">
  <ele>1583.0</ele>
  <time>2026-08-28T17:49:04Z</time>
  <course>0.0</course>
  <speed>0.0</speed>
  <fix>3d</fix>
</trkpt>
<trkpt lat="40.071375" lon="-105.2297889">
  <ele>1582.99</ele>
  <time>2026-08-28T17:49:04Z</time>
  <course>247.21</course>
  <speed>0.022360679774997897</speed>
  <fix>3d</fix>
</trkpt>
<trkpt lat="40.0713749" lon="-105.229789">
  <ele>1583.0</ele>
  <time>2026-08-28T17:49:04Z</time>
  <course>0.0</course>
  <speed>0.0</speed>
  <fix>3d</fix>
</trkpt>
<trkpt lat="40.071375" lon="-105.2297889">
  <ele>1582.99</ele>
  <time>2026-08-28T17:49:04Z</time>
  <course>247.21</course>
  <speed>0.022360679774997897</speed>
  <fix>3d</fix>
</trkpt>
<trkpt lat="40.0713749" lon="-105.229789">
  <ele>1583.0</ele>
  <time>2026-08-28T17:49:04Z</time>
  <course>0.0</course>
  <speed>0.0</speed>
  <fix>3d</fix>
</trkpt>
<trkpt lat="40.071375" lon="-105.2297889">
  <ele>1582.98</ele>
  <time>2026-08-28T17:49:04Z</time>
  <course>247.21</course>
  <speed>0.022360679774997897</speed>
  <fix>3d</fix>
</trkpt>
<trkpt lat="40.0713749" lon="-105.229789">
  <ele>1583.0</ele>
  <time>2026-08-28T17:49:04Z</time>
  <course>0.0</course>
  <speed>0.0</speed>
  <fix>3d</fix>
</trkpt>
<trkpt lat="40.071375" lon="-105.2297889">
  <ele>1582.98</ele>
  <time>2026-08-28T17:49:04Z</time>
  <course>247.21</course>
  <speed>0.022360679774997897</speed>
  <fix>3d</fix>
</trkpt>
<trkpt lat="40.0713749" lon="-105.229789">
  <ele>1583.0</ele>
  <time>2026-08-28T17:49:04Z</time>
  <course>0.0</course>
  <speed>0.0</speed>
  <fix>3d</fix>
</trkpt>
<trkpt lat="40.071375" lon="-105.2297889">
  <ele>1582.97</ele>
  <time>2026-08-28T17:49:04Z</time>
  <course>247.21</course>
  <speed>0.022360679774997897</speed>
  <fix>3d</fix>
</trkpt>
<trkpt lat="40.0713749" lon="-105.229789">
  <ele>1583.0</ele>
  <time>2026-08-28T17:49:04Z</time>
  <course>0.0</course>
  <speed>0.0</speed>
  <fix>3d</fix>
</trkpt>
<trkpt lat="40.071375" lon="-105.2297889">
  <ele>1582.97</ele>
  <time>2026-08-28T17:49:04Z</time>
  <course>247.21</course>
  <speed>0.022360679774997897</speed>
  <fix>3d</fix>
</trkpt>
<trkpt lat="40.0713749" lon="-105.229789">
  <ele>1583.0</ele>
  <time>2026-08-28T17:49:04Z</time>
  <course>0.0</course>
  <speed>0.0</speed>
  <fix>3d</fix>
</trkpt>
<trkpt lat="40.071375" lon="-105.2297889">
  <ele>1582.96</ele>
  <time>2026-08-28T17:49:04Z</time>
  <course>247.21</course>
  <speed>0.022360679774997897</speed>
  <fix>3d</fix>
</trkpt>
<trkpt lat="40.0713749" lon="-105.229789">
  <ele>1583.0</ele>
  <time>2026-08-28T17:49:04Z</time>
  <course>0.0</course>
  <speed>0.0</speed>
  <fix>3d</fix>
</trkpt>
<trkpt lat="40.071375" lon="-105.2297889">
  <ele>1582.95</ele>
  <time>2026-08-28T17:49:04Z</time>
  <course>247.21</course>
  <speed>0.022360679774997897</speed>
  <fix>3d</fix>
</trkpt>
<trkpt lat="40.0713749" lon="-105.229789">
  <ele>1583.0</ele>
  <time>2026-08-28T17:49:04Z</time>
  <course>0.0</course>
  <speed>0.0</speed>
  <fix>3d</fix>
</trkpt>
<trkpt lat="40.071375" lon="-105.2297889">
  <ele>1582.94</ele>
  <time>2026-08-28T17:49:04Z</time>
  <course>247.21</course>
  <speed>0.022360679774997897</speed>
  <fix>3d</fix>
</trkpt>
<trkpt lat="40.0713749" lon="-105.229789">
  <ele>1583.0</ele>
  <time>2026-08-28T17:49:04Z</time>
  <course>0.0</course>
  <speed>0.0</speed>
  <fix>3d</fix>
</trkpt>
<trkpt lat="40.071375" lon="-105.2297889">
  <ele>1582.93</ele>
  <time>2026-08-28T17:49:04Z</time>
  <course>247.21</course>
  <speed>0.022360679774997897</speed>
  <fix>3d</fix>
</trkpt>
<trkpt lat="40.0713749" lon="-105.229789">
  <ele>1583.0</ele>
  <time>2026-08-28T17:49:04Z</time>
  <course>0.0</course>
  <speed>0.0</speed>
  <fix>3d</fix>
</trkpt>
<trkpt lat="40.071375" lon="-105.2297889">
  <ele>1582.93</ele>
  <time>2026-08-28T17:49:04Z</time>
  <course>247.21</course>
  <speed>0.022360679774997897</speed>
  <fix>3d</fix>
</trkpt>
<trkpt lat="40.0713749" lon="-105.229789">
  <ele>1583.0</ele>
  <time>2026-08-28T17:49:04Z</time>
  <course>0.0</course>
  <speed>0.0</speed>
  <fix>3d</fix>
</trkpt>
<trkpt lat="40.071375" lon="-105.2297889">
  <ele>1582.92</ele>
  <time>2026-08-28T17:49:04Z</time>
  <course>247.21</course>
  <speed>0.022360679774997897</speed>
  <fix>3d</fix>
</trkpt>
<trkpt lat="40.0713749" lon="-105.229789">
  <ele>1583.0</ele>
  <time>2026-08-28T17:49:04Z</time>
  <course>0.0</course>
  <speed>0.0</speed>
  <fix>3d</fix>
</trkpt>
<trkpt lat="40.071375" lon="-105.2297889">
  <ele>1582.92</ele>
  <time>2026-08-28T17:49:04Z</time>
  <course>247.21</course>
  <speed>0.022360679774997897</speed>
  <fix>3d</fix>
</trkpt>
<trkpt lat="40.0713749" lon="-105.229789">
  <ele>1583.0</ele>
  <time>2026-08-28T17:49:04Z</time>
  <course>0.0</course>
  <speed>0.0</speed>
  <fix>3d</fix>
</trkpt>
<trkpt lat="40.071375" lon="-105.2297889">
  <ele>1582.92</ele>
  <time>2026-08-28T17:49:04Z</time>
  <course>247.2</course>
  <speed>0.022360679774997897</speed>
  <fix>3d</fix>
</trkpt>
<trkpt lat="40.0713749" lon="-105.229789">
  <ele>1583.0</ele>
  <time>2026-08-28T17:49:04Z</time>
  <course>0.0</course>
  <speed>0.0</speed>
  <fix>3d</fix>
</trkpt>
<trkpt lat="40.071375" lon="-105.2297889">
  <ele>1582.93</ele>
  <time>2026-08-28T17:49:04Z</time>
  <course>247.2</course>
  <speed>0.022360679774997897</speed>
  <fix>3d</fix>
</trkpt>
<trkpt lat="40.0713749" lon="-105.229789">
  <ele>1583.0</ele>
  <time>2026-08-28T17:49:04Z</time>
  <course>0.0</course>
  <speed>0.0</speed>
  <fix>3d</fix>
</trkpt>
<trkpt lat="40.071375" lon="-105.2297889">
  <ele>1582.93</ele>
  <time>2026-08-28T17:49:04Z</time>
  <course>247.2</course>
  <speed>0.022360679774997897</speed>
  <fix>3d</fix>
</trkpt>
<trkpt lat="40.0713749" lon="-105.229789">
  <ele>1583.0</ele>
  <time>2026-08-28T17:49:04Z</time>
  <course>0.0</course>
  <speed>0.0</speed>
  <fix>3d</fix>
</trkpt>
<trkpt lat="40.071375" lon="-105.2297889">
  <ele>1582.93</ele>
  <time>2026-08-28T17:49:04Z</time>
  <course>247.2</course>
  <speed>0.022360679774997897</speed>
  <fix>3d</fix>
</trkpt>
<trkpt lat="40.0713749" lon="-105.229789">
  <ele>1583.0</ele>
  <time>2026-08-28T17:49:04Z</time>
  <course>0.0</course>
  <speed>0.0</speed>
  <fix>3d</fix>
</trkpt>
<trkpt lat="40.071375" lon="-105.2297889">
  <ele>1582.93</ele>
  <time>2026-08-28T17:49:04Z</time>
  <course>247.2</course>
  <speed>0.022360679774997897</speed>
  <fix>3d</fix>
</trkpt>
<trkpt lat="40.0713749" lon="-105.229789">
  <ele>1583.0</ele>
  <time>2026-08-28T17:49:04Z</time>
  <course>0.0</course>
  <speed>0.0</speed>
  <fix>3d</fix>
</trkpt>
<trkpt lat="40.071375" lon="-105.2297889">
  <ele>1582.93</ele>
  <time>2026-08-28T17:49:04Z</time>
  <course>247.2</course>
  <speed>0.022360679774997897</speed>
  <fix>3d</fix>
</trkpt>
<trkpt lat="40.0713749" lon="-105.229789">
  <ele>1583.0</ele>
  <time>2026-08-28T17:49:04Z</time>
  <course>0.0</course>
  <speed>0.0</speed>
  <fix>3d</fix>
</trkpt>
<trkpt lat="40.071375" lon="-105.2297889">
  <ele>1582.94</ele>
  <time>2026-08-28T17:49:04Z</time>
  <course>247.2</course>
  <speed>0.022360679774997897</speed>
  <fix>3d</fix>
</trkpt>
<trkpt lat="40.0713749" lon="-105.229789">
  <ele>1583.0</ele>
  <time>2026-08-28T17:49:04Z</time>
  <course>0.0</course>
  <speed>0.0</speed>
  <fix>3d</fix>
</trkpt>
<trkpt lat="40.071375" lon="-105.2297889">
  <ele>1582.94</ele>
  <time>2026-08-28T17:49:04Z</time>
  <course>247.2</course>
  <speed>0.022360679774997897</speed>
  <fix>3d</fix>
</trkpt>
<trkpt lat="40.0713749" lon="-105.229789">
  <ele>1583.0</ele>
  <time>2026-08-28T17:49:04Z</time>
  <course>0.0</course>
  <speed>0.0</speed>
  <fix>3d</fix>
</trkpt>
<trkpt lat="40.071375" lon="-105.2297889">
  <ele>1582.94</ele>
  <time>2026-08-28T17:49:04Z</time>
  <course>247.2</course>
  <speed>0.022360679774997897</speed>
  <fix>3d</fix>
</trkpt>
<trkpt lat="40.0713749" lon="-105.229789">
  <ele>1583.0</ele>
  <time>2026-08-28T17:49:04Z</time>
  <course>0.0</course>
  <speed>0.0</speed>
  <fix>3d</fix>
</trkpt>
<trkpt lat="40.071375" lon="-105.2297889">
  <ele>1582.95</ele>
  <time>2026-08-28T17:49:04Z</time>
  <course>247.2</course>
  <speed>0.022360679774997897</speed>
  <fix>3d</fix>
</trkpt>
<trkpt lat="40.0713749" lon="-105.229789">
  <ele>1583.0</ele>
  <time>2026-08-28T17:49:04Z</time>
  <course>0.0</course>
  <speed>0.0</speed>
  <fix>3d</fix>
</trkpt>
<trkpt lat="40.071375" lon="-105.2297889">
  <ele>1582.95</ele>
  <time>2026-08-28T17:49:04Z</time>
  <course>247.2</course>
  <speed>0.022360679774997897</speed>
  <fix>3d</fix>
</trkpt>
<trkpt lat="40.0713749" lon="-105.229789">
  <ele>1583.0</ele>
  <time>2026-08-28T17:49:04Z</time>
  <course>0.0</course>
  <speed>0.0</speed>
  <fix>3d</fix>
</trkpt>
<trkpt lat="40.071375" lon="-105.2297889">
  <ele>1582.96</ele>
  <time>2026-08-28T17:49:04Z</time>
  <course>247.2</course>
  <speed>0.022360679774997897</speed>
  <fix>3d</fix>
</trkpt>
<trkpt lat="40.0713749" lon="-105.229789">
  <ele>1583.0</ele>
  <time>2026-08-28T17:49:04Z</time>
  <course>0.0</course>
  <speed>0.0</speed>
  <fix>3d</fix>
</trkpt>
<trkpt lat="40.071375" lon="-105.2297889">
  <ele>1582.96</ele>
  <time>2026-08-28T17:49:04Z</time>
  <course>247.2</course>
  <speed>0.022360679774997897</speed>
  <fix>3d</fix>
</trkpt>
<trkpt lat="40.0713749" lon="-105.229789">
  <ele>1583.0</ele>
  <time>2026-08-28T17:49:04Z</time>
  <course>0.0</course>
  <speed>0.0</speed>
  <fix>3d</fix>
</trkpt>
<trkpt lat="40.071375" lon="-105.2297889">
  <ele>1582.96</ele>
  <time>2026-08-28T17:49:04Z</time>
  <course>247.19</course>
  <speed>0.022360679774997897</speed>
  <fix>3d</fix>
</trkpt>
<trkpt lat="40.0713749" lon="-105.229789">
  <ele>1583.0</ele>
  <time>2026-08-28T17:49:04Z</time>
  <course>0.0</course>
  <speed>0.0</speed>
  <fix>3d</fix>
</trkpt>
<trkpt lat="40.071375" lon="-105.2297889">
  <ele>1582.96</ele>
  <time>2026-08-28T17:49:04Z</time>
  <course>247.19</course>
  <speed>0.022360679774997897</speed>
  <fix>3d</fix>
</trkpt>
<trkpt lat="40.0713749" lon="-105.229789">
  <ele>1583.0</ele>
  <time>2026-08-28T17:49:04Z</time>
  <course>0.0</course>
  <speed>0.0</speed>
  <fix>3d</fix>
</trkpt>
<trkpt lat="40.071375" lon="-105.2297889">
  <ele>1582.96</ele>
  <time>2026-08-28T17:49:04Z</time>
  <course>247.19</course>
  <speed>0.022360679774997897</speed>
  <fix>3d</fix>
</trkpt>
<trkpt lat="40.0713749" lon="-105.229789">
  <ele>1583.0</ele>
  <time>2026-08-28T17:49:04Z</time>
  <course>0.0</course>
  <speed>0.0</speed>
  <fix>3d</fix>
</trkpt>
<trkpt lat="40.071375" lon="-105.2297889">
  <ele>1582.96</ele>
  <time>2026-08-28T17:49:04Z</time>
  <course>247.19</course>
  <speed>0.022360679774997897</speed>
  <fix>3d</fix>
</trkpt>
<trkpt lat="40.0713749" lon="-105.229789">
  <ele>1583.0</ele>
  <time>2026-08-28T17:49:04Z</time>
  <course>0.0</course>
  <speed>0.0</speed>
  <fix>3d</fix>
</trkpt>
<trkpt lat="40.071375" lon="-105.2297889">
  <ele>1582.97</ele>
  <time>2026-08-28T17:49:04Z</time>
  <course>247.19</course>
  <speed>0.022360679774997897</speed>
  <fix>3d</fix>
</trkpt>
<trkpt lat="40.0713749" lon="-105.229789">
  <ele>1583.0</ele>
  <time>2026-08-28T17:49:04Z</time>
  <course>0.0</course>
  <speed>0.0</speed>
  <fix>3d</fix>
</trkpt>
<trkpt lat="40.071375" lon="-105.2297889">
  <ele>1582.97</ele>
  <time>2026-08-28T17:49:04Z</time>
  <course>247.19</course>
  <speed>0.022360679774997897</speed>
  <fix>3d</fix>
</trkpt>
<trkpt lat="40.0713749" lon="-105.229789">
  <ele>1583.0</ele>
  <time>2026-08-28T17:49:04Z</time>
  <course>0.0</course>
  <speed>0.0</speed>
  <fix>3d</fix>
</trkpt>
<trkpt lat="40.071375" lon="-105.2297889">
  <ele>1582.97</ele>
  <time>2026-08-28T17:49:04Z</time>
  <course>247.19</course>
  <speed>0.022360679774997897</speed>
  <fix>3d</fix>
</trkpt>
<trkpt lat="40.0713749" lon="-105.229789">
  <ele>1583.0</ele>
  <time>2026-08-28T17:49:04Z</time>
  <course>0.0</course>
  <speed>0.0</speed>
  <fix>3d</fix>
</trkpt>
<trkpt lat="40.071375" lon="-105.2297889">
  <ele>1582.97</ele>
  <time>2026-08-28T17:49:04Z</time>
  <course>247.19</course>
  <speed>0.022360679774997897</speed>
  <fix>3d</fix>
</trkpt>
<trkpt lat="40.0713749" lon="-105.229789">
  <ele>1583.0</ele>
  <time>2026-08-28T17:49:04Z</time>
  <course>0.0</course>
  <speed>0.0</speed>
  <fix>3d</fix>
</trkpt>
<trkpt lat="40.071375" lon="-105.2297889">
  <ele>1582.97</ele>
  <time>2026-08-28T17:49:04Z</time>
  <course>247.19</course>
  <speed>0.022360679774997897</speed>
  <fix>3d</fix>
</trkpt>
<trkpt lat="40.0713749" lon="-105.229789">
  <ele>1583.0</ele>
  <time>2026-08-28T17:49:04Z</time>
  <course>0.0</course>
  <speed>0.0</speed>
  <fix>3d</fix>
</trkpt>
<trkpt lat="40.0713751" lon="-105.2297889">
  <ele>1582.97</ele>
  <time>2026-08-28T17:49:04Z</time>
  <course>247.19</course>
  <speed>0.022360679774997897</speed>
  <fix>3d</fix>
</trkpt>
<trkpt lat="40.0713749" lon="-105.229789">
  <ele>1583.0</ele>
  <time>2026-08-28T17:49:04Z</time>
  <course>0.0</course>
  <speed>0.0</speed>
  <fix>3d</fix>
</trkpt>
<trkpt lat="40.071375" lon="-105.2297889">
  <ele>1582.96</ele>
  <time>2026-08-28T17:49:04Z</time>
  <course>247.19</course>
  <speed>0.022360679774997897</speed>
  <fix>3d</fix>
</trkpt>
<trkpt lat="40.0713749" lon="-105.229789">
  <ele>1583.0</ele>
  <time>2026-08-28T17:49:04Z</time>
  <course>0.0</course>
  <speed>0.0</speed>
  <fix>3d</fix>
</trkpt>
<trkpt lat="40.0713751" lon="-105.2297889">
  <ele>1582.96</ele>
  <time>2026-08-28T17:49:04Z</time>
  <course>247.19</course>
  <speed>0.022360679774997897</speed>
  <fix>3d</fix>
</trkpt>
<trkpt lat="40.0713749" lon="-105.229789">
  <ele>1583.0</ele>
  <time>2026-08-28T17:49:04Z</time>
  <course>0.0</course>
  <speed>0.0</speed>
  <fix>3d</fix>
</trkpt>
<trkpt lat="40.071375" lon="-105.2297889">
  <ele>1582.96</ele>
  <time>2026-08-28T17:49:04Z</time>
  <course>247.19</course>
  <speed>0.022360679774997897</speed>
  <fix>3d</fix>
</trkpt>
<trkpt lat="40.0713749" lon="-105.229789">
  <ele>1583.0</ele>
  <time>2026-08-28T17:49:04Z</time>
  <course>0.0</course>
  <speed>0.0</speed>
  <fix>3d</fix>
</trkpt>
<trkpt lat="40.0713751" lon="-105.2297889">
  <ele>1582.96</ele>
  <time>2026-08-28T17:49:04Z</time>
  <course>247.19</course>
  <speed>0.022360679774997897</speed>
  <fix>3d</fix>
</trkpt>
<trkpt lat="40.0713749" lon="-105.229789">
  <ele>1583.0</ele>
  <time>2026-08-28T17:49:04Z</time>
  <course>0.0</course>
  <speed>0.0</speed>
  <fix>3d</fix>
</trkpt>
<trkpt lat="40.0713751" lon="-105.2297889">
  <ele>1582.96</ele>
  <time>2026-08-28T17:49:04Z</time>
  <course>247.19</course>
  <speed>0.022360679774997897</speed>
  <fix>3d</fix>
</trkpt>
<trkpt lat="40.0713749" lon="-105.229789">
  <ele>1583.0</ele>
  <time>2026-08-28T17:49:04Z</time>
  <course>0.0</course>
  <speed>0.0</speed>
  <fix>3d</fix>
</trkpt>
<trkpt lat="40.0713751" lon="-105.2297889">
  <ele>1582.96</ele>
  <time>2026-08-28T17:49:04Z</time>
  <course>247.18</course>
  <speed>0.022360679774997897</speed>
  <fix>3d</fix>
</trkpt>
<trkpt lat="40.0713749" lon="-105.229789">
  <ele>1583.0</ele>
  <time>2026-08-28T17:49:04Z</time>
  <course>0.0</course>
  <speed>0.0</speed>
  <fix>3d</fix>
</trkpt>
<trkpt lat="40.0713751" lon="-105.2297889">
  <ele>1582.95</ele>
  <time>2026-08-28T17:49:04Z</time>
  <course>247.18</course>
  <speed>0.022360679774997897</speed>
  <fix>3d</fix>
</trkpt>
<trkpt lat="40.0713749" lon="-105.229789">
  <ele>1583.0</ele>
  <time>2026-08-28T17:49:04Z</time>
  <course>0.0</course>
  <speed>0.0</speed>
  <fix>3d</fix>
</trkpt>
<trkpt lat="40.0713751" lon="-105.2297889">
  <ele>1582.94</ele>
  <time>2026-08-28T17:49:04Z</time>
  <course>247.18</course>
  <speed>0.022360679774997897</speed>
  <fix>3d</fix>
</trkpt>
<trkpt lat="40.0713749" lon="-105.229789">
  <ele>1583.0</ele>
  <time>2026-08-28T17:49:04Z</time>
  <course>0.0</course>
  <speed>0.0</speed>
  <fix>3d</fix>
</trkpt>
<trkpt lat="40.0713751" lon="-105.2297889">
  <ele>1582.94</ele>
  <time>2026-08-28T17:49:04Z</time>
  <course>247.18</course>
  <speed>0.022360679774997897</speed>
  <fix>3d</fix>
</trkpt>
<trkpt lat="40.0713749" lon="-105.229789">
  <ele>1583.0</ele>
  <time>2026-08-28T17:49:04Z</time>
  <course>0.0</course>
  <speed>0.0</speed>
  <fix>3d</fix>
</trkpt>
<trkpt lat="40.0713751" lon="-105.2297889">
  <ele>1582.93</ele>
  <time>2026-08-28T17:49:04Z</time>
  <course>247.18</course>
  <speed>0.022360679774997897</speed>
  <fix>3d</fix>
</trkpt>
<trkpt lat="40.0713749" lon="-105.229789">
  <ele>1583.0</ele>
  <time>2026-08-28T17:49:04Z</time>
  <course>0.0</course>
  <speed>0.0</speed>
  <fix>3d</fix>
</trkpt>
<trkpt lat="40.0713751" lon="-105.2297889">
  <ele>1582.92</ele>
  <time>2026-08-28T17:49:04Z</time>
  <course>247.18</course>
  <speed>0.022360679774997897</speed>
  <fix>3d</fix>
</trkpt>
<trkpt lat="40.0713749" lon="-105.229789">
  <ele>1583.0</ele>
  <time>2026-08-28T17:49:04Z</time>
  <course>0.0</course>
  <speed>0.0</speed>
  <fix>3d</fix>
</trkpt>
<trkpt lat="40.0713751" lon="-105.2297889">
  <ele>1582.92</ele>
  <time>2026-08-28T17:49:04Z</time>
  <course>247.18</course>
  <speed>0.022360679774997897</speed>
  <fix>3d</fix>
</trkpt>
<trkpt lat="40.0713749" lon="-105.229789">
  <ele>1583.0</ele>
  <time>2026-08-28T17:49:04Z</time>
  <course>0.0</course>
  <speed>0.0</speed>
  <fix>3d</fix>
</trkpt>
<trkpt lat="40.071375" lon="-105.2297889">
  <ele>1582.91</ele>
  <time>2026-08-28T17:49:04Z</time>
  <course>247.18</course>
  <speed>0.022360679774997897</speed>
  <fix>3d</fix>
</trkpt>
<trkpt lat="40.0713749" lon="-105.229789">
  <ele>1583.0</ele>
  <time>2026-08-28T17:49:04Z</time>
  <course>0.0</course>
  <speed>0.0</speed>
  <fix>3d</fix>
</trkpt>
<trkpt lat="40.0713751" lon="-105.2297889">
  <ele>1582.91</ele>
  <time>2026-08-28T17:49:04Z</time>
  <course>247.18</course>
  <speed>0.022360679774997897</speed>
  <fix>3d</fix>
</trkpt>
<trkpt lat="40.0713749" lon="-105.229789">
  <ele>1583.0</ele>
  <time>2026-08-28T17:49:04Z</time>
  <course>0.0</course>
  <speed>0.0</speed>
  <fix>3d</fix>
</trkpt>
<trkpt lat="40.071375" lon="-105.2297889">
  <ele>1582.91</ele>
  <time>2026-08-28T17:49:04Z</time>
  <course>247.18</course>
  <speed>0.022360679774997897</speed>
  <fix>3d</fix>
</trkpt>
<trkpt lat="40.0713749" lon="-105.229789">
  <ele>1583.0</ele>
  <time>2026-08-28T17:49:04Z</time>
  <course>0.0</course>
  <speed>0.0</speed>
  <fix>3d</fix>
</trkpt>
<trkpt lat="40.0713751" lon="-105.2297889">
  <ele>1582.9</ele>
  <time>2026-08-28T17:49:04Z</time>
  <course>247.18</course>
  <speed>0.022360679774997897</speed>
  <fix>3d</fix>
</trkpt>
<trkpt lat="40.0713749" lon="-105.229789">
  <ele>1583.0</ele>
  <time>2026-08-28T17:49:04Z</time>
  <course>0.0</course>
  <speed>0.0</speed>
  <fix>3d</fix>
</trkpt>
<trkpt lat="40.0713751" lon="-105.2297889">
  <ele>1582.9</ele>
  <time>2026-08-28T17:49:04Z</time>
  <course>247.18</course>
  <speed>0.022360679774997897</speed>
  <fix>3d</fix>
</trkpt>
<trkpt lat="40.0713749" lon="-105.229789">
  <ele>1583.0</ele>
  <time>2026-08-28T17:49:04Z</time>
  <course>0.0</course>
  <speed>0.0</speed>
  <fix>3d</fix>
</trkpt>
<trkpt lat="40.0713751" lon="-105.2297889">
  <ele>1582.89</ele>
  <time>2026-08-28T17:49:04Z</time>
  <course>247.18</course>
  <speed>0.022360679774997897</speed>
  <fix>3d</fix>
</trkpt>
<trkpt lat="40.0713749" lon="-105.229789">
  <ele>1583.0</ele>
  <time>2026-08-28T17:49:04Z</time>
  <course>0.0</course>
  <speed>0.0</speed>
  <fix>3d</fix>
</trkpt>
<trkpt lat="40.0713751" lon="-105.2297889">
  <ele>1582.89</ele>
  <time>2026-08-28T17:49:04Z</time>
  <course>247.18</course>
  <speed>0.022360679774997897</speed>
  <fix>3d</fix>
</trkpt>
<trkpt lat="40.0713749" lon="-105.229789">
  <ele>1583.0</ele>
  <time>2026-08-28T17:49:04Z</time>
  <course>0.0</course>
  <speed>0.0</speed>
  <fix>3d</fix>
</trkpt>
<trkpt lat="40.0713751" lon="-105.2297889">
  <ele>1582.89</ele>
  <time>2026-08-28T17:49:04Z</time>
  <course>247.18</course>
  <speed>0.022360679774997897</speed>
  <fix>3d</fix>
</trkpt>
<trkpt lat="40.0713749" lon="-105.229789">
  <ele>1583.0</ele>
  <time>2026-08-28T17:49:04Z</time>
  <course>0.0</course>
  <speed>0.0</speed>
  <fix>3d</fix>
</trkpt>
<trkpt lat="40.0713751" lon="-105.2297889">
  <ele>1582.89</ele>
  <time>2026-08-28T17:49:04Z</time>
  <course>247.18</course>
  <speed>0.022360679774997897</speed>
  <fix>3d</fix>
</trkpt>
<trkpt lat="40.0713749" lon="-105.229789">
  <ele>1583.0</ele>
  <time>2026-08-28T17:49:04Z</time>
  <course>0.0</course>
  <speed>0.0</speed>
  <fix>3d</fix>
</trkpt>
<trkpt lat="40.0713751" lon="-105.2297889">
  <ele>1582.89</ele>
  <time>2026-08-28T17:49:04Z</time>
  <course>247.18</course>
  <speed>0.022360679774997897</speed>
  <fix>3d</fix>
</trkpt>
<trkpt lat="40.0713749" lon="-105.229789">
  <ele>1583.0</ele>
  <time>2026-08-28T17:49:04Z</time>
  <course>0.0</course>
  <speed>0.0</speed>
  <fix>3d</fix>
</trkpt>
<trkpt lat="40.0713751" lon="-105.2297889">
  <ele>1582.88</ele>
  <time>2026-08-28T17:49:04Z</time>
  <course>247.17</course>
  <speed>0.022360679774997897</speed>
  <fix>3d</fix>
</trkpt>
<trkpt lat="40.0713749" lon="-105.229789">
  <ele>1583.0</ele>
  <time>2026-08-28T17:49:04Z</time>
  <course>0.0</course>
  <speed>0.0</speed>
  <fix>3d</fix>
</trkpt>
<trkpt lat="40.0713751" lon="-105.2297889">
  <ele>1582.88</ele>
  <time>2026-08-28T17:49:04Z</time>
  <course>247.17</course>
  <speed>0.022360679774997897</speed>
  <fix>3d</fix>
</trkpt>
<trkpt lat="40.0713749" lon="-105.229789">
  <ele>1583.0</ele>
  <time>2026-08-28T17:49:04Z</time>
  <course>0.0</course>
  <speed>0.0</speed>
  <fix>3d</fix>
</trkpt>
<trkpt lat="40.0713751" lon="-105.2297889">
  <ele>1582.88</ele>
  <time>2026-08-28T17:49:04Z</time>
  <course>247.17</course>
  <speed>0.022360679774997897</speed>
  <fix>3d</fix>
</trkpt>
<trkpt lat="40.0713749" lon="-105.229789">
  <ele>1583.0</ele>
  <time>2026-08-28T17:49:04Z</time>
  <course>0.0</course>
  <speed>0.0</speed>
  <fix>3d</fix>
</trkpt>
<trkpt lat="40.0713751" lon="-105.2297889">
  <ele>1582.88</ele>
  <time>2026-08-28T17:49:04Z</time>
  <course>247.17</course>
  <speed>0.022360679774997897</speed>
  <fix>3d</fix>
</trkpt>
<trkpt lat="40.0713749" lon="-105.229789">
  <ele>1583.0</ele>
  <time>2026-08-28T17:49:04Z</time>
  <course>0.0</course>
  <speed>0.0</speed>
  <fix>3d</fix>
</trkpt>
<trkpt lat="40.0713751" lon="-105.2297889">
  <ele>1582.88</ele>
  <time>2026-08-28T17:49:04Z</time>
  <course>247.17</course>
  <speed>0.022360679774997897</speed>
  <fix>3d</fix>
</trkpt>
<trkpt lat="40.0713749" lon="-105.229789">
  <ele>1583.0</ele>
  <time>2026-08-28T17:49:04Z</time>
  <course>0.0</course>
  <speed>0.0</speed>
  <fix>3d</fix>
</trkpt>
<trkpt lat="40.0713751" lon="-105.2297889">
  <ele>1582.88</ele>
  <time>2026-08-28T17:49:04Z</time>
  <course>247.17</course>
  <speed>0.022360679774997897</speed>
  <fix>3d</fix>
</trkpt>
<trkpt lat="40.0713749" lon="-105.229789">
  <ele>1583.0</ele>
  <time>2026-08-28T17:49:04Z</time>
  <course>0.0</course>
  <speed>0.0</speed>
  <fix>3d</fix>
</trkpt>
<trkpt lat="40.0713751" lon="-105.2297889">
  <ele>1582.88</ele>
  <time>2026-08-28T17:49:04Z</time>
  <course>247.17</course>
  <speed>0.022360679774997897</speed>
  <fix>3d</fix>
</trkpt>
<trkpt lat="40.0713749" lon="-105.229789">
  <ele>1583.0</ele>
  <time>2026-08-28T17:49:04Z</time>
  <course>0.0</course>
  <speed>0.0</speed>
  <fix>3d</fix>
</trkpt>
<trkpt lat="40.0713751" lon="-105.2297889">
  <ele>1582.88</ele>
  <time>2026-08-28T17:49:04Z</time>
  <course>247.17</course>
  <speed>0.022360679774997897</speed>
  <fix>3d</fix>
</trkpt>
<trkpt lat="40.0713749" lon="-105.229789">
  <ele>1583.0</ele>
  <time>2026-08-28T17:49:04Z</time>
  <course>0.0</course>
  <speed>0.0</speed>
  <fix>3d</fix>
</trkpt>
<trkpt lat="40.0713751" lon="-105.2297889">
  <ele>1582.88</ele>
  <time>2026-08-28T17:49:04Z</time>
  <course>247.17</course>
  <speed>0.022360679774997897</speed>
  <fix>3d</fix>
</trkpt>
<trkpt lat="40.0713749" lon="-105.229789">
  <ele>1583.0</ele>
  <time>2026-08-28T17:49:04Z</time>
  <course>0.0</course>
  <speed>0.0</speed>
  <fix>3d</fix>
</trkpt>
<trkpt lat="40.0713751" lon="-105.2297889">
  <ele>1582.88</ele>
  <time>2026-08-28T17:49:04Z</time>
  <course>247.17</course>
  <speed>0.022360679774997897</speed>
  <fix>3d</fix>
</trkpt>
<trkpt lat="40.0713749" lon="-105.229789">
  <ele>1583.0</ele>
  <time>2026-08-28T17:49:04Z</time>
  <course>0.0</course>
  <speed>0.0</speed>
  <fix>3d</fix>
</trkpt>
<trkpt lat="40.0713751" lon="-105.2297889">
  <ele>1582.89</ele>
  <time>2026-08-28T17:49:04Z</time>
  <course>247.17</course>
  <speed>0.022360679774997897</speed>
  <fix>3d</fix>
</trkpt>
<trkpt lat="40.0713749" lon="-105.229789">
  <ele>1583.0</ele>
  <time>2026-08-28T17:49:04Z</time>
  <course>0.0</course>
  <speed>0.0</speed>
  <fix>3d</fix>
</trkpt>
<trkpt lat="40.0713751" lon="-105.2297889">
  <ele>1582.89</ele>
  <time>2026-08-28T17:49:04Z</time>
  <course>247.17</course>
  <speed>0.022360679774997897</speed>
  <fix>3d</fix>
</trkpt>
<trkpt lat="40.0713749" lon="-105.229789">
  <ele>1583.0</ele>
  <time>2026-08-28T17:49:04Z</time>
  <course>0.0</course>
  <speed>0.0</speed>
  <fix>3d</fix>
</trkpt>
<trkpt lat="40.0713751" lon="-105.2297889">
  <ele>1582.89</ele>
  <time>2026-08-28T17:49:04Z</time>
  <course>247.17</course>
  <speed>0.022360679774997897</speed>
  <fix>3d</fix>
</trkpt>
<trkpt lat="40.0713749" lon="-105.229789">
  <ele>1583.0</ele>
  <time>2026-08-28T17:49:04Z</time>
  <course>0.0</course>
  <speed>0.0</speed>
  <fix>3d</fix>
</trkpt>
<trkpt lat="40.0713751" lon="-105.2297889">
  <ele>1582.89</ele>
  <time>2026-08-28T17:49:04Z</time>
  <course>247.17</course>
  <speed>0.022360679774997897</speed>
  <fix>3d</fix>
</trkpt>
<trkpt lat="40.0713749" lon="-105.229789">
  <ele>1583.0</ele>
  <time>2026-08-28T17:49:04Z</time>
  <course>0.0</course>
  <speed>0.0</speed>
  <fix>3d</fix>
</trkpt>
<trkpt lat="40.0713751" lon="-105.2297889">
  <ele>1582.89</ele>
  <time>2026-08-28T17:49:04Z</time>
  <course>247.17</course>
  <speed>0.022360679774997897</speed>
  <fix>3d</fix>
</trkpt>
<trkpt lat="40.0713749" lon="-105.229789">
  <ele>1583.0</ele>
  <time>2026-08-28T17:49:04Z</time>
  <course>0.0</course>
  <speed>0.0</speed>
  <fix>3d</fix>
</trkpt>
<trkpt lat="40.0713751" lon="-105.2297889">
  <ele>1582.89</ele>
  <time>2026-08-28T17:49:04Z</time>
  <course>247.17</course>
  <speed>0.022360679774997897</speed>
  <fix>3d</fix>
</trkpt>
<trkpt lat="40.0713749" lon="-105.229789">
  <ele>1583.0</ele>
  <time>2026-08-28T17:49:04Z</time>
  <course>0.0</course>
  <speed>0.0</speed>
  <fix>3d</fix>
</trkpt>
<trkpt lat="40.0713751" lon="-105.2297889">
  <ele>1582.89</ele>
  <time>2026-08-28T17:49:04Z</time>
  <course>247.17</course>
  <speed>0.022360679774997897</speed>
  <fix>3d</fix>
</trkpt>
<trkpt lat="40.0713749" lon="-105.229789">
  <ele>1583.0</ele>
  <time>2026-08-28T17:49:04Z</time>
  <course>0.0</course>
  <speed>0.0</speed>
  <fix>3d</fix>
</trkpt>
<trkpt lat="40.0713751" lon="-105.2297889">
  <ele>1582.89</ele>
  <time>2026-08-28T17:49:04Z</time>
  <course>247.17</course>
  <speed>0.022360679774997897</speed>
  <fix>3d</fix>
</trkpt>
<trkpt lat="40.0713749" lon="-105.229789">
  <ele>1583.0</ele>
  <time>2026-08-28T17:49:04Z</time>
  <course>0.0</course>
  <speed>0.0</speed>
  <fix>3d</fix>
</trkpt>
<trkpt lat="40.0713751" lon="-105.2297889">
  <ele>1582.88</ele>
  <time>2026-08-28T17:49:04Z</time>
  <course>247.17</course>
  <speed>0.022360679774997897</speed>
  <fix>3d</fix>
</trkpt>
<trkpt lat="40.0713749" lon="-105.229789">
  <ele>1583.0</ele>
  <time>2026-08-28T17:49:04Z</time>
  <course>0.0</course>
  <speed>0.0</speed>
  <fix>3d</fix>
</trkpt>
<trkpt lat="40.0713751" lon="-105.2297889">
  <ele>1582.88</ele>
  <time>2026-08-28T17:49:04Z</time>
  <course>247.17</course>
  <speed>0.022360679774997897</speed>
  <fix>3d</fix>
</trkpt>
<trkpt lat="40.0713749" lon="-105.229789">
  <ele>1583.0</ele>
  <time>2026-08-28T17:49:04Z</time>
  <course>0.0</course>
  <speed>0.0</speed>
  <fix>3d</fix>
</trkpt>
<trkpt lat="40.0713751" lon="-105.2297889">
  <ele>1582.88</ele>
  <time>2026-08-28T17:49:04Z</time>
  <course>247.16</course>
  <speed>0.022360679774997897</speed>
  <fix>3d</fix>
</trkpt>
<trkpt lat="40.0713749" lon="-105.229789">
  <ele>1583.0</ele>
  <time>2026-08-28T17:49:04Z</time>
  <course>0.0</course>
  <speed>0.0</speed>
  <fix>3d</fix>
</trkpt>
<trkpt lat="40.0713751" lon="-105.2297889">
  <ele>1582.88</ele>
  <time>2026-08-28T17:49:04Z</time>
  <course>247.16</course>
  <speed>0.022360679774997897</speed>
  <fix>3d</fix>
</trkpt>
<trkpt lat="40.0713749" lon="-105.229789">
  <ele>1583.0</ele>
  <time>2026-08-28T17:49:04Z</time>
  <course>0.0</course>
  <speed>0.0</speed>
  <fix>3d</fix>
</trkpt>
<trkpt lat="40.0713751" lon="-105.2297889">
  <ele>1582.87</ele>
  <time>2026-08-28T17:49:04Z</time>
  <course>247.16</course>
  <speed>0.022360679774997897</speed>
  <fix>3d</fix>
</trkpt>
<trkpt lat="40.0713749" lon="-105.229789">
  <ele>1583.0</ele>
  <time>2026-08-28T17:49:04Z</time>
  <course>0.0</course>
  <speed>0.0</speed>
  <fix>3d</fix>
</trkpt>
<trkpt lat="40.0713751" lon="-105.2297889">
  <ele>1582.87</ele>
  <time>2026-08-28T17:49:04Z</time>
  <course>247.16</course>
  <speed>0.022360679774997897</speed>
  <fix>3d</fix>
</trkpt>
<trkpt lat="40.0713749" lon="-105.229789">
  <ele>1583.0</ele>
  <time>2026-08-28T17:49:04Z</time>
  <course>0.0</course>
  <speed>0.0</speed>
  <fix>3d</fix>
</trkpt>
<trkpt lat="40.0713751" lon="-105.2297889">
  <ele>1582.88</ele>
  <time>2026-08-28T17:49:04Z</time>
  <course>247.16</course>
  <speed>0.022360679774997897</speed>
  <fix>3d</fix>
</trkpt>
<trkpt lat="40.0713749" lon="-105.229789">
  <ele>1583.0</ele>
  <time>2026-08-28T17:49:04Z</time>
  <course>0.0</course>
  <speed>0.0</speed>
  <fix>3d</fix>
</trkpt>
<trkpt lat="40.0713751" lon="-105.2297889">
  <ele>1582.88</ele>
  <time>2026-08-28T17:49:04Z</time>
  <course>247.16</course>
  <speed>0.022360679774997897</speed>
  <fix>3d</fix>
</trkpt>
<trkpt lat="40.0713749" lon="-105.229789">
  <ele>1583.0</ele>
  <time>2026-08-28T17:49:04Z</time>
  <course>0.0</course>
  <speed>0.0</speed>
  <fix>3d</fix>
</trkpt>
<trkpt lat="40.0713751" lon="-105.2297889">
  <ele>1582.89</ele>
  <time>2026-08-28T17:49:04Z</time>
  <course>247.16</course>
  <speed>0.022360679774997897</speed>
  <fix>3d</fix>
</trkpt>
<trkpt lat="40.0713749" lon="-105.229789">
  <ele>1583.0</ele>
  <time>2026-08-28T17:49:04Z</time>
  <course>0.0</course>
  <speed>0.0</speed>
  <fix>3d</fix>
</trkpt>
<trkpt lat="40.0713751" lon="-105.2297889">
  <ele>1582.9</ele>
  <time>2026-08-28T17:49:04Z</time>
  <course>247.16</course>
  <speed>0.022360679774997897</speed>
  <fix>3d</fix>
</trkpt>
<trkpt lat="40.0713749" lon="-105.229789">
  <ele>1583.0</ele>
  <time>2026-08-28T17:49:04Z</time>
  <course>0.0</course>
  <speed>0.0</speed>
  <fix>3d</fix>
</trkpt>
<trkpt lat="40.0713751" lon="-105.2297889">
  <ele>1582.92</ele>
  <time>2026-08-28T17:49:04Z</time>
  <course>247.16</course>
  <speed>0.022360679774997897</speed>
  <fix>3d</fix>
</trkpt>
<trkpt lat="40.0713749" lon="-105.229789">
  <ele>1583.0</ele>
  <time>2026-08-28T17:49:04Z</time>
  <course>0.0</course>
  <speed>0.0</speed>
  <fix>3d</fix>
</trkpt>
<trkpt lat="40.0713751" lon="-105.2297889">
  <ele>1582.93</ele>
  <time>2026-08-28T17:49:04Z</time>
  <course>247.16</course>
  <speed>0.022360679774997897</speed>
  <fix>3d</fix>
</trkpt>
<trkpt lat="40.0713749" lon="-105.229789">
  <ele>1583.0</ele>
  <time>2026-08-28T17:49:04Z</time>
  <course>0.0</course>
  <speed>0.0</speed>
  <fix>3d</fix>
</trkpt>
<trkpt lat="40.0713751" lon="-105.2297889">
  <ele>1582.95</ele>
  <time>2026-08-28T17:49:04Z</time>
  <course>247.16</course>
  <speed>0.022360679774997897</speed>
  <fix>3d</fix>
</trkpt>
<trkpt lat="40.0713749" lon="-105.229789">
  <ele>1583.0</ele>
  <time>2026-08-28T17:49:04Z</time>
  <course>0.0</course>
  <speed>0.0</speed>
  <fix>3d</fix>
</trkpt>
<trkpt lat="40.0713751" lon="-105.2297889">
  <ele>1582.96</ele>
  <time>2026-08-28T17:49:04Z</time>
  <course>247.16</course>
  <speed>0.022360679774997897</speed>
  <fix>3d</fix>
</trkpt>
<trkpt lat="40.0713749" lon="-105.229789">
  <ele>1583.0</ele>
  <time>2026-08-28T17:49:04Z</time>
  <course>0.0</course>
  <speed>0.0</speed>
  <fix>3d</fix>
</trkpt>
<trkpt lat="40.0713751" lon="-105.2297889">
  <ele>1582.97</ele>
  <time>2026-08-28T17:49:04Z</time>
  <course>247.16</course>
  <speed>0.022360679774997897</speed>
  <fix>3d</fix>
</trkpt>
<trkpt lat="40.0713749" lon="-105.229789">
  <ele>1583.0</ele>
  <time>2026-08-28T17:49:04Z</time>
  <course>0.0</course>
  <speed>0.0</speed>
  <fix>3d</fix>
</trkpt>
<trkpt lat="40.0713751" lon="-105.2297889">
  <ele>1582.98</ele>
  <time>2026-08-28T17:49:04Z</time>
  <course>247.16</course>
  <speed>0.022360679774997897</speed>
  <fix>3d</fix>
</trkpt>
<trkpt lat="40.0713749" lon="-105.229789">
  <ele>1583.0</ele>
  <time>2026-08-28T17:49:04Z</time>
  <course>0.0</course>
  <speed>0.0</speed>
  <fix>3d</fix>
</trkpt>
<trkpt lat="40.0713751" lon="-105.2297889">
  <ele>1582.98</ele>
  <time>2026-08-28T17:49:04Z</time>
  <course>247.16</course>
  <speed>0.022360679774997897</speed>
  <fix>3d</fix>
</trkpt>
<trkpt lat="40.0713749" lon="-105.229789">
  <ele>1583.0</ele>
  <time>2026-08-28T17:49:04Z</time>
  <course>0.0</course>
  <speed>0.0</speed>
  <fix>3d</fix>
</trkpt>
<trkpt lat="40.0713751" lon="-105.2297889">
  <ele>1582.98</ele>
  <time>2026-08-28T17:49:04Z</time>
  <course>247.16</course>
  <speed>0.022360679774997897</speed>
  <fix>3d</fix>
</trkpt>
<trkpt lat="40.0713749" lon="-105.229789">
  <ele>1583.0</ele>
  <time>2026-08-28T17:49:04Z</time>
  <course>0.0</course>
  <speed>0.0</speed>
  <fix>3d</fix>
</trkpt>
<trkpt lat="40.0713751" lon="-105.2297889">
  <ele>1582.97</ele>
  <time>2026-08-28T17:49:04Z</time>
  <course>247.16</course>
  <speed>0.022360679774997897</speed>
  <fix>3d</fix>
</trkpt>
<trkpt lat="40.0713749" lon="-105.229789">
  <ele>1583.0</ele>
  <time>2026-08-28T17:49:04Z</time>
  <course>0.0</course>
  <speed>0.0</speed>
  <fix>3d</fix>
</trkpt>
<trkpt lat="40.0713751" lon="-105.2297889">
  <ele>1582.97</ele>
  <time>2026-08-28T17:49:04Z</time>
  <course>247.16</course>
  <speed>0.022360679774997897</speed>
  <fix>3d</fix>
</trkpt>
<trkpt lat="40.0713749" lon="-105.229789">
  <ele>1583.0</ele>
  <time>2026-08-28T17:49:04Z</time>
  <course>0.0</course>
  <speed>0.0</speed>
  <fix>3d</fix>
</trkpt>
<trkpt lat="40.0713751" lon="-105.2297889">
  <ele>1582.96</ele>
  <time>2026-08-28T17:49:04Z</time>
  <course>247.16</course>
  <speed>0.022360679774997897</speed>
  <fix>3d</fix>
</trkpt>
<trkpt lat="40.0713749" lon="-105.229789">
  <ele>1583.0</ele>
  <time>2026-08-28T17:49:04Z</time>
  <course>0.0</course>
  <speed>0.0</speed>
  <fix>3d</fix>
</trkpt>
<trkpt lat="40.0713751" lon="-105.2297889">
  <ele>1582.96</ele>
  <time>2026-08-28T17:49:04Z</time>
  <course>247.16</course>
  <speed>0.022360679774997897</speed>
  <fix>3d</fix>
</trkpt>
<trkpt lat="40.0713749" lon="-105.229789">
  <ele>1583.0</ele>
  <time>2026-08-28T17:49:04Z</time>
  <course>0.0</course>
  <speed>0.0</speed>
  <fix>3d</fix>
</trkpt>
<trkpt lat="40.0713751" lon="-105.2297889">
  <ele>1582.96</ele>
  <time>2026-08-28T17:49:04Z</time>
  <course>247.16</course>
  <speed>0.022360679774997897</speed>
  <fix>3d</fix>
</trkpt>
<trkpt lat="40.0713749" lon="-105.229789">
  <ele>1583.0</ele>
  <time>2026-08-28T17:49:04Z</time>
  <course>0.0</course>
  <speed>0.0</speed>
  <fix>3d</fix>
</trkpt>
<trkpt lat="40.0713751" lon="-105.2297889">
  <ele>1582.95</ele>
  <time>2026-08-28T17:49:04Z</time>
  <course>247.15</course>
  <speed>0.022360679774997897</speed>
  <fix>3d</fix>
</trkpt>
<trkpt lat="40.0713749" lon="-105.229789">
  <ele>1583.0</ele>
  <time>2026-08-28T17:49:04Z</time>
  <course>0.0</course>
  <speed>0.0</speed>
  <fix>3d</fix>
</trkpt>
<trkpt lat="40.0713751" lon="-105.2297889">
  <ele>1582.95</ele>
  <time>2026-08-28T17:49:04Z</time>
  <course>247.15</course>
  <speed>0.022360679774997897</speed>
  <fix>3d</fix>
</trkpt>
<trkpt lat="40.0713749" lon="-105.229789">
  <ele>1583.0</ele>
  <time>2026-08-28T17:49:04Z</time>
  <course>0.0</course>
  <speed>0.0</speed>
  <fix>3d</fix>
</trkpt>
<trkpt lat="40.0713751" lon="-105.2297889">
  <ele>1582.95</ele>
  <time>2026-08-28T17:49:04Z</time>
  <course>247.15</course>
  <speed>0.022360679774997897</speed>
  <fix>3d</fix>
</trkpt>
<trkpt lat="40.0713749" lon="-105.229789">
  <ele>1583.0</ele>
  <time>2026-08-28T17:49:04Z</time>
  <course>0.0</course>
  <speed>0.0</speed>
  <fix>3d</fix>
</trkpt>
<trkpt lat="40.0713751" lon="-105.2297889">
  <ele>1582.95</ele>
  <time>2026-08-28T17:49:04Z</time>
  <course>247.15</course>
  <speed>0.022360679774997897</speed>
  <fix>3d</fix>
</trkpt>
<trkpt lat="40.0713749" lon="-105.229789">
  <ele>1583.0</ele>
  <time>2026-08-28T17:49:04Z</time>
  <course>0.0</course>
  <speed>0.0</speed>
  <fix>3d</fix>
</trkpt>
<trkpt lat="40.0713751" lon="-105.2297889">
  <ele>1582.96</ele>
  <time>2026-08-28T17:49:04Z</time>
  <course>247.15</course>
  <speed>0.022360679774997897</speed>
  <fix>3d</fix>
</trkpt>
<trkpt lat="40.0713749" lon="-105.229789">
  <ele>1583.0</ele>
  <time>2026-08-28T17:49:04Z</time>
  <course>0.0</course>
  <speed>0.0</speed>
  <fix>3d</fix>
</trkpt>
<trkpt lat="40.0713751" lon="-105.2297889">
  <ele>1582.97</ele>
  <time>2026-08-28T17:49:04Z</time>
  <course>247.15</course>
  <speed>0.022360679774997897</speed>
  <fix>3d</fix>
</trkpt>
<trkpt lat="40.0713749" lon="-105.229789">
  <ele>1583.0</ele>
  <time>2026-08-28T17:49:04Z</time>
  <course>0.0</course>
  <speed>0.0</speed>
  <fix>3d</fix>
</trkpt>
<trkpt lat="40.0713751" lon="-105.2297889">
  <ele>1582.98</ele>
  <time>2026-08-28T17:49:04Z</time>
  <course>247.15</course>
  <speed>0.022360679774997897</speed>
  <fix>3d</fix>
</trkpt>
<trkpt lat="40.0713749" lon="-105.229789">
  <ele>1583.0</ele>
  <time>2026-08-28T17:49:04Z</time>
  <course>0.0</course>
  <speed>0.0</speed>
  <fix>3d</fix>
</trkpt>
<trkpt lat="40.0713751" lon="-105.2297889">
  <ele>1582.99</ele>
  <time>2026-08-28T17:49:04Z</time>
  <course>247.15</course>
  <speed>0.022360679774997897</speed>
  <fix>3d</fix>
</trkpt>
<trkpt lat="40.0713749" lon="-105.229789">
  <ele>1583.0</ele>
  <time>2026-08-28T17:49:04Z</time>
  <course>0.0</course>
  <speed>0.0</speed>
  <fix>3d</fix>
</trkpt>
<trkpt lat="40.0713751" lon="-105.2297889">
  <ele>1583.0</ele>
  <time>2026-08-28T17:49:04Z</time>
  <course>247.15</course>
  <speed>0.022360679774997897</speed>
  <fix>3d</fix>
</trkpt>
<trkpt lat="40.0713749" lon="-105.229789">
  <ele>1583.0</ele>
  <time>2026-08-28T17:49:04Z</time>
  <course>0.0</course>
  <speed>0.0</speed>
  <fix>3d</fix>
</trkpt>
<trkpt lat="40.0713751" lon="-105.2297889">
  <ele>1583.0</ele>
  <time>2026-08-28T17:49:04Z</time>
  <course>247.15</course>
  <speed>0.022360679774997897</speed>
  <fix>3d</fix>
</trkpt>
<trkpt lat="40.0713749" lon="-105.229789">
  <ele>1583.0</ele>
  <time>2026-08-28T17:49:04Z</time>
  <course>0.0</course>
  <speed>0.0</speed>
  <fix>3d</fix>
</trkpt>
<trkpt lat="40.0713751" lon="-105.2297889">
  <ele>1583.01</ele>
  <time>2026-08-28T17:49:04Z</time>
  <course>247.15</course>
  <speed>0.022360679774997897</speed>
  <fix>3d</fix>
</trkpt>
<trkpt lat="40.0713749" lon="-105.229789">
  <ele>1583.0</ele>
  <time>2026-08-28T17:49:04Z</time>
  <course>0.0</course>
  <speed>0.0</speed>
  <fix>3d</fix>
</trkpt>
<trkpt lat="40.0713751" lon="-105.2297889">
  <ele>1583.02</ele>
  <time>2026-08-28T17:49:04Z</time>
  <course>247.15</course>
  <speed>0.022360679774997897</speed>
  <fix>3d</fix>
</trkpt>
<trkpt lat="40.0713749" lon="-105.229789">
  <ele>1583.0</ele>
  <time>2026-08-28T17:49:04Z</time>
  <course>0.0</course>
  <speed>0.0</speed>
  <fix>3d</fix>
</trkpt>
<trkpt lat="40.0713751" lon="-105.2297889">
  <ele>1583.02</ele>
  <time>2026-08-28T17:49:04Z</time>
  <course>247.15</course>
  <speed>0.022360679774997897</speed>
  <fix>3d</fix>
</trkpt>
<trkpt lat="40.0713749" lon="-105.229789">
  <ele>1583.0</ele>
  <time>2026-08-28T17:49:04Z</time>
  <course>0.0</course>
  <speed>0.0</speed>
  <fix>3d</fix>
</trkpt>
<trkpt lat="40.071375" lon="-105.2297889">
  <ele>1583.03</ele>
  <time>2026-08-28T17:49:04Z</time>
  <course>247.15</course>
  <speed>0.022360679774997897</speed>
  <fix>3d</fix>
</trkpt>
<trkpt lat="40.0713749" lon="-105.229789">
  <ele>1583.0</ele>
  <time>2026-08-28T17:49:04Z</time>
  <course>0.0</course>
  <speed>0.0</speed>
  <fix>3d</fix>
</trkpt>
<trkpt lat="40.0713751" lon="-105.2297889">
  <ele>1583.03</ele>
  <time>2026-08-28T17:49:04Z</time>
  <course>247.15</course>
  <speed>0.022360679774997897</speed>
  <fix>3d</fix>
</trkpt>
<trkpt lat="40.0713749" lon="-105.229789">
  <ele>1583.0</ele>
  <time>2026-08-28T17:49:04Z</time>
  <course>0.0</course>
  <speed>0.0</speed>
  <fix>3d</fix>
</trkpt>
<trkpt lat="40.071375" lon="-105.2297889">
  <ele>1583.03</ele>
  <time>2026-08-28T17:49:04Z</time>
  <course>247.15</course>
  <speed>0.022360679774997897</speed>
  <fix>3d</fix>
</trkpt>
<trkpt lat="40.0713749" lon="-105.229789">
  <ele>1583.0</ele>
  <time>2026-08-28T17:49:04Z</time>
  <course>0.0</course>
  <speed>0.0</speed>
  <fix>3d</fix>
</trkpt>
<trkpt lat="40.0713751" lon="-105.2297889">
  <ele>1583.03</ele>
  <time>2026-08-28T17:49:04Z</time>
  <course>247.15</course>
  <speed>0.022360679774997897</speed>
  <fix>3d</fix>
</trkpt>
<trkpt lat="40.0713749" lon="-105.229789">
  <ele>1583.0</ele>
  <time>2026-08-28T17:49:04Z</time>
  <course>0.0</course>
  <speed>0.0</speed>
  <fix>3d</fix>
</trkpt>
<trkpt lat="40.071375" lon="-105.2297889">
  <ele>1583.03</ele>
  <time>2026-08-28T17:49:04Z</time>
  <course>247.15</course>
  <speed>0.022360679774997897</speed>
  <fix>3d</fix>
</trkpt>
<trkpt lat="40.0713749" lon="-105.229789">
  <ele>1583.0</ele>
  <time>2026-08-28T17:49:04Z</time>
  <course>0.0</course>
  <speed>0.0</speed>
  <fix>3d</fix>
</trkpt>
<trkpt lat="40.0713751" lon="-105.2297889">
  <ele>1583.03</ele>
  <time>2026-08-28T17:49:04Z</time>
  <course>247.15</course>
  <speed>0.022360679774997897</speed>
  <fix>3d</fix>
</trkpt>
<trkpt lat="40.0713749" lon="-105.229789">
  <ele>1583.0</ele>
  <time>2026-08-28T17:49:04Z</time>
  <course>0.0</course>
  <speed>0.0</speed>
  <fix>3d</fix>
</trkpt>
<trkpt lat="40.071375" lon="-105.2297889">
  <ele>1583.03</ele>
  <time>2026-08-28T17:49:04Z</time>
  <course>247.15</course>
  <speed>0.022360679774997897</speed>
  <fix>3d</fix>
</trkpt>
<trkpt lat="40.0713749" lon="-105.229789">
  <ele>1583.0</ele>
  <time>2026-08-28T17:49:04Z</time>
  <course>0.0</course>
  <speed>0.0</speed>
  <fix>3d</fix>
</trkpt>
<trkpt lat="40.0713751" lon="-105.2297889">
  <ele>1583.02</ele>
  <time>2026-08-28T17:49:04Z</time>
  <course>247.15</course>
  <speed>0.022360679774997897</speed>
  <fix>3d</fix>
</trkpt>
<trkpt lat="40.0713749" lon="-105.229789">
  <ele>1583.0</ele>
  <time>2026-08-28T17:49:04Z</time>
  <course>0.0</course>
  <speed>0.0</speed>
  <fix>3d</fix>
</trkpt>
<trkpt lat="40.071375" lon="-105.2297889">
  <ele>1583.02</ele>
  <time>2026-08-28T17:49:04Z</time>
  <course>247.14</course>
  <speed>0.022360679774997897</speed>
  <fix>3d</fix>
</trkpt>
<trkpt lat="40.0713749" lon="-105.229789">
  <ele>1583.0</ele>
  <time>2026-08-28T17:49:04Z</time>
  <course>0.0</course>
  <speed>0.0</speed>
  <fix>3d</fix>
</trkpt>
<trkpt lat="40.0713751" lon="-105.2297889">
  <ele>1583.02</ele>
  <time>2026-08-28T17:49:04Z</time>
  <course>247.14</course>
  <speed>0.022360679774997897</speed>
  <fix>3d</fix>
</trkpt>
<trkpt lat="40.0713749" lon="-105.229789">
  <ele>1583.0</ele>
  <time>2026-08-28T17:49:04Z</time>
  <course>0.0</course>
  <speed>0.0</speed>
  <fix>3d</fix>
</trkpt>
<trkpt lat="40.0713751" lon="-105.2297889">
  <ele>1583.02</ele>
  <time>2026-08-28T17:49:04Z</time>
  <course>247.14</course>
  <speed>0.022360679774997897</speed>
  <fix>3d</fix>
</trkpt>
<trkpt lat="40.0713749" lon="-105.229789">
  <ele>1583.0</ele>
  <time>2026-08-28T17:49:04Z</time>
  <course>0.0</course>
  <speed>0.0</speed>
  <fix>3d</fix>
</trkpt>
<trkpt lat="40.0713751" lon="-105.2297889">
  <ele>1583.02</ele>
  <time>2026-08-28T17:49:04Z</time>
  <course>247.14</course>
  <speed>0.022360679774997897</speed>
  <fix>3d</fix>
</trkpt>
<trkpt lat="40.0713749" lon="-105.229789">
  <ele>1583.0</ele>
  <time>2026-08-28T17:49:04Z</time>
  <course>0.0</course>
  <speed>0.0</speed>
  <fix>3d</fix>
</trkpt>
<trkpt lat="40.0713751" lon="-105.2297889">
  <ele>1583.02</ele>
  <time>2026-08-28T17:49:04Z</time>
  <course>247.14</course>
  <speed>0.022360679774997897</speed>
  <fix>3d</fix>
</trkpt>
<trkpt lat="40.0713749" lon="-105.229789">
  <ele>1583.0</ele>
  <time>2026-08-28T17:49:04Z</time>
  <course>0.0</course>
  <speed>0.0</speed>
  <fix>3d</fix>
</trkpt>
<trkpt lat="40.0713751" lon="-105.2297889">
  <ele>1583.03</ele>
  <time>2026-08-28T17:49:04Z</time>
  <course>247.14</course>
  <speed>0.022360679774997897</speed>
  <fix>3d</fix>
</trkpt>
<trkpt lat="40.0713749" lon="-105.229789">
  <ele>1583.0</ele>
  <time>2026-08-28T17:49:04Z</time>
  <course>0.0</course>
  <speed>0.0</speed>
  <fix>3d</fix>
</trkpt>
<trkpt lat="40.0713751" lon="-105.2297889">
  <ele>1583.03</ele>
  <time>2026-08-28T17:49:04Z</time>
  <course>247.14</course>
  <speed>0.022360679774997897</speed>
  <fix>3d</fix>
</trkpt>
<trkpt lat="40.0713749" lon="-105.229789">
  <ele>1583.0</ele>
  <time>2026-08-28T17:49:04Z</time>
  <course>0.0</course>
  <speed>0.0</speed>
  <fix>3d</fix>
</trkpt>
<trkpt lat="40.0713751" lon="-105.2297889">
  <ele>1583.03</ele>
  <time>2026-08-28T17:49:04Z</time>
  <course>247.14</course>
  <speed>0.022360679774997897</speed>
  <fix>3d</fix>
</trkpt>
<trkpt lat="40.0713749" lon="-105.229789">
  <ele>1583.0</ele>
  <time>2026-08-28T17:49:04Z</time>
  <course>0.0</course>
  <speed>0.0</speed>
  <fix>3d</fix>
</trkpt>
<trkpt lat="40.0713751" lon="-105.2297889">
  <ele>1583.03</ele>
  <time>2026-08-28T17:49:04Z</time>
  <course>247.14</course>
  <speed>0.022360679774997897</speed>
  <fix>3d</fix>
</trkpt>
<trkpt lat="40.0713749" lon="-105.229789">
  <ele>1583.0</ele>
  <time>2026-08-28T17:49:04Z</time>
  <course>0.0</course>
  <speed>0.0</speed>
  <fix>3d</fix>
</trkpt>
<trkpt lat="40.0713751" lon="-105.2297889">
  <ele>1583.03</ele>
  <time>2026-08-28T17:49:04Z</time>
  <course>247.14</course>
  <speed>0.022360679774997897</speed>
  <fix>3d</fix>
</trkpt>
<trkpt lat="40.0713749" lon="-105.229789">
  <ele>1583.0</ele>
  <time>2026-08-28T17:49:04Z</time>
  <course>0.0</course>
  <speed>0.0</speed>
  <fix>3d</fix>
</trkpt>
<trkpt lat="40.071375" lon="-105.2297889">
  <ele>1583.03</ele>
  <time>2026-08-28T17:49:04Z</time>
  <course>247.14</course>
  <speed>0.022360679774997897</speed>
  <fix>3d</fix>
</trkpt>
<trkpt lat="40.0713749" lon="-105.229789">
  <ele>1583.0</ele>
  <time>2026-08-28T17:49:04Z</time>
  <course>0.0</course>
  <speed>0.0</speed>
  <fix>3d</fix>
</trkpt>
<trkpt lat="40.0713751" lon="-105.2297889">
  <ele>1583.03</ele>
  <time>2026-08-28T17:49:04Z</time>
  <course>247.14</course>
  <speed>0.022360679774997897</speed>
  <fix>3d</fix>
</trkpt>
<trkpt lat="40.0713749" lon="-105.229789">
  <ele>1583.0</ele>
  <time>2026-08-28T17:49:04Z</time>
  <course>0.0</course>
  <speed>0.0</speed>
  <fix>3d</fix>
</trkpt>
<trkpt lat="40.071375" lon="-105.2297889">
  <ele>1583.03</ele>
  <time>2026-08-28T17:49:04Z</time>
  <course>247.14</course>
  <speed>0.022360679774997897</speed>
  <fix>3d</fix>
</trkpt>
<trkpt lat="40.0713749" lon="-105.229789">
  <ele>1583.0</ele>
  <time>2026-08-28T17:49:04Z</time>
  <course>0.0</course>
  <speed>0.0</speed>
  <fix>3d</fix>
</trkpt>
<trkpt lat="40.071375" lon="-105.2297889">
  <ele>1583.03</ele>
  <time>2026-08-28T17:49:04Z</time>
  <course>247.14</course>
  <speed>0.022360679774997897</speed>
  <fix>3d</fix>
</trkpt>
<trkpt lat="40.0713749" lon="-105.229789">
  <ele>1583.0</ele>
  <time>2026-08-28T17:49:04Z</time>
  <course>0.0</course>
  <speed>0.0</speed>
  <fix>3d</fix>
</trkpt>
<trkpt lat="40.071375" lon="-105.2297889">
  <ele>1583.04</ele>
  <time>2026-08-28T17:49:04Z</time>
  <course>247.14</course>
  <speed>0.022360679774997897</speed>
  <fix>3d</fix>
</trkpt>
<trkpt lat="40.0713749" lon="-105.229789">
  <ele>1583.0</ele>
  <time>2026-08-28T17:49:04Z</time>
  <course>0.0</course>
  <speed>0.0</speed>
  <fix>3d</fix>
</trkpt>
<trkpt lat="40.071375" lon="-105.2297889">
  <ele>1583.05</ele>
  <time>2026-08-28T17:49:04Z</time>
  <course>247.14</course>
  <speed>0.022360679774997897</speed>
  <fix>3d</fix>
</trkpt>
<trkpt lat="40.0713749" lon="-105.229789">
  <ele>1583.0</ele>
  <time>2026-08-28T17:49:04Z</time>
  <course>0.0</course>
  <speed>0.0</speed>
  <fix>3d</fix>
</trkpt>
<trkpt lat="40.071375" lon="-105.2297889">
  <ele>1583.05</ele>
  <time>2026-08-28T17:49:04Z</time>
  <course>247.14</course>
  <speed>0.022360679774997897</speed>
  <fix>3d</fix>
</trkpt>
<trkpt lat="40.0713749" lon="-105.229789">
  <ele>1583.0</ele>
  <time>2026-08-28T17:49:04Z</time>
  <course>0.0</course>
  <speed>0.0</speed>
  <fix>3d</fix>
</trkpt>
<trkpt lat="40.071375" lon="-105.2297889">
  <ele>1583.06</ele>
  <time>2026-08-28T17:49:04Z</time>
  <course>247.14</course>
  <speed>0.022360679774997897</speed>
  <fix>3d</fix>
</trkpt>
<trkpt lat="40.0713749" lon="-105.229789">
  <ele>1583.0</ele>
  <time>2026-08-28T17:49:04Z</time>
  <course>0.0</course>
  <speed>0.0</speed>
  <fix>3d</fix>
</trkpt>
<trkpt lat="40.071375" lon="-105.2297889">
  <ele>1583.06</ele>
  <time>2026-08-28T17:49:04Z</time>
  <course>247.14</course>
  <speed>0.022360679774997897</speed>
  <fix>3d</fix>
</trkpt>
<trkpt lat="40.0713749" lon="-105.229789">
  <ele>1583.0</ele>
  <time>2026-08-28T17:49:04Z</time>
  <course>0.0</course>
  <speed>0.0</speed>
  <fix>3d</fix>
</trkpt>
<trkpt lat="40.0713751" lon="-105.2297889">
  <ele>1583.07</ele>
  <time>2026-08-28T17:49:04Z</time>
  <course>247.14</course>
  <speed>0.022360679774997897</speed>
  <fix>3d</fix>
</trkpt>
<trkpt lat="40.0713749" lon="-105.229789">
  <ele>1583.0</ele>
  <time>2026-08-28T17:49:04Z</time>
  <course>0.0</course>
  <speed>0.0</speed>
  <fix>3d</fix>
</trkpt>
<trkpt lat="40.071375" lon="-105.2297889">
  <ele>1583.08</ele>
  <time>2026-08-28T17:49:04Z</time>
  <course>247.14</course>
  <speed>0.022360679774997897</speed>
  <fix>3d</fix>
</trkpt>
<trkpt lat="40.0713749" lon="-105.229789">
  <ele>1583.0</ele>
  <time>2026-08-28T17:49:04Z</time>
  <course>0.0</course>
  <speed>0.0</speed>
  <fix>3d</fix>
</trkpt>
<trkpt lat="40.0713751" lon="-105.2297889">
  <ele>1583.08</ele>
  <time>2026-08-28T17:49:04Z</time>
  <course>247.14</course>
  <speed>0.022360679774997897</speed>
  <fix>3d</fix>
</trkpt>
<trkpt lat="40.0713749" lon="-105.229789">
  <ele>1583.0</ele>
  <time>2026-08-28T17:49:04Z</time>
  <course>0.0</course>
  <speed>0.0</speed>
  <fix>3d</fix>
</trkpt>
<trkpt lat="40.071375" lon="-105.2297889">
  <ele>1583.08</ele>
  <time>2026-08-28T17:49:04Z</time>
  <course>247.14</course>
  <speed>0.022360679774997897</speed>
  <fix>3d</fix>
</trkpt>
<trkpt lat="40.0713749" lon="-105.229789">
  <ele>1583.0</ele>
  <time>2026-08-28T17:49:04Z</time>
  <course>0.0</course>
  <speed>0.0</speed>
  <fix>3d</fix>
</trkpt>
<trkpt lat="40.0713751" lon="-105.2297889">
  <ele>1583.09</ele>
  <time>2026-08-28T17:49:04Z</time>
  <course>247.14</course>
  <speed>0.022360679774997897</speed>
  <fix>3d</fix>
</trkpt>
<trkpt lat="40.0713749" lon="-105.229789">
  <ele>1583.0</ele>
  <time>2026-08-28T17:49:04Z</time>
  <course>0.0</course>
  <speed>0.0</speed>
  <fix>3d</fix>
</trkpt>
<trkpt lat="40.071375" lon="-105.2297889">
  <ele>1583.09</ele>
  <time>2026-08-28T17:49:04Z</time>
  <course>247.14</course>
  <speed>0.022360679774997897</speed>
  <fix>3d</fix>
</trkpt>
<trkpt lat="40.0713749" lon="-105.229789">
  <ele>1583.0</ele>
  <time>2026-08-28T17:49:04Z</time>
  <course>0.0</course>
  <speed>0.0</speed>
  <fix>3d</fix>
</trkpt>
<trkpt lat="40.0713751" lon="-105.2297889">
  <ele>1583.1</ele>
  <time>2026-08-28T17:49:04Z</time>
  <course>247.14</course>
  <speed>0.022360679774997897</speed>
  <fix>3d</fix>
</trkpt>
<trkpt lat="40.0713749" lon="-105.229789">
  <ele>1583.0</ele>
  <time>2026-08-28T17:49:04Z</time>
  <course>0.0</course>
  <speed>0.0</speed>
  <fix>3d</fix>
</trkpt>
<trkpt lat="40.071375" lon="-105.2297889">
  <ele>1583.1</ele>
  <time>2026-08-28T17:49:04Z</time>
  <course>247.14</course>
  <speed>0.022360679774997897</speed>
  <fix>3d</fix>
</trkpt>
<trkpt lat="40.0713749" lon="-105.229789">
  <ele>1583.0</ele>
  <time>2026-08-28T17:49:04Z</time>
  <course>0.0</course>
  <speed>0.0</speed>
  <fix>3d</fix>
</trkpt>
<trkpt lat="40.0713751" lon="-105.2297889">
  <ele>1583.11</ele>
  <time>2026-08-28T17:49:04Z</time>
  <course>247.14</course>
  <speed>0.022360679774997897</speed>
  <fix>3d</fix>
</trkpt>
<trkpt lat="40.0713749" lon="-105.229789">
  <ele>1583.0</ele>
  <time>2026-08-28T17:49:04Z</time>
  <course>0.0</course>
  <speed>0.0</speed>
  <fix>3d</fix>
</trkpt>
<trkpt lat="40.071375" lon="-105.2297889">
  <ele>1583.12</ele>
  <time>2026-08-28T17:49:04Z</time>
  <course>247.13</course>
  <speed>0.022360679774997897</speed>
  <fix>3d</fix>
</trkpt>
<trkpt lat="40.0713749" lon="-105.229789">
  <ele>1583.0</ele>
  <time>2026-08-28T17:49:04Z</time>
  <course>0.0</course>
  <speed>0.0</speed>
  <fix>3d</fix>
</trkpt>
<trkpt lat="40.0713751" lon="-105.2297889">
  <ele>1583.12</ele>
  <time>2026-08-28T17:49:04Z</time>
  <course>247.13</course>
  <speed>0.022360679774997897</speed>
  <fix>3d</fix>
</trkpt>
<trkpt lat="40.0713749" lon="-105.229789">
  <ele>1583.0</ele>
  <time>2026-08-28T17:49:04Z</time>
  <course>0.0</course>
  <speed>0.0</speed>
  <fix>3d</fix>
</trkpt>
<trkpt lat="40.071375" lon="-105.2297889">
  <ele>1583.13</ele>
  <time>2026-08-28T17:49:04Z</time>
  <course>247.13</course>
  <speed>0.022360679774997897</speed>
  <fix>3d</fix>
</trkpt>
<trkpt lat="40.0713749" lon="-105.229789">
  <ele>1583.0</ele>
  <time>2026-08-28T17:49:04Z</time>
  <course>0.0</course>
  <speed>0.0</speed>
  <fix>3d</fix>
</trkpt>
<trkpt lat="40.0713751" lon="-105.2297889">
  <ele>1583.13</ele>
  <time>2026-08-28T17:49:04Z</time>
  <course>247.13</course>
  <speed>0.022360679774997897</speed>
  <fix>3d</fix>
</trkpt>
<trkpt lat="40.0713749" lon="-105.229789">
  <ele>1583.0</ele>
  <time>2026-08-28T17:49:04Z</time>
  <course>0.0</course>
  <speed>0.0</speed>
  <fix>3d</fix>
</trkpt>
<trkpt lat="40.071375" lon="-105.2297889">
  <ele>1583.14</ele>
  <time>2026-08-28T17:49:04Z</time>
  <course>247.13</course>
  <speed>0.022360679774997897</speed>
  <fix>3d</fix>
</trkpt>
<trkpt lat="40.0713749" lon="-105.229789">
  <ele>1583.0</ele>
  <time>2026-08-28T17:49:04Z</time>
  <course>0.0</course>
  <speed>0.0</speed>
  <fix>3d</fix>
</trkpt>
<trkpt lat="40.071375" lon="-105.2297889">
  <ele>1583.14</ele>
  <time>2026-08-28T17:49:04Z</time>
  <course>247.13</course>
  <speed>0.022360679774997897</speed>
  <fix>3d</fix>
</trkpt>
<trkpt lat="40.0713749" lon="-105.229789">
  <ele>1583.0</ele>
  <time>2026-08-28T17:49:04Z</time>
  <course>0.0</course>
  <speed>0.0</speed>
  <fix>3d</fix>
</trkpt>
<trkpt lat="40.071375" lon="-105.2297889">
  <ele>1583.14</ele>
  <time>2026-08-28T17:49:04Z</time>
  <course>247.13</course>
  <speed>0.022360679774997897</speed>
  <fix>3d</fix>
</trkpt>
<trkpt lat="40.0713749" lon="-105.229789">
  <ele>1583.0</ele>
  <time>2026-08-28T17:49:04Z</time>
  <course>0.0</course>
  <speed>0.0</speed>
  <fix>3d</fix>
</trkpt>
<trkpt lat="40.071375" lon="-105.2297889">
  <ele>1583.13</ele>
  <time>2026-08-28T17:49:04Z</time>
  <course>247.13</course>
  <speed>0.022360679774997897</speed>
  <fix>3d</fix>
</trkpt>
<trkpt lat="40.0713749" lon="-105.229789">
  <ele>1583.0</ele>
  <time>2026-08-28T17:49:04Z</time>
  <course>0.0</course>
  <speed>0.0</speed>
  <fix>3d</fix>
</trkpt>
<trkpt lat="40.071375" lon="-105.2297889">
  <ele>1583.13</ele>
  <time>2026-08-28T17:49:04Z</time>
  <course>247.13</course>
  <speed>0.022360679774997897</speed>
  <fix>3d</fix>
</trkpt>
<trkpt lat="40.0713749" lon="-105.229789">
  <ele>1583.0</ele>
  <time>2026-08-28T17:49:04Z</time>
  <course>0.0</course>
  <speed>0.0</speed>
  <fix>3d</fix>
</trkpt>
<trkpt lat="40.071375" lon="-105.2297889">
  <ele>1583.13</ele>
  <time>2026-08-28T17:49:04Z</time>
  <course>247.13</course>
  <speed>0.022360679774997897</speed>
  <fix>3d</fix>
</trkpt>
<trkpt lat="40.0713749" lon="-105.229789">
  <ele>1583.0</ele>
  <time>2026-08-28T17:49:04Z</time>
  <course>0.0</course>
  <speed>0.0</speed>
  <fix>3d</fix>
</trkpt>
<trkpt lat="40.071375" lon="-105.2297889">
  <ele>1583.12</ele>
  <time>2026-08-28T17:49:04Z</time>
  <course>247.13</course>
  <speed>0.022360679774997897</speed>
  <fix>3d</fix>
</trkpt>
<trkpt lat="40.0713749" lon="-105.229789">
  <ele>1583.0</ele>
  <time>2026-08-28T17:49:04Z</time>
  <course>0.0</course>
  <speed>0.0</speed>
  <fix>3d</fix>
</trkpt>
<trkpt lat="40.0713751" lon="-105.2297889">
  <ele>1583.12</ele>
  <time>2026-08-28T17:49:04Z</time>
  <course>247.13</course>
  <speed>0.022360679774997897</speed>
  <fix>3d</fix>
</trkpt>
<trkpt lat="40.0713749" lon="-105.229789">
  <ele>1583.0</ele>
  <time>2026-08-28T17:49:04Z</time>
  <course>0.0</course>
  <speed>0.0</speed>
  <fix>3d</fix>
</trkpt>
<trkpt lat="40.071375" lon="-105.2297889">
  <ele>1583.12</ele>
  <time>2026-08-28T17:49:04Z</time>
  <course>247.13</course>
  <speed>0.022360679774997897</speed>
  <fix>3d</fix>
</trkpt>
<trkpt lat="40.0713749" lon="-105.229789">
  <ele>1583.0</ele>
  <time>2026-08-28T17:49:04Z</time>
  <course>0.0</course>
  <speed>0.0</speed>
  <fix>3d</fix>
</trkpt>
<trkpt lat="40.0713751" lon="-105.2297889">
  <ele>1583.12</ele>
  <time>2026-08-28T17:49:04Z</time>
  <course>247.13</course>
  <speed>0.022360679774997897</speed>
  <fix>3d</fix>
</trkpt>
<trkpt lat="40.0713749" lon="-105.229789">
  <ele>1583.0</ele>
  <time>2026-08-28T17:49:04Z</time>
  <course>0.0</course>
  <speed>0.0</speed>
  <fix>3d</fix>
</trkpt>
<trkpt lat="40.071375" lon="-105.2297889">
  <ele>1583.11</ele>
  <time>2026-08-28T17:49:04Z</time>
  <course>247.13</course>
  <speed>0.022360679774997897</speed>
  <fix>3d</fix>
</trkpt>
<trkpt lat="40.0713749" lon="-105.229789">
  <ele>1583.0</ele>
  <time>2026-08-28T17:49:04Z</time>
  <course>0.0</course>
  <speed>0.0</speed>
  <fix>3d</fix>
</trkpt>
<trkpt lat="40.0713751" lon="-105.2297889">
  <ele>1583.11</ele>
  <time>2026-08-28T17:49:04Z</time>
  <course>247.13</course>
  <speed>0.022360679774997897</speed>
  <fix>3d</fix>
</trkpt>
<trkpt lat="40.0713749" lon="-105.229789">
  <ele>1583.0</ele>
  <time>2026-08-28T17:49:04Z</time>
  <course>0.0</course>
  <speed>0.0</speed>
  <fix>3d</fix>
</trkpt>
<trkpt lat="40.071375" lon="-105.2297889">
  <ele>1583.11</ele>
  <time>2026-08-28T17:49:04Z</time>
  <course>247.13</course>
  <speed>0.022360679774997897</speed>
  <fix>3d</fix>
</trkpt>
<trkpt lat="40.0713749" lon="-105.229789">
  <ele>1583.0</ele>
  <time>2026-08-28T17:49:04Z</time>
  <course>0.0</course>
  <speed>0.0</speed>
  <fix>3d</fix>
</trkpt>
<trkpt lat="40.0713751" lon="-105.2297889">
  <ele>1583.11</ele>
  <time>2026-08-28T17:49:04Z</time>
  <course>247.13</course>
  <speed>0.022360679774997897</speed>
  <fix>3d</fix>
</trkpt>
<trkpt lat="40.0713749" lon="-105.229789">
  <ele>1583.0</ele>
  <time>2026-08-28T17:49:04Z</time>
  <course>0.0</course>
  <speed>0.0</speed>
  <fix>3d</fix>
</trkpt>
<trkpt lat="40.0713751" lon="-105.2297889">
  <ele>1583.1</ele>
  <time>2026-08-28T17:49:04Z</time>
  <course>247.13</course>
  <speed>0.022360679774997897</speed>
  <fix>3d</fix>
</trkpt>
<trkpt lat="40.0713749" lon="-105.229789">
  <ele>1583.0</ele>
  <time>2026-08-28T17:49:04Z</time>
  <course>0.0</course>
  <speed>0.0</speed>
  <fix>3d</fix>
</trkpt>
<trkpt lat="40.0713751" lon="-105.2297889">
  <ele>1583.1</ele>
  <time>2026-08-28T17:49:04Z</time>
  <course>247.13</course>
  <speed>0.022360679774997897</speed>
  <fix>3d</fix>
</trkpt>
<trkpt lat="40.0713749" lon="-105.229789">
  <ele>1583.0</ele>
  <time>2026-08-28T17:49:04Z</time>
  <course>0.0</course>
  <speed>0.0</speed>
  <fix>3d</fix>
</trkpt>
<trkpt lat="40.0713751" lon="-105.2297889">
  <ele>1583.09</ele>
  <time>2026-08-28T17:49:04Z</time>
  <course>247.13</course>
  <speed>0.022360679774997897</speed>
  <fix>3d</fix>
</trkpt>
<trkpt lat="40.0713749" lon="-105.229789">
  <ele>1583.0</ele>
  <time>2026-08-28T17:49:04Z</time>
  <course>0.0</course>
  <speed>0.0</speed>
  <fix>3d</fix>
</trkpt>
<trkpt lat="40.0713751" lon="-105.2297889">
  <ele>1583.09</ele>
  <time>2026-08-28T17:49:04Z</time>
  <course>247.13</course>
  <speed>0.022360679774997897</speed>
  <fix>3d</fix>
</trkpt>
<trkpt lat="40.0713749" lon="-105.229789">
  <ele>1583.0</ele>
  <time>2026-08-28T17:49:04Z</time>
  <course>0.0</course>
  <speed>0.0</speed>
  <fix>3d</fix>
</trkpt>
<trkpt lat="40.0713751" lon="-105.2297889">
  <ele>1583.09</ele>
  <time>2026-08-28T17:49:04Z</time>
  <course>247.13</course>
  <speed>0.022360679774997897</speed>
  <fix>3d</fix>
</trkpt>
<trkpt lat="40.0713749" lon="-105.229789">
  <ele>1583.0</ele>
  <time>2026-08-28T17:49:04Z</time>
  <course>0.0</course>
  <speed>0.0</speed>
  <fix>3d</fix>
</trkpt>
<trkpt lat="40.0713751" lon="-105.2297889">
  <ele>1583.09</ele>
  <time>2026-08-28T17:49:04Z</time>
  <course>247.13</course>
  <speed>0.022360679774997897</speed>
  <fix>3d</fix>
</trkpt>
<trkpt lat="40.0713749" lon="-105.229789">
  <ele>1583.0</ele>
  <time>2026-08-28T17:49:04Z</time>
  <course>0.0</course>
  <speed>0.0</speed>
  <fix>3d</fix>
</trkpt>
<trkpt lat="40.071375" lon="-105.2297889">
  <ele>1583.08</ele>
  <time>2026-08-28T17:49:04Z</time>
  <course>247.13</course>
  <speed>0.022360679774997897</speed>
  <fix>3d</fix>
</trkpt>
<trkpt lat="40.0713749" lon="-105.229789">
  <ele>1583.0</ele>
  <time>2026-08-28T17:49:04Z</time>
  <course>0.0</course>
  <speed>0.0</speed>
  <fix>3d</fix>
</trkpt>
<trkpt lat="40.0713751" lon="-105.2297889">
  <ele>1583.07</ele>
  <time>2026-08-28T17:49:04Z</time>
  <course>247.13</course>
  <speed>0.022360679774997897</speed>
  <fix>3d</fix>
</trkpt>
<trkpt lat="40.0713749" lon="-105.229789">
  <ele>1583.0</ele>
  <time>2026-08-28T17:49:04Z</time>
  <course>0.0</course>
  <speed>0.0</speed>
  <fix>3d</fix>
</trkpt>
<trkpt lat="40.071375" lon="-105.2297889">
  <ele>1583.06</ele>
  <time>2026-08-28T17:49:04Z</time>
  <course>247.13</course>
  <speed>0.022360679774997897</speed>
  <fix>3d</fix>
</trkpt>
<trkpt lat="40.0713749" lon="-105.229789">
  <ele>1583.0</ele>
  <time>2026-08-28T17:49:04Z</time>
  <course>0.0</course>
  <speed>0.0</speed>
  <fix>3d</fix>
</trkpt>
<trkpt lat="40.071375" lon="-105.2297889">
  <ele>1583.06</ele>
  <time>2026-08-28T17:49:04Z</time>
  <course>247.13</course>
  <speed>0.022360679774997897</speed>
  <fix>3d</fix>
</trkpt>
<trkpt lat="40.0713749" lon="-105.229789">
  <ele>1583.0</ele>
  <time>2026-08-28T17:49:04Z</time>
  <course>0.0</course>
  <speed>0.0</speed>
  <fix>3d</fix>
</trkpt>
<trkpt lat="40.071375" lon="-105.2297889">
  <ele>1583.05</ele>
  <time>2026-08-28T17:49:04Z</time>
  <course>247.13</course>
  <speed>0.022360679774997897</speed>
  <fix>3d</fix>
</trkpt>
<trkpt lat="40.0713749" lon="-105.229789">
  <ele>1583.0</ele>
  <time>2026-08-28T17:49:04Z</time>
  <course>0.0</course>
  <speed>0.0</speed>
  <fix>3d</fix>
</trkpt>
<trkpt lat="40.0713751" lon="-105.2297889">
  <ele>1583.05</ele>
  <time>2026-08-28T17:49:04Z</time>
  <course>247.13</course>
  <speed>0.022360679774997897</speed>
  <fix>3d</fix>
</trkpt>
<trkpt lat="40.0713749" lon="-105.229789">
  <ele>1583.0</ele>
  <time>2026-08-28T17:49:04Z</time>
  <course>0.0</course>
  <speed>0.0</speed>
  <fix>3d</fix>
</trkpt>
<trkpt lat="40.071375" lon="-105.2297889">
  <ele>1583.04</ele>
  <time>2026-08-28T17:49:04Z</time>
  <course>247.13</course>
  <speed>0.022360679774997897</speed>
  <fix>3d</fix>
</trkpt>
<trkpt lat="40.0713749" lon="-105.229789">
  <ele>1583.0</ele>
  <time>2026-08-28T17:49:04Z</time>
  <course>0.0</course>
  <speed>0.0</speed>
  <fix>3d</fix>
</trkpt>
<trkpt lat="40.0713751" lon="-105.2297889">
  <ele>1583.03</ele>
  <time>2026-08-28T17:49:04Z</time>
  <course>247.13</course>
  <speed>0.022360679774997897</speed>
  <fix>3d</fix>
</trkpt>
<trkpt lat="40.0713749" lon="-105.229789">
  <ele>1583.0</ele>
  <time>2026-08-28T17:49:04Z</time>
  <course>0.0</course>
  <speed>0.0</speed>
  <fix>3d</fix>
</trkpt>
<trkpt lat="40.071375" lon="-105.2297889">
  <ele>1583.03</ele>
  <time>2026-08-28T17:49:04Z</time>
  <course>247.12</course>
  <speed>0.022360679774997897</speed>
  <fix>3d</fix>
</trkpt>
<trkpt lat="40.0713749" lon="-105.229789">
  <ele>1583.0</ele>
  <time>2026-08-28T17:49:04Z</time>
  <course>0.0</course>
  <speed>0.0</speed>
  <fix>3d</fix>
</trkpt>
<trkpt lat="40.0713751" lon="-105.2297889">
  <ele>1583.02</ele>
  <time>2026-08-28T17:49:04Z</time>
  <course>247.12</course>
  <speed>0.022360679774997897</speed>
  <fix>3d</fix>
</trkpt>
<trkpt lat="40.0713749" lon="-105.229789">
  <ele>1583.0</ele>
  <time>2026-08-28T17:49:04Z</time>
  <course>0.0</course>
  <speed>0.0</speed>
  <fix>3d</fix>
</trkpt>
<trkpt lat="40.071375" lon="-105.2297889">
  <ele>1583.02</ele>
  <time>2026-08-28T17:49:04Z</time>
  <course>247.12</course>
  <speed>0.022360679774997897</speed>
  <fix>3d</fix>
</trkpt>
<trkpt lat="40.0713749" lon="-105.229789">
  <ele>1583.0</ele>
  <time>2026-08-28T17:49:04Z</time>
  <course>0.0</course>
  <speed>0.0</speed>
  <fix>3d</fix>
</trkpt>
<trkpt lat="40.0713751" lon="-105.2297889">
  <ele>1583.01</ele>
  <time>2026-08-28T17:49:04Z</time>
  <course>247.12</course>
  <speed>0.022360679774997897</speed>
  <fix>3d</fix>
</trkpt>
<trkpt lat="40.0713749" lon="-105.229789">
  <ele>1583.0</ele>
  <time>2026-08-28T17:49:04Z</time>
  <course>0.0</course>
  <speed>0.0</speed>
  <fix>3d</fix>
</trkpt>
<trkpt lat="40.071375" lon="-105.2297889">
  <ele>1583.01</ele>
  <time>2026-08-28T17:49:04Z</time>
  <course>247.12</course>
  <speed>0.022360679774997897</speed>
  <fix>3d</fix>
</trkpt>
<trkpt lat="40.0713749" lon="-105.229789">
  <ele>1583.0</ele>
  <time>2026-08-28T17:49:04Z</time>
  <course>0.0</course>
  <speed>0.0</speed>
  <fix>3d</fix>
</trkpt>
<trkpt lat="40.0713751" lon="-105.2297889">
  <ele>1583.01</ele>
  <time>2026-08-28T17:49:04Z</time>
  <course>247.12</course>
  <speed>0.022360679774997897</speed>
  <fix>3d</fix>
</trkpt>
<trkpt lat="40.0713749" lon="-105.229789">
  <ele>1583.0</ele>
  <time>2026-08-28T17:49:04Z</time>
  <course>0.0</course>
  <speed>0.0</speed>
  <fix>3d</fix>
</trkpt>
<trkpt lat="40.071375" lon="-105.2297889">
  <ele>1583.01</ele>
  <time>2026-08-28T17:49:04Z</time>
  <course>247.12</course>
  <speed>0.022360679774997897</speed>
  <fix>3d</fix>
</trkpt>
<trkpt lat="40.0713749" lon="-105.229789">
  <ele>1583.0</ele>
  <time>2026-08-28T17:49:04Z</time>
  <course>0.0</course>
  <speed>0.0</speed>
  <fix>3d</fix>
</trkpt>
<trkpt lat="40.0713751" lon="-105.2297889">
  <ele>1583.01</ele>
  <time>2026-08-28T17:49:04Z</time>
  <course>247.12</course>
  <speed>0.022360679774997897</speed>
  <fix>3d</fix>
</trkpt>
<trkpt lat="40.0713749" lon="-105.229789">
  <ele>1583.0</ele>
  <time>2026-08-28T17:49:04Z</time>
  <course>0.0</course>
  <speed>0.0</speed>
  <fix>3d</fix>
</trkpt>
<trkpt lat="40.0713751" lon="-105.2297889">
  <ele>1583.01</ele>
  <time>2026-08-28T17:49:04Z</time>
  <course>247.12</course>
  <speed>0.022360679774997897</speed>
  <fix>3d</fix>
</trkpt>
<trkpt lat="40.0713749" lon="-105.229789">
  <ele>1583.0</ele>
  <time>2026-08-28T17:49:04Z</time>
  <course>0.0</course>
  <speed>0.0</speed>
  <fix>3d</fix>
</trkpt>
<trkpt lat="40.0713751" lon="-105.2297889">
  <ele>1583.01</ele>
  <time>2026-08-28T17:49:04Z</time>
  <course>247.12</course>
  <speed>0.022360679774997897</speed>
  <fix>3d</fix>
</trkpt>
<trkpt lat="40.0713749" lon="-105.229789">
  <ele>1583.0</ele>
  <time>2026-08-28T17:49:04Z</time>
  <course>0.0</course>
  <speed>0.0</speed>
  <fix>3d</fix>
</trkpt>
<trkpt lat="40.0713751" lon="-105.2297889">
  <ele>1583.01</ele>
  <time>2026-08-28T17:49:04Z</time>
  <course>247.12</course>
  <speed>0.022360679774997897</speed>
  <fix>3d</fix>
</trkpt>
<trkpt lat="40.0713749" lon="-105.229789">
  <ele>1583.0</ele>
  <time>2026-08-28T17:49:04Z</time>
  <course>0.0</course>
  <speed>0.0</speed>
  <fix>3d</fix>
</trkpt>
<trkpt lat="40.0713751" lon="-105.2297889">
  <ele>1583.01</ele>
  <time>2026-08-28T17:49:04Z</time>
  <course>247.12</course>
  <speed>0.022360679774997897</speed>
  <fix>3d</fix>
</trkpt>
<trkpt lat="40.0713749" lon="-105.229789">
  <ele>1583.0</ele>
  <time>2026-08-28T17:49:04Z</time>
  <course>0.0</course>
  <speed>0.0</speed>
  <fix>3d</fix>
</trkpt>
<trkpt lat="40.071375" lon="-105.2297889">
  <ele>1583.01</ele>
  <time>2026-08-28T17:49:04Z</time>
  <course>247.12</course>
  <speed>0.022360679774997897</speed>
  <fix>3d</fix>
</trkpt>
<trkpt lat="40.0713749" lon="-105.229789">
  <ele>1583.0</ele>
  <time>2026-08-28T17:49:04Z</time>
  <course>0.0</course>
  <speed>0.0</speed>
  <fix>3d</fix>
</trkpt>
<trkpt lat="40.0713751" lon="-105.2297889">
  <ele>1583.0</ele>
  <time>2026-08-28T17:49:04Z</time>
  <course>247.12</course>
  <speed>0.022360679774997897</speed>
  <fix>3d</fix>
</trkpt>
<trkpt lat="40.0713749" lon="-105.229789">
  <ele>1583.0</ele>
  <time>2026-08-28T17:49:04Z</time>
  <course>0.0</course>
  <speed>0.0</speed>
  <fix>3d</fix>
</trkpt>
<trkpt lat="40.071375" lon="-105.2297889">
  <ele>1582.99</ele>
  <time>2026-08-28T17:49:04Z</time>
  <course>247.12</course>
  <speed>0.022360679774997897</speed>
  <fix>3d</fix>
</trkpt>
<trkpt lat="40.0713749" lon="-105.229789">
  <ele>1583.0</ele>
  <time>2026-08-28T17:49:04Z</time>
  <course>0.0</course>
  <speed>0.0</speed>
  <fix>3d</fix>
</trkpt>
<trkpt lat="40.0713751" lon="-105.2297889">
  <ele>1582.99</ele>
  <time>2026-08-28T17:49:04Z</time>
  <course>247.12</course>
  <speed>0.022360679774997897</speed>
  <fix>3d</fix>
</trkpt>
<trkpt lat="40.0713749" lon="-105.229789">
  <ele>1583.0</ele>
  <time>2026-08-28T17:49:04Z</time>
  <course>0.0</course>
  <speed>0.0</speed>
  <fix>3d</fix>
</trkpt>
<trkpt lat="40.071375" lon="-105.2297889">
  <ele>1582.98</ele>
  <time>2026-08-28T17:49:04Z</time>
  <course>247.12</course>
  <speed>0.02</speed>
  <fix>3d</fix>
</trkpt>
<trkpt lat="40.0713749" lon="-105.229789">
  <ele>1583.0</ele>
  <time>2026-08-28T17:49:04Z</time>
  <course>0.0</course>
  <speed>0.0</speed>
  <fix>3d</fix>
</trkpt>
<trkpt lat="40.0713751" lon="-105.2297889">
  <ele>1582.97</ele>
  <time>2026-08-28T17:49:04Z</time>
  <course>247.12</course>
  <speed>0.022360679774997897</speed>
  <fix>3d</fix>
</trkpt>
<trkpt lat="40.0713749" lon="-105.229789">
  <ele>1583.0</ele>
  <time>2026-08-28T17:49:04Z</time>
  <course>0.0</course>
  <speed>0.0</speed>
  <fix>3d</fix>
</trkpt>
<trkpt lat="40.071375" lon="-105.2297889">
  <ele>1582.97</ele>
  <time>2026-08-28T17:49:04Z</time>
  <course>247.12</course>
  <speed>0.02</speed>
  <fix>3d</fix>
</trkpt>
<trkpt lat="40.0713749" lon="-105.229789">
  <ele>1583.0</ele>
  <time>2026-08-28T17:49:04Z</time>
  <course>0.0</course>
  <speed>0.0</speed>
  <fix>3d</fix>
</trkpt>
<trkpt lat="40.0713751" lon="-105.2297889">
  <ele>1582.96</ele>
  <time>2026-08-28T17:49:04Z</time>
  <course>247.12</course>
  <speed>0.022360679774997897</speed>
  <fix>3d</fix>
</trkpt>
<trkpt lat="40.0713749" lon="-105.229789">
  <ele>1583.0</ele>
  <time>2026-08-28T17:49:04Z</time>
  <course>0.0</course>
  <speed>0.0</speed>
  <fix>3d</fix>
</trkpt>
<trkpt lat="40.071375" lon="-105.2297889">
  <ele>1582.95</ele>
  <time>2026-08-28T17:49:04Z</time>
  <course>247.12</course>
  <speed>0.02</speed>
  <fix>3d</fix>
</trkpt>
<trkpt lat="40.0713749" lon="-105.229789">
  <ele>1583.0</ele>
  <time>2026-08-28T17:49:04Z</time>
  <course>0.0</course>
  <speed>0.0</speed>
  <fix>3d</fix>
</trkpt>
<trkpt lat="40.0713751" lon="-105.2297889">
  <ele>1582.95</ele>
  <time>2026-08-28T17:49:04Z</time>
  <course>247.12</course>
  <speed>0.022360679774997897</speed>
  <fix>3d</fix>
</trkpt>
<trkpt lat="40.0713749" lon="-105.229789">
  <ele>1583.0</ele>
  <time>2026-08-28T17:49:04Z</time>
  <course>0.0</course>
  <speed>0.0</speed>
  <fix>3d</fix>
</trkpt>
<trkpt lat="40.071375" lon="-105.2297889">
  <ele>1582.95</ele>
  <time>2026-08-28T17:49:04Z</time>
  <course>247.12</course>
  <speed>0.02</speed>
  <fix>3d</fix>
</trkpt>
<trkpt lat="40.0713749" lon="-105.229789">
  <ele>1583.0</ele>
  <time>2026-08-28T17:49:04Z</time>
  <course>0.0</course>
  <speed>0.0</speed>
  <fix>3d</fix>
</trkpt>
<trkpt lat="40.0713751" lon="-105.2297889">
  <ele>1582.95</ele>
  <time>2026-08-28T17:49:04Z</time>
  <course>247.12</course>
  <speed>0.022360679774997897</speed>
  <fix>3d</fix>
</trkpt>
<trkpt lat="40.0713749" lon="-105.229789">
  <ele>1583.0</ele>
  <time>2026-08-28T17:49:04Z</time>
  <course>0.0</course>
  <speed>0.0</speed>
  <fix>3d</fix>
</trkpt>
<trkpt lat="40.071375" lon="-105.2297889">
  <ele>1582.94</ele>
  <time>2026-08-28T17:49:04Z</time>
  <course>247.12</course>
  <speed>0.022360679774997897</speed>
  <fix>3d</fix>
</trkpt>
<trkpt lat="40.0713749" lon="-105.229789">
  <ele>1583.0</ele>
  <time>2026-08-28T17:49:04Z</time>
  <course>0.0</course>
  <speed>0.0</speed>
  <fix>3d</fix>
</trkpt>
<trkpt lat="40.0713751" lon="-105.2297889">
  <ele>1582.94</ele>
  <time>2026-08-28T17:49:04Z</time>
  <course>247.12</course>
  <speed>0.022360679774997897</speed>
  <fix>3d</fix>
</trkpt>
<trkpt lat="40.0713749" lon="-105.229789">
  <ele>1583.0</ele>
  <time>2026-08-28T17:49:04Z</time>
  <course>0.0</course>
  <speed>0.0</speed>
  <fix>3d</fix>
</trkpt>
<trkpt lat="40.0713751" lon="-105.2297889">
  <ele>1582.93</ele>
  <time>2026-08-28T17:49:04Z</time>
  <course>247.12</course>
  <speed>0.022360679774997897</speed>
  <fix>3d</fix>
</trkpt>
<trkpt lat="40.0713749" lon="-105.229789">
  <ele>1583.0</ele>
  <time>2026-08-28T17:49:04Z</time>
  <course>0.0</course>
  <speed>0.0</speed>
  <fix>3d</fix>
</trkpt>
<trkpt lat="40.0713751" lon="-105.2297889">
  <ele>1582.93</ele>
  <time>2026-08-28T17:49:04Z</time>
  <course>247.12</course>
  <speed>0.022360679774997897</speed>
  <fix>3d</fix>
</trkpt>
<trkpt lat="40.0713749" lon="-105.229789">
  <ele>1583.0</ele>
  <time>2026-08-28T17:49:04Z</time>
  <course>0.0</course>
  <speed>0.0</speed>
  <fix>3d</fix>
</trkpt>
<trkpt lat="40.0713751" lon="-105.2297889">
  <ele>1582.93</ele>
  <time>2026-08-28T17:49:04Z</time>
  <course>247.12</course>
  <speed>0.022360679774997897</speed>
  <fix>3d</fix>
</trkpt>
<trkpt lat="40.0713749" lon="-105.229789">
  <ele>1583.0</ele>
  <time>2026-08-28T17:49:04Z</time>
  <course>0.0</course>
  <speed>0.0</speed>
  <fix>3d</fix>
</trkpt>
<trkpt lat="40.0713751" lon="-105.2297889">
  <ele>1582.93</ele>
  <time>2026-08-28T17:49:04Z</time>
  <course>247.12</course>
  <speed>0.022360679774997897</speed>
  <fix>3d</fix>
</trkpt>
<trkpt lat="40.0713749" lon="-105.229789">
  <ele>1583.0</ele>
  <time>2026-08-28T17:49:04Z</time>
  <course>0.0</course>
  <speed>0.0</speed>
  <fix>3d</fix>
</trkpt>
<trkpt lat="40.0713751" lon="-105.2297889">
  <ele>1582.93</ele>
  <time>2026-08-28T17:49:04Z</time>
  <course>247.12</course>
  <speed>0.022360679774997897</speed>
  <fix>3d</fix>
</trkpt>
<trkpt lat="40.0713749" lon="-105.229789">
  <ele>1583.0</ele>
  <time>2026-08-28T17:49:04Z</time>
  <course>0.0</course>
  <speed>0.0</speed>
  <fix>3d</fix>
</trkpt>
<trkpt lat="40.0713751" lon="-105.2297889">
  <ele>1582.93</ele>
  <time>2026-08-28T17:49:04Z</time>
  <course>247.12</course>
  <speed>0.022360679774997897</speed>
  <fix>3d</fix>
</trkpt>
<trkpt lat="40.0713749" lon="-105.229789">
  <ele>1583.0</ele>
  <time>2026-08-28T17:49:04Z</time>
  <course>0.0</course>
  <speed>0.0</speed>
  <fix>3d</fix>
</trkpt>
<trkpt lat="40.0713751" lon="-105.2297889">
  <ele>1582.94</ele>
  <time>2026-08-28T17:49:04Z</time>
  <course>247.12</course>
  <speed>0.022360679774997897</speed>
  <fix>3d</fix>
</trkpt>
<trkpt lat="40.0713749" lon="-105.229789">
  <ele>1583.0</ele>
  <time>2026-08-28T17:49:04Z</time>
  <course>0.0</course>
  <speed>0.0</speed>
  <fix>3d</fix>
</trkpt>
<trkpt lat="40.0713751" lon="-105.2297889">
  <ele>1582.94</ele>
  <time>2026-08-28T17:49:04Z</time>
  <course>247.12</course>
  <speed>0.022360679774997897</speed>
  <fix>3d</fix>
</trkpt>
<trkpt lat="40.0713749" lon="-105.229789">
  <ele>1583.0</ele>
  <time>2026-08-28T17:49:04Z</time>
  <course>0.0</course>
  <speed>0.0</speed>
  <fix>3d</fix>
</trkpt>
<trkpt lat="40.071375" lon="-105.2297889">
  <ele>1582.94</ele>
  <time>2026-08-28T17:49:04Z</time>
  <course>247.12</course>
  <speed>0.022360679774997897</speed>
  <fix>3d</fix>
</trkpt>
<trkpt lat="40.0713749" lon="-105.229789">
  <ele>1583.0</ele>
  <time>2026-08-28T17:49:04Z</time>
  <course>0.0</course>
  <speed>0.0</speed>
  <fix>3d</fix>
</trkpt>
<trkpt lat="40.0713751" lon="-105.2297889">
  <ele>1582.94</ele>
  <time>2026-08-28T17:49:04Z</time>
  <course>247.12</course>
  <speed>0.022360679774997897</speed>
  <fix>3d</fix>
</trkpt>
<trkpt lat="40.0713749" lon="-105.229789">
  <ele>1583.0</ele>
  <time>2026-08-28T17:49:04Z</time>
  <course>0.0</course>
  <speed>0.0</speed>
  <fix>3d</fix>
</trkpt>
<trkpt lat="40.071375" lon="-105.2297889">
  <ele>1582.94</ele>
  <time>2026-08-28T17:49:04Z</time>
  <course>247.12</course>
  <speed>0.022360679774997897</speed>
  <fix>3d</fix>
</trkpt>
<trkpt lat="40.0713749" lon="-105.229789">
  <ele>1583.0</ele>
  <time>2026-08-28T17:49:04Z</time>
  <course>0.0</course>
  <speed>0.0</speed>
  <fix>3d</fix>
</trkpt>
<trkpt lat="40.0713751" lon="-105.2297889">
  <ele>1582.95</ele>
  <time>2026-08-28T17:49:04Z</time>
  <course>247.12</course>
  <speed>0.022360679774997897</speed>
  <fix>3d</fix>
</trkpt>
<trkpt lat="40.0713749" lon="-105.229789">
  <ele>1583.0</ele>
  <time>2026-08-28T17:49:04Z</time>
  <course>0.0</course>
  <speed>0.0</speed>
  <fix>3d</fix>
</trkpt>
<trkpt lat="40.071375" lon="-105.2297889">
  <ele>1582.94</ele>
  <time>2026-08-28T17:49:04Z</time>
  <course>247.12</course>
  <speed>0.022360679774997897</speed>
  <fix>3d</fix>
</trkpt>
<trkpt lat="40.0713749" lon="-105.229789">
  <ele>1583.0</ele>
  <time>2026-08-28T17:49:04Z</time>
  <course>0.0</course>
  <speed>0.0</speed>
  <fix>3d</fix>
</trkpt>
<trkpt lat="40.0713751" lon="-105.2297889">
  <ele>1582.95</ele>
  <time>2026-08-28T17:49:04Z</time>
  <course>247.12</course>
  <speed>0.022360679774997897</speed>
  <fix>3d</fix>
</trkpt>
<trkpt lat="40.0713749" lon="-105.229789">
  <ele>1583.0</ele>
  <time>2026-08-28T17:49:04Z</time>
  <course>0.0</course>
  <speed>0.0</speed>
  <fix>3d</fix>
</trkpt>
<trkpt lat="40.071375" lon="-105.2297889">
  <ele>1582.95</ele>
  <time>2026-08-28T17:49:04Z</time>
  <course>247.12</course>
  <speed>0.022360679774997897</speed>
  <fix>3d</fix>
</trkpt>
<trkpt lat="40.0713749" lon="-105.229789">
  <ele>1583.0</ele>
  <time>2026-08-28T17:49:04Z</time>
  <course>0.0</course>
  <speed>0.0</speed>
  <fix>3d</fix>
</trkpt>
<trkpt lat="40.0713751" lon="-105.2297889">
  <ele>1582.94</ele>
  <time>2026-08-28T17:49:04Z</time>
  <course>247.11</course>
  <speed>0.022360679774997897</speed>
  <fix>3d</fix>
</trkpt>
<trkpt lat="40.0713749" lon="-105.229789">
  <ele>1583.0</ele>
  <time>2026-08-28T17:49:04Z</time>
  <course>0.0</course>
  <speed>0.0</speed>
  <fix>3d</fix>
</trkpt>
<trkpt lat="40.071375" lon="-105.2297889">
  <ele>1582.94</ele>
  <time>2026-08-28T17:49:04Z</time>
  <course>247.11</course>
  <speed>0.022360679774997897</speed>
  <fix>3d</fix>
</trkpt>
<trkpt lat="40.0713749" lon="-105.229789">
  <ele>1583.0</ele>
  <time>2026-08-28T17:49:04Z</time>
  <course>0.0</course>
  <speed>0.0</speed>
  <fix>3d</fix>
</trkpt>
<trkpt lat="40.0713751" lon="-105.2297889">
  <ele>1582.93</ele>
  <time>2026-08-28T17:49:04Z</time>
  <course>247.11</course>
  <speed>0.022360679774997897</speed>
  <fix>3d</fix>
</trkpt>
<trkpt lat="40.0713749" lon="-105.229789">
  <ele>1583.0</ele>
  <time>2026-08-28T17:49:04Z</time>
  <course>0.0</course>
  <speed>0.0</speed>
  <fix>3d</fix>
</trkpt>
<trkpt lat="40.071375" lon="-105.2297889">
  <ele>1582.93</ele>
  <time>2026-08-28T17:49:04Z</time>
  <course>247.11</course>
  <speed>0.022360679774997897</speed>
  <fix>3d</fix>
</trkpt>
<trkpt lat="40.0713749" lon="-105.229789">
  <ele>1583.0</ele>
  <time>2026-08-28T17:49:04Z</time>
  <course>0.0</course>
  <speed>0.0</speed>
  <fix>3d</fix>
</trkpt>
<trkpt lat="40.0713751" lon="-105.2297889">
  <ele>1582.93</ele>
  <time>2026-08-28T17:49:04Z</time>
  <course>247.11</course>
  <speed>0.022360679774997897</speed>
  <fix>3d</fix>
</trkpt>
<trkpt lat="40.0713749" lon="-105.229789">
  <ele>1583.0</ele>
  <time>2026-08-28T17:49:04Z</time>
  <course>0.0</course>
  <speed>0.0</speed>
  <fix>3d</fix>
</trkpt>
<trkpt lat="40.071375" lon="-105.2297889">
  <ele>1582.93</ele>
  <time>2026-08-28T17:49:04Z</time>
  <course>247.11</course>
  <speed>0.022360679774997897</speed>
  <fix>3d</fix>
</trkpt>
<trkpt lat="40.0713749" lon="-105.229789">
  <ele>1583.0</ele>
  <time>2026-08-28T17:49:04Z</time>
  <course>0.0</course>
  <speed>0.0</speed>
  <fix>3d</fix>
</trkpt>
<trkpt lat="40.0713751" lon="-105.2297889">
  <ele>1582.92</ele>
  <time>2026-08-28T17:49:04Z</time>
  <course>247.11</course>
  <speed>0.022360679774997897</speed>
  <fix>3d</fix>
</trkpt>
<trkpt lat="40.0713749" lon="-105.229789">
  <ele>1583.0</ele>
  <time>2026-08-28T17:49:04Z</time>
  <course>0.0</course>
  <speed>0.0</speed>
  <fix>3d</fix>
</trkpt>
<trkpt lat="40.071375" lon="-105.2297889">
  <ele>1582.92</ele>
  <time>2026-08-28T17:49:04Z</time>
  <course>247.11</course>
  <speed>0.022360679774997897</speed>
  <fix>3d</fix>
</trkpt>
<trkpt lat="40.0713749" lon="-105.229789">
  <ele>1583.0</ele>
  <time>2026-08-28T17:49:04Z</time>
  <course>0.0</course>
  <speed>0.0</speed>
  <fix>3d</fix>
</trkpt>
<trkpt lat="40.0713751" lon="-105.2297889">
  <ele>1582.92</ele>
  <time>2026-08-28T17:49:04Z</time>
  <course>247.11</course>
  <speed>0.022360679774997897</speed>
  <fix>3d</fix>
</trkpt>
<trkpt lat="40.0713749" lon="-105.229789">
  <ele>1583.0</ele>
  <time>2026-08-28T17:49:04Z</time>
  <course>0.0</course>
  <speed>0.0</speed>
  <fix>3d</fix>
</trkpt>
<trkpt lat="40.0713751" lon="-105.2297889">
  <ele>1582.92</ele>
  <time>2026-08-28T17:49:04Z</time>
  <course>247.11</course>
  <speed>0.022360679774997897</speed>
  <fix>3d</fix>
</trkpt>
<trkpt lat="40.0713749" lon="-105.229789">
  <ele>1583.0</ele>
  <time>2026-08-28T17:49:04Z</time>
  <course>0.0</course>
  <speed>0.0</speed>
  <fix>3d</fix>
</trkpt>
<trkpt lat="40.0713751" lon="-105.2297889">
  <ele>1582.92</ele>
  <time>2026-08-28T17:49:04Z</time>
  <course>247.11</course>
  <speed>0.022360679774997897</speed>
  <fix>3d</fix>
</trkpt>
<trkpt lat="40.0713749" lon="-105.229789">
  <ele>1583.0</ele>
  <time>2026-08-28T17:49:04Z</time>
  <course>0.0</course>
  <speed>0.0</speed>
  <fix>3d</fix>
</trkpt>
<trkpt lat="40.0713751" lon="-105.2297889">
  <ele>1582.92</ele>
  <time>2026-08-28T17:49:04Z</time>
  <course>247.11</course>
  <speed>0.022360679774997897</speed>
  <fix>3d</fix>
</trkpt>
<trkpt lat="40.0713749" lon="-105.229789">
  <ele>1583.0</ele>
  <time>2026-08-28T17:49:04Z</time>
  <course>0.0</course>
  <speed>0.0</speed>
  <fix>3d</fix>
</trkpt>
<trkpt lat="40.0713751" lon="-105.2297889">
  <ele>1582.92</ele>
  <time>2026-08-28T17:49:04Z</time>
  <course>247.11</course>
  <speed>0.022360679774997897</speed>
  <fix>3d</fix>
</trkpt>
<trkpt lat="40.0713749" lon="-105.229789">
  <ele>1583.0</ele>
  <time>2026-08-28T17:49:04Z</time>
  <course>0.0</course>
  <speed>0.0</speed>
  <fix>3d</fix>
</trkpt>
<trkpt lat="40.071375" lon="-105.2297889">
  <ele>1582.92</ele>
  <time>2026-08-28T17:49:04Z</time>
  <course>247.11</course>
  <speed>0.022360679774997897</speed>
  <fix>3d</fix>
</trkpt>
<trkpt lat="40.0713749" lon="-105.229789">
  <ele>1583.0</ele>
  <time>2026-08-28T17:49:04Z</time>
  <course>0.0</course>
  <speed>0.0</speed>
  <fix>3d</fix>
</trkpt>
<trkpt lat="40.0713751" lon="-105.2297889">
  <ele>1582.92</ele>
  <time>2026-08-28T17:49:04Z</time>
  <course>247.11</course>
  <speed>0.022360679774997897</speed>
  <fix>3d</fix>
</trkpt>
<trkpt lat="40.0713749" lon="-105.229789">
  <ele>1583.0</ele>
  <time>2026-08-28T17:49:04Z</time>
  <course>0.0</course>
  <speed>0.0</speed>
  <fix>3d</fix>
</trkpt>
<trkpt lat="40.071375" lon="-105.2297889">
  <ele>1582.92</ele>
  <time>2026-08-28T17:49:04Z</time>
  <course>247.11</course>
  <speed>0.022360679774997897</speed>
  <fix>3d</fix>
</trkpt>
<trkpt lat="40.0713749" lon="-105.229789">
  <ele>1583.0</ele>
  <time>2026-08-28T17:49:04Z</time>
  <course>0.0</course>
  <speed>0.0</speed>
  <fix>3d</fix>
</trkpt>
<trkpt lat="40.0713751" lon="-105.2297889">
  <ele>1582.91</ele>
  <time>2026-08-28T17:49:04Z</time>
  <course>247.11</course>
  <speed>0.022360679774997897</speed>
  <fix>3d</fix>
</trkpt>
<trkpt lat="40.0713749" lon="-105.229789">
  <ele>1583.0</ele>
  <time>2026-08-28T17:49:04Z</time>
  <course>0.0</course>
  <speed>0.0</speed>
  <fix>3d</fix>
</trkpt>
<trkpt lat="40.071375" lon="-105.2297889">
  <ele>1582.91</ele>
  <time>2026-08-28T17:49:04Z</time>
  <course>247.11</course>
  <speed>0.022360679774997897</speed>
  <fix>3d</fix>
</trkpt>
<trkpt lat="40.0713749" lon="-105.229789">
  <ele>1583.0</ele>
  <time>2026-08-28T17:49:04Z</time>
  <course>0.0</course>
  <speed>0.0</speed>
  <fix>3d</fix>
</trkpt>
<trkpt lat="40.0713751" lon="-105.2297889">
  <ele>1582.91</ele>
  <time>2026-08-28T17:49:04Z</time>
  <course>247.11</course>
  <speed>0.022360679774997897</speed>
  <fix>3d</fix>
</trkpt>
<trkpt lat="40.0713749" lon="-105.229789">
  <ele>1583.0</ele>
  <time>2026-08-28T17:49:04Z</time>
  <course>0.0</course>
  <speed>0.0</speed>
  <fix>3d</fix>
</trkpt>
<trkpt lat="40.071375" lon="-105.2297889">
  <ele>1582.91</ele>
  <time>2026-08-28T17:49:04Z</time>
  <course>247.11</course>
  <speed>0.022360679774997897</speed>
  <fix>3d</fix>
</trkpt>
<trkpt lat="40.0713749" lon="-105.229789">
  <ele>1583.0</ele>
  <time>2026-08-28T17:49:04Z</time>
  <course>0.0</course>
  <speed>0.0</speed>
  <fix>3d</fix>
</trkpt>
<trkpt lat="40.0713751" lon="-105.2297889">
  <ele>1582.91</ele>
  <time>2026-08-28T17:49:05Z</time>
  <course>247.11</course>
  <speed>0.022360679774997897</speed>
  <fix>3d</fix>
</trkpt>
<trkpt lat="40.0713749" lon="-105.229789">
  <ele>1583.0</ele>
  <time>2026-08-28T17:49:05Z</time>
  <course>0.0</course>
  <speed>0.0</speed>
  <fix>3d</fix>
</trkpt>
<trkpt lat="40.071375" lon="-105.2297889">
  <ele>1582.91</ele>
  <time>2026-08-28T17:49:05Z</time>
  <course>247.11</course>
  <speed>0.022360679774997897</speed>
  <fix>3d</fix>
</trkpt>
<trkpt lat="40.0713749" lon="-105.229789">
  <ele>1583.0</ele>
  <time>2026-08-28T17:49:05Z</time>
  <course>0.0</course>
  <speed>0.0</speed>
  <fix>3d</fix>
</trkpt>
<trkpt lat="40.0713751" lon="-105.2297889">
  <ele>1582.91</ele>
  <time>2026-08-28T17:49:05Z</time>
  <course>247.11</course>
  <speed>0.022360679774997897</speed>
  <fix>3d</fix>
</trkpt>
<trkpt lat="40.0713749" lon="-105.229789">
  <ele>1583.0</ele>
  <time>2026-08-28T17:49:05Z</time>
  <course>0.0</course>
  <speed>0.0</speed>
  <fix>3d</fix>
</trkpt>
<trkpt lat="40.071375" lon="-105.2297889">
  <ele>1582.91</ele>
  <time>2026-08-28T17:49:05Z</time>
  <course>247.11</course>
  <speed>0.022360679774997897</speed>
  <fix>3d</fix>
</trkpt>
<trkpt lat="40.0713749" lon="-105.229789">
  <ele>1583.0</ele>
  <time>2026-08-28T17:49:05Z</time>
  <course>0.0</course>
  <speed>0.0</speed>
  <fix>3d</fix>
</trkpt>
<trkpt lat="40.0713751" lon="-105.2297889">
  <ele>1582.91</ele>
  <time>2026-08-28T17:49:05Z</time>
  <course>247.11</course>
  <speed>0.022360679774997897</speed>
  <fix>3d</fix>
</trkpt>
<trkpt lat="40.0713749" lon="-105.229789">
  <ele>1583.0</ele>
  <time>2026-08-28T17:49:05Z</time>
  <course>0.0</course>
  <speed>0.0</speed>
  <fix>3d</fix>
</trkpt>
<trkpt lat="40.071375" lon="-105.2297889">
  <ele>1582.91</ele>
  <time>2026-08-28T17:49:05Z</time>
  <course>247.11</course>
  <speed>0.022360679774997897</speed>
  <fix>3d</fix>
</trkpt>
<trkpt lat="40.0713749" lon="-105.229789">
  <ele>1583.0</ele>
  <time>2026-08-28T17:49:05Z</time>
  <course>0.0</course>
  <speed>0.0</speed>
  <fix>3d</fix>
</trkpt>
<trkpt lat="40.0713751" lon="-105.2297889">
  <ele>1582.91</ele>
  <time>2026-08-28T17:49:05Z</time>
  <course>247.11</course>
  <speed>0.022360679774997897</speed>
  <fix>3d</fix>
</trkpt>
<trkpt lat="40.0713749" lon="-105.229789">
  <ele>1583.0</ele>
  <time>2026-08-28T17:49:05Z</time>
  <course>0.0</course>
  <speed>0.0</speed>
  <fix>3d</fix>
</trkpt>
<trkpt lat="40.0713751" lon="-105.2297889">
  <ele>1582.91</ele>
  <time>2026-08-28T17:49:05Z</time>
  <course>247.11</course>
  <speed>0.022360679774997897</speed>
  <fix>3d</fix>
</trkpt>
<trkpt lat="40.0713749" lon="-105.229789">
  <ele>1583.0</ele>
  <time>2026-08-28T17:49:05Z</time>
  <course>0.0</course>
  <speed>0.0</speed>
  <fix>3d</fix>
</trkpt>
<trkpt lat="40.0713751" lon="-105.2297889">
  <ele>1582.91</ele>
  <time>2026-08-28T17:49:05Z</time>
  <course>247.11</course>
  <speed>0.022360679774997897</speed>
  <fix>3d</fix>
</trkpt>
<trkpt lat="40.0713749" lon="-105.229789">
  <ele>1583.0</ele>
  <time>2026-08-28T17:49:05Z</time>
  <course>0.0</course>
  <speed>0.0</speed>
  <fix>3d</fix>
</trkpt>
<trkpt lat="40.0713751" lon="-105.2297889">
  <ele>1582.91</ele>
  <time>2026-08-28T17:49:05Z</time>
  <course>247.11</course>
  <speed>0.022360679774997897</speed>
  <fix>3d</fix>
</trkpt>
<trkpt lat="40.0713749" lon="-105.229789">
  <ele>1583.0</ele>
  <time>2026-08-28T17:49:05Z</time>
  <course>0.0</course>
  <speed>0.0</speed>
  <fix>3d</fix>
</trkpt>
<trkpt lat="40.0713751" lon="-105.2297889">
  <ele>1582.91</ele>
  <time>2026-08-28T17:49:05Z</time>
  <course>247.11</course>
  <speed>0.022360679774997897</speed>
  <fix>3d</fix>
</trkpt>
<trkpt lat="40.0713749" lon="-105.229789">
  <ele>1583.0</ele>
  <time>2026-08-28T17:49:05Z</time>
  <course>0.0</course>
  <speed>0.0</speed>
  <fix>3d</fix>
</trkpt>
<trkpt lat="40.0713751" lon="-105.2297889">
  <ele>1582.91</ele>
  <time>2026-08-28T17:49:05Z</time>
  <course>247.11</course>
  <speed>0.022360679774997897</speed>
  <fix>3d</fix>
</trkpt>
<trkpt lat="40.0713749" lon="-105.229789">
  <ele>1583.0</ele>
  <time>2026-08-28T17:49:05Z</time>
  <course>0.0</course>
  <speed>0.0</speed>
  <fix>3d</fix>
</trkpt>
<trkpt lat="40.0713751" lon="-105.2297889">
  <ele>1582.9</ele>
  <time>2026-08-28T17:49:05Z</time>
  <course>247.11</course>
  <speed>0.022360679774997897</speed>
  <fix>3d</fix>
</trkpt>
<trkpt lat="40.0713749" lon="-105.229789">
  <ele>1583.0</ele>
  <time>2026-08-28T17:49:05Z</time>
  <course>0.0</course>
  <speed>0.0</speed>
  <fix>3d</fix>
</trkpt>
<trkpt lat="40.071375" lon="-105.2297889">
  <ele>1582.9</ele>
  <time>2026-08-28T17:49:05Z</time>
  <course>247.11</course>
  <speed>0.022360679774997897</speed>
  <fix>3d</fix>
</trkpt>
<trkpt lat="40.0713749" lon="-105.229789">
  <ele>1583.0</ele>
  <time>2026-08-28T17:49:05Z</time>
  <course>0.0</course>
  <speed>0.0</speed>
  <fix>3d</fix>
</trkpt>
<trkpt lat="40.0713751" lon="-105.2297889">
  <ele>1582.9</ele>
  <time>2026-08-28T17:49:05Z</time>
  <course>247.11</course>
  <speed>0.022360679774997897</speed>
  <fix>3d</fix>
</trkpt>
<trkpt lat="40.0713749" lon="-105.229789">
  <ele>1583.0</ele>
  <time>2026-08-28T17:49:05Z</time>
  <course>0.0</course>
  <speed>0.0</speed>
  <fix>3d</fix>
</trkpt>
<trkpt lat="40.071375" lon="-105.2297889">
  <ele>1582.89</ele>
  <time>2026-08-28T17:49:05Z</time>
  <course>247.11</course>
  <speed>0.022360679774997897</speed>
  <fix>3d</fix>
</trkpt>
<trkpt lat="40.0713749" lon="-105.229789">
  <ele>1583.0</ele>
  <time>2026-08-28T17:49:05Z</time>
  <course>0.0</course>
  <speed>0.0</speed>
  <fix>3d</fix>
</trkpt>
<trkpt lat="40.0713751" lon="-105.2297889">
  <ele>1582.89</ele>
  <time>2026-08-28T17:49:05Z</time>
  <course>247.11</course>
  <speed>0.022360679774997897</speed>
  <fix>3d</fix>
</trkpt>
<trkpt lat="40.0713749" lon="-105.229789">
  <ele>1583.0</ele>
  <time>2026-08-28T17:49:05Z</time>
  <course>0.0</course>
  <speed>0.0</speed>
  <fix>3d</fix>
</trkpt>
<trkpt lat="40.071375" lon="-105.2297889">
  <ele>1582.89</ele>
  <time>2026-08-28T17:49:05Z</time>
  <course>247.11</course>
  <speed>0.022360679774997897</speed>
  <fix>3d</fix>
</trkpt>
<trkpt lat="40.0713749" lon="-105.229789">
  <ele>1583.0</ele>
  <time>2026-08-28T17:49:05Z</time>
  <course>0.0</course>
  <speed>0.0</speed>
  <fix>3d</fix>
</trkpt>
<trkpt lat="39.655741" lon="-104.1383097">
  <ele>1566.58</ele>
  <time>2026-08-28T17:49:05Z</time>
  <course>0.0</course>
  <speed>0.0</speed>
  <fix>3d</fix>
</trkpt>
<trkpt lat="40.0713749" lon="-105.229789">
  <ele>1583.0</ele>
  <time>2026-08-28T17:49:05Z</time>
  <course>0.0</course>
  <speed>0.0</speed>
  <fix>3d</fix>
</trkpt>
<trkpt lat="40.0713749" lon="-105.229789">
  <ele>1583.0</ele>
  <time>2026-08-28T17:49:05Z</time>
  <course>238.36</course>
  <speed>0.0</speed>
  <fix>3d</fix>
</trkpt>
<trkpt lat="40.0713749" lon="-105.229789">
  <ele>1583.0</ele>
  <time>2026-08-28T17:49:05Z</time>
  <course>0.0</course>
  <speed>0.0</speed>
  <fix>3d</fix>
</trkpt>
<trkpt lat="40.0713749" lon="-105.229789">
  <ele>1583.0</ele>
  <time>2026-08-28T17:49:05Z</time>
  <course>238.44</course>
  <speed>0.0</speed>
  <fix>3d</fix>
</trkpt>
<trkpt lat="40.0713749" lon="-105.229789">
  <ele>1583.0</ele>
  <time>2026-08-28T17:49:05Z</time>
  <course>0.0</course>
  <speed>0.0</speed>
  <fix>3d</fix>
</trkpt>
<trkpt lat="40.0713749" lon="-105.229789">
  <ele>1583.0</ele>
  <time>2026-08-28T17:49:05Z</time>
  <course>238.93</course>
  <speed>0.0</speed>
  <fix>3d</fix>
</trkpt>
<trkpt lat="40.0713749" lon="-105.229789">
  <ele>1583.0</ele>
  <time>2026-08-28T17:49:05Z</time>
  <course>0.0</course>
  <speed>0.0</speed>
  <fix>3d</fix>
</trkpt>
<trkpt lat="40.0713749" lon="-105.229789">
  <ele>1583.0</ele>
  <time>2026-08-28T17:49:05Z</time>
  <course>239.26</course>
  <speed>0.0</speed>
  <fix>3d</fix>
</trkpt>
<trkpt lat="40.0713749" lon="-105.229789">
  <ele>1583.0</ele>
  <time>2026-08-28T17:49:05Z</time>
  <course>0.0</course>
  <speed>0.0</speed>
  <fix>3d</fix>
</trkpt>
<trkpt lat="40.0713749" lon="-105.229789">
  <ele>1583.0</ele>
  <time>2026-08-28T17:49:05Z</time>
  <course>239.61</course>
  <speed>0.0</speed>
  <fix>3d</fix>
</trkpt>
<trkpt lat="40.0713749" lon="-105.229789">
  <ele>1583.0</ele>
  <time>2026-08-28T17:49:05Z</time>
  <course>0.0</course>
  <speed>0.0</speed>
  <fix>3d</fix>
</trkpt>
<trkpt lat="40.0713749" lon="-105.229789">
  <ele>1583.0</ele>
  <time>2026-08-28T17:49:05Z</time>
  <course>239.96</course>
  <speed>0.0</speed>
  <fix>3d</fix>
</trkpt>
<trkpt lat="40.0713749" lon="-105.229789">
  <ele>1583.0</ele>
  <time>2026-08-28T17:49:05Z</time>
  <course>0.0</course>
  <speed>0.0</speed>
  <fix>3d</fix>
</trkpt>
<trkpt lat="40.0713749" lon="-105.229789">
  <ele>1583.0</ele>
  <time>2026-08-28T17:49:05Z</time>
  <course>240.29</course>
  <speed>0.0</speed>
  <fix>3d</fix>
</trkpt>
<trkpt lat="40.0713749" lon="-105.229789">
  <ele>1583.0</ele>
  <time>2026-08-28T17:49:05Z</time>
  <course>0.0</course>
  <speed>0.0</speed>
  <fix>3d</fix>
</trkpt>
<trkpt lat="40.0713749" lon="-105.229789">
  <ele>1583.0</ele>
  <time>2026-08-28T17:49:05Z</time>
  <course>240.61</course>
  <speed>0.0</speed>
  <fix>3d</fix>
</trkpt>
<trkpt lat="40.0713749" lon="-105.229789">
  <ele>1583.0</ele>
  <time>2026-08-28T17:49:05Z</time>
  <course>0.0</course>
  <speed>0.0</speed>
  <fix>3d</fix>
</trkpt>
<trkpt lat="40.0713749" lon="-105.229789">
  <ele>1583.0</ele>
  <time>2026-08-28T17:49:05Z</time>
  <course>240.92</course>
  <speed>0.0</speed>
  <fix>3d</fix>
</trkpt>
<trkpt lat="40.0713749" lon="-105.229789">
  <ele>1583.0</ele>
  <time>2026-08-28T17:49:05Z</time>
  <course>0.0</course>
  <speed>0.0</speed>
  <fix>3d</fix>
</trkpt>
<trkpt lat="40.0713749" lon="-105.229789">
  <ele>1583.0</ele>
  <time>2026-08-28T17:49:05Z</time>
  <course>241.21</course>
  <speed>0.0</speed>
  <fix>3d</fix>
</trkpt>
<trkpt lat="40.0713749" lon="-105.229789">
  <ele>1583.0</ele>
  <time>2026-08-28T17:49:05Z</time>
  <course>0.0</course>
  <speed>0.0</speed>
  <fix>3d</fix>
</trkpt>
<trkpt lat="40.0713749" lon="-105.229789">
  <ele>1583.0</ele>
  <time>2026-08-28T17:49:05Z</time>
  <course>241.49</course>
  <speed>0.0</speed>
  <fix>3d</fix>
</trkpt>
<trkpt lat="40.0713749" lon="-105.229789">
  <ele>1583.0</ele>
  <time>2026-08-28T17:49:05Z</time>
  <course>0.0</course>
  <speed>0.0</speed>
  <fix>3d</fix>
</trkpt>
<trkpt lat="40.0713749" lon="-105.229789">
  <ele>1583.0</ele>
  <time>2026-08-28T17:49:05Z</time>
  <course>241.77</course>
  <speed>0.0</speed>
  <fix>3d</fix>
</trkpt>
<trkpt lat="40.0713749" lon="-105.229789">
  <ele>1583.0</ele>
  <time>2026-08-28T17:49:05Z</time>
  <course>0.0</course>
  <speed>0.0</speed>
  <fix>3d</fix>
</trkpt>
<trkpt lat="40.0713749" lon="-105.229789">
  <ele>1583.0</ele>
  <time>2026-08-28T17:49:05Z</time>
  <course>242.03</course>
  <speed>0.0</speed>
  <fix>3d</fix>
</trkpt>
<trkpt lat="40.0713749" lon="-105.229789">
  <ele>1583.0</ele>
  <time>2026-08-28T17:49:05Z</time>
  <course>0.0</course>
  <speed>0.0</speed>
  <fix>3d</fix>
</trkpt>
<trkpt lat="40.0713749" lon="-105.229789">
  <ele>1583.0</ele>
  <time>2026-08-28T17:49:05Z</time>
  <course>242.29</course>
  <speed>0.0</speed>
  <fix>3d</fix>
</trkpt>
<trkpt lat="40.0713749" lon="-105.229789">
  <ele>1583.0</ele>
  <time>2026-08-28T17:49:05Z</time>
  <course>0.0</course>
  <speed>0.0</speed>
  <fix>3d</fix>
</trkpt>
<trkpt lat="40.0713749" lon="-105.229789">
  <ele>1583.0</ele>
  <time>2026-08-28T17:49:05Z</time>
  <course>242.54</course>
  <speed>0.0</speed>
  <fix>3d</fix>
</trkpt>
<trkpt lat="40.0713749" lon="-105.229789">
  <ele>1583.0</ele>
  <time>2026-08-28T17:49:05Z</time>
  <course>0.0</course>
  <speed>0.0</speed>
  <fix>3d</fix>
</trkpt>
<trkpt lat="40.0713749" lon="-105.229789">
  <ele>1583.0</ele>
  <time>2026-08-28T17:49:05Z</time>
  <course>242.79</course>
  <speed>0.0</speed>
  <fix>3d</fix>
</trkpt>
<trkpt lat="40.0713749" lon="-105.229789">
  <ele>1583.0</ele>
  <time>2026-08-28T17:49:05Z</time>
  <course>0.0</course>
  <speed>0.0</speed>
  <fix>3d</fix>
</trkpt>
<trkpt lat="40.0713749" lon="-105.229789">
  <ele>1583.0</ele>
  <time>2026-08-28T17:49:05Z</time>
  <course>243.02</course>
  <speed>0.0</speed>
  <fix>3d</fix>
</trkpt>
<trkpt lat="40.0713749" lon="-105.229789">
  <ele>1583.0</ele>
  <time>2026-08-28T17:49:05Z</time>
  <course>0.0</course>
  <speed>0.0</speed>
  <fix>3d</fix>
</trkpt>
<trkpt lat="40.0713749" lon="-105.229789">
  <ele>1583.0</ele>
  <time>2026-08-28T17:49:05Z</time>
  <course>243.25</course>
  <speed>0.0</speed>
  <fix>3d</fix>
</trkpt>
<trkpt lat="40.0713749" lon="-105.229789">
  <ele>1583.0</ele>
  <time>2026-08-28T17:49:05Z</time>
  <course>0.0</course>
  <speed>0.0</speed>
  <fix>3d</fix>
</trkpt>
<trkpt lat="40.0713749" lon="-105.229789">
  <ele>1583.0</ele>
  <time>2026-08-28T17:49:05Z</time>
  <course>243.47</course>
  <speed>0.0</speed>
  <fix>3d</fix>
</trkpt>
<trkpt lat="40.0713749" lon="-105.229789">
  <ele>1583.0</ele>
  <time>2026-08-28T17:49:05Z</time>
  <course>0.0</course>
  <speed>0.0</speed>
  <fix>3d</fix>
</trkpt>
<trkpt lat="40.0713749" lon="-105.229789">
  <ele>1583.0</ele>
  <time>2026-08-28T17:49:05Z</time>
  <course>243.68</course>
  <speed>0.0</speed>
  <fix>3d</fix>
</trkpt>
<trkpt lat="40.0713749" lon="-105.229789">
  <ele>1583.0</ele>
  <time>2026-08-28T17:49:05Z</time>
  <course>0.0</course>
  <speed>0.0</speed>
  <fix>3d</fix>
</trkpt>
<trkpt lat="40.0713749" lon="-105.229789">
  <ele>1583.0</ele>
  <time>2026-08-28T17:49:05Z</time>
  <course>243.89</course>
  <speed>0.0</speed>
  <fix>3d</fix>
</trkpt>
<trkpt lat="40.0713749" lon="-105.229789">
  <ele>1583.0</ele>
  <time>2026-08-28T17:49:05Z</time>
  <course>0.0</course>
  <speed>0.0</speed>
  <fix>3d</fix>
</trkpt>
<trkpt lat="40.0713749" lon="-105.229789">
  <ele>1583.0</ele>
  <time>2026-08-28T17:49:05Z</time>
  <course>244.09</course>
  <speed>0.0</speed>
  <fix>3d</fix>
</trkpt>
<trkpt lat="40.0713749" lon="-105.229789">
  <ele>1583.0</ele>
  <time>2026-08-28T17:49:05Z</time>
  <course>0.0</course>
  <speed>0.0</speed>
  <fix>3d</fix>
</trkpt>
<trkpt lat="40.0713749" lon="-105.229789">
  <ele>1583.0</ele>
  <time>2026-08-28T17:49:05Z</time>
  <course>244.28</course>
  <speed>0.0</speed>
  <fix>3d</fix>
</trkpt>
<trkpt lat="40.0713749" lon="-105.229789">
  <ele>1583.0</ele>
  <time>2026-08-28T17:49:05Z</time>
  <course>0.0</course>
  <speed>0.0</speed>
  <fix>3d</fix>
</trkpt>
<trkpt lat="40.0713749" lon="-105.229789">
  <ele>1583.0</ele>
  <time>2026-08-28T17:49:05Z</time>
  <course>244.46</course>
  <speed>0.0</speed>
  <fix>3d</fix>
</trkpt>
<trkpt lat="40.0713749" lon="-105.229789">
  <ele>1583.0</ele>
  <time>2026-08-28T17:49:05Z</time>
  <course>0.0</course>
  <speed>0.0</speed>
  <fix>3d</fix>
</trkpt>
<trkpt lat="39.655741" lon="-104.1383097">
  <ele>1566.58</ele>
  <time>2026-08-28T17:49:07Z</time>
  <course>0.0</course>
  <speed>0.0</speed>
  <fix>3d</fix>
</trkpt>
<trkpt lat="40.0713749" lon="-105.229789">
  <ele>1583.0</ele>
  <time>2026-08-28T17:49:07Z</time>
  <course>0.0</course>
  <speed>0.0</speed>
  <fix>3d</fix>
</trkpt>
<trkpt lat="40.0713749" lon="-105.229789">
  <ele>1583.0</ele>
  <time>2026-08-28T17:49:07Z</time>
  <course>238.36</course>
  <speed>0.0</speed>
  <fix>3d</fix>
</trkpt>
<trkpt lat="40.0713749" lon="-105.229789">
  <ele>1583.0</ele>
  <time>2026-08-28T17:49:07Z</time>
  <course>0.0</course>
  <speed>0.0</speed>
  <fix>3d</fix>
</trkpt>
<trkpt lat="40.0713749" lon="-105.229789">
  <ele>1583.0</ele>
  <time>2026-08-28T17:49:07Z</time>
  <course>238.44</course>
  <speed>0.0</speed>
  <fix>3d</fix>
</trkpt>
<trkpt lat="40.0713749" lon="-105.229789">
  <ele>1583.0</ele>
  <time>2026-08-28T17:49:07Z</time>
  <course>0.0</course>
  <speed>0.0</speed>
  <fix>3d</fix>
</trkpt>
<trkpt lat="40.0713749" lon="-105.229789">
  <ele>1583.0</ele>
  <time>2026-08-28T17:49:07Z</time>
  <course>238.64</course>
  <speed>0.0</speed>
  <fix>3d</fix>
</trkpt>
<trkpt lat="40.0713749" lon="-105.229789">
  <ele>1583.0</ele>
  <time>2026-08-28T17:49:07Z</time>
  <course>0.0</course>
  <speed>0.0</speed>
  <fix>3d</fix>
</trkpt>
<trkpt lat="40.0713749" lon="-105.229789">
  <ele>1583.0</ele>
  <time>2026-08-28T17:49:07Z</time>
  <course>238.93</course>
  <speed>0.0</speed>
  <fix>3d</fix>
</trkpt>
<trkpt lat="40.0713749" lon="-105.229789">
  <ele>1583.0</ele>
  <time>2026-08-28T17:49:07Z</time>
  <course>0.0</course>
  <speed>0.0</speed>
  <fix>3d</fix>
</trkpt>
<trkpt lat="40.0713749" lon="-105.229789">
  <ele>1583.0</ele>
  <time>2026-08-28T17:49:07Z</time>
  <course>239.26</course>
  <speed>0.0</speed>
  <fix>3d</fix>
</trkpt>
<trkpt lat="40.0713749" lon="-105.229789">
  <ele>1583.0</ele>
  <time>2026-08-28T17:49:07Z</time>
  <course>0.0</course>
  <speed>0.0</speed>
  <fix>3d</fix>
</trkpt>
<trkpt lat="40.0713749" lon="-105.229789">
  <ele>1583.0</ele>
  <time>2026-08-28T17:49:07Z</time>
  <course>239.61</course>
  <speed>0.0</speed>
  <fix>3d</fix>
</trkpt>
<trkpt lat="40.0713749" lon="-105.229789">
  <ele>1583.0</ele>
  <time>2026-08-28T17:49:07Z</time>
  <course>0.0</course>
  <speed>0.0</speed>
  <fix>3d</fix>
</trkpt>
<trkpt lat="40.0713749" lon="-105.229789">
  <ele>1583.0</ele>
  <time>2026-08-28T17:49:07Z</time>
  <course>239.96</course>
  <speed>0.0</speed>
  <fix>3d</fix>
</trkpt>
<trkpt lat="40.0713749" lon="-105.229789">
  <ele>1583.0</ele>
  <time>2026-08-28T17:49:07Z</time>
  <course>0.0</course>
  <speed>0.0</speed>
  <fix>3d</fix>
</trkpt>
<trkpt lat="40.0713749" lon="-105.229789">
  <ele>1583.0</ele>
  <time>2026-08-28T17:49:07Z</time>
  <course>240.29</course>
  <speed>0.0</speed>
  <fix>3d</fix>
</trkpt>
<trkpt lat="40.0713749" lon="-105.229789">
  <ele>1583.0</ele>
  <time>2026-08-28T17:49:07Z</time>
  <course>0.0</course>
  <speed>0.0</speed>
  <fix>3d</fix>
</trkpt>
<trkpt lat="40.0713749" lon="-105.229789">
  <ele>1583.0</ele>
  <time>2026-08-28T17:49:07Z</time>
  <course>240.61</course>
  <speed>0.0</speed>
  <fix>3d</fix>
</trkpt>
<trkpt lat="40.0713749" lon="-105.229789">
  <ele>1583.0</ele>
  <time>2026-08-28T17:49:07Z</time>
  <course>0.0</course>
  <speed>0.0</speed>
  <fix>3d</fix>
</trkpt>
<trkpt lat="40.0713749" lon="-105.229789">
  <ele>1583.0</ele>
  <time>2026-08-28T17:49:07Z</time>
  <course>240.92</course>
  <speed>0.0</speed>
  <fix>3d</fix>
</trkpt>
<trkpt lat="40.0713749" lon="-105.229789">
  <ele>1583.0</ele>
  <time>2026-08-28T17:49:07Z</time>
  <course>0.0</course>
  <speed>0.0</speed>
  <fix>3d</fix>
</trkpt>
<trkpt lat="40.0713749" lon="-105.229789">
  <ele>1583.0</ele>
  <time>2026-08-28T17:49:07Z</time>
  <course>241.21</course>
  <speed>0.0</speed>
  <fix>3d</fix>
</trkpt>
<trkpt lat="40.0713749" lon="-105.229789">
  <ele>1583.0</ele>
  <time>2026-08-28T17:49:07Z</time>
  <course>0.0</course>
  <speed>0.0</speed>
  <fix>3d</fix>
</trkpt>
<trkpt lat="40.0713749" lon="-105.229789">
  <ele>1583.0</ele>
  <time>2026-08-28T17:49:07Z</time>
  <course>241.49</course>
  <speed>0.0</speed>
  <fix>3d</fix>
</trkpt>
<trkpt lat="40.0713749" lon="-105.229789">
  <ele>1583.0</ele>
  <time>2026-08-28T17:49:07Z</time>
  <course>0.0</course>
  <speed>0.0</speed>
  <fix>3d</fix>
</trkpt>
<trkpt lat="40.0713749" lon="-105.229789">
  <ele>1583.0</ele>
  <time>2026-08-28T17:49:07Z</time>
  <course>241.77</course>
  <speed>0.0</speed>
  <fix>3d</fix>
</trkpt>
<trkpt lat="40.0713749" lon="-105.229789">
  <ele>1583.0</ele>
  <time>2026-08-28T17:49:07Z</time>
  <course>0.0</course>
  <speed>0.0</speed>
  <fix>3d</fix>
</trkpt>
<trkpt lat="40.0713749" lon="-105.229789">
  <ele>1583.0</ele>
  <time>2026-08-28T17:49:07Z</time>
  <course>242.03</course>
  <speed>0.0</speed>
  <fix>3d</fix>
</trkpt>
<trkpt lat="40.0713749" lon="-105.229789">
  <ele>1583.0</ele>
  <time>2026-08-28T17:49:07Z</time>
  <course>0.0</course>
  <speed>0.0</speed>
  <fix>3d</fix>
</trkpt>
<trkpt lat="40.0713749" lon="-105.229789">
  <ele>1583.0</ele>
  <time>2026-08-28T17:49:07Z</time>
  <course>242.29</course>
  <speed>0.0</speed>
  <fix>3d</fix>
</trkpt>
<trkpt lat="40.0713749" lon="-105.229789">
  <ele>1583.0</ele>
  <time>2026-08-28T17:49:07Z</time>
  <course>0.0</course>
  <speed>0.0</speed>
  <fix>3d</fix>
</trkpt>
<trkpt lat="40.0713749" lon="-105.229789">
  <ele>1583.0</ele>
  <time>2026-08-28T17:49:07Z</time>
  <course>242.54</course>
  <speed>0.0</speed>
  <fix>3d</fix>
</trkpt>
<trkpt lat="40.0713749" lon="-105.229789">
  <ele>1583.0</ele>
  <time>2026-08-28T17:49:07Z</time>
  <course>0.0</course>
  <speed>0.0</speed>
  <fix>3d</fix>
</trkpt>
<trkpt lat="40.0713749" lon="-105.229789">
  <ele>1583.0</ele>
  <time>2026-08-28T17:49:07Z</time>
  <course>242.79</course>
  <speed>0.0</speed>
  <fix>3d</fix>
</trkpt>
<trkpt lat="40.0713749" lon="-105.229789">
  <ele>1583.0</ele>
  <time>2026-08-28T17:49:07Z</time>
  <course>0.0</course>
  <speed>0.0</speed>
  <fix>3d</fix>
</trkpt>
<trkpt lat="40.0713749" lon="-105.229789">
  <ele>1583.0</ele>
  <time>2026-08-28T17:49:07Z</time>
  <course>243.02</course>
  <speed>0.0</speed>
  <fix>3d</fix>
</trkpt>
<trkpt lat="40.0713749" lon="-105.229789">
  <ele>1583.0</ele>
  <time>2026-08-28T17:49:07Z</time>
  <course>0.0</course>
  <speed>0.0</speed>
  <fix>3d</fix>
</trkpt>
<trkpt lat="40.0713749" lon="-105.229789">
  <ele>1583.0</ele>
  <time>2026-08-28T17:49:07Z</time>
  <course>243.25</course>
  <speed>0.0</speed>
  <fix>3d</fix>
</trkpt>
<trkpt lat="40.0713749" lon="-105.229789">
  <ele>1583.0</ele>
  <time>2026-08-28T17:49:07Z</time>
  <course>0.0</course>
  <speed>0.0</speed>
  <fix>3d</fix>
</trkpt>
<trkpt lat="40.0713749" lon="-105.229789">
  <ele>1583.0</ele>
  <time>2026-08-28T17:49:07Z</time>
  <course>243.47</course>
  <speed>0.0</speed>
  <fix>3d</fix>
</trkpt>
<trkpt lat="40.0713749" lon="-105.229789">
  <ele>1583.0</ele>
  <time>2026-08-28T17:49:07Z</time>
  <course>0.0</course>
  <speed>0.0</speed>
  <fix>3d</fix>
</trkpt>
<trkpt lat="40.0713749" lon="-105.229789">
  <ele>1583.0</ele>
  <time>2026-08-28T17:49:07Z</time>
  <course>243.68</course>
  <speed>0.0</speed>
  <fix>3d</fix>
</trkpt>
<trkpt lat="40.0713749" lon="-105.229789">
  <ele>1583.0</ele>
  <time>2026-08-28T17:49:07Z</time>
  <course>0.0</course>
  <speed>0.0</speed>
  <fix>3d</fix>
</trkpt>
<trkpt lat="40.0713749" lon="-105.229789">
  <ele>1583.0</ele>
  <time>2026-08-28T17:49:07Z</time>
  <course>243.89</course>
  <speed>0.0</speed>
  <fix>3d</fix>
</trkpt>
<trkpt lat="40.0713749" lon="-105.229789">
  <ele>1583.0</ele>
  <time>2026-08-28T17:49:07Z</time>
  <course>0.0</course>
  <speed>0.0</speed>
  <fix>3d</fix>
</trkpt>
<trkpt lat="40.0713749" lon="-105.229789">
  <ele>1583.0</ele>
  <time>2026-08-28T17:49:07Z</time>
  <course>244.09</course>
  <speed>0.0</speed>
  <fix>3d</fix>
</trkpt>
<trkpt lat="40.0713749" lon="-105.229789">
  <ele>1583.0</ele>
  <time>2026-08-28T17:49:07Z</time>
  <course>0.0</course>
  <speed>0.0</speed>
  <fix>3d</fix>
</trkpt>
<trkpt lat="40.0713749" lon="-105.229789">
  <ele>1583.0</ele>
  <time>2026-08-28T17:49:07Z</time>
  <course>244.28</course>
  <speed>0.0</speed>
  <fix>3d</fix>
</trkpt>
<trkpt lat="40.0713749" lon="-105.229789">
  <ele>1583.0</ele>
  <time>2026-08-28T17:49:07Z</time>
  <course>0.0</course>
  <speed>0.0</speed>
  <fix>3d</fix>
</trkpt>
<trkpt lat="40.0713749" lon="-105.229789">
  <ele>1583.0</ele>
  <time>2026-08-28T17:49:07Z</time>
  <course>244.46</course>
  <speed>0.0</speed>
  <fix>3d</fix>
</trkpt>
<trkpt lat="40.0713749" lon="-105.229789">
  <ele>1583.0</ele>
  <time>2026-08-28T17:49:07Z</time>
  <course>0.0</course>
  <speed>0.0</speed>
  <fix>3d</fix>
</trkpt>
<trkpt lat="40.0713749" lon="-105.229789">
  <ele>1583.0</ele>
  <time>2026-08-28T17:49:07Z</time>
  <course>244.64</course>
  <speed>0.0</speed>
  <fix>3d</fix>
</trkpt>
<trkpt lat="40.0713749" lon="-105.229789">
  <ele>1583.0</ele>
  <time>2026-08-28T17:49:07Z</time>
  <course>0.0</course>
  <speed>0.0</speed>
  <fix>3d</fix>
</trkpt>
<trkpt lat="40.0713749" lon="-105.229789">
  <ele>1583.0</ele>
  <time>2026-08-28T17:49:07Z</time>
  <course>244.81</course>
  <speed>0.0</speed>
  <fix>3d</fix>
</trkpt>
<trkpt lat="40.0713749" lon="-105.229789">
  <ele>1583.0</ele>
  <time>2026-08-28T17:49:07Z</time>
  <course>0.0</course>
  <speed>0.0</speed>
  <fix>3d</fix>
</trkpt>
<trkpt lat="40.0713749" lon="-105.229789">
  <ele>1583.0</ele>
  <time>2026-08-28T17:49:07Z</time>
  <course>244.97</course>
  <speed>0.0</speed>
  <fix>3d</fix>
</trkpt>
<trkpt lat="40.0713749" lon="-105.229789">
  <ele>1583.0</ele>
  <time>2026-08-28T17:49:07Z</time>
  <course>0.0</course>
  <speed>0.0</speed>
  <fix>3d</fix>
</trkpt>
<trkpt lat="40.0713749" lon="-105.229789">
  <ele>1583.0</ele>
  <time>2026-08-28T17:49:07Z</time>
  <course>245.13</course>
  <speed>0.0</speed>
  <fix>3d</fix>
</trkpt>
<trkpt lat="40.0713749" lon="-105.229789">
  <ele>1583.0</ele>
  <time>2026-08-28T17:49:07Z</time>
  <course>0.0</course>
  <speed>0.0</speed>
  <fix>3d</fix>
</trkpt>
<trkpt lat="40.0713749" lon="-105.229789">
  <ele>1583.0</ele>
  <time>2026-08-28T17:49:07Z</time>
  <course>245.29</course>
  <speed>0.0</speed>
  <fix>3d</fix>
</trkpt>
<trkpt lat="40.0713749" lon="-105.229789">
  <ele>1583.0</ele>
  <time>2026-08-28T17:49:07Z</time>
  <course>0.0</course>
  <speed>0.0</speed>
  <fix>3d</fix>
</trkpt>
<trkpt lat="40.0713749" lon="-105.229789">
  <ele>1583.0</ele>
  <time>2026-08-28T17:49:07Z</time>
  <course>245.43</course>
  <speed>0.0</speed>
  <fix>3d</fix>
</trkpt>
<trkpt lat="40.0713749" lon="-105.229789">
  <ele>1583.0</ele>
  <time>2026-08-28T17:49:07Z</time>
  <course>0.0</course>
  <speed>0.0</speed>
  <fix>3d</fix>
</trkpt>
<trkpt lat="40.0713749" lon="-105.229789">
  <ele>1583.0</ele>
  <time>2026-08-28T17:49:07Z</time>
  <course>245.57</course>
  <speed>0.0</speed>
  <fix>3d</fix>
</trkpt>
<trkpt lat="40.0713749" lon="-105.229789">
  <ele>1583.0</ele>
  <time>2026-08-28T17:49:07Z</time>
  <course>0.0</course>
  <speed>0.0</speed>
  <fix>3d</fix>
</trkpt>
<trkpt lat="40.0713749" lon="-105.229789">
  <ele>1583.0</ele>
  <time>2026-08-28T17:49:07Z</time>
  <course>245.71</course>
  <speed>0.0</speed>
  <fix>3d</fix>
</trkpt>
<trkpt lat="40.0713749" lon="-105.229789">
  <ele>1583.0</ele>
  <time>2026-08-28T17:49:07Z</time>
  <course>0.0</course>
  <speed>0.0</speed>
  <fix>3d</fix>
</trkpt>
<trkpt lat="40.0713749" lon="-105.229789">
  <ele>1583.0</ele>
  <time>2026-08-28T17:49:07Z</time>
  <course>245.84</course>
  <speed>0.0</speed>
  <fix>3d</fix>
</trkpt>
<trkpt lat="40.0713749" lon="-105.229789">
  <ele>1583.0</ele>
  <time>2026-08-28T17:49:07Z</time>
  <course>0.0</course>
  <speed>0.0</speed>
  <fix>3d</fix>
</trkpt>
<trkpt lat="40.0713749" lon="-105.229789">
  <ele>1583.0</ele>
  <time>2026-08-28T17:49:07Z</time>
  <course>245.96</course>
  <speed>0.0</speed>
  <fix>3d</fix>
</trkpt>
<trkpt lat="40.0713749" lon="-105.229789">
  <ele>1583.0</ele>
  <time>2026-08-28T17:49:07Z</time>
  <course>0.0</course>
  <speed>0.0</speed>
  <fix>3d</fix>
</trkpt>
<trkpt lat="40.0713749" lon="-105.229789">
  <ele>1583.0</ele>
  <time>2026-08-28T17:49:07Z</time>
  <course>246.08</course>
  <speed>0.0</speed>
  <fix>3d</fix>
</trkpt>
<trkpt lat="40.0713749" lon="-105.229789">
  <ele>1583.0</ele>
  <time>2026-08-28T17:49:07Z</time>
  <course>0.0</course>
  <speed>0.0</speed>
  <fix>3d</fix>
</trkpt>
<trkpt lat="40.0713749" lon="-105.229789">
  <ele>1583.0</ele>
  <time>2026-08-28T17:49:07Z</time>
  <course>246.19</course>
  <speed>0.0</speed>
  <fix>3d</fix>
</trkpt>
<trkpt lat="40.0713749" lon="-105.229789">
  <ele>1583.0</ele>
  <time>2026-08-28T17:49:07Z</time>
  <course>0.0</course>
  <speed>0.0</speed>
  <fix>3d</fix>
</trkpt>
<trkpt lat="40.0713749" lon="-105.229789">
  <ele>1583.0</ele>
  <time>2026-08-28T17:49:07Z</time>
  <course>246.3</course>
  <speed>0.0</speed>
  <fix>3d</fix>
</trkpt>
<trkpt lat="40.0713749" lon="-105.229789">
  <ele>1583.0</ele>
  <time>2026-08-28T17:49:07Z</time>
  <course>0.0</course>
  <speed>0.0</speed>
  <fix>3d</fix>
</trkpt>
<trkpt lat="40.0713749" lon="-105.229789">
  <ele>1583.0</ele>
  <time>2026-08-28T17:49:07Z</time>
  <course>246.41</course>
  <speed>0.0</speed>
  <fix>3d</fix>
</trkpt>
<trkpt lat="40.0713749" lon="-105.229789">
  <ele>1583.0</ele>
  <time>2026-08-28T17:49:07Z</time>
  <course>0.0</course>
  <speed>0.0</speed>
  <fix>3d</fix>
</trkpt>
<trkpt lat="40.0713749" lon="-105.229789">
  <ele>1583.0</ele>
  <time>2026-08-28T17:49:07Z</time>
  <course>246.51</course>
  <speed>0.0</speed>
  <fix>3d</fix>
</trkpt>
<trkpt lat="40.0713749" lon="-105.229789">
  <ele>1583.0</ele>
  <time>2026-08-28T17:49:07Z</time>
  <course>0.0</course>
  <speed>0.0</speed>
  <fix>3d</fix>
</trkpt>
<trkpt lat="40.0713749" lon="-105.229789">
  <ele>1583.0</ele>
  <time>2026-08-28T17:49:07Z</time>
  <course>246.6</course>
  <speed>0.0</speed>
  <fix>3d</fix>
</trkpt>
<trkpt lat="40.0713749" lon="-105.229789">
  <ele>1583.0</ele>
  <time>2026-08-28T17:49:07Z</time>
  <course>0.0</course>
  <speed>0.0</speed>
  <fix>3d</fix>
</trkpt>
<trkpt lat="40.0713749" lon="-105.229789">
  <ele>1583.0</ele>
  <time>2026-08-28T17:49:07Z</time>
  <course>246.7</course>
  <speed>0.0</speed>
  <fix>3d</fix>
</trkpt>
<trkpt lat="40.0713749" lon="-105.229789">
  <ele>1583.0</ele>
  <time>2026-08-28T17:49:07Z</time>
  <course>0.0</course>
  <speed>0.0</speed>
  <fix>3d</fix>
</trkpt>
<trkpt lat="40.0713749" lon="-105.229789">
  <ele>1583.0</ele>
  <time>2026-08-28T17:49:07Z</time>
  <course>246.78</course>
  <speed>0.0</speed>
  <fix>3d</fix>
</trkpt>
<trkpt lat="40.0713749" lon="-105.229789">
  <ele>1583.0</ele>
  <time>2026-08-28T17:49:07Z</time>
  <course>0.0</course>
  <speed>0.0</speed>
  <fix>3d</fix>
</trkpt>
<trkpt lat="40.0713749" lon="-105.229789">
  <ele>1583.0</ele>
  <time>2026-08-28T17:49:07Z</time>
  <course>246.87</course>
  <speed>0.0</speed>
  <fix>3d</fix>
</trkpt>
<trkpt lat="40.0713749" lon="-105.229789">
  <ele>1583.0</ele>
  <time>2026-08-28T17:49:07Z</time>
  <course>0.0</course>
  <speed>0.0</speed>
  <fix>3d</fix>
</trkpt>
<trkpt lat="40.0713749" lon="-105.229789">
  <ele>1583.0</ele>
  <time>2026-08-28T17:49:07Z</time>
  <course>246.95</course>
  <speed>0.0</speed>
  <fix>3d</fix>
</trkpt>
<trkpt lat="40.0713749" lon="-105.229789">
  <ele>1583.0</ele>
  <time>2026-08-28T17:49:07Z</time>
  <course>0.0</course>
  <speed>0.0</speed>
  <fix>3d</fix>
</trkpt>
<trkpt lat="40.0713749" lon="-105.229789">
  <ele>1583.0</ele>
  <time>2026-08-28T17:49:07Z</time>
  <course>247.02</course>
  <speed>0.0</speed>
  <fix>3d</fix>
</trkpt>
<trkpt lat="40.0713749" lon="-105.229789">
  <ele>1583.0</ele>
  <time>2026-08-28T17:49:07Z</time>
  <course>0.0</course>
  <speed>0.0</speed>
  <fix>3d</fix>
</trkpt>
<trkpt lat="40.0713749" lon="-105.229789">
  <ele>1583.0</ele>
  <time>2026-08-28T17:49:07Z</time>
  <course>247.1</course>
  <speed>0.0</speed>
  <fix>3d</fix>
</trkpt>
<trkpt lat="40.0713749" lon="-105.229789">
  <ele>1583.0</ele>
  <time>2026-08-28T17:49:07Z</time>
  <course>0.0</course>
  <speed>0.0</speed>
  <fix>3d</fix>
</trkpt>
<trkpt lat="40.0713749" lon="-105.229789">
  <ele>1583.0</ele>
  <time>2026-08-28T17:49:07Z</time>
  <course>247.17</course>
  <speed>0.0</speed>
  <fix>3d</fix>
</trkpt>
<trkpt lat="40.0713749" lon="-105.229789">
  <ele>1583.0</ele>
  <time>2026-08-28T17:49:07Z</time>
  <course>0.0</course>
  <speed>0.0</speed>
  <fix>3d</fix>
</trkpt>
<trkpt lat="40.0713749" lon="-105.229789">
  <ele>1583.0</ele>
  <time>2026-08-28T17:49:07Z</time>
  <course>247.24</course>
  <speed>0.0</speed>
  <fix>3d</fix>
</trkpt>
<trkpt lat="40.0713749" lon="-105.229789">
  <ele>1583.0</ele>
  <time>2026-08-28T17:49:07Z</time>
  <course>0.0</course>
  <speed>0.0</speed>
  <fix>3d</fix>
</trkpt>
<trkpt lat="40.0713749" lon="-105.229789">
  <ele>1583.0</ele>
  <time>2026-08-28T17:49:07Z</time>
  <course>247.3</course>
  <speed>0.0</speed>
  <fix>3d</fix>
</trkpt>
<trkpt lat="40.0713749" lon="-105.229789">
  <ele>1583.0</ele>
  <time>2026-08-28T17:49:07Z</time>
  <course>0.0</course>
  <speed>0.0</speed>
  <fix>3d</fix>
</trkpt>
<trkpt lat="40.0713749" lon="-105.229789">
  <ele>1583.0</ele>
  <time>2026-08-28T17:49:07Z</time>
  <course>247.36</course>
  <speed>0.0</speed>
  <fix>3d</fix>
</trkpt>
<trkpt lat="40.0713749" lon="-105.229789">
  <ele>1583.0</ele>
  <time>2026-08-28T17:49:07Z</time>
  <course>0.0</course>
  <speed>0.0</speed>
  <fix>3d</fix>
</trkpt>
<trkpt lat="40.0713749" lon="-105.229789">
  <ele>1583.0</ele>
  <time>2026-08-28T17:49:07Z</time>
  <course>247.42</course>
  <speed>0.0</speed>
  <fix>3d</fix>
</trkpt>
<trkpt lat="40.0713749" lon="-105.229789">
  <ele>1583.0</ele>
  <time>2026-08-28T17:49:07Z</time>
  <course>0.0</course>
  <speed>0.0</speed>
  <fix>3d</fix>
</trkpt>
<trkpt lat="40.0713749" lon="-105.229789">
  <ele>1583.0</ele>
  <time>2026-08-28T17:49:07Z</time>
  <course>247.47</course>
  <speed>0.0</speed>
  <fix>3d</fix>
</trkpt>
<trkpt lat="40.0713749" lon="-105.229789">
  <ele>1583.0</ele>
  <time>2026-08-28T17:49:07Z</time>
  <course>0.0</course>
  <speed>0.0</speed>
  <fix>3d</fix>
</trkpt>
<trkpt lat="40.0713749" lon="-105.229789">
  <ele>1583.0</ele>
  <time>2026-08-28T17:49:07Z</time>
  <course>247.53</course>
  <speed>0.0</speed>
  <fix>3d</fix>
</trkpt>
<trkpt lat="40.0713749" lon="-105.229789">
  <ele>1583.0</ele>
  <time>2026-08-28T17:49:07Z</time>
  <course>0.0</course>
  <speed>0.0</speed>
  <fix>3d</fix>
</trkpt>
<trkpt lat="40.0713749" lon="-105.229789">
  <ele>1583.0</ele>
  <time>2026-08-28T17:49:07Z</time>
  <course>247.58</course>
  <speed>0.0</speed>
  <fix>3d</fix>
</trkpt>
<trkpt lat="40.0713749" lon="-105.229789">
  <ele>1583.0</ele>
  <time>2026-08-28T17:49:07Z</time>
  <course>0.0</course>
  <speed>0.0</speed>
  <fix>3d</fix>
</trkpt>
<trkpt lat="40.0713749" lon="-105.229789">
  <ele>1583.0</ele>
  <time>2026-08-28T17:49:07Z</time>
  <course>247.63</course>
  <speed>0.0</speed>
  <fix>3d</fix>
</trkpt>
<trkpt lat="40.0713749" lon="-105.229789">
  <ele>1583.0</ele>
  <time>2026-08-28T17:49:07Z</time>
  <course>0.0</course>
  <speed>0.0</speed>
  <fix>3d</fix>
</trkpt>
<trkpt lat="40.0713749" lon="-105.229789">
  <ele>1583.0</ele>
  <time>2026-08-28T17:49:07Z</time>
  <course>247.67</course>
  <speed>0.0</speed>
  <fix>3d</fix>
</trkpt>
<trkpt lat="40.0713749" lon="-105.229789">
  <ele>1583.0</ele>
  <time>2026-08-28T17:49:07Z</time>
  <course>0.0</course>
  <speed>0.0</speed>
  <fix>3d</fix>
</trkpt>
<trkpt lat="40.0713749" lon="-105.229789">
  <ele>1583.0</ele>
  <time>2026-08-28T17:49:07Z</time>
  <course>247.72</course>
  <speed>0.0</speed>
  <fix>3d</fix>
</trkpt>
<trkpt lat="40.0713749" lon="-105.229789">
  <ele>1583.0</ele>
  <time>2026-08-28T17:49:07Z</time>
  <course>0.0</course>
  <speed>0.0</speed>
  <fix>3d</fix>
</trkpt>
<trkpt lat="40.0713749" lon="-105.229789">
  <ele>1583.0</ele>
  <time>2026-08-28T17:49:07Z</time>
  <course>247.76</course>
  <speed>0.0</speed>
  <fix>3d</fix>
</trkpt>
<trkpt lat="40.0713749" lon="-105.229789">
  <ele>1583.0</ele>
  <time>2026-08-28T17:49:07Z</time>
  <course>0.0</course>
  <speed>0.0</speed>
  <fix>3d</fix>
</trkpt>
<trkpt lat="40.0713749" lon="-105.229789">
  <ele>1583.0</ele>
  <time>2026-08-28T17:49:07Z</time>
  <course>247.8</course>
  <speed>0.0</speed>
  <fix>3d</fix>
</trkpt>
<trkpt lat="40.0713749" lon="-105.229789">
  <ele>1583.0</ele>
  <time>2026-08-28T17:49:07Z</time>
  <course>0.0</course>
  <speed>0.0</speed>
  <fix>3d</fix>
</trkpt>
<trkpt lat="40.0713749" lon="-105.229789">
  <ele>1583.0</ele>
  <time>2026-08-28T17:49:07Z</time>
  <course>247.83</course>
  <speed>0.0</speed>
  <fix>3d</fix>
</trkpt>
<trkpt lat="40.0713749" lon="-105.229789">
  <ele>1583.0</ele>
  <time>2026-08-28T17:49:07Z</time>
  <course>0.0</course>
  <speed>0.0</speed>
  <fix>3d</fix>
</trkpt>
<trkpt lat="40.0713749" lon="-105.229789">
  <ele>1583.0</ele>
  <time>2026-08-28T17:49:07Z</time>
  <course>247.87</course>
  <speed>0.0</speed>
  <fix>3d</fix>
</trkpt>
<trkpt lat="40.0713749" lon="-105.229789">
  <ele>1583.0</ele>
  <time>2026-08-28T17:49:07Z</time>
  <course>0.0</course>
  <speed>0.0</speed>
  <fix>3d</fix>
</trkpt>
<trkpt lat="40.0713749" lon="-105.229789">
  <ele>1583.0</ele>
  <time>2026-08-28T17:49:07Z</time>
  <course>247.9</course>
  <speed>0.0</speed>
  <fix>3d</fix>
</trkpt>
<trkpt lat="40.0713749" lon="-105.229789">
  <ele>1583.0</ele>
  <time>2026-08-28T17:49:07Z</time>
  <course>0.0</course>
  <speed>0.0</speed>
  <fix>3d</fix>
</trkpt>
<trkpt lat="40.0713749" lon="-105.229789">
  <ele>1583.0</ele>
  <time>2026-08-28T17:49:07Z</time>
  <course>247.94</course>
  <speed>0.0</speed>
  <fix>3d</fix>
</trkpt>
<trkpt lat="40.0713749" lon="-105.229789">
  <ele>1583.0</ele>
  <time>2026-08-28T17:49:07Z</time>
  <course>0.0</course>
  <speed>0.0</speed>
  <fix>3d</fix>
</trkpt>
<trkpt lat="40.0713749" lon="-105.229789">
  <ele>1583.0</ele>
  <time>2026-08-28T17:49:07Z</time>
  <course>247.97</course>
  <speed>0.0</speed>
  <fix>3d</fix>
</trkpt>
<trkpt lat="40.0713749" lon="-105.229789">
  <ele>1583.0</ele>
  <time>2026-08-28T17:49:07Z</time>
  <course>0.0</course>
  <speed>0.0</speed>
  <fix>3d</fix>
</trkpt>
<trkpt lat="40.0713749" lon="-105.229789">
  <ele>1583.0</ele>
  <time>2026-08-28T17:49:07Z</time>
  <course>248.0</course>
  <speed>0.0</speed>
  <fix>3d</fix>
</trkpt>
<trkpt lat="40.0713749" lon="-105.229789">
  <ele>1583.0</ele>
  <time>2026-08-28T17:49:07Z</time>
  <course>0.0</course>
  <speed>0.0</speed>
  <fix>3d</fix>
</trkpt>
<trkpt lat="40.0713749" lon="-105.229789">
  <ele>1583.0</ele>
  <time>2026-08-28T17:49:07Z</time>
  <course>248.02</course>
  <speed>0.0</speed>
  <fix>3d</fix>
</trkpt>
<trkpt lat="40.0713749" lon="-105.229789">
  <ele>1583.0</ele>
  <time>2026-08-28T17:49:07Z</time>
  <course>0.0</course>
  <speed>0.0</speed>
  <fix>3d</fix>
</trkpt>
<trkpt lat="40.0713749" lon="-105.229789">
  <ele>1583.0</ele>
  <time>2026-08-28T17:49:07Z</time>
  <course>248.05</course>
  <speed>0.0</speed>
  <fix>3d</fix>
</trkpt>
<trkpt lat="40.0713749" lon="-105.229789">
  <ele>1583.0</ele>
  <time>2026-08-28T17:49:07Z</time>
  <course>0.0</course>
  <speed>0.0</speed>
  <fix>3d</fix>
</trkpt>
<trkpt lat="40.0713749" lon="-105.229789">
  <ele>1583.0</ele>
  <time>2026-08-28T17:49:07Z</time>
  <course>248.08</course>
  <speed>0.0</speed>
  <fix>3d</fix>
</trkpt>
<trkpt lat="40.0713749" lon="-105.229789">
  <ele>1583.0</ele>
  <time>2026-08-28T17:49:07Z</time>
  <course>0.0</course>
  <speed>0.0</speed>
  <fix>3d</fix>
</trkpt>
<trkpt lat="40.0713749" lon="-105.229789">
  <ele>1583.0</ele>
  <time>2026-08-28T17:49:07Z</time>
  <course>248.1</course>
  <speed>0.0</speed>
  <fix>3d</fix>
</trkpt>
<trkpt lat="40.0713749" lon="-105.229789">
  <ele>1583.0</ele>
  <time>2026-08-28T17:49:07Z</time>
  <course>0.0</course>
  <speed>0.0</speed>
  <fix>3d</fix>
</trkpt>
<trkpt lat="40.0713749" lon="-105.229789">
  <ele>1583.0</ele>
  <time>2026-08-28T17:49:07Z</time>
  <course>248.12</course>
  <speed>0.0</speed>
  <fix>3d</fix>
</trkpt>
<trkpt lat="40.0713749" lon="-105.229789">
  <ele>1583.0</ele>
  <time>2026-08-28T17:49:07Z</time>
  <course>0.0</course>
  <speed>0.0</speed>
  <fix>3d</fix>
</trkpt>
<trkpt lat="40.0713749" lon="-105.229789">
  <ele>1583.0</ele>
  <time>2026-08-28T17:49:07Z</time>
  <course>248.14</course>
  <speed>0.0</speed>
  <fix>3d</fix>
</trkpt>
<trkpt lat="40.0713749" lon="-105.229789">
  <ele>1583.0</ele>
  <time>2026-08-28T17:49:07Z</time>
  <course>0.0</course>
  <speed>0.0</speed>
  <fix>3d</fix>
</trkpt>
<trkpt lat="40.0713749" lon="-105.229789">
  <ele>1583.0</ele>
  <time>2026-08-28T17:49:07Z</time>
  <course>248.16</course>
  <speed>0.0</speed>
  <fix>3d</fix>
</trkpt>
<trkpt lat="40.0713749" lon="-105.229789">
  <ele>1583.0</ele>
  <time>2026-08-28T17:49:07Z</time>
  <course>0.0</course>
  <speed>0.0</speed>
  <fix>3d</fix>
</trkpt>
<trkpt lat="40.0713749" lon="-105.229789">
  <ele>1583.0</ele>
  <time>2026-08-28T17:49:07Z</time>
  <course>248.18</course>
  <speed>0.0</speed>
  <fix>3d</fix>
</trkpt>
<trkpt lat="40.0713749" lon="-105.229789">
  <ele>1583.0</ele>
  <time>2026-08-28T17:49:07Z</time>
  <course>0.0</course>
  <speed>0.0</speed>
  <fix>3d</fix>
</trkpt>
<trkpt lat="40.0713749" lon="-105.229789">
  <ele>1583.0</ele>
  <time>2026-08-28T17:49:07Z</time>
  <course>248.2</course>
  <speed>0.0</speed>
  <fix>3d</fix>
</trkpt>
<trkpt lat="40.0713749" lon="-105.229789">
  <ele>1583.0</ele>
  <time>2026-08-28T17:49:07Z</time>
  <course>0.0</course>
  <speed>0.0</speed>
  <fix>3d</fix>
</trkpt>
<trkpt lat="40.0713749" lon="-105.229789">
  <ele>1583.0</ele>
  <time>2026-08-28T17:49:07Z</time>
  <course>248.22</course>
  <speed>0.0</speed>
  <fix>3d</fix>
</trkpt>
<trkpt lat="40.0713749" lon="-105.229789">
  <ele>1583.0</ele>
  <time>2026-08-28T17:49:07Z</time>
  <course>0.0</course>
  <speed>0.0</speed>
  <fix>3d</fix>
</trkpt>
<trkpt lat="40.0713749" lon="-105.229789">
  <ele>1583.0</ele>
  <time>2026-08-28T17:49:07Z</time>
  <course>248.23</course>
  <speed>0.0</speed>
  <fix>3d</fix>
</trkpt>
<trkpt lat="40.0713749" lon="-105.229789">
  <ele>1583.0</ele>
  <time>2026-08-28T17:49:07Z</time>
  <course>0.0</course>
  <speed>0.0</speed>
  <fix>3d</fix>
</trkpt>
<trkpt lat="40.0713749" lon="-105.229789">
  <ele>1583.0</ele>
  <time>2026-08-28T17:49:07Z</time>
  <course>248.25</course>
  <speed>0.0</speed>
  <fix>3d</fix>
</trkpt>
<trkpt lat="40.0713749" lon="-105.229789">
  <ele>1583.0</ele>
  <time>2026-08-28T17:49:07Z</time>
  <course>0.0</course>
  <speed>0.0</speed>
  <fix>3d</fix>
</trkpt>
<trkpt lat="40.0713749" lon="-105.229789">
  <ele>1583.0</ele>
  <time>2026-08-28T17:49:07Z</time>
  <course>248.26</course>
  <speed>0.0</speed>
  <fix>3d</fix>
</trkpt>
<trkpt lat="40.0713749" lon="-105.229789">
  <ele>1583.0</ele>
  <time>2026-08-28T17:49:07Z</time>
  <course>0.0</course>
  <speed>0.0</speed>
  <fix>3d</fix>
</trkpt>
<trkpt lat="40.0713749" lon="-105.229789">
  <ele>1583.0</ele>
  <time>2026-08-28T17:49:07Z</time>
  <course>248.28</course>
  <speed>0.0</speed>
  <fix>3d</fix>
</trkpt>
<trkpt lat="40.0713749" lon="-105.229789">
  <ele>1583.0</ele>
  <time>2026-08-28T17:49:07Z</time>
  <course>0.0</course>
  <speed>0.0</speed>
  <fix>3d</fix>
</trkpt>
<trkpt lat="40.0713749" lon="-105.229789">
  <ele>1583.0</ele>
  <time>2026-08-28T17:49:07Z</time>
  <course>248.29</course>
  <speed>0.0</speed>
  <fix>3d</fix>
</trkpt>
<trkpt lat="40.0713749" lon="-105.229789">
  <ele>1583.0</ele>
  <time>2026-08-28T17:49:07Z</time>
  <course>0.0</course>
  <speed>0.0</speed>
  <fix>3d</fix>
</trkpt>
<trkpt lat="40.0713749" lon="-105.229789">
  <ele>1583.0</ele>
  <time>2026-08-28T17:49:07Z</time>
  <course>248.3</course>
  <speed>0.0</speed>
  <fix>3d</fix>
</trkpt>
<trkpt lat="40.0713749" lon="-105.229789">
  <ele>1583.0</ele>
  <time>2026-08-28T17:49:07Z</time>
  <course>0.0</course>
  <speed>0.0</speed>
  <fix>3d</fix>
</trkpt>
<trkpt lat="40.0713749" lon="-105.229789">
  <ele>1583.0</ele>
  <time>2026-08-28T17:49:07Z</time>
  <course>248.31</course>
  <speed>0.0</speed>
  <fix>3d</fix>
</trkpt>
<trkpt lat="40.0713749" lon="-105.229789">
  <ele>1583.0</ele>
  <time>2026-08-28T17:49:07Z</time>
  <course>0.0</course>
  <speed>0.0</speed>
  <fix>3d</fix>
</trkpt>
<trkpt lat="40.0713749" lon="-105.229789">
  <ele>1583.0</ele>
  <time>2026-08-28T17:49:07Z</time>
  <course>248.32</course>
  <speed>0.0</speed>
  <fix>3d</fix>
</trkpt>
<trkpt lat="40.0713749" lon="-105.229789">
  <ele>1583.0</ele>
  <time>2026-08-28T17:49:07Z</time>
  <course>0.0</course>
  <speed>0.0</speed>
  <fix>3d</fix>
</trkpt>
<trkpt lat="40.0713749" lon="-105.229789">
  <ele>1583.0</ele>
  <time>2026-08-28T17:49:07Z</time>
  <course>248.33</course>
  <speed>0.0</speed>
  <fix>3d</fix>
</trkpt>
<trkpt lat="40.0713749" lon="-105.229789">
  <ele>1583.0</ele>
  <time>2026-08-28T17:49:07Z</time>
  <course>0.0</course>
  <speed>0.0</speed>
  <fix>3d</fix>
</trkpt>
<trkpt lat="40.0713749" lon="-105.229789">
  <ele>1583.0</ele>
  <time>2026-08-28T17:49:07Z</time>
  <course>248.34</course>
  <speed>0.0</speed>
  <fix>3d</fix>
</trkpt>
<trkpt lat="40.0713749" lon="-105.229789">
  <ele>1583.0</ele>
  <time>2026-08-28T17:49:07Z</time>
  <course>0.0</course>
  <speed>0.0</speed>
  <fix>3d</fix>
</trkpt>
<trkpt lat="40.0713749" lon="-105.229789">
  <ele>1583.0</ele>
  <time>2026-08-28T17:49:07Z</time>
  <course>248.35</course>
  <speed>0.0</speed>
  <fix>3d</fix>
</trkpt>
<trkpt lat="40.0713749" lon="-105.229789">
  <ele>1583.0</ele>
  <time>2026-08-28T17:49:07Z</time>
  <course>0.0</course>
  <speed>0.0</speed>
  <fix>3d</fix>
</trkpt>
<trkpt lat="40.0713749" lon="-105.229789">
  <ele>1583.0</ele>
  <time>2026-08-28T17:49:07Z</time>
  <course>248.35</course>
  <speed>0.0</speed>
  <fix>3d</fix>
</trkpt>
<trkpt lat="40.0713749" lon="-105.229789">
  <ele>1583.0</ele>
  <time>2026-08-28T17:49:07Z</time>
  <course>0.0</course>
  <speed>0.0</speed>
  <fix>3d</fix>
</trkpt>
<trkpt lat="40.0713749" lon="-105.229789">
  <ele>1583.0</ele>
  <time>2026-08-28T17:49:07Z</time>
  <course>248.36</course>
  <speed>0.0</speed>
  <fix>3d</fix>
</trkpt>
<trkpt lat="40.0713749" lon="-105.229789">
  <ele>1583.0</ele>
  <time>2026-08-28T17:49:07Z</time>
  <course>0.0</course>
  <speed>0.0</speed>
  <fix>3d</fix>
</trkpt>
<trkpt lat="40.0713749" lon="-105.229789">
  <ele>1583.0</ele>
  <time>2026-08-28T17:49:07Z</time>
  <course>248.37</course>
  <speed>0.0</speed>
  <fix>3d</fix>
</trkpt>
<trkpt lat="40.0713749" lon="-105.229789">
  <ele>1583.0</ele>
  <time>2026-08-28T17:49:07Z</time>
  <course>0.0</course>
  <speed>0.0</speed>
  <fix>3d</fix>
</trkpt>
<trkpt lat="40.0713749" lon="-105.229789">
  <ele>1583.0</ele>
  <time>2026-08-28T17:49:07Z</time>
  <course>248.37</course>
  <speed>0.0</speed>
  <fix>3d</fix>
</trkpt>
<trkpt lat="40.0713749" lon="-105.229789">
  <ele>1583.0</ele>
  <time>2026-08-28T17:49:07Z</time>
  <course>0.0</course>
  <speed>0.0</speed>
  <fix>3d</fix>
</trkpt>
<trkpt lat="40.0713749" lon="-105.229789">
  <ele>1583.0</ele>
  <time>2026-08-28T17:49:07Z</time>
  <course>248.38</course>
  <speed>0.0</speed>
  <fix>3d</fix>
</trkpt>
<trkpt lat="40.0713749" lon="-105.229789">
  <ele>1583.0</ele>
  <time>2026-08-28T17:49:07Z</time>
  <course>0.0</course>
  <speed>0.0</speed>
  <fix>3d</fix>
</trkpt>
<trkpt lat="40.0713749" lon="-105.229789">
  <ele>1583.0</ele>
  <time>2026-08-28T17:49:07Z</time>
  <course>248.38</course>
  <speed>0.0</speed>
  <fix>3d</fix>
</trkpt>
<trkpt lat="40.0713749" lon="-105.229789">
  <ele>1583.0</ele>
  <time>2026-08-28T17:49:07Z</time>
  <course>0.0</course>
  <speed>0.0</speed>
  <fix>3d</fix>
</trkpt>
<trkpt lat="40.0713749" lon="-105.229789">
  <ele>1583.0</ele>
  <time>2026-08-28T17:49:07Z</time>
  <course>248.39</course>
  <speed>0.0</speed>
  <fix>3d</fix>
</trkpt>
<trkpt lat="40.0713749" lon="-105.229789">
  <ele>1583.0</ele>
  <time>2026-08-28T17:49:07Z</time>
  <course>0.0</course>
  <speed>0.0</speed>
  <fix>3d</fix>
</trkpt>
<trkpt lat="40.0713749" lon="-105.229789">
  <ele>1583.0</ele>
  <time>2026-08-28T17:49:07Z</time>
  <course>248.39</course>
  <speed>0.0</speed>
  <fix>3d</fix>
</trkpt>
<trkpt lat="40.0713749" lon="-105.229789">
  <ele>1583.0</ele>
  <time>2026-08-28T17:49:07Z</time>
  <course>0.0</course>
  <speed>0.0</speed>
  <fix>3d</fix>
</trkpt>
<trkpt lat="40.0713749" lon="-105.229789">
  <ele>1583.0</ele>
  <time>2026-08-28T17:49:07Z</time>
  <course>248.4</course>
  <speed>0.0</speed>
  <fix>3d</fix>
</trkpt>
<trkpt lat="40.0713749" lon="-105.229789">
  <ele>1583.0</ele>
  <time>2026-08-28T17:49:07Z</time>
  <course>0.0</course>
  <speed>0.0</speed>
  <fix>3d</fix>
</trkpt>
<trkpt lat="40.0713749" lon="-105.229789">
  <ele>1583.0</ele>
  <time>2026-08-28T17:49:07Z</time>
  <course>248.4</course>
  <speed>0.0</speed>
  <fix>3d</fix>
</trkpt>
<trkpt lat="40.0713749" lon="-105.229789">
  <ele>1583.0</ele>
  <time>2026-08-28T17:49:07Z</time>
  <course>0.0</course>
  <speed>0.0</speed>
  <fix>3d</fix>
</trkpt>
<trkpt lat="40.0713749" lon="-105.229789">
  <ele>1583.0</ele>
  <time>2026-08-28T17:49:07Z</time>
  <course>248.4</course>
  <speed>0.0</speed>
  <fix>3d</fix>
</trkpt>
<trkpt lat="40.0713749" lon="-105.229789">
  <ele>1583.0</ele>
  <time>2026-08-28T17:49:07Z</time>
  <course>0.0</course>
  <speed>0.0</speed>
  <fix>3d</fix>
</trkpt>
<trkpt lat="40.0713749" lon="-105.229789">
  <ele>1583.0</ele>
  <time>2026-08-28T17:49:07Z</time>
  <course>248.4</course>
  <speed>0.0</speed>
  <fix>3d</fix>
</trkpt>
<trkpt lat="40.0713749" lon="-105.229789">
  <ele>1583.0</ele>
  <time>2026-08-28T17:49:07Z</time>
  <course>0.0</course>
  <speed>0.0</speed>
  <fix>3d</fix>
</trkpt>
<trkpt lat="40.0713749" lon="-105.229789">
  <ele>1583.0</ele>
  <time>2026-08-28T17:49:07Z</time>
  <course>248.41</course>
  <speed>0.0</speed>
  <fix>3d</fix>
</trkpt>
<trkpt lat="40.0713749" lon="-105.229789">
  <ele>1583.0</ele>
  <time>2026-08-28T17:49:07Z</time>
  <course>0.0</course>
  <speed>0.0</speed>
  <fix>3d</fix>
</trkpt>
<trkpt lat="40.0713749" lon="-105.229789">
  <ele>1583.0</ele>
  <time>2026-08-28T17:49:07Z</time>
  <course>248.41</course>
  <speed>0.0</speed>
  <fix>3d</fix>
</trkpt>
<trkpt lat="40.0713749" lon="-105.229789">
  <ele>1583.0</ele>
  <time>2026-08-28T17:49:07Z</time>
  <course>0.0</course>
  <speed>0.0</speed>
  <fix>3d</fix>
</trkpt>
<trkpt lat="40.0713749" lon="-105.229789">
  <ele>1583.0</ele>
  <time>2026-08-28T17:49:07Z</time>
  <course>248.41</course>
  <speed>0.0</speed>
  <fix>3d</fix>
</trkpt>
<trkpt lat="40.0713749" lon="-105.229789">
  <ele>1583.0</ele>
  <time>2026-08-28T17:49:07Z</time>
  <course>0.0</course>
  <speed>0.0</speed>
  <fix>3d</fix>
</trkpt>
<trkpt lat="40.0713749" lon="-105.229789">
  <ele>1583.0</ele>
  <time>2026-08-28T17:49:07Z</time>
  <course>248.41</course>
  <speed>0.0</speed>
  <fix>3d</fix>
</trkpt>
<trkpt lat="40.0713749" lon="-105.229789">
  <ele>1583.0</ele>
  <time>2026-08-28T17:49:07Z</time>
  <course>0.0</course>
  <speed>0.0</speed>
  <fix>3d</fix>
</trkpt>
<trkpt lat="40.0713749" lon="-105.229789">
  <ele>1583.0</ele>
  <time>2026-08-28T17:49:07Z</time>
  <course>248.41</course>
  <speed>0.0</speed>
  <fix>3d</fix>
</trkpt>
<trkpt lat="40.0713749" lon="-105.229789">
  <ele>1583.0</ele>
  <time>2026-08-28T17:49:07Z</time>
  <course>0.0</course>
  <speed>0.0</speed>
  <fix>3d</fix>
</trkpt>
<trkpt lat="40.0713749" lon="-105.229789">
  <ele>1583.0</ele>
  <time>2026-08-28T17:49:07Z</time>
  <course>248.41</course>
  <speed>0.0</speed>
  <fix>3d</fix>
</trkpt>
<trkpt lat="40.0713749" lon="-105.229789">
  <ele>1583.0</ele>
  <time>2026-08-28T17:49:07Z</time>
  <course>0.0</course>
  <speed>0.0</speed>
  <fix>3d</fix>
</trkpt>
<trkpt lat="40.0713749" lon="-105.229789">
  <ele>1583.0</ele>
  <time>2026-08-28T17:49:07Z</time>
  <course>248.41</course>
  <speed>0.0</speed>
  <fix>3d</fix>
</trkpt>
<trkpt lat="40.0713749" lon="-105.229789">
  <ele>1583.0</ele>
  <time>2026-08-28T17:49:07Z</time>
  <course>0.0</course>
  <speed>0.0</speed>
  <fix>3d</fix>
</trkpt>
<trkpt lat="40.0713749" lon="-105.229789">
  <ele>1583.0</ele>
  <time>2026-08-28T17:49:07Z</time>
  <course>248.41</course>
  <speed>0.0</speed>
  <fix>3d</fix>
</trkpt>
<trkpt lat="40.0713749" lon="-105.229789">
  <ele>1583.0</ele>
  <time>2026-08-28T17:49:07Z</time>
  <course>0.0</course>
  <speed>0.0</speed>
  <fix>3d</fix>
</trkpt>
<trkpt lat="40.0713749" lon="-105.229789">
  <ele>1583.0</ele>
  <time>2026-08-28T17:49:07Z</time>
  <course>248.41</course>
  <speed>0.0</speed>
  <fix>3d</fix>
</trkpt>
<trkpt lat="40.0713749" lon="-105.229789">
  <ele>1583.0</ele>
  <time>2026-08-28T17:49:07Z</time>
  <course>0.0</course>
  <speed>0.0</speed>
  <fix>3d</fix>
</trkpt>
<trkpt lat="40.0713749" lon="-105.229789">
  <ele>1583.0</ele>
  <time>2026-08-28T17:49:07Z</time>
  <course>248.41</course>
  <speed>0.0</speed>
  <fix>3d</fix>
</trkpt>
<trkpt lat="40.0713749" lon="-105.229789">
  <ele>1583.0</ele>
  <time>2026-08-28T17:49:07Z</time>
  <course>0.0</course>
  <speed>0.0</speed>
  <fix>3d</fix>
</trkpt>
<trkpt lat="40.0713749" lon="-105.229789">
  <ele>1583.0</ele>
  <time>2026-08-28T17:49:07Z</time>
  <course>248.41</course>
  <speed>0.0</speed>
  <fix>3d</fix>
</trkpt>
<trkpt lat="40.0713749" lon="-105.229789">
  <ele>1583.0</ele>
  <time>2026-08-28T17:49:07Z</time>
  <course>0.0</course>
  <speed>0.0</speed>
  <fix>3d</fix>
</trkpt>
<trkpt lat="40.0713749" lon="-105.229789">
  <ele>1583.0</ele>
  <time>2026-08-28T17:49:07Z</time>
  <course>248.41</course>
  <speed>0.0</speed>
  <fix>3d</fix>
</trkpt>
<trkpt lat="40.0713749" lon="-105.229789">
  <ele>1583.0</ele>
  <time>2026-08-28T17:49:07Z</time>
  <course>0.0</course>
  <speed>0.0</speed>
  <fix>3d</fix>
</trkpt>
<trkpt lat="40.0713749" lon="-105.229789">
  <ele>1583.0</ele>
  <time>2026-08-28T17:49:07Z</time>
  <course>248.41</course>
  <speed>0.0</speed>
  <fix>3d</fix>
</trkpt>
<trkpt lat="40.0713749" lon="-105.229789">
  <ele>1583.0</ele>
  <time>2026-08-28T17:49:07Z</time>
  <course>0.0</course>
  <speed>0.0</speed>
  <fix>3d</fix>
</trkpt>
<trkpt lat="40.0713749" lon="-105.229789">
  <ele>1583.0</ele>
  <time>2026-08-28T17:49:07Z</time>
  <course>248.41</course>
  <speed>0.0</speed>
  <fix>3d</fix>
</trkpt>
<trkpt lat="40.0713749" lon="-105.229789">
  <ele>1583.0</ele>
  <time>2026-08-28T17:49:07Z</time>
  <course>0.0</course>
  <speed>0.0</speed>
  <fix>3d</fix>
</trkpt>
<trkpt lat="40.0713749" lon="-105.229789">
  <ele>1583.0</ele>
  <time>2026-08-28T17:49:07Z</time>
  <course>248.41</course>
  <speed>0.0</speed>
  <fix>3d</fix>
</trkpt>
<trkpt lat="40.0713749" lon="-105.229789">
  <ele>1583.0</ele>
  <time>2026-08-28T17:49:07Z</time>
  <course>0.0</course>
  <speed>0.0</speed>
  <fix>3d</fix>
</trkpt>
<trkpt lat="40.0713749" lon="-105.229789">
  <ele>1583.0</ele>
  <time>2026-08-28T17:49:07Z</time>
  <course>248.41</course>
  <speed>0.0</speed>
  <fix>3d</fix>
</trkpt>
<trkpt lat="40.0713749" lon="-105.229789">
  <ele>1583.0</ele>
  <time>2026-08-28T17:49:07Z</time>
  <course>0.0</course>
  <speed>0.0</speed>
  <fix>3d</fix>
</trkpt>
<trkpt lat="40.0713749" lon="-105.229789">
  <ele>1583.0</ele>
  <time>2026-08-28T17:49:07Z</time>
  <course>248.4</course>
  <speed>0.0</speed>
  <fix>3d</fix>
</trkpt>
<trkpt lat="40.0713749" lon="-105.229789">
  <ele>1583.0</ele>
  <time>2026-08-28T17:49:07Z</time>
  <course>0.0</course>
  <speed>0.0</speed>
  <fix>3d</fix>
</trkpt>
<trkpt lat="40.0713749" lon="-105.229789">
  <ele>1583.0</ele>
  <time>2026-08-28T17:49:07Z</time>
  <course>248.4</course>
  <speed>0.01</speed>
  <fix>3d</fix>
</trkpt>
<trkpt lat="40.0713749" lon="-105.229789">
  <ele>1583.0</ele>
  <time>2026-08-28T17:49:07Z</time>
  <course>0.0</course>
  <speed>0.0</speed>
  <fix>3d</fix>
</trkpt>
<trkpt lat="40.0713749" lon="-105.229789">
  <ele>1583.0</ele>
  <time>2026-08-28T17:49:07Z</time>
  <course>248.4</course>
  <speed>0.01</speed>
  <fix>3d</fix>
</trkpt>
<trkpt lat="40.0713749" lon="-105.229789">
  <ele>1583.0</ele>
  <time>2026-08-28T17:49:07Z</time>
  <course>0.0</course>
  <speed>0.0</speed>
  <fix>3d</fix>
</trkpt>
<trkpt lat="40.0713749" lon="-105.229789">
  <ele>1583.0</ele>
  <time>2026-08-28T17:49:07Z</time>
  <course>248.4</course>
  <speed>0.01</speed>
  <fix>3d</fix>
</trkpt>
<trkpt lat="40.0713749" lon="-105.229789">
  <ele>1583.0</ele>
  <time>2026-08-28T17:49:07Z</time>
  <course>0.0</course>
  <speed>0.0</speed>
  <fix>3d</fix>
</trkpt>
<trkpt lat="40.0713749" lon="-105.229789">
  <ele>1583.0</ele>
  <time>2026-08-28T17:49:07Z</time>
  <course>248.4</course>
  <speed>0.01</speed>
  <fix>3d</fix>
</trkpt>
<trkpt lat="40.0713749" lon="-105.229789">
  <ele>1583.0</ele>
  <time>2026-08-28T17:49:07Z</time>
  <course>0.0</course>
  <speed>0.0</speed>
  <fix>3d</fix>
</trkpt>
<trkpt lat="40.0713749" lon="-105.229789">
  <ele>1583.0</ele>
  <time>2026-08-28T17:49:07Z</time>
  <course>248.39</course>
  <speed>0.01</speed>
  <fix>3d</fix>
</trkpt>
<trkpt lat="40.0713749" lon="-105.229789">
  <ele>1583.0</ele>
  <time>2026-08-28T17:49:07Z</time>
  <course>0.0</course>
  <speed>0.0</speed>
  <fix>3d</fix>
</trkpt>
<trkpt lat="40.0713749" lon="-105.229789">
  <ele>1583.0</ele>
  <time>2026-08-28T17:49:07Z</time>
  <course>248.39</course>
  <speed>0.01</speed>
  <fix>3d</fix>
</trkpt>
<trkpt lat="40.0713749" lon="-105.229789">
  <ele>1583.0</ele>
  <time>2026-08-28T17:49:07Z</time>
  <course>0.0</course>
  <speed>0.0</speed>
  <fix>3d</fix>
</trkpt>
<trkpt lat="40.0713749" lon="-105.229789">
  <ele>1583.0</ele>
  <time>2026-08-28T17:49:07Z</time>
  <course>248.39</course>
  <speed>0.01</speed>
  <fix>3d</fix>
</trkpt>
<trkpt lat="40.0713749" lon="-105.229789">
  <ele>1583.0</ele>
  <time>2026-08-28T17:49:07Z</time>
  <course>0.0</course>
  <speed>0.0</speed>
  <fix>3d</fix>
</trkpt>
<trkpt lat="40.0713749" lon="-105.229789">
  <ele>1583.0</ele>
  <time>2026-08-28T17:49:07Z</time>
  <course>248.38</course>
  <speed>0.01</speed>
  <fix>3d</fix>
</trkpt>
<trkpt lat="40.0713749" lon="-105.229789">
  <ele>1583.0</ele>
  <time>2026-08-28T17:49:07Z</time>
  <course>0.0</course>
  <speed>0.0</speed>
  <fix>3d</fix>
</trkpt>
<trkpt lat="40.0713749" lon="-105.229789">
  <ele>1583.0</ele>
  <time>2026-08-28T17:49:07Z</time>
  <course>248.38</course>
  <speed>0.01</speed>
  <fix>3d</fix>
</trkpt>
<trkpt lat="40.0713749" lon="-105.229789">
  <ele>1583.0</ele>
  <time>2026-08-28T17:49:07Z</time>
  <course>0.0</course>
  <speed>0.0</speed>
  <fix>3d</fix>
</trkpt>
<trkpt lat="40.0713749" lon="-105.229789">
  <ele>1583.0</ele>
  <time>2026-08-28T17:49:07Z</time>
  <course>248.38</course>
  <speed>0.01</speed>
  <fix>3d</fix>
</trkpt>
<trkpt lat="40.0713749" lon="-105.229789">
  <ele>1583.0</ele>
  <time>2026-08-28T17:49:07Z</time>
  <course>0.0</course>
  <speed>0.0</speed>
  <fix>3d</fix>
</trkpt>
<trkpt lat="40.0713749" lon="-105.229789">
  <ele>1583.0</ele>
  <time>2026-08-28T17:49:07Z</time>
  <course>248.37</course>
  <speed>0.01</speed>
  <fix>3d</fix>
</trkpt>
<trkpt lat="40.0713749" lon="-105.229789">
  <ele>1583.0</ele>
  <time>2026-08-28T17:49:07Z</time>
  <course>0.0</course>
  <speed>0.0</speed>
  <fix>3d</fix>
</trkpt>
<trkpt lat="40.0713749" lon="-105.229789">
  <ele>1583.0</ele>
  <time>2026-08-28T17:49:07Z</time>
  <course>248.37</course>
  <speed>0.01</speed>
  <fix>3d</fix>
</trkpt>
<trkpt lat="40.0713749" lon="-105.229789">
  <ele>1583.0</ele>
  <time>2026-08-28T17:49:07Z</time>
  <course>0.0</course>
  <speed>0.0</speed>
  <fix>3d</fix>
</trkpt>
<trkpt lat="40.0713749" lon="-105.229789">
  <ele>1583.0</ele>
  <time>2026-08-28T17:49:07Z</time>
  <course>248.37</course>
  <speed>0.01</speed>
  <fix>3d</fix>
</trkpt>
<trkpt lat="40.0713749" lon="-105.229789">
  <ele>1583.0</ele>
  <time>2026-08-28T17:49:07Z</time>
  <course>0.0</course>
  <speed>0.0</speed>
  <fix>3d</fix>
</trkpt>
<trkpt lat="40.0713749" lon="-105.229789">
  <ele>1583.0</ele>
  <time>2026-08-28T17:49:07Z</time>
  <course>248.36</course>
  <speed>0.01</speed>
  <fix>3d</fix>
</trkpt>
<trkpt lat="40.0713749" lon="-105.229789">
  <ele>1583.0</ele>
  <time>2026-08-28T17:49:07Z</time>
  <course>0.0</course>
  <speed>0.0</speed>
  <fix>3d</fix>
</trkpt>
<trkpt lat="40.0713749" lon="-105.229789">
  <ele>1583.0</ele>
  <time>2026-08-28T17:49:07Z</time>
  <course>248.36</course>
  <speed>0.01</speed>
  <fix>3d</fix>
</trkpt>
<trkpt lat="40.0713749" lon="-105.229789">
  <ele>1583.0</ele>
  <time>2026-08-28T17:49:07Z</time>
  <course>0.0</course>
  <speed>0.0</speed>
  <fix>3d</fix>
</trkpt>
<trkpt lat="40.0713749" lon="-105.229789">
  <ele>1583.0</ele>
  <time>2026-08-28T17:49:07Z</time>
  <course>248.36</course>
  <speed>0.01</speed>
  <fix>3d</fix>
</trkpt>
<trkpt lat="40.0713749" lon="-105.229789">
  <ele>1583.0</ele>
  <time>2026-08-28T17:49:07Z</time>
  <course>0.0</course>
  <speed>0.0</speed>
  <fix>3d</fix>
</trkpt>
<trkpt lat="40.0713749" lon="-105.229789">
  <ele>1583.0</ele>
  <time>2026-08-28T17:49:07Z</time>
  <course>248.35</course>
  <speed>0.01</speed>
  <fix>3d</fix>
</trkpt>
<trkpt lat="40.0713749" lon="-105.229789">
  <ele>1583.0</ele>
  <time>2026-08-28T17:49:07Z</time>
  <course>0.0</course>
  <speed>0.0</speed>
  <fix>3d</fix>
</trkpt>
<trkpt lat="40.0713749" lon="-105.229789">
  <ele>1583.0</ele>
  <time>2026-08-28T17:49:07Z</time>
  <course>248.35</course>
  <speed>0.01</speed>
  <fix>3d</fix>
</trkpt>
<trkpt lat="40.0713749" lon="-105.229789">
  <ele>1583.0</ele>
  <time>2026-08-28T17:49:07Z</time>
  <course>0.0</course>
  <speed>0.0</speed>
  <fix>3d</fix>
</trkpt>
<trkpt lat="40.0713749" lon="-105.229789">
  <ele>1583.0</ele>
  <time>2026-08-28T17:49:07Z</time>
  <course>248.35</course>
  <speed>0.01</speed>
  <fix>3d</fix>
</trkpt>
<trkpt lat="40.0713749" lon="-105.229789">
  <ele>1583.0</ele>
  <time>2026-08-28T17:49:07Z</time>
  <course>0.0</course>
  <speed>0.0</speed>
  <fix>3d</fix>
</trkpt>
<trkpt lat="40.0713749" lon="-105.229789">
  <ele>1583.0</ele>
  <time>2026-08-28T17:49:07Z</time>
  <course>248.34</course>
  <speed>0.01</speed>
  <fix>3d</fix>
</trkpt>
<trkpt lat="40.0713749" lon="-105.229789">
  <ele>1583.0</ele>
  <time>2026-08-28T17:49:07Z</time>
  <course>0.0</course>
  <speed>0.0</speed>
  <fix>3d</fix>
</trkpt>
<trkpt lat="40.0713749" lon="-105.229789">
  <ele>1583.0</ele>
  <time>2026-08-28T17:49:07Z</time>
  <course>248.34</course>
  <speed>0.01</speed>
  <fix>3d</fix>
</trkpt>
<trkpt lat="40.0713749" lon="-105.229789">
  <ele>1583.0</ele>
  <time>2026-08-28T17:49:07Z</time>
  <course>0.0</course>
  <speed>0.0</speed>
  <fix>3d</fix>
</trkpt>
<trkpt lat="40.0713749" lon="-105.229789">
  <ele>1583.0</ele>
  <time>2026-08-28T17:49:07Z</time>
  <course>248.33</course>
  <speed>0.01</speed>
  <fix>3d</fix>
</trkpt>
<trkpt lat="40.0713749" lon="-105.229789">
  <ele>1583.0</ele>
  <time>2026-08-28T17:49:07Z</time>
  <course>0.0</course>
  <speed>0.0</speed>
  <fix>3d</fix>
</trkpt>
<trkpt lat="40.0713749" lon="-105.229789">
  <ele>1583.0</ele>
  <time>2026-08-28T17:49:07Z</time>
  <course>248.33</course>
  <speed>0.01</speed>
  <fix>3d</fix>
</trkpt>
<trkpt lat="40.0713749" lon="-105.229789">
  <ele>1583.0</ele>
  <time>2026-08-28T17:49:07Z</time>
  <course>0.0</course>
  <speed>0.0</speed>
  <fix>3d</fix>
</trkpt>
<trkpt lat="40.0713749" lon="-105.229789">
  <ele>1583.0</ele>
  <time>2026-08-28T17:49:07Z</time>
  <course>248.32</course>
  <speed>0.01</speed>
  <fix>3d</fix>
</trkpt>
<trkpt lat="40.0713749" lon="-105.229789">
  <ele>1583.0</ele>
  <time>2026-08-28T17:49:07Z</time>
  <course>0.0</course>
  <speed>0.0</speed>
  <fix>3d</fix>
</trkpt>
<trkpt lat="40.0713749" lon="-105.229789">
  <ele>1583.0</ele>
  <time>2026-08-28T17:49:07Z</time>
  <course>248.32</course>
  <speed>0.01</speed>
  <fix>3d</fix>
</trkpt>
<trkpt lat="40.0713749" lon="-105.229789">
  <ele>1583.0</ele>
  <time>2026-08-28T17:49:07Z</time>
  <course>0.0</course>
  <speed>0.0</speed>
  <fix>3d</fix>
</trkpt>
<trkpt lat="40.0713749" lon="-105.229789">
  <ele>1583.0</ele>
  <time>2026-08-28T17:49:07Z</time>
  <course>248.32</course>
  <speed>0.01</speed>
  <fix>3d</fix>
</trkpt>
<trkpt lat="40.0713749" lon="-105.229789">
  <ele>1583.0</ele>
  <time>2026-08-28T17:49:07Z</time>
  <course>0.0</course>
  <speed>0.0</speed>
  <fix>3d</fix>
</trkpt>
<trkpt lat="40.0713749" lon="-105.229789">
  <ele>1583.0</ele>
  <time>2026-08-28T17:49:07Z</time>
  <course>248.31</course>
  <speed>0.01</speed>
  <fix>3d</fix>
</trkpt>
<trkpt lat="40.0713749" lon="-105.229789">
  <ele>1583.0</ele>
  <time>2026-08-28T17:49:07Z</time>
  <course>0.0</course>
  <speed>0.0</speed>
  <fix>3d</fix>
</trkpt>
<trkpt lat="40.0713749" lon="-105.229789">
  <ele>1583.0</ele>
  <time>2026-08-28T17:49:07Z</time>
  <course>248.31</course>
  <speed>0.01</speed>
  <fix>3d</fix>
</trkpt>
<trkpt lat="40.0713749" lon="-105.229789">
  <ele>1583.0</ele>
  <time>2026-08-28T17:49:07Z</time>
  <course>0.0</course>
  <speed>0.0</speed>
  <fix>3d</fix>
</trkpt>
<trkpt lat="40.0713749" lon="-105.229789">
  <ele>1583.0</ele>
  <time>2026-08-28T17:49:07Z</time>
  <course>248.3</course>
  <speed>0.01</speed>
  <fix>3d</fix>
</trkpt>
<trkpt lat="40.0713749" lon="-105.229789">
  <ele>1583.0</ele>
  <time>2026-08-28T17:49:07Z</time>
  <course>0.0</course>
  <speed>0.0</speed>
  <fix>3d</fix>
</trkpt>
<trkpt lat="40.0713749" lon="-105.229789">
  <ele>1583.0</ele>
  <time>2026-08-28T17:49:07Z</time>
  <course>248.3</course>
  <speed>0.01</speed>
  <fix>3d</fix>
</trkpt>
<trkpt lat="40.0713749" lon="-105.229789">
  <ele>1583.0</ele>
  <time>2026-08-28T17:49:07Z</time>
  <course>0.0</course>
  <speed>0.0</speed>
  <fix>3d</fix>
</trkpt>
<trkpt lat="40.0713749" lon="-105.229789">
  <ele>1583.0</ele>
  <time>2026-08-28T17:49:07Z</time>
  <course>248.29</course>
  <speed>0.01</speed>
  <fix>3d</fix>
</trkpt>
<trkpt lat="40.0713749" lon="-105.229789">
  <ele>1583.0</ele>
  <time>2026-08-28T17:49:07Z</time>
  <course>0.0</course>
  <speed>0.0</speed>
  <fix>3d</fix>
</trkpt>
<trkpt lat="40.0713749" lon="-105.229789">
  <ele>1583.0</ele>
  <time>2026-08-28T17:49:07Z</time>
  <course>248.29</course>
  <speed>0.01</speed>
  <fix>3d</fix>
</trkpt>
<trkpt lat="40.0713749" lon="-105.229789">
  <ele>1583.0</ele>
  <time>2026-08-28T17:49:07Z</time>
  <course>0.0</course>
  <speed>0.0</speed>
  <fix>3d</fix>
</trkpt>
<trkpt lat="40.0713749" lon="-105.229789">
  <ele>1583.0</ele>
  <time>2026-08-28T17:49:07Z</time>
  <course>248.28</course>
  <speed>0.01</speed>
  <fix>3d</fix>
</trkpt>
<trkpt lat="40.0713749" lon="-105.229789">
  <ele>1583.0</ele>
  <time>2026-08-28T17:49:07Z</time>
  <course>0.0</course>
  <speed>0.0</speed>
  <fix>3d</fix>
</trkpt>
<trkpt lat="40.0713749" lon="-105.229789">
  <ele>1583.0</ele>
  <time>2026-08-28T17:49:07Z</time>
  <course>248.28</course>
  <speed>0.01</speed>
  <fix>3d</fix>
</trkpt>
<trkpt lat="40.0713749" lon="-105.229789">
  <ele>1583.0</ele>
  <time>2026-08-28T17:49:07Z</time>
  <course>0.0</course>
  <speed>0.0</speed>
  <fix>3d</fix>
</trkpt>
<trkpt lat="40.0713749" lon="-105.229789">
  <ele>1583.0</ele>
  <time>2026-08-28T17:49:07Z</time>
  <course>248.27</course>
  <speed>0.01</speed>
  <fix>3d</fix>
</trkpt>
<trkpt lat="40.0713749" lon="-105.229789">
  <ele>1583.0</ele>
  <time>2026-08-28T17:49:07Z</time>
  <course>0.0</course>
  <speed>0.0</speed>
  <fix>3d</fix>
</trkpt>
<trkpt lat="40.0713749" lon="-105.229789">
  <ele>1583.0</ele>
  <time>2026-08-28T17:49:07Z</time>
  <course>248.27</course>
  <speed>0.01</speed>
  <fix>3d</fix>
</trkpt>
<trkpt lat="40.0713749" lon="-105.229789">
  <ele>1583.0</ele>
  <time>2026-08-28T17:49:07Z</time>
  <course>0.0</course>
  <speed>0.0</speed>
  <fix>3d</fix>
</trkpt>
<trkpt lat="40.0713749" lon="-105.229789">
  <ele>1583.0</ele>
  <time>2026-08-28T17:49:07Z</time>
  <course>248.26</course>
  <speed>0.01</speed>
  <fix>3d</fix>
</trkpt>
<trkpt lat="40.0713749" lon="-105.229789">
  <ele>1583.0</ele>
  <time>2026-08-28T17:49:07Z</time>
  <course>0.0</course>
  <speed>0.0</speed>
  <fix>3d</fix>
</trkpt>
<trkpt lat="40.0713749" lon="-105.229789">
  <ele>1583.0</ele>
  <time>2026-08-28T17:49:07Z</time>
  <course>248.26</course>
  <speed>0.01</speed>
  <fix>3d</fix>
</trkpt>
<trkpt lat="40.0713749" lon="-105.229789">
  <ele>1583.0</ele>
  <time>2026-08-28T17:49:07Z</time>
  <course>0.0</course>
  <speed>0.0</speed>
  <fix>3d</fix>
</trkpt>
<trkpt lat="40.0713749" lon="-105.229789">
  <ele>1583.0</ele>
  <time>2026-08-28T17:49:07Z</time>
  <course>248.26</course>
  <speed>0.01</speed>
  <fix>3d</fix>
</trkpt>
<trkpt lat="40.0713749" lon="-105.229789">
  <ele>1583.0</ele>
  <time>2026-08-28T17:49:07Z</time>
  <course>0.0</course>
  <speed>0.0</speed>
  <fix>3d</fix>
</trkpt>
<trkpt lat="40.0713749" lon="-105.229789">
  <ele>1583.0</ele>
  <time>2026-08-28T17:49:07Z</time>
  <course>248.25</course>
  <speed>0.01</speed>
  <fix>3d</fix>
</trkpt>
<trkpt lat="40.0713749" lon="-105.229789">
  <ele>1583.0</ele>
  <time>2026-08-28T17:49:07Z</time>
  <course>0.0</course>
  <speed>0.0</speed>
  <fix>3d</fix>
</trkpt>
<trkpt lat="40.0713749" lon="-105.229789">
  <ele>1583.0</ele>
  <time>2026-08-28T17:49:07Z</time>
  <course>248.25</course>
  <speed>0.01</speed>
  <fix>3d</fix>
</trkpt>
<trkpt lat="40.0713749" lon="-105.229789">
  <ele>1583.0</ele>
  <time>2026-08-28T17:49:07Z</time>
  <course>0.0</course>
  <speed>0.0</speed>
  <fix>3d</fix>
</trkpt>
<trkpt lat="40.0713749" lon="-105.229789">
  <ele>1583.0</ele>
  <time>2026-08-28T17:49:07Z</time>
  <course>248.24</course>
  <speed>0.01</speed>
  <fix>3d</fix>
</trkpt>
<trkpt lat="40.0713749" lon="-105.229789">
  <ele>1583.0</ele>
  <time>2026-08-28T17:49:07Z</time>
  <course>0.0</course>
  <speed>0.0</speed>
  <fix>3d</fix>
</trkpt>
<trkpt lat="40.0713749" lon="-105.229789">
  <ele>1583.0</ele>
  <time>2026-08-28T17:49:07Z</time>
  <course>248.24</course>
  <speed>0.01</speed>
  <fix>3d</fix>
</trkpt>
<trkpt lat="40.0713749" lon="-105.229789">
  <ele>1583.0</ele>
  <time>2026-08-28T17:49:07Z</time>
  <course>0.0</course>
  <speed>0.0</speed>
  <fix>3d</fix>
</trkpt>
<trkpt lat="40.0713749" lon="-105.229789">
  <ele>1583.0</ele>
  <time>2026-08-28T17:49:07Z</time>
  <course>248.23</course>
  <speed>0.01</speed>
  <fix>3d</fix>
</trkpt>
<trkpt lat="40.0713749" lon="-105.229789">
  <ele>1583.0</ele>
  <time>2026-08-28T17:49:07Z</time>
  <course>0.0</course>
  <speed>0.0</speed>
  <fix>3d</fix>
</trkpt>
<trkpt lat="40.0713749" lon="-105.229789">
  <ele>1583.0</ele>
  <time>2026-08-28T17:49:07Z</time>
  <course>248.23</course>
  <speed>0.01</speed>
  <fix>3d</fix>
</trkpt>
<trkpt lat="40.0713749" lon="-105.229789">
  <ele>1583.0</ele>
  <time>2026-08-28T17:49:07Z</time>
  <course>0.0</course>
  <speed>0.0</speed>
  <fix>3d</fix>
</trkpt>
<trkpt lat="40.0713749" lon="-105.229789">
  <ele>1583.0</ele>
  <time>2026-08-28T17:49:07Z</time>
  <course>248.22</course>
  <speed>0.01</speed>
  <fix>3d</fix>
</trkpt>
<trkpt lat="40.0713749" lon="-105.229789">
  <ele>1583.0</ele>
  <time>2026-08-28T17:49:07Z</time>
  <course>0.0</course>
  <speed>0.0</speed>
  <fix>3d</fix>
</trkpt>
<trkpt lat="40.0713749" lon="-105.229789">
  <ele>1583.0</ele>
  <time>2026-08-28T17:49:07Z</time>
  <course>248.22</course>
  <speed>0.01</speed>
  <fix>3d</fix>
</trkpt>
<trkpt lat="40.0713749" lon="-105.229789">
  <ele>1583.0</ele>
  <time>2026-08-28T17:49:07Z</time>
  <course>0.0</course>
  <speed>0.0</speed>
  <fix>3d</fix>
</trkpt>
<trkpt lat="40.0713749" lon="-105.229789">
  <ele>1583.0</ele>
  <time>2026-08-28T17:49:07Z</time>
  <course>248.21</course>
  <speed>0.01</speed>
  <fix>3d</fix>
</trkpt>
<trkpt lat="40.0713749" lon="-105.229789">
  <ele>1583.0</ele>
  <time>2026-08-28T17:49:07Z</time>
  <course>0.0</course>
  <speed>0.0</speed>
  <fix>3d</fix>
</trkpt>
<trkpt lat="40.0713749" lon="-105.229789">
  <ele>1583.0</ele>
  <time>2026-08-28T17:49:07Z</time>
  <course>248.21</course>
  <speed>0.01</speed>
  <fix>3d</fix>
</trkpt>
<trkpt lat="40.0713749" lon="-105.229789">
  <ele>1583.0</ele>
  <time>2026-08-28T17:49:07Z</time>
  <course>0.0</course>
  <speed>0.0</speed>
  <fix>3d</fix>
</trkpt>
<trkpt lat="40.0713749" lon="-105.229789">
  <ele>1583.0</ele>
  <time>2026-08-28T17:49:07Z</time>
  <course>248.2</course>
  <speed>0.01</speed>
  <fix>3d</fix>
</trkpt>
<trkpt lat="40.0713749" lon="-105.229789">
  <ele>1583.0</ele>
  <time>2026-08-28T17:49:07Z</time>
  <course>0.0</course>
  <speed>0.0</speed>
  <fix>3d</fix>
</trkpt>
<trkpt lat="40.0713749" lon="-105.229789">
  <ele>1583.0</ele>
  <time>2026-08-28T17:49:07Z</time>
  <course>248.2</course>
  <speed>0.01</speed>
  <fix>3d</fix>
</trkpt>
<trkpt lat="40.0713749" lon="-105.229789">
  <ele>1583.0</ele>
  <time>2026-08-28T17:49:07Z</time>
  <course>0.0</course>
  <speed>0.0</speed>
  <fix>3d</fix>
</trkpt>
<trkpt lat="40.0713749" lon="-105.229789">
  <ele>1583.0</ele>
  <time>2026-08-28T17:49:07Z</time>
  <course>248.19</course>
  <speed>0.01</speed>
  <fix>3d</fix>
</trkpt>
<trkpt lat="40.0713749" lon="-105.229789">
  <ele>1583.0</ele>
  <time>2026-08-28T17:49:07Z</time>
  <course>0.0</course>
  <speed>0.0</speed>
  <fix>3d</fix>
</trkpt>
<trkpt lat="40.0713749" lon="-105.229789">
  <ele>1583.0</ele>
  <time>2026-08-28T17:49:07Z</time>
  <course>248.19</course>
  <speed>0.01</speed>
  <fix>3d</fix>
</trkpt>
<trkpt lat="40.0713749" lon="-105.229789">
  <ele>1583.0</ele>
  <time>2026-08-28T17:49:07Z</time>
  <course>0.0</course>
  <speed>0.0</speed>
  <fix>3d</fix>
</trkpt>
<trkpt lat="40.0713749" lon="-105.229789">
  <ele>1583.0</ele>
  <time>2026-08-28T17:49:07Z</time>
  <course>248.18</course>
  <speed>0.01</speed>
  <fix>3d</fix>
</trkpt>
<trkpt lat="40.0713749" lon="-105.229789">
  <ele>1583.0</ele>
  <time>2026-08-28T17:49:07Z</time>
  <course>0.0</course>
  <speed>0.0</speed>
  <fix>3d</fix>
</trkpt>
<trkpt lat="40.0713749" lon="-105.229789">
  <ele>1583.0</ele>
  <time>2026-08-28T17:49:07Z</time>
  <course>248.18</course>
  <speed>0.01</speed>
  <fix>3d</fix>
</trkpt>
<trkpt lat="40.0713749" lon="-105.229789">
  <ele>1583.0</ele>
  <time>2026-08-28T17:49:07Z</time>
  <course>0.0</course>
  <speed>0.0</speed>
  <fix>3d</fix>
</trkpt>
<trkpt lat="40.0713749" lon="-105.229789">
  <ele>1583.0</ele>
  <time>2026-08-28T17:49:07Z</time>
  <course>248.17</course>
  <speed>0.022360679774997897</speed>
  <fix>3d</fix>
</trkpt>
<trkpt lat="40.0713749" lon="-105.229789">
  <ele>1583.0</ele>
  <time>2026-08-28T17:49:07Z</time>
  <course>0.0</course>
  <speed>0.0</speed>
  <fix>3d</fix>
</trkpt>
<trkpt lat="40.0713749" lon="-105.229789">
  <ele>1583.0</ele>
  <time>2026-08-28T17:49:07Z</time>
  <course>248.17</course>
  <speed>0.022360679774997897</speed>
  <fix>3d</fix>
</trkpt>
<trkpt lat="40.0713749" lon="-105.229789">
  <ele>1583.0</ele>
  <time>2026-08-28T17:49:07Z</time>
  <course>0.0</course>
  <speed>0.0</speed>
  <fix>3d</fix>
</trkpt>
<trkpt lat="40.0713749" lon="-105.229789">
  <ele>1583.0</ele>
  <time>2026-08-28T17:49:07Z</time>
  <course>248.16</course>
  <speed>0.022360679774997897</speed>
  <fix>3d</fix>
</trkpt>
<trkpt lat="40.0713749" lon="-105.229789">
  <ele>1583.0</ele>
  <time>2026-08-28T17:49:07Z</time>
  <course>0.0</course>
  <speed>0.0</speed>
  <fix>3d</fix>
</trkpt>
<trkpt lat="40.0713749" lon="-105.229789">
  <ele>1583.0</ele>
  <time>2026-08-28T17:49:07Z</time>
  <course>248.16</course>
  <speed>0.022360679774997897</speed>
  <fix>3d</fix>
</trkpt>
<trkpt lat="40.0713749" lon="-105.229789">
  <ele>1583.0</ele>
  <time>2026-08-28T17:49:07Z</time>
  <course>0.0</course>
  <speed>0.0</speed>
  <fix>3d</fix>
</trkpt>
<trkpt lat="40.0713749" lon="-105.229789">
  <ele>1583.0</ele>
  <time>2026-08-28T17:49:07Z</time>
  <course>248.15</course>
  <speed>0.022360679774997897</speed>
  <fix>3d</fix>
</trkpt>
<trkpt lat="40.0713749" lon="-105.229789">
  <ele>1583.0</ele>
  <time>2026-08-28T17:49:07Z</time>
  <course>0.0</course>
  <speed>0.0</speed>
  <fix>3d</fix>
</trkpt>
<trkpt lat="40.0713749" lon="-105.229789">
  <ele>1583.0</ele>
  <time>2026-08-28T17:49:07Z</time>
  <course>248.15</course>
  <speed>0.022360679774997897</speed>
  <fix>3d</fix>
</trkpt>
<trkpt lat="40.0713749" lon="-105.229789">
  <ele>1583.0</ele>
  <time>2026-08-28T17:49:07Z</time>
  <course>0.0</course>
  <speed>0.0</speed>
  <fix>3d</fix>
</trkpt>
<trkpt lat="40.0713749" lon="-105.229789">
  <ele>1583.0</ele>
  <time>2026-08-28T17:49:07Z</time>
  <course>248.14</course>
  <speed>0.022360679774997897</speed>
  <fix>3d</fix>
</trkpt>
<trkpt lat="40.0713749" lon="-105.229789">
  <ele>1583.0</ele>
  <time>2026-08-28T17:49:07Z</time>
  <course>0.0</course>
  <speed>0.0</speed>
  <fix>3d</fix>
</trkpt>
<trkpt lat="40.0713749" lon="-105.229789">
  <ele>1583.0</ele>
  <time>2026-08-28T17:49:07Z</time>
  <course>248.14</course>
  <speed>0.022360679774997897</speed>
  <fix>3d</fix>
</trkpt>
<trkpt lat="40.0713749" lon="-105.229789">
  <ele>1583.0</ele>
  <time>2026-08-28T17:49:07Z</time>
  <course>0.0</course>
  <speed>0.0</speed>
  <fix>3d</fix>
</trkpt>
<trkpt lat="40.0713749" lon="-105.229789">
  <ele>1583.0</ele>
  <time>2026-08-28T17:49:07Z</time>
  <course>248.13</course>
  <speed>0.022360679774997897</speed>
  <fix>3d</fix>
</trkpt>
<trkpt lat="40.0713749" lon="-105.229789">
  <ele>1583.0</ele>
  <time>2026-08-28T17:49:07Z</time>
  <course>0.0</course>
  <speed>0.0</speed>
  <fix>3d</fix>
</trkpt>
<trkpt lat="40.0713749" lon="-105.229789">
  <ele>1583.0</ele>
  <time>2026-08-28T17:49:07Z</time>
  <course>248.13</course>
  <speed>0.022360679774997897</speed>
  <fix>3d</fix>
</trkpt>
<trkpt lat="40.0713749" lon="-105.229789">
  <ele>1583.0</ele>
  <time>2026-08-28T17:49:07Z</time>
  <course>0.0</course>
  <speed>0.0</speed>
  <fix>3d</fix>
</trkpt>
<trkpt lat="40.0713749" lon="-105.229789">
  <ele>1583.0</ele>
  <time>2026-08-28T17:49:07Z</time>
  <course>248.12</course>
  <speed>0.022360679774997897</speed>
  <fix>3d</fix>
</trkpt>
<trkpt lat="40.0713749" lon="-105.229789">
  <ele>1583.0</ele>
  <time>2026-08-28T17:49:07Z</time>
  <course>0.0</course>
  <speed>0.0</speed>
  <fix>3d</fix>
</trkpt>
<trkpt lat="40.0713749" lon="-105.229789">
  <ele>1583.0</ele>
  <time>2026-08-28T17:49:07Z</time>
  <course>248.12</course>
  <speed>0.022360679774997897</speed>
  <fix>3d</fix>
</trkpt>
<trkpt lat="40.0713749" lon="-105.229789">
  <ele>1583.0</ele>
  <time>2026-08-28T17:49:07Z</time>
  <course>0.0</course>
  <speed>0.0</speed>
  <fix>3d</fix>
</trkpt>
<trkpt lat="40.0713749" lon="-105.229789">
  <ele>1583.0</ele>
  <time>2026-08-28T17:49:07Z</time>
  <course>248.11</course>
  <speed>0.022360679774997897</speed>
  <fix>3d</fix>
</trkpt>
<trkpt lat="40.0713749" lon="-105.229789">
  <ele>1583.0</ele>
  <time>2026-08-28T17:49:07Z</time>
  <course>0.0</course>
  <speed>0.0</speed>
  <fix>3d</fix>
</trkpt>
<trkpt lat="40.0713749" lon="-105.229789">
  <ele>1583.0</ele>
  <time>2026-08-28T17:49:07Z</time>
  <course>248.11</course>
  <speed>0.022360679774997897</speed>
  <fix>3d</fix>
</trkpt>
<trkpt lat="40.0713749" lon="-105.229789">
  <ele>1583.0</ele>
  <time>2026-08-28T17:49:07Z</time>
  <course>0.0</course>
  <speed>0.0</speed>
  <fix>3d</fix>
</trkpt>
<trkpt lat="40.0713749" lon="-105.229789">
  <ele>1583.0</ele>
  <time>2026-08-28T17:49:07Z</time>
  <course>248.1</course>
  <speed>0.022360679774997897</speed>
  <fix>3d</fix>
</trkpt>
<trkpt lat="40.0713749" lon="-105.229789">
  <ele>1583.0</ele>
  <time>2026-08-28T17:49:07Z</time>
  <course>0.0</course>
  <speed>0.0</speed>
  <fix>3d</fix>
</trkpt>
<trkpt lat="40.0713749" lon="-105.229789">
  <ele>1583.0</ele>
  <time>2026-08-28T17:49:07Z</time>
  <course>248.1</course>
  <speed>0.022360679774997897</speed>
  <fix>3d</fix>
</trkpt>
<trkpt lat="40.0713749" lon="-105.229789">
  <ele>1583.0</ele>
  <time>2026-08-28T17:49:07Z</time>
  <course>0.0</course>
  <speed>0.0</speed>
  <fix>3d</fix>
</trkpt>
<trkpt lat="40.0713749" lon="-105.229789">
  <ele>1583.0</ele>
  <time>2026-08-28T17:49:07Z</time>
  <course>248.09</course>
  <speed>0.022360679774997897</speed>
  <fix>3d</fix>
</trkpt>
<trkpt lat="40.0713749" lon="-105.229789">
  <ele>1583.0</ele>
  <time>2026-08-28T17:49:07Z</time>
  <course>0.0</course>
  <speed>0.0</speed>
  <fix>3d</fix>
</trkpt>
<trkpt lat="40.0713749" lon="-105.229789">
  <ele>1583.0</ele>
  <time>2026-08-28T17:49:07Z</time>
  <course>248.09</course>
  <speed>0.022360679774997897</speed>
  <fix>3d</fix>
</trkpt>
<trkpt lat="40.0713749" lon="-105.229789">
  <ele>1583.0</ele>
  <time>2026-08-28T17:49:07Z</time>
  <course>0.0</course>
  <speed>0.0</speed>
  <fix>3d</fix>
</trkpt>
<trkpt lat="40.0713749" lon="-105.229789">
  <ele>1583.0</ele>
  <time>2026-08-28T17:49:07Z</time>
  <course>248.08</course>
  <speed>0.022360679774997897</speed>
  <fix>3d</fix>
</trkpt>
<trkpt lat="40.0713749" lon="-105.229789">
  <ele>1583.0</ele>
  <time>2026-08-28T17:49:07Z</time>
  <course>0.0</course>
  <speed>0.0</speed>
  <fix>3d</fix>
</trkpt>
<trkpt lat="40.0713749" lon="-105.229789">
  <ele>1583.0</ele>
  <time>2026-08-28T17:49:07Z</time>
  <course>248.08</course>
  <speed>0.022360679774997897</speed>
  <fix>3d</fix>
</trkpt>
<trkpt lat="40.0713749" lon="-105.229789">
  <ele>1583.0</ele>
  <time>2026-08-28T17:49:07Z</time>
  <course>0.0</course>
  <speed>0.0</speed>
  <fix>3d</fix>
</trkpt>
<trkpt lat="40.0713749" lon="-105.229789">
  <ele>1583.0</ele>
  <time>2026-08-28T17:49:07Z</time>
  <course>248.07</course>
  <speed>0.022360679774997897</speed>
  <fix>3d</fix>
</trkpt>
<trkpt lat="40.0713749" lon="-105.229789">
  <ele>1583.0</ele>
  <time>2026-08-28T17:49:07Z</time>
  <course>0.0</course>
  <speed>0.0</speed>
  <fix>3d</fix>
</trkpt>
<trkpt lat="40.0713749" lon="-105.229789">
  <ele>1583.0</ele>
  <time>2026-08-28T17:49:07Z</time>
  <course>248.07</course>
  <speed>0.022360679774997897</speed>
  <fix>3d</fix>
</trkpt>
<trkpt lat="40.0713749" lon="-105.229789">
  <ele>1583.0</ele>
  <time>2026-08-28T17:49:07Z</time>
  <course>0.0</course>
  <speed>0.0</speed>
  <fix>3d</fix>
</trkpt>
<trkpt lat="40.0713749" lon="-105.229789">
  <ele>1583.0</ele>
  <time>2026-08-28T17:49:07Z</time>
  <course>248.06</course>
  <speed>0.022360679774997897</speed>
  <fix>3d</fix>
</trkpt>
<trkpt lat="40.0713749" lon="-105.229789">
  <ele>1583.0</ele>
  <time>2026-08-28T17:49:07Z</time>
  <course>0.0</course>
  <speed>0.0</speed>
  <fix>3d</fix>
</trkpt>
<trkpt lat="40.0713749" lon="-105.229789">
  <ele>1583.0</ele>
  <time>2026-08-28T17:49:07Z</time>
  <course>248.06</course>
  <speed>0.022360679774997897</speed>
  <fix>3d</fix>
</trkpt>
<trkpt lat="40.0713749" lon="-105.229789">
  <ele>1583.0</ele>
  <time>2026-08-28T17:49:07Z</time>
  <course>0.0</course>
  <speed>0.0</speed>
  <fix>3d</fix>
</trkpt>
<trkpt lat="40.0713749" lon="-105.229789">
  <ele>1583.0</ele>
  <time>2026-08-28T17:49:07Z</time>
  <course>248.05</course>
  <speed>0.022360679774997897</speed>
  <fix>3d</fix>
</trkpt>
<trkpt lat="40.0713749" lon="-105.229789">
  <ele>1583.0</ele>
  <time>2026-08-28T17:49:07Z</time>
  <course>0.0</course>
  <speed>0.0</speed>
  <fix>3d</fix>
</trkpt>
<trkpt lat="40.0713749" lon="-105.229789">
  <ele>1583.0</ele>
  <time>2026-08-28T17:49:07Z</time>
  <course>248.05</course>
  <speed>0.022360679774997897</speed>
  <fix>3d</fix>
</trkpt>
<trkpt lat="40.0713749" lon="-105.229789">
  <ele>1583.0</ele>
  <time>2026-08-28T17:49:07Z</time>
  <course>0.0</course>
  <speed>0.0</speed>
  <fix>3d</fix>
</trkpt>
<trkpt lat="40.0713749" lon="-105.229789">
  <ele>1583.0</ele>
  <time>2026-08-28T17:49:07Z</time>
  <course>248.05</course>
  <speed>0.022360679774997897</speed>
  <fix>3d</fix>
</trkpt>
<trkpt lat="40.0713749" lon="-105.229789">
  <ele>1583.0</ele>
  <time>2026-08-28T17:49:07Z</time>
  <course>0.0</course>
  <speed>0.0</speed>
  <fix>3d</fix>
</trkpt>
<trkpt lat="40.0713749" lon="-105.229789">
  <ele>1583.0</ele>
  <time>2026-08-28T17:49:07Z</time>
  <course>248.04</course>
  <speed>0.022360679774997897</speed>
  <fix>3d</fix>
</trkpt>
<trkpt lat="40.0713749" lon="-105.229789">
  <ele>1583.0</ele>
  <time>2026-08-28T17:49:07Z</time>
  <course>0.0</course>
  <speed>0.0</speed>
  <fix>3d</fix>
</trkpt>
<trkpt lat="40.0713749" lon="-105.229789">
  <ele>1583.0</ele>
  <time>2026-08-28T17:49:07Z</time>
  <course>248.04</course>
  <speed>0.022360679774997897</speed>
  <fix>3d</fix>
</trkpt>
<trkpt lat="40.0713749" lon="-105.229789">
  <ele>1583.0</ele>
  <time>2026-08-28T17:49:07Z</time>
  <course>0.0</course>
  <speed>0.0</speed>
  <fix>3d</fix>
</trkpt>
<trkpt lat="40.0713749" lon="-105.229789">
  <ele>1583.0</ele>
  <time>2026-08-28T17:49:07Z</time>
  <course>248.03</course>
  <speed>0.022360679774997897</speed>
  <fix>3d</fix>
</trkpt>
<trkpt lat="40.0713749" lon="-105.229789">
  <ele>1583.0</ele>
  <time>2026-08-28T17:49:07Z</time>
  <course>0.0</course>
  <speed>0.0</speed>
  <fix>3d</fix>
</trkpt>
<trkpt lat="40.0713749" lon="-105.229789">
  <ele>1583.0</ele>
  <time>2026-08-28T17:49:07Z</time>
  <course>248.03</course>
  <speed>0.022360679774997897</speed>
  <fix>3d</fix>
</trkpt>
<trkpt lat="40.0713749" lon="-105.229789">
  <ele>1583.0</ele>
  <time>2026-08-28T17:49:07Z</time>
  <course>0.0</course>
  <speed>0.0</speed>
  <fix>3d</fix>
</trkpt>
<trkpt lat="40.0713749" lon="-105.229789">
  <ele>1583.0</ele>
  <time>2026-08-28T17:49:07Z</time>
  <course>248.02</course>
  <speed>0.022360679774997897</speed>
  <fix>3d</fix>
</trkpt>
<trkpt lat="40.0713749" lon="-105.229789">
  <ele>1583.0</ele>
  <time>2026-08-28T17:49:07Z</time>
  <course>0.0</course>
  <speed>0.0</speed>
  <fix>3d</fix>
</trkpt>
<trkpt lat="40.0713749" lon="-105.229789">
  <ele>1583.0</ele>
  <time>2026-08-28T17:49:07Z</time>
  <course>248.02</course>
  <speed>0.022360679774997897</speed>
  <fix>3d</fix>
</trkpt>
<trkpt lat="40.0713749" lon="-105.229789">
  <ele>1583.0</ele>
  <time>2026-08-28T17:49:07Z</time>
  <course>0.0</course>
  <speed>0.0</speed>
  <fix>3d</fix>
</trkpt>
<trkpt lat="40.0713749" lon="-105.229789">
  <ele>1583.0</ele>
  <time>2026-08-28T17:49:07Z</time>
  <course>248.01</course>
  <speed>0.022360679774997897</speed>
  <fix>3d</fix>
</trkpt>
<trkpt lat="40.0713749" lon="-105.229789">
  <ele>1583.0</ele>
  <time>2026-08-28T17:49:07Z</time>
  <course>0.0</course>
  <speed>0.0</speed>
  <fix>3d</fix>
</trkpt>
<trkpt lat="40.0713749" lon="-105.229789">
  <ele>1583.0</ele>
  <time>2026-08-28T17:49:07Z</time>
  <course>248.01</course>
  <speed>0.022360679774997897</speed>
  <fix>3d</fix>
</trkpt>
<trkpt lat="40.0713749" lon="-105.229789">
  <ele>1583.0</ele>
  <time>2026-08-28T17:49:07Z</time>
  <course>0.0</course>
  <speed>0.0</speed>
  <fix>3d</fix>
</trkpt>
<trkpt lat="40.0713749" lon="-105.229789">
  <ele>1583.0</ele>
  <time>2026-08-28T17:49:07Z</time>
  <course>248.0</course>
  <speed>0.022360679774997897</speed>
  <fix>3d</fix>
</trkpt>
<trkpt lat="40.0713749" lon="-105.229789">
  <ele>1583.0</ele>
  <time>2026-08-28T17:49:07Z</time>
  <course>0.0</course>
  <speed>0.0</speed>
  <fix>3d</fix>
</trkpt>
<trkpt lat="40.0713749" lon="-105.229789">
  <ele>1583.0</ele>
  <time>2026-08-28T17:49:07Z</time>
  <course>248.0</course>
  <speed>0.022360679774997897</speed>
  <fix>3d</fix>
</trkpt>
<trkpt lat="40.0713749" lon="-105.229789">
  <ele>1583.0</ele>
  <time>2026-08-28T17:49:07Z</time>
  <course>0.0</course>
  <speed>0.0</speed>
  <fix>3d</fix>
</trkpt>
<trkpt lat="40.0713749" lon="-105.229789">
  <ele>1583.0</ele>
  <time>2026-08-28T17:49:07Z</time>
  <course>247.99</course>
  <speed>0.022360679774997897</speed>
  <fix>3d</fix>
</trkpt>
<trkpt lat="40.0713749" lon="-105.229789">
  <ele>1583.0</ele>
  <time>2026-08-28T17:49:07Z</time>
  <course>0.0</course>
  <speed>0.0</speed>
  <fix>3d</fix>
</trkpt>
<trkpt lat="40.0713749" lon="-105.229789">
  <ele>1583.0</ele>
  <time>2026-08-28T17:49:07Z</time>
  <course>247.99</course>
  <speed>0.022360679774997897</speed>
  <fix>3d</fix>
</trkpt>
<trkpt lat="40.0713749" lon="-105.229789">
  <ele>1583.0</ele>
  <time>2026-08-28T17:49:07Z</time>
  <course>0.0</course>
  <speed>0.0</speed>
  <fix>3d</fix>
</trkpt>
<trkpt lat="40.0713749" lon="-105.229789">
  <ele>1583.0</ele>
  <time>2026-08-28T17:49:07Z</time>
  <course>247.99</course>
  <speed>0.022360679774997897</speed>
  <fix>3d</fix>
</trkpt>
<trkpt lat="40.0713749" lon="-105.229789">
  <ele>1583.0</ele>
  <time>2026-08-28T17:49:07Z</time>
  <course>0.0</course>
  <speed>0.0</speed>
  <fix>3d</fix>
</trkpt>
<trkpt lat="40.0713749" lon="-105.229789">
  <ele>1583.0</ele>
  <time>2026-08-28T17:49:07Z</time>
  <course>247.98</course>
  <speed>0.022360679774997897</speed>
  <fix>3d</fix>
</trkpt>
<trkpt lat="40.0713749" lon="-105.229789">
  <ele>1583.0</ele>
  <time>2026-08-28T17:49:07Z</time>
  <course>0.0</course>
  <speed>0.0</speed>
  <fix>3d</fix>
</trkpt>
<trkpt lat="40.0713749" lon="-105.229789">
  <ele>1583.0</ele>
  <time>2026-08-28T17:49:07Z</time>
  <course>247.98</course>
  <speed>0.022360679774997897</speed>
  <fix>3d</fix>
</trkpt>
<trkpt lat="40.0713749" lon="-105.229789">
  <ele>1583.0</ele>
  <time>2026-08-28T17:49:07Z</time>
  <course>0.0</course>
  <speed>0.0</speed>
  <fix>3d</fix>
</trkpt>
<trkpt lat="40.0713749" lon="-105.229789">
  <ele>1583.0</ele>
  <time>2026-08-28T17:49:07Z</time>
  <course>247.97</course>
  <speed>0.022360679774997897</speed>
  <fix>3d</fix>
</trkpt>
<trkpt lat="40.0713749" lon="-105.229789">
  <ele>1583.0</ele>
  <time>2026-08-28T17:49:07Z</time>
  <course>0.0</course>
  <speed>0.0</speed>
  <fix>3d</fix>
</trkpt>
<trkpt lat="40.0713749" lon="-105.229789">
  <ele>1583.0</ele>
  <time>2026-08-28T17:49:07Z</time>
  <course>247.97</course>
  <speed>0.022360679774997897</speed>
  <fix>3d</fix>
</trkpt>
<trkpt lat="40.0713749" lon="-105.229789">
  <ele>1583.0</ele>
  <time>2026-08-28T17:49:07Z</time>
  <course>0.0</course>
  <speed>0.0</speed>
  <fix>3d</fix>
</trkpt>
<trkpt lat="40.0713749" lon="-105.229789">
  <ele>1583.0</ele>
  <time>2026-08-28T17:49:07Z</time>
  <course>247.96</course>
  <speed>0.022360679774997897</speed>
  <fix>3d</fix>
</trkpt>
<trkpt lat="40.0713749" lon="-105.229789">
  <ele>1583.0</ele>
  <time>2026-08-28T17:49:07Z</time>
  <course>0.0</course>
  <speed>0.0</speed>
  <fix>3d</fix>
</trkpt>
<trkpt lat="40.0713749" lon="-105.229789">
  <ele>1583.0</ele>
  <time>2026-08-28T17:49:07Z</time>
  <course>247.96</course>
  <speed>0.022360679774997897</speed>
  <fix>3d</fix>
</trkpt>
<trkpt lat="40.0713749" lon="-105.229789">
  <ele>1583.0</ele>
  <time>2026-08-28T17:49:07Z</time>
  <course>0.0</course>
  <speed>0.0</speed>
  <fix>3d</fix>
</trkpt>
<trkpt lat="40.0713749" lon="-105.229789">
  <ele>1583.0</ele>
  <time>2026-08-28T17:49:07Z</time>
  <course>247.95</course>
  <speed>0.022360679774997897</speed>
  <fix>3d</fix>
</trkpt>
<trkpt lat="40.0713749" lon="-105.229789">
  <ele>1583.0</ele>
  <time>2026-08-28T17:49:07Z</time>
  <course>0.0</course>
  <speed>0.0</speed>
  <fix>3d</fix>
</trkpt>
<trkpt lat="40.0713749" lon="-105.229789">
  <ele>1583.0</ele>
  <time>2026-08-28T17:49:07Z</time>
  <course>247.95</course>
  <speed>0.022360679774997897</speed>
  <fix>3d</fix>
</trkpt>
<trkpt lat="40.0713749" lon="-105.229789">
  <ele>1583.0</ele>
  <time>2026-08-28T17:49:07Z</time>
  <course>0.0</course>
  <speed>0.0</speed>
  <fix>3d</fix>
</trkpt>
<trkpt lat="40.0713749" lon="-105.229789">
  <ele>1583.0</ele>
  <time>2026-08-28T17:49:07Z</time>
  <course>247.95</course>
  <speed>0.022360679774997897</speed>
  <fix>3d</fix>
</trkpt>
<trkpt lat="40.0713749" lon="-105.229789">
  <ele>1583.0</ele>
  <time>2026-08-28T17:49:07Z</time>
  <course>0.0</course>
  <speed>0.0</speed>
  <fix>3d</fix>
</trkpt>
<trkpt lat="40.0713749" lon="-105.229789">
  <ele>1583.0</ele>
  <time>2026-08-28T17:49:07Z</time>
  <course>247.94</course>
  <speed>0.022360679774997897</speed>
  <fix>3d</fix>
</trkpt>
<trkpt lat="40.0713749" lon="-105.229789">
  <ele>1583.0</ele>
  <time>2026-08-28T17:49:07Z</time>
  <course>0.0</course>
  <speed>0.0</speed>
  <fix>3d</fix>
</trkpt>
<trkpt lat="40.0713749" lon="-105.229789">
  <ele>1583.0</ele>
  <time>2026-08-28T17:49:07Z</time>
  <course>247.94</course>
  <speed>0.022360679774997897</speed>
  <fix>3d</fix>
</trkpt>
<trkpt lat="40.0713749" lon="-105.229789">
  <ele>1583.0</ele>
  <time>2026-08-28T17:49:07Z</time>
  <course>0.0</course>
  <speed>0.0</speed>
  <fix>3d</fix>
</trkpt>
<trkpt lat="40.0713749" lon="-105.229789">
  <ele>1583.0</ele>
  <time>2026-08-28T17:49:07Z</time>
  <course>247.93</course>
  <speed>0.022360679774997897</speed>
  <fix>3d</fix>
</trkpt>
<trkpt lat="40.0713749" lon="-105.229789">
  <ele>1583.0</ele>
  <time>2026-08-28T17:49:07Z</time>
  <course>0.0</course>
  <speed>0.0</speed>
  <fix>3d</fix>
</trkpt>
<trkpt lat="40.0713749" lon="-105.229789">
  <ele>1583.0</ele>
  <time>2026-08-28T17:49:07Z</time>
  <course>247.93</course>
  <speed>0.022360679774997897</speed>
  <fix>3d</fix>
</trkpt>
<trkpt lat="40.0713749" lon="-105.229789">
  <ele>1583.0</ele>
  <time>2026-08-28T17:49:07Z</time>
  <course>0.0</course>
  <speed>0.0</speed>
  <fix>3d</fix>
</trkpt>
<trkpt lat="40.0713749" lon="-105.229789">
  <ele>1583.0</ele>
  <time>2026-08-28T17:49:07Z</time>
  <course>247.92</course>
  <speed>0.022360679774997897</speed>
  <fix>3d</fix>
</trkpt>
<trkpt lat="40.0713749" lon="-105.229789">
  <ele>1583.0</ele>
  <time>2026-08-28T17:49:07Z</time>
  <course>0.0</course>
  <speed>0.0</speed>
  <fix>3d</fix>
</trkpt>
<trkpt lat="40.0713749" lon="-105.229789">
  <ele>1583.0</ele>
  <time>2026-08-28T17:49:07Z</time>
  <course>247.92</course>
  <speed>0.022360679774997897</speed>
  <fix>3d</fix>
</trkpt>
<trkpt lat="40.0713749" lon="-105.229789">
  <ele>1583.0</ele>
  <time>2026-08-28T17:49:07Z</time>
  <course>0.0</course>
  <speed>0.0</speed>
  <fix>3d</fix>
</trkpt>
<trkpt lat="40.0713749" lon="-105.229789">
  <ele>1583.0</ele>
  <time>2026-08-28T17:49:07Z</time>
  <course>247.92</course>
  <speed>0.022360679774997897</speed>
  <fix>3d</fix>
</trkpt>
<trkpt lat="40.0713749" lon="-105.229789">
  <ele>1583.0</ele>
  <time>2026-08-28T17:49:07Z</time>
  <course>0.0</course>
  <speed>0.0</speed>
  <fix>3d</fix>
</trkpt>
<trkpt lat="40.0713749" lon="-105.229789">
  <ele>1583.0</ele>
  <time>2026-08-28T17:49:07Z</time>
  <course>247.91</course>
  <speed>0.022360679774997897</speed>
  <fix>3d</fix>
</trkpt>
<trkpt lat="40.0713749" lon="-105.229789">
  <ele>1583.0</ele>
  <time>2026-08-28T17:49:07Z</time>
  <course>0.0</course>
  <speed>0.0</speed>
  <fix>3d</fix>
</trkpt>
<trkpt lat="40.0713749" lon="-105.229789">
  <ele>1583.0</ele>
  <time>2026-08-28T17:49:07Z</time>
  <course>247.91</course>
  <speed>0.022360679774997897</speed>
  <fix>3d</fix>
</trkpt>
<trkpt lat="40.0713749" lon="-105.229789">
  <ele>1583.0</ele>
  <time>2026-08-28T17:49:07Z</time>
  <course>0.0</course>
  <speed>0.0</speed>
  <fix>3d</fix>
</trkpt>
<trkpt lat="40.0713749" lon="-105.229789">
  <ele>1583.0</ele>
  <time>2026-08-28T17:49:07Z</time>
  <course>247.9</course>
  <speed>0.022360679774997897</speed>
  <fix>3d</fix>
</trkpt>
<trkpt lat="40.0713749" lon="-105.229789">
  <ele>1583.0</ele>
  <time>2026-08-28T17:49:07Z</time>
  <course>0.0</course>
  <speed>0.0</speed>
  <fix>3d</fix>
</trkpt>
<trkpt lat="40.0713749" lon="-105.229789">
  <ele>1583.0</ele>
  <time>2026-08-28T17:49:07Z</time>
  <course>247.9</course>
  <speed>0.022360679774997897</speed>
  <fix>3d</fix>
</trkpt>
<trkpt lat="40.0713749" lon="-105.229789">
  <ele>1583.0</ele>
  <time>2026-08-28T17:49:07Z</time>
  <course>0.0</course>
  <speed>0.0</speed>
  <fix>3d</fix>
</trkpt>
<trkpt lat="40.0713749" lon="-105.229789">
  <ele>1583.0</ele>
  <time>2026-08-28T17:49:07Z</time>
  <course>247.89</course>
  <speed>0.022360679774997897</speed>
  <fix>3d</fix>
</trkpt>
<trkpt lat="40.0713749" lon="-105.229789">
  <ele>1583.0</ele>
  <time>2026-08-28T17:49:07Z</time>
  <course>0.0</course>
  <speed>0.0</speed>
  <fix>3d</fix>
</trkpt>
<trkpt lat="40.0713749" lon="-105.229789">
  <ele>1583.0</ele>
  <time>2026-08-28T17:49:07Z</time>
  <course>247.89</course>
  <speed>0.022360679774997897</speed>
  <fix>3d</fix>
</trkpt>
<trkpt lat="40.0713749" lon="-105.229789">
  <ele>1583.0</ele>
  <time>2026-08-28T17:49:07Z</time>
  <course>0.0</course>
  <speed>0.0</speed>
  <fix>3d</fix>
</trkpt>
<trkpt lat="40.0713749" lon="-105.229789">
  <ele>1583.0</ele>
  <time>2026-08-28T17:49:07Z</time>
  <course>247.89</course>
  <speed>0.022360679774997897</speed>
  <fix>3d</fix>
</trkpt>
<trkpt lat="40.0713749" lon="-105.229789">
  <ele>1583.0</ele>
  <time>2026-08-28T17:49:07Z</time>
  <course>0.0</course>
  <speed>0.0</speed>
  <fix>3d</fix>
</trkpt>
<trkpt lat="40.0713749" lon="-105.229789">
  <ele>1583.0</ele>
  <time>2026-08-28T17:49:07Z</time>
  <course>247.88</course>
  <speed>0.0316227766016838</speed>
  <fix>3d</fix>
</trkpt>
<trkpt lat="40.0713749" lon="-105.229789">
  <ele>1583.0</ele>
  <time>2026-08-28T17:49:07Z</time>
  <course>0.0</course>
  <speed>0.0</speed>
  <fix>3d</fix>
</trkpt>
<trkpt lat="40.0713749" lon="-105.229789">
  <ele>1583.0</ele>
  <time>2026-08-28T17:49:07Z</time>
  <course>247.88</course>
  <speed>0.0316227766016838</speed>
  <fix>3d</fix>
</trkpt>
<trkpt lat="40.0713749" lon="-105.229789">
  <ele>1583.0</ele>
  <time>2026-08-28T17:49:07Z</time>
  <course>0.0</course>
  <speed>0.0</speed>
  <fix>3d</fix>
</trkpt>
<trkpt lat="40.0713749" lon="-105.229789">
  <ele>1583.0</ele>
  <time>2026-08-28T17:49:07Z</time>
  <course>247.87</course>
  <speed>0.0316227766016838</speed>
  <fix>3d</fix>
</trkpt>
<trkpt lat="40.0713749" lon="-105.229789">
  <ele>1583.0</ele>
  <time>2026-08-28T17:49:07Z</time>
  <course>0.0</course>
  <speed>0.0</speed>
  <fix>3d</fix>
</trkpt>
<trkpt lat="40.0713749" lon="-105.229789">
  <ele>1583.0</ele>
  <time>2026-08-28T17:49:07Z</time>
  <course>247.87</course>
  <speed>0.0316227766016838</speed>
  <fix>3d</fix>
</trkpt>
<trkpt lat="40.0713749" lon="-105.229789">
  <ele>1583.0</ele>
  <time>2026-08-28T17:49:07Z</time>
  <course>0.0</course>
  <speed>0.0</speed>
  <fix>3d</fix>
</trkpt>
<trkpt lat="40.0713749" lon="-105.229789">
  <ele>1583.0</ele>
  <time>2026-08-28T17:49:07Z</time>
  <course>247.87</course>
  <speed>0.0316227766016838</speed>
  <fix>3d</fix>
</trkpt>
<trkpt lat="40.0713749" lon="-105.229789">
  <ele>1583.0</ele>
  <time>2026-08-28T17:49:07Z</time>
  <course>0.0</course>
  <speed>0.0</speed>
  <fix>3d</fix>
</trkpt>
<trkpt lat="40.0713749" lon="-105.229789">
  <ele>1583.0</ele>
  <time>2026-08-28T17:49:07Z</time>
  <course>247.86</course>
  <speed>0.0316227766016838</speed>
  <fix>3d</fix>
</trkpt>
<trkpt lat="40.0713749" lon="-105.229789">
  <ele>1583.0</ele>
  <time>2026-08-28T17:49:07Z</time>
  <course>0.0</course>
  <speed>0.0</speed>
  <fix>3d</fix>
</trkpt>
<trkpt lat="40.0713749" lon="-105.229789">
  <ele>1583.0</ele>
  <time>2026-08-28T17:49:07Z</time>
  <course>247.86</course>
  <speed>0.0316227766016838</speed>
  <fix>3d</fix>
</trkpt>
<trkpt lat="40.0713749" lon="-105.229789">
  <ele>1583.0</ele>
  <time>2026-08-28T17:49:07Z</time>
  <course>0.0</course>
  <speed>0.0</speed>
  <fix>3d</fix>
</trkpt>
<trkpt lat="40.0713749" lon="-105.229789">
  <ele>1583.0</ele>
  <time>2026-08-28T17:49:07Z</time>
  <course>247.85</course>
  <speed>0.0316227766016838</speed>
  <fix>3d</fix>
</trkpt>
<trkpt lat="40.0713749" lon="-105.229789">
  <ele>1583.0</ele>
  <time>2026-08-28T17:49:07Z</time>
  <course>0.0</course>
  <speed>0.0</speed>
  <fix>3d</fix>
</trkpt>
<trkpt lat="40.0713749" lon="-105.229789">
  <ele>1583.0</ele>
  <time>2026-08-28T17:49:07Z</time>
  <course>247.85</course>
  <speed>0.0316227766016838</speed>
  <fix>3d</fix>
</trkpt>
<trkpt lat="40.0713749" lon="-105.229789">
  <ele>1583.0</ele>
  <time>2026-08-28T17:49:07Z</time>
  <course>0.0</course>
  <speed>0.0</speed>
  <fix>3d</fix>
</trkpt>
<trkpt lat="40.0713749" lon="-105.229789">
  <ele>1583.0</ele>
  <time>2026-08-28T17:49:07Z</time>
  <course>247.85</course>
  <speed>0.0316227766016838</speed>
  <fix>3d</fix>
</trkpt>
<trkpt lat="40.0713749" lon="-105.229789">
  <ele>1583.0</ele>
  <time>2026-08-28T17:49:07Z</time>
  <course>0.0</course>
  <speed>0.0</speed>
  <fix>3d</fix>
</trkpt>
<trkpt lat="40.0713749" lon="-105.229789">
  <ele>1583.0</ele>
  <time>2026-08-28T17:49:07Z</time>
  <course>247.84</course>
  <speed>0.0316227766016838</speed>
  <fix>3d</fix>
</trkpt>
<trkpt lat="40.0713749" lon="-105.229789">
  <ele>1583.0</ele>
  <time>2026-08-28T17:49:07Z</time>
  <course>0.0</course>
  <speed>0.0</speed>
  <fix>3d</fix>
</trkpt>
<trkpt lat="40.0713749" lon="-105.229789">
  <ele>1583.0</ele>
  <time>2026-08-28T17:49:07Z</time>
  <course>247.84</course>
  <speed>0.0316227766016838</speed>
  <fix>3d</fix>
</trkpt>
<trkpt lat="40.0713749" lon="-105.229789">
  <ele>1583.0</ele>
  <time>2026-08-28T17:49:07Z</time>
  <course>0.0</course>
  <speed>0.0</speed>
  <fix>3d</fix>
</trkpt>
<trkpt lat="40.0713749" lon="-105.229789">
  <ele>1583.0</ele>
  <time>2026-08-28T17:49:07Z</time>
  <course>247.83</course>
  <speed>0.0316227766016838</speed>
  <fix>3d</fix>
</trkpt>
<trkpt lat="40.0713749" lon="-105.229789">
  <ele>1583.0</ele>
  <time>2026-08-28T17:49:07Z</time>
  <course>0.0</course>
  <speed>0.0</speed>
  <fix>3d</fix>
</trkpt>
<trkpt lat="40.0713749" lon="-105.229789">
  <ele>1583.0</ele>
  <time>2026-08-28T17:49:07Z</time>
  <course>247.83</course>
  <speed>0.0316227766016838</speed>
  <fix>3d</fix>
</trkpt>
<trkpt lat="40.0713749" lon="-105.229789">
  <ele>1583.0</ele>
  <time>2026-08-28T17:49:07Z</time>
  <course>0.0</course>
  <speed>0.0</speed>
  <fix>3d</fix>
</trkpt>
<trkpt lat="40.0713749" lon="-105.229789">
  <ele>1583.0</ele>
  <time>2026-08-28T17:49:07Z</time>
  <course>247.83</course>
  <speed>0.0316227766016838</speed>
  <fix>3d</fix>
</trkpt>
<trkpt lat="40.0713749" lon="-105.229789">
  <ele>1583.0</ele>
  <time>2026-08-28T17:49:07Z</time>
  <course>0.0</course>
  <speed>0.0</speed>
  <fix>3d</fix>
</trkpt>
<trkpt lat="40.0713749" lon="-105.229789">
  <ele>1583.0</ele>
  <time>2026-08-28T17:49:07Z</time>
  <course>247.82</course>
  <speed>0.0316227766016838</speed>
  <fix>3d</fix>
</trkpt>
<trkpt lat="40.0713749" lon="-105.229789">
  <ele>1583.0</ele>
  <time>2026-08-28T17:49:07Z</time>
  <course>0.0</course>
  <speed>0.0</speed>
  <fix>3d</fix>
</trkpt>
<trkpt lat="40.0713749" lon="-105.229789">
  <ele>1583.0</ele>
  <time>2026-08-28T17:49:07Z</time>
  <course>247.82</course>
  <speed>0.0316227766016838</speed>
  <fix>3d</fix>
</trkpt>
<trkpt lat="40.0713749" lon="-105.229789">
  <ele>1583.0</ele>
  <time>2026-08-28T17:49:07Z</time>
  <course>0.0</course>
  <speed>0.0</speed>
  <fix>3d</fix>
</trkpt>
<trkpt lat="40.0713749" lon="-105.229789">
  <ele>1583.0</ele>
  <time>2026-08-28T17:49:07Z</time>
  <course>247.82</course>
  <speed>0.0316227766016838</speed>
  <fix>3d</fix>
</trkpt>
<trkpt lat="40.0713749" lon="-105.229789">
  <ele>1583.0</ele>
  <time>2026-08-28T17:49:07Z</time>
  <course>0.0</course>
  <speed>0.0</speed>
  <fix>3d</fix>
</trkpt>
<trkpt lat="40.0713749" lon="-105.229789">
  <ele>1583.0</ele>
  <time>2026-08-28T17:49:07Z</time>
  <course>247.81</course>
  <speed>0.0316227766016838</speed>
  <fix>3d</fix>
</trkpt>
<trkpt lat="40.0713749" lon="-105.229789">
  <ele>1583.0</ele>
  <time>2026-08-28T17:49:07Z</time>
  <course>0.0</course>
  <speed>0.0</speed>
  <fix>3d</fix>
</trkpt>
<trkpt lat="40.0713749" lon="-105.229789">
  <ele>1583.0</ele>
  <time>2026-08-28T17:49:07Z</time>
  <course>247.81</course>
  <speed>0.0316227766016838</speed>
  <fix>3d</fix>
</trkpt>
<trkpt lat="40.0713749" lon="-105.229789">
  <ele>1583.0</ele>
  <time>2026-08-28T17:49:07Z</time>
  <course>0.0</course>
  <speed>0.0</speed>
  <fix>3d</fix>
</trkpt>
<trkpt lat="40.0713749" lon="-105.229789">
  <ele>1583.0</ele>
  <time>2026-08-28T17:49:07Z</time>
  <course>247.8</course>
  <speed>0.0316227766016838</speed>
  <fix>3d</fix>
</trkpt>
<trkpt lat="40.0713749" lon="-105.229789">
  <ele>1583.0</ele>
  <time>2026-08-28T17:49:07Z</time>
  <course>0.0</course>
  <speed>0.0</speed>
  <fix>3d</fix>
</trkpt>
<trkpt lat="40.0713749" lon="-105.229789">
  <ele>1583.0</ele>
  <time>2026-08-28T17:49:07Z</time>
  <course>247.8</course>
  <speed>0.0316227766016838</speed>
  <fix>3d</fix>
</trkpt>
<trkpt lat="40.0713749" lon="-105.229789">
  <ele>1583.0</ele>
  <time>2026-08-28T17:49:07Z</time>
  <course>0.0</course>
  <speed>0.0</speed>
  <fix>3d</fix>
</trkpt>
<trkpt lat="40.0713749" lon="-105.229789">
  <ele>1583.0</ele>
  <time>2026-08-28T17:49:07Z</time>
  <course>247.8</course>
  <speed>0.0316227766016838</speed>
  <fix>3d</fix>
</trkpt>
<trkpt lat="40.0713749" lon="-105.229789">
  <ele>1583.0</ele>
  <time>2026-08-28T17:49:07Z</time>
  <course>0.0</course>
  <speed>0.0</speed>
  <fix>3d</fix>
</trkpt>
<trkpt lat="40.0713749" lon="-105.229789">
  <ele>1583.0</ele>
  <time>2026-08-28T17:49:07Z</time>
  <course>247.79</course>
  <speed>0.0316227766016838</speed>
  <fix>3d</fix>
</trkpt>
<trkpt lat="40.0713749" lon="-105.229789">
  <ele>1583.0</ele>
  <time>2026-08-28T17:49:07Z</time>
  <course>0.0</course>
  <speed>0.0</speed>
  <fix>3d</fix>
</trkpt>
<trkpt lat="40.0713749" lon="-105.229789">
  <ele>1583.0</ele>
  <time>2026-08-28T17:49:07Z</time>
  <course>247.79</course>
  <speed>0.0316227766016838</speed>
  <fix>3d</fix>
</trkpt>
<trkpt lat="40.0713749" lon="-105.229789">
  <ele>1583.0</ele>
  <time>2026-08-28T17:49:07Z</time>
  <course>0.0</course>
  <speed>0.0</speed>
  <fix>3d</fix>
</trkpt>
<trkpt lat="40.0713749" lon="-105.229789">
  <ele>1583.0</ele>
  <time>2026-08-28T17:49:07Z</time>
  <course>247.79</course>
  <speed>0.0316227766016838</speed>
  <fix>3d</fix>
</trkpt>
<trkpt lat="40.0713749" lon="-105.229789">
  <ele>1583.0</ele>
  <time>2026-08-28T17:49:07Z</time>
  <course>0.0</course>
  <speed>0.0</speed>
  <fix>3d</fix>
</trkpt>
<trkpt lat="40.0713749" lon="-105.229789">
  <ele>1583.0</ele>
  <time>2026-08-28T17:49:07Z</time>
  <course>247.78</course>
  <speed>0.0316227766016838</speed>
  <fix>3d</fix>
</trkpt>
<trkpt lat="40.0713749" lon="-105.229789">
  <ele>1583.0</ele>
  <time>2026-08-28T17:49:07Z</time>
  <course>0.0</course>
  <speed>0.0</speed>
  <fix>3d</fix>
</trkpt>
<trkpt lat="40.0713749" lon="-105.229789">
  <ele>1583.0</ele>
  <time>2026-08-28T17:49:07Z</time>
  <course>247.78</course>
  <speed>0.0316227766016838</speed>
  <fix>3d</fix>
</trkpt>
<trkpt lat="40.0713749" lon="-105.229789">
  <ele>1583.0</ele>
  <time>2026-08-28T17:49:07Z</time>
  <course>0.0</course>
  <speed>0.0</speed>
  <fix>3d</fix>
</trkpt>
<trkpt lat="40.0713749" lon="-105.229789">
  <ele>1583.0</ele>
  <time>2026-08-28T17:49:07Z</time>
  <course>247.78</course>
  <speed>0.0316227766016838</speed>
  <fix>3d</fix>
</trkpt>
<trkpt lat="40.0713749" lon="-105.229789">
  <ele>1583.0</ele>
  <time>2026-08-28T17:49:07Z</time>
  <course>0.0</course>
  <speed>0.0</speed>
  <fix>3d</fix>
</trkpt>
<trkpt lat="40.0713749" lon="-105.229789">
  <ele>1583.0</ele>
  <time>2026-08-28T17:49:07Z</time>
  <course>247.77</course>
  <speed>0.0316227766016838</speed>
  <fix>3d</fix>
</trkpt>
<trkpt lat="40.0713749" lon="-105.229789">
  <ele>1583.0</ele>
  <time>2026-08-28T17:49:07Z</time>
  <course>0.0</course>
  <speed>0.0</speed>
  <fix>3d</fix>
</trkpt>
<trkpt lat="40.0713749" lon="-105.229789">
  <ele>1583.0</ele>
  <time>2026-08-28T17:49:07Z</time>
  <course>247.77</course>
  <speed>0.0316227766016838</speed>
  <fix>3d</fix>
</trkpt>
<trkpt lat="40.0713749" lon="-105.229789">
  <ele>1583.0</ele>
  <time>2026-08-28T17:49:07Z</time>
  <course>0.0</course>
  <speed>0.0</speed>
  <fix>3d</fix>
</trkpt>
<trkpt lat="40.0713749" lon="-105.229789">
  <ele>1583.0</ele>
  <time>2026-08-28T17:49:07Z</time>
  <course>247.76</course>
  <speed>0.0316227766016838</speed>
  <fix>3d</fix>
</trkpt>
<trkpt lat="40.0713749" lon="-105.229789">
  <ele>1583.0</ele>
  <time>2026-08-28T17:49:07Z</time>
  <course>0.0</course>
  <speed>0.0</speed>
  <fix>3d</fix>
</trkpt>
<trkpt lat="40.0713749" lon="-105.229789">
  <ele>1583.0</ele>
  <time>2026-08-28T17:49:07Z</time>
  <course>247.76</course>
  <speed>0.0316227766016838</speed>
  <fix>3d</fix>
</trkpt>
<trkpt lat="40.0713749" lon="-105.229789">
  <ele>1583.0</ele>
  <time>2026-08-28T17:49:07Z</time>
  <course>0.0</course>
  <speed>0.0</speed>
  <fix>3d</fix>
</trkpt>
<trkpt lat="40.0713749" lon="-105.229789">
  <ele>1583.0</ele>
  <time>2026-08-28T17:49:07Z</time>
  <course>247.76</course>
  <speed>0.0316227766016838</speed>
  <fix>3d</fix>
</trkpt>
<trkpt lat="40.0713749" lon="-105.229789">
  <ele>1583.0</ele>
  <time>2026-08-28T17:49:07Z</time>
  <course>0.0</course>
  <speed>0.0</speed>
  <fix>3d</fix>
</trkpt>
<trkpt lat="40.0713749" lon="-105.229789">
  <ele>1583.0</ele>
  <time>2026-08-28T17:49:07Z</time>
  <course>247.75</course>
  <speed>0.0316227766016838</speed>
  <fix>3d</fix>
</trkpt>
<trkpt lat="40.0713749" lon="-105.229789">
  <ele>1583.0</ele>
  <time>2026-08-28T17:49:07Z</time>
  <course>0.0</course>
  <speed>0.0</speed>
  <fix>3d</fix>
</trkpt>
<trkpt lat="40.0713749" lon="-105.229789">
  <ele>1583.0</ele>
  <time>2026-08-28T17:49:07Z</time>
  <course>247.75</course>
  <speed>0.0316227766016838</speed>
  <fix>3d</fix>
</trkpt>
<trkpt lat="40.0713749" lon="-105.229789">
  <ele>1583.0</ele>
  <time>2026-08-28T17:49:07Z</time>
  <course>0.0</course>
  <speed>0.0</speed>
  <fix>3d</fix>
</trkpt>
<trkpt lat="40.0713749" lon="-105.229789">
  <ele>1583.0</ele>
  <time>2026-08-28T17:49:07Z</time>
  <course>247.75</course>
  <speed>0.0316227766016838</speed>
  <fix>3d</fix>
</trkpt>
<trkpt lat="40.0713749" lon="-105.229789">
  <ele>1583.0</ele>
  <time>2026-08-28T17:49:07Z</time>
  <course>0.0</course>
  <speed>0.0</speed>
  <fix>3d</fix>
</trkpt>
<trkpt lat="40.0713749" lon="-105.229789">
  <ele>1583.0</ele>
  <time>2026-08-28T17:49:07Z</time>
  <course>247.74</course>
  <speed>0.0316227766016838</speed>
  <fix>3d</fix>
</trkpt>
<trkpt lat="40.0713749" lon="-105.229789">
  <ele>1583.0</ele>
  <time>2026-08-28T17:49:07Z</time>
  <course>0.0</course>
  <speed>0.0</speed>
  <fix>3d</fix>
</trkpt>
<trkpt lat="40.0713749" lon="-105.229789">
  <ele>1583.0</ele>
  <time>2026-08-28T17:49:07Z</time>
  <course>247.74</course>
  <speed>0.0316227766016838</speed>
  <fix>3d</fix>
</trkpt>
<trkpt lat="40.0713749" lon="-105.229789">
  <ele>1583.0</ele>
  <time>2026-08-28T17:49:08Z</time>
  <course>0.0</course>
  <speed>0.0</speed>
  <fix>3d</fix>
</trkpt>
<trkpt lat="40.0713749" lon="-105.229789">
  <ele>1583.0</ele>
  <time>2026-08-28T17:49:08Z</time>
  <course>247.74</course>
  <speed>0.0316227766016838</speed>
  <fix>3d</fix>
</trkpt>
<trkpt lat="40.0713749" lon="-105.229789">
  <ele>1583.0</ele>
  <time>2026-08-28T17:49:08Z</time>
  <course>0.0</course>
  <speed>0.0</speed>
  <fix>3d</fix>
</trkpt>
<trkpt lat="40.0713749" lon="-105.229789">
  <ele>1583.0</ele>
  <time>2026-08-28T17:49:08Z</time>
  <course>247.73</course>
  <speed>0.0316227766016838</speed>
  <fix>3d</fix>
</trkpt>
<trkpt lat="40.0713749" lon="-105.229789">
  <ele>1583.0</ele>
  <time>2026-08-28T17:49:08Z</time>
  <course>0.0</course>
  <speed>0.0</speed>
  <fix>3d</fix>
</trkpt>
<trkpt lat="40.0713749" lon="-105.229789">
  <ele>1583.0</ele>
  <time>2026-08-28T17:49:08Z</time>
  <course>247.73</course>
  <speed>0.0316227766016838</speed>
  <fix>3d</fix>
</trkpt>
<trkpt lat="40.0713749" lon="-105.229789">
  <ele>1583.0</ele>
  <time>2026-08-28T17:49:08Z</time>
  <course>0.0</course>
  <speed>0.0</speed>
  <fix>3d</fix>
</trkpt>
<trkpt lat="40.0713749" lon="-105.229789">
  <ele>1583.0</ele>
  <time>2026-08-28T17:49:08Z</time>
  <course>247.73</course>
  <speed>0.0316227766016838</speed>
  <fix>3d</fix>
</trkpt>
<trkpt lat="40.0713749" lon="-105.229789">
  <ele>1583.0</ele>
  <time>2026-08-28T17:49:08Z</time>
  <course>0.0</course>
  <speed>0.0</speed>
  <fix>3d</fix>
</trkpt>
<trkpt lat="40.0713749" lon="-105.229789">
  <ele>1583.0</ele>
  <time>2026-08-28T17:49:08Z</time>
  <course>247.72</course>
  <speed>0.0316227766016838</speed>
  <fix>3d</fix>
</trkpt>
<trkpt lat="40.0713749" lon="-105.229789">
  <ele>1583.0</ele>
  <time>2026-08-28T17:49:08Z</time>
  <course>0.0</course>
  <speed>0.0</speed>
  <fix>3d</fix>
</trkpt>
<trkpt lat="40.0713749" lon="-105.229789">
  <ele>1583.0</ele>
  <time>2026-08-28T17:49:08Z</time>
  <course>247.72</course>
  <speed>0.0316227766016838</speed>
  <fix>3d</fix>
</trkpt>
<trkpt lat="40.0713749" lon="-105.229789">
  <ele>1583.0</ele>
  <time>2026-08-28T17:49:08Z</time>
  <course>0.0</course>
  <speed>0.0</speed>
  <fix>3d</fix>
</trkpt>
<trkpt lat="40.0713749" lon="-105.229789">
  <ele>1583.0</ele>
  <time>2026-08-28T17:49:08Z</time>
  <course>247.72</course>
  <speed>0.0316227766016838</speed>
  <fix>3d</fix>
</trkpt>
<trkpt lat="40.0713749" lon="-105.229789">
  <ele>1583.0</ele>
  <time>2026-08-28T17:49:08Z</time>
  <course>0.0</course>
  <speed>0.0</speed>
  <fix>3d</fix>
</trkpt>
<trkpt lat="40.0713749" lon="-105.229789">
  <ele>1583.0</ele>
  <time>2026-08-28T17:49:08Z</time>
  <course>247.71</course>
  <speed>0.0316227766016838</speed>
  <fix>3d</fix>
</trkpt>
<trkpt lat="40.0713749" lon="-105.229789">
  <ele>1583.0</ele>
  <time>2026-08-28T17:49:08Z</time>
  <course>0.0</course>
  <speed>0.0</speed>
  <fix>3d</fix>
</trkpt>
<trkpt lat="40.0713749" lon="-105.229789">
  <ele>1583.0</ele>
  <time>2026-08-28T17:49:08Z</time>
  <course>247.71</course>
  <speed>0.0316227766016838</speed>
  <fix>3d</fix>
</trkpt>
<trkpt lat="40.0713749" lon="-105.229789">
  <ele>1583.0</ele>
  <time>2026-08-28T17:49:08Z</time>
  <course>0.0</course>
  <speed>0.0</speed>
  <fix>3d</fix>
</trkpt>
<trkpt lat="40.0713749" lon="-105.229789">
  <ele>1583.0</ele>
  <time>2026-08-28T17:49:08Z</time>
  <course>247.71</course>
  <speed>0.0316227766016838</speed>
  <fix>3d</fix>
</trkpt>
<trkpt lat="40.0713749" lon="-105.229789">
  <ele>1583.0</ele>
  <time>2026-08-28T17:49:08Z</time>
  <course>0.0</course>
  <speed>0.0</speed>
  <fix>3d</fix>
</trkpt>
<trkpt lat="40.0713749" lon="-105.229789">
  <ele>1583.0</ele>
  <time>2026-08-28T17:49:08Z</time>
  <course>247.7</course>
  <speed>0.0316227766016838</speed>
  <fix>3d</fix>
</trkpt>
<trkpt lat="40.0713749" lon="-105.229789">
  <ele>1583.0</ele>
  <time>2026-08-28T17:49:08Z</time>
  <course>0.0</course>
  <speed>0.0</speed>
  <fix>3d</fix>
</trkpt>
<trkpt lat="40.0713749" lon="-105.229789">
  <ele>1583.0</ele>
  <time>2026-08-28T17:49:08Z</time>
  <course>247.7</course>
  <speed>0.0316227766016838</speed>
  <fix>3d</fix>
</trkpt>
<trkpt lat="40.0713749" lon="-105.229789">
  <ele>1583.0</ele>
  <time>2026-08-28T17:49:08Z</time>
  <course>0.0</course>
  <speed>0.0</speed>
  <fix>3d</fix>
</trkpt>
<trkpt lat="40.0713749" lon="-105.229789">
  <ele>1583.0</ele>
  <time>2026-08-28T17:49:08Z</time>
  <course>247.7</course>
  <speed>0.0316227766016838</speed>
  <fix>3d</fix>
</trkpt>
<trkpt lat="40.0713749" lon="-105.229789">
  <ele>1583.0</ele>
  <time>2026-08-28T17:49:08Z</time>
  <course>0.0</course>
  <speed>0.0</speed>
  <fix>3d</fix>
</trkpt>
<trkpt lat="40.0713749" lon="-105.229789">
  <ele>1583.0</ele>
  <time>2026-08-28T17:49:08Z</time>
  <course>247.69</course>
  <speed>0.0316227766016838</speed>
  <fix>3d</fix>
</trkpt>
<trkpt lat="40.0713749" lon="-105.229789">
  <ele>1583.0</ele>
  <time>2026-08-28T17:49:08Z</time>
  <course>0.0</course>
  <speed>0.0</speed>
  <fix>3d</fix>
</trkpt>
<trkpt lat="40.0713749" lon="-105.229789">
  <ele>1583.0</ele>
  <time>2026-08-28T17:49:08Z</time>
  <course>247.69</course>
  <speed>0.0316227766016838</speed>
  <fix>3d</fix>
</trkpt>
<trkpt lat="40.0713749" lon="-105.229789">
  <ele>1583.0</ele>
  <time>2026-08-28T17:49:08Z</time>
  <course>0.0</course>
  <speed>0.0</speed>
  <fix>3d</fix>
</trkpt>
<trkpt lat="40.0713749" lon="-105.229789">
  <ele>1583.0</ele>
  <time>2026-08-28T17:49:08Z</time>
  <course>247.69</course>
  <speed>0.0316227766016838</speed>
  <fix>3d</fix>
</trkpt>
<trkpt lat="40.0713749" lon="-105.229789">
  <ele>1583.0</ele>
  <time>2026-08-28T17:49:08Z</time>
  <course>0.0</course>
  <speed>0.0</speed>
  <fix>3d</fix>
</trkpt>
<trkpt lat="40.0713749" lon="-105.229789">
  <ele>1583.0</ele>
  <time>2026-08-28T17:49:08Z</time>
  <course>247.68</course>
  <speed>0.0316227766016838</speed>
  <fix>3d</fix>
</trkpt>
<trkpt lat="40.0713749" lon="-105.229789">
  <ele>1583.0</ele>
  <time>2026-08-28T17:49:08Z</time>
  <course>0.0</course>
  <speed>0.0</speed>
  <fix>3d</fix>
</trkpt>
<trkpt lat="40.0713749" lon="-105.229789">
  <ele>1583.0</ele>
  <time>2026-08-28T17:49:08Z</time>
  <course>247.68</course>
  <speed>0.0316227766016838</speed>
  <fix>3d</fix>
</trkpt>
<trkpt lat="40.0713749" lon="-105.229789">
  <ele>1583.0</ele>
  <time>2026-08-28T17:49:08Z</time>
  <course>0.0</course>
  <speed>0.0</speed>
  <fix>3d</fix>
</trkpt>
<trkpt lat="40.0713749" lon="-105.229789">
  <ele>1583.0</ele>
  <time>2026-08-28T17:49:08Z</time>
  <course>247.68</course>
  <speed>0.0316227766016838</speed>
  <fix>3d</fix>
</trkpt>
<trkpt lat="40.0713749" lon="-105.229789">
  <ele>1583.0</ele>
  <time>2026-08-28T17:49:08Z</time>
  <course>0.0</course>
  <speed>0.0</speed>
  <fix>3d</fix>
</trkpt>
<trkpt lat="40.0713749" lon="-105.229789">
  <ele>1583.0</ele>
  <time>2026-08-28T17:49:08Z</time>
  <course>247.67</course>
  <speed>0.0316227766016838</speed>
  <fix>3d</fix>
</trkpt>
<trkpt lat="40.0713749" lon="-105.229789">
  <ele>1583.0</ele>
  <time>2026-08-28T17:49:08Z</time>
  <course>0.0</course>
  <speed>0.0</speed>
  <fix>3d</fix>
</trkpt>
<trkpt lat="40.0713749" lon="-105.229789">
  <ele>1583.0</ele>
  <time>2026-08-28T17:49:08Z</time>
  <course>247.67</course>
  <speed>0.0316227766016838</speed>
  <fix>3d</fix>
</trkpt>
<trkpt lat="40.0713749" lon="-105.229789">
  <ele>1583.0</ele>
  <time>2026-08-28T17:49:08Z</time>
  <course>0.0</course>
  <speed>0.0</speed>
  <fix>3d</fix>
</trkpt>
<trkpt lat="40.0713749" lon="-105.229789">
  <ele>1583.0</ele>
  <time>2026-08-28T17:49:08Z</time>
  <course>247.67</course>
  <speed>0.0316227766016838</speed>
  <fix>3d</fix>
</trkpt>
<trkpt lat="40.0713749" lon="-105.229789">
  <ele>1583.0</ele>
  <time>2026-08-28T17:49:08Z</time>
  <course>0.0</course>
  <speed>0.0</speed>
  <fix>3d</fix>
</trkpt>
<trkpt lat="40.0713749" lon="-105.229789">
  <ele>1583.0</ele>
  <time>2026-08-28T17:49:08Z</time>
  <course>247.66</course>
  <speed>0.0316227766016838</speed>
  <fix>3d</fix>
</trkpt>
<trkpt lat="40.0713749" lon="-105.229789">
  <ele>1583.0</ele>
  <time>2026-08-28T17:49:08Z</time>
  <course>0.0</course>
  <speed>0.0</speed>
  <fix>3d</fix>
</trkpt>
<trkpt lat="40.0713749" lon="-105.229789">
  <ele>1583.0</ele>
  <time>2026-08-28T17:49:08Z</time>
  <course>247.66</course>
  <speed>0.0316227766016838</speed>
  <fix>3d</fix>
</trkpt>
<trkpt lat="40.0713749" lon="-105.229789">
  <ele>1583.0</ele>
  <time>2026-08-28T17:49:08Z</time>
  <course>0.0</course>
  <speed>0.0</speed>
  <fix>3d</fix>
</trkpt>
<trkpt lat="40.0713749" lon="-105.229789">
  <ele>1583.0</ele>
  <time>2026-08-28T17:49:08Z</time>
  <course>247.66</course>
  <speed>0.0316227766016838</speed>
  <fix>3d</fix>
</trkpt>
<trkpt lat="40.0713749" lon="-105.229789">
  <ele>1583.0</ele>
  <time>2026-08-28T17:49:08Z</time>
  <course>0.0</course>
  <speed>0.0</speed>
  <fix>3d</fix>
</trkpt>
<trkpt lat="40.0713749" lon="-105.229789">
  <ele>1583.0</ele>
  <time>2026-08-28T17:49:08Z</time>
  <course>247.65</course>
  <speed>0.0316227766016838</speed>
  <fix>3d</fix>
</trkpt>
<trkpt lat="40.0713749" lon="-105.229789">
  <ele>1583.0</ele>
  <time>2026-08-28T17:49:08Z</time>
  <course>0.0</course>
  <speed>0.0</speed>
  <fix>3d</fix>
</trkpt>
<trkpt lat="40.0713749" lon="-105.229789">
  <ele>1583.0</ele>
  <time>2026-08-28T17:49:08Z</time>
  <course>247.65</course>
  <speed>0.0316227766016838</speed>
  <fix>3d</fix>
</trkpt>
<trkpt lat="40.0713749" lon="-105.229789">
  <ele>1583.0</ele>
  <time>2026-08-28T17:49:08Z</time>
  <course>0.0</course>
  <speed>0.0</speed>
  <fix>3d</fix>
</trkpt>
<trkpt lat="40.0713749" lon="-105.229789">
  <ele>1583.0</ele>
  <time>2026-08-28T17:49:08Z</time>
  <course>247.65</course>
  <speed>0.0316227766016838</speed>
  <fix>3d</fix>
</trkpt>
<trkpt lat="40.0713749" lon="-105.229789">
  <ele>1583.0</ele>
  <time>2026-08-28T17:49:08Z</time>
  <course>0.0</course>
  <speed>0.0</speed>
  <fix>3d</fix>
</trkpt>
<trkpt lat="40.0713749" lon="-105.229789">
  <ele>1583.0</ele>
  <time>2026-08-28T17:49:08Z</time>
  <course>247.64</course>
  <speed>0.0316227766016838</speed>
  <fix>3d</fix>
</trkpt>
<trkpt lat="40.0713749" lon="-105.229789">
  <ele>1583.0</ele>
  <time>2026-08-28T17:49:08Z</time>
  <course>0.0</course>
  <speed>0.0</speed>
  <fix>3d</fix>
</trkpt>
<trkpt lat="40.0713749" lon="-105.229789">
  <ele>1583.0</ele>
  <time>2026-08-28T17:49:08Z</time>
  <course>247.64</course>
  <speed>0.0316227766016838</speed>
  <fix>3d</fix>
</trkpt>
<trkpt lat="40.0713749" lon="-105.229789">
  <ele>1583.0</ele>
  <time>2026-08-28T17:49:08Z</time>
  <course>0.0</course>
  <speed>0.0</speed>
  <fix>3d</fix>
</trkpt>
<trkpt lat="40.0713749" lon="-105.229789">
  <ele>1583.0</ele>
  <time>2026-08-28T17:49:08Z</time>
  <course>247.64</course>
  <speed>0.0316227766016838</speed>
  <fix>3d</fix>
</trkpt>
<trkpt lat="40.0713749" lon="-105.229789">
  <ele>1583.0</ele>
  <time>2026-08-28T17:49:08Z</time>
  <course>0.0</course>
  <speed>0.0</speed>
  <fix>3d</fix>
</trkpt>
<trkpt lat="40.0713749" lon="-105.229789">
  <ele>1583.0</ele>
  <time>2026-08-28T17:49:08Z</time>
  <course>247.64</course>
  <speed>0.0316227766016838</speed>
  <fix>3d</fix>
</trkpt>
<trkpt lat="40.0713749" lon="-105.229789">
  <ele>1583.0</ele>
  <time>2026-08-28T17:49:08Z</time>
  <course>0.0</course>
  <speed>0.0</speed>
  <fix>3d</fix>
</trkpt>
<trkpt lat="40.0713749" lon="-105.229789">
  <ele>1583.0</ele>
  <time>2026-08-28T17:49:08Z</time>
  <course>247.63</course>
  <speed>0.0316227766016838</speed>
  <fix>3d</fix>
</trkpt>
<trkpt lat="40.0713749" lon="-105.229789">
  <ele>1583.0</ele>
  <time>2026-08-28T17:49:08Z</time>
  <course>0.0</course>
  <speed>0.0</speed>
  <fix>3d</fix>
</trkpt>
<trkpt lat="40.0713749" lon="-105.229789">
  <ele>1583.0</ele>
  <time>2026-08-28T17:49:08Z</time>
  <course>247.63</course>
  <speed>0.0316227766016838</speed>
  <fix>3d</fix>
</trkpt>
<trkpt lat="40.0713749" lon="-105.229789">
  <ele>1583.0</ele>
  <time>2026-08-28T17:49:08Z</time>
  <course>0.0</course>
  <speed>0.0</speed>
  <fix>3d</fix>
</trkpt>
<trkpt lat="40.0713749" lon="-105.229789">
  <ele>1583.0</ele>
  <time>2026-08-28T17:49:08Z</time>
  <course>247.63</course>
  <speed>0.0316227766016838</speed>
  <fix>3d</fix>
</trkpt>
<trkpt lat="40.0713749" lon="-105.229789">
  <ele>1583.0</ele>
  <time>2026-08-28T17:49:08Z</time>
  <course>0.0</course>
  <speed>0.0</speed>
  <fix>3d</fix>
</trkpt>
<trkpt lat="40.0713749" lon="-105.229789">
  <ele>1583.0</ele>
  <time>2026-08-28T17:49:08Z</time>
  <course>247.62</course>
  <speed>0.0316227766016838</speed>
  <fix>3d</fix>
</trkpt>
<trkpt lat="40.0713749" lon="-105.229789">
  <ele>1583.0</ele>
  <time>2026-08-28T17:49:08Z</time>
  <course>0.0</course>
  <speed>0.0</speed>
  <fix>3d</fix>
</trkpt>
<trkpt lat="40.0713749" lon="-105.229789">
  <ele>1583.0</ele>
  <time>2026-08-28T17:49:08Z</time>
  <course>247.62</course>
  <speed>0.0316227766016838</speed>
  <fix>3d</fix>
</trkpt>
<trkpt lat="40.0713749" lon="-105.229789">
  <ele>1583.0</ele>
  <time>2026-08-28T17:49:08Z</time>
  <course>0.0</course>
  <speed>0.0</speed>
  <fix>3d</fix>
</trkpt>
<trkpt lat="40.0713749" lon="-105.229789">
  <ele>1583.0</ele>
  <time>2026-08-28T17:49:08Z</time>
  <course>247.62</course>
  <speed>0.0316227766016838</speed>
  <fix>3d</fix>
</trkpt>
<trkpt lat="40.0713749" lon="-105.229789">
  <ele>1583.0</ele>
  <time>2026-08-28T17:49:08Z</time>
  <course>0.0</course>
  <speed>0.0</speed>
  <fix>3d</fix>
</trkpt>
<trkpt lat="40.0713749" lon="-105.229789">
  <ele>1583.0</ele>
  <time>2026-08-28T17:49:08Z</time>
  <course>247.62</course>
  <speed>0.0316227766016838</speed>
  <fix>3d</fix>
</trkpt>
<trkpt lat="40.0713749" lon="-105.229789">
  <ele>1583.0</ele>
  <time>2026-08-28T17:49:08Z</time>
  <course>0.0</course>
  <speed>0.0</speed>
  <fix>3d</fix>
</trkpt>
<trkpt lat="40.0713749" lon="-105.229789">
  <ele>1583.0</ele>
  <time>2026-08-28T17:49:08Z</time>
  <course>247.61</course>
  <speed>0.0316227766016838</speed>
  <fix>3d</fix>
</trkpt>
<trkpt lat="40.0713749" lon="-105.229789">
  <ele>1583.0</ele>
  <time>2026-08-28T17:49:08Z</time>
  <course>0.0</course>
  <speed>0.0</speed>
  <fix>3d</fix>
</trkpt>
<trkpt lat="40.0713749" lon="-105.229789">
  <ele>1583.0</ele>
  <time>2026-08-28T17:49:08Z</time>
  <course>247.61</course>
  <speed>0.0316227766016838</speed>
  <fix>3d</fix>
</trkpt>
<trkpt lat="40.0713749" lon="-105.229789">
  <ele>1583.0</ele>
  <time>2026-08-28T17:49:08Z</time>
  <course>0.0</course>
  <speed>0.0</speed>
  <fix>3d</fix>
</trkpt>
<trkpt lat="40.0713749" lon="-105.229789">
  <ele>1583.0</ele>
  <time>2026-08-28T17:49:08Z</time>
  <course>247.61</course>
  <speed>0.0316227766016838</speed>
  <fix>3d</fix>
</trkpt>
<trkpt lat="40.0713749" lon="-105.229789">
  <ele>1583.0</ele>
  <time>2026-08-28T17:49:08Z</time>
  <course>0.0</course>
  <speed>0.0</speed>
  <fix>3d</fix>
</trkpt>
<trkpt lat="40.0713749" lon="-105.229789">
  <ele>1583.0</ele>
  <time>2026-08-28T17:49:08Z</time>
  <course>247.6</course>
  <speed>0.0316227766016838</speed>
  <fix>3d</fix>
</trkpt>
<trkpt lat="40.0713749" lon="-105.229789">
  <ele>1583.0</ele>
  <time>2026-08-28T17:49:08Z</time>
  <course>0.0</course>
  <speed>0.0</speed>
  <fix>3d</fix>
</trkpt>
<trkpt lat="40.0713749" lon="-105.229789">
  <ele>1583.0</ele>
  <time>2026-08-28T17:49:08Z</time>
  <course>247.6</course>
  <speed>0.0316227766016838</speed>
  <fix>3d</fix>
</trkpt>
<trkpt lat="40.0713749" lon="-105.229789">
  <ele>1583.0</ele>
  <time>2026-08-28T17:49:08Z</time>
  <course>0.0</course>
  <speed>0.0</speed>
  <fix>3d</fix>
</trkpt>
<trkpt lat="40.0713749" lon="-105.229789">
  <ele>1583.0</ele>
  <time>2026-08-28T17:49:08Z</time>
  <course>247.6</course>
  <speed>0.0316227766016838</speed>
  <fix>3d</fix>
</trkpt>
<trkpt lat="40.0713749" lon="-105.229789">
  <ele>1583.0</ele>
  <time>2026-08-28T17:49:08Z</time>
  <course>0.0</course>
  <speed>0.0</speed>
  <fix>3d</fix>
</trkpt>
<trkpt lat="40.0713749" lon="-105.229789">
  <ele>1583.0</ele>
  <time>2026-08-28T17:49:08Z</time>
  <course>247.6</course>
  <speed>0.0316227766016838</speed>
  <fix>3d</fix>
</trkpt>
<trkpt lat="40.0713749" lon="-105.229789">
  <ele>1583.0</ele>
  <time>2026-08-28T17:49:08Z</time>
  <course>0.0</course>
  <speed>0.0</speed>
  <fix>3d</fix>
</trkpt>
<trkpt lat="40.0713749" lon="-105.229789">
  <ele>1583.0</ele>
  <time>2026-08-28T17:49:08Z</time>
  <course>247.59</course>
  <speed>0.0316227766016838</speed>
  <fix>3d</fix>
</trkpt>
<trkpt lat="40.0713749" lon="-105.229789">
  <ele>1583.0</ele>
  <time>2026-08-28T17:49:08Z</time>
  <course>0.0</course>
  <speed>0.0</speed>
  <fix>3d</fix>
</trkpt>
<trkpt lat="40.0713749" lon="-105.229789">
  <ele>1582.92</ele>
  <time>2026-08-28T17:49:08Z</time>
  <course>247.59</course>
  <speed>0.0</speed>
  <fix>3d</fix>
</trkpt>
<trkpt lat="40.0713749" lon="-105.229789">
  <ele>1583.0</ele>
  <time>2026-08-28T17:49:08Z</time>
  <course>0.0</course>
  <speed>0.0</speed>
  <fix>3d</fix>
</trkpt>
<trkpt lat="40.0713749" lon="-105.229789">
  <ele>1582.92</ele>
  <time>2026-08-28T17:49:08Z</time>
  <course>247.59</course>
  <speed>0.0</speed>
  <fix>3d</fix>
</trkpt>
<trkpt lat="40.0713749" lon="-105.229789">
  <ele>1583.0</ele>
  <time>2026-08-28T17:49:08Z</time>
  <course>0.0</course>
  <speed>0.0</speed>
  <fix>3d</fix>
</trkpt>
<trkpt lat="40.0713749" lon="-105.229789">
  <ele>1582.91</ele>
  <time>2026-08-28T17:49:08Z</time>
  <course>247.58</course>
  <speed>0.0</speed>
  <fix>3d</fix>
</trkpt>
<trkpt lat="40.0713749" lon="-105.229789">
  <ele>1583.0</ele>
  <time>2026-08-28T17:49:08Z</time>
  <course>0.0</course>
  <speed>0.0</speed>
  <fix>3d</fix>
</trkpt>
<trkpt lat="40.0713749" lon="-105.229789">
  <ele>1582.91</ele>
  <time>2026-08-28T17:49:08Z</time>
  <course>247.58</course>
  <speed>0.0</speed>
  <fix>3d</fix>
</trkpt>
<trkpt lat="40.0713749" lon="-105.229789">
  <ele>1583.0</ele>
  <time>2026-08-28T17:49:08Z</time>
  <course>0.0</course>
  <speed>0.0</speed>
  <fix>3d</fix>
</trkpt>
<trkpt lat="40.0713749" lon="-105.229789">
  <ele>1582.9</ele>
  <time>2026-08-28T17:49:08Z</time>
  <course>247.58</course>
  <speed>0.0</speed>
  <fix>3d</fix>
</trkpt>
<trkpt lat="40.0713749" lon="-105.229789">
  <ele>1583.0</ele>
  <time>2026-08-28T17:49:08Z</time>
  <course>0.0</course>
  <speed>0.0</speed>
  <fix>3d</fix>
</trkpt>
<trkpt lat="40.0713749" lon="-105.229789">
  <ele>1582.9</ele>
  <time>2026-08-28T17:49:08Z</time>
  <course>247.58</course>
  <speed>0.0</speed>
  <fix>3d</fix>
</trkpt>
<trkpt lat="40.0713749" lon="-105.229789">
  <ele>1583.0</ele>
  <time>2026-08-28T17:49:08Z</time>
  <course>0.0</course>
  <speed>0.0</speed>
  <fix>3d</fix>
</trkpt>
<trkpt lat="40.0713749" lon="-105.229789">
  <ele>1582.9</ele>
  <time>2026-08-28T17:49:08Z</time>
  <course>247.57</course>
  <speed>0.0</speed>
  <fix>3d</fix>
</trkpt>
<trkpt lat="40.0713749" lon="-105.229789">
  <ele>1583.0</ele>
  <time>2026-08-28T17:49:08Z</time>
  <course>0.0</course>
  <speed>0.0</speed>
  <fix>3d</fix>
</trkpt>
<trkpt lat="40.0713749" lon="-105.229789">
  <ele>1582.9</ele>
  <time>2026-08-28T17:49:08Z</time>
  <course>247.57</course>
  <speed>0.0</speed>
  <fix>3d</fix>
</trkpt>
<trkpt lat="40.0713749" lon="-105.229789">
  <ele>1583.0</ele>
  <time>2026-08-28T17:49:08Z</time>
  <course>0.0</course>
  <speed>0.0</speed>
  <fix>3d</fix>
</trkpt>
<trkpt lat="40.0713749" lon="-105.229789">
  <ele>1582.9</ele>
  <time>2026-08-28T17:49:08Z</time>
  <course>247.57</course>
  <speed>0.0</speed>
  <fix>3d</fix>
</trkpt>
<trkpt lat="40.0713749" lon="-105.229789">
  <ele>1583.0</ele>
  <time>2026-08-28T17:49:08Z</time>
  <course>0.0</course>
  <speed>0.0</speed>
  <fix>3d</fix>
</trkpt>
<trkpt lat="40.0713749" lon="-105.229789">
  <ele>1582.9</ele>
  <time>2026-08-28T17:49:08Z</time>
  <course>247.57</course>
  <speed>0.01</speed>
  <fix>3d</fix>
</trkpt>
<trkpt lat="40.0713749" lon="-105.229789">
  <ele>1583.0</ele>
  <time>2026-08-28T17:49:08Z</time>
  <course>0.0</course>
  <speed>0.0</speed>
  <fix>3d</fix>
</trkpt>
<trkpt lat="40.0713749" lon="-105.229789">
  <ele>1582.9</ele>
  <time>2026-08-28T17:49:08Z</time>
  <course>247.56</course>
  <speed>0.01</speed>
  <fix>3d</fix>
</trkpt>
<trkpt lat="40.0713749" lon="-105.229789">
  <ele>1583.0</ele>
  <time>2026-08-28T17:49:08Z</time>
  <course>0.0</course>
  <speed>0.0</speed>
  <fix>3d</fix>
</trkpt>
<trkpt lat="40.0713749" lon="-105.229789">
  <ele>1582.91</ele>
  <time>2026-08-28T17:49:08Z</time>
  <course>247.56</course>
  <speed>0.01</speed>
  <fix>3d</fix>
</trkpt>
<trkpt lat="40.0713749" lon="-105.229789">
  <ele>1583.0</ele>
  <time>2026-08-28T17:49:08Z</time>
  <course>0.0</course>
  <speed>0.0</speed>
  <fix>3d</fix>
</trkpt>
<trkpt lat="40.0713749" lon="-105.229789">
  <ele>1582.91</ele>
  <time>2026-08-28T17:49:08Z</time>
  <course>247.56</course>
  <speed>0.01</speed>
  <fix>3d</fix>
</trkpt>
<trkpt lat="40.0713749" lon="-105.229789">
  <ele>1583.0</ele>
  <time>2026-08-28T17:49:08Z</time>
  <course>0.0</course>
  <speed>0.0</speed>
  <fix>3d</fix>
</trkpt>
<trkpt lat="40.0713749" lon="-105.229789">
  <ele>1582.92</ele>
  <time>2026-08-28T17:49:08Z</time>
  <course>247.56</course>
  <speed>0.01</speed>
  <fix>3d</fix>
</trkpt>
<trkpt lat="40.0713749" lon="-105.229789">
  <ele>1583.0</ele>
  <time>2026-08-28T17:49:08Z</time>
  <course>0.0</course>
  <speed>0.0</speed>
  <fix>3d</fix>
</trkpt>
<trkpt lat="40.0713749" lon="-105.229789">
  <ele>1582.92</ele>
  <time>2026-08-28T17:49:08Z</time>
  <course>247.55</course>
  <speed>0.01</speed>
  <fix>3d</fix>
</trkpt>
<trkpt lat="40.0713749" lon="-105.229789">
  <ele>1583.0</ele>
  <time>2026-08-28T17:49:08Z</time>
  <course>0.0</course>
  <speed>0.0</speed>
  <fix>3d</fix>
</trkpt>
<trkpt lat="40.0713749" lon="-105.229789">
  <ele>1582.92</ele>
  <time>2026-08-28T17:49:08Z</time>
  <course>247.55</course>
  <speed>0.01</speed>
  <fix>3d</fix>
</trkpt>
<trkpt lat="40.0713749" lon="-105.229789">
  <ele>1583.0</ele>
  <time>2026-08-28T17:49:08Z</time>
  <course>0.0</course>
  <speed>0.0</speed>
  <fix>3d</fix>
</trkpt>
<trkpt lat="40.0713749" lon="-105.229789">
  <ele>1582.93</ele>
  <time>2026-08-28T17:49:08Z</time>
  <course>247.55</course>
  <speed>0.01</speed>
  <fix>3d</fix>
</trkpt>
<trkpt lat="40.0713749" lon="-105.229789">
  <ele>1583.0</ele>
  <time>2026-08-28T17:49:08Z</time>
  <course>0.0</course>
  <speed>0.0</speed>
  <fix>3d</fix>
</trkpt>
<trkpt lat="40.0713749" lon="-105.229789">
  <ele>1582.93</ele>
  <time>2026-08-28T17:49:08Z</time>
  <course>247.55</course>
  <speed>0.01</speed>
  <fix>3d</fix>
</trkpt>
<trkpt lat="40.0713749" lon="-105.229789">
  <ele>1583.0</ele>
  <time>2026-08-28T17:49:08Z</time>
  <course>0.0</course>
  <speed>0.0</speed>
  <fix>3d</fix>
</trkpt>
<trkpt lat="40.0713749" lon="-105.229789">
  <ele>1582.93</ele>
  <time>2026-08-28T17:49:08Z</time>
  <course>247.54</course>
  <speed>0.02</speed>
  <fix>3d</fix>
</trkpt>
<trkpt lat="40.0713749" lon="-105.229789">
  <ele>1583.0</ele>
  <time>2026-08-28T17:49:08Z</time>
  <course>0.0</course>
  <speed>0.0</speed>
  <fix>3d</fix>
</trkpt>
<trkpt lat="40.0713749" lon="-105.229789">
  <ele>1582.93</ele>
  <time>2026-08-28T17:49:08Z</time>
  <course>247.54</course>
  <speed>0.02</speed>
  <fix>3d</fix>
</trkpt>
<trkpt lat="40.0713749" lon="-105.229789">
  <ele>1583.0</ele>
  <time>2026-08-28T17:49:08Z</time>
  <course>0.0</course>
  <speed>0.0</speed>
  <fix>3d</fix>
</trkpt>
<trkpt lat="40.0713749" lon="-105.229789">
  <ele>1582.93</ele>
  <time>2026-08-28T17:49:08Z</time>
  <course>247.54</course>
  <speed>0.02</speed>
  <fix>3d</fix>
</trkpt>
<trkpt lat="40.0713749" lon="-105.229789">
  <ele>1583.0</ele>
  <time>2026-08-28T17:49:08Z</time>
  <course>0.0</course>
  <speed>0.0</speed>
  <fix>3d</fix>
</trkpt>
<trkpt lat="40.0713749" lon="-105.229789">
  <ele>1582.93</ele>
  <time>2026-08-28T17:49:08Z</time>
  <course>247.54</course>
  <speed>0.022360679774997897</speed>
  <fix>3d</fix>
</trkpt>
<trkpt lat="40.0713749" lon="-105.229789">
  <ele>1583.0</ele>
  <time>2026-08-28T17:49:08Z</time>
  <course>0.0</course>
  <speed>0.0</speed>
  <fix>3d</fix>
</trkpt>
<trkpt lat="40.0713749" lon="-105.229789">
  <ele>1582.94</ele>
  <time>2026-08-28T17:49:08Z</time>
  <course>247.53</course>
  <speed>0.022360679774997897</speed>
  <fix>3d</fix>
</trkpt>
<trkpt lat="40.0713749" lon="-105.229789">
  <ele>1583.0</ele>
  <time>2026-08-28T17:49:08Z</time>
  <course>0.0</course>
  <speed>0.0</speed>
  <fix>3d</fix>
</trkpt>
<trkpt lat="40.0713749" lon="-105.229789">
  <ele>1582.94</ele>
  <time>2026-08-28T17:49:08Z</time>
  <course>247.53</course>
  <speed>0.022360679774997897</speed>
  <fix>3d</fix>
</trkpt>
<trkpt lat="40.0713749" lon="-105.229789">
  <ele>1583.0</ele>
  <time>2026-08-28T17:49:08Z</time>
  <course>0.0</course>
  <speed>0.0</speed>
  <fix>3d</fix>
</trkpt>
<trkpt lat="40.071375" lon="-105.229789">
  <ele>1582.94</ele>
  <time>2026-08-28T17:49:08Z</time>
  <course>247.53</course>
  <speed>0.022360679774997897</speed>
  <fix>3d</fix>
</trkpt>
<trkpt lat="40.0713749" lon="-105.229789">
  <ele>1583.0</ele>
  <time>2026-08-28T17:49:08Z</time>
  <course>0.0</course>
  <speed>0.0</speed>
  <fix>3d</fix>
</trkpt>
<trkpt lat="40.071375" lon="-105.229789">
  <ele>1582.95</ele>
  <time>2026-08-28T17:49:08Z</time>
  <course>247.53</course>
  <speed>0.022360679774997897</speed>
  <fix>3d</fix>
</trkpt>
<trkpt lat="40.0713749" lon="-105.229789">
  <ele>1583.0</ele>
  <time>2026-08-28T17:49:08Z</time>
  <course>0.0</course>
  <speed>0.0</speed>
  <fix>3d</fix>
</trkpt>
<trkpt lat="40.071375" lon="-105.229789">
  <ele>1582.95</ele>
  <time>2026-08-28T17:49:08Z</time>
  <course>247.53</course>
  <speed>0.022360679774997897</speed>
  <fix>3d</fix>
</trkpt>
<trkpt lat="40.0713749" lon="-105.229789">
  <ele>1583.0</ele>
  <time>2026-08-28T17:49:08Z</time>
  <course>0.0</course>
  <speed>0.0</speed>
  <fix>3d</fix>
</trkpt>
<trkpt lat="40.071375" lon="-105.229789">
  <ele>1582.95</ele>
  <time>2026-08-28T17:49:08Z</time>
  <course>247.52</course>
  <speed>0.022360679774997897</speed>
  <fix>3d</fix>
</trkpt>
<trkpt lat="40.0713749" lon="-105.229789">
  <ele>1583.0</ele>
  <time>2026-08-28T17:49:08Z</time>
  <course>0.0</course>
  <speed>0.0</speed>
  <fix>3d</fix>
</trkpt>
<trkpt lat="40.071375" lon="-105.229789">
  <ele>1582.95</ele>
  <time>2026-08-28T17:49:08Z</time>
  <course>247.52</course>
  <speed>0.022360679774997897</speed>
  <fix>3d</fix>
</trkpt>
<trkpt lat="40.0713749" lon="-105.229789">
  <ele>1583.0</ele>
  <time>2026-08-28T17:49:08Z</time>
  <course>0.0</course>
  <speed>0.0</speed>
  <fix>3d</fix>
</trkpt>
<trkpt lat="40.071375" lon="-105.229789">
  <ele>1582.95</ele>
  <time>2026-08-28T17:49:08Z</time>
  <course>247.52</course>
  <speed>0.022360679774997897</speed>
  <fix>3d</fix>
</trkpt>
<trkpt lat="40.0713749" lon="-105.229789">
  <ele>1583.0</ele>
  <time>2026-08-28T17:49:08Z</time>
  <course>0.0</course>
  <speed>0.0</speed>
  <fix>3d</fix>
</trkpt>
<trkpt lat="40.071375" lon="-105.229789">
  <ele>1582.95</ele>
  <time>2026-08-28T17:49:08Z</time>
  <course>247.52</course>
  <speed>0.022360679774997897</speed>
  <fix>3d</fix>
</trkpt>
<trkpt lat="40.0713749" lon="-105.229789">
  <ele>1583.0</ele>
  <time>2026-08-28T17:49:08Z</time>
  <course>0.0</course>
  <speed>0.0</speed>
  <fix>3d</fix>
</trkpt>
<trkpt lat="40.071375" lon="-105.229789">
  <ele>1582.95</ele>
  <time>2026-08-28T17:49:08Z</time>
  <course>247.51</course>
  <speed>0.0316227766016838</speed>
  <fix>3d</fix>
</trkpt>
<trkpt lat="40.0713749" lon="-105.229789">
  <ele>1583.0</ele>
  <time>2026-08-28T17:49:08Z</time>
  <course>0.0</course>
  <speed>0.0</speed>
  <fix>3d</fix>
</trkpt>
<trkpt lat="40.071375" lon="-105.229789">
  <ele>1582.95</ele>
  <time>2026-08-28T17:49:08Z</time>
  <course>247.51</course>
  <speed>0.0316227766016838</speed>
  <fix>3d</fix>
</trkpt>
<trkpt lat="40.0713749" lon="-105.229789">
  <ele>1583.0</ele>
  <time>2026-08-28T17:49:08Z</time>
  <course>0.0</course>
  <speed>0.0</speed>
  <fix>3d</fix>
</trkpt>
<trkpt lat="40.071375" lon="-105.229789">
  <ele>1582.95</ele>
  <time>2026-08-28T17:49:08Z</time>
  <course>247.51</course>
  <speed>0.0316227766016838</speed>
  <fix>3d</fix>
</trkpt>
<trkpt lat="40.0713749" lon="-105.229789">
  <ele>1583.0</ele>
  <time>2026-08-28T17:49:08Z</time>
  <course>0.0</course>
  <speed>0.0</speed>
  <fix>3d</fix>
</trkpt>
<trkpt lat="40.071375" lon="-105.2297889">
  <ele>1582.95</ele>
  <time>2026-08-28T17:49:08Z</time>
  <course>247.51</course>
  <speed>0.0316227766016838</speed>
  <fix>3d</fix>
</trkpt>
<trkpt lat="40.0713749" lon="-105.229789">
  <ele>1583.0</ele>
  <time>2026-08-28T17:49:08Z</time>
  <course>0.0</course>
  <speed>0.0</speed>
  <fix>3d</fix>
</trkpt>
<trkpt lat="40.071375" lon="-105.2297889">
  <ele>1582.95</ele>
  <time>2026-08-28T17:49:08Z</time>
  <course>247.51</course>
  <speed>0.0316227766016838</speed>
  <fix>3d</fix>
</trkpt>
<trkpt lat="40.0713749" lon="-105.229789">
  <ele>1583.0</ele>
  <time>2026-08-28T17:49:08Z</time>
  <course>0.0</course>
  <speed>0.0</speed>
  <fix>3d</fix>
</trkpt>
<trkpt lat="40.071375" lon="-105.2297889">
  <ele>1582.95</ele>
  <time>2026-08-28T17:49:08Z</time>
  <course>247.5</course>
  <speed>0.0316227766016838</speed>
  <fix>3d</fix>
</trkpt>
<trkpt lat="40.0713749" lon="-105.229789">
  <ele>1583.0</ele>
  <time>2026-08-28T17:49:08Z</time>
  <course>0.0</course>
  <speed>0.0</speed>
  <fix>3d</fix>
</trkpt>
<trkpt lat="40.071375" lon="-105.2297889">
  <ele>1582.95</ele>
  <time>2026-08-28T17:49:08Z</time>
  <course>247.5</course>
  <speed>0.0316227766016838</speed>
  <fix>3d</fix>
</trkpt>
<trkpt lat="40.0713749" lon="-105.229789">
  <ele>1583.0</ele>
  <time>2026-08-28T17:49:08Z</time>
  <course>0.0</course>
  <speed>0.0</speed>
  <fix>3d</fix>
</trkpt>
<trkpt lat="40.071375" lon="-105.2297889">
  <ele>1582.95</ele>
  <time>2026-08-28T17:49:08Z</time>
  <course>247.5</course>
  <speed>0.0316227766016838</speed>
  <fix>3d</fix>
</trkpt>
<trkpt lat="40.0713749" lon="-105.229789">
  <ele>1583.0</ele>
  <time>2026-08-28T17:49:08Z</time>
  <course>0.0</course>
  <speed>0.0</speed>
  <fix>3d</fix>
</trkpt>
<trkpt lat="40.0713751" lon="-105.2297889">
  <ele>1582.95</ele>
  <time>2026-08-28T17:49:08Z</time>
  <course>247.5</course>
  <speed>0.0316227766016838</speed>
  <fix>3d</fix>
</trkpt>
<trkpt lat="40.0713749" lon="-105.229789">
  <ele>1583.0</ele>
  <time>2026-08-28T17:49:08Z</time>
  <course>0.0</course>
  <speed>0.0</speed>
  <fix>3d</fix>
</trkpt>
<trkpt lat="40.0713751" lon="-105.2297889">
  <ele>1582.96</ele>
  <time>2026-08-28T17:49:08Z</time>
  <course>247.49</course>
  <speed>0.0316227766016838</speed>
  <fix>3d</fix>
</trkpt>
<trkpt lat="40.0713749" lon="-105.229789">
  <ele>1583.0</ele>
  <time>2026-08-28T17:49:08Z</time>
  <course>0.0</course>
  <speed>0.0</speed>
  <fix>3d</fix>
</trkpt>
<trkpt lat="40.0713751" lon="-105.2297889">
  <ele>1582.96</ele>
  <time>2026-08-28T17:49:08Z</time>
  <course>247.49</course>
  <speed>0.0316227766016838</speed>
  <fix>3d</fix>
</trkpt>
<trkpt lat="40.0713749" lon="-105.229789">
  <ele>1583.0</ele>
  <time>2026-08-28T17:49:08Z</time>
  <course>0.0</course>
  <speed>0.0</speed>
  <fix>3d</fix>
</trkpt>
<trkpt lat="40.0713751" lon="-105.2297889">
  <ele>1582.97</ele>
  <time>2026-08-28T17:49:08Z</time>
  <course>247.49</course>
  <speed>0.0316227766016838</speed>
  <fix>3d</fix>
</trkpt>
<trkpt lat="40.0713749" lon="-105.229789">
  <ele>1583.0</ele>
  <time>2026-08-28T17:49:08Z</time>
  <course>0.0</course>
  <speed>0.0</speed>
  <fix>3d</fix>
</trkpt>
<trkpt lat="40.0713751" lon="-105.2297889">
  <ele>1582.98</ele>
  <time>2026-08-28T17:49:08Z</time>
  <course>247.49</course>
  <speed>0.0316227766016838</speed>
  <fix>3d</fix>
</trkpt>
<trkpt lat="40.0713749" lon="-105.229789">
  <ele>1583.0</ele>
  <time>2026-08-28T17:49:08Z</time>
  <course>0.0</course>
  <speed>0.0</speed>
  <fix>3d</fix>
</trkpt>
<trkpt lat="40.0713751" lon="-105.2297889">
  <ele>1582.98</ele>
  <time>2026-08-28T17:49:08Z</time>
  <course>247.49</course>
  <speed>0.0316227766016838</speed>
  <fix>3d</fix>
</trkpt>
<trkpt lat="40.0713749" lon="-105.229789">
  <ele>1583.0</ele>
  <time>2026-08-28T17:49:08Z</time>
  <course>0.0</course>
  <speed>0.0</speed>
  <fix>3d</fix>
</trkpt>
<trkpt lat="40.0713751" lon="-105.2297889">
  <ele>1582.99</ele>
  <time>2026-08-28T17:49:08Z</time>
  <course>247.48</course>
  <speed>0.0316227766016838</speed>
  <fix>3d</fix>
</trkpt>
<trkpt lat="40.0713749" lon="-105.229789">
  <ele>1583.0</ele>
  <time>2026-08-28T17:49:08Z</time>
  <course>0.0</course>
  <speed>0.0</speed>
  <fix>3d</fix>
</trkpt>
<trkpt lat="40.0713751" lon="-105.2297889">
  <ele>1583.0</ele>
  <time>2026-08-28T17:49:08Z</time>
  <course>247.48</course>
  <speed>0.022360679774997897</speed>
  <fix>3d</fix>
</trkpt>
<trkpt lat="40.0713749" lon="-105.229789">
  <ele>1583.0</ele>
  <time>2026-08-28T17:49:08Z</time>
  <course>0.0</course>
  <speed>0.0</speed>
  <fix>3d</fix>
</trkpt>
<trkpt lat="40.0713751" lon="-105.2297889">
  <ele>1583.01</ele>
  <time>2026-08-28T17:49:08Z</time>
  <course>247.48</course>
  <speed>0.022360679774997897</speed>
  <fix>3d</fix>
</trkpt>
<trkpt lat="40.0713749" lon="-105.229789">
  <ele>1583.0</ele>
  <time>2026-08-28T17:49:08Z</time>
  <course>0.0</course>
  <speed>0.0</speed>
  <fix>3d</fix>
</trkpt>
<trkpt lat="40.0713751" lon="-105.2297889">
  <ele>1583.01</ele>
  <time>2026-08-28T17:49:08Z</time>
  <course>247.48</course>
  <speed>0.022360679774997897</speed>
  <fix>3d</fix>
</trkpt>
<trkpt lat="40.0713749" lon="-105.229789">
  <ele>1583.0</ele>
  <time>2026-08-28T17:49:08Z</time>
  <course>0.0</course>
  <speed>0.0</speed>
  <fix>3d</fix>
</trkpt>
<trkpt lat="40.0713751" lon="-105.2297889">
  <ele>1583.01</ele>
  <time>2026-08-28T17:49:08Z</time>
  <course>247.47</course>
  <speed>0.022360679774997897</speed>
  <fix>3d</fix>
</trkpt>
<trkpt lat="40.0713749" lon="-105.229789">
  <ele>1583.0</ele>
  <time>2026-08-28T17:49:08Z</time>
  <course>0.0</course>
  <speed>0.0</speed>
  <fix>3d</fix>
</trkpt>
<trkpt lat="40.0713751" lon="-105.2297889">
  <ele>1583.01</ele>
  <time>2026-08-28T17:49:08Z</time>
  <course>247.47</course>
  <speed>0.022360679774997897</speed>
  <fix>3d</fix>
</trkpt>
<trkpt lat="40.0713749" lon="-105.229789">
  <ele>1583.0</ele>
  <time>2026-08-28T17:49:08Z</time>
  <course>0.0</course>
  <speed>0.0</speed>
  <fix>3d</fix>
</trkpt>
<trkpt lat="40.0713751" lon="-105.2297889">
  <ele>1583.01</ele>
  <time>2026-08-28T17:49:08Z</time>
  <course>247.47</course>
  <speed>0.022360679774997897</speed>
  <fix>3d</fix>
</trkpt>
<trkpt lat="40.0713749" lon="-105.229789">
  <ele>1583.0</ele>
  <time>2026-08-28T17:49:08Z</time>
  <course>0.0</course>
  <speed>0.0</speed>
  <fix>3d</fix>
</trkpt>
<trkpt lat="40.071375" lon="-105.2297889">
  <ele>1583.0</ele>
  <time>2026-08-28T17:49:08Z</time>
  <course>247.47</course>
  <speed>0.022360679774997897</speed>
  <fix>3d</fix>
</trkpt>
<trkpt lat="40.0713749" lon="-105.229789">
  <ele>1583.0</ele>
  <time>2026-08-28T17:49:08Z</time>
  <course>0.0</course>
  <speed>0.0</speed>
  <fix>3d</fix>
</trkpt>
<trkpt lat="40.0713751" lon="-105.2297889">
  <ele>1583.0</ele>
  <time>2026-08-28T17:49:08Z</time>
  <course>247.47</course>
  <speed>0.022360679774997897</speed>
  <fix>3d</fix>
</trkpt>
<trkpt lat="40.0713749" lon="-105.229789">
  <ele>1583.0</ele>
  <time>2026-08-28T17:49:08Z</time>
  <course>0.0</course>
  <speed>0.0</speed>
  <fix>3d</fix>
</trkpt>
<trkpt lat="40.071375" lon="-105.2297889">
  <ele>1583.0</ele>
  <time>2026-08-28T17:49:08Z</time>
  <course>247.46</course>
  <speed>0.022360679774997897</speed>
  <fix>3d</fix>
</trkpt>
<trkpt lat="40.0713749" lon="-105.229789">
  <ele>1583.0</ele>
  <time>2026-08-28T17:49:08Z</time>
  <course>0.0</course>
  <speed>0.0</speed>
  <fix>3d</fix>
</trkpt>
<trkpt lat="40.071375" lon="-105.2297889">
  <ele>1582.99</ele>
  <time>2026-08-28T17:49:08Z</time>
  <course>247.46</course>
  <speed>0.022360679774997897</speed>
  <fix>3d</fix>
</trkpt>
<trkpt lat="40.0713749" lon="-105.229789">
  <ele>1583.0</ele>
  <time>2026-08-28T17:49:08Z</time>
  <course>0.0</course>
  <speed>0.0</speed>
  <fix>3d</fix>
</trkpt>
<trkpt lat="40.071375" lon="-105.2297889">
  <ele>1582.99</ele>
  <time>2026-08-28T17:49:08Z</time>
  <course>247.46</course>
  <speed>0.022360679774997897</speed>
  <fix>3d</fix>
</trkpt>
<trkpt lat="40.0713749" lon="-105.229789">
  <ele>1583.0</ele>
  <time>2026-08-28T17:49:08Z</time>
  <course>0.0</course>
  <speed>0.0</speed>
  <fix>3d</fix>
</trkpt>
<trkpt lat="40.071375" lon="-105.2297889">
  <ele>1582.99</ele>
  <time>2026-08-28T17:49:08Z</time>
  <course>247.46</course>
  <speed>0.022360679774997897</speed>
  <fix>3d</fix>
</trkpt>
<trkpt lat="40.0713749" lon="-105.229789">
  <ele>1583.0</ele>
  <time>2026-08-28T17:49:08Z</time>
  <course>0.0</course>
  <speed>0.0</speed>
  <fix>3d</fix>
</trkpt>
<trkpt lat="40.071375" lon="-105.2297889">
  <ele>1582.99</ele>
  <time>2026-08-28T17:49:08Z</time>
  <course>247.45</course>
  <speed>0.022360679774997897</speed>
  <fix>3d</fix>
</trkpt>
<trkpt lat="40.0713749" lon="-105.229789">
  <ele>1583.0</ele>
  <time>2026-08-28T17:49:08Z</time>
  <course>0.0</course>
  <speed>0.0</speed>
  <fix>3d</fix>
</trkpt>
<trkpt lat="40.071375" lon="-105.2297889">
  <ele>1582.99</ele>
  <time>2026-08-28T17:49:08Z</time>
  <course>247.45</course>
  <speed>0.022360679774997897</speed>
  <fix>3d</fix>
</trkpt>
<trkpt lat="40.0713749" lon="-105.229789">
  <ele>1583.0</ele>
  <time>2026-08-28T17:49:08Z</time>
  <course>0.0</course>
  <speed>0.0</speed>
  <fix>3d</fix>
</trkpt>
<trkpt lat="40.071375" lon="-105.2297889">
  <ele>1582.99</ele>
  <time>2026-08-28T17:49:08Z</time>
  <course>247.45</course>
  <speed>0.022360679774997897</speed>
  <fix>3d</fix>
</trkpt>
<trkpt lat="40.0713749" lon="-105.229789">
  <ele>1583.0</ele>
  <time>2026-08-28T17:49:08Z</time>
  <course>0.0</course>
  <speed>0.0</speed>
  <fix>3d</fix>
</trkpt>
<trkpt lat="40.071375" lon="-105.2297889">
  <ele>1582.99</ele>
  <time>2026-08-28T17:49:08Z</time>
  <course>247.45</course>
  <speed>0.022360679774997897</speed>
  <fix>3d</fix>
</trkpt>
<trkpt lat="40.0713749" lon="-105.229789">
  <ele>1583.0</ele>
  <time>2026-08-28T17:49:08Z</time>
  <course>0.0</course>
  <speed>0.0</speed>
  <fix>3d</fix>
</trkpt>
<trkpt lat="40.071375" lon="-105.2297889">
  <ele>1583.0</ele>
  <time>2026-08-28T17:49:08Z</time>
  <course>247.45</course>
  <speed>0.022360679774997897</speed>
  <fix>3d</fix>
</trkpt>
<trkpt lat="40.0713749" lon="-105.229789">
  <ele>1583.0</ele>
  <time>2026-08-28T17:49:08Z</time>
  <course>0.0</course>
  <speed>0.0</speed>
  <fix>3d</fix>
</trkpt>
<trkpt lat="40.071375" lon="-105.2297889">
  <ele>1583.0</ele>
  <time>2026-08-28T17:49:08Z</time>
  <course>247.44</course>
  <speed>0.022360679774997897</speed>
  <fix>3d</fix>
</trkpt>
<trkpt lat="40.0713749" lon="-105.229789">
  <ele>1583.0</ele>
  <time>2026-08-28T17:49:08Z</time>
  <course>0.0</course>
  <speed>0.0</speed>
  <fix>3d</fix>
</trkpt>
<trkpt lat="40.071375" lon="-105.229789">
  <ele>1583.0</ele>
  <time>2026-08-28T17:49:08Z</time>
  <course>247.44</course>
  <speed>0.02</speed>
  <fix>3d</fix>
</trkpt>
<trkpt lat="40.0713749" lon="-105.229789">
  <ele>1583.0</ele>
  <time>2026-08-28T17:49:08Z</time>
  <course>0.0</course>
  <speed>0.0</speed>
  <fix>3d</fix>
</trkpt>
<trkpt lat="40.071375" lon="-105.229789">
  <ele>1583.0</ele>
  <time>2026-08-28T17:49:08Z</time>
  <course>247.44</course>
  <speed>0.02</speed>
  <fix>3d</fix>
</trkpt>
<trkpt lat="40.0713749" lon="-105.229789">
  <ele>1583.0</ele>
  <time>2026-08-28T17:49:08Z</time>
  <course>0.0</course>
  <speed>0.0</speed>
  <fix>3d</fix>
</trkpt>
<trkpt lat="40.071375" lon="-105.229789">
  <ele>1583.0</ele>
  <time>2026-08-28T17:49:08Z</time>
  <course>247.44</course>
  <speed>0.02</speed>
  <fix>3d</fix>
</trkpt>
<trkpt lat="40.0713749" lon="-105.229789">
  <ele>1583.0</ele>
  <time>2026-08-28T17:49:08Z</time>
  <course>0.0</course>
  <speed>0.0</speed>
  <fix>3d</fix>
</trkpt>
<trkpt lat="40.071375" lon="-105.229789">
  <ele>1583.01</ele>
  <time>2026-08-28T17:49:08Z</time>
  <course>247.43</course>
  <speed>0.02</speed>
  <fix>3d</fix>
</trkpt>
<trkpt lat="40.0713749" lon="-105.229789">
  <ele>1583.0</ele>
  <time>2026-08-28T17:49:08Z</time>
  <course>0.0</course>
  <speed>0.0</speed>
  <fix>3d</fix>
</trkpt>
<trkpt lat="40.071375" lon="-105.229789">
  <ele>1583.01</ele>
  <time>2026-08-28T17:49:08Z</time>
  <course>247.43</course>
  <speed>0.02</speed>
  <fix>3d</fix>
</trkpt>
<trkpt lat="40.0713749" lon="-105.229789">
  <ele>1583.0</ele>
  <time>2026-08-28T17:49:08Z</time>
  <course>0.0</course>
  <speed>0.0</speed>
  <fix>3d</fix>
</trkpt>
<trkpt lat="40.071375" lon="-105.229789">
  <ele>1583.01</ele>
  <time>2026-08-28T17:49:08Z</time>
  <course>247.43</course>
  <speed>0.02</speed>
  <fix>3d</fix>
</trkpt>
<trkpt lat="40.0713749" lon="-105.229789">
  <ele>1583.0</ele>
  <time>2026-08-28T17:49:08Z</time>
  <course>0.0</course>
  <speed>0.0</speed>
  <fix>3d</fix>
</trkpt>
<trkpt lat="40.071375" lon="-105.229789">
  <ele>1583.01</ele>
  <time>2026-08-28T17:49:08Z</time>
  <course>247.43</course>
  <speed>0.02</speed>
  <fix>3d</fix>
</trkpt>
<trkpt lat="40.0713749" lon="-105.229789">
  <ele>1583.0</ele>
  <time>2026-08-28T17:49:08Z</time>
  <course>0.0</course>
  <speed>0.0</speed>
  <fix>3d</fix>
</trkpt>
<trkpt lat="40.071375" lon="-105.229789">
  <ele>1583.01</ele>
  <time>2026-08-28T17:49:08Z</time>
  <course>247.43</course>
  <speed>0.02</speed>
  <fix>3d</fix>
</trkpt>
<trkpt lat="40.0713749" lon="-105.229789">
  <ele>1583.0</ele>
  <time>2026-08-28T17:49:08Z</time>
  <course>0.0</course>
  <speed>0.0</speed>
  <fix>3d</fix>
</trkpt>
<trkpt lat="40.071375" lon="-105.229789">
  <ele>1583.01</ele>
  <time>2026-08-28T17:49:08Z</time>
  <course>247.42</course>
  <speed>0.02</speed>
  <fix>3d</fix>
</trkpt>
<trkpt lat="40.0713749" lon="-105.229789">
  <ele>1583.0</ele>
  <time>2026-08-28T17:49:08Z</time>
  <course>0.0</course>
  <speed>0.0</speed>
  <fix>3d</fix>
</trkpt>
<trkpt lat="40.071375" lon="-105.229789">
  <ele>1583.01</ele>
  <time>2026-08-28T17:49:08Z</time>
  <course>247.42</course>
  <speed>0.02</speed>
  <fix>3d</fix>
</trkpt>
<trkpt lat="40.0713749" lon="-105.229789">
  <ele>1583.0</ele>
  <time>2026-08-28T17:49:08Z</time>
  <course>0.0</course>
  <speed>0.0</speed>
  <fix>3d</fix>
</trkpt>
<trkpt lat="40.071375" lon="-105.229789">
  <ele>1583.02</ele>
  <time>2026-08-28T17:49:08Z</time>
  <course>247.42</course>
  <speed>0.02</speed>
  <fix>3d</fix>
</trkpt>
<trkpt lat="40.0713749" lon="-105.229789">
  <ele>1583.0</ele>
  <time>2026-08-28T17:49:08Z</time>
  <course>0.0</course>
  <speed>0.0</speed>
  <fix>3d</fix>
</trkpt>
<trkpt lat="40.071375" lon="-105.229789">
  <ele>1583.01</ele>
  <time>2026-08-28T17:49:08Z</time>
  <course>247.42</course>
  <speed>0.02</speed>
  <fix>3d</fix>
</trkpt>
<trkpt lat="40.0713749" lon="-105.229789">
  <ele>1583.0</ele>
  <time>2026-08-28T17:49:08Z</time>
  <course>0.0</course>
  <speed>0.0</speed>
  <fix>3d</fix>
</trkpt>
<trkpt lat="40.071375" lon="-105.229789">
  <ele>1583.01</ele>
  <time>2026-08-28T17:49:08Z</time>
  <course>247.42</course>
  <speed>0.02</speed>
  <fix>3d</fix>
</trkpt>
<trkpt lat="40.0713749" lon="-105.229789">
  <ele>1583.0</ele>
  <time>2026-08-28T17:49:08Z</time>
  <course>0.0</course>
  <speed>0.0</speed>
  <fix>3d</fix>
</trkpt>
<trkpt lat="40.071375" lon="-105.229789">
  <ele>1583.01</ele>
  <time>2026-08-28T17:49:08Z</time>
  <course>247.41</course>
  <speed>0.02</speed>
  <fix>3d</fix>
</trkpt>
<trkpt lat="40.0713749" lon="-105.229789">
  <ele>1583.0</ele>
  <time>2026-08-28T17:49:08Z</time>
  <course>0.0</course>
  <speed>0.0</speed>
  <fix>3d</fix>
</trkpt>
<trkpt lat="40.071375" lon="-105.229789">
  <ele>1583.01</ele>
  <time>2026-08-28T17:49:08Z</time>
  <course>247.41</course>
  <speed>0.02</speed>
  <fix>3d</fix>
</trkpt>
<trkpt lat="40.0713749" lon="-105.229789">
  <ele>1583.0</ele>
  <time>2026-08-28T17:49:08Z</time>
  <course>0.0</course>
  <speed>0.0</speed>
  <fix>3d</fix>
</trkpt>
<trkpt lat="40.071375" lon="-105.229789">
  <ele>1583.01</ele>
  <time>2026-08-28T17:49:08Z</time>
  <course>247.41</course>
  <speed>0.02</speed>
  <fix>3d</fix>
</trkpt>
<trkpt lat="40.0713749" lon="-105.229789">
  <ele>1583.0</ele>
  <time>2026-08-28T17:49:08Z</time>
  <course>0.0</course>
  <speed>0.0</speed>
  <fix>3d</fix>
</trkpt>
<trkpt lat="40.071375" lon="-105.229789">
  <ele>1583.01</ele>
  <time>2026-08-28T17:49:08Z</time>
  <course>247.41</course>
  <speed>0.02</speed>
  <fix>3d</fix>
</trkpt>
<trkpt lat="40.0713749" lon="-105.229789">
  <ele>1583.0</ele>
  <time>2026-08-28T17:49:08Z</time>
  <course>0.0</course>
  <speed>0.0</speed>
  <fix>3d</fix>
</trkpt>
<trkpt lat="40.071375" lon="-105.229789">
  <ele>1583.02</ele>
  <time>2026-08-28T17:49:08Z</time>
  <course>247.41</course>
  <speed>0.02</speed>
  <fix>3d</fix>
</trkpt>
<trkpt lat="40.0713749" lon="-105.229789">
  <ele>1583.0</ele>
  <time>2026-08-28T17:49:08Z</time>
  <course>0.0</course>
  <speed>0.0</speed>
  <fix>3d</fix>
</trkpt>
<trkpt lat="40.071375" lon="-105.229789">
  <ele>1583.02</ele>
  <time>2026-08-28T17:49:08Z</time>
  <course>247.4</course>
  <speed>0.02</speed>
  <fix>3d</fix>
</trkpt>
<trkpt lat="40.0713749" lon="-105.229789">
  <ele>1583.0</ele>
  <time>2026-08-28T17:49:08Z</time>
  <course>0.0</course>
  <speed>0.0</speed>
  <fix>3d</fix>
</trkpt>
<trkpt lat="40.071375" lon="-105.229789">
  <ele>1583.02</ele>
  <time>2026-08-28T17:49:08Z</time>
  <course>247.4</course>
  <speed>0.02</speed>
  <fix>3d</fix>
</trkpt>
<trkpt lat="40.0713749" lon="-105.229789">
  <ele>1583.0</ele>
  <time>2026-08-28T17:49:08Z</time>
  <course>0.0</course>
  <speed>0.0</speed>
  <fix>3d</fix>
</trkpt>
<trkpt lat="40.071375" lon="-105.229789">
  <ele>1583.02</ele>
  <time>2026-08-28T17:49:08Z</time>
  <course>247.4</course>
  <speed>0.02</speed>
  <fix>3d</fix>
</trkpt>
<trkpt lat="40.0713749" lon="-105.229789">
  <ele>1583.0</ele>
  <time>2026-08-28T17:49:08Z</time>
  <course>0.0</course>
  <speed>0.0</speed>
  <fix>3d</fix>
</trkpt>
<trkpt lat="40.071375" lon="-105.229789">
  <ele>1583.02</ele>
  <time>2026-08-28T17:49:08Z</time>
  <course>247.4</course>
  <speed>0.02</speed>
  <fix>3d</fix>
</trkpt>
<trkpt lat="40.0713749" lon="-105.229789">
  <ele>1583.0</ele>
  <time>2026-08-28T17:49:08Z</time>
  <course>0.0</course>
  <speed>0.0</speed>
  <fix>3d</fix>
</trkpt>
<trkpt lat="40.071375" lon="-105.229789">
  <ele>1583.02</ele>
  <time>2026-08-28T17:49:08Z</time>
  <course>247.4</course>
  <speed>0.02</speed>
  <fix>3d</fix>
</trkpt>
<trkpt lat="40.0713749" lon="-105.229789">
  <ele>1583.0</ele>
  <time>2026-08-28T17:49:08Z</time>
  <course>0.0</course>
  <speed>0.0</speed>
  <fix>3d</fix>
</trkpt>
<trkpt lat="40.071375" lon="-105.229789">
  <ele>1583.02</ele>
  <time>2026-08-28T17:49:08Z</time>
  <course>247.39</course>
  <speed>0.02</speed>
  <fix>3d</fix>
</trkpt>
<trkpt lat="40.0713749" lon="-105.229789">
  <ele>1583.0</ele>
  <time>2026-08-28T17:49:08Z</time>
  <course>0.0</course>
  <speed>0.0</speed>
  <fix>3d</fix>
</trkpt>
<trkpt lat="40.071375" lon="-105.229789">
  <ele>1583.03</ele>
  <time>2026-08-28T17:49:08Z</time>
  <course>247.39</course>
  <speed>0.01</speed>
  <fix>3d</fix>
</trkpt>
<trkpt lat="40.0713749" lon="-105.229789">
  <ele>1583.0</ele>
  <time>2026-08-28T17:49:08Z</time>
  <course>0.0</course>
  <speed>0.0</speed>
  <fix>3d</fix>
</trkpt>
<trkpt lat="40.071375" lon="-105.229789">
  <ele>1583.03</ele>
  <time>2026-08-28T17:49:08Z</time>
  <course>247.39</course>
  <speed>0.02</speed>
  <fix>3d</fix>
</trkpt>
<trkpt lat="40.0713749" lon="-105.229789">
  <ele>1583.0</ele>
  <time>2026-08-28T17:49:08Z</time>
  <course>0.0</course>
  <speed>0.0</speed>
  <fix>3d</fix>
</trkpt>
<trkpt lat="40.071375" lon="-105.229789">
  <ele>1583.03</ele>
  <time>2026-08-28T17:49:08Z</time>
  <course>247.39</course>
  <speed>0.02</speed>
  <fix>3d</fix>
</trkpt>
<trkpt lat="40.0713749" lon="-105.229789">
  <ele>1583.0</ele>
  <time>2026-08-28T17:49:08Z</time>
  <course>0.0</course>
  <speed>0.0</speed>
  <fix>3d</fix>
</trkpt>
<trkpt lat="40.071375" lon="-105.229789">
  <ele>1583.03</ele>
  <time>2026-08-28T17:49:08Z</time>
  <course>247.39</course>
  <speed>0.02</speed>
  <fix>3d</fix>
</trkpt>
<trkpt lat="40.0713749" lon="-105.229789">
  <ele>1583.0</ele>
  <time>2026-08-28T17:49:08Z</time>
  <course>0.0</course>
  <speed>0.0</speed>
  <fix>3d</fix>
</trkpt>
<trkpt lat="40.071375" lon="-105.229789">
  <ele>1583.04</ele>
  <time>2026-08-28T17:49:08Z</time>
  <course>247.38</course>
  <speed>0.02</speed>
  <fix>3d</fix>
</trkpt>
<trkpt lat="40.0713749" lon="-105.229789">
  <ele>1583.0</ele>
  <time>2026-08-28T17:49:08Z</time>
  <course>0.0</course>
  <speed>0.0</speed>
  <fix>3d</fix>
</trkpt>
<trkpt lat="40.071375" lon="-105.229789">
  <ele>1583.04</ele>
  <time>2026-08-28T17:49:08Z</time>
  <course>247.38</course>
  <speed>0.02</speed>
  <fix>3d</fix>
</trkpt>
<trkpt lat="40.0713749" lon="-105.229789">
  <ele>1583.0</ele>
  <time>2026-08-28T17:49:08Z</time>
  <course>0.0</course>
  <speed>0.0</speed>
  <fix>3d</fix>
</trkpt>
<trkpt lat="40.071375" lon="-105.229789">
  <ele>1583.05</ele>
  <time>2026-08-28T17:49:08Z</time>
  <course>247.38</course>
  <speed>0.02</speed>
  <fix>3d</fix>
</trkpt>
<trkpt lat="40.0713749" lon="-105.229789">
  <ele>1583.0</ele>
  <time>2026-08-28T17:49:08Z</time>
  <course>0.0</course>
  <speed>0.0</speed>
  <fix>3d</fix>
</trkpt>
<trkpt lat="40.071375" lon="-105.229789">
  <ele>1583.05</ele>
  <time>2026-08-28T17:49:08Z</time>
  <course>247.38</course>
  <speed>0.02</speed>
  <fix>3d</fix>
</trkpt>
<trkpt lat="40.0713749" lon="-105.229789">
  <ele>1583.0</ele>
  <time>2026-08-28T17:49:08Z</time>
  <course>0.0</course>
  <speed>0.0</speed>
  <fix>3d</fix>
</trkpt>
<trkpt lat="40.071375" lon="-105.229789">
  <ele>1583.05</ele>
  <time>2026-08-28T17:49:08Z</time>
  <course>247.38</course>
  <speed>0.02</speed>
  <fix>3d</fix>
</trkpt>
<trkpt lat="40.0713749" lon="-105.229789">
  <ele>1583.0</ele>
  <time>2026-08-28T17:49:08Z</time>
  <course>0.0</course>
  <speed>0.0</speed>
  <fix>3d</fix>
</trkpt>
<trkpt lat="40.071375" lon="-105.229789">
  <ele>1583.05</ele>
  <time>2026-08-28T17:49:08Z</time>
  <course>247.38</course>
  <speed>0.02</speed>
  <fix>3d</fix>
</trkpt>
<trkpt lat="40.0713749" lon="-105.229789">
  <ele>1583.0</ele>
  <time>2026-08-28T17:49:08Z</time>
  <course>0.0</course>
  <speed>0.0</speed>
  <fix>3d</fix>
</trkpt>
<trkpt lat="40.071375" lon="-105.229789">
  <ele>1583.05</ele>
  <time>2026-08-28T17:49:08Z</time>
  <course>247.37</course>
  <speed>0.02</speed>
  <fix>3d</fix>
</trkpt>
<trkpt lat="40.0713749" lon="-105.229789">
  <ele>1583.0</ele>
  <time>2026-08-28T17:49:08Z</time>
  <course>0.0</course>
  <speed>0.0</speed>
  <fix>3d</fix>
</trkpt>
<trkpt lat="40.071375" lon="-105.229789">
  <ele>1583.06</ele>
  <time>2026-08-28T17:49:08Z</time>
  <course>247.37</course>
  <speed>0.02</speed>
  <fix>3d</fix>
</trkpt>
<trkpt lat="40.0713749" lon="-105.229789">
  <ele>1583.0</ele>
  <time>2026-08-28T17:49:08Z</time>
  <course>0.0</course>
  <speed>0.0</speed>
  <fix>3d</fix>
</trkpt>
<trkpt lat="40.071375" lon="-105.229789">
  <ele>1583.06</ele>
  <time>2026-08-28T17:49:08Z</time>
  <course>247.37</course>
  <speed>0.02</speed>
  <fix>3d</fix>
</trkpt>
<trkpt lat="40.0713749" lon="-105.229789">
  <ele>1583.0</ele>
  <time>2026-08-28T17:49:08Z</time>
  <course>0.0</course>
  <speed>0.0</speed>
  <fix>3d</fix>
</trkpt>
<trkpt lat="40.071375" lon="-105.229789">
  <ele>1583.06</ele>
  <time>2026-08-28T17:49:08Z</time>
  <course>247.37</course>
  <speed>0.02</speed>
  <fix>3d</fix>
</trkpt>
<trkpt lat="40.0713749" lon="-105.229789">
  <ele>1583.0</ele>
  <time>2026-08-28T17:49:08Z</time>
  <course>0.0</course>
  <speed>0.0</speed>
  <fix>3d</fix>
</trkpt>
<trkpt lat="40.071375" lon="-105.229789">
  <ele>1583.06</ele>
  <time>2026-08-28T17:49:08Z</time>
  <course>247.37</course>
  <speed>0.02</speed>
  <fix>3d</fix>
</trkpt>
<trkpt lat="40.0713749" lon="-105.229789">
  <ele>1583.0</ele>
  <time>2026-08-28T17:49:08Z</time>
  <course>0.0</course>
  <speed>0.0</speed>
  <fix>3d</fix>
</trkpt>
<trkpt lat="40.071375" lon="-105.229789">
  <ele>1583.06</ele>
  <time>2026-08-28T17:49:08Z</time>
  <course>247.37</course>
  <speed>0.02</speed>
  <fix>3d</fix>
</trkpt>
<trkpt lat="40.0713749" lon="-105.229789">
  <ele>1583.0</ele>
  <time>2026-08-28T17:49:08Z</time>
  <course>0.0</course>
  <speed>0.0</speed>
  <fix>3d</fix>
</trkpt>
<trkpt lat="40.071375" lon="-105.229789">
  <ele>1583.06</ele>
  <time>2026-08-28T17:49:08Z</time>
  <course>247.36</course>
  <speed>0.02</speed>
  <fix>3d</fix>
</trkpt>
<trkpt lat="40.0713749" lon="-105.229789">
  <ele>1583.0</ele>
  <time>2026-08-28T17:49:08Z</time>
  <course>0.0</course>
  <speed>0.0</speed>
  <fix>3d</fix>
</trkpt>
<trkpt lat="40.071375" lon="-105.229789">
  <ele>1583.06</ele>
  <time>2026-08-28T17:49:08Z</time>
  <course>247.36</course>
  <speed>0.02</speed>
  <fix>3d</fix>
</trkpt>
<trkpt lat="40.0713749" lon="-105.229789">
  <ele>1583.0</ele>
  <time>2026-08-28T17:49:08Z</time>
  <course>0.0</course>
  <speed>0.0</speed>
  <fix>3d</fix>
</trkpt>
<trkpt lat="40.071375" lon="-105.229789">
  <ele>1583.06</ele>
  <time>2026-08-28T17:49:08Z</time>
  <course>247.36</course>
  <speed>0.02</speed>
  <fix>3d</fix>
</trkpt>
<trkpt lat="40.0713749" lon="-105.229789">
  <ele>1583.0</ele>
  <time>2026-08-28T17:49:08Z</time>
  <course>0.0</course>
  <speed>0.0</speed>
  <fix>3d</fix>
</trkpt>
<trkpt lat="40.071375" lon="-105.229789">
  <ele>1583.06</ele>
  <time>2026-08-28T17:49:08Z</time>
  <course>247.36</course>
  <speed>0.02</speed>
  <fix>3d</fix>
</trkpt>
<trkpt lat="40.0713749" lon="-105.229789">
  <ele>1583.0</ele>
  <time>2026-08-28T17:49:08Z</time>
  <course>0.0</course>
  <speed>0.0</speed>
  <fix>3d</fix>
</trkpt>
<trkpt lat="40.071375" lon="-105.229789">
  <ele>1583.06</ele>
  <time>2026-08-28T17:49:08Z</time>
  <course>247.36</course>
  <speed>0.02</speed>
  <fix>3d</fix>
</trkpt>
<trkpt lat="40.0713749" lon="-105.229789">
  <ele>1583.0</ele>
  <time>2026-08-28T17:49:08Z</time>
  <course>0.0</course>
  <speed>0.0</speed>
  <fix>3d</fix>
</trkpt>
<trkpt lat="40.071375" lon="-105.229789">
  <ele>1583.05</ele>
  <time>2026-08-28T17:49:08Z</time>
  <course>247.35</course>
  <speed>0.02</speed>
  <fix>3d</fix>
</trkpt>
<trkpt lat="40.0713749" lon="-105.229789">
  <ele>1583.0</ele>
  <time>2026-08-28T17:49:08Z</time>
  <course>0.0</course>
  <speed>0.0</speed>
  <fix>3d</fix>
</trkpt>
<trkpt lat="40.071375" lon="-105.229789">
  <ele>1583.05</ele>
  <time>2026-08-28T17:49:08Z</time>
  <course>247.35</course>
  <speed>0.02</speed>
  <fix>3d</fix>
</trkpt>
<trkpt lat="40.0713749" lon="-105.229789">
  <ele>1583.0</ele>
  <time>2026-08-28T17:49:08Z</time>
  <course>0.0</course>
  <speed>0.0</speed>
  <fix>3d</fix>
</trkpt>
<trkpt lat="40.071375" lon="-105.229789">
  <ele>1583.04</ele>
  <time>2026-08-28T17:49:08Z</time>
  <course>247.35</course>
  <speed>0.02</speed>
  <fix>3d</fix>
</trkpt>
<trkpt lat="40.0713749" lon="-105.229789">
  <ele>1583.0</ele>
  <time>2026-08-28T17:49:08Z</time>
  <course>0.0</course>
  <speed>0.0</speed>
  <fix>3d</fix>
</trkpt>
<trkpt lat="40.071375" lon="-105.229789">
  <ele>1583.04</ele>
  <time>2026-08-28T17:49:08Z</time>
  <course>247.35</course>
  <speed>0.02</speed>
  <fix>3d</fix>
</trkpt>
<trkpt lat="40.0713749" lon="-105.229789">
  <ele>1583.0</ele>
  <time>2026-08-28T17:49:08Z</time>
  <course>0.0</course>
  <speed>0.0</speed>
  <fix>3d</fix>
</trkpt>
<trkpt lat="40.071375" lon="-105.229789">
  <ele>1583.04</ele>
  <time>2026-08-28T17:49:08Z</time>
  <course>247.35</course>
  <speed>0.02</speed>
  <fix>3d</fix>
</trkpt>
<trkpt lat="40.0713749" lon="-105.229789">
  <ele>1583.0</ele>
  <time>2026-08-28T17:49:08Z</time>
  <course>0.0</course>
  <speed>0.0</speed>
  <fix>3d</fix>
</trkpt>
<trkpt lat="40.071375" lon="-105.229789">
  <ele>1583.03</ele>
  <time>2026-08-28T17:49:08Z</time>
  <course>247.35</course>
  <speed>0.02</speed>
  <fix>3d</fix>
</trkpt>
<trkpt lat="40.0713749" lon="-105.229789">
  <ele>1583.0</ele>
  <time>2026-08-28T17:49:08Z</time>
  <course>0.0</course>
  <speed>0.0</speed>
  <fix>3d</fix>
</trkpt>
<trkpt lat="40.071375" lon="-105.229789">
  <ele>1583.03</ele>
  <time>2026-08-28T17:49:08Z</time>
  <course>247.34</course>
  <speed>0.02</speed>
  <fix>3d</fix>
</trkpt>
<trkpt lat="40.0713749" lon="-105.229789">
  <ele>1583.0</ele>
  <time>2026-08-28T17:49:08Z</time>
  <course>0.0</course>
  <speed>0.0</speed>
  <fix>3d</fix>
</trkpt>
<trkpt lat="40.071375" lon="-105.229789">
  <ele>1583.02</ele>
  <time>2026-08-28T17:49:08Z</time>
  <course>247.34</course>
  <speed>0.02</speed>
  <fix>3d</fix>
</trkpt>
<trkpt lat="40.0713749" lon="-105.229789">
  <ele>1583.0</ele>
  <time>2026-08-28T17:49:08Z</time>
  <course>0.0</course>
  <speed>0.0</speed>
  <fix>3d</fix>
</trkpt>
<trkpt lat="40.071375" lon="-105.229789">
  <ele>1583.02</ele>
  <time>2026-08-28T17:49:08Z</time>
  <course>247.34</course>
  <speed>0.02</speed>
  <fix>3d</fix>
</trkpt>
<trkpt lat="40.0713749" lon="-105.229789">
  <ele>1583.0</ele>
  <time>2026-08-28T17:49:08Z</time>
  <course>0.0</course>
  <speed>0.0</speed>
  <fix>3d</fix>
</trkpt>
<trkpt lat="40.071375" lon="-105.229789">
  <ele>1583.02</ele>
  <time>2026-08-28T17:49:08Z</time>
  <course>247.34</course>
  <speed>0.02</speed>
  <fix>3d</fix>
</trkpt>
<trkpt lat="40.0713749" lon="-105.229789">
  <ele>1583.0</ele>
  <time>2026-08-28T17:49:08Z</time>
  <course>0.0</course>
  <speed>0.0</speed>
  <fix>3d</fix>
</trkpt>
<trkpt lat="40.071375" lon="-105.229789">
  <ele>1583.02</ele>
  <time>2026-08-28T17:49:08Z</time>
  <course>247.34</course>
  <speed>0.02</speed>
  <fix>3d</fix>
</trkpt>
<trkpt lat="40.0713749" lon="-105.229789">
  <ele>1583.0</ele>
  <time>2026-08-28T17:49:08Z</time>
  <course>0.0</course>
  <speed>0.0</speed>
  <fix>3d</fix>
</trkpt>
<trkpt lat="40.071375" lon="-105.229789">
  <ele>1583.01</ele>
  <time>2026-08-28T17:49:08Z</time>
  <course>247.34</course>
  <speed>0.02</speed>
  <fix>3d</fix>
</trkpt>
<trkpt lat="40.0713749" lon="-105.229789">
  <ele>1583.0</ele>
  <time>2026-08-28T17:49:08Z</time>
  <course>0.0</course>
  <speed>0.0</speed>
  <fix>3d</fix>
</trkpt>
<trkpt lat="40.071375" lon="-105.229789">
  <ele>1583.01</ele>
  <time>2026-08-28T17:49:08Z</time>
  <course>247.33</course>
  <speed>0.02</speed>
  <fix>3d</fix>
</trkpt>
<trkpt lat="40.0713749" lon="-105.229789">
  <ele>1583.0</ele>
  <time>2026-08-28T17:49:08Z</time>
  <course>0.0</course>
  <speed>0.0</speed>
  <fix>3d</fix>
</trkpt>
<trkpt lat="40.071375" lon="-105.229789">
  <ele>1583.01</ele>
  <time>2026-08-28T17:49:08Z</time>
  <course>247.33</course>
  <speed>0.02</speed>
  <fix>3d</fix>
</trkpt>
<trkpt lat="40.0713749" lon="-105.229789">
  <ele>1583.0</ele>
  <time>2026-08-28T17:49:08Z</time>
  <course>0.0</course>
  <speed>0.0</speed>
  <fix>3d</fix>
</trkpt>
<trkpt lat="40.071375" lon="-105.229789">
  <ele>1583.01</ele>
  <time>2026-08-28T17:49:08Z</time>
  <course>247.33</course>
  <speed>0.02</speed>
  <fix>3d</fix>
</trkpt>
<trkpt lat="40.0713749" lon="-105.229789">
  <ele>1583.0</ele>
  <time>2026-08-28T17:49:08Z</time>
  <course>0.0</course>
  <speed>0.0</speed>
  <fix>3d</fix>
</trkpt>
<trkpt lat="40.071375" lon="-105.229789">
  <ele>1583.01</ele>
  <time>2026-08-28T17:49:08Z</time>
  <course>247.33</course>
  <speed>0.02</speed>
  <fix>3d</fix>
</trkpt>
<trkpt lat="40.0713749" lon="-105.229789">
  <ele>1583.0</ele>
  <time>2026-08-28T17:49:08Z</time>
  <course>0.0</course>
  <speed>0.0</speed>
  <fix>3d</fix>
</trkpt>
<trkpt lat="40.071375" lon="-105.229789">
  <ele>1583.01</ele>
  <time>2026-08-28T17:49:08Z</time>
  <course>247.33</course>
  <speed>0.02</speed>
  <fix>3d</fix>
</trkpt>
<trkpt lat="40.0713749" lon="-105.229789">
  <ele>1583.0</ele>
  <time>2026-08-28T17:49:08Z</time>
  <course>0.0</course>
  <speed>0.0</speed>
  <fix>3d</fix>
</trkpt>
<trkpt lat="40.071375" lon="-105.229789">
  <ele>1583.01</ele>
  <time>2026-08-28T17:49:08Z</time>
  <course>247.33</course>
  <speed>0.02</speed>
  <fix>3d</fix>
</trkpt>
<trkpt lat="40.0713749" lon="-105.229789">
  <ele>1583.0</ele>
  <time>2026-08-28T17:49:08Z</time>
  <course>0.0</course>
  <speed>0.0</speed>
  <fix>3d</fix>
</trkpt>
<trkpt lat="40.071375" lon="-105.229789">
  <ele>1583.01</ele>
  <time>2026-08-28T17:49:08Z</time>
  <course>247.33</course>
  <speed>0.02</speed>
  <fix>3d</fix>
</trkpt>
<trkpt lat="40.0713749" lon="-105.229789">
  <ele>1583.0</ele>
  <time>2026-08-28T17:49:08Z</time>
  <course>0.0</course>
  <speed>0.0</speed>
  <fix>3d</fix>
</trkpt>
<trkpt lat="40.071375" lon="-105.229789">
  <ele>1583.01</ele>
  <time>2026-08-28T17:49:08Z</time>
  <course>247.32</course>
  <speed>0.02</speed>
  <fix>3d</fix>
</trkpt>
<trkpt lat="40.0713749" lon="-105.229789">
  <ele>1583.0</ele>
  <time>2026-08-28T17:49:08Z</time>
  <course>0.0</course>
  <speed>0.0</speed>
  <fix>3d</fix>
</trkpt>
<trkpt lat="40.071375" lon="-105.229789">
  <ele>1583.0</ele>
  <time>2026-08-28T17:49:08Z</time>
  <course>247.32</course>
  <speed>0.02</speed>
  <fix>3d</fix>
</trkpt>
<trkpt lat="40.0713749" lon="-105.229789">
  <ele>1583.0</ele>
  <time>2026-08-28T17:49:08Z</time>
  <course>0.0</course>
  <speed>0.0</speed>
  <fix>3d</fix>
</trkpt>
<trkpt lat="40.071375" lon="-105.229789">
  <ele>1583.0</ele>
  <time>2026-08-28T17:49:08Z</time>
  <course>247.32</course>
  <speed>0.02</speed>
  <fix>3d</fix>
</trkpt>
<trkpt lat="40.0713749" lon="-105.229789">
  <ele>1583.0</ele>
  <time>2026-08-28T17:49:08Z</time>
  <course>0.0</course>
  <speed>0.0</speed>
  <fix>3d</fix>
</trkpt>
<trkpt lat="40.071375" lon="-105.229789">
  <ele>1583.0</ele>
  <time>2026-08-28T17:49:08Z</time>
  <course>247.32</course>
  <speed>0.02</speed>
  <fix>3d</fix>
</trkpt>
<trkpt lat="40.0713749" lon="-105.229789">
  <ele>1583.0</ele>
  <time>2026-08-28T17:49:08Z</time>
  <course>0.0</course>
  <speed>0.0</speed>
  <fix>3d</fix>
</trkpt>
<trkpt lat="40.071375" lon="-105.229789">
  <ele>1582.99</ele>
  <time>2026-08-28T17:49:08Z</time>
  <course>247.32</course>
  <speed>0.02</speed>
  <fix>3d</fix>
</trkpt>
<trkpt lat="40.0713749" lon="-105.229789">
  <ele>1583.0</ele>
  <time>2026-08-28T17:49:08Z</time>
  <course>0.0</course>
  <speed>0.0</speed>
  <fix>3d</fix>
</trkpt>
<trkpt lat="40.071375" lon="-105.229789">
  <ele>1582.99</ele>
  <time>2026-08-28T17:49:08Z</time>
  <course>247.32</course>
  <speed>0.02</speed>
  <fix>3d</fix>
</trkpt>
<trkpt lat="40.0713749" lon="-105.229789">
  <ele>1583.0</ele>
  <time>2026-08-28T17:49:08Z</time>
  <course>0.0</course>
  <speed>0.0</speed>
  <fix>3d</fix>
</trkpt>
<trkpt lat="40.071375" lon="-105.229789">
  <ele>1582.98</ele>
  <time>2026-08-28T17:49:08Z</time>
  <course>247.31</course>
  <speed>0.02</speed>
  <fix>3d</fix>
</trkpt>
<trkpt lat="40.0713749" lon="-105.229789">
  <ele>1583.0</ele>
  <time>2026-08-28T17:49:08Z</time>
  <course>0.0</course>
  <speed>0.0</speed>
  <fix>3d</fix>
</trkpt>
<trkpt lat="40.071375" lon="-105.229789">
  <ele>1582.97</ele>
  <time>2026-08-28T17:49:08Z</time>
  <course>247.31</course>
  <speed>0.02</speed>
  <fix>3d</fix>
</trkpt>
<trkpt lat="40.0713749" lon="-105.229789">
  <ele>1583.0</ele>
  <time>2026-08-28T17:49:08Z</time>
  <course>0.0</course>
  <speed>0.0</speed>
  <fix>3d</fix>
</trkpt>
<trkpt lat="40.071375" lon="-105.229789">
  <ele>1582.97</ele>
  <time>2026-08-28T17:49:08Z</time>
  <course>247.31</course>
  <speed>0.02</speed>
  <fix>3d</fix>
</trkpt>
<trkpt lat="40.0713749" lon="-105.229789">
  <ele>1583.0</ele>
  <time>2026-08-28T17:49:08Z</time>
  <course>0.0</course>
  <speed>0.0</speed>
  <fix>3d</fix>
</trkpt>
<trkpt lat="40.071375" lon="-105.229789">
  <ele>1582.96</ele>
  <time>2026-08-28T17:49:08Z</time>
  <course>247.31</course>
  <speed>0.02</speed>
  <fix>3d</fix>
</trkpt>
<trkpt lat="40.0713749" lon="-105.229789">
  <ele>1583.0</ele>
  <time>2026-08-28T17:49:08Z</time>
  <course>0.0</course>
  <speed>0.0</speed>
  <fix>3d</fix>
</trkpt>
<trkpt lat="40.071375" lon="-105.229789">
  <ele>1582.96</ele>
  <time>2026-08-28T17:49:08Z</time>
  <course>247.31</course>
  <speed>0.02</speed>
  <fix>3d</fix>
</trkpt>
<trkpt lat="40.0713749" lon="-105.229789">
  <ele>1583.0</ele>
  <time>2026-08-28T17:49:08Z</time>
  <course>0.0</course>
  <speed>0.0</speed>
  <fix>3d</fix>
</trkpt>
<trkpt lat="40.071375" lon="-105.229789">
  <ele>1582.95</ele>
  <time>2026-08-28T17:49:08Z</time>
  <course>247.31</course>
  <speed>0.02</speed>
  <fix>3d</fix>
</trkpt>
<trkpt lat="40.0713749" lon="-105.229789">
  <ele>1583.0</ele>
  <time>2026-08-28T17:49:08Z</time>
  <course>0.0</course>
  <speed>0.0</speed>
  <fix>3d</fix>
</trkpt>
<trkpt lat="40.071375" lon="-105.229789">
  <ele>1582.95</ele>
  <time>2026-08-28T17:49:08Z</time>
  <course>247.3</course>
  <speed>0.02</speed>
  <fix>3d</fix>
</trkpt>
<trkpt lat="40.0713749" lon="-105.229789">
  <ele>1583.0</ele>
  <time>2026-08-28T17:49:08Z</time>
  <course>0.0</course>
  <speed>0.0</speed>
  <fix>3d</fix>
</trkpt>
<trkpt lat="40.071375" lon="-105.229789">
  <ele>1582.94</ele>
  <time>2026-08-28T17:49:08Z</time>
  <course>247.3</course>
  <speed>0.02</speed>
  <fix>3d</fix>
</trkpt>
<trkpt lat="40.0713749" lon="-105.229789">
  <ele>1583.0</ele>
  <time>2026-08-28T17:49:08Z</time>
  <course>0.0</course>
  <speed>0.0</speed>
  <fix>3d</fix>
</trkpt>
<trkpt lat="40.071375" lon="-105.229789">
  <ele>1582.93</ele>
  <time>2026-08-28T17:49:08Z</time>
  <course>247.3</course>
  <speed>0.02</speed>
  <fix>3d</fix>
</trkpt>
<trkpt lat="40.0713749" lon="-105.229789">
  <ele>1583.0</ele>
  <time>2026-08-28T17:49:08Z</time>
  <course>0.0</course>
  <speed>0.0</speed>
  <fix>3d</fix>
</trkpt>
<trkpt lat="40.071375" lon="-105.229789">
  <ele>1582.93</ele>
  <time>2026-08-28T17:49:08Z</time>
  <course>247.3</course>
  <speed>0.02</speed>
  <fix>3d</fix>
</trkpt>
<trkpt lat="40.0713749" lon="-105.229789">
  <ele>1583.0</ele>
  <time>2026-08-28T17:49:08Z</time>
  <course>0.0</course>
  <speed>0.0</speed>
  <fix>3d</fix>
</trkpt>
<trkpt lat="40.071375" lon="-105.229789">
  <ele>1582.92</ele>
  <time>2026-08-28T17:49:08Z</time>
  <course>247.3</course>
  <speed>0.02</speed>
  <fix>3d</fix>
</trkpt>
<trkpt lat="40.0713749" lon="-105.229789">
  <ele>1583.0</ele>
  <time>2026-08-28T17:49:08Z</time>
  <course>0.0</course>
  <speed>0.0</speed>
  <fix>3d</fix>
</trkpt>
<trkpt lat="40.071375" lon="-105.229789">
  <ele>1582.92</ele>
  <time>2026-08-28T17:49:08Z</time>
  <course>247.3</course>
  <speed>0.02</speed>
  <fix>3d</fix>
</trkpt>
<trkpt lat="40.0713749" lon="-105.229789">
  <ele>1583.0</ele>
  <time>2026-08-28T17:49:08Z</time>
  <course>0.0</course>
  <speed>0.0</speed>
  <fix>3d</fix>
</trkpt>
<trkpt lat="40.071375" lon="-105.229789">
  <ele>1582.91</ele>
  <time>2026-08-28T17:49:08Z</time>
  <course>247.3</course>
  <speed>0.02</speed>
  <fix>3d</fix>
</trkpt>
<trkpt lat="40.0713749" lon="-105.229789">
  <ele>1583.0</ele>
  <time>2026-08-28T17:49:08Z</time>
  <course>0.0</course>
  <speed>0.0</speed>
  <fix>3d</fix>
</trkpt>
<trkpt lat="40.071375" lon="-105.229789">
  <ele>1582.91</ele>
  <time>2026-08-28T17:49:08Z</time>
  <course>247.3</course>
  <speed>0.02</speed>
  <fix>3d</fix>
</trkpt>
<trkpt lat="40.0713749" lon="-105.229789">
  <ele>1583.0</ele>
  <time>2026-08-28T17:49:08Z</time>
  <course>0.0</course>
  <speed>0.0</speed>
  <fix>3d</fix>
</trkpt>
<trkpt lat="40.071375" lon="-105.229789">
  <ele>1582.91</ele>
  <time>2026-08-28T17:49:08Z</time>
  <course>247.29</course>
  <speed>0.02</speed>
  <fix>3d</fix>
</trkpt>
<trkpt lat="40.0713749" lon="-105.229789">
  <ele>1583.0</ele>
  <time>2026-08-28T17:49:08Z</time>
  <course>0.0</course>
  <speed>0.0</speed>
  <fix>3d</fix>
</trkpt>
<trkpt lat="40.071375" lon="-105.229789">
  <ele>1582.91</ele>
  <time>2026-08-28T17:49:08Z</time>
  <course>247.29</course>
  <speed>0.02</speed>
  <fix>3d</fix>
</trkpt>
<trkpt lat="40.0713749" lon="-105.229789">
  <ele>1583.0</ele>
  <time>2026-08-28T17:49:08Z</time>
  <course>0.0</course>
  <speed>0.0</speed>
  <fix>3d</fix>
</trkpt>
<trkpt lat="40.071375" lon="-105.229789">
  <ele>1582.91</ele>
  <time>2026-08-28T17:49:08Z</time>
  <course>247.29</course>
  <speed>0.02</speed>
  <fix>3d</fix>
</trkpt>
<trkpt lat="40.0713749" lon="-105.229789">
  <ele>1583.0</ele>
  <time>2026-08-28T17:49:08Z</time>
  <course>0.0</course>
  <speed>0.0</speed>
  <fix>3d</fix>
</trkpt>
<trkpt lat="40.071375" lon="-105.229789">
  <ele>1582.91</ele>
  <time>2026-08-28T17:49:08Z</time>
  <course>247.29</course>
  <speed>0.02</speed>
  <fix>3d</fix>
</trkpt>
<trkpt lat="40.0713749" lon="-105.229789">
  <ele>1583.0</ele>
  <time>2026-08-28T17:49:08Z</time>
  <course>0.0</course>
  <speed>0.0</speed>
  <fix>3d</fix>
</trkpt>
<trkpt lat="40.071375" lon="-105.229789">
  <ele>1582.9</ele>
  <time>2026-08-28T17:49:08Z</time>
  <course>247.29</course>
  <speed>0.02</speed>
  <fix>3d</fix>
</trkpt>
<trkpt lat="40.0713749" lon="-105.229789">
  <ele>1583.0</ele>
  <time>2026-08-28T17:49:08Z</time>
  <course>0.0</course>
  <speed>0.0</speed>
  <fix>3d</fix>
</trkpt>
<trkpt lat="40.071375" lon="-105.229789">
  <ele>1582.9</ele>
  <time>2026-08-28T17:49:08Z</time>
  <course>247.29</course>
  <speed>0.02</speed>
  <fix>3d</fix>
</trkpt>
<trkpt lat="40.0713749" lon="-105.229789">
  <ele>1583.0</ele>
  <time>2026-08-28T17:49:08Z</time>
  <course>0.0</course>
  <speed>0.0</speed>
  <fix>3d</fix>
</trkpt>
<trkpt lat="40.071375" lon="-105.229789">
  <ele>1582.9</ele>
  <time>2026-08-28T17:49:08Z</time>
  <course>247.29</course>
  <speed>0.02</speed>
  <fix>3d</fix>
</trkpt>
<trkpt lat="40.0713749" lon="-105.229789">
  <ele>1583.0</ele>
  <time>2026-08-28T17:49:08Z</time>
  <course>0.0</course>
  <speed>0.0</speed>
  <fix>3d</fix>
</trkpt>
<trkpt lat="40.071375" lon="-105.229789">
  <ele>1582.9</ele>
  <time>2026-08-28T17:49:08Z</time>
  <course>247.28</course>
  <speed>0.02</speed>
  <fix>3d</fix>
</trkpt>
<trkpt lat="40.0713749" lon="-105.229789">
  <ele>1583.0</ele>
  <time>2026-08-28T17:49:08Z</time>
  <course>0.0</course>
  <speed>0.0</speed>
  <fix>3d</fix>
</trkpt>
<trkpt lat="40.071375" lon="-105.229789">
  <ele>1582.89</ele>
  <time>2026-08-28T17:49:08Z</time>
  <course>247.28</course>
  <speed>0.02</speed>
  <fix>3d</fix>
</trkpt>
<trkpt lat="40.0713749" lon="-105.229789">
  <ele>1583.0</ele>
  <time>2026-08-28T17:49:08Z</time>
  <course>0.0</course>
  <speed>0.0</speed>
  <fix>3d</fix>
</trkpt>
<trkpt lat="40.071375" lon="-105.2297889">
  <ele>1582.9</ele>
  <time>2026-08-28T17:49:08Z</time>
  <course>247.28</course>
  <speed>0.02</speed>
  <fix>3d</fix>
</trkpt>
<trkpt lat="40.0713749" lon="-105.229789">
  <ele>1583.0</ele>
  <time>2026-08-28T17:49:08Z</time>
  <course>0.0</course>
  <speed>0.0</speed>
  <fix>3d</fix>
</trkpt>
<trkpt lat="40.071375" lon="-105.229789">
  <ele>1582.9</ele>
  <time>2026-08-28T17:49:08Z</time>
  <course>247.28</course>
  <speed>0.02</speed>
  <fix>3d</fix>
</trkpt>
<trkpt lat="40.0713749" lon="-105.229789">
  <ele>1583.0</ele>
  <time>2026-08-28T17:49:08Z</time>
  <course>0.0</course>
  <speed>0.0</speed>
  <fix>3d</fix>
</trkpt>
<trkpt lat="40.071375" lon="-105.2297889">
  <ele>1582.9</ele>
  <time>2026-08-28T17:49:08Z</time>
  <course>247.28</course>
  <speed>0.02</speed>
  <fix>3d</fix>
</trkpt>
<trkpt lat="40.0713749" lon="-105.229789">
  <ele>1583.0</ele>
  <time>2026-08-28T17:49:08Z</time>
  <course>0.0</course>
  <speed>0.0</speed>
  <fix>3d</fix>
</trkpt>
<trkpt lat="40.071375" lon="-105.229789">
  <ele>1582.91</ele>
  <time>2026-08-28T17:49:08Z</time>
  <course>247.28</course>
  <speed>0.02</speed>
  <fix>3d</fix>
</trkpt>
<trkpt lat="40.0713749" lon="-105.229789">
  <ele>1583.0</ele>
  <time>2026-08-28T17:49:08Z</time>
  <course>0.0</course>
  <speed>0.0</speed>
  <fix>3d</fix>
</trkpt>
<trkpt lat="40.071375" lon="-105.2297889">
  <ele>1582.92</ele>
  <time>2026-08-28T17:49:08Z</time>
  <course>247.28</course>
  <speed>0.02</speed>
  <fix>3d</fix>
</trkpt>
<trkpt lat="40.0713749" lon="-105.229789">
  <ele>1583.0</ele>
  <time>2026-08-28T17:49:08Z</time>
  <course>0.0</course>
  <speed>0.0</speed>
  <fix>3d</fix>
</trkpt>
<trkpt lat="40.071375" lon="-105.2297889">
  <ele>1582.93</ele>
  <time>2026-08-28T17:49:08Z</time>
  <course>247.27</course>
  <speed>0.02</speed>
  <fix>3d</fix>
</trkpt>
<trkpt lat="40.0713749" lon="-105.229789">
  <ele>1583.0</ele>
  <time>2026-08-28T17:49:08Z</time>
  <course>0.0</course>
  <speed>0.0</speed>
  <fix>3d</fix>
</trkpt>
<trkpt lat="40.071375" lon="-105.2297889">
  <ele>1582.93</ele>
  <time>2026-08-28T17:49:08Z</time>
  <course>247.27</course>
  <speed>0.02</speed>
  <fix>3d</fix>
</trkpt>
<trkpt lat="40.0713749" lon="-105.229789">
  <ele>1583.0</ele>
  <time>2026-08-28T17:49:08Z</time>
  <course>0.0</course>
  <speed>0.0</speed>
  <fix>3d</fix>
</trkpt>
<trkpt lat="40.071375" lon="-105.2297889">
  <ele>1582.94</ele>
  <time>2026-08-28T17:49:08Z</time>
  <course>247.27</course>
  <speed>0.02</speed>
  <fix>3d</fix>
</trkpt>
<trkpt lat="40.0713749" lon="-105.229789">
  <ele>1583.0</ele>
  <time>2026-08-28T17:49:08Z</time>
  <course>0.0</course>
  <speed>0.0</speed>
  <fix>3d</fix>
</trkpt>
<trkpt lat="40.071375" lon="-105.2297889">
  <ele>1582.95</ele>
  <time>2026-08-28T17:49:08Z</time>
  <course>247.27</course>
  <speed>0.02</speed>
  <fix>3d</fix>
</trkpt>
<trkpt lat="40.0713749" lon="-105.229789">
  <ele>1583.0</ele>
  <time>2026-08-28T17:49:08Z</time>
  <course>0.0</course>
  <speed>0.0</speed>
  <fix>3d</fix>
</trkpt>
<trkpt lat="39.655741" lon="-104.1383097">
  <ele>1566.58</ele>
  <time>2026-08-28T17:49:11Z</time>
  <course>0.0</course>
  <speed>0.0</speed>
  <fix>3d</fix>
</trkpt>
<trkpt lat="40.0713749" lon="-105.229789">
  <ele>1583.0</ele>
  <time>2026-08-28T17:49:11Z</time>
  <course>0.0</course>
  <speed>0.0</speed>
  <fix>3d</fix>
</trkpt>
<trkpt lat="40.0713749" lon="-105.229789">
  <ele>1583.0</ele>
  <time>2026-08-28T17:49:11Z</time>
  <course>238.36</course>
  <speed>0.0</speed>
  <fix>3d</fix>
</trkpt>
<trkpt lat="40.0713749" lon="-105.229789">
  <ele>1583.0</ele>
  <time>2026-08-28T17:49:11Z</time>
  <course>0.0</course>
  <speed>0.0</speed>
  <fix>3d</fix>
</trkpt>
<trkpt lat="40.0713749" lon="-105.229789">
  <ele>1583.0</ele>
  <time>2026-08-28T17:49:11Z</time>
  <course>238.44</course>
  <speed>0.0</speed>
  <fix>3d</fix>
</trkpt>
<trkpt lat="40.0713749" lon="-105.229789">
  <ele>1583.0</ele>
  <time>2026-08-28T17:49:11Z</time>
  <course>0.0</course>
  <speed>0.0</speed>
  <fix>3d</fix>
</trkpt>
<trkpt lat="40.0713749" lon="-105.229789">
  <ele>1583.0</ele>
  <time>2026-08-28T17:49:11Z</time>
  <course>238.64</course>
  <speed>0.0</speed>
  <fix>3d</fix>
</trkpt>
<trkpt lat="40.0713749" lon="-105.229789">
  <ele>1583.0</ele>
  <time>2026-08-28T17:49:11Z</time>
  <course>0.0</course>
  <speed>0.0</speed>
  <fix>3d</fix>
</trkpt>
<trkpt lat="40.0713749" lon="-105.229789">
  <ele>1583.0</ele>
  <time>2026-08-28T17:49:11Z</time>
  <course>238.93</course>
  <speed>0.0</speed>
  <fix>3d</fix>
</trkpt>
<trkpt lat="40.0713749" lon="-105.229789">
  <ele>1583.0</ele>
  <time>2026-08-28T17:49:11Z</time>
  <course>0.0</course>
  <speed>0.0</speed>
  <fix>3d</fix>
</trkpt>
<trkpt lat="40.0713749" lon="-105.229789">
  <ele>1583.0</ele>
  <time>2026-08-28T17:49:11Z</time>
  <course>239.26</course>
  <speed>0.0</speed>
  <fix>3d</fix>
</trkpt>
<trkpt lat="40.0713749" lon="-105.229789">
  <ele>1583.0</ele>
  <time>2026-08-28T17:49:11Z</time>
  <course>0.0</course>
  <speed>0.0</speed>
  <fix>3d</fix>
</trkpt>
<trkpt lat="40.0713749" lon="-105.229789">
  <ele>1583.0</ele>
  <time>2026-08-28T17:49:11Z</time>
  <course>239.61</course>
  <speed>0.0</speed>
  <fix>3d</fix>
</trkpt>
<trkpt lat="40.0713749" lon="-105.229789">
  <ele>1583.0</ele>
  <time>2026-08-28T17:49:11Z</time>
  <course>0.0</course>
  <speed>0.0</speed>
  <fix>3d</fix>
</trkpt>
<trkpt lat="40.0713749" lon="-105.229789">
  <ele>1583.0</ele>
  <time>2026-08-28T17:49:11Z</time>
  <course>239.96</course>
  <speed>0.0</speed>
  <fix>3d</fix>
</trkpt>
<trkpt lat="40.0713749" lon="-105.229789">
  <ele>1583.0</ele>
  <time>2026-08-28T17:49:11Z</time>
  <course>0.0</course>
  <speed>0.0</speed>
  <fix>3d</fix>
</trkpt>
<trkpt lat="40.0713749" lon="-105.229789">
  <ele>1583.0</ele>
  <time>2026-08-28T17:49:11Z</time>
  <course>240.29</course>
  <speed>0.0</speed>
  <fix>3d</fix>
</trkpt>
<trkpt lat="40.0713749" lon="-105.229789">
  <ele>1583.0</ele>
  <time>2026-08-28T17:49:11Z</time>
  <course>0.0</course>
  <speed>0.0</speed>
  <fix>3d</fix>
</trkpt>
<trkpt lat="40.0713749" lon="-105.229789">
  <ele>1583.0</ele>
  <time>2026-08-28T17:49:11Z</time>
  <course>240.61</course>
  <speed>0.0</speed>
  <fix>3d</fix>
</trkpt>
<trkpt lat="40.0713749" lon="-105.229789">
  <ele>1583.0</ele>
  <time>2026-08-28T17:49:11Z</time>
  <course>0.0</course>
  <speed>0.0</speed>
  <fix>3d</fix>
</trkpt>
<trkpt lat="40.0713749" lon="-105.229789">
  <ele>1583.0</ele>
  <time>2026-08-28T17:49:11Z</time>
  <course>240.92</course>
  <speed>0.0</speed>
  <fix>3d</fix>
</trkpt>
<trkpt lat="40.0713749" lon="-105.229789">
  <ele>1583.0</ele>
  <time>2026-08-28T17:49:11Z</time>
  <course>0.0</course>
  <speed>0.0</speed>
  <fix>3d</fix>
</trkpt>
<trkpt lat="40.0713749" lon="-105.229789">
  <ele>1583.0</ele>
  <time>2026-08-28T17:49:11Z</time>
  <course>241.21</course>
  <speed>0.0</speed>
  <fix>3d</fix>
</trkpt>
<trkpt lat="40.0713749" lon="-105.229789">
  <ele>1583.0</ele>
  <time>2026-08-28T17:49:11Z</time>
  <course>0.0</course>
  <speed>0.0</speed>
  <fix>3d</fix>
</trkpt>
<trkpt lat="40.0713749" lon="-105.229789">
  <ele>1583.0</ele>
  <time>2026-08-28T17:49:11Z</time>
  <course>241.49</course>
  <speed>0.0</speed>
  <fix>3d</fix>
</trkpt>
<trkpt lat="40.0713749" lon="-105.229789">
  <ele>1583.0</ele>
  <time>2026-08-28T17:49:11Z</time>
  <course>0.0</course>
  <speed>0.0</speed>
  <fix>3d</fix>
</trkpt>
<trkpt lat="40.0713749" lon="-105.229789">
  <ele>1583.0</ele>
  <time>2026-08-28T17:49:11Z</time>
  <course>241.77</course>
  <speed>0.0</speed>
  <fix>3d</fix>
</trkpt>
<trkpt lat="40.0713749" lon="-105.229789">
  <ele>1583.0</ele>
  <time>2026-08-28T17:49:11Z</time>
  <course>0.0</course>
  <speed>0.0</speed>
  <fix>3d</fix>
</trkpt>
<trkpt lat="40.0713749" lon="-105.229789">
  <ele>1583.0</ele>
  <time>2026-08-28T17:49:11Z</time>
  <course>242.03</course>
  <speed>0.0</speed>
  <fix>3d</fix>
</trkpt>
<trkpt lat="40.0713749" lon="-105.229789">
  <ele>1583.0</ele>
  <time>2026-08-28T17:49:11Z</time>
  <course>0.0</course>
  <speed>0.0</speed>
  <fix>3d</fix>
</trkpt>
<trkpt lat="40.0713749" lon="-105.229789">
  <ele>1583.0</ele>
  <time>2026-08-28T17:49:11Z</time>
  <course>242.29</course>
  <speed>0.0</speed>
  <fix>3d</fix>
</trkpt>
<trkpt lat="40.0713749" lon="-105.229789">
  <ele>1583.0</ele>
  <time>2026-08-28T17:49:11Z</time>
  <course>0.0</course>
  <speed>0.0</speed>
  <fix>3d</fix>
</trkpt>
<trkpt lat="40.0713749" lon="-105.229789">
  <ele>1583.0</ele>
  <time>2026-08-28T17:49:11Z</time>
  <course>242.54</course>
  <speed>0.0</speed>
  <fix>3d</fix>
</trkpt>
<trkpt lat="40.0713749" lon="-105.229789">
  <ele>1583.0</ele>
  <time>2026-08-28T17:49:11Z</time>
  <course>0.0</course>
  <speed>0.0</speed>
  <fix>3d</fix>
</trkpt>
<trkpt lat="40.0713749" lon="-105.229789">
  <ele>1583.0</ele>
  <time>2026-08-28T17:49:11Z</time>
  <course>242.79</course>
  <speed>0.0</speed>
  <fix>3d</fix>
</trkpt>
<trkpt lat="40.0713749" lon="-105.229789">
  <ele>1583.0</ele>
  <time>2026-08-28T17:49:11Z</time>
  <course>0.0</course>
  <speed>0.0</speed>
  <fix>3d</fix>
</trkpt>
<trkpt lat="40.0713749" lon="-105.229789">
  <ele>1583.0</ele>
  <time>2026-08-28T17:49:11Z</time>
  <course>243.02</course>
  <speed>0.0</speed>
  <fix>3d</fix>
</trkpt>
<trkpt lat="40.0713749" lon="-105.229789">
  <ele>1583.0</ele>
  <time>2026-08-28T17:49:11Z</time>
  <course>0.0</course>
  <speed>0.0</speed>
  <fix>3d</fix>
</trkpt>
<trkpt lat="40.0713749" lon="-105.229789">
  <ele>1583.0</ele>
  <time>2026-08-28T17:49:11Z</time>
  <course>243.25</course>
  <speed>0.0</speed>
  <fix>3d</fix>
</trkpt>
<trkpt lat="40.0713749" lon="-105.229789">
  <ele>1583.0</ele>
  <time>2026-08-28T17:49:11Z</time>
  <course>0.0</course>
  <speed>0.0</speed>
  <fix>3d</fix>
</trkpt>
<trkpt lat="40.0713749" lon="-105.229789">
  <ele>1583.0</ele>
  <time>2026-08-28T17:49:11Z</time>
  <course>243.47</course>
  <speed>0.0</speed>
  <fix>3d</fix>
</trkpt>
<trkpt lat="40.0713749" lon="-105.229789">
  <ele>1583.0</ele>
  <time>2026-08-28T17:49:11Z</time>
  <course>0.0</course>
  <speed>0.0</speed>
  <fix>3d</fix>
</trkpt>
<trkpt lat="40.0713749" lon="-105.229789">
  <ele>1583.0</ele>
  <time>2026-08-28T17:49:11Z</time>
  <course>243.68</course>
  <speed>0.0</speed>
  <fix>3d</fix>
</trkpt>
<trkpt lat="40.0713749" lon="-105.229789">
  <ele>1583.0</ele>
  <time>2026-08-28T17:49:11Z</time>
  <course>0.0</course>
  <speed>0.0</speed>
  <fix>3d</fix>
</trkpt>
<trkpt lat="40.0713749" lon="-105.229789">
  <ele>1583.0</ele>
  <time>2026-08-28T17:49:11Z</time>
  <course>243.89</course>
  <speed>0.0</speed>
  <fix>3d</fix>
</trkpt>
<trkpt lat="40.0713749" lon="-105.229789">
  <ele>1583.0</ele>
  <time>2026-08-28T17:49:11Z</time>
  <course>0.0</course>
  <speed>0.0</speed>
  <fix>3d</fix>
</trkpt>
<trkpt lat="40.0713749" lon="-105.229789">
  <ele>1583.0</ele>
  <time>2026-08-28T17:49:11Z</time>
  <course>244.09</course>
  <speed>0.0</speed>
  <fix>3d</fix>
</trkpt>
<trkpt lat="40.0713749" lon="-105.229789">
  <ele>1583.0</ele>
  <time>2026-08-28T17:49:11Z</time>
  <course>0.0</course>
  <speed>0.0</speed>
  <fix>3d</fix>
</trkpt>
<trkpt lat="40.0713749" lon="-105.229789">
  <ele>1583.0</ele>
  <time>2026-08-28T17:49:11Z</time>
  <course>244.28</course>
  <speed>0.0</speed>
  <fix>3d</fix>
</trkpt>
<trkpt lat="40.0713749" lon="-105.229789">
  <ele>1583.0</ele>
  <time>2026-08-28T17:49:11Z</time>
  <course>0.0</course>
  <speed>0.0</speed>
  <fix>3d</fix>
</trkpt>
<trkpt lat="40.0713749" lon="-105.229789">
  <ele>1583.0</ele>
  <time>2026-08-28T17:49:11Z</time>
  <course>244.46</course>
  <speed>0.0</speed>
  <fix>3d</fix>
</trkpt>
<trkpt lat="40.0713749" lon="-105.229789">
  <ele>1583.0</ele>
  <time>2026-08-28T17:49:11Z</time>
  <course>0.0</course>
  <speed>0.0</speed>
  <fix>3d</fix>
</trkpt>
<trkpt lat="40.0713749" lon="-105.229789">
  <ele>1583.0</ele>
  <time>2026-08-28T17:49:11Z</time>
  <course>244.64</course>
  <speed>0.0</speed>
  <fix>3d</fix>
</trkpt>
<trkpt lat="40.0713749" lon="-105.229789">
  <ele>1583.0</ele>
  <time>2026-08-28T17:49:11Z</time>
  <course>0.0</course>
  <speed>0.0</speed>
  <fix>3d</fix>
</trkpt>
<trkpt lat="40.0713749" lon="-105.229789">
  <ele>1583.0</ele>
  <time>2026-08-28T17:49:11Z</time>
  <course>244.81</course>
  <speed>0.0</speed>
  <fix>3d</fix>
</trkpt>
<trkpt lat="40.0713749" lon="-105.229789">
  <ele>1583.0</ele>
  <time>2026-08-28T17:49:11Z</time>
  <course>0.0</course>
  <speed>0.0</speed>
  <fix>3d</fix>
</trkpt>
<trkpt lat="40.0713749" lon="-105.229789">
  <ele>1583.0</ele>
  <time>2026-08-28T17:49:11Z</time>
  <course>244.97</course>
  <speed>0.0</speed>
  <fix>3d</fix>
</trkpt>
<trkpt lat="40.0713749" lon="-105.229789">
  <ele>1583.0</ele>
  <time>2026-08-28T17:49:11Z</time>
  <course>0.0</course>
  <speed>0.0</speed>
  <fix>3d</fix>
</trkpt>
<trkpt lat="40.0713749" lon="-105.229789">
  <ele>1583.0</ele>
  <time>2026-08-28T17:49:11Z</time>
  <course>245.13</course>
  <speed>0.0</speed>
  <fix>3d</fix>
</trkpt>
<trkpt lat="40.0713749" lon="-105.229789">
  <ele>1583.0</ele>
  <time>2026-08-28T17:49:11Z</time>
  <course>0.0</course>
  <speed>0.0</speed>
  <fix>3d</fix>
</trkpt>
<trkpt lat="40.0713749" lon="-105.229789">
  <ele>1583.0</ele>
  <time>2026-08-28T17:49:11Z</time>
  <course>245.29</course>
  <speed>0.0</speed>
  <fix>3d</fix>
</trkpt>
<trkpt lat="40.0713749" lon="-105.229789">
  <ele>1583.0</ele>
  <time>2026-08-28T17:49:11Z</time>
  <course>0.0</course>
  <speed>0.0</speed>
  <fix>3d</fix>
</trkpt>
<trkpt lat="40.0713749" lon="-105.229789">
  <ele>1583.0</ele>
  <time>2026-08-28T17:49:11Z</time>
  <course>245.43</course>
  <speed>0.0</speed>
  <fix>3d</fix>
</trkpt>
<trkpt lat="40.0713749" lon="-105.229789">
  <ele>1583.0</ele>
  <time>2026-08-28T17:49:11Z</time>
  <course>0.0</course>
  <speed>0.0</speed>
  <fix>3d</fix>
</trkpt>
<trkpt lat="40.0713749" lon="-105.229789">
  <ele>1583.0</ele>
  <time>2026-08-28T17:49:11Z</time>
  <course>245.57</course>
  <speed>0.0</speed>
  <fix>3d</fix>
</trkpt>
<trkpt lat="40.0713749" lon="-105.229789">
  <ele>1583.0</ele>
  <time>2026-08-28T17:49:11Z</time>
  <course>0.0</course>
  <speed>0.0</speed>
  <fix>3d</fix>
</trkpt>
<trkpt lat="40.0713749" lon="-105.229789">
  <ele>1583.0</ele>
  <time>2026-08-28T17:49:11Z</time>
  <course>245.71</course>
  <speed>0.0</speed>
  <fix>3d</fix>
</trkpt>
<trkpt lat="40.0713749" lon="-105.229789">
  <ele>1583.0</ele>
  <time>2026-08-28T17:49:11Z</time>
  <course>0.0</course>
  <speed>0.0</speed>
  <fix>3d</fix>
</trkpt>
<trkpt lat="40.0713749" lon="-105.229789">
  <ele>1583.0</ele>
  <time>2026-08-28T17:49:11Z</time>
  <course>245.84</course>
  <speed>0.0</speed>
  <fix>3d</fix>
</trkpt>
<trkpt lat="40.0713749" lon="-105.229789">
  <ele>1583.0</ele>
  <time>2026-08-28T17:49:11Z</time>
  <course>0.0</course>
  <speed>0.0</speed>
  <fix>3d</fix>
</trkpt>
<trkpt lat="40.0713749" lon="-105.229789">
  <ele>1583.0</ele>
  <time>2026-08-28T17:49:11Z</time>
  <course>245.96</course>
  <speed>0.0</speed>
  <fix>3d</fix>
</trkpt>
<trkpt lat="40.0713749" lon="-105.229789">
  <ele>1583.0</ele>
  <time>2026-08-28T17:49:11Z</time>
  <course>0.0</course>
  <speed>0.0</speed>
  <fix>3d</fix>
</trkpt>
<trkpt lat="40.0713749" lon="-105.229789">
  <ele>1583.0</ele>
  <time>2026-08-28T17:49:11Z</time>
  <course>246.08</course>
  <speed>0.0</speed>
  <fix>3d</fix>
</trkpt>
<trkpt lat="40.0713749" lon="-105.229789">
  <ele>1583.0</ele>
  <time>2026-08-28T17:49:11Z</time>
  <course>0.0</course>
  <speed>0.0</speed>
  <fix>3d</fix>
</trkpt>
<trkpt lat="40.0713749" lon="-105.229789">
  <ele>1583.0</ele>
  <time>2026-08-28T17:49:11Z</time>
  <course>246.19</course>
  <speed>0.0</speed>
  <fix>3d</fix>
</trkpt>
<trkpt lat="40.0713749" lon="-105.229789">
  <ele>1583.0</ele>
  <time>2026-08-28T17:49:11Z</time>
  <course>0.0</course>
  <speed>0.0</speed>
  <fix>3d</fix>
</trkpt>
<trkpt lat="40.0713749" lon="-105.229789">
  <ele>1583.0</ele>
  <time>2026-08-28T17:49:11Z</time>
  <course>246.3</course>
  <speed>0.0</speed>
  <fix>3d</fix>
</trkpt>
<trkpt lat="40.0713749" lon="-105.229789">
  <ele>1583.0</ele>
  <time>2026-08-28T17:49:11Z</time>
  <course>0.0</course>
  <speed>0.0</speed>
  <fix>3d</fix>
</trkpt>
<trkpt lat="40.0713749" lon="-105.229789">
  <ele>1583.0</ele>
  <time>2026-08-28T17:49:11Z</time>
  <course>246.41</course>
  <speed>0.0</speed>
  <fix>3d</fix>
</trkpt>
<trkpt lat="40.0713749" lon="-105.229789">
  <ele>1583.0</ele>
  <time>2026-08-28T17:49:11Z</time>
  <course>0.0</course>
  <speed>0.0</speed>
  <fix>3d</fix>
</trkpt>
<trkpt lat="40.0713749" lon="-105.229789">
  <ele>1583.0</ele>
  <time>2026-08-28T17:49:11Z</time>
  <course>246.51</course>
  <speed>0.0</speed>
  <fix>3d</fix>
</trkpt>
<trkpt lat="40.0713749" lon="-105.229789">
  <ele>1583.0</ele>
  <time>2026-08-28T17:49:11Z</time>
  <course>0.0</course>
  <speed>0.0</speed>
  <fix>3d</fix>
</trkpt>
<trkpt lat="40.0713749" lon="-105.229789">
  <ele>1583.0</ele>
  <time>2026-08-28T17:49:11Z</time>
  <course>246.6</course>
  <speed>0.0</speed>
  <fix>3d</fix>
</trkpt>
<trkpt lat="40.0713749" lon="-105.229789">
  <ele>1583.0</ele>
  <time>2026-08-28T17:49:11Z</time>
  <course>0.0</course>
  <speed>0.0</speed>
  <fix>3d</fix>
</trkpt>
<trkpt lat="40.0713749" lon="-105.229789">
  <ele>1583.0</ele>
  <time>2026-08-28T17:49:11Z</time>
  <course>246.7</course>
  <speed>0.0</speed>
  <fix>3d</fix>
</trkpt>
<trkpt lat="40.0713749" lon="-105.229789">
  <ele>1583.0</ele>
  <time>2026-08-28T17:49:11Z</time>
  <course>0.0</course>
  <speed>0.0</speed>
  <fix>3d</fix>
</trkpt>
<trkpt lat="40.0713749" lon="-105.229789">
  <ele>1583.0</ele>
  <time>2026-08-28T17:49:11Z</time>
  <course>246.78</course>
  <speed>0.0</speed>
  <fix>3d</fix>
</trkpt>
<trkpt lat="40.0713749" lon="-105.229789">
  <ele>1583.0</ele>
  <time>2026-08-28T17:49:11Z</time>
  <course>0.0</course>
  <speed>0.0</speed>
  <fix>3d</fix>
</trkpt>
<trkpt lat="40.0713749" lon="-105.229789">
  <ele>1583.0</ele>
  <time>2026-08-28T17:49:11Z</time>
  <course>246.87</course>
  <speed>0.0</speed>
  <fix>3d</fix>
</trkpt>
<trkpt lat="40.0713749" lon="-105.229789">
  <ele>1583.0</ele>
  <time>2026-08-28T17:49:11Z</time>
  <course>0.0</course>
  <speed>0.0</speed>
  <fix>3d</fix>
</trkpt>
<trkpt lat="40.0713749" lon="-105.229789">
  <ele>1583.0</ele>
  <time>2026-08-28T17:49:11Z</time>
  <course>246.95</course>
  <speed>0.0</speed>
  <fix>3d</fix>
</trkpt>
<trkpt lat="40.0713749" lon="-105.229789">
  <ele>1583.0</ele>
  <time>2026-08-28T17:49:11Z</time>
  <course>0.0</course>
  <speed>0.0</speed>
  <fix>3d</fix>
</trkpt>
<trkpt lat="40.0713749" lon="-105.229789">
  <ele>1583.0</ele>
  <time>2026-08-28T17:49:11Z</time>
  <course>247.02</course>
  <speed>0.0</speed>
  <fix>3d</fix>
</trkpt>
<trkpt lat="40.0713749" lon="-105.229789">
  <ele>1583.0</ele>
  <time>2026-08-28T17:49:11Z</time>
  <course>0.0</course>
  <speed>0.0</speed>
  <fix>3d</fix>
</trkpt>
<trkpt lat="40.0713749" lon="-105.229789">
  <ele>1583.0</ele>
  <time>2026-08-28T17:49:11Z</time>
  <course>247.1</course>
  <speed>0.0</speed>
  <fix>3d</fix>
</trkpt>
<trkpt lat="40.0713749" lon="-105.229789">
  <ele>1583.0</ele>
  <time>2026-08-28T17:49:11Z</time>
  <course>0.0</course>
  <speed>0.0</speed>
  <fix>3d</fix>
</trkpt>
<trkpt lat="40.0713749" lon="-105.229789">
  <ele>1583.0</ele>
  <time>2026-08-28T17:49:11Z</time>
  <course>247.17</course>
  <speed>0.0</speed>
  <fix>3d</fix>
</trkpt>
<trkpt lat="40.0713749" lon="-105.229789">
  <ele>1583.0</ele>
  <time>2026-08-28T17:49:11Z</time>
  <course>0.0</course>
  <speed>0.0</speed>
  <fix>3d</fix>
</trkpt>
<trkpt lat="40.0713749" lon="-105.229789">
  <ele>1583.0</ele>
  <time>2026-08-28T17:49:11Z</time>
  <course>247.24</course>
  <speed>0.0</speed>
  <fix>3d</fix>
</trkpt>
<trkpt lat="40.0713749" lon="-105.229789">
  <ele>1583.0</ele>
  <time>2026-08-28T17:49:11Z</time>
  <course>0.0</course>
  <speed>0.0</speed>
  <fix>3d</fix>
</trkpt>
<trkpt lat="40.0713749" lon="-105.229789">
  <ele>1583.0</ele>
  <time>2026-08-28T17:49:11Z</time>
  <course>247.3</course>
  <speed>0.0</speed>
  <fix>3d</fix>
</trkpt>
<trkpt lat="40.0713749" lon="-105.229789">
  <ele>1583.0</ele>
  <time>2026-08-28T17:49:11Z</time>
  <course>0.0</course>
  <speed>0.0</speed>
  <fix>3d</fix>
</trkpt>
<trkpt lat="40.0713749" lon="-105.229789">
  <ele>1583.0</ele>
  <time>2026-08-28T17:49:11Z</time>
  <course>247.36</course>
  <speed>0.0</speed>
  <fix>3d</fix>
</trkpt>
<trkpt lat="40.0713749" lon="-105.229789">
  <ele>1583.0</ele>
  <time>2026-08-28T17:49:11Z</time>
  <course>0.0</course>
  <speed>0.0</speed>
  <fix>3d</fix>
</trkpt>
<trkpt lat="40.0713749" lon="-105.229789">
  <ele>1583.0</ele>
  <time>2026-08-28T17:49:11Z</time>
  <course>247.42</course>
  <speed>0.0</speed>
  <fix>3d</fix>
</trkpt>
<trkpt lat="40.0713749" lon="-105.229789">
  <ele>1583.0</ele>
  <time>2026-08-28T17:49:11Z</time>
  <course>0.0</course>
  <speed>0.0</speed>
  <fix>3d</fix>
</trkpt>
<trkpt lat="40.0713749" lon="-105.229789">
  <ele>1583.0</ele>
  <time>2026-08-28T17:49:11Z</time>
  <course>247.47</course>
  <speed>0.0</speed>
  <fix>3d</fix>
</trkpt>
<trkpt lat="40.0713749" lon="-105.229789">
  <ele>1583.0</ele>
  <time>2026-08-28T17:49:11Z</time>
  <course>0.0</course>
  <speed>0.0</speed>
  <fix>3d</fix>
</trkpt>
<trkpt lat="40.0713749" lon="-105.229789">
  <ele>1583.0</ele>
  <time>2026-08-28T17:49:11Z</time>
  <course>247.53</course>
  <speed>0.0</speed>
  <fix>3d</fix>
</trkpt>
<trkpt lat="40.0713749" lon="-105.229789">
  <ele>1583.0</ele>
  <time>2026-08-28T17:49:11Z</time>
  <course>0.0</course>
  <speed>0.0</speed>
  <fix>3d</fix>
</trkpt>
<trkpt lat="40.0713749" lon="-105.229789">
  <ele>1583.0</ele>
  <time>2026-08-28T17:49:11Z</time>
  <course>247.58</course>
  <speed>0.0</speed>
  <fix>3d</fix>
</trkpt>
<trkpt lat="40.0713749" lon="-105.229789">
  <ele>1583.0</ele>
  <time>2026-08-28T17:49:11Z</time>
  <course>0.0</course>
  <speed>0.0</speed>
  <fix>3d</fix>
</trkpt>
<trkpt lat="40.0713749" lon="-105.229789">
  <ele>1583.0</ele>
  <time>2026-08-28T17:49:11Z</time>
  <course>247.63</course>
  <speed>0.0</speed>
  <fix>3d</fix>
</trkpt>
<trkpt lat="40.0713749" lon="-105.229789">
  <ele>1583.0</ele>
  <time>2026-08-28T17:49:11Z</time>
  <course>0.0</course>
  <speed>0.0</speed>
  <fix>3d</fix>
</trkpt>
<trkpt lat="40.0713749" lon="-105.229789">
  <ele>1583.0</ele>
  <time>2026-08-28T17:49:11Z</time>
  <course>247.67</course>
  <speed>0.0</speed>
  <fix>3d</fix>
</trkpt>
<trkpt lat="40.0713749" lon="-105.229789">
  <ele>1583.0</ele>
  <time>2026-08-28T17:49:11Z</time>
  <course>0.0</course>
  <speed>0.0</speed>
  <fix>3d</fix>
</trkpt>
<trkpt lat="40.0713749" lon="-105.229789">
  <ele>1583.0</ele>
  <time>2026-08-28T17:49:11Z</time>
  <course>247.72</course>
  <speed>0.0</speed>
  <fix>3d</fix>
</trkpt>
<trkpt lat="40.0713749" lon="-105.229789">
  <ele>1583.0</ele>
  <time>2026-08-28T17:49:11Z</time>
  <course>0.0</course>
  <speed>0.0</speed>
  <fix>3d</fix>
</trkpt>
<trkpt lat="40.0713749" lon="-105.229789">
  <ele>1583.0</ele>
  <time>2026-08-28T17:49:11Z</time>
  <course>247.76</course>
  <speed>0.0</speed>
  <fix>3d</fix>
</trkpt>
<trkpt lat="40.0713749" lon="-105.229789">
  <ele>1583.0</ele>
  <time>2026-08-28T17:49:11Z</time>
  <course>0.0</course>
  <speed>0.0</speed>
  <fix>3d</fix>
</trkpt>
<trkpt lat="40.0713749" lon="-105.229789">
  <ele>1583.0</ele>
  <time>2026-08-28T17:49:11Z</time>
  <course>247.8</course>
  <speed>0.0</speed>
  <fix>3d</fix>
</trkpt>
<trkpt lat="40.0713749" lon="-105.229789">
  <ele>1583.0</ele>
  <time>2026-08-28T17:49:11Z</time>
  <course>0.0</course>
  <speed>0.0</speed>
  <fix>3d</fix>
</trkpt>
<trkpt lat="40.0713749" lon="-105.229789">
  <ele>1583.0</ele>
  <time>2026-08-28T17:49:11Z</time>
  <course>247.83</course>
  <speed>0.0</speed>
  <fix>3d</fix>
</trkpt>
<trkpt lat="40.0713749" lon="-105.229789">
  <ele>1583.0</ele>
  <time>2026-08-28T17:49:11Z</time>
  <course>0.0</course>
  <speed>0.0</speed>
  <fix>3d</fix>
</trkpt>
<trkpt lat="40.0713749" lon="-105.229789">
  <ele>1583.0</ele>
  <time>2026-08-28T17:49:11Z</time>
  <course>247.87</course>
  <speed>0.0</speed>
  <fix>3d</fix>
</trkpt>
<trkpt lat="40.0713749" lon="-105.229789">
  <ele>1583.0</ele>
  <time>2026-08-28T17:49:11Z</time>
  <course>0.0</course>
  <speed>0.0</speed>
  <fix>3d</fix>
</trkpt>
<trkpt lat="40.0713749" lon="-105.229789">
  <ele>1583.0</ele>
  <time>2026-08-28T17:49:11Z</time>
  <course>247.9</course>
  <speed>0.0</speed>
  <fix>3d</fix>
</trkpt>
<trkpt lat="40.0713749" lon="-105.229789">
  <ele>1583.0</ele>
  <time>2026-08-28T17:49:11Z</time>
  <course>0.0</course>
  <speed>0.0</speed>
  <fix>3d</fix>
</trkpt>
<trkpt lat="40.0713749" lon="-105.229789">
  <ele>1583.0</ele>
  <time>2026-08-28T17:49:11Z</time>
  <course>247.94</course>
  <speed>0.0</speed>
  <fix>3d</fix>
</trkpt>
<trkpt lat="40.0713749" lon="-105.229789">
  <ele>1583.0</ele>
  <time>2026-08-28T17:49:11Z</time>
  <course>0.0</course>
  <speed>0.0</speed>
  <fix>3d</fix>
</trkpt>
<trkpt lat="40.0713749" lon="-105.229789">
  <ele>1583.0</ele>
  <time>2026-08-28T17:49:11Z</time>
  <course>247.97</course>
  <speed>0.0</speed>
  <fix>3d</fix>
</trkpt>
<trkpt lat="40.0713749" lon="-105.229789">
  <ele>1583.0</ele>
  <time>2026-08-28T17:49:11Z</time>
  <course>0.0</course>
  <speed>0.0</speed>
  <fix>3d</fix>
</trkpt>
<trkpt lat="40.0713749" lon="-105.229789">
  <ele>1583.0</ele>
  <time>2026-08-28T17:49:11Z</time>
  <course>248.0</course>
  <speed>0.0</speed>
  <fix>3d</fix>
</trkpt>
<trkpt lat="40.0713749" lon="-105.229789">
  <ele>1583.0</ele>
  <time>2026-08-28T17:49:11Z</time>
  <course>0.0</course>
  <speed>0.0</speed>
  <fix>3d</fix>
</trkpt>
<trkpt lat="40.0713749" lon="-105.229789">
  <ele>1583.0</ele>
  <time>2026-08-28T17:49:11Z</time>
  <course>248.02</course>
  <speed>0.0</speed>
  <fix>3d</fix>
</trkpt>
<trkpt lat="40.0713749" lon="-105.229789">
  <ele>1583.0</ele>
  <time>2026-08-28T17:49:11Z</time>
  <course>0.0</course>
  <speed>0.0</speed>
  <fix>3d</fix>
</trkpt>
<trkpt lat="40.0713749" lon="-105.229789">
  <ele>1583.0</ele>
  <time>2026-08-28T17:49:11Z</time>
  <course>248.05</course>
  <speed>0.0</speed>
  <fix>3d</fix>
</trkpt>
<trkpt lat="40.0713749" lon="-105.229789">
  <ele>1583.0</ele>
  <time>2026-08-28T17:49:11Z</time>
  <course>0.0</course>
  <speed>0.0</speed>
  <fix>3d</fix>
</trkpt>
<trkpt lat="40.0713749" lon="-105.229789">
  <ele>1583.0</ele>
  <time>2026-08-28T17:49:11Z</time>
  <course>248.08</course>
  <speed>0.0</speed>
  <fix>3d</fix>
</trkpt>
<trkpt lat="40.0713749" lon="-105.229789">
  <ele>1583.0</ele>
  <time>2026-08-28T17:49:11Z</time>
  <course>0.0</course>
  <speed>0.0</speed>
  <fix>3d</fix>
</trkpt>
<trkpt lat="40.0713749" lon="-105.229789">
  <ele>1583.0</ele>
  <time>2026-08-28T17:49:11Z</time>
  <course>248.1</course>
  <speed>0.0</speed>
  <fix>3d</fix>
</trkpt>
<trkpt lat="40.0713749" lon="-105.229789">
  <ele>1583.0</ele>
  <time>2026-08-28T17:49:11Z</time>
  <course>0.0</course>
  <speed>0.0</speed>
  <fix>3d</fix>
</trkpt>
<trkpt lat="40.0713749" lon="-105.229789">
  <ele>1583.0</ele>
  <time>2026-08-28T17:49:11Z</time>
  <course>248.12</course>
  <speed>0.0</speed>
  <fix>3d</fix>
</trkpt>
<trkpt lat="40.0713749" lon="-105.229789">
  <ele>1583.0</ele>
  <time>2026-08-28T17:49:11Z</time>
  <course>0.0</course>
  <speed>0.0</speed>
  <fix>3d</fix>
</trkpt>
<trkpt lat="40.0713749" lon="-105.229789">
  <ele>1583.0</ele>
  <time>2026-08-28T17:49:11Z</time>
  <course>248.14</course>
  <speed>0.0</speed>
  <fix>3d</fix>
</trkpt>
<trkpt lat="40.0713749" lon="-105.229789">
  <ele>1583.0</ele>
  <time>2026-08-28T17:49:11Z</time>
  <course>0.0</course>
  <speed>0.0</speed>
  <fix>3d</fix>
</trkpt>
<trkpt lat="40.0713749" lon="-105.229789">
  <ele>1583.0</ele>
  <time>2026-08-28T17:49:11Z</time>
  <course>248.16</course>
  <speed>0.0</speed>
  <fix>3d</fix>
</trkpt>
<trkpt lat="40.0713749" lon="-105.229789">
  <ele>1583.0</ele>
  <time>2026-08-28T17:49:11Z</time>
  <course>0.0</course>
  <speed>0.0</speed>
  <fix>3d</fix>
</trkpt>
<trkpt lat="40.0713749" lon="-105.229789">
  <ele>1583.0</ele>
  <time>2026-08-28T17:49:11Z</time>
  <course>248.18</course>
  <speed>0.0</speed>
  <fix>3d</fix>
</trkpt>
<trkpt lat="40.0713749" lon="-105.229789">
  <ele>1583.0</ele>
  <time>2026-08-28T17:49:11Z</time>
  <course>0.0</course>
  <speed>0.0</speed>
  <fix>3d</fix>
</trkpt>
<trkpt lat="40.0713749" lon="-105.229789">
  <ele>1583.0</ele>
  <time>2026-08-28T17:49:11Z</time>
  <course>248.2</course>
  <speed>0.0</speed>
  <fix>3d</fix>
</trkpt>
<trkpt lat="40.0713749" lon="-105.229789">
  <ele>1583.0</ele>
  <time>2026-08-28T17:49:11Z</time>
  <course>0.0</course>
  <speed>0.0</speed>
  <fix>3d</fix>
</trkpt>
<trkpt lat="40.0713749" lon="-105.229789">
  <ele>1583.0</ele>
  <time>2026-08-28T17:49:11Z</time>
  <course>248.22</course>
  <speed>0.0</speed>
  <fix>3d</fix>
</trkpt>
<trkpt lat="40.0713749" lon="-105.229789">
  <ele>1583.0</ele>
  <time>2026-08-28T17:49:11Z</time>
  <course>0.0</course>
  <speed>0.0</speed>
  <fix>3d</fix>
</trkpt>
<trkpt lat="40.0713749" lon="-105.229789">
  <ele>1583.0</ele>
  <time>2026-08-28T17:49:11Z</time>
  <course>248.23</course>
  <speed>0.0</speed>
  <fix>3d</fix>
</trkpt>
<trkpt lat="40.0713749" lon="-105.229789">
  <ele>1583.0</ele>
  <time>2026-08-28T17:49:11Z</time>
  <course>0.0</course>
  <speed>0.0</speed>
  <fix>3d</fix>
</trkpt>
<trkpt lat="40.0713749" lon="-105.229789">
  <ele>1583.0</ele>
  <time>2026-08-28T17:49:11Z</time>
  <course>248.25</course>
  <speed>0.0</speed>
  <fix>3d</fix>
</trkpt>
<trkpt lat="40.0713749" lon="-105.229789">
  <ele>1583.0</ele>
  <time>2026-08-28T17:49:11Z</time>
  <course>0.0</course>
  <speed>0.0</speed>
  <fix>3d</fix>
</trkpt>
<trkpt lat="40.0713749" lon="-105.229789">
  <ele>1583.0</ele>
  <time>2026-08-28T17:49:11Z</time>
  <course>248.26</course>
  <speed>0.0</speed>
  <fix>3d</fix>
</trkpt>
<trkpt lat="40.0713749" lon="-105.229789">
  <ele>1583.0</ele>
  <time>2026-08-28T17:49:11Z</time>
  <course>0.0</course>
  <speed>0.0</speed>
  <fix>3d</fix>
</trkpt>
<trkpt lat="40.0713749" lon="-105.229789">
  <ele>1583.0</ele>
  <time>2026-08-28T17:49:11Z</time>
  <course>248.28</course>
  <speed>0.0</speed>
  <fix>3d</fix>
</trkpt>
<trkpt lat="40.0713749" lon="-105.229789">
  <ele>1582.68</ele>
  <time>2026-08-28T17:49:11Z</time>
  <course>248.29</course>
  <speed>0.0</speed>
  <fix>3d</fix>
</trkpt>
<trkpt lat="40.0713749" lon="-105.229789">
  <ele>1582.72</ele>
  <time>2026-08-28T17:49:11Z</time>
  <course>248.3</course>
  <speed>0.0</speed>
  <fix>3d</fix>
</trkpt>
<trkpt lat="40.0713749" lon="-105.229789">
  <ele>1582.81</ele>
  <time>2026-08-28T17:49:11Z</time>
  <course>248.31</course>
  <speed>0.0</speed>
  <fix>3d</fix>
</trkpt>
<trkpt lat="40.0713749" lon="-105.229789">
  <ele>1582.88</ele>
  <time>2026-08-28T17:49:11Z</time>
  <course>248.32</course>
  <speed>0.0</speed>
  <fix>3d</fix>
</trkpt>
<trkpt lat="40.0713749" lon="-105.229789">
  <ele>1582.85</ele>
  <time>2026-08-28T17:49:11Z</time>
  <course>248.33</course>
  <speed>0.0</speed>
  <fix>3d</fix>
</trkpt>
<trkpt lat="40.0713749" lon="-105.229789">
  <ele>1582.77</ele>
  <time>2026-08-28T17:49:11Z</time>
  <course>248.34</course>
  <speed>0.0</speed>
  <fix>3d</fix>
</trkpt>
<trkpt lat="40.0713749" lon="-105.229789">
  <ele>1583.12</ele>
  <time>2026-08-28T17:49:11Z</time>
  <course>248.35</course>
  <speed>0.0</speed>
  <fix>3d</fix>
</trkpt>
<trkpt lat="40.0713749" lon="-105.229789">
  <ele>1583.15</ele>
  <time>2026-08-28T17:49:11Z</time>
  <course>248.35</course>
  <speed>0.0</speed>
  <fix>3d</fix>
</trkpt>
<trkpt lat="40.0713749" lon="-105.229789">
  <ele>1583.13</ele>
  <time>2026-08-28T17:49:11Z</time>
  <course>248.36</course>
  <speed>0.0</speed>
  <fix>3d</fix>
</trkpt>
<trkpt lat="40.0713749" lon="-105.229789">
  <ele>1583.15</ele>
  <time>2026-08-28T17:49:11Z</time>
  <course>248.37</course>
  <speed>0.0</speed>
  <fix>3d</fix>
</trkpt>
<trkpt lat="40.0713749" lon="-105.229789">
  <ele>1583.17</ele>
  <time>2026-08-28T17:49:11Z</time>
  <course>248.37</course>
  <speed>0.0</speed>
  <fix>3d</fix>
</trkpt>
<trkpt lat="40.0713749" lon="-105.229789">
  <ele>1583.11</ele>
  <time>2026-08-28T17:49:11Z</time>
  <course>248.38</course>
  <speed>0.0</speed>
  <fix>3d</fix>
</trkpt>
<trkpt lat="40.0713749" lon="-105.229789">
  <ele>1582.97</ele>
  <time>2026-08-28T17:49:11Z</time>
  <course>248.38</course>
  <speed>0.0</speed>
  <fix>3d</fix>
</trkpt>
<trkpt lat="40.0713749" lon="-105.229789">
  <ele>1583.17</ele>
  <time>2026-08-28T17:49:11Z</time>
  <course>248.39</course>
  <speed>0.0</speed>
  <fix>3d</fix>
</trkpt>
<trkpt lat="40.0713749" lon="-105.229789">
  <ele>1583.15</ele>
  <time>2026-08-28T17:49:11Z</time>
  <course>248.39</course>
  <speed>0.0</speed>
  <fix>3d</fix>
</trkpt>
<trkpt lat="40.0713749" lon="-105.229789">
  <ele>1582.93</ele>
  <time>2026-08-28T17:49:11Z</time>
  <course>248.4</course>
  <speed>0.0</speed>
  <fix>3d</fix>
</trkpt>
<trkpt lat="40.0713749" lon="-105.229789">
  <ele>1583.11</ele>
  <time>2026-08-28T17:49:11Z</time>
  <course>248.4</course>
  <speed>0.0</speed>
  <fix>3d</fix>
</trkpt>
<trkpt lat="40.0713749" lon="-105.229789">
  <ele>1583.21</ele>
  <time>2026-08-28T17:49:11Z</time>
  <course>248.4</course>
  <speed>0.0</speed>
  <fix>3d</fix>
</trkpt>
<trkpt lat="40.0713749" lon="-105.229789">
  <ele>1582.97</ele>
  <time>2026-08-28T17:49:11Z</time>
  <course>248.4</course>
  <speed>0.0</speed>
  <fix>3d</fix>
</trkpt>
<trkpt lat="40.0713749" lon="-105.229789">
  <ele>1582.98</ele>
  <time>2026-08-28T17:49:11Z</time>
  <course>248.41</course>
  <speed>0.0</speed>
  <fix>3d</fix>
</trkpt>
<trkpt lat="40.0713749" lon="-105.229789">
  <ele>1583.34</ele>
  <time>2026-08-28T17:49:11Z</time>
  <course>248.41</course>
  <speed>0.0</speed>
  <fix>3d</fix>
</trkpt>
<trkpt lat="40.0713749" lon="-105.229789">
  <ele>1583.28</ele>
  <time>2026-08-28T17:49:11Z</time>
  <course>248.41</course>
  <speed>0.0</speed>
  <fix>3d</fix>
</trkpt>
<trkpt lat="40.0713749" lon="-105.229789">
  <ele>1583.21</ele>
  <time>2026-08-28T17:49:11Z</time>
  <course>248.41</course>
  <speed>0.0</speed>
  <fix>3d</fix>
</trkpt>
<trkpt lat="40.0713749" lon="-105.229789">
  <ele>1582.97</ele>
  <time>2026-08-28T17:49:11Z</time>
  <course>248.41</course>
  <speed>0.0</speed>
  <fix>3d</fix>
</trkpt>
<trkpt lat="40.0713749" lon="-105.229789">
  <ele>1583.01</ele>
  <time>2026-08-28T17:49:11Z</time>
  <course>248.41</course>
  <speed>0.0</speed>
  <fix>3d</fix>
</trkpt>
<trkpt lat="40.0713749" lon="-105.229789">
  <ele>1583.22</ele>
  <time>2026-08-28T17:49:11Z</time>
  <course>248.41</course>
  <speed>0.0</speed>
  <fix>3d</fix>
</trkpt>
<trkpt lat="40.0713749" lon="-105.229789">
  <ele>1582.89</ele>
  <time>2026-08-28T17:49:11Z</time>
  <course>248.41</course>
  <speed>0.0</speed>
  <fix>3d</fix>
</trkpt>
<trkpt lat="40.0713749" lon="-105.229789">
  <ele>1582.84</ele>
  <time>2026-08-28T17:49:11Z</time>
  <course>248.41</course>
  <speed>0.0</speed>
  <fix>3d</fix>
</trkpt>
<trkpt lat="40.0713749" lon="-105.229789">
  <ele>1582.89</ele>
  <time>2026-08-28T17:49:11Z</time>
  <course>248.41</course>
  <speed>0.0</speed>
  <fix>3d</fix>
</trkpt>
<trkpt lat="40.0713749" lon="-105.229789">
  <ele>1582.99</ele>
  <time>2026-08-28T17:49:11Z</time>
  <course>248.41</course>
  <speed>0.0</speed>
  <fix>3d</fix>
</trkpt>
<trkpt lat="40.0713749" lon="-105.229789">
  <ele>1582.82</ele>
  <time>2026-08-28T17:49:11Z</time>
  <course>248.41</course>
  <speed>0.0</speed>
  <fix>3d</fix>
</trkpt>
<trkpt lat="40.0713749" lon="-105.229789">
  <ele>1582.85</ele>
  <time>2026-08-28T17:49:11Z</time>
  <course>248.41</course>
  <speed>0.0</speed>
  <fix>3d</fix>
</trkpt>
<trkpt lat="40.0713749" lon="-105.229789">
  <ele>1582.77</ele>
  <time>2026-08-28T17:49:11Z</time>
  <course>248.41</course>
  <speed>0.0</speed>
  <fix>3d</fix>
</trkpt>
<trkpt lat="40.0713749" lon="-105.229789">
  <ele>1582.87</ele>
  <time>2026-08-28T17:49:11Z</time>
  <course>248.41</course>
  <speed>0.0</speed>
  <fix>3d</fix>
</trkpt>
<trkpt lat="40.0713749" lon="-105.229789">
  <ele>1582.95</ele>
  <time>2026-08-28T17:49:11Z</time>
  <course>248.4</course>
  <speed>0.0</speed>
  <fix>3d</fix>
</trkpt>
<trkpt lat="40.0713749" lon="-105.229789">
  <ele>1582.88</ele>
  <time>2026-08-28T17:49:11Z</time>
  <course>248.4</course>
  <speed>0.0</speed>
  <fix>3d</fix>
</trkpt>
<trkpt lat="40.0713749" lon="-105.229789">
  <ele>1583.05</ele>
  <time>2026-08-28T17:49:11Z</time>
  <course>248.4</course>
  <speed>0.01</speed>
  <fix>3d</fix>
</trkpt>
<trkpt lat="40.0713749" lon="-105.229789">
  <ele>1582.96</ele>
  <time>2026-08-28T17:49:11Z</time>
  <course>248.4</course>
  <speed>0.01</speed>
  <fix>3d</fix>
</trkpt>
<trkpt lat="40.0713749" lon="-105.229789">
  <ele>1582.85</ele>
  <time>2026-08-28T17:49:11Z</time>
  <course>248.4</course>
  <speed>0.01</speed>
  <fix>3d</fix>
</trkpt>
<trkpt lat="40.0713749" lon="-105.229789">
  <ele>1582.88</ele>
  <time>2026-08-28T17:49:11Z</time>
  <course>248.39</course>
  <speed>0.01</speed>
  <fix>3d</fix>
</trkpt>
<trkpt lat="40.0713749" lon="-105.229789">
  <ele>1583.17</ele>
  <time>2026-08-28T17:49:11Z</time>
  <course>248.39</course>
  <speed>0.01</speed>
  <fix>3d</fix>
</trkpt>
<trkpt lat="40.0713749" lon="-105.229789">
  <ele>1583.12</ele>
  <time>2026-08-28T17:49:11Z</time>
  <course>248.39</course>
  <speed>0.01</speed>
  <fix>3d</fix>
</trkpt>
<trkpt lat="40.0713749" lon="-105.229789">
  <ele>1582.89</ele>
  <time>2026-08-28T17:49:11Z</time>
  <course>248.38</course>
  <speed>0.01</speed>
  <fix>3d</fix>
</trkpt>
<trkpt lat="40.0713749" lon="-105.229789">
  <ele>1582.96</ele>
  <time>2026-08-28T17:49:11Z</time>
  <course>248.38</course>
  <speed>0.01</speed>
  <fix>3d</fix>
</trkpt>
<trkpt lat="40.0713749" lon="-105.229789">
  <ele>1582.93</ele>
  <time>2026-08-28T17:49:11Z</time>
  <course>248.38</course>
  <speed>0.01</speed>
  <fix>3d</fix>
</trkpt>
<trkpt lat="40.0713749" lon="-105.229789">
  <ele>1583.07</ele>
  <time>2026-08-28T17:49:11Z</time>
  <course>248.37</course>
  <speed>0.01</speed>
  <fix>3d</fix>
</trkpt>
<trkpt lat="40.0713749" lon="-105.229789">
  <ele>1582.95</ele>
  <time>2026-08-28T17:49:11Z</time>
  <course>248.37</course>
  <speed>0.01</speed>
  <fix>3d</fix>
</trkpt>
<trkpt lat="40.0713749" lon="-105.229789">
  <ele>1583.08</ele>
  <time>2026-08-28T17:49:11Z</time>
  <course>248.37</course>
  <speed>0.01</speed>
  <fix>3d</fix>
</trkpt>
<trkpt lat="40.0713749" lon="-105.229789">
  <ele>1583.15</ele>
  <time>2026-08-28T17:49:11Z</time>
  <course>248.36</course>
  <speed>0.01</speed>
  <fix>3d</fix>
</trkpt>
<trkpt lat="40.0713749" lon="-105.229789">
  <ele>1582.91</ele>
  <time>2026-08-28T17:49:11Z</time>
  <course>248.36</course>
  <speed>0.01</speed>
  <fix>3d</fix>
</trkpt>
<trkpt lat="40.0713749" lon="-105.229789">
  <ele>1583.02</ele>
  <time>2026-08-28T17:49:11Z</time>
  <course>248.36</course>
  <speed>0.01</speed>
  <fix>3d</fix>
</trkpt>
<trkpt lat="40.0713749" lon="-105.229789">
  <ele>1583.0</ele>
  <time>2026-08-28T17:49:11Z</time>
  <course>248.35</course>
  <speed>0.01</speed>
  <fix>3d</fix>
</trkpt>
<trkpt lat="40.0713749" lon="-105.229789">
  <ele>1582.89</ele>
  <time>2026-08-28T17:49:11Z</time>
  <course>248.35</course>
  <speed>0.01</speed>
  <fix>3d</fix>
</trkpt>
<trkpt lat="40.0713749" lon="-105.229789">
  <ele>1583.13</ele>
  <time>2026-08-28T17:49:11Z</time>
  <course>248.34</course>
  <speed>0.01</speed>
  <fix>3d</fix>
</trkpt>
<trkpt lat="40.0713749" lon="-105.229789">
  <ele>1582.78</ele>
  <time>2026-08-28T17:49:11Z</time>
  <course>248.34</course>
  <speed>0.01</speed>
  <fix>3d</fix>
</trkpt>
<trkpt lat="40.0713749" lon="-105.229789">
  <ele>1582.87</ele>
  <time>2026-08-28T17:49:11Z</time>
  <course>248.34</course>
  <speed>0.01</speed>
  <fix>3d</fix>
</trkpt>
<trkpt lat="40.0713749" lon="-105.229789">
  <ele>1583.28</ele>
  <time>2026-08-28T17:49:11Z</time>
  <course>248.33</course>
  <speed>0.01</speed>
  <fix>3d</fix>
</trkpt>
<trkpt lat="40.0713749" lon="-105.229789">
  <ele>1583.0</ele>
  <time>2026-08-28T17:49:11Z</time>
  <course>248.33</course>
  <speed>0.01</speed>
  <fix>3d</fix>
</trkpt>
<trkpt lat="40.0713749" lon="-105.229789">
  <ele>1583.05</ele>
  <time>2026-08-28T17:49:11Z</time>
  <course>248.32</course>
  <speed>0.01</speed>
  <fix>3d</fix>
</trkpt>
<trkpt lat="40.0713749" lon="-105.229789">
  <ele>1583.13</ele>
  <time>2026-08-28T17:49:11Z</time>
  <course>248.32</course>
  <speed>0.01</speed>
  <fix>3d</fix>
</trkpt>
<trkpt lat="40.0713749" lon="-105.229789">
  <ele>1583.24</ele>
  <time>2026-08-28T17:49:11Z</time>
  <course>248.31</course>
  <speed>0.01</speed>
  <fix>3d</fix>
</trkpt>
<trkpt lat="40.0713749" lon="-105.229789">
  <ele>1582.97</ele>
  <time>2026-08-28T17:49:11Z</time>
  <course>248.31</course>
  <speed>0.01</speed>
  <fix>3d</fix>
</trkpt>
<trkpt lat="40.0713749" lon="-105.229789">
  <ele>1583.05</ele>
  <time>2026-08-28T17:49:11Z</time>
  <course>248.3</course>
  <speed>0.01</speed>
  <fix>3d</fix>
</trkpt>
<trkpt lat="40.0713749" lon="-105.229789">
  <ele>1583.29</ele>
  <time>2026-08-28T17:49:11Z</time>
  <course>248.3</course>
  <speed>0.01</speed>
  <fix>3d</fix>
</trkpt>
<trkpt lat="40.0713749" lon="-105.229789">
  <ele>1582.98</ele>
  <time>2026-08-28T17:49:11Z</time>
  <course>248.29</course>
  <speed>0.01</speed>
  <fix>3d</fix>
</trkpt>
<trkpt lat="40.0713749" lon="-105.229789">
  <ele>1583.01</ele>
  <time>2026-08-28T17:49:11Z</time>
  <course>248.29</course>
  <speed>0.01</speed>
  <fix>3d</fix>
</trkpt>
<trkpt lat="40.0713749" lon="-105.229789">
  <ele>1582.92</ele>
  <time>2026-08-28T17:49:11Z</time>
  <course>248.28</course>
  <speed>0.01</speed>
  <fix>3d</fix>
</trkpt>
<trkpt lat="40.0713749" lon="-105.229789">
  <ele>1583.1</ele>
  <time>2026-08-28T17:49:11Z</time>
  <course>248.28</course>
  <speed>0.01</speed>
  <fix>3d</fix>
</trkpt>
<trkpt lat="40.0713749" lon="-105.229789">
  <ele>1583.19</ele>
  <time>2026-08-28T17:49:11Z</time>
  <course>248.27</course>
  <speed>0.01</speed>
  <fix>3d</fix>
</trkpt>
<trkpt lat="40.0713749" lon="-105.229789">
  <ele>1583.0</ele>
  <time>2026-08-28T17:49:11Z</time>
  <course>248.27</course>
  <speed>0.01</speed>
  <fix>3d</fix>
</trkpt>
<trkpt lat="40.0713749" lon="-105.229789">
  <ele>1582.89</ele>
  <time>2026-08-28T17:49:11Z</time>
  <course>248.26</course>
  <speed>0.01</speed>
  <fix>3d</fix>
</trkpt>
<trkpt lat="40.0713749" lon="-105.229789">
  <ele>1583.15</ele>
  <time>2026-08-28T17:49:11Z</time>
  <course>248.26</course>
  <speed>0.01</speed>
  <fix>3d</fix>
</trkpt>
<trkpt lat="40.0713749" lon="-105.229789">
  <ele>1583.11</ele>
  <time>2026-08-28T17:49:11Z</time>
  <course>248.25</course>
  <speed>0.01</speed>
  <fix>3d</fix>
</trkpt>
<trkpt lat="40.0713749" lon="-105.229789">
  <ele>1583.1</ele>
  <time>2026-08-28T17:49:11Z</time>
  <course>248.25</course>
  <speed>0.01</speed>
  <fix>3d</fix>
</trkpt>
<trkpt lat="40.0713749" lon="-105.229789">
  <ele>1582.93</ele>
  <time>2026-08-28T17:49:11Z</time>
  <course>248.24</course>
  <speed>0.01</speed>
  <fix>3d</fix>
</trkpt>
<trkpt lat="40.0713749" lon="-105.229789">
  <ele>1583.12</ele>
  <time>2026-08-28T17:49:11Z</time>
  <course>248.24</course>
  <speed>0.01</speed>
  <fix>3d</fix>
</trkpt>
<trkpt lat="40.0713749" lon="-105.229789">
  <ele>1583.06</ele>
  <time>2026-08-28T17:49:11Z</time>
  <course>248.23</course>
  <speed>0.01</speed>
  <fix>3d</fix>
</trkpt>
<trkpt lat="40.0713749" lon="-105.229789">
  <ele>1582.87</ele>
  <time>2026-08-28T17:49:11Z</time>
  <course>248.23</course>
  <speed>0.01</speed>
  <fix>3d</fix>
</trkpt>
<trkpt lat="40.0713749" lon="-105.229789">
  <ele>1582.8</ele>
  <time>2026-08-28T17:49:11Z</time>
  <course>248.22</course>
  <speed>0.01</speed>
  <fix>3d</fix>
</trkpt>
<trkpt lat="40.0713749" lon="-105.229789">
  <ele>1582.96</ele>
  <time>2026-08-28T17:49:11Z</time>
  <course>248.22</course>
  <speed>0.01</speed>
  <fix>3d</fix>
</trkpt>
<trkpt lat="40.0713749" lon="-105.229789">
  <ele>1582.82</ele>
  <time>2026-08-28T17:49:11Z</time>
  <course>248.21</course>
  <speed>0.01</speed>
  <fix>3d</fix>
</trkpt>
<trkpt lat="40.0713749" lon="-105.229789">
  <ele>1582.76</ele>
  <time>2026-08-28T17:49:11Z</time>
  <course>248.21</course>
  <speed>0.01</speed>
  <fix>3d</fix>
</trkpt>
<trkpt lat="40.0713749" lon="-105.229789">
  <ele>1583.07</ele>
  <time>2026-08-28T17:49:11Z</time>
  <course>248.2</course>
  <speed>0.01</speed>
  <fix>3d</fix>
</trkpt>
<trkpt lat="40.0713749" lon="-105.229789">
  <ele>1583.08</ele>
  <time>2026-08-28T17:49:11Z</time>
  <course>248.2</course>
  <speed>0.01</speed>
  <fix>3d</fix>
</trkpt>
<trkpt lat="40.0713749" lon="-105.229789">
  <ele>1583.14</ele>
  <time>2026-08-28T17:49:11Z</time>
  <course>248.19</course>
  <speed>0.01</speed>
  <fix>3d</fix>
</trkpt>
<trkpt lat="40.0713749" lon="-105.229789">
  <ele>1582.94</ele>
  <time>2026-08-28T17:49:11Z</time>
  <course>248.19</course>
  <speed>0.01</speed>
  <fix>3d</fix>
</trkpt>
<trkpt lat="39.9193651" lon="-104.8306021">
  <ele>1576.99</ele>
  <time>2026-08-28T17:49:11Z</time>
  <course>0.0</course>
  <speed>0.0</speed>
  <fix>3d</fix>
</trkpt>
<trkpt lat="40.0713749" lon="-105.229789">
  <ele>1583.17</ele>
  <time>2026-08-28T17:49:11Z</time>
  <course>248.18</course>
  <speed>0.01</speed>
  <fix>3d</fix>
</trkpt>
<trkpt lat="39.9193651" lon="-104.8306021">
  <ele>1576.99</ele>
  <time>2026-08-28T17:49:11Z</time>
  <course>0.0</course>
  <speed>0.0</speed>
  <fix>3d</fix>
</trkpt>
<trkpt lat="40.0713749" lon="-105.229789">
  <ele>1583.0</ele>
  <time>2026-08-28T17:49:11Z</time>
  <course>248.18</course>
  <speed>0.01</speed>
  <fix>3d</fix>
</trkpt>
<trkpt lat="40.0713749" lon="-105.229789">
  <ele>1583.0</ele>
  <time>2026-08-28T17:49:11Z</time>
  <course>0.0</course>
  <speed>0.0</speed>
  <fix>3d</fix>
</trkpt>
<trkpt lat="40.0713749" lon="-105.229789">
  <ele>1583.0</ele>
  <time>2026-08-28T17:49:11Z</time>
  <course>248.17</course>
  <speed>0.01</speed>
  <fix>3d</fix>
</trkpt>
<trkpt lat="40.0713749" lon="-105.229789">
  <ele>1583.0</ele>
  <time>2026-08-28T17:49:11Z</time>
  <course>0.0</course>
  <speed>0.0</speed>
  <fix>3d</fix>
</trkpt>
<trkpt lat="40.0713749" lon="-105.229789">
  <ele>1583.0</ele>
  <time>2026-08-28T17:49:11Z</time>
  <course>248.17</course>
  <speed>0.02</speed>
  <fix>3d</fix>
</trkpt>
<trkpt lat="40.0713749" lon="-105.229789">
  <ele>1583.0</ele>
  <time>2026-08-28T17:49:11Z</time>
  <course>0.0</course>
  <speed>0.0</speed>
  <fix>3d</fix>
</trkpt>
<trkpt lat="40.0713749" lon="-105.229789">
  <ele>1583.0</ele>
  <time>2026-08-28T17:49:11Z</time>
  <course>248.16</course>
  <speed>0.02</speed>
  <fix>3d</fix>
</trkpt>
<trkpt lat="40.0713749" lon="-105.229789">
  <ele>1583.0</ele>
  <time>2026-08-28T17:49:11Z</time>
  <course>0.0</course>
  <speed>0.0</speed>
  <fix>3d</fix>
</trkpt>
<trkpt lat="40.0713749" lon="-105.229789">
  <ele>1583.0</ele>
  <time>2026-08-28T17:49:11Z</time>
  <course>248.16</course>
  <speed>0.02</speed>
  <fix>3d</fix>
</trkpt>
<trkpt lat="40.0713749" lon="-105.229789">
  <ele>1583.0</ele>
  <time>2026-08-28T17:49:11Z</time>
  <course>0.0</course>
  <speed>0.0</speed>
  <fix>3d</fix>
</trkpt>
<trkpt lat="40.0713749" lon="-105.229789">
  <ele>1583.0</ele>
  <time>2026-08-28T17:49:11Z</time>
  <course>248.15</course>
  <speed>0.02</speed>
  <fix>3d</fix>
</trkpt>
<trkpt lat="40.0713749" lon="-105.229789">
  <ele>1583.0</ele>
  <time>2026-08-28T17:49:11Z</time>
  <course>0.0</course>
  <speed>0.0</speed>
  <fix>3d</fix>
</trkpt>
<trkpt lat="40.0713749" lon="-105.229789">
  <ele>1583.0</ele>
  <time>2026-08-28T17:49:11Z</time>
  <course>248.15</course>
  <speed>0.02</speed>
  <fix>3d</fix>
</trkpt>
<trkpt lat="40.0713749" lon="-105.229789">
  <ele>1583.0</ele>
  <time>2026-08-28T17:49:11Z</time>
  <course>0.0</course>
  <speed>0.0</speed>
  <fix>3d</fix>
</trkpt>
<trkpt lat="40.0713749" lon="-105.229789">
  <ele>1583.0</ele>
  <time>2026-08-28T17:49:11Z</time>
  <course>248.14</course>
  <speed>0.02</speed>
  <fix>3d</fix>
</trkpt>
<trkpt lat="40.0713749" lon="-105.229789">
  <ele>1583.0</ele>
  <time>2026-08-28T17:49:11Z</time>
  <course>0.0</course>
  <speed>0.0</speed>
  <fix>3d</fix>
</trkpt>
<trkpt lat="40.0713749" lon="-105.229789">
  <ele>1583.0</ele>
  <time>2026-08-28T17:49:11Z</time>
  <course>248.14</course>
  <speed>0.02</speed>
  <fix>3d</fix>
</trkpt>
<trkpt lat="40.0713749" lon="-105.229789">
  <ele>1583.0</ele>
  <time>2026-08-28T17:49:11Z</time>
  <course>0.0</course>
  <speed>0.0</speed>
  <fix>3d</fix>
</trkpt>
<trkpt lat="40.0713749" lon="-105.229789">
  <ele>1583.0</ele>
  <time>2026-08-28T17:49:11Z</time>
  <course>248.13</course>
  <speed>0.02</speed>
  <fix>3d</fix>
</trkpt>
<trkpt lat="40.0713749" lon="-105.229789">
  <ele>1583.0</ele>
  <time>2026-08-28T17:49:11Z</time>
  <course>0.0</course>
  <speed>0.0</speed>
  <fix>3d</fix>
</trkpt>
<trkpt lat="40.0713749" lon="-105.229789">
  <ele>1583.0</ele>
  <time>2026-08-28T17:49:11Z</time>
  <course>248.13</course>
  <speed>0.02</speed>
  <fix>3d</fix>
</trkpt>
<trkpt lat="40.0713749" lon="-105.229789">
  <ele>1583.0</ele>
  <time>2026-08-28T17:49:11Z</time>
  <course>0.0</course>
  <speed>0.0</speed>
  <fix>3d</fix>
</trkpt>
<trkpt lat="40.0713749" lon="-105.229789">
  <ele>1583.0</ele>
  <time>2026-08-28T17:49:11Z</time>
  <course>248.13</course>
  <speed>0.02</speed>
  <fix>3d</fix>
</trkpt>
<trkpt lat="40.0713749" lon="-105.229789">
  <ele>1583.0</ele>
  <time>2026-08-28T17:49:11Z</time>
  <course>0.0</course>
  <speed>0.0</speed>
  <fix>3d</fix>
</trkpt>
<trkpt lat="40.0713749" lon="-105.229789">
  <ele>1583.0</ele>
  <time>2026-08-28T17:49:11Z</time>
  <course>248.12</course>
  <speed>0.02</speed>
  <fix>3d</fix>
</trkpt>
<trkpt lat="40.0713749" lon="-105.229789">
  <ele>1583.0</ele>
  <time>2026-08-28T17:49:11Z</time>
  <course>0.0</course>
  <speed>0.0</speed>
  <fix>3d</fix>
</trkpt>
<trkpt lat="40.0713749" lon="-105.229789">
  <ele>1583.0</ele>
  <time>2026-08-28T17:49:11Z</time>
  <course>248.12</course>
  <speed>0.02</speed>
  <fix>3d</fix>
</trkpt>
<trkpt lat="40.0713749" lon="-105.229789">
  <ele>1583.0</ele>
  <time>2026-08-28T17:49:11Z</time>
  <course>0.0</course>
  <speed>0.0</speed>
  <fix>3d</fix>
</trkpt>
<trkpt lat="40.0713749" lon="-105.229789">
  <ele>1583.0</ele>
  <time>2026-08-28T17:49:11Z</time>
  <course>248.11</course>
  <speed>0.02</speed>
  <fix>3d</fix>
</trkpt>
<trkpt lat="40.0713749" lon="-105.229789">
  <ele>1583.0</ele>
  <time>2026-08-28T17:49:11Z</time>
  <course>0.0</course>
  <speed>0.0</speed>
  <fix>3d</fix>
</trkpt>
<trkpt lat="40.0713749" lon="-105.229789">
  <ele>1583.0</ele>
  <time>2026-08-28T17:49:11Z</time>
  <course>248.11</course>
  <speed>0.02</speed>
  <fix>3d</fix>
</trkpt>
<trkpt lat="40.0713749" lon="-105.229789">
  <ele>1583.0</ele>
  <time>2026-08-28T17:49:11Z</time>
  <course>0.0</course>
  <speed>0.0</speed>
  <fix>3d</fix>
</trkpt>
<trkpt lat="40.0713749" lon="-105.229789">
  <ele>1583.0</ele>
  <time>2026-08-28T17:49:11Z</time>
  <course>248.1</course>
  <speed>0.02</speed>
  <fix>3d</fix>
</trkpt>
<trkpt lat="40.0713749" lon="-105.229789">
  <ele>1583.0</ele>
  <time>2026-08-28T17:49:11Z</time>
  <course>0.0</course>
  <speed>0.0</speed>
  <fix>3d</fix>
</trkpt>
<trkpt lat="40.0713749" lon="-105.229789">
  <ele>1583.0</ele>
  <time>2026-08-28T17:49:11Z</time>
  <course>248.1</course>
  <speed>0.02</speed>
  <fix>3d</fix>
</trkpt>
<trkpt lat="40.0713749" lon="-105.229789">
  <ele>1583.0</ele>
  <time>2026-08-28T17:49:11Z</time>
  <course>0.0</course>
  <speed>0.0</speed>
  <fix>3d</fix>
</trkpt>
<trkpt lat="39.655741" lon="-104.1383097">
  <ele>1566.58</ele>
  <time>2026-08-28T17:49:12Z</time>
  <course>0.0</course>
  <speed>0.0</speed>
  <fix>3d</fix>
</trkpt>
<trkpt lat="40.0713749" lon="-105.229789">
  <ele>1583.0</ele>
  <time>2026-08-28T17:49:12Z</time>
  <course>0.0</course>
  <speed>0.0</speed>
  <fix>3d</fix>
</trkpt>
<trkpt lat="40.0713749" lon="-105.229789">
  <ele>1583.0</ele>
  <time>2026-08-28T17:49:12Z</time>
  <course>238.36</course>
  <speed>0.0</speed>
  <fix>3d</fix>
</trkpt>
<trkpt lat="40.0713749" lon="-105.229789">
  <ele>1583.0</ele>
  <time>2026-08-28T17:49:12Z</time>
  <course>0.0</course>
  <speed>0.0</speed>
  <fix>3d</fix>
</trkpt>
<trkpt lat="40.0713749" lon="-105.229789">
  <ele>1583.0</ele>
  <time>2026-08-28T17:49:12Z</time>
  <course>238.44</course>
  <speed>0.0</speed>
  <fix>3d</fix>
</trkpt>
<trkpt lat="40.0713749" lon="-105.229789">
  <ele>1583.0</ele>
  <time>2026-08-28T17:49:12Z</time>
  <course>0.0</course>
  <speed>0.0</speed>
  <fix>3d</fix>
</trkpt>
<trkpt lat="40.0713749" lon="-105.229789">
  <ele>1583.0</ele>
  <time>2026-08-28T17:49:12Z</time>
  <course>238.64</course>
  <speed>0.0</speed>
  <fix>3d</fix>
</trkpt>
<trkpt lat="40.0713749" lon="-105.229789">
  <ele>1583.0</ele>
  <time>2026-08-28T17:49:12Z</time>
  <course>0.0</course>
  <speed>0.0</speed>
  <fix>3d</fix>
</trkpt>
<trkpt lat="40.0713749" lon="-105.229789">
  <ele>1583.0</ele>
  <time>2026-08-28T17:49:12Z</time>
  <course>238.93</course>
  <speed>0.0</speed>
  <fix>3d</fix>
</trkpt>
<trkpt lat="40.0713749" lon="-105.229789">
  <ele>1583.0</ele>
  <time>2026-08-28T17:49:12Z</time>
  <course>0.0</course>
  <speed>0.0</speed>
  <fix>3d</fix>
</trkpt>
<trkpt lat="40.0713749" lon="-105.229789">
  <ele>1583.0</ele>
  <time>2026-08-28T17:49:12Z</time>
  <course>239.26</course>
  <speed>0.0</speed>
  <fix>3d</fix>
</trkpt>
<trkpt lat="40.0713749" lon="-105.229789">
  <ele>1583.0</ele>
  <time>2026-08-28T17:49:12Z</time>
  <course>0.0</course>
  <speed>0.0</speed>
  <fix>3d</fix>
</trkpt>
<trkpt lat="40.0713749" lon="-105.229789">
  <ele>1583.0</ele>
  <time>2026-08-28T17:49:12Z</time>
  <course>239.61</course>
  <speed>0.0</speed>
  <fix>3d</fix>
</trkpt>
<trkpt lat="40.0713749" lon="-105.229789">
  <ele>1583.0</ele>
  <time>2026-08-28T17:49:12Z</time>
  <course>0.0</course>
  <speed>0.0</speed>
  <fix>3d</fix>
</trkpt>
<trkpt lat="40.0713749" lon="-105.229789">
  <ele>1583.0</ele>
  <time>2026-08-28T17:49:12Z</time>
  <course>239.96</course>
  <speed>0.0</speed>
  <fix>3d</fix>
</trkpt>
<trkpt lat="40.0713749" lon="-105.229789">
  <ele>1583.0</ele>
  <time>2026-08-28T17:49:12Z</time>
  <course>0.0</course>
  <speed>0.0</speed>
  <fix>3d</fix>
</trkpt>
<trkpt lat="40.0713749" lon="-105.229789">
  <ele>1583.0</ele>
  <time>2026-08-28T17:49:12Z</time>
  <course>240.29</course>
  <speed>0.0</speed>
  <fix>3d</fix>
</trkpt>
<trkpt lat="40.0713749" lon="-105.229789">
  <ele>1583.0</ele>
  <time>2026-08-28T17:49:12Z</time>
  <course>0.0</course>
  <speed>0.0</speed>
  <fix>3d</fix>
</trkpt>
<trkpt lat="40.0713749" lon="-105.229789">
  <ele>1583.0</ele>
  <time>2026-08-28T17:49:12Z</time>
  <course>240.61</course>
  <speed>0.0</speed>
  <fix>3d</fix>
</trkpt>
<trkpt lat="40.0713749" lon="-105.229789">
  <ele>1583.0</ele>
  <time>2026-08-28T17:49:12Z</time>
  <course>0.0</course>
  <speed>0.0</speed>
  <fix>3d</fix>
</trkpt>
<trkpt lat="40.0713749" lon="-105.229789">
  <ele>1583.0</ele>
  <time>2026-08-28T17:49:12Z</time>
  <course>240.92</course>
  <speed>0.0</speed>
  <fix>3d</fix>
</trkpt>
<trkpt lat="40.0713749" lon="-105.229789">
  <ele>1583.0</ele>
  <time>2026-08-28T17:49:12Z</time>
  <course>0.0</course>
  <speed>0.0</speed>
  <fix>3d</fix>
</trkpt>
<trkpt lat="40.0713749" lon="-105.229789">
  <ele>1583.0</ele>
  <time>2026-08-28T17:49:12Z</time>
  <course>241.21</course>
  <speed>0.0</speed>
  <fix>3d</fix>
</trkpt>
<trkpt lat="40.0713749" lon="-105.229789">
  <ele>1583.0</ele>
  <time>2026-08-28T17:49:12Z</time>
  <course>0.0</course>
  <speed>0.0</speed>
  <fix>3d</fix>
</trkpt>
<trkpt lat="40.0713749" lon="-105.229789">
  <ele>1583.0</ele>
  <time>2026-08-28T17:49:12Z</time>
  <course>241.49</course>
  <speed>0.0</speed>
  <fix>3d</fix>
</trkpt>
<trkpt lat="40.0713749" lon="-105.229789">
  <ele>1583.0</ele>
  <time>2026-08-28T17:49:12Z</time>
  <course>0.0</course>
  <speed>0.0</speed>
  <fix>3d</fix>
</trkpt>
<trkpt lat="40.0713749" lon="-105.229789">
  <ele>1583.0</ele>
  <time>2026-08-28T17:49:12Z</time>
  <course>241.77</course>
  <speed>0.0</speed>
  <fix>3d</fix>
</trkpt>
<trkpt lat="40.0713749" lon="-105.229789">
  <ele>1583.0</ele>
  <time>2026-08-28T17:49:12Z</time>
  <course>0.0</course>
  <speed>0.0</speed>
  <fix>3d</fix>
</trkpt>
<trkpt lat="40.0713749" lon="-105.229789">
  <ele>1583.0</ele>
  <time>2026-08-28T17:49:12Z</time>
  <course>242.03</course>
  <speed>0.0</speed>
  <fix>3d</fix>
</trkpt>
<trkpt lat="40.0713749" lon="-105.229789">
  <ele>1583.0</ele>
  <time>2026-08-28T17:49:12Z</time>
  <course>0.0</course>
  <speed>0.0</speed>
  <fix>3d</fix>
</trkpt>
<trkpt lat="40.0713749" lon="-105.229789">
  <ele>1583.0</ele>
  <time>2026-08-28T17:49:12Z</time>
  <course>242.29</course>
  <speed>0.0</speed>
  <fix>3d</fix>
</trkpt>
<trkpt lat="40.0713749" lon="-105.229789">
  <ele>1583.0</ele>
  <time>2026-08-28T17:49:12Z</time>
  <course>0.0</course>
  <speed>0.0</speed>
  <fix>3d</fix>
</trkpt>
<trkpt lat="40.0713749" lon="-105.229789">
  <ele>1583.0</ele>
  <time>2026-08-28T17:49:12Z</time>
  <course>242.54</course>
  <speed>0.0</speed>
  <fix>3d</fix>
</trkpt>
<trkpt lat="40.0713749" lon="-105.229789">
  <ele>1583.0</ele>
  <time>2026-08-28T17:49:12Z</time>
  <course>0.0</course>
  <speed>0.0</speed>
  <fix>3d</fix>
</trkpt>
<trkpt lat="40.0713749" lon="-105.229789">
  <ele>1583.0</ele>
  <time>2026-08-28T17:49:12Z</time>
  <course>242.79</course>
  <speed>0.0</speed>
  <fix>3d</fix>
</trkpt>
<trkpt lat="40.0713749" lon="-105.229789">
  <ele>1583.0</ele>
  <time>2026-08-28T17:49:12Z</time>
  <course>0.0</course>
  <speed>0.0</speed>
  <fix>3d</fix>
</trkpt>
<trkpt lat="40.0713749" lon="-105.229789">
  <ele>1583.0</ele>
  <time>2026-08-28T17:49:12Z</time>
  <course>243.02</course>
  <speed>0.0</speed>
  <fix>3d</fix>
</trkpt>
<trkpt lat="40.0713749" lon="-105.229789">
  <ele>1583.0</ele>
  <time>2026-08-28T17:49:12Z</time>
  <course>0.0</course>
  <speed>0.0</speed>
  <fix>3d</fix>
</trkpt>
<trkpt lat="40.0713749" lon="-105.229789">
  <ele>1583.0</ele>
  <time>2026-08-28T17:49:12Z</time>
  <course>243.25</course>
  <speed>0.0</speed>
  <fix>3d</fix>
</trkpt>
<trkpt lat="40.0713749" lon="-105.229789">
  <ele>1583.0</ele>
  <time>2026-08-28T17:49:12Z</time>
  <course>0.0</course>
  <speed>0.0</speed>
  <fix>3d</fix>
</trkpt>
<trkpt lat="40.0713749" lon="-105.229789">
  <ele>1583.0</ele>
  <time>2026-08-28T17:49:12Z</time>
  <course>243.47</course>
  <speed>0.0</speed>
  <fix>3d</fix>
</trkpt>
<trkpt lat="40.0713749" lon="-105.229789">
  <ele>1583.0</ele>
  <time>2026-08-28T17:49:12Z</time>
  <course>0.0</course>
  <speed>0.0</speed>
  <fix>3d</fix>
</trkpt>
<trkpt lat="40.0713749" lon="-105.229789">
  <ele>1583.0</ele>
  <time>2026-08-28T17:49:12Z</time>
  <course>243.68</course>
  <speed>0.0</speed>
  <fix>3d</fix>
</trkpt>
<trkpt lat="40.0713749" lon="-105.229789">
  <ele>1583.0</ele>
  <time>2026-08-28T17:49:12Z</time>
  <course>0.0</course>
  <speed>0.0</speed>
  <fix>3d</fix>
</trkpt>
<trkpt lat="40.0713749" lon="-105.229789">
  <ele>1583.0</ele>
  <time>2026-08-28T17:49:12Z</time>
  <course>243.89</course>
  <speed>0.0</speed>
  <fix>3d</fix>
</trkpt>
<trkpt lat="40.0713749" lon="-105.229789">
  <ele>1583.0</ele>
  <time>2026-08-28T17:49:12Z</time>
  <course>0.0</course>
  <speed>0.0</speed>
  <fix>3d</fix>
</trkpt>
<trkpt lat="40.0713749" lon="-105.229789">
  <ele>1583.0</ele>
  <time>2026-08-28T17:49:12Z</time>
  <course>244.09</course>
  <speed>0.0</speed>
  <fix>3d</fix>
</trkpt>
<trkpt lat="40.0713749" lon="-105.229789">
  <ele>1583.0</ele>
  <time>2026-08-28T17:49:12Z</time>
  <course>0.0</course>
  <speed>0.0</speed>
  <fix>3d</fix>
</trkpt>
<trkpt lat="40.0713749" lon="-105.229789">
  <ele>1583.0</ele>
  <time>2026-08-28T17:49:12Z</time>
  <course>244.28</course>
  <speed>0.0</speed>
  <fix>3d</fix>
</trkpt>
<trkpt lat="40.0713749" lon="-105.229789">
  <ele>1583.0</ele>
  <time>2026-08-28T17:49:12Z</time>
  <course>0.0</course>
  <speed>0.0</speed>
  <fix>3d</fix>
</trkpt>
<trkpt lat="40.0713749" lon="-105.229789">
  <ele>1583.0</ele>
  <time>2026-08-28T17:49:12Z</time>
  <course>244.46</course>
  <speed>0.0</speed>
  <fix>3d</fix>
</trkpt>
<trkpt lat="40.0713749" lon="-105.229789">
  <ele>1583.0</ele>
  <time>2026-08-28T17:49:12Z</time>
  <course>0.0</course>
  <speed>0.0</speed>
  <fix>3d</fix>
</trkpt>
<trkpt lat="40.0713749" lon="-105.229789">
  <ele>1583.0</ele>
  <time>2026-08-28T17:49:12Z</time>
  <course>244.64</course>
  <speed>0.0</speed>
  <fix>3d</fix>
</trkpt>
<trkpt lat="40.0713749" lon="-105.229789">
  <ele>1583.0</ele>
  <time>2026-08-28T17:49:12Z</time>
  <course>0.0</course>
  <speed>0.0</speed>
  <fix>3d</fix>
</trkpt>
<trkpt lat="40.0713749" lon="-105.229789">
  <ele>1583.0</ele>
  <time>2026-08-28T17:49:12Z</time>
  <course>244.81</course>
  <speed>0.0</speed>
  <fix>3d</fix>
</trkpt>
<trkpt lat="40.0713749" lon="-105.229789">
  <ele>1583.0</ele>
  <time>2026-08-28T17:49:12Z</time>
  <course>0.0</course>
  <speed>0.0</speed>
  <fix>3d</fix>
</trkpt>
<trkpt lat="40.0713749" lon="-105.229789">
  <ele>1583.0</ele>
  <time>2026-08-28T17:49:12Z</time>
  <course>244.97</course>
  <speed>0.0</speed>
  <fix>3d</fix>
</trkpt>
<trkpt lat="40.0713749" lon="-105.229789">
  <ele>1583.0</ele>
  <time>2026-08-28T17:49:12Z</time>
  <course>0.0</course>
  <speed>0.0</speed>
  <fix>3d</fix>
</trkpt>
<trkpt lat="40.0713749" lon="-105.229789">
  <ele>1583.0</ele>
  <time>2026-08-28T17:49:12Z</time>
  <course>245.13</course>
  <speed>0.0</speed>
  <fix>3d</fix>
</trkpt>
<trkpt lat="40.0713749" lon="-105.229789">
  <ele>1583.0</ele>
  <time>2026-08-28T17:49:12Z</time>
  <course>0.0</course>
  <speed>0.0</speed>
  <fix>3d</fix>
</trkpt>
<trkpt lat="40.0713749" lon="-105.229789">
  <ele>1583.0</ele>
  <time>2026-08-28T17:49:12Z</time>
  <course>245.29</course>
  <speed>0.0</speed>
  <fix>3d</fix>
</trkpt>
<trkpt lat="40.0713749" lon="-105.229789">
  <ele>1583.0</ele>
  <time>2026-08-28T17:49:12Z</time>
  <course>0.0</course>
  <speed>0.0</speed>
  <fix>3d</fix>
</trkpt>
<trkpt lat="40.0713749" lon="-105.229789">
  <ele>1583.0</ele>
  <time>2026-08-28T17:49:12Z</time>
  <course>245.43</course>
  <speed>0.0</speed>
  <fix>3d</fix>
</trkpt>
<trkpt lat="40.0713749" lon="-105.229789">
  <ele>1583.0</ele>
  <time>2026-08-28T17:49:12Z</time>
  <course>0.0</course>
  <speed>0.0</speed>
  <fix>3d</fix>
</trkpt>
<trkpt lat="40.0713749" lon="-105.229789">
  <ele>1583.0</ele>
  <time>2026-08-28T17:49:12Z</time>
  <course>245.57</course>
  <speed>0.0</speed>
  <fix>3d</fix>
</trkpt>
<trkpt lat="40.0713749" lon="-105.229789">
  <ele>1583.0</ele>
  <time>2026-08-28T17:49:12Z</time>
  <course>0.0</course>
  <speed>0.0</speed>
  <fix>3d</fix>
</trkpt>
<trkpt lat="40.0713749" lon="-105.229789">
  <ele>1583.0</ele>
  <time>2026-08-28T17:49:12Z</time>
  <course>245.71</course>
  <speed>0.0</speed>
  <fix>3d</fix>
</trkpt>
<trkpt lat="40.0713749" lon="-105.229789">
  <ele>1583.0</ele>
  <time>2026-08-28T17:49:12Z</time>
  <course>0.0</course>
  <speed>0.0</speed>
  <fix>3d</fix>
</trkpt>
<trkpt lat="40.0713749" lon="-105.229789">
  <ele>1583.0</ele>
  <time>2026-08-28T17:49:12Z</time>
  <course>245.84</course>
  <speed>0.0</speed>
  <fix>3d</fix>
</trkpt>
<trkpt lat="40.0713749" lon="-105.229789">
  <ele>1583.0</ele>
  <time>2026-08-28T17:49:12Z</time>
  <course>0.0</course>
  <speed>0.0</speed>
  <fix>3d</fix>
</trkpt>
<trkpt lat="40.0713749" lon="-105.229789">
  <ele>1583.0</ele>
  <time>2026-08-28T17:49:12Z</time>
  <course>245.96</course>
  <speed>0.0</speed>
  <fix>3d</fix>
</trkpt>
<trkpt lat="40.0713749" lon="-105.229789">
  <ele>1583.0</ele>
  <time>2026-08-28T17:49:12Z</time>
  <course>0.0</course>
  <speed>0.0</speed>
  <fix>3d</fix>
</trkpt>
<trkpt lat="40.0713749" lon="-105.229789">
  <ele>1583.0</ele>
  <time>2026-08-28T17:49:12Z</time>
  <course>246.08</course>
  <speed>0.0</speed>
  <fix>3d</fix>
</trkpt>
<trkpt lat="40.0713749" lon="-105.229789">
  <ele>1583.0</ele>
  <time>2026-08-28T17:49:12Z</time>
  <course>0.0</course>
  <speed>0.0</speed>
  <fix>3d</fix>
</trkpt>
<trkpt lat="40.0713749" lon="-105.229789">
  <ele>1583.0</ele>
  <time>2026-08-28T17:49:12Z</time>
  <course>246.19</course>
  <speed>0.0</speed>
  <fix>3d</fix>
</trkpt>
<trkpt lat="40.0713749" lon="-105.229789">
  <ele>1583.0</ele>
  <time>2026-08-28T17:49:12Z</time>
  <course>0.0</course>
  <speed>0.0</speed>
  <fix>3d</fix>
</trkpt>
<trkpt lat="40.0713749" lon="-105.229789">
  <ele>1583.0</ele>
  <time>2026-08-28T17:49:12Z</time>
  <course>246.3</course>
  <speed>0.0</speed>
  <fix>3d</fix>
</trkpt>
<trkpt lat="40.0713749" lon="-105.229789">
  <ele>1583.0</ele>
  <time>2026-08-28T17:49:12Z</time>
  <course>0.0</course>
  <speed>0.0</speed>
  <fix>3d</fix>
</trkpt>
<trkpt lat="40.0713749" lon="-105.229789">
  <ele>1583.0</ele>
  <time>2026-08-28T17:49:12Z</time>
  <course>246.41</course>
  <speed>0.0</speed>
  <fix>3d</fix>
</trkpt>
<trkpt lat="40.0713749" lon="-105.229789">
  <ele>1583.0</ele>
  <time>2026-08-28T17:49:12Z</time>
  <course>0.0</course>
  <speed>0.0</speed>
  <fix>3d</fix>
</trkpt>
<trkpt lat="40.0713749" lon="-105.229789">
  <ele>1583.0</ele>
  <time>2026-08-28T17:49:12Z</time>
  <course>246.51</course>
  <speed>0.0</speed>
  <fix>3d</fix>
</trkpt>
<trkpt lat="40.0713749" lon="-105.229789">
  <ele>1583.0</ele>
  <time>2026-08-28T17:49:12Z</time>
  <course>0.0</course>
  <speed>0.0</speed>
  <fix>3d</fix>
</trkpt>
<trkpt lat="40.0713749" lon="-105.229789">
  <ele>1583.0</ele>
  <time>2026-08-28T17:49:12Z</time>
  <course>246.6</course>
  <speed>0.0</speed>
  <fix>3d</fix>
</trkpt>
<trkpt lat="40.0713749" lon="-105.229789">
  <ele>1583.0</ele>
  <time>2026-08-28T17:49:12Z</time>
  <course>0.0</course>
  <speed>0.0</speed>
  <fix>3d</fix>
</trkpt>
<trkpt lat="40.0713749" lon="-105.229789">
  <ele>1583.0</ele>
  <time>2026-08-28T17:49:12Z</time>
  <course>246.7</course>
  <speed>0.0</speed>
  <fix>3d</fix>
</trkpt>
<trkpt lat="40.0713749" lon="-105.229789">
  <ele>1583.0</ele>
  <time>2026-08-28T17:49:12Z</time>
  <course>0.0</course>
  <speed>0.0</speed>
  <fix>3d</fix>
</trkpt>
<trkpt lat="40.0713749" lon="-105.229789">
  <ele>1583.0</ele>
  <time>2026-08-28T17:49:12Z</time>
  <course>246.78</course>
  <speed>0.0</speed>
  <fix>3d</fix>
</trkpt>
<trkpt lat="40.0713749" lon="-105.229789">
  <ele>1583.0</ele>
  <time>2026-08-28T17:49:12Z</time>
  <course>0.0</course>
  <speed>0.0</speed>
  <fix>3d</fix>
</trkpt>
<trkpt lat="40.0713749" lon="-105.229789">
  <ele>1583.0</ele>
  <time>2026-08-28T17:49:12Z</time>
  <course>246.87</course>
  <speed>0.0</speed>
  <fix>3d</fix>
</trkpt>
<trkpt lat="40.0713749" lon="-105.229789">
  <ele>1583.0</ele>
  <time>2026-08-28T17:49:12Z</time>
  <course>0.0</course>
  <speed>0.0</speed>
  <fix>3d</fix>
</trkpt>
<trkpt lat="40.0713749" lon="-105.229789">
  <ele>1583.0</ele>
  <time>2026-08-28T17:49:12Z</time>
  <course>246.95</course>
  <speed>0.0</speed>
  <fix>3d</fix>
</trkpt>
<trkpt lat="40.0713749" lon="-105.229789">
  <ele>1583.0</ele>
  <time>2026-08-28T17:49:12Z</time>
  <course>0.0</course>
  <speed>0.0</speed>
  <fix>3d</fix>
</trkpt>
<trkpt lat="40.0713749" lon="-105.229789">
  <ele>1583.0</ele>
  <time>2026-08-28T17:49:12Z</time>
  <course>247.02</course>
  <speed>0.0</speed>
  <fix>3d</fix>
</trkpt>
<trkpt lat="40.0713749" lon="-105.229789">
  <ele>1583.0</ele>
  <time>2026-08-28T17:49:12Z</time>
  <course>0.0</course>
  <speed>0.0</speed>
  <fix>3d</fix>
</trkpt>
<trkpt lat="40.0713749" lon="-105.229789">
  <ele>1583.0</ele>
  <time>2026-08-28T17:49:12Z</time>
  <course>247.1</course>
  <speed>0.0</speed>
  <fix>3d</fix>
</trkpt>
<trkpt lat="40.0713749" lon="-105.229789">
  <ele>1583.0</ele>
  <time>2026-08-28T17:49:12Z</time>
  <course>0.0</course>
  <speed>0.0</speed>
  <fix>3d</fix>
</trkpt>
<trkpt lat="40.0713749" lon="-105.229789">
  <ele>1583.0</ele>
  <time>2026-08-28T17:49:12Z</time>
  <course>247.17</course>
  <speed>0.0</speed>
  <fix>3d</fix>
</trkpt>
<trkpt lat="40.0713749" lon="-105.229789">
  <ele>1583.0</ele>
  <time>2026-08-28T17:49:12Z</time>
  <course>0.0</course>
  <speed>0.0</speed>
  <fix>3d</fix>
</trkpt>
<trkpt lat="40.0713749" lon="-105.229789">
  <ele>1583.0</ele>
  <time>2026-08-28T17:49:12Z</time>
  <course>247.24</course>
  <speed>0.0</speed>
  <fix>3d</fix>
</trkpt>
<trkpt lat="40.0713749" lon="-105.229789">
  <ele>1583.0</ele>
  <time>2026-08-28T17:49:12Z</time>
  <course>0.0</course>
  <speed>0.0</speed>
  <fix>3d</fix>
</trkpt>
<trkpt lat="40.0713749" lon="-105.229789">
  <ele>1583.0</ele>
  <time>2026-08-28T17:49:12Z</time>
  <course>247.3</course>
  <speed>0.0</speed>
  <fix>3d</fix>
</trkpt>
<trkpt lat="40.0713749" lon="-105.229789">
  <ele>1583.0</ele>
  <time>2026-08-28T17:49:12Z</time>
  <course>0.0</course>
  <speed>0.0</speed>
  <fix>3d</fix>
</trkpt>
<trkpt lat="40.0713749" lon="-105.229789">
  <ele>1583.0</ele>
  <time>2026-08-28T17:49:12Z</time>
  <course>247.36</course>
  <speed>0.0</speed>
  <fix>3d</fix>
</trkpt>
<trkpt lat="40.0713749" lon="-105.229789">
  <ele>1583.0</ele>
  <time>2026-08-28T17:49:12Z</time>
  <course>0.0</course>
  <speed>0.0</speed>
  <fix>3d</fix>
</trkpt>
<trkpt lat="40.0713749" lon="-105.229789">
  <ele>1583.0</ele>
  <time>2026-08-28T17:49:12Z</time>
  <course>247.42</course>
  <speed>0.0</speed>
  <fix>3d</fix>
</trkpt>
<trkpt lat="40.0713749" lon="-105.229789">
  <ele>1583.0</ele>
  <time>2026-08-28T17:49:12Z</time>
  <course>0.0</course>
  <speed>0.0</speed>
  <fix>3d</fix>
</trkpt>
<trkpt lat="40.0713749" lon="-105.229789">
  <ele>1583.0</ele>
  <time>2026-08-28T17:49:12Z</time>
  <course>247.47</course>
  <speed>0.0</speed>
  <fix>3d</fix>
</trkpt>
<trkpt lat="40.0713749" lon="-105.229789">
  <ele>1583.0</ele>
  <time>2026-08-28T17:49:12Z</time>
  <course>0.0</course>
  <speed>0.0</speed>
  <fix>3d</fix>
</trkpt>
<trkpt lat="40.0713749" lon="-105.229789">
  <ele>1583.0</ele>
  <time>2026-08-28T17:49:12Z</time>
  <course>247.53</course>
  <speed>0.0</speed>
  <fix>3d</fix>
</trkpt>
<trkpt lat="40.0713749" lon="-105.229789">
  <ele>1583.0</ele>
  <time>2026-08-28T17:49:12Z</time>
  <course>0.0</course>
  <speed>0.0</speed>
  <fix>3d</fix>
</trkpt>
<trkpt lat="40.0713749" lon="-105.229789">
  <ele>1583.0</ele>
  <time>2026-08-28T17:49:12Z</time>
  <course>247.58</course>
  <speed>0.0</speed>
  <fix>3d</fix>
</trkpt>
<trkpt lat="40.0713749" lon="-105.229789">
  <ele>1583.0</ele>
  <time>2026-08-28T17:49:12Z</time>
  <course>0.0</course>
  <speed>0.0</speed>
  <fix>3d</fix>
</trkpt>
<trkpt lat="40.0713749" lon="-105.229789">
  <ele>1583.0</ele>
  <time>2026-08-28T17:49:12Z</time>
  <course>247.63</course>
  <speed>0.0</speed>
  <fix>3d</fix>
</trkpt>
<trkpt lat="40.0713749" lon="-105.229789">
  <ele>1583.0</ele>
  <time>2026-08-28T17:49:12Z</time>
  <course>0.0</course>
  <speed>0.0</speed>
  <fix>3d</fix>
</trkpt>
<trkpt lat="40.0713749" lon="-105.229789">
  <ele>1583.0</ele>
  <time>2026-08-28T17:49:12Z</time>
  <course>247.67</course>
  <speed>0.0</speed>
  <fix>3d</fix>
</trkpt>
<trkpt lat="40.0713749" lon="-105.229789">
  <ele>1583.0</ele>
  <time>2026-08-28T17:49:12Z</time>
  <course>0.0</course>
  <speed>0.0</speed>
  <fix>3d</fix>
</trkpt>
<trkpt lat="40.0713749" lon="-105.229789">
  <ele>1583.0</ele>
  <time>2026-08-28T17:49:12Z</time>
  <course>247.72</course>
  <speed>0.0</speed>
  <fix>3d</fix>
</trkpt>
<trkpt lat="40.0713749" lon="-105.229789">
  <ele>1583.0</ele>
  <time>2026-08-28T17:49:12Z</time>
  <course>0.0</course>
  <speed>0.0</speed>
  <fix>3d</fix>
</trkpt>
<trkpt lat="40.0713749" lon="-105.229789">
  <ele>1583.0</ele>
  <time>2026-08-28T17:49:12Z</time>
  <course>247.76</course>
  <speed>0.0</speed>
  <fix>3d</fix>
</trkpt>
<trkpt lat="40.0713749" lon="-105.229789">
  <ele>1583.0</ele>
  <time>2026-08-28T17:49:12Z</time>
  <course>0.0</course>
  <speed>0.0</speed>
  <fix>3d</fix>
</trkpt>
<trkpt lat="40.0713749" lon="-105.229789">
  <ele>1583.0</ele>
  <time>2026-08-28T17:49:12Z</time>
  <course>247.8</course>
  <speed>0.0</speed>
  <fix>3d</fix>
</trkpt>
<trkpt lat="40.0713749" lon="-105.229789">
  <ele>1583.0</ele>
  <time>2026-08-28T17:49:12Z</time>
  <course>0.0</course>
  <speed>0.0</speed>
  <fix>3d</fix>
</trkpt>
<trkpt lat="40.0713749" lon="-105.229789">
  <ele>1583.0</ele>
  <time>2026-08-28T17:49:12Z</time>
  <course>247.83</course>
  <speed>0.0</speed>
  <fix>3d</fix>
</trkpt>
<trkpt lat="40.0713749" lon="-105.229789">
  <ele>1583.0</ele>
  <time>2026-08-28T17:49:12Z</time>
  <course>0.0</course>
  <speed>0.0</speed>
  <fix>3d</fix>
</trkpt>
<trkpt lat="40.0713749" lon="-105.229789">
  <ele>1583.0</ele>
  <time>2026-08-28T17:49:12Z</time>
  <course>247.87</course>
  <speed>0.0</speed>
  <fix>3d</fix>
</trkpt>
<trkpt lat="40.0713749" lon="-105.229789">
  <ele>1583.0</ele>
  <time>2026-08-28T17:49:12Z</time>
  <course>0.0</course>
  <speed>0.0</speed>
  <fix>3d</fix>
</trkpt>
<trkpt lat="40.0713749" lon="-105.229789">
  <ele>1583.0</ele>
  <time>2026-08-28T17:49:12Z</time>
  <course>247.9</course>
  <speed>0.0</speed>
  <fix>3d</fix>
</trkpt>
<trkpt lat="40.0713749" lon="-105.229789">
  <ele>1583.0</ele>
  <time>2026-08-28T17:49:12Z</time>
  <course>0.0</course>
  <speed>0.0</speed>
  <fix>3d</fix>
</trkpt>
<trkpt lat="40.0713749" lon="-105.229789">
  <ele>1583.0</ele>
  <time>2026-08-28T17:49:12Z</time>
  <course>247.94</course>
  <speed>0.0</speed>
  <fix>3d</fix>
</trkpt>
<trkpt lat="40.0713749" lon="-105.229789">
  <ele>1583.0</ele>
  <time>2026-08-28T17:49:12Z</time>
  <course>0.0</course>
  <speed>0.0</speed>
  <fix>3d</fix>
</trkpt>
<trkpt lat="40.0713749" lon="-105.229789">
  <ele>1583.0</ele>
  <time>2026-08-28T17:49:12Z</time>
  <course>247.97</course>
  <speed>0.0</speed>
  <fix>3d</fix>
</trkpt>
<trkpt lat="40.0713749" lon="-105.229789">
  <ele>1583.0</ele>
  <time>2026-08-28T17:49:12Z</time>
  <course>0.0</course>
  <speed>0.0</speed>
  <fix>3d</fix>
</trkpt>
<trkpt lat="40.0713749" lon="-105.229789">
  <ele>1583.0</ele>
  <time>2026-08-28T17:49:12Z</time>
  <course>248.0</course>
  <speed>0.0</speed>
  <fix>3d</fix>
</trkpt>
<trkpt lat="40.0713749" lon="-105.229789">
  <ele>1583.0</ele>
  <time>2026-08-28T17:49:12Z</time>
  <course>0.0</course>
  <speed>0.0</speed>
  <fix>3d</fix>
</trkpt>
<trkpt lat="40.0713749" lon="-105.229789">
  <ele>1583.0</ele>
  <time>2026-08-28T17:49:12Z</time>
  <course>248.02</course>
  <speed>0.0</speed>
  <fix>3d</fix>
</trkpt>
<trkpt lat="40.0713749" lon="-105.229789">
  <ele>1583.0</ele>
  <time>2026-08-28T17:49:12Z</time>
  <course>0.0</course>
  <speed>0.0</speed>
  <fix>3d</fix>
</trkpt>
<trkpt lat="40.0713749" lon="-105.229789">
  <ele>1583.0</ele>
  <time>2026-08-28T17:49:12Z</time>
  <course>248.05</course>
  <speed>0.0</speed>
  <fix>3d</fix>
</trkpt>
<trkpt lat="40.0713749" lon="-105.229789">
  <ele>1583.0</ele>
  <time>2026-08-28T17:49:12Z</time>
  <course>0.0</course>
  <speed>0.0</speed>
  <fix>3d</fix>
</trkpt>
<trkpt lat="40.0713749" lon="-105.229789">
  <ele>1583.0</ele>
  <time>2026-08-28T17:49:12Z</time>
  <course>248.08</course>
  <speed>0.0</speed>
  <fix>3d</fix>
</trkpt>
<trkpt lat="40.0713749" lon="-105.229789">
  <ele>1583.0</ele>
  <time>2026-08-28T17:49:12Z</time>
  <course>0.0</course>
  <speed>0.0</speed>
  <fix>3d</fix>
</trkpt>
<trkpt lat="40.0713749" lon="-105.229789">
  <ele>1583.0</ele>
  <time>2026-08-28T17:49:12Z</time>
  <course>248.1</course>
  <speed>0.0</speed>
  <fix>3d</fix>
</trkpt>
<trkpt lat="40.0713749" lon="-105.229789">
  <ele>1583.0</ele>
  <time>2026-08-28T17:49:12Z</time>
  <course>0.0</course>
  <speed>0.0</speed>
  <fix>3d</fix>
</trkpt>
<trkpt lat="40.0713749" lon="-105.229789">
  <ele>1583.0</ele>
  <time>2026-08-28T17:49:12Z</time>
  <course>248.12</course>
  <speed>0.0</speed>
  <fix>3d</fix>
</trkpt>
<trkpt lat="40.0713749" lon="-105.229789">
  <ele>1583.0</ele>
  <time>2026-08-28T17:49:12Z</time>
  <course>0.0</course>
  <speed>0.0</speed>
  <fix>3d</fix>
</trkpt>
<trkpt lat="40.0713749" lon="-105.229789">
  <ele>1583.0</ele>
  <time>2026-08-28T17:49:12Z</time>
  <course>248.14</course>
  <speed>0.0</speed>
  <fix>3d</fix>
</trkpt>
<trkpt lat="40.0713749" lon="-105.229789">
  <ele>1583.0</ele>
  <time>2026-08-28T17:49:12Z</time>
  <course>0.0</course>
  <speed>0.0</speed>
  <fix>3d</fix>
</trkpt>
<trkpt lat="40.0713749" lon="-105.229789">
  <ele>1583.0</ele>
  <time>2026-08-28T17:49:12Z</time>
  <course>248.16</course>
  <speed>0.0</speed>
  <fix>3d</fix>
</trkpt>
<trkpt lat="40.0713749" lon="-105.229789">
  <ele>1583.0</ele>
  <time>2026-08-28T17:49:12Z</time>
  <course>0.0</course>
  <speed>0.0</speed>
  <fix>3d</fix>
</trkpt>
<trkpt lat="40.0713749" lon="-105.229789">
  <ele>1583.0</ele>
  <time>2026-08-28T17:49:12Z</time>
  <course>248.18</course>
  <speed>0.0</speed>
  <fix>3d</fix>
</trkpt>
<trkpt lat="40.0713749" lon="-105.229789">
  <ele>1583.0</ele>
  <time>2026-08-28T17:49:12Z</time>
  <course>0.0</course>
  <speed>0.0</speed>
  <fix>3d</fix>
</trkpt>
<trkpt lat="40.0713749" lon="-105.229789">
  <ele>1583.0</ele>
  <time>2026-08-28T17:49:12Z</time>
  <course>248.2</course>
  <speed>0.0</speed>
  <fix>3d</fix>
</trkpt>
<trkpt lat="40.0713749" lon="-105.229789">
  <ele>1583.0</ele>
  <time>2026-08-28T17:49:12Z</time>
  <course>0.0</course>
  <speed>0.0</speed>
  <fix>3d</fix>
</trkpt>
<trkpt lat="40.0713749" lon="-105.229789">
  <ele>1583.0</ele>
  <time>2026-08-28T17:49:12Z</time>
  <course>248.22</course>
  <speed>0.0</speed>
  <fix>3d</fix>
</trkpt>
<trkpt lat="40.0713749" lon="-105.229789">
  <ele>1583.0</ele>
  <time>2026-08-28T17:49:12Z</time>
  <course>0.0</course>
  <speed>0.0</speed>
  <fix>3d</fix>
</trkpt>
<trkpt lat="40.0713749" lon="-105.229789">
  <ele>1583.0</ele>
  <time>2026-08-28T17:49:12Z</time>
  <course>248.23</course>
  <speed>0.0</speed>
  <fix>3d</fix>
</trkpt>
<trkpt lat="40.0713749" lon="-105.229789">
  <ele>1583.0</ele>
  <time>2026-08-28T17:49:12Z</time>
  <course>0.0</course>
  <speed>0.0</speed>
  <fix>3d</fix>
</trkpt>
<trkpt lat="40.0713749" lon="-105.229789">
  <ele>1583.0</ele>
  <time>2026-08-28T17:49:12Z</time>
  <course>248.25</course>
  <speed>0.0</speed>
  <fix>3d</fix>
</trkpt>
<trkpt lat="40.0713749" lon="-105.229789">
  <ele>1583.0</ele>
  <time>2026-08-28T17:49:12Z</time>
  <course>0.0</course>
  <speed>0.0</speed>
  <fix>3d</fix>
</trkpt>
<trkpt lat="40.0713749" lon="-105.229789">
  <ele>1583.0</ele>
  <time>2026-08-28T17:49:12Z</time>
  <course>248.26</course>
  <speed>0.0</speed>
  <fix>3d</fix>
</trkpt>
<trkpt lat="40.0713749" lon="-105.229789">
  <ele>1583.0</ele>
  <time>2026-08-28T17:49:12Z</time>
  <course>0.0</course>
  <speed>0.0</speed>
  <fix>3d</fix>
</trkpt>
<trkpt lat="40.0713749" lon="-105.229789">
  <ele>1583.0</ele>
  <time>2026-08-28T17:49:12Z</time>
  <course>248.28</course>
  <speed>0.0</speed>
  <fix>3d</fix>
</trkpt>
<trkpt lat="40.0713749" lon="-105.229789">
  <ele>1583.0</ele>
  <time>2026-08-28T17:49:12Z</time>
  <course>0.0</course>
  <speed>0.0</speed>
  <fix>3d</fix>
</trkpt>
<trkpt lat="40.0713749" lon="-105.229789">
  <ele>1583.0</ele>
  <time>2026-08-28T17:49:12Z</time>
  <course>248.29</course>
  <speed>0.0</speed>
  <fix>3d</fix>
</trkpt>
<trkpt lat="40.0713749" lon="-105.229789">
  <ele>1583.0</ele>
  <time>2026-08-28T17:49:12Z</time>
  <course>0.0</course>
  <speed>0.0</speed>
  <fix>3d</fix>
</trkpt>
<trkpt lat="40.0713749" lon="-105.229789">
  <ele>1583.0</ele>
  <time>2026-08-28T17:49:12Z</time>
  <course>248.3</course>
  <speed>0.0</speed>
  <fix>3d</fix>
</trkpt>
<trkpt lat="40.0713749" lon="-105.229789">
  <ele>1583.0</ele>
  <time>2026-08-28T17:49:12Z</time>
  <course>0.0</course>
  <speed>0.0</speed>
  <fix>3d</fix>
</trkpt>
<trkpt lat="40.0713749" lon="-105.229789">
  <ele>1583.0</ele>
  <time>2026-08-28T17:49:12Z</time>
  <course>248.31</course>
  <speed>0.0</speed>
  <fix>3d</fix>
</trkpt>
<trkpt lat="40.0713749" lon="-105.229789">
  <ele>1583.0</ele>
  <time>2026-08-28T17:49:12Z</time>
  <course>0.0</course>
  <speed>0.0</speed>
  <fix>3d</fix>
</trkpt>
<trkpt lat="40.0713749" lon="-105.229789">
  <ele>1583.0</ele>
  <time>2026-08-28T17:49:12Z</time>
  <course>248.32</course>
  <speed>0.0</speed>
  <fix>3d</fix>
</trkpt>
<trkpt lat="40.0713749" lon="-105.229789">
  <ele>1583.0</ele>
  <time>2026-08-28T17:49:12Z</time>
  <course>0.0</course>
  <speed>0.0</speed>
  <fix>3d</fix>
</trkpt>
<trkpt lat="40.0713749" lon="-105.229789">
  <ele>1583.0</ele>
  <time>2026-08-28T17:49:12Z</time>
  <course>248.33</course>
  <speed>0.0</speed>
  <fix>3d</fix>
</trkpt>
<trkpt lat="40.0713749" lon="-105.229789">
  <ele>1583.0</ele>
  <time>2026-08-28T17:49:12Z</time>
  <course>0.0</course>
  <speed>0.0</speed>
  <fix>3d</fix>
</trkpt>
<trkpt lat="40.0713749" lon="-105.229789">
  <ele>1583.0</ele>
  <time>2026-08-28T17:49:12Z</time>
  <course>248.34</course>
  <speed>0.0</speed>
  <fix>3d</fix>
</trkpt>
<trkpt lat="40.0713749" lon="-105.229789">
  <ele>1583.0</ele>
  <time>2026-08-28T17:49:12Z</time>
  <course>0.0</course>
  <speed>0.0</speed>
  <fix>3d</fix>
</trkpt>
<trkpt lat="40.0713749" lon="-105.229789">
  <ele>1583.0</ele>
  <time>2026-08-28T17:49:12Z</time>
  <course>248.35</course>
  <speed>0.0</speed>
  <fix>3d</fix>
</trkpt>
<trkpt lat="40.0713749" lon="-105.229789">
  <ele>1583.0</ele>
  <time>2026-08-28T17:49:12Z</time>
  <course>0.0</course>
  <speed>0.0</speed>
  <fix>3d</fix>
</trkpt>
<trkpt lat="40.0713749" lon="-105.229789">
  <ele>1583.0</ele>
  <time>2026-08-28T17:49:12Z</time>
  <course>248.35</course>
  <speed>0.0</speed>
  <fix>3d</fix>
</trkpt>
<trkpt lat="40.0713749" lon="-105.229789">
  <ele>1583.0</ele>
  <time>2026-08-28T17:49:12Z</time>
  <course>0.0</course>
  <speed>0.0</speed>
  <fix>3d</fix>
</trkpt>
<trkpt lat="40.0713749" lon="-105.229789">
  <ele>1583.0</ele>
  <time>2026-08-28T17:49:12Z</time>
  <course>248.36</course>
  <speed>0.0</speed>
  <fix>3d</fix>
</trkpt>
<trkpt lat="40.0713749" lon="-105.229789">
  <ele>1583.0</ele>
  <time>2026-08-28T17:49:12Z</time>
  <course>0.0</course>
  <speed>0.0</speed>
  <fix>3d</fix>
</trkpt>
<trkpt lat="40.0713749" lon="-105.229789">
  <ele>1583.0</ele>
  <time>2026-08-28T17:49:12Z</time>
  <course>248.37</course>
  <speed>0.0</speed>
  <fix>3d</fix>
</trkpt>
<trkpt lat="40.0713749" lon="-105.229789">
  <ele>1583.0</ele>
  <time>2026-08-28T17:49:12Z</time>
  <course>0.0</course>
  <speed>0.0</speed>
  <fix>3d</fix>
</trkpt>
<trkpt lat="40.0713749" lon="-105.229789">
  <ele>1583.0</ele>
  <time>2026-08-28T17:49:12Z</time>
  <course>248.37</course>
  <speed>0.0</speed>
  <fix>3d</fix>
</trkpt>
<trkpt lat="40.0713749" lon="-105.229789">
  <ele>1583.0</ele>
  <time>2026-08-28T17:49:12Z</time>
  <course>0.0</course>
  <speed>0.0</speed>
  <fix>3d</fix>
</trkpt>
<trkpt lat="40.0713749" lon="-105.229789">
  <ele>1583.0</ele>
  <time>2026-08-28T17:49:12Z</time>
  <course>248.38</course>
  <speed>0.0</speed>
  <fix>3d</fix>
</trkpt>
<trkpt lat="40.0713749" lon="-105.229789">
  <ele>1583.0</ele>
  <time>2026-08-28T17:49:12Z</time>
  <course>0.0</course>
  <speed>0.0</speed>
  <fix>3d</fix>
</trkpt>
<trkpt lat="40.0713749" lon="-105.229789">
  <ele>1583.0</ele>
  <time>2026-08-28T17:49:12Z</time>
  <course>248.38</course>
  <speed>0.0</speed>
  <fix>3d</fix>
</trkpt>
<trkpt lat="40.0713749" lon="-105.229789">
  <ele>1583.0</ele>
  <time>2026-08-28T17:49:12Z</time>
  <course>0.0</course>
  <speed>0.0</speed>
  <fix>3d</fix>
</trkpt>
<trkpt lat="40.0713749" lon="-105.229789">
  <ele>1583.0</ele>
  <time>2026-08-28T17:49:12Z</time>
  <course>248.39</course>
  <speed>0.0</speed>
  <fix>3d</fix>
</trkpt>
<trkpt lat="40.0713749" lon="-105.229789">
  <ele>1583.0</ele>
  <time>2026-08-28T17:49:12Z</time>
  <course>0.0</course>
  <speed>0.0</speed>
  <fix>3d</fix>
</trkpt>
<trkpt lat="40.0713749" lon="-105.229789">
  <ele>1583.0</ele>
  <time>2026-08-28T17:49:12Z</time>
  <course>248.39</course>
  <speed>0.0</speed>
  <fix>3d</fix>
</trkpt>
<trkpt lat="40.0713749" lon="-105.229789">
  <ele>1583.0</ele>
  <time>2026-08-28T17:49:12Z</time>
  <course>0.0</course>
  <speed>0.0</speed>
  <fix>3d</fix>
</trkpt>
<trkpt lat="40.0713749" lon="-105.229789">
  <ele>1583.0</ele>
  <time>2026-08-28T17:49:12Z</time>
  <course>248.4</course>
  <speed>0.0</speed>
  <fix>3d</fix>
</trkpt>
<trkpt lat="40.0713749" lon="-105.229789">
  <ele>1583.0</ele>
  <time>2026-08-28T17:49:12Z</time>
  <course>0.0</course>
  <speed>0.0</speed>
  <fix>3d</fix>
</trkpt>
<trkpt lat="40.0713749" lon="-105.229789">
  <ele>1583.0</ele>
  <time>2026-08-28T17:49:12Z</time>
  <course>248.4</course>
  <speed>0.0</speed>
  <fix>3d</fix>
</trkpt>
<trkpt lat="40.0713749" lon="-105.229789">
  <ele>1583.0</ele>
  <time>2026-08-28T17:49:12Z</time>
  <course>0.0</course>
  <speed>0.0</speed>
  <fix>3d</fix>
</trkpt>
<trkpt lat="40.0713749" lon="-105.229789">
  <ele>1583.0</ele>
  <time>2026-08-28T17:49:12Z</time>
  <course>248.4</course>
  <speed>0.0</speed>
  <fix>3d</fix>
</trkpt>
<trkpt lat="40.0713749" lon="-105.229789">
  <ele>1583.0</ele>
  <time>2026-08-28T17:49:12Z</time>
  <course>0.0</course>
  <speed>0.0</speed>
  <fix>3d</fix>
</trkpt>
<trkpt lat="40.0713749" lon="-105.229789">
  <ele>1583.0</ele>
  <time>2026-08-28T17:49:12Z</time>
  <course>248.4</course>
  <speed>0.0</speed>
  <fix>3d</fix>
</trkpt>
<trkpt lat="40.0713749" lon="-105.229789">
  <ele>1583.0</ele>
  <time>2026-08-28T17:49:12Z</time>
  <course>0.0</course>
  <speed>0.0</speed>
  <fix>3d</fix>
</trkpt>
<trkpt lat="40.0713749" lon="-105.229789">
  <ele>1583.0</ele>
  <time>2026-08-28T17:49:12Z</time>
  <course>248.41</course>
  <speed>0.0</speed>
  <fix>3d</fix>
</trkpt>
<trkpt lat="40.0713749" lon="-105.229789">
  <ele>1583.0</ele>
  <time>2026-08-28T17:49:12Z</time>
  <course>0.0</course>
  <speed>0.0</speed>
  <fix>3d</fix>
</trkpt>
<trkpt lat="40.0713749" lon="-105.229789">
  <ele>1583.0</ele>
  <time>2026-08-28T17:49:12Z</time>
  <course>248.41</course>
  <speed>0.0</speed>
  <fix>3d</fix>
</trkpt>
<trkpt lat="40.0713749" lon="-105.229789">
  <ele>1583.0</ele>
  <time>2026-08-28T17:49:12Z</time>
  <course>0.0</course>
  <speed>0.0</speed>
  <fix>3d</fix>
</trkpt>
<trkpt lat="40.0713749" lon="-105.229789">
  <ele>1583.0</ele>
  <time>2026-08-28T17:49:12Z</time>
  <course>248.41</course>
  <speed>0.0</speed>
  <fix>3d</fix>
</trkpt>
<trkpt lat="40.0713749" lon="-105.229789">
  <ele>1583.0</ele>
  <time>2026-08-28T17:49:12Z</time>
  <course>0.0</course>
  <speed>0.0</speed>
  <fix>3d</fix>
</trkpt>
<trkpt lat="40.0713749" lon="-105.229789">
  <ele>1583.0</ele>
  <time>2026-08-28T17:49:12Z</time>
  <course>248.41</course>
  <speed>0.0</speed>
  <fix>3d</fix>
</trkpt>
<trkpt lat="40.0713749" lon="-105.229789">
  <ele>1583.0</ele>
  <time>2026-08-28T17:49:12Z</time>
  <course>0.0</course>
  <speed>0.0</speed>
  <fix>3d</fix>
</trkpt>
<trkpt lat="40.0713749" lon="-105.229789">
  <ele>1583.0</ele>
  <time>2026-08-28T17:49:12Z</time>
  <course>248.41</course>
  <speed>0.0</speed>
  <fix>3d</fix>
</trkpt>
<trkpt lat="40.0713749" lon="-105.229789">
  <ele>1583.0</ele>
  <time>2026-08-28T17:49:12Z</time>
  <course>0.0</course>
  <speed>0.0</speed>
  <fix>3d</fix>
</trkpt>
<trkpt lat="40.0713749" lon="-105.229789">
  <ele>1583.0</ele>
  <time>2026-08-28T17:49:12Z</time>
  <course>248.41</course>
  <speed>0.0</speed>
  <fix>3d</fix>
</trkpt>
<trkpt lat="40.0713749" lon="-105.229789">
  <ele>1583.0</ele>
  <time>2026-08-28T17:49:12Z</time>
  <course>0.0</course>
  <speed>0.0</speed>
  <fix>3d</fix>
</trkpt>
<trkpt lat="40.0713749" lon="-105.229789">
  <ele>1583.0</ele>
  <time>2026-08-28T17:49:12Z</time>
  <course>248.41</course>
  <speed>0.0</speed>
  <fix>3d</fix>
</trkpt>
<trkpt lat="40.0713749" lon="-105.229789">
  <ele>1583.0</ele>
  <time>2026-08-28T17:49:12Z</time>
  <course>0.0</course>
  <speed>0.0</speed>
  <fix>3d</fix>
</trkpt>
<trkpt lat="40.0713749" lon="-105.229789">
  <ele>1583.0</ele>
  <time>2026-08-28T17:49:12Z</time>
  <course>248.41</course>
  <speed>0.0</speed>
  <fix>3d</fix>
</trkpt>
<trkpt lat="40.0713749" lon="-105.229789">
  <ele>1583.0</ele>
  <time>2026-08-28T17:49:12Z</time>
  <course>0.0</course>
  <speed>0.0</speed>
  <fix>3d</fix>
</trkpt>
<trkpt lat="40.0713749" lon="-105.229789">
  <ele>1583.0</ele>
  <time>2026-08-28T17:49:12Z</time>
  <course>248.41</course>
  <speed>0.0</speed>
  <fix>3d</fix>
</trkpt>
<trkpt lat="40.0713749" lon="-105.229789">
  <ele>1583.0</ele>
  <time>2026-08-28T17:49:12Z</time>
  <course>0.0</course>
  <speed>0.0</speed>
  <fix>3d</fix>
</trkpt>
<trkpt lat="40.0713749" lon="-105.229789">
  <ele>1583.0</ele>
  <time>2026-08-28T17:49:12Z</time>
  <course>248.41</course>
  <speed>0.0</speed>
  <fix>3d</fix>
</trkpt>
<trkpt lat="40.0713749" lon="-105.229789">
  <ele>1583.0</ele>
  <time>2026-08-28T17:49:12Z</time>
  <course>0.0</course>
  <speed>0.0</speed>
  <fix>3d</fix>
</trkpt>
<trkpt lat="40.0713749" lon="-105.229789">
  <ele>1583.0</ele>
  <time>2026-08-28T17:49:12Z</time>
  <course>248.41</course>
  <speed>0.0</speed>
  <fix>3d</fix>
</trkpt>
<trkpt lat="40.0713749" lon="-105.229789">
  <ele>1583.0</ele>
  <time>2026-08-28T17:49:12Z</time>
  <course>0.0</course>
  <speed>0.0</speed>
  <fix>3d</fix>
</trkpt>
<trkpt lat="40.0713749" lon="-105.229789">
  <ele>1583.0</ele>
  <time>2026-08-28T17:49:12Z</time>
  <course>248.41</course>
  <speed>0.0</speed>
  <fix>3d</fix>
</trkpt>
<trkpt lat="40.0713749" lon="-105.229789">
  <ele>1583.0</ele>
  <time>2026-08-28T17:49:12Z</time>
  <course>0.0</course>
  <speed>0.0</speed>
  <fix>3d</fix>
</trkpt>
<trkpt lat="40.0713749" lon="-105.229789">
  <ele>1583.0</ele>
  <time>2026-08-28T17:49:12Z</time>
  <course>248.41</course>
  <speed>0.0</speed>
  <fix>3d</fix>
</trkpt>
<trkpt lat="40.0713749" lon="-105.229789">
  <ele>1583.0</ele>
  <time>2026-08-28T17:49:12Z</time>
  <course>0.0</course>
  <speed>0.0</speed>
  <fix>3d</fix>
</trkpt>
<trkpt lat="40.0713749" lon="-105.229789">
  <ele>1583.0</ele>
  <time>2026-08-28T17:49:12Z</time>
  <course>248.41</course>
  <speed>0.0</speed>
  <fix>3d</fix>
</trkpt>
<trkpt lat="40.0713749" lon="-105.229789">
  <ele>1583.0</ele>
  <time>2026-08-28T17:49:12Z</time>
  <course>0.0</course>
  <speed>0.0</speed>
  <fix>3d</fix>
</trkpt>
<trkpt lat="40.0713749" lon="-105.229789">
  <ele>1583.0</ele>
  <time>2026-08-28T17:49:12Z</time>
  <course>248.41</course>
  <speed>0.0</speed>
  <fix>3d</fix>
</trkpt>
<trkpt lat="40.0713749" lon="-105.229789">
  <ele>1583.0</ele>
  <time>2026-08-28T17:49:12Z</time>
  <course>0.0</course>
  <speed>0.0</speed>
  <fix>3d</fix>
</trkpt>
<trkpt lat="40.0713749" lon="-105.229789">
  <ele>1583.0</ele>
  <time>2026-08-28T17:49:12Z</time>
  <course>248.41</course>
  <speed>0.0</speed>
  <fix>3d</fix>
</trkpt>
<trkpt lat="40.0713749" lon="-105.229789">
  <ele>1583.0</ele>
  <time>2026-08-28T17:49:12Z</time>
  <course>0.0</course>
  <speed>0.0</speed>
  <fix>3d</fix>
</trkpt>
<trkpt lat="40.0713749" lon="-105.229789">
  <ele>1583.0</ele>
  <time>2026-08-28T17:49:12Z</time>
  <course>248.4</course>
  <speed>0.0</speed>
  <fix>3d</fix>
</trkpt>
<trkpt lat="40.0713749" lon="-105.229789">
  <ele>1583.0</ele>
  <time>2026-08-28T17:49:12Z</time>
  <course>0.0</course>
  <speed>0.0</speed>
  <fix>3d</fix>
</trkpt>
<trkpt lat="40.0713749" lon="-105.229789">
  <ele>1583.0</ele>
  <time>2026-08-28T17:49:12Z</time>
  <course>248.4</course>
  <speed>0.01</speed>
  <fix>3d</fix>
</trkpt>
<trkpt lat="40.0713749" lon="-105.229789">
  <ele>1583.0</ele>
  <time>2026-08-28T17:49:12Z</time>
  <course>0.0</course>
  <speed>0.0</speed>
  <fix>3d</fix>
</trkpt>
<trkpt lat="40.0713749" lon="-105.229789">
  <ele>1583.0</ele>
  <time>2026-08-28T17:49:12Z</time>
  <course>248.4</course>
  <speed>0.01</speed>
  <fix>3d</fix>
</trkpt>
<trkpt lat="40.0713749" lon="-105.229789">
  <ele>1583.0</ele>
  <time>2026-08-28T17:49:12Z</time>
  <course>0.0</course>
  <speed>0.0</speed>
  <fix>3d</fix>
</trkpt>
<trkpt lat="40.0713749" lon="-105.229789">
  <ele>1583.0</ele>
  <time>2026-08-28T17:49:12Z</time>
  <course>248.4</course>
  <speed>0.01</speed>
  <fix>3d</fix>
</trkpt>
<trkpt lat="40.0713749" lon="-105.229789">
  <ele>1583.0</ele>
  <time>2026-08-28T17:49:12Z</time>
  <course>0.0</course>
  <speed>0.0</speed>
  <fix>3d</fix>
</trkpt>
<trkpt lat="40.0713749" lon="-105.229789">
  <ele>1583.0</ele>
  <time>2026-08-28T17:49:12Z</time>
  <course>248.4</course>
  <speed>0.01</speed>
  <fix>3d</fix>
</trkpt>
<trkpt lat="40.0713749" lon="-105.229789">
  <ele>1583.0</ele>
  <time>2026-08-28T17:49:12Z</time>
  <course>0.0</course>
  <speed>0.0</speed>
  <fix>3d</fix>
</trkpt>
<trkpt lat="40.0713749" lon="-105.229789">
  <ele>1583.0</ele>
  <time>2026-08-28T17:49:12Z</time>
  <course>248.39</course>
  <speed>0.01</speed>
  <fix>3d</fix>
</trkpt>
<trkpt lat="40.0713749" lon="-105.229789">
  <ele>1583.0</ele>
  <time>2026-08-28T17:49:12Z</time>
  <course>0.0</course>
  <speed>0.0</speed>
  <fix>3d</fix>
</trkpt>
<trkpt lat="40.0713749" lon="-105.229789">
  <ele>1583.0</ele>
  <time>2026-08-28T17:49:12Z</time>
  <course>248.39</course>
  <speed>0.01</speed>
  <fix>3d</fix>
</trkpt>
<trkpt lat="40.0713749" lon="-105.229789">
  <ele>1583.0</ele>
  <time>2026-08-28T17:49:12Z</time>
  <course>0.0</course>
  <speed>0.0</speed>
  <fix>3d</fix>
</trkpt>
<trkpt lat="40.0713749" lon="-105.229789">
  <ele>1583.0</ele>
  <time>2026-08-28T17:49:12Z</time>
  <course>248.39</course>
  <speed>0.01</speed>
  <fix>3d</fix>
</trkpt>
<trkpt lat="40.0713749" lon="-105.229789">
  <ele>1583.0</ele>
  <time>2026-08-28T17:49:12Z</time>
  <course>0.0</course>
  <speed>0.0</speed>
  <fix>3d</fix>
</trkpt>
<trkpt lat="40.0713749" lon="-105.229789">
  <ele>1583.0</ele>
  <time>2026-08-28T17:49:12Z</time>
  <course>248.38</course>
  <speed>0.01</speed>
  <fix>3d</fix>
</trkpt>
<trkpt lat="40.0713749" lon="-105.229789">
  <ele>1583.0</ele>
  <time>2026-08-28T17:49:12Z</time>
  <course>0.0</course>
  <speed>0.0</speed>
  <fix>3d</fix>
</trkpt>
<trkpt lat="40.0713749" lon="-105.229789">
  <ele>1583.0</ele>
  <time>2026-08-28T17:49:12Z</time>
  <course>248.38</course>
  <speed>0.01</speed>
  <fix>3d</fix>
</trkpt>
<trkpt lat="40.0713749" lon="-105.229789">
  <ele>1583.0</ele>
  <time>2026-08-28T17:49:12Z</time>
  <course>0.0</course>
  <speed>0.0</speed>
  <fix>3d</fix>
</trkpt>
<trkpt lat="40.0713749" lon="-105.229789">
  <ele>1583.0</ele>
  <time>2026-08-28T17:49:12Z</time>
  <course>248.38</course>
  <speed>0.01</speed>
  <fix>3d</fix>
</trkpt>
<trkpt lat="40.0713749" lon="-105.229789">
  <ele>1583.0</ele>
  <time>2026-08-28T17:49:12Z</time>
  <course>0.0</course>
  <speed>0.0</speed>
  <fix>3d</fix>
</trkpt>
<trkpt lat="40.0713749" lon="-105.229789">
  <ele>1583.0</ele>
  <time>2026-08-28T17:49:12Z</time>
  <course>248.37</course>
  <speed>0.01</speed>
  <fix>3d</fix>
</trkpt>
<trkpt lat="40.0713749" lon="-105.229789">
  <ele>1583.0</ele>
  <time>2026-08-28T17:49:12Z</time>
  <course>0.0</course>
  <speed>0.0</speed>
  <fix>3d</fix>
</trkpt>
<trkpt lat="40.0713749" lon="-105.229789">
  <ele>1583.0</ele>
  <time>2026-08-28T17:49:12Z</time>
  <course>248.37</course>
  <speed>0.01</speed>
  <fix>3d</fix>
</trkpt>
<trkpt lat="40.0713749" lon="-105.229789">
  <ele>1583.0</ele>
  <time>2026-08-28T17:49:12Z</time>
  <course>0.0</course>
  <speed>0.0</speed>
  <fix>3d</fix>
</trkpt>
<trkpt lat="40.0713749" lon="-105.229789">
  <ele>1583.0</ele>
  <time>2026-08-28T17:49:12Z</time>
  <course>248.37</course>
  <speed>0.01</speed>
  <fix>3d</fix>
</trkpt>
<trkpt lat="40.0713749" lon="-105.229789">
  <ele>1583.0</ele>
  <time>2026-08-28T17:49:12Z</time>
  <course>0.0</course>
  <speed>0.0</speed>
  <fix>3d</fix>
</trkpt>
<trkpt lat="40.0713749" lon="-105.229789">
  <ele>1583.0</ele>
  <time>2026-08-28T17:49:12Z</time>
  <course>248.36</course>
  <speed>0.01</speed>
  <fix>3d</fix>
</trkpt>
<trkpt lat="40.0713749" lon="-105.229789">
  <ele>1583.0</ele>
  <time>2026-08-28T17:49:12Z</time>
  <course>0.0</course>
  <speed>0.0</speed>
  <fix>3d</fix>
</trkpt>
<trkpt lat="40.0713749" lon="-105.229789">
  <ele>1583.0</ele>
  <time>2026-08-28T17:49:12Z</time>
  <course>248.36</course>
  <speed>0.01</speed>
  <fix>3d</fix>
</trkpt>
<trkpt lat="40.0713749" lon="-105.229789">
  <ele>1583.0</ele>
  <time>2026-08-28T17:49:12Z</time>
  <course>0.0</course>
  <speed>0.0</speed>
  <fix>3d</fix>
</trkpt>
<trkpt lat="40.0713749" lon="-105.229789">
  <ele>1583.0</ele>
  <time>2026-08-28T17:49:12Z</time>
  <course>248.36</course>
  <speed>0.01</speed>
  <fix>3d</fix>
</trkpt>
<trkpt lat="40.0713749" lon="-105.229789">
  <ele>1583.0</ele>
  <time>2026-08-28T17:49:12Z</time>
  <course>0.0</course>
  <speed>0.0</speed>
  <fix>3d</fix>
</trkpt>
<trkpt lat="40.0713749" lon="-105.229789">
  <ele>1583.0</ele>
  <time>2026-08-28T17:49:12Z</time>
  <course>248.35</course>
  <speed>0.01</speed>
  <fix>3d</fix>
</trkpt>
<trkpt lat="40.0713749" lon="-105.229789">
  <ele>1583.0</ele>
  <time>2026-08-28T17:49:12Z</time>
  <course>0.0</course>
  <speed>0.0</speed>
  <fix>3d</fix>
</trkpt>
<trkpt lat="40.0713749" lon="-105.229789">
  <ele>1583.0</ele>
  <time>2026-08-28T17:49:12Z</time>
  <course>248.35</course>
  <speed>0.01</speed>
  <fix>3d</fix>
</trkpt>
<trkpt lat="40.0713749" lon="-105.229789">
  <ele>1583.0</ele>
  <time>2026-08-28T17:49:12Z</time>
  <course>0.0</course>
  <speed>0.0</speed>
  <fix>3d</fix>
</trkpt>
<trkpt lat="40.0713749" lon="-105.229789">
  <ele>1583.0</ele>
  <time>2026-08-28T17:49:12Z</time>
  <course>248.35</course>
  <speed>0.01</speed>
  <fix>3d</fix>
</trkpt>
<trkpt lat="40.0713749" lon="-105.229789">
  <ele>1583.0</ele>
  <time>2026-08-28T17:49:12Z</time>
  <course>0.0</course>
  <speed>0.0</speed>
  <fix>3d</fix>
</trkpt>
<trkpt lat="40.0713749" lon="-105.229789">
  <ele>1583.0</ele>
  <time>2026-08-28T17:49:12Z</time>
  <course>248.34</course>
  <speed>0.01</speed>
  <fix>3d</fix>
</trkpt>
<trkpt lat="40.0713749" lon="-105.229789">
  <ele>1583.0</ele>
  <time>2026-08-28T17:49:12Z</time>
  <course>0.0</course>
  <speed>0.0</speed>
  <fix>3d</fix>
</trkpt>
<trkpt lat="40.0713749" lon="-105.229789">
  <ele>1583.0</ele>
  <time>2026-08-28T17:49:12Z</time>
  <course>248.34</course>
  <speed>0.01</speed>
  <fix>3d</fix>
</trkpt>
<trkpt lat="40.0713749" lon="-105.229789">
  <ele>1583.0</ele>
  <time>2026-08-28T17:49:12Z</time>
  <course>0.0</course>
  <speed>0.0</speed>
  <fix>3d</fix>
</trkpt>
<trkpt lat="40.0713749" lon="-105.229789">
  <ele>1583.0</ele>
  <time>2026-08-28T17:49:12Z</time>
  <course>248.33</course>
  <speed>0.01</speed>
  <fix>3d</fix>
</trkpt>
<trkpt lat="40.0713749" lon="-105.229789">
  <ele>1583.0</ele>
  <time>2026-08-28T17:49:12Z</time>
  <course>0.0</course>
  <speed>0.0</speed>
  <fix>3d</fix>
</trkpt>
<trkpt lat="40.0713749" lon="-105.229789">
  <ele>1583.0</ele>
  <time>2026-08-28T17:49:12Z</time>
  <course>248.33</course>
  <speed>0.01</speed>
  <fix>3d</fix>
</trkpt>
<trkpt lat="40.0713749" lon="-105.229789">
  <ele>1583.0</ele>
  <time>2026-08-28T17:49:12Z</time>
  <course>0.0</course>
  <speed>0.0</speed>
  <fix>3d</fix>
</trkpt>
<trkpt lat="40.0713749" lon="-105.229789">
  <ele>1583.0</ele>
  <time>2026-08-28T17:49:12Z</time>
  <course>248.32</course>
  <speed>0.01</speed>
  <fix>3d</fix>
</trkpt>
<trkpt lat="40.0713749" lon="-105.229789">
  <ele>1583.0</ele>
  <time>2026-08-28T17:49:12Z</time>
  <course>0.0</course>
  <speed>0.0</speed>
  <fix>3d</fix>
</trkpt>
<trkpt lat="40.0713749" lon="-105.229789">
  <ele>1583.0</ele>
  <time>2026-08-28T17:49:12Z</time>
  <course>248.32</course>
  <speed>0.01</speed>
  <fix>3d</fix>
</trkpt>
<trkpt lat="40.0713749" lon="-105.229789">
  <ele>1583.0</ele>
  <time>2026-08-28T17:49:12Z</time>
  <course>0.0</course>
  <speed>0.0</speed>
  <fix>3d</fix>
</trkpt>
<trkpt lat="40.0713749" lon="-105.229789">
  <ele>1583.0</ele>
  <time>2026-08-28T17:49:12Z</time>
  <course>248.32</course>
  <speed>0.01</speed>
  <fix>3d</fix>
</trkpt>
<trkpt lat="40.0713749" lon="-105.229789">
  <ele>1583.0</ele>
  <time>2026-08-28T17:49:12Z</time>
  <course>0.0</course>
  <speed>0.0</speed>
  <fix>3d</fix>
</trkpt>
<trkpt lat="40.0713749" lon="-105.229789">
  <ele>1583.0</ele>
  <time>2026-08-28T17:49:12Z</time>
  <course>248.31</course>
  <speed>0.01</speed>
  <fix>3d</fix>
</trkpt>
<trkpt lat="40.0713749" lon="-105.229789">
  <ele>1583.0</ele>
  <time>2026-08-28T17:49:12Z</time>
  <course>0.0</course>
  <speed>0.0</speed>
  <fix>3d</fix>
</trkpt>
<trkpt lat="40.0713749" lon="-105.229789">
  <ele>1583.0</ele>
  <time>2026-08-28T17:49:12Z</time>
  <course>248.31</course>
  <speed>0.01</speed>
  <fix>3d</fix>
</trkpt>
<trkpt lat="40.0713749" lon="-105.229789">
  <ele>1583.0</ele>
  <time>2026-08-28T17:49:12Z</time>
  <course>0.0</course>
  <speed>0.0</speed>
  <fix>3d</fix>
</trkpt>
<trkpt lat="40.0713749" lon="-105.229789">
  <ele>1583.0</ele>
  <time>2026-08-28T17:49:12Z</time>
  <course>248.3</course>
  <speed>0.01</speed>
  <fix>3d</fix>
</trkpt>
<trkpt lat="40.0713749" lon="-105.229789">
  <ele>1583.0</ele>
  <time>2026-08-28T17:49:12Z</time>
  <course>0.0</course>
  <speed>0.0</speed>
  <fix>3d</fix>
</trkpt>
<trkpt lat="40.0713749" lon="-105.229789">
  <ele>1583.0</ele>
  <time>2026-08-28T17:49:12Z</time>
  <course>248.3</course>
  <speed>0.01</speed>
  <fix>3d</fix>
</trkpt>
<trkpt lat="40.0713749" lon="-105.229789">
  <ele>1583.0</ele>
  <time>2026-08-28T17:49:12Z</time>
  <course>0.0</course>
  <speed>0.0</speed>
  <fix>3d</fix>
</trkpt>
<trkpt lat="40.0713749" lon="-105.229789">
  <ele>1583.0</ele>
  <time>2026-08-28T17:49:12Z</time>
  <course>248.29</course>
  <speed>0.01</speed>
  <fix>3d</fix>
</trkpt>
<trkpt lat="40.0713749" lon="-105.229789">
  <ele>1583.0</ele>
  <time>2026-08-28T17:49:12Z</time>
  <course>0.0</course>
  <speed>0.0</speed>
  <fix>3d</fix>
</trkpt>
<trkpt lat="40.0713749" lon="-105.229789">
  <ele>1583.0</ele>
  <time>2026-08-28T17:49:12Z</time>
  <course>248.29</course>
  <speed>0.01</speed>
  <fix>3d</fix>
</trkpt>
<trkpt lat="40.0713749" lon="-105.229789">
  <ele>1583.0</ele>
  <time>2026-08-28T17:49:12Z</time>
  <course>0.0</course>
  <speed>0.0</speed>
  <fix>3d</fix>
</trkpt>
<trkpt lat="40.0713749" lon="-105.229789">
  <ele>1583.0</ele>
  <time>2026-08-28T17:49:12Z</time>
  <course>248.28</course>
  <speed>0.01</speed>
  <fix>3d</fix>
</trkpt>
<trkpt lat="40.0713749" lon="-105.229789">
  <ele>1583.0</ele>
  <time>2026-08-28T17:49:12Z</time>
  <course>0.0</course>
  <speed>0.0</speed>
  <fix>3d</fix>
</trkpt>
<trkpt lat="40.0713749" lon="-105.229789">
  <ele>1583.0</ele>
  <time>2026-08-28T17:49:12Z</time>
  <course>248.28</course>
  <speed>0.01</speed>
  <fix>3d</fix>
</trkpt>
<trkpt lat="40.0713749" lon="-105.229789">
  <ele>1583.0</ele>
  <time>2026-08-28T17:49:12Z</time>
  <course>0.0</course>
  <speed>0.0</speed>
  <fix>3d</fix>
</trkpt>
<trkpt lat="40.0713749" lon="-105.229789">
  <ele>1583.0</ele>
  <time>2026-08-28T17:49:12Z</time>
  <course>248.27</course>
  <speed>0.01</speed>
  <fix>3d</fix>
</trkpt>
<trkpt lat="40.0713749" lon="-105.229789">
  <ele>1583.0</ele>
  <time>2026-08-28T17:49:12Z</time>
  <course>0.0</course>
  <speed>0.0</speed>
  <fix>3d</fix>
</trkpt>
<trkpt lat="40.0713749" lon="-105.229789">
  <ele>1583.0</ele>
  <time>2026-08-28T17:49:12Z</time>
  <course>248.27</course>
  <speed>0.01</speed>
  <fix>3d</fix>
</trkpt>
<trkpt lat="40.0713749" lon="-105.229789">
  <ele>1583.0</ele>
  <time>2026-08-28T17:49:12Z</time>
  <course>0.0</course>
  <speed>0.0</speed>
  <fix>3d</fix>
</trkpt>
<trkpt lat="40.0713749" lon="-105.229789">
  <ele>1583.0</ele>
  <time>2026-08-28T17:49:12Z</time>
  <course>248.26</course>
  <speed>0.01</speed>
  <fix>3d</fix>
</trkpt>
<trkpt lat="40.0713749" lon="-105.229789">
  <ele>1583.0</ele>
  <time>2026-08-28T17:49:12Z</time>
  <course>0.0</course>
  <speed>0.0</speed>
  <fix>3d</fix>
</trkpt>
<trkpt lat="40.0713749" lon="-105.229789">
  <ele>1583.0</ele>
  <time>2026-08-28T17:49:12Z</time>
  <course>248.26</course>
  <speed>0.01</speed>
  <fix>3d</fix>
</trkpt>
<trkpt lat="40.0713749" lon="-105.229789">
  <ele>1583.0</ele>
  <time>2026-08-28T17:49:12Z</time>
  <course>0.0</course>
  <speed>0.0</speed>
  <fix>3d</fix>
</trkpt>
<trkpt lat="40.0713749" lon="-105.229789">
  <ele>1583.0</ele>
  <time>2026-08-28T17:49:12Z</time>
  <course>248.26</course>
  <speed>0.01</speed>
  <fix>3d</fix>
</trkpt>
<trkpt lat="40.0713749" lon="-105.229789">
  <ele>1583.0</ele>
  <time>2026-08-28T17:49:12Z</time>
  <course>0.0</course>
  <speed>0.0</speed>
  <fix>3d</fix>
</trkpt>
<trkpt lat="40.0713749" lon="-105.229789">
  <ele>1583.0</ele>
  <time>2026-08-28T17:49:12Z</time>
  <course>248.25</course>
  <speed>0.01</speed>
  <fix>3d</fix>
</trkpt>
<trkpt lat="40.0713749" lon="-105.229789">
  <ele>1583.0</ele>
  <time>2026-08-28T17:49:12Z</time>
  <course>0.0</course>
  <speed>0.0</speed>
  <fix>3d</fix>
</trkpt>
<trkpt lat="40.0713749" lon="-105.229789">
  <ele>1583.0</ele>
  <time>2026-08-28T17:49:12Z</time>
  <course>248.25</course>
  <speed>0.01</speed>
  <fix>3d</fix>
</trkpt>
<trkpt lat="40.0713749" lon="-105.229789">
  <ele>1583.0</ele>
  <time>2026-08-28T17:49:12Z</time>
  <course>0.0</course>
  <speed>0.0</speed>
  <fix>3d</fix>
</trkpt>
<trkpt lat="40.0713749" lon="-105.229789">
  <ele>1583.0</ele>
  <time>2026-08-28T17:49:12Z</time>
  <course>248.24</course>
  <speed>0.01</speed>
  <fix>3d</fix>
</trkpt>
<trkpt lat="40.0713749" lon="-105.229789">
  <ele>1583.0</ele>
  <time>2026-08-28T17:49:12Z</time>
  <course>0.0</course>
  <speed>0.0</speed>
  <fix>3d</fix>
</trkpt>
<trkpt lat="40.0713749" lon="-105.229789">
  <ele>1583.0</ele>
  <time>2026-08-28T17:49:12Z</time>
  <course>248.24</course>
  <speed>0.01</speed>
  <fix>3d</fix>
</trkpt>
<trkpt lat="40.0713749" lon="-105.229789">
  <ele>1583.0</ele>
  <time>2026-08-28T17:49:12Z</time>
  <course>0.0</course>
  <speed>0.0</speed>
  <fix>3d</fix>
</trkpt>
<trkpt lat="40.0713749" lon="-105.229789">
  <ele>1583.0</ele>
  <time>2026-08-28T17:49:12Z</time>
  <course>248.23</course>
  <speed>0.01</speed>
  <fix>3d</fix>
</trkpt>
<trkpt lat="40.0713749" lon="-105.229789">
  <ele>1583.0</ele>
  <time>2026-08-28T17:49:12Z</time>
  <course>0.0</course>
  <speed>0.0</speed>
  <fix>3d</fix>
</trkpt>
<trkpt lat="40.0713749" lon="-105.229789">
  <ele>1583.0</ele>
  <time>2026-08-28T17:49:12Z</time>
  <course>248.23</course>
  <speed>0.01</speed>
  <fix>3d</fix>
</trkpt>
<trkpt lat="40.0713749" lon="-105.229789">
  <ele>1583.0</ele>
  <time>2026-08-28T17:49:12Z</time>
  <course>0.0</course>
  <speed>0.0</speed>
  <fix>3d</fix>
</trkpt>
<trkpt lat="40.0713749" lon="-105.229789">
  <ele>1583.0</ele>
  <time>2026-08-28T17:49:12Z</time>
  <course>248.22</course>
  <speed>0.01</speed>
  <fix>3d</fix>
</trkpt>
<trkpt lat="40.0713749" lon="-105.229789">
  <ele>1583.0</ele>
  <time>2026-08-28T17:49:12Z</time>
  <course>0.0</course>
  <speed>0.0</speed>
  <fix>3d</fix>
</trkpt>
<trkpt lat="40.0713749" lon="-105.229789">
  <ele>1583.0</ele>
  <time>2026-08-28T17:49:12Z</time>
  <course>248.22</course>
  <speed>0.01</speed>
  <fix>3d</fix>
</trkpt>
<trkpt lat="40.0713749" lon="-105.229789">
  <ele>1583.0</ele>
  <time>2026-08-28T17:49:12Z</time>
  <course>0.0</course>
  <speed>0.0</speed>
  <fix>3d</fix>
</trkpt>
<trkpt lat="40.0713749" lon="-105.229789">
  <ele>1583.0</ele>
  <time>2026-08-28T17:49:12Z</time>
  <course>248.21</course>
  <speed>0.01</speed>
  <fix>3d</fix>
</trkpt>
<trkpt lat="40.0713749" lon="-105.229789">
  <ele>1583.0</ele>
  <time>2026-08-28T17:49:12Z</time>
  <course>0.0</course>
  <speed>0.0</speed>
  <fix>3d</fix>
</trkpt>
<trkpt lat="40.0713749" lon="-105.229789">
  <ele>1583.0</ele>
  <time>2026-08-28T17:49:12Z</time>
  <course>248.21</course>
  <speed>0.01</speed>
  <fix>3d</fix>
</trkpt>
<trkpt lat="40.0713749" lon="-105.229789">
  <ele>1583.0</ele>
  <time>2026-08-28T17:49:12Z</time>
  <course>0.0</course>
  <speed>0.0</speed>
  <fix>3d</fix>
</trkpt>
<trkpt lat="40.0713749" lon="-105.229789">
  <ele>1583.0</ele>
  <time>2026-08-28T17:49:12Z</time>
  <course>248.2</course>
  <speed>0.01</speed>
  <fix>3d</fix>
</trkpt>
<trkpt lat="40.0713749" lon="-105.229789">
  <ele>1583.0</ele>
  <time>2026-08-28T17:49:12Z</time>
  <course>0.0</course>
  <speed>0.0</speed>
  <fix>3d</fix>
</trkpt>
<trkpt lat="40.0713749" lon="-105.229789">
  <ele>1583.0</ele>
  <time>2026-08-28T17:49:12Z</time>
  <course>248.2</course>
  <speed>0.01</speed>
  <fix>3d</fix>
</trkpt>
<trkpt lat="40.0713749" lon="-105.229789">
  <ele>1583.0</ele>
  <time>2026-08-28T17:49:12Z</time>
  <course>0.0</course>
  <speed>0.0</speed>
  <fix>3d</fix>
</trkpt>
<trkpt lat="40.0713749" lon="-105.229789">
  <ele>1583.0</ele>
  <time>2026-08-28T17:49:12Z</time>
  <course>248.19</course>
  <speed>0.01</speed>
  <fix>3d</fix>
</trkpt>
<trkpt lat="40.0713749" lon="-105.229789">
  <ele>1583.0</ele>
  <time>2026-08-28T17:49:12Z</time>
  <course>0.0</course>
  <speed>0.0</speed>
  <fix>3d</fix>
</trkpt>
<trkpt lat="40.0713749" lon="-105.229789">
  <ele>1583.0</ele>
  <time>2026-08-28T17:49:12Z</time>
  <course>248.19</course>
  <speed>0.01</speed>
  <fix>3d</fix>
</trkpt>
<trkpt lat="40.0713749" lon="-105.229789">
  <ele>1583.0</ele>
  <time>2026-08-28T17:49:12Z</time>
  <course>0.0</course>
  <speed>0.0</speed>
  <fix>3d</fix>
</trkpt>
<trkpt lat="40.0713749" lon="-105.229789">
  <ele>1583.0</ele>
  <time>2026-08-28T17:49:12Z</time>
  <course>248.18</course>
  <speed>0.01</speed>
  <fix>3d</fix>
</trkpt>
<trkpt lat="40.0713749" lon="-105.229789">
  <ele>1583.0</ele>
  <time>2026-08-28T17:49:12Z</time>
  <course>0.0</course>
  <speed>0.0</speed>
  <fix>3d</fix>
</trkpt>
<trkpt lat="40.0713749" lon="-105.229789">
  <ele>1583.0</ele>
  <time>2026-08-28T17:49:12Z</time>
  <course>248.18</course>
  <speed>0.01</speed>
  <fix>3d</fix>
</trkpt>
<trkpt lat="40.0713749" lon="-105.229789">
  <ele>1583.0</ele>
  <time>2026-08-28T17:49:12Z</time>
  <course>0.0</course>
  <speed>0.0</speed>
  <fix>3d</fix>
</trkpt>
<trkpt lat="40.0713749" lon="-105.229789">
  <ele>1583.0</ele>
  <time>2026-08-28T17:49:12Z</time>
  <course>248.17</course>
  <speed>0.022360679774997897</speed>
  <fix>3d</fix>
</trkpt>
<trkpt lat="40.0713749" lon="-105.229789">
  <ele>1583.0</ele>
  <time>2026-08-28T17:49:12Z</time>
  <course>0.0</course>
  <speed>0.0</speed>
  <fix>3d</fix>
</trkpt>
<trkpt lat="40.0713749" lon="-105.229789">
  <ele>1583.0</ele>
  <time>2026-08-28T17:49:12Z</time>
  <course>248.17</course>
  <speed>0.022360679774997897</speed>
  <fix>3d</fix>
</trkpt>
<trkpt lat="40.0713749" lon="-105.229789">
  <ele>1583.0</ele>
  <time>2026-08-28T17:49:12Z</time>
  <course>0.0</course>
  <speed>0.0</speed>
  <fix>3d</fix>
</trkpt>
<trkpt lat="40.0713749" lon="-105.229789">
  <ele>1583.0</ele>
  <time>2026-08-28T17:49:12Z</time>
  <course>248.16</course>
  <speed>0.022360679774997897</speed>
  <fix>3d</fix>
</trkpt>
<trkpt lat="40.0713749" lon="-105.229789">
  <ele>1583.0</ele>
  <time>2026-08-28T17:49:12Z</time>
  <course>0.0</course>
  <speed>0.0</speed>
  <fix>3d</fix>
</trkpt>
<trkpt lat="40.0713749" lon="-105.229789">
  <ele>1583.0</ele>
  <time>2026-08-28T17:49:12Z</time>
  <course>248.16</course>
  <speed>0.022360679774997897</speed>
  <fix>3d</fix>
</trkpt>
<trkpt lat="40.0713749" lon="-105.229789">
  <ele>1583.0</ele>
  <time>2026-08-28T17:49:12Z</time>
  <course>0.0</course>
  <speed>0.0</speed>
  <fix>3d</fix>
</trkpt>
<trkpt lat="40.0713749" lon="-105.229789">
  <ele>1583.0</ele>
  <time>2026-08-28T17:49:12Z</time>
  <course>248.15</course>
  <speed>0.022360679774997897</speed>
  <fix>3d</fix>
</trkpt>
<trkpt lat="40.0713749" lon="-105.229789">
  <ele>1583.0</ele>
  <time>2026-08-28T17:49:12Z</time>
  <course>0.0</course>
  <speed>0.0</speed>
  <fix>3d</fix>
</trkpt>
<trkpt lat="40.0713749" lon="-105.229789">
  <ele>1583.0</ele>
  <time>2026-08-28T17:49:12Z</time>
  <course>248.15</course>
  <speed>0.022360679774997897</speed>
  <fix>3d</fix>
</trkpt>
<trkpt lat="40.0713749" lon="-105.229789">
  <ele>1583.0</ele>
  <time>2026-08-28T17:49:12Z</time>
  <course>0.0</course>
  <speed>0.0</speed>
  <fix>3d</fix>
</trkpt>
<trkpt lat="40.0713749" lon="-105.229789">
  <ele>1583.0</ele>
  <time>2026-08-28T17:49:12Z</time>
  <course>248.14</course>
  <speed>0.022360679774997897</speed>
  <fix>3d</fix>
</trkpt>
<trkpt lat="40.0713749" lon="-105.229789">
  <ele>1583.0</ele>
  <time>2026-08-28T17:49:12Z</time>
  <course>0.0</course>
  <speed>0.0</speed>
  <fix>3d</fix>
</trkpt>
<trkpt lat="40.0713749" lon="-105.229789">
  <ele>1583.0</ele>
  <time>2026-08-28T17:49:12Z</time>
  <course>248.14</course>
  <speed>0.022360679774997897</speed>
  <fix>3d</fix>
</trkpt>
<trkpt lat="40.0713749" lon="-105.229789">
  <ele>1583.0</ele>
  <time>2026-08-28T17:49:12Z</time>
  <course>0.0</course>
  <speed>0.0</speed>
  <fix>3d</fix>
</trkpt>
<trkpt lat="40.0713749" lon="-105.229789">
  <ele>1583.0</ele>
  <time>2026-08-28T17:49:12Z</time>
  <course>248.13</course>
  <speed>0.022360679774997897</speed>
  <fix>3d</fix>
</trkpt>
<trkpt lat="40.0713749" lon="-105.229789">
  <ele>1583.0</ele>
  <time>2026-08-28T17:49:12Z</time>
  <course>0.0</course>
  <speed>0.0</speed>
  <fix>3d</fix>
</trkpt>
<trkpt lat="40.0713749" lon="-105.229789">
  <ele>1583.0</ele>
  <time>2026-08-28T17:49:12Z</time>
  <course>248.13</course>
  <speed>0.022360679774997897</speed>
  <fix>3d</fix>
</trkpt>
<trkpt lat="40.0713749" lon="-105.229789">
  <ele>1583.0</ele>
  <time>2026-08-28T17:49:12Z</time>
  <course>0.0</course>
  <speed>0.0</speed>
  <fix>3d</fix>
</trkpt>
<trkpt lat="40.0713749" lon="-105.229789">
  <ele>1583.0</ele>
  <time>2026-08-28T17:49:12Z</time>
  <course>248.12</course>
  <speed>0.022360679774997897</speed>
  <fix>3d</fix>
</trkpt>
<trkpt lat="40.0713749" lon="-105.229789">
  <ele>1583.0</ele>
  <time>2026-08-28T17:49:12Z</time>
  <course>0.0</course>
  <speed>0.0</speed>
  <fix>3d</fix>
</trkpt>
<trkpt lat="40.0713749" lon="-105.229789">
  <ele>1583.0</ele>
  <time>2026-08-28T17:49:12Z</time>
  <course>248.12</course>
  <speed>0.022360679774997897</speed>
  <fix>3d</fix>
</trkpt>
<trkpt lat="40.0713749" lon="-105.229789">
  <ele>1583.0</ele>
  <time>2026-08-28T17:49:12Z</time>
  <course>0.0</course>
  <speed>0.0</speed>
  <fix>3d</fix>
</trkpt>
<trkpt lat="40.0713749" lon="-105.229789">
  <ele>1583.0</ele>
  <time>2026-08-28T17:49:12Z</time>
  <course>248.11</course>
  <speed>0.022360679774997897</speed>
  <fix>3d</fix>
</trkpt>
<trkpt lat="40.0713749" lon="-105.229789">
  <ele>1583.0</ele>
  <time>2026-08-28T17:49:12Z</time>
  <course>0.0</course>
  <speed>0.0</speed>
  <fix>3d</fix>
</trkpt>
<trkpt lat="40.0713749" lon="-105.229789">
  <ele>1583.0</ele>
  <time>2026-08-28T17:49:12Z</time>
  <course>248.11</course>
  <speed>0.022360679774997897</speed>
  <fix>3d</fix>
</trkpt>
<trkpt lat="40.0713749" lon="-105.229789">
  <ele>1583.0</ele>
  <time>2026-08-28T17:49:12Z</time>
  <course>0.0</course>
  <speed>0.0</speed>
  <fix>3d</fix>
</trkpt>
<trkpt lat="40.0713749" lon="-105.229789">
  <ele>1583.0</ele>
  <time>2026-08-28T17:49:12Z</time>
  <course>248.1</course>
  <speed>0.022360679774997897</speed>
  <fix>3d</fix>
</trkpt>
<trkpt lat="40.0713749" lon="-105.229789">
  <ele>1583.0</ele>
  <time>2026-08-28T17:49:12Z</time>
  <course>0.0</course>
  <speed>0.0</speed>
  <fix>3d</fix>
</trkpt>
<trkpt lat="40.0713749" lon="-105.229789">
  <ele>1583.0</ele>
  <time>2026-08-28T17:49:12Z</time>
  <course>248.1</course>
  <speed>0.022360679774997897</speed>
  <fix>3d</fix>
</trkpt>
<trkpt lat="40.0713749" lon="-105.229789">
  <ele>1583.0</ele>
  <time>2026-08-28T17:49:12Z</time>
  <course>0.0</course>
  <speed>0.0</speed>
  <fix>3d</fix>
</trkpt>
<trkpt lat="40.0713749" lon="-105.229789">
  <ele>1583.0</ele>
  <time>2026-08-28T17:49:12Z</time>
  <course>248.09</course>
  <speed>0.022360679774997897</speed>
  <fix>3d</fix>
</trkpt>
<trkpt lat="40.0713749" lon="-105.229789">
  <ele>1583.0</ele>
  <time>2026-08-28T17:49:12Z</time>
  <course>0.0</course>
  <speed>0.0</speed>
  <fix>3d</fix>
</trkpt>
<trkpt lat="40.0713749" lon="-105.229789">
  <ele>1583.0</ele>
  <time>2026-08-28T17:49:12Z</time>
  <course>248.09</course>
  <speed>0.022360679774997897</speed>
  <fix>3d</fix>
</trkpt>
<trkpt lat="40.0713749" lon="-105.229789">
  <ele>1583.0</ele>
  <time>2026-08-28T17:49:12Z</time>
  <course>0.0</course>
  <speed>0.0</speed>
  <fix>3d</fix>
</trkpt>
<trkpt lat="40.0713749" lon="-105.229789">
  <ele>1583.0</ele>
  <time>2026-08-28T17:49:12Z</time>
  <course>248.08</course>
  <speed>0.022360679774997897</speed>
  <fix>3d</fix>
</trkpt>
<trkpt lat="40.0713749" lon="-105.229789">
  <ele>1583.0</ele>
  <time>2026-08-28T17:49:12Z</time>
  <course>0.0</course>
  <speed>0.0</speed>
  <fix>3d</fix>
</trkpt>
<trkpt lat="40.0713749" lon="-105.229789">
  <ele>1583.0</ele>
  <time>2026-08-28T17:49:12Z</time>
  <course>248.08</course>
  <speed>0.022360679774997897</speed>
  <fix>3d</fix>
</trkpt>
<trkpt lat="40.0713749" lon="-105.229789">
  <ele>1583.0</ele>
  <time>2026-08-28T17:49:12Z</time>
  <course>0.0</course>
  <speed>0.0</speed>
  <fix>3d</fix>
</trkpt>
<trkpt lat="40.0713749" lon="-105.229789">
  <ele>1583.0</ele>
  <time>2026-08-28T17:49:12Z</time>
  <course>248.07</course>
  <speed>0.022360679774997897</speed>
  <fix>3d</fix>
</trkpt>
<trkpt lat="40.0713749" lon="-105.229789">
  <ele>1583.0</ele>
  <time>2026-08-28T17:49:12Z</time>
  <course>0.0</course>
  <speed>0.0</speed>
  <fix>3d</fix>
</trkpt>
<trkpt lat="40.0713749" lon="-105.229789">
  <ele>1583.0</ele>
  <time>2026-08-28T17:49:12Z</time>
  <course>248.07</course>
  <speed>0.022360679774997897</speed>
  <fix>3d</fix>
</trkpt>
<trkpt lat="40.0713749" lon="-105.229789">
  <ele>1583.0</ele>
  <time>2026-08-28T17:49:12Z</time>
  <course>0.0</course>
  <speed>0.0</speed>
  <fix>3d</fix>
</trkpt>
<trkpt lat="40.0713749" lon="-105.229789">
  <ele>1583.0</ele>
  <time>2026-08-28T17:49:12Z</time>
  <course>248.06</course>
  <speed>0.022360679774997897</speed>
  <fix>3d</fix>
</trkpt>
<trkpt lat="40.0713749" lon="-105.229789">
  <ele>1583.0</ele>
  <time>2026-08-28T17:49:12Z</time>
  <course>0.0</course>
  <speed>0.0</speed>
  <fix>3d</fix>
</trkpt>
<trkpt lat="40.0713749" lon="-105.229789">
  <ele>1583.0</ele>
  <time>2026-08-28T17:49:12Z</time>
  <course>248.06</course>
  <speed>0.022360679774997897</speed>
  <fix>3d</fix>
</trkpt>
<trkpt lat="40.0713749" lon="-105.229789">
  <ele>1583.0</ele>
  <time>2026-08-28T17:49:12Z</time>
  <course>0.0</course>
  <speed>0.0</speed>
  <fix>3d</fix>
</trkpt>
<trkpt lat="40.0713749" lon="-105.229789">
  <ele>1583.0</ele>
  <time>2026-08-28T17:49:12Z</time>
  <course>248.05</course>
  <speed>0.022360679774997897</speed>
  <fix>3d</fix>
</trkpt>
<trkpt lat="40.0713749" lon="-105.229789">
  <ele>1583.0</ele>
  <time>2026-08-28T17:49:12Z</time>
  <course>0.0</course>
  <speed>0.0</speed>
  <fix>3d</fix>
</trkpt>
<trkpt lat="40.0713749" lon="-105.229789">
  <ele>1583.0</ele>
  <time>2026-08-28T17:49:12Z</time>
  <course>248.05</course>
  <speed>0.022360679774997897</speed>
  <fix>3d</fix>
</trkpt>
<trkpt lat="40.0713749" lon="-105.229789">
  <ele>1583.0</ele>
  <time>2026-08-28T17:49:12Z</time>
  <course>0.0</course>
  <speed>0.0</speed>
  <fix>3d</fix>
</trkpt>
<trkpt lat="40.0713749" lon="-105.229789">
  <ele>1583.0</ele>
  <time>2026-08-28T17:49:12Z</time>
  <course>248.05</course>
  <speed>0.022360679774997897</speed>
  <fix>3d</fix>
</trkpt>
<trkpt lat="40.0713749" lon="-105.229789">
  <ele>1583.0</ele>
  <time>2026-08-28T17:49:12Z</time>
  <course>0.0</course>
  <speed>0.0</speed>
  <fix>3d</fix>
</trkpt>
<trkpt lat="40.0713749" lon="-105.229789">
  <ele>1583.0</ele>
  <time>2026-08-28T17:49:12Z</time>
  <course>248.04</course>
  <speed>0.022360679774997897</speed>
  <fix>3d</fix>
</trkpt>
<trkpt lat="40.0713749" lon="-105.229789">
  <ele>1583.0</ele>
  <time>2026-08-28T17:49:12Z</time>
  <course>0.0</course>
  <speed>0.0</speed>
  <fix>3d</fix>
</trkpt>
<trkpt lat="40.0713749" lon="-105.229789">
  <ele>1583.0</ele>
  <time>2026-08-28T17:49:12Z</time>
  <course>248.04</course>
  <speed>0.022360679774997897</speed>
  <fix>3d</fix>
</trkpt>
<trkpt lat="40.0713749" lon="-105.229789">
  <ele>1583.0</ele>
  <time>2026-08-28T17:49:12Z</time>
  <course>0.0</course>
  <speed>0.0</speed>
  <fix>3d</fix>
</trkpt>
<trkpt lat="40.0713749" lon="-105.229789">
  <ele>1583.0</ele>
  <time>2026-08-28T17:49:12Z</time>
  <course>248.03</course>
  <speed>0.022360679774997897</speed>
  <fix>3d</fix>
</trkpt>
<trkpt lat="40.0713749" lon="-105.229789">
  <ele>1583.0</ele>
  <time>2026-08-28T17:49:12Z</time>
  <course>0.0</course>
  <speed>0.0</speed>
  <fix>3d</fix>
</trkpt>
<trkpt lat="40.0713749" lon="-105.229789">
  <ele>1583.0</ele>
  <time>2026-08-28T17:49:12Z</time>
  <course>248.03</course>
  <speed>0.022360679774997897</speed>
  <fix>3d</fix>
</trkpt>
<trkpt lat="40.0713749" lon="-105.229789">
  <ele>1583.0</ele>
  <time>2026-08-28T17:49:12Z</time>
  <course>0.0</course>
  <speed>0.0</speed>
  <fix>3d</fix>
</trkpt>
<trkpt lat="40.0713749" lon="-105.229789">
  <ele>1583.0</ele>
  <time>2026-08-28T17:49:12Z</time>
  <course>248.02</course>
  <speed>0.022360679774997897</speed>
  <fix>3d</fix>
</trkpt>
<trkpt lat="40.0713749" lon="-105.229789">
  <ele>1583.0</ele>
  <time>2026-08-28T17:49:12Z</time>
  <course>0.0</course>
  <speed>0.0</speed>
  <fix>3d</fix>
</trkpt>
<trkpt lat="40.0713749" lon="-105.229789">
  <ele>1583.0</ele>
  <time>2026-08-28T17:49:12Z</time>
  <course>248.02</course>
  <speed>0.022360679774997897</speed>
  <fix>3d</fix>
</trkpt>
<trkpt lat="40.0713749" lon="-105.229789">
  <ele>1583.0</ele>
  <time>2026-08-28T17:49:12Z</time>
  <course>0.0</course>
  <speed>0.0</speed>
  <fix>3d</fix>
</trkpt>
<trkpt lat="40.0713749" lon="-105.229789">
  <ele>1583.0</ele>
  <time>2026-08-28T17:49:12Z</time>
  <course>248.01</course>
  <speed>0.022360679774997897</speed>
  <fix>3d</fix>
</trkpt>
<trkpt lat="40.0713749" lon="-105.229789">
  <ele>1583.0</ele>
  <time>2026-08-28T17:49:12Z</time>
  <course>0.0</course>
  <speed>0.0</speed>
  <fix>3d</fix>
</trkpt>
<trkpt lat="40.0713749" lon="-105.229789">
  <ele>1583.0</ele>
  <time>2026-08-28T17:49:12Z</time>
  <course>248.01</course>
  <speed>0.022360679774997897</speed>
  <fix>3d</fix>
</trkpt>
<trkpt lat="40.0713749" lon="-105.229789">
  <ele>1583.0</ele>
  <time>2026-08-28T17:49:12Z</time>
  <course>0.0</course>
  <speed>0.0</speed>
  <fix>3d</fix>
</trkpt>
<trkpt lat="40.0713749" lon="-105.229789">
  <ele>1583.0</ele>
  <time>2026-08-28T17:49:12Z</time>
  <course>248.0</course>
  <speed>0.022360679774997897</speed>
  <fix>3d</fix>
</trkpt>
<trkpt lat="40.0713749" lon="-105.229789">
  <ele>1583.0</ele>
  <time>2026-08-28T17:49:12Z</time>
  <course>0.0</course>
  <speed>0.0</speed>
  <fix>3d</fix>
</trkpt>
<trkpt lat="40.0713749" lon="-105.229789">
  <ele>1583.0</ele>
  <time>2026-08-28T17:49:13Z</time>
  <course>248.0</course>
  <speed>0.022360679774997897</speed>
  <fix>3d</fix>
</trkpt>
<trkpt lat="40.0713749" lon="-105.229789">
  <ele>1583.0</ele>
  <time>2026-08-28T17:49:13Z</time>
  <course>0.0</course>
  <speed>0.0</speed>
  <fix>3d</fix>
</trkpt>
<trkpt lat="40.0713749" lon="-105.229789">
  <ele>1583.0</ele>
  <time>2026-08-28T17:49:13Z</time>
  <course>247.99</course>
  <speed>0.022360679774997897</speed>
  <fix>3d</fix>
</trkpt>
<trkpt lat="40.0713749" lon="-105.229789">
  <ele>1583.0</ele>
  <time>2026-08-28T17:49:13Z</time>
  <course>0.0</course>
  <speed>0.0</speed>
  <fix>3d</fix>
</trkpt>
<trkpt lat="40.0713749" lon="-105.229789">
  <ele>1583.0</ele>
  <time>2026-08-28T17:49:13Z</time>
  <course>247.99</course>
  <speed>0.022360679774997897</speed>
  <fix>3d</fix>
</trkpt>
<trkpt lat="40.0713749" lon="-105.229789">
  <ele>1583.0</ele>
  <time>2026-08-28T17:49:13Z</time>
  <course>0.0</course>
  <speed>0.0</speed>
  <fix>3d</fix>
</trkpt>
<trkpt lat="40.0713749" lon="-105.229789">
  <ele>1583.0</ele>
  <time>2026-08-28T17:49:13Z</time>
  <course>247.99</course>
  <speed>0.022360679774997897</speed>
  <fix>3d</fix>
</trkpt>
<trkpt lat="40.0713749" lon="-105.229789">
  <ele>1583.0</ele>
  <time>2026-08-28T17:49:13Z</time>
  <course>0.0</course>
  <speed>0.0</speed>
  <fix>3d</fix>
</trkpt>
<trkpt lat="40.0713749" lon="-105.229789">
  <ele>1583.0</ele>
  <time>2026-08-28T17:49:13Z</time>
  <course>247.98</course>
  <speed>0.022360679774997897</speed>
  <fix>3d</fix>
</trkpt>
<trkpt lat="40.0713749" lon="-105.229789">
  <ele>1583.0</ele>
  <time>2026-08-28T17:49:13Z</time>
  <course>0.0</course>
  <speed>0.0</speed>
  <fix>3d</fix>
</trkpt>
<trkpt lat="40.0713749" lon="-105.229789">
  <ele>1583.0</ele>
  <time>2026-08-28T17:49:13Z</time>
  <course>247.98</course>
  <speed>0.022360679774997897</speed>
  <fix>3d</fix>
</trkpt>
<trkpt lat="40.0713749" lon="-105.229789">
  <ele>1583.0</ele>
  <time>2026-08-28T17:49:13Z</time>
  <course>0.0</course>
  <speed>0.0</speed>
  <fix>3d</fix>
</trkpt>
<trkpt lat="40.0713749" lon="-105.229789">
  <ele>1583.0</ele>
  <time>2026-08-28T17:49:13Z</time>
  <course>247.97</course>
  <speed>0.022360679774997897</speed>
  <fix>3d</fix>
</trkpt>
<trkpt lat="40.0713749" lon="-105.229789">
  <ele>1583.0</ele>
  <time>2026-08-28T17:49:13Z</time>
  <course>0.0</course>
  <speed>0.0</speed>
  <fix>3d</fix>
</trkpt>
<trkpt lat="40.0713749" lon="-105.229789">
  <ele>1583.0</ele>
  <time>2026-08-28T17:49:13Z</time>
  <course>247.97</course>
  <speed>0.022360679774997897</speed>
  <fix>3d</fix>
</trkpt>
<trkpt lat="40.0713749" lon="-105.229789">
  <ele>1583.0</ele>
  <time>2026-08-28T17:49:13Z</time>
  <course>0.0</course>
  <speed>0.0</speed>
  <fix>3d</fix>
</trkpt>
<trkpt lat="40.0713749" lon="-105.229789">
  <ele>1583.0</ele>
  <time>2026-08-28T17:49:13Z</time>
  <course>247.96</course>
  <speed>0.022360679774997897</speed>
  <fix>3d</fix>
</trkpt>
<trkpt lat="40.0713749" lon="-105.229789">
  <ele>1583.0</ele>
  <time>2026-08-28T17:49:13Z</time>
  <course>0.0</course>
  <speed>0.0</speed>
  <fix>3d</fix>
</trkpt>
<trkpt lat="40.0713749" lon="-105.229789">
  <ele>1583.0</ele>
  <time>2026-08-28T17:49:13Z</time>
  <course>247.96</course>
  <speed>0.022360679774997897</speed>
  <fix>3d</fix>
</trkpt>
<trkpt lat="40.0713749" lon="-105.229789">
  <ele>1583.0</ele>
  <time>2026-08-28T17:49:13Z</time>
  <course>0.0</course>
  <speed>0.0</speed>
  <fix>3d</fix>
</trkpt>
<trkpt lat="40.0713749" lon="-105.229789">
  <ele>1583.0</ele>
  <time>2026-08-28T17:49:13Z</time>
  <course>247.95</course>
  <speed>0.022360679774997897</speed>
  <fix>3d</fix>
</trkpt>
<trkpt lat="40.0713749" lon="-105.229789">
  <ele>1583.0</ele>
  <time>2026-08-28T17:49:13Z</time>
  <course>0.0</course>
  <speed>0.0</speed>
  <fix>3d</fix>
</trkpt>
<trkpt lat="40.0713749" lon="-105.229789">
  <ele>1583.0</ele>
  <time>2026-08-28T17:49:13Z</time>
  <course>247.95</course>
  <speed>0.022360679774997897</speed>
  <fix>3d</fix>
</trkpt>
<trkpt lat="40.0713749" lon="-105.229789">
  <ele>1583.0</ele>
  <time>2026-08-28T17:49:13Z</time>
  <course>0.0</course>
  <speed>0.0</speed>
  <fix>3d</fix>
</trkpt>
<trkpt lat="40.0713749" lon="-105.229789">
  <ele>1583.0</ele>
  <time>2026-08-28T17:49:13Z</time>
  <course>247.95</course>
  <speed>0.022360679774997897</speed>
  <fix>3d</fix>
</trkpt>
<trkpt lat="40.0713749" lon="-105.229789">
  <ele>1583.0</ele>
  <time>2026-08-28T17:49:13Z</time>
  <course>0.0</course>
  <speed>0.0</speed>
  <fix>3d</fix>
</trkpt>
<trkpt lat="40.0713749" lon="-105.229789">
  <ele>1583.0</ele>
  <time>2026-08-28T17:49:13Z</time>
  <course>247.94</course>
  <speed>0.022360679774997897</speed>
  <fix>3d</fix>
</trkpt>
<trkpt lat="40.0713749" lon="-105.229789">
  <ele>1583.0</ele>
  <time>2026-08-28T17:49:13Z</time>
  <course>0.0</course>
  <speed>0.0</speed>
  <fix>3d</fix>
</trkpt>
<trkpt lat="40.0713749" lon="-105.229789">
  <ele>1583.0</ele>
  <time>2026-08-28T17:49:13Z</time>
  <course>247.94</course>
  <speed>0.022360679774997897</speed>
  <fix>3d</fix>
</trkpt>
<trkpt lat="40.0713749" lon="-105.229789">
  <ele>1583.0</ele>
  <time>2026-08-28T17:49:13Z</time>
  <course>0.0</course>
  <speed>0.0</speed>
  <fix>3d</fix>
</trkpt>
<trkpt lat="40.0713749" lon="-105.229789">
  <ele>1583.0</ele>
  <time>2026-08-28T17:49:13Z</time>
  <course>247.93</course>
  <speed>0.022360679774997897</speed>
  <fix>3d</fix>
</trkpt>
<trkpt lat="40.0713749" lon="-105.229789">
  <ele>1583.0</ele>
  <time>2026-08-28T17:49:13Z</time>
  <course>0.0</course>
  <speed>0.0</speed>
  <fix>3d</fix>
</trkpt>
<trkpt lat="40.0713749" lon="-105.229789">
  <ele>1583.0</ele>
  <time>2026-08-28T17:49:13Z</time>
  <course>247.93</course>
  <speed>0.022360679774997897</speed>
  <fix>3d</fix>
</trkpt>
<trkpt lat="40.0713749" lon="-105.229789">
  <ele>1583.0</ele>
  <time>2026-08-28T17:49:13Z</time>
  <course>0.0</course>
  <speed>0.0</speed>
  <fix>3d</fix>
</trkpt>
<trkpt lat="40.0713749" lon="-105.229789">
  <ele>1583.0</ele>
  <time>2026-08-28T17:49:13Z</time>
  <course>247.92</course>
  <speed>0.022360679774997897</speed>
  <fix>3d</fix>
</trkpt>
<trkpt lat="40.0713749" lon="-105.229789">
  <ele>1583.0</ele>
  <time>2026-08-28T17:49:13Z</time>
  <course>0.0</course>
  <speed>0.0</speed>
  <fix>3d</fix>
</trkpt>
<trkpt lat="40.0713749" lon="-105.229789">
  <ele>1583.0</ele>
  <time>2026-08-28T17:49:13Z</time>
  <course>247.92</course>
  <speed>0.022360679774997897</speed>
  <fix>3d</fix>
</trkpt>
<trkpt lat="40.0713749" lon="-105.229789">
  <ele>1583.0</ele>
  <time>2026-08-28T17:49:13Z</time>
  <course>0.0</course>
  <speed>0.0</speed>
  <fix>3d</fix>
</trkpt>
<trkpt lat="40.0713749" lon="-105.229789">
  <ele>1583.0</ele>
  <time>2026-08-28T17:49:13Z</time>
  <course>247.92</course>
  <speed>0.022360679774997897</speed>
  <fix>3d</fix>
</trkpt>
<trkpt lat="40.0713749" lon="-105.229789">
  <ele>1583.0</ele>
  <time>2026-08-28T17:49:13Z</time>
  <course>0.0</course>
  <speed>0.0</speed>
  <fix>3d</fix>
</trkpt>
<trkpt lat="40.0713749" lon="-105.229789">
  <ele>1583.0</ele>
  <time>2026-08-28T17:49:13Z</time>
  <course>247.91</course>
  <speed>0.022360679774997897</speed>
  <fix>3d</fix>
</trkpt>
<trkpt lat="40.0713749" lon="-105.229789">
  <ele>1583.0</ele>
  <time>2026-08-28T17:49:13Z</time>
  <course>0.0</course>
  <speed>0.0</speed>
  <fix>3d</fix>
</trkpt>
<trkpt lat="40.0713749" lon="-105.229789">
  <ele>1583.0</ele>
  <time>2026-08-28T17:49:13Z</time>
  <course>247.91</course>
  <speed>0.022360679774997897</speed>
  <fix>3d</fix>
</trkpt>
<trkpt lat="40.0713749" lon="-105.229789">
  <ele>1583.0</ele>
  <time>2026-08-28T17:49:13Z</time>
  <course>0.0</course>
  <speed>0.0</speed>
  <fix>3d</fix>
</trkpt>
<trkpt lat="40.0713749" lon="-105.229789">
  <ele>1583.0</ele>
  <time>2026-08-28T17:49:13Z</time>
  <course>247.9</course>
  <speed>0.022360679774997897</speed>
  <fix>3d</fix>
</trkpt>
<trkpt lat="40.0713749" lon="-105.229789">
  <ele>1583.0</ele>
  <time>2026-08-28T17:49:13Z</time>
  <course>0.0</course>
  <speed>0.0</speed>
  <fix>3d</fix>
</trkpt>
<trkpt lat="40.0713749" lon="-105.229789">
  <ele>1583.0</ele>
  <time>2026-08-28T17:49:13Z</time>
  <course>247.9</course>
  <speed>0.022360679774997897</speed>
  <fix>3d</fix>
</trkpt>
<trkpt lat="40.0713749" lon="-105.229789">
  <ele>1583.0</ele>
  <time>2026-08-28T17:49:13Z</time>
  <course>0.0</course>
  <speed>0.0</speed>
  <fix>3d</fix>
</trkpt>
<trkpt lat="40.0713749" lon="-105.229789">
  <ele>1583.0</ele>
  <time>2026-08-28T17:49:13Z</time>
  <course>247.89</course>
  <speed>0.022360679774997897</speed>
  <fix>3d</fix>
</trkpt>
<trkpt lat="40.0713749" lon="-105.229789">
  <ele>1583.0</ele>
  <time>2026-08-28T17:49:13Z</time>
  <course>0.0</course>
  <speed>0.0</speed>
  <fix>3d</fix>
</trkpt>
<trkpt lat="40.0713749" lon="-105.229789">
  <ele>1583.0</ele>
  <time>2026-08-28T17:49:13Z</time>
  <course>247.89</course>
  <speed>0.022360679774997897</speed>
  <fix>3d</fix>
</trkpt>
<trkpt lat="40.0713749" lon="-105.229789">
  <ele>1583.0</ele>
  <time>2026-08-28T17:49:13Z</time>
  <course>0.0</course>
  <speed>0.0</speed>
  <fix>3d</fix>
</trkpt>
<trkpt lat="40.0713749" lon="-105.229789">
  <ele>1583.0</ele>
  <time>2026-08-28T17:49:13Z</time>
  <course>247.89</course>
  <speed>0.022360679774997897</speed>
  <fix>3d</fix>
</trkpt>
<trkpt lat="40.0713749" lon="-105.229789">
  <ele>1583.0</ele>
  <time>2026-08-28T17:49:13Z</time>
  <course>0.0</course>
  <speed>0.0</speed>
  <fix>3d</fix>
</trkpt>
<trkpt lat="40.0713749" lon="-105.229789">
  <ele>1583.0</ele>
  <time>2026-08-28T17:49:13Z</time>
  <course>247.88</course>
  <speed>0.0316227766016838</speed>
  <fix>3d</fix>
</trkpt>
<trkpt lat="40.0713749" lon="-105.229789">
  <ele>1583.0</ele>
  <time>2026-08-28T17:49:13Z</time>
  <course>0.0</course>
  <speed>0.0</speed>
  <fix>3d</fix>
</trkpt>
<trkpt lat="40.0713749" lon="-105.229789">
  <ele>1583.0</ele>
  <time>2026-08-28T17:49:13Z</time>
  <course>247.88</course>
  <speed>0.0316227766016838</speed>
  <fix>3d</fix>
</trkpt>
<trkpt lat="40.0713749" lon="-105.229789">
  <ele>1583.0</ele>
  <time>2026-08-28T17:49:13Z</time>
  <course>0.0</course>
  <speed>0.0</speed>
  <fix>3d</fix>
</trkpt>
<trkpt lat="40.0713749" lon="-105.229789">
  <ele>1583.0</ele>
  <time>2026-08-28T17:49:13Z</time>
  <course>247.87</course>
  <speed>0.0316227766016838</speed>
  <fix>3d</fix>
</trkpt>
<trkpt lat="40.0713749" lon="-105.229789">
  <ele>1583.0</ele>
  <time>2026-08-28T17:49:13Z</time>
  <course>0.0</course>
  <speed>0.0</speed>
  <fix>3d</fix>
</trkpt>
<trkpt lat="40.0713749" lon="-105.229789">
  <ele>1583.0</ele>
  <time>2026-08-28T17:49:13Z</time>
  <course>247.87</course>
  <speed>0.0316227766016838</speed>
  <fix>3d</fix>
</trkpt>
<trkpt lat="40.0713749" lon="-105.229789">
  <ele>1583.0</ele>
  <time>2026-08-28T17:49:13Z</time>
  <course>0.0</course>
  <speed>0.0</speed>
  <fix>3d</fix>
</trkpt>
<trkpt lat="40.0713749" lon="-105.229789">
  <ele>1583.0</ele>
  <time>2026-08-28T17:49:13Z</time>
  <course>247.87</course>
  <speed>0.0316227766016838</speed>
  <fix>3d</fix>
</trkpt>
<trkpt lat="40.0713749" lon="-105.229789">
  <ele>1583.0</ele>
  <time>2026-08-28T17:49:13Z</time>
  <course>0.0</course>
  <speed>0.0</speed>
  <fix>3d</fix>
</trkpt>
<trkpt lat="40.0713749" lon="-105.229789">
  <ele>1583.0</ele>
  <time>2026-08-28T17:49:13Z</time>
  <course>247.86</course>
  <speed>0.0316227766016838</speed>
  <fix>3d</fix>
</trkpt>
<trkpt lat="40.0713749" lon="-105.229789">
  <ele>1583.0</ele>
  <time>2026-08-28T17:49:13Z</time>
  <course>0.0</course>
  <speed>0.0</speed>
  <fix>3d</fix>
</trkpt>
<trkpt lat="40.0713749" lon="-105.229789">
  <ele>1583.0</ele>
  <time>2026-08-28T17:49:13Z</time>
  <course>247.86</course>
  <speed>0.0316227766016838</speed>
  <fix>3d</fix>
</trkpt>
<trkpt lat="40.0713749" lon="-105.229789">
  <ele>1583.0</ele>
  <time>2026-08-28T17:49:13Z</time>
  <course>0.0</course>
  <speed>0.0</speed>
  <fix>3d</fix>
</trkpt>
<trkpt lat="40.0713749" lon="-105.229789">
  <ele>1583.0</ele>
  <time>2026-08-28T17:49:13Z</time>
  <course>247.85</course>
  <speed>0.0316227766016838</speed>
  <fix>3d</fix>
</trkpt>
<trkpt lat="40.0713749" lon="-105.229789">
  <ele>1583.0</ele>
  <time>2026-08-28T17:49:13Z</time>
  <course>0.0</course>
  <speed>0.0</speed>
  <fix>3d</fix>
</trkpt>
<trkpt lat="40.0713749" lon="-105.229789">
  <ele>1583.0</ele>
  <time>2026-08-28T17:49:13Z</time>
  <course>247.85</course>
  <speed>0.0316227766016838</speed>
  <fix>3d</fix>
</trkpt>
<trkpt lat="40.0713749" lon="-105.229789">
  <ele>1583.0</ele>
  <time>2026-08-28T17:49:13Z</time>
  <course>0.0</course>
  <speed>0.0</speed>
  <fix>3d</fix>
</trkpt>
<trkpt lat="40.0713749" lon="-105.229789">
  <ele>1583.0</ele>
  <time>2026-08-28T17:49:13Z</time>
  <course>247.85</course>
  <speed>0.0316227766016838</speed>
  <fix>3d</fix>
</trkpt>
<trkpt lat="40.0713749" lon="-105.229789">
  <ele>1583.0</ele>
  <time>2026-08-28T17:49:13Z</time>
  <course>0.0</course>
  <speed>0.0</speed>
  <fix>3d</fix>
</trkpt>
<trkpt lat="40.0713749" lon="-105.229789">
  <ele>1583.0</ele>
  <time>2026-08-28T17:49:13Z</time>
  <course>247.84</course>
  <speed>0.0316227766016838</speed>
  <fix>3d</fix>
</trkpt>
<trkpt lat="40.0713749" lon="-105.229789">
  <ele>1583.0</ele>
  <time>2026-08-28T17:49:13Z</time>
  <course>0.0</course>
  <speed>0.0</speed>
  <fix>3d</fix>
</trkpt>
<trkpt lat="40.0713749" lon="-105.229789">
  <ele>1583.0</ele>
  <time>2026-08-28T17:49:13Z</time>
  <course>247.84</course>
  <speed>0.0316227766016838</speed>
  <fix>3d</fix>
</trkpt>
<trkpt lat="40.0713749" lon="-105.229789">
  <ele>1583.0</ele>
  <time>2026-08-28T17:49:13Z</time>
  <course>0.0</course>
  <speed>0.0</speed>
  <fix>3d</fix>
</trkpt>
<trkpt lat="40.0713749" lon="-105.229789">
  <ele>1583.0</ele>
  <time>2026-08-28T17:49:13Z</time>
  <course>247.83</course>
  <speed>0.0316227766016838</speed>
  <fix>3d</fix>
</trkpt>
<trkpt lat="40.0713749" lon="-105.229789">
  <ele>1583.0</ele>
  <time>2026-08-28T17:49:13Z</time>
  <course>0.0</course>
  <speed>0.0</speed>
  <fix>3d</fix>
</trkpt>
<trkpt lat="40.0713749" lon="-105.229789">
  <ele>1583.0</ele>
  <time>2026-08-28T17:49:13Z</time>
  <course>247.83</course>
  <speed>0.0316227766016838</speed>
  <fix>3d</fix>
</trkpt>
<trkpt lat="40.0713749" lon="-105.229789">
  <ele>1583.0</ele>
  <time>2026-08-28T17:49:13Z</time>
  <course>0.0</course>
  <speed>0.0</speed>
  <fix>3d</fix>
</trkpt>
<trkpt lat="40.0713749" lon="-105.229789">
  <ele>1583.0</ele>
  <time>2026-08-28T17:49:13Z</time>
  <course>247.83</course>
  <speed>0.0316227766016838</speed>
  <fix>3d</fix>
</trkpt>
<trkpt lat="40.0713749" lon="-105.229789">
  <ele>1583.0</ele>
  <time>2026-08-28T17:49:13Z</time>
  <course>0.0</course>
  <speed>0.0</speed>
  <fix>3d</fix>
</trkpt>
<trkpt lat="40.0713749" lon="-105.229789">
  <ele>1583.0</ele>
  <time>2026-08-28T17:49:13Z</time>
  <course>247.82</course>
  <speed>0.0316227766016838</speed>
  <fix>3d</fix>
</trkpt>
<trkpt lat="40.0713749" lon="-105.229789">
  <ele>1583.0</ele>
  <time>2026-08-28T17:49:13Z</time>
  <course>0.0</course>
  <speed>0.0</speed>
  <fix>3d</fix>
</trkpt>
<trkpt lat="40.0713749" lon="-105.229789">
  <ele>1583.0</ele>
  <time>2026-08-28T17:49:13Z</time>
  <course>247.82</course>
  <speed>0.0316227766016838</speed>
  <fix>3d</fix>
</trkpt>
<trkpt lat="40.0713749" lon="-105.229789">
  <ele>1583.0</ele>
  <time>2026-08-28T17:49:13Z</time>
  <course>0.0</course>
  <speed>0.0</speed>
  <fix>3d</fix>
</trkpt>
<trkpt lat="40.0713749" lon="-105.229789">
  <ele>1583.0</ele>
  <time>2026-08-28T17:49:13Z</time>
  <course>247.82</course>
  <speed>0.0316227766016838</speed>
  <fix>3d</fix>
</trkpt>
<trkpt lat="40.0713749" lon="-105.229789">
  <ele>1583.0</ele>
  <time>2026-08-28T17:49:13Z</time>
  <course>0.0</course>
  <speed>0.0</speed>
  <fix>3d</fix>
</trkpt>
<trkpt lat="40.0713749" lon="-105.229789">
  <ele>1583.0</ele>
  <time>2026-08-28T17:49:13Z</time>
  <course>247.81</course>
  <speed>0.0316227766016838</speed>
  <fix>3d</fix>
</trkpt>
<trkpt lat="40.0713749" lon="-105.229789">
  <ele>1583.0</ele>
  <time>2026-08-28T17:49:13Z</time>
  <course>0.0</course>
  <speed>0.0</speed>
  <fix>3d</fix>
</trkpt>
<trkpt lat="40.0713749" lon="-105.229789">
  <ele>1583.0</ele>
  <time>2026-08-28T17:49:13Z</time>
  <course>247.81</course>
  <speed>0.0316227766016838</speed>
  <fix>3d</fix>
</trkpt>
<trkpt lat="40.0713749" lon="-105.229789">
  <ele>1583.0</ele>
  <time>2026-08-28T17:49:13Z</time>
  <course>0.0</course>
  <speed>0.0</speed>
  <fix>3d</fix>
</trkpt>
<trkpt lat="40.0713749" lon="-105.229789">
  <ele>1583.0</ele>
  <time>2026-08-28T17:49:13Z</time>
  <course>247.8</course>
  <speed>0.0316227766016838</speed>
  <fix>3d</fix>
</trkpt>
<trkpt lat="40.0713749" lon="-105.229789">
  <ele>1583.0</ele>
  <time>2026-08-28T17:49:13Z</time>
  <course>0.0</course>
  <speed>0.0</speed>
  <fix>3d</fix>
</trkpt>
<trkpt lat="40.0713749" lon="-105.229789">
  <ele>1583.0</ele>
  <time>2026-08-28T17:49:13Z</time>
  <course>247.8</course>
  <speed>0.0316227766016838</speed>
  <fix>3d</fix>
</trkpt>
<trkpt lat="40.0713749" lon="-105.229789">
  <ele>1583.0</ele>
  <time>2026-08-28T17:49:13Z</time>
  <course>0.0</course>
  <speed>0.0</speed>
  <fix>3d</fix>
</trkpt>
<trkpt lat="40.0713749" lon="-105.229789">
  <ele>1583.0</ele>
  <time>2026-08-28T17:49:13Z</time>
  <course>247.8</course>
  <speed>0.0316227766016838</speed>
  <fix>3d</fix>
</trkpt>
<trkpt lat="40.0713749" lon="-105.229789">
  <ele>1583.0</ele>
  <time>2026-08-28T17:49:13Z</time>
  <course>0.0</course>
  <speed>0.0</speed>
  <fix>3d</fix>
</trkpt>
<trkpt lat="40.0713749" lon="-105.229789">
  <ele>1583.0</ele>
  <time>2026-08-28T17:49:13Z</time>
  <course>247.79</course>
  <speed>0.0316227766016838</speed>
  <fix>3d</fix>
</trkpt>
<trkpt lat="40.0713749" lon="-105.229789">
  <ele>1583.0</ele>
  <time>2026-08-28T17:49:13Z</time>
  <course>0.0</course>
  <speed>0.0</speed>
  <fix>3d</fix>
</trkpt>
<trkpt lat="40.0713749" lon="-105.229789">
  <ele>1583.0</ele>
  <time>2026-08-28T17:49:13Z</time>
  <course>247.79</course>
  <speed>0.0316227766016838</speed>
  <fix>3d</fix>
</trkpt>
<trkpt lat="40.0713749" lon="-105.229789">
  <ele>1583.0</ele>
  <time>2026-08-28T17:49:13Z</time>
  <course>0.0</course>
  <speed>0.0</speed>
  <fix>3d</fix>
</trkpt>
<trkpt lat="40.0713749" lon="-105.229789">
  <ele>1583.0</ele>
  <time>2026-08-28T17:49:13Z</time>
  <course>247.79</course>
  <speed>0.0316227766016838</speed>
  <fix>3d</fix>
</trkpt>
<trkpt lat="40.0713749" lon="-105.229789">
  <ele>1583.0</ele>
  <time>2026-08-28T17:49:13Z</time>
  <course>0.0</course>
  <speed>0.0</speed>
  <fix>3d</fix>
</trkpt>
<trkpt lat="40.0713749" lon="-105.229789">
  <ele>1583.0</ele>
  <time>2026-08-28T17:49:13Z</time>
  <course>247.78</course>
  <speed>0.0316227766016838</speed>
  <fix>3d</fix>
</trkpt>
<trkpt lat="40.0713749" lon="-105.229789">
  <ele>1583.0</ele>
  <time>2026-08-28T17:49:13Z</time>
  <course>0.0</course>
  <speed>0.0</speed>
  <fix>3d</fix>
</trkpt>
<trkpt lat="40.0713749" lon="-105.229789">
  <ele>1583.0</ele>
  <time>2026-08-28T17:49:13Z</time>
  <course>247.78</course>
  <speed>0.0316227766016838</speed>
  <fix>3d</fix>
</trkpt>
<trkpt lat="40.0713749" lon="-105.229789">
  <ele>1583.0</ele>
  <time>2026-08-28T17:49:13Z</time>
  <course>0.0</course>
  <speed>0.0</speed>
  <fix>3d</fix>
</trkpt>
<trkpt lat="40.0713749" lon="-105.229789">
  <ele>1583.0</ele>
  <time>2026-08-28T17:49:13Z</time>
  <course>247.78</course>
  <speed>0.0316227766016838</speed>
  <fix>3d</fix>
</trkpt>
<trkpt lat="40.0713749" lon="-105.229789">
  <ele>1583.0</ele>
  <time>2026-08-28T17:49:13Z</time>
  <course>0.0</course>
  <speed>0.0</speed>
  <fix>3d</fix>
</trkpt>
<trkpt lat="40.0713749" lon="-105.229789">
  <ele>1583.0</ele>
  <time>2026-08-28T17:49:13Z</time>
  <course>247.77</course>
  <speed>0.0316227766016838</speed>
  <fix>3d</fix>
</trkpt>
<trkpt lat="40.0713749" lon="-105.229789">
  <ele>1583.0</ele>
  <time>2026-08-28T17:49:13Z</time>
  <course>0.0</course>
  <speed>0.0</speed>
  <fix>3d</fix>
</trkpt>
<trkpt lat="40.0713749" lon="-105.229789">
  <ele>1583.0</ele>
  <time>2026-08-28T17:49:13Z</time>
  <course>247.77</course>
  <speed>0.0316227766016838</speed>
  <fix>3d</fix>
</trkpt>
<trkpt lat="40.0713749" lon="-105.229789">
  <ele>1583.0</ele>
  <time>2026-08-28T17:49:13Z</time>
  <course>0.0</course>
  <speed>0.0</speed>
  <fix>3d</fix>
</trkpt>
<trkpt lat="40.0713749" lon="-105.229789">
  <ele>1583.0</ele>
  <time>2026-08-28T17:49:13Z</time>
  <course>247.76</course>
  <speed>0.0316227766016838</speed>
  <fix>3d</fix>
</trkpt>
<trkpt lat="40.0713749" lon="-105.229789">
  <ele>1583.0</ele>
  <time>2026-08-28T17:49:13Z</time>
  <course>0.0</course>
  <speed>0.0</speed>
  <fix>3d</fix>
</trkpt>
<trkpt lat="40.0713749" lon="-105.229789">
  <ele>1583.0</ele>
  <time>2026-08-28T17:49:13Z</time>
  <course>247.76</course>
  <speed>0.0316227766016838</speed>
  <fix>3d</fix>
</trkpt>
<trkpt lat="40.0713749" lon="-105.229789">
  <ele>1583.0</ele>
  <time>2026-08-28T17:49:13Z</time>
  <course>0.0</course>
  <speed>0.0</speed>
  <fix>3d</fix>
</trkpt>
<trkpt lat="40.0713749" lon="-105.229789">
  <ele>1583.0</ele>
  <time>2026-08-28T17:49:13Z</time>
  <course>247.76</course>
  <speed>0.0316227766016838</speed>
  <fix>3d</fix>
</trkpt>
<trkpt lat="40.0713749" lon="-105.229789">
  <ele>1583.0</ele>
  <time>2026-08-28T17:49:13Z</time>
  <course>0.0</course>
  <speed>0.0</speed>
  <fix>3d</fix>
</trkpt>
<trkpt lat="40.0713749" lon="-105.229789">
  <ele>1583.0</ele>
  <time>2026-08-28T17:49:13Z</time>
  <course>247.75</course>
  <speed>0.0316227766016838</speed>
  <fix>3d</fix>
</trkpt>
<trkpt lat="40.0713749" lon="-105.229789">
  <ele>1583.0</ele>
  <time>2026-08-28T17:49:13Z</time>
  <course>0.0</course>
  <speed>0.0</speed>
  <fix>3d</fix>
</trkpt>
<trkpt lat="40.0713749" lon="-105.229789">
  <ele>1583.0</ele>
  <time>2026-08-28T17:49:13Z</time>
  <course>247.75</course>
  <speed>0.0316227766016838</speed>
  <fix>3d</fix>
</trkpt>
<trkpt lat="40.0713749" lon="-105.229789">
  <ele>1583.0</ele>
  <time>2026-08-28T17:49:13Z</time>
  <course>0.0</course>
  <speed>0.0</speed>
  <fix>3d</fix>
</trkpt>
<trkpt lat="40.0713749" lon="-105.229789">
  <ele>1583.0</ele>
  <time>2026-08-28T17:49:13Z</time>
  <course>247.75</course>
  <speed>0.0316227766016838</speed>
  <fix>3d</fix>
</trkpt>
<trkpt lat="40.0713749" lon="-105.229789">
  <ele>1583.0</ele>
  <time>2026-08-28T17:49:13Z</time>
  <course>0.0</course>
  <speed>0.0</speed>
  <fix>3d</fix>
</trkpt>
<trkpt lat="40.0713749" lon="-105.229789">
  <ele>1583.0</ele>
  <time>2026-08-28T17:49:13Z</time>
  <course>247.74</course>
  <speed>0.0316227766016838</speed>
  <fix>3d</fix>
</trkpt>
<trkpt lat="40.0713749" lon="-105.229789">
  <ele>1583.0</ele>
  <time>2026-08-28T17:49:13Z</time>
  <course>0.0</course>
  <speed>0.0</speed>
  <fix>3d</fix>
</trkpt>
<trkpt lat="40.0713749" lon="-105.229789">
  <ele>1583.0</ele>
  <time>2026-08-28T17:49:13Z</time>
  <course>247.74</course>
  <speed>0.0316227766016838</speed>
  <fix>3d</fix>
</trkpt>
<trkpt lat="40.0713749" lon="-105.229789">
  <ele>1583.0</ele>
  <time>2026-08-28T17:49:13Z</time>
  <course>0.0</course>
  <speed>0.0</speed>
  <fix>3d</fix>
</trkpt>
<trkpt lat="40.0713749" lon="-105.229789">
  <ele>1583.0</ele>
  <time>2026-08-28T17:49:13Z</time>
  <course>247.74</course>
  <speed>0.0316227766016838</speed>
  <fix>3d</fix>
</trkpt>
<trkpt lat="40.0713749" lon="-105.229789">
  <ele>1583.0</ele>
  <time>2026-08-28T17:49:13Z</time>
  <course>0.0</course>
  <speed>0.0</speed>
  <fix>3d</fix>
</trkpt>
<trkpt lat="40.0713749" lon="-105.229789">
  <ele>1583.0</ele>
  <time>2026-08-28T17:49:13Z</time>
  <course>247.73</course>
  <speed>0.0316227766016838</speed>
  <fix>3d</fix>
</trkpt>
<trkpt lat="40.0713749" lon="-105.229789">
  <ele>1583.0</ele>
  <time>2026-08-28T17:49:13Z</time>
  <course>0.0</course>
  <speed>0.0</speed>
  <fix>3d</fix>
</trkpt>
<trkpt lat="40.0713749" lon="-105.229789">
  <ele>1583.0</ele>
  <time>2026-08-28T17:49:13Z</time>
  <course>247.73</course>
  <speed>0.0316227766016838</speed>
  <fix>3d</fix>
</trkpt>
<trkpt lat="40.0713749" lon="-105.229789">
  <ele>1583.0</ele>
  <time>2026-08-28T17:49:13Z</time>
  <course>0.0</course>
  <speed>0.0</speed>
  <fix>3d</fix>
</trkpt>
<trkpt lat="40.0713749" lon="-105.229789">
  <ele>1583.0</ele>
  <time>2026-08-28T17:49:13Z</time>
  <course>247.73</course>
  <speed>0.0316227766016838</speed>
  <fix>3d</fix>
</trkpt>
<trkpt lat="40.0713749" lon="-105.229789">
  <ele>1583.0</ele>
  <time>2026-08-28T17:49:13Z</time>
  <course>0.0</course>
  <speed>0.0</speed>
  <fix>3d</fix>
</trkpt>
<trkpt lat="40.0713749" lon="-105.229789">
  <ele>1583.0</ele>
  <time>2026-08-28T17:49:13Z</time>
  <course>247.72</course>
  <speed>0.0316227766016838</speed>
  <fix>3d</fix>
</trkpt>
<trkpt lat="40.0713749" lon="-105.229789">
  <ele>1583.0</ele>
  <time>2026-08-28T17:49:13Z</time>
  <course>0.0</course>
  <speed>0.0</speed>
  <fix>3d</fix>
</trkpt>
<trkpt lat="40.0713749" lon="-105.229789">
  <ele>1583.0</ele>
  <time>2026-08-28T17:49:13Z</time>
  <course>247.72</course>
  <speed>0.0316227766016838</speed>
  <fix>3d</fix>
</trkpt>
<trkpt lat="40.0713749" lon="-105.229789">
  <ele>1583.0</ele>
  <time>2026-08-28T17:49:13Z</time>
  <course>0.0</course>
  <speed>0.0</speed>
  <fix>3d</fix>
</trkpt>
<trkpt lat="40.0713749" lon="-105.229789">
  <ele>1583.0</ele>
  <time>2026-08-28T17:49:13Z</time>
  <course>247.72</course>
  <speed>0.0316227766016838</speed>
  <fix>3d</fix>
</trkpt>
<trkpt lat="40.0713749" lon="-105.229789">
  <ele>1583.0</ele>
  <time>2026-08-28T17:49:13Z</time>
  <course>0.0</course>
  <speed>0.0</speed>
  <fix>3d</fix>
</trkpt>
<trkpt lat="40.0713749" lon="-105.229789">
  <ele>1583.0</ele>
  <time>2026-08-28T17:49:13Z</time>
  <course>247.71</course>
  <speed>0.0316227766016838</speed>
  <fix>3d</fix>
</trkpt>
<trkpt lat="40.0713749" lon="-105.229789">
  <ele>1583.0</ele>
  <time>2026-08-28T17:49:13Z</time>
  <course>0.0</course>
  <speed>0.0</speed>
  <fix>3d</fix>
</trkpt>
<trkpt lat="40.0713749" lon="-105.229789">
  <ele>1583.0</ele>
  <time>2026-08-28T17:49:13Z</time>
  <course>247.71</course>
  <speed>0.0316227766016838</speed>
  <fix>3d</fix>
</trkpt>
<trkpt lat="40.0713749" lon="-105.229789">
  <ele>1583.0</ele>
  <time>2026-08-28T17:49:13Z</time>
  <course>0.0</course>
  <speed>0.0</speed>
  <fix>3d</fix>
</trkpt>
<trkpt lat="40.0713749" lon="-105.229789">
  <ele>1583.0</ele>
  <time>2026-08-28T17:49:13Z</time>
  <course>247.71</course>
  <speed>0.0316227766016838</speed>
  <fix>3d</fix>
</trkpt>
<trkpt lat="40.0713749" lon="-105.229789">
  <ele>1583.0</ele>
  <time>2026-08-28T17:49:13Z</time>
  <course>0.0</course>
  <speed>0.0</speed>
  <fix>3d</fix>
</trkpt>
<trkpt lat="40.0713749" lon="-105.229789">
  <ele>1583.0</ele>
  <time>2026-08-28T17:49:13Z</time>
  <course>247.7</course>
  <speed>0.0316227766016838</speed>
  <fix>3d</fix>
</trkpt>
<trkpt lat="40.0713749" lon="-105.229789">
  <ele>1583.0</ele>
  <time>2026-08-28T17:49:13Z</time>
  <course>0.0</course>
  <speed>0.0</speed>
  <fix>3d</fix>
</trkpt>
<trkpt lat="40.0713749" lon="-105.229789">
  <ele>1583.0</ele>
  <time>2026-08-28T17:49:13Z</time>
  <course>247.7</course>
  <speed>0.0316227766016838</speed>
  <fix>3d</fix>
</trkpt>
<trkpt lat="40.0713749" lon="-105.229789">
  <ele>1583.0</ele>
  <time>2026-08-28T17:49:13Z</time>
  <course>0.0</course>
  <speed>0.0</speed>
  <fix>3d</fix>
</trkpt>
<trkpt lat="40.0713749" lon="-105.229789">
  <ele>1583.0</ele>
  <time>2026-08-28T17:49:13Z</time>
  <course>247.7</course>
  <speed>0.0316227766016838</speed>
  <fix>3d</fix>
</trkpt>
<trkpt lat="40.0713749" lon="-105.229789">
  <ele>1583.0</ele>
  <time>2026-08-28T17:49:13Z</time>
  <course>0.0</course>
  <speed>0.0</speed>
  <fix>3d</fix>
</trkpt>
<trkpt lat="40.0713749" lon="-105.229789">
  <ele>1583.0</ele>
  <time>2026-08-28T17:49:13Z</time>
  <course>247.69</course>
  <speed>0.0316227766016838</speed>
  <fix>3d</fix>
</trkpt>
<trkpt lat="40.0713749" lon="-105.229789">
  <ele>1583.0</ele>
  <time>2026-08-28T17:49:13Z</time>
  <course>0.0</course>
  <speed>0.0</speed>
  <fix>3d</fix>
</trkpt>
<trkpt lat="40.0713749" lon="-105.229789">
  <ele>1583.0</ele>
  <time>2026-08-28T17:49:13Z</time>
  <course>247.69</course>
  <speed>0.0316227766016838</speed>
  <fix>3d</fix>
</trkpt>
<trkpt lat="40.0713749" lon="-105.229789">
  <ele>1583.0</ele>
  <time>2026-08-28T17:49:13Z</time>
  <course>0.0</course>
  <speed>0.0</speed>
  <fix>3d</fix>
</trkpt>
<trkpt lat="40.0713749" lon="-105.229789">
  <ele>1583.0</ele>
  <time>2026-08-28T17:49:13Z</time>
  <course>247.69</course>
  <speed>0.0316227766016838</speed>
  <fix>3d</fix>
</trkpt>
<trkpt lat="40.0713749" lon="-105.229789">
  <ele>1583.0</ele>
  <time>2026-08-28T17:49:13Z</time>
  <course>0.0</course>
  <speed>0.0</speed>
  <fix>3d</fix>
</trkpt>
<trkpt lat="40.0713749" lon="-105.229789">
  <ele>1583.0</ele>
  <time>2026-08-28T17:49:13Z</time>
  <course>247.68</course>
  <speed>0.0316227766016838</speed>
  <fix>3d</fix>
</trkpt>
<trkpt lat="40.0713749" lon="-105.229789">
  <ele>1583.0</ele>
  <time>2026-08-28T17:49:13Z</time>
  <course>0.0</course>
  <speed>0.0</speed>
  <fix>3d</fix>
</trkpt>
<trkpt lat="40.0713749" lon="-105.229789">
  <ele>1583.0</ele>
  <time>2026-08-28T17:49:13Z</time>
  <course>247.68</course>
  <speed>0.0316227766016838</speed>
  <fix>3d</fix>
</trkpt>
<trkpt lat="40.0713749" lon="-105.229789">
  <ele>1583.0</ele>
  <time>2026-08-28T17:49:13Z</time>
  <course>0.0</course>
  <speed>0.0</speed>
  <fix>3d</fix>
</trkpt>
<trkpt lat="40.0713749" lon="-105.229789">
  <ele>1583.0</ele>
  <time>2026-08-28T17:49:13Z</time>
  <course>247.68</course>
  <speed>0.0316227766016838</speed>
  <fix>3d</fix>
</trkpt>
<trkpt lat="40.0713749" lon="-105.229789">
  <ele>1583.0</ele>
  <time>2026-08-28T17:49:13Z</time>
  <course>0.0</course>
  <speed>0.0</speed>
  <fix>3d</fix>
</trkpt>
<trkpt lat="40.0713749" lon="-105.229789">
  <ele>1583.0</ele>
  <time>2026-08-28T17:49:13Z</time>
  <course>247.67</course>
  <speed>0.0316227766016838</speed>
  <fix>3d</fix>
</trkpt>
<trkpt lat="40.0713749" lon="-105.229789">
  <ele>1583.0</ele>
  <time>2026-08-28T17:49:13Z</time>
  <course>0.0</course>
  <speed>0.0</speed>
  <fix>3d</fix>
</trkpt>
<trkpt lat="40.0713749" lon="-105.229789">
  <ele>1583.0</ele>
  <time>2026-08-28T17:49:13Z</time>
  <course>247.67</course>
  <speed>0.0316227766016838</speed>
  <fix>3d</fix>
</trkpt>
<trkpt lat="40.0713749" lon="-105.229789">
  <ele>1583.0</ele>
  <time>2026-08-28T17:49:13Z</time>
  <course>0.0</course>
  <speed>0.0</speed>
  <fix>3d</fix>
</trkpt>
<trkpt lat="40.0713749" lon="-105.229789">
  <ele>1583.0</ele>
  <time>2026-08-28T17:49:13Z</time>
  <course>247.67</course>
  <speed>0.0316227766016838</speed>
  <fix>3d</fix>
</trkpt>
<trkpt lat="40.0713749" lon="-105.229789">
  <ele>1583.0</ele>
  <time>2026-08-28T17:49:13Z</time>
  <course>0.0</course>
  <speed>0.0</speed>
  <fix>3d</fix>
</trkpt>
<trkpt lat="40.0713749" lon="-105.229789">
  <ele>1583.0</ele>
  <time>2026-08-28T17:49:13Z</time>
  <course>247.66</course>
  <speed>0.0316227766016838</speed>
  <fix>3d</fix>
</trkpt>
<trkpt lat="40.0713749" lon="-105.229789">
  <ele>1583.0</ele>
  <time>2026-08-28T17:49:13Z</time>
  <course>0.0</course>
  <speed>0.0</speed>
  <fix>3d</fix>
</trkpt>
<trkpt lat="40.0713749" lon="-105.229789">
  <ele>1583.0</ele>
  <time>2026-08-28T17:49:13Z</time>
  <course>247.66</course>
  <speed>0.0316227766016838</speed>
  <fix>3d</fix>
</trkpt>
<trkpt lat="40.0713749" lon="-105.229789">
  <ele>1583.0</ele>
  <time>2026-08-28T17:49:13Z</time>
  <course>0.0</course>
  <speed>0.0</speed>
  <fix>3d</fix>
</trkpt>
<trkpt lat="40.0713749" lon="-105.229789">
  <ele>1583.0</ele>
  <time>2026-08-28T17:49:13Z</time>
  <course>247.66</course>
  <speed>0.0316227766016838</speed>
  <fix>3d</fix>
</trkpt>
<trkpt lat="40.0713749" lon="-105.229789">
  <ele>1583.0</ele>
  <time>2026-08-28T17:49:13Z</time>
  <course>0.0</course>
  <speed>0.0</speed>
  <fix>3d</fix>
</trkpt>
<trkpt lat="40.0713749" lon="-105.229789">
  <ele>1583.0</ele>
  <time>2026-08-28T17:49:13Z</time>
  <course>247.65</course>
  <speed>0.0316227766016838</speed>
  <fix>3d</fix>
</trkpt>
<trkpt lat="40.0713749" lon="-105.229789">
  <ele>1583.0</ele>
  <time>2026-08-28T17:49:13Z</time>
  <course>0.0</course>
  <speed>0.0</speed>
  <fix>3d</fix>
</trkpt>
<trkpt lat="40.0713749" lon="-105.229789">
  <ele>1583.0</ele>
  <time>2026-08-28T17:49:13Z</time>
  <course>247.65</course>
  <speed>0.0316227766016838</speed>
  <fix>3d</fix>
</trkpt>
<trkpt lat="40.0713749" lon="-105.229789">
  <ele>1583.0</ele>
  <time>2026-08-28T17:49:13Z</time>
  <course>0.0</course>
  <speed>0.0</speed>
  <fix>3d</fix>
</trkpt>
<trkpt lat="40.0713749" lon="-105.229789">
  <ele>1583.0</ele>
  <time>2026-08-28T17:49:13Z</time>
  <course>247.65</course>
  <speed>0.0316227766016838</speed>
  <fix>3d</fix>
</trkpt>
<trkpt lat="40.0713749" lon="-105.229789">
  <ele>1583.0</ele>
  <time>2026-08-28T17:49:13Z</time>
  <course>0.0</course>
  <speed>0.0</speed>
  <fix>3d</fix>
</trkpt>
<trkpt lat="40.0713749" lon="-105.229789">
  <ele>1583.0</ele>
  <time>2026-08-28T17:49:13Z</time>
  <course>247.64</course>
  <speed>0.0316227766016838</speed>
  <fix>3d</fix>
</trkpt>
<trkpt lat="40.0713749" lon="-105.229789">
  <ele>1583.0</ele>
  <time>2026-08-28T17:49:13Z</time>
  <course>0.0</course>
  <speed>0.0</speed>
  <fix>3d</fix>
</trkpt>
<trkpt lat="40.0713749" lon="-105.229789">
  <ele>1583.0</ele>
  <time>2026-08-28T17:49:13Z</time>
  <course>247.64</course>
  <speed>0.0316227766016838</speed>
  <fix>3d</fix>
</trkpt>
<trkpt lat="40.0713749" lon="-105.229789">
  <ele>1583.0</ele>
  <time>2026-08-28T17:49:13Z</time>
  <course>0.0</course>
  <speed>0.0</speed>
  <fix>3d</fix>
</trkpt>
<trkpt lat="40.0713749" lon="-105.229789">
  <ele>1583.0</ele>
  <time>2026-08-28T17:49:13Z</time>
  <course>247.64</course>
  <speed>0.0316227766016838</speed>
  <fix>3d</fix>
</trkpt>
<trkpt lat="40.0713749" lon="-105.229789">
  <ele>1583.0</ele>
  <time>2026-08-28T17:49:13Z</time>
  <course>0.0</course>
  <speed>0.0</speed>
  <fix>3d</fix>
</trkpt>
<trkpt lat="40.0713749" lon="-105.229789">
  <ele>1583.0</ele>
  <time>2026-08-28T17:49:13Z</time>
  <course>247.64</course>
  <speed>0.0316227766016838</speed>
  <fix>3d</fix>
</trkpt>
<trkpt lat="40.0713749" lon="-105.229789">
  <ele>1583.0</ele>
  <time>2026-08-28T17:49:13Z</time>
  <course>0.0</course>
  <speed>0.0</speed>
  <fix>3d</fix>
</trkpt>
<trkpt lat="40.0713749" lon="-105.229789">
  <ele>1583.0</ele>
  <time>2026-08-28T17:49:13Z</time>
  <course>247.63</course>
  <speed>0.0316227766016838</speed>
  <fix>3d</fix>
</trkpt>
<trkpt lat="40.0713749" lon="-105.229789">
  <ele>1583.0</ele>
  <time>2026-08-28T17:49:13Z</time>
  <course>0.0</course>
  <speed>0.0</speed>
  <fix>3d</fix>
</trkpt>
<trkpt lat="40.0713749" lon="-105.229789">
  <ele>1583.0</ele>
  <time>2026-08-28T17:49:13Z</time>
  <course>247.63</course>
  <speed>0.0316227766016838</speed>
  <fix>3d</fix>
</trkpt>
<trkpt lat="40.0713749" lon="-105.229789">
  <ele>1583.0</ele>
  <time>2026-08-28T17:49:13Z</time>
  <course>0.0</course>
  <speed>0.0</speed>
  <fix>3d</fix>
</trkpt>
<trkpt lat="40.0713749" lon="-105.229789">
  <ele>1583.0</ele>
  <time>2026-08-28T17:49:13Z</time>
  <course>247.63</course>
  <speed>0.0316227766016838</speed>
  <fix>3d</fix>
</trkpt>
<trkpt lat="40.0713749" lon="-105.229789">
  <ele>1583.0</ele>
  <time>2026-08-28T17:49:13Z</time>
  <course>0.0</course>
  <speed>0.0</speed>
  <fix>3d</fix>
</trkpt>
<trkpt lat="40.0713749" lon="-105.229789">
  <ele>1583.0</ele>
  <time>2026-08-28T17:49:13Z</time>
  <course>247.62</course>
  <speed>0.0316227766016838</speed>
  <fix>3d</fix>
</trkpt>
<trkpt lat="40.0713749" lon="-105.229789">
  <ele>1583.0</ele>
  <time>2026-08-28T17:49:13Z</time>
  <course>0.0</course>
  <speed>0.0</speed>
  <fix>3d</fix>
</trkpt>
<trkpt lat="40.0713749" lon="-105.229789">
  <ele>1583.0</ele>
  <time>2026-08-28T17:49:13Z</time>
  <course>247.62</course>
  <speed>0.0316227766016838</speed>
  <fix>3d</fix>
</trkpt>
<trkpt lat="40.0713749" lon="-105.229789">
  <ele>1583.0</ele>
  <time>2026-08-28T17:49:13Z</time>
  <course>0.0</course>
  <speed>0.0</speed>
  <fix>3d</fix>
</trkpt>
<trkpt lat="40.0713749" lon="-105.229789">
  <ele>1583.0</ele>
  <time>2026-08-28T17:49:13Z</time>
  <course>247.62</course>
  <speed>0.0316227766016838</speed>
  <fix>3d</fix>
</trkpt>
<trkpt lat="40.0713749" lon="-105.229789">
  <ele>1583.0</ele>
  <time>2026-08-28T17:49:13Z</time>
  <course>0.0</course>
  <speed>0.0</speed>
  <fix>3d</fix>
</trkpt>
<trkpt lat="40.0713749" lon="-105.229789">
  <ele>1583.0</ele>
  <time>2026-08-28T17:49:13Z</time>
  <course>247.62</course>
  <speed>0.0316227766016838</speed>
  <fix>3d</fix>
</trkpt>
<trkpt lat="40.0713749" lon="-105.229789">
  <ele>1583.0</ele>
  <time>2026-08-28T17:49:13Z</time>
  <course>0.0</course>
  <speed>0.0</speed>
  <fix>3d</fix>
</trkpt>
<trkpt lat="40.0713749" lon="-105.229789">
  <ele>1583.0</ele>
  <time>2026-08-28T17:49:13Z</time>
  <course>247.61</course>
  <speed>0.0316227766016838</speed>
  <fix>3d</fix>
</trkpt>
<trkpt lat="40.0713749" lon="-105.229789">
  <ele>1583.0</ele>
  <time>2026-08-28T17:49:13Z</time>
  <course>0.0</course>
  <speed>0.0</speed>
  <fix>3d</fix>
</trkpt>
<trkpt lat="40.0713749" lon="-105.229789">
  <ele>1583.0</ele>
  <time>2026-08-28T17:49:13Z</time>
  <course>247.61</course>
  <speed>0.0316227766016838</speed>
  <fix>3d</fix>
</trkpt>
<trkpt lat="40.0713749" lon="-105.229789">
  <ele>1583.0</ele>
  <time>2026-08-28T17:49:13Z</time>
  <course>0.0</course>
  <speed>0.0</speed>
  <fix>3d</fix>
</trkpt>
<trkpt lat="40.0713749" lon="-105.229789">
  <ele>1583.0</ele>
  <time>2026-08-28T17:49:13Z</time>
  <course>247.61</course>
  <speed>0.0316227766016838</speed>
  <fix>3d</fix>
</trkpt>
<trkpt lat="40.0713749" lon="-105.229789">
  <ele>1583.0</ele>
  <time>2026-08-28T17:49:13Z</time>
  <course>0.0</course>
  <speed>0.0</speed>
  <fix>3d</fix>
</trkpt>
<trkpt lat="40.0713749" lon="-105.229789">
  <ele>1583.0</ele>
  <time>2026-08-28T17:49:13Z</time>
  <course>247.6</course>
  <speed>0.0316227766016838</speed>
  <fix>3d</fix>
</trkpt>
<trkpt lat="40.0713749" lon="-105.229789">
  <ele>1583.0</ele>
  <time>2026-08-28T17:49:13Z</time>
  <course>0.0</course>
  <speed>0.0</speed>
  <fix>3d</fix>
</trkpt>
<trkpt lat="40.0713749" lon="-105.229789">
  <ele>1583.0</ele>
  <time>2026-08-28T17:49:13Z</time>
  <course>247.6</course>
  <speed>0.0316227766016838</speed>
  <fix>3d</fix>
</trkpt>
<trkpt lat="40.0713749" lon="-105.229789">
  <ele>1583.0</ele>
  <time>2026-08-28T17:49:13Z</time>
  <course>0.0</course>
  <speed>0.0</speed>
  <fix>3d</fix>
</trkpt>
<trkpt lat="40.0713749" lon="-105.229789">
  <ele>1583.0</ele>
  <time>2026-08-28T17:49:13Z</time>
  <course>247.6</course>
  <speed>0.0316227766016838</speed>
  <fix>3d</fix>
</trkpt>
<trkpt lat="40.0713749" lon="-105.229789">
  <ele>1583.0</ele>
  <time>2026-08-28T17:49:13Z</time>
  <course>0.0</course>
  <speed>0.0</speed>
  <fix>3d</fix>
</trkpt>
<trkpt lat="40.0713749" lon="-105.229789">
  <ele>1583.0</ele>
  <time>2026-08-28T17:49:13Z</time>
  <course>247.6</course>
  <speed>0.0316227766016838</speed>
  <fix>3d</fix>
</trkpt>
<trkpt lat="40.0713749" lon="-105.229789">
  <ele>1583.0</ele>
  <time>2026-08-28T17:49:13Z</time>
  <course>0.0</course>
  <speed>0.0</speed>
  <fix>3d</fix>
</trkpt>
<trkpt lat="40.0713749" lon="-105.229789">
  <ele>1583.0</ele>
  <time>2026-08-28T17:49:13Z</time>
  <course>247.59</course>
  <speed>0.0316227766016838</speed>
  <fix>3d</fix>
</trkpt>
<trkpt lat="40.0713749" lon="-105.229789">
  <ele>1583.0</ele>
  <time>2026-08-28T17:49:13Z</time>
  <course>0.0</course>
  <speed>0.0</speed>
  <fix>3d</fix>
</trkpt>
<trkpt lat="40.0713749" lon="-105.229789">
  <ele>1582.92</ele>
  <time>2026-08-28T17:49:13Z</time>
  <course>247.59</course>
  <speed>0.0</speed>
  <fix>3d</fix>
</trkpt>
<trkpt lat="40.0713749" lon="-105.229789">
  <ele>1583.0</ele>
  <time>2026-08-28T17:49:13Z</time>
  <course>0.0</course>
  <speed>0.0</speed>
  <fix>3d</fix>
</trkpt>
<trkpt lat="40.0713749" lon="-105.229789">
  <ele>1582.92</ele>
  <time>2026-08-28T17:49:13Z</time>
  <course>247.59</course>
  <speed>0.0</speed>
  <fix>3d</fix>
</trkpt>
<trkpt lat="40.0713749" lon="-105.229789">
  <ele>1583.0</ele>
  <time>2026-08-28T17:49:13Z</time>
  <course>0.0</course>
  <speed>0.0</speed>
  <fix>3d</fix>
</trkpt>
<trkpt lat="40.0713749" lon="-105.229789">
  <ele>1582.91</ele>
  <time>2026-08-28T17:49:13Z</time>
  <course>247.58</course>
  <speed>0.0</speed>
  <fix>3d</fix>
</trkpt>
<trkpt lat="40.0713749" lon="-105.229789">
  <ele>1583.0</ele>
  <time>2026-08-28T17:49:13Z</time>
  <course>0.0</course>
  <speed>0.0</speed>
  <fix>3d</fix>
</trkpt>
<trkpt lat="40.0713749" lon="-105.229789">
  <ele>1582.91</ele>
  <time>2026-08-28T17:49:13Z</time>
  <course>247.58</course>
  <speed>0.0</speed>
  <fix>3d</fix>
</trkpt>
<trkpt lat="40.0713749" lon="-105.229789">
  <ele>1583.0</ele>
  <time>2026-08-28T17:49:13Z</time>
  <course>0.0</course>
  <speed>0.0</speed>
  <fix>3d</fix>
</trkpt>
<trkpt lat="40.0713749" lon="-105.229789">
  <ele>1582.9</ele>
  <time>2026-08-28T17:49:13Z</time>
  <course>247.58</course>
  <speed>0.0</speed>
  <fix>3d</fix>
</trkpt>
<trkpt lat="40.0713749" lon="-105.229789">
  <ele>1583.0</ele>
  <time>2026-08-28T17:49:13Z</time>
  <course>0.0</course>
  <speed>0.0</speed>
  <fix>3d</fix>
</trkpt>
<trkpt lat="40.0713749" lon="-105.229789">
  <ele>1582.9</ele>
  <time>2026-08-28T17:49:13Z</time>
  <course>247.58</course>
  <speed>0.0</speed>
  <fix>3d</fix>
</trkpt>
<trkpt lat="40.0713749" lon="-105.229789">
  <ele>1583.0</ele>
  <time>2026-08-28T17:49:13Z</time>
  <course>0.0</course>
  <speed>0.0</speed>
  <fix>3d</fix>
</trkpt>
<trkpt lat="40.0713749" lon="-105.229789">
  <ele>1582.9</ele>
  <time>2026-08-28T17:49:13Z</time>
  <course>247.57</course>
  <speed>0.0</speed>
  <fix>3d</fix>
</trkpt>
<trkpt lat="40.0713749" lon="-105.229789">
  <ele>1583.0</ele>
  <time>2026-08-28T17:49:13Z</time>
  <course>0.0</course>
  <speed>0.0</speed>
  <fix>3d</fix>
</trkpt>
<trkpt lat="40.0713749" lon="-105.229789">
  <ele>1582.9</ele>
  <time>2026-08-28T17:49:13Z</time>
  <course>247.57</course>
  <speed>0.0</speed>
  <fix>3d</fix>
</trkpt>
<trkpt lat="40.0713749" lon="-105.229789">
  <ele>1583.0</ele>
  <time>2026-08-28T17:49:13Z</time>
  <course>0.0</course>
  <speed>0.0</speed>
  <fix>3d</fix>
</trkpt>
<trkpt lat="40.0713749" lon="-105.229789">
  <ele>1582.9</ele>
  <time>2026-08-28T17:49:13Z</time>
  <course>247.57</course>
  <speed>0.0</speed>
  <fix>3d</fix>
</trkpt>
<trkpt lat="40.0713749" lon="-105.229789">
  <ele>1583.0</ele>
  <time>2026-08-28T17:49:13Z</time>
  <course>0.0</course>
  <speed>0.0</speed>
  <fix>3d</fix>
</trkpt>
<trkpt lat="40.0713749" lon="-105.229789">
  <ele>1582.9</ele>
  <time>2026-08-28T17:49:13Z</time>
  <course>247.57</course>
  <speed>0.01</speed>
  <fix>3d</fix>
</trkpt>
<trkpt lat="40.0713749" lon="-105.229789">
  <ele>1583.0</ele>
  <time>2026-08-28T17:49:13Z</time>
  <course>0.0</course>
  <speed>0.0</speed>
  <fix>3d</fix>
</trkpt>
<trkpt lat="40.0713749" lon="-105.229789">
  <ele>1582.9</ele>
  <time>2026-08-28T17:49:13Z</time>
  <course>247.56</course>
  <speed>0.01</speed>
  <fix>3d</fix>
</trkpt>
<trkpt lat="40.0713749" lon="-105.229789">
  <ele>1583.0</ele>
  <time>2026-08-28T17:49:13Z</time>
  <course>0.0</course>
  <speed>0.0</speed>
  <fix>3d</fix>
</trkpt>
<trkpt lat="40.0713749" lon="-105.229789">
  <ele>1582.91</ele>
  <time>2026-08-28T17:49:13Z</time>
  <course>247.56</course>
  <speed>0.01</speed>
  <fix>3d</fix>
</trkpt>
<trkpt lat="40.0713749" lon="-105.229789">
  <ele>1583.0</ele>
  <time>2026-08-28T17:49:13Z</time>
  <course>0.0</course>
  <speed>0.0</speed>
  <fix>3d</fix>
</trkpt>
<trkpt lat="40.0713749" lon="-105.229789">
  <ele>1582.91</ele>
  <time>2026-08-28T17:49:13Z</time>
  <course>247.56</course>
  <speed>0.01</speed>
  <fix>3d</fix>
</trkpt>
<trkpt lat="40.0713749" lon="-105.229789">
  <ele>1583.0</ele>
  <time>2026-08-28T17:49:13Z</time>
  <course>0.0</course>
  <speed>0.0</speed>
  <fix>3d</fix>
</trkpt>
<trkpt lat="40.0713749" lon="-105.229789">
  <ele>1582.92</ele>
  <time>2026-08-28T17:49:13Z</time>
  <course>247.56</course>
  <speed>0.01</speed>
  <fix>3d</fix>
</trkpt>
<trkpt lat="40.0713749" lon="-105.229789">
  <ele>1583.0</ele>
  <time>2026-08-28T17:49:13Z</time>
  <course>0.0</course>
  <speed>0.0</speed>
  <fix>3d</fix>
</trkpt>
<trkpt lat="40.0713749" lon="-105.229789">
  <ele>1582.92</ele>
  <time>2026-08-28T17:49:13Z</time>
  <course>247.55</course>
  <speed>0.01</speed>
  <fix>3d</fix>
</trkpt>
<trkpt lat="40.0713749" lon="-105.229789">
  <ele>1583.0</ele>
  <time>2026-08-28T17:49:13Z</time>
  <course>0.0</course>
  <speed>0.0</speed>
  <fix>3d</fix>
</trkpt>
<trkpt lat="40.0713749" lon="-105.229789">
  <ele>1582.92</ele>
  <time>2026-08-28T17:49:13Z</time>
  <course>247.55</course>
  <speed>0.01</speed>
  <fix>3d</fix>
</trkpt>
<trkpt lat="40.0713749" lon="-105.229789">
  <ele>1583.0</ele>
  <time>2026-08-28T17:49:13Z</time>
  <course>0.0</course>
  <speed>0.0</speed>
  <fix>3d</fix>
</trkpt>
<trkpt lat="40.0713749" lon="-105.229789">
  <ele>1582.93</ele>
  <time>2026-08-28T17:49:13Z</time>
  <course>247.55</course>
  <speed>0.01</speed>
  <fix>3d</fix>
</trkpt>
<trkpt lat="40.0713749" lon="-105.229789">
  <ele>1583.0</ele>
  <time>2026-08-28T17:49:13Z</time>
  <course>0.0</course>
  <speed>0.0</speed>
  <fix>3d</fix>
</trkpt>
<trkpt lat="40.0713749" lon="-105.229789">
  <ele>1582.93</ele>
  <time>2026-08-28T17:49:13Z</time>
  <course>247.55</course>
  <speed>0.01</speed>
  <fix>3d</fix>
</trkpt>
<trkpt lat="40.0713749" lon="-105.229789">
  <ele>1583.0</ele>
  <time>2026-08-28T17:49:13Z</time>
  <course>0.0</course>
  <speed>0.0</speed>
  <fix>3d</fix>
</trkpt>
<trkpt lat="40.0713749" lon="-105.229789">
  <ele>1582.93</ele>
  <time>2026-08-28T17:49:13Z</time>
  <course>247.54</course>
  <speed>0.02</speed>
  <fix>3d</fix>
</trkpt>
<trkpt lat="40.0713749" lon="-105.229789">
  <ele>1583.0</ele>
  <time>2026-08-28T17:49:13Z</time>
  <course>0.0</course>
  <speed>0.0</speed>
  <fix>3d</fix>
</trkpt>
<trkpt lat="40.0713749" lon="-105.229789">
  <ele>1582.93</ele>
  <time>2026-08-28T17:49:13Z</time>
  <course>247.54</course>
  <speed>0.02</speed>
  <fix>3d</fix>
</trkpt>
<trkpt lat="40.0713749" lon="-105.229789">
  <ele>1583.0</ele>
  <time>2026-08-28T17:49:13Z</time>
  <course>0.0</course>
  <speed>0.0</speed>
  <fix>3d</fix>
</trkpt>
<trkpt lat="40.0713749" lon="-105.229789">
  <ele>1582.93</ele>
  <time>2026-08-28T17:49:13Z</time>
  <course>247.54</course>
  <speed>0.02</speed>
  <fix>3d</fix>
</trkpt>
<trkpt lat="40.0713749" lon="-105.229789">
  <ele>1583.0</ele>
  <time>2026-08-28T17:49:13Z</time>
  <course>0.0</course>
  <speed>0.0</speed>
  <fix>3d</fix>
</trkpt>
<trkpt lat="40.0713749" lon="-105.229789">
  <ele>1582.93</ele>
  <time>2026-08-28T17:49:13Z</time>
  <course>247.54</course>
  <speed>0.022360679774997897</speed>
  <fix>3d</fix>
</trkpt>
<trkpt lat="40.0713749" lon="-105.229789">
  <ele>1583.0</ele>
  <time>2026-08-28T17:49:13Z</time>
  <course>0.0</course>
  <speed>0.0</speed>
  <fix>3d</fix>
</trkpt>
<trkpt lat="40.0713749" lon="-105.229789">
  <ele>1582.94</ele>
  <time>2026-08-28T17:49:13Z</time>
  <course>247.53</course>
  <speed>0.022360679774997897</speed>
  <fix>3d</fix>
</trkpt>
<trkpt lat="40.0713749" lon="-105.229789">
  <ele>1583.0</ele>
  <time>2026-08-28T17:49:13Z</time>
  <course>0.0</course>
  <speed>0.0</speed>
  <fix>3d</fix>
</trkpt>
<trkpt lat="40.0713749" lon="-105.229789">
  <ele>1582.94</ele>
  <time>2026-08-28T17:49:13Z</time>
  <course>247.53</course>
  <speed>0.022360679774997897</speed>
  <fix>3d</fix>
</trkpt>
<trkpt lat="40.0713749" lon="-105.229789">
  <ele>1583.0</ele>
  <time>2026-08-28T17:49:13Z</time>
  <course>0.0</course>
  <speed>0.0</speed>
  <fix>3d</fix>
</trkpt>
<trkpt lat="40.071375" lon="-105.229789">
  <ele>1582.94</ele>
  <time>2026-08-28T17:49:13Z</time>
  <course>247.53</course>
  <speed>0.022360679774997897</speed>
  <fix>3d</fix>
</trkpt>
<trkpt lat="40.0713749" lon="-105.229789">
  <ele>1583.0</ele>
  <time>2026-08-28T17:49:13Z</time>
  <course>0.0</course>
  <speed>0.0</speed>
  <fix>3d</fix>
</trkpt>
<trkpt lat="40.071375" lon="-105.229789">
  <ele>1582.95</ele>
  <time>2026-08-28T17:49:13Z</time>
  <course>247.53</course>
  <speed>0.022360679774997897</speed>
  <fix>3d</fix>
</trkpt>
<trkpt lat="40.0713749" lon="-105.229789">
  <ele>1583.0</ele>
  <time>2026-08-28T17:49:13Z</time>
  <course>0.0</course>
  <speed>0.0</speed>
  <fix>3d</fix>
</trkpt>
<trkpt lat="40.071375" lon="-105.229789">
  <ele>1582.95</ele>
  <time>2026-08-28T17:49:13Z</time>
  <course>247.53</course>
  <speed>0.022360679774997897</speed>
  <fix>3d</fix>
</trkpt>
<trkpt lat="40.0713749" lon="-105.229789">
  <ele>1583.0</ele>
  <time>2026-08-28T17:49:13Z</time>
  <course>0.0</course>
  <speed>0.0</speed>
  <fix>3d</fix>
</trkpt>
<trkpt lat="40.071375" lon="-105.229789">
  <ele>1582.95</ele>
  <time>2026-08-28T17:49:13Z</time>
  <course>247.52</course>
  <speed>0.022360679774997897</speed>
  <fix>3d</fix>
</trkpt>
<trkpt lat="40.0713749" lon="-105.229789">
  <ele>1583.0</ele>
  <time>2026-08-28T17:49:13Z</time>
  <course>0.0</course>
  <speed>0.0</speed>
  <fix>3d</fix>
</trkpt>
<trkpt lat="40.071375" lon="-105.229789">
  <ele>1582.95</ele>
  <time>2026-08-28T17:49:13Z</time>
  <course>247.52</course>
  <speed>0.022360679774997897</speed>
  <fix>3d</fix>
</trkpt>
<trkpt lat="40.0713749" lon="-105.229789">
  <ele>1583.0</ele>
  <time>2026-08-28T17:49:13Z</time>
  <course>0.0</course>
  <speed>0.0</speed>
  <fix>3d</fix>
</trkpt>
<trkpt lat="40.071375" lon="-105.229789">
  <ele>1582.95</ele>
  <time>2026-08-28T17:49:13Z</time>
  <course>247.52</course>
  <speed>0.022360679774997897</speed>
  <fix>3d</fix>
</trkpt>
<trkpt lat="40.0713749" lon="-105.229789">
  <ele>1583.0</ele>
  <time>2026-08-28T17:49:13Z</time>
  <course>0.0</course>
  <speed>0.0</speed>
  <fix>3d</fix>
</trkpt>
<trkpt lat="40.071375" lon="-105.229789">
  <ele>1582.95</ele>
  <time>2026-08-28T17:49:13Z</time>
  <course>247.52</course>
  <speed>0.022360679774997897</speed>
  <fix>3d</fix>
</trkpt>
<trkpt lat="40.0713749" lon="-105.229789">
  <ele>1583.0</ele>
  <time>2026-08-28T17:49:13Z</time>
  <course>0.0</course>
  <speed>0.0</speed>
  <fix>3d</fix>
</trkpt>
<trkpt lat="40.071375" lon="-105.229789">
  <ele>1582.95</ele>
  <time>2026-08-28T17:49:13Z</time>
  <course>247.51</course>
  <speed>0.0316227766016838</speed>
  <fix>3d</fix>
</trkpt>
<trkpt lat="40.0713749" lon="-105.229789">
  <ele>1583.0</ele>
  <time>2026-08-28T17:49:13Z</time>
  <course>0.0</course>
  <speed>0.0</speed>
  <fix>3d</fix>
</trkpt>
<trkpt lat="40.071375" lon="-105.229789">
  <ele>1582.95</ele>
  <time>2026-08-28T17:49:13Z</time>
  <course>247.51</course>
  <speed>0.0316227766016838</speed>
  <fix>3d</fix>
</trkpt>
<trkpt lat="40.0713749" lon="-105.229789">
  <ele>1583.0</ele>
  <time>2026-08-28T17:49:13Z</time>
  <course>0.0</course>
  <speed>0.0</speed>
  <fix>3d</fix>
</trkpt>
<trkpt lat="40.071375" lon="-105.229789">
  <ele>1582.95</ele>
  <time>2026-08-28T17:49:13Z</time>
  <course>247.51</course>
  <speed>0.0316227766016838</speed>
  <fix>3d</fix>
</trkpt>
<trkpt lat="40.0713749" lon="-105.229789">
  <ele>1583.0</ele>
  <time>2026-08-28T17:49:13Z</time>
  <course>0.0</course>
  <speed>0.0</speed>
  <fix>3d</fix>
</trkpt>
<trkpt lat="40.071375" lon="-105.2297889">
  <ele>1582.95</ele>
  <time>2026-08-28T17:49:13Z</time>
  <course>247.51</course>
  <speed>0.0316227766016838</speed>
  <fix>3d</fix>
</trkpt>
<trkpt lat="40.0713749" lon="-105.229789">
  <ele>1583.0</ele>
  <time>2026-08-28T17:49:13Z</time>
  <course>0.0</course>
  <speed>0.0</speed>
  <fix>3d</fix>
</trkpt>
<trkpt lat="40.071375" lon="-105.2297889">
  <ele>1582.95</ele>
  <time>2026-08-28T17:49:13Z</time>
  <course>247.51</course>
  <speed>0.0316227766016838</speed>
  <fix>3d</fix>
</trkpt>
<trkpt lat="40.0713749" lon="-105.229789">
  <ele>1583.0</ele>
  <time>2026-08-28T17:49:13Z</time>
  <course>0.0</course>
  <speed>0.0</speed>
  <fix>3d</fix>
</trkpt>
<trkpt lat="40.071375" lon="-105.2297889">
  <ele>1582.95</ele>
  <time>2026-08-28T17:49:13Z</time>
  <course>247.5</course>
  <speed>0.0316227766016838</speed>
  <fix>3d</fix>
</trkpt>
<trkpt lat="40.0713749" lon="-105.229789">
  <ele>1583.0</ele>
  <time>2026-08-28T17:49:13Z</time>
  <course>0.0</course>
  <speed>0.0</speed>
  <fix>3d</fix>
</trkpt>
<trkpt lat="40.071375" lon="-105.2297889">
  <ele>1582.95</ele>
  <time>2026-08-28T17:49:13Z</time>
  <course>247.5</course>
  <speed>0.0316227766016838</speed>
  <fix>3d</fix>
</trkpt>
<trkpt lat="40.0713749" lon="-105.229789">
  <ele>1583.0</ele>
  <time>2026-08-28T17:49:13Z</time>
  <course>0.0</course>
  <speed>0.0</speed>
  <fix>3d</fix>
</trkpt>
<trkpt lat="40.071375" lon="-105.2297889">
  <ele>1582.95</ele>
  <time>2026-08-28T17:49:13Z</time>
  <course>247.5</course>
  <speed>0.0316227766016838</speed>
  <fix>3d</fix>
</trkpt>
<trkpt lat="40.0713749" lon="-105.229789">
  <ele>1583.0</ele>
  <time>2026-08-28T17:49:13Z</time>
  <course>0.0</course>
  <speed>0.0</speed>
  <fix>3d</fix>
</trkpt>
<trkpt lat="40.0713751" lon="-105.2297889">
  <ele>1582.95</ele>
  <time>2026-08-28T17:49:13Z</time>
  <course>247.5</course>
  <speed>0.0316227766016838</speed>
  <fix>3d</fix>
</trkpt>
<trkpt lat="40.0713749" lon="-105.229789">
  <ele>1583.0</ele>
  <time>2026-08-28T17:49:13Z</time>
  <course>0.0</course>
  <speed>0.0</speed>
  <fix>3d</fix>
</trkpt>
<trkpt lat="40.0713751" lon="-105.2297889">
  <ele>1582.96</ele>
  <time>2026-08-28T17:49:13Z</time>
  <course>247.49</course>
  <speed>0.0316227766016838</speed>
  <fix>3d</fix>
</trkpt>
<trkpt lat="40.0713749" lon="-105.229789">
  <ele>1583.0</ele>
  <time>2026-08-28T17:49:13Z</time>
  <course>0.0</course>
  <speed>0.0</speed>
  <fix>3d</fix>
</trkpt>
<trkpt lat="40.0713751" lon="-105.2297889">
  <ele>1582.96</ele>
  <time>2026-08-28T17:49:13Z</time>
  <course>247.49</course>
  <speed>0.0316227766016838</speed>
  <fix>3d</fix>
</trkpt>
<trkpt lat="40.0713749" lon="-105.229789">
  <ele>1583.0</ele>
  <time>2026-08-28T17:49:13Z</time>
  <course>0.0</course>
  <speed>0.0</speed>
  <fix>3d</fix>
</trkpt>
<trkpt lat="40.0713751" lon="-105.2297889">
  <ele>1582.97</ele>
  <time>2026-08-28T17:49:13Z</time>
  <course>247.49</course>
  <speed>0.0316227766016838</speed>
  <fix>3d</fix>
</trkpt>
<trkpt lat="40.0713749" lon="-105.229789">
  <ele>1583.0</ele>
  <time>2026-08-28T17:49:13Z</time>
  <course>0.0</course>
  <speed>0.0</speed>
  <fix>3d</fix>
</trkpt>
<trkpt lat="40.0713751" lon="-105.2297889">
  <ele>1582.98</ele>
  <time>2026-08-28T17:49:13Z</time>
  <course>247.49</course>
  <speed>0.0316227766016838</speed>
  <fix>3d</fix>
</trkpt>
<trkpt lat="40.0713749" lon="-105.229789">
  <ele>1583.0</ele>
  <time>2026-08-28T17:49:13Z</time>
  <course>0.0</course>
  <speed>0.0</speed>
  <fix>3d</fix>
</trkpt>
<trkpt lat="40.0713751" lon="-105.2297889">
  <ele>1582.98</ele>
  <time>2026-08-28T17:49:13Z</time>
  <course>247.49</course>
  <speed>0.0316227766016838</speed>
  <fix>3d</fix>
</trkpt>
<trkpt lat="40.0713749" lon="-105.229789">
  <ele>1583.0</ele>
  <time>2026-08-28T17:49:13Z</time>
  <course>0.0</course>
  <speed>0.0</speed>
  <fix>3d</fix>
</trkpt>
<trkpt lat="40.0713751" lon="-105.2297889">
  <ele>1582.99</ele>
  <time>2026-08-28T17:49:13Z</time>
  <course>247.48</course>
  <speed>0.0316227766016838</speed>
  <fix>3d</fix>
</trkpt>
<trkpt lat="40.0713749" lon="-105.229789">
  <ele>1583.0</ele>
  <time>2026-08-28T17:49:13Z</time>
  <course>0.0</course>
  <speed>0.0</speed>
  <fix>3d</fix>
</trkpt>
<trkpt lat="40.0713751" lon="-105.2297889">
  <ele>1583.0</ele>
  <time>2026-08-28T17:49:13Z</time>
  <course>247.48</course>
  <speed>0.022360679774997897</speed>
  <fix>3d</fix>
</trkpt>
<trkpt lat="40.0713749" lon="-105.229789">
  <ele>1583.0</ele>
  <time>2026-08-28T17:49:13Z</time>
  <course>0.0</course>
  <speed>0.0</speed>
  <fix>3d</fix>
</trkpt>
<trkpt lat="40.0713751" lon="-105.2297889">
  <ele>1583.01</ele>
  <time>2026-08-28T17:49:13Z</time>
  <course>247.48</course>
  <speed>0.022360679774997897</speed>
  <fix>3d</fix>
</trkpt>
<trkpt lat="40.0713749" lon="-105.229789">
  <ele>1583.0</ele>
  <time>2026-08-28T17:49:13Z</time>
  <course>0.0</course>
  <speed>0.0</speed>
  <fix>3d</fix>
</trkpt>
<trkpt lat="40.0713751" lon="-105.2297889">
  <ele>1583.01</ele>
  <time>2026-08-28T17:49:13Z</time>
  <course>247.48</course>
  <speed>0.022360679774997897</speed>
  <fix>3d</fix>
</trkpt>
<trkpt lat="40.0713749" lon="-105.229789">
  <ele>1583.0</ele>
  <time>2026-08-28T17:49:13Z</time>
  <course>0.0</course>
  <speed>0.0</speed>
  <fix>3d</fix>
</trkpt>
<trkpt lat="40.0713751" lon="-105.2297889">
  <ele>1583.01</ele>
  <time>2026-08-28T17:49:13Z</time>
  <course>247.47</course>
  <speed>0.022360679774997897</speed>
  <fix>3d</fix>
</trkpt>
<trkpt lat="40.0713749" lon="-105.229789">
  <ele>1583.0</ele>
  <time>2026-08-28T17:49:13Z</time>
  <course>0.0</course>
  <speed>0.0</speed>
  <fix>3d</fix>
</trkpt>
<trkpt lat="40.0713751" lon="-105.2297889">
  <ele>1583.01</ele>
  <time>2026-08-28T17:49:13Z</time>
  <course>247.47</course>
  <speed>0.022360679774997897</speed>
  <fix>3d</fix>
</trkpt>
<trkpt lat="40.0713749" lon="-105.229789">
  <ele>1583.0</ele>
  <time>2026-08-28T17:49:13Z</time>
  <course>0.0</course>
  <speed>0.0</speed>
  <fix>3d</fix>
</trkpt>
<trkpt lat="40.0713751" lon="-105.2297889">
  <ele>1583.01</ele>
  <time>2026-08-28T17:49:13Z</time>
  <course>247.47</course>
  <speed>0.022360679774997897</speed>
  <fix>3d</fix>
</trkpt>
<trkpt lat="40.0713749" lon="-105.229789">
  <ele>1583.0</ele>
  <time>2026-08-28T17:49:13Z</time>
  <course>0.0</course>
  <speed>0.0</speed>
  <fix>3d</fix>
</trkpt>
<trkpt lat="40.071375" lon="-105.2297889">
  <ele>1583.0</ele>
  <time>2026-08-28T17:49:13Z</time>
  <course>247.47</course>
  <speed>0.022360679774997897</speed>
  <fix>3d</fix>
</trkpt>
<trkpt lat="40.0713749" lon="-105.229789">
  <ele>1583.0</ele>
  <time>2026-08-28T17:49:13Z</time>
  <course>0.0</course>
  <speed>0.0</speed>
  <fix>3d</fix>
</trkpt>
<trkpt lat="40.0713751" lon="-105.2297889">
  <ele>1583.0</ele>
  <time>2026-08-28T17:49:13Z</time>
  <course>247.47</course>
  <speed>0.022360679774997897</speed>
  <fix>3d</fix>
</trkpt>
<trkpt lat="40.0713749" lon="-105.229789">
  <ele>1583.0</ele>
  <time>2026-08-28T17:49:13Z</time>
  <course>0.0</course>
  <speed>0.0</speed>
  <fix>3d</fix>
</trkpt>
<trkpt lat="40.071375" lon="-105.2297889">
  <ele>1583.0</ele>
  <time>2026-08-28T17:49:13Z</time>
  <course>247.46</course>
  <speed>0.022360679774997897</speed>
  <fix>3d</fix>
</trkpt>
<trkpt lat="40.0713749" lon="-105.229789">
  <ele>1583.0</ele>
  <time>2026-08-28T17:49:13Z</time>
  <course>0.0</course>
  <speed>0.0</speed>
  <fix>3d</fix>
</trkpt>
<trkpt lat="40.071375" lon="-105.2297889">
  <ele>1582.99</ele>
  <time>2026-08-28T17:49:13Z</time>
  <course>247.46</course>
  <speed>0.022360679774997897</speed>
  <fix>3d</fix>
</trkpt>
<trkpt lat="40.0713749" lon="-105.229789">
  <ele>1583.0</ele>
  <time>2026-08-28T17:49:13Z</time>
  <course>0.0</course>
  <speed>0.0</speed>
  <fix>3d</fix>
</trkpt>
<trkpt lat="40.071375" lon="-105.2297889">
  <ele>1582.99</ele>
  <time>2026-08-28T17:49:13Z</time>
  <course>247.46</course>
  <speed>0.022360679774997897</speed>
  <fix>3d</fix>
</trkpt>
<trkpt lat="40.0713749" lon="-105.229789">
  <ele>1583.0</ele>
  <time>2026-08-28T17:49:13Z</time>
  <course>0.0</course>
  <speed>0.0</speed>
  <fix>3d</fix>
</trkpt>
<trkpt lat="40.071375" lon="-105.2297889">
  <ele>1582.99</ele>
  <time>2026-08-28T17:49:13Z</time>
  <course>247.46</course>
  <speed>0.022360679774997897</speed>
  <fix>3d</fix>
</trkpt>
<trkpt lat="40.0713749" lon="-105.229789">
  <ele>1583.0</ele>
  <time>2026-08-28T17:49:13Z</time>
  <course>0.0</course>
  <speed>0.0</speed>
  <fix>3d</fix>
</trkpt>
<trkpt lat="40.071375" lon="-105.2297889">
  <ele>1582.99</ele>
  <time>2026-08-28T17:49:13Z</time>
  <course>247.45</course>
  <speed>0.022360679774997897</speed>
  <fix>3d</fix>
</trkpt>
<trkpt lat="40.0713749" lon="-105.229789">
  <ele>1583.0</ele>
  <time>2026-08-28T17:49:13Z</time>
  <course>0.0</course>
  <speed>0.0</speed>
  <fix>3d</fix>
</trkpt>
<trkpt lat="40.071375" lon="-105.2297889">
  <ele>1582.99</ele>
  <time>2026-08-28T17:49:13Z</time>
  <course>247.45</course>
  <speed>0.022360679774997897</speed>
  <fix>3d</fix>
</trkpt>
<trkpt lat="40.0713749" lon="-105.229789">
  <ele>1583.0</ele>
  <time>2026-08-28T17:49:13Z</time>
  <course>0.0</course>
  <speed>0.0</speed>
  <fix>3d</fix>
</trkpt>
<trkpt lat="40.071375" lon="-105.2297889">
  <ele>1582.99</ele>
  <time>2026-08-28T17:49:13Z</time>
  <course>247.45</course>
  <speed>0.022360679774997897</speed>
  <fix>3d</fix>
</trkpt>
<trkpt lat="40.0713749" lon="-105.229789">
  <ele>1583.0</ele>
  <time>2026-08-28T17:49:13Z</time>
  <course>0.0</course>
  <speed>0.0</speed>
  <fix>3d</fix>
</trkpt>
<trkpt lat="40.071375" lon="-105.2297889">
  <ele>1582.99</ele>
  <time>2026-08-28T17:49:13Z</time>
  <course>247.45</course>
  <speed>0.022360679774997897</speed>
  <fix>3d</fix>
</trkpt>
<trkpt lat="40.0713749" lon="-105.229789">
  <ele>1583.0</ele>
  <time>2026-08-28T17:49:13Z</time>
  <course>0.0</course>
  <speed>0.0</speed>
  <fix>3d</fix>
</trkpt>
<trkpt lat="40.071375" lon="-105.2297889">
  <ele>1583.0</ele>
  <time>2026-08-28T17:49:13Z</time>
  <course>247.45</course>
  <speed>0.022360679774997897</speed>
  <fix>3d</fix>
</trkpt>
<trkpt lat="40.0713749" lon="-105.229789">
  <ele>1583.0</ele>
  <time>2026-08-28T17:49:13Z</time>
  <course>0.0</course>
  <speed>0.0</speed>
  <fix>3d</fix>
</trkpt>
<trkpt lat="40.071375" lon="-105.2297889">
  <ele>1583.0</ele>
  <time>2026-08-28T17:49:13Z</time>
  <course>247.44</course>
  <speed>0.022360679774997897</speed>
  <fix>3d</fix>
</trkpt>
<trkpt lat="40.0713749" lon="-105.229789">
  <ele>1583.0</ele>
  <time>2026-08-28T17:49:13Z</time>
  <course>0.0</course>
  <speed>0.0</speed>
  <fix>3d</fix>
</trkpt>
<trkpt lat="40.071375" lon="-105.229789">
  <ele>1583.0</ele>
  <time>2026-08-28T17:49:13Z</time>
  <course>247.44</course>
  <speed>0.02</speed>
  <fix>3d</fix>
</trkpt>
<trkpt lat="40.0713749" lon="-105.229789">
  <ele>1583.0</ele>
  <time>2026-08-28T17:49:13Z</time>
  <course>0.0</course>
  <speed>0.0</speed>
  <fix>3d</fix>
</trkpt>
<trkpt lat="40.071375" lon="-105.229789">
  <ele>1583.0</ele>
  <time>2026-08-28T17:49:13Z</time>
  <course>247.44</course>
  <speed>0.02</speed>
  <fix>3d</fix>
</trkpt>
<trkpt lat="40.0713749" lon="-105.229789">
  <ele>1583.0</ele>
  <time>2026-08-28T17:49:13Z</time>
  <course>0.0</course>
  <speed>0.0</speed>
  <fix>3d</fix>
</trkpt>
<trkpt lat="40.071375" lon="-105.229789">
  <ele>1583.0</ele>
  <time>2026-08-28T17:49:13Z</time>
  <course>247.44</course>
  <speed>0.02</speed>
  <fix>3d</fix>
</trkpt>
<trkpt lat="40.0713749" lon="-105.229789">
  <ele>1583.0</ele>
  <time>2026-08-28T17:49:13Z</time>
  <course>0.0</course>
  <speed>0.0</speed>
  <fix>3d</fix>
</trkpt>
<trkpt lat="40.071375" lon="-105.229789">
  <ele>1583.01</ele>
  <time>2026-08-28T17:49:13Z</time>
  <course>247.43</course>
  <speed>0.02</speed>
  <fix>3d</fix>
</trkpt>
<trkpt lat="40.0713749" lon="-105.229789">
  <ele>1583.0</ele>
  <time>2026-08-28T17:49:13Z</time>
  <course>0.0</course>
  <speed>0.0</speed>
  <fix>3d</fix>
</trkpt>
<trkpt lat="40.071375" lon="-105.229789">
  <ele>1583.01</ele>
  <time>2026-08-28T17:49:13Z</time>
  <course>247.43</course>
  <speed>0.02</speed>
  <fix>3d</fix>
</trkpt>
<trkpt lat="40.0713749" lon="-105.229789">
  <ele>1583.0</ele>
  <time>2026-08-28T17:49:13Z</time>
  <course>0.0</course>
  <speed>0.0</speed>
  <fix>3d</fix>
</trkpt>
<trkpt lat="40.071375" lon="-105.229789">
  <ele>1583.01</ele>
  <time>2026-08-28T17:49:13Z</time>
  <course>247.43</course>
  <speed>0.02</speed>
  <fix>3d</fix>
</trkpt>
<trkpt lat="40.0713749" lon="-105.229789">
  <ele>1583.0</ele>
  <time>2026-08-28T17:49:13Z</time>
  <course>0.0</course>
  <speed>0.0</speed>
  <fix>3d</fix>
</trkpt>
<trkpt lat="40.071375" lon="-105.229789">
  <ele>1583.01</ele>
  <time>2026-08-28T17:49:13Z</time>
  <course>247.43</course>
  <speed>0.02</speed>
  <fix>3d</fix>
</trkpt>
<trkpt lat="40.0713749" lon="-105.229789">
  <ele>1583.0</ele>
  <time>2026-08-28T17:49:13Z</time>
  <course>0.0</course>
  <speed>0.0</speed>
  <fix>3d</fix>
</trkpt>
<trkpt lat="40.071375" lon="-105.229789">
  <ele>1583.01</ele>
  <time>2026-08-28T17:49:13Z</time>
  <course>247.43</course>
  <speed>0.02</speed>
  <fix>3d</fix>
</trkpt>
<trkpt lat="40.0713749" lon="-105.229789">
  <ele>1583.0</ele>
  <time>2026-08-28T17:49:13Z</time>
  <course>0.0</course>
  <speed>0.0</speed>
  <fix>3d</fix>
</trkpt>
<trkpt lat="40.071375" lon="-105.229789">
  <ele>1583.01</ele>
  <time>2026-08-28T17:49:13Z</time>
  <course>247.42</course>
  <speed>0.02</speed>
  <fix>3d</fix>
</trkpt>
<trkpt lat="40.0713749" lon="-105.229789">
  <ele>1583.0</ele>
  <time>2026-08-28T17:49:13Z</time>
  <course>0.0</course>
  <speed>0.0</speed>
  <fix>3d</fix>
</trkpt>
<trkpt lat="40.071375" lon="-105.229789">
  <ele>1583.01</ele>
  <time>2026-08-28T17:49:13Z</time>
  <course>247.42</course>
  <speed>0.02</speed>
  <fix>3d</fix>
</trkpt>
<trkpt lat="40.0713749" lon="-105.229789">
  <ele>1583.0</ele>
  <time>2026-08-28T17:49:13Z</time>
  <course>0.0</course>
  <speed>0.0</speed>
  <fix>3d</fix>
</trkpt>
<trkpt lat="40.071375" lon="-105.229789">
  <ele>1583.02</ele>
  <time>2026-08-28T17:49:13Z</time>
  <course>247.42</course>
  <speed>0.02</speed>
  <fix>3d</fix>
</trkpt>
<trkpt lat="40.0713749" lon="-105.229789">
  <ele>1583.0</ele>
  <time>2026-08-28T17:49:13Z</time>
  <course>0.0</course>
  <speed>0.0</speed>
  <fix>3d</fix>
</trkpt>
<trkpt lat="40.071375" lon="-105.229789">
  <ele>1583.01</ele>
  <time>2026-08-28T17:49:13Z</time>
  <course>247.42</course>
  <speed>0.02</speed>
  <fix>3d</fix>
</trkpt>
<trkpt lat="40.0713749" lon="-105.229789">
  <ele>1583.0</ele>
  <time>2026-08-28T17:49:13Z</time>
  <course>0.0</course>
  <speed>0.0</speed>
  <fix>3d</fix>
</trkpt>
<trkpt lat="40.071375" lon="-105.229789">
  <ele>1583.01</ele>
  <time>2026-08-28T17:49:13Z</time>
  <course>247.42</course>
  <speed>0.02</speed>
  <fix>3d</fix>
</trkpt>
<trkpt lat="40.0713749" lon="-105.229789">
  <ele>1583.0</ele>
  <time>2026-08-28T17:49:13Z</time>
  <course>0.0</course>
  <speed>0.0</speed>
  <fix>3d</fix>
</trkpt>
<trkpt lat="40.071375" lon="-105.229789">
  <ele>1583.01</ele>
  <time>2026-08-28T17:49:13Z</time>
  <course>247.41</course>
  <speed>0.02</speed>
  <fix>3d</fix>
</trkpt>
<trkpt lat="40.0713749" lon="-105.229789">
  <ele>1583.0</ele>
  <time>2026-08-28T17:49:13Z</time>
  <course>0.0</course>
  <speed>0.0</speed>
  <fix>3d</fix>
</trkpt>
<trkpt lat="40.071375" lon="-105.229789">
  <ele>1583.01</ele>
  <time>2026-08-28T17:49:13Z</time>
  <course>247.41</course>
  <speed>0.02</speed>
  <fix>3d</fix>
</trkpt>
<trkpt lat="40.0713749" lon="-105.229789">
  <ele>1583.0</ele>
  <time>2026-08-28T17:49:13Z</time>
  <course>0.0</course>
  <speed>0.0</speed>
  <fix>3d</fix>
</trkpt>
<trkpt lat="40.071375" lon="-105.229789">
  <ele>1583.01</ele>
  <time>2026-08-28T17:49:13Z</time>
  <course>247.41</course>
  <speed>0.02</speed>
  <fix>3d</fix>
</trkpt>
<trkpt lat="40.0713749" lon="-105.229789">
  <ele>1583.0</ele>
  <time>2026-08-28T17:49:13Z</time>
  <course>0.0</course>
  <speed>0.0</speed>
  <fix>3d</fix>
</trkpt>
<trkpt lat="40.071375" lon="-105.229789">
  <ele>1583.01</ele>
  <time>2026-08-28T17:49:13Z</time>
  <course>247.41</course>
  <speed>0.02</speed>
  <fix>3d</fix>
</trkpt>
<trkpt lat="40.0713749" lon="-105.229789">
  <ele>1583.0</ele>
  <time>2026-08-28T17:49:13Z</time>
  <course>0.0</course>
  <speed>0.0</speed>
  <fix>3d</fix>
</trkpt>
<trkpt lat="40.071375" lon="-105.229789">
  <ele>1583.02</ele>
  <time>2026-08-28T17:49:13Z</time>
  <course>247.41</course>
  <speed>0.02</speed>
  <fix>3d</fix>
</trkpt>
<trkpt lat="40.0713749" lon="-105.229789">
  <ele>1583.0</ele>
  <time>2026-08-28T17:49:13Z</time>
  <course>0.0</course>
  <speed>0.0</speed>
  <fix>3d</fix>
</trkpt>
<trkpt lat="40.071375" lon="-105.229789">
  <ele>1583.02</ele>
  <time>2026-08-28T17:49:13Z</time>
  <course>247.4</course>
  <speed>0.02</speed>
  <fix>3d</fix>
</trkpt>
<trkpt lat="40.0713749" lon="-105.229789">
  <ele>1583.0</ele>
  <time>2026-08-28T17:49:13Z</time>
  <course>0.0</course>
  <speed>0.0</speed>
  <fix>3d</fix>
</trkpt>
<trkpt lat="40.071375" lon="-105.229789">
  <ele>1583.02</ele>
  <time>2026-08-28T17:49:13Z</time>
  <course>247.4</course>
  <speed>0.02</speed>
  <fix>3d</fix>
</trkpt>
<trkpt lat="40.0713749" lon="-105.229789">
  <ele>1583.0</ele>
  <time>2026-08-28T17:49:13Z</time>
  <course>0.0</course>
  <speed>0.0</speed>
  <fix>3d</fix>
</trkpt>
<trkpt lat="40.071375" lon="-105.229789">
  <ele>1583.02</ele>
  <time>2026-08-28T17:49:13Z</time>
  <course>247.4</course>
  <speed>0.02</speed>
  <fix>3d</fix>
</trkpt>
<trkpt lat="40.0713749" lon="-105.229789">
  <ele>1583.0</ele>
  <time>2026-08-28T17:49:13Z</time>
  <course>0.0</course>
  <speed>0.0</speed>
  <fix>3d</fix>
</trkpt>
<trkpt lat="40.071375" lon="-105.229789">
  <ele>1583.02</ele>
  <time>2026-08-28T17:49:13Z</time>
  <course>247.4</course>
  <speed>0.02</speed>
  <fix>3d</fix>
</trkpt>
<trkpt lat="40.0713749" lon="-105.229789">
  <ele>1583.0</ele>
  <time>2026-08-28T17:49:13Z</time>
  <course>0.0</course>
  <speed>0.0</speed>
  <fix>3d</fix>
</trkpt>
<trkpt lat="40.071375" lon="-105.229789">
  <ele>1583.02</ele>
  <time>2026-08-28T17:49:13Z</time>
  <course>247.4</course>
  <speed>0.02</speed>
  <fix>3d</fix>
</trkpt>
<trkpt lat="40.0713749" lon="-105.229789">
  <ele>1583.0</ele>
  <time>2026-08-28T17:49:13Z</time>
  <course>0.0</course>
  <speed>0.0</speed>
  <fix>3d</fix>
</trkpt>
<trkpt lat="40.071375" lon="-105.229789">
  <ele>1583.02</ele>
  <time>2026-08-28T17:49:13Z</time>
  <course>247.39</course>
  <speed>0.02</speed>
  <fix>3d</fix>
</trkpt>
<trkpt lat="40.0713749" lon="-105.229789">
  <ele>1583.0</ele>
  <time>2026-08-28T17:49:13Z</time>
  <course>0.0</course>
  <speed>0.0</speed>
  <fix>3d</fix>
</trkpt>
<trkpt lat="40.071375" lon="-105.229789">
  <ele>1583.03</ele>
  <time>2026-08-28T17:49:13Z</time>
  <course>247.39</course>
  <speed>0.01</speed>
  <fix>3d</fix>
</trkpt>
<trkpt lat="40.0713749" lon="-105.229789">
  <ele>1583.0</ele>
  <time>2026-08-28T17:49:13Z</time>
  <course>0.0</course>
  <speed>0.0</speed>
  <fix>3d</fix>
</trkpt>
<trkpt lat="40.071375" lon="-105.229789">
  <ele>1583.03</ele>
  <time>2026-08-28T17:49:13Z</time>
  <course>247.39</course>
  <speed>0.02</speed>
  <fix>3d</fix>
</trkpt>
<trkpt lat="40.0713749" lon="-105.229789">
  <ele>1583.0</ele>
  <time>2026-08-28T17:49:13Z</time>
  <course>0.0</course>
  <speed>0.0</speed>
  <fix>3d</fix>
</trkpt>
<trkpt lat="40.071375" lon="-105.229789">
  <ele>1583.03</ele>
  <time>2026-08-28T17:49:13Z</time>
  <course>247.39</course>
  <speed>0.02</speed>
  <fix>3d</fix>
</trkpt>
<trkpt lat="40.0713749" lon="-105.229789">
  <ele>1583.0</ele>
  <time>2026-08-28T17:49:13Z</time>
  <course>0.0</course>
  <speed>0.0</speed>
  <fix>3d</fix>
</trkpt>
<trkpt lat="40.071375" lon="-105.229789">
  <ele>1583.03</ele>
  <time>2026-08-28T17:49:13Z</time>
  <course>247.39</course>
  <speed>0.02</speed>
  <fix>3d</fix>
</trkpt>
<trkpt lat="40.0713749" lon="-105.229789">
  <ele>1583.0</ele>
  <time>2026-08-28T17:49:13Z</time>
  <course>0.0</course>
  <speed>0.0</speed>
  <fix>3d</fix>
</trkpt>
<trkpt lat="40.071375" lon="-105.229789">
  <ele>1583.04</ele>
  <time>2026-08-28T17:49:13Z</time>
  <course>247.38</course>
  <speed>0.02</speed>
  <fix>3d</fix>
</trkpt>
<trkpt lat="40.0713749" lon="-105.229789">
  <ele>1583.0</ele>
  <time>2026-08-28T17:49:13Z</time>
  <course>0.0</course>
  <speed>0.0</speed>
  <fix>3d</fix>
</trkpt>
<trkpt lat="40.071375" lon="-105.229789">
  <ele>1583.04</ele>
  <time>2026-08-28T17:49:13Z</time>
  <course>247.38</course>
  <speed>0.02</speed>
  <fix>3d</fix>
</trkpt>
<trkpt lat="40.0713749" lon="-105.229789">
  <ele>1583.0</ele>
  <time>2026-08-28T17:49:13Z</time>
  <course>0.0</course>
  <speed>0.0</speed>
  <fix>3d</fix>
</trkpt>
<trkpt lat="40.071375" lon="-105.229789">
  <ele>1583.05</ele>
  <time>2026-08-28T17:49:13Z</time>
  <course>247.38</course>
  <speed>0.02</speed>
  <fix>3d</fix>
</trkpt>
<trkpt lat="40.0713749" lon="-105.229789">
  <ele>1583.0</ele>
  <time>2026-08-28T17:49:13Z</time>
  <course>0.0</course>
  <speed>0.0</speed>
  <fix>3d</fix>
</trkpt>
<trkpt lat="40.071375" lon="-105.229789">
  <ele>1583.05</ele>
  <time>2026-08-28T17:49:13Z</time>
  <course>247.38</course>
  <speed>0.02</speed>
  <fix>3d</fix>
</trkpt>
<trkpt lat="40.0713749" lon="-105.229789">
  <ele>1583.0</ele>
  <time>2026-08-28T17:49:13Z</time>
  <course>0.0</course>
  <speed>0.0</speed>
  <fix>3d</fix>
</trkpt>
<trkpt lat="40.071375" lon="-105.229789">
  <ele>1583.05</ele>
  <time>2026-08-28T17:49:13Z</time>
  <course>247.38</course>
  <speed>0.02</speed>
  <fix>3d</fix>
</trkpt>
<trkpt lat="40.0713749" lon="-105.229789">
  <ele>1583.0</ele>
  <time>2026-08-28T17:49:13Z</time>
  <course>0.0</course>
  <speed>0.0</speed>
  <fix>3d</fix>
</trkpt>
<trkpt lat="40.071375" lon="-105.229789">
  <ele>1583.05</ele>
  <time>2026-08-28T17:49:13Z</time>
  <course>247.38</course>
  <speed>0.02</speed>
  <fix>3d</fix>
</trkpt>
<trkpt lat="40.0713749" lon="-105.229789">
  <ele>1583.0</ele>
  <time>2026-08-28T17:49:13Z</time>
  <course>0.0</course>
  <speed>0.0</speed>
  <fix>3d</fix>
</trkpt>
<trkpt lat="40.071375" lon="-105.229789">
  <ele>1583.05</ele>
  <time>2026-08-28T17:49:13Z</time>
  <course>247.37</course>
  <speed>0.02</speed>
  <fix>3d</fix>
</trkpt>
<trkpt lat="40.0713749" lon="-105.229789">
  <ele>1583.0</ele>
  <time>2026-08-28T17:49:13Z</time>
  <course>0.0</course>
  <speed>0.0</speed>
  <fix>3d</fix>
</trkpt>
<trkpt lat="40.071375" lon="-105.229789">
  <ele>1583.06</ele>
  <time>2026-08-28T17:49:13Z</time>
  <course>247.37</course>
  <speed>0.02</speed>
  <fix>3d</fix>
</trkpt>
<trkpt lat="40.0713749" lon="-105.229789">
  <ele>1583.0</ele>
  <time>2026-08-28T17:49:13Z</time>
  <course>0.0</course>
  <speed>0.0</speed>
  <fix>3d</fix>
</trkpt>
<trkpt lat="40.071375" lon="-105.229789">
  <ele>1583.06</ele>
  <time>2026-08-28T17:49:13Z</time>
  <course>247.37</course>
  <speed>0.02</speed>
  <fix>3d</fix>
</trkpt>
<trkpt lat="40.0713749" lon="-105.229789">
  <ele>1583.0</ele>
  <time>2026-08-28T17:49:13Z</time>
  <course>0.0</course>
  <speed>0.0</speed>
  <fix>3d</fix>
</trkpt>
<trkpt lat="40.071375" lon="-105.229789">
  <ele>1583.06</ele>
  <time>2026-08-28T17:49:13Z</time>
  <course>247.37</course>
  <speed>0.02</speed>
  <fix>3d</fix>
</trkpt>
<trkpt lat="40.0713749" lon="-105.229789">
  <ele>1583.0</ele>
  <time>2026-08-28T17:49:13Z</time>
  <course>0.0</course>
  <speed>0.0</speed>
  <fix>3d</fix>
</trkpt>
<trkpt lat="40.071375" lon="-105.229789">
  <ele>1583.06</ele>
  <time>2026-08-28T17:49:13Z</time>
  <course>247.37</course>
  <speed>0.02</speed>
  <fix>3d</fix>
</trkpt>
<trkpt lat="40.0713749" lon="-105.229789">
  <ele>1583.0</ele>
  <time>2026-08-28T17:49:13Z</time>
  <course>0.0</course>
  <speed>0.0</speed>
  <fix>3d</fix>
</trkpt>
<trkpt lat="40.071375" lon="-105.229789">
  <ele>1583.06</ele>
  <time>2026-08-28T17:49:13Z</time>
  <course>247.37</course>
  <speed>0.02</speed>
  <fix>3d</fix>
</trkpt>
<trkpt lat="40.0713749" lon="-105.229789">
  <ele>1583.0</ele>
  <time>2026-08-28T17:49:13Z</time>
  <course>0.0</course>
  <speed>0.0</speed>
  <fix>3d</fix>
</trkpt>
<trkpt lat="40.071375" lon="-105.229789">
  <ele>1583.06</ele>
  <time>2026-08-28T17:49:13Z</time>
  <course>247.36</course>
  <speed>0.02</speed>
  <fix>3d</fix>
</trkpt>
<trkpt lat="40.0713749" lon="-105.229789">
  <ele>1583.0</ele>
  <time>2026-08-28T17:49:13Z</time>
  <course>0.0</course>
  <speed>0.0</speed>
  <fix>3d</fix>
</trkpt>
<trkpt lat="40.071375" lon="-105.229789">
  <ele>1583.06</ele>
  <time>2026-08-28T17:49:13Z</time>
  <course>247.36</course>
  <speed>0.02</speed>
  <fix>3d</fix>
</trkpt>
<trkpt lat="40.0713749" lon="-105.229789">
  <ele>1583.0</ele>
  <time>2026-08-28T17:49:13Z</time>
  <course>0.0</course>
  <speed>0.0</speed>
  <fix>3d</fix>
</trkpt>
<trkpt lat="40.071375" lon="-105.229789">
  <ele>1583.06</ele>
  <time>2026-08-28T17:49:13Z</time>
  <course>247.36</course>
  <speed>0.02</speed>
  <fix>3d</fix>
</trkpt>
<trkpt lat="40.0713749" lon="-105.229789">
  <ele>1583.0</ele>
  <time>2026-08-28T17:49:13Z</time>
  <course>0.0</course>
  <speed>0.0</speed>
  <fix>3d</fix>
</trkpt>
<trkpt lat="40.071375" lon="-105.229789">
  <ele>1583.06</ele>
  <time>2026-08-28T17:49:13Z</time>
  <course>247.36</course>
  <speed>0.02</speed>
  <fix>3d</fix>
</trkpt>
<trkpt lat="40.0713749" lon="-105.229789">
  <ele>1583.0</ele>
  <time>2026-08-28T17:49:13Z</time>
  <course>0.0</course>
  <speed>0.0</speed>
  <fix>3d</fix>
</trkpt>
<trkpt lat="40.071375" lon="-105.229789">
  <ele>1583.06</ele>
  <time>2026-08-28T17:49:13Z</time>
  <course>247.36</course>
  <speed>0.02</speed>
  <fix>3d</fix>
</trkpt>
<trkpt lat="40.0713749" lon="-105.229789">
  <ele>1583.0</ele>
  <time>2026-08-28T17:49:13Z</time>
  <course>0.0</course>
  <speed>0.0</speed>
  <fix>3d</fix>
</trkpt>
<trkpt lat="40.071375" lon="-105.229789">
  <ele>1583.05</ele>
  <time>2026-08-28T17:49:13Z</time>
  <course>247.35</course>
  <speed>0.02</speed>
  <fix>3d</fix>
</trkpt>
<trkpt lat="40.0713749" lon="-105.229789">
  <ele>1583.0</ele>
  <time>2026-08-28T17:49:13Z</time>
  <course>0.0</course>
  <speed>0.0</speed>
  <fix>3d</fix>
</trkpt>
<trkpt lat="40.071375" lon="-105.229789">
  <ele>1583.05</ele>
  <time>2026-08-28T17:49:13Z</time>
  <course>247.35</course>
  <speed>0.02</speed>
  <fix>3d</fix>
</trkpt>
<trkpt lat="40.0713749" lon="-105.229789">
  <ele>1583.0</ele>
  <time>2026-08-28T17:49:13Z</time>
  <course>0.0</course>
  <speed>0.0</speed>
  <fix>3d</fix>
</trkpt>
<trkpt lat="40.071375" lon="-105.229789">
  <ele>1583.04</ele>
  <time>2026-08-28T17:49:13Z</time>
  <course>247.35</course>
  <speed>0.02</speed>
  <fix>3d</fix>
</trkpt>
<trkpt lat="40.0713749" lon="-105.229789">
  <ele>1583.0</ele>
  <time>2026-08-28T17:49:13Z</time>
  <course>0.0</course>
  <speed>0.0</speed>
  <fix>3d</fix>
</trkpt>
<trkpt lat="40.071375" lon="-105.229789">
  <ele>1583.04</ele>
  <time>2026-08-28T17:49:13Z</time>
  <course>247.35</course>
  <speed>0.02</speed>
  <fix>3d</fix>
</trkpt>
<trkpt lat="40.0713749" lon="-105.229789">
  <ele>1583.0</ele>
  <time>2026-08-28T17:49:13Z</time>
  <course>0.0</course>
  <speed>0.0</speed>
  <fix>3d</fix>
</trkpt>
<trkpt lat="40.071375" lon="-105.229789">
  <ele>1583.04</ele>
  <time>2026-08-28T17:49:13Z</time>
  <course>247.35</course>
  <speed>0.02</speed>
  <fix>3d</fix>
</trkpt>
<trkpt lat="40.0713749" lon="-105.229789">
  <ele>1583.0</ele>
  <time>2026-08-28T17:49:13Z</time>
  <course>0.0</course>
  <speed>0.0</speed>
  <fix>3d</fix>
</trkpt>
<trkpt lat="40.071375" lon="-105.229789">
  <ele>1583.03</ele>
  <time>2026-08-28T17:49:13Z</time>
  <course>247.35</course>
  <speed>0.02</speed>
  <fix>3d</fix>
</trkpt>
<trkpt lat="40.0713749" lon="-105.229789">
  <ele>1583.0</ele>
  <time>2026-08-28T17:49:13Z</time>
  <course>0.0</course>
  <speed>0.0</speed>
  <fix>3d</fix>
</trkpt>
<trkpt lat="40.071375" lon="-105.229789">
  <ele>1583.03</ele>
  <time>2026-08-28T17:49:13Z</time>
  <course>247.34</course>
  <speed>0.02</speed>
  <fix>3d</fix>
</trkpt>
<trkpt lat="40.0713749" lon="-105.229789">
  <ele>1583.0</ele>
  <time>2026-08-28T17:49:13Z</time>
  <course>0.0</course>
  <speed>0.0</speed>
  <fix>3d</fix>
</trkpt>
<trkpt lat="40.071375" lon="-105.229789">
  <ele>1583.02</ele>
  <time>2026-08-28T17:49:13Z</time>
  <course>247.34</course>
  <speed>0.02</speed>
  <fix>3d</fix>
</trkpt>
<trkpt lat="40.0713749" lon="-105.229789">
  <ele>1583.0</ele>
  <time>2026-08-28T17:49:13Z</time>
  <course>0.0</course>
  <speed>0.0</speed>
  <fix>3d</fix>
</trkpt>
<trkpt lat="40.071375" lon="-105.229789">
  <ele>1583.02</ele>
  <time>2026-08-28T17:49:13Z</time>
  <course>247.34</course>
  <speed>0.02</speed>
  <fix>3d</fix>
</trkpt>
<trkpt lat="40.0713749" lon="-105.229789">
  <ele>1583.0</ele>
  <time>2026-08-28T17:49:13Z</time>
  <course>0.0</course>
  <speed>0.0</speed>
  <fix>3d</fix>
</trkpt>
<trkpt lat="40.071375" lon="-105.229789">
  <ele>1583.02</ele>
  <time>2026-08-28T17:49:13Z</time>
  <course>247.34</course>
  <speed>0.02</speed>
  <fix>3d</fix>
</trkpt>
<trkpt lat="40.0713749" lon="-105.229789">
  <ele>1583.0</ele>
  <time>2026-08-28T17:49:13Z</time>
  <course>0.0</course>
  <speed>0.0</speed>
  <fix>3d</fix>
</trkpt>
<trkpt lat="40.071375" lon="-105.229789">
  <ele>1583.02</ele>
  <time>2026-08-28T17:49:13Z</time>
  <course>247.34</course>
  <speed>0.02</speed>
  <fix>3d</fix>
</trkpt>
<trkpt lat="40.0713749" lon="-105.229789">
  <ele>1583.0</ele>
  <time>2026-08-28T17:49:13Z</time>
  <course>0.0</course>
  <speed>0.0</speed>
  <fix>3d</fix>
</trkpt>
<trkpt lat="40.071375" lon="-105.229789">
  <ele>1583.01</ele>
  <time>2026-08-28T17:49:13Z</time>
  <course>247.34</course>
  <speed>0.02</speed>
  <fix>3d</fix>
</trkpt>
<trkpt lat="40.0713749" lon="-105.229789">
  <ele>1583.0</ele>
  <time>2026-08-28T17:49:13Z</time>
  <course>0.0</course>
  <speed>0.0</speed>
  <fix>3d</fix>
</trkpt>
<trkpt lat="40.071375" lon="-105.229789">
  <ele>1583.01</ele>
  <time>2026-08-28T17:49:13Z</time>
  <course>247.33</course>
  <speed>0.02</speed>
  <fix>3d</fix>
</trkpt>
<trkpt lat="40.0713749" lon="-105.229789">
  <ele>1583.0</ele>
  <time>2026-08-28T17:49:13Z</time>
  <course>0.0</course>
  <speed>0.0</speed>
  <fix>3d</fix>
</trkpt>
<trkpt lat="40.071375" lon="-105.229789">
  <ele>1583.01</ele>
  <time>2026-08-28T17:49:13Z</time>
  <course>247.33</course>
  <speed>0.02</speed>
  <fix>3d</fix>
</trkpt>
<trkpt lat="40.0713749" lon="-105.229789">
  <ele>1583.0</ele>
  <time>2026-08-28T17:49:13Z</time>
  <course>0.0</course>
  <speed>0.0</speed>
  <fix>3d</fix>
</trkpt>
<trkpt lat="40.071375" lon="-105.229789">
  <ele>1583.01</ele>
  <time>2026-08-28T17:49:13Z</time>
  <course>247.33</course>
  <speed>0.02</speed>
  <fix>3d</fix>
</trkpt>
<trkpt lat="40.0713749" lon="-105.229789">
  <ele>1583.0</ele>
  <time>2026-08-28T17:49:13Z</time>
  <course>0.0</course>
  <speed>0.0</speed>
  <fix>3d</fix>
</trkpt>
<trkpt lat="40.071375" lon="-105.229789">
  <ele>1583.01</ele>
  <time>2026-08-28T17:49:13Z</time>
  <course>247.33</course>
  <speed>0.02</speed>
  <fix>3d</fix>
</trkpt>
<trkpt lat="40.0713749" lon="-105.229789">
  <ele>1583.0</ele>
  <time>2026-08-28T17:49:13Z</time>
  <course>0.0</course>
  <speed>0.0</speed>
  <fix>3d</fix>
</trkpt>
<trkpt lat="40.071375" lon="-105.229789">
  <ele>1583.01</ele>
  <time>2026-08-28T17:49:13Z</time>
  <course>247.33</course>
  <speed>0.02</speed>
  <fix>3d</fix>
</trkpt>
<trkpt lat="40.0713749" lon="-105.229789">
  <ele>1583.0</ele>
  <time>2026-08-28T17:49:13Z</time>
  <course>0.0</course>
  <speed>0.0</speed>
  <fix>3d</fix>
</trkpt>
<trkpt lat="40.071375" lon="-105.229789">
  <ele>1583.01</ele>
  <time>2026-08-28T17:49:13Z</time>
  <course>247.33</course>
  <speed>0.02</speed>
  <fix>3d</fix>
</trkpt>
<trkpt lat="40.0713749" lon="-105.229789">
  <ele>1583.0</ele>
  <time>2026-08-28T17:49:13Z</time>
  <course>0.0</course>
  <speed>0.0</speed>
  <fix>3d</fix>
</trkpt>
<trkpt lat="40.071375" lon="-105.229789">
  <ele>1583.01</ele>
  <time>2026-08-28T17:49:13Z</time>
  <course>247.33</course>
  <speed>0.02</speed>
  <fix>3d</fix>
</trkpt>
<trkpt lat="40.0713749" lon="-105.229789">
  <ele>1583.0</ele>
  <time>2026-08-28T17:49:13Z</time>
  <course>0.0</course>
  <speed>0.0</speed>
  <fix>3d</fix>
</trkpt>
<trkpt lat="40.071375" lon="-105.229789">
  <ele>1583.01</ele>
  <time>2026-08-28T17:49:13Z</time>
  <course>247.32</course>
  <speed>0.02</speed>
  <fix>3d</fix>
</trkpt>
<trkpt lat="40.0713749" lon="-105.229789">
  <ele>1583.0</ele>
  <time>2026-08-28T17:49:13Z</time>
  <course>0.0</course>
  <speed>0.0</speed>
  <fix>3d</fix>
</trkpt>
<trkpt lat="40.071375" lon="-105.229789">
  <ele>1583.0</ele>
  <time>2026-08-28T17:49:13Z</time>
  <course>247.32</course>
  <speed>0.02</speed>
  <fix>3d</fix>
</trkpt>
<trkpt lat="40.0713749" lon="-105.229789">
  <ele>1583.0</ele>
  <time>2026-08-28T17:49:13Z</time>
  <course>0.0</course>
  <speed>0.0</speed>
  <fix>3d</fix>
</trkpt>
<trkpt lat="40.071375" lon="-105.229789">
  <ele>1583.0</ele>
  <time>2026-08-28T17:49:13Z</time>
  <course>247.32</course>
  <speed>0.02</speed>
  <fix>3d</fix>
</trkpt>
<trkpt lat="40.0713749" lon="-105.229789">
  <ele>1583.0</ele>
  <time>2026-08-28T17:49:13Z</time>
  <course>0.0</course>
  <speed>0.0</speed>
  <fix>3d</fix>
</trkpt>
<trkpt lat="40.071375" lon="-105.229789">
  <ele>1583.0</ele>
  <time>2026-08-28T17:49:13Z</time>
  <course>247.32</course>
  <speed>0.02</speed>
  <fix>3d</fix>
</trkpt>
<trkpt lat="40.0713749" lon="-105.229789">
  <ele>1583.0</ele>
  <time>2026-08-28T17:49:13Z</time>
  <course>0.0</course>
  <speed>0.0</speed>
  <fix>3d</fix>
</trkpt>
<trkpt lat="40.071375" lon="-105.229789">
  <ele>1582.99</ele>
  <time>2026-08-28T17:49:13Z</time>
  <course>247.32</course>
  <speed>0.02</speed>
  <fix>3d</fix>
</trkpt>
<trkpt lat="40.0713749" lon="-105.229789">
  <ele>1583.0</ele>
  <time>2026-08-28T17:49:13Z</time>
  <course>0.0</course>
  <speed>0.0</speed>
  <fix>3d</fix>
</trkpt>
<trkpt lat="40.071375" lon="-105.229789">
  <ele>1582.99</ele>
  <time>2026-08-28T17:49:13Z</time>
  <course>247.32</course>
  <speed>0.02</speed>
  <fix>3d</fix>
</trkpt>
<trkpt lat="40.0713749" lon="-105.229789">
  <ele>1583.0</ele>
  <time>2026-08-28T17:49:13Z</time>
  <course>0.0</course>
  <speed>0.0</speed>
  <fix>3d</fix>
</trkpt>
<trkpt lat="40.071375" lon="-105.229789">
  <ele>1582.98</ele>
  <time>2026-08-28T17:49:13Z</time>
  <course>247.31</course>
  <speed>0.02</speed>
  <fix>3d</fix>
</trkpt>
<trkpt lat="40.0713749" lon="-105.229789">
  <ele>1583.0</ele>
  <time>2026-08-28T17:49:13Z</time>
  <course>0.0</course>
  <speed>0.0</speed>
  <fix>3d</fix>
</trkpt>
<trkpt lat="40.071375" lon="-105.229789">
  <ele>1582.97</ele>
  <time>2026-08-28T17:49:13Z</time>
  <course>247.31</course>
  <speed>0.02</speed>
  <fix>3d</fix>
</trkpt>
<trkpt lat="40.0713749" lon="-105.229789">
  <ele>1583.0</ele>
  <time>2026-08-28T17:49:13Z</time>
  <course>0.0</course>
  <speed>0.0</speed>
  <fix>3d</fix>
</trkpt>
<trkpt lat="40.071375" lon="-105.229789">
  <ele>1582.97</ele>
  <time>2026-08-28T17:49:13Z</time>
  <course>247.31</course>
  <speed>0.02</speed>
  <fix>3d</fix>
</trkpt>
<trkpt lat="40.0713749" lon="-105.229789">
  <ele>1583.0</ele>
  <time>2026-08-28T17:49:13Z</time>
  <course>0.0</course>
  <speed>0.0</speed>
  <fix>3d</fix>
</trkpt>
<trkpt lat="40.071375" lon="-105.229789">
  <ele>1582.96</ele>
  <time>2026-08-28T17:49:13Z</time>
  <course>247.31</course>
  <speed>0.02</speed>
  <fix>3d</fix>
</trkpt>
<trkpt lat="40.0713749" lon="-105.229789">
  <ele>1583.0</ele>
  <time>2026-08-28T17:49:13Z</time>
  <course>0.0</course>
  <speed>0.0</speed>
  <fix>3d</fix>
</trkpt>
<trkpt lat="40.071375" lon="-105.229789">
  <ele>1582.96</ele>
  <time>2026-08-28T17:49:13Z</time>
  <course>247.31</course>
  <speed>0.02</speed>
  <fix>3d</fix>
</trkpt>
<trkpt lat="40.0713749" lon="-105.229789">
  <ele>1583.0</ele>
  <time>2026-08-28T17:49:13Z</time>
  <course>0.0</course>
  <speed>0.0</speed>
  <fix>3d</fix>
</trkpt>
<trkpt lat="40.071375" lon="-105.229789">
  <ele>1582.95</ele>
  <time>2026-08-28T17:49:13Z</time>
  <course>247.31</course>
  <speed>0.02</speed>
  <fix>3d</fix>
</trkpt>
<trkpt lat="40.0713749" lon="-105.229789">
  <ele>1583.0</ele>
  <time>2026-08-28T17:49:13Z</time>
  <course>0.0</course>
  <speed>0.0</speed>
  <fix>3d</fix>
</trkpt>
<trkpt lat="40.071375" lon="-105.229789">
  <ele>1582.95</ele>
  <time>2026-08-28T17:49:13Z</time>
  <course>247.3</course>
  <speed>0.02</speed>
  <fix>3d</fix>
</trkpt>
<trkpt lat="40.0713749" lon="-105.229789">
  <ele>1583.0</ele>
  <time>2026-08-28T17:49:13Z</time>
  <course>0.0</course>
  <speed>0.0</speed>
  <fix>3d</fix>
</trkpt>
<trkpt lat="40.071375" lon="-105.229789">
  <ele>1582.94</ele>
  <time>2026-08-28T17:49:13Z</time>
  <course>247.3</course>
  <speed>0.02</speed>
  <fix>3d</fix>
</trkpt>
<trkpt lat="40.0713749" lon="-105.229789">
  <ele>1583.0</ele>
  <time>2026-08-28T17:49:13Z</time>
  <course>0.0</course>
  <speed>0.0</speed>
  <fix>3d</fix>
</trkpt>
<trkpt lat="40.071375" lon="-105.229789">
  <ele>1582.93</ele>
  <time>2026-08-28T17:49:13Z</time>
  <course>247.3</course>
  <speed>0.02</speed>
  <fix>3d</fix>
</trkpt>
<trkpt lat="40.0713749" lon="-105.229789">
  <ele>1583.0</ele>
  <time>2026-08-28T17:49:13Z</time>
  <course>0.0</course>
  <speed>0.0</speed>
  <fix>3d</fix>
</trkpt>
<trkpt lat="40.071375" lon="-105.229789">
  <ele>1582.93</ele>
  <time>2026-08-28T17:49:13Z</time>
  <course>247.3</course>
  <speed>0.02</speed>
  <fix>3d</fix>
</trkpt>
<trkpt lat="40.0713749" lon="-105.229789">
  <ele>1583.0</ele>
  <time>2026-08-28T17:49:13Z</time>
  <course>0.0</course>
  <speed>0.0</speed>
  <fix>3d</fix>
</trkpt>
<trkpt lat="40.071375" lon="-105.229789">
  <ele>1582.92</ele>
  <time>2026-08-28T17:49:13Z</time>
  <course>247.3</course>
  <speed>0.02</speed>
  <fix>3d</fix>
</trkpt>
<trkpt lat="40.0713749" lon="-105.229789">
  <ele>1583.0</ele>
  <time>2026-08-28T17:49:13Z</time>
  <course>0.0</course>
  <speed>0.0</speed>
  <fix>3d</fix>
</trkpt>
<trkpt lat="40.071375" lon="-105.229789">
  <ele>1582.92</ele>
  <time>2026-08-28T17:49:13Z</time>
  <course>247.3</course>
  <speed>0.02</speed>
  <fix>3d</fix>
</trkpt>
<trkpt lat="40.0713749" lon="-105.229789">
  <ele>1583.0</ele>
  <time>2026-08-28T17:49:13Z</time>
  <course>0.0</course>
  <speed>0.0</speed>
  <fix>3d</fix>
</trkpt>
<trkpt lat="40.071375" lon="-105.229789">
  <ele>1582.91</ele>
  <time>2026-08-28T17:49:13Z</time>
  <course>247.3</course>
  <speed>0.02</speed>
  <fix>3d</fix>
</trkpt>
<trkpt lat="40.0713749" lon="-105.229789">
  <ele>1583.0</ele>
  <time>2026-08-28T17:49:13Z</time>
  <course>0.0</course>
  <speed>0.0</speed>
  <fix>3d</fix>
</trkpt>
<trkpt lat="40.071375" lon="-105.229789">
  <ele>1582.91</ele>
  <time>2026-08-28T17:49:13Z</time>
  <course>247.3</course>
  <speed>0.02</speed>
  <fix>3d</fix>
</trkpt>
<trkpt lat="40.0713749" lon="-105.229789">
  <ele>1583.0</ele>
  <time>2026-08-28T17:49:13Z</time>
  <course>0.0</course>
  <speed>0.0</speed>
  <fix>3d</fix>
</trkpt>
<trkpt lat="40.071375" lon="-105.229789">
  <ele>1582.91</ele>
  <time>2026-08-28T17:49:13Z</time>
  <course>247.29</course>
  <speed>0.02</speed>
  <fix>3d</fix>
</trkpt>
<trkpt lat="40.0713749" lon="-105.229789">
  <ele>1583.0</ele>
  <time>2026-08-28T17:49:13Z</time>
  <course>0.0</course>
  <speed>0.0</speed>
  <fix>3d</fix>
</trkpt>
<trkpt lat="40.071375" lon="-105.229789">
  <ele>1582.91</ele>
  <time>2026-08-28T17:49:13Z</time>
  <course>247.29</course>
  <speed>0.02</speed>
  <fix>3d</fix>
</trkpt>
<trkpt lat="40.0713749" lon="-105.229789">
  <ele>1583.0</ele>
  <time>2026-08-28T17:49:13Z</time>
  <course>0.0</course>
  <speed>0.0</speed>
  <fix>3d</fix>
</trkpt>
<trkpt lat="40.071375" lon="-105.229789">
  <ele>1582.91</ele>
  <time>2026-08-28T17:49:13Z</time>
  <course>247.29</course>
  <speed>0.02</speed>
  <fix>3d</fix>
</trkpt>
<trkpt lat="40.0713749" lon="-105.229789">
  <ele>1583.0</ele>
  <time>2026-08-28T17:49:13Z</time>
  <course>0.0</course>
  <speed>0.0</speed>
  <fix>3d</fix>
</trkpt>
<trkpt lat="40.071375" lon="-105.229789">
  <ele>1582.91</ele>
  <time>2026-08-28T17:49:13Z</time>
  <course>247.29</course>
  <speed>0.02</speed>
  <fix>3d</fix>
</trkpt>
<trkpt lat="40.0713749" lon="-105.229789">
  <ele>1583.0</ele>
  <time>2026-08-28T17:49:13Z</time>
  <course>0.0</course>
  <speed>0.0</speed>
  <fix>3d</fix>
</trkpt>
<trkpt lat="40.071375" lon="-105.229789">
  <ele>1582.9</ele>
  <time>2026-08-28T17:49:13Z</time>
  <course>247.29</course>
  <speed>0.02</speed>
  <fix>3d</fix>
</trkpt>
<trkpt lat="40.0713749" lon="-105.229789">
  <ele>1583.0</ele>
  <time>2026-08-28T17:49:13Z</time>
  <course>0.0</course>
  <speed>0.0</speed>
  <fix>3d</fix>
</trkpt>
<trkpt lat="40.071375" lon="-105.229789">
  <ele>1582.9</ele>
  <time>2026-08-28T17:49:13Z</time>
  <course>247.29</course>
  <speed>0.02</speed>
  <fix>3d</fix>
</trkpt>
<trkpt lat="40.0713749" lon="-105.229789">
  <ele>1583.0</ele>
  <time>2026-08-28T17:49:13Z</time>
  <course>0.0</course>
  <speed>0.0</speed>
  <fix>3d</fix>
</trkpt>
<trkpt lat="40.071375" lon="-105.229789">
  <ele>1582.9</ele>
  <time>2026-08-28T17:49:13Z</time>
  <course>247.29</course>
  <speed>0.02</speed>
  <fix>3d</fix>
</trkpt>
<trkpt lat="40.0713749" lon="-105.229789">
  <ele>1583.0</ele>
  <time>2026-08-28T17:49:13Z</time>
  <course>0.0</course>
  <speed>0.0</speed>
  <fix>3d</fix>
</trkpt>
<trkpt lat="40.071375" lon="-105.229789">
  <ele>1582.9</ele>
  <time>2026-08-28T17:49:13Z</time>
  <course>247.28</course>
  <speed>0.02</speed>
  <fix>3d</fix>
</trkpt>
<trkpt lat="40.0713749" lon="-105.229789">
  <ele>1583.0</ele>
  <time>2026-08-28T17:49:13Z</time>
  <course>0.0</course>
  <speed>0.0</speed>
  <fix>3d</fix>
</trkpt>
<trkpt lat="40.071375" lon="-105.229789">
  <ele>1582.89</ele>
  <time>2026-08-28T17:49:13Z</time>
  <course>247.28</course>
  <speed>0.02</speed>
  <fix>3d</fix>
</trkpt>
<trkpt lat="40.0713749" lon="-105.229789">
  <ele>1583.0</ele>
  <time>2026-08-28T17:49:13Z</time>
  <course>0.0</course>
  <speed>0.0</speed>
  <fix>3d</fix>
</trkpt>
<trkpt lat="40.071375" lon="-105.2297889">
  <ele>1582.9</ele>
  <time>2026-08-28T17:49:13Z</time>
  <course>247.28</course>
  <speed>0.02</speed>
  <fix>3d</fix>
</trkpt>
<trkpt lat="40.0713749" lon="-105.229789">
  <ele>1583.0</ele>
  <time>2026-08-28T17:49:13Z</time>
  <course>0.0</course>
  <speed>0.0</speed>
  <fix>3d</fix>
</trkpt>
<trkpt lat="40.071375" lon="-105.229789">
  <ele>1582.9</ele>
  <time>2026-08-28T17:49:13Z</time>
  <course>247.28</course>
  <speed>0.02</speed>
  <fix>3d</fix>
</trkpt>
<trkpt lat="40.0713749" lon="-105.229789">
  <ele>1583.0</ele>
  <time>2026-08-28T17:49:13Z</time>
  <course>0.0</course>
  <speed>0.0</speed>
  <fix>3d</fix>
</trkpt>
<trkpt lat="40.071375" lon="-105.2297889">
  <ele>1582.9</ele>
  <time>2026-08-28T17:49:13Z</time>
  <course>247.28</course>
  <speed>0.02</speed>
  <fix>3d</fix>
</trkpt>
<trkpt lat="40.0713749" lon="-105.229789">
  <ele>1583.0</ele>
  <time>2026-08-28T17:49:13Z</time>
  <course>0.0</course>
  <speed>0.0</speed>
  <fix>3d</fix>
</trkpt>
<trkpt lat="40.071375" lon="-105.229789">
  <ele>1582.91</ele>
  <time>2026-08-28T17:49:13Z</time>
  <course>247.28</course>
  <speed>0.02</speed>
  <fix>3d</fix>
</trkpt>
<trkpt lat="40.0713749" lon="-105.229789">
  <ele>1583.0</ele>
  <time>2026-08-28T17:49:13Z</time>
  <course>0.0</course>
  <speed>0.0</speed>
  <fix>3d</fix>
</trkpt>
<trkpt lat="40.071375" lon="-105.2297889">
  <ele>1582.92</ele>
  <time>2026-08-28T17:49:13Z</time>
  <course>247.28</course>
  <speed>0.02</speed>
  <fix>3d</fix>
</trkpt>
<trkpt lat="40.0713749" lon="-105.229789">
  <ele>1583.0</ele>
  <time>2026-08-28T17:49:13Z</time>
  <course>0.0</course>
  <speed>0.0</speed>
  <fix>3d</fix>
</trkpt>
<trkpt lat="40.071375" lon="-105.2297889">
  <ele>1582.93</ele>
  <time>2026-08-28T17:49:13Z</time>
  <course>247.27</course>
  <speed>0.02</speed>
  <fix>3d</fix>
</trkpt>
<trkpt lat="40.0713749" lon="-105.229789">
  <ele>1583.0</ele>
  <time>2026-08-28T17:49:13Z</time>
  <course>0.0</course>
  <speed>0.0</speed>
  <fix>3d</fix>
</trkpt>
<trkpt lat="40.071375" lon="-105.2297889">
  <ele>1582.93</ele>
  <time>2026-08-28T17:49:13Z</time>
  <course>247.27</course>
  <speed>0.02</speed>
  <fix>3d</fix>
</trkpt>
<trkpt lat="40.0713749" lon="-105.229789">
  <ele>1583.0</ele>
  <time>2026-08-28T17:49:13Z</time>
  <course>0.0</course>
  <speed>0.0</speed>
  <fix>3d</fix>
</trkpt>
<trkpt lat="40.071375" lon="-105.2297889">
  <ele>1582.94</ele>
  <time>2026-08-28T17:49:13Z</time>
  <course>247.27</course>
  <speed>0.02</speed>
  <fix>3d</fix>
</trkpt>
<trkpt lat="40.0713749" lon="-105.229789">
  <ele>1583.0</ele>
  <time>2026-08-28T17:49:13Z</time>
  <course>0.0</course>
  <speed>0.0</speed>
  <fix>3d</fix>
</trkpt>
<trkpt lat="40.071375" lon="-105.2297889">
  <ele>1582.95</ele>
  <time>2026-08-28T17:49:13Z</time>
  <course>247.27</course>
  <speed>0.02</speed>
  <fix>3d</fix>
</trkpt>
<trkpt lat="40.0713749" lon="-105.229789">
  <ele>1583.0</ele>
  <time>2026-08-28T17:49:13Z</time>
  <course>0.0</course>
  <speed>0.0</speed>
  <fix>3d</fix>
</trkpt>
<trkpt lat="40.071375" lon="-105.2297889">
  <ele>1582.95</ele>
  <time>2026-08-28T17:49:13Z</time>
  <course>247.27</course>
  <speed>0.02</speed>
  <fix>3d</fix>
</trkpt>
<trkpt lat="40.0713749" lon="-105.229789">
  <ele>1583.0</ele>
  <time>2026-08-28T17:49:13Z</time>
  <course>0.0</course>
  <speed>0.0</speed>
  <fix>3d</fix>
</trkpt>
<trkpt lat="40.071375" lon="-105.2297889">
  <ele>1582.96</ele>
  <time>2026-08-28T17:49:13Z</time>
  <course>247.27</course>
  <speed>0.02</speed>
  <fix>3d</fix>
</trkpt>
<trkpt lat="40.0713749" lon="-105.229789">
  <ele>1583.0</ele>
  <time>2026-08-28T17:49:13Z</time>
  <course>0.0</course>
  <speed>0.0</speed>
  <fix>3d</fix>
</trkpt>
<trkpt lat="40.071375" lon="-105.229789">
  <ele>1582.97</ele>
  <time>2026-08-28T17:49:13Z</time>
  <course>247.27</course>
  <speed>0.02</speed>
  <fix>3d</fix>
</trkpt>
<trkpt lat="40.0713749" lon="-105.229789">
  <ele>1583.0</ele>
  <time>2026-08-28T17:49:13Z</time>
  <course>0.0</course>
  <speed>0.0</speed>
  <fix>3d</fix>
</trkpt>
<trkpt lat="40.071375" lon="-105.2297889">
  <ele>1582.97</ele>
  <time>2026-08-28T17:49:13Z</time>
  <course>247.27</course>
  <speed>0.02</speed>
  <fix>3d</fix>
</trkpt>
<trkpt lat="40.0713749" lon="-105.229789">
  <ele>1583.0</ele>
  <time>2026-08-28T17:49:13Z</time>
  <course>0.0</course>
  <speed>0.0</speed>
  <fix>3d</fix>
</trkpt>
<trkpt lat="40.071375" lon="-105.229789">
  <ele>1582.97</ele>
  <time>2026-08-28T17:49:13Z</time>
  <course>247.26</course>
  <speed>0.02</speed>
  <fix>3d</fix>
</trkpt>
<trkpt lat="40.0713749" lon="-105.229789">
  <ele>1583.0</ele>
  <time>2026-08-28T17:49:13Z</time>
  <course>0.0</course>
  <speed>0.0</speed>
  <fix>3d</fix>
</trkpt>
<trkpt lat="40.071375" lon="-105.2297889">
  <ele>1582.97</ele>
  <time>2026-08-28T17:49:13Z</time>
  <course>247.26</course>
  <speed>0.02</speed>
  <fix>3d</fix>
</trkpt>
<trkpt lat="40.0713749" lon="-105.229789">
  <ele>1583.0</ele>
  <time>2026-08-28T17:49:13Z</time>
  <course>0.0</course>
  <speed>0.0</speed>
  <fix>3d</fix>
</trkpt>
<trkpt lat="40.071375" lon="-105.229789">
  <ele>1582.98</ele>
  <time>2026-08-28T17:49:13Z</time>
  <course>247.26</course>
  <speed>0.02</speed>
  <fix>3d</fix>
</trkpt>
<trkpt lat="40.0713749" lon="-105.229789">
  <ele>1583.0</ele>
  <time>2026-08-28T17:49:13Z</time>
  <course>0.0</course>
  <speed>0.0</speed>
  <fix>3d</fix>
</trkpt>
<trkpt lat="40.071375" lon="-105.2297889">
  <ele>1582.98</ele>
  <time>2026-08-28T17:49:13Z</time>
  <course>247.26</course>
  <speed>0.02</speed>
  <fix>3d</fix>
</trkpt>
<trkpt lat="40.0713749" lon="-105.229789">
  <ele>1583.0</ele>
  <time>2026-08-28T17:49:13Z</time>
  <course>0.0</course>
  <speed>0.0</speed>
  <fix>3d</fix>
</trkpt>
<trkpt lat="40.071375" lon="-105.229789">
  <ele>1582.99</ele>
  <time>2026-08-28T17:49:13Z</time>
  <course>247.26</course>
  <speed>0.02</speed>
  <fix>3d</fix>
</trkpt>
<trkpt lat="40.0713749" lon="-105.229789">
  <ele>1583.0</ele>
  <time>2026-08-28T17:49:13Z</time>
  <course>0.0</course>
  <speed>0.0</speed>
  <fix>3d</fix>
</trkpt>
<trkpt lat="40.071375" lon="-105.2297889">
  <ele>1582.99</ele>
  <time>2026-08-28T17:49:13Z</time>
  <course>247.26</course>
  <speed>0.02</speed>
  <fix>3d</fix>
</trkpt>
<trkpt lat="40.0713749" lon="-105.229789">
  <ele>1583.0</ele>
  <time>2026-08-28T17:49:13Z</time>
  <course>0.0</course>
  <speed>0.0</speed>
  <fix>3d</fix>
</trkpt>
<trkpt lat="40.071375" lon="-105.229789">
  <ele>1583.0</ele>
  <time>2026-08-28T17:49:13Z</time>
  <course>247.26</course>
  <speed>0.02</speed>
  <fix>3d</fix>
</trkpt>
<trkpt lat="40.0713749" lon="-105.229789">
  <ele>1583.0</ele>
  <time>2026-08-28T17:49:13Z</time>
  <course>0.0</course>
  <speed>0.0</speed>
  <fix>3d</fix>
</trkpt>
<trkpt lat="40.071375" lon="-105.2297889">
  <ele>1583.0</ele>
  <time>2026-08-28T17:49:13Z</time>
  <course>247.26</course>
  <speed>0.02</speed>
  <fix>3d</fix>
</trkpt>
<trkpt lat="40.0713749" lon="-105.229789">
  <ele>1583.0</ele>
  <time>2026-08-28T17:49:13Z</time>
  <course>0.0</course>
  <speed>0.0</speed>
  <fix>3d</fix>
</trkpt>
<trkpt lat="40.071375" lon="-105.229789">
  <ele>1583.0</ele>
  <time>2026-08-28T17:49:13Z</time>
  <course>247.25</course>
  <speed>0.02</speed>
  <fix>3d</fix>
</trkpt>
<trkpt lat="40.0713749" lon="-105.229789">
  <ele>1583.0</ele>
  <time>2026-08-28T17:49:13Z</time>
  <course>0.0</course>
  <speed>0.0</speed>
  <fix>3d</fix>
</trkpt>
<trkpt lat="40.071375" lon="-105.2297889">
  <ele>1583.0</ele>
  <time>2026-08-28T17:49:13Z</time>
  <course>247.25</course>
  <speed>0.02</speed>
  <fix>3d</fix>
</trkpt>
<trkpt lat="40.0713749" lon="-105.229789">
  <ele>1583.0</ele>
  <time>2026-08-28T17:49:13Z</time>
  <course>0.0</course>
  <speed>0.0</speed>
  <fix>3d</fix>
</trkpt>
<trkpt lat="40.071375" lon="-105.229789">
  <ele>1582.99</ele>
  <time>2026-08-28T17:49:13Z</time>
  <course>247.25</course>
  <speed>0.02</speed>
  <fix>3d</fix>
</trkpt>
<trkpt lat="40.0713749" lon="-105.229789">
  <ele>1583.0</ele>
  <time>2026-08-28T17:49:13Z</time>
  <course>0.0</course>
  <speed>0.0</speed>
  <fix>3d</fix>
</trkpt>
<trkpt lat="40.071375" lon="-105.2297889">
  <ele>1582.99</ele>
  <time>2026-08-28T17:49:13Z</time>
  <course>247.25</course>
  <speed>0.02</speed>
  <fix>3d</fix>
</trkpt>
<trkpt lat="40.0713749" lon="-105.229789">
  <ele>1583.0</ele>
  <time>2026-08-28T17:49:13Z</time>
  <course>0.0</course>
  <speed>0.0</speed>
  <fix>3d</fix>
</trkpt>
<trkpt lat="40.071375" lon="-105.229789">
  <ele>1582.98</ele>
  <time>2026-08-28T17:49:13Z</time>
  <course>247.25</course>
  <speed>0.02</speed>
  <fix>3d</fix>
</trkpt>
<trkpt lat="40.0713749" lon="-105.229789">
  <ele>1583.0</ele>
  <time>2026-08-28T17:49:13Z</time>
  <course>0.0</course>
  <speed>0.0</speed>
  <fix>3d</fix>
</trkpt>
<trkpt lat="40.071375" lon="-105.2297889">
  <ele>1582.97</ele>
  <time>2026-08-28T17:49:13Z</time>
  <course>247.25</course>
  <speed>0.02</speed>
  <fix>3d</fix>
</trkpt>
<trkpt lat="40.0713749" lon="-105.229789">
  <ele>1583.0</ele>
  <time>2026-08-28T17:49:13Z</time>
  <course>0.0</course>
  <speed>0.0</speed>
  <fix>3d</fix>
</trkpt>
<trkpt lat="40.071375" lon="-105.229789">
  <ele>1582.96</ele>
  <time>2026-08-28T17:49:13Z</time>
  <course>247.25</course>
  <speed>0.02</speed>
  <fix>3d</fix>
</trkpt>
<trkpt lat="40.0713749" lon="-105.229789">
  <ele>1583.0</ele>
  <time>2026-08-28T17:49:13Z</time>
  <course>0.0</course>
  <speed>0.0</speed>
  <fix>3d</fix>
</trkpt>
<trkpt lat="40.071375" lon="-105.2297889">
  <ele>1582.96</ele>
  <time>2026-08-28T17:49:13Z</time>
  <course>247.25</course>
  <speed>0.02</speed>
  <fix>3d</fix>
</trkpt>
<trkpt lat="40.0713749" lon="-105.229789">
  <ele>1583.0</ele>
  <time>2026-08-28T17:49:13Z</time>
  <course>0.0</course>
  <speed>0.0</speed>
  <fix>3d</fix>
</trkpt>
<trkpt lat="40.071375" lon="-105.229789">
  <ele>1582.95</ele>
  <time>2026-08-28T17:49:13Z</time>
  <course>247.25</course>
  <speed>0.02</speed>
  <fix>3d</fix>
</trkpt>
<trkpt lat="40.0713749" lon="-105.229789">
  <ele>1583.0</ele>
  <time>2026-08-28T17:49:13Z</time>
  <course>0.0</course>
  <speed>0.0</speed>
  <fix>3d</fix>
</trkpt>
<trkpt lat="40.071375" lon="-105.2297889">
  <ele>1582.95</ele>
  <time>2026-08-28T17:49:13Z</time>
  <course>247.24</course>
  <speed>0.02</speed>
  <fix>3d</fix>
</trkpt>
<trkpt lat="40.0713749" lon="-105.229789">
  <ele>1583.0</ele>
  <time>2026-08-28T17:49:13Z</time>
  <course>0.0</course>
  <speed>0.0</speed>
  <fix>3d</fix>
</trkpt>
<trkpt lat="40.071375" lon="-105.229789">
  <ele>1582.96</ele>
  <time>2026-08-28T17:49:13Z</time>
  <course>247.24</course>
  <speed>0.02</speed>
  <fix>3d</fix>
</trkpt>
<trkpt lat="40.0713749" lon="-105.229789">
  <ele>1583.0</ele>
  <time>2026-08-28T17:49:13Z</time>
  <course>0.0</course>
  <speed>0.0</speed>
  <fix>3d</fix>
</trkpt>
<trkpt lat="40.071375" lon="-105.2297889">
  <ele>1582.96</ele>
  <time>2026-08-28T17:49:13Z</time>
  <course>247.24</course>
  <speed>0.02</speed>
  <fix>3d</fix>
</trkpt>
<trkpt lat="40.0713749" lon="-105.229789">
  <ele>1583.0</ele>
  <time>2026-08-28T17:49:13Z</time>
  <course>0.0</course>
  <speed>0.0</speed>
  <fix>3d</fix>
</trkpt>
<trkpt lat="40.071375" lon="-105.229789">
  <ele>1582.97</ele>
  <time>2026-08-28T17:49:13Z</time>
  <course>247.24</course>
  <speed>0.02</speed>
  <fix>3d</fix>
</trkpt>
<trkpt lat="40.0713749" lon="-105.229789">
  <ele>1583.0</ele>
  <time>2026-08-28T17:49:13Z</time>
  <course>0.0</course>
  <speed>0.0</speed>
  <fix>3d</fix>
</trkpt>
<trkpt lat="40.071375" lon="-105.229789">
  <ele>1582.97</ele>
  <time>2026-08-28T17:49:13Z</time>
  <course>247.24</course>
  <speed>0.02</speed>
  <fix>3d</fix>
</trkpt>
<trkpt lat="40.0713749" lon="-105.229789">
  <ele>1583.0</ele>
  <time>2026-08-28T17:49:13Z</time>
  <course>0.0</course>
  <speed>0.0</speed>
  <fix>3d</fix>
</trkpt>
<trkpt lat="40.071375" lon="-105.229789">
  <ele>1582.98</ele>
  <time>2026-08-28T17:49:13Z</time>
  <course>247.24</course>
  <speed>0.02</speed>
  <fix>3d</fix>
</trkpt>
<trkpt lat="40.0713749" lon="-105.229789">
  <ele>1583.0</ele>
  <time>2026-08-28T17:49:13Z</time>
  <course>0.0</course>
  <speed>0.0</speed>
  <fix>3d</fix>
</trkpt>
<trkpt lat="40.071375" lon="-105.229789">
  <ele>1582.98</ele>
  <time>2026-08-28T17:49:13Z</time>
  <course>247.24</course>
  <speed>0.02</speed>
  <fix>3d</fix>
</trkpt>
<trkpt lat="40.0713749" lon="-105.229789">
  <ele>1583.0</ele>
  <time>2026-08-28T17:49:13Z</time>
  <course>0.0</course>
  <speed>0.0</speed>
  <fix>3d</fix>
</trkpt>
<trkpt lat="40.071375" lon="-105.229789">
  <ele>1582.99</ele>
  <time>2026-08-28T17:49:14Z</time>
  <course>247.24</course>
  <speed>0.02</speed>
  <fix>3d</fix>
</trkpt>
<trkpt lat="40.0713749" lon="-105.229789">
  <ele>1583.0</ele>
  <time>2026-08-28T17:49:14Z</time>
  <course>0.0</course>
  <speed>0.0</speed>
  <fix>3d</fix>
</trkpt>
<trkpt lat="40.071375" lon="-105.229789">
  <ele>1583.0</ele>
  <time>2026-08-28T17:49:14Z</time>
  <course>247.24</course>
  <speed>0.02</speed>
  <fix>3d</fix>
</trkpt>
<trkpt lat="40.0713749" lon="-105.229789">
  <ele>1583.0</ele>
  <time>2026-08-28T17:49:14Z</time>
  <course>0.0</course>
  <speed>0.0</speed>
  <fix>3d</fix>
</trkpt>
<trkpt lat="40.071375" lon="-105.229789">
  <ele>1583.0</ele>
  <time>2026-08-28T17:49:14Z</time>
  <course>247.23</course>
  <speed>0.02</speed>
  <fix>3d</fix>
</trkpt>
<trkpt lat="40.0713749" lon="-105.229789">
  <ele>1583.0</ele>
  <time>2026-08-28T17:49:14Z</time>
  <course>0.0</course>
  <speed>0.0</speed>
  <fix>3d</fix>
</trkpt>
<trkpt lat="40.071375" lon="-105.229789">
  <ele>1583.01</ele>
  <time>2026-08-28T17:49:14Z</time>
  <course>247.23</course>
  <speed>0.02</speed>
  <fix>3d</fix>
</trkpt>
<trkpt lat="40.0713749" lon="-105.229789">
  <ele>1583.0</ele>
  <time>2026-08-28T17:49:14Z</time>
  <course>0.0</course>
  <speed>0.0</speed>
  <fix>3d</fix>
</trkpt>
<trkpt lat="40.071375" lon="-105.229789">
  <ele>1583.01</ele>
  <time>2026-08-28T17:49:14Z</time>
  <course>247.23</course>
  <speed>0.02</speed>
  <fix>3d</fix>
</trkpt>
<trkpt lat="40.0713749" lon="-105.229789">
  <ele>1583.0</ele>
  <time>2026-08-28T17:49:14Z</time>
  <course>0.0</course>
  <speed>0.0</speed>
  <fix>3d</fix>
</trkpt>
<trkpt lat="40.071375" lon="-105.229789">
  <ele>1583.02</ele>
  <time>2026-08-28T17:49:14Z</time>
  <course>247.23</course>
  <speed>0.02</speed>
  <fix>3d</fix>
</trkpt>
<trkpt lat="40.0713749" lon="-105.229789">
  <ele>1583.0</ele>
  <time>2026-08-28T17:49:14Z</time>
  <course>0.0</course>
  <speed>0.0</speed>
  <fix>3d</fix>
</trkpt>
<trkpt lat="40.071375" lon="-105.229789">
  <ele>1583.02</ele>
  <time>2026-08-28T17:49:14Z</time>
  <course>247.23</course>
  <speed>0.02</speed>
  <fix>3d</fix>
</trkpt>
<trkpt lat="40.0713749" lon="-105.229789">
  <ele>1583.0</ele>
  <time>2026-08-28T17:49:14Z</time>
  <course>0.0</course>
  <speed>0.0</speed>
  <fix>3d</fix>
</trkpt>
<trkpt lat="40.071375" lon="-105.229789">
  <ele>1583.03</ele>
  <time>2026-08-28T17:49:14Z</time>
  <course>247.23</course>
  <speed>0.02</speed>
  <fix>3d</fix>
</trkpt>
<trkpt lat="40.0713749" lon="-105.229789">
  <ele>1583.0</ele>
  <time>2026-08-28T17:49:14Z</time>
  <course>0.0</course>
  <speed>0.0</speed>
  <fix>3d</fix>
</trkpt>
<trkpt lat="40.071375" lon="-105.229789">
  <ele>1583.03</ele>
  <time>2026-08-28T17:49:14Z</time>
  <course>247.23</course>
  <speed>0.02</speed>
  <fix>3d</fix>
</trkpt>
<trkpt lat="40.0713749" lon="-105.229789">
  <ele>1583.0</ele>
  <time>2026-08-28T17:49:14Z</time>
  <course>0.0</course>
  <speed>0.0</speed>
  <fix>3d</fix>
</trkpt>
<trkpt lat="40.071375" lon="-105.229789">
  <ele>1583.03</ele>
  <time>2026-08-28T17:49:14Z</time>
  <course>247.23</course>
  <speed>0.02</speed>
  <fix>3d</fix>
</trkpt>
<trkpt lat="40.0713749" lon="-105.229789">
  <ele>1583.0</ele>
  <time>2026-08-28T17:49:14Z</time>
  <course>0.0</course>
  <speed>0.0</speed>
  <fix>3d</fix>
</trkpt>
<trkpt lat="40.071375" lon="-105.229789">
  <ele>1583.03</ele>
  <time>2026-08-28T17:49:14Z</time>
  <course>247.23</course>
  <speed>0.02</speed>
  <fix>3d</fix>
</trkpt>
<trkpt lat="40.0713749" lon="-105.229789">
  <ele>1583.0</ele>
  <time>2026-08-28T17:49:14Z</time>
  <course>0.0</course>
  <speed>0.0</speed>
  <fix>3d</fix>
</trkpt>
<trkpt lat="40.071375" lon="-105.2297889">
  <ele>1583.03</ele>
  <time>2026-08-28T17:49:14Z</time>
  <course>247.22</course>
  <speed>0.02</speed>
  <fix>3d</fix>
</trkpt>
<trkpt lat="40.0713749" lon="-105.229789">
  <ele>1583.0</ele>
  <time>2026-08-28T17:49:14Z</time>
  <course>0.0</course>
  <speed>0.0</speed>
  <fix>3d</fix>
</trkpt>
<trkpt lat="40.071375" lon="-105.229789">
  <ele>1583.03</ele>
  <time>2026-08-28T17:49:14Z</time>
  <course>247.22</course>
  <speed>0.02</speed>
  <fix>3d</fix>
</trkpt>
<trkpt lat="40.0713749" lon="-105.229789">
  <ele>1583.0</ele>
  <time>2026-08-28T17:49:14Z</time>
  <course>0.0</course>
  <speed>0.0</speed>
  <fix>3d</fix>
</trkpt>
<trkpt lat="40.071375" lon="-105.2297889">
  <ele>1583.03</ele>
  <time>2026-08-28T17:49:14Z</time>
  <course>247.22</course>
  <speed>0.02</speed>
  <fix>3d</fix>
</trkpt>
<trkpt lat="40.0713749" lon="-105.229789">
  <ele>1583.0</ele>
  <time>2026-08-28T17:49:14Z</time>
  <course>0.0</course>
  <speed>0.0</speed>
  <fix>3d</fix>
</trkpt>
<trkpt lat="40.071375" lon="-105.229789">
  <ele>1583.03</ele>
  <time>2026-08-28T17:49:14Z</time>
  <course>247.22</course>
  <speed>0.02</speed>
  <fix>3d</fix>
</trkpt>
<trkpt lat="40.0713749" lon="-105.229789">
  <ele>1583.0</ele>
  <time>2026-08-28T17:49:14Z</time>
  <course>0.0</course>
  <speed>0.0</speed>
  <fix>3d</fix>
</trkpt>
<trkpt lat="40.071375" lon="-105.2297889">
  <ele>1583.02</ele>
  <time>2026-08-28T17:49:14Z</time>
  <course>247.22</course>
  <speed>0.02</speed>
  <fix>3d</fix>
</trkpt>
<trkpt lat="40.0713749" lon="-105.229789">
  <ele>1583.0</ele>
  <time>2026-08-28T17:49:14Z</time>
  <course>0.0</course>
  <speed>0.0</speed>
  <fix>3d</fix>
</trkpt>
<trkpt lat="40.071375" lon="-105.229789">
  <ele>1583.02</ele>
  <time>2026-08-28T17:49:14Z</time>
  <course>247.22</course>
  <speed>0.02</speed>
  <fix>3d</fix>
</trkpt>
<trkpt lat="40.0713749" lon="-105.229789">
  <ele>1583.0</ele>
  <time>2026-08-28T17:49:14Z</time>
  <course>0.0</course>
  <speed>0.0</speed>
  <fix>3d</fix>
</trkpt>
<trkpt lat="40.071375" lon="-105.2297889">
  <ele>1583.01</ele>
  <time>2026-08-28T17:49:14Z</time>
  <course>247.22</course>
  <speed>0.02</speed>
  <fix>3d</fix>
</trkpt>
<trkpt lat="40.0713749" lon="-105.229789">
  <ele>1583.0</ele>
  <time>2026-08-28T17:49:14Z</time>
  <course>0.0</course>
  <speed>0.0</speed>
  <fix>3d</fix>
</trkpt>
<trkpt lat="40.071375" lon="-105.229789">
  <ele>1583.01</ele>
  <time>2026-08-28T17:49:14Z</time>
  <course>247.22</course>
  <speed>0.02</speed>
  <fix>3d</fix>
</trkpt>
<trkpt lat="40.0713749" lon="-105.229789">
  <ele>1583.0</ele>
  <time>2026-08-28T17:49:14Z</time>
  <course>0.0</course>
  <speed>0.0</speed>
  <fix>3d</fix>
</trkpt>
<trkpt lat="40.071375" lon="-105.2297889">
  <ele>1583.0</ele>
  <time>2026-08-28T17:49:14Z</time>
  <course>247.22</course>
  <speed>0.02</speed>
  <fix>3d</fix>
</trkpt>
<trkpt lat="40.0713749" lon="-105.229789">
  <ele>1583.0</ele>
  <time>2026-08-28T17:49:14Z</time>
  <course>0.0</course>
  <speed>0.0</speed>
  <fix>3d</fix>
</trkpt>
<trkpt lat="40.071375" lon="-105.229789">
  <ele>1583.0</ele>
  <time>2026-08-28T17:49:14Z</time>
  <course>247.22</course>
  <speed>0.02</speed>
  <fix>3d</fix>
</trkpt>
<trkpt lat="40.0713749" lon="-105.229789">
  <ele>1583.0</ele>
  <time>2026-08-28T17:49:14Z</time>
  <course>0.0</course>
  <speed>0.0</speed>
  <fix>3d</fix>
</trkpt>
<trkpt lat="40.071375" lon="-105.2297889">
  <ele>1583.0</ele>
  <time>2026-08-28T17:49:14Z</time>
  <course>247.22</course>
  <speed>0.02</speed>
  <fix>3d</fix>
</trkpt>
<trkpt lat="40.0713749" lon="-105.229789">
  <ele>1583.0</ele>
  <time>2026-08-28T17:49:14Z</time>
  <course>0.0</course>
  <speed>0.0</speed>
  <fix>3d</fix>
</trkpt>
<trkpt lat="40.071375" lon="-105.229789">
  <ele>1583.0</ele>
  <time>2026-08-28T17:49:14Z</time>
  <course>247.21</course>
  <speed>0.02</speed>
  <fix>3d</fix>
</trkpt>
<trkpt lat="40.0713749" lon="-105.229789">
  <ele>1583.0</ele>
  <time>2026-08-28T17:49:14Z</time>
  <course>0.0</course>
  <speed>0.0</speed>
  <fix>3d</fix>
</trkpt>
<trkpt lat="40.071375" lon="-105.2297889">
  <ele>1583.0</ele>
  <time>2026-08-28T17:49:14Z</time>
  <course>247.21</course>
  <speed>0.02</speed>
  <fix>3d</fix>
</trkpt>
<trkpt lat="40.0713749" lon="-105.229789">
  <ele>1583.0</ele>
  <time>2026-08-28T17:49:14Z</time>
  <course>0.0</course>
  <speed>0.0</speed>
  <fix>3d</fix>
</trkpt>
<trkpt lat="40.071375" lon="-105.229789">
  <ele>1583.0</ele>
  <time>2026-08-28T17:49:14Z</time>
  <course>247.21</course>
  <speed>0.02</speed>
  <fix>3d</fix>
</trkpt>
<trkpt lat="40.0713749" lon="-105.229789">
  <ele>1583.0</ele>
  <time>2026-08-28T17:49:14Z</time>
  <course>0.0</course>
  <speed>0.0</speed>
  <fix>3d</fix>
</trkpt>
<trkpt lat="40.071375" lon="-105.2297889">
  <ele>1583.0</ele>
  <time>2026-08-28T17:49:14Z</time>
  <course>247.21</course>
  <speed>0.02</speed>
  <fix>3d</fix>
</trkpt>
<trkpt lat="40.0713749" lon="-105.229789">
  <ele>1583.0</ele>
  <time>2026-08-28T17:49:14Z</time>
  <course>0.0</course>
  <speed>0.0</speed>
  <fix>3d</fix>
</trkpt>
<trkpt lat="40.071375" lon="-105.229789">
  <ele>1582.99</ele>
  <time>2026-08-28T17:49:14Z</time>
  <course>247.21</course>
  <speed>0.02</speed>
  <fix>3d</fix>
</trkpt>
<trkpt lat="40.0713749" lon="-105.229789">
  <ele>1583.0</ele>
  <time>2026-08-28T17:49:14Z</time>
  <course>0.0</course>
  <speed>0.0</speed>
  <fix>3d</fix>
</trkpt>
<trkpt lat="40.071375" lon="-105.2297889">
  <ele>1582.99</ele>
  <time>2026-08-28T17:49:14Z</time>
  <course>247.21</course>
  <speed>0.02</speed>
  <fix>3d</fix>
</trkpt>
<trkpt lat="40.0713749" lon="-105.229789">
  <ele>1583.0</ele>
  <time>2026-08-28T17:49:14Z</time>
  <course>0.0</course>
  <speed>0.0</speed>
  <fix>3d</fix>
</trkpt>
<trkpt lat="40.071375" lon="-105.229789">
  <ele>1582.99</ele>
  <time>2026-08-28T17:49:14Z</time>
  <course>247.21</course>
  <speed>0.02</speed>
  <fix>3d</fix>
</trkpt>
<trkpt lat="40.0713749" lon="-105.229789">
  <ele>1583.0</ele>
  <time>2026-08-28T17:49:14Z</time>
  <course>0.0</course>
  <speed>0.0</speed>
  <fix>3d</fix>
</trkpt>
<trkpt lat="40.071375" lon="-105.2297889">
  <ele>1582.98</ele>
  <time>2026-08-28T17:49:14Z</time>
  <course>247.21</course>
  <speed>0.022360679774997897</speed>
  <fix>3d</fix>
</trkpt>
<trkpt lat="40.0713749" lon="-105.229789">
  <ele>1583.0</ele>
  <time>2026-08-28T17:49:14Z</time>
  <course>0.0</course>
  <speed>0.0</speed>
  <fix>3d</fix>
</trkpt>
<trkpt lat="40.071375" lon="-105.2297889">
  <ele>1582.98</ele>
  <time>2026-08-28T17:49:14Z</time>
  <course>247.21</course>
  <speed>0.02</speed>
  <fix>3d</fix>
</trkpt>
<trkpt lat="40.0713749" lon="-105.229789">
  <ele>1583.0</ele>
  <time>2026-08-28T17:49:14Z</time>
  <course>0.0</course>
  <speed>0.0</speed>
  <fix>3d</fix>
</trkpt>
<trkpt lat="40.071375" lon="-105.2297889">
  <ele>1582.98</ele>
  <time>2026-08-28T17:49:14Z</time>
  <course>247.21</course>
  <speed>0.022360679774997897</speed>
  <fix>3d</fix>
</trkpt>
<trkpt lat="40.0713749" lon="-105.229789">
  <ele>1583.0</ele>
  <time>2026-08-28T17:49:14Z</time>
  <course>0.0</course>
  <speed>0.0</speed>
  <fix>3d</fix>
</trkpt>
<trkpt lat="40.071375" lon="-105.2297889">
  <ele>1582.97</ele>
  <time>2026-08-28T17:49:14Z</time>
  <course>247.2</course>
  <speed>0.022360679774997897</speed>
  <fix>3d</fix>
</trkpt>
<trkpt lat="40.0713749" lon="-105.229789">
  <ele>1583.0</ele>
  <time>2026-08-28T17:49:14Z</time>
  <course>0.0</course>
  <speed>0.0</speed>
  <fix>3d</fix>
</trkpt>
<trkpt lat="40.071375" lon="-105.2297889">
  <ele>1582.97</ele>
  <time>2026-08-28T17:49:14Z</time>
  <course>247.2</course>
  <speed>0.022360679774997897</speed>
  <fix>3d</fix>
</trkpt>
<trkpt lat="40.0713749" lon="-105.229789">
  <ele>1583.0</ele>
  <time>2026-08-28T17:49:14Z</time>
  <course>0.0</course>
  <speed>0.0</speed>
  <fix>3d</fix>
</trkpt>
<trkpt lat="40.071375" lon="-105.2297889">
  <ele>1582.97</ele>
  <time>2026-08-28T17:49:14Z</time>
  <course>247.2</course>
  <speed>0.022360679774997897</speed>
  <fix>3d</fix>
</trkpt>
<trkpt lat="40.0713749" lon="-105.229789">
  <ele>1583.0</ele>
  <time>2026-08-28T17:49:14Z</time>
  <course>0.0</course>
  <speed>0.0</speed>
  <fix>3d</fix>
</trkpt>
<trkpt lat="40.071375" lon="-105.2297889">
  <ele>1582.97</ele>
  <time>2026-08-28T17:49:14Z</time>
  <course>247.2</course>
  <speed>0.022360679774997897</speed>
  <fix>3d</fix>
</trkpt>
<trkpt lat="40.0713749" lon="-105.229789">
  <ele>1583.0</ele>
  <time>2026-08-28T17:49:14Z</time>
  <course>0.0</course>
  <speed>0.0</speed>
  <fix>3d</fix>
</trkpt>
<trkpt lat="40.071375" lon="-105.2297889">
  <ele>1582.97</ele>
  <time>2026-08-28T17:49:14Z</time>
  <course>247.2</course>
  <speed>0.02</speed>
  <fix>3d</fix>
</trkpt>
<trkpt lat="40.0713749" lon="-105.229789">
  <ele>1583.0</ele>
  <time>2026-08-28T17:49:14Z</time>
  <course>0.0</course>
  <speed>0.0</speed>
  <fix>3d</fix>
</trkpt>
<trkpt lat="40.071375" lon="-105.2297889">
  <ele>1582.97</ele>
  <time>2026-08-28T17:49:14Z</time>
  <course>247.2</course>
  <speed>0.022360679774997897</speed>
  <fix>3d</fix>
</trkpt>
<trkpt lat="40.0713749" lon="-105.229789">
  <ele>1583.0</ele>
  <time>2026-08-28T17:49:14Z</time>
  <course>0.0</course>
  <speed>0.0</speed>
  <fix>3d</fix>
</trkpt>
<trkpt lat="40.071375" lon="-105.2297889">
  <ele>1582.97</ele>
  <time>2026-08-28T17:49:14Z</time>
  <course>247.2</course>
  <speed>0.022360679774997897</speed>
  <fix>3d</fix>
</trkpt>
<trkpt lat="40.0713749" lon="-105.229789">
  <ele>1583.0</ele>
  <time>2026-08-28T17:49:14Z</time>
  <course>0.0</course>
  <speed>0.0</speed>
  <fix>3d</fix>
</trkpt>
<trkpt lat="40.071375" lon="-105.2297889">
  <ele>1582.98</ele>
  <time>2026-08-28T17:49:14Z</time>
  <course>247.2</course>
  <speed>0.022360679774997897</speed>
  <fix>3d</fix>
</trkpt>
<trkpt lat="40.0713749" lon="-105.229789">
  <ele>1583.0</ele>
  <time>2026-08-28T17:49:14Z</time>
  <course>0.0</course>
  <speed>0.0</speed>
  <fix>3d</fix>
</trkpt>
<trkpt lat="40.071375" lon="-105.2297889">
  <ele>1582.98</ele>
  <time>2026-08-28T17:49:14Z</time>
  <course>247.2</course>
  <speed>0.022360679774997897</speed>
  <fix>3d</fix>
</trkpt>
<trkpt lat="40.0713749" lon="-105.229789">
  <ele>1583.0</ele>
  <time>2026-08-28T17:49:14Z</time>
  <course>0.0</course>
  <speed>0.0</speed>
  <fix>3d</fix>
</trkpt>
<trkpt lat="40.071375" lon="-105.2297889">
  <ele>1582.98</ele>
  <time>2026-08-28T17:49:14Z</time>
  <course>247.2</course>
  <speed>0.022360679774997897</speed>
  <fix>3d</fix>
</trkpt>
<trkpt lat="40.0713749" lon="-105.229789">
  <ele>1583.0</ele>
  <time>2026-08-28T17:49:14Z</time>
  <course>0.0</course>
  <speed>0.0</speed>
  <fix>3d</fix>
</trkpt>
<trkpt lat="40.071375" lon="-105.2297889">
  <ele>1582.98</ele>
  <time>2026-08-28T17:49:14Z</time>
  <course>247.2</course>
  <speed>0.022360679774997897</speed>
  <fix>3d</fix>
</trkpt>
<trkpt lat="40.0713749" lon="-105.229789">
  <ele>1583.0</ele>
  <time>2026-08-28T17:49:14Z</time>
  <course>0.0</course>
  <speed>0.0</speed>
  <fix>3d</fix>
</trkpt>
<trkpt lat="40.071375" lon="-105.2297889">
  <ele>1582.98</ele>
  <time>2026-08-28T17:49:14Z</time>
  <course>247.2</course>
  <speed>0.022360679774997897</speed>
  <fix>3d</fix>
</trkpt>
<trkpt lat="40.0713749" lon="-105.229789">
  <ele>1583.0</ele>
  <time>2026-08-28T17:49:14Z</time>
  <course>0.0</course>
  <speed>0.0</speed>
  <fix>3d</fix>
</trkpt>
<trkpt lat="40.071375" lon="-105.2297889">
  <ele>1582.99</ele>
  <time>2026-08-28T17:49:14Z</time>
  <course>247.19</course>
  <speed>0.022360679774997897</speed>
  <fix>3d</fix>
</trkpt>
<trkpt lat="40.0713749" lon="-105.229789">
  <ele>1583.0</ele>
  <time>2026-08-28T17:49:14Z</time>
  <course>0.0</course>
  <speed>0.0</speed>
  <fix>3d</fix>
</trkpt>
<trkpt lat="40.071375" lon="-105.2297889">
  <ele>1582.99</ele>
  <time>2026-08-28T17:49:14Z</time>
  <course>247.19</course>
  <speed>0.022360679774997897</speed>
  <fix>3d</fix>
</trkpt>
<trkpt lat="40.0713749" lon="-105.229789">
  <ele>1583.0</ele>
  <time>2026-08-28T17:49:14Z</time>
  <course>0.0</course>
  <speed>0.0</speed>
  <fix>3d</fix>
</trkpt>
<trkpt lat="40.071375" lon="-105.2297889">
  <ele>1582.99</ele>
  <time>2026-08-28T17:49:14Z</time>
  <course>247.19</course>
  <speed>0.022360679774997897</speed>
  <fix>3d</fix>
</trkpt>
<trkpt lat="40.0713749" lon="-105.229789">
  <ele>1583.0</ele>
  <time>2026-08-28T17:49:14Z</time>
  <course>0.0</course>
  <speed>0.0</speed>
  <fix>3d</fix>
</trkpt>
<trkpt lat="40.071375" lon="-105.2297889">
  <ele>1583.0</ele>
  <time>2026-08-28T17:49:14Z</time>
  <course>247.19</course>
  <speed>0.022360679774997897</speed>
  <fix>3d</fix>
</trkpt>
<trkpt lat="40.0713749" lon="-105.229789">
  <ele>1583.0</ele>
  <time>2026-08-28T17:49:14Z</time>
  <course>0.0</course>
  <speed>0.0</speed>
  <fix>3d</fix>
</trkpt>
<trkpt lat="40.071375" lon="-105.2297889">
  <ele>1583.0</ele>
  <time>2026-08-28T17:49:14Z</time>
  <course>247.19</course>
  <speed>0.022360679774997897</speed>
  <fix>3d</fix>
</trkpt>
<trkpt lat="40.0713749" lon="-105.229789">
  <ele>1583.0</ele>
  <time>2026-08-28T17:49:14Z</time>
  <course>0.0</course>
  <speed>0.0</speed>
  <fix>3d</fix>
</trkpt>
<trkpt lat="40.071375" lon="-105.2297889">
  <ele>1583.01</ele>
  <time>2026-08-28T17:49:14Z</time>
  <course>247.19</course>
  <speed>0.022360679774997897</speed>
  <fix>3d</fix>
</trkpt>
<trkpt lat="40.0713749" lon="-105.229789">
  <ele>1583.0</ele>
  <time>2026-08-28T17:49:14Z</time>
  <course>0.0</course>
  <speed>0.0</speed>
  <fix>3d</fix>
</trkpt>
<trkpt lat="40.071375" lon="-105.2297889">
  <ele>1583.01</ele>
  <time>2026-08-28T17:49:14Z</time>
  <course>247.19</course>
  <speed>0.022360679774997897</speed>
  <fix>3d</fix>
</trkpt>
<trkpt lat="40.0713749" lon="-105.229789">
  <ele>1583.0</ele>
  <time>2026-08-28T17:49:14Z</time>
  <course>0.0</course>
  <speed>0.0</speed>
  <fix>3d</fix>
</trkpt>
<trkpt lat="40.071375" lon="-105.2297889">
  <ele>1583.02</ele>
  <time>2026-08-28T17:49:14Z</time>
  <course>247.19</course>
  <speed>0.022360679774997897</speed>
  <fix>3d</fix>
</trkpt>
<trkpt lat="40.0713749" lon="-105.229789">
  <ele>1583.0</ele>
  <time>2026-08-28T17:49:14Z</time>
  <course>0.0</course>
  <speed>0.0</speed>
  <fix>3d</fix>
</trkpt>
<trkpt lat="40.071375" lon="-105.2297889">
  <ele>1583.03</ele>
  <time>2026-08-28T17:49:14Z</time>
  <course>247.19</course>
  <speed>0.022360679774997897</speed>
  <fix>3d</fix>
</trkpt>
<trkpt lat="40.0713749" lon="-105.229789">
  <ele>1583.0</ele>
  <time>2026-08-28T17:49:14Z</time>
  <course>0.0</course>
  <speed>0.0</speed>
  <fix>3d</fix>
</trkpt>
<trkpt lat="40.071375" lon="-105.2297889">
  <ele>1583.03</ele>
  <time>2026-08-28T17:49:14Z</time>
  <course>247.19</course>
  <speed>0.022360679774997897</speed>
  <fix>3d</fix>
</trkpt>
<trkpt lat="40.0713749" lon="-105.229789">
  <ele>1583.0</ele>
  <time>2026-08-28T17:49:14Z</time>
  <course>0.0</course>
  <speed>0.0</speed>
  <fix>3d</fix>
</trkpt>
<trkpt lat="40.071375" lon="-105.2297889">
  <ele>1583.03</ele>
  <time>2026-08-28T17:49:14Z</time>
  <course>247.19</course>
  <speed>0.022360679774997897</speed>
  <fix>3d</fix>
</trkpt>
<trkpt lat="40.0713749" lon="-105.229789">
  <ele>1583.0</ele>
  <time>2026-08-28T17:49:14Z</time>
  <course>0.0</course>
  <speed>0.0</speed>
  <fix>3d</fix>
</trkpt>
<trkpt lat="40.071375" lon="-105.2297889">
  <ele>1583.03</ele>
  <time>2026-08-28T17:49:14Z</time>
  <course>247.19</course>
  <speed>0.022360679774997897</speed>
  <fix>3d</fix>
</trkpt>
<trkpt lat="40.0713749" lon="-105.229789">
  <ele>1583.0</ele>
  <time>2026-08-28T17:49:14Z</time>
  <course>0.0</course>
  <speed>0.0</speed>
  <fix>3d</fix>
</trkpt>
<trkpt lat="40.071375" lon="-105.2297889">
  <ele>1583.03</ele>
  <time>2026-08-28T17:49:14Z</time>
  <course>247.19</course>
  <speed>0.022360679774997897</speed>
  <fix>3d</fix>
</trkpt>
<trkpt lat="40.0713749" lon="-105.229789">
  <ele>1583.0</ele>
  <time>2026-08-28T17:49:14Z</time>
  <course>0.0</course>
  <speed>0.0</speed>
  <fix>3d</fix>
</trkpt>
<trkpt lat="40.071375" lon="-105.2297889">
  <ele>1583.03</ele>
  <time>2026-08-28T17:49:14Z</time>
  <course>247.18</course>
  <speed>0.022360679774997897</speed>
  <fix>3d</fix>
</trkpt>
<trkpt lat="40.0713749" lon="-105.229789">
  <ele>1583.0</ele>
  <time>2026-08-28T17:49:14Z</time>
  <course>0.0</course>
  <speed>0.0</speed>
  <fix>3d</fix>
</trkpt>
<trkpt lat="40.071375" lon="-105.2297889">
  <ele>1583.02</ele>
  <time>2026-08-28T17:49:14Z</time>
  <course>247.18</course>
  <speed>0.022360679774997897</speed>
  <fix>3d</fix>
</trkpt>
<trkpt lat="40.0713749" lon="-105.229789">
  <ele>1583.0</ele>
  <time>2026-08-28T17:49:14Z</time>
  <course>0.0</course>
  <speed>0.0</speed>
  <fix>3d</fix>
</trkpt>
<trkpt lat="40.071375" lon="-105.2297889">
  <ele>1583.02</ele>
  <time>2026-08-28T17:49:14Z</time>
  <course>247.18</course>
  <speed>0.022360679774997897</speed>
  <fix>3d</fix>
</trkpt>
<trkpt lat="40.0713749" lon="-105.229789">
  <ele>1583.0</ele>
  <time>2026-08-28T17:49:14Z</time>
  <course>0.0</course>
  <speed>0.0</speed>
  <fix>3d</fix>
</trkpt>
<trkpt lat="40.071375" lon="-105.2297889">
  <ele>1583.02</ele>
  <time>2026-08-28T17:49:14Z</time>
  <course>247.18</course>
  <speed>0.022360679774997897</speed>
  <fix>3d</fix>
</trkpt>
<trkpt lat="40.0713749" lon="-105.229789">
  <ele>1583.0</ele>
  <time>2026-08-28T17:49:14Z</time>
  <course>0.0</course>
  <speed>0.0</speed>
  <fix>3d</fix>
</trkpt>
<trkpt lat="40.071375" lon="-105.2297889">
  <ele>1583.01</ele>
  <time>2026-08-28T17:49:14Z</time>
  <course>247.18</course>
  <speed>0.022360679774997897</speed>
  <fix>3d</fix>
</trkpt>
<trkpt lat="40.0713749" lon="-105.229789">
  <ele>1583.0</ele>
  <time>2026-08-28T17:49:14Z</time>
  <course>0.0</course>
  <speed>0.0</speed>
  <fix>3d</fix>
</trkpt>
<trkpt lat="40.071375" lon="-105.2297889">
  <ele>1583.01</ele>
  <time>2026-08-28T17:49:14Z</time>
  <course>247.18</course>
  <speed>0.022360679774997897</speed>
  <fix>3d</fix>
</trkpt>
<trkpt lat="40.0713749" lon="-105.229789">
  <ele>1583.0</ele>
  <time>2026-08-28T17:49:14Z</time>
  <course>0.0</course>
  <speed>0.0</speed>
  <fix>3d</fix>
</trkpt>
<trkpt lat="40.071375" lon="-105.2297889">
  <ele>1583.01</ele>
  <time>2026-08-28T17:49:14Z</time>
  <course>247.18</course>
  <speed>0.022360679774997897</speed>
  <fix>3d</fix>
</trkpt>
<trkpt lat="40.0713749" lon="-105.229789">
  <ele>1583.0</ele>
  <time>2026-08-28T17:49:14Z</time>
  <course>0.0</course>
  <speed>0.0</speed>
  <fix>3d</fix>
</trkpt>
<trkpt lat="40.071375" lon="-105.2297889">
  <ele>1583.0</ele>
  <time>2026-08-28T17:49:14Z</time>
  <course>247.18</course>
  <speed>0.022360679774997897</speed>
  <fix>3d</fix>
</trkpt>
<trkpt lat="40.0713749" lon="-105.229789">
  <ele>1583.0</ele>
  <time>2026-08-28T17:49:14Z</time>
  <course>0.0</course>
  <speed>0.0</speed>
  <fix>3d</fix>
</trkpt>
<trkpt lat="40.071375" lon="-105.2297889">
  <ele>1583.0</ele>
  <time>2026-08-28T17:49:14Z</time>
  <course>247.18</course>
  <speed>0.022360679774997897</speed>
  <fix>3d</fix>
</trkpt>
<trkpt lat="40.0713749" lon="-105.229789">
  <ele>1583.0</ele>
  <time>2026-08-28T17:49:14Z</time>
  <course>0.0</course>
  <speed>0.0</speed>
  <fix>3d</fix>
</trkpt>
<trkpt lat="40.071375" lon="-105.2297889">
  <ele>1582.99</ele>
  <time>2026-08-28T17:49:14Z</time>
  <course>247.18</course>
  <speed>0.022360679774997897</speed>
  <fix>3d</fix>
</trkpt>
<trkpt lat="40.0713749" lon="-105.229789">
  <ele>1583.0</ele>
  <time>2026-08-28T17:49:14Z</time>
  <course>0.0</course>
  <speed>0.0</speed>
  <fix>3d</fix>
</trkpt>
<trkpt lat="40.071375" lon="-105.2297889">
  <ele>1582.98</ele>
  <time>2026-08-28T17:49:14Z</time>
  <course>247.18</course>
  <speed>0.022360679774997897</speed>
  <fix>3d</fix>
</trkpt>
<trkpt lat="40.0713749" lon="-105.229789">
  <ele>1583.0</ele>
  <time>2026-08-28T17:49:14Z</time>
  <course>0.0</course>
  <speed>0.0</speed>
  <fix>3d</fix>
</trkpt>
<trkpt lat="40.071375" lon="-105.2297889">
  <ele>1582.97</ele>
  <time>2026-08-28T17:49:14Z</time>
  <course>247.18</course>
  <speed>0.022360679774997897</speed>
  <fix>3d</fix>
</trkpt>
<trkpt lat="40.0713749" lon="-105.229789">
  <ele>1583.0</ele>
  <time>2026-08-28T17:49:14Z</time>
  <course>0.0</course>
  <speed>0.0</speed>
  <fix>3d</fix>
</trkpt>
<trkpt lat="40.071375" lon="-105.2297889">
  <ele>1582.97</ele>
  <time>2026-08-28T17:49:14Z</time>
  <course>247.18</course>
  <speed>0.022360679774997897</speed>
  <fix>3d</fix>
</trkpt>
<trkpt lat="40.0713749" lon="-105.229789">
  <ele>1583.0</ele>
  <time>2026-08-28T17:49:14Z</time>
  <course>0.0</course>
  <speed>0.0</speed>
  <fix>3d</fix>
</trkpt>
<trkpt lat="40.071375" lon="-105.2297889">
  <ele>1582.96</ele>
  <time>2026-08-28T17:49:14Z</time>
  <course>247.18</course>
  <speed>0.022360679774997897</speed>
  <fix>3d</fix>
</trkpt>
<trkpt lat="40.0713749" lon="-105.229789">
  <ele>1583.0</ele>
  <time>2026-08-28T17:49:14Z</time>
  <course>0.0</course>
  <speed>0.0</speed>
  <fix>3d</fix>
</trkpt>
<trkpt lat="40.071375" lon="-105.2297889">
  <ele>1582.96</ele>
  <time>2026-08-28T17:49:14Z</time>
  <course>247.17</course>
  <speed>0.022360679774997897</speed>
  <fix>3d</fix>
</trkpt>
<trkpt lat="40.0713749" lon="-105.229789">
  <ele>1583.0</ele>
  <time>2026-08-28T17:49:14Z</time>
  <course>0.0</course>
  <speed>0.0</speed>
  <fix>3d</fix>
</trkpt>
<trkpt lat="40.071375" lon="-105.2297889">
  <ele>1582.96</ele>
  <time>2026-08-28T17:49:14Z</time>
  <course>247.17</course>
  <speed>0.022360679774997897</speed>
  <fix>3d</fix>
</trkpt>
<trkpt lat="40.0713749" lon="-105.229789">
  <ele>1583.0</ele>
  <time>2026-08-28T17:49:14Z</time>
  <course>0.0</course>
  <speed>0.0</speed>
  <fix>3d</fix>
</trkpt>
<trkpt lat="40.071375" lon="-105.2297889">
  <ele>1582.96</ele>
  <time>2026-08-28T17:49:14Z</time>
  <course>247.17</course>
  <speed>0.022360679774997897</speed>
  <fix>3d</fix>
</trkpt>
<trkpt lat="40.0713749" lon="-105.229789">
  <ele>1583.0</ele>
  <time>2026-08-28T17:49:14Z</time>
  <course>0.0</course>
  <speed>0.0</speed>
  <fix>3d</fix>
</trkpt>
<trkpt lat="40.071375" lon="-105.2297889">
  <ele>1582.96</ele>
  <time>2026-08-28T17:49:14Z</time>
  <course>247.17</course>
  <speed>0.022360679774997897</speed>
  <fix>3d</fix>
</trkpt>
<trkpt lat="40.0713749" lon="-105.229789">
  <ele>1583.0</ele>
  <time>2026-08-28T17:49:14Z</time>
  <course>0.0</course>
  <speed>0.0</speed>
  <fix>3d</fix>
</trkpt>
<trkpt lat="40.071375" lon="-105.2297889">
  <ele>1582.96</ele>
  <time>2026-08-28T17:49:14Z</time>
  <course>247.17</course>
  <speed>0.022360679774997897</speed>
  <fix>3d</fix>
</trkpt>
<trkpt lat="40.0713749" lon="-105.229789">
  <ele>1583.0</ele>
  <time>2026-08-28T17:49:14Z</time>
  <course>0.0</course>
  <speed>0.0</speed>
  <fix>3d</fix>
</trkpt>
<trkpt lat="40.071375" lon="-105.2297889">
  <ele>1582.96</ele>
  <time>2026-08-28T17:49:14Z</time>
  <course>247.17</course>
  <speed>0.022360679774997897</speed>
  <fix>3d</fix>
</trkpt>
<trkpt lat="40.0713749" lon="-105.229789">
  <ele>1583.0</ele>
  <time>2026-08-28T17:49:14Z</time>
  <course>0.0</course>
  <speed>0.0</speed>
  <fix>3d</fix>
</trkpt>
<trkpt lat="40.071375" lon="-105.2297889">
  <ele>1582.97</ele>
  <time>2026-08-28T17:49:14Z</time>
  <course>247.17</course>
  <speed>0.022360679774997897</speed>
  <fix>3d</fix>
</trkpt>
<trkpt lat="40.0713749" lon="-105.229789">
  <ele>1583.0</ele>
  <time>2026-08-28T17:49:14Z</time>
  <course>0.0</course>
  <speed>0.0</speed>
  <fix>3d</fix>
</trkpt>
<trkpt lat="40.071375" lon="-105.2297889">
  <ele>1582.97</ele>
  <time>2026-08-28T17:49:14Z</time>
  <course>247.17</course>
  <speed>0.022360679774997897</speed>
  <fix>3d</fix>
</trkpt>
<trkpt lat="40.0713749" lon="-105.229789">
  <ele>1583.0</ele>
  <time>2026-08-28T17:49:14Z</time>
  <course>0.0</course>
  <speed>0.0</speed>
  <fix>3d</fix>
</trkpt>
<trkpt lat="40.071375" lon="-105.2297889">
  <ele>1582.98</ele>
  <time>2026-08-28T17:49:14Z</time>
  <course>247.17</course>
  <speed>0.022360679774997897</speed>
  <fix>3d</fix>
</trkpt>
<trkpt lat="40.0713749" lon="-105.229789">
  <ele>1583.0</ele>
  <time>2026-08-28T17:49:14Z</time>
  <course>0.0</course>
  <speed>0.0</speed>
  <fix>3d</fix>
</trkpt>
<trkpt lat="40.071375" lon="-105.2297889">
  <ele>1582.98</ele>
  <time>2026-08-28T17:49:14Z</time>
  <course>247.17</course>
  <speed>0.022360679774997897</speed>
  <fix>3d</fix>
</trkpt>
<trkpt lat="40.0713749" lon="-105.229789">
  <ele>1583.0</ele>
  <time>2026-08-28T17:49:14Z</time>
  <course>0.0</course>
  <speed>0.0</speed>
  <fix>3d</fix>
</trkpt>
<trkpt lat="40.071375" lon="-105.2297889">
  <ele>1582.99</ele>
  <time>2026-08-28T17:49:14Z</time>
  <course>247.17</course>
  <speed>0.022360679774997897</speed>
  <fix>3d</fix>
</trkpt>
<trkpt lat="40.0713749" lon="-105.229789">
  <ele>1583.0</ele>
  <time>2026-08-28T17:49:14Z</time>
  <course>0.0</course>
  <speed>0.0</speed>
  <fix>3d</fix>
</trkpt>
<trkpt lat="40.071375" lon="-105.2297889">
  <ele>1582.99</ele>
  <time>2026-08-28T17:49:14Z</time>
  <course>247.17</course>
  <speed>0.022360679774997897</speed>
  <fix>3d</fix>
</trkpt>
<trkpt lat="40.0713749" lon="-105.229789">
  <ele>1583.0</ele>
  <time>2026-08-28T17:49:14Z</time>
  <course>0.0</course>
  <speed>0.0</speed>
  <fix>3d</fix>
</trkpt>
<trkpt lat="40.071375" lon="-105.2297889">
  <ele>1583.0</ele>
  <time>2026-08-28T17:49:14Z</time>
  <course>247.17</course>
  <speed>0.022360679774997897</speed>
  <fix>3d</fix>
</trkpt>
<trkpt lat="40.0713749" lon="-105.229789">
  <ele>1583.0</ele>
  <time>2026-08-28T17:49:14Z</time>
  <course>0.0</course>
  <speed>0.0</speed>
  <fix>3d</fix>
</trkpt>
<trkpt lat="40.071375" lon="-105.2297889">
  <ele>1583.0</ele>
  <time>2026-08-28T17:49:14Z</time>
  <course>247.17</course>
  <speed>0.022360679774997897</speed>
  <fix>3d</fix>
</trkpt>
<trkpt lat="40.0713749" lon="-105.229789">
  <ele>1583.0</ele>
  <time>2026-08-28T17:49:14Z</time>
  <course>0.0</course>
  <speed>0.0</speed>
  <fix>3d</fix>
</trkpt>
<trkpt lat="40.071375" lon="-105.2297889">
  <ele>1583.0</ele>
  <time>2026-08-28T17:49:14Z</time>
  <course>247.16</course>
  <speed>0.022360679774997897</speed>
  <fix>3d</fix>
</trkpt>
<trkpt lat="40.0713749" lon="-105.229789">
  <ele>1583.0</ele>
  <time>2026-08-28T17:49:14Z</time>
  <course>0.0</course>
  <speed>0.0</speed>
  <fix>3d</fix>
</trkpt>
<trkpt lat="40.071375" lon="-105.2297889">
  <ele>1583.01</ele>
  <time>2026-08-28T17:49:14Z</time>
  <course>247.16</course>
  <speed>0.022360679774997897</speed>
  <fix>3d</fix>
</trkpt>
<trkpt lat="40.0713749" lon="-105.229789">
  <ele>1583.0</ele>
  <time>2026-08-28T17:49:14Z</time>
  <course>0.0</course>
  <speed>0.0</speed>
  <fix>3d</fix>
</trkpt>
<trkpt lat="40.071375" lon="-105.2297889">
  <ele>1583.01</ele>
  <time>2026-08-28T17:49:14Z</time>
  <course>247.16</course>
  <speed>0.022360679774997897</speed>
  <fix>3d</fix>
</trkpt>
<trkpt lat="40.0713749" lon="-105.229789">
  <ele>1583.0</ele>
  <time>2026-08-28T17:49:14Z</time>
  <course>0.0</course>
  <speed>0.0</speed>
  <fix>3d</fix>
</trkpt>
<trkpt lat="40.071375" lon="-105.2297889">
  <ele>1583.01</ele>
  <time>2026-08-28T17:49:14Z</time>
  <course>247.16</course>
  <speed>0.022360679774997897</speed>
  <fix>3d</fix>
</trkpt>
<trkpt lat="40.0713749" lon="-105.229789">
  <ele>1583.0</ele>
  <time>2026-08-28T17:49:14Z</time>
  <course>0.0</course>
  <speed>0.0</speed>
  <fix>3d</fix>
</trkpt>
<trkpt lat="40.071375" lon="-105.2297889">
  <ele>1583.01</ele>
  <time>2026-08-28T17:49:14Z</time>
  <course>247.16</course>
  <speed>0.022360679774997897</speed>
  <fix>3d</fix>
</trkpt>
<trkpt lat="40.0713749" lon="-105.229789">
  <ele>1583.0</ele>
  <time>2026-08-28T17:49:14Z</time>
  <course>0.0</course>
  <speed>0.0</speed>
  <fix>3d</fix>
</trkpt>
<trkpt lat="40.071375" lon="-105.2297889">
  <ele>1583.02</ele>
  <time>2026-08-28T17:49:14Z</time>
  <course>247.16</course>
  <speed>0.022360679774997897</speed>
  <fix>3d</fix>
</trkpt>
<trkpt lat="40.0713749" lon="-105.229789">
  <ele>1583.0</ele>
  <time>2026-08-28T17:49:14Z</time>
  <course>0.0</course>
  <speed>0.0</speed>
  <fix>3d</fix>
</trkpt>
<trkpt lat="40.071375" lon="-105.2297889">
  <ele>1583.02</ele>
  <time>2026-08-28T17:49:14Z</time>
  <course>247.16</course>
  <speed>0.022360679774997897</speed>
  <fix>3d</fix>
</trkpt>
<trkpt lat="40.0713749" lon="-105.229789">
  <ele>1583.0</ele>
  <time>2026-08-28T17:49:14Z</time>
  <course>0.0</course>
  <speed>0.0</speed>
  <fix>3d</fix>
</trkpt>
<trkpt lat="40.071375" lon="-105.2297889">
  <ele>1583.03</ele>
  <time>2026-08-28T17:49:14Z</time>
  <course>247.16</course>
  <speed>0.022360679774997897</speed>
  <fix>3d</fix>
</trkpt>
<trkpt lat="40.0713749" lon="-105.229789">
  <ele>1583.0</ele>
  <time>2026-08-28T17:49:14Z</time>
  <course>0.0</course>
  <speed>0.0</speed>
  <fix>3d</fix>
</trkpt>
<trkpt lat="40.071375" lon="-105.2297889">
  <ele>1583.03</ele>
  <time>2026-08-28T17:49:14Z</time>
  <course>247.16</course>
  <speed>0.022360679774997897</speed>
  <fix>3d</fix>
</trkpt>
<trkpt lat="40.0713749" lon="-105.229789">
  <ele>1583.0</ele>
  <time>2026-08-28T17:49:14Z</time>
  <course>0.0</course>
  <speed>0.0</speed>
  <fix>3d</fix>
</trkpt>
<trkpt lat="40.071375" lon="-105.2297889">
  <ele>1583.03</ele>
  <time>2026-08-28T17:49:14Z</time>
  <course>247.16</course>
  <speed>0.022360679774997897</speed>
  <fix>3d</fix>
</trkpt>
<trkpt lat="40.0713749" lon="-105.229789">
  <ele>1583.0</ele>
  <time>2026-08-28T17:49:14Z</time>
  <course>0.0</course>
  <speed>0.0</speed>
  <fix>3d</fix>
</trkpt>
<trkpt lat="40.071375" lon="-105.2297889">
  <ele>1583.03</ele>
  <time>2026-08-28T17:49:14Z</time>
  <course>247.16</course>
  <speed>0.022360679774997897</speed>
  <fix>3d</fix>
</trkpt>
<trkpt lat="40.0713749" lon="-105.229789">
  <ele>1583.0</ele>
  <time>2026-08-28T17:49:14Z</time>
  <course>0.0</course>
  <speed>0.0</speed>
  <fix>3d</fix>
</trkpt>
<trkpt lat="40.071375" lon="-105.2297889">
  <ele>1583.03</ele>
  <time>2026-08-28T17:49:14Z</time>
  <course>247.16</course>
  <speed>0.022360679774997897</speed>
  <fix>3d</fix>
</trkpt>
<trkpt lat="40.0713749" lon="-105.229789">
  <ele>1583.0</ele>
  <time>2026-08-28T17:49:14Z</time>
  <course>0.0</course>
  <speed>0.0</speed>
  <fix>3d</fix>
</trkpt>
<trkpt lat="40.071375" lon="-105.2297889">
  <ele>1583.03</ele>
  <time>2026-08-28T17:49:14Z</time>
  <course>247.16</course>
  <speed>0.022360679774997897</speed>
  <fix>3d</fix>
</trkpt>
<trkpt lat="40.0713749" lon="-105.229789">
  <ele>1583.0</ele>
  <time>2026-08-28T17:49:14Z</time>
  <course>0.0</course>
  <speed>0.0</speed>
  <fix>3d</fix>
</trkpt>
<trkpt lat="40.071375" lon="-105.2297889">
  <ele>1583.03</ele>
  <time>2026-08-28T17:49:14Z</time>
  <course>247.16</course>
  <speed>0.022360679774997897</speed>
  <fix>3d</fix>
</trkpt>
<trkpt lat="40.0713749" lon="-105.229789">
  <ele>1583.0</ele>
  <time>2026-08-28T17:49:14Z</time>
  <course>0.0</course>
  <speed>0.0</speed>
  <fix>3d</fix>
</trkpt>
<trkpt lat="40.071375" lon="-105.2297889">
  <ele>1583.03</ele>
  <time>2026-08-28T17:49:14Z</time>
  <course>247.16</course>
  <speed>0.022360679774997897</speed>
  <fix>3d</fix>
</trkpt>
<trkpt lat="40.0713749" lon="-105.229789">
  <ele>1583.0</ele>
  <time>2026-08-28T17:49:14Z</time>
  <course>0.0</course>
  <speed>0.0</speed>
  <fix>3d</fix>
</trkpt>
<trkpt lat="40.071375" lon="-105.2297889">
  <ele>1583.03</ele>
  <time>2026-08-28T17:49:14Z</time>
  <course>247.16</course>
  <speed>0.022360679774997897</speed>
  <fix>3d</fix>
</trkpt>
<trkpt lat="40.0713749" lon="-105.229789">
  <ele>1583.0</ele>
  <time>2026-08-28T17:49:14Z</time>
  <course>0.0</course>
  <speed>0.0</speed>
  <fix>3d</fix>
</trkpt>
<trkpt lat="40.071375" lon="-105.2297889">
  <ele>1583.02</ele>
  <time>2026-08-28T17:49:14Z</time>
  <course>247.16</course>
  <speed>0.022360679774997897</speed>
  <fix>3d</fix>
</trkpt>
<trkpt lat="40.0713749" lon="-105.229789">
  <ele>1583.0</ele>
  <time>2026-08-28T17:49:14Z</time>
  <course>0.0</course>
  <speed>0.0</speed>
  <fix>3d</fix>
</trkpt>
<trkpt lat="40.071375" lon="-105.2297889">
  <ele>1583.02</ele>
  <time>2026-08-28T17:49:14Z</time>
  <course>247.16</course>
  <speed>0.022360679774997897</speed>
  <fix>3d</fix>
</trkpt>
<trkpt lat="40.0713749" lon="-105.229789">
  <ele>1583.0</ele>
  <time>2026-08-28T17:49:14Z</time>
  <course>0.0</course>
  <speed>0.0</speed>
  <fix>3d</fix>
</trkpt>
<trkpt lat="40.071375" lon="-105.2297889">
  <ele>1583.01</ele>
  <time>2026-08-28T17:49:14Z</time>
  <course>247.15</course>
  <speed>0.022360679774997897</speed>
  <fix>3d</fix>
</trkpt>
<trkpt lat="40.0713749" lon="-105.229789">
  <ele>1583.0</ele>
  <time>2026-08-28T17:49:14Z</time>
  <course>0.0</course>
  <speed>0.0</speed>
  <fix>3d</fix>
</trkpt>
<trkpt lat="40.071375" lon="-105.2297889">
  <ele>1583.01</ele>
  <time>2026-08-28T17:49:14Z</time>
  <course>247.15</course>
  <speed>0.022360679774997897</speed>
  <fix>3d</fix>
</trkpt>
<trkpt lat="40.0713749" lon="-105.229789">
  <ele>1583.0</ele>
  <time>2026-08-28T17:49:14Z</time>
  <course>0.0</course>
  <speed>0.0</speed>
  <fix>3d</fix>
</trkpt>
<trkpt lat="40.071375" lon="-105.2297889">
  <ele>1583.02</ele>
  <time>2026-08-28T17:49:14Z</time>
  <course>247.15</course>
  <speed>0.022360679774997897</speed>
  <fix>3d</fix>
</trkpt>
<trkpt lat="40.0713749" lon="-105.229789">
  <ele>1583.0</ele>
  <time>2026-08-28T17:49:14Z</time>
  <course>0.0</course>
  <speed>0.0</speed>
  <fix>3d</fix>
</trkpt>
<trkpt lat="40.071375" lon="-105.2297889">
  <ele>1583.02</ele>
  <time>2026-08-28T17:49:14Z</time>
  <course>247.15</course>
  <speed>0.022360679774997897</speed>
  <fix>3d</fix>
</trkpt>
<trkpt lat="40.0713749" lon="-105.229789">
  <ele>1583.0</ele>
  <time>2026-08-28T17:49:14Z</time>
  <course>0.0</course>
  <speed>0.0</speed>
  <fix>3d</fix>
</trkpt>
<trkpt lat="40.071375" lon="-105.2297889">
  <ele>1583.02</ele>
  <time>2026-08-28T17:49:14Z</time>
  <course>247.15</course>
  <speed>0.022360679774997897</speed>
  <fix>3d</fix>
</trkpt>
<trkpt lat="40.0713749" lon="-105.229789">
  <ele>1583.0</ele>
  <time>2026-08-28T17:49:14Z</time>
  <course>0.0</course>
  <speed>0.0</speed>
  <fix>3d</fix>
</trkpt>
<trkpt lat="40.071375" lon="-105.2297889">
  <ele>1583.02</ele>
  <time>2026-08-28T17:49:14Z</time>
  <course>247.15</course>
  <speed>0.022360679774997897</speed>
  <fix>3d</fix>
</trkpt>
<trkpt lat="40.0713749" lon="-105.229789">
  <ele>1583.0</ele>
  <time>2026-08-28T17:49:14Z</time>
  <course>0.0</course>
  <speed>0.0</speed>
  <fix>3d</fix>
</trkpt>
<trkpt lat="40.071375" lon="-105.2297889">
  <ele>1583.02</ele>
  <time>2026-08-28T17:49:14Z</time>
  <course>247.15</course>
  <speed>0.022360679774997897</speed>
  <fix>3d</fix>
</trkpt>
<trkpt lat="40.0713749" lon="-105.229789">
  <ele>1583.0</ele>
  <time>2026-08-28T17:49:14Z</time>
  <course>0.0</course>
  <speed>0.0</speed>
  <fix>3d</fix>
</trkpt>
<trkpt lat="40.071375" lon="-105.2297889">
  <ele>1583.02</ele>
  <time>2026-08-28T17:49:14Z</time>
  <course>247.15</course>
  <speed>0.022360679774997897</speed>
  <fix>3d</fix>
</trkpt>
<trkpt lat="40.0713749" lon="-105.229789">
  <ele>1583.0</ele>
  <time>2026-08-28T17:49:14Z</time>
  <course>0.0</course>
  <speed>0.0</speed>
  <fix>3d</fix>
</trkpt>
<trkpt lat="40.071375" lon="-105.2297889">
  <ele>1583.03</ele>
  <time>2026-08-28T17:49:14Z</time>
  <course>247.15</course>
  <speed>0.022360679774997897</speed>
  <fix>3d</fix>
</trkpt>
<trkpt lat="40.0713749" lon="-105.229789">
  <ele>1583.0</ele>
  <time>2026-08-28T17:49:14Z</time>
  <course>0.0</course>
  <speed>0.0</speed>
  <fix>3d</fix>
</trkpt>
<trkpt lat="40.071375" lon="-105.2297889">
  <ele>1583.03</ele>
  <time>2026-08-28T17:49:14Z</time>
  <course>247.15</course>
  <speed>0.022360679774997897</speed>
  <fix>3d</fix>
</trkpt>
<trkpt lat="40.0713749" lon="-105.229789">
  <ele>1583.0</ele>
  <time>2026-08-28T17:49:14Z</time>
  <course>0.0</course>
  <speed>0.0</speed>
  <fix>3d</fix>
</trkpt>
<trkpt lat="40.071375" lon="-105.2297889">
  <ele>1583.03</ele>
  <time>2026-08-28T17:49:14Z</time>
  <course>247.15</course>
  <speed>0.022360679774997897</speed>
  <fix>3d</fix>
</trkpt>
<trkpt lat="40.0713749" lon="-105.229789">
  <ele>1583.0</ele>
  <time>2026-08-28T17:49:14Z</time>
  <course>0.0</course>
  <speed>0.0</speed>
  <fix>3d</fix>
</trkpt>
<trkpt lat="40.071375" lon="-105.2297889">
  <ele>1583.04</ele>
  <time>2026-08-28T17:49:14Z</time>
  <course>247.15</course>
  <speed>0.022360679774997897</speed>
  <fix>3d</fix>
</trkpt>
<trkpt lat="40.0713749" lon="-105.229789">
  <ele>1583.0</ele>
  <time>2026-08-28T17:49:14Z</time>
  <course>0.0</course>
  <speed>0.0</speed>
  <fix>3d</fix>
</trkpt>
<trkpt lat="40.071375" lon="-105.2297889">
  <ele>1583.04</ele>
  <time>2026-08-28T17:49:14Z</time>
  <course>247.15</course>
  <speed>0.022360679774997897</speed>
  <fix>3d</fix>
</trkpt>
<trkpt lat="40.0713749" lon="-105.229789">
  <ele>1583.0</ele>
  <time>2026-08-28T17:49:14Z</time>
  <course>0.0</course>
  <speed>0.0</speed>
  <fix>3d</fix>
</trkpt>
<trkpt lat="40.071375" lon="-105.2297889">
  <ele>1583.04</ele>
  <time>2026-08-28T17:49:14Z</time>
  <course>247.15</course>
  <speed>0.022360679774997897</speed>
  <fix>3d</fix>
</trkpt>
<trkpt lat="40.0713749" lon="-105.229789">
  <ele>1583.0</ele>
  <time>2026-08-28T17:49:14Z</time>
  <course>0.0</course>
  <speed>0.0</speed>
  <fix>3d</fix>
</trkpt>
<trkpt lat="40.071375" lon="-105.2297889">
  <ele>1583.04</ele>
  <time>2026-08-28T17:49:14Z</time>
  <course>247.15</course>
  <speed>0.022360679774997897</speed>
  <fix>3d</fix>
</trkpt>
<trkpt lat="40.0713749" lon="-105.229789">
  <ele>1583.0</ele>
  <time>2026-08-28T17:49:14Z</time>
  <course>0.0</course>
  <speed>0.0</speed>
  <fix>3d</fix>
</trkpt>
<trkpt lat="40.071375" lon="-105.2297889">
  <ele>1583.03</ele>
  <time>2026-08-28T17:49:14Z</time>
  <course>247.15</course>
  <speed>0.022360679774997897</speed>
  <fix>3d</fix>
</trkpt>
<trkpt lat="40.0713749" lon="-105.229789">
  <ele>1583.0</ele>
  <time>2026-08-28T17:49:14Z</time>
  <course>0.0</course>
  <speed>0.0</speed>
  <fix>3d</fix>
</trkpt>
<trkpt lat="40.071375" lon="-105.2297889">
  <ele>1583.03</ele>
  <time>2026-08-28T17:49:14Z</time>
  <course>247.15</course>
  <speed>0.022360679774997897</speed>
  <fix>3d</fix>
</trkpt>
<trkpt lat="40.0713749" lon="-105.229789">
  <ele>1583.0</ele>
  <time>2026-08-28T17:49:14Z</time>
  <course>0.0</course>
  <speed>0.0</speed>
  <fix>3d</fix>
</trkpt>
<trkpt lat="40.071375" lon="-105.2297889">
  <ele>1583.03</ele>
  <time>2026-08-28T17:49:14Z</time>
  <course>247.15</course>
  <speed>0.022360679774997897</speed>
  <fix>3d</fix>
</trkpt>
<trkpt lat="40.0713749" lon="-105.229789">
  <ele>1583.0</ele>
  <time>2026-08-28T17:49:14Z</time>
  <course>0.0</course>
  <speed>0.0</speed>
  <fix>3d</fix>
</trkpt>
<trkpt lat="40.071375" lon="-105.2297889">
  <ele>1583.02</ele>
  <time>2026-08-28T17:49:14Z</time>
  <course>247.15</course>
  <speed>0.022360679774997897</speed>
  <fix>3d</fix>
</trkpt>
<trkpt lat="40.0713749" lon="-105.229789">
  <ele>1583.0</ele>
  <time>2026-08-28T17:49:14Z</time>
  <course>0.0</course>
  <speed>0.0</speed>
  <fix>3d</fix>
</trkpt>
<trkpt lat="40.071375" lon="-105.2297889">
  <ele>1583.02</ele>
  <time>2026-08-28T17:49:14Z</time>
  <course>247.15</course>
  <speed>0.022360679774997897</speed>
  <fix>3d</fix>
</trkpt>
<trkpt lat="40.0713749" lon="-105.229789">
  <ele>1583.0</ele>
  <time>2026-08-28T17:49:14Z</time>
  <course>0.0</course>
  <speed>0.0</speed>
  <fix>3d</fix>
</trkpt>
<trkpt lat="40.071375" lon="-105.2297889">
  <ele>1583.02</ele>
  <time>2026-08-28T17:49:14Z</time>
  <course>247.14</course>
  <speed>0.022360679774997897</speed>
  <fix>3d</fix>
</trkpt>
<trkpt lat="40.0713749" lon="-105.229789">
  <ele>1583.0</ele>
  <time>2026-08-28T17:49:14Z</time>
  <course>0.0</course>
  <speed>0.0</speed>
  <fix>3d</fix>
</trkpt>
<trkpt lat="40.071375" lon="-105.2297889">
  <ele>1583.02</ele>
  <time>2026-08-28T17:49:14Z</time>
  <course>247.14</course>
  <speed>0.022360679774997897</speed>
  <fix>3d</fix>
</trkpt>
<trkpt lat="40.0713749" lon="-105.229789">
  <ele>1583.0</ele>
  <time>2026-08-28T17:49:14Z</time>
  <course>0.0</course>
  <speed>0.0</speed>
  <fix>3d</fix>
</trkpt>
<trkpt lat="40.071375" lon="-105.2297889">
  <ele>1583.02</ele>
  <time>2026-08-28T17:49:14Z</time>
  <course>247.14</course>
  <speed>0.022360679774997897</speed>
  <fix>3d</fix>
</trkpt>
<trkpt lat="40.0713749" lon="-105.229789">
  <ele>1583.0</ele>
  <time>2026-08-28T17:49:14Z</time>
  <course>0.0</course>
  <speed>0.0</speed>
  <fix>3d</fix>
</trkpt>
<trkpt lat="40.071375" lon="-105.2297889">
  <ele>1583.02</ele>
  <time>2026-08-28T17:49:14Z</time>
  <course>247.14</course>
  <speed>0.022360679774997897</speed>
  <fix>3d</fix>
</trkpt>
<trkpt lat="40.0713749" lon="-105.229789">
  <ele>1583.0</ele>
  <time>2026-08-28T17:49:14Z</time>
  <course>0.0</course>
  <speed>0.0</speed>
  <fix>3d</fix>
</trkpt>
<trkpt lat="40.071375" lon="-105.2297889">
  <ele>1583.02</ele>
  <time>2026-08-28T17:49:14Z</time>
  <course>247.14</course>
  <speed>0.022360679774997897</speed>
  <fix>3d</fix>
</trkpt>
<trkpt lat="40.0713749" lon="-105.229789">
  <ele>1583.0</ele>
  <time>2026-08-28T17:49:14Z</time>
  <course>0.0</course>
  <speed>0.0</speed>
  <fix>3d</fix>
</trkpt>
<trkpt lat="40.071375" lon="-105.2297889">
  <ele>1583.02</ele>
  <time>2026-08-28T17:49:14Z</time>
  <course>247.14</course>
  <speed>0.022360679774997897</speed>
  <fix>3d</fix>
</trkpt>
<trkpt lat="40.0713749" lon="-105.229789">
  <ele>1583.0</ele>
  <time>2026-08-28T17:49:14Z</time>
  <course>0.0</course>
  <speed>0.0</speed>
  <fix>3d</fix>
</trkpt>
<trkpt lat="40.071375" lon="-105.2297889">
  <ele>1583.03</ele>
  <time>2026-08-28T17:49:14Z</time>
  <course>247.14</course>
  <speed>0.022360679774997897</speed>
  <fix>3d</fix>
</trkpt>
<trkpt lat="40.0713749" lon="-105.229789">
  <ele>1583.0</ele>
  <time>2026-08-28T17:49:14Z</time>
  <course>0.0</course>
  <speed>0.0</speed>
  <fix>3d</fix>
</trkpt>
<trkpt lat="40.071375" lon="-105.2297889">
  <ele>1583.03</ele>
  <time>2026-08-28T17:49:14Z</time>
  <course>247.14</course>
  <speed>0.022360679774997897</speed>
  <fix>3d</fix>
</trkpt>
<trkpt lat="40.0713749" lon="-105.229789">
  <ele>1583.0</ele>
  <time>2026-08-28T17:49:14Z</time>
  <course>0.0</course>
  <speed>0.0</speed>
  <fix>3d</fix>
</trkpt>
<trkpt lat="40.071375" lon="-105.2297889">
  <ele>1583.03</ele>
  <time>2026-08-28T17:49:14Z</time>
  <course>247.14</course>
  <speed>0.022360679774997897</speed>
  <fix>3d</fix>
</trkpt>
<trkpt lat="40.0713749" lon="-105.229789">
  <ele>1583.0</ele>
  <time>2026-08-28T17:49:14Z</time>
  <course>0.0</course>
  <speed>0.0</speed>
  <fix>3d</fix>
</trkpt>
<trkpt lat="40.071375" lon="-105.2297889">
  <ele>1583.03</ele>
  <time>2026-08-28T17:49:14Z</time>
  <course>247.14</course>
  <speed>0.022360679774997897</speed>
  <fix>3d</fix>
</trkpt>
<trkpt lat="40.0713749" lon="-105.229789">
  <ele>1583.0</ele>
  <time>2026-08-28T17:49:14Z</time>
  <course>0.0</course>
  <speed>0.0</speed>
  <fix>3d</fix>
</trkpt>
<trkpt lat="40.071375" lon="-105.2297889">
  <ele>1583.03</ele>
  <time>2026-08-28T17:49:14Z</time>
  <course>247.14</course>
  <speed>0.022360679774997897</speed>
  <fix>3d</fix>
</trkpt>
<trkpt lat="40.0713749" lon="-105.229789">
  <ele>1583.0</ele>
  <time>2026-08-28T17:49:14Z</time>
  <course>0.0</course>
  <speed>0.0</speed>
  <fix>3d</fix>
</trkpt>
<trkpt lat="40.071375" lon="-105.2297889">
  <ele>1583.03</ele>
  <time>2026-08-28T17:49:14Z</time>
  <course>247.14</course>
  <speed>0.022360679774997897</speed>
  <fix>3d</fix>
</trkpt>
<trkpt lat="40.0713749" lon="-105.229789">
  <ele>1583.0</ele>
  <time>2026-08-28T17:49:14Z</time>
  <course>0.0</course>
  <speed>0.0</speed>
  <fix>3d</fix>
</trkpt>
<trkpt lat="40.071375" lon="-105.2297889">
  <ele>1583.03</ele>
  <time>2026-08-28T17:49:14Z</time>
  <course>247.14</course>
  <speed>0.022360679774997897</speed>
  <fix>3d</fix>
</trkpt>
<trkpt lat="40.0713749" lon="-105.229789">
  <ele>1583.0</ele>
  <time>2026-08-28T17:49:14Z</time>
  <course>0.0</course>
  <speed>0.0</speed>
  <fix>3d</fix>
</trkpt>
<trkpt lat="40.071375" lon="-105.2297889">
  <ele>1583.02</ele>
  <time>2026-08-28T17:49:14Z</time>
  <course>247.14</course>
  <speed>0.022360679774997897</speed>
  <fix>3d</fix>
</trkpt>
<trkpt lat="40.0713749" lon="-105.229789">
  <ele>1583.0</ele>
  <time>2026-08-28T17:49:14Z</time>
  <course>0.0</course>
  <speed>0.0</speed>
  <fix>3d</fix>
</trkpt>
<trkpt lat="40.071375" lon="-105.2297889">
  <ele>1583.01</ele>
  <time>2026-08-28T17:49:14Z</time>
  <course>247.14</course>
  <speed>0.022360679774997897</speed>
  <fix>3d</fix>
</trkpt>
<trkpt lat="40.0713749" lon="-105.229789">
  <ele>1583.0</ele>
  <time>2026-08-28T17:49:14Z</time>
  <course>0.0</course>
  <speed>0.0</speed>
  <fix>3d</fix>
</trkpt>
<trkpt lat="40.071375" lon="-105.2297889">
  <ele>1583.0</ele>
  <time>2026-08-28T17:49:14Z</time>
  <course>247.14</course>
  <speed>0.022360679774997897</speed>
  <fix>3d</fix>
</trkpt>
<trkpt lat="40.0713749" lon="-105.229789">
  <ele>1583.0</ele>
  <time>2026-08-28T17:49:14Z</time>
  <course>0.0</course>
  <speed>0.0</speed>
  <fix>3d</fix>
</trkpt>
<trkpt lat="40.071375" lon="-105.2297889">
  <ele>1582.99</ele>
  <time>2026-08-28T17:49:14Z</time>
  <course>247.14</course>
  <speed>0.022360679774997897</speed>
  <fix>3d</fix>
</trkpt>
<trkpt lat="40.0713749" lon="-105.229789">
  <ele>1583.0</ele>
  <time>2026-08-28T17:49:14Z</time>
  <course>0.0</course>
  <speed>0.0</speed>
  <fix>3d</fix>
</trkpt>
<trkpt lat="40.071375" lon="-105.2297889">
  <ele>1582.99</ele>
  <time>2026-08-28T17:49:14Z</time>
  <course>247.14</course>
  <speed>0.022360679774997897</speed>
  <fix>3d</fix>
</trkpt>
<trkpt lat="40.0713749" lon="-105.229789">
  <ele>1583.0</ele>
  <time>2026-08-28T17:49:14Z</time>
  <course>0.0</course>
  <speed>0.0</speed>
  <fix>3d</fix>
</trkpt>
<trkpt lat="40.071375" lon="-105.2297889">
  <ele>1582.99</ele>
  <time>2026-08-28T17:49:14Z</time>
  <course>247.14</course>
  <speed>0.022360679774997897</speed>
  <fix>3d</fix>
</trkpt>
<trkpt lat="40.0713749" lon="-105.229789">
  <ele>1583.0</ele>
  <time>2026-08-28T17:49:14Z</time>
  <course>0.0</course>
  <speed>0.0</speed>
  <fix>3d</fix>
</trkpt>
<trkpt lat="40.071375" lon="-105.2297889">
  <ele>1582.98</ele>
  <time>2026-08-28T17:49:14Z</time>
  <course>247.13</course>
  <speed>0.022360679774997897</speed>
  <fix>3d</fix>
</trkpt>
<trkpt lat="40.0713749" lon="-105.229789">
  <ele>1583.0</ele>
  <time>2026-08-28T17:49:14Z</time>
  <course>0.0</course>
  <speed>0.0</speed>
  <fix>3d</fix>
</trkpt>
<trkpt lat="40.071375" lon="-105.2297889">
  <ele>1582.98</ele>
  <time>2026-08-28T17:49:14Z</time>
  <course>247.13</course>
  <speed>0.022360679774997897</speed>
  <fix>3d</fix>
</trkpt>
<trkpt lat="40.0713749" lon="-105.229789">
  <ele>1583.0</ele>
  <time>2026-08-28T17:49:14Z</time>
  <course>0.0</course>
  <speed>0.0</speed>
  <fix>3d</fix>
</trkpt>
<trkpt lat="40.071375" lon="-105.2297889">
  <ele>1582.97</ele>
  <time>2026-08-28T17:49:14Z</time>
  <course>247.13</course>
  <speed>0.022360679774997897</speed>
  <fix>3d</fix>
</trkpt>
<trkpt lat="40.0713749" lon="-105.229789">
  <ele>1583.0</ele>
  <time>2026-08-28T17:49:14Z</time>
  <course>0.0</course>
  <speed>0.0</speed>
  <fix>3d</fix>
</trkpt>
<trkpt lat="40.071375" lon="-105.2297889">
  <ele>1582.97</ele>
  <time>2026-08-28T17:49:14Z</time>
  <course>247.13</course>
  <speed>0.022360679774997897</speed>
  <fix>3d</fix>
</trkpt>
<trkpt lat="40.0713749" lon="-105.229789">
  <ele>1583.0</ele>
  <time>2026-08-28T17:49:14Z</time>
  <course>0.0</course>
  <speed>0.0</speed>
  <fix>3d</fix>
</trkpt>
<trkpt lat="40.071375" lon="-105.2297889">
  <ele>1582.96</ele>
  <time>2026-08-28T17:49:14Z</time>
  <course>247.13</course>
  <speed>0.022360679774997897</speed>
  <fix>3d</fix>
</trkpt>
<trkpt lat="40.0713749" lon="-105.229789">
  <ele>1583.0</ele>
  <time>2026-08-28T17:49:14Z</time>
  <course>0.0</course>
  <speed>0.0</speed>
  <fix>3d</fix>
</trkpt>
<trkpt lat="40.071375" lon="-105.2297889">
  <ele>1582.95</ele>
  <time>2026-08-28T17:49:14Z</time>
  <course>247.13</course>
  <speed>0.022360679774997897</speed>
  <fix>3d</fix>
</trkpt>
<trkpt lat="40.0713749" lon="-105.229789">
  <ele>1583.0</ele>
  <time>2026-08-28T17:49:14Z</time>
  <course>0.0</course>
  <speed>0.0</speed>
  <fix>3d</fix>
</trkpt>
<trkpt lat="40.071375" lon="-105.2297889">
  <ele>1582.95</ele>
  <time>2026-08-28T17:49:14Z</time>
  <course>247.13</course>
  <speed>0.022360679774997897</speed>
  <fix>3d</fix>
</trkpt>
<trkpt lat="40.0713749" lon="-105.229789">
  <ele>1583.0</ele>
  <time>2026-08-28T17:49:14Z</time>
  <course>0.0</course>
  <speed>0.0</speed>
  <fix>3d</fix>
</trkpt>
<trkpt lat="40.071375" lon="-105.2297889">
  <ele>1582.95</ele>
  <time>2026-08-28T17:49:14Z</time>
  <course>247.13</course>
  <speed>0.022360679774997897</speed>
  <fix>3d</fix>
</trkpt>
<trkpt lat="40.0713749" lon="-105.229789">
  <ele>1583.0</ele>
  <time>2026-08-28T17:49:14Z</time>
  <course>0.0</course>
  <speed>0.0</speed>
  <fix>3d</fix>
</trkpt>
<trkpt lat="40.071375" lon="-105.2297889">
  <ele>1582.95</ele>
  <time>2026-08-28T17:49:14Z</time>
  <course>247.13</course>
  <speed>0.022360679774997897</speed>
  <fix>3d</fix>
</trkpt>
<trkpt lat="40.0713749" lon="-105.229789">
  <ele>1583.0</ele>
  <time>2026-08-28T17:49:14Z</time>
  <course>0.0</course>
  <speed>0.0</speed>
  <fix>3d</fix>
</trkpt>
<trkpt lat="40.071375" lon="-105.2297889">
  <ele>1582.95</ele>
  <time>2026-08-28T17:49:14Z</time>
  <course>247.13</course>
  <speed>0.022360679774997897</speed>
  <fix>3d</fix>
</trkpt>
<trkpt lat="40.0713749" lon="-105.229789">
  <ele>1583.0</ele>
  <time>2026-08-28T17:49:14Z</time>
  <course>0.0</course>
  <speed>0.0</speed>
  <fix>3d</fix>
</trkpt>
<trkpt lat="40.071375" lon="-105.2297889">
  <ele>1582.95</ele>
  <time>2026-08-28T17:49:14Z</time>
  <course>247.13</course>
  <speed>0.022360679774997897</speed>
  <fix>3d</fix>
</trkpt>
<trkpt lat="40.0713749" lon="-105.229789">
  <ele>1583.0</ele>
  <time>2026-08-28T17:49:14Z</time>
  <course>0.0</course>
  <speed>0.0</speed>
  <fix>3d</fix>
</trkpt>
<trkpt lat="40.071375" lon="-105.2297889">
  <ele>1582.96</ele>
  <time>2026-08-28T17:49:14Z</time>
  <course>247.13</course>
  <speed>0.022360679774997897</speed>
  <fix>3d</fix>
</trkpt>
<trkpt lat="40.0713749" lon="-105.229789">
  <ele>1583.0</ele>
  <time>2026-08-28T17:49:14Z</time>
  <course>0.0</course>
  <speed>0.0</speed>
  <fix>3d</fix>
</trkpt>
<trkpt lat="40.071375" lon="-105.2297889">
  <ele>1582.96</ele>
  <time>2026-08-28T17:49:14Z</time>
  <course>247.13</course>
  <speed>0.022360679774997897</speed>
  <fix>3d</fix>
</trkpt>
<trkpt lat="40.0713749" lon="-105.229789">
  <ele>1583.0</ele>
  <time>2026-08-28T17:49:14Z</time>
  <course>0.0</course>
  <speed>0.0</speed>
  <fix>3d</fix>
</trkpt>
<trkpt lat="40.071375" lon="-105.2297889">
  <ele>1582.97</ele>
  <time>2026-08-28T17:49:14Z</time>
  <course>247.13</course>
  <speed>0.022360679774997897</speed>
  <fix>3d</fix>
</trkpt>
<trkpt lat="40.0713749" lon="-105.229789">
  <ele>1583.0</ele>
  <time>2026-08-28T17:49:14Z</time>
  <course>0.0</course>
  <speed>0.0</speed>
  <fix>3d</fix>
</trkpt>
<trkpt lat="40.071375" lon="-105.2297889">
  <ele>1582.97</ele>
  <time>2026-08-28T17:49:14Z</time>
  <course>247.13</course>
  <speed>0.022360679774997897</speed>
  <fix>3d</fix>
</trkpt>
<trkpt lat="40.0713749" lon="-105.229789">
  <ele>1583.0</ele>
  <time>2026-08-28T17:49:14Z</time>
  <course>0.0</course>
  <speed>0.0</speed>
  <fix>3d</fix>
</trkpt>
<trkpt lat="40.071375" lon="-105.2297889">
  <ele>1582.98</ele>
  <time>2026-08-28T17:49:14Z</time>
  <course>247.13</course>
  <speed>0.022360679774997897</speed>
  <fix>3d</fix>
</trkpt>
<trkpt lat="40.0713749" lon="-105.229789">
  <ele>1583.0</ele>
  <time>2026-08-28T17:49:14Z</time>
  <course>0.0</course>
  <speed>0.0</speed>
  <fix>3d</fix>
</trkpt>
<trkpt lat="40.071375" lon="-105.2297889">
  <ele>1582.99</ele>
  <time>2026-08-28T17:49:14Z</time>
  <course>247.13</course>
  <speed>0.022360679774997897</speed>
  <fix>3d</fix>
</trkpt>
<trkpt lat="40.0713749" lon="-105.229789">
  <ele>1583.0</ele>
  <time>2026-08-28T17:49:14Z</time>
  <course>0.0</course>
  <speed>0.0</speed>
  <fix>3d</fix>
</trkpt>
<trkpt lat="40.071375" lon="-105.2297889">
  <ele>1582.99</ele>
  <time>2026-08-28T17:49:14Z</time>
  <course>247.13</course>
  <speed>0.022360679774997897</speed>
  <fix>3d</fix>
</trkpt>
<trkpt lat="40.0713749" lon="-105.229789">
  <ele>1583.0</ele>
  <time>2026-08-28T17:49:14Z</time>
  <course>0.0</course>
  <speed>0.0</speed>
  <fix>3d</fix>
</trkpt>
<trkpt lat="40.071375" lon="-105.2297889">
  <ele>1583.0</ele>
  <time>2026-08-28T17:49:14Z</time>
  <course>247.13</course>
  <speed>0.022360679774997897</speed>
  <fix>3d</fix>
</trkpt>
<trkpt lat="40.0713749" lon="-105.229789">
  <ele>1583.0</ele>
  <time>2026-08-28T17:49:14Z</time>
  <course>0.0</course>
  <speed>0.0</speed>
  <fix>3d</fix>
</trkpt>
<trkpt lat="40.071375" lon="-105.2297889">
  <ele>1583.0</ele>
  <time>2026-08-28T17:49:14Z</time>
  <course>247.13</course>
  <speed>0.022360679774997897</speed>
  <fix>3d</fix>
</trkpt>
<trkpt lat="40.0713749" lon="-105.229789">
  <ele>1583.0</ele>
  <time>2026-08-28T17:49:14Z</time>
  <course>0.0</course>
  <speed>0.0</speed>
  <fix>3d</fix>
</trkpt>
<trkpt lat="40.071375" lon="-105.2297889">
  <ele>1583.01</ele>
  <time>2026-08-28T17:49:14Z</time>
  <course>247.13</course>
  <speed>0.022360679774997897</speed>
  <fix>3d</fix>
</trkpt>
<trkpt lat="40.0713749" lon="-105.229789">
  <ele>1583.0</ele>
  <time>2026-08-28T17:49:14Z</time>
  <course>0.0</course>
  <speed>0.0</speed>
  <fix>3d</fix>
</trkpt>
<trkpt lat="40.071375" lon="-105.2297889">
  <ele>1583.01</ele>
  <time>2026-08-28T17:49:14Z</time>
  <course>247.13</course>
  <speed>0.022360679774997897</speed>
  <fix>3d</fix>
</trkpt>
<trkpt lat="40.0713749" lon="-105.229789">
  <ele>1583.0</ele>
  <time>2026-08-28T17:49:14Z</time>
  <course>0.0</course>
  <speed>0.0</speed>
  <fix>3d</fix>
</trkpt>
<trkpt lat="40.071375" lon="-105.2297889">
  <ele>1583.01</ele>
  <time>2026-08-28T17:49:14Z</time>
  <course>247.13</course>
  <speed>0.022360679774997897</speed>
  <fix>3d</fix>
</trkpt>
<trkpt lat="40.0713749" lon="-105.229789">
  <ele>1583.0</ele>
  <time>2026-08-28T17:49:14Z</time>
  <course>0.0</course>
  <speed>0.0</speed>
  <fix>3d</fix>
</trkpt>
<trkpt lat="40.071375" lon="-105.2297889">
  <ele>1583.01</ele>
  <time>2026-08-28T17:49:14Z</time>
  <course>247.12</course>
  <speed>0.022360679774997897</speed>
  <fix>3d</fix>
</trkpt>
<trkpt lat="40.0713749" lon="-105.229789">
  <ele>1583.0</ele>
  <time>2026-08-28T17:49:14Z</time>
  <course>0.0</course>
  <speed>0.0</speed>
  <fix>3d</fix>
</trkpt>
<trkpt lat="40.071375" lon="-105.2297889">
  <ele>1583.0</ele>
  <time>2026-08-28T17:49:14Z</time>
  <course>247.12</course>
  <speed>0.022360679774997897</speed>
  <fix>3d</fix>
</trkpt>
<trkpt lat="40.0713749" lon="-105.229789">
  <ele>1583.0</ele>
  <time>2026-08-28T17:49:14Z</time>
  <course>0.0</course>
  <speed>0.0</speed>
  <fix>3d</fix>
</trkpt>
<trkpt lat="40.071375" lon="-105.2297889">
  <ele>1583.0</ele>
  <time>2026-08-28T17:49:14Z</time>
  <course>247.12</course>
  <speed>0.022360679774997897</speed>
  <fix>3d</fix>
</trkpt>
<trkpt lat="40.0713749" lon="-105.229789">
  <ele>1583.0</ele>
  <time>2026-08-28T17:49:14Z</time>
  <course>0.0</course>
  <speed>0.0</speed>
  <fix>3d</fix>
</trkpt>
<trkpt lat="40.071375" lon="-105.2297889">
  <ele>1583.0</ele>
  <time>2026-08-28T17:49:14Z</time>
  <course>247.12</course>
  <speed>0.022360679774997897</speed>
  <fix>3d</fix>
</trkpt>
<trkpt lat="40.0713749" lon="-105.229789">
  <ele>1583.0</ele>
  <time>2026-08-28T17:49:14Z</time>
  <course>0.0</course>
  <speed>0.0</speed>
  <fix>3d</fix>
</trkpt>
<trkpt lat="40.071375" lon="-105.2297889">
  <ele>1582.99</ele>
  <time>2026-08-28T17:49:14Z</time>
  <course>247.12</course>
  <speed>0.022360679774997897</speed>
  <fix>3d</fix>
</trkpt>
<trkpt lat="40.0713749" lon="-105.229789">
  <ele>1583.0</ele>
  <time>2026-08-28T17:49:14Z</time>
  <course>0.0</course>
  <speed>0.0</speed>
  <fix>3d</fix>
</trkpt>
<trkpt lat="40.071375" lon="-105.2297889">
  <ele>1582.99</ele>
  <time>2026-08-28T17:49:14Z</time>
  <course>247.12</course>
  <speed>0.022360679774997897</speed>
  <fix>3d</fix>
</trkpt>
<trkpt lat="40.0713749" lon="-105.229789">
  <ele>1583.0</ele>
  <time>2026-08-28T17:49:14Z</time>
  <course>0.0</course>
  <speed>0.0</speed>
  <fix>3d</fix>
</trkpt>
<trkpt lat="40.071375" lon="-105.2297889">
  <ele>1582.98</ele>
  <time>2026-08-28T17:49:14Z</time>
  <course>247.12</course>
  <speed>0.022360679774997897</speed>
  <fix>3d</fix>
</trkpt>
<trkpt lat="40.0713749" lon="-105.229789">
  <ele>1583.0</ele>
  <time>2026-08-28T17:49:14Z</time>
  <course>0.0</course>
  <speed>0.0</speed>
  <fix>3d</fix>
</trkpt>
<trkpt lat="40.071375" lon="-105.2297889">
  <ele>1582.98</ele>
  <time>2026-08-28T17:49:14Z</time>
  <course>247.12</course>
  <speed>0.022360679774997897</speed>
  <fix>3d</fix>
</trkpt>
<trkpt lat="40.0713749" lon="-105.229789">
  <ele>1583.0</ele>
  <time>2026-08-28T17:49:14Z</time>
  <course>0.0</course>
  <speed>0.0</speed>
  <fix>3d</fix>
</trkpt>
<trkpt lat="40.071375" lon="-105.2297889">
  <ele>1582.98</ele>
  <time>2026-08-28T17:49:14Z</time>
  <course>247.12</course>
  <speed>0.022360679774997897</speed>
  <fix>3d</fix>
</trkpt>
<trkpt lat="40.0713749" lon="-105.229789">
  <ele>1583.0</ele>
  <time>2026-08-28T17:49:14Z</time>
  <course>0.0</course>
  <speed>0.0</speed>
  <fix>3d</fix>
</trkpt>
<trkpt lat="40.071375" lon="-105.2297889">
  <ele>1582.97</ele>
  <time>2026-08-28T17:49:14Z</time>
  <course>247.12</course>
  <speed>0.022360679774997897</speed>
  <fix>3d</fix>
</trkpt>
<trkpt lat="40.0713749" lon="-105.229789">
  <ele>1583.0</ele>
  <time>2026-08-28T17:49:14Z</time>
  <course>0.0</course>
  <speed>0.0</speed>
  <fix>3d</fix>
</trkpt>
<trkpt lat="40.071375" lon="-105.2297889">
  <ele>1582.97</ele>
  <time>2026-08-28T17:49:14Z</time>
  <course>247.12</course>
  <speed>0.022360679774997897</speed>
  <fix>3d</fix>
</trkpt>
<trkpt lat="40.0713749" lon="-105.229789">
  <ele>1583.0</ele>
  <time>2026-08-28T17:49:14Z</time>
  <course>0.0</course>
  <speed>0.0</speed>
  <fix>3d</fix>
</trkpt>
<trkpt lat="40.071375" lon="-105.2297889">
  <ele>1582.96</ele>
  <time>2026-08-28T17:49:14Z</time>
  <course>247.12</course>
  <speed>0.022360679774997897</speed>
  <fix>3d</fix>
</trkpt>
<trkpt lat="40.0713749" lon="-105.229789">
  <ele>1583.0</ele>
  <time>2026-08-28T17:49:14Z</time>
  <course>0.0</course>
  <speed>0.0</speed>
  <fix>3d</fix>
</trkpt>
<trkpt lat="40.071375" lon="-105.2297889">
  <ele>1582.95</ele>
  <time>2026-08-28T17:49:14Z</time>
  <course>247.12</course>
  <speed>0.022360679774997897</speed>
  <fix>3d</fix>
</trkpt>
<trkpt lat="40.0713749" lon="-105.229789">
  <ele>1583.0</ele>
  <time>2026-08-28T17:49:14Z</time>
  <course>0.0</course>
  <speed>0.0</speed>
  <fix>3d</fix>
</trkpt>
<trkpt lat="40.071375" lon="-105.2297889">
  <ele>1582.94</ele>
  <time>2026-08-28T17:49:14Z</time>
  <course>247.12</course>
  <speed>0.022360679774997897</speed>
  <fix>3d</fix>
</trkpt>
<trkpt lat="40.0713749" lon="-105.229789">
  <ele>1583.0</ele>
  <time>2026-08-28T17:49:14Z</time>
  <course>0.0</course>
  <speed>0.0</speed>
  <fix>3d</fix>
</trkpt>
<trkpt lat="40.071375" lon="-105.2297889">
  <ele>1582.94</ele>
  <time>2026-08-28T17:49:14Z</time>
  <course>247.12</course>
  <speed>0.022360679774997897</speed>
  <fix>3d</fix>
</trkpt>
<trkpt lat="40.0713749" lon="-105.229789">
  <ele>1583.0</ele>
  <time>2026-08-28T17:49:14Z</time>
  <course>0.0</course>
  <speed>0.0</speed>
  <fix>3d</fix>
</trkpt>
<trkpt lat="40.071375" lon="-105.2297889">
  <ele>1582.93</ele>
  <time>2026-08-28T17:49:14Z</time>
  <course>247.12</course>
  <speed>0.022360679774997897</speed>
  <fix>3d</fix>
</trkpt>
<trkpt lat="40.0713749" lon="-105.229789">
  <ele>1583.0</ele>
  <time>2026-08-28T17:49:14Z</time>
  <course>0.0</course>
  <speed>0.0</speed>
  <fix>3d</fix>
</trkpt>
<trkpt lat="40.071375" lon="-105.2297889">
  <ele>1582.92</ele>
  <time>2026-08-28T17:49:14Z</time>
  <course>247.12</course>
  <speed>0.022360679774997897</speed>
  <fix>3d</fix>
</trkpt>
<trkpt lat="40.0713749" lon="-105.229789">
  <ele>1583.0</ele>
  <time>2026-08-28T17:49:14Z</time>
  <course>0.0</course>
  <speed>0.0</speed>
  <fix>3d</fix>
</trkpt>
<trkpt lat="40.071375" lon="-105.2297889">
  <ele>1582.91</ele>
  <time>2026-08-28T17:49:14Z</time>
  <course>247.12</course>
  <speed>0.022360679774997897</speed>
  <fix>3d</fix>
</trkpt>
<trkpt lat="40.0713749" lon="-105.229789">
  <ele>1583.0</ele>
  <time>2026-08-28T17:49:14Z</time>
  <course>0.0</course>
  <speed>0.0</speed>
  <fix>3d</fix>
</trkpt>
<trkpt lat="40.071375" lon="-105.2297889">
  <ele>1582.9</ele>
  <time>2026-08-28T17:49:14Z</time>
  <course>247.12</course>
  <speed>0.022360679774997897</speed>
  <fix>3d</fix>
</trkpt>
<trkpt lat="40.0713749" lon="-105.229789">
  <ele>1583.0</ele>
  <time>2026-08-28T17:49:14Z</time>
  <course>0.0</course>
  <speed>0.0</speed>
  <fix>3d</fix>
</trkpt>
<trkpt lat="40.071375" lon="-105.2297889">
  <ele>1582.9</ele>
  <time>2026-08-28T17:49:14Z</time>
  <course>247.12</course>
  <speed>0.022360679774997897</speed>
  <fix>3d</fix>
</trkpt>
<trkpt lat="40.0713749" lon="-105.229789">
  <ele>1583.0</ele>
  <time>2026-08-28T17:49:14Z</time>
  <course>0.0</course>
  <speed>0.0</speed>
  <fix>3d</fix>
</trkpt>
<trkpt lat="40.071375" lon="-105.2297889">
  <ele>1582.91</ele>
  <time>2026-08-28T17:49:14Z</time>
  <course>247.12</course>
  <speed>0.022360679774997897</speed>
  <fix>3d</fix>
</trkpt>
<trkpt lat="40.0713749" lon="-105.229789">
  <ele>1583.0</ele>
  <time>2026-08-28T17:49:14Z</time>
  <course>0.0</course>
  <speed>0.0</speed>
  <fix>3d</fix>
</trkpt>
<trkpt lat="40.071375" lon="-105.2297889">
  <ele>1582.92</ele>
  <time>2026-08-28T17:49:14Z</time>
  <course>247.12</course>
  <speed>0.022360679774997897</speed>
  <fix>3d</fix>
</trkpt>
<trkpt lat="40.0713749" lon="-105.229789">
  <ele>1583.0</ele>
  <time>2026-08-28T17:49:14Z</time>
  <course>0.0</course>
  <speed>0.0</speed>
  <fix>3d</fix>
</trkpt>
<trkpt lat="40.071375" lon="-105.2297889">
  <ele>1582.93</ele>
  <time>2026-08-28T17:49:14Z</time>
  <course>247.12</course>
  <speed>0.022360679774997897</speed>
  <fix>3d</fix>
</trkpt>
<trkpt lat="40.0713749" lon="-105.229789">
  <ele>1583.0</ele>
  <time>2026-08-28T17:49:14Z</time>
  <course>0.0</course>
  <speed>0.0</speed>
  <fix>3d</fix>
</trkpt>
<trkpt lat="40.071375" lon="-105.2297889">
  <ele>1582.94</ele>
  <time>2026-08-28T17:49:14Z</time>
  <course>247.12</course>
  <speed>0.022360679774997897</speed>
  <fix>3d</fix>
</trkpt>
<trkpt lat="40.0713749" lon="-105.229789">
  <ele>1583.0</ele>
  <time>2026-08-28T17:49:14Z</time>
  <course>0.0</course>
  <speed>0.0</speed>
  <fix>3d</fix>
</trkpt>
<trkpt lat="40.071375" lon="-105.2297889">
  <ele>1582.95</ele>
  <time>2026-08-28T17:49:14Z</time>
  <course>247.12</course>
  <speed>0.022360679774997897</speed>
  <fix>3d</fix>
</trkpt>
<trkpt lat="40.0713749" lon="-105.229789">
  <ele>1583.0</ele>
  <time>2026-08-28T17:49:14Z</time>
  <course>0.0</course>
  <speed>0.0</speed>
  <fix>3d</fix>
</trkpt>
<trkpt lat="40.071375" lon="-105.2297889">
  <ele>1582.96</ele>
  <time>2026-08-28T17:49:14Z</time>
  <course>247.12</course>
  <speed>0.022360679774997897</speed>
  <fix>3d</fix>
</trkpt>
<trkpt lat="40.0713749" lon="-105.229789">
  <ele>1583.0</ele>
  <time>2026-08-28T17:49:14Z</time>
  <course>0.0</course>
  <speed>0.0</speed>
  <fix>3d</fix>
</trkpt>
<trkpt lat="40.071375" lon="-105.2297889">
  <ele>1582.97</ele>
  <time>2026-08-28T17:49:14Z</time>
  <course>247.12</course>
  <speed>0.022360679774997897</speed>
  <fix>3d</fix>
</trkpt>
<trkpt lat="40.0713749" lon="-105.229789">
  <ele>1583.0</ele>
  <time>2026-08-28T17:49:14Z</time>
  <course>0.0</course>
  <speed>0.0</speed>
  <fix>3d</fix>
</trkpt>
<trkpt lat="40.071375" lon="-105.2297889">
  <ele>1582.98</ele>
  <time>2026-08-28T17:49:14Z</time>
  <course>247.12</course>
  <speed>0.022360679774997897</speed>
  <fix>3d</fix>
</trkpt>
<trkpt lat="40.0713749" lon="-105.229789">
  <ele>1583.0</ele>
  <time>2026-08-28T17:49:14Z</time>
  <course>0.0</course>
  <speed>0.0</speed>
  <fix>3d</fix>
</trkpt>
<trkpt lat="40.071375" lon="-105.2297889">
  <ele>1582.99</ele>
  <time>2026-08-28T17:49:14Z</time>
  <course>247.12</course>
  <speed>0.022360679774997897</speed>
  <fix>3d</fix>
</trkpt>
<trkpt lat="40.0713749" lon="-105.229789">
  <ele>1583.0</ele>
  <time>2026-08-28T17:49:14Z</time>
  <course>0.0</course>
  <speed>0.0</speed>
  <fix>3d</fix>
</trkpt>
<trkpt lat="40.071375" lon="-105.2297889">
  <ele>1582.99</ele>
  <time>2026-08-28T17:49:14Z</time>
  <course>247.11</course>
  <speed>0.022360679774997897</speed>
  <fix>3d</fix>
</trkpt>
<trkpt lat="40.0713749" lon="-105.229789">
  <ele>1583.0</ele>
  <time>2026-08-28T17:49:14Z</time>
  <course>0.0</course>
  <speed>0.0</speed>
  <fix>3d</fix>
</trkpt>
<trkpt lat="40.071375" lon="-105.2297889">
  <ele>1582.99</ele>
  <time>2026-08-28T17:49:14Z</time>
  <course>247.11</course>
  <speed>0.022360679774997897</speed>
  <fix>3d</fix>
</trkpt>
<trkpt lat="40.0713749" lon="-105.229789">
  <ele>1583.0</ele>
  <time>2026-08-28T17:49:14Z</time>
  <course>0.0</course>
  <speed>0.0</speed>
  <fix>3d</fix>
</trkpt>
<trkpt lat="40.071375" lon="-105.2297889">
  <ele>1583.0</ele>
  <time>2026-08-28T17:49:14Z</time>
  <course>247.11</course>
  <speed>0.022360679774997897</speed>
  <fix>3d</fix>
</trkpt>
<trkpt lat="40.0713749" lon="-105.229789">
  <ele>1583.0</ele>
  <time>2026-08-28T17:49:14Z</time>
  <course>0.0</course>
  <speed>0.0</speed>
  <fix>3d</fix>
</trkpt>
<trkpt lat="40.071375" lon="-105.2297889">
  <ele>1583.0</ele>
  <time>2026-08-28T17:49:14Z</time>
  <course>247.11</course>
  <speed>0.022360679774997897</speed>
  <fix>3d</fix>
</trkpt>
<trkpt lat="40.0713749" lon="-105.229789">
  <ele>1583.0</ele>
  <time>2026-08-28T17:49:14Z</time>
  <course>0.0</course>
  <speed>0.0</speed>
  <fix>3d</fix>
</trkpt>
<trkpt lat="40.071375" lon="-105.2297889">
  <ele>1583.01</ele>
  <time>2026-08-28T17:49:14Z</time>
  <course>247.11</course>
  <speed>0.022360679774997897</speed>
  <fix>3d</fix>
</trkpt>
<trkpt lat="40.0713749" lon="-105.229789">
  <ele>1583.0</ele>
  <time>2026-08-28T17:49:14Z</time>
  <course>0.0</course>
  <speed>0.0</speed>
  <fix>3d</fix>
</trkpt>
<trkpt lat="40.071375" lon="-105.2297889">
  <ele>1583.01</ele>
  <time>2026-08-28T17:49:14Z</time>
  <course>247.11</course>
  <speed>0.022360679774997897</speed>
  <fix>3d</fix>
</trkpt>
<trkpt lat="40.0713749" lon="-105.229789">
  <ele>1583.0</ele>
  <time>2026-08-28T17:49:14Z</time>
  <course>0.0</course>
  <speed>0.0</speed>
  <fix>3d</fix>
</trkpt>
<trkpt lat="40.071375" lon="-105.2297889">
  <ele>1583.01</ele>
  <time>2026-08-28T17:49:14Z</time>
  <course>247.11</course>
  <speed>0.022360679774997897</speed>
  <fix>3d</fix>
</trkpt>
<trkpt lat="40.0713749" lon="-105.229789">
  <ele>1583.0</ele>
  <time>2026-08-28T17:49:14Z</time>
  <course>0.0</course>
  <speed>0.0</speed>
  <fix>3d</fix>
</trkpt>
<trkpt lat="40.071375" lon="-105.2297889">
  <ele>1583.01</ele>
  <time>2026-08-28T17:49:14Z</time>
  <course>247.11</course>
  <speed>0.022360679774997897</speed>
  <fix>3d</fix>
</trkpt>
<trkpt lat="40.0713749" lon="-105.229789">
  <ele>1583.0</ele>
  <time>2026-08-28T17:49:14Z</time>
  <course>0.0</course>
  <speed>0.0</speed>
  <fix>3d</fix>
</trkpt>
<trkpt lat="40.071375" lon="-105.2297889">
  <ele>1583.02</ele>
  <time>2026-08-28T17:49:14Z</time>
  <course>247.11</course>
  <speed>0.022360679774997897</speed>
  <fix>3d</fix>
</trkpt>
<trkpt lat="40.0713749" lon="-105.229789">
  <ele>1583.0</ele>
  <time>2026-08-28T17:49:14Z</time>
  <course>0.0</course>
  <speed>0.0</speed>
  <fix>3d</fix>
</trkpt>
<trkpt lat="40.071375" lon="-105.2297889">
  <ele>1583.02</ele>
  <time>2026-08-28T17:49:14Z</time>
  <course>247.11</course>
  <speed>0.022360679774997897</speed>
  <fix>3d</fix>
</trkpt>
<trkpt lat="40.0713749" lon="-105.229789">
  <ele>1583.0</ele>
  <time>2026-08-28T17:49:14Z</time>
  <course>0.0</course>
  <speed>0.0</speed>
  <fix>3d</fix>
</trkpt>
<trkpt lat="40.071375" lon="-105.2297889">
  <ele>1583.02</ele>
  <time>2026-08-28T17:49:14Z</time>
  <course>247.11</course>
  <speed>0.022360679774997897</speed>
  <fix>3d</fix>
</trkpt>
<trkpt lat="40.0713749" lon="-105.229789">
  <ele>1583.0</ele>
  <time>2026-08-28T17:49:14Z</time>
  <course>0.0</course>
  <speed>0.0</speed>
  <fix>3d</fix>
</trkpt>
<trkpt lat="40.071375" lon="-105.2297889">
  <ele>1583.02</ele>
  <time>2026-08-28T17:49:14Z</time>
  <course>247.11</course>
  <speed>0.022360679774997897</speed>
  <fix>3d</fix>
</trkpt>
<trkpt lat="40.0713749" lon="-105.229789">
  <ele>1583.0</ele>
  <time>2026-08-28T17:49:14Z</time>
  <course>0.0</course>
  <speed>0.0</speed>
  <fix>3d</fix>
</trkpt>
<trkpt lat="40.071375" lon="-105.2297889">
  <ele>1583.02</ele>
  <time>2026-08-28T17:49:14Z</time>
  <course>247.11</course>
  <speed>0.022360679774997897</speed>
  <fix>3d</fix>
</trkpt>
<trkpt lat="40.0713749" lon="-105.229789">
  <ele>1583.0</ele>
  <time>2026-08-28T17:49:14Z</time>
  <course>0.0</course>
  <speed>0.0</speed>
  <fix>3d</fix>
</trkpt>
<trkpt lat="40.071375" lon="-105.2297889">
  <ele>1583.01</ele>
  <time>2026-08-28T17:49:14Z</time>
  <course>247.11</course>
  <speed>0.022360679774997897</speed>
  <fix>3d</fix>
</trkpt>
<trkpt lat="40.0713749" lon="-105.229789">
  <ele>1583.0</ele>
  <time>2026-08-28T17:49:14Z</time>
  <course>0.0</course>
  <speed>0.0</speed>
  <fix>3d</fix>
</trkpt>
<trkpt lat="40.071375" lon="-105.2297889">
  <ele>1583.01</ele>
  <time>2026-08-28T17:49:14Z</time>
  <course>247.11</course>
  <speed>0.022360679774997897</speed>
  <fix>3d</fix>
</trkpt>
<trkpt lat="40.0713749" lon="-105.229789">
  <ele>1583.0</ele>
  <time>2026-08-28T17:49:14Z</time>
  <course>0.0</course>
  <speed>0.0</speed>
  <fix>3d</fix>
</trkpt>
<trkpt lat="40.071375" lon="-105.2297889">
  <ele>1583.0</ele>
  <time>2026-08-28T17:49:14Z</time>
  <course>247.11</course>
  <speed>0.022360679774997897</speed>
  <fix>3d</fix>
</trkpt>
<trkpt lat="40.0713749" lon="-105.229789">
  <ele>1583.0</ele>
  <time>2026-08-28T17:49:14Z</time>
  <course>0.0</course>
  <speed>0.0</speed>
  <fix>3d</fix>
</trkpt>
<trkpt lat="40.071375" lon="-105.2297889">
  <ele>1583.0</ele>
  <time>2026-08-28T17:49:14Z</time>
  <course>247.11</course>
  <speed>0.02</speed>
  <fix>3d</fix>
</trkpt>
<trkpt lat="40.0713749" lon="-105.229789">
  <ele>1583.0</ele>
  <time>2026-08-28T17:49:14Z</time>
  <course>0.0</course>
  <speed>0.0</speed>
  <fix>3d</fix>
</trkpt>
<trkpt lat="40.071375" lon="-105.2297889">
  <ele>1582.99</ele>
  <time>2026-08-28T17:49:14Z</time>
  <course>247.11</course>
  <speed>0.022360679774997897</speed>
  <fix>3d</fix>
</trkpt>
<trkpt lat="40.0713749" lon="-105.229789">
  <ele>1583.0</ele>
  <time>2026-08-28T17:49:14Z</time>
  <course>0.0</course>
  <speed>0.0</speed>
  <fix>3d</fix>
</trkpt>
<trkpt lat="40.071375" lon="-105.2297889">
  <ele>1582.99</ele>
  <time>2026-08-28T17:49:14Z</time>
  <course>247.11</course>
  <speed>0.02</speed>
  <fix>3d</fix>
</trkpt>
<trkpt lat="40.0713749" lon="-105.229789">
  <ele>1583.0</ele>
  <time>2026-08-28T17:49:14Z</time>
  <course>0.0</course>
  <speed>0.0</speed>
  <fix>3d</fix>
</trkpt>
<trkpt lat="40.071375" lon="-105.2297889">
  <ele>1582.99</ele>
  <time>2026-08-28T17:49:14Z</time>
  <course>247.11</course>
  <speed>0.02</speed>
  <fix>3d</fix>
</trkpt>
<trkpt lat="40.0713749" lon="-105.229789">
  <ele>1583.0</ele>
  <time>2026-08-28T17:49:14Z</time>
  <course>0.0</course>
  <speed>0.0</speed>
  <fix>3d</fix>
</trkpt>
<trkpt lat="40.071375" lon="-105.2297889">
  <ele>1582.98</ele>
  <time>2026-08-28T17:49:14Z</time>
  <course>247.11</course>
  <speed>0.02</speed>
  <fix>3d</fix>
</trkpt>
<trkpt lat="40.0713749" lon="-105.229789">
  <ele>1583.0</ele>
  <time>2026-08-28T17:49:14Z</time>
  <course>0.0</course>
  <speed>0.0</speed>
  <fix>3d</fix>
</trkpt>
<trkpt lat="40.071375" lon="-105.2297889">
  <ele>1582.98</ele>
  <time>2026-08-28T17:49:14Z</time>
  <course>247.11</course>
  <speed>0.022360679774997897</speed>
  <fix>3d</fix>
</trkpt>
<trkpt lat="40.0713749" lon="-105.229789">
  <ele>1583.0</ele>
  <time>2026-08-28T17:49:14Z</time>
  <course>0.0</course>
  <speed>0.0</speed>
  <fix>3d</fix>
</trkpt>
<trkpt lat="40.071375" lon="-105.2297889">
  <ele>1582.97</ele>
  <time>2026-08-28T17:49:14Z</time>
  <course>247.11</course>
  <speed>0.02</speed>
  <fix>3d</fix>
</trkpt>
<trkpt lat="40.0713749" lon="-105.229789">
  <ele>1583.0</ele>
  <time>2026-08-28T17:49:14Z</time>
  <course>0.0</course>
  <speed>0.0</speed>
  <fix>3d</fix>
</trkpt>
<trkpt lat="40.071375" lon="-105.2297889">
  <ele>1582.97</ele>
  <time>2026-08-28T17:49:14Z</time>
  <course>247.11</course>
  <speed>0.022360679774997897</speed>
  <fix>3d</fix>
</trkpt>
<trkpt lat="40.0713749" lon="-105.229789">
  <ele>1583.0</ele>
  <time>2026-08-28T17:49:14Z</time>
  <course>0.0</course>
  <speed>0.0</speed>
  <fix>3d</fix>
</trkpt>
<trkpt lat="40.071375" lon="-105.2297889">
  <ele>1582.96</ele>
  <time>2026-08-28T17:49:14Z</time>
  <course>247.11</course>
  <speed>0.022360679774997897</speed>
  <fix>3d</fix>
</trkpt>
<trkpt lat="40.0713749" lon="-105.229789">
  <ele>1583.0</ele>
  <time>2026-08-28T17:49:14Z</time>
  <course>0.0</course>
  <speed>0.0</speed>
  <fix>3d</fix>
</trkpt>
<trkpt lat="40.071375" lon="-105.2297889">
  <ele>1582.96</ele>
  <time>2026-08-28T17:49:14Z</time>
  <course>247.11</course>
  <speed>0.022360679774997897</speed>
  <fix>3d</fix>
</trkpt>
<trkpt lat="40.0713749" lon="-105.229789">
  <ele>1583.0</ele>
  <time>2026-08-28T17:49:14Z</time>
  <course>0.0</course>
  <speed>0.0</speed>
  <fix>3d</fix>
</trkpt>
<trkpt lat="40.071375" lon="-105.2297889">
  <ele>1582.95</ele>
  <time>2026-08-28T17:49:14Z</time>
  <course>247.11</course>
  <speed>0.022360679774997897</speed>
  <fix>3d</fix>
</trkpt>
<trkpt lat="40.0713749" lon="-105.229789">
  <ele>1583.0</ele>
  <time>2026-08-28T17:49:14Z</time>
  <course>0.0</course>
  <speed>0.0</speed>
  <fix>3d</fix>
</trkpt>
<trkpt lat="40.0713751" lon="-105.2297889">
  <ele>1582.95</ele>
  <time>2026-08-28T17:49:14Z</time>
  <course>247.11</course>
  <speed>0.022360679774997897</speed>
  <fix>3d</fix>
</trkpt>
<trkpt lat="40.0713749" lon="-105.229789">
  <ele>1583.0</ele>
  <time>2026-08-28T17:49:14Z</time>
  <course>0.0</course>
  <speed>0.0</speed>
  <fix>3d</fix>
</trkpt>
<trkpt lat="40.071375" lon="-105.2297889">
  <ele>1582.95</ele>
  <time>2026-08-28T17:49:14Z</time>
  <course>247.11</course>
  <speed>0.022360679774997897</speed>
  <fix>3d</fix>
</trkpt>
<trkpt lat="40.0713749" lon="-105.229789">
  <ele>1583.0</ele>
  <time>2026-08-28T17:49:14Z</time>
  <course>0.0</course>
  <speed>0.0</speed>
  <fix>3d</fix>
</trkpt>
<trkpt lat="40.0713751" lon="-105.2297889">
  <ele>1582.95</ele>
  <time>2026-08-28T17:49:14Z</time>
  <course>247.11</course>
  <speed>0.022360679774997897</speed>
  <fix>3d</fix>
</trkpt>
<trkpt lat="40.0713749" lon="-105.229789">
  <ele>1583.0</ele>
  <time>2026-08-28T17:49:14Z</time>
  <course>0.0</course>
  <speed>0.0</speed>
  <fix>3d</fix>
</trkpt>
<trkpt lat="40.071375" lon="-105.2297889">
  <ele>1582.95</ele>
  <time>2026-08-28T17:49:14Z</time>
  <course>247.11</course>
  <speed>0.02</speed>
  <fix>3d</fix>
</trkpt>
<trkpt lat="40.0713749" lon="-105.229789">
  <ele>1583.0</ele>
  <time>2026-08-28T17:49:14Z</time>
  <course>0.0</course>
  <speed>0.0</speed>
  <fix>3d</fix>
</trkpt>
<trkpt lat="40.071375" lon="-105.2297889">
  <ele>1582.95</ele>
  <time>2026-08-28T17:49:14Z</time>
  <course>247.1</course>
  <speed>0.022360679774997897</speed>
  <fix>3d</fix>
</trkpt>
<trkpt lat="40.0713749" lon="-105.229789">
  <ele>1583.0</ele>
  <time>2026-08-28T17:49:14Z</time>
  <course>0.0</course>
  <speed>0.0</speed>
  <fix>3d</fix>
</trkpt>
<trkpt lat="40.071375" lon="-105.2297889">
  <ele>1582.95</ele>
  <time>2026-08-28T17:49:14Z</time>
  <course>247.1</course>
  <speed>0.02</speed>
  <fix>3d</fix>
</trkpt>
<trkpt lat="40.0713749" lon="-105.229789">
  <ele>1583.0</ele>
  <time>2026-08-28T17:49:14Z</time>
  <course>0.0</course>
  <speed>0.0</speed>
  <fix>3d</fix>
</trkpt>
<trkpt lat="40.071375" lon="-105.2297889">
  <ele>1582.95</ele>
  <time>2026-08-28T17:49:14Z</time>
  <course>247.1</course>
  <speed>0.02</speed>
  <fix>3d</fix>
</trkpt>
<trkpt lat="40.0713749" lon="-105.229789">
  <ele>1583.0</ele>
  <time>2026-08-28T17:49:14Z</time>
  <course>0.0</course>
  <speed>0.0</speed>
  <fix>3d</fix>
</trkpt>
<trkpt lat="40.071375" lon="-105.2297889">
  <ele>1582.95</ele>
  <time>2026-08-28T17:49:14Z</time>
  <course>247.1</course>
  <speed>0.02</speed>
  <fix>3d</fix>
</trkpt>
<trkpt lat="40.0713749" lon="-105.229789">
  <ele>1583.0</ele>
  <time>2026-08-28T17:49:14Z</time>
  <course>0.0</course>
  <speed>0.0</speed>
  <fix>3d</fix>
</trkpt>
<trkpt lat="40.071375" lon="-105.2297889">
  <ele>1582.96</ele>
  <time>2026-08-28T17:49:14Z</time>
  <course>247.1</course>
  <speed>0.02</speed>
  <fix>3d</fix>
</trkpt>
<trkpt lat="40.0713749" lon="-105.229789">
  <ele>1583.0</ele>
  <time>2026-08-28T17:49:14Z</time>
  <course>0.0</course>
  <speed>0.0</speed>
  <fix>3d</fix>
</trkpt>
<trkpt lat="40.071375" lon="-105.2297889">
  <ele>1582.96</ele>
  <time>2026-08-28T17:49:14Z</time>
  <course>247.1</course>
  <speed>0.02</speed>
  <fix>3d</fix>
</trkpt>
<trkpt lat="40.0713749" lon="-105.229789">
  <ele>1583.0</ele>
  <time>2026-08-28T17:49:14Z</time>
  <course>0.0</course>
  <speed>0.0</speed>
  <fix>3d</fix>
</trkpt>
<trkpt lat="40.071375" lon="-105.2297889">
  <ele>1582.97</ele>
  <time>2026-08-28T17:49:14Z</time>
  <course>247.1</course>
  <speed>0.02</speed>
  <fix>3d</fix>
</trkpt>
<trkpt lat="40.0713749" lon="-105.229789">
  <ele>1583.0</ele>
  <time>2026-08-28T17:49:14Z</time>
  <course>0.0</course>
  <speed>0.0</speed>
  <fix>3d</fix>
</trkpt>
<trkpt lat="40.071375" lon="-105.2297889">
  <ele>1582.97</ele>
  <time>2026-08-28T17:49:14Z</time>
  <course>247.1</course>
  <speed>0.02</speed>
  <fix>3d</fix>
</trkpt>
<trkpt lat="40.0713749" lon="-105.229789">
  <ele>1583.0</ele>
  <time>2026-08-28T17:49:14Z</time>
  <course>0.0</course>
  <speed>0.0</speed>
  <fix>3d</fix>
</trkpt>
<trkpt lat="40.071375" lon="-105.2297889">
  <ele>1582.97</ele>
  <time>2026-08-28T17:49:14Z</time>
  <course>247.1</course>
  <speed>0.02</speed>
  <fix>3d</fix>
</trkpt>
<trkpt lat="40.0713749" lon="-105.229789">
  <ele>1583.0</ele>
  <time>2026-08-28T17:49:14Z</time>
  <course>0.0</course>
  <speed>0.0</speed>
  <fix>3d</fix>
</trkpt>
<trkpt lat="40.071375" lon="-105.2297889">
  <ele>1582.97</ele>
  <time>2026-08-28T17:49:14Z</time>
  <course>247.1</course>
  <speed>0.02</speed>
  <fix>3d</fix>
</trkpt>
<trkpt lat="40.0713749" lon="-105.229789">
  <ele>1583.0</ele>
  <time>2026-08-28T17:49:14Z</time>
  <course>0.0</course>
  <speed>0.0</speed>
  <fix>3d</fix>
</trkpt>
<trkpt lat="40.071375" lon="-105.2297889">
  <ele>1582.97</ele>
  <time>2026-08-28T17:49:14Z</time>
  <course>247.1</course>
  <speed>0.02</speed>
  <fix>3d</fix>
</trkpt>
<trkpt lat="40.0713749" lon="-105.229789">
  <ele>1583.0</ele>
  <time>2026-08-28T17:49:14Z</time>
  <course>0.0</course>
  <speed>0.0</speed>
  <fix>3d</fix>
</trkpt>
<trkpt lat="40.071375" lon="-105.2297889">
  <ele>1582.97</ele>
  <time>2026-08-28T17:49:14Z</time>
  <course>247.1</course>
  <speed>0.02</speed>
  <fix>3d</fix>
</trkpt>
<trkpt lat="40.0713749" lon="-105.229789">
  <ele>1583.0</ele>
  <time>2026-08-28T17:49:14Z</time>
  <course>0.0</course>
  <speed>0.0</speed>
  <fix>3d</fix>
</trkpt>
<trkpt lat="40.071375" lon="-105.2297889">
  <ele>1582.97</ele>
  <time>2026-08-28T17:49:14Z</time>
  <course>247.1</course>
  <speed>0.022360679774997897</speed>
  <fix>3d</fix>
</trkpt>
<trkpt lat="40.0713749" lon="-105.229789">
  <ele>1583.0</ele>
  <time>2026-08-28T17:49:14Z</time>
  <course>0.0</course>
  <speed>0.0</speed>
  <fix>3d</fix>
</trkpt>
<trkpt lat="40.071375" lon="-105.2297889">
  <ele>1582.96</ele>
  <time>2026-08-28T17:49:14Z</time>
  <course>247.1</course>
  <speed>0.02</speed>
  <fix>3d</fix>
</trkpt>
<trkpt lat="40.0713749" lon="-105.229789">
  <ele>1583.0</ele>
  <time>2026-08-28T17:49:14Z</time>
  <course>0.0</course>
  <speed>0.0</speed>
  <fix>3d</fix>
</trkpt>
<trkpt lat="40.0713751" lon="-105.2297889">
  <ele>1582.95</ele>
  <time>2026-08-28T17:49:14Z</time>
  <course>247.1</course>
  <speed>0.022360679774997897</speed>
  <fix>3d</fix>
</trkpt>
<trkpt lat="40.0713749" lon="-105.229789">
  <ele>1583.0</ele>
  <time>2026-08-28T17:49:14Z</time>
  <course>0.0</course>
  <speed>0.0</speed>
  <fix>3d</fix>
</trkpt>
<trkpt lat="40.071375" lon="-105.2297889">
  <ele>1582.95</ele>
  <time>2026-08-28T17:49:14Z</time>
  <course>247.1</course>
  <speed>0.022360679774997897</speed>
  <fix>3d</fix>
</trkpt>
<trkpt lat="40.0713749" lon="-105.229789">
  <ele>1583.0</ele>
  <time>2026-08-28T17:49:14Z</time>
  <course>0.0</course>
  <speed>0.0</speed>
  <fix>3d</fix>
</trkpt>
<trkpt lat="40.0713751" lon="-105.2297889">
  <ele>1582.94</ele>
  <time>2026-08-28T17:49:14Z</time>
  <course>247.1</course>
  <speed>0.022360679774997897</speed>
  <fix>3d</fix>
</trkpt>
<trkpt lat="40.0713749" lon="-105.229789">
  <ele>1583.0</ele>
  <time>2026-08-28T17:49:14Z</time>
  <course>0.0</course>
  <speed>0.0</speed>
  <fix>3d</fix>
</trkpt>
<trkpt lat="40.071375" lon="-105.2297889">
  <ele>1582.93</ele>
  <time>2026-08-28T17:49:14Z</time>
  <course>247.1</course>
  <speed>0.022360679774997897</speed>
  <fix>3d</fix>
</trkpt>
<trkpt lat="40.0713749" lon="-105.229789">
  <ele>1583.0</ele>
  <time>2026-08-28T17:49:14Z</time>
  <course>0.0</course>
  <speed>0.0</speed>
  <fix>3d</fix>
</trkpt>
<trkpt lat="40.0713751" lon="-105.2297889">
  <ele>1582.93</ele>
  <time>2026-08-28T17:49:14Z</time>
  <course>247.1</course>
  <speed>0.022360679774997897</speed>
  <fix>3d</fix>
</trkpt>
<trkpt lat="40.0713749" lon="-105.229789">
  <ele>1583.0</ele>
  <time>2026-08-28T17:49:14Z</time>
  <course>0.0</course>
  <speed>0.0</speed>
  <fix>3d</fix>
</trkpt>
<trkpt lat="40.071375" lon="-105.2297889">
  <ele>1582.94</ele>
  <time>2026-08-28T17:49:14Z</time>
  <course>247.1</course>
  <speed>0.022360679774997897</speed>
  <fix>3d</fix>
</trkpt>
<trkpt lat="40.0713749" lon="-105.229789">
  <ele>1583.0</ele>
  <time>2026-08-28T17:49:14Z</time>
  <course>0.0</course>
  <speed>0.0</speed>
  <fix>3d</fix>
</trkpt>
<trkpt lat="40.0713751" lon="-105.2297889">
  <ele>1582.94</ele>
  <time>2026-08-28T17:49:14Z</time>
  <course>247.1</course>
  <speed>0.022360679774997897</speed>
  <fix>3d</fix>
</trkpt>
<trkpt lat="40.0713749" lon="-105.229789">
  <ele>1583.0</ele>
  <time>2026-08-28T17:49:14Z</time>
  <course>0.0</course>
  <speed>0.0</speed>
  <fix>3d</fix>
</trkpt>
<trkpt lat="40.071375" lon="-105.2297889">
  <ele>1582.95</ele>
  <time>2026-08-28T17:49:14Z</time>
  <course>247.1</course>
  <speed>0.022360679774997897</speed>
  <fix>3d</fix>
</trkpt>
<trkpt lat="40.0713749" lon="-105.229789">
  <ele>1583.0</ele>
  <time>2026-08-28T17:49:14Z</time>
  <course>0.0</course>
  <speed>0.0</speed>
  <fix>3d</fix>
</trkpt>
<trkpt lat="40.071375" lon="-105.2297889">
  <ele>1582.95</ele>
  <time>2026-08-28T17:49:14Z</time>
  <course>247.1</course>
  <speed>0.022360679774997897</speed>
  <fix>3d</fix>
</trkpt>
<trkpt lat="40.0713749" lon="-105.229789">
  <ele>1583.0</ele>
  <time>2026-08-28T17:49:14Z</time>
  <course>0.0</course>
  <speed>0.0</speed>
  <fix>3d</fix>
</trkpt>
<trkpt lat="40.071375" lon="-105.2297889">
  <ele>1582.96</ele>
  <time>2026-08-28T17:49:14Z</time>
  <course>247.1</course>
  <speed>0.022360679774997897</speed>
  <fix>3d</fix>
</trkpt>
<trkpt lat="40.0713749" lon="-105.229789">
  <ele>1583.0</ele>
  <time>2026-08-28T17:49:14Z</time>
  <course>0.0</course>
  <speed>0.0</speed>
  <fix>3d</fix>
</trkpt>
<trkpt lat="40.071375" lon="-105.2297889">
  <ele>1582.97</ele>
  <time>2026-08-28T17:49:14Z</time>
  <course>247.1</course>
  <speed>0.022360679774997897</speed>
  <fix>3d</fix>
</trkpt>
<trkpt lat="40.0713749" lon="-105.229789">
  <ele>1583.0</ele>
  <time>2026-08-28T17:49:14Z</time>
  <course>0.0</course>
  <speed>0.0</speed>
  <fix>3d</fix>
</trkpt>
<trkpt lat="40.071375" lon="-105.2297889">
  <ele>1582.98</ele>
  <time>2026-08-28T17:49:14Z</time>
  <course>247.1</course>
  <speed>0.022360679774997897</speed>
  <fix>3d</fix>
</trkpt>
<trkpt lat="40.0713749" lon="-105.229789">
  <ele>1583.0</ele>
  <time>2026-08-28T17:49:14Z</time>
  <course>0.0</course>
  <speed>0.0</speed>
  <fix>3d</fix>
</trkpt>
<trkpt lat="40.071375" lon="-105.2297889">
  <ele>1582.98</ele>
  <time>2026-08-28T17:49:14Z</time>
  <course>247.1</course>
  <speed>0.022360679774997897</speed>
  <fix>3d</fix>
</trkpt>
<trkpt lat="40.0713749" lon="-105.229789">
  <ele>1583.0</ele>
  <time>2026-08-28T17:49:14Z</time>
  <course>0.0</course>
  <speed>0.0</speed>
  <fix>3d</fix>
</trkpt>
<trkpt lat="40.071375" lon="-105.2297889">
  <ele>1582.99</ele>
  <time>2026-08-28T17:49:14Z</time>
  <course>247.1</course>
  <speed>0.022360679774997897</speed>
  <fix>3d</fix>
</trkpt>
<trkpt lat="40.0713749" lon="-105.229789">
  <ele>1583.0</ele>
  <time>2026-08-28T17:49:14Z</time>
  <course>0.0</course>
  <speed>0.0</speed>
  <fix>3d</fix>
</trkpt>
<trkpt lat="40.071375" lon="-105.2297889">
  <ele>1582.99</ele>
  <time>2026-08-28T17:49:14Z</time>
  <course>247.1</course>
  <speed>0.022360679774997897</speed>
  <fix>3d</fix>
</trkpt>
<trkpt lat="40.0713749" lon="-105.229789">
  <ele>1583.0</ele>
  <time>2026-08-28T17:49:14Z</time>
  <course>0.0</course>
  <speed>0.0</speed>
  <fix>3d</fix>
</trkpt>
<trkpt lat="40.071375" lon="-105.2297889">
  <ele>1582.99</ele>
  <time>2026-08-28T17:49:14Z</time>
  <course>247.1</course>
  <speed>0.022360679774997897</speed>
  <fix>3d</fix>
</trkpt>
<trkpt lat="40.0713749" lon="-105.229789">
  <ele>1583.0</ele>
  <time>2026-08-28T17:49:14Z</time>
  <course>0.0</course>
  <speed>0.0</speed>
  <fix>3d</fix>
</trkpt>
<trkpt lat="40.071375" lon="-105.2297889">
  <ele>1583.0</ele>
  <time>2026-08-28T17:49:14Z</time>
  <course>247.1</course>
  <speed>0.022360679774997897</speed>
  <fix>3d</fix>
</trkpt>
<trkpt lat="40.0713749" lon="-105.229789">
  <ele>1583.0</ele>
  <time>2026-08-28T17:49:14Z</time>
  <course>0.0</course>
  <speed>0.0</speed>
  <fix>3d</fix>
</trkpt>
<trkpt lat="40.071375" lon="-105.2297889">
  <ele>1583.0</ele>
  <time>2026-08-28T17:49:14Z</time>
  <course>247.1</course>
  <speed>0.022360679774997897</speed>
  <fix>3d</fix>
</trkpt>
<trkpt lat="40.0713749" lon="-105.229789">
  <ele>1583.0</ele>
  <time>2026-08-28T17:49:14Z</time>
  <course>0.0</course>
  <speed>0.0</speed>
  <fix>3d</fix>
</trkpt>
<trkpt lat="40.071375" lon="-105.2297889">
  <ele>1583.0</ele>
  <time>2026-08-28T17:49:14Z</time>
  <course>247.1</course>
  <speed>0.022360679774997897</speed>
  <fix>3d</fix>
</trkpt>
<trkpt lat="40.0713749" lon="-105.229789">
  <ele>1583.0</ele>
  <time>2026-08-28T17:49:14Z</time>
  <course>0.0</course>
  <speed>0.0</speed>
  <fix>3d</fix>
</trkpt>
<trkpt lat="40.071375" lon="-105.2297889">
  <ele>1583.0</ele>
  <time>2026-08-28T17:49:14Z</time>
  <course>247.1</course>
  <speed>0.022360679774997897</speed>
  <fix>3d</fix>
</trkpt>
<trkpt lat="40.0713749" lon="-105.229789">
  <ele>1583.0</ele>
  <time>2026-08-28T17:49:14Z</time>
  <course>0.0</course>
  <speed>0.0</speed>
  <fix>3d</fix>
</trkpt>
<trkpt lat="40.071375" lon="-105.2297889">
  <ele>1583.0</ele>
  <time>2026-08-28T17:49:14Z</time>
  <course>247.1</course>
  <speed>0.022360679774997897</speed>
  <fix>3d</fix>
</trkpt>
<trkpt lat="40.0713749" lon="-105.229789">
  <ele>1583.0</ele>
  <time>2026-08-28T17:49:14Z</time>
  <course>0.0</course>
  <speed>0.0</speed>
  <fix>3d</fix>
</trkpt>
<trkpt lat="40.071375" lon="-105.2297889">
  <ele>1583.0</ele>
  <time>2026-08-28T17:49:14Z</time>
  <course>247.1</course>
  <speed>0.022360679774997897</speed>
  <fix>3d</fix>
</trkpt>
<trkpt lat="40.0713749" lon="-105.229789">
  <ele>1583.0</ele>
  <time>2026-08-28T17:49:14Z</time>
  <course>0.0</course>
  <speed>0.0</speed>
  <fix>3d</fix>
</trkpt>
<trkpt lat="40.0713751" lon="-105.2297889">
  <ele>1583.01</ele>
  <time>2026-08-28T17:49:14Z</time>
  <course>247.1</course>
  <speed>0.022360679774997897</speed>
  <fix>3d</fix>
</trkpt>
<trkpt lat="40.0713749" lon="-105.229789">
  <ele>1583.0</ele>
  <time>2026-08-28T17:49:14Z</time>
  <course>0.0</course>
  <speed>0.0</speed>
  <fix>3d</fix>
</trkpt>
<trkpt lat="40.071375" lon="-105.2297889">
  <ele>1583.01</ele>
  <time>2026-08-28T17:49:14Z</time>
  <course>247.1</course>
  <speed>0.022360679774997897</speed>
  <fix>3d</fix>
</trkpt>
<trkpt lat="40.0713749" lon="-105.229789">
  <ele>1583.0</ele>
  <time>2026-08-28T17:49:14Z</time>
  <course>0.0</course>
  <speed>0.0</speed>
  <fix>3d</fix>
</trkpt>
<trkpt lat="40.0713751" lon="-105.2297889">
  <ele>1583.01</ele>
  <time>2026-08-28T17:49:14Z</time>
  <course>247.1</course>
  <speed>0.022360679774997897</speed>
  <fix>3d</fix>
</trkpt>
<trkpt lat="40.0713749" lon="-105.229789">
  <ele>1583.0</ele>
  <time>2026-08-28T17:49:14Z</time>
  <course>0.0</course>
  <speed>0.0</speed>
  <fix>3d</fix>
</trkpt>
<trkpt lat="40.071375" lon="-105.2297889">
  <ele>1583.01</ele>
  <time>2026-08-28T17:49:14Z</time>
  <course>247.1</course>
  <speed>0.022360679774997897</speed>
  <fix>3d</fix>
</trkpt>
<trkpt lat="40.0713749" lon="-105.229789">
  <ele>1583.0</ele>
  <time>2026-08-28T17:49:14Z</time>
  <course>0.0</course>
  <speed>0.0</speed>
  <fix>3d</fix>
</trkpt>
<trkpt lat="40.0713751" lon="-105.2297889">
  <ele>1583.01</ele>
  <time>2026-08-28T17:49:14Z</time>
  <course>247.1</course>
  <speed>0.022360679774997897</speed>
  <fix>3d</fix>
</trkpt>
<trkpt lat="40.0713749" lon="-105.229789">
  <ele>1583.0</ele>
  <time>2026-08-28T17:49:14Z</time>
  <course>0.0</course>
  <speed>0.0</speed>
  <fix>3d</fix>
</trkpt>
<trkpt lat="40.071375" lon="-105.2297889">
  <ele>1583.01</ele>
  <time>2026-08-28T17:49:14Z</time>
  <course>247.1</course>
  <speed>0.022360679774997897</speed>
  <fix>3d</fix>
</trkpt>
<trkpt lat="40.0713749" lon="-105.229789">
  <ele>1583.0</ele>
  <time>2026-08-28T17:49:14Z</time>
  <course>0.0</course>
  <speed>0.0</speed>
  <fix>3d</fix>
</trkpt>
<trkpt lat="40.071375" lon="-105.2297889">
  <ele>1583.01</ele>
  <time>2026-08-28T17:49:14Z</time>
  <course>247.1</course>
  <speed>0.022360679774997897</speed>
  <fix>3d</fix>
</trkpt>
<trkpt lat="40.0713749" lon="-105.229789">
  <ele>1583.0</ele>
  <time>2026-08-28T17:49:14Z</time>
  <course>0.0</course>
  <speed>0.0</speed>
  <fix>3d</fix>
</trkpt>
<trkpt lat="40.071375" lon="-105.2297889">
  <ele>1583.01</ele>
  <time>2026-08-28T17:49:14Z</time>
  <course>247.1</course>
  <speed>0.022360679774997897</speed>
  <fix>3d</fix>
</trkpt>
<trkpt lat="40.0713749" lon="-105.229789">
  <ele>1583.0</ele>
  <time>2026-08-28T17:49:14Z</time>
  <course>0.0</course>
  <speed>0.0</speed>
  <fix>3d</fix>
</trkpt>
<trkpt lat="40.071375" lon="-105.2297889">
  <ele>1583.01</ele>
  <time>2026-08-28T17:49:14Z</time>
  <course>247.1</course>
  <speed>0.022360679774997897</speed>
  <fix>3d</fix>
</trkpt>
<trkpt lat="40.0713749" lon="-105.229789">
  <ele>1583.0</ele>
  <time>2026-08-28T17:49:14Z</time>
  <course>0.0</course>
  <speed>0.0</speed>
  <fix>3d</fix>
</trkpt>
<trkpt lat="40.071375" lon="-105.2297889">
  <ele>1583.01</ele>
  <time>2026-08-28T17:49:14Z</time>
  <course>247.09</course>
  <speed>0.022360679774997897</speed>
  <fix>3d</fix>
</trkpt>
<trkpt lat="40.0713749" lon="-105.229789">
  <ele>1583.0</ele>
  <time>2026-08-28T17:49:14Z</time>
  <course>0.0</course>
  <speed>0.0</speed>
  <fix>3d</fix>
</trkpt>
<trkpt lat="40.071375" lon="-105.2297889">
  <ele>1583.01</ele>
  <time>2026-08-28T17:49:14Z</time>
  <course>247.09</course>
  <speed>0.022360679774997897</speed>
  <fix>3d</fix>
</trkpt>
<trkpt lat="40.0713749" lon="-105.229789">
  <ele>1583.0</ele>
  <time>2026-08-28T17:49:14Z</time>
  <course>0.0</course>
  <speed>0.0</speed>
  <fix>3d</fix>
</trkpt>
<trkpt lat="40.071375" lon="-105.2297889">
  <ele>1583.01</ele>
  <time>2026-08-28T17:49:14Z</time>
  <course>247.09</course>
  <speed>0.022360679774997897</speed>
  <fix>3d</fix>
</trkpt>
<trkpt lat="40.0713749" lon="-105.229789">
  <ele>1583.0</ele>
  <time>2026-08-28T17:49:14Z</time>
  <course>0.0</course>
  <speed>0.0</speed>
  <fix>3d</fix>
</trkpt>
<trkpt lat="40.071375" lon="-105.2297889">
  <ele>1583.01</ele>
  <time>2026-08-28T17:49:14Z</time>
  <course>247.09</course>
  <speed>0.022360679774997897</speed>
  <fix>3d</fix>
</trkpt>
<trkpt lat="40.0713749" lon="-105.229789">
  <ele>1583.0</ele>
  <time>2026-08-28T17:49:14Z</time>
  <course>0.0</course>
  <speed>0.0</speed>
  <fix>3d</fix>
</trkpt>
<trkpt lat="40.071375" lon="-105.2297889">
  <ele>1583.01</ele>
  <time>2026-08-28T17:49:14Z</time>
  <course>247.09</course>
  <speed>0.022360679774997897</speed>
  <fix>3d</fix>
</trkpt>
<trkpt lat="40.0713749" lon="-105.229789">
  <ele>1583.0</ele>
  <time>2026-08-28T17:49:14Z</time>
  <course>0.0</course>
  <speed>0.0</speed>
  <fix>3d</fix>
</trkpt>
<trkpt lat="40.071375" lon="-105.2297889">
  <ele>1583.01</ele>
  <time>2026-08-28T17:49:14Z</time>
  <course>247.09</course>
  <speed>0.022360679774997897</speed>
  <fix>3d</fix>
</trkpt>
<trkpt lat="40.0713749" lon="-105.229789">
  <ele>1583.0</ele>
  <time>2026-08-28T17:49:14Z</time>
  <course>0.0</course>
  <speed>0.0</speed>
  <fix>3d</fix>
</trkpt>
<trkpt lat="40.071375" lon="-105.2297889">
  <ele>1583.0</ele>
  <time>2026-08-28T17:49:14Z</time>
  <course>247.09</course>
  <speed>0.022360679774997897</speed>
  <fix>3d</fix>
</trkpt>
<trkpt lat="40.0713749" lon="-105.229789">
  <ele>1583.0</ele>
  <time>2026-08-28T17:49:14Z</time>
  <course>0.0</course>
  <speed>0.0</speed>
  <fix>3d</fix>
</trkpt>
<trkpt lat="40.071375" lon="-105.2297889">
  <ele>1583.0</ele>
  <time>2026-08-28T17:49:14Z</time>
  <course>247.09</course>
  <speed>0.022360679774997897</speed>
  <fix>3d</fix>
</trkpt>
<trkpt lat="40.0713749" lon="-105.229789">
  <ele>1583.0</ele>
  <time>2026-08-28T17:49:14Z</time>
  <course>0.0</course>
  <speed>0.0</speed>
  <fix>3d</fix>
</trkpt>
<trkpt lat="40.071375" lon="-105.2297889">
  <ele>1583.0</ele>
  <time>2026-08-28T17:49:14Z</time>
  <course>247.09</course>
  <speed>0.022360679774997897</speed>
  <fix>3d</fix>
</trkpt>
<trkpt lat="40.0713749" lon="-105.229789">
  <ele>1583.0</ele>
  <time>2026-08-28T17:49:14Z</time>
  <course>0.0</course>
  <speed>0.0</speed>
  <fix>3d</fix>
</trkpt>
<trkpt lat="40.071375" lon="-105.2297889">
  <ele>1583.0</ele>
  <time>2026-08-28T17:49:14Z</time>
  <course>247.09</course>
  <speed>0.022360679774997897</speed>
  <fix>3d</fix>
</trkpt>
<trkpt lat="40.0713749" lon="-105.229789">
  <ele>1583.0</ele>
  <time>2026-08-28T17:49:14Z</time>
  <course>0.0</course>
  <speed>0.0</speed>
  <fix>3d</fix>
</trkpt>
<trkpt lat="40.071375" lon="-105.2297889">
  <ele>1583.0</ele>
  <time>2026-08-28T17:49:14Z</time>
  <course>247.09</course>
  <speed>0.022360679774997897</speed>
  <fix>3d</fix>
</trkpt>
<trkpt lat="40.0713749" lon="-105.229789">
  <ele>1583.0</ele>
  <time>2026-08-28T17:49:14Z</time>
  <course>0.0</course>
  <speed>0.0</speed>
  <fix>3d</fix>
</trkpt>
<trkpt lat="40.0713751" lon="-105.2297889">
  <ele>1583.0</ele>
  <time>2026-08-28T17:49:14Z</time>
  <course>247.09</course>
  <speed>0.022360679774997897</speed>
  <fix>3d</fix>
</trkpt>
<trkpt lat="40.0713749" lon="-105.229789">
  <ele>1583.0</ele>
  <time>2026-08-28T17:49:14Z</time>
  <course>0.0</course>
  <speed>0.0</speed>
  <fix>3d</fix>
</trkpt>
<trkpt lat="40.071375" lon="-105.2297889">
  <ele>1583.0</ele>
  <time>2026-08-28T17:49:14Z</time>
  <course>247.09</course>
  <speed>0.022360679774997897</speed>
  <fix>3d</fix>
</trkpt>
<trkpt lat="40.0713749" lon="-105.229789">
  <ele>1583.0</ele>
  <time>2026-08-28T17:49:14Z</time>
  <course>0.0</course>
  <speed>0.0</speed>
  <fix>3d</fix>
</trkpt>
<trkpt lat="40.0713751" lon="-105.2297889">
  <ele>1583.0</ele>
  <time>2026-08-28T17:49:14Z</time>
  <course>247.09</course>
  <speed>0.022360679774997897</speed>
  <fix>3d</fix>
</trkpt>
<trkpt lat="40.0713749" lon="-105.229789">
  <ele>1583.0</ele>
  <time>2026-08-28T17:49:14Z</time>
  <course>0.0</course>
  <speed>0.0</speed>
  <fix>3d</fix>
</trkpt>
<trkpt lat="40.071375" lon="-105.2297889">
  <ele>1582.99</ele>
  <time>2026-08-28T17:49:14Z</time>
  <course>247.09</course>
  <speed>0.022360679774997897</speed>
  <fix>3d</fix>
</trkpt>
<trkpt lat="40.0713749" lon="-105.229789">
  <ele>1583.0</ele>
  <time>2026-08-28T17:49:14Z</time>
  <course>0.0</course>
  <speed>0.0</speed>
  <fix>3d</fix>
</trkpt>
<trkpt lat="40.0713751" lon="-105.2297889">
  <ele>1582.99</ele>
  <time>2026-08-28T17:49:14Z</time>
  <course>247.09</course>
  <speed>0.022360679774997897</speed>
  <fix>3d</fix>
</trkpt>
<trkpt lat="40.0713749" lon="-105.229789">
  <ele>1583.0</ele>
  <time>2026-08-28T17:49:14Z</time>
  <course>0.0</course>
  <speed>0.0</speed>
  <fix>3d</fix>
</trkpt>
<trkpt lat="40.071375" lon="-105.2297889">
  <ele>1582.99</ele>
  <time>2026-08-28T17:49:14Z</time>
  <course>247.09</course>
  <speed>0.022360679774997897</speed>
  <fix>3d</fix>
</trkpt>
<trkpt lat="40.0713749" lon="-105.229789">
  <ele>1583.0</ele>
  <time>2026-08-28T17:49:14Z</time>
  <course>0.0</course>
  <speed>0.0</speed>
  <fix>3d</fix>
</trkpt>
<trkpt lat="40.071375" lon="-105.2297889">
  <ele>1582.99</ele>
  <time>2026-08-28T17:49:14Z</time>
  <course>247.09</course>
  <speed>0.022360679774997897</speed>
  <fix>3d</fix>
</trkpt>
<trkpt lat="40.0713749" lon="-105.229789">
  <ele>1583.0</ele>
  <time>2026-08-28T17:49:14Z</time>
  <course>0.0</course>
  <speed>0.0</speed>
  <fix>3d</fix>
</trkpt>
<trkpt lat="40.071375" lon="-105.2297889">
  <ele>1582.99</ele>
  <time>2026-08-28T17:49:14Z</time>
  <course>247.09</course>
  <speed>0.022360679774997897</speed>
  <fix>3d</fix>
</trkpt>
<trkpt lat="40.0713749" lon="-105.229789">
  <ele>1583.0</ele>
  <time>2026-08-28T17:49:14Z</time>
  <course>0.0</course>
  <speed>0.0</speed>
  <fix>3d</fix>
</trkpt>
<trkpt lat="40.071375" lon="-105.2297889">
  <ele>1582.99</ele>
  <time>2026-08-28T17:49:14Z</time>
  <course>247.09</course>
  <speed>0.022360679774997897</speed>
  <fix>3d</fix>
</trkpt>
<trkpt lat="40.0713749" lon="-105.229789">
  <ele>1583.0</ele>
  <time>2026-08-28T17:49:14Z</time>
  <course>0.0</course>
  <speed>0.0</speed>
  <fix>3d</fix>
</trkpt>
<trkpt lat="40.071375" lon="-105.2297889">
  <ele>1582.99</ele>
  <time>2026-08-28T17:49:14Z</time>
  <course>247.09</course>
  <speed>0.022360679774997897</speed>
  <fix>3d</fix>
</trkpt>
<trkpt lat="40.0713749" lon="-105.229789">
  <ele>1583.0</ele>
  <time>2026-08-28T17:49:14Z</time>
  <course>0.0</course>
  <speed>0.0</speed>
  <fix>3d</fix>
</trkpt>
<trkpt lat="40.071375" lon="-105.2297889">
  <ele>1582.99</ele>
  <time>2026-08-28T17:49:14Z</time>
  <course>247.09</course>
  <speed>0.022360679774997897</speed>
  <fix>3d</fix>
</trkpt>
<trkpt lat="40.0713749" lon="-105.229789">
  <ele>1583.0</ele>
  <time>2026-08-28T17:49:14Z</time>
  <course>0.0</course>
  <speed>0.0</speed>
  <fix>3d</fix>
</trkpt>
<trkpt lat="40.071375" lon="-105.2297889">
  <ele>1582.99</ele>
  <time>2026-08-28T17:49:14Z</time>
  <course>247.09</course>
  <speed>0.022360679774997897</speed>
  <fix>3d</fix>
</trkpt>
<trkpt lat="40.0713749" lon="-105.229789">
  <ele>1583.0</ele>
  <time>2026-08-28T17:49:14Z</time>
  <course>0.0</course>
  <speed>0.0</speed>
  <fix>3d</fix>
</trkpt>
<trkpt lat="40.071375" lon="-105.2297889">
  <ele>1582.99</ele>
  <time>2026-08-28T17:49:14Z</time>
  <course>247.09</course>
  <speed>0.022360679774997897</speed>
  <fix>3d</fix>
</trkpt>
<trkpt lat="40.0713749" lon="-105.229789">
  <ele>1583.0</ele>
  <time>2026-08-28T17:49:14Z</time>
  <course>0.0</course>
  <speed>0.0</speed>
  <fix>3d</fix>
</trkpt>
<trkpt lat="40.071375" lon="-105.2297889">
  <ele>1582.99</ele>
  <time>2026-08-28T17:49:14Z</time>
  <course>247.09</course>
  <speed>0.022360679774997897</speed>
  <fix>3d</fix>
</trkpt>
<trkpt lat="40.0713749" lon="-105.229789">
  <ele>1583.0</ele>
  <time>2026-08-28T17:49:14Z</time>
  <course>0.0</course>
  <speed>0.0</speed>
  <fix>3d</fix>
</trkpt>
<trkpt lat="40.071375" lon="-105.2297889">
  <ele>1582.98</ele>
  <time>2026-08-28T17:49:14Z</time>
  <course>247.09</course>
  <speed>0.022360679774997897</speed>
  <fix>3d</fix>
</trkpt>
<trkpt lat="40.0713749" lon="-105.229789">
  <ele>1583.0</ele>
  <time>2026-08-28T17:49:14Z</time>
  <course>0.0</course>
  <speed>0.0</speed>
  <fix>3d</fix>
</trkpt>
<trkpt lat="40.071375" lon="-105.2297889">
  <ele>1582.98</ele>
  <time>2026-08-28T17:49:14Z</time>
  <course>247.09</course>
  <speed>0.022360679774997897</speed>
  <fix>3d</fix>
</trkpt>
<trkpt lat="40.0713749" lon="-105.229789">
  <ele>1583.0</ele>
  <time>2026-08-28T17:49:14Z</time>
  <course>0.0</course>
  <speed>0.0</speed>
  <fix>3d</fix>
</trkpt>
<trkpt lat="40.071375" lon="-105.2297889">
  <ele>1582.98</ele>
  <time>2026-08-28T17:49:14Z</time>
  <course>247.09</course>
  <speed>0.022360679774997897</speed>
  <fix>3d</fix>
</trkpt>
<trkpt lat="40.0713749" lon="-105.229789">
  <ele>1583.0</ele>
  <time>2026-08-28T17:49:14Z</time>
  <course>0.0</course>
  <speed>0.0</speed>
  <fix>3d</fix>
</trkpt>
<trkpt lat="40.071375" lon="-105.2297889">
  <ele>1582.98</ele>
  <time>2026-08-28T17:49:14Z</time>
  <course>247.09</course>
  <speed>0.022360679774997897</speed>
  <fix>3d</fix>
</trkpt>
<trkpt lat="40.0713749" lon="-105.229789">
  <ele>1583.0</ele>
  <time>2026-08-28T17:49:14Z</time>
  <course>0.0</course>
  <speed>0.0</speed>
  <fix>3d</fix>
</trkpt>
<trkpt lat="40.071375" lon="-105.2297889">
  <ele>1582.98</ele>
  <time>2026-08-28T17:49:14Z</time>
  <course>247.09</course>
  <speed>0.022360679774997897</speed>
  <fix>3d</fix>
</trkpt>
<trkpt lat="40.0713749" lon="-105.229789">
  <ele>1583.0</ele>
  <time>2026-08-28T17:49:14Z</time>
  <course>0.0</course>
  <speed>0.0</speed>
  <fix>3d</fix>
</trkpt>
<trkpt lat="40.071375" lon="-105.2297889">
  <ele>1582.99</ele>
  <time>2026-08-28T17:49:14Z</time>
  <course>247.09</course>
  <speed>0.022360679774997897</speed>
  <fix>3d</fix>
</trkpt>
<trkpt lat="40.0713749" lon="-105.229789">
  <ele>1583.0</ele>
  <time>2026-08-28T17:49:14Z</time>
  <course>0.0</course>
  <speed>0.0</speed>
  <fix>3d</fix>
</trkpt>
<trkpt lat="40.0713751" lon="-105.2297889">
  <ele>1582.98</ele>
  <time>2026-08-28T17:49:14Z</time>
  <course>247.09</course>
  <speed>0.022360679774997897</speed>
  <fix>3d</fix>
</trkpt>
<trkpt lat="40.0713749" lon="-105.229789">
  <ele>1583.0</ele>
  <time>2026-08-28T17:49:14Z</time>
  <course>0.0</course>
  <speed>0.0</speed>
  <fix>3d</fix>
</trkpt>
<trkpt lat="40.071375" lon="-105.2297889">
  <ele>1582.98</ele>
  <time>2026-08-28T17:49:14Z</time>
  <course>247.09</course>
  <speed>0.022360679774997897</speed>
  <fix>3d</fix>
</trkpt>
<trkpt lat="40.0713749" lon="-105.229789">
  <ele>1583.0</ele>
  <time>2026-08-28T17:49:14Z</time>
  <course>0.0</course>
  <speed>0.0</speed>
  <fix>3d</fix>
</trkpt>
<trkpt lat="40.0713751" lon="-105.2297889">
  <ele>1582.98</ele>
  <time>2026-08-28T17:49:14Z</time>
  <course>247.09</course>
  <speed>0.022360679774997897</speed>
  <fix>3d</fix>
</trkpt>
<trkpt lat="40.0713749" lon="-105.229789">
  <ele>1583.0</ele>
  <time>2026-08-28T17:49:14Z</time>
  <course>0.0</course>
  <speed>0.0</speed>
  <fix>3d</fix>
</trkpt>
<trkpt lat="40.071375" lon="-105.2297889">
  <ele>1582.98</ele>
  <time>2026-08-28T17:49:14Z</time>
  <course>247.09</course>
  <speed>0.022360679774997897</speed>
  <fix>3d</fix>
</trkpt>
<trkpt lat="40.0713749" lon="-105.229789">
  <ele>1583.0</ele>
  <time>2026-08-28T17:49:14Z</time>
  <course>0.0</course>
  <speed>0.0</speed>
  <fix>3d</fix>
</trkpt>
<trkpt lat="40.0713751" lon="-105.2297889">
  <ele>1582.97</ele>
  <time>2026-08-28T17:49:15Z</time>
  <course>247.09</course>
  <speed>0.022360679774997897</speed>
  <fix>3d</fix>
</trkpt>
<trkpt lat="40.0713749" lon="-105.229789">
  <ele>1583.0</ele>
  <time>2026-08-28T17:49:15Z</time>
  <course>0.0</course>
  <speed>0.0</speed>
  <fix>3d</fix>
</trkpt>
<trkpt lat="40.071375" lon="-105.2297889">
  <ele>1582.97</ele>
  <time>2026-08-28T17:49:15Z</time>
  <course>247.09</course>
  <speed>0.022360679774997897</speed>
  <fix>3d</fix>
</trkpt>
<trkpt lat="40.0713749" lon="-105.229789">
  <ele>1583.0</ele>
  <time>2026-08-28T17:49:15Z</time>
  <course>0.0</course>
  <speed>0.0</speed>
  <fix>3d</fix>
</trkpt>
<trkpt lat="40.0713751" lon="-105.2297889">
  <ele>1582.97</ele>
  <time>2026-08-28T17:49:15Z</time>
  <course>247.09</course>
  <speed>0.022360679774997897</speed>
  <fix>3d</fix>
</trkpt>
<trkpt lat="40.0713749" lon="-105.229789">
  <ele>1583.0</ele>
  <time>2026-08-28T17:49:15Z</time>
  <course>0.0</course>
  <speed>0.0</speed>
  <fix>3d</fix>
</trkpt>
<trkpt lat="40.071375" lon="-105.2297889">
  <ele>1582.97</ele>
  <time>2026-08-28T17:49:15Z</time>
  <course>247.09</course>
  <speed>0.022360679774997897</speed>
  <fix>3d</fix>
</trkpt>
<trkpt lat="40.0713749" lon="-105.229789">
  <ele>1583.0</ele>
  <time>2026-08-28T17:49:15Z</time>
  <course>0.0</course>
  <speed>0.0</speed>
  <fix>3d</fix>
</trkpt>
<trkpt lat="40.071375" lon="-105.2297889">
  <ele>1582.97</ele>
  <time>2026-08-28T17:49:15Z</time>
  <course>247.09</course>
  <speed>0.022360679774997897</speed>
  <fix>3d</fix>
</trkpt>
<trkpt lat="40.0713749" lon="-105.229789">
  <ele>1583.0</ele>
  <time>2026-08-28T17:49:15Z</time>
  <course>0.0</course>
  <speed>0.0</speed>
  <fix>3d</fix>
</trkpt>
<trkpt lat="40.071375" lon="-105.2297889">
  <ele>1582.97</ele>
  <time>2026-08-28T17:49:15Z</time>
  <course>247.09</course>
  <speed>0.022360679774997897</speed>
  <fix>3d</fix>
</trkpt>
<trkpt lat="40.0713749" lon="-105.229789">
  <ele>1583.0</ele>
  <time>2026-08-28T17:49:15Z</time>
  <course>0.0</course>
  <speed>0.0</speed>
  <fix>3d</fix>
</trkpt>
<trkpt lat="40.071375" lon="-105.2297889">
  <ele>1582.97</ele>
  <time>2026-08-28T17:49:15Z</time>
  <course>247.09</course>
  <speed>0.022360679774997897</speed>
  <fix>3d</fix>
</trkpt>
<trkpt lat="40.0713749" lon="-105.229789">
  <ele>1583.0</ele>
  <time>2026-08-28T17:49:15Z</time>
  <course>0.0</course>
  <speed>0.0</speed>
  <fix>3d</fix>
</trkpt>
<trkpt lat="40.071375" lon="-105.2297889">
  <ele>1582.98</ele>
  <time>2026-08-28T17:49:15Z</time>
  <course>247.09</course>
  <speed>0.022360679774997897</speed>
  <fix>3d</fix>
</trkpt>
<trkpt lat="40.0713749" lon="-105.229789">
  <ele>1583.0</ele>
  <time>2026-08-28T17:49:15Z</time>
  <course>0.0</course>
  <speed>0.0</speed>
  <fix>3d</fix>
</trkpt>
<trkpt lat="40.071375" lon="-105.2297889">
  <ele>1582.98</ele>
  <time>2026-08-28T17:49:15Z</time>
  <course>247.09</course>
  <speed>0.022360679774997897</speed>
  <fix>3d</fix>
</trkpt>
<trkpt lat="40.0713749" lon="-105.229789">
  <ele>1583.0</ele>
  <time>2026-08-28T17:49:15Z</time>
  <course>0.0</course>
  <speed>0.0</speed>
  <fix>3d</fix>
</trkpt>
<trkpt lat="40.071375" lon="-105.2297889">
  <ele>1582.98</ele>
  <time>2026-08-28T17:49:15Z</time>
  <course>247.09</course>
  <speed>0.022360679774997897</speed>
  <fix>3d</fix>
</trkpt>
<trkpt lat="40.0713749" lon="-105.229789">
  <ele>1583.0</ele>
  <time>2026-08-28T17:49:15Z</time>
  <course>0.0</course>
  <speed>0.0</speed>
  <fix>3d</fix>
</trkpt>
<trkpt lat="40.071375" lon="-105.2297889">
  <ele>1582.98</ele>
  <time>2026-08-28T17:49:15Z</time>
  <course>247.09</course>
  <speed>0.022360679774997897</speed>
  <fix>3d</fix>
</trkpt>
<trkpt lat="40.0713749" lon="-105.229789">
  <ele>1583.0</ele>
  <time>2026-08-28T17:49:15Z</time>
  <course>0.0</course>
  <speed>0.0</speed>
  <fix>3d</fix>
</trkpt>
<trkpt lat="40.071375" lon="-105.2297889">
  <ele>1582.98</ele>
  <time>2026-08-28T17:49:15Z</time>
  <course>247.09</course>
  <speed>0.022360679774997897</speed>
  <fix>3d</fix>
</trkpt>
<trkpt lat="40.0713749" lon="-105.229789">
  <ele>1583.0</ele>
  <time>2026-08-28T17:49:15Z</time>
  <course>0.0</course>
  <speed>0.0</speed>
  <fix>3d</fix>
</trkpt>
<trkpt lat="40.071375" lon="-105.2297889">
  <ele>1582.97</ele>
  <time>2026-08-28T17:49:15Z</time>
  <course>247.09</course>
  <speed>0.022360679774997897</speed>
  <fix>3d</fix>
</trkpt>
<trkpt lat="40.0713749" lon="-105.229789">
  <ele>1583.0</ele>
  <time>2026-08-28T17:49:15Z</time>
  <course>0.0</course>
  <speed>0.0</speed>
  <fix>3d</fix>
</trkpt>
<trkpt lat="40.071375" lon="-105.2297889">
  <ele>1582.97</ele>
  <time>2026-08-28T17:49:15Z</time>
  <course>247.09</course>
  <speed>0.022360679774997897</speed>
  <fix>3d</fix>
</trkpt>
<trkpt lat="40.0713749" lon="-105.229789">
  <ele>1583.0</ele>
  <time>2026-08-28T17:49:15Z</time>
  <course>0.0</course>
  <speed>0.0</speed>
  <fix>3d</fix>
</trkpt>
<trkpt lat="40.071375" lon="-105.2297889">
  <ele>1582.97</ele>
  <time>2026-08-28T17:49:15Z</time>
  <course>247.09</course>
  <speed>0.022360679774997897</speed>
  <fix>3d</fix>
</trkpt>
<trkpt lat="40.0713749" lon="-105.229789">
  <ele>1583.0</ele>
  <time>2026-08-28T17:49:15Z</time>
  <course>0.0</course>
  <speed>0.0</speed>
  <fix>3d</fix>
</trkpt>
<trkpt lat="40.071375" lon="-105.2297889">
  <ele>1582.97</ele>
  <time>2026-08-28T17:49:15Z</time>
  <course>247.09</course>
  <speed>0.022360679774997897</speed>
  <fix>3d</fix>
</trkpt>
<trkpt lat="40.0713749" lon="-105.229789">
  <ele>1583.0</ele>
  <time>2026-08-28T17:49:15Z</time>
  <course>0.0</course>
  <speed>0.0</speed>
  <fix>3d</fix>
</trkpt>
<trkpt lat="40.071375" lon="-105.2297889">
  <ele>1582.97</ele>
  <time>2026-08-28T17:49:15Z</time>
  <course>247.09</course>
  <speed>0.022360679774997897</speed>
  <fix>3d</fix>
</trkpt>
<trkpt lat="40.0713749" lon="-105.229789">
  <ele>1583.0</ele>
  <time>2026-08-28T17:49:15Z</time>
  <course>0.0</course>
  <speed>0.0</speed>
  <fix>3d</fix>
</trkpt>
<trkpt lat="40.071375" lon="-105.2297889">
  <ele>1582.97</ele>
  <time>2026-08-28T17:49:15Z</time>
  <course>247.09</course>
  <speed>0.022360679774997897</speed>
  <fix>3d</fix>
</trkpt>
<trkpt lat="40.0713749" lon="-105.229789">
  <ele>1583.0</ele>
  <time>2026-08-28T17:49:15Z</time>
  <course>0.0</course>
  <speed>0.0</speed>
  <fix>3d</fix>
</trkpt>
<trkpt lat="40.0713751" lon="-105.2297889">
  <ele>1582.97</ele>
  <time>2026-08-28T17:49:15Z</time>
  <course>247.09</course>
  <speed>0.022360679774997897</speed>
  <fix>3d</fix>
</trkpt>
<trkpt lat="40.0713749" lon="-105.229789">
  <ele>1583.0</ele>
  <time>2026-08-28T17:49:15Z</time>
  <course>0.0</course>
  <speed>0.0</speed>
  <fix>3d</fix>
</trkpt>
<trkpt lat="40.071375" lon="-105.2297889">
  <ele>1582.96</ele>
  <time>2026-08-28T17:49:15Z</time>
  <course>247.09</course>
  <speed>0.022360679774997897</speed>
  <fix>3d</fix>
</trkpt>
<trkpt lat="40.0713749" lon="-105.229789">
  <ele>1583.0</ele>
  <time>2026-08-28T17:49:15Z</time>
  <course>0.0</course>
  <speed>0.0</speed>
  <fix>3d</fix>
</trkpt>
<trkpt lat="40.0713751" lon="-105.2297889">
  <ele>1582.96</ele>
  <time>2026-08-28T17:49:15Z</time>
  <course>247.09</course>
  <speed>0.022360679774997897</speed>
  <fix>3d</fix>
</trkpt>
<trkpt lat="40.0713749" lon="-105.229789">
  <ele>1583.0</ele>
  <time>2026-08-28T17:49:15Z</time>
  <course>0.0</course>
  <speed>0.0</speed>
  <fix>3d</fix>
</trkpt>
<trkpt lat="40.071375" lon="-105.2297889">
  <ele>1582.96</ele>
  <time>2026-08-28T17:49:15Z</time>
  <course>247.09</course>
  <speed>0.022360679774997897</speed>
  <fix>3d</fix>
</trkpt>
<trkpt lat="40.0713749" lon="-105.229789">
  <ele>1583.0</ele>
  <time>2026-08-28T17:49:15Z</time>
  <course>0.0</course>
  <speed>0.0</speed>
  <fix>3d</fix>
</trkpt>
<trkpt lat="40.0713751" lon="-105.2297889">
  <ele>1582.95</ele>
  <time>2026-08-28T17:49:15Z</time>
  <course>247.09</course>
  <speed>0.022360679774997897</speed>
  <fix>3d</fix>
</trkpt>
<trkpt lat="40.0713749" lon="-105.229789">
  <ele>1583.0</ele>
  <time>2026-08-28T17:49:15Z</time>
  <course>0.0</course>
  <speed>0.0</speed>
  <fix>3d</fix>
</trkpt>
<trkpt lat="40.071375" lon="-105.2297889">
  <ele>1582.95</ele>
  <time>2026-08-28T17:49:15Z</time>
  <course>247.09</course>
  <speed>0.022360679774997897</speed>
  <fix>3d</fix>
</trkpt>
<trkpt lat="40.0713749" lon="-105.229789">
  <ele>1583.0</ele>
  <time>2026-08-28T17:49:15Z</time>
  <course>0.0</course>
  <speed>0.0</speed>
  <fix>3d</fix>
</trkpt>
<trkpt lat="40.071375" lon="-105.2297889">
  <ele>1582.94</ele>
  <time>2026-08-28T17:49:15Z</time>
  <course>247.09</course>
  <speed>0.022360679774997897</speed>
  <fix>3d</fix>
</trkpt>
<trkpt lat="40.0713749" lon="-105.229789">
  <ele>1583.0</ele>
  <time>2026-08-28T17:49:15Z</time>
  <course>0.0</course>
  <speed>0.0</speed>
  <fix>3d</fix>
</trkpt>
<trkpt lat="40.071375" lon="-105.2297889">
  <ele>1582.94</ele>
  <time>2026-08-28T17:49:15Z</time>
  <course>247.09</course>
  <speed>0.022360679774997897</speed>
  <fix>3d</fix>
</trkpt>
<trkpt lat="40.0713749" lon="-105.229789">
  <ele>1583.0</ele>
  <time>2026-08-28T17:49:15Z</time>
  <course>0.0</course>
  <speed>0.0</speed>
  <fix>3d</fix>
</trkpt>
<trkpt lat="40.071375" lon="-105.2297889">
  <ele>1582.93</ele>
  <time>2026-08-28T17:49:15Z</time>
  <course>247.09</course>
  <speed>0.022360679774997897</speed>
  <fix>3d</fix>
</trkpt>
<trkpt lat="40.0713749" lon="-105.229789">
  <ele>1583.0</ele>
  <time>2026-08-28T17:49:15Z</time>
  <course>0.0</course>
  <speed>0.0</speed>
  <fix>3d</fix>
</trkpt>
<trkpt lat="40.071375" lon="-105.2297889">
  <ele>1582.93</ele>
  <time>2026-08-28T17:49:15Z</time>
  <course>247.09</course>
  <speed>0.022360679774997897</speed>
  <fix>3d</fix>
</trkpt>
<trkpt lat="40.0713749" lon="-105.229789">
  <ele>1583.0</ele>
  <time>2026-08-28T17:49:15Z</time>
  <course>0.0</course>
  <speed>0.0</speed>
  <fix>3d</fix>
</trkpt>
<trkpt lat="40.071375" lon="-105.2297889">
  <ele>1582.93</ele>
  <time>2026-08-28T17:49:15Z</time>
  <course>247.09</course>
  <speed>0.022360679774997897</speed>
  <fix>3d</fix>
</trkpt>
<trkpt lat="40.0713749" lon="-105.229789">
  <ele>1583.0</ele>
  <time>2026-08-28T17:49:15Z</time>
  <course>0.0</course>
  <speed>0.0</speed>
  <fix>3d</fix>
</trkpt>
<trkpt lat="40.071375" lon="-105.2297889">
  <ele>1582.92</ele>
  <time>2026-08-28T17:49:15Z</time>
  <course>247.09</course>
  <speed>0.022360679774997897</speed>
  <fix>3d</fix>
</trkpt>
<trkpt lat="40.0713749" lon="-105.229789">
  <ele>1583.0</ele>
  <time>2026-08-28T17:49:15Z</time>
  <course>0.0</course>
  <speed>0.0</speed>
  <fix>3d</fix>
</trkpt>
<trkpt lat="40.071375" lon="-105.2297889">
  <ele>1582.93</ele>
  <time>2026-08-28T17:49:15Z</time>
  <course>247.09</course>
  <speed>0.022360679774997897</speed>
  <fix>3d</fix>
</trkpt>
<trkpt lat="40.0713749" lon="-105.229789">
  <ele>1583.0</ele>
  <time>2026-08-28T17:49:15Z</time>
  <course>0.0</course>
  <speed>0.0</speed>
  <fix>3d</fix>
</trkpt>
<trkpt lat="40.071375" lon="-105.2297889">
  <ele>1582.93</ele>
  <time>2026-08-28T17:49:15Z</time>
  <course>247.09</course>
  <speed>0.022360679774997897</speed>
  <fix>3d</fix>
</trkpt>
<trkpt lat="40.0713749" lon="-105.229789">
  <ele>1583.0</ele>
  <time>2026-08-28T17:49:15Z</time>
  <course>0.0</course>
  <speed>0.0</speed>
  <fix>3d</fix>
</trkpt>
<trkpt lat="40.0713751" lon="-105.2297889">
  <ele>1582.93</ele>
  <time>2026-08-28T17:49:15Z</time>
  <course>247.09</course>
  <speed>0.022360679774997897</speed>
  <fix>3d</fix>
</trkpt>
<trkpt lat="40.0713749" lon="-105.229789">
  <ele>1583.0</ele>
  <time>2026-08-28T17:49:15Z</time>
  <course>0.0</course>
  <speed>0.0</speed>
  <fix>3d</fix>
</trkpt>
<trkpt lat="40.071375" lon="-105.2297889">
  <ele>1582.94</ele>
  <time>2026-08-28T17:49:15Z</time>
  <course>247.09</course>
  <speed>0.022360679774997897</speed>
  <fix>3d</fix>
</trkpt>
<trkpt lat="40.0713749" lon="-105.229789">
  <ele>1583.0</ele>
  <time>2026-08-28T17:49:15Z</time>
  <course>0.0</course>
  <speed>0.0</speed>
  <fix>3d</fix>
</trkpt>
<trkpt lat="40.0713751" lon="-105.2297889">
  <ele>1582.95</ele>
  <time>2026-08-28T17:49:15Z</time>
  <course>247.09</course>
  <speed>0.022360679774997897</speed>
  <fix>3d</fix>
</trkpt>
<trkpt lat="40.0713749" lon="-105.229789">
  <ele>1583.0</ele>
  <time>2026-08-28T17:49:15Z</time>
  <course>0.0</course>
  <speed>0.0</speed>
  <fix>3d</fix>
</trkpt>
<trkpt lat="40.071375" lon="-105.2297889">
  <ele>1582.95</ele>
  <time>2026-08-28T17:49:15Z</time>
  <course>247.09</course>
  <speed>0.022360679774997897</speed>
  <fix>3d</fix>
</trkpt>
<trkpt lat="40.0713749" lon="-105.229789">
  <ele>1583.0</ele>
  <time>2026-08-28T17:49:15Z</time>
  <course>0.0</course>
  <speed>0.0</speed>
  <fix>3d</fix>
</trkpt>
<trkpt lat="40.0713751" lon="-105.2297889">
  <ele>1582.96</ele>
  <time>2026-08-28T17:49:15Z</time>
  <course>247.09</course>
  <speed>0.022360679774997897</speed>
  <fix>3d</fix>
</trkpt>
<trkpt lat="40.0713749" lon="-105.229789">
  <ele>1583.0</ele>
  <time>2026-08-28T17:49:15Z</time>
  <course>0.0</course>
  <speed>0.0</speed>
  <fix>3d</fix>
</trkpt>
<trkpt lat="40.071375" lon="-105.2297889">
  <ele>1582.97</ele>
  <time>2026-08-28T17:49:15Z</time>
  <course>247.09</course>
  <speed>0.022360679774997897</speed>
  <fix>3d</fix>
</trkpt>
<trkpt lat="40.0713749" lon="-105.229789">
  <ele>1583.0</ele>
  <time>2026-08-28T17:49:15Z</time>
  <course>0.0</course>
  <speed>0.0</speed>
  <fix>3d</fix>
</trkpt>
<trkpt lat="40.0713751" lon="-105.2297889">
  <ele>1582.97</ele>
  <time>2026-08-28T17:49:15Z</time>
  <course>247.09</course>
  <speed>0.022360679774997897</speed>
  <fix>3d</fix>
</trkpt>
<trkpt lat="40.0713749" lon="-105.229789">
  <ele>1583.0</ele>
  <time>2026-08-28T17:49:15Z</time>
  <course>0.0</course>
  <speed>0.0</speed>
  <fix>3d</fix>
</trkpt>
<trkpt lat="40.0713751" lon="-105.2297889">
  <ele>1582.97</ele>
  <time>2026-08-28T17:49:15Z</time>
  <course>247.09</course>
  <speed>0.022360679774997897</speed>
  <fix>3d</fix>
</trkpt>
<trkpt lat="40.0713749" lon="-105.229789">
  <ele>1583.0</ele>
  <time>2026-08-28T17:49:15Z</time>
  <course>0.0</course>
  <speed>0.0</speed>
  <fix>3d</fix>
</trkpt>
<trkpt lat="40.0713751" lon="-105.2297889">
  <ele>1582.98</ele>
  <time>2026-08-28T17:49:15Z</time>
  <course>247.09</course>
  <speed>0.022360679774997897</speed>
  <fix>3d</fix>
</trkpt>
<trkpt lat="40.0713749" lon="-105.229789">
  <ele>1583.0</ele>
  <time>2026-08-28T17:49:15Z</time>
  <course>0.0</course>
  <speed>0.0</speed>
  <fix>3d</fix>
</trkpt>
<trkpt lat="40.0713751" lon="-105.2297889">
  <ele>1582.98</ele>
  <time>2026-08-28T17:49:15Z</time>
  <course>247.09</course>
  <speed>0.022360679774997897</speed>
  <fix>3d</fix>
</trkpt>
<trkpt lat="40.0713749" lon="-105.229789">
  <ele>1583.0</ele>
  <time>2026-08-28T17:49:15Z</time>
  <course>0.0</course>
  <speed>0.0</speed>
  <fix>3d</fix>
</trkpt>
<trkpt lat="40.0713751" lon="-105.2297889">
  <ele>1582.98</ele>
  <time>2026-08-28T17:49:15Z</time>
  <course>247.09</course>
  <speed>0.022360679774997897</speed>
  <fix>3d</fix>
</trkpt>
<trkpt lat="40.0713749" lon="-105.229789">
  <ele>1583.0</ele>
  <time>2026-08-28T17:49:15Z</time>
  <course>0.0</course>
  <speed>0.0</speed>
  <fix>3d</fix>
</trkpt>
<trkpt lat="40.0713751" lon="-105.2297889">
  <ele>1582.98</ele>
  <time>2026-08-28T17:49:15Z</time>
  <course>247.09</course>
  <speed>0.022360679774997897</speed>
  <fix>3d</fix>
</trkpt>
<trkpt lat="40.0713749" lon="-105.229789">
  <ele>1583.0</ele>
  <time>2026-08-28T17:49:15Z</time>
  <course>0.0</course>
  <speed>0.0</speed>
  <fix>3d</fix>
</trkpt>
<trkpt lat="40.0713751" lon="-105.2297889">
  <ele>1582.98</ele>
  <time>2026-08-28T17:49:15Z</time>
  <course>247.09</course>
  <speed>0.022360679774997897</speed>
  <fix>3d</fix>
</trkpt>
<trkpt lat="40.0713749" lon="-105.229789">
  <ele>1583.0</ele>
  <time>2026-08-28T17:49:15Z</time>
  <course>0.0</course>
  <speed>0.0</speed>
  <fix>3d</fix>
</trkpt>
<trkpt lat="40.071375" lon="-105.2297889">
  <ele>1582.98</ele>
  <time>2026-08-28T17:49:15Z</time>
  <course>247.09</course>
  <speed>0.022360679774997897</speed>
  <fix>3d</fix>
</trkpt>
<trkpt lat="40.0713749" lon="-105.229789">
  <ele>1583.0</ele>
  <time>2026-08-28T17:49:15Z</time>
  <course>0.0</course>
  <speed>0.0</speed>
  <fix>3d</fix>
</trkpt>
<trkpt lat="40.0713751" lon="-105.2297889">
  <ele>1582.98</ele>
  <time>2026-08-28T17:49:15Z</time>
  <course>247.09</course>
  <speed>0.022360679774997897</speed>
  <fix>3d</fix>
</trkpt>
<trkpt lat="40.0713749" lon="-105.229789">
  <ele>1583.0</ele>
  <time>2026-08-28T17:49:15Z</time>
  <course>0.0</course>
  <speed>0.0</speed>
  <fix>3d</fix>
</trkpt>
<trkpt lat="40.071375" lon="-105.2297889">
  <ele>1582.98</ele>
  <time>2026-08-28T17:49:15Z</time>
  <course>247.09</course>
  <speed>0.022360679774997897</speed>
  <fix>3d</fix>
</trkpt>
<trkpt lat="40.0713749" lon="-105.229789">
  <ele>1583.0</ele>
  <time>2026-08-28T17:49:15Z</time>
  <course>0.0</course>
  <speed>0.0</speed>
  <fix>3d</fix>
</trkpt>
<trkpt lat="40.0713751" lon="-105.2297889">
  <ele>1582.99</ele>
  <time>2026-08-28T17:49:15Z</time>
  <course>247.09</course>
  <speed>0.022360679774997897</speed>
  <fix>3d</fix>
</trkpt>
<trkpt lat="40.0713749" lon="-105.229789">
  <ele>1583.0</ele>
  <time>2026-08-28T17:49:15Z</time>
  <course>0.0</course>
  <speed>0.0</speed>
  <fix>3d</fix>
</trkpt>
<trkpt lat="40.071375" lon="-105.2297889">
  <ele>1582.99</ele>
  <time>2026-08-28T17:49:15Z</time>
  <course>247.09</course>
  <speed>0.022360679774997897</speed>
  <fix>3d</fix>
</trkpt>
<trkpt lat="40.0713749" lon="-105.229789">
  <ele>1583.0</ele>
  <time>2026-08-28T17:49:15Z</time>
  <course>0.0</course>
  <speed>0.0</speed>
  <fix>3d</fix>
</trkpt>
<trkpt lat="40.0713751" lon="-105.2297889">
  <ele>1582.99</ele>
  <time>2026-08-28T17:49:15Z</time>
  <course>247.09</course>
  <speed>0.022360679774997897</speed>
  <fix>3d</fix>
</trkpt>
<trkpt lat="40.0713749" lon="-105.229789">
  <ele>1583.0</ele>
  <time>2026-08-28T17:49:15Z</time>
  <course>0.0</course>
  <speed>0.0</speed>
  <fix>3d</fix>
</trkpt>
<trkpt lat="40.071375" lon="-105.2297889">
  <ele>1582.99</ele>
  <time>2026-08-28T17:49:15Z</time>
  <course>247.09</course>
  <speed>0.022360679774997897</speed>
  <fix>3d</fix>
</trkpt>
<trkpt lat="40.0713749" lon="-105.229789">
  <ele>1583.0</ele>
  <time>2026-08-28T17:49:15Z</time>
  <course>0.0</course>
  <speed>0.0</speed>
  <fix>3d</fix>
</trkpt>
<trkpt lat="40.0713751" lon="-105.2297889">
  <ele>1583.0</ele>
  <time>2026-08-28T17:49:15Z</time>
  <course>247.09</course>
  <speed>0.022360679774997897</speed>
  <fix>3d</fix>
</trkpt>
<trkpt lat="40.0713749" lon="-105.229789">
  <ele>1583.0</ele>
  <time>2026-08-28T17:49:15Z</time>
  <course>0.0</course>
  <speed>0.0</speed>
  <fix>3d</fix>
</trkpt>
<trkpt lat="40.071375" lon="-105.2297889">
  <ele>1583.0</ele>
  <time>2026-08-28T17:49:15Z</time>
  <course>247.09</course>
  <speed>0.022360679774997897</speed>
  <fix>3d</fix>
</trkpt>
<trkpt lat="40.0713749" lon="-105.229789">
  <ele>1583.0</ele>
  <time>2026-08-28T17:49:15Z</time>
  <course>0.0</course>
  <speed>0.0</speed>
  <fix>3d</fix>
</trkpt>
<trkpt lat="40.0713751" lon="-105.2297889">
  <ele>1583.0</ele>
  <time>2026-08-28T17:49:15Z</time>
  <course>247.09</course>
  <speed>0.022360679774997897</speed>
  <fix>3d</fix>
</trkpt>
<trkpt lat="40.0713749" lon="-105.229789">
  <ele>1583.0</ele>
  <time>2026-08-28T17:49:15Z</time>
  <course>0.0</course>
  <speed>0.0</speed>
  <fix>3d</fix>
</trkpt>
<trkpt lat="40.071375" lon="-105.2297889">
  <ele>1583.0</ele>
  <time>2026-08-28T17:49:15Z</time>
  <course>247.09</course>
  <speed>0.022360679774997897</speed>
  <fix>3d</fix>
</trkpt>
<trkpt lat="40.0713749" lon="-105.229789">
  <ele>1583.0</ele>
  <time>2026-08-28T17:49:15Z</time>
  <course>0.0</course>
  <speed>0.0</speed>
  <fix>3d</fix>
</trkpt>
<trkpt lat="40.0713751" lon="-105.2297889">
  <ele>1583.01</ele>
  <time>2026-08-28T17:49:15Z</time>
  <course>247.09</course>
  <speed>0.022360679774997897</speed>
  <fix>3d</fix>
</trkpt>
<trkpt lat="40.0713749" lon="-105.229789">
  <ele>1583.0</ele>
  <time>2026-08-28T17:49:15Z</time>
  <course>0.0</course>
  <speed>0.0</speed>
  <fix>3d</fix>
</trkpt>
<trkpt lat="40.071375" lon="-105.2297889">
  <ele>1583.01</ele>
  <time>2026-08-28T17:49:15Z</time>
  <course>247.09</course>
  <speed>0.022360679774997897</speed>
  <fix>3d</fix>
</trkpt>
<trkpt lat="40.0713749" lon="-105.229789">
  <ele>1583.0</ele>
  <time>2026-08-28T17:49:15Z</time>
  <course>0.0</course>
  <speed>0.0</speed>
  <fix>3d</fix>
</trkpt>
<trkpt lat="40.0713751" lon="-105.2297889">
  <ele>1583.01</ele>
  <time>2026-08-28T17:49:15Z</time>
  <course>247.09</course>
  <speed>0.022360679774997897</speed>
  <fix>3d</fix>
</trkpt>
<trkpt lat="40.0713749" lon="-105.229789">
  <ele>1583.0</ele>
  <time>2026-08-28T17:49:15Z</time>
  <course>0.0</course>
  <speed>0.0</speed>
  <fix>3d</fix>
</trkpt>
<trkpt lat="40.0713751" lon="-105.2297889">
  <ele>1583.02</ele>
  <time>2026-08-28T17:49:15Z</time>
  <course>247.09</course>
  <speed>0.022360679774997897</speed>
  <fix>3d</fix>
</trkpt>
<trkpt lat="40.0713749" lon="-105.229789">
  <ele>1583.0</ele>
  <time>2026-08-28T17:49:15Z</time>
  <course>0.0</course>
  <speed>0.0</speed>
  <fix>3d</fix>
</trkpt>
<trkpt lat="40.0713751" lon="-105.2297889">
  <ele>1583.02</ele>
  <time>2026-08-28T17:49:15Z</time>
  <course>247.09</course>
  <speed>0.022360679774997897</speed>
  <fix>3d</fix>
</trkpt>
<trkpt lat="40.0713749" lon="-105.229789">
  <ele>1583.0</ele>
  <time>2026-08-28T17:49:15Z</time>
  <course>0.0</course>
  <speed>0.0</speed>
  <fix>3d</fix>
</trkpt>
<trkpt lat="40.0713751" lon="-105.2297889">
  <ele>1583.03</ele>
  <time>2026-08-28T17:49:15Z</time>
  <course>247.09</course>
  <speed>0.022360679774997897</speed>
  <fix>3d</fix>
</trkpt>
<trkpt lat="40.0713749" lon="-105.229789">
  <ele>1583.0</ele>
  <time>2026-08-28T17:49:15Z</time>
  <course>0.0</course>
  <speed>0.0</speed>
  <fix>3d</fix>
</trkpt>
<trkpt lat="40.0713751" lon="-105.2297889">
  <ele>1583.04</ele>
  <time>2026-08-28T17:49:15Z</time>
  <course>247.09</course>
  <speed>0.022360679774997897</speed>
  <fix>3d</fix>
</trkpt>
<trkpt lat="40.0713749" lon="-105.229789">
  <ele>1583.0</ele>
  <time>2026-08-28T17:49:15Z</time>
  <course>0.0</course>
  <speed>0.0</speed>
  <fix>3d</fix>
</trkpt>
<trkpt lat="40.0713751" lon="-105.2297889">
  <ele>1583.04</ele>
  <time>2026-08-28T17:49:15Z</time>
  <course>247.09</course>
  <speed>0.022360679774997897</speed>
  <fix>3d</fix>
</trkpt>
<trkpt lat="40.0713749" lon="-105.229789">
  <ele>1583.0</ele>
  <time>2026-08-28T17:49:15Z</time>
  <course>0.0</course>
  <speed>0.0</speed>
  <fix>3d</fix>
</trkpt>
<trkpt lat="40.0713751" lon="-105.2297889">
  <ele>1583.04</ele>
  <time>2026-08-28T17:49:15Z</time>
  <course>247.09</course>
  <speed>0.022360679774997897</speed>
  <fix>3d</fix>
</trkpt>
<trkpt lat="40.0713749" lon="-105.229789">
  <ele>1583.0</ele>
  <time>2026-08-28T17:49:15Z</time>
  <course>0.0</course>
  <speed>0.0</speed>
  <fix>3d</fix>
</trkpt>
<trkpt lat="40.071375" lon="-105.2297889">
  <ele>1583.04</ele>
  <time>2026-08-28T17:49:15Z</time>
  <course>247.09</course>
  <speed>0.022360679774997897</speed>
  <fix>3d</fix>
</trkpt>
<trkpt lat="40.0713749" lon="-105.229789">
  <ele>1583.0</ele>
  <time>2026-08-28T17:49:15Z</time>
  <course>0.0</course>
  <speed>0.0</speed>
  <fix>3d</fix>
</trkpt>
<trkpt lat="40.0713751" lon="-105.2297889">
  <ele>1583.04</ele>
  <time>2026-08-28T17:49:15Z</time>
  <course>247.09</course>
  <speed>0.022360679774997897</speed>
  <fix>3d</fix>
</trkpt>
<trkpt lat="40.0713749" lon="-105.229789">
  <ele>1583.0</ele>
  <time>2026-08-28T17:49:15Z</time>
  <course>0.0</course>
  <speed>0.0</speed>
  <fix>3d</fix>
</trkpt>
<trkpt lat="40.071375" lon="-105.2297889">
  <ele>1583.04</ele>
  <time>2026-08-28T17:49:15Z</time>
  <course>247.09</course>
  <speed>0.022360679774997897</speed>
  <fix>3d</fix>
</trkpt>
<trkpt lat="40.0713749" lon="-105.229789">
  <ele>1583.0</ele>
  <time>2026-08-28T17:49:15Z</time>
  <course>0.0</course>
  <speed>0.0</speed>
  <fix>3d</fix>
</trkpt>
<trkpt lat="40.0713751" lon="-105.2297889">
  <ele>1583.04</ele>
  <time>2026-08-28T17:49:15Z</time>
  <course>247.09</course>
  <speed>0.022360679774997897</speed>
  <fix>3d</fix>
</trkpt>
<trkpt lat="40.0713749" lon="-105.229789">
  <ele>1583.0</ele>
  <time>2026-08-28T17:49:15Z</time>
  <course>0.0</course>
  <speed>0.0</speed>
  <fix>3d</fix>
</trkpt>
<trkpt lat="40.071375" lon="-105.2297889">
  <ele>1583.04</ele>
  <time>2026-08-28T17:49:15Z</time>
  <course>247.09</course>
  <speed>0.022360679774997897</speed>
  <fix>3d</fix>
</trkpt>
<trkpt lat="40.0713749" lon="-105.229789">
  <ele>1583.0</ele>
  <time>2026-08-28T17:49:15Z</time>
  <course>0.0</course>
  <speed>0.0</speed>
  <fix>3d</fix>
</trkpt>
<trkpt lat="40.0713751" lon="-105.2297889">
  <ele>1583.04</ele>
  <time>2026-08-28T17:49:15Z</time>
  <course>247.09</course>
  <speed>0.022360679774997897</speed>
  <fix>3d</fix>
</trkpt>
<trkpt lat="40.0713749" lon="-105.229789">
  <ele>1583.0</ele>
  <time>2026-08-28T17:49:15Z</time>
  <course>0.0</course>
  <speed>0.0</speed>
  <fix>3d</fix>
</trkpt>
<trkpt lat="40.071375" lon="-105.2297889">
  <ele>1583.05</ele>
  <time>2026-08-28T17:49:15Z</time>
  <course>247.09</course>
  <speed>0.022360679774997897</speed>
  <fix>3d</fix>
</trkpt>
<trkpt lat="40.0713749" lon="-105.229789">
  <ele>1583.0</ele>
  <time>2026-08-28T17:49:15Z</time>
  <course>0.0</course>
  <speed>0.0</speed>
  <fix>3d</fix>
</trkpt>
<trkpt lat="40.0713751" lon="-105.2297889">
  <ele>1583.05</ele>
  <time>2026-08-28T17:49:15Z</time>
  <course>247.09</course>
  <speed>0.022360679774997897</speed>
  <fix>3d</fix>
</trkpt>
<trkpt lat="40.0713749" lon="-105.229789">
  <ele>1583.0</ele>
  <time>2026-08-28T17:49:15Z</time>
  <course>0.0</course>
  <speed>0.0</speed>
  <fix>3d</fix>
</trkpt>
<trkpt lat="40.071375" lon="-105.2297889">
  <ele>1583.05</ele>
  <time>2026-08-28T17:49:15Z</time>
  <course>247.09</course>
  <speed>0.022360679774997897</speed>
  <fix>3d</fix>
</trkpt>
<trkpt lat="40.0713749" lon="-105.229789">
  <ele>1583.0</ele>
  <time>2026-08-28T17:49:15Z</time>
  <course>0.0</course>
  <speed>0.0</speed>
  <fix>3d</fix>
</trkpt>
<trkpt lat="40.0713751" lon="-105.2297889">
  <ele>1583.05</ele>
  <time>2026-08-28T17:49:15Z</time>
  <course>247.09</course>
  <speed>0.022360679774997897</speed>
  <fix>3d</fix>
</trkpt>
<trkpt lat="40.0713749" lon="-105.229789">
  <ele>1583.0</ele>
  <time>2026-08-28T17:49:15Z</time>
  <course>0.0</course>
  <speed>0.0</speed>
  <fix>3d</fix>
</trkpt>
<trkpt lat="40.071375" lon="-105.2297889">
  <ele>1583.05</ele>
  <time>2026-08-28T17:49:15Z</time>
  <course>247.09</course>
  <speed>0.022360679774997897</speed>
  <fix>3d</fix>
</trkpt>
<trkpt lat="40.0713749" lon="-105.229789">
  <ele>1583.0</ele>
  <time>2026-08-28T17:49:15Z</time>
  <course>0.0</course>
  <speed>0.0</speed>
  <fix>3d</fix>
</trkpt>
<trkpt lat="40.0713751" lon="-105.2297889">
  <ele>1583.05</ele>
  <time>2026-08-28T17:49:15Z</time>
  <course>247.09</course>
  <speed>0.022360679774997897</speed>
  <fix>3d</fix>
</trkpt>
<trkpt lat="40.0713749" lon="-105.229789">
  <ele>1583.0</ele>
  <time>2026-08-28T17:49:15Z</time>
  <course>0.0</course>
  <speed>0.0</speed>
  <fix>3d</fix>
</trkpt>
<trkpt lat="40.071375" lon="-105.2297889">
  <ele>1583.06</ele>
  <time>2026-08-28T17:49:15Z</time>
  <course>247.09</course>
  <speed>0.022360679774997897</speed>
  <fix>3d</fix>
</trkpt>
<trkpt lat="40.0713749" lon="-105.229789">
  <ele>1583.0</ele>
  <time>2026-08-28T17:49:15Z</time>
  <course>0.0</course>
  <speed>0.0</speed>
  <fix>3d</fix>
</trkpt>
<trkpt lat="40.0713751" lon="-105.2297889">
  <ele>1583.06</ele>
  <time>2026-08-28T17:49:15Z</time>
  <course>247.09</course>
  <speed>0.022360679774997897</speed>
  <fix>3d</fix>
</trkpt>
<trkpt lat="40.0713749" lon="-105.229789">
  <ele>1583.0</ele>
  <time>2026-08-28T17:49:15Z</time>
  <course>0.0</course>
  <speed>0.0</speed>
  <fix>3d</fix>
</trkpt>
<trkpt lat="40.0713751" lon="-105.2297889">
  <ele>1583.06</ele>
  <time>2026-08-28T17:49:15Z</time>
  <course>247.09</course>
  <speed>0.022360679774997897</speed>
  <fix>3d</fix>
</trkpt>
<trkpt lat="40.0713749" lon="-105.229789">
  <ele>1583.0</ele>
  <time>2026-08-28T17:49:15Z</time>
  <course>0.0</course>
  <speed>0.0</speed>
  <fix>3d</fix>
</trkpt>
<trkpt lat="40.0713751" lon="-105.2297889">
  <ele>1583.06</ele>
  <time>2026-08-28T17:49:15Z</time>
  <course>247.09</course>
  <speed>0.022360679774997897</speed>
  <fix>3d</fix>
</trkpt>
<trkpt lat="40.0713749" lon="-105.229789">
  <ele>1583.0</ele>
  <time>2026-08-28T17:49:15Z</time>
  <course>0.0</course>
  <speed>0.0</speed>
  <fix>3d</fix>
</trkpt>
<trkpt lat="40.0713751" lon="-105.2297889">
  <ele>1583.07</ele>
  <time>2026-08-28T17:49:15Z</time>
  <course>247.08</course>
  <speed>0.022360679774997897</speed>
  <fix>3d</fix>
</trkpt>
<trkpt lat="40.0713749" lon="-105.229789">
  <ele>1583.0</ele>
  <time>2026-08-28T17:49:15Z</time>
  <course>0.0</course>
  <speed>0.0</speed>
  <fix>3d</fix>
</trkpt>
<trkpt lat="40.0713751" lon="-105.2297889">
  <ele>1583.07</ele>
  <time>2026-08-28T17:49:15Z</time>
  <course>247.09</course>
  <speed>0.022360679774997897</speed>
  <fix>3d</fix>
</trkpt>
<trkpt lat="40.0713749" lon="-105.229789">
  <ele>1583.0</ele>
  <time>2026-08-28T17:49:15Z</time>
  <course>0.0</course>
  <speed>0.0</speed>
  <fix>3d</fix>
</trkpt>
<trkpt lat="40.0713751" lon="-105.2297889">
  <ele>1583.07</ele>
  <time>2026-08-28T17:49:15Z</time>
  <course>247.09</course>
  <speed>0.022360679774997897</speed>
  <fix>3d</fix>
</trkpt>
<trkpt lat="40.0713749" lon="-105.229789">
  <ele>1583.0</ele>
  <time>2026-08-28T17:49:15Z</time>
  <course>0.0</course>
  <speed>0.0</speed>
  <fix>3d</fix>
</trkpt>
<trkpt lat="40.0713751" lon="-105.2297889">
  <ele>1583.08</ele>
  <time>2026-08-28T17:49:15Z</time>
  <course>247.09</course>
  <speed>0.022360679774997897</speed>
  <fix>3d</fix>
</trkpt>
<trkpt lat="40.0713749" lon="-105.229789">
  <ele>1583.0</ele>
  <time>2026-08-28T17:49:15Z</time>
  <course>0.0</course>
  <speed>0.0</speed>
  <fix>3d</fix>
</trkpt>
<trkpt lat="40.0713751" lon="-105.2297889">
  <ele>1583.08</ele>
  <time>2026-08-28T17:49:15Z</time>
  <course>247.09</course>
  <speed>0.02</speed>
  <fix>3d</fix>
</trkpt>
<trkpt lat="40.0713749" lon="-105.229789">
  <ele>1583.0</ele>
  <time>2026-08-28T17:49:15Z</time>
  <course>0.0</course>
  <speed>0.0</speed>
  <fix>3d</fix>
</trkpt>
<trkpt lat="40.0713751" lon="-105.2297889">
  <ele>1583.09</ele>
  <time>2026-08-28T17:49:15Z</time>
  <course>247.09</course>
  <speed>0.022360679774997897</speed>
  <fix>3d</fix>
</trkpt>
<trkpt lat="40.0713749" lon="-105.229789">
  <ele>1583.0</ele>
  <time>2026-08-28T17:49:15Z</time>
  <course>0.0</course>
  <speed>0.0</speed>
  <fix>3d</fix>
</trkpt>
<trkpt lat="40.071375" lon="-105.2297889">
  <ele>1583.09</ele>
  <time>2026-08-28T17:49:15Z</time>
  <course>247.09</course>
  <speed>0.02</speed>
  <fix>3d</fix>
</trkpt>
<trkpt lat="40.0713749" lon="-105.229789">
  <ele>1583.0</ele>
  <time>2026-08-28T17:49:15Z</time>
  <course>0.0</course>
  <speed>0.0</speed>
  <fix>3d</fix>
</trkpt>
<trkpt lat="40.0713751" lon="-105.2297889">
  <ele>1583.09</ele>
  <time>2026-08-28T17:49:15Z</time>
  <course>247.09</course>
  <speed>0.022360679774997897</speed>
  <fix>3d</fix>
</trkpt>
<trkpt lat="40.0713749" lon="-105.229789">
  <ele>1583.0</ele>
  <time>2026-08-28T17:49:15Z</time>
  <course>0.0</course>
  <speed>0.0</speed>
  <fix>3d</fix>
</trkpt>
<trkpt lat="40.071375" lon="-105.2297889">
  <ele>1583.09</ele>
  <time>2026-08-28T17:49:15Z</time>
  <course>247.09</course>
  <speed>0.022360679774997897</speed>
  <fix>3d</fix>
</trkpt>
<trkpt lat="40.0713749" lon="-105.229789">
  <ele>1583.0</ele>
  <time>2026-08-28T17:49:15Z</time>
  <course>0.0</course>
  <speed>0.0</speed>
  <fix>3d</fix>
</trkpt>
<trkpt lat="40.0713751" lon="-105.2297889">
  <ele>1583.08</ele>
  <time>2026-08-28T17:49:15Z</time>
  <course>247.08</course>
  <speed>0.022360679774997897</speed>
  <fix>3d</fix>
</trkpt>
<trkpt lat="40.0713749" lon="-105.229789">
  <ele>1583.0</ele>
  <time>2026-08-28T17:49:15Z</time>
  <course>0.0</course>
  <speed>0.0</speed>
  <fix>3d</fix>
</trkpt>
<trkpt lat="40.071375" lon="-105.2297889">
  <ele>1583.07</ele>
  <time>2026-08-28T17:49:15Z</time>
  <course>247.08</course>
  <speed>0.022360679774997897</speed>
  <fix>3d</fix>
</trkpt>
<trkpt lat="40.0713749" lon="-105.229789">
  <ele>1583.0</ele>
  <time>2026-08-28T17:49:15Z</time>
  <course>0.0</course>
  <speed>0.0</speed>
  <fix>3d</fix>
</trkpt>
<trkpt lat="40.0713751" lon="-105.2297889">
  <ele>1583.06</ele>
  <time>2026-08-28T17:49:15Z</time>
  <course>247.09</course>
  <speed>0.022360679774997897</speed>
  <fix>3d</fix>
</trkpt>
<trkpt lat="40.0713749" lon="-105.229789">
  <ele>1583.0</ele>
  <time>2026-08-28T17:49:15Z</time>
  <course>0.0</course>
  <speed>0.0</speed>
  <fix>3d</fix>
</trkpt>
<trkpt lat="40.071375" lon="-105.2297889">
  <ele>1583.06</ele>
  <time>2026-08-28T17:49:15Z</time>
  <course>247.08</course>
  <speed>0.022360679774997897</speed>
  <fix>3d</fix>
</trkpt>
<trkpt lat="40.0713749" lon="-105.229789">
  <ele>1583.0</ele>
  <time>2026-08-28T17:49:15Z</time>
  <course>0.0</course>
  <speed>0.0</speed>
  <fix>3d</fix>
</trkpt>
<trkpt lat="40.0713751" lon="-105.2297889">
  <ele>1583.05</ele>
  <time>2026-08-28T17:49:15Z</time>
  <course>247.08</course>
  <speed>0.022360679774997897</speed>
  <fix>3d</fix>
</trkpt>
<trkpt lat="40.0713749" lon="-105.229789">
  <ele>1583.0</ele>
  <time>2026-08-28T17:49:15Z</time>
  <course>0.0</course>
  <speed>0.0</speed>
  <fix>3d</fix>
</trkpt>
<trkpt lat="40.071375" lon="-105.2297889">
  <ele>1583.05</ele>
  <time>2026-08-28T17:49:15Z</time>
  <course>247.08</course>
  <speed>0.022360679774997897</speed>
  <fix>3d</fix>
</trkpt>
<trkpt lat="40.0713749" lon="-105.229789">
  <ele>1583.0</ele>
  <time>2026-08-28T17:49:15Z</time>
  <course>0.0</course>
  <speed>0.0</speed>
  <fix>3d</fix>
</trkpt>
<trkpt lat="40.0713751" lon="-105.2297889">
  <ele>1583.04</ele>
  <time>2026-08-28T17:49:15Z</time>
  <course>247.08</course>
  <speed>0.022360679774997897</speed>
  <fix>3d</fix>
</trkpt>
<trkpt lat="40.0713749" lon="-105.229789">
  <ele>1583.0</ele>
  <time>2026-08-28T17:49:15Z</time>
  <course>0.0</course>
  <speed>0.0</speed>
  <fix>3d</fix>
</trkpt>
<trkpt lat="40.071375" lon="-105.2297889">
  <ele>1583.03</ele>
  <time>2026-08-28T17:49:15Z</time>
  <course>247.08</course>
  <speed>0.022360679774997897</speed>
  <fix>3d</fix>
</trkpt>
<trkpt lat="40.0713749" lon="-105.229789">
  <ele>1583.0</ele>
  <time>2026-08-28T17:49:15Z</time>
  <course>0.0</course>
  <speed>0.0</speed>
  <fix>3d</fix>
</trkpt>
<trkpt lat="40.0713751" lon="-105.2297889">
  <ele>1583.03</ele>
  <time>2026-08-28T17:49:15Z</time>
  <course>247.08</course>
  <speed>0.022360679774997897</speed>
  <fix>3d</fix>
</trkpt>
<trkpt lat="40.0713749" lon="-105.229789">
  <ele>1583.0</ele>
  <time>2026-08-28T17:49:15Z</time>
  <course>0.0</course>
  <speed>0.0</speed>
  <fix>3d</fix>
</trkpt>
<trkpt lat="40.0713751" lon="-105.2297889">
  <ele>1583.02</ele>
  <time>2026-08-28T17:49:15Z</time>
  <course>247.08</course>
  <speed>0.022360679774997897</speed>
  <fix>3d</fix>
</trkpt>
<trkpt lat="40.0713749" lon="-105.229789">
  <ele>1583.0</ele>
  <time>2026-08-28T17:49:15Z</time>
  <course>0.0</course>
  <speed>0.0</speed>
  <fix>3d</fix>
</trkpt>
<trkpt lat="40.0713751" lon="-105.2297889">
  <ele>1583.02</ele>
  <time>2026-08-28T17:49:15Z</time>
  <course>247.08</course>
  <speed>0.022360679774997897</speed>
  <fix>3d</fix>
</trkpt>
<trkpt lat="40.0713749" lon="-105.229789">
  <ele>1583.0</ele>
  <time>2026-08-28T17:49:15Z</time>
  <course>0.0</course>
  <speed>0.0</speed>
  <fix>3d</fix>
</trkpt>
<trkpt lat="40.0713751" lon="-105.2297889">
  <ele>1583.02</ele>
  <time>2026-08-28T17:49:15Z</time>
  <course>247.08</course>
  <speed>0.022360679774997897</speed>
  <fix>3d</fix>
</trkpt>
<trkpt lat="40.0713749" lon="-105.229789">
  <ele>1583.0</ele>
  <time>2026-08-28T17:49:15Z</time>
  <course>0.0</course>
  <speed>0.0</speed>
  <fix>3d</fix>
</trkpt>
<trkpt lat="40.0713751" lon="-105.2297889">
  <ele>1583.01</ele>
  <time>2026-08-28T17:49:15Z</time>
  <course>247.08</course>
  <speed>0.022360679774997897</speed>
  <fix>3d</fix>
</trkpt>
<trkpt lat="40.0713749" lon="-105.229789">
  <ele>1583.0</ele>
  <time>2026-08-28T17:49:15Z</time>
  <course>0.0</course>
  <speed>0.0</speed>
  <fix>3d</fix>
</trkpt>
<trkpt lat="40.0713751" lon="-105.2297889">
  <ele>1583.01</ele>
  <time>2026-08-28T17:49:15Z</time>
  <course>247.08</course>
  <speed>0.022360679774997897</speed>
  <fix>3d</fix>
</trkpt>
<trkpt lat="40.0713749" lon="-105.229789">
  <ele>1583.0</ele>
  <time>2026-08-28T17:49:15Z</time>
  <course>0.0</course>
  <speed>0.0</speed>
  <fix>3d</fix>
</trkpt>
<trkpt lat="40.0713751" lon="-105.2297889">
  <ele>1583.0</ele>
  <time>2026-08-28T17:49:15Z</time>
  <course>247.08</course>
  <speed>0.022360679774997897</speed>
  <fix>3d</fix>
</trkpt>
<trkpt lat="40.0713749" lon="-105.229789">
  <ele>1583.0</ele>
  <time>2026-08-28T17:49:15Z</time>
  <course>0.0</course>
  <speed>0.0</speed>
  <fix>3d</fix>
</trkpt>
<trkpt lat="40.0713751" lon="-105.2297889">
  <ele>1583.0</ele>
  <time>2026-08-28T17:49:15Z</time>
  <course>247.08</course>
  <speed>0.022360679774997897</speed>
  <fix>3d</fix>
</trkpt>
<trkpt lat="40.0713749" lon="-105.229789">
  <ele>1583.0</ele>
  <time>2026-08-28T17:49:15Z</time>
  <course>0.0</course>
  <speed>0.0</speed>
  <fix>3d</fix>
</trkpt>
<trkpt lat="40.0713751" lon="-105.2297889">
  <ele>1582.99</ele>
  <time>2026-08-28T17:49:15Z</time>
  <course>247.08</course>
  <speed>0.022360679774997897</speed>
  <fix>3d</fix>
</trkpt>
<trkpt lat="40.0713749" lon="-105.229789">
  <ele>1583.0</ele>
  <time>2026-08-28T17:49:15Z</time>
  <course>0.0</course>
  <speed>0.0</speed>
  <fix>3d</fix>
</trkpt>
<trkpt lat="40.0713751" lon="-105.2297889">
  <ele>1582.99</ele>
  <time>2026-08-28T17:49:15Z</time>
  <course>247.08</course>
  <speed>0.022360679774997897</speed>
  <fix>3d</fix>
</trkpt>
<trkpt lat="40.0713749" lon="-105.229789">
  <ele>1583.0</ele>
  <time>2026-08-28T17:49:15Z</time>
  <course>0.0</course>
  <speed>0.0</speed>
  <fix>3d</fix>
</trkpt>
<trkpt lat="40.0713751" lon="-105.2297889">
  <ele>1582.98</ele>
  <time>2026-08-28T17:49:15Z</time>
  <course>247.08</course>
  <speed>0.022360679774997897</speed>
  <fix>3d</fix>
</trkpt>
<trkpt lat="40.0713749" lon="-105.229789">
  <ele>1583.0</ele>
  <time>2026-08-28T17:49:15Z</time>
  <course>0.0</course>
  <speed>0.0</speed>
  <fix>3d</fix>
</trkpt>
<trkpt lat="40.071375" lon="-105.2297889">
  <ele>1582.98</ele>
  <time>2026-08-28T17:49:15Z</time>
  <course>247.08</course>
  <speed>0.022360679774997897</speed>
  <fix>3d</fix>
</trkpt>
<trkpt lat="40.0713749" lon="-105.229789">
  <ele>1583.0</ele>
  <time>2026-08-28T17:49:15Z</time>
  <course>0.0</course>
  <speed>0.0</speed>
  <fix>3d</fix>
</trkpt>
<trkpt lat="40.0713751" lon="-105.2297889">
  <ele>1582.98</ele>
  <time>2026-08-28T17:49:15Z</time>
  <course>247.08</course>
  <speed>0.022360679774997897</speed>
  <fix>3d</fix>
</trkpt>
<trkpt lat="40.0713749" lon="-105.229789">
  <ele>1583.0</ele>
  <time>2026-08-28T17:49:15Z</time>
  <course>0.0</course>
  <speed>0.0</speed>
  <fix>3d</fix>
</trkpt>
<trkpt lat="40.071375" lon="-105.2297889">
  <ele>1582.98</ele>
  <time>2026-08-28T17:49:15Z</time>
  <course>247.08</course>
  <speed>0.022360679774997897</speed>
  <fix>3d</fix>
</trkpt>
<trkpt lat="40.0713749" lon="-105.229789">
  <ele>1583.0</ele>
  <time>2026-08-28T17:49:15Z</time>
  <course>0.0</course>
  <speed>0.0</speed>
  <fix>3d</fix>
</trkpt>
<trkpt lat="40.0713751" lon="-105.2297889">
  <ele>1582.99</ele>
  <time>2026-08-28T17:49:15Z</time>
  <course>247.08</course>
  <speed>0.022360679774997897</speed>
  <fix>3d</fix>
</trkpt>
<trkpt lat="40.0713749" lon="-105.229789">
  <ele>1583.0</ele>
  <time>2026-08-28T17:49:15Z</time>
  <course>0.0</course>
  <speed>0.0</speed>
  <fix>3d</fix>
</trkpt>
<trkpt lat="40.071375" lon="-105.2297889">
  <ele>1582.99</ele>
  <time>2026-08-28T17:49:15Z</time>
  <course>247.08</course>
  <speed>0.02</speed>
  <fix>3d</fix>
</trkpt>
<trkpt lat="40.0713749" lon="-105.229789">
  <ele>1583.0</ele>
  <time>2026-08-28T17:49:15Z</time>
  <course>0.0</course>
  <speed>0.0</speed>
  <fix>3d</fix>
</trkpt>
<trkpt lat="40.0713751" lon="-105.2297889">
  <ele>1582.99</ele>
  <time>2026-08-28T17:49:15Z</time>
  <course>247.08</course>
  <speed>0.022360679774997897</speed>
  <fix>3d</fix>
</trkpt>
<trkpt lat="40.0713749" lon="-105.229789">
  <ele>1583.0</ele>
  <time>2026-08-28T17:49:15Z</time>
  <course>0.0</course>
  <speed>0.0</speed>
  <fix>3d</fix>
</trkpt>
<trkpt lat="40.071375" lon="-105.2297889">
  <ele>1583.0</ele>
  <time>2026-08-28T17:49:15Z</time>
  <course>247.08</course>
  <speed>0.022360679774997897</speed>
  <fix>3d</fix>
</trkpt>
<trkpt lat="40.0713749" lon="-105.229789">
  <ele>1583.0</ele>
  <time>2026-08-28T17:49:15Z</time>
  <course>0.0</course>
  <speed>0.0</speed>
  <fix>3d</fix>
</trkpt>
<trkpt lat="40.0713751" lon="-105.2297889">
  <ele>1583.0</ele>
  <time>2026-08-28T17:49:15Z</time>
  <course>247.08</course>
  <speed>0.022360679774997897</speed>
  <fix>3d</fix>
</trkpt>
<trkpt lat="40.0713749" lon="-105.229789">
  <ele>1583.0</ele>
  <time>2026-08-28T17:49:15Z</time>
  <course>0.0</course>
  <speed>0.0</speed>
  <fix>3d</fix>
</trkpt>
<trkpt lat="40.071375" lon="-105.2297889">
  <ele>1583.01</ele>
  <time>2026-08-28T17:49:15Z</time>
  <course>247.08</course>
  <speed>0.022360679774997897</speed>
  <fix>3d</fix>
</trkpt>
<trkpt lat="40.0713749" lon="-105.229789">
  <ele>1583.0</ele>
  <time>2026-08-28T17:49:15Z</time>
  <course>0.0</course>
  <speed>0.0</speed>
  <fix>3d</fix>
</trkpt>
<trkpt lat="40.0713751" lon="-105.2297889">
  <ele>1583.01</ele>
  <time>2026-08-28T17:49:15Z</time>
  <course>247.08</course>
  <speed>0.022360679774997897</speed>
  <fix>3d</fix>
</trkpt>
<trkpt lat="40.0713749" lon="-105.229789">
  <ele>1583.0</ele>
  <time>2026-08-28T17:49:15Z</time>
  <course>0.0</course>
  <speed>0.0</speed>
  <fix>3d</fix>
</trkpt>
<trkpt lat="40.071375" lon="-105.2297889">
  <ele>1583.01</ele>
  <time>2026-08-28T17:49:15Z</time>
  <course>247.08</course>
  <speed>0.022360679774997897</speed>
  <fix>3d</fix>
</trkpt>
<trkpt lat="40.0713749" lon="-105.229789">
  <ele>1583.0</ele>
  <time>2026-08-28T17:49:15Z</time>
  <course>0.0</course>
  <speed>0.0</speed>
  <fix>3d</fix>
</trkpt>
<trkpt lat="40.0713751" lon="-105.2297889">
  <ele>1583.01</ele>
  <time>2026-08-28T17:49:15Z</time>
  <course>247.08</course>
  <speed>0.022360679774997897</speed>
  <fix>3d</fix>
</trkpt>
<trkpt lat="40.0713749" lon="-105.229789">
  <ele>1583.0</ele>
  <time>2026-08-28T17:49:15Z</time>
  <course>0.0</course>
  <speed>0.0</speed>
  <fix>3d</fix>
</trkpt>
<trkpt lat="40.0713751" lon="-105.2297889">
  <ele>1583.01</ele>
  <time>2026-08-28T17:49:15Z</time>
  <course>247.08</course>
  <speed>0.022360679774997897</speed>
  <fix>3d</fix>
</trkpt>
<trkpt lat="40.0713749" lon="-105.229789">
  <ele>1583.0</ele>
  <time>2026-08-28T17:49:15Z</time>
  <course>0.0</course>
  <speed>0.0</speed>
  <fix>3d</fix>
</trkpt>
<trkpt lat="40.0713751" lon="-105.2297889">
  <ele>1583.0</ele>
  <time>2026-08-28T17:49:15Z</time>
  <course>247.08</course>
  <speed>0.022360679774997897</speed>
  <fix>3d</fix>
</trkpt>
<trkpt lat="40.0713749" lon="-105.229789">
  <ele>1583.0</ele>
  <time>2026-08-28T17:49:15Z</time>
  <course>0.0</course>
  <speed>0.0</speed>
  <fix>3d</fix>
</trkpt>
<trkpt lat="40.0713751" lon="-105.2297889">
  <ele>1583.0</ele>
  <time>2026-08-28T17:49:15Z</time>
  <course>247.08</course>
  <speed>0.022360679774997897</speed>
  <fix>3d</fix>
</trkpt>
<trkpt lat="40.0713749" lon="-105.229789">
  <ele>1583.0</ele>
  <time>2026-08-28T17:49:15Z</time>
  <course>0.0</course>
  <speed>0.0</speed>
  <fix>3d</fix>
</trkpt>
<trkpt lat="40.0713751" lon="-105.2297889">
  <ele>1582.99</ele>
  <time>2026-08-28T17:49:15Z</time>
  <course>247.08</course>
  <speed>0.022360679774997897</speed>
  <fix>3d</fix>
</trkpt>
<trkpt lat="40.0713749" lon="-105.229789">
  <ele>1583.0</ele>
  <time>2026-08-28T17:49:15Z</time>
  <course>0.0</course>
  <speed>0.0</speed>
  <fix>3d</fix>
</trkpt>
<trkpt lat="40.0713751" lon="-105.2297889">
  <ele>1582.99</ele>
  <time>2026-08-28T17:49:15Z</time>
  <course>247.08</course>
  <speed>0.022360679774997897</speed>
  <fix>3d</fix>
</trkpt>
<trkpt lat="40.0713749" lon="-105.229789">
  <ele>1583.0</ele>
  <time>2026-08-28T17:49:15Z</time>
  <course>0.0</course>
  <speed>0.0</speed>
  <fix>3d</fix>
</trkpt>
<trkpt lat="40.0713751" lon="-105.2297889">
  <ele>1582.98</ele>
  <time>2026-08-28T17:49:15Z</time>
  <course>247.08</course>
  <speed>0.022360679774997897</speed>
  <fix>3d</fix>
</trkpt>
<trkpt lat="40.0713749" lon="-105.229789">
  <ele>1583.0</ele>
  <time>2026-08-28T17:49:15Z</time>
  <course>0.0</course>
  <speed>0.0</speed>
  <fix>3d</fix>
</trkpt>
<trkpt lat="40.0713751" lon="-105.2297889">
  <ele>1582.98</ele>
  <time>2026-08-28T17:49:15Z</time>
  <course>247.09</course>
  <speed>0.022360679774997897</speed>
  <fix>3d</fix>
</trkpt>
<trkpt lat="40.0713749" lon="-105.229789">
  <ele>1583.0</ele>
  <time>2026-08-28T17:49:15Z</time>
  <course>0.0</course>
  <speed>0.0</speed>
  <fix>3d</fix>
</trkpt>
<trkpt lat="40.0713751" lon="-105.2297889">
  <ele>1582.98</ele>
  <time>2026-08-28T17:49:15Z</time>
  <course>247.09</course>
  <speed>0.022360679774997897</speed>
  <fix>3d</fix>
</trkpt>
<trkpt lat="40.0713749" lon="-105.229789">
  <ele>1583.0</ele>
  <time>2026-08-28T17:49:15Z</time>
  <course>0.0</course>
  <speed>0.0</speed>
  <fix>3d</fix>
</trkpt>
<trkpt lat="40.071375" lon="-105.2297889">
  <ele>1582.97</ele>
  <time>2026-08-28T17:49:15Z</time>
  <course>247.09</course>
  <speed>0.022360679774997897</speed>
  <fix>3d</fix>
</trkpt>
<trkpt lat="40.0713749" lon="-105.229789">
  <ele>1583.0</ele>
  <time>2026-08-28T17:49:15Z</time>
  <course>0.0</course>
  <speed>0.0</speed>
  <fix>3d</fix>
</trkpt>
<trkpt lat="40.0713751" lon="-105.2297889">
  <ele>1582.97</ele>
  <time>2026-08-28T17:49:15Z</time>
  <course>247.09</course>
  <speed>0.022360679774997897</speed>
  <fix>3d</fix>
</trkpt>
<trkpt lat="40.0713749" lon="-105.229789">
  <ele>1583.0</ele>
  <time>2026-08-28T17:49:15Z</time>
  <course>0.0</course>
  <speed>0.0</speed>
  <fix>3d</fix>
</trkpt>
<trkpt lat="40.071375" lon="-105.2297889">
  <ele>1582.97</ele>
  <time>2026-08-28T17:49:15Z</time>
  <course>247.09</course>
  <speed>0.022360679774997897</speed>
  <fix>3d</fix>
</trkpt>
<trkpt lat="40.0713749" lon="-105.229789">
  <ele>1583.0</ele>
  <time>2026-08-28T17:49:15Z</time>
  <course>0.0</course>
  <speed>0.0</speed>
  <fix>3d</fix>
</trkpt>
<trkpt lat="40.0713751" lon="-105.2297889">
  <ele>1582.96</ele>
  <time>2026-08-28T17:49:15Z</time>
  <course>247.09</course>
  <speed>0.022360679774997897</speed>
  <fix>3d</fix>
</trkpt>
<trkpt lat="40.0713749" lon="-105.229789">
  <ele>1583.0</ele>
  <time>2026-08-28T17:49:15Z</time>
  <course>0.0</course>
  <speed>0.0</speed>
  <fix>3d</fix>
</trkpt>
<trkpt lat="40.071375" lon="-105.2297889">
  <ele>1582.96</ele>
  <time>2026-08-28T17:49:15Z</time>
  <course>247.09</course>
  <speed>0.022360679774997897</speed>
  <fix>3d</fix>
</trkpt>
<trkpt lat="40.0713749" lon="-105.229789">
  <ele>1583.0</ele>
  <time>2026-08-28T17:49:15Z</time>
  <course>0.0</course>
  <speed>0.0</speed>
  <fix>3d</fix>
</trkpt>
<trkpt lat="40.0713751" lon="-105.2297889">
  <ele>1582.95</ele>
  <time>2026-08-28T17:49:15Z</time>
  <course>247.09</course>
  <speed>0.022360679774997897</speed>
  <fix>3d</fix>
</trkpt>
<trkpt lat="40.0713749" lon="-105.229789">
  <ele>1583.0</ele>
  <time>2026-08-28T17:49:15Z</time>
  <course>0.0</course>
  <speed>0.0</speed>
  <fix>3d</fix>
</trkpt>
<trkpt lat="40.071375" lon="-105.2297889">
  <ele>1582.95</ele>
  <time>2026-08-28T17:49:15Z</time>
  <course>247.09</course>
  <speed>0.022360679774997897</speed>
  <fix>3d</fix>
</trkpt>
<trkpt lat="40.0713749" lon="-105.229789">
  <ele>1583.0</ele>
  <time>2026-08-28T17:49:15Z</time>
  <course>0.0</course>
  <speed>0.0</speed>
  <fix>3d</fix>
</trkpt>
<trkpt lat="40.0713751" lon="-105.2297889">
  <ele>1582.94</ele>
  <time>2026-08-28T17:49:15Z</time>
  <course>247.09</course>
  <speed>0.022360679774997897</speed>
  <fix>3d</fix>
</trkpt>
<trkpt lat="40.0713749" lon="-105.229789">
  <ele>1583.0</ele>
  <time>2026-08-28T17:49:15Z</time>
  <course>0.0</course>
  <speed>0.0</speed>
  <fix>3d</fix>
</trkpt>
<trkpt lat="40.071375" lon="-105.2297889">
  <ele>1582.94</ele>
  <time>2026-08-28T17:49:15Z</time>
  <course>247.09</course>
  <speed>0.022360679774997897</speed>
  <fix>3d</fix>
</trkpt>
<trkpt lat="40.0713749" lon="-105.229789">
  <ele>1583.0</ele>
  <time>2026-08-28T17:49:15Z</time>
  <course>0.0</course>
  <speed>0.0</speed>
  <fix>3d</fix>
</trkpt>
<trkpt lat="40.0713751" lon="-105.2297889">
  <ele>1582.94</ele>
  <time>2026-08-28T17:49:15Z</time>
  <course>247.09</course>
  <speed>0.022360679774997897</speed>
  <fix>3d</fix>
</trkpt>
<trkpt lat="40.0713749" lon="-105.229789">
  <ele>1583.0</ele>
  <time>2026-08-28T17:49:15Z</time>
  <course>0.0</course>
  <speed>0.0</speed>
  <fix>3d</fix>
</trkpt>
<trkpt lat="40.071375" lon="-105.2297889">
  <ele>1582.94</ele>
  <time>2026-08-28T17:49:15Z</time>
  <course>247.09</course>
  <speed>0.022360679774997897</speed>
  <fix>3d</fix>
</trkpt>
<trkpt lat="40.0713749" lon="-105.229789">
  <ele>1583.0</ele>
  <time>2026-08-28T17:49:15Z</time>
  <course>0.0</course>
  <speed>0.0</speed>
  <fix>3d</fix>
</trkpt>
<trkpt lat="40.0713751" lon="-105.2297889">
  <ele>1582.93</ele>
  <time>2026-08-28T17:49:15Z</time>
  <course>247.09</course>
  <speed>0.022360679774997897</speed>
  <fix>3d</fix>
</trkpt>
<trkpt lat="40.0713749" lon="-105.229789">
  <ele>1583.0</ele>
  <time>2026-08-28T17:49:15Z</time>
  <course>0.0</course>
  <speed>0.0</speed>
  <fix>3d</fix>
</trkpt>
<trkpt lat="40.0713751" lon="-105.2297889">
  <ele>1582.94</ele>
  <time>2026-08-28T17:49:15Z</time>
  <course>247.09</course>
  <speed>0.022360679774997897</speed>
  <fix>3d</fix>
</trkpt>
<trkpt lat="40.0713749" lon="-105.229789">
  <ele>1583.0</ele>
  <time>2026-08-28T17:49:15Z</time>
  <course>0.0</course>
  <speed>0.0</speed>
  <fix>3d</fix>
</trkpt>
<trkpt lat="40.0713751" lon="-105.2297889">
  <ele>1582.94</ele>
  <time>2026-08-28T17:49:15Z</time>
  <course>247.09</course>
  <speed>0.022360679774997897</speed>
  <fix>3d</fix>
</trkpt>
<trkpt lat="40.0713749" lon="-105.229789">
  <ele>1583.0</ele>
  <time>2026-08-28T17:49:15Z</time>
  <course>0.0</course>
  <speed>0.0</speed>
  <fix>3d</fix>
</trkpt>
<trkpt lat="40.0713751" lon="-105.2297889">
  <ele>1582.94</ele>
  <time>2026-08-28T17:49:15Z</time>
  <course>247.09</course>
  <speed>0.022360679774997897</speed>
  <fix>3d</fix>
</trkpt>
<trkpt lat="40.0713749" lon="-105.229789">
  <ele>1583.0</ele>
  <time>2026-08-28T17:49:15Z</time>
  <course>0.0</course>
  <speed>0.0</speed>
  <fix>3d</fix>
</trkpt>
<trkpt lat="40.0713751" lon="-105.2297889">
  <ele>1582.95</ele>
  <time>2026-08-28T17:49:15Z</time>
  <course>247.09</course>
  <speed>0.022360679774997897</speed>
  <fix>3d</fix>
</trkpt>
<trkpt lat="40.0713749" lon="-105.229789">
  <ele>1583.0</ele>
  <time>2026-08-28T17:49:15Z</time>
  <course>0.0</course>
  <speed>0.0</speed>
  <fix>3d</fix>
</trkpt>
<trkpt lat="40.0713751" lon="-105.2297889">
  <ele>1582.95</ele>
  <time>2026-08-28T17:49:15Z</time>
  <course>247.09</course>
  <speed>0.022360679774997897</speed>
  <fix>3d</fix>
</trkpt>
<trkpt lat="40.0713749" lon="-105.229789">
  <ele>1583.0</ele>
  <time>2026-08-28T17:49:15Z</time>
  <course>0.0</course>
  <speed>0.0</speed>
  <fix>3d</fix>
</trkpt>
<trkpt lat="40.0713751" lon="-105.2297889">
  <ele>1582.96</ele>
  <time>2026-08-28T17:49:15Z</time>
  <course>247.09</course>
  <speed>0.022360679774997897</speed>
  <fix>3d</fix>
</trkpt>
<trkpt lat="40.0713749" lon="-105.229789">
  <ele>1583.0</ele>
  <time>2026-08-28T17:49:15Z</time>
  <course>0.0</course>
  <speed>0.0</speed>
  <fix>3d</fix>
</trkpt>
<trkpt lat="40.0713751" lon="-105.2297889">
  <ele>1582.96</ele>
  <time>2026-08-28T17:49:15Z</time>
  <course>247.09</course>
  <speed>0.022360679774997897</speed>
  <fix>3d</fix>
</trkpt>
<trkpt lat="40.0713749" lon="-105.229789">
  <ele>1583.0</ele>
  <time>2026-08-28T17:49:15Z</time>
  <course>0.0</course>
  <speed>0.0</speed>
  <fix>3d</fix>
</trkpt>
<trkpt lat="40.0713751" lon="-105.2297889">
  <ele>1582.96</ele>
  <time>2026-08-28T17:49:15Z</time>
  <course>247.09</course>
  <speed>0.022360679774997897</speed>
  <fix>3d</fix>
</trkpt>
<trkpt lat="40.0713749" lon="-105.229789">
  <ele>1583.0</ele>
  <time>2026-08-28T17:49:15Z</time>
  <course>0.0</course>
  <speed>0.0</speed>
  <fix>3d</fix>
</trkpt>
<trkpt lat="40.0713751" lon="-105.2297889">
  <ele>1582.96</ele>
  <time>2026-08-28T17:49:15Z</time>
  <course>247.09</course>
  <speed>0.022360679774997897</speed>
  <fix>3d</fix>
</trkpt>
<trkpt lat="40.0713749" lon="-105.229789">
  <ele>1583.0</ele>
  <time>2026-08-28T17:49:15Z</time>
  <course>0.0</course>
  <speed>0.0</speed>
  <fix>3d</fix>
</trkpt>
<trkpt lat="40.0713751" lon="-105.2297889">
  <ele>1582.96</ele>
  <time>2026-08-28T17:49:15Z</time>
  <course>247.09</course>
  <speed>0.022360679774997897</speed>
  <fix>3d</fix>
</trkpt>
<trkpt lat="40.0713749" lon="-105.229789">
  <ele>1583.0</ele>
  <time>2026-08-28T17:49:15Z</time>
  <course>0.0</course>
  <speed>0.0</speed>
  <fix>3d</fix>
</trkpt>
<trkpt lat="40.071375" lon="-105.2297889">
  <ele>1582.96</ele>
  <time>2026-08-28T17:49:15Z</time>
  <course>247.09</course>
  <speed>0.022360679774997897</speed>
  <fix>3d</fix>
</trkpt>
<trkpt lat="40.0713749" lon="-105.229789">
  <ele>1583.0</ele>
  <time>2026-08-28T17:49:15Z</time>
  <course>0.0</course>
  <speed>0.0</speed>
  <fix>3d</fix>
</trkpt>
<trkpt lat="40.0713751" lon="-105.2297889">
  <ele>1582.96</ele>
  <time>2026-08-28T17:49:15Z</time>
  <course>247.09</course>
  <speed>0.022360679774997897</speed>
  <fix>3d</fix>
</trkpt>
<trkpt lat="40.0713749" lon="-105.229789">
  <ele>1583.0</ele>
  <time>2026-08-28T17:49:15Z</time>
  <course>0.0</course>
  <speed>0.0</speed>
  <fix>3d</fix>
</trkpt>
<trkpt lat="40.071375" lon="-105.2297889">
  <ele>1582.96</ele>
  <time>2026-08-28T17:49:15Z</time>
  <course>247.09</course>
  <speed>0.022360679774997897</speed>
  <fix>3d</fix>
</trkpt>
<trkpt lat="40.0713749" lon="-105.229789">
  <ele>1583.0</ele>
  <time>2026-08-28T17:49:15Z</time>
  <course>0.0</course>
  <speed>0.0</speed>
  <fix>3d</fix>
</trkpt>
<trkpt lat="40.0713751" lon="-105.2297889">
  <ele>1582.95</ele>
  <time>2026-08-28T17:49:15Z</time>
  <course>247.09</course>
  <speed>0.022360679774997897</speed>
  <fix>3d</fix>
</trkpt>
<trkpt lat="40.0713749" lon="-105.229789">
  <ele>1583.0</ele>
  <time>2026-08-28T17:49:15Z</time>
  <course>0.0</course>
  <speed>0.0</speed>
  <fix>3d</fix>
</trkpt>
<trkpt lat="40.071375" lon="-105.2297889">
  <ele>1582.95</ele>
  <time>2026-08-28T17:49:15Z</time>
  <course>247.09</course>
  <speed>0.022360679774997897</speed>
  <fix>3d</fix>
</trkpt>
<trkpt lat="40.0713749" lon="-105.229789">
  <ele>1583.0</ele>
  <time>2026-08-28T17:49:15Z</time>
  <course>0.0</course>
  <speed>0.0</speed>
  <fix>3d</fix>
</trkpt>
<trkpt lat="40.0713751" lon="-105.2297889">
  <ele>1582.94</ele>
  <time>2026-08-28T17:49:15Z</time>
  <course>247.09</course>
  <speed>0.022360679774997897</speed>
  <fix>3d</fix>
</trkpt>
<trkpt lat="40.0713749" lon="-105.229789">
  <ele>1583.0</ele>
  <time>2026-08-28T17:49:15Z</time>
  <course>0.0</course>
  <speed>0.0</speed>
  <fix>3d</fix>
</trkpt>
<trkpt lat="40.071375" lon="-105.2297889">
  <ele>1582.94</ele>
  <time>2026-08-28T17:49:15Z</time>
  <course>247.09</course>
  <speed>0.022360679774997897</speed>
  <fix>3d</fix>
</trkpt>
<trkpt lat="40.0713749" lon="-105.229789">
  <ele>1583.0</ele>
  <time>2026-08-28T17:49:15Z</time>
  <course>0.0</course>
  <speed>0.0</speed>
  <fix>3d</fix>
</trkpt>
<trkpt lat="40.0713751" lon="-105.2297889">
  <ele>1582.94</ele>
  <time>2026-08-28T17:49:15Z</time>
  <course>247.09</course>
  <speed>0.022360679774997897</speed>
  <fix>3d</fix>
</trkpt>
<trkpt lat="40.0713749" lon="-105.229789">
  <ele>1583.0</ele>
  <time>2026-08-28T17:49:15Z</time>
  <course>0.0</course>
  <speed>0.0</speed>
  <fix>3d</fix>
</trkpt>
<trkpt lat="40.0713751" lon="-105.2297889">
  <ele>1582.94</ele>
  <time>2026-08-28T17:49:15Z</time>
  <course>247.09</course>
  <speed>0.022360679774997897</speed>
  <fix>3d</fix>
</trkpt>
<trkpt lat="40.0713749" lon="-105.229789">
  <ele>1583.0</ele>
  <time>2026-08-28T17:49:15Z</time>
  <course>0.0</course>
  <speed>0.0</speed>
  <fix>3d</fix>
</trkpt>
<trkpt lat="40.0713751" lon="-105.2297889">
  <ele>1582.95</ele>
  <time>2026-08-28T17:49:15Z</time>
  <course>247.09</course>
  <speed>0.022360679774997897</speed>
  <fix>3d</fix>
</trkpt>
<trkpt lat="40.0713749" lon="-105.229789">
  <ele>1583.0</ele>
  <time>2026-08-28T17:49:15Z</time>
  <course>0.0</course>
  <speed>0.0</speed>
  <fix>3d</fix>
</trkpt>
<trkpt lat="40.0713751" lon="-105.2297889">
  <ele>1582.95</ele>
  <time>2026-08-28T17:49:15Z</time>
  <course>247.09</course>
  <speed>0.022360679774997897</speed>
  <fix>3d</fix>
</trkpt>
<trkpt lat="40.0713749" lon="-105.229789">
  <ele>1583.0</ele>
  <time>2026-08-28T17:49:15Z</time>
  <course>0.0</course>
  <speed>0.0</speed>
  <fix>3d</fix>
</trkpt>
<trkpt lat="40.0713751" lon="-105.2297889">
  <ele>1582.96</ele>
  <time>2026-08-28T17:49:15Z</time>
  <course>247.09</course>
  <speed>0.022360679774997897</speed>
  <fix>3d</fix>
</trkpt>
<trkpt lat="40.0713749" lon="-105.229789">
  <ele>1583.0</ele>
  <time>2026-08-28T17:49:15Z</time>
  <course>0.0</course>
  <speed>0.0</speed>
  <fix>3d</fix>
</trkpt>
<trkpt lat="40.0713751" lon="-105.2297889">
  <ele>1582.97</ele>
  <time>2026-08-28T17:49:15Z</time>
  <course>247.09</course>
  <speed>0.022360679774997897</speed>
  <fix>3d</fix>
</trkpt>
<trkpt lat="40.0713749" lon="-105.229789">
  <ele>1583.0</ele>
  <time>2026-08-28T17:49:15Z</time>
  <course>0.0</course>
  <speed>0.0</speed>
  <fix>3d</fix>
</trkpt>
<trkpt lat="40.0713751" lon="-105.2297889">
  <ele>1582.97</ele>
  <time>2026-08-28T17:49:15Z</time>
  <course>247.09</course>
  <speed>0.022360679774997897</speed>
  <fix>3d</fix>
</trkpt>
<trkpt lat="40.0713749" lon="-105.229789">
  <ele>1583.0</ele>
  <time>2026-08-28T17:49:15Z</time>
  <course>0.0</course>
  <speed>0.0</speed>
  <fix>3d</fix>
</trkpt>
<trkpt lat="40.0713751" lon="-105.2297889">
  <ele>1582.98</ele>
  <time>2026-08-28T17:49:15Z</time>
  <course>247.09</course>
  <speed>0.022360679774997897</speed>
  <fix>3d</fix>
</trkpt>
<trkpt lat="40.0713749" lon="-105.229789">
  <ele>1583.0</ele>
  <time>2026-08-28T17:49:15Z</time>
  <course>0.0</course>
  <speed>0.0</speed>
  <fix>3d</fix>
</trkpt>
<trkpt lat="40.0713751" lon="-105.2297889">
  <ele>1582.99</ele>
  <time>2026-08-28T17:49:15Z</time>
  <course>247.09</course>
  <speed>0.022360679774997897</speed>
  <fix>3d</fix>
</trkpt>
<trkpt lat="40.0713749" lon="-105.229789">
  <ele>1583.0</ele>
  <time>2026-08-28T17:49:15Z</time>
  <course>0.0</course>
  <speed>0.0</speed>
  <fix>3d</fix>
</trkpt>
<trkpt lat="40.0713751" lon="-105.2297889">
  <ele>1583.0</ele>
  <time>2026-08-28T17:49:15Z</time>
  <course>247.09</course>
  <speed>0.022360679774997897</speed>
  <fix>3d</fix>
</trkpt>
<trkpt lat="40.0713749" lon="-105.229789">
  <ele>1583.0</ele>
  <time>2026-08-28T17:49:15Z</time>
  <course>0.0</course>
  <speed>0.0</speed>
  <fix>3d</fix>
</trkpt>
<trkpt lat="40.0713751" lon="-105.2297889">
  <ele>1583.0</ele>
  <time>2026-08-28T17:49:15Z</time>
  <course>247.09</course>
  <speed>0.022360679774997897</speed>
  <fix>3d</fix>
</trkpt>
<trkpt lat="40.0713749" lon="-105.229789">
  <ele>1583.0</ele>
  <time>2026-08-28T17:49:15Z</time>
  <course>0.0</course>
  <speed>0.0</speed>
  <fix>3d</fix>
</trkpt>
<trkpt lat="40.0713751" lon="-105.2297889">
  <ele>1583.01</ele>
  <time>2026-08-28T17:49:15Z</time>
  <course>247.09</course>
  <speed>0.022360679774997897</speed>
  <fix>3d</fix>
</trkpt>
<trkpt lat="40.0713749" lon="-105.229789">
  <ele>1583.0</ele>
  <time>2026-08-28T17:49:15Z</time>
  <course>0.0</course>
  <speed>0.0</speed>
  <fix>3d</fix>
</trkpt>
<trkpt lat="40.0713751" lon="-105.2297889">
  <ele>1583.01</ele>
  <time>2026-08-28T17:49:15Z</time>
  <course>247.09</course>
  <speed>0.022360679774997897</speed>
  <fix>3d</fix>
</trkpt>
<trkpt lat="40.0713749" lon="-105.229789">
  <ele>1583.0</ele>
  <time>2026-08-28T17:49:15Z</time>
  <course>0.0</course>
  <speed>0.0</speed>
  <fix>3d</fix>
</trkpt>
<trkpt lat="40.0713751" lon="-105.2297889">
  <ele>1583.01</ele>
  <time>2026-08-28T17:49:15Z</time>
  <course>247.09</course>
  <speed>0.022360679774997897</speed>
  <fix>3d</fix>
</trkpt>
<trkpt lat="40.0713749" lon="-105.229789">
  <ele>1583.0</ele>
  <time>2026-08-28T17:49:15Z</time>
  <course>0.0</course>
  <speed>0.0</speed>
  <fix>3d</fix>
</trkpt>
<trkpt lat="40.0713751" lon="-105.2297889">
  <ele>1583.02</ele>
  <time>2026-08-28T17:49:15Z</time>
  <course>247.09</course>
  <speed>0.022360679774997897</speed>
  <fix>3d</fix>
</trkpt>
<trkpt lat="40.0713749" lon="-105.229789">
  <ele>1583.0</ele>
  <time>2026-08-28T17:49:15Z</time>
  <course>0.0</course>
  <speed>0.0</speed>
  <fix>3d</fix>
</trkpt>
<trkpt lat="40.0713751" lon="-105.2297889">
  <ele>1583.02</ele>
  <time>2026-08-28T17:49:15Z</time>
  <course>247.09</course>
  <speed>0.022360679774997897</speed>
  <fix>3d</fix>
</trkpt>
<trkpt lat="40.0713749" lon="-105.229789">
  <ele>1583.0</ele>
  <time>2026-08-28T17:49:15Z</time>
  <course>0.0</course>
  <speed>0.0</speed>
  <fix>3d</fix>
</trkpt>
<trkpt lat="40.0713751" lon="-105.2297889">
  <ele>1583.03</ele>
  <time>2026-08-28T17:49:15Z</time>
  <course>247.09</course>
  <speed>0.022360679774997897</speed>
  <fix>3d</fix>
</trkpt>
<trkpt lat="40.0713749" lon="-105.229789">
  <ele>1583.0</ele>
  <time>2026-08-28T17:49:15Z</time>
  <course>0.0</course>
  <speed>0.0</speed>
  <fix>3d</fix>
</trkpt>
<trkpt lat="40.0713751" lon="-105.2297889">
  <ele>1583.03</ele>
  <time>2026-08-28T17:49:15Z</time>
  <course>247.09</course>
  <speed>0.022360679774997897</speed>
  <fix>3d</fix>
</trkpt>
<trkpt lat="40.0713749" lon="-105.229789">
  <ele>1583.0</ele>
  <time>2026-08-28T17:49:15Z</time>
  <course>0.0</course>
  <speed>0.0</speed>
  <fix>3d</fix>
</trkpt>
<trkpt lat="40.0713751" lon="-105.2297889">
  <ele>1583.04</ele>
  <time>2026-08-28T17:49:15Z</time>
  <course>247.09</course>
  <speed>0.022360679774997897</speed>
  <fix>3d</fix>
</trkpt>
<trkpt lat="40.0713749" lon="-105.229789">
  <ele>1583.0</ele>
  <time>2026-08-28T17:49:15Z</time>
  <course>0.0</course>
  <speed>0.0</speed>
  <fix>3d</fix>
</trkpt>
<trkpt lat="40.0713751" lon="-105.2297889">
  <ele>1583.05</ele>
  <time>2026-08-28T17:49:15Z</time>
  <course>247.09</course>
  <speed>0.022360679774997897</speed>
  <fix>3d</fix>
</trkpt>
<trkpt lat="40.0713749" lon="-105.229789">
  <ele>1583.0</ele>
  <time>2026-08-28T17:49:15Z</time>
  <course>0.0</course>
  <speed>0.0</speed>
  <fix>3d</fix>
</trkpt>
<trkpt lat="40.0713751" lon="-105.2297889">
  <ele>1583.05</ele>
  <time>2026-08-28T17:49:15Z</time>
  <course>247.09</course>
  <speed>0.022360679774997897</speed>
  <fix>3d</fix>
</trkpt>
<trkpt lat="40.0713749" lon="-105.229789">
  <ele>1583.0</ele>
  <time>2026-08-28T17:49:15Z</time>
  <course>0.0</course>
  <speed>0.0</speed>
  <fix>3d</fix>
</trkpt>
<trkpt lat="40.0713751" lon="-105.2297889">
  <ele>1583.05</ele>
  <time>2026-08-28T17:49:15Z</time>
  <course>247.09</course>
  <speed>0.022360679774997897</speed>
  <fix>3d</fix>
</trkpt>
<trkpt lat="40.0713749" lon="-105.229789">
  <ele>1583.0</ele>
  <time>2026-08-28T17:49:15Z</time>
  <course>0.0</course>
  <speed>0.0</speed>
  <fix>3d</fix>
</trkpt>
<trkpt lat="40.0713751" lon="-105.2297889">
  <ele>1583.05</ele>
  <time>2026-08-28T17:49:15Z</time>
  <course>247.09</course>
  <speed>0.022360679774997897</speed>
  <fix>3d</fix>
</trkpt>
<trkpt lat="40.0713749" lon="-105.229789">
  <ele>1583.0</ele>
  <time>2026-08-28T17:49:15Z</time>
  <course>0.0</course>
  <speed>0.0</speed>
  <fix>3d</fix>
</trkpt>
<trkpt lat="40.0713751" lon="-105.2297889">
  <ele>1583.05</ele>
  <time>2026-08-28T17:49:15Z</time>
  <course>247.09</course>
  <speed>0.022360679774997897</speed>
  <fix>3d</fix>
</trkpt>
<trkpt lat="40.0713749" lon="-105.229789">
  <ele>1583.0</ele>
  <time>2026-08-28T17:49:15Z</time>
  <course>0.0</course>
  <speed>0.0</speed>
  <fix>3d</fix>
</trkpt>
<trkpt lat="40.0713751" lon="-105.2297889">
  <ele>1583.04</ele>
  <time>2026-08-28T17:49:15Z</time>
  <course>247.09</course>
  <speed>0.022360679774997897</speed>
  <fix>3d</fix>
</trkpt>
<trkpt lat="40.0713749" lon="-105.229789">
  <ele>1583.0</ele>
  <time>2026-08-28T17:49:15Z</time>
  <course>0.0</course>
  <speed>0.0</speed>
  <fix>3d</fix>
</trkpt>
<trkpt lat="40.0713751" lon="-105.2297889">
  <ele>1583.04</ele>
  <time>2026-08-28T17:49:15Z</time>
  <course>247.09</course>
  <speed>0.022360679774997897</speed>
  <fix>3d</fix>
</trkpt>
<trkpt lat="40.0713749" lon="-105.229789">
  <ele>1583.0</ele>
  <time>2026-08-28T17:49:15Z</time>
  <course>0.0</course>
  <speed>0.0</speed>
  <fix>3d</fix>
</trkpt>
<trkpt lat="40.0713751" lon="-105.2297889">
  <ele>1583.03</ele>
  <time>2026-08-28T17:49:15Z</time>
  <course>247.09</course>
  <speed>0.022360679774997897</speed>
  <fix>3d</fix>
</trkpt>
<trkpt lat="40.0713749" lon="-105.229789">
  <ele>1583.0</ele>
  <time>2026-08-28T17:49:15Z</time>
  <course>0.0</course>
  <speed>0.0</speed>
  <fix>3d</fix>
</trkpt>
<trkpt lat="40.0713751" lon="-105.2297889">
  <ele>1583.03</ele>
  <time>2026-08-28T17:49:15Z</time>
  <course>247.09</course>
  <speed>0.022360679774997897</speed>
  <fix>3d</fix>
</trkpt>
<trkpt lat="40.0713749" lon="-105.229789">
  <ele>1583.0</ele>
  <time>2026-08-28T17:49:15Z</time>
  <course>0.0</course>
  <speed>0.0</speed>
  <fix>3d</fix>
</trkpt>
<trkpt lat="40.0713751" lon="-105.2297889">
  <ele>1583.02</ele>
  <time>2026-08-28T17:49:15Z</time>
  <course>247.09</course>
  <speed>0.022360679774997897</speed>
  <fix>3d</fix>
</trkpt>
<trkpt lat="40.0713749" lon="-105.229789">
  <ele>1583.0</ele>
  <time>2026-08-28T17:49:15Z</time>
  <course>0.0</course>
  <speed>0.0</speed>
  <fix>3d</fix>
</trkpt>
<trkpt lat="40.0713751" lon="-105.2297889">
  <ele>1583.02</ele>
  <time>2026-08-28T17:49:15Z</time>
  <course>247.09</course>
  <speed>0.022360679774997897</speed>
  <fix>3d</fix>
</trkpt>
<trkpt lat="40.0713749" lon="-105.229789">
  <ele>1583.0</ele>
  <time>2026-08-28T17:49:15Z</time>
  <course>0.0</course>
  <speed>0.0</speed>
  <fix>3d</fix>
</trkpt>
<trkpt lat="40.0713751" lon="-105.2297889">
  <ele>1583.01</ele>
  <time>2026-08-28T17:49:15Z</time>
  <course>247.09</course>
  <speed>0.022360679774997897</speed>
  <fix>3d</fix>
</trkpt>
<trkpt lat="40.0713749" lon="-105.229789">
  <ele>1583.0</ele>
  <time>2026-08-28T17:49:15Z</time>
  <course>0.0</course>
  <speed>0.0</speed>
  <fix>3d</fix>
</trkpt>
<trkpt lat="40.0713751" lon="-105.2297889">
  <ele>1583.0</ele>
  <time>2026-08-28T17:49:15Z</time>
  <course>247.09</course>
  <speed>0.022360679774997897</speed>
  <fix>3d</fix>
</trkpt>
<trkpt lat="40.0713749" lon="-105.229789">
  <ele>1583.0</ele>
  <time>2026-08-28T17:49:15Z</time>
  <course>0.0</course>
  <speed>0.0</speed>
  <fix>3d</fix>
</trkpt>
<trkpt lat="40.0713751" lon="-105.2297889">
  <ele>1583.0</ele>
  <time>2026-08-28T17:49:15Z</time>
  <course>247.09</course>
  <speed>0.022360679774997897</speed>
  <fix>3d</fix>
</trkpt>
<trkpt lat="40.0713749" lon="-105.229789">
  <ele>1583.0</ele>
  <time>2026-08-28T17:49:15Z</time>
  <course>0.0</course>
  <speed>0.0</speed>
  <fix>3d</fix>
</trkpt>
<trkpt lat="40.071375" lon="-105.2297889">
  <ele>1582.99</ele>
  <time>2026-08-28T17:49:15Z</time>
  <course>247.09</course>
  <speed>0.022360679774997897</speed>
  <fix>3d</fix>
</trkpt>
<trkpt lat="40.0713749" lon="-105.229789">
  <ele>1583.0</ele>
  <time>2026-08-28T17:49:15Z</time>
  <course>0.0</course>
  <speed>0.0</speed>
  <fix>3d</fix>
</trkpt>
<trkpt lat="40.0713751" lon="-105.2297889">
  <ele>1582.98</ele>
  <time>2026-08-28T17:49:15Z</time>
  <course>247.09</course>
  <speed>0.022360679774997897</speed>
  <fix>3d</fix>
</trkpt>
<trkpt lat="40.0713749" lon="-105.229789">
  <ele>1583.0</ele>
  <time>2026-08-28T17:49:15Z</time>
  <course>0.0</course>
  <speed>0.0</speed>
  <fix>3d</fix>
</trkpt>
<trkpt lat="40.071375" lon="-105.2297889">
  <ele>1582.98</ele>
  <time>2026-08-28T17:49:15Z</time>
  <course>247.09</course>
  <speed>0.022360679774997897</speed>
  <fix>3d</fix>
</trkpt>
<trkpt lat="40.0713749" lon="-105.229789">
  <ele>1583.0</ele>
  <time>2026-08-28T17:49:15Z</time>
  <course>0.0</course>
  <speed>0.0</speed>
  <fix>3d</fix>
</trkpt>
<trkpt lat="40.0713751" lon="-105.2297889">
  <ele>1582.97</ele>
  <time>2026-08-28T17:49:15Z</time>
  <course>247.09</course>
  <speed>0.022360679774997897</speed>
  <fix>3d</fix>
</trkpt>
<trkpt lat="40.0713749" lon="-105.229789">
  <ele>1583.0</ele>
  <time>2026-08-28T17:49:15Z</time>
  <course>0.0</course>
  <speed>0.0</speed>
  <fix>3d</fix>
</trkpt>
<trkpt lat="40.071375" lon="-105.2297889">
  <ele>1582.96</ele>
  <time>2026-08-28T17:49:15Z</time>
  <course>247.09</course>
  <speed>0.022360679774997897</speed>
  <fix>3d</fix>
</trkpt>
<trkpt lat="40.0713749" lon="-105.229789">
  <ele>1583.0</ele>
  <time>2026-08-28T17:49:15Z</time>
  <course>0.0</course>
  <speed>0.0</speed>
  <fix>3d</fix>
</trkpt>
<trkpt lat="40.0713751" lon="-105.2297889">
  <ele>1582.95</ele>
  <time>2026-08-28T17:49:15Z</time>
  <course>247.09</course>
  <speed>0.022360679774997897</speed>
  <fix>3d</fix>
</trkpt>
<trkpt lat="40.0713749" lon="-105.229789">
  <ele>1583.0</ele>
  <time>2026-08-28T17:49:15Z</time>
  <course>0.0</course>
  <speed>0.0</speed>
  <fix>3d</fix>
</trkpt>
<trkpt lat="40.071375" lon="-105.2297889">
  <ele>1582.94</ele>
  <time>2026-08-28T17:49:15Z</time>
  <course>247.09</course>
  <speed>0.022360679774997897</speed>
  <fix>3d</fix>
</trkpt>
<trkpt lat="40.0713749" lon="-105.229789">
  <ele>1583.0</ele>
  <time>2026-08-28T17:49:15Z</time>
  <course>0.0</course>
  <speed>0.0</speed>
  <fix>3d</fix>
</trkpt>
<trkpt lat="40.0713751" lon="-105.2297889">
  <ele>1582.94</ele>
  <time>2026-08-28T17:49:15Z</time>
  <course>247.09</course>
  <speed>0.022360679774997897</speed>
  <fix>3d</fix>
</trkpt>
<trkpt lat="40.0713749" lon="-105.229789">
  <ele>1583.0</ele>
  <time>2026-08-28T17:49:15Z</time>
  <course>0.0</course>
  <speed>0.0</speed>
  <fix>3d</fix>
</trkpt>
<trkpt lat="40.071375" lon="-105.2297889">
  <ele>1582.93</ele>
  <time>2026-08-28T17:49:15Z</time>
  <course>247.09</course>
  <speed>0.022360679774997897</speed>
  <fix>3d</fix>
</trkpt>
<trkpt lat="40.0713749" lon="-105.229789">
  <ele>1583.0</ele>
  <time>2026-08-28T17:49:15Z</time>
  <course>0.0</course>
  <speed>0.0</speed>
  <fix>3d</fix>
</trkpt>
<trkpt lat="40.0713751" lon="-105.2297889">
  <ele>1582.92</ele>
  <time>2026-08-28T17:49:15Z</time>
  <course>247.09</course>
  <speed>0.022360679774997897</speed>
  <fix>3d</fix>
</trkpt>
<trkpt lat="40.0713749" lon="-105.229789">
  <ele>1583.0</ele>
  <time>2026-08-28T17:49:15Z</time>
  <course>0.0</course>
  <speed>0.0</speed>
  <fix>3d</fix>
</trkpt>
<trkpt lat="40.071375" lon="-105.2297889">
  <ele>1582.92</ele>
  <time>2026-08-28T17:49:15Z</time>
  <course>247.09</course>
  <speed>0.022360679774997897</speed>
  <fix>3d</fix>
</trkpt>
<trkpt lat="40.0713749" lon="-105.229789">
  <ele>1583.0</ele>
  <time>2026-08-28T17:49:15Z</time>
  <course>0.0</course>
  <speed>0.0</speed>
  <fix>3d</fix>
</trkpt>
<trkpt lat="40.0713751" lon="-105.2297889">
  <ele>1582.92</ele>
  <time>2026-08-28T17:49:15Z</time>
  <course>247.09</course>
  <speed>0.022360679774997897</speed>
  <fix>3d</fix>
</trkpt>
<trkpt lat="40.0713749" lon="-105.229789">
  <ele>1583.0</ele>
  <time>2026-08-28T17:49:15Z</time>
  <course>0.0</course>
  <speed>0.0</speed>
  <fix>3d</fix>
</trkpt>
<trkpt lat="40.071375" lon="-105.2297889">
  <ele>1582.92</ele>
  <time>2026-08-28T17:49:15Z</time>
  <course>247.09</course>
  <speed>0.022360679774997897</speed>
  <fix>3d</fix>
</trkpt>
<trkpt lat="40.0713749" lon="-105.229789">
  <ele>1583.0</ele>
  <time>2026-08-28T17:49:15Z</time>
  <course>0.0</course>
  <speed>0.0</speed>
  <fix>3d</fix>
</trkpt>
<trkpt lat="40.0713751" lon="-105.2297889">
  <ele>1582.91</ele>
  <time>2026-08-28T17:49:15Z</time>
  <course>247.09</course>
  <speed>0.022360679774997897</speed>
  <fix>3d</fix>
</trkpt>
<trkpt lat="40.0713749" lon="-105.229789">
  <ele>1583.0</ele>
  <time>2026-08-28T17:49:15Z</time>
  <course>0.0</course>
  <speed>0.0</speed>
  <fix>3d</fix>
</trkpt>
<trkpt lat="40.0713751" lon="-105.2297889">
  <ele>1582.91</ele>
  <time>2026-08-28T17:49:15Z</time>
  <course>247.09</course>
  <speed>0.022360679774997897</speed>
  <fix>3d</fix>
</trkpt>
<trkpt lat="40.0713749" lon="-105.229789">
  <ele>1583.0</ele>
  <time>2026-08-28T17:49:15Z</time>
  <course>0.0</course>
  <speed>0.0</speed>
  <fix>3d</fix>
</trkpt>
<trkpt lat="40.0713751" lon="-105.2297889">
  <ele>1582.91</ele>
  <time>2026-08-28T17:49:15Z</time>
  <course>247.09</course>
  <speed>0.022360679774997897</speed>
  <fix>3d</fix>
</trkpt>
<trkpt lat="40.0713749" lon="-105.229789">
  <ele>1583.0</ele>
  <time>2026-08-28T17:49:15Z</time>
  <course>0.0</course>
  <speed>0.0</speed>
  <fix>3d</fix>
</trkpt>
<trkpt lat="40.0713751" lon="-105.2297889">
  <ele>1582.9</ele>
  <time>2026-08-28T17:49:15Z</time>
  <course>247.09</course>
  <speed>0.022360679774997897</speed>
  <fix>3d</fix>
</trkpt>
<trkpt lat="40.0713749" lon="-105.229789">
  <ele>1583.0</ele>
  <time>2026-08-28T17:49:15Z</time>
  <course>0.0</course>
  <speed>0.0</speed>
  <fix>3d</fix>
</trkpt>
<trkpt lat="40.0713751" lon="-105.2297889">
  <ele>1582.9</ele>
  <time>2026-08-28T17:49:15Z</time>
  <course>247.09</course>
  <speed>0.022360679774997897</speed>
  <fix>3d</fix>
</trkpt>
<trkpt lat="40.0713749" lon="-105.229789">
  <ele>1583.0</ele>
  <time>2026-08-28T17:49:15Z</time>
  <course>0.0</course>
  <speed>0.0</speed>
  <fix>3d</fix>
</trkpt>
<trkpt lat="40.0713751" lon="-105.2297889">
  <ele>1582.91</ele>
  <time>2026-08-28T17:49:15Z</time>
  <course>247.09</course>
  <speed>0.022360679774997897</speed>
  <fix>3d</fix>
</trkpt>
<trkpt lat="40.0713749" lon="-105.229789">
  <ele>1583.0</ele>
  <time>2026-08-28T17:49:15Z</time>
  <course>0.0</course>
  <speed>0.0</speed>
  <fix>3d</fix>
</trkpt>
<trkpt lat="40.0713751" lon="-105.2297889">
  <ele>1582.91</ele>
  <time>2026-08-28T17:49:15Z</time>
  <course>247.09</course>
  <speed>0.022360679774997897</speed>
  <fix>3d</fix>
</trkpt>
<trkpt lat="40.0713749" lon="-105.229789">
  <ele>1583.0</ele>
  <time>2026-08-28T17:49:15Z</time>
  <course>0.0</course>
  <speed>0.0</speed>
  <fix>3d</fix>
</trkpt>
<trkpt lat="40.071375" lon="-105.2297889">
  <ele>1582.92</ele>
  <time>2026-08-28T17:49:15Z</time>
  <course>247.09</course>
  <speed>0.022360679774997897</speed>
  <fix>3d</fix>
</trkpt>
<trkpt lat="40.0713749" lon="-105.229789">
  <ele>1583.0</ele>
  <time>2026-08-28T17:49:15Z</time>
  <course>0.0</course>
  <speed>0.0</speed>
  <fix>3d</fix>
</trkpt>
<trkpt lat="40.0713751" lon="-105.2297889">
  <ele>1582.93</ele>
  <time>2026-08-28T17:49:15Z</time>
  <course>247.09</course>
  <speed>0.022360679774997897</speed>
  <fix>3d</fix>
</trkpt>
<trkpt lat="40.0713749" lon="-105.229789">
  <ele>1583.0</ele>
  <time>2026-08-28T17:49:15Z</time>
  <course>0.0</course>
  <speed>0.0</speed>
  <fix>3d</fix>
</trkpt>
<trkpt lat="40.071375" lon="-105.2297889">
  <ele>1582.94</ele>
  <time>2026-08-28T17:49:15Z</time>
  <course>247.09</course>
  <speed>0.022360679774997897</speed>
  <fix>3d</fix>
</trkpt>
<trkpt lat="40.0713749" lon="-105.229789">
  <ele>1583.0</ele>
  <time>2026-08-28T17:49:15Z</time>
  <course>0.0</course>
  <speed>0.0</speed>
  <fix>3d</fix>
</trkpt>
<trkpt lat="40.0713751" lon="-105.2297889">
  <ele>1582.95</ele>
  <time>2026-08-28T17:49:15Z</time>
  <course>247.09</course>
  <speed>0.022360679774997897</speed>
  <fix>3d</fix>
</trkpt>
<trkpt lat="40.0713749" lon="-105.229789">
  <ele>1583.0</ele>
  <time>2026-08-28T17:49:15Z</time>
  <course>0.0</course>
  <speed>0.0</speed>
  <fix>3d</fix>
</trkpt>
<trkpt lat="40.071375" lon="-105.2297889">
  <ele>1582.95</ele>
  <time>2026-08-28T17:49:15Z</time>
  <course>247.09</course>
  <speed>0.022360679774997897</speed>
  <fix>3d</fix>
</trkpt>
<trkpt lat="40.0713749" lon="-105.229789">
  <ele>1583.0</ele>
  <time>2026-08-28T17:49:15Z</time>
  <course>0.0</course>
  <speed>0.0</speed>
  <fix>3d</fix>
</trkpt>
<trkpt lat="40.0713751" lon="-105.2297889">
  <ele>1582.96</ele>
  <time>2026-08-28T17:49:15Z</time>
  <course>247.09</course>
  <speed>0.022360679774997897</speed>
  <fix>3d</fix>
</trkpt>
<trkpt lat="40.0713749" lon="-105.229789">
  <ele>1583.0</ele>
  <time>2026-08-28T17:49:15Z</time>
  <course>0.0</course>
  <speed>0.0</speed>
  <fix>3d</fix>
</trkpt>
<trkpt lat="40.071375" lon="-105.2297889">
  <ele>1582.97</ele>
  <time>2026-08-28T17:49:15Z</time>
  <course>247.09</course>
  <speed>0.022360679774997897</speed>
  <fix>3d</fix>
</trkpt>
<trkpt lat="40.0713749" lon="-105.229789">
  <ele>1583.0</ele>
  <time>2026-08-28T17:49:15Z</time>
  <course>0.0</course>
  <speed>0.0</speed>
  <fix>3d</fix>
</trkpt>
<trkpt lat="40.0713751" lon="-105.2297889">
  <ele>1582.97</ele>
  <time>2026-08-28T17:49:15Z</time>
  <course>247.09</course>
  <speed>0.022360679774997897</speed>
  <fix>3d</fix>
</trkpt>
<trkpt lat="40.0713749" lon="-105.229789">
  <ele>1583.0</ele>
  <time>2026-08-28T17:49:15Z</time>
  <course>0.0</course>
  <speed>0.0</speed>
  <fix>3d</fix>
</trkpt>
<trkpt lat="40.071375" lon="-105.2297889">
  <ele>1582.97</ele>
  <time>2026-08-28T17:49:15Z</time>
  <course>247.09</course>
  <speed>0.022360679774997897</speed>
  <fix>3d</fix>
</trkpt>
<trkpt lat="40.0713749" lon="-105.229789">
  <ele>1583.0</ele>
  <time>2026-08-28T17:49:15Z</time>
  <course>0.0</course>
  <speed>0.0</speed>
  <fix>3d</fix>
</trkpt>
<trkpt lat="40.0713751" lon="-105.2297889">
  <ele>1582.97</ele>
  <time>2026-08-28T17:49:15Z</time>
  <course>247.09</course>
  <speed>0.022360679774997897</speed>
  <fix>3d</fix>
</trkpt>
<trkpt lat="40.0713749" lon="-105.229789">
  <ele>1583.0</ele>
  <time>2026-08-28T17:49:15Z</time>
  <course>0.0</course>
  <speed>0.0</speed>
  <fix>3d</fix>
</trkpt>
<trkpt lat="40.071375" lon="-105.2297889">
  <ele>1582.97</ele>
  <time>2026-08-28T17:49:15Z</time>
  <course>247.09</course>
  <speed>0.022360679774997897</speed>
  <fix>3d</fix>
</trkpt>
<trkpt lat="40.0713749" lon="-105.229789">
  <ele>1583.0</ele>
  <time>2026-08-28T17:49:15Z</time>
  <course>0.0</course>
  <speed>0.0</speed>
  <fix>3d</fix>
</trkpt>
<trkpt lat="40.0713751" lon="-105.2297889">
  <ele>1582.97</ele>
  <time>2026-08-28T17:49:15Z</time>
  <course>247.09</course>
  <speed>0.022360679774997897</speed>
  <fix>3d</fix>
</trkpt>
<trkpt lat="40.0713749" lon="-105.229789">
  <ele>1583.0</ele>
  <time>2026-08-28T17:49:15Z</time>
  <course>0.0</course>
  <speed>0.0</speed>
  <fix>3d</fix>
</trkpt>
<trkpt lat="40.071375" lon="-105.2297889">
  <ele>1582.97</ele>
  <time>2026-08-28T17:49:15Z</time>
  <course>247.09</course>
  <speed>0.022360679774997897</speed>
  <fix>3d</fix>
</trkpt>
<trkpt lat="40.0713749" lon="-105.229789">
  <ele>1583.0</ele>
  <time>2026-08-28T17:49:15Z</time>
  <course>0.0</course>
  <speed>0.0</speed>
  <fix>3d</fix>
</trkpt>
<trkpt lat="40.0713751" lon="-105.2297889">
  <ele>1582.96</ele>
  <time>2026-08-28T17:49:15Z</time>
  <course>247.09</course>
  <speed>0.022360679774997897</speed>
  <fix>3d</fix>
</trkpt>
<trkpt lat="40.0713749" lon="-105.229789">
  <ele>1583.0</ele>
  <time>2026-08-28T17:49:15Z</time>
  <course>0.0</course>
  <speed>0.0</speed>
  <fix>3d</fix>
</trkpt>
<trkpt lat="40.0713751" lon="-105.2297889">
  <ele>1582.96</ele>
  <time>2026-08-28T17:49:15Z</time>
  <course>247.09</course>
  <speed>0.022360679774997897</speed>
  <fix>3d</fix>
</trkpt>
<trkpt lat="40.0713749" lon="-105.229789">
  <ele>1583.0</ele>
  <time>2026-08-28T17:49:15Z</time>
  <course>0.0</course>
  <speed>0.0</speed>
  <fix>3d</fix>
</trkpt>
<trkpt lat="40.0713751" lon="-105.2297889">
  <ele>1582.95</ele>
  <time>2026-08-28T17:49:15Z</time>
  <course>247.09</course>
  <speed>0.022360679774997897</speed>
  <fix>3d</fix>
</trkpt>
<trkpt lat="40.0713749" lon="-105.229789">
  <ele>1583.0</ele>
  <time>2026-08-28T17:49:15Z</time>
  <course>0.0</course>
  <speed>0.0</speed>
  <fix>3d</fix>
</trkpt>
<trkpt lat="40.0713751" lon="-105.2297889">
  <ele>1582.95</ele>
  <time>2026-08-28T17:49:15Z</time>
  <course>247.09</course>
  <speed>0.022360679774997897</speed>
  <fix>3d</fix>
</trkpt>
<trkpt lat="40.0713749" lon="-105.229789">
  <ele>1583.0</ele>
  <time>2026-08-28T17:49:15Z</time>
  <course>0.0</course>
  <speed>0.0</speed>
  <fix>3d</fix>
</trkpt>
<trkpt lat="40.0713751" lon="-105.2297889">
  <ele>1582.95</ele>
  <time>2026-08-28T17:49:15Z</time>
  <course>247.09</course>
  <speed>0.022360679774997897</speed>
  <fix>3d</fix>
</trkpt>
<trkpt lat="40.0713749" lon="-105.229789">
  <ele>1583.0</ele>
  <time>2026-08-28T17:49:15Z</time>
  <course>0.0</course>
  <speed>0.0</speed>
  <fix>3d</fix>
</trkpt>
<trkpt lat="40.0713751" lon="-105.2297889">
  <ele>1582.95</ele>
  <time>2026-08-28T17:49:15Z</time>
  <course>247.09</course>
  <speed>0.022360679774997897</speed>
  <fix>3d</fix>
</trkpt>
<trkpt lat="40.0713749" lon="-105.229789">
  <ele>1583.0</ele>
  <time>2026-08-28T17:49:15Z</time>
  <course>0.0</course>
  <speed>0.0</speed>
  <fix>3d</fix>
</trkpt>
<trkpt lat="40.0713751" lon="-105.2297889">
  <ele>1582.95</ele>
  <time>2026-08-28T17:49:15Z</time>
  <course>247.09</course>
  <speed>0.022360679774997897</speed>
  <fix>3d</fix>
</trkpt>
<trkpt lat="40.0713749" lon="-105.229789">
  <ele>1583.0</ele>
  <time>2026-08-28T17:49:15Z</time>
  <course>0.0</course>
  <speed>0.0</speed>
  <fix>3d</fix>
</trkpt>
<trkpt lat="40.0713751" lon="-105.2297889">
  <ele>1582.95</ele>
  <time>2026-08-28T17:49:15Z</time>
  <course>247.09</course>
  <speed>0.022360679774997897</speed>
  <fix>3d</fix>
</trkpt>
<trkpt lat="40.0713749" lon="-105.229789">
  <ele>1583.0</ele>
  <time>2026-08-28T17:49:15Z</time>
  <course>0.0</course>
  <speed>0.0</speed>
  <fix>3d</fix>
</trkpt>
<trkpt lat="40.0713751" lon="-105.2297889">
  <ele>1582.95</ele>
  <time>2026-08-28T17:49:15Z</time>
  <course>247.09</course>
  <speed>0.022360679774997897</speed>
  <fix>3d</fix>
</trkpt>
<trkpt lat="40.0713749" lon="-105.229789">
  <ele>1583.0</ele>
  <time>2026-08-28T17:49:15Z</time>
  <course>0.0</course>
  <speed>0.0</speed>
  <fix>3d</fix>
</trkpt>
<trkpt lat="40.071375" lon="-105.2297889">
  <ele>1582.94</ele>
  <time>2026-08-28T17:49:15Z</time>
  <course>247.09</course>
  <speed>0.022360679774997897</speed>
  <fix>3d</fix>
</trkpt>
<trkpt lat="40.0713749" lon="-105.229789">
  <ele>1583.0</ele>
  <time>2026-08-28T17:49:15Z</time>
  <course>0.0</course>
  <speed>0.0</speed>
  <fix>3d</fix>
</trkpt>
<trkpt lat="40.0713751" lon="-105.2297889">
  <ele>1582.94</ele>
  <time>2026-08-28T17:49:15Z</time>
  <course>247.09</course>
  <speed>0.022360679774997897</speed>
  <fix>3d</fix>
</trkpt>
<trkpt lat="40.0713749" lon="-105.229789">
  <ele>1583.0</ele>
  <time>2026-08-28T17:49:15Z</time>
  <course>0.0</course>
  <speed>0.0</speed>
  <fix>3d</fix>
</trkpt>
<trkpt lat="40.071375" lon="-105.2297889">
  <ele>1582.93</ele>
  <time>2026-08-28T17:49:15Z</time>
  <course>247.09</course>
  <speed>0.022360679774997897</speed>
  <fix>3d</fix>
</trkpt>
<trkpt lat="40.0713749" lon="-105.229789">
  <ele>1583.0</ele>
  <time>2026-08-28T17:49:15Z</time>
  <course>0.0</course>
  <speed>0.0</speed>
  <fix>3d</fix>
</trkpt>
<trkpt lat="40.0713751" lon="-105.2297889">
  <ele>1582.93</ele>
  <time>2026-08-28T17:49:15Z</time>
  <course>247.09</course>
  <speed>0.022360679774997897</speed>
  <fix>3d</fix>
</trkpt>
<trkpt lat="40.0713749" lon="-105.229789">
  <ele>1583.0</ele>
  <time>2026-08-28T17:49:15Z</time>
  <course>0.0</course>
  <speed>0.0</speed>
  <fix>3d</fix>
</trkpt>
<trkpt lat="40.0713751" lon="-105.2297889">
  <ele>1582.93</ele>
  <time>2026-08-28T17:49:15Z</time>
  <course>247.09</course>
  <speed>0.022360679774997897</speed>
  <fix>3d</fix>
</trkpt>
<trkpt lat="40.0713749" lon="-105.229789">
  <ele>1583.0</ele>
  <time>2026-08-28T17:49:15Z</time>
  <course>0.0</course>
  <speed>0.0</speed>
  <fix>3d</fix>
</trkpt>
<trkpt lat="40.0713751" lon="-105.2297889">
  <ele>1582.93</ele>
  <time>2026-08-28T17:49:15Z</time>
  <course>247.09</course>
  <speed>0.022360679774997897</speed>
  <fix>3d</fix>
</trkpt>
<trkpt lat="40.0713749" lon="-105.229789">
  <ele>1583.0</ele>
  <time>2026-08-28T17:49:15Z</time>
  <course>0.0</course>
  <speed>0.0</speed>
  <fix>3d</fix>
</trkpt>
<trkpt lat="40.0713751" lon="-105.2297889">
  <ele>1582.93</ele>
  <time>2026-08-28T17:49:15Z</time>
  <course>247.09</course>
  <speed>0.022360679774997897</speed>
  <fix>3d</fix>
</trkpt>
<trkpt lat="40.0713749" lon="-105.229789">
  <ele>1583.0</ele>
  <time>2026-08-28T17:49:15Z</time>
  <course>0.0</course>
  <speed>0.0</speed>
  <fix>3d</fix>
</trkpt>
<trkpt lat="40.0713751" lon="-105.2297889">
  <ele>1582.93</ele>
  <time>2026-08-28T17:49:15Z</time>
  <course>247.09</course>
  <speed>0.022360679774997897</speed>
  <fix>3d</fix>
</trkpt>
<trkpt lat="40.0713749" lon="-105.229789">
  <ele>1583.0</ele>
  <time>2026-08-28T17:49:15Z</time>
  <course>0.0</course>
  <speed>0.0</speed>
  <fix>3d</fix>
</trkpt>
<trkpt lat="40.0713751" lon="-105.2297889">
  <ele>1582.93</ele>
  <time>2026-08-28T17:49:15Z</time>
  <course>247.09</course>
  <speed>0.022360679774997897</speed>
  <fix>3d</fix>
</trkpt>
<trkpt lat="40.0713749" lon="-105.229789">
  <ele>1583.0</ele>
  <time>2026-08-28T17:49:15Z</time>
  <course>0.0</course>
  <speed>0.0</speed>
  <fix>3d</fix>
</trkpt>
<trkpt lat="40.0713751" lon="-105.2297889">
  <ele>1582.93</ele>
  <time>2026-08-28T17:49:15Z</time>
  <course>247.09</course>
  <speed>0.022360679774997897</speed>
  <fix>3d</fix>
</trkpt>
<trkpt lat="40.0713749" lon="-105.229789">
  <ele>1583.0</ele>
  <time>2026-08-28T17:49:15Z</time>
  <course>0.0</course>
  <speed>0.0</speed>
  <fix>3d</fix>
</trkpt>
<trkpt lat="40.0713751" lon="-105.2297889">
  <ele>1582.93</ele>
  <time>2026-08-28T17:49:15Z</time>
  <course>247.09</course>
  <speed>0.022360679774997897</speed>
  <fix>3d</fix>
</trkpt>
<trkpt lat="40.0713749" lon="-105.229789">
  <ele>1583.0</ele>
  <time>2026-08-28T17:49:15Z</time>
  <course>0.0</course>
  <speed>0.0</speed>
  <fix>3d</fix>
</trkpt>
<trkpt lat="40.0713751" lon="-105.2297889">
  <ele>1582.93</ele>
  <time>2026-08-28T17:49:15Z</time>
  <course>247.09</course>
  <speed>0.022360679774997897</speed>
  <fix>3d</fix>
</trkpt>
<trkpt lat="40.0713749" lon="-105.229789">
  <ele>1583.0</ele>
  <time>2026-08-28T17:49:15Z</time>
  <course>0.0</course>
  <speed>0.0</speed>
  <fix>3d</fix>
</trkpt>
<trkpt lat="40.0713751" lon="-105.2297889">
  <ele>1582.93</ele>
  <time>2026-08-28T17:49:15Z</time>
  <course>247.09</course>
  <speed>0.022360679774997897</speed>
  <fix>3d</fix>
</trkpt>
<trkpt lat="40.0713749" lon="-105.229789">
  <ele>1583.0</ele>
  <time>2026-08-28T17:49:15Z</time>
  <course>0.0</course>
  <speed>0.0</speed>
  <fix>3d</fix>
</trkpt>
<trkpt lat="40.0713751" lon="-105.2297889">
  <ele>1582.93</ele>
  <time>2026-08-28T17:49:15Z</time>
  <course>247.09</course>
  <speed>0.022360679774997897</speed>
  <fix>3d</fix>
</trkpt>
<trkpt lat="40.0713749" lon="-105.229789">
  <ele>1583.0</ele>
  <time>2026-08-28T17:49:15Z</time>
  <course>0.0</course>
  <speed>0.0</speed>
  <fix>3d</fix>
</trkpt>
<trkpt lat="40.0713751" lon="-105.2297889">
  <ele>1582.93</ele>
  <time>2026-08-28T17:49:15Z</time>
  <course>247.09</course>
  <speed>0.022360679774997897</speed>
  <fix>3d</fix>
</trkpt>
<trkpt lat="40.0713749" lon="-105.229789">
  <ele>1583.0</ele>
  <time>2026-08-28T17:49:15Z</time>
  <course>0.0</course>
  <speed>0.0</speed>
  <fix>3d</fix>
</trkpt>
<trkpt lat="40.0713751" lon="-105.2297889">
  <ele>1582.93</ele>
  <time>2026-08-28T17:49:15Z</time>
  <course>247.09</course>
  <speed>0.022360679774997897</speed>
  <fix>3d</fix>
</trkpt>
<trkpt lat="40.0713749" lon="-105.229789">
  <ele>1583.0</ele>
  <time>2026-08-28T17:49:15Z</time>
  <course>0.0</course>
  <speed>0.0</speed>
  <fix>3d</fix>
</trkpt>
<trkpt lat="40.0713751" lon="-105.2297889">
  <ele>1582.93</ele>
  <time>2026-08-28T17:49:15Z</time>
  <course>247.09</course>
  <speed>0.022360679774997897</speed>
  <fix>3d</fix>
</trkpt>
<trkpt lat="40.0713749" lon="-105.229789">
  <ele>1583.0</ele>
  <time>2026-08-28T17:49:15Z</time>
  <course>0.0</course>
  <speed>0.0</speed>
  <fix>3d</fix>
</trkpt>
<trkpt lat="40.0713751" lon="-105.2297889">
  <ele>1582.93</ele>
  <time>2026-08-28T17:49:15Z</time>
  <course>247.09</course>
  <speed>0.022360679774997897</speed>
  <fix>3d</fix>
</trkpt>
<trkpt lat="40.0713749" lon="-105.229789">
  <ele>1583.0</ele>
  <time>2026-08-28T17:49:15Z</time>
  <course>0.0</course>
  <speed>0.0</speed>
  <fix>3d</fix>
</trkpt>
<trkpt lat="40.0713751" lon="-105.2297889">
  <ele>1582.93</ele>
  <time>2026-08-28T17:49:15Z</time>
  <course>247.09</course>
  <speed>0.022360679774997897</speed>
  <fix>3d</fix>
</trkpt>
<trkpt lat="40.0713749" lon="-105.229789">
  <ele>1583.0</ele>
  <time>2026-08-28T17:49:15Z</time>
  <course>0.0</course>
  <speed>0.0</speed>
  <fix>3d</fix>
</trkpt>
<trkpt lat="40.0713751" lon="-105.2297889">
  <ele>1582.93</ele>
  <time>2026-08-28T17:49:15Z</time>
  <course>247.09</course>
  <speed>0.022360679774997897</speed>
  <fix>3d</fix>
</trkpt>
<trkpt lat="40.0713749" lon="-105.229789">
  <ele>1583.0</ele>
  <time>2026-08-28T17:49:15Z</time>
  <course>0.0</course>
  <speed>0.0</speed>
  <fix>3d</fix>
</trkpt>
<trkpt lat="40.0713751" lon="-105.2297889">
  <ele>1582.93</ele>
  <time>2026-08-28T17:49:15Z</time>
  <course>247.09</course>
  <speed>0.022360679774997897</speed>
  <fix>3d</fix>
</trkpt>
<trkpt lat="40.0713749" lon="-105.229789">
  <ele>1583.0</ele>
  <time>2026-08-28T17:49:15Z</time>
  <course>0.0</course>
  <speed>0.0</speed>
  <fix>3d</fix>
</trkpt>
<trkpt lat="40.0713751" lon="-105.2297889">
  <ele>1582.93</ele>
  <time>2026-08-28T17:49:15Z</time>
  <course>247.09</course>
  <speed>0.022360679774997897</speed>
  <fix>3d</fix>
</trkpt>
<trkpt lat="40.0713749" lon="-105.229789">
  <ele>1583.0</ele>
  <time>2026-08-28T17:49:15Z</time>
  <course>0.0</course>
  <speed>0.0</speed>
  <fix>3d</fix>
</trkpt>
<trkpt lat="40.071375" lon="-105.2297889">
  <ele>1582.93</ele>
  <time>2026-08-28T17:49:15Z</time>
  <course>247.09</course>
  <speed>0.022360679774997897</speed>
  <fix>3d</fix>
</trkpt>
<trkpt lat="40.0713749" lon="-105.229789">
  <ele>1583.0</ele>
  <time>2026-08-28T17:49:15Z</time>
  <course>0.0</course>
  <speed>0.0</speed>
  <fix>3d</fix>
</trkpt>
<trkpt lat="40.0713751" lon="-105.2297889">
  <ele>1582.93</ele>
  <time>2026-08-28T17:49:15Z</time>
  <course>247.09</course>
  <speed>0.022360679774997897</speed>
  <fix>3d</fix>
</trkpt>
<trkpt lat="40.0713749" lon="-105.229789">
  <ele>1583.0</ele>
  <time>2026-08-28T17:49:15Z</time>
  <course>0.0</course>
  <speed>0.0</speed>
  <fix>3d</fix>
</trkpt>
<trkpt lat="40.071375" lon="-105.2297889">
  <ele>1582.93</ele>
  <time>2026-08-28T17:49:15Z</time>
  <course>247.09</course>
  <speed>0.022360679774997897</speed>
  <fix>3d</fix>
</trkpt>
<trkpt lat="40.0713749" lon="-105.229789">
  <ele>1583.0</ele>
  <time>2026-08-28T17:49:15Z</time>
  <course>0.0</course>
  <speed>0.0</speed>
  <fix>3d</fix>
</trkpt>
<trkpt lat="40.0713751" lon="-105.2297889">
  <ele>1582.93</ele>
  <time>2026-08-28T17:49:15Z</time>
  <course>247.09</course>
  <speed>0.022360679774997897</speed>
  <fix>3d</fix>
</trkpt>
<trkpt lat="40.0713749" lon="-105.229789">
  <ele>1583.0</ele>
  <time>2026-08-28T17:49:15Z</time>
  <course>0.0</course>
  <speed>0.0</speed>
  <fix>3d</fix>
</trkpt>
<trkpt lat="40.071375" lon="-105.2297889">
  <ele>1582.93</ele>
  <time>2026-08-28T17:49:15Z</time>
  <course>247.09</course>
  <speed>0.022360679774997897</speed>
  <fix>3d</fix>
</trkpt>
<trkpt lat="40.0713749" lon="-105.229789">
  <ele>1583.0</ele>
  <time>2026-08-28T17:49:15Z</time>
  <course>0.0</course>
  <speed>0.0</speed>
  <fix>3d</fix>
</trkpt>
<trkpt lat="40.0713751" lon="-105.2297889">
  <ele>1582.94</ele>
  <time>2026-08-28T17:49:15Z</time>
  <course>247.09</course>
  <speed>0.022360679774997897</speed>
  <fix>3d</fix>
</trkpt>
<trkpt lat="40.0713749" lon="-105.229789">
  <ele>1583.0</ele>
  <time>2026-08-28T17:49:15Z</time>
  <course>0.0</course>
  <speed>0.0</speed>
  <fix>3d</fix>
</trkpt>
<trkpt lat="40.0713751" lon="-105.2297889">
  <ele>1582.95</ele>
  <time>2026-08-28T17:49:15Z</time>
  <course>247.09</course>
  <speed>0.022360679774997897</speed>
  <fix>3d</fix>
</trkpt>
<trkpt lat="40.0713749" lon="-105.229789">
  <ele>1583.0</ele>
  <time>2026-08-28T17:49:15Z</time>
  <course>0.0</course>
  <speed>0.0</speed>
  <fix>3d</fix>
</trkpt>
<trkpt lat="40.0713751" lon="-105.2297889">
  <ele>1582.95</ele>
  <time>2026-08-28T17:49:15Z</time>
  <course>247.09</course>
  <speed>0.022360679774997897</speed>
  <fix>3d</fix>
</trkpt>
<trkpt lat="40.0713749" lon="-105.229789">
  <ele>1583.0</ele>
  <time>2026-08-28T17:49:15Z</time>
  <course>0.0</course>
  <speed>0.0</speed>
  <fix>3d</fix>
</trkpt>
<trkpt lat="40.0713751" lon="-105.2297889">
  <ele>1582.96</ele>
  <time>2026-08-28T17:49:15Z</time>
  <course>247.09</course>
  <speed>0.022360679774997897</speed>
  <fix>3d</fix>
</trkpt>
<trkpt lat="40.0713749" lon="-105.229789">
  <ele>1583.0</ele>
  <time>2026-08-28T17:49:15Z</time>
  <course>0.0</course>
  <speed>0.0</speed>
  <fix>3d</fix>
</trkpt>
<trkpt lat="40.0713751" lon="-105.2297889">
  <ele>1582.97</ele>
  <time>2026-08-28T17:49:15Z</time>
  <course>247.09</course>
  <speed>0.022360679774997897</speed>
  <fix>3d</fix>
</trkpt>
<trkpt lat="40.0713749" lon="-105.229789">
  <ele>1583.0</ele>
  <time>2026-08-28T17:49:15Z</time>
  <course>0.0</course>
  <speed>0.0</speed>
  <fix>3d</fix>
</trkpt>
<trkpt lat="40.0713751" lon="-105.2297889">
  <ele>1582.98</ele>
  <time>2026-08-28T17:49:15Z</time>
  <course>247.09</course>
  <speed>0.022360679774997897</speed>
  <fix>3d</fix>
</trkpt>
<trkpt lat="40.0713749" lon="-105.229789">
  <ele>1583.0</ele>
  <time>2026-08-28T17:49:15Z</time>
  <course>0.0</course>
  <speed>0.0</speed>
  <fix>3d</fix>
</trkpt>
<trkpt lat="40.0713751" lon="-105.2297889">
  <ele>1582.99</ele>
  <time>2026-08-28T17:49:15Z</time>
  <course>247.09</course>
  <speed>0.022360679774997897</speed>
  <fix>3d</fix>
</trkpt>
<trkpt lat="40.0713749" lon="-105.229789">
  <ele>1583.0</ele>
  <time>2026-08-28T17:49:15Z</time>
  <course>0.0</course>
  <speed>0.0</speed>
  <fix>3d</fix>
</trkpt>
<trkpt lat="40.0713751" lon="-105.2297889">
  <ele>1582.99</ele>
  <time>2026-08-28T17:49:15Z</time>
  <course>247.09</course>
  <speed>0.022360679774997897</speed>
  <fix>3d</fix>
</trkpt>
<trkpt lat="40.0713749" lon="-105.229789">
  <ele>1583.0</ele>
  <time>2026-08-28T17:49:15Z</time>
  <course>0.0</course>
  <speed>0.0</speed>
  <fix>3d</fix>
</trkpt>
<trkpt lat="40.0713751" lon="-105.2297889">
  <ele>1583.0</ele>
  <time>2026-08-28T17:49:15Z</time>
  <course>247.09</course>
  <speed>0.022360679774997897</speed>
  <fix>3d</fix>
</trkpt>
<trkpt lat="40.0713749" lon="-105.229789">
  <ele>1583.0</ele>
  <time>2026-08-28T17:49:15Z</time>
  <course>0.0</course>
  <speed>0.0</speed>
  <fix>3d</fix>
</trkpt>
<trkpt lat="40.0713751" lon="-105.2297889">
  <ele>1583.0</ele>
  <time>2026-08-28T17:49:15Z</time>
  <course>247.09</course>
  <speed>0.022360679774997897</speed>
  <fix>3d</fix>
</trkpt>
<trkpt lat="40.0713749" lon="-105.229789">
  <ele>1583.0</ele>
  <time>2026-08-28T17:49:15Z</time>
  <course>0.0</course>
  <speed>0.0</speed>
  <fix>3d</fix>
</trkpt>
<trkpt lat="40.0713751" lon="-105.2297889">
  <ele>1583.0</ele>
  <time>2026-08-28T17:49:15Z</time>
  <course>247.09</course>
  <speed>0.022360679774997897</speed>
  <fix>3d</fix>
</trkpt>
<trkpt lat="40.0713749" lon="-105.229789">
  <ele>1583.0</ele>
  <time>2026-08-28T17:49:15Z</time>
  <course>0.0</course>
  <speed>0.0</speed>
  <fix>3d</fix>
</trkpt>
<trkpt lat="40.0713751" lon="-105.2297889">
  <ele>1582.99</ele>
  <time>2026-08-28T17:49:15Z</time>
  <course>247.09</course>
  <speed>0.022360679774997897</speed>
  <fix>3d</fix>
</trkpt>
<trkpt lat="40.0713749" lon="-105.229789">
  <ele>1583.0</ele>
  <time>2026-08-28T17:49:15Z</time>
  <course>0.0</course>
  <speed>0.0</speed>
  <fix>3d</fix>
</trkpt>
<trkpt lat="40.0713751" lon="-105.2297889">
  <ele>1582.99</ele>
  <time>2026-08-28T17:49:15Z</time>
  <course>247.09</course>
  <speed>0.022360679774997897</speed>
  <fix>3d</fix>
</trkpt>
<trkpt lat="40.0713749" lon="-105.229789">
  <ele>1583.0</ele>
  <time>2026-08-28T17:49:15Z</time>
  <course>0.0</course>
  <speed>0.0</speed>
  <fix>3d</fix>
</trkpt>
<trkpt lat="40.0713751" lon="-105.2297889">
  <ele>1582.99</ele>
  <time>2026-08-28T17:49:15Z</time>
  <course>247.09</course>
  <speed>0.022360679774997897</speed>
  <fix>3d</fix>
</trkpt>
<trkpt lat="40.0713749" lon="-105.229789">
  <ele>1583.0</ele>
  <time>2026-08-28T17:49:15Z</time>
  <course>0.0</course>
  <speed>0.0</speed>
  <fix>3d</fix>
</trkpt>
<trkpt lat="40.0713751" lon="-105.2297889">
  <ele>1582.98</ele>
  <time>2026-08-28T17:49:15Z</time>
  <course>247.09</course>
  <speed>0.022360679774997897</speed>
  <fix>3d</fix>
</trkpt>
<trkpt lat="40.0713749" lon="-105.229789">
  <ele>1583.0</ele>
  <time>2026-08-28T17:49:15Z</time>
  <course>0.0</course>
  <speed>0.0</speed>
  <fix>3d</fix>
</trkpt>
<trkpt lat="40.071375" lon="-105.2297889">
  <ele>1582.98</ele>
  <time>2026-08-28T17:49:15Z</time>
  <course>247.09</course>
  <speed>0.022360679774997897</speed>
  <fix>3d</fix>
</trkpt>
<trkpt lat="40.0713749" lon="-105.229789">
  <ele>1583.0</ele>
  <time>2026-08-28T17:49:15Z</time>
  <course>0.0</course>
  <speed>0.0</speed>
  <fix>3d</fix>
</trkpt>
<trkpt lat="40.0713751" lon="-105.2297889">
  <ele>1582.97</ele>
  <time>2026-08-28T17:49:15Z</time>
  <course>247.09</course>
  <speed>0.022360679774997897</speed>
  <fix>3d</fix>
</trkpt>
<trkpt lat="40.0713749" lon="-105.229789">
  <ele>1583.0</ele>
  <time>2026-08-28T17:49:15Z</time>
  <course>0.0</course>
  <speed>0.0</speed>
  <fix>3d</fix>
</trkpt>
<trkpt lat="40.071375" lon="-105.2297889">
  <ele>1582.96</ele>
  <time>2026-08-28T17:49:15Z</time>
  <course>247.09</course>
  <speed>0.022360679774997897</speed>
  <fix>3d</fix>
</trkpt>
<trkpt lat="40.0713749" lon="-105.229789">
  <ele>1583.0</ele>
  <time>2026-08-28T17:49:15Z</time>
  <course>0.0</course>
  <speed>0.0</speed>
  <fix>3d</fix>
</trkpt>
<trkpt lat="40.0713751" lon="-105.2297889">
  <ele>1582.96</ele>
  <time>2026-08-28T17:49:15Z</time>
  <course>247.09</course>
  <speed>0.022360679774997897</speed>
  <fix>3d</fix>
</trkpt>
<trkpt lat="40.0713749" lon="-105.229789">
  <ele>1583.0</ele>
  <time>2026-08-28T17:49:15Z</time>
  <course>0.0</course>
  <speed>0.0</speed>
  <fix>3d</fix>
</trkpt>
<trkpt lat="40.071375" lon="-105.2297889">
  <ele>1582.95</ele>
  <time>2026-08-28T17:49:15Z</time>
  <course>247.09</course>
  <speed>0.022360679774997897</speed>
  <fix>3d</fix>
</trkpt>
<trkpt lat="40.0713749" lon="-105.229789">
  <ele>1583.0</ele>
  <time>2026-08-28T17:49:15Z</time>
  <course>0.0</course>
  <speed>0.0</speed>
  <fix>3d</fix>
</trkpt>
<trkpt lat="40.0713751" lon="-105.2297889">
  <ele>1582.96</ele>
  <time>2026-08-28T17:49:15Z</time>
  <course>247.09</course>
  <speed>0.022360679774997897</speed>
  <fix>3d</fix>
</trkpt>
<trkpt lat="40.0713749" lon="-105.229789">
  <ele>1583.0</ele>
  <time>2026-08-28T17:49:15Z</time>
  <course>0.0</course>
  <speed>0.0</speed>
  <fix>3d</fix>
</trkpt>
<trkpt lat="40.071375" lon="-105.2297889">
  <ele>1582.96</ele>
  <time>2026-08-28T17:49:15Z</time>
  <course>247.09</course>
  <speed>0.022360679774997897</speed>
  <fix>3d</fix>
</trkpt>
<trkpt lat="40.0713749" lon="-105.229789">
  <ele>1583.0</ele>
  <time>2026-08-28T17:49:15Z</time>
  <course>0.0</course>
  <speed>0.0</speed>
  <fix>3d</fix>
</trkpt>
<trkpt lat="40.0713751" lon="-105.2297889">
  <ele>1582.97</ele>
  <time>2026-08-28T17:49:15Z</time>
  <course>247.09</course>
  <speed>0.022360679774997897</speed>
  <fix>3d</fix>
</trkpt>
<trkpt lat="40.0713749" lon="-105.229789">
  <ele>1583.0</ele>
  <time>2026-08-28T17:49:15Z</time>
  <course>0.0</course>
  <speed>0.0</speed>
  <fix>3d</fix>
</trkpt>
<trkpt lat="40.071375" lon="-105.2297889">
  <ele>1582.98</ele>
  <time>2026-08-28T17:49:15Z</time>
  <course>247.09</course>
  <speed>0.022360679774997897</speed>
  <fix>3d</fix>
</trkpt>
<trkpt lat="40.0713749" lon="-105.229789">
  <ele>1583.0</ele>
  <time>2026-08-28T17:49:15Z</time>
  <course>0.0</course>
  <speed>0.0</speed>
  <fix>3d</fix>
</trkpt>
<trkpt lat="40.0713751" lon="-105.2297889">
  <ele>1582.99</ele>
  <time>2026-08-28T17:49:15Z</time>
  <course>247.09</course>
  <speed>0.022360679774997897</speed>
  <fix>3d</fix>
</trkpt>
<trkpt lat="40.0713749" lon="-105.229789">
  <ele>1583.0</ele>
  <time>2026-08-28T17:49:15Z</time>
  <course>0.0</course>
  <speed>0.0</speed>
  <fix>3d</fix>
</trkpt>
<trkpt lat="40.071375" lon="-105.2297889">
  <ele>1582.99</ele>
  <time>2026-08-28T17:49:15Z</time>
  <course>247.09</course>
  <speed>0.022360679774997897</speed>
  <fix>3d</fix>
</trkpt>
<trkpt lat="40.0713749" lon="-105.229789">
  <ele>1583.0</ele>
  <time>2026-08-28T17:49:15Z</time>
  <course>0.0</course>
  <speed>0.0</speed>
  <fix>3d</fix>
</trkpt>
<trkpt lat="40.0713751" lon="-105.2297889">
  <ele>1583.0</ele>
  <time>2026-08-28T17:49:16Z</time>
  <course>247.09</course>
  <speed>0.022360679774997897</speed>
  <fix>3d</fix>
</trkpt>
<trkpt lat="40.0713749" lon="-105.229789">
  <ele>1583.0</ele>
  <time>2026-08-28T17:49:16Z</time>
  <course>0.0</course>
  <speed>0.0</speed>
  <fix>3d</fix>
</trkpt>
<trkpt lat="40.0713751" lon="-105.2297889">
  <ele>1583.01</ele>
  <time>2026-08-28T17:49:16Z</time>
  <course>247.09</course>
  <speed>0.022360679774997897</speed>
  <fix>3d</fix>
</trkpt>
<trkpt lat="40.0713749" lon="-105.229789">
  <ele>1583.0</ele>
  <time>2026-08-28T17:49:16Z</time>
  <course>0.0</course>
  <speed>0.0</speed>
  <fix>3d</fix>
</trkpt>
<trkpt lat="40.0713751" lon="-105.2297889">
  <ele>1583.01</ele>
  <time>2026-08-28T17:49:16Z</time>
  <course>247.09</course>
  <speed>0.022360679774997897</speed>
  <fix>3d</fix>
</trkpt>
<trkpt lat="40.0713749" lon="-105.229789">
  <ele>1583.0</ele>
  <time>2026-08-28T17:49:16Z</time>
  <course>0.0</course>
  <speed>0.0</speed>
  <fix>3d</fix>
</trkpt>
<trkpt lat="40.0713751" lon="-105.2297889">
  <ele>1583.02</ele>
  <time>2026-08-28T17:49:16Z</time>
  <course>247.09</course>
  <speed>0.022360679774997897</speed>
  <fix>3d</fix>
</trkpt>
<trkpt lat="40.0713749" lon="-105.229789">
  <ele>1583.0</ele>
  <time>2026-08-28T17:49:16Z</time>
  <course>0.0</course>
  <speed>0.0</speed>
  <fix>3d</fix>
</trkpt>
<trkpt lat="40.0713751" lon="-105.2297889">
  <ele>1583.02</ele>
  <time>2026-08-28T17:49:16Z</time>
  <course>247.09</course>
  <speed>0.022360679774997897</speed>
  <fix>3d</fix>
</trkpt>
<trkpt lat="40.0713749" lon="-105.229789">
  <ele>1583.0</ele>
  <time>2026-08-28T17:49:16Z</time>
  <course>0.0</course>
  <speed>0.0</speed>
  <fix>3d</fix>
</trkpt>
<trkpt lat="40.0713751" lon="-105.2297889">
  <ele>1583.03</ele>
  <time>2026-08-28T17:49:16Z</time>
  <course>247.09</course>
  <speed>0.022360679774997897</speed>
  <fix>3d</fix>
</trkpt>
<trkpt lat="40.0713749" lon="-105.229789">
  <ele>1583.0</ele>
  <time>2026-08-28T17:49:16Z</time>
  <course>0.0</course>
  <speed>0.0</speed>
  <fix>3d</fix>
</trkpt>
<trkpt lat="40.0713751" lon="-105.2297889">
  <ele>1583.03</ele>
  <time>2026-08-28T17:49:16Z</time>
  <course>247.09</course>
  <speed>0.022360679774997897</speed>
  <fix>3d</fix>
</trkpt>
<trkpt lat="40.0713749" lon="-105.229789">
  <ele>1583.0</ele>
  <time>2026-08-28T17:49:16Z</time>
  <course>0.0</course>
  <speed>0.0</speed>
  <fix>3d</fix>
</trkpt>
<trkpt lat="40.0713751" lon="-105.2297889">
  <ele>1583.04</ele>
  <time>2026-08-28T17:49:16Z</time>
  <course>247.09</course>
  <speed>0.022360679774997897</speed>
  <fix>3d</fix>
</trkpt>
<trkpt lat="40.0713749" lon="-105.229789">
  <ele>1583.0</ele>
  <time>2026-08-28T17:49:16Z</time>
  <course>0.0</course>
  <speed>0.0</speed>
  <fix>3d</fix>
</trkpt>
<trkpt lat="40.0713751" lon="-105.2297889">
  <ele>1583.04</ele>
  <time>2026-08-28T17:49:16Z</time>
  <course>247.09</course>
  <speed>0.022360679774997897</speed>
  <fix>3d</fix>
</trkpt>
<trkpt lat="40.0713749" lon="-105.229789">
  <ele>1583.0</ele>
  <time>2026-08-28T17:49:16Z</time>
  <course>0.0</course>
  <speed>0.0</speed>
  <fix>3d</fix>
</trkpt>
<trkpt lat="40.071375" lon="-105.2297889">
  <ele>1583.04</ele>
  <time>2026-08-28T17:49:16Z</time>
  <course>247.09</course>
  <speed>0.022360679774997897</speed>
  <fix>3d</fix>
</trkpt>
<trkpt lat="40.0713749" lon="-105.229789">
  <ele>1583.0</ele>
  <time>2026-08-28T17:49:16Z</time>
  <course>0.0</course>
  <speed>0.0</speed>
  <fix>3d</fix>
</trkpt>
<trkpt lat="40.0713751" lon="-105.2297889">
  <ele>1583.04</ele>
  <time>2026-08-28T17:49:16Z</time>
  <course>247.09</course>
  <speed>0.022360679774997897</speed>
  <fix>3d</fix>
</trkpt>
<trkpt lat="40.0713749" lon="-105.229789">
  <ele>1583.0</ele>
  <time>2026-08-28T17:49:16Z</time>
  <course>0.0</course>
  <speed>0.0</speed>
  <fix>3d</fix>
</trkpt>
<trkpt lat="40.071375" lon="-105.2297889">
  <ele>1583.04</ele>
  <time>2026-08-28T17:49:16Z</time>
  <course>247.09</course>
  <speed>0.022360679774997897</speed>
  <fix>3d</fix>
</trkpt>
<trkpt lat="40.0713749" lon="-105.229789">
  <ele>1583.0</ele>
  <time>2026-08-28T17:49:16Z</time>
  <course>0.0</course>
  <speed>0.0</speed>
  <fix>3d</fix>
</trkpt>
<trkpt lat="40.071375" lon="-105.2297889">
  <ele>1583.04</ele>
  <time>2026-08-28T17:49:16Z</time>
  <course>247.09</course>
  <speed>0.022360679774997897</speed>
  <fix>3d</fix>
</trkpt>
<trkpt lat="40.0713749" lon="-105.229789">
  <ele>1583.0</ele>
  <time>2026-08-28T17:49:16Z</time>
  <course>0.0</course>
  <speed>0.0</speed>
  <fix>3d</fix>
</trkpt>
<trkpt lat="40.071375" lon="-105.2297889">
  <ele>1583.04</ele>
  <time>2026-08-28T17:49:16Z</time>
  <course>247.09</course>
  <speed>0.022360679774997897</speed>
  <fix>3d</fix>
</trkpt>
<trkpt lat="40.0713749" lon="-105.229789">
  <ele>1583.0</ele>
  <time>2026-08-28T17:49:16Z</time>
  <course>0.0</course>
  <speed>0.0</speed>
  <fix>3d</fix>
</trkpt>
<trkpt lat="40.071375" lon="-105.2297889">
  <ele>1583.04</ele>
  <time>2026-08-28T17:49:16Z</time>
  <course>247.09</course>
  <speed>0.022360679774997897</speed>
  <fix>3d</fix>
</trkpt>
<trkpt lat="40.0713749" lon="-105.229789">
  <ele>1583.0</ele>
  <time>2026-08-28T17:49:16Z</time>
  <course>0.0</course>
  <speed>0.0</speed>
  <fix>3d</fix>
</trkpt>
<trkpt lat="40.071375" lon="-105.2297889">
  <ele>1583.04</ele>
  <time>2026-08-28T17:49:16Z</time>
  <course>247.09</course>
  <speed>0.022360679774997897</speed>
  <fix>3d</fix>
</trkpt>
<trkpt lat="40.0713749" lon="-105.229789">
  <ele>1583.0</ele>
  <time>2026-08-28T17:49:16Z</time>
  <course>0.0</course>
  <speed>0.0</speed>
  <fix>3d</fix>
</trkpt>
<trkpt lat="40.071375" lon="-105.2297889">
  <ele>1583.03</ele>
  <time>2026-08-28T17:49:16Z</time>
  <course>247.09</course>
  <speed>0.022360679774997897</speed>
  <fix>3d</fix>
</trkpt>
<trkpt lat="40.0713749" lon="-105.229789">
  <ele>1583.0</ele>
  <time>2026-08-28T17:49:16Z</time>
  <course>0.0</course>
  <speed>0.0</speed>
  <fix>3d</fix>
</trkpt>
<trkpt lat="40.071375" lon="-105.2297889">
  <ele>1583.03</ele>
  <time>2026-08-28T17:49:16Z</time>
  <course>247.09</course>
  <speed>0.022360679774997897</speed>
  <fix>3d</fix>
</trkpt>
<trkpt lat="40.0713749" lon="-105.229789">
  <ele>1583.0</ele>
  <time>2026-08-28T17:49:16Z</time>
  <course>0.0</course>
  <speed>0.0</speed>
  <fix>3d</fix>
</trkpt>
<trkpt lat="40.071375" lon="-105.2297889">
  <ele>1583.03</ele>
  <time>2026-08-28T17:49:16Z</time>
  <course>247.09</course>
  <speed>0.022360679774997897</speed>
  <fix>3d</fix>
</trkpt>
<trkpt lat="40.0713749" lon="-105.229789">
  <ele>1583.0</ele>
  <time>2026-08-28T17:49:16Z</time>
  <course>0.0</course>
  <speed>0.0</speed>
  <fix>3d</fix>
</trkpt>
<trkpt lat="40.071375" lon="-105.2297889">
  <ele>1583.03</ele>
  <time>2026-08-28T17:49:16Z</time>
  <course>247.09</course>
  <speed>0.022360679774997897</speed>
  <fix>3d</fix>
</trkpt>
<trkpt lat="40.0713749" lon="-105.229789">
  <ele>1583.0</ele>
  <time>2026-08-28T17:49:16Z</time>
  <course>0.0</course>
  <speed>0.0</speed>
  <fix>3d</fix>
</trkpt>
<trkpt lat="40.071375" lon="-105.2297889">
  <ele>1583.03</ele>
  <time>2026-08-28T17:49:16Z</time>
  <course>247.09</course>
  <speed>0.022360679774997897</speed>
  <fix>3d</fix>
</trkpt>
<trkpt lat="40.0713749" lon="-105.229789">
  <ele>1583.0</ele>
  <time>2026-08-28T17:49:16Z</time>
  <course>0.0</course>
  <speed>0.0</speed>
  <fix>3d</fix>
</trkpt>
<trkpt lat="40.071375" lon="-105.2297889">
  <ele>1583.03</ele>
  <time>2026-08-28T17:49:16Z</time>
  <course>247.09</course>
  <speed>0.022360679774997897</speed>
  <fix>3d</fix>
</trkpt>
<trkpt lat="40.0713749" lon="-105.229789">
  <ele>1583.0</ele>
  <time>2026-08-28T17:49:16Z</time>
  <course>0.0</course>
  <speed>0.0</speed>
  <fix>3d</fix>
</trkpt>
<trkpt lat="40.0713751" lon="-105.2297889">
  <ele>1583.03</ele>
  <time>2026-08-28T17:49:16Z</time>
  <course>247.09</course>
  <speed>0.022360679774997897</speed>
  <fix>3d</fix>
</trkpt>
<trkpt lat="40.0713749" lon="-105.229789">
  <ele>1583.0</ele>
  <time>2026-08-28T17:49:16Z</time>
  <course>0.0</course>
  <speed>0.0</speed>
  <fix>3d</fix>
</trkpt>
<trkpt lat="40.071375" lon="-105.2297889">
  <ele>1583.03</ele>
  <time>2026-08-28T17:49:16Z</time>
  <course>247.09</course>
  <speed>0.022360679774997897</speed>
  <fix>3d</fix>
</trkpt>
<trkpt lat="40.0713749" lon="-105.229789">
  <ele>1583.0</ele>
  <time>2026-08-28T17:49:16Z</time>
  <course>0.0</course>
  <speed>0.0</speed>
  <fix>3d</fix>
</trkpt>
<trkpt lat="40.0713751" lon="-105.2297889">
  <ele>1583.03</ele>
  <time>2026-08-28T17:49:16Z</time>
  <course>247.09</course>
  <speed>0.022360679774997897</speed>
  <fix>3d</fix>
</trkpt>
<trkpt lat="40.0713749" lon="-105.229789">
  <ele>1583.0</ele>
  <time>2026-08-28T17:49:16Z</time>
  <course>0.0</course>
  <speed>0.0</speed>
  <fix>3d</fix>
</trkpt>
<trkpt lat="40.071375" lon="-105.2297889">
  <ele>1583.03</ele>
  <time>2026-08-28T17:49:16Z</time>
  <course>247.09</course>
  <speed>0.022360679774997897</speed>
  <fix>3d</fix>
</trkpt>
<trkpt lat="40.0713749" lon="-105.229789">
  <ele>1583.0</ele>
  <time>2026-08-28T17:49:16Z</time>
  <course>0.0</course>
  <speed>0.0</speed>
  <fix>3d</fix>
</trkpt>
<trkpt lat="40.0713751" lon="-105.2297889">
  <ele>1583.03</ele>
  <time>2026-08-28T17:49:16Z</time>
  <course>247.09</course>
  <speed>0.022360679774997897</speed>
  <fix>3d</fix>
</trkpt>
<trkpt lat="40.0713749" lon="-105.229789">
  <ele>1583.0</ele>
  <time>2026-08-28T17:49:16Z</time>
  <course>0.0</course>
  <speed>0.0</speed>
  <fix>3d</fix>
</trkpt>
<trkpt lat="40.071375" lon="-105.2297889">
  <ele>1583.03</ele>
  <time>2026-08-28T17:49:16Z</time>
  <course>247.09</course>
  <speed>0.022360679774997897</speed>
  <fix>3d</fix>
</trkpt>
<trkpt lat="40.0713749" lon="-105.229789">
  <ele>1583.0</ele>
  <time>2026-08-28T17:49:16Z</time>
  <course>0.0</course>
  <speed>0.0</speed>
  <fix>3d</fix>
</trkpt>
<trkpt lat="40.0713751" lon="-105.2297889">
  <ele>1583.03</ele>
  <time>2026-08-28T17:49:16Z</time>
  <course>247.09</course>
  <speed>0.022360679774997897</speed>
  <fix>3d</fix>
</trkpt>
<trkpt lat="40.0713749" lon="-105.229789">
  <ele>1583.0</ele>
  <time>2026-08-28T17:49:16Z</time>
  <course>0.0</course>
  <speed>0.0</speed>
  <fix>3d</fix>
</trkpt>
<trkpt lat="40.071375" lon="-105.2297889">
  <ele>1583.03</ele>
  <time>2026-08-28T17:49:16Z</time>
  <course>247.09</course>
  <speed>0.022360679774997897</speed>
  <fix>3d</fix>
</trkpt>
<trkpt lat="40.0713749" lon="-105.229789">
  <ele>1583.0</ele>
  <time>2026-08-28T17:49:16Z</time>
  <course>0.0</course>
  <speed>0.0</speed>
  <fix>3d</fix>
</trkpt>
<trkpt lat="40.071375" lon="-105.2297889">
  <ele>1583.03</ele>
  <time>2026-08-28T17:49:16Z</time>
  <course>247.09</course>
  <speed>0.022360679774997897</speed>
  <fix>3d</fix>
</trkpt>
<trkpt lat="40.0713749" lon="-105.229789">
  <ele>1583.0</ele>
  <time>2026-08-28T17:49:16Z</time>
  <course>0.0</course>
  <speed>0.0</speed>
  <fix>3d</fix>
</trkpt>
<trkpt lat="40.071375" lon="-105.2297889">
  <ele>1583.03</ele>
  <time>2026-08-28T17:49:16Z</time>
  <course>247.09</course>
  <speed>0.022360679774997897</speed>
  <fix>3d</fix>
</trkpt>
<trkpt lat="40.0713749" lon="-105.229789">
  <ele>1583.0</ele>
  <time>2026-08-28T17:49:16Z</time>
  <course>0.0</course>
  <speed>0.0</speed>
  <fix>3d</fix>
</trkpt>
<trkpt lat="40.071375" lon="-105.2297889">
  <ele>1583.03</ele>
  <time>2026-08-28T17:49:16Z</time>
  <course>247.09</course>
  <speed>0.022360679774997897</speed>
  <fix>3d</fix>
</trkpt>
<trkpt lat="40.0713749" lon="-105.229789">
  <ele>1583.0</ele>
  <time>2026-08-28T17:49:16Z</time>
  <course>0.0</course>
  <speed>0.0</speed>
  <fix>3d</fix>
</trkpt>
<trkpt lat="40.071375" lon="-105.2297889">
  <ele>1583.03</ele>
  <time>2026-08-28T17:49:16Z</time>
  <course>247.09</course>
  <speed>0.022360679774997897</speed>
  <fix>3d</fix>
</trkpt>
<trkpt lat="40.0713749" lon="-105.229789">
  <ele>1583.0</ele>
  <time>2026-08-28T17:49:16Z</time>
  <course>0.0</course>
  <speed>0.0</speed>
  <fix>3d</fix>
</trkpt>
<trkpt lat="40.071375" lon="-105.2297889">
  <ele>1583.04</ele>
  <time>2026-08-28T17:49:16Z</time>
  <course>247.09</course>
  <speed>0.022360679774997897</speed>
  <fix>3d</fix>
</trkpt>
<trkpt lat="40.0713749" lon="-105.229789">
  <ele>1583.0</ele>
  <time>2026-08-28T17:49:16Z</time>
  <course>0.0</course>
  <speed>0.0</speed>
  <fix>3d</fix>
</trkpt>
<trkpt lat="40.071375" lon="-105.2297889">
  <ele>1583.04</ele>
  <time>2026-08-28T17:49:16Z</time>
  <course>247.09</course>
  <speed>0.022360679774997897</speed>
  <fix>3d</fix>
</trkpt>
<trkpt lat="40.0713749" lon="-105.229789">
  <ele>1583.0</ele>
  <time>2026-08-28T17:49:16Z</time>
  <course>0.0</course>
  <speed>0.0</speed>
  <fix>3d</fix>
</trkpt>
<trkpt lat="40.071375" lon="-105.2297889">
  <ele>1583.04</ele>
  <time>2026-08-28T17:49:16Z</time>
  <course>247.09</course>
  <speed>0.022360679774997897</speed>
  <fix>3d</fix>
</trkpt>
<trkpt lat="40.0713749" lon="-105.229789">
  <ele>1583.0</ele>
  <time>2026-08-28T17:49:16Z</time>
  <course>0.0</course>
  <speed>0.0</speed>
  <fix>3d</fix>
</trkpt>
<trkpt lat="40.071375" lon="-105.2297889">
  <ele>1583.05</ele>
  <time>2026-08-28T17:49:16Z</time>
  <course>247.09</course>
  <speed>0.022360679774997897</speed>
  <fix>3d</fix>
</trkpt>
<trkpt lat="40.0713749" lon="-105.229789">
  <ele>1583.0</ele>
  <time>2026-08-28T17:49:16Z</time>
  <course>0.0</course>
  <speed>0.0</speed>
  <fix>3d</fix>
</trkpt>
<trkpt lat="40.071375" lon="-105.2297889">
  <ele>1583.05</ele>
  <time>2026-08-28T17:49:16Z</time>
  <course>247.09</course>
  <speed>0.022360679774997897</speed>
  <fix>3d</fix>
</trkpt>
<trkpt lat="40.0713749" lon="-105.229789">
  <ele>1583.0</ele>
  <time>2026-08-28T17:49:16Z</time>
  <course>0.0</course>
  <speed>0.0</speed>
  <fix>3d</fix>
</trkpt>
<trkpt lat="40.071375" lon="-105.2297889">
  <ele>1583.05</ele>
  <time>2026-08-28T17:49:16Z</time>
  <course>247.09</course>
  <speed>0.022360679774997897</speed>
  <fix>3d</fix>
</trkpt>
<trkpt lat="40.0713749" lon="-105.229789">
  <ele>1583.0</ele>
  <time>2026-08-28T17:49:16Z</time>
  <course>0.0</course>
  <speed>0.0</speed>
  <fix>3d</fix>
</trkpt>
<trkpt lat="40.071375" lon="-105.2297889">
  <ele>1583.05</ele>
  <time>2026-08-28T17:49:16Z</time>
  <course>247.09</course>
  <speed>0.022360679774997897</speed>
  <fix>3d</fix>
</trkpt>
<trkpt lat="40.0713749" lon="-105.229789">
  <ele>1583.0</ele>
  <time>2026-08-28T17:49:16Z</time>
  <course>0.0</course>
  <speed>0.0</speed>
  <fix>3d</fix>
</trkpt>
<trkpt lat="40.071375" lon="-105.2297889">
  <ele>1583.05</ele>
  <time>2026-08-28T17:49:16Z</time>
  <course>247.09</course>
  <speed>0.022360679774997897</speed>
  <fix>3d</fix>
</trkpt>
<trkpt lat="40.0713749" lon="-105.229789">
  <ele>1583.0</ele>
  <time>2026-08-28T17:49:16Z</time>
  <course>0.0</course>
  <speed>0.0</speed>
  <fix>3d</fix>
</trkpt>
<trkpt lat="40.071375" lon="-105.2297889">
  <ele>1583.05</ele>
  <time>2026-08-28T17:49:16Z</time>
  <course>247.09</course>
  <speed>0.022360679774997897</speed>
  <fix>3d</fix>
</trkpt>
<trkpt lat="40.0713749" lon="-105.229789">
  <ele>1583.0</ele>
  <time>2026-08-28T17:49:16Z</time>
  <course>0.0</course>
  <speed>0.0</speed>
  <fix>3d</fix>
</trkpt>
<trkpt lat="40.071375" lon="-105.2297889">
  <ele>1583.05</ele>
  <time>2026-08-28T17:49:16Z</time>
  <course>247.09</course>
  <speed>0.022360679774997897</speed>
  <fix>3d</fix>
</trkpt>
<trkpt lat="40.0713749" lon="-105.229789">
  <ele>1583.0</ele>
  <time>2026-08-28T17:49:16Z</time>
  <course>0.0</course>
  <speed>0.0</speed>
  <fix>3d</fix>
</trkpt>
<trkpt lat="40.0713751" lon="-105.2297889">
  <ele>1583.04</ele>
  <time>2026-08-28T17:49:16Z</time>
  <course>247.09</course>
  <speed>0.022360679774997897</speed>
  <fix>3d</fix>
</trkpt>
<trkpt lat="40.0713749" lon="-105.229789">
  <ele>1583.0</ele>
  <time>2026-08-28T17:49:16Z</time>
  <course>0.0</course>
  <speed>0.0</speed>
  <fix>3d</fix>
</trkpt>
<trkpt lat="40.071375" lon="-105.2297889">
  <ele>1583.04</ele>
  <time>2026-08-28T17:49:16Z</time>
  <course>247.09</course>
  <speed>0.022360679774997897</speed>
  <fix>3d</fix>
</trkpt>
<trkpt lat="40.0713749" lon="-105.229789">
  <ele>1583.0</ele>
  <time>2026-08-28T17:49:16Z</time>
  <course>0.0</course>
  <speed>0.0</speed>
  <fix>3d</fix>
</trkpt>
<trkpt lat="40.0713751" lon="-105.2297889">
  <ele>1583.04</ele>
  <time>2026-08-28T17:49:16Z</time>
  <course>247.09</course>
  <speed>0.022360679774997897</speed>
  <fix>3d</fix>
</trkpt>
<trkpt lat="40.0713749" lon="-105.229789">
  <ele>1583.0</ele>
  <time>2026-08-28T17:49:16Z</time>
  <course>0.0</course>
  <speed>0.0</speed>
  <fix>3d</fix>
</trkpt>
<trkpt lat="40.071375" lon="-105.2297889">
  <ele>1583.03</ele>
  <time>2026-08-28T17:49:16Z</time>
  <course>247.09</course>
  <speed>0.022360679774997897</speed>
  <fix>3d</fix>
</trkpt>
<trkpt lat="40.0713749" lon="-105.229789">
  <ele>1583.0</ele>
  <time>2026-08-28T17:49:16Z</time>
  <course>0.0</course>
  <speed>0.0</speed>
  <fix>3d</fix>
</trkpt>
<trkpt lat="40.0713751" lon="-105.2297889">
  <ele>1583.03</ele>
  <time>2026-08-28T17:49:16Z</time>
  <course>247.09</course>
  <speed>0.022360679774997897</speed>
  <fix>3d</fix>
</trkpt>
<trkpt lat="40.0713749" lon="-105.229789">
  <ele>1583.0</ele>
  <time>2026-08-28T17:49:16Z</time>
  <course>0.0</course>
  <speed>0.0</speed>
  <fix>3d</fix>
</trkpt>
<trkpt lat="40.071375" lon="-105.2297889">
  <ele>1583.03</ele>
  <time>2026-08-28T17:49:16Z</time>
  <course>247.09</course>
  <speed>0.022360679774997897</speed>
  <fix>3d</fix>
</trkpt>
<trkpt lat="40.0713749" lon="-105.229789">
  <ele>1583.0</ele>
  <time>2026-08-28T17:49:16Z</time>
  <course>0.0</course>
  <speed>0.0</speed>
  <fix>3d</fix>
</trkpt>
<trkpt lat="40.0713751" lon="-105.2297889">
  <ele>1583.02</ele>
  <time>2026-08-28T17:49:16Z</time>
  <course>247.09</course>
  <speed>0.022360679774997897</speed>
  <fix>3d</fix>
</trkpt>
<trkpt lat="40.0713749" lon="-105.229789">
  <ele>1583.0</ele>
  <time>2026-08-28T17:49:16Z</time>
  <course>0.0</course>
  <speed>0.0</speed>
  <fix>3d</fix>
</trkpt>
<trkpt lat="40.071375" lon="-105.2297889">
  <ele>1583.02</ele>
  <time>2026-08-28T17:49:16Z</time>
  <course>247.09</course>
  <speed>0.02</speed>
  <fix>3d</fix>
</trkpt>
<trkpt lat="40.0713749" lon="-105.229789">
  <ele>1583.0</ele>
  <time>2026-08-28T17:49:16Z</time>
  <course>0.0</course>
  <speed>0.0</speed>
  <fix>3d</fix>
</trkpt>
<trkpt lat="40.071375" lon="-105.2297889">
  <ele>1583.01</ele>
  <time>2026-08-28T17:49:16Z</time>
  <course>247.09</course>
  <speed>0.022360679774997897</speed>
  <fix>3d</fix>
</trkpt>
<trkpt lat="40.0713749" lon="-105.229789">
  <ele>1583.0</ele>
  <time>2026-08-28T17:49:16Z</time>
  <course>0.0</course>
  <speed>0.0</speed>
  <fix>3d</fix>
</trkpt>
<trkpt lat="40.071375" lon="-105.2297889">
  <ele>1583.01</ele>
  <time>2026-08-28T17:49:16Z</time>
  <course>247.09</course>
  <speed>0.02</speed>
  <fix>3d</fix>
</trkpt>
<trkpt lat="40.0713749" lon="-105.229789">
  <ele>1583.0</ele>
  <time>2026-08-28T17:49:16Z</time>
  <course>0.0</course>
  <speed>0.0</speed>
  <fix>3d</fix>
</trkpt>
<trkpt lat="40.071375" lon="-105.2297889">
  <ele>1583.01</ele>
  <time>2026-08-28T17:49:16Z</time>
  <course>247.09</course>
  <speed>0.022360679774997897</speed>
  <fix>3d</fix>
</trkpt>
<trkpt lat="40.0713749" lon="-105.229789">
  <ele>1583.0</ele>
  <time>2026-08-28T17:49:16Z</time>
  <course>0.0</course>
  <speed>0.0</speed>
  <fix>3d</fix>
</trkpt>
<trkpt lat="40.071375" lon="-105.2297889">
  <ele>1583.01</ele>
  <time>2026-08-28T17:49:16Z</time>
  <course>247.09</course>
  <speed>0.02</speed>
  <fix>3d</fix>
</trkpt>
<trkpt lat="40.0713749" lon="-105.229789">
  <ele>1583.0</ele>
  <time>2026-08-28T17:49:16Z</time>
  <course>0.0</course>
  <speed>0.0</speed>
  <fix>3d</fix>
</trkpt>
<trkpt lat="40.071375" lon="-105.2297889">
  <ele>1583.02</ele>
  <time>2026-08-28T17:49:16Z</time>
  <course>247.09</course>
  <speed>0.022360679774997897</speed>
  <fix>3d</fix>
</trkpt>
<trkpt lat="40.0713749" lon="-105.229789">
  <ele>1583.0</ele>
  <time>2026-08-28T17:49:16Z</time>
  <course>0.0</course>
  <speed>0.0</speed>
  <fix>3d</fix>
</trkpt>
<trkpt lat="40.071375" lon="-105.2297889">
  <ele>1583.02</ele>
  <time>2026-08-28T17:49:16Z</time>
  <course>247.09</course>
  <speed>0.02</speed>
  <fix>3d</fix>
</trkpt>
<trkpt lat="40.0713749" lon="-105.229789">
  <ele>1583.0</ele>
  <time>2026-08-28T17:49:16Z</time>
  <course>0.0</course>
  <speed>0.0</speed>
  <fix>3d</fix>
</trkpt>
<trkpt lat="40.0713751" lon="-105.2297889">
  <ele>1583.03</ele>
  <time>2026-08-28T17:49:16Z</time>
  <course>247.09</course>
  <speed>0.022360679774997897</speed>
  <fix>3d</fix>
</trkpt>
<trkpt lat="40.0713749" lon="-105.229789">
  <ele>1583.0</ele>
  <time>2026-08-28T17:49:16Z</time>
  <course>0.0</course>
  <speed>0.0</speed>
  <fix>3d</fix>
</trkpt>
<trkpt lat="40.071375" lon="-105.2297889">
  <ele>1583.04</ele>
  <time>2026-08-28T17:49:16Z</time>
  <course>247.09</course>
  <speed>0.02</speed>
  <fix>3d</fix>
</trkpt>
<trkpt lat="40.0713749" lon="-105.229789">
  <ele>1583.0</ele>
  <time>2026-08-28T17:49:16Z</time>
  <course>0.0</course>
  <speed>0.0</speed>
  <fix>3d</fix>
</trkpt>
<trkpt lat="40.0713751" lon="-105.2297889">
  <ele>1583.04</ele>
  <time>2026-08-28T17:49:16Z</time>
  <course>247.09</course>
  <speed>0.022360679774997897</speed>
  <fix>3d</fix>
</trkpt>
<trkpt lat="40.0713749" lon="-105.229789">
  <ele>1583.0</ele>
  <time>2026-08-28T17:49:16Z</time>
  <course>0.0</course>
  <speed>0.0</speed>
  <fix>3d</fix>
</trkpt>
<trkpt lat="40.071375" lon="-105.2297889">
  <ele>1583.04</ele>
  <time>2026-08-28T17:49:16Z</time>
  <course>247.09</course>
  <speed>0.02</speed>
  <fix>3d</fix>
</trkpt>
<trkpt lat="40.0713749" lon="-105.229789">
  <ele>1583.0</ele>
  <time>2026-08-28T17:49:16Z</time>
  <course>0.0</course>
  <speed>0.0</speed>
  <fix>3d</fix>
</trkpt>
<trkpt lat="40.0713751" lon="-105.2297889">
  <ele>1583.05</ele>
  <time>2026-08-28T17:49:16Z</time>
  <course>247.09</course>
  <speed>0.022360679774997897</speed>
  <fix>3d</fix>
</trkpt>
<trkpt lat="40.0713749" lon="-105.229789">
  <ele>1583.0</ele>
  <time>2026-08-28T17:49:16Z</time>
  <course>0.0</course>
  <speed>0.0</speed>
  <fix>3d</fix>
</trkpt>
<trkpt lat="40.071375" lon="-105.2297889">
  <ele>1583.05</ele>
  <time>2026-08-28T17:49:16Z</time>
  <course>247.09</course>
  <speed>0.022360679774997897</speed>
  <fix>3d</fix>
</trkpt>
<trkpt lat="40.0713749" lon="-105.229789">
  <ele>1583.0</ele>
  <time>2026-08-28T17:49:16Z</time>
  <course>0.0</course>
  <speed>0.0</speed>
  <fix>3d</fix>
</trkpt>
<trkpt lat="40.0713751" lon="-105.2297889">
  <ele>1583.05</ele>
  <time>2026-08-28T17:49:16Z</time>
  <course>247.09</course>
  <speed>0.022360679774997897</speed>
  <fix>3d</fix>
</trkpt>
<trkpt lat="40.0713749" lon="-105.229789">
  <ele>1583.0</ele>
  <time>2026-08-28T17:49:16Z</time>
  <course>0.0</course>
  <speed>0.0</speed>
  <fix>3d</fix>
</trkpt>
<trkpt lat="40.0713751" lon="-105.2297889">
  <ele>1583.06</ele>
  <time>2026-08-28T17:49:16Z</time>
  <course>247.09</course>
  <speed>0.022360679774997897</speed>
  <fix>3d</fix>
</trkpt>
<trkpt lat="40.0713749" lon="-105.229789">
  <ele>1583.0</ele>
  <time>2026-08-28T17:49:16Z</time>
  <course>0.0</course>
  <speed>0.0</speed>
  <fix>3d</fix>
</trkpt>
<trkpt lat="40.0713751" lon="-105.2297889">
  <ele>1583.06</ele>
  <time>2026-08-28T17:49:16Z</time>
  <course>247.09</course>
  <speed>0.022360679774997897</speed>
  <fix>3d</fix>
</trkpt>
<trkpt lat="40.0713749" lon="-105.229789">
  <ele>1583.0</ele>
  <time>2026-08-28T17:49:16Z</time>
  <course>0.0</course>
  <speed>0.0</speed>
  <fix>3d</fix>
</trkpt>
<trkpt lat="40.0713751" lon="-105.2297889">
  <ele>1583.07</ele>
  <time>2026-08-28T17:49:16Z</time>
  <course>247.09</course>
  <speed>0.022360679774997897</speed>
  <fix>3d</fix>
</trkpt>
<trkpt lat="40.0713749" lon="-105.229789">
  <ele>1583.0</ele>
  <time>2026-08-28T17:49:16Z</time>
  <course>0.0</course>
  <speed>0.0</speed>
  <fix>3d</fix>
</trkpt>
<trkpt lat="40.0713751" lon="-105.2297889">
  <ele>1583.07</ele>
  <time>2026-08-28T17:49:16Z</time>
  <course>247.09</course>
  <speed>0.022360679774997897</speed>
  <fix>3d</fix>
</trkpt>
<trkpt lat="40.0713749" lon="-105.229789">
  <ele>1583.0</ele>
  <time>2026-08-28T17:49:16Z</time>
  <course>0.0</course>
  <speed>0.0</speed>
  <fix>3d</fix>
</trkpt>
<trkpt lat="40.071375" lon="-105.2297889">
  <ele>1583.08</ele>
  <time>2026-08-28T17:49:16Z</time>
  <course>247.09</course>
  <speed>0.022360679774997897</speed>
  <fix>3d</fix>
</trkpt>
<trkpt lat="40.0713749" lon="-105.229789">
  <ele>1583.0</ele>
  <time>2026-08-28T17:49:16Z</time>
  <course>0.0</course>
  <speed>0.0</speed>
  <fix>3d</fix>
</trkpt>
<trkpt lat="40.0713751" lon="-105.2297889">
  <ele>1583.08</ele>
  <time>2026-08-28T17:49:16Z</time>
  <course>247.09</course>
  <speed>0.022360679774997897</speed>
  <fix>3d</fix>
</trkpt>
<trkpt lat="40.0713749" lon="-105.229789">
  <ele>1583.0</ele>
  <time>2026-08-28T17:49:16Z</time>
  <course>0.0</course>
  <speed>0.0</speed>
  <fix>3d</fix>
</trkpt>
<trkpt lat="40.071375" lon="-105.2297889">
  <ele>1583.08</ele>
  <time>2026-08-28T17:49:16Z</time>
  <course>247.09</course>
  <speed>0.02</speed>
  <fix>3d</fix>
</trkpt>
<trkpt lat="40.0713749" lon="-105.229789">
  <ele>1583.0</ele>
  <time>2026-08-28T17:49:16Z</time>
  <course>0.0</course>
  <speed>0.0</speed>
  <fix>3d</fix>
</trkpt>
<trkpt lat="40.0713751" lon="-105.2297889">
  <ele>1583.08</ele>
  <time>2026-08-28T17:49:16Z</time>
  <course>247.09</course>
  <speed>0.022360679774997897</speed>
  <fix>3d</fix>
</trkpt>
<trkpt lat="40.0713749" lon="-105.229789">
  <ele>1583.0</ele>
  <time>2026-08-28T17:49:16Z</time>
  <course>0.0</course>
  <speed>0.0</speed>
  <fix>3d</fix>
</trkpt>
<trkpt lat="40.071375" lon="-105.2297889">
  <ele>1583.08</ele>
  <time>2026-08-28T17:49:16Z</time>
  <course>247.09</course>
  <speed>0.022360679774997897</speed>
  <fix>3d</fix>
</trkpt>
<trkpt lat="40.0713749" lon="-105.229789">
  <ele>1583.0</ele>
  <time>2026-08-28T17:49:16Z</time>
  <course>0.0</course>
  <speed>0.0</speed>
  <fix>3d</fix>
</trkpt>
<trkpt lat="40.071375" lon="-105.2297889">
  <ele>1583.08</ele>
  <time>2026-08-28T17:49:16Z</time>
  <course>247.09</course>
  <speed>0.022360679774997897</speed>
  <fix>3d</fix>
</trkpt>
<trkpt lat="40.0713749" lon="-105.229789">
  <ele>1583.0</ele>
  <time>2026-08-28T17:49:16Z</time>
  <course>0.0</course>
  <speed>0.0</speed>
  <fix>3d</fix>
</trkpt>
<trkpt lat="40.071375" lon="-105.2297889">
  <ele>1583.08</ele>
  <time>2026-08-28T17:49:16Z</time>
  <course>247.09</course>
  <speed>0.022360679774997897</speed>
  <fix>3d</fix>
</trkpt>
<trkpt lat="40.0713749" lon="-105.229789">
  <ele>1583.0</ele>
  <time>2026-08-28T17:49:16Z</time>
  <course>0.0</course>
  <speed>0.0</speed>
  <fix>3d</fix>
</trkpt>
<trkpt lat="40.0713751" lon="-105.2297889">
  <ele>1583.08</ele>
  <time>2026-08-28T17:49:16Z</time>
  <course>247.09</course>
  <speed>0.022360679774997897</speed>
  <fix>3d</fix>
</trkpt>
<trkpt lat="40.0713749" lon="-105.229789">
  <ele>1583.0</ele>
  <time>2026-08-28T17:49:16Z</time>
  <course>0.0</course>
  <speed>0.0</speed>
  <fix>3d</fix>
</trkpt>
<trkpt lat="40.071375" lon="-105.2297889">
  <ele>1583.08</ele>
  <time>2026-08-28T17:49:16Z</time>
  <course>247.09</course>
  <speed>0.022360679774997897</speed>
  <fix>3d</fix>
</trkpt>
<trkpt lat="40.0713749" lon="-105.229789">
  <ele>1583.0</ele>
  <time>2026-08-28T17:49:16Z</time>
  <course>0.0</course>
  <speed>0.0</speed>
  <fix>3d</fix>
</trkpt>
<trkpt lat="40.0713751" lon="-105.2297889">
  <ele>1583.08</ele>
  <time>2026-08-28T17:49:16Z</time>
  <course>247.09</course>
  <speed>0.022360679774997897</speed>
  <fix>3d</fix>
</trkpt>
<trkpt lat="40.0713749" lon="-105.229789">
  <ele>1583.0</ele>
  <time>2026-08-28T17:49:16Z</time>
  <course>0.0</course>
  <speed>0.0</speed>
  <fix>3d</fix>
</trkpt>
<trkpt lat="40.071375" lon="-105.2297889">
  <ele>1583.08</ele>
  <time>2026-08-28T17:49:16Z</time>
  <course>247.09</course>
  <speed>0.022360679774997897</speed>
  <fix>3d</fix>
</trkpt>
<trkpt lat="40.0713749" lon="-105.229789">
  <ele>1583.0</ele>
  <time>2026-08-28T17:49:16Z</time>
  <course>0.0</course>
  <speed>0.0</speed>
  <fix>3d</fix>
</trkpt>
<trkpt lat="40.0713751" lon="-105.2297889">
  <ele>1583.08</ele>
  <time>2026-08-28T17:49:16Z</time>
  <course>247.09</course>
  <speed>0.022360679774997897</speed>
  <fix>3d</fix>
</trkpt>
<trkpt lat="40.0713749" lon="-105.229789">
  <ele>1583.0</ele>
  <time>2026-08-28T17:49:16Z</time>
  <course>0.0</course>
  <speed>0.0</speed>
  <fix>3d</fix>
</trkpt>
<trkpt lat="40.071375" lon="-105.2297889">
  <ele>1583.08</ele>
  <time>2026-08-28T17:49:16Z</time>
  <course>247.09</course>
  <speed>0.022360679774997897</speed>
  <fix>3d</fix>
</trkpt>
<trkpt lat="40.0713749" lon="-105.229789">
  <ele>1583.0</ele>
  <time>2026-08-28T17:49:16Z</time>
  <course>0.0</course>
  <speed>0.0</speed>
  <fix>3d</fix>
</trkpt>
<trkpt lat="40.0713751" lon="-105.2297889">
  <ele>1583.08</ele>
  <time>2026-08-28T17:49:16Z</time>
  <course>247.09</course>
  <speed>0.022360679774997897</speed>
  <fix>3d</fix>
</trkpt>
<trkpt lat="40.0713749" lon="-105.229789">
  <ele>1583.0</ele>
  <time>2026-08-28T17:49:16Z</time>
  <course>0.0</course>
  <speed>0.0</speed>
  <fix>3d</fix>
</trkpt>
<trkpt lat="40.071375" lon="-105.2297889">
  <ele>1583.08</ele>
  <time>2026-08-28T17:49:16Z</time>
  <course>247.09</course>
  <speed>0.022360679774997897</speed>
  <fix>3d</fix>
</trkpt>
<trkpt lat="40.0713749" lon="-105.229789">
  <ele>1583.0</ele>
  <time>2026-08-28T17:49:16Z</time>
  <course>0.0</course>
  <speed>0.0</speed>
  <fix>3d</fix>
</trkpt>
<trkpt lat="40.0713751" lon="-105.2297889">
  <ele>1583.08</ele>
  <time>2026-08-28T17:49:16Z</time>
  <course>247.09</course>
  <speed>0.022360679774997897</speed>
  <fix>3d</fix>
</trkpt>
<trkpt lat="40.0713749" lon="-105.229789">
  <ele>1583.0</ele>
  <time>2026-08-28T17:49:16Z</time>
  <course>0.0</course>
  <speed>0.0</speed>
  <fix>3d</fix>
</trkpt>
<trkpt lat="40.071375" lon="-105.2297889">
  <ele>1583.08</ele>
  <time>2026-08-28T17:49:16Z</time>
  <course>247.09</course>
  <speed>0.022360679774997897</speed>
  <fix>3d</fix>
</trkpt>
<trkpt lat="40.0713749" lon="-105.229789">
  <ele>1583.0</ele>
  <time>2026-08-28T17:49:16Z</time>
  <course>0.0</course>
  <speed>0.0</speed>
  <fix>3d</fix>
</trkpt>
<trkpt lat="40.0713751" lon="-105.2297889">
  <ele>1583.09</ele>
  <time>2026-08-28T17:49:16Z</time>
  <course>247.09</course>
  <speed>0.022360679774997897</speed>
  <fix>3d</fix>
</trkpt>
<trkpt lat="40.0713749" lon="-105.229789">
  <ele>1583.0</ele>
  <time>2026-08-28T17:49:16Z</time>
  <course>0.0</course>
  <speed>0.0</speed>
  <fix>3d</fix>
</trkpt>
<trkpt lat="40.0713751" lon="-105.2297889">
  <ele>1583.1</ele>
  <time>2026-08-28T17:49:16Z</time>
  <course>247.09</course>
  <speed>0.022360679774997897</speed>
  <fix>3d</fix>
</trkpt>
<trkpt lat="40.0713749" lon="-105.229789">
  <ele>1583.0</ele>
  <time>2026-08-28T17:49:16Z</time>
  <course>0.0</course>
  <speed>0.0</speed>
  <fix>3d</fix>
</trkpt>
<trkpt lat="40.0713751" lon="-105.2297889">
  <ele>1583.1</ele>
  <time>2026-08-28T17:49:16Z</time>
  <course>247.09</course>
  <speed>0.022360679774997897</speed>
  <fix>3d</fix>
</trkpt>
<trkpt lat="40.0713749" lon="-105.229789">
  <ele>1583.0</ele>
  <time>2026-08-28T17:49:16Z</time>
  <course>0.0</course>
  <speed>0.0</speed>
  <fix>3d</fix>
</trkpt>
<trkpt lat="40.0713751" lon="-105.2297889">
  <ele>1583.1</ele>
  <time>2026-08-28T17:49:16Z</time>
  <course>247.09</course>
  <speed>0.022360679774997897</speed>
  <fix>3d</fix>
</trkpt>
<trkpt lat="40.0713749" lon="-105.229789">
  <ele>1583.0</ele>
  <time>2026-08-28T17:49:16Z</time>
  <course>0.0</course>
  <speed>0.0</speed>
  <fix>3d</fix>
</trkpt>
<trkpt lat="40.0713751" lon="-105.2297889">
  <ele>1583.1</ele>
  <time>2026-08-28T17:49:16Z</time>
  <course>247.09</course>
  <speed>0.022360679774997897</speed>
  <fix>3d</fix>
</trkpt>
<trkpt lat="40.0713749" lon="-105.229789">
  <ele>1583.0</ele>
  <time>2026-08-28T17:49:16Z</time>
  <course>0.0</course>
  <speed>0.0</speed>
  <fix>3d</fix>
</trkpt>
<trkpt lat="40.071375" lon="-105.2297889">
  <ele>1583.1</ele>
  <time>2026-08-28T17:49:16Z</time>
  <course>247.09</course>
  <speed>0.022360679774997897</speed>
  <fix>3d</fix>
</trkpt>
<trkpt lat="40.0713749" lon="-105.229789">
  <ele>1583.0</ele>
  <time>2026-08-28T17:49:16Z</time>
  <course>0.0</course>
  <speed>0.0</speed>
  <fix>3d</fix>
</trkpt>
<trkpt lat="40.0713751" lon="-105.2297889">
  <ele>1583.11</ele>
  <time>2026-08-28T17:49:16Z</time>
  <course>247.09</course>
  <speed>0.022360679774997897</speed>
  <fix>3d</fix>
</trkpt>
<trkpt lat="40.0713749" lon="-105.229789">
  <ele>1583.0</ele>
  <time>2026-08-28T17:49:16Z</time>
  <course>0.0</course>
  <speed>0.0</speed>
  <fix>3d</fix>
</trkpt>
<trkpt lat="40.071375" lon="-105.2297889">
  <ele>1583.11</ele>
  <time>2026-08-28T17:49:16Z</time>
  <course>247.09</course>
  <speed>0.022360679774997897</speed>
  <fix>3d</fix>
</trkpt>
<trkpt lat="40.0713749" lon="-105.229789">
  <ele>1583.0</ele>
  <time>2026-08-28T17:49:16Z</time>
  <course>0.0</course>
  <speed>0.0</speed>
  <fix>3d</fix>
</trkpt>
<trkpt lat="40.0713751" lon="-105.2297889">
  <ele>1583.11</ele>
  <time>2026-08-28T17:49:16Z</time>
  <course>247.09</course>
  <speed>0.022360679774997897</speed>
  <fix>3d</fix>
</trkpt>
<trkpt lat="40.0713749" lon="-105.229789">
  <ele>1583.0</ele>
  <time>2026-08-28T17:49:16Z</time>
  <course>0.0</course>
  <speed>0.0</speed>
  <fix>3d</fix>
</trkpt>
<trkpt lat="40.071375" lon="-105.2297889">
  <ele>1583.12</ele>
  <time>2026-08-28T17:49:16Z</time>
  <course>247.09</course>
  <speed>0.022360679774997897</speed>
  <fix>3d</fix>
</trkpt>
<trkpt lat="40.0713749" lon="-105.229789">
  <ele>1583.0</ele>
  <time>2026-08-28T17:49:16Z</time>
  <course>0.0</course>
  <speed>0.0</speed>
  <fix>3d</fix>
</trkpt>
<trkpt lat="40.0713751" lon="-105.2297889">
  <ele>1583.12</ele>
  <time>2026-08-28T17:49:16Z</time>
  <course>247.09</course>
  <speed>0.022360679774997897</speed>
  <fix>3d</fix>
</trkpt>
<trkpt lat="40.0713749" lon="-105.229789">
  <ele>1583.0</ele>
  <time>2026-08-28T17:49:16Z</time>
  <course>0.0</course>
  <speed>0.0</speed>
  <fix>3d</fix>
</trkpt>
<trkpt lat="40.071375" lon="-105.2297889">
  <ele>1583.13</ele>
  <time>2026-08-28T17:49:16Z</time>
  <course>247.09</course>
  <speed>0.022360679774997897</speed>
  <fix>3d</fix>
</trkpt>
<trkpt lat="40.0713749" lon="-105.229789">
  <ele>1583.0</ele>
  <time>2026-08-28T17:49:16Z</time>
  <course>0.0</course>
  <speed>0.0</speed>
  <fix>3d</fix>
</trkpt>
<trkpt lat="40.0713751" lon="-105.2297889">
  <ele>1583.13</ele>
  <time>2026-08-28T17:49:16Z</time>
  <course>247.09</course>
  <speed>0.022360679774997897</speed>
  <fix>3d</fix>
</trkpt>
<trkpt lat="40.0713749" lon="-105.229789">
  <ele>1583.0</ele>
  <time>2026-08-28T17:49:16Z</time>
  <course>0.0</course>
  <speed>0.0</speed>
  <fix>3d</fix>
</trkpt>
<trkpt lat="40.071375" lon="-105.2297889">
  <ele>1583.13</ele>
  <time>2026-08-28T17:49:16Z</time>
  <course>247.09</course>
  <speed>0.022360679774997897</speed>
  <fix>3d</fix>
</trkpt>
<trkpt lat="40.0713749" lon="-105.229789">
  <ele>1583.0</ele>
  <time>2026-08-28T17:49:16Z</time>
  <course>0.0</course>
  <speed>0.0</speed>
  <fix>3d</fix>
</trkpt>
<trkpt lat="40.0713751" lon="-105.2297889">
  <ele>1583.14</ele>
  <time>2026-08-28T17:49:16Z</time>
  <course>247.09</course>
  <speed>0.022360679774997897</speed>
  <fix>3d</fix>
</trkpt>
<trkpt lat="40.0713749" lon="-105.229789">
  <ele>1583.0</ele>
  <time>2026-08-28T17:49:16Z</time>
  <course>0.0</course>
  <speed>0.0</speed>
  <fix>3d</fix>
</trkpt>
<trkpt lat="40.071375" lon="-105.2297889">
  <ele>1583.14</ele>
  <time>2026-08-28T17:49:16Z</time>
  <course>247.09</course>
  <speed>0.022360679774997897</speed>
  <fix>3d</fix>
</trkpt>
<trkpt lat="40.0713749" lon="-105.229789">
  <ele>1583.0</ele>
  <time>2026-08-28T17:49:16Z</time>
  <course>0.0</course>
  <speed>0.0</speed>
  <fix>3d</fix>
</trkpt>
<trkpt lat="40.0713751" lon="-105.2297889">
  <ele>1583.14</ele>
  <time>2026-08-28T17:49:16Z</time>
  <course>247.09</course>
  <speed>0.022360679774997897</speed>
  <fix>3d</fix>
</trkpt>
<trkpt lat="40.0713749" lon="-105.229789">
  <ele>1583.0</ele>
  <time>2026-08-28T17:49:16Z</time>
  <course>0.0</course>
  <speed>0.0</speed>
  <fix>3d</fix>
</trkpt>
<trkpt lat="40.071375" lon="-105.2297889">
  <ele>1583.14</ele>
  <time>2026-08-28T17:49:16Z</time>
  <course>247.09</course>
  <speed>0.022360679774997897</speed>
  <fix>3d</fix>
</trkpt>
<trkpt lat="40.0713749" lon="-105.229789">
  <ele>1583.0</ele>
  <time>2026-08-28T17:49:16Z</time>
  <course>0.0</course>
  <speed>0.0</speed>
  <fix>3d</fix>
</trkpt>
<trkpt lat="40.0713751" lon="-105.2297889">
  <ele>1583.14</ele>
  <time>2026-08-28T17:49:16Z</time>
  <course>247.09</course>
  <speed>0.022360679774997897</speed>
  <fix>3d</fix>
</trkpt>
<trkpt lat="40.0713749" lon="-105.229789">
  <ele>1583.0</ele>
  <time>2026-08-28T17:49:16Z</time>
  <course>0.0</course>
  <speed>0.0</speed>
  <fix>3d</fix>
</trkpt>
<trkpt lat="40.0713751" lon="-105.2297889">
  <ele>1583.13</ele>
  <time>2026-08-28T17:49:16Z</time>
  <course>247.09</course>
  <speed>0.022360679774997897</speed>
  <fix>3d</fix>
</trkpt>
<trkpt lat="40.0713749" lon="-105.229789">
  <ele>1583.0</ele>
  <time>2026-08-28T17:49:16Z</time>
  <course>0.0</course>
  <speed>0.0</speed>
  <fix>3d</fix>
</trkpt>
<trkpt lat="40.0713751" lon="-105.2297889">
  <ele>1583.13</ele>
  <time>2026-08-28T17:49:16Z</time>
  <course>247.09</course>
  <speed>0.022360679774997897</speed>
  <fix>3d</fix>
</trkpt>
<trkpt lat="40.0713749" lon="-105.229789">
  <ele>1583.0</ele>
  <time>2026-08-28T17:49:16Z</time>
  <course>0.0</course>
  <speed>0.0</speed>
  <fix>3d</fix>
</trkpt>
<trkpt lat="40.0713751" lon="-105.2297889">
  <ele>1583.13</ele>
  <time>2026-08-28T17:49:16Z</time>
  <course>247.09</course>
  <speed>0.022360679774997897</speed>
  <fix>3d</fix>
</trkpt>
<trkpt lat="40.0713749" lon="-105.229789">
  <ele>1583.0</ele>
  <time>2026-08-28T17:49:16Z</time>
  <course>0.0</course>
  <speed>0.0</speed>
  <fix>3d</fix>
</trkpt>
<trkpt lat="40.0713751" lon="-105.2297889">
  <ele>1583.12</ele>
  <time>2026-08-28T17:49:16Z</time>
  <course>247.09</course>
  <speed>0.022360679774997897</speed>
  <fix>3d</fix>
</trkpt>
<trkpt lat="40.0713749" lon="-105.229789">
  <ele>1583.0</ele>
  <time>2026-08-28T17:49:16Z</time>
  <course>0.0</course>
  <speed>0.0</speed>
  <fix>3d</fix>
</trkpt>
<trkpt lat="40.0713751" lon="-105.2297889">
  <ele>1583.12</ele>
  <time>2026-08-28T17:49:16Z</time>
  <course>247.09</course>
  <speed>0.022360679774997897</speed>
  <fix>3d</fix>
</trkpt>
<trkpt lat="40.0713749" lon="-105.229789">
  <ele>1583.0</ele>
  <time>2026-08-28T17:49:16Z</time>
  <course>0.0</course>
  <speed>0.0</speed>
  <fix>3d</fix>
</trkpt>
<trkpt lat="40.0713751" lon="-105.2297889">
  <ele>1583.11</ele>
  <time>2026-08-28T17:49:16Z</time>
  <course>247.09</course>
  <speed>0.022360679774997897</speed>
  <fix>3d</fix>
</trkpt>
<trkpt lat="40.0713749" lon="-105.229789">
  <ele>1583.0</ele>
  <time>2026-08-28T17:49:16Z</time>
  <course>0.0</course>
  <speed>0.0</speed>
  <fix>3d</fix>
</trkpt>
<trkpt lat="40.0713751" lon="-105.2297889">
  <ele>1583.11</ele>
  <time>2026-08-28T17:49:16Z</time>
  <course>247.09</course>
  <speed>0.022360679774997897</speed>
  <fix>3d</fix>
</trkpt>
<trkpt lat="40.0713749" lon="-105.229789">
  <ele>1583.0</ele>
  <time>2026-08-28T17:49:16Z</time>
  <course>0.0</course>
  <speed>0.0</speed>
  <fix>3d</fix>
</trkpt>
<trkpt lat="40.0713751" lon="-105.2297889">
  <ele>1583.1</ele>
  <time>2026-08-28T17:49:16Z</time>
  <course>247.09</course>
  <speed>0.022360679774997897</speed>
  <fix>3d</fix>
</trkpt>
<trkpt lat="40.0713749" lon="-105.229789">
  <ele>1583.0</ele>
  <time>2026-08-28T17:49:16Z</time>
  <course>0.0</course>
  <speed>0.0</speed>
  <fix>3d</fix>
</trkpt>
<trkpt lat="40.071375" lon="-105.2297889">
  <ele>1583.1</ele>
  <time>2026-08-28T17:49:16Z</time>
  <course>247.09</course>
  <speed>0.022360679774997897</speed>
  <fix>3d</fix>
</trkpt>
<trkpt lat="40.0713749" lon="-105.229789">
  <ele>1583.0</ele>
  <time>2026-08-28T17:49:16Z</time>
  <course>0.0</course>
  <speed>0.0</speed>
  <fix>3d</fix>
</trkpt>
<trkpt lat="40.0713751" lon="-105.2297889">
  <ele>1583.09</ele>
  <time>2026-08-28T17:49:16Z</time>
  <course>247.09</course>
  <speed>0.022360679774997897</speed>
  <fix>3d</fix>
</trkpt>
<trkpt lat="40.0713749" lon="-105.229789">
  <ele>1583.0</ele>
  <time>2026-08-28T17:49:16Z</time>
  <course>0.0</course>
  <speed>0.0</speed>
  <fix>3d</fix>
</trkpt>
<trkpt lat="40.071375" lon="-105.2297889">
  <ele>1583.09</ele>
  <time>2026-08-28T17:49:16Z</time>
  <course>247.09</course>
  <speed>0.022360679774997897</speed>
  <fix>3d</fix>
</trkpt>
<trkpt lat="40.0713749" lon="-105.229789">
  <ele>1583.0</ele>
  <time>2026-08-28T17:49:16Z</time>
  <course>0.0</course>
  <speed>0.0</speed>
  <fix>3d</fix>
</trkpt>
<trkpt lat="40.0713751" lon="-105.2297889">
  <ele>1583.09</ele>
  <time>2026-08-28T17:49:16Z</time>
  <course>247.09</course>
  <speed>0.022360679774997897</speed>
  <fix>3d</fix>
</trkpt>
<trkpt lat="40.0713749" lon="-105.229789">
  <ele>1583.0</ele>
  <time>2026-08-28T17:49:16Z</time>
  <course>0.0</course>
  <speed>0.0</speed>
  <fix>3d</fix>
</trkpt>
<trkpt lat="40.071375" lon="-105.2297889">
  <ele>1583.08</ele>
  <time>2026-08-28T17:49:16Z</time>
  <course>247.09</course>
  <speed>0.022360679774997897</speed>
  <fix>3d</fix>
</trkpt>
<trkpt lat="40.0713749" lon="-105.229789">
  <ele>1583.0</ele>
  <time>2026-08-28T17:49:16Z</time>
  <course>0.0</course>
  <speed>0.0</speed>
  <fix>3d</fix>
</trkpt>
<trkpt lat="40.0713751" lon="-105.2297889">
  <ele>1583.08</ele>
  <time>2026-08-28T17:49:16Z</time>
  <course>247.09</course>
  <speed>0.022360679774997897</speed>
  <fix>3d</fix>
</trkpt>
<trkpt lat="40.0713749" lon="-105.229789">
  <ele>1583.0</ele>
  <time>2026-08-28T17:49:16Z</time>
  <course>0.0</course>
  <speed>0.0</speed>
  <fix>3d</fix>
</trkpt>
<trkpt lat="40.071375" lon="-105.2297889">
  <ele>1583.08</ele>
  <time>2026-08-28T17:49:16Z</time>
  <course>247.09</course>
  <speed>0.022360679774997897</speed>
  <fix>3d</fix>
</trkpt>
<trkpt lat="40.0713749" lon="-105.229789">
  <ele>1583.0</ele>
  <time>2026-08-28T17:49:16Z</time>
  <course>0.0</course>
  <speed>0.0</speed>
  <fix>3d</fix>
</trkpt>
<trkpt lat="40.0713751" lon="-105.2297889">
  <ele>1583.08</ele>
  <time>2026-08-28T17:49:16Z</time>
  <course>247.09</course>
  <speed>0.022360679774997897</speed>
  <fix>3d</fix>
</trkpt>
<trkpt lat="40.0713749" lon="-105.229789">
  <ele>1583.0</ele>
  <time>2026-08-28T17:49:16Z</time>
  <course>0.0</course>
  <speed>0.0</speed>
  <fix>3d</fix>
</trkpt>
<trkpt lat="40.071375" lon="-105.2297889">
  <ele>1583.07</ele>
  <time>2026-08-28T17:49:16Z</time>
  <course>247.09</course>
  <speed>0.022360679774997897</speed>
  <fix>3d</fix>
</trkpt>
<trkpt lat="40.0713749" lon="-105.229789">
  <ele>1583.0</ele>
  <time>2026-08-28T17:49:16Z</time>
  <course>0.0</course>
  <speed>0.0</speed>
  <fix>3d</fix>
</trkpt>
<trkpt lat="40.0713751" lon="-105.2297889">
  <ele>1583.07</ele>
  <time>2026-08-28T17:49:16Z</time>
  <course>247.09</course>
  <speed>0.022360679774997897</speed>
  <fix>3d</fix>
</trkpt>
<trkpt lat="40.0713749" lon="-105.229789">
  <ele>1583.0</ele>
  <time>2026-08-28T17:49:16Z</time>
  <course>0.0</course>
  <speed>0.0</speed>
  <fix>3d</fix>
</trkpt>
<trkpt lat="40.071375" lon="-105.2297889">
  <ele>1583.07</ele>
  <time>2026-08-28T17:49:16Z</time>
  <course>247.09</course>
  <speed>0.022360679774997897</speed>
  <fix>3d</fix>
</trkpt>
<trkpt lat="40.0713749" lon="-105.229789">
  <ele>1583.0</ele>
  <time>2026-08-28T17:49:16Z</time>
  <course>0.0</course>
  <speed>0.0</speed>
  <fix>3d</fix>
</trkpt>
<trkpt lat="40.0713751" lon="-105.2297889">
  <ele>1583.07</ele>
  <time>2026-08-28T17:49:16Z</time>
  <course>247.09</course>
  <speed>0.022360679774997897</speed>
  <fix>3d</fix>
</trkpt>
<trkpt lat="40.0713749" lon="-105.229789">
  <ele>1583.0</ele>
  <time>2026-08-28T17:49:16Z</time>
  <course>0.0</course>
  <speed>0.0</speed>
  <fix>3d</fix>
</trkpt>
<trkpt lat="40.071375" lon="-105.2297889">
  <ele>1583.07</ele>
  <time>2026-08-28T17:49:16Z</time>
  <course>247.09</course>
  <speed>0.022360679774997897</speed>
  <fix>3d</fix>
</trkpt>
<trkpt lat="40.0713749" lon="-105.229789">
  <ele>1583.0</ele>
  <time>2026-08-28T17:49:16Z</time>
  <course>0.0</course>
  <speed>0.0</speed>
  <fix>3d</fix>
</trkpt>
<trkpt lat="40.0713751" lon="-105.2297889">
  <ele>1583.07</ele>
  <time>2026-08-28T17:49:16Z</time>
  <course>247.09</course>
  <speed>0.022360679774997897</speed>
  <fix>3d</fix>
</trkpt>
<trkpt lat="40.0713749" lon="-105.229789">
  <ele>1583.0</ele>
  <time>2026-08-28T17:49:16Z</time>
  <course>0.0</course>
  <speed>0.0</speed>
  <fix>3d</fix>
</trkpt>
<trkpt lat="40.071375" lon="-105.2297889">
  <ele>1583.08</ele>
  <time>2026-08-28T17:49:16Z</time>
  <course>247.09</course>
  <speed>0.022360679774997897</speed>
  <fix>3d</fix>
</trkpt>
<trkpt lat="40.0713749" lon="-105.229789">
  <ele>1583.0</ele>
  <time>2026-08-28T17:49:16Z</time>
  <course>0.0</course>
  <speed>0.0</speed>
  <fix>3d</fix>
</trkpt>
<trkpt lat="40.0713751" lon="-105.2297889">
  <ele>1583.08</ele>
  <time>2026-08-28T17:49:16Z</time>
  <course>247.09</course>
  <speed>0.022360679774997897</speed>
  <fix>3d</fix>
</trkpt>
<trkpt lat="40.0713749" lon="-105.229789">
  <ele>1583.0</ele>
  <time>2026-08-28T17:49:16Z</time>
  <course>0.0</course>
  <speed>0.0</speed>
  <fix>3d</fix>
</trkpt>
<trkpt lat="40.0713751" lon="-105.2297889">
  <ele>1583.07</ele>
  <time>2026-08-28T17:49:16Z</time>
  <course>247.09</course>
  <speed>0.022360679774997897</speed>
  <fix>3d</fix>
</trkpt>
<trkpt lat="40.0713749" lon="-105.229789">
  <ele>1583.0</ele>
  <time>2026-08-28T17:49:16Z</time>
  <course>0.0</course>
  <speed>0.0</speed>
  <fix>3d</fix>
</trkpt>
<trkpt lat="40.0713751" lon="-105.2297889">
  <ele>1583.08</ele>
  <time>2026-08-28T17:49:16Z</time>
  <course>247.09</course>
  <speed>0.022360679774997897</speed>
  <fix>3d</fix>
</trkpt>
<trkpt lat="40.0713749" lon="-105.229789">
  <ele>1583.0</ele>
  <time>2026-08-28T17:49:16Z</time>
  <course>0.0</course>
  <speed>0.0</speed>
  <fix>3d</fix>
</trkpt>
<trkpt lat="40.0713751" lon="-105.2297889">
  <ele>1583.08</ele>
  <time>2026-08-28T17:49:16Z</time>
  <course>247.09</course>
  <speed>0.022360679774997897</speed>
  <fix>3d</fix>
</trkpt>
<trkpt lat="40.0713749" lon="-105.229789">
  <ele>1583.0</ele>
  <time>2026-08-28T17:49:16Z</time>
  <course>0.0</course>
  <speed>0.0</speed>
  <fix>3d</fix>
</trkpt>
<trkpt lat="40.0713751" lon="-105.2297889">
  <ele>1583.07</ele>
  <time>2026-08-28T17:49:16Z</time>
  <course>247.09</course>
  <speed>0.022360679774997897</speed>
  <fix>3d</fix>
</trkpt>
<trkpt lat="40.0713749" lon="-105.229789">
  <ele>1583.0</ele>
  <time>2026-08-28T17:49:16Z</time>
  <course>0.0</course>
  <speed>0.0</speed>
  <fix>3d</fix>
</trkpt>
<trkpt lat="40.071375" lon="-105.2297889">
  <ele>1583.07</ele>
  <time>2026-08-28T17:49:16Z</time>
  <course>247.09</course>
  <speed>0.022360679774997897</speed>
  <fix>3d</fix>
</trkpt>
<trkpt lat="40.0713749" lon="-105.229789">
  <ele>1583.0</ele>
  <time>2026-08-28T17:49:16Z</time>
  <course>0.0</course>
  <speed>0.0</speed>
  <fix>3d</fix>
</trkpt>
<trkpt lat="40.0713751" lon="-105.2297889">
  <ele>1583.06</ele>
  <time>2026-08-28T17:49:16Z</time>
  <course>247.09</course>
  <speed>0.022360679774997897</speed>
  <fix>3d</fix>
</trkpt>
<trkpt lat="40.0713749" lon="-105.229789">
  <ele>1583.0</ele>
  <time>2026-08-28T17:49:16Z</time>
  <course>0.0</course>
  <speed>0.0</speed>
  <fix>3d</fix>
</trkpt>
<trkpt lat="40.071375" lon="-105.2297889">
  <ele>1583.06</ele>
  <time>2026-08-28T17:49:16Z</time>
  <course>247.09</course>
  <speed>0.022360679774997897</speed>
  <fix>3d</fix>
</trkpt>
<trkpt lat="40.0713749" lon="-105.229789">
  <ele>1583.0</ele>
  <time>2026-08-28T17:49:16Z</time>
  <course>0.0</course>
  <speed>0.0</speed>
  <fix>3d</fix>
</trkpt>
<trkpt lat="40.0713751" lon="-105.2297889">
  <ele>1583.05</ele>
  <time>2026-08-28T17:49:16Z</time>
  <course>247.09</course>
  <speed>0.022360679774997897</speed>
  <fix>3d</fix>
</trkpt>
<trkpt lat="40.0713749" lon="-105.229789">
  <ele>1583.0</ele>
  <time>2026-08-28T17:49:16Z</time>
  <course>0.0</course>
  <speed>0.0</speed>
  <fix>3d</fix>
</trkpt>
<trkpt lat="40.071375" lon="-105.2297889">
  <ele>1583.04</ele>
  <time>2026-08-28T17:49:16Z</time>
  <course>247.09</course>
  <speed>0.022360679774997897</speed>
  <fix>3d</fix>
</trkpt>
<trkpt lat="40.0713749" lon="-105.229789">
  <ele>1583.0</ele>
  <time>2026-08-28T17:49:16Z</time>
  <course>0.0</course>
  <speed>0.0</speed>
  <fix>3d</fix>
</trkpt>
<trkpt lat="40.0713751" lon="-105.2297889">
  <ele>1583.04</ele>
  <time>2026-08-28T17:49:16Z</time>
  <course>247.09</course>
  <speed>0.022360679774997897</speed>
  <fix>3d</fix>
</trkpt>
<trkpt lat="40.0713749" lon="-105.229789">
  <ele>1583.0</ele>
  <time>2026-08-28T17:49:16Z</time>
  <course>0.0</course>
  <speed>0.0</speed>
  <fix>3d</fix>
</trkpt>
<trkpt lat="40.071375" lon="-105.2297889">
  <ele>1583.03</ele>
  <time>2026-08-28T17:49:16Z</time>
  <course>247.09</course>
  <speed>0.022360679774997897</speed>
  <fix>3d</fix>
</trkpt>
<trkpt lat="40.0713749" lon="-105.229789">
  <ele>1583.0</ele>
  <time>2026-08-28T17:49:16Z</time>
  <course>0.0</course>
  <speed>0.0</speed>
  <fix>3d</fix>
</trkpt>
<trkpt lat="40.0713751" lon="-105.2297889">
  <ele>1583.02</ele>
  <time>2026-08-28T17:49:16Z</time>
  <course>247.09</course>
  <speed>0.022360679774997897</speed>
  <fix>3d</fix>
</trkpt>
<trkpt lat="40.0713749" lon="-105.229789">
  <ele>1583.0</ele>
  <time>2026-08-28T17:49:16Z</time>
  <course>0.0</course>
  <speed>0.0</speed>
  <fix>3d</fix>
</trkpt>
<trkpt lat="40.071375" lon="-105.2297889">
  <ele>1583.01</ele>
  <time>2026-08-28T17:49:16Z</time>
  <course>247.09</course>
  <speed>0.022360679774997897</speed>
  <fix>3d</fix>
</trkpt>
<trkpt lat="40.0713749" lon="-105.229789">
  <ele>1583.0</ele>
  <time>2026-08-28T17:49:16Z</time>
  <course>0.0</course>
  <speed>0.0</speed>
  <fix>3d</fix>
</trkpt>
<trkpt lat="40.0713751" lon="-105.2297889">
  <ele>1583.01</ele>
  <time>2026-08-28T17:49:16Z</time>
  <course>247.09</course>
  <speed>0.022360679774997897</speed>
  <fix>3d</fix>
</trkpt>
<trkpt lat="40.0713749" lon="-105.229789">
  <ele>1583.0</ele>
  <time>2026-08-28T17:49:16Z</time>
  <course>0.0</course>
  <speed>0.0</speed>
  <fix>3d</fix>
</trkpt>
<trkpt lat="40.071375" lon="-105.2297889">
  <ele>1583.01</ele>
  <time>2026-08-28T17:49:16Z</time>
  <course>247.09</course>
  <speed>0.022360679774997897</speed>
  <fix>3d</fix>
</trkpt>
<trkpt lat="40.0713749" lon="-105.229789">
  <ele>1583.0</ele>
  <time>2026-08-28T17:49:16Z</time>
  <course>0.0</course>
  <speed>0.0</speed>
  <fix>3d</fix>
</trkpt>
<trkpt lat="40.0713751" lon="-105.2297889">
  <ele>1583.01</ele>
  <time>2026-08-28T17:49:16Z</time>
  <course>247.09</course>
  <speed>0.022360679774997897</speed>
  <fix>3d</fix>
</trkpt>
<trkpt lat="40.0713749" lon="-105.229789">
  <ele>1583.0</ele>
  <time>2026-08-28T17:49:16Z</time>
  <course>0.0</course>
  <speed>0.0</speed>
  <fix>3d</fix>
</trkpt>
<trkpt lat="40.071375" lon="-105.2297889">
  <ele>1583.01</ele>
  <time>2026-08-28T17:49:16Z</time>
  <course>247.09</course>
  <speed>0.022360679774997897</speed>
  <fix>3d</fix>
</trkpt>
<trkpt lat="40.0713749" lon="-105.229789">
  <ele>1583.0</ele>
  <time>2026-08-28T17:49:16Z</time>
  <course>0.0</course>
  <speed>0.0</speed>
  <fix>3d</fix>
</trkpt>
<trkpt lat="40.0713751" lon="-105.2297889">
  <ele>1583.01</ele>
  <time>2026-08-28T17:49:16Z</time>
  <course>247.09</course>
  <speed>0.022360679774997897</speed>
  <fix>3d</fix>
</trkpt>
<trkpt lat="40.0713749" lon="-105.229789">
  <ele>1583.0</ele>
  <time>2026-08-28T17:49:16Z</time>
  <course>0.0</course>
  <speed>0.0</speed>
  <fix>3d</fix>
</trkpt>
<trkpt lat="40.071375" lon="-105.2297889">
  <ele>1583.02</ele>
  <time>2026-08-28T17:49:16Z</time>
  <course>247.09</course>
  <speed>0.022360679774997897</speed>
  <fix>3d</fix>
</trkpt>
<trkpt lat="40.0713749" lon="-105.229789">
  <ele>1583.0</ele>
  <time>2026-08-28T17:49:16Z</time>
  <course>0.0</course>
  <speed>0.0</speed>
  <fix>3d</fix>
</trkpt>
<trkpt lat="40.0713751" lon="-105.2297889">
  <ele>1583.02</ele>
  <time>2026-08-28T17:49:16Z</time>
  <course>247.09</course>
  <speed>0.022360679774997897</speed>
  <fix>3d</fix>
</trkpt>
<trkpt lat="40.0713749" lon="-105.229789">
  <ele>1583.0</ele>
  <time>2026-08-28T17:49:16Z</time>
  <course>0.0</course>
  <speed>0.0</speed>
  <fix>3d</fix>
</trkpt>
<trkpt lat="40.0713751" lon="-105.2297889">
  <ele>1583.02</ele>
  <time>2026-08-28T17:49:16Z</time>
  <course>247.09</course>
  <speed>0.022360679774997897</speed>
  <fix>3d</fix>
</trkpt>
<trkpt lat="40.0713749" lon="-105.229789">
  <ele>1583.0</ele>
  <time>2026-08-28T17:49:16Z</time>
  <course>0.0</course>
  <speed>0.0</speed>
  <fix>3d</fix>
</trkpt>
<trkpt lat="40.0713751" lon="-105.2297889">
  <ele>1583.02</ele>
  <time>2026-08-28T17:49:16Z</time>
  <course>247.09</course>
  <speed>0.022360679774997897</speed>
  <fix>3d</fix>
</trkpt>
<trkpt lat="40.0713749" lon="-105.229789">
  <ele>1583.0</ele>
  <time>2026-08-28T17:49:16Z</time>
  <course>0.0</course>
  <speed>0.0</speed>
  <fix>3d</fix>
</trkpt>
<trkpt lat="40.0713751" lon="-105.2297889">
  <ele>1583.02</ele>
  <time>2026-08-28T17:49:16Z</time>
  <course>247.09</course>
  <speed>0.022360679774997897</speed>
  <fix>3d</fix>
</trkpt>
<trkpt lat="40.0713749" lon="-105.229789">
  <ele>1583.0</ele>
  <time>2026-08-28T17:49:16Z</time>
  <course>0.0</course>
  <speed>0.0</speed>
  <fix>3d</fix>
</trkpt>
<trkpt lat="40.0713751" lon="-105.2297889">
  <ele>1583.02</ele>
  <time>2026-08-28T17:49:16Z</time>
  <course>247.09</course>
  <speed>0.022360679774997897</speed>
  <fix>3d</fix>
</trkpt>
<trkpt lat="40.0713749" lon="-105.229789">
  <ele>1583.0</ele>
  <time>2026-08-28T17:49:16Z</time>
  <course>0.0</course>
  <speed>0.0</speed>
  <fix>3d</fix>
</trkpt>
<trkpt lat="40.0713751" lon="-105.2297889">
  <ele>1583.02</ele>
  <time>2026-08-28T17:49:16Z</time>
  <course>247.09</course>
  <speed>0.022360679774997897</speed>
  <fix>3d</fix>
</trkpt>
<trkpt lat="40.0713749" lon="-105.229789">
  <ele>1583.0</ele>
  <time>2026-08-28T17:49:16Z</time>
  <course>0.0</course>
  <speed>0.0</speed>
  <fix>3d</fix>
</trkpt>
<trkpt lat="40.0713751" lon="-105.2297889">
  <ele>1583.03</ele>
  <time>2026-08-28T17:49:16Z</time>
  <course>247.09</course>
  <speed>0.022360679774997897</speed>
  <fix>3d</fix>
</trkpt>
<trkpt lat="40.0713749" lon="-105.229789">
  <ele>1583.0</ele>
  <time>2026-08-28T17:49:16Z</time>
  <course>0.0</course>
  <speed>0.0</speed>
  <fix>3d</fix>
</trkpt>
<trkpt lat="40.071375" lon="-105.2297889">
  <ele>1583.03</ele>
  <time>2026-08-28T17:49:16Z</time>
  <course>247.09</course>
  <speed>0.022360679774997897</speed>
  <fix>3d</fix>
</trkpt>
<trkpt lat="40.0713749" lon="-105.229789">
  <ele>1583.0</ele>
  <time>2026-08-28T17:49:16Z</time>
  <course>0.0</course>
  <speed>0.0</speed>
  <fix>3d</fix>
</trkpt>
<trkpt lat="40.0713751" lon="-105.2297889">
  <ele>1583.04</ele>
  <time>2026-08-28T17:49:16Z</time>
  <course>247.09</course>
  <speed>0.022360679774997897</speed>
  <fix>3d</fix>
</trkpt>
<trkpt lat="40.0713749" lon="-105.229789">
  <ele>1583.0</ele>
  <time>2026-08-28T17:49:16Z</time>
  <course>0.0</course>
  <speed>0.0</speed>
  <fix>3d</fix>
</trkpt>
<trkpt lat="40.071375" lon="-105.2297889">
  <ele>1583.04</ele>
  <time>2026-08-28T17:49:16Z</time>
  <course>247.09</course>
  <speed>0.022360679774997897</speed>
  <fix>3d</fix>
</trkpt>
<trkpt lat="40.0713749" lon="-105.229789">
  <ele>1583.0</ele>
  <time>2026-08-28T17:49:16Z</time>
  <course>0.0</course>
  <speed>0.0</speed>
  <fix>3d</fix>
</trkpt>
<trkpt lat="40.071375" lon="-105.2297889">
  <ele>1583.04</ele>
  <time>2026-08-28T17:49:16Z</time>
  <course>247.09</course>
  <speed>0.022360679774997897</speed>
  <fix>3d</fix>
</trkpt>
<trkpt lat="40.0713749" lon="-105.229789">
  <ele>1583.0</ele>
  <time>2026-08-28T17:49:16Z</time>
  <course>0.0</course>
  <speed>0.0</speed>
  <fix>3d</fix>
</trkpt>
<trkpt lat="40.071375" lon="-105.2297889">
  <ele>1583.04</ele>
  <time>2026-08-28T17:49:16Z</time>
  <course>247.09</course>
  <speed>0.022360679774997897</speed>
  <fix>3d</fix>
</trkpt>
<trkpt lat="40.0713749" lon="-105.229789">
  <ele>1583.0</ele>
  <time>2026-08-28T17:49:16Z</time>
  <course>0.0</course>
  <speed>0.0</speed>
  <fix>3d</fix>
</trkpt>
<trkpt lat="40.0713751" lon="-105.2297889">
  <ele>1583.04</ele>
  <time>2026-08-28T17:49:16Z</time>
  <course>247.09</course>
  <speed>0.022360679774997897</speed>
  <fix>3d</fix>
</trkpt>
<trkpt lat="40.0713749" lon="-105.229789">
  <ele>1583.0</ele>
  <time>2026-08-28T17:49:16Z</time>
  <course>0.0</course>
  <speed>0.0</speed>
  <fix>3d</fix>
</trkpt>
<trkpt lat="40.071375" lon="-105.2297889">
  <ele>1583.05</ele>
  <time>2026-08-28T17:49:16Z</time>
  <course>247.09</course>
  <speed>0.022360679774997897</speed>
  <fix>3d</fix>
</trkpt>
<trkpt lat="40.0713749" lon="-105.229789">
  <ele>1583.0</ele>
  <time>2026-08-28T17:49:16Z</time>
  <course>0.0</course>
  <speed>0.0</speed>
  <fix>3d</fix>
</trkpt>
<trkpt lat="40.0713751" lon="-105.2297889">
  <ele>1583.05</ele>
  <time>2026-08-28T17:49:16Z</time>
  <course>247.09</course>
  <speed>0.022360679774997897</speed>
  <fix>3d</fix>
</trkpt>
<trkpt lat="40.0713749" lon="-105.229789">
  <ele>1583.0</ele>
  <time>2026-08-28T17:49:16Z</time>
  <course>0.0</course>
  <speed>0.0</speed>
  <fix>3d</fix>
</trkpt>
<trkpt lat="40.071375" lon="-105.2297889">
  <ele>1583.05</ele>
  <time>2026-08-28T17:49:16Z</time>
  <course>247.09</course>
  <speed>0.022360679774997897</speed>
  <fix>3d</fix>
</trkpt>
<trkpt lat="40.0713749" lon="-105.229789">
  <ele>1583.0</ele>
  <time>2026-08-28T17:49:16Z</time>
  <course>0.0</course>
  <speed>0.0</speed>
  <fix>3d</fix>
</trkpt>
<trkpt lat="40.0713751" lon="-105.2297889">
  <ele>1583.06</ele>
  <time>2026-08-28T17:49:16Z</time>
  <course>247.09</course>
  <speed>0.022360679774997897</speed>
  <fix>3d</fix>
</trkpt>
<trkpt lat="40.0713749" lon="-105.229789">
  <ele>1583.0</ele>
  <time>2026-08-28T17:49:16Z</time>
  <course>0.0</course>
  <speed>0.0</speed>
  <fix>3d</fix>
</trkpt>
<trkpt lat="40.071375" lon="-105.2297889">
  <ele>1583.06</ele>
  <time>2026-08-28T17:49:16Z</time>
  <course>247.09</course>
  <speed>0.022360679774997897</speed>
  <fix>3d</fix>
</trkpt>
<trkpt lat="40.0713749" lon="-105.229789">
  <ele>1583.0</ele>
  <time>2026-08-28T17:49:16Z</time>
  <course>0.0</course>
  <speed>0.0</speed>
  <fix>3d</fix>
</trkpt>
<trkpt lat="40.0713751" lon="-105.2297889">
  <ele>1583.06</ele>
  <time>2026-08-28T17:49:16Z</time>
  <course>247.09</course>
  <speed>0.022360679774997897</speed>
  <fix>3d</fix>
</trkpt>
<trkpt lat="40.0713749" lon="-105.229789">
  <ele>1583.0</ele>
  <time>2026-08-28T17:49:16Z</time>
  <course>0.0</course>
  <speed>0.0</speed>
  <fix>3d</fix>
</trkpt>
<trkpt lat="40.0713751" lon="-105.2297889">
  <ele>1583.06</ele>
  <time>2026-08-28T17:49:16Z</time>
  <course>247.09</course>
  <speed>0.022360679774997897</speed>
  <fix>3d</fix>
</trkpt>
<trkpt lat="40.0713749" lon="-105.229789">
  <ele>1583.0</ele>
  <time>2026-08-28T17:49:16Z</time>
  <course>0.0</course>
  <speed>0.0</speed>
  <fix>3d</fix>
</trkpt>
<trkpt lat="40.0713751" lon="-105.2297889">
  <ele>1583.06</ele>
  <time>2026-08-28T17:49:16Z</time>
  <course>247.09</course>
  <speed>0.022360679774997897</speed>
  <fix>3d</fix>
</trkpt>
<trkpt lat="40.0713749" lon="-105.229789">
  <ele>1583.0</ele>
  <time>2026-08-28T17:49:16Z</time>
  <course>0.0</course>
  <speed>0.0</speed>
  <fix>3d</fix>
</trkpt>
<trkpt lat="40.0713751" lon="-105.2297889">
  <ele>1583.06</ele>
  <time>2026-08-28T17:49:16Z</time>
  <course>247.09</course>
  <speed>0.022360679774997897</speed>
  <fix>3d</fix>
</trkpt>
<trkpt lat="40.0713749" lon="-105.229789">
  <ele>1583.0</ele>
  <time>2026-08-28T17:49:16Z</time>
  <course>0.0</course>
  <speed>0.0</speed>
  <fix>3d</fix>
</trkpt>
<trkpt lat="40.0713751" lon="-105.2297889">
  <ele>1583.06</ele>
  <time>2026-08-28T17:49:16Z</time>
  <course>247.09</course>
  <speed>0.022360679774997897</speed>
  <fix>3d</fix>
</trkpt>
<trkpt lat="40.0713749" lon="-105.229789">
  <ele>1583.0</ele>
  <time>2026-08-28T17:49:16Z</time>
  <course>0.0</course>
  <speed>0.0</speed>
  <fix>3d</fix>
</trkpt>
<trkpt lat="40.0713751" lon="-105.2297889">
  <ele>1583.06</ele>
  <time>2026-08-28T17:49:16Z</time>
  <course>247.09</course>
  <speed>0.022360679774997897</speed>
  <fix>3d</fix>
</trkpt>
<trkpt lat="40.0713749" lon="-105.229789">
  <ele>1583.0</ele>
  <time>2026-08-28T17:49:16Z</time>
  <course>0.0</course>
  <speed>0.0</speed>
  <fix>3d</fix>
</trkpt>
<trkpt lat="40.0713751" lon="-105.2297889">
  <ele>1583.06</ele>
  <time>2026-08-28T17:49:16Z</time>
  <course>247.09</course>
  <speed>0.022360679774997897</speed>
  <fix>3d</fix>
</trkpt>
<trkpt lat="40.0713749" lon="-105.229789">
  <ele>1583.0</ele>
  <time>2026-08-28T17:49:16Z</time>
  <course>0.0</course>
  <speed>0.0</speed>
  <fix>3d</fix>
</trkpt>
<trkpt lat="40.0713751" lon="-105.2297889">
  <ele>1583.06</ele>
  <time>2026-08-28T17:49:16Z</time>
  <course>247.09</course>
  <speed>0.022360679774997897</speed>
  <fix>3d</fix>
</trkpt>
<trkpt lat="40.0713749" lon="-105.229789">
  <ele>1583.0</ele>
  <time>2026-08-28T17:49:16Z</time>
  <course>0.0</course>
  <speed>0.0</speed>
  <fix>3d</fix>
</trkpt>
<trkpt lat="40.0713751" lon="-105.2297889">
  <ele>1583.05</ele>
  <time>2026-08-28T17:49:16Z</time>
  <course>247.09</course>
  <speed>0.022360679774997897</speed>
  <fix>3d</fix>
</trkpt>
<trkpt lat="40.0713749" lon="-105.229789">
  <ele>1583.0</ele>
  <time>2026-08-28T17:49:16Z</time>
  <course>0.0</course>
  <speed>0.0</speed>
  <fix>3d</fix>
</trkpt>
<trkpt lat="40.0713751" lon="-105.2297889">
  <ele>1583.05</ele>
  <time>2026-08-28T17:49:16Z</time>
  <course>247.09</course>
  <speed>0.022360679774997897</speed>
  <fix>3d</fix>
</trkpt>
<trkpt lat="40.0713749" lon="-105.229789">
  <ele>1583.0</ele>
  <time>2026-08-28T17:49:16Z</time>
  <course>0.0</course>
  <speed>0.0</speed>
  <fix>3d</fix>
</trkpt>
<trkpt lat="40.0713751" lon="-105.2297889">
  <ele>1583.04</ele>
  <time>2026-08-28T17:49:16Z</time>
  <course>247.09</course>
  <speed>0.022360679774997897</speed>
  <fix>3d</fix>
</trkpt>
<trkpt lat="40.0713749" lon="-105.229789">
  <ele>1583.0</ele>
  <time>2026-08-28T17:49:16Z</time>
  <course>0.0</course>
  <speed>0.0</speed>
  <fix>3d</fix>
</trkpt>
<trkpt lat="40.071375" lon="-105.2297889">
  <ele>1583.04</ele>
  <time>2026-08-28T17:49:16Z</time>
  <course>247.09</course>
  <speed>0.022360679774997897</speed>
  <fix>3d</fix>
</trkpt>
<trkpt lat="40.0713749" lon="-105.229789">
  <ele>1583.0</ele>
  <time>2026-08-28T17:49:16Z</time>
  <course>0.0</course>
  <speed>0.0</speed>
  <fix>3d</fix>
</trkpt>
<trkpt lat="40.0713751" lon="-105.2297889">
  <ele>1583.03</ele>
  <time>2026-08-28T17:49:16Z</time>
  <course>247.09</course>
  <speed>0.022360679774997897</speed>
  <fix>3d</fix>
</trkpt>
<trkpt lat="40.0713749" lon="-105.229789">
  <ele>1583.0</ele>
  <time>2026-08-28T17:49:16Z</time>
  <course>0.0</course>
  <speed>0.0</speed>
  <fix>3d</fix>
</trkpt>
<trkpt lat="40.071375" lon="-105.2297889">
  <ele>1583.03</ele>
  <time>2026-08-28T17:49:16Z</time>
  <course>247.09</course>
  <speed>0.022360679774997897</speed>
  <fix>3d</fix>
</trkpt>
<trkpt lat="40.0713749" lon="-105.229789">
  <ele>1583.0</ele>
  <time>2026-08-28T17:49:16Z</time>
  <course>0.0</course>
  <speed>0.0</speed>
  <fix>3d</fix>
</trkpt>
<trkpt lat="40.0713751" lon="-105.2297889">
  <ele>1583.03</ele>
  <time>2026-08-28T17:49:16Z</time>
  <course>247.09</course>
  <speed>0.022360679774997897</speed>
  <fix>3d</fix>
</trkpt>
<trkpt lat="40.0713749" lon="-105.229789">
  <ele>1583.0</ele>
  <time>2026-08-28T17:49:16Z</time>
  <course>0.0</course>
  <speed>0.0</speed>
  <fix>3d</fix>
</trkpt>
<trkpt lat="40.071375" lon="-105.2297889">
  <ele>1583.02</ele>
  <time>2026-08-28T17:49:16Z</time>
  <course>247.09</course>
  <speed>0.022360679774997897</speed>
  <fix>3d</fix>
</trkpt>
<trkpt lat="40.0713749" lon="-105.229789">
  <ele>1583.0</ele>
  <time>2026-08-28T17:49:16Z</time>
  <course>0.0</course>
  <speed>0.0</speed>
  <fix>3d</fix>
</trkpt>
<trkpt lat="40.0713751" lon="-105.2297889">
  <ele>1583.02</ele>
  <time>2026-08-28T17:49:16Z</time>
  <course>247.09</course>
  <speed>0.022360679774997897</speed>
  <fix>3d</fix>
</trkpt>
<trkpt lat="40.0713749" lon="-105.229789">
  <ele>1583.0</ele>
  <time>2026-08-28T17:49:16Z</time>
  <course>0.0</course>
  <speed>0.0</speed>
  <fix>3d</fix>
</trkpt>
<trkpt lat="40.0713751" lon="-105.2297889">
  <ele>1583.02</ele>
  <time>2026-08-28T17:49:16Z</time>
  <course>247.09</course>
  <speed>0.022360679774997897</speed>
  <fix>3d</fix>
</trkpt>
<trkpt lat="40.0713749" lon="-105.229789">
  <ele>1583.0</ele>
  <time>2026-08-28T17:49:16Z</time>
  <course>0.0</course>
  <speed>0.0</speed>
  <fix>3d</fix>
</trkpt>
<trkpt lat="40.0713751" lon="-105.2297889">
  <ele>1583.02</ele>
  <time>2026-08-28T17:49:16Z</time>
  <course>247.09</course>
  <speed>0.022360679774997897</speed>
  <fix>3d</fix>
</trkpt>
<trkpt lat="40.0713749" lon="-105.229789">
  <ele>1583.0</ele>
  <time>2026-08-28T17:49:16Z</time>
  <course>0.0</course>
  <speed>0.0</speed>
  <fix>3d</fix>
</trkpt>
<trkpt lat="40.0713751" lon="-105.2297889">
  <ele>1583.02</ele>
  <time>2026-08-28T17:49:16Z</time>
  <course>247.09</course>
  <speed>0.022360679774997897</speed>
  <fix>3d</fix>
</trkpt>
<trkpt lat="40.0713749" lon="-105.229789">
  <ele>1583.0</ele>
  <time>2026-08-28T17:49:16Z</time>
  <course>0.0</course>
  <speed>0.0</speed>
  <fix>3d</fix>
</trkpt>
<trkpt lat="40.0713751" lon="-105.2297889">
  <ele>1583.02</ele>
  <time>2026-08-28T17:49:16Z</time>
  <course>247.09</course>
  <speed>0.022360679774997897</speed>
  <fix>3d</fix>
</trkpt>
<trkpt lat="40.0713749" lon="-105.229789">
  <ele>1583.0</ele>
  <time>2026-08-28T17:49:16Z</time>
  <course>0.0</course>
  <speed>0.0</speed>
  <fix>3d</fix>
</trkpt>
<trkpt lat="40.0713751" lon="-105.2297889">
  <ele>1583.02</ele>
  <time>2026-08-28T17:49:16Z</time>
  <course>247.09</course>
  <speed>0.022360679774997897</speed>
  <fix>3d</fix>
</trkpt>
<trkpt lat="40.0713749" lon="-105.229789">
  <ele>1583.0</ele>
  <time>2026-08-28T17:49:16Z</time>
  <course>0.0</course>
  <speed>0.0</speed>
  <fix>3d</fix>
</trkpt>
<trkpt lat="40.0713751" lon="-105.2297889">
  <ele>1583.01</ele>
  <time>2026-08-28T17:49:16Z</time>
  <course>247.09</course>
  <speed>0.022360679774997897</speed>
  <fix>3d</fix>
</trkpt>
<trkpt lat="40.0713749" lon="-105.229789">
  <ele>1583.0</ele>
  <time>2026-08-28T17:49:16Z</time>
  <course>0.0</course>
  <speed>0.0</speed>
  <fix>3d</fix>
</trkpt>
<trkpt lat="40.0713751" lon="-105.2297889">
  <ele>1583.01</ele>
  <time>2026-08-28T17:49:16Z</time>
  <course>247.09</course>
  <speed>0.022360679774997897</speed>
  <fix>3d</fix>
</trkpt>
<trkpt lat="40.0713749" lon="-105.229789">
  <ele>1583.0</ele>
  <time>2026-08-28T17:49:16Z</time>
  <course>0.0</course>
  <speed>0.0</speed>
  <fix>3d</fix>
</trkpt>
<trkpt lat="40.0713751" lon="-105.2297889">
  <ele>1583.02</ele>
  <time>2026-08-28T17:49:16Z</time>
  <course>247.09</course>
  <speed>0.022360679774997897</speed>
  <fix>3d</fix>
</trkpt>
<trkpt lat="40.0713749" lon="-105.229789">
  <ele>1583.0</ele>
  <time>2026-08-28T17:49:16Z</time>
  <course>0.0</course>
  <speed>0.0</speed>
  <fix>3d</fix>
</trkpt>
<trkpt lat="40.0713751" lon="-105.2297889">
  <ele>1583.02</ele>
  <time>2026-08-28T17:49:16Z</time>
  <course>247.09</course>
  <speed>0.022360679774997897</speed>
  <fix>3d</fix>
</trkpt>
<trkpt lat="40.0713749" lon="-105.229789">
  <ele>1583.0</ele>
  <time>2026-08-28T17:49:16Z</time>
  <course>0.0</course>
  <speed>0.0</speed>
  <fix>3d</fix>
</trkpt>
<trkpt lat="40.0713751" lon="-105.2297889">
  <ele>1583.02</ele>
  <time>2026-08-28T17:49:16Z</time>
  <course>247.09</course>
  <speed>0.022360679774997897</speed>
  <fix>3d</fix>
</trkpt>
<trkpt lat="40.0713749" lon="-105.229789">
  <ele>1583.0</ele>
  <time>2026-08-28T17:49:16Z</time>
  <course>0.0</course>
  <speed>0.0</speed>
  <fix>3d</fix>
</trkpt>
<trkpt lat="40.0713751" lon="-105.2297889">
  <ele>1583.02</ele>
  <time>2026-08-28T17:49:16Z</time>
  <course>247.09</course>
  <speed>0.022360679774997897</speed>
  <fix>3d</fix>
</trkpt>
<trkpt lat="40.0713749" lon="-105.229789">
  <ele>1583.0</ele>
  <time>2026-08-28T17:49:16Z</time>
  <course>0.0</course>
  <speed>0.0</speed>
  <fix>3d</fix>
</trkpt>
<trkpt lat="40.0713751" lon="-105.2297889">
  <ele>1583.01</ele>
  <time>2026-08-28T17:49:16Z</time>
  <course>247.09</course>
  <speed>0.022360679774997897</speed>
  <fix>3d</fix>
</trkpt>
<trkpt lat="40.0713749" lon="-105.229789">
  <ele>1583.0</ele>
  <time>2026-08-28T17:49:16Z</time>
  <course>0.0</course>
  <speed>0.0</speed>
  <fix>3d</fix>
</trkpt>
<trkpt lat="40.0713751" lon="-105.2297889">
  <ele>1583.0</ele>
  <time>2026-08-28T17:49:16Z</time>
  <course>247.09</course>
  <speed>0.022360679774997897</speed>
  <fix>3d</fix>
</trkpt>
<trkpt lat="40.0713749" lon="-105.229789">
  <ele>1583.0</ele>
  <time>2026-08-28T17:49:16Z</time>
  <course>0.0</course>
  <speed>0.0</speed>
  <fix>3d</fix>
</trkpt>
<trkpt lat="40.0713751" lon="-105.2297889">
  <ele>1583.0</ele>
  <time>2026-08-28T17:49:16Z</time>
  <course>247.09</course>
  <speed>0.022360679774997897</speed>
  <fix>3d</fix>
</trkpt>
<trkpt lat="40.0713749" lon="-105.229789">
  <ele>1583.0</ele>
  <time>2026-08-28T17:49:16Z</time>
  <course>0.0</course>
  <speed>0.0</speed>
  <fix>3d</fix>
</trkpt>
<trkpt lat="40.0713751" lon="-105.2297889">
  <ele>1582.99</ele>
  <time>2026-08-28T17:49:16Z</time>
  <course>247.09</course>
  <speed>0.022360679774997897</speed>
  <fix>3d</fix>
</trkpt>
<trkpt lat="40.0713749" lon="-105.229789">
  <ele>1583.0</ele>
  <time>2026-08-28T17:49:16Z</time>
  <course>0.0</course>
  <speed>0.0</speed>
  <fix>3d</fix>
</trkpt>
<trkpt lat="40.0713751" lon="-105.2297889">
  <ele>1582.98</ele>
  <time>2026-08-28T17:49:16Z</time>
  <course>247.09</course>
  <speed>0.022360679774997897</speed>
  <fix>3d</fix>
</trkpt>
<trkpt lat="40.0713749" lon="-105.229789">
  <ele>1583.0</ele>
  <time>2026-08-28T17:49:16Z</time>
  <course>0.0</course>
  <speed>0.0</speed>
  <fix>3d</fix>
</trkpt>
<trkpt lat="40.0713751" lon="-105.2297889">
  <ele>1582.97</ele>
  <time>2026-08-28T17:49:16Z</time>
  <course>247.09</course>
  <speed>0.022360679774997897</speed>
  <fix>3d</fix>
</trkpt>
<trkpt lat="40.0713749" lon="-105.229789">
  <ele>1583.0</ele>
  <time>2026-08-28T17:49:16Z</time>
  <course>0.0</course>
  <speed>0.0</speed>
  <fix>3d</fix>
</trkpt>
<trkpt lat="40.0713751" lon="-105.2297889">
  <ele>1582.96</ele>
  <time>2026-08-28T17:49:16Z</time>
  <course>247.09</course>
  <speed>0.022360679774997897</speed>
  <fix>3d</fix>
</trkpt>
<trkpt lat="40.0713749" lon="-105.229789">
  <ele>1583.0</ele>
  <time>2026-08-28T17:49:16Z</time>
  <course>0.0</course>
  <speed>0.0</speed>
  <fix>3d</fix>
</trkpt>
<trkpt lat="40.0713751" lon="-105.2297889">
  <ele>1582.95</ele>
  <time>2026-08-28T17:49:16Z</time>
  <course>247.09</course>
  <speed>0.022360679774997897</speed>
  <fix>3d</fix>
</trkpt>
<trkpt lat="40.0713749" lon="-105.229789">
  <ele>1583.0</ele>
  <time>2026-08-28T17:49:16Z</time>
  <course>0.0</course>
  <speed>0.0</speed>
  <fix>3d</fix>
</trkpt>
<trkpt lat="40.0713751" lon="-105.2297889">
  <ele>1582.94</ele>
  <time>2026-08-28T17:49:16Z</time>
  <course>247.09</course>
  <speed>0.022360679774997897</speed>
  <fix>3d</fix>
</trkpt>
<trkpt lat="40.0713749" lon="-105.229789">
  <ele>1583.0</ele>
  <time>2026-08-28T17:49:16Z</time>
  <course>0.0</course>
  <speed>0.0</speed>
  <fix>3d</fix>
</trkpt>
<trkpt lat="40.0713751" lon="-105.2297889">
  <ele>1582.94</ele>
  <time>2026-08-28T17:49:16Z</time>
  <course>247.09</course>
  <speed>0.022360679774997897</speed>
  <fix>3d</fix>
</trkpt>
<trkpt lat="40.0713749" lon="-105.229789">
  <ele>1583.0</ele>
  <time>2026-08-28T17:49:16Z</time>
  <course>0.0</course>
  <speed>0.0</speed>
  <fix>3d</fix>
</trkpt>
<trkpt lat="40.0713751" lon="-105.2297889">
  <ele>1582.94</ele>
  <time>2026-08-28T17:49:16Z</time>
  <course>247.09</course>
  <speed>0.022360679774997897</speed>
  <fix>3d</fix>
</trkpt>
<trkpt lat="40.0713749" lon="-105.229789">
  <ele>1583.0</ele>
  <time>2026-08-28T17:49:16Z</time>
  <course>0.0</course>
  <speed>0.0</speed>
  <fix>3d</fix>
</trkpt>
<trkpt lat="40.0713751" lon="-105.2297889">
  <ele>1582.94</ele>
  <time>2026-08-28T17:49:16Z</time>
  <course>247.09</course>
  <speed>0.022360679774997897</speed>
  <fix>3d</fix>
</trkpt>
<trkpt lat="40.0713749" lon="-105.229789">
  <ele>1583.0</ele>
  <time>2026-08-28T17:49:16Z</time>
  <course>0.0</course>
  <speed>0.0</speed>
  <fix>3d</fix>
</trkpt>
<trkpt lat="40.0713751" lon="-105.2297889">
  <ele>1582.94</ele>
  <time>2026-08-28T17:49:16Z</time>
  <course>247.09</course>
  <speed>0.022360679774997897</speed>
  <fix>3d</fix>
</trkpt>
<trkpt lat="40.0713749" lon="-105.229789">
  <ele>1583.0</ele>
  <time>2026-08-28T17:49:16Z</time>
  <course>0.0</course>
  <speed>0.0</speed>
  <fix>3d</fix>
</trkpt>
<trkpt lat="40.0713751" lon="-105.2297889">
  <ele>1582.94</ele>
  <time>2026-08-28T17:49:16Z</time>
  <course>247.09</course>
  <speed>0.022360679774997897</speed>
  <fix>3d</fix>
</trkpt>
<trkpt lat="40.0713749" lon="-105.229789">
  <ele>1583.0</ele>
  <time>2026-08-28T17:49:16Z</time>
  <course>0.0</course>
  <speed>0.0</speed>
  <fix>3d</fix>
</trkpt>
<trkpt lat="40.0713751" lon="-105.2297889">
  <ele>1582.95</ele>
  <time>2026-08-28T17:49:16Z</time>
  <course>247.09</course>
  <speed>0.022360679774997897</speed>
  <fix>3d</fix>
</trkpt>
<trkpt lat="40.0713749" lon="-105.229789">
  <ele>1583.0</ele>
  <time>2026-08-28T17:49:16Z</time>
  <course>0.0</course>
  <speed>0.0</speed>
  <fix>3d</fix>
</trkpt>
<trkpt lat="40.0713751" lon="-105.2297889">
  <ele>1582.95</ele>
  <time>2026-08-28T17:49:16Z</time>
  <course>247.09</course>
  <speed>0.022360679774997897</speed>
  <fix>3d</fix>
</trkpt>
<trkpt lat="40.0713749" lon="-105.229789">
  <ele>1583.0</ele>
  <time>2026-08-28T17:49:16Z</time>
  <course>0.0</course>
  <speed>0.0</speed>
  <fix>3d</fix>
</trkpt>
<trkpt lat="40.0713751" lon="-105.2297889">
  <ele>1582.96</ele>
  <time>2026-08-28T17:49:16Z</time>
  <course>247.09</course>
  <speed>0.022360679774997897</speed>
  <fix>3d</fix>
</trkpt>
<trkpt lat="40.0713749" lon="-105.229789">
  <ele>1583.0</ele>
  <time>2026-08-28T17:49:16Z</time>
  <course>0.0</course>
  <speed>0.0</speed>
  <fix>3d</fix>
</trkpt>
<trkpt lat="40.0713751" lon="-105.2297889">
  <ele>1582.97</ele>
  <time>2026-08-28T17:49:16Z</time>
  <course>247.09</course>
  <speed>0.022360679774997897</speed>
  <fix>3d</fix>
</trkpt>
<trkpt lat="40.0713749" lon="-105.229789">
  <ele>1583.0</ele>
  <time>2026-08-28T17:49:16Z</time>
  <course>0.0</course>
  <speed>0.0</speed>
  <fix>3d</fix>
</trkpt>
<trkpt lat="40.0713751" lon="-105.2297889">
  <ele>1582.97</ele>
  <time>2026-08-28T17:49:16Z</time>
  <course>247.09</course>
  <speed>0.022360679774997897</speed>
  <fix>3d</fix>
</trkpt>
<trkpt lat="40.0713749" lon="-105.229789">
  <ele>1583.0</ele>
  <time>2026-08-28T17:49:16Z</time>
  <course>0.0</course>
  <speed>0.0</speed>
  <fix>3d</fix>
</trkpt>
<trkpt lat="40.0713751" lon="-105.2297889">
  <ele>1582.98</ele>
  <time>2026-08-28T17:49:16Z</time>
  <course>247.09</course>
  <speed>0.022360679774997897</speed>
  <fix>3d</fix>
</trkpt>
<trkpt lat="40.0713749" lon="-105.229789">
  <ele>1583.0</ele>
  <time>2026-08-28T17:49:16Z</time>
  <course>0.0</course>
  <speed>0.0</speed>
  <fix>3d</fix>
</trkpt>
<trkpt lat="40.0713751" lon="-105.2297889">
  <ele>1582.97</ele>
  <time>2026-08-28T17:49:16Z</time>
  <course>247.09</course>
  <speed>0.022360679774997897</speed>
  <fix>3d</fix>
</trkpt>
<trkpt lat="40.0713749" lon="-105.229789">
  <ele>1583.0</ele>
  <time>2026-08-28T17:49:16Z</time>
  <course>0.0</course>
  <speed>0.0</speed>
  <fix>3d</fix>
</trkpt>
<trkpt lat="40.0713751" lon="-105.2297889">
  <ele>1582.97</ele>
  <time>2026-08-28T17:49:16Z</time>
  <course>247.09</course>
  <speed>0.022360679774997897</speed>
  <fix>3d</fix>
</trkpt>
<trkpt lat="40.0713749" lon="-105.229789">
  <ele>1583.0</ele>
  <time>2026-08-28T17:49:16Z</time>
  <course>0.0</course>
  <speed>0.0</speed>
  <fix>3d</fix>
</trkpt>
<trkpt lat="40.0713751" lon="-105.2297889">
  <ele>1582.97</ele>
  <time>2026-08-28T17:49:16Z</time>
  <course>247.09</course>
  <speed>0.022360679774997897</speed>
  <fix>3d</fix>
</trkpt>
<trkpt lat="40.0713749" lon="-105.229789">
  <ele>1583.0</ele>
  <time>2026-08-28T17:49:16Z</time>
  <course>0.0</course>
  <speed>0.0</speed>
  <fix>3d</fix>
</trkpt>
<trkpt lat="40.0713751" lon="-105.2297889">
  <ele>1582.96</ele>
  <time>2026-08-28T17:49:16Z</time>
  <course>247.09</course>
  <speed>0.022360679774997897</speed>
  <fix>3d</fix>
</trkpt>
<trkpt lat="40.0713749" lon="-105.229789">
  <ele>1583.0</ele>
  <time>2026-08-28T17:49:16Z</time>
  <course>0.0</course>
  <speed>0.0</speed>
  <fix>3d</fix>
</trkpt>
<trkpt lat="40.0713751" lon="-105.2297889">
  <ele>1582.95</ele>
  <time>2026-08-28T17:49:16Z</time>
  <course>247.09</course>
  <speed>0.022360679774997897</speed>
  <fix>3d</fix>
</trkpt>
<trkpt lat="40.0713749" lon="-105.229789">
  <ele>1583.0</ele>
  <time>2026-08-28T17:49:16Z</time>
  <course>0.0</course>
  <speed>0.0</speed>
  <fix>3d</fix>
</trkpt>
<trkpt lat="40.0713751" lon="-105.2297889">
  <ele>1582.95</ele>
  <time>2026-08-28T17:49:16Z</time>
  <course>247.09</course>
  <speed>0.022360679774997897</speed>
  <fix>3d</fix>
</trkpt>
<trkpt lat="40.0713749" lon="-105.229789">
  <ele>1583.0</ele>
  <time>2026-08-28T17:49:16Z</time>
  <course>0.0</course>
  <speed>0.0</speed>
  <fix>3d</fix>
</trkpt>
<trkpt lat="40.0713751" lon="-105.2297889">
  <ele>1582.94</ele>
  <time>2026-08-28T17:49:16Z</time>
  <course>247.09</course>
  <speed>0.022360679774997897</speed>
  <fix>3d</fix>
</trkpt>
<trkpt lat="40.0713749" lon="-105.229789">
  <ele>1583.0</ele>
  <time>2026-08-28T17:49:16Z</time>
  <course>0.0</course>
  <speed>0.0</speed>
  <fix>3d</fix>
</trkpt>
<trkpt lat="40.071375" lon="-105.2297889">
  <ele>1582.93</ele>
  <time>2026-08-28T17:49:16Z</time>
  <course>247.09</course>
  <speed>0.02</speed>
  <fix>3d</fix>
</trkpt>
<trkpt lat="40.0713749" lon="-105.229789">
  <ele>1583.0</ele>
  <time>2026-08-28T17:49:16Z</time>
  <course>0.0</course>
  <speed>0.0</speed>
  <fix>3d</fix>
</trkpt>
<trkpt lat="40.0713751" lon="-105.2297889">
  <ele>1582.93</ele>
  <time>2026-08-28T17:49:16Z</time>
  <course>247.08</course>
  <speed>0.022360679774997897</speed>
  <fix>3d</fix>
</trkpt>
<trkpt lat="40.0713749" lon="-105.229789">
  <ele>1583.0</ele>
  <time>2026-08-28T17:49:16Z</time>
  <course>0.0</course>
  <speed>0.0</speed>
  <fix>3d</fix>
</trkpt>
<trkpt lat="40.071375" lon="-105.2297889">
  <ele>1582.92</ele>
  <time>2026-08-28T17:49:16Z</time>
  <course>247.08</course>
  <speed>0.02</speed>
  <fix>3d</fix>
</trkpt>
<trkpt lat="40.0713749" lon="-105.229789">
  <ele>1583.0</ele>
  <time>2026-08-28T17:49:16Z</time>
  <course>0.0</course>
  <speed>0.0</speed>
  <fix>3d</fix>
</trkpt>
<trkpt lat="40.0713751" lon="-105.2297889">
  <ele>1582.92</ele>
  <time>2026-08-28T17:49:16Z</time>
  <course>247.08</course>
  <speed>0.022360679774997897</speed>
  <fix>3d</fix>
</trkpt>
<trkpt lat="40.0713749" lon="-105.229789">
  <ele>1583.0</ele>
  <time>2026-08-28T17:49:16Z</time>
  <course>0.0</course>
  <speed>0.0</speed>
  <fix>3d</fix>
</trkpt>
<trkpt lat="40.071375" lon="-105.2297889">
  <ele>1582.91</ele>
  <time>2026-08-28T17:49:16Z</time>
  <course>247.08</course>
  <speed>0.02</speed>
  <fix>3d</fix>
</trkpt>
<trkpt lat="40.0713749" lon="-105.229789">
  <ele>1583.0</ele>
  <time>2026-08-28T17:49:16Z</time>
  <course>0.0</course>
  <speed>0.0</speed>
  <fix>3d</fix>
</trkpt>
<trkpt lat="40.0713751" lon="-105.2297889">
  <ele>1582.91</ele>
  <time>2026-08-28T17:49:16Z</time>
  <course>247.08</course>
  <speed>0.022360679774997897</speed>
  <fix>3d</fix>
</trkpt>
<trkpt lat="40.0713749" lon="-105.229789">
  <ele>1583.0</ele>
  <time>2026-08-28T17:49:16Z</time>
  <course>0.0</course>
  <speed>0.0</speed>
  <fix>3d</fix>
</trkpt>
<trkpt lat="40.0713751" lon="-105.2297889">
  <ele>1582.91</ele>
  <time>2026-08-28T17:49:16Z</time>
  <course>247.08</course>
  <speed>0.022360679774997897</speed>
  <fix>3d</fix>
</trkpt>
<trkpt lat="40.0713749" lon="-105.229789">
  <ele>1583.0</ele>
  <time>2026-08-28T17:49:16Z</time>
  <course>0.0</course>
  <speed>0.0</speed>
  <fix>3d</fix>
</trkpt>
<trkpt lat="40.0713751" lon="-105.2297889">
  <ele>1582.91</ele>
  <time>2026-08-28T17:49:16Z</time>
  <course>247.08</course>
  <speed>0.022360679774997897</speed>
  <fix>3d</fix>
</trkpt>
<trkpt lat="40.0713749" lon="-105.229789">
  <ele>1583.0</ele>
  <time>2026-08-28T17:49:16Z</time>
  <course>0.0</course>
  <speed>0.0</speed>
  <fix>3d</fix>
</trkpt>
<trkpt lat="40.0713751" lon="-105.2297889">
  <ele>1582.9</ele>
  <time>2026-08-28T17:49:16Z</time>
  <course>247.08</course>
  <speed>0.022360679774997897</speed>
  <fix>3d</fix>
</trkpt>
<trkpt lat="40.0713749" lon="-105.229789">
  <ele>1583.0</ele>
  <time>2026-08-28T17:49:16Z</time>
  <course>0.0</course>
  <speed>0.0</speed>
  <fix>3d</fix>
</trkpt>
<trkpt lat="40.0713751" lon="-105.2297889">
  <ele>1582.9</ele>
  <time>2026-08-28T17:49:16Z</time>
  <course>247.08</course>
  <speed>0.022360679774997897</speed>
  <fix>3d</fix>
</trkpt>
<trkpt lat="40.0713749" lon="-105.229789">
  <ele>1583.0</ele>
  <time>2026-08-28T17:49:16Z</time>
  <course>0.0</course>
  <speed>0.0</speed>
  <fix>3d</fix>
</trkpt>
<trkpt lat="40.0713751" lon="-105.2297889">
  <ele>1582.89</ele>
  <time>2026-08-28T17:49:16Z</time>
  <course>247.08</course>
  <speed>0.022360679774997897</speed>
  <fix>3d</fix>
</trkpt>
<trkpt lat="40.0713749" lon="-105.229789">
  <ele>1583.0</ele>
  <time>2026-08-28T17:49:16Z</time>
  <course>0.0</course>
  <speed>0.0</speed>
  <fix>3d</fix>
</trkpt>
<trkpt lat="40.0713751" lon="-105.2297889">
  <ele>1582.89</ele>
  <time>2026-08-28T17:49:16Z</time>
  <course>247.08</course>
  <speed>0.022360679774997897</speed>
  <fix>3d</fix>
</trkpt>
<trkpt lat="40.0713749" lon="-105.229789">
  <ele>1583.0</ele>
  <time>2026-08-28T17:49:16Z</time>
  <course>0.0</course>
  <speed>0.0</speed>
  <fix>3d</fix>
</trkpt>
<trkpt lat="40.0713751" lon="-105.2297889">
  <ele>1582.89</ele>
  <time>2026-08-28T17:49:16Z</time>
  <course>247.08</course>
  <speed>0.022360679774997897</speed>
  <fix>3d</fix>
</trkpt>
<trkpt lat="40.0713749" lon="-105.229789">
  <ele>1583.0</ele>
  <time>2026-08-28T17:49:16Z</time>
  <course>0.0</course>
  <speed>0.0</speed>
  <fix>3d</fix>
</trkpt>
<trkpt lat="40.0713751" lon="-105.2297889">
  <ele>1582.9</ele>
  <time>2026-08-28T17:49:16Z</time>
  <course>247.08</course>
  <speed>0.022360679774997897</speed>
  <fix>3d</fix>
</trkpt>
<trkpt lat="40.0713749" lon="-105.229789">
  <ele>1583.0</ele>
  <time>2026-08-28T17:49:16Z</time>
  <course>0.0</course>
  <speed>0.0</speed>
  <fix>3d</fix>
</trkpt>
<trkpt lat="40.0713751" lon="-105.2297889">
  <ele>1582.9</ele>
  <time>2026-08-28T17:49:16Z</time>
  <course>247.08</course>
  <speed>0.022360679774997897</speed>
  <fix>3d</fix>
</trkpt>
<trkpt lat="40.0713749" lon="-105.229789">
  <ele>1583.0</ele>
  <time>2026-08-28T17:49:16Z</time>
  <course>0.0</course>
  <speed>0.0</speed>
  <fix>3d</fix>
</trkpt>
<trkpt lat="40.0713751" lon="-105.2297889">
  <ele>1582.9</ele>
  <time>2026-08-28T17:49:16Z</time>
  <course>247.08</course>
  <speed>0.022360679774997897</speed>
  <fix>3d</fix>
</trkpt>
<trkpt lat="40.0713749" lon="-105.229789">
  <ele>1583.0</ele>
  <time>2026-08-28T17:49:16Z</time>
  <course>0.0</course>
  <speed>0.0</speed>
  <fix>3d</fix>
</trkpt>
<trkpt lat="40.0713751" lon="-105.2297889">
  <ele>1582.9</ele>
  <time>2026-08-28T17:49:16Z</time>
  <course>247.08</course>
  <speed>0.022360679774997897</speed>
  <fix>3d</fix>
</trkpt>
<trkpt lat="40.0713749" lon="-105.229789">
  <ele>1583.0</ele>
  <time>2026-08-28T17:49:16Z</time>
  <course>0.0</course>
  <speed>0.0</speed>
  <fix>3d</fix>
</trkpt>
<trkpt lat="40.0713751" lon="-105.2297889">
  <ele>1582.91</ele>
  <time>2026-08-28T17:49:16Z</time>
  <course>247.08</course>
  <speed>0.022360679774997897</speed>
  <fix>3d</fix>
</trkpt>
<trkpt lat="40.0713749" lon="-105.229789">
  <ele>1583.0</ele>
  <time>2026-08-28T17:49:16Z</time>
  <course>0.0</course>
  <speed>0.0</speed>
  <fix>3d</fix>
</trkpt>
<trkpt lat="40.071375" lon="-105.2297889">
  <ele>1582.91</ele>
  <time>2026-08-28T17:49:16Z</time>
  <course>247.08</course>
  <speed>0.022360679774997897</speed>
  <fix>3d</fix>
</trkpt>
<trkpt lat="40.0713749" lon="-105.229789">
  <ele>1583.0</ele>
  <time>2026-08-28T17:49:16Z</time>
  <course>0.0</course>
  <speed>0.0</speed>
  <fix>3d</fix>
</trkpt>
<trkpt lat="40.0713751" lon="-105.2297889">
  <ele>1582.91</ele>
  <time>2026-08-28T17:49:16Z</time>
  <course>247.08</course>
  <speed>0.022360679774997897</speed>
  <fix>3d</fix>
</trkpt>
<trkpt lat="40.0713749" lon="-105.229789">
  <ele>1583.0</ele>
  <time>2026-08-28T17:49:16Z</time>
  <course>0.0</course>
  <speed>0.0</speed>
  <fix>3d</fix>
</trkpt>
<trkpt lat="40.071375" lon="-105.2297889">
  <ele>1582.91</ele>
  <time>2026-08-28T17:49:16Z</time>
  <course>247.08</course>
  <speed>0.022360679774997897</speed>
  <fix>3d</fix>
</trkpt>
<trkpt lat="40.0713749" lon="-105.229789">
  <ele>1583.0</ele>
  <time>2026-08-28T17:49:16Z</time>
  <course>0.0</course>
  <speed>0.0</speed>
  <fix>3d</fix>
</trkpt>
<trkpt lat="40.0713751" lon="-105.2297889">
  <ele>1582.92</ele>
  <time>2026-08-28T17:49:16Z</time>
  <course>247.08</course>
  <speed>0.022360679774997897</speed>
  <fix>3d</fix>
</trkpt>
<trkpt lat="40.0713749" lon="-105.229789">
  <ele>1583.0</ele>
  <time>2026-08-28T17:49:16Z</time>
  <course>0.0</course>
  <speed>0.0</speed>
  <fix>3d</fix>
</trkpt>
<trkpt lat="40.071375" lon="-105.2297889">
  <ele>1582.92</ele>
  <time>2026-08-28T17:49:16Z</time>
  <course>247.08</course>
  <speed>0.022360679774997897</speed>
  <fix>3d</fix>
</trkpt>
<trkpt lat="40.0713749" lon="-105.229789">
  <ele>1583.0</ele>
  <time>2026-08-28T17:49:16Z</time>
  <course>0.0</course>
  <speed>0.0</speed>
  <fix>3d</fix>
</trkpt>
<trkpt lat="40.0713751" lon="-105.2297889">
  <ele>1582.93</ele>
  <time>2026-08-28T17:49:16Z</time>
  <course>247.08</course>
  <speed>0.022360679774997897</speed>
  <fix>3d</fix>
</trkpt>
<trkpt lat="40.0713749" lon="-105.229789">
  <ele>1583.0</ele>
  <time>2026-08-28T17:49:16Z</time>
  <course>0.0</course>
  <speed>0.0</speed>
  <fix>3d</fix>
</trkpt>
<trkpt lat="40.071375" lon="-105.2297889">
  <ele>1582.93</ele>
  <time>2026-08-28T17:49:16Z</time>
  <course>247.08</course>
  <speed>0.022360679774997897</speed>
  <fix>3d</fix>
</trkpt>
<trkpt lat="40.0713749" lon="-105.229789">
  <ele>1583.0</ele>
  <time>2026-08-28T17:49:16Z</time>
  <course>0.0</course>
  <speed>0.0</speed>
  <fix>3d</fix>
</trkpt>
<trkpt lat="40.0713751" lon="-105.2297889">
  <ele>1582.94</ele>
  <time>2026-08-28T17:49:16Z</time>
  <course>247.08</course>
  <speed>0.022360679774997897</speed>
  <fix>3d</fix>
</trkpt>
<trkpt lat="40.0713749" lon="-105.229789">
  <ele>1583.0</ele>
  <time>2026-08-28T17:49:16Z</time>
  <course>0.0</course>
  <speed>0.0</speed>
  <fix>3d</fix>
</trkpt>
<trkpt lat="40.071375" lon="-105.2297889">
  <ele>1582.95</ele>
  <time>2026-08-28T17:49:16Z</time>
  <course>247.08</course>
  <speed>0.022360679774997897</speed>
  <fix>3d</fix>
</trkpt>
<trkpt lat="40.0713749" lon="-105.229789">
  <ele>1583.0</ele>
  <time>2026-08-28T17:49:16Z</time>
  <course>0.0</course>
  <speed>0.0</speed>
  <fix>3d</fix>
</trkpt>
<trkpt lat="40.0713751" lon="-105.2297889">
  <ele>1582.95</ele>
  <time>2026-08-28T17:49:16Z</time>
  <course>247.08</course>
  <speed>0.022360679774997897</speed>
  <fix>3d</fix>
</trkpt>
<trkpt lat="40.0713749" lon="-105.229789">
  <ele>1583.0</ele>
  <time>2026-08-28T17:49:16Z</time>
  <course>0.0</course>
  <speed>0.0</speed>
  <fix>3d</fix>
</trkpt>
<trkpt lat="40.071375" lon="-105.2297889">
  <ele>1582.96</ele>
  <time>2026-08-28T17:49:16Z</time>
  <course>247.08</course>
  <speed>0.022360679774997897</speed>
  <fix>3d</fix>
</trkpt>
<trkpt lat="40.0713749" lon="-105.229789">
  <ele>1583.0</ele>
  <time>2026-08-28T17:49:16Z</time>
  <course>0.0</course>
  <speed>0.0</speed>
  <fix>3d</fix>
</trkpt>
<trkpt lat="40.0713751" lon="-105.2297889">
  <ele>1582.96</ele>
  <time>2026-08-28T17:49:16Z</time>
  <course>247.08</course>
  <speed>0.022360679774997897</speed>
  <fix>3d</fix>
</trkpt>
<trkpt lat="40.0713749" lon="-105.229789">
  <ele>1583.0</ele>
  <time>2026-08-28T17:49:16Z</time>
  <course>0.0</course>
  <speed>0.0</speed>
  <fix>3d</fix>
</trkpt>
<trkpt lat="40.0713751" lon="-105.2297889">
  <ele>1582.96</ele>
  <time>2026-08-28T17:49:16Z</time>
  <course>247.08</course>
  <speed>0.022360679774997897</speed>
  <fix>3d</fix>
</trkpt>
<trkpt lat="40.0713749" lon="-105.229789">
  <ele>1583.0</ele>
  <time>2026-08-28T17:49:16Z</time>
  <course>0.0</course>
  <speed>0.0</speed>
  <fix>3d</fix>
</trkpt>
<trkpt lat="40.0713751" lon="-105.2297889">
  <ele>1582.97</ele>
  <time>2026-08-28T17:49:16Z</time>
  <course>247.08</course>
  <speed>0.022360679774997897</speed>
  <fix>3d</fix>
</trkpt>
<trkpt lat="40.0713749" lon="-105.229789">
  <ele>1583.0</ele>
  <time>2026-08-28T17:49:16Z</time>
  <course>0.0</course>
  <speed>0.0</speed>
  <fix>3d</fix>
</trkpt>
<trkpt lat="40.0713751" lon="-105.2297889">
  <ele>1582.97</ele>
  <time>2026-08-28T17:49:16Z</time>
  <course>247.08</course>
  <speed>0.022360679774997897</speed>
  <fix>3d</fix>
</trkpt>
<trkpt lat="40.0713749" lon="-105.229789">
  <ele>1583.0</ele>
  <time>2026-08-28T17:49:16Z</time>
  <course>0.0</course>
  <speed>0.0</speed>
  <fix>3d</fix>
</trkpt>
<trkpt lat="40.0713751" lon="-105.2297889">
  <ele>1582.98</ele>
  <time>2026-08-28T17:49:16Z</time>
  <course>247.08</course>
  <speed>0.022360679774997897</speed>
  <fix>3d</fix>
</trkpt>
<trkpt lat="40.0713749" lon="-105.229789">
  <ele>1583.0</ele>
  <time>2026-08-28T17:49:16Z</time>
  <course>0.0</course>
  <speed>0.0</speed>
  <fix>3d</fix>
</trkpt>
<trkpt lat="40.0713751" lon="-105.2297889">
  <ele>1582.98</ele>
  <time>2026-08-28T17:49:16Z</time>
  <course>247.08</course>
  <speed>0.022360679774997897</speed>
  <fix>3d</fix>
</trkpt>
<trkpt lat="40.0713749" lon="-105.229789">
  <ele>1583.0</ele>
  <time>2026-08-28T17:49:16Z</time>
  <course>0.0</course>
  <speed>0.0</speed>
  <fix>3d</fix>
</trkpt>
<trkpt lat="40.0713751" lon="-105.2297889">
  <ele>1582.97</ele>
  <time>2026-08-28T17:49:16Z</time>
  <course>247.08</course>
  <speed>0.022360679774997897</speed>
  <fix>3d</fix>
</trkpt>
<trkpt lat="40.0713749" lon="-105.229789">
  <ele>1583.0</ele>
  <time>2026-08-28T17:49:16Z</time>
  <course>0.0</course>
  <speed>0.0</speed>
  <fix>3d</fix>
</trkpt>
<trkpt lat="40.0713751" lon="-105.2297889">
  <ele>1582.97</ele>
  <time>2026-08-28T17:49:16Z</time>
  <course>247.08</course>
  <speed>0.022360679774997897</speed>
  <fix>3d</fix>
</trkpt>
<trkpt lat="40.0713749" lon="-105.229789">
  <ele>1583.0</ele>
  <time>2026-08-28T17:49:16Z</time>
  <course>0.0</course>
  <speed>0.0</speed>
  <fix>3d</fix>
</trkpt>
<trkpt lat="40.0713751" lon="-105.2297889">
  <ele>1582.97</ele>
  <time>2026-08-28T17:49:16Z</time>
  <course>247.08</course>
  <speed>0.022360679774997897</speed>
  <fix>3d</fix>
</trkpt>
<trkpt lat="40.0713749" lon="-105.229789">
  <ele>1583.0</ele>
  <time>2026-08-28T17:49:16Z</time>
  <course>0.0</course>
  <speed>0.0</speed>
  <fix>3d</fix>
</trkpt>
<trkpt lat="40.071375" lon="-105.2297889">
  <ele>1582.97</ele>
  <time>2026-08-28T17:49:16Z</time>
  <course>247.08</course>
  <speed>0.022360679774997897</speed>
  <fix>3d</fix>
</trkpt>
<trkpt lat="40.0713749" lon="-105.229789">
  <ele>1583.0</ele>
  <time>2026-08-28T17:49:16Z</time>
  <course>0.0</course>
  <speed>0.0</speed>
  <fix>3d</fix>
</trkpt>
<trkpt lat="40.0713751" lon="-105.2297889">
  <ele>1582.96</ele>
  <time>2026-08-28T17:49:16Z</time>
  <course>247.08</course>
  <speed>0.022360679774997897</speed>
  <fix>3d</fix>
</trkpt>
<trkpt lat="40.0713749" lon="-105.229789">
  <ele>1583.0</ele>
  <time>2026-08-28T17:49:16Z</time>
  <course>0.0</course>
  <speed>0.0</speed>
  <fix>3d</fix>
</trkpt>
<trkpt lat="40.071375" lon="-105.2297889">
  <ele>1582.96</ele>
  <time>2026-08-28T17:49:16Z</time>
  <course>247.08</course>
  <speed>0.022360679774997897</speed>
  <fix>3d</fix>
</trkpt>
<trkpt lat="40.0713749" lon="-105.229789">
  <ele>1583.0</ele>
  <time>2026-08-28T17:49:16Z</time>
  <course>0.0</course>
  <speed>0.0</speed>
  <fix>3d</fix>
</trkpt>
<trkpt lat="40.0713751" lon="-105.2297889">
  <ele>1582.95</ele>
  <time>2026-08-28T17:49:16Z</time>
  <course>247.08</course>
  <speed>0.022360679774997897</speed>
  <fix>3d</fix>
</trkpt>
<trkpt lat="40.0713749" lon="-105.229789">
  <ele>1583.0</ele>
  <time>2026-08-28T17:49:16Z</time>
  <course>0.0</course>
  <speed>0.0</speed>
  <fix>3d</fix>
</trkpt>
<trkpt lat="40.071375" lon="-105.2297889">
  <ele>1582.95</ele>
  <time>2026-08-28T17:49:16Z</time>
  <course>247.08</course>
  <speed>0.022360679774997897</speed>
  <fix>3d</fix>
</trkpt>
<trkpt lat="40.0713749" lon="-105.229789">
  <ele>1583.0</ele>
  <time>2026-08-28T17:49:16Z</time>
  <course>0.0</course>
  <speed>0.0</speed>
  <fix>3d</fix>
</trkpt>
<trkpt lat="40.0713751" lon="-105.2297889">
  <ele>1582.94</ele>
  <time>2026-08-28T17:49:16Z</time>
  <course>247.08</course>
  <speed>0.022360679774997897</speed>
  <fix>3d</fix>
</trkpt>
<trkpt lat="40.0713749" lon="-105.229789">
  <ele>1583.0</ele>
  <time>2026-08-28T17:49:16Z</time>
  <course>0.0</course>
  <speed>0.0</speed>
  <fix>3d</fix>
</trkpt>
<trkpt lat="40.071375" lon="-105.2297889">
  <ele>1582.94</ele>
  <time>2026-08-28T17:49:16Z</time>
  <course>247.08</course>
  <speed>0.022360679774997897</speed>
  <fix>3d</fix>
</trkpt>
<trkpt lat="40.0713749" lon="-105.229789">
  <ele>1583.0</ele>
  <time>2026-08-28T17:49:16Z</time>
  <course>0.0</course>
  <speed>0.0</speed>
  <fix>3d</fix>
</trkpt>
<trkpt lat="40.0713751" lon="-105.2297889">
  <ele>1582.95</ele>
  <time>2026-08-28T17:49:16Z</time>
  <course>247.08</course>
  <speed>0.022360679774997897</speed>
  <fix>3d</fix>
</trkpt>
<trkpt lat="40.0713749" lon="-105.229789">
  <ele>1583.0</ele>
  <time>2026-08-28T17:49:16Z</time>
  <course>0.0</course>
  <speed>0.0</speed>
  <fix>3d</fix>
</trkpt>
<trkpt lat="40.071375" lon="-105.2297889">
  <ele>1582.95</ele>
  <time>2026-08-28T17:49:16Z</time>
  <course>247.08</course>
  <speed>0.022360679774997897</speed>
  <fix>3d</fix>
</trkpt>
<trkpt lat="40.0713749" lon="-105.229789">
  <ele>1583.0</ele>
  <time>2026-08-28T17:49:16Z</time>
  <course>0.0</course>
  <speed>0.0</speed>
  <fix>3d</fix>
</trkpt>
<trkpt lat="40.0713751" lon="-105.2297889">
  <ele>1582.95</ele>
  <time>2026-08-28T17:49:16Z</time>
  <course>247.08</course>
  <speed>0.022360679774997897</speed>
  <fix>3d</fix>
</trkpt>
<trkpt lat="40.0713749" lon="-105.229789">
  <ele>1583.0</ele>
  <time>2026-08-28T17:49:16Z</time>
  <course>0.0</course>
  <speed>0.0</speed>
  <fix>3d</fix>
</trkpt>
<trkpt lat="40.071375" lon="-105.2297889">
  <ele>1582.96</ele>
  <time>2026-08-28T17:49:16Z</time>
  <course>247.08</course>
  <speed>0.022360679774997897</speed>
  <fix>3d</fix>
</trkpt>
<trkpt lat="40.0713749" lon="-105.229789">
  <ele>1583.0</ele>
  <time>2026-08-28T17:49:16Z</time>
  <course>0.0</course>
  <speed>0.0</speed>
  <fix>3d</fix>
</trkpt>
<trkpt lat="40.0713751" lon="-105.2297889">
  <ele>1582.96</ele>
  <time>2026-08-28T17:49:16Z</time>
  <course>247.08</course>
  <speed>0.022360679774997897</speed>
  <fix>3d</fix>
</trkpt>
<trkpt lat="40.0713749" lon="-105.229789">
  <ele>1583.0</ele>
  <time>2026-08-28T17:49:16Z</time>
  <course>0.0</course>
  <speed>0.0</speed>
  <fix>3d</fix>
</trkpt>
<trkpt lat="40.071375" lon="-105.2297889">
  <ele>1582.96</ele>
  <time>2026-08-28T17:49:16Z</time>
  <course>247.08</course>
  <speed>0.022360679774997897</speed>
  <fix>3d</fix>
</trkpt>
<trkpt lat="40.0713749" lon="-105.229789">
  <ele>1583.0</ele>
  <time>2026-08-28T17:49:16Z</time>
  <course>0.0</course>
  <speed>0.0</speed>
  <fix>3d</fix>
</trkpt>
<trkpt lat="40.0713751" lon="-105.2297889">
  <ele>1582.96</ele>
  <time>2026-08-28T17:49:16Z</time>
  <course>247.08</course>
  <speed>0.022360679774997897</speed>
  <fix>3d</fix>
</trkpt>
<trkpt lat="40.0713749" lon="-105.229789">
  <ele>1583.0</ele>
  <time>2026-08-28T17:49:16Z</time>
  <course>0.0</course>
  <speed>0.0</speed>
  <fix>3d</fix>
</trkpt>
<trkpt lat="40.0713751" lon="-105.2297889">
  <ele>1582.97</ele>
  <time>2026-08-28T17:49:16Z</time>
  <course>247.08</course>
  <speed>0.022360679774997897</speed>
  <fix>3d</fix>
</trkpt>
<trkpt lat="40.0713749" lon="-105.229789">
  <ele>1583.0</ele>
  <time>2026-08-28T17:49:16Z</time>
  <course>0.0</course>
  <speed>0.0</speed>
  <fix>3d</fix>
</trkpt>
<trkpt lat="40.0713751" lon="-105.2297889">
  <ele>1582.97</ele>
  <time>2026-08-28T17:49:16Z</time>
  <course>247.08</course>
  <speed>0.022360679774997897</speed>
  <fix>3d</fix>
</trkpt>
<trkpt lat="40.0713749" lon="-105.229789">
  <ele>1583.0</ele>
  <time>2026-08-28T17:49:16Z</time>
  <course>0.0</course>
  <speed>0.0</speed>
  <fix>3d</fix>
</trkpt>
<trkpt lat="40.0713751" lon="-105.2297889">
  <ele>1582.97</ele>
  <time>2026-08-28T17:49:16Z</time>
  <course>247.08</course>
  <speed>0.022360679774997897</speed>
  <fix>3d</fix>
</trkpt>
<trkpt lat="40.0713749" lon="-105.229789">
  <ele>1583.0</ele>
  <time>2026-08-28T17:49:16Z</time>
  <course>0.0</course>
  <speed>0.0</speed>
  <fix>3d</fix>
</trkpt>
<trkpt lat="40.0713751" lon="-105.2297889">
  <ele>1582.97</ele>
  <time>2026-08-28T17:49:16Z</time>
  <course>247.08</course>
  <speed>0.022360679774997897</speed>
  <fix>3d</fix>
</trkpt>
<trkpt lat="40.0713749" lon="-105.229789">
  <ele>1583.0</ele>
  <time>2026-08-28T17:49:16Z</time>
  <course>0.0</course>
  <speed>0.0</speed>
  <fix>3d</fix>
</trkpt>
<trkpt lat="40.0713751" lon="-105.2297889">
  <ele>1582.97</ele>
  <time>2026-08-28T17:49:16Z</time>
  <course>247.08</course>
  <speed>0.022360679774997897</speed>
  <fix>3d</fix>
</trkpt>
<trkpt lat="40.0713749" lon="-105.229789">
  <ele>1583.0</ele>
  <time>2026-08-28T17:49:16Z</time>
  <course>0.0</course>
  <speed>0.0</speed>
  <fix>3d</fix>
</trkpt>
<trkpt lat="40.0713751" lon="-105.2297889">
  <ele>1582.97</ele>
  <time>2026-08-28T17:49:16Z</time>
  <course>247.08</course>
  <speed>0.022360679774997897</speed>
  <fix>3d</fix>
</trkpt>
<trkpt lat="40.0713749" lon="-105.229789">
  <ele>1583.0</ele>
  <time>2026-08-28T17:49:16Z</time>
  <course>0.0</course>
  <speed>0.0</speed>
  <fix>3d</fix>
</trkpt>
<trkpt lat="40.071375" lon="-105.2297889">
  <ele>1582.97</ele>
  <time>2026-08-28T17:49:16Z</time>
  <course>247.08</course>
  <speed>0.022360679774997897</speed>
  <fix>3d</fix>
</trkpt>
<trkpt lat="40.0713749" lon="-105.229789">
  <ele>1583.0</ele>
  <time>2026-08-28T17:49:16Z</time>
  <course>0.0</course>
  <speed>0.0</speed>
  <fix>3d</fix>
</trkpt>
<trkpt lat="40.0713751" lon="-105.2297889">
  <ele>1582.97</ele>
  <time>2026-08-28T17:49:16Z</time>
  <course>247.08</course>
  <speed>0.022360679774997897</speed>
  <fix>3d</fix>
</trkpt>
<trkpt lat="40.0713749" lon="-105.229789">
  <ele>1583.0</ele>
  <time>2026-08-28T17:49:16Z</time>
  <course>0.0</course>
  <speed>0.0</speed>
  <fix>3d</fix>
</trkpt>
<trkpt lat="40.071375" lon="-105.2297889">
  <ele>1582.97</ele>
  <time>2026-08-28T17:49:16Z</time>
  <course>247.08</course>
  <speed>0.022360679774997897</speed>
  <fix>3d</fix>
</trkpt>
<trkpt lat="40.0713749" lon="-105.229789">
  <ele>1583.0</ele>
  <time>2026-08-28T17:49:16Z</time>
  <course>0.0</course>
  <speed>0.0</speed>
  <fix>3d</fix>
</trkpt>
<trkpt lat="40.0713751" lon="-105.2297889">
  <ele>1582.97</ele>
  <time>2026-08-28T17:49:16Z</time>
  <course>247.08</course>
  <speed>0.022360679774997897</speed>
  <fix>3d</fix>
</trkpt>
<trkpt lat="40.0713749" lon="-105.229789">
  <ele>1583.0</ele>
  <time>2026-08-28T17:49:16Z</time>
  <course>0.0</course>
  <speed>0.0</speed>
  <fix>3d</fix>
</trkpt>
<trkpt lat="40.071375" lon="-105.2297889">
  <ele>1582.97</ele>
  <time>2026-08-28T17:49:16Z</time>
  <course>247.08</course>
  <speed>0.022360679774997897</speed>
  <fix>3d</fix>
</trkpt>
<trkpt lat="40.0713749" lon="-105.229789">
  <ele>1583.0</ele>
  <time>2026-08-28T17:49:16Z</time>
  <course>0.0</course>
  <speed>0.0</speed>
  <fix>3d</fix>
</trkpt>
<trkpt lat="40.0713751" lon="-105.2297889">
  <ele>1582.98</ele>
  <time>2026-08-28T17:49:16Z</time>
  <course>247.08</course>
  <speed>0.022360679774997897</speed>
  <fix>3d</fix>
</trkpt>
<trkpt lat="40.0713749" lon="-105.229789">
  <ele>1583.0</ele>
  <time>2026-08-28T17:49:16Z</time>
  <course>0.0</course>
  <speed>0.0</speed>
  <fix>3d</fix>
</trkpt>
<trkpt lat="40.071375" lon="-105.2297889">
  <ele>1582.98</ele>
  <time>2026-08-28T17:49:16Z</time>
  <course>247.08</course>
  <speed>0.022360679774997897</speed>
  <fix>3d</fix>
</trkpt>
<trkpt lat="40.0713749" lon="-105.229789">
  <ele>1583.0</ele>
  <time>2026-08-28T17:49:16Z</time>
  <course>0.0</course>
  <speed>0.0</speed>
  <fix>3d</fix>
</trkpt>
<trkpt lat="40.0713751" lon="-105.2297889">
  <ele>1582.99</ele>
  <time>2026-08-28T17:49:16Z</time>
  <course>247.08</course>
  <speed>0.022360679774997897</speed>
  <fix>3d</fix>
</trkpt>
<trkpt lat="40.0713749" lon="-105.229789">
  <ele>1583.0</ele>
  <time>2026-08-28T17:49:16Z</time>
  <course>0.0</course>
  <speed>0.0</speed>
  <fix>3d</fix>
</trkpt>
<trkpt lat="40.071375" lon="-105.2297889">
  <ele>1582.99</ele>
  <time>2026-08-28T17:49:16Z</time>
  <course>247.08</course>
  <speed>0.022360679774997897</speed>
  <fix>3d</fix>
</trkpt>
<trkpt lat="40.0713749" lon="-105.229789">
  <ele>1583.0</ele>
  <time>2026-08-28T17:49:16Z</time>
  <course>0.0</course>
  <speed>0.0</speed>
  <fix>3d</fix>
</trkpt>
<trkpt lat="40.0713751" lon="-105.2297889">
  <ele>1582.99</ele>
  <time>2026-08-28T17:49:16Z</time>
  <course>247.08</course>
  <speed>0.022360679774997897</speed>
  <fix>3d</fix>
</trkpt>
<trkpt lat="40.0713749" lon="-105.229789">
  <ele>1583.0</ele>
  <time>2026-08-28T17:49:16Z</time>
  <course>0.0</course>
  <speed>0.0</speed>
  <fix>3d</fix>
</trkpt>
<trkpt lat="40.071375" lon="-105.2297889">
  <ele>1582.99</ele>
  <time>2026-08-28T17:49:16Z</time>
  <course>247.08</course>
  <speed>0.022360679774997897</speed>
  <fix>3d</fix>
</trkpt>
<trkpt lat="40.0713749" lon="-105.229789">
  <ele>1583.0</ele>
  <time>2026-08-28T17:49:16Z</time>
  <course>0.0</course>
  <speed>0.0</speed>
  <fix>3d</fix>
</trkpt>
<trkpt lat="40.0713751" lon="-105.2297889">
  <ele>1583.0</ele>
  <time>2026-08-28T17:49:16Z</time>
  <course>247.08</course>
  <speed>0.022360679774997897</speed>
  <fix>3d</fix>
</trkpt>
<trkpt lat="40.0713749" lon="-105.229789">
  <ele>1583.0</ele>
  <time>2026-08-28T17:49:16Z</time>
  <course>0.0</course>
  <speed>0.0</speed>
  <fix>3d</fix>
</trkpt>
<trkpt lat="40.071375" lon="-105.2297889">
  <ele>1583.0</ele>
  <time>2026-08-28T17:49:16Z</time>
  <course>247.08</course>
  <speed>0.022360679774997897</speed>
  <fix>3d</fix>
</trkpt>
<trkpt lat="40.0713749" lon="-105.229789">
  <ele>1583.0</ele>
  <time>2026-08-28T17:49:16Z</time>
  <course>0.0</course>
  <speed>0.0</speed>
  <fix>3d</fix>
</trkpt>
<trkpt lat="40.0713751" lon="-105.2297889">
  <ele>1583.0</ele>
  <time>2026-08-28T17:49:16Z</time>
  <course>247.08</course>
  <speed>0.022360679774997897</speed>
  <fix>3d</fix>
</trkpt>
<trkpt lat="40.0713749" lon="-105.229789">
  <ele>1583.0</ele>
  <time>2026-08-28T17:49:16Z</time>
  <course>0.0</course>
  <speed>0.0</speed>
  <fix>3d</fix>
</trkpt>
<trkpt lat="40.0713751" lon="-105.2297889">
  <ele>1583.01</ele>
  <time>2026-08-28T17:49:16Z</time>
  <course>247.08</course>
  <speed>0.022360679774997897</speed>
  <fix>3d</fix>
</trkpt>
<trkpt lat="40.0713749" lon="-105.229789">
  <ele>1583.0</ele>
  <time>2026-08-28T17:49:16Z</time>
  <course>0.0</course>
  <speed>0.0</speed>
  <fix>3d</fix>
</trkpt>
<trkpt lat="40.0713751" lon="-105.2297889">
  <ele>1583.01</ele>
  <time>2026-08-28T17:49:16Z</time>
  <course>247.08</course>
  <speed>0.022360679774997897</speed>
  <fix>3d</fix>
</trkpt>
<trkpt lat="40.0713749" lon="-105.229789">
  <ele>1583.0</ele>
  <time>2026-08-28T17:49:16Z</time>
  <course>0.0</course>
  <speed>0.0</speed>
  <fix>3d</fix>
</trkpt>
<trkpt lat="40.0713751" lon="-105.2297889">
  <ele>1583.01</ele>
  <time>2026-08-28T17:49:16Z</time>
  <course>247.08</course>
  <speed>0.022360679774997897</speed>
  <fix>3d</fix>
</trkpt>
<trkpt lat="40.0713749" lon="-105.229789">
  <ele>1583.0</ele>
  <time>2026-08-28T17:49:16Z</time>
  <course>0.0</course>
  <speed>0.0</speed>
  <fix>3d</fix>
</trkpt>
<trkpt lat="40.0713751" lon="-105.2297889">
  <ele>1583.02</ele>
  <time>2026-08-28T17:49:16Z</time>
  <course>247.08</course>
  <speed>0.022360679774997897</speed>
  <fix>3d</fix>
</trkpt>
<trkpt lat="40.0713749" lon="-105.229789">
  <ele>1583.0</ele>
  <time>2026-08-28T17:49:16Z</time>
  <course>0.0</course>
  <speed>0.0</speed>
  <fix>3d</fix>
</trkpt>
<trkpt lat="40.0713751" lon="-105.2297889">
  <ele>1583.02</ele>
  <time>2026-08-28T17:49:16Z</time>
  <course>247.08</course>
  <speed>0.022360679774997897</speed>
  <fix>3d</fix>
</trkpt>
<trkpt lat="40.0713749" lon="-105.229789">
  <ele>1583.0</ele>
  <time>2026-08-28T17:49:16Z</time>
  <course>0.0</course>
  <speed>0.0</speed>
  <fix>3d</fix>
</trkpt>
<trkpt lat="40.0713751" lon="-105.2297889">
  <ele>1583.02</ele>
  <time>2026-08-28T17:49:16Z</time>
  <course>247.08</course>
  <speed>0.022360679774997897</speed>
  <fix>3d</fix>
</trkpt>
<trkpt lat="40.0713749" lon="-105.229789">
  <ele>1583.0</ele>
  <time>2026-08-28T17:49:16Z</time>
  <course>0.0</course>
  <speed>0.0</speed>
  <fix>3d</fix>
</trkpt>
<trkpt lat="40.071375" lon="-105.2297889">
  <ele>1583.02</ele>
  <time>2026-08-28T17:49:17Z</time>
  <course>247.08</course>
  <speed>0.022360679774997897</speed>
  <fix>3d</fix>
</trkpt>
<trkpt lat="40.0713749" lon="-105.229789">
  <ele>1583.0</ele>
  <time>2026-08-28T17:49:17Z</time>
  <course>0.0</course>
  <speed>0.0</speed>
  <fix>3d</fix>
</trkpt>
<trkpt lat="40.0713751" lon="-105.2297889">
  <ele>1583.02</ele>
  <time>2026-08-28T17:49:17Z</time>
  <course>247.08</course>
  <speed>0.022360679774997897</speed>
  <fix>3d</fix>
</trkpt>
<trkpt lat="40.0713749" lon="-105.229789">
  <ele>1583.0</ele>
  <time>2026-08-28T17:49:17Z</time>
  <course>0.0</course>
  <speed>0.0</speed>
  <fix>3d</fix>
</trkpt>
<trkpt lat="40.071375" lon="-105.2297889">
  <ele>1583.02</ele>
  <time>2026-08-28T17:49:17Z</time>
  <course>247.08</course>
  <speed>0.022360679774997897</speed>
  <fix>3d</fix>
</trkpt>
<trkpt lat="40.0713749" lon="-105.229789">
  <ele>1583.0</ele>
  <time>2026-08-28T17:49:17Z</time>
  <course>0.0</course>
  <speed>0.0</speed>
  <fix>3d</fix>
</trkpt>
<trkpt lat="40.0713751" lon="-105.2297889">
  <ele>1583.02</ele>
  <time>2026-08-28T17:49:17Z</time>
  <course>247.08</course>
  <speed>0.022360679774997897</speed>
  <fix>3d</fix>
</trkpt>
<trkpt lat="40.0713749" lon="-105.229789">
  <ele>1583.0</ele>
  <time>2026-08-28T17:49:17Z</time>
  <course>0.0</course>
  <speed>0.0</speed>
  <fix>3d</fix>
</trkpt>
<trkpt lat="40.071375" lon="-105.2297889">
  <ele>1583.02</ele>
  <time>2026-08-28T17:49:17Z</time>
  <course>247.08</course>
  <speed>0.022360679774997897</speed>
  <fix>3d</fix>
</trkpt>
<trkpt lat="40.0713749" lon="-105.229789">
  <ele>1583.0</ele>
  <time>2026-08-28T17:49:17Z</time>
  <course>0.0</course>
  <speed>0.0</speed>
  <fix>3d</fix>
</trkpt>
<trkpt lat="40.0713751" lon="-105.2297889">
  <ele>1583.01</ele>
  <time>2026-08-28T17:49:17Z</time>
  <course>247.08</course>
  <speed>0.022360679774997897</speed>
  <fix>3d</fix>
</trkpt>
<trkpt lat="40.0713749" lon="-105.229789">
  <ele>1583.0</ele>
  <time>2026-08-28T17:49:17Z</time>
  <course>0.0</course>
  <speed>0.0</speed>
  <fix>3d</fix>
</trkpt>
<trkpt lat="40.071375" lon="-105.2297889">
  <ele>1583.01</ele>
  <time>2026-08-28T17:49:17Z</time>
  <course>247.08</course>
  <speed>0.022360679774997897</speed>
  <fix>3d</fix>
</trkpt>
<trkpt lat="40.0713749" lon="-105.229789">
  <ele>1583.0</ele>
  <time>2026-08-28T17:49:17Z</time>
  <course>0.0</course>
  <speed>0.0</speed>
  <fix>3d</fix>
</trkpt>
<trkpt lat="40.0713751" lon="-105.2297889">
  <ele>1583.0</ele>
  <time>2026-08-28T17:49:17Z</time>
  <course>247.08</course>
  <speed>0.022360679774997897</speed>
  <fix>3d</fix>
</trkpt>
<trkpt lat="40.0713749" lon="-105.229789">
  <ele>1583.0</ele>
  <time>2026-08-28T17:49:17Z</time>
  <course>0.0</course>
  <speed>0.0</speed>
  <fix>3d</fix>
</trkpt>
<trkpt lat="40.071375" lon="-105.2297889">
  <ele>1583.0</ele>
  <time>2026-08-28T17:49:17Z</time>
  <course>247.08</course>
  <speed>0.022360679774997897</speed>
  <fix>3d</fix>
</trkpt>
<trkpt lat="40.0713749" lon="-105.229789">
  <ele>1583.0</ele>
  <time>2026-08-28T17:49:17Z</time>
  <course>0.0</course>
  <speed>0.0</speed>
  <fix>3d</fix>
</trkpt>
<trkpt lat="40.0713751" lon="-105.2297889">
  <ele>1583.0</ele>
  <time>2026-08-28T17:49:17Z</time>
  <course>247.08</course>
  <speed>0.022360679774997897</speed>
  <fix>3d</fix>
</trkpt>
<trkpt lat="40.0713749" lon="-105.229789">
  <ele>1583.0</ele>
  <time>2026-08-28T17:49:17Z</time>
  <course>0.0</course>
  <speed>0.0</speed>
  <fix>3d</fix>
</trkpt>
<trkpt lat="40.071375" lon="-105.2297889">
  <ele>1583.0</ele>
  <time>2026-08-28T17:49:17Z</time>
  <course>247.08</course>
  <speed>0.022360679774997897</speed>
  <fix>3d</fix>
</trkpt>
<trkpt lat="40.0713749" lon="-105.229789">
  <ele>1583.0</ele>
  <time>2026-08-28T17:49:17Z</time>
  <course>0.0</course>
  <speed>0.0</speed>
  <fix>3d</fix>
</trkpt>
<trkpt lat="40.0713751" lon="-105.2297889">
  <ele>1583.0</ele>
  <time>2026-08-28T17:49:17Z</time>
  <course>247.08</course>
  <speed>0.022360679774997897</speed>
  <fix>3d</fix>
</trkpt>
<trkpt lat="40.0713749" lon="-105.229789">
  <ele>1583.0</ele>
  <time>2026-08-28T17:49:17Z</time>
  <course>0.0</course>
  <speed>0.0</speed>
  <fix>3d</fix>
</trkpt>
<trkpt lat="40.071375" lon="-105.2297889">
  <ele>1583.0</ele>
  <time>2026-08-28T17:49:17Z</time>
  <course>247.08</course>
  <speed>0.022360679774997897</speed>
  <fix>3d</fix>
</trkpt>
<trkpt lat="40.0713749" lon="-105.229789">
  <ele>1583.0</ele>
  <time>2026-08-28T17:49:17Z</time>
  <course>0.0</course>
  <speed>0.0</speed>
  <fix>3d</fix>
</trkpt>
<trkpt lat="40.0713751" lon="-105.2297889">
  <ele>1583.0</ele>
  <time>2026-08-28T17:49:17Z</time>
  <course>247.08</course>
  <speed>0.022360679774997897</speed>
  <fix>3d</fix>
</trkpt>
<trkpt lat="40.0713749" lon="-105.229789">
  <ele>1583.0</ele>
  <time>2026-08-28T17:49:17Z</time>
  <course>0.0</course>
  <speed>0.0</speed>
  <fix>3d</fix>
</trkpt>
<trkpt lat="40.0713751" lon="-105.2297889">
  <ele>1582.99</ele>
  <time>2026-08-28T17:49:17Z</time>
  <course>247.08</course>
  <speed>0.022360679774997897</speed>
  <fix>3d</fix>
</trkpt>
<trkpt lat="40.0713749" lon="-105.229789">
  <ele>1583.0</ele>
  <time>2026-08-28T17:49:17Z</time>
  <course>0.0</course>
  <speed>0.0</speed>
  <fix>3d</fix>
</trkpt>
<trkpt lat="40.0713751" lon="-105.2297889">
  <ele>1582.99</ele>
  <time>2026-08-28T17:49:17Z</time>
  <course>247.08</course>
  <speed>0.022360679774997897</speed>
  <fix>3d</fix>
</trkpt>
<trkpt lat="40.0713749" lon="-105.229789">
  <ele>1583.0</ele>
  <time>2026-08-28T17:49:17Z</time>
  <course>0.0</course>
  <speed>0.0</speed>
  <fix>3d</fix>
</trkpt>
<trkpt lat="40.0713751" lon="-105.2297889">
  <ele>1582.98</ele>
  <time>2026-08-28T17:49:17Z</time>
  <course>247.08</course>
  <speed>0.022360679774997897</speed>
  <fix>3d</fix>
</trkpt>
<trkpt lat="40.0713749" lon="-105.229789">
  <ele>1583.0</ele>
  <time>2026-08-28T17:49:17Z</time>
  <course>0.0</course>
  <speed>0.0</speed>
  <fix>3d</fix>
</trkpt>
<trkpt lat="40.0713751" lon="-105.2297889">
  <ele>1582.98</ele>
  <time>2026-08-28T17:49:17Z</time>
  <course>247.08</course>
  <speed>0.022360679774997897</speed>
  <fix>3d</fix>
</trkpt>
<trkpt lat="40.0713749" lon="-105.229789">
  <ele>1583.0</ele>
  <time>2026-08-28T17:49:17Z</time>
  <course>0.0</course>
  <speed>0.0</speed>
  <fix>3d</fix>
</trkpt>
<trkpt lat="40.0713751" lon="-105.2297889">
  <ele>1582.97</ele>
  <time>2026-08-28T17:49:17Z</time>
  <course>247.08</course>
  <speed>0.022360679774997897</speed>
  <fix>3d</fix>
</trkpt>
<trkpt lat="40.0713749" lon="-105.229789">
  <ele>1583.0</ele>
  <time>2026-08-28T17:49:17Z</time>
  <course>0.0</course>
  <speed>0.0</speed>
  <fix>3d</fix>
</trkpt>
<trkpt lat="40.0713751" lon="-105.2297889">
  <ele>1582.96</ele>
  <time>2026-08-28T17:49:17Z</time>
  <course>247.08</course>
  <speed>0.022360679774997897</speed>
  <fix>3d</fix>
</trkpt>
<trkpt lat="40.0713749" lon="-105.229789">
  <ele>1583.0</ele>
  <time>2026-08-28T17:49:17Z</time>
  <course>0.0</course>
  <speed>0.0</speed>
  <fix>3d</fix>
</trkpt>
<trkpt lat="40.0713751" lon="-105.2297889">
  <ele>1582.96</ele>
  <time>2026-08-28T17:49:17Z</time>
  <course>247.08</course>
  <speed>0.022360679774997897</speed>
  <fix>3d</fix>
</trkpt>
<trkpt lat="40.0713749" lon="-105.229789">
  <ele>1583.0</ele>
  <time>2026-08-28T17:49:17Z</time>
  <course>0.0</course>
  <speed>0.0</speed>
  <fix>3d</fix>
</trkpt>
<trkpt lat="40.0713751" lon="-105.2297889">
  <ele>1582.95</ele>
  <time>2026-08-28T17:49:17Z</time>
  <course>247.08</course>
  <speed>0.022360679774997897</speed>
  <fix>3d</fix>
</trkpt>
<trkpt lat="40.0713749" lon="-105.229789">
  <ele>1583.0</ele>
  <time>2026-08-28T17:49:17Z</time>
  <course>0.0</course>
  <speed>0.0</speed>
  <fix>3d</fix>
</trkpt>
<trkpt lat="40.071375" lon="-105.2297889">
  <ele>1582.95</ele>
  <time>2026-08-28T17:49:17Z</time>
  <course>247.08</course>
  <speed>0.022360679774997897</speed>
  <fix>3d</fix>
</trkpt>
<trkpt lat="40.0713749" lon="-105.229789">
  <ele>1583.0</ele>
  <time>2026-08-28T17:49:17Z</time>
  <course>0.0</course>
  <speed>0.0</speed>
  <fix>3d</fix>
</trkpt>
<trkpt lat="40.0713751" lon="-105.2297889">
  <ele>1582.94</ele>
  <time>2026-08-28T17:49:17Z</time>
  <course>247.08</course>
  <speed>0.022360679774997897</speed>
  <fix>3d</fix>
</trkpt>
<trkpt lat="40.0713749" lon="-105.229789">
  <ele>1583.0</ele>
  <time>2026-08-28T17:49:17Z</time>
  <course>0.0</course>
  <speed>0.0</speed>
  <fix>3d</fix>
</trkpt>
<trkpt lat="40.071375" lon="-105.2297889">
  <ele>1582.94</ele>
  <time>2026-08-28T17:49:17Z</time>
  <course>247.08</course>
  <speed>0.022360679774997897</speed>
  <fix>3d</fix>
</trkpt>
<trkpt lat="40.0713749" lon="-105.229789">
  <ele>1583.0</ele>
  <time>2026-08-28T17:49:17Z</time>
  <course>0.0</course>
  <speed>0.0</speed>
  <fix>3d</fix>
</trkpt>
<trkpt lat="40.0713751" lon="-105.2297889">
  <ele>1582.94</ele>
  <time>2026-08-28T17:49:17Z</time>
  <course>247.08</course>
  <speed>0.022360679774997897</speed>
  <fix>3d</fix>
</trkpt>
<trkpt lat="40.0713749" lon="-105.229789">
  <ele>1583.0</ele>
  <time>2026-08-28T17:49:17Z</time>
  <course>0.0</course>
  <speed>0.0</speed>
  <fix>3d</fix>
</trkpt>
<trkpt lat="40.071375" lon="-105.2297889">
  <ele>1582.93</ele>
  <time>2026-08-28T17:49:17Z</time>
  <course>247.08</course>
  <speed>0.022360679774997897</speed>
  <fix>3d</fix>
</trkpt>
<trkpt lat="40.0713749" lon="-105.229789">
  <ele>1583.0</ele>
  <time>2026-08-28T17:49:17Z</time>
  <course>0.0</course>
  <speed>0.0</speed>
  <fix>3d</fix>
</trkpt>
<trkpt lat="40.0713751" lon="-105.2297889">
  <ele>1582.93</ele>
  <time>2026-08-28T17:49:17Z</time>
  <course>247.08</course>
  <speed>0.022360679774997897</speed>
  <fix>3d</fix>
</trkpt>
<trkpt lat="40.0713749" lon="-105.229789">
  <ele>1583.0</ele>
  <time>2026-08-28T17:49:17Z</time>
  <course>0.0</course>
  <speed>0.0</speed>
  <fix>3d</fix>
</trkpt>
<trkpt lat="40.071375" lon="-105.2297889">
  <ele>1582.92</ele>
  <time>2026-08-28T17:49:17Z</time>
  <course>247.08</course>
  <speed>0.022360679774997897</speed>
  <fix>3d</fix>
</trkpt>
<trkpt lat="40.0713749" lon="-105.229789">
  <ele>1583.0</ele>
  <time>2026-08-28T17:49:17Z</time>
  <course>0.0</course>
  <speed>0.0</speed>
  <fix>3d</fix>
</trkpt>
<trkpt lat="40.0713751" lon="-105.2297889">
  <ele>1582.92</ele>
  <time>2026-08-28T17:49:17Z</time>
  <course>247.08</course>
  <speed>0.022360679774997897</speed>
  <fix>3d</fix>
</trkpt>
<trkpt lat="40.0713749" lon="-105.229789">
  <ele>1583.0</ele>
  <time>2026-08-28T17:49:17Z</time>
  <course>0.0</course>
  <speed>0.0</speed>
  <fix>3d</fix>
</trkpt>
<trkpt lat="40.071375" lon="-105.2297889">
  <ele>1582.92</ele>
  <time>2026-08-28T17:49:17Z</time>
  <course>247.08</course>
  <speed>0.022360679774997897</speed>
  <fix>3d</fix>
</trkpt>
<trkpt lat="40.0713749" lon="-105.229789">
  <ele>1583.0</ele>
  <time>2026-08-28T17:49:17Z</time>
  <course>0.0</course>
  <speed>0.0</speed>
  <fix>3d</fix>
</trkpt>
<trkpt lat="40.0713751" lon="-105.2297889">
  <ele>1582.91</ele>
  <time>2026-08-28T17:49:17Z</time>
  <course>247.08</course>
  <speed>0.022360679774997897</speed>
  <fix>3d</fix>
</trkpt>
<trkpt lat="40.0713749" lon="-105.229789">
  <ele>1583.0</ele>
  <time>2026-08-28T17:49:17Z</time>
  <course>0.0</course>
  <speed>0.0</speed>
  <fix>3d</fix>
</trkpt>
<trkpt lat="40.071375" lon="-105.2297889">
  <ele>1582.91</ele>
  <time>2026-08-28T17:49:17Z</time>
  <course>247.08</course>
  <speed>0.022360679774997897</speed>
  <fix>3d</fix>
</trkpt>
<trkpt lat="40.0713749" lon="-105.229789">
  <ele>1583.0</ele>
  <time>2026-08-28T17:49:17Z</time>
  <course>0.0</course>
  <speed>0.0</speed>
  <fix>3d</fix>
</trkpt>
<trkpt lat="40.0713751" lon="-105.2297889">
  <ele>1582.91</ele>
  <time>2026-08-28T17:49:17Z</time>
  <course>247.08</course>
  <speed>0.022360679774997897</speed>
  <fix>3d</fix>
</trkpt>
<trkpt lat="40.0713749" lon="-105.229789">
  <ele>1583.0</ele>
  <time>2026-08-28T17:49:17Z</time>
  <course>0.0</course>
  <speed>0.0</speed>
  <fix>3d</fix>
</trkpt>
<trkpt lat="40.071375" lon="-105.2297889">
  <ele>1582.91</ele>
  <time>2026-08-28T17:49:17Z</time>
  <course>247.08</course>
  <speed>0.022360679774997897</speed>
  <fix>3d</fix>
</trkpt>
<trkpt lat="40.0713749" lon="-105.229789">
  <ele>1583.0</ele>
  <time>2026-08-28T17:49:17Z</time>
  <course>0.0</course>
  <speed>0.0</speed>
  <fix>3d</fix>
</trkpt>
<trkpt lat="40.0713751" lon="-105.2297889">
  <ele>1582.91</ele>
  <time>2026-08-28T17:49:17Z</time>
  <course>247.08</course>
  <speed>0.022360679774997897</speed>
  <fix>3d</fix>
</trkpt>
<trkpt lat="40.0713749" lon="-105.229789">
  <ele>1583.0</ele>
  <time>2026-08-28T17:49:17Z</time>
  <course>0.0</course>
  <speed>0.0</speed>
  <fix>3d</fix>
</trkpt>
<trkpt lat="40.0713751" lon="-105.2297889">
  <ele>1582.91</ele>
  <time>2026-08-28T17:49:17Z</time>
  <course>247.08</course>
  <speed>0.022360679774997897</speed>
  <fix>3d</fix>
</trkpt>
<trkpt lat="40.0713749" lon="-105.229789">
  <ele>1583.0</ele>
  <time>2026-08-28T17:49:17Z</time>
  <course>0.0</course>
  <speed>0.0</speed>
  <fix>3d</fix>
</trkpt>
<trkpt lat="40.0713751" lon="-105.2297889">
  <ele>1582.92</ele>
  <time>2026-08-28T17:49:17Z</time>
  <course>247.08</course>
  <speed>0.022360679774997897</speed>
  <fix>3d</fix>
</trkpt>
<trkpt lat="40.0713749" lon="-105.229789">
  <ele>1583.0</ele>
  <time>2026-08-28T17:49:17Z</time>
  <course>0.0</course>
  <speed>0.0</speed>
  <fix>3d</fix>
</trkpt>
<trkpt lat="40.0713751" lon="-105.2297889">
  <ele>1582.92</ele>
  <time>2026-08-28T17:49:17Z</time>
  <course>247.08</course>
  <speed>0.022360679774997897</speed>
  <fix>3d</fix>
</trkpt>
<trkpt lat="40.0713749" lon="-105.229789">
  <ele>1583.0</ele>
  <time>2026-08-28T17:49:17Z</time>
  <course>0.0</course>
  <speed>0.0</speed>
  <fix>3d</fix>
</trkpt>
<trkpt lat="40.0713751" lon="-105.2297889">
  <ele>1582.93</ele>
  <time>2026-08-28T17:49:17Z</time>
  <course>247.08</course>
  <speed>0.022360679774997897</speed>
  <fix>3d</fix>
</trkpt>
<trkpt lat="40.0713749" lon="-105.229789">
  <ele>1583.0</ele>
  <time>2026-08-28T17:49:17Z</time>
  <course>0.0</course>
  <speed>0.0</speed>
  <fix>3d</fix>
</trkpt>
<trkpt lat="40.0713751" lon="-105.2297889">
  <ele>1582.93</ele>
  <time>2026-08-28T17:49:17Z</time>
  <course>247.08</course>
  <speed>0.022360679774997897</speed>
  <fix>3d</fix>
</trkpt>
<trkpt lat="40.0713749" lon="-105.229789">
  <ele>1583.0</ele>
  <time>2026-08-28T17:49:17Z</time>
  <course>0.0</course>
  <speed>0.0</speed>
  <fix>3d</fix>
</trkpt>
<trkpt lat="40.0713751" lon="-105.2297889">
  <ele>1582.94</ele>
  <time>2026-08-28T17:49:17Z</time>
  <course>247.08</course>
  <speed>0.022360679774997897</speed>
  <fix>3d</fix>
</trkpt>
<trkpt lat="40.0713749" lon="-105.229789">
  <ele>1583.0</ele>
  <time>2026-08-28T17:49:17Z</time>
  <course>0.0</course>
  <speed>0.0</speed>
  <fix>3d</fix>
</trkpt>
<trkpt lat="40.071375" lon="-105.2297889">
  <ele>1582.94</ele>
  <time>2026-08-28T17:49:17Z</time>
  <course>247.08</course>
  <speed>0.022360679774997897</speed>
  <fix>3d</fix>
</trkpt>
<trkpt lat="40.0713749" lon="-105.229789">
  <ele>1583.0</ele>
  <time>2026-08-28T17:49:17Z</time>
  <course>0.0</course>
  <speed>0.0</speed>
  <fix>3d</fix>
</trkpt>
<trkpt lat="40.0713751" lon="-105.2297889">
  <ele>1582.94</ele>
  <time>2026-08-28T17:49:17Z</time>
  <course>247.08</course>
  <speed>0.022360679774997897</speed>
  <fix>3d</fix>
</trkpt>
<trkpt lat="40.0713749" lon="-105.229789">
  <ele>1583.0</ele>
  <time>2026-08-28T17:49:17Z</time>
  <course>0.0</course>
  <speed>0.0</speed>
  <fix>3d</fix>
</trkpt>
<trkpt lat="40.071375" lon="-105.2297889">
  <ele>1582.94</ele>
  <time>2026-08-28T17:49:17Z</time>
  <course>247.08</course>
  <speed>0.022360679774997897</speed>
  <fix>3d</fix>
</trkpt>
<trkpt lat="40.0713749" lon="-105.229789">
  <ele>1583.0</ele>
  <time>2026-08-28T17:49:17Z</time>
  <course>0.0</course>
  <speed>0.0</speed>
  <fix>3d</fix>
</trkpt>
<trkpt lat="40.0713751" lon="-105.2297889">
  <ele>1582.94</ele>
  <time>2026-08-28T17:49:17Z</time>
  <course>247.08</course>
  <speed>0.022360679774997897</speed>
  <fix>3d</fix>
</trkpt>
<trkpt lat="40.0713749" lon="-105.229789">
  <ele>1583.0</ele>
  <time>2026-08-28T17:49:17Z</time>
  <course>0.0</course>
  <speed>0.0</speed>
  <fix>3d</fix>
</trkpt>
<trkpt lat="40.071375" lon="-105.2297889">
  <ele>1582.94</ele>
  <time>2026-08-28T17:49:17Z</time>
  <course>247.08</course>
  <speed>0.022360679774997897</speed>
  <fix>3d</fix>
</trkpt>
<trkpt lat="40.0713749" lon="-105.229789">
  <ele>1583.0</ele>
  <time>2026-08-28T17:49:17Z</time>
  <course>0.0</course>
  <speed>0.0</speed>
  <fix>3d</fix>
</trkpt>
<trkpt lat="40.0713751" lon="-105.2297889">
  <ele>1582.93</ele>
  <time>2026-08-28T17:49:17Z</time>
  <course>247.08</course>
  <speed>0.022360679774997897</speed>
  <fix>3d</fix>
</trkpt>
<trkpt lat="40.0713749" lon="-105.229789">
  <ele>1583.0</ele>
  <time>2026-08-28T17:49:17Z</time>
  <course>0.0</course>
  <speed>0.0</speed>
  <fix>3d</fix>
</trkpt>
<trkpt lat="40.071375" lon="-105.2297889">
  <ele>1582.93</ele>
  <time>2026-08-28T17:49:17Z</time>
  <course>247.08</course>
  <speed>0.022360679774997897</speed>
  <fix>3d</fix>
</trkpt>
<trkpt lat="40.0713749" lon="-105.229789">
  <ele>1583.0</ele>
  <time>2026-08-28T17:49:17Z</time>
  <course>0.0</course>
  <speed>0.0</speed>
  <fix>3d</fix>
</trkpt>
<trkpt lat="40.0713751" lon="-105.2297889">
  <ele>1582.93</ele>
  <time>2026-08-28T17:49:17Z</time>
  <course>247.08</course>
  <speed>0.022360679774997897</speed>
  <fix>3d</fix>
</trkpt>
<trkpt lat="40.0713749" lon="-105.229789">
  <ele>1583.0</ele>
  <time>2026-08-28T17:49:17Z</time>
  <course>0.0</course>
  <speed>0.0</speed>
  <fix>3d</fix>
</trkpt>
<trkpt lat="40.071375" lon="-105.2297889">
  <ele>1582.93</ele>
  <time>2026-08-28T17:49:17Z</time>
  <course>247.08</course>
  <speed>0.022360679774997897</speed>
  <fix>3d</fix>
</trkpt>
<trkpt lat="40.0713749" lon="-105.229789">
  <ele>1583.0</ele>
  <time>2026-08-28T17:49:17Z</time>
  <course>0.0</course>
  <speed>0.0</speed>
  <fix>3d</fix>
</trkpt>
<trkpt lat="40.0713751" lon="-105.2297889">
  <ele>1582.92</ele>
  <time>2026-08-28T17:49:17Z</time>
  <course>247.08</course>
  <speed>0.022360679774997897</speed>
  <fix>3d</fix>
</trkpt>
<trkpt lat="40.0713749" lon="-105.229789">
  <ele>1583.0</ele>
  <time>2026-08-28T17:49:17Z</time>
  <course>0.0</course>
  <speed>0.0</speed>
  <fix>3d</fix>
</trkpt>
<trkpt lat="40.071375" lon="-105.2297889">
  <ele>1582.92</ele>
  <time>2026-08-28T17:49:17Z</time>
  <course>247.08</course>
  <speed>0.022360679774997897</speed>
  <fix>3d</fix>
</trkpt>
<trkpt lat="40.0713749" lon="-105.229789">
  <ele>1583.0</ele>
  <time>2026-08-28T17:49:17Z</time>
  <course>0.0</course>
  <speed>0.0</speed>
  <fix>3d</fix>
</trkpt>
<trkpt lat="40.0713751" lon="-105.2297889">
  <ele>1582.92</ele>
  <time>2026-08-28T17:49:17Z</time>
  <course>247.08</course>
  <speed>0.022360679774997897</speed>
  <fix>3d</fix>
</trkpt>
<trkpt lat="40.0713749" lon="-105.229789">
  <ele>1583.0</ele>
  <time>2026-08-28T17:49:17Z</time>
  <course>0.0</course>
  <speed>0.0</speed>
  <fix>3d</fix>
</trkpt>
<trkpt lat="40.071375" lon="-105.2297889">
  <ele>1582.91</ele>
  <time>2026-08-28T17:49:17Z</time>
  <course>247.08</course>
  <speed>0.022360679774997897</speed>
  <fix>3d</fix>
</trkpt>
<trkpt lat="40.0713749" lon="-105.229789">
  <ele>1583.0</ele>
  <time>2026-08-28T17:49:17Z</time>
  <course>0.0</course>
  <speed>0.0</speed>
  <fix>3d</fix>
</trkpt>
<trkpt lat="40.0713751" lon="-105.2297889">
  <ele>1582.91</ele>
  <time>2026-08-28T17:49:17Z</time>
  <course>247.08</course>
  <speed>0.022360679774997897</speed>
  <fix>3d</fix>
</trkpt>
<trkpt lat="40.0713749" lon="-105.229789">
  <ele>1583.0</ele>
  <time>2026-08-28T17:49:17Z</time>
  <course>0.0</course>
  <speed>0.0</speed>
  <fix>3d</fix>
</trkpt>
<trkpt lat="40.071375" lon="-105.2297889">
  <ele>1582.9</ele>
  <time>2026-08-28T17:49:17Z</time>
  <course>247.08</course>
  <speed>0.022360679774997897</speed>
  <fix>3d</fix>
</trkpt>
<trkpt lat="40.0713749" lon="-105.229789">
  <ele>1583.0</ele>
  <time>2026-08-28T17:49:17Z</time>
  <course>0.0</course>
  <speed>0.0</speed>
  <fix>3d</fix>
</trkpt>
<trkpt lat="40.0713751" lon="-105.2297889">
  <ele>1582.89</ele>
  <time>2026-08-28T17:49:17Z</time>
  <course>247.08</course>
  <speed>0.022360679774997897</speed>
  <fix>3d</fix>
</trkpt>
<trkpt lat="40.0713749" lon="-105.229789">
  <ele>1583.0</ele>
  <time>2026-08-28T17:49:17Z</time>
  <course>0.0</course>
  <speed>0.0</speed>
  <fix>3d</fix>
</trkpt>
<trkpt lat="40.071375" lon="-105.2297889">
  <ele>1582.89</ele>
  <time>2026-08-28T17:49:17Z</time>
  <course>247.08</course>
  <speed>0.022360679774997897</speed>
  <fix>3d</fix>
</trkpt>
<trkpt lat="40.0713749" lon="-105.229789">
  <ele>1583.0</ele>
  <time>2026-08-28T17:49:17Z</time>
  <course>0.0</course>
  <speed>0.0</speed>
  <fix>3d</fix>
</trkpt>
<trkpt lat="40.0713751" lon="-105.2297889">
  <ele>1582.89</ele>
  <time>2026-08-28T17:49:17Z</time>
  <course>247.08</course>
  <speed>0.022360679774997897</speed>
  <fix>3d</fix>
</trkpt>
<trkpt lat="40.0713749" lon="-105.229789">
  <ele>1583.0</ele>
  <time>2026-08-28T17:49:17Z</time>
  <course>0.0</course>
  <speed>0.0</speed>
  <fix>3d</fix>
</trkpt>
<trkpt lat="40.071375" lon="-105.2297889">
  <ele>1582.88</ele>
  <time>2026-08-28T17:49:17Z</time>
  <course>247.08</course>
  <speed>0.022360679774997897</speed>
  <fix>3d</fix>
</trkpt>
<trkpt lat="40.0713749" lon="-105.229789">
  <ele>1583.0</ele>
  <time>2026-08-28T17:49:17Z</time>
  <course>0.0</course>
  <speed>0.0</speed>
  <fix>3d</fix>
</trkpt>
<trkpt lat="40.0713751" lon="-105.2297889">
  <ele>1582.88</ele>
  <time>2026-08-28T17:49:17Z</time>
  <course>247.08</course>
  <speed>0.022360679774997897</speed>
  <fix>3d</fix>
</trkpt>
<trkpt lat="40.0713749" lon="-105.229789">
  <ele>1583.0</ele>
  <time>2026-08-28T17:49:17Z</time>
  <course>0.0</course>
  <speed>0.0</speed>
  <fix>3d</fix>
</trkpt>
<trkpt lat="40.071375" lon="-105.2297889">
  <ele>1582.87</ele>
  <time>2026-08-28T17:49:17Z</time>
  <course>247.08</course>
  <speed>0.022360679774997897</speed>
  <fix>3d</fix>
</trkpt>
<trkpt lat="40.0713749" lon="-105.229789">
  <ele>1583.0</ele>
  <time>2026-08-28T17:49:17Z</time>
  <course>0.0</course>
  <speed>0.0</speed>
  <fix>3d</fix>
</trkpt>
<trkpt lat="40.0713751" lon="-105.2297889">
  <ele>1582.87</ele>
  <time>2026-08-28T17:49:17Z</time>
  <course>247.08</course>
  <speed>0.022360679774997897</speed>
  <fix>3d</fix>
</trkpt>
<trkpt lat="40.0713749" lon="-105.229789">
  <ele>1583.0</ele>
  <time>2026-08-28T17:49:17Z</time>
  <course>0.0</course>
  <speed>0.0</speed>
  <fix>3d</fix>
</trkpt>
<trkpt lat="40.071375" lon="-105.2297889">
  <ele>1582.87</ele>
  <time>2026-08-28T17:49:17Z</time>
  <course>247.08</course>
  <speed>0.022360679774997897</speed>
  <fix>3d</fix>
</trkpt>
<trkpt lat="40.0713749" lon="-105.229789">
  <ele>1583.0</ele>
  <time>2026-08-28T17:49:17Z</time>
  <course>0.0</course>
  <speed>0.0</speed>
  <fix>3d</fix>
</trkpt>
<trkpt lat="40.071375" lon="-105.2297889">
  <ele>1582.88</ele>
  <time>2026-08-28T17:49:17Z</time>
  <course>247.08</course>
  <speed>0.022360679774997897</speed>
  <fix>3d</fix>
</trkpt>
<trkpt lat="40.0713749" lon="-105.229789">
  <ele>1583.0</ele>
  <time>2026-08-28T17:49:17Z</time>
  <course>0.0</course>
  <speed>0.0</speed>
  <fix>3d</fix>
</trkpt>
<trkpt lat="40.071375" lon="-105.2297889">
  <ele>1582.88</ele>
  <time>2026-08-28T17:49:17Z</time>
  <course>247.08</course>
  <speed>0.022360679774997897</speed>
  <fix>3d</fix>
</trkpt>
<trkpt lat="40.0713749" lon="-105.229789">
  <ele>1583.0</ele>
  <time>2026-08-28T17:49:17Z</time>
  <course>0.0</course>
  <speed>0.0</speed>
  <fix>3d</fix>
</trkpt>
<trkpt lat="40.071375" lon="-105.2297889">
  <ele>1582.89</ele>
  <time>2026-08-28T17:49:17Z</time>
  <course>247.07</course>
  <speed>0.022360679774997897</speed>
  <fix>3d</fix>
</trkpt>
<trkpt lat="40.0713749" lon="-105.229789">
  <ele>1583.0</ele>
  <time>2026-08-28T17:49:17Z</time>
  <course>0.0</course>
  <speed>0.0</speed>
  <fix>3d</fix>
</trkpt>
<trkpt lat="40.071375" lon="-105.2297889">
  <ele>1582.89</ele>
  <time>2026-08-28T17:49:17Z</time>
  <course>247.07</course>
  <speed>0.022360679774997897</speed>
  <fix>3d</fix>
</trkpt>
<trkpt lat="40.0713749" lon="-105.229789">
  <ele>1583.0</ele>
  <time>2026-08-28T17:49:17Z</time>
  <course>0.0</course>
  <speed>0.0</speed>
  <fix>3d</fix>
</trkpt>
<trkpt lat="40.071375" lon="-105.2297889">
  <ele>1582.89</ele>
  <time>2026-08-28T17:49:17Z</time>
  <course>247.07</course>
  <speed>0.022360679774997897</speed>
  <fix>3d</fix>
</trkpt>
<trkpt lat="40.0713749" lon="-105.229789">
  <ele>1583.0</ele>
  <time>2026-08-28T17:49:17Z</time>
  <course>0.0</course>
  <speed>0.0</speed>
  <fix>3d</fix>
</trkpt>
<trkpt lat="40.071375" lon="-105.2297889">
  <ele>1582.9</ele>
  <time>2026-08-28T17:49:17Z</time>
  <course>247.07</course>
  <speed>0.022360679774997897</speed>
  <fix>3d</fix>
</trkpt>
<trkpt lat="40.0713749" lon="-105.229789">
  <ele>1583.0</ele>
  <time>2026-08-28T17:49:17Z</time>
  <course>0.0</course>
  <speed>0.0</speed>
  <fix>3d</fix>
</trkpt>
<trkpt lat="40.071375" lon="-105.2297889">
  <ele>1582.91</ele>
  <time>2026-08-28T17:49:17Z</time>
  <course>247.07</course>
  <speed>0.022360679774997897</speed>
  <fix>3d</fix>
</trkpt>
<trkpt lat="40.0713749" lon="-105.229789">
  <ele>1583.0</ele>
  <time>2026-08-28T17:49:17Z</time>
  <course>0.0</course>
  <speed>0.0</speed>
  <fix>3d</fix>
</trkpt>
<trkpt lat="40.071375" lon="-105.2297889">
  <ele>1582.91</ele>
  <time>2026-08-28T17:49:17Z</time>
  <course>247.07</course>
  <speed>0.022360679774997897</speed>
  <fix>3d</fix>
</trkpt>
<trkpt lat="40.0713749" lon="-105.229789">
  <ele>1583.0</ele>
  <time>2026-08-28T17:49:17Z</time>
  <course>0.0</course>
  <speed>0.0</speed>
  <fix>3d</fix>
</trkpt>
<trkpt lat="40.0713751" lon="-105.2297889">
  <ele>1582.92</ele>
  <time>2026-08-28T17:49:17Z</time>
  <course>247.07</course>
  <speed>0.022360679774997897</speed>
  <fix>3d</fix>
</trkpt>
<trkpt lat="40.0713749" lon="-105.229789">
  <ele>1583.0</ele>
  <time>2026-08-28T17:49:17Z</time>
  <course>0.0</course>
  <speed>0.0</speed>
  <fix>3d</fix>
</trkpt>
<trkpt lat="40.071375" lon="-105.2297889">
  <ele>1582.93</ele>
  <time>2026-08-28T17:49:17Z</time>
  <course>247.07</course>
  <speed>0.022360679774997897</speed>
  <fix>3d</fix>
</trkpt>
<trkpt lat="40.0713749" lon="-105.229789">
  <ele>1583.0</ele>
  <time>2026-08-28T17:49:17Z</time>
  <course>0.0</course>
  <speed>0.0</speed>
  <fix>3d</fix>
</trkpt>
<trkpt lat="40.0713751" lon="-105.2297889">
  <ele>1582.94</ele>
  <time>2026-08-28T17:49:17Z</time>
  <course>247.07</course>
  <speed>0.022360679774997897</speed>
  <fix>3d</fix>
</trkpt>
<trkpt lat="40.0713749" lon="-105.229789">
  <ele>1583.0</ele>
  <time>2026-08-28T17:49:17Z</time>
  <course>0.0</course>
  <speed>0.0</speed>
  <fix>3d</fix>
</trkpt>
<trkpt lat="40.071375" lon="-105.2297889">
  <ele>1582.95</ele>
  <time>2026-08-28T17:49:17Z</time>
  <course>247.07</course>
  <speed>0.022360679774997897</speed>
  <fix>3d</fix>
</trkpt>
<trkpt lat="40.0713749" lon="-105.229789">
  <ele>1583.0</ele>
  <time>2026-08-28T17:49:17Z</time>
  <course>0.0</course>
  <speed>0.0</speed>
  <fix>3d</fix>
</trkpt>
<trkpt lat="40.0713751" lon="-105.2297889">
  <ele>1582.96</ele>
  <time>2026-08-28T17:49:17Z</time>
  <course>247.07</course>
  <speed>0.022360679774997897</speed>
  <fix>3d</fix>
</trkpt>
<trkpt lat="40.0713749" lon="-105.229789">
  <ele>1583.0</ele>
  <time>2026-08-28T17:49:17Z</time>
  <course>0.0</course>
  <speed>0.0</speed>
  <fix>3d</fix>
</trkpt>
<trkpt lat="40.071375" lon="-105.2297889">
  <ele>1582.96</ele>
  <time>2026-08-28T17:49:17Z</time>
  <course>247.07</course>
  <speed>0.022360679774997897</speed>
  <fix>3d</fix>
</trkpt>
<trkpt lat="40.0713749" lon="-105.229789">
  <ele>1583.0</ele>
  <time>2026-08-28T17:49:17Z</time>
  <course>0.0</course>
  <speed>0.0</speed>
  <fix>3d</fix>
</trkpt>
<trkpt lat="40.0713751" lon="-105.2297889">
  <ele>1582.97</ele>
  <time>2026-08-28T17:49:17Z</time>
  <course>247.07</course>
  <speed>0.022360679774997897</speed>
  <fix>3d</fix>
</trkpt>
<trkpt lat="40.0713749" lon="-105.229789">
  <ele>1583.0</ele>
  <time>2026-08-28T17:49:17Z</time>
  <course>0.0</course>
  <speed>0.0</speed>
  <fix>3d</fix>
</trkpt>
<trkpt lat="40.071375" lon="-105.2297889">
  <ele>1582.98</ele>
  <time>2026-08-28T17:49:17Z</time>
  <course>247.07</course>
  <speed>0.022360679774997897</speed>
  <fix>3d</fix>
</trkpt>
<trkpt lat="40.0713749" lon="-105.229789">
  <ele>1583.0</ele>
  <time>2026-08-28T17:49:17Z</time>
  <course>0.0</course>
  <speed>0.0</speed>
  <fix>3d</fix>
</trkpt>
<trkpt lat="40.0713751" lon="-105.2297889">
  <ele>1582.99</ele>
  <time>2026-08-28T17:49:17Z</time>
  <course>247.07</course>
  <speed>0.022360679774997897</speed>
  <fix>3d</fix>
</trkpt>
<trkpt lat="40.0713749" lon="-105.229789">
  <ele>1583.0</ele>
  <time>2026-08-28T17:49:17Z</time>
  <course>0.0</course>
  <speed>0.0</speed>
  <fix>3d</fix>
</trkpt>
<trkpt lat="40.071375" lon="-105.2297889">
  <ele>1583.0</ele>
  <time>2026-08-28T17:49:17Z</time>
  <course>247.07</course>
  <speed>0.022360679774997897</speed>
  <fix>3d</fix>
</trkpt>
<trkpt lat="40.0713749" lon="-105.229789">
  <ele>1583.0</ele>
  <time>2026-08-28T17:49:17Z</time>
  <course>0.0</course>
  <speed>0.0</speed>
  <fix>3d</fix>
</trkpt>
<trkpt lat="40.0713751" lon="-105.2297889">
  <ele>1583.01</ele>
  <time>2026-08-28T17:49:17Z</time>
  <course>247.07</course>
  <speed>0.022360679774997897</speed>
  <fix>3d</fix>
</trkpt>
<trkpt lat="40.0713749" lon="-105.229789">
  <ele>1583.0</ele>
  <time>2026-08-28T17:49:17Z</time>
  <course>0.0</course>
  <speed>0.0</speed>
  <fix>3d</fix>
</trkpt>
<trkpt lat="40.071375" lon="-105.2297889">
  <ele>1583.02</ele>
  <time>2026-08-28T17:49:17Z</time>
  <course>247.07</course>
  <speed>0.022360679774997897</speed>
  <fix>3d</fix>
</trkpt>
<trkpt lat="40.0713749" lon="-105.229789">
  <ele>1583.0</ele>
  <time>2026-08-28T17:49:17Z</time>
  <course>0.0</course>
  <speed>0.0</speed>
  <fix>3d</fix>
</trkpt>
<trkpt lat="40.0713751" lon="-105.2297889">
  <ele>1583.03</ele>
  <time>2026-08-28T17:49:17Z</time>
  <course>247.07</course>
  <speed>0.022360679774997897</speed>
  <fix>3d</fix>
</trkpt>
<trkpt lat="40.0713749" lon="-105.229789">
  <ele>1583.0</ele>
  <time>2026-08-28T17:49:17Z</time>
  <course>0.0</course>
  <speed>0.0</speed>
  <fix>3d</fix>
</trkpt>
<trkpt lat="40.071375" lon="-105.2297889">
  <ele>1583.04</ele>
  <time>2026-08-28T17:49:17Z</time>
  <course>247.07</course>
  <speed>0.022360679774997897</speed>
  <fix>3d</fix>
</trkpt>
<trkpt lat="40.0713749" lon="-105.229789">
  <ele>1583.0</ele>
  <time>2026-08-28T17:49:17Z</time>
  <course>0.0</course>
  <speed>0.0</speed>
  <fix>3d</fix>
</trkpt>
<trkpt lat="40.0713751" lon="-105.2297889">
  <ele>1583.05</ele>
  <time>2026-08-28T17:49:17Z</time>
  <course>247.07</course>
  <speed>0.022360679774997897</speed>
  <fix>3d</fix>
</trkpt>
<trkpt lat="40.0713749" lon="-105.229789">
  <ele>1583.0</ele>
  <time>2026-08-28T17:49:17Z</time>
  <course>0.0</course>
  <speed>0.0</speed>
  <fix>3d</fix>
</trkpt>
<trkpt lat="40.071375" lon="-105.2297889">
  <ele>1583.05</ele>
  <time>2026-08-28T17:49:17Z</time>
  <course>247.07</course>
  <speed>0.022360679774997897</speed>
  <fix>3d</fix>
</trkpt>
<trkpt lat="40.0713749" lon="-105.229789">
  <ele>1583.0</ele>
  <time>2026-08-28T17:49:17Z</time>
  <course>0.0</course>
  <speed>0.0</speed>
  <fix>3d</fix>
</trkpt>
<trkpt lat="40.0713751" lon="-105.2297889">
  <ele>1583.06</ele>
  <time>2026-08-28T17:49:17Z</time>
  <course>247.07</course>
  <speed>0.022360679774997897</speed>
  <fix>3d</fix>
</trkpt>
<trkpt lat="40.0713749" lon="-105.229789">
  <ele>1583.0</ele>
  <time>2026-08-28T17:49:17Z</time>
  <course>0.0</course>
  <speed>0.0</speed>
  <fix>3d</fix>
</trkpt>
<trkpt lat="40.071375" lon="-105.2297889">
  <ele>1583.06</ele>
  <time>2026-08-28T17:49:17Z</time>
  <course>247.07</course>
  <speed>0.022360679774997897</speed>
  <fix>3d</fix>
</trkpt>
<trkpt lat="40.0713749" lon="-105.229789">
  <ele>1583.0</ele>
  <time>2026-08-28T17:49:17Z</time>
  <course>0.0</course>
  <speed>0.0</speed>
  <fix>3d</fix>
</trkpt>
<trkpt lat="40.0713751" lon="-105.2297889">
  <ele>1583.06</ele>
  <time>2026-08-28T17:49:17Z</time>
  <course>247.07</course>
  <speed>0.022360679774997897</speed>
  <fix>3d</fix>
</trkpt>
<trkpt lat="40.0713749" lon="-105.229789">
  <ele>1583.0</ele>
  <time>2026-08-28T17:49:17Z</time>
  <course>0.0</course>
  <speed>0.0</speed>
  <fix>3d</fix>
</trkpt>
<trkpt lat="40.071375" lon="-105.2297889">
  <ele>1583.06</ele>
  <time>2026-08-28T17:49:17Z</time>
  <course>247.07</course>
  <speed>0.022360679774997897</speed>
  <fix>3d</fix>
</trkpt>
<trkpt lat="40.0713749" lon="-105.229789">
  <ele>1583.0</ele>
  <time>2026-08-28T17:49:17Z</time>
  <course>0.0</course>
  <speed>0.0</speed>
  <fix>3d</fix>
</trkpt>
<trkpt lat="40.0713751" lon="-105.2297889">
  <ele>1583.06</ele>
  <time>2026-08-28T17:49:17Z</time>
  <course>247.07</course>
  <speed>0.022360679774997897</speed>
  <fix>3d</fix>
</trkpt>
<trkpt lat="40.0713749" lon="-105.229789">
  <ele>1583.0</ele>
  <time>2026-08-28T17:49:17Z</time>
  <course>0.0</course>
  <speed>0.0</speed>
  <fix>3d</fix>
</trkpt>
<trkpt lat="40.071375" lon="-105.2297889">
  <ele>1583.06</ele>
  <time>2026-08-28T17:49:17Z</time>
  <course>247.07</course>
  <speed>0.022360679774997897</speed>
  <fix>3d</fix>
</trkpt>
<trkpt lat="40.0713749" lon="-105.229789">
  <ele>1583.0</ele>
  <time>2026-08-28T17:49:17Z</time>
  <course>0.0</course>
  <speed>0.0</speed>
  <fix>3d</fix>
</trkpt>
<trkpt lat="40.0713751" lon="-105.2297889">
  <ele>1583.06</ele>
  <time>2026-08-28T17:49:17Z</time>
  <course>247.07</course>
  <speed>0.022360679774997897</speed>
  <fix>3d</fix>
</trkpt>
<trkpt lat="40.0713749" lon="-105.229789">
  <ele>1583.0</ele>
  <time>2026-08-28T17:49:17Z</time>
  <course>0.0</course>
  <speed>0.0</speed>
  <fix>3d</fix>
</trkpt>
<trkpt lat="40.071375" lon="-105.2297889">
  <ele>1583.06</ele>
  <time>2026-08-28T17:49:17Z</time>
  <course>247.07</course>
  <speed>0.022360679774997897</speed>
  <fix>3d</fix>
</trkpt>
<trkpt lat="40.0713749" lon="-105.229789">
  <ele>1583.0</ele>
  <time>2026-08-28T17:49:17Z</time>
  <course>0.0</course>
  <speed>0.0</speed>
  <fix>3d</fix>
</trkpt>
<trkpt lat="40.0713751" lon="-105.2297889">
  <ele>1583.06</ele>
  <time>2026-08-28T17:49:17Z</time>
  <course>247.07</course>
  <speed>0.022360679774997897</speed>
  <fix>3d</fix>
</trkpt>
<trkpt lat="40.0713749" lon="-105.229789">
  <ele>1583.0</ele>
  <time>2026-08-28T17:49:17Z</time>
  <course>0.0</course>
  <speed>0.0</speed>
  <fix>3d</fix>
</trkpt>
<trkpt lat="40.071375" lon="-105.2297889">
  <ele>1583.06</ele>
  <time>2026-08-28T17:49:17Z</time>
  <course>247.07</course>
  <speed>0.022360679774997897</speed>
  <fix>3d</fix>
</trkpt>
<trkpt lat="40.0713749" lon="-105.229789">
  <ele>1583.0</ele>
  <time>2026-08-28T17:49:17Z</time>
  <course>0.0</course>
  <speed>0.0</speed>
  <fix>3d</fix>
</trkpt>
<trkpt lat="40.0713751" lon="-105.2297889">
  <ele>1583.06</ele>
  <time>2026-08-28T17:49:17Z</time>
  <course>247.07</course>
  <speed>0.022360679774997897</speed>
  <fix>3d</fix>
</trkpt>
<trkpt lat="40.0713749" lon="-105.229789">
  <ele>1583.0</ele>
  <time>2026-08-28T17:49:17Z</time>
  <course>0.0</course>
  <speed>0.0</speed>
  <fix>3d</fix>
</trkpt>
<trkpt lat="40.0713751" lon="-105.2297889">
  <ele>1583.07</ele>
  <time>2026-08-28T17:49:17Z</time>
  <course>247.07</course>
  <speed>0.022360679774997897</speed>
  <fix>3d</fix>
</trkpt>
<trkpt lat="40.0713749" lon="-105.229789">
  <ele>1583.0</ele>
  <time>2026-08-28T17:49:17Z</time>
  <course>0.0</course>
  <speed>0.0</speed>
  <fix>3d</fix>
</trkpt>
<trkpt lat="40.0713751" lon="-105.2297889">
  <ele>1583.07</ele>
  <time>2026-08-28T17:49:17Z</time>
  <course>247.07</course>
  <speed>0.022360679774997897</speed>
  <fix>3d</fix>
</trkpt>
<trkpt lat="40.0713749" lon="-105.229789">
  <ele>1583.0</ele>
  <time>2026-08-28T17:49:17Z</time>
  <course>0.0</course>
  <speed>0.0</speed>
  <fix>3d</fix>
</trkpt>
<trkpt lat="40.0713751" lon="-105.2297889">
  <ele>1583.07</ele>
  <time>2026-08-28T17:49:17Z</time>
  <course>247.07</course>
  <speed>0.022360679774997897</speed>
  <fix>3d</fix>
</trkpt>
<trkpt lat="40.0713749" lon="-105.229789">
  <ele>1583.0</ele>
  <time>2026-08-28T17:49:17Z</time>
  <course>0.0</course>
  <speed>0.0</speed>
  <fix>3d</fix>
</trkpt>
<trkpt lat="40.0713751" lon="-105.2297889">
  <ele>1583.07</ele>
  <time>2026-08-28T17:49:17Z</time>
  <course>247.07</course>
  <speed>0.022360679774997897</speed>
  <fix>3d</fix>
</trkpt>
<trkpt lat="40.0713749" lon="-105.229789">
  <ele>1583.0</ele>
  <time>2026-08-28T17:49:17Z</time>
  <course>0.0</course>
  <speed>0.0</speed>
  <fix>3d</fix>
</trkpt>
<trkpt lat="40.071375" lon="-105.2297889">
  <ele>1583.07</ele>
  <time>2026-08-28T17:49:17Z</time>
  <course>247.07</course>
  <speed>0.022360679774997897</speed>
  <fix>3d</fix>
</trkpt>
<trkpt lat="40.0713749" lon="-105.229789">
  <ele>1583.0</ele>
  <time>2026-08-28T17:49:17Z</time>
  <course>0.0</course>
  <speed>0.0</speed>
  <fix>3d</fix>
</trkpt>
<trkpt lat="40.0713751" lon="-105.2297889">
  <ele>1583.07</ele>
  <time>2026-08-28T17:49:17Z</time>
  <course>247.07</course>
  <speed>0.022360679774997897</speed>
  <fix>3d</fix>
</trkpt>
<trkpt lat="40.0713749" lon="-105.229789">
  <ele>1583.0</ele>
  <time>2026-08-28T17:49:17Z</time>
  <course>0.0</course>
  <speed>0.0</speed>
  <fix>3d</fix>
</trkpt>
<trkpt lat="40.071375" lon="-105.2297889">
  <ele>1583.07</ele>
  <time>2026-08-28T17:49:17Z</time>
  <course>247.07</course>
  <speed>0.022360679774997897</speed>
  <fix>3d</fix>
</trkpt>
<trkpt lat="40.0713749" lon="-105.229789">
  <ele>1583.0</ele>
  <time>2026-08-28T17:49:17Z</time>
  <course>0.0</course>
  <speed>0.0</speed>
  <fix>3d</fix>
</trkpt>
<trkpt lat="40.0713751" lon="-105.2297889">
  <ele>1583.07</ele>
  <time>2026-08-28T17:49:17Z</time>
  <course>247.07</course>
  <speed>0.022360679774997897</speed>
  <fix>3d</fix>
</trkpt>
<trkpt lat="40.0713749" lon="-105.229789">
  <ele>1583.0</ele>
  <time>2026-08-28T17:49:17Z</time>
  <course>0.0</course>
  <speed>0.0</speed>
  <fix>3d</fix>
</trkpt>
<trkpt lat="40.071375" lon="-105.2297889">
  <ele>1583.07</ele>
  <time>2026-08-28T17:49:17Z</time>
  <course>247.07</course>
  <speed>0.022360679774997897</speed>
  <fix>3d</fix>
</trkpt>
<trkpt lat="40.0713749" lon="-105.229789">
  <ele>1583.0</ele>
  <time>2026-08-28T17:49:17Z</time>
  <course>0.0</course>
  <speed>0.0</speed>
  <fix>3d</fix>
</trkpt>
<trkpt lat="40.0713751" lon="-105.2297889">
  <ele>1583.07</ele>
  <time>2026-08-28T17:49:17Z</time>
  <course>247.07</course>
  <speed>0.022360679774997897</speed>
  <fix>3d</fix>
</trkpt>
<trkpt lat="40.0713749" lon="-105.229789">
  <ele>1583.0</ele>
  <time>2026-08-28T17:49:17Z</time>
  <course>0.0</course>
  <speed>0.0</speed>
  <fix>3d</fix>
</trkpt>
<trkpt lat="40.071375" lon="-105.2297889">
  <ele>1583.07</ele>
  <time>2026-08-28T17:49:17Z</time>
  <course>247.07</course>
  <speed>0.022360679774997897</speed>
  <fix>3d</fix>
</trkpt>
<trkpt lat="40.0713749" lon="-105.229789">
  <ele>1583.0</ele>
  <time>2026-08-28T17:49:17Z</time>
  <course>0.0</course>
  <speed>0.0</speed>
  <fix>3d</fix>
</trkpt>
<trkpt lat="40.0713751" lon="-105.2297889">
  <ele>1583.07</ele>
  <time>2026-08-28T17:49:17Z</time>
  <course>247.07</course>
  <speed>0.022360679774997897</speed>
  <fix>3d</fix>
</trkpt>
<trkpt lat="40.0713749" lon="-105.229789">
  <ele>1583.0</ele>
  <time>2026-08-28T17:49:17Z</time>
  <course>0.0</course>
  <speed>0.0</speed>
  <fix>3d</fix>
</trkpt>
<trkpt lat="40.071375" lon="-105.2297889">
  <ele>1583.06</ele>
  <time>2026-08-28T17:49:17Z</time>
  <course>247.07</course>
  <speed>0.022360679774997897</speed>
  <fix>3d</fix>
</trkpt>
<trkpt lat="40.0713749" lon="-105.229789">
  <ele>1583.0</ele>
  <time>2026-08-28T17:49:17Z</time>
  <course>0.0</course>
  <speed>0.0</speed>
  <fix>3d</fix>
</trkpt>
<trkpt lat="40.0713751" lon="-105.2297889">
  <ele>1583.06</ele>
  <time>2026-08-28T17:49:17Z</time>
  <course>247.07</course>
  <speed>0.022360679774997897</speed>
  <fix>3d</fix>
</trkpt>
<trkpt lat="40.0713749" lon="-105.229789">
  <ele>1583.0</ele>
  <time>2026-08-28T17:49:17Z</time>
  <course>0.0</course>
  <speed>0.0</speed>
  <fix>3d</fix>
</trkpt>
<trkpt lat="40.071375" lon="-105.2297889">
  <ele>1583.07</ele>
  <time>2026-08-28T17:49:17Z</time>
  <course>247.07</course>
  <speed>0.022360679774997897</speed>
  <fix>3d</fix>
</trkpt>
<trkpt lat="40.0713749" lon="-105.229789">
  <ele>1583.0</ele>
  <time>2026-08-28T17:49:17Z</time>
  <course>0.0</course>
  <speed>0.0</speed>
  <fix>3d</fix>
</trkpt>
<trkpt lat="40.0713751" lon="-105.2297889">
  <ele>1583.07</ele>
  <time>2026-08-28T17:49:17Z</time>
  <course>247.07</course>
  <speed>0.022360679774997897</speed>
  <fix>3d</fix>
</trkpt>
<trkpt lat="40.0713749" lon="-105.229789">
  <ele>1583.0</ele>
  <time>2026-08-28T17:49:17Z</time>
  <course>0.0</course>
  <speed>0.0</speed>
  <fix>3d</fix>
</trkpt>
<trkpt lat="40.071375" lon="-105.2297889">
  <ele>1583.08</ele>
  <time>2026-08-28T17:49:17Z</time>
  <course>247.07</course>
  <speed>0.02</speed>
  <fix>3d</fix>
</trkpt>
<trkpt lat="40.0713749" lon="-105.229789">
  <ele>1583.0</ele>
  <time>2026-08-28T17:49:17Z</time>
  <course>0.0</course>
  <speed>0.0</speed>
  <fix>3d</fix>
</trkpt>
<trkpt lat="40.0713751" lon="-105.2297889">
  <ele>1583.09</ele>
  <time>2026-08-28T17:49:17Z</time>
  <course>247.07</course>
  <speed>0.022360679774997897</speed>
  <fix>3d</fix>
</trkpt>
<trkpt lat="40.0713749" lon="-105.229789">
  <ele>1583.0</ele>
  <time>2026-08-28T17:49:17Z</time>
  <course>0.0</course>
  <speed>0.0</speed>
  <fix>3d</fix>
</trkpt>
<trkpt lat="40.0713751" lon="-105.2297889">
  <ele>1583.09</ele>
  <time>2026-08-28T17:49:17Z</time>
  <course>247.07</course>
  <speed>0.022360679774997897</speed>
  <fix>3d</fix>
</trkpt>
<trkpt lat="40.0713749" lon="-105.229789">
  <ele>1583.0</ele>
  <time>2026-08-28T17:49:17Z</time>
  <course>0.0</course>
  <speed>0.0</speed>
  <fix>3d</fix>
</trkpt>
<trkpt lat="40.0713751" lon="-105.2297889">
  <ele>1583.1</ele>
  <time>2026-08-28T17:49:17Z</time>
  <course>247.07</course>
  <speed>0.022360679774997897</speed>
  <fix>3d</fix>
</trkpt>
<trkpt lat="40.0713749" lon="-105.229789">
  <ele>1583.0</ele>
  <time>2026-08-28T17:49:17Z</time>
  <course>0.0</course>
  <speed>0.0</speed>
  <fix>3d</fix>
</trkpt>
<trkpt lat="40.0713751" lon="-105.2297889">
  <ele>1583.11</ele>
  <time>2026-08-28T17:49:17Z</time>
  <course>247.07</course>
  <speed>0.022360679774997897</speed>
  <fix>3d</fix>
</trkpt>
<trkpt lat="40.0713749" lon="-105.229789">
  <ele>1583.0</ele>
  <time>2026-08-28T17:49:17Z</time>
  <course>0.0</course>
  <speed>0.0</speed>
  <fix>3d</fix>
</trkpt>
<trkpt lat="40.0713751" lon="-105.2297889">
  <ele>1583.11</ele>
  <time>2026-08-28T17:49:17Z</time>
  <course>247.07</course>
  <speed>0.022360679774997897</speed>
  <fix>3d</fix>
</trkpt>
<trkpt lat="40.0713749" lon="-105.229789">
  <ele>1583.0</ele>
  <time>2026-08-28T17:49:17Z</time>
  <course>0.0</course>
  <speed>0.0</speed>
  <fix>3d</fix>
</trkpt>
<trkpt lat="40.0713751" lon="-105.2297889">
  <ele>1583.12</ele>
  <time>2026-08-28T17:49:17Z</time>
  <course>247.07</course>
  <speed>0.022360679774997897</speed>
  <fix>3d</fix>
</trkpt>
<trkpt lat="40.0713749" lon="-105.229789">
  <ele>1583.0</ele>
  <time>2026-08-28T17:49:17Z</time>
  <course>0.0</course>
  <speed>0.0</speed>
  <fix>3d</fix>
</trkpt>
<trkpt lat="40.0713751" lon="-105.2297889">
  <ele>1583.12</ele>
  <time>2026-08-28T17:49:17Z</time>
  <course>247.07</course>
  <speed>0.022360679774997897</speed>
  <fix>3d</fix>
</trkpt>
<trkpt lat="40.0713749" lon="-105.229789">
  <ele>1583.0</ele>
  <time>2026-08-28T17:49:17Z</time>
  <course>0.0</course>
  <speed>0.0</speed>
  <fix>3d</fix>
</trkpt>
<trkpt lat="40.0713751" lon="-105.2297889">
  <ele>1583.12</ele>
  <time>2026-08-28T17:49:17Z</time>
  <course>247.07</course>
  <speed>0.022360679774997897</speed>
  <fix>3d</fix>
</trkpt>
<trkpt lat="40.0713749" lon="-105.229789">
  <ele>1583.0</ele>
  <time>2026-08-28T17:49:17Z</time>
  <course>0.0</course>
  <speed>0.0</speed>
  <fix>3d</fix>
</trkpt>
<trkpt lat="40.0713751" lon="-105.2297889">
  <ele>1583.12</ele>
  <time>2026-08-28T17:49:17Z</time>
  <course>247.07</course>
  <speed>0.022360679774997897</speed>
  <fix>3d</fix>
</trkpt>
<trkpt lat="40.0713749" lon="-105.229789">
  <ele>1583.0</ele>
  <time>2026-08-28T17:49:17Z</time>
  <course>0.0</course>
  <speed>0.0</speed>
  <fix>3d</fix>
</trkpt>
<trkpt lat="40.071375" lon="-105.2297889">
  <ele>1583.11</ele>
  <time>2026-08-28T17:49:17Z</time>
  <course>247.07</course>
  <speed>0.02</speed>
  <fix>3d</fix>
</trkpt>
<trkpt lat="40.0713749" lon="-105.229789">
  <ele>1583.0</ele>
  <time>2026-08-28T17:49:17Z</time>
  <course>0.0</course>
  <speed>0.0</speed>
  <fix>3d</fix>
</trkpt>
<trkpt lat="40.0713751" lon="-105.2297889">
  <ele>1583.11</ele>
  <time>2026-08-28T17:49:17Z</time>
  <course>247.07</course>
  <speed>0.022360679774997897</speed>
  <fix>3d</fix>
</trkpt>
<trkpt lat="40.0713749" lon="-105.229789">
  <ele>1583.0</ele>
  <time>2026-08-28T17:49:17Z</time>
  <course>0.0</course>
  <speed>0.0</speed>
  <fix>3d</fix>
</trkpt>
<trkpt lat="40.071375" lon="-105.2297889">
  <ele>1583.1</ele>
  <time>2026-08-28T17:49:17Z</time>
  <course>247.07</course>
  <speed>0.02</speed>
  <fix>3d</fix>
</trkpt>
<trkpt lat="40.0713749" lon="-105.229789">
  <ele>1583.0</ele>
  <time>2026-08-28T17:49:17Z</time>
  <course>0.0</course>
  <speed>0.0</speed>
  <fix>3d</fix>
</trkpt>
<trkpt lat="40.0713751" lon="-105.2297889">
  <ele>1583.1</ele>
  <time>2026-08-28T17:49:17Z</time>
  <course>247.07</course>
  <speed>0.022360679774997897</speed>
  <fix>3d</fix>
</trkpt>
<trkpt lat="40.0713749" lon="-105.229789">
  <ele>1583.0</ele>
  <time>2026-08-28T17:49:17Z</time>
  <course>0.0</course>
  <speed>0.0</speed>
  <fix>3d</fix>
</trkpt>
<trkpt lat="40.071375" lon="-105.2297889">
  <ele>1583.09</ele>
  <time>2026-08-28T17:49:17Z</time>
  <course>247.07</course>
  <speed>0.02</speed>
  <fix>3d</fix>
</trkpt>
<trkpt lat="40.0713749" lon="-105.229789">
  <ele>1583.0</ele>
  <time>2026-08-28T17:49:17Z</time>
  <course>0.0</course>
  <speed>0.0</speed>
  <fix>3d</fix>
</trkpt>
<trkpt lat="40.0713751" lon="-105.2297889">
  <ele>1583.09</ele>
  <time>2026-08-28T17:49:17Z</time>
  <course>247.07</course>
  <speed>0.022360679774997897</speed>
  <fix>3d</fix>
</trkpt>
<trkpt lat="40.0713749" lon="-105.229789">
  <ele>1583.0</ele>
  <time>2026-08-28T17:49:17Z</time>
  <course>0.0</course>
  <speed>0.0</speed>
  <fix>3d</fix>
</trkpt>
<trkpt lat="40.071375" lon="-105.2297889">
  <ele>1583.08</ele>
  <time>2026-08-28T17:49:17Z</time>
  <course>247.07</course>
  <speed>0.02</speed>
  <fix>3d</fix>
</trkpt>
<trkpt lat="40.0713749" lon="-105.229789">
  <ele>1583.0</ele>
  <time>2026-08-28T17:49:17Z</time>
  <course>0.0</course>
  <speed>0.0</speed>
  <fix>3d</fix>
</trkpt>
<trkpt lat="40.0713751" lon="-105.2297889">
  <ele>1583.07</ele>
  <time>2026-08-28T17:49:17Z</time>
  <course>247.07</course>
  <speed>0.022360679774997897</speed>
  <fix>3d</fix>
</trkpt>
<trkpt lat="40.0713749" lon="-105.229789">
  <ele>1583.0</ele>
  <time>2026-08-28T17:49:17Z</time>
  <course>0.0</course>
  <speed>0.0</speed>
  <fix>3d</fix>
</trkpt>
<trkpt lat="40.071375" lon="-105.2297889">
  <ele>1583.07</ele>
  <time>2026-08-28T17:49:17Z</time>
  <course>247.07</course>
  <speed>0.022360679774997897</speed>
  <fix>3d</fix>
</trkpt>
<trkpt lat="40.0713749" lon="-105.229789">
  <ele>1583.0</ele>
  <time>2026-08-28T17:49:17Z</time>
  <course>0.0</course>
  <speed>0.0</speed>
  <fix>3d</fix>
</trkpt>
<trkpt lat="40.0713751" lon="-105.2297889">
  <ele>1583.06</ele>
  <time>2026-08-28T17:49:17Z</time>
  <course>247.07</course>
  <speed>0.022360679774997897</speed>
  <fix>3d</fix>
</trkpt>
<trkpt lat="40.0713749" lon="-105.229789">
  <ele>1583.0</ele>
  <time>2026-08-28T17:49:17Z</time>
  <course>0.0</course>
  <speed>0.0</speed>
  <fix>3d</fix>
</trkpt>
<trkpt lat="40.071375" lon="-105.2297889">
  <ele>1583.05</ele>
  <time>2026-08-28T17:49:17Z</time>
  <course>247.07</course>
  <speed>0.022360679774997897</speed>
  <fix>3d</fix>
</trkpt>
<trkpt lat="40.0713749" lon="-105.229789">
  <ele>1583.0</ele>
  <time>2026-08-28T17:49:17Z</time>
  <course>0.0</course>
  <speed>0.0</speed>
  <fix>3d</fix>
</trkpt>
<trkpt lat="40.0713751" lon="-105.2297889">
  <ele>1583.04</ele>
  <time>2026-08-28T17:49:17Z</time>
  <course>247.07</course>
  <speed>0.022360679774997897</speed>
  <fix>3d</fix>
</trkpt>
<trkpt lat="40.0713749" lon="-105.229789">
  <ele>1583.0</ele>
  <time>2026-08-28T17:49:17Z</time>
  <course>0.0</course>
  <speed>0.0</speed>
  <fix>3d</fix>
</trkpt>
<trkpt lat="40.071375" lon="-105.2297889">
  <ele>1583.03</ele>
  <time>2026-08-28T17:49:17Z</time>
  <course>247.07</course>
  <speed>0.022360679774997897</speed>
  <fix>3d</fix>
</trkpt>
<trkpt lat="40.0713749" lon="-105.229789">
  <ele>1583.0</ele>
  <time>2026-08-28T17:49:17Z</time>
  <course>0.0</course>
  <speed>0.0</speed>
  <fix>3d</fix>
</trkpt>
<trkpt lat="40.0713751" lon="-105.2297889">
  <ele>1583.02</ele>
  <time>2026-08-28T17:49:17Z</time>
  <course>247.07</course>
  <speed>0.022360679774997897</speed>
  <fix>3d</fix>
</trkpt>
<trkpt lat="40.0713749" lon="-105.229789">
  <ele>1583.0</ele>
  <time>2026-08-28T17:49:17Z</time>
  <course>0.0</course>
  <speed>0.0</speed>
  <fix>3d</fix>
</trkpt>
<trkpt lat="40.0713751" lon="-105.2297889">
  <ele>1583.01</ele>
  <time>2026-08-28T17:49:17Z</time>
  <course>247.07</course>
  <speed>0.022360679774997897</speed>
  <fix>3d</fix>
</trkpt>
<trkpt lat="40.0713749" lon="-105.229789">
  <ele>1583.0</ele>
  <time>2026-08-28T17:49:17Z</time>
  <course>0.0</course>
  <speed>0.0</speed>
  <fix>3d</fix>
</trkpt>
<trkpt lat="40.0713751" lon="-105.2297889">
  <ele>1583.0</ele>
  <time>2026-08-28T17:49:17Z</time>
  <course>247.07</course>
  <speed>0.022360679774997897</speed>
  <fix>3d</fix>
</trkpt>
<trkpt lat="40.0713749" lon="-105.229789">
  <ele>1583.0</ele>
  <time>2026-08-28T17:49:17Z</time>
  <course>0.0</course>
  <speed>0.0</speed>
  <fix>3d</fix>
</trkpt>
<trkpt lat="40.0713751" lon="-105.2297889">
  <ele>1582.99</ele>
  <time>2026-08-28T17:49:17Z</time>
  <course>247.07</course>
  <speed>0.022360679774997897</speed>
  <fix>3d</fix>
</trkpt>
<trkpt lat="40.0713749" lon="-105.229789">
  <ele>1583.0</ele>
  <time>2026-08-28T17:49:17Z</time>
  <course>0.0</course>
  <speed>0.0</speed>
  <fix>3d</fix>
</trkpt>
<trkpt lat="40.0713751" lon="-105.2297889">
  <ele>1582.99</ele>
  <time>2026-08-28T17:49:17Z</time>
  <course>247.07</course>
  <speed>0.022360679774997897</speed>
  <fix>3d</fix>
</trkpt>
<trkpt lat="40.0713749" lon="-105.229789">
  <ele>1583.0</ele>
  <time>2026-08-28T17:49:17Z</time>
  <course>0.0</course>
  <speed>0.0</speed>
  <fix>3d</fix>
</trkpt>
<trkpt lat="40.0713751" lon="-105.2297889">
  <ele>1582.98</ele>
  <time>2026-08-28T17:49:17Z</time>
  <course>247.07</course>
  <speed>0.022360679774997897</speed>
  <fix>3d</fix>
</trkpt>
<trkpt lat="40.0713749" lon="-105.229789">
  <ele>1583.0</ele>
  <time>2026-08-28T17:49:17Z</time>
  <course>0.0</course>
  <speed>0.0</speed>
  <fix>3d</fix>
</trkpt>
<trkpt lat="40.0713751" lon="-105.2297889">
  <ele>1582.97</ele>
  <time>2026-08-28T17:49:17Z</time>
  <course>247.07</course>
  <speed>0.022360679774997897</speed>
  <fix>3d</fix>
</trkpt>
<trkpt lat="40.0713749" lon="-105.229789">
  <ele>1583.0</ele>
  <time>2026-08-28T17:49:17Z</time>
  <course>0.0</course>
  <speed>0.0</speed>
  <fix>3d</fix>
</trkpt>
<trkpt lat="40.071375" lon="-105.2297889">
  <ele>1582.96</ele>
  <time>2026-08-28T17:49:17Z</time>
  <course>247.07</course>
  <speed>0.022360679774997897</speed>
  <fix>3d</fix>
</trkpt>
<trkpt lat="40.0713749" lon="-105.229789">
  <ele>1583.0</ele>
  <time>2026-08-28T17:49:17Z</time>
  <course>0.0</course>
  <speed>0.0</speed>
  <fix>3d</fix>
</trkpt>
<trkpt lat="40.0713751" lon="-105.2297889">
  <ele>1582.95</ele>
  <time>2026-08-28T17:49:17Z</time>
  <course>247.07</course>
  <speed>0.022360679774997897</speed>
  <fix>3d</fix>
</trkpt>
<trkpt lat="40.0713749" lon="-105.229789">
  <ele>1583.0</ele>
  <time>2026-08-28T17:49:17Z</time>
  <course>0.0</course>
  <speed>0.0</speed>
  <fix>3d</fix>
</trkpt>
<trkpt lat="40.071375" lon="-105.2297889">
  <ele>1582.94</ele>
  <time>2026-08-28T17:49:17Z</time>
  <course>247.07</course>
  <speed>0.022360679774997897</speed>
  <fix>3d</fix>
</trkpt>
<trkpt lat="40.0713749" lon="-105.229789">
  <ele>1583.0</ele>
  <time>2026-08-28T17:49:17Z</time>
  <course>0.0</course>
  <speed>0.0</speed>
  <fix>3d</fix>
</trkpt>
<trkpt lat="40.0713751" lon="-105.2297889">
  <ele>1582.93</ele>
  <time>2026-08-28T17:49:17Z</time>
  <course>247.06</course>
  <speed>0.022360679774997897</speed>
  <fix>3d</fix>
</trkpt>
<trkpt lat="40.0713749" lon="-105.229789">
  <ele>1583.0</ele>
  <time>2026-08-28T17:49:17Z</time>
  <course>0.0</course>
  <speed>0.0</speed>
  <fix>3d</fix>
</trkpt>
<trkpt lat="40.071375" lon="-105.2297889">
  <ele>1582.93</ele>
  <time>2026-08-28T17:49:17Z</time>
  <course>247.06</course>
  <speed>0.022360679774997897</speed>
  <fix>3d</fix>
</trkpt>
<trkpt lat="40.0713749" lon="-105.229789">
  <ele>1583.0</ele>
  <time>2026-08-28T17:49:17Z</time>
  <course>0.0</course>
  <speed>0.0</speed>
  <fix>3d</fix>
</trkpt>
<trkpt lat="40.0713751" lon="-105.2297889">
  <ele>1582.92</ele>
  <time>2026-08-28T17:49:17Z</time>
  <course>247.06</course>
  <speed>0.022360679774997897</speed>
  <fix>3d</fix>
</trkpt>
<trkpt lat="40.0713749" lon="-105.229789">
  <ele>1583.0</ele>
  <time>2026-08-28T17:49:17Z</time>
  <course>0.0</course>
  <speed>0.0</speed>
  <fix>3d</fix>
</trkpt>
<trkpt lat="40.071375" lon="-105.2297889">
  <ele>1582.92</ele>
  <time>2026-08-28T17:49:17Z</time>
  <course>247.06</course>
  <speed>0.022360679774997897</speed>
  <fix>3d</fix>
</trkpt>
<trkpt lat="40.0713749" lon="-105.229789">
  <ele>1583.0</ele>
  <time>2026-08-28T17:49:17Z</time>
  <course>0.0</course>
  <speed>0.0</speed>
  <fix>3d</fix>
</trkpt>
<trkpt lat="40.0713751" lon="-105.2297889">
  <ele>1582.92</ele>
  <time>2026-08-28T17:49:17Z</time>
  <course>247.06</course>
  <speed>0.022360679774997897</speed>
  <fix>3d</fix>
</trkpt>
<trkpt lat="40.0713749" lon="-105.229789">
  <ele>1583.0</ele>
  <time>2026-08-28T17:49:17Z</time>
  <course>0.0</course>
  <speed>0.0</speed>
  <fix>3d</fix>
</trkpt>
<trkpt lat="40.071375" lon="-105.2297889">
  <ele>1582.92</ele>
  <time>2026-08-28T17:49:17Z</time>
  <course>247.06</course>
  <speed>0.022360679774997897</speed>
  <fix>3d</fix>
</trkpt>
<trkpt lat="40.0713749" lon="-105.229789">
  <ele>1583.0</ele>
  <time>2026-08-28T17:49:17Z</time>
  <course>0.0</course>
  <speed>0.0</speed>
  <fix>3d</fix>
</trkpt>
<trkpt lat="40.0713751" lon="-105.2297889">
  <ele>1582.92</ele>
  <time>2026-08-28T17:49:17Z</time>
  <course>247.06</course>
  <speed>0.022360679774997897</speed>
  <fix>3d</fix>
</trkpt>
<trkpt lat="40.0713749" lon="-105.229789">
  <ele>1583.0</ele>
  <time>2026-08-28T17:49:17Z</time>
  <course>0.0</course>
  <speed>0.0</speed>
  <fix>3d</fix>
</trkpt>
<trkpt lat="40.071375" lon="-105.2297889">
  <ele>1582.93</ele>
  <time>2026-08-28T17:49:17Z</time>
  <course>247.06</course>
  <speed>0.022360679774997897</speed>
  <fix>3d</fix>
</trkpt>
<trkpt lat="40.0713749" lon="-105.229789">
  <ele>1583.0</ele>
  <time>2026-08-28T17:49:17Z</time>
  <course>0.0</course>
  <speed>0.0</speed>
  <fix>3d</fix>
</trkpt>
<trkpt lat="40.0713751" lon="-105.2297889">
  <ele>1582.94</ele>
  <time>2026-08-28T17:49:17Z</time>
  <course>247.06</course>
  <speed>0.022360679774997897</speed>
  <fix>3d</fix>
</trkpt>
<trkpt lat="40.0713749" lon="-105.229789">
  <ele>1583.0</ele>
  <time>2026-08-28T17:49:17Z</time>
  <course>0.0</course>
  <speed>0.0</speed>
  <fix>3d</fix>
</trkpt>
<trkpt lat="40.071375" lon="-105.2297889">
  <ele>1582.94</ele>
  <time>2026-08-28T17:49:17Z</time>
  <course>247.06</course>
  <speed>0.022360679774997897</speed>
  <fix>3d</fix>
</trkpt>
<trkpt lat="40.0713749" lon="-105.229789">
  <ele>1583.0</ele>
  <time>2026-08-28T17:49:17Z</time>
  <course>0.0</course>
  <speed>0.0</speed>
  <fix>3d</fix>
</trkpt>
<trkpt lat="40.0713751" lon="-105.2297889">
  <ele>1582.95</ele>
  <time>2026-08-28T17:49:17Z</time>
  <course>247.06</course>
  <speed>0.022360679774997897</speed>
  <fix>3d</fix>
</trkpt>
<trkpt lat="40.0713749" lon="-105.229789">
  <ele>1583.0</ele>
  <time>2026-08-28T17:49:17Z</time>
  <course>0.0</course>
  <speed>0.0</speed>
  <fix>3d</fix>
</trkpt>
<trkpt lat="40.071375" lon="-105.2297889">
  <ele>1582.96</ele>
  <time>2026-08-28T17:49:17Z</time>
  <course>247.06</course>
  <speed>0.022360679774997897</speed>
  <fix>3d</fix>
</trkpt>
<trkpt lat="40.0713749" lon="-105.229789">
  <ele>1583.0</ele>
  <time>2026-08-28T17:49:17Z</time>
  <course>0.0</course>
  <speed>0.0</speed>
  <fix>3d</fix>
</trkpt>
<trkpt lat="40.0713751" lon="-105.2297889">
  <ele>1582.97</ele>
  <time>2026-08-28T17:49:17Z</time>
  <course>247.06</course>
  <speed>0.022360679774997897</speed>
  <fix>3d</fix>
</trkpt>
<trkpt lat="40.0713749" lon="-105.229789">
  <ele>1583.0</ele>
  <time>2026-08-28T17:49:17Z</time>
  <course>0.0</course>
  <speed>0.0</speed>
  <fix>3d</fix>
</trkpt>
<trkpt lat="40.0713751" lon="-105.2297889">
  <ele>1582.98</ele>
  <time>2026-08-28T17:49:17Z</time>
  <course>247.06</course>
  <speed>0.022360679774997897</speed>
  <fix>3d</fix>
</trkpt>
<trkpt lat="40.0713749" lon="-105.229789">
  <ele>1583.0</ele>
  <time>2026-08-28T17:49:17Z</time>
  <course>0.0</course>
  <speed>0.0</speed>
  <fix>3d</fix>
</trkpt>
<trkpt lat="40.0713751" lon="-105.2297889">
  <ele>1582.99</ele>
  <time>2026-08-28T17:49:17Z</time>
  <course>247.06</course>
  <speed>0.022360679774997897</speed>
  <fix>3d</fix>
</trkpt>
<trkpt lat="40.0713749" lon="-105.229789">
  <ele>1583.0</ele>
  <time>2026-08-28T17:49:17Z</time>
  <course>0.0</course>
  <speed>0.0</speed>
  <fix>3d</fix>
</trkpt>
<trkpt lat="40.0713751" lon="-105.2297889">
  <ele>1582.99</ele>
  <time>2026-08-28T17:49:17Z</time>
  <course>247.06</course>
  <speed>0.022360679774997897</speed>
  <fix>3d</fix>
</trkpt>
<trkpt lat="40.0713749" lon="-105.229789">
  <ele>1583.0</ele>
  <time>2026-08-28T17:49:17Z</time>
  <course>0.0</course>
  <speed>0.0</speed>
  <fix>3d</fix>
</trkpt>
<trkpt lat="40.0713751" lon="-105.2297889">
  <ele>1582.99</ele>
  <time>2026-08-28T17:49:17Z</time>
  <course>247.06</course>
  <speed>0.022360679774997897</speed>
  <fix>3d</fix>
</trkpt>
<trkpt lat="40.0713749" lon="-105.229789">
  <ele>1583.0</ele>
  <time>2026-08-28T17:49:17Z</time>
  <course>0.0</course>
  <speed>0.0</speed>
  <fix>3d</fix>
</trkpt>
<trkpt lat="40.0713751" lon="-105.2297889">
  <ele>1582.99</ele>
  <time>2026-08-28T17:49:17Z</time>
  <course>247.06</course>
  <speed>0.022360679774997897</speed>
  <fix>3d</fix>
</trkpt>
<trkpt lat="40.0713749" lon="-105.229789">
  <ele>1583.0</ele>
  <time>2026-08-28T17:49:17Z</time>
  <course>0.0</course>
  <speed>0.0</speed>
  <fix>3d</fix>
</trkpt>
<trkpt lat="40.0713751" lon="-105.2297889">
  <ele>1582.98</ele>
  <time>2026-08-28T17:49:17Z</time>
  <course>247.06</course>
  <speed>0.022360679774997897</speed>
  <fix>3d</fix>
</trkpt>
<trkpt lat="40.0713749" lon="-105.229789">
  <ele>1583.0</ele>
  <time>2026-08-28T17:49:17Z</time>
  <course>0.0</course>
  <speed>0.0</speed>
  <fix>3d</fix>
</trkpt>
<trkpt lat="40.071375" lon="-105.2297889">
  <ele>1582.98</ele>
  <time>2026-08-28T17:49:17Z</time>
  <course>247.06</course>
  <speed>0.022360679774997897</speed>
  <fix>3d</fix>
</trkpt>
<trkpt lat="40.0713749" lon="-105.229789">
  <ele>1583.0</ele>
  <time>2026-08-28T17:49:17Z</time>
  <course>0.0</course>
  <speed>0.0</speed>
  <fix>3d</fix>
</trkpt>
<trkpt lat="40.0713751" lon="-105.2297889">
  <ele>1582.97</ele>
  <time>2026-08-28T17:49:17Z</time>
  <course>247.06</course>
  <speed>0.022360679774997897</speed>
  <fix>3d</fix>
</trkpt>
<trkpt lat="40.0713749" lon="-105.229789">
  <ele>1583.0</ele>
  <time>2026-08-28T17:49:17Z</time>
  <course>0.0</course>
  <speed>0.0</speed>
  <fix>3d</fix>
</trkpt>
<trkpt lat="40.071375" lon="-105.2297889">
  <ele>1582.97</ele>
  <time>2026-08-28T17:49:17Z</time>
  <course>247.06</course>
  <speed>0.022360679774997897</speed>
  <fix>3d</fix>
</trkpt>
<trkpt lat="40.0713749" lon="-105.229789">
  <ele>1583.0</ele>
  <time>2026-08-28T17:49:17Z</time>
  <course>0.0</course>
  <speed>0.0</speed>
  <fix>3d</fix>
</trkpt>
<trkpt lat="40.0713751" lon="-105.2297889">
  <ele>1582.96</ele>
  <time>2026-08-28T17:49:17Z</time>
  <course>247.06</course>
  <speed>0.022360679774997897</speed>
  <fix>3d</fix>
</trkpt>
<trkpt lat="40.0713749" lon="-105.229789">
  <ele>1583.0</ele>
  <time>2026-08-28T17:49:17Z</time>
  <course>0.0</course>
  <speed>0.0</speed>
  <fix>3d</fix>
</trkpt>
<trkpt lat="40.071375" lon="-105.2297889">
  <ele>1582.96</ele>
  <time>2026-08-28T17:49:17Z</time>
  <course>247.06</course>
  <speed>0.022360679774997897</speed>
  <fix>3d</fix>
</trkpt>
<trkpt lat="40.0713749" lon="-105.229789">
  <ele>1583.0</ele>
  <time>2026-08-28T17:49:17Z</time>
  <course>0.0</course>
  <speed>0.0</speed>
  <fix>3d</fix>
</trkpt>
<trkpt lat="40.0713751" lon="-105.2297889">
  <ele>1582.95</ele>
  <time>2026-08-28T17:49:17Z</time>
  <course>247.06</course>
  <speed>0.022360679774997897</speed>
  <fix>3d</fix>
</trkpt>
<trkpt lat="40.0713749" lon="-105.229789">
  <ele>1583.0</ele>
  <time>2026-08-28T17:49:17Z</time>
  <course>0.0</course>
  <speed>0.0</speed>
  <fix>3d</fix>
</trkpt>
<trkpt lat="40.071375" lon="-105.2297889">
  <ele>1582.95</ele>
  <time>2026-08-28T17:49:17Z</time>
  <course>247.06</course>
  <speed>0.022360679774997897</speed>
  <fix>3d</fix>
</trkpt>
<trkpt lat="40.0713749" lon="-105.229789">
  <ele>1583.0</ele>
  <time>2026-08-28T17:49:17Z</time>
  <course>0.0</course>
  <speed>0.0</speed>
  <fix>3d</fix>
</trkpt>
<trkpt lat="40.0713751" lon="-105.2297889">
  <ele>1582.95</ele>
  <time>2026-08-28T17:49:17Z</time>
  <course>247.06</course>
  <speed>0.022360679774997897</speed>
  <fix>3d</fix>
</trkpt>
<trkpt lat="40.0713749" lon="-105.229789">
  <ele>1583.0</ele>
  <time>2026-08-28T17:49:17Z</time>
  <course>0.0</course>
  <speed>0.0</speed>
  <fix>3d</fix>
</trkpt>
<trkpt lat="40.071375" lon="-105.2297889">
  <ele>1582.95</ele>
  <time>2026-08-28T17:49:17Z</time>
  <course>247.06</course>
  <speed>0.022360679774997897</speed>
  <fix>3d</fix>
</trkpt>
<trkpt lat="40.0713749" lon="-105.229789">
  <ele>1583.0</ele>
  <time>2026-08-28T17:49:17Z</time>
  <course>0.0</course>
  <speed>0.0</speed>
  <fix>3d</fix>
</trkpt>
<trkpt lat="40.0713751" lon="-105.2297889">
  <ele>1582.95</ele>
  <time>2026-08-28T17:49:17Z</time>
  <course>247.06</course>
  <speed>0.022360679774997897</speed>
  <fix>3d</fix>
</trkpt>
<trkpt lat="40.0713749" lon="-105.229789">
  <ele>1583.0</ele>
  <time>2026-08-28T17:49:17Z</time>
  <course>0.0</course>
  <speed>0.0</speed>
  <fix>3d</fix>
</trkpt>
<trkpt lat="40.071375" lon="-105.2297889">
  <ele>1582.95</ele>
  <time>2026-08-28T17:49:17Z</time>
  <course>247.06</course>
  <speed>0.022360679774997897</speed>
  <fix>3d</fix>
</trkpt>
<trkpt lat="40.0713749" lon="-105.229789">
  <ele>1583.0</ele>
  <time>2026-08-28T17:49:17Z</time>
  <course>0.0</course>
  <speed>0.0</speed>
  <fix>3d</fix>
</trkpt>
<trkpt lat="40.0713751" lon="-105.2297889">
  <ele>1582.96</ele>
  <time>2026-08-28T17:49:17Z</time>
  <course>247.06</course>
  <speed>0.022360679774997897</speed>
  <fix>3d</fix>
</trkpt>
<trkpt lat="40.0713749" lon="-105.229789">
  <ele>1583.0</ele>
  <time>2026-08-28T17:49:17Z</time>
  <course>0.0</course>
  <speed>0.0</speed>
  <fix>3d</fix>
</trkpt>
<trkpt lat="40.071375" lon="-105.2297889">
  <ele>1582.96</ele>
  <time>2026-08-28T17:49:17Z</time>
  <course>247.06</course>
  <speed>0.022360679774997897</speed>
  <fix>3d</fix>
</trkpt>
<trkpt lat="40.0713749" lon="-105.229789">
  <ele>1583.0</ele>
  <time>2026-08-28T17:49:17Z</time>
  <course>0.0</course>
  <speed>0.0</speed>
  <fix>3d</fix>
</trkpt>
<trkpt lat="40.0713751" lon="-105.2297889">
  <ele>1582.96</ele>
  <time>2026-08-28T17:49:17Z</time>
  <course>247.06</course>
  <speed>0.022360679774997897</speed>
  <fix>3d</fix>
</trkpt>
<trkpt lat="40.0713749" lon="-105.229789">
  <ele>1583.0</ele>
  <time>2026-08-28T17:49:17Z</time>
  <course>0.0</course>
  <speed>0.0</speed>
  <fix>3d</fix>
</trkpt>
<trkpt lat="40.0713751" lon="-105.2297889">
  <ele>1582.97</ele>
  <time>2026-08-28T17:49:17Z</time>
  <course>247.06</course>
  <speed>0.022360679774997897</speed>
  <fix>3d</fix>
</trkpt>
<trkpt lat="40.0713749" lon="-105.229789">
  <ele>1583.0</ele>
  <time>2026-08-28T17:49:17Z</time>
  <course>0.0</course>
  <speed>0.0</speed>
  <fix>3d</fix>
</trkpt>
<trkpt lat="40.0713751" lon="-105.2297889">
  <ele>1582.97</ele>
  <time>2026-08-28T17:49:17Z</time>
  <course>247.06</course>
  <speed>0.022360679774997897</speed>
  <fix>3d</fix>
</trkpt>
<trkpt lat="40.0713749" lon="-105.229789">
  <ele>1583.0</ele>
  <time>2026-08-28T17:49:17Z</time>
  <course>0.0</course>
  <speed>0.0</speed>
  <fix>3d</fix>
</trkpt>
<trkpt lat="40.0713751" lon="-105.2297889">
  <ele>1582.97</ele>
  <time>2026-08-28T17:49:17Z</time>
  <course>247.06</course>
  <speed>0.022360679774997897</speed>
  <fix>3d</fix>
</trkpt>
<trkpt lat="40.0713749" lon="-105.229789">
  <ele>1583.0</ele>
  <time>2026-08-28T17:49:17Z</time>
  <course>0.0</course>
  <speed>0.0</speed>
  <fix>3d</fix>
</trkpt>
<trkpt lat="40.0713751" lon="-105.2297889">
  <ele>1582.97</ele>
  <time>2026-08-28T17:49:17Z</time>
  <course>247.06</course>
  <speed>0.022360679774997897</speed>
  <fix>3d</fix>
</trkpt>
<trkpt lat="40.0713749" lon="-105.229789">
  <ele>1583.0</ele>
  <time>2026-08-28T17:49:17Z</time>
  <course>0.0</course>
  <speed>0.0</speed>
  <fix>3d</fix>
</trkpt>
<trkpt lat="40.0713751" lon="-105.2297889">
  <ele>1582.97</ele>
  <time>2026-08-28T17:49:17Z</time>
  <course>247.06</course>
  <speed>0.022360679774997897</speed>
  <fix>3d</fix>
</trkpt>
<trkpt lat="40.0713749" lon="-105.229789">
  <ele>1583.0</ele>
  <time>2026-08-28T17:49:17Z</time>
  <course>0.0</course>
  <speed>0.0</speed>
  <fix>3d</fix>
</trkpt>
<trkpt lat="40.0713751" lon="-105.2297889">
  <ele>1582.97</ele>
  <time>2026-08-28T17:49:17Z</time>
  <course>247.06</course>
  <speed>0.022360679774997897</speed>
  <fix>3d</fix>
</trkpt>
<trkpt lat="40.0713749" lon="-105.229789">
  <ele>1583.0</ele>
  <time>2026-08-28T17:49:17Z</time>
  <course>0.0</course>
  <speed>0.0</speed>
  <fix>3d</fix>
</trkpt>
<trkpt lat="40.071375" lon="-105.2297889">
  <ele>1582.97</ele>
  <time>2026-08-28T17:49:17Z</time>
  <course>247.06</course>
  <speed>0.022360679774997897</speed>
  <fix>3d</fix>
</trkpt>
<trkpt lat="40.0713749" lon="-105.229789">
  <ele>1583.0</ele>
  <time>2026-08-28T17:49:17Z</time>
  <course>0.0</course>
  <speed>0.0</speed>
  <fix>3d</fix>
</trkpt>
<trkpt lat="40.0713751" lon="-105.2297889">
  <ele>1582.98</ele>
  <time>2026-08-28T17:49:17Z</time>
  <course>247.06</course>
  <speed>0.022360679774997897</speed>
  <fix>3d</fix>
</trkpt>
<trkpt lat="40.0713749" lon="-105.229789">
  <ele>1583.0</ele>
  <time>2026-08-28T17:49:17Z</time>
  <course>0.0</course>
  <speed>0.0</speed>
  <fix>3d</fix>
</trkpt>
<trkpt lat="40.071375" lon="-105.2297889">
  <ele>1582.97</ele>
  <time>2026-08-28T17:49:17Z</time>
  <course>247.06</course>
  <speed>0.022360679774997897</speed>
  <fix>3d</fix>
</trkpt>
<trkpt lat="40.0713749" lon="-105.229789">
  <ele>1583.0</ele>
  <time>2026-08-28T17:49:17Z</time>
  <course>0.0</course>
  <speed>0.0</speed>
  <fix>3d</fix>
</trkpt>
<trkpt lat="40.0713751" lon="-105.2297889">
  <ele>1582.97</ele>
  <time>2026-08-28T17:49:17Z</time>
  <course>247.06</course>
  <speed>0.022360679774997897</speed>
  <fix>3d</fix>
</trkpt>
<trkpt lat="40.0713749" lon="-105.229789">
  <ele>1583.0</ele>
  <time>2026-08-28T17:49:17Z</time>
  <course>0.0</course>
  <speed>0.0</speed>
  <fix>3d</fix>
</trkpt>
<trkpt lat="40.071375" lon="-105.2297889">
  <ele>1582.97</ele>
  <time>2026-08-28T17:49:17Z</time>
  <course>247.06</course>
  <speed>0.022360679774997897</speed>
  <fix>3d</fix>
</trkpt>
<trkpt lat="40.0713749" lon="-105.229789">
  <ele>1583.0</ele>
  <time>2026-08-28T17:49:17Z</time>
  <course>0.0</course>
  <speed>0.0</speed>
  <fix>3d</fix>
</trkpt>
<trkpt lat="40.0713751" lon="-105.2297889">
  <ele>1582.97</ele>
  <time>2026-08-28T17:49:17Z</time>
  <course>247.06</course>
  <speed>0.022360679774997897</speed>
  <fix>3d</fix>
</trkpt>
<trkpt lat="40.0713749" lon="-105.229789">
  <ele>1583.0</ele>
  <time>2026-08-28T17:49:17Z</time>
  <course>0.0</course>
  <speed>0.0</speed>
  <fix>3d</fix>
</trkpt>
<trkpt lat="40.071375" lon="-105.2297889">
  <ele>1582.97</ele>
  <time>2026-08-28T17:49:17Z</time>
  <course>247.06</course>
  <speed>0.022360679774997897</speed>
  <fix>3d</fix>
</trkpt>
<trkpt lat="40.0713749" lon="-105.229789">
  <ele>1583.0</ele>
  <time>2026-08-28T17:49:17Z</time>
  <course>0.0</course>
  <speed>0.0</speed>
  <fix>3d</fix>
</trkpt>
<trkpt lat="40.0713751" lon="-105.2297889">
  <ele>1582.96</ele>
  <time>2026-08-28T17:49:17Z</time>
  <course>247.06</course>
  <speed>0.022360679774997897</speed>
  <fix>3d</fix>
</trkpt>
<trkpt lat="40.0713749" lon="-105.229789">
  <ele>1583.0</ele>
  <time>2026-08-28T17:49:17Z</time>
  <course>0.0</course>
  <speed>0.0</speed>
  <fix>3d</fix>
</trkpt>
<trkpt lat="40.071375" lon="-105.2297889">
  <ele>1582.97</ele>
  <time>2026-08-28T17:49:17Z</time>
  <course>247.06</course>
  <speed>0.022360679774997897</speed>
  <fix>3d</fix>
</trkpt>
<trkpt lat="40.0713749" lon="-105.229789">
  <ele>1583.0</ele>
  <time>2026-08-28T17:49:17Z</time>
  <course>0.0</course>
  <speed>0.0</speed>
  <fix>3d</fix>
</trkpt>
<trkpt lat="40.0713751" lon="-105.2297889">
  <ele>1582.97</ele>
  <time>2026-08-28T17:49:17Z</time>
  <course>247.06</course>
  <speed>0.022360679774997897</speed>
  <fix>3d</fix>
</trkpt>
<trkpt lat="40.0713749" lon="-105.229789">
  <ele>1583.0</ele>
  <time>2026-08-28T17:49:17Z</time>
  <course>0.0</course>
  <speed>0.0</speed>
  <fix>3d</fix>
</trkpt>
<trkpt lat="40.071375" lon="-105.2297889">
  <ele>1582.97</ele>
  <time>2026-08-28T17:49:17Z</time>
  <course>247.06</course>
  <speed>0.022360679774997897</speed>
  <fix>3d</fix>
</trkpt>
<trkpt lat="40.0713749" lon="-105.229789">
  <ele>1583.0</ele>
  <time>2026-08-28T17:49:17Z</time>
  <course>0.0</course>
  <speed>0.0</speed>
  <fix>3d</fix>
</trkpt>
<trkpt lat="40.0713751" lon="-105.2297889">
  <ele>1582.97</ele>
  <time>2026-08-28T17:49:17Z</time>
  <course>247.06</course>
  <speed>0.022360679774997897</speed>
  <fix>3d</fix>
</trkpt>
<trkpt lat="40.0713749" lon="-105.229789">
  <ele>1583.0</ele>
  <time>2026-08-28T17:49:17Z</time>
  <course>0.0</course>
  <speed>0.0</speed>
  <fix>3d</fix>
</trkpt>
<trkpt lat="40.071375" lon="-105.2297889">
  <ele>1582.98</ele>
  <time>2026-08-28T17:49:17Z</time>
  <course>247.06</course>
  <speed>0.022360679774997897</speed>
  <fix>3d</fix>
</trkpt>
<trkpt lat="40.0713749" lon="-105.229789">
  <ele>1583.0</ele>
  <time>2026-08-28T17:49:17Z</time>
  <course>0.0</course>
  <speed>0.0</speed>
  <fix>3d</fix>
</trkpt>
<trkpt lat="40.0713751" lon="-105.2297889">
  <ele>1582.99</ele>
  <time>2026-08-28T17:49:17Z</time>
  <course>247.06</course>
  <speed>0.022360679774997897</speed>
  <fix>3d</fix>
</trkpt>
<trkpt lat="40.0713749" lon="-105.229789">
  <ele>1583.0</ele>
  <time>2026-08-28T17:49:17Z</time>
  <course>0.0</course>
  <speed>0.0</speed>
  <fix>3d</fix>
</trkpt>
<trkpt lat="40.0713751" lon="-105.2297889">
  <ele>1582.99</ele>
  <time>2026-08-28T17:49:17Z</time>
  <course>247.06</course>
  <speed>0.022360679774997897</speed>
  <fix>3d</fix>
</trkpt>
<trkpt lat="40.0713749" lon="-105.229789">
  <ele>1583.0</ele>
  <time>2026-08-28T17:49:17Z</time>
  <course>0.0</course>
  <speed>0.0</speed>
  <fix>3d</fix>
</trkpt>
<trkpt lat="40.0713751" lon="-105.2297889">
  <ele>1582.99</ele>
  <time>2026-08-28T17:49:17Z</time>
  <course>247.06</course>
  <speed>0.022360679774997897</speed>
  <fix>3d</fix>
</trkpt>
<trkpt lat="40.0713749" lon="-105.229789">
  <ele>1583.0</ele>
  <time>2026-08-28T17:49:17Z</time>
  <course>0.0</course>
  <speed>0.0</speed>
  <fix>3d</fix>
</trkpt>
<trkpt lat="40.0713751" lon="-105.2297889">
  <ele>1583.0</ele>
  <time>2026-08-28T17:49:17Z</time>
  <course>247.06</course>
  <speed>0.022360679774997897</speed>
  <fix>3d</fix>
</trkpt>
<trkpt lat="40.0713749" lon="-105.229789">
  <ele>1583.0</ele>
  <time>2026-08-28T17:49:17Z</time>
  <course>0.0</course>
  <speed>0.0</speed>
  <fix>3d</fix>
</trkpt>
<trkpt lat="40.0713751" lon="-105.2297889">
  <ele>1583.0</ele>
  <time>2026-08-28T17:49:17Z</time>
  <course>247.06</course>
  <speed>0.022360679774997897</speed>
  <fix>3d</fix>
</trkpt>
<trkpt lat="40.0713749" lon="-105.229789">
  <ele>1583.0</ele>
  <time>2026-08-28T17:49:17Z</time>
  <course>0.0</course>
  <speed>0.0</speed>
  <fix>3d</fix>
</trkpt>
<trkpt lat="40.0713751" lon="-105.2297889">
  <ele>1583.0</ele>
  <time>2026-08-28T17:49:17Z</time>
  <course>247.06</course>
  <speed>0.022360679774997897</speed>
  <fix>3d</fix>
</trkpt>
<trkpt lat="40.0713749" lon="-105.229789">
  <ele>1583.0</ele>
  <time>2026-08-28T17:49:17Z</time>
  <course>0.0</course>
  <speed>0.0</speed>
  <fix>3d</fix>
</trkpt>
<trkpt lat="40.0713751" lon="-105.2297889">
  <ele>1583.0</ele>
  <time>2026-08-28T17:49:17Z</time>
  <course>247.06</course>
  <speed>0.022360679774997897</speed>
  <fix>3d</fix>
</trkpt>
<trkpt lat="40.0713749" lon="-105.229789">
  <ele>1583.0</ele>
  <time>2026-08-28T17:49:17Z</time>
  <course>0.0</course>
  <speed>0.0</speed>
  <fix>3d</fix>
</trkpt>
<trkpt lat="40.0713751" lon="-105.2297889">
  <ele>1583.0</ele>
  <time>2026-08-28T17:49:17Z</time>
  <course>247.06</course>
  <speed>0.022360679774997897</speed>
  <fix>3d</fix>
</trkpt>
<trkpt lat="40.0713749" lon="-105.229789">
  <ele>1583.0</ele>
  <time>2026-08-28T17:49:17Z</time>
  <course>0.0</course>
  <speed>0.0</speed>
  <fix>3d</fix>
</trkpt>
<trkpt lat="40.0713751" lon="-105.2297889">
  <ele>1582.99</ele>
  <time>2026-08-28T17:49:17Z</time>
  <course>247.06</course>
  <speed>0.022360679774997897</speed>
  <fix>3d</fix>
</trkpt>
<trkpt lat="40.0713749" lon="-105.229789">
  <ele>1583.0</ele>
  <time>2026-08-28T17:49:17Z</time>
  <course>0.0</course>
  <speed>0.0</speed>
  <fix>3d</fix>
</trkpt>
<trkpt lat="40.0713751" lon="-105.2297889">
  <ele>1582.99</ele>
  <time>2026-08-28T17:49:17Z</time>
  <course>247.06</course>
  <speed>0.022360679774997897</speed>
  <fix>3d</fix>
</trkpt>
<trkpt lat="40.0713749" lon="-105.229789">
  <ele>1583.0</ele>
  <time>2026-08-28T17:49:17Z</time>
  <course>0.0</course>
  <speed>0.0</speed>
  <fix>3d</fix>
</trkpt>
<trkpt lat="40.0713751" lon="-105.2297889">
  <ele>1582.98</ele>
  <time>2026-08-28T17:49:17Z</time>
  <course>247.06</course>
  <speed>0.022360679774997897</speed>
  <fix>3d</fix>
</trkpt>
<trkpt lat="40.0713749" lon="-105.229789">
  <ele>1583.0</ele>
  <time>2026-08-28T17:49:17Z</time>
  <course>0.0</course>
  <speed>0.0</speed>
  <fix>3d</fix>
</trkpt>
<trkpt lat="40.071375" lon="-105.2297889">
  <ele>1582.98</ele>
  <time>2026-08-28T17:49:17Z</time>
  <course>247.06</course>
  <speed>0.022360679774997897</speed>
  <fix>3d</fix>
</trkpt>
<trkpt lat="40.0713749" lon="-105.229789">
  <ele>1583.0</ele>
  <time>2026-08-28T17:49:17Z</time>
  <course>0.0</course>
  <speed>0.0</speed>
  <fix>3d</fix>
</trkpt>
<trkpt lat="40.0713751" lon="-105.2297889">
  <ele>1582.98</ele>
  <time>2026-08-28T17:49:17Z</time>
  <course>247.06</course>
  <speed>0.022360679774997897</speed>
  <fix>3d</fix>
</trkpt>
<trkpt lat="40.0713749" lon="-105.229789">
  <ele>1583.0</ele>
  <time>2026-08-28T17:49:17Z</time>
  <course>0.0</course>
  <speed>0.0</speed>
  <fix>3d</fix>
</trkpt>
<trkpt lat="40.071375" lon="-105.2297889">
  <ele>1582.98</ele>
  <time>2026-08-28T17:49:17Z</time>
  <course>247.06</course>
  <speed>0.022360679774997897</speed>
  <fix>3d</fix>
</trkpt>
<trkpt lat="40.0713749" lon="-105.229789">
  <ele>1583.0</ele>
  <time>2026-08-28T17:49:17Z</time>
  <course>0.0</course>
  <speed>0.0</speed>
  <fix>3d</fix>
</trkpt>
<trkpt lat="40.0713751" lon="-105.2297889">
  <ele>1582.98</ele>
  <time>2026-08-28T17:49:17Z</time>
  <course>247.06</course>
  <speed>0.022360679774997897</speed>
  <fix>3d</fix>
</trkpt>
<trkpt lat="40.0713749" lon="-105.229789">
  <ele>1583.0</ele>
  <time>2026-08-28T17:49:17Z</time>
  <course>0.0</course>
  <speed>0.0</speed>
  <fix>3d</fix>
</trkpt>
<trkpt lat="40.071375" lon="-105.2297889">
  <ele>1582.98</ele>
  <time>2026-08-28T17:49:17Z</time>
  <course>247.06</course>
  <speed>0.022360679774997897</speed>
  <fix>3d</fix>
</trkpt>
<trkpt lat="40.0713749" lon="-105.229789">
  <ele>1583.0</ele>
  <time>2026-08-28T17:49:17Z</time>
  <course>0.0</course>
  <speed>0.0</speed>
  <fix>3d</fix>
</trkpt>
<trkpt lat="40.0713751" lon="-105.2297889">
  <ele>1582.98</ele>
  <time>2026-08-28T17:49:17Z</time>
  <course>247.06</course>
  <speed>0.022360679774997897</speed>
  <fix>3d</fix>
</trkpt>
<trkpt lat="40.0713749" lon="-105.229789">
  <ele>1583.0</ele>
  <time>2026-08-28T17:49:17Z</time>
  <course>0.0</course>
  <speed>0.0</speed>
  <fix>3d</fix>
</trkpt>
<trkpt lat="40.071375" lon="-105.2297889">
  <ele>1582.98</ele>
  <time>2026-08-28T17:49:17Z</time>
  <course>247.06</course>
  <speed>0.022360679774997897</speed>
  <fix>3d</fix>
</trkpt>
<trkpt lat="40.0713749" lon="-105.229789">
  <ele>1583.0</ele>
  <time>2026-08-28T17:49:17Z</time>
  <course>0.0</course>
  <speed>0.0</speed>
  <fix>3d</fix>
</trkpt>
<trkpt lat="40.0713751" lon="-105.2297889">
  <ele>1582.98</ele>
  <time>2026-08-28T17:49:17Z</time>
  <course>247.06</course>
  <speed>0.022360679774997897</speed>
  <fix>3d</fix>
</trkpt>
<trkpt lat="40.0713749" lon="-105.229789">
  <ele>1583.0</ele>
  <time>2026-08-28T17:49:17Z</time>
  <course>0.0</course>
  <speed>0.0</speed>
  <fix>3d</fix>
</trkpt>
<trkpt lat="40.071375" lon="-105.2297889">
  <ele>1582.98</ele>
  <time>2026-08-28T17:49:17Z</time>
  <course>247.06</course>
  <speed>0.022360679774997897</speed>
  <fix>3d</fix>
</trkpt>
<trkpt lat="40.0713749" lon="-105.229789">
  <ele>1583.0</ele>
  <time>2026-08-28T17:49:17Z</time>
  <course>0.0</course>
  <speed>0.0</speed>
  <fix>3d</fix>
</trkpt>
<trkpt lat="40.0713751" lon="-105.2297889">
  <ele>1582.99</ele>
  <time>2026-08-28T17:49:17Z</time>
  <course>247.06</course>
  <speed>0.022360679774997897</speed>
  <fix>3d</fix>
</trkpt>
<trkpt lat="40.0713749" lon="-105.229789">
  <ele>1583.0</ele>
  <time>2026-08-28T17:49:17Z</time>
  <course>0.0</course>
  <speed>0.0</speed>
  <fix>3d</fix>
</trkpt>
<trkpt lat="40.0713751" lon="-105.2297889">
  <ele>1582.99</ele>
  <time>2026-08-28T17:49:17Z</time>
  <course>247.06</course>
  <speed>0.022360679774997897</speed>
  <fix>3d</fix>
</trkpt>
<trkpt lat="40.0713749" lon="-105.229789">
  <ele>1583.0</ele>
  <time>2026-08-28T17:49:17Z</time>
  <course>0.0</course>
  <speed>0.0</speed>
  <fix>3d</fix>
</trkpt>
<trkpt lat="40.0713751" lon="-105.2297889">
  <ele>1582.99</ele>
  <time>2026-08-28T17:49:17Z</time>
  <course>247.06</course>
  <speed>0.022360679774997897</speed>
  <fix>3d</fix>
</trkpt>
<trkpt lat="40.0713749" lon="-105.229789">
  <ele>1583.0</ele>
  <time>2026-08-28T17:49:17Z</time>
  <course>0.0</course>
  <speed>0.0</speed>
  <fix>3d</fix>
</trkpt>
<trkpt lat="40.0713751" lon="-105.2297889">
  <ele>1582.99</ele>
  <time>2026-08-28T17:49:17Z</time>
  <course>247.06</course>
  <speed>0.022360679774997897</speed>
  <fix>3d</fix>
</trkpt>
<trkpt lat="40.0713749" lon="-105.229789">
  <ele>1583.0</ele>
  <time>2026-08-28T17:49:17Z</time>
  <course>0.0</course>
  <speed>0.0</speed>
  <fix>3d</fix>
</trkpt>
<trkpt lat="40.0713751" lon="-105.2297889">
  <ele>1583.0</ele>
  <time>2026-08-28T17:49:17Z</time>
  <course>247.06</course>
  <speed>0.022360679774997897</speed>
  <fix>3d</fix>
</trkpt>
<trkpt lat="40.0713749" lon="-105.229789">
  <ele>1583.0</ele>
  <time>2026-08-28T17:49:17Z</time>
  <course>0.0</course>
  <speed>0.0</speed>
  <fix>3d</fix>
</trkpt>
<trkpt lat="40.0713751" lon="-105.2297889">
  <ele>1583.01</ele>
  <time>2026-08-28T17:49:17Z</time>
  <course>247.06</course>
  <speed>0.022360679774997897</speed>
  <fix>3d</fix>
</trkpt>
<trkpt lat="40.0713749" lon="-105.229789">
  <ele>1583.0</ele>
  <time>2026-08-28T17:49:17Z</time>
  <course>0.0</course>
  <speed>0.0</speed>
  <fix>3d</fix>
</trkpt>
<trkpt lat="40.0713751" lon="-105.2297889">
  <ele>1583.01</ele>
  <time>2026-08-28T17:49:17Z</time>
  <course>247.06</course>
  <speed>0.022360679774997897</speed>
  <fix>3d</fix>
</trkpt>
<trkpt lat="40.0713749" lon="-105.229789">
  <ele>1583.0</ele>
  <time>2026-08-28T17:49:17Z</time>
  <course>0.0</course>
  <speed>0.0</speed>
  <fix>3d</fix>
</trkpt>
<trkpt lat="40.0713751" lon="-105.2297889">
  <ele>1583.02</ele>
  <time>2026-08-28T17:49:17Z</time>
  <course>247.06</course>
  <speed>0.022360679774997897</speed>
  <fix>3d</fix>
</trkpt>
<trkpt lat="40.0713749" lon="-105.229789">
  <ele>1583.0</ele>
  <time>2026-08-28T17:49:17Z</time>
  <course>0.0</course>
  <speed>0.0</speed>
  <fix>3d</fix>
</trkpt>
<trkpt lat="40.0713751" lon="-105.2297889">
  <ele>1583.02</ele>
  <time>2026-08-28T17:49:17Z</time>
  <course>247.06</course>
  <speed>0.022360679774997897</speed>
  <fix>3d</fix>
</trkpt>
<trkpt lat="40.0713749" lon="-105.229789">
  <ele>1583.0</ele>
  <time>2026-08-28T17:49:17Z</time>
  <course>0.0</course>
  <speed>0.0</speed>
  <fix>3d</fix>
</trkpt>
<trkpt lat="40.071375" lon="-105.2297889">
  <ele>1583.02</ele>
  <time>2026-08-28T17:49:17Z</time>
  <course>247.06</course>
  <speed>0.022360679774997897</speed>
  <fix>3d</fix>
</trkpt>
<trkpt lat="40.0713749" lon="-105.229789">
  <ele>1583.0</ele>
  <time>2026-08-28T17:49:17Z</time>
  <course>0.0</course>
  <speed>0.0</speed>
  <fix>3d</fix>
</trkpt>
<trkpt lat="40.0713751" lon="-105.2297889">
  <ele>1583.03</ele>
  <time>2026-08-28T17:49:17Z</time>
  <course>247.06</course>
  <speed>0.022360679774997897</speed>
  <fix>3d</fix>
</trkpt>
<trkpt lat="40.0713749" lon="-105.229789">
  <ele>1583.0</ele>
  <time>2026-08-28T17:49:17Z</time>
  <course>0.0</course>
  <speed>0.0</speed>
  <fix>3d</fix>
</trkpt>
<trkpt lat="40.071375" lon="-105.2297889">
  <ele>1583.03</ele>
  <time>2026-08-28T17:49:17Z</time>
  <course>247.06</course>
  <speed>0.022360679774997897</speed>
  <fix>3d</fix>
</trkpt>
<trkpt lat="40.0713749" lon="-105.229789">
  <ele>1583.0</ele>
  <time>2026-08-28T17:49:17Z</time>
  <course>0.0</course>
  <speed>0.0</speed>
  <fix>3d</fix>
</trkpt>
<trkpt lat="40.0713751" lon="-105.2297889">
  <ele>1583.03</ele>
  <time>2026-08-28T17:49:17Z</time>
  <course>247.06</course>
  <speed>0.022360679774997897</speed>
  <fix>3d</fix>
</trkpt>
<trkpt lat="40.0713749" lon="-105.229789">
  <ele>1583.0</ele>
  <time>2026-08-28T17:49:17Z</time>
  <course>0.0</course>
  <speed>0.0</speed>
  <fix>3d</fix>
</trkpt>
<trkpt lat="40.071375" lon="-105.2297889">
  <ele>1583.03</ele>
  <time>2026-08-28T17:49:17Z</time>
  <course>247.06</course>
  <speed>0.022360679774997897</speed>
  <fix>3d</fix>
</trkpt>
<trkpt lat="40.0713749" lon="-105.229789">
  <ele>1583.0</ele>
  <time>2026-08-28T17:49:17Z</time>
  <course>0.0</course>
  <speed>0.0</speed>
  <fix>3d</fix>
</trkpt>
<trkpt lat="40.0713751" lon="-105.2297889">
  <ele>1583.02</ele>
  <time>2026-08-28T17:49:17Z</time>
  <course>247.06</course>
  <speed>0.022360679774997897</speed>
  <fix>3d</fix>
</trkpt>
<trkpt lat="40.0713749" lon="-105.229789">
  <ele>1583.0</ele>
  <time>2026-08-28T17:49:17Z</time>
  <course>0.0</course>
  <speed>0.0</speed>
  <fix>3d</fix>
</trkpt>
<trkpt lat="40.071375" lon="-105.2297889">
  <ele>1583.02</ele>
  <time>2026-08-28T17:49:17Z</time>
  <course>247.05</course>
  <speed>0.022360679774997897</speed>
  <fix>3d</fix>
</trkpt>
<trkpt lat="40.0713749" lon="-105.229789">
  <ele>1583.0</ele>
  <time>2026-08-28T17:49:17Z</time>
  <course>0.0</course>
  <speed>0.0</speed>
  <fix>3d</fix>
</trkpt>
<trkpt lat="40.0713751" lon="-105.2297889">
  <ele>1583.01</ele>
  <time>2026-08-28T17:49:17Z</time>
  <course>247.05</course>
  <speed>0.022360679774997897</speed>
  <fix>3d</fix>
</trkpt>
<trkpt lat="40.0713749" lon="-105.229789">
  <ele>1583.0</ele>
  <time>2026-08-28T17:49:17Z</time>
  <course>0.0</course>
  <speed>0.0</speed>
  <fix>3d</fix>
</trkpt>
<trkpt lat="40.071375" lon="-105.2297889">
  <ele>1583.0</ele>
  <time>2026-08-28T17:49:17Z</time>
  <course>247.05</course>
  <speed>0.022360679774997897</speed>
  <fix>3d</fix>
</trkpt>
<trkpt lat="40.0713749" lon="-105.229789">
  <ele>1583.0</ele>
  <time>2026-08-28T17:49:17Z</time>
  <course>0.0</course>
  <speed>0.0</speed>
  <fix>3d</fix>
</trkpt>
<trkpt lat="40.0713751" lon="-105.2297889">
  <ele>1583.0</ele>
  <time>2026-08-28T17:49:17Z</time>
  <course>247.05</course>
  <speed>0.022360679774997897</speed>
  <fix>3d</fix>
</trkpt>
<trkpt lat="40.0713749" lon="-105.229789">
  <ele>1583.0</ele>
  <time>2026-08-28T17:49:17Z</time>
  <course>0.0</course>
  <speed>0.0</speed>
  <fix>3d</fix>
</trkpt>
<trkpt lat="40.071375" lon="-105.2297889">
  <ele>1582.99</ele>
  <time>2026-08-28T17:49:17Z</time>
  <course>247.05</course>
  <speed>0.022360679774997897</speed>
  <fix>3d</fix>
</trkpt>
<trkpt lat="40.0713749" lon="-105.229789">
  <ele>1583.0</ele>
  <time>2026-08-28T17:49:17Z</time>
  <course>0.0</course>
  <speed>0.0</speed>
  <fix>3d</fix>
</trkpt>
<trkpt lat="40.0713751" lon="-105.2297889">
  <ele>1582.98</ele>
  <time>2026-08-28T17:49:17Z</time>
  <course>247.05</course>
  <speed>0.022360679774997897</speed>
  <fix>3d</fix>
</trkpt>
<trkpt lat="40.0713749" lon="-105.229789">
  <ele>1583.0</ele>
  <time>2026-08-28T17:49:17Z</time>
  <course>0.0</course>
  <speed>0.0</speed>
  <fix>3d</fix>
</trkpt>
<trkpt lat="40.071375" lon="-105.2297889">
  <ele>1582.98</ele>
  <time>2026-08-28T17:49:17Z</time>
  <course>247.05</course>
  <speed>0.022360679774997897</speed>
  <fix>3d</fix>
</trkpt>
<trkpt lat="40.0713749" lon="-105.229789">
  <ele>1583.0</ele>
  <time>2026-08-28T17:49:17Z</time>
  <course>0.0</course>
  <speed>0.0</speed>
  <fix>3d</fix>
</trkpt>
<trkpt lat="40.0713751" lon="-105.2297889">
  <ele>1582.97</ele>
  <time>2026-08-28T17:49:17Z</time>
  <course>247.05</course>
  <speed>0.022360679774997897</speed>
  <fix>3d</fix>
</trkpt>
<trkpt lat="40.0713749" lon="-105.229789">
  <ele>1583.0</ele>
  <time>2026-08-28T17:49:17Z</time>
  <course>0.0</course>
  <speed>0.0</speed>
  <fix>3d</fix>
</trkpt>
<trkpt lat="40.0713751" lon="-105.2297889">
  <ele>1582.97</ele>
  <time>2026-08-28T17:49:17Z</time>
  <course>247.05</course>
  <speed>0.022360679774997897</speed>
  <fix>3d</fix>
</trkpt>
<trkpt lat="40.0713749" lon="-105.229789">
  <ele>1583.0</ele>
  <time>2026-08-28T17:49:17Z</time>
  <course>0.0</course>
  <speed>0.0</speed>
  <fix>3d</fix>
</trkpt>
<trkpt lat="40.0713751" lon="-105.2297889">
  <ele>1582.96</ele>
  <time>2026-08-28T17:49:17Z</time>
  <course>247.05</course>
  <speed>0.022360679774997897</speed>
  <fix>3d</fix>
</trkpt>
<trkpt lat="40.0713749" lon="-105.229789">
  <ele>1583.0</ele>
  <time>2026-08-28T17:49:17Z</time>
  <course>0.0</course>
  <speed>0.0</speed>
  <fix>3d</fix>
</trkpt>
<trkpt lat="40.0713751" lon="-105.2297889">
  <ele>1582.96</ele>
  <time>2026-08-28T17:49:17Z</time>
  <course>247.05</course>
  <speed>0.022360679774997897</speed>
  <fix>3d</fix>
</trkpt>
<trkpt lat="40.0713749" lon="-105.229789">
  <ele>1583.0</ele>
  <time>2026-08-28T17:49:17Z</time>
  <course>0.0</course>
  <speed>0.0</speed>
  <fix>3d</fix>
</trkpt>
<trkpt lat="40.0713751" lon="-105.2297889">
  <ele>1582.96</ele>
  <time>2026-08-28T17:49:17Z</time>
  <course>247.05</course>
  <speed>0.022360679774997897</speed>
  <fix>3d</fix>
</trkpt>
<trkpt lat="40.0713749" lon="-105.229789">
  <ele>1583.0</ele>
  <time>2026-08-28T17:49:17Z</time>
  <course>0.0</course>
  <speed>0.0</speed>
  <fix>3d</fix>
</trkpt>
<trkpt lat="40.0713751" lon="-105.2297889">
  <ele>1582.96</ele>
  <time>2026-08-28T17:49:17Z</time>
  <course>247.05</course>
  <speed>0.022360679774997897</speed>
  <fix>3d</fix>
</trkpt>
<trkpt lat="40.0713749" lon="-105.229789">
  <ele>1583.0</ele>
  <time>2026-08-28T17:49:17Z</time>
  <course>0.0</course>
  <speed>0.0</speed>
  <fix>3d</fix>
</trkpt>
<trkpt lat="40.0713751" lon="-105.2297889">
  <ele>1582.96</ele>
  <time>2026-08-28T17:49:17Z</time>
  <course>247.05</course>
  <speed>0.022360679774997897</speed>
  <fix>3d</fix>
</trkpt>
<trkpt lat="40.0713749" lon="-105.229789">
  <ele>1583.0</ele>
  <time>2026-08-28T17:49:17Z</time>
  <course>0.0</course>
  <speed>0.0</speed>
  <fix>3d</fix>
</trkpt>
<trkpt lat="40.0713751" lon="-105.2297889">
  <ele>1582.96</ele>
  <time>2026-08-28T17:49:17Z</time>
  <course>247.05</course>
  <speed>0.022360679774997897</speed>
  <fix>3d</fix>
</trkpt>
<trkpt lat="40.0713749" lon="-105.229789">
  <ele>1583.0</ele>
  <time>2026-08-28T17:49:17Z</time>
  <course>0.0</course>
  <speed>0.0</speed>
  <fix>3d</fix>
</trkpt>
<trkpt lat="40.0713751" lon="-105.2297889">
  <ele>1582.96</ele>
  <time>2026-08-28T17:49:17Z</time>
  <course>247.05</course>
  <speed>0.022360679774997897</speed>
  <fix>3d</fix>
</trkpt>
<trkpt lat="40.0713749" lon="-105.229789">
  <ele>1583.0</ele>
  <time>2026-08-28T17:49:17Z</time>
  <course>0.0</course>
  <speed>0.0</speed>
  <fix>3d</fix>
</trkpt>
<trkpt lat="40.071375" lon="-105.2297889">
  <ele>1582.96</ele>
  <time>2026-08-28T17:49:17Z</time>
  <course>247.05</course>
  <speed>0.022360679774997897</speed>
  <fix>3d</fix>
</trkpt>
<trkpt lat="40.0713749" lon="-105.229789">
  <ele>1583.0</ele>
  <time>2026-08-28T17:49:17Z</time>
  <course>0.0</course>
  <speed>0.0</speed>
  <fix>3d</fix>
</trkpt>
<trkpt lat="40.0713751" lon="-105.2297889">
  <ele>1582.96</ele>
  <time>2026-08-28T17:49:17Z</time>
  <course>247.05</course>
  <speed>0.022360679774997897</speed>
  <fix>3d</fix>
</trkpt>
<trkpt lat="40.0713749" lon="-105.229789">
  <ele>1583.0</ele>
  <time>2026-08-28T17:49:17Z</time>
  <course>0.0</course>
  <speed>0.0</speed>
  <fix>3d</fix>
</trkpt>
<trkpt lat="40.071375" lon="-105.2297889">
  <ele>1582.96</ele>
  <time>2026-08-28T17:49:17Z</time>
  <course>247.05</course>
  <speed>0.022360679774997897</speed>
  <fix>3d</fix>
</trkpt>
<trkpt lat="40.0713749" lon="-105.229789">
  <ele>1583.0</ele>
  <time>2026-08-28T17:49:17Z</time>
  <course>0.0</course>
  <speed>0.0</speed>
  <fix>3d</fix>
</trkpt>
<trkpt lat="40.0713751" lon="-105.2297889">
  <ele>1582.97</ele>
  <time>2026-08-28T17:49:17Z</time>
  <course>247.05</course>
  <speed>0.022360679774997897</speed>
  <fix>3d</fix>
</trkpt>
<trkpt lat="40.0713749" lon="-105.229789">
  <ele>1583.0</ele>
  <time>2026-08-28T17:49:17Z</time>
  <course>0.0</course>
  <speed>0.0</speed>
  <fix>3d</fix>
</trkpt>
<trkpt lat="40.071375" lon="-105.2297889">
  <ele>1582.97</ele>
  <time>2026-08-28T17:49:17Z</time>
  <course>247.05</course>
  <speed>0.022360679774997897</speed>
  <fix>3d</fix>
</trkpt>
<trkpt lat="40.0713749" lon="-105.229789">
  <ele>1583.0</ele>
  <time>2026-08-28T17:49:17Z</time>
  <course>0.0</course>
  <speed>0.0</speed>
  <fix>3d</fix>
</trkpt>
<trkpt lat="40.0713751" lon="-105.2297889">
  <ele>1582.98</ele>
  <time>2026-08-28T17:49:17Z</time>
  <course>247.05</course>
  <speed>0.022360679774997897</speed>
  <fix>3d</fix>
</trkpt>
<trkpt lat="40.0713749" lon="-105.229789">
  <ele>1583.0</ele>
  <time>2026-08-28T17:49:17Z</time>
  <course>0.0</course>
  <speed>0.0</speed>
  <fix>3d</fix>
</trkpt>
<trkpt lat="40.0713751" lon="-105.2297889">
  <ele>1582.99</ele>
  <time>2026-08-28T17:49:17Z</time>
  <course>247.05</course>
  <speed>0.022360679774997897</speed>
  <fix>3d</fix>
</trkpt>
<trkpt lat="40.0713749" lon="-105.229789">
  <ele>1583.0</ele>
  <time>2026-08-28T17:49:17Z</time>
  <course>0.0</course>
  <speed>0.0</speed>
  <fix>3d</fix>
</trkpt>
<trkpt lat="40.0713751" lon="-105.2297889">
  <ele>1583.0</ele>
  <time>2026-08-28T17:49:17Z</time>
  <course>247.05</course>
  <speed>0.022360679774997897</speed>
  <fix>3d</fix>
</trkpt>
<trkpt lat="40.0713749" lon="-105.229789">
  <ele>1583.0</ele>
  <time>2026-08-28T17:49:17Z</time>
  <course>0.0</course>
  <speed>0.0</speed>
  <fix>3d</fix>
</trkpt>
<trkpt lat="40.0713751" lon="-105.2297889">
  <ele>1583.01</ele>
  <time>2026-08-28T17:49:17Z</time>
  <course>247.05</course>
  <speed>0.022360679774997897</speed>
  <fix>3d</fix>
</trkpt>
<trkpt lat="40.0713749" lon="-105.229789">
  <ele>1583.0</ele>
  <time>2026-08-28T17:49:17Z</time>
  <course>0.0</course>
  <speed>0.0</speed>
  <fix>3d</fix>
</trkpt>
<trkpt lat="40.0713751" lon="-105.2297889">
  <ele>1583.02</ele>
  <time>2026-08-28T17:49:17Z</time>
  <course>247.05</course>
  <speed>0.022360679774997897</speed>
  <fix>3d</fix>
</trkpt>
<trkpt lat="40.0713749" lon="-105.229789">
  <ele>1583.0</ele>
  <time>2026-08-28T17:49:17Z</time>
  <course>0.0</course>
  <speed>0.0</speed>
  <fix>3d</fix>
</trkpt>
<trkpt lat="40.0713751" lon="-105.2297889">
  <ele>1583.02</ele>
  <time>2026-08-28T17:49:17Z</time>
  <course>247.05</course>
  <speed>0.022360679774997897</speed>
  <fix>3d</fix>
</trkpt>
<trkpt lat="40.0713749" lon="-105.229789">
  <ele>1583.0</ele>
  <time>2026-08-28T17:49:17Z</time>
  <course>0.0</course>
  <speed>0.0</speed>
  <fix>3d</fix>
</trkpt>
<trkpt lat="40.0713751" lon="-105.2297889">
  <ele>1583.03</ele>
  <time>2026-08-28T17:49:17Z</time>
  <course>247.05</course>
  <speed>0.022360679774997897</speed>
  <fix>3d</fix>
</trkpt>
<trkpt lat="40.0713749" lon="-105.229789">
  <ele>1583.0</ele>
  <time>2026-08-28T17:49:17Z</time>
  <course>0.0</course>
  <speed>0.0</speed>
  <fix>3d</fix>
</trkpt>
<trkpt lat="40.0713751" lon="-105.2297889">
  <ele>1583.03</ele>
  <time>2026-08-28T17:49:17Z</time>
  <course>247.05</course>
  <speed>0.022360679774997897</speed>
  <fix>3d</fix>
</trkpt>
<trkpt lat="40.0713749" lon="-105.229789">
  <ele>1583.0</ele>
  <time>2026-08-28T17:49:17Z</time>
  <course>0.0</course>
  <speed>0.0</speed>
  <fix>3d</fix>
</trkpt>
<trkpt lat="40.0713751" lon="-105.2297889">
  <ele>1583.04</ele>
  <time>2026-08-28T17:49:17Z</time>
  <course>247.05</course>
  <speed>0.022360679774997897</speed>
  <fix>3d</fix>
</trkpt>
<trkpt lat="40.0713749" lon="-105.229789">
  <ele>1583.0</ele>
  <time>2026-08-28T17:49:17Z</time>
  <course>0.0</course>
  <speed>0.0</speed>
  <fix>3d</fix>
</trkpt>
<trkpt lat="40.0713751" lon="-105.2297889">
  <ele>1583.05</ele>
  <time>2026-08-28T17:49:17Z</time>
  <course>247.05</course>
  <speed>0.022360679774997897</speed>
  <fix>3d</fix>
</trkpt>
<trkpt lat="40.0713749" lon="-105.229789">
  <ele>1583.0</ele>
  <time>2026-08-28T17:49:17Z</time>
  <course>0.0</course>
  <speed>0.0</speed>
  <fix>3d</fix>
</trkpt>
<trkpt lat="40.0713751" lon="-105.2297889">
  <ele>1583.05</ele>
  <time>2026-08-28T17:49:17Z</time>
  <course>247.05</course>
  <speed>0.022360679774997897</speed>
  <fix>3d</fix>
</trkpt>
<trkpt lat="40.0713749" lon="-105.229789">
  <ele>1583.0</ele>
  <time>2026-08-28T17:49:17Z</time>
  <course>0.0</course>
  <speed>0.0</speed>
  <fix>3d</fix>
</trkpt>
<trkpt lat="40.0713751" lon="-105.2297889">
  <ele>1583.05</ele>
  <time>2026-08-28T17:49:17Z</time>
  <course>247.05</course>
  <speed>0.022360679774997897</speed>
  <fix>3d</fix>
</trkpt>
<trkpt lat="40.0713749" lon="-105.229789">
  <ele>1583.0</ele>
  <time>2026-08-28T17:49:17Z</time>
  <course>0.0</course>
  <speed>0.0</speed>
  <fix>3d</fix>
</trkpt>
<trkpt lat="40.0713751" lon="-105.2297889">
  <ele>1583.06</ele>
  <time>2026-08-28T17:49:17Z</time>
  <course>247.05</course>
  <speed>0.022360679774997897</speed>
  <fix>3d</fix>
</trkpt>
<trkpt lat="40.0713749" lon="-105.229789">
  <ele>1583.0</ele>
  <time>2026-08-28T17:49:17Z</time>
  <course>0.0</course>
  <speed>0.0</speed>
  <fix>3d</fix>
</trkpt>
<trkpt lat="40.0713751" lon="-105.2297889">
  <ele>1583.07</ele>
  <time>2026-08-28T17:49:17Z</time>
  <course>247.05</course>
  <speed>0.022360679774997897</speed>
  <fix>3d</fix>
</trkpt>
<trkpt lat="40.0713749" lon="-105.229789">
  <ele>1583.0</ele>
  <time>2026-08-28T17:49:17Z</time>
  <course>0.0</course>
  <speed>0.0</speed>
  <fix>3d</fix>
</trkpt>
<trkpt lat="40.0713751" lon="-105.2297889">
  <ele>1583.07</ele>
  <time>2026-08-28T17:49:17Z</time>
  <course>247.05</course>
  <speed>0.022360679774997897</speed>
  <fix>3d</fix>
</trkpt>
<trkpt lat="40.0713749" lon="-105.229789">
  <ele>1583.0</ele>
  <time>2026-08-28T17:49:17Z</time>
  <course>0.0</course>
  <speed>0.0</speed>
  <fix>3d</fix>
</trkpt>
<trkpt lat="40.0713751" lon="-105.2297889">
  <ele>1583.08</ele>
  <time>2026-08-28T17:49:17Z</time>
  <course>247.05</course>
  <speed>0.022360679774997897</speed>
  <fix>3d</fix>
</trkpt>
<trkpt lat="40.0713749" lon="-105.229789">
  <ele>1583.0</ele>
  <time>2026-08-28T17:49:17Z</time>
  <course>0.0</course>
  <speed>0.0</speed>
  <fix>3d</fix>
</trkpt>
<trkpt lat="40.0713751" lon="-105.2297889">
  <ele>1583.08</ele>
  <time>2026-08-28T17:49:17Z</time>
  <course>247.05</course>
  <speed>0.022360679774997897</speed>
  <fix>3d</fix>
</trkpt>
<trkpt lat="40.0713749" lon="-105.229789">
  <ele>1583.0</ele>
  <time>2026-08-28T17:49:17Z</time>
  <course>0.0</course>
  <speed>0.0</speed>
  <fix>3d</fix>
</trkpt>
<trkpt lat="40.071375" lon="-105.2297889">
  <ele>1583.08</ele>
  <time>2026-08-28T17:49:17Z</time>
  <course>247.05</course>
  <speed>0.022360679774997897</speed>
  <fix>3d</fix>
</trkpt>
<trkpt lat="40.0713749" lon="-105.229789">
  <ele>1583.0</ele>
  <time>2026-08-28T17:49:17Z</time>
  <course>0.0</course>
  <speed>0.0</speed>
  <fix>3d</fix>
</trkpt>
<trkpt lat="40.0713751" lon="-105.2297889">
  <ele>1583.07</ele>
  <time>2026-08-28T17:49:17Z</time>
  <course>247.05</course>
  <speed>0.022360679774997897</speed>
  <fix>3d</fix>
</trkpt>
<trkpt lat="40.0713749" lon="-105.229789">
  <ele>1583.0</ele>
  <time>2026-08-28T17:49:17Z</time>
  <course>0.0</course>
  <speed>0.0</speed>
  <fix>3d</fix>
</trkpt>
<trkpt lat="40.071375" lon="-105.2297889">
  <ele>1583.07</ele>
  <time>2026-08-28T17:49:17Z</time>
  <course>247.05</course>
  <speed>0.022360679774997897</speed>
  <fix>3d</fix>
</trkpt>
<trkpt lat="40.0713749" lon="-105.229789">
  <ele>1583.0</ele>
  <time>2026-08-28T17:49:17Z</time>
  <course>0.0</course>
  <speed>0.0</speed>
  <fix>3d</fix>
</trkpt>
<trkpt lat="40.0713751" lon="-105.2297889">
  <ele>1583.06</ele>
  <time>2026-08-28T17:49:17Z</time>
  <course>247.05</course>
  <speed>0.022360679774997897</speed>
  <fix>3d</fix>
</trkpt>
<trkpt lat="40.0713749" lon="-105.229789">
  <ele>1583.0</ele>
  <time>2026-08-28T17:49:17Z</time>
  <course>0.0</course>
  <speed>0.0</speed>
  <fix>3d</fix>
</trkpt>
<trkpt lat="40.071375" lon="-105.2297889">
  <ele>1583.06</ele>
  <time>2026-08-28T17:49:17Z</time>
  <course>247.05</course>
  <speed>0.022360679774997897</speed>
  <fix>3d</fix>
</trkpt>
<trkpt lat="40.0713749" lon="-105.229789">
  <ele>1583.0</ele>
  <time>2026-08-28T17:49:17Z</time>
  <course>0.0</course>
  <speed>0.0</speed>
  <fix>3d</fix>
</trkpt>
<trkpt lat="40.0713751" lon="-105.2297889">
  <ele>1583.05</ele>
  <time>2026-08-28T17:49:17Z</time>
  <course>247.05</course>
  <speed>0.022360679774997897</speed>
  <fix>3d</fix>
</trkpt>
<trkpt lat="40.0713749" lon="-105.229789">
  <ele>1583.0</ele>
  <time>2026-08-28T17:49:17Z</time>
  <course>0.0</course>
  <speed>0.0</speed>
  <fix>3d</fix>
</trkpt>
<trkpt lat="40.071375" lon="-105.2297889">
  <ele>1583.05</ele>
  <time>2026-08-28T17:49:17Z</time>
  <course>247.05</course>
  <speed>0.022360679774997897</speed>
  <fix>3d</fix>
</trkpt>
<trkpt lat="40.0713749" lon="-105.229789">
  <ele>1583.0</ele>
  <time>2026-08-28T17:49:17Z</time>
  <course>0.0</course>
  <speed>0.0</speed>
  <fix>3d</fix>
</trkpt>
<trkpt lat="40.0713751" lon="-105.2297889">
  <ele>1583.04</ele>
  <time>2026-08-28T17:49:17Z</time>
  <course>247.05</course>
  <speed>0.022360679774997897</speed>
  <fix>3d</fix>
</trkpt>
<trkpt lat="40.0713749" lon="-105.229789">
  <ele>1583.0</ele>
  <time>2026-08-28T17:49:17Z</time>
  <course>0.0</course>
  <speed>0.0</speed>
  <fix>3d</fix>
</trkpt>
<trkpt lat="40.071375" lon="-105.2297889">
  <ele>1583.03</ele>
  <time>2026-08-28T17:49:17Z</time>
  <course>247.05</course>
  <speed>0.022360679774997897</speed>
  <fix>3d</fix>
</trkpt>
<trkpt lat="40.0713749" lon="-105.229789">
  <ele>1583.0</ele>
  <time>2026-08-28T17:49:17Z</time>
  <course>0.0</course>
  <speed>0.0</speed>
  <fix>3d</fix>
</trkpt>
<trkpt lat="40.0713751" lon="-105.2297889">
  <ele>1583.02</ele>
  <time>2026-08-28T17:49:17Z</time>
  <course>247.05</course>
  <speed>0.022360679774997897</speed>
  <fix>3d</fix>
</trkpt>
<trkpt lat="40.0713749" lon="-105.229789">
  <ele>1583.0</ele>
  <time>2026-08-28T17:49:17Z</time>
  <course>0.0</course>
  <speed>0.0</speed>
  <fix>3d</fix>
</trkpt>
<trkpt lat="40.071375" lon="-105.2297889">
  <ele>1583.01</ele>
  <time>2026-08-28T17:49:17Z</time>
  <course>247.05</course>
  <speed>0.022360679774997897</speed>
  <fix>3d</fix>
</trkpt>
<trkpt lat="40.0713749" lon="-105.229789">
  <ele>1583.0</ele>
  <time>2026-08-28T17:49:17Z</time>
  <course>0.0</course>
  <speed>0.0</speed>
  <fix>3d</fix>
</trkpt>
<trkpt lat="40.0713751" lon="-105.2297889">
  <ele>1583.0</ele>
  <time>2026-08-28T17:49:17Z</time>
  <course>247.05</course>
  <speed>0.022360679774997897</speed>
  <fix>3d</fix>
</trkpt>
<trkpt lat="40.0713749" lon="-105.229789">
  <ele>1583.0</ele>
  <time>2026-08-28T17:49:17Z</time>
  <course>0.0</course>
  <speed>0.0</speed>
  <fix>3d</fix>
</trkpt>
<trkpt lat="40.0713751" lon="-105.2297889">
  <ele>1583.0</ele>
  <time>2026-08-28T17:49:17Z</time>
  <course>247.05</course>
  <speed>0.022360679774997897</speed>
  <fix>3d</fix>
</trkpt>
<trkpt lat="40.0713749" lon="-105.229789">
  <ele>1583.0</ele>
  <time>2026-08-28T17:49:17Z</time>
  <course>0.0</course>
  <speed>0.0</speed>
  <fix>3d</fix>
</trkpt>
<trkpt lat="40.0713751" lon="-105.2297889">
  <ele>1582.99</ele>
  <time>2026-08-28T17:49:17Z</time>
  <course>247.05</course>
  <speed>0.022360679774997897</speed>
  <fix>3d</fix>
</trkpt>
<trkpt lat="40.0713749" lon="-105.229789">
  <ele>1583.0</ele>
  <time>2026-08-28T17:49:17Z</time>
  <course>0.0</course>
  <speed>0.0</speed>
  <fix>3d</fix>
</trkpt>
<trkpt lat="40.0713751" lon="-105.2297889">
  <ele>1582.99</ele>
  <time>2026-08-28T17:49:17Z</time>
  <course>247.05</course>
  <speed>0.022360679774997897</speed>
  <fix>3d</fix>
</trkpt>
<trkpt lat="40.0713749" lon="-105.229789">
  <ele>1583.0</ele>
  <time>2026-08-28T17:49:17Z</time>
  <course>0.0</course>
  <speed>0.0</speed>
  <fix>3d</fix>
</trkpt>
<trkpt lat="40.0713751" lon="-105.2297889">
  <ele>1582.99</ele>
  <time>2026-08-28T17:49:17Z</time>
  <course>247.05</course>
  <speed>0.022360679774997897</speed>
  <fix>3d</fix>
</trkpt>
<trkpt lat="40.0713749" lon="-105.229789">
  <ele>1583.0</ele>
  <time>2026-08-28T17:49:17Z</time>
  <course>0.0</course>
  <speed>0.0</speed>
  <fix>3d</fix>
</trkpt>
<trkpt lat="40.0713751" lon="-105.2297889">
  <ele>1582.98</ele>
  <time>2026-08-28T17:49:17Z</time>
  <course>247.05</course>
  <speed>0.022360679774997897</speed>
  <fix>3d</fix>
</trkpt>
<trkpt lat="40.0713749" lon="-105.229789">
  <ele>1583.0</ele>
  <time>2026-08-28T17:49:17Z</time>
  <course>0.0</course>
  <speed>0.0</speed>
  <fix>3d</fix>
</trkpt>
<trkpt lat="40.0713751" lon="-105.2297889">
  <ele>1582.98</ele>
  <time>2026-08-28T17:49:17Z</time>
  <course>247.05</course>
  <speed>0.022360679774997897</speed>
  <fix>3d</fix>
</trkpt>
<trkpt lat="40.0713749" lon="-105.229789">
  <ele>1583.0</ele>
  <time>2026-08-28T17:49:17Z</time>
  <course>0.0</course>
  <speed>0.0</speed>
  <fix>3d</fix>
</trkpt>
<trkpt lat="40.071375" lon="-105.2297889">
  <ele>1582.98</ele>
  <time>2026-08-28T17:49:17Z</time>
  <course>247.05</course>
  <speed>0.022360679774997897</speed>
  <fix>3d</fix>
</trkpt>
<trkpt lat="40.0713749" lon="-105.229789">
  <ele>1583.0</ele>
  <time>2026-08-28T17:49:17Z</time>
  <course>0.0</course>
  <speed>0.0</speed>
  <fix>3d</fix>
</trkpt>
<trkpt lat="40.0713751" lon="-105.2297889">
  <ele>1582.98</ele>
  <time>2026-08-28T17:49:17Z</time>
  <course>247.05</course>
  <speed>0.022360679774997897</speed>
  <fix>3d</fix>
</trkpt>
<trkpt lat="40.0713749" lon="-105.229789">
  <ele>1583.0</ele>
  <time>2026-08-28T17:49:17Z</time>
  <course>0.0</course>
  <speed>0.0</speed>
  <fix>3d</fix>
</trkpt>
<trkpt lat="40.071375" lon="-105.2297889">
  <ele>1582.97</ele>
  <time>2026-08-28T17:49:17Z</time>
  <course>247.05</course>
  <speed>0.022360679774997897</speed>
  <fix>3d</fix>
</trkpt>
<trkpt lat="40.0713749" lon="-105.229789">
  <ele>1583.0</ele>
  <time>2026-08-28T17:49:17Z</time>
  <course>0.0</course>
  <speed>0.0</speed>
  <fix>3d</fix>
</trkpt>
<trkpt lat="40.0713751" lon="-105.2297889">
  <ele>1582.97</ele>
  <time>2026-08-28T17:49:17Z</time>
  <course>247.05</course>
  <speed>0.022360679774997897</speed>
  <fix>3d</fix>
</trkpt>
<trkpt lat="40.0713749" lon="-105.229789">
  <ele>1583.0</ele>
  <time>2026-08-28T17:49:17Z</time>
  <course>0.0</course>
  <speed>0.0</speed>
  <fix>3d</fix>
</trkpt>
<trkpt lat="40.071375" lon="-105.2297889">
  <ele>1582.96</ele>
  <time>2026-08-28T17:49:17Z</time>
  <course>247.05</course>
  <speed>0.022360679774997897</speed>
  <fix>3d</fix>
</trkpt>
<trkpt lat="40.0713749" lon="-105.229789">
  <ele>1583.0</ele>
  <time>2026-08-28T17:49:17Z</time>
  <course>0.0</course>
  <speed>0.0</speed>
  <fix>3d</fix>
</trkpt>
<trkpt lat="40.0713751" lon="-105.2297889">
  <ele>1582.96</ele>
  <time>2026-08-28T17:49:17Z</time>
  <course>247.05</course>
  <speed>0.022360679774997897</speed>
  <fix>3d</fix>
</trkpt>
<trkpt lat="40.0713749" lon="-105.229789">
  <ele>1583.0</ele>
  <time>2026-08-28T17:49:17Z</time>
  <course>0.0</course>
  <speed>0.0</speed>
  <fix>3d</fix>
</trkpt>
<trkpt lat="40.071375" lon="-105.2297889">
  <ele>1582.95</ele>
  <time>2026-08-28T17:49:17Z</time>
  <course>247.05</course>
  <speed>0.022360679774997897</speed>
  <fix>3d</fix>
</trkpt>
<trkpt lat="40.0713749" lon="-105.229789">
  <ele>1583.0</ele>
  <time>2026-08-28T17:49:17Z</time>
  <course>0.0</course>
  <speed>0.0</speed>
  <fix>3d</fix>
</trkpt>
<trkpt lat="40.0713751" lon="-105.2297889">
  <ele>1582.95</ele>
  <time>2026-08-28T17:49:17Z</time>
  <course>247.05</course>
  <speed>0.022360679774997897</speed>
  <fix>3d</fix>
</trkpt>
<trkpt lat="40.0713749" lon="-105.229789">
  <ele>1583.0</ele>
  <time>2026-08-28T17:49:17Z</time>
  <course>0.0</course>
  <speed>0.0</speed>
  <fix>3d</fix>
</trkpt>
<trkpt lat="40.071375" lon="-105.2297889">
  <ele>1582.94</ele>
  <time>2026-08-28T17:49:17Z</time>
  <course>247.05</course>
  <speed>0.022360679774997897</speed>
  <fix>3d</fix>
</trkpt>
<trkpt lat="40.0713749" lon="-105.229789">
  <ele>1583.0</ele>
  <time>2026-08-28T17:49:17Z</time>
  <course>0.0</course>
  <speed>0.0</speed>
  <fix>3d</fix>
</trkpt>
<trkpt lat="40.0713751" lon="-105.2297889">
  <ele>1582.94</ele>
  <time>2026-08-28T17:49:17Z</time>
  <course>247.05</course>
  <speed>0.022360679774997897</speed>
  <fix>3d</fix>
</trkpt>
<trkpt lat="40.0713749" lon="-105.229789">
  <ele>1583.0</ele>
  <time>2026-08-28T17:49:17Z</time>
  <course>0.0</course>
  <speed>0.0</speed>
  <fix>3d</fix>
</trkpt>
<trkpt lat="40.071375" lon="-105.2297889">
  <ele>1582.93</ele>
  <time>2026-08-28T17:49:17Z</time>
  <course>247.05</course>
  <speed>0.022360679774997897</speed>
  <fix>3d</fix>
</trkpt>
<trkpt lat="40.0713749" lon="-105.229789">
  <ele>1583.0</ele>
  <time>2026-08-28T17:49:17Z</time>
  <course>0.0</course>
  <speed>0.0</speed>
  <fix>3d</fix>
</trkpt>
<trkpt lat="40.0713751" lon="-105.2297889">
  <ele>1582.93</ele>
  <time>2026-08-28T17:49:17Z</time>
  <course>247.05</course>
  <speed>0.022360679774997897</speed>
  <fix>3d</fix>
</trkpt>
<trkpt lat="40.0713749" lon="-105.229789">
  <ele>1583.0</ele>
  <time>2026-08-28T17:49:17Z</time>
  <course>0.0</course>
  <speed>0.0</speed>
  <fix>3d</fix>
</trkpt>
<trkpt lat="40.071375" lon="-105.2297889">
  <ele>1582.93</ele>
  <time>2026-08-28T17:49:17Z</time>
  <course>247.05</course>
  <speed>0.022360679774997897</speed>
  <fix>3d</fix>
</trkpt>
<trkpt lat="40.0713749" lon="-105.229789">
  <ele>1583.0</ele>
  <time>2026-08-28T17:49:17Z</time>
  <course>0.0</course>
  <speed>0.0</speed>
  <fix>3d</fix>
</trkpt>
<trkpt lat="40.0713751" lon="-105.2297889">
  <ele>1582.92</ele>
  <time>2026-08-28T17:49:17Z</time>
  <course>247.05</course>
  <speed>0.022360679774997897</speed>
  <fix>3d</fix>
</trkpt>
<trkpt lat="40.0713749" lon="-105.229789">
  <ele>1583.0</ele>
  <time>2026-08-28T17:49:17Z</time>
  <course>0.0</course>
  <speed>0.0</speed>
  <fix>3d</fix>
</trkpt>
<trkpt lat="40.0713751" lon="-105.2297889">
  <ele>1582.92</ele>
  <time>2026-08-28T17:49:17Z</time>
  <course>247.05</course>
  <speed>0.022360679774997897</speed>
  <fix>3d</fix>
</trkpt>
<trkpt lat="40.0713749" lon="-105.229789">
  <ele>1583.0</ele>
  <time>2026-08-28T17:49:17Z</time>
  <course>0.0</course>
  <speed>0.0</speed>
  <fix>3d</fix>
</trkpt>
<trkpt lat="40.0713751" lon="-105.2297889">
  <ele>1582.92</ele>
  <time>2026-08-28T17:49:17Z</time>
  <course>247.05</course>
  <speed>0.022360679774997897</speed>
  <fix>3d</fix>
</trkpt>
<trkpt lat="40.0713749" lon="-105.229789">
  <ele>1583.0</ele>
  <time>2026-08-28T17:49:17Z</time>
  <course>0.0</course>
  <speed>0.0</speed>
  <fix>3d</fix>
</trkpt>
<trkpt lat="40.0713751" lon="-105.2297889">
  <ele>1582.91</ele>
  <time>2026-08-28T17:49:17Z</time>
  <course>247.05</course>
  <speed>0.022360679774997897</speed>
  <fix>3d</fix>
</trkpt>
<trkpt lat="40.0713749" lon="-105.229789">
  <ele>1583.0</ele>
  <time>2026-08-28T17:49:17Z</time>
  <course>0.0</course>
  <speed>0.0</speed>
  <fix>3d</fix>
</trkpt>
<trkpt lat="40.0713751" lon="-105.2297889">
  <ele>1582.91</ele>
  <time>2026-08-28T17:49:17Z</time>
  <course>247.05</course>
  <speed>0.022360679774997897</speed>
  <fix>3d</fix>
</trkpt>
<trkpt lat="40.0713749" lon="-105.229789">
  <ele>1583.0</ele>
  <time>2026-08-28T17:49:17Z</time>
  <course>0.0</course>
  <speed>0.0</speed>
  <fix>3d</fix>
</trkpt>
<trkpt lat="40.0713751" lon="-105.2297889">
  <ele>1582.9</ele>
  <time>2026-08-28T17:49:17Z</time>
  <course>247.05</course>
  <speed>0.022360679774997897</speed>
  <fix>3d</fix>
</trkpt>
<trkpt lat="40.0713749" lon="-105.229789">
  <ele>1583.0</ele>
  <time>2026-08-28T17:49:17Z</time>
  <course>0.0</course>
  <speed>0.0</speed>
  <fix>3d</fix>
</trkpt>
<trkpt lat="40.0713751" lon="-105.2297889">
  <ele>1582.89</ele>
  <time>2026-08-28T17:49:17Z</time>
  <course>247.04</course>
  <speed>0.022360679774997897</speed>
  <fix>3d</fix>
</trkpt>
<trkpt lat="40.0713749" lon="-105.229789">
  <ele>1583.0</ele>
  <time>2026-08-28T17:49:17Z</time>
  <course>0.0</course>
  <speed>0.0</speed>
  <fix>3d</fix>
</trkpt>
<trkpt lat="40.0713751" lon="-105.2297889">
  <ele>1582.89</ele>
  <time>2026-08-28T17:49:17Z</time>
  <course>247.04</course>
  <speed>0.022360679774997897</speed>
  <fix>3d</fix>
</trkpt>
<trkpt lat="40.0713749" lon="-105.229789">
  <ele>1583.0</ele>
  <time>2026-08-28T17:49:17Z</time>
  <course>0.0</course>
  <speed>0.0</speed>
  <fix>3d</fix>
</trkpt>
<trkpt lat="40.0713751" lon="-105.2297889">
  <ele>1582.89</ele>
  <time>2026-08-28T17:49:17Z</time>
  <course>247.04</course>
  <speed>0.022360679774997897</speed>
  <fix>3d</fix>
</trkpt>
<trkpt lat="40.0713749" lon="-105.229789">
  <ele>1583.0</ele>
  <time>2026-08-28T17:49:17Z</time>
  <course>0.0</course>
  <speed>0.0</speed>
  <fix>3d</fix>
</trkpt>
<trkpt lat="40.071375" lon="-105.2297889">
  <ele>1582.89</ele>
  <time>2026-08-28T17:49:17Z</time>
  <course>247.04</course>
  <speed>0.022360679774997897</speed>
  <fix>3d</fix>
</trkpt>
<trkpt lat="40.0713749" lon="-105.229789">
  <ele>1583.0</ele>
  <time>2026-08-28T17:49:17Z</time>
  <course>0.0</course>
  <speed>0.0</speed>
  <fix>3d</fix>
</trkpt>
<trkpt lat="40.0713751" lon="-105.2297889">
  <ele>1582.89</ele>
  <time>2026-08-28T17:49:17Z</time>
  <course>247.04</course>
  <speed>0.022360679774997897</speed>
  <fix>3d</fix>
</trkpt>
<trkpt lat="40.0713749" lon="-105.229789">
  <ele>1583.0</ele>
  <time>2026-08-28T17:49:17Z</time>
  <course>0.0</course>
  <speed>0.0</speed>
  <fix>3d</fix>
</trkpt>
<trkpt lat="40.071375" lon="-105.2297889">
  <ele>1582.9</ele>
  <time>2026-08-28T17:49:17Z</time>
  <course>247.04</course>
  <speed>0.022360679774997897</speed>
  <fix>3d</fix>
</trkpt>
<trkpt lat="40.0713749" lon="-105.229789">
  <ele>1583.0</ele>
  <time>2026-08-28T17:49:17Z</time>
  <course>0.0</course>
  <speed>0.0</speed>
  <fix>3d</fix>
</trkpt>
<trkpt lat="40.0713751" lon="-105.2297889">
  <ele>1582.9</ele>
  <time>2026-08-28T17:49:17Z</time>
  <course>247.04</course>
  <speed>0.022360679774997897</speed>
  <fix>3d</fix>
</trkpt>
<trkpt lat="40.0713749" lon="-105.229789">
  <ele>1583.0</ele>
  <time>2026-08-28T17:49:17Z</time>
  <course>0.0</course>
  <speed>0.0</speed>
  <fix>3d</fix>
</trkpt>
<trkpt lat="40.071375" lon="-105.2297889">
  <ele>1582.91</ele>
  <time>2026-08-28T17:49:17Z</time>
  <course>247.04</course>
  <speed>0.022360679774997897</speed>
  <fix>3d</fix>
</trkpt>
<trkpt lat="40.0713749" lon="-105.229789">
  <ele>1583.0</ele>
  <time>2026-08-28T17:49:17Z</time>
  <course>0.0</course>
  <speed>0.0</speed>
  <fix>3d</fix>
</trkpt>
<trkpt lat="40.0713751" lon="-105.2297889">
  <ele>1582.91</ele>
  <time>2026-08-28T17:49:17Z</time>
  <course>247.04</course>
  <speed>0.022360679774997897</speed>
  <fix>3d</fix>
</trkpt>
<trkpt lat="40.0713749" lon="-105.229789">
  <ele>1583.0</ele>
  <time>2026-08-28T17:49:17Z</time>
  <course>0.0</course>
  <speed>0.0</speed>
  <fix>3d</fix>
</trkpt>
<trkpt lat="40.071375" lon="-105.2297889">
  <ele>1582.91</ele>
  <time>2026-08-28T17:49:17Z</time>
  <course>247.04</course>
  <speed>0.022360679774997897</speed>
  <fix>3d</fix>
</trkpt>
<trkpt lat="40.0713749" lon="-105.229789">
  <ele>1583.0</ele>
  <time>2026-08-28T17:49:17Z</time>
  <course>0.0</course>
  <speed>0.0</speed>
  <fix>3d</fix>
</trkpt>
<trkpt lat="40.0713751" lon="-105.2297889">
  <ele>1582.92</ele>
  <time>2026-08-28T17:49:17Z</time>
  <course>247.04</course>
  <speed>0.022360679774997897</speed>
  <fix>3d</fix>
</trkpt>
<trkpt lat="40.0713749" lon="-105.229789">
  <ele>1583.0</ele>
  <time>2026-08-28T17:49:17Z</time>
  <course>0.0</course>
  <speed>0.0</speed>
  <fix>3d</fix>
</trkpt>
<trkpt lat="40.071375" lon="-105.2297889">
  <ele>1582.92</ele>
  <time>2026-08-28T17:49:17Z</time>
  <course>247.04</course>
  <speed>0.022360679774997897</speed>
  <fix>3d</fix>
</trkpt>
<trkpt lat="40.0713749" lon="-105.229789">
  <ele>1583.0</ele>
  <time>2026-08-28T17:49:17Z</time>
  <course>0.0</course>
  <speed>0.0</speed>
  <fix>3d</fix>
</trkpt>
<trkpt lat="40.0713751" lon="-105.2297889">
  <ele>1582.92</ele>
  <time>2026-08-28T17:49:17Z</time>
  <course>247.04</course>
  <speed>0.022360679774997897</speed>
  <fix>3d</fix>
</trkpt>
<trkpt lat="40.0713749" lon="-105.229789">
  <ele>1583.0</ele>
  <time>2026-08-28T17:49:17Z</time>
  <course>0.0</course>
  <speed>0.0</speed>
  <fix>3d</fix>
</trkpt>
<trkpt lat="40.071375" lon="-105.2297889">
  <ele>1582.92</ele>
  <time>2026-08-28T17:49:17Z</time>
  <course>247.04</course>
  <speed>0.022360679774997897</speed>
  <fix>3d</fix>
</trkpt>
<trkpt lat="40.0713749" lon="-105.229789">
  <ele>1583.0</ele>
  <time>2026-08-28T17:49:17Z</time>
  <course>0.0</course>
  <speed>0.0</speed>
  <fix>3d</fix>
</trkpt>
<trkpt lat="40.0713751" lon="-105.2297889">
  <ele>1582.92</ele>
  <time>2026-08-28T17:49:17Z</time>
  <course>247.04</course>
  <speed>0.022360679774997897</speed>
  <fix>3d</fix>
</trkpt>
<trkpt lat="40.0713749" lon="-105.229789">
  <ele>1583.0</ele>
  <time>2026-08-28T17:49:17Z</time>
  <course>0.0</course>
  <speed>0.0</speed>
  <fix>3d</fix>
</trkpt>
<trkpt lat="40.071375" lon="-105.2297889">
  <ele>1582.92</ele>
  <time>2026-08-28T17:49:17Z</time>
  <course>247.04</course>
  <speed>0.02</speed>
  <fix>3d</fix>
</trkpt>
<trkpt lat="40.0713749" lon="-105.229789">
  <ele>1583.0</ele>
  <time>2026-08-28T17:49:17Z</time>
  <course>0.0</course>
  <speed>0.0</speed>
  <fix>3d</fix>
</trkpt>
<trkpt lat="40.0713751" lon="-105.2297889">
  <ele>1582.92</ele>
  <time>2026-08-28T17:49:17Z</time>
  <course>247.04</course>
  <speed>0.022360679774997897</speed>
  <fix>3d</fix>
</trkpt>
<trkpt lat="40.0713749" lon="-105.229789">
  <ele>1583.0</ele>
  <time>2026-08-28T17:49:17Z</time>
  <course>0.0</course>
  <speed>0.0</speed>
  <fix>3d</fix>
</trkpt>
<trkpt lat="40.0713751" lon="-105.2297889">
  <ele>1582.92</ele>
  <time>2026-08-28T17:49:17Z</time>
  <course>247.04</course>
  <speed>0.022360679774997897</speed>
  <fix>3d</fix>
</trkpt>
<trkpt lat="40.0713749" lon="-105.229789">
  <ele>1583.0</ele>
  <time>2026-08-28T17:49:17Z</time>
  <course>0.0</course>
  <speed>0.0</speed>
  <fix>3d</fix>
</trkpt>
<trkpt lat="40.0713751" lon="-105.2297889">
  <ele>1582.92</ele>
  <time>2026-08-28T17:49:17Z</time>
  <course>247.04</course>
  <speed>0.022360679774997897</speed>
  <fix>3d</fix>
</trkpt>
<trkpt lat="40.0713749" lon="-105.229789">
  <ele>1583.0</ele>
  <time>2026-08-28T17:49:17Z</time>
  <course>0.0</course>
  <speed>0.0</speed>
  <fix>3d</fix>
</trkpt>
<trkpt lat="40.0713751" lon="-105.2297889">
  <ele>1582.92</ele>
  <time>2026-08-28T17:49:18Z</time>
  <course>247.04</course>
  <speed>0.022360679774997897</speed>
  <fix>3d</fix>
</trkpt>
<trkpt lat="40.0713749" lon="-105.229789">
  <ele>1583.0</ele>
  <time>2026-08-28T17:49:18Z</time>
  <course>0.0</course>
  <speed>0.0</speed>
  <fix>3d</fix>
</trkpt>
<trkpt lat="40.0713751" lon="-105.2297889">
  <ele>1582.93</ele>
  <time>2026-08-28T17:49:18Z</time>
  <course>247.04</course>
  <speed>0.022360679774997897</speed>
  <fix>3d</fix>
</trkpt>
<trkpt lat="40.0713749" lon="-105.229789">
  <ele>1583.0</ele>
  <time>2026-08-28T17:49:18Z</time>
  <course>0.0</course>
  <speed>0.0</speed>
  <fix>3d</fix>
</trkpt>
<trkpt lat="40.0713751" lon="-105.2297889">
  <ele>1582.93</ele>
  <time>2026-08-28T17:49:18Z</time>
  <course>247.04</course>
  <speed>0.022360679774997897</speed>
  <fix>3d</fix>
</trkpt>
<trkpt lat="40.0713749" lon="-105.229789">
  <ele>1583.0</ele>
  <time>2026-08-28T17:49:18Z</time>
  <course>0.0</course>
  <speed>0.0</speed>
  <fix>3d</fix>
</trkpt>
<trkpt lat="40.0713751" lon="-105.2297889">
  <ele>1582.93</ele>
  <time>2026-08-28T17:49:18Z</time>
  <course>247.04</course>
  <speed>0.022360679774997897</speed>
  <fix>3d</fix>
</trkpt>
<trkpt lat="40.0713749" lon="-105.229789">
  <ele>1583.0</ele>
  <time>2026-08-28T17:49:18Z</time>
  <course>0.0</course>
  <speed>0.0</speed>
  <fix>3d</fix>
</trkpt>
<trkpt lat="40.0713751" lon="-105.2297889">
  <ele>1582.93</ele>
  <time>2026-08-28T17:49:18Z</time>
  <course>247.04</course>
  <speed>0.022360679774997897</speed>
  <fix>3d</fix>
</trkpt>
<trkpt lat="40.0713749" lon="-105.229789">
  <ele>1583.0</ele>
  <time>2026-08-28T17:49:18Z</time>
  <course>0.0</course>
  <speed>0.0</speed>
  <fix>3d</fix>
</trkpt>
<trkpt lat="40.0713751" lon="-105.2297889">
  <ele>1582.94</ele>
  <time>2026-08-28T17:49:18Z</time>
  <course>247.04</course>
  <speed>0.022360679774997897</speed>
  <fix>3d</fix>
</trkpt>
<trkpt lat="40.0713749" lon="-105.229789">
  <ele>1583.0</ele>
  <time>2026-08-28T17:49:18Z</time>
  <course>0.0</course>
  <speed>0.0</speed>
  <fix>3d</fix>
</trkpt>
<trkpt lat="40.071375" lon="-105.2297889">
  <ele>1582.94</ele>
  <time>2026-08-28T17:49:18Z</time>
  <course>247.04</course>
  <speed>0.022360679774997897</speed>
  <fix>3d</fix>
</trkpt>
<trkpt lat="40.0713749" lon="-105.229789">
  <ele>1583.0</ele>
  <time>2026-08-28T17:49:18Z</time>
  <course>0.0</course>
  <speed>0.0</speed>
  <fix>3d</fix>
</trkpt>
<trkpt lat="40.0713751" lon="-105.2297889">
  <ele>1582.95</ele>
  <time>2026-08-28T17:49:18Z</time>
  <course>247.04</course>
  <speed>0.022360679774997897</speed>
  <fix>3d</fix>
</trkpt>
<trkpt lat="40.0713749" lon="-105.229789">
  <ele>1583.0</ele>
  <time>2026-08-28T17:49:18Z</time>
  <course>0.0</course>
  <speed>0.0</speed>
  <fix>3d</fix>
</trkpt>
<trkpt lat="40.071375" lon="-105.2297889">
  <ele>1582.96</ele>
  <time>2026-08-28T17:49:18Z</time>
  <course>247.04</course>
  <speed>0.022360679774997897</speed>
  <fix>3d</fix>
</trkpt>
<trkpt lat="40.0713749" lon="-105.229789">
  <ele>1583.0</ele>
  <time>2026-08-28T17:49:18Z</time>
  <course>0.0</course>
  <speed>0.0</speed>
  <fix>3d</fix>
</trkpt>
<trkpt lat="40.0713751" lon="-105.2297889">
  <ele>1582.97</ele>
  <time>2026-08-28T17:49:18Z</time>
  <course>247.04</course>
  <speed>0.022360679774997897</speed>
  <fix>3d</fix>
</trkpt>
<trkpt lat="40.0713749" lon="-105.229789">
  <ele>1583.0</ele>
  <time>2026-08-28T17:49:18Z</time>
  <course>0.0</course>
  <speed>0.0</speed>
  <fix>3d</fix>
</trkpt>
<trkpt lat="40.071375" lon="-105.2297889">
  <ele>1582.98</ele>
  <time>2026-08-28T17:49:18Z</time>
  <course>247.04</course>
  <speed>0.022360679774997897</speed>
  <fix>3d</fix>
</trkpt>
<trkpt lat="40.0713749" lon="-105.229789">
  <ele>1583.0</ele>
  <time>2026-08-28T17:49:18Z</time>
  <course>0.0</course>
  <speed>0.0</speed>
  <fix>3d</fix>
</trkpt>
<trkpt lat="40.0713751" lon="-105.2297889">
  <ele>1582.99</ele>
  <time>2026-08-28T17:49:18Z</time>
  <course>247.04</course>
  <speed>0.022360679774997897</speed>
  <fix>3d</fix>
</trkpt>
<trkpt lat="40.0713749" lon="-105.229789">
  <ele>1583.0</ele>
  <time>2026-08-28T17:49:18Z</time>
  <course>0.0</course>
  <speed>0.0</speed>
  <fix>3d</fix>
</trkpt>
<trkpt lat="40.071375" lon="-105.2297889">
  <ele>1582.99</ele>
  <time>2026-08-28T17:49:18Z</time>
  <course>247.04</course>
  <speed>0.022360679774997897</speed>
  <fix>3d</fix>
</trkpt>
<trkpt lat="40.0713749" lon="-105.229789">
  <ele>1583.0</ele>
  <time>2026-08-28T17:49:18Z</time>
  <course>0.0</course>
  <speed>0.0</speed>
  <fix>3d</fix>
</trkpt>
<trkpt lat="40.0713751" lon="-105.2297889">
  <ele>1582.99</ele>
  <time>2026-08-28T17:49:18Z</time>
  <course>247.04</course>
  <speed>0.022360679774997897</speed>
  <fix>3d</fix>
</trkpt>
<trkpt lat="40.0713749" lon="-105.229789">
  <ele>1583.0</ele>
  <time>2026-08-28T17:49:18Z</time>
  <course>0.0</course>
  <speed>0.0</speed>
  <fix>3d</fix>
</trkpt>
<trkpt lat="40.071375" lon="-105.2297889">
  <ele>1582.99</ele>
  <time>2026-08-28T17:49:18Z</time>
  <course>247.04</course>
  <speed>0.022360679774997897</speed>
  <fix>3d</fix>
</trkpt>
<trkpt lat="40.0713749" lon="-105.229789">
  <ele>1583.0</ele>
  <time>2026-08-28T17:49:18Z</time>
  <course>0.0</course>
  <speed>0.0</speed>
  <fix>3d</fix>
</trkpt>
<trkpt lat="40.0713751" lon="-105.2297889">
  <ele>1582.99</ele>
  <time>2026-08-28T17:49:18Z</time>
  <course>247.04</course>
  <speed>0.022360679774997897</speed>
  <fix>3d</fix>
</trkpt>
<trkpt lat="40.0713749" lon="-105.229789">
  <ele>1583.0</ele>
  <time>2026-08-28T17:49:18Z</time>
  <course>0.0</course>
  <speed>0.0</speed>
  <fix>3d</fix>
</trkpt>
<trkpt lat="40.071375" lon="-105.2297889">
  <ele>1582.99</ele>
  <time>2026-08-28T17:49:18Z</time>
  <course>247.04</course>
  <speed>0.022360679774997897</speed>
  <fix>3d</fix>
</trkpt>
<trkpt lat="40.0713749" lon="-105.229789">
  <ele>1583.0</ele>
  <time>2026-08-28T17:49:18Z</time>
  <course>0.0</course>
  <speed>0.0</speed>
  <fix>3d</fix>
</trkpt>
<trkpt lat="40.0713751" lon="-105.2297889">
  <ele>1582.98</ele>
  <time>2026-08-28T17:49:18Z</time>
  <course>247.04</course>
  <speed>0.022360679774997897</speed>
  <fix>3d</fix>
</trkpt>
<trkpt lat="40.0713749" lon="-105.229789">
  <ele>1583.0</ele>
  <time>2026-08-28T17:49:18Z</time>
  <course>0.0</course>
  <speed>0.0</speed>
  <fix>3d</fix>
</trkpt>
<trkpt lat="40.0713751" lon="-105.2297889">
  <ele>1582.98</ele>
  <time>2026-08-28T17:49:18Z</time>
  <course>247.04</course>
  <speed>0.022360679774997897</speed>
  <fix>3d</fix>
</trkpt>
<trkpt lat="40.0713749" lon="-105.229789">
  <ele>1583.0</ele>
  <time>2026-08-28T17:49:18Z</time>
  <course>0.0</course>
  <speed>0.0</speed>
  <fix>3d</fix>
</trkpt>
<trkpt lat="40.0713751" lon="-105.2297889">
  <ele>1582.98</ele>
  <time>2026-08-28T17:49:18Z</time>
  <course>247.04</course>
  <speed>0.022360679774997897</speed>
  <fix>3d</fix>
</trkpt>
<trkpt lat="40.0713749" lon="-105.229789">
  <ele>1583.0</ele>
  <time>2026-08-28T17:49:18Z</time>
  <course>0.0</course>
  <speed>0.0</speed>
  <fix>3d</fix>
</trkpt>
<trkpt lat="40.0713751" lon="-105.2297889">
  <ele>1582.97</ele>
  <time>2026-08-28T17:49:18Z</time>
  <course>247.04</course>
  <speed>0.022360679774997897</speed>
  <fix>3d</fix>
</trkpt>
<trkpt lat="40.0713749" lon="-105.229789">
  <ele>1583.0</ele>
  <time>2026-08-28T17:49:18Z</time>
  <course>0.0</course>
  <speed>0.0</speed>
  <fix>3d</fix>
</trkpt>
<trkpt lat="40.0713751" lon="-105.2297889">
  <ele>1582.96</ele>
  <time>2026-08-28T17:49:18Z</time>
  <course>247.04</course>
  <speed>0.022360679774997897</speed>
  <fix>3d</fix>
</trkpt>
<trkpt lat="40.0713749" lon="-105.229789">
  <ele>1583.0</ele>
  <time>2026-08-28T17:49:18Z</time>
  <course>0.0</course>
  <speed>0.0</speed>
  <fix>3d</fix>
</trkpt>
<trkpt lat="40.0713751" lon="-105.2297889">
  <ele>1582.96</ele>
  <time>2026-08-28T17:49:18Z</time>
  <course>247.04</course>
  <speed>0.022360679774997897</speed>
  <fix>3d</fix>
</trkpt>
<trkpt lat="40.0713749" lon="-105.229789">
  <ele>1583.0</ele>
  <time>2026-08-28T17:49:18Z</time>
  <course>0.0</course>
  <speed>0.0</speed>
  <fix>3d</fix>
</trkpt>
<trkpt lat="40.0713751" lon="-105.2297889">
  <ele>1582.95</ele>
  <time>2026-08-28T17:49:18Z</time>
  <course>247.04</course>
  <speed>0.022360679774997897</speed>
  <fix>3d</fix>
</trkpt>
<trkpt lat="40.0713749" lon="-105.229789">
  <ele>1583.0</ele>
  <time>2026-08-28T17:49:18Z</time>
  <course>0.0</course>
  <speed>0.0</speed>
  <fix>3d</fix>
</trkpt>
<trkpt lat="40.0713751" lon="-105.2297889">
  <ele>1582.95</ele>
  <time>2026-08-28T17:49:18Z</time>
  <course>247.04</course>
  <speed>0.022360679774997897</speed>
  <fix>3d</fix>
</trkpt>
<trkpt lat="40.0713749" lon="-105.229789">
  <ele>1583.0</ele>
  <time>2026-08-28T17:49:18Z</time>
  <course>0.0</course>
  <speed>0.0</speed>
  <fix>3d</fix>
</trkpt>
<trkpt lat="40.0713751" lon="-105.2297889">
  <ele>1582.95</ele>
  <time>2026-08-28T17:49:18Z</time>
  <course>247.04</course>
  <speed>0.022360679774997897</speed>
  <fix>3d</fix>
</trkpt>
<trkpt lat="40.0713749" lon="-105.229789">
  <ele>1583.0</ele>
  <time>2026-08-28T17:49:18Z</time>
  <course>0.0</course>
  <speed>0.0</speed>
  <fix>3d</fix>
</trkpt>
<trkpt lat="40.071375" lon="-105.2297889">
  <ele>1582.95</ele>
  <time>2026-08-28T17:49:18Z</time>
  <course>247.04</course>
  <speed>0.02</speed>
  <fix>3d</fix>
</trkpt>
<trkpt lat="40.0713749" lon="-105.229789">
  <ele>1583.0</ele>
  <time>2026-08-28T17:49:18Z</time>
  <course>0.0</course>
  <speed>0.0</speed>
  <fix>3d</fix>
</trkpt>
<trkpt lat="40.0713751" lon="-105.2297889">
  <ele>1582.96</ele>
  <time>2026-08-28T17:49:18Z</time>
  <course>247.04</course>
  <speed>0.022360679774997897</speed>
  <fix>3d</fix>
</trkpt>
<trkpt lat="40.0713749" lon="-105.229789">
  <ele>1583.0</ele>
  <time>2026-08-28T17:49:18Z</time>
  <course>0.0</course>
  <speed>0.0</speed>
  <fix>3d</fix>
</trkpt>
<trkpt lat="40.071375" lon="-105.2297889">
  <ele>1582.96</ele>
  <time>2026-08-28T17:49:18Z</time>
  <course>247.04</course>
  <speed>0.02</speed>
  <fix>3d</fix>
</trkpt>
<trkpt lat="40.0713749" lon="-105.229789">
  <ele>1583.0</ele>
  <time>2026-08-28T17:49:18Z</time>
  <course>0.0</course>
  <speed>0.0</speed>
  <fix>3d</fix>
</trkpt>
<trkpt lat="40.0713751" lon="-105.2297889">
  <ele>1582.97</ele>
  <time>2026-08-28T17:49:18Z</time>
  <course>247.04</course>
  <speed>0.022360679774997897</speed>
  <fix>3d</fix>
</trkpt>
<trkpt lat="40.0713749" lon="-105.229789">
  <ele>1583.0</ele>
  <time>2026-08-28T17:49:18Z</time>
  <course>0.0</course>
  <speed>0.0</speed>
  <fix>3d</fix>
</trkpt>
<trkpt lat="40.071375" lon="-105.2297889">
  <ele>1582.97</ele>
  <time>2026-08-28T17:49:18Z</time>
  <course>247.04</course>
  <speed>0.022360679774997897</speed>
  <fix>3d</fix>
</trkpt>
<trkpt lat="40.0713749" lon="-105.229789">
  <ele>1583.0</ele>
  <time>2026-08-28T17:49:18Z</time>
  <course>0.0</course>
  <speed>0.0</speed>
  <fix>3d</fix>
</trkpt>
<trkpt lat="40.0713751" lon="-105.2297889">
  <ele>1582.98</ele>
  <time>2026-08-28T17:49:18Z</time>
  <course>247.04</course>
  <speed>0.022360679774997897</speed>
  <fix>3d</fix>
</trkpt>
<trkpt lat="40.0713749" lon="-105.229789">
  <ele>1583.0</ele>
  <time>2026-08-28T17:49:18Z</time>
  <course>0.0</course>
  <speed>0.0</speed>
  <fix>3d</fix>
</trkpt>
<trkpt lat="40.071375" lon="-105.2297889">
  <ele>1582.98</ele>
  <time>2026-08-28T17:49:18Z</time>
  <course>247.04</course>
  <speed>0.02</speed>
  <fix>3d</fix>
</trkpt>
<trkpt lat="40.0713749" lon="-105.229789">
  <ele>1583.0</ele>
  <time>2026-08-28T17:49:18Z</time>
  <course>0.0</course>
  <speed>0.0</speed>
  <fix>3d</fix>
</trkpt>
<trkpt lat="40.0713751" lon="-105.2297889">
  <ele>1582.98</ele>
  <time>2026-08-28T17:49:18Z</time>
  <course>247.04</course>
  <speed>0.022360679774997897</speed>
  <fix>3d</fix>
</trkpt>
<trkpt lat="40.0713749" lon="-105.229789">
  <ele>1583.0</ele>
  <time>2026-08-28T17:49:18Z</time>
  <course>0.0</course>
  <speed>0.0</speed>
  <fix>3d</fix>
</trkpt>
<trkpt lat="40.071375" lon="-105.2297889">
  <ele>1582.98</ele>
  <time>2026-08-28T17:49:18Z</time>
  <course>247.04</course>
  <speed>0.02</speed>
  <fix>3d</fix>
</trkpt>
<trkpt lat="40.0713749" lon="-105.229789">
  <ele>1583.0</ele>
  <time>2026-08-28T17:49:18Z</time>
  <course>0.0</course>
  <speed>0.0</speed>
  <fix>3d</fix>
</trkpt>
<trkpt lat="40.0713751" lon="-105.2297889">
  <ele>1582.98</ele>
  <time>2026-08-28T17:49:18Z</time>
  <course>247.04</course>
  <speed>0.022360679774997897</speed>
  <fix>3d</fix>
</trkpt>
<trkpt lat="40.0713749" lon="-105.229789">
  <ele>1583.0</ele>
  <time>2026-08-28T17:49:18Z</time>
  <course>0.0</course>
  <speed>0.0</speed>
  <fix>3d</fix>
</trkpt>
<trkpt lat="40.071375" lon="-105.2297889">
  <ele>1582.98</ele>
  <time>2026-08-28T17:49:18Z</time>
  <course>247.04</course>
  <speed>0.02</speed>
  <fix>3d</fix>
</trkpt>
<trkpt lat="40.0713749" lon="-105.229789">
  <ele>1583.0</ele>
  <time>2026-08-28T17:49:18Z</time>
  <course>0.0</course>
  <speed>0.0</speed>
  <fix>3d</fix>
</trkpt>
<trkpt lat="40.0713751" lon="-105.2297889">
  <ele>1582.97</ele>
  <time>2026-08-28T17:49:18Z</time>
  <course>247.04</course>
  <speed>0.022360679774997897</speed>
  <fix>3d</fix>
</trkpt>
<trkpt lat="40.0713749" lon="-105.229789">
  <ele>1583.0</ele>
  <time>2026-08-28T17:49:18Z</time>
  <course>0.0</course>
  <speed>0.0</speed>
  <fix>3d</fix>
</trkpt>
<trkpt lat="40.0713751" lon="-105.2297889">
  <ele>1582.97</ele>
  <time>2026-08-28T17:49:18Z</time>
  <course>247.04</course>
  <speed>0.022360679774997897</speed>
  <fix>3d</fix>
</trkpt>
<trkpt lat="40.0713749" lon="-105.229789">
  <ele>1583.0</ele>
  <time>2026-08-28T17:49:18Z</time>
  <course>0.0</course>
  <speed>0.0</speed>
  <fix>3d</fix>
</trkpt>
<trkpt lat="40.0713751" lon="-105.2297889">
  <ele>1582.97</ele>
  <time>2026-08-28T17:49:18Z</time>
  <course>247.04</course>
  <speed>0.022360679774997897</speed>
  <fix>3d</fix>
</trkpt>
<trkpt lat="40.0713749" lon="-105.229789">
  <ele>1583.0</ele>
  <time>2026-08-28T17:49:18Z</time>
  <course>0.0</course>
  <speed>0.0</speed>
  <fix>3d</fix>
</trkpt>
<trkpt lat="40.0713751" lon="-105.2297889">
  <ele>1582.96</ele>
  <time>2026-08-28T17:49:18Z</time>
  <course>247.04</course>
  <speed>0.022360679774997897</speed>
  <fix>3d</fix>
</trkpt>
<trkpt lat="40.0713749" lon="-105.229789">
  <ele>1583.0</ele>
  <time>2026-08-28T17:49:18Z</time>
  <course>0.0</course>
  <speed>0.0</speed>
  <fix>3d</fix>
</trkpt>
<trkpt lat="40.0713751" lon="-105.2297889">
  <ele>1582.95</ele>
  <time>2026-08-28T17:49:18Z</time>
  <course>247.04</course>
  <speed>0.022360679774997897</speed>
  <fix>3d</fix>
</trkpt>
<trkpt lat="40.0713749" lon="-105.229789">
  <ele>1583.0</ele>
  <time>2026-08-28T17:49:18Z</time>
  <course>0.0</course>
  <speed>0.0</speed>
  <fix>3d</fix>
</trkpt>
<trkpt lat="40.0713751" lon="-105.2297889">
  <ele>1582.95</ele>
  <time>2026-08-28T17:49:18Z</time>
  <course>247.04</course>
  <speed>0.022360679774997897</speed>
  <fix>3d</fix>
</trkpt>
<trkpt lat="40.0713749" lon="-105.229789">
  <ele>1583.0</ele>
  <time>2026-08-28T17:49:18Z</time>
  <course>0.0</course>
  <speed>0.0</speed>
  <fix>3d</fix>
</trkpt>
<trkpt lat="40.0713751" lon="-105.2297889">
  <ele>1582.94</ele>
  <time>2026-08-28T17:49:18Z</time>
  <course>247.04</course>
  <speed>0.022360679774997897</speed>
  <fix>3d</fix>
</trkpt>
<trkpt lat="40.0713749" lon="-105.229789">
  <ele>1583.0</ele>
  <time>2026-08-28T17:49:18Z</time>
  <course>0.0</course>
  <speed>0.0</speed>
  <fix>3d</fix>
</trkpt>
<trkpt lat="40.0713751" lon="-105.2297889">
  <ele>1582.95</ele>
  <time>2026-08-28T17:49:18Z</time>
  <course>247.04</course>
  <speed>0.022360679774997897</speed>
  <fix>3d</fix>
</trkpt>
<trkpt lat="40.0713749" lon="-105.229789">
  <ele>1583.0</ele>
  <time>2026-08-28T17:49:18Z</time>
  <course>0.0</course>
  <speed>0.0</speed>
  <fix>3d</fix>
</trkpt>
<trkpt lat="40.0713751" lon="-105.2297889">
  <ele>1582.95</ele>
  <time>2026-08-28T17:49:18Z</time>
  <course>247.04</course>
  <speed>0.022360679774997897</speed>
  <fix>3d</fix>
</trkpt>
<trkpt lat="40.0713749" lon="-105.229789">
  <ele>1583.0</ele>
  <time>2026-08-28T17:49:18Z</time>
  <course>0.0</course>
  <speed>0.0</speed>
  <fix>3d</fix>
</trkpt>
<trkpt lat="40.0713751" lon="-105.2297889">
  <ele>1582.96</ele>
  <time>2026-08-28T17:49:18Z</time>
  <course>247.04</course>
  <speed>0.022360679774997897</speed>
  <fix>3d</fix>
</trkpt>
<trkpt lat="40.0713749" lon="-105.229789">
  <ele>1583.0</ele>
  <time>2026-08-28T17:49:18Z</time>
  <course>0.0</course>
  <speed>0.0</speed>
  <fix>3d</fix>
</trkpt>
<trkpt lat="40.0713751" lon="-105.2297889">
  <ele>1582.96</ele>
  <time>2026-08-28T17:49:18Z</time>
  <course>247.04</course>
  <speed>0.022360679774997897</speed>
  <fix>3d</fix>
</trkpt>
<trkpt lat="40.0713749" lon="-105.229789">
  <ele>1583.0</ele>
  <time>2026-08-28T17:49:18Z</time>
  <course>0.0</course>
  <speed>0.0</speed>
  <fix>3d</fix>
</trkpt>
<trkpt lat="40.071375" lon="-105.2297889">
  <ele>1582.97</ele>
  <time>2026-08-28T17:49:18Z</time>
  <course>247.04</course>
  <speed>0.022360679774997897</speed>
  <fix>3d</fix>
</trkpt>
<trkpt lat="40.0713749" lon="-105.229789">
  <ele>1583.0</ele>
  <time>2026-08-28T17:49:18Z</time>
  <course>0.0</course>
  <speed>0.0</speed>
  <fix>3d</fix>
</trkpt>
<trkpt lat="40.0713751" lon="-105.2297889">
  <ele>1582.98</ele>
  <time>2026-08-28T17:49:18Z</time>
  <course>247.04</course>
  <speed>0.022360679774997897</speed>
  <fix>3d</fix>
</trkpt>
<trkpt lat="40.0713749" lon="-105.229789">
  <ele>1583.0</ele>
  <time>2026-08-28T17:49:18Z</time>
  <course>0.0</course>
  <speed>0.0</speed>
  <fix>3d</fix>
</trkpt>
<trkpt lat="40.071375" lon="-105.2297889">
  <ele>1582.98</ele>
  <time>2026-08-28T17:49:18Z</time>
  <course>247.04</course>
  <speed>0.022360679774997897</speed>
  <fix>3d</fix>
</trkpt>
<trkpt lat="40.0713749" lon="-105.229789">
  <ele>1583.0</ele>
  <time>2026-08-28T17:49:18Z</time>
  <course>0.0</course>
  <speed>0.0</speed>
  <fix>3d</fix>
</trkpt>
<trkpt lat="40.0713751" lon="-105.2297889">
  <ele>1582.99</ele>
  <time>2026-08-28T17:49:18Z</time>
  <course>247.04</course>
  <speed>0.022360679774997897</speed>
  <fix>3d</fix>
</trkpt>
<trkpt lat="40.0713749" lon="-105.229789">
  <ele>1583.0</ele>
  <time>2026-08-28T17:49:18Z</time>
  <course>0.0</course>
  <speed>0.0</speed>
  <fix>3d</fix>
</trkpt>
<trkpt lat="40.071375" lon="-105.2297889">
  <ele>1582.99</ele>
  <time>2026-08-28T17:49:18Z</time>
  <course>247.04</course>
  <speed>0.022360679774997897</speed>
  <fix>3d</fix>
</trkpt>
<trkpt lat="40.0713749" lon="-105.229789">
  <ele>1583.0</ele>
  <time>2026-08-28T17:49:18Z</time>
  <course>0.0</course>
  <speed>0.0</speed>
  <fix>3d</fix>
</trkpt>
<trkpt lat="40.0713751" lon="-105.2297889">
  <ele>1583.0</ele>
  <time>2026-08-28T17:49:18Z</time>
  <course>247.04</course>
  <speed>0.022360679774997897</speed>
  <fix>3d</fix>
</trkpt>
<trkpt lat="40.0713749" lon="-105.229789">
  <ele>1583.0</ele>
  <time>2026-08-28T17:49:18Z</time>
  <course>0.0</course>
  <speed>0.0</speed>
  <fix>3d</fix>
</trkpt>
<trkpt lat="40.0713751" lon="-105.2297889">
  <ele>1583.0</ele>
  <time>2026-08-28T17:49:18Z</time>
  <course>247.04</course>
  <speed>0.022360679774997897</speed>
  <fix>3d</fix>
</trkpt>
<trkpt lat="40.0713749" lon="-105.229789">
  <ele>1583.0</ele>
  <time>2026-08-28T17:49:18Z</time>
  <course>0.0</course>
  <speed>0.0</speed>
  <fix>3d</fix>
</trkpt>
<trkpt lat="40.0713751" lon="-105.2297889">
  <ele>1583.0</ele>
  <time>2026-08-28T17:49:18Z</time>
  <course>247.04</course>
  <speed>0.022360679774997897</speed>
  <fix>3d</fix>
</trkpt>
<trkpt lat="40.0713749" lon="-105.229789">
  <ele>1583.0</ele>
  <time>2026-08-28T17:49:18Z</time>
  <course>0.0</course>
  <speed>0.0</speed>
  <fix>3d</fix>
</trkpt>
<trkpt lat="40.0713751" lon="-105.2297889">
  <ele>1583.0</ele>
  <time>2026-08-28T17:49:18Z</time>
  <course>247.04</course>
  <speed>0.022360679774997897</speed>
  <fix>3d</fix>
</trkpt>
<trkpt lat="40.0713749" lon="-105.229789">
  <ele>1583.0</ele>
  <time>2026-08-28T17:49:18Z</time>
  <course>0.0</course>
  <speed>0.0</speed>
  <fix>3d</fix>
</trkpt>
<trkpt lat="40.0713751" lon="-105.2297889">
  <ele>1583.0</ele>
  <time>2026-08-28T17:49:18Z</time>
  <course>247.04</course>
  <speed>0.022360679774997897</speed>
  <fix>3d</fix>
</trkpt>
<trkpt lat="40.0713749" lon="-105.229789">
  <ele>1583.0</ele>
  <time>2026-08-28T17:49:18Z</time>
  <course>0.0</course>
  <speed>0.0</speed>
  <fix>3d</fix>
</trkpt>
<trkpt lat="40.0713751" lon="-105.2297889">
  <ele>1583.0</ele>
  <time>2026-08-28T17:49:18Z</time>
  <course>247.04</course>
  <speed>0.022360679774997897</speed>
  <fix>3d</fix>
</trkpt>
<trkpt lat="40.0713749" lon="-105.229789">
  <ele>1583.0</ele>
  <time>2026-08-28T17:49:18Z</time>
  <course>0.0</course>
  <speed>0.0</speed>
  <fix>3d</fix>
</trkpt>
<trkpt lat="40.0713751" lon="-105.2297889">
  <ele>1583.0</ele>
  <time>2026-08-28T17:49:18Z</time>
  <course>247.04</course>
  <speed>0.022360679774997897</speed>
  <fix>3d</fix>
</trkpt>
<trkpt lat="40.0713749" lon="-105.229789">
  <ele>1583.0</ele>
  <time>2026-08-28T17:49:18Z</time>
  <course>0.0</course>
  <speed>0.0</speed>
  <fix>3d</fix>
</trkpt>
<trkpt lat="40.0713751" lon="-105.2297889">
  <ele>1583.0</ele>
  <time>2026-08-28T17:49:18Z</time>
  <course>247.03</course>
  <speed>0.022360679774997897</speed>
  <fix>3d</fix>
</trkpt>
<trkpt lat="40.0713749" lon="-105.229789">
  <ele>1583.0</ele>
  <time>2026-08-28T17:49:18Z</time>
  <course>0.0</course>
  <speed>0.0</speed>
  <fix>3d</fix>
</trkpt>
<trkpt lat="40.0713751" lon="-105.2297889">
  <ele>1583.0</ele>
  <time>2026-08-28T17:49:18Z</time>
  <course>247.03</course>
  <speed>0.022360679774997897</speed>
  <fix>3d</fix>
</trkpt>
<trkpt lat="40.0713749" lon="-105.229789">
  <ele>1583.0</ele>
  <time>2026-08-28T17:49:18Z</time>
  <course>0.0</course>
  <speed>0.0</speed>
  <fix>3d</fix>
</trkpt>
<trkpt lat="40.0713751" lon="-105.2297889">
  <ele>1582.99</ele>
  <time>2026-08-28T17:49:18Z</time>
  <course>247.03</course>
  <speed>0.022360679774997897</speed>
  <fix>3d</fix>
</trkpt>
<trkpt lat="40.0713749" lon="-105.229789">
  <ele>1583.0</ele>
  <time>2026-08-28T17:49:18Z</time>
  <course>0.0</course>
  <speed>0.0</speed>
  <fix>3d</fix>
</trkpt>
<trkpt lat="40.0713751" lon="-105.2297889">
  <ele>1582.99</ele>
  <time>2026-08-28T17:49:18Z</time>
  <course>247.03</course>
  <speed>0.022360679774997897</speed>
  <fix>3d</fix>
</trkpt>
<trkpt lat="40.0713749" lon="-105.229789">
  <ele>1583.0</ele>
  <time>2026-08-28T17:49:18Z</time>
  <course>0.0</course>
  <speed>0.0</speed>
  <fix>3d</fix>
</trkpt>
<trkpt lat="40.0713751" lon="-105.2297889">
  <ele>1582.98</ele>
  <time>2026-08-28T17:49:18Z</time>
  <course>247.03</course>
  <speed>0.022360679774997897</speed>
  <fix>3d</fix>
</trkpt>
<trkpt lat="40.0713749" lon="-105.229789">
  <ele>1583.0</ele>
  <time>2026-08-28T17:49:18Z</time>
  <course>0.0</course>
  <speed>0.0</speed>
  <fix>3d</fix>
</trkpt>
<trkpt lat="40.0713751" lon="-105.2297889">
  <ele>1582.98</ele>
  <time>2026-08-28T17:49:18Z</time>
  <course>247.03</course>
  <speed>0.022360679774997897</speed>
  <fix>3d</fix>
</trkpt>
<trkpt lat="40.0713749" lon="-105.229789">
  <ele>1583.0</ele>
  <time>2026-08-28T17:49:18Z</time>
  <course>0.0</course>
  <speed>0.0</speed>
  <fix>3d</fix>
</trkpt>
<trkpt lat="40.0713751" lon="-105.2297889">
  <ele>1582.97</ele>
  <time>2026-08-28T17:49:18Z</time>
  <course>247.03</course>
  <speed>0.022360679774997897</speed>
  <fix>3d</fix>
</trkpt>
<trkpt lat="40.0713749" lon="-105.229789">
  <ele>1583.0</ele>
  <time>2026-08-28T17:49:18Z</time>
  <course>0.0</course>
  <speed>0.0</speed>
  <fix>3d</fix>
</trkpt>
<trkpt lat="40.0713751" lon="-105.2297889">
  <ele>1582.97</ele>
  <time>2026-08-28T17:49:18Z</time>
  <course>247.03</course>
  <speed>0.022360679774997897</speed>
  <fix>3d</fix>
</trkpt>
<trkpt lat="40.0713749" lon="-105.229789">
  <ele>1583.0</ele>
  <time>2026-08-28T17:49:18Z</time>
  <course>0.0</course>
  <speed>0.0</speed>
  <fix>3d</fix>
</trkpt>
<trkpt lat="40.0713751" lon="-105.2297889">
  <ele>1582.96</ele>
  <time>2026-08-28T17:49:18Z</time>
  <course>247.03</course>
  <speed>0.022360679774997897</speed>
  <fix>3d</fix>
</trkpt>
<trkpt lat="40.0713749" lon="-105.229789">
  <ele>1583.0</ele>
  <time>2026-08-28T17:49:18Z</time>
  <course>0.0</course>
  <speed>0.0</speed>
  <fix>3d</fix>
</trkpt>
<trkpt lat="40.0713751" lon="-105.2297889">
  <ele>1582.96</ele>
  <time>2026-08-28T17:49:18Z</time>
  <course>247.03</course>
  <speed>0.022360679774997897</speed>
  <fix>3d</fix>
</trkpt>
<trkpt lat="40.0713749" lon="-105.229789">
  <ele>1583.0</ele>
  <time>2026-08-28T17:49:18Z</time>
  <course>0.0</course>
  <speed>0.0</speed>
  <fix>3d</fix>
</trkpt>
<trkpt lat="40.0713751" lon="-105.2297889">
  <ele>1582.96</ele>
  <time>2026-08-28T17:49:18Z</time>
  <course>247.03</course>
  <speed>0.022360679774997897</speed>
  <fix>3d</fix>
</trkpt>
<trkpt lat="40.0713749" lon="-105.229789">
  <ele>1583.0</ele>
  <time>2026-08-28T17:49:18Z</time>
  <course>0.0</course>
  <speed>0.0</speed>
  <fix>3d</fix>
</trkpt>
<trkpt lat="40.0713751" lon="-105.2297889">
  <ele>1582.96</ele>
  <time>2026-08-28T17:49:18Z</time>
  <course>247.03</course>
  <speed>0.022360679774997897</speed>
  <fix>3d</fix>
</trkpt>
<trkpt lat="40.0713749" lon="-105.229789">
  <ele>1583.0</ele>
  <time>2026-08-28T17:49:18Z</time>
  <course>0.0</course>
  <speed>0.0</speed>
  <fix>3d</fix>
</trkpt>
<trkpt lat="40.0713751" lon="-105.2297889">
  <ele>1582.96</ele>
  <time>2026-08-28T17:49:18Z</time>
  <course>247.03</course>
  <speed>0.022360679774997897</speed>
  <fix>3d</fix>
</trkpt>
<trkpt lat="40.0713749" lon="-105.229789">
  <ele>1583.0</ele>
  <time>2026-08-28T17:49:18Z</time>
  <course>0.0</course>
  <speed>0.0</speed>
  <fix>3d</fix>
</trkpt>
<trkpt lat="40.0713751" lon="-105.2297889">
  <ele>1582.96</ele>
  <time>2026-08-28T17:49:18Z</time>
  <course>247.03</course>
  <speed>0.022360679774997897</speed>
  <fix>3d</fix>
</trkpt>
<trkpt lat="40.0713749" lon="-105.229789">
  <ele>1583.0</ele>
  <time>2026-08-28T17:49:18Z</time>
  <course>0.0</course>
  <speed>0.0</speed>
  <fix>3d</fix>
</trkpt>
<trkpt lat="40.0713751" lon="-105.2297889">
  <ele>1582.96</ele>
  <time>2026-08-28T17:49:18Z</time>
  <course>247.03</course>
  <speed>0.022360679774997897</speed>
  <fix>3d</fix>
</trkpt>
<trkpt lat="40.0713749" lon="-105.229789">
  <ele>1583.0</ele>
  <time>2026-08-28T17:49:18Z</time>
  <course>0.0</course>
  <speed>0.0</speed>
  <fix>3d</fix>
</trkpt>
<trkpt lat="40.0713751" lon="-105.2297889">
  <ele>1582.95</ele>
  <time>2026-08-28T17:49:18Z</time>
  <course>247.03</course>
  <speed>0.022360679774997897</speed>
  <fix>3d</fix>
</trkpt>
<trkpt lat="40.0713749" lon="-105.229789">
  <ele>1583.0</ele>
  <time>2026-08-28T17:49:18Z</time>
  <course>0.0</course>
  <speed>0.0</speed>
  <fix>3d</fix>
</trkpt>
<trkpt lat="40.0713751" lon="-105.2297889">
  <ele>1582.95</ele>
  <time>2026-08-28T17:49:18Z</time>
  <course>247.03</course>
  <speed>0.022360679774997897</speed>
  <fix>3d</fix>
</trkpt>
<trkpt lat="40.0713749" lon="-105.229789">
  <ele>1583.0</ele>
  <time>2026-08-28T17:49:18Z</time>
  <course>0.0</course>
  <speed>0.0</speed>
  <fix>3d</fix>
</trkpt>
<trkpt lat="40.0713751" lon="-105.2297889">
  <ele>1582.94</ele>
  <time>2026-08-28T17:49:18Z</time>
  <course>247.03</course>
  <speed>0.022360679774997897</speed>
  <fix>3d</fix>
</trkpt>
<trkpt lat="40.0713749" lon="-105.229789">
  <ele>1583.0</ele>
  <time>2026-08-28T17:49:18Z</time>
  <course>0.0</course>
  <speed>0.0</speed>
  <fix>3d</fix>
</trkpt>
<trkpt lat="40.0713751" lon="-105.2297889">
  <ele>1582.93</ele>
  <time>2026-08-28T17:49:18Z</time>
  <course>247.03</course>
  <speed>0.022360679774997897</speed>
  <fix>3d</fix>
</trkpt>
<trkpt lat="40.0713749" lon="-105.229789">
  <ele>1583.0</ele>
  <time>2026-08-28T17:49:18Z</time>
  <course>0.0</course>
  <speed>0.0</speed>
  <fix>3d</fix>
</trkpt>
<trkpt lat="40.0713751" lon="-105.2297889">
  <ele>1582.93</ele>
  <time>2026-08-28T17:49:18Z</time>
  <course>247.03</course>
  <speed>0.022360679774997897</speed>
  <fix>3d</fix>
</trkpt>
<trkpt lat="40.0713749" lon="-105.229789">
  <ele>1583.0</ele>
  <time>2026-08-28T17:49:18Z</time>
  <course>0.0</course>
  <speed>0.0</speed>
  <fix>3d</fix>
</trkpt>
<trkpt lat="40.0713751" lon="-105.2297889">
  <ele>1582.92</ele>
  <time>2026-08-28T17:49:18Z</time>
  <course>247.03</course>
  <speed>0.022360679774997897</speed>
  <fix>3d</fix>
</trkpt>
<trkpt lat="40.0713749" lon="-105.229789">
  <ele>1583.0</ele>
  <time>2026-08-28T17:49:18Z</time>
  <course>0.0</course>
  <speed>0.0</speed>
  <fix>3d</fix>
</trkpt>
<trkpt lat="40.0713751" lon="-105.2297889">
  <ele>1582.92</ele>
  <time>2026-08-28T17:49:18Z</time>
  <course>247.03</course>
  <speed>0.022360679774997897</speed>
  <fix>3d</fix>
</trkpt>
<trkpt lat="40.0713749" lon="-105.229789">
  <ele>1583.0</ele>
  <time>2026-08-28T17:49:18Z</time>
  <course>0.0</course>
  <speed>0.0</speed>
  <fix>3d</fix>
</trkpt>
<trkpt lat="40.0713751" lon="-105.2297889">
  <ele>1582.91</ele>
  <time>2026-08-28T17:49:18Z</time>
  <course>247.03</course>
  <speed>0.022360679774997897</speed>
  <fix>3d</fix>
</trkpt>
<trkpt lat="40.0713749" lon="-105.229789">
  <ele>1583.0</ele>
  <time>2026-08-28T17:49:18Z</time>
  <course>0.0</course>
  <speed>0.0</speed>
  <fix>3d</fix>
</trkpt>
<trkpt lat="40.0713751" lon="-105.2297889">
  <ele>1582.91</ele>
  <time>2026-08-28T17:49:18Z</time>
  <course>247.03</course>
  <speed>0.022360679774997897</speed>
  <fix>3d</fix>
</trkpt>
<trkpt lat="40.0713749" lon="-105.229789">
  <ele>1583.0</ele>
  <time>2026-08-28T17:49:18Z</time>
  <course>0.0</course>
  <speed>0.0</speed>
  <fix>3d</fix>
</trkpt>
<trkpt lat="40.0713751" lon="-105.2297889">
  <ele>1582.91</ele>
  <time>2026-08-28T17:49:18Z</time>
  <course>247.03</course>
  <speed>0.022360679774997897</speed>
  <fix>3d</fix>
</trkpt>
<trkpt lat="40.0713749" lon="-105.229789">
  <ele>1583.0</ele>
  <time>2026-08-28T17:49:18Z</time>
  <course>0.0</course>
  <speed>0.0</speed>
  <fix>3d</fix>
</trkpt>
<trkpt lat="40.0713751" lon="-105.2297889">
  <ele>1582.91</ele>
  <time>2026-08-28T17:49:18Z</time>
  <course>247.03</course>
  <speed>0.022360679774997897</speed>
  <fix>3d</fix>
</trkpt>
<trkpt lat="40.0713749" lon="-105.229789">
  <ele>1583.0</ele>
  <time>2026-08-28T17:49:18Z</time>
  <course>0.0</course>
  <speed>0.0</speed>
  <fix>3d</fix>
</trkpt>
<trkpt lat="40.0713751" lon="-105.2297889">
  <ele>1582.91</ele>
  <time>2026-08-28T17:49:18Z</time>
  <course>247.03</course>
  <speed>0.022360679774997897</speed>
  <fix>3d</fix>
</trkpt>
<trkpt lat="40.0713749" lon="-105.229789">
  <ele>1583.0</ele>
  <time>2026-08-28T17:49:18Z</time>
  <course>0.0</course>
  <speed>0.0</speed>
  <fix>3d</fix>
</trkpt>
<trkpt lat="40.0713751" lon="-105.2297889">
  <ele>1582.91</ele>
  <time>2026-08-28T17:49:18Z</time>
  <course>247.03</course>
  <speed>0.022360679774997897</speed>
  <fix>3d</fix>
</trkpt>
<trkpt lat="40.0713749" lon="-105.229789">
  <ele>1583.0</ele>
  <time>2026-08-28T17:49:18Z</time>
  <course>0.0</course>
  <speed>0.0</speed>
  <fix>3d</fix>
</trkpt>
<trkpt lat="40.0713751" lon="-105.2297889">
  <ele>1582.91</ele>
  <time>2026-08-28T17:49:18Z</time>
  <course>247.03</course>
  <speed>0.022360679774997897</speed>
  <fix>3d</fix>
</trkpt>
<trkpt lat="40.0713749" lon="-105.229789">
  <ele>1583.0</ele>
  <time>2026-08-28T17:49:18Z</time>
  <course>0.0</course>
  <speed>0.0</speed>
  <fix>3d</fix>
</trkpt>
<trkpt lat="40.0713751" lon="-105.2297889">
  <ele>1582.92</ele>
  <time>2026-08-28T17:49:18Z</time>
  <course>247.03</course>
  <speed>0.022360679774997897</speed>
  <fix>3d</fix>
</trkpt>
<trkpt lat="40.0713749" lon="-105.229789">
  <ele>1583.0</ele>
  <time>2026-08-28T17:49:18Z</time>
  <course>0.0</course>
  <speed>0.0</speed>
  <fix>3d</fix>
</trkpt>
<trkpt lat="40.0713751" lon="-105.2297889">
  <ele>1582.92</ele>
  <time>2026-08-28T17:49:18Z</time>
  <course>247.03</course>
  <speed>0.022360679774997897</speed>
  <fix>3d</fix>
</trkpt>
<trkpt lat="40.0713749" lon="-105.229789">
  <ele>1583.0</ele>
  <time>2026-08-28T17:49:18Z</time>
  <course>0.0</course>
  <speed>0.0</speed>
  <fix>3d</fix>
</trkpt>
<trkpt lat="40.0713751" lon="-105.2297889">
  <ele>1582.92</ele>
  <time>2026-08-28T17:49:18Z</time>
  <course>247.03</course>
  <speed>0.022360679774997897</speed>
  <fix>3d</fix>
</trkpt>
<trkpt lat="40.0713749" lon="-105.229789">
  <ele>1583.0</ele>
  <time>2026-08-28T17:49:18Z</time>
  <course>0.0</course>
  <speed>0.0</speed>
  <fix>3d</fix>
</trkpt>
<trkpt lat="40.0713751" lon="-105.2297889">
  <ele>1582.92</ele>
  <time>2026-08-28T17:49:18Z</time>
  <course>247.03</course>
  <speed>0.022360679774997897</speed>
  <fix>3d</fix>
</trkpt>
<trkpt lat="40.0713749" lon="-105.229789">
  <ele>1583.0</ele>
  <time>2026-08-28T17:49:18Z</time>
  <course>0.0</course>
  <speed>0.0</speed>
  <fix>3d</fix>
</trkpt>
<trkpt lat="40.0713751" lon="-105.2297889">
  <ele>1582.93</ele>
  <time>2026-08-28T17:49:18Z</time>
  <course>247.03</course>
  <speed>0.022360679774997897</speed>
  <fix>3d</fix>
</trkpt>
<trkpt lat="40.0713749" lon="-105.229789">
  <ele>1583.0</ele>
  <time>2026-08-28T17:49:18Z</time>
  <course>0.0</course>
  <speed>0.0</speed>
  <fix>3d</fix>
</trkpt>
<trkpt lat="40.0713751" lon="-105.2297889">
  <ele>1582.93</ele>
  <time>2026-08-28T17:49:18Z</time>
  <course>247.03</course>
  <speed>0.022360679774997897</speed>
  <fix>3d</fix>
</trkpt>
<trkpt lat="40.0713749" lon="-105.229789">
  <ele>1583.0</ele>
  <time>2026-08-28T17:49:18Z</time>
  <course>0.0</course>
  <speed>0.0</speed>
  <fix>3d</fix>
</trkpt>
<trkpt lat="40.0713751" lon="-105.2297889">
  <ele>1582.94</ele>
  <time>2026-08-28T17:49:18Z</time>
  <course>247.03</course>
  <speed>0.022360679774997897</speed>
  <fix>3d</fix>
</trkpt>
<trkpt lat="40.0713749" lon="-105.229789">
  <ele>1583.0</ele>
  <time>2026-08-28T17:49:18Z</time>
  <course>0.0</course>
  <speed>0.0</speed>
  <fix>3d</fix>
</trkpt>
<trkpt lat="40.0713751" lon="-105.2297889">
  <ele>1582.95</ele>
  <time>2026-08-28T17:49:18Z</time>
  <course>247.03</course>
  <speed>0.022360679774997897</speed>
  <fix>3d</fix>
</trkpt>
<trkpt lat="40.0713749" lon="-105.229789">
  <ele>1583.0</ele>
  <time>2026-08-28T17:49:18Z</time>
  <course>0.0</course>
  <speed>0.0</speed>
  <fix>3d</fix>
</trkpt>
<trkpt lat="40.0713751" lon="-105.2297889">
  <ele>1582.95</ele>
  <time>2026-08-28T17:49:18Z</time>
  <course>247.03</course>
  <speed>0.022360679774997897</speed>
  <fix>3d</fix>
</trkpt>
<trkpt lat="40.0713749" lon="-105.229789">
  <ele>1583.0</ele>
  <time>2026-08-28T17:49:18Z</time>
  <course>0.0</course>
  <speed>0.0</speed>
  <fix>3d</fix>
</trkpt>
<trkpt lat="40.0713751" lon="-105.2297889">
  <ele>1582.96</ele>
  <time>2026-08-28T17:49:18Z</time>
  <course>247.03</course>
  <speed>0.022360679774997897</speed>
  <fix>3d</fix>
</trkpt>
<trkpt lat="40.0713749" lon="-105.229789">
  <ele>1583.0</ele>
  <time>2026-08-28T17:49:18Z</time>
  <course>0.0</course>
  <speed>0.0</speed>
  <fix>3d</fix>
</trkpt>
<trkpt lat="40.0713751" lon="-105.2297889">
  <ele>1582.97</ele>
  <time>2026-08-28T17:49:18Z</time>
  <course>247.03</course>
  <speed>0.022360679774997897</speed>
  <fix>3d</fix>
</trkpt>
<trkpt lat="40.0713749" lon="-105.229789">
  <ele>1583.0</ele>
  <time>2026-08-28T17:49:18Z</time>
  <course>0.0</course>
  <speed>0.0</speed>
  <fix>3d</fix>
</trkpt>
<trkpt lat="40.0713751" lon="-105.2297889">
  <ele>1582.97</ele>
  <time>2026-08-28T17:49:18Z</time>
  <course>247.03</course>
  <speed>0.022360679774997897</speed>
  <fix>3d</fix>
</trkpt>
<trkpt lat="40.0713749" lon="-105.229789">
  <ele>1583.0</ele>
  <time>2026-08-28T17:49:18Z</time>
  <course>0.0</course>
  <speed>0.0</speed>
  <fix>3d</fix>
</trkpt>
<trkpt lat="40.0713751" lon="-105.2297889">
  <ele>1582.98</ele>
  <time>2026-08-28T17:49:18Z</time>
  <course>247.03</course>
  <speed>0.022360679774997897</speed>
  <fix>3d</fix>
</trkpt>
<trkpt lat="40.0713749" lon="-105.229789">
  <ele>1583.0</ele>
  <time>2026-08-28T17:49:18Z</time>
  <course>0.0</course>
  <speed>0.0</speed>
  <fix>3d</fix>
</trkpt>
<trkpt lat="40.0713751" lon="-105.2297889">
  <ele>1582.99</ele>
  <time>2026-08-28T17:49:18Z</time>
  <course>247.03</course>
  <speed>0.022360679774997897</speed>
  <fix>3d</fix>
</trkpt>
<trkpt lat="40.0713749" lon="-105.229789">
  <ele>1583.0</ele>
  <time>2026-08-28T17:49:18Z</time>
  <course>0.0</course>
  <speed>0.0</speed>
  <fix>3d</fix>
</trkpt>
<trkpt lat="40.0713751" lon="-105.2297889">
  <ele>1582.99</ele>
  <time>2026-08-28T17:49:18Z</time>
  <course>247.03</course>
  <speed>0.022360679774997897</speed>
  <fix>3d</fix>
</trkpt>
<trkpt lat="40.0713749" lon="-105.229789">
  <ele>1583.0</ele>
  <time>2026-08-28T17:49:18Z</time>
  <course>0.0</course>
  <speed>0.0</speed>
  <fix>3d</fix>
</trkpt>
<trkpt lat="40.0713751" lon="-105.2297889">
  <ele>1582.99</ele>
  <time>2026-08-28T17:49:18Z</time>
  <course>247.03</course>
  <speed>0.022360679774997897</speed>
  <fix>3d</fix>
</trkpt>
<trkpt lat="40.0713749" lon="-105.229789">
  <ele>1583.0</ele>
  <time>2026-08-28T17:49:18Z</time>
  <course>0.0</course>
  <speed>0.0</speed>
  <fix>3d</fix>
</trkpt>
<trkpt lat="40.0713751" lon="-105.2297889">
  <ele>1582.99</ele>
  <time>2026-08-28T17:49:18Z</time>
  <course>247.03</course>
  <speed>0.022360679774997897</speed>
  <fix>3d</fix>
</trkpt>
<trkpt lat="40.0713749" lon="-105.229789">
  <ele>1583.0</ele>
  <time>2026-08-28T17:49:18Z</time>
  <course>0.0</course>
  <speed>0.0</speed>
  <fix>3d</fix>
</trkpt>
<trkpt lat="40.0713751" lon="-105.2297889">
  <ele>1582.99</ele>
  <time>2026-08-28T17:49:18Z</time>
  <course>247.03</course>
  <speed>0.022360679774997897</speed>
  <fix>3d</fix>
</trkpt>
<trkpt lat="40.0713749" lon="-105.229789">
  <ele>1583.0</ele>
  <time>2026-08-28T17:49:18Z</time>
  <course>0.0</course>
  <speed>0.0</speed>
  <fix>3d</fix>
</trkpt>
<trkpt lat="40.0713751" lon="-105.2297889">
  <ele>1582.99</ele>
  <time>2026-08-28T17:49:18Z</time>
  <course>247.03</course>
  <speed>0.022360679774997897</speed>
  <fix>3d</fix>
</trkpt>
<trkpt lat="40.0713749" lon="-105.229789">
  <ele>1583.0</ele>
  <time>2026-08-28T17:49:18Z</time>
  <course>0.0</course>
  <speed>0.0</speed>
  <fix>3d</fix>
</trkpt>
<trkpt lat="40.0713751" lon="-105.2297889">
  <ele>1582.99</ele>
  <time>2026-08-28T17:49:18Z</time>
  <course>247.03</course>
  <speed>0.022360679774997897</speed>
  <fix>3d</fix>
</trkpt>
<trkpt lat="40.0713749" lon="-105.229789">
  <ele>1583.0</ele>
  <time>2026-08-28T17:49:18Z</time>
  <course>0.0</course>
  <speed>0.0</speed>
  <fix>3d</fix>
</trkpt>
<trkpt lat="40.0713751" lon="-105.2297889">
  <ele>1582.99</ele>
  <time>2026-08-28T17:49:18Z</time>
  <course>247.03</course>
  <speed>0.022360679774997897</speed>
  <fix>3d</fix>
</trkpt>
<trkpt lat="40.0713749" lon="-105.229789">
  <ele>1583.0</ele>
  <time>2026-08-28T17:49:18Z</time>
  <course>0.0</course>
  <speed>0.0</speed>
  <fix>3d</fix>
</trkpt>
<trkpt lat="40.0713751" lon="-105.2297889">
  <ele>1582.99</ele>
  <time>2026-08-28T17:49:18Z</time>
  <course>247.03</course>
  <speed>0.022360679774997897</speed>
  <fix>3d</fix>
</trkpt>
<trkpt lat="40.0713749" lon="-105.229789">
  <ele>1583.0</ele>
  <time>2026-08-28T17:49:18Z</time>
  <course>0.0</course>
  <speed>0.0</speed>
  <fix>3d</fix>
</trkpt>
<trkpt lat="40.0713751" lon="-105.2297889">
  <ele>1582.99</ele>
  <time>2026-08-28T17:49:18Z</time>
  <course>247.03</course>
  <speed>0.022360679774997897</speed>
  <fix>3d</fix>
</trkpt>
<trkpt lat="40.0713749" lon="-105.229789">
  <ele>1583.0</ele>
  <time>2026-08-28T17:49:18Z</time>
  <course>0.0</course>
  <speed>0.0</speed>
  <fix>3d</fix>
</trkpt>
<trkpt lat="40.0713751" lon="-105.2297889">
  <ele>1582.99</ele>
  <time>2026-08-28T17:49:18Z</time>
  <course>247.03</course>
  <speed>0.022360679774997897</speed>
  <fix>3d</fix>
</trkpt>
<trkpt lat="40.0713749" lon="-105.229789">
  <ele>1583.0</ele>
  <time>2026-08-28T17:49:18Z</time>
  <course>0.0</course>
  <speed>0.0</speed>
  <fix>3d</fix>
</trkpt>
<trkpt lat="40.0713751" lon="-105.2297889">
  <ele>1582.99</ele>
  <time>2026-08-28T17:49:18Z</time>
  <course>247.03</course>
  <speed>0.022360679774997897</speed>
  <fix>3d</fix>
</trkpt>
<trkpt lat="40.0713749" lon="-105.229789">
  <ele>1583.0</ele>
  <time>2026-08-28T17:49:18Z</time>
  <course>0.0</course>
  <speed>0.0</speed>
  <fix>3d</fix>
</trkpt>
<trkpt lat="40.0713751" lon="-105.2297889">
  <ele>1582.99</ele>
  <time>2026-08-28T17:49:18Z</time>
  <course>247.03</course>
  <speed>0.022360679774997897</speed>
  <fix>3d</fix>
</trkpt>
<trkpt lat="40.0713749" lon="-105.229789">
  <ele>1583.0</ele>
  <time>2026-08-28T17:49:18Z</time>
  <course>0.0</course>
  <speed>0.0</speed>
  <fix>3d</fix>
</trkpt>
<trkpt lat="40.0713751" lon="-105.2297889">
  <ele>1582.99</ele>
  <time>2026-08-28T17:49:18Z</time>
  <course>247.03</course>
  <speed>0.022360679774997897</speed>
  <fix>3d</fix>
</trkpt>
<trkpt lat="40.0713749" lon="-105.229789">
  <ele>1583.0</ele>
  <time>2026-08-28T17:49:18Z</time>
  <course>0.0</course>
  <speed>0.0</speed>
  <fix>3d</fix>
</trkpt>
<trkpt lat="40.0713751" lon="-105.2297889">
  <ele>1582.99</ele>
  <time>2026-08-28T17:49:18Z</time>
  <course>247.03</course>
  <speed>0.022360679774997897</speed>
  <fix>3d</fix>
</trkpt>
<trkpt lat="40.0713749" lon="-105.229789">
  <ele>1583.0</ele>
  <time>2026-08-28T17:49:18Z</time>
  <course>0.0</course>
  <speed>0.0</speed>
  <fix>3d</fix>
</trkpt>
<trkpt lat="40.0713751" lon="-105.2297889">
  <ele>1582.99</ele>
  <time>2026-08-28T17:49:18Z</time>
  <course>247.03</course>
  <speed>0.022360679774997897</speed>
  <fix>3d</fix>
</trkpt>
<trkpt lat="40.0713749" lon="-105.229789">
  <ele>1583.0</ele>
  <time>2026-08-28T17:49:18Z</time>
  <course>0.0</course>
  <speed>0.0</speed>
  <fix>3d</fix>
</trkpt>
<trkpt lat="40.071375" lon="-105.2297889">
  <ele>1583.0</ele>
  <time>2026-08-28T17:49:18Z</time>
  <course>247.03</course>
  <speed>0.022360679774997897</speed>
  <fix>3d</fix>
</trkpt>
<trkpt lat="40.0713749" lon="-105.229789">
  <ele>1583.0</ele>
  <time>2026-08-28T17:49:18Z</time>
  <course>0.0</course>
  <speed>0.0</speed>
  <fix>3d</fix>
</trkpt>
<trkpt lat="40.0713751" lon="-105.2297889">
  <ele>1583.0</ele>
  <time>2026-08-28T17:49:18Z</time>
  <course>247.03</course>
  <speed>0.022360679774997897</speed>
  <fix>3d</fix>
</trkpt>
<trkpt lat="40.0713749" lon="-105.229789">
  <ele>1583.0</ele>
  <time>2026-08-28T17:49:18Z</time>
  <course>0.0</course>
  <speed>0.0</speed>
  <fix>3d</fix>
</trkpt>
<trkpt lat="40.0713751" lon="-105.2297889">
  <ele>1583.0</ele>
  <time>2026-08-28T17:49:18Z</time>
  <course>247.03</course>
  <speed>0.022360679774997897</speed>
  <fix>3d</fix>
</trkpt>
<trkpt lat="40.0713749" lon="-105.229789">
  <ele>1583.0</ele>
  <time>2026-08-28T17:49:18Z</time>
  <course>0.0</course>
  <speed>0.0</speed>
  <fix>3d</fix>
</trkpt>
<trkpt lat="40.0713751" lon="-105.2297889">
  <ele>1583.0</ele>
  <time>2026-08-28T17:49:18Z</time>
  <course>247.03</course>
  <speed>0.022360679774997897</speed>
  <fix>3d</fix>
</trkpt>
<trkpt lat="40.0713749" lon="-105.229789">
  <ele>1583.0</ele>
  <time>2026-08-28T17:49:18Z</time>
  <course>0.0</course>
  <speed>0.0</speed>
  <fix>3d</fix>
</trkpt>
<trkpt lat="40.0713751" lon="-105.2297889">
  <ele>1583.0</ele>
  <time>2026-08-28T17:49:18Z</time>
  <course>247.03</course>
  <speed>0.022360679774997897</speed>
  <fix>3d</fix>
</trkpt>
<trkpt lat="40.0713749" lon="-105.229789">
  <ele>1583.0</ele>
  <time>2026-08-28T17:49:18Z</time>
  <course>0.0</course>
  <speed>0.0</speed>
  <fix>3d</fix>
</trkpt>
<trkpt lat="40.0713751" lon="-105.2297889">
  <ele>1583.0</ele>
  <time>2026-08-28T17:49:18Z</time>
  <course>247.03</course>
  <speed>0.022360679774997897</speed>
  <fix>3d</fix>
</trkpt>
<trkpt lat="40.0713749" lon="-105.229789">
  <ele>1583.0</ele>
  <time>2026-08-28T17:49:18Z</time>
  <course>0.0</course>
  <speed>0.0</speed>
  <fix>3d</fix>
</trkpt>
<trkpt lat="40.0713751" lon="-105.2297889">
  <ele>1583.0</ele>
  <time>2026-08-28T17:49:18Z</time>
  <course>247.03</course>
  <speed>0.022360679774997897</speed>
  <fix>3d</fix>
</trkpt>
<trkpt lat="40.0713749" lon="-105.229789">
  <ele>1583.0</ele>
  <time>2026-08-28T17:49:18Z</time>
  <course>0.0</course>
  <speed>0.0</speed>
  <fix>3d</fix>
</trkpt>
<trkpt lat="40.0713751" lon="-105.2297889">
  <ele>1583.0</ele>
  <time>2026-08-28T17:49:18Z</time>
  <course>247.03</course>
  <speed>0.022360679774997897</speed>
  <fix>3d</fix>
</trkpt>
<trkpt lat="40.0713749" lon="-105.229789">
  <ele>1583.0</ele>
  <time>2026-08-28T17:49:18Z</time>
  <course>0.0</course>
  <speed>0.0</speed>
  <fix>3d</fix>
</trkpt>
<trkpt lat="40.0713751" lon="-105.2297889">
  <ele>1583.01</ele>
  <time>2026-08-28T17:49:18Z</time>
  <course>247.03</course>
  <speed>0.022360679774997897</speed>
  <fix>3d</fix>
</trkpt>
<trkpt lat="40.0713749" lon="-105.229789">
  <ele>1583.0</ele>
  <time>2026-08-28T17:49:18Z</time>
  <course>0.0</course>
  <speed>0.0</speed>
  <fix>3d</fix>
</trkpt>
<trkpt lat="40.0713751" lon="-105.2297889">
  <ele>1583.01</ele>
  <time>2026-08-28T17:49:18Z</time>
  <course>247.03</course>
  <speed>0.022360679774997897</speed>
  <fix>3d</fix>
</trkpt>
<trkpt lat="40.0713749" lon="-105.229789">
  <ele>1583.0</ele>
  <time>2026-08-28T17:49:18Z</time>
  <course>0.0</course>
  <speed>0.0</speed>
  <fix>3d</fix>
</trkpt>
<trkpt lat="40.0713751" lon="-105.2297889">
  <ele>1583.02</ele>
  <time>2026-08-28T17:49:18Z</time>
  <course>247.03</course>
  <speed>0.022360679774997897</speed>
  <fix>3d</fix>
</trkpt>
<trkpt lat="40.0713749" lon="-105.229789">
  <ele>1583.0</ele>
  <time>2026-08-28T17:49:18Z</time>
  <course>0.0</course>
  <speed>0.0</speed>
  <fix>3d</fix>
</trkpt>
<trkpt lat="40.0713751" lon="-105.2297889">
  <ele>1583.03</ele>
  <time>2026-08-28T17:49:18Z</time>
  <course>247.03</course>
  <speed>0.022360679774997897</speed>
  <fix>3d</fix>
</trkpt>
<trkpt lat="40.0713749" lon="-105.229789">
  <ele>1583.0</ele>
  <time>2026-08-28T17:49:18Z</time>
  <course>0.0</course>
  <speed>0.0</speed>
  <fix>3d</fix>
</trkpt>
<trkpt lat="40.071375" lon="-105.2297889">
  <ele>1583.03</ele>
  <time>2026-08-28T17:49:18Z</time>
  <course>247.03</course>
  <speed>0.022360679774997897</speed>
  <fix>3d</fix>
</trkpt>
<trkpt lat="40.0713749" lon="-105.229789">
  <ele>1583.0</ele>
  <time>2026-08-28T17:49:18Z</time>
  <course>0.0</course>
  <speed>0.0</speed>
  <fix>3d</fix>
</trkpt>
<trkpt lat="40.0713751" lon="-105.2297889">
  <ele>1583.04</ele>
  <time>2026-08-28T17:49:18Z</time>
  <course>247.03</course>
  <speed>0.022360679774997897</speed>
  <fix>3d</fix>
</trkpt>
<trkpt lat="40.0713749" lon="-105.229789">
  <ele>1583.0</ele>
  <time>2026-08-28T17:49:18Z</time>
  <course>0.0</course>
  <speed>0.0</speed>
  <fix>3d</fix>
</trkpt>
<trkpt lat="40.071375" lon="-105.2297889">
  <ele>1583.05</ele>
  <time>2026-08-28T17:49:18Z</time>
  <course>247.03</course>
  <speed>0.022360679774997897</speed>
  <fix>3d</fix>
</trkpt>
<trkpt lat="40.0713749" lon="-105.229789">
  <ele>1583.0</ele>
  <time>2026-08-28T17:49:18Z</time>
  <course>0.0</course>
  <speed>0.0</speed>
  <fix>3d</fix>
</trkpt>
<trkpt lat="40.0713751" lon="-105.2297889">
  <ele>1583.05</ele>
  <time>2026-08-28T17:49:18Z</time>
  <course>247.03</course>
  <speed>0.022360679774997897</speed>
  <fix>3d</fix>
</trkpt>
<trkpt lat="40.0713749" lon="-105.229789">
  <ele>1583.0</ele>
  <time>2026-08-28T17:49:18Z</time>
  <course>0.0</course>
  <speed>0.0</speed>
  <fix>3d</fix>
</trkpt>
<trkpt lat="40.071375" lon="-105.2297889">
  <ele>1583.05</ele>
  <time>2026-08-28T17:49:18Z</time>
  <course>247.03</course>
  <speed>0.022360679774997897</speed>
  <fix>3d</fix>
</trkpt>
<trkpt lat="40.0713749" lon="-105.229789">
  <ele>1583.0</ele>
  <time>2026-08-28T17:49:18Z</time>
  <course>0.0</course>
  <speed>0.0</speed>
  <fix>3d</fix>
</trkpt>
<trkpt lat="40.0713751" lon="-105.2297889">
  <ele>1583.05</ele>
  <time>2026-08-28T17:49:18Z</time>
  <course>247.03</course>
  <speed>0.022360679774997897</speed>
  <fix>3d</fix>
</trkpt>
<trkpt lat="40.0713749" lon="-105.229789">
  <ele>1583.0</ele>
  <time>2026-08-28T17:49:18Z</time>
  <course>0.0</course>
  <speed>0.0</speed>
  <fix>3d</fix>
</trkpt>
<trkpt lat="40.071375" lon="-105.2297889">
  <ele>1583.04</ele>
  <time>2026-08-28T17:49:18Z</time>
  <course>247.03</course>
  <speed>0.022360679774997897</speed>
  <fix>3d</fix>
</trkpt>
<trkpt lat="40.0713749" lon="-105.229789">
  <ele>1583.0</ele>
  <time>2026-08-28T17:49:18Z</time>
  <course>0.0</course>
  <speed>0.0</speed>
  <fix>3d</fix>
</trkpt>
<trkpt lat="40.0713751" lon="-105.2297889">
  <ele>1583.04</ele>
  <time>2026-08-28T17:49:18Z</time>
  <course>247.03</course>
  <speed>0.022360679774997897</speed>
  <fix>3d</fix>
</trkpt>
<trkpt lat="40.0713749" lon="-105.229789">
  <ele>1583.0</ele>
  <time>2026-08-28T17:49:18Z</time>
  <course>0.0</course>
  <speed>0.0</speed>
  <fix>3d</fix>
</trkpt>
<trkpt lat="40.071375" lon="-105.2297889">
  <ele>1583.04</ele>
  <time>2026-08-28T17:49:18Z</time>
  <course>247.02</course>
  <speed>0.022360679774997897</speed>
  <fix>3d</fix>
</trkpt>
<trkpt lat="40.0713749" lon="-105.229789">
  <ele>1583.0</ele>
  <time>2026-08-28T17:49:18Z</time>
  <course>0.0</course>
  <speed>0.0</speed>
  <fix>3d</fix>
</trkpt>
<trkpt lat="40.0713751" lon="-105.2297889">
  <ele>1583.04</ele>
  <time>2026-08-28T17:49:18Z</time>
  <course>247.02</course>
  <speed>0.022360679774997897</speed>
  <fix>3d</fix>
</trkpt>
<trkpt lat="40.0713749" lon="-105.229789">
  <ele>1583.0</ele>
  <time>2026-08-28T17:49:18Z</time>
  <course>0.0</course>
  <speed>0.0</speed>
  <fix>3d</fix>
</trkpt>
<trkpt lat="40.071375" lon="-105.2297889">
  <ele>1583.04</ele>
  <time>2026-08-28T17:49:18Z</time>
  <course>247.02</course>
  <speed>0.022360679774997897</speed>
  <fix>3d</fix>
</trkpt>
<trkpt lat="40.0713749" lon="-105.229789">
  <ele>1583.0</ele>
  <time>2026-08-28T17:49:18Z</time>
  <course>0.0</course>
  <speed>0.0</speed>
  <fix>3d</fix>
</trkpt>
<trkpt lat="40.0713751" lon="-105.2297889">
  <ele>1583.04</ele>
  <time>2026-08-28T17:49:18Z</time>
  <course>247.02</course>
  <speed>0.022360679774997897</speed>
  <fix>3d</fix>
</trkpt>
<trkpt lat="40.0713749" lon="-105.229789">
  <ele>1583.0</ele>
  <time>2026-08-28T17:49:18Z</time>
  <course>0.0</course>
  <speed>0.0</speed>
  <fix>3d</fix>
</trkpt>
<trkpt lat="40.0713751" lon="-105.2297889">
  <ele>1583.04</ele>
  <time>2026-08-28T17:49:18Z</time>
  <course>247.02</course>
  <speed>0.022360679774997897</speed>
  <fix>3d</fix>
</trkpt>
<trkpt lat="40.0713749" lon="-105.229789">
  <ele>1583.0</ele>
  <time>2026-08-28T17:49:18Z</time>
  <course>0.0</course>
  <speed>0.0</speed>
  <fix>3d</fix>
</trkpt>
<trkpt lat="40.0713751" lon="-105.2297889">
  <ele>1583.04</ele>
  <time>2026-08-28T17:49:18Z</time>
  <course>247.02</course>
  <speed>0.022360679774997897</speed>
  <fix>3d</fix>
</trkpt>
<trkpt lat="40.0713749" lon="-105.229789">
  <ele>1583.0</ele>
  <time>2026-08-28T17:49:18Z</time>
  <course>0.0</course>
  <speed>0.0</speed>
  <fix>3d</fix>
</trkpt>
<trkpt lat="40.0713751" lon="-105.2297889">
  <ele>1583.03</ele>
  <time>2026-08-28T17:49:18Z</time>
  <course>247.02</course>
  <speed>0.022360679774997897</speed>
  <fix>3d</fix>
</trkpt>
<trkpt lat="40.0713749" lon="-105.229789">
  <ele>1583.0</ele>
  <time>2026-08-28T17:49:18Z</time>
  <course>0.0</course>
  <speed>0.0</speed>
  <fix>3d</fix>
</trkpt>
<trkpt lat="40.0713751" lon="-105.2297889">
  <ele>1583.03</ele>
  <time>2026-08-28T17:49:18Z</time>
  <course>247.02</course>
  <speed>0.022360679774997897</speed>
  <fix>3d</fix>
</trkpt>
<trkpt lat="40.0713749" lon="-105.229789">
  <ele>1583.0</ele>
  <time>2026-08-28T17:49:18Z</time>
  <course>0.0</course>
  <speed>0.0</speed>
  <fix>3d</fix>
</trkpt>
<trkpt lat="40.0713751" lon="-105.2297889">
  <ele>1583.03</ele>
  <time>2026-08-28T17:49:18Z</time>
  <course>247.02</course>
  <speed>0.022360679774997897</speed>
  <fix>3d</fix>
</trkpt>
<trkpt lat="40.0713749" lon="-105.229789">
  <ele>1583.0</ele>
  <time>2026-08-28T17:49:18Z</time>
  <course>0.0</course>
  <speed>0.0</speed>
  <fix>3d</fix>
</trkpt>
<trkpt lat="40.0713751" lon="-105.2297889">
  <ele>1583.02</ele>
  <time>2026-08-28T17:49:18Z</time>
  <course>247.02</course>
  <speed>0.022360679774997897</speed>
  <fix>3d</fix>
</trkpt>
<trkpt lat="40.0713749" lon="-105.229789">
  <ele>1583.0</ele>
  <time>2026-08-28T17:49:18Z</time>
  <course>0.0</course>
  <speed>0.0</speed>
  <fix>3d</fix>
</trkpt>
<trkpt lat="40.0713751" lon="-105.2297889">
  <ele>1583.02</ele>
  <time>2026-08-28T17:49:18Z</time>
  <course>247.02</course>
  <speed>0.022360679774997897</speed>
  <fix>3d</fix>
</trkpt>
<trkpt lat="40.0713749" lon="-105.229789">
  <ele>1583.0</ele>
  <time>2026-08-28T17:49:18Z</time>
  <course>0.0</course>
  <speed>0.0</speed>
  <fix>3d</fix>
</trkpt>
<trkpt lat="40.0713751" lon="-105.2297889">
  <ele>1583.01</ele>
  <time>2026-08-28T17:49:18Z</time>
  <course>247.02</course>
  <speed>0.022360679774997897</speed>
  <fix>3d</fix>
</trkpt>
<trkpt lat="40.0713749" lon="-105.229789">
  <ele>1583.0</ele>
  <time>2026-08-28T17:49:18Z</time>
  <course>0.0</course>
  <speed>0.0</speed>
  <fix>3d</fix>
</trkpt>
<trkpt lat="40.071375" lon="-105.2297889">
  <ele>1583.01</ele>
  <time>2026-08-28T17:49:18Z</time>
  <course>247.02</course>
  <speed>0.022360679774997897</speed>
  <fix>3d</fix>
</trkpt>
<trkpt lat="40.0713749" lon="-105.229789">
  <ele>1583.0</ele>
  <time>2026-08-28T17:49:18Z</time>
  <course>0.0</course>
  <speed>0.0</speed>
  <fix>3d</fix>
</trkpt>
<trkpt lat="40.0713751" lon="-105.2297889">
  <ele>1583.0</ele>
  <time>2026-08-28T17:49:18Z</time>
  <course>247.02</course>
  <speed>0.022360679774997897</speed>
  <fix>3d</fix>
</trkpt>
<trkpt lat="40.0713749" lon="-105.229789">
  <ele>1583.0</ele>
  <time>2026-08-28T17:49:18Z</time>
  <course>0.0</course>
  <speed>0.0</speed>
  <fix>3d</fix>
</trkpt>
<trkpt lat="40.071375" lon="-105.2297889">
  <ele>1583.0</ele>
  <time>2026-08-28T17:49:18Z</time>
  <course>247.02</course>
  <speed>0.02</speed>
  <fix>3d</fix>
</trkpt>
<trkpt lat="40.0713749" lon="-105.229789">
  <ele>1583.0</ele>
  <time>2026-08-28T17:49:18Z</time>
  <course>0.0</course>
  <speed>0.0</speed>
  <fix>3d</fix>
</trkpt>
<trkpt lat="40.0713751" lon="-105.2297889">
  <ele>1583.0</ele>
  <time>2026-08-28T17:49:18Z</time>
  <course>247.02</course>
  <speed>0.022360679774997897</speed>
  <fix>3d</fix>
</trkpt>
<trkpt lat="40.0713749" lon="-105.229789">
  <ele>1583.0</ele>
  <time>2026-08-28T17:49:18Z</time>
  <course>0.0</course>
  <speed>0.0</speed>
  <fix>3d</fix>
</trkpt>
<trkpt lat="40.071375" lon="-105.2297889">
  <ele>1582.99</ele>
  <time>2026-08-28T17:49:18Z</time>
  <course>247.02</course>
  <speed>0.022360679774997897</speed>
  <fix>3d</fix>
</trkpt>
<trkpt lat="40.0713749" lon="-105.229789">
  <ele>1583.0</ele>
  <time>2026-08-28T17:49:18Z</time>
  <course>0.0</course>
  <speed>0.0</speed>
  <fix>3d</fix>
</trkpt>
<trkpt lat="40.0713751" lon="-105.2297889">
  <ele>1582.99</ele>
  <time>2026-08-28T17:49:18Z</time>
  <course>247.02</course>
  <speed>0.022360679774997897</speed>
  <fix>3d</fix>
</trkpt>
<trkpt lat="40.0713749" lon="-105.229789">
  <ele>1583.0</ele>
  <time>2026-08-28T17:49:18Z</time>
  <course>0.0</course>
  <speed>0.0</speed>
  <fix>3d</fix>
</trkpt>
<trkpt lat="40.071375" lon="-105.2297889">
  <ele>1582.99</ele>
  <time>2026-08-28T17:49:18Z</time>
  <course>247.02</course>
  <speed>0.02</speed>
  <fix>3d</fix>
</trkpt>
<trkpt lat="40.0713749" lon="-105.229789">
  <ele>1583.0</ele>
  <time>2026-08-28T17:49:18Z</time>
  <course>0.0</course>
  <speed>0.0</speed>
  <fix>3d</fix>
</trkpt>
<trkpt lat="40.0713751" lon="-105.2297889">
  <ele>1582.98</ele>
  <time>2026-08-28T17:49:18Z</time>
  <course>247.02</course>
  <speed>0.022360679774997897</speed>
  <fix>3d</fix>
</trkpt>
<trkpt lat="40.0713749" lon="-105.229789">
  <ele>1583.0</ele>
  <time>2026-08-28T17:49:18Z</time>
  <course>0.0</course>
  <speed>0.0</speed>
  <fix>3d</fix>
</trkpt>
<trkpt lat="40.071375" lon="-105.2297889">
  <ele>1582.98</ele>
  <time>2026-08-28T17:49:18Z</time>
  <course>247.02</course>
  <speed>0.022360679774997897</speed>
  <fix>3d</fix>
</trkpt>
<trkpt lat="40.0713749" lon="-105.229789">
  <ele>1583.0</ele>
  <time>2026-08-28T17:49:18Z</time>
  <course>0.0</course>
  <speed>0.0</speed>
  <fix>3d</fix>
</trkpt>
<trkpt lat="40.0713751" lon="-105.2297889">
  <ele>1582.97</ele>
  <time>2026-08-28T17:49:18Z</time>
  <course>247.02</course>
  <speed>0.022360679774997897</speed>
  <fix>3d</fix>
</trkpt>
<trkpt lat="40.0713749" lon="-105.229789">
  <ele>1583.0</ele>
  <time>2026-08-28T17:49:18Z</time>
  <course>0.0</course>
  <speed>0.0</speed>
  <fix>3d</fix>
</trkpt>
<trkpt lat="40.071375" lon="-105.2297889">
  <ele>1582.97</ele>
  <time>2026-08-28T17:49:18Z</time>
  <course>247.02</course>
  <speed>0.022360679774997897</speed>
  <fix>3d</fix>
</trkpt>
<trkpt lat="40.0713749" lon="-105.229789">
  <ele>1583.0</ele>
  <time>2026-08-28T17:49:18Z</time>
  <course>0.0</course>
  <speed>0.0</speed>
  <fix>3d</fix>
</trkpt>
<trkpt lat="40.0713751" lon="-105.2297889">
  <ele>1582.97</ele>
  <time>2026-08-28T17:49:18Z</time>
  <course>247.02</course>
  <speed>0.022360679774997897</speed>
  <fix>3d</fix>
</trkpt>
<trkpt lat="40.0713749" lon="-105.229789">
  <ele>1583.0</ele>
  <time>2026-08-28T17:49:18Z</time>
  <course>0.0</course>
  <speed>0.0</speed>
  <fix>3d</fix>
</trkpt>
<trkpt lat="40.071375" lon="-105.2297889">
  <ele>1582.96</ele>
  <time>2026-08-28T17:49:18Z</time>
  <course>247.02</course>
  <speed>0.022360679774997897</speed>
  <fix>3d</fix>
</trkpt>
<trkpt lat="40.0713749" lon="-105.229789">
  <ele>1583.0</ele>
  <time>2026-08-28T17:49:18Z</time>
  <course>0.0</course>
  <speed>0.0</speed>
  <fix>3d</fix>
</trkpt>
<trkpt lat="40.0713751" lon="-105.2297889">
  <ele>1582.96</ele>
  <time>2026-08-28T17:49:18Z</time>
  <course>247.02</course>
  <speed>0.022360679774997897</speed>
  <fix>3d</fix>
</trkpt>
<trkpt lat="40.0713749" lon="-105.229789">
  <ele>1583.0</ele>
  <time>2026-08-28T17:49:18Z</time>
  <course>0.0</course>
  <speed>0.0</speed>
  <fix>3d</fix>
</trkpt>
<trkpt lat="40.0713751" lon="-105.2297889">
  <ele>1582.95</ele>
  <time>2026-08-28T17:49:18Z</time>
  <course>247.02</course>
  <speed>0.022360679774997897</speed>
  <fix>3d</fix>
</trkpt>
<trkpt lat="40.0713749" lon="-105.229789">
  <ele>1583.0</ele>
  <time>2026-08-28T17:49:18Z</time>
  <course>0.0</course>
  <speed>0.0</speed>
  <fix>3d</fix>
</trkpt>
<trkpt lat="40.0713751" lon="-105.2297889">
  <ele>1582.95</ele>
  <time>2026-08-28T17:49:18Z</time>
  <course>247.02</course>
  <speed>0.022360679774997897</speed>
  <fix>3d</fix>
</trkpt>
<trkpt lat="40.0713749" lon="-105.229789">
  <ele>1583.0</ele>
  <time>2026-08-28T17:49:18Z</time>
  <course>0.0</course>
  <speed>0.0</speed>
  <fix>3d</fix>
</trkpt>
<trkpt lat="40.0713751" lon="-105.2297889">
  <ele>1582.95</ele>
  <time>2026-08-28T17:49:18Z</time>
  <course>247.02</course>
  <speed>0.022360679774997897</speed>
  <fix>3d</fix>
</trkpt>
<trkpt lat="40.0713749" lon="-105.229789">
  <ele>1583.0</ele>
  <time>2026-08-28T17:49:18Z</time>
  <course>0.0</course>
  <speed>0.0</speed>
  <fix>3d</fix>
</trkpt>
<trkpt lat="40.0713751" lon="-105.2297889">
  <ele>1582.95</ele>
  <time>2026-08-28T17:49:18Z</time>
  <course>247.02</course>
  <speed>0.022360679774997897</speed>
  <fix>3d</fix>
</trkpt>
<trkpt lat="40.0713749" lon="-105.229789">
  <ele>1583.0</ele>
  <time>2026-08-28T17:49:18Z</time>
  <course>0.0</course>
  <speed>0.0</speed>
  <fix>3d</fix>
</trkpt>
<trkpt lat="40.0713751" lon="-105.2297889">
  <ele>1582.95</ele>
  <time>2026-08-28T17:49:18Z</time>
  <course>247.02</course>
  <speed>0.022360679774997897</speed>
  <fix>3d</fix>
</trkpt>
<trkpt lat="40.0713749" lon="-105.229789">
  <ele>1583.0</ele>
  <time>2026-08-28T17:49:18Z</time>
  <course>0.0</course>
  <speed>0.0</speed>
  <fix>3d</fix>
</trkpt>
<trkpt lat="40.0713751" lon="-105.2297889">
  <ele>1582.95</ele>
  <time>2026-08-28T17:49:18Z</time>
  <course>247.02</course>
  <speed>0.022360679774997897</speed>
  <fix>3d</fix>
</trkpt>
<trkpt lat="40.0713749" lon="-105.229789">
  <ele>1583.0</ele>
  <time>2026-08-28T17:49:18Z</time>
  <course>0.0</course>
  <speed>0.0</speed>
  <fix>3d</fix>
</trkpt>
<trkpt lat="40.0713751" lon="-105.2297889">
  <ele>1582.95</ele>
  <time>2026-08-28T17:49:18Z</time>
  <course>247.02</course>
  <speed>0.022360679774997897</speed>
  <fix>3d</fix>
</trkpt>
<trkpt lat="40.0713749" lon="-105.229789">
  <ele>1583.0</ele>
  <time>2026-08-28T17:49:18Z</time>
  <course>0.0</course>
  <speed>0.0</speed>
  <fix>3d</fix>
</trkpt>
<trkpt lat="40.0713751" lon="-105.2297889">
  <ele>1582.94</ele>
  <time>2026-08-28T17:49:18Z</time>
  <course>247.02</course>
  <speed>0.022360679774997897</speed>
  <fix>3d</fix>
</trkpt>
<trkpt lat="40.0713749" lon="-105.229789">
  <ele>1583.0</ele>
  <time>2026-08-28T17:49:18Z</time>
  <course>0.0</course>
  <speed>0.0</speed>
  <fix>3d</fix>
</trkpt>
<trkpt lat="40.071375" lon="-105.2297889">
  <ele>1582.94</ele>
  <time>2026-08-28T17:49:18Z</time>
  <course>247.02</course>
  <speed>0.022360679774997897</speed>
  <fix>3d</fix>
</trkpt>
<trkpt lat="40.0713749" lon="-105.229789">
  <ele>1583.0</ele>
  <time>2026-08-28T17:49:18Z</time>
  <course>0.0</course>
  <speed>0.0</speed>
  <fix>3d</fix>
</trkpt>
<trkpt lat="40.0713751" lon="-105.2297889">
  <ele>1582.94</ele>
  <time>2026-08-28T17:49:18Z</time>
  <course>247.02</course>
  <speed>0.022360679774997897</speed>
  <fix>3d</fix>
</trkpt>
<trkpt lat="40.0713749" lon="-105.229789">
  <ele>1583.0</ele>
  <time>2026-08-28T17:49:18Z</time>
  <course>0.0</course>
  <speed>0.0</speed>
  <fix>3d</fix>
</trkpt>
<trkpt lat="40.071375" lon="-105.2297889">
  <ele>1582.94</ele>
  <time>2026-08-28T17:49:18Z</time>
  <course>247.02</course>
  <speed>0.022360679774997897</speed>
  <fix>3d</fix>
</trkpt>
<trkpt lat="40.0713749" lon="-105.229789">
  <ele>1583.0</ele>
  <time>2026-08-28T17:49:18Z</time>
  <course>0.0</course>
  <speed>0.0</speed>
  <fix>3d</fix>
</trkpt>
<trkpt lat="40.0713751" lon="-105.2297889">
  <ele>1582.93</ele>
  <time>2026-08-28T17:49:18Z</time>
  <course>247.02</course>
  <speed>0.022360679774997897</speed>
  <fix>3d</fix>
</trkpt>
<trkpt lat="40.0713749" lon="-105.229789">
  <ele>1583.0</ele>
  <time>2026-08-28T17:49:18Z</time>
  <course>0.0</course>
  <speed>0.0</speed>
  <fix>3d</fix>
</trkpt>
<trkpt lat="40.071375" lon="-105.2297889">
  <ele>1582.93</ele>
  <time>2026-08-28T17:49:18Z</time>
  <course>247.02</course>
  <speed>0.022360679774997897</speed>
  <fix>3d</fix>
</trkpt>
<trkpt lat="40.0713749" lon="-105.229789">
  <ele>1583.0</ele>
  <time>2026-08-28T17:49:18Z</time>
  <course>0.0</course>
  <speed>0.0</speed>
  <fix>3d</fix>
</trkpt>
<trkpt lat="40.0713751" lon="-105.2297889">
  <ele>1582.92</ele>
  <time>2026-08-28T17:49:18Z</time>
  <course>247.02</course>
  <speed>0.022360679774997897</speed>
  <fix>3d</fix>
</trkpt>
<trkpt lat="40.0713749" lon="-105.229789">
  <ele>1583.0</ele>
  <time>2026-08-28T17:49:18Z</time>
  <course>0.0</course>
  <speed>0.0</speed>
  <fix>3d</fix>
</trkpt>
<trkpt lat="40.071375" lon="-105.2297889">
  <ele>1582.92</ele>
  <time>2026-08-28T17:49:18Z</time>
  <course>247.02</course>
  <speed>0.022360679774997897</speed>
  <fix>3d</fix>
</trkpt>
<trkpt lat="40.0713749" lon="-105.229789">
  <ele>1583.0</ele>
  <time>2026-08-28T17:49:18Z</time>
  <course>0.0</course>
  <speed>0.0</speed>
  <fix>3d</fix>
</trkpt>
<trkpt lat="40.0713751" lon="-105.2297889">
  <ele>1582.91</ele>
  <time>2026-08-28T17:49:18Z</time>
  <course>247.02</course>
  <speed>0.022360679774997897</speed>
  <fix>3d</fix>
</trkpt>
<trkpt lat="40.0713749" lon="-105.229789">
  <ele>1583.0</ele>
  <time>2026-08-28T17:49:18Z</time>
  <course>0.0</course>
  <speed>0.0</speed>
  <fix>3d</fix>
</trkpt>
<trkpt lat="40.071375" lon="-105.2297889">
  <ele>1582.91</ele>
  <time>2026-08-28T17:49:18Z</time>
  <course>247.02</course>
  <speed>0.022360679774997897</speed>
  <fix>3d</fix>
</trkpt>
<trkpt lat="40.0713749" lon="-105.229789">
  <ele>1583.0</ele>
  <time>2026-08-28T17:49:18Z</time>
  <course>0.0</course>
  <speed>0.0</speed>
  <fix>3d</fix>
</trkpt>
<trkpt lat="40.0713751" lon="-105.2297889">
  <ele>1582.9</ele>
  <time>2026-08-28T17:49:18Z</time>
  <course>247.02</course>
  <speed>0.022360679774997897</speed>
  <fix>3d</fix>
</trkpt>
<trkpt lat="40.0713749" lon="-105.229789">
  <ele>1583.0</ele>
  <time>2026-08-28T17:49:18Z</time>
  <course>0.0</course>
  <speed>0.0</speed>
  <fix>3d</fix>
</trkpt>
<trkpt lat="40.071375" lon="-105.2297889">
  <ele>1582.9</ele>
  <time>2026-08-28T17:49:18Z</time>
  <course>247.02</course>
  <speed>0.022360679774997897</speed>
  <fix>3d</fix>
</trkpt>
<trkpt lat="40.0713749" lon="-105.229789">
  <ele>1583.0</ele>
  <time>2026-08-28T17:49:18Z</time>
  <course>0.0</course>
  <speed>0.0</speed>
  <fix>3d</fix>
</trkpt>
<trkpt lat="40.0713751" lon="-105.2297889">
  <ele>1582.9</ele>
  <time>2026-08-28T17:49:18Z</time>
  <course>247.02</course>
  <speed>0.022360679774997897</speed>
  <fix>3d</fix>
</trkpt>
<trkpt lat="40.0713749" lon="-105.229789">
  <ele>1583.0</ele>
  <time>2026-08-28T17:49:18Z</time>
  <course>0.0</course>
  <speed>0.0</speed>
  <fix>3d</fix>
</trkpt>
<trkpt lat="40.0713751" lon="-105.2297889">
  <ele>1582.9</ele>
  <time>2026-08-28T17:49:18Z</time>
  <course>247.02</course>
  <speed>0.022360679774997897</speed>
  <fix>3d</fix>
</trkpt>
<trkpt lat="40.0713749" lon="-105.229789">
  <ele>1583.0</ele>
  <time>2026-08-28T17:49:18Z</time>
  <course>0.0</course>
  <speed>0.0</speed>
  <fix>3d</fix>
</trkpt>
<trkpt lat="40.0713751" lon="-105.2297889">
  <ele>1582.9</ele>
  <time>2026-08-28T17:49:18Z</time>
  <course>247.02</course>
  <speed>0.022360679774997897</speed>
  <fix>3d</fix>
</trkpt>
<trkpt lat="40.0713749" lon="-105.229789">
  <ele>1583.0</ele>
  <time>2026-08-28T17:49:18Z</time>
  <course>0.0</course>
  <speed>0.0</speed>
  <fix>3d</fix>
</trkpt>
<trkpt lat="40.0713751" lon="-105.2297889">
  <ele>1582.9</ele>
  <time>2026-08-28T17:49:18Z</time>
  <course>247.02</course>
  <speed>0.022360679774997897</speed>
  <fix>3d</fix>
</trkpt>
<trkpt lat="40.0713749" lon="-105.229789">
  <ele>1583.0</ele>
  <time>2026-08-28T17:49:18Z</time>
  <course>0.0</course>
  <speed>0.0</speed>
  <fix>3d</fix>
</trkpt>
<trkpt lat="40.0713751" lon="-105.2297889">
  <ele>1582.91</ele>
  <time>2026-08-28T17:49:18Z</time>
  <course>247.02</course>
  <speed>0.022360679774997897</speed>
  <fix>3d</fix>
</trkpt>
<trkpt lat="40.0713749" lon="-105.229789">
  <ele>1583.0</ele>
  <time>2026-08-28T17:49:18Z</time>
  <course>0.0</course>
  <speed>0.0</speed>
  <fix>3d</fix>
</trkpt>
<trkpt lat="40.0713751" lon="-105.2297889">
  <ele>1582.91</ele>
  <time>2026-08-28T17:49:18Z</time>
  <course>247.02</course>
  <speed>0.022360679774997897</speed>
  <fix>3d</fix>
</trkpt>
<trkpt lat="40.0713749" lon="-105.229789">
  <ele>1583.0</ele>
  <time>2026-08-28T17:49:18Z</time>
  <course>0.0</course>
  <speed>0.0</speed>
  <fix>3d</fix>
</trkpt>
<trkpt lat="40.0713751" lon="-105.2297889">
  <ele>1582.92</ele>
  <time>2026-08-28T17:49:18Z</time>
  <course>247.02</course>
  <speed>0.022360679774997897</speed>
  <fix>3d</fix>
</trkpt>
<trkpt lat="40.0713749" lon="-105.229789">
  <ele>1583.0</ele>
  <time>2026-08-28T17:49:18Z</time>
  <course>0.0</course>
  <speed>0.0</speed>
  <fix>3d</fix>
</trkpt>
<trkpt lat="40.0713751" lon="-105.2297889">
  <ele>1582.92</ele>
  <time>2026-08-28T17:49:18Z</time>
  <course>247.02</course>
  <speed>0.022360679774997897</speed>
  <fix>3d</fix>
</trkpt>
<trkpt lat="40.0713749" lon="-105.229789">
  <ele>1583.0</ele>
  <time>2026-08-28T17:49:18Z</time>
  <course>0.0</course>
  <speed>0.0</speed>
  <fix>3d</fix>
</trkpt>
<trkpt lat="40.0713751" lon="-105.2297889">
  <ele>1582.92</ele>
  <time>2026-08-28T17:49:18Z</time>
  <course>247.02</course>
  <speed>0.022360679774997897</speed>
  <fix>3d</fix>
</trkpt>
<trkpt lat="40.0713749" lon="-105.229789">
  <ele>1583.0</ele>
  <time>2026-08-28T17:49:18Z</time>
  <course>0.0</course>
  <speed>0.0</speed>
  <fix>3d</fix>
</trkpt>
<trkpt lat="40.071375" lon="-105.2297889">
  <ele>1582.92</ele>
  <time>2026-08-28T17:49:18Z</time>
  <course>247.02</course>
  <speed>0.022360679774997897</speed>
  <fix>3d</fix>
</trkpt>
<trkpt lat="40.0713749" lon="-105.229789">
  <ele>1583.0</ele>
  <time>2026-08-28T17:49:18Z</time>
  <course>0.0</course>
  <speed>0.0</speed>
  <fix>3d</fix>
</trkpt>
<trkpt lat="40.0713751" lon="-105.2297889">
  <ele>1582.92</ele>
  <time>2026-08-28T17:49:18Z</time>
  <course>247.02</course>
  <speed>0.022360679774997897</speed>
  <fix>3d</fix>
</trkpt>
<trkpt lat="40.0713749" lon="-105.229789">
  <ele>1583.0</ele>
  <time>2026-08-28T17:49:18Z</time>
  <course>0.0</course>
  <speed>0.0</speed>
  <fix>3d</fix>
</trkpt>
<trkpt lat="40.071375" lon="-105.2297889">
  <ele>1582.92</ele>
  <time>2026-08-28T17:49:18Z</time>
  <course>247.02</course>
  <speed>0.022360679774997897</speed>
  <fix>3d</fix>
</trkpt>
<trkpt lat="40.0713749" lon="-105.229789">
  <ele>1583.0</ele>
  <time>2026-08-28T17:49:18Z</time>
  <course>0.0</course>
  <speed>0.0</speed>
  <fix>3d</fix>
</trkpt>
<trkpt lat="40.0713751" lon="-105.2297889">
  <ele>1582.93</ele>
  <time>2026-08-28T17:49:18Z</time>
  <course>247.02</course>
  <speed>0.022360679774997897</speed>
  <fix>3d</fix>
</trkpt>
<trkpt lat="40.0713749" lon="-105.229789">
  <ele>1583.0</ele>
  <time>2026-08-28T17:49:18Z</time>
  <course>0.0</course>
  <speed>0.0</speed>
  <fix>3d</fix>
</trkpt>
<trkpt lat="40.071375" lon="-105.2297889">
  <ele>1582.93</ele>
  <time>2026-08-28T17:49:18Z</time>
  <course>247.02</course>
  <speed>0.022360679774997897</speed>
  <fix>3d</fix>
</trkpt>
<trkpt lat="40.0713749" lon="-105.229789">
  <ele>1583.0</ele>
  <time>2026-08-28T17:49:18Z</time>
  <course>0.0</course>
  <speed>0.0</speed>
  <fix>3d</fix>
</trkpt>
<trkpt lat="40.0713751" lon="-105.2297889">
  <ele>1582.93</ele>
  <time>2026-08-28T17:49:18Z</time>
  <course>247.02</course>
  <speed>0.022360679774997897</speed>
  <fix>3d</fix>
</trkpt>
<trkpt lat="40.0713749" lon="-105.229789">
  <ele>1583.0</ele>
  <time>2026-08-28T17:49:18Z</time>
  <course>0.0</course>
  <speed>0.0</speed>
  <fix>3d</fix>
</trkpt>
<trkpt lat="40.071375" lon="-105.2297889">
  <ele>1582.93</ele>
  <time>2026-08-28T17:49:18Z</time>
  <course>247.02</course>
  <speed>0.022360679774997897</speed>
  <fix>3d</fix>
</trkpt>
<trkpt lat="40.0713749" lon="-105.229789">
  <ele>1583.0</ele>
  <time>2026-08-28T17:49:18Z</time>
  <course>0.0</course>
  <speed>0.0</speed>
  <fix>3d</fix>
</trkpt>
<trkpt lat="40.0713751" lon="-105.2297889">
  <ele>1582.93</ele>
  <time>2026-08-28T17:49:18Z</time>
  <course>247.02</course>
  <speed>0.022360679774997897</speed>
  <fix>3d</fix>
</trkpt>
<trkpt lat="40.0713749" lon="-105.229789">
  <ele>1583.0</ele>
  <time>2026-08-28T17:49:18Z</time>
  <course>0.0</course>
  <speed>0.0</speed>
  <fix>3d</fix>
</trkpt>
<trkpt lat="40.071375" lon="-105.2297889">
  <ele>1582.93</ele>
  <time>2026-08-28T17:49:18Z</time>
  <course>247.02</course>
  <speed>0.022360679774997897</speed>
  <fix>3d</fix>
</trkpt>
<trkpt lat="40.0713749" lon="-105.229789">
  <ele>1583.0</ele>
  <time>2026-08-28T17:49:18Z</time>
  <course>0.0</course>
  <speed>0.0</speed>
  <fix>3d</fix>
</trkpt>
<trkpt lat="40.0713751" lon="-105.2297889">
  <ele>1582.94</ele>
  <time>2026-08-28T17:49:18Z</time>
  <course>247.02</course>
  <speed>0.022360679774997897</speed>
  <fix>3d</fix>
</trkpt>
<trkpt lat="40.0713749" lon="-105.229789">
  <ele>1583.0</ele>
  <time>2026-08-28T17:49:18Z</time>
  <course>0.0</course>
  <speed>0.0</speed>
  <fix>3d</fix>
</trkpt>
<trkpt lat="40.071375" lon="-105.2297889">
  <ele>1582.94</ele>
  <time>2026-08-28T17:49:18Z</time>
  <course>247.02</course>
  <speed>0.022360679774997897</speed>
  <fix>3d</fix>
</trkpt>
<trkpt lat="40.0713749" lon="-105.229789">
  <ele>1583.0</ele>
  <time>2026-08-28T17:49:18Z</time>
  <course>0.0</course>
  <speed>0.0</speed>
  <fix>3d</fix>
</trkpt>
<trkpt lat="40.0713751" lon="-105.2297889">
  <ele>1582.94</ele>
  <time>2026-08-28T17:49:18Z</time>
  <course>247.02</course>
  <speed>0.022360679774997897</speed>
  <fix>3d</fix>
</trkpt>
<trkpt lat="40.0713749" lon="-105.229789">
  <ele>1583.0</ele>
  <time>2026-08-28T17:49:18Z</time>
  <course>0.0</course>
  <speed>0.0</speed>
  <fix>3d</fix>
</trkpt>
<trkpt lat="40.071375" lon="-105.2297889">
  <ele>1582.94</ele>
  <time>2026-08-28T17:49:18Z</time>
  <course>247.02</course>
  <speed>0.022360679774997897</speed>
  <fix>3d</fix>
</trkpt>
<trkpt lat="40.0713749" lon="-105.229789">
  <ele>1583.0</ele>
  <time>2026-08-28T17:49:18Z</time>
  <course>0.0</course>
  <speed>0.0</speed>
  <fix>3d</fix>
</trkpt>
<trkpt lat="40.0713751" lon="-105.2297889">
  <ele>1582.94</ele>
  <time>2026-08-28T17:49:18Z</time>
  <course>247.02</course>
  <speed>0.022360679774997897</speed>
  <fix>3d</fix>
</trkpt>
<trkpt lat="40.0713749" lon="-105.229789">
  <ele>1583.0</ele>
  <time>2026-08-28T17:49:18Z</time>
  <course>0.0</course>
  <speed>0.0</speed>
  <fix>3d</fix>
</trkpt>
<trkpt lat="40.0713751" lon="-105.2297889">
  <ele>1582.94</ele>
  <time>2026-08-28T17:49:18Z</time>
  <course>247.02</course>
  <speed>0.022360679774997897</speed>
  <fix>3d</fix>
</trkpt>
<trkpt lat="40.0713749" lon="-105.229789">
  <ele>1583.0</ele>
  <time>2026-08-28T17:49:18Z</time>
  <course>0.0</course>
  <speed>0.0</speed>
  <fix>3d</fix>
</trkpt>
<trkpt lat="40.0713751" lon="-105.2297889">
  <ele>1582.95</ele>
  <time>2026-08-28T17:49:18Z</time>
  <course>247.02</course>
  <speed>0.022360679774997897</speed>
  <fix>3d</fix>
</trkpt>
<trkpt lat="40.0713749" lon="-105.229789">
  <ele>1583.0</ele>
  <time>2026-08-28T17:49:18Z</time>
  <course>0.0</course>
  <speed>0.0</speed>
  <fix>3d</fix>
</trkpt>
<trkpt lat="40.0713751" lon="-105.2297889">
  <ele>1582.94</ele>
  <time>2026-08-28T17:49:18Z</time>
  <course>247.02</course>
  <speed>0.022360679774997897</speed>
  <fix>3d</fix>
</trkpt>
<trkpt lat="40.0713749" lon="-105.229789">
  <ele>1583.0</ele>
  <time>2026-08-28T17:49:18Z</time>
  <course>0.0</course>
  <speed>0.0</speed>
  <fix>3d</fix>
</trkpt>
<trkpt lat="40.0713751" lon="-105.2297889">
  <ele>1582.94</ele>
  <time>2026-08-28T17:49:18Z</time>
  <course>247.02</course>
  <speed>0.022360679774997897</speed>
  <fix>3d</fix>
</trkpt>
<trkpt lat="40.0713749" lon="-105.229789">
  <ele>1583.0</ele>
  <time>2026-08-28T17:49:18Z</time>
  <course>0.0</course>
  <speed>0.0</speed>
  <fix>3d</fix>
</trkpt>
<trkpt lat="40.0713751" lon="-105.2297889">
  <ele>1582.94</ele>
  <time>2026-08-28T17:49:18Z</time>
  <course>247.02</course>
  <speed>0.022360679774997897</speed>
  <fix>3d</fix>
</trkpt>
<trkpt lat="40.0713749" lon="-105.229789">
  <ele>1583.0</ele>
  <time>2026-08-28T17:49:18Z</time>
  <course>0.0</course>
  <speed>0.0</speed>
  <fix>3d</fix>
</trkpt>
<trkpt lat="40.0713751" lon="-105.2297889">
  <ele>1582.94</ele>
  <time>2026-08-28T17:49:18Z</time>
  <course>247.02</course>
  <speed>0.022360679774997897</speed>
  <fix>3d</fix>
</trkpt>
<trkpt lat="40.0713749" lon="-105.229789">
  <ele>1583.0</ele>
  <time>2026-08-28T17:49:18Z</time>
  <course>0.0</course>
  <speed>0.0</speed>
  <fix>3d</fix>
</trkpt>
<trkpt lat="40.0713751" lon="-105.2297889">
  <ele>1582.94</ele>
  <time>2026-08-28T17:49:18Z</time>
  <course>247.02</course>
  <speed>0.022360679774997897</speed>
  <fix>3d</fix>
</trkpt>
<trkpt lat="40.0713749" lon="-105.229789">
  <ele>1583.0</ele>
  <time>2026-08-28T17:49:18Z</time>
  <course>0.0</course>
  <speed>0.0</speed>
  <fix>3d</fix>
</trkpt>
<trkpt lat="40.0713751" lon="-105.2297889">
  <ele>1582.94</ele>
  <time>2026-08-28T17:49:18Z</time>
  <course>247.02</course>
  <speed>0.022360679774997897</speed>
  <fix>3d</fix>
</trkpt>
<trkpt lat="40.0713749" lon="-105.229789">
  <ele>1583.0</ele>
  <time>2026-08-28T17:49:18Z</time>
  <course>0.0</course>
  <speed>0.0</speed>
  <fix>3d</fix>
</trkpt>
<trkpt lat="40.071375" lon="-105.2297889">
  <ele>1582.94</ele>
  <time>2026-08-28T17:49:18Z</time>
  <course>247.02</course>
  <speed>0.022360679774997897</speed>
  <fix>3d</fix>
</trkpt>
<trkpt lat="40.0713749" lon="-105.229789">
  <ele>1583.0</ele>
  <time>2026-08-28T17:49:18Z</time>
  <course>0.0</course>
  <speed>0.0</speed>
  <fix>3d</fix>
</trkpt>
<trkpt lat="40.0713751" lon="-105.2297889">
  <ele>1582.95</ele>
  <time>2026-08-28T17:49:18Z</time>
  <course>247.02</course>
  <speed>0.022360679774997897</speed>
  <fix>3d</fix>
</trkpt>
<trkpt lat="40.0713749" lon="-105.229789">
  <ele>1583.0</ele>
  <time>2026-08-28T17:49:18Z</time>
  <course>0.0</course>
  <speed>0.0</speed>
  <fix>3d</fix>
</trkpt>
<trkpt lat="40.071375" lon="-105.2297889">
  <ele>1582.96</ele>
  <time>2026-08-28T17:49:18Z</time>
  <course>247.02</course>
  <speed>0.022360679774997897</speed>
  <fix>3d</fix>
</trkpt>
<trkpt lat="40.0713749" lon="-105.229789">
  <ele>1583.0</ele>
  <time>2026-08-28T17:49:18Z</time>
  <course>0.0</course>
  <speed>0.0</speed>
  <fix>3d</fix>
</trkpt>
<trkpt lat="40.0713751" lon="-105.2297889">
  <ele>1582.97</ele>
  <time>2026-08-28T17:49:18Z</time>
  <course>247.01</course>
  <speed>0.022360679774997897</speed>
  <fix>3d</fix>
</trkpt>
<trkpt lat="40.0713749" lon="-105.229789">
  <ele>1583.0</ele>
  <time>2026-08-28T17:49:18Z</time>
  <course>0.0</course>
  <speed>0.0</speed>
  <fix>3d</fix>
</trkpt>
<trkpt lat="40.071375" lon="-105.2297889">
  <ele>1582.98</ele>
  <time>2026-08-28T17:49:18Z</time>
  <course>247.01</course>
  <speed>0.022360679774997897</speed>
  <fix>3d</fix>
</trkpt>
<trkpt lat="40.0713749" lon="-105.229789">
  <ele>1583.0</ele>
  <time>2026-08-28T17:49:18Z</time>
  <course>0.0</course>
  <speed>0.0</speed>
  <fix>3d</fix>
</trkpt>
<trkpt lat="40.0713751" lon="-105.2297889">
  <ele>1582.99</ele>
  <time>2026-08-28T17:49:18Z</time>
  <course>247.01</course>
  <speed>0.022360679774997897</speed>
  <fix>3d</fix>
</trkpt>
<trkpt lat="40.0713749" lon="-105.229789">
  <ele>1583.0</ele>
  <time>2026-08-28T17:49:18Z</time>
  <course>0.0</course>
  <speed>0.0</speed>
  <fix>3d</fix>
</trkpt>
<trkpt lat="40.071375" lon="-105.2297889">
  <ele>1583.0</ele>
  <time>2026-08-28T17:49:18Z</time>
  <course>247.01</course>
  <speed>0.022360679774997897</speed>
  <fix>3d</fix>
</trkpt>
<trkpt lat="40.0713749" lon="-105.229789">
  <ele>1583.0</ele>
  <time>2026-08-28T17:49:18Z</time>
  <course>0.0</course>
  <speed>0.0</speed>
  <fix>3d</fix>
</trkpt>
<trkpt lat="40.0713751" lon="-105.2297889">
  <ele>1583.01</ele>
  <time>2026-08-28T17:49:18Z</time>
  <course>247.01</course>
  <speed>0.022360679774997897</speed>
  <fix>3d</fix>
</trkpt>
<trkpt lat="40.0713749" lon="-105.229789">
  <ele>1583.0</ele>
  <time>2026-08-28T17:49:18Z</time>
  <course>0.0</course>
  <speed>0.0</speed>
  <fix>3d</fix>
</trkpt>
<trkpt lat="40.071375" lon="-105.2297889">
  <ele>1583.02</ele>
  <time>2026-08-28T17:49:18Z</time>
  <course>247.01</course>
  <speed>0.022360679774997897</speed>
  <fix>3d</fix>
</trkpt>
<trkpt lat="40.0713749" lon="-105.229789">
  <ele>1583.0</ele>
  <time>2026-08-28T17:49:18Z</time>
  <course>0.0</course>
  <speed>0.0</speed>
  <fix>3d</fix>
</trkpt>
<trkpt lat="40.0713751" lon="-105.2297889">
  <ele>1583.03</ele>
  <time>2026-08-28T17:49:18Z</time>
  <course>247.01</course>
  <speed>0.022360679774997897</speed>
  <fix>3d</fix>
</trkpt>
<trkpt lat="40.0713749" lon="-105.229789">
  <ele>1583.0</ele>
  <time>2026-08-28T17:49:18Z</time>
  <course>0.0</course>
  <speed>0.0</speed>
  <fix>3d</fix>
</trkpt>
<trkpt lat="40.071375" lon="-105.2297889">
  <ele>1583.03</ele>
  <time>2026-08-28T17:49:18Z</time>
  <course>247.01</course>
  <speed>0.022360679774997897</speed>
  <fix>3d</fix>
</trkpt>
<trkpt lat="40.0713749" lon="-105.229789">
  <ele>1583.0</ele>
  <time>2026-08-28T17:49:18Z</time>
  <course>0.0</course>
  <speed>0.0</speed>
  <fix>3d</fix>
</trkpt>
<trkpt lat="40.0713751" lon="-105.2297889">
  <ele>1583.04</ele>
  <time>2026-08-28T17:49:18Z</time>
  <course>247.01</course>
  <speed>0.022360679774997897</speed>
  <fix>3d</fix>
</trkpt>
<trkpt lat="40.0713749" lon="-105.229789">
  <ele>1583.0</ele>
  <time>2026-08-28T17:49:18Z</time>
  <course>0.0</course>
  <speed>0.0</speed>
  <fix>3d</fix>
</trkpt>
<trkpt lat="40.0713751" lon="-105.2297889">
  <ele>1583.04</ele>
  <time>2026-08-28T17:49:18Z</time>
  <course>247.01</course>
  <speed>0.022360679774997897</speed>
  <fix>3d</fix>
</trkpt>
<trkpt lat="40.0713749" lon="-105.229789">
  <ele>1583.0</ele>
  <time>2026-08-28T17:49:18Z</time>
  <course>0.0</course>
  <speed>0.0</speed>
  <fix>3d</fix>
</trkpt>
<trkpt lat="40.0713751" lon="-105.2297889">
  <ele>1583.04</ele>
  <time>2026-08-28T17:49:18Z</time>
  <course>247.01</course>
  <speed>0.022360679774997897</speed>
  <fix>3d</fix>
</trkpt>
<trkpt lat="40.0713749" lon="-105.229789">
  <ele>1583.0</ele>
  <time>2026-08-28T17:49:18Z</time>
  <course>0.0</course>
  <speed>0.0</speed>
  <fix>3d</fix>
</trkpt>
<trkpt lat="40.0713751" lon="-105.2297889">
  <ele>1583.04</ele>
  <time>2026-08-28T17:49:18Z</time>
  <course>247.01</course>
  <speed>0.022360679774997897</speed>
  <fix>3d</fix>
</trkpt>
<trkpt lat="40.0713749" lon="-105.229789">
  <ele>1583.0</ele>
  <time>2026-08-28T17:49:18Z</time>
  <course>0.0</course>
  <speed>0.0</speed>
  <fix>3d</fix>
</trkpt>
<trkpt lat="40.0713751" lon="-105.2297889">
  <ele>1583.04</ele>
  <time>2026-08-28T17:49:18Z</time>
  <course>247.01</course>
  <speed>0.022360679774997897</speed>
  <fix>3d</fix>
</trkpt>
<trkpt lat="40.0713749" lon="-105.229789">
  <ele>1583.0</ele>
  <time>2026-08-28T17:49:18Z</time>
  <course>0.0</course>
  <speed>0.0</speed>
  <fix>3d</fix>
</trkpt>
<trkpt lat="40.0713751" lon="-105.2297889">
  <ele>1583.04</ele>
  <time>2026-08-28T17:49:18Z</time>
  <course>247.01</course>
  <speed>0.022360679774997897</speed>
  <fix>3d</fix>
</trkpt>
<trkpt lat="40.0713749" lon="-105.229789">
  <ele>1583.0</ele>
  <time>2026-08-28T17:49:18Z</time>
  <course>0.0</course>
  <speed>0.0</speed>
  <fix>3d</fix>
</trkpt>
<trkpt lat="40.0713751" lon="-105.2297889">
  <ele>1583.04</ele>
  <time>2026-08-28T17:49:18Z</time>
  <course>247.01</course>
  <speed>0.022360679774997897</speed>
  <fix>3d</fix>
</trkpt>
<trkpt lat="40.0713749" lon="-105.229789">
  <ele>1583.0</ele>
  <time>2026-08-28T17:49:18Z</time>
  <course>0.0</course>
  <speed>0.0</speed>
  <fix>3d</fix>
</trkpt>
<trkpt lat="40.0713751" lon="-105.2297889">
  <ele>1583.04</ele>
  <time>2026-08-28T17:49:18Z</time>
  <course>247.01</course>
  <speed>0.022360679774997897</speed>
  <fix>3d</fix>
</trkpt>
<trkpt lat="40.0713749" lon="-105.229789">
  <ele>1583.0</ele>
  <time>2026-08-28T17:49:18Z</time>
  <course>0.0</course>
  <speed>0.0</speed>
  <fix>3d</fix>
</trkpt>
<trkpt lat="40.0713751" lon="-105.2297889">
  <ele>1583.04</ele>
  <time>2026-08-28T17:49:18Z</time>
  <course>247.01</course>
  <speed>0.022360679774997897</speed>
  <fix>3d</fix>
</trkpt>
<trkpt lat="40.0713749" lon="-105.229789">
  <ele>1583.0</ele>
  <time>2026-08-28T17:49:18Z</time>
  <course>0.0</course>
  <speed>0.0</speed>
  <fix>3d</fix>
</trkpt>
<trkpt lat="40.071375" lon="-105.2297889">
  <ele>1583.04</ele>
  <time>2026-08-28T17:49:18Z</time>
  <course>247.01</course>
  <speed>0.022360679774997897</speed>
  <fix>3d</fix>
</trkpt>
<trkpt lat="40.0713749" lon="-105.229789">
  <ele>1583.0</ele>
  <time>2026-08-28T17:49:18Z</time>
  <course>0.0</course>
  <speed>0.0</speed>
  <fix>3d</fix>
</trkpt>
<trkpt lat="40.0713751" lon="-105.2297889">
  <ele>1583.05</ele>
  <time>2026-08-28T17:49:18Z</time>
  <course>247.01</course>
  <speed>0.022360679774997897</speed>
  <fix>3d</fix>
</trkpt>
<trkpt lat="40.0713749" lon="-105.229789">
  <ele>1583.0</ele>
  <time>2026-08-28T17:49:18Z</time>
  <course>0.0</course>
  <speed>0.0</speed>
  <fix>3d</fix>
</trkpt>
<trkpt lat="40.071375" lon="-105.2297889">
  <ele>1583.05</ele>
  <time>2026-08-28T17:49:18Z</time>
  <course>247.01</course>
  <speed>0.022360679774997897</speed>
  <fix>3d</fix>
</trkpt>
<trkpt lat="40.0713749" lon="-105.229789">
  <ele>1583.0</ele>
  <time>2026-08-28T17:49:18Z</time>
  <course>0.0</course>
  <speed>0.0</speed>
  <fix>3d</fix>
</trkpt>
<trkpt lat="40.0713751" lon="-105.2297889">
  <ele>1583.05</ele>
  <time>2026-08-28T17:49:18Z</time>
  <course>247.01</course>
  <speed>0.022360679774997897</speed>
  <fix>3d</fix>
</trkpt>
<trkpt lat="40.0713749" lon="-105.229789">
  <ele>1583.0</ele>
  <time>2026-08-28T17:49:18Z</time>
  <course>0.0</course>
  <speed>0.0</speed>
  <fix>3d</fix>
</trkpt>
<trkpt lat="40.071375" lon="-105.2297889">
  <ele>1583.06</ele>
  <time>2026-08-28T17:49:18Z</time>
  <course>247.01</course>
  <speed>0.022360679774997897</speed>
  <fix>3d</fix>
</trkpt>
<trkpt lat="40.0713749" lon="-105.229789">
  <ele>1583.0</ele>
  <time>2026-08-28T17:49:18Z</time>
  <course>0.0</course>
  <speed>0.0</speed>
  <fix>3d</fix>
</trkpt>
<trkpt lat="40.0713751" lon="-105.2297889">
  <ele>1583.06</ele>
  <time>2026-08-28T17:49:18Z</time>
  <course>247.01</course>
  <speed>0.022360679774997897</speed>
  <fix>3d</fix>
</trkpt>
<trkpt lat="40.0713749" lon="-105.229789">
  <ele>1583.0</ele>
  <time>2026-08-28T17:49:18Z</time>
  <course>0.0</course>
  <speed>0.0</speed>
  <fix>3d</fix>
</trkpt>
<trkpt lat="40.071375" lon="-105.2297889">
  <ele>1583.07</ele>
  <time>2026-08-28T17:49:18Z</time>
  <course>247.01</course>
  <speed>0.022360679774997897</speed>
  <fix>3d</fix>
</trkpt>
<trkpt lat="40.0713749" lon="-105.229789">
  <ele>1583.0</ele>
  <time>2026-08-28T17:49:18Z</time>
  <course>0.0</course>
  <speed>0.0</speed>
  <fix>3d</fix>
</trkpt>
<trkpt lat="40.0713751" lon="-105.2297889">
  <ele>1583.07</ele>
  <time>2026-08-28T17:49:18Z</time>
  <course>247.01</course>
  <speed>0.022360679774997897</speed>
  <fix>3d</fix>
</trkpt>
<trkpt lat="40.0713749" lon="-105.229789">
  <ele>1583.0</ele>
  <time>2026-08-28T17:49:18Z</time>
  <course>0.0</course>
  <speed>0.0</speed>
  <fix>3d</fix>
</trkpt>
<trkpt lat="40.071375" lon="-105.2297889">
  <ele>1583.08</ele>
  <time>2026-08-28T17:49:18Z</time>
  <course>247.01</course>
  <speed>0.022360679774997897</speed>
  <fix>3d</fix>
</trkpt>
<trkpt lat="40.0713749" lon="-105.229789">
  <ele>1583.0</ele>
  <time>2026-08-28T17:49:18Z</time>
  <course>0.0</course>
  <speed>0.0</speed>
  <fix>3d</fix>
</trkpt>
<trkpt lat="40.0713751" lon="-105.2297889">
  <ele>1583.08</ele>
  <time>2026-08-28T17:49:18Z</time>
  <course>247.01</course>
  <speed>0.022360679774997897</speed>
  <fix>3d</fix>
</trkpt>
<trkpt lat="40.0713749" lon="-105.229789">
  <ele>1583.0</ele>
  <time>2026-08-28T17:49:18Z</time>
  <course>0.0</course>
  <speed>0.0</speed>
  <fix>3d</fix>
</trkpt>
<trkpt lat="40.071375" lon="-105.2297889">
  <ele>1583.08</ele>
  <time>2026-08-28T17:49:18Z</time>
  <course>247.01</course>
  <speed>0.022360679774997897</speed>
  <fix>3d</fix>
</trkpt>
<trkpt lat="40.0713749" lon="-105.229789">
  <ele>1583.0</ele>
  <time>2026-08-28T17:49:18Z</time>
  <course>0.0</course>
  <speed>0.0</speed>
  <fix>3d</fix>
</trkpt>
<trkpt lat="40.0713751" lon="-105.2297889">
  <ele>1583.08</ele>
  <time>2026-08-28T17:49:18Z</time>
  <course>247.01</course>
  <speed>0.022360679774997897</speed>
  <fix>3d</fix>
</trkpt>
<trkpt lat="40.0713749" lon="-105.229789">
  <ele>1583.0</ele>
  <time>2026-08-28T17:49:18Z</time>
  <course>0.0</course>
  <speed>0.0</speed>
  <fix>3d</fix>
</trkpt>
<trkpt lat="40.071375" lon="-105.2297889">
  <ele>1583.09</ele>
  <time>2026-08-28T17:49:18Z</time>
  <course>247.01</course>
  <speed>0.022360679774997897</speed>
  <fix>3d</fix>
</trkpt>
<trkpt lat="40.0713749" lon="-105.229789">
  <ele>1583.0</ele>
  <time>2026-08-28T17:49:18Z</time>
  <course>0.0</course>
  <speed>0.0</speed>
  <fix>3d</fix>
</trkpt>
<trkpt lat="40.0713751" lon="-105.2297889">
  <ele>1583.09</ele>
  <time>2026-08-28T17:49:18Z</time>
  <course>247.01</course>
  <speed>0.022360679774997897</speed>
  <fix>3d</fix>
</trkpt>
<trkpt lat="40.0713749" lon="-105.229789">
  <ele>1583.0</ele>
  <time>2026-08-28T17:49:18Z</time>
  <course>0.0</course>
  <speed>0.0</speed>
  <fix>3d</fix>
</trkpt>
<trkpt lat="40.0713751" lon="-105.2297889">
  <ele>1583.09</ele>
  <time>2026-08-28T17:49:18Z</time>
  <course>247.01</course>
  <speed>0.022360679774997897</speed>
  <fix>3d</fix>
</trkpt>
<trkpt lat="40.0713749" lon="-105.229789">
  <ele>1583.0</ele>
  <time>2026-08-28T17:49:18Z</time>
  <course>0.0</course>
  <speed>0.0</speed>
  <fix>3d</fix>
</trkpt>
<trkpt lat="40.0713751" lon="-105.2297889">
  <ele>1583.08</ele>
  <time>2026-08-28T17:49:18Z</time>
  <course>247.01</course>
  <speed>0.022360679774997897</speed>
  <fix>3d</fix>
</trkpt>
<trkpt lat="40.0713749" lon="-105.229789">
  <ele>1583.0</ele>
  <time>2026-08-28T17:49:18Z</time>
  <course>0.0</course>
  <speed>0.0</speed>
  <fix>3d</fix>
</trkpt>
<trkpt lat="40.0713751" lon="-105.2297889">
  <ele>1583.08</ele>
  <time>2026-08-28T17:49:18Z</time>
  <course>247.01</course>
  <speed>0.022360679774997897</speed>
  <fix>3d</fix>
</trkpt>
<trkpt lat="40.0713749" lon="-105.229789">
  <ele>1583.0</ele>
  <time>2026-08-28T17:49:18Z</time>
  <course>0.0</course>
  <speed>0.0</speed>
  <fix>3d</fix>
</trkpt>
<trkpt lat="40.0713751" lon="-105.2297889">
  <ele>1583.07</ele>
  <time>2026-08-28T17:49:18Z</time>
  <course>247.01</course>
  <speed>0.022360679774997897</speed>
  <fix>3d</fix>
</trkpt>
<trkpt lat="40.0713749" lon="-105.229789">
  <ele>1583.0</ele>
  <time>2026-08-28T17:49:18Z</time>
  <course>0.0</course>
  <speed>0.0</speed>
  <fix>3d</fix>
</trkpt>
<trkpt lat="40.0713751" lon="-105.2297889">
  <ele>1583.06</ele>
  <time>2026-08-28T17:49:18Z</time>
  <course>247.01</course>
  <speed>0.022360679774997897</speed>
  <fix>3d</fix>
</trkpt>
<trkpt lat="40.0713749" lon="-105.229789">
  <ele>1583.0</ele>
  <time>2026-08-28T17:49:18Z</time>
  <course>0.0</course>
  <speed>0.0</speed>
  <fix>3d</fix>
</trkpt>
<trkpt lat="40.0713751" lon="-105.2297889">
  <ele>1583.06</ele>
  <time>2026-08-28T17:49:18Z</time>
  <course>247.01</course>
  <speed>0.022360679774997897</speed>
  <fix>3d</fix>
</trkpt>
<trkpt lat="40.0713749" lon="-105.229789">
  <ele>1583.0</ele>
  <time>2026-08-28T17:49:18Z</time>
  <course>0.0</course>
  <speed>0.0</speed>
  <fix>3d</fix>
</trkpt>
<trkpt lat="40.071375" lon="-105.2297889">
  <ele>1583.06</ele>
  <time>2026-08-28T17:49:18Z</time>
  <course>247.01</course>
  <speed>0.022360679774997897</speed>
  <fix>3d</fix>
</trkpt>
<trkpt lat="40.0713749" lon="-105.229789">
  <ele>1583.0</ele>
  <time>2026-08-28T17:49:18Z</time>
  <course>0.0</course>
  <speed>0.0</speed>
  <fix>3d</fix>
</trkpt>
<trkpt lat="40.0713751" lon="-105.2297889">
  <ele>1583.05</ele>
  <time>2026-08-28T17:49:18Z</time>
  <course>247.01</course>
  <speed>0.022360679774997897</speed>
  <fix>3d</fix>
</trkpt>
<trkpt lat="40.0713749" lon="-105.229789">
  <ele>1583.0</ele>
  <time>2026-08-28T17:49:18Z</time>
  <course>0.0</course>
  <speed>0.0</speed>
  <fix>3d</fix>
</trkpt>
<trkpt lat="40.071375" lon="-105.2297889">
  <ele>1583.05</ele>
  <time>2026-08-28T17:49:18Z</time>
  <course>247.01</course>
  <speed>0.022360679774997897</speed>
  <fix>3d</fix>
</trkpt>
<trkpt lat="40.0713749" lon="-105.229789">
  <ele>1583.0</ele>
  <time>2026-08-28T17:49:18Z</time>
  <course>0.0</course>
  <speed>0.0</speed>
  <fix>3d</fix>
</trkpt>
<trkpt lat="40.071375" lon="-105.2297889">
  <ele>1583.05</ele>
  <time>2026-08-28T17:49:18Z</time>
  <course>247.01</course>
  <speed>0.022360679774997897</speed>
  <fix>3d</fix>
</trkpt>
<trkpt lat="40.0713749" lon="-105.229789">
  <ele>1583.0</ele>
  <time>2026-08-28T17:49:18Z</time>
  <course>0.0</course>
  <speed>0.0</speed>
  <fix>3d</fix>
</trkpt>
<trkpt lat="40.071375" lon="-105.2297889">
  <ele>1583.05</ele>
  <time>2026-08-28T17:49:18Z</time>
  <course>247.01</course>
  <speed>0.022360679774997897</speed>
  <fix>3d</fix>
</trkpt>
<trkpt lat="40.0713749" lon="-105.229789">
  <ele>1583.0</ele>
  <time>2026-08-28T17:49:18Z</time>
  <course>0.0</course>
  <speed>0.0</speed>
  <fix>3d</fix>
</trkpt>
<trkpt lat="40.071375" lon="-105.2297889">
  <ele>1583.05</ele>
  <time>2026-08-28T17:49:18Z</time>
  <course>247.01</course>
  <speed>0.022360679774997897</speed>
  <fix>3d</fix>
</trkpt>
<trkpt lat="40.0713749" lon="-105.229789">
  <ele>1583.0</ele>
  <time>2026-08-28T17:49:18Z</time>
  <course>0.0</course>
  <speed>0.0</speed>
  <fix>3d</fix>
</trkpt>
<trkpt lat="40.071375" lon="-105.2297889">
  <ele>1583.06</ele>
  <time>2026-08-28T17:49:18Z</time>
  <course>247.01</course>
  <speed>0.022360679774997897</speed>
  <fix>3d</fix>
</trkpt>
<trkpt lat="40.0713749" lon="-105.229789">
  <ele>1583.0</ele>
  <time>2026-08-28T17:49:18Z</time>
  <course>0.0</course>
  <speed>0.0</speed>
  <fix>3d</fix>
</trkpt>
<trkpt lat="40.0713751" lon="-105.2297889">
  <ele>1583.06</ele>
  <time>2026-08-28T17:49:18Z</time>
  <course>247.01</course>
  <speed>0.022360679774997897</speed>
  <fix>3d</fix>
</trkpt>
<trkpt lat="40.0713749" lon="-105.229789">
  <ele>1583.0</ele>
  <time>2026-08-28T17:49:18Z</time>
  <course>0.0</course>
  <speed>0.0</speed>
  <fix>3d</fix>
</trkpt>
<trkpt lat="40.071375" lon="-105.2297889">
  <ele>1583.06</ele>
  <time>2026-08-28T17:49:18Z</time>
  <course>247.01</course>
  <speed>0.022360679774997897</speed>
  <fix>3d</fix>
</trkpt>
<trkpt lat="40.0713749" lon="-105.229789">
  <ele>1583.0</ele>
  <time>2026-08-28T17:49:18Z</time>
  <course>0.0</course>
  <speed>0.0</speed>
  <fix>3d</fix>
</trkpt>
<trkpt lat="40.0713751" lon="-105.2297889">
  <ele>1583.06</ele>
  <time>2026-08-28T17:49:18Z</time>
  <course>247.01</course>
  <speed>0.022360679774997897</speed>
  <fix>3d</fix>
</trkpt>
<trkpt lat="40.0713749" lon="-105.229789">
  <ele>1583.0</ele>
  <time>2026-08-28T17:49:18Z</time>
  <course>0.0</course>
  <speed>0.0</speed>
  <fix>3d</fix>
</trkpt>
<trkpt lat="40.071375" lon="-105.2297889">
  <ele>1583.07</ele>
  <time>2026-08-28T17:49:18Z</time>
  <course>247.01</course>
  <speed>0.022360679774997897</speed>
  <fix>3d</fix>
</trkpt>
<trkpt lat="40.0713749" lon="-105.229789">
  <ele>1583.0</ele>
  <time>2026-08-28T17:49:18Z</time>
  <course>0.0</course>
  <speed>0.0</speed>
  <fix>3d</fix>
</trkpt>
<trkpt lat="40.0713751" lon="-105.2297889">
  <ele>1583.07</ele>
  <time>2026-08-28T17:49:18Z</time>
  <course>247.01</course>
  <speed>0.022360679774997897</speed>
  <fix>3d</fix>
</trkpt>
<trkpt lat="40.0713749" lon="-105.229789">
  <ele>1583.0</ele>
  <time>2026-08-28T17:49:18Z</time>
  <course>0.0</course>
  <speed>0.0</speed>
  <fix>3d</fix>
</trkpt>
<trkpt lat="40.071375" lon="-105.2297889">
  <ele>1583.07</ele>
  <time>2026-08-28T17:49:18Z</time>
  <course>247.01</course>
  <speed>0.022360679774997897</speed>
  <fix>3d</fix>
</trkpt>
<trkpt lat="40.0713749" lon="-105.229789">
  <ele>1583.0</ele>
  <time>2026-08-28T17:49:18Z</time>
  <course>0.0</course>
  <speed>0.0</speed>
  <fix>3d</fix>
</trkpt>
<trkpt lat="40.0713751" lon="-105.2297889">
  <ele>1583.08</ele>
  <time>2026-08-28T17:49:18Z</time>
  <course>247.01</course>
  <speed>0.022360679774997897</speed>
  <fix>3d</fix>
</trkpt>
<trkpt lat="40.0713749" lon="-105.229789">
  <ele>1583.0</ele>
  <time>2026-08-28T17:49:18Z</time>
  <course>0.0</course>
  <speed>0.0</speed>
  <fix>3d</fix>
</trkpt>
<trkpt lat="40.0713751" lon="-105.2297889">
  <ele>1583.09</ele>
  <time>2026-08-28T17:49:18Z</time>
  <course>247.01</course>
  <speed>0.022360679774997897</speed>
  <fix>3d</fix>
</trkpt>
<trkpt lat="40.0713749" lon="-105.229789">
  <ele>1583.0</ele>
  <time>2026-08-28T17:49:18Z</time>
  <course>0.0</course>
  <speed>0.0</speed>
  <fix>3d</fix>
</trkpt>
<trkpt lat="40.0713751" lon="-105.2297889">
  <ele>1583.09</ele>
  <time>2026-08-28T17:49:18Z</time>
  <course>247.01</course>
  <speed>0.022360679774997897</speed>
  <fix>3d</fix>
</trkpt>
<trkpt lat="40.0713749" lon="-105.229789">
  <ele>1583.0</ele>
  <time>2026-08-28T17:49:18Z</time>
  <course>0.0</course>
  <speed>0.0</speed>
  <fix>3d</fix>
</trkpt>
<trkpt lat="40.0713751" lon="-105.2297889">
  <ele>1583.09</ele>
  <time>2026-08-28T17:49:18Z</time>
  <course>247.01</course>
  <speed>0.022360679774997897</speed>
  <fix>3d</fix>
</trkpt>
<trkpt lat="40.0713749" lon="-105.229789">
  <ele>1583.0</ele>
  <time>2026-08-28T17:49:18Z</time>
  <course>0.0</course>
  <speed>0.0</speed>
  <fix>3d</fix>
</trkpt>
<trkpt lat="40.0713751" lon="-105.2297889">
  <ele>1583.1</ele>
  <time>2026-08-28T17:49:18Z</time>
  <course>247.01</course>
  <speed>0.022360679774997897</speed>
  <fix>3d</fix>
</trkpt>
<trkpt lat="40.0713749" lon="-105.229789">
  <ele>1583.0</ele>
  <time>2026-08-28T17:49:18Z</time>
  <course>0.0</course>
  <speed>0.0</speed>
  <fix>3d</fix>
</trkpt>
<trkpt lat="40.0713751" lon="-105.2297889">
  <ele>1583.1</ele>
  <time>2026-08-28T17:49:18Z</time>
  <course>247.01</course>
  <speed>0.022360679774997897</speed>
  <fix>3d</fix>
</trkpt>
<trkpt lat="40.0713749" lon="-105.229789">
  <ele>1583.0</ele>
  <time>2026-08-28T17:49:18Z</time>
  <course>0.0</course>
  <speed>0.0</speed>
  <fix>3d</fix>
</trkpt>
<trkpt lat="40.0713751" lon="-105.2297889">
  <ele>1583.1</ele>
  <time>2026-08-28T17:49:18Z</time>
  <course>247.01</course>
  <speed>0.022360679774997897</speed>
  <fix>3d</fix>
</trkpt>
<trkpt lat="40.0713749" lon="-105.229789">
  <ele>1583.0</ele>
  <time>2026-08-28T17:49:18Z</time>
  <course>0.0</course>
  <speed>0.0</speed>
  <fix>3d</fix>
</trkpt>
<trkpt lat="40.071375" lon="-105.2297889">
  <ele>1583.1</ele>
  <time>2026-08-28T17:49:18Z</time>
  <course>247.01</course>
  <speed>0.022360679774997897</speed>
  <fix>3d</fix>
</trkpt>
<trkpt lat="40.0713749" lon="-105.229789">
  <ele>1583.0</ele>
  <time>2026-08-28T17:49:18Z</time>
  <course>0.0</course>
  <speed>0.0</speed>
  <fix>3d</fix>
</trkpt>
<trkpt lat="40.0713751" lon="-105.2297889">
  <ele>1583.1</ele>
  <time>2026-08-28T17:49:18Z</time>
  <course>247.01</course>
  <speed>0.022360679774997897</speed>
  <fix>3d</fix>
</trkpt>
<trkpt lat="40.0713749" lon="-105.229789">
  <ele>1583.0</ele>
  <time>2026-08-28T17:49:18Z</time>
  <course>0.0</course>
  <speed>0.0</speed>
  <fix>3d</fix>
</trkpt>
<trkpt lat="40.071375" lon="-105.2297889">
  <ele>1583.1</ele>
  <time>2026-08-28T17:49:18Z</time>
  <course>247.01</course>
  <speed>0.022360679774997897</speed>
  <fix>3d</fix>
</trkpt>
<trkpt lat="40.0713749" lon="-105.229789">
  <ele>1583.0</ele>
  <time>2026-08-28T17:49:18Z</time>
  <course>0.0</course>
  <speed>0.0</speed>
  <fix>3d</fix>
</trkpt>
<trkpt lat="40.0713751" lon="-105.2297889">
  <ele>1583.1</ele>
  <time>2026-08-28T17:49:18Z</time>
  <course>247.01</course>
  <speed>0.022360679774997897</speed>
  <fix>3d</fix>
</trkpt>
<trkpt lat="40.0713749" lon="-105.229789">
  <ele>1583.0</ele>
  <time>2026-08-28T17:49:18Z</time>
  <course>0.0</course>
  <speed>0.0</speed>
  <fix>3d</fix>
</trkpt>
<trkpt lat="40.071375" lon="-105.2297889">
  <ele>1583.11</ele>
  <time>2026-08-28T17:49:18Z</time>
  <course>247.01</course>
  <speed>0.022360679774997897</speed>
  <fix>3d</fix>
</trkpt>
<trkpt lat="40.0713749" lon="-105.229789">
  <ele>1583.0</ele>
  <time>2026-08-28T17:49:18Z</time>
  <course>0.0</course>
  <speed>0.0</speed>
  <fix>3d</fix>
</trkpt>
<trkpt lat="40.0713751" lon="-105.2297889">
  <ele>1583.11</ele>
  <time>2026-08-28T17:49:18Z</time>
  <course>247.01</course>
  <speed>0.022360679774997897</speed>
  <fix>3d</fix>
</trkpt>
<trkpt lat="40.0713749" lon="-105.229789">
  <ele>1583.0</ele>
  <time>2026-08-28T17:49:18Z</time>
  <course>0.0</course>
  <speed>0.0</speed>
  <fix>3d</fix>
</trkpt>
<trkpt lat="40.071375" lon="-105.2297889">
  <ele>1583.11</ele>
  <time>2026-08-28T17:49:18Z</time>
  <course>247.01</course>
  <speed>0.022360679774997897</speed>
  <fix>3d</fix>
</trkpt>
<trkpt lat="40.0713749" lon="-105.229789">
  <ele>1583.0</ele>
  <time>2026-08-28T17:49:18Z</time>
  <course>0.0</course>
  <speed>0.0</speed>
  <fix>3d</fix>
</trkpt>
<trkpt lat="40.0713751" lon="-105.2297889">
  <ele>1583.11</ele>
  <time>2026-08-28T17:49:18Z</time>
  <course>247.01</course>
  <speed>0.022360679774997897</speed>
  <fix>3d</fix>
</trkpt>
<trkpt lat="40.0713749" lon="-105.229789">
  <ele>1583.0</ele>
  <time>2026-08-28T17:49:18Z</time>
  <course>0.0</course>
  <speed>0.0</speed>
  <fix>3d</fix>
</trkpt>
<trkpt lat="40.071375" lon="-105.2297889">
  <ele>1583.11</ele>
  <time>2026-08-28T17:49:18Z</time>
  <course>247.01</course>
  <speed>0.022360679774997897</speed>
  <fix>3d</fix>
</trkpt>
<trkpt lat="40.0713749" lon="-105.229789">
  <ele>1583.0</ele>
  <time>2026-08-28T17:49:18Z</time>
  <course>0.0</course>
  <speed>0.0</speed>
  <fix>3d</fix>
</trkpt>
<trkpt lat="40.0713751" lon="-105.2297889">
  <ele>1583.11</ele>
  <time>2026-08-28T17:49:18Z</time>
  <course>247.01</course>
  <speed>0.022360679774997897</speed>
  <fix>3d</fix>
</trkpt>
<trkpt lat="40.0713749" lon="-105.229789">
  <ele>1583.0</ele>
  <time>2026-08-28T17:49:18Z</time>
  <course>0.0</course>
  <speed>0.0</speed>
  <fix>3d</fix>
</trkpt>
<trkpt lat="40.071375" lon="-105.2297889">
  <ele>1583.1</ele>
  <time>2026-08-28T17:49:18Z</time>
  <course>247.01</course>
  <speed>0.022360679774997897</speed>
  <fix>3d</fix>
</trkpt>
<trkpt lat="40.0713749" lon="-105.229789">
  <ele>1583.0</ele>
  <time>2026-08-28T17:49:18Z</time>
  <course>0.0</course>
  <speed>0.0</speed>
  <fix>3d</fix>
</trkpt>
<trkpt lat="40.0713751" lon="-105.2297889">
  <ele>1583.1</ele>
  <time>2026-08-28T17:49:18Z</time>
  <course>247.01</course>
  <speed>0.022360679774997897</speed>
  <fix>3d</fix>
</trkpt>
<trkpt lat="40.0713749" lon="-105.229789">
  <ele>1583.0</ele>
  <time>2026-08-28T17:49:18Z</time>
  <course>0.0</course>
  <speed>0.0</speed>
  <fix>3d</fix>
</trkpt>
<trkpt lat="40.071375" lon="-105.2297889">
  <ele>1583.09</ele>
  <time>2026-08-28T17:49:18Z</time>
  <course>247.01</course>
  <speed>0.022360679774997897</speed>
  <fix>3d</fix>
</trkpt>
<trkpt lat="40.0713749" lon="-105.229789">
  <ele>1583.0</ele>
  <time>2026-08-28T17:49:18Z</time>
  <course>0.0</course>
  <speed>0.0</speed>
  <fix>3d</fix>
</trkpt>
<trkpt lat="40.0713751" lon="-105.2297889">
  <ele>1583.08</ele>
  <time>2026-08-28T17:49:18Z</time>
  <course>247.01</course>
  <speed>0.022360679774997897</speed>
  <fix>3d</fix>
</trkpt>
<trkpt lat="40.0713749" lon="-105.229789">
  <ele>1583.0</ele>
  <time>2026-08-28T17:49:18Z</time>
  <course>0.0</course>
  <speed>0.0</speed>
  <fix>3d</fix>
</trkpt>
<trkpt lat="40.0713751" lon="-105.2297889">
  <ele>1583.08</ele>
  <time>2026-08-28T17:49:18Z</time>
  <course>247.01</course>
  <speed>0.022360679774997897</speed>
  <fix>3d</fix>
</trkpt>
<trkpt lat="40.0713749" lon="-105.229789">
  <ele>1583.0</ele>
  <time>2026-08-28T17:49:18Z</time>
  <course>0.0</course>
  <speed>0.0</speed>
  <fix>3d</fix>
</trkpt>
<trkpt lat="40.0713751" lon="-105.2297889">
  <ele>1583.07</ele>
  <time>2026-08-28T17:49:18Z</time>
  <course>247.01</course>
  <speed>0.022360679774997897</speed>
  <fix>3d</fix>
</trkpt>
<trkpt lat="40.0713749" lon="-105.229789">
  <ele>1583.0</ele>
  <time>2026-08-28T17:49:18Z</time>
  <course>0.0</course>
  <speed>0.0</speed>
  <fix>3d</fix>
</trkpt>
<trkpt lat="40.0713751" lon="-105.2297889">
  <ele>1583.06</ele>
  <time>2026-08-28T17:49:18Z</time>
  <course>247.01</course>
  <speed>0.022360679774997897</speed>
  <fix>3d</fix>
</trkpt>
<trkpt lat="40.0713749" lon="-105.229789">
  <ele>1583.0</ele>
  <time>2026-08-28T17:49:18Z</time>
  <course>0.0</course>
  <speed>0.0</speed>
  <fix>3d</fix>
</trkpt>
<trkpt lat="40.0713751" lon="-105.2297889">
  <ele>1583.05</ele>
  <time>2026-08-28T17:49:18Z</time>
  <course>247.01</course>
  <speed>0.022360679774997897</speed>
  <fix>3d</fix>
</trkpt>
<trkpt lat="40.0713749" lon="-105.229789">
  <ele>1583.0</ele>
  <time>2026-08-28T17:49:18Z</time>
  <course>0.0</course>
  <speed>0.0</speed>
  <fix>3d</fix>
</trkpt>
<trkpt lat="40.0713751" lon="-105.2297889">
  <ele>1583.04</ele>
  <time>2026-08-28T17:49:18Z</time>
  <course>247.01</course>
  <speed>0.022360679774997897</speed>
  <fix>3d</fix>
</trkpt>
<trkpt lat="40.0713749" lon="-105.229789">
  <ele>1583.0</ele>
  <time>2026-08-28T17:49:18Z</time>
  <course>0.0</course>
  <speed>0.0</speed>
  <fix>3d</fix>
</trkpt>
<trkpt lat="40.0713751" lon="-105.2297889">
  <ele>1583.04</ele>
  <time>2026-08-28T17:49:18Z</time>
  <course>247.01</course>
  <speed>0.022360679774997897</speed>
  <fix>3d</fix>
</trkpt>
<trkpt lat="40.0713749" lon="-105.229789">
  <ele>1583.0</ele>
  <time>2026-08-28T17:49:18Z</time>
  <course>0.0</course>
  <speed>0.0</speed>
  <fix>3d</fix>
</trkpt>
<trkpt lat="40.0713751" lon="-105.2297889">
  <ele>1583.03</ele>
  <time>2026-08-28T17:49:18Z</time>
  <course>247.01</course>
  <speed>0.022360679774997897</speed>
  <fix>3d</fix>
</trkpt>
<trkpt lat="40.0713749" lon="-105.229789">
  <ele>1583.0</ele>
  <time>2026-08-28T17:49:18Z</time>
  <course>0.0</course>
  <speed>0.0</speed>
  <fix>3d</fix>
</trkpt>
<trkpt lat="40.0713751" lon="-105.2297889">
  <ele>1583.03</ele>
  <time>2026-08-28T17:49:18Z</time>
  <course>247.01</course>
  <speed>0.022360679774997897</speed>
  <fix>3d</fix>
</trkpt>
<trkpt lat="40.0713749" lon="-105.229789">
  <ele>1583.0</ele>
  <time>2026-08-28T17:49:18Z</time>
  <course>0.0</course>
  <speed>0.0</speed>
  <fix>3d</fix>
</trkpt>
<trkpt lat="40.071375" lon="-105.2297889">
  <ele>1583.04</ele>
  <time>2026-08-28T17:49:18Z</time>
  <course>247.01</course>
  <speed>0.022360679774997897</speed>
  <fix>3d</fix>
</trkpt>
<trkpt lat="40.0713749" lon="-105.229789">
  <ele>1583.0</ele>
  <time>2026-08-28T17:49:18Z</time>
  <course>0.0</course>
  <speed>0.0</speed>
  <fix>3d</fix>
</trkpt>
<trkpt lat="40.0713751" lon="-105.2297889">
  <ele>1583.04</ele>
  <time>2026-08-28T17:49:18Z</time>
  <course>247.01</course>
  <speed>0.022360679774997897</speed>
  <fix>3d</fix>
</trkpt>
<trkpt lat="40.0713749" lon="-105.229789">
  <ele>1583.0</ele>
  <time>2026-08-28T17:49:18Z</time>
  <course>0.0</course>
  <speed>0.0</speed>
  <fix>3d</fix>
</trkpt>
<trkpt lat="40.071375" lon="-105.2297889">
  <ele>1583.04</ele>
  <time>2026-08-28T17:49:19Z</time>
  <course>247.01</course>
  <speed>0.022360679774997897</speed>
  <fix>3d</fix>
</trkpt>
<trkpt lat="40.0713749" lon="-105.229789">
  <ele>1583.0</ele>
  <time>2026-08-28T17:49:19Z</time>
  <course>0.0</course>
  <speed>0.0</speed>
  <fix>3d</fix>
</trkpt>
<trkpt lat="40.0713751" lon="-105.2297889">
  <ele>1583.04</ele>
  <time>2026-08-28T17:49:19Z</time>
  <course>247.01</course>
  <speed>0.022360679774997897</speed>
  <fix>3d</fix>
</trkpt>
<trkpt lat="40.0713749" lon="-105.229789">
  <ele>1583.0</ele>
  <time>2026-08-28T17:49:19Z</time>
  <course>0.0</course>
  <speed>0.0</speed>
  <fix>3d</fix>
</trkpt>
<trkpt lat="40.071375" lon="-105.2297889">
  <ele>1583.04</ele>
  <time>2026-08-28T17:49:19Z</time>
  <course>247.01</course>
  <speed>0.022360679774997897</speed>
  <fix>3d</fix>
</trkpt>
<trkpt lat="40.0713749" lon="-105.229789">
  <ele>1583.0</ele>
  <time>2026-08-28T17:49:19Z</time>
  <course>0.0</course>
  <speed>0.0</speed>
  <fix>3d</fix>
</trkpt>
<trkpt lat="40.0713751" lon="-105.2297889">
  <ele>1583.05</ele>
  <time>2026-08-28T17:49:19Z</time>
  <course>247.01</course>
  <speed>0.022360679774997897</speed>
  <fix>3d</fix>
</trkpt>
<trkpt lat="40.0713749" lon="-105.229789">
  <ele>1583.0</ele>
  <time>2026-08-28T17:49:19Z</time>
  <course>0.0</course>
  <speed>0.0</speed>
  <fix>3d</fix>
</trkpt>
<trkpt lat="40.071375" lon="-105.2297889">
  <ele>1583.05</ele>
  <time>2026-08-28T17:49:19Z</time>
  <course>247.01</course>
  <speed>0.022360679774997897</speed>
  <fix>3d</fix>
</trkpt>
<trkpt lat="40.0713749" lon="-105.229789">
  <ele>1583.0</ele>
  <time>2026-08-28T17:49:19Z</time>
  <course>0.0</course>
  <speed>0.0</speed>
  <fix>3d</fix>
</trkpt>
<trkpt lat="40.0713751" lon="-105.2297889">
  <ele>1583.05</ele>
  <time>2026-08-28T17:49:19Z</time>
  <course>247.01</course>
  <speed>0.022360679774997897</speed>
  <fix>3d</fix>
</trkpt>
<trkpt lat="40.0713749" lon="-105.229789">
  <ele>1583.0</ele>
  <time>2026-08-28T17:49:19Z</time>
  <course>0.0</course>
  <speed>0.0</speed>
  <fix>3d</fix>
</trkpt>
<trkpt lat="40.071375" lon="-105.2297889">
  <ele>1583.05</ele>
  <time>2026-08-28T17:49:19Z</time>
  <course>247.01</course>
  <speed>0.022360679774997897</speed>
  <fix>3d</fix>
</trkpt>
<trkpt lat="40.0713749" lon="-105.229789">
  <ele>1583.0</ele>
  <time>2026-08-28T17:49:19Z</time>
  <course>0.0</course>
  <speed>0.0</speed>
  <fix>3d</fix>
</trkpt>
<trkpt lat="40.0713751" lon="-105.2297889">
  <ele>1583.05</ele>
  <time>2026-08-28T17:49:19Z</time>
  <course>247.01</course>
  <speed>0.022360679774997897</speed>
  <fix>3d</fix>
</trkpt>
<trkpt lat="40.0713749" lon="-105.229789">
  <ele>1583.0</ele>
  <time>2026-08-28T17:49:19Z</time>
  <course>0.0</course>
  <speed>0.0</speed>
  <fix>3d</fix>
</trkpt>
<trkpt lat="40.071375" lon="-105.2297889">
  <ele>1583.06</ele>
  <time>2026-08-28T17:49:19Z</time>
  <course>247.01</course>
  <speed>0.022360679774997897</speed>
  <fix>3d</fix>
</trkpt>
<trkpt lat="40.0713749" lon="-105.229789">
  <ele>1583.0</ele>
  <time>2026-08-28T17:49:19Z</time>
  <course>0.0</course>
  <speed>0.0</speed>
  <fix>3d</fix>
</trkpt>
<trkpt lat="40.0713751" lon="-105.2297889">
  <ele>1583.06</ele>
  <time>2026-08-28T17:49:19Z</time>
  <course>247.01</course>
  <speed>0.022360679774997897</speed>
  <fix>3d</fix>
</trkpt>
<trkpt lat="40.0713749" lon="-105.229789">
  <ele>1583.0</ele>
  <time>2026-08-28T17:49:19Z</time>
  <course>0.0</course>
  <speed>0.0</speed>
  <fix>3d</fix>
</trkpt>
<trkpt lat="40.071375" lon="-105.2297889">
  <ele>1583.07</ele>
  <time>2026-08-28T17:49:19Z</time>
  <course>247.01</course>
  <speed>0.022360679774997897</speed>
  <fix>3d</fix>
</trkpt>
<trkpt lat="40.0713749" lon="-105.229789">
  <ele>1583.0</ele>
  <time>2026-08-28T17:49:19Z</time>
  <course>0.0</course>
  <speed>0.0</speed>
  <fix>3d</fix>
</trkpt>
<trkpt lat="40.0713751" lon="-105.2297889">
  <ele>1583.07</ele>
  <time>2026-08-28T17:49:19Z</time>
  <course>247.01</course>
  <speed>0.022360679774997897</speed>
  <fix>3d</fix>
</trkpt>
<trkpt lat="40.0713749" lon="-105.229789">
  <ele>1583.0</ele>
  <time>2026-08-28T17:49:19Z</time>
  <course>0.0</course>
  <speed>0.0</speed>
  <fix>3d</fix>
</trkpt>
<trkpt lat="40.0713751" lon="-105.2297889">
  <ele>1583.08</ele>
  <time>2026-08-28T17:49:19Z</time>
  <course>247.01</course>
  <speed>0.022360679774997897</speed>
  <fix>3d</fix>
</trkpt>
<trkpt lat="40.0713749" lon="-105.229789">
  <ele>1583.0</ele>
  <time>2026-08-28T17:49:19Z</time>
  <course>0.0</course>
  <speed>0.0</speed>
  <fix>3d</fix>
</trkpt>
<trkpt lat="40.0713751" lon="-105.2297889">
  <ele>1583.09</ele>
  <time>2026-08-28T17:49:19Z</time>
  <course>247.01</course>
  <speed>0.022360679774997897</speed>
  <fix>3d</fix>
</trkpt>
<trkpt lat="40.0713749" lon="-105.229789">
  <ele>1583.0</ele>
  <time>2026-08-28T17:49:19Z</time>
  <course>0.0</course>
  <speed>0.0</speed>
  <fix>3d</fix>
</trkpt>
<trkpt lat="40.0713751" lon="-105.2297889">
  <ele>1583.09</ele>
  <time>2026-08-28T17:49:19Z</time>
  <course>247.0</course>
  <speed>0.022360679774997897</speed>
  <fix>3d</fix>
</trkpt>
<trkpt lat="40.0713749" lon="-105.229789">
  <ele>1583.0</ele>
  <time>2026-08-28T17:49:19Z</time>
  <course>0.0</course>
  <speed>0.0</speed>
  <fix>3d</fix>
</trkpt>
<trkpt lat="40.0713751" lon="-105.2297889">
  <ele>1583.09</ele>
  <time>2026-08-28T17:49:19Z</time>
  <course>247.0</course>
  <speed>0.022360679774997897</speed>
  <fix>3d</fix>
</trkpt>
<trkpt lat="40.0713749" lon="-105.229789">
  <ele>1583.0</ele>
  <time>2026-08-28T17:49:19Z</time>
  <course>0.0</course>
  <speed>0.0</speed>
  <fix>3d</fix>
</trkpt>
<trkpt lat="40.0713751" lon="-105.2297889">
  <ele>1583.09</ele>
  <time>2026-08-28T17:49:19Z</time>
  <course>247.0</course>
  <speed>0.022360679774997897</speed>
  <fix>3d</fix>
</trkpt>
<trkpt lat="40.0713749" lon="-105.229789">
  <ele>1583.0</ele>
  <time>2026-08-28T17:49:19Z</time>
  <course>0.0</course>
  <speed>0.0</speed>
  <fix>3d</fix>
</trkpt>
<trkpt lat="40.0713751" lon="-105.2297889">
  <ele>1583.08</ele>
  <time>2026-08-28T17:49:19Z</time>
  <course>247.0</course>
  <speed>0.022360679774997897</speed>
  <fix>3d</fix>
</trkpt>
<trkpt lat="40.0713749" lon="-105.229789">
  <ele>1583.0</ele>
  <time>2026-08-28T17:49:19Z</time>
  <course>0.0</course>
  <speed>0.0</speed>
  <fix>3d</fix>
</trkpt>
<trkpt lat="40.0713751" lon="-105.2297889">
  <ele>1583.08</ele>
  <time>2026-08-28T17:49:19Z</time>
  <course>247.0</course>
  <speed>0.022360679774997897</speed>
  <fix>3d</fix>
</trkpt>
<trkpt lat="40.0713749" lon="-105.229789">
  <ele>1583.0</ele>
  <time>2026-08-28T17:49:19Z</time>
  <course>0.0</course>
  <speed>0.0</speed>
  <fix>3d</fix>
</trkpt>
<trkpt lat="40.0713751" lon="-105.2297889">
  <ele>1583.07</ele>
  <time>2026-08-28T17:49:19Z</time>
  <course>247.0</course>
  <speed>0.022360679774997897</speed>
  <fix>3d</fix>
</trkpt>
<trkpt lat="40.0713749" lon="-105.229789">
  <ele>1583.0</ele>
  <time>2026-08-28T17:49:19Z</time>
  <course>0.0</course>
  <speed>0.0</speed>
  <fix>3d</fix>
</trkpt>
<trkpt lat="40.071375" lon="-105.2297889">
  <ele>1583.06</ele>
  <time>2026-08-28T17:49:19Z</time>
  <course>247.0</course>
  <speed>0.022360679774997897</speed>
  <fix>3d</fix>
</trkpt>
<trkpt lat="40.0713749" lon="-105.229789">
  <ele>1583.0</ele>
  <time>2026-08-28T17:49:19Z</time>
  <course>0.0</course>
  <speed>0.0</speed>
  <fix>3d</fix>
</trkpt>
<trkpt lat="40.0713751" lon="-105.2297889">
  <ele>1583.05</ele>
  <time>2026-08-28T17:49:19Z</time>
  <course>247.0</course>
  <speed>0.022360679774997897</speed>
  <fix>3d</fix>
</trkpt>
<trkpt lat="40.0713749" lon="-105.229789">
  <ele>1583.0</ele>
  <time>2026-08-28T17:49:19Z</time>
  <course>0.0</course>
  <speed>0.0</speed>
  <fix>3d</fix>
</trkpt>
<trkpt lat="40.071375" lon="-105.2297889">
  <ele>1583.04</ele>
  <time>2026-08-28T17:49:19Z</time>
  <course>247.0</course>
  <speed>0.022360679774997897</speed>
  <fix>3d</fix>
</trkpt>
<trkpt lat="40.0713749" lon="-105.229789">
  <ele>1583.0</ele>
  <time>2026-08-28T17:49:19Z</time>
  <course>0.0</course>
  <speed>0.0</speed>
  <fix>3d</fix>
</trkpt>
<trkpt lat="40.0713751" lon="-105.2297889">
  <ele>1583.03</ele>
  <time>2026-08-28T17:49:19Z</time>
  <course>247.0</course>
  <speed>0.022360679774997897</speed>
  <fix>3d</fix>
</trkpt>
<trkpt lat="40.0713749" lon="-105.229789">
  <ele>1583.0</ele>
  <time>2026-08-28T17:49:19Z</time>
  <course>0.0</course>
  <speed>0.0</speed>
  <fix>3d</fix>
</trkpt>
<trkpt lat="40.071375" lon="-105.2297889">
  <ele>1583.02</ele>
  <time>2026-08-28T17:49:19Z</time>
  <course>247.0</course>
  <speed>0.022360679774997897</speed>
  <fix>3d</fix>
</trkpt>
<trkpt lat="40.0713749" lon="-105.229789">
  <ele>1583.0</ele>
  <time>2026-08-28T17:49:19Z</time>
  <course>0.0</course>
  <speed>0.0</speed>
  <fix>3d</fix>
</trkpt>
<trkpt lat="40.0713751" lon="-105.2297889">
  <ele>1583.02</ele>
  <time>2026-08-28T17:49:19Z</time>
  <course>247.0</course>
  <speed>0.022360679774997897</speed>
  <fix>3d</fix>
</trkpt>
<trkpt lat="40.0713749" lon="-105.229789">
  <ele>1583.0</ele>
  <time>2026-08-28T17:49:19Z</time>
  <course>0.0</course>
  <speed>0.0</speed>
  <fix>3d</fix>
</trkpt>
<trkpt lat="40.071375" lon="-105.2297889">
  <ele>1583.02</ele>
  <time>2026-08-28T17:49:19Z</time>
  <course>247.0</course>
  <speed>0.022360679774997897</speed>
  <fix>3d</fix>
</trkpt>
<trkpt lat="40.0713749" lon="-105.229789">
  <ele>1583.0</ele>
  <time>2026-08-28T17:49:19Z</time>
  <course>0.0</course>
  <speed>0.0</speed>
  <fix>3d</fix>
</trkpt>
<trkpt lat="40.0713751" lon="-105.2297889">
  <ele>1583.02</ele>
  <time>2026-08-28T17:49:19Z</time>
  <course>247.0</course>
  <speed>0.022360679774997897</speed>
  <fix>3d</fix>
</trkpt>
<trkpt lat="40.0713749" lon="-105.229789">
  <ele>1583.0</ele>
  <time>2026-08-28T17:49:19Z</time>
  <course>0.0</course>
  <speed>0.0</speed>
  <fix>3d</fix>
</trkpt>
<trkpt lat="40.071375" lon="-105.2297889">
  <ele>1583.02</ele>
  <time>2026-08-28T17:49:19Z</time>
  <course>247.0</course>
  <speed>0.022360679774997897</speed>
  <fix>3d</fix>
</trkpt>
<trkpt lat="40.0713749" lon="-105.229789">
  <ele>1583.0</ele>
  <time>2026-08-28T17:49:19Z</time>
  <course>0.0</course>
  <speed>0.0</speed>
  <fix>3d</fix>
</trkpt>
<trkpt lat="40.0713751" lon="-105.2297889">
  <ele>1583.02</ele>
  <time>2026-08-28T17:49:19Z</time>
  <course>247.0</course>
  <speed>0.022360679774997897</speed>
  <fix>3d</fix>
</trkpt>
<trkpt lat="40.0713749" lon="-105.229789">
  <ele>1583.0</ele>
  <time>2026-08-28T17:49:19Z</time>
  <course>0.0</course>
  <speed>0.0</speed>
  <fix>3d</fix>
</trkpt>
<trkpt lat="40.071375" lon="-105.2297889">
  <ele>1583.02</ele>
  <time>2026-08-28T17:49:19Z</time>
  <course>247.0</course>
  <speed>0.022360679774997897</speed>
  <fix>3d</fix>
</trkpt>
<trkpt lat="40.0713749" lon="-105.229789">
  <ele>1583.0</ele>
  <time>2026-08-28T17:49:19Z</time>
  <course>0.0</course>
  <speed>0.0</speed>
  <fix>3d</fix>
</trkpt>
<trkpt lat="40.0713751" lon="-105.2297889">
  <ele>1583.02</ele>
  <time>2026-08-28T17:49:19Z</time>
  <course>247.0</course>
  <speed>0.022360679774997897</speed>
  <fix>3d</fix>
</trkpt>
<trkpt lat="40.0713749" lon="-105.229789">
  <ele>1583.0</ele>
  <time>2026-08-28T17:49:19Z</time>
  <course>0.0</course>
  <speed>0.0</speed>
  <fix>3d</fix>
</trkpt>
<trkpt lat="40.0713751" lon="-105.2297889">
  <ele>1583.02</ele>
  <time>2026-08-28T17:49:19Z</time>
  <course>247.0</course>
  <speed>0.022360679774997897</speed>
  <fix>3d</fix>
</trkpt>
<trkpt lat="40.0713749" lon="-105.229789">
  <ele>1583.0</ele>
  <time>2026-08-28T17:49:19Z</time>
  <course>0.0</course>
  <speed>0.0</speed>
  <fix>3d</fix>
</trkpt>
<trkpt lat="40.0713751" lon="-105.2297889">
  <ele>1583.03</ele>
  <time>2026-08-28T17:49:19Z</time>
  <course>247.0</course>
  <speed>0.022360679774997897</speed>
  <fix>3d</fix>
</trkpt>
<trkpt lat="40.0713749" lon="-105.229789">
  <ele>1583.0</ele>
  <time>2026-08-28T17:49:19Z</time>
  <course>0.0</course>
  <speed>0.0</speed>
  <fix>3d</fix>
</trkpt>
<trkpt lat="40.0713751" lon="-105.2297889">
  <ele>1583.03</ele>
  <time>2026-08-28T17:49:19Z</time>
  <course>247.0</course>
  <speed>0.022360679774997897</speed>
  <fix>3d</fix>
</trkpt>
<trkpt lat="40.0713749" lon="-105.229789">
  <ele>1583.0</ele>
  <time>2026-08-28T17:49:19Z</time>
  <course>0.0</course>
  <speed>0.0</speed>
  <fix>3d</fix>
</trkpt>
<trkpt lat="40.0713751" lon="-105.2297889">
  <ele>1583.03</ele>
  <time>2026-08-28T17:49:19Z</time>
  <course>247.0</course>
  <speed>0.022360679774997897</speed>
  <fix>3d</fix>
</trkpt>
<trkpt lat="40.0713749" lon="-105.229789">
  <ele>1583.0</ele>
  <time>2026-08-28T17:49:19Z</time>
  <course>0.0</course>
  <speed>0.0</speed>
  <fix>3d</fix>
</trkpt>
<trkpt lat="40.0713751" lon="-105.2297889">
  <ele>1583.02</ele>
  <time>2026-08-28T17:49:19Z</time>
  <course>247.0</course>
  <speed>0.022360679774997897</speed>
  <fix>3d</fix>
</trkpt>
<trkpt lat="40.0713749" lon="-105.229789">
  <ele>1583.0</ele>
  <time>2026-08-28T17:49:19Z</time>
  <course>0.0</course>
  <speed>0.0</speed>
  <fix>3d</fix>
</trkpt>
<trkpt lat="40.0713751" lon="-105.2297889">
  <ele>1583.01</ele>
  <time>2026-08-28T17:49:19Z</time>
  <course>247.0</course>
  <speed>0.022360679774997897</speed>
  <fix>3d</fix>
</trkpt>
<trkpt lat="40.0713749" lon="-105.229789">
  <ele>1583.0</ele>
  <time>2026-08-28T17:49:19Z</time>
  <course>0.0</course>
  <speed>0.0</speed>
  <fix>3d</fix>
</trkpt>
<trkpt lat="40.0713751" lon="-105.2297889">
  <ele>1583.0</ele>
  <time>2026-08-28T17:49:19Z</time>
  <course>247.0</course>
  <speed>0.022360679774997897</speed>
  <fix>3d</fix>
</trkpt>
<trkpt lat="40.0713749" lon="-105.229789">
  <ele>1583.0</ele>
  <time>2026-08-28T17:49:19Z</time>
  <course>0.0</course>
  <speed>0.0</speed>
  <fix>3d</fix>
</trkpt>
<trkpt lat="40.0713751" lon="-105.2297889">
  <ele>1582.99</ele>
  <time>2026-08-28T17:49:19Z</time>
  <course>247.0</course>
  <speed>0.022360679774997897</speed>
  <fix>3d</fix>
</trkpt>
<trkpt lat="40.0713749" lon="-105.229789">
  <ele>1583.0</ele>
  <time>2026-08-28T17:49:19Z</time>
  <course>0.0</course>
  <speed>0.0</speed>
  <fix>3d</fix>
</trkpt>
<trkpt lat="40.0713751" lon="-105.2297889">
  <ele>1582.98</ele>
  <time>2026-08-28T17:49:19Z</time>
  <course>247.0</course>
  <speed>0.022360679774997897</speed>
  <fix>3d</fix>
</trkpt>
<trkpt lat="40.0713749" lon="-105.229789">
  <ele>1583.0</ele>
  <time>2026-08-28T17:49:19Z</time>
  <course>0.0</course>
  <speed>0.0</speed>
  <fix>3d</fix>
</trkpt>
<trkpt lat="40.0713751" lon="-105.2297889">
  <ele>1582.97</ele>
  <time>2026-08-28T17:49:19Z</time>
  <course>247.0</course>
  <speed>0.022360679774997897</speed>
  <fix>3d</fix>
</trkpt>
<trkpt lat="40.0713749" lon="-105.229789">
  <ele>1583.0</ele>
  <time>2026-08-28T17:49:19Z</time>
  <course>0.0</course>
  <speed>0.0</speed>
  <fix>3d</fix>
</trkpt>
<trkpt lat="40.071375" lon="-105.2297889">
  <ele>1582.96</ele>
  <time>2026-08-28T17:49:19Z</time>
  <course>247.0</course>
  <speed>0.022360679774997897</speed>
  <fix>3d</fix>
</trkpt>
<trkpt lat="40.0713749" lon="-105.229789">
  <ele>1583.0</ele>
  <time>2026-08-28T17:49:19Z</time>
  <course>0.0</course>
  <speed>0.0</speed>
  <fix>3d</fix>
</trkpt>
<trkpt lat="40.0713751" lon="-105.2297889">
  <ele>1582.95</ele>
  <time>2026-08-28T17:49:19Z</time>
  <course>247.0</course>
  <speed>0.022360679774997897</speed>
  <fix>3d</fix>
</trkpt>
<trkpt lat="40.0713749" lon="-105.229789">
  <ele>1583.0</ele>
  <time>2026-08-28T17:49:19Z</time>
  <course>0.0</course>
  <speed>0.0</speed>
  <fix>3d</fix>
</trkpt>
<trkpt lat="40.071375" lon="-105.2297889">
  <ele>1582.95</ele>
  <time>2026-08-28T17:49:19Z</time>
  <course>247.0</course>
  <speed>0.022360679774997897</speed>
  <fix>3d</fix>
</trkpt>
<trkpt lat="40.0713749" lon="-105.229789">
  <ele>1583.0</ele>
  <time>2026-08-28T17:49:19Z</time>
  <course>0.0</course>
  <speed>0.0</speed>
  <fix>3d</fix>
</trkpt>
<trkpt lat="40.0713751" lon="-105.2297889">
  <ele>1582.94</ele>
  <time>2026-08-28T17:49:19Z</time>
  <course>247.0</course>
  <speed>0.022360679774997897</speed>
  <fix>3d</fix>
</trkpt>
<trkpt lat="40.0713749" lon="-105.229789">
  <ele>1583.0</ele>
  <time>2026-08-28T17:49:19Z</time>
  <course>0.0</course>
  <speed>0.0</speed>
  <fix>3d</fix>
</trkpt>
<trkpt lat="40.071375" lon="-105.2297889">
  <ele>1582.93</ele>
  <time>2026-08-28T17:49:19Z</time>
  <course>247.0</course>
  <speed>0.022360679774997897</speed>
  <fix>3d</fix>
</trkpt>
<trkpt lat="40.0713749" lon="-105.229789">
  <ele>1583.0</ele>
  <time>2026-08-28T17:49:19Z</time>
  <course>0.0</course>
  <speed>0.0</speed>
  <fix>3d</fix>
</trkpt>
<trkpt lat="40.0713751" lon="-105.2297889">
  <ele>1582.93</ele>
  <time>2026-08-28T17:49:19Z</time>
  <course>247.0</course>
  <speed>0.022360679774997897</speed>
  <fix>3d</fix>
</trkpt>
<trkpt lat="40.0713749" lon="-105.229789">
  <ele>1583.0</ele>
  <time>2026-08-28T17:49:19Z</time>
  <course>0.0</course>
  <speed>0.0</speed>
  <fix>3d</fix>
</trkpt>
<trkpt lat="40.071375" lon="-105.2297889">
  <ele>1582.92</ele>
  <time>2026-08-28T17:49:19Z</time>
  <course>247.0</course>
  <speed>0.022360679774997897</speed>
  <fix>3d</fix>
</trkpt>
<trkpt lat="40.0713749" lon="-105.229789">
  <ele>1583.0</ele>
  <time>2026-08-28T17:49:19Z</time>
  <course>0.0</course>
  <speed>0.0</speed>
  <fix>3d</fix>
</trkpt>
<trkpt lat="40.0713751" lon="-105.2297889">
  <ele>1582.92</ele>
  <time>2026-08-28T17:49:19Z</time>
  <course>247.0</course>
  <speed>0.022360679774997897</speed>
  <fix>3d</fix>
</trkpt>
<trkpt lat="40.0713749" lon="-105.229789">
  <ele>1583.0</ele>
  <time>2026-08-28T17:49:19Z</time>
  <course>0.0</course>
  <speed>0.0</speed>
  <fix>3d</fix>
</trkpt>
<trkpt lat="40.071375" lon="-105.2297889">
  <ele>1582.91</ele>
  <time>2026-08-28T17:49:19Z</time>
  <course>247.0</course>
  <speed>0.022360679774997897</speed>
  <fix>3d</fix>
</trkpt>
<trkpt lat="40.0713749" lon="-105.229789">
  <ele>1583.0</ele>
  <time>2026-08-28T17:49:19Z</time>
  <course>0.0</course>
  <speed>0.0</speed>
  <fix>3d</fix>
</trkpt>
<trkpt lat="40.0713751" lon="-105.2297889">
  <ele>1582.9</ele>
  <time>2026-08-28T17:49:19Z</time>
  <course>247.0</course>
  <speed>0.022360679774997897</speed>
  <fix>3d</fix>
</trkpt>
<trkpt lat="40.0713749" lon="-105.229789">
  <ele>1583.0</ele>
  <time>2026-08-28T17:49:19Z</time>
  <course>0.0</course>
  <speed>0.0</speed>
  <fix>3d</fix>
</trkpt>
<trkpt lat="40.071375" lon="-105.2297889">
  <ele>1582.9</ele>
  <time>2026-08-28T17:49:19Z</time>
  <course>247.0</course>
  <speed>0.022360679774997897</speed>
  <fix>3d</fix>
</trkpt>
<trkpt lat="40.0713749" lon="-105.229789">
  <ele>1583.0</ele>
  <time>2026-08-28T17:49:19Z</time>
  <course>0.0</course>
  <speed>0.0</speed>
  <fix>3d</fix>
</trkpt>
<trkpt lat="40.0713751" lon="-105.2297889">
  <ele>1582.89</ele>
  <time>2026-08-28T17:49:19Z</time>
  <course>247.0</course>
  <speed>0.022360679774997897</speed>
  <fix>3d</fix>
</trkpt>
<trkpt lat="40.0713749" lon="-105.229789">
  <ele>1583.0</ele>
  <time>2026-08-28T17:49:19Z</time>
  <course>0.0</course>
  <speed>0.0</speed>
  <fix>3d</fix>
</trkpt>
<trkpt lat="40.0713751" lon="-105.2297889">
  <ele>1582.89</ele>
  <time>2026-08-28T17:49:19Z</time>
  <course>247.0</course>
  <speed>0.022360679774997897</speed>
  <fix>3d</fix>
</trkpt>
<trkpt lat="40.0713749" lon="-105.229789">
  <ele>1583.0</ele>
  <time>2026-08-28T17:49:19Z</time>
  <course>0.0</course>
  <speed>0.0</speed>
  <fix>3d</fix>
</trkpt>
<trkpt lat="40.0713751" lon="-105.2297889">
  <ele>1582.88</ele>
  <time>2026-08-28T17:49:19Z</time>
  <course>247.0</course>
  <speed>0.022360679774997897</speed>
  <fix>3d</fix>
</trkpt>
<trkpt lat="40.0713749" lon="-105.229789">
  <ele>1583.0</ele>
  <time>2026-08-28T17:49:19Z</time>
  <course>0.0</course>
  <speed>0.0</speed>
  <fix>3d</fix>
</trkpt>
<trkpt lat="40.0713751" lon="-105.2297889">
  <ele>1582.88</ele>
  <time>2026-08-28T17:49:19Z</time>
  <course>247.0</course>
  <speed>0.022360679774997897</speed>
  <fix>3d</fix>
</trkpt>
<trkpt lat="40.0713749" lon="-105.229789">
  <ele>1583.0</ele>
  <time>2026-08-28T17:49:19Z</time>
  <course>0.0</course>
  <speed>0.0</speed>
  <fix>3d</fix>
</trkpt>
<trkpt lat="40.0713751" lon="-105.2297889">
  <ele>1582.88</ele>
  <time>2026-08-28T17:49:19Z</time>
  <course>247.0</course>
  <speed>0.022360679774997897</speed>
  <fix>3d</fix>
</trkpt>
<trkpt lat="40.0713749" lon="-105.229789">
  <ele>1583.0</ele>
  <time>2026-08-28T17:49:19Z</time>
  <course>0.0</course>
  <speed>0.0</speed>
  <fix>3d</fix>
</trkpt>
<trkpt lat="40.0713751" lon="-105.2297889">
  <ele>1582.88</ele>
  <time>2026-08-28T17:49:19Z</time>
  <course>247.0</course>
  <speed>0.022360679774997897</speed>
  <fix>3d</fix>
</trkpt>
<trkpt lat="40.0713749" lon="-105.229789">
  <ele>1583.0</ele>
  <time>2026-08-28T17:49:19Z</time>
  <course>0.0</course>
  <speed>0.0</speed>
  <fix>3d</fix>
</trkpt>
<trkpt lat="40.0713751" lon="-105.2297889">
  <ele>1582.88</ele>
  <time>2026-08-28T17:49:19Z</time>
  <course>247.0</course>
  <speed>0.022360679774997897</speed>
  <fix>3d</fix>
</trkpt>
<trkpt lat="40.0713749" lon="-105.229789">
  <ele>1583.0</ele>
  <time>2026-08-28T17:49:19Z</time>
  <course>0.0</course>
  <speed>0.0</speed>
  <fix>3d</fix>
</trkpt>
<trkpt lat="40.071375" lon="-105.2297889">
  <ele>1582.89</ele>
  <time>2026-08-28T17:49:19Z</time>
  <course>247.0</course>
  <speed>0.022360679774997897</speed>
  <fix>3d</fix>
</trkpt>
<trkpt lat="40.0713749" lon="-105.229789">
  <ele>1583.0</ele>
  <time>2026-08-28T17:49:19Z</time>
  <course>0.0</course>
  <speed>0.0</speed>
  <fix>3d</fix>
</trkpt>
<trkpt lat="40.0713751" lon="-105.2297889">
  <ele>1582.89</ele>
  <time>2026-08-28T17:49:19Z</time>
  <course>247.0</course>
  <speed>0.022360679774997897</speed>
  <fix>3d</fix>
</trkpt>
<trkpt lat="40.0713749" lon="-105.229789">
  <ele>1583.0</ele>
  <time>2026-08-28T17:49:19Z</time>
  <course>0.0</course>
  <speed>0.0</speed>
  <fix>3d</fix>
</trkpt>
<trkpt lat="40.071375" lon="-105.2297889">
  <ele>1582.89</ele>
  <time>2026-08-28T17:49:19Z</time>
  <course>247.0</course>
  <speed>0.022360679774997897</speed>
  <fix>3d</fix>
</trkpt>
<trkpt lat="40.0713749" lon="-105.229789">
  <ele>1583.0</ele>
  <time>2026-08-28T17:49:19Z</time>
  <course>0.0</course>
  <speed>0.0</speed>
  <fix>3d</fix>
</trkpt>
<trkpt lat="40.0713751" lon="-105.2297889">
  <ele>1582.89</ele>
  <time>2026-08-28T17:49:19Z</time>
  <course>247.0</course>
  <speed>0.022360679774997897</speed>
  <fix>3d</fix>
</trkpt>
<trkpt lat="40.0713749" lon="-105.229789">
  <ele>1583.0</ele>
  <time>2026-08-28T17:49:19Z</time>
  <course>0.0</course>
  <speed>0.0</speed>
  <fix>3d</fix>
</trkpt>
<trkpt lat="40.071375" lon="-105.2297889">
  <ele>1582.89</ele>
  <time>2026-08-28T17:49:19Z</time>
  <course>247.0</course>
  <speed>0.02</speed>
  <fix>3d</fix>
</trkpt>
<trkpt lat="40.0713749" lon="-105.229789">
  <ele>1583.0</ele>
  <time>2026-08-28T17:49:19Z</time>
  <course>0.0</course>
  <speed>0.0</speed>
  <fix>3d</fix>
</trkpt>
<trkpt lat="40.0713751" lon="-105.2297889">
  <ele>1582.89</ele>
  <time>2026-08-28T17:49:19Z</time>
  <course>247.0</course>
  <speed>0.022360679774997897</speed>
  <fix>3d</fix>
</trkpt>
<trkpt lat="40.0713749" lon="-105.229789">
  <ele>1583.0</ele>
  <time>2026-08-28T17:49:19Z</time>
  <course>0.0</course>
  <speed>0.0</speed>
  <fix>3d</fix>
</trkpt>
<trkpt lat="40.071375" lon="-105.2297889">
  <ele>1582.89</ele>
  <time>2026-08-28T17:49:19Z</time>
  <course>247.0</course>
  <speed>0.02</speed>
  <fix>3d</fix>
</trkpt>
<trkpt lat="40.0713749" lon="-105.229789">
  <ele>1583.0</ele>
  <time>2026-08-28T17:49:19Z</time>
  <course>0.0</course>
  <speed>0.0</speed>
  <fix>3d</fix>
</trkpt>
<trkpt lat="40.0713751" lon="-105.2297889">
  <ele>1582.89</ele>
  <time>2026-08-28T17:49:19Z</time>
  <course>247.0</course>
  <speed>0.022360679774997897</speed>
  <fix>3d</fix>
</trkpt>
<trkpt lat="40.0713749" lon="-105.229789">
  <ele>1583.0</ele>
  <time>2026-08-28T17:49:19Z</time>
  <course>0.0</course>
  <speed>0.0</speed>
  <fix>3d</fix>
</trkpt>
<trkpt lat="40.071375" lon="-105.2297889">
  <ele>1582.89</ele>
  <time>2026-08-28T17:49:19Z</time>
  <course>247.0</course>
  <speed>0.02</speed>
  <fix>3d</fix>
</trkpt>
<trkpt lat="40.0713749" lon="-105.229789">
  <ele>1583.0</ele>
  <time>2026-08-28T17:49:19Z</time>
  <course>0.0</course>
  <speed>0.0</speed>
  <fix>3d</fix>
</trkpt>
<trkpt lat="40.0713751" lon="-105.2297889">
  <ele>1582.89</ele>
  <time>2026-08-28T17:49:19Z</time>
  <course>247.0</course>
  <speed>0.022360679774997897</speed>
  <fix>3d</fix>
</trkpt>
<trkpt lat="40.0713749" lon="-105.229789">
  <ele>1583.0</ele>
  <time>2026-08-28T17:49:19Z</time>
  <course>0.0</course>
  <speed>0.0</speed>
  <fix>3d</fix>
</trkpt>
<trkpt lat="40.071375" lon="-105.2297889">
  <ele>1582.89</ele>
  <time>2026-08-28T17:49:19Z</time>
  <course>247.0</course>
  <speed>0.02</speed>
  <fix>3d</fix>
</trkpt>
<trkpt lat="40.0713749" lon="-105.229789">
  <ele>1583.0</ele>
  <time>2026-08-28T17:49:19Z</time>
  <course>0.0</course>
  <speed>0.0</speed>
  <fix>3d</fix>
</trkpt>
<trkpt lat="40.0713751" lon="-105.2297889">
  <ele>1582.89</ele>
  <time>2026-08-28T17:49:19Z</time>
  <course>247.0</course>
  <speed>0.022360679774997897</speed>
  <fix>3d</fix>
</trkpt>
<trkpt lat="40.0713749" lon="-105.229789">
  <ele>1583.0</ele>
  <time>2026-08-28T17:49:19Z</time>
  <course>0.0</course>
  <speed>0.0</speed>
  <fix>3d</fix>
</trkpt>
<trkpt lat="40.071375" lon="-105.2297889">
  <ele>1582.88</ele>
  <time>2026-08-28T17:49:19Z</time>
  <course>247.0</course>
  <speed>0.02</speed>
  <fix>3d</fix>
</trkpt>
<trkpt lat="40.0713749" lon="-105.229789">
  <ele>1583.0</ele>
  <time>2026-08-28T17:49:19Z</time>
  <course>0.0</course>
  <speed>0.0</speed>
  <fix>3d</fix>
</trkpt>
<trkpt lat="40.0713751" lon="-105.2297889">
  <ele>1582.88</ele>
  <time>2026-08-28T17:49:19Z</time>
  <course>247.0</course>
  <speed>0.022360679774997897</speed>
  <fix>3d</fix>
</trkpt>
<trkpt lat="40.0713749" lon="-105.229789">
  <ele>1583.0</ele>
  <time>2026-08-28T17:49:19Z</time>
  <course>0.0</course>
  <speed>0.0</speed>
  <fix>3d</fix>
</trkpt>
<trkpt lat="40.0713751" lon="-105.2297889">
  <ele>1582.88</ele>
  <time>2026-08-28T17:49:19Z</time>
  <course>247.0</course>
  <speed>0.022360679774997897</speed>
  <fix>3d</fix>
</trkpt>
<trkpt lat="40.0713749" lon="-105.229789">
  <ele>1583.0</ele>
  <time>2026-08-28T17:49:19Z</time>
  <course>0.0</course>
  <speed>0.0</speed>
  <fix>3d</fix>
</trkpt>
<trkpt lat="40.0713751" lon="-105.2297889">
  <ele>1582.87</ele>
  <time>2026-08-28T17:49:19Z</time>
  <course>247.0</course>
  <speed>0.022360679774997897</speed>
  <fix>3d</fix>
</trkpt>
<trkpt lat="40.0713749" lon="-105.229789">
  <ele>1583.0</ele>
  <time>2026-08-28T17:49:19Z</time>
  <course>0.0</course>
  <speed>0.0</speed>
  <fix>3d</fix>
</trkpt>
<trkpt lat="40.0713751" lon="-105.2297889">
  <ele>1582.87</ele>
  <time>2026-08-28T17:49:19Z</time>
  <course>247.0</course>
  <speed>0.022360679774997897</speed>
  <fix>3d</fix>
</trkpt>
<trkpt lat="40.0713749" lon="-105.229789">
  <ele>1583.0</ele>
  <time>2026-08-28T17:49:19Z</time>
  <course>0.0</course>
  <speed>0.0</speed>
  <fix>3d</fix>
</trkpt>
<trkpt lat="40.0713751" lon="-105.2297889">
  <ele>1582.87</ele>
  <time>2026-08-28T17:49:19Z</time>
  <course>247.0</course>
  <speed>0.022360679774997897</speed>
  <fix>3d</fix>
</trkpt>
<trkpt lat="40.0713749" lon="-105.229789">
  <ele>1583.0</ele>
  <time>2026-08-28T17:49:19Z</time>
  <course>0.0</course>
  <speed>0.0</speed>
  <fix>3d</fix>
</trkpt>
<trkpt lat="40.0713751" lon="-105.2297889">
  <ele>1582.87</ele>
  <time>2026-08-28T17:49:19Z</time>
  <course>247.0</course>
  <speed>0.022360679774997897</speed>
  <fix>3d</fix>
</trkpt>
<trkpt lat="40.0713749" lon="-105.229789">
  <ele>1583.0</ele>
  <time>2026-08-28T17:49:19Z</time>
  <course>0.0</course>
  <speed>0.0</speed>
  <fix>3d</fix>
</trkpt>
<trkpt lat="40.0713751" lon="-105.2297889">
  <ele>1582.87</ele>
  <time>2026-08-28T17:49:19Z</time>
  <course>247.0</course>
  <speed>0.022360679774997897</speed>
  <fix>3d</fix>
</trkpt>
<trkpt lat="40.0713749" lon="-105.229789">
  <ele>1583.0</ele>
  <time>2026-08-28T17:49:19Z</time>
  <course>0.0</course>
  <speed>0.0</speed>
  <fix>3d</fix>
</trkpt>
<trkpt lat="40.071375" lon="-105.2297889">
  <ele>1582.86</ele>
  <time>2026-08-28T17:49:19Z</time>
  <course>247.0</course>
  <speed>0.02</speed>
  <fix>3d</fix>
</trkpt>
<trkpt lat="40.0713749" lon="-105.229789">
  <ele>1583.0</ele>
  <time>2026-08-28T17:49:19Z</time>
  <course>0.0</course>
  <speed>0.0</speed>
  <fix>3d</fix>
</trkpt>
<trkpt lat="40.0713751" lon="-105.2297889">
  <ele>1582.86</ele>
  <time>2026-08-28T17:49:19Z</time>
  <course>247.0</course>
  <speed>0.02</speed>
  <fix>3d</fix>
</trkpt>
<trkpt lat="40.0713749" lon="-105.229789">
  <ele>1583.0</ele>
  <time>2026-08-28T17:49:19Z</time>
  <course>0.0</course>
  <speed>0.0</speed>
  <fix>3d</fix>
</trkpt>
<trkpt lat="40.071375" lon="-105.2297889">
  <ele>1582.86</ele>
  <time>2026-08-28T17:49:19Z</time>
  <course>247.0</course>
  <speed>0.02</speed>
  <fix>3d</fix>
</trkpt>
<trkpt lat="40.0713749" lon="-105.229789">
  <ele>1583.0</ele>
  <time>2026-08-28T17:49:19Z</time>
  <course>0.0</course>
  <speed>0.0</speed>
  <fix>3d</fix>
</trkpt>
<trkpt lat="40.0713751" lon="-105.2297889">
  <ele>1582.85</ele>
  <time>2026-08-28T17:49:19Z</time>
  <course>247.0</course>
  <speed>0.02</speed>
  <fix>3d</fix>
</trkpt>
<trkpt lat="40.0713749" lon="-105.229789">
  <ele>1583.0</ele>
  <time>2026-08-28T17:49:19Z</time>
  <course>0.0</course>
  <speed>0.0</speed>
  <fix>3d</fix>
</trkpt>
<trkpt lat="40.071375" lon="-105.2297889">
  <ele>1582.85</ele>
  <time>2026-08-28T17:49:19Z</time>
  <course>247.0</course>
  <speed>0.02</speed>
  <fix>3d</fix>
</trkpt>
<trkpt lat="40.0713749" lon="-105.229789">
  <ele>1583.0</ele>
  <time>2026-08-28T17:49:19Z</time>
  <course>0.0</course>
  <speed>0.0</speed>
  <fix>3d</fix>
</trkpt>
<trkpt lat="40.0713751" lon="-105.2297889">
  <ele>1582.85</ele>
  <time>2026-08-28T17:49:19Z</time>
  <course>247.0</course>
  <speed>0.02</speed>
  <fix>3d</fix>
</trkpt>
<trkpt lat="40.0713749" lon="-105.229789">
  <ele>1583.0</ele>
  <time>2026-08-28T17:49:19Z</time>
  <course>0.0</course>
  <speed>0.0</speed>
  <fix>3d</fix>
</trkpt>
<trkpt lat="40.071375" lon="-105.2297889">
  <ele>1582.85</ele>
  <time>2026-08-28T17:49:19Z</time>
  <course>247.0</course>
  <speed>0.02</speed>
  <fix>3d</fix>
</trkpt>
<trkpt lat="40.0713749" lon="-105.229789">
  <ele>1583.0</ele>
  <time>2026-08-28T17:49:19Z</time>
  <course>0.0</course>
  <speed>0.0</speed>
  <fix>3d</fix>
</trkpt>
<trkpt lat="40.0713751" lon="-105.2297889">
  <ele>1582.86</ele>
  <time>2026-08-28T17:49:19Z</time>
  <course>247.0</course>
  <speed>0.022360679774997897</speed>
  <fix>3d</fix>
</trkpt>
<trkpt lat="40.0713749" lon="-105.229789">
  <ele>1583.0</ele>
  <time>2026-08-28T17:49:19Z</time>
  <course>0.0</course>
  <speed>0.0</speed>
  <fix>3d</fix>
</trkpt>
<trkpt lat="40.071375" lon="-105.2297889">
  <ele>1582.86</ele>
  <time>2026-08-28T17:49:19Z</time>
  <course>247.0</course>
  <speed>0.02</speed>
  <fix>3d</fix>
</trkpt>
<trkpt lat="40.0713749" lon="-105.229789">
  <ele>1583.0</ele>
  <time>2026-08-28T17:49:19Z</time>
  <course>0.0</course>
  <speed>0.0</speed>
  <fix>3d</fix>
</trkpt>
<trkpt lat="40.0713751" lon="-105.2297889">
  <ele>1582.87</ele>
  <time>2026-08-28T17:49:19Z</time>
  <course>247.0</course>
  <speed>0.022360679774997897</speed>
  <fix>3d</fix>
</trkpt>
<trkpt lat="40.0713749" lon="-105.229789">
  <ele>1583.0</ele>
  <time>2026-08-28T17:49:19Z</time>
  <course>0.0</course>
  <speed>0.0</speed>
  <fix>3d</fix>
</trkpt>
<trkpt lat="40.071375" lon="-105.2297889">
  <ele>1582.88</ele>
  <time>2026-08-28T17:49:19Z</time>
  <course>247.0</course>
  <speed>0.02</speed>
  <fix>3d</fix>
</trkpt>
<trkpt lat="40.0713749" lon="-105.229789">
  <ele>1583.0</ele>
  <time>2026-08-28T17:49:19Z</time>
  <course>0.0</course>
  <speed>0.0</speed>
  <fix>3d</fix>
</trkpt>
<trkpt lat="40.0713751" lon="-105.2297889">
  <ele>1582.88</ele>
  <time>2026-08-28T17:49:19Z</time>
  <course>247.0</course>
  <speed>0.022360679774997897</speed>
  <fix>3d</fix>
</trkpt>
<trkpt lat="40.0713749" lon="-105.229789">
  <ele>1583.0</ele>
  <time>2026-08-28T17:49:19Z</time>
  <course>0.0</course>
  <speed>0.0</speed>
  <fix>3d</fix>
</trkpt>
<trkpt lat="40.071375" lon="-105.2297889">
  <ele>1582.89</ele>
  <time>2026-08-28T17:49:19Z</time>
  <course>247.0</course>
  <speed>0.02</speed>
  <fix>3d</fix>
</trkpt>
<trkpt lat="40.0713749" lon="-105.229789">
  <ele>1583.0</ele>
  <time>2026-08-28T17:49:19Z</time>
  <course>0.0</course>
  <speed>0.0</speed>
  <fix>3d</fix>
</trkpt>
<trkpt lat="40.0713751" lon="-105.2297889">
  <ele>1582.9</ele>
  <time>2026-08-28T17:49:19Z</time>
  <course>247.0</course>
  <speed>0.02</speed>
  <fix>3d</fix>
</trkpt>
<trkpt lat="40.0713749" lon="-105.229789">
  <ele>1583.0</ele>
  <time>2026-08-28T17:49:19Z</time>
  <course>0.0</course>
  <speed>0.0</speed>
  <fix>3d</fix>
</trkpt>
<trkpt lat="40.0713751" lon="-105.2297889">
  <ele>1582.9</ele>
  <time>2026-08-28T17:49:19Z</time>
  <course>247.0</course>
  <speed>0.02</speed>
  <fix>3d</fix>
</trkpt>
<trkpt lat="40.0713749" lon="-105.229789">
  <ele>1583.0</ele>
  <time>2026-08-28T17:49:19Z</time>
  <course>0.0</course>
  <speed>0.0</speed>
  <fix>3d</fix>
</trkpt>
<trkpt lat="40.0713751" lon="-105.2297889">
  <ele>1582.91</ele>
  <time>2026-08-28T17:49:19Z</time>
  <course>247.0</course>
  <speed>0.022360679774997897</speed>
  <fix>3d</fix>
</trkpt>
<trkpt lat="40.0713749" lon="-105.229789">
  <ele>1583.0</ele>
  <time>2026-08-28T17:49:19Z</time>
  <course>0.0</course>
  <speed>0.0</speed>
  <fix>3d</fix>
</trkpt>
<trkpt lat="40.0713751" lon="-105.2297889">
  <ele>1582.91</ele>
  <time>2026-08-28T17:49:19Z</time>
  <course>247.0</course>
  <speed>0.022360679774997897</speed>
  <fix>3d</fix>
</trkpt>
<trkpt lat="40.0713749" lon="-105.229789">
  <ele>1583.0</ele>
  <time>2026-08-28T17:49:19Z</time>
  <course>0.0</course>
  <speed>0.0</speed>
  <fix>3d</fix>
</trkpt>
<trkpt lat="40.0713751" lon="-105.2297889">
  <ele>1582.92</ele>
  <time>2026-08-28T17:49:19Z</time>
  <course>247.0</course>
  <speed>0.022360679774997897</speed>
  <fix>3d</fix>
</trkpt>
<trkpt lat="40.0713749" lon="-105.229789">
  <ele>1583.0</ele>
  <time>2026-08-28T17:49:19Z</time>
  <course>0.0</course>
  <speed>0.0</speed>
  <fix>3d</fix>
</trkpt>
<trkpt lat="40.0713751" lon="-105.2297889">
  <ele>1582.92</ele>
  <time>2026-08-28T17:49:19Z</time>
  <course>247.0</course>
  <speed>0.022360679774997897</speed>
  <fix>3d</fix>
</trkpt>
<trkpt lat="40.0713749" lon="-105.229789">
  <ele>1583.0</ele>
  <time>2026-08-28T17:49:19Z</time>
  <course>0.0</course>
  <speed>0.0</speed>
  <fix>3d</fix>
</trkpt>
<trkpt lat="40.0713751" lon="-105.2297889">
  <ele>1582.93</ele>
  <time>2026-08-28T17:49:19Z</time>
  <course>247.0</course>
  <speed>0.022360679774997897</speed>
  <fix>3d</fix>
</trkpt>
<trkpt lat="40.0713749" lon="-105.229789">
  <ele>1583.0</ele>
  <time>2026-08-28T17:49:19Z</time>
  <course>0.0</course>
  <speed>0.0</speed>
  <fix>3d</fix>
</trkpt>
<trkpt lat="40.0713751" lon="-105.2297889">
  <ele>1582.93</ele>
  <time>2026-08-28T17:49:19Z</time>
  <course>247.0</course>
  <speed>0.022360679774997897</speed>
  <fix>3d</fix>
</trkpt>
<trkpt lat="40.0713749" lon="-105.229789">
  <ele>1583.0</ele>
  <time>2026-08-28T17:49:19Z</time>
  <course>0.0</course>
  <speed>0.0</speed>
  <fix>3d</fix>
</trkpt>
<trkpt lat="40.0713751" lon="-105.2297889">
  <ele>1582.94</ele>
  <time>2026-08-28T17:49:19Z</time>
  <course>247.0</course>
  <speed>0.022360679774997897</speed>
  <fix>3d</fix>
</trkpt>
<trkpt lat="40.0713749" lon="-105.229789">
  <ele>1583.0</ele>
  <time>2026-08-28T17:49:19Z</time>
  <course>0.0</course>
  <speed>0.0</speed>
  <fix>3d</fix>
</trkpt>
<trkpt lat="40.0713751" lon="-105.2297889">
  <ele>1582.95</ele>
  <time>2026-08-28T17:49:19Z</time>
  <course>247.0</course>
  <speed>0.022360679774997897</speed>
  <fix>3d</fix>
</trkpt>
<trkpt lat="40.0713749" lon="-105.229789">
  <ele>1583.0</ele>
  <time>2026-08-28T17:49:19Z</time>
  <course>0.0</course>
  <speed>0.0</speed>
  <fix>3d</fix>
</trkpt>
<trkpt lat="40.0713751" lon="-105.2297889">
  <ele>1582.95</ele>
  <time>2026-08-28T17:49:19Z</time>
  <course>247.0</course>
  <speed>0.022360679774997897</speed>
  <fix>3d</fix>
</trkpt>
<trkpt lat="40.0713749" lon="-105.229789">
  <ele>1583.0</ele>
  <time>2026-08-28T17:49:19Z</time>
  <course>0.0</course>
  <speed>0.0</speed>
  <fix>3d</fix>
</trkpt>
<trkpt lat="40.071375" lon="-105.2297889">
  <ele>1582.96</ele>
  <time>2026-08-28T17:49:19Z</time>
  <course>247.0</course>
  <speed>0.02</speed>
  <fix>3d</fix>
</trkpt>
<trkpt lat="40.0713749" lon="-105.229789">
  <ele>1583.0</ele>
  <time>2026-08-28T17:49:19Z</time>
  <course>0.0</course>
  <speed>0.0</speed>
  <fix>3d</fix>
</trkpt>
<trkpt lat="40.0713751" lon="-105.2297889">
  <ele>1582.96</ele>
  <time>2026-08-28T17:49:19Z</time>
  <course>247.0</course>
  <speed>0.022360679774997897</speed>
  <fix>3d</fix>
</trkpt>
<trkpt lat="40.0713749" lon="-105.229789">
  <ele>1583.0</ele>
  <time>2026-08-28T17:49:19Z</time>
  <course>0.0</course>
  <speed>0.0</speed>
  <fix>3d</fix>
</trkpt>
<trkpt lat="40.071375" lon="-105.2297889">
  <ele>1582.96</ele>
  <time>2026-08-28T17:49:19Z</time>
  <course>247.0</course>
  <speed>0.022360679774997897</speed>
  <fix>3d</fix>
</trkpt>
<trkpt lat="40.0713749" lon="-105.229789">
  <ele>1583.0</ele>
  <time>2026-08-28T17:49:19Z</time>
  <course>0.0</course>
  <speed>0.0</speed>
  <fix>3d</fix>
</trkpt>
<trkpt lat="40.0713751" lon="-105.2297889">
  <ele>1582.97</ele>
  <time>2026-08-28T17:49:19Z</time>
  <course>247.0</course>
  <speed>0.022360679774997897</speed>
  <fix>3d</fix>
</trkpt>
<trkpt lat="40.0713749" lon="-105.229789">
  <ele>1583.0</ele>
  <time>2026-08-28T17:49:19Z</time>
  <course>0.0</course>
  <speed>0.0</speed>
  <fix>3d</fix>
</trkpt>
<trkpt lat="40.071375" lon="-105.2297889">
  <ele>1582.97</ele>
  <time>2026-08-28T17:49:19Z</time>
  <course>247.0</course>
  <speed>0.022360679774997897</speed>
  <fix>3d</fix>
</trkpt>
<trkpt lat="40.0713749" lon="-105.229789">
  <ele>1583.0</ele>
  <time>2026-08-28T17:49:19Z</time>
  <course>0.0</course>
  <speed>0.0</speed>
  <fix>3d</fix>
</trkpt>
<trkpt lat="40.0713751" lon="-105.2297889">
  <ele>1582.98</ele>
  <time>2026-08-28T17:49:19Z</time>
  <course>247.0</course>
  <speed>0.022360679774997897</speed>
  <fix>3d</fix>
</trkpt>
<trkpt lat="40.0713749" lon="-105.229789">
  <ele>1583.0</ele>
  <time>2026-08-28T17:49:19Z</time>
  <course>0.0</course>
  <speed>0.0</speed>
  <fix>3d</fix>
</trkpt>
<trkpt lat="40.071375" lon="-105.2297889">
  <ele>1582.98</ele>
  <time>2026-08-28T17:49:19Z</time>
  <course>247.0</course>
  <speed>0.022360679774997897</speed>
  <fix>3d</fix>
</trkpt>
<trkpt lat="40.0713749" lon="-105.229789">
  <ele>1583.0</ele>
  <time>2026-08-28T17:49:19Z</time>
  <course>0.0</course>
  <speed>0.0</speed>
  <fix>3d</fix>
</trkpt>
<trkpt lat="40.0713751" lon="-105.2297889">
  <ele>1582.98</ele>
  <time>2026-08-28T17:49:19Z</time>
  <course>247.0</course>
  <speed>0.022360679774997897</speed>
  <fix>3d</fix>
</trkpt>
<trkpt lat="40.0713749" lon="-105.229789">
  <ele>1583.0</ele>
  <time>2026-08-28T17:49:19Z</time>
  <course>0.0</course>
  <speed>0.0</speed>
  <fix>3d</fix>
</trkpt>
<trkpt lat="40.071375" lon="-105.2297889">
  <ele>1582.99</ele>
  <time>2026-08-28T17:49:19Z</time>
  <course>247.0</course>
  <speed>0.022360679774997897</speed>
  <fix>3d</fix>
</trkpt>
<trkpt lat="40.0713749" lon="-105.229789">
  <ele>1583.0</ele>
  <time>2026-08-28T17:49:19Z</time>
  <course>0.0</course>
  <speed>0.0</speed>
  <fix>3d</fix>
</trkpt>
<trkpt lat="40.0713751" lon="-105.2297889">
  <ele>1582.99</ele>
  <time>2026-08-28T17:49:19Z</time>
  <course>247.0</course>
  <speed>0.022360679774997897</speed>
  <fix>3d</fix>
</trkpt>
<trkpt lat="40.0713749" lon="-105.229789">
  <ele>1583.0</ele>
  <time>2026-08-28T17:49:19Z</time>
  <course>0.0</course>
  <speed>0.0</speed>
  <fix>3d</fix>
</trkpt>
<trkpt lat="40.071375" lon="-105.2297889">
  <ele>1582.99</ele>
  <time>2026-08-28T17:49:19Z</time>
  <course>247.0</course>
  <speed>0.022360679774997897</speed>
  <fix>3d</fix>
</trkpt>
<trkpt lat="40.0713749" lon="-105.229789">
  <ele>1583.0</ele>
  <time>2026-08-28T17:49:19Z</time>
  <course>0.0</course>
  <speed>0.0</speed>
  <fix>3d</fix>
</trkpt>
<trkpt lat="40.0713751" lon="-105.2297889">
  <ele>1582.99</ele>
  <time>2026-08-28T17:49:19Z</time>
  <course>247.0</course>
  <speed>0.022360679774997897</speed>
  <fix>3d</fix>
</trkpt>
<trkpt lat="40.0713749" lon="-105.229789">
  <ele>1583.0</ele>
  <time>2026-08-28T17:49:19Z</time>
  <course>0.0</course>
  <speed>0.0</speed>
  <fix>3d</fix>
</trkpt>
<trkpt lat="40.0713751" lon="-105.2297889">
  <ele>1582.99</ele>
  <time>2026-08-28T17:49:19Z</time>
  <course>247.0</course>
  <speed>0.022360679774997897</speed>
  <fix>3d</fix>
</trkpt>
<trkpt lat="40.0713749" lon="-105.229789">
  <ele>1583.0</ele>
  <time>2026-08-28T17:49:19Z</time>
  <course>0.0</course>
  <speed>0.0</speed>
  <fix>3d</fix>
</trkpt>
<trkpt lat="40.0713751" lon="-105.2297889">
  <ele>1582.99</ele>
  <time>2026-08-28T17:49:19Z</time>
  <course>247.0</course>
  <speed>0.022360679774997897</speed>
  <fix>3d</fix>
</trkpt>
<trkpt lat="40.0713749" lon="-105.229789">
  <ele>1583.0</ele>
  <time>2026-08-28T17:49:19Z</time>
  <course>0.0</course>
  <speed>0.0</speed>
  <fix>3d</fix>
</trkpt>
<trkpt lat="40.0713751" lon="-105.2297889">
  <ele>1583.0</ele>
  <time>2026-08-28T17:49:19Z</time>
  <course>247.0</course>
  <speed>0.022360679774997897</speed>
  <fix>3d</fix>
</trkpt>
<trkpt lat="40.0713749" lon="-105.229789">
  <ele>1583.0</ele>
  <time>2026-08-28T17:49:19Z</time>
  <course>0.0</course>
  <speed>0.0</speed>
  <fix>3d</fix>
</trkpt>
<trkpt lat="40.0713751" lon="-105.2297889">
  <ele>1583.0</ele>
  <time>2026-08-28T17:49:19Z</time>
  <course>247.0</course>
  <speed>0.022360679774997897</speed>
  <fix>3d</fix>
</trkpt>
<trkpt lat="40.0713749" lon="-105.229789">
  <ele>1583.0</ele>
  <time>2026-08-28T17:49:19Z</time>
  <course>0.0</course>
  <speed>0.0</speed>
  <fix>3d</fix>
</trkpt>
<trkpt lat="40.0713751" lon="-105.2297889">
  <ele>1583.0</ele>
  <time>2026-08-28T17:49:19Z</time>
  <course>247.0</course>
  <speed>0.022360679774997897</speed>
  <fix>3d</fix>
</trkpt>
<trkpt lat="40.0713749" lon="-105.229789">
  <ele>1583.0</ele>
  <time>2026-08-28T17:49:19Z</time>
  <course>0.0</course>
  <speed>0.0</speed>
  <fix>3d</fix>
</trkpt>
<trkpt lat="40.0713751" lon="-105.2297889">
  <ele>1583.01</ele>
  <time>2026-08-28T17:49:19Z</time>
  <course>247.0</course>
  <speed>0.022360679774997897</speed>
  <fix>3d</fix>
</trkpt>
<trkpt lat="40.0713749" lon="-105.229789">
  <ele>1583.0</ele>
  <time>2026-08-28T17:49:19Z</time>
  <course>0.0</course>
  <speed>0.0</speed>
  <fix>3d</fix>
</trkpt>
<trkpt lat="40.071375" lon="-105.2297889">
  <ele>1583.01</ele>
  <time>2026-08-28T17:49:19Z</time>
  <course>247.0</course>
  <speed>0.022360679774997897</speed>
  <fix>3d</fix>
</trkpt>
<trkpt lat="40.0713749" lon="-105.229789">
  <ele>1583.0</ele>
  <time>2026-08-28T17:49:19Z</time>
  <course>0.0</course>
  <speed>0.0</speed>
  <fix>3d</fix>
</trkpt>
<trkpt lat="40.0713751" lon="-105.2297889">
  <ele>1583.01</ele>
  <time>2026-08-28T17:49:19Z</time>
  <course>247.0</course>
  <speed>0.022360679774997897</speed>
  <fix>3d</fix>
</trkpt>
<trkpt lat="40.0713749" lon="-105.229789">
  <ele>1583.0</ele>
  <time>2026-08-28T17:49:19Z</time>
  <course>0.0</course>
  <speed>0.0</speed>
  <fix>3d</fix>
</trkpt>
<trkpt lat="40.071375" lon="-105.2297889">
  <ele>1583.02</ele>
  <time>2026-08-28T17:49:19Z</time>
  <course>247.0</course>
  <speed>0.022360679774997897</speed>
  <fix>3d</fix>
</trkpt>
<trkpt lat="40.0713749" lon="-105.229789">
  <ele>1583.0</ele>
  <time>2026-08-28T17:49:19Z</time>
  <course>0.0</course>
  <speed>0.0</speed>
  <fix>3d</fix>
</trkpt>
<trkpt lat="40.0713751" lon="-105.2297889">
  <ele>1583.02</ele>
  <time>2026-08-28T17:49:19Z</time>
  <course>247.0</course>
  <speed>0.022360679774997897</speed>
  <fix>3d</fix>
</trkpt>
<trkpt lat="40.0713749" lon="-105.229789">
  <ele>1583.0</ele>
  <time>2026-08-28T17:49:19Z</time>
  <course>0.0</course>
  <speed>0.0</speed>
  <fix>3d</fix>
</trkpt>
<trkpt lat="40.071375" lon="-105.2297889">
  <ele>1583.02</ele>
  <time>2026-08-28T17:49:19Z</time>
  <course>247.0</course>
  <speed>0.022360679774997897</speed>
  <fix>3d</fix>
</trkpt>
<trkpt lat="40.0713749" lon="-105.229789">
  <ele>1583.0</ele>
  <time>2026-08-28T17:49:19Z</time>
  <course>0.0</course>
  <speed>0.0</speed>
  <fix>3d</fix>
</trkpt>
<trkpt lat="40.0713751" lon="-105.2297889">
  <ele>1583.02</ele>
  <time>2026-08-28T17:49:19Z</time>
  <course>247.0</course>
  <speed>0.022360679774997897</speed>
  <fix>3d</fix>
</trkpt>
<trkpt lat="40.0713749" lon="-105.229789">
  <ele>1583.0</ele>
  <time>2026-08-28T17:49:19Z</time>
  <course>0.0</course>
  <speed>0.0</speed>
  <fix>3d</fix>
</trkpt>
<trkpt lat="40.071375" lon="-105.2297889">
  <ele>1583.02</ele>
  <time>2026-08-28T17:49:19Z</time>
  <course>247.0</course>
  <speed>0.022360679774997897</speed>
  <fix>3d</fix>
</trkpt>
<trkpt lat="40.0713749" lon="-105.229789">
  <ele>1583.0</ele>
  <time>2026-08-28T17:49:19Z</time>
  <course>0.0</course>
  <speed>0.0</speed>
  <fix>3d</fix>
</trkpt>
<trkpt lat="40.0713751" lon="-105.2297889">
  <ele>1583.03</ele>
  <time>2026-08-28T17:49:19Z</time>
  <course>247.0</course>
  <speed>0.022360679774997897</speed>
  <fix>3d</fix>
</trkpt>
<trkpt lat="40.0713749" lon="-105.229789">
  <ele>1583.0</ele>
  <time>2026-08-28T17:49:19Z</time>
  <course>0.0</course>
  <speed>0.0</speed>
  <fix>3d</fix>
</trkpt>
<trkpt lat="40.071375" lon="-105.2297889">
  <ele>1583.03</ele>
  <time>2026-08-28T17:49:19Z</time>
  <course>247.0</course>
  <speed>0.022360679774997897</speed>
  <fix>3d</fix>
</trkpt>
<trkpt lat="40.0713749" lon="-105.229789">
  <ele>1583.0</ele>
  <time>2026-08-28T17:49:19Z</time>
  <course>0.0</course>
  <speed>0.0</speed>
  <fix>3d</fix>
</trkpt>
<trkpt lat="40.0713751" lon="-105.2297889">
  <ele>1583.04</ele>
  <time>2026-08-28T17:49:19Z</time>
  <course>247.0</course>
  <speed>0.022360679774997897</speed>
  <fix>3d</fix>
</trkpt>
<trkpt lat="40.0713749" lon="-105.229789">
  <ele>1583.0</ele>
  <time>2026-08-28T17:49:19Z</time>
  <course>0.0</course>
  <speed>0.0</speed>
  <fix>3d</fix>
</trkpt>
<trkpt lat="40.071375" lon="-105.2297889">
  <ele>1583.04</ele>
  <time>2026-08-28T17:49:19Z</time>
  <course>247.0</course>
  <speed>0.022360679774997897</speed>
  <fix>3d</fix>
</trkpt>
<trkpt lat="40.0713749" lon="-105.229789">
  <ele>1583.0</ele>
  <time>2026-08-28T17:49:19Z</time>
  <course>0.0</course>
  <speed>0.0</speed>
  <fix>3d</fix>
</trkpt>
<trkpt lat="40.0713751" lon="-105.2297889">
  <ele>1583.05</ele>
  <time>2026-08-28T17:49:19Z</time>
  <course>247.0</course>
  <speed>0.022360679774997897</speed>
  <fix>3d</fix>
</trkpt>
<trkpt lat="40.0713749" lon="-105.229789">
  <ele>1583.0</ele>
  <time>2026-08-28T17:49:19Z</time>
  <course>0.0</course>
  <speed>0.0</speed>
  <fix>3d</fix>
</trkpt>
<trkpt lat="40.071375" lon="-105.2297889">
  <ele>1583.06</ele>
  <time>2026-08-28T17:49:19Z</time>
  <course>247.0</course>
  <speed>0.022360679774997897</speed>
  <fix>3d</fix>
</trkpt>
<trkpt lat="40.0713749" lon="-105.229789">
  <ele>1583.0</ele>
  <time>2026-08-28T17:49:19Z</time>
  <course>0.0</course>
  <speed>0.0</speed>
  <fix>3d</fix>
</trkpt>
<trkpt lat="40.0713751" lon="-105.2297889">
  <ele>1583.07</ele>
  <time>2026-08-28T17:49:19Z</time>
  <course>246.99</course>
  <speed>0.022360679774997897</speed>
  <fix>3d</fix>
</trkpt>
<trkpt lat="40.0713749" lon="-105.229789">
  <ele>1583.0</ele>
  <time>2026-08-28T17:49:19Z</time>
  <course>0.0</course>
  <speed>0.0</speed>
  <fix>3d</fix>
</trkpt>
<trkpt lat="40.0713751" lon="-105.2297889">
  <ele>1583.07</ele>
  <time>2026-08-28T17:49:19Z</time>
  <course>246.99</course>
  <speed>0.022360679774997897</speed>
  <fix>3d</fix>
</trkpt>
<trkpt lat="40.0713749" lon="-105.229789">
  <ele>1583.0</ele>
  <time>2026-08-28T17:49:19Z</time>
  <course>0.0</course>
  <speed>0.0</speed>
  <fix>3d</fix>
</trkpt>
<trkpt lat="40.0713751" lon="-105.2297889">
  <ele>1583.07</ele>
  <time>2026-08-28T17:49:19Z</time>
  <course>246.99</course>
  <speed>0.022360679774997897</speed>
  <fix>3d</fix>
</trkpt>
<trkpt lat="40.0713749" lon="-105.229789">
  <ele>1583.0</ele>
  <time>2026-08-28T17:49:19Z</time>
  <course>0.0</course>
  <speed>0.0</speed>
  <fix>3d</fix>
</trkpt>
<trkpt lat="40.0713751" lon="-105.2297889">
  <ele>1583.07</ele>
  <time>2026-08-28T17:49:19Z</time>
  <course>246.99</course>
  <speed>0.022360679774997897</speed>
  <fix>3d</fix>
</trkpt>
<trkpt lat="40.0713749" lon="-105.229789">
  <ele>1583.0</ele>
  <time>2026-08-28T17:49:19Z</time>
  <course>0.0</course>
  <speed>0.0</speed>
  <fix>3d</fix>
</trkpt>
<trkpt lat="40.0713751" lon="-105.2297889">
  <ele>1583.07</ele>
  <time>2026-08-28T17:49:19Z</time>
  <course>246.99</course>
  <speed>0.022360679774997897</speed>
  <fix>3d</fix>
</trkpt>
<trkpt lat="40.0713749" lon="-105.229789">
  <ele>1583.0</ele>
  <time>2026-08-28T17:49:19Z</time>
  <course>0.0</course>
  <speed>0.0</speed>
  <fix>3d</fix>
</trkpt>
<trkpt lat="40.0713751" lon="-105.2297889">
  <ele>1583.07</ele>
  <time>2026-08-28T17:49:19Z</time>
  <course>246.99</course>
  <speed>0.022360679774997897</speed>
  <fix>3d</fix>
</trkpt>
<trkpt lat="40.0713749" lon="-105.229789">
  <ele>1583.0</ele>
  <time>2026-08-28T17:49:19Z</time>
  <course>0.0</course>
  <speed>0.0</speed>
  <fix>3d</fix>
</trkpt>
<trkpt lat="40.0713751" lon="-105.2297889">
  <ele>1583.06</ele>
  <time>2026-08-28T17:49:19Z</time>
  <course>246.99</course>
  <speed>0.022360679774997897</speed>
  <fix>3d</fix>
</trkpt>
<trkpt lat="40.0713749" lon="-105.229789">
  <ele>1583.0</ele>
  <time>2026-08-28T17:49:19Z</time>
  <course>0.0</course>
  <speed>0.0</speed>
  <fix>3d</fix>
</trkpt>
<trkpt lat="40.0713751" lon="-105.2297889">
  <ele>1583.06</ele>
  <time>2026-08-28T17:49:19Z</time>
  <course>246.99</course>
  <speed>0.022360679774997897</speed>
  <fix>3d</fix>
</trkpt>
<trkpt lat="40.0713749" lon="-105.229789">
  <ele>1583.0</ele>
  <time>2026-08-28T17:49:19Z</time>
  <course>0.0</course>
  <speed>0.0</speed>
  <fix>3d</fix>
</trkpt>
<trkpt lat="40.0713751" lon="-105.2297889">
  <ele>1583.06</ele>
  <time>2026-08-28T17:49:19Z</time>
  <course>246.99</course>
  <speed>0.022360679774997897</speed>
  <fix>3d</fix>
</trkpt>
<trkpt lat="40.0713749" lon="-105.229789">
  <ele>1583.0</ele>
  <time>2026-08-28T17:49:19Z</time>
  <course>0.0</course>
  <speed>0.0</speed>
  <fix>3d</fix>
</trkpt>
<trkpt lat="40.071375" lon="-105.2297889">
  <ele>1583.05</ele>
  <time>2026-08-28T17:49:19Z</time>
  <course>246.99</course>
  <speed>0.022360679774997897</speed>
  <fix>3d</fix>
</trkpt>
<trkpt lat="40.0713749" lon="-105.229789">
  <ele>1583.0</ele>
  <time>2026-08-28T17:49:19Z</time>
  <course>0.0</course>
  <speed>0.0</speed>
  <fix>3d</fix>
</trkpt>
<trkpt lat="40.0713751" lon="-105.2297889">
  <ele>1583.05</ele>
  <time>2026-08-28T17:49:19Z</time>
  <course>246.99</course>
  <speed>0.022360679774997897</speed>
  <fix>3d</fix>
</trkpt>
<trkpt lat="40.0713749" lon="-105.229789">
  <ele>1583.0</ele>
  <time>2026-08-28T17:49:19Z</time>
  <course>0.0</course>
  <speed>0.0</speed>
  <fix>3d</fix>
</trkpt>
<trkpt lat="40.071375" lon="-105.2297889">
  <ele>1583.04</ele>
  <time>2026-08-28T17:49:19Z</time>
  <course>246.99</course>
  <speed>0.022360679774997897</speed>
  <fix>3d</fix>
</trkpt>
<trkpt lat="40.0713749" lon="-105.229789">
  <ele>1583.0</ele>
  <time>2026-08-28T17:49:19Z</time>
  <course>0.0</course>
  <speed>0.0</speed>
  <fix>3d</fix>
</trkpt>
<trkpt lat="40.0713751" lon="-105.2297889">
  <ele>1583.04</ele>
  <time>2026-08-28T17:49:19Z</time>
  <course>246.99</course>
  <speed>0.022360679774997897</speed>
  <fix>3d</fix>
</trkpt>
<trkpt lat="40.0713749" lon="-105.229789">
  <ele>1583.0</ele>
  <time>2026-08-28T17:49:19Z</time>
  <course>0.0</course>
  <speed>0.0</speed>
  <fix>3d</fix>
</trkpt>
<trkpt lat="40.071375" lon="-105.2297889">
  <ele>1583.03</ele>
  <time>2026-08-28T17:49:19Z</time>
  <course>246.99</course>
  <speed>0.022360679774997897</speed>
  <fix>3d</fix>
</trkpt>
<trkpt lat="40.0713749" lon="-105.229789">
  <ele>1583.0</ele>
  <time>2026-08-28T17:49:19Z</time>
  <course>0.0</course>
  <speed>0.0</speed>
  <fix>3d</fix>
</trkpt>
<trkpt lat="40.0713751" lon="-105.2297889">
  <ele>1583.03</ele>
  <time>2026-08-28T17:49:19Z</time>
  <course>246.99</course>
  <speed>0.022360679774997897</speed>
  <fix>3d</fix>
</trkpt>
<trkpt lat="40.0713749" lon="-105.229789">
  <ele>1583.0</ele>
  <time>2026-08-28T17:49:19Z</time>
  <course>0.0</course>
  <speed>0.0</speed>
  <fix>3d</fix>
</trkpt>
<trkpt lat="40.071375" lon="-105.2297889">
  <ele>1583.02</ele>
  <time>2026-08-28T17:49:19Z</time>
  <course>246.99</course>
  <speed>0.022360679774997897</speed>
  <fix>3d</fix>
</trkpt>
<trkpt lat="40.0713749" lon="-105.229789">
  <ele>1583.0</ele>
  <time>2026-08-28T17:49:19Z</time>
  <course>0.0</course>
  <speed>0.0</speed>
  <fix>3d</fix>
</trkpt>
<trkpt lat="40.0713751" lon="-105.2297889">
  <ele>1583.01</ele>
  <time>2026-08-28T17:49:19Z</time>
  <course>246.99</course>
  <speed>0.022360679774997897</speed>
  <fix>3d</fix>
</trkpt>
<trkpt lat="40.0713749" lon="-105.229789">
  <ele>1583.0</ele>
  <time>2026-08-28T17:49:19Z</time>
  <course>0.0</course>
  <speed>0.0</speed>
  <fix>3d</fix>
</trkpt>
<trkpt lat="40.071375" lon="-105.2297889">
  <ele>1583.01</ele>
  <time>2026-08-28T17:49:19Z</time>
  <course>246.99</course>
  <speed>0.022360679774997897</speed>
  <fix>3d</fix>
</trkpt>
<trkpt lat="40.0713749" lon="-105.229789">
  <ele>1583.0</ele>
  <time>2026-08-28T17:49:19Z</time>
  <course>0.0</course>
  <speed>0.0</speed>
  <fix>3d</fix>
</trkpt>
<trkpt lat="40.0713751" lon="-105.2297889">
  <ele>1583.0</ele>
  <time>2026-08-28T17:49:19Z</time>
  <course>246.99</course>
  <speed>0.022360679774997897</speed>
  <fix>3d</fix>
</trkpt>
<trkpt lat="40.0713749" lon="-105.229789">
  <ele>1583.0</ele>
  <time>2026-08-28T17:49:19Z</time>
  <course>0.0</course>
  <speed>0.0</speed>
  <fix>3d</fix>
</trkpt>
<trkpt lat="40.0713751" lon="-105.2297889">
  <ele>1582.99</ele>
  <time>2026-08-28T17:49:19Z</time>
  <course>246.99</course>
  <speed>0.022360679774997897</speed>
  <fix>3d</fix>
</trkpt>
<trkpt lat="40.0713749" lon="-105.229789">
  <ele>1583.0</ele>
  <time>2026-08-28T17:49:19Z</time>
  <course>0.0</course>
  <speed>0.0</speed>
  <fix>3d</fix>
</trkpt>
<trkpt lat="40.0713751" lon="-105.2297889">
  <ele>1582.99</ele>
  <time>2026-08-28T17:49:19Z</time>
  <course>246.99</course>
  <speed>0.022360679774997897</speed>
  <fix>3d</fix>
</trkpt>
<trkpt lat="40.0713749" lon="-105.229789">
  <ele>1583.0</ele>
  <time>2026-08-28T17:49:19Z</time>
  <course>0.0</course>
  <speed>0.0</speed>
  <fix>3d</fix>
</trkpt>
<trkpt lat="40.0713751" lon="-105.2297889">
  <ele>1582.99</ele>
  <time>2026-08-28T17:49:19Z</time>
  <course>246.99</course>
  <speed>0.022360679774997897</speed>
  <fix>3d</fix>
</trkpt>
<trkpt lat="40.0713749" lon="-105.229789">
  <ele>1583.0</ele>
  <time>2026-08-28T17:49:19Z</time>
  <course>0.0</course>
  <speed>0.0</speed>
  <fix>3d</fix>
</trkpt>
<trkpt lat="40.0713751" lon="-105.2297889">
  <ele>1582.99</ele>
  <time>2026-08-28T17:49:19Z</time>
  <course>246.99</course>
  <speed>0.022360679774997897</speed>
  <fix>3d</fix>
</trkpt>
<trkpt lat="40.0713749" lon="-105.229789">
  <ele>1583.0</ele>
  <time>2026-08-28T17:49:19Z</time>
  <course>0.0</course>
  <speed>0.0</speed>
  <fix>3d</fix>
</trkpt>
<trkpt lat="40.0713751" lon="-105.2297889">
  <ele>1583.0</ele>
  <time>2026-08-28T17:49:19Z</time>
  <course>246.99</course>
  <speed>0.022360679774997897</speed>
  <fix>3d</fix>
</trkpt>
<trkpt lat="40.0713749" lon="-105.229789">
  <ele>1583.0</ele>
  <time>2026-08-28T17:49:19Z</time>
  <course>0.0</course>
  <speed>0.0</speed>
  <fix>3d</fix>
</trkpt>
<trkpt lat="40.0713751" lon="-105.2297889">
  <ele>1583.0</ele>
  <time>2026-08-28T17:49:19Z</time>
  <course>246.99</course>
  <speed>0.022360679774997897</speed>
  <fix>3d</fix>
</trkpt>
<trkpt lat="40.0713749" lon="-105.229789">
  <ele>1583.0</ele>
  <time>2026-08-28T17:49:19Z</time>
  <course>0.0</course>
  <speed>0.0</speed>
  <fix>3d</fix>
</trkpt>
<trkpt lat="40.0713751" lon="-105.2297889">
  <ele>1583.01</ele>
  <time>2026-08-28T17:49:19Z</time>
  <course>246.99</course>
  <speed>0.022360679774997897</speed>
  <fix>3d</fix>
</trkpt>
<trkpt lat="40.0713749" lon="-105.229789">
  <ele>1583.0</ele>
  <time>2026-08-28T17:49:19Z</time>
  <course>0.0</course>
  <speed>0.0</speed>
  <fix>3d</fix>
</trkpt>
<trkpt lat="40.0713751" lon="-105.2297889">
  <ele>1583.01</ele>
  <time>2026-08-28T17:49:19Z</time>
  <course>246.99</course>
  <speed>0.022360679774997897</speed>
  <fix>3d</fix>
</trkpt>
<trkpt lat="40.0713749" lon="-105.229789">
  <ele>1583.0</ele>
  <time>2026-08-28T17:49:19Z</time>
  <course>0.0</course>
  <speed>0.0</speed>
  <fix>3d</fix>
</trkpt>
<trkpt lat="40.0713751" lon="-105.2297889">
  <ele>1583.02</ele>
  <time>2026-08-28T17:49:19Z</time>
  <course>246.99</course>
  <speed>0.022360679774997897</speed>
  <fix>3d</fix>
</trkpt>
<trkpt lat="40.0713749" lon="-105.229789">
  <ele>1583.0</ele>
  <time>2026-08-28T17:49:19Z</time>
  <course>0.0</course>
  <speed>0.0</speed>
  <fix>3d</fix>
</trkpt>
<trkpt lat="40.0713751" lon="-105.2297889">
  <ele>1583.03</ele>
  <time>2026-08-28T17:49:19Z</time>
  <course>246.99</course>
  <speed>0.022360679774997897</speed>
  <fix>3d</fix>
</trkpt>
<trkpt lat="40.0713749" lon="-105.229789">
  <ele>1583.0</ele>
  <time>2026-08-28T17:49:19Z</time>
  <course>0.0</course>
  <speed>0.0</speed>
  <fix>3d</fix>
</trkpt>
<trkpt lat="40.0713751" lon="-105.2297889">
  <ele>1583.03</ele>
  <time>2026-08-28T17:49:19Z</time>
  <course>246.99</course>
  <speed>0.022360679774997897</speed>
  <fix>3d</fix>
</trkpt>
<trkpt lat="40.0713749" lon="-105.229789">
  <ele>1583.0</ele>
  <time>2026-08-28T17:49:19Z</time>
  <course>0.0</course>
  <speed>0.0</speed>
  <fix>3d</fix>
</trkpt>
<trkpt lat="40.0713751" lon="-105.2297889">
  <ele>1583.03</ele>
  <time>2026-08-28T17:49:19Z</time>
  <course>246.99</course>
  <speed>0.022360679774997897</speed>
  <fix>3d</fix>
</trkpt>
<trkpt lat="40.0713749" lon="-105.229789">
  <ele>1583.0</ele>
  <time>2026-08-28T17:49:19Z</time>
  <course>0.0</course>
  <speed>0.0</speed>
  <fix>3d</fix>
</trkpt>
<trkpt lat="40.0713751" lon="-105.2297889">
  <ele>1583.03</ele>
  <time>2026-08-28T17:49:19Z</time>
  <course>246.99</course>
  <speed>0.022360679774997897</speed>
  <fix>3d</fix>
</trkpt>
<trkpt lat="40.0713749" lon="-105.229789">
  <ele>1583.0</ele>
  <time>2026-08-28T17:49:19Z</time>
  <course>0.0</course>
  <speed>0.0</speed>
  <fix>3d</fix>
</trkpt>
<trkpt lat="40.0713751" lon="-105.2297889">
  <ele>1583.03</ele>
  <time>2026-08-28T17:49:19Z</time>
  <course>246.99</course>
  <speed>0.022360679774997897</speed>
  <fix>3d</fix>
</trkpt>
<trkpt lat="40.0713749" lon="-105.229789">
  <ele>1583.0</ele>
  <time>2026-08-28T17:49:19Z</time>
  <course>0.0</course>
  <speed>0.0</speed>
  <fix>3d</fix>
</trkpt>
<trkpt lat="40.0713751" lon="-105.2297889">
  <ele>1583.02</ele>
  <time>2026-08-28T17:49:19Z</time>
  <course>246.99</course>
  <speed>0.022360679774997897</speed>
  <fix>3d</fix>
</trkpt>
<trkpt lat="40.0713749" lon="-105.229789">
  <ele>1583.0</ele>
  <time>2026-08-28T17:49:19Z</time>
  <course>0.0</course>
  <speed>0.0</speed>
  <fix>3d</fix>
</trkpt>
<trkpt lat="40.0713751" lon="-105.2297889">
  <ele>1583.01</ele>
  <time>2026-08-28T17:49:19Z</time>
  <course>246.99</course>
  <speed>0.022360679774997897</speed>
  <fix>3d</fix>
</trkpt>
<trkpt lat="40.0713749" lon="-105.229789">
  <ele>1583.0</ele>
  <time>2026-08-28T17:49:19Z</time>
  <course>0.0</course>
  <speed>0.0</speed>
  <fix>3d</fix>
</trkpt>
<trkpt lat="40.0713751" lon="-105.2297889">
  <ele>1583.01</ele>
  <time>2026-08-28T17:49:19Z</time>
  <course>246.99</course>
  <speed>0.022360679774997897</speed>
  <fix>3d</fix>
</trkpt>
<trkpt lat="40.0713749" lon="-105.229789">
  <ele>1583.0</ele>
  <time>2026-08-28T17:49:19Z</time>
  <course>0.0</course>
  <speed>0.0</speed>
  <fix>3d</fix>
</trkpt>
<trkpt lat="40.0713751" lon="-105.2297889">
  <ele>1583.0</ele>
  <time>2026-08-28T17:49:19Z</time>
  <course>246.99</course>
  <speed>0.022360679774997897</speed>
  <fix>3d</fix>
</trkpt>
<trkpt lat="40.0713749" lon="-105.229789">
  <ele>1583.0</ele>
  <time>2026-08-28T17:49:19Z</time>
  <course>0.0</course>
  <speed>0.0</speed>
  <fix>3d</fix>
</trkpt>
<trkpt lat="40.0713751" lon="-105.2297889">
  <ele>1583.0</ele>
  <time>2026-08-28T17:49:19Z</time>
  <course>246.99</course>
  <speed>0.022360679774997897</speed>
  <fix>3d</fix>
</trkpt>
<trkpt lat="40.0713749" lon="-105.229789">
  <ele>1583.0</ele>
  <time>2026-08-28T17:49:19Z</time>
  <course>0.0</course>
  <speed>0.0</speed>
  <fix>3d</fix>
</trkpt>
<trkpt lat="40.0713751" lon="-105.2297889">
  <ele>1582.99</ele>
  <time>2026-08-28T17:49:19Z</time>
  <course>246.99</course>
  <speed>0.022360679774997897</speed>
  <fix>3d</fix>
</trkpt>
<trkpt lat="40.0713749" lon="-105.229789">
  <ele>1583.0</ele>
  <time>2026-08-28T17:49:19Z</time>
  <course>0.0</course>
  <speed>0.0</speed>
  <fix>3d</fix>
</trkpt>
<trkpt lat="40.0713751" lon="-105.2297889">
  <ele>1582.98</ele>
  <time>2026-08-28T17:49:19Z</time>
  <course>246.99</course>
  <speed>0.022360679774997897</speed>
  <fix>3d</fix>
</trkpt>
<trkpt lat="40.0713749" lon="-105.229789">
  <ele>1583.0</ele>
  <time>2026-08-28T17:49:19Z</time>
  <course>0.0</course>
  <speed>0.0</speed>
  <fix>3d</fix>
</trkpt>
<trkpt lat="40.0713751" lon="-105.2297889">
  <ele>1582.98</ele>
  <time>2026-08-28T17:49:19Z</time>
  <course>246.99</course>
  <speed>0.022360679774997897</speed>
  <fix>3d</fix>
</trkpt>
<trkpt lat="40.0713749" lon="-105.229789">
  <ele>1583.0</ele>
  <time>2026-08-28T17:49:19Z</time>
  <course>0.0</course>
  <speed>0.0</speed>
  <fix>3d</fix>
</trkpt>
<trkpt lat="40.0713751" lon="-105.2297889">
  <ele>1582.97</ele>
  <time>2026-08-28T17:49:19Z</time>
  <course>246.99</course>
  <speed>0.022360679774997897</speed>
  <fix>3d</fix>
</trkpt>
<trkpt lat="40.0713749" lon="-105.229789">
  <ele>1583.0</ele>
  <time>2026-08-28T17:49:19Z</time>
  <course>0.0</course>
  <speed>0.0</speed>
  <fix>3d</fix>
</trkpt>
<trkpt lat="40.0713751" lon="-105.2297889">
  <ele>1582.97</ele>
  <time>2026-08-28T17:49:19Z</time>
  <course>246.99</course>
  <speed>0.022360679774997897</speed>
  <fix>3d</fix>
</trkpt>
<trkpt lat="40.0713749" lon="-105.229789">
  <ele>1583.0</ele>
  <time>2026-08-28T17:49:19Z</time>
  <course>0.0</course>
  <speed>0.0</speed>
  <fix>3d</fix>
</trkpt>
<trkpt lat="40.0713751" lon="-105.2297889">
  <ele>1582.98</ele>
  <time>2026-08-28T17:49:19Z</time>
  <course>246.99</course>
  <speed>0.022360679774997897</speed>
  <fix>3d</fix>
</trkpt>
<trkpt lat="40.0713749" lon="-105.229789">
  <ele>1583.0</ele>
  <time>2026-08-28T17:49:19Z</time>
  <course>0.0</course>
  <speed>0.0</speed>
  <fix>3d</fix>
</trkpt>
<trkpt lat="40.0713751" lon="-105.2297889">
  <ele>1582.98</ele>
  <time>2026-08-28T17:49:19Z</time>
  <course>246.99</course>
  <speed>0.022360679774997897</speed>
  <fix>3d</fix>
</trkpt>
<trkpt lat="40.0713749" lon="-105.229789">
  <ele>1583.0</ele>
  <time>2026-08-28T17:49:19Z</time>
  <course>0.0</course>
  <speed>0.0</speed>
  <fix>3d</fix>
</trkpt>
<trkpt lat="40.0713751" lon="-105.2297889">
  <ele>1582.98</ele>
  <time>2026-08-28T17:49:19Z</time>
  <course>246.99</course>
  <speed>0.022360679774997897</speed>
  <fix>3d</fix>
</trkpt>
<trkpt lat="40.0713749" lon="-105.229789">
  <ele>1583.0</ele>
  <time>2026-08-28T17:49:19Z</time>
  <course>0.0</course>
  <speed>0.0</speed>
  <fix>3d</fix>
</trkpt>
<trkpt lat="40.0713751" lon="-105.2297889">
  <ele>1582.99</ele>
  <time>2026-08-28T17:49:19Z</time>
  <course>246.99</course>
  <speed>0.022360679774997897</speed>
  <fix>3d</fix>
</trkpt>
<trkpt lat="40.0713749" lon="-105.229789">
  <ele>1583.0</ele>
  <time>2026-08-28T17:49:19Z</time>
  <course>0.0</course>
  <speed>0.0</speed>
  <fix>3d</fix>
</trkpt>
<trkpt lat="40.0713751" lon="-105.2297889">
  <ele>1583.0</ele>
  <time>2026-08-28T17:49:19Z</time>
  <course>246.99</course>
  <speed>0.022360679774997897</speed>
  <fix>3d</fix>
</trkpt>
<trkpt lat="40.0713749" lon="-105.229789">
  <ele>1583.0</ele>
  <time>2026-08-28T17:49:19Z</time>
  <course>0.0</course>
  <speed>0.0</speed>
  <fix>3d</fix>
</trkpt>
<trkpt lat="40.0713751" lon="-105.2297889">
  <ele>1583.0</ele>
  <time>2026-08-28T17:49:19Z</time>
  <course>246.99</course>
  <speed>0.022360679774997897</speed>
  <fix>3d</fix>
</trkpt>
<trkpt lat="40.0713749" lon="-105.229789">
  <ele>1583.0</ele>
  <time>2026-08-28T17:49:19Z</time>
  <course>0.0</course>
  <speed>0.0</speed>
  <fix>3d</fix>
</trkpt>
<trkpt lat="40.0713751" lon="-105.2297889">
  <ele>1583.01</ele>
  <time>2026-08-28T17:49:19Z</time>
  <course>246.99</course>
  <speed>0.022360679774997897</speed>
  <fix>3d</fix>
</trkpt>
<trkpt lat="40.0713749" lon="-105.229789">
  <ele>1583.0</ele>
  <time>2026-08-28T17:49:19Z</time>
  <course>0.0</course>
  <speed>0.0</speed>
  <fix>3d</fix>
</trkpt>
<trkpt lat="40.0713751" lon="-105.2297889">
  <ele>1583.02</ele>
  <time>2026-08-28T17:49:19Z</time>
  <course>246.99</course>
  <speed>0.022360679774997897</speed>
  <fix>3d</fix>
</trkpt>
<trkpt lat="40.0713749" lon="-105.229789">
  <ele>1583.0</ele>
  <time>2026-08-28T17:49:19Z</time>
  <course>0.0</course>
  <speed>0.0</speed>
  <fix>3d</fix>
</trkpt>
<trkpt lat="40.071375" lon="-105.2297889">
  <ele>1583.02</ele>
  <time>2026-08-28T17:49:19Z</time>
  <course>246.99</course>
  <speed>0.022360679774997897</speed>
  <fix>3d</fix>
</trkpt>
<trkpt lat="40.0713749" lon="-105.229789">
  <ele>1583.0</ele>
  <time>2026-08-28T17:49:19Z</time>
  <course>0.0</course>
  <speed>0.0</speed>
  <fix>3d</fix>
</trkpt>
<trkpt lat="40.0713751" lon="-105.2297889">
  <ele>1583.03</ele>
  <time>2026-08-28T17:49:19Z</time>
  <course>246.99</course>
  <speed>0.022360679774997897</speed>
  <fix>3d</fix>
</trkpt>
<trkpt lat="40.0713749" lon="-105.229789">
  <ele>1583.0</ele>
  <time>2026-08-28T17:49:19Z</time>
  <course>0.0</course>
  <speed>0.0</speed>
  <fix>3d</fix>
</trkpt>
<trkpt lat="40.071375" lon="-105.2297889">
  <ele>1583.03</ele>
  <time>2026-08-28T17:49:19Z</time>
  <course>246.99</course>
  <speed>0.022360679774997897</speed>
  <fix>3d</fix>
</trkpt>
<trkpt lat="40.0713749" lon="-105.229789">
  <ele>1583.0</ele>
  <time>2026-08-28T17:49:19Z</time>
  <course>0.0</course>
  <speed>0.0</speed>
  <fix>3d</fix>
</trkpt>
<trkpt lat="40.0713751" lon="-105.2297889">
  <ele>1583.04</ele>
  <time>2026-08-28T17:49:19Z</time>
  <course>246.99</course>
  <speed>0.022360679774997897</speed>
  <fix>3d</fix>
</trkpt>
<trkpt lat="40.0713749" lon="-105.229789">
  <ele>1583.0</ele>
  <time>2026-08-28T17:49:19Z</time>
  <course>0.0</course>
  <speed>0.0</speed>
  <fix>3d</fix>
</trkpt>
<trkpt lat="40.071375" lon="-105.2297889">
  <ele>1583.04</ele>
  <time>2026-08-28T17:49:19Z</time>
  <course>246.99</course>
  <speed>0.022360679774997897</speed>
  <fix>3d</fix>
</trkpt>
<trkpt lat="40.0713749" lon="-105.229789">
  <ele>1583.0</ele>
  <time>2026-08-28T17:49:19Z</time>
  <course>0.0</course>
  <speed>0.0</speed>
  <fix>3d</fix>
</trkpt>
<trkpt lat="40.0713751" lon="-105.2297889">
  <ele>1583.04</ele>
  <time>2026-08-28T17:49:19Z</time>
  <course>246.99</course>
  <speed>0.022360679774997897</speed>
  <fix>3d</fix>
</trkpt>
<trkpt lat="40.0713749" lon="-105.229789">
  <ele>1583.0</ele>
  <time>2026-08-28T17:49:19Z</time>
  <course>0.0</course>
  <speed>0.0</speed>
  <fix>3d</fix>
</trkpt>
<trkpt lat="40.071375" lon="-105.2297889">
  <ele>1583.04</ele>
  <time>2026-08-28T17:49:19Z</time>
  <course>246.99</course>
  <speed>0.022360679774997897</speed>
  <fix>3d</fix>
</trkpt>
<trkpt lat="40.0713749" lon="-105.229789">
  <ele>1583.0</ele>
  <time>2026-08-28T17:49:19Z</time>
  <course>0.0</course>
  <speed>0.0</speed>
  <fix>3d</fix>
</trkpt>
<trkpt lat="40.0713751" lon="-105.2297889">
  <ele>1583.05</ele>
  <time>2026-08-28T17:49:19Z</time>
  <course>246.99</course>
  <speed>0.022360679774997897</speed>
  <fix>3d</fix>
</trkpt>
<trkpt lat="40.0713749" lon="-105.229789">
  <ele>1583.0</ele>
  <time>2026-08-28T17:49:19Z</time>
  <course>0.0</course>
  <speed>0.0</speed>
  <fix>3d</fix>
</trkpt>
<trkpt lat="40.071375" lon="-105.2297889">
  <ele>1583.05</ele>
  <time>2026-08-28T17:49:19Z</time>
  <course>246.99</course>
  <speed>0.022360679774997897</speed>
  <fix>3d</fix>
</trkpt>
<trkpt lat="40.0713749" lon="-105.229789">
  <ele>1583.0</ele>
  <time>2026-08-28T17:49:19Z</time>
  <course>0.0</course>
  <speed>0.0</speed>
  <fix>3d</fix>
</trkpt>
<trkpt lat="40.0713751" lon="-105.2297889">
  <ele>1583.05</ele>
  <time>2026-08-28T17:49:19Z</time>
  <course>246.99</course>
  <speed>0.022360679774997897</speed>
  <fix>3d</fix>
</trkpt>
<trkpt lat="40.0713749" lon="-105.229789">
  <ele>1583.0</ele>
  <time>2026-08-28T17:49:19Z</time>
  <course>0.0</course>
  <speed>0.0</speed>
  <fix>3d</fix>
</trkpt>
<trkpt lat="40.071375" lon="-105.2297889">
  <ele>1583.05</ele>
  <time>2026-08-28T17:49:19Z</time>
  <course>246.99</course>
  <speed>0.022360679774997897</speed>
  <fix>3d</fix>
</trkpt>
<trkpt lat="40.0713749" lon="-105.229789">
  <ele>1583.0</ele>
  <time>2026-08-28T17:49:19Z</time>
  <course>0.0</course>
  <speed>0.0</speed>
  <fix>3d</fix>
</trkpt>
<trkpt lat="40.0713751" lon="-105.2297889">
  <ele>1583.05</ele>
  <time>2026-08-28T17:49:19Z</time>
  <course>246.99</course>
  <speed>0.022360679774997897</speed>
  <fix>3d</fix>
</trkpt>
<trkpt lat="40.0713749" lon="-105.229789">
  <ele>1583.0</ele>
  <time>2026-08-28T17:49:19Z</time>
  <course>0.0</course>
  <speed>0.0</speed>
  <fix>3d</fix>
</trkpt>
<trkpt lat="40.0713751" lon="-105.2297889">
  <ele>1583.05</ele>
  <time>2026-08-28T17:49:19Z</time>
  <course>246.99</course>
  <speed>0.022360679774997897</speed>
  <fix>3d</fix>
</trkpt>
<trkpt lat="40.0713749" lon="-105.229789">
  <ele>1583.0</ele>
  <time>2026-08-28T17:49:19Z</time>
  <course>0.0</course>
  <speed>0.0</speed>
  <fix>3d</fix>
</trkpt>
<trkpt lat="40.0713751" lon="-105.2297889">
  <ele>1583.05</ele>
  <time>2026-08-28T17:49:19Z</time>
  <course>246.99</course>
  <speed>0.022360679774997897</speed>
  <fix>3d</fix>
</trkpt>
<trkpt lat="40.0713749" lon="-105.229789">
  <ele>1583.0</ele>
  <time>2026-08-28T17:49:19Z</time>
  <course>0.0</course>
  <speed>0.0</speed>
  <fix>3d</fix>
</trkpt>
<trkpt lat="40.0713751" lon="-105.2297889">
  <ele>1583.05</ele>
  <time>2026-08-28T17:49:19Z</time>
  <course>246.99</course>
  <speed>0.022360679774997897</speed>
  <fix>3d</fix>
</trkpt>
<trkpt lat="40.0713749" lon="-105.229789">
  <ele>1583.0</ele>
  <time>2026-08-28T17:49:19Z</time>
  <course>0.0</course>
  <speed>0.0</speed>
  <fix>3d</fix>
</trkpt>
<trkpt lat="40.0713751" lon="-105.2297889">
  <ele>1583.05</ele>
  <time>2026-08-28T17:49:19Z</time>
  <course>246.99</course>
  <speed>0.022360679774997897</speed>
  <fix>3d</fix>
</trkpt>
<trkpt lat="40.0713749" lon="-105.229789">
  <ele>1583.0</ele>
  <time>2026-08-28T17:49:19Z</time>
  <course>0.0</course>
  <speed>0.0</speed>
  <fix>3d</fix>
</trkpt>
<trkpt lat="40.0713751" lon="-105.2297889">
  <ele>1583.05</ele>
  <time>2026-08-28T17:49:19Z</time>
  <course>246.99</course>
  <speed>0.022360679774997897</speed>
  <fix>3d</fix>
</trkpt>
<trkpt lat="40.0713749" lon="-105.229789">
  <ele>1583.0</ele>
  <time>2026-08-28T17:49:19Z</time>
  <course>0.0</course>
  <speed>0.0</speed>
  <fix>3d</fix>
</trkpt>
<trkpt lat="40.0713751" lon="-105.2297889">
  <ele>1583.05</ele>
  <time>2026-08-28T17:49:19Z</time>
  <course>246.99</course>
  <speed>0.022360679774997897</speed>
  <fix>3d</fix>
</trkpt>
<trkpt lat="40.0713749" lon="-105.229789">
  <ele>1583.0</ele>
  <time>2026-08-28T17:49:19Z</time>
  <course>0.0</course>
  <speed>0.0</speed>
  <fix>3d</fix>
</trkpt>
<trkpt lat="40.0713751" lon="-105.2297889">
  <ele>1583.05</ele>
  <time>2026-08-28T17:49:19Z</time>
  <course>246.99</course>
  <speed>0.022360679774997897</speed>
  <fix>3d</fix>
</trkpt>
<trkpt lat="40.0713749" lon="-105.229789">
  <ele>1583.0</ele>
  <time>2026-08-28T17:49:19Z</time>
  <course>0.0</course>
  <speed>0.0</speed>
  <fix>3d</fix>
</trkpt>
<trkpt lat="40.0713751" lon="-105.2297889">
  <ele>1583.04</ele>
  <time>2026-08-28T17:49:19Z</time>
  <course>246.99</course>
  <speed>0.022360679774997897</speed>
  <fix>3d</fix>
</trkpt>
<trkpt lat="40.0713749" lon="-105.229789">
  <ele>1583.0</ele>
  <time>2026-08-28T17:49:19Z</time>
  <course>0.0</course>
  <speed>0.0</speed>
  <fix>3d</fix>
</trkpt>
<trkpt lat="40.071375" lon="-105.2297889">
  <ele>1583.05</ele>
  <time>2026-08-28T17:49:19Z</time>
  <course>246.99</course>
  <speed>0.022360679774997897</speed>
  <fix>3d</fix>
</trkpt>
<trkpt lat="40.0713749" lon="-105.229789">
  <ele>1583.0</ele>
  <time>2026-08-28T17:49:19Z</time>
  <course>0.0</course>
  <speed>0.0</speed>
  <fix>3d</fix>
</trkpt>
<trkpt lat="40.0713751" lon="-105.2297889">
  <ele>1583.05</ele>
  <time>2026-08-28T17:49:19Z</time>
  <course>246.99</course>
  <speed>0.022360679774997897</speed>
  <fix>3d</fix>
</trkpt>
<trkpt lat="40.0713749" lon="-105.229789">
  <ele>1583.0</ele>
  <time>2026-08-28T17:49:19Z</time>
  <course>0.0</course>
  <speed>0.0</speed>
  <fix>3d</fix>
</trkpt>
<trkpt lat="40.071375" lon="-105.2297889">
  <ele>1583.05</ele>
  <time>2026-08-28T17:49:19Z</time>
  <course>246.99</course>
  <speed>0.022360679774997897</speed>
  <fix>3d</fix>
</trkpt>
<trkpt lat="40.0713749" lon="-105.229789">
  <ele>1583.0</ele>
  <time>2026-08-28T17:49:19Z</time>
  <course>0.0</course>
  <speed>0.0</speed>
  <fix>3d</fix>
</trkpt>
<trkpt lat="40.071375" lon="-105.2297889">
  <ele>1583.06</ele>
  <time>2026-08-28T17:49:19Z</time>
  <course>246.99</course>
  <speed>0.022360679774997897</speed>
  <fix>3d</fix>
</trkpt>
<trkpt lat="40.0713749" lon="-105.229789">
  <ele>1583.0</ele>
  <time>2026-08-28T17:49:19Z</time>
  <course>0.0</course>
  <speed>0.0</speed>
  <fix>3d</fix>
</trkpt>
<trkpt lat="40.071375" lon="-105.2297889">
  <ele>1583.06</ele>
  <time>2026-08-28T17:49:19Z</time>
  <course>246.99</course>
  <speed>0.022360679774997897</speed>
  <fix>3d</fix>
</trkpt>
<trkpt lat="40.0713749" lon="-105.229789">
  <ele>1583.0</ele>
  <time>2026-08-28T17:49:19Z</time>
  <course>0.0</course>
  <speed>0.0</speed>
  <fix>3d</fix>
</trkpt>
<trkpt lat="40.071375" lon="-105.2297889">
  <ele>1583.06</ele>
  <time>2026-08-28T17:49:19Z</time>
  <course>246.99</course>
  <speed>0.022360679774997897</speed>
  <fix>3d</fix>
</trkpt>
<trkpt lat="40.0713749" lon="-105.229789">
  <ele>1583.0</ele>
  <time>2026-08-28T17:49:19Z</time>
  <course>0.0</course>
  <speed>0.0</speed>
  <fix>3d</fix>
</trkpt>
<trkpt lat="40.071375" lon="-105.2297889">
  <ele>1583.06</ele>
  <time>2026-08-28T17:49:19Z</time>
  <course>246.99</course>
  <speed>0.022360679774997897</speed>
  <fix>3d</fix>
</trkpt>
<trkpt lat="40.0713749" lon="-105.229789">
  <ele>1583.0</ele>
  <time>2026-08-28T17:49:19Z</time>
  <course>0.0</course>
  <speed>0.0</speed>
  <fix>3d</fix>
</trkpt>
<trkpt lat="40.0713751" lon="-105.2297889">
  <ele>1583.06</ele>
  <time>2026-08-28T17:49:19Z</time>
  <course>246.99</course>
  <speed>0.022360679774997897</speed>
  <fix>3d</fix>
</trkpt>
<trkpt lat="40.0713749" lon="-105.229789">
  <ele>1583.0</ele>
  <time>2026-08-28T17:49:19Z</time>
  <course>0.0</course>
  <speed>0.0</speed>
  <fix>3d</fix>
</trkpt>
<trkpt lat="40.071375" lon="-105.2297889">
  <ele>1583.07</ele>
  <time>2026-08-28T17:49:19Z</time>
  <course>246.99</course>
  <speed>0.022360679774997897</speed>
  <fix>3d</fix>
</trkpt>
<trkpt lat="40.0713749" lon="-105.229789">
  <ele>1583.0</ele>
  <time>2026-08-28T17:49:19Z</time>
  <course>0.0</course>
  <speed>0.0</speed>
  <fix>3d</fix>
</trkpt>
<trkpt lat="40.0713751" lon="-105.2297889">
  <ele>1583.07</ele>
  <time>2026-08-28T17:49:19Z</time>
  <course>246.99</course>
  <speed>0.022360679774997897</speed>
  <fix>3d</fix>
</trkpt>
<trkpt lat="40.0713749" lon="-105.229789">
  <ele>1583.0</ele>
  <time>2026-08-28T17:49:19Z</time>
  <course>0.0</course>
  <speed>0.0</speed>
  <fix>3d</fix>
</trkpt>
<trkpt lat="40.071375" lon="-105.2297889">
  <ele>1583.08</ele>
  <time>2026-08-28T17:49:19Z</time>
  <course>246.99</course>
  <speed>0.022360679774997897</speed>
  <fix>3d</fix>
</trkpt>
<trkpt lat="40.0713749" lon="-105.229789">
  <ele>1583.0</ele>
  <time>2026-08-28T17:49:19Z</time>
  <course>0.0</course>
  <speed>0.0</speed>
  <fix>3d</fix>
</trkpt>
<trkpt lat="40.0713751" lon="-105.2297889">
  <ele>1583.08</ele>
  <time>2026-08-28T17:49:19Z</time>
  <course>246.99</course>
  <speed>0.022360679774997897</speed>
  <fix>3d</fix>
</trkpt>
<trkpt lat="40.0713749" lon="-105.229789">
  <ele>1583.0</ele>
  <time>2026-08-28T17:49:19Z</time>
  <course>0.0</course>
  <speed>0.0</speed>
  <fix>3d</fix>
</trkpt>
<trkpt lat="40.071375" lon="-105.2297889">
  <ele>1583.09</ele>
  <time>2026-08-28T17:49:19Z</time>
  <course>246.99</course>
  <speed>0.022360679774997897</speed>
  <fix>3d</fix>
</trkpt>
<trkpt lat="40.0713749" lon="-105.229789">
  <ele>1583.0</ele>
  <time>2026-08-28T17:49:19Z</time>
  <course>0.0</course>
  <speed>0.0</speed>
  <fix>3d</fix>
</trkpt>
<trkpt lat="40.0713751" lon="-105.2297889">
  <ele>1583.09</ele>
  <time>2026-08-28T17:49:19Z</time>
  <course>246.99</course>
  <speed>0.022360679774997897</speed>
  <fix>3d</fix>
</trkpt>
<trkpt lat="40.0713749" lon="-105.229789">
  <ele>1583.0</ele>
  <time>2026-08-28T17:49:19Z</time>
  <course>0.0</course>
  <speed>0.0</speed>
  <fix>3d</fix>
</trkpt>
<trkpt lat="40.071375" lon="-105.2297889">
  <ele>1583.1</ele>
  <time>2026-08-28T17:49:19Z</time>
  <course>246.99</course>
  <speed>0.022360679774997897</speed>
  <fix>3d</fix>
</trkpt>
<trkpt lat="40.0713749" lon="-105.229789">
  <ele>1583.0</ele>
  <time>2026-08-28T17:49:19Z</time>
  <course>0.0</course>
  <speed>0.0</speed>
  <fix>3d</fix>
</trkpt>
<trkpt lat="40.0713751" lon="-105.2297889">
  <ele>1583.1</ele>
  <time>2026-08-28T17:49:19Z</time>
  <course>246.99</course>
  <speed>0.022360679774997897</speed>
  <fix>3d</fix>
</trkpt>
<trkpt lat="40.0713749" lon="-105.229789">
  <ele>1583.0</ele>
  <time>2026-08-28T17:49:19Z</time>
  <course>0.0</course>
  <speed>0.0</speed>
  <fix>3d</fix>
</trkpt>
<trkpt lat="40.071375" lon="-105.2297889">
  <ele>1583.11</ele>
  <time>2026-08-28T17:49:19Z</time>
  <course>246.99</course>
  <speed>0.022360679774997897</speed>
  <fix>3d</fix>
</trkpt>
<trkpt lat="40.0713749" lon="-105.229789">
  <ele>1583.0</ele>
  <time>2026-08-28T17:49:19Z</time>
  <course>0.0</course>
  <speed>0.0</speed>
  <fix>3d</fix>
</trkpt>
<trkpt lat="40.0713751" lon="-105.2297889">
  <ele>1583.12</ele>
  <time>2026-08-28T17:49:19Z</time>
  <course>246.99</course>
  <speed>0.022360679774997897</speed>
  <fix>3d</fix>
</trkpt>
<trkpt lat="40.0713749" lon="-105.229789">
  <ele>1583.0</ele>
  <time>2026-08-28T17:49:19Z</time>
  <course>0.0</course>
  <speed>0.0</speed>
  <fix>3d</fix>
</trkpt>
<trkpt lat="40.071375" lon="-105.2297889">
  <ele>1583.12</ele>
  <time>2026-08-28T17:49:19Z</time>
  <course>246.99</course>
  <speed>0.022360679774997897</speed>
  <fix>3d</fix>
</trkpt>
<trkpt lat="40.0713749" lon="-105.229789">
  <ele>1583.0</ele>
  <time>2026-08-28T17:49:19Z</time>
  <course>0.0</course>
  <speed>0.0</speed>
  <fix>3d</fix>
</trkpt>
<trkpt lat="40.0713751" lon="-105.2297889">
  <ele>1583.12</ele>
  <time>2026-08-28T17:49:19Z</time>
  <course>246.99</course>
  <speed>0.022360679774997897</speed>
  <fix>3d</fix>
</trkpt>
<trkpt lat="40.0713749" lon="-105.229789">
  <ele>1583.0</ele>
  <time>2026-08-28T17:49:19Z</time>
  <course>0.0</course>
  <speed>0.0</speed>
  <fix>3d</fix>
</trkpt>
<trkpt lat="40.071375" lon="-105.2297889">
  <ele>1583.13</ele>
  <time>2026-08-28T17:49:19Z</time>
  <course>246.99</course>
  <speed>0.022360679774997897</speed>
  <fix>3d</fix>
</trkpt>
<trkpt lat="40.0713749" lon="-105.229789">
  <ele>1583.0</ele>
  <time>2026-08-28T17:49:19Z</time>
  <course>0.0</course>
  <speed>0.0</speed>
  <fix>3d</fix>
</trkpt>
<trkpt lat="40.0713751" lon="-105.2297889">
  <ele>1583.13</ele>
  <time>2026-08-28T17:49:19Z</time>
  <course>246.99</course>
  <speed>0.022360679774997897</speed>
  <fix>3d</fix>
</trkpt>
<trkpt lat="40.0713749" lon="-105.229789">
  <ele>1583.0</ele>
  <time>2026-08-28T17:49:19Z</time>
  <course>0.0</course>
  <speed>0.0</speed>
  <fix>3d</fix>
</trkpt>
<trkpt lat="40.071375" lon="-105.2297889">
  <ele>1583.13</ele>
  <time>2026-08-28T17:49:19Z</time>
  <course>246.99</course>
  <speed>0.022360679774997897</speed>
  <fix>3d</fix>
</trkpt>
<trkpt lat="40.0713749" lon="-105.229789">
  <ele>1583.0</ele>
  <time>2026-08-28T17:49:19Z</time>
  <course>0.0</course>
  <speed>0.0</speed>
  <fix>3d</fix>
</trkpt>
<trkpt lat="40.071375" lon="-105.2297889">
  <ele>1583.12</ele>
  <time>2026-08-28T17:49:19Z</time>
  <course>246.99</course>
  <speed>0.022360679774997897</speed>
  <fix>3d</fix>
</trkpt>
<trkpt lat="40.0713749" lon="-105.229789">
  <ele>1583.0</ele>
  <time>2026-08-28T17:49:19Z</time>
  <course>0.0</course>
  <speed>0.0</speed>
  <fix>3d</fix>
</trkpt>
<trkpt lat="40.071375" lon="-105.2297889">
  <ele>1583.13</ele>
  <time>2026-08-28T17:49:19Z</time>
  <course>246.99</course>
  <speed>0.022360679774997897</speed>
  <fix>3d</fix>
</trkpt>
<trkpt lat="40.0713749" lon="-105.229789">
  <ele>1583.0</ele>
  <time>2026-08-28T17:49:19Z</time>
  <course>0.0</course>
  <speed>0.0</speed>
  <fix>3d</fix>
</trkpt>
<trkpt lat="40.071375" lon="-105.2297889">
  <ele>1583.13</ele>
  <time>2026-08-28T17:49:19Z</time>
  <course>246.99</course>
  <speed>0.022360679774997897</speed>
  <fix>3d</fix>
</trkpt>
<trkpt lat="40.0713749" lon="-105.229789">
  <ele>1583.0</ele>
  <time>2026-08-28T17:49:19Z</time>
  <course>0.0</course>
  <speed>0.0</speed>
  <fix>3d</fix>
</trkpt>
<trkpt lat="40.071375" lon="-105.2297889">
  <ele>1583.13</ele>
  <time>2026-08-28T17:49:19Z</time>
  <course>246.99</course>
  <speed>0.022360679774997897</speed>
  <fix>3d</fix>
</trkpt>
<trkpt lat="40.0713749" lon="-105.229789">
  <ele>1583.0</ele>
  <time>2026-08-28T17:49:19Z</time>
  <course>0.0</course>
  <speed>0.0</speed>
  <fix>3d</fix>
</trkpt>
<trkpt lat="40.071375" lon="-105.2297889">
  <ele>1583.12</ele>
  <time>2026-08-28T17:49:19Z</time>
  <course>246.99</course>
  <speed>0.022360679774997897</speed>
  <fix>3d</fix>
</trkpt>
<trkpt lat="40.0713749" lon="-105.229789">
  <ele>1583.0</ele>
  <time>2026-08-28T17:49:19Z</time>
  <course>0.0</course>
  <speed>0.0</speed>
  <fix>3d</fix>
</trkpt>
<trkpt lat="40.071375" lon="-105.2297889">
  <ele>1583.12</ele>
  <time>2026-08-28T17:49:19Z</time>
  <course>246.99</course>
  <speed>0.022360679774997897</speed>
  <fix>3d</fix>
</trkpt>
<trkpt lat="40.0713749" lon="-105.229789">
  <ele>1583.0</ele>
  <time>2026-08-28T17:49:19Z</time>
  <course>0.0</course>
  <speed>0.0</speed>
  <fix>3d</fix>
</trkpt>
<trkpt lat="40.071375" lon="-105.2297889">
  <ele>1583.12</ele>
  <time>2026-08-28T17:49:19Z</time>
  <course>246.99</course>
  <speed>0.022360679774997897</speed>
  <fix>3d</fix>
</trkpt>
<trkpt lat="40.0713749" lon="-105.229789">
  <ele>1583.0</ele>
  <time>2026-08-28T17:49:19Z</time>
  <course>0.0</course>
  <speed>0.0</speed>
  <fix>3d</fix>
</trkpt>
<trkpt lat="40.071375" lon="-105.2297889">
  <ele>1583.12</ele>
  <time>2026-08-28T17:49:19Z</time>
  <course>246.99</course>
  <speed>0.022360679774997897</speed>
  <fix>3d</fix>
</trkpt>
<trkpt lat="40.0713749" lon="-105.229789">
  <ele>1583.0</ele>
  <time>2026-08-28T17:49:19Z</time>
  <course>0.0</course>
  <speed>0.0</speed>
  <fix>3d</fix>
</trkpt>
<trkpt lat="40.071375" lon="-105.2297889">
  <ele>1583.11</ele>
  <time>2026-08-28T17:49:19Z</time>
  <course>246.99</course>
  <speed>0.022360679774997897</speed>
  <fix>3d</fix>
</trkpt>
<trkpt lat="40.0713749" lon="-105.229789">
  <ele>1583.0</ele>
  <time>2026-08-28T17:49:19Z</time>
  <course>0.0</course>
  <speed>0.0</speed>
  <fix>3d</fix>
</trkpt>
<trkpt lat="40.071375" lon="-105.2297889">
  <ele>1583.1</ele>
  <time>2026-08-28T17:49:19Z</time>
  <course>246.99</course>
  <speed>0.022360679774997897</speed>
  <fix>3d</fix>
</trkpt>
<trkpt lat="40.0713749" lon="-105.229789">
  <ele>1583.0</ele>
  <time>2026-08-28T17:49:19Z</time>
  <course>0.0</course>
  <speed>0.0</speed>
  <fix>3d</fix>
</trkpt>
<trkpt lat="40.071375" lon="-105.2297889">
  <ele>1583.1</ele>
  <time>2026-08-28T17:49:19Z</time>
  <course>246.99</course>
  <speed>0.022360679774997897</speed>
  <fix>3d</fix>
</trkpt>
<trkpt lat="40.0713749" lon="-105.229789">
  <ele>1583.0</ele>
  <time>2026-08-28T17:49:19Z</time>
  <course>0.0</course>
  <speed>0.0</speed>
  <fix>3d</fix>
</trkpt>
<trkpt lat="40.071375" lon="-105.2297889">
  <ele>1583.09</ele>
  <time>2026-08-28T17:49:19Z</time>
  <course>246.99</course>
  <speed>0.022360679774997897</speed>
  <fix>3d</fix>
</trkpt>
<trkpt lat="40.0713749" lon="-105.229789">
  <ele>1583.0</ele>
  <time>2026-08-28T17:49:19Z</time>
  <course>0.0</course>
  <speed>0.0</speed>
  <fix>3d</fix>
</trkpt>
<trkpt lat="40.0713751" lon="-105.2297889">
  <ele>1583.08</ele>
  <time>2026-08-28T17:49:19Z</time>
  <course>246.99</course>
  <speed>0.022360679774997897</speed>
  <fix>3d</fix>
</trkpt>
<trkpt lat="40.0713749" lon="-105.229789">
  <ele>1583.0</ele>
  <time>2026-08-28T17:49:19Z</time>
  <course>0.0</course>
  <speed>0.0</speed>
  <fix>3d</fix>
</trkpt>
<trkpt lat="40.071375" lon="-105.2297889">
  <ele>1583.07</ele>
  <time>2026-08-28T17:49:19Z</time>
  <course>246.99</course>
  <speed>0.022360679774997897</speed>
  <fix>3d</fix>
</trkpt>
<trkpt lat="40.0713749" lon="-105.229789">
  <ele>1583.0</ele>
  <time>2026-08-28T17:49:19Z</time>
  <course>0.0</course>
  <speed>0.0</speed>
  <fix>3d</fix>
</trkpt>
<trkpt lat="40.0713751" lon="-105.2297889">
  <ele>1583.06</ele>
  <time>2026-08-28T17:49:19Z</time>
  <course>246.99</course>
  <speed>0.022360679774997897</speed>
  <fix>3d</fix>
</trkpt>
<trkpt lat="40.0713749" lon="-105.229789">
  <ele>1583.0</ele>
  <time>2026-08-28T17:49:19Z</time>
  <course>0.0</course>
  <speed>0.0</speed>
  <fix>3d</fix>
</trkpt>
<trkpt lat="40.071375" lon="-105.2297889">
  <ele>1583.05</ele>
  <time>2026-08-28T17:49:19Z</time>
  <course>246.99</course>
  <speed>0.022360679774997897</speed>
  <fix>3d</fix>
</trkpt>
<trkpt lat="40.0713749" lon="-105.229789">
  <ele>1583.0</ele>
  <time>2026-08-28T17:49:19Z</time>
  <course>0.0</course>
  <speed>0.0</speed>
  <fix>3d</fix>
</trkpt>
<trkpt lat="40.0713751" lon="-105.2297889">
  <ele>1583.05</ele>
  <time>2026-08-28T17:49:19Z</time>
  <course>246.99</course>
  <speed>0.022360679774997897</speed>
  <fix>3d</fix>
</trkpt>
<trkpt lat="40.0713749" lon="-105.229789">
  <ele>1583.0</ele>
  <time>2026-08-28T17:49:19Z</time>
  <course>0.0</course>
  <speed>0.0</speed>
  <fix>3d</fix>
</trkpt>
<trkpt lat="40.071375" lon="-105.2297889">
  <ele>1583.04</ele>
  <time>2026-08-28T17:49:19Z</time>
  <course>246.99</course>
  <speed>0.022360679774997897</speed>
  <fix>3d</fix>
</trkpt>
<trkpt lat="40.0713749" lon="-105.229789">
  <ele>1583.0</ele>
  <time>2026-08-28T17:49:19Z</time>
  <course>0.0</course>
  <speed>0.0</speed>
  <fix>3d</fix>
</trkpt>
<trkpt lat="40.0713751" lon="-105.2297889">
  <ele>1583.04</ele>
  <time>2026-08-28T17:49:19Z</time>
  <course>246.99</course>
  <speed>0.022360679774997897</speed>
  <fix>3d</fix>
</trkpt>
<trkpt lat="40.0713749" lon="-105.229789">
  <ele>1583.0</ele>
  <time>2026-08-28T17:49:19Z</time>
  <course>0.0</course>
  <speed>0.0</speed>
  <fix>3d</fix>
</trkpt>
<trkpt lat="40.071375" lon="-105.2297889">
  <ele>1583.04</ele>
  <time>2026-08-28T17:49:19Z</time>
  <course>246.99</course>
  <speed>0.022360679774997897</speed>
  <fix>3d</fix>
</trkpt>
<trkpt lat="40.0713749" lon="-105.229789">
  <ele>1583.0</ele>
  <time>2026-08-28T17:49:19Z</time>
  <course>0.0</course>
  <speed>0.0</speed>
  <fix>3d</fix>
</trkpt>
<trkpt lat="40.071375" lon="-105.2297889">
  <ele>1583.05</ele>
  <time>2026-08-28T17:49:19Z</time>
  <course>246.99</course>
  <speed>0.022360679774997897</speed>
  <fix>3d</fix>
</trkpt>
<trkpt lat="40.0713749" lon="-105.229789">
  <ele>1583.0</ele>
  <time>2026-08-28T17:49:19Z</time>
  <course>0.0</course>
  <speed>0.0</speed>
  <fix>3d</fix>
</trkpt>
<trkpt lat="40.071375" lon="-105.2297889">
  <ele>1583.05</ele>
  <time>2026-08-28T17:49:19Z</time>
  <course>246.99</course>
  <speed>0.022360679774997897</speed>
  <fix>3d</fix>
</trkpt>
<trkpt lat="40.0713749" lon="-105.229789">
  <ele>1583.0</ele>
  <time>2026-08-28T17:49:19Z</time>
  <course>0.0</course>
  <speed>0.0</speed>
  <fix>3d</fix>
</trkpt>
<trkpt lat="40.071375" lon="-105.2297889">
  <ele>1583.05</ele>
  <time>2026-08-28T17:49:19Z</time>
  <course>246.99</course>
  <speed>0.022360679774997897</speed>
  <fix>3d</fix>
</trkpt>
<trkpt lat="40.0713749" lon="-105.229789">
  <ele>1583.0</ele>
  <time>2026-08-28T17:49:19Z</time>
  <course>0.0</course>
  <speed>0.0</speed>
  <fix>3d</fix>
</trkpt>
<trkpt lat="40.071375" lon="-105.2297889">
  <ele>1583.05</ele>
  <time>2026-08-28T17:49:19Z</time>
  <course>246.99</course>
  <speed>0.022360679774997897</speed>
  <fix>3d</fix>
</trkpt>
<trkpt lat="40.0713749" lon="-105.229789">
  <ele>1583.0</ele>
  <time>2026-08-28T17:49:19Z</time>
  <course>0.0</course>
  <speed>0.0</speed>
  <fix>3d</fix>
</trkpt>
<trkpt lat="40.071375" lon="-105.2297889">
  <ele>1583.06</ele>
  <time>2026-08-28T17:49:19Z</time>
  <course>246.99</course>
  <speed>0.022360679774997897</speed>
  <fix>3d</fix>
</trkpt>
<trkpt lat="40.0713749" lon="-105.229789">
  <ele>1583.0</ele>
  <time>2026-08-28T17:49:19Z</time>
  <course>0.0</course>
  <speed>0.0</speed>
  <fix>3d</fix>
</trkpt>
<trkpt lat="40.071375" lon="-105.2297889">
  <ele>1583.06</ele>
  <time>2026-08-28T17:49:19Z</time>
  <course>246.99</course>
  <speed>0.022360679774997897</speed>
  <fix>3d</fix>
</trkpt>
<trkpt lat="40.0713749" lon="-105.229789">
  <ele>1583.0</ele>
  <time>2026-08-28T17:49:19Z</time>
  <course>0.0</course>
  <speed>0.0</speed>
  <fix>3d</fix>
</trkpt>
<trkpt lat="40.071375" lon="-105.2297889">
  <ele>1583.06</ele>
  <time>2026-08-28T17:49:19Z</time>
  <course>246.99</course>
  <speed>0.022360679774997897</speed>
  <fix>3d</fix>
</trkpt>
<trkpt lat="40.0713749" lon="-105.229789">
  <ele>1583.0</ele>
  <time>2026-08-28T17:49:19Z</time>
  <course>0.0</course>
  <speed>0.0</speed>
  <fix>3d</fix>
</trkpt>
<trkpt lat="40.071375" lon="-105.2297889">
  <ele>1583.06</ele>
  <time>2026-08-28T17:49:19Z</time>
  <course>246.99</course>
  <speed>0.022360679774997897</speed>
  <fix>3d</fix>
</trkpt>
<trkpt lat="40.0713749" lon="-105.229789">
  <ele>1583.0</ele>
  <time>2026-08-28T17:49:19Z</time>
  <course>0.0</course>
  <speed>0.0</speed>
  <fix>3d</fix>
</trkpt>
<trkpt lat="40.071375" lon="-105.2297889">
  <ele>1583.06</ele>
  <time>2026-08-28T17:49:19Z</time>
  <course>246.99</course>
  <speed>0.022360679774997897</speed>
  <fix>3d</fix>
</trkpt>
<trkpt lat="40.0713749" lon="-105.229789">
  <ele>1583.0</ele>
  <time>2026-08-28T17:49:19Z</time>
  <course>0.0</course>
  <speed>0.0</speed>
  <fix>3d</fix>
</trkpt>
<trkpt lat="40.071375" lon="-105.2297889">
  <ele>1583.05</ele>
  <time>2026-08-28T17:49:19Z</time>
  <course>246.99</course>
  <speed>0.022360679774997897</speed>
  <fix>3d</fix>
</trkpt>
<trkpt lat="40.0713749" lon="-105.229789">
  <ele>1583.0</ele>
  <time>2026-08-28T17:49:19Z</time>
  <course>0.0</course>
  <speed>0.0</speed>
  <fix>3d</fix>
</trkpt>
<trkpt lat="40.0713751" lon="-105.2297889">
  <ele>1583.05</ele>
  <time>2026-08-28T17:49:19Z</time>
  <course>246.99</course>
  <speed>0.022360679774997897</speed>
  <fix>3d</fix>
</trkpt>
<trkpt lat="40.0713749" lon="-105.229789">
  <ele>1583.0</ele>
  <time>2026-08-28T17:49:19Z</time>
  <course>0.0</course>
  <speed>0.0</speed>
  <fix>3d</fix>
</trkpt>
<trkpt lat="40.071375" lon="-105.2297889">
  <ele>1583.05</ele>
  <time>2026-08-28T17:49:19Z</time>
  <course>246.99</course>
  <speed>0.022360679774997897</speed>
  <fix>3d</fix>
</trkpt>
<trkpt lat="40.0713749" lon="-105.229789">
  <ele>1583.0</ele>
  <time>2026-08-28T17:49:19Z</time>
  <course>0.0</course>
  <speed>0.0</speed>
  <fix>3d</fix>
</trkpt>
<trkpt lat="40.0713751" lon="-105.2297889">
  <ele>1583.05</ele>
  <time>2026-08-28T17:49:19Z</time>
  <course>246.99</course>
  <speed>0.022360679774997897</speed>
  <fix>3d</fix>
</trkpt>
<trkpt lat="40.0713749" lon="-105.229789">
  <ele>1583.0</ele>
  <time>2026-08-28T17:49:19Z</time>
  <course>0.0</course>
  <speed>0.0</speed>
  <fix>3d</fix>
</trkpt>
<trkpt lat="40.071375" lon="-105.2297889">
  <ele>1583.04</ele>
  <time>2026-08-28T17:49:19Z</time>
  <course>246.99</course>
  <speed>0.022360679774997897</speed>
  <fix>3d</fix>
</trkpt>
<trkpt lat="40.0713749" lon="-105.229789">
  <ele>1583.0</ele>
  <time>2026-08-28T17:49:19Z</time>
  <course>0.0</course>
  <speed>0.0</speed>
  <fix>3d</fix>
</trkpt>
<trkpt lat="40.0713751" lon="-105.2297889">
  <ele>1583.04</ele>
  <time>2026-08-28T17:49:19Z</time>
  <course>246.99</course>
  <speed>0.022360679774997897</speed>
  <fix>3d</fix>
</trkpt>
<trkpt lat="40.0713749" lon="-105.229789">
  <ele>1583.0</ele>
  <time>2026-08-28T17:49:19Z</time>
  <course>0.0</course>
  <speed>0.0</speed>
  <fix>3d</fix>
</trkpt>
<trkpt lat="40.0713751" lon="-105.2297889">
  <ele>1583.04</ele>
  <time>2026-08-28T17:49:19Z</time>
  <course>246.99</course>
  <speed>0.022360679774997897</speed>
  <fix>3d</fix>
</trkpt>
<trkpt lat="40.0713749" lon="-105.229789">
  <ele>1583.0</ele>
  <time>2026-08-28T17:49:19Z</time>
  <course>0.0</course>
  <speed>0.0</speed>
  <fix>3d</fix>
</trkpt>
<trkpt lat="40.0713751" lon="-105.2297889">
  <ele>1583.04</ele>
  <time>2026-08-28T17:49:19Z</time>
  <course>246.99</course>
  <speed>0.022360679774997897</speed>
  <fix>3d</fix>
</trkpt>
<trkpt lat="40.0713749" lon="-105.229789">
  <ele>1583.0</ele>
  <time>2026-08-28T17:49:19Z</time>
  <course>0.0</course>
  <speed>0.0</speed>
  <fix>3d</fix>
</trkpt>
<trkpt lat="40.0713751" lon="-105.2297889">
  <ele>1583.04</ele>
  <time>2026-08-28T17:49:19Z</time>
  <course>246.99</course>
  <speed>0.022360679774997897</speed>
  <fix>3d</fix>
</trkpt>
<trkpt lat="40.0713749" lon="-105.229789">
  <ele>1583.0</ele>
  <time>2026-08-28T17:49:19Z</time>
  <course>0.0</course>
  <speed>0.0</speed>
  <fix>3d</fix>
</trkpt>
<trkpt lat="40.0713751" lon="-105.2297889">
  <ele>1583.04</ele>
  <time>2026-08-28T17:49:19Z</time>
  <course>246.99</course>
  <speed>0.022360679774997897</speed>
  <fix>3d</fix>
</trkpt>
<trkpt lat="40.0713749" lon="-105.229789">
  <ele>1583.0</ele>
  <time>2026-08-28T17:49:19Z</time>
  <course>0.0</course>
  <speed>0.0</speed>
  <fix>3d</fix>
</trkpt>
<trkpt lat="40.071375" lon="-105.2297889">
  <ele>1583.04</ele>
  <time>2026-08-28T17:49:19Z</time>
  <course>246.99</course>
  <speed>0.022360679774997897</speed>
  <fix>3d</fix>
</trkpt>
<trkpt lat="40.0713749" lon="-105.229789">
  <ele>1583.0</ele>
  <time>2026-08-28T17:49:19Z</time>
  <course>0.0</course>
  <speed>0.0</speed>
  <fix>3d</fix>
</trkpt>
<trkpt lat="40.0713751" lon="-105.2297889">
  <ele>1583.04</ele>
  <time>2026-08-28T17:49:19Z</time>
  <course>246.99</course>
  <speed>0.022360679774997897</speed>
  <fix>3d</fix>
</trkpt>
<trkpt lat="40.0713749" lon="-105.229789">
  <ele>1583.0</ele>
  <time>2026-08-28T17:49:19Z</time>
  <course>0.0</course>
  <speed>0.0</speed>
  <fix>3d</fix>
</trkpt>
<trkpt lat="40.071375" lon="-105.2297889">
  <ele>1583.03</ele>
  <time>2026-08-28T17:49:19Z</time>
  <course>246.99</course>
  <speed>0.022360679774997897</speed>
  <fix>3d</fix>
</trkpt>
<trkpt lat="40.0713749" lon="-105.229789">
  <ele>1583.0</ele>
  <time>2026-08-28T17:49:19Z</time>
  <course>0.0</course>
  <speed>0.0</speed>
  <fix>3d</fix>
</trkpt>
<trkpt lat="40.0713751" lon="-105.2297889">
  <ele>1583.03</ele>
  <time>2026-08-28T17:49:19Z</time>
  <course>246.99</course>
  <speed>0.022360679774997897</speed>
  <fix>3d</fix>
</trkpt>
<trkpt lat="40.0713749" lon="-105.229789">
  <ele>1583.0</ele>
  <time>2026-08-28T17:49:19Z</time>
  <course>0.0</course>
  <speed>0.0</speed>
  <fix>3d</fix>
</trkpt>
<trkpt lat="40.071375" lon="-105.2297889">
  <ele>1583.03</ele>
  <time>2026-08-28T17:49:19Z</time>
  <course>246.99</course>
  <speed>0.022360679774997897</speed>
  <fix>3d</fix>
</trkpt>
<trkpt lat="40.0713749" lon="-105.229789">
  <ele>1583.0</ele>
  <time>2026-08-28T17:49:19Z</time>
  <course>0.0</course>
  <speed>0.0</speed>
  <fix>3d</fix>
</trkpt>
<trkpt lat="40.0713751" lon="-105.2297889">
  <ele>1583.03</ele>
  <time>2026-08-28T17:49:19Z</time>
  <course>246.99</course>
  <speed>0.022360679774997897</speed>
  <fix>3d</fix>
</trkpt>
<trkpt lat="40.0713749" lon="-105.229789">
  <ele>1583.0</ele>
  <time>2026-08-28T17:49:19Z</time>
  <course>0.0</course>
  <speed>0.0</speed>
  <fix>3d</fix>
</trkpt>
<trkpt lat="40.071375" lon="-105.2297889">
  <ele>1583.03</ele>
  <time>2026-08-28T17:49:20Z</time>
  <course>246.99</course>
  <speed>0.022360679774997897</speed>
  <fix>3d</fix>
</trkpt>
<trkpt lat="40.0713749" lon="-105.229789">
  <ele>1583.0</ele>
  <time>2026-08-28T17:49:20Z</time>
  <course>0.0</course>
  <speed>0.0</speed>
  <fix>3d</fix>
</trkpt>
<trkpt lat="40.0713751" lon="-105.2297889">
  <ele>1583.03</ele>
  <time>2026-08-28T17:49:20Z</time>
  <course>246.99</course>
  <speed>0.022360679774997897</speed>
  <fix>3d</fix>
</trkpt>
<trkpt lat="40.0713749" lon="-105.229789">
  <ele>1583.0</ele>
  <time>2026-08-28T17:49:20Z</time>
  <course>0.0</course>
  <speed>0.0</speed>
  <fix>3d</fix>
</trkpt>
<trkpt lat="40.071375" lon="-105.2297889">
  <ele>1583.04</ele>
  <time>2026-08-28T17:49:20Z</time>
  <course>246.99</course>
  <speed>0.022360679774997897</speed>
  <fix>3d</fix>
</trkpt>
<trkpt lat="40.0713749" lon="-105.229789">
  <ele>1583.0</ele>
  <time>2026-08-28T17:49:20Z</time>
  <course>0.0</course>
  <speed>0.0</speed>
  <fix>3d</fix>
</trkpt>
<trkpt lat="40.0713751" lon="-105.2297889">
  <ele>1583.04</ele>
  <time>2026-08-28T17:49:20Z</time>
  <course>246.99</course>
  <speed>0.022360679774997897</speed>
  <fix>3d</fix>
</trkpt>
<trkpt lat="40.0713749" lon="-105.229789">
  <ele>1583.0</ele>
  <time>2026-08-28T17:49:20Z</time>
  <course>0.0</course>
  <speed>0.0</speed>
  <fix>3d</fix>
</trkpt>
<trkpt lat="40.071375" lon="-105.2297889">
  <ele>1583.05</ele>
  <time>2026-08-28T17:49:20Z</time>
  <course>246.99</course>
  <speed>0.022360679774997897</speed>
  <fix>3d</fix>
</trkpt>
<trkpt lat="40.0713749" lon="-105.229789">
  <ele>1583.0</ele>
  <time>2026-08-28T17:49:20Z</time>
  <course>0.0</course>
  <speed>0.0</speed>
  <fix>3d</fix>
</trkpt>
<trkpt lat="40.0713751" lon="-105.2297889">
  <ele>1583.05</ele>
  <time>2026-08-28T17:49:20Z</time>
  <course>246.99</course>
  <speed>0.022360679774997897</speed>
  <fix>3d</fix>
</trkpt>
<trkpt lat="40.0713749" lon="-105.229789">
  <ele>1583.0</ele>
  <time>2026-08-28T17:49:20Z</time>
  <course>0.0</course>
  <speed>0.0</speed>
  <fix>3d</fix>
</trkpt>
<trkpt lat="40.071375" lon="-105.2297889">
  <ele>1583.06</ele>
  <time>2026-08-28T17:49:20Z</time>
  <course>246.99</course>
  <speed>0.022360679774997897</speed>
  <fix>3d</fix>
</trkpt>
<trkpt lat="40.0713749" lon="-105.229789">
  <ele>1583.0</ele>
  <time>2026-08-28T17:49:20Z</time>
  <course>0.0</course>
  <speed>0.0</speed>
  <fix>3d</fix>
</trkpt>
<trkpt lat="40.0713751" lon="-105.2297889">
  <ele>1583.06</ele>
  <time>2026-08-28T17:49:20Z</time>
  <course>246.99</course>
  <speed>0.022360679774997897</speed>
  <fix>3d</fix>
</trkpt>
<trkpt lat="40.0713749" lon="-105.229789">
  <ele>1583.0</ele>
  <time>2026-08-28T17:49:20Z</time>
  <course>0.0</course>
  <speed>0.0</speed>
  <fix>3d</fix>
</trkpt>
<trkpt lat="40.071375" lon="-105.2297889">
  <ele>1583.06</ele>
  <time>2026-08-28T17:49:20Z</time>
  <course>246.99</course>
  <speed>0.022360679774997897</speed>
  <fix>3d</fix>
</trkpt>
<trkpt lat="40.0713749" lon="-105.229789">
  <ele>1583.0</ele>
  <time>2026-08-28T17:49:20Z</time>
  <course>0.0</course>
  <speed>0.0</speed>
  <fix>3d</fix>
</trkpt>
<trkpt lat="40.0713751" lon="-105.2297889">
  <ele>1583.06</ele>
  <time>2026-08-28T17:49:20Z</time>
  <course>246.99</course>
  <speed>0.022360679774997897</speed>
  <fix>3d</fix>
</trkpt>
<trkpt lat="40.0713749" lon="-105.229789">
  <ele>1583.0</ele>
  <time>2026-08-28T17:49:20Z</time>
  <course>0.0</course>
  <speed>0.0</speed>
  <fix>3d</fix>
</trkpt>
<trkpt lat="40.0713751" lon="-105.2297889">
  <ele>1583.06</ele>
  <time>2026-08-28T17:49:20Z</time>
  <course>246.99</course>
  <speed>0.022360679774997897</speed>
  <fix>3d</fix>
</trkpt>
<trkpt lat="40.0713749" lon="-105.229789">
  <ele>1583.0</ele>
  <time>2026-08-28T17:49:20Z</time>
  <course>0.0</course>
  <speed>0.0</speed>
  <fix>3d</fix>
</trkpt>
<trkpt lat="40.0713751" lon="-105.2297889">
  <ele>1583.06</ele>
  <time>2026-08-28T17:49:20Z</time>
  <course>246.99</course>
  <speed>0.022360679774997897</speed>
  <fix>3d</fix>
</trkpt>
<trkpt lat="40.0713749" lon="-105.229789">
  <ele>1583.0</ele>
  <time>2026-08-28T17:49:20Z</time>
  <course>0.0</course>
  <speed>0.0</speed>
  <fix>3d</fix>
</trkpt>
<trkpt lat="40.0713751" lon="-105.2297889">
  <ele>1583.05</ele>
  <time>2026-08-28T17:49:20Z</time>
  <course>246.99</course>
  <speed>0.022360679774997897</speed>
  <fix>3d</fix>
</trkpt>
<trkpt lat="40.0713749" lon="-105.229789">
  <ele>1583.0</ele>
  <time>2026-08-28T17:49:20Z</time>
  <course>0.0</course>
  <speed>0.0</speed>
  <fix>3d</fix>
</trkpt>
<trkpt lat="40.0713751" lon="-105.2297889">
  <ele>1583.05</ele>
  <time>2026-08-28T17:49:20Z</time>
  <course>246.99</course>
  <speed>0.022360679774997897</speed>
  <fix>3d</fix>
</trkpt>
<trkpt lat="40.0713749" lon="-105.229789">
  <ele>1583.0</ele>
  <time>2026-08-28T17:49:20Z</time>
  <course>0.0</course>
  <speed>0.0</speed>
  <fix>3d</fix>
</trkpt>
<trkpt lat="40.0713751" lon="-105.2297889">
  <ele>1583.05</ele>
  <time>2026-08-28T17:49:20Z</time>
  <course>246.99</course>
  <speed>0.022360679774997897</speed>
  <fix>3d</fix>
</trkpt>
<trkpt lat="40.0713749" lon="-105.229789">
  <ele>1583.0</ele>
  <time>2026-08-28T17:49:20Z</time>
  <course>0.0</course>
  <speed>0.0</speed>
  <fix>3d</fix>
</trkpt>
<trkpt lat="40.0713751" lon="-105.2297889">
  <ele>1583.05</ele>
  <time>2026-08-28T17:49:20Z</time>
  <course>246.99</course>
  <speed>0.022360679774997897</speed>
  <fix>3d</fix>
</trkpt>
<trkpt lat="40.0713749" lon="-105.229789">
  <ele>1583.0</ele>
  <time>2026-08-28T17:49:20Z</time>
  <course>0.0</course>
  <speed>0.0</speed>
  <fix>3d</fix>
</trkpt>
<trkpt lat="40.071375" lon="-105.2297889">
  <ele>1583.05</ele>
  <time>2026-08-28T17:49:20Z</time>
  <course>246.99</course>
  <speed>0.022360679774997897</speed>
  <fix>3d</fix>
</trkpt>
<trkpt lat="40.0713749" lon="-105.229789">
  <ele>1583.0</ele>
  <time>2026-08-28T17:49:20Z</time>
  <course>0.0</course>
  <speed>0.0</speed>
  <fix>3d</fix>
</trkpt>
<trkpt lat="40.0713751" lon="-105.2297889">
  <ele>1583.05</ele>
  <time>2026-08-28T17:49:20Z</time>
  <course>246.99</course>
  <speed>0.022360679774997897</speed>
  <fix>3d</fix>
</trkpt>
<trkpt lat="40.0713749" lon="-105.229789">
  <ele>1583.0</ele>
  <time>2026-08-28T17:49:20Z</time>
  <course>0.0</course>
  <speed>0.0</speed>
  <fix>3d</fix>
</trkpt>
<trkpt lat="40.071375" lon="-105.2297889">
  <ele>1583.05</ele>
  <time>2026-08-28T17:49:20Z</time>
  <course>246.99</course>
  <speed>0.022360679774997897</speed>
  <fix>3d</fix>
</trkpt>
<trkpt lat="40.0713749" lon="-105.229789">
  <ele>1583.0</ele>
  <time>2026-08-28T17:49:20Z</time>
  <course>0.0</course>
  <speed>0.0</speed>
  <fix>3d</fix>
</trkpt>
<trkpt lat="40.0713751" lon="-105.2297889">
  <ele>1583.05</ele>
  <time>2026-08-28T17:49:20Z</time>
  <course>246.99</course>
  <speed>0.022360679774997897</speed>
  <fix>3d</fix>
</trkpt>
<trkpt lat="40.0713749" lon="-105.229789">
  <ele>1583.0</ele>
  <time>2026-08-28T17:49:20Z</time>
  <course>0.0</course>
  <speed>0.0</speed>
  <fix>3d</fix>
</trkpt>
<trkpt lat="40.071375" lon="-105.2297889">
  <ele>1583.06</ele>
  <time>2026-08-28T17:49:20Z</time>
  <course>246.99</course>
  <speed>0.022360679774997897</speed>
  <fix>3d</fix>
</trkpt>
<trkpt lat="40.0713749" lon="-105.229789">
  <ele>1583.0</ele>
  <time>2026-08-28T17:49:20Z</time>
  <course>0.0</course>
  <speed>0.0</speed>
  <fix>3d</fix>
</trkpt>
<trkpt lat="40.0713751" lon="-105.2297889">
  <ele>1583.06</ele>
  <time>2026-08-28T17:49:20Z</time>
  <course>246.99</course>
  <speed>0.022360679774997897</speed>
  <fix>3d</fix>
</trkpt>
<trkpt lat="40.0713749" lon="-105.229789">
  <ele>1583.0</ele>
  <time>2026-08-28T17:49:20Z</time>
  <course>0.0</course>
  <speed>0.0</speed>
  <fix>3d</fix>
</trkpt>
<trkpt lat="40.071375" lon="-105.2297889">
  <ele>1583.06</ele>
  <time>2026-08-28T17:49:20Z</time>
  <course>246.99</course>
  <speed>0.022360679774997897</speed>
  <fix>3d</fix>
</trkpt>
<trkpt lat="40.0713749" lon="-105.229789">
  <ele>1583.0</ele>
  <time>2026-08-28T17:49:20Z</time>
  <course>0.0</course>
  <speed>0.0</speed>
  <fix>3d</fix>
</trkpt>
<trkpt lat="40.0713751" lon="-105.2297889">
  <ele>1583.06</ele>
  <time>2026-08-28T17:49:20Z</time>
  <course>246.99</course>
  <speed>0.022360679774997897</speed>
  <fix>3d</fix>
</trkpt>
<trkpt lat="40.0713749" lon="-105.229789">
  <ele>1583.0</ele>
  <time>2026-08-28T17:49:20Z</time>
  <course>0.0</course>
  <speed>0.0</speed>
  <fix>3d</fix>
</trkpt>
<trkpt lat="40.071375" lon="-105.2297889">
  <ele>1583.05</ele>
  <time>2026-08-28T17:49:20Z</time>
  <course>246.99</course>
  <speed>0.022360679774997897</speed>
  <fix>3d</fix>
</trkpt>
<trkpt lat="40.0713749" lon="-105.229789">
  <ele>1583.0</ele>
  <time>2026-08-28T17:49:20Z</time>
  <course>0.0</course>
  <speed>0.0</speed>
  <fix>3d</fix>
</trkpt>
<trkpt lat="40.0713751" lon="-105.2297889">
  <ele>1583.05</ele>
  <time>2026-08-28T17:49:20Z</time>
  <course>246.99</course>
  <speed>0.022360679774997897</speed>
  <fix>3d</fix>
</trkpt>
<trkpt lat="40.0713749" lon="-105.229789">
  <ele>1583.0</ele>
  <time>2026-08-28T17:49:20Z</time>
  <course>0.0</course>
  <speed>0.0</speed>
  <fix>3d</fix>
</trkpt>
<trkpt lat="40.071375" lon="-105.2297889">
  <ele>1583.05</ele>
  <time>2026-08-28T17:49:20Z</time>
  <course>246.99</course>
  <speed>0.022360679774997897</speed>
  <fix>3d</fix>
</trkpt>
<trkpt lat="40.0713749" lon="-105.229789">
  <ele>1583.0</ele>
  <time>2026-08-28T17:49:20Z</time>
  <course>0.0</course>
  <speed>0.0</speed>
  <fix>3d</fix>
</trkpt>
<trkpt lat="40.0713751" lon="-105.2297889">
  <ele>1583.04</ele>
  <time>2026-08-28T17:49:20Z</time>
  <course>246.99</course>
  <speed>0.022360679774997897</speed>
  <fix>3d</fix>
</trkpt>
<trkpt lat="40.0713749" lon="-105.229789">
  <ele>1583.0</ele>
  <time>2026-08-28T17:49:20Z</time>
  <course>0.0</course>
  <speed>0.0</speed>
  <fix>3d</fix>
</trkpt>
<trkpt lat="40.0713751" lon="-105.2297889">
  <ele>1583.04</ele>
  <time>2026-08-28T17:49:20Z</time>
  <course>246.99</course>
  <speed>0.022360679774997897</speed>
  <fix>3d</fix>
</trkpt>
<trkpt lat="40.0713749" lon="-105.229789">
  <ele>1583.0</ele>
  <time>2026-08-28T17:49:20Z</time>
  <course>0.0</course>
  <speed>0.0</speed>
  <fix>3d</fix>
</trkpt>
<trkpt lat="40.0713751" lon="-105.2297889">
  <ele>1583.03</ele>
  <time>2026-08-28T17:49:20Z</time>
  <course>246.99</course>
  <speed>0.022360679774997897</speed>
  <fix>3d</fix>
</trkpt>
<trkpt lat="40.0713749" lon="-105.229789">
  <ele>1583.0</ele>
  <time>2026-08-28T17:49:20Z</time>
  <course>0.0</course>
  <speed>0.0</speed>
  <fix>3d</fix>
</trkpt>
<trkpt lat="40.0713751" lon="-105.2297889">
  <ele>1583.03</ele>
  <time>2026-08-28T17:49:20Z</time>
  <course>246.99</course>
  <speed>0.022360679774997897</speed>
  <fix>3d</fix>
</trkpt>
<trkpt lat="40.0713749" lon="-105.229789">
  <ele>1583.0</ele>
  <time>2026-08-28T17:49:20Z</time>
  <course>0.0</course>
  <speed>0.0</speed>
  <fix>3d</fix>
</trkpt>
<trkpt lat="40.0713751" lon="-105.2297889">
  <ele>1583.02</ele>
  <time>2026-08-28T17:49:20Z</time>
  <course>246.99</course>
  <speed>0.022360679774997897</speed>
  <fix>3d</fix>
</trkpt>
<trkpt lat="40.0713749" lon="-105.229789">
  <ele>1583.0</ele>
  <time>2026-08-28T17:49:20Z</time>
  <course>0.0</course>
  <speed>0.0</speed>
  <fix>3d</fix>
</trkpt>
<trkpt lat="40.0713751" lon="-105.2297889">
  <ele>1583.01</ele>
  <time>2026-08-28T17:49:20Z</time>
  <course>246.99</course>
  <speed>0.022360679774997897</speed>
  <fix>3d</fix>
</trkpt>
<trkpt lat="40.0713749" lon="-105.229789">
  <ele>1583.0</ele>
  <time>2026-08-28T17:49:20Z</time>
  <course>0.0</course>
  <speed>0.0</speed>
  <fix>3d</fix>
</trkpt>
<trkpt lat="40.0713751" lon="-105.2297889">
  <ele>1583.0</ele>
  <time>2026-08-28T17:49:20Z</time>
  <course>246.99</course>
  <speed>0.022360679774997897</speed>
  <fix>3d</fix>
</trkpt>
<trkpt lat="40.0713749" lon="-105.229789">
  <ele>1583.0</ele>
  <time>2026-08-28T17:49:20Z</time>
  <course>0.0</course>
  <speed>0.0</speed>
  <fix>3d</fix>
</trkpt>
<trkpt lat="40.0713751" lon="-105.2297889">
  <ele>1582.99</ele>
  <time>2026-08-28T17:49:20Z</time>
  <course>246.99</course>
  <speed>0.022360679774997897</speed>
  <fix>3d</fix>
</trkpt>
<trkpt lat="40.0713749" lon="-105.229789">
  <ele>1583.0</ele>
  <time>2026-08-28T17:49:20Z</time>
  <course>0.0</course>
  <speed>0.0</speed>
  <fix>3d</fix>
</trkpt>
<trkpt lat="40.0713751" lon="-105.2297889">
  <ele>1582.98</ele>
  <time>2026-08-28T17:49:20Z</time>
  <course>246.99</course>
  <speed>0.022360679774997897</speed>
  <fix>3d</fix>
</trkpt>
<trkpt lat="40.0713749" lon="-105.229789">
  <ele>1583.0</ele>
  <time>2026-08-28T17:49:20Z</time>
  <course>0.0</course>
  <speed>0.0</speed>
  <fix>3d</fix>
</trkpt>
<trkpt lat="40.0713751" lon="-105.2297889">
  <ele>1582.97</ele>
  <time>2026-08-28T17:49:20Z</time>
  <course>246.99</course>
  <speed>0.022360679774997897</speed>
  <fix>3d</fix>
</trkpt>
<trkpt lat="40.0713749" lon="-105.229789">
  <ele>1583.0</ele>
  <time>2026-08-28T17:49:20Z</time>
  <course>0.0</course>
  <speed>0.0</speed>
  <fix>3d</fix>
</trkpt>
<trkpt lat="40.0713751" lon="-105.2297889">
  <ele>1582.96</ele>
  <time>2026-08-28T17:49:20Z</time>
  <course>246.99</course>
  <speed>0.022360679774997897</speed>
  <fix>3d</fix>
</trkpt>
<trkpt lat="40.0713749" lon="-105.229789">
  <ele>1583.0</ele>
  <time>2026-08-28T17:49:20Z</time>
  <course>0.0</course>
  <speed>0.0</speed>
  <fix>3d</fix>
</trkpt>
<trkpt lat="40.071375" lon="-105.2297889">
  <ele>1582.96</ele>
  <time>2026-08-28T17:49:20Z</time>
  <course>246.99</course>
  <speed>0.022360679774997897</speed>
  <fix>3d</fix>
</trkpt>
<trkpt lat="40.0713749" lon="-105.229789">
  <ele>1583.0</ele>
  <time>2026-08-28T17:49:20Z</time>
  <course>0.0</course>
  <speed>0.0</speed>
  <fix>3d</fix>
</trkpt>
<trkpt lat="40.0713751" lon="-105.2297889">
  <ele>1582.95</ele>
  <time>2026-08-28T17:49:20Z</time>
  <course>246.99</course>
  <speed>0.022360679774997897</speed>
  <fix>3d</fix>
</trkpt>
<trkpt lat="40.0713749" lon="-105.229789">
  <ele>1583.0</ele>
  <time>2026-08-28T17:49:20Z</time>
  <course>0.0</course>
  <speed>0.0</speed>
  <fix>3d</fix>
</trkpt>
<trkpt lat="40.071375" lon="-105.2297889">
  <ele>1582.94</ele>
  <time>2026-08-28T17:49:20Z</time>
  <course>246.99</course>
  <speed>0.022360679774997897</speed>
  <fix>3d</fix>
</trkpt>
<trkpt lat="40.0713749" lon="-105.229789">
  <ele>1583.0</ele>
  <time>2026-08-28T17:49:20Z</time>
  <course>0.0</course>
  <speed>0.0</speed>
  <fix>3d</fix>
</trkpt>
<trkpt lat="40.0713751" lon="-105.2297889">
  <ele>1582.94</ele>
  <time>2026-08-28T17:49:20Z</time>
  <course>246.99</course>
  <speed>0.022360679774997897</speed>
  <fix>3d</fix>
</trkpt>
<trkpt lat="40.0713749" lon="-105.229789">
  <ele>1583.0</ele>
  <time>2026-08-28T17:49:20Z</time>
  <course>0.0</course>
  <speed>0.0</speed>
  <fix>3d</fix>
</trkpt>
<trkpt lat="40.071375" lon="-105.2297889">
  <ele>1582.94</ele>
  <time>2026-08-28T17:49:20Z</time>
  <course>246.98</course>
  <speed>0.022360679774997897</speed>
  <fix>3d</fix>
</trkpt>
<trkpt lat="40.0713749" lon="-105.229789">
  <ele>1583.0</ele>
  <time>2026-08-28T17:49:20Z</time>
  <course>0.0</course>
  <speed>0.0</speed>
  <fix>3d</fix>
</trkpt>
<trkpt lat="40.0713751" lon="-105.2297889">
  <ele>1582.94</ele>
  <time>2026-08-28T17:49:20Z</time>
  <course>246.98</course>
  <speed>0.022360679774997897</speed>
  <fix>3d</fix>
</trkpt>
<trkpt lat="40.0713749" lon="-105.229789">
  <ele>1583.0</ele>
  <time>2026-08-28T17:49:20Z</time>
  <course>0.0</course>
  <speed>0.0</speed>
  <fix>3d</fix>
</trkpt>
<trkpt lat="40.071375" lon="-105.2297889">
  <ele>1582.93</ele>
  <time>2026-08-28T17:49:20Z</time>
  <course>246.99</course>
  <speed>0.022360679774997897</speed>
  <fix>3d</fix>
</trkpt>
<trkpt lat="40.0713749" lon="-105.229789">
  <ele>1583.0</ele>
  <time>2026-08-28T17:49:20Z</time>
  <course>0.0</course>
  <speed>0.0</speed>
  <fix>3d</fix>
</trkpt>
<trkpt lat="40.0713751" lon="-105.2297889">
  <ele>1582.93</ele>
  <time>2026-08-28T17:49:20Z</time>
  <course>246.98</course>
  <speed>0.022360679774997897</speed>
  <fix>3d</fix>
</trkpt>
<trkpt lat="40.0713749" lon="-105.229789">
  <ele>1583.0</ele>
  <time>2026-08-28T17:49:20Z</time>
  <course>0.0</course>
  <speed>0.0</speed>
  <fix>3d</fix>
</trkpt>
<trkpt lat="40.071375" lon="-105.2297889">
  <ele>1582.92</ele>
  <time>2026-08-28T17:49:20Z</time>
  <course>246.98</course>
  <speed>0.022360679774997897</speed>
  <fix>3d</fix>
</trkpt>
<trkpt lat="40.0713749" lon="-105.229789">
  <ele>1583.0</ele>
  <time>2026-08-28T17:49:20Z</time>
  <course>0.0</course>
  <speed>0.0</speed>
  <fix>3d</fix>
</trkpt>
<trkpt lat="40.0713751" lon="-105.2297889">
  <ele>1582.92</ele>
  <time>2026-08-28T17:49:20Z</time>
  <course>246.98</course>
  <speed>0.022360679774997897</speed>
  <fix>3d</fix>
</trkpt>
<trkpt lat="40.0713749" lon="-105.229789">
  <ele>1583.0</ele>
  <time>2026-08-28T17:49:20Z</time>
  <course>0.0</course>
  <speed>0.0</speed>
  <fix>3d</fix>
</trkpt>
<trkpt lat="40.0713751" lon="-105.2297889">
  <ele>1582.92</ele>
  <time>2026-08-28T17:49:20Z</time>
  <course>246.98</course>
  <speed>0.022360679774997897</speed>
  <fix>3d</fix>
</trkpt>
<trkpt lat="40.0713749" lon="-105.229789">
  <ele>1583.0</ele>
  <time>2026-08-28T17:49:20Z</time>
  <course>0.0</course>
  <speed>0.0</speed>
  <fix>3d</fix>
</trkpt>
<trkpt lat="40.0713751" lon="-105.2297889">
  <ele>1582.92</ele>
  <time>2026-08-28T17:49:20Z</time>
  <course>246.98</course>
  <speed>0.022360679774997897</speed>
  <fix>3d</fix>
</trkpt>
<trkpt lat="40.0713749" lon="-105.229789">
  <ele>1583.0</ele>
  <time>2026-08-28T17:49:20Z</time>
  <course>0.0</course>
  <speed>0.0</speed>
  <fix>3d</fix>
</trkpt>
<trkpt lat="40.0713751" lon="-105.2297889">
  <ele>1582.92</ele>
  <time>2026-08-28T17:49:20Z</time>
  <course>246.98</course>
  <speed>0.022360679774997897</speed>
  <fix>3d</fix>
</trkpt>
<trkpt lat="40.0713749" lon="-105.229789">
  <ele>1583.0</ele>
  <time>2026-08-28T17:49:20Z</time>
  <course>0.0</course>
  <speed>0.0</speed>
  <fix>3d</fix>
</trkpt>
<trkpt lat="40.0713751" lon="-105.2297889">
  <ele>1582.92</ele>
  <time>2026-08-28T17:49:20Z</time>
  <course>246.98</course>
  <speed>0.022360679774997897</speed>
  <fix>3d</fix>
</trkpt>
<trkpt lat="40.0713749" lon="-105.229789">
  <ele>1583.0</ele>
  <time>2026-08-28T17:49:20Z</time>
  <course>0.0</course>
  <speed>0.0</speed>
  <fix>3d</fix>
</trkpt>
<trkpt lat="40.0713751" lon="-105.2297889">
  <ele>1582.92</ele>
  <time>2026-08-28T17:49:20Z</time>
  <course>246.98</course>
  <speed>0.022360679774997897</speed>
  <fix>3d</fix>
</trkpt>
<trkpt lat="40.0713749" lon="-105.229789">
  <ele>1583.0</ele>
  <time>2026-08-28T17:49:20Z</time>
  <course>0.0</course>
  <speed>0.0</speed>
  <fix>3d</fix>
</trkpt>
<trkpt lat="40.0713751" lon="-105.2297889">
  <ele>1582.93</ele>
  <time>2026-08-28T17:49:20Z</time>
  <course>246.98</course>
  <speed>0.022360679774997897</speed>
  <fix>3d</fix>
</trkpt>
<trkpt lat="40.0713749" lon="-105.229789">
  <ele>1583.0</ele>
  <time>2026-08-28T17:49:20Z</time>
  <course>0.0</course>
  <speed>0.0</speed>
  <fix>3d</fix>
</trkpt>
<trkpt lat="40.0713751" lon="-105.2297889">
  <ele>1582.94</ele>
  <time>2026-08-28T17:49:20Z</time>
  <course>246.98</course>
  <speed>0.022360679774997897</speed>
  <fix>3d</fix>
</trkpt>
<trkpt lat="40.0713749" lon="-105.229789">
  <ele>1583.0</ele>
  <time>2026-08-28T17:49:20Z</time>
  <course>0.0</course>
  <speed>0.0</speed>
  <fix>3d</fix>
</trkpt>
<trkpt lat="40.0713751" lon="-105.2297889">
  <ele>1582.95</ele>
  <time>2026-08-28T17:49:20Z</time>
  <course>246.98</course>
  <speed>0.022360679774997897</speed>
  <fix>3d</fix>
</trkpt>
<trkpt lat="40.0713749" lon="-105.229789">
  <ele>1583.0</ele>
  <time>2026-08-28T17:49:20Z</time>
  <course>0.0</course>
  <speed>0.0</speed>
  <fix>3d</fix>
</trkpt>
<trkpt lat="40.0713751" lon="-105.2297889">
  <ele>1582.95</ele>
  <time>2026-08-28T17:49:20Z</time>
  <course>246.98</course>
  <speed>0.022360679774997897</speed>
  <fix>3d</fix>
</trkpt>
<trkpt lat="40.0713749" lon="-105.229789">
  <ele>1583.0</ele>
  <time>2026-08-28T17:49:20Z</time>
  <course>0.0</course>
  <speed>0.0</speed>
  <fix>3d</fix>
</trkpt>
<trkpt lat="40.0713751" lon="-105.2297889">
  <ele>1582.96</ele>
  <time>2026-08-28T17:49:20Z</time>
  <course>246.99</course>
  <speed>0.022360679774997897</speed>
  <fix>3d</fix>
</trkpt>
<trkpt lat="40.0713749" lon="-105.229789">
  <ele>1583.0</ele>
  <time>2026-08-28T17:49:20Z</time>
  <course>0.0</course>
  <speed>0.0</speed>
  <fix>3d</fix>
</trkpt>
<trkpt lat="40.0713751" lon="-105.2297889">
  <ele>1582.97</ele>
  <time>2026-08-28T17:49:20Z</time>
  <course>246.98</course>
  <speed>0.022360679774997897</speed>
  <fix>3d</fix>
</trkpt>
<trkpt lat="40.0713749" lon="-105.229789">
  <ele>1583.0</ele>
  <time>2026-08-28T17:49:20Z</time>
  <course>0.0</course>
  <speed>0.0</speed>
  <fix>3d</fix>
</trkpt>
<trkpt lat="40.0713751" lon="-105.2297889">
  <ele>1582.97</ele>
  <time>2026-08-28T17:49:20Z</time>
  <course>246.98</course>
  <speed>0.022360679774997897</speed>
  <fix>3d</fix>
</trkpt>
<trkpt lat="40.0713749" lon="-105.229789">
  <ele>1583.0</ele>
  <time>2026-08-28T17:49:20Z</time>
  <course>0.0</course>
  <speed>0.0</speed>
  <fix>3d</fix>
</trkpt>
<trkpt lat="40.071375" lon="-105.2297889">
  <ele>1582.98</ele>
  <time>2026-08-28T17:49:20Z</time>
  <course>246.98</course>
  <speed>0.022360679774997897</speed>
  <fix>3d</fix>
</trkpt>
<trkpt lat="40.0713749" lon="-105.229789">
  <ele>1583.0</ele>
  <time>2026-08-28T17:49:20Z</time>
  <course>0.0</course>
  <speed>0.0</speed>
  <fix>3d</fix>
</trkpt>
<trkpt lat="40.0713751" lon="-105.2297889">
  <ele>1582.98</ele>
  <time>2026-08-28T17:49:20Z</time>
  <course>246.99</course>
  <speed>0.022360679774997897</speed>
  <fix>3d</fix>
</trkpt>
<trkpt lat="40.0713749" lon="-105.229789">
  <ele>1583.0</ele>
  <time>2026-08-28T17:49:20Z</time>
  <course>0.0</course>
  <speed>0.0</speed>
  <fix>3d</fix>
</trkpt>
<trkpt lat="40.071375" lon="-105.2297889">
  <ele>1582.99</ele>
  <time>2026-08-28T17:49:20Z</time>
  <course>246.99</course>
  <speed>0.022360679774997897</speed>
  <fix>3d</fix>
</trkpt>
<trkpt lat="40.0713749" lon="-105.229789">
  <ele>1583.0</ele>
  <time>2026-08-28T17:49:20Z</time>
  <course>0.0</course>
  <speed>0.0</speed>
  <fix>3d</fix>
</trkpt>
<trkpt lat="40.0713751" lon="-105.2297889">
  <ele>1582.99</ele>
  <time>2026-08-28T17:49:20Z</time>
  <course>246.99</course>
  <speed>0.022360679774997897</speed>
  <fix>3d</fix>
</trkpt>
<trkpt lat="40.0713749" lon="-105.229789">
  <ele>1583.0</ele>
  <time>2026-08-28T17:49:20Z</time>
  <course>0.0</course>
  <speed>0.0</speed>
  <fix>3d</fix>
</trkpt>
<trkpt lat="40.071375" lon="-105.2297889">
  <ele>1582.99</ele>
  <time>2026-08-28T17:49:20Z</time>
  <course>246.99</course>
  <speed>0.022360679774997897</speed>
  <fix>3d</fix>
</trkpt>
<trkpt lat="40.0713749" lon="-105.229789">
  <ele>1583.0</ele>
  <time>2026-08-28T17:49:20Z</time>
  <course>0.0</course>
  <speed>0.0</speed>
  <fix>3d</fix>
</trkpt>
<trkpt lat="40.0713751" lon="-105.2297889">
  <ele>1582.99</ele>
  <time>2026-08-28T17:49:20Z</time>
  <course>246.99</course>
  <speed>0.022360679774997897</speed>
  <fix>3d</fix>
</trkpt>
<trkpt lat="40.0713749" lon="-105.229789">
  <ele>1583.0</ele>
  <time>2026-08-28T17:49:20Z</time>
  <course>0.0</course>
  <speed>0.0</speed>
  <fix>3d</fix>
</trkpt>
<trkpt lat="40.0713751" lon="-105.2297889">
  <ele>1582.99</ele>
  <time>2026-08-28T17:49:20Z</time>
  <course>246.99</course>
  <speed>0.022360679774997897</speed>
  <fix>3d</fix>
</trkpt>
<trkpt lat="40.0713749" lon="-105.229789">
  <ele>1583.0</ele>
  <time>2026-08-28T17:49:20Z</time>
  <course>0.0</course>
  <speed>0.0</speed>
  <fix>3d</fix>
</trkpt>
<trkpt lat="40.0713751" lon="-105.2297889">
  <ele>1582.99</ele>
  <time>2026-08-28T17:49:20Z</time>
  <course>246.99</course>
  <speed>0.022360679774997897</speed>
  <fix>3d</fix>
</trkpt>
<trkpt lat="40.0713749" lon="-105.229789">
  <ele>1583.0</ele>
  <time>2026-08-28T17:49:20Z</time>
  <course>0.0</course>
  <speed>0.0</speed>
  <fix>3d</fix>
</trkpt>
<trkpt lat="40.0713751" lon="-105.2297889">
  <ele>1582.99</ele>
  <time>2026-08-28T17:49:20Z</time>
  <course>246.98</course>
  <speed>0.022360679774997897</speed>
  <fix>3d</fix>
</trkpt>
<trkpt lat="40.0713749" lon="-105.229789">
  <ele>1583.0</ele>
  <time>2026-08-28T17:49:20Z</time>
  <course>0.0</course>
  <speed>0.0</speed>
  <fix>3d</fix>
</trkpt>
<trkpt lat="40.0713751" lon="-105.2297889">
  <ele>1582.99</ele>
  <time>2026-08-28T17:49:20Z</time>
  <course>246.98</course>
  <speed>0.022360679774997897</speed>
  <fix>3d</fix>
</trkpt>
<trkpt lat="40.0713749" lon="-105.229789">
  <ele>1583.0</ele>
  <time>2026-08-28T17:49:20Z</time>
  <course>0.0</course>
  <speed>0.0</speed>
  <fix>3d</fix>
</trkpt>
<trkpt lat="40.0713751" lon="-105.2297889">
  <ele>1583.0</ele>
  <time>2026-08-28T17:49:20Z</time>
  <course>246.98</course>
  <speed>0.022360679774997897</speed>
  <fix>3d</fix>
</trkpt>
<trkpt lat="40.0713749" lon="-105.229789">
  <ele>1583.0</ele>
  <time>2026-08-28T17:49:20Z</time>
  <course>0.0</course>
  <speed>0.0</speed>
  <fix>3d</fix>
</trkpt>
<trkpt lat="40.0713751" lon="-105.2297889">
  <ele>1583.0</ele>
  <time>2026-08-28T17:49:20Z</time>
  <course>246.98</course>
  <speed>0.022360679774997897</speed>
  <fix>3d</fix>
</trkpt>
<trkpt lat="40.0713749" lon="-105.229789">
  <ele>1583.0</ele>
  <time>2026-08-28T17:49:20Z</time>
  <course>0.0</course>
  <speed>0.0</speed>
  <fix>3d</fix>
</trkpt>
<trkpt lat="40.0713751" lon="-105.2297889">
  <ele>1583.0</ele>
  <time>2026-08-28T17:49:20Z</time>
  <course>246.98</course>
  <speed>0.022360679774997897</speed>
  <fix>3d</fix>
</trkpt>
<trkpt lat="40.0713749" lon="-105.229789">
  <ele>1583.0</ele>
  <time>2026-08-28T17:49:20Z</time>
  <course>0.0</course>
  <speed>0.0</speed>
  <fix>3d</fix>
</trkpt>
<trkpt lat="40.0713751" lon="-105.2297889">
  <ele>1583.0</ele>
  <time>2026-08-28T17:49:20Z</time>
  <course>246.98</course>
  <speed>0.022360679774997897</speed>
  <fix>3d</fix>
</trkpt>
<trkpt lat="40.0713749" lon="-105.229789">
  <ele>1583.0</ele>
  <time>2026-08-28T17:49:20Z</time>
  <course>0.0</course>
  <speed>0.0</speed>
  <fix>3d</fix>
</trkpt>
<trkpt lat="40.0713751" lon="-105.2297889">
  <ele>1583.0</ele>
  <time>2026-08-28T17:49:20Z</time>
  <course>246.98</course>
  <speed>0.022360679774997897</speed>
  <fix>3d</fix>
</trkpt>
<trkpt lat="40.0713749" lon="-105.229789">
  <ele>1583.0</ele>
  <time>2026-08-28T17:49:20Z</time>
  <course>0.0</course>
  <speed>0.0</speed>
  <fix>3d</fix>
</trkpt>
<trkpt lat="40.0713751" lon="-105.2297889">
  <ele>1583.0</ele>
  <time>2026-08-28T17:49:20Z</time>
  <course>246.98</course>
  <speed>0.022360679774997897</speed>
  <fix>3d</fix>
</trkpt>
<trkpt lat="40.0713749" lon="-105.229789">
  <ele>1583.0</ele>
  <time>2026-08-28T17:49:20Z</time>
  <course>0.0</course>
  <speed>0.0</speed>
  <fix>3d</fix>
</trkpt>
<trkpt lat="40.0713751" lon="-105.2297889">
  <ele>1583.0</ele>
  <time>2026-08-28T17:49:20Z</time>
  <course>246.98</course>
  <speed>0.022360679774997897</speed>
  <fix>3d</fix>
</trkpt>
<trkpt lat="40.0713749" lon="-105.229789">
  <ele>1583.0</ele>
  <time>2026-08-28T17:49:20Z</time>
  <course>0.0</course>
  <speed>0.0</speed>
  <fix>3d</fix>
</trkpt>
<trkpt lat="40.0713751" lon="-105.2297889">
  <ele>1583.0</ele>
  <time>2026-08-28T17:49:20Z</time>
  <course>246.98</course>
  <speed>0.022360679774997897</speed>
  <fix>3d</fix>
</trkpt>
<trkpt lat="40.0713749" lon="-105.229789">
  <ele>1583.0</ele>
  <time>2026-08-28T17:49:20Z</time>
  <course>0.0</course>
  <speed>0.0</speed>
  <fix>3d</fix>
</trkpt>
<trkpt lat="40.0713751" lon="-105.2297889">
  <ele>1582.99</ele>
  <time>2026-08-28T17:49:20Z</time>
  <course>246.98</course>
  <speed>0.022360679774997897</speed>
  <fix>3d</fix>
</trkpt>
<trkpt lat="40.0713749" lon="-105.229789">
  <ele>1583.0</ele>
  <time>2026-08-28T17:49:20Z</time>
  <course>0.0</course>
  <speed>0.0</speed>
  <fix>3d</fix>
</trkpt>
<trkpt lat="40.0713751" lon="-105.2297889">
  <ele>1582.99</ele>
  <time>2026-08-28T17:49:20Z</time>
  <course>246.98</course>
  <speed>0.022360679774997897</speed>
  <fix>3d</fix>
</trkpt>
<trkpt lat="40.0713749" lon="-105.229789">
  <ele>1583.0</ele>
  <time>2026-08-28T17:49:20Z</time>
  <course>0.0</course>
  <speed>0.0</speed>
  <fix>3d</fix>
</trkpt>
<trkpt lat="40.071375" lon="-105.2297889">
  <ele>1582.99</ele>
  <time>2026-08-28T17:49:20Z</time>
  <course>246.98</course>
  <speed>0.022360679774997897</speed>
  <fix>3d</fix>
</trkpt>
<trkpt lat="40.0713749" lon="-105.229789">
  <ele>1583.0</ele>
  <time>2026-08-28T17:49:20Z</time>
  <course>0.0</course>
  <speed>0.0</speed>
  <fix>3d</fix>
</trkpt>
<trkpt lat="40.0713751" lon="-105.2297889">
  <ele>1582.98</ele>
  <time>2026-08-28T17:49:20Z</time>
  <course>246.98</course>
  <speed>0.022360679774997897</speed>
  <fix>3d</fix>
</trkpt>
<trkpt lat="40.0713749" lon="-105.229789">
  <ele>1583.0</ele>
  <time>2026-08-28T17:49:20Z</time>
  <course>0.0</course>
  <speed>0.0</speed>
  <fix>3d</fix>
</trkpt>
<trkpt lat="40.071375" lon="-105.2297889">
  <ele>1582.98</ele>
  <time>2026-08-28T17:49:20Z</time>
  <course>246.98</course>
  <speed>0.022360679774997897</speed>
  <fix>3d</fix>
</trkpt>
<trkpt lat="40.0713749" lon="-105.229789">
  <ele>1583.0</ele>
  <time>2026-08-28T17:49:20Z</time>
  <course>0.0</course>
  <speed>0.0</speed>
  <fix>3d</fix>
</trkpt>
<trkpt lat="40.0713751" lon="-105.2297889">
  <ele>1582.98</ele>
  <time>2026-08-28T17:49:20Z</time>
  <course>246.98</course>
  <speed>0.022360679774997897</speed>
  <fix>3d</fix>
</trkpt>
<trkpt lat="40.0713749" lon="-105.229789">
  <ele>1583.0</ele>
  <time>2026-08-28T17:49:20Z</time>
  <course>0.0</course>
  <speed>0.0</speed>
  <fix>3d</fix>
</trkpt>
<trkpt lat="40.071375" lon="-105.2297889">
  <ele>1582.99</ele>
  <time>2026-08-28T17:49:20Z</time>
  <course>246.98</course>
  <speed>0.022360679774997897</speed>
  <fix>3d</fix>
</trkpt>
<trkpt lat="40.0713749" lon="-105.229789">
  <ele>1583.0</ele>
  <time>2026-08-28T17:49:20Z</time>
  <course>0.0</course>
  <speed>0.0</speed>
  <fix>3d</fix>
</trkpt>
<trkpt lat="40.0713751" lon="-105.2297889">
  <ele>1582.99</ele>
  <time>2026-08-28T17:49:20Z</time>
  <course>246.98</course>
  <speed>0.022360679774997897</speed>
  <fix>3d</fix>
</trkpt>
<trkpt lat="40.0713749" lon="-105.229789">
  <ele>1583.0</ele>
  <time>2026-08-28T17:49:20Z</time>
  <course>0.0</course>
  <speed>0.0</speed>
  <fix>3d</fix>
</trkpt>
<trkpt lat="40.071375" lon="-105.2297889">
  <ele>1582.99</ele>
  <time>2026-08-28T17:49:20Z</time>
  <course>246.98</course>
  <speed>0.022360679774997897</speed>
  <fix>3d</fix>
</trkpt>
<trkpt lat="40.0713749" lon="-105.229789">
  <ele>1583.0</ele>
  <time>2026-08-28T17:49:20Z</time>
  <course>0.0</course>
  <speed>0.0</speed>
  <fix>3d</fix>
</trkpt>
<trkpt lat="40.0713751" lon="-105.2297889">
  <ele>1583.0</ele>
  <time>2026-08-28T17:49:20Z</time>
  <course>246.98</course>
  <speed>0.022360679774997897</speed>
  <fix>3d</fix>
</trkpt>
<trkpt lat="40.0713749" lon="-105.229789">
  <ele>1583.0</ele>
  <time>2026-08-28T17:49:20Z</time>
  <course>0.0</course>
  <speed>0.0</speed>
  <fix>3d</fix>
</trkpt>
<trkpt lat="40.071375" lon="-105.2297889">
  <ele>1583.0</ele>
  <time>2026-08-28T17:49:20Z</time>
  <course>246.98</course>
  <speed>0.022360679774997897</speed>
  <fix>3d</fix>
</trkpt>
<trkpt lat="40.0713749" lon="-105.229789">
  <ele>1583.0</ele>
  <time>2026-08-28T17:49:20Z</time>
  <course>0.0</course>
  <speed>0.0</speed>
  <fix>3d</fix>
</trkpt>
<trkpt lat="40.0713751" lon="-105.2297889">
  <ele>1583.01</ele>
  <time>2026-08-28T17:49:20Z</time>
  <course>246.98</course>
  <speed>0.022360679774997897</speed>
  <fix>3d</fix>
</trkpt>
<trkpt lat="40.0713749" lon="-105.229789">
  <ele>1583.0</ele>
  <time>2026-08-28T17:49:20Z</time>
  <course>0.0</course>
  <speed>0.0</speed>
  <fix>3d</fix>
</trkpt>
<trkpt lat="40.071375" lon="-105.2297889">
  <ele>1583.02</ele>
  <time>2026-08-28T17:49:20Z</time>
  <course>246.98</course>
  <speed>0.022360679774997897</speed>
  <fix>3d</fix>
</trkpt>
<trkpt lat="40.0713749" lon="-105.229789">
  <ele>1583.0</ele>
  <time>2026-08-28T17:49:20Z</time>
  <course>0.0</course>
  <speed>0.0</speed>
  <fix>3d</fix>
</trkpt>
<trkpt lat="40.0713751" lon="-105.2297889">
  <ele>1583.03</ele>
  <time>2026-08-28T17:49:20Z</time>
  <course>246.98</course>
  <speed>0.022360679774997897</speed>
  <fix>3d</fix>
</trkpt>
<trkpt lat="40.0713749" lon="-105.229789">
  <ele>1583.0</ele>
  <time>2026-08-28T17:49:20Z</time>
  <course>0.0</course>
  <speed>0.0</speed>
  <fix>3d</fix>
</trkpt>
<trkpt lat="40.0713751" lon="-105.2297889">
  <ele>1583.03</ele>
  <time>2026-08-28T17:49:20Z</time>
  <course>246.98</course>
  <speed>0.022360679774997897</speed>
  <fix>3d</fix>
</trkpt>
<trkpt lat="40.0713749" lon="-105.229789">
  <ele>1583.0</ele>
  <time>2026-08-28T17:49:20Z</time>
  <course>0.0</course>
  <speed>0.0</speed>
  <fix>3d</fix>
</trkpt>
<trkpt lat="40.0713751" lon="-105.2297889">
  <ele>1583.03</ele>
  <time>2026-08-28T17:49:20Z</time>
  <course>246.98</course>
  <speed>0.022360679774997897</speed>
  <fix>3d</fix>
</trkpt>
<trkpt lat="40.0713749" lon="-105.229789">
  <ele>1583.0</ele>
  <time>2026-08-28T17:49:20Z</time>
  <course>0.0</course>
  <speed>0.0</speed>
  <fix>3d</fix>
</trkpt>
<trkpt lat="40.0713751" lon="-105.2297889">
  <ele>1583.03</ele>
  <time>2026-08-28T17:49:20Z</time>
  <course>246.98</course>
  <speed>0.022360679774997897</speed>
  <fix>3d</fix>
</trkpt>
<trkpt lat="40.0713749" lon="-105.229789">
  <ele>1583.0</ele>
  <time>2026-08-28T17:49:20Z</time>
  <course>0.0</course>
  <speed>0.0</speed>
  <fix>3d</fix>
</trkpt>
<trkpt lat="40.0713751" lon="-105.2297889">
  <ele>1583.03</ele>
  <time>2026-08-28T17:49:20Z</time>
  <course>246.98</course>
  <speed>0.022360679774997897</speed>
  <fix>3d</fix>
</trkpt>
<trkpt lat="40.0713749" lon="-105.229789">
  <ele>1583.0</ele>
  <time>2026-08-28T17:49:20Z</time>
  <course>0.0</course>
  <speed>0.0</speed>
  <fix>3d</fix>
</trkpt>
<trkpt lat="40.0713751" lon="-105.2297889">
  <ele>1583.03</ele>
  <time>2026-08-28T17:49:20Z</time>
  <course>246.98</course>
  <speed>0.022360679774997897</speed>
  <fix>3d</fix>
</trkpt>
<trkpt lat="40.0713749" lon="-105.229789">
  <ele>1583.0</ele>
  <time>2026-08-28T17:49:20Z</time>
  <course>0.0</course>
  <speed>0.0</speed>
  <fix>3d</fix>
</trkpt>
<trkpt lat="40.0713751" lon="-105.2297889">
  <ele>1583.02</ele>
  <time>2026-08-28T17:49:20Z</time>
  <course>246.98</course>
  <speed>0.022360679774997897</speed>
  <fix>3d</fix>
</trkpt>
<trkpt lat="40.0713749" lon="-105.229789">
  <ele>1583.0</ele>
  <time>2026-08-28T17:49:20Z</time>
  <course>0.0</course>
  <speed>0.0</speed>
  <fix>3d</fix>
</trkpt>
<trkpt lat="40.0713751" lon="-105.2297889">
  <ele>1583.02</ele>
  <time>2026-08-28T17:49:20Z</time>
  <course>246.98</course>
  <speed>0.022360679774997897</speed>
  <fix>3d</fix>
</trkpt>
<trkpt lat="40.0713749" lon="-105.229789">
  <ele>1583.0</ele>
  <time>2026-08-28T17:49:20Z</time>
  <course>0.0</course>
  <speed>0.0</speed>
  <fix>3d</fix>
</trkpt>
<trkpt lat="40.0713751" lon="-105.2297889">
  <ele>1583.02</ele>
  <time>2026-08-28T17:49:20Z</time>
  <course>246.98</course>
  <speed>0.022360679774997897</speed>
  <fix>3d</fix>
</trkpt>
<trkpt lat="40.0713749" lon="-105.229789">
  <ele>1583.0</ele>
  <time>2026-08-28T17:49:20Z</time>
  <course>0.0</course>
  <speed>0.0</speed>
  <fix>3d</fix>
</trkpt>
<trkpt lat="40.071375" lon="-105.2297889">
  <ele>1583.02</ele>
  <time>2026-08-28T17:49:20Z</time>
  <course>246.98</course>
  <speed>0.022360679774997897</speed>
  <fix>3d</fix>
</trkpt>
<trkpt lat="40.0713749" lon="-105.229789">
  <ele>1583.0</ele>
  <time>2026-08-28T17:49:20Z</time>
  <course>0.0</course>
  <speed>0.0</speed>
  <fix>3d</fix>
</trkpt>
<trkpt lat="40.0713751" lon="-105.2297889">
  <ele>1583.01</ele>
  <time>2026-08-28T17:49:20Z</time>
  <course>246.98</course>
  <speed>0.022360679774997897</speed>
  <fix>3d</fix>
</trkpt>
<trkpt lat="40.0713749" lon="-105.229789">
  <ele>1583.0</ele>
  <time>2026-08-28T17:49:20Z</time>
  <course>0.0</course>
  <speed>0.0</speed>
  <fix>3d</fix>
</trkpt>
<trkpt lat="40.071375" lon="-105.2297889">
  <ele>1583.01</ele>
  <time>2026-08-28T17:49:20Z</time>
  <course>246.98</course>
  <speed>0.022360679774997897</speed>
  <fix>3d</fix>
</trkpt>
<trkpt lat="40.0713749" lon="-105.229789">
  <ele>1583.0</ele>
  <time>2026-08-28T17:49:20Z</time>
  <course>0.0</course>
  <speed>0.0</speed>
  <fix>3d</fix>
</trkpt>
<trkpt lat="40.0713751" lon="-105.2297889">
  <ele>1583.01</ele>
  <time>2026-08-28T17:49:20Z</time>
  <course>246.98</course>
  <speed>0.022360679774997897</speed>
  <fix>3d</fix>
</trkpt>
<trkpt lat="40.0713749" lon="-105.229789">
  <ele>1583.0</ele>
  <time>2026-08-28T17:49:20Z</time>
  <course>0.0</course>
  <speed>0.0</speed>
  <fix>3d</fix>
</trkpt>
<trkpt lat="40.071375" lon="-105.2297889">
  <ele>1583.01</ele>
  <time>2026-08-28T17:49:20Z</time>
  <course>246.98</course>
  <speed>0.022360679774997897</speed>
  <fix>3d</fix>
</trkpt>
<trkpt lat="40.0713749" lon="-105.229789">
  <ele>1583.0</ele>
  <time>2026-08-28T17:49:20Z</time>
  <course>0.0</course>
  <speed>0.0</speed>
  <fix>3d</fix>
</trkpt>
<trkpt lat="40.0713751" lon="-105.2297889">
  <ele>1583.01</ele>
  <time>2026-08-28T17:49:20Z</time>
  <course>246.98</course>
  <speed>0.022360679774997897</speed>
  <fix>3d</fix>
</trkpt>
<trkpt lat="40.0713749" lon="-105.229789">
  <ele>1583.0</ele>
  <time>2026-08-28T17:49:20Z</time>
  <course>0.0</course>
  <speed>0.0</speed>
  <fix>3d</fix>
</trkpt>
<trkpt lat="40.0713751" lon="-105.2297889">
  <ele>1583.01</ele>
  <time>2026-08-28T17:49:20Z</time>
  <course>246.98</course>
  <speed>0.022360679774997897</speed>
  <fix>3d</fix>
</trkpt>
<trkpt lat="40.0713749" lon="-105.229789">
  <ele>1583.0</ele>
  <time>2026-08-28T17:49:20Z</time>
  <course>0.0</course>
  <speed>0.0</speed>
  <fix>3d</fix>
</trkpt>
<trkpt lat="40.0713751" lon="-105.2297889">
  <ele>1583.02</ele>
  <time>2026-08-28T17:49:20Z</time>
  <course>246.98</course>
  <speed>0.022360679774997897</speed>
  <fix>3d</fix>
</trkpt>
<trkpt lat="40.0713749" lon="-105.229789">
  <ele>1583.0</ele>
  <time>2026-08-28T17:49:20Z</time>
  <course>0.0</course>
  <speed>0.0</speed>
  <fix>3d</fix>
</trkpt>
<trkpt lat="40.0713751" lon="-105.2297889">
  <ele>1583.02</ele>
  <time>2026-08-28T17:49:20Z</time>
  <course>246.98</course>
  <speed>0.022360679774997897</speed>
  <fix>3d</fix>
</trkpt>
<trkpt lat="40.0713749" lon="-105.229789">
  <ele>1583.0</ele>
  <time>2026-08-28T17:49:20Z</time>
  <course>0.0</course>
  <speed>0.0</speed>
  <fix>3d</fix>
</trkpt>
<trkpt lat="40.0713751" lon="-105.2297889">
  <ele>1583.02</ele>
  <time>2026-08-28T17:49:20Z</time>
  <course>246.98</course>
  <speed>0.022360679774997897</speed>
  <fix>3d</fix>
</trkpt>
<trkpt lat="40.0713749" lon="-105.229789">
  <ele>1583.0</ele>
  <time>2026-08-28T17:49:20Z</time>
  <course>0.0</course>
  <speed>0.0</speed>
  <fix>3d</fix>
</trkpt>
<trkpt lat="40.0713751" lon="-105.2297889">
  <ele>1583.02</ele>
  <time>2026-08-28T17:49:20Z</time>
  <course>246.98</course>
  <speed>0.022360679774997897</speed>
  <fix>3d</fix>
</trkpt>
<trkpt lat="40.0713749" lon="-105.229789">
  <ele>1583.0</ele>
  <time>2026-08-28T17:49:20Z</time>
  <course>0.0</course>
  <speed>0.0</speed>
  <fix>3d</fix>
</trkpt>
<trkpt lat="40.0713751" lon="-105.2297889">
  <ele>1583.02</ele>
  <time>2026-08-28T17:49:20Z</time>
  <course>246.98</course>
  <speed>0.022360679774997897</speed>
  <fix>3d</fix>
</trkpt>
<trkpt lat="40.0713749" lon="-105.229789">
  <ele>1583.0</ele>
  <time>2026-08-28T17:49:20Z</time>
  <course>0.0</course>
  <speed>0.0</speed>
  <fix>3d</fix>
</trkpt>
<trkpt lat="40.0713751" lon="-105.2297889">
  <ele>1583.02</ele>
  <time>2026-08-28T17:49:20Z</time>
  <course>246.98</course>
  <speed>0.022360679774997897</speed>
  <fix>3d</fix>
</trkpt>
<trkpt lat="40.0713749" lon="-105.229789">
  <ele>1583.0</ele>
  <time>2026-08-28T17:49:20Z</time>
  <course>0.0</course>
  <speed>0.0</speed>
  <fix>3d</fix>
</trkpt>
<trkpt lat="40.0713751" lon="-105.2297889">
  <ele>1583.02</ele>
  <time>2026-08-28T17:49:20Z</time>
  <course>246.98</course>
  <speed>0.022360679774997897</speed>
  <fix>3d</fix>
</trkpt>
<trkpt lat="40.0713749" lon="-105.229789">
  <ele>1583.0</ele>
  <time>2026-08-28T17:49:20Z</time>
  <course>0.0</course>
  <speed>0.0</speed>
  <fix>3d</fix>
</trkpt>
<trkpt lat="40.0713751" lon="-105.2297889">
  <ele>1583.03</ele>
  <time>2026-08-28T17:49:20Z</time>
  <course>246.98</course>
  <speed>0.022360679774997897</speed>
  <fix>3d</fix>
</trkpt>
<trkpt lat="40.0713749" lon="-105.229789">
  <ele>1583.0</ele>
  <time>2026-08-28T17:49:20Z</time>
  <course>0.0</course>
  <speed>0.0</speed>
  <fix>3d</fix>
</trkpt>
<trkpt lat="40.0713751" lon="-105.2297889">
  <ele>1583.03</ele>
  <time>2026-08-28T17:49:20Z</time>
  <course>246.98</course>
  <speed>0.022360679774997897</speed>
  <fix>3d</fix>
</trkpt>
<trkpt lat="40.0713749" lon="-105.229789">
  <ele>1583.0</ele>
  <time>2026-08-28T17:49:20Z</time>
  <course>0.0</course>
  <speed>0.0</speed>
  <fix>3d</fix>
</trkpt>
<trkpt lat="40.0713751" lon="-105.2297889">
  <ele>1583.04</ele>
  <time>2026-08-28T17:49:20Z</time>
  <course>246.98</course>
  <speed>0.022360679774997897</speed>
  <fix>3d</fix>
</trkpt>
<trkpt lat="40.0713749" lon="-105.229789">
  <ele>1583.0</ele>
  <time>2026-08-28T17:49:20Z</time>
  <course>0.0</course>
  <speed>0.0</speed>
  <fix>3d</fix>
</trkpt>
<trkpt lat="40.0713751" lon="-105.2297889">
  <ele>1583.04</ele>
  <time>2026-08-28T17:49:20Z</time>
  <course>246.98</course>
  <speed>0.022360679774997897</speed>
  <fix>3d</fix>
</trkpt>
<trkpt lat="40.0713749" lon="-105.229789">
  <ele>1583.0</ele>
  <time>2026-08-28T17:49:20Z</time>
  <course>0.0</course>
  <speed>0.0</speed>
  <fix>3d</fix>
</trkpt>
<trkpt lat="40.0713751" lon="-105.2297889">
  <ele>1583.05</ele>
  <time>2026-08-28T17:49:20Z</time>
  <course>246.98</course>
  <speed>0.022360679774997897</speed>
  <fix>3d</fix>
</trkpt>
<trkpt lat="40.0713749" lon="-105.229789">
  <ele>1583.0</ele>
  <time>2026-08-28T17:49:20Z</time>
  <course>0.0</course>
  <speed>0.0</speed>
  <fix>3d</fix>
</trkpt>
<trkpt lat="40.0713751" lon="-105.2297889">
  <ele>1583.05</ele>
  <time>2026-08-28T17:49:20Z</time>
  <course>246.98</course>
  <speed>0.022360679774997897</speed>
  <fix>3d</fix>
</trkpt>
<trkpt lat="40.0713749" lon="-105.229789">
  <ele>1583.0</ele>
  <time>2026-08-28T17:49:20Z</time>
  <course>0.0</course>
  <speed>0.0</speed>
  <fix>3d</fix>
</trkpt>
<trkpt lat="40.0713751" lon="-105.2297889">
  <ele>1583.06</ele>
  <time>2026-08-28T17:49:20Z</time>
  <course>246.98</course>
  <speed>0.022360679774997897</speed>
  <fix>3d</fix>
</trkpt>
<trkpt lat="40.0713749" lon="-105.229789">
  <ele>1583.0</ele>
  <time>2026-08-28T17:49:20Z</time>
  <course>0.0</course>
  <speed>0.0</speed>
  <fix>3d</fix>
</trkpt>
<trkpt lat="40.0713751" lon="-105.2297889">
  <ele>1583.06</ele>
  <time>2026-08-28T17:49:20Z</time>
  <course>246.98</course>
  <speed>0.022360679774997897</speed>
  <fix>3d</fix>
</trkpt>
<trkpt lat="40.0713749" lon="-105.229789">
  <ele>1583.0</ele>
  <time>2026-08-28T17:49:20Z</time>
  <course>0.0</course>
  <speed>0.0</speed>
  <fix>3d</fix>
</trkpt>
<trkpt lat="40.071375" lon="-105.2297889">
  <ele>1583.06</ele>
  <time>2026-08-28T17:49:20Z</time>
  <course>246.98</course>
  <speed>0.022360679774997897</speed>
  <fix>3d</fix>
</trkpt>
<trkpt lat="40.0713749" lon="-105.229789">
  <ele>1583.0</ele>
  <time>2026-08-28T17:49:20Z</time>
  <course>0.0</course>
  <speed>0.0</speed>
  <fix>3d</fix>
</trkpt>
<trkpt lat="40.0713751" lon="-105.2297889">
  <ele>1583.06</ele>
  <time>2026-08-28T17:49:20Z</time>
  <course>246.98</course>
  <speed>0.022360679774997897</speed>
  <fix>3d</fix>
</trkpt>
<trkpt lat="40.0713749" lon="-105.229789">
  <ele>1583.0</ele>
  <time>2026-08-28T17:49:20Z</time>
  <course>0.0</course>
  <speed>0.0</speed>
  <fix>3d</fix>
</trkpt>
<trkpt lat="40.071375" lon="-105.2297889">
  <ele>1583.07</ele>
  <time>2026-08-28T17:49:20Z</time>
  <course>246.98</course>
  <speed>0.022360679774997897</speed>
  <fix>3d</fix>
</trkpt>
<trkpt lat="40.0713749" lon="-105.229789">
  <ele>1583.0</ele>
  <time>2026-08-28T17:49:20Z</time>
  <course>0.0</course>
  <speed>0.0</speed>
  <fix>3d</fix>
</trkpt>
<trkpt lat="40.0713751" lon="-105.2297889">
  <ele>1583.07</ele>
  <time>2026-08-28T17:49:20Z</time>
  <course>246.98</course>
  <speed>0.022360679774997897</speed>
  <fix>3d</fix>
</trkpt>
<trkpt lat="40.0713749" lon="-105.229789">
  <ele>1583.0</ele>
  <time>2026-08-28T17:49:20Z</time>
  <course>0.0</course>
  <speed>0.0</speed>
  <fix>3d</fix>
</trkpt>
<trkpt lat="40.071375" lon="-105.2297889">
  <ele>1583.07</ele>
  <time>2026-08-28T17:49:20Z</time>
  <course>246.98</course>
  <speed>0.022360679774997897</speed>
  <fix>3d</fix>
</trkpt>
<trkpt lat="40.0713749" lon="-105.229789">
  <ele>1583.0</ele>
  <time>2026-08-28T17:49:20Z</time>
  <course>0.0</course>
  <speed>0.0</speed>
  <fix>3d</fix>
</trkpt>
<trkpt lat="40.0713751" lon="-105.2297889">
  <ele>1583.07</ele>
  <time>2026-08-28T17:49:20Z</time>
  <course>246.98</course>
  <speed>0.022360679774997897</speed>
  <fix>3d</fix>
</trkpt>
<trkpt lat="40.0713749" lon="-105.229789">
  <ele>1583.0</ele>
  <time>2026-08-28T17:49:20Z</time>
  <course>0.0</course>
  <speed>0.0</speed>
  <fix>3d</fix>
</trkpt>
<trkpt lat="40.071375" lon="-105.2297889">
  <ele>1583.07</ele>
  <time>2026-08-28T17:49:20Z</time>
  <course>246.98</course>
  <speed>0.022360679774997897</speed>
  <fix>3d</fix>
</trkpt>
<trkpt lat="40.0713749" lon="-105.229789">
  <ele>1583.0</ele>
  <time>2026-08-28T17:49:20Z</time>
  <course>0.0</course>
  <speed>0.0</speed>
  <fix>3d</fix>
</trkpt>
<trkpt lat="40.0713751" lon="-105.2297889">
  <ele>1583.07</ele>
  <time>2026-08-28T17:49:20Z</time>
  <course>246.98</course>
  <speed>0.022360679774997897</speed>
  <fix>3d</fix>
</trkpt>
<trkpt lat="40.0713749" lon="-105.229789">
  <ele>1583.0</ele>
  <time>2026-08-28T17:49:20Z</time>
  <course>0.0</course>
  <speed>0.0</speed>
  <fix>3d</fix>
</trkpt>
<trkpt lat="40.0713751" lon="-105.2297889">
  <ele>1583.07</ele>
  <time>2026-08-28T17:49:20Z</time>
  <course>246.98</course>
  <speed>0.022360679774997897</speed>
  <fix>3d</fix>
</trkpt>
<trkpt lat="40.0713749" lon="-105.229789">
  <ele>1583.0</ele>
  <time>2026-08-28T17:49:20Z</time>
  <course>0.0</course>
  <speed>0.0</speed>
  <fix>3d</fix>
</trkpt>
<trkpt lat="40.0713751" lon="-105.2297889">
  <ele>1583.06</ele>
  <time>2026-08-28T17:49:20Z</time>
  <course>246.98</course>
  <speed>0.022360679774997897</speed>
  <fix>3d</fix>
</trkpt>
<trkpt lat="40.0713749" lon="-105.229789">
  <ele>1583.0</ele>
  <time>2026-08-28T17:49:20Z</time>
  <course>0.0</course>
  <speed>0.0</speed>
  <fix>3d</fix>
</trkpt>
<trkpt lat="40.0713751" lon="-105.2297889">
  <ele>1583.06</ele>
  <time>2026-08-28T17:49:20Z</time>
  <course>246.98</course>
  <speed>0.022360679774997897</speed>
  <fix>3d</fix>
</trkpt>
<trkpt lat="40.0713749" lon="-105.229789">
  <ele>1583.0</ele>
  <time>2026-08-28T17:49:20Z</time>
  <course>0.0</course>
  <speed>0.0</speed>
  <fix>3d</fix>
</trkpt>
<trkpt lat="40.0713751" lon="-105.2297889">
  <ele>1583.06</ele>
  <time>2026-08-28T17:49:20Z</time>
  <course>246.98</course>
  <speed>0.022360679774997897</speed>
  <fix>3d</fix>
</trkpt>
<trkpt lat="40.0713749" lon="-105.229789">
  <ele>1583.0</ele>
  <time>2026-08-28T17:49:20Z</time>
  <course>0.0</course>
  <speed>0.0</speed>
  <fix>3d</fix>
</trkpt>
<trkpt lat="40.0713751" lon="-105.2297889">
  <ele>1583.06</ele>
  <time>2026-08-28T17:49:20Z</time>
  <course>246.98</course>
  <speed>0.022360679774997897</speed>
  <fix>3d</fix>
</trkpt>
<trkpt lat="40.0713749" lon="-105.229789">
  <ele>1583.0</ele>
  <time>2026-08-28T17:49:20Z</time>
  <course>0.0</course>
  <speed>0.0</speed>
  <fix>3d</fix>
</trkpt>
<trkpt lat="40.0713751" lon="-105.2297889">
  <ele>1583.05</ele>
  <time>2026-08-28T17:49:20Z</time>
  <course>246.98</course>
  <speed>0.022360679774997897</speed>
  <fix>3d</fix>
</trkpt>
<trkpt lat="40.0713749" lon="-105.229789">
  <ele>1583.0</ele>
  <time>2026-08-28T17:49:20Z</time>
  <course>0.0</course>
  <speed>0.0</speed>
  <fix>3d</fix>
</trkpt>
<trkpt lat="40.0713751" lon="-105.2297889">
  <ele>1583.05</ele>
  <time>2026-08-28T17:49:20Z</time>
  <course>246.98</course>
  <speed>0.022360679774997897</speed>
  <fix>3d</fix>
</trkpt>
<trkpt lat="40.0713749" lon="-105.229789">
  <ele>1583.0</ele>
  <time>2026-08-28T17:49:20Z</time>
  <course>0.0</course>
  <speed>0.0</speed>
  <fix>3d</fix>
</trkpt>
<trkpt lat="40.0713751" lon="-105.2297889">
  <ele>1583.04</ele>
  <time>2026-08-28T17:49:20Z</time>
  <course>246.98</course>
  <speed>0.022360679774997897</speed>
  <fix>3d</fix>
</trkpt>
<trkpt lat="40.0713749" lon="-105.229789">
  <ele>1583.0</ele>
  <time>2026-08-28T17:49:20Z</time>
  <course>0.0</course>
  <speed>0.0</speed>
  <fix>3d</fix>
</trkpt>
<trkpt lat="40.0713751" lon="-105.2297889">
  <ele>1583.04</ele>
  <time>2026-08-28T17:49:20Z</time>
  <course>246.98</course>
  <speed>0.022360679774997897</speed>
  <fix>3d</fix>
</trkpt>
<trkpt lat="40.0713749" lon="-105.229789">
  <ele>1583.0</ele>
  <time>2026-08-28T17:49:20Z</time>
  <course>0.0</course>
  <speed>0.0</speed>
  <fix>3d</fix>
</trkpt>
<trkpt lat="40.0713751" lon="-105.2297889">
  <ele>1583.03</ele>
  <time>2026-08-28T17:49:20Z</time>
  <course>246.98</course>
  <speed>0.022360679774997897</speed>
  <fix>3d</fix>
</trkpt>
<trkpt lat="40.0713749" lon="-105.229789">
  <ele>1583.0</ele>
  <time>2026-08-28T17:49:20Z</time>
  <course>0.0</course>
  <speed>0.0</speed>
  <fix>3d</fix>
</trkpt>
<trkpt lat="40.0713751" lon="-105.2297889">
  <ele>1583.03</ele>
  <time>2026-08-28T17:49:20Z</time>
  <course>246.98</course>
  <speed>0.022360679774997897</speed>
  <fix>3d</fix>
</trkpt>
<trkpt lat="40.0713749" lon="-105.229789">
  <ele>1583.0</ele>
  <time>2026-08-28T17:49:20Z</time>
  <course>0.0</course>
  <speed>0.0</speed>
  <fix>3d</fix>
</trkpt>
<trkpt lat="40.0713751" lon="-105.2297889">
  <ele>1583.03</ele>
  <time>2026-08-28T17:49:20Z</time>
  <course>246.98</course>
  <speed>0.022360679774997897</speed>
  <fix>3d</fix>
</trkpt>
<trkpt lat="40.0713749" lon="-105.229789">
  <ele>1583.0</ele>
  <time>2026-08-28T17:49:20Z</time>
  <course>0.0</course>
  <speed>0.0</speed>
  <fix>3d</fix>
</trkpt>
<trkpt lat="40.071375" lon="-105.2297889">
  <ele>1583.03</ele>
  <time>2026-08-28T17:49:20Z</time>
  <course>246.98</course>
  <speed>0.022360679774997897</speed>
  <fix>3d</fix>
</trkpt>
<trkpt lat="40.0713749" lon="-105.229789">
  <ele>1583.0</ele>
  <time>2026-08-28T17:49:20Z</time>
  <course>0.0</course>
  <speed>0.0</speed>
  <fix>3d</fix>
</trkpt>
<trkpt lat="40.0713751" lon="-105.2297889">
  <ele>1583.03</ele>
  <time>2026-08-28T17:49:20Z</time>
  <course>246.98</course>
  <speed>0.022360679774997897</speed>
  <fix>3d</fix>
</trkpt>
<trkpt lat="40.0713749" lon="-105.229789">
  <ele>1583.0</ele>
  <time>2026-08-28T17:49:20Z</time>
  <course>0.0</course>
  <speed>0.0</speed>
  <fix>3d</fix>
</trkpt>
<trkpt lat="40.071375" lon="-105.2297889">
  <ele>1583.03</ele>
  <time>2026-08-28T17:49:20Z</time>
  <course>246.98</course>
  <speed>0.022360679774997897</speed>
  <fix>3d</fix>
</trkpt>
<trkpt lat="40.0713749" lon="-105.229789">
  <ele>1583.0</ele>
  <time>2026-08-28T17:49:20Z</time>
  <course>0.0</course>
  <speed>0.0</speed>
  <fix>3d</fix>
</trkpt>
<trkpt lat="40.0713751" lon="-105.2297889">
  <ele>1583.03</ele>
  <time>2026-08-28T17:49:20Z</time>
  <course>246.98</course>
  <speed>0.022360679774997897</speed>
  <fix>3d</fix>
</trkpt>
<trkpt lat="40.0713749" lon="-105.229789">
  <ele>1583.0</ele>
  <time>2026-08-28T17:49:20Z</time>
  <course>0.0</course>
  <speed>0.0</speed>
  <fix>3d</fix>
</trkpt>
<trkpt lat="40.071375" lon="-105.2297889">
  <ele>1583.04</ele>
  <time>2026-08-28T17:49:20Z</time>
  <course>246.98</course>
  <speed>0.022360679774997897</speed>
  <fix>3d</fix>
</trkpt>
<trkpt lat="40.0713749" lon="-105.229789">
  <ele>1583.0</ele>
  <time>2026-08-28T17:49:20Z</time>
  <course>0.0</course>
  <speed>0.0</speed>
  <fix>3d</fix>
</trkpt>
<trkpt lat="40.0713751" lon="-105.2297889">
  <ele>1583.04</ele>
  <time>2026-08-28T17:49:20Z</time>
  <course>246.98</course>
  <speed>0.022360679774997897</speed>
  <fix>3d</fix>
</trkpt>
<trkpt lat="40.0713749" lon="-105.229789">
  <ele>1583.0</ele>
  <time>2026-08-28T17:49:20Z</time>
  <course>0.0</course>
  <speed>0.0</speed>
  <fix>3d</fix>
</trkpt>
<trkpt lat="40.071375" lon="-105.2297889">
  <ele>1583.05</ele>
  <time>2026-08-28T17:49:20Z</time>
  <course>246.98</course>
  <speed>0.022360679774997897</speed>
  <fix>3d</fix>
</trkpt>
<trkpt lat="40.0713749" lon="-105.229789">
  <ele>1583.0</ele>
  <time>2026-08-28T17:49:20Z</time>
  <course>0.0</course>
  <speed>0.0</speed>
  <fix>3d</fix>
</trkpt>
<trkpt lat="40.0713751" lon="-105.2297889">
  <ele>1583.05</ele>
  <time>2026-08-28T17:49:20Z</time>
  <course>246.98</course>
  <speed>0.022360679774997897</speed>
  <fix>3d</fix>
</trkpt>
<trkpt lat="40.0713749" lon="-105.229789">
  <ele>1583.0</ele>
  <time>2026-08-28T17:49:20Z</time>
  <course>0.0</course>
  <speed>0.0</speed>
  <fix>3d</fix>
</trkpt>
<trkpt lat="40.071375" lon="-105.2297889">
  <ele>1583.05</ele>
  <time>2026-08-28T17:49:20Z</time>
  <course>246.98</course>
  <speed>0.022360679774997897</speed>
  <fix>3d</fix>
</trkpt>
<trkpt lat="40.0713749" lon="-105.229789">
  <ele>1583.0</ele>
  <time>2026-08-28T17:49:20Z</time>
  <course>0.0</course>
  <speed>0.0</speed>
  <fix>3d</fix>
</trkpt>
<trkpt lat="40.0713751" lon="-105.2297889">
  <ele>1583.06</ele>
  <time>2026-08-28T17:49:20Z</time>
  <course>246.98</course>
  <speed>0.022360679774997897</speed>
  <fix>3d</fix>
</trkpt>
<trkpt lat="40.0713749" lon="-105.229789">
  <ele>1583.0</ele>
  <time>2026-08-28T17:49:20Z</time>
  <course>0.0</course>
  <speed>0.0</speed>
  <fix>3d</fix>
</trkpt>
<trkpt lat="40.071375" lon="-105.2297889">
  <ele>1583.06</ele>
  <time>2026-08-28T17:49:20Z</time>
  <course>246.98</course>
  <speed>0.022360679774997897</speed>
  <fix>3d</fix>
</trkpt>
<trkpt lat="40.0713749" lon="-105.229789">
  <ele>1583.0</ele>
  <time>2026-08-28T17:49:20Z</time>
  <course>0.0</course>
  <speed>0.0</speed>
  <fix>3d</fix>
</trkpt>
<trkpt lat="40.0713751" lon="-105.2297889">
  <ele>1583.06</ele>
  <time>2026-08-28T17:49:20Z</time>
  <course>246.98</course>
  <speed>0.022360679774997897</speed>
  <fix>3d</fix>
</trkpt>
<trkpt lat="40.0713749" lon="-105.229789">
  <ele>1583.0</ele>
  <time>2026-08-28T17:49:20Z</time>
  <course>0.0</course>
  <speed>0.0</speed>
  <fix>3d</fix>
</trkpt>
<trkpt lat="40.0713751" lon="-105.2297889">
  <ele>1583.07</ele>
  <time>2026-08-28T17:49:20Z</time>
  <course>246.98</course>
  <speed>0.022360679774997897</speed>
  <fix>3d</fix>
</trkpt>
<trkpt lat="40.0713749" lon="-105.229789">
  <ele>1583.0</ele>
  <time>2026-08-28T17:49:20Z</time>
  <course>0.0</course>
  <speed>0.0</speed>
  <fix>3d</fix>
</trkpt>
<trkpt lat="40.0713751" lon="-105.2297889">
  <ele>1583.08</ele>
  <time>2026-08-28T17:49:20Z</time>
  <course>246.98</course>
  <speed>0.022360679774997897</speed>
  <fix>3d</fix>
</trkpt>
<trkpt lat="40.0713749" lon="-105.229789">
  <ele>1583.0</ele>
  <time>2026-08-28T17:49:20Z</time>
  <course>0.0</course>
  <speed>0.0</speed>
  <fix>3d</fix>
</trkpt>
<trkpt lat="40.0713751" lon="-105.2297889">
  <ele>1583.08</ele>
  <time>2026-08-28T17:49:20Z</time>
  <course>246.98</course>
  <speed>0.022360679774997897</speed>
  <fix>3d</fix>
</trkpt>
<trkpt lat="40.0713749" lon="-105.229789">
  <ele>1583.0</ele>
  <time>2026-08-28T17:49:20Z</time>
  <course>0.0</course>
  <speed>0.0</speed>
  <fix>3d</fix>
</trkpt>
<trkpt lat="40.0713751" lon="-105.2297889">
  <ele>1583.09</ele>
  <time>2026-08-28T17:49:20Z</time>
  <course>246.98</course>
  <speed>0.022360679774997897</speed>
  <fix>3d</fix>
</trkpt>
<trkpt lat="40.0713749" lon="-105.229789">
  <ele>1583.0</ele>
  <time>2026-08-28T17:49:20Z</time>
  <course>0.0</course>
  <speed>0.0</speed>
  <fix>3d</fix>
</trkpt>
<trkpt lat="40.0713751" lon="-105.2297889">
  <ele>1583.09</ele>
  <time>2026-08-28T17:49:20Z</time>
  <course>246.98</course>
  <speed>0.022360679774997897</speed>
  <fix>3d</fix>
</trkpt>
<trkpt lat="40.0713749" lon="-105.229789">
  <ele>1583.0</ele>
  <time>2026-08-28T17:49:20Z</time>
  <course>0.0</course>
  <speed>0.0</speed>
  <fix>3d</fix>
</trkpt>
<trkpt lat="40.0713751" lon="-105.2297889">
  <ele>1583.1</ele>
  <time>2026-08-28T17:49:20Z</time>
  <course>246.98</course>
  <speed>0.022360679774997897</speed>
  <fix>3d</fix>
</trkpt>
<trkpt lat="40.0713749" lon="-105.229789">
  <ele>1583.0</ele>
  <time>2026-08-28T17:49:20Z</time>
  <course>0.0</course>
  <speed>0.0</speed>
  <fix>3d</fix>
</trkpt>
<trkpt lat="40.071375" lon="-105.2297889">
  <ele>1583.1</ele>
  <time>2026-08-28T17:49:20Z</time>
  <course>246.98</course>
  <speed>0.022360679774997897</speed>
  <fix>3d</fix>
</trkpt>
<trkpt lat="40.0713749" lon="-105.229789">
  <ele>1583.0</ele>
  <time>2026-08-28T17:49:20Z</time>
  <course>0.0</course>
  <speed>0.0</speed>
  <fix>3d</fix>
</trkpt>
<trkpt lat="40.0713751" lon="-105.2297889">
  <ele>1583.1</ele>
  <time>2026-08-28T17:49:20Z</time>
  <course>246.98</course>
  <speed>0.022360679774997897</speed>
  <fix>3d</fix>
</trkpt>
<trkpt lat="40.0713749" lon="-105.229789">
  <ele>1583.0</ele>
  <time>2026-08-28T17:49:20Z</time>
  <course>0.0</course>
  <speed>0.0</speed>
  <fix>3d</fix>
</trkpt>
<trkpt lat="40.071375" lon="-105.2297889">
  <ele>1583.1</ele>
  <time>2026-08-28T17:49:20Z</time>
  <course>246.98</course>
  <speed>0.022360679774997897</speed>
  <fix>3d</fix>
</trkpt>
<trkpt lat="40.0713749" lon="-105.229789">
  <ele>1583.0</ele>
  <time>2026-08-28T17:49:20Z</time>
  <course>0.0</course>
  <speed>0.0</speed>
  <fix>3d</fix>
</trkpt>
<trkpt lat="40.0713751" lon="-105.2297889">
  <ele>1583.09</ele>
  <time>2026-08-28T17:49:20Z</time>
  <course>246.98</course>
  <speed>0.022360679774997897</speed>
  <fix>3d</fix>
</trkpt>
<trkpt lat="40.0713749" lon="-105.229789">
  <ele>1583.0</ele>
  <time>2026-08-28T17:49:20Z</time>
  <course>0.0</course>
  <speed>0.0</speed>
  <fix>3d</fix>
</trkpt>
<trkpt lat="40.071375" lon="-105.2297889">
  <ele>1583.08</ele>
  <time>2026-08-28T17:49:20Z</time>
  <course>246.98</course>
  <speed>0.022360679774997897</speed>
  <fix>3d</fix>
</trkpt>
<trkpt lat="40.0713749" lon="-105.229789">
  <ele>1583.0</ele>
  <time>2026-08-28T17:49:20Z</time>
  <course>0.0</course>
  <speed>0.0</speed>
  <fix>3d</fix>
</trkpt>
<trkpt lat="40.0713751" lon="-105.2297889">
  <ele>1583.07</ele>
  <time>2026-08-28T17:49:20Z</time>
  <course>246.98</course>
  <speed>0.022360679774997897</speed>
  <fix>3d</fix>
</trkpt>
<trkpt lat="40.0713749" lon="-105.229789">
  <ele>1583.0</ele>
  <time>2026-08-28T17:49:20Z</time>
  <course>0.0</course>
  <speed>0.0</speed>
  <fix>3d</fix>
</trkpt>
<trkpt lat="40.071375" lon="-105.2297889">
  <ele>1583.06</ele>
  <time>2026-08-28T17:49:20Z</time>
  <course>246.98</course>
  <speed>0.022360679774997897</speed>
  <fix>3d</fix>
</trkpt>
<trkpt lat="40.0713749" lon="-105.229789">
  <ele>1583.0</ele>
  <time>2026-08-28T17:49:20Z</time>
  <course>0.0</course>
  <speed>0.0</speed>
  <fix>3d</fix>
</trkpt>
<trkpt lat="40.0713751" lon="-105.2297889">
  <ele>1583.04</ele>
  <time>2026-08-28T17:49:20Z</time>
  <course>246.98</course>
  <speed>0.022360679774997897</speed>
  <fix>3d</fix>
</trkpt>
<trkpt lat="40.0713749" lon="-105.229789">
  <ele>1583.0</ele>
  <time>2026-08-28T17:49:20Z</time>
  <course>0.0</course>
  <speed>0.0</speed>
  <fix>3d</fix>
</trkpt>
<trkpt lat="40.071375" lon="-105.2297889">
  <ele>1583.04</ele>
  <time>2026-08-28T17:49:20Z</time>
  <course>246.98</course>
  <speed>0.022360679774997897</speed>
  <fix>3d</fix>
</trkpt>
<trkpt lat="40.0713749" lon="-105.229789">
  <ele>1583.0</ele>
  <time>2026-08-28T17:49:20Z</time>
  <course>0.0</course>
  <speed>0.0</speed>
  <fix>3d</fix>
</trkpt>
<trkpt lat="40.0713751" lon="-105.2297889">
  <ele>1583.02</ele>
  <time>2026-08-28T17:49:20Z</time>
  <course>246.98</course>
  <speed>0.022360679774997897</speed>
  <fix>3d</fix>
</trkpt>
<trkpt lat="40.0713749" lon="-105.229789">
  <ele>1583.0</ele>
  <time>2026-08-28T17:49:20Z</time>
  <course>0.0</course>
  <speed>0.0</speed>
  <fix>3d</fix>
</trkpt>
<trkpt lat="40.071375" lon="-105.2297889">
  <ele>1583.02</ele>
  <time>2026-08-28T17:49:20Z</time>
  <course>246.98</course>
  <speed>0.022360679774997897</speed>
  <fix>3d</fix>
</trkpt>
<trkpt lat="40.0713749" lon="-105.229789">
  <ele>1583.0</ele>
  <time>2026-08-28T17:49:20Z</time>
  <course>0.0</course>
  <speed>0.0</speed>
  <fix>3d</fix>
</trkpt>
<trkpt lat="40.0713751" lon="-105.2297889">
  <ele>1583.01</ele>
  <time>2026-08-28T17:49:20Z</time>
  <course>246.98</course>
  <speed>0.022360679774997897</speed>
  <fix>3d</fix>
</trkpt>
<trkpt lat="40.0713749" lon="-105.229789">
  <ele>1583.0</ele>
  <time>2026-08-28T17:49:20Z</time>
  <course>0.0</course>
  <speed>0.0</speed>
  <fix>3d</fix>
</trkpt>
<trkpt lat="40.071375" lon="-105.2297889">
  <ele>1583.0</ele>
  <time>2026-08-28T17:49:20Z</time>
  <course>246.98</course>
  <speed>0.022360679774997897</speed>
  <fix>3d</fix>
</trkpt>
<trkpt lat="40.0713749" lon="-105.229789">
  <ele>1583.0</ele>
  <time>2026-08-28T17:49:20Z</time>
  <course>0.0</course>
  <speed>0.0</speed>
  <fix>3d</fix>
</trkpt>
<trkpt lat="40.0713751" lon="-105.2297889">
  <ele>1583.0</ele>
  <time>2026-08-28T17:49:20Z</time>
  <course>246.98</course>
  <speed>0.022360679774997897</speed>
  <fix>3d</fix>
</trkpt>
<trkpt lat="40.0713749" lon="-105.229789">
  <ele>1583.0</ele>
  <time>2026-08-28T17:49:20Z</time>
  <course>0.0</course>
  <speed>0.0</speed>
  <fix>3d</fix>
</trkpt>
<trkpt lat="40.071375" lon="-105.2297889">
  <ele>1583.0</ele>
  <time>2026-08-28T17:49:20Z</time>
  <course>246.98</course>
  <speed>0.022360679774997897</speed>
  <fix>3d</fix>
</trkpt>
<trkpt lat="40.0713749" lon="-105.229789">
  <ele>1583.0</ele>
  <time>2026-08-28T17:49:20Z</time>
  <course>0.0</course>
  <speed>0.0</speed>
  <fix>3d</fix>
</trkpt>
<trkpt lat="40.0713751" lon="-105.2297889">
  <ele>1582.99</ele>
  <time>2026-08-28T17:49:20Z</time>
  <course>246.98</course>
  <speed>0.022360679774997897</speed>
  <fix>3d</fix>
</trkpt>
<trkpt lat="40.0713749" lon="-105.229789">
  <ele>1583.0</ele>
  <time>2026-08-28T17:49:20Z</time>
  <course>0.0</course>
  <speed>0.0</speed>
  <fix>3d</fix>
</trkpt>
<trkpt lat="40.071375" lon="-105.2297889">
  <ele>1582.99</ele>
  <time>2026-08-28T17:49:20Z</time>
  <course>246.98</course>
  <speed>0.022360679774997897</speed>
  <fix>3d</fix>
</trkpt>
<trkpt lat="40.0713749" lon="-105.229789">
  <ele>1583.0</ele>
  <time>2026-08-28T17:49:20Z</time>
  <course>0.0</course>
  <speed>0.0</speed>
  <fix>3d</fix>
</trkpt>
<trkpt lat="40.0713751" lon="-105.2297889">
  <ele>1582.98</ele>
  <time>2026-08-28T17:49:20Z</time>
  <course>246.98</course>
  <speed>0.022360679774997897</speed>
  <fix>3d</fix>
</trkpt>
<trkpt lat="40.0713749" lon="-105.229789">
  <ele>1583.0</ele>
  <time>2026-08-28T17:49:20Z</time>
  <course>0.0</course>
  <speed>0.0</speed>
  <fix>3d</fix>
</trkpt>
<trkpt lat="40.071375" lon="-105.2297889">
  <ele>1582.97</ele>
  <time>2026-08-28T17:49:20Z</time>
  <course>246.98</course>
  <speed>0.022360679774997897</speed>
  <fix>3d</fix>
</trkpt>
<trkpt lat="40.0713749" lon="-105.229789">
  <ele>1583.0</ele>
  <time>2026-08-28T17:49:20Z</time>
  <course>0.0</course>
  <speed>0.0</speed>
  <fix>3d</fix>
</trkpt>
<trkpt lat="40.0713751" lon="-105.2297889">
  <ele>1582.96</ele>
  <time>2026-08-28T17:49:20Z</time>
  <course>246.98</course>
  <speed>0.022360679774997897</speed>
  <fix>3d</fix>
</trkpt>
<trkpt lat="40.0713749" lon="-105.229789">
  <ele>1583.0</ele>
  <time>2026-08-28T17:49:20Z</time>
  <course>0.0</course>
  <speed>0.0</speed>
  <fix>3d</fix>
</trkpt>
<trkpt lat="40.071375" lon="-105.2297889">
  <ele>1582.96</ele>
  <time>2026-08-28T17:49:20Z</time>
  <course>246.98</course>
  <speed>0.022360679774997897</speed>
  <fix>3d</fix>
</trkpt>
<trkpt lat="40.0713749" lon="-105.229789">
  <ele>1583.0</ele>
  <time>2026-08-28T17:49:20Z</time>
  <course>0.0</course>
  <speed>0.0</speed>
  <fix>3d</fix>
</trkpt>
<trkpt lat="40.0713751" lon="-105.2297889">
  <ele>1582.96</ele>
  <time>2026-08-28T17:49:20Z</time>
  <course>246.98</course>
  <speed>0.022360679774997897</speed>
  <fix>3d</fix>
</trkpt>
<trkpt lat="40.0713749" lon="-105.229789">
  <ele>1583.0</ele>
  <time>2026-08-28T17:49:20Z</time>
  <course>0.0</course>
  <speed>0.0</speed>
  <fix>3d</fix>
</trkpt>
<trkpt lat="40.071375" lon="-105.2297889">
  <ele>1582.96</ele>
  <time>2026-08-28T17:49:20Z</time>
  <course>246.98</course>
  <speed>0.022360679774997897</speed>
  <fix>3d</fix>
</trkpt>
<trkpt lat="40.0713749" lon="-105.229789">
  <ele>1583.0</ele>
  <time>2026-08-28T17:49:20Z</time>
  <course>0.0</course>
  <speed>0.0</speed>
  <fix>3d</fix>
</trkpt>
<trkpt lat="40.071375" lon="-105.2297889">
  <ele>1582.96</ele>
  <time>2026-08-28T17:49:20Z</time>
  <course>246.98</course>
  <speed>0.022360679774997897</speed>
  <fix>3d</fix>
</trkpt>
<trkpt lat="40.0713749" lon="-105.229789">
  <ele>1583.0</ele>
  <time>2026-08-28T17:49:20Z</time>
  <course>0.0</course>
  <speed>0.0</speed>
  <fix>3d</fix>
</trkpt>
<trkpt lat="40.071375" lon="-105.2297889">
  <ele>1582.96</ele>
  <time>2026-08-28T17:49:20Z</time>
  <course>246.98</course>
  <speed>0.022360679774997897</speed>
  <fix>3d</fix>
</trkpt>
<trkpt lat="40.0713749" lon="-105.229789">
  <ele>1583.0</ele>
  <time>2026-08-28T17:49:20Z</time>
  <course>0.0</course>
  <speed>0.0</speed>
  <fix>3d</fix>
</trkpt>
<trkpt lat="40.071375" lon="-105.2297889">
  <ele>1582.97</ele>
  <time>2026-08-28T17:49:20Z</time>
  <course>246.98</course>
  <speed>0.022360679774997897</speed>
  <fix>3d</fix>
</trkpt>
<trkpt lat="40.0713749" lon="-105.229789">
  <ele>1583.0</ele>
  <time>2026-08-28T17:49:20Z</time>
  <course>0.0</course>
  <speed>0.0</speed>
  <fix>3d</fix>
</trkpt>
<trkpt lat="40.071375" lon="-105.2297889">
  <ele>1582.97</ele>
  <time>2026-08-28T17:49:20Z</time>
  <course>246.98</course>
  <speed>0.022360679774997897</speed>
  <fix>3d</fix>
</trkpt>
<trkpt lat="40.0713749" lon="-105.229789">
  <ele>1583.0</ele>
  <time>2026-08-28T17:49:20Z</time>
  <course>0.0</course>
  <speed>0.0</speed>
  <fix>3d</fix>
</trkpt>
<trkpt lat="40.071375" lon="-105.2297889">
  <ele>1582.98</ele>
  <time>2026-08-28T17:49:20Z</time>
  <course>246.98</course>
  <speed>0.022360679774997897</speed>
  <fix>3d</fix>
</trkpt>
<trkpt lat="40.0713749" lon="-105.229789">
  <ele>1583.0</ele>
  <time>2026-08-28T17:49:20Z</time>
  <course>0.0</course>
  <speed>0.0</speed>
  <fix>3d</fix>
</trkpt>
<trkpt lat="40.071375" lon="-105.2297889">
  <ele>1582.99</ele>
  <time>2026-08-28T17:49:20Z</time>
  <course>246.98</course>
  <speed>0.022360679774997897</speed>
  <fix>3d</fix>
</trkpt>
<trkpt lat="40.0713749" lon="-105.229789">
  <ele>1583.0</ele>
  <time>2026-08-28T17:49:20Z</time>
  <course>0.0</course>
  <speed>0.0</speed>
  <fix>3d</fix>
</trkpt>
<trkpt lat="40.0713751" lon="-105.2297889">
  <ele>1582.99</ele>
  <time>2026-08-28T17:49:20Z</time>
  <course>246.98</course>
  <speed>0.022360679774997897</speed>
  <fix>3d</fix>
</trkpt>
<trkpt lat="40.0713749" lon="-105.229789">
  <ele>1583.0</ele>
  <time>2026-08-28T17:49:20Z</time>
  <course>0.0</course>
  <speed>0.0</speed>
  <fix>3d</fix>
</trkpt>
<trkpt lat="40.071375" lon="-105.2297889">
  <ele>1583.0</ele>
  <time>2026-08-28T17:49:20Z</time>
  <course>246.98</course>
  <speed>0.022360679774997897</speed>
  <fix>3d</fix>
</trkpt>
<trkpt lat="40.0713749" lon="-105.229789">
  <ele>1583.0</ele>
  <time>2026-08-28T17:49:20Z</time>
  <course>0.0</course>
  <speed>0.0</speed>
  <fix>3d</fix>
</trkpt>
<trkpt lat="40.0713751" lon="-105.2297889">
  <ele>1583.0</ele>
  <time>2026-08-28T17:49:20Z</time>
  <course>246.98</course>
  <speed>0.022360679774997897</speed>
  <fix>3d</fix>
</trkpt>
<trkpt lat="40.0713749" lon="-105.229789">
  <ele>1583.0</ele>
  <time>2026-08-28T17:49:20Z</time>
  <course>0.0</course>
  <speed>0.0</speed>
  <fix>3d</fix>
</trkpt>
<trkpt lat="40.071375" lon="-105.2297889">
  <ele>1583.0</ele>
  <time>2026-08-28T17:49:20Z</time>
  <course>246.98</course>
  <speed>0.022360679774997897</speed>
  <fix>3d</fix>
</trkpt>
<trkpt lat="40.0713749" lon="-105.229789">
  <ele>1583.0</ele>
  <time>2026-08-28T17:49:20Z</time>
  <course>0.0</course>
  <speed>0.0</speed>
  <fix>3d</fix>
</trkpt>
<trkpt lat="40.0713751" lon="-105.2297889">
  <ele>1583.0</ele>
  <time>2026-08-28T17:49:20Z</time>
  <course>246.98</course>
  <speed>0.022360679774997897</speed>
  <fix>3d</fix>
</trkpt>
<trkpt lat="40.0713749" lon="-105.229789">
  <ele>1583.0</ele>
  <time>2026-08-28T17:49:20Z</time>
  <course>0.0</course>
  <speed>0.0</speed>
  <fix>3d</fix>
</trkpt>
<trkpt lat="40.071375" lon="-105.2297889">
  <ele>1582.99</ele>
  <time>2026-08-28T17:49:20Z</time>
  <course>246.98</course>
  <speed>0.022360679774997897</speed>
  <fix>3d</fix>
</trkpt>
<trkpt lat="40.0713749" lon="-105.229789">
  <ele>1583.0</ele>
  <time>2026-08-28T17:49:20Z</time>
  <course>0.0</course>
  <speed>0.0</speed>
  <fix>3d</fix>
</trkpt>
<trkpt lat="40.0713751" lon="-105.2297889">
  <ele>1582.99</ele>
  <time>2026-08-28T17:49:20Z</time>
  <course>246.98</course>
  <speed>0.022360679774997897</speed>
  <fix>3d</fix>
</trkpt>
<trkpt lat="40.0713749" lon="-105.229789">
  <ele>1583.0</ele>
  <time>2026-08-28T17:49:20Z</time>
  <course>0.0</course>
  <speed>0.0</speed>
  <fix>3d</fix>
</trkpt>
<trkpt lat="40.0713751" lon="-105.2297889">
  <ele>1582.99</ele>
  <time>2026-08-28T17:49:20Z</time>
  <course>246.98</course>
  <speed>0.022360679774997897</speed>
  <fix>3d</fix>
</trkpt>
<trkpt lat="40.0713749" lon="-105.229789">
  <ele>1583.0</ele>
  <time>2026-08-28T17:49:20Z</time>
  <course>0.0</course>
  <speed>0.0</speed>
  <fix>3d</fix>
</trkpt>
<trkpt lat="40.0713751" lon="-105.2297889">
  <ele>1582.98</ele>
  <time>2026-08-28T17:49:20Z</time>
  <course>246.98</course>
  <speed>0.022360679774997897</speed>
  <fix>3d</fix>
</trkpt>
<trkpt lat="40.0713749" lon="-105.229789">
  <ele>1583.0</ele>
  <time>2026-08-28T17:49:20Z</time>
  <course>0.0</course>
  <speed>0.0</speed>
  <fix>3d</fix>
</trkpt>
<trkpt lat="40.0713751" lon="-105.2297889">
  <ele>1582.98</ele>
  <time>2026-08-28T17:49:20Z</time>
  <course>246.98</course>
  <speed>0.022360679774997897</speed>
  <fix>3d</fix>
</trkpt>
<trkpt lat="40.0713749" lon="-105.229789">
  <ele>1583.0</ele>
  <time>2026-08-28T17:49:20Z</time>
  <course>0.0</course>
  <speed>0.0</speed>
  <fix>3d</fix>
</trkpt>
<trkpt lat="40.0713751" lon="-105.2297889">
  <ele>1582.97</ele>
  <time>2026-08-28T17:49:20Z</time>
  <course>246.98</course>
  <speed>0.022360679774997897</speed>
  <fix>3d</fix>
</trkpt>
<trkpt lat="40.0713749" lon="-105.229789">
  <ele>1583.0</ele>
  <time>2026-08-28T17:49:20Z</time>
  <course>0.0</course>
  <speed>0.0</speed>
  <fix>3d</fix>
</trkpt>
<trkpt lat="40.0713751" lon="-105.2297889">
  <ele>1582.97</ele>
  <time>2026-08-28T17:49:20Z</time>
  <course>246.98</course>
  <speed>0.022360679774997897</speed>
  <fix>3d</fix>
</trkpt>
<trkpt lat="40.0713749" lon="-105.229789">
  <ele>1583.0</ele>
  <time>2026-08-28T17:49:20Z</time>
  <course>0.0</course>
  <speed>0.0</speed>
  <fix>3d</fix>
</trkpt>
<trkpt lat="40.0713751" lon="-105.2297889">
  <ele>1582.97</ele>
  <time>2026-08-28T17:49:20Z</time>
  <course>246.98</course>
  <speed>0.022360679774997897</speed>
  <fix>3d</fix>
</trkpt>
<trkpt lat="40.0713749" lon="-105.229789">
  <ele>1583.0</ele>
  <time>2026-08-28T17:49:20Z</time>
  <course>0.0</course>
  <speed>0.0</speed>
  <fix>3d</fix>
</trkpt>
<trkpt lat="40.071375" lon="-105.2297889">
  <ele>1582.97</ele>
  <time>2026-08-28T17:49:20Z</time>
  <course>246.98</course>
  <speed>0.022360679774997897</speed>
  <fix>3d</fix>
</trkpt>
<trkpt lat="40.0713749" lon="-105.229789">
  <ele>1583.0</ele>
  <time>2026-08-28T17:49:20Z</time>
  <course>0.0</course>
  <speed>0.0</speed>
  <fix>3d</fix>
</trkpt>
<trkpt lat="40.0713751" lon="-105.2297889">
  <ele>1582.96</ele>
  <time>2026-08-28T17:49:20Z</time>
  <course>246.98</course>
  <speed>0.022360679774997897</speed>
  <fix>3d</fix>
</trkpt>
<trkpt lat="40.0713749" lon="-105.229789">
  <ele>1583.0</ele>
  <time>2026-08-28T17:49:20Z</time>
  <course>0.0</course>
  <speed>0.0</speed>
  <fix>3d</fix>
</trkpt>
<trkpt lat="40.071375" lon="-105.2297889">
  <ele>1582.96</ele>
  <time>2026-08-28T17:49:20Z</time>
  <course>246.98</course>
  <speed>0.022360679774997897</speed>
  <fix>3d</fix>
</trkpt>
<trkpt lat="40.0713749" lon="-105.229789">
  <ele>1583.0</ele>
  <time>2026-08-28T17:49:20Z</time>
  <course>0.0</course>
  <speed>0.0</speed>
  <fix>3d</fix>
</trkpt>
<trkpt lat="40.0713751" lon="-105.2297889">
  <ele>1582.95</ele>
  <time>2026-08-28T17:49:20Z</time>
  <course>246.98</course>
  <speed>0.022360679774997897</speed>
  <fix>3d</fix>
</trkpt>
<trkpt lat="40.0713749" lon="-105.229789">
  <ele>1583.0</ele>
  <time>2026-08-28T17:49:20Z</time>
  <course>0.0</course>
  <speed>0.0</speed>
  <fix>3d</fix>
</trkpt>
<trkpt lat="40.071375" lon="-105.2297889">
  <ele>1582.95</ele>
  <time>2026-08-28T17:49:20Z</time>
  <course>246.98</course>
  <speed>0.022360679774997897</speed>
  <fix>3d</fix>
</trkpt>
<trkpt lat="40.0713749" lon="-105.229789">
  <ele>1583.0</ele>
  <time>2026-08-28T17:49:20Z</time>
  <course>0.0</course>
  <speed>0.0</speed>
  <fix>3d</fix>
</trkpt>
<trkpt lat="40.0713751" lon="-105.2297889">
  <ele>1582.95</ele>
  <time>2026-08-28T17:49:20Z</time>
  <course>246.98</course>
  <speed>0.022360679774997897</speed>
  <fix>3d</fix>
</trkpt>
<trkpt lat="40.0713749" lon="-105.229789">
  <ele>1583.0</ele>
  <time>2026-08-28T17:49:20Z</time>
  <course>0.0</course>
  <speed>0.0</speed>
  <fix>3d</fix>
</trkpt>
<trkpt lat="40.071375" lon="-105.2297889">
  <ele>1582.94</ele>
  <time>2026-08-28T17:49:20Z</time>
  <course>246.98</course>
  <speed>0.022360679774997897</speed>
  <fix>3d</fix>
</trkpt>
<trkpt lat="40.0713749" lon="-105.229789">
  <ele>1583.0</ele>
  <time>2026-08-28T17:49:20Z</time>
  <course>0.0</course>
  <speed>0.0</speed>
  <fix>3d</fix>
</trkpt>
<trkpt lat="40.0713751" lon="-105.2297889">
  <ele>1582.94</ele>
  <time>2026-08-28T17:49:20Z</time>
  <course>246.98</course>
  <speed>0.022360679774997897</speed>
  <fix>3d</fix>
</trkpt>
<trkpt lat="40.0713749" lon="-105.229789">
  <ele>1583.0</ele>
  <time>2026-08-28T17:49:20Z</time>
  <course>0.0</course>
  <speed>0.0</speed>
  <fix>3d</fix>
</trkpt>
<trkpt lat="40.071375" lon="-105.2297889">
  <ele>1582.93</ele>
  <time>2026-08-28T17:49:20Z</time>
  <course>246.98</course>
  <speed>0.022360679774997897</speed>
  <fix>3d</fix>
</trkpt>
<trkpt lat="40.0713749" lon="-105.229789">
  <ele>1583.0</ele>
  <time>2026-08-28T17:49:20Z</time>
  <course>0.0</course>
  <speed>0.0</speed>
  <fix>3d</fix>
</trkpt>
<trkpt lat="40.0713751" lon="-105.2297889">
  <ele>1582.93</ele>
  <time>2026-08-28T17:49:20Z</time>
  <course>246.98</course>
  <speed>0.022360679774997897</speed>
  <fix>3d</fix>
</trkpt>
<trkpt lat="40.0713749" lon="-105.229789">
  <ele>1583.0</ele>
  <time>2026-08-28T17:49:20Z</time>
  <course>0.0</course>
  <speed>0.0</speed>
  <fix>3d</fix>
</trkpt>
<trkpt lat="40.071375" lon="-105.2297889">
  <ele>1582.93</ele>
  <time>2026-08-28T17:49:20Z</time>
  <course>246.98</course>
  <speed>0.022360679774997897</speed>
  <fix>3d</fix>
</trkpt>
<trkpt lat="40.0713749" lon="-105.229789">
  <ele>1583.0</ele>
  <time>2026-08-28T17:49:20Z</time>
  <course>0.0</course>
  <speed>0.0</speed>
  <fix>3d</fix>
</trkpt>
<trkpt lat="40.0713751" lon="-105.2297889">
  <ele>1582.93</ele>
  <time>2026-08-28T17:49:20Z</time>
  <course>246.98</course>
  <speed>0.022360679774997897</speed>
  <fix>3d</fix>
</trkpt>
<trkpt lat="40.0713749" lon="-105.229789">
  <ele>1583.0</ele>
  <time>2026-08-28T17:49:20Z</time>
  <course>0.0</course>
  <speed>0.0</speed>
  <fix>3d</fix>
</trkpt>
<trkpt lat="40.071375" lon="-105.2297889">
  <ele>1582.94</ele>
  <time>2026-08-28T17:49:20Z</time>
  <course>246.98</course>
  <speed>0.022360679774997897</speed>
  <fix>3d</fix>
</trkpt>
<trkpt lat="40.0713749" lon="-105.229789">
  <ele>1583.0</ele>
  <time>2026-08-28T17:49:20Z</time>
  <course>0.0</course>
  <speed>0.0</speed>
  <fix>3d</fix>
</trkpt>
<trkpt lat="40.0713751" lon="-105.2297889">
  <ele>1582.94</ele>
  <time>2026-08-28T17:49:20Z</time>
  <course>246.98</course>
  <speed>0.022360679774997897</speed>
  <fix>3d</fix>
</trkpt>
<trkpt lat="40.0713749" lon="-105.229789">
  <ele>1583.0</ele>
  <time>2026-08-28T17:49:20Z</time>
  <course>0.0</course>
  <speed>0.0</speed>
  <fix>3d</fix>
</trkpt>
<trkpt lat="40.0713751" lon="-105.2297889">
  <ele>1582.95</ele>
  <time>2026-08-28T17:49:20Z</time>
  <course>246.98</course>
  <speed>0.022360679774997897</speed>
  <fix>3d</fix>
</trkpt>
<trkpt lat="40.0713749" lon="-105.229789">
  <ele>1583.0</ele>
  <time>2026-08-28T17:49:20Z</time>
  <course>0.0</course>
  <speed>0.0</speed>
  <fix>3d</fix>
</trkpt>
<trkpt lat="40.0713751" lon="-105.2297889">
  <ele>1582.95</ele>
  <time>2026-08-28T17:49:20Z</time>
  <course>246.98</course>
  <speed>0.022360679774997897</speed>
  <fix>3d</fix>
</trkpt>
<trkpt lat="40.0713749" lon="-105.229789">
  <ele>1583.0</ele>
  <time>2026-08-28T17:49:20Z</time>
  <course>0.0</course>
  <speed>0.0</speed>
  <fix>3d</fix>
</trkpt>
<trkpt lat="40.0713751" lon="-105.2297889">
  <ele>1582.96</ele>
  <time>2026-08-28T17:49:20Z</time>
  <course>246.98</course>
  <speed>0.022360679774997897</speed>
  <fix>3d</fix>
</trkpt>
<trkpt lat="40.0713749" lon="-105.229789">
  <ele>1583.0</ele>
  <time>2026-08-28T17:49:20Z</time>
  <course>0.0</course>
  <speed>0.0</speed>
  <fix>3d</fix>
</trkpt>
<trkpt lat="40.0713751" lon="-105.2297889">
  <ele>1582.97</ele>
  <time>2026-08-28T17:49:20Z</time>
  <course>246.98</course>
  <speed>0.022360679774997897</speed>
  <fix>3d</fix>
</trkpt>
<trkpt lat="40.0713749" lon="-105.229789">
  <ele>1583.0</ele>
  <time>2026-08-28T17:49:20Z</time>
  <course>0.0</course>
  <speed>0.0</speed>
  <fix>3d</fix>
</trkpt>
<trkpt lat="40.0713751" lon="-105.2297889">
  <ele>1582.98</ele>
  <time>2026-08-28T17:49:20Z</time>
  <course>246.98</course>
  <speed>0.022360679774997897</speed>
  <fix>3d</fix>
</trkpt>
<trkpt lat="40.0713749" lon="-105.229789">
  <ele>1583.0</ele>
  <time>2026-08-28T17:49:20Z</time>
  <course>0.0</course>
  <speed>0.0</speed>
  <fix>3d</fix>
</trkpt>
<trkpt lat="40.0713751" lon="-105.2297889">
  <ele>1582.98</ele>
  <time>2026-08-28T17:49:20Z</time>
  <course>246.98</course>
  <speed>0.022360679774997897</speed>
  <fix>3d</fix>
</trkpt>
<trkpt lat="40.0713749" lon="-105.229789">
  <ele>1583.0</ele>
  <time>2026-08-28T17:49:20Z</time>
  <course>0.0</course>
  <speed>0.0</speed>
  <fix>3d</fix>
</trkpt>
<trkpt lat="40.0713751" lon="-105.2297889">
  <ele>1582.98</ele>
  <time>2026-08-28T17:49:20Z</time>
  <course>246.98</course>
  <speed>0.022360679774997897</speed>
  <fix>3d</fix>
</trkpt>
<trkpt lat="40.0713749" lon="-105.229789">
  <ele>1583.0</ele>
  <time>2026-08-28T17:49:20Z</time>
  <course>0.0</course>
  <speed>0.0</speed>
  <fix>3d</fix>
</trkpt>
<trkpt lat="40.0713751" lon="-105.2297889">
  <ele>1582.99</ele>
  <time>2026-08-28T17:49:20Z</time>
  <course>246.98</course>
  <speed>0.022360679774997897</speed>
  <fix>3d</fix>
</trkpt>
<trkpt lat="40.0713749" lon="-105.229789">
  <ele>1583.0</ele>
  <time>2026-08-28T17:49:20Z</time>
  <course>0.0</course>
  <speed>0.0</speed>
  <fix>3d</fix>
</trkpt>
<trkpt lat="40.071375" lon="-105.2297889">
  <ele>1582.99</ele>
  <time>2026-08-28T17:49:20Z</time>
  <course>246.98</course>
  <speed>0.022360679774997897</speed>
  <fix>3d</fix>
</trkpt>
<trkpt lat="40.0713749" lon="-105.229789">
  <ele>1583.0</ele>
  <time>2026-08-28T17:49:20Z</time>
  <course>0.0</course>
  <speed>0.0</speed>
  <fix>3d</fix>
</trkpt>
<trkpt lat="40.0713751" lon="-105.2297889">
  <ele>1582.99</ele>
  <time>2026-08-28T17:49:20Z</time>
  <course>246.98</course>
  <speed>0.022360679774997897</speed>
  <fix>3d</fix>
</trkpt>
<trkpt lat="40.0713749" lon="-105.229789">
  <ele>1583.0</ele>
  <time>2026-08-28T17:49:20Z</time>
  <course>0.0</course>
  <speed>0.0</speed>
  <fix>3d</fix>
</trkpt>
<trkpt lat="40.071375" lon="-105.2297889">
  <ele>1582.99</ele>
  <time>2026-08-28T17:49:20Z</time>
  <course>246.98</course>
  <speed>0.022360679774997897</speed>
  <fix>3d</fix>
</trkpt>
<trkpt lat="40.0713749" lon="-105.229789">
  <ele>1583.0</ele>
  <time>2026-08-28T17:49:20Z</time>
  <course>0.0</course>
  <speed>0.0</speed>
  <fix>3d</fix>
</trkpt>
<trkpt lat="40.0713751" lon="-105.2297889">
  <ele>1582.99</ele>
  <time>2026-08-28T17:49:20Z</time>
  <course>246.98</course>
  <speed>0.022360679774997897</speed>
  <fix>3d</fix>
</trkpt>
<trkpt lat="40.0713749" lon="-105.229789">
  <ele>1583.0</ele>
  <time>2026-08-28T17:49:20Z</time>
  <course>0.0</course>
  <speed>0.0</speed>
  <fix>3d</fix>
</trkpt>
<trkpt lat="40.071375" lon="-105.2297889">
  <ele>1582.99</ele>
  <time>2026-08-28T17:49:20Z</time>
  <course>246.98</course>
  <speed>0.022360679774997897</speed>
  <fix>3d</fix>
</trkpt>
<trkpt lat="40.0713749" lon="-105.229789">
  <ele>1583.0</ele>
  <time>2026-08-28T17:49:20Z</time>
  <course>0.0</course>
  <speed>0.0</speed>
  <fix>3d</fix>
</trkpt>
<trkpt lat="40.0713751" lon="-105.2297889">
  <ele>1582.99</ele>
  <time>2026-08-28T17:49:20Z</time>
  <course>246.98</course>
  <speed>0.022360679774997897</speed>
  <fix>3d</fix>
</trkpt>
<trkpt lat="40.0713749" lon="-105.229789">
  <ele>1583.0</ele>
  <time>2026-08-28T17:49:20Z</time>
  <course>0.0</course>
  <speed>0.0</speed>
  <fix>3d</fix>
</trkpt>
<trkpt lat="40.071375" lon="-105.2297889">
  <ele>1582.99</ele>
  <time>2026-08-28T17:49:20Z</time>
  <course>246.98</course>
  <speed>0.022360679774997897</speed>
  <fix>3d</fix>
</trkpt>
<trkpt lat="40.0713749" lon="-105.229789">
  <ele>1583.0</ele>
  <time>2026-08-28T17:49:20Z</time>
  <course>0.0</course>
  <speed>0.0</speed>
  <fix>3d</fix>
</trkpt>
<trkpt lat="40.0713751" lon="-105.2297889">
  <ele>1582.99</ele>
  <time>2026-08-28T17:49:20Z</time>
  <course>246.98</course>
  <speed>0.022360679774997897</speed>
  <fix>3d</fix>
</trkpt>
<trkpt lat="40.0713749" lon="-105.229789">
  <ele>1583.0</ele>
  <time>2026-08-28T17:49:20Z</time>
  <course>0.0</course>
  <speed>0.0</speed>
  <fix>3d</fix>
</trkpt>
<trkpt lat="40.071375" lon="-105.2297889">
  <ele>1582.99</ele>
  <time>2026-08-28T17:49:20Z</time>
  <course>246.98</course>
  <speed>0.022360679774997897</speed>
  <fix>3d</fix>
</trkpt>
<trkpt lat="40.0713749" lon="-105.229789">
  <ele>1583.0</ele>
  <time>2026-08-28T17:49:20Z</time>
  <course>0.0</course>
  <speed>0.0</speed>
  <fix>3d</fix>
</trkpt>
<trkpt lat="40.0713751" lon="-105.2297889">
  <ele>1582.99</ele>
  <time>2026-08-28T17:49:20Z</time>
  <course>246.98</course>
  <speed>0.022360679774997897</speed>
  <fix>3d</fix>
</trkpt>
<trkpt lat="40.0713749" lon="-105.229789">
  <ele>1583.0</ele>
  <time>2026-08-28T17:49:20Z</time>
  <course>0.0</course>
  <speed>0.0</speed>
  <fix>3d</fix>
</trkpt>
<trkpt lat="40.071375" lon="-105.2297889">
  <ele>1583.0</ele>
  <time>2026-08-28T17:49:20Z</time>
  <course>246.98</course>
  <speed>0.022360679774997897</speed>
  <fix>3d</fix>
</trkpt>
<trkpt lat="40.0713749" lon="-105.229789">
  <ele>1583.0</ele>
  <time>2026-08-28T17:49:20Z</time>
  <course>0.0</course>
  <speed>0.0</speed>
  <fix>3d</fix>
</trkpt>
<trkpt lat="40.0713751" lon="-105.2297889">
  <ele>1583.0</ele>
  <time>2026-08-28T17:49:20Z</time>
  <course>246.98</course>
  <speed>0.022360679774997897</speed>
  <fix>3d</fix>
</trkpt>
<trkpt lat="40.0713749" lon="-105.229789">
  <ele>1583.0</ele>
  <time>2026-08-28T17:49:20Z</time>
  <course>0.0</course>
  <speed>0.0</speed>
  <fix>3d</fix>
</trkpt>
<trkpt lat="40.071375" lon="-105.2297889">
  <ele>1583.01</ele>
  <time>2026-08-28T17:49:20Z</time>
  <course>246.98</course>
  <speed>0.022360679774997897</speed>
  <fix>3d</fix>
</trkpt>
<trkpt lat="40.0713749" lon="-105.229789">
  <ele>1583.0</ele>
  <time>2026-08-28T17:49:20Z</time>
  <course>0.0</course>
  <speed>0.0</speed>
  <fix>3d</fix>
</trkpt>
<trkpt lat="40.0713751" lon="-105.2297889">
  <ele>1583.01</ele>
  <time>2026-08-28T17:49:20Z</time>
  <course>246.98</course>
  <speed>0.022360679774997897</speed>
  <fix>3d</fix>
</trkpt>
<trkpt lat="40.0713749" lon="-105.229789">
  <ele>1583.0</ele>
  <time>2026-08-28T17:49:20Z</time>
  <course>0.0</course>
  <speed>0.0</speed>
  <fix>3d</fix>
</trkpt>
<trkpt lat="40.0713751" lon="-105.2297889">
  <ele>1583.02</ele>
  <time>2026-08-28T17:49:20Z</time>
  <course>246.98</course>
  <speed>0.022360679774997897</speed>
  <fix>3d</fix>
</trkpt>
<trkpt lat="40.0713749" lon="-105.229789">
  <ele>1583.0</ele>
  <time>2026-08-28T17:49:20Z</time>
  <course>0.0</course>
  <speed>0.0</speed>
  <fix>3d</fix>
</trkpt>
<trkpt lat="40.0713751" lon="-105.2297889">
  <ele>1583.03</ele>
  <time>2026-08-28T17:49:20Z</time>
  <course>246.98</course>
  <speed>0.022360679774997897</speed>
  <fix>3d</fix>
</trkpt>
<trkpt lat="40.0713749" lon="-105.229789">
  <ele>1583.0</ele>
  <time>2026-08-28T17:49:20Z</time>
  <course>0.0</course>
  <speed>0.0</speed>
  <fix>3d</fix>
</trkpt>
<trkpt lat="40.0713751" lon="-105.2297889">
  <ele>1583.03</ele>
  <time>2026-08-28T17:49:20Z</time>
  <course>246.98</course>
  <speed>0.022360679774997897</speed>
  <fix>3d</fix>
</trkpt>
<trkpt lat="40.0713749" lon="-105.229789">
  <ele>1583.0</ele>
  <time>2026-08-28T17:49:20Z</time>
  <course>0.0</course>
  <speed>0.0</speed>
  <fix>3d</fix>
</trkpt>
<trkpt lat="40.0713751" lon="-105.2297889">
  <ele>1583.04</ele>
  <time>2026-08-28T17:49:20Z</time>
  <course>246.98</course>
  <speed>0.022360679774997897</speed>
  <fix>3d</fix>
</trkpt>
<trkpt lat="40.0713749" lon="-105.229789">
  <ele>1583.0</ele>
  <time>2026-08-28T17:49:20Z</time>
  <course>0.0</course>
  <speed>0.0</speed>
  <fix>3d</fix>
</trkpt>
<trkpt lat="40.0713751" lon="-105.2297889">
  <ele>1583.04</ele>
  <time>2026-08-28T17:49:20Z</time>
  <course>246.98</course>
  <speed>0.022360679774997897</speed>
  <fix>3d</fix>
</trkpt>
<trkpt lat="40.0713749" lon="-105.229789">
  <ele>1583.0</ele>
  <time>2026-08-28T17:49:20Z</time>
  <course>0.0</course>
  <speed>0.0</speed>
  <fix>3d</fix>
</trkpt>
<trkpt lat="40.0713751" lon="-105.2297889">
  <ele>1583.05</ele>
  <time>2026-08-28T17:49:20Z</time>
  <course>246.98</course>
  <speed>0.022360679774997897</speed>
  <fix>3d</fix>
</trkpt>
<trkpt lat="40.0713749" lon="-105.229789">
  <ele>1583.0</ele>
  <time>2026-08-28T17:49:20Z</time>
  <course>0.0</course>
  <speed>0.0</speed>
  <fix>3d</fix>
</trkpt>
<trkpt lat="40.0713751" lon="-105.2297889">
  <ele>1583.05</ele>
  <time>2026-08-28T17:49:20Z</time>
  <course>246.98</course>
  <speed>0.022360679774997897</speed>
  <fix>3d</fix>
</trkpt>
<trkpt lat="40.0713749" lon="-105.229789">
  <ele>1583.0</ele>
  <time>2026-08-28T17:49:20Z</time>
  <course>0.0</course>
  <speed>0.0</speed>
  <fix>3d</fix>
</trkpt>
<trkpt lat="40.0713751" lon="-105.2297889">
  <ele>1583.05</ele>
  <time>2026-08-28T17:49:20Z</time>
  <course>246.98</course>
  <speed>0.022360679774997897</speed>
  <fix>3d</fix>
</trkpt>
<trkpt lat="40.0713749" lon="-105.229789">
  <ele>1583.0</ele>
  <time>2026-08-28T17:49:20Z</time>
  <course>0.0</course>
  <speed>0.0</speed>
  <fix>3d</fix>
</trkpt>
<trkpt lat="40.071375" lon="-105.2297889">
  <ele>1583.05</ele>
  <time>2026-08-28T17:49:20Z</time>
  <course>246.98</course>
  <speed>0.022360679774997897</speed>
  <fix>3d</fix>
</trkpt>
<trkpt lat="40.0713749" lon="-105.229789">
  <ele>1583.0</ele>
  <time>2026-08-28T17:49:20Z</time>
  <course>0.0</course>
  <speed>0.0</speed>
  <fix>3d</fix>
</trkpt>
<trkpt lat="40.0713751" lon="-105.2297889">
  <ele>1583.05</ele>
  <time>2026-08-28T17:49:20Z</time>
  <course>246.98</course>
  <speed>0.022360679774997897</speed>
  <fix>3d</fix>
</trkpt>
<trkpt lat="40.0713749" lon="-105.229789">
  <ele>1583.0</ele>
  <time>2026-08-28T17:49:20Z</time>
  <course>0.0</course>
  <speed>0.0</speed>
  <fix>3d</fix>
</trkpt>
<trkpt lat="40.071375" lon="-105.2297889">
  <ele>1583.05</ele>
  <time>2026-08-28T17:49:20Z</time>
  <course>246.98</course>
  <speed>0.022360679774997897</speed>
  <fix>3d</fix>
</trkpt>
<trkpt lat="40.0713749" lon="-105.229789">
  <ele>1583.0</ele>
  <time>2026-08-28T17:49:20Z</time>
  <course>0.0</course>
  <speed>0.0</speed>
  <fix>3d</fix>
</trkpt>
<trkpt lat="40.0713751" lon="-105.2297889">
  <ele>1583.04</ele>
  <time>2026-08-28T17:49:20Z</time>
  <course>246.98</course>
  <speed>0.022360679774997897</speed>
  <fix>3d</fix>
</trkpt>
<trkpt lat="40.0713749" lon="-105.229789">
  <ele>1583.0</ele>
  <time>2026-08-28T17:49:20Z</time>
  <course>0.0</course>
  <speed>0.0</speed>
  <fix>3d</fix>
</trkpt>
<trkpt lat="40.071375" lon="-105.2297889">
  <ele>1583.04</ele>
  <time>2026-08-28T17:49:20Z</time>
  <course>246.98</course>
  <speed>0.022360679774997897</speed>
  <fix>3d</fix>
</trkpt>
<trkpt lat="40.0713749" lon="-105.229789">
  <ele>1583.0</ele>
  <time>2026-08-28T17:49:20Z</time>
  <course>0.0</course>
  <speed>0.0</speed>
  <fix>3d</fix>
</trkpt>
<trkpt lat="40.0713751" lon="-105.2297889">
  <ele>1583.04</ele>
  <time>2026-08-28T17:49:20Z</time>
  <course>246.98</course>
  <speed>0.022360679774997897</speed>
  <fix>3d</fix>
</trkpt>
<trkpt lat="40.0713749" lon="-105.229789">
  <ele>1583.0</ele>
  <time>2026-08-28T17:49:20Z</time>
  <course>0.0</course>
  <speed>0.0</speed>
  <fix>3d</fix>
</trkpt>
<trkpt lat="40.071375" lon="-105.2297889">
  <ele>1583.04</ele>
  <time>2026-08-28T17:49:20Z</time>
  <course>246.98</course>
  <speed>0.02</speed>
  <fix>3d</fix>
</trkpt>
<trkpt lat="40.0713749" lon="-105.229789">
  <ele>1583.0</ele>
  <time>2026-08-28T17:49:20Z</time>
  <course>0.0</course>
  <speed>0.0</speed>
  <fix>3d</fix>
</trkpt>
<trkpt lat="40.0713751" lon="-105.2297889">
  <ele>1583.04</ele>
  <time>2026-08-28T17:49:20Z</time>
  <course>246.98</course>
  <speed>0.022360679774997897</speed>
  <fix>3d</fix>
</trkpt>
<trkpt lat="40.0713749" lon="-105.229789">
  <ele>1583.0</ele>
  <time>2026-08-28T17:49:20Z</time>
  <course>0.0</course>
  <speed>0.0</speed>
  <fix>3d</fix>
</trkpt>
<trkpt lat="40.071375" lon="-105.2297889">
  <ele>1583.05</ele>
  <time>2026-08-28T17:49:20Z</time>
  <course>246.98</course>
  <speed>0.02</speed>
  <fix>3d</fix>
</trkpt>
<trkpt lat="40.0713749" lon="-105.229789">
  <ele>1583.0</ele>
  <time>2026-08-28T17:49:20Z</time>
  <course>0.0</course>
  <speed>0.0</speed>
  <fix>3d</fix>
</trkpt>
<trkpt lat="40.0713751" lon="-105.2297889">
  <ele>1583.05</ele>
  <time>2026-08-28T17:49:20Z</time>
  <course>246.98</course>
  <speed>0.022360679774997897</speed>
  <fix>3d</fix>
</trkpt>
<trkpt lat="40.0713749" lon="-105.229789">
  <ele>1583.0</ele>
  <time>2026-08-28T17:49:20Z</time>
  <course>0.0</course>
  <speed>0.0</speed>
  <fix>3d</fix>
</trkpt>
<trkpt lat="40.071375" lon="-105.2297889">
  <ele>1583.05</ele>
  <time>2026-08-28T17:49:20Z</time>
  <course>246.98</course>
  <speed>0.02</speed>
  <fix>3d</fix>
</trkpt>
<trkpt lat="40.0713749" lon="-105.229789">
  <ele>1583.0</ele>
  <time>2026-08-28T17:49:20Z</time>
  <course>0.0</course>
  <speed>0.0</speed>
  <fix>3d</fix>
</trkpt>
<trkpt lat="40.0713751" lon="-105.2297889">
  <ele>1583.06</ele>
  <time>2026-08-28T17:49:20Z</time>
  <course>246.98</course>
  <speed>0.022360679774997897</speed>
  <fix>3d</fix>
</trkpt>
<trkpt lat="40.0713749" lon="-105.229789">
  <ele>1583.0</ele>
  <time>2026-08-28T17:49:20Z</time>
  <course>0.0</course>
  <speed>0.0</speed>
  <fix>3d</fix>
</trkpt>
<trkpt lat="40.0713751" lon="-105.2297889">
  <ele>1583.06</ele>
  <time>2026-08-28T17:49:20Z</time>
  <course>246.98</course>
  <speed>0.022360679774997897</speed>
  <fix>3d</fix>
</trkpt>
<trkpt lat="40.0713749" lon="-105.229789">
  <ele>1583.0</ele>
  <time>2026-08-28T17:49:20Z</time>
  <course>0.0</course>
  <speed>0.0</speed>
  <fix>3d</fix>
</trkpt>
<trkpt lat="40.0713751" lon="-105.2297889">
  <ele>1583.06</ele>
  <time>2026-08-28T17:49:20Z</time>
  <course>246.98</course>
  <speed>0.022360679774997897</speed>
  <fix>3d</fix>
</trkpt>
<trkpt lat="40.0713749" lon="-105.229789">
  <ele>1583.0</ele>
  <time>2026-08-28T17:49:20Z</time>
  <course>0.0</course>
  <speed>0.0</speed>
  <fix>3d</fix>
</trkpt>
<trkpt lat="40.0713751" lon="-105.2297889">
  <ele>1583.07</ele>
  <time>2026-08-28T17:49:20Z</time>
  <course>246.98</course>
  <speed>0.022360679774997897</speed>
  <fix>3d</fix>
</trkpt>
<trkpt lat="40.0713749" lon="-105.229789">
  <ele>1583.0</ele>
  <time>2026-08-28T17:49:20Z</time>
  <course>0.0</course>
  <speed>0.0</speed>
  <fix>3d</fix>
</trkpt>
<trkpt lat="40.0713751" lon="-105.2297889">
  <ele>1583.07</ele>
  <time>2026-08-28T17:49:20Z</time>
  <course>246.98</course>
  <speed>0.022360679774997897</speed>
  <fix>3d</fix>
</trkpt>
<trkpt lat="40.0713749" lon="-105.229789">
  <ele>1583.0</ele>
  <time>2026-08-28T17:49:20Z</time>
  <course>0.0</course>
  <speed>0.0</speed>
  <fix>3d</fix>
</trkpt>
<trkpt lat="40.0713751" lon="-105.2297889">
  <ele>1583.07</ele>
  <time>2026-08-28T17:49:20Z</time>
  <course>246.98</course>
  <speed>0.022360679774997897</speed>
  <fix>3d</fix>
</trkpt>
<trkpt lat="40.0713749" lon="-105.229789">
  <ele>1583.0</ele>
  <time>2026-08-28T17:49:20Z</time>
  <course>0.0</course>
  <speed>0.0</speed>
  <fix>3d</fix>
</trkpt>
<trkpt lat="40.0713751" lon="-105.2297889">
  <ele>1583.07</ele>
  <time>2026-08-28T17:49:20Z</time>
  <course>246.98</course>
  <speed>0.022360679774997897</speed>
  <fix>3d</fix>
</trkpt>
<trkpt lat="40.0713749" lon="-105.229789">
  <ele>1583.0</ele>
  <time>2026-08-28T17:49:20Z</time>
  <course>0.0</course>
  <speed>0.0</speed>
  <fix>3d</fix>
</trkpt>
<trkpt lat="40.071375" lon="-105.2297889">
  <ele>1583.08</ele>
  <time>2026-08-28T17:49:20Z</time>
  <course>246.98</course>
  <speed>0.02</speed>
  <fix>3d</fix>
</trkpt>
<trkpt lat="40.0713749" lon="-105.229789">
  <ele>1583.0</ele>
  <time>2026-08-28T17:49:20Z</time>
  <course>0.0</course>
  <speed>0.0</speed>
  <fix>3d</fix>
</trkpt>
<trkpt lat="40.0713751" lon="-105.2297889">
  <ele>1583.08</ele>
  <time>2026-08-28T17:49:20Z</time>
  <course>246.98</course>
  <speed>0.022360679774997897</speed>
  <fix>3d</fix>
</trkpt>
<trkpt lat="40.0713749" lon="-105.229789">
  <ele>1583.0</ele>
  <time>2026-08-28T17:49:20Z</time>
  <course>0.0</course>
  <speed>0.0</speed>
  <fix>3d</fix>
</trkpt>
<trkpt lat="40.071375" lon="-105.2297889">
  <ele>1583.08</ele>
  <time>2026-08-28T17:49:20Z</time>
  <course>246.98</course>
  <speed>0.02</speed>
  <fix>3d</fix>
</trkpt>
<trkpt lat="40.0713749" lon="-105.229789">
  <ele>1583.0</ele>
  <time>2026-08-28T17:49:20Z</time>
  <course>0.0</course>
  <speed>0.0</speed>
  <fix>3d</fix>
</trkpt>
<trkpt lat="40.0713751" lon="-105.2297889">
  <ele>1583.08</ele>
  <time>2026-08-28T17:49:20Z</time>
  <course>246.98</course>
  <speed>0.022360679774997897</speed>
  <fix>3d</fix>
</trkpt>
<trkpt lat="40.0713749" lon="-105.229789">
  <ele>1583.0</ele>
  <time>2026-08-28T17:49:20Z</time>
  <course>0.0</course>
  <speed>0.0</speed>
  <fix>3d</fix>
</trkpt>
<trkpt lat="40.071375" lon="-105.2297889">
  <ele>1583.09</ele>
  <time>2026-08-28T17:49:20Z</time>
  <course>246.98</course>
  <speed>0.02</speed>
  <fix>3d</fix>
</trkpt>
<trkpt lat="40.0713749" lon="-105.229789">
  <ele>1583.0</ele>
  <time>2026-08-28T17:49:20Z</time>
  <course>0.0</course>
  <speed>0.0</speed>
  <fix>3d</fix>
</trkpt>
<trkpt lat="40.0713751" lon="-105.2297889">
  <ele>1583.09</ele>
  <time>2026-08-28T17:49:20Z</time>
  <course>246.98</course>
  <speed>0.022360679774997897</speed>
  <fix>3d</fix>
</trkpt>
<trkpt lat="40.0713749" lon="-105.229789">
  <ele>1583.0</ele>
  <time>2026-08-28T17:49:20Z</time>
  <course>0.0</course>
  <speed>0.0</speed>
  <fix>3d</fix>
</trkpt>
<trkpt lat="40.071375" lon="-105.2297889">
  <ele>1583.09</ele>
  <time>2026-08-28T17:49:20Z</time>
  <course>246.98</course>
  <speed>0.02</speed>
  <fix>3d</fix>
</trkpt>
<trkpt lat="40.0713749" lon="-105.229789">
  <ele>1583.0</ele>
  <time>2026-08-28T17:49:20Z</time>
  <course>0.0</course>
  <speed>0.0</speed>
  <fix>3d</fix>
</trkpt>
<trkpt lat="40.0713751" lon="-105.2297889">
  <ele>1583.09</ele>
  <time>2026-08-28T17:49:20Z</time>
  <course>246.98</course>
  <speed>0.022360679774997897</speed>
  <fix>3d</fix>
</trkpt>
<trkpt lat="40.0713749" lon="-105.229789">
  <ele>1583.0</ele>
  <time>2026-08-28T17:49:20Z</time>
  <course>0.0</course>
  <speed>0.0</speed>
  <fix>3d</fix>
</trkpt>
<trkpt lat="40.071375" lon="-105.2297889">
  <ele>1583.09</ele>
  <time>2026-08-28T17:49:20Z</time>
  <course>246.98</course>
  <speed>0.02</speed>
  <fix>3d</fix>
</trkpt>
<trkpt lat="40.0713749" lon="-105.229789">
  <ele>1583.0</ele>
  <time>2026-08-28T17:49:20Z</time>
  <course>0.0</course>
  <speed>0.0</speed>
  <fix>3d</fix>
</trkpt>
<trkpt lat="40.0713751" lon="-105.2297889">
  <ele>1583.08</ele>
  <time>2026-08-28T17:49:20Z</time>
  <course>246.98</course>
  <speed>0.02</speed>
  <fix>3d</fix>
</trkpt>
<trkpt lat="40.0713749" lon="-105.229789">
  <ele>1583.0</ele>
  <time>2026-08-28T17:49:20Z</time>
  <course>0.0</course>
  <speed>0.0</speed>
  <fix>3d</fix>
</trkpt>
<trkpt lat="40.071375" lon="-105.2297889">
  <ele>1583.08</ele>
  <time>2026-08-28T17:49:20Z</time>
  <course>246.98</course>
  <speed>0.02</speed>
  <fix>3d</fix>
</trkpt>
<trkpt lat="40.0713749" lon="-105.229789">
  <ele>1583.0</ele>
  <time>2026-08-28T17:49:20Z</time>
  <course>0.0</course>
  <speed>0.0</speed>
  <fix>3d</fix>
</trkpt>
<trkpt lat="40.0713751" lon="-105.2297889">
  <ele>1583.07</ele>
  <time>2026-08-28T17:49:20Z</time>
  <course>246.98</course>
  <speed>0.02</speed>
  <fix>3d</fix>
</trkpt>
<trkpt lat="40.0713749" lon="-105.229789">
  <ele>1583.0</ele>
  <time>2026-08-28T17:49:20Z</time>
  <course>0.0</course>
  <speed>0.0</speed>
  <fix>3d</fix>
</trkpt>
<trkpt lat="40.071375" lon="-105.2297889">
  <ele>1583.07</ele>
  <time>2026-08-28T17:49:20Z</time>
  <course>246.98</course>
  <speed>0.02</speed>
  <fix>3d</fix>
</trkpt>
<trkpt lat="40.0713749" lon="-105.229789">
  <ele>1583.0</ele>
  <time>2026-08-28T17:49:20Z</time>
  <course>0.0</course>
  <speed>0.0</speed>
  <fix>3d</fix>
</trkpt>
<trkpt lat="40.0713751" lon="-105.2297889">
  <ele>1583.06</ele>
  <time>2026-08-28T17:49:20Z</time>
  <course>246.98</course>
  <speed>0.02</speed>
  <fix>3d</fix>
</trkpt>
<trkpt lat="40.0713749" lon="-105.229789">
  <ele>1583.0</ele>
  <time>2026-08-28T17:49:20Z</time>
  <course>0.0</course>
  <speed>0.0</speed>
  <fix>3d</fix>
</trkpt>
<trkpt lat="40.0713751" lon="-105.2297889">
  <ele>1583.06</ele>
  <time>2026-08-28T17:49:20Z</time>
  <course>246.98</course>
  <speed>0.02</speed>
  <fix>3d</fix>
</trkpt>
<trkpt lat="40.0713749" lon="-105.229789">
  <ele>1583.0</ele>
  <time>2026-08-28T17:49:20Z</time>
  <course>0.0</course>
  <speed>0.0</speed>
  <fix>3d</fix>
</trkpt>
<trkpt lat="40.0713751" lon="-105.2297889">
  <ele>1583.05</ele>
  <time>2026-08-28T17:49:20Z</time>
  <course>246.98</course>
  <speed>0.022360679774997897</speed>
  <fix>3d</fix>
</trkpt>
<trkpt lat="40.0713749" lon="-105.229789">
  <ele>1583.0</ele>
  <time>2026-08-28T17:49:20Z</time>
  <course>0.0</course>
  <speed>0.0</speed>
  <fix>3d</fix>
</trkpt>
<trkpt lat="40.0713751" lon="-105.2297889">
  <ele>1583.05</ele>
  <time>2026-08-28T17:49:20Z</time>
  <course>246.98</course>
  <speed>0.02</speed>
  <fix>3d</fix>
</trkpt>
<trkpt lat="40.0713749" lon="-105.229789">
  <ele>1583.0</ele>
  <time>2026-08-28T17:49:20Z</time>
  <course>0.0</course>
  <speed>0.0</speed>
  <fix>3d</fix>
</trkpt>
<trkpt lat="40.0713751" lon="-105.2297889">
  <ele>1583.05</ele>
  <time>2026-08-28T17:49:20Z</time>
  <course>246.98</course>
  <speed>0.022360679774997897</speed>
  <fix>3d</fix>
</trkpt>
<trkpt lat="40.0713749" lon="-105.229789">
  <ele>1583.0</ele>
  <time>2026-08-28T17:49:20Z</time>
  <course>0.0</course>
  <speed>0.0</speed>
  <fix>3d</fix>
</trkpt>
<trkpt lat="40.0713751" lon="-105.2297889">
  <ele>1583.04</ele>
  <time>2026-08-28T17:49:20Z</time>
  <course>246.98</course>
  <speed>0.02</speed>
  <fix>3d</fix>
</trkpt>
<trkpt lat="40.0713749" lon="-105.229789">
  <ele>1583.0</ele>
  <time>2026-08-28T17:49:20Z</time>
  <course>0.0</course>
  <speed>0.0</speed>
  <fix>3d</fix>
</trkpt>
<trkpt lat="40.0713751" lon="-105.2297889">
  <ele>1583.04</ele>
  <time>2026-08-28T17:49:20Z</time>
  <course>246.98</course>
  <speed>0.022360679774997897</speed>
  <fix>3d</fix>
</trkpt>
<trkpt lat="40.0713749" lon="-105.229789">
  <ele>1583.0</ele>
  <time>2026-08-28T17:49:20Z</time>
  <course>0.0</course>
  <speed>0.0</speed>
  <fix>3d</fix>
</trkpt>
<trkpt lat="40.0713751" lon="-105.2297889">
  <ele>1583.04</ele>
  <time>2026-08-28T17:49:20Z</time>
  <course>246.98</course>
  <speed>0.02</speed>
  <fix>3d</fix>
</trkpt>
<trkpt lat="40.0713749" lon="-105.229789">
  <ele>1583.0</ele>
  <time>2026-08-28T17:49:20Z</time>
  <course>0.0</course>
  <speed>0.0</speed>
  <fix>3d</fix>
</trkpt>
<trkpt lat="40.0713751" lon="-105.2297889">
  <ele>1583.04</ele>
  <time>2026-08-28T17:49:20Z</time>
  <course>246.98</course>
  <speed>0.022360679774997897</speed>
  <fix>3d</fix>
</trkpt>
<trkpt lat="40.0713749" lon="-105.229789">
  <ele>1583.0</ele>
  <time>2026-08-28T17:49:20Z</time>
  <course>0.0</course>
  <speed>0.0</speed>
  <fix>3d</fix>
</trkpt>
<trkpt lat="40.071375" lon="-105.2297889">
  <ele>1583.04</ele>
  <time>2026-08-28T17:49:20Z</time>
  <course>246.98</course>
  <speed>0.02</speed>
  <fix>3d</fix>
</trkpt>
<trkpt lat="40.0713749" lon="-105.229789">
  <ele>1583.0</ele>
  <time>2026-08-28T17:49:20Z</time>
  <course>0.0</course>
  <speed>0.0</speed>
  <fix>3d</fix>
</trkpt>
<trkpt lat="40.0713751" lon="-105.2297889">
  <ele>1583.03</ele>
  <time>2026-08-28T17:49:20Z</time>
  <course>246.98</course>
  <speed>0.02</speed>
  <fix>3d</fix>
</trkpt>
<trkpt lat="40.0713749" lon="-105.229789">
  <ele>1583.0</ele>
  <time>2026-08-28T17:49:20Z</time>
  <course>0.0</course>
  <speed>0.0</speed>
  <fix>3d</fix>
</trkpt>
<trkpt lat="40.071375" lon="-105.2297889">
  <ele>1583.03</ele>
  <time>2026-08-28T17:49:20Z</time>
  <course>246.98</course>
  <speed>0.02</speed>
  <fix>3d</fix>
</trkpt>
<trkpt lat="40.0713749" lon="-105.229789">
  <ele>1583.0</ele>
  <time>2026-08-28T17:49:20Z</time>
  <course>0.0</course>
  <speed>0.0</speed>
  <fix>3d</fix>
</trkpt>
<trkpt lat="40.0713751" lon="-105.2297889">
  <ele>1583.03</ele>
  <time>2026-08-28T17:49:20Z</time>
  <course>246.98</course>
  <speed>0.02</speed>
  <fix>3d</fix>
</trkpt>
<trkpt lat="40.0713749" lon="-105.229789">
  <ele>1583.0</ele>
  <time>2026-08-28T17:49:20Z</time>
  <course>0.0</course>
  <speed>0.0</speed>
  <fix>3d</fix>
</trkpt>
<trkpt lat="40.071375" lon="-105.2297889">
  <ele>1583.02</ele>
  <time>2026-08-28T17:49:20Z</time>
  <course>246.98</course>
  <speed>0.02</speed>
  <fix>3d</fix>
</trkpt>
<trkpt lat="40.0713749" lon="-105.229789">
  <ele>1583.0</ele>
  <time>2026-08-28T17:49:20Z</time>
  <course>0.0</course>
  <speed>0.0</speed>
  <fix>3d</fix>
</trkpt>
<trkpt lat="40.0713751" lon="-105.2297889">
  <ele>1583.02</ele>
  <time>2026-08-28T17:49:20Z</time>
  <course>246.98</course>
  <speed>0.022360679774997897</speed>
  <fix>3d</fix>
</trkpt>
<trkpt lat="40.0713749" lon="-105.229789">
  <ele>1583.0</ele>
  <time>2026-08-28T17:49:20Z</time>
  <course>0.0</course>
  <speed>0.0</speed>
  <fix>3d</fix>
</trkpt>
<trkpt lat="40.071375" lon="-105.2297889">
  <ele>1583.02</ele>
  <time>2026-08-28T17:49:20Z</time>
  <course>246.98</course>
  <speed>0.02</speed>
  <fix>3d</fix>
</trkpt>
<trkpt lat="40.0713749" lon="-105.229789">
  <ele>1583.0</ele>
  <time>2026-08-28T17:49:20Z</time>
  <course>0.0</course>
  <speed>0.0</speed>
  <fix>3d</fix>
</trkpt>
<trkpt lat="40.0713751" lon="-105.2297889">
  <ele>1583.02</ele>
  <time>2026-08-28T17:49:20Z</time>
  <course>246.98</course>
  <speed>0.022360679774997897</speed>
  <fix>3d</fix>
</trkpt>
<trkpt lat="40.0713749" lon="-105.229789">
  <ele>1583.0</ele>
  <time>2026-08-28T17:49:20Z</time>
  <course>0.0</course>
  <speed>0.0</speed>
  <fix>3d</fix>
</trkpt>
<trkpt lat="40.071375" lon="-105.2297889">
  <ele>1583.02</ele>
  <time>2026-08-28T17:49:20Z</time>
  <course>246.98</course>
  <speed>0.02</speed>
  <fix>3d</fix>
</trkpt>
<trkpt lat="40.0713749" lon="-105.229789">
  <ele>1583.0</ele>
  <time>2026-08-28T17:49:20Z</time>
  <course>0.0</course>
  <speed>0.0</speed>
  <fix>3d</fix>
</trkpt>
<trkpt lat="40.0713751" lon="-105.2297889">
  <ele>1583.02</ele>
  <time>2026-08-28T17:49:20Z</time>
  <course>246.98</course>
  <speed>0.022360679774997897</speed>
  <fix>3d</fix>
</trkpt>
<trkpt lat="40.0713749" lon="-105.229789">
  <ele>1583.0</ele>
  <time>2026-08-28T17:49:20Z</time>
  <course>0.0</course>
  <speed>0.0</speed>
  <fix>3d</fix>
</trkpt>
<trkpt lat="40.071375" lon="-105.2297889">
  <ele>1583.02</ele>
  <time>2026-08-28T17:49:20Z</time>
  <course>246.98</course>
  <speed>0.02</speed>
  <fix>3d</fix>
</trkpt>
<trkpt lat="40.0713749" lon="-105.229789">
  <ele>1583.0</ele>
  <time>2026-08-28T17:49:20Z</time>
  <course>0.0</course>
  <speed>0.0</speed>
  <fix>3d</fix>
</trkpt>
<trkpt lat="40.0713751" lon="-105.2297889">
  <ele>1583.02</ele>
  <time>2026-08-28T17:49:20Z</time>
  <course>246.98</course>
  <speed>0.022360679774997897</speed>
  <fix>3d</fix>
</trkpt>
<trkpt lat="40.0713749" lon="-105.229789">
  <ele>1583.0</ele>
  <time>2026-08-28T17:49:20Z</time>
  <course>0.0</course>
  <speed>0.0</speed>
  <fix>3d</fix>
</trkpt>
<trkpt lat="40.071375" lon="-105.2297889">
  <ele>1583.02</ele>
  <time>2026-08-28T17:49:20Z</time>
  <course>246.98</course>
  <speed>0.02</speed>
  <fix>3d</fix>
</trkpt>
<trkpt lat="40.0713749" lon="-105.229789">
  <ele>1583.0</ele>
  <time>2026-08-28T17:49:20Z</time>
  <course>0.0</course>
  <speed>0.0</speed>
  <fix>3d</fix>
</trkpt>
<trkpt lat="40.0713751" lon="-105.2297889">
  <ele>1583.03</ele>
  <time>2026-08-28T17:49:20Z</time>
  <course>246.98</course>
  <speed>0.022360679774997897</speed>
  <fix>3d</fix>
</trkpt>
<trkpt lat="40.0713749" lon="-105.229789">
  <ele>1583.0</ele>
  <time>2026-08-28T17:49:20Z</time>
  <course>0.0</course>
  <speed>0.0</speed>
  <fix>3d</fix>
</trkpt>
<trkpt lat="40.0713751" lon="-105.2297889">
  <ele>1583.03</ele>
  <time>2026-08-28T17:49:20Z</time>
  <course>246.98</course>
  <speed>0.022360679774997897</speed>
  <fix>3d</fix>
</trkpt>
<trkpt lat="40.0713749" lon="-105.229789">
  <ele>1583.0</ele>
  <time>2026-08-28T17:49:20Z</time>
  <course>0.0</course>
  <speed>0.0</speed>
  <fix>3d</fix>
</trkpt>
<trkpt lat="40.0713751" lon="-105.2297889">
  <ele>1583.03</ele>
  <time>2026-08-28T17:49:20Z</time>
  <course>246.98</course>
  <speed>0.022360679774997897</speed>
  <fix>3d</fix>
</trkpt>
<trkpt lat="40.0713749" lon="-105.229789">
  <ele>1583.0</ele>
  <time>2026-08-28T17:49:20Z</time>
  <course>0.0</course>
  <speed>0.0</speed>
  <fix>3d</fix>
</trkpt>
<trkpt lat="40.0713751" lon="-105.2297889">
  <ele>1583.03</ele>
  <time>2026-08-28T17:49:20Z</time>
  <course>246.98</course>
  <speed>0.022360679774997897</speed>
  <fix>3d</fix>
</trkpt>
<trkpt lat="40.0713749" lon="-105.229789">
  <ele>1583.0</ele>
  <time>2026-08-28T17:49:20Z</time>
  <course>0.0</course>
  <speed>0.0</speed>
  <fix>3d</fix>
</trkpt>
<trkpt lat="40.0713751" lon="-105.2297889">
  <ele>1583.03</ele>
  <time>2026-08-28T17:49:20Z</time>
  <course>246.98</course>
  <speed>0.022360679774997897</speed>
  <fix>3d</fix>
</trkpt>
<trkpt lat="40.0713749" lon="-105.229789">
  <ele>1583.0</ele>
  <time>2026-08-28T17:49:20Z</time>
  <course>0.0</course>
  <speed>0.0</speed>
  <fix>3d</fix>
</trkpt>
<trkpt lat="40.0713751" lon="-105.2297889">
  <ele>1583.03</ele>
  <time>2026-08-28T17:49:20Z</time>
  <course>246.98</course>
  <speed>0.022360679774997897</speed>
  <fix>3d</fix>
</trkpt>
<trkpt lat="40.0713749" lon="-105.229789">
  <ele>1583.0</ele>
  <time>2026-08-28T17:49:20Z</time>
  <course>0.0</course>
  <speed>0.0</speed>
  <fix>3d</fix>
</trkpt>
<trkpt lat="40.0713751" lon="-105.2297889">
  <ele>1583.03</ele>
  <time>2026-08-28T17:49:20Z</time>
  <course>246.98</course>
  <speed>0.022360679774997897</speed>
  <fix>3d</fix>
</trkpt>
<trkpt lat="40.0713749" lon="-105.229789">
  <ele>1583.0</ele>
  <time>2026-08-28T17:49:20Z</time>
  <course>0.0</course>
  <speed>0.0</speed>
  <fix>3d</fix>
</trkpt>
<trkpt lat="40.0713751" lon="-105.2297889">
  <ele>1583.04</ele>
  <time>2026-08-28T17:49:20Z</time>
  <course>246.98</course>
  <speed>0.022360679774997897</speed>
  <fix>3d</fix>
</trkpt>
<trkpt lat="40.0713749" lon="-105.229789">
  <ele>1583.0</ele>
  <time>2026-08-28T17:49:20Z</time>
  <course>0.0</course>
  <speed>0.0</speed>
  <fix>3d</fix>
</trkpt>
<trkpt lat="40.0713751" lon="-105.2297889">
  <ele>1583.04</ele>
  <time>2026-08-28T17:49:20Z</time>
  <course>246.98</course>
  <speed>0.022360679774997897</speed>
  <fix>3d</fix>
</trkpt>
<trkpt lat="40.0713749" lon="-105.229789">
  <ele>1583.0</ele>
  <time>2026-08-28T17:49:20Z</time>
  <course>0.0</course>
  <speed>0.0</speed>
  <fix>3d</fix>
</trkpt>
<trkpt lat="40.071375" lon="-105.2297889">
  <ele>1583.04</ele>
  <time>2026-08-28T17:49:20Z</time>
  <course>246.98</course>
  <speed>0.022360679774997897</speed>
  <fix>3d</fix>
</trkpt>
<trkpt lat="40.0713749" lon="-105.229789">
  <ele>1583.0</ele>
  <time>2026-08-28T17:49:20Z</time>
  <course>0.0</course>
  <speed>0.0</speed>
  <fix>3d</fix>
</trkpt>
<trkpt lat="40.0713751" lon="-105.2297889">
  <ele>1583.04</ele>
  <time>2026-08-28T17:49:20Z</time>
  <course>246.98</course>
  <speed>0.022360679774997897</speed>
  <fix>3d</fix>
</trkpt>
<trkpt lat="40.0713749" lon="-105.229789">
  <ele>1583.0</ele>
  <time>2026-08-28T17:49:20Z</time>
  <course>0.0</course>
  <speed>0.0</speed>
  <fix>3d</fix>
</trkpt>
<trkpt lat="40.071375" lon="-105.2297889">
  <ele>1583.05</ele>
  <time>2026-08-28T17:49:20Z</time>
  <course>246.98</course>
  <speed>0.022360679774997897</speed>
  <fix>3d</fix>
</trkpt>
<trkpt lat="40.0713749" lon="-105.229789">
  <ele>1583.0</ele>
  <time>2026-08-28T17:49:20Z</time>
  <course>0.0</course>
  <speed>0.0</speed>
  <fix>3d</fix>
</trkpt>
<trkpt lat="40.0713751" lon="-105.2297889">
  <ele>1583.05</ele>
  <time>2026-08-28T17:49:21Z</time>
  <course>246.98</course>
  <speed>0.022360679774997897</speed>
  <fix>3d</fix>
</trkpt>
<trkpt lat="40.0713749" lon="-105.229789">
  <ele>1583.0</ele>
  <time>2026-08-28T17:49:21Z</time>
  <course>0.0</course>
  <speed>0.0</speed>
  <fix>3d</fix>
</trkpt>
<trkpt lat="40.071375" lon="-105.2297889">
  <ele>1583.05</ele>
  <time>2026-08-28T17:49:21Z</time>
  <course>246.98</course>
  <speed>0.022360679774997897</speed>
  <fix>3d</fix>
</trkpt>
<trkpt lat="40.0713749" lon="-105.229789">
  <ele>1583.0</ele>
  <time>2026-08-28T17:49:21Z</time>
  <course>0.0</course>
  <speed>0.0</speed>
  <fix>3d</fix>
</trkpt>
<trkpt lat="40.0713751" lon="-105.2297889">
  <ele>1583.05</ele>
  <time>2026-08-28T17:49:21Z</time>
  <course>246.98</course>
  <speed>0.022360679774997897</speed>
  <fix>3d</fix>
</trkpt>
<trkpt lat="40.0713749" lon="-105.229789">
  <ele>1583.0</ele>
  <time>2026-08-28T17:49:21Z</time>
  <course>0.0</course>
  <speed>0.0</speed>
  <fix>3d</fix>
</trkpt>
<trkpt lat="40.071375" lon="-105.2297889">
  <ele>1583.05</ele>
  <time>2026-08-28T17:49:21Z</time>
  <course>246.98</course>
  <speed>0.022360679774997897</speed>
  <fix>3d</fix>
</trkpt>
<trkpt lat="40.0713749" lon="-105.229789">
  <ele>1583.0</ele>
  <time>2026-08-28T17:49:21Z</time>
  <course>0.0</course>
  <speed>0.0</speed>
  <fix>3d</fix>
</trkpt>
<trkpt lat="40.0713751" lon="-105.2297889">
  <ele>1583.04</ele>
  <time>2026-08-28T17:49:21Z</time>
  <course>246.98</course>
  <speed>0.022360679774997897</speed>
  <fix>3d</fix>
</trkpt>
<trkpt lat="40.0713749" lon="-105.229789">
  <ele>1583.0</ele>
  <time>2026-08-28T17:49:21Z</time>
  <course>0.0</course>
  <speed>0.0</speed>
  <fix>3d</fix>
</trkpt>
<trkpt lat="40.071375" lon="-105.2297889">
  <ele>1583.04</ele>
  <time>2026-08-28T17:49:21Z</time>
  <course>246.98</course>
  <speed>0.022360679774997897</speed>
  <fix>3d</fix>
</trkpt>
<trkpt lat="40.0713749" lon="-105.229789">
  <ele>1583.0</ele>
  <time>2026-08-28T17:49:21Z</time>
  <course>0.0</course>
  <speed>0.0</speed>
  <fix>3d</fix>
</trkpt>
<trkpt lat="40.0713751" lon="-105.2297889">
  <ele>1583.03</ele>
  <time>2026-08-28T17:49:21Z</time>
  <course>246.98</course>
  <speed>0.022360679774997897</speed>
  <fix>3d</fix>
</trkpt>
<trkpt lat="40.0713749" lon="-105.229789">
  <ele>1583.0</ele>
  <time>2026-08-28T17:49:21Z</time>
  <course>0.0</course>
  <speed>0.0</speed>
  <fix>3d</fix>
</trkpt>
<trkpt lat="40.071375" lon="-105.2297889">
  <ele>1583.03</ele>
  <time>2026-08-28T17:49:21Z</time>
  <course>246.98</course>
  <speed>0.022360679774997897</speed>
  <fix>3d</fix>
</trkpt>
<trkpt lat="40.0713749" lon="-105.229789">
  <ele>1583.0</ele>
  <time>2026-08-28T17:49:21Z</time>
  <course>0.0</course>
  <speed>0.0</speed>
  <fix>3d</fix>
</trkpt>
<trkpt lat="40.0713751" lon="-105.2297889">
  <ele>1583.03</ele>
  <time>2026-08-28T17:49:21Z</time>
  <course>246.98</course>
  <speed>0.022360679774997897</speed>
  <fix>3d</fix>
</trkpt>
<trkpt lat="40.0713749" lon="-105.229789">
  <ele>1583.0</ele>
  <time>2026-08-28T17:49:21Z</time>
  <course>0.0</course>
  <speed>0.0</speed>
  <fix>3d</fix>
</trkpt>
<trkpt lat="40.0713751" lon="-105.2297889">
  <ele>1583.03</ele>
  <time>2026-08-28T17:49:21Z</time>
  <course>246.98</course>
  <speed>0.022360679774997897</speed>
  <fix>3d</fix>
</trkpt>
<trkpt lat="40.0713749" lon="-105.229789">
  <ele>1583.0</ele>
  <time>2026-08-28T17:49:21Z</time>
  <course>0.0</course>
  <speed>0.0</speed>
  <fix>3d</fix>
</trkpt>
<trkpt lat="40.0713751" lon="-105.2297889">
  <ele>1583.02</ele>
  <time>2026-08-28T17:49:21Z</time>
  <course>246.98</course>
  <speed>0.022360679774997897</speed>
  <fix>3d</fix>
</trkpt>
<trkpt lat="40.0713749" lon="-105.229789">
  <ele>1583.0</ele>
  <time>2026-08-28T17:49:21Z</time>
  <course>0.0</course>
  <speed>0.0</speed>
  <fix>3d</fix>
</trkpt>
<trkpt lat="40.0713751" lon="-105.2297889">
  <ele>1583.02</ele>
  <time>2026-08-28T17:49:21Z</time>
  <course>246.98</course>
  <speed>0.022360679774997897</speed>
  <fix>3d</fix>
</trkpt>
<trkpt lat="40.0713749" lon="-105.229789">
  <ele>1583.0</ele>
  <time>2026-08-28T17:49:21Z</time>
  <course>0.0</course>
  <speed>0.0</speed>
  <fix>3d</fix>
</trkpt>
<trkpt lat="40.0713751" lon="-105.2297889">
  <ele>1583.02</ele>
  <time>2026-08-28T17:49:21Z</time>
  <course>246.98</course>
  <speed>0.022360679774997897</speed>
  <fix>3d</fix>
</trkpt>
<trkpt lat="40.0713749" lon="-105.229789">
  <ele>1583.0</ele>
  <time>2026-08-28T17:49:21Z</time>
  <course>0.0</course>
  <speed>0.0</speed>
  <fix>3d</fix>
</trkpt>
<trkpt lat="40.0713751" lon="-105.2297889">
  <ele>1583.02</ele>
  <time>2026-08-28T17:49:21Z</time>
  <course>246.98</course>
  <speed>0.022360679774997897</speed>
  <fix>3d</fix>
</trkpt>
<trkpt lat="40.0713749" lon="-105.229789">
  <ele>1583.0</ele>
  <time>2026-08-28T17:49:21Z</time>
  <course>0.0</course>
  <speed>0.0</speed>
  <fix>3d</fix>
</trkpt>
<trkpt lat="40.0713751" lon="-105.2297889">
  <ele>1583.01</ele>
  <time>2026-08-28T17:49:21Z</time>
  <course>246.98</course>
  <speed>0.022360679774997897</speed>
  <fix>3d</fix>
</trkpt>
<trkpt lat="40.0713749" lon="-105.229789">
  <ele>1583.0</ele>
  <time>2026-08-28T17:49:21Z</time>
  <course>0.0</course>
  <speed>0.0</speed>
  <fix>3d</fix>
</trkpt>
<trkpt lat="40.0713751" lon="-105.2297889">
  <ele>1583.0</ele>
  <time>2026-08-28T17:49:21Z</time>
  <course>246.98</course>
  <speed>0.022360679774997897</speed>
  <fix>3d</fix>
</trkpt>
<trkpt lat="40.0713749" lon="-105.229789">
  <ele>1583.0</ele>
  <time>2026-08-28T17:49:21Z</time>
  <course>0.0</course>
  <speed>0.0</speed>
  <fix>3d</fix>
</trkpt>
<trkpt lat="40.0713751" lon="-105.2297889">
  <ele>1583.0</ele>
  <time>2026-08-28T17:49:21Z</time>
  <course>246.98</course>
  <speed>0.022360679774997897</speed>
  <fix>3d</fix>
</trkpt>
<trkpt lat="40.0713749" lon="-105.229789">
  <ele>1583.0</ele>
  <time>2026-08-28T17:49:21Z</time>
  <course>0.0</course>
  <speed>0.0</speed>
  <fix>3d</fix>
</trkpt>
<trkpt lat="40.0713751" lon="-105.2297889">
  <ele>1582.99</ele>
  <time>2026-08-28T17:49:21Z</time>
  <course>246.98</course>
  <speed>0.022360679774997897</speed>
  <fix>3d</fix>
</trkpt>
<trkpt lat="40.0713749" lon="-105.229789">
  <ele>1583.0</ele>
  <time>2026-08-28T17:49:21Z</time>
  <course>0.0</course>
  <speed>0.0</speed>
  <fix>3d</fix>
</trkpt>
<trkpt lat="40.0713751" lon="-105.2297889">
  <ele>1582.99</ele>
  <time>2026-08-28T17:49:21Z</time>
  <course>246.98</course>
  <speed>0.022360679774997897</speed>
  <fix>3d</fix>
</trkpt>
<trkpt lat="40.0713749" lon="-105.229789">
  <ele>1583.0</ele>
  <time>2026-08-28T17:49:21Z</time>
  <course>0.0</course>
  <speed>0.0</speed>
  <fix>3d</fix>
</trkpt>
<trkpt lat="40.071375" lon="-105.2297889">
  <ele>1582.99</ele>
  <time>2026-08-28T17:49:21Z</time>
  <course>246.98</course>
  <speed>0.022360679774997897</speed>
  <fix>3d</fix>
</trkpt>
<trkpt lat="40.0713749" lon="-105.229789">
  <ele>1583.0</ele>
  <time>2026-08-28T17:49:21Z</time>
  <course>0.0</course>
  <speed>0.0</speed>
  <fix>3d</fix>
</trkpt>
<trkpt lat="40.0713751" lon="-105.2297889">
  <ele>1582.98</ele>
  <time>2026-08-28T17:49:21Z</time>
  <course>246.98</course>
  <speed>0.022360679774997897</speed>
  <fix>3d</fix>
</trkpt>
<trkpt lat="40.0713749" lon="-105.229789">
  <ele>1583.0</ele>
  <time>2026-08-28T17:49:21Z</time>
  <course>0.0</course>
  <speed>0.0</speed>
  <fix>3d</fix>
</trkpt>
<trkpt lat="40.071375" lon="-105.2297889">
  <ele>1582.98</ele>
  <time>2026-08-28T17:49:21Z</time>
  <course>246.98</course>
  <speed>0.022360679774997897</speed>
  <fix>3d</fix>
</trkpt>
<trkpt lat="40.0713749" lon="-105.229789">
  <ele>1583.0</ele>
  <time>2026-08-28T17:49:21Z</time>
  <course>0.0</course>
  <speed>0.0</speed>
  <fix>3d</fix>
</trkpt>
<trkpt lat="40.0713751" lon="-105.2297889">
  <ele>1582.98</ele>
  <time>2026-08-28T17:49:21Z</time>
  <course>246.98</course>
  <speed>0.022360679774997897</speed>
  <fix>3d</fix>
</trkpt>
<trkpt lat="40.0713749" lon="-105.229789">
  <ele>1583.0</ele>
  <time>2026-08-28T17:49:21Z</time>
  <course>0.0</course>
  <speed>0.0</speed>
  <fix>3d</fix>
</trkpt>
<trkpt lat="40.071375" lon="-105.2297889">
  <ele>1582.99</ele>
  <time>2026-08-28T17:49:21Z</time>
  <course>246.98</course>
  <speed>0.022360679774997897</speed>
  <fix>3d</fix>
</trkpt>
<trkpt lat="40.0713749" lon="-105.229789">
  <ele>1583.0</ele>
  <time>2026-08-28T17:49:21Z</time>
  <course>0.0</course>
  <speed>0.0</speed>
  <fix>3d</fix>
</trkpt>
<trkpt lat="40.0713751" lon="-105.2297889">
  <ele>1582.99</ele>
  <time>2026-08-28T17:49:21Z</time>
  <course>246.98</course>
  <speed>0.022360679774997897</speed>
  <fix>3d</fix>
</trkpt>
<trkpt lat="40.0713749" lon="-105.229789">
  <ele>1583.0</ele>
  <time>2026-08-28T17:49:21Z</time>
  <course>0.0</course>
  <speed>0.0</speed>
  <fix>3d</fix>
</trkpt>
<trkpt lat="40.071375" lon="-105.2297889">
  <ele>1582.99</ele>
  <time>2026-08-28T17:49:21Z</time>
  <course>246.98</course>
  <speed>0.022360679774997897</speed>
  <fix>3d</fix>
</trkpt>
<trkpt lat="40.0713749" lon="-105.229789">
  <ele>1583.0</ele>
  <time>2026-08-28T17:49:21Z</time>
  <course>0.0</course>
  <speed>0.0</speed>
  <fix>3d</fix>
</trkpt>
<trkpt lat="40.0713751" lon="-105.2297889">
  <ele>1583.0</ele>
  <time>2026-08-28T17:49:21Z</time>
  <course>246.98</course>
  <speed>0.022360679774997897</speed>
  <fix>3d</fix>
</trkpt>
<trkpt lat="40.0713749" lon="-105.229789">
  <ele>1583.0</ele>
  <time>2026-08-28T17:49:21Z</time>
  <course>0.0</course>
  <speed>0.0</speed>
  <fix>3d</fix>
</trkpt>
<trkpt lat="40.071375" lon="-105.2297889">
  <ele>1583.0</ele>
  <time>2026-08-28T17:49:21Z</time>
  <course>246.98</course>
  <speed>0.022360679774997897</speed>
  <fix>3d</fix>
</trkpt>
<trkpt lat="40.0713749" lon="-105.229789">
  <ele>1583.0</ele>
  <time>2026-08-28T17:49:21Z</time>
  <course>0.0</course>
  <speed>0.0</speed>
  <fix>3d</fix>
</trkpt>
<trkpt lat="40.0713751" lon="-105.2297889">
  <ele>1583.01</ele>
  <time>2026-08-28T17:49:21Z</time>
  <course>246.98</course>
  <speed>0.022360679774997897</speed>
  <fix>3d</fix>
</trkpt>
<trkpt lat="40.0713749" lon="-105.229789">
  <ele>1583.0</ele>
  <time>2026-08-28T17:49:21Z</time>
  <course>0.0</course>
  <speed>0.0</speed>
  <fix>3d</fix>
</trkpt>
<trkpt lat="40.071375" lon="-105.2297889">
  <ele>1583.01</ele>
  <time>2026-08-28T17:49:21Z</time>
  <course>246.98</course>
  <speed>0.022360679774997897</speed>
  <fix>3d</fix>
</trkpt>
<trkpt lat="40.0713749" lon="-105.229789">
  <ele>1583.0</ele>
  <time>2026-08-28T17:49:21Z</time>
  <course>0.0</course>
  <speed>0.0</speed>
  <fix>3d</fix>
</trkpt>
<trkpt lat="40.0713751" lon="-105.2297889">
  <ele>1583.01</ele>
  <time>2026-08-28T17:49:21Z</time>
  <course>246.98</course>
  <speed>0.022360679774997897</speed>
  <fix>3d</fix>
</trkpt>
<trkpt lat="40.0713749" lon="-105.229789">
  <ele>1583.0</ele>
  <time>2026-08-28T17:49:21Z</time>
  <course>0.0</course>
  <speed>0.0</speed>
  <fix>3d</fix>
</trkpt>
<trkpt lat="40.0713751" lon="-105.2297889">
  <ele>1583.01</ele>
  <time>2026-08-28T17:49:21Z</time>
  <course>246.98</course>
  <speed>0.022360679774997897</speed>
  <fix>3d</fix>
</trkpt>
<trkpt lat="40.0713749" lon="-105.229789">
  <ele>1583.0</ele>
  <time>2026-08-28T17:49:21Z</time>
  <course>0.0</course>
  <speed>0.0</speed>
  <fix>3d</fix>
</trkpt>
<trkpt lat="40.0713751" lon="-105.2297889">
  <ele>1583.01</ele>
  <time>2026-08-28T17:49:21Z</time>
  <course>246.98</course>
  <speed>0.022360679774997897</speed>
  <fix>3d</fix>
</trkpt>
<trkpt lat="40.0713749" lon="-105.229789">
  <ele>1583.0</ele>
  <time>2026-08-28T17:49:21Z</time>
  <course>0.0</course>
  <speed>0.0</speed>
  <fix>3d</fix>
</trkpt>
<trkpt lat="40.0713751" lon="-105.2297889">
  <ele>1583.01</ele>
  <time>2026-08-28T17:49:21Z</time>
  <course>246.98</course>
  <speed>0.022360679774997897</speed>
  <fix>3d</fix>
</trkpt>
<trkpt lat="40.0713749" lon="-105.229789">
  <ele>1583.0</ele>
  <time>2026-08-28T17:49:21Z</time>
  <course>0.0</course>
  <speed>0.0</speed>
  <fix>3d</fix>
</trkpt>
<trkpt lat="40.0713751" lon="-105.2297889">
  <ele>1583.0</ele>
  <time>2026-08-28T17:49:21Z</time>
  <course>246.98</course>
  <speed>0.022360679774997897</speed>
  <fix>3d</fix>
</trkpt>
<trkpt lat="40.0713749" lon="-105.229789">
  <ele>1583.0</ele>
  <time>2026-08-28T17:49:21Z</time>
  <course>0.0</course>
  <speed>0.0</speed>
  <fix>3d</fix>
</trkpt>
<trkpt lat="40.0713751" lon="-105.2297889">
  <ele>1583.0</ele>
  <time>2026-08-28T17:49:21Z</time>
  <course>246.98</course>
  <speed>0.022360679774997897</speed>
  <fix>3d</fix>
</trkpt>
<trkpt lat="40.0713749" lon="-105.229789">
  <ele>1583.0</ele>
  <time>2026-08-28T17:49:21Z</time>
  <course>0.0</course>
  <speed>0.0</speed>
  <fix>3d</fix>
</trkpt>
<trkpt lat="40.0713751" lon="-105.2297889">
  <ele>1582.99</ele>
  <time>2026-08-28T17:49:21Z</time>
  <course>246.98</course>
  <speed>0.022360679774997897</speed>
  <fix>3d</fix>
</trkpt>
<trkpt lat="40.0713749" lon="-105.229789">
  <ele>1583.0</ele>
  <time>2026-08-28T17:49:21Z</time>
  <course>0.0</course>
  <speed>0.0</speed>
  <fix>3d</fix>
</trkpt>
<trkpt lat="40.0713751" lon="-105.2297889">
  <ele>1582.98</ele>
  <time>2026-08-28T17:49:21Z</time>
  <course>246.98</course>
  <speed>0.022360679774997897</speed>
  <fix>3d</fix>
</trkpt>
<trkpt lat="40.0713749" lon="-105.229789">
  <ele>1583.0</ele>
  <time>2026-08-28T17:49:21Z</time>
  <course>0.0</course>
  <speed>0.0</speed>
  <fix>3d</fix>
</trkpt>
<trkpt lat="40.0713751" lon="-105.2297889">
  <ele>1582.98</ele>
  <time>2026-08-28T17:49:21Z</time>
  <course>246.98</course>
  <speed>0.022360679774997897</speed>
  <fix>3d</fix>
</trkpt>
<trkpt lat="40.0713749" lon="-105.229789">
  <ele>1583.0</ele>
  <time>2026-08-28T17:49:21Z</time>
  <course>0.0</course>
  <speed>0.0</speed>
  <fix>3d</fix>
</trkpt>
<trkpt lat="40.0713751" lon="-105.2297889">
  <ele>1582.97</ele>
  <time>2026-08-28T17:49:21Z</time>
  <course>246.98</course>
  <speed>0.022360679774997897</speed>
  <fix>3d</fix>
</trkpt>
<trkpt lat="40.0713749" lon="-105.229789">
  <ele>1583.0</ele>
  <time>2026-08-28T17:49:21Z</time>
  <course>0.0</course>
  <speed>0.0</speed>
  <fix>3d</fix>
</trkpt>
<trkpt lat="40.0713751" lon="-105.2297889">
  <ele>1582.97</ele>
  <time>2026-08-28T17:49:21Z</time>
  <course>246.98</course>
  <speed>0.022360679774997897</speed>
  <fix>3d</fix>
</trkpt>
<trkpt lat="40.0713749" lon="-105.229789">
  <ele>1583.0</ele>
  <time>2026-08-28T17:49:21Z</time>
  <course>0.0</course>
  <speed>0.0</speed>
  <fix>3d</fix>
</trkpt>
<trkpt lat="40.0713751" lon="-105.2297889">
  <ele>1582.97</ele>
  <time>2026-08-28T17:49:21Z</time>
  <course>246.98</course>
  <speed>0.022360679774997897</speed>
  <fix>3d</fix>
</trkpt>
<trkpt lat="40.0713749" lon="-105.229789">
  <ele>1583.0</ele>
  <time>2026-08-28T17:49:21Z</time>
  <course>0.0</course>
  <speed>0.0</speed>
  <fix>3d</fix>
</trkpt>
<trkpt lat="40.0713751" lon="-105.2297889">
  <ele>1582.98</ele>
  <time>2026-08-28T17:49:21Z</time>
  <course>246.98</course>
  <speed>0.022360679774997897</speed>
  <fix>3d</fix>
</trkpt>
<trkpt lat="40.0713749" lon="-105.229789">
  <ele>1583.0</ele>
  <time>2026-08-28T17:49:21Z</time>
  <course>0.0</course>
  <speed>0.0</speed>
  <fix>3d</fix>
</trkpt>
<trkpt lat="40.0713751" lon="-105.2297889">
  <ele>1582.99</ele>
  <time>2026-08-28T17:49:21Z</time>
  <course>246.98</course>
  <speed>0.022360679774997897</speed>
  <fix>3d</fix>
</trkpt>
<trkpt lat="40.0713749" lon="-105.229789">
  <ele>1583.0</ele>
  <time>2026-08-28T17:49:21Z</time>
  <course>0.0</course>
  <speed>0.0</speed>
  <fix>3d</fix>
</trkpt>
<trkpt lat="40.0713751" lon="-105.2297889">
  <ele>1582.99</ele>
  <time>2026-08-28T17:49:21Z</time>
  <course>246.98</course>
  <speed>0.022360679774997897</speed>
  <fix>3d</fix>
</trkpt>
<trkpt lat="40.0713749" lon="-105.229789">
  <ele>1583.0</ele>
  <time>2026-08-28T17:49:21Z</time>
  <course>0.0</course>
  <speed>0.0</speed>
  <fix>3d</fix>
</trkpt>
<trkpt lat="40.0713751" lon="-105.2297889">
  <ele>1583.0</ele>
  <time>2026-08-28T17:49:21Z</time>
  <course>246.98</course>
  <speed>0.022360679774997897</speed>
  <fix>3d</fix>
</trkpt>
<trkpt lat="40.0713749" lon="-105.229789">
  <ele>1583.0</ele>
  <time>2026-08-28T17:49:21Z</time>
  <course>0.0</course>
  <speed>0.0</speed>
  <fix>3d</fix>
</trkpt>
<trkpt lat="40.0713751" lon="-105.2297889">
  <ele>1583.01</ele>
  <time>2026-08-28T17:49:21Z</time>
  <course>246.98</course>
  <speed>0.022360679774997897</speed>
  <fix>3d</fix>
</trkpt>
<trkpt lat="40.0713749" lon="-105.229789">
  <ele>1583.0</ele>
  <time>2026-08-28T17:49:21Z</time>
  <course>0.0</course>
  <speed>0.0</speed>
  <fix>3d</fix>
</trkpt>
<trkpt lat="40.0713751" lon="-105.2297889">
  <ele>1583.02</ele>
  <time>2026-08-28T17:49:21Z</time>
  <course>246.98</course>
  <speed>0.022360679774997897</speed>
  <fix>3d</fix>
</trkpt>
<trkpt lat="40.0713749" lon="-105.229789">
  <ele>1583.0</ele>
  <time>2026-08-28T17:49:21Z</time>
  <course>0.0</course>
  <speed>0.0</speed>
  <fix>3d</fix>
</trkpt>
<trkpt lat="40.0713751" lon="-105.2297889">
  <ele>1583.03</ele>
  <time>2026-08-28T17:49:21Z</time>
  <course>246.98</course>
  <speed>0.022360679774997897</speed>
  <fix>3d</fix>
</trkpt>
<trkpt lat="40.0713749" lon="-105.229789">
  <ele>1583.0</ele>
  <time>2026-08-28T17:49:21Z</time>
  <course>0.0</course>
  <speed>0.0</speed>
  <fix>3d</fix>
</trkpt>
<trkpt lat="40.0713751" lon="-105.2297889">
  <ele>1583.04</ele>
  <time>2026-08-28T17:49:21Z</time>
  <course>246.98</course>
  <speed>0.022360679774997897</speed>
  <fix>3d</fix>
</trkpt>
<trkpt lat="40.0713749" lon="-105.229789">
  <ele>1583.0</ele>
  <time>2026-08-28T17:49:21Z</time>
  <course>0.0</course>
  <speed>0.0</speed>
  <fix>3d</fix>
</trkpt>
<trkpt lat="40.0713751" lon="-105.2297889">
  <ele>1583.04</ele>
  <time>2026-08-28T17:49:21Z</time>
  <course>246.98</course>
  <speed>0.022360679774997897</speed>
  <fix>3d</fix>
</trkpt>
<trkpt lat="40.0713749" lon="-105.229789">
  <ele>1583.0</ele>
  <time>2026-08-28T17:49:21Z</time>
  <course>0.0</course>
  <speed>0.0</speed>
  <fix>3d</fix>
</trkpt>
<trkpt lat="40.0713751" lon="-105.2297889">
  <ele>1583.04</ele>
  <time>2026-08-28T17:49:21Z</time>
  <course>246.98</course>
  <speed>0.022360679774997897</speed>
  <fix>3d</fix>
</trkpt>
<trkpt lat="40.0713749" lon="-105.229789">
  <ele>1583.0</ele>
  <time>2026-08-28T17:49:21Z</time>
  <course>0.0</course>
  <speed>0.0</speed>
  <fix>3d</fix>
</trkpt>
<trkpt lat="40.0713751" lon="-105.2297889">
  <ele>1583.05</ele>
  <time>2026-08-28T17:49:21Z</time>
  <course>246.98</course>
  <speed>0.022360679774997897</speed>
  <fix>3d</fix>
</trkpt>
<trkpt lat="40.0713749" lon="-105.229789">
  <ele>1583.0</ele>
  <time>2026-08-28T17:49:21Z</time>
  <course>0.0</course>
  <speed>0.0</speed>
  <fix>3d</fix>
</trkpt>
<trkpt lat="40.0713751" lon="-105.2297889">
  <ele>1583.05</ele>
  <time>2026-08-28T17:49:21Z</time>
  <course>246.98</course>
  <speed>0.022360679774997897</speed>
  <fix>3d</fix>
</trkpt>
<trkpt lat="40.0713749" lon="-105.229789">
  <ele>1583.0</ele>
  <time>2026-08-28T17:49:21Z</time>
  <course>0.0</course>
  <speed>0.0</speed>
  <fix>3d</fix>
</trkpt>
<trkpt lat="40.0713751" lon="-105.2297889">
  <ele>1583.06</ele>
  <time>2026-08-28T17:49:21Z</time>
  <course>246.98</course>
  <speed>0.022360679774997897</speed>
  <fix>3d</fix>
</trkpt>
<trkpt lat="40.0713749" lon="-105.229789">
  <ele>1583.0</ele>
  <time>2026-08-28T17:49:21Z</time>
  <course>0.0</course>
  <speed>0.0</speed>
  <fix>3d</fix>
</trkpt>
<trkpt lat="40.0713751" lon="-105.2297889">
  <ele>1583.06</ele>
  <time>2026-08-28T17:49:21Z</time>
  <course>246.98</course>
  <speed>0.022360679774997897</speed>
  <fix>3d</fix>
</trkpt>
<trkpt lat="40.0713749" lon="-105.229789">
  <ele>1583.0</ele>
  <time>2026-08-28T17:49:21Z</time>
  <course>0.0</course>
  <speed>0.0</speed>
  <fix>3d</fix>
</trkpt>
<trkpt lat="40.0713751" lon="-105.2297889">
  <ele>1583.06</ele>
  <time>2026-08-28T17:49:21Z</time>
  <course>246.98</course>
  <speed>0.022360679774997897</speed>
  <fix>3d</fix>
</trkpt>
<trkpt lat="40.0713749" lon="-105.229789">
  <ele>1583.0</ele>
  <time>2026-08-28T17:49:21Z</time>
  <course>0.0</course>
  <speed>0.0</speed>
  <fix>3d</fix>
</trkpt>
<trkpt lat="40.0713751" lon="-105.2297889">
  <ele>1583.06</ele>
  <time>2026-08-28T17:49:21Z</time>
  <course>246.98</course>
  <speed>0.022360679774997897</speed>
  <fix>3d</fix>
</trkpt>
<trkpt lat="40.0713749" lon="-105.229789">
  <ele>1583.0</ele>
  <time>2026-08-28T17:49:21Z</time>
  <course>0.0</course>
  <speed>0.0</speed>
  <fix>3d</fix>
</trkpt>
<trkpt lat="40.0713751" lon="-105.2297889">
  <ele>1583.07</ele>
  <time>2026-08-28T17:49:21Z</time>
  <course>246.98</course>
  <speed>0.022360679774997897</speed>
  <fix>3d</fix>
</trkpt>
<trkpt lat="40.0713749" lon="-105.229789">
  <ele>1583.0</ele>
  <time>2026-08-28T17:49:21Z</time>
  <course>0.0</course>
  <speed>0.0</speed>
  <fix>3d</fix>
</trkpt>
<trkpt lat="40.0713751" lon="-105.2297889">
  <ele>1583.07</ele>
  <time>2026-08-28T17:49:21Z</time>
  <course>246.98</course>
  <speed>0.022360679774997897</speed>
  <fix>3d</fix>
</trkpt>
<trkpt lat="40.0713749" lon="-105.229789">
  <ele>1583.0</ele>
  <time>2026-08-28T17:49:21Z</time>
  <course>0.0</course>
  <speed>0.0</speed>
  <fix>3d</fix>
</trkpt>
<trkpt lat="40.0713751" lon="-105.2297889">
  <ele>1583.07</ele>
  <time>2026-08-28T17:49:21Z</time>
  <course>246.98</course>
  <speed>0.022360679774997897</speed>
  <fix>3d</fix>
</trkpt>
<trkpt lat="40.0713749" lon="-105.229789">
  <ele>1583.0</ele>
  <time>2026-08-28T17:49:21Z</time>
  <course>0.0</course>
  <speed>0.0</speed>
  <fix>3d</fix>
</trkpt>
<trkpt lat="40.0713751" lon="-105.2297889">
  <ele>1583.07</ele>
  <time>2026-08-28T17:49:21Z</time>
  <course>246.98</course>
  <speed>0.022360679774997897</speed>
  <fix>3d</fix>
</trkpt>
<trkpt lat="40.0713749" lon="-105.229789">
  <ele>1583.0</ele>
  <time>2026-08-28T17:49:21Z</time>
  <course>0.0</course>
  <speed>0.0</speed>
  <fix>3d</fix>
</trkpt>
<trkpt lat="40.0713751" lon="-105.2297889">
  <ele>1583.06</ele>
  <time>2026-08-28T17:49:21Z</time>
  <course>246.98</course>
  <speed>0.022360679774997897</speed>
  <fix>3d</fix>
</trkpt>
<trkpt lat="40.0713749" lon="-105.229789">
  <ele>1583.0</ele>
  <time>2026-08-28T17:49:21Z</time>
  <course>0.0</course>
  <speed>0.0</speed>
  <fix>3d</fix>
</trkpt>
<trkpt lat="40.0713751" lon="-105.2297889">
  <ele>1583.05</ele>
  <time>2026-08-28T17:49:21Z</time>
  <course>246.98</course>
  <speed>0.022360679774997897</speed>
  <fix>3d</fix>
</trkpt>
<trkpt lat="40.0713749" lon="-105.229789">
  <ele>1583.0</ele>
  <time>2026-08-28T17:49:21Z</time>
  <course>0.0</course>
  <speed>0.0</speed>
  <fix>3d</fix>
</trkpt>
<trkpt lat="40.0713751" lon="-105.2297889">
  <ele>1583.05</ele>
  <time>2026-08-28T17:49:21Z</time>
  <course>246.98</course>
  <speed>0.022360679774997897</speed>
  <fix>3d</fix>
</trkpt>
<trkpt lat="40.0713749" lon="-105.229789">
  <ele>1583.0</ele>
  <time>2026-08-28T17:49:21Z</time>
  <course>0.0</course>
  <speed>0.0</speed>
  <fix>3d</fix>
</trkpt>
<trkpt lat="40.0713751" lon="-105.2297889">
  <ele>1583.04</ele>
  <time>2026-08-28T17:49:21Z</time>
  <course>246.98</course>
  <speed>0.022360679774997897</speed>
  <fix>3d</fix>
</trkpt>
<trkpt lat="40.0713749" lon="-105.229789">
  <ele>1583.0</ele>
  <time>2026-08-28T17:49:21Z</time>
  <course>0.0</course>
  <speed>0.0</speed>
  <fix>3d</fix>
</trkpt>
<trkpt lat="40.0713751" lon="-105.2297889">
  <ele>1583.03</ele>
  <time>2026-08-28T17:49:21Z</time>
  <course>246.98</course>
  <speed>0.022360679774997897</speed>
  <fix>3d</fix>
</trkpt>
<trkpt lat="40.0713749" lon="-105.229789">
  <ele>1583.0</ele>
  <time>2026-08-28T17:49:21Z</time>
  <course>0.0</course>
  <speed>0.0</speed>
  <fix>3d</fix>
</trkpt>
<trkpt lat="40.0713751" lon="-105.2297889">
  <ele>1583.03</ele>
  <time>2026-08-28T17:49:21Z</time>
  <course>246.98</course>
  <speed>0.022360679774997897</speed>
  <fix>3d</fix>
</trkpt>
<trkpt lat="40.0713749" lon="-105.229789">
  <ele>1583.0</ele>
  <time>2026-08-28T17:49:21Z</time>
  <course>0.0</course>
  <speed>0.0</speed>
  <fix>3d</fix>
</trkpt>
<trkpt lat="40.0713751" lon="-105.2297889">
  <ele>1583.02</ele>
  <time>2026-08-28T17:49:21Z</time>
  <course>246.98</course>
  <speed>0.022360679774997897</speed>
  <fix>3d</fix>
</trkpt>
<trkpt lat="40.0713749" lon="-105.229789">
  <ele>1583.0</ele>
  <time>2026-08-28T17:49:21Z</time>
  <course>0.0</course>
  <speed>0.0</speed>
  <fix>3d</fix>
</trkpt>
<trkpt lat="40.0713751" lon="-105.2297889">
  <ele>1583.01</ele>
  <time>2026-08-28T17:49:21Z</time>
  <course>246.98</course>
  <speed>0.022360679774997897</speed>
  <fix>3d</fix>
</trkpt>
<trkpt lat="40.0713749" lon="-105.229789">
  <ele>1583.0</ele>
  <time>2026-08-28T17:49:21Z</time>
  <course>0.0</course>
  <speed>0.0</speed>
  <fix>3d</fix>
</trkpt>
<trkpt lat="40.0713751" lon="-105.2297889">
  <ele>1583.01</ele>
  <time>2026-08-28T17:49:21Z</time>
  <course>246.98</course>
  <speed>0.022360679774997897</speed>
  <fix>3d</fix>
</trkpt>
<trkpt lat="40.0713749" lon="-105.229789">
  <ele>1583.0</ele>
  <time>2026-08-28T17:49:21Z</time>
  <course>0.0</course>
  <speed>0.0</speed>
  <fix>3d</fix>
</trkpt>
<trkpt lat="40.0713751" lon="-105.2297889">
  <ele>1583.01</ele>
  <time>2026-08-28T17:49:21Z</time>
  <course>246.98</course>
  <speed>0.022360679774997897</speed>
  <fix>3d</fix>
</trkpt>
<trkpt lat="40.0713749" lon="-105.229789">
  <ele>1583.0</ele>
  <time>2026-08-28T17:49:21Z</time>
  <course>0.0</course>
  <speed>0.0</speed>
  <fix>3d</fix>
</trkpt>
<trkpt lat="40.0713751" lon="-105.2297889">
  <ele>1583.0</ele>
  <time>2026-08-28T17:49:21Z</time>
  <course>246.98</course>
  <speed>0.022360679774997897</speed>
  <fix>3d</fix>
</trkpt>
<trkpt lat="40.0713749" lon="-105.229789">
  <ele>1583.0</ele>
  <time>2026-08-28T17:49:21Z</time>
  <course>0.0</course>
  <speed>0.0</speed>
  <fix>3d</fix>
</trkpt>
<trkpt lat="40.0713751" lon="-105.2297889">
  <ele>1583.0</ele>
  <time>2026-08-28T17:49:21Z</time>
  <course>246.98</course>
  <speed>0.022360679774997897</speed>
  <fix>3d</fix>
</trkpt>
<trkpt lat="40.0713749" lon="-105.229789">
  <ele>1583.0</ele>
  <time>2026-08-28T17:49:21Z</time>
  <course>0.0</course>
  <speed>0.0</speed>
  <fix>3d</fix>
</trkpt>
<trkpt lat="40.0713751" lon="-105.2297889">
  <ele>1583.0</ele>
  <time>2026-08-28T17:49:21Z</time>
  <course>246.98</course>
  <speed>0.022360679774997897</speed>
  <fix>3d</fix>
</trkpt>
<trkpt lat="40.0713749" lon="-105.229789">
  <ele>1583.0</ele>
  <time>2026-08-28T17:49:21Z</time>
  <course>0.0</course>
  <speed>0.0</speed>
  <fix>3d</fix>
</trkpt>
<trkpt lat="40.0713751" lon="-105.2297889">
  <ele>1583.0</ele>
  <time>2026-08-28T17:49:21Z</time>
  <course>246.98</course>
  <speed>0.022360679774997897</speed>
  <fix>3d</fix>
</trkpt>
<trkpt lat="40.0713749" lon="-105.229789">
  <ele>1583.0</ele>
  <time>2026-08-28T17:49:21Z</time>
  <course>0.0</course>
  <speed>0.0</speed>
  <fix>3d</fix>
</trkpt>
<trkpt lat="40.0713751" lon="-105.2297889">
  <ele>1583.0</ele>
  <time>2026-08-28T17:49:21Z</time>
  <course>246.98</course>
  <speed>0.022360679774997897</speed>
  <fix>3d</fix>
</trkpt>
<trkpt lat="40.0713749" lon="-105.229789">
  <ele>1583.0</ele>
  <time>2026-08-28T17:49:21Z</time>
  <course>0.0</course>
  <speed>0.0</speed>
  <fix>3d</fix>
</trkpt>
<trkpt lat="40.0713751" lon="-105.2297889">
  <ele>1582.99</ele>
  <time>2026-08-28T17:49:21Z</time>
  <course>246.98</course>
  <speed>0.022360679774997897</speed>
  <fix>3d</fix>
</trkpt>
<trkpt lat="40.0713749" lon="-105.229789">
  <ele>1583.0</ele>
  <time>2026-08-28T17:49:21Z</time>
  <course>0.0</course>
  <speed>0.0</speed>
  <fix>3d</fix>
</trkpt>
<trkpt lat="40.0713751" lon="-105.2297889">
  <ele>1582.99</ele>
  <time>2026-08-28T17:49:21Z</time>
  <course>246.98</course>
  <speed>0.022360679774997897</speed>
  <fix>3d</fix>
</trkpt>
<trkpt lat="40.0713749" lon="-105.229789">
  <ele>1583.0</ele>
  <time>2026-08-28T17:49:21Z</time>
  <course>0.0</course>
  <speed>0.0</speed>
  <fix>3d</fix>
</trkpt>
<trkpt lat="40.0713751" lon="-105.2297889">
  <ele>1582.99</ele>
  <time>2026-08-28T17:49:21Z</time>
  <course>246.98</course>
  <speed>0.022360679774997897</speed>
  <fix>3d</fix>
</trkpt>
<trkpt lat="40.0713749" lon="-105.229789">
  <ele>1583.0</ele>
  <time>2026-08-28T17:49:21Z</time>
  <course>0.0</course>
  <speed>0.0</speed>
  <fix>3d</fix>
</trkpt>
<trkpt lat="40.0713751" lon="-105.2297889">
  <ele>1582.99</ele>
  <time>2026-08-28T17:49:21Z</time>
  <course>246.98</course>
  <speed>0.022360679774997897</speed>
  <fix>3d</fix>
</trkpt>
<trkpt lat="40.0713749" lon="-105.229789">
  <ele>1583.0</ele>
  <time>2026-08-28T17:49:21Z</time>
  <course>0.0</course>
  <speed>0.0</speed>
  <fix>3d</fix>
</trkpt>
<trkpt lat="40.0713751" lon="-105.2297889">
  <ele>1582.99</ele>
  <time>2026-08-28T17:49:21Z</time>
  <course>246.98</course>
  <speed>0.022360679774997897</speed>
  <fix>3d</fix>
</trkpt>
<trkpt lat="40.0713749" lon="-105.229789">
  <ele>1583.0</ele>
  <time>2026-08-28T17:49:21Z</time>
  <course>0.0</course>
  <speed>0.0</speed>
  <fix>3d</fix>
</trkpt>
<trkpt lat="40.0713751" lon="-105.2297889">
  <ele>1582.99</ele>
  <time>2026-08-28T17:49:21Z</time>
  <course>246.98</course>
  <speed>0.022360679774997897</speed>
  <fix>3d</fix>
</trkpt>
<trkpt lat="40.0713749" lon="-105.229789">
  <ele>1583.0</ele>
  <time>2026-08-28T17:49:21Z</time>
  <course>0.0</course>
  <speed>0.0</speed>
  <fix>3d</fix>
</trkpt>
<trkpt lat="40.0713751" lon="-105.2297889">
  <ele>1582.99</ele>
  <time>2026-08-28T17:49:21Z</time>
  <course>246.98</course>
  <speed>0.022360679774997897</speed>
  <fix>3d</fix>
</trkpt>
<trkpt lat="40.0713749" lon="-105.229789">
  <ele>1583.0</ele>
  <time>2026-08-28T17:49:21Z</time>
  <course>0.0</course>
  <speed>0.0</speed>
  <fix>3d</fix>
</trkpt>
<trkpt lat="40.0713751" lon="-105.2297889">
  <ele>1583.0</ele>
  <time>2026-08-28T17:49:21Z</time>
  <course>246.98</course>
  <speed>0.022360679774997897</speed>
  <fix>3d</fix>
</trkpt>
<trkpt lat="40.0713749" lon="-105.229789">
  <ele>1583.0</ele>
  <time>2026-08-28T17:49:21Z</time>
  <course>0.0</course>
  <speed>0.0</speed>
  <fix>3d</fix>
</trkpt>
<trkpt lat="40.0713751" lon="-105.2297889">
  <ele>1583.0</ele>
  <time>2026-08-28T17:49:21Z</time>
  <course>246.98</course>
  <speed>0.022360679774997897</speed>
  <fix>3d</fix>
</trkpt>
<trkpt lat="40.0713749" lon="-105.229789">
  <ele>1583.0</ele>
  <time>2026-08-28T17:49:21Z</time>
  <course>0.0</course>
  <speed>0.0</speed>
  <fix>3d</fix>
</trkpt>
<trkpt lat="40.0713751" lon="-105.2297889">
  <ele>1583.01</ele>
  <time>2026-08-28T17:49:21Z</time>
  <course>246.98</course>
  <speed>0.022360679774997897</speed>
  <fix>3d</fix>
</trkpt>
<trkpt lat="40.0713749" lon="-105.229789">
  <ele>1583.0</ele>
  <time>2026-08-28T17:49:21Z</time>
  <course>0.0</course>
  <speed>0.0</speed>
  <fix>3d</fix>
</trkpt>
<trkpt lat="40.0713751" lon="-105.2297889">
  <ele>1583.01</ele>
  <time>2026-08-28T17:49:21Z</time>
  <course>246.98</course>
  <speed>0.022360679774997897</speed>
  <fix>3d</fix>
</trkpt>
<trkpt lat="40.0713749" lon="-105.229789">
  <ele>1583.0</ele>
  <time>2026-08-28T17:49:21Z</time>
  <course>0.0</course>
  <speed>0.0</speed>
  <fix>3d</fix>
</trkpt>
<trkpt lat="40.0713751" lon="-105.2297889">
  <ele>1583.02</ele>
  <time>2026-08-28T17:49:21Z</time>
  <course>246.98</course>
  <speed>0.022360679774997897</speed>
  <fix>3d</fix>
</trkpt>
<trkpt lat="40.0713749" lon="-105.229789">
  <ele>1583.0</ele>
  <time>2026-08-28T17:49:21Z</time>
  <course>0.0</course>
  <speed>0.0</speed>
  <fix>3d</fix>
</trkpt>
<trkpt lat="40.0713751" lon="-105.2297889">
  <ele>1583.02</ele>
  <time>2026-08-28T17:49:21Z</time>
  <course>246.98</course>
  <speed>0.022360679774997897</speed>
  <fix>3d</fix>
</trkpt>
<trkpt lat="40.0713749" lon="-105.229789">
  <ele>1583.0</ele>
  <time>2026-08-28T17:49:21Z</time>
  <course>0.0</course>
  <speed>0.0</speed>
  <fix>3d</fix>
</trkpt>
<trkpt lat="40.0713751" lon="-105.2297889">
  <ele>1583.03</ele>
  <time>2026-08-28T17:49:21Z</time>
  <course>246.98</course>
  <speed>0.022360679774997897</speed>
  <fix>3d</fix>
</trkpt>
<trkpt lat="40.0713749" lon="-105.229789">
  <ele>1583.0</ele>
  <time>2026-08-28T17:49:21Z</time>
  <course>0.0</course>
  <speed>0.0</speed>
  <fix>3d</fix>
</trkpt>
<trkpt lat="40.0713751" lon="-105.2297889">
  <ele>1583.04</ele>
  <time>2026-08-28T17:49:21Z</time>
  <course>246.98</course>
  <speed>0.022360679774997897</speed>
  <fix>3d</fix>
</trkpt>
<trkpt lat="40.0713749" lon="-105.229789">
  <ele>1583.0</ele>
  <time>2026-08-28T17:49:21Z</time>
  <course>0.0</course>
  <speed>0.0</speed>
  <fix>3d</fix>
</trkpt>
<trkpt lat="40.0713751" lon="-105.2297889">
  <ele>1583.04</ele>
  <time>2026-08-28T17:49:21Z</time>
  <course>246.98</course>
  <speed>0.022360679774997897</speed>
  <fix>3d</fix>
</trkpt>
<trkpt lat="40.0713749" lon="-105.229789">
  <ele>1583.0</ele>
  <time>2026-08-28T17:49:21Z</time>
  <course>0.0</course>
  <speed>0.0</speed>
  <fix>3d</fix>
</trkpt>
<trkpt lat="40.0713751" lon="-105.2297889">
  <ele>1583.04</ele>
  <time>2026-08-28T17:49:21Z</time>
  <course>246.98</course>
  <speed>0.022360679774997897</speed>
  <fix>3d</fix>
</trkpt>
<trkpt lat="40.0713749" lon="-105.229789">
  <ele>1583.0</ele>
  <time>2026-08-28T17:49:21Z</time>
  <course>0.0</course>
  <speed>0.0</speed>
  <fix>3d</fix>
</trkpt>
<trkpt lat="40.0713751" lon="-105.2297889">
  <ele>1583.05</ele>
  <time>2026-08-28T17:49:21Z</time>
  <course>246.98</course>
  <speed>0.022360679774997897</speed>
  <fix>3d</fix>
</trkpt>
<trkpt lat="40.0713749" lon="-105.229789">
  <ele>1583.0</ele>
  <time>2026-08-28T17:49:21Z</time>
  <course>0.0</course>
  <speed>0.0</speed>
  <fix>3d</fix>
</trkpt>
<trkpt lat="40.0713751" lon="-105.2297889">
  <ele>1583.05</ele>
  <time>2026-08-28T17:49:21Z</time>
  <course>246.98</course>
  <speed>0.022360679774997897</speed>
  <fix>3d</fix>
</trkpt>
<trkpt lat="40.0713749" lon="-105.229789">
  <ele>1583.0</ele>
  <time>2026-08-28T17:49:21Z</time>
  <course>0.0</course>
  <speed>0.0</speed>
  <fix>3d</fix>
</trkpt>
<trkpt lat="40.0713751" lon="-105.2297889">
  <ele>1583.05</ele>
  <time>2026-08-28T17:49:21Z</time>
  <course>246.98</course>
  <speed>0.022360679774997897</speed>
  <fix>3d</fix>
</trkpt>
<trkpt lat="40.0713749" lon="-105.229789">
  <ele>1583.0</ele>
  <time>2026-08-28T17:49:21Z</time>
  <course>0.0</course>
  <speed>0.0</speed>
  <fix>3d</fix>
</trkpt>
<trkpt lat="40.0713751" lon="-105.2297889">
  <ele>1583.05</ele>
  <time>2026-08-28T17:49:21Z</time>
  <course>246.98</course>
  <speed>0.022360679774997897</speed>
  <fix>3d</fix>
</trkpt>
<trkpt lat="40.0713749" lon="-105.229789">
  <ele>1583.0</ele>
  <time>2026-08-28T17:49:21Z</time>
  <course>0.0</course>
  <speed>0.0</speed>
  <fix>3d</fix>
</trkpt>
<trkpt lat="40.0713751" lon="-105.2297889">
  <ele>1583.06</ele>
  <time>2026-08-28T17:49:21Z</time>
  <course>246.98</course>
  <speed>0.022360679774997897</speed>
  <fix>3d</fix>
</trkpt>
<trkpt lat="40.0713749" lon="-105.229789">
  <ele>1583.0</ele>
  <time>2026-08-28T17:49:21Z</time>
  <course>0.0</course>
  <speed>0.0</speed>
  <fix>3d</fix>
</trkpt>
<trkpt lat="40.0713751" lon="-105.2297889">
  <ele>1583.06</ele>
  <time>2026-08-28T17:49:21Z</time>
  <course>246.98</course>
  <speed>0.022360679774997897</speed>
  <fix>3d</fix>
</trkpt>
<trkpt lat="40.0713749" lon="-105.229789">
  <ele>1583.0</ele>
  <time>2026-08-28T17:49:21Z</time>
  <course>0.0</course>
  <speed>0.0</speed>
  <fix>3d</fix>
</trkpt>
<trkpt lat="40.0713751" lon="-105.2297889">
  <ele>1583.06</ele>
  <time>2026-08-28T17:49:21Z</time>
  <course>246.98</course>
  <speed>0.022360679774997897</speed>
  <fix>3d</fix>
</trkpt>
<trkpt lat="40.0713749" lon="-105.229789">
  <ele>1583.0</ele>
  <time>2026-08-28T17:49:21Z</time>
  <course>0.0</course>
  <speed>0.0</speed>
  <fix>3d</fix>
</trkpt>
<trkpt lat="40.071375" lon="-105.2297889">
  <ele>1583.05</ele>
  <time>2026-08-28T17:49:21Z</time>
  <course>246.98</course>
  <speed>0.022360679774997897</speed>
  <fix>3d</fix>
</trkpt>
<trkpt lat="40.0713749" lon="-105.229789">
  <ele>1583.0</ele>
  <time>2026-08-28T17:49:21Z</time>
  <course>0.0</course>
  <speed>0.0</speed>
  <fix>3d</fix>
</trkpt>
<trkpt lat="40.0713751" lon="-105.2297889">
  <ele>1583.05</ele>
  <time>2026-08-28T17:49:21Z</time>
  <course>246.98</course>
  <speed>0.022360679774997897</speed>
  <fix>3d</fix>
</trkpt>
<trkpt lat="40.0713749" lon="-105.229789">
  <ele>1583.0</ele>
  <time>2026-08-28T17:49:21Z</time>
  <course>0.0</course>
  <speed>0.0</speed>
  <fix>3d</fix>
</trkpt>
<trkpt lat="40.071375" lon="-105.2297889">
  <ele>1583.04</ele>
  <time>2026-08-28T17:49:21Z</time>
  <course>246.98</course>
  <speed>0.022360679774997897</speed>
  <fix>3d</fix>
</trkpt>
<trkpt lat="40.0713749" lon="-105.229789">
  <ele>1583.0</ele>
  <time>2026-08-28T17:49:21Z</time>
  <course>0.0</course>
  <speed>0.0</speed>
  <fix>3d</fix>
</trkpt>
<trkpt lat="40.0713751" lon="-105.2297889">
  <ele>1583.04</ele>
  <time>2026-08-28T17:49:21Z</time>
  <course>246.98</course>
  <speed>0.022360679774997897</speed>
  <fix>3d</fix>
</trkpt>
<trkpt lat="40.0713749" lon="-105.229789">
  <ele>1583.0</ele>
  <time>2026-08-28T17:49:21Z</time>
  <course>0.0</course>
  <speed>0.0</speed>
  <fix>3d</fix>
</trkpt>
<trkpt lat="40.071375" lon="-105.2297889">
  <ele>1583.03</ele>
  <time>2026-08-28T17:49:21Z</time>
  <course>246.98</course>
  <speed>0.022360679774997897</speed>
  <fix>3d</fix>
</trkpt>
<trkpt lat="40.0713749" lon="-105.229789">
  <ele>1583.0</ele>
  <time>2026-08-28T17:49:21Z</time>
  <course>0.0</course>
  <speed>0.0</speed>
  <fix>3d</fix>
</trkpt>
<trkpt lat="40.0713751" lon="-105.2297889">
  <ele>1583.02</ele>
  <time>2026-08-28T17:49:21Z</time>
  <course>246.98</course>
  <speed>0.022360679774997897</speed>
  <fix>3d</fix>
</trkpt>
<trkpt lat="40.0713749" lon="-105.229789">
  <ele>1583.0</ele>
  <time>2026-08-28T17:49:21Z</time>
  <course>0.0</course>
  <speed>0.0</speed>
  <fix>3d</fix>
</trkpt>
<trkpt lat="40.071375" lon="-105.2297889">
  <ele>1583.01</ele>
  <time>2026-08-28T17:49:21Z</time>
  <course>246.98</course>
  <speed>0.022360679774997897</speed>
  <fix>3d</fix>
</trkpt>
<trkpt lat="40.0713749" lon="-105.229789">
  <ele>1583.0</ele>
  <time>2026-08-28T17:49:21Z</time>
  <course>0.0</course>
  <speed>0.0</speed>
  <fix>3d</fix>
</trkpt>
<trkpt lat="40.0713751" lon="-105.2297889">
  <ele>1583.01</ele>
  <time>2026-08-28T17:49:21Z</time>
  <course>246.98</course>
  <speed>0.022360679774997897</speed>
  <fix>3d</fix>
</trkpt>
<trkpt lat="40.0713749" lon="-105.229789">
  <ele>1583.0</ele>
  <time>2026-08-28T17:49:21Z</time>
  <course>0.0</course>
  <speed>0.0</speed>
  <fix>3d</fix>
</trkpt>
<trkpt lat="40.071375" lon="-105.2297889">
  <ele>1583.01</ele>
  <time>2026-08-28T17:49:21Z</time>
  <course>246.98</course>
  <speed>0.022360679774997897</speed>
  <fix>3d</fix>
</trkpt>
<trkpt lat="40.0713749" lon="-105.229789">
  <ele>1583.0</ele>
  <time>2026-08-28T17:49:21Z</time>
  <course>0.0</course>
  <speed>0.0</speed>
  <fix>3d</fix>
</trkpt>
<trkpt lat="40.0713751" lon="-105.2297889">
  <ele>1583.0</ele>
  <time>2026-08-28T17:49:21Z</time>
  <course>246.98</course>
  <speed>0.022360679774997897</speed>
  <fix>3d</fix>
</trkpt>
<trkpt lat="40.0713749" lon="-105.229789">
  <ele>1583.0</ele>
  <time>2026-08-28T17:49:21Z</time>
  <course>0.0</course>
  <speed>0.0</speed>
  <fix>3d</fix>
</trkpt>
<trkpt lat="40.071375" lon="-105.2297889">
  <ele>1583.0</ele>
  <time>2026-08-28T17:49:21Z</time>
  <course>246.98</course>
  <speed>0.022360679774997897</speed>
  <fix>3d</fix>
</trkpt>
<trkpt lat="40.0713749" lon="-105.229789">
  <ele>1583.0</ele>
  <time>2026-08-28T17:49:21Z</time>
  <course>0.0</course>
  <speed>0.0</speed>
  <fix>3d</fix>
</trkpt>
<trkpt lat="40.0713751" lon="-105.2297889">
  <ele>1582.99</ele>
  <time>2026-08-28T17:49:21Z</time>
  <course>246.98</course>
  <speed>0.022360679774997897</speed>
  <fix>3d</fix>
</trkpt>
<trkpt lat="40.0713749" lon="-105.229789">
  <ele>1583.0</ele>
  <time>2026-08-28T17:49:21Z</time>
  <course>0.0</course>
  <speed>0.0</speed>
  <fix>3d</fix>
</trkpt>
<trkpt lat="40.0713751" lon="-105.2297889">
  <ele>1582.98</ele>
  <time>2026-08-28T17:49:21Z</time>
  <course>246.98</course>
  <speed>0.022360679774997897</speed>
  <fix>3d</fix>
</trkpt>
<trkpt lat="40.0713749" lon="-105.229789">
  <ele>1583.0</ele>
  <time>2026-08-28T17:49:21Z</time>
  <course>0.0</course>
  <speed>0.0</speed>
  <fix>3d</fix>
</trkpt>
<trkpt lat="40.0713751" lon="-105.2297889">
  <ele>1582.97</ele>
  <time>2026-08-28T17:49:21Z</time>
  <course>246.98</course>
  <speed>0.022360679774997897</speed>
  <fix>3d</fix>
</trkpt>
<trkpt lat="40.0713749" lon="-105.229789">
  <ele>1583.0</ele>
  <time>2026-08-28T17:49:21Z</time>
  <course>0.0</course>
  <speed>0.0</speed>
  <fix>3d</fix>
</trkpt>
<trkpt lat="40.0713751" lon="-105.2297889">
  <ele>1582.96</ele>
  <time>2026-08-28T17:49:21Z</time>
  <course>246.98</course>
  <speed>0.022360679774997897</speed>
  <fix>3d</fix>
</trkpt>
<trkpt lat="40.0713749" lon="-105.229789">
  <ele>1583.0</ele>
  <time>2026-08-28T17:49:21Z</time>
  <course>0.0</course>
  <speed>0.0</speed>
  <fix>3d</fix>
</trkpt>
<trkpt lat="40.0713751" lon="-105.2297889">
  <ele>1582.96</ele>
  <time>2026-08-28T17:49:21Z</time>
  <course>246.98</course>
  <speed>0.022360679774997897</speed>
  <fix>3d</fix>
</trkpt>
<trkpt lat="40.0713749" lon="-105.229789">
  <ele>1583.0</ele>
  <time>2026-08-28T17:49:21Z</time>
  <course>0.0</course>
  <speed>0.0</speed>
  <fix>3d</fix>
</trkpt>
<trkpt lat="40.0713751" lon="-105.2297889">
  <ele>1582.95</ele>
  <time>2026-08-28T17:49:21Z</time>
  <course>246.98</course>
  <speed>0.022360679774997897</speed>
  <fix>3d</fix>
</trkpt>
<trkpt lat="40.0713749" lon="-105.229789">
  <ele>1583.0</ele>
  <time>2026-08-28T17:49:21Z</time>
  <course>0.0</course>
  <speed>0.0</speed>
  <fix>3d</fix>
</trkpt>
<trkpt lat="40.0713751" lon="-105.2297889">
  <ele>1582.95</ele>
  <time>2026-08-28T17:49:21Z</time>
  <course>246.98</course>
  <speed>0.022360679774997897</speed>
  <fix>3d</fix>
</trkpt>
<trkpt lat="40.0713749" lon="-105.229789">
  <ele>1583.0</ele>
  <time>2026-08-28T17:49:21Z</time>
  <course>0.0</course>
  <speed>0.0</speed>
  <fix>3d</fix>
</trkpt>
<trkpt lat="40.0713751" lon="-105.2297889">
  <ele>1582.94</ele>
  <time>2026-08-28T17:49:21Z</time>
  <course>246.98</course>
  <speed>0.022360679774997897</speed>
  <fix>3d</fix>
</trkpt>
<trkpt lat="40.0713749" lon="-105.229789">
  <ele>1583.0</ele>
  <time>2026-08-28T17:49:21Z</time>
  <course>0.0</course>
  <speed>0.0</speed>
  <fix>3d</fix>
</trkpt>
<trkpt lat="40.0713751" lon="-105.2297889">
  <ele>1582.94</ele>
  <time>2026-08-28T17:49:21Z</time>
  <course>246.98</course>
  <speed>0.022360679774997897</speed>
  <fix>3d</fix>
</trkpt>
<trkpt lat="40.0713749" lon="-105.229789">
  <ele>1583.0</ele>
  <time>2026-08-28T17:49:21Z</time>
  <course>0.0</course>
  <speed>0.0</speed>
  <fix>3d</fix>
</trkpt>
<trkpt lat="40.071375" lon="-105.2297889">
  <ele>1582.94</ele>
  <time>2026-08-28T17:49:21Z</time>
  <course>246.98</course>
  <speed>0.022360679774997897</speed>
  <fix>3d</fix>
</trkpt>
<trkpt lat="40.0713749" lon="-105.229789">
  <ele>1583.0</ele>
  <time>2026-08-28T17:49:21Z</time>
  <course>0.0</course>
  <speed>0.0</speed>
  <fix>3d</fix>
</trkpt>
<trkpt lat="40.0713751" lon="-105.2297889">
  <ele>1582.94</ele>
  <time>2026-08-28T17:49:21Z</time>
  <course>246.98</course>
  <speed>0.022360679774997897</speed>
  <fix>3d</fix>
</trkpt>
<trkpt lat="40.0713749" lon="-105.229789">
  <ele>1583.0</ele>
  <time>2026-08-28T17:49:21Z</time>
  <course>0.0</course>
  <speed>0.0</speed>
  <fix>3d</fix>
</trkpt>
<trkpt lat="40.071375" lon="-105.2297889">
  <ele>1582.93</ele>
  <time>2026-08-28T17:49:21Z</time>
  <course>246.98</course>
  <speed>0.022360679774997897</speed>
  <fix>3d</fix>
</trkpt>
<trkpt lat="40.0713749" lon="-105.229789">
  <ele>1583.0</ele>
  <time>2026-08-28T17:49:21Z</time>
  <course>0.0</course>
  <speed>0.0</speed>
  <fix>3d</fix>
</trkpt>
<trkpt lat="40.0713751" lon="-105.2297889">
  <ele>1582.93</ele>
  <time>2026-08-28T17:49:21Z</time>
  <course>246.98</course>
  <speed>0.022360679774997897</speed>
  <fix>3d</fix>
</trkpt>
<trkpt lat="40.0713749" lon="-105.229789">
  <ele>1583.0</ele>
  <time>2026-08-28T17:49:21Z</time>
  <course>0.0</course>
  <speed>0.0</speed>
  <fix>3d</fix>
</trkpt>
<trkpt lat="40.071375" lon="-105.2297889">
  <ele>1582.93</ele>
  <time>2026-08-28T17:49:21Z</time>
  <course>246.98</course>
  <speed>0.022360679774997897</speed>
  <fix>3d</fix>
</trkpt>
<trkpt lat="40.0713749" lon="-105.229789">
  <ele>1583.0</ele>
  <time>2026-08-28T17:49:21Z</time>
  <course>0.0</course>
  <speed>0.0</speed>
  <fix>3d</fix>
</trkpt>
<trkpt lat="40.0713751" lon="-105.2297889">
  <ele>1582.92</ele>
  <time>2026-08-28T17:49:21Z</time>
  <course>246.98</course>
  <speed>0.022360679774997897</speed>
  <fix>3d</fix>
</trkpt>
<trkpt lat="40.0713749" lon="-105.229789">
  <ele>1583.0</ele>
  <time>2026-08-28T17:49:21Z</time>
  <course>0.0</course>
  <speed>0.0</speed>
  <fix>3d</fix>
</trkpt>
<trkpt lat="40.071375" lon="-105.2297889">
  <ele>1582.92</ele>
  <time>2026-08-28T17:49:21Z</time>
  <course>246.98</course>
  <speed>0.022360679774997897</speed>
  <fix>3d</fix>
</trkpt>
<trkpt lat="40.0713749" lon="-105.229789">
  <ele>1583.0</ele>
  <time>2026-08-28T17:49:21Z</time>
  <course>0.0</course>
  <speed>0.0</speed>
  <fix>3d</fix>
</trkpt>
<trkpt lat="40.0713751" lon="-105.2297889">
  <ele>1582.92</ele>
  <time>2026-08-28T17:49:21Z</time>
  <course>246.98</course>
  <speed>0.022360679774997897</speed>
  <fix>3d</fix>
</trkpt>
<trkpt lat="40.0713749" lon="-105.229789">
  <ele>1583.0</ele>
  <time>2026-08-28T17:49:21Z</time>
  <course>0.0</course>
  <speed>0.0</speed>
  <fix>3d</fix>
</trkpt>
<trkpt lat="40.071375" lon="-105.2297889">
  <ele>1582.92</ele>
  <time>2026-08-28T17:49:21Z</time>
  <course>246.98</course>
  <speed>0.022360679774997897</speed>
  <fix>3d</fix>
</trkpt>
<trkpt lat="40.0713749" lon="-105.229789">
  <ele>1583.0</ele>
  <time>2026-08-28T17:49:21Z</time>
  <course>0.0</course>
  <speed>0.0</speed>
  <fix>3d</fix>
</trkpt>
<trkpt lat="40.0713751" lon="-105.2297889">
  <ele>1582.92</ele>
  <time>2026-08-28T17:49:21Z</time>
  <course>246.98</course>
  <speed>0.022360679774997897</speed>
  <fix>3d</fix>
</trkpt>
<trkpt lat="40.0713749" lon="-105.229789">
  <ele>1583.0</ele>
  <time>2026-08-28T17:49:21Z</time>
  <course>0.0</course>
  <speed>0.0</speed>
  <fix>3d</fix>
</trkpt>
<trkpt lat="40.071375" lon="-105.2297889">
  <ele>1582.92</ele>
  <time>2026-08-28T17:49:21Z</time>
  <course>246.98</course>
  <speed>0.022360679774997897</speed>
  <fix>3d</fix>
</trkpt>
<trkpt lat="40.0713749" lon="-105.229789">
  <ele>1583.0</ele>
  <time>2026-08-28T17:49:21Z</time>
  <course>0.0</course>
  <speed>0.0</speed>
  <fix>3d</fix>
</trkpt>
<trkpt lat="40.0713751" lon="-105.2297889">
  <ele>1582.92</ele>
  <time>2026-08-28T17:49:21Z</time>
  <course>246.98</course>
  <speed>0.022360679774997897</speed>
  <fix>3d</fix>
</trkpt>
<trkpt lat="40.0713749" lon="-105.229789">
  <ele>1583.0</ele>
  <time>2026-08-28T17:49:21Z</time>
  <course>0.0</course>
  <speed>0.0</speed>
  <fix>3d</fix>
</trkpt>
<trkpt lat="40.071375" lon="-105.2297889">
  <ele>1582.92</ele>
  <time>2026-08-28T17:49:21Z</time>
  <course>246.98</course>
  <speed>0.022360679774997897</speed>
  <fix>3d</fix>
</trkpt>
<trkpt lat="40.0713749" lon="-105.229789">
  <ele>1583.0</ele>
  <time>2026-08-28T17:49:21Z</time>
  <course>0.0</course>
  <speed>0.0</speed>
  <fix>3d</fix>
</trkpt>
<trkpt lat="40.0713751" lon="-105.2297889">
  <ele>1582.91</ele>
  <time>2026-08-28T17:49:21Z</time>
  <course>246.98</course>
  <speed>0.022360679774997897</speed>
  <fix>3d</fix>
</trkpt>
<trkpt lat="40.0713749" lon="-105.229789">
  <ele>1583.0</ele>
  <time>2026-08-28T17:49:21Z</time>
  <course>0.0</course>
  <speed>0.0</speed>
  <fix>3d</fix>
</trkpt>
<trkpt lat="40.0713751" lon="-105.2297889">
  <ele>1582.91</ele>
  <time>2026-08-28T17:49:21Z</time>
  <course>246.98</course>
  <speed>0.022360679774997897</speed>
  <fix>3d</fix>
</trkpt>
<trkpt lat="40.0713749" lon="-105.229789">
  <ele>1583.0</ele>
  <time>2026-08-28T17:49:21Z</time>
  <course>0.0</course>
  <speed>0.0</speed>
  <fix>3d</fix>
</trkpt>
<trkpt lat="40.0713751" lon="-105.2297889">
  <ele>1582.91</ele>
  <time>2026-08-28T17:49:21Z</time>
  <course>246.98</course>
  <speed>0.022360679774997897</speed>
  <fix>3d</fix>
</trkpt>
<trkpt lat="40.0713749" lon="-105.229789">
  <ele>1583.0</ele>
  <time>2026-08-28T17:49:21Z</time>
  <course>0.0</course>
  <speed>0.0</speed>
  <fix>3d</fix>
</trkpt>
<trkpt lat="40.0713751" lon="-105.2297889">
  <ele>1582.91</ele>
  <time>2026-08-28T17:49:21Z</time>
  <course>246.98</course>
  <speed>0.022360679774997897</speed>
  <fix>3d</fix>
</trkpt>
<trkpt lat="40.0713749" lon="-105.229789">
  <ele>1583.0</ele>
  <time>2026-08-28T17:49:21Z</time>
  <course>0.0</course>
  <speed>0.0</speed>
  <fix>3d</fix>
</trkpt>
<trkpt lat="40.0713751" lon="-105.2297889">
  <ele>1582.9</ele>
  <time>2026-08-28T17:49:21Z</time>
  <course>246.98</course>
  <speed>0.022360679774997897</speed>
  <fix>3d</fix>
</trkpt>
<trkpt lat="40.0713749" lon="-105.229789">
  <ele>1583.0</ele>
  <time>2026-08-28T17:49:21Z</time>
  <course>0.0</course>
  <speed>0.0</speed>
  <fix>3d</fix>
</trkpt>
<trkpt lat="40.0713751" lon="-105.2297889">
  <ele>1582.9</ele>
  <time>2026-08-28T17:49:21Z</time>
  <course>246.98</course>
  <speed>0.022360679774997897</speed>
  <fix>3d</fix>
</trkpt>
<trkpt lat="40.0713749" lon="-105.229789">
  <ele>1583.0</ele>
  <time>2026-08-28T17:49:21Z</time>
  <course>0.0</course>
  <speed>0.0</speed>
  <fix>3d</fix>
</trkpt>
<trkpt lat="40.0713751" lon="-105.2297889">
  <ele>1582.9</ele>
  <time>2026-08-28T17:49:21Z</time>
  <course>246.98</course>
  <speed>0.022360679774997897</speed>
  <fix>3d</fix>
</trkpt>
<trkpt lat="40.0713749" lon="-105.229789">
  <ele>1583.0</ele>
  <time>2026-08-28T17:49:21Z</time>
  <course>0.0</course>
  <speed>0.0</speed>
  <fix>3d</fix>
</trkpt>
<trkpt lat="40.071375" lon="-105.2297889">
  <ele>1582.9</ele>
  <time>2026-08-28T17:49:21Z</time>
  <course>246.98</course>
  <speed>0.022360679774997897</speed>
  <fix>3d</fix>
</trkpt>
<trkpt lat="40.0713749" lon="-105.229789">
  <ele>1583.0</ele>
  <time>2026-08-28T17:49:21Z</time>
  <course>0.0</course>
  <speed>0.0</speed>
  <fix>3d</fix>
</trkpt>
<trkpt lat="40.0713751" lon="-105.2297889">
  <ele>1582.9</ele>
  <time>2026-08-28T17:49:21Z</time>
  <course>246.98</course>
  <speed>0.022360679774997897</speed>
  <fix>3d</fix>
</trkpt>
<trkpt lat="40.0713749" lon="-105.229789">
  <ele>1583.0</ele>
  <time>2026-08-28T17:49:21Z</time>
  <course>0.0</course>
  <speed>0.0</speed>
  <fix>3d</fix>
</trkpt>
<trkpt lat="40.071375" lon="-105.2297889">
  <ele>1582.9</ele>
  <time>2026-08-28T17:49:21Z</time>
  <course>246.98</course>
  <speed>0.022360679774997897</speed>
  <fix>3d</fix>
</trkpt>
<trkpt lat="40.0713749" lon="-105.229789">
  <ele>1583.0</ele>
  <time>2026-08-28T17:49:21Z</time>
  <course>0.0</course>
  <speed>0.0</speed>
  <fix>3d</fix>
</trkpt>
<trkpt lat="40.0713751" lon="-105.2297889">
  <ele>1582.91</ele>
  <time>2026-08-28T17:49:21Z</time>
  <course>246.98</course>
  <speed>0.022360679774997897</speed>
  <fix>3d</fix>
</trkpt>
<trkpt lat="40.0713749" lon="-105.229789">
  <ele>1583.0</ele>
  <time>2026-08-28T17:49:21Z</time>
  <course>0.0</course>
  <speed>0.0</speed>
  <fix>3d</fix>
</trkpt>
<trkpt lat="40.071375" lon="-105.2297889">
  <ele>1582.91</ele>
  <time>2026-08-28T17:49:21Z</time>
  <course>246.98</course>
  <speed>0.022360679774997897</speed>
  <fix>3d</fix>
</trkpt>
<trkpt lat="40.0713749" lon="-105.229789">
  <ele>1583.0</ele>
  <time>2026-08-28T17:49:21Z</time>
  <course>0.0</course>
  <speed>0.0</speed>
  <fix>3d</fix>
</trkpt>
<trkpt lat="40.0713751" lon="-105.2297889">
  <ele>1582.92</ele>
  <time>2026-08-28T17:49:21Z</time>
  <course>246.98</course>
  <speed>0.022360679774997897</speed>
  <fix>3d</fix>
</trkpt>
<trkpt lat="40.0713749" lon="-105.229789">
  <ele>1583.0</ele>
  <time>2026-08-28T17:49:21Z</time>
  <course>0.0</course>
  <speed>0.0</speed>
  <fix>3d</fix>
</trkpt>
<trkpt lat="40.071375" lon="-105.2297889">
  <ele>1582.92</ele>
  <time>2026-08-28T17:49:21Z</time>
  <course>246.98</course>
  <speed>0.022360679774997897</speed>
  <fix>3d</fix>
</trkpt>
<trkpt lat="40.0713749" lon="-105.229789">
  <ele>1583.0</ele>
  <time>2026-08-28T17:49:21Z</time>
  <course>0.0</course>
  <speed>0.0</speed>
  <fix>3d</fix>
</trkpt>
<trkpt lat="40.0713751" lon="-105.2297889">
  <ele>1582.92</ele>
  <time>2026-08-28T17:49:21Z</time>
  <course>246.98</course>
  <speed>0.022360679774997897</speed>
  <fix>3d</fix>
</trkpt>
<trkpt lat="40.0713749" lon="-105.229789">
  <ele>1583.0</ele>
  <time>2026-08-28T17:49:21Z</time>
  <course>0.0</course>
  <speed>0.0</speed>
  <fix>3d</fix>
</trkpt>
<trkpt lat="40.071375" lon="-105.2297889">
  <ele>1582.92</ele>
  <time>2026-08-28T17:49:21Z</time>
  <course>246.98</course>
  <speed>0.022360679774997897</speed>
  <fix>3d</fix>
</trkpt>
<trkpt lat="40.0713749" lon="-105.229789">
  <ele>1583.0</ele>
  <time>2026-08-28T17:49:21Z</time>
  <course>0.0</course>
  <speed>0.0</speed>
  <fix>3d</fix>
</trkpt>
<trkpt lat="40.0713751" lon="-105.2297889">
  <ele>1582.92</ele>
  <time>2026-08-28T17:49:21Z</time>
  <course>246.98</course>
  <speed>0.022360679774997897</speed>
  <fix>3d</fix>
</trkpt>
<trkpt lat="40.0713749" lon="-105.229789">
  <ele>1583.0</ele>
  <time>2026-08-28T17:49:21Z</time>
  <course>0.0</course>
  <speed>0.0</speed>
  <fix>3d</fix>
</trkpt>
<trkpt lat="40.071375" lon="-105.2297889">
  <ele>1582.92</ele>
  <time>2026-08-28T17:49:21Z</time>
  <course>246.98</course>
  <speed>0.022360679774997897</speed>
  <fix>3d</fix>
</trkpt>
<trkpt lat="40.0713749" lon="-105.229789">
  <ele>1583.0</ele>
  <time>2026-08-28T17:49:21Z</time>
  <course>0.0</course>
  <speed>0.0</speed>
  <fix>3d</fix>
</trkpt>
<trkpt lat="40.0713751" lon="-105.2297889">
  <ele>1582.92</ele>
  <time>2026-08-28T17:49:21Z</time>
  <course>246.98</course>
  <speed>0.022360679774997897</speed>
  <fix>3d</fix>
</trkpt>
<trkpt lat="40.0713749" lon="-105.229789">
  <ele>1583.0</ele>
  <time>2026-08-28T17:49:21Z</time>
  <course>0.0</course>
  <speed>0.0</speed>
  <fix>3d</fix>
</trkpt>
<trkpt lat="40.071375" lon="-105.2297889">
  <ele>1582.93</ele>
  <time>2026-08-28T17:49:21Z</time>
  <course>246.98</course>
  <speed>0.022360679774997897</speed>
  <fix>3d</fix>
</trkpt>
<trkpt lat="40.0713749" lon="-105.229789">
  <ele>1583.0</ele>
  <time>2026-08-28T17:49:21Z</time>
  <course>0.0</course>
  <speed>0.0</speed>
  <fix>3d</fix>
</trkpt>
<trkpt lat="40.0713751" lon="-105.2297889">
  <ele>1582.93</ele>
  <time>2026-08-28T17:49:21Z</time>
  <course>246.98</course>
  <speed>0.022360679774997897</speed>
  <fix>3d</fix>
</trkpt>
<trkpt lat="40.0713749" lon="-105.229789">
  <ele>1583.0</ele>
  <time>2026-08-28T17:49:21Z</time>
  <course>0.0</course>
  <speed>0.0</speed>
  <fix>3d</fix>
</trkpt>
<trkpt lat="40.0713751" lon="-105.2297889">
  <ele>1582.93</ele>
  <time>2026-08-28T17:49:21Z</time>
  <course>246.98</course>
  <speed>0.022360679774997897</speed>
  <fix>3d</fix>
</trkpt>
<trkpt lat="40.0713749" lon="-105.229789">
  <ele>1583.0</ele>
  <time>2026-08-28T17:49:21Z</time>
  <course>0.0</course>
  <speed>0.0</speed>
  <fix>3d</fix>
</trkpt>
<trkpt lat="40.0713751" lon="-105.2297889">
  <ele>1582.93</ele>
  <time>2026-08-28T17:49:21Z</time>
  <course>246.98</course>
  <speed>0.022360679774997897</speed>
  <fix>3d</fix>
</trkpt>
<trkpt lat="40.0713749" lon="-105.229789">
  <ele>1583.0</ele>
  <time>2026-08-28T17:49:21Z</time>
  <course>0.0</course>
  <speed>0.0</speed>
  <fix>3d</fix>
</trkpt>
<trkpt lat="40.0713751" lon="-105.2297889">
  <ele>1582.93</ele>
  <time>2026-08-28T17:49:21Z</time>
  <course>246.98</course>
  <speed>0.022360679774997897</speed>
  <fix>3d</fix>
</trkpt>
<trkpt lat="40.0713749" lon="-105.229789">
  <ele>1583.0</ele>
  <time>2026-08-28T17:49:21Z</time>
  <course>0.0</course>
  <speed>0.0</speed>
  <fix>3d</fix>
</trkpt>
<trkpt lat="40.0713751" lon="-105.2297889">
  <ele>1582.94</ele>
  <time>2026-08-28T17:49:21Z</time>
  <course>246.98</course>
  <speed>0.022360679774997897</speed>
  <fix>3d</fix>
</trkpt>
<trkpt lat="40.0713749" lon="-105.229789">
  <ele>1583.0</ele>
  <time>2026-08-28T17:49:21Z</time>
  <course>0.0</course>
  <speed>0.0</speed>
  <fix>3d</fix>
</trkpt>
<trkpt lat="40.0713751" lon="-105.2297889">
  <ele>1582.94</ele>
  <time>2026-08-28T17:49:21Z</time>
  <course>246.98</course>
  <speed>0.022360679774997897</speed>
  <fix>3d</fix>
</trkpt>
<trkpt lat="40.0713749" lon="-105.229789">
  <ele>1583.0</ele>
  <time>2026-08-28T17:49:21Z</time>
  <course>0.0</course>
  <speed>0.0</speed>
  <fix>3d</fix>
</trkpt>
<trkpt lat="40.0713751" lon="-105.2297889">
  <ele>1582.94</ele>
  <time>2026-08-28T17:49:21Z</time>
  <course>246.98</course>
  <speed>0.022360679774997897</speed>
  <fix>3d</fix>
</trkpt>
<trkpt lat="40.0713749" lon="-105.229789">
  <ele>1583.0</ele>
  <time>2026-08-28T17:49:21Z</time>
  <course>0.0</course>
  <speed>0.0</speed>
  <fix>3d</fix>
</trkpt>
<trkpt lat="40.0713751" lon="-105.2297889">
  <ele>1582.94</ele>
  <time>2026-08-28T17:49:21Z</time>
  <course>246.98</course>
  <speed>0.022360679774997897</speed>
  <fix>3d</fix>
</trkpt>
<trkpt lat="40.0713749" lon="-105.229789">
  <ele>1583.0</ele>
  <time>2026-08-28T17:49:21Z</time>
  <course>0.0</course>
  <speed>0.0</speed>
  <fix>3d</fix>
</trkpt>
<trkpt lat="40.0713751" lon="-105.2297889">
  <ele>1582.94</ele>
  <time>2026-08-28T17:49:21Z</time>
  <course>246.98</course>
  <speed>0.022360679774997897</speed>
  <fix>3d</fix>
</trkpt>
<trkpt lat="40.0713749" lon="-105.229789">
  <ele>1583.0</ele>
  <time>2026-08-28T17:49:21Z</time>
  <course>0.0</course>
  <speed>0.0</speed>
  <fix>3d</fix>
</trkpt>
<trkpt lat="40.0713751" lon="-105.2297889">
  <ele>1582.94</ele>
  <time>2026-08-28T17:49:21Z</time>
  <course>246.98</course>
  <speed>0.022360679774997897</speed>
  <fix>3d</fix>
</trkpt>
<trkpt lat="40.0713749" lon="-105.229789">
  <ele>1583.0</ele>
  <time>2026-08-28T17:49:21Z</time>
  <course>0.0</course>
  <speed>0.0</speed>
  <fix>3d</fix>
</trkpt>
<trkpt lat="40.0713751" lon="-105.2297889">
  <ele>1582.95</ele>
  <time>2026-08-28T17:49:21Z</time>
  <course>246.98</course>
  <speed>0.022360679774997897</speed>
  <fix>3d</fix>
</trkpt>
<trkpt lat="40.0713749" lon="-105.229789">
  <ele>1583.0</ele>
  <time>2026-08-28T17:49:21Z</time>
  <course>0.0</course>
  <speed>0.0</speed>
  <fix>3d</fix>
</trkpt>
<trkpt lat="40.071375" lon="-105.2297889">
  <ele>1582.95</ele>
  <time>2026-08-28T17:49:21Z</time>
  <course>246.98</course>
  <speed>0.022360679774997897</speed>
  <fix>3d</fix>
</trkpt>
<trkpt lat="40.0713749" lon="-105.229789">
  <ele>1583.0</ele>
  <time>2026-08-28T17:49:21Z</time>
  <course>0.0</course>
  <speed>0.0</speed>
  <fix>3d</fix>
</trkpt>
<trkpt lat="40.0713751" lon="-105.2297889">
  <ele>1582.95</ele>
  <time>2026-08-28T17:49:21Z</time>
  <course>246.98</course>
  <speed>0.022360679774997897</speed>
  <fix>3d</fix>
</trkpt>
<trkpt lat="40.0713749" lon="-105.229789">
  <ele>1583.0</ele>
  <time>2026-08-28T17:49:21Z</time>
  <course>0.0</course>
  <speed>0.0</speed>
  <fix>3d</fix>
</trkpt>
<trkpt lat="40.071375" lon="-105.2297889">
  <ele>1582.95</ele>
  <time>2026-08-28T17:49:21Z</time>
  <course>246.98</course>
  <speed>0.022360679774997897</speed>
  <fix>3d</fix>
</trkpt>
<trkpt lat="40.0713749" lon="-105.229789">
  <ele>1583.0</ele>
  <time>2026-08-28T17:49:21Z</time>
  <course>0.0</course>
  <speed>0.0</speed>
  <fix>3d</fix>
</trkpt>
<trkpt lat="40.0713751" lon="-105.2297889">
  <ele>1582.95</ele>
  <time>2026-08-28T17:49:21Z</time>
  <course>246.98</course>
  <speed>0.022360679774997897</speed>
  <fix>3d</fix>
</trkpt>
<trkpt lat="40.0713749" lon="-105.229789">
  <ele>1583.0</ele>
  <time>2026-08-28T17:49:21Z</time>
  <course>0.0</course>
  <speed>0.0</speed>
  <fix>3d</fix>
</trkpt>
<trkpt lat="40.071375" lon="-105.2297889">
  <ele>1582.95</ele>
  <time>2026-08-28T17:49:21Z</time>
  <course>246.98</course>
  <speed>0.022360679774997897</speed>
  <fix>3d</fix>
</trkpt>
<trkpt lat="40.0713749" lon="-105.229789">
  <ele>1583.0</ele>
  <time>2026-08-28T17:49:21Z</time>
  <course>0.0</course>
  <speed>0.0</speed>
  <fix>3d</fix>
</trkpt>
<trkpt lat="40.0713751" lon="-105.2297889">
  <ele>1582.95</ele>
  <time>2026-08-28T17:49:21Z</time>
  <course>246.98</course>
  <speed>0.022360679774997897</speed>
  <fix>3d</fix>
</trkpt>
<trkpt lat="40.0713749" lon="-105.229789">
  <ele>1583.0</ele>
  <time>2026-08-28T17:49:21Z</time>
  <course>0.0</course>
  <speed>0.0</speed>
  <fix>3d</fix>
</trkpt>
<trkpt lat="40.071375" lon="-105.2297889">
  <ele>1582.95</ele>
  <time>2026-08-28T17:49:21Z</time>
  <course>246.98</course>
  <speed>0.022360679774997897</speed>
  <fix>3d</fix>
</trkpt>
<trkpt lat="40.0713749" lon="-105.229789">
  <ele>1583.0</ele>
  <time>2026-08-28T17:49:21Z</time>
  <course>0.0</course>
  <speed>0.0</speed>
  <fix>3d</fix>
</trkpt>
<trkpt lat="40.0713751" lon="-105.2297889">
  <ele>1582.95</ele>
  <time>2026-08-28T17:49:21Z</time>
  <course>246.98</course>
  <speed>0.022360679774997897</speed>
  <fix>3d</fix>
</trkpt>
<trkpt lat="40.0713749" lon="-105.229789">
  <ele>1583.0</ele>
  <time>2026-08-28T17:49:21Z</time>
  <course>0.0</course>
  <speed>0.0</speed>
  <fix>3d</fix>
</trkpt>
<trkpt lat="40.0713751" lon="-105.2297889">
  <ele>1582.94</ele>
  <time>2026-08-28T17:49:21Z</time>
  <course>246.98</course>
  <speed>0.022360679774997897</speed>
  <fix>3d</fix>
</trkpt>
<trkpt lat="40.0713749" lon="-105.229789">
  <ele>1583.0</ele>
  <time>2026-08-28T17:49:21Z</time>
  <course>0.0</course>
  <speed>0.0</speed>
  <fix>3d</fix>
</trkpt>
<trkpt lat="40.0713751" lon="-105.2297889">
  <ele>1582.94</ele>
  <time>2026-08-28T17:49:21Z</time>
  <course>246.98</course>
  <speed>0.022360679774997897</speed>
  <fix>3d</fix>
</trkpt>
<trkpt lat="40.0713749" lon="-105.229789">
  <ele>1583.0</ele>
  <time>2026-08-28T17:49:21Z</time>
  <course>0.0</course>
  <speed>0.0</speed>
  <fix>3d</fix>
</trkpt>
<trkpt lat="40.0713751" lon="-105.2297889">
  <ele>1582.94</ele>
  <time>2026-08-28T17:49:21Z</time>
  <course>246.98</course>
  <speed>0.022360679774997897</speed>
  <fix>3d</fix>
</trkpt>
<trkpt lat="40.0713749" lon="-105.229789">
  <ele>1583.0</ele>
  <time>2026-08-28T17:49:21Z</time>
  <course>0.0</course>
  <speed>0.0</speed>
  <fix>3d</fix>
</trkpt>
<trkpt lat="40.0713751" lon="-105.2297889">
  <ele>1582.93</ele>
  <time>2026-08-28T17:49:21Z</time>
  <course>246.98</course>
  <speed>0.022360679774997897</speed>
  <fix>3d</fix>
</trkpt>
<trkpt lat="40.0713749" lon="-105.229789">
  <ele>1583.0</ele>
  <time>2026-08-28T17:49:21Z</time>
  <course>0.0</course>
  <speed>0.0</speed>
  <fix>3d</fix>
</trkpt>
<trkpt lat="40.0713751" lon="-105.2297889">
  <ele>1582.93</ele>
  <time>2026-08-28T17:49:21Z</time>
  <course>246.98</course>
  <speed>0.022360679774997897</speed>
  <fix>3d</fix>
</trkpt>
<trkpt lat="40.0713749" lon="-105.229789">
  <ele>1583.0</ele>
  <time>2026-08-28T17:49:21Z</time>
  <course>0.0</course>
  <speed>0.0</speed>
  <fix>3d</fix>
</trkpt>
<trkpt lat="40.0713751" lon="-105.2297889">
  <ele>1582.93</ele>
  <time>2026-08-28T17:49:21Z</time>
  <course>246.98</course>
  <speed>0.022360679774997897</speed>
  <fix>3d</fix>
</trkpt>
<trkpt lat="40.0713749" lon="-105.229789">
  <ele>1583.0</ele>
  <time>2026-08-28T17:49:21Z</time>
  <course>0.0</course>
  <speed>0.0</speed>
  <fix>3d</fix>
</trkpt>
<trkpt lat="40.0713751" lon="-105.2297889">
  <ele>1582.93</ele>
  <time>2026-08-28T17:49:21Z</time>
  <course>246.98</course>
  <speed>0.022360679774997897</speed>
  <fix>3d</fix>
</trkpt>
<trkpt lat="40.0713749" lon="-105.229789">
  <ele>1583.0</ele>
  <time>2026-08-28T17:49:21Z</time>
  <course>0.0</course>
  <speed>0.0</speed>
  <fix>3d</fix>
</trkpt>
<trkpt lat="40.0713751" lon="-105.2297889">
  <ele>1582.93</ele>
  <time>2026-08-28T17:49:21Z</time>
  <course>246.98</course>
  <speed>0.022360679774997897</speed>
  <fix>3d</fix>
</trkpt>
<trkpt lat="40.0713749" lon="-105.229789">
  <ele>1583.0</ele>
  <time>2026-08-28T17:49:21Z</time>
  <course>0.0</course>
  <speed>0.0</speed>
  <fix>3d</fix>
</trkpt>
<trkpt lat="40.0713751" lon="-105.2297889">
  <ele>1582.93</ele>
  <time>2026-08-28T17:49:21Z</time>
  <course>246.98</course>
  <speed>0.022360679774997897</speed>
  <fix>3d</fix>
</trkpt>
<trkpt lat="40.0713749" lon="-105.229789">
  <ele>1583.0</ele>
  <time>2026-08-28T17:49:21Z</time>
  <course>0.0</course>
  <speed>0.0</speed>
  <fix>3d</fix>
</trkpt>
<trkpt lat="40.0713751" lon="-105.2297889">
  <ele>1582.93</ele>
  <time>2026-08-28T17:49:21Z</time>
  <course>246.98</course>
  <speed>0.022360679774997897</speed>
  <fix>3d</fix>
</trkpt>
<trkpt lat="40.0713749" lon="-105.229789">
  <ele>1583.0</ele>
  <time>2026-08-28T17:49:21Z</time>
  <course>0.0</course>
  <speed>0.0</speed>
  <fix>3d</fix>
</trkpt>
<trkpt lat="40.0713751" lon="-105.2297889">
  <ele>1582.93</ele>
  <time>2026-08-28T17:49:21Z</time>
  <course>246.98</course>
  <speed>0.022360679774997897</speed>
  <fix>3d</fix>
</trkpt>
<trkpt lat="40.0713749" lon="-105.229789">
  <ele>1583.0</ele>
  <time>2026-08-28T17:49:21Z</time>
  <course>0.0</course>
  <speed>0.0</speed>
  <fix>3d</fix>
</trkpt>
<trkpt lat="40.0713751" lon="-105.2297889">
  <ele>1582.93</ele>
  <time>2026-08-28T17:49:21Z</time>
  <course>246.98</course>
  <speed>0.022360679774997897</speed>
  <fix>3d</fix>
</trkpt>
<trkpt lat="40.0713749" lon="-105.229789">
  <ele>1583.0</ele>
  <time>2026-08-28T17:49:21Z</time>
  <course>0.0</course>
  <speed>0.0</speed>
  <fix>3d</fix>
</trkpt>
<trkpt lat="40.071375" lon="-105.2297889">
  <ele>1582.93</ele>
  <time>2026-08-28T17:49:21Z</time>
  <course>246.98</course>
  <speed>0.022360679774997897</speed>
  <fix>3d</fix>
</trkpt>
<trkpt lat="40.0713749" lon="-105.229789">
  <ele>1583.0</ele>
  <time>2026-08-28T17:49:21Z</time>
  <course>0.0</course>
  <speed>0.0</speed>
  <fix>3d</fix>
</trkpt>
<trkpt lat="40.0713751" lon="-105.2297889">
  <ele>1582.93</ele>
  <time>2026-08-28T17:49:21Z</time>
  <course>246.98</course>
  <speed>0.022360679774997897</speed>
  <fix>3d</fix>
</trkpt>
<trkpt lat="40.0713749" lon="-105.229789">
  <ele>1583.0</ele>
  <time>2026-08-28T17:49:21Z</time>
  <course>0.0</course>
  <speed>0.0</speed>
  <fix>3d</fix>
</trkpt>
<trkpt lat="40.071375" lon="-105.2297889">
  <ele>1582.93</ele>
  <time>2026-08-28T17:49:21Z</time>
  <course>246.98</course>
  <speed>0.022360679774997897</speed>
  <fix>3d</fix>
</trkpt>
<trkpt lat="40.0713749" lon="-105.229789">
  <ele>1583.0</ele>
  <time>2026-08-28T17:49:21Z</time>
  <course>0.0</course>
  <speed>0.0</speed>
  <fix>3d</fix>
</trkpt>
<trkpt lat="40.0713751" lon="-105.2297889">
  <ele>1582.93</ele>
  <time>2026-08-28T17:49:21Z</time>
  <course>246.98</course>
  <speed>0.022360679774997897</speed>
  <fix>3d</fix>
</trkpt>
<trkpt lat="40.0713749" lon="-105.229789">
  <ele>1583.0</ele>
  <time>2026-08-28T17:49:21Z</time>
  <course>0.0</course>
  <speed>0.0</speed>
  <fix>3d</fix>
</trkpt>
<trkpt lat="40.071375" lon="-105.2297889">
  <ele>1582.93</ele>
  <time>2026-08-28T17:49:21Z</time>
  <course>246.98</course>
  <speed>0.022360679774997897</speed>
  <fix>3d</fix>
</trkpt>
<trkpt lat="40.0713749" lon="-105.229789">
  <ele>1583.0</ele>
  <time>2026-08-28T17:49:21Z</time>
  <course>0.0</course>
  <speed>0.0</speed>
  <fix>3d</fix>
</trkpt>
<trkpt lat="40.0713751" lon="-105.2297889">
  <ele>1582.94</ele>
  <time>2026-08-28T17:49:21Z</time>
  <course>246.98</course>
  <speed>0.022360679774997897</speed>
  <fix>3d</fix>
</trkpt>
<trkpt lat="40.0713749" lon="-105.229789">
  <ele>1583.0</ele>
  <time>2026-08-28T17:49:21Z</time>
  <course>0.0</course>
  <speed>0.0</speed>
  <fix>3d</fix>
</trkpt>
<trkpt lat="40.071375" lon="-105.2297889">
  <ele>1582.94</ele>
  <time>2026-08-28T17:49:21Z</time>
  <course>246.98</course>
  <speed>0.022360679774997897</speed>
  <fix>3d</fix>
</trkpt>
<trkpt lat="40.0713749" lon="-105.229789">
  <ele>1583.0</ele>
  <time>2026-08-28T17:49:21Z</time>
  <course>0.0</course>
  <speed>0.0</speed>
  <fix>3d</fix>
</trkpt>
<trkpt lat="40.0713751" lon="-105.2297889">
  <ele>1582.94</ele>
  <time>2026-08-28T17:49:21Z</time>
  <course>246.98</course>
  <speed>0.022360679774997897</speed>
  <fix>3d</fix>
</trkpt>
<trkpt lat="40.0713749" lon="-105.229789">
  <ele>1583.0</ele>
  <time>2026-08-28T17:49:21Z</time>
  <course>0.0</course>
  <speed>0.0</speed>
  <fix>3d</fix>
</trkpt>
<trkpt lat="40.071375" lon="-105.2297889">
  <ele>1582.95</ele>
  <time>2026-08-28T17:49:21Z</time>
  <course>246.98</course>
  <speed>0.022360679774997897</speed>
  <fix>3d</fix>
</trkpt>
<trkpt lat="40.0713749" lon="-105.229789">
  <ele>1583.0</ele>
  <time>2026-08-28T17:49:21Z</time>
  <course>0.0</course>
  <speed>0.0</speed>
  <fix>3d</fix>
</trkpt>
<trkpt lat="40.0713751" lon="-105.2297889">
  <ele>1582.96</ele>
  <time>2026-08-28T17:49:21Z</time>
  <course>246.98</course>
  <speed>0.022360679774997897</speed>
  <fix>3d</fix>
</trkpt>
<trkpt lat="40.0713749" lon="-105.229789">
  <ele>1583.0</ele>
  <time>2026-08-28T17:49:21Z</time>
  <course>0.0</course>
  <speed>0.0</speed>
  <fix>3d</fix>
</trkpt>
<trkpt lat="40.071375" lon="-105.2297889">
  <ele>1582.97</ele>
  <time>2026-08-28T17:49:21Z</time>
  <course>246.98</course>
  <speed>0.022360679774997897</speed>
  <fix>3d</fix>
</trkpt>
<trkpt lat="40.0713749" lon="-105.229789">
  <ele>1583.0</ele>
  <time>2026-08-28T17:49:21Z</time>
  <course>0.0</course>
  <speed>0.0</speed>
  <fix>3d</fix>
</trkpt>
<trkpt lat="40.0713751" lon="-105.2297889">
  <ele>1582.98</ele>
  <time>2026-08-28T17:49:21Z</time>
  <course>246.98</course>
  <speed>0.022360679774997897</speed>
  <fix>3d</fix>
</trkpt>
<trkpt lat="40.0713749" lon="-105.229789">
  <ele>1583.0</ele>
  <time>2026-08-28T17:49:21Z</time>
  <course>0.0</course>
  <speed>0.0</speed>
  <fix>3d</fix>
</trkpt>
<trkpt lat="40.0713751" lon="-105.2297889">
  <ele>1582.99</ele>
  <time>2026-08-28T17:49:21Z</time>
  <course>246.98</course>
  <speed>0.022360679774997897</speed>
  <fix>3d</fix>
</trkpt>
<trkpt lat="40.0713749" lon="-105.229789">
  <ele>1583.0</ele>
  <time>2026-08-28T17:49:21Z</time>
  <course>0.0</course>
  <speed>0.0</speed>
  <fix>3d</fix>
</trkpt>
<trkpt lat="40.0713751" lon="-105.2297889">
  <ele>1582.99</ele>
  <time>2026-08-28T17:49:21Z</time>
  <course>246.98</course>
  <speed>0.022360679774997897</speed>
  <fix>3d</fix>
</trkpt>
<trkpt lat="40.0713749" lon="-105.229789">
  <ele>1583.0</ele>
  <time>2026-08-28T17:49:21Z</time>
  <course>0.0</course>
  <speed>0.0</speed>
  <fix>3d</fix>
</trkpt>
<trkpt lat="40.0713751" lon="-105.2297889">
  <ele>1583.0</ele>
  <time>2026-08-28T17:49:21Z</time>
  <course>246.98</course>
  <speed>0.022360679774997897</speed>
  <fix>3d</fix>
</trkpt>
<trkpt lat="40.0713749" lon="-105.229789">
  <ele>1583.0</ele>
  <time>2026-08-28T17:49:21Z</time>
  <course>0.0</course>
  <speed>0.0</speed>
  <fix>3d</fix>
</trkpt>
<trkpt lat="40.0713751" lon="-105.2297889">
  <ele>1583.01</ele>
  <time>2026-08-28T17:49:21Z</time>
  <course>246.98</course>
  <speed>0.022360679774997897</speed>
  <fix>3d</fix>
</trkpt>
<trkpt lat="40.0713749" lon="-105.229789">
  <ele>1583.0</ele>
  <time>2026-08-28T17:49:21Z</time>
  <course>0.0</course>
  <speed>0.0</speed>
  <fix>3d</fix>
</trkpt>
<trkpt lat="40.0713751" lon="-105.2297889">
  <ele>1583.01</ele>
  <time>2026-08-28T17:49:21Z</time>
  <course>246.98</course>
  <speed>0.022360679774997897</speed>
  <fix>3d</fix>
</trkpt>
<trkpt lat="40.0713749" lon="-105.229789">
  <ele>1583.0</ele>
  <time>2026-08-28T17:49:21Z</time>
  <course>0.0</course>
  <speed>0.0</speed>
  <fix>3d</fix>
</trkpt>
<trkpt lat="40.0713751" lon="-105.2297889">
  <ele>1583.02</ele>
  <time>2026-08-28T17:49:21Z</time>
  <course>246.98</course>
  <speed>0.022360679774997897</speed>
  <fix>3d</fix>
</trkpt>
<trkpt lat="40.0713749" lon="-105.229789">
  <ele>1583.0</ele>
  <time>2026-08-28T17:49:21Z</time>
  <course>0.0</course>
  <speed>0.0</speed>
  <fix>3d</fix>
</trkpt>
<trkpt lat="40.071375" lon="-105.2297889">
  <ele>1583.02</ele>
  <time>2026-08-28T17:49:21Z</time>
  <course>246.98</course>
  <speed>0.022360679774997897</speed>
  <fix>3d</fix>
</trkpt>
<trkpt lat="40.0713749" lon="-105.229789">
  <ele>1583.0</ele>
  <time>2026-08-28T17:49:21Z</time>
  <course>0.0</course>
  <speed>0.0</speed>
  <fix>3d</fix>
</trkpt>
<trkpt lat="40.0713751" lon="-105.2297889">
  <ele>1583.02</ele>
  <time>2026-08-28T17:49:21Z</time>
  <course>246.98</course>
  <speed>0.022360679774997897</speed>
  <fix>3d</fix>
</trkpt>
<trkpt lat="40.0713749" lon="-105.229789">
  <ele>1583.0</ele>
  <time>2026-08-28T17:49:21Z</time>
  <course>0.0</course>
  <speed>0.0</speed>
  <fix>3d</fix>
</trkpt>
<trkpt lat="40.071375" lon="-105.2297889">
  <ele>1583.02</ele>
  <time>2026-08-28T17:49:21Z</time>
  <course>246.98</course>
  <speed>0.022360679774997897</speed>
  <fix>3d</fix>
</trkpt>
<trkpt lat="40.0713749" lon="-105.229789">
  <ele>1583.0</ele>
  <time>2026-08-28T17:49:21Z</time>
  <course>0.0</course>
  <speed>0.0</speed>
  <fix>3d</fix>
</trkpt>
<trkpt lat="40.0713751" lon="-105.2297889">
  <ele>1583.02</ele>
  <time>2026-08-28T17:49:21Z</time>
  <course>246.98</course>
  <speed>0.022360679774997897</speed>
  <fix>3d</fix>
</trkpt>
<trkpt lat="40.0713749" lon="-105.229789">
  <ele>1583.0</ele>
  <time>2026-08-28T17:49:21Z</time>
  <course>0.0</course>
  <speed>0.0</speed>
  <fix>3d</fix>
</trkpt>
<trkpt lat="40.071375" lon="-105.2297889">
  <ele>1583.03</ele>
  <time>2026-08-28T17:49:21Z</time>
  <course>246.98</course>
  <speed>0.022360679774997897</speed>
  <fix>3d</fix>
</trkpt>
<trkpt lat="40.0713749" lon="-105.229789">
  <ele>1583.0</ele>
  <time>2026-08-28T17:49:21Z</time>
  <course>0.0</course>
  <speed>0.0</speed>
  <fix>3d</fix>
</trkpt>
<trkpt lat="40.071375" lon="-105.2297889">
  <ele>1583.03</ele>
  <time>2026-08-28T17:49:21Z</time>
  <course>246.98</course>
  <speed>0.022360679774997897</speed>
  <fix>3d</fix>
</trkpt>
<trkpt lat="40.0713749" lon="-105.229789">
  <ele>1583.0</ele>
  <time>2026-08-28T17:49:21Z</time>
  <course>0.0</course>
  <speed>0.0</speed>
  <fix>3d</fix>
</trkpt>
<trkpt lat="40.071375" lon="-105.2297889">
  <ele>1583.03</ele>
  <time>2026-08-28T17:49:21Z</time>
  <course>246.98</course>
  <speed>0.022360679774997897</speed>
  <fix>3d</fix>
</trkpt>
<trkpt lat="40.0713749" lon="-105.229789">
  <ele>1583.0</ele>
  <time>2026-08-28T17:49:21Z</time>
  <course>0.0</course>
  <speed>0.0</speed>
  <fix>3d</fix>
</trkpt>
<trkpt lat="40.071375" lon="-105.2297889">
  <ele>1583.03</ele>
  <time>2026-08-28T17:49:21Z</time>
  <course>246.98</course>
  <speed>0.022360679774997897</speed>
  <fix>3d</fix>
</trkpt>
<trkpt lat="40.0713749" lon="-105.229789">
  <ele>1583.0</ele>
  <time>2026-08-28T17:49:21Z</time>
  <course>0.0</course>
  <speed>0.0</speed>
  <fix>3d</fix>
</trkpt>
<trkpt lat="40.071375" lon="-105.2297889">
  <ele>1583.03</ele>
  <time>2026-08-28T17:49:21Z</time>
  <course>246.98</course>
  <speed>0.022360679774997897</speed>
  <fix>3d</fix>
</trkpt>
<trkpt lat="40.0713749" lon="-105.229789">
  <ele>1583.0</ele>
  <time>2026-08-28T17:49:21Z</time>
  <course>0.0</course>
  <speed>0.0</speed>
  <fix>3d</fix>
</trkpt>
<trkpt lat="40.0713751" lon="-105.2297889">
  <ele>1583.02</ele>
  <time>2026-08-28T17:49:21Z</time>
  <course>246.98</course>
  <speed>0.022360679774997897</speed>
  <fix>3d</fix>
</trkpt>
<trkpt lat="40.0713749" lon="-105.229789">
  <ele>1583.0</ele>
  <time>2026-08-28T17:49:21Z</time>
  <course>0.0</course>
  <speed>0.0</speed>
  <fix>3d</fix>
</trkpt>
<trkpt lat="40.071375" lon="-105.2297889">
  <ele>1583.02</ele>
  <time>2026-08-28T17:49:21Z</time>
  <course>246.98</course>
  <speed>0.022360679774997897</speed>
  <fix>3d</fix>
</trkpt>
<trkpt lat="40.0713749" lon="-105.229789">
  <ele>1583.0</ele>
  <time>2026-08-28T17:49:21Z</time>
  <course>0.0</course>
  <speed>0.0</speed>
  <fix>3d</fix>
</trkpt>
<trkpt lat="40.0713751" lon="-105.2297889">
  <ele>1583.01</ele>
  <time>2026-08-28T17:49:21Z</time>
  <course>246.98</course>
  <speed>0.022360679774997897</speed>
  <fix>3d</fix>
</trkpt>
<trkpt lat="40.0713749" lon="-105.229789">
  <ele>1583.0</ele>
  <time>2026-08-28T17:49:21Z</time>
  <course>0.0</course>
  <speed>0.0</speed>
  <fix>3d</fix>
</trkpt>
<trkpt lat="40.071375" lon="-105.2297889">
  <ele>1583.0</ele>
  <time>2026-08-28T17:49:21Z</time>
  <course>246.98</course>
  <speed>0.022360679774997897</speed>
  <fix>3d</fix>
</trkpt>
<trkpt lat="40.0713749" lon="-105.229789">
  <ele>1583.0</ele>
  <time>2026-08-28T17:49:21Z</time>
  <course>0.0</course>
  <speed>0.0</speed>
  <fix>3d</fix>
</trkpt>
<trkpt lat="40.0713751" lon="-105.2297889">
  <ele>1582.99</ele>
  <time>2026-08-28T17:49:21Z</time>
  <course>246.98</course>
  <speed>0.022360679774997897</speed>
  <fix>3d</fix>
</trkpt>
<trkpt lat="40.0713749" lon="-105.229789">
  <ele>1583.0</ele>
  <time>2026-08-28T17:49:21Z</time>
  <course>0.0</course>
  <speed>0.0</speed>
  <fix>3d</fix>
</trkpt>
<trkpt lat="40.071375" lon="-105.2297889">
  <ele>1582.98</ele>
  <time>2026-08-28T17:49:21Z</time>
  <course>246.98</course>
  <speed>0.022360679774997897</speed>
  <fix>3d</fix>
</trkpt>
<trkpt lat="40.0713749" lon="-105.229789">
  <ele>1583.0</ele>
  <time>2026-08-28T17:49:21Z</time>
  <course>0.0</course>
  <speed>0.0</speed>
  <fix>3d</fix>
</trkpt>
<trkpt lat="40.0713751" lon="-105.2297889">
  <ele>1582.97</ele>
  <time>2026-08-28T17:49:21Z</time>
  <course>246.98</course>
  <speed>0.022360679774997897</speed>
  <fix>3d</fix>
</trkpt>
<trkpt lat="40.0713749" lon="-105.229789">
  <ele>1583.0</ele>
  <time>2026-08-28T17:49:21Z</time>
  <course>0.0</course>
  <speed>0.0</speed>
  <fix>3d</fix>
</trkpt>
<trkpt lat="40.071375" lon="-105.2297889">
  <ele>1582.96</ele>
  <time>2026-08-28T17:49:21Z</time>
  <course>246.98</course>
  <speed>0.022360679774997897</speed>
  <fix>3d</fix>
</trkpt>
<trkpt lat="40.0713749" lon="-105.229789">
  <ele>1583.0</ele>
  <time>2026-08-28T17:49:21Z</time>
  <course>0.0</course>
  <speed>0.0</speed>
  <fix>3d</fix>
</trkpt>
<trkpt lat="40.0713751" lon="-105.2297889">
  <ele>1582.96</ele>
  <time>2026-08-28T17:49:21Z</time>
  <course>246.98</course>
  <speed>0.022360679774997897</speed>
  <fix>3d</fix>
</trkpt>
<trkpt lat="40.0713749" lon="-105.229789">
  <ele>1583.0</ele>
  <time>2026-08-28T17:49:21Z</time>
  <course>0.0</course>
  <speed>0.0</speed>
  <fix>3d</fix>
</trkpt>
<trkpt lat="40.071375" lon="-105.2297889">
  <ele>1582.95</ele>
  <time>2026-08-28T17:49:21Z</time>
  <course>246.98</course>
  <speed>0.022360679774997897</speed>
  <fix>3d</fix>
</trkpt>
<trkpt lat="40.0713749" lon="-105.229789">
  <ele>1583.0</ele>
  <time>2026-08-28T17:49:21Z</time>
  <course>0.0</course>
  <speed>0.0</speed>
  <fix>3d</fix>
</trkpt>
<trkpt lat="40.0713751" lon="-105.2297889">
  <ele>1582.95</ele>
  <time>2026-08-28T17:49:21Z</time>
  <course>246.98</course>
  <speed>0.022360679774997897</speed>
  <fix>3d</fix>
</trkpt>
<trkpt lat="40.0713749" lon="-105.229789">
  <ele>1583.0</ele>
  <time>2026-08-28T17:49:21Z</time>
  <course>0.0</course>
  <speed>0.0</speed>
  <fix>3d</fix>
</trkpt>
<trkpt lat="40.071375" lon="-105.2297889">
  <ele>1582.96</ele>
  <time>2026-08-28T17:49:21Z</time>
  <course>246.98</course>
  <speed>0.022360679774997897</speed>
  <fix>3d</fix>
</trkpt>
<trkpt lat="40.0713749" lon="-105.229789">
  <ele>1583.0</ele>
  <time>2026-08-28T17:49:21Z</time>
  <course>0.0</course>
  <speed>0.0</speed>
  <fix>3d</fix>
</trkpt>
<trkpt lat="40.0713751" lon="-105.2297889">
  <ele>1582.96</ele>
  <time>2026-08-28T17:49:21Z</time>
  <course>246.98</course>
  <speed>0.022360679774997897</speed>
  <fix>3d</fix>
</trkpt>
<trkpt lat="40.0713749" lon="-105.229789">
  <ele>1583.0</ele>
  <time>2026-08-28T17:49:21Z</time>
  <course>0.0</course>
  <speed>0.0</speed>
  <fix>3d</fix>
</trkpt>
<trkpt lat="40.071375" lon="-105.2297889">
  <ele>1582.97</ele>
  <time>2026-08-28T17:49:21Z</time>
  <course>246.98</course>
  <speed>0.022360679774997897</speed>
  <fix>3d</fix>
</trkpt>
<trkpt lat="40.0713749" lon="-105.229789">
  <ele>1583.0</ele>
  <time>2026-08-28T17:49:21Z</time>
  <course>0.0</course>
  <speed>0.0</speed>
  <fix>3d</fix>
</trkpt>
<trkpt lat="40.071375" lon="-105.2297889">
  <ele>1582.98</ele>
  <time>2026-08-28T17:49:21Z</time>
  <course>246.98</course>
  <speed>0.022360679774997897</speed>
  <fix>3d</fix>
</trkpt>
<trkpt lat="40.0713749" lon="-105.229789">
  <ele>1583.0</ele>
  <time>2026-08-28T17:49:21Z</time>
  <course>0.0</course>
  <speed>0.0</speed>
  <fix>3d</fix>
</trkpt>
<trkpt lat="40.071375" lon="-105.2297889">
  <ele>1582.98</ele>
  <time>2026-08-28T17:49:21Z</time>
  <course>246.98</course>
  <speed>0.022360679774997897</speed>
  <fix>3d</fix>
</trkpt>
<trkpt lat="40.0713749" lon="-105.229789">
  <ele>1583.0</ele>
  <time>2026-08-28T17:49:21Z</time>
  <course>0.0</course>
  <speed>0.0</speed>
  <fix>3d</fix>
</trkpt>
<trkpt lat="40.071375" lon="-105.2297889">
  <ele>1582.99</ele>
  <time>2026-08-28T17:49:21Z</time>
  <course>246.98</course>
  <speed>0.022360679774997897</speed>
  <fix>3d</fix>
</trkpt>
<trkpt lat="40.0713749" lon="-105.229789">
  <ele>1583.0</ele>
  <time>2026-08-28T17:49:21Z</time>
  <course>0.0</course>
  <speed>0.0</speed>
  <fix>3d</fix>
</trkpt>
<trkpt lat="40.071375" lon="-105.2297889">
  <ele>1583.0</ele>
  <time>2026-08-28T17:49:21Z</time>
  <course>246.98</course>
  <speed>0.022360679774997897</speed>
  <fix>3d</fix>
</trkpt>
<trkpt lat="40.0713749" lon="-105.229789">
  <ele>1583.0</ele>
  <time>2026-08-28T17:49:21Z</time>
  <course>0.0</course>
  <speed>0.0</speed>
  <fix>3d</fix>
</trkpt>
<trkpt lat="40.071375" lon="-105.2297889">
  <ele>1583.01</ele>
  <time>2026-08-28T17:49:21Z</time>
  <course>246.98</course>
  <speed>0.022360679774997897</speed>
  <fix>3d</fix>
</trkpt>
<trkpt lat="40.0713749" lon="-105.229789">
  <ele>1583.0</ele>
  <time>2026-08-28T17:49:21Z</time>
  <course>0.0</course>
  <speed>0.0</speed>
  <fix>3d</fix>
</trkpt>
<trkpt lat="40.071375" lon="-105.2297889">
  <ele>1583.01</ele>
  <time>2026-08-28T17:49:21Z</time>
  <course>246.98</course>
  <speed>0.022360679774997897</speed>
  <fix>3d</fix>
</trkpt>
<trkpt lat="40.0713749" lon="-105.229789">
  <ele>1583.0</ele>
  <time>2026-08-28T17:49:21Z</time>
  <course>0.0</course>
  <speed>0.0</speed>
  <fix>3d</fix>
</trkpt>
<trkpt lat="40.071375" lon="-105.2297889">
  <ele>1583.01</ele>
  <time>2026-08-28T17:49:21Z</time>
  <course>246.98</course>
  <speed>0.022360679774997897</speed>
  <fix>3d</fix>
</trkpt>
<trkpt lat="40.0713749" lon="-105.229789">
  <ele>1583.0</ele>
  <time>2026-08-28T17:49:21Z</time>
  <course>0.0</course>
  <speed>0.0</speed>
  <fix>3d</fix>
</trkpt>
<trkpt lat="40.071375" lon="-105.2297889">
  <ele>1583.02</ele>
  <time>2026-08-28T17:49:21Z</time>
  <course>246.98</course>
  <speed>0.022360679774997897</speed>
  <fix>3d</fix>
</trkpt>
<trkpt lat="40.0713749" lon="-105.229789">
  <ele>1583.0</ele>
  <time>2026-08-28T17:49:21Z</time>
  <course>0.0</course>
  <speed>0.0</speed>
  <fix>3d</fix>
</trkpt>
<trkpt lat="40.071375" lon="-105.2297889">
  <ele>1583.02</ele>
  <time>2026-08-28T17:49:21Z</time>
  <course>246.98</course>
  <speed>0.022360679774997897</speed>
  <fix>3d</fix>
</trkpt>
<trkpt lat="40.0713749" lon="-105.229789">
  <ele>1583.0</ele>
  <time>2026-08-28T17:49:21Z</time>
  <course>0.0</course>
  <speed>0.0</speed>
  <fix>3d</fix>
</trkpt>
<trkpt lat="40.071375" lon="-105.2297889">
  <ele>1583.02</ele>
  <time>2026-08-28T17:49:21Z</time>
  <course>246.98</course>
  <speed>0.022360679774997897</speed>
  <fix>3d</fix>
</trkpt>
<trkpt lat="40.0713749" lon="-105.229789">
  <ele>1583.0</ele>
  <time>2026-08-28T17:49:21Z</time>
  <course>0.0</course>
  <speed>0.0</speed>
  <fix>3d</fix>
</trkpt>
<trkpt lat="40.071375" lon="-105.2297889">
  <ele>1583.02</ele>
  <time>2026-08-28T17:49:21Z</time>
  <course>246.98</course>
  <speed>0.022360679774997897</speed>
  <fix>3d</fix>
</trkpt>
<trkpt lat="40.0713749" lon="-105.229789">
  <ele>1583.0</ele>
  <time>2026-08-28T17:49:21Z</time>
  <course>0.0</course>
  <speed>0.0</speed>
  <fix>3d</fix>
</trkpt>
<trkpt lat="40.071375" lon="-105.2297889">
  <ele>1583.02</ele>
  <time>2026-08-28T17:49:21Z</time>
  <course>246.98</course>
  <speed>0.022360679774997897</speed>
  <fix>3d</fix>
</trkpt>
<trkpt lat="40.0713749" lon="-105.229789">
  <ele>1583.0</ele>
  <time>2026-08-28T17:49:21Z</time>
  <course>0.0</course>
  <speed>0.0</speed>
  <fix>3d</fix>
</trkpt>
<trkpt lat="40.0713751" lon="-105.2297889">
  <ele>1583.02</ele>
  <time>2026-08-28T17:49:21Z</time>
  <course>246.98</course>
  <speed>0.022360679774997897</speed>
  <fix>3d</fix>
</trkpt>
<trkpt lat="40.0713749" lon="-105.229789">
  <ele>1583.0</ele>
  <time>2026-08-28T17:49:21Z</time>
  <course>0.0</course>
  <speed>0.0</speed>
  <fix>3d</fix>
</trkpt>
<trkpt lat="40.071375" lon="-105.2297889">
  <ele>1583.02</ele>
  <time>2026-08-28T17:49:21Z</time>
  <course>246.98</course>
  <speed>0.022360679774997897</speed>
  <fix>3d</fix>
</trkpt>
<trkpt lat="40.0713749" lon="-105.229789">
  <ele>1583.0</ele>
  <time>2026-08-28T17:49:21Z</time>
  <course>0.0</course>
  <speed>0.0</speed>
  <fix>3d</fix>
</trkpt>
<trkpt lat="40.0713751" lon="-105.2297889">
  <ele>1583.01</ele>
  <time>2026-08-28T17:49:21Z</time>
  <course>246.98</course>
  <speed>0.022360679774997897</speed>
  <fix>3d</fix>
</trkpt>
<trkpt lat="40.0713749" lon="-105.229789">
  <ele>1583.0</ele>
  <time>2026-08-28T17:49:21Z</time>
  <course>0.0</course>
  <speed>0.0</speed>
  <fix>3d</fix>
</trkpt>
<trkpt lat="40.071375" lon="-105.2297889">
  <ele>1583.01</ele>
  <time>2026-08-28T17:49:21Z</time>
  <course>246.98</course>
  <speed>0.022360679774997897</speed>
  <fix>3d</fix>
</trkpt>
<trkpt lat="40.0713749" lon="-105.229789">
  <ele>1583.0</ele>
  <time>2026-08-28T17:49:21Z</time>
  <course>0.0</course>
  <speed>0.0</speed>
  <fix>3d</fix>
</trkpt>
<trkpt lat="40.0713751" lon="-105.2297889">
  <ele>1583.01</ele>
  <time>2026-08-28T17:49:21Z</time>
  <course>246.98</course>
  <speed>0.022360679774997897</speed>
  <fix>3d</fix>
</trkpt>
<trkpt lat="40.0713749" lon="-105.229789">
  <ele>1583.0</ele>
  <time>2026-08-28T17:49:21Z</time>
  <course>0.0</course>
  <speed>0.0</speed>
  <fix>3d</fix>
</trkpt>
<trkpt lat="40.071375" lon="-105.2297889">
  <ele>1583.02</ele>
  <time>2026-08-28T17:49:21Z</time>
  <course>246.98</course>
  <speed>0.022360679774997897</speed>
  <fix>3d</fix>
</trkpt>
<trkpt lat="40.0713749" lon="-105.229789">
  <ele>1583.0</ele>
  <time>2026-08-28T17:49:21Z</time>
  <course>0.0</course>
  <speed>0.0</speed>
  <fix>3d</fix>
</trkpt>
<trkpt lat="40.0713751" lon="-105.2297889">
  <ele>1583.02</ele>
  <time>2026-08-28T17:49:21Z</time>
  <course>246.98</course>
  <speed>0.022360679774997897</speed>
  <fix>3d</fix>
</trkpt>
<trkpt lat="40.0713749" lon="-105.229789">
  <ele>1583.0</ele>
  <time>2026-08-28T17:49:21Z</time>
  <course>0.0</course>
  <speed>0.0</speed>
  <fix>3d</fix>
</trkpt>
<trkpt lat="40.071375" lon="-105.2297889">
  <ele>1583.02</ele>
  <time>2026-08-28T17:49:21Z</time>
  <course>246.98</course>
  <speed>0.022360679774997897</speed>
  <fix>3d</fix>
</trkpt>
<trkpt lat="40.0713749" lon="-105.229789">
  <ele>1583.0</ele>
  <time>2026-08-28T17:49:21Z</time>
  <course>0.0</course>
  <speed>0.0</speed>
  <fix>3d</fix>
</trkpt>
<trkpt lat="40.0713751" lon="-105.2297889">
  <ele>1583.03</ele>
  <time>2026-08-28T17:49:21Z</time>
  <course>246.98</course>
  <speed>0.022360679774997897</speed>
  <fix>3d</fix>
</trkpt>
<trkpt lat="40.0713749" lon="-105.229789">
  <ele>1583.0</ele>
  <time>2026-08-28T17:49:21Z</time>
  <course>0.0</course>
  <speed>0.0</speed>
  <fix>3d</fix>
</trkpt>
<trkpt lat="40.071375" lon="-105.2297889">
  <ele>1583.03</ele>
  <time>2026-08-28T17:49:21Z</time>
  <course>246.98</course>
  <speed>0.022360679774997897</speed>
  <fix>3d</fix>
</trkpt>
<trkpt lat="40.0713749" lon="-105.229789">
  <ele>1583.0</ele>
  <time>2026-08-28T17:49:21Z</time>
  <course>0.0</course>
  <speed>0.0</speed>
  <fix>3d</fix>
</trkpt>
<trkpt lat="40.0713751" lon="-105.2297889">
  <ele>1583.03</ele>
  <time>2026-08-28T17:49:21Z</time>
  <course>246.98</course>
  <speed>0.022360679774997897</speed>
  <fix>3d</fix>
</trkpt>
<trkpt lat="40.0713749" lon="-105.229789">
  <ele>1583.0</ele>
  <time>2026-08-28T17:49:21Z</time>
  <course>0.0</course>
  <speed>0.0</speed>
  <fix>3d</fix>
</trkpt>
<trkpt lat="40.071375" lon="-105.2297889">
  <ele>1583.03</ele>
  <time>2026-08-28T17:49:21Z</time>
  <course>246.98</course>
  <speed>0.022360679774997897</speed>
  <fix>3d</fix>
</trkpt>
<trkpt lat="40.0713749" lon="-105.229789">
  <ele>1583.0</ele>
  <time>2026-08-28T17:49:21Z</time>
  <course>0.0</course>
  <speed>0.0</speed>
  <fix>3d</fix>
</trkpt>
<trkpt lat="40.0713751" lon="-105.2297889">
  <ele>1583.03</ele>
  <time>2026-08-28T17:49:21Z</time>
  <course>246.98</course>
  <speed>0.022360679774997897</speed>
  <fix>3d</fix>
</trkpt>
<trkpt lat="40.0713749" lon="-105.229789">
  <ele>1583.0</ele>
  <time>2026-08-28T17:49:21Z</time>
  <course>0.0</course>
  <speed>0.0</speed>
  <fix>3d</fix>
</trkpt>
<trkpt lat="40.071375" lon="-105.2297889">
  <ele>1583.03</ele>
  <time>2026-08-28T17:49:21Z</time>
  <course>246.98</course>
  <speed>0.022360679774997897</speed>
  <fix>3d</fix>
</trkpt>
<trkpt lat="40.0713749" lon="-105.229789">
  <ele>1583.0</ele>
  <time>2026-08-28T17:49:21Z</time>
  <course>0.0</course>
  <speed>0.0</speed>
  <fix>3d</fix>
</trkpt>
<trkpt lat="40.0713751" lon="-105.2297889">
  <ele>1583.02</ele>
  <time>2026-08-28T17:49:21Z</time>
  <course>246.98</course>
  <speed>0.022360679774997897</speed>
  <fix>3d</fix>
</trkpt>
<trkpt lat="40.0713749" lon="-105.229789">
  <ele>1583.0</ele>
  <time>2026-08-28T17:49:21Z</time>
  <course>0.0</course>
  <speed>0.0</speed>
  <fix>3d</fix>
</trkpt>
<trkpt lat="40.071375" lon="-105.2297889">
  <ele>1583.02</ele>
  <time>2026-08-28T17:49:21Z</time>
  <course>246.98</course>
  <speed>0.022360679774997897</speed>
  <fix>3d</fix>
</trkpt>
<trkpt lat="40.0713749" lon="-105.229789">
  <ele>1583.0</ele>
  <time>2026-08-28T17:49:21Z</time>
  <course>0.0</course>
  <speed>0.0</speed>
  <fix>3d</fix>
</trkpt>
<trkpt lat="40.0713751" lon="-105.2297889">
  <ele>1583.02</ele>
  <time>2026-08-28T17:49:21Z</time>
  <course>246.98</course>
  <speed>0.022360679774997897</speed>
  <fix>3d</fix>
</trkpt>
<trkpt lat="40.0713749" lon="-105.229789">
  <ele>1583.0</ele>
  <time>2026-08-28T17:49:21Z</time>
  <course>0.0</course>
  <speed>0.0</speed>
  <fix>3d</fix>
</trkpt>
<trkpt lat="40.071375" lon="-105.2297889">
  <ele>1583.02</ele>
  <time>2026-08-28T17:49:21Z</time>
  <course>246.98</course>
  <speed>0.022360679774997897</speed>
  <fix>3d</fix>
</trkpt>
<trkpt lat="40.0713749" lon="-105.229789">
  <ele>1583.0</ele>
  <time>2026-08-28T17:49:21Z</time>
  <course>0.0</course>
  <speed>0.0</speed>
  <fix>3d</fix>
</trkpt>
<trkpt lat="40.0713751" lon="-105.2297889">
  <ele>1583.02</ele>
  <time>2026-08-28T17:49:21Z</time>
  <course>246.98</course>
  <speed>0.022360679774997897</speed>
  <fix>3d</fix>
</trkpt>
<trkpt lat="40.0713749" lon="-105.229789">
  <ele>1583.0</ele>
  <time>2026-08-28T17:49:21Z</time>
  <course>0.0</course>
  <speed>0.0</speed>
  <fix>3d</fix>
</trkpt>
<trkpt lat="40.071375" lon="-105.2297889">
  <ele>1583.02</ele>
  <time>2026-08-28T17:49:21Z</time>
  <course>246.98</course>
  <speed>0.022360679774997897</speed>
  <fix>3d</fix>
</trkpt>
<trkpt lat="40.0713749" lon="-105.229789">
  <ele>1583.0</ele>
  <time>2026-08-28T17:49:21Z</time>
  <course>0.0</course>
  <speed>0.0</speed>
  <fix>3d</fix>
</trkpt>
<trkpt lat="40.0713751" lon="-105.2297889">
  <ele>1583.02</ele>
  <time>2026-08-28T17:49:21Z</time>
  <course>246.98</course>
  <speed>0.022360679774997897</speed>
  <fix>3d</fix>
</trkpt>
<trkpt lat="40.0713749" lon="-105.229789">
  <ele>1583.0</ele>
  <time>2026-08-28T17:49:21Z</time>
  <course>0.0</course>
  <speed>0.0</speed>
  <fix>3d</fix>
</trkpt>
<trkpt lat="40.0713751" lon="-105.2297889">
  <ele>1583.01</ele>
  <time>2026-08-28T17:49:21Z</time>
  <course>246.98</course>
  <speed>0.022360679774997897</speed>
  <fix>3d</fix>
</trkpt>
<trkpt lat="40.0713749" lon="-105.229789">
  <ele>1583.0</ele>
  <time>2026-08-28T17:49:21Z</time>
  <course>0.0</course>
  <speed>0.0</speed>
  <fix>3d</fix>
</trkpt>
<trkpt lat="40.0713751" lon="-105.2297889">
  <ele>1583.01</ele>
  <time>2026-08-28T17:49:21Z</time>
  <course>246.98</course>
  <speed>0.022360679774997897</speed>
  <fix>3d</fix>
</trkpt>
<trkpt lat="40.0713749" lon="-105.229789">
  <ele>1583.0</ele>
  <time>2026-08-28T17:49:21Z</time>
  <course>0.0</course>
  <speed>0.0</speed>
  <fix>3d</fix>
</trkpt>
<trkpt lat="40.0713751" lon="-105.2297889">
  <ele>1583.01</ele>
  <time>2026-08-28T17:49:21Z</time>
  <course>246.98</course>
  <speed>0.022360679774997897</speed>
  <fix>3d</fix>
</trkpt>
<trkpt lat="40.0713749" lon="-105.229789">
  <ele>1583.0</ele>
  <time>2026-08-28T17:49:21Z</time>
  <course>0.0</course>
  <speed>0.0</speed>
  <fix>3d</fix>
</trkpt>
<trkpt lat="40.0713751" lon="-105.2297889">
  <ele>1583.0</ele>
  <time>2026-08-28T17:49:21Z</time>
  <course>246.98</course>
  <speed>0.022360679774997897</speed>
  <fix>3d</fix>
</trkpt>
<trkpt lat="40.0713749" lon="-105.229789">
  <ele>1583.0</ele>
  <time>2026-08-28T17:49:21Z</time>
  <course>0.0</course>
  <speed>0.0</speed>
  <fix>3d</fix>
</trkpt>
<trkpt lat="40.0713751" lon="-105.2297889">
  <ele>1583.0</ele>
  <time>2026-08-28T17:49:21Z</time>
  <course>246.98</course>
  <speed>0.022360679774997897</speed>
  <fix>3d</fix>
</trkpt>
<trkpt lat="40.0713749" lon="-105.229789">
  <ele>1583.0</ele>
  <time>2026-08-28T17:49:21Z</time>
  <course>0.0</course>
  <speed>0.0</speed>
  <fix>3d</fix>
</trkpt>
<trkpt lat="40.0713751" lon="-105.2297889">
  <ele>1583.0</ele>
  <time>2026-08-28T17:49:21Z</time>
  <course>246.98</course>
  <speed>0.022360679774997897</speed>
  <fix>3d</fix>
</trkpt>
<trkpt lat="40.0713749" lon="-105.229789">
  <ele>1583.0</ele>
  <time>2026-08-28T17:49:21Z</time>
  <course>0.0</course>
  <speed>0.0</speed>
  <fix>3d</fix>
</trkpt>
<trkpt lat="40.0713751" lon="-105.2297889">
  <ele>1582.99</ele>
  <time>2026-08-28T17:49:21Z</time>
  <course>246.98</course>
  <speed>0.022360679774997897</speed>
  <fix>3d</fix>
</trkpt>
<trkpt lat="40.0713749" lon="-105.229789">
  <ele>1583.0</ele>
  <time>2026-08-28T17:49:21Z</time>
  <course>0.0</course>
  <speed>0.0</speed>
  <fix>3d</fix>
</trkpt>
<trkpt lat="40.0713751" lon="-105.2297889">
  <ele>1582.99</ele>
  <time>2026-08-28T17:49:21Z</time>
  <course>246.98</course>
  <speed>0.022360679774997897</speed>
  <fix>3d</fix>
</trkpt>
<trkpt lat="40.0713749" lon="-105.229789">
  <ele>1583.0</ele>
  <time>2026-08-28T17:49:21Z</time>
  <course>0.0</course>
  <speed>0.0</speed>
  <fix>3d</fix>
</trkpt>
<trkpt lat="40.071375" lon="-105.2297889">
  <ele>1582.98</ele>
  <time>2026-08-28T17:49:21Z</time>
  <course>246.98</course>
  <speed>0.022360679774997897</speed>
  <fix>3d</fix>
</trkpt>
<trkpt lat="40.0713749" lon="-105.229789">
  <ele>1583.0</ele>
  <time>2026-08-28T17:49:21Z</time>
  <course>0.0</course>
  <speed>0.0</speed>
  <fix>3d</fix>
</trkpt>
<trkpt lat="40.0713751" lon="-105.2297889">
  <ele>1582.97</ele>
  <time>2026-08-28T17:49:21Z</time>
  <course>246.98</course>
  <speed>0.022360679774997897</speed>
  <fix>3d</fix>
</trkpt>
<trkpt lat="40.0713749" lon="-105.229789">
  <ele>1583.0</ele>
  <time>2026-08-28T17:49:21Z</time>
  <course>0.0</course>
  <speed>0.0</speed>
  <fix>3d</fix>
</trkpt>
<trkpt lat="40.071375" lon="-105.2297889">
  <ele>1582.97</ele>
  <time>2026-08-28T17:49:21Z</time>
  <course>246.98</course>
  <speed>0.022360679774997897</speed>
  <fix>3d</fix>
</trkpt>
<trkpt lat="40.0713749" lon="-105.229789">
  <ele>1583.0</ele>
  <time>2026-08-28T17:49:21Z</time>
  <course>0.0</course>
  <speed>0.0</speed>
  <fix>3d</fix>
</trkpt>
<trkpt lat="40.0713751" lon="-105.2297889">
  <ele>1582.96</ele>
  <time>2026-08-28T17:49:21Z</time>
  <course>246.98</course>
  <speed>0.022360679774997897</speed>
  <fix>3d</fix>
</trkpt>
<trkpt lat="40.0713749" lon="-105.229789">
  <ele>1583.0</ele>
  <time>2026-08-28T17:49:21Z</time>
  <course>0.0</course>
  <speed>0.0</speed>
  <fix>3d</fix>
</trkpt>
<trkpt lat="40.071375" lon="-105.2297889">
  <ele>1582.96</ele>
  <time>2026-08-28T17:49:21Z</time>
  <course>246.98</course>
  <speed>0.022360679774997897</speed>
  <fix>3d</fix>
</trkpt>
<trkpt lat="40.0713749" lon="-105.229789">
  <ele>1583.0</ele>
  <time>2026-08-28T17:49:21Z</time>
  <course>0.0</course>
  <speed>0.0</speed>
  <fix>3d</fix>
</trkpt>
<trkpt lat="40.0713751" lon="-105.2297889">
  <ele>1582.96</ele>
  <time>2026-08-28T17:49:21Z</time>
  <course>246.98</course>
  <speed>0.022360679774997897</speed>
  <fix>3d</fix>
</trkpt>
<trkpt lat="40.0713749" lon="-105.229789">
  <ele>1583.0</ele>
  <time>2026-08-28T17:49:21Z</time>
  <course>0.0</course>
  <speed>0.0</speed>
  <fix>3d</fix>
</trkpt>
<trkpt lat="40.071375" lon="-105.2297889">
  <ele>1582.95</ele>
  <time>2026-08-28T17:49:21Z</time>
  <course>246.98</course>
  <speed>0.022360679774997897</speed>
  <fix>3d</fix>
</trkpt>
<trkpt lat="40.0713749" lon="-105.229789">
  <ele>1583.0</ele>
  <time>2026-08-28T17:49:21Z</time>
  <course>0.0</course>
  <speed>0.0</speed>
  <fix>3d</fix>
</trkpt>
<trkpt lat="40.0713751" lon="-105.2297889">
  <ele>1582.96</ele>
  <time>2026-08-28T17:49:21Z</time>
  <course>246.98</course>
  <speed>0.022360679774997897</speed>
  <fix>3d</fix>
</trkpt>
<trkpt lat="40.0713749" lon="-105.229789">
  <ele>1583.0</ele>
  <time>2026-08-28T17:49:21Z</time>
  <course>0.0</course>
  <speed>0.0</speed>
  <fix>3d</fix>
</trkpt>
<trkpt lat="40.071375" lon="-105.2297889">
  <ele>1582.96</ele>
  <time>2026-08-28T17:49:21Z</time>
  <course>246.98</course>
  <speed>0.022360679774997897</speed>
  <fix>3d</fix>
</trkpt>
<trkpt lat="40.0713749" lon="-105.229789">
  <ele>1583.0</ele>
  <time>2026-08-28T17:49:21Z</time>
  <course>0.0</course>
  <speed>0.0</speed>
  <fix>3d</fix>
</trkpt>
<trkpt lat="40.0713751" lon="-105.2297889">
  <ele>1582.96</ele>
  <time>2026-08-28T17:49:21Z</time>
  <course>246.98</course>
  <speed>0.022360679774997897</speed>
  <fix>3d</fix>
</trkpt>
<trkpt lat="40.0713749" lon="-105.229789">
  <ele>1583.0</ele>
  <time>2026-08-28T17:49:21Z</time>
  <course>0.0</course>
  <speed>0.0</speed>
  <fix>3d</fix>
</trkpt>
<trkpt lat="40.071375" lon="-105.2297889">
  <ele>1582.96</ele>
  <time>2026-08-28T17:49:21Z</time>
  <course>246.98</course>
  <speed>0.022360679774997897</speed>
  <fix>3d</fix>
</trkpt>
<trkpt lat="40.0713749" lon="-105.229789">
  <ele>1583.0</ele>
  <time>2026-08-28T17:49:21Z</time>
  <course>0.0</course>
  <speed>0.0</speed>
  <fix>3d</fix>
</trkpt>
<trkpt lat="40.0713751" lon="-105.2297889">
  <ele>1582.96</ele>
  <time>2026-08-28T17:49:21Z</time>
  <course>246.98</course>
  <speed>0.022360679774997897</speed>
  <fix>3d</fix>
</trkpt>
<trkpt lat="40.0713749" lon="-105.229789">
  <ele>1583.0</ele>
  <time>2026-08-28T17:49:21Z</time>
  <course>0.0</course>
  <speed>0.0</speed>
  <fix>3d</fix>
</trkpt>
<trkpt lat="40.071375" lon="-105.2297889">
  <ele>1582.96</ele>
  <time>2026-08-28T17:49:21Z</time>
  <course>246.98</course>
  <speed>0.022360679774997897</speed>
  <fix>3d</fix>
</trkpt>
<trkpt lat="40.0713749" lon="-105.229789">
  <ele>1583.0</ele>
  <time>2026-08-28T17:49:21Z</time>
  <course>0.0</course>
  <speed>0.0</speed>
  <fix>3d</fix>
</trkpt>
<trkpt lat="40.0713751" lon="-105.2297889">
  <ele>1582.96</ele>
  <time>2026-08-28T17:49:21Z</time>
  <course>246.98</course>
  <speed>0.022360679774997897</speed>
  <fix>3d</fix>
</trkpt>
<trkpt lat="40.0713749" lon="-105.229789">
  <ele>1583.0</ele>
  <time>2026-08-28T17:49:21Z</time>
  <course>0.0</course>
  <speed>0.0</speed>
  <fix>3d</fix>
</trkpt>
<trkpt lat="40.0713751" lon="-105.2297889">
  <ele>1582.96</ele>
  <time>2026-08-28T17:49:21Z</time>
  <course>246.98</course>
  <speed>0.022360679774997897</speed>
  <fix>3d</fix>
</trkpt>
<trkpt lat="40.0713749" lon="-105.229789">
  <ele>1583.0</ele>
  <time>2026-08-28T17:49:21Z</time>
  <course>0.0</course>
  <speed>0.0</speed>
  <fix>3d</fix>
</trkpt>
<trkpt lat="40.0713751" lon="-105.2297889">
  <ele>1582.96</ele>
  <time>2026-08-28T17:49:21Z</time>
  <course>246.98</course>
  <speed>0.022360679774997897</speed>
  <fix>3d</fix>
</trkpt>
<trkpt lat="40.0713749" lon="-105.229789">
  <ele>1583.0</ele>
  <time>2026-08-28T17:49:21Z</time>
  <course>0.0</course>
  <speed>0.0</speed>
  <fix>3d</fix>
</trkpt>
<trkpt lat="40.0713751" lon="-105.2297889">
  <ele>1582.95</ele>
  <time>2026-08-28T17:49:21Z</time>
  <course>246.98</course>
  <speed>0.022360679774997897</speed>
  <fix>3d</fix>
</trkpt>
<trkpt lat="40.0713749" lon="-105.229789">
  <ele>1583.0</ele>
  <time>2026-08-28T17:49:21Z</time>
  <course>0.0</course>
  <speed>0.0</speed>
  <fix>3d</fix>
</trkpt>
<trkpt lat="40.0713751" lon="-105.2297889">
  <ele>1582.95</ele>
  <time>2026-08-28T17:49:21Z</time>
  <course>246.98</course>
  <speed>0.022360679774997897</speed>
  <fix>3d</fix>
</trkpt>
<trkpt lat="40.0713749" lon="-105.229789">
  <ele>1583.0</ele>
  <time>2026-08-28T17:49:21Z</time>
  <course>0.0</course>
  <speed>0.0</speed>
  <fix>3d</fix>
</trkpt>
<trkpt lat="40.0713751" lon="-105.2297889">
  <ele>1582.95</ele>
  <time>2026-08-28T17:49:21Z</time>
  <course>246.98</course>
  <speed>0.022360679774997897</speed>
  <fix>3d</fix>
</trkpt>
<trkpt lat="40.0713749" lon="-105.229789">
  <ele>1583.0</ele>
  <time>2026-08-28T17:49:21Z</time>
  <course>0.0</course>
  <speed>0.0</speed>
  <fix>3d</fix>
</trkpt>
<trkpt lat="40.0713751" lon="-105.2297889">
  <ele>1582.95</ele>
  <time>2026-08-28T17:49:21Z</time>
  <course>246.98</course>
  <speed>0.022360679774997897</speed>
  <fix>3d</fix>
</trkpt>
<trkpt lat="40.0713749" lon="-105.229789">
  <ele>1583.0</ele>
  <time>2026-08-28T17:49:21Z</time>
  <course>0.0</course>
  <speed>0.0</speed>
  <fix>3d</fix>
</trkpt>
<trkpt lat="40.0713751" lon="-105.2297889">
  <ele>1582.95</ele>
  <time>2026-08-28T17:49:21Z</time>
  <course>246.98</course>
  <speed>0.022360679774997897</speed>
  <fix>3d</fix>
</trkpt>
<trkpt lat="40.0713749" lon="-105.229789">
  <ele>1583.0</ele>
  <time>2026-08-28T17:49:21Z</time>
  <course>0.0</course>
  <speed>0.0</speed>
  <fix>3d</fix>
</trkpt>
<trkpt lat="40.0713751" lon="-105.2297889">
  <ele>1582.95</ele>
  <time>2026-08-28T17:49:21Z</time>
  <course>246.98</course>
  <speed>0.022360679774997897</speed>
  <fix>3d</fix>
</trkpt>
<trkpt lat="40.0713749" lon="-105.229789">
  <ele>1583.0</ele>
  <time>2026-08-28T17:49:21Z</time>
  <course>0.0</course>
  <speed>0.0</speed>
  <fix>3d</fix>
</trkpt>
<trkpt lat="40.0713751" lon="-105.2297889">
  <ele>1582.95</ele>
  <time>2026-08-28T17:49:21Z</time>
  <course>246.98</course>
  <speed>0.022360679774997897</speed>
  <fix>3d</fix>
</trkpt>
<trkpt lat="40.0713749" lon="-105.229789">
  <ele>1583.0</ele>
  <time>2026-08-28T17:49:21Z</time>
  <course>0.0</course>
  <speed>0.0</speed>
  <fix>3d</fix>
</trkpt>
<trkpt lat="40.0713751" lon="-105.2297889">
  <ele>1582.95</ele>
  <time>2026-08-28T17:49:21Z</time>
  <course>246.98</course>
  <speed>0.022360679774997897</speed>
  <fix>3d</fix>
</trkpt>
<trkpt lat="40.0713749" lon="-105.229789">
  <ele>1583.0</ele>
  <time>2026-08-28T17:49:21Z</time>
  <course>0.0</course>
  <speed>0.0</speed>
  <fix>3d</fix>
</trkpt>
<trkpt lat="40.071375" lon="-105.2297889">
  <ele>1582.95</ele>
  <time>2026-08-28T17:49:21Z</time>
  <course>246.98</course>
  <speed>0.022360679774997897</speed>
  <fix>3d</fix>
</trkpt>
<trkpt lat="40.0713749" lon="-105.229789">
  <ele>1583.0</ele>
  <time>2026-08-28T17:49:21Z</time>
  <course>0.0</course>
  <speed>0.0</speed>
  <fix>3d</fix>
</trkpt>
<trkpt lat="40.0713751" lon="-105.2297889">
  <ele>1582.95</ele>
  <time>2026-08-28T17:49:21Z</time>
  <course>246.97</course>
  <speed>0.022360679774997897</speed>
  <fix>3d</fix>
</trkpt>
<trkpt lat="40.0713749" lon="-105.229789">
  <ele>1583.0</ele>
  <time>2026-08-28T17:49:21Z</time>
  <course>0.0</course>
  <speed>0.0</speed>
  <fix>3d</fix>
</trkpt>
<trkpt lat="40.071375" lon="-105.2297889">
  <ele>1582.95</ele>
  <time>2026-08-28T17:49:21Z</time>
  <course>246.97</course>
  <speed>0.022360679774997897</speed>
  <fix>3d</fix>
</trkpt>
<trkpt lat="40.0713749" lon="-105.229789">
  <ele>1583.0</ele>
  <time>2026-08-28T17:49:21Z</time>
  <course>0.0</course>
  <speed>0.0</speed>
  <fix>3d</fix>
</trkpt>
<trkpt lat="40.0713751" lon="-105.2297889">
  <ele>1582.95</ele>
  <time>2026-08-28T17:49:21Z</time>
  <course>246.97</course>
  <speed>0.022360679774997897</speed>
  <fix>3d</fix>
</trkpt>
<trkpt lat="40.0713749" lon="-105.229789">
  <ele>1583.0</ele>
  <time>2026-08-28T17:49:21Z</time>
  <course>0.0</course>
  <speed>0.0</speed>
  <fix>3d</fix>
</trkpt>
<trkpt lat="40.071375" lon="-105.2297889">
  <ele>1582.95</ele>
  <time>2026-08-28T17:49:21Z</time>
  <course>246.97</course>
  <speed>0.022360679774997897</speed>
  <fix>3d</fix>
</trkpt>
<trkpt lat="40.0713749" lon="-105.229789">
  <ele>1583.0</ele>
  <time>2026-08-28T17:49:21Z</time>
  <course>0.0</course>
  <speed>0.0</speed>
  <fix>3d</fix>
</trkpt>
<trkpt lat="40.0713751" lon="-105.2297889">
  <ele>1582.95</ele>
  <time>2026-08-28T17:49:21Z</time>
  <course>246.97</course>
  <speed>0.022360679774997897</speed>
  <fix>3d</fix>
</trkpt>
<trkpt lat="40.0713749" lon="-105.229789">
  <ele>1583.0</ele>
  <time>2026-08-28T17:49:21Z</time>
  <course>0.0</course>
  <speed>0.0</speed>
  <fix>3d</fix>
</trkpt>
<trkpt lat="40.071375" lon="-105.2297889">
  <ele>1582.95</ele>
  <time>2026-08-28T17:49:21Z</time>
  <course>246.97</course>
  <speed>0.022360679774997897</speed>
  <fix>3d</fix>
</trkpt>
<trkpt lat="40.0713749" lon="-105.229789">
  <ele>1583.0</ele>
  <time>2026-08-28T17:49:21Z</time>
  <course>0.0</course>
  <speed>0.0</speed>
  <fix>3d</fix>
</trkpt>
<trkpt lat="40.0713751" lon="-105.2297889">
  <ele>1582.94</ele>
  <time>2026-08-28T17:49:21Z</time>
  <course>246.97</course>
  <speed>0.022360679774997897</speed>
  <fix>3d</fix>
</trkpt>
<trkpt lat="40.0713749" lon="-105.229789">
  <ele>1583.0</ele>
  <time>2026-08-28T17:49:21Z</time>
  <course>0.0</course>
  <speed>0.0</speed>
  <fix>3d</fix>
</trkpt>
<trkpt lat="40.071375" lon="-105.2297889">
  <ele>1582.94</ele>
  <time>2026-08-28T17:49:21Z</time>
  <course>246.97</course>
  <speed>0.022360679774997897</speed>
  <fix>3d</fix>
</trkpt>
<trkpt lat="40.0713749" lon="-105.229789">
  <ele>1583.0</ele>
  <time>2026-08-28T17:49:21Z</time>
  <course>0.0</course>
  <speed>0.0</speed>
  <fix>3d</fix>
</trkpt>
<trkpt lat="40.0713751" lon="-105.2297889">
  <ele>1582.94</ele>
  <time>2026-08-28T17:49:21Z</time>
  <course>246.97</course>
  <speed>0.022360679774997897</speed>
  <fix>3d</fix>
</trkpt>
<trkpt lat="40.0713749" lon="-105.229789">
  <ele>1583.0</ele>
  <time>2026-08-28T17:49:21Z</time>
  <course>0.0</course>
  <speed>0.0</speed>
  <fix>3d</fix>
</trkpt>
<trkpt lat="40.0713751" lon="-105.2297889">
  <ele>1582.94</ele>
  <time>2026-08-28T17:49:21Z</time>
  <course>246.97</course>
  <speed>0.022360679774997897</speed>
  <fix>3d</fix>
</trkpt>
<trkpt lat="40.0713749" lon="-105.229789">
  <ele>1583.0</ele>
  <time>2026-08-28T17:49:21Z</time>
  <course>0.0</course>
  <speed>0.0</speed>
  <fix>3d</fix>
</trkpt>
<trkpt lat="40.0713751" lon="-105.2297889">
  <ele>1582.94</ele>
  <time>2026-08-28T17:49:21Z</time>
  <course>246.97</course>
  <speed>0.022360679774997897</speed>
  <fix>3d</fix>
</trkpt>
<trkpt lat="40.0713749" lon="-105.229789">
  <ele>1583.0</ele>
  <time>2026-08-28T17:49:21Z</time>
  <course>0.0</course>
  <speed>0.0</speed>
  <fix>3d</fix>
</trkpt>
<trkpt lat="40.0713751" lon="-105.2297889">
  <ele>1582.94</ele>
  <time>2026-08-28T17:49:21Z</time>
  <course>246.97</course>
  <speed>0.022360679774997897</speed>
  <fix>3d</fix>
</trkpt>
<trkpt lat="40.0713749" lon="-105.229789">
  <ele>1583.0</ele>
  <time>2026-08-28T17:49:21Z</time>
  <course>0.0</course>
  <speed>0.0</speed>
  <fix>3d</fix>
</trkpt>
<trkpt lat="40.0713751" lon="-105.2297889">
  <ele>1582.94</ele>
  <time>2026-08-28T17:49:21Z</time>
  <course>246.97</course>
  <speed>0.022360679774997897</speed>
  <fix>3d</fix>
</trkpt>
<trkpt lat="40.0713749" lon="-105.229789">
  <ele>1583.0</ele>
  <time>2026-08-28T17:49:21Z</time>
  <course>0.0</course>
  <speed>0.0</speed>
  <fix>3d</fix>
</trkpt>
<trkpt lat="40.0713751" lon="-105.2297889">
  <ele>1582.95</ele>
  <time>2026-08-28T17:49:21Z</time>
  <course>246.97</course>
  <speed>0.022360679774997897</speed>
  <fix>3d</fix>
</trkpt>
<trkpt lat="40.0713749" lon="-105.229789">
  <ele>1583.0</ele>
  <time>2026-08-28T17:49:21Z</time>
  <course>0.0</course>
  <speed>0.0</speed>
  <fix>3d</fix>
</trkpt>
<trkpt lat="40.0713751" lon="-105.2297889">
  <ele>1582.95</ele>
  <time>2026-08-28T17:49:21Z</time>
  <course>246.97</course>
  <speed>0.022360679774997897</speed>
  <fix>3d</fix>
</trkpt>
<trkpt lat="40.0713749" lon="-105.229789">
  <ele>1583.0</ele>
  <time>2026-08-28T17:49:21Z</time>
  <course>0.0</course>
  <speed>0.0</speed>
  <fix>3d</fix>
</trkpt>
<trkpt lat="40.0713751" lon="-105.2297889">
  <ele>1582.95</ele>
  <time>2026-08-28T17:49:21Z</time>
  <course>246.97</course>
  <speed>0.022360679774997897</speed>
  <fix>3d</fix>
</trkpt>
<trkpt lat="40.0713749" lon="-105.229789">
  <ele>1583.0</ele>
  <time>2026-08-28T17:49:21Z</time>
  <course>0.0</course>
  <speed>0.0</speed>
  <fix>3d</fix>
</trkpt>
<trkpt lat="40.0713751" lon="-105.2297889">
  <ele>1582.96</ele>
  <time>2026-08-28T17:49:21Z</time>
  <course>246.97</course>
  <speed>0.022360679774997897</speed>
  <fix>3d</fix>
</trkpt>
<trkpt lat="40.0713749" lon="-105.229789">
  <ele>1583.0</ele>
  <time>2026-08-28T17:49:21Z</time>
  <course>0.0</course>
  <speed>0.0</speed>
  <fix>3d</fix>
</trkpt>
<trkpt lat="40.071375" lon="-105.2297889">
  <ele>1582.97</ele>
  <time>2026-08-28T17:49:21Z</time>
  <course>246.97</course>
  <speed>0.02</speed>
  <fix>3d</fix>
</trkpt>
<trkpt lat="40.0713749" lon="-105.229789">
  <ele>1583.0</ele>
  <time>2026-08-28T17:49:21Z</time>
  <course>0.0</course>
  <speed>0.0</speed>
  <fix>3d</fix>
</trkpt>
<trkpt lat="40.071375" lon="-105.2297889">
  <ele>1582.97</ele>
  <time>2026-08-28T17:49:21Z</time>
  <course>246.97</course>
  <speed>0.022360679774997897</speed>
  <fix>3d</fix>
</trkpt>
<trkpt lat="40.0713749" lon="-105.229789">
  <ele>1583.0</ele>
  <time>2026-08-28T17:49:21Z</time>
  <course>0.0</course>
  <speed>0.0</speed>
  <fix>3d</fix>
</trkpt>
<trkpt lat="40.071375" lon="-105.2297889">
  <ele>1582.97</ele>
  <time>2026-08-28T17:49:21Z</time>
  <course>246.97</course>
  <speed>0.02</speed>
  <fix>3d</fix>
</trkpt>
<trkpt lat="40.0713749" lon="-105.229789">
  <ele>1583.0</ele>
  <time>2026-08-28T17:49:21Z</time>
  <course>0.0</course>
  <speed>0.0</speed>
  <fix>3d</fix>
</trkpt>
<trkpt lat="40.071375" lon="-105.2297889">
  <ele>1582.97</ele>
  <time>2026-08-28T17:49:21Z</time>
  <course>246.97</course>
  <speed>0.02</speed>
  <fix>3d</fix>
</trkpt>
<trkpt lat="40.0713749" lon="-105.229789">
  <ele>1583.0</ele>
  <time>2026-08-28T17:49:21Z</time>
  <course>0.0</course>
  <speed>0.0</speed>
  <fix>3d</fix>
</trkpt>
<trkpt lat="40.071375" lon="-105.2297889">
  <ele>1582.97</ele>
  <time>2026-08-28T17:49:21Z</time>
  <course>246.97</course>
  <speed>0.02</speed>
  <fix>3d</fix>
</trkpt>
<trkpt lat="40.0713749" lon="-105.229789">
  <ele>1583.0</ele>
  <time>2026-08-28T17:49:21Z</time>
  <course>0.0</course>
  <speed>0.0</speed>
  <fix>3d</fix>
</trkpt>
<trkpt lat="40.071375" lon="-105.2297889">
  <ele>1582.97</ele>
  <time>2026-08-28T17:49:21Z</time>
  <course>246.97</course>
  <speed>0.02</speed>
  <fix>3d</fix>
</trkpt>
<trkpt lat="40.0713749" lon="-105.229789">
  <ele>1583.0</ele>
  <time>2026-08-28T17:49:21Z</time>
  <course>0.0</course>
  <speed>0.0</speed>
  <fix>3d</fix>
</trkpt>
<trkpt lat="40.071375" lon="-105.2297889">
  <ele>1582.96</ele>
  <time>2026-08-28T17:49:21Z</time>
  <course>246.97</course>
  <speed>0.02</speed>
  <fix>3d</fix>
</trkpt>
<trkpt lat="40.0713749" lon="-105.229789">
  <ele>1583.0</ele>
  <time>2026-08-28T17:49:21Z</time>
  <course>0.0</course>
  <speed>0.0</speed>
  <fix>3d</fix>
</trkpt>
<trkpt lat="40.071375" lon="-105.2297889">
  <ele>1582.96</ele>
  <time>2026-08-28T17:49:21Z</time>
  <course>246.97</course>
  <speed>0.02</speed>
  <fix>3d</fix>
</trkpt>
<trkpt lat="40.0713749" lon="-105.229789">
  <ele>1583.0</ele>
  <time>2026-08-28T17:49:21Z</time>
  <course>0.0</course>
  <speed>0.0</speed>
  <fix>3d</fix>
</trkpt>
<trkpt lat="40.071375" lon="-105.2297889">
  <ele>1582.96</ele>
  <time>2026-08-28T17:49:21Z</time>
  <course>246.97</course>
  <speed>0.02</speed>
  <fix>3d</fix>
</trkpt>
<trkpt lat="40.0713749" lon="-105.229789">
  <ele>1583.0</ele>
  <time>2026-08-28T17:49:21Z</time>
  <course>0.0</course>
  <speed>0.0</speed>
  <fix>3d</fix>
</trkpt>
<trkpt lat="40.071375" lon="-105.2297889">
  <ele>1582.95</ele>
  <time>2026-08-28T17:49:21Z</time>
  <course>246.97</course>
  <speed>0.02</speed>
  <fix>3d</fix>
</trkpt>
<trkpt lat="40.0713749" lon="-105.229789">
  <ele>1583.0</ele>
  <time>2026-08-28T17:49:21Z</time>
  <course>0.0</course>
  <speed>0.0</speed>
  <fix>3d</fix>
</trkpt>
<trkpt lat="40.071375" lon="-105.2297889">
  <ele>1582.94</ele>
  <time>2026-08-28T17:49:21Z</time>
  <course>246.97</course>
  <speed>0.02</speed>
  <fix>3d</fix>
</trkpt>
<trkpt lat="40.0713749" lon="-105.229789">
  <ele>1583.0</ele>
  <time>2026-08-28T17:49:21Z</time>
  <course>0.0</course>
  <speed>0.0</speed>
  <fix>3d</fix>
</trkpt>
<trkpt lat="40.071375" lon="-105.2297889">
  <ele>1582.94</ele>
  <time>2026-08-28T17:49:21Z</time>
  <course>246.96</course>
  <speed>0.02</speed>
  <fix>3d</fix>
</trkpt>
<trkpt lat="40.0713749" lon="-105.229789">
  <ele>1583.0</ele>
  <time>2026-08-28T17:49:21Z</time>
  <course>0.0</course>
  <speed>0.0</speed>
  <fix>3d</fix>
</trkpt>
<trkpt lat="40.071375" lon="-105.2297889">
  <ele>1582.94</ele>
  <time>2026-08-28T17:49:21Z</time>
  <course>246.96</course>
  <speed>0.02</speed>
  <fix>3d</fix>
</trkpt>
<trkpt lat="40.0713749" lon="-105.229789">
  <ele>1583.0</ele>
  <time>2026-08-28T17:49:21Z</time>
  <course>0.0</course>
  <speed>0.0</speed>
  <fix>3d</fix>
</trkpt>
<trkpt lat="40.071375" lon="-105.2297889">
  <ele>1582.94</ele>
  <time>2026-08-28T17:49:21Z</time>
  <course>246.96</course>
  <speed>0.02</speed>
  <fix>3d</fix>
</trkpt>
<trkpt lat="40.0713749" lon="-105.229789">
  <ele>1583.0</ele>
  <time>2026-08-28T17:49:21Z</time>
  <course>0.0</course>
  <speed>0.0</speed>
  <fix>3d</fix>
</trkpt>
<trkpt lat="40.071375" lon="-105.2297889">
  <ele>1582.95</ele>
  <time>2026-08-28T17:49:21Z</time>
  <course>246.96</course>
  <speed>0.02</speed>
  <fix>3d</fix>
</trkpt>
<trkpt lat="40.0713749" lon="-105.229789">
  <ele>1583.0</ele>
  <time>2026-08-28T17:49:21Z</time>
  <course>0.0</course>
  <speed>0.0</speed>
  <fix>3d</fix>
</trkpt>
<trkpt lat="40.071375" lon="-105.2297889">
  <ele>1582.96</ele>
  <time>2026-08-28T17:49:21Z</time>
  <course>246.96</course>
  <speed>0.02</speed>
  <fix>3d</fix>
</trkpt>
<trkpt lat="40.0713749" lon="-105.229789">
  <ele>1583.0</ele>
  <time>2026-08-28T17:49:21Z</time>
  <course>0.0</course>
  <speed>0.0</speed>
  <fix>3d</fix>
</trkpt>
<trkpt lat="40.071375" lon="-105.2297889">
  <ele>1582.97</ele>
  <time>2026-08-28T17:49:21Z</time>
  <course>246.96</course>
  <speed>0.02</speed>
  <fix>3d</fix>
</trkpt>
<trkpt lat="40.0713749" lon="-105.229789">
  <ele>1583.0</ele>
  <time>2026-08-28T17:49:21Z</time>
  <course>0.0</course>
  <speed>0.0</speed>
  <fix>3d</fix>
</trkpt>
<trkpt lat="40.071375" lon="-105.2297889">
  <ele>1582.98</ele>
  <time>2026-08-28T17:49:22Z</time>
  <course>246.96</course>
  <speed>0.02</speed>
  <fix>3d</fix>
</trkpt>
<trkpt lat="40.0713749" lon="-105.229789">
  <ele>1583.0</ele>
  <time>2026-08-28T17:49:22Z</time>
  <course>0.0</course>
  <speed>0.0</speed>
  <fix>3d</fix>
</trkpt>
<trkpt lat="40.071375" lon="-105.2297889">
  <ele>1582.99</ele>
  <time>2026-08-28T17:49:22Z</time>
  <course>246.96</course>
  <speed>0.02</speed>
  <fix>3d</fix>
</trkpt>
<trkpt lat="40.0713749" lon="-105.229789">
  <ele>1583.0</ele>
  <time>2026-08-28T17:49:22Z</time>
  <course>0.0</course>
  <speed>0.0</speed>
  <fix>3d</fix>
</trkpt>
<trkpt lat="40.071375" lon="-105.2297889">
  <ele>1583.0</ele>
  <time>2026-08-28T17:49:22Z</time>
  <course>246.96</course>
  <speed>0.02</speed>
  <fix>3d</fix>
</trkpt>
<trkpt lat="40.0713749" lon="-105.229789">
  <ele>1583.0</ele>
  <time>2026-08-28T17:49:22Z</time>
  <course>0.0</course>
  <speed>0.0</speed>
  <fix>3d</fix>
</trkpt>
<trkpt lat="40.071375" lon="-105.2297889">
  <ele>1583.01</ele>
  <time>2026-08-28T17:49:22Z</time>
  <course>246.96</course>
  <speed>0.02</speed>
  <fix>3d</fix>
</trkpt>
<trkpt lat="40.0713749" lon="-105.229789">
  <ele>1583.0</ele>
  <time>2026-08-28T17:49:22Z</time>
  <course>0.0</course>
  <speed>0.0</speed>
  <fix>3d</fix>
</trkpt>
<trkpt lat="40.071375" lon="-105.2297889">
  <ele>1583.02</ele>
  <time>2026-08-28T17:49:22Z</time>
  <course>246.96</course>
  <speed>0.02</speed>
  <fix>3d</fix>
</trkpt>
<trkpt lat="40.0713749" lon="-105.229789">
  <ele>1583.0</ele>
  <time>2026-08-28T17:49:22Z</time>
  <course>0.0</course>
  <speed>0.0</speed>
  <fix>3d</fix>
</trkpt>
<trkpt lat="40.071375" lon="-105.2297889">
  <ele>1583.02</ele>
  <time>2026-08-28T17:49:22Z</time>
  <course>246.96</course>
  <speed>0.02</speed>
  <fix>3d</fix>
</trkpt>
<trkpt lat="40.0713749" lon="-105.229789">
  <ele>1583.0</ele>
  <time>2026-08-28T17:49:22Z</time>
  <course>0.0</course>
  <speed>0.0</speed>
  <fix>3d</fix>
</trkpt>
<trkpt lat="40.071375" lon="-105.2297889">
  <ele>1583.02</ele>
  <time>2026-08-28T17:49:22Z</time>
  <course>246.96</course>
  <speed>0.02</speed>
  <fix>3d</fix>
</trkpt>
<trkpt lat="40.0713749" lon="-105.229789">
  <ele>1583.0</ele>
  <time>2026-08-28T17:49:22Z</time>
  <course>0.0</course>
  <speed>0.0</speed>
  <fix>3d</fix>
</trkpt>
<trkpt lat="40.071375" lon="-105.2297889">
  <ele>1583.02</ele>
  <time>2026-08-28T17:49:22Z</time>
  <course>246.96</course>
  <speed>0.02</speed>
  <fix>3d</fix>
</trkpt>
<trkpt lat="40.0713749" lon="-105.229789">
  <ele>1583.0</ele>
  <time>2026-08-28T17:49:22Z</time>
  <course>0.0</course>
  <speed>0.0</speed>
  <fix>3d</fix>
</trkpt>
<trkpt lat="40.071375" lon="-105.2297889">
  <ele>1583.02</ele>
  <time>2026-08-28T17:49:22Z</time>
  <course>246.95</course>
  <speed>0.02</speed>
  <fix>3d</fix>
</trkpt>
<trkpt lat="40.0713749" lon="-105.229789">
  <ele>1583.0</ele>
  <time>2026-08-28T17:49:22Z</time>
  <course>0.0</course>
  <speed>0.0</speed>
  <fix>3d</fix>
</trkpt>
<trkpt lat="40.071375" lon="-105.2297889">
  <ele>1583.02</ele>
  <time>2026-08-28T17:49:22Z</time>
  <course>246.95</course>
  <speed>0.02</speed>
  <fix>3d</fix>
</trkpt>
<trkpt lat="40.0713749" lon="-105.229789">
  <ele>1583.0</ele>
  <time>2026-08-28T17:49:22Z</time>
  <course>0.0</course>
  <speed>0.0</speed>
  <fix>3d</fix>
</trkpt>
<trkpt lat="40.071375" lon="-105.2297889">
  <ele>1583.02</ele>
  <time>2026-08-28T17:49:22Z</time>
  <course>246.95</course>
  <speed>0.02</speed>
  <fix>3d</fix>
</trkpt>
<trkpt lat="40.0713749" lon="-105.229789">
  <ele>1583.0</ele>
  <time>2026-08-28T17:49:22Z</time>
  <course>0.0</course>
  <speed>0.0</speed>
  <fix>3d</fix>
</trkpt>
<trkpt lat="40.071375" lon="-105.2297889">
  <ele>1583.02</ele>
  <time>2026-08-28T17:49:22Z</time>
  <course>246.95</course>
  <speed>0.01</speed>
  <fix>3d</fix>
</trkpt>
<trkpt lat="40.0713749" lon="-105.229789">
  <ele>1583.0</ele>
  <time>2026-08-28T17:49:22Z</time>
  <course>0.0</course>
  <speed>0.0</speed>
  <fix>3d</fix>
</trkpt>
<trkpt lat="40.071375" lon="-105.2297889">
  <ele>1583.02</ele>
  <time>2026-08-28T17:49:22Z</time>
  <course>246.95</course>
  <speed>0.01</speed>
  <fix>3d</fix>
</trkpt>
<trkpt lat="40.0713749" lon="-105.229789">
  <ele>1583.0</ele>
  <time>2026-08-28T17:49:22Z</time>
  <course>0.0</course>
  <speed>0.0</speed>
  <fix>3d</fix>
</trkpt>
<trkpt lat="40.071375" lon="-105.2297889">
  <ele>1583.02</ele>
  <time>2026-08-28T17:49:22Z</time>
  <course>246.95</course>
  <speed>0.01</speed>
  <fix>3d</fix>
</trkpt>
<trkpt lat="40.0713749" lon="-105.229789">
  <ele>1583.0</ele>
  <time>2026-08-28T17:49:22Z</time>
  <course>0.0</course>
  <speed>0.0</speed>
  <fix>3d</fix>
</trkpt>
<trkpt lat="40.071375" lon="-105.2297889">
  <ele>1583.02</ele>
  <time>2026-08-28T17:49:22Z</time>
  <course>246.95</course>
  <speed>0.01</speed>
  <fix>3d</fix>
</trkpt>
<trkpt lat="40.0713749" lon="-105.229789">
  <ele>1583.0</ele>
  <time>2026-08-28T17:49:22Z</time>
  <course>0.0</course>
  <speed>0.0</speed>
  <fix>3d</fix>
</trkpt>
<trkpt lat="40.071375" lon="-105.2297889">
  <ele>1583.01</ele>
  <time>2026-08-28T17:49:22Z</time>
  <course>246.95</course>
  <speed>0.01</speed>
  <fix>3d</fix>
</trkpt>
<trkpt lat="40.0713749" lon="-105.229789">
  <ele>1583.0</ele>
  <time>2026-08-28T17:49:22Z</time>
  <course>0.0</course>
  <speed>0.0</speed>
  <fix>3d</fix>
</trkpt>
<trkpt lat="40.071375" lon="-105.2297889">
  <ele>1583.01</ele>
  <time>2026-08-28T17:49:22Z</time>
  <course>246.95</course>
  <speed>0.01</speed>
  <fix>3d</fix>
</trkpt>
<trkpt lat="40.0713749" lon="-105.229789">
  <ele>1583.0</ele>
  <time>2026-08-28T17:49:22Z</time>
  <course>0.0</course>
  <speed>0.0</speed>
  <fix>3d</fix>
</trkpt>
<trkpt lat="40.071375" lon="-105.2297889">
  <ele>1583.0</ele>
  <time>2026-08-28T17:49:22Z</time>
  <course>246.95</course>
  <speed>0.01</speed>
  <fix>3d</fix>
</trkpt>
<trkpt lat="40.0713749" lon="-105.229789">
  <ele>1583.0</ele>
  <time>2026-08-28T17:49:22Z</time>
  <course>0.0</course>
  <speed>0.0</speed>
  <fix>3d</fix>
</trkpt>
<trkpt lat="40.071375" lon="-105.2297889">
  <ele>1582.99</ele>
  <time>2026-08-28T17:49:22Z</time>
  <course>246.95</course>
  <speed>0.01</speed>
  <fix>3d</fix>
</trkpt>
<trkpt lat="40.0713749" lon="-105.229789">
  <ele>1583.0</ele>
  <time>2026-08-28T17:49:22Z</time>
  <course>0.0</course>
  <speed>0.0</speed>
  <fix>3d</fix>
</trkpt>
<trkpt lat="40.071375" lon="-105.2297889">
  <ele>1582.98</ele>
  <time>2026-08-28T17:49:22Z</time>
  <course>246.94</course>
  <speed>0.01</speed>
  <fix>3d</fix>
</trkpt>
<trkpt lat="40.0713749" lon="-105.229789">
  <ele>1583.0</ele>
  <time>2026-08-28T17:49:22Z</time>
  <course>0.0</course>
  <speed>0.0</speed>
  <fix>3d</fix>
</trkpt>
<trkpt lat="40.071375" lon="-105.2297889">
  <ele>1582.98</ele>
  <time>2026-08-28T17:49:22Z</time>
  <course>246.94</course>
  <speed>0.01</speed>
  <fix>3d</fix>
</trkpt>
<trkpt lat="40.0713749" lon="-105.229789">
  <ele>1583.0</ele>
  <time>2026-08-28T17:49:22Z</time>
  <course>0.0</course>
  <speed>0.0</speed>
  <fix>3d</fix>
</trkpt>
<trkpt lat="40.071375" lon="-105.2297889">
  <ele>1582.97</ele>
  <time>2026-08-28T17:49:22Z</time>
  <course>246.94</course>
  <speed>0.01</speed>
  <fix>3d</fix>
</trkpt>
<trkpt lat="40.0713749" lon="-105.229789">
  <ele>1583.0</ele>
  <time>2026-08-28T17:49:22Z</time>
  <course>0.0</course>
  <speed>0.0</speed>
  <fix>3d</fix>
</trkpt>
<trkpt lat="40.071375" lon="-105.2297889">
  <ele>1582.97</ele>
  <time>2026-08-28T17:49:22Z</time>
  <course>246.94</course>
  <speed>0.01</speed>
  <fix>3d</fix>
</trkpt>
<trkpt lat="40.0713749" lon="-105.229789">
  <ele>1583.0</ele>
  <time>2026-08-28T17:49:22Z</time>
  <course>0.0</course>
  <speed>0.0</speed>
  <fix>3d</fix>
</trkpt>
<trkpt lat="40.071375" lon="-105.2297889">
  <ele>1582.96</ele>
  <time>2026-08-28T17:49:22Z</time>
  <course>246.94</course>
  <speed>0.01</speed>
  <fix>3d</fix>
</trkpt>
<trkpt lat="40.0713749" lon="-105.229789">
  <ele>1583.0</ele>
  <time>2026-08-28T17:49:22Z</time>
  <course>0.0</course>
  <speed>0.0</speed>
  <fix>3d</fix>
</trkpt>
<trkpt lat="40.071375" lon="-105.2297889">
  <ele>1582.96</ele>
  <time>2026-08-28T17:49:22Z</time>
  <course>246.94</course>
  <speed>0.01</speed>
  <fix>3d</fix>
</trkpt>
<trkpt lat="40.0713749" lon="-105.229789">
  <ele>1583.0</ele>
  <time>2026-08-28T17:49:22Z</time>
  <course>0.0</course>
  <speed>0.0</speed>
  <fix>3d</fix>
</trkpt>
<trkpt lat="40.071375" lon="-105.2297889">
  <ele>1582.96</ele>
  <time>2026-08-28T17:49:22Z</time>
  <course>246.94</course>
  <speed>0.01</speed>
  <fix>3d</fix>
</trkpt>
<trkpt lat="40.0713749" lon="-105.229789">
  <ele>1583.0</ele>
  <time>2026-08-28T17:49:22Z</time>
  <course>0.0</course>
  <speed>0.0</speed>
  <fix>3d</fix>
</trkpt>
<trkpt lat="40.071375" lon="-105.2297889">
  <ele>1582.96</ele>
  <time>2026-08-28T17:49:22Z</time>
  <course>246.94</course>
  <speed>0.01</speed>
  <fix>3d</fix>
</trkpt>
<trkpt lat="40.0713749" lon="-105.229789">
  <ele>1583.0</ele>
  <time>2026-08-28T17:49:22Z</time>
  <course>0.0</course>
  <speed>0.0</speed>
  <fix>3d</fix>
</trkpt>
<trkpt lat="40.071375" lon="-105.2297889">
  <ele>1582.96</ele>
  <time>2026-08-28T17:49:22Z</time>
  <course>246.94</course>
  <speed>0.01</speed>
  <fix>3d</fix>
</trkpt>
<trkpt lat="40.0713749" lon="-105.229789">
  <ele>1583.0</ele>
  <time>2026-08-28T17:49:22Z</time>
  <course>0.0</course>
  <speed>0.0</speed>
  <fix>3d</fix>
</trkpt>
<trkpt lat="40.071375" lon="-105.2297889">
  <ele>1582.96</ele>
  <time>2026-08-28T17:49:22Z</time>
  <course>246.94</course>
  <speed>0.01</speed>
  <fix>3d</fix>
</trkpt>
<trkpt lat="40.0713749" lon="-105.229789">
  <ele>1583.0</ele>
  <time>2026-08-28T17:49:22Z</time>
  <course>0.0</course>
  <speed>0.0</speed>
  <fix>3d</fix>
</trkpt>
<trkpt lat="40.071375" lon="-105.2297889">
  <ele>1582.97</ele>
  <time>2026-08-28T17:49:22Z</time>
  <course>246.93</course>
  <speed>0.01</speed>
  <fix>3d</fix>
</trkpt>
<trkpt lat="40.0713749" lon="-105.229789">
  <ele>1583.0</ele>
  <time>2026-08-28T17:49:22Z</time>
  <course>0.0</course>
  <speed>0.0</speed>
  <fix>3d</fix>
</trkpt>
<trkpt lat="40.071375" lon="-105.2297889">
  <ele>1582.97</ele>
  <time>2026-08-28T17:49:22Z</time>
  <course>246.93</course>
  <speed>0.01</speed>
  <fix>3d</fix>
</trkpt>
<trkpt lat="40.0713749" lon="-105.229789">
  <ele>1583.0</ele>
  <time>2026-08-28T17:49:22Z</time>
  <course>0.0</course>
  <speed>0.0</speed>
  <fix>3d</fix>
</trkpt>
<trkpt lat="40.071375" lon="-105.2297889">
  <ele>1582.97</ele>
  <time>2026-08-28T17:49:22Z</time>
  <course>246.93</course>
  <speed>0.01</speed>
  <fix>3d</fix>
</trkpt>
<trkpt lat="40.0713749" lon="-105.229789">
  <ele>1583.0</ele>
  <time>2026-08-28T17:49:22Z</time>
  <course>0.0</course>
  <speed>0.0</speed>
  <fix>3d</fix>
</trkpt>
<trkpt lat="40.071375" lon="-105.2297889">
  <ele>1582.97</ele>
  <time>2026-08-28T17:49:22Z</time>
  <course>246.93</course>
  <speed>0.01</speed>
  <fix>3d</fix>
</trkpt>
<trkpt lat="40.0713749" lon="-105.229789">
  <ele>1583.0</ele>
  <time>2026-08-28T17:49:22Z</time>
  <course>0.0</course>
  <speed>0.0</speed>
  <fix>3d</fix>
</trkpt>
<trkpt lat="40.071375" lon="-105.2297889">
  <ele>1582.97</ele>
  <time>2026-08-28T17:49:22Z</time>
  <course>246.93</course>
  <speed>0.01</speed>
  <fix>3d</fix>
</trkpt>
<trkpt lat="40.0713749" lon="-105.229789">
  <ele>1583.0</ele>
  <time>2026-08-28T17:49:22Z</time>
  <course>0.0</course>
  <speed>0.0</speed>
  <fix>3d</fix>
</trkpt>
<trkpt lat="40.071375" lon="-105.2297889">
  <ele>1582.97</ele>
  <time>2026-08-28T17:49:22Z</time>
  <course>246.93</course>
  <speed>0.01</speed>
  <fix>3d</fix>
</trkpt>
<trkpt lat="40.0713749" lon="-105.229789">
  <ele>1583.0</ele>
  <time>2026-08-28T17:49:22Z</time>
  <course>0.0</course>
  <speed>0.0</speed>
  <fix>3d</fix>
</trkpt>
<trkpt lat="40.071375" lon="-105.2297889">
  <ele>1582.97</ele>
  <time>2026-08-28T17:49:22Z</time>
  <course>246.93</course>
  <speed>0.01</speed>
  <fix>3d</fix>
</trkpt>
<trkpt lat="40.0713749" lon="-105.229789">
  <ele>1583.0</ele>
  <time>2026-08-28T17:49:22Z</time>
  <course>0.0</course>
  <speed>0.0</speed>
  <fix>3d</fix>
</trkpt>
<trkpt lat="40.071375" lon="-105.2297889">
  <ele>1582.98</ele>
  <time>2026-08-28T17:49:22Z</time>
  <course>246.93</course>
  <speed>0.01</speed>
  <fix>3d</fix>
</trkpt>
<trkpt lat="40.0713749" lon="-105.229789">
  <ele>1583.0</ele>
  <time>2026-08-28T17:49:22Z</time>
  <course>0.0</course>
  <speed>0.0</speed>
  <fix>3d</fix>
</trkpt>
<trkpt lat="40.071375" lon="-105.2297889">
  <ele>1582.98</ele>
  <time>2026-08-28T17:49:22Z</time>
  <course>246.92</course>
  <speed>0.01</speed>
  <fix>3d</fix>
</trkpt>
<trkpt lat="40.0713749" lon="-105.229789">
  <ele>1583.0</ele>
  <time>2026-08-28T17:49:22Z</time>
  <course>0.0</course>
  <speed>0.0</speed>
  <fix>3d</fix>
</trkpt>
<trkpt lat="40.071375" lon="-105.2297889">
  <ele>1582.99</ele>
  <time>2026-08-28T17:49:22Z</time>
  <course>246.92</course>
  <speed>0.01</speed>
  <fix>3d</fix>
</trkpt>
<trkpt lat="40.0713749" lon="-105.229789">
  <ele>1583.0</ele>
  <time>2026-08-28T17:49:22Z</time>
  <course>0.0</course>
  <speed>0.0</speed>
  <fix>3d</fix>
</trkpt>
<trkpt lat="40.071375" lon="-105.2297889">
  <ele>1583.0</ele>
  <time>2026-08-28T17:49:22Z</time>
  <course>246.92</course>
  <speed>0.01</speed>
  <fix>3d</fix>
</trkpt>
<trkpt lat="40.0713749" lon="-105.229789">
  <ele>1583.0</ele>
  <time>2026-08-28T17:49:22Z</time>
  <course>0.0</course>
  <speed>0.0</speed>
  <fix>3d</fix>
</trkpt>
<trkpt lat="40.071375" lon="-105.2297889">
  <ele>1583.0</ele>
  <time>2026-08-28T17:49:22Z</time>
  <course>246.92</course>
  <speed>0.01</speed>
  <fix>3d</fix>
</trkpt>
<trkpt lat="40.0713749" lon="-105.229789">
  <ele>1583.0</ele>
  <time>2026-08-28T17:49:22Z</time>
  <course>0.0</course>
  <speed>0.0</speed>
  <fix>3d</fix>
</trkpt>
<trkpt lat="40.071375" lon="-105.2297889">
  <ele>1583.01</ele>
  <time>2026-08-28T17:49:22Z</time>
  <course>246.92</course>
  <speed>0.01</speed>
  <fix>3d</fix>
</trkpt>
<trkpt lat="40.0713749" lon="-105.229789">
  <ele>1583.0</ele>
  <time>2026-08-28T17:49:22Z</time>
  <course>0.0</course>
  <speed>0.0</speed>
  <fix>3d</fix>
</trkpt>
<trkpt lat="40.071375" lon="-105.2297889">
  <ele>1583.01</ele>
  <time>2026-08-28T17:49:22Z</time>
  <course>246.92</course>
  <speed>0.01</speed>
  <fix>3d</fix>
</trkpt>
<trkpt lat="40.0713749" lon="-105.229789">
  <ele>1583.0</ele>
  <time>2026-08-28T17:49:22Z</time>
  <course>0.0</course>
  <speed>0.0</speed>
  <fix>3d</fix>
</trkpt>
<trkpt lat="40.071375" lon="-105.2297889">
  <ele>1583.02</ele>
  <time>2026-08-28T17:49:22Z</time>
  <course>246.92</course>
  <speed>0.01</speed>
  <fix>3d</fix>
</trkpt>
<trkpt lat="40.0713749" lon="-105.229789">
  <ele>1583.0</ele>
  <time>2026-08-28T17:49:22Z</time>
  <course>0.0</course>
  <speed>0.0</speed>
  <fix>3d</fix>
</trkpt>
<trkpt lat="40.071375" lon="-105.2297889">
  <ele>1583.02</ele>
  <time>2026-08-28T17:49:22Z</time>
  <course>246.92</course>
  <speed>0.01</speed>
  <fix>3d</fix>
</trkpt>
<trkpt lat="40.0713749" lon="-105.229789">
  <ele>1583.0</ele>
  <time>2026-08-28T17:49:22Z</time>
  <course>0.0</course>
  <speed>0.0</speed>
  <fix>3d</fix>
</trkpt>
<trkpt lat="40.071375" lon="-105.2297889">
  <ele>1583.03</ele>
  <time>2026-08-28T17:49:22Z</time>
  <course>246.91</course>
  <speed>0.01</speed>
  <fix>3d</fix>
</trkpt>
<trkpt lat="40.0713749" lon="-105.229789">
  <ele>1583.0</ele>
  <time>2026-08-28T17:49:22Z</time>
  <course>0.0</course>
  <speed>0.0</speed>
  <fix>3d</fix>
</trkpt>
<trkpt lat="40.071375" lon="-105.2297889">
  <ele>1583.03</ele>
  <time>2026-08-28T17:49:22Z</time>
  <course>246.91</course>
  <speed>0.01</speed>
  <fix>3d</fix>
</trkpt>
<trkpt lat="40.0713749" lon="-105.229789">
  <ele>1583.0</ele>
  <time>2026-08-28T17:49:22Z</time>
  <course>0.0</course>
  <speed>0.0</speed>
  <fix>3d</fix>
</trkpt>
<trkpt lat="40.071375" lon="-105.2297889">
  <ele>1583.03</ele>
  <time>2026-08-28T17:49:22Z</time>
  <course>246.91</course>
  <speed>0.01</speed>
  <fix>3d</fix>
</trkpt>
<trkpt lat="40.0713749" lon="-105.229789">
  <ele>1583.0</ele>
  <time>2026-08-28T17:49:22Z</time>
  <course>0.0</course>
  <speed>0.0</speed>
  <fix>3d</fix>
</trkpt>
<trkpt lat="40.071375" lon="-105.2297889">
  <ele>1583.03</ele>
  <time>2026-08-28T17:49:22Z</time>
  <course>246.91</course>
  <speed>0.01</speed>
  <fix>3d</fix>
</trkpt>
<trkpt lat="40.0713749" lon="-105.229789">
  <ele>1583.0</ele>
  <time>2026-08-28T17:49:22Z</time>
  <course>0.0</course>
  <speed>0.0</speed>
  <fix>3d</fix>
</trkpt>
<trkpt lat="40.071375" lon="-105.2297889">
  <ele>1583.02</ele>
  <time>2026-08-28T17:49:22Z</time>
  <course>246.91</course>
  <speed>0.01</speed>
  <fix>3d</fix>
</trkpt>
<trkpt lat="40.0713749" lon="-105.229789">
  <ele>1583.0</ele>
  <time>2026-08-28T17:49:22Z</time>
  <course>0.0</course>
  <speed>0.0</speed>
  <fix>3d</fix>
</trkpt>
<trkpt lat="40.071375" lon="-105.2297889">
  <ele>1583.02</ele>
  <time>2026-08-28T17:49:22Z</time>
  <course>246.91</course>
  <speed>0.01</speed>
  <fix>3d</fix>
</trkpt>
<trkpt lat="40.0713749" lon="-105.229789">
  <ele>1583.0</ele>
  <time>2026-08-28T17:49:22Z</time>
  <course>0.0</course>
  <speed>0.0</speed>
  <fix>3d</fix>
</trkpt>
<trkpt lat="40.071375" lon="-105.2297889">
  <ele>1583.02</ele>
  <time>2026-08-28T17:49:22Z</time>
  <course>246.91</course>
  <speed>0.01</speed>
  <fix>3d</fix>
</trkpt>
<trkpt lat="40.0713749" lon="-105.229789">
  <ele>1583.0</ele>
  <time>2026-08-28T17:49:22Z</time>
  <course>0.0</course>
  <speed>0.0</speed>
  <fix>3d</fix>
</trkpt>
<trkpt lat="40.071375" lon="-105.2297889">
  <ele>1583.02</ele>
  <time>2026-08-28T17:49:22Z</time>
  <course>246.91</course>
  <speed>0.01</speed>
  <fix>3d</fix>
</trkpt>
<trkpt lat="40.0713749" lon="-105.229789">
  <ele>1583.0</ele>
  <time>2026-08-28T17:49:22Z</time>
  <course>0.0</course>
  <speed>0.0</speed>
  <fix>3d</fix>
</trkpt>
<trkpt lat="40.071375" lon="-105.2297889">
  <ele>1583.02</ele>
  <time>2026-08-28T17:49:22Z</time>
  <course>246.9</course>
  <speed>0.0</speed>
  <fix>3d</fix>
</trkpt>
<trkpt lat="40.0713749" lon="-105.229789">
  <ele>1583.0</ele>
  <time>2026-08-28T17:49:22Z</time>
  <course>0.0</course>
  <speed>0.0</speed>
  <fix>3d</fix>
</trkpt>
<trkpt lat="40.071375" lon="-105.2297889">
  <ele>1583.02</ele>
  <time>2026-08-28T17:49:22Z</time>
  <course>246.9</course>
  <speed>0.0</speed>
  <fix>3d</fix>
</trkpt>
<trkpt lat="40.0713749" lon="-105.229789">
  <ele>1583.0</ele>
  <time>2026-08-28T17:49:22Z</time>
  <course>0.0</course>
  <speed>0.0</speed>
  <fix>3d</fix>
</trkpt>
<trkpt lat="40.071375" lon="-105.2297889">
  <ele>1583.01</ele>
  <time>2026-08-28T17:49:22Z</time>
  <course>246.9</course>
  <speed>0.0</speed>
  <fix>3d</fix>
</trkpt>
<trkpt lat="40.0713749" lon="-105.229789">
  <ele>1583.0</ele>
  <time>2026-08-28T17:49:22Z</time>
  <course>0.0</course>
  <speed>0.0</speed>
  <fix>3d</fix>
</trkpt>
<trkpt lat="40.071375" lon="-105.2297889">
  <ele>1583.01</ele>
  <time>2026-08-28T17:49:22Z</time>
  <course>246.9</course>
  <speed>0.0</speed>
  <fix>3d</fix>
</trkpt>
<trkpt lat="40.0713749" lon="-105.229789">
  <ele>1583.0</ele>
  <time>2026-08-28T17:49:22Z</time>
  <course>0.0</course>
  <speed>0.0</speed>
  <fix>3d</fix>
</trkpt>
<trkpt lat="40.071375" lon="-105.2297889">
  <ele>1583.0</ele>
  <time>2026-08-28T17:49:22Z</time>
  <course>246.9</course>
  <speed>0.0</speed>
  <fix>3d</fix>
</trkpt>
<trkpt lat="40.0713749" lon="-105.229789">
  <ele>1583.0</ele>
  <time>2026-08-28T17:49:22Z</time>
  <course>0.0</course>
  <speed>0.0</speed>
  <fix>3d</fix>
</trkpt>
<trkpt lat="40.071375" lon="-105.2297889">
  <ele>1583.0</ele>
  <time>2026-08-28T17:49:22Z</time>
  <course>246.9</course>
  <speed>0.0</speed>
  <fix>3d</fix>
</trkpt>
<trkpt lat="40.0713749" lon="-105.229789">
  <ele>1583.0</ele>
  <time>2026-08-28T17:49:22Z</time>
  <course>0.0</course>
  <speed>0.0</speed>
  <fix>3d</fix>
</trkpt>
<trkpt lat="40.071375" lon="-105.2297889">
  <ele>1582.99</ele>
  <time>2026-08-28T17:49:22Z</time>
  <course>246.9</course>
  <speed>0.0</speed>
  <fix>3d</fix>
</trkpt>
<trkpt lat="40.0713749" lon="-105.229789">
  <ele>1583.0</ele>
  <time>2026-08-28T17:49:22Z</time>
  <course>0.0</course>
  <speed>0.0</speed>
  <fix>3d</fix>
</trkpt>
<trkpt lat="40.071375" lon="-105.2297889">
  <ele>1582.99</ele>
  <time>2026-08-28T17:49:22Z</time>
  <course>246.89</course>
  <speed>0.0</speed>
  <fix>3d</fix>
</trkpt>
<trkpt lat="40.0713749" lon="-105.229789">
  <ele>1583.0</ele>
  <time>2026-08-28T17:49:22Z</time>
  <course>0.0</course>
  <speed>0.0</speed>
  <fix>3d</fix>
</trkpt>
<trkpt lat="40.071375" lon="-105.2297889">
  <ele>1582.98</ele>
  <time>2026-08-28T17:49:22Z</time>
  <course>246.89</course>
  <speed>0.0</speed>
  <fix>3d</fix>
</trkpt>
<trkpt lat="40.0713749" lon="-105.229789">
  <ele>1583.0</ele>
  <time>2026-08-28T17:49:22Z</time>
  <course>0.0</course>
  <speed>0.0</speed>
  <fix>3d</fix>
</trkpt>
<trkpt lat="40.071375" lon="-105.2297889">
  <ele>1582.97</ele>
  <time>2026-08-28T17:49:22Z</time>
  <course>246.89</course>
  <speed>0.0</speed>
  <fix>3d</fix>
</trkpt>
<trkpt lat="40.0713749" lon="-105.229789">
  <ele>1583.0</ele>
  <time>2026-08-28T17:49:22Z</time>
  <course>0.0</course>
  <speed>0.0</speed>
  <fix>3d</fix>
</trkpt>
<trkpt lat="40.071375" lon="-105.2297889">
  <ele>1582.97</ele>
  <time>2026-08-28T17:49:22Z</time>
  <course>246.89</course>
  <speed>0.0</speed>
  <fix>3d</fix>
</trkpt>
<trkpt lat="40.0713749" lon="-105.229789">
  <ele>1583.0</ele>
  <time>2026-08-28T17:49:22Z</time>
  <course>0.0</course>
  <speed>0.0</speed>
  <fix>3d</fix>
</trkpt>
<trkpt lat="40.071375" lon="-105.2297889">
  <ele>1582.97</ele>
  <time>2026-08-28T17:49:22Z</time>
  <course>246.89</course>
  <speed>0.0</speed>
  <fix>3d</fix>
</trkpt>
<trkpt lat="40.0713749" lon="-105.229789">
  <ele>1583.0</ele>
  <time>2026-08-28T17:49:22Z</time>
  <course>0.0</course>
  <speed>0.0</speed>
  <fix>3d</fix>
</trkpt>
<trkpt lat="40.071375" lon="-105.2297889">
  <ele>1582.97</ele>
  <time>2026-08-28T17:49:22Z</time>
  <course>246.89</course>
  <speed>0.0</speed>
  <fix>3d</fix>
</trkpt>
<trkpt lat="40.0713749" lon="-105.229789">
  <ele>1583.0</ele>
  <time>2026-08-28T17:49:22Z</time>
  <course>0.0</course>
  <speed>0.0</speed>
  <fix>3d</fix>
</trkpt>
<trkpt lat="40.071375" lon="-105.2297889">
  <ele>1582.97</ele>
  <time>2026-08-28T17:49:22Z</time>
  <course>246.88</course>
  <speed>0.0</speed>
  <fix>3d</fix>
</trkpt>
<trkpt lat="40.0713749" lon="-105.229789">
  <ele>1583.0</ele>
  <time>2026-08-28T17:49:22Z</time>
  <course>0.0</course>
  <speed>0.0</speed>
  <fix>3d</fix>
</trkpt>
<trkpt lat="40.071375" lon="-105.2297889">
  <ele>1582.97</ele>
  <time>2026-08-28T17:49:22Z</time>
  <course>246.88</course>
  <speed>0.0</speed>
  <fix>3d</fix>
</trkpt>
<trkpt lat="40.0713749" lon="-105.229789">
  <ele>1583.0</ele>
  <time>2026-08-28T17:49:22Z</time>
  <course>0.0</course>
  <speed>0.0</speed>
  <fix>3d</fix>
</trkpt>
<trkpt lat="40.071375" lon="-105.2297889">
  <ele>1582.97</ele>
  <time>2026-08-28T17:49:22Z</time>
  <course>246.88</course>
  <speed>0.0</speed>
  <fix>3d</fix>
</trkpt>
<trkpt lat="40.0713749" lon="-105.229789">
  <ele>1583.0</ele>
  <time>2026-08-28T17:49:22Z</time>
  <course>0.0</course>
  <speed>0.0</speed>
  <fix>3d</fix>
</trkpt>
<trkpt lat="40.071375" lon="-105.2297889">
  <ele>1582.97</ele>
  <time>2026-08-28T17:49:22Z</time>
  <course>246.88</course>
  <speed>0.0</speed>
  <fix>3d</fix>
</trkpt>
<trkpt lat="40.0713749" lon="-105.229789">
  <ele>1583.0</ele>
  <time>2026-08-28T17:49:22Z</time>
  <course>0.0</course>
  <speed>0.0</speed>
  <fix>3d</fix>
</trkpt>
<trkpt lat="40.071375" lon="-105.2297889">
  <ele>1582.97</ele>
  <time>2026-08-28T17:49:22Z</time>
  <course>246.88</course>
  <speed>0.0</speed>
  <fix>3d</fix>
</trkpt>
<trkpt lat="40.0713749" lon="-105.229789">
  <ele>1583.0</ele>
  <time>2026-08-28T17:49:22Z</time>
  <course>0.0</course>
  <speed>0.0</speed>
  <fix>3d</fix>
</trkpt>
<trkpt lat="40.071375" lon="-105.2297889">
  <ele>1582.97</ele>
  <time>2026-08-28T17:49:22Z</time>
  <course>246.88</course>
  <speed>0.0</speed>
  <fix>3d</fix>
</trkpt>
<trkpt lat="40.0713749" lon="-105.229789">
  <ele>1583.0</ele>
  <time>2026-08-28T17:49:22Z</time>
  <course>0.0</course>
  <speed>0.0</speed>
  <fix>3d</fix>
</trkpt>
<trkpt lat="40.071375" lon="-105.2297889">
  <ele>1582.97</ele>
  <time>2026-08-28T17:49:22Z</time>
  <course>246.87</course>
  <speed>0.0</speed>
  <fix>3d</fix>
</trkpt>
<trkpt lat="40.0713749" lon="-105.229789">
  <ele>1583.0</ele>
  <time>2026-08-28T17:49:22Z</time>
  <course>0.0</course>
  <speed>0.0</speed>
  <fix>3d</fix>
</trkpt>
<trkpt lat="40.071375" lon="-105.2297889">
  <ele>1582.97</ele>
  <time>2026-08-28T17:49:22Z</time>
  <course>246.87</course>
  <speed>0.0</speed>
  <fix>3d</fix>
</trkpt>
<trkpt lat="40.0713749" lon="-105.229789">
  <ele>1583.0</ele>
  <time>2026-08-28T17:49:22Z</time>
  <course>0.0</course>
  <speed>0.0</speed>
  <fix>3d</fix>
</trkpt>
<trkpt lat="40.071375" lon="-105.2297889">
  <ele>1582.97</ele>
  <time>2026-08-28T17:49:22Z</time>
  <course>246.87</course>
  <speed>0.0</speed>
  <fix>3d</fix>
</trkpt>
<trkpt lat="40.0713749" lon="-105.229789">
  <ele>1583.0</ele>
  <time>2026-08-28T17:49:22Z</time>
  <course>0.0</course>
  <speed>0.0</speed>
  <fix>3d</fix>
</trkpt>
<trkpt lat="40.071375" lon="-105.2297889">
  <ele>1582.97</ele>
  <time>2026-08-28T17:49:22Z</time>
  <course>246.87</course>
  <speed>0.0</speed>
  <fix>3d</fix>
</trkpt>
<trkpt lat="40.0713749" lon="-105.229789">
  <ele>1583.0</ele>
  <time>2026-08-28T17:49:22Z</time>
  <course>0.0</course>
  <speed>0.0</speed>
  <fix>3d</fix>
</trkpt>
<trkpt lat="40.071375" lon="-105.2297889">
  <ele>1582.96</ele>
  <time>2026-08-28T17:49:22Z</time>
  <course>246.87</course>
  <speed>0.0</speed>
  <fix>3d</fix>
</trkpt>
<trkpt lat="40.0713749" lon="-105.229789">
  <ele>1583.0</ele>
  <time>2026-08-28T17:49:22Z</time>
  <course>0.0</course>
  <speed>0.0</speed>
  <fix>3d</fix>
</trkpt>
<trkpt lat="40.071375" lon="-105.2297889">
  <ele>1582.96</ele>
  <time>2026-08-28T17:49:22Z</time>
  <course>246.87</course>
  <speed>0.0</speed>
  <fix>3d</fix>
</trkpt>
<trkpt lat="40.0713749" lon="-105.229789">
  <ele>1583.0</ele>
  <time>2026-08-28T17:49:22Z</time>
  <course>0.0</course>
  <speed>0.0</speed>
  <fix>3d</fix>
</trkpt>
<trkpt lat="40.071375" lon="-105.2297889">
  <ele>1582.96</ele>
  <time>2026-08-28T17:49:22Z</time>
  <course>246.86</course>
  <speed>0.0</speed>
  <fix>3d</fix>
</trkpt>
<trkpt lat="40.0713749" lon="-105.229789">
  <ele>1583.0</ele>
  <time>2026-08-28T17:49:22Z</time>
  <course>0.0</course>
  <speed>0.0</speed>
  <fix>3d</fix>
</trkpt>
<trkpt lat="40.071375" lon="-105.2297889">
  <ele>1582.96</ele>
  <time>2026-08-28T17:49:22Z</time>
  <course>246.86</course>
  <speed>0.0</speed>
  <fix>3d</fix>
</trkpt>
<trkpt lat="40.0713749" lon="-105.229789">
  <ele>1583.0</ele>
  <time>2026-08-28T17:49:22Z</time>
  <course>0.0</course>
  <speed>0.0</speed>
  <fix>3d</fix>
</trkpt>
<trkpt lat="40.071375" lon="-105.2297889">
  <ele>1582.96</ele>
  <time>2026-08-28T17:49:22Z</time>
  <course>246.86</course>
  <speed>0.0</speed>
  <fix>3d</fix>
</trkpt>
<trkpt lat="40.0713749" lon="-105.229789">
  <ele>1583.0</ele>
  <time>2026-08-28T17:49:22Z</time>
  <course>0.0</course>
  <speed>0.0</speed>
  <fix>3d</fix>
</trkpt>
<trkpt lat="40.071375" lon="-105.2297889">
  <ele>1582.96</ele>
  <time>2026-08-28T17:49:22Z</time>
  <course>246.86</course>
  <speed>0.0</speed>
  <fix>3d</fix>
</trkpt>
<trkpt lat="40.0713749" lon="-105.229789">
  <ele>1583.0</ele>
  <time>2026-08-28T17:49:22Z</time>
  <course>0.0</course>
  <speed>0.0</speed>
  <fix>3d</fix>
</trkpt>
<trkpt lat="40.071375" lon="-105.2297889">
  <ele>1582.96</ele>
  <time>2026-08-28T17:49:22Z</time>
  <course>246.86</course>
  <speed>0.0</speed>
  <fix>3d</fix>
</trkpt>
<trkpt lat="40.0713749" lon="-105.229789">
  <ele>1583.0</ele>
  <time>2026-08-28T17:49:22Z</time>
  <course>0.0</course>
  <speed>0.0</speed>
  <fix>3d</fix>
</trkpt>
<trkpt lat="40.071375" lon="-105.2297889">
  <ele>1582.96</ele>
  <time>2026-08-28T17:49:22Z</time>
  <course>246.86</course>
  <speed>0.0</speed>
  <fix>3d</fix>
</trkpt>
<trkpt lat="40.0713749" lon="-105.229789">
  <ele>1583.0</ele>
  <time>2026-08-28T17:49:22Z</time>
  <course>0.0</course>
  <speed>0.0</speed>
  <fix>3d</fix>
</trkpt>
<trkpt lat="40.071375" lon="-105.2297889">
  <ele>1582.96</ele>
  <time>2026-08-28T17:49:22Z</time>
  <course>246.85</course>
  <speed>0.0</speed>
  <fix>3d</fix>
</trkpt>
<trkpt lat="40.0713749" lon="-105.229789">
  <ele>1583.0</ele>
  <time>2026-08-28T17:49:22Z</time>
  <course>0.0</course>
  <speed>0.0</speed>
  <fix>3d</fix>
</trkpt>
<trkpt lat="40.071375" lon="-105.2297889">
  <ele>1582.95</ele>
  <time>2026-08-28T17:49:22Z</time>
  <course>246.85</course>
  <speed>0.0</speed>
  <fix>3d</fix>
</trkpt>
<trkpt lat="40.0713749" lon="-105.229789">
  <ele>1583.0</ele>
  <time>2026-08-28T17:49:22Z</time>
  <course>0.0</course>
  <speed>0.0</speed>
  <fix>3d</fix>
</trkpt>
<trkpt lat="40.071375" lon="-105.2297889">
  <ele>1582.95</ele>
  <time>2026-08-28T17:49:22Z</time>
  <course>246.85</course>
  <speed>0.0</speed>
  <fix>3d</fix>
</trkpt>
<trkpt lat="40.0713749" lon="-105.229789">
  <ele>1583.0</ele>
  <time>2026-08-28T17:49:22Z</time>
  <course>0.0</course>
  <speed>0.0</speed>
  <fix>3d</fix>
</trkpt>
<trkpt lat="40.071375" lon="-105.2297889">
  <ele>1582.95</ele>
  <time>2026-08-28T17:49:22Z</time>
  <course>246.85</course>
  <speed>0.0</speed>
  <fix>3d</fix>
</trkpt>
<trkpt lat="40.0713749" lon="-105.229789">
  <ele>1583.0</ele>
  <time>2026-08-28T17:49:22Z</time>
  <course>0.0</course>
  <speed>0.0</speed>
  <fix>3d</fix>
</trkpt>
<trkpt lat="40.071375" lon="-105.2297889">
  <ele>1582.95</ele>
  <time>2026-08-28T17:49:22Z</time>
  <course>246.85</course>
  <speed>0.0</speed>
  <fix>3d</fix>
</trkpt>
<trkpt lat="40.0713749" lon="-105.229789">
  <ele>1583.0</ele>
  <time>2026-08-28T17:49:22Z</time>
  <course>0.0</course>
  <speed>0.0</speed>
  <fix>3d</fix>
</trkpt>
<trkpt lat="40.071375" lon="-105.2297889">
  <ele>1582.95</ele>
  <time>2026-08-28T17:49:22Z</time>
  <course>246.84</course>
  <speed>0.0</speed>
  <fix>3d</fix>
</trkpt>
<trkpt lat="40.0713749" lon="-105.229789">
  <ele>1583.0</ele>
  <time>2026-08-28T17:49:22Z</time>
  <course>0.0</course>
  <speed>0.0</speed>
  <fix>3d</fix>
</trkpt>
<trkpt lat="40.071375" lon="-105.2297889">
  <ele>1582.95</ele>
  <time>2026-08-28T17:49:22Z</time>
  <course>246.84</course>
  <speed>0.0</speed>
  <fix>3d</fix>
</trkpt>
<trkpt lat="40.0713749" lon="-105.229789">
  <ele>1583.0</ele>
  <time>2026-08-28T17:49:22Z</time>
  <course>0.0</course>
  <speed>0.0</speed>
  <fix>3d</fix>
</trkpt>
<trkpt lat="40.071375" lon="-105.2297889">
  <ele>1582.94</ele>
  <time>2026-08-28T17:49:22Z</time>
  <course>246.84</course>
  <speed>0.0</speed>
  <fix>3d</fix>
</trkpt>
<trkpt lat="40.0713749" lon="-105.229789">
  <ele>1583.0</ele>
  <time>2026-08-28T17:49:22Z</time>
  <course>0.0</course>
  <speed>0.0</speed>
  <fix>3d</fix>
</trkpt>
<trkpt lat="40.071375" lon="-105.2297889">
  <ele>1582.94</ele>
  <time>2026-08-28T17:49:22Z</time>
  <course>246.84</course>
  <speed>0.0</speed>
  <fix>3d</fix>
</trkpt>
<trkpt lat="40.0713749" lon="-105.229789">
  <ele>1583.0</ele>
  <time>2026-08-28T17:49:22Z</time>
  <course>0.0</course>
  <speed>0.0</speed>
  <fix>3d</fix>
</trkpt>
<trkpt lat="40.071375" lon="-105.2297889">
  <ele>1582.94</ele>
  <time>2026-08-28T17:49:22Z</time>
  <course>246.84</course>
  <speed>0.0</speed>
  <fix>3d</fix>
</trkpt>
<trkpt lat="40.0713749" lon="-105.229789">
  <ele>1583.0</ele>
  <time>2026-08-28T17:49:22Z</time>
  <course>0.0</course>
  <speed>0.0</speed>
  <fix>3d</fix>
</trkpt>
<trkpt lat="40.071375" lon="-105.2297889">
  <ele>1582.93</ele>
  <time>2026-08-28T17:49:22Z</time>
  <course>246.84</course>
  <speed>0.0</speed>
  <fix>3d</fix>
</trkpt>
<trkpt lat="40.0713749" lon="-105.229789">
  <ele>1583.0</ele>
  <time>2026-08-28T17:49:22Z</time>
  <course>0.0</course>
  <speed>0.0</speed>
  <fix>3d</fix>
</trkpt>
<trkpt lat="40.071375" lon="-105.2297889">
  <ele>1582.93</ele>
  <time>2026-08-28T17:49:22Z</time>
  <course>246.83</course>
  <speed>0.0</speed>
  <fix>3d</fix>
</trkpt>
<trkpt lat="40.0713749" lon="-105.229789">
  <ele>1583.0</ele>
  <time>2026-08-28T17:49:22Z</time>
  <course>0.0</course>
  <speed>0.0</speed>
  <fix>3d</fix>
</trkpt>
<trkpt lat="40.071375" lon="-105.2297889">
  <ele>1582.93</ele>
  <time>2026-08-28T17:49:22Z</time>
  <course>246.83</course>
  <speed>0.0</speed>
  <fix>3d</fix>
</trkpt>
<trkpt lat="40.0713749" lon="-105.229789">
  <ele>1583.0</ele>
  <time>2026-08-28T17:49:22Z</time>
  <course>0.0</course>
  <speed>0.0</speed>
  <fix>3d</fix>
</trkpt>
<trkpt lat="40.071375" lon="-105.2297889">
  <ele>1582.93</ele>
  <time>2026-08-28T17:49:22Z</time>
  <course>246.83</course>
  <speed>0.0</speed>
  <fix>3d</fix>
</trkpt>
<trkpt lat="40.0713749" lon="-105.229789">
  <ele>1583.0</ele>
  <time>2026-08-28T17:49:22Z</time>
  <course>0.0</course>
  <speed>0.0</speed>
  <fix>3d</fix>
</trkpt>
<trkpt lat="40.071375" lon="-105.2297889">
  <ele>1582.93</ele>
  <time>2026-08-28T17:49:22Z</time>
  <course>246.83</course>
  <speed>0.0</speed>
  <fix>3d</fix>
</trkpt>
<trkpt lat="40.0713749" lon="-105.229789">
  <ele>1583.0</ele>
  <time>2026-08-28T17:49:22Z</time>
  <course>0.0</course>
  <speed>0.0</speed>
  <fix>3d</fix>
</trkpt>
<trkpt lat="40.071375" lon="-105.2297889">
  <ele>1582.93</ele>
  <time>2026-08-28T17:49:22Z</time>
  <course>246.83</course>
  <speed>0.0</speed>
  <fix>3d</fix>
</trkpt>
<trkpt lat="40.0713749" lon="-105.229789">
  <ele>1583.0</ele>
  <time>2026-08-28T17:49:22Z</time>
  <course>0.0</course>
  <speed>0.0</speed>
  <fix>3d</fix>
</trkpt>
<trkpt lat="40.071375" lon="-105.2297889">
  <ele>1582.93</ele>
  <time>2026-08-28T17:49:22Z</time>
  <course>246.82</course>
  <speed>0.0</speed>
  <fix>3d</fix>
</trkpt>
<trkpt lat="40.0713749" lon="-105.229789">
  <ele>1583.0</ele>
  <time>2026-08-28T17:49:22Z</time>
  <course>0.0</course>
  <speed>0.0</speed>
  <fix>3d</fix>
</trkpt>
<trkpt lat="40.071375" lon="-105.2297889">
  <ele>1582.94</ele>
  <time>2026-08-28T17:49:22Z</time>
  <course>246.82</course>
  <speed>0.0</speed>
  <fix>3d</fix>
</trkpt>
<trkpt lat="40.0713749" lon="-105.229789">
  <ele>1583.0</ele>
  <time>2026-08-28T17:49:22Z</time>
  <course>0.0</course>
  <speed>0.0</speed>
  <fix>3d</fix>
</trkpt>
<trkpt lat="40.071375" lon="-105.2297889">
  <ele>1582.94</ele>
  <time>2026-08-28T17:49:22Z</time>
  <course>246.82</course>
  <speed>0.0</speed>
  <fix>3d</fix>
</trkpt>
<trkpt lat="40.0713749" lon="-105.229789">
  <ele>1583.0</ele>
  <time>2026-08-28T17:49:22Z</time>
  <course>0.0</course>
  <speed>0.0</speed>
  <fix>3d</fix>
</trkpt>
<trkpt lat="40.071375" lon="-105.2297889">
  <ele>1582.95</ele>
  <time>2026-08-28T17:49:22Z</time>
  <course>246.82</course>
  <speed>0.0</speed>
  <fix>3d</fix>
</trkpt>
<trkpt lat="40.0713749" lon="-105.229789">
  <ele>1583.0</ele>
  <time>2026-08-28T17:49:22Z</time>
  <course>0.0</course>
  <speed>0.0</speed>
  <fix>3d</fix>
</trkpt>
<trkpt lat="40.071375" lon="-105.2297889">
  <ele>1582.95</ele>
  <time>2026-08-28T17:49:22Z</time>
  <course>246.82</course>
  <speed>0.0</speed>
  <fix>3d</fix>
</trkpt>
<trkpt lat="40.0713749" lon="-105.229789">
  <ele>1583.0</ele>
  <time>2026-08-28T17:49:22Z</time>
  <course>0.0</course>
  <speed>0.0</speed>
  <fix>3d</fix>
</trkpt>
<trkpt lat="40.071375" lon="-105.2297889">
  <ele>1582.95</ele>
  <time>2026-08-28T17:49:22Z</time>
  <course>246.81</course>
  <speed>0.0</speed>
  <fix>3d</fix>
</trkpt>
<trkpt lat="40.0713749" lon="-105.229789">
  <ele>1583.0</ele>
  <time>2026-08-28T17:49:22Z</time>
  <course>0.0</course>
  <speed>0.0</speed>
  <fix>3d</fix>
</trkpt>
<trkpt lat="40.071375" lon="-105.2297889">
  <ele>1582.95</ele>
  <time>2026-08-28T17:49:22Z</time>
  <course>246.81</course>
  <speed>0.0</speed>
  <fix>3d</fix>
</trkpt>
<trkpt lat="40.0713749" lon="-105.229789">
  <ele>1583.0</ele>
  <time>2026-08-28T17:49:22Z</time>
  <course>0.0</course>
  <speed>0.0</speed>
  <fix>3d</fix>
</trkpt>
<trkpt lat="40.0713749" lon="-105.2297889">
  <ele>1582.95</ele>
  <time>2026-08-28T17:49:22Z</time>
  <course>246.81</course>
  <speed>0.0</speed>
  <fix>3d</fix>
</trkpt>
<trkpt lat="40.0713749" lon="-105.229789">
  <ele>1583.0</ele>
  <time>2026-08-28T17:49:22Z</time>
  <course>0.0</course>
  <speed>0.0</speed>
  <fix>3d</fix>
</trkpt>
<trkpt lat="40.0713749" lon="-105.2297889">
  <ele>1582.95</ele>
  <time>2026-08-28T17:49:22Z</time>
  <course>246.81</course>
  <speed>0.0</speed>
  <fix>3d</fix>
</trkpt>
<trkpt lat="40.0713749" lon="-105.229789">
  <ele>1583.0</ele>
  <time>2026-08-28T17:49:22Z</time>
  <course>0.0</course>
  <speed>0.0</speed>
  <fix>3d</fix>
</trkpt>
<trkpt lat="40.0713749" lon="-105.2297889">
  <ele>1582.94</ele>
  <time>2026-08-28T17:49:22Z</time>
  <course>246.81</course>
  <speed>0.0</speed>
  <fix>3d</fix>
</trkpt>
<trkpt lat="40.0713749" lon="-105.229789">
  <ele>1583.0</ele>
  <time>2026-08-28T17:49:22Z</time>
  <course>0.0</course>
  <speed>0.0</speed>
  <fix>3d</fix>
</trkpt>
<trkpt lat="40.0713749" lon="-105.2297889">
  <ele>1582.94</ele>
  <time>2026-08-28T17:49:22Z</time>
  <course>246.8</course>
  <speed>0.0</speed>
  <fix>3d</fix>
</trkpt>
<trkpt lat="40.0713749" lon="-105.229789">
  <ele>1583.0</ele>
  <time>2026-08-28T17:49:22Z</time>
  <course>0.0</course>
  <speed>0.0</speed>
  <fix>3d</fix>
</trkpt>
<trkpt lat="40.0713749" lon="-105.2297889">
  <ele>1582.94</ele>
  <time>2026-08-28T17:49:22Z</time>
  <course>246.8</course>
  <speed>0.0</speed>
  <fix>3d</fix>
</trkpt>
<trkpt lat="40.0713749" lon="-105.229789">
  <ele>1583.0</ele>
  <time>2026-08-28T17:49:22Z</time>
  <course>0.0</course>
  <speed>0.0</speed>
  <fix>3d</fix>
</trkpt>
<trkpt lat="40.0713749" lon="-105.229789">
  <ele>1582.94</ele>
  <time>2026-08-28T17:49:22Z</time>
  <course>246.8</course>
  <speed>0.0</speed>
  <fix>3d</fix>
</trkpt>
<trkpt lat="40.0713749" lon="-105.229789">
  <ele>1583.0</ele>
  <time>2026-08-28T17:49:22Z</time>
  <course>0.0</course>
  <speed>0.0</speed>
  <fix>3d</fix>
</trkpt>
<trkpt lat="40.0713749" lon="-105.229789">
  <ele>1582.94</ele>
  <time>2026-08-28T17:49:22Z</time>
  <course>246.8</course>
  <speed>0.0</speed>
  <fix>3d</fix>
</trkpt>
<trkpt lat="40.0713749" lon="-105.229789">
  <ele>1583.0</ele>
  <time>2026-08-28T17:49:22Z</time>
  <course>0.0</course>
  <speed>0.0</speed>
  <fix>3d</fix>
</trkpt>
<trkpt lat="40.0713749" lon="-105.229789">
  <ele>1582.94</ele>
  <time>2026-08-28T17:49:22Z</time>
  <course>246.8</course>
  <speed>0.0</speed>
  <fix>3d</fix>
</trkpt>
<trkpt lat="40.0713749" lon="-105.229789">
  <ele>1583.0</ele>
  <time>2026-08-28T17:49:22Z</time>
  <course>0.0</course>
  <speed>0.0</speed>
  <fix>3d</fix>
</trkpt>
<trkpt lat="40.0713749" lon="-105.229789">
  <ele>1582.94</ele>
  <time>2026-08-28T17:49:22Z</time>
  <course>246.79</course>
  <speed>0.0</speed>
  <fix>3d</fix>
</trkpt>
<trkpt lat="40.0713749" lon="-105.229789">
  <ele>1583.0</ele>
  <time>2026-08-28T17:49:22Z</time>
  <course>0.0</course>
  <speed>0.0</speed>
  <fix>3d</fix>
</trkpt>
<trkpt lat="40.0713749" lon="-105.229789">
  <ele>1582.93</ele>
  <time>2026-08-28T17:49:22Z</time>
  <course>246.79</course>
  <speed>0.0</speed>
  <fix>3d</fix>
</trkpt>
<trkpt lat="40.0713749" lon="-105.229789">
  <ele>1583.0</ele>
  <time>2026-08-28T17:49:22Z</time>
  <course>0.0</course>
  <speed>0.0</speed>
  <fix>3d</fix>
</trkpt>
<trkpt lat="40.0713749" lon="-105.229789">
  <ele>1582.93</ele>
  <time>2026-08-28T17:49:22Z</time>
  <course>246.79</course>
  <speed>0.0</speed>
  <fix>3d</fix>
</trkpt>
<trkpt lat="40.0713749" lon="-105.229789">
  <ele>1583.0</ele>
  <time>2026-08-28T17:49:22Z</time>
  <course>0.0</course>
  <speed>0.0</speed>
  <fix>3d</fix>
</trkpt>
<trkpt lat="40.0713749" lon="-105.229789">
  <ele>1582.93</ele>
  <time>2026-08-28T17:49:22Z</time>
  <course>246.79</course>
  <speed>0.0</speed>
  <fix>3d</fix>
</trkpt>
<trkpt lat="40.0713749" lon="-105.229789">
  <ele>1583.0</ele>
  <time>2026-08-28T17:49:22Z</time>
  <course>0.0</course>
  <speed>0.0</speed>
  <fix>3d</fix>
</trkpt>
<trkpt lat="40.0713749" lon="-105.229789">
  <ele>1582.93</ele>
  <time>2026-08-28T17:49:22Z</time>
  <course>246.79</course>
  <speed>0.0</speed>
  <fix>3d</fix>
</trkpt>
<trkpt lat="40.0713749" lon="-105.229789">
  <ele>1583.0</ele>
  <time>2026-08-28T17:49:22Z</time>
  <course>0.0</course>
  <speed>0.0</speed>
  <fix>3d</fix>
</trkpt>
<trkpt lat="40.0713749" lon="-105.229789">
  <ele>1582.93</ele>
  <time>2026-08-28T17:49:22Z</time>
  <course>246.78</course>
  <speed>0.0</speed>
  <fix>3d</fix>
</trkpt>
<trkpt lat="40.0713749" lon="-105.229789">
  <ele>1583.0</ele>
  <time>2026-08-28T17:49:22Z</time>
  <course>0.0</course>
  <speed>0.0</speed>
  <fix>3d</fix>
</trkpt>
<trkpt lat="40.0713749" lon="-105.229789">
  <ele>1582.93</ele>
  <time>2026-08-28T17:49:22Z</time>
  <course>246.78</course>
  <speed>0.0</speed>
  <fix>3d</fix>
</trkpt>
<trkpt lat="40.0713749" lon="-105.229789">
  <ele>1583.0</ele>
  <time>2026-08-28T17:49:22Z</time>
  <course>0.0</course>
  <speed>0.0</speed>
  <fix>3d</fix>
</trkpt>
<trkpt lat="40.0713749" lon="-105.229789">
  <ele>1582.92</ele>
  <time>2026-08-28T17:49:22Z</time>
  <course>246.78</course>
  <speed>0.0</speed>
  <fix>3d</fix>
</trkpt>
<trkpt lat="40.0713749" lon="-105.229789">
  <ele>1583.0</ele>
  <time>2026-08-28T17:49:22Z</time>
  <course>0.0</course>
  <speed>0.0</speed>
  <fix>3d</fix>
</trkpt>
<trkpt lat="40.0713749" lon="-105.229789">
  <ele>1582.92</ele>
  <time>2026-08-28T17:49:22Z</time>
  <course>246.78</course>
  <speed>0.0</speed>
  <fix>3d</fix>
</trkpt>
<trkpt lat="40.0713749" lon="-105.229789">
  <ele>1583.0</ele>
  <time>2026-08-28T17:49:22Z</time>
  <course>0.0</course>
  <speed>0.0</speed>
  <fix>3d</fix>
</trkpt>
<trkpt lat="40.0713749" lon="-105.229789">
  <ele>1582.92</ele>
  <time>2026-08-28T17:49:22Z</time>
  <course>246.78</course>
  <speed>0.0</speed>
  <fix>3d</fix>
</trkpt>
<trkpt lat="40.0713749" lon="-105.229789">
  <ele>1583.0</ele>
  <time>2026-08-28T17:49:22Z</time>
  <course>0.0</course>
  <speed>0.0</speed>
  <fix>3d</fix>
</trkpt>
<trkpt lat="40.0713749" lon="-105.229789">
  <ele>1582.91</ele>
  <time>2026-08-28T17:49:22Z</time>
  <course>246.77</course>
  <speed>0.0</speed>
  <fix>3d</fix>
</trkpt>
<trkpt lat="40.0713749" lon="-105.229789">
  <ele>1583.0</ele>
  <time>2026-08-28T17:49:22Z</time>
  <course>0.0</course>
  <speed>0.0</speed>
  <fix>3d</fix>
</trkpt>
<trkpt lat="40.0713749" lon="-105.229789">
  <ele>1582.91</ele>
  <time>2026-08-28T17:49:22Z</time>
  <course>246.77</course>
  <speed>0.0</speed>
  <fix>3d</fix>
</trkpt>
<trkpt lat="40.0713749" lon="-105.229789">
  <ele>1583.0</ele>
  <time>2026-08-28T17:49:22Z</time>
  <course>0.0</course>
  <speed>0.0</speed>
  <fix>3d</fix>
</trkpt>
<trkpt lat="40.0713749" lon="-105.229789">
  <ele>1582.91</ele>
  <time>2026-08-28T17:49:22Z</time>
  <course>246.77</course>
  <speed>0.0</speed>
  <fix>3d</fix>
</trkpt>
<trkpt lat="40.0713749" lon="-105.229789">
  <ele>1583.0</ele>
  <time>2026-08-28T17:49:22Z</time>
  <course>0.0</course>
  <speed>0.0</speed>
  <fix>3d</fix>
</trkpt>
<trkpt lat="40.0713749" lon="-105.229789">
  <ele>1582.9</ele>
  <time>2026-08-28T17:49:22Z</time>
  <course>246.77</course>
  <speed>0.0</speed>
  <fix>3d</fix>
</trkpt>
<trkpt lat="40.0713749" lon="-105.229789">
  <ele>1583.0</ele>
  <time>2026-08-28T17:49:22Z</time>
  <course>0.0</course>
  <speed>0.0</speed>
  <fix>3d</fix>
</trkpt>
<trkpt lat="40.0713749" lon="-105.229789">
  <ele>1582.9</ele>
  <time>2026-08-28T17:49:22Z</time>
  <course>246.77</course>
  <speed>0.0</speed>
  <fix>3d</fix>
</trkpt>
<trkpt lat="40.0713749" lon="-105.229789">
  <ele>1583.0</ele>
  <time>2026-08-28T17:49:22Z</time>
  <course>0.0</course>
  <speed>0.0</speed>
  <fix>3d</fix>
</trkpt>
<trkpt lat="40.0713749" lon="-105.229789">
  <ele>1582.9</ele>
  <time>2026-08-28T17:49:22Z</time>
  <course>246.76</course>
  <speed>0.0</speed>
  <fix>3d</fix>
</trkpt>
<trkpt lat="40.0713749" lon="-105.229789">
  <ele>1583.0</ele>
  <time>2026-08-28T17:49:22Z</time>
  <course>0.0</course>
  <speed>0.0</speed>
  <fix>3d</fix>
</trkpt>
<trkpt lat="40.0713749" lon="-105.229789">
  <ele>1582.9</ele>
  <time>2026-08-28T17:49:22Z</time>
  <course>246.76</course>
  <speed>0.0</speed>
  <fix>3d</fix>
</trkpt>
<trkpt lat="40.0713749" lon="-105.229789">
  <ele>1583.0</ele>
  <time>2026-08-28T17:49:22Z</time>
  <course>0.0</course>
  <speed>0.0</speed>
  <fix>3d</fix>
</trkpt>
<trkpt lat="40.0713749" lon="-105.229789">
  <ele>1582.89</ele>
  <time>2026-08-28T17:49:22Z</time>
  <course>246.76</course>
  <speed>0.0</speed>
  <fix>3d</fix>
</trkpt>
<trkpt lat="40.0713749" lon="-105.229789">
  <ele>1583.0</ele>
  <time>2026-08-28T17:49:22Z</time>
  <course>0.0</course>
  <speed>0.0</speed>
  <fix>3d</fix>
</trkpt>
<trkpt lat="40.0713749" lon="-105.229789">
  <ele>1582.89</ele>
  <time>2026-08-28T17:49:22Z</time>
  <course>246.76</course>
  <speed>0.0</speed>
  <fix>3d</fix>
</trkpt>
<trkpt lat="40.0713749" lon="-105.229789">
  <ele>1583.0</ele>
  <time>2026-08-28T17:49:22Z</time>
  <course>0.0</course>
  <speed>0.0</speed>
  <fix>3d</fix>
</trkpt>
<trkpt lat="40.0713749" lon="-105.229789">
  <ele>1582.89</ele>
  <time>2026-08-28T17:49:22Z</time>
  <course>246.75</course>
  <speed>0.0</speed>
  <fix>3d</fix>
</trkpt>
<trkpt lat="40.0713749" lon="-105.229789">
  <ele>1583.0</ele>
  <time>2026-08-28T17:49:22Z</time>
  <course>0.0</course>
  <speed>0.0</speed>
  <fix>3d</fix>
</trkpt>
<trkpt lat="40.0713749" lon="-105.229789">
  <ele>1582.89</ele>
  <time>2026-08-28T17:49:22Z</time>
  <course>246.75</course>
  <speed>0.0</speed>
  <fix>3d</fix>
</trkpt>
<trkpt lat="40.0713749" lon="-105.229789">
  <ele>1583.0</ele>
  <time>2026-08-28T17:49:22Z</time>
  <course>0.0</course>
  <speed>0.0</speed>
  <fix>3d</fix>
</trkpt>
<trkpt lat="40.0713749" lon="-105.229789">
  <ele>1582.89</ele>
  <time>2026-08-28T17:49:22Z</time>
  <course>246.75</course>
  <speed>0.0</speed>
  <fix>3d</fix>
</trkpt>
<trkpt lat="40.0713749" lon="-105.229789">
  <ele>1583.0</ele>
  <time>2026-08-28T17:49:22Z</time>
  <course>0.0</course>
  <speed>0.0</speed>
  <fix>3d</fix>
</trkpt>
<trkpt lat="40.0713749" lon="-105.229789">
  <ele>1582.89</ele>
  <time>2026-08-28T17:49:22Z</time>
  <course>246.75</course>
  <speed>0.0</speed>
  <fix>3d</fix>
</trkpt>
<trkpt lat="40.0713749" lon="-105.229789">
  <ele>1583.0</ele>
  <time>2026-08-28T17:49:22Z</time>
  <course>0.0</course>
  <speed>0.0</speed>
  <fix>3d</fix>
</trkpt>
<trkpt lat="40.0713749" lon="-105.229789">
  <ele>1582.89</ele>
  <time>2026-08-28T17:49:22Z</time>
  <course>246.75</course>
  <speed>0.0</speed>
  <fix>3d</fix>
</trkpt>
<trkpt lat="40.0713749" lon="-105.229789">
  <ele>1583.0</ele>
  <time>2026-08-28T17:49:22Z</time>
  <course>0.0</course>
  <speed>0.0</speed>
  <fix>3d</fix>
</trkpt>
<trkpt lat="40.0713749" lon="-105.229789">
  <ele>1582.89</ele>
  <time>2026-08-28T17:49:22Z</time>
  <course>246.74</course>
  <speed>0.0</speed>
  <fix>3d</fix>
</trkpt>
<trkpt lat="40.0713749" lon="-105.229789">
  <ele>1583.0</ele>
  <time>2026-08-28T17:49:22Z</time>
  <course>0.0</course>
  <speed>0.0</speed>
  <fix>3d</fix>
</trkpt>
<trkpt lat="40.0713749" lon="-105.229789">
  <ele>1582.89</ele>
  <time>2026-08-28T17:49:22Z</time>
  <course>246.74</course>
  <speed>0.0</speed>
  <fix>3d</fix>
</trkpt>
<trkpt lat="40.0713749" lon="-105.229789">
  <ele>1583.0</ele>
  <time>2026-08-28T17:49:22Z</time>
  <course>0.0</course>
  <speed>0.0</speed>
  <fix>3d</fix>
</trkpt>
<trkpt lat="40.0713749" lon="-105.229789">
  <ele>1582.89</ele>
  <time>2026-08-28T17:49:22Z</time>
  <course>246.74</course>
  <speed>0.0</speed>
  <fix>3d</fix>
</trkpt>
<trkpt lat="40.0713749" lon="-105.229789">
  <ele>1583.0</ele>
  <time>2026-08-28T17:49:22Z</time>
  <course>0.0</course>
  <speed>0.0</speed>
  <fix>3d</fix>
</trkpt>
<trkpt lat="40.0713749" lon="-105.229789">
  <ele>1582.9</ele>
  <time>2026-08-28T17:49:22Z</time>
  <course>246.74</course>
  <speed>0.0</speed>
  <fix>3d</fix>
</trkpt>
<trkpt lat="40.0713749" lon="-105.229789">
  <ele>1583.0</ele>
  <time>2026-08-28T17:49:22Z</time>
  <course>0.0</course>
  <speed>0.0</speed>
  <fix>3d</fix>
</trkpt>
<trkpt lat="40.0713749" lon="-105.229789">
  <ele>1582.9</ele>
  <time>2026-08-28T17:49:22Z</time>
  <course>246.73</course>
  <speed>0.0</speed>
  <fix>3d</fix>
</trkpt>
<trkpt lat="40.0713749" lon="-105.229789">
  <ele>1583.0</ele>
  <time>2026-08-28T17:49:22Z</time>
  <course>0.0</course>
  <speed>0.0</speed>
  <fix>3d</fix>
</trkpt>
<trkpt lat="40.0713749" lon="-105.229789">
  <ele>1582.91</ele>
  <time>2026-08-28T17:49:22Z</time>
  <course>246.73</course>
  <speed>0.0</speed>
  <fix>3d</fix>
</trkpt>
<trkpt lat="40.0713749" lon="-105.229789">
  <ele>1583.0</ele>
  <time>2026-08-28T17:49:22Z</time>
  <course>0.0</course>
  <speed>0.0</speed>
  <fix>3d</fix>
</trkpt>
<trkpt lat="40.0713749" lon="-105.229789">
  <ele>1582.91</ele>
  <time>2026-08-28T17:49:22Z</time>
  <course>246.73</course>
  <speed>0.0</speed>
  <fix>3d</fix>
</trkpt>
<trkpt lat="40.0713749" lon="-105.229789">
  <ele>1583.0</ele>
  <time>2026-08-28T17:49:22Z</time>
  <course>0.0</course>
  <speed>0.0</speed>
  <fix>3d</fix>
</trkpt>
<trkpt lat="40.0713749" lon="-105.229789">
  <ele>1582.91</ele>
  <time>2026-08-28T17:49:22Z</time>
  <course>246.73</course>
  <speed>0.0</speed>
  <fix>3d</fix>
</trkpt>
<trkpt lat="40.0713749" lon="-105.229789">
  <ele>1583.0</ele>
  <time>2026-08-28T17:49:22Z</time>
  <course>0.0</course>
  <speed>0.0</speed>
  <fix>3d</fix>
</trkpt>
<trkpt lat="40.0713749" lon="-105.229789">
  <ele>1582.92</ele>
  <time>2026-08-28T17:49:22Z</time>
  <course>246.72</course>
  <speed>0.0</speed>
  <fix>3d</fix>
</trkpt>
<trkpt lat="40.0713749" lon="-105.229789">
  <ele>1583.0</ele>
  <time>2026-08-28T17:49:22Z</time>
  <course>0.0</course>
  <speed>0.0</speed>
  <fix>3d</fix>
</trkpt>
<trkpt lat="40.0713749" lon="-105.229789">
  <ele>1582.92</ele>
  <time>2026-08-28T17:49:22Z</time>
  <course>246.72</course>
  <speed>0.0</speed>
  <fix>3d</fix>
</trkpt>
<trkpt lat="40.0713749" lon="-105.229789">
  <ele>1583.0</ele>
  <time>2026-08-28T17:49:22Z</time>
  <course>0.0</course>
  <speed>0.0</speed>
  <fix>3d</fix>
</trkpt>
<trkpt lat="40.0713749" lon="-105.229789">
  <ele>1582.92</ele>
  <time>2026-08-28T17:49:22Z</time>
  <course>246.72</course>
  <speed>0.0</speed>
  <fix>3d</fix>
</trkpt>
<trkpt lat="40.0713749" lon="-105.229789">
  <ele>1583.0</ele>
  <time>2026-08-28T17:49:22Z</time>
  <course>0.0</course>
  <speed>0.0</speed>
  <fix>3d</fix>
</trkpt>
<trkpt lat="40.0713749" lon="-105.229789">
  <ele>1582.92</ele>
  <time>2026-08-28T17:49:22Z</time>
  <course>246.72</course>
  <speed>0.0</speed>
  <fix>3d</fix>
</trkpt>
<trkpt lat="40.0713749" lon="-105.229789">
  <ele>1583.0</ele>
  <time>2026-08-28T17:49:22Z</time>
  <course>0.0</course>
  <speed>0.0</speed>
  <fix>3d</fix>
</trkpt>
<trkpt lat="40.0713749" lon="-105.229789">
  <ele>1582.92</ele>
  <time>2026-08-28T17:49:22Z</time>
  <course>246.72</course>
  <speed>0.0</speed>
  <fix>3d</fix>
</trkpt>
<trkpt lat="40.0713749" lon="-105.229789">
  <ele>1583.0</ele>
  <time>2026-08-28T17:49:22Z</time>
  <course>0.0</course>
  <speed>0.0</speed>
  <fix>3d</fix>
</trkpt>
<trkpt lat="40.0713749" lon="-105.229789">
  <ele>1582.92</ele>
  <time>2026-08-28T17:49:22Z</time>
  <course>246.71</course>
  <speed>0.0</speed>
  <fix>3d</fix>
</trkpt>
<trkpt lat="40.0713749" lon="-105.229789">
  <ele>1583.0</ele>
  <time>2026-08-28T17:49:22Z</time>
  <course>0.0</course>
  <speed>0.0</speed>
  <fix>3d</fix>
</trkpt>
<trkpt lat="40.0713749" lon="-105.229789">
  <ele>1582.92</ele>
  <time>2026-08-28T17:49:22Z</time>
  <course>246.71</course>
  <speed>0.0</speed>
  <fix>3d</fix>
</trkpt>
<trkpt lat="40.0713749" lon="-105.229789">
  <ele>1583.0</ele>
  <time>2026-08-28T17:49:22Z</time>
  <course>0.0</course>
  <speed>0.0</speed>
  <fix>3d</fix>
</trkpt>
<trkpt lat="40.0713749" lon="-105.229789">
  <ele>1582.93</ele>
  <time>2026-08-28T17:49:22Z</time>
  <course>246.71</course>
  <speed>0.0</speed>
  <fix>3d</fix>
</trkpt>
<trkpt lat="40.0713749" lon="-105.229789">
  <ele>1583.0</ele>
  <time>2026-08-28T17:49:22Z</time>
  <course>0.0</course>
  <speed>0.0</speed>
  <fix>3d</fix>
</trkpt>
<trkpt lat="40.0713749" lon="-105.229789">
  <ele>1582.93</ele>
  <time>2026-08-28T17:49:22Z</time>
  <course>246.71</course>
  <speed>0.0</speed>
  <fix>3d</fix>
</trkpt>
<trkpt lat="40.0713749" lon="-105.229789">
  <ele>1583.0</ele>
  <time>2026-08-28T17:49:22Z</time>
  <course>0.0</course>
  <speed>0.0</speed>
  <fix>3d</fix>
</trkpt>
<trkpt lat="40.0713749" lon="-105.229789">
  <ele>1582.94</ele>
  <time>2026-08-28T17:49:22Z</time>
  <course>246.7</course>
  <speed>0.0</speed>
  <fix>3d</fix>
</trkpt>
<trkpt lat="40.0713749" lon="-105.229789">
  <ele>1583.0</ele>
  <time>2026-08-28T17:49:22Z</time>
  <course>0.0</course>
  <speed>0.0</speed>
  <fix>3d</fix>
</trkpt>
<trkpt lat="40.0713749" lon="-105.229789">
  <ele>1582.94</ele>
  <time>2026-08-28T17:49:22Z</time>
  <course>246.7</course>
  <speed>0.0</speed>
  <fix>3d</fix>
</trkpt>
<trkpt lat="40.0713749" lon="-105.229789">
  <ele>1583.0</ele>
  <time>2026-08-28T17:49:22Z</time>
  <course>0.0</course>
  <speed>0.0</speed>
  <fix>3d</fix>
</trkpt>
<trkpt lat="40.0713749" lon="-105.229789">
  <ele>1582.94</ele>
  <time>2026-08-28T17:49:22Z</time>
  <course>246.7</course>
  <speed>0.0</speed>
  <fix>3d</fix>
</trkpt>
<trkpt lat="40.0713749" lon="-105.229789">
  <ele>1583.0</ele>
  <time>2026-08-28T17:49:22Z</time>
  <course>0.0</course>
  <speed>0.0</speed>
  <fix>3d</fix>
</trkpt>
<trkpt lat="40.0713749" lon="-105.229789">
  <ele>1582.94</ele>
  <time>2026-08-28T17:49:22Z</time>
  <course>246.7</course>
  <speed>0.0</speed>
  <fix>3d</fix>
</trkpt>
<trkpt lat="40.0713749" lon="-105.229789">
  <ele>1583.0</ele>
  <time>2026-08-28T17:49:22Z</time>
  <course>0.0</course>
  <speed>0.0</speed>
  <fix>3d</fix>
</trkpt>
<trkpt lat="40.0713749" lon="-105.229789">
  <ele>1582.95</ele>
  <time>2026-08-28T17:49:22Z</time>
  <course>246.69</course>
  <speed>0.0</speed>
  <fix>3d</fix>
</trkpt>
<trkpt lat="40.0713749" lon="-105.229789">
  <ele>1583.0</ele>
  <time>2026-08-28T17:49:22Z</time>
  <course>0.0</course>
  <speed>0.0</speed>
  <fix>3d</fix>
</trkpt>
<trkpt lat="40.0713749" lon="-105.229789">
  <ele>1582.95</ele>
  <time>2026-08-28T17:49:22Z</time>
  <course>246.69</course>
  <speed>0.0</speed>
  <fix>3d</fix>
</trkpt>
<trkpt lat="40.0713749" lon="-105.229789">
  <ele>1583.0</ele>
  <time>2026-08-28T17:49:22Z</time>
  <course>0.0</course>
  <speed>0.0</speed>
  <fix>3d</fix>
</trkpt>
<trkpt lat="40.0713749" lon="-105.229789">
  <ele>1582.95</ele>
  <time>2026-08-28T17:49:22Z</time>
  <course>246.69</course>
  <speed>0.0</speed>
  <fix>3d</fix>
</trkpt>
<trkpt lat="40.0713749" lon="-105.229789">
  <ele>1583.0</ele>
  <time>2026-08-28T17:49:22Z</time>
  <course>0.0</course>
  <speed>0.0</speed>
  <fix>3d</fix>
</trkpt>
<trkpt lat="40.0713749" lon="-105.229789">
  <ele>1582.96</ele>
  <time>2026-08-28T17:49:22Z</time>
  <course>246.69</course>
  <speed>0.0</speed>
  <fix>3d</fix>
</trkpt>
<trkpt lat="40.0713749" lon="-105.229789">
  <ele>1583.0</ele>
  <time>2026-08-28T17:49:22Z</time>
  <course>0.0</course>
  <speed>0.0</speed>
  <fix>3d</fix>
</trkpt>
<trkpt lat="40.0713749" lon="-105.229789">
  <ele>1582.96</ele>
  <time>2026-08-28T17:49:22Z</time>
  <course>246.69</course>
  <speed>0.0</speed>
  <fix>3d</fix>
</trkpt>
<trkpt lat="40.0713749" lon="-105.229789">
  <ele>1583.0</ele>
  <time>2026-08-28T17:49:22Z</time>
  <course>0.0</course>
  <speed>0.0</speed>
  <fix>3d</fix>
</trkpt>
<trkpt lat="40.0713749" lon="-105.229789">
  <ele>1582.97</ele>
  <time>2026-08-28T17:49:22Z</time>
  <course>246.68</course>
  <speed>0.0</speed>
  <fix>3d</fix>
</trkpt>
<trkpt lat="40.0713749" lon="-105.229789">
  <ele>1583.0</ele>
  <time>2026-08-28T17:49:22Z</time>
  <course>0.0</course>
  <speed>0.0</speed>
  <fix>3d</fix>
</trkpt>
<trkpt lat="40.0713749" lon="-105.229789">
  <ele>1582.97</ele>
  <time>2026-08-28T17:49:22Z</time>
  <course>246.68</course>
  <speed>0.0</speed>
  <fix>3d</fix>
</trkpt>
<trkpt lat="40.0713749" lon="-105.229789">
  <ele>1583.0</ele>
  <time>2026-08-28T17:49:22Z</time>
  <course>0.0</course>
  <speed>0.0</speed>
  <fix>3d</fix>
</trkpt>
<trkpt lat="40.0713749" lon="-105.229789">
  <ele>1582.98</ele>
  <time>2026-08-28T17:49:22Z</time>
  <course>246.68</course>
  <speed>0.0</speed>
  <fix>3d</fix>
</trkpt>
<trkpt lat="40.0713749" lon="-105.229789">
  <ele>1583.0</ele>
  <time>2026-08-28T17:49:22Z</time>
  <course>0.0</course>
  <speed>0.0</speed>
  <fix>3d</fix>
</trkpt>
<trkpt lat="40.0713749" lon="-105.229789">
  <ele>1582.98</ele>
  <time>2026-08-28T17:49:22Z</time>
  <course>246.68</course>
  <speed>0.0</speed>
  <fix>3d</fix>
</trkpt>
<trkpt lat="40.0713749" lon="-105.229789">
  <ele>1583.0</ele>
  <time>2026-08-28T17:49:22Z</time>
  <course>0.0</course>
  <speed>0.0</speed>
  <fix>3d</fix>
</trkpt>
<trkpt lat="40.0713749" lon="-105.229789">
  <ele>1582.98</ele>
  <time>2026-08-28T17:49:22Z</time>
  <course>246.67</course>
  <speed>0.0</speed>
  <fix>3d</fix>
</trkpt>
<trkpt lat="40.0713749" lon="-105.229789">
  <ele>1583.0</ele>
  <time>2026-08-28T17:49:22Z</time>
  <course>0.0</course>
  <speed>0.0</speed>
  <fix>3d</fix>
</trkpt>
<trkpt lat="40.0713749" lon="-105.229789">
  <ele>1582.99</ele>
  <time>2026-08-28T17:49:22Z</time>
  <course>246.67</course>
  <speed>0.0</speed>
  <fix>3d</fix>
</trkpt>
<trkpt lat="40.0713749" lon="-105.229789">
  <ele>1583.0</ele>
  <time>2026-08-28T17:49:22Z</time>
  <course>0.0</course>
  <speed>0.0</speed>
  <fix>3d</fix>
</trkpt>
<trkpt lat="40.0713749" lon="-105.229789">
  <ele>1582.99</ele>
  <time>2026-08-28T17:49:22Z</time>
  <course>246.67</course>
  <speed>0.0</speed>
  <fix>3d</fix>
</trkpt>
<trkpt lat="40.0713749" lon="-105.229789">
  <ele>1583.0</ele>
  <time>2026-08-28T17:49:22Z</time>
  <course>0.0</course>
  <speed>0.0</speed>
  <fix>3d</fix>
</trkpt>
<trkpt lat="40.0713749" lon="-105.229789">
  <ele>1583.0</ele>
  <time>2026-08-28T17:49:22Z</time>
  <course>246.67</course>
  <speed>0.01</speed>
  <fix>3d</fix>
</trkpt>
<trkpt lat="40.0713749" lon="-105.229789">
  <ele>1583.0</ele>
  <time>2026-08-28T17:49:22Z</time>
  <course>0.0</course>
  <speed>0.0</speed>
  <fix>3d</fix>
</trkpt>
<trkpt lat="40.0713749" lon="-105.229789">
  <ele>1583.0</ele>
  <time>2026-08-28T17:49:22Z</time>
  <course>246.66</course>
  <speed>0.01</speed>
  <fix>3d</fix>
</trkpt>
<trkpt lat="40.0713749" lon="-105.229789">
  <ele>1583.0</ele>
  <time>2026-08-28T17:49:22Z</time>
  <course>0.0</course>
  <speed>0.0</speed>
  <fix>3d</fix>
</trkpt>
<trkpt lat="40.0713749" lon="-105.229789">
  <ele>1583.01</ele>
  <time>2026-08-28T17:49:22Z</time>
  <course>246.66</course>
  <speed>0.01</speed>
  <fix>3d</fix>
</trkpt>
<trkpt lat="40.0713749" lon="-105.229789">
  <ele>1583.0</ele>
  <time>2026-08-28T17:49:22Z</time>
  <course>0.0</course>
  <speed>0.0</speed>
  <fix>3d</fix>
</trkpt>
<trkpt lat="40.0713749" lon="-105.229789">
  <ele>1583.01</ele>
  <time>2026-08-28T17:49:22Z</time>
  <course>246.66</course>
  <speed>0.01</speed>
  <fix>3d</fix>
</trkpt>
<trkpt lat="40.0713749" lon="-105.229789">
  <ele>1583.0</ele>
  <time>2026-08-28T17:49:22Z</time>
  <course>0.0</course>
  <speed>0.0</speed>
  <fix>3d</fix>
</trkpt>
<trkpt lat="40.0713749" lon="-105.229789">
  <ele>1583.02</ele>
  <time>2026-08-28T17:49:22Z</time>
  <course>246.66</course>
  <speed>0.01</speed>
  <fix>3d</fix>
</trkpt>
<trkpt lat="40.0713749" lon="-105.229789">
  <ele>1583.0</ele>
  <time>2026-08-28T17:49:22Z</time>
  <course>0.0</course>
  <speed>0.0</speed>
  <fix>3d</fix>
</trkpt>
<trkpt lat="40.0713749" lon="-105.229789">
  <ele>1583.02</ele>
  <time>2026-08-28T17:49:22Z</time>
  <course>246.65</course>
  <speed>0.01</speed>
  <fix>3d</fix>
</trkpt>
<trkpt lat="40.0713749" lon="-105.229789">
  <ele>1583.0</ele>
  <time>2026-08-28T17:49:22Z</time>
  <course>0.0</course>
  <speed>0.0</speed>
  <fix>3d</fix>
</trkpt>
<trkpt lat="40.0713749" lon="-105.229789">
  <ele>1583.03</ele>
  <time>2026-08-28T17:49:22Z</time>
  <course>246.65</course>
  <speed>0.01</speed>
  <fix>3d</fix>
</trkpt>
<trkpt lat="40.0713749" lon="-105.229789">
  <ele>1583.0</ele>
  <time>2026-08-28T17:49:22Z</time>
  <course>0.0</course>
  <speed>0.0</speed>
  <fix>3d</fix>
</trkpt>
<trkpt lat="40.0713749" lon="-105.229789">
  <ele>1583.04</ele>
  <time>2026-08-28T17:49:22Z</time>
  <course>246.65</course>
  <speed>0.01</speed>
  <fix>3d</fix>
</trkpt>
<trkpt lat="40.0713749" lon="-105.229789">
  <ele>1583.0</ele>
  <time>2026-08-28T17:49:22Z</time>
  <course>0.0</course>
  <speed>0.0</speed>
  <fix>3d</fix>
</trkpt>
<trkpt lat="40.0713749" lon="-105.229789">
  <ele>1583.05</ele>
  <time>2026-08-28T17:49:22Z</time>
  <course>246.65</course>
  <speed>0.01</speed>
  <fix>3d</fix>
</trkpt>
<trkpt lat="40.0713749" lon="-105.229789">
  <ele>1583.0</ele>
  <time>2026-08-28T17:49:22Z</time>
  <course>0.0</course>
  <speed>0.0</speed>
  <fix>3d</fix>
</trkpt>
<trkpt lat="40.0713749" lon="-105.229789">
  <ele>1583.05</ele>
  <time>2026-08-28T17:49:22Z</time>
  <course>246.64</course>
  <speed>0.01</speed>
  <fix>3d</fix>
</trkpt>
<trkpt lat="40.0713749" lon="-105.229789">
  <ele>1583.0</ele>
  <time>2026-08-28T17:49:22Z</time>
  <course>0.0</course>
  <speed>0.0</speed>
  <fix>3d</fix>
</trkpt>
<trkpt lat="40.0713749" lon="-105.229789">
  <ele>1583.06</ele>
  <time>2026-08-28T17:49:22Z</time>
  <course>246.64</course>
  <speed>0.01</speed>
  <fix>3d</fix>
</trkpt>
<trkpt lat="40.0713749" lon="-105.229789">
  <ele>1583.0</ele>
  <time>2026-08-28T17:49:22Z</time>
  <course>0.0</course>
  <speed>0.0</speed>
  <fix>3d</fix>
</trkpt>
<trkpt lat="40.0713749" lon="-105.229789">
  <ele>1583.06</ele>
  <time>2026-08-28T17:49:22Z</time>
  <course>246.64</course>
  <speed>0.01</speed>
  <fix>3d</fix>
</trkpt>
<trkpt lat="40.0713749" lon="-105.229789">
  <ele>1583.0</ele>
  <time>2026-08-28T17:49:22Z</time>
  <course>0.0</course>
  <speed>0.0</speed>
  <fix>3d</fix>
</trkpt>
<trkpt lat="40.0713749" lon="-105.229789">
  <ele>1583.07</ele>
  <time>2026-08-28T17:49:22Z</time>
  <course>246.64</course>
  <speed>0.01</speed>
  <fix>3d</fix>
</trkpt>
<trkpt lat="40.0713749" lon="-105.229789">
  <ele>1583.0</ele>
  <time>2026-08-28T17:49:22Z</time>
  <course>0.0</course>
  <speed>0.0</speed>
  <fix>3d</fix>
</trkpt>
<trkpt lat="40.0713749" lon="-105.229789">
  <ele>1583.07</ele>
  <time>2026-08-28T17:49:22Z</time>
  <course>246.63</course>
  <speed>0.01</speed>
  <fix>3d</fix>
</trkpt>
<trkpt lat="40.0713749" lon="-105.229789">
  <ele>1583.0</ele>
  <time>2026-08-28T17:49:22Z</time>
  <course>0.0</course>
  <speed>0.0</speed>
  <fix>3d</fix>
</trkpt>
<trkpt lat="40.0713749" lon="-105.229789">
  <ele>1583.07</ele>
  <time>2026-08-28T17:49:22Z</time>
  <course>246.63</course>
  <speed>0.01</speed>
  <fix>3d</fix>
</trkpt>
<trkpt lat="40.0713749" lon="-105.229789">
  <ele>1583.0</ele>
  <time>2026-08-28T17:49:22Z</time>
  <course>0.0</course>
  <speed>0.0</speed>
  <fix>3d</fix>
</trkpt>
<trkpt lat="40.0713749" lon="-105.229789">
  <ele>1583.07</ele>
  <time>2026-08-28T17:49:22Z</time>
  <course>246.63</course>
  <speed>0.01</speed>
  <fix>3d</fix>
</trkpt>
<trkpt lat="40.0713749" lon="-105.229789">
  <ele>1583.0</ele>
  <time>2026-08-28T17:49:22Z</time>
  <course>0.0</course>
  <speed>0.0</speed>
  <fix>3d</fix>
</trkpt>
<trkpt lat="40.0713749" lon="-105.229789">
  <ele>1583.06</ele>
  <time>2026-08-28T17:49:22Z</time>
  <course>246.63</course>
  <speed>0.01</speed>
  <fix>3d</fix>
</trkpt>
<trkpt lat="40.0713749" lon="-105.229789">
  <ele>1583.0</ele>
  <time>2026-08-28T17:49:22Z</time>
  <course>0.0</course>
  <speed>0.0</speed>
  <fix>3d</fix>
</trkpt>
<trkpt lat="40.0713749" lon="-105.229789">
  <ele>1583.06</ele>
  <time>2026-08-28T17:49:22Z</time>
  <course>246.62</course>
  <speed>0.01</speed>
  <fix>3d</fix>
</trkpt>
<trkpt lat="40.0713749" lon="-105.229789">
  <ele>1583.0</ele>
  <time>2026-08-28T17:49:22Z</time>
  <course>0.0</course>
  <speed>0.0</speed>
  <fix>3d</fix>
</trkpt>
<trkpt lat="40.0713749" lon="-105.229789">
  <ele>1583.05</ele>
  <time>2026-08-28T17:49:22Z</time>
  <course>246.62</course>
  <speed>0.01</speed>
  <fix>3d</fix>
</trkpt>
<trkpt lat="40.0713749" lon="-105.229789">
  <ele>1583.0</ele>
  <time>2026-08-28T17:49:22Z</time>
  <course>0.0</course>
  <speed>0.0</speed>
  <fix>3d</fix>
</trkpt>
<trkpt lat="40.0713749" lon="-105.229789">
  <ele>1583.05</ele>
  <time>2026-08-28T17:49:22Z</time>
  <course>246.62</course>
  <speed>0.01</speed>
  <fix>3d</fix>
</trkpt>
<trkpt lat="40.0713749" lon="-105.229789">
  <ele>1583.0</ele>
  <time>2026-08-28T17:49:22Z</time>
  <course>0.0</course>
  <speed>0.0</speed>
  <fix>3d</fix>
</trkpt>
<trkpt lat="40.0713749" lon="-105.229789">
  <ele>1583.04</ele>
  <time>2026-08-28T17:49:22Z</time>
  <course>246.62</course>
  <speed>0.01</speed>
  <fix>3d</fix>
</trkpt>
<trkpt lat="40.0713749" lon="-105.229789">
  <ele>1583.0</ele>
  <time>2026-08-28T17:49:22Z</time>
  <course>0.0</course>
  <speed>0.0</speed>
  <fix>3d</fix>
</trkpt>
<trkpt lat="40.0713749" lon="-105.229789">
  <ele>1583.03</ele>
  <time>2026-08-28T17:49:22Z</time>
  <course>246.61</course>
  <speed>0.01</speed>
  <fix>3d</fix>
</trkpt>
<trkpt lat="40.0713749" lon="-105.229789">
  <ele>1583.0</ele>
  <time>2026-08-28T17:49:22Z</time>
  <course>0.0</course>
  <speed>0.0</speed>
  <fix>3d</fix>
</trkpt>
<trkpt lat="40.0713749" lon="-105.229789">
  <ele>1583.03</ele>
  <time>2026-08-28T17:49:22Z</time>
  <course>246.61</course>
  <speed>0.01</speed>
  <fix>3d</fix>
</trkpt>
<trkpt lat="40.0713749" lon="-105.229789">
  <ele>1583.0</ele>
  <time>2026-08-28T17:49:22Z</time>
  <course>0.0</course>
  <speed>0.0</speed>
  <fix>3d</fix>
</trkpt>
<trkpt lat="40.0713749" lon="-105.229789">
  <ele>1583.03</ele>
  <time>2026-08-28T17:49:22Z</time>
  <course>246.61</course>
  <speed>0.01</speed>
  <fix>3d</fix>
</trkpt>
<trkpt lat="40.0713749" lon="-105.229789">
  <ele>1583.0</ele>
  <time>2026-08-28T17:49:22Z</time>
  <course>0.0</course>
  <speed>0.0</speed>
  <fix>3d</fix>
</trkpt>
<trkpt lat="40.0713749" lon="-105.229789">
  <ele>1583.04</ele>
  <time>2026-08-28T17:49:22Z</time>
  <course>246.61</course>
  <speed>0.01</speed>
  <fix>3d</fix>
</trkpt>
<trkpt lat="40.0713749" lon="-105.229789">
  <ele>1583.0</ele>
  <time>2026-08-28T17:49:22Z</time>
  <course>0.0</course>
  <speed>0.0</speed>
  <fix>3d</fix>
</trkpt>
<trkpt lat="40.0713749" lon="-105.229789">
  <ele>1583.04</ele>
  <time>2026-08-28T17:49:22Z</time>
  <course>246.6</course>
  <speed>0.01</speed>
  <fix>3d</fix>
</trkpt>
<trkpt lat="40.0713749" lon="-105.229789">
  <ele>1583.0</ele>
  <time>2026-08-28T17:49:22Z</time>
  <course>0.0</course>
  <speed>0.0</speed>
  <fix>3d</fix>
</trkpt>
<trkpt lat="40.0713749" lon="-105.229789">
  <ele>1583.04</ele>
  <time>2026-08-28T17:49:22Z</time>
  <course>246.6</course>
  <speed>0.01</speed>
  <fix>3d</fix>
</trkpt>
<trkpt lat="40.0713749" lon="-105.229789">
  <ele>1583.0</ele>
  <time>2026-08-28T17:49:22Z</time>
  <course>0.0</course>
  <speed>0.0</speed>
  <fix>3d</fix>
</trkpt>
<trkpt lat="40.0713749" lon="-105.229789">
  <ele>1583.04</ele>
  <time>2026-08-28T17:49:22Z</time>
  <course>246.6</course>
  <speed>0.01</speed>
  <fix>3d</fix>
</trkpt>
<trkpt lat="40.0713749" lon="-105.229789">
  <ele>1583.0</ele>
  <time>2026-08-28T17:49:22Z</time>
  <course>0.0</course>
  <speed>0.0</speed>
  <fix>3d</fix>
</trkpt>
<trkpt lat="40.0713749" lon="-105.229789">
  <ele>1583.04</ele>
  <time>2026-08-28T17:49:22Z</time>
  <course>246.6</course>
  <speed>0.01</speed>
  <fix>3d</fix>
</trkpt>
<trkpt lat="40.0713749" lon="-105.229789">
  <ele>1583.0</ele>
  <time>2026-08-28T17:49:22Z</time>
  <course>0.0</course>
  <speed>0.0</speed>
  <fix>3d</fix>
</trkpt>
<trkpt lat="40.0713749" lon="-105.229789">
  <ele>1583.04</ele>
  <time>2026-08-28T17:49:22Z</time>
  <course>246.59</course>
  <speed>0.01</speed>
  <fix>3d</fix>
</trkpt>
<trkpt lat="40.0713749" lon="-105.229789">
  <ele>1583.0</ele>
  <time>2026-08-28T17:49:22Z</time>
  <course>0.0</course>
  <speed>0.0</speed>
  <fix>3d</fix>
</trkpt>
<trkpt lat="40.0713749" lon="-105.229789">
  <ele>1583.04</ele>
  <time>2026-08-28T17:49:22Z</time>
  <course>246.59</course>
  <speed>0.01</speed>
  <fix>3d</fix>
</trkpt>
<trkpt lat="40.0713749" lon="-105.229789">
  <ele>1583.0</ele>
  <time>2026-08-28T17:49:22Z</time>
  <course>0.0</course>
  <speed>0.0</speed>
  <fix>3d</fix>
</trkpt>
<trkpt lat="40.0713749" lon="-105.229789">
  <ele>1583.04</ele>
  <time>2026-08-28T17:49:22Z</time>
  <course>246.59</course>
  <speed>0.01</speed>
  <fix>3d</fix>
</trkpt>
<trkpt lat="40.0713749" lon="-105.229789">
  <ele>1583.0</ele>
  <time>2026-08-28T17:49:22Z</time>
  <course>0.0</course>
  <speed>0.0</speed>
  <fix>3d</fix>
</trkpt>
<trkpt lat="40.0713749" lon="-105.229789">
  <ele>1583.04</ele>
  <time>2026-08-28T17:49:22Z</time>
  <course>246.59</course>
  <speed>0.01</speed>
  <fix>3d</fix>
</trkpt>
<trkpt lat="40.0713749" lon="-105.229789">
  <ele>1583.0</ele>
  <time>2026-08-28T17:49:22Z</time>
  <course>0.0</course>
  <speed>0.0</speed>
  <fix>3d</fix>
</trkpt>
<trkpt lat="40.0713749" lon="-105.229789">
  <ele>1583.04</ele>
  <time>2026-08-28T17:49:22Z</time>
  <course>246.58</course>
  <speed>0.01</speed>
  <fix>3d</fix>
</trkpt>
<trkpt lat="40.0713749" lon="-105.229789">
  <ele>1583.0</ele>
  <time>2026-08-28T17:49:22Z</time>
  <course>0.0</course>
  <speed>0.0</speed>
  <fix>3d</fix>
</trkpt>
<trkpt lat="40.0713748" lon="-105.229789">
  <ele>1583.04</ele>
  <time>2026-08-28T17:49:22Z</time>
  <course>246.58</course>
  <speed>0.01</speed>
  <fix>3d</fix>
</trkpt>
<trkpt lat="40.0713749" lon="-105.229789">
  <ele>1583.0</ele>
  <time>2026-08-28T17:49:22Z</time>
  <course>0.0</course>
  <speed>0.0</speed>
  <fix>3d</fix>
</trkpt>
<trkpt lat="40.0713749" lon="-105.229789">
  <ele>1583.04</ele>
  <time>2026-08-28T17:49:22Z</time>
  <course>246.58</course>
  <speed>0.01</speed>
  <fix>3d</fix>
</trkpt>
<trkpt lat="40.0713749" lon="-105.229789">
  <ele>1583.0</ele>
  <time>2026-08-28T17:49:22Z</time>
  <course>0.0</course>
  <speed>0.0</speed>
  <fix>3d</fix>
</trkpt>
<trkpt lat="40.0713748" lon="-105.229789">
  <ele>1583.04</ele>
  <time>2026-08-28T17:49:22Z</time>
  <course>246.58</course>
  <speed>0.01</speed>
  <fix>3d</fix>
</trkpt>
<trkpt lat="40.0713749" lon="-105.229789">
  <ele>1583.0</ele>
  <time>2026-08-28T17:49:22Z</time>
  <course>0.0</course>
  <speed>0.0</speed>
  <fix>3d</fix>
</trkpt>
<trkpt lat="40.0713748" lon="-105.229789">
  <ele>1583.03</ele>
  <time>2026-08-28T17:49:22Z</time>
  <course>246.57</course>
  <speed>0.01</speed>
  <fix>3d</fix>
</trkpt>
<trkpt lat="40.0713749" lon="-105.229789">
  <ele>1583.0</ele>
  <time>2026-08-28T17:49:22Z</time>
  <course>0.0</course>
  <speed>0.0</speed>
  <fix>3d</fix>
</trkpt>
<trkpt lat="40.0713748" lon="-105.229789">
  <ele>1583.03</ele>
  <time>2026-08-28T17:49:22Z</time>
  <course>246.57</course>
  <speed>0.01</speed>
  <fix>3d</fix>
</trkpt>
<trkpt lat="40.0713749" lon="-105.229789">
  <ele>1583.0</ele>
  <time>2026-08-28T17:49:22Z</time>
  <course>0.0</course>
  <speed>0.0</speed>
  <fix>3d</fix>
</trkpt>
<trkpt lat="40.0713748" lon="-105.229789">
  <ele>1583.03</ele>
  <time>2026-08-28T17:49:22Z</time>
  <course>246.57</course>
  <speed>0.01</speed>
  <fix>3d</fix>
</trkpt>
<trkpt lat="40.0713749" lon="-105.229789">
  <ele>1583.0</ele>
  <time>2026-08-28T17:49:22Z</time>
  <course>0.0</course>
  <speed>0.0</speed>
  <fix>3d</fix>
</trkpt>
<trkpt lat="40.0713748" lon="-105.229789">
  <ele>1583.02</ele>
  <time>2026-08-28T17:49:22Z</time>
  <course>246.57</course>
  <speed>0.01</speed>
  <fix>3d</fix>
</trkpt>
<trkpt lat="40.0713749" lon="-105.229789">
  <ele>1583.0</ele>
  <time>2026-08-28T17:49:22Z</time>
  <course>0.0</course>
  <speed>0.0</speed>
  <fix>3d</fix>
</trkpt>
<trkpt lat="40.0713748" lon="-105.229789">
  <ele>1583.02</ele>
  <time>2026-08-28T17:49:22Z</time>
  <course>246.56</course>
  <speed>0.01</speed>
  <fix>3d</fix>
</trkpt>
<trkpt lat="40.0713749" lon="-105.229789">
  <ele>1583.0</ele>
  <time>2026-08-28T17:49:22Z</time>
  <course>0.0</course>
  <speed>0.0</speed>
  <fix>3d</fix>
</trkpt>
<trkpt lat="40.0713748" lon="-105.229789">
  <ele>1583.02</ele>
  <time>2026-08-28T17:49:22Z</time>
  <course>246.56</course>
  <speed>0.01</speed>
  <fix>3d</fix>
</trkpt>
<trkpt lat="40.0713749" lon="-105.229789">
  <ele>1583.0</ele>
  <time>2026-08-28T17:49:22Z</time>
  <course>0.0</course>
  <speed>0.0</speed>
  <fix>3d</fix>
</trkpt>
<trkpt lat="40.0713748" lon="-105.229789">
  <ele>1583.01</ele>
  <time>2026-08-28T17:49:22Z</time>
  <course>246.56</course>
  <speed>0.01</speed>
  <fix>3d</fix>
</trkpt>
<trkpt lat="40.0713749" lon="-105.229789">
  <ele>1583.0</ele>
  <time>2026-08-28T17:49:22Z</time>
  <course>0.0</course>
  <speed>0.0</speed>
  <fix>3d</fix>
</trkpt>
<trkpt lat="40.0713748" lon="-105.229789">
  <ele>1583.01</ele>
  <time>2026-08-28T17:49:22Z</time>
  <course>246.56</course>
  <speed>0.01</speed>
  <fix>3d</fix>
</trkpt>
<trkpt lat="40.0713749" lon="-105.229789">
  <ele>1583.0</ele>
  <time>2026-08-28T17:49:22Z</time>
  <course>0.0</course>
  <speed>0.0</speed>
  <fix>3d</fix>
</trkpt>
<trkpt lat="40.0713748" lon="-105.229789">
  <ele>1583.0</ele>
  <time>2026-08-28T17:49:22Z</time>
  <course>246.55</course>
  <speed>0.01</speed>
  <fix>3d</fix>
</trkpt>
<trkpt lat="40.0713749" lon="-105.229789">
  <ele>1583.0</ele>
  <time>2026-08-28T17:49:22Z</time>
  <course>0.0</course>
  <speed>0.0</speed>
  <fix>3d</fix>
</trkpt>
<trkpt lat="40.0713748" lon="-105.229789">
  <ele>1583.0</ele>
  <time>2026-08-28T17:49:22Z</time>
  <course>246.55</course>
  <speed>0.01</speed>
  <fix>3d</fix>
</trkpt>
<trkpt lat="40.0713749" lon="-105.229789">
  <ele>1583.0</ele>
  <time>2026-08-28T17:49:22Z</time>
  <course>0.0</course>
  <speed>0.0</speed>
  <fix>3d</fix>
</trkpt>
<trkpt lat="40.0713748" lon="-105.229789">
  <ele>1582.99</ele>
  <time>2026-08-28T17:49:22Z</time>
  <course>246.55</course>
  <speed>0.01</speed>
  <fix>3d</fix>
</trkpt>
<trkpt lat="40.0713749" lon="-105.229789">
  <ele>1583.0</ele>
  <time>2026-08-28T17:49:22Z</time>
  <course>0.0</course>
  <speed>0.0</speed>
  <fix>3d</fix>
</trkpt>
<trkpt lat="40.0713748" lon="-105.229789">
  <ele>1582.98</ele>
  <time>2026-08-28T17:49:22Z</time>
  <course>246.55</course>
  <speed>0.01</speed>
  <fix>3d</fix>
</trkpt>
<trkpt lat="40.0713749" lon="-105.229789">
  <ele>1583.0</ele>
  <time>2026-08-28T17:49:22Z</time>
  <course>0.0</course>
  <speed>0.0</speed>
  <fix>3d</fix>
</trkpt>
<trkpt lat="40.0713748" lon="-105.229789">
  <ele>1582.97</ele>
  <time>2026-08-28T17:49:22Z</time>
  <course>246.54</course>
  <speed>0.01</speed>
  <fix>3d</fix>
</trkpt>
<trkpt lat="40.0713749" lon="-105.229789">
  <ele>1583.0</ele>
  <time>2026-08-28T17:49:22Z</time>
  <course>0.0</course>
  <speed>0.0</speed>
  <fix>3d</fix>
</trkpt>
<trkpt lat="40.0713748" lon="-105.229789">
  <ele>1582.96</ele>
  <time>2026-08-28T17:49:22Z</time>
  <course>246.54</course>
  <speed>0.01</speed>
  <fix>3d</fix>
</trkpt>
<trkpt lat="40.0713749" lon="-105.229789">
  <ele>1583.0</ele>
  <time>2026-08-28T17:49:22Z</time>
  <course>0.0</course>
  <speed>0.0</speed>
  <fix>3d</fix>
</trkpt>
<trkpt lat="40.0713748" lon="-105.229789">
  <ele>1582.96</ele>
  <time>2026-08-28T17:49:22Z</time>
  <course>246.54</course>
  <speed>0.01</speed>
  <fix>3d</fix>
</trkpt>
<trkpt lat="40.0713749" lon="-105.229789">
  <ele>1583.0</ele>
  <time>2026-08-28T17:49:22Z</time>
  <course>0.0</course>
  <speed>0.0</speed>
  <fix>3d</fix>
</trkpt>
<trkpt lat="40.0713748" lon="-105.229789">
  <ele>1582.95</ele>
  <time>2026-08-28T17:49:22Z</time>
  <course>246.54</course>
  <speed>0.01</speed>
  <fix>3d</fix>
</trkpt>
<trkpt lat="40.0713749" lon="-105.229789">
  <ele>1583.0</ele>
  <time>2026-08-28T17:49:22Z</time>
  <course>0.0</course>
  <speed>0.0</speed>
  <fix>3d</fix>
</trkpt>
<trkpt lat="40.0713748" lon="-105.229789">
  <ele>1582.95</ele>
  <time>2026-08-28T17:49:22Z</time>
  <course>246.53</course>
  <speed>0.01</speed>
  <fix>3d</fix>
</trkpt>
<trkpt lat="40.0713749" lon="-105.229789">
  <ele>1583.0</ele>
  <time>2026-08-28T17:49:22Z</time>
  <course>0.0</course>
  <speed>0.0</speed>
  <fix>3d</fix>
</trkpt>
<trkpt lat="40.0713748" lon="-105.229789">
  <ele>1582.94</ele>
  <time>2026-08-28T17:49:22Z</time>
  <course>246.53</course>
  <speed>0.01</speed>
  <fix>3d</fix>
</trkpt>
<trkpt lat="40.0713749" lon="-105.229789">
  <ele>1583.0</ele>
  <time>2026-08-28T17:49:22Z</time>
  <course>0.0</course>
  <speed>0.0</speed>
  <fix>3d</fix>
</trkpt>
<trkpt lat="40.0713748" lon="-105.229789">
  <ele>1582.94</ele>
  <time>2026-08-28T17:49:22Z</time>
  <course>246.53</course>
  <speed>0.01</speed>
  <fix>3d</fix>
</trkpt>
<trkpt lat="40.0713749" lon="-105.229789">
  <ele>1583.0</ele>
  <time>2026-08-28T17:49:22Z</time>
  <course>0.0</course>
  <speed>0.0</speed>
  <fix>3d</fix>
</trkpt>
<trkpt lat="40.0713748" lon="-105.229789">
  <ele>1582.93</ele>
  <time>2026-08-28T17:49:22Z</time>
  <course>246.53</course>
  <speed>0.01</speed>
  <fix>3d</fix>
</trkpt>
<trkpt lat="40.0713749" lon="-105.229789">
  <ele>1583.0</ele>
  <time>2026-08-28T17:49:22Z</time>
  <course>0.0</course>
  <speed>0.0</speed>
  <fix>3d</fix>
</trkpt>
<trkpt lat="40.0713748" lon="-105.229789">
  <ele>1582.93</ele>
  <time>2026-08-28T17:49:22Z</time>
  <course>246.52</course>
  <speed>0.01</speed>
  <fix>3d</fix>
</trkpt>
<trkpt lat="40.0713749" lon="-105.229789">
  <ele>1583.0</ele>
  <time>2026-08-28T17:49:22Z</time>
  <course>0.0</course>
  <speed>0.0</speed>
  <fix>3d</fix>
</trkpt>
<trkpt lat="40.0713748" lon="-105.229789">
  <ele>1582.93</ele>
  <time>2026-08-28T17:49:22Z</time>
  <course>246.52</course>
  <speed>0.01</speed>
  <fix>3d</fix>
</trkpt>
<trkpt lat="40.0713749" lon="-105.229789">
  <ele>1583.0</ele>
  <time>2026-08-28T17:49:22Z</time>
  <course>0.0</course>
  <speed>0.0</speed>
  <fix>3d</fix>
</trkpt>
<trkpt lat="40.0713748" lon="-105.229789">
  <ele>1582.92</ele>
  <time>2026-08-28T17:49:22Z</time>
  <course>246.52</course>
  <speed>0.01</speed>
  <fix>3d</fix>
</trkpt>
<trkpt lat="40.0713749" lon="-105.229789">
  <ele>1583.0</ele>
  <time>2026-08-28T17:49:22Z</time>
  <course>0.0</course>
  <speed>0.0</speed>
  <fix>3d</fix>
</trkpt>
<trkpt lat="40.0713748" lon="-105.229789">
  <ele>1582.92</ele>
  <time>2026-08-28T17:49:22Z</time>
  <course>246.52</course>
  <speed>0.01</speed>
  <fix>3d</fix>
</trkpt>
<trkpt lat="40.0713749" lon="-105.229789">
  <ele>1583.0</ele>
  <time>2026-08-28T17:49:22Z</time>
  <course>0.0</course>
  <speed>0.0</speed>
  <fix>3d</fix>
</trkpt>
<trkpt lat="40.0713748" lon="-105.229789">
  <ele>1582.92</ele>
  <time>2026-08-28T17:49:22Z</time>
  <course>246.51</course>
  <speed>0.01</speed>
  <fix>3d</fix>
</trkpt>
<trkpt lat="40.0713749" lon="-105.229789">
  <ele>1583.0</ele>
  <time>2026-08-28T17:49:22Z</time>
  <course>0.0</course>
  <speed>0.0</speed>
  <fix>3d</fix>
</trkpt>
<trkpt lat="40.0713748" lon="-105.229789">
  <ele>1582.92</ele>
  <time>2026-08-28T17:49:22Z</time>
  <course>246.51</course>
  <speed>0.01</speed>
  <fix>3d</fix>
</trkpt>
<trkpt lat="40.0713749" lon="-105.229789">
  <ele>1583.0</ele>
  <time>2026-08-28T17:49:22Z</time>
  <course>0.0</course>
  <speed>0.0</speed>
  <fix>3d</fix>
</trkpt>
<trkpt lat="40.0713748" lon="-105.229789">
  <ele>1582.92</ele>
  <time>2026-08-28T17:49:22Z</time>
  <course>246.51</course>
  <speed>0.01</speed>
  <fix>3d</fix>
</trkpt>
<trkpt lat="40.0713749" lon="-105.229789">
  <ele>1583.0</ele>
  <time>2026-08-28T17:49:22Z</time>
  <course>0.0</course>
  <speed>0.0</speed>
  <fix>3d</fix>
</trkpt>
<trkpt lat="40.0713748" lon="-105.229789">
  <ele>1582.91</ele>
  <time>2026-08-28T17:49:22Z</time>
  <course>246.51</course>
  <speed>0.01</speed>
  <fix>3d</fix>
</trkpt>
<trkpt lat="40.0713749" lon="-105.229789">
  <ele>1583.0</ele>
  <time>2026-08-28T17:49:22Z</time>
  <course>0.0</course>
  <speed>0.0</speed>
  <fix>3d</fix>
</trkpt>
<trkpt lat="40.0713748" lon="-105.229789">
  <ele>1582.91</ele>
  <time>2026-08-28T17:49:22Z</time>
  <course>246.5</course>
  <speed>0.01</speed>
  <fix>3d</fix>
</trkpt>
<trkpt lat="40.0713749" lon="-105.229789">
  <ele>1583.0</ele>
  <time>2026-08-28T17:49:22Z</time>
  <course>0.0</course>
  <speed>0.0</speed>
  <fix>3d</fix>
</trkpt>
<trkpt lat="40.0713748" lon="-105.229789">
  <ele>1582.9</ele>
  <time>2026-08-28T17:49:22Z</time>
  <course>246.5</course>
  <speed>0.01</speed>
  <fix>3d</fix>
</trkpt>
<trkpt lat="40.0713749" lon="-105.229789">
  <ele>1583.0</ele>
  <time>2026-08-28T17:49:22Z</time>
  <course>0.0</course>
  <speed>0.0</speed>
  <fix>3d</fix>
</trkpt>
<trkpt lat="40.0713748" lon="-105.229789">
  <ele>1582.9</ele>
  <time>2026-08-28T17:49:22Z</time>
  <course>246.5</course>
  <speed>0.01</speed>
  <fix>3d</fix>
</trkpt>
<trkpt lat="40.0713749" lon="-105.229789">
  <ele>1583.0</ele>
  <time>2026-08-28T17:49:22Z</time>
  <course>0.0</course>
  <speed>0.0</speed>
  <fix>3d</fix>
</trkpt>
<trkpt lat="40.0713748" lon="-105.229789">
  <ele>1582.89</ele>
  <time>2026-08-28T17:49:22Z</time>
  <course>246.49</course>
  <speed>0.01</speed>
  <fix>3d</fix>
</trkpt>
<trkpt lat="40.0713749" lon="-105.229789">
  <ele>1583.0</ele>
  <time>2026-08-28T17:49:22Z</time>
  <course>0.0</course>
  <speed>0.0</speed>
  <fix>3d</fix>
</trkpt>
<trkpt lat="40.0713748" lon="-105.229789">
  <ele>1582.88</ele>
  <time>2026-08-28T17:49:22Z</time>
  <course>246.49</course>
  <speed>0.01</speed>
  <fix>3d</fix>
</trkpt>
<trkpt lat="40.0713749" lon="-105.229789">
  <ele>1583.0</ele>
  <time>2026-08-28T17:49:22Z</time>
  <course>0.0</course>
  <speed>0.0</speed>
  <fix>3d</fix>
</trkpt>
<trkpt lat="40.0713748" lon="-105.229789">
  <ele>1582.87</ele>
  <time>2026-08-28T17:49:22Z</time>
  <course>246.49</course>
  <speed>0.01</speed>
  <fix>3d</fix>
</trkpt>
<trkpt lat="40.0713749" lon="-105.229789">
  <ele>1583.0</ele>
  <time>2026-08-28T17:49:22Z</time>
  <course>0.0</course>
  <speed>0.0</speed>
  <fix>3d</fix>
</trkpt>
<trkpt lat="40.0713748" lon="-105.229789">
  <ele>1582.87</ele>
  <time>2026-08-28T17:49:22Z</time>
  <course>246.49</course>
  <speed>0.01</speed>
  <fix>3d</fix>
</trkpt>
<trkpt lat="40.0713749" lon="-105.229789">
  <ele>1583.0</ele>
  <time>2026-08-28T17:49:22Z</time>
  <course>0.0</course>
  <speed>0.0</speed>
  <fix>3d</fix>
</trkpt>
<trkpt lat="40.0713748" lon="-105.229789">
  <ele>1582.86</ele>
  <time>2026-08-28T17:49:22Z</time>
  <course>246.48</course>
  <speed>0.01</speed>
  <fix>3d</fix>
</trkpt>
<trkpt lat="40.0713749" lon="-105.229789">
  <ele>1583.0</ele>
  <time>2026-08-28T17:49:22Z</time>
  <course>0.0</course>
  <speed>0.0</speed>
  <fix>3d</fix>
</trkpt>
<trkpt lat="40.0713748" lon="-105.229789">
  <ele>1582.86</ele>
  <time>2026-08-28T17:49:22Z</time>
  <course>246.48</course>
  <speed>0.01</speed>
  <fix>3d</fix>
</trkpt>
<trkpt lat="40.0713749" lon="-105.229789">
  <ele>1583.0</ele>
  <time>2026-08-28T17:49:22Z</time>
  <course>0.0</course>
  <speed>0.0</speed>
  <fix>3d</fix>
</trkpt>
<trkpt lat="40.0713748" lon="-105.229789">
  <ele>1582.86</ele>
  <time>2026-08-28T17:49:22Z</time>
  <course>246.48</course>
  <speed>0.01</speed>
  <fix>3d</fix>
</trkpt>
<trkpt lat="40.0713749" lon="-105.229789">
  <ele>1583.0</ele>
  <time>2026-08-28T17:49:22Z</time>
  <course>0.0</course>
  <speed>0.0</speed>
  <fix>3d</fix>
</trkpt>
<trkpt lat="40.0713748" lon="-105.229789">
  <ele>1582.86</ele>
  <time>2026-08-28T17:49:22Z</time>
  <course>246.48</course>
  <speed>0.01</speed>
  <fix>3d</fix>
</trkpt>
<trkpt lat="40.0713749" lon="-105.229789">
  <ele>1583.0</ele>
  <time>2026-08-28T17:49:22Z</time>
  <course>0.0</course>
  <speed>0.0</speed>
  <fix>3d</fix>
</trkpt>
<trkpt lat="40.0713748" lon="-105.229789">
  <ele>1582.86</ele>
  <time>2026-08-28T17:49:22Z</time>
  <course>246.47</course>
  <speed>0.01</speed>
  <fix>3d</fix>
</trkpt>
<trkpt lat="40.0713749" lon="-105.229789">
  <ele>1583.0</ele>
  <time>2026-08-28T17:49:22Z</time>
  <course>0.0</course>
  <speed>0.0</speed>
  <fix>3d</fix>
</trkpt>
<trkpt lat="40.0713748" lon="-105.229789">
  <ele>1582.86</ele>
  <time>2026-08-28T17:49:22Z</time>
  <course>246.47</course>
  <speed>0.01</speed>
  <fix>3d</fix>
</trkpt>
<trkpt lat="40.0713749" lon="-105.229789">
  <ele>1583.0</ele>
  <time>2026-08-28T17:49:22Z</time>
  <course>0.0</course>
  <speed>0.0</speed>
  <fix>3d</fix>
</trkpt>
<trkpt lat="40.0713748" lon="-105.229789">
  <ele>1582.86</ele>
  <time>2026-08-28T17:49:22Z</time>
  <course>246.47</course>
  <speed>0.01</speed>
  <fix>3d</fix>
</trkpt>
<trkpt lat="40.0713749" lon="-105.229789">
  <ele>1583.0</ele>
  <time>2026-08-28T17:49:22Z</time>
  <course>0.0</course>
  <speed>0.0</speed>
  <fix>3d</fix>
</trkpt>
<trkpt lat="40.0713748" lon="-105.229789">
  <ele>1582.87</ele>
  <time>2026-08-28T17:49:22Z</time>
  <course>246.46</course>
  <speed>0.01</speed>
  <fix>3d</fix>
</trkpt>
<trkpt lat="40.0713749" lon="-105.229789">
  <ele>1583.0</ele>
  <time>2026-08-28T17:49:22Z</time>
  <course>0.0</course>
  <speed>0.0</speed>
  <fix>3d</fix>
</trkpt>
<trkpt lat="40.0713748" lon="-105.229789">
  <ele>1582.87</ele>
  <time>2026-08-28T17:49:22Z</time>
  <course>246.46</course>
  <speed>0.01</speed>
  <fix>3d</fix>
</trkpt>
<trkpt lat="40.0713749" lon="-105.229789">
  <ele>1583.0</ele>
  <time>2026-08-28T17:49:22Z</time>
  <course>0.0</course>
  <speed>0.0</speed>
  <fix>3d</fix>
</trkpt>
<trkpt lat="40.0713748" lon="-105.229789">
  <ele>1582.87</ele>
  <time>2026-08-28T17:49:22Z</time>
  <course>246.46</course>
  <speed>0.01</speed>
  <fix>3d</fix>
</trkpt>
<trkpt lat="40.0713749" lon="-105.229789">
  <ele>1583.0</ele>
  <time>2026-08-28T17:49:22Z</time>
  <course>0.0</course>
  <speed>0.0</speed>
  <fix>3d</fix>
</trkpt>
<trkpt lat="40.0713748" lon="-105.229789">
  <ele>1582.87</ele>
  <time>2026-08-28T17:49:22Z</time>
  <course>246.46</course>
  <speed>0.01</speed>
  <fix>3d</fix>
</trkpt>
<trkpt lat="40.0713749" lon="-105.229789">
  <ele>1583.0</ele>
  <time>2026-08-28T17:49:22Z</time>
  <course>0.0</course>
  <speed>0.0</speed>
  <fix>3d</fix>
</trkpt>
<trkpt lat="40.0713748" lon="-105.229789">
  <ele>1582.88</ele>
  <time>2026-08-28T17:49:22Z</time>
  <course>246.45</course>
  <speed>0.01</speed>
  <fix>3d</fix>
</trkpt>
<trkpt lat="40.0713749" lon="-105.229789">
  <ele>1583.0</ele>
  <time>2026-08-28T17:49:22Z</time>
  <course>0.0</course>
  <speed>0.0</speed>
  <fix>3d</fix>
</trkpt>
<trkpt lat="40.0713748" lon="-105.229789">
  <ele>1582.88</ele>
  <time>2026-08-28T17:49:22Z</time>
  <course>246.45</course>
  <speed>0.01</speed>
  <fix>3d</fix>
</trkpt>
<trkpt lat="40.0713749" lon="-105.229789">
  <ele>1583.0</ele>
  <time>2026-08-28T17:49:22Z</time>
  <course>0.0</course>
  <speed>0.0</speed>
  <fix>3d</fix>
</trkpt>
<trkpt lat="40.0713748" lon="-105.229789">
  <ele>1582.89</ele>
  <time>2026-08-28T17:49:22Z</time>
  <course>246.45</course>
  <speed>0.01</speed>
  <fix>3d</fix>
</trkpt>
<trkpt lat="40.0713749" lon="-105.229789">
  <ele>1583.0</ele>
  <time>2026-08-28T17:49:22Z</time>
  <course>0.0</course>
  <speed>0.0</speed>
  <fix>3d</fix>
</trkpt>
<trkpt lat="40.0713748" lon="-105.229789">
  <ele>1582.89</ele>
  <time>2026-08-28T17:49:22Z</time>
  <course>246.45</course>
  <speed>0.01</speed>
  <fix>3d</fix>
</trkpt>
<trkpt lat="40.0713749" lon="-105.229789">
  <ele>1583.0</ele>
  <time>2026-08-28T17:49:22Z</time>
  <course>0.0</course>
  <speed>0.0</speed>
  <fix>3d</fix>
</trkpt>
<trkpt lat="40.0713748" lon="-105.229789">
  <ele>1582.89</ele>
  <time>2026-08-28T17:49:22Z</time>
  <course>246.44</course>
  <speed>0.01</speed>
  <fix>3d</fix>
</trkpt>
<trkpt lat="40.0713749" lon="-105.229789">
  <ele>1583.0</ele>
  <time>2026-08-28T17:49:22Z</time>
  <course>0.0</course>
  <speed>0.0</speed>
  <fix>3d</fix>
</trkpt>
<trkpt lat="40.0713748" lon="-105.229789">
  <ele>1582.89</ele>
  <time>2026-08-28T17:49:22Z</time>
  <course>246.44</course>
  <speed>0.01</speed>
  <fix>3d</fix>
</trkpt>
<trkpt lat="40.0713749" lon="-105.229789">
  <ele>1583.0</ele>
  <time>2026-08-28T17:49:22Z</time>
  <course>0.0</course>
  <speed>0.0</speed>
  <fix>3d</fix>
</trkpt>
<trkpt lat="40.0713748" lon="-105.229789">
  <ele>1582.89</ele>
  <time>2026-08-28T17:49:22Z</time>
  <course>246.44</course>
  <speed>0.01</speed>
  <fix>3d</fix>
</trkpt>
<trkpt lat="40.0713749" lon="-105.229789">
  <ele>1583.0</ele>
  <time>2026-08-28T17:49:22Z</time>
  <course>0.0</course>
  <speed>0.0</speed>
  <fix>3d</fix>
</trkpt>
<trkpt lat="40.0713748" lon="-105.229789">
  <ele>1582.89</ele>
  <time>2026-08-28T17:49:22Z</time>
  <course>246.44</course>
  <speed>0.01</speed>
  <fix>3d</fix>
</trkpt>
<trkpt lat="40.0713749" lon="-105.229789">
  <ele>1583.0</ele>
  <time>2026-08-28T17:49:22Z</time>
  <course>0.0</course>
  <speed>0.0</speed>
  <fix>3d</fix>
</trkpt>
<trkpt lat="40.0713748" lon="-105.229789">
  <ele>1582.89</ele>
  <time>2026-08-28T17:49:22Z</time>
  <course>246.43</course>
  <speed>0.01</speed>
  <fix>3d</fix>
</trkpt>
<trkpt lat="40.0713749" lon="-105.229789">
  <ele>1583.0</ele>
  <time>2026-08-28T17:49:22Z</time>
  <course>0.0</course>
  <speed>0.0</speed>
  <fix>3d</fix>
</trkpt>
<trkpt lat="40.0713748" lon="-105.229789">
  <ele>1582.89</ele>
  <time>2026-08-28T17:49:22Z</time>
  <course>246.43</course>
  <speed>0.01</speed>
  <fix>3d</fix>
</trkpt>
<trkpt lat="40.0713749" lon="-105.229789">
  <ele>1583.0</ele>
  <time>2026-08-28T17:49:22Z</time>
  <course>0.0</course>
  <speed>0.0</speed>
  <fix>3d</fix>
</trkpt>
<trkpt lat="40.0713748" lon="-105.229789">
  <ele>1582.9</ele>
  <time>2026-08-28T17:49:22Z</time>
  <course>246.43</course>
  <speed>0.01</speed>
  <fix>3d</fix>
</trkpt>
<trkpt lat="40.0713749" lon="-105.229789">
  <ele>1583.0</ele>
  <time>2026-08-28T17:49:22Z</time>
  <course>0.0</course>
  <speed>0.0</speed>
  <fix>3d</fix>
</trkpt>
<trkpt lat="40.0713748" lon="-105.229789">
  <ele>1582.9</ele>
  <time>2026-08-28T17:49:22Z</time>
  <course>246.43</course>
  <speed>0.01</speed>
  <fix>3d</fix>
</trkpt>
<trkpt lat="40.0713749" lon="-105.229789">
  <ele>1583.0</ele>
  <time>2026-08-28T17:49:22Z</time>
  <course>0.0</course>
  <speed>0.0</speed>
  <fix>3d</fix>
</trkpt>
<trkpt lat="40.0713748" lon="-105.229789">
  <ele>1582.91</ele>
  <time>2026-08-28T17:49:22Z</time>
  <course>246.42</course>
  <speed>0.01</speed>
  <fix>3d</fix>
</trkpt>
<trkpt lat="40.0713749" lon="-105.229789">
  <ele>1583.0</ele>
  <time>2026-08-28T17:49:22Z</time>
  <course>0.0</course>
  <speed>0.0</speed>
  <fix>3d</fix>
</trkpt>
<trkpt lat="40.0713748" lon="-105.229789">
  <ele>1582.91</ele>
  <time>2026-08-28T17:49:22Z</time>
  <course>246.42</course>
  <speed>0.01</speed>
  <fix>3d</fix>
</trkpt>
<trkpt lat="40.0713749" lon="-105.229789">
  <ele>1583.0</ele>
  <time>2026-08-28T17:49:22Z</time>
  <course>0.0</course>
  <speed>0.0</speed>
  <fix>3d</fix>
</trkpt>
<trkpt lat="40.0713748" lon="-105.229789">
  <ele>1582.92</ele>
  <time>2026-08-28T17:49:22Z</time>
  <course>246.42</course>
  <speed>0.01</speed>
  <fix>3d</fix>
</trkpt>
<trkpt lat="40.0713749" lon="-105.229789">
  <ele>1583.0</ele>
  <time>2026-08-28T17:49:22Z</time>
  <course>0.0</course>
  <speed>0.0</speed>
  <fix>3d</fix>
</trkpt>
<trkpt lat="40.0713748" lon="-105.229789">
  <ele>1582.93</ele>
  <time>2026-08-28T17:49:22Z</time>
  <course>246.41</course>
  <speed>0.01</speed>
  <fix>3d</fix>
</trkpt>
<trkpt lat="40.0713749" lon="-105.229789">
  <ele>1583.0</ele>
  <time>2026-08-28T17:49:22Z</time>
  <course>0.0</course>
  <speed>0.0</speed>
  <fix>3d</fix>
</trkpt>
<trkpt lat="40.0713748" lon="-105.229789">
  <ele>1582.93</ele>
  <time>2026-08-28T17:49:22Z</time>
  <course>246.41</course>
  <speed>0.01</speed>
  <fix>3d</fix>
</trkpt>
<trkpt lat="40.0713749" lon="-105.229789">
  <ele>1583.0</ele>
  <time>2026-08-28T17:49:22Z</time>
  <course>0.0</course>
  <speed>0.0</speed>
  <fix>3d</fix>
</trkpt>
<trkpt lat="40.0713748" lon="-105.229789">
  <ele>1582.94</ele>
  <time>2026-08-28T17:49:22Z</time>
  <course>246.41</course>
  <speed>0.01</speed>
  <fix>3d</fix>
</trkpt>
<trkpt lat="40.0713749" lon="-105.229789">
  <ele>1583.0</ele>
  <time>2026-08-28T17:49:22Z</time>
  <course>0.0</course>
  <speed>0.0</speed>
  <fix>3d</fix>
</trkpt>
<trkpt lat="40.0713748" lon="-105.229789">
  <ele>1582.95</ele>
  <time>2026-08-28T17:49:22Z</time>
  <course>246.41</course>
  <speed>0.01</speed>
  <fix>3d</fix>
</trkpt>
<trkpt lat="40.0713749" lon="-105.229789">
  <ele>1583.0</ele>
  <time>2026-08-28T17:49:22Z</time>
  <course>0.0</course>
  <speed>0.0</speed>
  <fix>3d</fix>
</trkpt>
<trkpt lat="40.0713748" lon="-105.229789">
  <ele>1582.95</ele>
  <time>2026-08-28T17:49:22Z</time>
  <course>246.4</course>
  <speed>0.01</speed>
  <fix>3d</fix>
</trkpt>
<trkpt lat="40.0713749" lon="-105.229789">
  <ele>1583.0</ele>
  <time>2026-08-28T17:49:22Z</time>
  <course>0.0</course>
  <speed>0.0</speed>
  <fix>3d</fix>
</trkpt>
<trkpt lat="40.0713748" lon="-105.229789">
  <ele>1582.96</ele>
  <time>2026-08-28T17:49:22Z</time>
  <course>246.4</course>
  <speed>0.01</speed>
  <fix>3d</fix>
</trkpt>
<trkpt lat="40.0713749" lon="-105.229789">
  <ele>1583.0</ele>
  <time>2026-08-28T17:49:22Z</time>
  <course>0.0</course>
  <speed>0.0</speed>
  <fix>3d</fix>
</trkpt>
<trkpt lat="40.0713748" lon="-105.229789">
  <ele>1582.96</ele>
  <time>2026-08-28T17:49:22Z</time>
  <course>246.4</course>
  <speed>0.01</speed>
  <fix>3d</fix>
</trkpt>
<trkpt lat="40.0713749" lon="-105.229789">
  <ele>1583.0</ele>
  <time>2026-08-28T17:49:22Z</time>
  <course>0.0</course>
  <speed>0.0</speed>
  <fix>3d</fix>
</trkpt>
<trkpt lat="40.0713748" lon="-105.229789">
  <ele>1582.97</ele>
  <time>2026-08-28T17:49:22Z</time>
  <course>246.4</course>
  <speed>0.01</speed>
  <fix>3d</fix>
</trkpt>
<trkpt lat="40.0713749" lon="-105.229789">
  <ele>1583.0</ele>
  <time>2026-08-28T17:49:22Z</time>
  <course>0.0</course>
  <speed>0.0</speed>
  <fix>3d</fix>
</trkpt>
<trkpt lat="40.0713748" lon="-105.229789">
  <ele>1582.97</ele>
  <time>2026-08-28T17:49:22Z</time>
  <course>246.39</course>
  <speed>0.01</speed>
  <fix>3d</fix>
</trkpt>
<trkpt lat="40.0713749" lon="-105.229789">
  <ele>1583.0</ele>
  <time>2026-08-28T17:49:22Z</time>
  <course>0.0</course>
  <speed>0.0</speed>
  <fix>3d</fix>
</trkpt>
<trkpt lat="40.0713748" lon="-105.229789">
  <ele>1582.98</ele>
  <time>2026-08-28T17:49:22Z</time>
  <course>246.39</course>
  <speed>0.01</speed>
  <fix>3d</fix>
</trkpt>
<trkpt lat="40.0713749" lon="-105.229789">
  <ele>1583.0</ele>
  <time>2026-08-28T17:49:22Z</time>
  <course>0.0</course>
  <speed>0.0</speed>
  <fix>3d</fix>
</trkpt>
<trkpt lat="40.0713748" lon="-105.229789">
  <ele>1582.98</ele>
  <time>2026-08-28T17:49:22Z</time>
  <course>246.39</course>
  <speed>0.01</speed>
  <fix>3d</fix>
</trkpt>
<trkpt lat="40.0713749" lon="-105.229789">
  <ele>1583.0</ele>
  <time>2026-08-28T17:49:22Z</time>
  <course>0.0</course>
  <speed>0.0</speed>
  <fix>3d</fix>
</trkpt>
<trkpt lat="40.0713748" lon="-105.229789">
  <ele>1582.98</ele>
  <time>2026-08-28T17:49:22Z</time>
  <course>246.38</course>
  <speed>0.01</speed>
  <fix>3d</fix>
</trkpt>
<trkpt lat="40.0713749" lon="-105.229789">
  <ele>1583.0</ele>
  <time>2026-08-28T17:49:22Z</time>
  <course>0.0</course>
  <speed>0.0</speed>
  <fix>3d</fix>
</trkpt>
<trkpt lat="40.0713748" lon="-105.229789">
  <ele>1582.98</ele>
  <time>2026-08-28T17:49:22Z</time>
  <course>246.38</course>
  <speed>0.01</speed>
  <fix>3d</fix>
</trkpt>
<trkpt lat="40.0713749" lon="-105.229789">
  <ele>1583.0</ele>
  <time>2026-08-28T17:49:22Z</time>
  <course>0.0</course>
  <speed>0.0</speed>
  <fix>3d</fix>
</trkpt>
<trkpt lat="40.0713748" lon="-105.229789">
  <ele>1582.99</ele>
  <time>2026-08-28T17:49:22Z</time>
  <course>246.38</course>
  <speed>0.01</speed>
  <fix>3d</fix>
</trkpt>
<trkpt lat="40.0713749" lon="-105.229789">
  <ele>1583.0</ele>
  <time>2026-08-28T17:49:22Z</time>
  <course>0.0</course>
  <speed>0.0</speed>
  <fix>3d</fix>
</trkpt>
<trkpt lat="40.0713748" lon="-105.229789">
  <ele>1582.99</ele>
  <time>2026-08-28T17:49:22Z</time>
  <course>246.38</course>
  <speed>0.01</speed>
  <fix>3d</fix>
</trkpt>
<trkpt lat="40.0713749" lon="-105.229789">
  <ele>1583.0</ele>
  <time>2026-08-28T17:49:22Z</time>
  <course>0.0</course>
  <speed>0.0</speed>
  <fix>3d</fix>
</trkpt>
<trkpt lat="40.0713748" lon="-105.229789">
  <ele>1582.99</ele>
  <time>2026-08-28T17:49:22Z</time>
  <course>246.37</course>
  <speed>0.01</speed>
  <fix>3d</fix>
</trkpt>
<trkpt lat="40.0713749" lon="-105.229789">
  <ele>1583.0</ele>
  <time>2026-08-28T17:49:22Z</time>
  <course>0.0</course>
  <speed>0.0</speed>
  <fix>3d</fix>
</trkpt>
<trkpt lat="40.0713748" lon="-105.229789">
  <ele>1582.99</ele>
  <time>2026-08-28T17:49:22Z</time>
  <course>246.37</course>
  <speed>0.01</speed>
  <fix>3d</fix>
</trkpt>
<trkpt lat="40.0713749" lon="-105.229789">
  <ele>1583.0</ele>
  <time>2026-08-28T17:49:22Z</time>
  <course>0.0</course>
  <speed>0.0</speed>
  <fix>3d</fix>
</trkpt>
<trkpt lat="40.0713748" lon="-105.229789">
  <ele>1582.99</ele>
  <time>2026-08-28T17:49:22Z</time>
  <course>246.37</course>
  <speed>0.01</speed>
  <fix>3d</fix>
</trkpt>
<trkpt lat="40.0713749" lon="-105.229789">
  <ele>1583.0</ele>
  <time>2026-08-28T17:49:22Z</time>
  <course>0.0</course>
  <speed>0.0</speed>
  <fix>3d</fix>
</trkpt>
<trkpt lat="40.0713748" lon="-105.229789">
  <ele>1582.99</ele>
  <time>2026-08-28T17:49:22Z</time>
  <course>246.37</course>
  <speed>0.01</speed>
  <fix>3d</fix>
</trkpt>
<trkpt lat="40.0713749" lon="-105.229789">
  <ele>1583.0</ele>
  <time>2026-08-28T17:49:22Z</time>
  <course>0.0</course>
  <speed>0.0</speed>
  <fix>3d</fix>
</trkpt>
<trkpt lat="40.0713748" lon="-105.229789">
  <ele>1582.99</ele>
  <time>2026-08-28T17:49:22Z</time>
  <course>246.36</course>
  <speed>0.01</speed>
  <fix>3d</fix>
</trkpt>
<trkpt lat="40.0713749" lon="-105.229789">
  <ele>1583.0</ele>
  <time>2026-08-28T17:49:22Z</time>
  <course>0.0</course>
  <speed>0.0</speed>
  <fix>3d</fix>
</trkpt>
<trkpt lat="40.0713748" lon="-105.229789">
  <ele>1582.99</ele>
  <time>2026-08-28T17:49:22Z</time>
  <course>246.36</course>
  <speed>0.01</speed>
  <fix>3d</fix>
</trkpt>
<trkpt lat="40.0713749" lon="-105.229789">
  <ele>1583.0</ele>
  <time>2026-08-28T17:49:22Z</time>
  <course>0.0</course>
  <speed>0.0</speed>
  <fix>3d</fix>
</trkpt>
<trkpt lat="40.0713748" lon="-105.229789">
  <ele>1582.99</ele>
  <time>2026-08-28T17:49:22Z</time>
  <course>246.36</course>
  <speed>0.01</speed>
  <fix>3d</fix>
</trkpt>
<trkpt lat="40.0713749" lon="-105.229789">
  <ele>1583.0</ele>
  <time>2026-08-28T17:49:22Z</time>
  <course>0.0</course>
  <speed>0.0</speed>
  <fix>3d</fix>
</trkpt>
<trkpt lat="40.0713748" lon="-105.229789">
  <ele>1582.99</ele>
  <time>2026-08-28T17:49:22Z</time>
  <course>246.35</course>
  <speed>0.01</speed>
  <fix>3d</fix>
</trkpt>
<trkpt lat="40.0713749" lon="-105.229789">
  <ele>1583.0</ele>
  <time>2026-08-28T17:49:22Z</time>
  <course>0.0</course>
  <speed>0.0</speed>
  <fix>3d</fix>
</trkpt>
<trkpt lat="40.0713748" lon="-105.229789">
  <ele>1582.99</ele>
  <time>2026-08-28T17:49:22Z</time>
  <course>246.35</course>
  <speed>0.01</speed>
  <fix>3d</fix>
</trkpt>
<trkpt lat="40.0713749" lon="-105.229789">
  <ele>1583.0</ele>
  <time>2026-08-28T17:49:22Z</time>
  <course>0.0</course>
  <speed>0.0</speed>
  <fix>3d</fix>
</trkpt>
<trkpt lat="40.0713748" lon="-105.229789">
  <ele>1582.99</ele>
  <time>2026-08-28T17:49:22Z</time>
  <course>246.35</course>
  <speed>0.01</speed>
  <fix>3d</fix>
</trkpt>
<trkpt lat="40.0713749" lon="-105.229789">
  <ele>1583.0</ele>
  <time>2026-08-28T17:49:22Z</time>
  <course>0.0</course>
  <speed>0.0</speed>
  <fix>3d</fix>
</trkpt>
<trkpt lat="40.0713748" lon="-105.229789">
  <ele>1583.0</ele>
  <time>2026-08-28T17:49:22Z</time>
  <course>246.35</course>
  <speed>0.01</speed>
  <fix>3d</fix>
</trkpt>
<trkpt lat="40.0713749" lon="-105.229789">
  <ele>1583.0</ele>
  <time>2026-08-28T17:49:22Z</time>
  <course>0.0</course>
  <speed>0.0</speed>
  <fix>3d</fix>
</trkpt>
<trkpt lat="40.0713748" lon="-105.229789">
  <ele>1583.0</ele>
  <time>2026-08-28T17:49:22Z</time>
  <course>246.34</course>
  <speed>0.01</speed>
  <fix>3d</fix>
</trkpt>
<trkpt lat="40.0713749" lon="-105.229789">
  <ele>1583.0</ele>
  <time>2026-08-28T17:49:22Z</time>
  <course>0.0</course>
  <speed>0.0</speed>
  <fix>3d</fix>
</trkpt>
<trkpt lat="40.0713748" lon="-105.229789">
  <ele>1583.01</ele>
  <time>2026-08-28T17:49:22Z</time>
  <course>246.34</course>
  <speed>0.01</speed>
  <fix>3d</fix>
</trkpt>
<trkpt lat="40.0713749" lon="-105.229789">
  <ele>1583.0</ele>
  <time>2026-08-28T17:49:22Z</time>
  <course>0.0</course>
  <speed>0.0</speed>
  <fix>3d</fix>
</trkpt>
<trkpt lat="40.0713748" lon="-105.229789">
  <ele>1583.01</ele>
  <time>2026-08-28T17:49:22Z</time>
  <course>246.34</course>
  <speed>0.01</speed>
  <fix>3d</fix>
</trkpt>
<trkpt lat="40.0713749" lon="-105.229789">
  <ele>1583.0</ele>
  <time>2026-08-28T17:49:22Z</time>
  <course>0.0</course>
  <speed>0.0</speed>
  <fix>3d</fix>
</trkpt>
<trkpt lat="40.0713748" lon="-105.229789">
  <ele>1583.01</ele>
  <time>2026-08-28T17:49:22Z</time>
  <course>246.34</course>
  <speed>0.01</speed>
  <fix>3d</fix>
</trkpt>
<trkpt lat="40.0713749" lon="-105.229789">
  <ele>1583.0</ele>
  <time>2026-08-28T17:49:22Z</time>
  <course>0.0</course>
  <speed>0.0</speed>
  <fix>3d</fix>
</trkpt>
<trkpt lat="40.0713748" lon="-105.229789">
  <ele>1583.02</ele>
  <time>2026-08-28T17:49:22Z</time>
  <course>246.33</course>
  <speed>0.01</speed>
  <fix>3d</fix>
</trkpt>
<trkpt lat="40.0713749" lon="-105.229789">
  <ele>1583.0</ele>
  <time>2026-08-28T17:49:22Z</time>
  <course>0.0</course>
  <speed>0.0</speed>
  <fix>3d</fix>
</trkpt>
<trkpt lat="40.0713748" lon="-105.229789">
  <ele>1583.02</ele>
  <time>2026-08-28T17:49:23Z</time>
  <course>246.33</course>
  <speed>0.01</speed>
  <fix>3d</fix>
</trkpt>
<trkpt lat="40.0713749" lon="-105.229789">
  <ele>1583.0</ele>
  <time>2026-08-28T17:49:23Z</time>
  <course>0.0</course>
  <speed>0.0</speed>
  <fix>3d</fix>
</trkpt>
<trkpt lat="40.0713748" lon="-105.229789">
  <ele>1583.03</ele>
  <time>2026-08-28T17:49:23Z</time>
  <course>246.33</course>
  <speed>0.01</speed>
  <fix>3d</fix>
</trkpt>
<trkpt lat="40.0713749" lon="-105.229789">
  <ele>1583.0</ele>
  <time>2026-08-28T17:49:23Z</time>
  <course>0.0</course>
  <speed>0.0</speed>
  <fix>3d</fix>
</trkpt>
<trkpt lat="40.0713748" lon="-105.229789">
  <ele>1583.03</ele>
  <time>2026-08-28T17:49:23Z</time>
  <course>246.33</course>
  <speed>0.01</speed>
  <fix>3d</fix>
</trkpt>
<trkpt lat="40.0713749" lon="-105.229789">
  <ele>1583.0</ele>
  <time>2026-08-28T17:49:23Z</time>
  <course>0.0</course>
  <speed>0.0</speed>
  <fix>3d</fix>
</trkpt>
<trkpt lat="40.0713748" lon="-105.229789">
  <ele>1583.03</ele>
  <time>2026-08-28T17:49:23Z</time>
  <course>246.32</course>
  <speed>0.01</speed>
  <fix>3d</fix>
</trkpt>
<trkpt lat="40.0713749" lon="-105.229789">
  <ele>1583.0</ele>
  <time>2026-08-28T17:49:23Z</time>
  <course>0.0</course>
  <speed>0.0</speed>
  <fix>3d</fix>
</trkpt>
<trkpt lat="40.0713748" lon="-105.229789">
  <ele>1583.03</ele>
  <time>2026-08-28T17:49:23Z</time>
  <course>246.32</course>
  <speed>0.01</speed>
  <fix>3d</fix>
</trkpt>
<trkpt lat="40.0713749" lon="-105.229789">
  <ele>1583.0</ele>
  <time>2026-08-28T17:49:23Z</time>
  <course>0.0</course>
  <speed>0.0</speed>
  <fix>3d</fix>
</trkpt>
<trkpt lat="40.0713748" lon="-105.229789">
  <ele>1583.02</ele>
  <time>2026-08-28T17:49:23Z</time>
  <course>246.32</course>
  <speed>0.01</speed>
  <fix>3d</fix>
</trkpt>
<trkpt lat="40.0713749" lon="-105.229789">
  <ele>1583.0</ele>
  <time>2026-08-28T17:49:23Z</time>
  <course>0.0</course>
  <speed>0.0</speed>
  <fix>3d</fix>
</trkpt>
<trkpt lat="40.0713748" lon="-105.229789">
  <ele>1583.02</ele>
  <time>2026-08-28T17:49:23Z</time>
  <course>246.31</course>
  <speed>0.01</speed>
  <fix>3d</fix>
</trkpt>
<trkpt lat="40.0713749" lon="-105.229789">
  <ele>1583.0</ele>
  <time>2026-08-28T17:49:23Z</time>
  <course>0.0</course>
  <speed>0.0</speed>
  <fix>3d</fix>
</trkpt>
<trkpt lat="40.0713748" lon="-105.229789">
  <ele>1583.02</ele>
  <time>2026-08-28T17:49:23Z</time>
  <course>246.31</course>
  <speed>0.01</speed>
  <fix>3d</fix>
</trkpt>
<trkpt lat="40.0713749" lon="-105.229789">
  <ele>1583.0</ele>
  <time>2026-08-28T17:49:23Z</time>
  <course>0.0</course>
  <speed>0.0</speed>
  <fix>3d</fix>
</trkpt>
<trkpt lat="40.0713748" lon="-105.229789">
  <ele>1583.01</ele>
  <time>2026-08-28T17:49:23Z</time>
  <course>246.31</course>
  <speed>0.01</speed>
  <fix>3d</fix>
</trkpt>
<trkpt lat="40.0713749" lon="-105.229789">
  <ele>1583.0</ele>
  <time>2026-08-28T17:49:23Z</time>
  <course>0.0</course>
  <speed>0.0</speed>
  <fix>3d</fix>
</trkpt>
<trkpt lat="40.0713748" lon="-105.229789">
  <ele>1583.01</ele>
  <time>2026-08-28T17:49:23Z</time>
  <course>246.31</course>
  <speed>0.01</speed>
  <fix>3d</fix>
</trkpt>
<trkpt lat="40.0713749" lon="-105.229789">
  <ele>1583.0</ele>
  <time>2026-08-28T17:49:23Z</time>
  <course>0.0</course>
  <speed>0.0</speed>
  <fix>3d</fix>
</trkpt>
<trkpt lat="40.0713748" lon="-105.229789">
  <ele>1583.0</ele>
  <time>2026-08-28T17:49:23Z</time>
  <course>246.3</course>
  <speed>0.01</speed>
  <fix>3d</fix>
</trkpt>
<trkpt lat="40.0713749" lon="-105.229789">
  <ele>1583.0</ele>
  <time>2026-08-28T17:49:23Z</time>
  <course>0.0</course>
  <speed>0.0</speed>
  <fix>3d</fix>
</trkpt>
<trkpt lat="40.0713748" lon="-105.229789">
  <ele>1582.99</ele>
  <time>2026-08-28T17:49:23Z</time>
  <course>246.3</course>
  <speed>0.01</speed>
  <fix>3d</fix>
</trkpt>
<trkpt lat="40.0713749" lon="-105.229789">
  <ele>1583.0</ele>
  <time>2026-08-28T17:49:23Z</time>
  <course>0.0</course>
  <speed>0.0</speed>
  <fix>3d</fix>
</trkpt>
<trkpt lat="40.0713748" lon="-105.229789">
  <ele>1582.99</ele>
  <time>2026-08-28T17:49:23Z</time>
  <course>246.3</course>
  <speed>0.01</speed>
  <fix>3d</fix>
</trkpt>
<trkpt lat="40.0713749" lon="-105.229789">
  <ele>1583.0</ele>
  <time>2026-08-28T17:49:23Z</time>
  <course>0.0</course>
  <speed>0.0</speed>
  <fix>3d</fix>
</trkpt>
<trkpt lat="40.0713748" lon="-105.229789">
  <ele>1582.99</ele>
  <time>2026-08-28T17:49:23Z</time>
  <course>246.3</course>
  <speed>0.02</speed>
  <fix>3d</fix>
</trkpt>
<trkpt lat="40.0713749" lon="-105.229789">
  <ele>1583.0</ele>
  <time>2026-08-28T17:49:23Z</time>
  <course>0.0</course>
  <speed>0.0</speed>
  <fix>3d</fix>
</trkpt>
<trkpt lat="40.0713748" lon="-105.229789">
  <ele>1582.99</ele>
  <time>2026-08-28T17:49:23Z</time>
  <course>246.29</course>
  <speed>0.01</speed>
  <fix>3d</fix>
</trkpt>
<trkpt lat="40.0713749" lon="-105.229789">
  <ele>1583.0</ele>
  <time>2026-08-28T17:49:23Z</time>
  <course>0.0</course>
  <speed>0.0</speed>
  <fix>3d</fix>
</trkpt>
<trkpt lat="40.0713748" lon="-105.229789">
  <ele>1582.99</ele>
  <time>2026-08-28T17:49:23Z</time>
  <course>246.29</course>
  <speed>0.01</speed>
  <fix>3d</fix>
</trkpt>
<trkpt lat="40.0713749" lon="-105.229789">
  <ele>1583.0</ele>
  <time>2026-08-28T17:49:23Z</time>
  <course>0.0</course>
  <speed>0.0</speed>
  <fix>3d</fix>
</trkpt>
<trkpt lat="40.0713748" lon="-105.229789">
  <ele>1582.99</ele>
  <time>2026-08-28T17:49:23Z</time>
  <course>246.29</course>
  <speed>0.01</speed>
  <fix>3d</fix>
</trkpt>
<trkpt lat="40.0713749" lon="-105.229789">
  <ele>1583.0</ele>
  <time>2026-08-28T17:49:23Z</time>
  <course>0.0</course>
  <speed>0.0</speed>
  <fix>3d</fix>
</trkpt>
<trkpt lat="40.0713748" lon="-105.229789">
  <ele>1583.0</ele>
  <time>2026-08-28T17:49:23Z</time>
  <course>246.29</course>
  <speed>0.01</speed>
  <fix>3d</fix>
</trkpt>
<trkpt lat="40.0713749" lon="-105.229789">
  <ele>1583.0</ele>
  <time>2026-08-28T17:49:23Z</time>
  <course>0.0</course>
  <speed>0.0</speed>
  <fix>3d</fix>
</trkpt>
<trkpt lat="40.0713748" lon="-105.229789">
  <ele>1583.0</ele>
  <time>2026-08-28T17:49:23Z</time>
  <course>246.28</course>
  <speed>0.01</speed>
  <fix>3d</fix>
</trkpt>
<trkpt lat="40.0713749" lon="-105.229789">
  <ele>1583.0</ele>
  <time>2026-08-28T17:49:23Z</time>
  <course>0.0</course>
  <speed>0.0</speed>
  <fix>3d</fix>
</trkpt>
<trkpt lat="40.0713748" lon="-105.229789">
  <ele>1583.0</ele>
  <time>2026-08-28T17:49:23Z</time>
  <course>246.28</course>
  <speed>0.02</speed>
  <fix>3d</fix>
</trkpt>
<trkpt lat="40.0713749" lon="-105.229789">
  <ele>1583.0</ele>
  <time>2026-08-28T17:49:23Z</time>
  <course>0.0</course>
  <speed>0.0</speed>
  <fix>3d</fix>
</trkpt>
<trkpt lat="40.0713748" lon="-105.229789">
  <ele>1583.01</ele>
  <time>2026-08-28T17:49:23Z</time>
  <course>246.28</course>
  <speed>0.01</speed>
  <fix>3d</fix>
</trkpt>
<trkpt lat="40.0713749" lon="-105.229789">
  <ele>1583.0</ele>
  <time>2026-08-28T17:49:23Z</time>
  <course>0.0</course>
  <speed>0.0</speed>
  <fix>3d</fix>
</trkpt>
<trkpt lat="40.0713748" lon="-105.229789">
  <ele>1583.01</ele>
  <time>2026-08-28T17:49:23Z</time>
  <course>246.27</course>
  <speed>0.02</speed>
  <fix>3d</fix>
</trkpt>
<trkpt lat="40.0713749" lon="-105.229789">
  <ele>1583.0</ele>
  <time>2026-08-28T17:49:23Z</time>
  <course>0.0</course>
  <speed>0.0</speed>
  <fix>3d</fix>
</trkpt>
<trkpt lat="40.0713748" lon="-105.229789">
  <ele>1583.02</ele>
  <time>2026-08-28T17:49:23Z</time>
  <course>246.27</course>
  <speed>0.02</speed>
  <fix>3d</fix>
</trkpt>
<trkpt lat="40.0713749" lon="-105.229789">
  <ele>1583.0</ele>
  <time>2026-08-28T17:49:23Z</time>
  <course>0.0</course>
  <speed>0.0</speed>
  <fix>3d</fix>
</trkpt>
<trkpt lat="40.0713748" lon="-105.229789">
  <ele>1583.02</ele>
  <time>2026-08-28T17:49:23Z</time>
  <course>246.27</course>
  <speed>0.02</speed>
  <fix>3d</fix>
</trkpt>
<trkpt lat="40.0713749" lon="-105.229789">
  <ele>1583.0</ele>
  <time>2026-08-28T17:49:23Z</time>
  <course>0.0</course>
  <speed>0.0</speed>
  <fix>3d</fix>
</trkpt>
<trkpt lat="40.0713748" lon="-105.229789">
  <ele>1583.02</ele>
  <time>2026-08-28T17:49:23Z</time>
  <course>246.27</course>
  <speed>0.02</speed>
  <fix>3d</fix>
</trkpt>
<trkpt lat="40.0713749" lon="-105.229789">
  <ele>1583.0</ele>
  <time>2026-08-28T17:49:23Z</time>
  <course>0.0</course>
  <speed>0.0</speed>
  <fix>3d</fix>
</trkpt>
<trkpt lat="40.0713748" lon="-105.229789">
  <ele>1583.02</ele>
  <time>2026-08-28T17:49:23Z</time>
  <course>246.26</course>
  <speed>0.02</speed>
  <fix>3d</fix>
</trkpt>
<trkpt lat="40.0713749" lon="-105.229789">
  <ele>1583.0</ele>
  <time>2026-08-28T17:49:23Z</time>
  <course>0.0</course>
  <speed>0.0</speed>
  <fix>3d</fix>
</trkpt>
<trkpt lat="40.0713748" lon="-105.229789">
  <ele>1583.01</ele>
  <time>2026-08-28T17:49:23Z</time>
  <course>246.26</course>
  <speed>0.02</speed>
  <fix>3d</fix>
</trkpt>
<trkpt lat="40.0713749" lon="-105.229789">
  <ele>1583.0</ele>
  <time>2026-08-28T17:49:23Z</time>
  <course>0.0</course>
  <speed>0.0</speed>
  <fix>3d</fix>
</trkpt>
<trkpt lat="40.0713748" lon="-105.229789">
  <ele>1583.01</ele>
  <time>2026-08-28T17:49:23Z</time>
  <course>246.26</course>
  <speed>0.02</speed>
  <fix>3d</fix>
</trkpt>
<trkpt lat="40.0713749" lon="-105.229789">
  <ele>1583.0</ele>
  <time>2026-08-28T17:49:23Z</time>
  <course>0.0</course>
  <speed>0.0</speed>
  <fix>3d</fix>
</trkpt>
<trkpt lat="40.0713748" lon="-105.229789">
  <ele>1583.0</ele>
  <time>2026-08-28T17:49:23Z</time>
  <course>246.26</course>
  <speed>0.02</speed>
  <fix>3d</fix>
</trkpt>
<trkpt lat="40.0713749" lon="-105.229789">
  <ele>1583.0</ele>
  <time>2026-08-28T17:49:23Z</time>
  <course>0.0</course>
  <speed>0.0</speed>
  <fix>3d</fix>
</trkpt>
<trkpt lat="40.0713748" lon="-105.229789">
  <ele>1583.0</ele>
  <time>2026-08-28T17:49:23Z</time>
  <course>246.25</course>
  <speed>0.02</speed>
  <fix>3d</fix>
</trkpt>
<trkpt lat="40.0713749" lon="-105.229789">
  <ele>1583.0</ele>
  <time>2026-08-28T17:49:23Z</time>
  <course>0.0</course>
  <speed>0.0</speed>
  <fix>3d</fix>
</trkpt>
<trkpt lat="40.0713748" lon="-105.229789">
  <ele>1582.99</ele>
  <time>2026-08-28T17:49:23Z</time>
  <course>246.25</course>
  <speed>0.02</speed>
  <fix>3d</fix>
</trkpt>
<trkpt lat="40.0713749" lon="-105.229789">
  <ele>1583.0</ele>
  <time>2026-08-28T17:49:23Z</time>
  <course>0.0</course>
  <speed>0.0</speed>
  <fix>3d</fix>
</trkpt>
<trkpt lat="40.0713748" lon="-105.229789">
  <ele>1582.98</ele>
  <time>2026-08-28T17:49:23Z</time>
  <course>246.25</course>
  <speed>0.02</speed>
  <fix>3d</fix>
</trkpt>
<trkpt lat="40.0713749" lon="-105.229789">
  <ele>1583.0</ele>
  <time>2026-08-28T17:49:23Z</time>
  <course>0.0</course>
  <speed>0.0</speed>
  <fix>3d</fix>
</trkpt>
<trkpt lat="40.0713748" lon="-105.229789">
  <ele>1582.97</ele>
  <time>2026-08-28T17:49:23Z</time>
  <course>246.24</course>
  <speed>0.02</speed>
  <fix>3d</fix>
</trkpt>
<trkpt lat="40.0713749" lon="-105.229789">
  <ele>1583.0</ele>
  <time>2026-08-28T17:49:23Z</time>
  <course>0.0</course>
  <speed>0.0</speed>
  <fix>3d</fix>
</trkpt>
<trkpt lat="40.0713748" lon="-105.229789">
  <ele>1582.97</ele>
  <time>2026-08-28T17:49:23Z</time>
  <course>246.24</course>
  <speed>0.02</speed>
  <fix>3d</fix>
</trkpt>
<trkpt lat="40.0713749" lon="-105.229789">
  <ele>1583.0</ele>
  <time>2026-08-28T17:49:23Z</time>
  <course>0.0</course>
  <speed>0.0</speed>
  <fix>3d</fix>
</trkpt>
<trkpt lat="40.0713748" lon="-105.229789">
  <ele>1582.96</ele>
  <time>2026-08-28T17:49:23Z</time>
  <course>246.24</course>
  <speed>0.02</speed>
  <fix>3d</fix>
</trkpt>
<trkpt lat="40.0713749" lon="-105.229789">
  <ele>1583.0</ele>
  <time>2026-08-28T17:49:23Z</time>
  <course>0.0</course>
  <speed>0.0</speed>
  <fix>3d</fix>
</trkpt>
<trkpt lat="40.0713748" lon="-105.229789">
  <ele>1582.96</ele>
  <time>2026-08-28T17:49:23Z</time>
  <course>246.24</course>
  <speed>0.02</speed>
  <fix>3d</fix>
</trkpt>
<trkpt lat="40.0713749" lon="-105.229789">
  <ele>1583.0</ele>
  <time>2026-08-28T17:49:23Z</time>
  <course>0.0</course>
  <speed>0.0</speed>
  <fix>3d</fix>
</trkpt>
<trkpt lat="40.0713748" lon="-105.229789">
  <ele>1582.96</ele>
  <time>2026-08-28T17:49:23Z</time>
  <course>246.23</course>
  <speed>0.02</speed>
  <fix>3d</fix>
</trkpt>
<trkpt lat="40.0713749" lon="-105.229789">
  <ele>1583.0</ele>
  <time>2026-08-28T17:49:23Z</time>
  <course>0.0</course>
  <speed>0.0</speed>
  <fix>3d</fix>
</trkpt>
<trkpt lat="40.0713748" lon="-105.229789">
  <ele>1582.95</ele>
  <time>2026-08-28T17:49:23Z</time>
  <course>246.23</course>
  <speed>0.02</speed>
  <fix>3d</fix>
</trkpt>
<trkpt lat="40.0713749" lon="-105.229789">
  <ele>1583.0</ele>
  <time>2026-08-28T17:49:23Z</time>
  <course>0.0</course>
  <speed>0.0</speed>
  <fix>3d</fix>
</trkpt>
<trkpt lat="40.0713748" lon="-105.229789">
  <ele>1582.95</ele>
  <time>2026-08-28T17:49:23Z</time>
  <course>246.23</course>
  <speed>0.02</speed>
  <fix>3d</fix>
</trkpt>
<trkpt lat="40.0713749" lon="-105.229789">
  <ele>1583.0</ele>
  <time>2026-08-28T17:49:23Z</time>
  <course>0.0</course>
  <speed>0.0</speed>
  <fix>3d</fix>
</trkpt>
<trkpt lat="40.0713748" lon="-105.229789">
  <ele>1582.95</ele>
  <time>2026-08-28T17:49:23Z</time>
  <course>246.22</course>
  <speed>0.02</speed>
  <fix>3d</fix>
</trkpt>
<trkpt lat="40.0713749" lon="-105.229789">
  <ele>1583.0</ele>
  <time>2026-08-28T17:49:23Z</time>
  <course>0.0</course>
  <speed>0.0</speed>
  <fix>3d</fix>
</trkpt>
<trkpt lat="40.0713748" lon="-105.229789">
  <ele>1582.95</ele>
  <time>2026-08-28T17:49:23Z</time>
  <course>246.22</course>
  <speed>0.02</speed>
  <fix>3d</fix>
</trkpt>
<trkpt lat="40.0713749" lon="-105.229789">
  <ele>1583.0</ele>
  <time>2026-08-28T17:49:23Z</time>
  <course>0.0</course>
  <speed>0.0</speed>
  <fix>3d</fix>
</trkpt>
<trkpt lat="40.0713748" lon="-105.229789">
  <ele>1582.95</ele>
  <time>2026-08-28T17:49:23Z</time>
  <course>246.22</course>
  <speed>0.02</speed>
  <fix>3d</fix>
</trkpt>
<trkpt lat="40.0713749" lon="-105.229789">
  <ele>1583.0</ele>
  <time>2026-08-28T17:49:23Z</time>
  <course>0.0</course>
  <speed>0.0</speed>
  <fix>3d</fix>
</trkpt>
<trkpt lat="40.0713748" lon="-105.229789">
  <ele>1582.95</ele>
  <time>2026-08-28T17:49:23Z</time>
  <course>246.22</course>
  <speed>0.02</speed>
  <fix>3d</fix>
</trkpt>
<trkpt lat="40.0713749" lon="-105.229789">
  <ele>1583.0</ele>
  <time>2026-08-28T17:49:23Z</time>
  <course>0.0</course>
  <speed>0.0</speed>
  <fix>3d</fix>
</trkpt>
<trkpt lat="40.0713748" lon="-105.229789">
  <ele>1582.95</ele>
  <time>2026-08-28T17:49:23Z</time>
  <course>246.21</course>
  <speed>0.02</speed>
  <fix>3d</fix>
</trkpt>
<trkpt lat="40.0713749" lon="-105.229789">
  <ele>1583.0</ele>
  <time>2026-08-28T17:49:23Z</time>
  <course>0.0</course>
  <speed>0.0</speed>
  <fix>3d</fix>
</trkpt>
<trkpt lat="40.0713748" lon="-105.229789">
  <ele>1582.95</ele>
  <time>2026-08-28T17:49:23Z</time>
  <course>246.21</course>
  <speed>0.02</speed>
  <fix>3d</fix>
</trkpt>
<trkpt lat="40.0713749" lon="-105.229789">
  <ele>1583.0</ele>
  <time>2026-08-28T17:49:23Z</time>
  <course>0.0</course>
  <speed>0.0</speed>
  <fix>3d</fix>
</trkpt>
<trkpt lat="40.0713748" lon="-105.229789">
  <ele>1582.96</ele>
  <time>2026-08-28T17:49:23Z</time>
  <course>246.21</course>
  <speed>0.02</speed>
  <fix>3d</fix>
</trkpt>
<trkpt lat="40.0713749" lon="-105.229789">
  <ele>1583.0</ele>
  <time>2026-08-28T17:49:23Z</time>
  <course>0.0</course>
  <speed>0.0</speed>
  <fix>3d</fix>
</trkpt>
<trkpt lat="40.0713748" lon="-105.229789">
  <ele>1582.96</ele>
  <time>2026-08-28T17:49:23Z</time>
  <course>246.21</course>
  <speed>0.02</speed>
  <fix>3d</fix>
</trkpt>
<trkpt lat="40.0713749" lon="-105.229789">
  <ele>1583.0</ele>
  <time>2026-08-28T17:49:23Z</time>
  <course>0.0</course>
  <speed>0.0</speed>
  <fix>3d</fix>
</trkpt>
<trkpt lat="40.0713748" lon="-105.229789">
  <ele>1582.97</ele>
  <time>2026-08-28T17:49:23Z</time>
  <course>246.2</course>
  <speed>0.02</speed>
  <fix>3d</fix>
</trkpt>
<trkpt lat="40.0713749" lon="-105.229789">
  <ele>1583.0</ele>
  <time>2026-08-28T17:49:23Z</time>
  <course>0.0</course>
  <speed>0.0</speed>
  <fix>3d</fix>
</trkpt>
<trkpt lat="40.0713748" lon="-105.229789">
  <ele>1582.98</ele>
  <time>2026-08-28T17:49:23Z</time>
  <course>246.2</course>
  <speed>0.02</speed>
  <fix>3d</fix>
</trkpt>
<trkpt lat="40.0713749" lon="-105.229789">
  <ele>1583.0</ele>
  <time>2026-08-28T17:49:23Z</time>
  <course>0.0</course>
  <speed>0.0</speed>
  <fix>3d</fix>
</trkpt>
<trkpt lat="40.0713748" lon="-105.229789">
  <ele>1582.98</ele>
  <time>2026-08-28T17:49:23Z</time>
  <course>246.2</course>
  <speed>0.02</speed>
  <fix>3d</fix>
</trkpt>
<trkpt lat="40.0713749" lon="-105.229789">
  <ele>1583.0</ele>
  <time>2026-08-28T17:49:23Z</time>
  <course>0.0</course>
  <speed>0.0</speed>
  <fix>3d</fix>
</trkpt>
<trkpt lat="40.0713748" lon="-105.229789">
  <ele>1582.99</ele>
  <time>2026-08-28T17:49:23Z</time>
  <course>246.19</course>
  <speed>0.02</speed>
  <fix>3d</fix>
</trkpt>
<trkpt lat="40.0713749" lon="-105.229789">
  <ele>1583.0</ele>
  <time>2026-08-28T17:49:23Z</time>
  <course>0.0</course>
  <speed>0.0</speed>
  <fix>3d</fix>
</trkpt>
<trkpt lat="40.0713748" lon="-105.229789">
  <ele>1583.0</ele>
  <time>2026-08-28T17:49:23Z</time>
  <course>246.19</course>
  <speed>0.02</speed>
  <fix>3d</fix>
</trkpt>
<trkpt lat="40.0713749" lon="-105.229789">
  <ele>1583.0</ele>
  <time>2026-08-28T17:49:23Z</time>
  <course>0.0</course>
  <speed>0.0</speed>
  <fix>3d</fix>
</trkpt>
<trkpt lat="40.0713748" lon="-105.229789">
  <ele>1583.01</ele>
  <time>2026-08-28T17:49:23Z</time>
  <course>246.19</course>
  <speed>0.02</speed>
  <fix>3d</fix>
</trkpt>
<trkpt lat="40.0713749" lon="-105.229789">
  <ele>1583.0</ele>
  <time>2026-08-28T17:49:23Z</time>
  <course>0.0</course>
  <speed>0.0</speed>
  <fix>3d</fix>
</trkpt>
<trkpt lat="40.0713748" lon="-105.229789">
  <ele>1583.02</ele>
  <time>2026-08-28T17:49:23Z</time>
  <course>246.19</course>
  <speed>0.02</speed>
  <fix>3d</fix>
</trkpt>
<trkpt lat="40.0713749" lon="-105.229789">
  <ele>1583.0</ele>
  <time>2026-08-28T17:49:23Z</time>
  <course>0.0</course>
  <speed>0.0</speed>
  <fix>3d</fix>
</trkpt>
<trkpt lat="40.0713748" lon="-105.229789">
  <ele>1583.02</ele>
  <time>2026-08-28T17:49:23Z</time>
  <course>246.18</course>
  <speed>0.02</speed>
  <fix>3d</fix>
</trkpt>
<trkpt lat="40.0713749" lon="-105.229789">
  <ele>1583.0</ele>
  <time>2026-08-28T17:49:23Z</time>
  <course>0.0</course>
  <speed>0.0</speed>
  <fix>3d</fix>
</trkpt>
<trkpt lat="40.0713748" lon="-105.229789">
  <ele>1583.03</ele>
  <time>2026-08-28T17:49:23Z</time>
  <course>246.18</course>
  <speed>0.02</speed>
  <fix>3d</fix>
</trkpt>
<trkpt lat="40.0713749" lon="-105.229789">
  <ele>1583.0</ele>
  <time>2026-08-28T17:49:23Z</time>
  <course>0.0</course>
  <speed>0.0</speed>
  <fix>3d</fix>
</trkpt>
<trkpt lat="40.0713748" lon="-105.229789">
  <ele>1583.03</ele>
  <time>2026-08-28T17:49:23Z</time>
  <course>246.18</course>
  <speed>0.02</speed>
  <fix>3d</fix>
</trkpt>
<trkpt lat="40.0713749" lon="-105.229789">
  <ele>1583.0</ele>
  <time>2026-08-28T17:49:23Z</time>
  <course>0.0</course>
  <speed>0.0</speed>
  <fix>3d</fix>
</trkpt>
<trkpt lat="40.0713748" lon="-105.229789">
  <ele>1583.03</ele>
  <time>2026-08-28T17:49:23Z</time>
  <course>246.18</course>
  <speed>0.02</speed>
  <fix>3d</fix>
</trkpt>
<trkpt lat="40.0713749" lon="-105.229789">
  <ele>1583.0</ele>
  <time>2026-08-28T17:49:23Z</time>
  <course>0.0</course>
  <speed>0.0</speed>
  <fix>3d</fix>
</trkpt>
<trkpt lat="40.0713748" lon="-105.229789">
  <ele>1583.03</ele>
  <time>2026-08-28T17:49:23Z</time>
  <course>246.17</course>
  <speed>0.02</speed>
  <fix>3d</fix>
</trkpt>
<trkpt lat="40.0713749" lon="-105.229789">
  <ele>1583.0</ele>
  <time>2026-08-28T17:49:23Z</time>
  <course>0.0</course>
  <speed>0.0</speed>
  <fix>3d</fix>
</trkpt>
<trkpt lat="40.0713748" lon="-105.229789">
  <ele>1583.03</ele>
  <time>2026-08-28T17:49:23Z</time>
  <course>246.17</course>
  <speed>0.02</speed>
  <fix>3d</fix>
</trkpt>
<trkpt lat="40.0713749" lon="-105.229789">
  <ele>1583.0</ele>
  <time>2026-08-28T17:49:23Z</time>
  <course>0.0</course>
  <speed>0.0</speed>
  <fix>3d</fix>
</trkpt>
<trkpt lat="40.0713748" lon="-105.229789">
  <ele>1583.03</ele>
  <time>2026-08-28T17:49:23Z</time>
  <course>246.17</course>
  <speed>0.02</speed>
  <fix>3d</fix>
</trkpt>
<trkpt lat="40.0713749" lon="-105.229789">
  <ele>1583.0</ele>
  <time>2026-08-28T17:49:23Z</time>
  <course>0.0</course>
  <speed>0.0</speed>
  <fix>3d</fix>
</trkpt>
<trkpt lat="40.0713748" lon="-105.229789">
  <ele>1583.03</ele>
  <time>2026-08-28T17:49:23Z</time>
  <course>246.16</course>
  <speed>0.02</speed>
  <fix>3d</fix>
</trkpt>
<trkpt lat="40.0713749" lon="-105.229789">
  <ele>1583.0</ele>
  <time>2026-08-28T17:49:23Z</time>
  <course>0.0</course>
  <speed>0.0</speed>
  <fix>3d</fix>
</trkpt>
<trkpt lat="40.0713748" lon="-105.229789">
  <ele>1583.03</ele>
  <time>2026-08-28T17:49:23Z</time>
  <course>246.16</course>
  <speed>0.02</speed>
  <fix>3d</fix>
</trkpt>
<trkpt lat="40.0713749" lon="-105.229789">
  <ele>1583.0</ele>
  <time>2026-08-28T17:49:23Z</time>
  <course>0.0</course>
  <speed>0.0</speed>
  <fix>3d</fix>
</trkpt>
<trkpt lat="40.0713748" lon="-105.229789">
  <ele>1583.03</ele>
  <time>2026-08-28T17:49:23Z</time>
  <course>246.16</course>
  <speed>0.02</speed>
  <fix>3d</fix>
</trkpt>
<trkpt lat="40.0713749" lon="-105.229789">
  <ele>1583.0</ele>
  <time>2026-08-28T17:49:23Z</time>
  <course>0.0</course>
  <speed>0.0</speed>
  <fix>3d</fix>
</trkpt>
<trkpt lat="40.0713748" lon="-105.229789">
  <ele>1583.03</ele>
  <time>2026-08-28T17:49:23Z</time>
  <course>246.16</course>
  <speed>0.02</speed>
  <fix>3d</fix>
</trkpt>
<trkpt lat="40.0713749" lon="-105.229789">
  <ele>1583.0</ele>
  <time>2026-08-28T17:49:23Z</time>
  <course>0.0</course>
  <speed>0.0</speed>
  <fix>3d</fix>
</trkpt>
<trkpt lat="40.0713748" lon="-105.229789">
  <ele>1583.03</ele>
  <time>2026-08-28T17:49:23Z</time>
  <course>246.15</course>
  <speed>0.02</speed>
  <fix>3d</fix>
</trkpt>
<trkpt lat="40.0713749" lon="-105.229789">
  <ele>1583.0</ele>
  <time>2026-08-28T17:49:23Z</time>
  <course>0.0</course>
  <speed>0.0</speed>
  <fix>3d</fix>
</trkpt>
<trkpt lat="40.0713748" lon="-105.229789">
  <ele>1583.03</ele>
  <time>2026-08-28T17:49:23Z</time>
  <course>246.15</course>
  <speed>0.02</speed>
  <fix>3d</fix>
</trkpt>
<trkpt lat="40.0713749" lon="-105.229789">
  <ele>1583.0</ele>
  <time>2026-08-28T17:49:23Z</time>
  <course>0.0</course>
  <speed>0.0</speed>
  <fix>3d</fix>
</trkpt>
<trkpt lat="40.0713748" lon="-105.229789">
  <ele>1583.03</ele>
  <time>2026-08-28T17:49:23Z</time>
  <course>246.15</course>
  <speed>0.02</speed>
  <fix>3d</fix>
</trkpt>
<trkpt lat="40.0713749" lon="-105.229789">
  <ele>1583.0</ele>
  <time>2026-08-28T17:49:23Z</time>
  <course>0.0</course>
  <speed>0.0</speed>
  <fix>3d</fix>
</trkpt>
<trkpt lat="40.0713748" lon="-105.229789">
  <ele>1583.03</ele>
  <time>2026-08-28T17:49:23Z</time>
  <course>246.15</course>
  <speed>0.02</speed>
  <fix>3d</fix>
</trkpt>
<trkpt lat="40.0713749" lon="-105.229789">
  <ele>1583.0</ele>
  <time>2026-08-28T17:49:23Z</time>
  <course>0.0</course>
  <speed>0.0</speed>
  <fix>3d</fix>
</trkpt>
<trkpt lat="40.0713748" lon="-105.229789">
  <ele>1583.03</ele>
  <time>2026-08-28T17:49:23Z</time>
  <course>246.14</course>
  <speed>0.02</speed>
  <fix>3d</fix>
</trkpt>
<trkpt lat="40.0713749" lon="-105.229789">
  <ele>1583.0</ele>
  <time>2026-08-28T17:49:23Z</time>
  <course>0.0</course>
  <speed>0.0</speed>
  <fix>3d</fix>
</trkpt>
<trkpt lat="40.0713748" lon="-105.229789">
  <ele>1583.02</ele>
  <time>2026-08-28T17:49:23Z</time>
  <course>246.14</course>
  <speed>0.02</speed>
  <fix>3d</fix>
</trkpt>
<trkpt lat="40.0713749" lon="-105.229789">
  <ele>1583.0</ele>
  <time>2026-08-28T17:49:23Z</time>
  <course>0.0</course>
  <speed>0.0</speed>
  <fix>3d</fix>
</trkpt>
<trkpt lat="40.0713748" lon="-105.229789">
  <ele>1583.02</ele>
  <time>2026-08-28T17:49:23Z</time>
  <course>246.14</course>
  <speed>0.02</speed>
  <fix>3d</fix>
</trkpt>
<trkpt lat="40.0713749" lon="-105.229789">
  <ele>1583.0</ele>
  <time>2026-08-28T17:49:23Z</time>
  <course>0.0</course>
  <speed>0.0</speed>
  <fix>3d</fix>
</trkpt>
<trkpt lat="40.0713748" lon="-105.229789">
  <ele>1583.02</ele>
  <time>2026-08-28T17:49:23Z</time>
  <course>246.13</course>
  <speed>0.02</speed>
  <fix>3d</fix>
</trkpt>
<trkpt lat="40.0713749" lon="-105.229789">
  <ele>1583.0</ele>
  <time>2026-08-28T17:49:23Z</time>
  <course>0.0</course>
  <speed>0.0</speed>
  <fix>3d</fix>
</trkpt>
<trkpt lat="40.0713748" lon="-105.229789">
  <ele>1583.01</ele>
  <time>2026-08-28T17:49:23Z</time>
  <course>246.13</course>
  <speed>0.02</speed>
  <fix>3d</fix>
</trkpt>
<trkpt lat="40.0713749" lon="-105.229789">
  <ele>1583.0</ele>
  <time>2026-08-28T17:49:23Z</time>
  <course>0.0</course>
  <speed>0.0</speed>
  <fix>3d</fix>
</trkpt>
<trkpt lat="40.0713748" lon="-105.229789">
  <ele>1583.01</ele>
  <time>2026-08-28T17:49:23Z</time>
  <course>246.13</course>
  <speed>0.02</speed>
  <fix>3d</fix>
</trkpt>
<trkpt lat="40.0713749" lon="-105.229789">
  <ele>1583.0</ele>
  <time>2026-08-28T17:49:23Z</time>
  <course>0.0</course>
  <speed>0.0</speed>
  <fix>3d</fix>
</trkpt>
<trkpt lat="40.0713748" lon="-105.229789">
  <ele>1583.01</ele>
  <time>2026-08-28T17:49:23Z</time>
  <course>246.13</course>
  <speed>0.02</speed>
  <fix>3d</fix>
</trkpt>
<trkpt lat="40.0713749" lon="-105.229789">
  <ele>1583.0</ele>
  <time>2026-08-28T17:49:23Z</time>
  <course>0.0</course>
  <speed>0.0</speed>
  <fix>3d</fix>
</trkpt>
<trkpt lat="40.0713748" lon="-105.229789">
  <ele>1583.01</ele>
  <time>2026-08-28T17:49:23Z</time>
  <course>246.12</course>
  <speed>0.02</speed>
  <fix>3d</fix>
</trkpt>
<trkpt lat="40.0713749" lon="-105.229789">
  <ele>1583.0</ele>
  <time>2026-08-28T17:49:23Z</time>
  <course>0.0</course>
  <speed>0.0</speed>
  <fix>3d</fix>
</trkpt>
<trkpt lat="40.0713748" lon="-105.229789">
  <ele>1583.01</ele>
  <time>2026-08-28T17:49:23Z</time>
  <course>246.12</course>
  <speed>0.02</speed>
  <fix>3d</fix>
</trkpt>
<trkpt lat="40.0713749" lon="-105.229789">
  <ele>1583.0</ele>
  <time>2026-08-28T17:49:23Z</time>
  <course>0.0</course>
  <speed>0.0</speed>
  <fix>3d</fix>
</trkpt>
<trkpt lat="40.0713748" lon="-105.229789">
  <ele>1583.01</ele>
  <time>2026-08-28T17:49:23Z</time>
  <course>246.12</course>
  <speed>0.02</speed>
  <fix>3d</fix>
</trkpt>
<trkpt lat="40.0713749" lon="-105.229789">
  <ele>1583.0</ele>
  <time>2026-08-28T17:49:23Z</time>
  <course>0.0</course>
  <speed>0.0</speed>
  <fix>3d</fix>
</trkpt>
<trkpt lat="40.0713748" lon="-105.229789">
  <ele>1583.01</ele>
  <time>2026-08-28T17:49:23Z</time>
  <course>246.12</course>
  <speed>0.02</speed>
  <fix>3d</fix>
</trkpt>
<trkpt lat="40.0713749" lon="-105.229789">
  <ele>1583.0</ele>
  <time>2026-08-28T17:49:23Z</time>
  <course>0.0</course>
  <speed>0.0</speed>
  <fix>3d</fix>
</trkpt>
<trkpt lat="40.0713748" lon="-105.229789">
  <ele>1583.02</ele>
  <time>2026-08-28T17:49:23Z</time>
  <course>246.11</course>
  <speed>0.02</speed>
  <fix>3d</fix>
</trkpt>
<trkpt lat="40.0713749" lon="-105.229789">
  <ele>1583.0</ele>
  <time>2026-08-28T17:49:23Z</time>
  <course>0.0</course>
  <speed>0.0</speed>
  <fix>3d</fix>
</trkpt>
<trkpt lat="40.0713748" lon="-105.229789">
  <ele>1583.02</ele>
  <time>2026-08-28T17:49:23Z</time>
  <course>246.11</course>
  <speed>0.02</speed>
  <fix>3d</fix>
</trkpt>
<trkpt lat="40.0713749" lon="-105.229789">
  <ele>1583.0</ele>
  <time>2026-08-28T17:49:23Z</time>
  <course>0.0</course>
  <speed>0.0</speed>
  <fix>3d</fix>
</trkpt>
<trkpt lat="40.0713748" lon="-105.229789">
  <ele>1583.02</ele>
  <time>2026-08-28T17:49:23Z</time>
  <course>246.11</course>
  <speed>0.02</speed>
  <fix>3d</fix>
</trkpt>
<trkpt lat="40.0713749" lon="-105.229789">
  <ele>1583.0</ele>
  <time>2026-08-28T17:49:23Z</time>
  <course>0.0</course>
  <speed>0.0</speed>
  <fix>3d</fix>
</trkpt>
<trkpt lat="40.0713748" lon="-105.229789">
  <ele>1583.02</ele>
  <time>2026-08-28T17:49:23Z</time>
  <course>246.1</course>
  <speed>0.02</speed>
  <fix>3d</fix>
</trkpt>
<trkpt lat="40.0713749" lon="-105.229789">
  <ele>1583.0</ele>
  <time>2026-08-28T17:49:23Z</time>
  <course>0.0</course>
  <speed>0.0</speed>
  <fix>3d</fix>
</trkpt>
<trkpt lat="40.0713748" lon="-105.229789">
  <ele>1583.02</ele>
  <time>2026-08-28T17:49:23Z</time>
  <course>246.1</course>
  <speed>0.02</speed>
  <fix>3d</fix>
</trkpt>
<trkpt lat="40.0713749" lon="-105.229789">
  <ele>1583.0</ele>
  <time>2026-08-28T17:49:23Z</time>
  <course>0.0</course>
  <speed>0.0</speed>
  <fix>3d</fix>
</trkpt>
<trkpt lat="40.0713748" lon="-105.229789">
  <ele>1583.03</ele>
  <time>2026-08-28T17:49:23Z</time>
  <course>246.1</course>
  <speed>0.02</speed>
  <fix>3d</fix>
</trkpt>
<trkpt lat="40.0713749" lon="-105.229789">
  <ele>1583.0</ele>
  <time>2026-08-28T17:49:23Z</time>
  <course>0.0</course>
  <speed>0.0</speed>
  <fix>3d</fix>
</trkpt>
<trkpt lat="40.0713748" lon="-105.229789">
  <ele>1583.03</ele>
  <time>2026-08-28T17:49:23Z</time>
  <course>246.1</course>
  <speed>0.02</speed>
  <fix>3d</fix>
</trkpt>
<trkpt lat="40.0713749" lon="-105.229789">
  <ele>1583.0</ele>
  <time>2026-08-28T17:49:23Z</time>
  <course>0.0</course>
  <speed>0.0</speed>
  <fix>3d</fix>
</trkpt>
<trkpt lat="40.0713748" lon="-105.229789">
  <ele>1583.04</ele>
  <time>2026-08-28T17:49:23Z</time>
  <course>246.09</course>
  <speed>0.02</speed>
  <fix>3d</fix>
</trkpt>
<trkpt lat="40.0713749" lon="-105.229789">
  <ele>1583.0</ele>
  <time>2026-08-28T17:49:23Z</time>
  <course>0.0</course>
  <speed>0.0</speed>
  <fix>3d</fix>
</trkpt>
<trkpt lat="40.0713748" lon="-105.229789">
  <ele>1583.04</ele>
  <time>2026-08-28T17:49:23Z</time>
  <course>246.09</course>
  <speed>0.02</speed>
  <fix>3d</fix>
</trkpt>
<trkpt lat="40.0713749" lon="-105.229789">
  <ele>1583.0</ele>
  <time>2026-08-28T17:49:23Z</time>
  <course>0.0</course>
  <speed>0.0</speed>
  <fix>3d</fix>
</trkpt>
<trkpt lat="40.0713748" lon="-105.229789">
  <ele>1583.04</ele>
  <time>2026-08-28T17:49:23Z</time>
  <course>246.09</course>
  <speed>0.02</speed>
  <fix>3d</fix>
</trkpt>
<trkpt lat="40.0713749" lon="-105.229789">
  <ele>1583.0</ele>
  <time>2026-08-28T17:49:23Z</time>
  <course>0.0</course>
  <speed>0.0</speed>
  <fix>3d</fix>
</trkpt>
<trkpt lat="40.0713748" lon="-105.229789">
  <ele>1583.05</ele>
  <time>2026-08-28T17:49:23Z</time>
  <course>246.09</course>
  <speed>0.02</speed>
  <fix>3d</fix>
</trkpt>
<trkpt lat="40.0713749" lon="-105.229789">
  <ele>1583.0</ele>
  <time>2026-08-28T17:49:23Z</time>
  <course>0.0</course>
  <speed>0.0</speed>
  <fix>3d</fix>
</trkpt>
<trkpt lat="40.0713748" lon="-105.229789">
  <ele>1583.05</ele>
  <time>2026-08-28T17:49:23Z</time>
  <course>246.08</course>
  <speed>0.02</speed>
  <fix>3d</fix>
</trkpt>
<trkpt lat="40.0713749" lon="-105.229789">
  <ele>1583.0</ele>
  <time>2026-08-28T17:49:23Z</time>
  <course>0.0</course>
  <speed>0.0</speed>
  <fix>3d</fix>
</trkpt>
<trkpt lat="40.0713748" lon="-105.229789">
  <ele>1583.06</ele>
  <time>2026-08-28T17:49:23Z</time>
  <course>246.08</course>
  <speed>0.02</speed>
  <fix>3d</fix>
</trkpt>
<trkpt lat="40.0713749" lon="-105.229789">
  <ele>1583.0</ele>
  <time>2026-08-28T17:49:23Z</time>
  <course>0.0</course>
  <speed>0.0</speed>
  <fix>3d</fix>
</trkpt>
<trkpt lat="40.0713748" lon="-105.229789">
  <ele>1583.06</ele>
  <time>2026-08-28T17:49:23Z</time>
  <course>246.08</course>
  <speed>0.02</speed>
  <fix>3d</fix>
</trkpt>
<trkpt lat="40.0713749" lon="-105.229789">
  <ele>1583.0</ele>
  <time>2026-08-28T17:49:23Z</time>
  <course>0.0</course>
  <speed>0.0</speed>
  <fix>3d</fix>
</trkpt>
<trkpt lat="40.0713748" lon="-105.229789">
  <ele>1583.05</ele>
  <time>2026-08-28T17:49:23Z</time>
  <course>246.08</course>
  <speed>0.02</speed>
  <fix>3d</fix>
</trkpt>
<trkpt lat="40.0713749" lon="-105.229789">
  <ele>1583.0</ele>
  <time>2026-08-28T17:49:23Z</time>
  <course>0.0</course>
  <speed>0.0</speed>
  <fix>3d</fix>
</trkpt>
<trkpt lat="40.0713748" lon="-105.229789">
  <ele>1583.05</ele>
  <time>2026-08-28T17:49:23Z</time>
  <course>246.07</course>
  <speed>0.02</speed>
  <fix>3d</fix>
</trkpt>
<trkpt lat="40.0713749" lon="-105.229789">
  <ele>1583.0</ele>
  <time>2026-08-28T17:49:23Z</time>
  <course>0.0</course>
  <speed>0.0</speed>
  <fix>3d</fix>
</trkpt>
<trkpt lat="40.0713748" lon="-105.229789">
  <ele>1583.04</ele>
  <time>2026-08-28T17:49:23Z</time>
  <course>246.07</course>
  <speed>0.02</speed>
  <fix>3d</fix>
</trkpt>
<trkpt lat="40.0713749" lon="-105.229789">
  <ele>1583.0</ele>
  <time>2026-08-28T17:49:23Z</time>
  <course>0.0</course>
  <speed>0.0</speed>
  <fix>3d</fix>
</trkpt>
<trkpt lat="40.0713748" lon="-105.229789">
  <ele>1583.04</ele>
  <time>2026-08-28T17:49:23Z</time>
  <course>246.07</course>
  <speed>0.02</speed>
  <fix>3d</fix>
</trkpt>
<trkpt lat="40.0713749" lon="-105.229789">
  <ele>1583.0</ele>
  <time>2026-08-28T17:49:23Z</time>
  <course>0.0</course>
  <speed>0.0</speed>
  <fix>3d</fix>
</trkpt>
<trkpt lat="40.0713748" lon="-105.229789">
  <ele>1583.04</ele>
  <time>2026-08-28T17:49:23Z</time>
  <course>246.07</course>
  <speed>0.02</speed>
  <fix>3d</fix>
</trkpt>
<trkpt lat="40.0713749" lon="-105.229789">
  <ele>1583.0</ele>
  <time>2026-08-28T17:49:23Z</time>
  <course>0.0</course>
  <speed>0.0</speed>
  <fix>3d</fix>
</trkpt>
<trkpt lat="40.0713748" lon="-105.229789">
  <ele>1583.04</ele>
  <time>2026-08-28T17:49:23Z</time>
  <course>246.06</course>
  <speed>0.02</speed>
  <fix>3d</fix>
</trkpt>
<trkpt lat="40.0713749" lon="-105.229789">
  <ele>1583.0</ele>
  <time>2026-08-28T17:49:23Z</time>
  <course>0.0</course>
  <speed>0.0</speed>
  <fix>3d</fix>
</trkpt>
<trkpt lat="40.0713748" lon="-105.229789">
  <ele>1583.03</ele>
  <time>2026-08-28T17:49:23Z</time>
  <course>246.06</course>
  <speed>0.02</speed>
  <fix>3d</fix>
</trkpt>
<trkpt lat="40.0713749" lon="-105.229789">
  <ele>1583.0</ele>
  <time>2026-08-28T17:49:23Z</time>
  <course>0.0</course>
  <speed>0.0</speed>
  <fix>3d</fix>
</trkpt>
<trkpt lat="40.0713748" lon="-105.229789">
  <ele>1583.03</ele>
  <time>2026-08-28T17:49:23Z</time>
  <course>246.06</course>
  <speed>0.02</speed>
  <fix>3d</fix>
</trkpt>
<trkpt lat="40.0713749" lon="-105.229789">
  <ele>1583.0</ele>
  <time>2026-08-28T17:49:23Z</time>
  <course>0.0</course>
  <speed>0.0</speed>
  <fix>3d</fix>
</trkpt>
<trkpt lat="40.0713748" lon="-105.229789">
  <ele>1583.03</ele>
  <time>2026-08-28T17:49:23Z</time>
  <course>246.05</course>
  <speed>0.02</speed>
  <fix>3d</fix>
</trkpt>
<trkpt lat="40.0713749" lon="-105.229789">
  <ele>1583.0</ele>
  <time>2026-08-28T17:49:23Z</time>
  <course>0.0</course>
  <speed>0.0</speed>
  <fix>3d</fix>
</trkpt>
<trkpt lat="40.0713748" lon="-105.229789">
  <ele>1583.02</ele>
  <time>2026-08-28T17:49:23Z</time>
  <course>246.05</course>
  <speed>0.02</speed>
  <fix>3d</fix>
</trkpt>
<trkpt lat="40.0713749" lon="-105.229789">
  <ele>1583.0</ele>
  <time>2026-08-28T17:49:23Z</time>
  <course>0.0</course>
  <speed>0.0</speed>
  <fix>3d</fix>
</trkpt>
<trkpt lat="40.0713748" lon="-105.229789">
  <ele>1583.02</ele>
  <time>2026-08-28T17:49:23Z</time>
  <course>246.05</course>
  <speed>0.02</speed>
  <fix>3d</fix>
</trkpt>
<trkpt lat="40.0713749" lon="-105.229789">
  <ele>1583.0</ele>
  <time>2026-08-28T17:49:23Z</time>
  <course>0.0</course>
  <speed>0.0</speed>
  <fix>3d</fix>
</trkpt>
<trkpt lat="40.0713748" lon="-105.229789">
  <ele>1583.02</ele>
  <time>2026-08-28T17:49:23Z</time>
  <course>246.05</course>
  <speed>0.02</speed>
  <fix>3d</fix>
</trkpt>
<trkpt lat="40.0713749" lon="-105.229789">
  <ele>1583.0</ele>
  <time>2026-08-28T17:49:23Z</time>
  <course>0.0</course>
  <speed>0.0</speed>
  <fix>3d</fix>
</trkpt>
<trkpt lat="40.0713748" lon="-105.229789">
  <ele>1583.01</ele>
  <time>2026-08-28T17:49:23Z</time>
  <course>246.04</course>
  <speed>0.02</speed>
  <fix>3d</fix>
</trkpt>
<trkpt lat="40.0713749" lon="-105.229789">
  <ele>1583.0</ele>
  <time>2026-08-28T17:49:23Z</time>
  <course>0.0</course>
  <speed>0.0</speed>
  <fix>3d</fix>
</trkpt>
<trkpt lat="40.0713748" lon="-105.229789">
  <ele>1583.0</ele>
  <time>2026-08-28T17:49:23Z</time>
  <course>246.04</course>
  <speed>0.02</speed>
  <fix>3d</fix>
</trkpt>
<trkpt lat="40.0713749" lon="-105.229789">
  <ele>1583.0</ele>
  <time>2026-08-28T17:49:23Z</time>
  <course>0.0</course>
  <speed>0.0</speed>
  <fix>3d</fix>
</trkpt>
<trkpt lat="40.0713748" lon="-105.229789">
  <ele>1583.0</ele>
  <time>2026-08-28T17:49:23Z</time>
  <course>246.04</course>
  <speed>0.02</speed>
  <fix>3d</fix>
</trkpt>
<trkpt lat="40.0713749" lon="-105.229789">
  <ele>1583.0</ele>
  <time>2026-08-28T17:49:23Z</time>
  <course>0.0</course>
  <speed>0.0</speed>
  <fix>3d</fix>
</trkpt>
<trkpt lat="40.0713748" lon="-105.229789">
  <ele>1582.99</ele>
  <time>2026-08-28T17:49:23Z</time>
  <course>246.04</course>
  <speed>0.02</speed>
  <fix>3d</fix>
</trkpt>
<trkpt lat="40.0713749" lon="-105.229789">
  <ele>1583.0</ele>
  <time>2026-08-28T17:49:23Z</time>
  <course>0.0</course>
  <speed>0.0</speed>
  <fix>3d</fix>
</trkpt>
<trkpt lat="40.0713748" lon="-105.229789">
  <ele>1582.99</ele>
  <time>2026-08-28T17:49:23Z</time>
  <course>246.03</course>
  <speed>0.02</speed>
  <fix>3d</fix>
</trkpt>
<trkpt lat="40.0713749" lon="-105.229789">
  <ele>1583.0</ele>
  <time>2026-08-28T17:49:23Z</time>
  <course>0.0</course>
  <speed>0.0</speed>
  <fix>3d</fix>
</trkpt>
<trkpt lat="40.0713748" lon="-105.229789">
  <ele>1582.98</ele>
  <time>2026-08-28T17:49:23Z</time>
  <course>246.03</course>
  <speed>0.02</speed>
  <fix>3d</fix>
</trkpt>
<trkpt lat="40.0713749" lon="-105.229789">
  <ele>1583.0</ele>
  <time>2026-08-28T17:49:23Z</time>
  <course>0.0</course>
  <speed>0.0</speed>
  <fix>3d</fix>
</trkpt>
<trkpt lat="40.0713748" lon="-105.229789">
  <ele>1582.98</ele>
  <time>2026-08-28T17:49:23Z</time>
  <course>246.03</course>
  <speed>0.02</speed>
  <fix>3d</fix>
</trkpt>
<trkpt lat="40.0713749" lon="-105.229789">
  <ele>1583.0</ele>
  <time>2026-08-28T17:49:23Z</time>
  <course>0.0</course>
  <speed>0.0</speed>
  <fix>3d</fix>
</trkpt>
<trkpt lat="40.0713748" lon="-105.229789">
  <ele>1582.97</ele>
  <time>2026-08-28T17:49:23Z</time>
  <course>246.03</course>
  <speed>0.02</speed>
  <fix>3d</fix>
</trkpt>
<trkpt lat="40.0713749" lon="-105.229789">
  <ele>1583.0</ele>
  <time>2026-08-28T17:49:23Z</time>
  <course>0.0</course>
  <speed>0.0</speed>
  <fix>3d</fix>
</trkpt>
<trkpt lat="40.0713748" lon="-105.229789">
  <ele>1582.97</ele>
  <time>2026-08-28T17:49:23Z</time>
  <course>246.02</course>
  <speed>0.02</speed>
  <fix>3d</fix>
</trkpt>
<trkpt lat="40.0713749" lon="-105.229789">
  <ele>1583.0</ele>
  <time>2026-08-28T17:49:23Z</time>
  <course>0.0</course>
  <speed>0.0</speed>
  <fix>3d</fix>
</trkpt>
<trkpt lat="40.0713748" lon="-105.229789">
  <ele>1582.96</ele>
  <time>2026-08-28T17:49:23Z</time>
  <course>246.02</course>
  <speed>0.02</speed>
  <fix>3d</fix>
</trkpt>
<trkpt lat="40.0713749" lon="-105.229789">
  <ele>1583.0</ele>
  <time>2026-08-28T17:49:23Z</time>
  <course>0.0</course>
  <speed>0.0</speed>
  <fix>3d</fix>
</trkpt>
<trkpt lat="40.0713748" lon="-105.229789">
  <ele>1582.96</ele>
  <time>2026-08-28T17:49:23Z</time>
  <course>246.02</course>
  <speed>0.02</speed>
  <fix>3d</fix>
</trkpt>
<trkpt lat="40.0713749" lon="-105.229789">
  <ele>1583.0</ele>
  <time>2026-08-28T17:49:23Z</time>
  <course>0.0</course>
  <speed>0.0</speed>
  <fix>3d</fix>
</trkpt>
<trkpt lat="40.0713748" lon="-105.229789">
  <ele>1582.96</ele>
  <time>2026-08-28T17:49:23Z</time>
  <course>246.02</course>
  <speed>0.02</speed>
  <fix>3d</fix>
</trkpt>
<trkpt lat="40.0713749" lon="-105.229789">
  <ele>1583.0</ele>
  <time>2026-08-28T17:49:23Z</time>
  <course>0.0</course>
  <speed>0.0</speed>
  <fix>3d</fix>
</trkpt>
<trkpt lat="40.0713748" lon="-105.229789">
  <ele>1582.95</ele>
  <time>2026-08-28T17:49:23Z</time>
  <course>246.01</course>
  <speed>0.02</speed>
  <fix>3d</fix>
</trkpt>
<trkpt lat="40.0713749" lon="-105.229789">
  <ele>1583.0</ele>
  <time>2026-08-28T17:49:23Z</time>
  <course>0.0</course>
  <speed>0.0</speed>
  <fix>3d</fix>
</trkpt>
<trkpt lat="40.0713748" lon="-105.229789">
  <ele>1582.95</ele>
  <time>2026-08-28T17:49:23Z</time>
  <course>246.01</course>
  <speed>0.02</speed>
  <fix>3d</fix>
</trkpt>
<trkpt lat="40.0713749" lon="-105.229789">
  <ele>1583.0</ele>
  <time>2026-08-28T17:49:23Z</time>
  <course>0.0</course>
  <speed>0.0</speed>
  <fix>3d</fix>
</trkpt>
<trkpt lat="40.0713748" lon="-105.229789">
  <ele>1582.94</ele>
  <time>2026-08-28T17:49:23Z</time>
  <course>246.01</course>
  <speed>0.02</speed>
  <fix>3d</fix>
</trkpt>
<trkpt lat="40.0713749" lon="-105.229789">
  <ele>1583.0</ele>
  <time>2026-08-28T17:49:23Z</time>
  <course>0.0</course>
  <speed>0.0</speed>
  <fix>3d</fix>
</trkpt>
<trkpt lat="40.0713748" lon="-105.229789">
  <ele>1582.94</ele>
  <time>2026-08-28T17:49:23Z</time>
  <course>246.0</course>
  <speed>0.02</speed>
  <fix>3d</fix>
</trkpt>
<trkpt lat="40.0713749" lon="-105.229789">
  <ele>1583.0</ele>
  <time>2026-08-28T17:49:23Z</time>
  <course>0.0</course>
  <speed>0.0</speed>
  <fix>3d</fix>
</trkpt>
<trkpt lat="40.0713748" lon="-105.229789">
  <ele>1582.94</ele>
  <time>2026-08-28T17:49:23Z</time>
  <course>246.0</course>
  <speed>0.02</speed>
  <fix>3d</fix>
</trkpt>
<trkpt lat="40.0713749" lon="-105.229789">
  <ele>1583.0</ele>
  <time>2026-08-28T17:49:23Z</time>
  <course>0.0</course>
  <speed>0.0</speed>
  <fix>3d</fix>
</trkpt>
<trkpt lat="40.0713748" lon="-105.229789">
  <ele>1582.94</ele>
  <time>2026-08-28T17:49:23Z</time>
  <course>246.0</course>
  <speed>0.02</speed>
  <fix>3d</fix>
</trkpt>
<trkpt lat="40.0713749" lon="-105.229789">
  <ele>1583.0</ele>
  <time>2026-08-28T17:49:23Z</time>
  <course>0.0</course>
  <speed>0.0</speed>
  <fix>3d</fix>
</trkpt>
<trkpt lat="40.0713748" lon="-105.229789">
  <ele>1582.94</ele>
  <time>2026-08-28T17:49:23Z</time>
  <course>246.0</course>
  <speed>0.02</speed>
  <fix>3d</fix>
</trkpt>
<trkpt lat="40.0713749" lon="-105.229789">
  <ele>1583.0</ele>
  <time>2026-08-28T17:49:23Z</time>
  <course>0.0</course>
  <speed>0.0</speed>
  <fix>3d</fix>
</trkpt>
<trkpt lat="40.0713748" lon="-105.229789">
  <ele>1582.94</ele>
  <time>2026-08-28T17:49:23Z</time>
  <course>245.99</course>
  <speed>0.02</speed>
  <fix>3d</fix>
</trkpt>
<trkpt lat="40.0713749" lon="-105.229789">
  <ele>1583.0</ele>
  <time>2026-08-28T17:49:23Z</time>
  <course>0.0</course>
  <speed>0.0</speed>
  <fix>3d</fix>
</trkpt>
<trkpt lat="40.0713748" lon="-105.229789">
  <ele>1582.95</ele>
  <time>2026-08-28T17:49:23Z</time>
  <course>245.99</course>
  <speed>0.02</speed>
  <fix>3d</fix>
</trkpt>
<trkpt lat="40.0713749" lon="-105.229789">
  <ele>1583.0</ele>
  <time>2026-08-28T17:49:23Z</time>
  <course>0.0</course>
  <speed>0.0</speed>
  <fix>3d</fix>
</trkpt>
<trkpt lat="40.0713748" lon="-105.229789">
  <ele>1582.95</ele>
  <time>2026-08-28T17:49:23Z</time>
  <course>245.99</course>
  <speed>0.02</speed>
  <fix>3d</fix>
</trkpt>
<trkpt lat="40.0713749" lon="-105.229789">
  <ele>1583.0</ele>
  <time>2026-08-28T17:49:23Z</time>
  <course>0.0</course>
  <speed>0.0</speed>
  <fix>3d</fix>
</trkpt>
<trkpt lat="40.0713748" lon="-105.229789">
  <ele>1582.95</ele>
  <time>2026-08-28T17:49:23Z</time>
  <course>245.99</course>
  <speed>0.02</speed>
  <fix>3d</fix>
</trkpt>
<trkpt lat="40.0713749" lon="-105.229789">
  <ele>1583.0</ele>
  <time>2026-08-28T17:49:23Z</time>
  <course>0.0</course>
  <speed>0.0</speed>
  <fix>3d</fix>
</trkpt>
<trkpt lat="40.0713748" lon="-105.229789">
  <ele>1582.95</ele>
  <time>2026-08-28T17:49:23Z</time>
  <course>245.98</course>
  <speed>0.02</speed>
  <fix>3d</fix>
</trkpt>
<trkpt lat="40.0713749" lon="-105.229789">
  <ele>1583.0</ele>
  <time>2026-08-28T17:49:23Z</time>
  <course>0.0</course>
  <speed>0.0</speed>
  <fix>3d</fix>
</trkpt>
<trkpt lat="40.0713748" lon="-105.229789">
  <ele>1582.95</ele>
  <time>2026-08-28T17:49:23Z</time>
  <course>245.98</course>
  <speed>0.02</speed>
  <fix>3d</fix>
</trkpt>
<trkpt lat="40.0713749" lon="-105.229789">
  <ele>1583.0</ele>
  <time>2026-08-28T17:49:23Z</time>
  <course>0.0</course>
  <speed>0.0</speed>
  <fix>3d</fix>
</trkpt>
<trkpt lat="40.0713748" lon="-105.229789">
  <ele>1582.95</ele>
  <time>2026-08-28T17:49:23Z</time>
  <course>245.98</course>
  <speed>0.02</speed>
  <fix>3d</fix>
</trkpt>
<trkpt lat="40.0713749" lon="-105.229789">
  <ele>1583.0</ele>
  <time>2026-08-28T17:49:23Z</time>
  <course>0.0</course>
  <speed>0.0</speed>
  <fix>3d</fix>
</trkpt>
<trkpt lat="40.0713748" lon="-105.229789">
  <ele>1582.96</ele>
  <time>2026-08-28T17:49:23Z</time>
  <course>245.98</course>
  <speed>0.02</speed>
  <fix>3d</fix>
</trkpt>
<trkpt lat="40.0713749" lon="-105.229789">
  <ele>1583.0</ele>
  <time>2026-08-28T17:49:23Z</time>
  <course>0.0</course>
  <speed>0.0</speed>
  <fix>3d</fix>
</trkpt>
<trkpt lat="40.0713748" lon="-105.229789">
  <ele>1582.96</ele>
  <time>2026-08-28T17:49:23Z</time>
  <course>245.97</course>
  <speed>0.02</speed>
  <fix>3d</fix>
</trkpt>
<trkpt lat="40.0713749" lon="-105.229789">
  <ele>1583.0</ele>
  <time>2026-08-28T17:49:23Z</time>
  <course>0.0</course>
  <speed>0.0</speed>
  <fix>3d</fix>
</trkpt>
<trkpt lat="40.0713748" lon="-105.229789">
  <ele>1582.96</ele>
  <time>2026-08-28T17:49:23Z</time>
  <course>245.97</course>
  <speed>0.02</speed>
  <fix>3d</fix>
</trkpt>
<trkpt lat="40.0713749" lon="-105.229789">
  <ele>1583.0</ele>
  <time>2026-08-28T17:49:23Z</time>
  <course>0.0</course>
  <speed>0.0</speed>
  <fix>3d</fix>
</trkpt>
<trkpt lat="40.0713748" lon="-105.229789">
  <ele>1582.96</ele>
  <time>2026-08-28T17:49:23Z</time>
  <course>245.97</course>
  <speed>0.02</speed>
  <fix>3d</fix>
</trkpt>
<trkpt lat="40.0713749" lon="-105.229789">
  <ele>1583.0</ele>
  <time>2026-08-28T17:49:23Z</time>
  <course>0.0</course>
  <speed>0.0</speed>
  <fix>3d</fix>
</trkpt>
<trkpt lat="40.0713748" lon="-105.229789">
  <ele>1582.96</ele>
  <time>2026-08-28T17:49:23Z</time>
  <course>245.97</course>
  <speed>0.02</speed>
  <fix>3d</fix>
</trkpt>
<trkpt lat="40.0713749" lon="-105.229789">
  <ele>1583.0</ele>
  <time>2026-08-28T17:49:23Z</time>
  <course>0.0</course>
  <speed>0.0</speed>
  <fix>3d</fix>
</trkpt>
<trkpt lat="40.0713748" lon="-105.229789">
  <ele>1582.95</ele>
  <time>2026-08-28T17:49:23Z</time>
  <course>245.96</course>
  <speed>0.02</speed>
  <fix>3d</fix>
</trkpt>
<trkpt lat="40.0713749" lon="-105.229789">
  <ele>1583.0</ele>
  <time>2026-08-28T17:49:23Z</time>
  <course>0.0</course>
  <speed>0.0</speed>
  <fix>3d</fix>
</trkpt>
<trkpt lat="40.0713748" lon="-105.229789">
  <ele>1582.95</ele>
  <time>2026-08-28T17:49:23Z</time>
  <course>245.96</course>
  <speed>0.02</speed>
  <fix>3d</fix>
</trkpt>
<trkpt lat="40.0713749" lon="-105.229789">
  <ele>1583.0</ele>
  <time>2026-08-28T17:49:23Z</time>
  <course>0.0</course>
  <speed>0.0</speed>
  <fix>3d</fix>
</trkpt>
<trkpt lat="40.0713748" lon="-105.229789">
  <ele>1582.95</ele>
  <time>2026-08-28T17:49:23Z</time>
  <course>245.96</course>
  <speed>0.02</speed>
  <fix>3d</fix>
</trkpt>
<trkpt lat="40.0713749" lon="-105.229789">
  <ele>1583.0</ele>
  <time>2026-08-28T17:49:23Z</time>
  <course>0.0</course>
  <speed>0.0</speed>
  <fix>3d</fix>
</trkpt>
<trkpt lat="40.0713748" lon="-105.229789">
  <ele>1582.94</ele>
  <time>2026-08-28T17:49:23Z</time>
  <course>245.96</course>
  <speed>0.02</speed>
  <fix>3d</fix>
</trkpt>
<trkpt lat="40.0713749" lon="-105.229789">
  <ele>1583.0</ele>
  <time>2026-08-28T17:49:23Z</time>
  <course>0.0</course>
  <speed>0.0</speed>
  <fix>3d</fix>
</trkpt>
<trkpt lat="40.0713748" lon="-105.229789">
  <ele>1582.94</ele>
  <time>2026-08-28T17:49:23Z</time>
  <course>245.95</course>
  <speed>0.02</speed>
  <fix>3d</fix>
</trkpt>
<trkpt lat="40.0713749" lon="-105.229789">
  <ele>1583.0</ele>
  <time>2026-08-28T17:49:23Z</time>
  <course>0.0</course>
  <speed>0.0</speed>
  <fix>3d</fix>
</trkpt>
<trkpt lat="40.0713748" lon="-105.229789">
  <ele>1582.94</ele>
  <time>2026-08-28T17:49:23Z</time>
  <course>245.95</course>
  <speed>0.02</speed>
  <fix>3d</fix>
</trkpt>
<trkpt lat="40.0713749" lon="-105.229789">
  <ele>1583.0</ele>
  <time>2026-08-28T17:49:23Z</time>
  <course>0.0</course>
  <speed>0.0</speed>
  <fix>3d</fix>
</trkpt>
<trkpt lat="40.0713748" lon="-105.229789">
  <ele>1582.94</ele>
  <time>2026-08-28T17:49:23Z</time>
  <course>245.95</course>
  <speed>0.02</speed>
  <fix>3d</fix>
</trkpt>
<trkpt lat="40.0713749" lon="-105.229789">
  <ele>1583.0</ele>
  <time>2026-08-28T17:49:23Z</time>
  <course>0.0</course>
  <speed>0.0</speed>
  <fix>3d</fix>
</trkpt>
<trkpt lat="40.0713748" lon="-105.229789">
  <ele>1582.94</ele>
  <time>2026-08-28T17:49:23Z</time>
  <course>245.95</course>
  <speed>0.02</speed>
  <fix>3d</fix>
</trkpt>
<trkpt lat="40.0713749" lon="-105.229789">
  <ele>1583.0</ele>
  <time>2026-08-28T17:49:23Z</time>
  <course>0.0</course>
  <speed>0.0</speed>
  <fix>3d</fix>
</trkpt>
<trkpt lat="40.0713748" lon="-105.229789">
  <ele>1582.94</ele>
  <time>2026-08-28T17:49:23Z</time>
  <course>245.94</course>
  <speed>0.02</speed>
  <fix>3d</fix>
</trkpt>
<trkpt lat="40.0713749" lon="-105.229789">
  <ele>1583.0</ele>
  <time>2026-08-28T17:49:23Z</time>
  <course>0.0</course>
  <speed>0.0</speed>
  <fix>3d</fix>
</trkpt>
<trkpt lat="40.0713748" lon="-105.229789">
  <ele>1582.94</ele>
  <time>2026-08-28T17:49:23Z</time>
  <course>245.94</course>
  <speed>0.02</speed>
  <fix>3d</fix>
</trkpt>
<trkpt lat="40.0713749" lon="-105.229789">
  <ele>1583.0</ele>
  <time>2026-08-28T17:49:23Z</time>
  <course>0.0</course>
  <speed>0.0</speed>
  <fix>3d</fix>
</trkpt>
<trkpt lat="40.0713748" lon="-105.229789">
  <ele>1582.94</ele>
  <time>2026-08-28T17:49:23Z</time>
  <course>245.94</course>
  <speed>0.02</speed>
  <fix>3d</fix>
</trkpt>
<trkpt lat="40.0713749" lon="-105.229789">
  <ele>1583.0</ele>
  <time>2026-08-28T17:49:23Z</time>
  <course>0.0</course>
  <speed>0.0</speed>
  <fix>3d</fix>
</trkpt>
<trkpt lat="40.0713748" lon="-105.229789">
  <ele>1582.93</ele>
  <time>2026-08-28T17:49:23Z</time>
  <course>245.94</course>
  <speed>0.02</speed>
  <fix>3d</fix>
</trkpt>
<trkpt lat="40.0713749" lon="-105.229789">
  <ele>1583.0</ele>
  <time>2026-08-28T17:49:23Z</time>
  <course>0.0</course>
  <speed>0.0</speed>
  <fix>3d</fix>
</trkpt>
<trkpt lat="40.0713748" lon="-105.229789">
  <ele>1582.92</ele>
  <time>2026-08-28T17:49:23Z</time>
  <course>245.93</course>
  <speed>0.02</speed>
  <fix>3d</fix>
</trkpt>
<trkpt lat="40.0713749" lon="-105.229789">
  <ele>1583.0</ele>
  <time>2026-08-28T17:49:23Z</time>
  <course>0.0</course>
  <speed>0.0</speed>
  <fix>3d</fix>
</trkpt>
<trkpt lat="40.0713748" lon="-105.229789">
  <ele>1582.92</ele>
  <time>2026-08-28T17:49:23Z</time>
  <course>245.93</course>
  <speed>0.02</speed>
  <fix>3d</fix>
</trkpt>
<trkpt lat="40.0713749" lon="-105.229789">
  <ele>1583.0</ele>
  <time>2026-08-28T17:49:23Z</time>
  <course>0.0</course>
  <speed>0.0</speed>
  <fix>3d</fix>
</trkpt>
<trkpt lat="40.0713748" lon="-105.229789">
  <ele>1582.92</ele>
  <time>2026-08-28T17:49:23Z</time>
  <course>245.93</course>
  <speed>0.02</speed>
  <fix>3d</fix>
</trkpt>
<trkpt lat="40.0713749" lon="-105.229789">
  <ele>1583.0</ele>
  <time>2026-08-28T17:49:23Z</time>
  <course>0.0</course>
  <speed>0.0</speed>
  <fix>3d</fix>
</trkpt>
<trkpt lat="40.0713748" lon="-105.229789">
  <ele>1582.91</ele>
  <time>2026-08-28T17:49:23Z</time>
  <course>245.93</course>
  <speed>0.02</speed>
  <fix>3d</fix>
</trkpt>
<trkpt lat="40.0713749" lon="-105.229789">
  <ele>1583.0</ele>
  <time>2026-08-28T17:49:23Z</time>
  <course>0.0</course>
  <speed>0.0</speed>
  <fix>3d</fix>
</trkpt>
<trkpt lat="40.0713748" lon="-105.229789">
  <ele>1582.91</ele>
  <time>2026-08-28T17:49:23Z</time>
  <course>245.92</course>
  <speed>0.02</speed>
  <fix>3d</fix>
</trkpt>
<trkpt lat="40.0713749" lon="-105.229789">
  <ele>1583.0</ele>
  <time>2026-08-28T17:49:23Z</time>
  <course>0.0</course>
  <speed>0.0</speed>
  <fix>3d</fix>
</trkpt>
<trkpt lat="40.0713748" lon="-105.229789">
  <ele>1582.91</ele>
  <time>2026-08-28T17:49:23Z</time>
  <course>245.92</course>
  <speed>0.02</speed>
  <fix>3d</fix>
</trkpt>
<trkpt lat="40.0713749" lon="-105.229789">
  <ele>1583.0</ele>
  <time>2026-08-28T17:49:23Z</time>
  <course>0.0</course>
  <speed>0.0</speed>
  <fix>3d</fix>
</trkpt>
<trkpt lat="40.0713748" lon="-105.229789">
  <ele>1582.91</ele>
  <time>2026-08-28T17:49:23Z</time>
  <course>245.92</course>
  <speed>0.02</speed>
  <fix>3d</fix>
</trkpt>
<trkpt lat="40.0713749" lon="-105.229789">
  <ele>1583.0</ele>
  <time>2026-08-28T17:49:23Z</time>
  <course>0.0</course>
  <speed>0.0</speed>
  <fix>3d</fix>
</trkpt>
<trkpt lat="40.0713748" lon="-105.229789">
  <ele>1582.91</ele>
  <time>2026-08-28T17:49:23Z</time>
  <course>245.91</course>
  <speed>0.02</speed>
  <fix>3d</fix>
</trkpt>
<trkpt lat="40.0713749" lon="-105.229789">
  <ele>1583.0</ele>
  <time>2026-08-28T17:49:23Z</time>
  <course>0.0</course>
  <speed>0.0</speed>
  <fix>3d</fix>
</trkpt>
<trkpt lat="40.0713748" lon="-105.229789">
  <ele>1582.91</ele>
  <time>2026-08-28T17:49:23Z</time>
  <course>245.91</course>
  <speed>0.02</speed>
  <fix>3d</fix>
</trkpt>
<trkpt lat="40.0713749" lon="-105.229789">
  <ele>1583.0</ele>
  <time>2026-08-28T17:49:23Z</time>
  <course>0.0</course>
  <speed>0.0</speed>
  <fix>3d</fix>
</trkpt>
<trkpt lat="40.0713748" lon="-105.229789">
  <ele>1582.91</ele>
  <time>2026-08-28T17:49:23Z</time>
  <course>245.91</course>
  <speed>0.02</speed>
  <fix>3d</fix>
</trkpt>
<trkpt lat="40.0713749" lon="-105.229789">
  <ele>1583.0</ele>
  <time>2026-08-28T17:49:23Z</time>
  <course>0.0</course>
  <speed>0.0</speed>
  <fix>3d</fix>
</trkpt>
<trkpt lat="40.0713748" lon="-105.229789">
  <ele>1582.91</ele>
  <time>2026-08-28T17:49:23Z</time>
  <course>245.91</course>
  <speed>0.02</speed>
  <fix>3d</fix>
</trkpt>
<trkpt lat="40.0713749" lon="-105.229789">
  <ele>1583.0</ele>
  <time>2026-08-28T17:49:23Z</time>
  <course>0.0</course>
  <speed>0.0</speed>
  <fix>3d</fix>
</trkpt>
<trkpt lat="40.0713748" lon="-105.229789">
  <ele>1582.91</ele>
  <time>2026-08-28T17:49:23Z</time>
  <course>245.9</course>
  <speed>0.02</speed>
  <fix>3d</fix>
</trkpt>
<trkpt lat="40.0713749" lon="-105.229789">
  <ele>1583.0</ele>
  <time>2026-08-28T17:49:23Z</time>
  <course>0.0</course>
  <speed>0.0</speed>
  <fix>3d</fix>
</trkpt>
<trkpt lat="40.0713748" lon="-105.229789">
  <ele>1582.91</ele>
  <time>2026-08-28T17:49:23Z</time>
  <course>245.9</course>
  <speed>0.02</speed>
  <fix>3d</fix>
</trkpt>
<trkpt lat="40.0713749" lon="-105.229789">
  <ele>1583.0</ele>
  <time>2026-08-28T17:49:23Z</time>
  <course>0.0</course>
  <speed>0.0</speed>
  <fix>3d</fix>
</trkpt>
<trkpt lat="40.0713748" lon="-105.229789">
  <ele>1582.92</ele>
  <time>2026-08-28T17:49:23Z</time>
  <course>245.9</course>
  <speed>0.02</speed>
  <fix>3d</fix>
</trkpt>
<trkpt lat="40.0713749" lon="-105.229789">
  <ele>1583.0</ele>
  <time>2026-08-28T17:49:23Z</time>
  <course>0.0</course>
  <speed>0.0</speed>
  <fix>3d</fix>
</trkpt>
<trkpt lat="40.0713748" lon="-105.229789">
  <ele>1582.92</ele>
  <time>2026-08-28T17:49:23Z</time>
  <course>245.9</course>
  <speed>0.02</speed>
  <fix>3d</fix>
</trkpt>
<trkpt lat="40.0713749" lon="-105.229789">
  <ele>1583.0</ele>
  <time>2026-08-28T17:49:23Z</time>
  <course>0.0</course>
  <speed>0.0</speed>
  <fix>3d</fix>
</trkpt>
<trkpt lat="40.0713748" lon="-105.229789">
  <ele>1582.92</ele>
  <time>2026-08-28T17:49:23Z</time>
  <course>245.89</course>
  <speed>0.02</speed>
  <fix>3d</fix>
</trkpt>
<trkpt lat="40.0713749" lon="-105.229789">
  <ele>1583.0</ele>
  <time>2026-08-28T17:49:23Z</time>
  <course>0.0</course>
  <speed>0.0</speed>
  <fix>3d</fix>
</trkpt>
<trkpt lat="40.0713748" lon="-105.229789">
  <ele>1582.92</ele>
  <time>2026-08-28T17:49:23Z</time>
  <course>245.89</course>
  <speed>0.02</speed>
  <fix>3d</fix>
</trkpt>
<trkpt lat="40.0713749" lon="-105.229789">
  <ele>1583.0</ele>
  <time>2026-08-28T17:49:23Z</time>
  <course>0.0</course>
  <speed>0.0</speed>
  <fix>3d</fix>
</trkpt>
<trkpt lat="40.0713748" lon="-105.229789">
  <ele>1582.91</ele>
  <time>2026-08-28T17:49:23Z</time>
  <course>245.89</course>
  <speed>0.02</speed>
  <fix>3d</fix>
</trkpt>
<trkpt lat="40.0713749" lon="-105.229789">
  <ele>1583.0</ele>
  <time>2026-08-28T17:49:23Z</time>
  <course>0.0</course>
  <speed>0.0</speed>
  <fix>3d</fix>
</trkpt>
<trkpt lat="40.0713748" lon="-105.229789">
  <ele>1582.91</ele>
  <time>2026-08-28T17:49:23Z</time>
  <course>245.89</course>
  <speed>0.02</speed>
  <fix>3d</fix>
</trkpt>
<trkpt lat="40.0713749" lon="-105.229789">
  <ele>1583.0</ele>
  <time>2026-08-28T17:49:23Z</time>
  <course>0.0</course>
  <speed>0.0</speed>
  <fix>3d</fix>
</trkpt>
<trkpt lat="40.0713748" lon="-105.229789">
  <ele>1582.91</ele>
  <time>2026-08-28T17:49:23Z</time>
  <course>245.89</course>
  <speed>0.02</speed>
  <fix>3d</fix>
</trkpt>
<trkpt lat="40.0713749" lon="-105.229789">
  <ele>1583.0</ele>
  <time>2026-08-28T17:49:23Z</time>
  <course>0.0</course>
  <speed>0.0</speed>
  <fix>3d</fix>
</trkpt>
<trkpt lat="40.0713748" lon="-105.229789">
  <ele>1582.91</ele>
  <time>2026-08-28T17:49:23Z</time>
  <course>245.88</course>
  <speed>0.02</speed>
  <fix>3d</fix>
</trkpt>
<trkpt lat="40.0713749" lon="-105.229789">
  <ele>1583.0</ele>
  <time>2026-08-28T17:49:23Z</time>
  <course>0.0</course>
  <speed>0.0</speed>
  <fix>3d</fix>
</trkpt>
<trkpt lat="40.0713748" lon="-105.229789">
  <ele>1582.91</ele>
  <time>2026-08-28T17:49:23Z</time>
  <course>245.88</course>
  <speed>0.02</speed>
  <fix>3d</fix>
</trkpt>
<trkpt lat="40.0713749" lon="-105.229789">
  <ele>1583.0</ele>
  <time>2026-08-28T17:49:23Z</time>
  <course>0.0</course>
  <speed>0.0</speed>
  <fix>3d</fix>
</trkpt>
<trkpt lat="40.0713748" lon="-105.229789">
  <ele>1582.91</ele>
  <time>2026-08-28T17:49:23Z</time>
  <course>245.88</course>
  <speed>0.02</speed>
  <fix>3d</fix>
</trkpt>
<trkpt lat="40.0713749" lon="-105.229789">
  <ele>1583.0</ele>
  <time>2026-08-28T17:49:23Z</time>
  <course>0.0</course>
  <speed>0.0</speed>
  <fix>3d</fix>
</trkpt>
<trkpt lat="40.0713748" lon="-105.229789">
  <ele>1582.91</ele>
  <time>2026-08-28T17:49:23Z</time>
  <course>245.88</course>
  <speed>0.02</speed>
  <fix>3d</fix>
</trkpt>
<trkpt lat="40.0713749" lon="-105.229789">
  <ele>1583.0</ele>
  <time>2026-08-28T17:49:23Z</time>
  <course>0.0</course>
  <speed>0.0</speed>
  <fix>3d</fix>
</trkpt>
<trkpt lat="40.0713748" lon="-105.229789">
  <ele>1582.91</ele>
  <time>2026-08-28T17:49:23Z</time>
  <course>245.87</course>
  <speed>0.02</speed>
  <fix>3d</fix>
</trkpt>
<trkpt lat="40.0713749" lon="-105.229789">
  <ele>1583.0</ele>
  <time>2026-08-28T17:49:23Z</time>
  <course>0.0</course>
  <speed>0.0</speed>
  <fix>3d</fix>
</trkpt>
<trkpt lat="40.0713748" lon="-105.229789">
  <ele>1582.91</ele>
  <time>2026-08-28T17:49:23Z</time>
  <course>245.87</course>
  <speed>0.02</speed>
  <fix>3d</fix>
</trkpt>
<trkpt lat="40.0713749" lon="-105.229789">
  <ele>1583.0</ele>
  <time>2026-08-28T17:49:23Z</time>
  <course>0.0</course>
  <speed>0.0</speed>
  <fix>3d</fix>
</trkpt>
<trkpt lat="40.0713748" lon="-105.229789">
  <ele>1582.91</ele>
  <time>2026-08-28T17:49:23Z</time>
  <course>245.87</course>
  <speed>0.02</speed>
  <fix>3d</fix>
</trkpt>
<trkpt lat="40.0713749" lon="-105.229789">
  <ele>1583.0</ele>
  <time>2026-08-28T17:49:23Z</time>
  <course>0.0</course>
  <speed>0.0</speed>
  <fix>3d</fix>
</trkpt>
<trkpt lat="40.0713748" lon="-105.229789">
  <ele>1582.91</ele>
  <time>2026-08-28T17:49:23Z</time>
  <course>245.87</course>
  <speed>0.02</speed>
  <fix>3d</fix>
</trkpt>
<trkpt lat="40.0713749" lon="-105.229789">
  <ele>1583.0</ele>
  <time>2026-08-28T17:49:23Z</time>
  <course>0.0</course>
  <speed>0.0</speed>
  <fix>3d</fix>
</trkpt>
<trkpt lat="40.0713748" lon="-105.229789">
  <ele>1582.91</ele>
  <time>2026-08-28T17:49:23Z</time>
  <course>245.86</course>
  <speed>0.02</speed>
  <fix>3d</fix>
</trkpt>
<trkpt lat="40.0713749" lon="-105.229789">
  <ele>1583.0</ele>
  <time>2026-08-28T17:49:23Z</time>
  <course>0.0</course>
  <speed>0.0</speed>
  <fix>3d</fix>
</trkpt>
<trkpt lat="40.0713748" lon="-105.229789">
  <ele>1582.91</ele>
  <time>2026-08-28T17:49:23Z</time>
  <course>245.86</course>
  <speed>0.02</speed>
  <fix>3d</fix>
</trkpt>
<trkpt lat="40.0713749" lon="-105.229789">
  <ele>1583.0</ele>
  <time>2026-08-28T17:49:23Z</time>
  <course>0.0</course>
  <speed>0.0</speed>
  <fix>3d</fix>
</trkpt>
<trkpt lat="40.0713748" lon="-105.229789">
  <ele>1582.92</ele>
  <time>2026-08-28T17:49:23Z</time>
  <course>245.86</course>
  <speed>0.02</speed>
  <fix>3d</fix>
</trkpt>
<trkpt lat="40.0713749" lon="-105.229789">
  <ele>1583.0</ele>
  <time>2026-08-28T17:49:23Z</time>
  <course>0.0</course>
  <speed>0.0</speed>
  <fix>3d</fix>
</trkpt>
<trkpt lat="40.0713748" lon="-105.229789">
  <ele>1582.92</ele>
  <time>2026-08-28T17:49:23Z</time>
  <course>245.86</course>
  <speed>0.02</speed>
  <fix>3d</fix>
</trkpt>
<trkpt lat="40.0713749" lon="-105.229789">
  <ele>1583.0</ele>
  <time>2026-08-28T17:49:23Z</time>
  <course>0.0</course>
  <speed>0.0</speed>
  <fix>3d</fix>
</trkpt>
<trkpt lat="40.0713748" lon="-105.229789">
  <ele>1582.92</ele>
  <time>2026-08-28T17:49:23Z</time>
  <course>245.85</course>
  <speed>0.02</speed>
  <fix>3d</fix>
</trkpt>
<trkpt lat="40.0713749" lon="-105.229789">
  <ele>1583.0</ele>
  <time>2026-08-28T17:49:23Z</time>
  <course>0.0</course>
  <speed>0.0</speed>
  <fix>3d</fix>
</trkpt>
<trkpt lat="40.0713748" lon="-105.229789">
  <ele>1582.93</ele>
  <time>2026-08-28T17:49:23Z</time>
  <course>245.85</course>
  <speed>0.02</speed>
  <fix>3d</fix>
</trkpt>
<trkpt lat="40.0713749" lon="-105.229789">
  <ele>1583.0</ele>
  <time>2026-08-28T17:49:23Z</time>
  <course>0.0</course>
  <speed>0.0</speed>
  <fix>3d</fix>
</trkpt>
<trkpt lat="40.0713748" lon="-105.229789">
  <ele>1582.93</ele>
  <time>2026-08-28T17:49:23Z</time>
  <course>245.85</course>
  <speed>0.02</speed>
  <fix>3d</fix>
</trkpt>
<trkpt lat="40.0713749" lon="-105.229789">
  <ele>1583.0</ele>
  <time>2026-08-28T17:49:23Z</time>
  <course>0.0</course>
  <speed>0.0</speed>
  <fix>3d</fix>
</trkpt>
<trkpt lat="40.0713748" lon="-105.229789">
  <ele>1582.93</ele>
  <time>2026-08-28T17:49:23Z</time>
  <course>245.85</course>
  <speed>0.02</speed>
  <fix>3d</fix>
</trkpt>
<trkpt lat="40.0713749" lon="-105.229789">
  <ele>1583.0</ele>
  <time>2026-08-28T17:49:23Z</time>
  <course>0.0</course>
  <speed>0.0</speed>
  <fix>3d</fix>
</trkpt>
<trkpt lat="40.0713748" lon="-105.229789">
  <ele>1582.93</ele>
  <time>2026-08-28T17:49:23Z</time>
  <course>245.84</course>
  <speed>0.02</speed>
  <fix>3d</fix>
</trkpt>
<trkpt lat="40.0713749" lon="-105.229789">
  <ele>1583.0</ele>
  <time>2026-08-28T17:49:23Z</time>
  <course>0.0</course>
  <speed>0.0</speed>
  <fix>3d</fix>
</trkpt>
<trkpt lat="40.0713748" lon="-105.229789">
  <ele>1582.92</ele>
  <time>2026-08-28T17:49:23Z</time>
  <course>245.84</course>
  <speed>0.02</speed>
  <fix>3d</fix>
</trkpt>
<trkpt lat="40.0713749" lon="-105.229789">
  <ele>1583.0</ele>
  <time>2026-08-28T17:49:23Z</time>
  <course>0.0</course>
  <speed>0.0</speed>
  <fix>3d</fix>
</trkpt>
<trkpt lat="40.0713748" lon="-105.229789">
  <ele>1582.92</ele>
  <time>2026-08-28T17:49:23Z</time>
  <course>245.84</course>
  <speed>0.02</speed>
  <fix>3d</fix>
</trkpt>
<trkpt lat="40.0713749" lon="-105.229789">
  <ele>1583.0</ele>
  <time>2026-08-28T17:49:23Z</time>
  <course>0.0</course>
  <speed>0.0</speed>
  <fix>3d</fix>
</trkpt>
<trkpt lat="40.0713748" lon="-105.229789">
  <ele>1582.91</ele>
  <time>2026-08-28T17:49:23Z</time>
  <course>245.84</course>
  <speed>0.02</speed>
  <fix>3d</fix>
</trkpt>
<trkpt lat="40.0713749" lon="-105.229789">
  <ele>1583.0</ele>
  <time>2026-08-28T17:49:23Z</time>
  <course>0.0</course>
  <speed>0.0</speed>
  <fix>3d</fix>
</trkpt>
<trkpt lat="40.0713748" lon="-105.229789">
  <ele>1582.91</ele>
  <time>2026-08-28T17:49:23Z</time>
  <course>245.83</course>
  <speed>0.02</speed>
  <fix>3d</fix>
</trkpt>
<trkpt lat="40.0713749" lon="-105.229789">
  <ele>1583.0</ele>
  <time>2026-08-28T17:49:23Z</time>
  <course>0.0</course>
  <speed>0.0</speed>
  <fix>3d</fix>
</trkpt>
<trkpt lat="40.0713748" lon="-105.229789">
  <ele>1582.91</ele>
  <time>2026-08-28T17:49:23Z</time>
  <course>245.83</course>
  <speed>0.02</speed>
  <fix>3d</fix>
</trkpt>
<trkpt lat="40.0713749" lon="-105.229789">
  <ele>1583.0</ele>
  <time>2026-08-28T17:49:23Z</time>
  <course>0.0</course>
  <speed>0.0</speed>
  <fix>3d</fix>
</trkpt>
<trkpt lat="40.0713748" lon="-105.229789">
  <ele>1582.9</ele>
  <time>2026-08-28T17:49:23Z</time>
  <course>245.83</course>
  <speed>0.02</speed>
  <fix>3d</fix>
</trkpt>
<trkpt lat="40.0713749" lon="-105.229789">
  <ele>1583.0</ele>
  <time>2026-08-28T17:49:23Z</time>
  <course>0.0</course>
  <speed>0.0</speed>
  <fix>3d</fix>
</trkpt>
<trkpt lat="40.0713748" lon="-105.229789">
  <ele>1582.9</ele>
  <time>2026-08-28T17:49:23Z</time>
  <course>245.83</course>
  <speed>0.02</speed>
  <fix>3d</fix>
</trkpt>
<trkpt lat="40.0713749" lon="-105.229789">
  <ele>1583.0</ele>
  <time>2026-08-28T17:49:23Z</time>
  <course>0.0</course>
  <speed>0.0</speed>
  <fix>3d</fix>
</trkpt>
<trkpt lat="40.0713748" lon="-105.229789">
  <ele>1582.9</ele>
  <time>2026-08-28T17:49:23Z</time>
  <course>245.82</course>
  <speed>0.02</speed>
  <fix>3d</fix>
</trkpt>
<trkpt lat="40.0713749" lon="-105.229789">
  <ele>1583.0</ele>
  <time>2026-08-28T17:49:23Z</time>
  <course>0.0</course>
  <speed>0.0</speed>
  <fix>3d</fix>
</trkpt>
<trkpt lat="40.0713748" lon="-105.229789">
  <ele>1582.9</ele>
  <time>2026-08-28T17:49:23Z</time>
  <course>245.82</course>
  <speed>0.02</speed>
  <fix>3d</fix>
</trkpt>
<trkpt lat="40.0713749" lon="-105.229789">
  <ele>1583.0</ele>
  <time>2026-08-28T17:49:23Z</time>
  <course>0.0</course>
  <speed>0.0</speed>
  <fix>3d</fix>
</trkpt>
<trkpt lat="40.0713748" lon="-105.229789">
  <ele>1582.91</ele>
  <time>2026-08-28T17:49:23Z</time>
  <course>245.82</course>
  <speed>0.02</speed>
  <fix>3d</fix>
</trkpt>
<trkpt lat="40.0713749" lon="-105.229789">
  <ele>1583.0</ele>
  <time>2026-08-28T17:49:23Z</time>
  <course>0.0</course>
  <speed>0.0</speed>
  <fix>3d</fix>
</trkpt>
<trkpt lat="40.0713748" lon="-105.229789">
  <ele>1582.91</ele>
  <time>2026-08-28T17:49:23Z</time>
  <course>245.82</course>
  <speed>0.02</speed>
  <fix>3d</fix>
</trkpt>
<trkpt lat="40.0713749" lon="-105.229789">
  <ele>1583.0</ele>
  <time>2026-08-28T17:49:23Z</time>
  <course>0.0</course>
  <speed>0.0</speed>
  <fix>3d</fix>
</trkpt>
<trkpt lat="40.0713748" lon="-105.229789">
  <ele>1582.92</ele>
  <time>2026-08-28T17:49:23Z</time>
  <course>245.82</course>
  <speed>0.02</speed>
  <fix>3d</fix>
</trkpt>
<trkpt lat="40.0713749" lon="-105.229789">
  <ele>1583.0</ele>
  <time>2026-08-28T17:49:23Z</time>
  <course>0.0</course>
  <speed>0.0</speed>
  <fix>3d</fix>
</trkpt>
<trkpt lat="40.0713748" lon="-105.229789">
  <ele>1582.93</ele>
  <time>2026-08-28T17:49:23Z</time>
  <course>245.81</course>
  <speed>0.02</speed>
  <fix>3d</fix>
</trkpt>
<trkpt lat="40.0713749" lon="-105.229789">
  <ele>1583.0</ele>
  <time>2026-08-28T17:49:23Z</time>
  <course>0.0</course>
  <speed>0.0</speed>
  <fix>3d</fix>
</trkpt>
<trkpt lat="40.0713748" lon="-105.229789">
  <ele>1582.93</ele>
  <time>2026-08-28T17:49:23Z</time>
  <course>245.81</course>
  <speed>0.02</speed>
  <fix>3d</fix>
</trkpt>
<trkpt lat="40.0713749" lon="-105.229789">
  <ele>1583.0</ele>
  <time>2026-08-28T17:49:23Z</time>
  <course>0.0</course>
  <speed>0.0</speed>
  <fix>3d</fix>
</trkpt>
<trkpt lat="40.0713748" lon="-105.229789">
  <ele>1582.93</ele>
  <time>2026-08-28T17:49:23Z</time>
  <course>245.81</course>
  <speed>0.02</speed>
  <fix>3d</fix>
</trkpt>
<trkpt lat="40.0713749" lon="-105.229789">
  <ele>1583.0</ele>
  <time>2026-08-28T17:49:23Z</time>
  <course>0.0</course>
  <speed>0.0</speed>
  <fix>3d</fix>
</trkpt>
<trkpt lat="40.0713748" lon="-105.229789">
  <ele>1582.94</ele>
  <time>2026-08-28T17:49:23Z</time>
  <course>245.81</course>
  <speed>0.02</speed>
  <fix>3d</fix>
</trkpt>
<trkpt lat="40.0713749" lon="-105.229789">
  <ele>1583.0</ele>
  <time>2026-08-28T17:49:23Z</time>
  <course>0.0</course>
  <speed>0.0</speed>
  <fix>3d</fix>
</trkpt>
<trkpt lat="40.0713748" lon="-105.229789">
  <ele>1582.94</ele>
  <time>2026-08-28T17:49:23Z</time>
  <course>245.8</course>
  <speed>0.02</speed>
  <fix>3d</fix>
</trkpt>
<trkpt lat="40.0713749" lon="-105.229789">
  <ele>1583.0</ele>
  <time>2026-08-28T17:49:23Z</time>
  <course>0.0</course>
  <speed>0.0</speed>
  <fix>3d</fix>
</trkpt>
<trkpt lat="40.0713748" lon="-105.229789">
  <ele>1582.95</ele>
  <time>2026-08-28T17:49:23Z</time>
  <course>245.8</course>
  <speed>0.02</speed>
  <fix>3d</fix>
</trkpt>
<trkpt lat="40.0713749" lon="-105.229789">
  <ele>1583.0</ele>
  <time>2026-08-28T17:49:23Z</time>
  <course>0.0</course>
  <speed>0.0</speed>
  <fix>3d</fix>
</trkpt>
<trkpt lat="40.0713748" lon="-105.229789">
  <ele>1582.95</ele>
  <time>2026-08-28T17:49:23Z</time>
  <course>245.8</course>
  <speed>0.02</speed>
  <fix>3d</fix>
</trkpt>
<trkpt lat="40.0713749" lon="-105.229789">
  <ele>1583.0</ele>
  <time>2026-08-28T17:49:23Z</time>
  <course>0.0</course>
  <speed>0.0</speed>
  <fix>3d</fix>
</trkpt>
<trkpt lat="40.0713748" lon="-105.229789">
  <ele>1582.96</ele>
  <time>2026-08-28T17:49:23Z</time>
  <course>245.8</course>
  <speed>0.02</speed>
  <fix>3d</fix>
</trkpt>
<trkpt lat="40.0713749" lon="-105.229789">
  <ele>1583.0</ele>
  <time>2026-08-28T17:49:23Z</time>
  <course>0.0</course>
  <speed>0.0</speed>
  <fix>3d</fix>
</trkpt>
<trkpt lat="40.0713748" lon="-105.229789">
  <ele>1582.97</ele>
  <time>2026-08-28T17:49:23Z</time>
  <course>245.79</course>
  <speed>0.02</speed>
  <fix>3d</fix>
</trkpt>
<trkpt lat="40.0713749" lon="-105.229789">
  <ele>1583.0</ele>
  <time>2026-08-28T17:49:23Z</time>
  <course>0.0</course>
  <speed>0.0</speed>
  <fix>3d</fix>
</trkpt>
<trkpt lat="40.0713748" lon="-105.229789">
  <ele>1582.98</ele>
  <time>2026-08-28T17:49:23Z</time>
  <course>245.79</course>
  <speed>0.02</speed>
  <fix>3d</fix>
</trkpt>
<trkpt lat="40.0713749" lon="-105.229789">
  <ele>1583.0</ele>
  <time>2026-08-28T17:49:23Z</time>
  <course>0.0</course>
  <speed>0.0</speed>
  <fix>3d</fix>
</trkpt>
<trkpt lat="40.0713748" lon="-105.229789">
  <ele>1582.98</ele>
  <time>2026-08-28T17:49:23Z</time>
  <course>245.79</course>
  <speed>0.02</speed>
  <fix>3d</fix>
</trkpt>
<trkpt lat="40.0713749" lon="-105.229789">
  <ele>1583.0</ele>
  <time>2026-08-28T17:49:23Z</time>
  <course>0.0</course>
  <speed>0.0</speed>
  <fix>3d</fix>
</trkpt>
<trkpt lat="40.0713748" lon="-105.229789">
  <ele>1582.99</ele>
  <time>2026-08-28T17:49:23Z</time>
  <course>245.79</course>
  <speed>0.02</speed>
  <fix>3d</fix>
</trkpt>
<trkpt lat="40.0713749" lon="-105.229789">
  <ele>1583.0</ele>
  <time>2026-08-28T17:49:23Z</time>
  <course>0.0</course>
  <speed>0.0</speed>
  <fix>3d</fix>
</trkpt>
<trkpt lat="40.0713748" lon="-105.229789">
  <ele>1582.99</ele>
  <time>2026-08-28T17:49:23Z</time>
  <course>245.79</course>
  <speed>0.02</speed>
  <fix>3d</fix>
</trkpt>
<trkpt lat="40.0713749" lon="-105.229789">
  <ele>1583.0</ele>
  <time>2026-08-28T17:49:23Z</time>
  <course>0.0</course>
  <speed>0.0</speed>
  <fix>3d</fix>
</trkpt>
<trkpt lat="40.0713748" lon="-105.229789">
  <ele>1583.0</ele>
  <time>2026-08-28T17:49:23Z</time>
  <course>245.78</course>
  <speed>0.02</speed>
  <fix>3d</fix>
</trkpt>
<trkpt lat="40.0713749" lon="-105.229789">
  <ele>1583.0</ele>
  <time>2026-08-28T17:49:23Z</time>
  <course>0.0</course>
  <speed>0.0</speed>
  <fix>3d</fix>
</trkpt>
<trkpt lat="40.0713748" lon="-105.229789">
  <ele>1583.0</ele>
  <time>2026-08-28T17:49:23Z</time>
  <course>245.78</course>
  <speed>0.02</speed>
  <fix>3d</fix>
</trkpt>
<trkpt lat="40.0713749" lon="-105.229789">
  <ele>1583.0</ele>
  <time>2026-08-28T17:49:23Z</time>
  <course>0.0</course>
  <speed>0.0</speed>
  <fix>3d</fix>
</trkpt>
<trkpt lat="40.0713748" lon="-105.229789">
  <ele>1583.01</ele>
  <time>2026-08-28T17:49:23Z</time>
  <course>245.78</course>
  <speed>0.02</speed>
  <fix>3d</fix>
</trkpt>
<trkpt lat="40.0713749" lon="-105.229789">
  <ele>1583.0</ele>
  <time>2026-08-28T17:49:23Z</time>
  <course>0.0</course>
  <speed>0.0</speed>
  <fix>3d</fix>
</trkpt>
<trkpt lat="40.0713748" lon="-105.229789">
  <ele>1583.01</ele>
  <time>2026-08-28T17:49:23Z</time>
  <course>245.78</course>
  <speed>0.02</speed>
  <fix>3d</fix>
</trkpt>
<trkpt lat="40.0713749" lon="-105.229789">
  <ele>1583.0</ele>
  <time>2026-08-28T17:49:23Z</time>
  <course>0.0</course>
  <speed>0.0</speed>
  <fix>3d</fix>
</trkpt>
<trkpt lat="40.0713748" lon="-105.229789">
  <ele>1583.01</ele>
  <time>2026-08-28T17:49:23Z</time>
  <course>245.77</course>
  <speed>0.02</speed>
  <fix>3d</fix>
</trkpt>
<trkpt lat="40.0713749" lon="-105.229789">
  <ele>1583.0</ele>
  <time>2026-08-28T17:49:23Z</time>
  <course>0.0</course>
  <speed>0.0</speed>
  <fix>3d</fix>
</trkpt>
<trkpt lat="40.0713748" lon="-105.229789">
  <ele>1583.02</ele>
  <time>2026-08-28T17:49:23Z</time>
  <course>245.77</course>
  <speed>0.02</speed>
  <fix>3d</fix>
</trkpt>
<trkpt lat="40.0713749" lon="-105.229789">
  <ele>1583.0</ele>
  <time>2026-08-28T17:49:23Z</time>
  <course>0.0</course>
  <speed>0.0</speed>
  <fix>3d</fix>
</trkpt>
<trkpt lat="40.0713748" lon="-105.229789">
  <ele>1583.02</ele>
  <time>2026-08-28T17:49:23Z</time>
  <course>245.77</course>
  <speed>0.02</speed>
  <fix>3d</fix>
</trkpt>
<trkpt lat="40.0713749" lon="-105.229789">
  <ele>1583.0</ele>
  <time>2026-08-28T17:49:23Z</time>
  <course>0.0</course>
  <speed>0.0</speed>
  <fix>3d</fix>
</trkpt>
<trkpt lat="40.0713748" lon="-105.229789">
  <ele>1583.03</ele>
  <time>2026-08-28T17:49:23Z</time>
  <course>245.77</course>
  <speed>0.02</speed>
  <fix>3d</fix>
</trkpt>
<trkpt lat="40.0713749" lon="-105.229789">
  <ele>1583.0</ele>
  <time>2026-08-28T17:49:23Z</time>
  <course>0.0</course>
  <speed>0.0</speed>
  <fix>3d</fix>
</trkpt>
<trkpt lat="40.0713748" lon="-105.229789">
  <ele>1583.04</ele>
  <time>2026-08-28T17:49:23Z</time>
  <course>245.76</course>
  <speed>0.02</speed>
  <fix>3d</fix>
</trkpt>
<trkpt lat="40.0713749" lon="-105.229789">
  <ele>1583.0</ele>
  <time>2026-08-28T17:49:23Z</time>
  <course>0.0</course>
  <speed>0.0</speed>
  <fix>3d</fix>
</trkpt>
<trkpt lat="40.0713748" lon="-105.229789">
  <ele>1583.04</ele>
  <time>2026-08-28T17:49:23Z</time>
  <course>245.76</course>
  <speed>0.02</speed>
  <fix>3d</fix>
</trkpt>
<trkpt lat="40.0713749" lon="-105.229789">
  <ele>1583.0</ele>
  <time>2026-08-28T17:49:23Z</time>
  <course>0.0</course>
  <speed>0.0</speed>
  <fix>3d</fix>
</trkpt>
<trkpt lat="40.0713748" lon="-105.229789">
  <ele>1583.05</ele>
  <time>2026-08-28T17:49:23Z</time>
  <course>245.76</course>
  <speed>0.02</speed>
  <fix>3d</fix>
</trkpt>
<trkpt lat="40.0713749" lon="-105.229789">
  <ele>1583.0</ele>
  <time>2026-08-28T17:49:23Z</time>
  <course>0.0</course>
  <speed>0.0</speed>
  <fix>3d</fix>
</trkpt>
<trkpt lat="40.0713748" lon="-105.229789">
  <ele>1583.05</ele>
  <time>2026-08-28T17:49:23Z</time>
  <course>245.76</course>
  <speed>0.02</speed>
  <fix>3d</fix>
</trkpt>
<trkpt lat="40.0713749" lon="-105.229789">
  <ele>1583.0</ele>
  <time>2026-08-28T17:49:23Z</time>
  <course>0.0</course>
  <speed>0.0</speed>
  <fix>3d</fix>
</trkpt>
<trkpt lat="40.0713748" lon="-105.229789">
  <ele>1583.05</ele>
  <time>2026-08-28T17:49:23Z</time>
  <course>245.75</course>
  <speed>0.02</speed>
  <fix>3d</fix>
</trkpt>
<trkpt lat="40.0713749" lon="-105.229789">
  <ele>1583.0</ele>
  <time>2026-08-28T17:49:23Z</time>
  <course>0.0</course>
  <speed>0.0</speed>
  <fix>3d</fix>
</trkpt>
<trkpt lat="40.0713748" lon="-105.229789">
  <ele>1583.05</ele>
  <time>2026-08-28T17:49:23Z</time>
  <course>245.75</course>
  <speed>0.02</speed>
  <fix>3d</fix>
</trkpt>
<trkpt lat="40.0713749" lon="-105.229789">
  <ele>1583.0</ele>
  <time>2026-08-28T17:49:23Z</time>
  <course>0.0</course>
  <speed>0.0</speed>
  <fix>3d</fix>
</trkpt>
<trkpt lat="40.0713748" lon="-105.229789">
  <ele>1583.05</ele>
  <time>2026-08-28T17:49:23Z</time>
  <course>245.75</course>
  <speed>0.02</speed>
  <fix>3d</fix>
</trkpt>
<trkpt lat="40.0713749" lon="-105.229789">
  <ele>1583.0</ele>
  <time>2026-08-28T17:49:23Z</time>
  <course>0.0</course>
  <speed>0.0</speed>
  <fix>3d</fix>
</trkpt>
<trkpt lat="40.0713748" lon="-105.229789">
  <ele>1583.05</ele>
  <time>2026-08-28T17:49:23Z</time>
  <course>245.75</course>
  <speed>0.02</speed>
  <fix>3d</fix>
</trkpt>
<trkpt lat="40.0713749" lon="-105.229789">
  <ele>1583.0</ele>
  <time>2026-08-28T17:49:23Z</time>
  <course>0.0</course>
  <speed>0.0</speed>
  <fix>3d</fix>
</trkpt>
<trkpt lat="40.0713748" lon="-105.229789">
  <ele>1583.04</ele>
  <time>2026-08-28T17:49:23Z</time>
  <course>245.75</course>
  <speed>0.02</speed>
  <fix>3d</fix>
</trkpt>
<trkpt lat="40.0713749" lon="-105.229789">
  <ele>1583.0</ele>
  <time>2026-08-28T17:49:23Z</time>
  <course>0.0</course>
  <speed>0.0</speed>
  <fix>3d</fix>
</trkpt>
<trkpt lat="40.0713748" lon="-105.229789">
  <ele>1583.04</ele>
  <time>2026-08-28T17:49:23Z</time>
  <course>245.74</course>
  <speed>0.02</speed>
  <fix>3d</fix>
</trkpt>
<trkpt lat="40.0713749" lon="-105.229789">
  <ele>1583.0</ele>
  <time>2026-08-28T17:49:23Z</time>
  <course>0.0</course>
  <speed>0.0</speed>
  <fix>3d</fix>
</trkpt>
<trkpt lat="40.0713748" lon="-105.229789">
  <ele>1583.03</ele>
  <time>2026-08-28T17:49:23Z</time>
  <course>245.74</course>
  <speed>0.02</speed>
  <fix>3d</fix>
</trkpt>
<trkpt lat="40.0713749" lon="-105.229789">
  <ele>1583.0</ele>
  <time>2026-08-28T17:49:23Z</time>
  <course>0.0</course>
  <speed>0.0</speed>
  <fix>3d</fix>
</trkpt>
<trkpt lat="40.0713748" lon="-105.229789">
  <ele>1583.02</ele>
  <time>2026-08-28T17:49:23Z</time>
  <course>245.74</course>
  <speed>0.02</speed>
  <fix>3d</fix>
</trkpt>
<trkpt lat="40.0713749" lon="-105.229789">
  <ele>1583.0</ele>
  <time>2026-08-28T17:49:23Z</time>
  <course>0.0</course>
  <speed>0.0</speed>
  <fix>3d</fix>
</trkpt>
<trkpt lat="40.0713748" lon="-105.229789">
  <ele>1583.01</ele>
  <time>2026-08-28T17:49:23Z</time>
  <course>245.74</course>
  <speed>0.02</speed>
  <fix>3d</fix>
</trkpt>
<trkpt lat="40.0713749" lon="-105.229789">
  <ele>1583.0</ele>
  <time>2026-08-28T17:49:23Z</time>
  <course>0.0</course>
  <speed>0.0</speed>
  <fix>3d</fix>
</trkpt>
<trkpt lat="40.0713748" lon="-105.229789">
  <ele>1583.01</ele>
  <time>2026-08-28T17:49:23Z</time>
  <course>245.73</course>
  <speed>0.02</speed>
  <fix>3d</fix>
</trkpt>
<trkpt lat="40.0713749" lon="-105.229789">
  <ele>1583.0</ele>
  <time>2026-08-28T17:49:23Z</time>
  <course>0.0</course>
  <speed>0.0</speed>
  <fix>3d</fix>
</trkpt>
<trkpt lat="40.0713748" lon="-105.229789">
  <ele>1583.0</ele>
  <time>2026-08-28T17:49:23Z</time>
  <course>245.73</course>
  <speed>0.02</speed>
  <fix>3d</fix>
</trkpt>
<trkpt lat="40.0713749" lon="-105.229789">
  <ele>1583.0</ele>
  <time>2026-08-28T17:49:23Z</time>
  <course>0.0</course>
  <speed>0.0</speed>
  <fix>3d</fix>
</trkpt>
<trkpt lat="40.0713748" lon="-105.229789">
  <ele>1583.0</ele>
  <time>2026-08-28T17:49:23Z</time>
  <course>245.73</course>
  <speed>0.02</speed>
  <fix>3d</fix>
</trkpt>
<trkpt lat="40.0713749" lon="-105.229789">
  <ele>1583.0</ele>
  <time>2026-08-28T17:49:23Z</time>
  <course>0.0</course>
  <speed>0.0</speed>
  <fix>3d</fix>
</trkpt>
<trkpt lat="40.0713748" lon="-105.229789">
  <ele>1583.0</ele>
  <time>2026-08-28T17:49:23Z</time>
  <course>245.73</course>
  <speed>0.02</speed>
  <fix>3d</fix>
</trkpt>
<trkpt lat="40.0713749" lon="-105.229789">
  <ele>1583.0</ele>
  <time>2026-08-28T17:49:23Z</time>
  <course>0.0</course>
  <speed>0.0</speed>
  <fix>3d</fix>
</trkpt>
<trkpt lat="40.0713748" lon="-105.229789">
  <ele>1582.99</ele>
  <time>2026-08-28T17:49:23Z</time>
  <course>245.73</course>
  <speed>0.02</speed>
  <fix>3d</fix>
</trkpt>
<trkpt lat="40.0713749" lon="-105.229789">
  <ele>1583.0</ele>
  <time>2026-08-28T17:49:23Z</time>
  <course>0.0</course>
  <speed>0.0</speed>
  <fix>3d</fix>
</trkpt>
<trkpt lat="40.0713748" lon="-105.229789">
  <ele>1582.99</ele>
  <time>2026-08-28T17:49:23Z</time>
  <course>245.72</course>
  <speed>0.02</speed>
  <fix>3d</fix>
</trkpt>
<trkpt lat="40.0713749" lon="-105.229789">
  <ele>1583.0</ele>
  <time>2026-08-28T17:49:23Z</time>
  <course>0.0</course>
  <speed>0.0</speed>
  <fix>3d</fix>
</trkpt>
<trkpt lat="40.0713748" lon="-105.229789">
  <ele>1582.99</ele>
  <time>2026-08-28T17:49:23Z</time>
  <course>245.72</course>
  <speed>0.02</speed>
  <fix>3d</fix>
</trkpt>
<trkpt lat="40.0713749" lon="-105.229789">
  <ele>1583.0</ele>
  <time>2026-08-28T17:49:23Z</time>
  <course>0.0</course>
  <speed>0.0</speed>
  <fix>3d</fix>
</trkpt>
<trkpt lat="40.0713748" lon="-105.229789">
  <ele>1582.99</ele>
  <time>2026-08-28T17:49:23Z</time>
  <course>245.72</course>
  <speed>0.02</speed>
  <fix>3d</fix>
</trkpt>
<trkpt lat="40.0713749" lon="-105.229789">
  <ele>1583.0</ele>
  <time>2026-08-28T17:49:23Z</time>
  <course>0.0</course>
  <speed>0.0</speed>
  <fix>3d</fix>
</trkpt>
<trkpt lat="40.0713748" lon="-105.229789">
  <ele>1582.99</ele>
  <time>2026-08-28T17:49:23Z</time>
  <course>245.72</course>
  <speed>0.02</speed>
  <fix>3d</fix>
</trkpt>
<trkpt lat="40.0713749" lon="-105.229789">
  <ele>1583.0</ele>
  <time>2026-08-28T17:49:23Z</time>
  <course>0.0</course>
  <speed>0.0</speed>
  <fix>3d</fix>
</trkpt>
<trkpt lat="40.0713748" lon="-105.229789">
  <ele>1582.99</ele>
  <time>2026-08-28T17:49:23Z</time>
  <course>245.71</course>
  <speed>0.02</speed>
  <fix>3d</fix>
</trkpt>
<trkpt lat="40.0713749" lon="-105.229789">
  <ele>1583.0</ele>
  <time>2026-08-28T17:49:23Z</time>
  <course>0.0</course>
  <speed>0.0</speed>
  <fix>3d</fix>
</trkpt>
<trkpt lat="40.0713748" lon="-105.229789">
  <ele>1582.99</ele>
  <time>2026-08-28T17:49:23Z</time>
  <course>245.71</course>
  <speed>0.02</speed>
  <fix>3d</fix>
</trkpt>
<trkpt lat="40.0713749" lon="-105.229789">
  <ele>1583.0</ele>
  <time>2026-08-28T17:49:23Z</time>
  <course>0.0</course>
  <speed>0.0</speed>
  <fix>3d</fix>
</trkpt>
<trkpt lat="40.0713748" lon="-105.229789">
  <ele>1582.99</ele>
  <time>2026-08-28T17:49:23Z</time>
  <course>245.71</course>
  <speed>0.02</speed>
  <fix>3d</fix>
</trkpt>
<trkpt lat="40.0713749" lon="-105.229789">
  <ele>1583.0</ele>
  <time>2026-08-28T17:49:23Z</time>
  <course>0.0</course>
  <speed>0.0</speed>
  <fix>3d</fix>
</trkpt>
<trkpt lat="40.0713748" lon="-105.229789">
  <ele>1582.99</ele>
  <time>2026-08-28T17:49:23Z</time>
  <course>245.71</course>
  <speed>0.02</speed>
  <fix>3d</fix>
</trkpt>
<trkpt lat="40.0713749" lon="-105.229789">
  <ele>1583.0</ele>
  <time>2026-08-28T17:49:23Z</time>
  <course>0.0</course>
  <speed>0.0</speed>
  <fix>3d</fix>
</trkpt>
<trkpt lat="40.0713748" lon="-105.229789">
  <ele>1582.99</ele>
  <time>2026-08-28T17:49:23Z</time>
  <course>245.7</course>
  <speed>0.02</speed>
  <fix>3d</fix>
</trkpt>
<trkpt lat="40.0713749" lon="-105.229789">
  <ele>1583.0</ele>
  <time>2026-08-28T17:49:23Z</time>
  <course>0.0</course>
  <speed>0.0</speed>
  <fix>3d</fix>
</trkpt>
<trkpt lat="40.0713748" lon="-105.229789">
  <ele>1582.99</ele>
  <time>2026-08-28T17:49:23Z</time>
  <course>245.7</course>
  <speed>0.02</speed>
  <fix>3d</fix>
</trkpt>
<trkpt lat="40.0713749" lon="-105.229789">
  <ele>1583.0</ele>
  <time>2026-08-28T17:49:23Z</time>
  <course>0.0</course>
  <speed>0.0</speed>
  <fix>3d</fix>
</trkpt>
<trkpt lat="40.0713748" lon="-105.229789">
  <ele>1582.98</ele>
  <time>2026-08-28T17:49:23Z</time>
  <course>245.7</course>
  <speed>0.02</speed>
  <fix>3d</fix>
</trkpt>
<trkpt lat="40.0713749" lon="-105.229789">
  <ele>1583.0</ele>
  <time>2026-08-28T17:49:23Z</time>
  <course>0.0</course>
  <speed>0.0</speed>
  <fix>3d</fix>
</trkpt>
<trkpt lat="40.0713748" lon="-105.229789">
  <ele>1582.98</ele>
  <time>2026-08-28T17:49:23Z</time>
  <course>245.7</course>
  <speed>0.02</speed>
  <fix>3d</fix>
</trkpt>
<trkpt lat="40.0713749" lon="-105.229789">
  <ele>1583.0</ele>
  <time>2026-08-28T17:49:23Z</time>
  <course>0.0</course>
  <speed>0.0</speed>
  <fix>3d</fix>
</trkpt>
<trkpt lat="40.0713748" lon="-105.229789">
  <ele>1582.98</ele>
  <time>2026-08-28T17:49:23Z</time>
  <course>245.7</course>
  <speed>0.02</speed>
  <fix>3d</fix>
</trkpt>
<trkpt lat="40.0713749" lon="-105.229789">
  <ele>1583.0</ele>
  <time>2026-08-28T17:49:23Z</time>
  <course>0.0</course>
  <speed>0.0</speed>
  <fix>3d</fix>
</trkpt>
<trkpt lat="40.0713748" lon="-105.229789">
  <ele>1582.97</ele>
  <time>2026-08-28T17:49:23Z</time>
  <course>245.69</course>
  <speed>0.02</speed>
  <fix>3d</fix>
</trkpt>
<trkpt lat="40.0713749" lon="-105.229789">
  <ele>1583.0</ele>
  <time>2026-08-28T17:49:23Z</time>
  <course>0.0</course>
  <speed>0.0</speed>
  <fix>3d</fix>
</trkpt>
<trkpt lat="40.0713748" lon="-105.229789">
  <ele>1582.96</ele>
  <time>2026-08-28T17:49:23Z</time>
  <course>245.69</course>
  <speed>0.02</speed>
  <fix>3d</fix>
</trkpt>
<trkpt lat="40.0713749" lon="-105.229789">
  <ele>1583.0</ele>
  <time>2026-08-28T17:49:23Z</time>
  <course>0.0</course>
  <speed>0.0</speed>
  <fix>3d</fix>
</trkpt>
<trkpt lat="40.0713748" lon="-105.229789">
  <ele>1582.96</ele>
  <time>2026-08-28T17:49:23Z</time>
  <course>245.69</course>
  <speed>0.02</speed>
  <fix>3d</fix>
</trkpt>
<trkpt lat="40.0713749" lon="-105.229789">
  <ele>1583.0</ele>
  <time>2026-08-28T17:49:23Z</time>
  <course>0.0</course>
  <speed>0.0</speed>
  <fix>3d</fix>
</trkpt>
<trkpt lat="40.0713748" lon="-105.229789">
  <ele>1582.95</ele>
  <time>2026-08-28T17:49:23Z</time>
  <course>245.69</course>
  <speed>0.02</speed>
  <fix>3d</fix>
</trkpt>
<trkpt lat="40.0713749" lon="-105.229789">
  <ele>1583.0</ele>
  <time>2026-08-28T17:49:23Z</time>
  <course>0.0</course>
  <speed>0.0</speed>
  <fix>3d</fix>
</trkpt>
<trkpt lat="40.0713748" lon="-105.229789">
  <ele>1582.95</ele>
  <time>2026-08-28T17:49:23Z</time>
  <course>245.68</course>
  <speed>0.02</speed>
  <fix>3d</fix>
</trkpt>
<trkpt lat="40.0713749" lon="-105.229789">
  <ele>1583.0</ele>
  <time>2026-08-28T17:49:23Z</time>
  <course>0.0</course>
  <speed>0.0</speed>
  <fix>3d</fix>
</trkpt>
<trkpt lat="40.0713748" lon="-105.229789">
  <ele>1582.96</ele>
  <time>2026-08-28T17:49:23Z</time>
  <course>245.68</course>
  <speed>0.02</speed>
  <fix>3d</fix>
</trkpt>
<trkpt lat="40.0713749" lon="-105.229789">
  <ele>1583.0</ele>
  <time>2026-08-28T17:49:23Z</time>
  <course>0.0</course>
  <speed>0.0</speed>
  <fix>3d</fix>
</trkpt>
<trkpt lat="40.0713748" lon="-105.229789">
  <ele>1582.96</ele>
  <time>2026-08-28T17:49:23Z</time>
  <course>245.68</course>
  <speed>0.02</speed>
  <fix>3d</fix>
</trkpt>
<trkpt lat="40.0713749" lon="-105.229789">
  <ele>1583.0</ele>
  <time>2026-08-28T17:49:23Z</time>
  <course>0.0</course>
  <speed>0.0</speed>
  <fix>3d</fix>
</trkpt>
<trkpt lat="40.0713748" lon="-105.229789">
  <ele>1582.96</ele>
  <time>2026-08-28T17:49:23Z</time>
  <course>245.68</course>
  <speed>0.02</speed>
  <fix>3d</fix>
</trkpt>
<trkpt lat="40.0713749" lon="-105.229789">
  <ele>1583.0</ele>
  <time>2026-08-28T17:49:23Z</time>
  <course>0.0</course>
  <speed>0.0</speed>
  <fix>3d</fix>
</trkpt>
<trkpt lat="40.0713748" lon="-105.229789">
  <ele>1582.97</ele>
  <time>2026-08-28T17:49:23Z</time>
  <course>245.68</course>
  <speed>0.02</speed>
  <fix>3d</fix>
</trkpt>
<trkpt lat="40.0713749" lon="-105.229789">
  <ele>1583.0</ele>
  <time>2026-08-28T17:49:23Z</time>
  <course>0.0</course>
  <speed>0.0</speed>
  <fix>3d</fix>
</trkpt>
<trkpt lat="40.0713748" lon="-105.229789">
  <ele>1582.97</ele>
  <time>2026-08-28T17:49:23Z</time>
  <course>245.67</course>
  <speed>0.02</speed>
  <fix>3d</fix>
</trkpt>
<trkpt lat="40.0713749" lon="-105.229789">
  <ele>1583.0</ele>
  <time>2026-08-28T17:49:23Z</time>
  <course>0.0</course>
  <speed>0.0</speed>
  <fix>3d</fix>
</trkpt>
<trkpt lat="40.0713748" lon="-105.229789">
  <ele>1582.98</ele>
  <time>2026-08-28T17:49:23Z</time>
  <course>245.67</course>
  <speed>0.02</speed>
  <fix>3d</fix>
</trkpt>
<trkpt lat="40.0713749" lon="-105.229789">
  <ele>1583.0</ele>
  <time>2026-08-28T17:49:23Z</time>
  <course>0.0</course>
  <speed>0.0</speed>
  <fix>3d</fix>
</trkpt>
<trkpt lat="40.0713748" lon="-105.229789">
  <ele>1582.99</ele>
  <time>2026-08-28T17:49:23Z</time>
  <course>245.67</course>
  <speed>0.02</speed>
  <fix>3d</fix>
</trkpt>
<trkpt lat="40.0713749" lon="-105.229789">
  <ele>1583.0</ele>
  <time>2026-08-28T17:49:23Z</time>
  <course>0.0</course>
  <speed>0.0</speed>
  <fix>3d</fix>
</trkpt>
<trkpt lat="40.0713748" lon="-105.229789">
  <ele>1583.0</ele>
  <time>2026-08-28T17:49:23Z</time>
  <course>245.67</course>
  <speed>0.02</speed>
  <fix>3d</fix>
</trkpt>
<trkpt lat="40.0713749" lon="-105.229789">
  <ele>1583.0</ele>
  <time>2026-08-28T17:49:23Z</time>
  <course>0.0</course>
  <speed>0.0</speed>
  <fix>3d</fix>
</trkpt>
<trkpt lat="40.0713748" lon="-105.229789">
  <ele>1583.0</ele>
  <time>2026-08-28T17:49:23Z</time>
  <course>245.67</course>
  <speed>0.02</speed>
  <fix>3d</fix>
</trkpt>
<trkpt lat="40.0713749" lon="-105.229789">
  <ele>1583.0</ele>
  <time>2026-08-28T17:49:23Z</time>
  <course>0.0</course>
  <speed>0.0</speed>
  <fix>3d</fix>
</trkpt>
<trkpt lat="40.0713748" lon="-105.229789">
  <ele>1583.01</ele>
  <time>2026-08-28T17:49:23Z</time>
  <course>245.66</course>
  <speed>0.02</speed>
  <fix>3d</fix>
</trkpt>
<trkpt lat="40.0713749" lon="-105.229789">
  <ele>1583.0</ele>
  <time>2026-08-28T17:49:23Z</time>
  <course>0.0</course>
  <speed>0.0</speed>
  <fix>3d</fix>
</trkpt>
<trkpt lat="40.0713748" lon="-105.229789">
  <ele>1583.01</ele>
  <time>2026-08-28T17:49:23Z</time>
  <course>245.66</course>
  <speed>0.02</speed>
  <fix>3d</fix>
</trkpt>
<trkpt lat="40.0713749" lon="-105.229789">
  <ele>1583.0</ele>
  <time>2026-08-28T17:49:23Z</time>
  <course>0.0</course>
  <speed>0.0</speed>
  <fix>3d</fix>
</trkpt>
<trkpt lat="40.0713748" lon="-105.229789">
  <ele>1583.02</ele>
  <time>2026-08-28T17:49:23Z</time>
  <course>245.66</course>
  <speed>0.02</speed>
  <fix>3d</fix>
</trkpt>
<trkpt lat="40.0713749" lon="-105.229789">
  <ele>1583.0</ele>
  <time>2026-08-28T17:49:23Z</time>
  <course>0.0</course>
  <speed>0.0</speed>
  <fix>3d</fix>
</trkpt>
<trkpt lat="40.0713748" lon="-105.229789">
  <ele>1583.02</ele>
  <time>2026-08-28T17:49:23Z</time>
  <course>245.66</course>
  <speed>0.02</speed>
  <fix>3d</fix>
</trkpt>
<trkpt lat="40.0713749" lon="-105.229789">
  <ele>1583.0</ele>
  <time>2026-08-28T17:49:23Z</time>
  <course>0.0</course>
  <speed>0.0</speed>
  <fix>3d</fix>
</trkpt>
<trkpt lat="40.0713748" lon="-105.229789">
  <ele>1583.02</ele>
  <time>2026-08-28T17:49:23Z</time>
  <course>245.66</course>
  <speed>0.02</speed>
  <fix>3d</fix>
</trkpt>
<trkpt lat="40.0713749" lon="-105.229789">
  <ele>1583.0</ele>
  <time>2026-08-28T17:49:23Z</time>
  <course>0.0</course>
  <speed>0.0</speed>
  <fix>3d</fix>
</trkpt>
<trkpt lat="40.0713748" lon="-105.229789">
  <ele>1583.02</ele>
  <time>2026-08-28T17:49:23Z</time>
  <course>245.65</course>
  <speed>0.02</speed>
  <fix>3d</fix>
</trkpt>
<trkpt lat="40.0713749" lon="-105.229789">
  <ele>1583.0</ele>
  <time>2026-08-28T17:49:23Z</time>
  <course>0.0</course>
  <speed>0.0</speed>
  <fix>3d</fix>
</trkpt>
<trkpt lat="40.0713748" lon="-105.229789">
  <ele>1583.02</ele>
  <time>2026-08-28T17:49:23Z</time>
  <course>245.65</course>
  <speed>0.02</speed>
  <fix>3d</fix>
</trkpt>
<trkpt lat="40.0713749" lon="-105.229789">
  <ele>1583.0</ele>
  <time>2026-08-28T17:49:23Z</time>
  <course>0.0</course>
  <speed>0.0</speed>
  <fix>3d</fix>
</trkpt>
<trkpt lat="40.0713748" lon="-105.229789">
  <ele>1583.02</ele>
  <time>2026-08-28T17:49:23Z</time>
  <course>245.65</course>
  <speed>0.02</speed>
  <fix>3d</fix>
</trkpt>
<trkpt lat="40.0713749" lon="-105.229789">
  <ele>1583.0</ele>
  <time>2026-08-28T17:49:23Z</time>
  <course>0.0</course>
  <speed>0.0</speed>
  <fix>3d</fix>
</trkpt>
<trkpt lat="40.0713748" lon="-105.229789">
  <ele>1583.02</ele>
  <time>2026-08-28T17:49:23Z</time>
  <course>245.65</course>
  <speed>0.02</speed>
  <fix>3d</fix>
</trkpt>
<trkpt lat="40.0713749" lon="-105.229789">
  <ele>1583.0</ele>
  <time>2026-08-28T17:49:23Z</time>
  <course>0.0</course>
  <speed>0.0</speed>
  <fix>3d</fix>
</trkpt>
<trkpt lat="40.0713748" lon="-105.229789">
  <ele>1583.02</ele>
  <time>2026-08-28T17:49:23Z</time>
  <course>245.64</course>
  <speed>0.02</speed>
  <fix>3d</fix>
</trkpt>
<trkpt lat="40.0713749" lon="-105.229789">
  <ele>1583.0</ele>
  <time>2026-08-28T17:49:23Z</time>
  <course>0.0</course>
  <speed>0.0</speed>
  <fix>3d</fix>
</trkpt>
<trkpt lat="40.0713748" lon="-105.229789">
  <ele>1583.02</ele>
  <time>2026-08-28T17:49:23Z</time>
  <course>245.64</course>
  <speed>0.02</speed>
  <fix>3d</fix>
</trkpt>
<trkpt lat="40.0713749" lon="-105.229789">
  <ele>1583.0</ele>
  <time>2026-08-28T17:49:23Z</time>
  <course>0.0</course>
  <speed>0.0</speed>
  <fix>3d</fix>
</trkpt>
<trkpt lat="40.0713748" lon="-105.229789">
  <ele>1583.02</ele>
  <time>2026-08-28T17:49:23Z</time>
  <course>245.64</course>
  <speed>0.02</speed>
  <fix>3d</fix>
</trkpt>
<trkpt lat="40.0713749" lon="-105.229789">
  <ele>1583.0</ele>
  <time>2026-08-28T17:49:23Z</time>
  <course>0.0</course>
  <speed>0.0</speed>
  <fix>3d</fix>
</trkpt>
<trkpt lat="40.0713748" lon="-105.229789">
  <ele>1583.02</ele>
  <time>2026-08-28T17:49:23Z</time>
  <course>245.64</course>
  <speed>0.02</speed>
  <fix>3d</fix>
</trkpt>
<trkpt lat="40.0713749" lon="-105.229789">
  <ele>1583.0</ele>
  <time>2026-08-28T17:49:23Z</time>
  <course>0.0</course>
  <speed>0.0</speed>
  <fix>3d</fix>
</trkpt>
<trkpt lat="40.0713748" lon="-105.2297891">
  <ele>1583.02</ele>
  <time>2026-08-28T17:49:23Z</time>
  <course>245.64</course>
  <speed>0.02</speed>
  <fix>3d</fix>
</trkpt>
<trkpt lat="40.0713749" lon="-105.229789">
  <ele>1583.0</ele>
  <time>2026-08-28T17:49:23Z</time>
  <course>0.0</course>
  <speed>0.0</speed>
  <fix>3d</fix>
</trkpt>
<trkpt lat="40.0713748" lon="-105.229789">
  <ele>1583.02</ele>
  <time>2026-08-28T17:49:23Z</time>
  <course>245.63</course>
  <speed>0.02</speed>
  <fix>3d</fix>
</trkpt>
<trkpt lat="40.0713749" lon="-105.229789">
  <ele>1583.0</ele>
  <time>2026-08-28T17:49:23Z</time>
  <course>0.0</course>
  <speed>0.0</speed>
  <fix>3d</fix>
</trkpt>
<trkpt lat="40.0713748" lon="-105.2297891">
  <ele>1583.02</ele>
  <time>2026-08-28T17:49:23Z</time>
  <course>245.63</course>
  <speed>0.02</speed>
  <fix>3d</fix>
</trkpt>
<trkpt lat="40.0713749" lon="-105.229789">
  <ele>1583.0</ele>
  <time>2026-08-28T17:49:23Z</time>
  <course>0.0</course>
  <speed>0.0</speed>
  <fix>3d</fix>
</trkpt>
<trkpt lat="40.0713748" lon="-105.229789">
  <ele>1583.03</ele>
  <time>2026-08-28T17:49:23Z</time>
  <course>245.63</course>
  <speed>0.02</speed>
  <fix>3d</fix>
</trkpt>
<trkpt lat="40.0713749" lon="-105.229789">
  <ele>1583.0</ele>
  <time>2026-08-28T17:49:23Z</time>
  <course>0.0</course>
  <speed>0.0</speed>
  <fix>3d</fix>
</trkpt>
<trkpt lat="40.0713748" lon="-105.2297891">
  <ele>1583.03</ele>
  <time>2026-08-28T17:49:23Z</time>
  <course>245.63</course>
  <speed>0.02</speed>
  <fix>3d</fix>
</trkpt>
<trkpt lat="40.0713749" lon="-105.229789">
  <ele>1583.0</ele>
  <time>2026-08-28T17:49:23Z</time>
  <course>0.0</course>
  <speed>0.0</speed>
  <fix>3d</fix>
</trkpt>
<trkpt lat="40.0713748" lon="-105.229789">
  <ele>1583.03</ele>
  <time>2026-08-28T17:49:23Z</time>
  <course>245.63</course>
  <speed>0.02</speed>
  <fix>3d</fix>
</trkpt>
<trkpt lat="40.0713749" lon="-105.229789">
  <ele>1583.0</ele>
  <time>2026-08-28T17:49:23Z</time>
  <course>0.0</course>
  <speed>0.0</speed>
  <fix>3d</fix>
</trkpt>
<trkpt lat="40.0713748" lon="-105.2297891">
  <ele>1583.03</ele>
  <time>2026-08-28T17:49:23Z</time>
  <course>245.62</course>
  <speed>0.02</speed>
  <fix>3d</fix>
</trkpt>
<trkpt lat="40.0713749" lon="-105.229789">
  <ele>1583.0</ele>
  <time>2026-08-28T17:49:23Z</time>
  <course>0.0</course>
  <speed>0.0</speed>
  <fix>3d</fix>
</trkpt>
<trkpt lat="40.0713748" lon="-105.229789">
  <ele>1583.03</ele>
  <time>2026-08-28T17:49:23Z</time>
  <course>245.62</course>
  <speed>0.02</speed>
  <fix>3d</fix>
</trkpt>
<trkpt lat="40.0713749" lon="-105.229789">
  <ele>1583.0</ele>
  <time>2026-08-28T17:49:23Z</time>
  <course>0.0</course>
  <speed>0.0</speed>
  <fix>3d</fix>
</trkpt>
<trkpt lat="40.0713748" lon="-105.2297891">
  <ele>1583.03</ele>
  <time>2026-08-28T17:49:23Z</time>
  <course>245.62</course>
  <speed>0.02</speed>
  <fix>3d</fix>
</trkpt>
<trkpt lat="40.0713749" lon="-105.229789">
  <ele>1583.0</ele>
  <time>2026-08-28T17:49:23Z</time>
  <course>0.0</course>
  <speed>0.0</speed>
  <fix>3d</fix>
</trkpt>
<trkpt lat="40.0713748" lon="-105.229789">
  <ele>1583.03</ele>
  <time>2026-08-28T17:49:23Z</time>
  <course>245.62</course>
  <speed>0.02</speed>
  <fix>3d</fix>
</trkpt>
<trkpt lat="40.0713749" lon="-105.229789">
  <ele>1583.0</ele>
  <time>2026-08-28T17:49:23Z</time>
  <course>0.0</course>
  <speed>0.0</speed>
  <fix>3d</fix>
</trkpt>
<trkpt lat="40.0713748" lon="-105.229789">
  <ele>1583.03</ele>
  <time>2026-08-28T17:49:23Z</time>
  <course>245.62</course>
  <speed>0.02</speed>
  <fix>3d</fix>
</trkpt>
<trkpt lat="40.0713749" lon="-105.229789">
  <ele>1583.0</ele>
  <time>2026-08-28T17:49:23Z</time>
  <course>0.0</course>
  <speed>0.0</speed>
  <fix>3d</fix>
</trkpt>
<trkpt lat="40.0713748" lon="-105.229789">
  <ele>1583.03</ele>
  <time>2026-08-28T17:49:23Z</time>
  <course>245.61</course>
  <speed>0.02</speed>
  <fix>3d</fix>
</trkpt>
<trkpt lat="40.0713749" lon="-105.229789">
  <ele>1583.0</ele>
  <time>2026-08-28T17:49:23Z</time>
  <course>0.0</course>
  <speed>0.0</speed>
  <fix>3d</fix>
</trkpt>
<trkpt lat="40.0713748" lon="-105.229789">
  <ele>1583.03</ele>
  <time>2026-08-28T17:49:23Z</time>
  <course>245.61</course>
  <speed>0.02</speed>
  <fix>3d</fix>
</trkpt>
<trkpt lat="40.0713749" lon="-105.229789">
  <ele>1583.0</ele>
  <time>2026-08-28T17:49:23Z</time>
  <course>0.0</course>
  <speed>0.0</speed>
  <fix>3d</fix>
</trkpt>
<trkpt lat="40.0713748" lon="-105.229789">
  <ele>1583.03</ele>
  <time>2026-08-28T17:49:23Z</time>
  <course>245.61</course>
  <speed>0.02</speed>
  <fix>3d</fix>
</trkpt>
<trkpt lat="40.0713749" lon="-105.229789">
  <ele>1583.0</ele>
  <time>2026-08-28T17:49:23Z</time>
  <course>0.0</course>
  <speed>0.0</speed>
  <fix>3d</fix>
</trkpt>
<trkpt lat="40.0713748" lon="-105.229789">
  <ele>1583.03</ele>
  <time>2026-08-28T17:49:23Z</time>
  <course>245.61</course>
  <speed>0.02</speed>
  <fix>3d</fix>
</trkpt>
<trkpt lat="40.0713749" lon="-105.229789">
  <ele>1583.0</ele>
  <time>2026-08-28T17:49:23Z</time>
  <course>0.0</course>
  <speed>0.0</speed>
  <fix>3d</fix>
</trkpt>
<trkpt lat="40.0713748" lon="-105.229789">
  <ele>1583.03</ele>
  <time>2026-08-28T17:49:23Z</time>
  <course>245.61</course>
  <speed>0.02</speed>
  <fix>3d</fix>
</trkpt>
<trkpt lat="40.0713749" lon="-105.229789">
  <ele>1583.0</ele>
  <time>2026-08-28T17:49:23Z</time>
  <course>0.0</course>
  <speed>0.0</speed>
  <fix>3d</fix>
</trkpt>
<trkpt lat="40.0713748" lon="-105.229789">
  <ele>1583.03</ele>
  <time>2026-08-28T17:49:23Z</time>
  <course>245.6</course>
  <speed>0.02</speed>
  <fix>3d</fix>
</trkpt>
<trkpt lat="40.0713749" lon="-105.229789">
  <ele>1583.0</ele>
  <time>2026-08-28T17:49:23Z</time>
  <course>0.0</course>
  <speed>0.0</speed>
  <fix>3d</fix>
</trkpt>
<trkpt lat="40.0713748" lon="-105.229789">
  <ele>1583.03</ele>
  <time>2026-08-28T17:49:23Z</time>
  <course>245.6</course>
  <speed>0.02</speed>
  <fix>3d</fix>
</trkpt>
<trkpt lat="40.0713749" lon="-105.229789">
  <ele>1583.0</ele>
  <time>2026-08-28T17:49:23Z</time>
  <course>0.0</course>
  <speed>0.0</speed>
  <fix>3d</fix>
</trkpt>
<trkpt lat="40.0713748" lon="-105.229789">
  <ele>1583.02</ele>
  <time>2026-08-28T17:49:23Z</time>
  <course>245.6</course>
  <speed>0.02</speed>
  <fix>3d</fix>
</trkpt>
<trkpt lat="40.0713749" lon="-105.229789">
  <ele>1583.0</ele>
  <time>2026-08-28T17:49:23Z</time>
  <course>0.0</course>
  <speed>0.0</speed>
  <fix>3d</fix>
</trkpt>
<trkpt lat="40.0713748" lon="-105.229789">
  <ele>1583.02</ele>
  <time>2026-08-28T17:49:23Z</time>
  <course>245.6</course>
  <speed>0.02</speed>
  <fix>3d</fix>
</trkpt>
<trkpt lat="40.0713749" lon="-105.229789">
  <ele>1583.0</ele>
  <time>2026-08-28T17:49:23Z</time>
  <course>0.0</course>
  <speed>0.0</speed>
  <fix>3d</fix>
</trkpt>
<trkpt lat="40.0713748" lon="-105.229789">
  <ele>1583.01</ele>
  <time>2026-08-28T17:49:23Z</time>
  <course>245.59</course>
  <speed>0.02</speed>
  <fix>3d</fix>
</trkpt>
<trkpt lat="40.0713749" lon="-105.229789">
  <ele>1583.0</ele>
  <time>2026-08-28T17:49:23Z</time>
  <course>0.0</course>
  <speed>0.0</speed>
  <fix>3d</fix>
</trkpt>
<trkpt lat="40.0713748" lon="-105.229789">
  <ele>1583.0</ele>
  <time>2026-08-28T17:49:23Z</time>
  <course>245.59</course>
  <speed>0.02</speed>
  <fix>3d</fix>
</trkpt>
<trkpt lat="40.0713749" lon="-105.229789">
  <ele>1583.0</ele>
  <time>2026-08-28T17:49:23Z</time>
  <course>0.0</course>
  <speed>0.0</speed>
  <fix>3d</fix>
</trkpt>
<trkpt lat="40.0713747" lon="-105.229789">
  <ele>1582.99</ele>
  <time>2026-08-28T17:49:23Z</time>
  <course>245.59</course>
  <speed>0.02</speed>
  <fix>3d</fix>
</trkpt>
<trkpt lat="40.0713749" lon="-105.229789">
  <ele>1583.0</ele>
  <time>2026-08-28T17:49:23Z</time>
  <course>0.0</course>
  <speed>0.0</speed>
  <fix>3d</fix>
</trkpt>
<trkpt lat="40.0713748" lon="-105.229789">
  <ele>1582.99</ele>
  <time>2026-08-28T17:49:23Z</time>
  <course>245.59</course>
  <speed>0.02</speed>
  <fix>3d</fix>
</trkpt>
<trkpt lat="40.0713749" lon="-105.229789">
  <ele>1583.0</ele>
  <time>2026-08-28T17:49:23Z</time>
  <course>0.0</course>
  <speed>0.0</speed>
  <fix>3d</fix>
</trkpt>
<trkpt lat="40.0713747" lon="-105.229789">
  <ele>1582.98</ele>
  <time>2026-08-28T17:49:23Z</time>
  <course>245.59</course>
  <speed>0.02</speed>
  <fix>3d</fix>
</trkpt>
<trkpt lat="40.0713749" lon="-105.229789">
  <ele>1583.0</ele>
  <time>2026-08-28T17:49:23Z</time>
  <course>0.0</course>
  <speed>0.0</speed>
  <fix>3d</fix>
</trkpt>
<trkpt lat="40.0713748" lon="-105.229789">
  <ele>1582.98</ele>
  <time>2026-08-28T17:49:23Z</time>
  <course>245.58</course>
  <speed>0.02</speed>
  <fix>3d</fix>
</trkpt>
<trkpt lat="40.0713749" lon="-105.229789">
  <ele>1583.0</ele>
  <time>2026-08-28T17:49:23Z</time>
  <course>0.0</course>
  <speed>0.0</speed>
  <fix>3d</fix>
</trkpt>
<trkpt lat="40.0713747" lon="-105.229789">
  <ele>1582.97</ele>
  <time>2026-08-28T17:49:24Z</time>
  <course>245.58</course>
  <speed>0.02</speed>
  <fix>3d</fix>
</trkpt>
<trkpt lat="40.0713749" lon="-105.229789">
  <ele>1583.0</ele>
  <time>2026-08-28T17:49:24Z</time>
  <course>0.0</course>
  <speed>0.0</speed>
  <fix>3d</fix>
</trkpt>
<trkpt lat="40.0713748" lon="-105.229789">
  <ele>1582.97</ele>
  <time>2026-08-28T17:49:24Z</time>
  <course>245.58</course>
  <speed>0.02</speed>
  <fix>3d</fix>
</trkpt>
<trkpt lat="40.0713749" lon="-105.229789">
  <ele>1583.0</ele>
  <time>2026-08-28T17:49:24Z</time>
  <course>0.0</course>
  <speed>0.0</speed>
  <fix>3d</fix>
</trkpt>
<trkpt lat="40.0713747" lon="-105.229789">
  <ele>1582.96</ele>
  <time>2026-08-28T17:49:24Z</time>
  <course>245.58</course>
  <speed>0.02</speed>
  <fix>3d</fix>
</trkpt>
<trkpt lat="40.0713749" lon="-105.229789">
  <ele>1583.0</ele>
  <time>2026-08-28T17:49:24Z</time>
  <course>0.0</course>
  <speed>0.0</speed>
  <fix>3d</fix>
</trkpt>
<trkpt lat="40.0713748" lon="-105.229789">
  <ele>1582.96</ele>
  <time>2026-08-28T17:49:24Z</time>
  <course>245.58</course>
  <speed>0.02</speed>
  <fix>3d</fix>
</trkpt>
<trkpt lat="40.0713749" lon="-105.229789">
  <ele>1583.0</ele>
  <time>2026-08-28T17:49:24Z</time>
  <course>0.0</course>
  <speed>0.0</speed>
  <fix>3d</fix>
</trkpt>
<trkpt lat="40.0713748" lon="-105.229789">
  <ele>1582.95</ele>
  <time>2026-08-28T17:49:24Z</time>
  <course>245.57</course>
  <speed>0.02</speed>
  <fix>3d</fix>
</trkpt>
<trkpt lat="40.0713749" lon="-105.229789">
  <ele>1583.0</ele>
  <time>2026-08-28T17:49:24Z</time>
  <course>0.0</course>
  <speed>0.0</speed>
  <fix>3d</fix>
</trkpt>
<trkpt lat="40.0713748" lon="-105.229789">
  <ele>1582.95</ele>
  <time>2026-08-28T17:49:24Z</time>
  <course>245.57</course>
  <speed>0.02</speed>
  <fix>3d</fix>
</trkpt>
<trkpt lat="40.0713749" lon="-105.229789">
  <ele>1583.0</ele>
  <time>2026-08-28T17:49:24Z</time>
  <course>0.0</course>
  <speed>0.0</speed>
  <fix>3d</fix>
</trkpt>
<trkpt lat="40.0713748" lon="-105.229789">
  <ele>1582.95</ele>
  <time>2026-08-28T17:49:24Z</time>
  <course>245.57</course>
  <speed>0.02</speed>
  <fix>3d</fix>
</trkpt>
<trkpt lat="40.0713749" lon="-105.229789">
  <ele>1583.0</ele>
  <time>2026-08-28T17:49:24Z</time>
  <course>0.0</course>
  <speed>0.0</speed>
  <fix>3d</fix>
</trkpt>
<trkpt lat="40.0713748" lon="-105.229789">
  <ele>1582.94</ele>
  <time>2026-08-28T17:49:24Z</time>
  <course>245.57</course>
  <speed>0.02</speed>
  <fix>3d</fix>
</trkpt>
<trkpt lat="40.0713749" lon="-105.229789">
  <ele>1583.0</ele>
  <time>2026-08-28T17:49:24Z</time>
  <course>0.0</course>
  <speed>0.0</speed>
  <fix>3d</fix>
</trkpt>
<trkpt lat="40.0713748" lon="-105.229789">
  <ele>1582.93</ele>
  <time>2026-08-28T17:49:24Z</time>
  <course>245.57</course>
  <speed>0.02</speed>
  <fix>3d</fix>
</trkpt>
<trkpt lat="40.0713749" lon="-105.229789">
  <ele>1583.0</ele>
  <time>2026-08-28T17:49:24Z</time>
  <course>0.0</course>
  <speed>0.0</speed>
  <fix>3d</fix>
</trkpt>
<trkpt lat="40.0713748" lon="-105.229789">
  <ele>1582.93</ele>
  <time>2026-08-28T17:49:24Z</time>
  <course>245.56</course>
  <speed>0.02</speed>
  <fix>3d</fix>
</trkpt>
<trkpt lat="40.0713749" lon="-105.229789">
  <ele>1583.0</ele>
  <time>2026-08-28T17:49:24Z</time>
  <course>0.0</course>
  <speed>0.0</speed>
  <fix>3d</fix>
</trkpt>
<trkpt lat="40.0713748" lon="-105.229789">
  <ele>1582.92</ele>
  <time>2026-08-28T17:49:24Z</time>
  <course>245.56</course>
  <speed>0.02</speed>
  <fix>3d</fix>
</trkpt>
<trkpt lat="40.0713749" lon="-105.229789">
  <ele>1583.0</ele>
  <time>2026-08-28T17:49:24Z</time>
  <course>0.0</course>
  <speed>0.0</speed>
  <fix>3d</fix>
</trkpt>
<trkpt lat="40.0713748" lon="-105.229789">
  <ele>1582.92</ele>
  <time>2026-08-28T17:49:24Z</time>
  <course>245.56</course>
  <speed>0.02</speed>
  <fix>3d</fix>
</trkpt>
<trkpt lat="40.0713749" lon="-105.229789">
  <ele>1583.0</ele>
  <time>2026-08-28T17:49:24Z</time>
  <course>0.0</course>
  <speed>0.0</speed>
  <fix>3d</fix>
</trkpt>
<trkpt lat="40.0713748" lon="-105.229789">
  <ele>1582.93</ele>
  <time>2026-08-28T17:49:24Z</time>
  <course>245.56</course>
  <speed>0.02</speed>
  <fix>3d</fix>
</trkpt>
<trkpt lat="40.0713749" lon="-105.229789">
  <ele>1583.0</ele>
  <time>2026-08-28T17:49:24Z</time>
  <course>0.0</course>
  <speed>0.0</speed>
  <fix>3d</fix>
</trkpt>
<trkpt lat="40.0713748" lon="-105.229789">
  <ele>1582.94</ele>
  <time>2026-08-28T17:49:24Z</time>
  <course>245.56</course>
  <speed>0.02</speed>
  <fix>3d</fix>
</trkpt>
<trkpt lat="40.0713749" lon="-105.229789">
  <ele>1583.0</ele>
  <time>2026-08-28T17:49:24Z</time>
  <course>0.0</course>
  <speed>0.0</speed>
  <fix>3d</fix>
</trkpt>
<trkpt lat="40.0713748" lon="-105.229789">
  <ele>1582.94</ele>
  <time>2026-08-28T17:49:24Z</time>
  <course>245.55</course>
  <speed>0.02</speed>
  <fix>3d</fix>
</trkpt>
<trkpt lat="40.0713749" lon="-105.229789">
  <ele>1583.0</ele>
  <time>2026-08-28T17:49:24Z</time>
  <course>0.0</course>
  <speed>0.0</speed>
  <fix>3d</fix>
</trkpt>
<trkpt lat="40.0713748" lon="-105.229789">
  <ele>1582.95</ele>
  <time>2026-08-28T17:49:24Z</time>
  <course>245.55</course>
  <speed>0.02</speed>
  <fix>3d</fix>
</trkpt>
<trkpt lat="40.0713749" lon="-105.229789">
  <ele>1583.0</ele>
  <time>2026-08-28T17:49:24Z</time>
  <course>0.0</course>
  <speed>0.0</speed>
  <fix>3d</fix>
</trkpt>
<trkpt lat="40.0713748" lon="-105.229789">
  <ele>1582.96</ele>
  <time>2026-08-28T17:49:24Z</time>
  <course>245.55</course>
  <speed>0.02</speed>
  <fix>3d</fix>
</trkpt>
<trkpt lat="40.0713749" lon="-105.229789">
  <ele>1583.0</ele>
  <time>2026-08-28T17:49:24Z</time>
  <course>0.0</course>
  <speed>0.0</speed>
  <fix>3d</fix>
</trkpt>
<trkpt lat="40.0713748" lon="-105.229789">
  <ele>1582.97</ele>
  <time>2026-08-28T17:49:24Z</time>
  <course>245.55</course>
  <speed>0.02</speed>
  <fix>3d</fix>
</trkpt>
<trkpt lat="40.0713749" lon="-105.229789">
  <ele>1583.0</ele>
  <time>2026-08-28T17:49:24Z</time>
  <course>0.0</course>
  <speed>0.0</speed>
  <fix>3d</fix>
</trkpt>
<trkpt lat="40.0713747" lon="-105.229789">
  <ele>1582.98</ele>
  <time>2026-08-28T17:49:24Z</time>
  <course>245.55</course>
  <speed>0.02</speed>
  <fix>3d</fix>
</trkpt>
<trkpt lat="40.0713749" lon="-105.229789">
  <ele>1583.0</ele>
  <time>2026-08-28T17:49:24Z</time>
  <course>0.0</course>
  <speed>0.0</speed>
  <fix>3d</fix>
</trkpt>
<trkpt lat="40.0713748" lon="-105.229789">
  <ele>1582.99</ele>
  <time>2026-08-28T17:49:24Z</time>
  <course>245.54</course>
  <speed>0.02</speed>
  <fix>3d</fix>
</trkpt>
<trkpt lat="40.0713749" lon="-105.229789">
  <ele>1583.0</ele>
  <time>2026-08-28T17:49:24Z</time>
  <course>0.0</course>
  <speed>0.0</speed>
  <fix>3d</fix>
</trkpt>
<trkpt lat="40.0713747" lon="-105.229789">
  <ele>1582.99</ele>
  <time>2026-08-28T17:49:24Z</time>
  <course>245.54</course>
  <speed>0.02</speed>
  <fix>3d</fix>
</trkpt>
<trkpt lat="40.0713749" lon="-105.229789">
  <ele>1583.0</ele>
  <time>2026-08-28T17:49:24Z</time>
  <course>0.0</course>
  <speed>0.0</speed>
  <fix>3d</fix>
</trkpt>
<trkpt lat="40.0713748" lon="-105.229789">
  <ele>1583.0</ele>
  <time>2026-08-28T17:49:24Z</time>
  <course>245.54</course>
  <speed>0.02</speed>
  <fix>3d</fix>
</trkpt>
<trkpt lat="40.0713749" lon="-105.229789">
  <ele>1583.0</ele>
  <time>2026-08-28T17:49:24Z</time>
  <course>0.0</course>
  <speed>0.0</speed>
  <fix>3d</fix>
</trkpt>
<trkpt lat="40.0713747" lon="-105.229789">
  <ele>1583.0</ele>
  <time>2026-08-28T17:49:24Z</time>
  <course>245.54</course>
  <speed>0.02</speed>
  <fix>3d</fix>
</trkpt>
<trkpt lat="40.0713749" lon="-105.229789">
  <ele>1583.0</ele>
  <time>2026-08-28T17:49:24Z</time>
  <course>0.0</course>
  <speed>0.0</speed>
  <fix>3d</fix>
</trkpt>
<trkpt lat="40.0713748" lon="-105.229789">
  <ele>1583.0</ele>
  <time>2026-08-28T17:49:24Z</time>
  <course>245.54</course>
  <speed>0.02</speed>
  <fix>3d</fix>
</trkpt>
<trkpt lat="40.0713749" lon="-105.229789">
  <ele>1583.0</ele>
  <time>2026-08-28T17:49:24Z</time>
  <course>0.0</course>
  <speed>0.0</speed>
  <fix>3d</fix>
</trkpt>
<trkpt lat="40.0713748" lon="-105.229789">
  <ele>1583.0</ele>
  <time>2026-08-28T17:49:24Z</time>
  <course>245.53</course>
  <speed>0.02</speed>
  <fix>3d</fix>
</trkpt>
<trkpt lat="40.0713749" lon="-105.229789">
  <ele>1583.0</ele>
  <time>2026-08-28T17:49:24Z</time>
  <course>0.0</course>
  <speed>0.0</speed>
  <fix>3d</fix>
</trkpt>
<trkpt lat="40.0713748" lon="-105.229789">
  <ele>1583.01</ele>
  <time>2026-08-28T17:49:24Z</time>
  <course>245.53</course>
  <speed>0.02</speed>
  <fix>3d</fix>
</trkpt>
<trkpt lat="40.0713749" lon="-105.229789">
  <ele>1583.0</ele>
  <time>2026-08-28T17:49:24Z</time>
  <course>0.0</course>
  <speed>0.0</speed>
  <fix>3d</fix>
</trkpt>
<trkpt lat="40.0713748" lon="-105.229789">
  <ele>1583.01</ele>
  <time>2026-08-28T17:49:24Z</time>
  <course>245.53</course>
  <speed>0.02</speed>
  <fix>3d</fix>
</trkpt>
<trkpt lat="40.0713749" lon="-105.229789">
  <ele>1583.0</ele>
  <time>2026-08-28T17:49:24Z</time>
  <course>0.0</course>
  <speed>0.0</speed>
  <fix>3d</fix>
</trkpt>
<trkpt lat="40.0713748" lon="-105.229789">
  <ele>1583.02</ele>
  <time>2026-08-28T17:49:24Z</time>
  <course>245.53</course>
  <speed>0.02</speed>
  <fix>3d</fix>
</trkpt>
<trkpt lat="40.0713749" lon="-105.229789">
  <ele>1583.0</ele>
  <time>2026-08-28T17:49:24Z</time>
  <course>0.0</course>
  <speed>0.0</speed>
  <fix>3d</fix>
</trkpt>
<trkpt lat="40.0713748" lon="-105.229789">
  <ele>1583.02</ele>
  <time>2026-08-28T17:49:24Z</time>
  <course>245.53</course>
  <speed>0.02</speed>
  <fix>3d</fix>
</trkpt>
<trkpt lat="40.0713749" lon="-105.229789">
  <ele>1583.0</ele>
  <time>2026-08-28T17:49:24Z</time>
  <course>0.0</course>
  <speed>0.0</speed>
  <fix>3d</fix>
</trkpt>
<trkpt lat="40.0713748" lon="-105.229789">
  <ele>1583.03</ele>
  <time>2026-08-28T17:49:24Z</time>
  <course>245.53</course>
  <speed>0.02</speed>
  <fix>3d</fix>
</trkpt>
<trkpt lat="40.0713749" lon="-105.229789">
  <ele>1583.0</ele>
  <time>2026-08-28T17:49:24Z</time>
  <course>0.0</course>
  <speed>0.0</speed>
  <fix>3d</fix>
</trkpt>
<trkpt lat="40.0713748" lon="-105.229789">
  <ele>1583.03</ele>
  <time>2026-08-28T17:49:24Z</time>
  <course>245.52</course>
  <speed>0.02</speed>
  <fix>3d</fix>
</trkpt>
<trkpt lat="40.0713749" lon="-105.229789">
  <ele>1583.0</ele>
  <time>2026-08-28T17:49:24Z</time>
  <course>0.0</course>
  <speed>0.0</speed>
  <fix>3d</fix>
</trkpt>
<trkpt lat="40.0713748" lon="-105.229789">
  <ele>1583.04</ele>
  <time>2026-08-28T17:49:24Z</time>
  <course>245.52</course>
  <speed>0.02</speed>
  <fix>3d</fix>
</trkpt>
<trkpt lat="40.0713749" lon="-105.229789">
  <ele>1583.0</ele>
  <time>2026-08-28T17:49:24Z</time>
  <course>0.0</course>
  <speed>0.0</speed>
  <fix>3d</fix>
</trkpt>
<trkpt lat="40.0713748" lon="-105.229789">
  <ele>1583.04</ele>
  <time>2026-08-28T17:49:24Z</time>
  <course>245.52</course>
  <speed>0.02</speed>
  <fix>3d</fix>
</trkpt>
<trkpt lat="40.0713749" lon="-105.229789">
  <ele>1583.0</ele>
  <time>2026-08-28T17:49:24Z</time>
  <course>0.0</course>
  <speed>0.0</speed>
  <fix>3d</fix>
</trkpt>
<trkpt lat="40.0713748" lon="-105.229789">
  <ele>1583.03</ele>
  <time>2026-08-28T17:49:24Z</time>
  <course>245.52</course>
  <speed>0.02</speed>
  <fix>3d</fix>
</trkpt>
<trkpt lat="40.0713749" lon="-105.229789">
  <ele>1583.0</ele>
  <time>2026-08-28T17:49:24Z</time>
  <course>0.0</course>
  <speed>0.0</speed>
  <fix>3d</fix>
</trkpt>
<trkpt lat="40.0713748" lon="-105.229789">
  <ele>1583.03</ele>
  <time>2026-08-28T17:49:24Z</time>
  <course>245.52</course>
  <speed>0.02</speed>
  <fix>3d</fix>
</trkpt>
<trkpt lat="40.0713749" lon="-105.229789">
  <ele>1583.0</ele>
  <time>2026-08-28T17:49:24Z</time>
  <course>0.0</course>
  <speed>0.0</speed>
  <fix>3d</fix>
</trkpt>
<trkpt lat="40.0713748" lon="-105.229789">
  <ele>1583.02</ele>
  <time>2026-08-28T17:49:24Z</time>
  <course>245.51</course>
  <speed>0.02</speed>
  <fix>3d</fix>
</trkpt>
<trkpt lat="40.0713749" lon="-105.229789">
  <ele>1583.0</ele>
  <time>2026-08-28T17:49:24Z</time>
  <course>0.0</course>
  <speed>0.0</speed>
  <fix>3d</fix>
</trkpt>
<trkpt lat="40.0713748" lon="-105.229789">
  <ele>1583.02</ele>
  <time>2026-08-28T17:49:24Z</time>
  <course>245.51</course>
  <speed>0.02</speed>
  <fix>3d</fix>
</trkpt>
<trkpt lat="40.0713749" lon="-105.229789">
  <ele>1583.0</ele>
  <time>2026-08-28T17:49:24Z</time>
  <course>0.0</course>
  <speed>0.0</speed>
  <fix>3d</fix>
</trkpt>
<trkpt lat="40.0713748" lon="-105.229789">
  <ele>1583.02</ele>
  <time>2026-08-28T17:49:24Z</time>
  <course>245.51</course>
  <speed>0.02</speed>
  <fix>3d</fix>
</trkpt>
<trkpt lat="40.0713749" lon="-105.229789">
  <ele>1583.0</ele>
  <time>2026-08-28T17:49:24Z</time>
  <course>0.0</course>
  <speed>0.0</speed>
  <fix>3d</fix>
</trkpt>
<trkpt lat="40.0713747" lon="-105.229789">
  <ele>1583.01</ele>
  <time>2026-08-28T17:49:24Z</time>
  <course>245.51</course>
  <speed>0.02</speed>
  <fix>3d</fix>
</trkpt>
<trkpt lat="40.0713749" lon="-105.229789">
  <ele>1583.0</ele>
  <time>2026-08-28T17:49:24Z</time>
  <course>0.0</course>
  <speed>0.0</speed>
  <fix>3d</fix>
</trkpt>
<trkpt lat="40.0713748" lon="-105.229789">
  <ele>1583.0</ele>
  <time>2026-08-28T17:49:24Z</time>
  <course>245.51</course>
  <speed>0.02</speed>
  <fix>3d</fix>
</trkpt>
<trkpt lat="40.0713749" lon="-105.229789">
  <ele>1583.0</ele>
  <time>2026-08-28T17:49:24Z</time>
  <course>0.0</course>
  <speed>0.0</speed>
  <fix>3d</fix>
</trkpt>
<trkpt lat="40.0713747" lon="-105.229789">
  <ele>1583.0</ele>
  <time>2026-08-28T17:49:24Z</time>
  <course>245.5</course>
  <speed>0.02</speed>
  <fix>3d</fix>
</trkpt>
<trkpt lat="40.0713749" lon="-105.229789">
  <ele>1583.0</ele>
  <time>2026-08-28T17:49:24Z</time>
  <course>0.0</course>
  <speed>0.0</speed>
  <fix>3d</fix>
</trkpt>
<trkpt lat="40.0713748" lon="-105.229789">
  <ele>1583.0</ele>
  <time>2026-08-28T17:49:24Z</time>
  <course>245.5</course>
  <speed>0.02</speed>
  <fix>3d</fix>
</trkpt>
<trkpt lat="40.0713749" lon="-105.229789">
  <ele>1583.0</ele>
  <time>2026-08-28T17:49:24Z</time>
  <course>0.0</course>
  <speed>0.0</speed>
  <fix>3d</fix>
</trkpt>
<trkpt lat="40.0713747" lon="-105.229789">
  <ele>1583.0</ele>
  <time>2026-08-28T17:49:24Z</time>
  <course>245.5</course>
  <speed>0.02</speed>
  <fix>3d</fix>
</trkpt>
<trkpt lat="40.0713749" lon="-105.229789">
  <ele>1583.0</ele>
  <time>2026-08-28T17:49:24Z</time>
  <course>0.0</course>
  <speed>0.0</speed>
  <fix>3d</fix>
</trkpt>
<trkpt lat="40.0713748" lon="-105.229789">
  <ele>1583.0</ele>
  <time>2026-08-28T17:49:24Z</time>
  <course>245.5</course>
  <speed>0.02</speed>
  <fix>3d</fix>
</trkpt>
<trkpt lat="40.0713749" lon="-105.229789">
  <ele>1583.0</ele>
  <time>2026-08-28T17:49:24Z</time>
  <course>0.0</course>
  <speed>0.0</speed>
  <fix>3d</fix>
</trkpt>
<trkpt lat="40.0713747" lon="-105.229789">
  <ele>1583.01</ele>
  <time>2026-08-28T17:49:24Z</time>
  <course>245.5</course>
  <speed>0.02</speed>
  <fix>3d</fix>
</trkpt>
<trkpt lat="40.0713749" lon="-105.229789">
  <ele>1583.0</ele>
  <time>2026-08-28T17:49:24Z</time>
  <course>0.0</course>
  <speed>0.0</speed>
  <fix>3d</fix>
</trkpt>
<trkpt lat="40.0713748" lon="-105.229789">
  <ele>1583.02</ele>
  <time>2026-08-28T17:49:24Z</time>
  <course>245.5</course>
  <speed>0.02</speed>
  <fix>3d</fix>
</trkpt>
<trkpt lat="40.0713749" lon="-105.229789">
  <ele>1583.0</ele>
  <time>2026-08-28T17:49:24Z</time>
  <course>0.0</course>
  <speed>0.0</speed>
  <fix>3d</fix>
</trkpt>
<trkpt lat="40.0713748" lon="-105.229789">
  <ele>1583.03</ele>
  <time>2026-08-28T17:49:24Z</time>
  <course>245.49</course>
  <speed>0.02</speed>
  <fix>3d</fix>
</trkpt>
<trkpt lat="40.0713749" lon="-105.229789">
  <ele>1583.0</ele>
  <time>2026-08-28T17:49:24Z</time>
  <course>0.0</course>
  <speed>0.0</speed>
  <fix>3d</fix>
</trkpt>
<trkpt lat="40.0713748" lon="-105.229789">
  <ele>1583.03</ele>
  <time>2026-08-28T17:49:24Z</time>
  <course>245.49</course>
  <speed>0.02</speed>
  <fix>3d</fix>
</trkpt>
<trkpt lat="40.0713749" lon="-105.229789">
  <ele>1583.0</ele>
  <time>2026-08-28T17:49:24Z</time>
  <course>0.0</course>
  <speed>0.0</speed>
  <fix>3d</fix>
</trkpt>
<trkpt lat="40.0713748" lon="-105.229789">
  <ele>1583.04</ele>
  <time>2026-08-28T17:49:24Z</time>
  <course>245.49</course>
  <speed>0.02</speed>
  <fix>3d</fix>
</trkpt>
<trkpt lat="40.0713749" lon="-105.229789">
  <ele>1583.0</ele>
  <time>2026-08-28T17:49:24Z</time>
  <course>0.0</course>
  <speed>0.0</speed>
  <fix>3d</fix>
</trkpt>
<trkpt lat="40.0713748" lon="-105.229789">
  <ele>1583.05</ele>
  <time>2026-08-28T17:49:24Z</time>
  <course>245.49</course>
  <speed>0.02</speed>
  <fix>3d</fix>
</trkpt>
<trkpt lat="40.0713749" lon="-105.229789">
  <ele>1583.0</ele>
  <time>2026-08-28T17:49:24Z</time>
  <course>0.0</course>
  <speed>0.0</speed>
  <fix>3d</fix>
</trkpt>
<trkpt lat="40.0713748" lon="-105.229789">
  <ele>1583.05</ele>
  <time>2026-08-28T17:49:24Z</time>
  <course>245.49</course>
  <speed>0.02</speed>
  <fix>3d</fix>
</trkpt>
<trkpt lat="40.0713749" lon="-105.229789">
  <ele>1583.0</ele>
  <time>2026-08-28T17:49:24Z</time>
  <course>0.0</course>
  <speed>0.0</speed>
  <fix>3d</fix>
</trkpt>
<trkpt lat="40.0713748" lon="-105.229789">
  <ele>1583.05</ele>
  <time>2026-08-28T17:49:24Z</time>
  <course>245.48</course>
  <speed>0.02</speed>
  <fix>3d</fix>
</trkpt>
<trkpt lat="40.0713749" lon="-105.229789">
  <ele>1583.0</ele>
  <time>2026-08-28T17:49:24Z</time>
  <course>0.0</course>
  <speed>0.0</speed>
  <fix>3d</fix>
</trkpt>
<trkpt lat="40.0713748" lon="-105.229789">
  <ele>1583.05</ele>
  <time>2026-08-28T17:49:24Z</time>
  <course>245.48</course>
  <speed>0.02</speed>
  <fix>3d</fix>
</trkpt>
<trkpt lat="40.0713749" lon="-105.229789">
  <ele>1583.0</ele>
  <time>2026-08-28T17:49:24Z</time>
  <course>0.0</course>
  <speed>0.0</speed>
  <fix>3d</fix>
</trkpt>
<trkpt lat="40.0713748" lon="-105.229789">
  <ele>1583.05</ele>
  <time>2026-08-28T17:49:24Z</time>
  <course>245.48</course>
  <speed>0.02</speed>
  <fix>3d</fix>
</trkpt>
<trkpt lat="40.0713749" lon="-105.229789">
  <ele>1583.0</ele>
  <time>2026-08-28T17:49:24Z</time>
  <course>0.0</course>
  <speed>0.0</speed>
  <fix>3d</fix>
</trkpt>
<trkpt lat="40.0713748" lon="-105.229789">
  <ele>1583.04</ele>
  <time>2026-08-28T17:49:24Z</time>
  <course>245.48</course>
  <speed>0.02</speed>
  <fix>3d</fix>
</trkpt>
<trkpt lat="40.0713749" lon="-105.229789">
  <ele>1583.0</ele>
  <time>2026-08-28T17:49:24Z</time>
  <course>0.0</course>
  <speed>0.0</speed>
  <fix>3d</fix>
</trkpt>
<trkpt lat="40.0713748" lon="-105.229789">
  <ele>1583.04</ele>
  <time>2026-08-28T17:49:24Z</time>
  <course>245.48</course>
  <speed>0.02</speed>
  <fix>3d</fix>
</trkpt>
<trkpt lat="40.0713749" lon="-105.229789">
  <ele>1583.0</ele>
  <time>2026-08-28T17:49:24Z</time>
  <course>0.0</course>
  <speed>0.0</speed>
  <fix>3d</fix>
</trkpt>
<trkpt lat="40.0713747" lon="-105.229789">
  <ele>1583.03</ele>
  <time>2026-08-28T17:49:24Z</time>
  <course>245.48</course>
  <speed>0.02</speed>
  <fix>3d</fix>
</trkpt>
<trkpt lat="40.0713749" lon="-105.229789">
  <ele>1583.0</ele>
  <time>2026-08-28T17:49:24Z</time>
  <course>0.0</course>
  <speed>0.0</speed>
  <fix>3d</fix>
</trkpt>
<trkpt lat="40.0713748" lon="-105.229789">
  <ele>1583.03</ele>
  <time>2026-08-28T17:49:24Z</time>
  <course>245.47</course>
  <speed>0.02</speed>
  <fix>3d</fix>
</trkpt>
<trkpt lat="40.0713749" lon="-105.229789">
  <ele>1583.0</ele>
  <time>2026-08-28T17:49:24Z</time>
  <course>0.0</course>
  <speed>0.0</speed>
  <fix>3d</fix>
</trkpt>
<trkpt lat="40.0713747" lon="-105.229789">
  <ele>1583.02</ele>
  <time>2026-08-28T17:49:24Z</time>
  <course>245.47</course>
  <speed>0.02</speed>
  <fix>3d</fix>
</trkpt>
<trkpt lat="40.0713749" lon="-105.229789">
  <ele>1583.0</ele>
  <time>2026-08-28T17:49:24Z</time>
  <course>0.0</course>
  <speed>0.0</speed>
  <fix>3d</fix>
</trkpt>
<trkpt lat="40.0713748" lon="-105.229789">
  <ele>1583.02</ele>
  <time>2026-08-28T17:49:24Z</time>
  <course>245.47</course>
  <speed>0.02</speed>
  <fix>3d</fix>
</trkpt>
<trkpt lat="40.0713749" lon="-105.229789">
  <ele>1583.0</ele>
  <time>2026-08-28T17:49:24Z</time>
  <course>0.0</course>
  <speed>0.0</speed>
  <fix>3d</fix>
</trkpt>
<trkpt lat="40.0713747" lon="-105.229789">
  <ele>1583.01</ele>
  <time>2026-08-28T17:49:24Z</time>
  <course>245.47</course>
  <speed>0.02</speed>
  <fix>3d</fix>
</trkpt>
<trkpt lat="40.0713749" lon="-105.229789">
  <ele>1583.0</ele>
  <time>2026-08-28T17:49:24Z</time>
  <course>0.0</course>
  <speed>0.0</speed>
  <fix>3d</fix>
</trkpt>
<trkpt lat="40.0713748" lon="-105.229789">
  <ele>1583.01</ele>
  <time>2026-08-28T17:49:24Z</time>
  <course>245.47</course>
  <speed>0.02</speed>
  <fix>3d</fix>
</trkpt>
<trkpt lat="40.0713749" lon="-105.229789">
  <ele>1583.0</ele>
  <time>2026-08-28T17:49:24Z</time>
  <course>0.0</course>
  <speed>0.0</speed>
  <fix>3d</fix>
</trkpt>
<trkpt lat="40.0713747" lon="-105.229789">
  <ele>1583.01</ele>
  <time>2026-08-28T17:49:24Z</time>
  <course>245.46</course>
  <speed>0.02</speed>
  <fix>3d</fix>
</trkpt>
<trkpt lat="40.0713749" lon="-105.229789">
  <ele>1583.0</ele>
  <time>2026-08-28T17:49:24Z</time>
  <course>0.0</course>
  <speed>0.0</speed>
  <fix>3d</fix>
</trkpt>
<trkpt lat="40.0713748" lon="-105.229789">
  <ele>1583.01</ele>
  <time>2026-08-28T17:49:24Z</time>
  <course>245.46</course>
  <speed>0.02</speed>
  <fix>3d</fix>
</trkpt>
<trkpt lat="40.0713749" lon="-105.229789">
  <ele>1583.0</ele>
  <time>2026-08-28T17:49:24Z</time>
  <course>0.0</course>
  <speed>0.0</speed>
  <fix>3d</fix>
</trkpt>
<trkpt lat="40.0713747" lon="-105.229789">
  <ele>1583.01</ele>
  <time>2026-08-28T17:49:24Z</time>
  <course>245.46</course>
  <speed>0.02</speed>
  <fix>3d</fix>
</trkpt>
<trkpt lat="40.0713749" lon="-105.229789">
  <ele>1583.0</ele>
  <time>2026-08-28T17:49:24Z</time>
  <course>0.0</course>
  <speed>0.0</speed>
  <fix>3d</fix>
</trkpt>
<trkpt lat="40.0713748" lon="-105.229789">
  <ele>1583.01</ele>
  <time>2026-08-28T17:49:24Z</time>
  <course>245.46</course>
  <speed>0.02</speed>
  <fix>3d</fix>
</trkpt>
<trkpt lat="40.0713749" lon="-105.229789">
  <ele>1583.0</ele>
  <time>2026-08-28T17:49:24Z</time>
  <course>0.0</course>
  <speed>0.0</speed>
  <fix>3d</fix>
</trkpt>
<trkpt lat="40.0713747" lon="-105.229789">
  <ele>1583.02</ele>
  <time>2026-08-28T17:49:24Z</time>
  <course>245.46</course>
  <speed>0.02</speed>
  <fix>3d</fix>
</trkpt>
<trkpt lat="40.0713749" lon="-105.229789">
  <ele>1583.0</ele>
  <time>2026-08-28T17:49:24Z</time>
  <course>0.0</course>
  <speed>0.0</speed>
  <fix>3d</fix>
</trkpt>
<trkpt lat="40.0713748" lon="-105.229789">
  <ele>1583.02</ele>
  <time>2026-08-28T17:49:24Z</time>
  <course>245.46</course>
  <speed>0.02</speed>
  <fix>3d</fix>
</trkpt>
<trkpt lat="40.0713749" lon="-105.229789">
  <ele>1583.0</ele>
  <time>2026-08-28T17:49:24Z</time>
  <course>0.0</course>
  <speed>0.0</speed>
  <fix>3d</fix>
</trkpt>
<trkpt lat="40.0713748" lon="-105.229789">
  <ele>1583.03</ele>
  <time>2026-08-28T17:49:24Z</time>
  <course>245.45</course>
  <speed>0.02</speed>
  <fix>3d</fix>
</trkpt>
<trkpt lat="40.0713749" lon="-105.229789">
  <ele>1583.0</ele>
  <time>2026-08-28T17:49:24Z</time>
  <course>0.0</course>
  <speed>0.0</speed>
  <fix>3d</fix>
</trkpt>
<trkpt lat="40.0713748" lon="-105.229789">
  <ele>1583.04</ele>
  <time>2026-08-28T17:49:24Z</time>
  <course>245.45</course>
  <speed>0.02</speed>
  <fix>3d</fix>
</trkpt>
<trkpt lat="40.0713749" lon="-105.229789">
  <ele>1583.0</ele>
  <time>2026-08-28T17:49:24Z</time>
  <course>0.0</course>
  <speed>0.0</speed>
  <fix>3d</fix>
</trkpt>
<trkpt lat="40.0713748" lon="-105.229789">
  <ele>1583.04</ele>
  <time>2026-08-28T17:49:24Z</time>
  <course>245.45</course>
  <speed>0.02</speed>
  <fix>3d</fix>
</trkpt>
<trkpt lat="40.0713749" lon="-105.229789">
  <ele>1583.0</ele>
  <time>2026-08-28T17:49:24Z</time>
  <course>0.0</course>
  <speed>0.0</speed>
  <fix>3d</fix>
</trkpt>
<trkpt lat="40.0713748" lon="-105.229789">
  <ele>1583.04</ele>
  <time>2026-08-28T17:49:24Z</time>
  <course>245.45</course>
  <speed>0.02</speed>
  <fix>3d</fix>
</trkpt>
<trkpt lat="40.0713749" lon="-105.229789">
  <ele>1583.0</ele>
  <time>2026-08-28T17:49:24Z</time>
  <course>0.0</course>
  <speed>0.0</speed>
  <fix>3d</fix>
</trkpt>
<trkpt lat="40.0713748" lon="-105.229789">
  <ele>1583.05</ele>
  <time>2026-08-28T17:49:24Z</time>
  <course>245.45</course>
  <speed>0.02</speed>
  <fix>3d</fix>
</trkpt>
<trkpt lat="40.0713749" lon="-105.229789">
  <ele>1583.0</ele>
  <time>2026-08-28T17:49:24Z</time>
  <course>0.0</course>
  <speed>0.0</speed>
  <fix>3d</fix>
</trkpt>
<trkpt lat="40.0713748" lon="-105.229789">
  <ele>1583.05</ele>
  <time>2026-08-28T17:49:24Z</time>
  <course>245.44</course>
  <speed>0.02</speed>
  <fix>3d</fix>
</trkpt>
<trkpt lat="40.0713749" lon="-105.229789">
  <ele>1583.0</ele>
  <time>2026-08-28T17:49:24Z</time>
  <course>0.0</course>
  <speed>0.0</speed>
  <fix>3d</fix>
</trkpt>
<trkpt lat="40.0713748" lon="-105.229789">
  <ele>1583.05</ele>
  <time>2026-08-28T17:49:24Z</time>
  <course>245.44</course>
  <speed>0.02</speed>
  <fix>3d</fix>
</trkpt>
<trkpt lat="40.0713749" lon="-105.229789">
  <ele>1583.0</ele>
  <time>2026-08-28T17:49:24Z</time>
  <course>0.0</course>
  <speed>0.0</speed>
  <fix>3d</fix>
</trkpt>
<trkpt lat="40.0713748" lon="-105.229789">
  <ele>1583.05</ele>
  <time>2026-08-28T17:49:24Z</time>
  <course>245.44</course>
  <speed>0.02</speed>
  <fix>3d</fix>
</trkpt>
<trkpt lat="40.0713749" lon="-105.229789">
  <ele>1583.0</ele>
  <time>2026-08-28T17:49:24Z</time>
  <course>0.0</course>
  <speed>0.0</speed>
  <fix>3d</fix>
</trkpt>
<trkpt lat="40.0713747" lon="-105.229789">
  <ele>1583.05</ele>
  <time>2026-08-28T17:49:24Z</time>
  <course>245.44</course>
  <speed>0.02</speed>
  <fix>3d</fix>
</trkpt>
<trkpt lat="40.0713749" lon="-105.229789">
  <ele>1583.0</ele>
  <time>2026-08-28T17:49:24Z</time>
  <course>0.0</course>
  <speed>0.0</speed>
  <fix>3d</fix>
</trkpt>
<trkpt lat="40.0713748" lon="-105.229789">
  <ele>1583.05</ele>
  <time>2026-08-28T17:49:24Z</time>
  <course>245.44</course>
  <speed>0.02</speed>
  <fix>3d</fix>
</trkpt>
<trkpt lat="40.0713749" lon="-105.229789">
  <ele>1583.0</ele>
  <time>2026-08-28T17:49:24Z</time>
  <course>0.0</course>
  <speed>0.0</speed>
  <fix>3d</fix>
</trkpt>
<trkpt lat="40.0713747" lon="-105.229789">
  <ele>1583.04</ele>
  <time>2026-08-28T17:49:24Z</time>
  <course>245.44</course>
  <speed>0.02</speed>
  <fix>3d</fix>
</trkpt>
<trkpt lat="40.0713749" lon="-105.229789">
  <ele>1583.0</ele>
  <time>2026-08-28T17:49:24Z</time>
  <course>0.0</course>
  <speed>0.0</speed>
  <fix>3d</fix>
</trkpt>
<trkpt lat="40.0713748" lon="-105.229789">
  <ele>1583.04</ele>
  <time>2026-08-28T17:49:24Z</time>
  <course>245.43</course>
  <speed>0.02</speed>
  <fix>3d</fix>
</trkpt>
<trkpt lat="40.0713749" lon="-105.229789">
  <ele>1583.0</ele>
  <time>2026-08-28T17:49:24Z</time>
  <course>0.0</course>
  <speed>0.0</speed>
  <fix>3d</fix>
</trkpt>
<trkpt lat="40.0713747" lon="-105.229789">
  <ele>1583.04</ele>
  <time>2026-08-28T17:49:24Z</time>
  <course>245.43</course>
  <speed>0.02</speed>
  <fix>3d</fix>
</trkpt>
<trkpt lat="40.0713749" lon="-105.229789">
  <ele>1583.0</ele>
  <time>2026-08-28T17:49:24Z</time>
  <course>0.0</course>
  <speed>0.0</speed>
  <fix>3d</fix>
</trkpt>
<trkpt lat="40.0713748" lon="-105.229789">
  <ele>1583.04</ele>
  <time>2026-08-28T17:49:24Z</time>
  <course>245.43</course>
  <speed>0.02</speed>
  <fix>3d</fix>
</trkpt>
<trkpt lat="40.0713749" lon="-105.229789">
  <ele>1583.0</ele>
  <time>2026-08-28T17:49:24Z</time>
  <course>0.0</course>
  <speed>0.0</speed>
  <fix>3d</fix>
</trkpt>
<trkpt lat="40.0713747" lon="-105.229789">
  <ele>1583.03</ele>
  <time>2026-08-28T17:49:24Z</time>
  <course>245.43</course>
  <speed>0.02</speed>
  <fix>3d</fix>
</trkpt>
<trkpt lat="40.0713749" lon="-105.229789">
  <ele>1583.0</ele>
  <time>2026-08-28T17:49:24Z</time>
  <course>0.0</course>
  <speed>0.0</speed>
  <fix>3d</fix>
</trkpt>
<trkpt lat="40.0713748" lon="-105.229789">
  <ele>1583.03</ele>
  <time>2026-08-28T17:49:24Z</time>
  <course>245.43</course>
  <speed>0.02</speed>
  <fix>3d</fix>
</trkpt>
<trkpt lat="40.0713749" lon="-105.229789">
  <ele>1583.0</ele>
  <time>2026-08-28T17:49:24Z</time>
  <course>0.0</course>
  <speed>0.0</speed>
  <fix>3d</fix>
</trkpt>
<trkpt lat="40.0713747" lon="-105.229789">
  <ele>1583.03</ele>
  <time>2026-08-28T17:49:24Z</time>
  <course>245.43</course>
  <speed>0.02</speed>
  <fix>3d</fix>
</trkpt>
<trkpt lat="40.0713749" lon="-105.229789">
  <ele>1583.0</ele>
  <time>2026-08-28T17:49:24Z</time>
  <course>0.0</course>
  <speed>0.0</speed>
  <fix>3d</fix>
</trkpt>
<trkpt lat="40.0713748" lon="-105.229789">
  <ele>1583.03</ele>
  <time>2026-08-28T17:49:24Z</time>
  <course>245.42</course>
  <speed>0.02</speed>
  <fix>3d</fix>
</trkpt>
<trkpt lat="40.0713749" lon="-105.229789">
  <ele>1583.0</ele>
  <time>2026-08-28T17:49:24Z</time>
  <course>0.0</course>
  <speed>0.0</speed>
  <fix>3d</fix>
</trkpt>
<trkpt lat="40.0713747" lon="-105.229789">
  <ele>1583.03</ele>
  <time>2026-08-28T17:49:24Z</time>
  <course>245.42</course>
  <speed>0.02</speed>
  <fix>3d</fix>
</trkpt>
<trkpt lat="40.0713749" lon="-105.229789">
  <ele>1583.0</ele>
  <time>2026-08-28T17:49:24Z</time>
  <course>0.0</course>
  <speed>0.0</speed>
  <fix>3d</fix>
</trkpt>
<trkpt lat="40.0713748" lon="-105.229789">
  <ele>1583.02</ele>
  <time>2026-08-28T17:49:24Z</time>
  <course>245.42</course>
  <speed>0.02</speed>
  <fix>3d</fix>
</trkpt>
<trkpt lat="40.0713749" lon="-105.229789">
  <ele>1583.0</ele>
  <time>2026-08-28T17:49:24Z</time>
  <course>0.0</course>
  <speed>0.0</speed>
  <fix>3d</fix>
</trkpt>
<trkpt lat="40.0713747" lon="-105.229789">
  <ele>1583.02</ele>
  <time>2026-08-28T17:49:24Z</time>
  <course>245.42</course>
  <speed>0.02</speed>
  <fix>3d</fix>
</trkpt>
<trkpt lat="40.0713749" lon="-105.229789">
  <ele>1583.0</ele>
  <time>2026-08-28T17:49:24Z</time>
  <course>0.0</course>
  <speed>0.0</speed>
  <fix>3d</fix>
</trkpt>
<trkpt lat="40.0713748" lon="-105.229789">
  <ele>1583.01</ele>
  <time>2026-08-28T17:49:24Z</time>
  <course>245.42</course>
  <speed>0.02</speed>
  <fix>3d</fix>
</trkpt>
<trkpt lat="40.0713749" lon="-105.229789">
  <ele>1583.0</ele>
  <time>2026-08-28T17:49:24Z</time>
  <course>0.0</course>
  <speed>0.0</speed>
  <fix>3d</fix>
</trkpt>
<trkpt lat="40.0713748" lon="-105.229789">
  <ele>1583.01</ele>
  <time>2026-08-28T17:49:24Z</time>
  <course>245.42</course>
  <speed>0.02</speed>
  <fix>3d</fix>
</trkpt>
<trkpt lat="40.0713749" lon="-105.229789">
  <ele>1583.0</ele>
  <time>2026-08-28T17:49:24Z</time>
  <course>0.0</course>
  <speed>0.0</speed>
  <fix>3d</fix>
</trkpt>
<trkpt lat="40.0713748" lon="-105.229789">
  <ele>1583.01</ele>
  <time>2026-08-28T17:49:24Z</time>
  <course>245.41</course>
  <speed>0.02</speed>
  <fix>3d</fix>
</trkpt>
<trkpt lat="40.0713749" lon="-105.229789">
  <ele>1583.0</ele>
  <time>2026-08-28T17:49:24Z</time>
  <course>0.0</course>
  <speed>0.0</speed>
  <fix>3d</fix>
</trkpt>
<trkpt lat="40.0713748" lon="-105.229789">
  <ele>1583.02</ele>
  <time>2026-08-28T17:49:24Z</time>
  <course>245.41</course>
  <speed>0.02</speed>
  <fix>3d</fix>
</trkpt>
<trkpt lat="40.0713749" lon="-105.229789">
  <ele>1583.0</ele>
  <time>2026-08-28T17:49:24Z</time>
  <course>0.0</course>
  <speed>0.0</speed>
  <fix>3d</fix>
</trkpt>
<trkpt lat="40.0713748" lon="-105.229789">
  <ele>1583.02</ele>
  <time>2026-08-28T17:49:24Z</time>
  <course>245.41</course>
  <speed>0.02</speed>
  <fix>3d</fix>
</trkpt>
<trkpt lat="40.0713749" lon="-105.229789">
  <ele>1583.0</ele>
  <time>2026-08-28T17:49:24Z</time>
  <course>0.0</course>
  <speed>0.0</speed>
  <fix>3d</fix>
</trkpt>
<trkpt lat="40.0713747" lon="-105.229789">
  <ele>1583.03</ele>
  <time>2026-08-28T17:49:24Z</time>
  <course>245.41</course>
  <speed>0.02</speed>
  <fix>3d</fix>
</trkpt>
<trkpt lat="40.0713749" lon="-105.229789">
  <ele>1583.0</ele>
  <time>2026-08-28T17:49:24Z</time>
  <course>0.0</course>
  <speed>0.0</speed>
  <fix>3d</fix>
</trkpt>
<trkpt lat="40.0713748" lon="-105.229789">
  <ele>1583.03</ele>
  <time>2026-08-28T17:49:24Z</time>
  <course>245.41</course>
  <speed>0.02</speed>
  <fix>3d</fix>
</trkpt>
<trkpt lat="40.0713749" lon="-105.229789">
  <ele>1583.0</ele>
  <time>2026-08-28T17:49:24Z</time>
  <course>0.0</course>
  <speed>0.0</speed>
  <fix>3d</fix>
</trkpt>
<trkpt lat="40.0713747" lon="-105.229789">
  <ele>1583.04</ele>
  <time>2026-08-28T17:49:24Z</time>
  <course>245.41</course>
  <speed>0.02</speed>
  <fix>3d</fix>
</trkpt>
<trkpt lat="40.0713749" lon="-105.229789">
  <ele>1583.0</ele>
  <time>2026-08-28T17:49:24Z</time>
  <course>0.0</course>
  <speed>0.0</speed>
  <fix>3d</fix>
</trkpt>
<trkpt lat="40.0713748" lon="-105.229789">
  <ele>1583.04</ele>
  <time>2026-08-28T17:49:24Z</time>
  <course>245.4</course>
  <speed>0.02</speed>
  <fix>3d</fix>
</trkpt>
<trkpt lat="40.0713749" lon="-105.229789">
  <ele>1583.0</ele>
  <time>2026-08-28T17:49:24Z</time>
  <course>0.0</course>
  <speed>0.0</speed>
  <fix>3d</fix>
</trkpt>
<trkpt lat="40.0713747" lon="-105.229789">
  <ele>1583.05</ele>
  <time>2026-08-28T17:49:24Z</time>
  <course>245.4</course>
  <speed>0.02</speed>
  <fix>3d</fix>
</trkpt>
<trkpt lat="40.0713749" lon="-105.229789">
  <ele>1583.0</ele>
  <time>2026-08-28T17:49:24Z</time>
  <course>0.0</course>
  <speed>0.0</speed>
  <fix>3d</fix>
</trkpt>
<trkpt lat="40.0713748" lon="-105.229789">
  <ele>1583.05</ele>
  <time>2026-08-28T17:49:24Z</time>
  <course>245.4</course>
  <speed>0.02</speed>
  <fix>3d</fix>
</trkpt>
<trkpt lat="40.0713749" lon="-105.229789">
  <ele>1583.0</ele>
  <time>2026-08-28T17:49:24Z</time>
  <course>0.0</course>
  <speed>0.0</speed>
  <fix>3d</fix>
</trkpt>
<trkpt lat="40.0713747" lon="-105.229789">
  <ele>1583.05</ele>
  <time>2026-08-28T17:49:24Z</time>
  <course>245.4</course>
  <speed>0.02</speed>
  <fix>3d</fix>
</trkpt>
<trkpt lat="40.0713749" lon="-105.229789">
  <ele>1583.0</ele>
  <time>2026-08-28T17:49:24Z</time>
  <course>0.0</course>
  <speed>0.0</speed>
  <fix>3d</fix>
</trkpt>
<trkpt lat="40.0713747" lon="-105.229789">
  <ele>1583.05</ele>
  <time>2026-08-28T17:49:24Z</time>
  <course>245.4</course>
  <speed>0.02</speed>
  <fix>3d</fix>
</trkpt>
<trkpt lat="40.0713749" lon="-105.229789">
  <ele>1583.0</ele>
  <time>2026-08-28T17:49:24Z</time>
  <course>0.0</course>
  <speed>0.0</speed>
  <fix>3d</fix>
</trkpt>
<trkpt lat="40.0713747" lon="-105.229789">
  <ele>1583.05</ele>
  <time>2026-08-28T17:49:24Z</time>
  <course>245.4</course>
  <speed>0.02</speed>
  <fix>3d</fix>
</trkpt>
<trkpt lat="40.0713749" lon="-105.229789">
  <ele>1583.0</ele>
  <time>2026-08-28T17:49:24Z</time>
  <course>0.0</course>
  <speed>0.0</speed>
  <fix>3d</fix>
</trkpt>
<trkpt lat="40.0713747" lon="-105.229789">
  <ele>1583.05</ele>
  <time>2026-08-28T17:49:24Z</time>
  <course>245.39</course>
  <speed>0.02</speed>
  <fix>3d</fix>
</trkpt>
<trkpt lat="40.0713749" lon="-105.229789">
  <ele>1583.0</ele>
  <time>2026-08-28T17:49:24Z</time>
  <course>0.0</course>
  <speed>0.0</speed>
  <fix>3d</fix>
</trkpt>
<trkpt lat="40.0713747" lon="-105.229789">
  <ele>1583.05</ele>
  <time>2026-08-28T17:49:24Z</time>
  <course>245.39</course>
  <speed>0.02</speed>
  <fix>3d</fix>
</trkpt>
<trkpt lat="40.0713749" lon="-105.229789">
  <ele>1583.0</ele>
  <time>2026-08-28T17:49:24Z</time>
  <course>0.0</course>
  <speed>0.0</speed>
  <fix>3d</fix>
</trkpt>
<trkpt lat="40.0713747" lon="-105.229789">
  <ele>1583.06</ele>
  <time>2026-08-28T17:49:24Z</time>
  <course>245.39</course>
  <speed>0.02</speed>
  <fix>3d</fix>
</trkpt>
<trkpt lat="40.0713749" lon="-105.229789">
  <ele>1583.0</ele>
  <time>2026-08-28T17:49:24Z</time>
  <course>0.0</course>
  <speed>0.0</speed>
  <fix>3d</fix>
</trkpt>
<trkpt lat="40.0713747" lon="-105.229789">
  <ele>1583.06</ele>
  <time>2026-08-28T17:49:24Z</time>
  <course>245.39</course>
  <speed>0.02</speed>
  <fix>3d</fix>
</trkpt>
<trkpt lat="40.0713749" lon="-105.229789">
  <ele>1583.0</ele>
  <time>2026-08-28T17:49:24Z</time>
  <course>0.0</course>
  <speed>0.0</speed>
  <fix>3d</fix>
</trkpt>
<trkpt lat="40.0713748" lon="-105.229789">
  <ele>1583.07</ele>
  <time>2026-08-28T17:49:24Z</time>
  <course>245.39</course>
  <speed>0.02</speed>
  <fix>3d</fix>
</trkpt>
<trkpt lat="40.0713749" lon="-105.229789">
  <ele>1583.0</ele>
  <time>2026-08-28T17:49:24Z</time>
  <course>0.0</course>
  <speed>0.0</speed>
  <fix>3d</fix>
</trkpt>
<trkpt lat="40.0713747" lon="-105.229789">
  <ele>1583.07</ele>
  <time>2026-08-28T17:49:24Z</time>
  <course>245.39</course>
  <speed>0.02</speed>
  <fix>3d</fix>
</trkpt>
<trkpt lat="40.0713749" lon="-105.229789">
  <ele>1583.0</ele>
  <time>2026-08-28T17:49:24Z</time>
  <course>0.0</course>
  <speed>0.0</speed>
  <fix>3d</fix>
</trkpt>
<trkpt lat="40.0713748" lon="-105.229789">
  <ele>1583.08</ele>
  <time>2026-08-28T17:49:24Z</time>
  <course>245.38</course>
  <speed>0.02</speed>
  <fix>3d</fix>
</trkpt>
<trkpt lat="40.0713749" lon="-105.229789">
  <ele>1583.0</ele>
  <time>2026-08-28T17:49:24Z</time>
  <course>0.0</course>
  <speed>0.0</speed>
  <fix>3d</fix>
</trkpt>
<trkpt lat="40.0713747" lon="-105.229789">
  <ele>1583.08</ele>
  <time>2026-08-28T17:49:24Z</time>
  <course>245.38</course>
  <speed>0.02</speed>
  <fix>3d</fix>
</trkpt>
<trkpt lat="40.0713749" lon="-105.229789">
  <ele>1583.0</ele>
  <time>2026-08-28T17:49:24Z</time>
  <course>0.0</course>
  <speed>0.0</speed>
  <fix>3d</fix>
</trkpt>
<trkpt lat="40.0713748" lon="-105.229789">
  <ele>1583.09</ele>
  <time>2026-08-28T17:49:24Z</time>
  <course>245.38</course>
  <speed>0.02</speed>
  <fix>3d</fix>
</trkpt>
<trkpt lat="40.0713749" lon="-105.229789">
  <ele>1583.0</ele>
  <time>2026-08-28T17:49:24Z</time>
  <course>0.0</course>
  <speed>0.0</speed>
  <fix>3d</fix>
</trkpt>
<trkpt lat="40.0713747" lon="-105.229789">
  <ele>1583.09</ele>
  <time>2026-08-28T17:49:24Z</time>
  <course>245.38</course>
  <speed>0.02</speed>
  <fix>3d</fix>
</trkpt>
<trkpt lat="40.0713749" lon="-105.229789">
  <ele>1583.0</ele>
  <time>2026-08-28T17:49:24Z</time>
  <course>0.0</course>
  <speed>0.0</speed>
  <fix>3d</fix>
</trkpt>
<trkpt lat="40.0713748" lon="-105.229789">
  <ele>1583.1</ele>
  <time>2026-08-28T17:49:24Z</time>
  <course>245.38</course>
  <speed>0.02</speed>
  <fix>3d</fix>
</trkpt>
<trkpt lat="40.0713749" lon="-105.229789">
  <ele>1583.0</ele>
  <time>2026-08-28T17:49:24Z</time>
  <course>0.0</course>
  <speed>0.0</speed>
  <fix>3d</fix>
</trkpt>
<trkpt lat="40.0713747" lon="-105.229789">
  <ele>1583.11</ele>
  <time>2026-08-28T17:49:24Z</time>
  <course>245.38</course>
  <speed>0.02</speed>
  <fix>3d</fix>
</trkpt>
<trkpt lat="40.0713749" lon="-105.229789">
  <ele>1583.0</ele>
  <time>2026-08-28T17:49:24Z</time>
  <course>0.0</course>
  <speed>0.0</speed>
  <fix>3d</fix>
</trkpt>
<trkpt lat="40.0713748" lon="-105.229789">
  <ele>1583.12</ele>
  <time>2026-08-28T17:49:24Z</time>
  <course>245.37</course>
  <speed>0.02</speed>
  <fix>3d</fix>
</trkpt>
<trkpt lat="40.0713749" lon="-105.229789">
  <ele>1583.0</ele>
  <time>2026-08-28T17:49:24Z</time>
  <course>0.0</course>
  <speed>0.0</speed>
  <fix>3d</fix>
</trkpt>
<trkpt lat="40.0713747" lon="-105.229789">
  <ele>1583.12</ele>
  <time>2026-08-28T17:49:24Z</time>
  <course>245.37</course>
  <speed>0.02</speed>
  <fix>3d</fix>
</trkpt>
<trkpt lat="40.0713749" lon="-105.229789">
  <ele>1583.0</ele>
  <time>2026-08-28T17:49:24Z</time>
  <course>0.0</course>
  <speed>0.0</speed>
  <fix>3d</fix>
</trkpt>
<trkpt lat="40.0713748" lon="-105.229789">
  <ele>1583.13</ele>
  <time>2026-08-28T17:49:24Z</time>
  <course>245.37</course>
  <speed>0.02</speed>
  <fix>3d</fix>
</trkpt>
<trkpt lat="40.0713749" lon="-105.229789">
  <ele>1583.0</ele>
  <time>2026-08-28T17:49:24Z</time>
  <course>0.0</course>
  <speed>0.0</speed>
  <fix>3d</fix>
</trkpt>
<trkpt lat="40.0713747" lon="-105.229789">
  <ele>1583.13</ele>
  <time>2026-08-28T17:49:24Z</time>
  <course>245.37</course>
  <speed>0.02</speed>
  <fix>3d</fix>
</trkpt>
<trkpt lat="40.0713749" lon="-105.229789">
  <ele>1583.0</ele>
  <time>2026-08-28T17:49:24Z</time>
  <course>0.0</course>
  <speed>0.0</speed>
  <fix>3d</fix>
</trkpt>
<trkpt lat="40.0713748" lon="-105.229789">
  <ele>1583.14</ele>
  <time>2026-08-28T17:49:24Z</time>
  <course>245.37</course>
  <speed>0.02</speed>
  <fix>3d</fix>
</trkpt>
<trkpt lat="40.0713749" lon="-105.229789">
  <ele>1583.0</ele>
  <time>2026-08-28T17:49:24Z</time>
  <course>0.0</course>
  <speed>0.0</speed>
  <fix>3d</fix>
</trkpt>
<trkpt lat="40.0713747" lon="-105.229789">
  <ele>1583.14</ele>
  <time>2026-08-28T17:49:24Z</time>
  <course>245.37</course>
  <speed>0.02</speed>
  <fix>3d</fix>
</trkpt>
<trkpt lat="40.0713749" lon="-105.229789">
  <ele>1583.0</ele>
  <time>2026-08-28T17:49:24Z</time>
  <course>0.0</course>
  <speed>0.0</speed>
  <fix>3d</fix>
</trkpt>
<trkpt lat="40.0713747" lon="-105.229789">
  <ele>1583.14</ele>
  <time>2026-08-28T17:49:24Z</time>
  <course>245.36</course>
  <speed>0.02</speed>
  <fix>3d</fix>
</trkpt>
<trkpt lat="40.0713749" lon="-105.229789">
  <ele>1583.0</ele>
  <time>2026-08-28T17:49:24Z</time>
  <course>0.0</course>
  <speed>0.0</speed>
  <fix>3d</fix>
</trkpt>
<trkpt lat="40.0713747" lon="-105.229789">
  <ele>1583.14</ele>
  <time>2026-08-28T17:49:24Z</time>
  <course>245.36</course>
  <speed>0.02</speed>
  <fix>3d</fix>
</trkpt>
<trkpt lat="40.0713749" lon="-105.229789">
  <ele>1583.0</ele>
  <time>2026-08-28T17:49:24Z</time>
  <course>0.0</course>
  <speed>0.0</speed>
  <fix>3d</fix>
</trkpt>
<trkpt lat="40.0713747" lon="-105.229789">
  <ele>1583.13</ele>
  <time>2026-08-28T17:49:24Z</time>
  <course>245.36</course>
  <speed>0.02</speed>
  <fix>3d</fix>
</trkpt>
<trkpt lat="40.0713749" lon="-105.229789">
  <ele>1583.0</ele>
  <time>2026-08-28T17:49:24Z</time>
  <course>0.0</course>
  <speed>0.0</speed>
  <fix>3d</fix>
</trkpt>
<trkpt lat="40.0713747" lon="-105.229789">
  <ele>1583.13</ele>
  <time>2026-08-28T17:49:24Z</time>
  <course>245.36</course>
  <speed>0.02</speed>
  <fix>3d</fix>
</trkpt>
<trkpt lat="40.0713749" lon="-105.229789">
  <ele>1583.0</ele>
  <time>2026-08-28T17:49:24Z</time>
  <course>0.0</course>
  <speed>0.0</speed>
  <fix>3d</fix>
</trkpt>
<trkpt lat="40.0713747" lon="-105.229789">
  <ele>1583.12</ele>
  <time>2026-08-28T17:49:24Z</time>
  <course>245.36</course>
  <speed>0.02</speed>
  <fix>3d</fix>
</trkpt>
<trkpt lat="40.0713749" lon="-105.229789">
  <ele>1583.0</ele>
  <time>2026-08-28T17:49:24Z</time>
  <course>0.0</course>
  <speed>0.0</speed>
  <fix>3d</fix>
</trkpt>
<trkpt lat="40.0713747" lon="-105.229789">
  <ele>1583.11</ele>
  <time>2026-08-28T17:49:24Z</time>
  <course>245.36</course>
  <speed>0.02</speed>
  <fix>3d</fix>
</trkpt>
<trkpt lat="40.0713749" lon="-105.229789">
  <ele>1583.0</ele>
  <time>2026-08-28T17:49:24Z</time>
  <course>0.0</course>
  <speed>0.0</speed>
  <fix>3d</fix>
</trkpt>
<trkpt lat="40.0713748" lon="-105.229789">
  <ele>1583.1</ele>
  <time>2026-08-28T17:49:24Z</time>
  <course>245.36</course>
  <speed>0.02</speed>
  <fix>3d</fix>
</trkpt>
<trkpt lat="40.0713749" lon="-105.229789">
  <ele>1583.0</ele>
  <time>2026-08-28T17:49:24Z</time>
  <course>0.0</course>
  <speed>0.0</speed>
  <fix>3d</fix>
</trkpt>
<trkpt lat="40.0713747" lon="-105.229789">
  <ele>1583.1</ele>
  <time>2026-08-28T17:49:24Z</time>
  <course>245.35</course>
  <speed>0.02</speed>
  <fix>3d</fix>
</trkpt>
<trkpt lat="40.0713749" lon="-105.229789">
  <ele>1583.0</ele>
  <time>2026-08-28T17:49:24Z</time>
  <course>0.0</course>
  <speed>0.0</speed>
  <fix>3d</fix>
</trkpt>
<trkpt lat="40.0713748" lon="-105.229789">
  <ele>1583.09</ele>
  <time>2026-08-28T17:49:24Z</time>
  <course>245.35</course>
  <speed>0.02</speed>
  <fix>3d</fix>
</trkpt>
<trkpt lat="40.0713749" lon="-105.229789">
  <ele>1583.0</ele>
  <time>2026-08-28T17:49:24Z</time>
  <course>0.0</course>
  <speed>0.0</speed>
  <fix>3d</fix>
</trkpt>
<trkpt lat="40.0713747" lon="-105.229789">
  <ele>1583.08</ele>
  <time>2026-08-28T17:49:24Z</time>
  <course>245.35</course>
  <speed>0.02</speed>
  <fix>3d</fix>
</trkpt>
<trkpt lat="40.0713749" lon="-105.229789">
  <ele>1583.0</ele>
  <time>2026-08-28T17:49:24Z</time>
  <course>0.0</course>
  <speed>0.0</speed>
  <fix>3d</fix>
</trkpt>
<trkpt lat="40.0713748" lon="-105.229789">
  <ele>1583.07</ele>
  <time>2026-08-28T17:49:24Z</time>
  <course>245.35</course>
  <speed>0.02</speed>
  <fix>3d</fix>
</trkpt>
<trkpt lat="40.0713749" lon="-105.229789">
  <ele>1583.0</ele>
  <time>2026-08-28T17:49:24Z</time>
  <course>0.0</course>
  <speed>0.0</speed>
  <fix>3d</fix>
</trkpt>
<trkpt lat="40.0713747" lon="-105.229789">
  <ele>1583.06</ele>
  <time>2026-08-28T17:49:24Z</time>
  <course>245.35</course>
  <speed>0.02</speed>
  <fix>3d</fix>
</trkpt>
<trkpt lat="40.0713749" lon="-105.229789">
  <ele>1583.0</ele>
  <time>2026-08-28T17:49:24Z</time>
  <course>0.0</course>
  <speed>0.0</speed>
  <fix>3d</fix>
</trkpt>
<trkpt lat="40.0713748" lon="-105.229789">
  <ele>1583.05</ele>
  <time>2026-08-28T17:49:24Z</time>
  <course>245.35</course>
  <speed>0.02</speed>
  <fix>3d</fix>
</trkpt>
<trkpt lat="40.0713749" lon="-105.229789">
  <ele>1583.0</ele>
  <time>2026-08-28T17:49:24Z</time>
  <course>0.0</course>
  <speed>0.0</speed>
  <fix>3d</fix>
</trkpt>
<trkpt lat="40.0713747" lon="-105.229789">
  <ele>1583.04</ele>
  <time>2026-08-28T17:49:24Z</time>
  <course>245.34</course>
  <speed>0.02</speed>
  <fix>3d</fix>
</trkpt>
<trkpt lat="40.0713749" lon="-105.229789">
  <ele>1583.0</ele>
  <time>2026-08-28T17:49:24Z</time>
  <course>0.0</course>
  <speed>0.0</speed>
  <fix>3d</fix>
</trkpt>
<trkpt lat="40.0713748" lon="-105.229789">
  <ele>1583.04</ele>
  <time>2026-08-28T17:49:24Z</time>
  <course>245.34</course>
  <speed>0.02</speed>
  <fix>3d</fix>
</trkpt>
<trkpt lat="40.0713749" lon="-105.229789">
  <ele>1583.0</ele>
  <time>2026-08-28T17:49:24Z</time>
  <course>0.0</course>
  <speed>0.0</speed>
  <fix>3d</fix>
</trkpt>
<trkpt lat="40.0713747" lon="-105.229789">
  <ele>1583.03</ele>
  <time>2026-08-28T17:49:24Z</time>
  <course>245.34</course>
  <speed>0.02</speed>
  <fix>3d</fix>
</trkpt>
<trkpt lat="40.0713749" lon="-105.229789">
  <ele>1583.0</ele>
  <time>2026-08-28T17:49:24Z</time>
  <course>0.0</course>
  <speed>0.0</speed>
  <fix>3d</fix>
</trkpt>
<trkpt lat="40.0713748" lon="-105.229789">
  <ele>1583.03</ele>
  <time>2026-08-28T17:49:24Z</time>
  <course>245.34</course>
  <speed>0.02</speed>
  <fix>3d</fix>
</trkpt>
<trkpt lat="40.0713749" lon="-105.229789">
  <ele>1583.0</ele>
  <time>2026-08-28T17:49:24Z</time>
  <course>0.0</course>
  <speed>0.0</speed>
  <fix>3d</fix>
</trkpt>
<trkpt lat="40.0713747" lon="-105.229789">
  <ele>1583.02</ele>
  <time>2026-08-28T17:49:24Z</time>
  <course>245.34</course>
  <speed>0.02</speed>
  <fix>3d</fix>
</trkpt>
<trkpt lat="40.0713749" lon="-105.229789">
  <ele>1583.0</ele>
  <time>2026-08-28T17:49:24Z</time>
  <course>0.0</course>
  <speed>0.0</speed>
  <fix>3d</fix>
</trkpt>
<trkpt lat="40.0713748" lon="-105.229789">
  <ele>1583.01</ele>
  <time>2026-08-28T17:49:24Z</time>
  <course>245.34</course>
  <speed>0.02</speed>
  <fix>3d</fix>
</trkpt>
<trkpt lat="40.0713749" lon="-105.229789">
  <ele>1583.0</ele>
  <time>2026-08-28T17:49:24Z</time>
  <course>0.0</course>
  <speed>0.0</speed>
  <fix>3d</fix>
</trkpt>
<trkpt lat="40.0713747" lon="-105.2297891">
  <ele>1583.01</ele>
  <time>2026-08-28T17:49:24Z</time>
  <course>245.34</course>
  <speed>0.02</speed>
  <fix>3d</fix>
</trkpt>
<trkpt lat="40.0713749" lon="-105.229789">
  <ele>1583.0</ele>
  <time>2026-08-28T17:49:24Z</time>
  <course>0.0</course>
  <speed>0.0</speed>
  <fix>3d</fix>
</trkpt>
<trkpt lat="40.0713747" lon="-105.229789">
  <ele>1583.0</ele>
  <time>2026-08-28T17:49:24Z</time>
  <course>245.33</course>
  <speed>0.02</speed>
  <fix>3d</fix>
</trkpt>
<trkpt lat="40.0713749" lon="-105.229789">
  <ele>1583.0</ele>
  <time>2026-08-28T17:49:24Z</time>
  <course>0.0</course>
  <speed>0.0</speed>
  <fix>3d</fix>
</trkpt>
<trkpt lat="40.0713747" lon="-105.2297891">
  <ele>1583.0</ele>
  <time>2026-08-28T17:49:24Z</time>
  <course>245.33</course>
  <speed>0.02</speed>
  <fix>3d</fix>
</trkpt>
<trkpt lat="40.0713749" lon="-105.229789">
  <ele>1583.0</ele>
  <time>2026-08-28T17:49:24Z</time>
  <course>0.0</course>
  <speed>0.0</speed>
  <fix>3d</fix>
</trkpt>
<trkpt lat="40.0713747" lon="-105.2297891">
  <ele>1583.0</ele>
  <time>2026-08-28T17:49:24Z</time>
  <course>245.33</course>
  <speed>0.02</speed>
  <fix>3d</fix>
</trkpt>
<trkpt lat="40.0713749" lon="-105.229789">
  <ele>1583.0</ele>
  <time>2026-08-28T17:49:24Z</time>
  <course>0.0</course>
  <speed>0.0</speed>
  <fix>3d</fix>
</trkpt>
<trkpt lat="40.0713747" lon="-105.2297891">
  <ele>1583.0</ele>
  <time>2026-08-28T17:49:24Z</time>
  <course>245.33</course>
  <speed>0.02</speed>
  <fix>3d</fix>
</trkpt>
<trkpt lat="40.0713749" lon="-105.229789">
  <ele>1583.0</ele>
  <time>2026-08-28T17:49:24Z</time>
  <course>0.0</course>
  <speed>0.0</speed>
  <fix>3d</fix>
</trkpt>
<trkpt lat="40.0713747" lon="-105.2297891">
  <ele>1583.0</ele>
  <time>2026-08-28T17:49:24Z</time>
  <course>245.33</course>
  <speed>0.02</speed>
  <fix>3d</fix>
</trkpt>
<trkpt lat="40.0713749" lon="-105.229789">
  <ele>1583.0</ele>
  <time>2026-08-28T17:49:24Z</time>
  <course>0.0</course>
  <speed>0.0</speed>
  <fix>3d</fix>
</trkpt>
<trkpt lat="40.0713747" lon="-105.2297891">
  <ele>1583.0</ele>
  <time>2026-08-28T17:49:24Z</time>
  <course>245.33</course>
  <speed>0.022360679774997897</speed>
  <fix>3d</fix>
</trkpt>
<trkpt lat="40.0713749" lon="-105.229789">
  <ele>1583.0</ele>
  <time>2026-08-28T17:49:24Z</time>
  <course>0.0</course>
  <speed>0.0</speed>
  <fix>3d</fix>
</trkpt>
<trkpt lat="40.0713747" lon="-105.2297891">
  <ele>1583.0</ele>
  <time>2026-08-28T17:49:24Z</time>
  <course>245.33</course>
  <speed>0.02</speed>
  <fix>3d</fix>
</trkpt>
<trkpt lat="40.0713749" lon="-105.229789">
  <ele>1583.0</ele>
  <time>2026-08-28T17:49:24Z</time>
  <course>0.0</course>
  <speed>0.0</speed>
  <fix>3d</fix>
</trkpt>
<trkpt lat="40.0713747" lon="-105.2297891">
  <ele>1583.0</ele>
  <time>2026-08-28T17:49:24Z</time>
  <course>245.32</course>
  <speed>0.022360679774997897</speed>
  <fix>3d</fix>
</trkpt>
<trkpt lat="40.0713749" lon="-105.229789">
  <ele>1583.0</ele>
  <time>2026-08-28T17:49:24Z</time>
  <course>0.0</course>
  <speed>0.0</speed>
  <fix>3d</fix>
</trkpt>
<trkpt lat="40.0713747" lon="-105.2297891">
  <ele>1583.0</ele>
  <time>2026-08-28T17:49:24Z</time>
  <course>245.32</course>
  <speed>0.02</speed>
  <fix>3d</fix>
</trkpt>
<trkpt lat="40.0713749" lon="-105.229789">
  <ele>1583.0</ele>
  <time>2026-08-28T17:49:24Z</time>
  <course>0.0</course>
  <speed>0.0</speed>
  <fix>3d</fix>
</trkpt>
<trkpt lat="40.0713747" lon="-105.2297891">
  <ele>1582.99</ele>
  <time>2026-08-28T17:49:24Z</time>
  <course>245.32</course>
  <speed>0.022360679774997897</speed>
  <fix>3d</fix>
</trkpt>
<trkpt lat="40.0713749" lon="-105.229789">
  <ele>1583.0</ele>
  <time>2026-08-28T17:49:24Z</time>
  <course>0.0</course>
  <speed>0.0</speed>
  <fix>3d</fix>
</trkpt>
<trkpt lat="40.0713748" lon="-105.2297891">
  <ele>1582.99</ele>
  <time>2026-08-28T17:49:24Z</time>
  <course>245.32</course>
  <speed>0.02</speed>
  <fix>3d</fix>
</trkpt>
<trkpt lat="40.0713749" lon="-105.229789">
  <ele>1583.0</ele>
  <time>2026-08-28T17:49:24Z</time>
  <course>0.0</course>
  <speed>0.0</speed>
  <fix>3d</fix>
</trkpt>
<trkpt lat="40.0713747" lon="-105.2297891">
  <ele>1582.99</ele>
  <time>2026-08-28T17:49:24Z</time>
  <course>245.32</course>
  <speed>0.022360679774997897</speed>
  <fix>3d</fix>
</trkpt>
<trkpt lat="40.0713749" lon="-105.229789">
  <ele>1583.0</ele>
  <time>2026-08-28T17:49:24Z</time>
  <course>0.0</course>
  <speed>0.0</speed>
  <fix>3d</fix>
</trkpt>
<trkpt lat="40.0713748" lon="-105.2297891">
  <ele>1582.98</ele>
  <time>2026-08-28T17:49:24Z</time>
  <course>245.32</course>
  <speed>0.02</speed>
  <fix>3d</fix>
</trkpt>
<trkpt lat="40.0713749" lon="-105.229789">
  <ele>1583.0</ele>
  <time>2026-08-28T17:49:24Z</time>
  <course>0.0</course>
  <speed>0.0</speed>
  <fix>3d</fix>
</trkpt>
<trkpt lat="40.0713747" lon="-105.2297891">
  <ele>1582.98</ele>
  <time>2026-08-28T17:49:24Z</time>
  <course>245.32</course>
  <speed>0.022360679774997897</speed>
  <fix>3d</fix>
</trkpt>
<trkpt lat="40.0713749" lon="-105.229789">
  <ele>1583.0</ele>
  <time>2026-08-28T17:49:24Z</time>
  <course>0.0</course>
  <speed>0.0</speed>
  <fix>3d</fix>
</trkpt>
<trkpt lat="40.0713747" lon="-105.2297891">
  <ele>1582.97</ele>
  <time>2026-08-28T17:49:24Z</time>
  <course>245.31</course>
  <speed>0.02</speed>
  <fix>3d</fix>
</trkpt>
<trkpt lat="40.0713749" lon="-105.229789">
  <ele>1583.0</ele>
  <time>2026-08-28T17:49:24Z</time>
  <course>0.0</course>
  <speed>0.0</speed>
  <fix>3d</fix>
</trkpt>
<trkpt lat="40.0713747" lon="-105.2297891">
  <ele>1582.96</ele>
  <time>2026-08-28T17:49:24Z</time>
  <course>245.31</course>
  <speed>0.022360679774997897</speed>
  <fix>3d</fix>
</trkpt>
<trkpt lat="40.0713749" lon="-105.229789">
  <ele>1583.0</ele>
  <time>2026-08-28T17:49:24Z</time>
  <course>0.0</course>
  <speed>0.0</speed>
  <fix>3d</fix>
</trkpt>
<trkpt lat="40.0713747" lon="-105.2297891">
  <ele>1582.95</ele>
  <time>2026-08-28T17:49:24Z</time>
  <course>245.31</course>
  <speed>0.022360679774997897</speed>
  <fix>3d</fix>
</trkpt>
<trkpt lat="40.0713749" lon="-105.229789">
  <ele>1583.0</ele>
  <time>2026-08-28T17:49:24Z</time>
  <course>0.0</course>
  <speed>0.0</speed>
  <fix>3d</fix>
</trkpt>
<trkpt lat="40.0713747" lon="-105.2297891">
  <ele>1582.95</ele>
  <time>2026-08-28T17:49:24Z</time>
  <course>245.31</course>
  <speed>0.022360679774997897</speed>
  <fix>3d</fix>
</trkpt>
<trkpt lat="40.0713749" lon="-105.229789">
  <ele>1583.0</ele>
  <time>2026-08-28T17:49:24Z</time>
  <course>0.0</course>
  <speed>0.0</speed>
  <fix>3d</fix>
</trkpt>
<trkpt lat="40.0713747" lon="-105.2297891">
  <ele>1582.95</ele>
  <time>2026-08-28T17:49:24Z</time>
  <course>245.31</course>
  <speed>0.022360679774997897</speed>
  <fix>3d</fix>
</trkpt>
<trkpt lat="40.0713749" lon="-105.229789">
  <ele>1583.0</ele>
  <time>2026-08-28T17:49:24Z</time>
  <course>0.0</course>
  <speed>0.0</speed>
  <fix>3d</fix>
</trkpt>
<trkpt lat="40.0713747" lon="-105.2297891">
  <ele>1582.94</ele>
  <time>2026-08-28T17:49:24Z</time>
  <course>245.31</course>
  <speed>0.022360679774997897</speed>
  <fix>3d</fix>
</trkpt>
<trkpt lat="40.0713749" lon="-105.229789">
  <ele>1583.0</ele>
  <time>2026-08-28T17:49:24Z</time>
  <course>0.0</course>
  <speed>0.0</speed>
  <fix>3d</fix>
</trkpt>
<trkpt lat="40.0713747" lon="-105.2297891">
  <ele>1582.94</ele>
  <time>2026-08-28T17:49:24Z</time>
  <course>245.3</course>
  <speed>0.022360679774997897</speed>
  <fix>3d</fix>
</trkpt>
<trkpt lat="40.0713749" lon="-105.229789">
  <ele>1583.0</ele>
  <time>2026-08-28T17:49:24Z</time>
  <course>0.0</course>
  <speed>0.0</speed>
  <fix>3d</fix>
</trkpt>
<trkpt lat="40.0713747" lon="-105.2297891">
  <ele>1582.94</ele>
  <time>2026-08-28T17:49:24Z</time>
  <course>245.3</course>
  <speed>0.022360679774997897</speed>
  <fix>3d</fix>
</trkpt>
<trkpt lat="40.0713749" lon="-105.229789">
  <ele>1583.0</ele>
  <time>2026-08-28T17:49:24Z</time>
  <course>0.0</course>
  <speed>0.0</speed>
  <fix>3d</fix>
</trkpt>
<trkpt lat="40.0713747" lon="-105.2297891">
  <ele>1582.94</ele>
  <time>2026-08-28T17:49:24Z</time>
  <course>245.3</course>
  <speed>0.022360679774997897</speed>
  <fix>3d</fix>
</trkpt>
<trkpt lat="40.0713749" lon="-105.229789">
  <ele>1583.0</ele>
  <time>2026-08-28T17:49:24Z</time>
  <course>0.0</course>
  <speed>0.0</speed>
  <fix>3d</fix>
</trkpt>
<trkpt lat="40.0713747" lon="-105.2297891">
  <ele>1582.94</ele>
  <time>2026-08-28T17:49:24Z</time>
  <course>245.3</course>
  <speed>0.022360679774997897</speed>
  <fix>3d</fix>
</trkpt>
<trkpt lat="40.0713749" lon="-105.229789">
  <ele>1583.0</ele>
  <time>2026-08-28T17:49:24Z</time>
  <course>0.0</course>
  <speed>0.0</speed>
  <fix>3d</fix>
</trkpt>
<trkpt lat="40.0713747" lon="-105.2297891">
  <ele>1582.94</ele>
  <time>2026-08-28T17:49:24Z</time>
  <course>245.3</course>
  <speed>0.022360679774997897</speed>
  <fix>3d</fix>
</trkpt>
<trkpt lat="40.0713749" lon="-105.229789">
  <ele>1583.0</ele>
  <time>2026-08-28T17:49:24Z</time>
  <course>0.0</course>
  <speed>0.0</speed>
  <fix>3d</fix>
</trkpt>
<trkpt lat="40.0713747" lon="-105.2297891">
  <ele>1582.94</ele>
  <time>2026-08-28T17:49:24Z</time>
  <course>245.3</course>
  <speed>0.022360679774997897</speed>
  <fix>3d</fix>
</trkpt>
<trkpt lat="40.0713749" lon="-105.229789">
  <ele>1583.0</ele>
  <time>2026-08-28T17:49:24Z</time>
  <course>0.0</course>
  <speed>0.0</speed>
  <fix>3d</fix>
</trkpt>
<trkpt lat="40.0713747" lon="-105.2297891">
  <ele>1582.94</ele>
  <time>2026-08-28T17:49:24Z</time>
  <course>245.3</course>
  <speed>0.022360679774997897</speed>
  <fix>3d</fix>
</trkpt>
<trkpt lat="40.0713749" lon="-105.229789">
  <ele>1583.0</ele>
  <time>2026-08-28T17:49:24Z</time>
  <course>0.0</course>
  <speed>0.0</speed>
  <fix>3d</fix>
</trkpt>
<trkpt lat="40.0713747" lon="-105.2297891">
  <ele>1582.94</ele>
  <time>2026-08-28T17:49:24Z</time>
  <course>245.29</course>
  <speed>0.022360679774997897</speed>
  <fix>3d</fix>
</trkpt>
<trkpt lat="40.0713749" lon="-105.229789">
  <ele>1583.0</ele>
  <time>2026-08-28T17:49:24Z</time>
  <course>0.0</course>
  <speed>0.0</speed>
  <fix>3d</fix>
</trkpt>
<trkpt lat="40.0713747" lon="-105.2297891">
  <ele>1582.94</ele>
  <time>2026-08-28T17:49:24Z</time>
  <course>245.29</course>
  <speed>0.02</speed>
  <fix>3d</fix>
</trkpt>
<trkpt lat="40.0713749" lon="-105.229789">
  <ele>1583.0</ele>
  <time>2026-08-28T17:49:24Z</time>
  <course>0.0</course>
  <speed>0.0</speed>
  <fix>3d</fix>
</trkpt>
<trkpt lat="40.0713747" lon="-105.2297891">
  <ele>1582.93</ele>
  <time>2026-08-28T17:49:24Z</time>
  <course>245.29</course>
  <speed>0.022360679774997897</speed>
  <fix>3d</fix>
</trkpt>
<trkpt lat="40.0713749" lon="-105.229789">
  <ele>1583.0</ele>
  <time>2026-08-28T17:49:24Z</time>
  <course>0.0</course>
  <speed>0.0</speed>
  <fix>3d</fix>
</trkpt>
<trkpt lat="40.0713747" lon="-105.2297891">
  <ele>1582.93</ele>
  <time>2026-08-28T17:49:24Z</time>
  <course>245.29</course>
  <speed>0.02</speed>
  <fix>3d</fix>
</trkpt>
<trkpt lat="40.0713749" lon="-105.229789">
  <ele>1583.0</ele>
  <time>2026-08-28T17:49:24Z</time>
  <course>0.0</course>
  <speed>0.0</speed>
  <fix>3d</fix>
</trkpt>
<trkpt lat="40.0713747" lon="-105.2297891">
  <ele>1582.92</ele>
  <time>2026-08-28T17:49:24Z</time>
  <course>245.29</course>
  <speed>0.022360679774997897</speed>
  <fix>3d</fix>
</trkpt>
<trkpt lat="40.0713749" lon="-105.229789">
  <ele>1583.0</ele>
  <time>2026-08-28T17:49:24Z</time>
  <course>0.0</course>
  <speed>0.0</speed>
  <fix>3d</fix>
</trkpt>
<trkpt lat="40.0713747" lon="-105.2297891">
  <ele>1582.92</ele>
  <time>2026-08-28T17:49:24Z</time>
  <course>245.29</course>
  <speed>0.02</speed>
  <fix>3d</fix>
</trkpt>
<trkpt lat="40.0713749" lon="-105.229789">
  <ele>1583.0</ele>
  <time>2026-08-28T17:49:24Z</time>
  <course>0.0</course>
  <speed>0.0</speed>
  <fix>3d</fix>
</trkpt>
<trkpt lat="40.0713747" lon="-105.2297891">
  <ele>1582.92</ele>
  <time>2026-08-28T17:49:24Z</time>
  <course>245.29</course>
  <speed>0.022360679774997897</speed>
  <fix>3d</fix>
</trkpt>
<trkpt lat="40.0713749" lon="-105.229789">
  <ele>1583.0</ele>
  <time>2026-08-28T17:49:24Z</time>
  <course>0.0</course>
  <speed>0.0</speed>
  <fix>3d</fix>
</trkpt>
<trkpt lat="40.0713747" lon="-105.2297891">
  <ele>1582.91</ele>
  <time>2026-08-28T17:49:24Z</time>
  <course>245.29</course>
  <speed>0.02</speed>
  <fix>3d</fix>
</trkpt>
<trkpt lat="40.0713749" lon="-105.229789">
  <ele>1583.0</ele>
  <time>2026-08-28T17:49:24Z</time>
  <course>0.0</course>
  <speed>0.0</speed>
  <fix>3d</fix>
</trkpt>
<trkpt lat="40.0713747" lon="-105.2297891">
  <ele>1582.91</ele>
  <time>2026-08-28T17:49:24Z</time>
  <course>245.28</course>
  <speed>0.02</speed>
  <fix>3d</fix>
</trkpt>
<trkpt lat="40.0713749" lon="-105.229789">
  <ele>1583.0</ele>
  <time>2026-08-28T17:49:24Z</time>
  <course>0.0</course>
  <speed>0.0</speed>
  <fix>3d</fix>
</trkpt>
<trkpt lat="40.0713747" lon="-105.2297891">
  <ele>1582.91</ele>
  <time>2026-08-28T17:49:24Z</time>
  <course>245.28</course>
  <speed>0.02</speed>
  <fix>3d</fix>
</trkpt>
<trkpt lat="40.0713749" lon="-105.229789">
  <ele>1583.0</ele>
  <time>2026-08-28T17:49:24Z</time>
  <course>0.0</course>
  <speed>0.0</speed>
  <fix>3d</fix>
</trkpt>
<trkpt lat="40.0713747" lon="-105.2297891">
  <ele>1582.91</ele>
  <time>2026-08-28T17:49:24Z</time>
  <course>245.28</course>
  <speed>0.02</speed>
  <fix>3d</fix>
</trkpt>
<trkpt lat="40.0713749" lon="-105.229789">
  <ele>1583.0</ele>
  <time>2026-08-28T17:49:24Z</time>
  <course>0.0</course>
  <speed>0.0</speed>
  <fix>3d</fix>
</trkpt>
<trkpt lat="40.0713747" lon="-105.2297891">
  <ele>1582.91</ele>
  <time>2026-08-28T17:49:24Z</time>
  <course>245.28</course>
  <speed>0.02</speed>
  <fix>3d</fix>
</trkpt>
<trkpt lat="40.0713749" lon="-105.229789">
  <ele>1583.0</ele>
  <time>2026-08-28T17:49:24Z</time>
  <course>0.0</course>
  <speed>0.0</speed>
  <fix>3d</fix>
</trkpt>
<trkpt lat="40.0713747" lon="-105.2297891">
  <ele>1582.91</ele>
  <time>2026-08-28T17:49:24Z</time>
  <course>245.28</course>
  <speed>0.02</speed>
  <fix>3d</fix>
</trkpt>
<trkpt lat="40.0713749" lon="-105.229789">
  <ele>1583.0</ele>
  <time>2026-08-28T17:49:24Z</time>
  <course>0.0</course>
  <speed>0.0</speed>
  <fix>3d</fix>
</trkpt>
<trkpt lat="40.0713747" lon="-105.2297891">
  <ele>1582.91</ele>
  <time>2026-08-28T17:49:24Z</time>
  <course>245.28</course>
  <speed>0.02</speed>
  <fix>3d</fix>
</trkpt>
<trkpt lat="40.0713749" lon="-105.229789">
  <ele>1583.0</ele>
  <time>2026-08-28T17:49:24Z</time>
  <course>0.0</course>
  <speed>0.0</speed>
  <fix>3d</fix>
</trkpt>
<trkpt lat="40.0713747" lon="-105.2297891">
  <ele>1582.91</ele>
  <time>2026-08-28T17:49:24Z</time>
  <course>245.28</course>
  <speed>0.02</speed>
  <fix>3d</fix>
</trkpt>
<trkpt lat="40.0713749" lon="-105.229789">
  <ele>1583.0</ele>
  <time>2026-08-28T17:49:24Z</time>
  <course>0.0</course>
  <speed>0.0</speed>
  <fix>3d</fix>
</trkpt>
<trkpt lat="40.0713747" lon="-105.2297891">
  <ele>1582.91</ele>
  <time>2026-08-28T17:49:24Z</time>
  <course>245.27</course>
  <speed>0.02</speed>
  <fix>3d</fix>
</trkpt>
<trkpt lat="40.0713749" lon="-105.229789">
  <ele>1583.0</ele>
  <time>2026-08-28T17:49:24Z</time>
  <course>0.0</course>
  <speed>0.0</speed>
  <fix>3d</fix>
</trkpt>
<trkpt lat="40.0713747" lon="-105.2297891">
  <ele>1582.91</ele>
  <time>2026-08-28T17:49:24Z</time>
  <course>245.27</course>
  <speed>0.02</speed>
  <fix>3d</fix>
</trkpt>
<trkpt lat="40.0713749" lon="-105.229789">
  <ele>1583.0</ele>
  <time>2026-08-28T17:49:24Z</time>
  <course>0.0</course>
  <speed>0.0</speed>
  <fix>3d</fix>
</trkpt>
<trkpt lat="40.0713747" lon="-105.2297891">
  <ele>1582.91</ele>
  <time>2026-08-28T17:49:24Z</time>
  <course>245.27</course>
  <speed>0.02</speed>
  <fix>3d</fix>
</trkpt>
<trkpt lat="40.0713749" lon="-105.229789">
  <ele>1583.0</ele>
  <time>2026-08-28T17:49:24Z</time>
  <course>0.0</course>
  <speed>0.0</speed>
  <fix>3d</fix>
</trkpt>
<trkpt lat="40.0713747" lon="-105.2297891">
  <ele>1582.9</ele>
  <time>2026-08-28T17:49:24Z</time>
  <course>245.27</course>
  <speed>0.02</speed>
  <fix>3d</fix>
</trkpt>
<trkpt lat="40.0713749" lon="-105.229789">
  <ele>1583.0</ele>
  <time>2026-08-28T17:49:24Z</time>
  <course>0.0</course>
  <speed>0.0</speed>
  <fix>3d</fix>
</trkpt>
<trkpt lat="40.0713747" lon="-105.2297891">
  <ele>1582.9</ele>
  <time>2026-08-28T17:49:24Z</time>
  <course>245.27</course>
  <speed>0.02</speed>
  <fix>3d</fix>
</trkpt>
<trkpt lat="40.0713749" lon="-105.229789">
  <ele>1583.0</ele>
  <time>2026-08-28T17:49:24Z</time>
  <course>0.0</course>
  <speed>0.0</speed>
  <fix>3d</fix>
</trkpt>
<trkpt lat="40.0713747" lon="-105.2297891">
  <ele>1582.9</ele>
  <time>2026-08-28T17:49:24Z</time>
  <course>245.27</course>
  <speed>0.02</speed>
  <fix>3d</fix>
</trkpt>
<trkpt lat="40.0713749" lon="-105.229789">
  <ele>1583.0</ele>
  <time>2026-08-28T17:49:24Z</time>
  <course>0.0</course>
  <speed>0.0</speed>
  <fix>3d</fix>
</trkpt>
<trkpt lat="40.0713747" lon="-105.2297891">
  <ele>1582.89</ele>
  <time>2026-08-28T17:49:24Z</time>
  <course>245.27</course>
  <speed>0.02</speed>
  <fix>3d</fix>
</trkpt>
<trkpt lat="40.0713749" lon="-105.229789">
  <ele>1583.0</ele>
  <time>2026-08-28T17:49:24Z</time>
  <course>0.0</course>
  <speed>0.0</speed>
  <fix>3d</fix>
</trkpt>
<trkpt lat="40.0713747" lon="-105.2297891">
  <ele>1582.89</ele>
  <time>2026-08-28T17:49:24Z</time>
  <course>245.26</course>
  <speed>0.02</speed>
  <fix>3d</fix>
</trkpt>
<trkpt lat="40.0713749" lon="-105.229789">
  <ele>1583.0</ele>
  <time>2026-08-28T17:49:24Z</time>
  <course>0.0</course>
  <speed>0.0</speed>
  <fix>3d</fix>
</trkpt>
<trkpt lat="40.0713748" lon="-105.229789">
  <ele>1582.89</ele>
  <time>2026-08-28T17:49:24Z</time>
  <course>245.26</course>
  <speed>0.02</speed>
  <fix>3d</fix>
</trkpt>
<trkpt lat="40.0713749" lon="-105.229789">
  <ele>1583.0</ele>
  <time>2026-08-28T17:49:24Z</time>
  <course>0.0</course>
  <speed>0.0</speed>
  <fix>3d</fix>
</trkpt>
<trkpt lat="40.0713747" lon="-105.2297891">
  <ele>1582.89</ele>
  <time>2026-08-28T17:49:24Z</time>
  <course>245.26</course>
  <speed>0.02</speed>
  <fix>3d</fix>
</trkpt>
<trkpt lat="40.0713749" lon="-105.229789">
  <ele>1583.0</ele>
  <time>2026-08-28T17:49:24Z</time>
  <course>0.0</course>
  <speed>0.0</speed>
  <fix>3d</fix>
</trkpt>
<trkpt lat="40.0713748" lon="-105.229789">
  <ele>1582.88</ele>
  <time>2026-08-28T17:49:24Z</time>
  <course>245.26</course>
  <speed>0.02</speed>
  <fix>3d</fix>
</trkpt>
<trkpt lat="40.0713749" lon="-105.229789">
  <ele>1583.0</ele>
  <time>2026-08-28T17:49:24Z</time>
  <course>0.0</course>
  <speed>0.0</speed>
  <fix>3d</fix>
</trkpt>
<trkpt lat="40.0713747" lon="-105.2297891">
  <ele>1582.88</ele>
  <time>2026-08-28T17:49:24Z</time>
  <course>245.26</course>
  <speed>0.02</speed>
  <fix>3d</fix>
</trkpt>
<trkpt lat="40.0713749" lon="-105.229789">
  <ele>1583.0</ele>
  <time>2026-08-28T17:49:24Z</time>
  <course>0.0</course>
  <speed>0.0</speed>
  <fix>3d</fix>
</trkpt>
<trkpt lat="40.0713748" lon="-105.229789">
  <ele>1582.88</ele>
  <time>2026-08-28T17:49:24Z</time>
  <course>245.26</course>
  <speed>0.02</speed>
  <fix>3d</fix>
</trkpt>
<trkpt lat="40.0713749" lon="-105.229789">
  <ele>1583.0</ele>
  <time>2026-08-28T17:49:24Z</time>
  <course>0.0</course>
  <speed>0.0</speed>
  <fix>3d</fix>
</trkpt>
<trkpt lat="40.0713747" lon="-105.2297891">
  <ele>1582.88</ele>
  <time>2026-08-28T17:49:24Z</time>
  <course>245.26</course>
  <speed>0.02</speed>
  <fix>3d</fix>
</trkpt>
<trkpt lat="40.0713749" lon="-105.229789">
  <ele>1583.0</ele>
  <time>2026-08-28T17:49:24Z</time>
  <course>0.0</course>
  <speed>0.0</speed>
  <fix>3d</fix>
</trkpt>
<trkpt lat="40.0713748" lon="-105.229789">
  <ele>1582.88</ele>
  <time>2026-08-28T17:49:24Z</time>
  <course>245.26</course>
  <speed>0.02</speed>
  <fix>3d</fix>
</trkpt>
<trkpt lat="40.0713749" lon="-105.229789">
  <ele>1583.0</ele>
  <time>2026-08-28T17:49:24Z</time>
  <course>0.0</course>
  <speed>0.0</speed>
  <fix>3d</fix>
</trkpt>
<trkpt lat="40.0713747" lon="-105.2297891">
  <ele>1582.87</ele>
  <time>2026-08-28T17:49:24Z</time>
  <course>245.25</course>
  <speed>0.02</speed>
  <fix>3d</fix>
</trkpt>
<trkpt lat="40.0713749" lon="-105.229789">
  <ele>1583.0</ele>
  <time>2026-08-28T17:49:24Z</time>
  <course>0.0</course>
  <speed>0.0</speed>
  <fix>3d</fix>
</trkpt>
<trkpt lat="40.0713748" lon="-105.229789">
  <ele>1582.87</ele>
  <time>2026-08-28T17:49:24Z</time>
  <course>245.25</course>
  <speed>0.02</speed>
  <fix>3d</fix>
</trkpt>
<trkpt lat="40.0713749" lon="-105.229789">
  <ele>1583.0</ele>
  <time>2026-08-28T17:49:24Z</time>
  <course>0.0</course>
  <speed>0.0</speed>
  <fix>3d</fix>
</trkpt>
<trkpt lat="40.0713747" lon="-105.229789">
  <ele>1582.87</ele>
  <time>2026-08-28T17:49:24Z</time>
  <course>245.25</course>
  <speed>0.02</speed>
  <fix>3d</fix>
</trkpt>
<trkpt lat="40.0713749" lon="-105.229789">
  <ele>1583.0</ele>
  <time>2026-08-28T17:49:24Z</time>
  <course>0.0</course>
  <speed>0.0</speed>
  <fix>3d</fix>
</trkpt>
<trkpt lat="40.0713748" lon="-105.229789">
  <ele>1582.87</ele>
  <time>2026-08-28T17:49:24Z</time>
  <course>245.25</course>
  <speed>0.02</speed>
  <fix>3d</fix>
</trkpt>
<trkpt lat="40.0713749" lon="-105.229789">
  <ele>1583.0</ele>
  <time>2026-08-28T17:49:24Z</time>
  <course>0.0</course>
  <speed>0.0</speed>
  <fix>3d</fix>
</trkpt>
<trkpt lat="40.0713747" lon="-105.229789">
  <ele>1582.87</ele>
  <time>2026-08-28T17:49:24Z</time>
  <course>245.25</course>
  <speed>0.02</speed>
  <fix>3d</fix>
</trkpt>
<trkpt lat="40.0713749" lon="-105.229789">
  <ele>1583.0</ele>
  <time>2026-08-28T17:49:24Z</time>
  <course>0.0</course>
  <speed>0.0</speed>
  <fix>3d</fix>
</trkpt>
<trkpt lat="40.0713748" lon="-105.229789">
  <ele>1582.87</ele>
  <time>2026-08-28T17:49:24Z</time>
  <course>245.25</course>
  <speed>0.02</speed>
  <fix>3d</fix>
</trkpt>
<trkpt lat="40.0713749" lon="-105.229789">
  <ele>1583.0</ele>
  <time>2026-08-28T17:49:24Z</time>
  <course>0.0</course>
  <speed>0.0</speed>
  <fix>3d</fix>
</trkpt>
<trkpt lat="40.0713747" lon="-105.229789">
  <ele>1582.87</ele>
  <time>2026-08-28T17:49:24Z</time>
  <course>245.25</course>
  <speed>0.02</speed>
  <fix>3d</fix>
</trkpt>
<trkpt lat="40.0713749" lon="-105.229789">
  <ele>1583.0</ele>
  <time>2026-08-28T17:49:24Z</time>
  <course>0.0</course>
  <speed>0.0</speed>
  <fix>3d</fix>
</trkpt>
<trkpt lat="40.0713747" lon="-105.229789">
  <ele>1582.87</ele>
  <time>2026-08-28T17:49:24Z</time>
  <course>245.25</course>
  <speed>0.02</speed>
  <fix>3d</fix>
</trkpt>
<trkpt lat="40.0713749" lon="-105.229789">
  <ele>1583.0</ele>
  <time>2026-08-28T17:49:24Z</time>
  <course>0.0</course>
  <speed>0.0</speed>
  <fix>3d</fix>
</trkpt>
<trkpt lat="40.0713747" lon="-105.2297891">
  <ele>1582.87</ele>
  <time>2026-08-28T17:49:24Z</time>
  <course>245.24</course>
  <speed>0.02</speed>
  <fix>3d</fix>
</trkpt>
<trkpt lat="40.0713749" lon="-105.229789">
  <ele>1583.0</ele>
  <time>2026-08-28T17:49:24Z</time>
  <course>0.0</course>
  <speed>0.0</speed>
  <fix>3d</fix>
</trkpt>
<trkpt lat="40.0713747" lon="-105.229789">
  <ele>1582.87</ele>
  <time>2026-08-28T17:49:24Z</time>
  <course>245.24</course>
  <speed>0.02</speed>
  <fix>3d</fix>
</trkpt>
<trkpt lat="40.0713749" lon="-105.229789">
  <ele>1583.0</ele>
  <time>2026-08-28T17:49:24Z</time>
  <course>0.0</course>
  <speed>0.0</speed>
  <fix>3d</fix>
</trkpt>
<trkpt lat="40.0713747" lon="-105.2297891">
  <ele>1582.87</ele>
  <time>2026-08-28T17:49:24Z</time>
  <course>245.24</course>
  <speed>0.02</speed>
  <fix>3d</fix>
</trkpt>
<trkpt lat="40.0713749" lon="-105.229789">
  <ele>1583.0</ele>
  <time>2026-08-28T17:49:24Z</time>
  <course>0.0</course>
  <speed>0.0</speed>
  <fix>3d</fix>
</trkpt>
<trkpt lat="40.0713747" lon="-105.229789">
  <ele>1582.87</ele>
  <time>2026-08-28T17:49:24Z</time>
  <course>245.24</course>
  <speed>0.02</speed>
  <fix>3d</fix>
</trkpt>
<trkpt lat="40.0713749" lon="-105.229789">
  <ele>1583.0</ele>
  <time>2026-08-28T17:49:24Z</time>
  <course>0.0</course>
  <speed>0.0</speed>
  <fix>3d</fix>
</trkpt>
<trkpt lat="40.0713747" lon="-105.229789">
  <ele>1582.87</ele>
  <time>2026-08-28T17:49:24Z</time>
  <course>245.24</course>
  <speed>0.02</speed>
  <fix>3d</fix>
</trkpt>
<trkpt lat="40.0713749" lon="-105.229789">
  <ele>1583.0</ele>
  <time>2026-08-28T17:49:24Z</time>
  <course>0.0</course>
  <speed>0.0</speed>
  <fix>3d</fix>
</trkpt>
<trkpt lat="40.0713748" lon="-105.229789">
  <ele>1582.87</ele>
  <time>2026-08-28T17:49:24Z</time>
  <course>245.24</course>
  <speed>0.02</speed>
  <fix>3d</fix>
</trkpt>
<trkpt lat="40.0713749" lon="-105.229789">
  <ele>1583.0</ele>
  <time>2026-08-28T17:49:24Z</time>
  <course>0.0</course>
  <speed>0.0</speed>
  <fix>3d</fix>
</trkpt>
<trkpt lat="40.0713747" lon="-105.229789">
  <ele>1582.88</ele>
  <time>2026-08-28T17:49:24Z</time>
  <course>245.24</course>
  <speed>0.02</speed>
  <fix>3d</fix>
</trkpt>
<trkpt lat="40.0713749" lon="-105.229789">
  <ele>1583.0</ele>
  <time>2026-08-28T17:49:24Z</time>
  <course>0.0</course>
  <speed>0.0</speed>
  <fix>3d</fix>
</trkpt>
<trkpt lat="40.0713748" lon="-105.229789">
  <ele>1582.89</ele>
  <time>2026-08-28T17:49:24Z</time>
  <course>245.24</course>
  <speed>0.02</speed>
  <fix>3d</fix>
</trkpt>
<trkpt lat="40.0713749" lon="-105.229789">
  <ele>1583.0</ele>
  <time>2026-08-28T17:49:24Z</time>
  <course>0.0</course>
  <speed>0.0</speed>
  <fix>3d</fix>
</trkpt>
<trkpt lat="40.0713747" lon="-105.229789">
  <ele>1582.89</ele>
  <time>2026-08-28T17:49:24Z</time>
  <course>245.23</course>
  <speed>0.02</speed>
  <fix>3d</fix>
</trkpt>
<trkpt lat="40.0713749" lon="-105.229789">
  <ele>1583.0</ele>
  <time>2026-08-28T17:49:24Z</time>
  <course>0.0</course>
  <speed>0.0</speed>
  <fix>3d</fix>
</trkpt>
<trkpt lat="40.0713748" lon="-105.229789">
  <ele>1582.9</ele>
  <time>2026-08-28T17:49:24Z</time>
  <course>245.23</course>
  <speed>0.02</speed>
  <fix>3d</fix>
</trkpt>
<trkpt lat="40.0713749" lon="-105.229789">
  <ele>1583.0</ele>
  <time>2026-08-28T17:49:24Z</time>
  <course>0.0</course>
  <speed>0.0</speed>
  <fix>3d</fix>
</trkpt>
<trkpt lat="40.0713747" lon="-105.229789">
  <ele>1582.91</ele>
  <time>2026-08-28T17:49:24Z</time>
  <course>245.23</course>
  <speed>0.02</speed>
  <fix>3d</fix>
</trkpt>
<trkpt lat="40.0713749" lon="-105.229789">
  <ele>1583.0</ele>
  <time>2026-08-28T17:49:24Z</time>
  <course>0.0</course>
  <speed>0.0</speed>
  <fix>3d</fix>
</trkpt>
<trkpt lat="40.0713748" lon="-105.229789">
  <ele>1582.92</ele>
  <time>2026-08-28T17:49:24Z</time>
  <course>245.23</course>
  <speed>0.02</speed>
  <fix>3d</fix>
</trkpt>
<trkpt lat="40.0713749" lon="-105.229789">
  <ele>1583.0</ele>
  <time>2026-08-28T17:49:24Z</time>
  <course>0.0</course>
  <speed>0.0</speed>
  <fix>3d</fix>
</trkpt>
<trkpt lat="40.0713747" lon="-105.229789">
  <ele>1582.93</ele>
  <time>2026-08-28T17:49:24Z</time>
  <course>245.23</course>
  <speed>0.02</speed>
  <fix>3d</fix>
</trkpt>
<trkpt lat="40.0713749" lon="-105.229789">
  <ele>1583.0</ele>
  <time>2026-08-28T17:49:24Z</time>
  <course>0.0</course>
  <speed>0.0</speed>
  <fix>3d</fix>
</trkpt>
<trkpt lat="40.0713748" lon="-105.229789">
  <ele>1582.94</ele>
  <time>2026-08-28T17:49:24Z</time>
  <course>245.23</course>
  <speed>0.02</speed>
  <fix>3d</fix>
</trkpt>
<trkpt lat="40.0713749" lon="-105.229789">
  <ele>1583.0</ele>
  <time>2026-08-28T17:49:24Z</time>
  <course>0.0</course>
  <speed>0.0</speed>
  <fix>3d</fix>
</trkpt>
<trkpt lat="40.0713747" lon="-105.229789">
  <ele>1582.95</ele>
  <time>2026-08-28T17:49:24Z</time>
  <course>245.23</course>
  <speed>0.02</speed>
  <fix>3d</fix>
</trkpt>
<trkpt lat="40.0713749" lon="-105.229789">
  <ele>1583.0</ele>
  <time>2026-08-28T17:49:24Z</time>
  <course>0.0</course>
  <speed>0.0</speed>
  <fix>3d</fix>
</trkpt>
<trkpt lat="40.0713748" lon="-105.229789">
  <ele>1582.95</ele>
  <time>2026-08-28T17:49:24Z</time>
  <course>245.23</course>
  <speed>0.02</speed>
  <fix>3d</fix>
</trkpt>
<trkpt lat="40.0713749" lon="-105.229789">
  <ele>1583.0</ele>
  <time>2026-08-28T17:49:24Z</time>
  <course>0.0</course>
  <speed>0.0</speed>
  <fix>3d</fix>
</trkpt>
<trkpt lat="40.0713747" lon="-105.229789">
  <ele>1582.96</ele>
  <time>2026-08-28T17:49:24Z</time>
  <course>245.22</course>
  <speed>0.02</speed>
  <fix>3d</fix>
</trkpt>
<trkpt lat="40.0713749" lon="-105.229789">
  <ele>1583.0</ele>
  <time>2026-08-28T17:49:24Z</time>
  <course>0.0</course>
  <speed>0.0</speed>
  <fix>3d</fix>
</trkpt>
<trkpt lat="40.0713748" lon="-105.229789">
  <ele>1582.96</ele>
  <time>2026-08-28T17:49:24Z</time>
  <course>245.22</course>
  <speed>0.02</speed>
  <fix>3d</fix>
</trkpt>
<trkpt lat="40.0713749" lon="-105.229789">
  <ele>1583.0</ele>
  <time>2026-08-28T17:49:24Z</time>
  <course>0.0</course>
  <speed>0.0</speed>
  <fix>3d</fix>
</trkpt>
<trkpt lat="40.0713747" lon="-105.229789">
  <ele>1582.97</ele>
  <time>2026-08-28T17:49:24Z</time>
  <course>245.22</course>
  <speed>0.02</speed>
  <fix>3d</fix>
</trkpt>
<trkpt lat="40.0713749" lon="-105.229789">
  <ele>1583.0</ele>
  <time>2026-08-28T17:49:24Z</time>
  <course>0.0</course>
  <speed>0.0</speed>
  <fix>3d</fix>
</trkpt>
<trkpt lat="40.0713747" lon="-105.229789">
  <ele>1582.97</ele>
  <time>2026-08-28T17:49:24Z</time>
  <course>245.22</course>
  <speed>0.02</speed>
  <fix>3d</fix>
</trkpt>
<trkpt lat="40.0713749" lon="-105.229789">
  <ele>1583.0</ele>
  <time>2026-08-28T17:49:24Z</time>
  <course>0.0</course>
  <speed>0.0</speed>
  <fix>3d</fix>
</trkpt>
<trkpt lat="40.0713747" lon="-105.229789">
  <ele>1582.97</ele>
  <time>2026-08-28T17:49:24Z</time>
  <course>245.22</course>
  <speed>0.02</speed>
  <fix>3d</fix>
</trkpt>
<trkpt lat="40.0713749" lon="-105.229789">
  <ele>1583.0</ele>
  <time>2026-08-28T17:49:24Z</time>
  <course>0.0</course>
  <speed>0.0</speed>
  <fix>3d</fix>
</trkpt>
<trkpt lat="40.0713747" lon="-105.229789">
  <ele>1582.97</ele>
  <time>2026-08-28T17:49:24Z</time>
  <course>245.22</course>
  <speed>0.02</speed>
  <fix>3d</fix>
</trkpt>
<trkpt lat="40.0713749" lon="-105.229789">
  <ele>1583.0</ele>
  <time>2026-08-28T17:49:24Z</time>
  <course>0.0</course>
  <speed>0.0</speed>
  <fix>3d</fix>
</trkpt>
<trkpt lat="40.0713747" lon="-105.229789">
  <ele>1582.96</ele>
  <time>2026-08-28T17:49:24Z</time>
  <course>245.22</course>
  <speed>0.02</speed>
  <fix>3d</fix>
</trkpt>
<trkpt lat="40.0713749" lon="-105.229789">
  <ele>1583.0</ele>
  <time>2026-08-28T17:49:24Z</time>
  <course>0.0</course>
  <speed>0.0</speed>
  <fix>3d</fix>
</trkpt>
<trkpt lat="40.0713747" lon="-105.229789">
  <ele>1582.96</ele>
  <time>2026-08-28T17:49:24Z</time>
  <course>245.22</course>
  <speed>0.02</speed>
  <fix>3d</fix>
</trkpt>
<trkpt lat="40.0713749" lon="-105.229789">
  <ele>1583.0</ele>
  <time>2026-08-28T17:49:24Z</time>
  <course>0.0</course>
  <speed>0.0</speed>
  <fix>3d</fix>
</trkpt>
<trkpt lat="40.0713747" lon="-105.229789">
  <ele>1582.96</ele>
  <time>2026-08-28T17:49:24Z</time>
  <course>245.21</course>
  <speed>0.02</speed>
  <fix>3d</fix>
</trkpt>
<trkpt lat="40.0713749" lon="-105.229789">
  <ele>1583.0</ele>
  <time>2026-08-28T17:49:24Z</time>
  <course>0.0</course>
  <speed>0.0</speed>
  <fix>3d</fix>
</trkpt>
<trkpt lat="40.0713747" lon="-105.229789">
  <ele>1582.96</ele>
  <time>2026-08-28T17:49:24Z</time>
  <course>245.21</course>
  <speed>0.02</speed>
  <fix>3d</fix>
</trkpt>
<trkpt lat="40.0713749" lon="-105.229789">
  <ele>1583.0</ele>
  <time>2026-08-28T17:49:24Z</time>
  <course>0.0</course>
  <speed>0.0</speed>
  <fix>3d</fix>
</trkpt>
<trkpt lat="40.0713747" lon="-105.229789">
  <ele>1582.96</ele>
  <time>2026-08-28T17:49:24Z</time>
  <course>245.21</course>
  <speed>0.02</speed>
  <fix>3d</fix>
</trkpt>
<trkpt lat="40.0713749" lon="-105.229789">
  <ele>1583.0</ele>
  <time>2026-08-28T17:49:24Z</time>
  <course>0.0</course>
  <speed>0.0</speed>
  <fix>3d</fix>
</trkpt>
<trkpt lat="40.0713748" lon="-105.229789">
  <ele>1582.96</ele>
  <time>2026-08-28T17:49:24Z</time>
  <course>245.21</course>
  <speed>0.02</speed>
  <fix>3d</fix>
</trkpt>
<trkpt lat="40.0713749" lon="-105.229789">
  <ele>1583.0</ele>
  <time>2026-08-28T17:49:24Z</time>
  <course>0.0</course>
  <speed>0.0</speed>
  <fix>3d</fix>
</trkpt>
<trkpt lat="40.0713747" lon="-105.229789">
  <ele>1582.97</ele>
  <time>2026-08-28T17:49:24Z</time>
  <course>245.21</course>
  <speed>0.02</speed>
  <fix>3d</fix>
</trkpt>
<trkpt lat="40.0713749" lon="-105.229789">
  <ele>1583.0</ele>
  <time>2026-08-28T17:49:24Z</time>
  <course>0.0</course>
  <speed>0.0</speed>
  <fix>3d</fix>
</trkpt>
<trkpt lat="40.0713748" lon="-105.229789">
  <ele>1582.97</ele>
  <time>2026-08-28T17:49:24Z</time>
  <course>245.21</course>
  <speed>0.02</speed>
  <fix>3d</fix>
</trkpt>
<trkpt lat="40.0713749" lon="-105.229789">
  <ele>1583.0</ele>
  <time>2026-08-28T17:49:24Z</time>
  <course>0.0</course>
  <speed>0.0</speed>
  <fix>3d</fix>
</trkpt>
<trkpt lat="40.0713747" lon="-105.229789">
  <ele>1582.98</ele>
  <time>2026-08-28T17:49:24Z</time>
  <course>245.21</course>
  <speed>0.02</speed>
  <fix>3d</fix>
</trkpt>
<trkpt lat="40.0713749" lon="-105.229789">
  <ele>1583.0</ele>
  <time>2026-08-28T17:49:24Z</time>
  <course>0.0</course>
  <speed>0.0</speed>
  <fix>3d</fix>
</trkpt>
<trkpt lat="40.0713748" lon="-105.229789">
  <ele>1582.99</ele>
  <time>2026-08-28T17:49:24Z</time>
  <course>245.21</course>
  <speed>0.02</speed>
  <fix>3d</fix>
</trkpt>
<trkpt lat="40.0713749" lon="-105.229789">
  <ele>1583.0</ele>
  <time>2026-08-28T17:49:24Z</time>
  <course>0.0</course>
  <speed>0.0</speed>
  <fix>3d</fix>
</trkpt>
<trkpt lat="40.0713747" lon="-105.229789">
  <ele>1582.99</ele>
  <time>2026-08-28T17:49:24Z</time>
  <course>245.2</course>
  <speed>0.02</speed>
  <fix>3d</fix>
</trkpt>
<trkpt lat="40.0713749" lon="-105.229789">
  <ele>1583.0</ele>
  <time>2026-08-28T17:49:24Z</time>
  <course>0.0</course>
  <speed>0.0</speed>
  <fix>3d</fix>
</trkpt>
<trkpt lat="40.0713747" lon="-105.229789">
  <ele>1583.0</ele>
  <time>2026-08-28T17:49:24Z</time>
  <course>245.2</course>
  <speed>0.02</speed>
  <fix>3d</fix>
</trkpt>
<trkpt lat="40.0713749" lon="-105.229789">
  <ele>1583.0</ele>
  <time>2026-08-28T17:49:24Z</time>
  <course>0.0</course>
  <speed>0.0</speed>
  <fix>3d</fix>
</trkpt>
<trkpt lat="40.0713747" lon="-105.229789">
  <ele>1583.01</ele>
  <time>2026-08-28T17:49:24Z</time>
  <course>245.2</course>
  <speed>0.02</speed>
  <fix>3d</fix>
</trkpt>
<trkpt lat="40.0713749" lon="-105.229789">
  <ele>1583.0</ele>
  <time>2026-08-28T17:49:24Z</time>
  <course>0.0</course>
  <speed>0.0</speed>
  <fix>3d</fix>
</trkpt>
<trkpt lat="40.0713747" lon="-105.229789">
  <ele>1583.01</ele>
  <time>2026-08-28T17:49:24Z</time>
  <course>245.2</course>
  <speed>0.02</speed>
  <fix>3d</fix>
</trkpt>
<trkpt lat="40.0713749" lon="-105.229789">
  <ele>1583.0</ele>
  <time>2026-08-28T17:49:24Z</time>
  <course>0.0</course>
  <speed>0.0</speed>
  <fix>3d</fix>
</trkpt>
<trkpt lat="40.0713747" lon="-105.229789">
  <ele>1583.01</ele>
  <time>2026-08-28T17:49:24Z</time>
  <course>245.2</course>
  <speed>0.02</speed>
  <fix>3d</fix>
</trkpt>
<trkpt lat="40.0713749" lon="-105.229789">
  <ele>1583.0</ele>
  <time>2026-08-28T17:49:24Z</time>
  <course>0.0</course>
  <speed>0.0</speed>
  <fix>3d</fix>
</trkpt>
<trkpt lat="40.0713747" lon="-105.229789">
  <ele>1583.01</ele>
  <time>2026-08-28T17:49:24Z</time>
  <course>245.2</course>
  <speed>0.02</speed>
  <fix>3d</fix>
</trkpt>
<trkpt lat="40.0713749" lon="-105.229789">
  <ele>1583.0</ele>
  <time>2026-08-28T17:49:24Z</time>
  <course>0.0</course>
  <speed>0.0</speed>
  <fix>3d</fix>
</trkpt>
<trkpt lat="40.0713747" lon="-105.229789">
  <ele>1583.01</ele>
  <time>2026-08-28T17:49:24Z</time>
  <course>245.2</course>
  <speed>0.02</speed>
  <fix>3d</fix>
</trkpt>
<trkpt lat="40.0713749" lon="-105.229789">
  <ele>1583.0</ele>
  <time>2026-08-28T17:49:24Z</time>
  <course>0.0</course>
  <speed>0.0</speed>
  <fix>3d</fix>
</trkpt>
<trkpt lat="40.0713747" lon="-105.229789">
  <ele>1583.01</ele>
  <time>2026-08-28T17:49:24Z</time>
  <course>245.2</course>
  <speed>0.02</speed>
  <fix>3d</fix>
</trkpt>
<trkpt lat="40.0713749" lon="-105.229789">
  <ele>1583.0</ele>
  <time>2026-08-28T17:49:24Z</time>
  <course>0.0</course>
  <speed>0.0</speed>
  <fix>3d</fix>
</trkpt>
<trkpt lat="40.0713747" lon="-105.229789">
  <ele>1583.01</ele>
  <time>2026-08-28T17:49:24Z</time>
  <course>245.19</course>
  <speed>0.02</speed>
  <fix>3d</fix>
</trkpt>
<trkpt lat="40.0713749" lon="-105.229789">
  <ele>1583.0</ele>
  <time>2026-08-28T17:49:24Z</time>
  <course>0.0</course>
  <speed>0.0</speed>
  <fix>3d</fix>
</trkpt>
<trkpt lat="40.0713747" lon="-105.229789">
  <ele>1583.01</ele>
  <time>2026-08-28T17:49:24Z</time>
  <course>245.19</course>
  <speed>0.02</speed>
  <fix>3d</fix>
</trkpt>
<trkpt lat="40.0713749" lon="-105.229789">
  <ele>1583.0</ele>
  <time>2026-08-28T17:49:24Z</time>
  <course>0.0</course>
  <speed>0.0</speed>
  <fix>3d</fix>
</trkpt>
<trkpt lat="40.0713747" lon="-105.229789">
  <ele>1583.01</ele>
  <time>2026-08-28T17:49:24Z</time>
  <course>245.19</course>
  <speed>0.02</speed>
  <fix>3d</fix>
</trkpt>
<trkpt lat="40.0713749" lon="-105.229789">
  <ele>1583.0</ele>
  <time>2026-08-28T17:49:24Z</time>
  <course>0.0</course>
  <speed>0.0</speed>
  <fix>3d</fix>
</trkpt>
<trkpt lat="40.0713747" lon="-105.229789">
  <ele>1583.01</ele>
  <time>2026-08-28T17:49:24Z</time>
  <course>245.19</course>
  <speed>0.02</speed>
  <fix>3d</fix>
</trkpt>
<trkpt lat="40.0713749" lon="-105.229789">
  <ele>1583.0</ele>
  <time>2026-08-28T17:49:24Z</time>
  <course>0.0</course>
  <speed>0.0</speed>
  <fix>3d</fix>
</trkpt>
<trkpt lat="40.0713747" lon="-105.229789">
  <ele>1583.0</ele>
  <time>2026-08-28T17:49:24Z</time>
  <course>245.19</course>
  <speed>0.02</speed>
  <fix>3d</fix>
</trkpt>
<trkpt lat="40.0713749" lon="-105.229789">
  <ele>1583.0</ele>
  <time>2026-08-28T17:49:24Z</time>
  <course>0.0</course>
  <speed>0.0</speed>
  <fix>3d</fix>
</trkpt>
<trkpt lat="40.0713747" lon="-105.229789">
  <ele>1583.0</ele>
  <time>2026-08-28T17:49:24Z</time>
  <course>245.19</course>
  <speed>0.02</speed>
  <fix>3d</fix>
</trkpt>
<trkpt lat="40.0713749" lon="-105.229789">
  <ele>1583.0</ele>
  <time>2026-08-28T17:49:24Z</time>
  <course>0.0</course>
  <speed>0.0</speed>
  <fix>3d</fix>
</trkpt>
<trkpt lat="40.0713747" lon="-105.229789">
  <ele>1583.0</ele>
  <time>2026-08-28T17:49:24Z</time>
  <course>245.19</course>
  <speed>0.02</speed>
  <fix>3d</fix>
</trkpt>
<trkpt lat="40.0713749" lon="-105.229789">
  <ele>1583.0</ele>
  <time>2026-08-28T17:49:24Z</time>
  <course>0.0</course>
  <speed>0.0</speed>
  <fix>3d</fix>
</trkpt>
<trkpt lat="40.0713747" lon="-105.229789">
  <ele>1583.0</ele>
  <time>2026-08-28T17:49:24Z</time>
  <course>245.19</course>
  <speed>0.02</speed>
  <fix>3d</fix>
</trkpt>
<trkpt lat="40.0713749" lon="-105.229789">
  <ele>1583.0</ele>
  <time>2026-08-28T17:49:24Z</time>
  <course>0.0</course>
  <speed>0.0</speed>
  <fix>3d</fix>
</trkpt>
<trkpt lat="40.0713747" lon="-105.229789">
  <ele>1582.99</ele>
  <time>2026-08-28T17:49:24Z</time>
  <course>245.19</course>
  <speed>0.02</speed>
  <fix>3d</fix>
</trkpt>
<trkpt lat="40.0713749" lon="-105.229789">
  <ele>1583.0</ele>
  <time>2026-08-28T17:49:24Z</time>
  <course>0.0</course>
  <speed>0.0</speed>
  <fix>3d</fix>
</trkpt>
<trkpt lat="40.0713748" lon="-105.229789">
  <ele>1582.99</ele>
  <time>2026-08-28T17:49:24Z</time>
  <course>245.18</course>
  <speed>0.02</speed>
  <fix>3d</fix>
</trkpt>
<trkpt lat="40.0713749" lon="-105.229789">
  <ele>1583.0</ele>
  <time>2026-08-28T17:49:24Z</time>
  <course>0.0</course>
  <speed>0.0</speed>
  <fix>3d</fix>
</trkpt>
<trkpt lat="40.0713747" lon="-105.229789">
  <ele>1582.99</ele>
  <time>2026-08-28T17:49:24Z</time>
  <course>245.18</course>
  <speed>0.02</speed>
  <fix>3d</fix>
</trkpt>
<trkpt lat="40.0713749" lon="-105.229789">
  <ele>1583.0</ele>
  <time>2026-08-28T17:49:24Z</time>
  <course>0.0</course>
  <speed>0.0</speed>
  <fix>3d</fix>
</trkpt>
<trkpt lat="40.0713748" lon="-105.229789">
  <ele>1582.99</ele>
  <time>2026-08-28T17:49:24Z</time>
  <course>245.18</course>
  <speed>0.02</speed>
  <fix>3d</fix>
</trkpt>
<trkpt lat="40.0713749" lon="-105.229789">
  <ele>1583.0</ele>
  <time>2026-08-28T17:49:24Z</time>
  <course>0.0</course>
  <speed>0.0</speed>
  <fix>3d</fix>
</trkpt>
<trkpt lat="40.0713747" lon="-105.229789">
  <ele>1582.99</ele>
  <time>2026-08-28T17:49:24Z</time>
  <course>245.18</course>
  <speed>0.02</speed>
  <fix>3d</fix>
</trkpt>
<trkpt lat="40.0713749" lon="-105.229789">
  <ele>1583.0</ele>
  <time>2026-08-28T17:49:24Z</time>
  <course>0.0</course>
  <speed>0.0</speed>
  <fix>3d</fix>
</trkpt>
<trkpt lat="40.0713748" lon="-105.229789">
  <ele>1582.99</ele>
  <time>2026-08-28T17:49:24Z</time>
  <course>245.18</course>
  <speed>0.02</speed>
  <fix>3d</fix>
</trkpt>
<trkpt lat="40.0713749" lon="-105.229789">
  <ele>1583.0</ele>
  <time>2026-08-28T17:49:24Z</time>
  <course>0.0</course>
  <speed>0.0</speed>
  <fix>3d</fix>
</trkpt>
<trkpt lat="40.0713747" lon="-105.229789">
  <ele>1582.99</ele>
  <time>2026-08-28T17:49:24Z</time>
  <course>245.18</course>
  <speed>0.02</speed>
  <fix>3d</fix>
</trkpt>
<trkpt lat="40.0713749" lon="-105.229789">
  <ele>1583.0</ele>
  <time>2026-08-28T17:49:24Z</time>
  <course>0.0</course>
  <speed>0.0</speed>
  <fix>3d</fix>
</trkpt>
<trkpt lat="40.0713748" lon="-105.229789">
  <ele>1582.99</ele>
  <time>2026-08-28T17:49:24Z</time>
  <course>245.18</course>
  <speed>0.02</speed>
  <fix>3d</fix>
</trkpt>
<trkpt lat="40.0713749" lon="-105.229789">
  <ele>1583.0</ele>
  <time>2026-08-28T17:49:24Z</time>
  <course>0.0</course>
  <speed>0.0</speed>
  <fix>3d</fix>
</trkpt>
<trkpt lat="40.0713747" lon="-105.229789">
  <ele>1582.99</ele>
  <time>2026-08-28T17:49:24Z</time>
  <course>245.18</course>
  <speed>0.02</speed>
  <fix>3d</fix>
</trkpt>
<trkpt lat="40.0713749" lon="-105.229789">
  <ele>1583.0</ele>
  <time>2026-08-28T17:49:24Z</time>
  <course>0.0</course>
  <speed>0.0</speed>
  <fix>3d</fix>
</trkpt>
<trkpt lat="40.0713748" lon="-105.229789">
  <ele>1583.0</ele>
  <time>2026-08-28T17:49:24Z</time>
  <course>245.18</course>
  <speed>0.02</speed>
  <fix>3d</fix>
</trkpt>
<trkpt lat="40.0713749" lon="-105.229789">
  <ele>1583.0</ele>
  <time>2026-08-28T17:49:24Z</time>
  <course>0.0</course>
  <speed>0.0</speed>
  <fix>3d</fix>
</trkpt>
<trkpt lat="40.0713747" lon="-105.229789">
  <ele>1583.0</ele>
  <time>2026-08-28T17:49:24Z</time>
  <course>245.17</course>
  <speed>0.02</speed>
  <fix>3d</fix>
</trkpt>
<trkpt lat="40.0713749" lon="-105.229789">
  <ele>1583.0</ele>
  <time>2026-08-28T17:49:24Z</time>
  <course>0.0</course>
  <speed>0.0</speed>
  <fix>3d</fix>
</trkpt>
<trkpt lat="40.0713748" lon="-105.229789">
  <ele>1583.01</ele>
  <time>2026-08-28T17:49:24Z</time>
  <course>245.17</course>
  <speed>0.02</speed>
  <fix>3d</fix>
</trkpt>
<trkpt lat="40.0713749" lon="-105.229789">
  <ele>1583.0</ele>
  <time>2026-08-28T17:49:24Z</time>
  <course>0.0</course>
  <speed>0.0</speed>
  <fix>3d</fix>
</trkpt>
<trkpt lat="40.0713747" lon="-105.229789">
  <ele>1583.02</ele>
  <time>2026-08-28T17:49:24Z</time>
  <course>245.17</course>
  <speed>0.02</speed>
  <fix>3d</fix>
</trkpt>
<trkpt lat="40.0713749" lon="-105.229789">
  <ele>1583.0</ele>
  <time>2026-08-28T17:49:24Z</time>
  <course>0.0</course>
  <speed>0.0</speed>
  <fix>3d</fix>
</trkpt>
<trkpt lat="40.0713747" lon="-105.229789">
  <ele>1583.02</ele>
  <time>2026-08-28T17:49:24Z</time>
  <course>245.17</course>
  <speed>0.02</speed>
  <fix>3d</fix>
</trkpt>
<trkpt lat="40.0713749" lon="-105.229789">
  <ele>1583.0</ele>
  <time>2026-08-28T17:49:24Z</time>
  <course>0.0</course>
  <speed>0.0</speed>
  <fix>3d</fix>
</trkpt>
<trkpt lat="40.0713747" lon="-105.229789">
  <ele>1583.03</ele>
  <time>2026-08-28T17:49:24Z</time>
  <course>245.17</course>
  <speed>0.02</speed>
  <fix>3d</fix>
</trkpt>
<trkpt lat="40.0713749" lon="-105.229789">
  <ele>1583.0</ele>
  <time>2026-08-28T17:49:24Z</time>
  <course>0.0</course>
  <speed>0.0</speed>
  <fix>3d</fix>
</trkpt>
<trkpt lat="40.0713747" lon="-105.229789">
  <ele>1583.04</ele>
  <time>2026-08-28T17:49:24Z</time>
  <course>245.17</course>
  <speed>0.02</speed>
  <fix>3d</fix>
</trkpt>
<trkpt lat="40.0713749" lon="-105.229789">
  <ele>1583.0</ele>
  <time>2026-08-28T17:49:24Z</time>
  <course>0.0</course>
  <speed>0.0</speed>
  <fix>3d</fix>
</trkpt>
<trkpt lat="40.0713747" lon="-105.229789">
  <ele>1583.04</ele>
  <time>2026-08-28T17:49:24Z</time>
  <course>245.17</course>
  <speed>0.02</speed>
  <fix>3d</fix>
</trkpt>
<trkpt lat="40.0713749" lon="-105.229789">
  <ele>1583.0</ele>
  <time>2026-08-28T17:49:24Z</time>
  <course>0.0</course>
  <speed>0.0</speed>
  <fix>3d</fix>
</trkpt>
<trkpt lat="40.0713747" lon="-105.229789">
  <ele>1583.04</ele>
  <time>2026-08-28T17:49:24Z</time>
  <course>245.17</course>
  <speed>0.02</speed>
  <fix>3d</fix>
</trkpt>
<trkpt lat="40.0713749" lon="-105.229789">
  <ele>1583.0</ele>
  <time>2026-08-28T17:49:24Z</time>
  <course>0.0</course>
  <speed>0.0</speed>
  <fix>3d</fix>
</trkpt>
<trkpt lat="40.0713747" lon="-105.229789">
  <ele>1583.04</ele>
  <time>2026-08-28T17:49:24Z</time>
  <course>245.17</course>
  <speed>0.02</speed>
  <fix>3d</fix>
</trkpt>
<trkpt lat="40.0713749" lon="-105.229789">
  <ele>1583.0</ele>
  <time>2026-08-28T17:49:24Z</time>
  <course>0.0</course>
  <speed>0.0</speed>
  <fix>3d</fix>
</trkpt>
<trkpt lat="40.0713747" lon="-105.229789">
  <ele>1583.04</ele>
  <time>2026-08-28T17:49:24Z</time>
  <course>245.16</course>
  <speed>0.02</speed>
  <fix>3d</fix>
</trkpt>
<trkpt lat="40.0713749" lon="-105.229789">
  <ele>1583.0</ele>
  <time>2026-08-28T17:49:24Z</time>
  <course>0.0</course>
  <speed>0.0</speed>
  <fix>3d</fix>
</trkpt>
<trkpt lat="40.0713747" lon="-105.229789">
  <ele>1583.04</ele>
  <time>2026-08-28T17:49:24Z</time>
  <course>245.16</course>
  <speed>0.02</speed>
  <fix>3d</fix>
</trkpt>
<trkpt lat="40.0713749" lon="-105.229789">
  <ele>1583.0</ele>
  <time>2026-08-28T17:49:24Z</time>
  <course>0.0</course>
  <speed>0.0</speed>
  <fix>3d</fix>
</trkpt>
<trkpt lat="40.0713748" lon="-105.229789">
  <ele>1583.04</ele>
  <time>2026-08-28T17:49:24Z</time>
  <course>245.16</course>
  <speed>0.02</speed>
  <fix>3d</fix>
</trkpt>
<trkpt lat="40.0713749" lon="-105.229789">
  <ele>1583.0</ele>
  <time>2026-08-28T17:49:24Z</time>
  <course>0.0</course>
  <speed>0.0</speed>
  <fix>3d</fix>
</trkpt>
<trkpt lat="40.0713747" lon="-105.229789">
  <ele>1583.03</ele>
  <time>2026-08-28T17:49:24Z</time>
  <course>245.16</course>
  <speed>0.02</speed>
  <fix>3d</fix>
</trkpt>
<trkpt lat="40.0713749" lon="-105.229789">
  <ele>1583.0</ele>
  <time>2026-08-28T17:49:24Z</time>
  <course>0.0</course>
  <speed>0.0</speed>
  <fix>3d</fix>
</trkpt>
<trkpt lat="40.0713748" lon="-105.229789">
  <ele>1583.03</ele>
  <time>2026-08-28T17:49:24Z</time>
  <course>245.16</course>
  <speed>0.02</speed>
  <fix>3d</fix>
</trkpt>
<trkpt lat="40.0713749" lon="-105.229789">
  <ele>1583.0</ele>
  <time>2026-08-28T17:49:24Z</time>
  <course>0.0</course>
  <speed>0.0</speed>
  <fix>3d</fix>
</trkpt>
<trkpt lat="40.0713747" lon="-105.229789">
  <ele>1583.03</ele>
  <time>2026-08-28T17:49:24Z</time>
  <course>245.16</course>
  <speed>0.02</speed>
  <fix>3d</fix>
</trkpt>
<trkpt lat="40.0713749" lon="-105.229789">
  <ele>1583.0</ele>
  <time>2026-08-28T17:49:24Z</time>
  <course>0.0</course>
  <speed>0.0</speed>
  <fix>3d</fix>
</trkpt>
<trkpt lat="40.0713748" lon="-105.229789">
  <ele>1583.03</ele>
  <time>2026-08-28T17:49:24Z</time>
  <course>245.16</course>
  <speed>0.02</speed>
  <fix>3d</fix>
</trkpt>
<trkpt lat="40.0713749" lon="-105.229789">
  <ele>1583.0</ele>
  <time>2026-08-28T17:49:24Z</time>
  <course>0.0</course>
  <speed>0.0</speed>
  <fix>3d</fix>
</trkpt>
<trkpt lat="40.0713747" lon="-105.229789">
  <ele>1583.03</ele>
  <time>2026-08-28T17:49:24Z</time>
  <course>245.16</course>
  <speed>0.02</speed>
  <fix>3d</fix>
</trkpt>
<trkpt lat="40.0713749" lon="-105.229789">
  <ele>1583.0</ele>
  <time>2026-08-28T17:49:24Z</time>
  <course>0.0</course>
  <speed>0.0</speed>
  <fix>3d</fix>
</trkpt>
<trkpt lat="40.0713748" lon="-105.229789">
  <ele>1583.03</ele>
  <time>2026-08-28T17:49:24Z</time>
  <course>245.16</course>
  <speed>0.02</speed>
  <fix>3d</fix>
</trkpt>
<trkpt lat="40.0713749" lon="-105.229789">
  <ele>1583.0</ele>
  <time>2026-08-28T17:49:24Z</time>
  <course>0.0</course>
  <speed>0.0</speed>
  <fix>3d</fix>
</trkpt>
<trkpt lat="40.0713747" lon="-105.229789">
  <ele>1583.02</ele>
  <time>2026-08-28T17:49:24Z</time>
  <course>245.16</course>
  <speed>0.02</speed>
  <fix>3d</fix>
</trkpt>
<trkpt lat="40.0713749" lon="-105.229789">
  <ele>1583.0</ele>
  <time>2026-08-28T17:49:24Z</time>
  <course>0.0</course>
  <speed>0.0</speed>
  <fix>3d</fix>
</trkpt>
<trkpt lat="40.0713748" lon="-105.229789">
  <ele>1583.02</ele>
  <time>2026-08-28T17:49:24Z</time>
  <course>245.15</course>
  <speed>0.02</speed>
  <fix>3d</fix>
</trkpt>
<trkpt lat="40.0713749" lon="-105.229789">
  <ele>1583.0</ele>
  <time>2026-08-28T17:49:24Z</time>
  <course>0.0</course>
  <speed>0.0</speed>
  <fix>3d</fix>
</trkpt>
<trkpt lat="40.0713747" lon="-105.229789">
  <ele>1583.01</ele>
  <time>2026-08-28T17:49:24Z</time>
  <course>245.15</course>
  <speed>0.02</speed>
  <fix>3d</fix>
</trkpt>
<trkpt lat="40.0713749" lon="-105.229789">
  <ele>1583.0</ele>
  <time>2026-08-28T17:49:24Z</time>
  <course>0.0</course>
  <speed>0.0</speed>
  <fix>3d</fix>
</trkpt>
<trkpt lat="40.0713748" lon="-105.229789">
  <ele>1583.0</ele>
  <time>2026-08-28T17:49:24Z</time>
  <course>245.15</course>
  <speed>0.02</speed>
  <fix>3d</fix>
</trkpt>
<trkpt lat="40.0713749" lon="-105.229789">
  <ele>1583.0</ele>
  <time>2026-08-28T17:49:24Z</time>
  <course>0.0</course>
  <speed>0.0</speed>
  <fix>3d</fix>
</trkpt>
<trkpt lat="40.0713747" lon="-105.229789">
  <ele>1583.0</ele>
  <time>2026-08-28T17:49:24Z</time>
  <course>245.15</course>
  <speed>0.02</speed>
  <fix>3d</fix>
</trkpt>
<trkpt lat="40.0713749" lon="-105.229789">
  <ele>1583.0</ele>
  <time>2026-08-28T17:49:24Z</time>
  <course>0.0</course>
  <speed>0.0</speed>
  <fix>3d</fix>
</trkpt>
<trkpt lat="40.0713747" lon="-105.229789">
  <ele>1582.99</ele>
  <time>2026-08-28T17:49:24Z</time>
  <course>245.15</course>
  <speed>0.02</speed>
  <fix>3d</fix>
</trkpt>
<trkpt lat="40.0713749" lon="-105.229789">
  <ele>1583.0</ele>
  <time>2026-08-28T17:49:24Z</time>
  <course>0.0</course>
  <speed>0.0</speed>
  <fix>3d</fix>
</trkpt>
<trkpt lat="40.0713747" lon="-105.229789">
  <ele>1582.99</ele>
  <time>2026-08-28T17:49:24Z</time>
  <course>245.15</course>
  <speed>0.02</speed>
  <fix>3d</fix>
</trkpt>
<trkpt lat="40.0713749" lon="-105.229789">
  <ele>1583.0</ele>
  <time>2026-08-28T17:49:24Z</time>
  <course>0.0</course>
  <speed>0.0</speed>
  <fix>3d</fix>
</trkpt>
<trkpt lat="40.0713747" lon="-105.229789">
  <ele>1582.98</ele>
  <time>2026-08-28T17:49:24Z</time>
  <course>245.15</course>
  <speed>0.02</speed>
  <fix>3d</fix>
</trkpt>
<trkpt lat="40.0713749" lon="-105.229789">
  <ele>1583.0</ele>
  <time>2026-08-28T17:49:24Z</time>
  <course>0.0</course>
  <speed>0.0</speed>
  <fix>3d</fix>
</trkpt>
<trkpt lat="40.0713747" lon="-105.229789">
  <ele>1582.98</ele>
  <time>2026-08-28T17:49:25Z</time>
  <course>245.15</course>
  <speed>0.02</speed>
  <fix>3d</fix>
</trkpt>
<trkpt lat="40.0713749" lon="-105.229789">
  <ele>1583.0</ele>
  <time>2026-08-28T17:49:25Z</time>
  <course>0.0</course>
  <speed>0.0</speed>
  <fix>3d</fix>
</trkpt>
<trkpt lat="40.0713747" lon="-105.229789">
  <ele>1582.97</ele>
  <time>2026-08-28T17:49:25Z</time>
  <course>245.15</course>
  <speed>0.02</speed>
  <fix>3d</fix>
</trkpt>
<trkpt lat="40.0713749" lon="-105.229789">
  <ele>1583.0</ele>
  <time>2026-08-28T17:49:25Z</time>
  <course>0.0</course>
  <speed>0.0</speed>
  <fix>3d</fix>
</trkpt>
<trkpt lat="40.0713747" lon="-105.229789">
  <ele>1582.97</ele>
  <time>2026-08-28T17:49:25Z</time>
  <course>245.14</course>
  <speed>0.02</speed>
  <fix>3d</fix>
</trkpt>
<trkpt lat="40.0713749" lon="-105.229789">
  <ele>1583.0</ele>
  <time>2026-08-28T17:49:25Z</time>
  <course>0.0</course>
  <speed>0.0</speed>
  <fix>3d</fix>
</trkpt>
<trkpt lat="40.0713747" lon="-105.229789">
  <ele>1582.96</ele>
  <time>2026-08-28T17:49:25Z</time>
  <course>245.14</course>
  <speed>0.02</speed>
  <fix>3d</fix>
</trkpt>
<trkpt lat="40.0713749" lon="-105.229789">
  <ele>1583.0</ele>
  <time>2026-08-28T17:49:25Z</time>
  <course>0.0</course>
  <speed>0.0</speed>
  <fix>3d</fix>
</trkpt>
<trkpt lat="40.0713747" lon="-105.229789">
  <ele>1582.96</ele>
  <time>2026-08-28T17:49:25Z</time>
  <course>245.14</course>
  <speed>0.02</speed>
  <fix>3d</fix>
</trkpt>
<trkpt lat="40.0713749" lon="-105.229789">
  <ele>1583.0</ele>
  <time>2026-08-28T17:49:25Z</time>
  <course>0.0</course>
  <speed>0.0</speed>
  <fix>3d</fix>
</trkpt>
<trkpt lat="40.0713747" lon="-105.229789">
  <ele>1582.96</ele>
  <time>2026-08-28T17:49:25Z</time>
  <course>245.14</course>
  <speed>0.02</speed>
  <fix>3d</fix>
</trkpt>
<trkpt lat="40.0713749" lon="-105.229789">
  <ele>1583.0</ele>
  <time>2026-08-28T17:49:25Z</time>
  <course>0.0</course>
  <speed>0.0</speed>
  <fix>3d</fix>
</trkpt>
<trkpt lat="40.0713747" lon="-105.229789">
  <ele>1582.96</ele>
  <time>2026-08-28T17:49:25Z</time>
  <course>245.14</course>
  <speed>0.02</speed>
  <fix>3d</fix>
</trkpt>
<trkpt lat="40.0713749" lon="-105.229789">
  <ele>1583.0</ele>
  <time>2026-08-28T17:49:25Z</time>
  <course>0.0</course>
  <speed>0.0</speed>
  <fix>3d</fix>
</trkpt>
<trkpt lat="40.0713748" lon="-105.229789">
  <ele>1582.95</ele>
  <time>2026-08-28T17:49:25Z</time>
  <course>245.14</course>
  <speed>0.02</speed>
  <fix>3d</fix>
</trkpt>
<trkpt lat="40.0713749" lon="-105.229789">
  <ele>1583.0</ele>
  <time>2026-08-28T17:49:25Z</time>
  <course>0.0</course>
  <speed>0.0</speed>
  <fix>3d</fix>
</trkpt>
<trkpt lat="40.0713747" lon="-105.229789">
  <ele>1582.95</ele>
  <time>2026-08-28T17:49:25Z</time>
  <course>245.14</course>
  <speed>0.02</speed>
  <fix>3d</fix>
</trkpt>
<trkpt lat="40.0713749" lon="-105.229789">
  <ele>1583.0</ele>
  <time>2026-08-28T17:49:25Z</time>
  <course>0.0</course>
  <speed>0.0</speed>
  <fix>3d</fix>
</trkpt>
<trkpt lat="40.0713748" lon="-105.229789">
  <ele>1582.95</ele>
  <time>2026-08-28T17:49:25Z</time>
  <course>245.14</course>
  <speed>0.02</speed>
  <fix>3d</fix>
</trkpt>
<trkpt lat="40.0713749" lon="-105.229789">
  <ele>1583.0</ele>
  <time>2026-08-28T17:49:25Z</time>
  <course>0.0</course>
  <speed>0.0</speed>
  <fix>3d</fix>
</trkpt>
<trkpt lat="40.0713747" lon="-105.229789">
  <ele>1582.95</ele>
  <time>2026-08-28T17:49:25Z</time>
  <course>245.14</course>
  <speed>0.02</speed>
  <fix>3d</fix>
</trkpt>
<trkpt lat="40.0713749" lon="-105.229789">
  <ele>1583.0</ele>
  <time>2026-08-28T17:49:25Z</time>
  <course>0.0</course>
  <speed>0.0</speed>
  <fix>3d</fix>
</trkpt>
<trkpt lat="40.0713748" lon="-105.229789">
  <ele>1582.95</ele>
  <time>2026-08-28T17:49:25Z</time>
  <course>245.13</course>
  <speed>0.02</speed>
  <fix>3d</fix>
</trkpt>
<trkpt lat="40.0713749" lon="-105.229789">
  <ele>1583.0</ele>
  <time>2026-08-28T17:49:25Z</time>
  <course>0.0</course>
  <speed>0.0</speed>
  <fix>3d</fix>
</trkpt>
<trkpt lat="40.0713747" lon="-105.229789">
  <ele>1582.95</ele>
  <time>2026-08-28T17:49:25Z</time>
  <course>245.13</course>
  <speed>0.02</speed>
  <fix>3d</fix>
</trkpt>
<trkpt lat="40.0713749" lon="-105.229789">
  <ele>1583.0</ele>
  <time>2026-08-28T17:49:25Z</time>
  <course>0.0</course>
  <speed>0.0</speed>
  <fix>3d</fix>
</trkpt>
<trkpt lat="40.0713748" lon="-105.229789">
  <ele>1582.95</ele>
  <time>2026-08-28T17:49:25Z</time>
  <course>245.13</course>
  <speed>0.02</speed>
  <fix>3d</fix>
</trkpt>
<trkpt lat="40.0713749" lon="-105.229789">
  <ele>1583.0</ele>
  <time>2026-08-28T17:49:25Z</time>
  <course>0.0</course>
  <speed>0.0</speed>
  <fix>3d</fix>
</trkpt>
<trkpt lat="40.0713747" lon="-105.229789">
  <ele>1582.95</ele>
  <time>2026-08-28T17:49:25Z</time>
  <course>245.13</course>
  <speed>0.02</speed>
  <fix>3d</fix>
</trkpt>
<trkpt lat="40.0713749" lon="-105.229789">
  <ele>1583.0</ele>
  <time>2026-08-28T17:49:25Z</time>
  <course>0.0</course>
  <speed>0.0</speed>
  <fix>3d</fix>
</trkpt>
<trkpt lat="40.0713748" lon="-105.229789">
  <ele>1582.94</ele>
  <time>2026-08-28T17:49:25Z</time>
  <course>245.13</course>
  <speed>0.02</speed>
  <fix>3d</fix>
</trkpt>
<trkpt lat="40.0713749" lon="-105.229789">
  <ele>1583.0</ele>
  <time>2026-08-28T17:49:25Z</time>
  <course>0.0</course>
  <speed>0.0</speed>
  <fix>3d</fix>
</trkpt>
<trkpt lat="40.0713747" lon="-105.2297891">
  <ele>1582.94</ele>
  <time>2026-08-28T17:49:25Z</time>
  <course>245.13</course>
  <speed>0.02</speed>
  <fix>3d</fix>
</trkpt>
<trkpt lat="40.0713749" lon="-105.229789">
  <ele>1583.0</ele>
  <time>2026-08-28T17:49:25Z</time>
  <course>0.0</course>
  <speed>0.0</speed>
  <fix>3d</fix>
</trkpt>
<trkpt lat="40.0713747" lon="-105.229789">
  <ele>1582.94</ele>
  <time>2026-08-28T17:49:25Z</time>
  <course>245.13</course>
  <speed>0.02</speed>
  <fix>3d</fix>
</trkpt>
<trkpt lat="40.0713749" lon="-105.229789">
  <ele>1583.0</ele>
  <time>2026-08-28T17:49:25Z</time>
  <course>0.0</course>
  <speed>0.0</speed>
  <fix>3d</fix>
</trkpt>
<trkpt lat="40.0713747" lon="-105.2297891">
  <ele>1582.93</ele>
  <time>2026-08-28T17:49:25Z</time>
  <course>245.13</course>
  <speed>0.02</speed>
  <fix>3d</fix>
</trkpt>
<trkpt lat="40.0713749" lon="-105.229789">
  <ele>1583.0</ele>
  <time>2026-08-28T17:49:25Z</time>
  <course>0.0</course>
  <speed>0.0</speed>
  <fix>3d</fix>
</trkpt>
<trkpt lat="40.0713747" lon="-105.229789">
  <ele>1582.93</ele>
  <time>2026-08-28T17:49:25Z</time>
  <course>245.13</course>
  <speed>0.02</speed>
  <fix>3d</fix>
</trkpt>
<trkpt lat="40.0713749" lon="-105.229789">
  <ele>1583.0</ele>
  <time>2026-08-28T17:49:25Z</time>
  <course>0.0</course>
  <speed>0.0</speed>
  <fix>3d</fix>
</trkpt>
<trkpt lat="40.0713747" lon="-105.2297891">
  <ele>1582.94</ele>
  <time>2026-08-28T17:49:25Z</time>
  <course>245.13</course>
  <speed>0.02</speed>
  <fix>3d</fix>
</trkpt>
<trkpt lat="40.0713749" lon="-105.229789">
  <ele>1583.0</ele>
  <time>2026-08-28T17:49:25Z</time>
  <course>0.0</course>
  <speed>0.0</speed>
  <fix>3d</fix>
</trkpt>
<trkpt lat="40.0713747" lon="-105.229789">
  <ele>1582.93</ele>
  <time>2026-08-28T17:49:25Z</time>
  <course>245.13</course>
  <speed>0.02</speed>
  <fix>3d</fix>
</trkpt>
<trkpt lat="40.0713749" lon="-105.229789">
  <ele>1583.0</ele>
  <time>2026-08-28T17:49:25Z</time>
  <course>0.0</course>
  <speed>0.0</speed>
  <fix>3d</fix>
</trkpt>
<trkpt lat="40.0713747" lon="-105.2297891">
  <ele>1582.93</ele>
  <time>2026-08-28T17:49:25Z</time>
  <course>245.12</course>
  <speed>0.02</speed>
  <fix>3d</fix>
</trkpt>
<trkpt lat="40.0713749" lon="-105.229789">
  <ele>1583.0</ele>
  <time>2026-08-28T17:49:25Z</time>
  <course>0.0</course>
  <speed>0.0</speed>
  <fix>3d</fix>
</trkpt>
<trkpt lat="40.0713747" lon="-105.229789">
  <ele>1582.92</ele>
  <time>2026-08-28T17:49:25Z</time>
  <course>245.12</course>
  <speed>0.02</speed>
  <fix>3d</fix>
</trkpt>
<trkpt lat="40.0713749" lon="-105.229789">
  <ele>1583.0</ele>
  <time>2026-08-28T17:49:25Z</time>
  <course>0.0</course>
  <speed>0.0</speed>
  <fix>3d</fix>
</trkpt>
<trkpt lat="40.0713747" lon="-105.2297891">
  <ele>1582.92</ele>
  <time>2026-08-28T17:49:25Z</time>
  <course>245.12</course>
  <speed>0.02</speed>
  <fix>3d</fix>
</trkpt>
<trkpt lat="40.0713749" lon="-105.229789">
  <ele>1583.0</ele>
  <time>2026-08-28T17:49:25Z</time>
  <course>0.0</course>
  <speed>0.0</speed>
  <fix>3d</fix>
</trkpt>
<trkpt lat="40.0713747" lon="-105.229789">
  <ele>1582.92</ele>
  <time>2026-08-28T17:49:25Z</time>
  <course>245.12</course>
  <speed>0.02</speed>
  <fix>3d</fix>
</trkpt>
<trkpt lat="40.0713749" lon="-105.229789">
  <ele>1583.0</ele>
  <time>2026-08-28T17:49:25Z</time>
  <course>0.0</course>
  <speed>0.0</speed>
  <fix>3d</fix>
</trkpt>
<trkpt lat="40.0713747" lon="-105.2297891">
  <ele>1582.91</ele>
  <time>2026-08-28T17:49:25Z</time>
  <course>245.12</course>
  <speed>0.02</speed>
  <fix>3d</fix>
</trkpt>
<trkpt lat="40.0713749" lon="-105.229789">
  <ele>1583.0</ele>
  <time>2026-08-28T17:49:25Z</time>
  <course>0.0</course>
  <speed>0.0</speed>
  <fix>3d</fix>
</trkpt>
<trkpt lat="40.0713748" lon="-105.229789">
  <ele>1582.91</ele>
  <time>2026-08-28T17:49:25Z</time>
  <course>245.12</course>
  <speed>0.02</speed>
  <fix>3d</fix>
</trkpt>
<trkpt lat="40.0713749" lon="-105.229789">
  <ele>1583.0</ele>
  <time>2026-08-28T17:49:25Z</time>
  <course>0.0</course>
  <speed>0.0</speed>
  <fix>3d</fix>
</trkpt>
<trkpt lat="40.0713747" lon="-105.2297891">
  <ele>1582.91</ele>
  <time>2026-08-28T17:49:25Z</time>
  <course>245.12</course>
  <speed>0.02</speed>
  <fix>3d</fix>
</trkpt>
<trkpt lat="40.0713749" lon="-105.229789">
  <ele>1583.0</ele>
  <time>2026-08-28T17:49:25Z</time>
  <course>0.0</course>
  <speed>0.0</speed>
  <fix>3d</fix>
</trkpt>
<trkpt lat="40.0713748" lon="-105.229789">
  <ele>1582.9</ele>
  <time>2026-08-28T17:49:25Z</time>
  <course>245.12</course>
  <speed>0.02</speed>
  <fix>3d</fix>
</trkpt>
<trkpt lat="40.0713749" lon="-105.229789">
  <ele>1583.0</ele>
  <time>2026-08-28T17:49:25Z</time>
  <course>0.0</course>
  <speed>0.0</speed>
  <fix>3d</fix>
</trkpt>
<trkpt lat="40.0713747" lon="-105.2297891">
  <ele>1582.9</ele>
  <time>2026-08-28T17:49:25Z</time>
  <course>245.12</course>
  <speed>0.02</speed>
  <fix>3d</fix>
</trkpt>
<trkpt lat="40.0713749" lon="-105.229789">
  <ele>1583.0</ele>
  <time>2026-08-28T17:49:25Z</time>
  <course>0.0</course>
  <speed>0.0</speed>
  <fix>3d</fix>
</trkpt>
<trkpt lat="40.0713748" lon="-105.229789">
  <ele>1582.9</ele>
  <time>2026-08-28T17:49:25Z</time>
  <course>245.11</course>
  <speed>0.02</speed>
  <fix>3d</fix>
</trkpt>
<trkpt lat="40.0713749" lon="-105.229789">
  <ele>1583.0</ele>
  <time>2026-08-28T17:49:25Z</time>
  <course>0.0</course>
  <speed>0.0</speed>
  <fix>3d</fix>
</trkpt>
<trkpt lat="40.0713747" lon="-105.2297891">
  <ele>1582.91</ele>
  <time>2026-08-28T17:49:25Z</time>
  <course>245.11</course>
  <speed>0.02</speed>
  <fix>3d</fix>
</trkpt>
<trkpt lat="40.0713749" lon="-105.229789">
  <ele>1583.0</ele>
  <time>2026-08-28T17:49:25Z</time>
  <course>0.0</course>
  <speed>0.0</speed>
  <fix>3d</fix>
</trkpt>
<trkpt lat="40.0713748" lon="-105.229789">
  <ele>1582.92</ele>
  <time>2026-08-28T17:49:25Z</time>
  <course>245.11</course>
  <speed>0.02</speed>
  <fix>3d</fix>
</trkpt>
<trkpt lat="40.0713749" lon="-105.229789">
  <ele>1583.0</ele>
  <time>2026-08-28T17:49:25Z</time>
  <course>0.0</course>
  <speed>0.0</speed>
  <fix>3d</fix>
</trkpt>
<trkpt lat="40.0713747" lon="-105.2297891">
  <ele>1582.93</ele>
  <time>2026-08-28T17:49:25Z</time>
  <course>245.11</course>
  <speed>0.02</speed>
  <fix>3d</fix>
</trkpt>
<trkpt lat="40.0713749" lon="-105.229789">
  <ele>1583.0</ele>
  <time>2026-08-28T17:49:25Z</time>
  <course>0.0</course>
  <speed>0.0</speed>
  <fix>3d</fix>
</trkpt>
<trkpt lat="40.0713748" lon="-105.229789">
  <ele>1582.93</ele>
  <time>2026-08-28T17:49:25Z</time>
  <course>245.11</course>
  <speed>0.02</speed>
  <fix>3d</fix>
</trkpt>
<trkpt lat="40.0713749" lon="-105.229789">
  <ele>1583.0</ele>
  <time>2026-08-28T17:49:25Z</time>
  <course>0.0</course>
  <speed>0.0</speed>
  <fix>3d</fix>
</trkpt>
<trkpt lat="40.0713747" lon="-105.2297891">
  <ele>1582.94</ele>
  <time>2026-08-28T17:49:25Z</time>
  <course>245.11</course>
  <speed>0.02</speed>
  <fix>3d</fix>
</trkpt>
<trkpt lat="40.0713749" lon="-105.229789">
  <ele>1583.0</ele>
  <time>2026-08-28T17:49:25Z</time>
  <course>0.0</course>
  <speed>0.0</speed>
  <fix>3d</fix>
</trkpt>
<trkpt lat="40.0713748" lon="-105.229789">
  <ele>1582.95</ele>
  <time>2026-08-28T17:49:25Z</time>
  <course>245.11</course>
  <speed>0.02</speed>
  <fix>3d</fix>
</trkpt>
<trkpt lat="40.0713749" lon="-105.229789">
  <ele>1583.0</ele>
  <time>2026-08-28T17:49:25Z</time>
  <course>0.0</course>
  <speed>0.0</speed>
  <fix>3d</fix>
</trkpt>
<trkpt lat="40.0713747" lon="-105.2297891">
  <ele>1582.96</ele>
  <time>2026-08-28T17:49:25Z</time>
  <course>245.11</course>
  <speed>0.02</speed>
  <fix>3d</fix>
</trkpt>
<trkpt lat="40.0713749" lon="-105.229789">
  <ele>1583.0</ele>
  <time>2026-08-28T17:49:25Z</time>
  <course>0.0</course>
  <speed>0.0</speed>
  <fix>3d</fix>
</trkpt>
<trkpt lat="40.0713747" lon="-105.229789">
  <ele>1582.97</ele>
  <time>2026-08-28T17:49:25Z</time>
  <course>245.11</course>
  <speed>0.02</speed>
  <fix>3d</fix>
</trkpt>
<trkpt lat="40.0713749" lon="-105.229789">
  <ele>1583.0</ele>
  <time>2026-08-28T17:49:25Z</time>
  <course>0.0</course>
  <speed>0.0</speed>
  <fix>3d</fix>
</trkpt>
<trkpt lat="40.0713747" lon="-105.2297891">
  <ele>1582.97</ele>
  <time>2026-08-28T17:49:25Z</time>
  <course>245.11</course>
  <speed>0.02</speed>
  <fix>3d</fix>
</trkpt>
<trkpt lat="40.0713749" lon="-105.229789">
  <ele>1583.0</ele>
  <time>2026-08-28T17:49:25Z</time>
  <course>0.0</course>
  <speed>0.0</speed>
  <fix>3d</fix>
</trkpt>
<trkpt lat="40.0713747" lon="-105.229789">
  <ele>1582.98</ele>
  <time>2026-08-28T17:49:25Z</time>
  <course>245.11</course>
  <speed>0.02</speed>
  <fix>3d</fix>
</trkpt>
<trkpt lat="40.0713749" lon="-105.229789">
  <ele>1583.0</ele>
  <time>2026-08-28T17:49:25Z</time>
  <course>0.0</course>
  <speed>0.0</speed>
  <fix>3d</fix>
</trkpt>
<trkpt lat="40.0713747" lon="-105.2297891">
  <ele>1582.98</ele>
  <time>2026-08-28T17:49:25Z</time>
  <course>245.1</course>
  <speed>0.02</speed>
  <fix>3d</fix>
</trkpt>
<trkpt lat="40.0713749" lon="-105.229789">
  <ele>1583.0</ele>
  <time>2026-08-28T17:49:25Z</time>
  <course>0.0</course>
  <speed>0.0</speed>
  <fix>3d</fix>
</trkpt>
<trkpt lat="40.0713747" lon="-105.229789">
  <ele>1582.98</ele>
  <time>2026-08-28T17:49:25Z</time>
  <course>245.1</course>
  <speed>0.02</speed>
  <fix>3d</fix>
</trkpt>
<trkpt lat="40.0713749" lon="-105.229789">
  <ele>1583.0</ele>
  <time>2026-08-28T17:49:25Z</time>
  <course>0.0</course>
  <speed>0.0</speed>
  <fix>3d</fix>
</trkpt>
<trkpt lat="40.0713747" lon="-105.2297891">
  <ele>1582.98</ele>
  <time>2026-08-28T17:49:25Z</time>
  <course>245.1</course>
  <speed>0.02</speed>
  <fix>3d</fix>
</trkpt>
<trkpt lat="40.0713749" lon="-105.229789">
  <ele>1583.0</ele>
  <time>2026-08-28T17:49:25Z</time>
  <course>0.0</course>
  <speed>0.0</speed>
  <fix>3d</fix>
</trkpt>
<trkpt lat="40.0713747" lon="-105.229789">
  <ele>1582.98</ele>
  <time>2026-08-28T17:49:25Z</time>
  <course>245.1</course>
  <speed>0.02</speed>
  <fix>3d</fix>
</trkpt>
<trkpt lat="40.0713749" lon="-105.229789">
  <ele>1583.0</ele>
  <time>2026-08-28T17:49:25Z</time>
  <course>0.0</course>
  <speed>0.0</speed>
  <fix>3d</fix>
</trkpt>
<trkpt lat="40.0713747" lon="-105.229789">
  <ele>1582.97</ele>
  <time>2026-08-28T17:49:25Z</time>
  <course>245.1</course>
  <speed>0.02</speed>
  <fix>3d</fix>
</trkpt>
<trkpt lat="40.0713749" lon="-105.229789">
  <ele>1583.0</ele>
  <time>2026-08-28T17:49:25Z</time>
  <course>0.0</course>
  <speed>0.0</speed>
  <fix>3d</fix>
</trkpt>
<trkpt lat="40.0713748" lon="-105.229789">
  <ele>1582.97</ele>
  <time>2026-08-28T17:49:25Z</time>
  <course>245.1</course>
  <speed>0.02</speed>
  <fix>3d</fix>
</trkpt>
<trkpt lat="40.0713749" lon="-105.229789">
  <ele>1583.0</ele>
  <time>2026-08-28T17:49:25Z</time>
  <course>0.0</course>
  <speed>0.0</speed>
  <fix>3d</fix>
</trkpt>
<trkpt lat="40.0713747" lon="-105.229789">
  <ele>1582.97</ele>
  <time>2026-08-28T17:49:25Z</time>
  <course>245.1</course>
  <speed>0.02</speed>
  <fix>3d</fix>
</trkpt>
<trkpt lat="40.0713749" lon="-105.229789">
  <ele>1583.0</ele>
  <time>2026-08-28T17:49:25Z</time>
  <course>0.0</course>
  <speed>0.0</speed>
  <fix>3d</fix>
</trkpt>
<trkpt lat="40.0713748" lon="-105.229789">
  <ele>1582.97</ele>
  <time>2026-08-28T17:49:25Z</time>
  <course>245.1</course>
  <speed>0.02</speed>
  <fix>3d</fix>
</trkpt>
<trkpt lat="40.0713749" lon="-105.229789">
  <ele>1583.0</ele>
  <time>2026-08-28T17:49:25Z</time>
  <course>0.0</course>
  <speed>0.0</speed>
  <fix>3d</fix>
</trkpt>
<trkpt lat="40.0713747" lon="-105.229789">
  <ele>1582.97</ele>
  <time>2026-08-28T17:49:25Z</time>
  <course>245.1</course>
  <speed>0.02</speed>
  <fix>3d</fix>
</trkpt>
<trkpt lat="40.0713749" lon="-105.229789">
  <ele>1583.0</ele>
  <time>2026-08-28T17:49:25Z</time>
  <course>0.0</course>
  <speed>0.0</speed>
  <fix>3d</fix>
</trkpt>
<trkpt lat="40.0713748" lon="-105.229789">
  <ele>1582.97</ele>
  <time>2026-08-28T17:49:25Z</time>
  <course>245.1</course>
  <speed>0.02</speed>
  <fix>3d</fix>
</trkpt>
<trkpt lat="40.0713749" lon="-105.229789">
  <ele>1583.0</ele>
  <time>2026-08-28T17:49:25Z</time>
  <course>0.0</course>
  <speed>0.0</speed>
  <fix>3d</fix>
</trkpt>
<trkpt lat="40.0713747" lon="-105.229789">
  <ele>1582.97</ele>
  <time>2026-08-28T17:49:25Z</time>
  <course>245.1</course>
  <speed>0.02</speed>
  <fix>3d</fix>
</trkpt>
<trkpt lat="40.0713749" lon="-105.229789">
  <ele>1583.0</ele>
  <time>2026-08-28T17:49:25Z</time>
  <course>0.0</course>
  <speed>0.0</speed>
  <fix>3d</fix>
</trkpt>
<trkpt lat="40.0713748" lon="-105.229789">
  <ele>1582.97</ele>
  <time>2026-08-28T17:49:25Z</time>
  <course>245.1</course>
  <speed>0.02</speed>
  <fix>3d</fix>
</trkpt>
<trkpt lat="40.0713749" lon="-105.229789">
  <ele>1583.0</ele>
  <time>2026-08-28T17:49:25Z</time>
  <course>0.0</course>
  <speed>0.0</speed>
  <fix>3d</fix>
</trkpt>
<trkpt lat="40.0713747" lon="-105.229789">
  <ele>1582.96</ele>
  <time>2026-08-28T17:49:25Z</time>
  <course>245.1</course>
  <speed>0.02</speed>
  <fix>3d</fix>
</trkpt>
<trkpt lat="40.0713749" lon="-105.229789">
  <ele>1583.0</ele>
  <time>2026-08-28T17:49:25Z</time>
  <course>0.0</course>
  <speed>0.0</speed>
  <fix>3d</fix>
</trkpt>
<trkpt lat="40.0713748" lon="-105.229789">
  <ele>1582.96</ele>
  <time>2026-08-28T17:49:25Z</time>
  <course>245.09</course>
  <speed>0.02</speed>
  <fix>3d</fix>
</trkpt>
<trkpt lat="40.0713749" lon="-105.229789">
  <ele>1583.0</ele>
  <time>2026-08-28T17:49:25Z</time>
  <course>0.0</course>
  <speed>0.0</speed>
  <fix>3d</fix>
</trkpt>
<trkpt lat="40.0713747" lon="-105.229789">
  <ele>1582.96</ele>
  <time>2026-08-28T17:49:25Z</time>
  <course>245.09</course>
  <speed>0.02</speed>
  <fix>3d</fix>
</trkpt>
<trkpt lat="40.0713749" lon="-105.229789">
  <ele>1583.0</ele>
  <time>2026-08-28T17:49:25Z</time>
  <course>0.0</course>
  <speed>0.0</speed>
  <fix>3d</fix>
</trkpt>
<trkpt lat="40.0713748" lon="-105.229789">
  <ele>1582.96</ele>
  <time>2026-08-28T17:49:25Z</time>
  <course>245.09</course>
  <speed>0.02</speed>
  <fix>3d</fix>
</trkpt>
<trkpt lat="40.0713749" lon="-105.229789">
  <ele>1583.0</ele>
  <time>2026-08-28T17:49:25Z</time>
  <course>0.0</course>
  <speed>0.0</speed>
  <fix>3d</fix>
</trkpt>
<trkpt lat="40.0713747" lon="-105.229789">
  <ele>1582.96</ele>
  <time>2026-08-28T17:49:25Z</time>
  <course>245.09</course>
  <speed>0.02</speed>
  <fix>3d</fix>
</trkpt>
<trkpt lat="40.0713749" lon="-105.229789">
  <ele>1583.0</ele>
  <time>2026-08-28T17:49:25Z</time>
  <course>0.0</course>
  <speed>0.0</speed>
  <fix>3d</fix>
</trkpt>
<trkpt lat="40.0713747" lon="-105.229789">
  <ele>1582.95</ele>
  <time>2026-08-28T17:49:25Z</time>
  <course>245.09</course>
  <speed>0.02</speed>
  <fix>3d</fix>
</trkpt>
<trkpt lat="40.0713749" lon="-105.229789">
  <ele>1583.0</ele>
  <time>2026-08-28T17:49:25Z</time>
  <course>0.0</course>
  <speed>0.0</speed>
  <fix>3d</fix>
</trkpt>
<trkpt lat="40.0713747" lon="-105.229789">
  <ele>1582.95</ele>
  <time>2026-08-28T17:49:25Z</time>
  <course>245.09</course>
  <speed>0.02</speed>
  <fix>3d</fix>
</trkpt>
<trkpt lat="40.0713749" lon="-105.229789">
  <ele>1583.0</ele>
  <time>2026-08-28T17:49:25Z</time>
  <course>0.0</course>
  <speed>0.0</speed>
  <fix>3d</fix>
</trkpt>
<trkpt lat="40.0713747" lon="-105.229789">
  <ele>1582.95</ele>
  <time>2026-08-28T17:49:25Z</time>
  <course>245.09</course>
  <speed>0.02</speed>
  <fix>3d</fix>
</trkpt>
<trkpt lat="40.0713749" lon="-105.229789">
  <ele>1583.0</ele>
  <time>2026-08-28T17:49:25Z</time>
  <course>0.0</course>
  <speed>0.0</speed>
  <fix>3d</fix>
</trkpt>
<trkpt lat="40.0713747" lon="-105.229789">
  <ele>1582.95</ele>
  <time>2026-08-28T17:49:25Z</time>
  <course>245.09</course>
  <speed>0.02</speed>
  <fix>3d</fix>
</trkpt>
<trkpt lat="40.0713749" lon="-105.229789">
  <ele>1583.0</ele>
  <time>2026-08-28T17:49:25Z</time>
  <course>0.0</course>
  <speed>0.0</speed>
  <fix>3d</fix>
</trkpt>
<trkpt lat="40.0713747" lon="-105.229789">
  <ele>1582.96</ele>
  <time>2026-08-28T17:49:25Z</time>
  <course>245.09</course>
  <speed>0.02</speed>
  <fix>3d</fix>
</trkpt>
<trkpt lat="40.0713749" lon="-105.229789">
  <ele>1583.0</ele>
  <time>2026-08-28T17:49:25Z</time>
  <course>0.0</course>
  <speed>0.0</speed>
  <fix>3d</fix>
</trkpt>
<trkpt lat="40.0713747" lon="-105.229789">
  <ele>1582.96</ele>
  <time>2026-08-28T17:49:25Z</time>
  <course>245.09</course>
  <speed>0.02</speed>
  <fix>3d</fix>
</trkpt>
<trkpt lat="40.0713749" lon="-105.229789">
  <ele>1583.0</ele>
  <time>2026-08-28T17:49:25Z</time>
  <course>0.0</course>
  <speed>0.0</speed>
  <fix>3d</fix>
</trkpt>
<trkpt lat="40.0713747" lon="-105.229789">
  <ele>1582.96</ele>
  <time>2026-08-28T17:49:25Z</time>
  <course>245.09</course>
  <speed>0.02</speed>
  <fix>3d</fix>
</trkpt>
<trkpt lat="40.0713749" lon="-105.229789">
  <ele>1583.0</ele>
  <time>2026-08-28T17:49:25Z</time>
  <course>0.0</course>
  <speed>0.0</speed>
  <fix>3d</fix>
</trkpt>
<trkpt lat="40.0713747" lon="-105.229789">
  <ele>1582.96</ele>
  <time>2026-08-28T17:49:25Z</time>
  <course>245.08</course>
  <speed>0.02</speed>
  <fix>3d</fix>
</trkpt>
<trkpt lat="40.0713749" lon="-105.229789">
  <ele>1583.0</ele>
  <time>2026-08-28T17:49:25Z</time>
  <course>0.0</course>
  <speed>0.0</speed>
  <fix>3d</fix>
</trkpt>
<trkpt lat="40.0713748" lon="-105.229789">
  <ele>1582.96</ele>
  <time>2026-08-28T17:49:25Z</time>
  <course>245.08</course>
  <speed>0.02</speed>
  <fix>3d</fix>
</trkpt>
<trkpt lat="40.0713749" lon="-105.229789">
  <ele>1583.0</ele>
  <time>2026-08-28T17:49:25Z</time>
  <course>0.0</course>
  <speed>0.0</speed>
  <fix>3d</fix>
</trkpt>
<trkpt lat="40.0713747" lon="-105.229789">
  <ele>1582.96</ele>
  <time>2026-08-28T17:49:25Z</time>
  <course>245.08</course>
  <speed>0.02</speed>
  <fix>3d</fix>
</trkpt>
<trkpt lat="40.0713749" lon="-105.229789">
  <ele>1583.0</ele>
  <time>2026-08-28T17:49:25Z</time>
  <course>0.0</course>
  <speed>0.0</speed>
  <fix>3d</fix>
</trkpt>
<trkpt lat="40.0713748" lon="-105.229789">
  <ele>1582.96</ele>
  <time>2026-08-28T17:49:25Z</time>
  <course>245.08</course>
  <speed>0.02</speed>
  <fix>3d</fix>
</trkpt>
<trkpt lat="40.0713749" lon="-105.229789">
  <ele>1583.0</ele>
  <time>2026-08-28T17:49:25Z</time>
  <course>0.0</course>
  <speed>0.0</speed>
  <fix>3d</fix>
</trkpt>
<trkpt lat="40.0713747" lon="-105.229789">
  <ele>1582.96</ele>
  <time>2026-08-28T17:49:25Z</time>
  <course>245.08</course>
  <speed>0.02</speed>
  <fix>3d</fix>
</trkpt>
<trkpt lat="40.0713749" lon="-105.229789">
  <ele>1583.0</ele>
  <time>2026-08-28T17:49:25Z</time>
  <course>0.0</course>
  <speed>0.0</speed>
  <fix>3d</fix>
</trkpt>
<trkpt lat="40.0713748" lon="-105.229789">
  <ele>1582.96</ele>
  <time>2026-08-28T17:49:25Z</time>
  <course>245.08</course>
  <speed>0.02</speed>
  <fix>3d</fix>
</trkpt>
<trkpt lat="40.0713749" lon="-105.229789">
  <ele>1583.0</ele>
  <time>2026-08-28T17:49:25Z</time>
  <course>0.0</course>
  <speed>0.0</speed>
  <fix>3d</fix>
</trkpt>
<trkpt lat="40.0713747" lon="-105.229789">
  <ele>1582.96</ele>
  <time>2026-08-28T17:49:25Z</time>
  <course>245.08</course>
  <speed>0.02</speed>
  <fix>3d</fix>
</trkpt>
<trkpt lat="40.0713749" lon="-105.229789">
  <ele>1583.0</ele>
  <time>2026-08-28T17:49:25Z</time>
  <course>0.0</course>
  <speed>0.0</speed>
  <fix>3d</fix>
</trkpt>
<trkpt lat="40.0713748" lon="-105.229789">
  <ele>1582.95</ele>
  <time>2026-08-28T17:49:25Z</time>
  <course>245.08</course>
  <speed>0.02</speed>
  <fix>3d</fix>
</trkpt>
<trkpt lat="40.0713749" lon="-105.229789">
  <ele>1583.0</ele>
  <time>2026-08-28T17:49:25Z</time>
  <course>0.0</course>
  <speed>0.0</speed>
  <fix>3d</fix>
</trkpt>
<trkpt lat="40.0713747" lon="-105.229789">
  <ele>1582.95</ele>
  <time>2026-08-28T17:49:25Z</time>
  <course>245.08</course>
  <speed>0.02</speed>
  <fix>3d</fix>
</trkpt>
<trkpt lat="40.0713749" lon="-105.229789">
  <ele>1583.0</ele>
  <time>2026-08-28T17:49:25Z</time>
  <course>0.0</course>
  <speed>0.0</speed>
  <fix>3d</fix>
</trkpt>
<trkpt lat="40.0713748" lon="-105.229789">
  <ele>1582.95</ele>
  <time>2026-08-28T17:49:25Z</time>
  <course>245.08</course>
  <speed>0.02</speed>
  <fix>3d</fix>
</trkpt>
<trkpt lat="40.0713749" lon="-105.229789">
  <ele>1583.0</ele>
  <time>2026-08-28T17:49:25Z</time>
  <course>0.0</course>
  <speed>0.0</speed>
  <fix>3d</fix>
</trkpt>
<trkpt lat="40.0713747" lon="-105.229789">
  <ele>1582.94</ele>
  <time>2026-08-28T17:49:25Z</time>
  <course>245.08</course>
  <speed>0.02</speed>
  <fix>3d</fix>
</trkpt>
<trkpt lat="40.0713749" lon="-105.229789">
  <ele>1583.0</ele>
  <time>2026-08-28T17:49:25Z</time>
  <course>0.0</course>
  <speed>0.0</speed>
  <fix>3d</fix>
</trkpt>
<trkpt lat="40.0713748" lon="-105.229789">
  <ele>1582.94</ele>
  <time>2026-08-28T17:49:25Z</time>
  <course>245.08</course>
  <speed>0.02</speed>
  <fix>3d</fix>
</trkpt>
<trkpt lat="40.0713749" lon="-105.229789">
  <ele>1583.0</ele>
  <time>2026-08-28T17:49:25Z</time>
  <course>0.0</course>
  <speed>0.0</speed>
  <fix>3d</fix>
</trkpt>
<trkpt lat="40.0713747" lon="-105.229789">
  <ele>1582.93</ele>
  <time>2026-08-28T17:49:25Z</time>
  <course>245.08</course>
  <speed>0.02</speed>
  <fix>3d</fix>
</trkpt>
<trkpt lat="40.0713749" lon="-105.229789">
  <ele>1583.0</ele>
  <time>2026-08-28T17:49:25Z</time>
  <course>0.0</course>
  <speed>0.0</speed>
  <fix>3d</fix>
</trkpt>
<trkpt lat="40.0713747" lon="-105.229789">
  <ele>1582.93</ele>
  <time>2026-08-28T17:49:25Z</time>
  <course>245.07</course>
  <speed>0.02</speed>
  <fix>3d</fix>
</trkpt>
<trkpt lat="40.0713749" lon="-105.229789">
  <ele>1583.0</ele>
  <time>2026-08-28T17:49:25Z</time>
  <course>0.0</course>
  <speed>0.0</speed>
  <fix>3d</fix>
</trkpt>
<trkpt lat="40.0713747" lon="-105.229789">
  <ele>1582.93</ele>
  <time>2026-08-28T17:49:25Z</time>
  <course>245.07</course>
  <speed>0.02</speed>
  <fix>3d</fix>
</trkpt>
<trkpt lat="40.0713749" lon="-105.229789">
  <ele>1583.0</ele>
  <time>2026-08-28T17:49:25Z</time>
  <course>0.0</course>
  <speed>0.0</speed>
  <fix>3d</fix>
</trkpt>
<trkpt lat="40.0713747" lon="-105.229789">
  <ele>1582.93</ele>
  <time>2026-08-28T17:49:25Z</time>
  <course>245.07</course>
  <speed>0.02</speed>
  <fix>3d</fix>
</trkpt>
<trkpt lat="40.0713749" lon="-105.229789">
  <ele>1583.0</ele>
  <time>2026-08-28T17:49:25Z</time>
  <course>0.0</course>
  <speed>0.0</speed>
  <fix>3d</fix>
</trkpt>
<trkpt lat="40.0713747" lon="-105.229789">
  <ele>1582.93</ele>
  <time>2026-08-28T17:49:25Z</time>
  <course>245.07</course>
  <speed>0.02</speed>
  <fix>3d</fix>
</trkpt>
<trkpt lat="40.0713749" lon="-105.229789">
  <ele>1583.0</ele>
  <time>2026-08-28T17:49:25Z</time>
  <course>0.0</course>
  <speed>0.0</speed>
  <fix>3d</fix>
</trkpt>
<trkpt lat="40.0713747" lon="-105.229789">
  <ele>1582.93</ele>
  <time>2026-08-28T17:49:25Z</time>
  <course>245.07</course>
  <speed>0.02</speed>
  <fix>3d</fix>
</trkpt>
<trkpt lat="40.0713749" lon="-105.229789">
  <ele>1583.0</ele>
  <time>2026-08-28T17:49:25Z</time>
  <course>0.0</course>
  <speed>0.0</speed>
  <fix>3d</fix>
</trkpt>
<trkpt lat="40.0713747" lon="-105.229789">
  <ele>1582.93</ele>
  <time>2026-08-28T17:49:25Z</time>
  <course>245.07</course>
  <speed>0.02</speed>
  <fix>3d</fix>
</trkpt>
<trkpt lat="40.0713749" lon="-105.229789">
  <ele>1583.0</ele>
  <time>2026-08-28T17:49:25Z</time>
  <course>0.0</course>
  <speed>0.0</speed>
  <fix>3d</fix>
</trkpt>
<trkpt lat="40.0713747" lon="-105.229789">
  <ele>1582.93</ele>
  <time>2026-08-28T17:49:25Z</time>
  <course>245.07</course>
  <speed>0.02</speed>
  <fix>3d</fix>
</trkpt>
<trkpt lat="40.0713749" lon="-105.229789">
  <ele>1583.0</ele>
  <time>2026-08-28T17:49:25Z</time>
  <course>0.0</course>
  <speed>0.0</speed>
  <fix>3d</fix>
</trkpt>
<trkpt lat="40.0713747" lon="-105.229789">
  <ele>1582.93</ele>
  <time>2026-08-28T17:49:25Z</time>
  <course>245.07</course>
  <speed>0.02</speed>
  <fix>3d</fix>
</trkpt>
<trkpt lat="40.0713749" lon="-105.229789">
  <ele>1583.0</ele>
  <time>2026-08-28T17:49:25Z</time>
  <course>0.0</course>
  <speed>0.0</speed>
  <fix>3d</fix>
</trkpt>
<trkpt lat="40.0713747" lon="-105.229789">
  <ele>1582.93</ele>
  <time>2026-08-28T17:49:25Z</time>
  <course>245.07</course>
  <speed>0.02</speed>
  <fix>3d</fix>
</trkpt>
<trkpt lat="40.0713749" lon="-105.229789">
  <ele>1583.0</ele>
  <time>2026-08-28T17:49:25Z</time>
  <course>0.0</course>
  <speed>0.0</speed>
  <fix>3d</fix>
</trkpt>
<trkpt lat="40.0713747" lon="-105.229789">
  <ele>1582.93</ele>
  <time>2026-08-28T17:49:25Z</time>
  <course>245.07</course>
  <speed>0.02</speed>
  <fix>3d</fix>
</trkpt>
<trkpt lat="40.0713749" lon="-105.229789">
  <ele>1583.0</ele>
  <time>2026-08-28T17:49:25Z</time>
  <course>0.0</course>
  <speed>0.0</speed>
  <fix>3d</fix>
</trkpt>
<trkpt lat="40.0713747" lon="-105.229789">
  <ele>1582.93</ele>
  <time>2026-08-28T17:49:25Z</time>
  <course>245.07</course>
  <speed>0.02</speed>
  <fix>3d</fix>
</trkpt>
<trkpt lat="40.0713749" lon="-105.229789">
  <ele>1583.0</ele>
  <time>2026-08-28T17:49:25Z</time>
  <course>0.0</course>
  <speed>0.0</speed>
  <fix>3d</fix>
</trkpt>
<trkpt lat="40.0713747" lon="-105.229789">
  <ele>1582.93</ele>
  <time>2026-08-28T17:49:25Z</time>
  <course>245.07</course>
  <speed>0.02</speed>
  <fix>3d</fix>
</trkpt>
<trkpt lat="40.0713749" lon="-105.229789">
  <ele>1583.0</ele>
  <time>2026-08-28T17:49:25Z</time>
  <course>0.0</course>
  <speed>0.0</speed>
  <fix>3d</fix>
</trkpt>
<trkpt lat="40.0713748" lon="-105.229789">
  <ele>1582.94</ele>
  <time>2026-08-28T17:49:25Z</time>
  <course>245.07</course>
  <speed>0.02</speed>
  <fix>3d</fix>
</trkpt>
<trkpt lat="40.0713749" lon="-105.229789">
  <ele>1583.0</ele>
  <time>2026-08-28T17:49:25Z</time>
  <course>0.0</course>
  <speed>0.0</speed>
  <fix>3d</fix>
</trkpt>
<trkpt lat="40.0713747" lon="-105.229789">
  <ele>1582.94</ele>
  <time>2026-08-28T17:49:25Z</time>
  <course>245.06</course>
  <speed>0.02</speed>
  <fix>3d</fix>
</trkpt>
<trkpt lat="40.0713749" lon="-105.229789">
  <ele>1583.0</ele>
  <time>2026-08-28T17:49:25Z</time>
  <course>0.0</course>
  <speed>0.0</speed>
  <fix>3d</fix>
</trkpt>
<trkpt lat="40.0713747" lon="-105.229789">
  <ele>1582.95</ele>
  <time>2026-08-28T17:49:25Z</time>
  <course>245.06</course>
  <speed>0.02</speed>
  <fix>3d</fix>
</trkpt>
<trkpt lat="40.0713749" lon="-105.229789">
  <ele>1583.0</ele>
  <time>2026-08-28T17:49:25Z</time>
  <course>0.0</course>
  <speed>0.0</speed>
  <fix>3d</fix>
</trkpt>
<trkpt lat="40.0713747" lon="-105.229789">
  <ele>1582.96</ele>
  <time>2026-08-28T17:49:25Z</time>
  <course>245.06</course>
  <speed>0.02</speed>
  <fix>3d</fix>
</trkpt>
<trkpt lat="40.0713749" lon="-105.229789">
  <ele>1583.0</ele>
  <time>2026-08-28T17:49:25Z</time>
  <course>0.0</course>
  <speed>0.0</speed>
  <fix>3d</fix>
</trkpt>
<trkpt lat="40.0713747" lon="-105.229789">
  <ele>1582.97</ele>
  <time>2026-08-28T17:49:25Z</time>
  <course>245.06</course>
  <speed>0.02</speed>
  <fix>3d</fix>
</trkpt>
<trkpt lat="40.0713749" lon="-105.229789">
  <ele>1583.0</ele>
  <time>2026-08-28T17:49:25Z</time>
  <course>0.0</course>
  <speed>0.0</speed>
  <fix>3d</fix>
</trkpt>
<trkpt lat="40.0713747" lon="-105.229789">
  <ele>1582.98</ele>
  <time>2026-08-28T17:49:25Z</time>
  <course>245.06</course>
  <speed>0.02</speed>
  <fix>3d</fix>
</trkpt>
<trkpt lat="40.0713749" lon="-105.229789">
  <ele>1583.0</ele>
  <time>2026-08-28T17:49:25Z</time>
  <course>0.0</course>
  <speed>0.0</speed>
  <fix>3d</fix>
</trkpt>
<trkpt lat="40.0713747" lon="-105.229789">
  <ele>1582.99</ele>
  <time>2026-08-28T17:49:25Z</time>
  <course>245.06</course>
  <speed>0.02</speed>
  <fix>3d</fix>
</trkpt>
<trkpt lat="40.0713749" lon="-105.229789">
  <ele>1583.0</ele>
  <time>2026-08-28T17:49:25Z</time>
  <course>0.0</course>
  <speed>0.0</speed>
  <fix>3d</fix>
</trkpt>
<trkpt lat="40.0713747" lon="-105.229789">
  <ele>1583.0</ele>
  <time>2026-08-28T17:49:25Z</time>
  <course>245.06</course>
  <speed>0.02</speed>
  <fix>3d</fix>
</trkpt>
<trkpt lat="40.0713749" lon="-105.229789">
  <ele>1583.0</ele>
  <time>2026-08-28T17:49:25Z</time>
  <course>0.0</course>
  <speed>0.0</speed>
  <fix>3d</fix>
</trkpt>
<trkpt lat="40.0713747" lon="-105.229789">
  <ele>1583.01</ele>
  <time>2026-08-28T17:49:25Z</time>
  <course>245.06</course>
  <speed>0.02</speed>
  <fix>3d</fix>
</trkpt>
<trkpt lat="40.0713749" lon="-105.229789">
  <ele>1583.0</ele>
  <time>2026-08-28T17:49:25Z</time>
  <course>0.0</course>
  <speed>0.0</speed>
  <fix>3d</fix>
</trkpt>
<trkpt lat="40.0713747" lon="-105.2297891">
  <ele>1583.02</ele>
  <time>2026-08-28T17:49:25Z</time>
  <course>245.06</course>
  <speed>0.02</speed>
  <fix>3d</fix>
</trkpt>
<trkpt lat="40.0713749" lon="-105.229789">
  <ele>1583.0</ele>
  <time>2026-08-28T17:49:25Z</time>
  <course>0.0</course>
  <speed>0.0</speed>
  <fix>3d</fix>
</trkpt>
<trkpt lat="40.0713747" lon="-105.229789">
  <ele>1583.02</ele>
  <time>2026-08-28T17:49:25Z</time>
  <course>245.06</course>
  <speed>0.02</speed>
  <fix>3d</fix>
</trkpt>
<trkpt lat="40.0713749" lon="-105.229789">
  <ele>1583.0</ele>
  <time>2026-08-28T17:49:25Z</time>
  <course>0.0</course>
  <speed>0.0</speed>
  <fix>3d</fix>
</trkpt>
<trkpt lat="40.0713747" lon="-105.2297891">
  <ele>1583.01</ele>
  <time>2026-08-28T17:49:25Z</time>
  <course>245.06</course>
  <speed>0.02</speed>
  <fix>3d</fix>
</trkpt>
<trkpt lat="40.0713749" lon="-105.229789">
  <ele>1583.0</ele>
  <time>2026-08-28T17:49:25Z</time>
  <course>0.0</course>
  <speed>0.0</speed>
  <fix>3d</fix>
</trkpt>
<trkpt lat="40.0713747" lon="-105.229789">
  <ele>1583.01</ele>
  <time>2026-08-28T17:49:25Z</time>
  <course>245.06</course>
  <speed>0.02</speed>
  <fix>3d</fix>
</trkpt>
<trkpt lat="40.0713749" lon="-105.229789">
  <ele>1583.0</ele>
  <time>2026-08-28T17:49:25Z</time>
  <course>0.0</course>
  <speed>0.0</speed>
  <fix>3d</fix>
</trkpt>
<trkpt lat="40.0713747" lon="-105.2297891">
  <ele>1583.0</ele>
  <time>2026-08-28T17:49:25Z</time>
  <course>245.06</course>
  <speed>0.02</speed>
  <fix>3d</fix>
</trkpt>
<trkpt lat="40.0713749" lon="-105.229789">
  <ele>1583.0</ele>
  <time>2026-08-28T17:49:25Z</time>
  <course>0.0</course>
  <speed>0.0</speed>
  <fix>3d</fix>
</trkpt>
<trkpt lat="40.0713747" lon="-105.2297891">
  <ele>1583.0</ele>
  <time>2026-08-28T17:49:25Z</time>
  <course>245.06</course>
  <speed>0.02</speed>
  <fix>3d</fix>
</trkpt>
<trkpt lat="40.0713749" lon="-105.229789">
  <ele>1583.0</ele>
  <time>2026-08-28T17:49:25Z</time>
  <course>0.0</course>
  <speed>0.0</speed>
  <fix>3d</fix>
</trkpt>
<trkpt lat="40.0713747" lon="-105.2297891">
  <ele>1582.99</ele>
  <time>2026-08-28T17:49:25Z</time>
  <course>245.05</course>
  <speed>0.02</speed>
  <fix>3d</fix>
</trkpt>
<trkpt lat="40.0713749" lon="-105.229789">
  <ele>1583.0</ele>
  <time>2026-08-28T17:49:25Z</time>
  <course>0.0</course>
  <speed>0.0</speed>
  <fix>3d</fix>
</trkpt>
<trkpt lat="40.0713747" lon="-105.2297891">
  <ele>1582.99</ele>
  <time>2026-08-28T17:49:25Z</time>
  <course>245.05</course>
  <speed>0.02</speed>
  <fix>3d</fix>
</trkpt>
<trkpt lat="40.0713749" lon="-105.229789">
  <ele>1583.0</ele>
  <time>2026-08-28T17:49:25Z</time>
  <course>0.0</course>
  <speed>0.0</speed>
  <fix>3d</fix>
</trkpt>
<trkpt lat="40.0713747" lon="-105.2297891">
  <ele>1582.98</ele>
  <time>2026-08-28T17:49:25Z</time>
  <course>245.05</course>
  <speed>0.02</speed>
  <fix>3d</fix>
</trkpt>
<trkpt lat="40.0713749" lon="-105.229789">
  <ele>1583.0</ele>
  <time>2026-08-28T17:49:25Z</time>
  <course>0.0</course>
  <speed>0.0</speed>
  <fix>3d</fix>
</trkpt>
<trkpt lat="40.0713747" lon="-105.229789">
  <ele>1582.97</ele>
  <time>2026-08-28T17:49:25Z</time>
  <course>245.05</course>
  <speed>0.02</speed>
  <fix>3d</fix>
</trkpt>
<trkpt lat="40.0713749" lon="-105.229789">
  <ele>1583.0</ele>
  <time>2026-08-28T17:49:25Z</time>
  <course>0.0</course>
  <speed>0.0</speed>
  <fix>3d</fix>
</trkpt>
<trkpt lat="40.0713747" lon="-105.2297891">
  <ele>1582.97</ele>
  <time>2026-08-28T17:49:25Z</time>
  <course>245.05</course>
  <speed>0.02</speed>
  <fix>3d</fix>
</trkpt>
<trkpt lat="40.0713749" lon="-105.229789">
  <ele>1583.0</ele>
  <time>2026-08-28T17:49:25Z</time>
  <course>0.0</course>
  <speed>0.0</speed>
  <fix>3d</fix>
</trkpt>
<trkpt lat="40.0713747" lon="-105.229789">
  <ele>1582.96</ele>
  <time>2026-08-28T17:49:25Z</time>
  <course>245.05</course>
  <speed>0.02</speed>
  <fix>3d</fix>
</trkpt>
<trkpt lat="40.0713749" lon="-105.229789">
  <ele>1583.0</ele>
  <time>2026-08-28T17:49:25Z</time>
  <course>0.0</course>
  <speed>0.0</speed>
  <fix>3d</fix>
</trkpt>
<trkpt lat="40.0713747" lon="-105.2297891">
  <ele>1582.96</ele>
  <time>2026-08-28T17:49:25Z</time>
  <course>245.05</course>
  <speed>0.02</speed>
  <fix>3d</fix>
</trkpt>
<trkpt lat="40.0713749" lon="-105.229789">
  <ele>1583.0</ele>
  <time>2026-08-28T17:49:25Z</time>
  <course>0.0</course>
  <speed>0.0</speed>
  <fix>3d</fix>
</trkpt>
<trkpt lat="40.0713747" lon="-105.229789">
  <ele>1582.96</ele>
  <time>2026-08-28T17:49:25Z</time>
  <course>245.05</course>
  <speed>0.02</speed>
  <fix>3d</fix>
</trkpt>
<trkpt lat="40.0713749" lon="-105.229789">
  <ele>1583.0</ele>
  <time>2026-08-28T17:49:25Z</time>
  <course>0.0</course>
  <speed>0.0</speed>
  <fix>3d</fix>
</trkpt>
<trkpt lat="40.0713747" lon="-105.2297891">
  <ele>1582.96</ele>
  <time>2026-08-28T17:49:25Z</time>
  <course>245.05</course>
  <speed>0.02</speed>
  <fix>3d</fix>
</trkpt>
<trkpt lat="40.0713749" lon="-105.229789">
  <ele>1583.0</ele>
  <time>2026-08-28T17:49:25Z</time>
  <course>0.0</course>
  <speed>0.0</speed>
  <fix>3d</fix>
</trkpt>
<trkpt lat="40.0713747" lon="-105.229789">
  <ele>1582.96</ele>
  <time>2026-08-28T17:49:25Z</time>
  <course>245.05</course>
  <speed>0.02</speed>
  <fix>3d</fix>
</trkpt>
<trkpt lat="40.0713749" lon="-105.229789">
  <ele>1583.0</ele>
  <time>2026-08-28T17:49:25Z</time>
  <course>0.0</course>
  <speed>0.0</speed>
  <fix>3d</fix>
</trkpt>
<trkpt lat="40.0713747" lon="-105.2297891">
  <ele>1582.97</ele>
  <time>2026-08-28T17:49:25Z</time>
  <course>245.05</course>
  <speed>0.02</speed>
  <fix>3d</fix>
</trkpt>
<trkpt lat="40.0713749" lon="-105.229789">
  <ele>1583.0</ele>
  <time>2026-08-28T17:49:25Z</time>
  <course>0.0</course>
  <speed>0.0</speed>
  <fix>3d</fix>
</trkpt>
<trkpt lat="40.0713747" lon="-105.229789">
  <ele>1582.97</ele>
  <time>2026-08-28T17:49:25Z</time>
  <course>245.05</course>
  <speed>0.02</speed>
  <fix>3d</fix>
</trkpt>
<trkpt lat="40.0713749" lon="-105.229789">
  <ele>1583.0</ele>
  <time>2026-08-28T17:49:25Z</time>
  <course>0.0</course>
  <speed>0.0</speed>
  <fix>3d</fix>
</trkpt>
<trkpt lat="40.0713747" lon="-105.2297891">
  <ele>1582.97</ele>
  <time>2026-08-28T17:49:25Z</time>
  <course>245.05</course>
  <speed>0.02</speed>
  <fix>3d</fix>
</trkpt>
<trkpt lat="40.0713749" lon="-105.229789">
  <ele>1583.0</ele>
  <time>2026-08-28T17:49:25Z</time>
  <course>0.0</course>
  <speed>0.0</speed>
  <fix>3d</fix>
</trkpt>
<trkpt lat="40.0713747" lon="-105.229789">
  <ele>1582.98</ele>
  <time>2026-08-28T17:49:25Z</time>
  <course>245.05</course>
  <speed>0.02</speed>
  <fix>3d</fix>
</trkpt>
<trkpt lat="40.0713749" lon="-105.229789">
  <ele>1583.0</ele>
  <time>2026-08-28T17:49:25Z</time>
  <course>0.0</course>
  <speed>0.0</speed>
  <fix>3d</fix>
</trkpt>
<trkpt lat="40.0713747" lon="-105.2297891">
  <ele>1582.98</ele>
  <time>2026-08-28T17:49:25Z</time>
  <course>245.05</course>
  <speed>0.02</speed>
  <fix>3d</fix>
</trkpt>
<trkpt lat="40.0713749" lon="-105.229789">
  <ele>1583.0</ele>
  <time>2026-08-28T17:49:25Z</time>
  <course>0.0</course>
  <speed>0.0</speed>
  <fix>3d</fix>
</trkpt>
<trkpt lat="40.0713747" lon="-105.2297891">
  <ele>1582.99</ele>
  <time>2026-08-28T17:49:25Z</time>
  <course>245.04</course>
  <speed>0.02</speed>
  <fix>3d</fix>
</trkpt>
<trkpt lat="40.0713749" lon="-105.229789">
  <ele>1583.0</ele>
  <time>2026-08-28T17:49:25Z</time>
  <course>0.0</course>
  <speed>0.0</speed>
  <fix>3d</fix>
</trkpt>
<trkpt lat="40.0713747" lon="-105.2297891">
  <ele>1582.99</ele>
  <time>2026-08-28T17:49:25Z</time>
  <course>245.04</course>
  <speed>0.02</speed>
  <fix>3d</fix>
</trkpt>
<trkpt lat="40.0713749" lon="-105.229789">
  <ele>1583.0</ele>
  <time>2026-08-28T17:49:25Z</time>
  <course>0.0</course>
  <speed>0.0</speed>
  <fix>3d</fix>
</trkpt>
<trkpt lat="40.0713747" lon="-105.2297891">
  <ele>1582.99</ele>
  <time>2026-08-28T17:49:25Z</time>
  <course>245.04</course>
  <speed>0.02</speed>
  <fix>3d</fix>
</trkpt>
<trkpt lat="40.0713749" lon="-105.229789">
  <ele>1583.0</ele>
  <time>2026-08-28T17:49:25Z</time>
  <course>0.0</course>
  <speed>0.0</speed>
  <fix>3d</fix>
</trkpt>
<trkpt lat="40.0713747" lon="-105.2297891">
  <ele>1582.98</ele>
  <time>2026-08-28T17:49:25Z</time>
  <course>245.04</course>
  <speed>0.022360679774997897</speed>
  <fix>3d</fix>
</trkpt>
<trkpt lat="40.0713749" lon="-105.229789">
  <ele>1583.0</ele>
  <time>2026-08-28T17:49:25Z</time>
  <course>0.0</course>
  <speed>0.0</speed>
  <fix>3d</fix>
</trkpt>
<trkpt lat="40.0713747" lon="-105.2297891">
  <ele>1582.98</ele>
  <time>2026-08-28T17:49:25Z</time>
  <course>245.04</course>
  <speed>0.02</speed>
  <fix>3d</fix>
</trkpt>
<trkpt lat="40.0713749" lon="-105.229789">
  <ele>1583.0</ele>
  <time>2026-08-28T17:49:25Z</time>
  <course>0.0</course>
  <speed>0.0</speed>
  <fix>3d</fix>
</trkpt>
<trkpt lat="40.0713747" lon="-105.2297891">
  <ele>1582.98</ele>
  <time>2026-08-28T17:49:25Z</time>
  <course>245.04</course>
  <speed>0.02</speed>
  <fix>3d</fix>
</trkpt>
<trkpt lat="40.0713749" lon="-105.229789">
  <ele>1583.0</ele>
  <time>2026-08-28T17:49:25Z</time>
  <course>0.0</course>
  <speed>0.0</speed>
  <fix>3d</fix>
</trkpt>
<trkpt lat="40.0713747" lon="-105.2297891">
  <ele>1582.98</ele>
  <time>2026-08-28T17:49:25Z</time>
  <course>245.04</course>
  <speed>0.02</speed>
  <fix>3d</fix>
</trkpt>
<trkpt lat="40.0713749" lon="-105.229789">
  <ele>1583.0</ele>
  <time>2026-08-28T17:49:25Z</time>
  <course>0.0</course>
  <speed>0.0</speed>
  <fix>3d</fix>
</trkpt>
<trkpt lat="40.0713747" lon="-105.2297891">
  <ele>1582.98</ele>
  <time>2026-08-28T17:49:25Z</time>
  <course>245.04</course>
  <speed>0.02</speed>
  <fix>3d</fix>
</trkpt>
<trkpt lat="40.0713749" lon="-105.229789">
  <ele>1583.0</ele>
  <time>2026-08-28T17:49:25Z</time>
  <course>0.0</course>
  <speed>0.0</speed>
  <fix>3d</fix>
</trkpt>
<trkpt lat="40.0713747" lon="-105.2297891">
  <ele>1582.99</ele>
  <time>2026-08-28T17:49:25Z</time>
  <course>245.04</course>
  <speed>0.02</speed>
  <fix>3d</fix>
</trkpt>
<trkpt lat="40.0713749" lon="-105.229789">
  <ele>1583.0</ele>
  <time>2026-08-28T17:49:25Z</time>
  <course>0.0</course>
  <speed>0.0</speed>
  <fix>3d</fix>
</trkpt>
<trkpt lat="40.0713747" lon="-105.2297891">
  <ele>1582.99</ele>
  <time>2026-08-28T17:49:25Z</time>
  <course>245.04</course>
  <speed>0.02</speed>
  <fix>3d</fix>
</trkpt>
<trkpt lat="40.0713749" lon="-105.229789">
  <ele>1583.0</ele>
  <time>2026-08-28T17:49:25Z</time>
  <course>0.0</course>
  <speed>0.0</speed>
  <fix>3d</fix>
</trkpt>
<trkpt lat="40.0713747" lon="-105.2297891">
  <ele>1582.98</ele>
  <time>2026-08-28T17:49:25Z</time>
  <course>245.04</course>
  <speed>0.02</speed>
  <fix>3d</fix>
</trkpt>
<trkpt lat="40.0713749" lon="-105.229789">
  <ele>1583.0</ele>
  <time>2026-08-28T17:49:25Z</time>
  <course>0.0</course>
  <speed>0.0</speed>
  <fix>3d</fix>
</trkpt>
<trkpt lat="40.0713747" lon="-105.2297891">
  <ele>1582.98</ele>
  <time>2026-08-28T17:49:25Z</time>
  <course>245.04</course>
  <speed>0.02</speed>
  <fix>3d</fix>
</trkpt>
<trkpt lat="40.0713749" lon="-105.229789">
  <ele>1583.0</ele>
  <time>2026-08-28T17:49:25Z</time>
  <course>0.0</course>
  <speed>0.0</speed>
  <fix>3d</fix>
</trkpt>
<trkpt lat="40.0713747" lon="-105.2297891">
  <ele>1582.97</ele>
  <time>2026-08-28T17:49:25Z</time>
  <course>245.04</course>
  <speed>0.02</speed>
  <fix>3d</fix>
</trkpt>
<trkpt lat="40.0713749" lon="-105.229789">
  <ele>1583.0</ele>
  <time>2026-08-28T17:49:25Z</time>
  <course>0.0</course>
  <speed>0.0</speed>
  <fix>3d</fix>
</trkpt>
<trkpt lat="40.0713747" lon="-105.2297891">
  <ele>1582.97</ele>
  <time>2026-08-28T17:49:25Z</time>
  <course>245.04</course>
  <speed>0.02</speed>
  <fix>3d</fix>
</trkpt>
<trkpt lat="40.0713749" lon="-105.229789">
  <ele>1583.0</ele>
  <time>2026-08-28T17:49:25Z</time>
  <course>0.0</course>
  <speed>0.0</speed>
  <fix>3d</fix>
</trkpt>
<trkpt lat="40.0713747" lon="-105.229789">
  <ele>1582.96</ele>
  <time>2026-08-28T17:49:25Z</time>
  <course>245.03</course>
  <speed>0.02</speed>
  <fix>3d</fix>
</trkpt>
<trkpt lat="40.0713749" lon="-105.229789">
  <ele>1583.0</ele>
  <time>2026-08-28T17:49:25Z</time>
  <course>0.0</course>
  <speed>0.0</speed>
  <fix>3d</fix>
</trkpt>
<trkpt lat="40.0713747" lon="-105.2297891">
  <ele>1582.96</ele>
  <time>2026-08-28T17:49:25Z</time>
  <course>245.03</course>
  <speed>0.02</speed>
  <fix>3d</fix>
</trkpt>
<trkpt lat="40.0713749" lon="-105.229789">
  <ele>1583.0</ele>
  <time>2026-08-28T17:49:25Z</time>
  <course>0.0</course>
  <speed>0.0</speed>
  <fix>3d</fix>
</trkpt>
<trkpt lat="40.0713747" lon="-105.229789">
  <ele>1582.95</ele>
  <time>2026-08-28T17:49:25Z</time>
  <course>245.03</course>
  <speed>0.02</speed>
  <fix>3d</fix>
</trkpt>
<trkpt lat="40.0713749" lon="-105.229789">
  <ele>1583.0</ele>
  <time>2026-08-28T17:49:25Z</time>
  <course>0.0</course>
  <speed>0.0</speed>
  <fix>3d</fix>
</trkpt>
<trkpt lat="40.0713747" lon="-105.2297891">
  <ele>1582.95</ele>
  <time>2026-08-28T17:49:25Z</time>
  <course>245.03</course>
  <speed>0.02</speed>
  <fix>3d</fix>
</trkpt>
<trkpt lat="40.0713749" lon="-105.229789">
  <ele>1583.0</ele>
  <time>2026-08-28T17:49:25Z</time>
  <course>0.0</course>
  <speed>0.0</speed>
  <fix>3d</fix>
</trkpt>
<trkpt lat="40.0713747" lon="-105.229789">
  <ele>1582.94</ele>
  <time>2026-08-28T17:49:25Z</time>
  <course>245.03</course>
  <speed>0.02</speed>
  <fix>3d</fix>
</trkpt>
<trkpt lat="40.0713749" lon="-105.229789">
  <ele>1583.0</ele>
  <time>2026-08-28T17:49:25Z</time>
  <course>0.0</course>
  <speed>0.0</speed>
  <fix>3d</fix>
</trkpt>
<trkpt lat="40.0713747" lon="-105.2297891">
  <ele>1582.94</ele>
  <time>2026-08-28T17:49:25Z</time>
  <course>245.03</course>
  <speed>0.02</speed>
  <fix>3d</fix>
</trkpt>
<trkpt lat="40.0713749" lon="-105.229789">
  <ele>1583.0</ele>
  <time>2026-08-28T17:49:25Z</time>
  <course>0.0</course>
  <speed>0.0</speed>
  <fix>3d</fix>
</trkpt>
<trkpt lat="40.0713747" lon="-105.229789">
  <ele>1582.94</ele>
  <time>2026-08-28T17:49:25Z</time>
  <course>245.03</course>
  <speed>0.02</speed>
  <fix>3d</fix>
</trkpt>
<trkpt lat="40.0713749" lon="-105.229789">
  <ele>1583.0</ele>
  <time>2026-08-28T17:49:25Z</time>
  <course>0.0</course>
  <speed>0.0</speed>
  <fix>3d</fix>
</trkpt>
<trkpt lat="40.0713747" lon="-105.2297891">
  <ele>1582.94</ele>
  <time>2026-08-28T17:49:25Z</time>
  <course>245.03</course>
  <speed>0.02</speed>
  <fix>3d</fix>
</trkpt>
<trkpt lat="40.0713749" lon="-105.229789">
  <ele>1583.0</ele>
  <time>2026-08-28T17:49:25Z</time>
  <course>0.0</course>
  <speed>0.0</speed>
  <fix>3d</fix>
</trkpt>
<trkpt lat="40.0713747" lon="-105.229789">
  <ele>1582.94</ele>
  <time>2026-08-28T17:49:25Z</time>
  <course>245.03</course>
  <speed>0.02</speed>
  <fix>3d</fix>
</trkpt>
<trkpt lat="40.0713749" lon="-105.229789">
  <ele>1583.0</ele>
  <time>2026-08-28T17:49:25Z</time>
  <course>0.0</course>
  <speed>0.0</speed>
  <fix>3d</fix>
</trkpt>
<trkpt lat="40.0713747" lon="-105.2297891">
  <ele>1582.94</ele>
  <time>2026-08-28T17:49:25Z</time>
  <course>245.03</course>
  <speed>0.02</speed>
  <fix>3d</fix>
</trkpt>
<trkpt lat="40.0713749" lon="-105.229789">
  <ele>1583.0</ele>
  <time>2026-08-28T17:49:25Z</time>
  <course>0.0</course>
  <speed>0.0</speed>
  <fix>3d</fix>
</trkpt>
<trkpt lat="40.0713747" lon="-105.229789">
  <ele>1582.95</ele>
  <time>2026-08-28T17:49:25Z</time>
  <course>245.03</course>
  <speed>0.02</speed>
  <fix>3d</fix>
</trkpt>
<trkpt lat="40.0713749" lon="-105.229789">
  <ele>1583.0</ele>
  <time>2026-08-28T17:49:25Z</time>
  <course>0.0</course>
  <speed>0.0</speed>
  <fix>3d</fix>
</trkpt>
<trkpt lat="40.0713747" lon="-105.2297891">
  <ele>1582.95</ele>
  <time>2026-08-28T17:49:25Z</time>
  <course>245.03</course>
  <speed>0.02</speed>
  <fix>3d</fix>
</trkpt>
<trkpt lat="40.0713749" lon="-105.229789">
  <ele>1583.0</ele>
  <time>2026-08-28T17:49:25Z</time>
  <course>0.0</course>
  <speed>0.0</speed>
  <fix>3d</fix>
</trkpt>
<trkpt lat="40.0713747" lon="-105.229789">
  <ele>1582.96</ele>
  <time>2026-08-28T17:49:25Z</time>
  <course>245.03</course>
  <speed>0.02</speed>
  <fix>3d</fix>
</trkpt>
<trkpt lat="40.0713749" lon="-105.229789">
  <ele>1583.0</ele>
  <time>2026-08-28T17:49:25Z</time>
  <course>0.0</course>
  <speed>0.0</speed>
  <fix>3d</fix>
</trkpt>
<trkpt lat="40.0713747" lon="-105.229789">
  <ele>1582.97</ele>
  <time>2026-08-28T17:49:25Z</time>
  <course>245.03</course>
  <speed>0.02</speed>
  <fix>3d</fix>
</trkpt>
<trkpt lat="40.0713749" lon="-105.229789">
  <ele>1583.0</ele>
  <time>2026-08-28T17:49:25Z</time>
  <course>0.0</course>
  <speed>0.0</speed>
  <fix>3d</fix>
</trkpt>
<trkpt lat="40.0713747" lon="-105.229789">
  <ele>1582.97</ele>
  <time>2026-08-28T17:49:25Z</time>
  <course>245.03</course>
  <speed>0.02</speed>
  <fix>3d</fix>
</trkpt>
<trkpt lat="40.0713749" lon="-105.229789">
  <ele>1583.0</ele>
  <time>2026-08-28T17:49:25Z</time>
  <course>0.0</course>
  <speed>0.0</speed>
  <fix>3d</fix>
</trkpt>
<trkpt lat="40.0713747" lon="-105.229789">
  <ele>1582.97</ele>
  <time>2026-08-28T17:49:25Z</time>
  <course>245.03</course>
  <speed>0.02</speed>
  <fix>3d</fix>
</trkpt>
<trkpt lat="40.0713749" lon="-105.229789">
  <ele>1583.0</ele>
  <time>2026-08-28T17:49:25Z</time>
  <course>0.0</course>
  <speed>0.0</speed>
  <fix>3d</fix>
</trkpt>
<trkpt lat="40.0713747" lon="-105.229789">
  <ele>1582.98</ele>
  <time>2026-08-28T17:49:25Z</time>
  <course>245.03</course>
  <speed>0.02</speed>
  <fix>3d</fix>
</trkpt>
<trkpt lat="40.0713749" lon="-105.229789">
  <ele>1583.0</ele>
  <time>2026-08-28T17:49:25Z</time>
  <course>0.0</course>
  <speed>0.0</speed>
  <fix>3d</fix>
</trkpt>
<trkpt lat="40.0713747" lon="-105.229789">
  <ele>1582.98</ele>
  <time>2026-08-28T17:49:25Z</time>
  <course>245.03</course>
  <speed>0.02</speed>
  <fix>3d</fix>
</trkpt>
<trkpt lat="40.0713749" lon="-105.229789">
  <ele>1583.0</ele>
  <time>2026-08-28T17:49:25Z</time>
  <course>0.0</course>
  <speed>0.0</speed>
  <fix>3d</fix>
</trkpt>
<trkpt lat="40.0713748" lon="-105.229789">
  <ele>1582.99</ele>
  <time>2026-08-28T17:49:25Z</time>
  <course>245.02</course>
  <speed>0.02</speed>
  <fix>3d</fix>
</trkpt>
<trkpt lat="40.0713749" lon="-105.229789">
  <ele>1583.0</ele>
  <time>2026-08-28T17:49:25Z</time>
  <course>0.0</course>
  <speed>0.0</speed>
  <fix>3d</fix>
</trkpt>
<trkpt lat="40.0713747" lon="-105.229789">
  <ele>1582.99</ele>
  <time>2026-08-28T17:49:25Z</time>
  <course>245.02</course>
  <speed>0.02</speed>
  <fix>3d</fix>
</trkpt>
<trkpt lat="40.0713749" lon="-105.229789">
  <ele>1583.0</ele>
  <time>2026-08-28T17:49:25Z</time>
  <course>0.0</course>
  <speed>0.0</speed>
  <fix>3d</fix>
</trkpt>
<trkpt lat="40.0713748" lon="-105.229789">
  <ele>1583.0</ele>
  <time>2026-08-28T17:49:25Z</time>
  <course>245.02</course>
  <speed>0.02</speed>
  <fix>3d</fix>
</trkpt>
<trkpt lat="40.0713749" lon="-105.229789">
  <ele>1583.0</ele>
  <time>2026-08-28T17:49:25Z</time>
  <course>0.0</course>
  <speed>0.0</speed>
  <fix>3d</fix>
</trkpt>
<trkpt lat="40.0713747" lon="-105.229789">
  <ele>1583.0</ele>
  <time>2026-08-28T17:49:25Z</time>
  <course>245.02</course>
  <speed>0.02</speed>
  <fix>3d</fix>
</trkpt>
<trkpt lat="40.0713749" lon="-105.229789">
  <ele>1583.0</ele>
  <time>2026-08-28T17:49:25Z</time>
  <course>0.0</course>
  <speed>0.0</speed>
  <fix>3d</fix>
</trkpt>
<trkpt lat="40.0713748" lon="-105.229789">
  <ele>1583.01</ele>
  <time>2026-08-28T17:49:25Z</time>
  <course>245.02</course>
  <speed>0.02</speed>
  <fix>3d</fix>
</trkpt>
<trkpt lat="40.0713749" lon="-105.229789">
  <ele>1583.0</ele>
  <time>2026-08-28T17:49:25Z</time>
  <course>0.0</course>
  <speed>0.0</speed>
  <fix>3d</fix>
</trkpt>
<trkpt lat="40.0713747" lon="-105.229789">
  <ele>1583.01</ele>
  <time>2026-08-28T17:49:25Z</time>
  <course>245.02</course>
  <speed>0.02</speed>
  <fix>3d</fix>
</trkpt>
<trkpt lat="40.0713749" lon="-105.229789">
  <ele>1583.0</ele>
  <time>2026-08-28T17:49:25Z</time>
  <course>0.0</course>
  <speed>0.0</speed>
  <fix>3d</fix>
</trkpt>
<trkpt lat="40.0713747" lon="-105.229789">
  <ele>1583.02</ele>
  <time>2026-08-28T17:49:25Z</time>
  <course>245.02</course>
  <speed>0.02</speed>
  <fix>3d</fix>
</trkpt>
<trkpt lat="40.0713749" lon="-105.229789">
  <ele>1583.0</ele>
  <time>2026-08-28T17:49:25Z</time>
  <course>0.0</course>
  <speed>0.0</speed>
  <fix>3d</fix>
</trkpt>
<trkpt lat="40.0713747" lon="-105.229789">
  <ele>1583.02</ele>
  <time>2026-08-28T17:49:25Z</time>
  <course>245.02</course>
  <speed>0.02</speed>
  <fix>3d</fix>
</trkpt>
<trkpt lat="40.0713749" lon="-105.229789">
  <ele>1583.0</ele>
  <time>2026-08-28T17:49:25Z</time>
  <course>0.0</course>
  <speed>0.0</speed>
  <fix>3d</fix>
</trkpt>
<trkpt lat="40.0713747" lon="-105.229789">
  <ele>1583.02</ele>
  <time>2026-08-28T17:49:25Z</time>
  <course>245.02</course>
  <speed>0.02</speed>
  <fix>3d</fix>
</trkpt>
<trkpt lat="40.0713749" lon="-105.229789">
  <ele>1583.0</ele>
  <time>2026-08-28T17:49:25Z</time>
  <course>0.0</course>
  <speed>0.0</speed>
  <fix>3d</fix>
</trkpt>
<trkpt lat="40.0713747" lon="-105.229789">
  <ele>1583.02</ele>
  <time>2026-08-28T17:49:25Z</time>
  <course>245.02</course>
  <speed>0.02</speed>
  <fix>3d</fix>
</trkpt>
<trkpt lat="40.0713749" lon="-105.229789">
  <ele>1583.0</ele>
  <time>2026-08-28T17:49:25Z</time>
  <course>0.0</course>
  <speed>0.0</speed>
  <fix>3d</fix>
</trkpt>
<trkpt lat="40.0713747" lon="-105.229789">
  <ele>1583.01</ele>
  <time>2026-08-28T17:49:25Z</time>
  <course>245.02</course>
  <speed>0.02</speed>
  <fix>3d</fix>
</trkpt>
<trkpt lat="40.0713749" lon="-105.229789">
  <ele>1583.0</ele>
  <time>2026-08-28T17:49:25Z</time>
  <course>0.0</course>
  <speed>0.0</speed>
  <fix>3d</fix>
</trkpt>
<trkpt lat="40.0713747" lon="-105.229789">
  <ele>1583.01</ele>
  <time>2026-08-28T17:49:25Z</time>
  <course>245.02</course>
  <speed>0.02</speed>
  <fix>3d</fix>
</trkpt>
<trkpt lat="40.0713749" lon="-105.229789">
  <ele>1583.0</ele>
  <time>2026-08-28T17:49:25Z</time>
  <course>0.0</course>
  <speed>0.0</speed>
  <fix>3d</fix>
</trkpt>
<trkpt lat="40.0713747" lon="-105.229789">
  <ele>1583.0</ele>
  <time>2026-08-28T17:49:25Z</time>
  <course>245.02</course>
  <speed>0.02</speed>
  <fix>3d</fix>
</trkpt>
<trkpt lat="40.0713749" lon="-105.229789">
  <ele>1583.0</ele>
  <time>2026-08-28T17:49:25Z</time>
  <course>0.0</course>
  <speed>0.0</speed>
  <fix>3d</fix>
</trkpt>
<trkpt lat="40.0713747" lon="-105.229789">
  <ele>1582.99</ele>
  <time>2026-08-28T17:49:25Z</time>
  <course>245.02</course>
  <speed>0.02</speed>
  <fix>3d</fix>
</trkpt>
<trkpt lat="40.0713749" lon="-105.229789">
  <ele>1583.0</ele>
  <time>2026-08-28T17:49:25Z</time>
  <course>0.0</course>
  <speed>0.0</speed>
  <fix>3d</fix>
</trkpt>
<trkpt lat="40.0713747" lon="-105.229789">
  <ele>1582.99</ele>
  <time>2026-08-28T17:49:25Z</time>
  <course>245.02</course>
  <speed>0.02</speed>
  <fix>3d</fix>
</trkpt>
<trkpt lat="40.0713749" lon="-105.229789">
  <ele>1583.0</ele>
  <time>2026-08-28T17:49:25Z</time>
  <course>0.0</course>
  <speed>0.0</speed>
  <fix>3d</fix>
</trkpt>
<trkpt lat="40.0713747" lon="-105.229789">
  <ele>1582.98</ele>
  <time>2026-08-28T17:49:25Z</time>
  <course>245.02</course>
  <speed>0.02</speed>
  <fix>3d</fix>
</trkpt>
<trkpt lat="40.0713749" lon="-105.229789">
  <ele>1583.0</ele>
  <time>2026-08-28T17:49:25Z</time>
  <course>0.0</course>
  <speed>0.0</speed>
  <fix>3d</fix>
</trkpt>
<trkpt lat="40.0713747" lon="-105.229789">
  <ele>1582.98</ele>
  <time>2026-08-28T17:49:25Z</time>
  <course>245.02</course>
  <speed>0.02</speed>
  <fix>3d</fix>
</trkpt>
<trkpt lat="40.0713749" lon="-105.229789">
  <ele>1583.0</ele>
  <time>2026-08-28T17:49:25Z</time>
  <course>0.0</course>
  <speed>0.0</speed>
  <fix>3d</fix>
</trkpt>
<trkpt lat="40.0713747" lon="-105.229789">
  <ele>1582.97</ele>
  <time>2026-08-28T17:49:25Z</time>
  <course>245.02</course>
  <speed>0.02</speed>
  <fix>3d</fix>
</trkpt>
<trkpt lat="40.0713749" lon="-105.229789">
  <ele>1583.0</ele>
  <time>2026-08-28T17:49:25Z</time>
  <course>0.0</course>
  <speed>0.0</speed>
  <fix>3d</fix>
</trkpt>
<trkpt lat="40.0713747" lon="-105.229789">
  <ele>1582.97</ele>
  <time>2026-08-28T17:49:25Z</time>
  <course>245.01</course>
  <speed>0.02</speed>
  <fix>3d</fix>
</trkpt>
<trkpt lat="40.0713749" lon="-105.229789">
  <ele>1583.0</ele>
  <time>2026-08-28T17:49:25Z</time>
  <course>0.0</course>
  <speed>0.0</speed>
  <fix>3d</fix>
</trkpt>
<trkpt lat="40.0713747" lon="-105.229789">
  <ele>1582.96</ele>
  <time>2026-08-28T17:49:25Z</time>
  <course>245.01</course>
  <speed>0.02</speed>
  <fix>3d</fix>
</trkpt>
<trkpt lat="40.0713749" lon="-105.229789">
  <ele>1583.0</ele>
  <time>2026-08-28T17:49:25Z</time>
  <course>0.0</course>
  <speed>0.0</speed>
  <fix>3d</fix>
</trkpt>
<trkpt lat="40.0713747" lon="-105.229789">
  <ele>1582.96</ele>
  <time>2026-08-28T17:49:25Z</time>
  <course>245.01</course>
  <speed>0.02</speed>
  <fix>3d</fix>
</trkpt>
<trkpt lat="40.0713749" lon="-105.229789">
  <ele>1583.0</ele>
  <time>2026-08-28T17:49:25Z</time>
  <course>0.0</course>
  <speed>0.0</speed>
  <fix>3d</fix>
</trkpt>
<trkpt lat="40.0713747" lon="-105.229789">
  <ele>1582.95</ele>
  <time>2026-08-28T17:49:25Z</time>
  <course>245.01</course>
  <speed>0.02</speed>
  <fix>3d</fix>
</trkpt>
<trkpt lat="40.0713749" lon="-105.229789">
  <ele>1583.0</ele>
  <time>2026-08-28T17:49:25Z</time>
  <course>0.0</course>
  <speed>0.0</speed>
  <fix>3d</fix>
</trkpt>
<trkpt lat="40.0713747" lon="-105.229789">
  <ele>1582.94</ele>
  <time>2026-08-28T17:49:25Z</time>
  <course>245.01</course>
  <speed>0.02</speed>
  <fix>3d</fix>
</trkpt>
<trkpt lat="40.0713749" lon="-105.229789">
  <ele>1583.0</ele>
  <time>2026-08-28T17:49:25Z</time>
  <course>0.0</course>
  <speed>0.0</speed>
  <fix>3d</fix>
</trkpt>
<trkpt lat="40.0713747" lon="-105.229789">
  <ele>1582.93</ele>
  <time>2026-08-28T17:49:25Z</time>
  <course>245.01</course>
  <speed>0.02</speed>
  <fix>3d</fix>
</trkpt>
<trkpt lat="40.0713749" lon="-105.229789">
  <ele>1583.0</ele>
  <time>2026-08-28T17:49:25Z</time>
  <course>0.0</course>
  <speed>0.0</speed>
  <fix>3d</fix>
</trkpt>
<trkpt lat="40.0713747" lon="-105.229789">
  <ele>1582.93</ele>
  <time>2026-08-28T17:49:25Z</time>
  <course>245.01</course>
  <speed>0.02</speed>
  <fix>3d</fix>
</trkpt>
<trkpt lat="40.0713749" lon="-105.229789">
  <ele>1583.0</ele>
  <time>2026-08-28T17:49:25Z</time>
  <course>0.0</course>
  <speed>0.0</speed>
  <fix>3d</fix>
</trkpt>
<trkpt lat="40.0713747" lon="-105.229789">
  <ele>1582.92</ele>
  <time>2026-08-28T17:49:25Z</time>
  <course>245.01</course>
  <speed>0.02</speed>
  <fix>3d</fix>
</trkpt>
<trkpt lat="40.0713749" lon="-105.229789">
  <ele>1583.0</ele>
  <time>2026-08-28T17:49:25Z</time>
  <course>0.0</course>
  <speed>0.0</speed>
  <fix>3d</fix>
</trkpt>
<trkpt lat="40.0713747" lon="-105.229789">
  <ele>1582.92</ele>
  <time>2026-08-28T17:49:25Z</time>
  <course>245.01</course>
  <speed>0.02</speed>
  <fix>3d</fix>
</trkpt>
<trkpt lat="40.0713749" lon="-105.229789">
  <ele>1583.0</ele>
  <time>2026-08-28T17:49:25Z</time>
  <course>0.0</course>
  <speed>0.0</speed>
  <fix>3d</fix>
</trkpt>
<trkpt lat="40.0713747" lon="-105.229789">
  <ele>1582.92</ele>
  <time>2026-08-28T17:49:25Z</time>
  <course>245.01</course>
  <speed>0.02</speed>
  <fix>3d</fix>
</trkpt>
<trkpt lat="40.0713749" lon="-105.229789">
  <ele>1583.0</ele>
  <time>2026-08-28T17:49:25Z</time>
  <course>0.0</course>
  <speed>0.0</speed>
  <fix>3d</fix>
</trkpt>
<trkpt lat="40.0713747" lon="-105.229789">
  <ele>1582.92</ele>
  <time>2026-08-28T17:49:25Z</time>
  <course>245.01</course>
  <speed>0.02</speed>
  <fix>3d</fix>
</trkpt>
<trkpt lat="40.0713749" lon="-105.229789">
  <ele>1583.0</ele>
  <time>2026-08-28T17:49:25Z</time>
  <course>0.0</course>
  <speed>0.0</speed>
  <fix>3d</fix>
</trkpt>
<trkpt lat="40.0713747" lon="-105.229789">
  <ele>1582.92</ele>
  <time>2026-08-28T17:49:25Z</time>
  <course>245.01</course>
  <speed>0.02</speed>
  <fix>3d</fix>
</trkpt>
<trkpt lat="40.0713749" lon="-105.229789">
  <ele>1583.0</ele>
  <time>2026-08-28T17:49:25Z</time>
  <course>0.0</course>
  <speed>0.0</speed>
  <fix>3d</fix>
</trkpt>
<trkpt lat="40.0713747" lon="-105.229789">
  <ele>1582.93</ele>
  <time>2026-08-28T17:49:25Z</time>
  <course>245.01</course>
  <speed>0.02</speed>
  <fix>3d</fix>
</trkpt>
<trkpt lat="40.0713749" lon="-105.229789">
  <ele>1583.0</ele>
  <time>2026-08-28T17:49:25Z</time>
  <course>0.0</course>
  <speed>0.0</speed>
  <fix>3d</fix>
</trkpt>
<trkpt lat="40.0713747" lon="-105.229789">
  <ele>1582.93</ele>
  <time>2026-08-28T17:49:25Z</time>
  <course>245.01</course>
  <speed>0.02</speed>
  <fix>3d</fix>
</trkpt>
<trkpt lat="40.0713749" lon="-105.229789">
  <ele>1583.0</ele>
  <time>2026-08-28T17:49:25Z</time>
  <course>0.0</course>
  <speed>0.0</speed>
  <fix>3d</fix>
</trkpt>
<trkpt lat="40.0713747" lon="-105.229789">
  <ele>1582.94</ele>
  <time>2026-08-28T17:49:25Z</time>
  <course>245.01</course>
  <speed>0.02</speed>
  <fix>3d</fix>
</trkpt>
<trkpt lat="40.0713749" lon="-105.229789">
  <ele>1583.0</ele>
  <time>2026-08-28T17:49:25Z</time>
  <course>0.0</course>
  <speed>0.0</speed>
  <fix>3d</fix>
</trkpt>
<trkpt lat="40.0713747" lon="-105.229789">
  <ele>1582.94</ele>
  <time>2026-08-28T17:49:25Z</time>
  <course>245.01</course>
  <speed>0.02</speed>
  <fix>3d</fix>
</trkpt>
<trkpt lat="40.0713749" lon="-105.229789">
  <ele>1583.0</ele>
  <time>2026-08-28T17:49:25Z</time>
  <course>0.0</course>
  <speed>0.0</speed>
  <fix>3d</fix>
</trkpt>
<trkpt lat="40.0713747" lon="-105.229789">
  <ele>1582.95</ele>
  <time>2026-08-28T17:49:25Z</time>
  <course>245.01</course>
  <speed>0.02</speed>
  <fix>3d</fix>
</trkpt>
<trkpt lat="40.0713749" lon="-105.229789">
  <ele>1583.0</ele>
  <time>2026-08-28T17:49:25Z</time>
  <course>0.0</course>
  <speed>0.0</speed>
  <fix>3d</fix>
</trkpt>
<trkpt lat="40.0713747" lon="-105.229789">
  <ele>1582.95</ele>
  <time>2026-08-28T17:49:25Z</time>
  <course>245.01</course>
  <speed>0.02</speed>
  <fix>3d</fix>
</trkpt>
<trkpt lat="40.0713749" lon="-105.229789">
  <ele>1583.0</ele>
  <time>2026-08-28T17:49:25Z</time>
  <course>0.0</course>
  <speed>0.0</speed>
  <fix>3d</fix>
</trkpt>
<trkpt lat="40.0713747" lon="-105.229789">
  <ele>1582.96</ele>
  <time>2026-08-28T17:49:25Z</time>
  <course>245.01</course>
  <speed>0.02</speed>
  <fix>3d</fix>
</trkpt>
<trkpt lat="40.0713749" lon="-105.229789">
  <ele>1583.0</ele>
  <time>2026-08-28T17:49:25Z</time>
  <course>0.0</course>
  <speed>0.0</speed>
  <fix>3d</fix>
</trkpt>
<trkpt lat="40.0713747" lon="-105.229789">
  <ele>1582.96</ele>
  <time>2026-08-28T17:49:25Z</time>
  <course>245.0</course>
  <speed>0.02</speed>
  <fix>3d</fix>
</trkpt>
<trkpt lat="40.0713749" lon="-105.229789">
  <ele>1583.0</ele>
  <time>2026-08-28T17:49:25Z</time>
  <course>0.0</course>
  <speed>0.0</speed>
  <fix>3d</fix>
</trkpt>
<trkpt lat="40.0713747" lon="-105.229789">
  <ele>1582.97</ele>
  <time>2026-08-28T17:49:25Z</time>
  <course>245.0</course>
  <speed>0.02</speed>
  <fix>3d</fix>
</trkpt>
<trkpt lat="40.0713749" lon="-105.229789">
  <ele>1583.0</ele>
  <time>2026-08-28T17:49:25Z</time>
  <course>0.0</course>
  <speed>0.0</speed>
  <fix>3d</fix>
</trkpt>
<trkpt lat="40.0713747" lon="-105.229789">
  <ele>1582.98</ele>
  <time>2026-08-28T17:49:25Z</time>
  <course>245.0</course>
  <speed>0.02</speed>
  <fix>3d</fix>
</trkpt>
<trkpt lat="40.0713749" lon="-105.229789">
  <ele>1583.0</ele>
  <time>2026-08-28T17:49:25Z</time>
  <course>0.0</course>
  <speed>0.0</speed>
  <fix>3d</fix>
</trkpt>
<trkpt lat="40.0713747" lon="-105.229789">
  <ele>1582.99</ele>
  <time>2026-08-28T17:49:25Z</time>
  <course>245.0</course>
  <speed>0.02</speed>
  <fix>3d</fix>
</trkpt>
<trkpt lat="40.0713749" lon="-105.229789">
  <ele>1583.0</ele>
  <time>2026-08-28T17:49:25Z</time>
  <course>0.0</course>
  <speed>0.0</speed>
  <fix>3d</fix>
</trkpt>
<trkpt lat="40.0713747" lon="-105.229789">
  <ele>1582.99</ele>
  <time>2026-08-28T17:49:25Z</time>
  <course>245.0</course>
  <speed>0.02</speed>
  <fix>3d</fix>
</trkpt>
<trkpt lat="40.0713749" lon="-105.229789">
  <ele>1583.0</ele>
  <time>2026-08-28T17:49:25Z</time>
  <course>0.0</course>
  <speed>0.0</speed>
  <fix>3d</fix>
</trkpt>
<trkpt lat="40.0713747" lon="-105.229789">
  <ele>1583.0</ele>
  <time>2026-08-28T17:49:25Z</time>
  <course>245.0</course>
  <speed>0.02</speed>
  <fix>3d</fix>
</trkpt>
<trkpt lat="40.0713749" lon="-105.229789">
  <ele>1583.0</ele>
  <time>2026-08-28T17:49:25Z</time>
  <course>0.0</course>
  <speed>0.0</speed>
  <fix>3d</fix>
</trkpt>
<trkpt lat="40.0713747" lon="-105.229789">
  <ele>1583.0</ele>
  <time>2026-08-28T17:49:25Z</time>
  <course>245.0</course>
  <speed>0.02</speed>
  <fix>3d</fix>
</trkpt>
<trkpt lat="40.0713749" lon="-105.229789">
  <ele>1583.0</ele>
  <time>2026-08-28T17:49:25Z</time>
  <course>0.0</course>
  <speed>0.0</speed>
  <fix>3d</fix>
</trkpt>
<trkpt lat="40.0713747" lon="-105.229789">
  <ele>1583.01</ele>
  <time>2026-08-28T17:49:25Z</time>
  <course>245.0</course>
  <speed>0.02</speed>
  <fix>3d</fix>
</trkpt>
<trkpt lat="40.0713749" lon="-105.229789">
  <ele>1583.0</ele>
  <time>2026-08-28T17:49:25Z</time>
  <course>0.0</course>
  <speed>0.0</speed>
  <fix>3d</fix>
</trkpt>
<trkpt lat="40.0713747" lon="-105.229789">
  <ele>1583.01</ele>
  <time>2026-08-28T17:49:25Z</time>
  <course>245.0</course>
  <speed>0.02</speed>
  <fix>3d</fix>
</trkpt>
<trkpt lat="40.0713749" lon="-105.229789">
  <ele>1583.0</ele>
  <time>2026-08-28T17:49:25Z</time>
  <course>0.0</course>
  <speed>0.0</speed>
  <fix>3d</fix>
</trkpt>
<trkpt lat="40.0713747" lon="-105.229789">
  <ele>1583.02</ele>
  <time>2026-08-28T17:49:25Z</time>
  <course>245.0</course>
  <speed>0.02</speed>
  <fix>3d</fix>
</trkpt>
<trkpt lat="40.0713749" lon="-105.229789">
  <ele>1583.0</ele>
  <time>2026-08-28T17:49:25Z</time>
  <course>0.0</course>
  <speed>0.0</speed>
  <fix>3d</fix>
</trkpt>
<trkpt lat="40.0713747" lon="-105.229789">
  <ele>1583.02</ele>
  <time>2026-08-28T17:49:25Z</time>
  <course>245.0</course>
  <speed>0.02</speed>
  <fix>3d</fix>
</trkpt>
<trkpt lat="40.0713749" lon="-105.229789">
  <ele>1583.0</ele>
  <time>2026-08-28T17:49:25Z</time>
  <course>0.0</course>
  <speed>0.0</speed>
  <fix>3d</fix>
</trkpt>
<trkpt lat="40.0713747" lon="-105.229789">
  <ele>1583.02</ele>
  <time>2026-08-28T17:49:25Z</time>
  <course>245.0</course>
  <speed>0.02</speed>
  <fix>3d</fix>
</trkpt>
<trkpt lat="40.0713749" lon="-105.229789">
  <ele>1583.0</ele>
  <time>2026-08-28T17:49:25Z</time>
  <course>0.0</course>
  <speed>0.0</speed>
  <fix>3d</fix>
</trkpt>
<trkpt lat="40.0713747" lon="-105.229789">
  <ele>1583.03</ele>
  <time>2026-08-28T17:49:25Z</time>
  <course>245.0</course>
  <speed>0.02</speed>
  <fix>3d</fix>
</trkpt>
<trkpt lat="40.0713749" lon="-105.229789">
  <ele>1583.0</ele>
  <time>2026-08-28T17:49:25Z</time>
  <course>0.0</course>
  <speed>0.0</speed>
  <fix>3d</fix>
</trkpt>
<trkpt lat="40.0713747" lon="-105.229789">
  <ele>1583.03</ele>
  <time>2026-08-28T17:49:25Z</time>
  <course>245.0</course>
  <speed>0.02</speed>
  <fix>3d</fix>
</trkpt>
<trkpt lat="40.0713749" lon="-105.229789">
  <ele>1583.0</ele>
  <time>2026-08-28T17:49:25Z</time>
  <course>0.0</course>
  <speed>0.0</speed>
  <fix>3d</fix>
</trkpt>
<trkpt lat="40.0713747" lon="-105.229789">
  <ele>1583.04</ele>
  <time>2026-08-28T17:49:25Z</time>
  <course>245.0</course>
  <speed>0.02</speed>
  <fix>3d</fix>
</trkpt>
<trkpt lat="40.0713749" lon="-105.229789">
  <ele>1583.0</ele>
  <time>2026-08-28T17:49:25Z</time>
  <course>0.0</course>
  <speed>0.0</speed>
  <fix>3d</fix>
</trkpt>
<trkpt lat="40.0713747" lon="-105.229789">
  <ele>1583.04</ele>
  <time>2026-08-28T17:49:25Z</time>
  <course>245.0</course>
  <speed>0.02</speed>
  <fix>3d</fix>
</trkpt>
<trkpt lat="40.0713749" lon="-105.229789">
  <ele>1583.0</ele>
  <time>2026-08-28T17:49:25Z</time>
  <course>0.0</course>
  <speed>0.0</speed>
  <fix>3d</fix>
</trkpt>
<trkpt lat="40.0713747" lon="-105.229789">
  <ele>1583.05</ele>
  <time>2026-08-28T17:49:25Z</time>
  <course>245.0</course>
  <speed>0.02</speed>
  <fix>3d</fix>
</trkpt>
<trkpt lat="40.0713749" lon="-105.229789">
  <ele>1583.0</ele>
  <time>2026-08-28T17:49:25Z</time>
  <course>0.0</course>
  <speed>0.0</speed>
  <fix>3d</fix>
</trkpt>
<trkpt lat="40.0713747" lon="-105.229789">
  <ele>1583.06</ele>
  <time>2026-08-28T17:49:25Z</time>
  <course>245.0</course>
  <speed>0.02</speed>
  <fix>3d</fix>
</trkpt>
<trkpt lat="40.0713749" lon="-105.229789">
  <ele>1583.0</ele>
  <time>2026-08-28T17:49:25Z</time>
  <course>0.0</course>
  <speed>0.0</speed>
  <fix>3d</fix>
</trkpt>
<trkpt lat="40.0713747" lon="-105.229789">
  <ele>1583.06</ele>
  <time>2026-08-28T17:49:25Z</time>
  <course>245.0</course>
  <speed>0.02</speed>
  <fix>3d</fix>
</trkpt>
<trkpt lat="40.0713749" lon="-105.229789">
  <ele>1583.0</ele>
  <time>2026-08-28T17:49:25Z</time>
  <course>0.0</course>
  <speed>0.0</speed>
  <fix>3d</fix>
</trkpt>
<trkpt lat="40.0713747" lon="-105.229789">
  <ele>1583.07</ele>
  <time>2026-08-28T17:49:25Z</time>
  <course>245.0</course>
  <speed>0.02</speed>
  <fix>3d</fix>
</trkpt>
<trkpt lat="40.0713749" lon="-105.229789">
  <ele>1583.0</ele>
  <time>2026-08-28T17:49:25Z</time>
  <course>0.0</course>
  <speed>0.0</speed>
  <fix>3d</fix>
</trkpt>
<trkpt lat="40.0713747" lon="-105.229789">
  <ele>1583.07</ele>
  <time>2026-08-28T17:49:25Z</time>
  <course>245.0</course>
  <speed>0.02</speed>
  <fix>3d</fix>
</trkpt>
<trkpt lat="40.0713749" lon="-105.229789">
  <ele>1583.0</ele>
  <time>2026-08-28T17:49:25Z</time>
  <course>0.0</course>
  <speed>0.0</speed>
  <fix>3d</fix>
</trkpt>
<trkpt lat="40.0713747" lon="-105.229789">
  <ele>1583.07</ele>
  <time>2026-08-28T17:49:25Z</time>
  <course>245.0</course>
  <speed>0.02</speed>
  <fix>3d</fix>
</trkpt>
<trkpt lat="40.0713749" lon="-105.229789">
  <ele>1583.0</ele>
  <time>2026-08-28T17:49:25Z</time>
  <course>0.0</course>
  <speed>0.0</speed>
  <fix>3d</fix>
</trkpt>
<trkpt lat="40.0713747" lon="-105.229789">
  <ele>1583.07</ele>
  <time>2026-08-28T17:49:25Z</time>
  <course>244.99</course>
  <speed>0.02</speed>
  <fix>3d</fix>
</trkpt>
<trkpt lat="40.0713749" lon="-105.229789">
  <ele>1583.0</ele>
  <time>2026-08-28T17:49:25Z</time>
  <course>0.0</course>
  <speed>0.0</speed>
  <fix>3d</fix>
</trkpt>
<trkpt lat="40.0713747" lon="-105.229789">
  <ele>1583.06</ele>
  <time>2026-08-28T17:49:25Z</time>
  <course>244.99</course>
  <speed>0.02</speed>
  <fix>3d</fix>
</trkpt>
<trkpt lat="40.0713749" lon="-105.229789">
  <ele>1583.0</ele>
  <time>2026-08-28T17:49:25Z</time>
  <course>0.0</course>
  <speed>0.0</speed>
  <fix>3d</fix>
</trkpt>
<trkpt lat="40.0713747" lon="-105.229789">
  <ele>1583.06</ele>
  <time>2026-08-28T17:49:25Z</time>
  <course>244.99</course>
  <speed>0.02</speed>
  <fix>3d</fix>
</trkpt>
<trkpt lat="40.0713749" lon="-105.229789">
  <ele>1583.0</ele>
  <time>2026-08-28T17:49:25Z</time>
  <course>0.0</course>
  <speed>0.0</speed>
  <fix>3d</fix>
</trkpt>
<trkpt lat="40.0713747" lon="-105.229789">
  <ele>1583.05</ele>
  <time>2026-08-28T17:49:25Z</time>
  <course>244.99</course>
  <speed>0.02</speed>
  <fix>3d</fix>
</trkpt>
<trkpt lat="40.0713749" lon="-105.229789">
  <ele>1583.0</ele>
  <time>2026-08-28T17:49:25Z</time>
  <course>0.0</course>
  <speed>0.0</speed>
  <fix>3d</fix>
</trkpt>
<trkpt lat="40.0713747" lon="-105.229789">
  <ele>1583.04</ele>
  <time>2026-08-28T17:49:25Z</time>
  <course>244.99</course>
  <speed>0.02</speed>
  <fix>3d</fix>
</trkpt>
<trkpt lat="40.0713749" lon="-105.229789">
  <ele>1583.0</ele>
  <time>2026-08-28T17:49:25Z</time>
  <course>0.0</course>
  <speed>0.0</speed>
  <fix>3d</fix>
</trkpt>
<trkpt lat="40.0713747" lon="-105.229789">
  <ele>1583.03</ele>
  <time>2026-08-28T17:49:25Z</time>
  <course>244.99</course>
  <speed>0.02</speed>
  <fix>3d</fix>
</trkpt>
<trkpt lat="40.0713749" lon="-105.229789">
  <ele>1583.0</ele>
  <time>2026-08-28T17:49:25Z</time>
  <course>0.0</course>
  <speed>0.0</speed>
  <fix>3d</fix>
</trkpt>
<trkpt lat="40.0713747" lon="-105.229789">
  <ele>1583.02</ele>
  <time>2026-08-28T17:49:25Z</time>
  <course>244.99</course>
  <speed>0.02</speed>
  <fix>3d</fix>
</trkpt>
<trkpt lat="40.0713749" lon="-105.229789">
  <ele>1583.0</ele>
  <time>2026-08-28T17:49:25Z</time>
  <course>0.0</course>
  <speed>0.0</speed>
  <fix>3d</fix>
</trkpt>
<trkpt lat="40.0713747" lon="-105.229789">
  <ele>1583.01</ele>
  <time>2026-08-28T17:49:25Z</time>
  <course>244.99</course>
  <speed>0.02</speed>
  <fix>3d</fix>
</trkpt>
<trkpt lat="40.0713749" lon="-105.229789">
  <ele>1583.0</ele>
  <time>2026-08-28T17:49:25Z</time>
  <course>0.0</course>
  <speed>0.0</speed>
  <fix>3d</fix>
</trkpt>
<trkpt lat="40.0713747" lon="-105.229789">
  <ele>1583.01</ele>
  <time>2026-08-28T17:49:25Z</time>
  <course>244.99</course>
  <speed>0.02</speed>
  <fix>3d</fix>
</trkpt>
<trkpt lat="40.0713749" lon="-105.229789">
  <ele>1583.0</ele>
  <time>2026-08-28T17:49:25Z</time>
  <course>0.0</course>
  <speed>0.0</speed>
  <fix>3d</fix>
</trkpt>
<trkpt lat="40.0713747" lon="-105.229789">
  <ele>1583.01</ele>
  <time>2026-08-28T17:49:25Z</time>
  <course>244.99</course>
  <speed>0.02</speed>
  <fix>3d</fix>
</trkpt>
<trkpt lat="40.0713749" lon="-105.229789">
  <ele>1583.0</ele>
  <time>2026-08-28T17:49:25Z</time>
  <course>0.0</course>
  <speed>0.0</speed>
  <fix>3d</fix>
</trkpt>
<trkpt lat="40.0713747" lon="-105.229789">
  <ele>1583.01</ele>
  <time>2026-08-28T17:49:25Z</time>
  <course>244.99</course>
  <speed>0.02</speed>
  <fix>3d</fix>
</trkpt>
<trkpt lat="40.0713749" lon="-105.229789">
  <ele>1583.0</ele>
  <time>2026-08-28T17:49:25Z</time>
  <course>0.0</course>
  <speed>0.0</speed>
  <fix>3d</fix>
</trkpt>
<trkpt lat="40.0713747" lon="-105.229789">
  <ele>1583.02</ele>
  <time>2026-08-28T17:49:25Z</time>
  <course>244.99</course>
  <speed>0.02</speed>
  <fix>3d</fix>
</trkpt>
<trkpt lat="40.0713749" lon="-105.229789">
  <ele>1583.0</ele>
  <time>2026-08-28T17:49:25Z</time>
  <course>0.0</course>
  <speed>0.0</speed>
  <fix>3d</fix>
</trkpt>
<trkpt lat="40.0713747" lon="-105.229789">
  <ele>1583.02</ele>
  <time>2026-08-28T17:49:25Z</time>
  <course>244.99</course>
  <speed>0.02</speed>
  <fix>3d</fix>
</trkpt>
<trkpt lat="40.0713749" lon="-105.229789">
  <ele>1583.0</ele>
  <time>2026-08-28T17:49:25Z</time>
  <course>0.0</course>
  <speed>0.0</speed>
  <fix>3d</fix>
</trkpt>
<trkpt lat="40.0713747" lon="-105.229789">
  <ele>1583.03</ele>
  <time>2026-08-28T17:49:25Z</time>
  <course>244.99</course>
  <speed>0.02</speed>
  <fix>3d</fix>
</trkpt>
<trkpt lat="40.0713749" lon="-105.229789">
  <ele>1583.0</ele>
  <time>2026-08-28T17:49:25Z</time>
  <course>0.0</course>
  <speed>0.0</speed>
  <fix>3d</fix>
</trkpt>
<trkpt lat="40.0713747" lon="-105.229789">
  <ele>1583.03</ele>
  <time>2026-08-28T17:49:25Z</time>
  <course>244.99</course>
  <speed>0.02</speed>
  <fix>3d</fix>
</trkpt>
<trkpt lat="40.0713749" lon="-105.229789">
  <ele>1583.0</ele>
  <time>2026-08-28T17:49:25Z</time>
  <course>0.0</course>
  <speed>0.0</speed>
  <fix>3d</fix>
</trkpt>
<trkpt lat="40.0713747" lon="-105.229789">
  <ele>1583.04</ele>
  <time>2026-08-28T17:49:25Z</time>
  <course>244.99</course>
  <speed>0.02</speed>
  <fix>3d</fix>
</trkpt>
<trkpt lat="40.0713749" lon="-105.229789">
  <ele>1583.0</ele>
  <time>2026-08-28T17:49:25Z</time>
  <course>0.0</course>
  <speed>0.0</speed>
  <fix>3d</fix>
</trkpt>
<trkpt lat="40.0713747" lon="-105.229789">
  <ele>1583.05</ele>
  <time>2026-08-28T17:49:25Z</time>
  <course>244.99</course>
  <speed>0.02</speed>
  <fix>3d</fix>
</trkpt>
<trkpt lat="40.0713749" lon="-105.229789">
  <ele>1583.0</ele>
  <time>2026-08-28T17:49:25Z</time>
  <course>0.0</course>
  <speed>0.0</speed>
  <fix>3d</fix>
</trkpt>
<trkpt lat="40.0713747" lon="-105.229789">
  <ele>1583.05</ele>
  <time>2026-08-28T17:49:25Z</time>
  <course>244.99</course>
  <speed>0.02</speed>
  <fix>3d</fix>
</trkpt>
<trkpt lat="40.0713749" lon="-105.229789">
  <ele>1583.0</ele>
  <time>2026-08-28T17:49:25Z</time>
  <course>0.0</course>
  <speed>0.0</speed>
  <fix>3d</fix>
</trkpt>
<trkpt lat="40.0713747" lon="-105.229789">
  <ele>1583.06</ele>
  <time>2026-08-28T17:49:25Z</time>
  <course>244.99</course>
  <speed>0.02</speed>
  <fix>3d</fix>
</trkpt>
<trkpt lat="40.0713749" lon="-105.229789">
  <ele>1583.0</ele>
  <time>2026-08-28T17:49:25Z</time>
  <course>0.0</course>
  <speed>0.0</speed>
  <fix>3d</fix>
</trkpt>
<trkpt lat="40.0713747" lon="-105.229789">
  <ele>1583.06</ele>
  <time>2026-08-28T17:49:25Z</time>
  <course>244.99</course>
  <speed>0.02</speed>
  <fix>3d</fix>
</trkpt>
<trkpt lat="40.0713749" lon="-105.229789">
  <ele>1583.0</ele>
  <time>2026-08-28T17:49:25Z</time>
  <course>0.0</course>
  <speed>0.0</speed>
  <fix>3d</fix>
</trkpt>
<trkpt lat="40.0713747" lon="-105.229789">
  <ele>1583.06</ele>
  <time>2026-08-28T17:49:25Z</time>
  <course>244.99</course>
  <speed>0.02</speed>
  <fix>3d</fix>
</trkpt>
<trkpt lat="40.0713749" lon="-105.229789">
  <ele>1583.0</ele>
  <time>2026-08-28T17:49:25Z</time>
  <course>0.0</course>
  <speed>0.0</speed>
  <fix>3d</fix>
</trkpt>
<trkpt lat="40.0713747" lon="-105.229789">
  <ele>1583.06</ele>
  <time>2026-08-28T17:49:25Z</time>
  <course>244.99</course>
  <speed>0.02</speed>
  <fix>3d</fix>
</trkpt>
<trkpt lat="40.0713749" lon="-105.229789">
  <ele>1583.0</ele>
  <time>2026-08-28T17:49:25Z</time>
  <course>0.0</course>
  <speed>0.0</speed>
  <fix>3d</fix>
</trkpt>
<trkpt lat="40.0713747" lon="-105.229789">
  <ele>1583.06</ele>
  <time>2026-08-28T17:49:25Z</time>
  <course>244.98</course>
  <speed>0.02</speed>
  <fix>3d</fix>
</trkpt>
<trkpt lat="40.0713749" lon="-105.229789">
  <ele>1583.0</ele>
  <time>2026-08-28T17:49:25Z</time>
  <course>0.0</course>
  <speed>0.0</speed>
  <fix>3d</fix>
</trkpt>
<trkpt lat="40.0713747" lon="-105.229789">
  <ele>1583.06</ele>
  <time>2026-08-28T17:49:25Z</time>
  <course>244.98</course>
  <speed>0.02</speed>
  <fix>3d</fix>
</trkpt>
<trkpt lat="40.0713749" lon="-105.229789">
  <ele>1583.0</ele>
  <time>2026-08-28T17:49:25Z</time>
  <course>0.0</course>
  <speed>0.0</speed>
  <fix>3d</fix>
</trkpt>
<trkpt lat="40.0713747" lon="-105.229789">
  <ele>1583.06</ele>
  <time>2026-08-28T17:49:25Z</time>
  <course>244.98</course>
  <speed>0.02</speed>
  <fix>3d</fix>
</trkpt>
<trkpt lat="40.0713749" lon="-105.229789">
  <ele>1583.0</ele>
  <time>2026-08-28T17:49:25Z</time>
  <course>0.0</course>
  <speed>0.0</speed>
  <fix>3d</fix>
</trkpt>
<trkpt lat="40.0713747" lon="-105.229789">
  <ele>1583.06</ele>
  <time>2026-08-28T17:49:25Z</time>
  <course>244.98</course>
  <speed>0.02</speed>
  <fix>3d</fix>
</trkpt>
<trkpt lat="40.0713749" lon="-105.229789">
  <ele>1583.0</ele>
  <time>2026-08-28T17:49:25Z</time>
  <course>0.0</course>
  <speed>0.0</speed>
  <fix>3d</fix>
</trkpt>
<trkpt lat="40.0713747" lon="-105.229789">
  <ele>1583.05</ele>
  <time>2026-08-28T17:49:25Z</time>
  <course>244.98</course>
  <speed>0.02</speed>
  <fix>3d</fix>
</trkpt>
<trkpt lat="40.0713749" lon="-105.229789">
  <ele>1583.0</ele>
  <time>2026-08-28T17:49:25Z</time>
  <course>0.0</course>
  <speed>0.0</speed>
  <fix>3d</fix>
</trkpt>
<trkpt lat="40.0713747" lon="-105.229789">
  <ele>1583.05</ele>
  <time>2026-08-28T17:49:25Z</time>
  <course>244.98</course>
  <speed>0.02</speed>
  <fix>3d</fix>
</trkpt>
<trkpt lat="40.0713749" lon="-105.229789">
  <ele>1583.0</ele>
  <time>2026-08-28T17:49:25Z</time>
  <course>0.0</course>
  <speed>0.0</speed>
  <fix>3d</fix>
</trkpt>
<trkpt lat="40.0713747" lon="-105.229789">
  <ele>1583.05</ele>
  <time>2026-08-28T17:49:25Z</time>
  <course>244.98</course>
  <speed>0.02</speed>
  <fix>3d</fix>
</trkpt>
<trkpt lat="40.0713749" lon="-105.229789">
  <ele>1583.0</ele>
  <time>2026-08-28T17:49:25Z</time>
  <course>0.0</course>
  <speed>0.0</speed>
  <fix>3d</fix>
</trkpt>
<trkpt lat="40.0713747" lon="-105.229789">
  <ele>1583.05</ele>
  <time>2026-08-28T17:49:25Z</time>
  <course>244.98</course>
  <speed>0.02</speed>
  <fix>3d</fix>
</trkpt>
<trkpt lat="40.0713749" lon="-105.229789">
  <ele>1583.0</ele>
  <time>2026-08-28T17:49:25Z</time>
  <course>0.0</course>
  <speed>0.0</speed>
  <fix>3d</fix>
</trkpt>
<trkpt lat="40.0713747" lon="-105.229789">
  <ele>1583.06</ele>
  <time>2026-08-28T17:49:25Z</time>
  <course>244.98</course>
  <speed>0.02</speed>
  <fix>3d</fix>
</trkpt>
<trkpt lat="40.0713749" lon="-105.229789">
  <ele>1583.0</ele>
  <time>2026-08-28T17:49:25Z</time>
  <course>0.0</course>
  <speed>0.0</speed>
  <fix>3d</fix>
</trkpt>
<trkpt lat="40.0713747" lon="-105.229789">
  <ele>1583.06</ele>
  <time>2026-08-28T17:49:25Z</time>
  <course>244.98</course>
  <speed>0.02</speed>
  <fix>3d</fix>
</trkpt>
<trkpt lat="40.0713749" lon="-105.229789">
  <ele>1583.0</ele>
  <time>2026-08-28T17:49:25Z</time>
  <course>0.0</course>
  <speed>0.0</speed>
  <fix>3d</fix>
</trkpt>
<trkpt lat="40.0713747" lon="-105.229789">
  <ele>1583.06</ele>
  <time>2026-08-28T17:49:25Z</time>
  <course>244.98</course>
  <speed>0.02</speed>
  <fix>3d</fix>
</trkpt>
<trkpt lat="40.0713749" lon="-105.229789">
  <ele>1583.0</ele>
  <time>2026-08-28T17:49:25Z</time>
  <course>0.0</course>
  <speed>0.0</speed>
  <fix>3d</fix>
</trkpt>
<trkpt lat="40.0713747" lon="-105.229789">
  <ele>1583.06</ele>
  <time>2026-08-28T17:49:25Z</time>
  <course>244.98</course>
  <speed>0.02</speed>
  <fix>3d</fix>
</trkpt>
<trkpt lat="40.0713749" lon="-105.229789">
  <ele>1583.0</ele>
  <time>2026-08-28T17:49:25Z</time>
  <course>0.0</course>
  <speed>0.0</speed>
  <fix>3d</fix>
</trkpt>
<trkpt lat="40.0713747" lon="-105.229789">
  <ele>1583.06</ele>
  <time>2026-08-28T17:49:25Z</time>
  <course>244.98</course>
  <speed>0.02</speed>
  <fix>3d</fix>
</trkpt>
<trkpt lat="40.0713749" lon="-105.229789">
  <ele>1583.0</ele>
  <time>2026-08-28T17:49:25Z</time>
  <course>0.0</course>
  <speed>0.0</speed>
  <fix>3d</fix>
</trkpt>
<trkpt lat="40.0713747" lon="-105.229789">
  <ele>1583.06</ele>
  <time>2026-08-28T17:49:25Z</time>
  <course>244.98</course>
  <speed>0.02</speed>
  <fix>3d</fix>
</trkpt>
<trkpt lat="40.0713749" lon="-105.229789">
  <ele>1583.0</ele>
  <time>2026-08-28T17:49:25Z</time>
  <course>0.0</course>
  <speed>0.0</speed>
  <fix>3d</fix>
</trkpt>
<trkpt lat="40.0713747" lon="-105.229789">
  <ele>1583.06</ele>
  <time>2026-08-28T17:49:25Z</time>
  <course>244.98</course>
  <speed>0.02</speed>
  <fix>3d</fix>
</trkpt>
<trkpt lat="40.0713749" lon="-105.229789">
  <ele>1583.0</ele>
  <time>2026-08-28T17:49:25Z</time>
  <course>0.0</course>
  <speed>0.0</speed>
  <fix>3d</fix>
</trkpt>
<trkpt lat="40.0713747" lon="-105.229789">
  <ele>1583.06</ele>
  <time>2026-08-28T17:49:25Z</time>
  <course>244.98</course>
  <speed>0.02</speed>
  <fix>3d</fix>
</trkpt>
<trkpt lat="40.0713749" lon="-105.229789">
  <ele>1583.0</ele>
  <time>2026-08-28T17:49:25Z</time>
  <course>0.0</course>
  <speed>0.0</speed>
  <fix>3d</fix>
</trkpt>
<trkpt lat="40.0713747" lon="-105.229789">
  <ele>1583.07</ele>
  <time>2026-08-28T17:49:25Z</time>
  <course>244.98</course>
  <speed>0.02</speed>
  <fix>3d</fix>
</trkpt>
<trkpt lat="40.0713749" lon="-105.229789">
  <ele>1583.0</ele>
  <time>2026-08-28T17:49:25Z</time>
  <course>0.0</course>
  <speed>0.0</speed>
  <fix>3d</fix>
</trkpt>
<trkpt lat="40.0713747" lon="-105.229789">
  <ele>1583.06</ele>
  <time>2026-08-28T17:49:25Z</time>
  <course>244.98</course>
  <speed>0.02</speed>
  <fix>3d</fix>
</trkpt>
<trkpt lat="40.0713749" lon="-105.229789">
  <ele>1583.0</ele>
  <time>2026-08-28T17:49:25Z</time>
  <course>0.0</course>
  <speed>0.0</speed>
  <fix>3d</fix>
</trkpt>
<trkpt lat="40.0713747" lon="-105.229789">
  <ele>1583.05</ele>
  <time>2026-08-28T17:49:25Z</time>
  <course>244.98</course>
  <speed>0.02</speed>
  <fix>3d</fix>
</trkpt>
<trkpt lat="40.0713749" lon="-105.229789">
  <ele>1583.0</ele>
  <time>2026-08-28T17:49:25Z</time>
  <course>0.0</course>
  <speed>0.0</speed>
  <fix>3d</fix>
</trkpt>
<trkpt lat="40.0713747" lon="-105.229789">
  <ele>1583.05</ele>
  <time>2026-08-28T17:49:25Z</time>
  <course>244.98</course>
  <speed>0.02</speed>
  <fix>3d</fix>
</trkpt>
<trkpt lat="40.0713749" lon="-105.229789">
  <ele>1583.0</ele>
  <time>2026-08-28T17:49:25Z</time>
  <course>0.0</course>
  <speed>0.0</speed>
  <fix>3d</fix>
</trkpt>
<trkpt lat="40.0713747" lon="-105.229789">
  <ele>1583.04</ele>
  <time>2026-08-28T17:49:25Z</time>
  <course>244.98</course>
  <speed>0.02</speed>
  <fix>3d</fix>
</trkpt>
<trkpt lat="40.0713749" lon="-105.229789">
  <ele>1583.0</ele>
  <time>2026-08-28T17:49:25Z</time>
  <course>0.0</course>
  <speed>0.0</speed>
  <fix>3d</fix>
</trkpt>
<trkpt lat="40.0713747" lon="-105.229789">
  <ele>1583.03</ele>
  <time>2026-08-28T17:49:25Z</time>
  <course>244.98</course>
  <speed>0.02</speed>
  <fix>3d</fix>
</trkpt>
<trkpt lat="40.0713749" lon="-105.229789">
  <ele>1583.0</ele>
  <time>2026-08-28T17:49:25Z</time>
  <course>0.0</course>
  <speed>0.0</speed>
  <fix>3d</fix>
</trkpt>
<trkpt lat="40.0713747" lon="-105.229789">
  <ele>1583.03</ele>
  <time>2026-08-28T17:49:25Z</time>
  <course>244.98</course>
  <speed>0.02</speed>
  <fix>3d</fix>
</trkpt>
<trkpt lat="40.0713749" lon="-105.229789">
  <ele>1583.0</ele>
  <time>2026-08-28T17:49:25Z</time>
  <course>0.0</course>
  <speed>0.0</speed>
  <fix>3d</fix>
</trkpt>
<trkpt lat="40.0713747" lon="-105.229789">
  <ele>1583.02</ele>
  <time>2026-08-28T17:49:25Z</time>
  <course>244.98</course>
  <speed>0.02</speed>
  <fix>3d</fix>
</trkpt>
<trkpt lat="40.0713749" lon="-105.229789">
  <ele>1583.0</ele>
  <time>2026-08-28T17:49:25Z</time>
  <course>0.0</course>
  <speed>0.0</speed>
  <fix>3d</fix>
</trkpt>
<trkpt lat="40.0713747" lon="-105.229789">
  <ele>1583.02</ele>
  <time>2026-08-28T17:49:25Z</time>
  <course>244.98</course>
  <speed>0.02</speed>
  <fix>3d</fix>
</trkpt>
<trkpt lat="40.0713749" lon="-105.229789">
  <ele>1583.0</ele>
  <time>2026-08-28T17:49:25Z</time>
  <course>0.0</course>
  <speed>0.0</speed>
  <fix>3d</fix>
</trkpt>
<trkpt lat="40.0713747" lon="-105.229789">
  <ele>1583.01</ele>
  <time>2026-08-28T17:49:25Z</time>
  <course>244.97</course>
  <speed>0.02</speed>
  <fix>3d</fix>
</trkpt>
<trkpt lat="40.0713749" lon="-105.229789">
  <ele>1583.0</ele>
  <time>2026-08-28T17:49:25Z</time>
  <course>0.0</course>
  <speed>0.0</speed>
  <fix>3d</fix>
</trkpt>
<trkpt lat="40.0713747" lon="-105.229789">
  <ele>1583.01</ele>
  <time>2026-08-28T17:49:25Z</time>
  <course>244.97</course>
  <speed>0.02</speed>
  <fix>3d</fix>
</trkpt>
<trkpt lat="40.0713749" lon="-105.229789">
  <ele>1583.0</ele>
  <time>2026-08-28T17:49:25Z</time>
  <course>0.0</course>
  <speed>0.0</speed>
  <fix>3d</fix>
</trkpt>
<trkpt lat="40.0713747" lon="-105.229789">
  <ele>1583.01</ele>
  <time>2026-08-28T17:49:25Z</time>
  <course>244.97</course>
  <speed>0.02</speed>
  <fix>3d</fix>
</trkpt>
<trkpt lat="40.0713749" lon="-105.229789">
  <ele>1583.0</ele>
  <time>2026-08-28T17:49:25Z</time>
  <course>0.0</course>
  <speed>0.0</speed>
  <fix>3d</fix>
</trkpt>
<trkpt lat="40.0713747" lon="-105.229789">
  <ele>1583.01</ele>
  <time>2026-08-28T17:49:25Z</time>
  <course>244.97</course>
  <speed>0.02</speed>
  <fix>3d</fix>
</trkpt>
<trkpt lat="40.0713749" lon="-105.229789">
  <ele>1583.0</ele>
  <time>2026-08-28T17:49:25Z</time>
  <course>0.0</course>
  <speed>0.0</speed>
  <fix>3d</fix>
</trkpt>
<trkpt lat="40.0713747" lon="-105.229789">
  <ele>1583.0</ele>
  <time>2026-08-28T17:49:25Z</time>
  <course>244.97</course>
  <speed>0.02</speed>
  <fix>3d</fix>
</trkpt>
<trkpt lat="40.0713749" lon="-105.229789">
  <ele>1583.0</ele>
  <time>2026-08-28T17:49:25Z</time>
  <course>0.0</course>
  <speed>0.0</speed>
  <fix>3d</fix>
</trkpt>
<trkpt lat="40.0713747" lon="-105.229789">
  <ele>1583.0</ele>
  <time>2026-08-28T17:49:25Z</time>
  <course>244.97</course>
  <speed>0.02</speed>
  <fix>3d</fix>
</trkpt>
<trkpt lat="40.0713749" lon="-105.229789">
  <ele>1583.0</ele>
  <time>2026-08-28T17:49:25Z</time>
  <course>0.0</course>
  <speed>0.0</speed>
  <fix>3d</fix>
</trkpt>
<trkpt lat="40.0713747" lon="-105.229789">
  <ele>1583.0</ele>
  <time>2026-08-28T17:49:25Z</time>
  <course>244.97</course>
  <speed>0.02</speed>
  <fix>3d</fix>
</trkpt>
<trkpt lat="40.0713749" lon="-105.229789">
  <ele>1583.0</ele>
  <time>2026-08-28T17:49:25Z</time>
  <course>0.0</course>
  <speed>0.0</speed>
  <fix>3d</fix>
</trkpt>
<trkpt lat="40.0713747" lon="-105.229789">
  <ele>1583.0</ele>
  <time>2026-08-28T17:49:25Z</time>
  <course>244.97</course>
  <speed>0.02</speed>
  <fix>3d</fix>
</trkpt>
<trkpt lat="40.0713749" lon="-105.229789">
  <ele>1583.0</ele>
  <time>2026-08-28T17:49:25Z</time>
  <course>0.0</course>
  <speed>0.0</speed>
  <fix>3d</fix>
</trkpt>
<trkpt lat="40.0713747" lon="-105.229789">
  <ele>1583.0</ele>
  <time>2026-08-28T17:49:25Z</time>
  <course>244.97</course>
  <speed>0.02</speed>
  <fix>3d</fix>
</trkpt>
<trkpt lat="40.0713749" lon="-105.229789">
  <ele>1583.0</ele>
  <time>2026-08-28T17:49:25Z</time>
  <course>0.0</course>
  <speed>0.0</speed>
  <fix>3d</fix>
</trkpt>
<trkpt lat="40.0713747" lon="-105.229789">
  <ele>1583.0</ele>
  <time>2026-08-28T17:49:25Z</time>
  <course>244.97</course>
  <speed>0.02</speed>
  <fix>3d</fix>
</trkpt>
<trkpt lat="40.0713749" lon="-105.229789">
  <ele>1583.0</ele>
  <time>2026-08-28T17:49:25Z</time>
  <course>0.0</course>
  <speed>0.0</speed>
  <fix>3d</fix>
</trkpt>
<trkpt lat="40.0713747" lon="-105.229789">
  <ele>1583.0</ele>
  <time>2026-08-28T17:49:25Z</time>
  <course>244.97</course>
  <speed>0.02</speed>
  <fix>3d</fix>
</trkpt>
<trkpt lat="40.0713749" lon="-105.229789">
  <ele>1583.0</ele>
  <time>2026-08-28T17:49:25Z</time>
  <course>0.0</course>
  <speed>0.0</speed>
  <fix>3d</fix>
</trkpt>
<trkpt lat="40.0713747" lon="-105.229789">
  <ele>1583.0</ele>
  <time>2026-08-28T17:49:25Z</time>
  <course>244.97</course>
  <speed>0.02</speed>
  <fix>3d</fix>
</trkpt>
<trkpt lat="40.0713749" lon="-105.229789">
  <ele>1583.0</ele>
  <time>2026-08-28T17:49:25Z</time>
  <course>0.0</course>
  <speed>0.0</speed>
  <fix>3d</fix>
</trkpt>
<trkpt lat="40.0713747" lon="-105.229789">
  <ele>1583.0</ele>
  <time>2026-08-28T17:49:25Z</time>
  <course>244.97</course>
  <speed>0.02</speed>
  <fix>3d</fix>
</trkpt>
<trkpt lat="40.0713749" lon="-105.229789">
  <ele>1583.0</ele>
  <time>2026-08-28T17:49:25Z</time>
  <course>0.0</course>
  <speed>0.0</speed>
  <fix>3d</fix>
</trkpt>
<trkpt lat="40.0713747" lon="-105.229789">
  <ele>1582.99</ele>
  <time>2026-08-28T17:49:25Z</time>
  <course>244.97</course>
  <speed>0.02</speed>
  <fix>3d</fix>
</trkpt>
<trkpt lat="40.0713749" lon="-105.229789">
  <ele>1583.0</ele>
  <time>2026-08-28T17:49:25Z</time>
  <course>0.0</course>
  <speed>0.0</speed>
  <fix>3d</fix>
</trkpt>
<trkpt lat="40.0713747" lon="-105.229789">
  <ele>1582.99</ele>
  <time>2026-08-28T17:49:25Z</time>
  <course>244.97</course>
  <speed>0.02</speed>
  <fix>3d</fix>
</trkpt>
<trkpt lat="40.0713749" lon="-105.229789">
  <ele>1583.0</ele>
  <time>2026-08-28T17:49:25Z</time>
  <course>0.0</course>
  <speed>0.0</speed>
  <fix>3d</fix>
</trkpt>
<trkpt lat="40.0713747" lon="-105.229789">
  <ele>1582.98</ele>
  <time>2026-08-28T17:49:25Z</time>
  <course>244.97</course>
  <speed>0.02</speed>
  <fix>3d</fix>
</trkpt>
<trkpt lat="40.0713749" lon="-105.229789">
  <ele>1583.0</ele>
  <time>2026-08-28T17:49:25Z</time>
  <course>0.0</course>
  <speed>0.0</speed>
  <fix>3d</fix>
</trkpt>
<trkpt lat="40.0713747" lon="-105.229789">
  <ele>1582.97</ele>
  <time>2026-08-28T17:49:25Z</time>
  <course>244.97</course>
  <speed>0.02</speed>
  <fix>3d</fix>
</trkpt>
<trkpt lat="40.0713749" lon="-105.229789">
  <ele>1583.0</ele>
  <time>2026-08-28T17:49:25Z</time>
  <course>0.0</course>
  <speed>0.0</speed>
  <fix>3d</fix>
</trkpt>
<trkpt lat="40.0713747" lon="-105.229789">
  <ele>1582.97</ele>
  <time>2026-08-28T17:49:25Z</time>
  <course>244.97</course>
  <speed>0.02</speed>
  <fix>3d</fix>
</trkpt>
<trkpt lat="40.0713749" lon="-105.229789">
  <ele>1583.0</ele>
  <time>2026-08-28T17:49:25Z</time>
  <course>0.0</course>
  <speed>0.0</speed>
  <fix>3d</fix>
</trkpt>
<trkpt lat="40.0713747" lon="-105.229789">
  <ele>1582.96</ele>
  <time>2026-08-28T17:49:25Z</time>
  <course>244.97</course>
  <speed>0.02</speed>
  <fix>3d</fix>
</trkpt>
<trkpt lat="40.0713749" lon="-105.229789">
  <ele>1583.0</ele>
  <time>2026-08-28T17:49:25Z</time>
  <course>0.0</course>
  <speed>0.0</speed>
  <fix>3d</fix>
</trkpt>
<trkpt lat="40.0713747" lon="-105.229789">
  <ele>1582.96</ele>
  <time>2026-08-28T17:49:25Z</time>
  <course>244.97</course>
  <speed>0.02</speed>
  <fix>3d</fix>
</trkpt>
<trkpt lat="40.0713749" lon="-105.229789">
  <ele>1583.0</ele>
  <time>2026-08-28T17:49:25Z</time>
  <course>0.0</course>
  <speed>0.0</speed>
  <fix>3d</fix>
</trkpt>
<trkpt lat="40.0713747" lon="-105.229789">
  <ele>1582.96</ele>
  <time>2026-08-28T17:49:25Z</time>
  <course>244.97</course>
  <speed>0.02</speed>
  <fix>3d</fix>
</trkpt>
<trkpt lat="40.0713749" lon="-105.229789">
  <ele>1583.0</ele>
  <time>2026-08-28T17:49:25Z</time>
  <course>0.0</course>
  <speed>0.0</speed>
  <fix>3d</fix>
</trkpt>
<trkpt lat="40.0713747" lon="-105.229789">
  <ele>1582.96</ele>
  <time>2026-08-28T17:49:25Z</time>
  <course>244.97</course>
  <speed>0.02</speed>
  <fix>3d</fix>
</trkpt>
<trkpt lat="40.0713749" lon="-105.229789">
  <ele>1583.0</ele>
  <time>2026-08-28T17:49:25Z</time>
  <course>0.0</course>
  <speed>0.0</speed>
  <fix>3d</fix>
</trkpt>
<trkpt lat="40.0713747" lon="-105.229789">
  <ele>1582.95</ele>
  <time>2026-08-28T17:49:25Z</time>
  <course>244.97</course>
  <speed>0.02</speed>
  <fix>3d</fix>
</trkpt>
<trkpt lat="40.0713749" lon="-105.229789">
  <ele>1583.0</ele>
  <time>2026-08-28T17:49:25Z</time>
  <course>0.0</course>
  <speed>0.0</speed>
  <fix>3d</fix>
</trkpt>
<trkpt lat="40.0713747" lon="-105.229789">
  <ele>1582.95</ele>
  <time>2026-08-28T17:49:25Z</time>
  <course>244.97</course>
  <speed>0.02</speed>
  <fix>3d</fix>
</trkpt>
<trkpt lat="40.0713749" lon="-105.229789">
  <ele>1583.0</ele>
  <time>2026-08-28T17:49:25Z</time>
  <course>0.0</course>
  <speed>0.0</speed>
  <fix>3d</fix>
</trkpt>
<trkpt lat="40.0713747" lon="-105.229789">
  <ele>1582.95</ele>
  <time>2026-08-28T17:49:25Z</time>
  <course>244.97</course>
  <speed>0.02</speed>
  <fix>3d</fix>
</trkpt>
<trkpt lat="40.0713749" lon="-105.229789">
  <ele>1583.0</ele>
  <time>2026-08-28T17:49:25Z</time>
  <course>0.0</course>
  <speed>0.0</speed>
  <fix>3d</fix>
</trkpt>
<trkpt lat="40.0713747" lon="-105.229789">
  <ele>1582.94</ele>
  <time>2026-08-28T17:49:25Z</time>
  <course>244.97</course>
  <speed>0.02</speed>
  <fix>3d</fix>
</trkpt>
<trkpt lat="40.0713749" lon="-105.229789">
  <ele>1583.0</ele>
  <time>2026-08-28T17:49:25Z</time>
  <course>0.0</course>
  <speed>0.0</speed>
  <fix>3d</fix>
</trkpt>
<trkpt lat="40.0713747" lon="-105.229789">
  <ele>1582.94</ele>
  <time>2026-08-28T17:49:25Z</time>
  <course>244.97</course>
  <speed>0.02</speed>
  <fix>3d</fix>
</trkpt>
<trkpt lat="40.0713749" lon="-105.229789">
  <ele>1583.0</ele>
  <time>2026-08-28T17:49:25Z</time>
  <course>0.0</course>
  <speed>0.0</speed>
  <fix>3d</fix>
</trkpt>
<trkpt lat="40.0713747" lon="-105.229789">
  <ele>1582.93</ele>
  <time>2026-08-28T17:49:25Z</time>
  <course>244.97</course>
  <speed>0.02</speed>
  <fix>3d</fix>
</trkpt>
<trkpt lat="40.0713749" lon="-105.229789">
  <ele>1583.0</ele>
  <time>2026-08-28T17:49:25Z</time>
  <course>0.0</course>
  <speed>0.0</speed>
  <fix>3d</fix>
</trkpt>
<trkpt lat="40.0713747" lon="-105.229789">
  <ele>1582.93</ele>
  <time>2026-08-28T17:49:25Z</time>
  <course>244.97</course>
  <speed>0.02</speed>
  <fix>3d</fix>
</trkpt>
<trkpt lat="40.0713749" lon="-105.229789">
  <ele>1583.0</ele>
  <time>2026-08-28T17:49:25Z</time>
  <course>0.0</course>
  <speed>0.0</speed>
  <fix>3d</fix>
</trkpt>
<trkpt lat="40.0713747" lon="-105.229789">
  <ele>1582.93</ele>
  <time>2026-08-28T17:49:25Z</time>
  <course>244.96</course>
  <speed>0.02</speed>
  <fix>3d</fix>
</trkpt>
<trkpt lat="40.0713749" lon="-105.229789">
  <ele>1583.0</ele>
  <time>2026-08-28T17:49:25Z</time>
  <course>0.0</course>
  <speed>0.0</speed>
  <fix>3d</fix>
</trkpt>
<trkpt lat="40.0713747" lon="-105.229789">
  <ele>1582.93</ele>
  <time>2026-08-28T17:49:25Z</time>
  <course>244.96</course>
  <speed>0.02</speed>
  <fix>3d</fix>
</trkpt>
<trkpt lat="40.0713749" lon="-105.229789">
  <ele>1583.0</ele>
  <time>2026-08-28T17:49:25Z</time>
  <course>0.0</course>
  <speed>0.0</speed>
  <fix>3d</fix>
</trkpt>
<trkpt lat="40.0713747" lon="-105.229789">
  <ele>1582.93</ele>
  <time>2026-08-28T17:49:25Z</time>
  <course>244.96</course>
  <speed>0.02</speed>
  <fix>3d</fix>
</trkpt>
<trkpt lat="40.0713749" lon="-105.229789">
  <ele>1583.0</ele>
  <time>2026-08-28T17:49:25Z</time>
  <course>0.0</course>
  <speed>0.0</speed>
  <fix>3d</fix>
</trkpt>
<trkpt lat="40.0713747" lon="-105.229789">
  <ele>1582.93</ele>
  <time>2026-08-28T17:49:25Z</time>
  <course>244.96</course>
  <speed>0.02</speed>
  <fix>3d</fix>
</trkpt>
<trkpt lat="40.0713749" lon="-105.229789">
  <ele>1583.0</ele>
  <time>2026-08-28T17:49:25Z</time>
  <course>0.0</course>
  <speed>0.0</speed>
  <fix>3d</fix>
</trkpt>
<trkpt lat="40.0713747" lon="-105.229789">
  <ele>1582.94</ele>
  <time>2026-08-28T17:49:25Z</time>
  <course>244.96</course>
  <speed>0.02</speed>
  <fix>3d</fix>
</trkpt>
<trkpt lat="40.0713749" lon="-105.229789">
  <ele>1583.0</ele>
  <time>2026-08-28T17:49:25Z</time>
  <course>0.0</course>
  <speed>0.0</speed>
  <fix>3d</fix>
</trkpt>
<trkpt lat="40.0713747" lon="-105.229789">
  <ele>1582.94</ele>
  <time>2026-08-28T17:49:25Z</time>
  <course>244.96</course>
  <speed>0.02</speed>
  <fix>3d</fix>
</trkpt>
<trkpt lat="40.0713749" lon="-105.229789">
  <ele>1583.0</ele>
  <time>2026-08-28T17:49:25Z</time>
  <course>0.0</course>
  <speed>0.0</speed>
  <fix>3d</fix>
</trkpt>
<trkpt lat="40.0713747" lon="-105.229789">
  <ele>1582.93</ele>
  <time>2026-08-28T17:49:25Z</time>
  <course>244.96</course>
  <speed>0.02</speed>
  <fix>3d</fix>
</trkpt>
<trkpt lat="40.0713749" lon="-105.229789">
  <ele>1583.0</ele>
  <time>2026-08-28T17:49:25Z</time>
  <course>0.0</course>
  <speed>0.0</speed>
  <fix>3d</fix>
</trkpt>
<trkpt lat="40.0713747" lon="-105.229789">
  <ele>1582.93</ele>
  <time>2026-08-28T17:49:25Z</time>
  <course>244.96</course>
  <speed>0.02</speed>
  <fix>3d</fix>
</trkpt>
<trkpt lat="40.0713749" lon="-105.229789">
  <ele>1583.0</ele>
  <time>2026-08-28T17:49:25Z</time>
  <course>0.0</course>
  <speed>0.0</speed>
  <fix>3d</fix>
</trkpt>
<trkpt lat="40.0713747" lon="-105.229789">
  <ele>1582.93</ele>
  <time>2026-08-28T17:49:25Z</time>
  <course>244.96</course>
  <speed>0.02</speed>
  <fix>3d</fix>
</trkpt>
<trkpt lat="40.0713749" lon="-105.229789">
  <ele>1583.0</ele>
  <time>2026-08-28T17:49:25Z</time>
  <course>0.0</course>
  <speed>0.0</speed>
  <fix>3d</fix>
</trkpt>
<trkpt lat="40.0713747" lon="-105.229789">
  <ele>1582.93</ele>
  <time>2026-08-28T17:49:25Z</time>
  <course>244.96</course>
  <speed>0.02</speed>
  <fix>3d</fix>
</trkpt>
<trkpt lat="40.0713749" lon="-105.229789">
  <ele>1583.0</ele>
  <time>2026-08-28T17:49:25Z</time>
  <course>0.0</course>
  <speed>0.0</speed>
  <fix>3d</fix>
</trkpt>
<trkpt lat="40.0713747" lon="-105.229789">
  <ele>1582.93</ele>
  <time>2026-08-28T17:49:25Z</time>
  <course>244.96</course>
  <speed>0.02</speed>
  <fix>3d</fix>
</trkpt>
<trkpt lat="40.0713749" lon="-105.229789">
  <ele>1583.0</ele>
  <time>2026-08-28T17:49:25Z</time>
  <course>0.0</course>
  <speed>0.0</speed>
  <fix>3d</fix>
</trkpt>
<trkpt lat="40.0713747" lon="-105.229789">
  <ele>1582.92</ele>
  <time>2026-08-28T17:49:25Z</time>
  <course>244.96</course>
  <speed>0.02</speed>
  <fix>3d</fix>
</trkpt>
<trkpt lat="40.0713749" lon="-105.229789">
  <ele>1583.0</ele>
  <time>2026-08-28T17:49:25Z</time>
  <course>0.0</course>
  <speed>0.0</speed>
  <fix>3d</fix>
</trkpt>
<trkpt lat="40.0713747" lon="-105.229789">
  <ele>1582.92</ele>
  <time>2026-08-28T17:49:25Z</time>
  <course>244.96</course>
  <speed>0.02</speed>
  <fix>3d</fix>
</trkpt>
<trkpt lat="40.0713749" lon="-105.229789">
  <ele>1583.0</ele>
  <time>2026-08-28T17:49:25Z</time>
  <course>0.0</course>
  <speed>0.0</speed>
  <fix>3d</fix>
</trkpt>
<trkpt lat="40.0713747" lon="-105.229789">
  <ele>1582.93</ele>
  <time>2026-08-28T17:49:25Z</time>
  <course>244.96</course>
  <speed>0.02</speed>
  <fix>3d</fix>
</trkpt>
<trkpt lat="40.0713749" lon="-105.229789">
  <ele>1583.0</ele>
  <time>2026-08-28T17:49:25Z</time>
  <course>0.0</course>
  <speed>0.0</speed>
  <fix>3d</fix>
</trkpt>
<trkpt lat="40.0713747" lon="-105.229789">
  <ele>1582.94</ele>
  <time>2026-08-28T17:49:25Z</time>
  <course>244.96</course>
  <speed>0.02</speed>
  <fix>3d</fix>
</trkpt>
<trkpt lat="40.0713749" lon="-105.229789">
  <ele>1583.0</ele>
  <time>2026-08-28T17:49:25Z</time>
  <course>0.0</course>
  <speed>0.0</speed>
  <fix>3d</fix>
</trkpt>
<trkpt lat="40.0713747" lon="-105.229789">
  <ele>1582.94</ele>
  <time>2026-08-28T17:49:25Z</time>
  <course>244.96</course>
  <speed>0.02</speed>
  <fix>3d</fix>
</trkpt>
<trkpt lat="40.0713749" lon="-105.229789">
  <ele>1583.0</ele>
  <time>2026-08-28T17:49:25Z</time>
  <course>0.0</course>
  <speed>0.0</speed>
  <fix>3d</fix>
</trkpt>
<trkpt lat="40.0713747" lon="-105.229789">
  <ele>1582.96</ele>
  <time>2026-08-28T17:49:25Z</time>
  <course>244.96</course>
  <speed>0.02</speed>
  <fix>3d</fix>
</trkpt>
<trkpt lat="40.0713749" lon="-105.229789">
  <ele>1583.0</ele>
  <time>2026-08-28T17:49:25Z</time>
  <course>0.0</course>
  <speed>0.0</speed>
  <fix>3d</fix>
</trkpt>
<trkpt lat="40.0713747" lon="-105.229789">
  <ele>1582.97</ele>
  <time>2026-08-28T17:49:25Z</time>
  <course>244.96</course>
  <speed>0.02</speed>
  <fix>3d</fix>
</trkpt>
<trkpt lat="40.0713749" lon="-105.229789">
  <ele>1583.0</ele>
  <time>2026-08-28T17:49:25Z</time>
  <course>0.0</course>
  <speed>0.0</speed>
  <fix>3d</fix>
</trkpt>
<trkpt lat="40.0713747" lon="-105.229789">
  <ele>1582.98</ele>
  <time>2026-08-28T17:49:25Z</time>
  <course>244.96</course>
  <speed>0.02</speed>
  <fix>3d</fix>
</trkpt>
<trkpt lat="40.0713749" lon="-105.229789">
  <ele>1583.0</ele>
  <time>2026-08-28T17:49:25Z</time>
  <course>0.0</course>
  <speed>0.0</speed>
  <fix>3d</fix>
</trkpt>
<trkpt lat="40.0713747" lon="-105.229789">
  <ele>1582.99</ele>
  <time>2026-08-28T17:49:25Z</time>
  <course>244.96</course>
  <speed>0.02</speed>
  <fix>3d</fix>
</trkpt>
<trkpt lat="40.0713749" lon="-105.229789">
  <ele>1583.0</ele>
  <time>2026-08-28T17:49:25Z</time>
  <course>0.0</course>
  <speed>0.0</speed>
  <fix>3d</fix>
</trkpt>
<trkpt lat="40.0713747" lon="-105.229789">
  <ele>1583.01</ele>
  <time>2026-08-28T17:49:25Z</time>
  <course>244.96</course>
  <speed>0.02</speed>
  <fix>3d</fix>
</trkpt>
<trkpt lat="40.0713749" lon="-105.229789">
  <ele>1583.0</ele>
  <time>2026-08-28T17:49:25Z</time>
  <course>0.0</course>
  <speed>0.0</speed>
  <fix>3d</fix>
</trkpt>
<trkpt lat="40.0713747" lon="-105.229789">
  <ele>1583.02</ele>
  <time>2026-08-28T17:49:25Z</time>
  <course>244.96</course>
  <speed>0.02</speed>
  <fix>3d</fix>
</trkpt>
<trkpt lat="40.0713749" lon="-105.229789">
  <ele>1583.0</ele>
  <time>2026-08-28T17:49:25Z</time>
  <course>0.0</course>
  <speed>0.0</speed>
  <fix>3d</fix>
</trkpt>
<trkpt lat="40.0713747" lon="-105.229789">
  <ele>1583.02</ele>
  <time>2026-08-28T17:49:25Z</time>
  <course>244.96</course>
  <speed>0.02</speed>
  <fix>3d</fix>
</trkpt>
<trkpt lat="40.0713749" lon="-105.229789">
  <ele>1583.0</ele>
  <time>2026-08-28T17:49:25Z</time>
  <course>0.0</course>
  <speed>0.0</speed>
  <fix>3d</fix>
</trkpt>
<trkpt lat="40.0713747" lon="-105.229789">
  <ele>1583.03</ele>
  <time>2026-08-28T17:49:25Z</time>
  <course>244.96</course>
  <speed>0.02</speed>
  <fix>3d</fix>
</trkpt>
<trkpt lat="40.0713749" lon="-105.229789">
  <ele>1583.0</ele>
  <time>2026-08-28T17:49:25Z</time>
  <course>0.0</course>
  <speed>0.0</speed>
  <fix>3d</fix>
</trkpt>
<trkpt lat="40.0713747" lon="-105.229789">
  <ele>1583.03</ele>
  <time>2026-08-28T17:49:25Z</time>
  <course>244.96</course>
  <speed>0.02</speed>
  <fix>3d</fix>
</trkpt>
<trkpt lat="40.0713749" lon="-105.229789">
  <ele>1583.0</ele>
  <time>2026-08-28T17:49:25Z</time>
  <course>0.0</course>
  <speed>0.0</speed>
  <fix>3d</fix>
</trkpt>
<trkpt lat="40.0713747" lon="-105.229789">
  <ele>1583.04</ele>
  <time>2026-08-28T17:49:25Z</time>
  <course>244.96</course>
  <speed>0.02</speed>
  <fix>3d</fix>
</trkpt>
<trkpt lat="40.0713749" lon="-105.229789">
  <ele>1583.0</ele>
  <time>2026-08-28T17:49:25Z</time>
  <course>0.0</course>
  <speed>0.0</speed>
  <fix>3d</fix>
</trkpt>
<trkpt lat="40.0713747" lon="-105.229789">
  <ele>1583.05</ele>
  <time>2026-08-28T17:49:25Z</time>
  <course>244.96</course>
  <speed>0.02</speed>
  <fix>3d</fix>
</trkpt>
<trkpt lat="40.0713749" lon="-105.229789">
  <ele>1583.0</ele>
  <time>2026-08-28T17:49:25Z</time>
  <course>0.0</course>
  <speed>0.0</speed>
  <fix>3d</fix>
</trkpt>
<trkpt lat="40.0713747" lon="-105.229789">
  <ele>1583.05</ele>
  <time>2026-08-28T17:49:25Z</time>
  <course>244.96</course>
  <speed>0.02</speed>
  <fix>3d</fix>
</trkpt>
<trkpt lat="40.0713749" lon="-105.229789">
  <ele>1583.0</ele>
  <time>2026-08-28T17:49:25Z</time>
  <course>0.0</course>
  <speed>0.0</speed>
  <fix>3d</fix>
</trkpt>
<trkpt lat="40.0713747" lon="-105.229789">
  <ele>1583.06</ele>
  <time>2026-08-28T17:49:25Z</time>
  <course>244.96</course>
  <speed>0.02</speed>
  <fix>3d</fix>
</trkpt>
<trkpt lat="40.0713749" lon="-105.229789">
  <ele>1583.0</ele>
  <time>2026-08-28T17:49:25Z</time>
  <course>0.0</course>
  <speed>0.0</speed>
  <fix>3d</fix>
</trkpt>
<trkpt lat="40.0713747" lon="-105.229789">
  <ele>1583.07</ele>
  <time>2026-08-28T17:49:25Z</time>
  <course>244.96</course>
  <speed>0.02</speed>
  <fix>3d</fix>
</trkpt>
<trkpt lat="40.0713749" lon="-105.229789">
  <ele>1583.0</ele>
  <time>2026-08-28T17:49:25Z</time>
  <course>0.0</course>
  <speed>0.0</speed>
  <fix>3d</fix>
</trkpt>
<trkpt lat="40.0713747" lon="-105.229789">
  <ele>1583.07</ele>
  <time>2026-08-28T17:49:25Z</time>
  <course>244.96</course>
  <speed>0.02</speed>
  <fix>3d</fix>
</trkpt>
<trkpt lat="40.0713749" lon="-105.229789">
  <ele>1583.0</ele>
  <time>2026-08-28T17:49:25Z</time>
  <course>0.0</course>
  <speed>0.0</speed>
  <fix>3d</fix>
</trkpt>
<trkpt lat="40.0713747" lon="-105.229789">
  <ele>1583.07</ele>
  <time>2026-08-28T17:49:25Z</time>
  <course>244.96</course>
  <speed>0.02</speed>
  <fix>3d</fix>
</trkpt>
<trkpt lat="40.0713749" lon="-105.229789">
  <ele>1583.0</ele>
  <time>2026-08-28T17:49:25Z</time>
  <course>0.0</course>
  <speed>0.0</speed>
  <fix>3d</fix>
</trkpt>
<trkpt lat="40.0713747" lon="-105.229789">
  <ele>1583.07</ele>
  <time>2026-08-28T17:49:25Z</time>
  <course>244.96</course>
  <speed>0.02</speed>
  <fix>3d</fix>
</trkpt>
<trkpt lat="40.0713749" lon="-105.229789">
  <ele>1583.0</ele>
  <time>2026-08-28T17:49:25Z</time>
  <course>0.0</course>
  <speed>0.0</speed>
  <fix>3d</fix>
</trkpt>
<trkpt lat="40.0713747" lon="-105.229789">
  <ele>1583.07</ele>
  <time>2026-08-28T17:49:25Z</time>
  <course>244.96</course>
  <speed>0.02</speed>
  <fix>3d</fix>
</trkpt>
<trkpt lat="40.0713749" lon="-105.229789">
  <ele>1583.0</ele>
  <time>2026-08-28T17:49:25Z</time>
  <course>0.0</course>
  <speed>0.0</speed>
  <fix>3d</fix>
</trkpt>
<trkpt lat="40.0713747" lon="-105.229789">
  <ele>1583.08</ele>
  <time>2026-08-28T17:49:25Z</time>
  <course>244.95</course>
  <speed>0.02</speed>
  <fix>3d</fix>
</trkpt>
<trkpt lat="40.0713749" lon="-105.229789">
  <ele>1583.0</ele>
  <time>2026-08-28T17:49:25Z</time>
  <course>0.0</course>
  <speed>0.0</speed>
  <fix>3d</fix>
</trkpt>
<trkpt lat="40.0713747" lon="-105.229789">
  <ele>1583.08</ele>
  <time>2026-08-28T17:49:25Z</time>
  <course>244.95</course>
  <speed>0.02</speed>
  <fix>3d</fix>
</trkpt>
<trkpt lat="40.0713749" lon="-105.229789">
  <ele>1583.0</ele>
  <time>2026-08-28T17:49:25Z</time>
  <course>0.0</course>
  <speed>0.0</speed>
  <fix>3d</fix>
</trkpt>
<trkpt lat="40.0713747" lon="-105.229789">
  <ele>1583.08</ele>
  <time>2026-08-28T17:49:26Z</time>
  <course>244.95</course>
  <speed>0.02</speed>
  <fix>3d</fix>
</trkpt>
<trkpt lat="40.0713749" lon="-105.229789">
  <ele>1583.0</ele>
  <time>2026-08-28T17:49:26Z</time>
  <course>0.0</course>
  <speed>0.0</speed>
  <fix>3d</fix>
</trkpt>
<trkpt lat="40.0713747" lon="-105.229789">
  <ele>1583.08</ele>
  <time>2026-08-28T17:49:26Z</time>
  <course>244.95</course>
  <speed>0.02</speed>
  <fix>3d</fix>
</trkpt>
<trkpt lat="40.0713749" lon="-105.229789">
  <ele>1583.0</ele>
  <time>2026-08-28T17:49:26Z</time>
  <course>0.0</course>
  <speed>0.0</speed>
  <fix>3d</fix>
</trkpt>
<trkpt lat="40.0713747" lon="-105.229789">
  <ele>1583.08</ele>
  <time>2026-08-28T17:49:26Z</time>
  <course>244.95</course>
  <speed>0.02</speed>
  <fix>3d</fix>
</trkpt>
<trkpt lat="40.0713749" lon="-105.229789">
  <ele>1583.0</ele>
  <time>2026-08-28T17:49:26Z</time>
  <course>0.0</course>
  <speed>0.0</speed>
  <fix>3d</fix>
</trkpt>
<trkpt lat="40.0713747" lon="-105.229789">
  <ele>1583.08</ele>
  <time>2026-08-28T17:49:26Z</time>
  <course>244.95</course>
  <speed>0.02</speed>
  <fix>3d</fix>
</trkpt>
<trkpt lat="40.0713749" lon="-105.229789">
  <ele>1583.0</ele>
  <time>2026-08-28T17:49:26Z</time>
  <course>0.0</course>
  <speed>0.0</speed>
  <fix>3d</fix>
</trkpt>
<trkpt lat="40.0713747" lon="-105.229789">
  <ele>1583.09</ele>
  <time>2026-08-28T17:49:26Z</time>
  <course>244.95</course>
  <speed>0.02</speed>
  <fix>3d</fix>
</trkpt>
<trkpt lat="40.0713749" lon="-105.229789">
  <ele>1583.0</ele>
  <time>2026-08-28T17:49:26Z</time>
  <course>0.0</course>
  <speed>0.0</speed>
  <fix>3d</fix>
</trkpt>
<trkpt lat="40.0713747" lon="-105.229789">
  <ele>1583.09</ele>
  <time>2026-08-28T17:49:26Z</time>
  <course>244.95</course>
  <speed>0.02</speed>
  <fix>3d</fix>
</trkpt>
<trkpt lat="40.0713749" lon="-105.229789">
  <ele>1583.0</ele>
  <time>2026-08-28T17:49:26Z</time>
  <course>0.0</course>
  <speed>0.0</speed>
  <fix>3d</fix>
</trkpt>
<trkpt lat="40.0713747" lon="-105.229789">
  <ele>1583.09</ele>
  <time>2026-08-28T17:49:26Z</time>
  <course>244.95</course>
  <speed>0.02</speed>
  <fix>3d</fix>
</trkpt>
<trkpt lat="40.0713749" lon="-105.229789">
  <ele>1583.0</ele>
  <time>2026-08-28T17:49:26Z</time>
  <course>0.0</course>
  <speed>0.0</speed>
  <fix>3d</fix>
</trkpt>
<trkpt lat="40.0713747" lon="-105.229789">
  <ele>1583.1</ele>
  <time>2026-08-28T17:49:26Z</time>
  <course>244.95</course>
  <speed>0.02</speed>
  <fix>3d</fix>
</trkpt>
<trkpt lat="40.0713749" lon="-105.229789">
  <ele>1583.0</ele>
  <time>2026-08-28T17:49:26Z</time>
  <course>0.0</course>
  <speed>0.0</speed>
  <fix>3d</fix>
</trkpt>
<trkpt lat="40.0713747" lon="-105.229789">
  <ele>1583.1</ele>
  <time>2026-08-28T17:49:26Z</time>
  <course>244.95</course>
  <speed>0.02</speed>
  <fix>3d</fix>
</trkpt>
<trkpt lat="40.0713749" lon="-105.229789">
  <ele>1583.0</ele>
  <time>2026-08-28T17:49:26Z</time>
  <course>0.0</course>
  <speed>0.0</speed>
  <fix>3d</fix>
</trkpt>
<trkpt lat="40.0713747" lon="-105.229789">
  <ele>1583.1</ele>
  <time>2026-08-28T17:49:26Z</time>
  <course>244.95</course>
  <speed>0.02</speed>
  <fix>3d</fix>
</trkpt>
<trkpt lat="40.0713749" lon="-105.229789">
  <ele>1583.0</ele>
  <time>2026-08-28T17:49:26Z</time>
  <course>0.0</course>
  <speed>0.0</speed>
  <fix>3d</fix>
</trkpt>
<trkpt lat="40.0713747" lon="-105.229789">
  <ele>1583.11</ele>
  <time>2026-08-28T17:49:26Z</time>
  <course>244.95</course>
  <speed>0.02</speed>
  <fix>3d</fix>
</trkpt>
<trkpt lat="40.0713749" lon="-105.229789">
  <ele>1583.0</ele>
  <time>2026-08-28T17:49:26Z</time>
  <course>0.0</course>
  <speed>0.0</speed>
  <fix>3d</fix>
</trkpt>
<trkpt lat="40.0713747" lon="-105.229789">
  <ele>1583.11</ele>
  <time>2026-08-28T17:49:26Z</time>
  <course>244.95</course>
  <speed>0.02</speed>
  <fix>3d</fix>
</trkpt>
<trkpt lat="40.0713749" lon="-105.229789">
  <ele>1583.0</ele>
  <time>2026-08-28T17:49:26Z</time>
  <course>0.0</course>
  <speed>0.0</speed>
  <fix>3d</fix>
</trkpt>
<trkpt lat="40.0713747" lon="-105.229789">
  <ele>1583.11</ele>
  <time>2026-08-28T17:49:26Z</time>
  <course>244.95</course>
  <speed>0.02</speed>
  <fix>3d</fix>
</trkpt>
<trkpt lat="40.0713749" lon="-105.229789">
  <ele>1583.0</ele>
  <time>2026-08-28T17:49:26Z</time>
  <course>0.0</course>
  <speed>0.0</speed>
  <fix>3d</fix>
</trkpt>
<trkpt lat="40.0713747" lon="-105.229789">
  <ele>1583.12</ele>
  <time>2026-08-28T17:49:26Z</time>
  <course>244.95</course>
  <speed>0.02</speed>
  <fix>3d</fix>
</trkpt>
<trkpt lat="40.0713749" lon="-105.229789">
  <ele>1583.0</ele>
  <time>2026-08-28T17:49:26Z</time>
  <course>0.0</course>
  <speed>0.0</speed>
  <fix>3d</fix>
</trkpt>
<trkpt lat="40.0713747" lon="-105.229789">
  <ele>1583.13</ele>
  <time>2026-08-28T17:49:26Z</time>
  <course>244.95</course>
  <speed>0.02</speed>
  <fix>3d</fix>
</trkpt>
<trkpt lat="40.0713749" lon="-105.229789">
  <ele>1583.0</ele>
  <time>2026-08-28T17:49:26Z</time>
  <course>0.0</course>
  <speed>0.0</speed>
  <fix>3d</fix>
</trkpt>
<trkpt lat="40.0713747" lon="-105.229789">
  <ele>1583.13</ele>
  <time>2026-08-28T17:49:26Z</time>
  <course>244.95</course>
  <speed>0.02</speed>
  <fix>3d</fix>
</trkpt>
<trkpt lat="40.0713749" lon="-105.229789">
  <ele>1583.0</ele>
  <time>2026-08-28T17:49:26Z</time>
  <course>0.0</course>
  <speed>0.0</speed>
  <fix>3d</fix>
</trkpt>
<trkpt lat="40.0713747" lon="-105.229789">
  <ele>1583.13</ele>
  <time>2026-08-28T17:49:26Z</time>
  <course>244.95</course>
  <speed>0.02</speed>
  <fix>3d</fix>
</trkpt>
<trkpt lat="40.0713749" lon="-105.229789">
  <ele>1583.0</ele>
  <time>2026-08-28T17:49:26Z</time>
  <course>0.0</course>
  <speed>0.0</speed>
  <fix>3d</fix>
</trkpt>
<trkpt lat="40.0713747" lon="-105.229789">
  <ele>1583.13</ele>
  <time>2026-08-28T17:49:26Z</time>
  <course>244.95</course>
  <speed>0.02</speed>
  <fix>3d</fix>
</trkpt>
<trkpt lat="40.0713749" lon="-105.229789">
  <ele>1583.0</ele>
  <time>2026-08-28T17:49:26Z</time>
  <course>0.0</course>
  <speed>0.0</speed>
  <fix>3d</fix>
</trkpt>
<trkpt lat="40.0713747" lon="-105.229789">
  <ele>1583.14</ele>
  <time>2026-08-28T17:49:26Z</time>
  <course>244.95</course>
  <speed>0.02</speed>
  <fix>3d</fix>
</trkpt>
<trkpt lat="40.0713749" lon="-105.229789">
  <ele>1583.0</ele>
  <time>2026-08-28T17:49:26Z</time>
  <course>0.0</course>
  <speed>0.0</speed>
  <fix>3d</fix>
</trkpt>
<trkpt lat="40.0713747" lon="-105.229789">
  <ele>1583.14</ele>
  <time>2026-08-28T17:49:26Z</time>
  <course>244.95</course>
  <speed>0.02</speed>
  <fix>3d</fix>
</trkpt>
<trkpt lat="40.0713749" lon="-105.229789">
  <ele>1583.0</ele>
  <time>2026-08-28T17:49:26Z</time>
  <course>0.0</course>
  <speed>0.0</speed>
  <fix>3d</fix>
</trkpt>
<trkpt lat="40.0713747" lon="-105.229789">
  <ele>1583.14</ele>
  <time>2026-08-28T17:49:26Z</time>
  <course>244.95</course>
  <speed>0.02</speed>
  <fix>3d</fix>
</trkpt>
<trkpt lat="40.0713749" lon="-105.229789">
  <ele>1583.0</ele>
  <time>2026-08-28T17:49:26Z</time>
  <course>0.0</course>
  <speed>0.0</speed>
  <fix>3d</fix>
</trkpt>
<trkpt lat="40.0713747" lon="-105.229789">
  <ele>1583.14</ele>
  <time>2026-08-28T17:49:26Z</time>
  <course>244.95</course>
  <speed>0.02</speed>
  <fix>3d</fix>
</trkpt>
<trkpt lat="40.0713749" lon="-105.229789">
  <ele>1583.0</ele>
  <time>2026-08-28T17:49:26Z</time>
  <course>0.0</course>
  <speed>0.0</speed>
  <fix>3d</fix>
</trkpt>
<trkpt lat="40.0713747" lon="-105.229789">
  <ele>1583.14</ele>
  <time>2026-08-28T17:49:26Z</time>
  <course>244.95</course>
  <speed>0.02</speed>
  <fix>3d</fix>
</trkpt>
<trkpt lat="40.0713749" lon="-105.229789">
  <ele>1583.0</ele>
  <time>2026-08-28T17:49:26Z</time>
  <course>0.0</course>
  <speed>0.0</speed>
  <fix>3d</fix>
</trkpt>
<trkpt lat="40.0713747" lon="-105.229789">
  <ele>1583.15</ele>
  <time>2026-08-28T17:49:26Z</time>
  <course>244.95</course>
  <speed>0.02</speed>
  <fix>3d</fix>
</trkpt>
<trkpt lat="40.0713749" lon="-105.229789">
  <ele>1583.0</ele>
  <time>2026-08-28T17:49:26Z</time>
  <course>0.0</course>
  <speed>0.0</speed>
  <fix>3d</fix>
</trkpt>
<trkpt lat="40.0713747" lon="-105.229789">
  <ele>1583.15</ele>
  <time>2026-08-28T17:49:26Z</time>
  <course>244.95</course>
  <speed>0.02</speed>
  <fix>3d</fix>
</trkpt>
<trkpt lat="40.0713749" lon="-105.229789">
  <ele>1583.0</ele>
  <time>2026-08-28T17:49:26Z</time>
  <course>0.0</course>
  <speed>0.0</speed>
  <fix>3d</fix>
</trkpt>
<trkpt lat="40.0713747" lon="-105.229789">
  <ele>1583.15</ele>
  <time>2026-08-28T17:49:26Z</time>
  <course>244.95</course>
  <speed>0.02</speed>
  <fix>3d</fix>
</trkpt>
<trkpt lat="40.0713749" lon="-105.229789">
  <ele>1583.0</ele>
  <time>2026-08-28T17:49:26Z</time>
  <course>0.0</course>
  <speed>0.0</speed>
  <fix>3d</fix>
</trkpt>
<trkpt lat="40.0713747" lon="-105.229789">
  <ele>1583.15</ele>
  <time>2026-08-28T17:49:26Z</time>
  <course>244.95</course>
  <speed>0.02</speed>
  <fix>3d</fix>
</trkpt>
<trkpt lat="40.0713749" lon="-105.229789">
  <ele>1583.0</ele>
  <time>2026-08-28T17:49:26Z</time>
  <course>0.0</course>
  <speed>0.0</speed>
  <fix>3d</fix>
</trkpt>
<trkpt lat="40.0713747" lon="-105.229789">
  <ele>1583.15</ele>
  <time>2026-08-28T17:49:26Z</time>
  <course>244.95</course>
  <speed>0.02</speed>
  <fix>3d</fix>
</trkpt>
<trkpt lat="40.0713749" lon="-105.229789">
  <ele>1583.0</ele>
  <time>2026-08-28T17:49:26Z</time>
  <course>0.0</course>
  <speed>0.0</speed>
  <fix>3d</fix>
</trkpt>
<trkpt lat="40.0713747" lon="-105.229789">
  <ele>1583.15</ele>
  <time>2026-08-28T17:49:26Z</time>
  <course>244.95</course>
  <speed>0.02</speed>
  <fix>3d</fix>
</trkpt>
<trkpt lat="40.0713749" lon="-105.229789">
  <ele>1583.0</ele>
  <time>2026-08-28T17:49:26Z</time>
  <course>0.0</course>
  <speed>0.0</speed>
  <fix>3d</fix>
</trkpt>
<trkpt lat="40.0713747" lon="-105.229789">
  <ele>1583.15</ele>
  <time>2026-08-28T17:49:26Z</time>
  <course>244.95</course>
  <speed>0.02</speed>
  <fix>3d</fix>
</trkpt>
<trkpt lat="40.0713749" lon="-105.229789">
  <ele>1583.0</ele>
  <time>2026-08-28T17:49:26Z</time>
  <course>0.0</course>
  <speed>0.0</speed>
  <fix>3d</fix>
</trkpt>
<trkpt lat="40.0713747" lon="-105.229789">
  <ele>1583.15</ele>
  <time>2026-08-28T17:49:26Z</time>
  <course>244.95</course>
  <speed>0.02</speed>
  <fix>3d</fix>
</trkpt>
<trkpt lat="40.0713749" lon="-105.229789">
  <ele>1583.0</ele>
  <time>2026-08-28T17:49:26Z</time>
  <course>0.0</course>
  <speed>0.0</speed>
  <fix>3d</fix>
</trkpt>
<trkpt lat="40.0713747" lon="-105.229789">
  <ele>1583.15</ele>
  <time>2026-08-28T17:49:26Z</time>
  <course>244.95</course>
  <speed>0.02</speed>
  <fix>3d</fix>
</trkpt>
<trkpt lat="40.0713749" lon="-105.229789">
  <ele>1583.0</ele>
  <time>2026-08-28T17:49:26Z</time>
  <course>0.0</course>
  <speed>0.0</speed>
  <fix>3d</fix>
</trkpt>
<trkpt lat="40.0713747" lon="-105.229789">
  <ele>1583.14</ele>
  <time>2026-08-28T17:49:26Z</time>
  <course>244.95</course>
  <speed>0.02</speed>
  <fix>3d</fix>
</trkpt>
<trkpt lat="40.0713749" lon="-105.229789">
  <ele>1583.0</ele>
  <time>2026-08-28T17:49:26Z</time>
  <course>0.0</course>
  <speed>0.0</speed>
  <fix>3d</fix>
</trkpt>
<trkpt lat="40.0713747" lon="-105.229789">
  <ele>1583.14</ele>
  <time>2026-08-28T17:49:26Z</time>
  <course>244.95</course>
  <speed>0.02</speed>
  <fix>3d</fix>
</trkpt>
<trkpt lat="40.0713749" lon="-105.229789">
  <ele>1583.0</ele>
  <time>2026-08-28T17:49:26Z</time>
  <course>0.0</course>
  <speed>0.0</speed>
  <fix>3d</fix>
</trkpt>
<trkpt lat="40.0713747" lon="-105.229789">
  <ele>1583.14</ele>
  <time>2026-08-28T17:49:26Z</time>
  <course>244.95</course>
  <speed>0.02</speed>
  <fix>3d</fix>
</trkpt>
<trkpt lat="40.0713749" lon="-105.229789">
  <ele>1583.0</ele>
  <time>2026-08-28T17:49:26Z</time>
  <course>0.0</course>
  <speed>0.0</speed>
  <fix>3d</fix>
</trkpt>
<trkpt lat="40.0713747" lon="-105.229789">
  <ele>1583.14</ele>
  <time>2026-08-28T17:49:26Z</time>
  <course>244.95</course>
  <speed>0.02</speed>
  <fix>3d</fix>
</trkpt>
<trkpt lat="40.0713749" lon="-105.229789">
  <ele>1583.0</ele>
  <time>2026-08-28T17:49:26Z</time>
  <course>0.0</course>
  <speed>0.0</speed>
  <fix>3d</fix>
</trkpt>
<trkpt lat="40.0713747" lon="-105.229789">
  <ele>1583.14</ele>
  <time>2026-08-28T17:49:26Z</time>
  <course>244.95</course>
  <speed>0.02</speed>
  <fix>3d</fix>
</trkpt>
<trkpt lat="40.0713749" lon="-105.229789">
  <ele>1583.0</ele>
  <time>2026-08-28T17:49:26Z</time>
  <course>0.0</course>
  <speed>0.0</speed>
  <fix>3d</fix>
</trkpt>
<trkpt lat="40.0713747" lon="-105.229789">
  <ele>1583.14</ele>
  <time>2026-08-28T17:49:26Z</time>
  <course>244.95</course>
  <speed>0.02</speed>
  <fix>3d</fix>
</trkpt>
<trkpt lat="40.0713749" lon="-105.229789">
  <ele>1583.0</ele>
  <time>2026-08-28T17:49:26Z</time>
  <course>0.0</course>
  <speed>0.0</speed>
  <fix>3d</fix>
</trkpt>
<trkpt lat="40.0713747" lon="-105.229789">
  <ele>1583.13</ele>
  <time>2026-08-28T17:49:26Z</time>
  <course>244.95</course>
  <speed>0.02</speed>
  <fix>3d</fix>
</trkpt>
<trkpt lat="40.0713749" lon="-105.229789">
  <ele>1583.0</ele>
  <time>2026-08-28T17:49:26Z</time>
  <course>0.0</course>
  <speed>0.0</speed>
  <fix>3d</fix>
</trkpt>
<trkpt lat="40.0713747" lon="-105.229789">
  <ele>1583.13</ele>
  <time>2026-08-28T17:49:26Z</time>
  <course>244.95</course>
  <speed>0.02</speed>
  <fix>3d</fix>
</trkpt>
<trkpt lat="40.0713749" lon="-105.229789">
  <ele>1583.0</ele>
  <time>2026-08-28T17:49:26Z</time>
  <course>0.0</course>
  <speed>0.0</speed>
  <fix>3d</fix>
</trkpt>
<trkpt lat="40.0713747" lon="-105.229789">
  <ele>1583.13</ele>
  <time>2026-08-28T17:49:26Z</time>
  <course>244.95</course>
  <speed>0.02</speed>
  <fix>3d</fix>
</trkpt>
<trkpt lat="40.0713749" lon="-105.229789">
  <ele>1583.0</ele>
  <time>2026-08-28T17:49:26Z</time>
  <course>0.0</course>
  <speed>0.0</speed>
  <fix>3d</fix>
</trkpt>
<trkpt lat="40.0713747" lon="-105.229789">
  <ele>1583.13</ele>
  <time>2026-08-28T17:49:26Z</time>
  <course>244.94</course>
  <speed>0.02</speed>
  <fix>3d</fix>
</trkpt>
<trkpt lat="40.0713749" lon="-105.229789">
  <ele>1583.0</ele>
  <time>2026-08-28T17:49:26Z</time>
  <course>0.0</course>
  <speed>0.0</speed>
  <fix>3d</fix>
</trkpt>
<trkpt lat="40.0713747" lon="-105.229789">
  <ele>1583.13</ele>
  <time>2026-08-28T17:49:26Z</time>
  <course>244.94</course>
  <speed>0.02</speed>
  <fix>3d</fix>
</trkpt>
<trkpt lat="40.0713749" lon="-105.229789">
  <ele>1583.0</ele>
  <time>2026-08-28T17:49:26Z</time>
  <course>0.0</course>
  <speed>0.0</speed>
  <fix>3d</fix>
</trkpt>
<trkpt lat="40.0713747" lon="-105.229789">
  <ele>1583.14</ele>
  <time>2026-08-28T17:49:26Z</time>
  <course>244.94</course>
  <speed>0.02</speed>
  <fix>3d</fix>
</trkpt>
<trkpt lat="40.0713749" lon="-105.229789">
  <ele>1583.0</ele>
  <time>2026-08-28T17:49:26Z</time>
  <course>0.0</course>
  <speed>0.0</speed>
  <fix>3d</fix>
</trkpt>
<trkpt lat="40.0713747" lon="-105.229789">
  <ele>1583.14</ele>
  <time>2026-08-28T17:49:26Z</time>
  <course>244.94</course>
  <speed>0.02</speed>
  <fix>3d</fix>
</trkpt>
<trkpt lat="40.0713749" lon="-105.229789">
  <ele>1583.0</ele>
  <time>2026-08-28T17:49:26Z</time>
  <course>0.0</course>
  <speed>0.0</speed>
  <fix>3d</fix>
</trkpt>
<trkpt lat="40.0713747" lon="-105.229789">
  <ele>1583.14</ele>
  <time>2026-08-28T17:49:26Z</time>
  <course>244.94</course>
  <speed>0.02</speed>
  <fix>3d</fix>
</trkpt>
<trkpt lat="40.0713749" lon="-105.229789">
  <ele>1583.0</ele>
  <time>2026-08-28T17:49:26Z</time>
  <course>0.0</course>
  <speed>0.0</speed>
  <fix>3d</fix>
</trkpt>
<trkpt lat="40.0713747" lon="-105.229789">
  <ele>1583.14</ele>
  <time>2026-08-28T17:49:26Z</time>
  <course>244.94</course>
  <speed>0.02</speed>
  <fix>3d</fix>
</trkpt>
<trkpt lat="40.0713749" lon="-105.229789">
  <ele>1583.0</ele>
  <time>2026-08-28T17:49:26Z</time>
  <course>0.0</course>
  <speed>0.0</speed>
  <fix>3d</fix>
</trkpt>
<trkpt lat="40.0713747" lon="-105.229789">
  <ele>1583.14</ele>
  <time>2026-08-28T17:49:26Z</time>
  <course>244.94</course>
  <speed>0.02</speed>
  <fix>3d</fix>
</trkpt>
<trkpt lat="40.0713749" lon="-105.229789">
  <ele>1583.0</ele>
  <time>2026-08-28T17:49:26Z</time>
  <course>0.0</course>
  <speed>0.0</speed>
  <fix>3d</fix>
</trkpt>
<trkpt lat="40.0713747" lon="-105.229789">
  <ele>1583.14</ele>
  <time>2026-08-28T17:49:26Z</time>
  <course>244.94</course>
  <speed>0.02</speed>
  <fix>3d</fix>
</trkpt>
<trkpt lat="40.0713749" lon="-105.229789">
  <ele>1583.0</ele>
  <time>2026-08-28T17:49:26Z</time>
  <course>0.0</course>
  <speed>0.0</speed>
  <fix>3d</fix>
</trkpt>
<trkpt lat="40.0713747" lon="-105.229789">
  <ele>1583.14</ele>
  <time>2026-08-28T17:49:26Z</time>
  <course>244.94</course>
  <speed>0.02</speed>
  <fix>3d</fix>
</trkpt>
<trkpt lat="40.0713749" lon="-105.229789">
  <ele>1583.0</ele>
  <time>2026-08-28T17:49:26Z</time>
  <course>0.0</course>
  <speed>0.0</speed>
  <fix>3d</fix>
</trkpt>
<trkpt lat="40.0713747" lon="-105.229789">
  <ele>1583.14</ele>
  <time>2026-08-28T17:49:26Z</time>
  <course>244.94</course>
  <speed>0.02</speed>
  <fix>3d</fix>
</trkpt>
<trkpt lat="40.0713749" lon="-105.229789">
  <ele>1583.0</ele>
  <time>2026-08-28T17:49:26Z</time>
  <course>0.0</course>
  <speed>0.0</speed>
  <fix>3d</fix>
</trkpt>
<trkpt lat="40.0713747" lon="-105.229789">
  <ele>1583.14</ele>
  <time>2026-08-28T17:49:26Z</time>
  <course>244.94</course>
  <speed>0.02</speed>
  <fix>3d</fix>
</trkpt>
<trkpt lat="40.0713749" lon="-105.229789">
  <ele>1583.0</ele>
  <time>2026-08-28T17:49:26Z</time>
  <course>0.0</course>
  <speed>0.0</speed>
  <fix>3d</fix>
</trkpt>
<trkpt lat="40.0713747" lon="-105.229789">
  <ele>1583.15</ele>
  <time>2026-08-28T17:49:26Z</time>
  <course>244.94</course>
  <speed>0.02</speed>
  <fix>3d</fix>
</trkpt>
<trkpt lat="40.0713749" lon="-105.229789">
  <ele>1583.0</ele>
  <time>2026-08-28T17:49:26Z</time>
  <course>0.0</course>
  <speed>0.0</speed>
  <fix>3d</fix>
</trkpt>
<trkpt lat="40.0713747" lon="-105.229789">
  <ele>1583.15</ele>
  <time>2026-08-28T17:49:26Z</time>
  <course>244.94</course>
  <speed>0.02</speed>
  <fix>3d</fix>
</trkpt>
<trkpt lat="40.0713749" lon="-105.229789">
  <ele>1583.0</ele>
  <time>2026-08-28T17:49:26Z</time>
  <course>0.0</course>
  <speed>0.0</speed>
  <fix>3d</fix>
</trkpt>
<trkpt lat="40.0713747" lon="-105.229789">
  <ele>1583.14</ele>
  <time>2026-08-28T17:49:26Z</time>
  <course>244.94</course>
  <speed>0.02</speed>
  <fix>3d</fix>
</trkpt>
<trkpt lat="40.0713749" lon="-105.229789">
  <ele>1583.0</ele>
  <time>2026-08-28T17:49:26Z</time>
  <course>0.0</course>
  <speed>0.0</speed>
  <fix>3d</fix>
</trkpt>
<trkpt lat="40.0713747" lon="-105.229789">
  <ele>1583.14</ele>
  <time>2026-08-28T17:49:26Z</time>
  <course>244.94</course>
  <speed>0.02</speed>
  <fix>3d</fix>
</trkpt>
<trkpt lat="40.0713749" lon="-105.229789">
  <ele>1583.0</ele>
  <time>2026-08-28T17:49:26Z</time>
  <course>0.0</course>
  <speed>0.0</speed>
  <fix>3d</fix>
</trkpt>
<trkpt lat="40.0713747" lon="-105.229789">
  <ele>1583.14</ele>
  <time>2026-08-28T17:49:26Z</time>
  <course>244.94</course>
  <speed>0.02</speed>
  <fix>3d</fix>
</trkpt>
<trkpt lat="40.0713749" lon="-105.229789">
  <ele>1583.0</ele>
  <time>2026-08-28T17:49:26Z</time>
  <course>0.0</course>
  <speed>0.0</speed>
  <fix>3d</fix>
</trkpt>
<trkpt lat="40.0713747" lon="-105.229789">
  <ele>1583.13</ele>
  <time>2026-08-28T17:49:26Z</time>
  <course>244.94</course>
  <speed>0.02</speed>
  <fix>3d</fix>
</trkpt>
<trkpt lat="40.0713749" lon="-105.229789">
  <ele>1583.0</ele>
  <time>2026-08-28T17:49:26Z</time>
  <course>0.0</course>
  <speed>0.0</speed>
  <fix>3d</fix>
</trkpt>
<trkpt lat="40.0713747" lon="-105.229789">
  <ele>1583.13</ele>
  <time>2026-08-28T17:49:26Z</time>
  <course>244.94</course>
  <speed>0.02</speed>
  <fix>3d</fix>
</trkpt>
<trkpt lat="40.0713749" lon="-105.229789">
  <ele>1583.0</ele>
  <time>2026-08-28T17:49:26Z</time>
  <course>0.0</course>
  <speed>0.0</speed>
  <fix>3d</fix>
</trkpt>
<trkpt lat="40.0713747" lon="-105.229789">
  <ele>1583.12</ele>
  <time>2026-08-28T17:49:26Z</time>
  <course>244.94</course>
  <speed>0.02</speed>
  <fix>3d</fix>
</trkpt>
<trkpt lat="40.0713749" lon="-105.229789">
  <ele>1583.0</ele>
  <time>2026-08-28T17:49:26Z</time>
  <course>0.0</course>
  <speed>0.0</speed>
  <fix>3d</fix>
</trkpt>
<trkpt lat="40.0713747" lon="-105.229789">
  <ele>1583.12</ele>
  <time>2026-08-28T17:49:26Z</time>
  <course>244.94</course>
  <speed>0.02</speed>
  <fix>3d</fix>
</trkpt>
<trkpt lat="40.0713749" lon="-105.229789">
  <ele>1583.0</ele>
  <time>2026-08-28T17:49:26Z</time>
  <course>0.0</course>
  <speed>0.0</speed>
  <fix>3d</fix>
</trkpt>
<trkpt lat="40.0713747" lon="-105.229789">
  <ele>1583.12</ele>
  <time>2026-08-28T17:49:26Z</time>
  <course>244.94</course>
  <speed>0.02</speed>
  <fix>3d</fix>
</trkpt>
<trkpt lat="40.0713749" lon="-105.229789">
  <ele>1583.0</ele>
  <time>2026-08-28T17:49:26Z</time>
  <course>0.0</course>
  <speed>0.0</speed>
  <fix>3d</fix>
</trkpt>
<trkpt lat="40.0713747" lon="-105.229789">
  <ele>1583.11</ele>
  <time>2026-08-28T17:49:26Z</time>
  <course>244.94</course>
  <speed>0.02</speed>
  <fix>3d</fix>
</trkpt>
<trkpt lat="40.0713749" lon="-105.229789">
  <ele>1583.0</ele>
  <time>2026-08-28T17:49:26Z</time>
  <course>0.0</course>
  <speed>0.0</speed>
  <fix>3d</fix>
</trkpt>
<trkpt lat="40.0713747" lon="-105.229789">
  <ele>1583.11</ele>
  <time>2026-08-28T17:49:26Z</time>
  <course>244.94</course>
  <speed>0.02</speed>
  <fix>3d</fix>
</trkpt>
<trkpt lat="40.0713749" lon="-105.229789">
  <ele>1583.0</ele>
  <time>2026-08-28T17:49:26Z</time>
  <course>0.0</course>
  <speed>0.0</speed>
  <fix>3d</fix>
</trkpt>
<trkpt lat="40.0713747" lon="-105.229789">
  <ele>1583.11</ele>
  <time>2026-08-28T17:49:26Z</time>
  <course>244.94</course>
  <speed>0.02</speed>
  <fix>3d</fix>
</trkpt>
<trkpt lat="40.0713749" lon="-105.229789">
  <ele>1583.0</ele>
  <time>2026-08-28T17:49:26Z</time>
  <course>0.0</course>
  <speed>0.0</speed>
  <fix>3d</fix>
</trkpt>
<trkpt lat="40.0713747" lon="-105.229789">
  <ele>1583.1</ele>
  <time>2026-08-28T17:49:26Z</time>
  <course>244.94</course>
  <speed>0.02</speed>
  <fix>3d</fix>
</trkpt>
<trkpt lat="40.0713749" lon="-105.229789">
  <ele>1583.0</ele>
  <time>2026-08-28T17:49:26Z</time>
  <course>0.0</course>
  <speed>0.0</speed>
  <fix>3d</fix>
</trkpt>
<trkpt lat="40.0713747" lon="-105.229789">
  <ele>1583.1</ele>
  <time>2026-08-28T17:49:26Z</time>
  <course>244.94</course>
  <speed>0.02</speed>
  <fix>3d</fix>
</trkpt>
<trkpt lat="40.0713749" lon="-105.229789">
  <ele>1583.0</ele>
  <time>2026-08-28T17:49:26Z</time>
  <course>0.0</course>
  <speed>0.0</speed>
  <fix>3d</fix>
</trkpt>
<trkpt lat="40.0713747" lon="-105.229789">
  <ele>1583.09</ele>
  <time>2026-08-28T17:49:26Z</time>
  <course>244.94</course>
  <speed>0.02</speed>
  <fix>3d</fix>
</trkpt>
<trkpt lat="40.0713749" lon="-105.229789">
  <ele>1583.0</ele>
  <time>2026-08-28T17:49:26Z</time>
  <course>0.0</course>
  <speed>0.0</speed>
  <fix>3d</fix>
</trkpt>
<trkpt lat="40.0713747" lon="-105.229789">
  <ele>1583.09</ele>
  <time>2026-08-28T17:49:26Z</time>
  <course>244.94</course>
  <speed>0.02</speed>
  <fix>3d</fix>
</trkpt>
<trkpt lat="40.0713749" lon="-105.229789">
  <ele>1583.0</ele>
  <time>2026-08-28T17:49:26Z</time>
  <course>0.0</course>
  <speed>0.0</speed>
  <fix>3d</fix>
</trkpt>
<trkpt lat="40.0713747" lon="-105.229789">
  <ele>1583.09</ele>
  <time>2026-08-28T17:49:26Z</time>
  <course>244.94</course>
  <speed>0.02</speed>
  <fix>3d</fix>
</trkpt>
<trkpt lat="40.0713749" lon="-105.229789">
  <ele>1583.0</ele>
  <time>2026-08-28T17:49:26Z</time>
  <course>0.0</course>
  <speed>0.0</speed>
  <fix>3d</fix>
</trkpt>
<trkpt lat="40.0713747" lon="-105.229789">
  <ele>1583.09</ele>
  <time>2026-08-28T17:49:26Z</time>
  <course>244.94</course>
  <speed>0.02</speed>
  <fix>3d</fix>
</trkpt>
<trkpt lat="40.0713749" lon="-105.229789">
  <ele>1583.0</ele>
  <time>2026-08-28T17:49:26Z</time>
  <course>0.0</course>
  <speed>0.0</speed>
  <fix>3d</fix>
</trkpt>
<trkpt lat="40.0713747" lon="-105.229789">
  <ele>1583.09</ele>
  <time>2026-08-28T17:49:26Z</time>
  <course>244.94</course>
  <speed>0.02</speed>
  <fix>3d</fix>
</trkpt>
<trkpt lat="40.0713749" lon="-105.229789">
  <ele>1583.0</ele>
  <time>2026-08-28T17:49:26Z</time>
  <course>0.0</course>
  <speed>0.0</speed>
  <fix>3d</fix>
</trkpt>
<trkpt lat="40.0713747" lon="-105.229789">
  <ele>1583.09</ele>
  <time>2026-08-28T17:49:26Z</time>
  <course>244.94</course>
  <speed>0.02</speed>
  <fix>3d</fix>
</trkpt>
<trkpt lat="40.0713749" lon="-105.229789">
  <ele>1583.0</ele>
  <time>2026-08-28T17:49:26Z</time>
  <course>0.0</course>
  <speed>0.0</speed>
  <fix>3d</fix>
</trkpt>
<trkpt lat="40.0713747" lon="-105.229789">
  <ele>1583.09</ele>
  <time>2026-08-28T17:49:26Z</time>
  <course>244.94</course>
  <speed>0.02</speed>
  <fix>3d</fix>
</trkpt>
<trkpt lat="40.0713749" lon="-105.229789">
  <ele>1583.0</ele>
  <time>2026-08-28T17:49:26Z</time>
  <course>0.0</course>
  <speed>0.0</speed>
  <fix>3d</fix>
</trkpt>
<trkpt lat="40.0713747" lon="-105.229789">
  <ele>1583.09</ele>
  <time>2026-08-28T17:49:26Z</time>
  <course>244.94</course>
  <speed>0.02</speed>
  <fix>3d</fix>
</trkpt>
<trkpt lat="40.0713749" lon="-105.229789">
  <ele>1583.0</ele>
  <time>2026-08-28T17:49:26Z</time>
  <course>0.0</course>
  <speed>0.0</speed>
  <fix>3d</fix>
</trkpt>
<trkpt lat="40.0713747" lon="-105.229789">
  <ele>1583.09</ele>
  <time>2026-08-28T17:49:26Z</time>
  <course>244.94</course>
  <speed>0.02</speed>
  <fix>3d</fix>
</trkpt>
<trkpt lat="40.0713749" lon="-105.229789">
  <ele>1583.0</ele>
  <time>2026-08-28T17:49:26Z</time>
  <course>0.0</course>
  <speed>0.0</speed>
  <fix>3d</fix>
</trkpt>
<trkpt lat="40.0713747" lon="-105.229789">
  <ele>1583.09</ele>
  <time>2026-08-28T17:49:26Z</time>
  <course>244.94</course>
  <speed>0.02</speed>
  <fix>3d</fix>
</trkpt>
<trkpt lat="40.0713749" lon="-105.229789">
  <ele>1583.0</ele>
  <time>2026-08-28T17:49:26Z</time>
  <course>0.0</course>
  <speed>0.0</speed>
  <fix>3d</fix>
</trkpt>
<trkpt lat="40.0713747" lon="-105.229789">
  <ele>1583.09</ele>
  <time>2026-08-28T17:49:26Z</time>
  <course>244.94</course>
  <speed>0.02</speed>
  <fix>3d</fix>
</trkpt>
<trkpt lat="40.0713749" lon="-105.229789">
  <ele>1583.0</ele>
  <time>2026-08-28T17:49:26Z</time>
  <course>0.0</course>
  <speed>0.0</speed>
  <fix>3d</fix>
</trkpt>
<trkpt lat="40.0713747" lon="-105.229789">
  <ele>1583.09</ele>
  <time>2026-08-28T17:49:26Z</time>
  <course>244.94</course>
  <speed>0.02</speed>
  <fix>3d</fix>
</trkpt>
<trkpt lat="40.0713749" lon="-105.229789">
  <ele>1583.0</ele>
  <time>2026-08-28T17:49:26Z</time>
  <course>0.0</course>
  <speed>0.0</speed>
  <fix>3d</fix>
</trkpt>
<trkpt lat="40.0713747" lon="-105.229789">
  <ele>1583.08</ele>
  <time>2026-08-28T17:49:26Z</time>
  <course>244.94</course>
  <speed>0.02</speed>
  <fix>3d</fix>
</trkpt>
<trkpt lat="40.0713749" lon="-105.229789">
  <ele>1583.0</ele>
  <time>2026-08-28T17:49:26Z</time>
  <course>0.0</course>
  <speed>0.0</speed>
  <fix>3d</fix>
</trkpt>
<trkpt lat="40.0713747" lon="-105.229789">
  <ele>1583.08</ele>
  <time>2026-08-28T17:49:26Z</time>
  <course>244.94</course>
  <speed>0.02</speed>
  <fix>3d</fix>
</trkpt>
<trkpt lat="40.0713749" lon="-105.229789">
  <ele>1583.0</ele>
  <time>2026-08-28T17:49:26Z</time>
  <course>0.0</course>
  <speed>0.0</speed>
  <fix>3d</fix>
</trkpt>
<trkpt lat="40.0713747" lon="-105.229789">
  <ele>1583.07</ele>
  <time>2026-08-28T17:49:26Z</time>
  <course>244.94</course>
  <speed>0.02</speed>
  <fix>3d</fix>
</trkpt>
<trkpt lat="40.0713749" lon="-105.229789">
  <ele>1583.0</ele>
  <time>2026-08-28T17:49:26Z</time>
  <course>0.0</course>
  <speed>0.0</speed>
  <fix>3d</fix>
</trkpt>
<trkpt lat="40.0713747" lon="-105.229789">
  <ele>1583.07</ele>
  <time>2026-08-28T17:49:26Z</time>
  <course>244.94</course>
  <speed>0.02</speed>
  <fix>3d</fix>
</trkpt>
<trkpt lat="40.0713749" lon="-105.229789">
  <ele>1583.0</ele>
  <time>2026-08-28T17:49:26Z</time>
  <course>0.0</course>
  <speed>0.0</speed>
  <fix>3d</fix>
</trkpt>
<trkpt lat="40.0713747" lon="-105.229789">
  <ele>1583.07</ele>
  <time>2026-08-28T17:49:26Z</time>
  <course>244.94</course>
  <speed>0.02</speed>
  <fix>3d</fix>
</trkpt>
<trkpt lat="40.0713749" lon="-105.229789">
  <ele>1583.0</ele>
  <time>2026-08-28T17:49:26Z</time>
  <course>0.0</course>
  <speed>0.0</speed>
  <fix>3d</fix>
</trkpt>
<trkpt lat="40.0713747" lon="-105.229789">
  <ele>1583.06</ele>
  <time>2026-08-28T17:49:26Z</time>
  <course>244.94</course>
  <speed>0.02</speed>
  <fix>3d</fix>
</trkpt>
<trkpt lat="40.0713749" lon="-105.229789">
  <ele>1583.0</ele>
  <time>2026-08-28T17:49:26Z</time>
  <course>0.0</course>
  <speed>0.0</speed>
  <fix>3d</fix>
</trkpt>
<trkpt lat="40.0713747" lon="-105.229789">
  <ele>1583.06</ele>
  <time>2026-08-28T17:49:26Z</time>
  <course>244.94</course>
  <speed>0.02</speed>
  <fix>3d</fix>
</trkpt>
<trkpt lat="40.0713749" lon="-105.229789">
  <ele>1583.0</ele>
  <time>2026-08-28T17:49:26Z</time>
  <course>0.0</course>
  <speed>0.0</speed>
  <fix>3d</fix>
</trkpt>
<trkpt lat="40.0713747" lon="-105.229789">
  <ele>1583.06</ele>
  <time>2026-08-28T17:49:26Z</time>
  <course>244.94</course>
  <speed>0.02</speed>
  <fix>3d</fix>
</trkpt>
<trkpt lat="40.0713749" lon="-105.229789">
  <ele>1583.0</ele>
  <time>2026-08-28T17:49:26Z</time>
  <course>0.0</course>
  <speed>0.0</speed>
  <fix>3d</fix>
</trkpt>
<trkpt lat="40.0713747" lon="-105.229789">
  <ele>1583.06</ele>
  <time>2026-08-28T17:49:26Z</time>
  <course>244.94</course>
  <speed>0.02</speed>
  <fix>3d</fix>
</trkpt>
<trkpt lat="40.0713749" lon="-105.229789">
  <ele>1583.0</ele>
  <time>2026-08-28T17:49:26Z</time>
  <course>0.0</course>
  <speed>0.0</speed>
  <fix>3d</fix>
</trkpt>
<trkpt lat="40.0713747" lon="-105.229789">
  <ele>1583.05</ele>
  <time>2026-08-28T17:49:26Z</time>
  <course>244.94</course>
  <speed>0.02</speed>
  <fix>3d</fix>
</trkpt>
<trkpt lat="40.0713749" lon="-105.229789">
  <ele>1583.0</ele>
  <time>2026-08-28T17:49:26Z</time>
  <course>0.0</course>
  <speed>0.0</speed>
  <fix>3d</fix>
</trkpt>
<trkpt lat="40.0713747" lon="-105.229789">
  <ele>1583.05</ele>
  <time>2026-08-28T17:49:26Z</time>
  <course>244.94</course>
  <speed>0.02</speed>
  <fix>3d</fix>
</trkpt>
<trkpt lat="40.0713749" lon="-105.229789">
  <ele>1583.0</ele>
  <time>2026-08-28T17:49:26Z</time>
  <course>0.0</course>
  <speed>0.0</speed>
  <fix>3d</fix>
</trkpt>
<trkpt lat="40.0713747" lon="-105.229789">
  <ele>1583.04</ele>
  <time>2026-08-28T17:49:26Z</time>
  <course>244.94</course>
  <speed>0.02</speed>
  <fix>3d</fix>
</trkpt>
<trkpt lat="40.0713749" lon="-105.229789">
  <ele>1583.0</ele>
  <time>2026-08-28T17:49:26Z</time>
  <course>0.0</course>
  <speed>0.0</speed>
  <fix>3d</fix>
</trkpt>
<trkpt lat="40.0713747" lon="-105.229789">
  <ele>1583.03</ele>
  <time>2026-08-28T17:49:26Z</time>
  <course>244.94</course>
  <speed>0.02</speed>
  <fix>3d</fix>
</trkpt>
<trkpt lat="40.0713749" lon="-105.229789">
  <ele>1583.0</ele>
  <time>2026-08-28T17:49:26Z</time>
  <course>0.0</course>
  <speed>0.0</speed>
  <fix>3d</fix>
</trkpt>
<trkpt lat="40.0713747" lon="-105.229789">
  <ele>1583.02</ele>
  <time>2026-08-28T17:49:26Z</time>
  <course>244.94</course>
  <speed>0.02</speed>
  <fix>3d</fix>
</trkpt>
<trkpt lat="40.0713749" lon="-105.229789">
  <ele>1583.0</ele>
  <time>2026-08-28T17:49:26Z</time>
  <course>0.0</course>
  <speed>0.0</speed>
  <fix>3d</fix>
</trkpt>
<trkpt lat="40.0713747" lon="-105.229789">
  <ele>1583.01</ele>
  <time>2026-08-28T17:49:26Z</time>
  <course>244.94</course>
  <speed>0.02</speed>
  <fix>3d</fix>
</trkpt>
<trkpt lat="40.0713749" lon="-105.229789">
  <ele>1583.0</ele>
  <time>2026-08-28T17:49:26Z</time>
  <course>0.0</course>
  <speed>0.0</speed>
  <fix>3d</fix>
</trkpt>
<trkpt lat="40.0713747" lon="-105.229789">
  <ele>1583.0</ele>
  <time>2026-08-28T17:49:26Z</time>
  <course>244.94</course>
  <speed>0.02</speed>
  <fix>3d</fix>
</trkpt>
<trkpt lat="40.0713749" lon="-105.229789">
  <ele>1583.0</ele>
  <time>2026-08-28T17:49:26Z</time>
  <course>0.0</course>
  <speed>0.0</speed>
  <fix>3d</fix>
</trkpt>
<trkpt lat="40.0713747" lon="-105.229789">
  <ele>1582.99</ele>
  <time>2026-08-28T17:49:26Z</time>
  <course>244.94</course>
  <speed>0.02</speed>
  <fix>3d</fix>
</trkpt>
<trkpt lat="40.0713749" lon="-105.229789">
  <ele>1583.0</ele>
  <time>2026-08-28T17:49:26Z</time>
  <course>0.0</course>
  <speed>0.0</speed>
  <fix>3d</fix>
</trkpt>
<trkpt lat="40.0713747" lon="-105.229789">
  <ele>1582.99</ele>
  <time>2026-08-28T17:49:26Z</time>
  <course>244.94</course>
  <speed>0.02</speed>
  <fix>3d</fix>
</trkpt>
<trkpt lat="40.0713749" lon="-105.229789">
  <ele>1583.0</ele>
  <time>2026-08-28T17:49:26Z</time>
  <course>0.0</course>
  <speed>0.0</speed>
  <fix>3d</fix>
</trkpt>
<trkpt lat="40.0713747" lon="-105.229789">
  <ele>1582.99</ele>
  <time>2026-08-28T17:49:26Z</time>
  <course>244.94</course>
  <speed>0.02</speed>
  <fix>3d</fix>
</trkpt>
<trkpt lat="40.0713749" lon="-105.229789">
  <ele>1583.0</ele>
  <time>2026-08-28T17:49:26Z</time>
  <course>0.0</course>
  <speed>0.0</speed>
  <fix>3d</fix>
</trkpt>
<trkpt lat="40.0713747" lon="-105.229789">
  <ele>1582.98</ele>
  <time>2026-08-28T17:49:26Z</time>
  <course>244.93</course>
  <speed>0.02</speed>
  <fix>3d</fix>
</trkpt>
<trkpt lat="40.0713749" lon="-105.229789">
  <ele>1583.0</ele>
  <time>2026-08-28T17:49:26Z</time>
  <course>0.0</course>
  <speed>0.0</speed>
  <fix>3d</fix>
</trkpt>
<trkpt lat="40.0713747" lon="-105.229789">
  <ele>1582.98</ele>
  <time>2026-08-28T17:49:26Z</time>
  <course>244.93</course>
  <speed>0.02</speed>
  <fix>3d</fix>
</trkpt>
<trkpt lat="40.0713749" lon="-105.229789">
  <ele>1583.0</ele>
  <time>2026-08-28T17:49:26Z</time>
  <course>0.0</course>
  <speed>0.0</speed>
  <fix>3d</fix>
</trkpt>
<trkpt lat="40.0713747" lon="-105.229789">
  <ele>1582.97</ele>
  <time>2026-08-28T17:49:26Z</time>
  <course>244.93</course>
  <speed>0.02</speed>
  <fix>3d</fix>
</trkpt>
<trkpt lat="40.0713749" lon="-105.229789">
  <ele>1583.0</ele>
  <time>2026-08-28T17:49:26Z</time>
  <course>0.0</course>
  <speed>0.0</speed>
  <fix>3d</fix>
</trkpt>
<trkpt lat="40.0713747" lon="-105.229789">
  <ele>1582.97</ele>
  <time>2026-08-28T17:49:26Z</time>
  <course>244.93</course>
  <speed>0.02</speed>
  <fix>3d</fix>
</trkpt>
<trkpt lat="40.0713749" lon="-105.229789">
  <ele>1583.0</ele>
  <time>2026-08-28T17:49:26Z</time>
  <course>0.0</course>
  <speed>0.0</speed>
  <fix>3d</fix>
</trkpt>
<trkpt lat="40.0713747" lon="-105.229789">
  <ele>1582.97</ele>
  <time>2026-08-28T17:49:26Z</time>
  <course>244.93</course>
  <speed>0.02</speed>
  <fix>3d</fix>
</trkpt>
<trkpt lat="40.0713749" lon="-105.229789">
  <ele>1583.0</ele>
  <time>2026-08-28T17:49:26Z</time>
  <course>0.0</course>
  <speed>0.0</speed>
  <fix>3d</fix>
</trkpt>
<trkpt lat="40.0713747" lon="-105.229789">
  <ele>1582.97</ele>
  <time>2026-08-28T17:49:26Z</time>
  <course>244.93</course>
  <speed>0.02</speed>
  <fix>3d</fix>
</trkpt>
<trkpt lat="40.0713749" lon="-105.229789">
  <ele>1583.0</ele>
  <time>2026-08-28T17:49:26Z</time>
  <course>0.0</course>
  <speed>0.0</speed>
  <fix>3d</fix>
</trkpt>
<trkpt lat="40.0713747" lon="-105.229789">
  <ele>1582.97</ele>
  <time>2026-08-28T17:49:26Z</time>
  <course>244.93</course>
  <speed>0.02</speed>
  <fix>3d</fix>
</trkpt>
<trkpt lat="40.0713749" lon="-105.229789">
  <ele>1583.0</ele>
  <time>2026-08-28T17:49:26Z</time>
  <course>0.0</course>
  <speed>0.0</speed>
  <fix>3d</fix>
</trkpt>
<trkpt lat="40.0713747" lon="-105.229789">
  <ele>1582.96</ele>
  <time>2026-08-28T17:49:26Z</time>
  <course>244.93</course>
  <speed>0.02</speed>
  <fix>3d</fix>
</trkpt>
<trkpt lat="40.0713749" lon="-105.229789">
  <ele>1583.0</ele>
  <time>2026-08-28T17:49:26Z</time>
  <course>0.0</course>
  <speed>0.0</speed>
  <fix>3d</fix>
</trkpt>
<trkpt lat="40.0713747" lon="-105.229789">
  <ele>1582.97</ele>
  <time>2026-08-28T17:49:26Z</time>
  <course>244.93</course>
  <speed>0.02</speed>
  <fix>3d</fix>
</trkpt>
<trkpt lat="40.0713749" lon="-105.229789">
  <ele>1583.0</ele>
  <time>2026-08-28T17:49:26Z</time>
  <course>0.0</course>
  <speed>0.0</speed>
  <fix>3d</fix>
</trkpt>
<trkpt lat="40.0713747" lon="-105.229789">
  <ele>1582.97</ele>
  <time>2026-08-28T17:49:26Z</time>
  <course>244.93</course>
  <speed>0.02</speed>
  <fix>3d</fix>
</trkpt>
<trkpt lat="40.0713749" lon="-105.229789">
  <ele>1583.0</ele>
  <time>2026-08-28T17:49:26Z</time>
  <course>0.0</course>
  <speed>0.0</speed>
  <fix>3d</fix>
</trkpt>
<trkpt lat="40.0713747" lon="-105.229789">
  <ele>1582.97</ele>
  <time>2026-08-28T17:49:26Z</time>
  <course>244.93</course>
  <speed>0.02</speed>
  <fix>3d</fix>
</trkpt>
<trkpt lat="40.0713749" lon="-105.229789">
  <ele>1583.0</ele>
  <time>2026-08-28T17:49:26Z</time>
  <course>0.0</course>
  <speed>0.0</speed>
  <fix>3d</fix>
</trkpt>
<trkpt lat="40.0713747" lon="-105.229789">
  <ele>1582.96</ele>
  <time>2026-08-28T17:49:26Z</time>
  <course>244.93</course>
  <speed>0.02</speed>
  <fix>3d</fix>
</trkpt>
<trkpt lat="40.0713749" lon="-105.229789">
  <ele>1583.0</ele>
  <time>2026-08-28T17:49:26Z</time>
  <course>0.0</course>
  <speed>0.0</speed>
  <fix>3d</fix>
</trkpt>
<trkpt lat="40.0713747" lon="-105.229789">
  <ele>1582.96</ele>
  <time>2026-08-28T17:49:26Z</time>
  <course>244.93</course>
  <speed>0.02</speed>
  <fix>3d</fix>
</trkpt>
<trkpt lat="40.0713749" lon="-105.229789">
  <ele>1583.0</ele>
  <time>2026-08-28T17:49:26Z</time>
  <course>0.0</course>
  <speed>0.0</speed>
  <fix>3d</fix>
</trkpt>
<trkpt lat="40.0713747" lon="-105.229789">
  <ele>1582.96</ele>
  <time>2026-08-28T17:49:26Z</time>
  <course>244.93</course>
  <speed>0.02</speed>
  <fix>3d</fix>
</trkpt>
<trkpt lat="40.0713749" lon="-105.229789">
  <ele>1583.0</ele>
  <time>2026-08-28T17:49:26Z</time>
  <course>0.0</course>
  <speed>0.0</speed>
  <fix>3d</fix>
</trkpt>
<trkpt lat="40.0713747" lon="-105.229789">
  <ele>1582.96</ele>
  <time>2026-08-28T17:49:26Z</time>
  <course>244.93</course>
  <speed>0.02</speed>
  <fix>3d</fix>
</trkpt>
<trkpt lat="40.0713749" lon="-105.229789">
  <ele>1583.0</ele>
  <time>2026-08-28T17:49:26Z</time>
  <course>0.0</course>
  <speed>0.0</speed>
  <fix>3d</fix>
</trkpt>
<trkpt lat="40.0713747" lon="-105.229789">
  <ele>1582.95</ele>
  <time>2026-08-28T17:49:26Z</time>
  <course>244.93</course>
  <speed>0.02</speed>
  <fix>3d</fix>
</trkpt>
<trkpt lat="40.0713749" lon="-105.229789">
  <ele>1583.0</ele>
  <time>2026-08-28T17:49:26Z</time>
  <course>0.0</course>
  <speed>0.0</speed>
  <fix>3d</fix>
</trkpt>
<trkpt lat="40.0713747" lon="-105.229789">
  <ele>1582.95</ele>
  <time>2026-08-28T17:49:26Z</time>
  <course>244.93</course>
  <speed>0.02</speed>
  <fix>3d</fix>
</trkpt>
<trkpt lat="40.0713749" lon="-105.229789">
  <ele>1583.0</ele>
  <time>2026-08-28T17:49:26Z</time>
  <course>0.0</course>
  <speed>0.0</speed>
  <fix>3d</fix>
</trkpt>
<trkpt lat="40.0713747" lon="-105.229789">
  <ele>1582.95</ele>
  <time>2026-08-28T17:49:26Z</time>
  <course>244.93</course>
  <speed>0.02</speed>
  <fix>3d</fix>
</trkpt>
<trkpt lat="40.0713749" lon="-105.229789">
  <ele>1583.0</ele>
  <time>2026-08-28T17:49:26Z</time>
  <course>0.0</course>
  <speed>0.0</speed>
  <fix>3d</fix>
</trkpt>
<trkpt lat="40.0713747" lon="-105.229789">
  <ele>1582.95</ele>
  <time>2026-08-28T17:49:26Z</time>
  <course>244.93</course>
  <speed>0.02</speed>
  <fix>3d</fix>
</trkpt>
<trkpt lat="40.0713749" lon="-105.229789">
  <ele>1583.0</ele>
  <time>2026-08-28T17:49:26Z</time>
  <course>0.0</course>
  <speed>0.0</speed>
  <fix>3d</fix>
</trkpt>
<trkpt lat="40.0713747" lon="-105.229789">
  <ele>1582.95</ele>
  <time>2026-08-28T17:49:26Z</time>
  <course>244.93</course>
  <speed>0.02</speed>
  <fix>3d</fix>
</trkpt>
<trkpt lat="40.0713749" lon="-105.229789">
  <ele>1583.0</ele>
  <time>2026-08-28T17:49:26Z</time>
  <course>0.0</course>
  <speed>0.0</speed>
  <fix>3d</fix>
</trkpt>
<trkpt lat="40.0713747" lon="-105.229789">
  <ele>1582.95</ele>
  <time>2026-08-28T17:49:26Z</time>
  <course>244.93</course>
  <speed>0.02</speed>
  <fix>3d</fix>
</trkpt>
<trkpt lat="40.0713749" lon="-105.229789">
  <ele>1583.0</ele>
  <time>2026-08-28T17:49:26Z</time>
  <course>0.0</course>
  <speed>0.0</speed>
  <fix>3d</fix>
</trkpt>
<trkpt lat="40.0713747" lon="-105.229789">
  <ele>1582.95</ele>
  <time>2026-08-28T17:49:26Z</time>
  <course>244.93</course>
  <speed>0.02</speed>
  <fix>3d</fix>
</trkpt>
<trkpt lat="40.0713749" lon="-105.229789">
  <ele>1583.0</ele>
  <time>2026-08-28T17:49:26Z</time>
  <course>0.0</course>
  <speed>0.0</speed>
  <fix>3d</fix>
</trkpt>
<trkpt lat="40.0713747" lon="-105.229789">
  <ele>1582.94</ele>
  <time>2026-08-28T17:49:26Z</time>
  <course>244.93</course>
  <speed>0.02</speed>
  <fix>3d</fix>
</trkpt>
<trkpt lat="40.0713749" lon="-105.229789">
  <ele>1583.0</ele>
  <time>2026-08-28T17:49:26Z</time>
  <course>0.0</course>
  <speed>0.0</speed>
  <fix>3d</fix>
</trkpt>
<trkpt lat="40.0713747" lon="-105.229789">
  <ele>1582.95</ele>
  <time>2026-08-28T17:49:26Z</time>
  <course>244.93</course>
  <speed>0.02</speed>
  <fix>3d</fix>
</trkpt>
<trkpt lat="40.0713749" lon="-105.229789">
  <ele>1583.0</ele>
  <time>2026-08-28T17:49:26Z</time>
  <course>0.0</course>
  <speed>0.0</speed>
  <fix>3d</fix>
</trkpt>
<trkpt lat="40.0713747" lon="-105.229789">
  <ele>1582.95</ele>
  <time>2026-08-28T17:49:26Z</time>
  <course>244.93</course>
  <speed>0.02</speed>
  <fix>3d</fix>
</trkpt>
<trkpt lat="40.0713749" lon="-105.229789">
  <ele>1583.0</ele>
  <time>2026-08-28T17:49:26Z</time>
  <course>0.0</course>
  <speed>0.0</speed>
  <fix>3d</fix>
</trkpt>
<trkpt lat="40.0713747" lon="-105.229789">
  <ele>1582.95</ele>
  <time>2026-08-28T17:49:26Z</time>
  <course>244.93</course>
  <speed>0.02</speed>
  <fix>3d</fix>
</trkpt>
<trkpt lat="40.0713749" lon="-105.229789">
  <ele>1583.0</ele>
  <time>2026-08-28T17:49:26Z</time>
  <course>0.0</course>
  <speed>0.0</speed>
  <fix>3d</fix>
</trkpt>
<trkpt lat="40.0713747" lon="-105.229789">
  <ele>1582.96</ele>
  <time>2026-08-28T17:49:26Z</time>
  <course>244.93</course>
  <speed>0.02</speed>
  <fix>3d</fix>
</trkpt>
<trkpt lat="40.0713749" lon="-105.229789">
  <ele>1583.0</ele>
  <time>2026-08-28T17:49:26Z</time>
  <course>0.0</course>
  <speed>0.0</speed>
  <fix>3d</fix>
</trkpt>
<trkpt lat="40.0713747" lon="-105.229789">
  <ele>1582.96</ele>
  <time>2026-08-28T17:49:26Z</time>
  <course>244.93</course>
  <speed>0.02</speed>
  <fix>3d</fix>
</trkpt>
<trkpt lat="40.0713749" lon="-105.229789">
  <ele>1583.0</ele>
  <time>2026-08-28T17:49:26Z</time>
  <course>0.0</course>
  <speed>0.0</speed>
  <fix>3d</fix>
</trkpt>
<trkpt lat="40.0713747" lon="-105.2297891">
  <ele>1582.96</ele>
  <time>2026-08-28T17:49:26Z</time>
  <course>244.93</course>
  <speed>0.02</speed>
  <fix>3d</fix>
</trkpt>
<trkpt lat="40.0713749" lon="-105.229789">
  <ele>1583.0</ele>
  <time>2026-08-28T17:49:26Z</time>
  <course>0.0</course>
  <speed>0.0</speed>
  <fix>3d</fix>
</trkpt>
<trkpt lat="40.0713747" lon="-105.229789">
  <ele>1582.97</ele>
  <time>2026-08-28T17:49:26Z</time>
  <course>244.93</course>
  <speed>0.02</speed>
  <fix>3d</fix>
</trkpt>
<trkpt lat="40.0713749" lon="-105.229789">
  <ele>1583.0</ele>
  <time>2026-08-28T17:49:26Z</time>
  <course>0.0</course>
  <speed>0.0</speed>
  <fix>3d</fix>
</trkpt>
<trkpt lat="40.0713747" lon="-105.2297891">
  <ele>1582.96</ele>
  <time>2026-08-28T17:49:26Z</time>
  <course>244.93</course>
  <speed>0.02</speed>
  <fix>3d</fix>
</trkpt>
<trkpt lat="40.0713749" lon="-105.229789">
  <ele>1583.0</ele>
  <time>2026-08-28T17:49:26Z</time>
  <course>0.0</course>
  <speed>0.0</speed>
  <fix>3d</fix>
</trkpt>
<trkpt lat="40.0713747" lon="-105.229789">
  <ele>1582.96</ele>
  <time>2026-08-28T17:49:26Z</time>
  <course>244.93</course>
  <speed>0.02</speed>
  <fix>3d</fix>
</trkpt>
<trkpt lat="40.0713749" lon="-105.229789">
  <ele>1583.0</ele>
  <time>2026-08-28T17:49:26Z</time>
  <course>0.0</course>
  <speed>0.0</speed>
  <fix>3d</fix>
</trkpt>
<trkpt lat="40.0713747" lon="-105.2297891">
  <ele>1582.96</ele>
  <time>2026-08-28T17:49:26Z</time>
  <course>244.93</course>
  <speed>0.02</speed>
  <fix>3d</fix>
</trkpt>
<trkpt lat="40.0713749" lon="-105.229789">
  <ele>1583.0</ele>
  <time>2026-08-28T17:49:26Z</time>
  <course>0.0</course>
  <speed>0.0</speed>
  <fix>3d</fix>
</trkpt>
<trkpt lat="40.0713747" lon="-105.2297891">
  <ele>1582.95</ele>
  <time>2026-08-28T17:49:26Z</time>
  <course>244.93</course>
  <speed>0.02</speed>
  <fix>3d</fix>
</trkpt>
<trkpt lat="40.0713749" lon="-105.229789">
  <ele>1583.0</ele>
  <time>2026-08-28T17:49:26Z</time>
  <course>0.0</course>
  <speed>0.0</speed>
  <fix>3d</fix>
</trkpt>
<trkpt lat="40.0713747" lon="-105.2297891">
  <ele>1582.95</ele>
  <time>2026-08-28T17:49:26Z</time>
  <course>244.93</course>
  <speed>0.02</speed>
  <fix>3d</fix>
</trkpt>
<trkpt lat="40.0713749" lon="-105.229789">
  <ele>1583.0</ele>
  <time>2026-08-28T17:49:26Z</time>
  <course>0.0</course>
  <speed>0.0</speed>
  <fix>3d</fix>
</trkpt>
<trkpt lat="40.0713747" lon="-105.2297891">
  <ele>1582.95</ele>
  <time>2026-08-28T17:49:26Z</time>
  <course>244.93</course>
  <speed>0.02</speed>
  <fix>3d</fix>
</trkpt>
<trkpt lat="40.0713749" lon="-105.229789">
  <ele>1583.0</ele>
  <time>2026-08-28T17:49:26Z</time>
  <course>0.0</course>
  <speed>0.0</speed>
  <fix>3d</fix>
</trkpt>
<trkpt lat="40.0713747" lon="-105.2297891">
  <ele>1582.94</ele>
  <time>2026-08-28T17:49:26Z</time>
  <course>244.93</course>
  <speed>0.02</speed>
  <fix>3d</fix>
</trkpt>
<trkpt lat="40.0713749" lon="-105.229789">
  <ele>1583.0</ele>
  <time>2026-08-28T17:49:26Z</time>
  <course>0.0</course>
  <speed>0.0</speed>
  <fix>3d</fix>
</trkpt>
<trkpt lat="40.0713747" lon="-105.2297891">
  <ele>1582.93</ele>
  <time>2026-08-28T17:49:26Z</time>
  <course>244.93</course>
  <speed>0.02</speed>
  <fix>3d</fix>
</trkpt>
<trkpt lat="40.0713749" lon="-105.229789">
  <ele>1583.0</ele>
  <time>2026-08-28T17:49:26Z</time>
  <course>0.0</course>
  <speed>0.0</speed>
  <fix>3d</fix>
</trkpt>
<trkpt lat="40.0713747" lon="-105.2297891">
  <ele>1582.93</ele>
  <time>2026-08-28T17:49:26Z</time>
  <course>244.93</course>
  <speed>0.02</speed>
  <fix>3d</fix>
</trkpt>
<trkpt lat="40.0713749" lon="-105.229789">
  <ele>1583.0</ele>
  <time>2026-08-28T17:49:26Z</time>
  <course>0.0</course>
  <speed>0.0</speed>
  <fix>3d</fix>
</trkpt>
<trkpt lat="40.0713747" lon="-105.2297891">
  <ele>1582.93</ele>
  <time>2026-08-28T17:49:26Z</time>
  <course>244.93</course>
  <speed>0.02</speed>
  <fix>3d</fix>
</trkpt>
<trkpt lat="40.0713749" lon="-105.229789">
  <ele>1583.0</ele>
  <time>2026-08-28T17:49:26Z</time>
  <course>0.0</course>
  <speed>0.0</speed>
  <fix>3d</fix>
</trkpt>
<trkpt lat="40.0713747" lon="-105.2297891">
  <ele>1582.93</ele>
  <time>2026-08-28T17:49:26Z</time>
  <course>244.93</course>
  <speed>0.02</speed>
  <fix>3d</fix>
</trkpt>
<trkpt lat="40.0713749" lon="-105.229789">
  <ele>1583.0</ele>
  <time>2026-08-28T17:49:26Z</time>
  <course>0.0</course>
  <speed>0.0</speed>
  <fix>3d</fix>
</trkpt>
<trkpt lat="40.0713747" lon="-105.229789">
  <ele>1582.93</ele>
  <time>2026-08-28T17:49:26Z</time>
  <course>244.93</course>
  <speed>0.02</speed>
  <fix>3d</fix>
</trkpt>
<trkpt lat="40.0713749" lon="-105.229789">
  <ele>1583.0</ele>
  <time>2026-08-28T17:49:26Z</time>
  <course>0.0</course>
  <speed>0.0</speed>
  <fix>3d</fix>
</trkpt>
<trkpt lat="40.0713747" lon="-105.2297891">
  <ele>1582.94</ele>
  <time>2026-08-28T17:49:26Z</time>
  <course>244.93</course>
  <speed>0.02</speed>
  <fix>3d</fix>
</trkpt>
<trkpt lat="40.0713749" lon="-105.229789">
  <ele>1583.0</ele>
  <time>2026-08-28T17:49:26Z</time>
  <course>0.0</course>
  <speed>0.0</speed>
  <fix>3d</fix>
</trkpt>
<trkpt lat="40.0713748" lon="-105.229789">
  <ele>1582.95</ele>
  <time>2026-08-28T17:49:26Z</time>
  <course>244.93</course>
  <speed>0.02</speed>
  <fix>3d</fix>
</trkpt>
<trkpt lat="40.0713749" lon="-105.229789">
  <ele>1583.0</ele>
  <time>2026-08-28T17:49:26Z</time>
  <course>0.0</course>
  <speed>0.0</speed>
  <fix>3d</fix>
</trkpt>
<trkpt lat="40.0713747" lon="-105.2297891">
  <ele>1582.96</ele>
  <time>2026-08-28T17:49:26Z</time>
  <course>244.93</course>
  <speed>0.02</speed>
  <fix>3d</fix>
</trkpt>
<trkpt lat="40.0713749" lon="-105.229789">
  <ele>1583.0</ele>
  <time>2026-08-28T17:49:26Z</time>
  <course>0.0</course>
  <speed>0.0</speed>
  <fix>3d</fix>
</trkpt>
<trkpt lat="40.0713748" lon="-105.229789">
  <ele>1582.97</ele>
  <time>2026-08-28T17:49:26Z</time>
  <course>244.93</course>
  <speed>0.02</speed>
  <fix>3d</fix>
</trkpt>
<trkpt lat="40.0713749" lon="-105.229789">
  <ele>1583.0</ele>
  <time>2026-08-28T17:49:26Z</time>
  <course>0.0</course>
  <speed>0.0</speed>
  <fix>3d</fix>
</trkpt>
<trkpt lat="40.0713747" lon="-105.2297891">
  <ele>1582.98</ele>
  <time>2026-08-28T17:49:26Z</time>
  <course>244.93</course>
  <speed>0.02</speed>
  <fix>3d</fix>
</trkpt>
<trkpt lat="40.0713749" lon="-105.229789">
  <ele>1583.0</ele>
  <time>2026-08-28T17:49:26Z</time>
  <course>0.0</course>
  <speed>0.0</speed>
  <fix>3d</fix>
</trkpt>
<trkpt lat="40.0713748" lon="-105.229789">
  <ele>1582.99</ele>
  <time>2026-08-28T17:49:26Z</time>
  <course>244.93</course>
  <speed>0.02</speed>
  <fix>3d</fix>
</trkpt>
<trkpt lat="40.0713749" lon="-105.229789">
  <ele>1583.0</ele>
  <time>2026-08-28T17:49:26Z</time>
  <course>0.0</course>
  <speed>0.0</speed>
  <fix>3d</fix>
</trkpt>
<trkpt lat="40.0713747" lon="-105.2297891">
  <ele>1582.99</ele>
  <time>2026-08-28T17:49:26Z</time>
  <course>244.93</course>
  <speed>0.02</speed>
  <fix>3d</fix>
</trkpt>
<trkpt lat="40.0713749" lon="-105.229789">
  <ele>1583.0</ele>
  <time>2026-08-28T17:49:26Z</time>
  <course>0.0</course>
  <speed>0.0</speed>
  <fix>3d</fix>
</trkpt>
<trkpt lat="40.0713748" lon="-105.229789">
  <ele>1582.99</ele>
  <time>2026-08-28T17:49:26Z</time>
  <course>244.93</course>
  <speed>0.02</speed>
  <fix>3d</fix>
</trkpt>
<trkpt lat="40.0713749" lon="-105.229789">
  <ele>1583.0</ele>
  <time>2026-08-28T17:49:26Z</time>
  <course>0.0</course>
  <speed>0.0</speed>
  <fix>3d</fix>
</trkpt>
<trkpt lat="40.0713747" lon="-105.2297891">
  <ele>1582.99</ele>
  <time>2026-08-28T17:49:26Z</time>
  <course>244.93</course>
  <speed>0.02</speed>
  <fix>3d</fix>
</trkpt>
<trkpt lat="40.0713749" lon="-105.229789">
  <ele>1583.0</ele>
  <time>2026-08-28T17:49:26Z</time>
  <course>0.0</course>
  <speed>0.0</speed>
  <fix>3d</fix>
</trkpt>
<trkpt lat="40.0713748" lon="-105.229789">
  <ele>1583.0</ele>
  <time>2026-08-28T17:49:26Z</time>
  <course>244.93</course>
  <speed>0.02</speed>
  <fix>3d</fix>
</trkpt>
<trkpt lat="40.0713749" lon="-105.229789">
  <ele>1583.0</ele>
  <time>2026-08-28T17:49:26Z</time>
  <course>0.0</course>
  <speed>0.0</speed>
  <fix>3d</fix>
</trkpt>
<trkpt lat="40.0713747" lon="-105.2297891">
  <ele>1582.99</ele>
  <time>2026-08-28T17:49:26Z</time>
  <course>244.93</course>
  <speed>0.02</speed>
  <fix>3d</fix>
</trkpt>
<trkpt lat="40.0713749" lon="-105.229789">
  <ele>1583.0</ele>
  <time>2026-08-28T17:49:26Z</time>
  <course>0.0</course>
  <speed>0.0</speed>
  <fix>3d</fix>
</trkpt>
<trkpt lat="40.0713748" lon="-105.229789">
  <ele>1582.99</ele>
  <time>2026-08-28T17:49:26Z</time>
  <course>244.93</course>
  <speed>0.02</speed>
  <fix>3d</fix>
</trkpt>
<trkpt lat="40.0713749" lon="-105.229789">
  <ele>1583.0</ele>
  <time>2026-08-28T17:49:26Z</time>
  <course>0.0</course>
  <speed>0.0</speed>
  <fix>3d</fix>
</trkpt>
<trkpt lat="40.0713747" lon="-105.2297891">
  <ele>1582.99</ele>
  <time>2026-08-28T17:49:26Z</time>
  <course>244.93</course>
  <speed>0.02</speed>
  <fix>3d</fix>
</trkpt>
<trkpt lat="40.0713749" lon="-105.229789">
  <ele>1583.0</ele>
  <time>2026-08-28T17:49:26Z</time>
  <course>0.0</course>
  <speed>0.0</speed>
  <fix>3d</fix>
</trkpt>
<trkpt lat="40.0713747" lon="-105.229789">
  <ele>1582.98</ele>
  <time>2026-08-28T17:49:26Z</time>
  <course>244.93</course>
  <speed>0.02</speed>
  <fix>3d</fix>
</trkpt>
<trkpt lat="40.0713749" lon="-105.229789">
  <ele>1583.0</ele>
  <time>2026-08-28T17:49:26Z</time>
  <course>0.0</course>
  <speed>0.0</speed>
  <fix>3d</fix>
</trkpt>
<trkpt lat="40.0713747" lon="-105.2297891">
  <ele>1582.98</ele>
  <time>2026-08-28T17:49:26Z</time>
  <course>244.93</course>
  <speed>0.02</speed>
  <fix>3d</fix>
</trkpt>
<trkpt lat="40.0713749" lon="-105.229789">
  <ele>1583.0</ele>
  <time>2026-08-28T17:49:26Z</time>
  <course>0.0</course>
  <speed>0.0</speed>
  <fix>3d</fix>
</trkpt>
<trkpt lat="40.0713747" lon="-105.229789">
  <ele>1582.97</ele>
  <time>2026-08-28T17:49:26Z</time>
  <course>244.93</course>
  <speed>0.02</speed>
  <fix>3d</fix>
</trkpt>
<trkpt lat="40.0713749" lon="-105.229789">
  <ele>1583.0</ele>
  <time>2026-08-28T17:49:26Z</time>
  <course>0.0</course>
  <speed>0.0</speed>
  <fix>3d</fix>
</trkpt>
<trkpt lat="40.0713747" lon="-105.2297891">
  <ele>1582.97</ele>
  <time>2026-08-28T17:49:26Z</time>
  <course>244.93</course>
  <speed>0.02</speed>
  <fix>3d</fix>
</trkpt>
<trkpt lat="40.0713749" lon="-105.229789">
  <ele>1583.0</ele>
  <time>2026-08-28T17:49:26Z</time>
  <course>0.0</course>
  <speed>0.0</speed>
  <fix>3d</fix>
</trkpt>
<trkpt lat="40.0713747" lon="-105.229789">
  <ele>1582.97</ele>
  <time>2026-08-28T17:49:26Z</time>
  <course>244.93</course>
  <speed>0.02</speed>
  <fix>3d</fix>
</trkpt>
<trkpt lat="40.0713749" lon="-105.229789">
  <ele>1583.0</ele>
  <time>2026-08-28T17:49:26Z</time>
  <course>0.0</course>
  <speed>0.0</speed>
  <fix>3d</fix>
</trkpt>
<trkpt lat="40.0713747" lon="-105.2297891">
  <ele>1582.97</ele>
  <time>2026-08-28T17:49:26Z</time>
  <course>244.93</course>
  <speed>0.02</speed>
  <fix>3d</fix>
</trkpt>
<trkpt lat="40.0713749" lon="-105.229789">
  <ele>1583.0</ele>
  <time>2026-08-28T17:49:26Z</time>
  <course>0.0</course>
  <speed>0.0</speed>
  <fix>3d</fix>
</trkpt>
<trkpt lat="40.0713748" lon="-105.229789">
  <ele>1582.98</ele>
  <time>2026-08-28T17:49:26Z</time>
  <course>244.93</course>
  <speed>0.02</speed>
  <fix>3d</fix>
</trkpt>
<trkpt lat="40.0713749" lon="-105.229789">
  <ele>1583.0</ele>
  <time>2026-08-28T17:49:26Z</time>
  <course>0.0</course>
  <speed>0.0</speed>
  <fix>3d</fix>
</trkpt>
<trkpt lat="40.0713747" lon="-105.229789">
  <ele>1582.98</ele>
  <time>2026-08-28T17:49:26Z</time>
  <course>244.93</course>
  <speed>0.02</speed>
  <fix>3d</fix>
</trkpt>
<trkpt lat="40.0713749" lon="-105.229789">
  <ele>1583.0</ele>
  <time>2026-08-28T17:49:26Z</time>
  <course>0.0</course>
  <speed>0.0</speed>
  <fix>3d</fix>
</trkpt>
<trkpt lat="40.0713748" lon="-105.229789">
  <ele>1582.99</ele>
  <time>2026-08-28T17:49:26Z</time>
  <course>244.93</course>
  <speed>0.02</speed>
  <fix>3d</fix>
</trkpt>
<trkpt lat="40.0713749" lon="-105.229789">
  <ele>1583.0</ele>
  <time>2026-08-28T17:49:26Z</time>
  <course>0.0</course>
  <speed>0.0</speed>
  <fix>3d</fix>
</trkpt>
<trkpt lat="40.0713747" lon="-105.229789">
  <ele>1583.0</ele>
  <time>2026-08-28T17:49:26Z</time>
  <course>244.93</course>
  <speed>0.02</speed>
  <fix>3d</fix>
</trkpt>
<trkpt lat="40.0713749" lon="-105.229789">
  <ele>1583.0</ele>
  <time>2026-08-28T17:49:26Z</time>
  <course>0.0</course>
  <speed>0.0</speed>
  <fix>3d</fix>
</trkpt>
<trkpt lat="40.0713748" lon="-105.229789">
  <ele>1583.01</ele>
  <time>2026-08-28T17:49:26Z</time>
  <course>244.93</course>
  <speed>0.02</speed>
  <fix>3d</fix>
</trkpt>
<trkpt lat="40.0713749" lon="-105.229789">
  <ele>1583.0</ele>
  <time>2026-08-28T17:49:26Z</time>
  <course>0.0</course>
  <speed>0.0</speed>
  <fix>3d</fix>
</trkpt>
<trkpt lat="40.0713747" lon="-105.229789">
  <ele>1583.01</ele>
  <time>2026-08-28T17:49:26Z</time>
  <course>244.93</course>
  <speed>0.02</speed>
  <fix>3d</fix>
</trkpt>
<trkpt lat="40.0713749" lon="-105.229789">
  <ele>1583.0</ele>
  <time>2026-08-28T17:49:26Z</time>
  <course>0.0</course>
  <speed>0.0</speed>
  <fix>3d</fix>
</trkpt>
<trkpt lat="40.0713748" lon="-105.229789">
  <ele>1583.01</ele>
  <time>2026-08-28T17:49:26Z</time>
  <course>244.93</course>
  <speed>0.02</speed>
  <fix>3d</fix>
</trkpt>
<trkpt lat="40.0713749" lon="-105.229789">
  <ele>1583.0</ele>
  <time>2026-08-28T17:49:26Z</time>
  <course>0.0</course>
  <speed>0.0</speed>
  <fix>3d</fix>
</trkpt>
<trkpt lat="40.0713747" lon="-105.229789">
  <ele>1583.02</ele>
  <time>2026-08-28T17:49:26Z</time>
  <course>244.93</course>
  <speed>0.02</speed>
  <fix>3d</fix>
</trkpt>
<trkpt lat="40.0713749" lon="-105.229789">
  <ele>1583.0</ele>
  <time>2026-08-28T17:49:26Z</time>
  <course>0.0</course>
  <speed>0.0</speed>
  <fix>3d</fix>
</trkpt>
<trkpt lat="40.0713748" lon="-105.229789">
  <ele>1583.02</ele>
  <time>2026-08-28T17:49:26Z</time>
  <course>244.93</course>
  <speed>0.02</speed>
  <fix>3d</fix>
</trkpt>
<trkpt lat="40.0713749" lon="-105.229789">
  <ele>1583.0</ele>
  <time>2026-08-28T17:49:26Z</time>
  <course>0.0</course>
  <speed>0.0</speed>
  <fix>3d</fix>
</trkpt>
<trkpt lat="40.0713747" lon="-105.229789">
  <ele>1583.03</ele>
  <time>2026-08-28T17:49:26Z</time>
  <course>244.93</course>
  <speed>0.02</speed>
  <fix>3d</fix>
</trkpt>
<trkpt lat="40.0713749" lon="-105.229789">
  <ele>1583.0</ele>
  <time>2026-08-28T17:49:26Z</time>
  <course>0.0</course>
  <speed>0.0</speed>
  <fix>3d</fix>
</trkpt>
<trkpt lat="40.0713748" lon="-105.229789">
  <ele>1583.03</ele>
  <time>2026-08-28T17:49:26Z</time>
  <course>244.93</course>
  <speed>0.02</speed>
  <fix>3d</fix>
</trkpt>
<trkpt lat="40.0713749" lon="-105.229789">
  <ele>1583.0</ele>
  <time>2026-08-28T17:49:26Z</time>
  <course>0.0</course>
  <speed>0.0</speed>
  <fix>3d</fix>
</trkpt>
<trkpt lat="40.0713747" lon="-105.229789">
  <ele>1583.04</ele>
  <time>2026-08-28T17:49:26Z</time>
  <course>244.93</course>
  <speed>0.02</speed>
  <fix>3d</fix>
</trkpt>
<trkpt lat="40.0713749" lon="-105.229789">
  <ele>1583.0</ele>
  <time>2026-08-28T17:49:26Z</time>
  <course>0.0</course>
  <speed>0.0</speed>
  <fix>3d</fix>
</trkpt>
<trkpt lat="40.0713748" lon="-105.229789">
  <ele>1583.04</ele>
  <time>2026-08-28T17:49:26Z</time>
  <course>244.93</course>
  <speed>0.02</speed>
  <fix>3d</fix>
</trkpt>
<trkpt lat="40.0713749" lon="-105.229789">
  <ele>1583.0</ele>
  <time>2026-08-28T17:49:26Z</time>
  <course>0.0</course>
  <speed>0.0</speed>
  <fix>3d</fix>
</trkpt>
<trkpt lat="40.0713747" lon="-105.229789">
  <ele>1583.05</ele>
  <time>2026-08-28T17:49:26Z</time>
  <course>244.93</course>
  <speed>0.02</speed>
  <fix>3d</fix>
</trkpt>
<trkpt lat="40.0713749" lon="-105.229789">
  <ele>1583.0</ele>
  <time>2026-08-28T17:49:26Z</time>
  <course>0.0</course>
  <speed>0.0</speed>
  <fix>3d</fix>
</trkpt>
<trkpt lat="40.0713747" lon="-105.229789">
  <ele>1583.06</ele>
  <time>2026-08-28T17:49:26Z</time>
  <course>244.93</course>
  <speed>0.02</speed>
  <fix>3d</fix>
</trkpt>
<trkpt lat="40.0713749" lon="-105.229789">
  <ele>1583.0</ele>
  <time>2026-08-28T17:49:26Z</time>
  <course>0.0</course>
  <speed>0.0</speed>
  <fix>3d</fix>
</trkpt>
<trkpt lat="40.0713747" lon="-105.229789">
  <ele>1583.06</ele>
  <time>2026-08-28T17:49:26Z</time>
  <course>244.93</course>
  <speed>0.02</speed>
  <fix>3d</fix>
</trkpt>
<trkpt lat="40.0713749" lon="-105.229789">
  <ele>1583.0</ele>
  <time>2026-08-28T17:49:26Z</time>
  <course>0.0</course>
  <speed>0.0</speed>
  <fix>3d</fix>
</trkpt>
<trkpt lat="40.0713747" lon="-105.229789">
  <ele>1583.07</ele>
  <time>2026-08-28T17:49:26Z</time>
  <course>244.93</course>
  <speed>0.02</speed>
  <fix>3d</fix>
</trkpt>
<trkpt lat="40.0713749" lon="-105.229789">
  <ele>1583.0</ele>
  <time>2026-08-28T17:49:26Z</time>
  <course>0.0</course>
  <speed>0.0</speed>
  <fix>3d</fix>
</trkpt>
<trkpt lat="40.0713747" lon="-105.229789">
  <ele>1583.07</ele>
  <time>2026-08-28T17:49:26Z</time>
  <course>244.93</course>
  <speed>0.02</speed>
  <fix>3d</fix>
</trkpt>
<trkpt lat="40.0713749" lon="-105.229789">
  <ele>1583.0</ele>
  <time>2026-08-28T17:49:26Z</time>
  <course>0.0</course>
  <speed>0.0</speed>
  <fix>3d</fix>
</trkpt>
<trkpt lat="40.0713747" lon="-105.229789">
  <ele>1583.07</ele>
  <time>2026-08-28T17:49:26Z</time>
  <course>244.93</course>
  <speed>0.02</speed>
  <fix>3d</fix>
</trkpt>
<trkpt lat="40.0713749" lon="-105.229789">
  <ele>1583.0</ele>
  <time>2026-08-28T17:49:26Z</time>
  <course>0.0</course>
  <speed>0.0</speed>
  <fix>3d</fix>
</trkpt>
<trkpt lat="40.0713747" lon="-105.229789">
  <ele>1583.06</ele>
  <time>2026-08-28T17:49:26Z</time>
  <course>244.93</course>
  <speed>0.02</speed>
  <fix>3d</fix>
</trkpt>
<trkpt lat="40.0713749" lon="-105.229789">
  <ele>1583.0</ele>
  <time>2026-08-28T17:49:26Z</time>
  <course>0.0</course>
  <speed>0.0</speed>
  <fix>3d</fix>
</trkpt>
<trkpt lat="40.0713747" lon="-105.229789">
  <ele>1583.06</ele>
  <time>2026-08-28T17:49:26Z</time>
  <course>244.93</course>
  <speed>0.02</speed>
  <fix>3d</fix>
</trkpt>
<trkpt lat="40.0713749" lon="-105.229789">
  <ele>1583.0</ele>
  <time>2026-08-28T17:49:26Z</time>
  <course>0.0</course>
  <speed>0.0</speed>
  <fix>3d</fix>
</trkpt>
<trkpt lat="40.0713747" lon="-105.229789">
  <ele>1583.05</ele>
  <time>2026-08-28T17:49:26Z</time>
  <course>244.93</course>
  <speed>0.02</speed>
  <fix>3d</fix>
</trkpt>
<trkpt lat="40.0713749" lon="-105.229789">
  <ele>1583.0</ele>
  <time>2026-08-28T17:49:26Z</time>
  <course>0.0</course>
  <speed>0.0</speed>
  <fix>3d</fix>
</trkpt>
<trkpt lat="40.0713747" lon="-105.229789">
  <ele>1583.04</ele>
  <time>2026-08-28T17:49:26Z</time>
  <course>244.93</course>
  <speed>0.02</speed>
  <fix>3d</fix>
</trkpt>
<trkpt lat="40.0713749" lon="-105.229789">
  <ele>1583.0</ele>
  <time>2026-08-28T17:49:26Z</time>
  <course>0.0</course>
  <speed>0.0</speed>
  <fix>3d</fix>
</trkpt>
<trkpt lat="40.0713747" lon="-105.229789">
  <ele>1583.04</ele>
  <time>2026-08-28T17:49:26Z</time>
  <course>244.93</course>
  <speed>0.02</speed>
  <fix>3d</fix>
</trkpt>
<trkpt lat="40.0713749" lon="-105.229789">
  <ele>1583.0</ele>
  <time>2026-08-28T17:49:26Z</time>
  <course>0.0</course>
  <speed>0.0</speed>
  <fix>3d</fix>
</trkpt>
<trkpt lat="40.0713748" lon="-105.229789">
  <ele>1583.03</ele>
  <time>2026-08-28T17:49:26Z</time>
  <course>244.93</course>
  <speed>0.02</speed>
  <fix>3d</fix>
</trkpt>
<trkpt lat="40.0713749" lon="-105.229789">
  <ele>1583.0</ele>
  <time>2026-08-28T17:49:26Z</time>
  <course>0.0</course>
  <speed>0.0</speed>
  <fix>3d</fix>
</trkpt>
<trkpt lat="40.0713747" lon="-105.229789">
  <ele>1583.02</ele>
  <time>2026-08-28T17:49:26Z</time>
  <course>244.93</course>
  <speed>0.02</speed>
  <fix>3d</fix>
</trkpt>
<trkpt lat="40.0713749" lon="-105.229789">
  <ele>1583.0</ele>
  <time>2026-08-28T17:49:26Z</time>
  <course>0.0</course>
  <speed>0.0</speed>
  <fix>3d</fix>
</trkpt>
<trkpt lat="40.0713748" lon="-105.229789">
  <ele>1583.01</ele>
  <time>2026-08-28T17:49:26Z</time>
  <course>244.93</course>
  <speed>0.02</speed>
  <fix>3d</fix>
</trkpt>
<trkpt lat="40.0713749" lon="-105.229789">
  <ele>1583.0</ele>
  <time>2026-08-28T17:49:26Z</time>
  <course>0.0</course>
  <speed>0.0</speed>
  <fix>3d</fix>
</trkpt>
<trkpt lat="40.0713747" lon="-105.229789">
  <ele>1583.01</ele>
  <time>2026-08-28T17:49:26Z</time>
  <course>244.93</course>
  <speed>0.02</speed>
  <fix>3d</fix>
</trkpt>
<trkpt lat="40.0713749" lon="-105.229789">
  <ele>1583.0</ele>
  <time>2026-08-28T17:49:26Z</time>
  <course>0.0</course>
  <speed>0.0</speed>
  <fix>3d</fix>
</trkpt>
<trkpt lat="40.0713747" lon="-105.229789">
  <ele>1583.01</ele>
  <time>2026-08-28T17:49:26Z</time>
  <course>244.93</course>
  <speed>0.02</speed>
  <fix>3d</fix>
</trkpt>
<trkpt lat="40.0713749" lon="-105.229789">
  <ele>1583.0</ele>
  <time>2026-08-28T17:49:26Z</time>
  <course>0.0</course>
  <speed>0.0</speed>
  <fix>3d</fix>
</trkpt>
<trkpt lat="40.0713747" lon="-105.229789">
  <ele>1583.01</ele>
  <time>2026-08-28T17:49:26Z</time>
  <course>244.93</course>
  <speed>0.02</speed>
  <fix>3d</fix>
</trkpt>
<trkpt lat="40.0713749" lon="-105.229789">
  <ele>1583.0</ele>
  <time>2026-08-28T17:49:26Z</time>
  <course>0.0</course>
  <speed>0.0</speed>
  <fix>3d</fix>
</trkpt>
<trkpt lat="40.0713747" lon="-105.229789">
  <ele>1583.01</ele>
  <time>2026-08-28T17:49:26Z</time>
  <course>244.93</course>
  <speed>0.02</speed>
  <fix>3d</fix>
</trkpt>
<trkpt lat="40.0713749" lon="-105.229789">
  <ele>1583.0</ele>
  <time>2026-08-28T17:49:26Z</time>
  <course>0.0</course>
  <speed>0.0</speed>
  <fix>3d</fix>
</trkpt>
<trkpt lat="40.0713747" lon="-105.229789">
  <ele>1583.02</ele>
  <time>2026-08-28T17:49:26Z</time>
  <course>244.93</course>
  <speed>0.02</speed>
  <fix>3d</fix>
</trkpt>
<trkpt lat="40.0713749" lon="-105.229789">
  <ele>1583.0</ele>
  <time>2026-08-28T17:49:26Z</time>
  <course>0.0</course>
  <speed>0.0</speed>
  <fix>3d</fix>
</trkpt>
<trkpt lat="40.0713747" lon="-105.229789">
  <ele>1583.02</ele>
  <time>2026-08-28T17:49:26Z</time>
  <course>244.93</course>
  <speed>0.02</speed>
  <fix>3d</fix>
</trkpt>
<trkpt lat="40.0713749" lon="-105.229789">
  <ele>1583.0</ele>
  <time>2026-08-28T17:49:26Z</time>
  <course>0.0</course>
  <speed>0.0</speed>
  <fix>3d</fix>
</trkpt>
<trkpt lat="40.0713747" lon="-105.229789">
  <ele>1583.02</ele>
  <time>2026-08-28T17:49:26Z</time>
  <course>244.93</course>
  <speed>0.02</speed>
  <fix>3d</fix>
</trkpt>
<trkpt lat="40.0713749" lon="-105.229789">
  <ele>1583.0</ele>
  <time>2026-08-28T17:49:26Z</time>
  <course>0.0</course>
  <speed>0.0</speed>
  <fix>3d</fix>
</trkpt>
<trkpt lat="40.0713747" lon="-105.229789">
  <ele>1583.02</ele>
  <time>2026-08-28T17:49:26Z</time>
  <course>244.93</course>
  <speed>0.02</speed>
  <fix>3d</fix>
</trkpt>
<trkpt lat="40.0713749" lon="-105.229789">
  <ele>1583.0</ele>
  <time>2026-08-28T17:49:26Z</time>
  <course>0.0</course>
  <speed>0.0</speed>
  <fix>3d</fix>
</trkpt>
<trkpt lat="40.0713747" lon="-105.229789">
  <ele>1583.02</ele>
  <time>2026-08-28T17:49:26Z</time>
  <course>244.93</course>
  <speed>0.02</speed>
  <fix>3d</fix>
</trkpt>
<trkpt lat="40.0713749" lon="-105.229789">
  <ele>1583.0</ele>
  <time>2026-08-28T17:49:26Z</time>
  <course>0.0</course>
  <speed>0.0</speed>
  <fix>3d</fix>
</trkpt>
<trkpt lat="40.0713747" lon="-105.229789">
  <ele>1583.03</ele>
  <time>2026-08-28T17:49:26Z</time>
  <course>244.93</course>
  <speed>0.02</speed>
  <fix>3d</fix>
</trkpt>
<trkpt lat="40.0713749" lon="-105.229789">
  <ele>1583.0</ele>
  <time>2026-08-28T17:49:26Z</time>
  <course>0.0</course>
  <speed>0.0</speed>
  <fix>3d</fix>
</trkpt>
<trkpt lat="40.0713747" lon="-105.229789">
  <ele>1583.03</ele>
  <time>2026-08-28T17:49:26Z</time>
  <course>244.93</course>
  <speed>0.02</speed>
  <fix>3d</fix>
</trkpt>
<trkpt lat="40.0713749" lon="-105.229789">
  <ele>1583.0</ele>
  <time>2026-08-28T17:49:26Z</time>
  <course>0.0</course>
  <speed>0.0</speed>
  <fix>3d</fix>
</trkpt>
<trkpt lat="40.0713747" lon="-105.229789">
  <ele>1583.03</ele>
  <time>2026-08-28T17:49:26Z</time>
  <course>244.93</course>
  <speed>0.02</speed>
  <fix>3d</fix>
</trkpt>
<trkpt lat="40.0713749" lon="-105.229789">
  <ele>1583.0</ele>
  <time>2026-08-28T17:49:26Z</time>
  <course>0.0</course>
  <speed>0.0</speed>
  <fix>3d</fix>
</trkpt>
<trkpt lat="40.0713747" lon="-105.229789">
  <ele>1583.03</ele>
  <time>2026-08-28T17:49:26Z</time>
  <course>244.93</course>
  <speed>0.02</speed>
  <fix>3d</fix>
</trkpt>
<trkpt lat="40.0713749" lon="-105.229789">
  <ele>1583.0</ele>
  <time>2026-08-28T17:49:26Z</time>
  <course>0.0</course>
  <speed>0.0</speed>
  <fix>3d</fix>
</trkpt>
<trkpt lat="40.0713747" lon="-105.229789">
  <ele>1583.03</ele>
  <time>2026-08-28T17:49:26Z</time>
  <course>244.93</course>
  <speed>0.02</speed>
  <fix>3d</fix>
</trkpt>
<trkpt lat="40.0713749" lon="-105.229789">
  <ele>1583.0</ele>
  <time>2026-08-28T17:49:26Z</time>
  <course>0.0</course>
  <speed>0.0</speed>
  <fix>3d</fix>
</trkpt>
<trkpt lat="40.0713747" lon="-105.229789">
  <ele>1583.02</ele>
  <time>2026-08-28T17:49:26Z</time>
  <course>244.93</course>
  <speed>0.02</speed>
  <fix>3d</fix>
</trkpt>
<trkpt lat="40.0713749" lon="-105.229789">
  <ele>1583.0</ele>
  <time>2026-08-28T17:49:26Z</time>
  <course>0.0</course>
  <speed>0.0</speed>
  <fix>3d</fix>
</trkpt>
<trkpt lat="40.0713747" lon="-105.229789">
  <ele>1583.02</ele>
  <time>2026-08-28T17:49:26Z</time>
  <course>244.93</course>
  <speed>0.02</speed>
  <fix>3d</fix>
</trkpt>
<trkpt lat="40.0713749" lon="-105.229789">
  <ele>1583.0</ele>
  <time>2026-08-28T17:49:26Z</time>
  <course>0.0</course>
  <speed>0.0</speed>
  <fix>3d</fix>
</trkpt>
<trkpt lat="40.0713747" lon="-105.229789">
  <ele>1583.02</ele>
  <time>2026-08-28T17:49:26Z</time>
  <course>244.93</course>
  <speed>0.02</speed>
  <fix>3d</fix>
</trkpt>
<trkpt lat="40.0713749" lon="-105.229789">
  <ele>1583.0</ele>
  <time>2026-08-28T17:49:26Z</time>
  <course>0.0</course>
  <speed>0.0</speed>
  <fix>3d</fix>
</trkpt>
<trkpt lat="40.0713747" lon="-105.229789">
  <ele>1583.02</ele>
  <time>2026-08-28T17:49:26Z</time>
  <course>244.93</course>
  <speed>0.02</speed>
  <fix>3d</fix>
</trkpt>
<trkpt lat="40.0713749" lon="-105.229789">
  <ele>1583.0</ele>
  <time>2026-08-28T17:49:26Z</time>
  <course>0.0</course>
  <speed>0.0</speed>
  <fix>3d</fix>
</trkpt>
<trkpt lat="40.0713747" lon="-105.229789">
  <ele>1583.02</ele>
  <time>2026-08-28T17:49:26Z</time>
  <course>244.93</course>
  <speed>0.02</speed>
  <fix>3d</fix>
</trkpt>
<trkpt lat="40.0713749" lon="-105.229789">
  <ele>1583.0</ele>
  <time>2026-08-28T17:49:26Z</time>
  <course>0.0</course>
  <speed>0.0</speed>
  <fix>3d</fix>
</trkpt>
<trkpt lat="40.0713747" lon="-105.229789">
  <ele>1583.02</ele>
  <time>2026-08-28T17:49:26Z</time>
  <course>244.93</course>
  <speed>0.02</speed>
  <fix>3d</fix>
</trkpt>
<trkpt lat="40.0713749" lon="-105.229789">
  <ele>1583.0</ele>
  <time>2026-08-28T17:49:26Z</time>
  <course>0.0</course>
  <speed>0.0</speed>
  <fix>3d</fix>
</trkpt>
<trkpt lat="40.0713747" lon="-105.229789">
  <ele>1583.02</ele>
  <time>2026-08-28T17:49:26Z</time>
  <course>244.93</course>
  <speed>0.02</speed>
  <fix>3d</fix>
</trkpt>
<trkpt lat="40.0713749" lon="-105.229789">
  <ele>1583.0</ele>
  <time>2026-08-28T17:49:26Z</time>
  <course>0.0</course>
  <speed>0.0</speed>
  <fix>3d</fix>
</trkpt>
<trkpt lat="40.0713747" lon="-105.229789">
  <ele>1583.02</ele>
  <time>2026-08-28T17:49:26Z</time>
  <course>244.93</course>
  <speed>0.02</speed>
  <fix>3d</fix>
</trkpt>
<trkpt lat="40.0713749" lon="-105.229789">
  <ele>1583.0</ele>
  <time>2026-08-28T17:49:26Z</time>
  <course>0.0</course>
  <speed>0.0</speed>
  <fix>3d</fix>
</trkpt>
<trkpt lat="40.0713747" lon="-105.229789">
  <ele>1583.02</ele>
  <time>2026-08-28T17:49:26Z</time>
  <course>244.93</course>
  <speed>0.02</speed>
  <fix>3d</fix>
</trkpt>
<trkpt lat="40.0713749" lon="-105.229789">
  <ele>1583.0</ele>
  <time>2026-08-28T17:49:26Z</time>
  <course>0.0</course>
  <speed>0.0</speed>
  <fix>3d</fix>
</trkpt>
<trkpt lat="40.0713747" lon="-105.229789">
  <ele>1583.02</ele>
  <time>2026-08-28T17:49:26Z</time>
  <course>244.93</course>
  <speed>0.02</speed>
  <fix>3d</fix>
</trkpt>
<trkpt lat="40.0713749" lon="-105.229789">
  <ele>1583.0</ele>
  <time>2026-08-28T17:49:26Z</time>
  <course>0.0</course>
  <speed>0.0</speed>
  <fix>3d</fix>
</trkpt>
<trkpt lat="40.0713747" lon="-105.229789">
  <ele>1583.02</ele>
  <time>2026-08-28T17:49:26Z</time>
  <course>244.93</course>
  <speed>0.02</speed>
  <fix>3d</fix>
</trkpt>
<trkpt lat="40.0713749" lon="-105.229789">
  <ele>1583.0</ele>
  <time>2026-08-28T17:49:26Z</time>
  <course>0.0</course>
  <speed>0.0</speed>
  <fix>3d</fix>
</trkpt>
<trkpt lat="40.0713747" lon="-105.229789">
  <ele>1583.02</ele>
  <time>2026-08-28T17:49:26Z</time>
  <course>244.93</course>
  <speed>0.02</speed>
  <fix>3d</fix>
</trkpt>
<trkpt lat="40.0713749" lon="-105.229789">
  <ele>1583.0</ele>
  <time>2026-08-28T17:49:26Z</time>
  <course>0.0</course>
  <speed>0.0</speed>
  <fix>3d</fix>
</trkpt>
<trkpt lat="40.0713747" lon="-105.229789">
  <ele>1583.02</ele>
  <time>2026-08-28T17:49:26Z</time>
  <course>244.93</course>
  <speed>0.02</speed>
  <fix>3d</fix>
</trkpt>
<trkpt lat="40.0713749" lon="-105.229789">
  <ele>1583.0</ele>
  <time>2026-08-28T17:49:26Z</time>
  <course>0.0</course>
  <speed>0.0</speed>
  <fix>3d</fix>
</trkpt>
<trkpt lat="40.0713747" lon="-105.229789">
  <ele>1583.02</ele>
  <time>2026-08-28T17:49:26Z</time>
  <course>244.93</course>
  <speed>0.02</speed>
  <fix>3d</fix>
</trkpt>
<trkpt lat="40.0713749" lon="-105.229789">
  <ele>1583.0</ele>
  <time>2026-08-28T17:49:26Z</time>
  <course>0.0</course>
  <speed>0.0</speed>
  <fix>3d</fix>
</trkpt>
<trkpt lat="40.0713747" lon="-105.229789">
  <ele>1583.02</ele>
  <time>2026-08-28T17:49:26Z</time>
  <course>244.92</course>
  <speed>0.02</speed>
  <fix>3d</fix>
</trkpt>
<trkpt lat="40.0713749" lon="-105.229789">
  <ele>1583.0</ele>
  <time>2026-08-28T17:49:26Z</time>
  <course>0.0</course>
  <speed>0.0</speed>
  <fix>3d</fix>
</trkpt>
<trkpt lat="40.0713747" lon="-105.229789">
  <ele>1583.02</ele>
  <time>2026-08-28T17:49:26Z</time>
  <course>244.92</course>
  <speed>0.02</speed>
  <fix>3d</fix>
</trkpt>
<trkpt lat="40.0713749" lon="-105.229789">
  <ele>1583.0</ele>
  <time>2026-08-28T17:49:26Z</time>
  <course>0.0</course>
  <speed>0.0</speed>
  <fix>3d</fix>
</trkpt>
<trkpt lat="40.0713747" lon="-105.229789">
  <ele>1583.02</ele>
  <time>2026-08-28T17:49:26Z</time>
  <course>244.92</course>
  <speed>0.02</speed>
  <fix>3d</fix>
</trkpt>
<trkpt lat="40.0713749" lon="-105.229789">
  <ele>1583.0</ele>
  <time>2026-08-28T17:49:26Z</time>
  <course>0.0</course>
  <speed>0.0</speed>
  <fix>3d</fix>
</trkpt>
<trkpt lat="40.0713747" lon="-105.229789">
  <ele>1583.02</ele>
  <time>2026-08-28T17:49:26Z</time>
  <course>244.92</course>
  <speed>0.02</speed>
  <fix>3d</fix>
</trkpt>
<trkpt lat="40.0713749" lon="-105.229789">
  <ele>1583.0</ele>
  <time>2026-08-28T17:49:26Z</time>
  <course>0.0</course>
  <speed>0.0</speed>
  <fix>3d</fix>
</trkpt>
<trkpt lat="40.0713747" lon="-105.229789">
  <ele>1583.03</ele>
  <time>2026-08-28T17:49:26Z</time>
  <course>244.92</course>
  <speed>0.02</speed>
  <fix>3d</fix>
</trkpt>
<trkpt lat="40.0713749" lon="-105.229789">
  <ele>1583.0</ele>
  <time>2026-08-28T17:49:26Z</time>
  <course>0.0</course>
  <speed>0.0</speed>
  <fix>3d</fix>
</trkpt>
<trkpt lat="40.0713747" lon="-105.229789">
  <ele>1583.03</ele>
  <time>2026-08-28T17:49:26Z</time>
  <course>244.92</course>
  <speed>0.02</speed>
  <fix>3d</fix>
</trkpt>
<trkpt lat="40.0713749" lon="-105.229789">
  <ele>1583.0</ele>
  <time>2026-08-28T17:49:26Z</time>
  <course>0.0</course>
  <speed>0.0</speed>
  <fix>3d</fix>
</trkpt>
<trkpt lat="40.0713747" lon="-105.229789">
  <ele>1583.03</ele>
  <time>2026-08-28T17:49:26Z</time>
  <course>244.92</course>
  <speed>0.02</speed>
  <fix>3d</fix>
</trkpt>
<trkpt lat="40.0713749" lon="-105.229789">
  <ele>1583.0</ele>
  <time>2026-08-28T17:49:26Z</time>
  <course>0.0</course>
  <speed>0.0</speed>
  <fix>3d</fix>
</trkpt>
<trkpt lat="40.0713747" lon="-105.229789">
  <ele>1583.03</ele>
  <time>2026-08-28T17:49:26Z</time>
  <course>244.92</course>
  <speed>0.02</speed>
  <fix>3d</fix>
</trkpt>
<trkpt lat="40.0713749" lon="-105.229789">
  <ele>1583.0</ele>
  <time>2026-08-28T17:49:26Z</time>
  <course>0.0</course>
  <speed>0.0</speed>
  <fix>3d</fix>
</trkpt>
<trkpt lat="40.0713747" lon="-105.229789">
  <ele>1583.03</ele>
  <time>2026-08-28T17:49:26Z</time>
  <course>244.92</course>
  <speed>0.02</speed>
  <fix>3d</fix>
</trkpt>
<trkpt lat="40.0713749" lon="-105.229789">
  <ele>1583.0</ele>
  <time>2026-08-28T17:49:26Z</time>
  <course>0.0</course>
  <speed>0.0</speed>
  <fix>3d</fix>
</trkpt>
<trkpt lat="40.0713747" lon="-105.229789">
  <ele>1583.03</ele>
  <time>2026-08-28T17:49:26Z</time>
  <course>244.92</course>
  <speed>0.02</speed>
  <fix>3d</fix>
</trkpt>
<trkpt lat="40.0713749" lon="-105.229789">
  <ele>1583.0</ele>
  <time>2026-08-28T17:49:26Z</time>
  <course>0.0</course>
  <speed>0.0</speed>
  <fix>3d</fix>
</trkpt>
<trkpt lat="40.0713747" lon="-105.229789">
  <ele>1583.03</ele>
  <time>2026-08-28T17:49:26Z</time>
  <course>244.92</course>
  <speed>0.02</speed>
  <fix>3d</fix>
</trkpt>
<trkpt lat="40.0713749" lon="-105.229789">
  <ele>1583.0</ele>
  <time>2026-08-28T17:49:26Z</time>
  <course>0.0</course>
  <speed>0.0</speed>
  <fix>3d</fix>
</trkpt>
<trkpt lat="40.0713747" lon="-105.229789">
  <ele>1583.04</ele>
  <time>2026-08-28T17:49:26Z</time>
  <course>244.92</course>
  <speed>0.02</speed>
  <fix>3d</fix>
</trkpt>
<trkpt lat="40.0713749" lon="-105.229789">
  <ele>1583.0</ele>
  <time>2026-08-28T17:49:26Z</time>
  <course>0.0</course>
  <speed>0.0</speed>
  <fix>3d</fix>
</trkpt>
<trkpt lat="40.0713747" lon="-105.229789">
  <ele>1583.04</ele>
  <time>2026-08-28T17:49:26Z</time>
  <course>244.93</course>
  <speed>0.02</speed>
  <fix>3d</fix>
</trkpt>
<trkpt lat="40.0713749" lon="-105.229789">
  <ele>1583.0</ele>
  <time>2026-08-28T17:49:26Z</time>
  <course>0.0</course>
  <speed>0.0</speed>
  <fix>3d</fix>
</trkpt>
<trkpt lat="40.0713747" lon="-105.229789">
  <ele>1583.04</ele>
  <time>2026-08-28T17:49:26Z</time>
  <course>244.92</course>
  <speed>0.02</speed>
  <fix>3d</fix>
</trkpt>
<trkpt lat="40.0713749" lon="-105.229789">
  <ele>1583.0</ele>
  <time>2026-08-28T17:49:26Z</time>
  <course>0.0</course>
  <speed>0.0</speed>
  <fix>3d</fix>
</trkpt>
<trkpt lat="40.0713747" lon="-105.229789">
  <ele>1583.04</ele>
  <time>2026-08-28T17:49:26Z</time>
  <course>244.92</course>
  <speed>0.02</speed>
  <fix>3d</fix>
</trkpt>
<trkpt lat="40.0713749" lon="-105.229789">
  <ele>1583.0</ele>
  <time>2026-08-28T17:49:26Z</time>
  <course>0.0</course>
  <speed>0.0</speed>
  <fix>3d</fix>
</trkpt>
<trkpt lat="40.0713747" lon="-105.229789">
  <ele>1583.05</ele>
  <time>2026-08-28T17:49:26Z</time>
  <course>244.92</course>
  <speed>0.02</speed>
  <fix>3d</fix>
</trkpt>
<trkpt lat="40.0713749" lon="-105.229789">
  <ele>1583.0</ele>
  <time>2026-08-28T17:49:26Z</time>
  <course>0.0</course>
  <speed>0.0</speed>
  <fix>3d</fix>
</trkpt>
<trkpt lat="40.0713747" lon="-105.229789">
  <ele>1583.06</ele>
  <time>2026-08-28T17:49:26Z</time>
  <course>244.93</course>
  <speed>0.02</speed>
  <fix>3d</fix>
</trkpt>
<trkpt lat="40.0713749" lon="-105.229789">
  <ele>1583.0</ele>
  <time>2026-08-28T17:49:26Z</time>
  <course>0.0</course>
  <speed>0.0</speed>
  <fix>3d</fix>
</trkpt>
<trkpt lat="40.0713747" lon="-105.229789">
  <ele>1583.06</ele>
  <time>2026-08-28T17:49:26Z</time>
  <course>244.93</course>
  <speed>0.02</speed>
  <fix>3d</fix>
</trkpt>
<trkpt lat="40.0713749" lon="-105.229789">
  <ele>1583.0</ele>
  <time>2026-08-28T17:49:26Z</time>
  <course>0.0</course>
  <speed>0.0</speed>
  <fix>3d</fix>
</trkpt>
<trkpt lat="40.0713747" lon="-105.229789">
  <ele>1583.07</ele>
  <time>2026-08-28T17:49:26Z</time>
  <course>244.93</course>
  <speed>0.02</speed>
  <fix>3d</fix>
</trkpt>
<trkpt lat="40.0713749" lon="-105.229789">
  <ele>1583.0</ele>
  <time>2026-08-28T17:49:26Z</time>
  <course>0.0</course>
  <speed>0.0</speed>
  <fix>3d</fix>
</trkpt>
<trkpt lat="40.0713747" lon="-105.229789">
  <ele>1583.07</ele>
  <time>2026-08-28T17:49:26Z</time>
  <course>244.92</course>
  <speed>0.02</speed>
  <fix>3d</fix>
</trkpt>
<trkpt lat="40.0713749" lon="-105.229789">
  <ele>1583.0</ele>
  <time>2026-08-28T17:49:26Z</time>
  <course>0.0</course>
  <speed>0.0</speed>
  <fix>3d</fix>
</trkpt>
<trkpt lat="40.0713747" lon="-105.229789">
  <ele>1583.08</ele>
  <time>2026-08-28T17:49:26Z</time>
  <course>244.92</course>
  <speed>0.02</speed>
  <fix>3d</fix>
</trkpt>
<trkpt lat="40.0713749" lon="-105.229789">
  <ele>1583.0</ele>
  <time>2026-08-28T17:49:26Z</time>
  <course>0.0</course>
  <speed>0.0</speed>
  <fix>3d</fix>
</trkpt>
<trkpt lat="40.0713747" lon="-105.229789">
  <ele>1583.08</ele>
  <time>2026-08-28T17:49:26Z</time>
  <course>244.92</course>
  <speed>0.02</speed>
  <fix>3d</fix>
</trkpt>
<trkpt lat="40.0713749" lon="-105.229789">
  <ele>1583.0</ele>
  <time>2026-08-28T17:49:26Z</time>
  <course>0.0</course>
  <speed>0.0</speed>
  <fix>3d</fix>
</trkpt>
<trkpt lat="40.0713747" lon="-105.229789">
  <ele>1583.09</ele>
  <time>2026-08-28T17:49:26Z</time>
  <course>244.92</course>
  <speed>0.02</speed>
  <fix>3d</fix>
</trkpt>
<trkpt lat="40.0713749" lon="-105.229789">
  <ele>1583.0</ele>
  <time>2026-08-28T17:49:26Z</time>
  <course>0.0</course>
  <speed>0.0</speed>
  <fix>3d</fix>
</trkpt>
<trkpt lat="40.0713747" lon="-105.229789">
  <ele>1583.1</ele>
  <time>2026-08-28T17:49:26Z</time>
  <course>244.92</course>
  <speed>0.02</speed>
  <fix>3d</fix>
</trkpt>
<trkpt lat="40.0713749" lon="-105.229789">
  <ele>1583.0</ele>
  <time>2026-08-28T17:49:26Z</time>
  <course>0.0</course>
  <speed>0.0</speed>
  <fix>3d</fix>
</trkpt>
<trkpt lat="40.0713747" lon="-105.229789">
  <ele>1583.1</ele>
  <time>2026-08-28T17:49:26Z</time>
  <course>244.92</course>
  <speed>0.02</speed>
  <fix>3d</fix>
</trkpt>
<trkpt lat="40.0713749" lon="-105.229789">
  <ele>1583.0</ele>
  <time>2026-08-28T17:49:26Z</time>
  <course>0.0</course>
  <speed>0.0</speed>
  <fix>3d</fix>
</trkpt>
<trkpt lat="40.0713747" lon="-105.229789">
  <ele>1583.11</ele>
  <time>2026-08-28T17:49:26Z</time>
  <course>244.92</course>
  <speed>0.02</speed>
  <fix>3d</fix>
</trkpt>
<trkpt lat="40.0713749" lon="-105.229789">
  <ele>1583.0</ele>
  <time>2026-08-28T17:49:26Z</time>
  <course>0.0</course>
  <speed>0.0</speed>
  <fix>3d</fix>
</trkpt>
<trkpt lat="40.0713747" lon="-105.229789">
  <ele>1583.11</ele>
  <time>2026-08-28T17:49:26Z</time>
  <course>244.92</course>
  <speed>0.02</speed>
  <fix>3d</fix>
</trkpt>
<trkpt lat="40.0713749" lon="-105.229789">
  <ele>1583.0</ele>
  <time>2026-08-28T17:49:26Z</time>
  <course>0.0</course>
  <speed>0.0</speed>
  <fix>3d</fix>
</trkpt>
<trkpt lat="40.0713747" lon="-105.229789">
  <ele>1583.11</ele>
  <time>2026-08-28T17:49:26Z</time>
  <course>244.92</course>
  <speed>0.02</speed>
  <fix>3d</fix>
</trkpt>
<trkpt lat="40.0713749" lon="-105.229789">
  <ele>1583.0</ele>
  <time>2026-08-28T17:49:26Z</time>
  <course>0.0</course>
  <speed>0.0</speed>
  <fix>3d</fix>
</trkpt>
<trkpt lat="40.0713747" lon="-105.229789">
  <ele>1583.12</ele>
  <time>2026-08-28T17:49:26Z</time>
  <course>244.92</course>
  <speed>0.02</speed>
  <fix>3d</fix>
</trkpt>
<trkpt lat="40.0713749" lon="-105.229789">
  <ele>1583.0</ele>
  <time>2026-08-28T17:49:26Z</time>
  <course>0.0</course>
  <speed>0.0</speed>
  <fix>3d</fix>
</trkpt>
<trkpt lat="40.0713747" lon="-105.229789">
  <ele>1583.12</ele>
  <time>2026-08-28T17:49:26Z</time>
  <course>244.92</course>
  <speed>0.02</speed>
  <fix>3d</fix>
</trkpt>
<trkpt lat="40.0713749" lon="-105.229789">
  <ele>1583.0</ele>
  <time>2026-08-28T17:49:26Z</time>
  <course>0.0</course>
  <speed>0.0</speed>
  <fix>3d</fix>
</trkpt>
<trkpt lat="40.0713747" lon="-105.229789">
  <ele>1583.12</ele>
  <time>2026-08-28T17:49:26Z</time>
  <course>244.92</course>
  <speed>0.02</speed>
  <fix>3d</fix>
</trkpt>
<trkpt lat="40.0713749" lon="-105.229789">
  <ele>1583.0</ele>
  <time>2026-08-28T17:49:26Z</time>
  <course>0.0</course>
  <speed>0.0</speed>
  <fix>3d</fix>
</trkpt>
<trkpt lat="40.0713747" lon="-105.229789">
  <ele>1583.13</ele>
  <time>2026-08-28T17:49:26Z</time>
  <course>244.92</course>
  <speed>0.02</speed>
  <fix>3d</fix>
</trkpt>
<trkpt lat="40.0713749" lon="-105.229789">
  <ele>1583.0</ele>
  <time>2026-08-28T17:49:26Z</time>
  <course>0.0</course>
  <speed>0.0</speed>
  <fix>3d</fix>
</trkpt>
<trkpt lat="40.0713747" lon="-105.229789">
  <ele>1583.13</ele>
  <time>2026-08-28T17:49:26Z</time>
  <course>244.92</course>
  <speed>0.02</speed>
  <fix>3d</fix>
</trkpt>
<trkpt lat="40.0713749" lon="-105.229789">
  <ele>1583.0</ele>
  <time>2026-08-28T17:49:26Z</time>
  <course>0.0</course>
  <speed>0.0</speed>
  <fix>3d</fix>
</trkpt>
<trkpt lat="40.0713747" lon="-105.229789">
  <ele>1583.12</ele>
  <time>2026-08-28T17:49:26Z</time>
  <course>244.92</course>
  <speed>0.02</speed>
  <fix>3d</fix>
</trkpt>
<trkpt lat="40.0713749" lon="-105.229789">
  <ele>1583.0</ele>
  <time>2026-08-28T17:49:26Z</time>
  <course>0.0</course>
  <speed>0.0</speed>
  <fix>3d</fix>
</trkpt>
<trkpt lat="40.0713747" lon="-105.229789">
  <ele>1583.12</ele>
  <time>2026-08-28T17:49:26Z</time>
  <course>244.92</course>
  <speed>0.02</speed>
  <fix>3d</fix>
</trkpt>
<trkpt lat="40.0713749" lon="-105.229789">
  <ele>1583.0</ele>
  <time>2026-08-28T17:49:26Z</time>
  <course>0.0</course>
  <speed>0.0</speed>
  <fix>3d</fix>
</trkpt>
<trkpt lat="40.0713747" lon="-105.229789">
  <ele>1583.11</ele>
  <time>2026-08-28T17:49:26Z</time>
  <course>244.92</course>
  <speed>0.02</speed>
  <fix>3d</fix>
</trkpt>
<trkpt lat="40.0713749" lon="-105.229789">
  <ele>1583.0</ele>
  <time>2026-08-28T17:49:26Z</time>
  <course>0.0</course>
  <speed>0.0</speed>
  <fix>3d</fix>
</trkpt>
<trkpt lat="40.0713747" lon="-105.229789">
  <ele>1583.1</ele>
  <time>2026-08-28T17:49:26Z</time>
  <course>244.92</course>
  <speed>0.02</speed>
  <fix>3d</fix>
</trkpt>
<trkpt lat="40.0713749" lon="-105.229789">
  <ele>1583.0</ele>
  <time>2026-08-28T17:49:26Z</time>
  <course>0.0</course>
  <speed>0.0</speed>
  <fix>3d</fix>
</trkpt>
<trkpt lat="40.0713747" lon="-105.229789">
  <ele>1583.09</ele>
  <time>2026-08-28T17:49:26Z</time>
  <course>244.93</course>
  <speed>0.02</speed>
  <fix>3d</fix>
</trkpt>
<trkpt lat="40.0713749" lon="-105.229789">
  <ele>1583.0</ele>
  <time>2026-08-28T17:49:26Z</time>
  <course>0.0</course>
  <speed>0.0</speed>
  <fix>3d</fix>
</trkpt>
<trkpt lat="40.0713747" lon="-105.229789">
  <ele>1583.08</ele>
  <time>2026-08-28T17:49:26Z</time>
  <course>244.93</course>
  <speed>0.02</speed>
  <fix>3d</fix>
</trkpt>
<trkpt lat="40.0713749" lon="-105.229789">
  <ele>1583.0</ele>
  <time>2026-08-28T17:49:26Z</time>
  <course>0.0</course>
  <speed>0.0</speed>
  <fix>3d</fix>
</trkpt>
<trkpt lat="40.0713747" lon="-105.229789">
  <ele>1583.07</ele>
  <time>2026-08-28T17:49:26Z</time>
  <course>244.92</course>
  <speed>0.02</speed>
  <fix>3d</fix>
</trkpt>
<trkpt lat="40.0713749" lon="-105.229789">
  <ele>1583.0</ele>
  <time>2026-08-28T17:49:26Z</time>
  <course>0.0</course>
  <speed>0.0</speed>
  <fix>3d</fix>
</trkpt>
<trkpt lat="40.0713747" lon="-105.229789">
  <ele>1583.06</ele>
  <time>2026-08-28T17:49:26Z</time>
  <course>244.92</course>
  <speed>0.02</speed>
  <fix>3d</fix>
</trkpt>
<trkpt lat="40.0713749" lon="-105.229789">
  <ele>1583.0</ele>
  <time>2026-08-28T17:49:26Z</time>
  <course>0.0</course>
  <speed>0.0</speed>
  <fix>3d</fix>
</trkpt>
<trkpt lat="40.0713747" lon="-105.229789">
  <ele>1583.06</ele>
  <time>2026-08-28T17:49:26Z</time>
  <course>244.92</course>
  <speed>0.02</speed>
  <fix>3d</fix>
</trkpt>
<trkpt lat="40.0713749" lon="-105.229789">
  <ele>1583.0</ele>
  <time>2026-08-28T17:49:26Z</time>
  <course>0.0</course>
  <speed>0.0</speed>
  <fix>3d</fix>
</trkpt>
<trkpt lat="40.0713747" lon="-105.229789">
  <ele>1583.05</ele>
  <time>2026-08-28T17:49:26Z</time>
  <course>244.93</course>
  <speed>0.02</speed>
  <fix>3d</fix>
</trkpt>
<trkpt lat="40.0713749" lon="-105.229789">
  <ele>1583.0</ele>
  <time>2026-08-28T17:49:26Z</time>
  <course>0.0</course>
  <speed>0.0</speed>
  <fix>3d</fix>
</trkpt>
<trkpt lat="40.0713747" lon="-105.229789">
  <ele>1583.05</ele>
  <time>2026-08-28T17:49:26Z</time>
  <course>244.92</course>
  <speed>0.02</speed>
  <fix>3d</fix>
</trkpt>
<trkpt lat="40.0713749" lon="-105.229789">
  <ele>1583.0</ele>
  <time>2026-08-28T17:49:26Z</time>
  <course>0.0</course>
  <speed>0.0</speed>
  <fix>3d</fix>
</trkpt>
<trkpt lat="40.0713747" lon="-105.229789">
  <ele>1583.04</ele>
  <time>2026-08-28T17:49:26Z</time>
  <course>244.92</course>
  <speed>0.02</speed>
  <fix>3d</fix>
</trkpt>
<trkpt lat="40.0713749" lon="-105.229789">
  <ele>1583.0</ele>
  <time>2026-08-28T17:49:26Z</time>
  <course>0.0</course>
  <speed>0.0</speed>
  <fix>3d</fix>
</trkpt>
<trkpt lat="40.0713747" lon="-105.229789">
  <ele>1583.04</ele>
  <time>2026-08-28T17:49:26Z</time>
  <course>244.92</course>
  <speed>0.02</speed>
  <fix>3d</fix>
</trkpt>
<trkpt lat="40.0713749" lon="-105.229789">
  <ele>1583.0</ele>
  <time>2026-08-28T17:49:26Z</time>
  <course>0.0</course>
  <speed>0.0</speed>
  <fix>3d</fix>
</trkpt>
<trkpt lat="40.0713747" lon="-105.229789">
  <ele>1583.04</ele>
  <time>2026-08-28T17:49:26Z</time>
  <course>244.92</course>
  <speed>0.02</speed>
  <fix>3d</fix>
</trkpt>
<trkpt lat="40.0713749" lon="-105.229789">
  <ele>1583.0</ele>
  <time>2026-08-28T17:49:26Z</time>
  <course>0.0</course>
  <speed>0.0</speed>
  <fix>3d</fix>
</trkpt>
<trkpt lat="40.0713747" lon="-105.229789">
  <ele>1583.04</ele>
  <time>2026-08-28T17:49:26Z</time>
  <course>244.92</course>
  <speed>0.02</speed>
  <fix>3d</fix>
</trkpt>
<trkpt lat="40.0713749" lon="-105.229789">
  <ele>1583.0</ele>
  <time>2026-08-28T17:49:26Z</time>
  <course>0.0</course>
  <speed>0.0</speed>
  <fix>3d</fix>
</trkpt>
<trkpt lat="40.0713747" lon="-105.229789">
  <ele>1583.03</ele>
  <time>2026-08-28T17:49:26Z</time>
  <course>244.92</course>
  <speed>0.02</speed>
  <fix>3d</fix>
</trkpt>
<trkpt lat="40.0713749" lon="-105.229789">
  <ele>1583.0</ele>
  <time>2026-08-28T17:49:26Z</time>
  <course>0.0</course>
  <speed>0.0</speed>
  <fix>3d</fix>
</trkpt>
<trkpt lat="40.0713747" lon="-105.229789">
  <ele>1583.03</ele>
  <time>2026-08-28T17:49:26Z</time>
  <course>244.92</course>
  <speed>0.02</speed>
  <fix>3d</fix>
</trkpt>
<trkpt lat="40.0713749" lon="-105.229789">
  <ele>1583.0</ele>
  <time>2026-08-28T17:49:26Z</time>
  <course>0.0</course>
  <speed>0.0</speed>
  <fix>3d</fix>
</trkpt>
<trkpt lat="40.0713747" lon="-105.229789">
  <ele>1583.02</ele>
  <time>2026-08-28T17:49:26Z</time>
  <course>244.92</course>
  <speed>0.02</speed>
  <fix>3d</fix>
</trkpt>
<trkpt lat="40.0713749" lon="-105.229789">
  <ele>1583.0</ele>
  <time>2026-08-28T17:49:26Z</time>
  <course>0.0</course>
  <speed>0.0</speed>
  <fix>3d</fix>
</trkpt>
<trkpt lat="40.0713747" lon="-105.229789">
  <ele>1583.02</ele>
  <time>2026-08-28T17:49:26Z</time>
  <course>244.92</course>
  <speed>0.02</speed>
  <fix>3d</fix>
</trkpt>
<trkpt lat="40.0713749" lon="-105.229789">
  <ele>1583.0</ele>
  <time>2026-08-28T17:49:26Z</time>
  <course>0.0</course>
  <speed>0.0</speed>
  <fix>3d</fix>
</trkpt>
<trkpt lat="40.0713747" lon="-105.229789">
  <ele>1583.02</ele>
  <time>2026-08-28T17:49:26Z</time>
  <course>244.92</course>
  <speed>0.02</speed>
  <fix>3d</fix>
</trkpt>
<trkpt lat="40.0713749" lon="-105.229789">
  <ele>1583.0</ele>
  <time>2026-08-28T17:49:26Z</time>
  <course>0.0</course>
  <speed>0.0</speed>
  <fix>3d</fix>
</trkpt>
<trkpt lat="40.0713748" lon="-105.229789">
  <ele>1583.02</ele>
  <time>2026-08-28T17:49:26Z</time>
  <course>244.92</course>
  <speed>0.02</speed>
  <fix>3d</fix>
</trkpt>
<trkpt lat="40.0713749" lon="-105.229789">
  <ele>1583.0</ele>
  <time>2026-08-28T17:49:26Z</time>
  <course>0.0</course>
  <speed>0.0</speed>
  <fix>3d</fix>
</trkpt>
<trkpt lat="40.0713747" lon="-105.229789">
  <ele>1583.02</ele>
  <time>2026-08-28T17:49:26Z</time>
  <course>244.92</course>
  <speed>0.02</speed>
  <fix>3d</fix>
</trkpt>
<trkpt lat="40.0713749" lon="-105.229789">
  <ele>1583.0</ele>
  <time>2026-08-28T17:49:26Z</time>
  <course>0.0</course>
  <speed>0.0</speed>
  <fix>3d</fix>
</trkpt>
<trkpt lat="40.0713748" lon="-105.229789">
  <ele>1583.02</ele>
  <time>2026-08-28T17:49:26Z</time>
  <course>244.93</course>
  <speed>0.02</speed>
  <fix>3d</fix>
</trkpt>
<trkpt lat="40.0713749" lon="-105.229789">
  <ele>1583.0</ele>
  <time>2026-08-28T17:49:26Z</time>
  <course>0.0</course>
  <speed>0.0</speed>
  <fix>3d</fix>
</trkpt>
<trkpt lat="40.0713747" lon="-105.229789">
  <ele>1583.03</ele>
  <time>2026-08-28T17:49:26Z</time>
  <course>244.93</course>
  <speed>0.02</speed>
  <fix>3d</fix>
</trkpt>
<trkpt lat="40.0713749" lon="-105.229789">
  <ele>1583.0</ele>
  <time>2026-08-28T17:49:26Z</time>
  <course>0.0</course>
  <speed>0.0</speed>
  <fix>3d</fix>
</trkpt>
<trkpt lat="40.0713748" lon="-105.229789">
  <ele>1583.03</ele>
  <time>2026-08-28T17:49:26Z</time>
  <course>244.93</course>
  <speed>0.02</speed>
  <fix>3d</fix>
</trkpt>
<trkpt lat="40.0713749" lon="-105.229789">
  <ele>1583.0</ele>
  <time>2026-08-28T17:49:26Z</time>
  <course>0.0</course>
  <speed>0.0</speed>
  <fix>3d</fix>
</trkpt>
<trkpt lat="40.0713747" lon="-105.229789">
  <ele>1583.04</ele>
  <time>2026-08-28T17:49:26Z</time>
  <course>244.93</course>
  <speed>0.02</speed>
  <fix>3d</fix>
</trkpt>
<trkpt lat="40.0713749" lon="-105.229789">
  <ele>1583.0</ele>
  <time>2026-08-28T17:49:26Z</time>
  <course>0.0</course>
  <speed>0.0</speed>
  <fix>3d</fix>
</trkpt>
<trkpt lat="40.0713748" lon="-105.229789">
  <ele>1583.04</ele>
  <time>2026-08-28T17:49:26Z</time>
  <course>244.93</course>
  <speed>0.02</speed>
  <fix>3d</fix>
</trkpt>
<trkpt lat="40.0713749" lon="-105.229789">
  <ele>1583.0</ele>
  <time>2026-08-28T17:49:26Z</time>
  <course>0.0</course>
  <speed>0.0</speed>
  <fix>3d</fix>
</trkpt>
<trkpt lat="40.0713747" lon="-105.229789">
  <ele>1583.05</ele>
  <time>2026-08-28T17:49:26Z</time>
  <course>244.93</course>
  <speed>0.02</speed>
  <fix>3d</fix>
</trkpt>
<trkpt lat="40.0713749" lon="-105.229789">
  <ele>1583.0</ele>
  <time>2026-08-28T17:49:26Z</time>
  <course>0.0</course>
  <speed>0.0</speed>
  <fix>3d</fix>
</trkpt>
<trkpt lat="40.0713748" lon="-105.229789">
  <ele>1583.05</ele>
  <time>2026-08-28T17:49:26Z</time>
  <course>244.93</course>
  <speed>0.02</speed>
  <fix>3d</fix>
</trkpt>
<trkpt lat="40.0713749" lon="-105.229789">
  <ele>1583.0</ele>
  <time>2026-08-28T17:49:26Z</time>
  <course>0.0</course>
  <speed>0.0</speed>
  <fix>3d</fix>
</trkpt>
<trkpt lat="40.0713747" lon="-105.229789">
  <ele>1583.05</ele>
  <time>2026-08-28T17:49:26Z</time>
  <course>244.93</course>
  <speed>0.02</speed>
  <fix>3d</fix>
</trkpt>
<trkpt lat="40.0713749" lon="-105.229789">
  <ele>1583.0</ele>
  <time>2026-08-28T17:49:26Z</time>
  <course>0.0</course>
  <speed>0.0</speed>
  <fix>3d</fix>
</trkpt>
<trkpt lat="40.0713747" lon="-105.229789">
  <ele>1583.05</ele>
  <time>2026-08-28T17:49:26Z</time>
  <course>244.93</course>
  <speed>0.02</speed>
  <fix>3d</fix>
</trkpt>
<trkpt lat="40.0713749" lon="-105.229789">
  <ele>1583.0</ele>
  <time>2026-08-28T17:49:26Z</time>
  <course>0.0</course>
  <speed>0.0</speed>
  <fix>3d</fix>
</trkpt>
<trkpt lat="40.0713747" lon="-105.229789">
  <ele>1583.05</ele>
  <time>2026-08-28T17:49:26Z</time>
  <course>244.93</course>
  <speed>0.02</speed>
  <fix>3d</fix>
</trkpt>
<trkpt lat="40.0713749" lon="-105.229789">
  <ele>1583.0</ele>
  <time>2026-08-28T17:49:26Z</time>
  <course>0.0</course>
  <speed>0.0</speed>
  <fix>3d</fix>
</trkpt>
<trkpt lat="40.0713747" lon="-105.229789">
  <ele>1583.05</ele>
  <time>2026-08-28T17:49:26Z</time>
  <course>244.93</course>
  <speed>0.02</speed>
  <fix>3d</fix>
</trkpt>
<trkpt lat="40.0713749" lon="-105.229789">
  <ele>1583.0</ele>
  <time>2026-08-28T17:49:26Z</time>
  <course>0.0</course>
  <speed>0.0</speed>
  <fix>3d</fix>
</trkpt>
<trkpt lat="40.0713747" lon="-105.229789">
  <ele>1583.04</ele>
  <time>2026-08-28T17:49:26Z</time>
  <course>244.93</course>
  <speed>0.02</speed>
  <fix>3d</fix>
</trkpt>
<trkpt lat="40.0713749" lon="-105.229789">
  <ele>1583.0</ele>
  <time>2026-08-28T17:49:26Z</time>
  <course>0.0</course>
  <speed>0.0</speed>
  <fix>3d</fix>
</trkpt>
<trkpt lat="40.0713747" lon="-105.229789">
  <ele>1583.03</ele>
  <time>2026-08-28T17:49:26Z</time>
  <course>244.93</course>
  <speed>0.02</speed>
  <fix>3d</fix>
</trkpt>
<trkpt lat="40.0713749" lon="-105.229789">
  <ele>1583.0</ele>
  <time>2026-08-28T17:49:26Z</time>
  <course>0.0</course>
  <speed>0.0</speed>
  <fix>3d</fix>
</trkpt>
<trkpt lat="40.0713747" lon="-105.229789">
  <ele>1583.02</ele>
  <time>2026-08-28T17:49:26Z</time>
  <course>244.92</course>
  <speed>0.02</speed>
  <fix>3d</fix>
</trkpt>
<trkpt lat="40.0713749" lon="-105.229789">
  <ele>1583.0</ele>
  <time>2026-08-28T17:49:26Z</time>
  <course>0.0</course>
  <speed>0.0</speed>
  <fix>3d</fix>
</trkpt>
<trkpt lat="40.0713747" lon="-105.229789">
  <ele>1583.02</ele>
  <time>2026-08-28T17:49:26Z</time>
  <course>244.92</course>
  <speed>0.02</speed>
  <fix>3d</fix>
</trkpt>
<trkpt lat="40.0713749" lon="-105.229789">
  <ele>1583.0</ele>
  <time>2026-08-28T17:49:26Z</time>
  <course>0.0</course>
  <speed>0.0</speed>
  <fix>3d</fix>
</trkpt>
<trkpt lat="40.0713747" lon="-105.229789">
  <ele>1583.01</ele>
  <time>2026-08-28T17:49:26Z</time>
  <course>244.92</course>
  <speed>0.02</speed>
  <fix>3d</fix>
</trkpt>
<trkpt lat="40.0713749" lon="-105.229789">
  <ele>1583.0</ele>
  <time>2026-08-28T17:49:26Z</time>
  <course>0.0</course>
  <speed>0.0</speed>
  <fix>3d</fix>
</trkpt>
<trkpt lat="40.0713748" lon="-105.229789">
  <ele>1583.01</ele>
  <time>2026-08-28T17:49:26Z</time>
  <course>244.92</course>
  <speed>0.02</speed>
  <fix>3d</fix>
</trkpt>
<trkpt lat="40.0713749" lon="-105.229789">
  <ele>1583.0</ele>
  <time>2026-08-28T17:49:26Z</time>
  <course>0.0</course>
  <speed>0.0</speed>
  <fix>3d</fix>
</trkpt>
<trkpt lat="40.0713747" lon="-105.229789">
  <ele>1583.01</ele>
  <time>2026-08-28T17:49:26Z</time>
  <course>244.92</course>
  <speed>0.02</speed>
  <fix>3d</fix>
</trkpt>
<trkpt lat="40.0713749" lon="-105.229789">
  <ele>1583.0</ele>
  <time>2026-08-28T17:49:26Z</time>
  <course>0.0</course>
  <speed>0.0</speed>
  <fix>3d</fix>
</trkpt>
<trkpt lat="40.0713748" lon="-105.229789">
  <ele>1583.0</ele>
  <time>2026-08-28T17:49:26Z</time>
  <course>244.92</course>
  <speed>0.02</speed>
  <fix>3d</fix>
</trkpt>
<trkpt lat="40.0713749" lon="-105.229789">
  <ele>1583.0</ele>
  <time>2026-08-28T17:49:26Z</time>
  <course>0.0</course>
  <speed>0.0</speed>
  <fix>3d</fix>
</trkpt>
<trkpt lat="40.0713747" lon="-105.229789">
  <ele>1582.99</ele>
  <time>2026-08-28T17:49:26Z</time>
  <course>244.92</course>
  <speed>0.02</speed>
  <fix>3d</fix>
</trkpt>
<trkpt lat="40.0713749" lon="-105.229789">
  <ele>1583.0</ele>
  <time>2026-08-28T17:49:26Z</time>
  <course>0.0</course>
  <speed>0.0</speed>
  <fix>3d</fix>
</trkpt>
<trkpt lat="40.0713748" lon="-105.229789">
  <ele>1582.99</ele>
  <time>2026-08-28T17:49:26Z</time>
  <course>244.92</course>
  <speed>0.02</speed>
  <fix>3d</fix>
</trkpt>
<trkpt lat="40.0713749" lon="-105.229789">
  <ele>1583.0</ele>
  <time>2026-08-28T17:49:26Z</time>
  <course>0.0</course>
  <speed>0.0</speed>
  <fix>3d</fix>
</trkpt>
<trkpt lat="40.0713747" lon="-105.229789">
  <ele>1582.98</ele>
  <time>2026-08-28T17:49:26Z</time>
  <course>244.92</course>
  <speed>0.02</speed>
  <fix>3d</fix>
</trkpt>
<trkpt lat="40.0713749" lon="-105.229789">
  <ele>1583.0</ele>
  <time>2026-08-28T17:49:26Z</time>
  <course>0.0</course>
  <speed>0.0</speed>
  <fix>3d</fix>
</trkpt>
<trkpt lat="40.0713748" lon="-105.229789">
  <ele>1582.97</ele>
  <time>2026-08-28T17:49:26Z</time>
  <course>244.92</course>
  <speed>0.02</speed>
  <fix>3d</fix>
</trkpt>
<trkpt lat="40.0713749" lon="-105.229789">
  <ele>1583.0</ele>
  <time>2026-08-28T17:49:26Z</time>
  <course>0.0</course>
  <speed>0.0</speed>
  <fix>3d</fix>
</trkpt>
<trkpt lat="40.0713747" lon="-105.229789">
  <ele>1582.97</ele>
  <time>2026-08-28T17:49:26Z</time>
  <course>244.92</course>
  <speed>0.02</speed>
  <fix>3d</fix>
</trkpt>
<trkpt lat="40.0713749" lon="-105.229789">
  <ele>1583.0</ele>
  <time>2026-08-28T17:49:26Z</time>
  <course>0.0</course>
  <speed>0.0</speed>
  <fix>3d</fix>
</trkpt>
<trkpt lat="40.0713748" lon="-105.229789">
  <ele>1582.97</ele>
  <time>2026-08-28T17:49:26Z</time>
  <course>244.93</course>
  <speed>0.02</speed>
  <fix>3d</fix>
</trkpt>
<trkpt lat="40.0713749" lon="-105.229789">
  <ele>1583.0</ele>
  <time>2026-08-28T17:49:26Z</time>
  <course>0.0</course>
  <speed>0.0</speed>
  <fix>3d</fix>
</trkpt>
<trkpt lat="40.0713747" lon="-105.229789">
  <ele>1582.96</ele>
  <time>2026-08-28T17:49:26Z</time>
  <course>244.93</course>
  <speed>0.02</speed>
  <fix>3d</fix>
</trkpt>
<trkpt lat="40.0713749" lon="-105.229789">
  <ele>1583.0</ele>
  <time>2026-08-28T17:49:26Z</time>
  <course>0.0</course>
  <speed>0.0</speed>
  <fix>3d</fix>
</trkpt>
<trkpt lat="40.0713748" lon="-105.229789">
  <ele>1582.96</ele>
  <time>2026-08-28T17:49:26Z</time>
  <course>244.93</course>
  <speed>0.02</speed>
  <fix>3d</fix>
</trkpt>
<trkpt lat="40.0713749" lon="-105.229789">
  <ele>1583.0</ele>
  <time>2026-08-28T17:49:26Z</time>
  <course>0.0</course>
  <speed>0.0</speed>
  <fix>3d</fix>
</trkpt>
<trkpt lat="40.0713747" lon="-105.229789">
  <ele>1582.95</ele>
  <time>2026-08-28T17:49:26Z</time>
  <course>244.93</course>
  <speed>0.02</speed>
  <fix>3d</fix>
</trkpt>
<trkpt lat="40.0713749" lon="-105.229789">
  <ele>1583.0</ele>
  <time>2026-08-28T17:49:26Z</time>
  <course>0.0</course>
  <speed>0.0</speed>
  <fix>3d</fix>
</trkpt>
<trkpt lat="40.0713748" lon="-105.229789">
  <ele>1582.95</ele>
  <time>2026-08-28T17:49:26Z</time>
  <course>244.93</course>
  <speed>0.02</speed>
  <fix>3d</fix>
</trkpt>
<trkpt lat="40.0713749" lon="-105.229789">
  <ele>1583.0</ele>
  <time>2026-08-28T17:49:26Z</time>
  <course>0.0</course>
  <speed>0.0</speed>
  <fix>3d</fix>
</trkpt>
<trkpt lat="40.0713747" lon="-105.229789">
  <ele>1582.94</ele>
  <time>2026-08-28T17:49:26Z</time>
  <course>244.93</course>
  <speed>0.02</speed>
  <fix>3d</fix>
</trkpt>
<trkpt lat="40.0713749" lon="-105.229789">
  <ele>1583.0</ele>
  <time>2026-08-28T17:49:26Z</time>
  <course>0.0</course>
  <speed>0.0</speed>
  <fix>3d</fix>
</trkpt>
<trkpt lat="40.0713747" lon="-105.229789">
  <ele>1582.94</ele>
  <time>2026-08-28T17:49:26Z</time>
  <course>244.93</course>
  <speed>0.02</speed>
  <fix>3d</fix>
</trkpt>
<trkpt lat="40.0713749" lon="-105.229789">
  <ele>1583.0</ele>
  <time>2026-08-28T17:49:26Z</time>
  <course>0.0</course>
  <speed>0.0</speed>
  <fix>3d</fix>
</trkpt>
<trkpt lat="40.0713747" lon="-105.229789">
  <ele>1582.94</ele>
  <time>2026-08-28T17:49:26Z</time>
  <course>244.93</course>
  <speed>0.02</speed>
  <fix>3d</fix>
</trkpt>
<trkpt lat="40.0713749" lon="-105.229789">
  <ele>1583.0</ele>
  <time>2026-08-28T17:49:26Z</time>
  <course>0.0</course>
  <speed>0.0</speed>
  <fix>3d</fix>
</trkpt>
<trkpt lat="40.0713747" lon="-105.229789">
  <ele>1582.93</ele>
  <time>2026-08-28T17:49:26Z</time>
  <course>244.93</course>
  <speed>0.02</speed>
  <fix>3d</fix>
</trkpt>
<trkpt lat="40.0713749" lon="-105.229789">
  <ele>1583.0</ele>
  <time>2026-08-28T17:49:26Z</time>
  <course>0.0</course>
  <speed>0.0</speed>
  <fix>3d</fix>
</trkpt>
<trkpt lat="40.0713747" lon="-105.229789">
  <ele>1582.93</ele>
  <time>2026-08-28T17:49:26Z</time>
  <course>244.93</course>
  <speed>0.02</speed>
  <fix>3d</fix>
</trkpt>
<trkpt lat="40.0713749" lon="-105.229789">
  <ele>1583.0</ele>
  <time>2026-08-28T17:49:26Z</time>
  <course>0.0</course>
  <speed>0.0</speed>
  <fix>3d</fix>
</trkpt>
<trkpt lat="40.0713747" lon="-105.229789">
  <ele>1582.92</ele>
  <time>2026-08-28T17:49:26Z</time>
  <course>244.93</course>
  <speed>0.02</speed>
  <fix>3d</fix>
</trkpt>
<trkpt lat="40.0713749" lon="-105.229789">
  <ele>1583.0</ele>
  <time>2026-08-28T17:49:26Z</time>
  <course>0.0</course>
  <speed>0.0</speed>
  <fix>3d</fix>
</trkpt>
<trkpt lat="40.0713747" lon="-105.2297891">
  <ele>1582.92</ele>
  <time>2026-08-28T17:49:26Z</time>
  <course>244.93</course>
  <speed>0.02</speed>
  <fix>3d</fix>
</trkpt>
<trkpt lat="40.0713749" lon="-105.229789">
  <ele>1583.0</ele>
  <time>2026-08-28T17:49:26Z</time>
  <course>0.0</course>
  <speed>0.0</speed>
  <fix>3d</fix>
</trkpt>
<trkpt lat="40.0713748" lon="-105.229789">
  <ele>1582.91</ele>
  <time>2026-08-28T17:49:26Z</time>
  <course>244.93</course>
  <speed>0.02</speed>
  <fix>3d</fix>
</trkpt>
<trkpt lat="40.0713749" lon="-105.229789">
  <ele>1583.0</ele>
  <time>2026-08-28T17:49:26Z</time>
  <course>0.0</course>
  <speed>0.0</speed>
  <fix>3d</fix>
</trkpt>
<trkpt lat="40.0713747" lon="-105.229789">
  <ele>1582.91</ele>
  <time>2026-08-28T17:49:26Z</time>
  <course>244.93</course>
  <speed>0.02</speed>
  <fix>3d</fix>
</trkpt>
<trkpt lat="40.0713749" lon="-105.229789">
  <ele>1583.0</ele>
  <time>2026-08-28T17:49:26Z</time>
  <course>0.0</course>
  <speed>0.0</speed>
  <fix>3d</fix>
</trkpt>
<trkpt lat="40.0713748" lon="-105.229789">
  <ele>1582.91</ele>
  <time>2026-08-28T17:49:27Z</time>
  <course>244.93</course>
  <speed>0.02</speed>
  <fix>3d</fix>
</trkpt>
<trkpt lat="40.0713749" lon="-105.229789">
  <ele>1583.0</ele>
  <time>2026-08-28T17:49:27Z</time>
  <course>0.0</course>
  <speed>0.0</speed>
  <fix>3d</fix>
</trkpt>
<trkpt lat="40.0713747" lon="-105.229789">
  <ele>1582.91</ele>
  <time>2026-08-28T17:49:27Z</time>
  <course>244.93</course>
  <speed>0.02</speed>
  <fix>3d</fix>
</trkpt>
<trkpt lat="40.0713749" lon="-105.229789">
  <ele>1583.0</ele>
  <time>2026-08-28T17:49:27Z</time>
  <course>0.0</course>
  <speed>0.0</speed>
  <fix>3d</fix>
</trkpt>
<trkpt lat="40.0713748" lon="-105.229789">
  <ele>1582.9</ele>
  <time>2026-08-28T17:49:27Z</time>
  <course>244.93</course>
  <speed>0.02</speed>
  <fix>3d</fix>
</trkpt>
<trkpt lat="40.0713749" lon="-105.229789">
  <ele>1583.0</ele>
  <time>2026-08-28T17:49:27Z</time>
  <course>0.0</course>
  <speed>0.0</speed>
  <fix>3d</fix>
</trkpt>
<trkpt lat="40.0713747" lon="-105.229789">
  <ele>1582.9</ele>
  <time>2026-08-28T17:49:27Z</time>
  <course>244.93</course>
  <speed>0.02</speed>
  <fix>3d</fix>
</trkpt>
<trkpt lat="40.0713749" lon="-105.229789">
  <ele>1583.0</ele>
  <time>2026-08-28T17:49:27Z</time>
  <course>0.0</course>
  <speed>0.0</speed>
  <fix>3d</fix>
</trkpt>
<trkpt lat="40.0713748" lon="-105.229789">
  <ele>1582.9</ele>
  <time>2026-08-28T17:49:27Z</time>
  <course>244.93</course>
  <speed>0.02</speed>
  <fix>3d</fix>
</trkpt>
<trkpt lat="40.0713749" lon="-105.229789">
  <ele>1583.0</ele>
  <time>2026-08-28T17:49:27Z</time>
  <course>0.0</course>
  <speed>0.0</speed>
  <fix>3d</fix>
</trkpt>
<trkpt lat="40.0713747" lon="-105.229789">
  <ele>1582.89</ele>
  <time>2026-08-28T17:49:27Z</time>
  <course>244.93</course>
  <speed>0.02</speed>
  <fix>3d</fix>
</trkpt>
<trkpt lat="40.0713749" lon="-105.229789">
  <ele>1583.0</ele>
  <time>2026-08-28T17:49:27Z</time>
  <course>0.0</course>
  <speed>0.0</speed>
  <fix>3d</fix>
</trkpt>
<trkpt lat="40.0713748" lon="-105.229789">
  <ele>1582.89</ele>
  <time>2026-08-28T17:49:27Z</time>
  <course>244.93</course>
  <speed>0.02</speed>
  <fix>3d</fix>
</trkpt>
<trkpt lat="40.0713749" lon="-105.229789">
  <ele>1583.0</ele>
  <time>2026-08-28T17:49:27Z</time>
  <course>0.0</course>
  <speed>0.0</speed>
  <fix>3d</fix>
</trkpt>
<trkpt lat="40.0713747" lon="-105.229789">
  <ele>1582.89</ele>
  <time>2026-08-28T17:49:27Z</time>
  <course>244.93</course>
  <speed>0.02</speed>
  <fix>3d</fix>
</trkpt>
<trkpt lat="40.0713749" lon="-105.229789">
  <ele>1583.0</ele>
  <time>2026-08-28T17:49:27Z</time>
  <course>0.0</course>
  <speed>0.0</speed>
  <fix>3d</fix>
</trkpt>
<trkpt lat="40.0713748" lon="-105.229789">
  <ele>1582.89</ele>
  <time>2026-08-28T17:49:27Z</time>
  <course>244.93</course>
  <speed>0.02</speed>
  <fix>3d</fix>
</trkpt>
<trkpt lat="40.0713749" lon="-105.229789">
  <ele>1583.0</ele>
  <time>2026-08-28T17:49:27Z</time>
  <course>0.0</course>
  <speed>0.0</speed>
  <fix>3d</fix>
</trkpt>
<trkpt lat="40.0713747" lon="-105.229789">
  <ele>1582.88</ele>
  <time>2026-08-28T17:49:27Z</time>
  <course>244.93</course>
  <speed>0.02</speed>
  <fix>3d</fix>
</trkpt>
<trkpt lat="40.0713749" lon="-105.229789">
  <ele>1583.0</ele>
  <time>2026-08-28T17:49:27Z</time>
  <course>0.0</course>
  <speed>0.0</speed>
  <fix>3d</fix>
</trkpt>
<trkpt lat="40.0713748" lon="-105.229789">
  <ele>1582.89</ele>
  <time>2026-08-28T17:49:27Z</time>
  <course>244.93</course>
  <speed>0.02</speed>
  <fix>3d</fix>
</trkpt>
<trkpt lat="40.0713749" lon="-105.229789">
  <ele>1583.0</ele>
  <time>2026-08-28T17:49:27Z</time>
  <course>0.0</course>
  <speed>0.0</speed>
  <fix>3d</fix>
</trkpt>
<trkpt lat="40.0713747" lon="-105.229789">
  <ele>1582.89</ele>
  <time>2026-08-28T17:49:27Z</time>
  <course>244.93</course>
  <speed>0.02</speed>
  <fix>3d</fix>
</trkpt>
<trkpt lat="40.0713749" lon="-105.229789">
  <ele>1583.0</ele>
  <time>2026-08-28T17:49:27Z</time>
  <course>0.0</course>
  <speed>0.0</speed>
  <fix>3d</fix>
</trkpt>
<trkpt lat="40.0713747" lon="-105.229789">
  <ele>1582.89</ele>
  <time>2026-08-28T17:49:27Z</time>
  <course>244.93</course>
  <speed>0.02</speed>
  <fix>3d</fix>
</trkpt>
<trkpt lat="40.0713749" lon="-105.229789">
  <ele>1583.0</ele>
  <time>2026-08-28T17:49:27Z</time>
  <course>0.0</course>
  <speed>0.0</speed>
  <fix>3d</fix>
</trkpt>
<trkpt lat="40.0713747" lon="-105.229789">
  <ele>1582.89</ele>
  <time>2026-08-28T17:49:27Z</time>
  <course>244.93</course>
  <speed>0.02</speed>
  <fix>3d</fix>
</trkpt>
<trkpt lat="40.0713749" lon="-105.229789">
  <ele>1583.0</ele>
  <time>2026-08-28T17:49:27Z</time>
  <course>0.0</course>
  <speed>0.0</speed>
  <fix>3d</fix>
</trkpt>
<trkpt lat="40.0713747" lon="-105.229789">
  <ele>1582.89</ele>
  <time>2026-08-28T17:49:27Z</time>
  <course>244.93</course>
  <speed>0.02</speed>
  <fix>3d</fix>
</trkpt>
<trkpt lat="40.0713749" lon="-105.229789">
  <ele>1583.0</ele>
  <time>2026-08-28T17:49:27Z</time>
  <course>0.0</course>
  <speed>0.0</speed>
  <fix>3d</fix>
</trkpt>
<trkpt lat="40.0713747" lon="-105.229789">
  <ele>1582.89</ele>
  <time>2026-08-28T17:49:27Z</time>
  <course>244.93</course>
  <speed>0.02</speed>
  <fix>3d</fix>
</trkpt>
<trkpt lat="40.0713749" lon="-105.229789">
  <ele>1583.0</ele>
  <time>2026-08-28T17:49:27Z</time>
  <course>0.0</course>
  <speed>0.0</speed>
  <fix>3d</fix>
</trkpt>
<trkpt lat="40.0713747" lon="-105.229789">
  <ele>1582.89</ele>
  <time>2026-08-28T17:49:27Z</time>
  <course>244.93</course>
  <speed>0.02</speed>
  <fix>3d</fix>
</trkpt>
<trkpt lat="40.0713749" lon="-105.229789">
  <ele>1583.0</ele>
  <time>2026-08-28T17:49:27Z</time>
  <course>0.0</course>
  <speed>0.0</speed>
  <fix>3d</fix>
</trkpt>
<trkpt lat="40.0713747" lon="-105.229789">
  <ele>1582.9</ele>
  <time>2026-08-28T17:49:27Z</time>
  <course>244.93</course>
  <speed>0.02</speed>
  <fix>3d</fix>
</trkpt>
<trkpt lat="40.0713749" lon="-105.229789">
  <ele>1583.0</ele>
  <time>2026-08-28T17:49:27Z</time>
  <course>0.0</course>
  <speed>0.0</speed>
  <fix>3d</fix>
</trkpt>
<trkpt lat="40.0713747" lon="-105.229789">
  <ele>1582.9</ele>
  <time>2026-08-28T17:49:27Z</time>
  <course>244.93</course>
  <speed>0.02</speed>
  <fix>3d</fix>
</trkpt>
<trkpt lat="40.0713749" lon="-105.229789">
  <ele>1583.0</ele>
  <time>2026-08-28T17:49:27Z</time>
  <course>0.0</course>
  <speed>0.0</speed>
  <fix>3d</fix>
</trkpt>
<trkpt lat="40.0713747" lon="-105.229789">
  <ele>1582.9</ele>
  <time>2026-08-28T17:49:27Z</time>
  <course>244.93</course>
  <speed>0.02</speed>
  <fix>3d</fix>
</trkpt>
<trkpt lat="40.0713749" lon="-105.229789">
  <ele>1583.0</ele>
  <time>2026-08-28T17:49:27Z</time>
  <course>0.0</course>
  <speed>0.0</speed>
  <fix>3d</fix>
</trkpt>
<trkpt lat="40.0713748" lon="-105.229789">
  <ele>1582.9</ele>
  <time>2026-08-28T17:49:27Z</time>
  <course>244.93</course>
  <speed>0.02</speed>
  <fix>3d</fix>
</trkpt>
<trkpt lat="40.0713749" lon="-105.229789">
  <ele>1583.0</ele>
  <time>2026-08-28T17:49:27Z</time>
  <course>0.0</course>
  <speed>0.0</speed>
  <fix>3d</fix>
</trkpt>
<trkpt lat="40.0713747" lon="-105.229789">
  <ele>1582.9</ele>
  <time>2026-08-28T17:49:27Z</time>
  <course>244.93</course>
  <speed>0.02</speed>
  <fix>3d</fix>
</trkpt>
<trkpt lat="40.0713749" lon="-105.229789">
  <ele>1583.0</ele>
  <time>2026-08-28T17:49:27Z</time>
  <course>0.0</course>
  <speed>0.0</speed>
  <fix>3d</fix>
</trkpt>
<trkpt lat="40.0713748" lon="-105.229789">
  <ele>1582.9</ele>
  <time>2026-08-28T17:49:27Z</time>
  <course>244.93</course>
  <speed>0.02</speed>
  <fix>3d</fix>
</trkpt>
<trkpt lat="40.0713749" lon="-105.229789">
  <ele>1583.0</ele>
  <time>2026-08-28T17:49:27Z</time>
  <course>0.0</course>
  <speed>0.0</speed>
  <fix>3d</fix>
</trkpt>
<trkpt lat="40.0713747" lon="-105.229789">
  <ele>1582.91</ele>
  <time>2026-08-28T17:49:27Z</time>
  <course>244.93</course>
  <speed>0.02</speed>
  <fix>3d</fix>
</trkpt>
<trkpt lat="40.0713749" lon="-105.229789">
  <ele>1583.0</ele>
  <time>2026-08-28T17:49:27Z</time>
  <course>0.0</course>
  <speed>0.0</speed>
  <fix>3d</fix>
</trkpt>
<trkpt lat="40.0713748" lon="-105.229789">
  <ele>1582.91</ele>
  <time>2026-08-28T17:49:27Z</time>
  <course>244.93</course>
  <speed>0.02</speed>
  <fix>3d</fix>
</trkpt>
<trkpt lat="40.0713749" lon="-105.229789">
  <ele>1583.0</ele>
  <time>2026-08-28T17:49:27Z</time>
  <course>0.0</course>
  <speed>0.0</speed>
  <fix>3d</fix>
</trkpt>
<trkpt lat="40.0713747" lon="-105.229789">
  <ele>1582.91</ele>
  <time>2026-08-28T17:49:27Z</time>
  <course>244.93</course>
  <speed>0.02</speed>
  <fix>3d</fix>
</trkpt>
<trkpt lat="40.0713749" lon="-105.229789">
  <ele>1583.0</ele>
  <time>2026-08-28T17:49:27Z</time>
  <course>0.0</course>
  <speed>0.0</speed>
  <fix>3d</fix>
</trkpt>
<trkpt lat="40.0713748" lon="-105.229789">
  <ele>1582.91</ele>
  <time>2026-08-28T17:49:27Z</time>
  <course>244.93</course>
  <speed>0.02</speed>
  <fix>3d</fix>
</trkpt>
<trkpt lat="40.0713749" lon="-105.229789">
  <ele>1583.0</ele>
  <time>2026-08-28T17:49:27Z</time>
  <course>0.0</course>
  <speed>0.0</speed>
  <fix>3d</fix>
</trkpt>
<trkpt lat="40.0713747" lon="-105.229789">
  <ele>1582.91</ele>
  <time>2026-08-28T17:49:27Z</time>
  <course>244.93</course>
  <speed>0.02</speed>
  <fix>3d</fix>
</trkpt>
<trkpt lat="40.0713749" lon="-105.229789">
  <ele>1583.0</ele>
  <time>2026-08-28T17:49:27Z</time>
  <course>0.0</course>
  <speed>0.0</speed>
  <fix>3d</fix>
</trkpt>
<trkpt lat="40.0713747" lon="-105.229789">
  <ele>1582.92</ele>
  <time>2026-08-28T17:49:27Z</time>
  <course>244.93</course>
  <speed>0.02</speed>
  <fix>3d</fix>
</trkpt>
<trkpt lat="40.0713749" lon="-105.229789">
  <ele>1583.0</ele>
  <time>2026-08-28T17:49:27Z</time>
  <course>0.0</course>
  <speed>0.0</speed>
  <fix>3d</fix>
</trkpt>
<trkpt lat="40.0713747" lon="-105.229789">
  <ele>1582.92</ele>
  <time>2026-08-28T17:49:27Z</time>
  <course>244.93</course>
  <speed>0.02</speed>
  <fix>3d</fix>
</trkpt>
<trkpt lat="40.0713749" lon="-105.229789">
  <ele>1583.0</ele>
  <time>2026-08-28T17:49:27Z</time>
  <course>0.0</course>
  <speed>0.0</speed>
  <fix>3d</fix>
</trkpt>
<trkpt lat="40.0713747" lon="-105.229789">
  <ele>1582.92</ele>
  <time>2026-08-28T17:49:27Z</time>
  <course>244.93</course>
  <speed>0.02</speed>
  <fix>3d</fix>
</trkpt>
<trkpt lat="40.0713749" lon="-105.229789">
  <ele>1583.0</ele>
  <time>2026-08-28T17:49:27Z</time>
  <course>0.0</course>
  <speed>0.0</speed>
  <fix>3d</fix>
</trkpt>
<trkpt lat="40.0713747" lon="-105.229789">
  <ele>1582.92</ele>
  <time>2026-08-28T17:49:27Z</time>
  <course>244.93</course>
  <speed>0.02</speed>
  <fix>3d</fix>
</trkpt>
<trkpt lat="40.0713749" lon="-105.229789">
  <ele>1583.0</ele>
  <time>2026-08-28T17:49:27Z</time>
  <course>0.0</course>
  <speed>0.0</speed>
  <fix>3d</fix>
</trkpt>
<trkpt lat="40.0713747" lon="-105.229789">
  <ele>1582.92</ele>
  <time>2026-08-28T17:49:27Z</time>
  <course>244.93</course>
  <speed>0.02</speed>
  <fix>3d</fix>
</trkpt>
<trkpt lat="40.0713749" lon="-105.229789">
  <ele>1583.0</ele>
  <time>2026-08-28T17:49:27Z</time>
  <course>0.0</course>
  <speed>0.0</speed>
  <fix>3d</fix>
</trkpt>
<trkpt lat="40.0713747" lon="-105.229789">
  <ele>1582.93</ele>
  <time>2026-08-28T17:49:27Z</time>
  <course>244.93</course>
  <speed>0.02</speed>
  <fix>3d</fix>
</trkpt>
<trkpt lat="40.0713749" lon="-105.229789">
  <ele>1583.0</ele>
  <time>2026-08-28T17:49:27Z</time>
  <course>0.0</course>
  <speed>0.0</speed>
  <fix>3d</fix>
</trkpt>
<trkpt lat="40.0713747" lon="-105.229789">
  <ele>1582.93</ele>
  <time>2026-08-28T17:49:27Z</time>
  <course>244.93</course>
  <speed>0.02</speed>
  <fix>3d</fix>
</trkpt>
<trkpt lat="40.0713749" lon="-105.229789">
  <ele>1583.0</ele>
  <time>2026-08-28T17:49:27Z</time>
  <course>0.0</course>
  <speed>0.0</speed>
  <fix>3d</fix>
</trkpt>
<trkpt lat="40.0713747" lon="-105.229789">
  <ele>1582.93</ele>
  <time>2026-08-28T17:49:27Z</time>
  <course>244.93</course>
  <speed>0.02</speed>
  <fix>3d</fix>
</trkpt>
<trkpt lat="40.0713749" lon="-105.229789">
  <ele>1583.0</ele>
  <time>2026-08-28T17:49:27Z</time>
  <course>0.0</course>
  <speed>0.0</speed>
  <fix>3d</fix>
</trkpt>
<trkpt lat="40.0713747" lon="-105.229789">
  <ele>1582.92</ele>
  <time>2026-08-28T17:49:27Z</time>
  <course>244.93</course>
  <speed>0.02</speed>
  <fix>3d</fix>
</trkpt>
<trkpt lat="40.0713749" lon="-105.229789">
  <ele>1583.0</ele>
  <time>2026-08-28T17:49:27Z</time>
  <course>0.0</course>
  <speed>0.0</speed>
  <fix>3d</fix>
</trkpt>
<trkpt lat="40.0713747" lon="-105.229789">
  <ele>1582.92</ele>
  <time>2026-08-28T17:49:27Z</time>
  <course>244.93</course>
  <speed>0.02</speed>
  <fix>3d</fix>
</trkpt>
<trkpt lat="40.0713749" lon="-105.229789">
  <ele>1583.0</ele>
  <time>2026-08-28T17:49:27Z</time>
  <course>0.0</course>
  <speed>0.0</speed>
  <fix>3d</fix>
</trkpt>
<trkpt lat="40.0713747" lon="-105.229789">
  <ele>1582.92</ele>
  <time>2026-08-28T17:49:27Z</time>
  <course>244.93</course>
  <speed>0.02</speed>
  <fix>3d</fix>
</trkpt>
<trkpt lat="40.0713749" lon="-105.229789">
  <ele>1583.0</ele>
  <time>2026-08-28T17:49:27Z</time>
  <course>0.0</course>
  <speed>0.0</speed>
  <fix>3d</fix>
</trkpt>
<trkpt lat="40.0713747" lon="-105.229789">
  <ele>1582.92</ele>
  <time>2026-08-28T17:49:27Z</time>
  <course>244.93</course>
  <speed>0.02</speed>
  <fix>3d</fix>
</trkpt>
<trkpt lat="40.0713749" lon="-105.229789">
  <ele>1583.0</ele>
  <time>2026-08-28T17:49:27Z</time>
  <course>0.0</course>
  <speed>0.0</speed>
  <fix>3d</fix>
</trkpt>
<trkpt lat="40.0713747" lon="-105.229789">
  <ele>1582.92</ele>
  <time>2026-08-28T17:49:27Z</time>
  <course>244.93</course>
  <speed>0.02</speed>
  <fix>3d</fix>
</trkpt>
<trkpt lat="40.0713749" lon="-105.229789">
  <ele>1583.0</ele>
  <time>2026-08-28T17:49:27Z</time>
  <course>0.0</course>
  <speed>0.0</speed>
  <fix>3d</fix>
</trkpt>
<trkpt lat="40.0713747" lon="-105.229789">
  <ele>1582.91</ele>
  <time>2026-08-28T17:49:27Z</time>
  <course>244.93</course>
  <speed>0.02</speed>
  <fix>3d</fix>
</trkpt>
<trkpt lat="40.0713749" lon="-105.229789">
  <ele>1583.0</ele>
  <time>2026-08-28T17:49:27Z</time>
  <course>0.0</course>
  <speed>0.0</speed>
  <fix>3d</fix>
</trkpt>
<trkpt lat="40.0713747" lon="-105.229789">
  <ele>1582.91</ele>
  <time>2026-08-28T17:49:27Z</time>
  <course>244.93</course>
  <speed>0.02</speed>
  <fix>3d</fix>
</trkpt>
<trkpt lat="40.0713749" lon="-105.229789">
  <ele>1583.0</ele>
  <time>2026-08-28T17:49:27Z</time>
  <course>0.0</course>
  <speed>0.0</speed>
  <fix>3d</fix>
</trkpt>
<trkpt lat="40.0713747" lon="-105.229789">
  <ele>1582.91</ele>
  <time>2026-08-28T17:49:27Z</time>
  <course>244.93</course>
  <speed>0.02</speed>
  <fix>3d</fix>
</trkpt>
<trkpt lat="40.0713749" lon="-105.229789">
  <ele>1583.0</ele>
  <time>2026-08-28T17:49:27Z</time>
  <course>0.0</course>
  <speed>0.0</speed>
  <fix>3d</fix>
</trkpt>
<trkpt lat="40.0713748" lon="-105.229789">
  <ele>1582.91</ele>
  <time>2026-08-28T17:49:27Z</time>
  <course>244.93</course>
  <speed>0.02</speed>
  <fix>3d</fix>
</trkpt>
<trkpt lat="40.0713749" lon="-105.229789">
  <ele>1583.0</ele>
  <time>2026-08-28T17:49:27Z</time>
  <course>0.0</course>
  <speed>0.0</speed>
  <fix>3d</fix>
</trkpt>
<trkpt lat="40.0713747" lon="-105.229789">
  <ele>1582.91</ele>
  <time>2026-08-28T17:49:27Z</time>
  <course>244.93</course>
  <speed>0.02</speed>
  <fix>3d</fix>
</trkpt>
<trkpt lat="40.0713749" lon="-105.229789">
  <ele>1583.0</ele>
  <time>2026-08-28T17:49:27Z</time>
  <course>0.0</course>
  <speed>0.0</speed>
  <fix>3d</fix>
</trkpt>
<trkpt lat="40.0713747" lon="-105.229789">
  <ele>1582.91</ele>
  <time>2026-08-28T17:49:27Z</time>
  <course>244.93</course>
  <speed>0.02</speed>
  <fix>3d</fix>
</trkpt>
<trkpt lat="40.0713749" lon="-105.229789">
  <ele>1583.0</ele>
  <time>2026-08-28T17:49:27Z</time>
  <course>0.0</course>
  <speed>0.0</speed>
  <fix>3d</fix>
</trkpt>
<trkpt lat="40.0713747" lon="-105.229789">
  <ele>1582.91</ele>
  <time>2026-08-28T17:49:27Z</time>
  <course>244.93</course>
  <speed>0.02</speed>
  <fix>3d</fix>
</trkpt>
<trkpt lat="40.0713749" lon="-105.229789">
  <ele>1583.0</ele>
  <time>2026-08-28T17:49:27Z</time>
  <course>0.0</course>
  <speed>0.0</speed>
  <fix>3d</fix>
</trkpt>
<trkpt lat="40.0713747" lon="-105.229789">
  <ele>1582.91</ele>
  <time>2026-08-28T17:49:27Z</time>
  <course>244.93</course>
  <speed>0.02</speed>
  <fix>3d</fix>
</trkpt>
<trkpt lat="40.0713749" lon="-105.229789">
  <ele>1583.0</ele>
  <time>2026-08-28T17:49:27Z</time>
  <course>0.0</course>
  <speed>0.0</speed>
  <fix>3d</fix>
</trkpt>
<trkpt lat="40.0713747" lon="-105.229789">
  <ele>1582.91</ele>
  <time>2026-08-28T17:49:27Z</time>
  <course>244.93</course>
  <speed>0.02</speed>
  <fix>3d</fix>
</trkpt>
<trkpt lat="40.0713749" lon="-105.229789">
  <ele>1583.0</ele>
  <time>2026-08-28T17:49:27Z</time>
  <course>0.0</course>
  <speed>0.0</speed>
  <fix>3d</fix>
</trkpt>
<trkpt lat="40.0713747" lon="-105.229789">
  <ele>1582.91</ele>
  <time>2026-08-28T17:49:27Z</time>
  <course>244.93</course>
  <speed>0.02</speed>
  <fix>3d</fix>
</trkpt>
<trkpt lat="40.0713749" lon="-105.229789">
  <ele>1583.0</ele>
  <time>2026-08-28T17:49:27Z</time>
  <course>0.0</course>
  <speed>0.0</speed>
  <fix>3d</fix>
</trkpt>
<trkpt lat="40.0713747" lon="-105.229789">
  <ele>1582.91</ele>
  <time>2026-08-28T17:49:27Z</time>
  <course>244.93</course>
  <speed>0.02</speed>
  <fix>3d</fix>
</trkpt>
<trkpt lat="40.0713749" lon="-105.229789">
  <ele>1583.0</ele>
  <time>2026-08-28T17:49:27Z</time>
  <course>0.0</course>
  <speed>0.0</speed>
  <fix>3d</fix>
</trkpt>
<trkpt lat="40.0713747" lon="-105.229789">
  <ele>1582.9</ele>
  <time>2026-08-28T17:49:27Z</time>
  <course>244.93</course>
  <speed>0.02</speed>
  <fix>3d</fix>
</trkpt>
<trkpt lat="40.0713749" lon="-105.229789">
  <ele>1583.0</ele>
  <time>2026-08-28T17:49:27Z</time>
  <course>0.0</course>
  <speed>0.0</speed>
  <fix>3d</fix>
</trkpt>
<trkpt lat="40.0713747" lon="-105.229789">
  <ele>1582.9</ele>
  <time>2026-08-28T17:49:27Z</time>
  <course>244.93</course>
  <speed>0.02</speed>
  <fix>3d</fix>
</trkpt>
<trkpt lat="40.0713749" lon="-105.229789">
  <ele>1583.0</ele>
  <time>2026-08-28T17:49:27Z</time>
  <course>0.0</course>
  <speed>0.0</speed>
  <fix>3d</fix>
</trkpt>
<trkpt lat="40.0713747" lon="-105.229789">
  <ele>1582.9</ele>
  <time>2026-08-28T17:49:27Z</time>
  <course>244.93</course>
  <speed>0.02</speed>
  <fix>3d</fix>
</trkpt>
<trkpt lat="40.0713749" lon="-105.229789">
  <ele>1583.0</ele>
  <time>2026-08-28T17:49:27Z</time>
  <course>0.0</course>
  <speed>0.0</speed>
  <fix>3d</fix>
</trkpt>
<trkpt lat="40.0713747" lon="-105.229789">
  <ele>1582.9</ele>
  <time>2026-08-28T17:49:27Z</time>
  <course>244.93</course>
  <speed>0.02</speed>
  <fix>3d</fix>
</trkpt>
<trkpt lat="40.0713749" lon="-105.229789">
  <ele>1583.0</ele>
  <time>2026-08-28T17:49:27Z</time>
  <course>0.0</course>
  <speed>0.0</speed>
  <fix>3d</fix>
</trkpt>
<trkpt lat="40.0713747" lon="-105.229789">
  <ele>1582.9</ele>
  <time>2026-08-28T17:49:27Z</time>
  <course>244.93</course>
  <speed>0.02</speed>
  <fix>3d</fix>
</trkpt>
<trkpt lat="40.0713749" lon="-105.229789">
  <ele>1583.0</ele>
  <time>2026-08-28T17:49:27Z</time>
  <course>0.0</course>
  <speed>0.0</speed>
  <fix>3d</fix>
</trkpt>
<trkpt lat="39.655741" lon="-104.1383097">
  <ele>1566.58</ele>
  <time>2026-08-28T17:49:28Z</time>
  <course>0.0</course>
  <speed>0.0</speed>
  <fix>3d</fix>
</trkpt>
<trkpt lat="40.0713749" lon="-105.229789">
  <ele>1583.0</ele>
  <time>2026-08-28T17:49:28Z</time>
  <course>0.0</course>
  <speed>0.0</speed>
  <fix>3d</fix>
</trkpt>
<trkpt lat="40.0713749" lon="-105.229789">
  <ele>1583.0</ele>
  <time>2026-08-28T17:49:28Z</time>
  <course>238.36</course>
  <speed>0.0</speed>
  <fix>3d</fix>
</trkpt>
<trkpt lat="40.0713749" lon="-105.229789">
  <ele>1583.0</ele>
  <time>2026-08-28T17:49:28Z</time>
  <course>0.0</course>
  <speed>0.0</speed>
  <fix>3d</fix>
</trkpt>
<trkpt lat="40.0713749" lon="-105.229789">
  <ele>1583.0</ele>
  <time>2026-08-28T17:49:28Z</time>
  <course>238.44</course>
  <speed>0.0</speed>
  <fix>3d</fix>
</trkpt>
<trkpt lat="40.0713749" lon="-105.229789">
  <ele>1583.0</ele>
  <time>2026-08-28T17:49:28Z</time>
  <course>0.0</course>
  <speed>0.0</speed>
  <fix>3d</fix>
</trkpt>
<trkpt lat="40.0713749" lon="-105.229789">
  <ele>1583.0</ele>
  <time>2026-08-28T17:49:28Z</time>
  <course>238.64</course>
  <speed>0.0</speed>
  <fix>3d</fix>
</trkpt>
<trkpt lat="40.0713749" lon="-105.229789">
  <ele>1583.0</ele>
  <time>2026-08-28T17:49:28Z</time>
  <course>0.0</course>
  <speed>0.0</speed>
  <fix>3d</fix>
</trkpt>
<trkpt lat="40.0713749" lon="-105.229789">
  <ele>1583.0</ele>
  <time>2026-08-28T17:49:28Z</time>
  <course>238.93</course>
  <speed>0.0</speed>
  <fix>3d</fix>
</trkpt>
<trkpt lat="40.0713749" lon="-105.229789">
  <ele>1583.0</ele>
  <time>2026-08-28T17:49:28Z</time>
  <course>0.0</course>
  <speed>0.0</speed>
  <fix>3d</fix>
</trkpt>
<trkpt lat="40.0713749" lon="-105.229789">
  <ele>1583.0</ele>
  <time>2026-08-28T17:49:28Z</time>
  <course>239.26</course>
  <speed>0.0</speed>
  <fix>3d</fix>
</trkpt>
<trkpt lat="40.0713749" lon="-105.229789">
  <ele>1583.0</ele>
  <time>2026-08-28T17:49:28Z</time>
  <course>0.0</course>
  <speed>0.0</speed>
  <fix>3d</fix>
</trkpt>
<trkpt lat="40.0713749" lon="-105.229789">
  <ele>1583.0</ele>
  <time>2026-08-28T17:49:28Z</time>
  <course>239.61</course>
  <speed>0.0</speed>
  <fix>3d</fix>
</trkpt>
<trkpt lat="40.0713749" lon="-105.229789">
  <ele>1583.0</ele>
  <time>2026-08-28T17:49:28Z</time>
  <course>0.0</course>
  <speed>0.0</speed>
  <fix>3d</fix>
</trkpt>
<trkpt lat="40.0713749" lon="-105.229789">
  <ele>1583.0</ele>
  <time>2026-08-28T17:49:28Z</time>
  <course>239.96</course>
  <speed>0.0</speed>
  <fix>3d</fix>
</trkpt>
<trkpt lat="40.0713749" lon="-105.229789">
  <ele>1583.0</ele>
  <time>2026-08-28T17:49:28Z</time>
  <course>0.0</course>
  <speed>0.0</speed>
  <fix>3d</fix>
</trkpt>
<trkpt lat="40.0713749" lon="-105.229789">
  <ele>1583.0</ele>
  <time>2026-08-28T17:49:28Z</time>
  <course>240.29</course>
  <speed>0.0</speed>
  <fix>3d</fix>
</trkpt>
<trkpt lat="40.0713749" lon="-105.229789">
  <ele>1583.0</ele>
  <time>2026-08-28T17:49:28Z</time>
  <course>0.0</course>
  <speed>0.0</speed>
  <fix>3d</fix>
</trkpt>
<trkpt lat="40.0713749" lon="-105.229789">
  <ele>1583.0</ele>
  <time>2026-08-28T17:49:28Z</time>
  <course>240.61</course>
  <speed>0.0</speed>
  <fix>3d</fix>
</trkpt>
<trkpt lat="40.0713749" lon="-105.229789">
  <ele>1583.0</ele>
  <time>2026-08-28T17:49:28Z</time>
  <course>0.0</course>
  <speed>0.0</speed>
  <fix>3d</fix>
</trkpt>
<trkpt lat="40.0713749" lon="-105.229789">
  <ele>1583.0</ele>
  <time>2026-08-28T17:49:28Z</time>
  <course>240.92</course>
  <speed>0.0</speed>
  <fix>3d</fix>
</trkpt>
<trkpt lat="40.0713749" lon="-105.229789">
  <ele>1583.0</ele>
  <time>2026-08-28T17:49:28Z</time>
  <course>0.0</course>
  <speed>0.0</speed>
  <fix>3d</fix>
</trkpt>
<trkpt lat="40.0713749" lon="-105.229789">
  <ele>1583.0</ele>
  <time>2026-08-28T17:49:28Z</time>
  <course>241.21</course>
  <speed>0.0</speed>
  <fix>3d</fix>
</trkpt>
<trkpt lat="40.0713749" lon="-105.229789">
  <ele>1583.0</ele>
  <time>2026-08-28T17:49:28Z</time>
  <course>0.0</course>
  <speed>0.0</speed>
  <fix>3d</fix>
</trkpt>
<trkpt lat="40.0713749" lon="-105.229789">
  <ele>1583.0</ele>
  <time>2026-08-28T17:49:28Z</time>
  <course>241.49</course>
  <speed>0.0</speed>
  <fix>3d</fix>
</trkpt>
<trkpt lat="40.0713749" lon="-105.229789">
  <ele>1583.0</ele>
  <time>2026-08-28T17:49:28Z</time>
  <course>0.0</course>
  <speed>0.0</speed>
  <fix>3d</fix>
</trkpt>
<trkpt lat="40.0713749" lon="-105.229789">
  <ele>1583.0</ele>
  <time>2026-08-28T17:49:28Z</time>
  <course>241.77</course>
  <speed>0.0</speed>
  <fix>3d</fix>
</trkpt>
<trkpt lat="40.0713749" lon="-105.229789">
  <ele>1583.0</ele>
  <time>2026-08-28T17:49:28Z</time>
  <course>0.0</course>
  <speed>0.0</speed>
  <fix>3d</fix>
</trkpt>
<trkpt lat="40.0713749" lon="-105.229789">
  <ele>1583.0</ele>
  <time>2026-08-28T17:49:28Z</time>
  <course>242.03</course>
  <speed>0.0</speed>
  <fix>3d</fix>
</trkpt>
<trkpt lat="40.0713749" lon="-105.229789">
  <ele>1583.0</ele>
  <time>2026-08-28T17:49:28Z</time>
  <course>0.0</course>
  <speed>0.0</speed>
  <fix>3d</fix>
</trkpt>
<trkpt lat="40.0713749" lon="-105.229789">
  <ele>1583.0</ele>
  <time>2026-08-28T17:49:28Z</time>
  <course>242.29</course>
  <speed>0.0</speed>
  <fix>3d</fix>
</trkpt>
<trkpt lat="40.0713749" lon="-105.229789">
  <ele>1583.0</ele>
  <time>2026-08-28T17:49:28Z</time>
  <course>0.0</course>
  <speed>0.0</speed>
  <fix>3d</fix>
</trkpt>
<trkpt lat="40.0713749" lon="-105.229789">
  <ele>1583.0</ele>
  <time>2026-08-28T17:49:28Z</time>
  <course>242.54</course>
  <speed>0.0</speed>
  <fix>3d</fix>
</trkpt>
<trkpt lat="40.0713749" lon="-105.229789">
  <ele>1583.0</ele>
  <time>2026-08-28T17:49:28Z</time>
  <course>0.0</course>
  <speed>0.0</speed>
  <fix>3d</fix>
</trkpt>
<trkpt lat="40.0713749" lon="-105.229789">
  <ele>1583.0</ele>
  <time>2026-08-28T17:49:28Z</time>
  <course>242.79</course>
  <speed>0.0</speed>
  <fix>3d</fix>
</trkpt>
<trkpt lat="40.0713749" lon="-105.229789">
  <ele>1583.0</ele>
  <time>2026-08-28T17:49:28Z</time>
  <course>0.0</course>
  <speed>0.0</speed>
  <fix>3d</fix>
</trkpt>
<trkpt lat="40.0713749" lon="-105.229789">
  <ele>1583.0</ele>
  <time>2026-08-28T17:49:28Z</time>
  <course>243.02</course>
  <speed>0.0</speed>
  <fix>3d</fix>
</trkpt>
<trkpt lat="40.0713749" lon="-105.229789">
  <ele>1583.0</ele>
  <time>2026-08-28T17:49:28Z</time>
  <course>0.0</course>
  <speed>0.0</speed>
  <fix>3d</fix>
</trkpt>
<trkpt lat="40.0713749" lon="-105.229789">
  <ele>1583.0</ele>
  <time>2026-08-28T17:49:28Z</time>
  <course>243.25</course>
  <speed>0.0</speed>
  <fix>3d</fix>
</trkpt>
<trkpt lat="40.0713749" lon="-105.229789">
  <ele>1583.0</ele>
  <time>2026-08-28T17:49:28Z</time>
  <course>0.0</course>
  <speed>0.0</speed>
  <fix>3d</fix>
</trkpt>
<trkpt lat="40.0713749" lon="-105.229789">
  <ele>1583.0</ele>
  <time>2026-08-28T17:49:28Z</time>
  <course>243.47</course>
  <speed>0.0</speed>
  <fix>3d</fix>
</trkpt>
<trkpt lat="40.0713749" lon="-105.229789">
  <ele>1583.0</ele>
  <time>2026-08-28T17:49:28Z</time>
  <course>0.0</course>
  <speed>0.0</speed>
  <fix>3d</fix>
</trkpt>
<trkpt lat="40.0713749" lon="-105.229789">
  <ele>1583.0</ele>
  <time>2026-08-28T17:49:28Z</time>
  <course>243.68</course>
  <speed>0.0</speed>
  <fix>3d</fix>
</trkpt>
<trkpt lat="40.0713749" lon="-105.229789">
  <ele>1583.0</ele>
  <time>2026-08-28T17:49:28Z</time>
  <course>0.0</course>
  <speed>0.0</speed>
  <fix>3d</fix>
</trkpt>
<trkpt lat="40.0713749" lon="-105.229789">
  <ele>1583.0</ele>
  <time>2026-08-28T17:49:28Z</time>
  <course>243.89</course>
  <speed>0.0</speed>
  <fix>3d</fix>
</trkpt>
<trkpt lat="40.0713749" lon="-105.229789">
  <ele>1583.0</ele>
  <time>2026-08-28T17:49:28Z</time>
  <course>0.0</course>
  <speed>0.0</speed>
  <fix>3d</fix>
</trkpt>
<trkpt lat="40.0713749" lon="-105.229789">
  <ele>1583.0</ele>
  <time>2026-08-28T17:49:28Z</time>
  <course>244.09</course>
  <speed>0.0</speed>
  <fix>3d</fix>
</trkpt>
<trkpt lat="40.0713749" lon="-105.229789">
  <ele>1583.0</ele>
  <time>2026-08-28T17:49:28Z</time>
  <course>0.0</course>
  <speed>0.0</speed>
  <fix>3d</fix>
</trkpt>
<trkpt lat="40.0713749" lon="-105.229789">
  <ele>1583.0</ele>
  <time>2026-08-28T17:49:28Z</time>
  <course>244.28</course>
  <speed>0.0</speed>
  <fix>3d</fix>
</trkpt>
<trkpt lat="40.0713749" lon="-105.229789">
  <ele>1583.0</ele>
  <time>2026-08-28T17:49:28Z</time>
  <course>0.0</course>
  <speed>0.0</speed>
  <fix>3d</fix>
</trkpt>
<trkpt lat="40.0713749" lon="-105.229789">
  <ele>1583.0</ele>
  <time>2026-08-28T17:49:28Z</time>
  <course>244.46</course>
  <speed>0.0</speed>
  <fix>3d</fix>
</trkpt>
<trkpt lat="40.0713749" lon="-105.229789">
  <ele>1583.0</ele>
  <time>2026-08-28T17:49:28Z</time>
  <course>0.0</course>
  <speed>0.0</speed>
  <fix>3d</fix>
</trkpt>
<trkpt lat="40.0713749" lon="-105.229789">
  <ele>1583.0</ele>
  <time>2026-08-28T17:49:28Z</time>
  <course>244.64</course>
  <speed>0.0</speed>
  <fix>3d</fix>
</trkpt>
<trkpt lat="40.0713749" lon="-105.229789">
  <ele>1583.0</ele>
  <time>2026-08-28T17:49:28Z</time>
  <course>0.0</course>
  <speed>0.0</speed>
  <fix>3d</fix>
</trkpt>
<trkpt lat="40.0713749" lon="-105.229789">
  <ele>1583.0</ele>
  <time>2026-08-28T17:49:28Z</time>
  <course>244.81</course>
  <speed>0.0</speed>
  <fix>3d</fix>
</trkpt>
<trkpt lat="40.0713749" lon="-105.229789">
  <ele>1583.0</ele>
  <time>2026-08-28T17:49:28Z</time>
  <course>0.0</course>
  <speed>0.0</speed>
  <fix>3d</fix>
</trkpt>
<trkpt lat="40.0713749" lon="-105.229789">
  <ele>1583.0</ele>
  <time>2026-08-28T17:49:28Z</time>
  <course>244.97</course>
  <speed>0.0</speed>
  <fix>3d</fix>
</trkpt>
<trkpt lat="40.0713749" lon="-105.229789">
  <ele>1583.0</ele>
  <time>2026-08-28T17:49:28Z</time>
  <course>0.0</course>
  <speed>0.0</speed>
  <fix>3d</fix>
</trkpt>
<trkpt lat="40.0713749" lon="-105.229789">
  <ele>1583.0</ele>
  <time>2026-08-28T17:49:28Z</time>
  <course>245.13</course>
  <speed>0.0</speed>
  <fix>3d</fix>
</trkpt>
<trkpt lat="40.0713749" lon="-105.229789">
  <ele>1583.0</ele>
  <time>2026-08-28T17:49:28Z</time>
  <course>0.0</course>
  <speed>0.0</speed>
  <fix>3d</fix>
</trkpt>
<trkpt lat="40.0713749" lon="-105.229789">
  <ele>1583.0</ele>
  <time>2026-08-28T17:49:28Z</time>
  <course>245.29</course>
  <speed>0.0</speed>
  <fix>3d</fix>
</trkpt>
<trkpt lat="40.0713749" lon="-105.229789">
  <ele>1583.0</ele>
  <time>2026-08-28T17:49:28Z</time>
  <course>0.0</course>
  <speed>0.0</speed>
  <fix>3d</fix>
</trkpt>
<trkpt lat="40.0713749" lon="-105.229789">
  <ele>1583.0</ele>
  <time>2026-08-28T17:49:28Z</time>
  <course>245.43</course>
  <speed>0.0</speed>
  <fix>3d</fix>
</trkpt>
<trkpt lat="40.0713749" lon="-105.229789">
  <ele>1583.0</ele>
  <time>2026-08-28T17:49:28Z</time>
  <course>0.0</course>
  <speed>0.0</speed>
  <fix>3d</fix>
</trkpt>
<trkpt lat="40.0713749" lon="-105.229789">
  <ele>1583.0</ele>
  <time>2026-08-28T17:49:28Z</time>
  <course>245.57</course>
  <speed>0.0</speed>
  <fix>3d</fix>
</trkpt>
<trkpt lat="40.0713749" lon="-105.229789">
  <ele>1583.0</ele>
  <time>2026-08-28T17:49:28Z</time>
  <course>0.0</course>
  <speed>0.0</speed>
  <fix>3d</fix>
</trkpt>
<trkpt lat="40.0713749" lon="-105.229789">
  <ele>1583.0</ele>
  <time>2026-08-28T17:49:28Z</time>
  <course>245.71</course>
  <speed>0.0</speed>
  <fix>3d</fix>
</trkpt>
<trkpt lat="40.0713749" lon="-105.229789">
  <ele>1583.0</ele>
  <time>2026-08-28T17:49:28Z</time>
  <course>0.0</course>
  <speed>0.0</speed>
  <fix>3d</fix>
</trkpt>
<trkpt lat="40.0713749" lon="-105.229789">
  <ele>1583.0</ele>
  <time>2026-08-28T17:49:28Z</time>
  <course>245.84</course>
  <speed>0.0</speed>
  <fix>3d</fix>
</trkpt>
<trkpt lat="40.0713749" lon="-105.229789">
  <ele>1583.0</ele>
  <time>2026-08-28T17:49:28Z</time>
  <course>0.0</course>
  <speed>0.0</speed>
  <fix>3d</fix>
</trkpt>
<trkpt lat="40.0713749" lon="-105.229789">
  <ele>1583.0</ele>
  <time>2026-08-28T17:49:28Z</time>
  <course>245.96</course>
  <speed>0.0</speed>
  <fix>3d</fix>
</trkpt>
<trkpt lat="40.0713749" lon="-105.229789">
  <ele>1583.0</ele>
  <time>2026-08-28T17:49:28Z</time>
  <course>0.0</course>
  <speed>0.0</speed>
  <fix>3d</fix>
</trkpt>
<trkpt lat="40.0713749" lon="-105.229789">
  <ele>1583.0</ele>
  <time>2026-08-28T17:49:28Z</time>
  <course>246.08</course>
  <speed>0.0</speed>
  <fix>3d</fix>
</trkpt>
<trkpt lat="40.0713749" lon="-105.229789">
  <ele>1583.0</ele>
  <time>2026-08-28T17:49:28Z</time>
  <course>0.0</course>
  <speed>0.0</speed>
  <fix>3d</fix>
</trkpt>
<trkpt lat="40.0713749" lon="-105.229789">
  <ele>1583.0</ele>
  <time>2026-08-28T17:49:28Z</time>
  <course>246.19</course>
  <speed>0.0</speed>
  <fix>3d</fix>
</trkpt>
<trkpt lat="40.0713749" lon="-105.229789">
  <ele>1583.0</ele>
  <time>2026-08-28T17:49:28Z</time>
  <course>0.0</course>
  <speed>0.0</speed>
  <fix>3d</fix>
</trkpt>
<trkpt lat="40.0713749" lon="-105.229789">
  <ele>1583.0</ele>
  <time>2026-08-28T17:49:28Z</time>
  <course>246.3</course>
  <speed>0.0</speed>
  <fix>3d</fix>
</trkpt>
<trkpt lat="40.0713749" lon="-105.229789">
  <ele>1583.0</ele>
  <time>2026-08-28T17:49:28Z</time>
  <course>0.0</course>
  <speed>0.0</speed>
  <fix>3d</fix>
</trkpt>
<trkpt lat="40.0713749" lon="-105.229789">
  <ele>1583.0</ele>
  <time>2026-08-28T17:49:28Z</time>
  <course>246.41</course>
  <speed>0.0</speed>
  <fix>3d</fix>
</trkpt>
<trkpt lat="40.0713749" lon="-105.229789">
  <ele>1583.0</ele>
  <time>2026-08-28T17:49:28Z</time>
  <course>0.0</course>
  <speed>0.0</speed>
  <fix>3d</fix>
</trkpt>
<trkpt lat="40.0713749" lon="-105.229789">
  <ele>1583.0</ele>
  <time>2026-08-28T17:49:28Z</time>
  <course>246.51</course>
  <speed>0.0</speed>
  <fix>3d</fix>
</trkpt>
<trkpt lat="40.0713749" lon="-105.229789">
  <ele>1583.0</ele>
  <time>2026-08-28T17:49:28Z</time>
  <course>0.0</course>
  <speed>0.0</speed>
  <fix>3d</fix>
</trkpt>
<trkpt lat="40.0713749" lon="-105.229789">
  <ele>1583.0</ele>
  <time>2026-08-28T17:49:28Z</time>
  <course>246.6</course>
  <speed>0.0</speed>
  <fix>3d</fix>
</trkpt>
<trkpt lat="40.0713749" lon="-105.229789">
  <ele>1583.0</ele>
  <time>2026-08-28T17:49:28Z</time>
  <course>0.0</course>
  <speed>0.0</speed>
  <fix>3d</fix>
</trkpt>
<trkpt lat="40.0713749" lon="-105.229789">
  <ele>1583.0</ele>
  <time>2026-08-28T17:49:28Z</time>
  <course>246.7</course>
  <speed>0.0</speed>
  <fix>3d</fix>
</trkpt>
<trkpt lat="40.0713749" lon="-105.229789">
  <ele>1583.0</ele>
  <time>2026-08-28T17:49:28Z</time>
  <course>0.0</course>
  <speed>0.0</speed>
  <fix>3d</fix>
</trkpt>
<trkpt lat="40.0713749" lon="-105.229789">
  <ele>1583.0</ele>
  <time>2026-08-28T17:49:28Z</time>
  <course>246.78</course>
  <speed>0.0</speed>
  <fix>3d</fix>
</trkpt>
<trkpt lat="40.0713749" lon="-105.229789">
  <ele>1583.0</ele>
  <time>2026-08-28T17:49:28Z</time>
  <course>0.0</course>
  <speed>0.0</speed>
  <fix>3d</fix>
</trkpt>
<trkpt lat="40.0713749" lon="-105.229789">
  <ele>1583.0</ele>
  <time>2026-08-28T17:49:28Z</time>
  <course>246.87</course>
  <speed>0.0</speed>
  <fix>3d</fix>
</trkpt>
<trkpt lat="40.0713749" lon="-105.229789">
  <ele>1583.0</ele>
  <time>2026-08-28T17:49:28Z</time>
  <course>0.0</course>
  <speed>0.0</speed>
  <fix>3d</fix>
</trkpt>
<trkpt lat="40.0713749" lon="-105.229789">
  <ele>1583.0</ele>
  <time>2026-08-28T17:49:28Z</time>
  <course>246.95</course>
  <speed>0.0</speed>
  <fix>3d</fix>
</trkpt>
<trkpt lat="40.0713749" lon="-105.229789">
  <ele>1583.0</ele>
  <time>2026-08-28T17:49:28Z</time>
  <course>0.0</course>
  <speed>0.0</speed>
  <fix>3d</fix>
</trkpt>
<trkpt lat="40.0713749" lon="-105.229789">
  <ele>1583.0</ele>
  <time>2026-08-28T17:49:28Z</time>
  <course>247.02</course>
  <speed>0.0</speed>
  <fix>3d</fix>
</trkpt>
<trkpt lat="40.0713749" lon="-105.229789">
  <ele>1583.0</ele>
  <time>2026-08-28T17:49:28Z</time>
  <course>0.0</course>
  <speed>0.0</speed>
  <fix>3d</fix>
</trkpt>
<trkpt lat="40.0713749" lon="-105.229789">
  <ele>1583.0</ele>
  <time>2026-08-28T17:49:28Z</time>
  <course>247.1</course>
  <speed>0.0</speed>
  <fix>3d</fix>
</trkpt>
<trkpt lat="40.0713749" lon="-105.229789">
  <ele>1583.0</ele>
  <time>2026-08-28T17:49:28Z</time>
  <course>0.0</course>
  <speed>0.0</speed>
  <fix>3d</fix>
</trkpt>
<trkpt lat="40.0713749" lon="-105.229789">
  <ele>1583.0</ele>
  <time>2026-08-28T17:49:28Z</time>
  <course>247.17</course>
  <speed>0.0</speed>
  <fix>3d</fix>
</trkpt>
<trkpt lat="40.0713749" lon="-105.229789">
  <ele>1583.0</ele>
  <time>2026-08-28T17:49:28Z</time>
  <course>0.0</course>
  <speed>0.0</speed>
  <fix>3d</fix>
</trkpt>
<trkpt lat="40.0713749" lon="-105.229789">
  <ele>1583.0</ele>
  <time>2026-08-28T17:49:28Z</time>
  <course>247.24</course>
  <speed>0.0</speed>
  <fix>3d</fix>
</trkpt>
<trkpt lat="40.0713749" lon="-105.229789">
  <ele>1583.0</ele>
  <time>2026-08-28T17:49:28Z</time>
  <course>0.0</course>
  <speed>0.0</speed>
  <fix>3d</fix>
</trkpt>
<trkpt lat="40.0713749" lon="-105.229789">
  <ele>1583.0</ele>
  <time>2026-08-28T17:49:28Z</time>
  <course>247.3</course>
  <speed>0.0</speed>
  <fix>3d</fix>
</trkpt>
<trkpt lat="40.0713749" lon="-105.229789">
  <ele>1583.0</ele>
  <time>2026-08-28T17:49:28Z</time>
  <course>0.0</course>
  <speed>0.0</speed>
  <fix>3d</fix>
</trkpt>
<trkpt lat="40.0713749" lon="-105.229789">
  <ele>1583.0</ele>
  <time>2026-08-28T17:49:28Z</time>
  <course>247.36</course>
  <speed>0.0</speed>
  <fix>3d</fix>
</trkpt>
<trkpt lat="40.0713749" lon="-105.229789">
  <ele>1583.0</ele>
  <time>2026-08-28T17:49:28Z</time>
  <course>0.0</course>
  <speed>0.0</speed>
  <fix>3d</fix>
</trkpt>
<trkpt lat="40.0713749" lon="-105.229789">
  <ele>1583.0</ele>
  <time>2026-08-28T17:49:28Z</time>
  <course>247.42</course>
  <speed>0.0</speed>
  <fix>3d</fix>
</trkpt>
<trkpt lat="40.0713749" lon="-105.229789">
  <ele>1583.0</ele>
  <time>2026-08-28T17:49:28Z</time>
  <course>0.0</course>
  <speed>0.0</speed>
  <fix>3d</fix>
</trkpt>
<trkpt lat="40.0713749" lon="-105.229789">
  <ele>1583.0</ele>
  <time>2026-08-28T17:49:28Z</time>
  <course>247.47</course>
  <speed>0.0</speed>
  <fix>3d</fix>
</trkpt>
<trkpt lat="40.0713749" lon="-105.229789">
  <ele>1583.0</ele>
  <time>2026-08-28T17:49:28Z</time>
  <course>0.0</course>
  <speed>0.0</speed>
  <fix>3d</fix>
</trkpt>
<trkpt lat="40.0713749" lon="-105.229789">
  <ele>1583.0</ele>
  <time>2026-08-28T17:49:28Z</time>
  <course>247.53</course>
  <speed>0.0</speed>
  <fix>3d</fix>
</trkpt>
<trkpt lat="40.0713749" lon="-105.229789">
  <ele>1583.0</ele>
  <time>2026-08-28T17:49:28Z</time>
  <course>0.0</course>
  <speed>0.0</speed>
  <fix>3d</fix>
</trkpt>
<trkpt lat="40.0713749" lon="-105.229789">
  <ele>1583.0</ele>
  <time>2026-08-28T17:49:28Z</time>
  <course>247.58</course>
  <speed>0.0</speed>
  <fix>3d</fix>
</trkpt>
<trkpt lat="40.0713749" lon="-105.229789">
  <ele>1583.0</ele>
  <time>2026-08-28T17:49:28Z</time>
  <course>0.0</course>
  <speed>0.0</speed>
  <fix>3d</fix>
</trkpt>
<trkpt lat="40.0713749" lon="-105.229789">
  <ele>1583.0</ele>
  <time>2026-08-28T17:49:28Z</time>
  <course>247.63</course>
  <speed>0.0</speed>
  <fix>3d</fix>
</trkpt>
<trkpt lat="40.0713749" lon="-105.229789">
  <ele>1583.0</ele>
  <time>2026-08-28T17:49:28Z</time>
  <course>0.0</course>
  <speed>0.0</speed>
  <fix>3d</fix>
</trkpt>
<trkpt lat="40.0713749" lon="-105.229789">
  <ele>1583.0</ele>
  <time>2026-08-28T17:49:28Z</time>
  <course>247.67</course>
  <speed>0.0</speed>
  <fix>3d</fix>
</trkpt>
<trkpt lat="40.0713749" lon="-105.229789">
  <ele>1583.0</ele>
  <time>2026-08-28T17:49:28Z</time>
  <course>0.0</course>
  <speed>0.0</speed>
  <fix>3d</fix>
</trkpt>
<trkpt lat="40.0713749" lon="-105.229789">
  <ele>1583.0</ele>
  <time>2026-08-28T17:49:28Z</time>
  <course>247.72</course>
  <speed>0.0</speed>
  <fix>3d</fix>
</trkpt>
<trkpt lat="40.0713749" lon="-105.229789">
  <ele>1583.0</ele>
  <time>2026-08-28T17:49:28Z</time>
  <course>0.0</course>
  <speed>0.0</speed>
  <fix>3d</fix>
</trkpt>
<trkpt lat="40.0713749" lon="-105.229789">
  <ele>1583.0</ele>
  <time>2026-08-28T17:49:28Z</time>
  <course>247.76</course>
  <speed>0.0</speed>
  <fix>3d</fix>
</trkpt>
<trkpt lat="40.0713749" lon="-105.229789">
  <ele>1583.0</ele>
  <time>2026-08-28T17:49:28Z</time>
  <course>0.0</course>
  <speed>0.0</speed>
  <fix>3d</fix>
</trkpt>
<trkpt lat="40.0713749" lon="-105.229789">
  <ele>1583.0</ele>
  <time>2026-08-28T17:49:28Z</time>
  <course>247.8</course>
  <speed>0.0</speed>
  <fix>3d</fix>
</trkpt>
<trkpt lat="40.0713749" lon="-105.229789">
  <ele>1583.0</ele>
  <time>2026-08-28T17:49:28Z</time>
  <course>0.0</course>
  <speed>0.0</speed>
  <fix>3d</fix>
</trkpt>
<trkpt lat="40.0713749" lon="-105.229789">
  <ele>1583.0</ele>
  <time>2026-08-28T17:49:28Z</time>
  <course>247.83</course>
  <speed>0.0</speed>
  <fix>3d</fix>
</trkpt>
<trkpt lat="40.0713749" lon="-105.229789">
  <ele>1583.0</ele>
  <time>2026-08-28T17:49:28Z</time>
  <course>0.0</course>
  <speed>0.0</speed>
  <fix>3d</fix>
</trkpt>
<trkpt lat="40.0713749" lon="-105.229789">
  <ele>1583.0</ele>
  <time>2026-08-28T17:49:28Z</time>
  <course>247.87</course>
  <speed>0.0</speed>
  <fix>3d</fix>
</trkpt>
<trkpt lat="40.0713749" lon="-105.229789">
  <ele>1583.0</ele>
  <time>2026-08-28T17:49:28Z</time>
  <course>0.0</course>
  <speed>0.0</speed>
  <fix>3d</fix>
</trkpt>
<trkpt lat="40.0713749" lon="-105.229789">
  <ele>1583.0</ele>
  <time>2026-08-28T17:49:28Z</time>
  <course>247.9</course>
  <speed>0.0</speed>
  <fix>3d</fix>
</trkpt>
<trkpt lat="40.0713749" lon="-105.229789">
  <ele>1583.0</ele>
  <time>2026-08-28T17:49:28Z</time>
  <course>0.0</course>
  <speed>0.0</speed>
  <fix>3d</fix>
</trkpt>
<trkpt lat="40.0713749" lon="-105.229789">
  <ele>1583.0</ele>
  <time>2026-08-28T17:49:28Z</time>
  <course>247.94</course>
  <speed>0.0</speed>
  <fix>3d</fix>
</trkpt>
<trkpt lat="40.0713749" lon="-105.229789">
  <ele>1583.0</ele>
  <time>2026-08-28T17:49:28Z</time>
  <course>0.0</course>
  <speed>0.0</speed>
  <fix>3d</fix>
</trkpt>
<trkpt lat="40.0713749" lon="-105.229789">
  <ele>1583.0</ele>
  <time>2026-08-28T17:49:28Z</time>
  <course>247.97</course>
  <speed>0.0</speed>
  <fix>3d</fix>
</trkpt>
<trkpt lat="40.0713749" lon="-105.229789">
  <ele>1583.0</ele>
  <time>2026-08-28T17:49:28Z</time>
  <course>0.0</course>
  <speed>0.0</speed>
  <fix>3d</fix>
</trkpt>
<trkpt lat="40.0713749" lon="-105.229789">
  <ele>1583.0</ele>
  <time>2026-08-28T17:49:28Z</time>
  <course>248.0</course>
  <speed>0.0</speed>
  <fix>3d</fix>
</trkpt>
<trkpt lat="40.0713749" lon="-105.229789">
  <ele>1583.0</ele>
  <time>2026-08-28T17:49:28Z</time>
  <course>0.0</course>
  <speed>0.0</speed>
  <fix>3d</fix>
</trkpt>
<trkpt lat="40.0713749" lon="-105.229789">
  <ele>1583.0</ele>
  <time>2026-08-28T17:49:28Z</time>
  <course>248.02</course>
  <speed>0.0</speed>
  <fix>3d</fix>
</trkpt>
<trkpt lat="40.0713749" lon="-105.229789">
  <ele>1583.0</ele>
  <time>2026-08-28T17:49:28Z</time>
  <course>0.0</course>
  <speed>0.0</speed>
  <fix>3d</fix>
</trkpt>
<trkpt lat="40.0713749" lon="-105.229789">
  <ele>1583.0</ele>
  <time>2026-08-28T17:49:28Z</time>
  <course>248.05</course>
  <speed>0.0</speed>
  <fix>3d</fix>
</trkpt>
<trkpt lat="40.0713749" lon="-105.229789">
  <ele>1583.0</ele>
  <time>2026-08-28T17:49:28Z</time>
  <course>0.0</course>
  <speed>0.0</speed>
  <fix>3d</fix>
</trkpt>
<trkpt lat="40.0713749" lon="-105.229789">
  <ele>1583.0</ele>
  <time>2026-08-28T17:49:28Z</time>
  <course>248.08</course>
  <speed>0.0</speed>
  <fix>3d</fix>
</trkpt>
<trkpt lat="40.0713749" lon="-105.229789">
  <ele>1583.0</ele>
  <time>2026-08-28T17:49:28Z</time>
  <course>0.0</course>
  <speed>0.0</speed>
  <fix>3d</fix>
</trkpt>
<trkpt lat="40.0713749" lon="-105.229789">
  <ele>1583.0</ele>
  <time>2026-08-28T17:49:28Z</time>
  <course>248.1</course>
  <speed>0.0</speed>
  <fix>3d</fix>
</trkpt>
<trkpt lat="40.0713749" lon="-105.229789">
  <ele>1583.0</ele>
  <time>2026-08-28T17:49:28Z</time>
  <course>0.0</course>
  <speed>0.0</speed>
  <fix>3d</fix>
</trkpt>
<trkpt lat="40.0713749" lon="-105.229789">
  <ele>1583.0</ele>
  <time>2026-08-28T17:49:28Z</time>
  <course>248.12</course>
  <speed>0.0</speed>
  <fix>3d</fix>
</trkpt>
<trkpt lat="40.0713749" lon="-105.229789">
  <ele>1583.0</ele>
  <time>2026-08-28T17:49:28Z</time>
  <course>0.0</course>
  <speed>0.0</speed>
  <fix>3d</fix>
</trkpt>
<trkpt lat="40.0713749" lon="-105.229789">
  <ele>1583.0</ele>
  <time>2026-08-28T17:49:28Z</time>
  <course>248.14</course>
  <speed>0.0</speed>
  <fix>3d</fix>
</trkpt>
<trkpt lat="40.0713749" lon="-105.229789">
  <ele>1583.0</ele>
  <time>2026-08-28T17:49:28Z</time>
  <course>0.0</course>
  <speed>0.0</speed>
  <fix>3d</fix>
</trkpt>
<trkpt lat="40.0713749" lon="-105.229789">
  <ele>1583.0</ele>
  <time>2026-08-28T17:49:28Z</time>
  <course>248.16</course>
  <speed>0.0</speed>
  <fix>3d</fix>
</trkpt>
<trkpt lat="40.0713749" lon="-105.229789">
  <ele>1583.0</ele>
  <time>2026-08-28T17:49:28Z</time>
  <course>0.0</course>
  <speed>0.0</speed>
  <fix>3d</fix>
</trkpt>
<trkpt lat="40.0713749" lon="-105.229789">
  <ele>1583.0</ele>
  <time>2026-08-28T17:49:28Z</time>
  <course>248.18</course>
  <speed>0.0</speed>
  <fix>3d</fix>
</trkpt>
<trkpt lat="40.0713749" lon="-105.229789">
  <ele>1583.0</ele>
  <time>2026-08-28T17:49:28Z</time>
  <course>0.0</course>
  <speed>0.0</speed>
  <fix>3d</fix>
</trkpt>
<trkpt lat="40.0713749" lon="-105.229789">
  <ele>1583.0</ele>
  <time>2026-08-28T17:49:28Z</time>
  <course>248.2</course>
  <speed>0.0</speed>
  <fix>3d</fix>
</trkpt>
<trkpt lat="40.0713749" lon="-105.229789">
  <ele>1583.0</ele>
  <time>2026-08-28T17:49:28Z</time>
  <course>0.0</course>
  <speed>0.0</speed>
  <fix>3d</fix>
</trkpt>
<trkpt lat="40.0713749" lon="-105.229789">
  <ele>1583.0</ele>
  <time>2026-08-28T17:49:28Z</time>
  <course>248.22</course>
  <speed>0.0</speed>
  <fix>3d</fix>
</trkpt>
<trkpt lat="40.0713749" lon="-105.229789">
  <ele>1583.0</ele>
  <time>2026-08-28T17:49:28Z</time>
  <course>0.0</course>
  <speed>0.0</speed>
  <fix>3d</fix>
</trkpt>
<trkpt lat="40.0713749" lon="-105.229789">
  <ele>1583.0</ele>
  <time>2026-08-28T17:49:28Z</time>
  <course>248.23</course>
  <speed>0.0</speed>
  <fix>3d</fix>
</trkpt>
<trkpt lat="40.0713749" lon="-105.229789">
  <ele>1583.0</ele>
  <time>2026-08-28T17:49:28Z</time>
  <course>0.0</course>
  <speed>0.0</speed>
  <fix>3d</fix>
</trkpt>
<trkpt lat="40.0713749" lon="-105.229789">
  <ele>1583.0</ele>
  <time>2026-08-28T17:49:28Z</time>
  <course>248.25</course>
  <speed>0.0</speed>
  <fix>3d</fix>
</trkpt>
<trkpt lat="40.0713749" lon="-105.229789">
  <ele>1583.0</ele>
  <time>2026-08-28T17:49:28Z</time>
  <course>0.0</course>
  <speed>0.0</speed>
  <fix>3d</fix>
</trkpt>
<trkpt lat="40.0713749" lon="-105.229789">
  <ele>1583.0</ele>
  <time>2026-08-28T17:49:28Z</time>
  <course>248.26</course>
  <speed>0.0</speed>
  <fix>3d</fix>
</trkpt>
<trkpt lat="40.0713749" lon="-105.229789">
  <ele>1583.0</ele>
  <time>2026-08-28T17:49:28Z</time>
  <course>0.0</course>
  <speed>0.0</speed>
  <fix>3d</fix>
</trkpt>
<trkpt lat="40.0713749" lon="-105.229789">
  <ele>1583.0</ele>
  <time>2026-08-28T17:49:28Z</time>
  <course>248.28</course>
  <speed>0.0</speed>
  <fix>3d</fix>
</trkpt>
<trkpt lat="40.0713749" lon="-105.229789">
  <ele>1583.0</ele>
  <time>2026-08-28T17:49:28Z</time>
  <course>0.0</course>
  <speed>0.0</speed>
  <fix>3d</fix>
</trkpt>
<trkpt lat="40.0713749" lon="-105.229789">
  <ele>1583.0</ele>
  <time>2026-08-28T17:49:28Z</time>
  <course>248.29</course>
  <speed>0.0</speed>
  <fix>3d</fix>
</trkpt>
<trkpt lat="40.0713749" lon="-105.229789">
  <ele>1583.0</ele>
  <time>2026-08-28T17:49:28Z</time>
  <course>0.0</course>
  <speed>0.0</speed>
  <fix>3d</fix>
</trkpt>
<trkpt lat="40.0713749" lon="-105.229789">
  <ele>1583.0</ele>
  <time>2026-08-28T17:49:28Z</time>
  <course>248.3</course>
  <speed>0.0</speed>
  <fix>3d</fix>
</trkpt>
<trkpt lat="40.0713749" lon="-105.229789">
  <ele>1583.0</ele>
  <time>2026-08-28T17:49:28Z</time>
  <course>0.0</course>
  <speed>0.0</speed>
  <fix>3d</fix>
</trkpt>
<trkpt lat="40.0713749" lon="-105.229789">
  <ele>1583.0</ele>
  <time>2026-08-28T17:49:28Z</time>
  <course>248.31</course>
  <speed>0.0</speed>
  <fix>3d</fix>
</trkpt>
<trkpt lat="40.0713749" lon="-105.229789">
  <ele>1583.0</ele>
  <time>2026-08-28T17:49:28Z</time>
  <course>0.0</course>
  <speed>0.0</speed>
  <fix>3d</fix>
</trkpt>
<trkpt lat="40.0713749" lon="-105.229789">
  <ele>1583.0</ele>
  <time>2026-08-28T17:49:28Z</time>
  <course>248.32</course>
  <speed>0.0</speed>
  <fix>3d</fix>
</trkpt>
<trkpt lat="40.0713749" lon="-105.229789">
  <ele>1583.0</ele>
  <time>2026-08-28T17:49:28Z</time>
  <course>0.0</course>
  <speed>0.0</speed>
  <fix>3d</fix>
</trkpt>
<trkpt lat="40.0713749" lon="-105.229789">
  <ele>1583.0</ele>
  <time>2026-08-28T17:49:28Z</time>
  <course>248.33</course>
  <speed>0.0</speed>
  <fix>3d</fix>
</trkpt>
<trkpt lat="40.0713749" lon="-105.229789">
  <ele>1583.0</ele>
  <time>2026-08-28T17:49:28Z</time>
  <course>0.0</course>
  <speed>0.0</speed>
  <fix>3d</fix>
</trkpt>
<trkpt lat="40.0713749" lon="-105.229789">
  <ele>1583.0</ele>
  <time>2026-08-28T17:49:28Z</time>
  <course>248.34</course>
  <speed>0.0</speed>
  <fix>3d</fix>
</trkpt>
<trkpt lat="40.0713749" lon="-105.229789">
  <ele>1583.0</ele>
  <time>2026-08-28T17:49:28Z</time>
  <course>0.0</course>
  <speed>0.0</speed>
  <fix>3d</fix>
</trkpt>
<trkpt lat="40.0713749" lon="-105.229789">
  <ele>1583.0</ele>
  <time>2026-08-28T17:49:28Z</time>
  <course>248.35</course>
  <speed>0.0</speed>
  <fix>3d</fix>
</trkpt>
<trkpt lat="40.0713749" lon="-105.229789">
  <ele>1583.0</ele>
  <time>2026-08-28T17:49:28Z</time>
  <course>0.0</course>
  <speed>0.0</speed>
  <fix>3d</fix>
</trkpt>
<trkpt lat="40.0713749" lon="-105.229789">
  <ele>1583.0</ele>
  <time>2026-08-28T17:49:28Z</time>
  <course>248.35</course>
  <speed>0.0</speed>
  <fix>3d</fix>
</trkpt>
<trkpt lat="40.0713749" lon="-105.229789">
  <ele>1583.0</ele>
  <time>2026-08-28T17:49:28Z</time>
  <course>0.0</course>
  <speed>0.0</speed>
  <fix>3d</fix>
</trkpt>
<trkpt lat="40.0713749" lon="-105.229789">
  <ele>1583.0</ele>
  <time>2026-08-28T17:49:28Z</time>
  <course>248.36</course>
  <speed>0.0</speed>
  <fix>3d</fix>
</trkpt>
<trkpt lat="40.0713749" lon="-105.229789">
  <ele>1583.0</ele>
  <time>2026-08-28T17:49:28Z</time>
  <course>0.0</course>
  <speed>0.0</speed>
  <fix>3d</fix>
</trkpt>
<trkpt lat="40.0713749" lon="-105.229789">
  <ele>1583.0</ele>
  <time>2026-08-28T17:49:28Z</time>
  <course>248.37</course>
  <speed>0.0</speed>
  <fix>3d</fix>
</trkpt>
<trkpt lat="40.0713749" lon="-105.229789">
  <ele>1583.0</ele>
  <time>2026-08-28T17:49:28Z</time>
  <course>0.0</course>
  <speed>0.0</speed>
  <fix>3d</fix>
</trkpt>
<trkpt lat="40.0713749" lon="-105.229789">
  <ele>1583.0</ele>
  <time>2026-08-28T17:49:28Z</time>
  <course>248.37</course>
  <speed>0.0</speed>
  <fix>3d</fix>
</trkpt>
<trkpt lat="40.0713749" lon="-105.229789">
  <ele>1583.0</ele>
  <time>2026-08-28T17:49:28Z</time>
  <course>0.0</course>
  <speed>0.0</speed>
  <fix>3d</fix>
</trkpt>
<trkpt lat="40.0713749" lon="-105.229789">
  <ele>1583.0</ele>
  <time>2026-08-28T17:49:28Z</time>
  <course>248.38</course>
  <speed>0.0</speed>
  <fix>3d</fix>
</trkpt>
<trkpt lat="40.0713749" lon="-105.229789">
  <ele>1583.0</ele>
  <time>2026-08-28T17:49:28Z</time>
  <course>0.0</course>
  <speed>0.0</speed>
  <fix>3d</fix>
</trkpt>
<trkpt lat="40.0713749" lon="-105.229789">
  <ele>1583.0</ele>
  <time>2026-08-28T17:49:28Z</time>
  <course>248.38</course>
  <speed>0.0</speed>
  <fix>3d</fix>
</trkpt>
<trkpt lat="40.0713749" lon="-105.229789">
  <ele>1583.0</ele>
  <time>2026-08-28T17:49:28Z</time>
  <course>0.0</course>
  <speed>0.0</speed>
  <fix>3d</fix>
</trkpt>
<trkpt lat="40.0713749" lon="-105.229789">
  <ele>1583.0</ele>
  <time>2026-08-28T17:49:28Z</time>
  <course>248.39</course>
  <speed>0.0</speed>
  <fix>3d</fix>
</trkpt>
<trkpt lat="40.0713749" lon="-105.229789">
  <ele>1583.0</ele>
  <time>2026-08-28T17:49:28Z</time>
  <course>0.0</course>
  <speed>0.0</speed>
  <fix>3d</fix>
</trkpt>
<trkpt lat="40.0713749" lon="-105.229789">
  <ele>1583.0</ele>
  <time>2026-08-28T17:49:28Z</time>
  <course>248.39</course>
  <speed>0.0</speed>
  <fix>3d</fix>
</trkpt>
<trkpt lat="40.0713749" lon="-105.229789">
  <ele>1583.0</ele>
  <time>2026-08-28T17:49:28Z</time>
  <course>0.0</course>
  <speed>0.0</speed>
  <fix>3d</fix>
</trkpt>
<trkpt lat="40.0713749" lon="-105.229789">
  <ele>1583.0</ele>
  <time>2026-08-28T17:49:28Z</time>
  <course>248.4</course>
  <speed>0.0</speed>
  <fix>3d</fix>
</trkpt>
<trkpt lat="40.0713749" lon="-105.229789">
  <ele>1583.0</ele>
  <time>2026-08-28T17:49:28Z</time>
  <course>0.0</course>
  <speed>0.0</speed>
  <fix>3d</fix>
</trkpt>
<trkpt lat="40.0713749" lon="-105.229789">
  <ele>1583.0</ele>
  <time>2026-08-28T17:49:28Z</time>
  <course>248.4</course>
  <speed>0.0</speed>
  <fix>3d</fix>
</trkpt>
<trkpt lat="40.0713749" lon="-105.229789">
  <ele>1583.0</ele>
  <time>2026-08-28T17:49:28Z</time>
  <course>0.0</course>
  <speed>0.0</speed>
  <fix>3d</fix>
</trkpt>
<trkpt lat="40.0713749" lon="-105.229789">
  <ele>1583.0</ele>
  <time>2026-08-28T17:49:28Z</time>
  <course>248.4</course>
  <speed>0.0</speed>
  <fix>3d</fix>
</trkpt>
<trkpt lat="40.0713749" lon="-105.229789">
  <ele>1583.0</ele>
  <time>2026-08-28T17:49:28Z</time>
  <course>0.0</course>
  <speed>0.0</speed>
  <fix>3d</fix>
</trkpt>
<trkpt lat="40.0713749" lon="-105.229789">
  <ele>1583.0</ele>
  <time>2026-08-28T17:49:28Z</time>
  <course>248.4</course>
  <speed>0.0</speed>
  <fix>3d</fix>
</trkpt>
<trkpt lat="40.0713749" lon="-105.229789">
  <ele>1583.0</ele>
  <time>2026-08-28T17:49:28Z</time>
  <course>0.0</course>
  <speed>0.0</speed>
  <fix>3d</fix>
</trkpt>
<trkpt lat="40.0713749" lon="-105.229789">
  <ele>1583.0</ele>
  <time>2026-08-28T17:49:28Z</time>
  <course>248.41</course>
  <speed>0.0</speed>
  <fix>3d</fix>
</trkpt>
<trkpt lat="40.0713749" lon="-105.229789">
  <ele>1583.0</ele>
  <time>2026-08-28T17:49:28Z</time>
  <course>0.0</course>
  <speed>0.0</speed>
  <fix>3d</fix>
</trkpt>
<trkpt lat="40.0713749" lon="-105.229789">
  <ele>1583.0</ele>
  <time>2026-08-28T17:49:28Z</time>
  <course>248.41</course>
  <speed>0.0</speed>
  <fix>3d</fix>
</trkpt>
<trkpt lat="40.0713749" lon="-105.229789">
  <ele>1583.0</ele>
  <time>2026-08-28T17:49:28Z</time>
  <course>0.0</course>
  <speed>0.0</speed>
  <fix>3d</fix>
</trkpt>
<trkpt lat="40.0713749" lon="-105.229789">
  <ele>1583.0</ele>
  <time>2026-08-28T17:49:28Z</time>
  <course>248.41</course>
  <speed>0.0</speed>
  <fix>3d</fix>
</trkpt>
<trkpt lat="40.0713749" lon="-105.229789">
  <ele>1583.0</ele>
  <time>2026-08-28T17:49:28Z</time>
  <course>0.0</course>
  <speed>0.0</speed>
  <fix>3d</fix>
</trkpt>
<trkpt lat="40.0713749" lon="-105.229789">
  <ele>1583.0</ele>
  <time>2026-08-28T17:49:28Z</time>
  <course>248.41</course>
  <speed>0.0</speed>
  <fix>3d</fix>
</trkpt>
<trkpt lat="40.0713749" lon="-105.229789">
  <ele>1583.0</ele>
  <time>2026-08-28T17:49:28Z</time>
  <course>0.0</course>
  <speed>0.0</speed>
  <fix>3d</fix>
</trkpt>
<trkpt lat="40.0713749" lon="-105.229789">
  <ele>1583.0</ele>
  <time>2026-08-28T17:49:28Z</time>
  <course>248.41</course>
  <speed>0.0</speed>
  <fix>3d</fix>
</trkpt>
<trkpt lat="40.0713749" lon="-105.229789">
  <ele>1583.0</ele>
  <time>2026-08-28T17:49:28Z</time>
  <course>0.0</course>
  <speed>0.0</speed>
  <fix>3d</fix>
</trkpt>
<trkpt lat="40.0713749" lon="-105.229789">
  <ele>1583.0</ele>
  <time>2026-08-28T17:49:28Z</time>
  <course>248.41</course>
  <speed>0.0</speed>
  <fix>3d</fix>
</trkpt>
<trkpt lat="40.0713749" lon="-105.229789">
  <ele>1583.0</ele>
  <time>2026-08-28T17:49:28Z</time>
  <course>0.0</course>
  <speed>0.0</speed>
  <fix>3d</fix>
</trkpt>
<trkpt lat="40.0713749" lon="-105.229789">
  <ele>1583.0</ele>
  <time>2026-08-28T17:49:28Z</time>
  <course>248.41</course>
  <speed>0.0</speed>
  <fix>3d</fix>
</trkpt>
<trkpt lat="40.0713749" lon="-105.229789">
  <ele>1583.0</ele>
  <time>2026-08-28T17:49:28Z</time>
  <course>0.0</course>
  <speed>0.0</speed>
  <fix>3d</fix>
</trkpt>
<trkpt lat="40.0713749" lon="-105.229789">
  <ele>1583.0</ele>
  <time>2026-08-28T17:49:28Z</time>
  <course>248.41</course>
  <speed>0.0</speed>
  <fix>3d</fix>
</trkpt>
<trkpt lat="40.0713749" lon="-105.229789">
  <ele>1583.0</ele>
  <time>2026-08-28T17:49:28Z</time>
  <course>0.0</course>
  <speed>0.0</speed>
  <fix>3d</fix>
</trkpt>
<trkpt lat="40.0713749" lon="-105.229789">
  <ele>1583.0</ele>
  <time>2026-08-28T17:49:28Z</time>
  <course>248.41</course>
  <speed>0.0</speed>
  <fix>3d</fix>
</trkpt>
<trkpt lat="40.0713749" lon="-105.229789">
  <ele>1583.0</ele>
  <time>2026-08-28T17:49:28Z</time>
  <course>0.0</course>
  <speed>0.0</speed>
  <fix>3d</fix>
</trkpt>
<trkpt lat="40.0713749" lon="-105.229789">
  <ele>1583.0</ele>
  <time>2026-08-28T17:49:28Z</time>
  <course>248.41</course>
  <speed>0.0</speed>
  <fix>3d</fix>
</trkpt>
<trkpt lat="40.0713749" lon="-105.229789">
  <ele>1583.0</ele>
  <time>2026-08-28T17:49:28Z</time>
  <course>0.0</course>
  <speed>0.0</speed>
  <fix>3d</fix>
</trkpt>
<trkpt lat="40.0713749" lon="-105.229789">
  <ele>1583.0</ele>
  <time>2026-08-28T17:49:28Z</time>
  <course>248.41</course>
  <speed>0.0</speed>
  <fix>3d</fix>
</trkpt>
<trkpt lat="40.0713749" lon="-105.229789">
  <ele>1583.0</ele>
  <time>2026-08-28T17:49:28Z</time>
  <course>0.0</course>
  <speed>0.0</speed>
  <fix>3d</fix>
</trkpt>
<trkpt lat="40.0713749" lon="-105.229789">
  <ele>1583.0</ele>
  <time>2026-08-28T17:49:28Z</time>
  <course>248.41</course>
  <speed>0.0</speed>
  <fix>3d</fix>
</trkpt>
<trkpt lat="40.0713749" lon="-105.229789">
  <ele>1583.0</ele>
  <time>2026-08-28T17:49:28Z</time>
  <course>0.0</course>
  <speed>0.0</speed>
  <fix>3d</fix>
</trkpt>
<trkpt lat="40.0713749" lon="-105.229789">
  <ele>1583.0</ele>
  <time>2026-08-28T17:49:28Z</time>
  <course>248.41</course>
  <speed>0.0</speed>
  <fix>3d</fix>
</trkpt>
<trkpt lat="40.0713749" lon="-105.229789">
  <ele>1583.0</ele>
  <time>2026-08-28T17:49:28Z</time>
  <course>0.0</course>
  <speed>0.0</speed>
  <fix>3d</fix>
</trkpt>
<trkpt lat="40.0713749" lon="-105.229789">
  <ele>1583.0</ele>
  <time>2026-08-28T17:49:28Z</time>
  <course>248.41</course>
  <speed>0.0</speed>
  <fix>3d</fix>
</trkpt>
<trkpt lat="40.0713749" lon="-105.229789">
  <ele>1583.0</ele>
  <time>2026-08-28T17:49:28Z</time>
  <course>0.0</course>
  <speed>0.0</speed>
  <fix>3d</fix>
</trkpt>
<trkpt lat="40.0713749" lon="-105.229789">
  <ele>1583.0</ele>
  <time>2026-08-28T17:49:28Z</time>
  <course>248.41</course>
  <speed>0.0</speed>
  <fix>3d</fix>
</trkpt>
<trkpt lat="40.0713749" lon="-105.229789">
  <ele>1583.0</ele>
  <time>2026-08-28T17:49:28Z</time>
  <course>0.0</course>
  <speed>0.0</speed>
  <fix>3d</fix>
</trkpt>
<trkpt lat="40.0713749" lon="-105.229789">
  <ele>1583.0</ele>
  <time>2026-08-28T17:49:28Z</time>
  <course>248.41</course>
  <speed>0.0</speed>
  <fix>3d</fix>
</trkpt>
<trkpt lat="40.0713749" lon="-105.229789">
  <ele>1583.0</ele>
  <time>2026-08-28T17:49:28Z</time>
  <course>0.0</course>
  <speed>0.0</speed>
  <fix>3d</fix>
</trkpt>
<trkpt lat="40.0713749" lon="-105.229789">
  <ele>1583.0</ele>
  <time>2026-08-28T17:49:28Z</time>
  <course>248.4</course>
  <speed>0.0</speed>
  <fix>3d</fix>
</trkpt>
<trkpt lat="40.0713749" lon="-105.229789">
  <ele>1583.0</ele>
  <time>2026-08-28T17:49:28Z</time>
  <course>0.0</course>
  <speed>0.0</speed>
  <fix>3d</fix>
</trkpt>
<trkpt lat="40.0713749" lon="-105.229789">
  <ele>1583.0</ele>
  <time>2026-08-28T17:49:28Z</time>
  <course>248.4</course>
  <speed>0.01</speed>
  <fix>3d</fix>
</trkpt>
<trkpt lat="40.0713749" lon="-105.229789">
  <ele>1583.0</ele>
  <time>2026-08-28T17:49:28Z</time>
  <course>0.0</course>
  <speed>0.0</speed>
  <fix>3d</fix>
</trkpt>
<trkpt lat="40.0713749" lon="-105.229789">
  <ele>1583.0</ele>
  <time>2026-08-28T17:49:28Z</time>
  <course>248.4</course>
  <speed>0.01</speed>
  <fix>3d</fix>
</trkpt>
<trkpt lat="40.0713749" lon="-105.229789">
  <ele>1583.0</ele>
  <time>2026-08-28T17:49:28Z</time>
  <course>0.0</course>
  <speed>0.0</speed>
  <fix>3d</fix>
</trkpt>
<trkpt lat="40.0713749" lon="-105.229789">
  <ele>1583.0</ele>
  <time>2026-08-28T17:49:28Z</time>
  <course>248.4</course>
  <speed>0.01</speed>
  <fix>3d</fix>
</trkpt>
<trkpt lat="40.0713749" lon="-105.229789">
  <ele>1583.0</ele>
  <time>2026-08-28T17:49:28Z</time>
  <course>0.0</course>
  <speed>0.0</speed>
  <fix>3d</fix>
</trkpt>
<trkpt lat="40.0713749" lon="-105.229789">
  <ele>1583.0</ele>
  <time>2026-08-28T17:49:28Z</time>
  <course>248.4</course>
  <speed>0.01</speed>
  <fix>3d</fix>
</trkpt>
<trkpt lat="40.0713749" lon="-105.229789">
  <ele>1583.0</ele>
  <time>2026-08-28T17:49:28Z</time>
  <course>0.0</course>
  <speed>0.0</speed>
  <fix>3d</fix>
</trkpt>
<trkpt lat="40.0713749" lon="-105.229789">
  <ele>1583.0</ele>
  <time>2026-08-28T17:49:28Z</time>
  <course>248.39</course>
  <speed>0.01</speed>
  <fix>3d</fix>
</trkpt>
<trkpt lat="40.0713749" lon="-105.229789">
  <ele>1583.0</ele>
  <time>2026-08-28T17:49:28Z</time>
  <course>0.0</course>
  <speed>0.0</speed>
  <fix>3d</fix>
</trkpt>
<trkpt lat="40.0713749" lon="-105.229789">
  <ele>1583.0</ele>
  <time>2026-08-28T17:49:28Z</time>
  <course>248.39</course>
  <speed>0.01</speed>
  <fix>3d</fix>
</trkpt>
<trkpt lat="40.0713749" lon="-105.229789">
  <ele>1583.0</ele>
  <time>2026-08-28T17:49:28Z</time>
  <course>0.0</course>
  <speed>0.0</speed>
  <fix>3d</fix>
</trkpt>
<trkpt lat="40.0713749" lon="-105.229789">
  <ele>1583.0</ele>
  <time>2026-08-28T17:49:28Z</time>
  <course>248.39</course>
  <speed>0.01</speed>
  <fix>3d</fix>
</trkpt>
<trkpt lat="40.0713749" lon="-105.229789">
  <ele>1583.0</ele>
  <time>2026-08-28T17:49:28Z</time>
  <course>0.0</course>
  <speed>0.0</speed>
  <fix>3d</fix>
</trkpt>
<trkpt lat="40.0713749" lon="-105.229789">
  <ele>1583.0</ele>
  <time>2026-08-28T17:49:28Z</time>
  <course>248.38</course>
  <speed>0.01</speed>
  <fix>3d</fix>
</trkpt>
<trkpt lat="40.0713749" lon="-105.229789">
  <ele>1583.0</ele>
  <time>2026-08-28T17:49:28Z</time>
  <course>0.0</course>
  <speed>0.0</speed>
  <fix>3d</fix>
</trkpt>
<trkpt lat="40.0713749" lon="-105.229789">
  <ele>1583.0</ele>
  <time>2026-08-28T17:49:28Z</time>
  <course>248.38</course>
  <speed>0.01</speed>
  <fix>3d</fix>
</trkpt>
<trkpt lat="40.0713749" lon="-105.229789">
  <ele>1583.0</ele>
  <time>2026-08-28T17:49:28Z</time>
  <course>0.0</course>
  <speed>0.0</speed>
  <fix>3d</fix>
</trkpt>
<trkpt lat="40.0713749" lon="-105.229789">
  <ele>1583.0</ele>
  <time>2026-08-28T17:49:28Z</time>
  <course>248.38</course>
  <speed>0.01</speed>
  <fix>3d</fix>
</trkpt>
<trkpt lat="40.0713749" lon="-105.229789">
  <ele>1583.0</ele>
  <time>2026-08-28T17:49:28Z</time>
  <course>0.0</course>
  <speed>0.0</speed>
  <fix>3d</fix>
</trkpt>
<trkpt lat="40.0713749" lon="-105.229789">
  <ele>1583.0</ele>
  <time>2026-08-28T17:49:28Z</time>
  <course>248.37</course>
  <speed>0.01</speed>
  <fix>3d</fix>
</trkpt>
<trkpt lat="40.0713749" lon="-105.229789">
  <ele>1583.0</ele>
  <time>2026-08-28T17:49:28Z</time>
  <course>0.0</course>
  <speed>0.0</speed>
  <fix>3d</fix>
</trkpt>
<trkpt lat="40.0713749" lon="-105.229789">
  <ele>1583.0</ele>
  <time>2026-08-28T17:49:28Z</time>
  <course>248.37</course>
  <speed>0.01</speed>
  <fix>3d</fix>
</trkpt>
<trkpt lat="40.0713749" lon="-105.229789">
  <ele>1583.0</ele>
  <time>2026-08-28T17:49:28Z</time>
  <course>0.0</course>
  <speed>0.0</speed>
  <fix>3d</fix>
</trkpt>
<trkpt lat="40.0713749" lon="-105.229789">
  <ele>1583.0</ele>
  <time>2026-08-28T17:49:28Z</time>
  <course>248.37</course>
  <speed>0.01</speed>
  <fix>3d</fix>
</trkpt>
<trkpt lat="40.0713749" lon="-105.229789">
  <ele>1583.0</ele>
  <time>2026-08-28T17:49:28Z</time>
  <course>0.0</course>
  <speed>0.0</speed>
  <fix>3d</fix>
</trkpt>
<trkpt lat="40.0713749" lon="-105.229789">
  <ele>1583.0</ele>
  <time>2026-08-28T17:49:28Z</time>
  <course>248.36</course>
  <speed>0.01</speed>
  <fix>3d</fix>
</trkpt>
<trkpt lat="40.0713749" lon="-105.229789">
  <ele>1583.0</ele>
  <time>2026-08-28T17:49:28Z</time>
  <course>0.0</course>
  <speed>0.0</speed>
  <fix>3d</fix>
</trkpt>
<trkpt lat="40.0713749" lon="-105.229789">
  <ele>1583.0</ele>
  <time>2026-08-28T17:49:28Z</time>
  <course>248.36</course>
  <speed>0.01</speed>
  <fix>3d</fix>
</trkpt>
<trkpt lat="40.0713749" lon="-105.229789">
  <ele>1583.0</ele>
  <time>2026-08-28T17:49:28Z</time>
  <course>0.0</course>
  <speed>0.0</speed>
  <fix>3d</fix>
</trkpt>
<trkpt lat="40.0713749" lon="-105.229789">
  <ele>1583.0</ele>
  <time>2026-08-28T17:49:28Z</time>
  <course>248.36</course>
  <speed>0.01</speed>
  <fix>3d</fix>
</trkpt>
<trkpt lat="40.0713749" lon="-105.229789">
  <ele>1583.0</ele>
  <time>2026-08-28T17:49:28Z</time>
  <course>0.0</course>
  <speed>0.0</speed>
  <fix>3d</fix>
</trkpt>
<trkpt lat="40.0713749" lon="-105.229789">
  <ele>1583.0</ele>
  <time>2026-08-28T17:49:28Z</time>
  <course>248.35</course>
  <speed>0.01</speed>
  <fix>3d</fix>
</trkpt>
<trkpt lat="40.0713749" lon="-105.229789">
  <ele>1583.0</ele>
  <time>2026-08-28T17:49:28Z</time>
  <course>0.0</course>
  <speed>0.0</speed>
  <fix>3d</fix>
</trkpt>
<trkpt lat="40.0713749" lon="-105.229789">
  <ele>1583.0</ele>
  <time>2026-08-28T17:49:28Z</time>
  <course>248.35</course>
  <speed>0.01</speed>
  <fix>3d</fix>
</trkpt>
<trkpt lat="40.0713749" lon="-105.229789">
  <ele>1583.0</ele>
  <time>2026-08-28T17:49:28Z</time>
  <course>0.0</course>
  <speed>0.0</speed>
  <fix>3d</fix>
</trkpt>
<trkpt lat="40.0713749" lon="-105.229789">
  <ele>1583.0</ele>
  <time>2026-08-28T17:49:28Z</time>
  <course>248.35</course>
  <speed>0.01</speed>
  <fix>3d</fix>
</trkpt>
<trkpt lat="40.0713749" lon="-105.229789">
  <ele>1583.0</ele>
  <time>2026-08-28T17:49:28Z</time>
  <course>0.0</course>
  <speed>0.0</speed>
  <fix>3d</fix>
</trkpt>
<trkpt lat="40.0713749" lon="-105.229789">
  <ele>1583.0</ele>
  <time>2026-08-28T17:49:28Z</time>
  <course>248.34</course>
  <speed>0.01</speed>
  <fix>3d</fix>
</trkpt>
<trkpt lat="40.0713749" lon="-105.229789">
  <ele>1583.0</ele>
  <time>2026-08-28T17:49:28Z</time>
  <course>0.0</course>
  <speed>0.0</speed>
  <fix>3d</fix>
</trkpt>
<trkpt lat="40.0713749" lon="-105.229789">
  <ele>1583.0</ele>
  <time>2026-08-28T17:49:28Z</time>
  <course>248.34</course>
  <speed>0.01</speed>
  <fix>3d</fix>
</trkpt>
<trkpt lat="40.0713749" lon="-105.229789">
  <ele>1583.0</ele>
  <time>2026-08-28T17:49:28Z</time>
  <course>0.0</course>
  <speed>0.0</speed>
  <fix>3d</fix>
</trkpt>
<trkpt lat="40.0713749" lon="-105.229789">
  <ele>1583.0</ele>
  <time>2026-08-28T17:49:28Z</time>
  <course>248.33</course>
  <speed>0.01</speed>
  <fix>3d</fix>
</trkpt>
<trkpt lat="40.0713749" lon="-105.229789">
  <ele>1583.0</ele>
  <time>2026-08-28T17:49:28Z</time>
  <course>0.0</course>
  <speed>0.0</speed>
  <fix>3d</fix>
</trkpt>
<trkpt lat="40.0713749" lon="-105.229789">
  <ele>1583.0</ele>
  <time>2026-08-28T17:49:28Z</time>
  <course>248.33</course>
  <speed>0.01</speed>
  <fix>3d</fix>
</trkpt>
<trkpt lat="40.0713749" lon="-105.229789">
  <ele>1583.0</ele>
  <time>2026-08-28T17:49:28Z</time>
  <course>0.0</course>
  <speed>0.0</speed>
  <fix>3d</fix>
</trkpt>
<trkpt lat="40.0713749" lon="-105.229789">
  <ele>1583.0</ele>
  <time>2026-08-28T17:49:28Z</time>
  <course>248.32</course>
  <speed>0.01</speed>
  <fix>3d</fix>
</trkpt>
<trkpt lat="40.0713749" lon="-105.229789">
  <ele>1583.0</ele>
  <time>2026-08-28T17:49:28Z</time>
  <course>0.0</course>
  <speed>0.0</speed>
  <fix>3d</fix>
</trkpt>
<trkpt lat="40.0713749" lon="-105.229789">
  <ele>1583.0</ele>
  <time>2026-08-28T17:49:28Z</time>
  <course>248.32</course>
  <speed>0.01</speed>
  <fix>3d</fix>
</trkpt>
<trkpt lat="40.0713749" lon="-105.229789">
  <ele>1583.0</ele>
  <time>2026-08-28T17:49:28Z</time>
  <course>0.0</course>
  <speed>0.0</speed>
  <fix>3d</fix>
</trkpt>
<trkpt lat="40.0713749" lon="-105.229789">
  <ele>1583.0</ele>
  <time>2026-08-28T17:49:28Z</time>
  <course>248.32</course>
  <speed>0.01</speed>
  <fix>3d</fix>
</trkpt>
<trkpt lat="40.0713749" lon="-105.229789">
  <ele>1583.0</ele>
  <time>2026-08-28T17:49:28Z</time>
  <course>0.0</course>
  <speed>0.0</speed>
  <fix>3d</fix>
</trkpt>
<trkpt lat="40.0713749" lon="-105.229789">
  <ele>1583.0</ele>
  <time>2026-08-28T17:49:28Z</time>
  <course>248.31</course>
  <speed>0.01</speed>
  <fix>3d</fix>
</trkpt>
<trkpt lat="40.0713749" lon="-105.229789">
  <ele>1583.0</ele>
  <time>2026-08-28T17:49:28Z</time>
  <course>0.0</course>
  <speed>0.0</speed>
  <fix>3d</fix>
</trkpt>
<trkpt lat="40.0713749" lon="-105.229789">
  <ele>1583.0</ele>
  <time>2026-08-28T17:49:28Z</time>
  <course>248.31</course>
  <speed>0.01</speed>
  <fix>3d</fix>
</trkpt>
<trkpt lat="40.0713749" lon="-105.229789">
  <ele>1583.0</ele>
  <time>2026-08-28T17:49:28Z</time>
  <course>0.0</course>
  <speed>0.0</speed>
  <fix>3d</fix>
</trkpt>
<trkpt lat="40.0713749" lon="-105.229789">
  <ele>1583.0</ele>
  <time>2026-08-28T17:49:28Z</time>
  <course>248.3</course>
  <speed>0.01</speed>
  <fix>3d</fix>
</trkpt>
<trkpt lat="40.0713749" lon="-105.229789">
  <ele>1583.0</ele>
  <time>2026-08-28T17:49:28Z</time>
  <course>0.0</course>
  <speed>0.0</speed>
  <fix>3d</fix>
</trkpt>
<trkpt lat="40.0713749" lon="-105.229789">
  <ele>1583.0</ele>
  <time>2026-08-28T17:49:28Z</time>
  <course>248.3</course>
  <speed>0.01</speed>
  <fix>3d</fix>
</trkpt>
<trkpt lat="40.0713749" lon="-105.229789">
  <ele>1583.0</ele>
  <time>2026-08-28T17:49:28Z</time>
  <course>0.0</course>
  <speed>0.0</speed>
  <fix>3d</fix>
</trkpt>
<trkpt lat="40.0713749" lon="-105.229789">
  <ele>1583.0</ele>
  <time>2026-08-28T17:49:28Z</time>
  <course>248.29</course>
  <speed>0.01</speed>
  <fix>3d</fix>
</trkpt>
<trkpt lat="40.0713749" lon="-105.229789">
  <ele>1583.0</ele>
  <time>2026-08-28T17:49:28Z</time>
  <course>0.0</course>
  <speed>0.0</speed>
  <fix>3d</fix>
</trkpt>
<trkpt lat="40.0713749" lon="-105.229789">
  <ele>1583.0</ele>
  <time>2026-08-28T17:49:28Z</time>
  <course>248.29</course>
  <speed>0.01</speed>
  <fix>3d</fix>
</trkpt>
<trkpt lat="40.0713749" lon="-105.229789">
  <ele>1583.0</ele>
  <time>2026-08-28T17:49:28Z</time>
  <course>0.0</course>
  <speed>0.0</speed>
  <fix>3d</fix>
</trkpt>
<trkpt lat="40.0713749" lon="-105.229789">
  <ele>1583.0</ele>
  <time>2026-08-28T17:49:28Z</time>
  <course>248.28</course>
  <speed>0.01</speed>
  <fix>3d</fix>
</trkpt>
<trkpt lat="40.0713749" lon="-105.229789">
  <ele>1583.0</ele>
  <time>2026-08-28T17:49:28Z</time>
  <course>0.0</course>
  <speed>0.0</speed>
  <fix>3d</fix>
</trkpt>
<trkpt lat="40.0713749" lon="-105.229789">
  <ele>1583.0</ele>
  <time>2026-08-28T17:49:28Z</time>
  <course>248.28</course>
  <speed>0.01</speed>
  <fix>3d</fix>
</trkpt>
<trkpt lat="40.0713749" lon="-105.229789">
  <ele>1583.0</ele>
  <time>2026-08-28T17:49:28Z</time>
  <course>0.0</course>
  <speed>0.0</speed>
  <fix>3d</fix>
</trkpt>
<trkpt lat="40.0713749" lon="-105.229789">
  <ele>1583.0</ele>
  <time>2026-08-28T17:49:28Z</time>
  <course>248.27</course>
  <speed>0.01</speed>
  <fix>3d</fix>
</trkpt>
<trkpt lat="40.0713749" lon="-105.229789">
  <ele>1583.0</ele>
  <time>2026-08-28T17:49:28Z</time>
  <course>0.0</course>
  <speed>0.0</speed>
  <fix>3d</fix>
</trkpt>
<trkpt lat="40.0713749" lon="-105.229789">
  <ele>1583.0</ele>
  <time>2026-08-28T17:49:28Z</time>
  <course>248.27</course>
  <speed>0.01</speed>
  <fix>3d</fix>
</trkpt>
<trkpt lat="40.0713749" lon="-105.229789">
  <ele>1583.0</ele>
  <time>2026-08-28T17:49:28Z</time>
  <course>0.0</course>
  <speed>0.0</speed>
  <fix>3d</fix>
</trkpt>
<trkpt lat="40.0713749" lon="-105.229789">
  <ele>1583.0</ele>
  <time>2026-08-28T17:49:28Z</time>
  <course>248.26</course>
  <speed>0.01</speed>
  <fix>3d</fix>
</trkpt>
<trkpt lat="40.0713749" lon="-105.229789">
  <ele>1583.0</ele>
  <time>2026-08-28T17:49:28Z</time>
  <course>0.0</course>
  <speed>0.0</speed>
  <fix>3d</fix>
</trkpt>
<trkpt lat="40.0713749" lon="-105.229789">
  <ele>1583.0</ele>
  <time>2026-08-28T17:49:28Z</time>
  <course>248.26</course>
  <speed>0.01</speed>
  <fix>3d</fix>
</trkpt>
<trkpt lat="40.0713749" lon="-105.229789">
  <ele>1583.0</ele>
  <time>2026-08-28T17:49:28Z</time>
  <course>0.0</course>
  <speed>0.0</speed>
  <fix>3d</fix>
</trkpt>
<trkpt lat="40.0713749" lon="-105.229789">
  <ele>1583.0</ele>
  <time>2026-08-28T17:49:28Z</time>
  <course>248.26</course>
  <speed>0.01</speed>
  <fix>3d</fix>
</trkpt>
<trkpt lat="40.0713749" lon="-105.229789">
  <ele>1583.0</ele>
  <time>2026-08-28T17:49:28Z</time>
  <course>0.0</course>
  <speed>0.0</speed>
  <fix>3d</fix>
</trkpt>
<trkpt lat="40.0713749" lon="-105.229789">
  <ele>1583.0</ele>
  <time>2026-08-28T17:49:28Z</time>
  <course>248.25</course>
  <speed>0.01</speed>
  <fix>3d</fix>
</trkpt>
<trkpt lat="40.0713749" lon="-105.229789">
  <ele>1583.0</ele>
  <time>2026-08-28T17:49:28Z</time>
  <course>0.0</course>
  <speed>0.0</speed>
  <fix>3d</fix>
</trkpt>
<trkpt lat="40.0713749" lon="-105.229789">
  <ele>1583.0</ele>
  <time>2026-08-28T17:49:28Z</time>
  <course>248.25</course>
  <speed>0.01</speed>
  <fix>3d</fix>
</trkpt>
<trkpt lat="40.0713749" lon="-105.229789">
  <ele>1583.0</ele>
  <time>2026-08-28T17:49:28Z</time>
  <course>0.0</course>
  <speed>0.0</speed>
  <fix>3d</fix>
</trkpt>
<trkpt lat="40.0713749" lon="-105.229789">
  <ele>1583.0</ele>
  <time>2026-08-28T17:49:28Z</time>
  <course>248.24</course>
  <speed>0.01</speed>
  <fix>3d</fix>
</trkpt>
<trkpt lat="40.0713749" lon="-105.229789">
  <ele>1583.0</ele>
  <time>2026-08-28T17:49:28Z</time>
  <course>0.0</course>
  <speed>0.0</speed>
  <fix>3d</fix>
</trkpt>
<trkpt lat="40.0713749" lon="-105.229789">
  <ele>1583.0</ele>
  <time>2026-08-28T17:49:28Z</time>
  <course>248.24</course>
  <speed>0.01</speed>
  <fix>3d</fix>
</trkpt>
<trkpt lat="40.0713749" lon="-105.229789">
  <ele>1583.0</ele>
  <time>2026-08-28T17:49:28Z</time>
  <course>0.0</course>
  <speed>0.0</speed>
  <fix>3d</fix>
</trkpt>
<trkpt lat="40.0713749" lon="-105.229789">
  <ele>1583.0</ele>
  <time>2026-08-28T17:49:28Z</time>
  <course>248.23</course>
  <speed>0.01</speed>
  <fix>3d</fix>
</trkpt>
<trkpt lat="40.0713749" lon="-105.229789">
  <ele>1583.0</ele>
  <time>2026-08-28T17:49:28Z</time>
  <course>0.0</course>
  <speed>0.0</speed>
  <fix>3d</fix>
</trkpt>
<trkpt lat="40.0713749" lon="-105.229789">
  <ele>1583.0</ele>
  <time>2026-08-28T17:49:28Z</time>
  <course>248.23</course>
  <speed>0.01</speed>
  <fix>3d</fix>
</trkpt>
<trkpt lat="40.0713749" lon="-105.229789">
  <ele>1583.0</ele>
  <time>2026-08-28T17:49:28Z</time>
  <course>0.0</course>
  <speed>0.0</speed>
  <fix>3d</fix>
</trkpt>
<trkpt lat="40.0713749" lon="-105.229789">
  <ele>1583.0</ele>
  <time>2026-08-28T17:49:29Z</time>
  <course>248.22</course>
  <speed>0.01</speed>
  <fix>3d</fix>
</trkpt>
<trkpt lat="40.0713749" lon="-105.229789">
  <ele>1583.0</ele>
  <time>2026-08-28T17:49:29Z</time>
  <course>0.0</course>
  <speed>0.0</speed>
  <fix>3d</fix>
</trkpt>
<trkpt lat="40.0713749" lon="-105.229789">
  <ele>1583.0</ele>
  <time>2026-08-28T17:49:29Z</time>
  <course>248.22</course>
  <speed>0.01</speed>
  <fix>3d</fix>
</trkpt>
<trkpt lat="40.0713749" lon="-105.229789">
  <ele>1583.0</ele>
  <time>2026-08-28T17:49:29Z</time>
  <course>0.0</course>
  <speed>0.0</speed>
  <fix>3d</fix>
</trkpt>
<trkpt lat="40.0713749" lon="-105.229789">
  <ele>1583.0</ele>
  <time>2026-08-28T17:49:29Z</time>
  <course>248.21</course>
  <speed>0.01</speed>
  <fix>3d</fix>
</trkpt>
<trkpt lat="40.0713749" lon="-105.229789">
  <ele>1583.0</ele>
  <time>2026-08-28T17:49:29Z</time>
  <course>0.0</course>
  <speed>0.0</speed>
  <fix>3d</fix>
</trkpt>
<trkpt lat="40.0713749" lon="-105.229789">
  <ele>1583.0</ele>
  <time>2026-08-28T17:49:29Z</time>
  <course>248.21</course>
  <speed>0.01</speed>
  <fix>3d</fix>
</trkpt>
<trkpt lat="40.0713749" lon="-105.229789">
  <ele>1583.0</ele>
  <time>2026-08-28T17:49:29Z</time>
  <course>0.0</course>
  <speed>0.0</speed>
  <fix>3d</fix>
</trkpt>
<trkpt lat="40.0713749" lon="-105.229789">
  <ele>1583.0</ele>
  <time>2026-08-28T17:49:29Z</time>
  <course>248.2</course>
  <speed>0.01</speed>
  <fix>3d</fix>
</trkpt>
<trkpt lat="40.0713749" lon="-105.229789">
  <ele>1583.0</ele>
  <time>2026-08-28T17:49:29Z</time>
  <course>0.0</course>
  <speed>0.0</speed>
  <fix>3d</fix>
</trkpt>
<trkpt lat="40.0713749" lon="-105.229789">
  <ele>1583.0</ele>
  <time>2026-08-28T17:49:29Z</time>
  <course>248.2</course>
  <speed>0.01</speed>
  <fix>3d</fix>
</trkpt>
<trkpt lat="40.0713749" lon="-105.229789">
  <ele>1583.0</ele>
  <time>2026-08-28T17:49:29Z</time>
  <course>0.0</course>
  <speed>0.0</speed>
  <fix>3d</fix>
</trkpt>
<trkpt lat="40.0713749" lon="-105.229789">
  <ele>1583.0</ele>
  <time>2026-08-28T17:49:29Z</time>
  <course>248.19</course>
  <speed>0.01</speed>
  <fix>3d</fix>
</trkpt>
<trkpt lat="40.0713749" lon="-105.229789">
  <ele>1583.0</ele>
  <time>2026-08-28T17:49:29Z</time>
  <course>0.0</course>
  <speed>0.0</speed>
  <fix>3d</fix>
</trkpt>
<trkpt lat="40.0713749" lon="-105.229789">
  <ele>1583.0</ele>
  <time>2026-08-28T17:49:29Z</time>
  <course>248.19</course>
  <speed>0.01</speed>
  <fix>3d</fix>
</trkpt>
<trkpt lat="40.0713749" lon="-105.229789">
  <ele>1583.0</ele>
  <time>2026-08-28T17:49:29Z</time>
  <course>0.0</course>
  <speed>0.0</speed>
  <fix>3d</fix>
</trkpt>
<trkpt lat="40.0713749" lon="-105.229789">
  <ele>1583.0</ele>
  <time>2026-08-28T17:49:29Z</time>
  <course>248.18</course>
  <speed>0.01</speed>
  <fix>3d</fix>
</trkpt>
<trkpt lat="40.0713749" lon="-105.229789">
  <ele>1583.0</ele>
  <time>2026-08-28T17:49:29Z</time>
  <course>0.0</course>
  <speed>0.0</speed>
  <fix>3d</fix>
</trkpt>
<trkpt lat="40.0713749" lon="-105.229789">
  <ele>1583.0</ele>
  <time>2026-08-28T17:49:29Z</time>
  <course>248.18</course>
  <speed>0.01</speed>
  <fix>3d</fix>
</trkpt>
<trkpt lat="40.0713749" lon="-105.229789">
  <ele>1583.0</ele>
  <time>2026-08-28T17:49:29Z</time>
  <course>0.0</course>
  <speed>0.0</speed>
  <fix>3d</fix>
</trkpt>
<trkpt lat="40.0713749" lon="-105.229789">
  <ele>1583.0</ele>
  <time>2026-08-28T17:49:29Z</time>
  <course>248.17</course>
  <speed>0.022360679774997897</speed>
  <fix>3d</fix>
</trkpt>
<trkpt lat="40.0713749" lon="-105.229789">
  <ele>1583.0</ele>
  <time>2026-08-28T17:49:29Z</time>
  <course>0.0</course>
  <speed>0.0</speed>
  <fix>3d</fix>
</trkpt>
<trkpt lat="40.0713749" lon="-105.229789">
  <ele>1583.0</ele>
  <time>2026-08-28T17:49:29Z</time>
  <course>248.17</course>
  <speed>0.022360679774997897</speed>
  <fix>3d</fix>
</trkpt>
<trkpt lat="40.0713749" lon="-105.229789">
  <ele>1583.0</ele>
  <time>2026-08-28T17:49:29Z</time>
  <course>0.0</course>
  <speed>0.0</speed>
  <fix>3d</fix>
</trkpt>
<trkpt lat="40.0713749" lon="-105.229789">
  <ele>1583.0</ele>
  <time>2026-08-28T17:49:29Z</time>
  <course>248.16</course>
  <speed>0.022360679774997897</speed>
  <fix>3d</fix>
</trkpt>
<trkpt lat="40.0713749" lon="-105.229789">
  <ele>1583.0</ele>
  <time>2026-08-28T17:49:29Z</time>
  <course>0.0</course>
  <speed>0.0</speed>
  <fix>3d</fix>
</trkpt>
<trkpt lat="40.0713749" lon="-105.229789">
  <ele>1583.0</ele>
  <time>2026-08-28T17:49:29Z</time>
  <course>248.16</course>
  <speed>0.022360679774997897</speed>
  <fix>3d</fix>
</trkpt>
<trkpt lat="40.0713749" lon="-105.229789">
  <ele>1583.0</ele>
  <time>2026-08-28T17:49:29Z</time>
  <course>0.0</course>
  <speed>0.0</speed>
  <fix>3d</fix>
</trkpt>
<trkpt lat="40.0713749" lon="-105.229789">
  <ele>1583.0</ele>
  <time>2026-08-28T17:49:29Z</time>
  <course>248.15</course>
  <speed>0.022360679774997897</speed>
  <fix>3d</fix>
</trkpt>
<trkpt lat="40.0713749" lon="-105.229789">
  <ele>1583.0</ele>
  <time>2026-08-28T17:49:29Z</time>
  <course>0.0</course>
  <speed>0.0</speed>
  <fix>3d</fix>
</trkpt>
<trkpt lat="40.0713749" lon="-105.229789">
  <ele>1583.0</ele>
  <time>2026-08-28T17:49:29Z</time>
  <course>248.15</course>
  <speed>0.022360679774997897</speed>
  <fix>3d</fix>
</trkpt>
<trkpt lat="40.0713749" lon="-105.229789">
  <ele>1583.0</ele>
  <time>2026-08-28T17:49:29Z</time>
  <course>0.0</course>
  <speed>0.0</speed>
  <fix>3d</fix>
</trkpt>
<trkpt lat="40.0713749" lon="-105.229789">
  <ele>1583.0</ele>
  <time>2026-08-28T17:49:29Z</time>
  <course>248.14</course>
  <speed>0.022360679774997897</speed>
  <fix>3d</fix>
</trkpt>
<trkpt lat="40.0713749" lon="-105.229789">
  <ele>1583.0</ele>
  <time>2026-08-28T17:49:29Z</time>
  <course>0.0</course>
  <speed>0.0</speed>
  <fix>3d</fix>
</trkpt>
<trkpt lat="40.0713749" lon="-105.229789">
  <ele>1583.0</ele>
  <time>2026-08-28T17:49:29Z</time>
  <course>248.14</course>
  <speed>0.022360679774997897</speed>
  <fix>3d</fix>
</trkpt>
<trkpt lat="40.0713749" lon="-105.229789">
  <ele>1583.0</ele>
  <time>2026-08-28T17:49:29Z</time>
  <course>0.0</course>
  <speed>0.0</speed>
  <fix>3d</fix>
</trkpt>
<trkpt lat="40.0713749" lon="-105.229789">
  <ele>1583.0</ele>
  <time>2026-08-28T17:49:29Z</time>
  <course>248.13</course>
  <speed>0.022360679774997897</speed>
  <fix>3d</fix>
</trkpt>
<trkpt lat="40.0713749" lon="-105.229789">
  <ele>1583.0</ele>
  <time>2026-08-28T17:49:29Z</time>
  <course>0.0</course>
  <speed>0.0</speed>
  <fix>3d</fix>
</trkpt>
<trkpt lat="40.0713749" lon="-105.229789">
  <ele>1583.0</ele>
  <time>2026-08-28T17:49:29Z</time>
  <course>248.13</course>
  <speed>0.022360679774997897</speed>
  <fix>3d</fix>
</trkpt>
<trkpt lat="40.0713749" lon="-105.229789">
  <ele>1583.0</ele>
  <time>2026-08-28T17:49:29Z</time>
  <course>0.0</course>
  <speed>0.0</speed>
  <fix>3d</fix>
</trkpt>
<trkpt lat="40.0713749" lon="-105.229789">
  <ele>1583.0</ele>
  <time>2026-08-28T17:49:29Z</time>
  <course>248.12</course>
  <speed>0.022360679774997897</speed>
  <fix>3d</fix>
</trkpt>
<trkpt lat="40.0713749" lon="-105.229789">
  <ele>1583.0</ele>
  <time>2026-08-28T17:49:29Z</time>
  <course>0.0</course>
  <speed>0.0</speed>
  <fix>3d</fix>
</trkpt>
<trkpt lat="40.0713749" lon="-105.229789">
  <ele>1583.0</ele>
  <time>2026-08-28T17:49:29Z</time>
  <course>248.12</course>
  <speed>0.022360679774997897</speed>
  <fix>3d</fix>
</trkpt>
<trkpt lat="40.0713749" lon="-105.229789">
  <ele>1583.0</ele>
  <time>2026-08-28T17:49:29Z</time>
  <course>0.0</course>
  <speed>0.0</speed>
  <fix>3d</fix>
</trkpt>
<trkpt lat="40.0713749" lon="-105.229789">
  <ele>1583.0</ele>
  <time>2026-08-28T17:49:29Z</time>
  <course>248.11</course>
  <speed>0.022360679774997897</speed>
  <fix>3d</fix>
</trkpt>
<trkpt lat="40.0713749" lon="-105.229789">
  <ele>1583.0</ele>
  <time>2026-08-28T17:49:29Z</time>
  <course>0.0</course>
  <speed>0.0</speed>
  <fix>3d</fix>
</trkpt>
<trkpt lat="40.0713749" lon="-105.229789">
  <ele>1583.0</ele>
  <time>2026-08-28T17:49:29Z</time>
  <course>248.11</course>
  <speed>0.022360679774997897</speed>
  <fix>3d</fix>
</trkpt>
<trkpt lat="40.0713749" lon="-105.229789">
  <ele>1583.0</ele>
  <time>2026-08-28T17:49:29Z</time>
  <course>0.0</course>
  <speed>0.0</speed>
  <fix>3d</fix>
</trkpt>
<trkpt lat="40.0713749" lon="-105.229789">
  <ele>1583.0</ele>
  <time>2026-08-28T17:49:29Z</time>
  <course>248.1</course>
  <speed>0.022360679774997897</speed>
  <fix>3d</fix>
</trkpt>
<trkpt lat="40.0713749" lon="-105.229789">
  <ele>1583.0</ele>
  <time>2026-08-28T17:49:29Z</time>
  <course>0.0</course>
  <speed>0.0</speed>
  <fix>3d</fix>
</trkpt>
<trkpt lat="40.0713749" lon="-105.229789">
  <ele>1583.0</ele>
  <time>2026-08-28T17:49:29Z</time>
  <course>248.1</course>
  <speed>0.022360679774997897</speed>
  <fix>3d</fix>
</trkpt>
<trkpt lat="40.0713749" lon="-105.229789">
  <ele>1583.0</ele>
  <time>2026-08-28T17:49:29Z</time>
  <course>0.0</course>
  <speed>0.0</speed>
  <fix>3d</fix>
</trkpt>
<trkpt lat="40.0713749" lon="-105.229789">
  <ele>1583.0</ele>
  <time>2026-08-28T17:49:29Z</time>
  <course>248.09</course>
  <speed>0.022360679774997897</speed>
  <fix>3d</fix>
</trkpt>
<trkpt lat="40.0713749" lon="-105.229789">
  <ele>1583.0</ele>
  <time>2026-08-28T17:49:29Z</time>
  <course>0.0</course>
  <speed>0.0</speed>
  <fix>3d</fix>
</trkpt>
<trkpt lat="40.0713749" lon="-105.229789">
  <ele>1583.0</ele>
  <time>2026-08-28T17:49:29Z</time>
  <course>248.09</course>
  <speed>0.022360679774997897</speed>
  <fix>3d</fix>
</trkpt>
<trkpt lat="40.0713749" lon="-105.229789">
  <ele>1583.0</ele>
  <time>2026-08-28T17:49:29Z</time>
  <course>0.0</course>
  <speed>0.0</speed>
  <fix>3d</fix>
</trkpt>
<trkpt lat="40.0713749" lon="-105.229789">
  <ele>1583.0</ele>
  <time>2026-08-28T17:49:29Z</time>
  <course>248.08</course>
  <speed>0.022360679774997897</speed>
  <fix>3d</fix>
</trkpt>
<trkpt lat="40.0713749" lon="-105.229789">
  <ele>1583.0</ele>
  <time>2026-08-28T17:49:29Z</time>
  <course>0.0</course>
  <speed>0.0</speed>
  <fix>3d</fix>
</trkpt>
<trkpt lat="40.0713749" lon="-105.229789">
  <ele>1583.0</ele>
  <time>2026-08-28T17:49:29Z</time>
  <course>248.08</course>
  <speed>0.022360679774997897</speed>
  <fix>3d</fix>
</trkpt>
<trkpt lat="40.0713749" lon="-105.229789">
  <ele>1583.0</ele>
  <time>2026-08-28T17:49:29Z</time>
  <course>0.0</course>
  <speed>0.0</speed>
  <fix>3d</fix>
</trkpt>
<trkpt lat="40.0713749" lon="-105.229789">
  <ele>1583.0</ele>
  <time>2026-08-28T17:49:29Z</time>
  <course>248.07</course>
  <speed>0.022360679774997897</speed>
  <fix>3d</fix>
</trkpt>
<trkpt lat="40.0713749" lon="-105.229789">
  <ele>1583.0</ele>
  <time>2026-08-28T17:49:29Z</time>
  <course>0.0</course>
  <speed>0.0</speed>
  <fix>3d</fix>
</trkpt>
<trkpt lat="40.0713749" lon="-105.229789">
  <ele>1583.0</ele>
  <time>2026-08-28T17:49:29Z</time>
  <course>248.07</course>
  <speed>0.022360679774997897</speed>
  <fix>3d</fix>
</trkpt>
<trkpt lat="40.0713749" lon="-105.229789">
  <ele>1583.0</ele>
  <time>2026-08-28T17:49:29Z</time>
  <course>0.0</course>
  <speed>0.0</speed>
  <fix>3d</fix>
</trkpt>
<trkpt lat="40.0713749" lon="-105.229789">
  <ele>1583.0</ele>
  <time>2026-08-28T17:49:29Z</time>
  <course>248.06</course>
  <speed>0.022360679774997897</speed>
  <fix>3d</fix>
</trkpt>
<trkpt lat="40.0713749" lon="-105.229789">
  <ele>1583.0</ele>
  <time>2026-08-28T17:49:29Z</time>
  <course>0.0</course>
  <speed>0.0</speed>
  <fix>3d</fix>
</trkpt>
<trkpt lat="40.0713749" lon="-105.229789">
  <ele>1583.0</ele>
  <time>2026-08-28T17:49:29Z</time>
  <course>248.06</course>
  <speed>0.022360679774997897</speed>
  <fix>3d</fix>
</trkpt>
<trkpt lat="40.0713749" lon="-105.229789">
  <ele>1583.0</ele>
  <time>2026-08-28T17:49:29Z</time>
  <course>0.0</course>
  <speed>0.0</speed>
  <fix>3d</fix>
</trkpt>
<trkpt lat="40.0713749" lon="-105.229789">
  <ele>1583.0</ele>
  <time>2026-08-28T17:49:29Z</time>
  <course>248.05</course>
  <speed>0.022360679774997897</speed>
  <fix>3d</fix>
</trkpt>
<trkpt lat="40.0713749" lon="-105.229789">
  <ele>1583.0</ele>
  <time>2026-08-28T17:49:29Z</time>
  <course>0.0</course>
  <speed>0.0</speed>
  <fix>3d</fix>
</trkpt>
<trkpt lat="40.0713749" lon="-105.229789">
  <ele>1583.0</ele>
  <time>2026-08-28T17:49:29Z</time>
  <course>248.05</course>
  <speed>0.022360679774997897</speed>
  <fix>3d</fix>
</trkpt>
<trkpt lat="40.0713749" lon="-105.229789">
  <ele>1583.0</ele>
  <time>2026-08-28T17:49:29Z</time>
  <course>0.0</course>
  <speed>0.0</speed>
  <fix>3d</fix>
</trkpt>
<trkpt lat="40.0713749" lon="-105.229789">
  <ele>1583.0</ele>
  <time>2026-08-28T17:49:29Z</time>
  <course>248.05</course>
  <speed>0.022360679774997897</speed>
  <fix>3d</fix>
</trkpt>
<trkpt lat="40.0713749" lon="-105.229789">
  <ele>1583.0</ele>
  <time>2026-08-28T17:49:29Z</time>
  <course>0.0</course>
  <speed>0.0</speed>
  <fix>3d</fix>
</trkpt>
<trkpt lat="40.0713749" lon="-105.229789">
  <ele>1583.0</ele>
  <time>2026-08-28T17:49:29Z</time>
  <course>248.04</course>
  <speed>0.022360679774997897</speed>
  <fix>3d</fix>
</trkpt>
<trkpt lat="40.0713749" lon="-105.229789">
  <ele>1583.0</ele>
  <time>2026-08-28T17:49:29Z</time>
  <course>0.0</course>
  <speed>0.0</speed>
  <fix>3d</fix>
</trkpt>
<trkpt lat="40.0713749" lon="-105.229789">
  <ele>1583.0</ele>
  <time>2026-08-28T17:49:29Z</time>
  <course>248.04</course>
  <speed>0.022360679774997897</speed>
  <fix>3d</fix>
</trkpt>
<trkpt lat="40.0713749" lon="-105.229789">
  <ele>1583.0</ele>
  <time>2026-08-28T17:49:29Z</time>
  <course>0.0</course>
  <speed>0.0</speed>
  <fix>3d</fix>
</trkpt>
<trkpt lat="40.0713749" lon="-105.229789">
  <ele>1583.0</ele>
  <time>2026-08-28T17:49:29Z</time>
  <course>248.03</course>
  <speed>0.022360679774997897</speed>
  <fix>3d</fix>
</trkpt>
<trkpt lat="40.0713749" lon="-105.229789">
  <ele>1583.0</ele>
  <time>2026-08-28T17:49:29Z</time>
  <course>0.0</course>
  <speed>0.0</speed>
  <fix>3d</fix>
</trkpt>
<trkpt lat="40.0713749" lon="-105.229789">
  <ele>1583.0</ele>
  <time>2026-08-28T17:49:29Z</time>
  <course>248.03</course>
  <speed>0.022360679774997897</speed>
  <fix>3d</fix>
</trkpt>
<trkpt lat="40.0713749" lon="-105.229789">
  <ele>1583.0</ele>
  <time>2026-08-28T17:49:29Z</time>
  <course>0.0</course>
  <speed>0.0</speed>
  <fix>3d</fix>
</trkpt>
<trkpt lat="40.0713749" lon="-105.229789">
  <ele>1583.0</ele>
  <time>2026-08-28T17:49:29Z</time>
  <course>248.02</course>
  <speed>0.022360679774997897</speed>
  <fix>3d</fix>
</trkpt>
<trkpt lat="40.0713749" lon="-105.229789">
  <ele>1583.0</ele>
  <time>2026-08-28T17:49:29Z</time>
  <course>0.0</course>
  <speed>0.0</speed>
  <fix>3d</fix>
</trkpt>
<trkpt lat="40.0713749" lon="-105.229789">
  <ele>1583.0</ele>
  <time>2026-08-28T17:49:29Z</time>
  <course>248.02</course>
  <speed>0.022360679774997897</speed>
  <fix>3d</fix>
</trkpt>
<trkpt lat="40.0713749" lon="-105.229789">
  <ele>1583.0</ele>
  <time>2026-08-28T17:49:29Z</time>
  <course>0.0</course>
  <speed>0.0</speed>
  <fix>3d</fix>
</trkpt>
<trkpt lat="40.0713749" lon="-105.229789">
  <ele>1583.0</ele>
  <time>2026-08-28T17:49:29Z</time>
  <course>248.01</course>
  <speed>0.022360679774997897</speed>
  <fix>3d</fix>
</trkpt>
<trkpt lat="40.0713749" lon="-105.229789">
  <ele>1583.0</ele>
  <time>2026-08-28T17:49:29Z</time>
  <course>0.0</course>
  <speed>0.0</speed>
  <fix>3d</fix>
</trkpt>
<trkpt lat="40.0713749" lon="-105.229789">
  <ele>1583.0</ele>
  <time>2026-08-28T17:49:29Z</time>
  <course>248.01</course>
  <speed>0.022360679774997897</speed>
  <fix>3d</fix>
</trkpt>
<trkpt lat="40.0713749" lon="-105.229789">
  <ele>1583.0</ele>
  <time>2026-08-28T17:49:29Z</time>
  <course>0.0</course>
  <speed>0.0</speed>
  <fix>3d</fix>
</trkpt>
<trkpt lat="40.0713749" lon="-105.229789">
  <ele>1583.0</ele>
  <time>2026-08-28T17:49:29Z</time>
  <course>248.0</course>
  <speed>0.022360679774997897</speed>
  <fix>3d</fix>
</trkpt>
<trkpt lat="40.0713749" lon="-105.229789">
  <ele>1583.0</ele>
  <time>2026-08-28T17:49:29Z</time>
  <course>0.0</course>
  <speed>0.0</speed>
  <fix>3d</fix>
</trkpt>
<trkpt lat="40.0713749" lon="-105.229789">
  <ele>1583.0</ele>
  <time>2026-08-28T17:49:29Z</time>
  <course>248.0</course>
  <speed>0.022360679774997897</speed>
  <fix>3d</fix>
</trkpt>
<trkpt lat="40.0713749" lon="-105.229789">
  <ele>1583.0</ele>
  <time>2026-08-28T17:49:29Z</time>
  <course>0.0</course>
  <speed>0.0</speed>
  <fix>3d</fix>
</trkpt>
<trkpt lat="40.0713749" lon="-105.229789">
  <ele>1583.0</ele>
  <time>2026-08-28T17:49:29Z</time>
  <course>247.99</course>
  <speed>0.022360679774997897</speed>
  <fix>3d</fix>
</trkpt>
<trkpt lat="40.0713749" lon="-105.229789">
  <ele>1583.0</ele>
  <time>2026-08-28T17:49:29Z</time>
  <course>0.0</course>
  <speed>0.0</speed>
  <fix>3d</fix>
</trkpt>
<trkpt lat="40.0713749" lon="-105.229789">
  <ele>1583.0</ele>
  <time>2026-08-28T17:49:29Z</time>
  <course>247.99</course>
  <speed>0.022360679774997897</speed>
  <fix>3d</fix>
</trkpt>
<trkpt lat="40.0713749" lon="-105.229789">
  <ele>1583.0</ele>
  <time>2026-08-28T17:49:29Z</time>
  <course>0.0</course>
  <speed>0.0</speed>
  <fix>3d</fix>
</trkpt>
<trkpt lat="40.0713749" lon="-105.229789">
  <ele>1583.0</ele>
  <time>2026-08-28T17:49:29Z</time>
  <course>247.99</course>
  <speed>0.022360679774997897</speed>
  <fix>3d</fix>
</trkpt>
<trkpt lat="40.0713749" lon="-105.229789">
  <ele>1583.0</ele>
  <time>2026-08-28T17:49:29Z</time>
  <course>0.0</course>
  <speed>0.0</speed>
  <fix>3d</fix>
</trkpt>
<trkpt lat="40.0713749" lon="-105.229789">
  <ele>1583.0</ele>
  <time>2026-08-28T17:49:29Z</time>
  <course>247.98</course>
  <speed>0.022360679774997897</speed>
  <fix>3d</fix>
</trkpt>
<trkpt lat="40.0713749" lon="-105.229789">
  <ele>1583.0</ele>
  <time>2026-08-28T17:49:29Z</time>
  <course>0.0</course>
  <speed>0.0</speed>
  <fix>3d</fix>
</trkpt>
<trkpt lat="40.0713749" lon="-105.229789">
  <ele>1583.0</ele>
  <time>2026-08-28T17:49:29Z</time>
  <course>247.98</course>
  <speed>0.022360679774997897</speed>
  <fix>3d</fix>
</trkpt>
<trkpt lat="40.0713749" lon="-105.229789">
  <ele>1583.0</ele>
  <time>2026-08-28T17:49:29Z</time>
  <course>0.0</course>
  <speed>0.0</speed>
  <fix>3d</fix>
</trkpt>
<trkpt lat="40.0713749" lon="-105.229789">
  <ele>1583.0</ele>
  <time>2026-08-28T17:49:29Z</time>
  <course>247.97</course>
  <speed>0.022360679774997897</speed>
  <fix>3d</fix>
</trkpt>
<trkpt lat="40.0713749" lon="-105.229789">
  <ele>1583.0</ele>
  <time>2026-08-28T17:49:29Z</time>
  <course>0.0</course>
  <speed>0.0</speed>
  <fix>3d</fix>
</trkpt>
<trkpt lat="40.0713749" lon="-105.229789">
  <ele>1583.0</ele>
  <time>2026-08-28T17:49:29Z</time>
  <course>247.97</course>
  <speed>0.022360679774997897</speed>
  <fix>3d</fix>
</trkpt>
<trkpt lat="40.0713749" lon="-105.229789">
  <ele>1583.0</ele>
  <time>2026-08-28T17:49:29Z</time>
  <course>0.0</course>
  <speed>0.0</speed>
  <fix>3d</fix>
</trkpt>
<trkpt lat="40.0713749" lon="-105.229789">
  <ele>1583.0</ele>
  <time>2026-08-28T17:49:29Z</time>
  <course>247.96</course>
  <speed>0.022360679774997897</speed>
  <fix>3d</fix>
</trkpt>
<trkpt lat="40.0713749" lon="-105.229789">
  <ele>1583.0</ele>
  <time>2026-08-28T17:49:29Z</time>
  <course>0.0</course>
  <speed>0.0</speed>
  <fix>3d</fix>
</trkpt>
<trkpt lat="40.0713749" lon="-105.229789">
  <ele>1583.0</ele>
  <time>2026-08-28T17:49:29Z</time>
  <course>247.96</course>
  <speed>0.022360679774997897</speed>
  <fix>3d</fix>
</trkpt>
<trkpt lat="40.0713749" lon="-105.229789">
  <ele>1583.0</ele>
  <time>2026-08-28T17:49:29Z</time>
  <course>0.0</course>
  <speed>0.0</speed>
  <fix>3d</fix>
</trkpt>
<trkpt lat="40.0713749" lon="-105.229789">
  <ele>1583.0</ele>
  <time>2026-08-28T17:49:29Z</time>
  <course>247.95</course>
  <speed>0.022360679774997897</speed>
  <fix>3d</fix>
</trkpt>
<trkpt lat="40.0713749" lon="-105.229789">
  <ele>1583.0</ele>
  <time>2026-08-28T17:49:29Z</time>
  <course>0.0</course>
  <speed>0.0</speed>
  <fix>3d</fix>
</trkpt>
<trkpt lat="40.0713749" lon="-105.229789">
  <ele>1583.0</ele>
  <time>2026-08-28T17:49:29Z</time>
  <course>247.95</course>
  <speed>0.022360679774997897</speed>
  <fix>3d</fix>
</trkpt>
<trkpt lat="40.0713749" lon="-105.229789">
  <ele>1583.0</ele>
  <time>2026-08-28T17:49:29Z</time>
  <course>0.0</course>
  <speed>0.0</speed>
  <fix>3d</fix>
</trkpt>
<trkpt lat="40.0713749" lon="-105.229789">
  <ele>1583.0</ele>
  <time>2026-08-28T17:49:29Z</time>
  <course>247.95</course>
  <speed>0.022360679774997897</speed>
  <fix>3d</fix>
</trkpt>
<trkpt lat="40.0713749" lon="-105.229789">
  <ele>1583.0</ele>
  <time>2026-08-28T17:49:29Z</time>
  <course>0.0</course>
  <speed>0.0</speed>
  <fix>3d</fix>
</trkpt>
<trkpt lat="40.0713749" lon="-105.229789">
  <ele>1583.0</ele>
  <time>2026-08-28T17:49:29Z</time>
  <course>247.94</course>
  <speed>0.022360679774997897</speed>
  <fix>3d</fix>
</trkpt>
<trkpt lat="40.0713749" lon="-105.229789">
  <ele>1583.0</ele>
  <time>2026-08-28T17:49:29Z</time>
  <course>0.0</course>
  <speed>0.0</speed>
  <fix>3d</fix>
</trkpt>
<trkpt lat="40.0713749" lon="-105.229789">
  <ele>1583.0</ele>
  <time>2026-08-28T17:49:29Z</time>
  <course>247.94</course>
  <speed>0.022360679774997897</speed>
  <fix>3d</fix>
</trkpt>
<trkpt lat="40.0713749" lon="-105.229789">
  <ele>1583.0</ele>
  <time>2026-08-28T17:49:29Z</time>
  <course>0.0</course>
  <speed>0.0</speed>
  <fix>3d</fix>
</trkpt>
<trkpt lat="40.0713749" lon="-105.229789">
  <ele>1583.0</ele>
  <time>2026-08-28T17:49:29Z</time>
  <course>247.93</course>
  <speed>0.022360679774997897</speed>
  <fix>3d</fix>
</trkpt>
<trkpt lat="40.0713749" lon="-105.229789">
  <ele>1583.0</ele>
  <time>2026-08-28T17:49:29Z</time>
  <course>0.0</course>
  <speed>0.0</speed>
  <fix>3d</fix>
</trkpt>
<trkpt lat="40.0713749" lon="-105.229789">
  <ele>1583.0</ele>
  <time>2026-08-28T17:49:29Z</time>
  <course>247.93</course>
  <speed>0.022360679774997897</speed>
  <fix>3d</fix>
</trkpt>
<trkpt lat="40.0713749" lon="-105.229789">
  <ele>1583.0</ele>
  <time>2026-08-28T17:49:29Z</time>
  <course>0.0</course>
  <speed>0.0</speed>
  <fix>3d</fix>
</trkpt>
<trkpt lat="40.0713749" lon="-105.229789">
  <ele>1583.0</ele>
  <time>2026-08-28T17:49:29Z</time>
  <course>247.92</course>
  <speed>0.022360679774997897</speed>
  <fix>3d</fix>
</trkpt>
<trkpt lat="40.0713749" lon="-105.229789">
  <ele>1583.0</ele>
  <time>2026-08-28T17:49:29Z</time>
  <course>0.0</course>
  <speed>0.0</speed>
  <fix>3d</fix>
</trkpt>
<trkpt lat="40.0713749" lon="-105.229789">
  <ele>1583.0</ele>
  <time>2026-08-28T17:49:29Z</time>
  <course>247.92</course>
  <speed>0.022360679774997897</speed>
  <fix>3d</fix>
</trkpt>
<trkpt lat="40.0713749" lon="-105.229789">
  <ele>1583.0</ele>
  <time>2026-08-28T17:49:29Z</time>
  <course>0.0</course>
  <speed>0.0</speed>
  <fix>3d</fix>
</trkpt>
<trkpt lat="40.0713749" lon="-105.229789">
  <ele>1583.0</ele>
  <time>2026-08-28T17:49:29Z</time>
  <course>247.92</course>
  <speed>0.022360679774997897</speed>
  <fix>3d</fix>
</trkpt>
<trkpt lat="40.0713749" lon="-105.229789">
  <ele>1583.0</ele>
  <time>2026-08-28T17:49:29Z</time>
  <course>0.0</course>
  <speed>0.0</speed>
  <fix>3d</fix>
</trkpt>
<trkpt lat="40.0713749" lon="-105.229789">
  <ele>1583.0</ele>
  <time>2026-08-28T17:49:29Z</time>
  <course>247.91</course>
  <speed>0.022360679774997897</speed>
  <fix>3d</fix>
</trkpt>
<trkpt lat="40.0713749" lon="-105.229789">
  <ele>1583.0</ele>
  <time>2026-08-28T17:49:29Z</time>
  <course>0.0</course>
  <speed>0.0</speed>
  <fix>3d</fix>
</trkpt>
<trkpt lat="40.0713749" lon="-105.229789">
  <ele>1583.0</ele>
  <time>2026-08-28T17:49:29Z</time>
  <course>247.91</course>
  <speed>0.022360679774997897</speed>
  <fix>3d</fix>
</trkpt>
<trkpt lat="40.0713749" lon="-105.229789">
  <ele>1583.0</ele>
  <time>2026-08-28T17:49:29Z</time>
  <course>0.0</course>
  <speed>0.0</speed>
  <fix>3d</fix>
</trkpt>
<trkpt lat="40.0713749" lon="-105.229789">
  <ele>1583.0</ele>
  <time>2026-08-28T17:49:29Z</time>
  <course>247.9</course>
  <speed>0.022360679774997897</speed>
  <fix>3d</fix>
</trkpt>
<trkpt lat="40.0713749" lon="-105.229789">
  <ele>1583.0</ele>
  <time>2026-08-28T17:49:29Z</time>
  <course>0.0</course>
  <speed>0.0</speed>
  <fix>3d</fix>
</trkpt>
<trkpt lat="40.0713749" lon="-105.229789">
  <ele>1583.0</ele>
  <time>2026-08-28T17:49:29Z</time>
  <course>247.9</course>
  <speed>0.022360679774997897</speed>
  <fix>3d</fix>
</trkpt>
<trkpt lat="40.0713749" lon="-105.229789">
  <ele>1583.0</ele>
  <time>2026-08-28T17:49:29Z</time>
  <course>0.0</course>
  <speed>0.0</speed>
  <fix>3d</fix>
</trkpt>
<trkpt lat="40.0713749" lon="-105.229789">
  <ele>1583.0</ele>
  <time>2026-08-28T17:49:29Z</time>
  <course>247.89</course>
  <speed>0.022360679774997897</speed>
  <fix>3d</fix>
</trkpt>
<trkpt lat="40.0713749" lon="-105.229789">
  <ele>1583.0</ele>
  <time>2026-08-28T17:49:29Z</time>
  <course>0.0</course>
  <speed>0.0</speed>
  <fix>3d</fix>
</trkpt>
<trkpt lat="40.0713749" lon="-105.229789">
  <ele>1583.0</ele>
  <time>2026-08-28T17:49:29Z</time>
  <course>247.89</course>
  <speed>0.022360679774997897</speed>
  <fix>3d</fix>
</trkpt>
<trkpt lat="40.0713749" lon="-105.229789">
  <ele>1583.0</ele>
  <time>2026-08-28T17:49:29Z</time>
  <course>0.0</course>
  <speed>0.0</speed>
  <fix>3d</fix>
</trkpt>
<trkpt lat="40.0713749" lon="-105.229789">
  <ele>1583.0</ele>
  <time>2026-08-28T17:49:29Z</time>
  <course>247.89</course>
  <speed>0.022360679774997897</speed>
  <fix>3d</fix>
</trkpt>
<trkpt lat="40.0713749" lon="-105.229789">
  <ele>1583.0</ele>
  <time>2026-08-28T17:49:29Z</time>
  <course>0.0</course>
  <speed>0.0</speed>
  <fix>3d</fix>
</trkpt>
<trkpt lat="40.0713749" lon="-105.229789">
  <ele>1583.0</ele>
  <time>2026-08-28T17:49:29Z</time>
  <course>247.88</course>
  <speed>0.0316227766016838</speed>
  <fix>3d</fix>
</trkpt>
<trkpt lat="40.0713749" lon="-105.229789">
  <ele>1583.0</ele>
  <time>2026-08-28T17:49:29Z</time>
  <course>0.0</course>
  <speed>0.0</speed>
  <fix>3d</fix>
</trkpt>
<trkpt lat="40.0713749" lon="-105.229789">
  <ele>1583.0</ele>
  <time>2026-08-28T17:49:29Z</time>
  <course>247.88</course>
  <speed>0.0316227766016838</speed>
  <fix>3d</fix>
</trkpt>
<trkpt lat="40.0713749" lon="-105.229789">
  <ele>1583.0</ele>
  <time>2026-08-28T17:49:29Z</time>
  <course>0.0</course>
  <speed>0.0</speed>
  <fix>3d</fix>
</trkpt>
<trkpt lat="40.0713749" lon="-105.229789">
  <ele>1583.0</ele>
  <time>2026-08-28T17:49:29Z</time>
  <course>247.87</course>
  <speed>0.0316227766016838</speed>
  <fix>3d</fix>
</trkpt>
<trkpt lat="40.0713749" lon="-105.229789">
  <ele>1583.0</ele>
  <time>2026-08-28T17:49:29Z</time>
  <course>0.0</course>
  <speed>0.0</speed>
  <fix>3d</fix>
</trkpt>
<trkpt lat="40.0713749" lon="-105.229789">
  <ele>1583.0</ele>
  <time>2026-08-28T17:49:29Z</time>
  <course>247.87</course>
  <speed>0.0316227766016838</speed>
  <fix>3d</fix>
</trkpt>
<trkpt lat="40.0713749" lon="-105.229789">
  <ele>1583.0</ele>
  <time>2026-08-28T17:49:29Z</time>
  <course>0.0</course>
  <speed>0.0</speed>
  <fix>3d</fix>
</trkpt>
<trkpt lat="40.0713749" lon="-105.229789">
  <ele>1583.0</ele>
  <time>2026-08-28T17:49:29Z</time>
  <course>247.87</course>
  <speed>0.0316227766016838</speed>
  <fix>3d</fix>
</trkpt>
<trkpt lat="40.0713749" lon="-105.229789">
  <ele>1583.0</ele>
  <time>2026-08-28T17:49:29Z</time>
  <course>0.0</course>
  <speed>0.0</speed>
  <fix>3d</fix>
</trkpt>
<trkpt lat="40.0713749" lon="-105.229789">
  <ele>1583.0</ele>
  <time>2026-08-28T17:49:29Z</time>
  <course>247.86</course>
  <speed>0.0316227766016838</speed>
  <fix>3d</fix>
</trkpt>
<trkpt lat="40.0713749" lon="-105.229789">
  <ele>1583.0</ele>
  <time>2026-08-28T17:49:29Z</time>
  <course>0.0</course>
  <speed>0.0</speed>
  <fix>3d</fix>
</trkpt>
<trkpt lat="40.0713749" lon="-105.229789">
  <ele>1583.0</ele>
  <time>2026-08-28T17:49:29Z</time>
  <course>247.86</course>
  <speed>0.0316227766016838</speed>
  <fix>3d</fix>
</trkpt>
<trkpt lat="40.0713749" lon="-105.229789">
  <ele>1583.0</ele>
  <time>2026-08-28T17:49:29Z</time>
  <course>0.0</course>
  <speed>0.0</speed>
  <fix>3d</fix>
</trkpt>
<trkpt lat="40.0713749" lon="-105.229789">
  <ele>1583.0</ele>
  <time>2026-08-28T17:49:29Z</time>
  <course>247.85</course>
  <speed>0.0316227766016838</speed>
  <fix>3d</fix>
</trkpt>
<trkpt lat="40.0713749" lon="-105.229789">
  <ele>1583.0</ele>
  <time>2026-08-28T17:49:29Z</time>
  <course>0.0</course>
  <speed>0.0</speed>
  <fix>3d</fix>
</trkpt>
<trkpt lat="40.0713749" lon="-105.229789">
  <ele>1583.0</ele>
  <time>2026-08-28T17:49:29Z</time>
  <course>247.85</course>
  <speed>0.0316227766016838</speed>
  <fix>3d</fix>
</trkpt>
<trkpt lat="40.0713749" lon="-105.229789">
  <ele>1583.0</ele>
  <time>2026-08-28T17:49:29Z</time>
  <course>0.0</course>
  <speed>0.0</speed>
  <fix>3d</fix>
</trkpt>
<trkpt lat="40.0713749" lon="-105.229789">
  <ele>1583.0</ele>
  <time>2026-08-28T17:49:29Z</time>
  <course>247.85</course>
  <speed>0.0316227766016838</speed>
  <fix>3d</fix>
</trkpt>
<trkpt lat="40.0713749" lon="-105.229789">
  <ele>1583.0</ele>
  <time>2026-08-28T17:49:29Z</time>
  <course>0.0</course>
  <speed>0.0</speed>
  <fix>3d</fix>
</trkpt>
<trkpt lat="40.0713749" lon="-105.229789">
  <ele>1583.0</ele>
  <time>2026-08-28T17:49:29Z</time>
  <course>247.84</course>
  <speed>0.0316227766016838</speed>
  <fix>3d</fix>
</trkpt>
<trkpt lat="40.0713749" lon="-105.229789">
  <ele>1583.0</ele>
  <time>2026-08-28T17:49:29Z</time>
  <course>0.0</course>
  <speed>0.0</speed>
  <fix>3d</fix>
</trkpt>
<trkpt lat="40.0713749" lon="-105.229789">
  <ele>1583.0</ele>
  <time>2026-08-28T17:49:29Z</time>
  <course>247.84</course>
  <speed>0.0316227766016838</speed>
  <fix>3d</fix>
</trkpt>
<trkpt lat="40.0713749" lon="-105.229789">
  <ele>1583.0</ele>
  <time>2026-08-28T17:49:29Z</time>
  <course>0.0</course>
  <speed>0.0</speed>
  <fix>3d</fix>
</trkpt>
<trkpt lat="40.0713749" lon="-105.229789">
  <ele>1583.0</ele>
  <time>2026-08-28T17:49:29Z</time>
  <course>247.83</course>
  <speed>0.0316227766016838</speed>
  <fix>3d</fix>
</trkpt>
<trkpt lat="40.0713749" lon="-105.229789">
  <ele>1583.0</ele>
  <time>2026-08-28T17:49:29Z</time>
  <course>0.0</course>
  <speed>0.0</speed>
  <fix>3d</fix>
</trkpt>
<trkpt lat="40.0713749" lon="-105.229789">
  <ele>1583.0</ele>
  <time>2026-08-28T17:49:29Z</time>
  <course>247.83</course>
  <speed>0.0316227766016838</speed>
  <fix>3d</fix>
</trkpt>
<trkpt lat="40.0713749" lon="-105.229789">
  <ele>1583.0</ele>
  <time>2026-08-28T17:49:29Z</time>
  <course>0.0</course>
  <speed>0.0</speed>
  <fix>3d</fix>
</trkpt>
<trkpt lat="40.0713749" lon="-105.229789">
  <ele>1583.0</ele>
  <time>2026-08-28T17:49:29Z</time>
  <course>247.83</course>
  <speed>0.0316227766016838</speed>
  <fix>3d</fix>
</trkpt>
<trkpt lat="40.0713749" lon="-105.229789">
  <ele>1583.0</ele>
  <time>2026-08-28T17:49:29Z</time>
  <course>0.0</course>
  <speed>0.0</speed>
  <fix>3d</fix>
</trkpt>
<trkpt lat="40.0713749" lon="-105.229789">
  <ele>1583.0</ele>
  <time>2026-08-28T17:49:29Z</time>
  <course>247.82</course>
  <speed>0.0316227766016838</speed>
  <fix>3d</fix>
</trkpt>
<trkpt lat="40.0713749" lon="-105.229789">
  <ele>1583.0</ele>
  <time>2026-08-28T17:49:29Z</time>
  <course>0.0</course>
  <speed>0.0</speed>
  <fix>3d</fix>
</trkpt>
<trkpt lat="40.0713749" lon="-105.229789">
  <ele>1583.0</ele>
  <time>2026-08-28T17:49:29Z</time>
  <course>247.82</course>
  <speed>0.0316227766016838</speed>
  <fix>3d</fix>
</trkpt>
<trkpt lat="40.0713749" lon="-105.229789">
  <ele>1583.0</ele>
  <time>2026-08-28T17:49:29Z</time>
  <course>0.0</course>
  <speed>0.0</speed>
  <fix>3d</fix>
</trkpt>
<trkpt lat="40.0713749" lon="-105.229789">
  <ele>1583.0</ele>
  <time>2026-08-28T17:49:29Z</time>
  <course>247.82</course>
  <speed>0.0316227766016838</speed>
  <fix>3d</fix>
</trkpt>
<trkpt lat="40.0713749" lon="-105.229789">
  <ele>1583.0</ele>
  <time>2026-08-28T17:49:29Z</time>
  <course>0.0</course>
  <speed>0.0</speed>
  <fix>3d</fix>
</trkpt>
<trkpt lat="40.0713749" lon="-105.229789">
  <ele>1583.0</ele>
  <time>2026-08-28T17:49:29Z</time>
  <course>247.81</course>
  <speed>0.0316227766016838</speed>
  <fix>3d</fix>
</trkpt>
<trkpt lat="40.0713749" lon="-105.229789">
  <ele>1583.0</ele>
  <time>2026-08-28T17:49:29Z</time>
  <course>0.0</course>
  <speed>0.0</speed>
  <fix>3d</fix>
</trkpt>
<trkpt lat="40.0713749" lon="-105.229789">
  <ele>1583.0</ele>
  <time>2026-08-28T17:49:29Z</time>
  <course>247.81</course>
  <speed>0.0316227766016838</speed>
  <fix>3d</fix>
</trkpt>
<trkpt lat="40.0713749" lon="-105.229789">
  <ele>1583.0</ele>
  <time>2026-08-28T17:49:29Z</time>
  <course>0.0</course>
  <speed>0.0</speed>
  <fix>3d</fix>
</trkpt>
<trkpt lat="40.0713749" lon="-105.229789">
  <ele>1583.0</ele>
  <time>2026-08-28T17:49:29Z</time>
  <course>247.8</course>
  <speed>0.0316227766016838</speed>
  <fix>3d</fix>
</trkpt>
<trkpt lat="40.0713749" lon="-105.229789">
  <ele>1583.0</ele>
  <time>2026-08-28T17:49:29Z</time>
  <course>0.0</course>
  <speed>0.0</speed>
  <fix>3d</fix>
</trkpt>
<trkpt lat="40.0713749" lon="-105.229789">
  <ele>1583.0</ele>
  <time>2026-08-28T17:49:29Z</time>
  <course>247.8</course>
  <speed>0.0316227766016838</speed>
  <fix>3d</fix>
</trkpt>
<trkpt lat="40.0713749" lon="-105.229789">
  <ele>1583.0</ele>
  <time>2026-08-28T17:49:29Z</time>
  <course>0.0</course>
  <speed>0.0</speed>
  <fix>3d</fix>
</trkpt>
<trkpt lat="40.0713749" lon="-105.229789">
  <ele>1583.0</ele>
  <time>2026-08-28T17:49:29Z</time>
  <course>247.8</course>
  <speed>0.0316227766016838</speed>
  <fix>3d</fix>
</trkpt>
<trkpt lat="40.0713749" lon="-105.229789">
  <ele>1583.0</ele>
  <time>2026-08-28T17:49:29Z</time>
  <course>0.0</course>
  <speed>0.0</speed>
  <fix>3d</fix>
</trkpt>
<trkpt lat="40.0713749" lon="-105.229789">
  <ele>1583.0</ele>
  <time>2026-08-28T17:49:29Z</time>
  <course>247.79</course>
  <speed>0.0316227766016838</speed>
  <fix>3d</fix>
</trkpt>
<trkpt lat="40.0713749" lon="-105.229789">
  <ele>1583.0</ele>
  <time>2026-08-28T17:49:29Z</time>
  <course>0.0</course>
  <speed>0.0</speed>
  <fix>3d</fix>
</trkpt>
<trkpt lat="40.0713749" lon="-105.229789">
  <ele>1583.0</ele>
  <time>2026-08-28T17:49:29Z</time>
  <course>247.79</course>
  <speed>0.0316227766016838</speed>
  <fix>3d</fix>
</trkpt>
<trkpt lat="40.0713749" lon="-105.229789">
  <ele>1583.0</ele>
  <time>2026-08-28T17:49:29Z</time>
  <course>0.0</course>
  <speed>0.0</speed>
  <fix>3d</fix>
</trkpt>
<trkpt lat="40.0713749" lon="-105.229789">
  <ele>1583.0</ele>
  <time>2026-08-28T17:49:29Z</time>
  <course>247.79</course>
  <speed>0.0316227766016838</speed>
  <fix>3d</fix>
</trkpt>
<trkpt lat="40.0713749" lon="-105.229789">
  <ele>1583.0</ele>
  <time>2026-08-28T17:49:29Z</time>
  <course>0.0</course>
  <speed>0.0</speed>
  <fix>3d</fix>
</trkpt>
<trkpt lat="40.0713749" lon="-105.229789">
  <ele>1583.0</ele>
  <time>2026-08-28T17:49:29Z</time>
  <course>247.78</course>
  <speed>0.0316227766016838</speed>
  <fix>3d</fix>
</trkpt>
<trkpt lat="40.0713749" lon="-105.229789">
  <ele>1583.0</ele>
  <time>2026-08-28T17:49:29Z</time>
  <course>0.0</course>
  <speed>0.0</speed>
  <fix>3d</fix>
</trkpt>
<trkpt lat="40.0713749" lon="-105.229789">
  <ele>1583.0</ele>
  <time>2026-08-28T17:49:29Z</time>
  <course>247.78</course>
  <speed>0.0316227766016838</speed>
  <fix>3d</fix>
</trkpt>
<trkpt lat="40.0713749" lon="-105.229789">
  <ele>1583.0</ele>
  <time>2026-08-28T17:49:29Z</time>
  <course>0.0</course>
  <speed>0.0</speed>
  <fix>3d</fix>
</trkpt>
<trkpt lat="40.0713749" lon="-105.229789">
  <ele>1583.0</ele>
  <time>2026-08-28T17:49:29Z</time>
  <course>247.78</course>
  <speed>0.0316227766016838</speed>
  <fix>3d</fix>
</trkpt>
<trkpt lat="40.0713749" lon="-105.229789">
  <ele>1583.0</ele>
  <time>2026-08-28T17:49:29Z</time>
  <course>0.0</course>
  <speed>0.0</speed>
  <fix>3d</fix>
</trkpt>
<trkpt lat="40.0713749" lon="-105.229789">
  <ele>1583.0</ele>
  <time>2026-08-28T17:49:29Z</time>
  <course>247.77</course>
  <speed>0.0316227766016838</speed>
  <fix>3d</fix>
</trkpt>
<trkpt lat="40.0713749" lon="-105.229789">
  <ele>1583.0</ele>
  <time>2026-08-28T17:49:29Z</time>
  <course>0.0</course>
  <speed>0.0</speed>
  <fix>3d</fix>
</trkpt>
<trkpt lat="40.0713749" lon="-105.229789">
  <ele>1583.0</ele>
  <time>2026-08-28T17:49:29Z</time>
  <course>247.77</course>
  <speed>0.0316227766016838</speed>
  <fix>3d</fix>
</trkpt>
<trkpt lat="40.0713749" lon="-105.229789">
  <ele>1583.0</ele>
  <time>2026-08-28T17:49:29Z</time>
  <course>0.0</course>
  <speed>0.0</speed>
  <fix>3d</fix>
</trkpt>
<trkpt lat="40.0713749" lon="-105.229789">
  <ele>1583.0</ele>
  <time>2026-08-28T17:49:29Z</time>
  <course>247.76</course>
  <speed>0.0316227766016838</speed>
  <fix>3d</fix>
</trkpt>
<trkpt lat="40.0713749" lon="-105.229789">
  <ele>1583.0</ele>
  <time>2026-08-28T17:49:29Z</time>
  <course>0.0</course>
  <speed>0.0</speed>
  <fix>3d</fix>
</trkpt>
<trkpt lat="40.0713749" lon="-105.229789">
  <ele>1583.0</ele>
  <time>2026-08-28T17:49:29Z</time>
  <course>247.76</course>
  <speed>0.0316227766016838</speed>
  <fix>3d</fix>
</trkpt>
<trkpt lat="40.0713749" lon="-105.229789">
  <ele>1583.0</ele>
  <time>2026-08-28T17:49:29Z</time>
  <course>0.0</course>
  <speed>0.0</speed>
  <fix>3d</fix>
</trkpt>
<trkpt lat="40.0713749" lon="-105.229789">
  <ele>1583.0</ele>
  <time>2026-08-28T17:49:29Z</time>
  <course>247.76</course>
  <speed>0.0316227766016838</speed>
  <fix>3d</fix>
</trkpt>
<trkpt lat="40.0713749" lon="-105.229789">
  <ele>1583.0</ele>
  <time>2026-08-28T17:49:29Z</time>
  <course>0.0</course>
  <speed>0.0</speed>
  <fix>3d</fix>
</trkpt>
<trkpt lat="40.0713749" lon="-105.229789">
  <ele>1583.0</ele>
  <time>2026-08-28T17:49:29Z</time>
  <course>247.75</course>
  <speed>0.0316227766016838</speed>
  <fix>3d</fix>
</trkpt>
<trkpt lat="40.0713749" lon="-105.229789">
  <ele>1583.0</ele>
  <time>2026-08-28T17:49:29Z</time>
  <course>0.0</course>
  <speed>0.0</speed>
  <fix>3d</fix>
</trkpt>
<trkpt lat="40.0713749" lon="-105.229789">
  <ele>1583.0</ele>
  <time>2026-08-28T17:49:29Z</time>
  <course>247.75</course>
  <speed>0.0316227766016838</speed>
  <fix>3d</fix>
</trkpt>
<trkpt lat="40.0713749" lon="-105.229789">
  <ele>1583.0</ele>
  <time>2026-08-28T17:49:29Z</time>
  <course>0.0</course>
  <speed>0.0</speed>
  <fix>3d</fix>
</trkpt>
<trkpt lat="40.0713749" lon="-105.229789">
  <ele>1583.0</ele>
  <time>2026-08-28T17:49:29Z</time>
  <course>247.75</course>
  <speed>0.0316227766016838</speed>
  <fix>3d</fix>
</trkpt>
<trkpt lat="40.0713749" lon="-105.229789">
  <ele>1583.0</ele>
  <time>2026-08-28T17:49:29Z</time>
  <course>0.0</course>
  <speed>0.0</speed>
  <fix>3d</fix>
</trkpt>
<trkpt lat="40.0713749" lon="-105.229789">
  <ele>1583.0</ele>
  <time>2026-08-28T17:49:29Z</time>
  <course>247.74</course>
  <speed>0.0316227766016838</speed>
  <fix>3d</fix>
</trkpt>
<trkpt lat="40.0713749" lon="-105.229789">
  <ele>1583.0</ele>
  <time>2026-08-28T17:49:29Z</time>
  <course>0.0</course>
  <speed>0.0</speed>
  <fix>3d</fix>
</trkpt>
<trkpt lat="40.0713749" lon="-105.229789">
  <ele>1583.0</ele>
  <time>2026-08-28T17:49:29Z</time>
  <course>247.74</course>
  <speed>0.0316227766016838</speed>
  <fix>3d</fix>
</trkpt>
<trkpt lat="40.0713749" lon="-105.229789">
  <ele>1583.0</ele>
  <time>2026-08-28T17:49:29Z</time>
  <course>0.0</course>
  <speed>0.0</speed>
  <fix>3d</fix>
</trkpt>
<trkpt lat="40.0713749" lon="-105.229789">
  <ele>1583.0</ele>
  <time>2026-08-28T17:49:29Z</time>
  <course>247.74</course>
  <speed>0.0316227766016838</speed>
  <fix>3d</fix>
</trkpt>
<trkpt lat="40.0713749" lon="-105.229789">
  <ele>1583.0</ele>
  <time>2026-08-28T17:49:29Z</time>
  <course>0.0</course>
  <speed>0.0</speed>
  <fix>3d</fix>
</trkpt>
<trkpt lat="40.0713749" lon="-105.229789">
  <ele>1583.0</ele>
  <time>2026-08-28T17:49:29Z</time>
  <course>247.73</course>
  <speed>0.0316227766016838</speed>
  <fix>3d</fix>
</trkpt>
<trkpt lat="40.0713749" lon="-105.229789">
  <ele>1583.0</ele>
  <time>2026-08-28T17:49:29Z</time>
  <course>0.0</course>
  <speed>0.0</speed>
  <fix>3d</fix>
</trkpt>
<trkpt lat="40.0713749" lon="-105.229789">
  <ele>1583.0</ele>
  <time>2026-08-28T17:49:29Z</time>
  <course>247.73</course>
  <speed>0.0316227766016838</speed>
  <fix>3d</fix>
</trkpt>
<trkpt lat="40.0713749" lon="-105.229789">
  <ele>1583.0</ele>
  <time>2026-08-28T17:49:29Z</time>
  <course>0.0</course>
  <speed>0.0</speed>
  <fix>3d</fix>
</trkpt>
<trkpt lat="40.0713749" lon="-105.229789">
  <ele>1583.0</ele>
  <time>2026-08-28T17:49:29Z</time>
  <course>247.73</course>
  <speed>0.0316227766016838</speed>
  <fix>3d</fix>
</trkpt>
<trkpt lat="40.0713749" lon="-105.229789">
  <ele>1583.0</ele>
  <time>2026-08-28T17:49:29Z</time>
  <course>0.0</course>
  <speed>0.0</speed>
  <fix>3d</fix>
</trkpt>
<trkpt lat="40.0713749" lon="-105.229789">
  <ele>1583.0</ele>
  <time>2026-08-28T17:49:29Z</time>
  <course>247.72</course>
  <speed>0.0316227766016838</speed>
  <fix>3d</fix>
</trkpt>
<trkpt lat="40.0713749" lon="-105.229789">
  <ele>1583.0</ele>
  <time>2026-08-28T17:49:29Z</time>
  <course>0.0</course>
  <speed>0.0</speed>
  <fix>3d</fix>
</trkpt>
<trkpt lat="40.0713749" lon="-105.229789">
  <ele>1583.0</ele>
  <time>2026-08-28T17:49:29Z</time>
  <course>247.72</course>
  <speed>0.0316227766016838</speed>
  <fix>3d</fix>
</trkpt>
<trkpt lat="40.0713749" lon="-105.229789">
  <ele>1583.0</ele>
  <time>2026-08-28T17:49:29Z</time>
  <course>0.0</course>
  <speed>0.0</speed>
  <fix>3d</fix>
</trkpt>
<trkpt lat="40.0713749" lon="-105.229789">
  <ele>1583.0</ele>
  <time>2026-08-28T17:49:29Z</time>
  <course>247.72</course>
  <speed>0.0316227766016838</speed>
  <fix>3d</fix>
</trkpt>
<trkpt lat="40.0713749" lon="-105.229789">
  <ele>1583.0</ele>
  <time>2026-08-28T17:49:29Z</time>
  <course>0.0</course>
  <speed>0.0</speed>
  <fix>3d</fix>
</trkpt>
<trkpt lat="40.0713749" lon="-105.229789">
  <ele>1583.0</ele>
  <time>2026-08-28T17:49:29Z</time>
  <course>247.71</course>
  <speed>0.0316227766016838</speed>
  <fix>3d</fix>
</trkpt>
<trkpt lat="40.0713749" lon="-105.229789">
  <ele>1583.0</ele>
  <time>2026-08-28T17:49:29Z</time>
  <course>0.0</course>
  <speed>0.0</speed>
  <fix>3d</fix>
</trkpt>
<trkpt lat="40.0713749" lon="-105.229789">
  <ele>1583.0</ele>
  <time>2026-08-28T17:49:29Z</time>
  <course>247.71</course>
  <speed>0.0316227766016838</speed>
  <fix>3d</fix>
</trkpt>
<trkpt lat="40.0713749" lon="-105.229789">
  <ele>1583.0</ele>
  <time>2026-08-28T17:49:29Z</time>
  <course>0.0</course>
  <speed>0.0</speed>
  <fix>3d</fix>
</trkpt>
<trkpt lat="40.0713749" lon="-105.229789">
  <ele>1583.0</ele>
  <time>2026-08-28T17:49:29Z</time>
  <course>247.71</course>
  <speed>0.0316227766016838</speed>
  <fix>3d</fix>
</trkpt>
<trkpt lat="40.0713749" lon="-105.229789">
  <ele>1583.0</ele>
  <time>2026-08-28T17:49:29Z</time>
  <course>0.0</course>
  <speed>0.0</speed>
  <fix>3d</fix>
</trkpt>
<trkpt lat="40.0713749" lon="-105.229789">
  <ele>1583.0</ele>
  <time>2026-08-28T17:49:29Z</time>
  <course>247.7</course>
  <speed>0.0316227766016838</speed>
  <fix>3d</fix>
</trkpt>
<trkpt lat="40.0713749" lon="-105.229789">
  <ele>1583.0</ele>
  <time>2026-08-28T17:49:29Z</time>
  <course>0.0</course>
  <speed>0.0</speed>
  <fix>3d</fix>
</trkpt>
<trkpt lat="40.0713749" lon="-105.229789">
  <ele>1583.0</ele>
  <time>2026-08-28T17:49:29Z</time>
  <course>247.7</course>
  <speed>0.0316227766016838</speed>
  <fix>3d</fix>
</trkpt>
<trkpt lat="40.0713749" lon="-105.229789">
  <ele>1583.0</ele>
  <time>2026-08-28T17:49:29Z</time>
  <course>0.0</course>
  <speed>0.0</speed>
  <fix>3d</fix>
</trkpt>
<trkpt lat="40.0713749" lon="-105.229789">
  <ele>1583.0</ele>
  <time>2026-08-28T17:49:29Z</time>
  <course>247.7</course>
  <speed>0.0316227766016838</speed>
  <fix>3d</fix>
</trkpt>
<trkpt lat="40.0713749" lon="-105.229789">
  <ele>1583.0</ele>
  <time>2026-08-28T17:49:29Z</time>
  <course>0.0</course>
  <speed>0.0</speed>
  <fix>3d</fix>
</trkpt>
<trkpt lat="40.0713749" lon="-105.229789">
  <ele>1583.0</ele>
  <time>2026-08-28T17:49:29Z</time>
  <course>247.69</course>
  <speed>0.0316227766016838</speed>
  <fix>3d</fix>
</trkpt>
<trkpt lat="40.0713749" lon="-105.229789">
  <ele>1583.0</ele>
  <time>2026-08-28T17:49:29Z</time>
  <course>0.0</course>
  <speed>0.0</speed>
  <fix>3d</fix>
</trkpt>
<trkpt lat="40.0713749" lon="-105.229789">
  <ele>1583.0</ele>
  <time>2026-08-28T17:49:29Z</time>
  <course>247.69</course>
  <speed>0.0316227766016838</speed>
  <fix>3d</fix>
</trkpt>
<trkpt lat="40.0713749" lon="-105.229789">
  <ele>1583.0</ele>
  <time>2026-08-28T17:49:29Z</time>
  <course>0.0</course>
  <speed>0.0</speed>
  <fix>3d</fix>
</trkpt>
<trkpt lat="40.0713749" lon="-105.229789">
  <ele>1583.0</ele>
  <time>2026-08-28T17:49:29Z</time>
  <course>247.69</course>
  <speed>0.0316227766016838</speed>
  <fix>3d</fix>
</trkpt>
<trkpt lat="40.0713749" lon="-105.229789">
  <ele>1583.0</ele>
  <time>2026-08-28T17:49:29Z</time>
  <course>0.0</course>
  <speed>0.0</speed>
  <fix>3d</fix>
</trkpt>
<trkpt lat="40.0713749" lon="-105.229789">
  <ele>1583.0</ele>
  <time>2026-08-28T17:49:29Z</time>
  <course>247.68</course>
  <speed>0.0316227766016838</speed>
  <fix>3d</fix>
</trkpt>
<trkpt lat="40.0713749" lon="-105.229789">
  <ele>1583.0</ele>
  <time>2026-08-28T17:49:29Z</time>
  <course>0.0</course>
  <speed>0.0</speed>
  <fix>3d</fix>
</trkpt>
<trkpt lat="40.0713749" lon="-105.229789">
  <ele>1583.0</ele>
  <time>2026-08-28T17:49:29Z</time>
  <course>247.68</course>
  <speed>0.0316227766016838</speed>
  <fix>3d</fix>
</trkpt>
<trkpt lat="40.0713749" lon="-105.229789">
  <ele>1583.0</ele>
  <time>2026-08-28T17:49:29Z</time>
  <course>0.0</course>
  <speed>0.0</speed>
  <fix>3d</fix>
</trkpt>
<trkpt lat="40.0713749" lon="-105.229789">
  <ele>1583.0</ele>
  <time>2026-08-28T17:49:29Z</time>
  <course>247.68</course>
  <speed>0.0316227766016838</speed>
  <fix>3d</fix>
</trkpt>
<trkpt lat="40.0713749" lon="-105.229789">
  <ele>1583.0</ele>
  <time>2026-08-28T17:49:29Z</time>
  <course>0.0</course>
  <speed>0.0</speed>
  <fix>3d</fix>
</trkpt>
<trkpt lat="40.0713749" lon="-105.229789">
  <ele>1583.0</ele>
  <time>2026-08-28T17:49:29Z</time>
  <course>247.67</course>
  <speed>0.0316227766016838</speed>
  <fix>3d</fix>
</trkpt>
<trkpt lat="40.0713749" lon="-105.229789">
  <ele>1583.0</ele>
  <time>2026-08-28T17:49:29Z</time>
  <course>0.0</course>
  <speed>0.0</speed>
  <fix>3d</fix>
</trkpt>
<trkpt lat="40.0713749" lon="-105.229789">
  <ele>1583.0</ele>
  <time>2026-08-28T17:49:29Z</time>
  <course>247.67</course>
  <speed>0.0316227766016838</speed>
  <fix>3d</fix>
</trkpt>
<trkpt lat="40.0713749" lon="-105.229789">
  <ele>1583.0</ele>
  <time>2026-08-28T17:49:29Z</time>
  <course>0.0</course>
  <speed>0.0</speed>
  <fix>3d</fix>
</trkpt>
<trkpt lat="40.0713749" lon="-105.229789">
  <ele>1583.0</ele>
  <time>2026-08-28T17:49:29Z</time>
  <course>247.67</course>
  <speed>0.0316227766016838</speed>
  <fix>3d</fix>
</trkpt>
<trkpt lat="40.0713749" lon="-105.229789">
  <ele>1583.0</ele>
  <time>2026-08-28T17:49:29Z</time>
  <course>0.0</course>
  <speed>0.0</speed>
  <fix>3d</fix>
</trkpt>
<trkpt lat="40.0713749" lon="-105.229789">
  <ele>1583.0</ele>
  <time>2026-08-28T17:49:29Z</time>
  <course>247.66</course>
  <speed>0.0316227766016838</speed>
  <fix>3d</fix>
</trkpt>
<trkpt lat="40.0713749" lon="-105.229789">
  <ele>1583.0</ele>
  <time>2026-08-28T17:49:29Z</time>
  <course>0.0</course>
  <speed>0.0</speed>
  <fix>3d</fix>
</trkpt>
<trkpt lat="40.0713749" lon="-105.229789">
  <ele>1583.0</ele>
  <time>2026-08-28T17:49:29Z</time>
  <course>247.66</course>
  <speed>0.0316227766016838</speed>
  <fix>3d</fix>
</trkpt>
<trkpt lat="40.0713749" lon="-105.229789">
  <ele>1583.0</ele>
  <time>2026-08-28T17:49:29Z</time>
  <course>0.0</course>
  <speed>0.0</speed>
  <fix>3d</fix>
</trkpt>
<trkpt lat="40.0713749" lon="-105.229789">
  <ele>1583.0</ele>
  <time>2026-08-28T17:49:29Z</time>
  <course>247.66</course>
  <speed>0.0316227766016838</speed>
  <fix>3d</fix>
</trkpt>
<trkpt lat="40.0713749" lon="-105.229789">
  <ele>1583.0</ele>
  <time>2026-08-28T17:49:29Z</time>
  <course>0.0</course>
  <speed>0.0</speed>
  <fix>3d</fix>
</trkpt>
<trkpt lat="40.0713749" lon="-105.229789">
  <ele>1583.0</ele>
  <time>2026-08-28T17:49:29Z</time>
  <course>247.65</course>
  <speed>0.0316227766016838</speed>
  <fix>3d</fix>
</trkpt>
<trkpt lat="40.0713749" lon="-105.229789">
  <ele>1583.0</ele>
  <time>2026-08-28T17:49:29Z</time>
  <course>0.0</course>
  <speed>0.0</speed>
  <fix>3d</fix>
</trkpt>
<trkpt lat="40.0713749" lon="-105.229789">
  <ele>1583.0</ele>
  <time>2026-08-28T17:49:29Z</time>
  <course>247.65</course>
  <speed>0.0316227766016838</speed>
  <fix>3d</fix>
</trkpt>
<trkpt lat="40.0713749" lon="-105.229789">
  <ele>1583.0</ele>
  <time>2026-08-28T17:49:29Z</time>
  <course>0.0</course>
  <speed>0.0</speed>
  <fix>3d</fix>
</trkpt>
<trkpt lat="40.0713749" lon="-105.229789">
  <ele>1583.0</ele>
  <time>2026-08-28T17:49:29Z</time>
  <course>247.65</course>
  <speed>0.0316227766016838</speed>
  <fix>3d</fix>
</trkpt>
<trkpt lat="40.0713749" lon="-105.229789">
  <ele>1583.0</ele>
  <time>2026-08-28T17:49:29Z</time>
  <course>0.0</course>
  <speed>0.0</speed>
  <fix>3d</fix>
</trkpt>
<trkpt lat="40.0713749" lon="-105.229789">
  <ele>1583.0</ele>
  <time>2026-08-28T17:49:29Z</time>
  <course>247.64</course>
  <speed>0.0316227766016838</speed>
  <fix>3d</fix>
</trkpt>
<trkpt lat="40.0713749" lon="-105.229789">
  <ele>1583.0</ele>
  <time>2026-08-28T17:49:29Z</time>
  <course>0.0</course>
  <speed>0.0</speed>
  <fix>3d</fix>
</trkpt>
<trkpt lat="40.0713749" lon="-105.229789">
  <ele>1583.0</ele>
  <time>2026-08-28T17:49:29Z</time>
  <course>247.64</course>
  <speed>0.0316227766016838</speed>
  <fix>3d</fix>
</trkpt>
<trkpt lat="40.0713749" lon="-105.229789">
  <ele>1583.0</ele>
  <time>2026-08-28T17:49:29Z</time>
  <course>0.0</course>
  <speed>0.0</speed>
  <fix>3d</fix>
</trkpt>
<trkpt lat="40.0713749" lon="-105.229789">
  <ele>1583.0</ele>
  <time>2026-08-28T17:49:29Z</time>
  <course>247.64</course>
  <speed>0.0316227766016838</speed>
  <fix>3d</fix>
</trkpt>
<trkpt lat="40.0713749" lon="-105.229789">
  <ele>1583.0</ele>
  <time>2026-08-28T17:49:29Z</time>
  <course>0.0</course>
  <speed>0.0</speed>
  <fix>3d</fix>
</trkpt>
<trkpt lat="40.0713749" lon="-105.229789">
  <ele>1583.0</ele>
  <time>2026-08-28T17:49:29Z</time>
  <course>247.64</course>
  <speed>0.0316227766016838</speed>
  <fix>3d</fix>
</trkpt>
<trkpt lat="40.0713749" lon="-105.229789">
  <ele>1583.0</ele>
  <time>2026-08-28T17:49:29Z</time>
  <course>0.0</course>
  <speed>0.0</speed>
  <fix>3d</fix>
</trkpt>
<trkpt lat="40.0713749" lon="-105.229789">
  <ele>1583.0</ele>
  <time>2026-08-28T17:49:29Z</time>
  <course>247.63</course>
  <speed>0.0316227766016838</speed>
  <fix>3d</fix>
</trkpt>
<trkpt lat="40.0713749" lon="-105.229789">
  <ele>1583.0</ele>
  <time>2026-08-28T17:49:29Z</time>
  <course>0.0</course>
  <speed>0.0</speed>
  <fix>3d</fix>
</trkpt>
<trkpt lat="40.0713749" lon="-105.229789">
  <ele>1583.0</ele>
  <time>2026-08-28T17:49:29Z</time>
  <course>247.63</course>
  <speed>0.0316227766016838</speed>
  <fix>3d</fix>
</trkpt>
<trkpt lat="40.0713749" lon="-105.229789">
  <ele>1583.0</ele>
  <time>2026-08-28T17:49:29Z</time>
  <course>0.0</course>
  <speed>0.0</speed>
  <fix>3d</fix>
</trkpt>
<trkpt lat="40.0713749" lon="-105.229789">
  <ele>1583.0</ele>
  <time>2026-08-28T17:49:29Z</time>
  <course>247.63</course>
  <speed>0.0316227766016838</speed>
  <fix>3d</fix>
</trkpt>
<trkpt lat="40.0713749" lon="-105.229789">
  <ele>1583.0</ele>
  <time>2026-08-28T17:49:29Z</time>
  <course>0.0</course>
  <speed>0.0</speed>
  <fix>3d</fix>
</trkpt>
<trkpt lat="40.0713749" lon="-105.229789">
  <ele>1583.0</ele>
  <time>2026-08-28T17:49:29Z</time>
  <course>247.62</course>
  <speed>0.0316227766016838</speed>
  <fix>3d</fix>
</trkpt>
<trkpt lat="40.0713749" lon="-105.229789">
  <ele>1583.0</ele>
  <time>2026-08-28T17:49:29Z</time>
  <course>0.0</course>
  <speed>0.0</speed>
  <fix>3d</fix>
</trkpt>
<trkpt lat="40.0713749" lon="-105.229789">
  <ele>1583.0</ele>
  <time>2026-08-28T17:49:29Z</time>
  <course>247.62</course>
  <speed>0.0316227766016838</speed>
  <fix>3d</fix>
</trkpt>
<trkpt lat="40.0713749" lon="-105.229789">
  <ele>1583.0</ele>
  <time>2026-08-28T17:49:29Z</time>
  <course>0.0</course>
  <speed>0.0</speed>
  <fix>3d</fix>
</trkpt>
<trkpt lat="40.0713749" lon="-105.229789">
  <ele>1583.0</ele>
  <time>2026-08-28T17:49:29Z</time>
  <course>247.62</course>
  <speed>0.0316227766016838</speed>
  <fix>3d</fix>
</trkpt>
<trkpt lat="40.0713749" lon="-105.229789">
  <ele>1583.0</ele>
  <time>2026-08-28T17:49:29Z</time>
  <course>0.0</course>
  <speed>0.0</speed>
  <fix>3d</fix>
</trkpt>
<trkpt lat="40.0713749" lon="-105.229789">
  <ele>1583.0</ele>
  <time>2026-08-28T17:49:29Z</time>
  <course>247.62</course>
  <speed>0.0316227766016838</speed>
  <fix>3d</fix>
</trkpt>
<trkpt lat="40.0713749" lon="-105.229789">
  <ele>1583.0</ele>
  <time>2026-08-28T17:49:29Z</time>
  <course>0.0</course>
  <speed>0.0</speed>
  <fix>3d</fix>
</trkpt>
<trkpt lat="40.0713749" lon="-105.229789">
  <ele>1583.0</ele>
  <time>2026-08-28T17:49:29Z</time>
  <course>247.61</course>
  <speed>0.0316227766016838</speed>
  <fix>3d</fix>
</trkpt>
<trkpt lat="40.0713749" lon="-105.229789">
  <ele>1583.0</ele>
  <time>2026-08-28T17:49:29Z</time>
  <course>0.0</course>
  <speed>0.0</speed>
  <fix>3d</fix>
</trkpt>
<trkpt lat="40.0713749" lon="-105.229789">
  <ele>1583.0</ele>
  <time>2026-08-28T17:49:29Z</time>
  <course>247.61</course>
  <speed>0.0316227766016838</speed>
  <fix>3d</fix>
</trkpt>
<trkpt lat="40.0713749" lon="-105.229789">
  <ele>1583.0</ele>
  <time>2026-08-28T17:49:29Z</time>
  <course>0.0</course>
  <speed>0.0</speed>
  <fix>3d</fix>
</trkpt>
<trkpt lat="40.0713749" lon="-105.229789">
  <ele>1583.0</ele>
  <time>2026-08-28T17:49:29Z</time>
  <course>247.61</course>
  <speed>0.0316227766016838</speed>
  <fix>3d</fix>
</trkpt>
<trkpt lat="40.0713749" lon="-105.229789">
  <ele>1583.0</ele>
  <time>2026-08-28T17:49:29Z</time>
  <course>0.0</course>
  <speed>0.0</speed>
  <fix>3d</fix>
</trkpt>
<trkpt lat="40.0713749" lon="-105.229789">
  <ele>1583.0</ele>
  <time>2026-08-28T17:49:29Z</time>
  <course>247.6</course>
  <speed>0.0316227766016838</speed>
  <fix>3d</fix>
</trkpt>
<trkpt lat="40.0713749" lon="-105.229789">
  <ele>1583.0</ele>
  <time>2026-08-28T17:49:29Z</time>
  <course>0.0</course>
  <speed>0.0</speed>
  <fix>3d</fix>
</trkpt>
<trkpt lat="40.0713749" lon="-105.229789">
  <ele>1583.0</ele>
  <time>2026-08-28T17:49:29Z</time>
  <course>247.6</course>
  <speed>0.0316227766016838</speed>
  <fix>3d</fix>
</trkpt>
<trkpt lat="40.0713749" lon="-105.229789">
  <ele>1583.0</ele>
  <time>2026-08-28T17:49:29Z</time>
  <course>0.0</course>
  <speed>0.0</speed>
  <fix>3d</fix>
</trkpt>
<trkpt lat="40.0713749" lon="-105.229789">
  <ele>1583.0</ele>
  <time>2026-08-28T17:49:29Z</time>
  <course>247.6</course>
  <speed>0.0316227766016838</speed>
  <fix>3d</fix>
</trkpt>
<trkpt lat="40.0713749" lon="-105.229789">
  <ele>1583.0</ele>
  <time>2026-08-28T17:49:29Z</time>
  <course>0.0</course>
  <speed>0.0</speed>
  <fix>3d</fix>
</trkpt>
<trkpt lat="40.0713749" lon="-105.229789">
  <ele>1583.0</ele>
  <time>2026-08-28T17:49:29Z</time>
  <course>247.6</course>
  <speed>0.0316227766016838</speed>
  <fix>3d</fix>
</trkpt>
<trkpt lat="40.0713749" lon="-105.229789">
  <ele>1583.0</ele>
  <time>2026-08-28T17:49:29Z</time>
  <course>0.0</course>
  <speed>0.0</speed>
  <fix>3d</fix>
</trkpt>
<trkpt lat="40.0713749" lon="-105.229789">
  <ele>1583.0</ele>
  <time>2026-08-28T17:49:29Z</time>
  <course>247.59</course>
  <speed>0.0316227766016838</speed>
  <fix>3d</fix>
</trkpt>
<trkpt lat="40.0713749" lon="-105.229789">
  <ele>1583.0</ele>
  <time>2026-08-28T17:49:29Z</time>
  <course>0.0</course>
  <speed>0.0</speed>
  <fix>3d</fix>
</trkpt>
<trkpt lat="40.0713749" lon="-105.229789">
  <ele>1582.92</ele>
  <time>2026-08-28T17:49:29Z</time>
  <course>247.59</course>
  <speed>0.0</speed>
  <fix>3d</fix>
</trkpt>
<trkpt lat="40.0713749" lon="-105.229789">
  <ele>1583.0</ele>
  <time>2026-08-28T17:49:29Z</time>
  <course>0.0</course>
  <speed>0.0</speed>
  <fix>3d</fix>
</trkpt>
<trkpt lat="40.0713749" lon="-105.229789">
  <ele>1582.92</ele>
  <time>2026-08-28T17:49:29Z</time>
  <course>247.59</course>
  <speed>0.0</speed>
  <fix>3d</fix>
</trkpt>
<trkpt lat="40.0713749" lon="-105.229789">
  <ele>1583.0</ele>
  <time>2026-08-28T17:49:30Z</time>
  <course>0.0</course>
  <speed>0.0</speed>
  <fix>3d</fix>
</trkpt>
<trkpt lat="40.0713749" lon="-105.229789">
  <ele>1582.91</ele>
  <time>2026-08-28T17:49:30Z</time>
  <course>247.58</course>
  <speed>0.0</speed>
  <fix>3d</fix>
</trkpt>
<trkpt lat="40.0713749" lon="-105.229789">
  <ele>1583.0</ele>
  <time>2026-08-28T17:49:30Z</time>
  <course>0.0</course>
  <speed>0.0</speed>
  <fix>3d</fix>
</trkpt>
<trkpt lat="40.0713749" lon="-105.229789">
  <ele>1582.91</ele>
  <time>2026-08-28T17:49:30Z</time>
  <course>247.58</course>
  <speed>0.0</speed>
  <fix>3d</fix>
</trkpt>
<trkpt lat="40.0713749" lon="-105.229789">
  <ele>1583.0</ele>
  <time>2026-08-28T17:49:30Z</time>
  <course>0.0</course>
  <speed>0.0</speed>
  <fix>3d</fix>
</trkpt>
<trkpt lat="40.0713749" lon="-105.229789">
  <ele>1582.9</ele>
  <time>2026-08-28T17:49:30Z</time>
  <course>247.58</course>
  <speed>0.0</speed>
  <fix>3d</fix>
</trkpt>
<trkpt lat="40.0713749" lon="-105.229789">
  <ele>1583.0</ele>
  <time>2026-08-28T17:49:30Z</time>
  <course>0.0</course>
  <speed>0.0</speed>
  <fix>3d</fix>
</trkpt>
<trkpt lat="40.0713749" lon="-105.229789">
  <ele>1582.9</ele>
  <time>2026-08-28T17:49:30Z</time>
  <course>247.58</course>
  <speed>0.0</speed>
  <fix>3d</fix>
</trkpt>
<trkpt lat="40.0713749" lon="-105.229789">
  <ele>1583.0</ele>
  <time>2026-08-28T17:49:30Z</time>
  <course>0.0</course>
  <speed>0.0</speed>
  <fix>3d</fix>
</trkpt>
<trkpt lat="40.0713749" lon="-105.229789">
  <ele>1582.9</ele>
  <time>2026-08-28T17:49:30Z</time>
  <course>247.57</course>
  <speed>0.0</speed>
  <fix>3d</fix>
</trkpt>
<trkpt lat="40.0713749" lon="-105.229789">
  <ele>1583.0</ele>
  <time>2026-08-28T17:49:30Z</time>
  <course>0.0</course>
  <speed>0.0</speed>
  <fix>3d</fix>
</trkpt>
<trkpt lat="40.0713749" lon="-105.229789">
  <ele>1582.9</ele>
  <time>2026-08-28T17:49:30Z</time>
  <course>247.57</course>
  <speed>0.0</speed>
  <fix>3d</fix>
</trkpt>
<trkpt lat="40.0713749" lon="-105.229789">
  <ele>1583.0</ele>
  <time>2026-08-28T17:49:30Z</time>
  <course>0.0</course>
  <speed>0.0</speed>
  <fix>3d</fix>
</trkpt>
<trkpt lat="40.0713749" lon="-105.229789">
  <ele>1582.9</ele>
  <time>2026-08-28T17:49:30Z</time>
  <course>247.57</course>
  <speed>0.0</speed>
  <fix>3d</fix>
</trkpt>
<trkpt lat="40.0713749" lon="-105.229789">
  <ele>1583.0</ele>
  <time>2026-08-28T17:49:30Z</time>
  <course>0.0</course>
  <speed>0.0</speed>
  <fix>3d</fix>
</trkpt>
<trkpt lat="40.0713749" lon="-105.229789">
  <ele>1582.9</ele>
  <time>2026-08-28T17:49:30Z</time>
  <course>247.57</course>
  <speed>0.01</speed>
  <fix>3d</fix>
</trkpt>
<trkpt lat="40.0713749" lon="-105.229789">
  <ele>1583.0</ele>
  <time>2026-08-28T17:49:30Z</time>
  <course>0.0</course>
  <speed>0.0</speed>
  <fix>3d</fix>
</trkpt>
<trkpt lat="40.0713749" lon="-105.229789">
  <ele>1582.9</ele>
  <time>2026-08-28T17:49:30Z</time>
  <course>247.56</course>
  <speed>0.01</speed>
  <fix>3d</fix>
</trkpt>
<trkpt lat="40.0713749" lon="-105.229789">
  <ele>1583.0</ele>
  <time>2026-08-28T17:49:30Z</time>
  <course>0.0</course>
  <speed>0.0</speed>
  <fix>3d</fix>
</trkpt>
<trkpt lat="40.0713749" lon="-105.229789">
  <ele>1582.91</ele>
  <time>2026-08-28T17:49:30Z</time>
  <course>247.56</course>
  <speed>0.01</speed>
  <fix>3d</fix>
</trkpt>
<trkpt lat="40.0713749" lon="-105.229789">
  <ele>1583.0</ele>
  <time>2026-08-28T17:49:30Z</time>
  <course>0.0</course>
  <speed>0.0</speed>
  <fix>3d</fix>
</trkpt>
<trkpt lat="40.0713749" lon="-105.229789">
  <ele>1582.91</ele>
  <time>2026-08-28T17:49:30Z</time>
  <course>247.56</course>
  <speed>0.01</speed>
  <fix>3d</fix>
</trkpt>
<trkpt lat="40.0713749" lon="-105.229789">
  <ele>1583.0</ele>
  <time>2026-08-28T17:49:30Z</time>
  <course>0.0</course>
  <speed>0.0</speed>
  <fix>3d</fix>
</trkpt>
<trkpt lat="40.0713749" lon="-105.229789">
  <ele>1582.92</ele>
  <time>2026-08-28T17:49:30Z</time>
  <course>247.56</course>
  <speed>0.01</speed>
  <fix>3d</fix>
</trkpt>
<trkpt lat="40.0713749" lon="-105.229789">
  <ele>1583.0</ele>
  <time>2026-08-28T17:49:30Z</time>
  <course>0.0</course>
  <speed>0.0</speed>
  <fix>3d</fix>
</trkpt>
<trkpt lat="40.0713749" lon="-105.229789">
  <ele>1582.92</ele>
  <time>2026-08-28T17:49:30Z</time>
  <course>247.55</course>
  <speed>0.01</speed>
  <fix>3d</fix>
</trkpt>
<trkpt lat="40.0713749" lon="-105.229789">
  <ele>1583.0</ele>
  <time>2026-08-28T17:49:30Z</time>
  <course>0.0</course>
  <speed>0.0</speed>
  <fix>3d</fix>
</trkpt>
<trkpt lat="40.0713749" lon="-105.229789">
  <ele>1582.92</ele>
  <time>2026-08-28T17:49:30Z</time>
  <course>247.55</course>
  <speed>0.01</speed>
  <fix>3d</fix>
</trkpt>
<trkpt lat="40.0713749" lon="-105.229789">
  <ele>1583.0</ele>
  <time>2026-08-28T17:49:30Z</time>
  <course>0.0</course>
  <speed>0.0</speed>
  <fix>3d</fix>
</trkpt>
<trkpt lat="40.0713749" lon="-105.229789">
  <ele>1582.93</ele>
  <time>2026-08-28T17:49:30Z</time>
  <course>247.55</course>
  <speed>0.01</speed>
  <fix>3d</fix>
</trkpt>
<trkpt lat="40.0713749" lon="-105.229789">
  <ele>1583.0</ele>
  <time>2026-08-28T17:49:30Z</time>
  <course>0.0</course>
  <speed>0.0</speed>
  <fix>3d</fix>
</trkpt>
<trkpt lat="40.0713749" lon="-105.229789">
  <ele>1582.93</ele>
  <time>2026-08-28T17:49:30Z</time>
  <course>247.55</course>
  <speed>0.01</speed>
  <fix>3d</fix>
</trkpt>
<trkpt lat="40.0713749" lon="-105.229789">
  <ele>1583.0</ele>
  <time>2026-08-28T17:49:30Z</time>
  <course>0.0</course>
  <speed>0.0</speed>
  <fix>3d</fix>
</trkpt>
<trkpt lat="40.0713749" lon="-105.229789">
  <ele>1582.93</ele>
  <time>2026-08-28T17:49:30Z</time>
  <course>247.54</course>
  <speed>0.02</speed>
  <fix>3d</fix>
</trkpt>
<trkpt lat="40.0713749" lon="-105.229789">
  <ele>1583.0</ele>
  <time>2026-08-28T17:49:30Z</time>
  <course>0.0</course>
  <speed>0.0</speed>
  <fix>3d</fix>
</trkpt>
<trkpt lat="40.0713749" lon="-105.229789">
  <ele>1582.93</ele>
  <time>2026-08-28T17:49:30Z</time>
  <course>247.54</course>
  <speed>0.02</speed>
  <fix>3d</fix>
</trkpt>
<trkpt lat="40.0713749" lon="-105.229789">
  <ele>1583.0</ele>
  <time>2026-08-28T17:49:30Z</time>
  <course>0.0</course>
  <speed>0.0</speed>
  <fix>3d</fix>
</trkpt>
<trkpt lat="40.0713749" lon="-105.229789">
  <ele>1582.93</ele>
  <time>2026-08-28T17:49:30Z</time>
  <course>247.54</course>
  <speed>0.02</speed>
  <fix>3d</fix>
</trkpt>
<trkpt lat="40.0713749" lon="-105.229789">
  <ele>1583.0</ele>
  <time>2026-08-28T17:49:30Z</time>
  <course>0.0</course>
  <speed>0.0</speed>
  <fix>3d</fix>
</trkpt>
<trkpt lat="40.0713749" lon="-105.229789">
  <ele>1582.93</ele>
  <time>2026-08-28T17:49:30Z</time>
  <course>247.54</course>
  <speed>0.022360679774997897</speed>
  <fix>3d</fix>
</trkpt>
<trkpt lat="40.0713749" lon="-105.229789">
  <ele>1583.0</ele>
  <time>2026-08-28T17:49:30Z</time>
  <course>0.0</course>
  <speed>0.0</speed>
  <fix>3d</fix>
</trkpt>
<trkpt lat="40.0713749" lon="-105.229789">
  <ele>1582.94</ele>
  <time>2026-08-28T17:49:30Z</time>
  <course>247.53</course>
  <speed>0.022360679774997897</speed>
  <fix>3d</fix>
</trkpt>
<trkpt lat="40.0713749" lon="-105.229789">
  <ele>1583.0</ele>
  <time>2026-08-28T17:49:30Z</time>
  <course>0.0</course>
  <speed>0.0</speed>
  <fix>3d</fix>
</trkpt>
<trkpt lat="40.0713749" lon="-105.229789">
  <ele>1582.94</ele>
  <time>2026-08-28T17:49:30Z</time>
  <course>247.53</course>
  <speed>0.022360679774997897</speed>
  <fix>3d</fix>
</trkpt>
<trkpt lat="40.0713749" lon="-105.229789">
  <ele>1583.0</ele>
  <time>2026-08-28T17:49:30Z</time>
  <course>0.0</course>
  <speed>0.0</speed>
  <fix>3d</fix>
</trkpt>
<trkpt lat="40.071375" lon="-105.229789">
  <ele>1582.94</ele>
  <time>2026-08-28T17:49:30Z</time>
  <course>247.53</course>
  <speed>0.022360679774997897</speed>
  <fix>3d</fix>
</trkpt>
<trkpt lat="40.0713749" lon="-105.229789">
  <ele>1583.0</ele>
  <time>2026-08-28T17:49:30Z</time>
  <course>0.0</course>
  <speed>0.0</speed>
  <fix>3d</fix>
</trkpt>
<trkpt lat="40.071375" lon="-105.229789">
  <ele>1582.95</ele>
  <time>2026-08-28T17:49:30Z</time>
  <course>247.53</course>
  <speed>0.022360679774997897</speed>
  <fix>3d</fix>
</trkpt>
<trkpt lat="40.0713749" lon="-105.229789">
  <ele>1583.0</ele>
  <time>2026-08-28T17:49:30Z</time>
  <course>0.0</course>
  <speed>0.0</speed>
  <fix>3d</fix>
</trkpt>
<trkpt lat="40.071375" lon="-105.229789">
  <ele>1582.95</ele>
  <time>2026-08-28T17:49:30Z</time>
  <course>247.53</course>
  <speed>0.022360679774997897</speed>
  <fix>3d</fix>
</trkpt>
<trkpt lat="40.0713749" lon="-105.229789">
  <ele>1583.0</ele>
  <time>2026-08-28T17:49:30Z</time>
  <course>0.0</course>
  <speed>0.0</speed>
  <fix>3d</fix>
</trkpt>
<trkpt lat="40.071375" lon="-105.229789">
  <ele>1582.95</ele>
  <time>2026-08-28T17:49:30Z</time>
  <course>247.52</course>
  <speed>0.022360679774997897</speed>
  <fix>3d</fix>
</trkpt>
<trkpt lat="40.0713749" lon="-105.229789">
  <ele>1583.0</ele>
  <time>2026-08-28T17:49:30Z</time>
  <course>0.0</course>
  <speed>0.0</speed>
  <fix>3d</fix>
</trkpt>
<trkpt lat="40.071375" lon="-105.229789">
  <ele>1582.95</ele>
  <time>2026-08-28T17:49:30Z</time>
  <course>247.52</course>
  <speed>0.022360679774997897</speed>
  <fix>3d</fix>
</trkpt>
<trkpt lat="40.0713749" lon="-105.229789">
  <ele>1583.0</ele>
  <time>2026-08-28T17:49:30Z</time>
  <course>0.0</course>
  <speed>0.0</speed>
  <fix>3d</fix>
</trkpt>
<trkpt lat="40.071375" lon="-105.229789">
  <ele>1582.95</ele>
  <time>2026-08-28T17:49:30Z</time>
  <course>247.52</course>
  <speed>0.022360679774997897</speed>
  <fix>3d</fix>
</trkpt>
<trkpt lat="40.0713749" lon="-105.229789">
  <ele>1583.0</ele>
  <time>2026-08-28T17:49:30Z</time>
  <course>0.0</course>
  <speed>0.0</speed>
  <fix>3d</fix>
</trkpt>
<trkpt lat="40.071375" lon="-105.229789">
  <ele>1582.95</ele>
  <time>2026-08-28T17:49:30Z</time>
  <course>247.52</course>
  <speed>0.022360679774997897</speed>
  <fix>3d</fix>
</trkpt>
<trkpt lat="40.0713749" lon="-105.229789">
  <ele>1583.0</ele>
  <time>2026-08-28T17:49:30Z</time>
  <course>0.0</course>
  <speed>0.0</speed>
  <fix>3d</fix>
</trkpt>
<trkpt lat="40.071375" lon="-105.229789">
  <ele>1582.95</ele>
  <time>2026-08-28T17:49:30Z</time>
  <course>247.51</course>
  <speed>0.0316227766016838</speed>
  <fix>3d</fix>
</trkpt>
<trkpt lat="40.0713749" lon="-105.229789">
  <ele>1583.0</ele>
  <time>2026-08-28T17:49:30Z</time>
  <course>0.0</course>
  <speed>0.0</speed>
  <fix>3d</fix>
</trkpt>
<trkpt lat="40.071375" lon="-105.229789">
  <ele>1582.95</ele>
  <time>2026-08-28T17:49:30Z</time>
  <course>247.51</course>
  <speed>0.0316227766016838</speed>
  <fix>3d</fix>
</trkpt>
<trkpt lat="40.0713749" lon="-105.229789">
  <ele>1583.0</ele>
  <time>2026-08-28T17:49:30Z</time>
  <course>0.0</course>
  <speed>0.0</speed>
  <fix>3d</fix>
</trkpt>
<trkpt lat="40.071375" lon="-105.229789">
  <ele>1582.95</ele>
  <time>2026-08-28T17:49:30Z</time>
  <course>247.51</course>
  <speed>0.0316227766016838</speed>
  <fix>3d</fix>
</trkpt>
<trkpt lat="40.0713749" lon="-105.229789">
  <ele>1583.0</ele>
  <time>2026-08-28T17:49:30Z</time>
  <course>0.0</course>
  <speed>0.0</speed>
  <fix>3d</fix>
</trkpt>
<trkpt lat="40.071375" lon="-105.2297889">
  <ele>1582.95</ele>
  <time>2026-08-28T17:49:30Z</time>
  <course>247.51</course>
  <speed>0.0316227766016838</speed>
  <fix>3d</fix>
</trkpt>
<trkpt lat="40.0713749" lon="-105.229789">
  <ele>1583.0</ele>
  <time>2026-08-28T17:49:30Z</time>
  <course>0.0</course>
  <speed>0.0</speed>
  <fix>3d</fix>
</trkpt>
<trkpt lat="40.071375" lon="-105.2297889">
  <ele>1582.95</ele>
  <time>2026-08-28T17:49:30Z</time>
  <course>247.51</course>
  <speed>0.0316227766016838</speed>
  <fix>3d</fix>
</trkpt>
<trkpt lat="40.0713749" lon="-105.229789">
  <ele>1583.0</ele>
  <time>2026-08-28T17:49:30Z</time>
  <course>0.0</course>
  <speed>0.0</speed>
  <fix>3d</fix>
</trkpt>
<trkpt lat="40.071375" lon="-105.2297889">
  <ele>1582.95</ele>
  <time>2026-08-28T17:49:30Z</time>
  <course>247.5</course>
  <speed>0.0316227766016838</speed>
  <fix>3d</fix>
</trkpt>
<trkpt lat="40.0713749" lon="-105.229789">
  <ele>1583.0</ele>
  <time>2026-08-28T17:49:30Z</time>
  <course>0.0</course>
  <speed>0.0</speed>
  <fix>3d</fix>
</trkpt>
<trkpt lat="40.071375" lon="-105.2297889">
  <ele>1582.95</ele>
  <time>2026-08-28T17:49:30Z</time>
  <course>247.5</course>
  <speed>0.0316227766016838</speed>
  <fix>3d</fix>
</trkpt>
<trkpt lat="40.0713749" lon="-105.229789">
  <ele>1583.0</ele>
  <time>2026-08-28T17:49:30Z</time>
  <course>0.0</course>
  <speed>0.0</speed>
  <fix>3d</fix>
</trkpt>
<trkpt lat="40.071375" lon="-105.2297889">
  <ele>1582.95</ele>
  <time>2026-08-28T17:49:30Z</time>
  <course>247.5</course>
  <speed>0.0316227766016838</speed>
  <fix>3d</fix>
</trkpt>
<trkpt lat="40.0713749" lon="-105.229789">
  <ele>1583.0</ele>
  <time>2026-08-28T17:49:30Z</time>
  <course>0.0</course>
  <speed>0.0</speed>
  <fix>3d</fix>
</trkpt>
<trkpt lat="40.0713751" lon="-105.2297889">
  <ele>1582.95</ele>
  <time>2026-08-28T17:49:30Z</time>
  <course>247.5</course>
  <speed>0.0316227766016838</speed>
  <fix>3d</fix>
</trkpt>
<trkpt lat="40.0713749" lon="-105.229789">
  <ele>1583.0</ele>
  <time>2026-08-28T17:49:30Z</time>
  <course>0.0</course>
  <speed>0.0</speed>
  <fix>3d</fix>
</trkpt>
<trkpt lat="40.0713751" lon="-105.2297889">
  <ele>1582.96</ele>
  <time>2026-08-28T17:49:30Z</time>
  <course>247.49</course>
  <speed>0.0316227766016838</speed>
  <fix>3d</fix>
</trkpt>
<trkpt lat="40.0713749" lon="-105.229789">
  <ele>1583.0</ele>
  <time>2026-08-28T17:49:30Z</time>
  <course>0.0</course>
  <speed>0.0</speed>
  <fix>3d</fix>
</trkpt>
<trkpt lat="40.0713751" lon="-105.2297889">
  <ele>1582.96</ele>
  <time>2026-08-28T17:49:30Z</time>
  <course>247.49</course>
  <speed>0.0316227766016838</speed>
  <fix>3d</fix>
</trkpt>
<trkpt lat="40.0713749" lon="-105.229789">
  <ele>1583.0</ele>
  <time>2026-08-28T17:49:30Z</time>
  <course>0.0</course>
  <speed>0.0</speed>
  <fix>3d</fix>
</trkpt>
<trkpt lat="40.0713751" lon="-105.2297889">
  <ele>1582.97</ele>
  <time>2026-08-28T17:49:30Z</time>
  <course>247.49</course>
  <speed>0.0316227766016838</speed>
  <fix>3d</fix>
</trkpt>
<trkpt lat="40.0713749" lon="-105.229789">
  <ele>1583.0</ele>
  <time>2026-08-28T17:49:30Z</time>
  <course>0.0</course>
  <speed>0.0</speed>
  <fix>3d</fix>
</trkpt>
<trkpt lat="40.0713751" lon="-105.2297889">
  <ele>1582.98</ele>
  <time>2026-08-28T17:49:30Z</time>
  <course>247.49</course>
  <speed>0.0316227766016838</speed>
  <fix>3d</fix>
</trkpt>
<trkpt lat="40.0713749" lon="-105.229789">
  <ele>1583.0</ele>
  <time>2026-08-28T17:49:30Z</time>
  <course>0.0</course>
  <speed>0.0</speed>
  <fix>3d</fix>
</trkpt>
<trkpt lat="40.0713751" lon="-105.2297889">
  <ele>1582.98</ele>
  <time>2026-08-28T17:49:30Z</time>
  <course>247.49</course>
  <speed>0.0316227766016838</speed>
  <fix>3d</fix>
</trkpt>
<trkpt lat="40.0713749" lon="-105.229789">
  <ele>1583.0</ele>
  <time>2026-08-28T17:49:30Z</time>
  <course>0.0</course>
  <speed>0.0</speed>
  <fix>3d</fix>
</trkpt>
<trkpt lat="40.0713751" lon="-105.2297889">
  <ele>1582.99</ele>
  <time>2026-08-28T17:49:30Z</time>
  <course>247.48</course>
  <speed>0.0316227766016838</speed>
  <fix>3d</fix>
</trkpt>
<trkpt lat="40.0713749" lon="-105.229789">
  <ele>1583.0</ele>
  <time>2026-08-28T17:49:30Z</time>
  <course>0.0</course>
  <speed>0.0</speed>
  <fix>3d</fix>
</trkpt>
<trkpt lat="40.0713751" lon="-105.2297889">
  <ele>1583.0</ele>
  <time>2026-08-28T17:49:30Z</time>
  <course>247.48</course>
  <speed>0.022360679774997897</speed>
  <fix>3d</fix>
</trkpt>
<trkpt lat="40.0713749" lon="-105.229789">
  <ele>1583.0</ele>
  <time>2026-08-28T17:49:30Z</time>
  <course>0.0</course>
  <speed>0.0</speed>
  <fix>3d</fix>
</trkpt>
<trkpt lat="40.0713751" lon="-105.2297889">
  <ele>1583.01</ele>
  <time>2026-08-28T17:49:30Z</time>
  <course>247.48</course>
  <speed>0.022360679774997897</speed>
  <fix>3d</fix>
</trkpt>
<trkpt lat="40.0713749" lon="-105.229789">
  <ele>1583.0</ele>
  <time>2026-08-28T17:49:30Z</time>
  <course>0.0</course>
  <speed>0.0</speed>
  <fix>3d</fix>
</trkpt>
<trkpt lat="40.0713751" lon="-105.2297889">
  <ele>1583.01</ele>
  <time>2026-08-28T17:49:30Z</time>
  <course>247.48</course>
  <speed>0.022360679774997897</speed>
  <fix>3d</fix>
</trkpt>
<trkpt lat="40.0713749" lon="-105.229789">
  <ele>1583.0</ele>
  <time>2026-08-28T17:49:30Z</time>
  <course>0.0</course>
  <speed>0.0</speed>
  <fix>3d</fix>
</trkpt>
<trkpt lat="40.0713751" lon="-105.2297889">
  <ele>1583.01</ele>
  <time>2026-08-28T17:49:30Z</time>
  <course>247.47</course>
  <speed>0.022360679774997897</speed>
  <fix>3d</fix>
</trkpt>
<trkpt lat="40.0713749" lon="-105.229789">
  <ele>1583.0</ele>
  <time>2026-08-28T17:49:30Z</time>
  <course>0.0</course>
  <speed>0.0</speed>
  <fix>3d</fix>
</trkpt>
<trkpt lat="40.0713751" lon="-105.2297889">
  <ele>1583.01</ele>
  <time>2026-08-28T17:49:30Z</time>
  <course>247.47</course>
  <speed>0.022360679774997897</speed>
  <fix>3d</fix>
</trkpt>
<trkpt lat="40.0713749" lon="-105.229789">
  <ele>1583.0</ele>
  <time>2026-08-28T17:49:30Z</time>
  <course>0.0</course>
  <speed>0.0</speed>
  <fix>3d</fix>
</trkpt>
<trkpt lat="40.0713751" lon="-105.2297889">
  <ele>1583.01</ele>
  <time>2026-08-28T17:49:30Z</time>
  <course>247.47</course>
  <speed>0.022360679774997897</speed>
  <fix>3d</fix>
</trkpt>
<trkpt lat="40.0713749" lon="-105.229789">
  <ele>1583.0</ele>
  <time>2026-08-28T17:49:30Z</time>
  <course>0.0</course>
  <speed>0.0</speed>
  <fix>3d</fix>
</trkpt>
<trkpt lat="40.071375" lon="-105.2297889">
  <ele>1582.99</ele>
  <time>2026-08-28T17:49:30Z</time>
  <course>247.46</course>
  <speed>0.022360679774997897</speed>
  <fix>3d</fix>
</trkpt>
<trkpt lat="40.0713749" lon="-105.229789">
  <ele>1583.0</ele>
  <time>2026-08-28T17:49:30Z</time>
  <course>0.0</course>
  <speed>0.0</speed>
  <fix>3d</fix>
</trkpt>
<trkpt lat="40.071375" lon="-105.2297889">
  <ele>1582.99</ele>
  <time>2026-08-28T17:49:30Z</time>
  <course>247.46</course>
  <speed>0.022360679774997897</speed>
  <fix>3d</fix>
</trkpt>
<trkpt lat="40.0713749" lon="-105.229789">
  <ele>1583.0</ele>
  <time>2026-08-28T17:49:30Z</time>
  <course>0.0</course>
  <speed>0.0</speed>
  <fix>3d</fix>
</trkpt>
<trkpt lat="40.071375" lon="-105.2297889">
  <ele>1582.99</ele>
  <time>2026-08-28T17:49:30Z</time>
  <course>247.46</course>
  <speed>0.022360679774997897</speed>
  <fix>3d</fix>
</trkpt>
<trkpt lat="40.0713749" lon="-105.229789">
  <ele>1583.0</ele>
  <time>2026-08-28T17:49:30Z</time>
  <course>0.0</course>
  <speed>0.0</speed>
  <fix>3d</fix>
</trkpt>
<trkpt lat="40.071375" lon="-105.2297889">
  <ele>1582.99</ele>
  <time>2026-08-28T17:49:30Z</time>
  <course>247.45</course>
  <speed>0.022360679774997897</speed>
  <fix>3d</fix>
</trkpt>
<trkpt lat="40.0713749" lon="-105.229789">
  <ele>1583.0</ele>
  <time>2026-08-28T17:49:30Z</time>
  <course>0.0</course>
  <speed>0.0</speed>
  <fix>3d</fix>
</trkpt>
<trkpt lat="40.071375" lon="-105.2297889">
  <ele>1582.99</ele>
  <time>2026-08-28T17:49:30Z</time>
  <course>247.45</course>
  <speed>0.022360679774997897</speed>
  <fix>3d</fix>
</trkpt>
<trkpt lat="40.0713749" lon="-105.229789">
  <ele>1583.0</ele>
  <time>2026-08-28T17:49:30Z</time>
  <course>0.0</course>
  <speed>0.0</speed>
  <fix>3d</fix>
</trkpt>
<trkpt lat="40.071375" lon="-105.2297889">
  <ele>1582.99</ele>
  <time>2026-08-28T17:49:30Z</time>
  <course>247.45</course>
  <speed>0.022360679774997897</speed>
  <fix>3d</fix>
</trkpt>
<trkpt lat="40.0713749" lon="-105.229789">
  <ele>1583.0</ele>
  <time>2026-08-28T17:49:30Z</time>
  <course>0.0</course>
  <speed>0.0</speed>
  <fix>3d</fix>
</trkpt>
<trkpt lat="40.071375" lon="-105.2297889">
  <ele>1583.0</ele>
  <time>2026-08-28T17:49:30Z</time>
  <course>247.45</course>
  <speed>0.022360679774997897</speed>
  <fix>3d</fix>
</trkpt>
<trkpt lat="40.0713749" lon="-105.229789">
  <ele>1583.0</ele>
  <time>2026-08-28T17:49:30Z</time>
  <course>0.0</course>
  <speed>0.0</speed>
  <fix>3d</fix>
</trkpt>
<trkpt lat="40.071375" lon="-105.2297889">
  <ele>1583.0</ele>
  <time>2026-08-28T17:49:30Z</time>
  <course>247.44</course>
  <speed>0.022360679774997897</speed>
  <fix>3d</fix>
</trkpt>
<trkpt lat="40.0713749" lon="-105.229789">
  <ele>1583.0</ele>
  <time>2026-08-28T17:49:30Z</time>
  <course>0.0</course>
  <speed>0.0</speed>
  <fix>3d</fix>
</trkpt>
<trkpt lat="40.071375" lon="-105.229789">
  <ele>1583.0</ele>
  <time>2026-08-28T17:49:30Z</time>
  <course>247.44</course>
  <speed>0.02</speed>
  <fix>3d</fix>
</trkpt>
<trkpt lat="40.0713749" lon="-105.229789">
  <ele>1583.0</ele>
  <time>2026-08-28T17:49:30Z</time>
  <course>0.0</course>
  <speed>0.0</speed>
  <fix>3d</fix>
</trkpt>
<trkpt lat="40.071375" lon="-105.229789">
  <ele>1583.0</ele>
  <time>2026-08-28T17:49:30Z</time>
  <course>247.44</course>
  <speed>0.02</speed>
  <fix>3d</fix>
</trkpt>
<trkpt lat="40.0713749" lon="-105.229789">
  <ele>1583.0</ele>
  <time>2026-08-28T17:49:30Z</time>
  <course>0.0</course>
  <speed>0.0</speed>
  <fix>3d</fix>
</trkpt>
<trkpt lat="40.071375" lon="-105.229789">
  <ele>1583.0</ele>
  <time>2026-08-28T17:49:30Z</time>
  <course>247.44</course>
  <speed>0.02</speed>
  <fix>3d</fix>
</trkpt>
<trkpt lat="40.0713749" lon="-105.229789">
  <ele>1583.0</ele>
  <time>2026-08-28T17:49:30Z</time>
  <course>0.0</course>
  <speed>0.0</speed>
  <fix>3d</fix>
</trkpt>
<trkpt lat="40.071375" lon="-105.229789">
  <ele>1583.01</ele>
  <time>2026-08-28T17:49:30Z</time>
  <course>247.43</course>
  <speed>0.02</speed>
  <fix>3d</fix>
</trkpt>
<trkpt lat="40.0713749" lon="-105.229789">
  <ele>1583.0</ele>
  <time>2026-08-28T17:49:30Z</time>
  <course>0.0</course>
  <speed>0.0</speed>
  <fix>3d</fix>
</trkpt>
<trkpt lat="40.071375" lon="-105.229789">
  <ele>1583.01</ele>
  <time>2026-08-28T17:49:30Z</time>
  <course>247.43</course>
  <speed>0.02</speed>
  <fix>3d</fix>
</trkpt>
<trkpt lat="40.0713749" lon="-105.229789">
  <ele>1583.0</ele>
  <time>2026-08-28T17:49:30Z</time>
  <course>0.0</course>
  <speed>0.0</speed>
  <fix>3d</fix>
</trkpt>
<trkpt lat="40.071375" lon="-105.229789">
  <ele>1583.01</ele>
  <time>2026-08-28T17:49:30Z</time>
  <course>247.43</course>
  <speed>0.02</speed>
  <fix>3d</fix>
</trkpt>
<trkpt lat="40.0713749" lon="-105.229789">
  <ele>1583.0</ele>
  <time>2026-08-28T17:49:30Z</time>
  <course>0.0</course>
  <speed>0.0</speed>
  <fix>3d</fix>
</trkpt>
<trkpt lat="40.071375" lon="-105.229789">
  <ele>1583.01</ele>
  <time>2026-08-28T17:49:30Z</time>
  <course>247.43</course>
  <speed>0.02</speed>
  <fix>3d</fix>
</trkpt>
<trkpt lat="40.0713749" lon="-105.229789">
  <ele>1583.0</ele>
  <time>2026-08-28T17:49:30Z</time>
  <course>0.0</course>
  <speed>0.0</speed>
  <fix>3d</fix>
</trkpt>
<trkpt lat="40.071375" lon="-105.229789">
  <ele>1583.01</ele>
  <time>2026-08-28T17:49:30Z</time>
  <course>247.43</course>
  <speed>0.02</speed>
  <fix>3d</fix>
</trkpt>
<trkpt lat="40.0713749" lon="-105.229789">
  <ele>1583.0</ele>
  <time>2026-08-28T17:49:30Z</time>
  <course>0.0</course>
  <speed>0.0</speed>
  <fix>3d</fix>
</trkpt>
<trkpt lat="40.071375" lon="-105.229789">
  <ele>1583.01</ele>
  <time>2026-08-28T17:49:30Z</time>
  <course>247.42</course>
  <speed>0.02</speed>
  <fix>3d</fix>
</trkpt>
<trkpt lat="40.0713749" lon="-105.229789">
  <ele>1583.0</ele>
  <time>2026-08-28T17:49:30Z</time>
  <course>0.0</course>
  <speed>0.0</speed>
  <fix>3d</fix>
</trkpt>
<trkpt lat="40.071375" lon="-105.229789">
  <ele>1583.01</ele>
  <time>2026-08-28T17:49:30Z</time>
  <course>247.42</course>
  <speed>0.02</speed>
  <fix>3d</fix>
</trkpt>
<trkpt lat="40.0713749" lon="-105.229789">
  <ele>1583.0</ele>
  <time>2026-08-28T17:49:30Z</time>
  <course>0.0</course>
  <speed>0.0</speed>
  <fix>3d</fix>
</trkpt>
<trkpt lat="40.071375" lon="-105.229789">
  <ele>1583.02</ele>
  <time>2026-08-28T17:49:30Z</time>
  <course>247.42</course>
  <speed>0.02</speed>
  <fix>3d</fix>
</trkpt>
<trkpt lat="40.0713749" lon="-105.229789">
  <ele>1583.0</ele>
  <time>2026-08-28T17:49:30Z</time>
  <course>0.0</course>
  <speed>0.0</speed>
  <fix>3d</fix>
</trkpt>
<trkpt lat="40.071375" lon="-105.229789">
  <ele>1583.01</ele>
  <time>2026-08-28T17:49:30Z</time>
  <course>247.42</course>
  <speed>0.02</speed>
  <fix>3d</fix>
</trkpt>
<trkpt lat="40.0713749" lon="-105.229789">
  <ele>1583.0</ele>
  <time>2026-08-28T17:49:30Z</time>
  <course>0.0</course>
  <speed>0.0</speed>
  <fix>3d</fix>
</trkpt>
<trkpt lat="40.071375" lon="-105.229789">
  <ele>1583.01</ele>
  <time>2026-08-28T17:49:30Z</time>
  <course>247.42</course>
  <speed>0.02</speed>
  <fix>3d</fix>
</trkpt>
<trkpt lat="40.0713749" lon="-105.229789">
  <ele>1583.0</ele>
  <time>2026-08-28T17:49:30Z</time>
  <course>0.0</course>
  <speed>0.0</speed>
  <fix>3d</fix>
</trkpt>
<trkpt lat="40.071375" lon="-105.229789">
  <ele>1583.01</ele>
  <time>2026-08-28T17:49:30Z</time>
  <course>247.41</course>
  <speed>0.02</speed>
  <fix>3d</fix>
</trkpt>
<trkpt lat="40.0713749" lon="-105.229789">
  <ele>1583.0</ele>
  <time>2026-08-28T17:49:30Z</time>
  <course>0.0</course>
  <speed>0.0</speed>
  <fix>3d</fix>
</trkpt>
<trkpt lat="40.071375" lon="-105.229789">
  <ele>1583.01</ele>
  <time>2026-08-28T17:49:30Z</time>
  <course>247.41</course>
  <speed>0.02</speed>
  <fix>3d</fix>
</trkpt>
<trkpt lat="40.0713749" lon="-105.229789">
  <ele>1583.0</ele>
  <time>2026-08-28T17:49:30Z</time>
  <course>0.0</course>
  <speed>0.0</speed>
  <fix>3d</fix>
</trkpt>
<trkpt lat="40.071375" lon="-105.229789">
  <ele>1583.01</ele>
  <time>2026-08-28T17:49:30Z</time>
  <course>247.41</course>
  <speed>0.02</speed>
  <fix>3d</fix>
</trkpt>
<trkpt lat="40.0713749" lon="-105.229789">
  <ele>1583.0</ele>
  <time>2026-08-28T17:49:30Z</time>
  <course>0.0</course>
  <speed>0.0</speed>
  <fix>3d</fix>
</trkpt>
<trkpt lat="40.071375" lon="-105.229789">
  <ele>1583.01</ele>
  <time>2026-08-28T17:49:30Z</time>
  <course>247.41</course>
  <speed>0.02</speed>
  <fix>3d</fix>
</trkpt>
<trkpt lat="40.0713749" lon="-105.229789">
  <ele>1583.0</ele>
  <time>2026-08-28T17:49:30Z</time>
  <course>0.0</course>
  <speed>0.0</speed>
  <fix>3d</fix>
</trkpt>
<trkpt lat="40.071375" lon="-105.229789">
  <ele>1583.02</ele>
  <time>2026-08-28T17:49:30Z</time>
  <course>247.41</course>
  <speed>0.02</speed>
  <fix>3d</fix>
</trkpt>
<trkpt lat="40.0713749" lon="-105.229789">
  <ele>1583.0</ele>
  <time>2026-08-28T17:49:30Z</time>
  <course>0.0</course>
  <speed>0.0</speed>
  <fix>3d</fix>
</trkpt>
<trkpt lat="40.071375" lon="-105.229789">
  <ele>1583.02</ele>
  <time>2026-08-28T17:49:30Z</time>
  <course>247.4</course>
  <speed>0.02</speed>
  <fix>3d</fix>
</trkpt>
<trkpt lat="40.0713749" lon="-105.229789">
  <ele>1583.0</ele>
  <time>2026-08-28T17:49:30Z</time>
  <course>0.0</course>
  <speed>0.0</speed>
  <fix>3d</fix>
</trkpt>
<trkpt lat="40.071375" lon="-105.229789">
  <ele>1583.02</ele>
  <time>2026-08-28T17:49:30Z</time>
  <course>247.4</course>
  <speed>0.02</speed>
  <fix>3d</fix>
</trkpt>
<trkpt lat="40.0713749" lon="-105.229789">
  <ele>1583.0</ele>
  <time>2026-08-28T17:49:30Z</time>
  <course>0.0</course>
  <speed>0.0</speed>
  <fix>3d</fix>
</trkpt>
<trkpt lat="40.071375" lon="-105.229789">
  <ele>1583.02</ele>
  <time>2026-08-28T17:49:30Z</time>
  <course>247.4</course>
  <speed>0.02</speed>
  <fix>3d</fix>
</trkpt>
<trkpt lat="40.0713749" lon="-105.229789">
  <ele>1583.0</ele>
  <time>2026-08-28T17:49:30Z</time>
  <course>0.0</course>
  <speed>0.0</speed>
  <fix>3d</fix>
</trkpt>
<trkpt lat="40.071375" lon="-105.229789">
  <ele>1583.02</ele>
  <time>2026-08-28T17:49:30Z</time>
  <course>247.4</course>
  <speed>0.02</speed>
  <fix>3d</fix>
</trkpt>
<trkpt lat="40.0713749" lon="-105.229789">
  <ele>1583.0</ele>
  <time>2026-08-28T17:49:30Z</time>
  <course>0.0</course>
  <speed>0.0</speed>
  <fix>3d</fix>
</trkpt>
<trkpt lat="40.071375" lon="-105.229789">
  <ele>1583.02</ele>
  <time>2026-08-28T17:49:30Z</time>
  <course>247.4</course>
  <speed>0.02</speed>
  <fix>3d</fix>
</trkpt>
<trkpt lat="40.0713749" lon="-105.229789">
  <ele>1583.0</ele>
  <time>2026-08-28T17:49:30Z</time>
  <course>0.0</course>
  <speed>0.0</speed>
  <fix>3d</fix>
</trkpt>
<trkpt lat="40.071375" lon="-105.229789">
  <ele>1583.02</ele>
  <time>2026-08-28T17:49:30Z</time>
  <course>247.39</course>
  <speed>0.02</speed>
  <fix>3d</fix>
</trkpt>
<trkpt lat="40.0713749" lon="-105.229789">
  <ele>1583.0</ele>
  <time>2026-08-28T17:49:30Z</time>
  <course>0.0</course>
  <speed>0.0</speed>
  <fix>3d</fix>
</trkpt>
<trkpt lat="40.071375" lon="-105.229789">
  <ele>1583.03</ele>
  <time>2026-08-28T17:49:30Z</time>
  <course>247.39</course>
  <speed>0.01</speed>
  <fix>3d</fix>
</trkpt>
<trkpt lat="40.0713749" lon="-105.229789">
  <ele>1583.0</ele>
  <time>2026-08-28T17:49:30Z</time>
  <course>0.0</course>
  <speed>0.0</speed>
  <fix>3d</fix>
</trkpt>
<trkpt lat="40.071375" lon="-105.229789">
  <ele>1583.03</ele>
  <time>2026-08-28T17:49:30Z</time>
  <course>247.39</course>
  <speed>0.02</speed>
  <fix>3d</fix>
</trkpt>
<trkpt lat="40.0713749" lon="-105.229789">
  <ele>1583.0</ele>
  <time>2026-08-28T17:49:30Z</time>
  <course>0.0</course>
  <speed>0.0</speed>
  <fix>3d</fix>
</trkpt>
<trkpt lat="40.071375" lon="-105.229789">
  <ele>1583.03</ele>
  <time>2026-08-28T17:49:30Z</time>
  <course>247.39</course>
  <speed>0.02</speed>
  <fix>3d</fix>
</trkpt>
<trkpt lat="40.0713749" lon="-105.229789">
  <ele>1583.0</ele>
  <time>2026-08-28T17:49:30Z</time>
  <course>0.0</course>
  <speed>0.0</speed>
  <fix>3d</fix>
</trkpt>
<trkpt lat="40.071375" lon="-105.229789">
  <ele>1583.03</ele>
  <time>2026-08-28T17:49:30Z</time>
  <course>247.39</course>
  <speed>0.02</speed>
  <fix>3d</fix>
</trkpt>
<trkpt lat="40.0713749" lon="-105.229789">
  <ele>1583.0</ele>
  <time>2026-08-28T17:49:30Z</time>
  <course>0.0</course>
  <speed>0.0</speed>
  <fix>3d</fix>
</trkpt>
<trkpt lat="40.071375" lon="-105.229789">
  <ele>1583.04</ele>
  <time>2026-08-28T17:49:30Z</time>
  <course>247.38</course>
  <speed>0.02</speed>
  <fix>3d</fix>
</trkpt>
<trkpt lat="40.0713749" lon="-105.229789">
  <ele>1583.0</ele>
  <time>2026-08-28T17:49:30Z</time>
  <course>0.0</course>
  <speed>0.0</speed>
  <fix>3d</fix>
</trkpt>
<trkpt lat="40.071375" lon="-105.229789">
  <ele>1583.04</ele>
  <time>2026-08-28T17:49:30Z</time>
  <course>247.38</course>
  <speed>0.02</speed>
  <fix>3d</fix>
</trkpt>
<trkpt lat="40.0713749" lon="-105.229789">
  <ele>1583.0</ele>
  <time>2026-08-28T17:49:30Z</time>
  <course>0.0</course>
  <speed>0.0</speed>
  <fix>3d</fix>
</trkpt>
<trkpt lat="40.071375" lon="-105.229789">
  <ele>1583.05</ele>
  <time>2026-08-28T17:49:30Z</time>
  <course>247.38</course>
  <speed>0.02</speed>
  <fix>3d</fix>
</trkpt>
<trkpt lat="40.0713749" lon="-105.229789">
  <ele>1583.0</ele>
  <time>2026-08-28T17:49:30Z</time>
  <course>0.0</course>
  <speed>0.0</speed>
  <fix>3d</fix>
</trkpt>
<trkpt lat="40.071375" lon="-105.229789">
  <ele>1583.05</ele>
  <time>2026-08-28T17:49:30Z</time>
  <course>247.38</course>
  <speed>0.02</speed>
  <fix>3d</fix>
</trkpt>
<trkpt lat="40.0713749" lon="-105.229789">
  <ele>1583.0</ele>
  <time>2026-08-28T17:49:30Z</time>
  <course>0.0</course>
  <speed>0.0</speed>
  <fix>3d</fix>
</trkpt>
<trkpt lat="40.071375" lon="-105.229789">
  <ele>1583.05</ele>
  <time>2026-08-28T17:49:30Z</time>
  <course>247.38</course>
  <speed>0.02</speed>
  <fix>3d</fix>
</trkpt>
<trkpt lat="40.0713749" lon="-105.229789">
  <ele>1583.0</ele>
  <time>2026-08-28T17:49:30Z</time>
  <course>0.0</course>
  <speed>0.0</speed>
  <fix>3d</fix>
</trkpt>
<trkpt lat="40.071375" lon="-105.229789">
  <ele>1583.05</ele>
  <time>2026-08-28T17:49:30Z</time>
  <course>247.38</course>
  <speed>0.02</speed>
  <fix>3d</fix>
</trkpt>
<trkpt lat="40.0713749" lon="-105.229789">
  <ele>1583.0</ele>
  <time>2026-08-28T17:49:30Z</time>
  <course>0.0</course>
  <speed>0.0</speed>
  <fix>3d</fix>
</trkpt>
<trkpt lat="40.071375" lon="-105.229789">
  <ele>1583.05</ele>
  <time>2026-08-28T17:49:30Z</time>
  <course>247.37</course>
  <speed>0.02</speed>
  <fix>3d</fix>
</trkpt>
<trkpt lat="40.0713749" lon="-105.229789">
  <ele>1583.0</ele>
  <time>2026-08-28T17:49:30Z</time>
  <course>0.0</course>
  <speed>0.0</speed>
  <fix>3d</fix>
</trkpt>
<trkpt lat="40.071375" lon="-105.229789">
  <ele>1583.06</ele>
  <time>2026-08-28T17:49:30Z</time>
  <course>247.37</course>
  <speed>0.02</speed>
  <fix>3d</fix>
</trkpt>
<trkpt lat="40.0713749" lon="-105.229789">
  <ele>1583.0</ele>
  <time>2026-08-28T17:49:30Z</time>
  <course>0.0</course>
  <speed>0.0</speed>
  <fix>3d</fix>
</trkpt>
<trkpt lat="40.071375" lon="-105.229789">
  <ele>1583.06</ele>
  <time>2026-08-28T17:49:30Z</time>
  <course>247.37</course>
  <speed>0.02</speed>
  <fix>3d</fix>
</trkpt>
<trkpt lat="40.0713749" lon="-105.229789">
  <ele>1583.0</ele>
  <time>2026-08-28T17:49:30Z</time>
  <course>0.0</course>
  <speed>0.0</speed>
  <fix>3d</fix>
</trkpt>
<trkpt lat="40.071375" lon="-105.229789">
  <ele>1583.06</ele>
  <time>2026-08-28T17:49:30Z</time>
  <course>247.37</course>
  <speed>0.02</speed>
  <fix>3d</fix>
</trkpt>
<trkpt lat="40.0713749" lon="-105.229789">
  <ele>1583.0</ele>
  <time>2026-08-28T17:49:30Z</time>
  <course>0.0</course>
  <speed>0.0</speed>
  <fix>3d</fix>
</trkpt>
<trkpt lat="40.071375" lon="-105.229789">
  <ele>1583.06</ele>
  <time>2026-08-28T17:49:30Z</time>
  <course>247.37</course>
  <speed>0.02</speed>
  <fix>3d</fix>
</trkpt>
<trkpt lat="40.0713749" lon="-105.229789">
  <ele>1583.0</ele>
  <time>2026-08-28T17:49:30Z</time>
  <course>0.0</course>
  <speed>0.0</speed>
  <fix>3d</fix>
</trkpt>
<trkpt lat="40.071375" lon="-105.229789">
  <ele>1583.06</ele>
  <time>2026-08-28T17:49:30Z</time>
  <course>247.37</course>
  <speed>0.02</speed>
  <fix>3d</fix>
</trkpt>
<trkpt lat="40.0713749" lon="-105.229789">
  <ele>1583.0</ele>
  <time>2026-08-28T17:49:30Z</time>
  <course>0.0</course>
  <speed>0.0</speed>
  <fix>3d</fix>
</trkpt>
<trkpt lat="40.071375" lon="-105.229789">
  <ele>1583.06</ele>
  <time>2026-08-28T17:49:30Z</time>
  <course>247.36</course>
  <speed>0.02</speed>
  <fix>3d</fix>
</trkpt>
<trkpt lat="40.0713749" lon="-105.229789">
  <ele>1583.0</ele>
  <time>2026-08-28T17:49:30Z</time>
  <course>0.0</course>
  <speed>0.0</speed>
  <fix>3d</fix>
</trkpt>
<trkpt lat="40.071375" lon="-105.229789">
  <ele>1583.06</ele>
  <time>2026-08-28T17:49:30Z</time>
  <course>247.36</course>
  <speed>0.02</speed>
  <fix>3d</fix>
</trkpt>
<trkpt lat="40.0713749" lon="-105.229789">
  <ele>1583.0</ele>
  <time>2026-08-28T17:49:30Z</time>
  <course>0.0</course>
  <speed>0.0</speed>
  <fix>3d</fix>
</trkpt>
<trkpt lat="40.071375" lon="-105.229789">
  <ele>1583.06</ele>
  <time>2026-08-28T17:49:30Z</time>
  <course>247.36</course>
  <speed>0.02</speed>
  <fix>3d</fix>
</trkpt>
<trkpt lat="40.0713749" lon="-105.229789">
  <ele>1583.0</ele>
  <time>2026-08-28T17:49:30Z</time>
  <course>0.0</course>
  <speed>0.0</speed>
  <fix>3d</fix>
</trkpt>
<trkpt lat="40.071375" lon="-105.229789">
  <ele>1583.06</ele>
  <time>2026-08-28T17:49:30Z</time>
  <course>247.36</course>
  <speed>0.02</speed>
  <fix>3d</fix>
</trkpt>
<trkpt lat="40.0713749" lon="-105.229789">
  <ele>1583.0</ele>
  <time>2026-08-28T17:49:30Z</time>
  <course>0.0</course>
  <speed>0.0</speed>
  <fix>3d</fix>
</trkpt>
<trkpt lat="40.071375" lon="-105.229789">
  <ele>1583.06</ele>
  <time>2026-08-28T17:49:30Z</time>
  <course>247.36</course>
  <speed>0.02</speed>
  <fix>3d</fix>
</trkpt>
<trkpt lat="40.0713749" lon="-105.229789">
  <ele>1583.0</ele>
  <time>2026-08-28T17:49:30Z</time>
  <course>0.0</course>
  <speed>0.0</speed>
  <fix>3d</fix>
</trkpt>
<trkpt lat="40.071375" lon="-105.229789">
  <ele>1583.05</ele>
  <time>2026-08-28T17:49:30Z</time>
  <course>247.35</course>
  <speed>0.02</speed>
  <fix>3d</fix>
</trkpt>
<trkpt lat="40.0713749" lon="-105.229789">
  <ele>1583.0</ele>
  <time>2026-08-28T17:49:30Z</time>
  <course>0.0</course>
  <speed>0.0</speed>
  <fix>3d</fix>
</trkpt>
<trkpt lat="40.071375" lon="-105.229789">
  <ele>1583.05</ele>
  <time>2026-08-28T17:49:30Z</time>
  <course>247.35</course>
  <speed>0.02</speed>
  <fix>3d</fix>
</trkpt>
<trkpt lat="40.0713749" lon="-105.229789">
  <ele>1583.0</ele>
  <time>2026-08-28T17:49:30Z</time>
  <course>0.0</course>
  <speed>0.0</speed>
  <fix>3d</fix>
</trkpt>
<trkpt lat="40.071375" lon="-105.229789">
  <ele>1583.04</ele>
  <time>2026-08-28T17:49:30Z</time>
  <course>247.35</course>
  <speed>0.02</speed>
  <fix>3d</fix>
</trkpt>
<trkpt lat="40.0713749" lon="-105.229789">
  <ele>1583.0</ele>
  <time>2026-08-28T17:49:30Z</time>
  <course>0.0</course>
  <speed>0.0</speed>
  <fix>3d</fix>
</trkpt>
<trkpt lat="40.071375" lon="-105.229789">
  <ele>1583.03</ele>
  <time>2026-08-28T17:49:30Z</time>
  <course>247.34</course>
  <speed>0.02</speed>
  <fix>3d</fix>
</trkpt>
<trkpt lat="40.0713749" lon="-105.229789">
  <ele>1583.0</ele>
  <time>2026-08-28T17:49:30Z</time>
  <course>0.0</course>
  <speed>0.0</speed>
  <fix>3d</fix>
</trkpt>
<trkpt lat="40.071375" lon="-105.229789">
  <ele>1583.02</ele>
  <time>2026-08-28T17:49:30Z</time>
  <course>247.34</course>
  <speed>0.02</speed>
  <fix>3d</fix>
</trkpt>
<trkpt lat="40.0713749" lon="-105.229789">
  <ele>1583.0</ele>
  <time>2026-08-28T17:49:30Z</time>
  <course>0.0</course>
  <speed>0.0</speed>
  <fix>3d</fix>
</trkpt>
<trkpt lat="40.071375" lon="-105.229789">
  <ele>1583.02</ele>
  <time>2026-08-28T17:49:30Z</time>
  <course>247.34</course>
  <speed>0.02</speed>
  <fix>3d</fix>
</trkpt>
<trkpt lat="40.0713749" lon="-105.229789">
  <ele>1583.0</ele>
  <time>2026-08-28T17:49:30Z</time>
  <course>0.0</course>
  <speed>0.0</speed>
  <fix>3d</fix>
</trkpt>
<trkpt lat="40.071375" lon="-105.229789">
  <ele>1583.01</ele>
  <time>2026-08-28T17:49:30Z</time>
  <course>247.34</course>
  <speed>0.02</speed>
  <fix>3d</fix>
</trkpt>
<trkpt lat="40.0713749" lon="-105.229789">
  <ele>1583.0</ele>
  <time>2026-08-28T17:49:30Z</time>
  <course>0.0</course>
  <speed>0.0</speed>
  <fix>3d</fix>
</trkpt>
<trkpt lat="40.071375" lon="-105.229789">
  <ele>1583.01</ele>
  <time>2026-08-28T17:49:30Z</time>
  <course>247.33</course>
  <speed>0.02</speed>
  <fix>3d</fix>
</trkpt>
<trkpt lat="40.0713749" lon="-105.229789">
  <ele>1583.0</ele>
  <time>2026-08-28T17:49:30Z</time>
  <course>0.0</course>
  <speed>0.0</speed>
  <fix>3d</fix>
</trkpt>
<trkpt lat="40.071375" lon="-105.229789">
  <ele>1583.01</ele>
  <time>2026-08-28T17:49:30Z</time>
  <course>247.33</course>
  <speed>0.02</speed>
  <fix>3d</fix>
</trkpt>
<trkpt lat="40.0713749" lon="-105.229789">
  <ele>1583.0</ele>
  <time>2026-08-28T17:49:30Z</time>
  <course>0.0</course>
  <speed>0.0</speed>
  <fix>3d</fix>
</trkpt>
<trkpt lat="40.071375" lon="-105.229789">
  <ele>1583.01</ele>
  <time>2026-08-28T17:49:30Z</time>
  <course>247.33</course>
  <speed>0.02</speed>
  <fix>3d</fix>
</trkpt>
<trkpt lat="40.0713749" lon="-105.229789">
  <ele>1583.0</ele>
  <time>2026-08-28T17:49:30Z</time>
  <course>0.0</course>
  <speed>0.0</speed>
  <fix>3d</fix>
</trkpt>
<trkpt lat="40.071375" lon="-105.229789">
  <ele>1583.01</ele>
  <time>2026-08-28T17:49:30Z</time>
  <course>247.33</course>
  <speed>0.02</speed>
  <fix>3d</fix>
</trkpt>
<trkpt lat="40.0713749" lon="-105.229789">
  <ele>1583.0</ele>
  <time>2026-08-28T17:49:30Z</time>
  <course>0.0</course>
  <speed>0.0</speed>
  <fix>3d</fix>
</trkpt>
<trkpt lat="40.071375" lon="-105.229789">
  <ele>1583.01</ele>
  <time>2026-08-28T17:49:30Z</time>
  <course>247.33</course>
  <speed>0.02</speed>
  <fix>3d</fix>
</trkpt>
<trkpt lat="40.0713749" lon="-105.229789">
  <ele>1583.0</ele>
  <time>2026-08-28T17:49:30Z</time>
  <course>0.0</course>
  <speed>0.0</speed>
  <fix>3d</fix>
</trkpt>
<trkpt lat="40.071375" lon="-105.229789">
  <ele>1583.01</ele>
  <time>2026-08-28T17:49:30Z</time>
  <course>247.33</course>
  <speed>0.02</speed>
  <fix>3d</fix>
</trkpt>
<trkpt lat="40.0713749" lon="-105.229789">
  <ele>1583.0</ele>
  <time>2026-08-28T17:49:30Z</time>
  <course>0.0</course>
  <speed>0.0</speed>
  <fix>3d</fix>
</trkpt>
<trkpt lat="40.071375" lon="-105.229789">
  <ele>1583.01</ele>
  <time>2026-08-28T17:49:30Z</time>
  <course>247.32</course>
  <speed>0.02</speed>
  <fix>3d</fix>
</trkpt>
<trkpt lat="40.0713749" lon="-105.229789">
  <ele>1583.0</ele>
  <time>2026-08-28T17:49:30Z</time>
  <course>0.0</course>
  <speed>0.0</speed>
  <fix>3d</fix>
</trkpt>
<trkpt lat="40.071375" lon="-105.229789">
  <ele>1583.0</ele>
  <time>2026-08-28T17:49:30Z</time>
  <course>247.32</course>
  <speed>0.02</speed>
  <fix>3d</fix>
</trkpt>
<trkpt lat="40.0713749" lon="-105.229789">
  <ele>1583.0</ele>
  <time>2026-08-28T17:49:30Z</time>
  <course>0.0</course>
  <speed>0.0</speed>
  <fix>3d</fix>
</trkpt>
<trkpt lat="40.071375" lon="-105.229789">
  <ele>1583.0</ele>
  <time>2026-08-28T17:49:30Z</time>
  <course>247.32</course>
  <speed>0.02</speed>
  <fix>3d</fix>
</trkpt>
<trkpt lat="40.0713749" lon="-105.229789">
  <ele>1583.0</ele>
  <time>2026-08-28T17:49:30Z</time>
  <course>0.0</course>
  <speed>0.0</speed>
  <fix>3d</fix>
</trkpt>
<trkpt lat="40.071375" lon="-105.229789">
  <ele>1583.0</ele>
  <time>2026-08-28T17:49:30Z</time>
  <course>247.32</course>
  <speed>0.02</speed>
  <fix>3d</fix>
</trkpt>
<trkpt lat="40.0713749" lon="-105.229789">
  <ele>1583.0</ele>
  <time>2026-08-28T17:49:30Z</time>
  <course>0.0</course>
  <speed>0.0</speed>
  <fix>3d</fix>
</trkpt>
<trkpt lat="40.071375" lon="-105.229789">
  <ele>1582.99</ele>
  <time>2026-08-28T17:49:30Z</time>
  <course>247.32</course>
  <speed>0.02</speed>
  <fix>3d</fix>
</trkpt>
<trkpt lat="40.0713749" lon="-105.229789">
  <ele>1583.0</ele>
  <time>2026-08-28T17:49:30Z</time>
  <course>0.0</course>
  <speed>0.0</speed>
  <fix>3d</fix>
</trkpt>
<trkpt lat="40.071375" lon="-105.229789">
  <ele>1582.99</ele>
  <time>2026-08-28T17:49:30Z</time>
  <course>247.32</course>
  <speed>0.02</speed>
  <fix>3d</fix>
</trkpt>
<trkpt lat="40.0713749" lon="-105.229789">
  <ele>1583.0</ele>
  <time>2026-08-28T17:49:30Z</time>
  <course>0.0</course>
  <speed>0.0</speed>
  <fix>3d</fix>
</trkpt>
<trkpt lat="40.071375" lon="-105.229789">
  <ele>1582.98</ele>
  <time>2026-08-28T17:49:30Z</time>
  <course>247.31</course>
  <speed>0.02</speed>
  <fix>3d</fix>
</trkpt>
<trkpt lat="40.0713749" lon="-105.229789">
  <ele>1583.0</ele>
  <time>2026-08-28T17:49:30Z</time>
  <course>0.0</course>
  <speed>0.0</speed>
  <fix>3d</fix>
</trkpt>
<trkpt lat="40.071375" lon="-105.229789">
  <ele>1582.97</ele>
  <time>2026-08-28T17:49:30Z</time>
  <course>247.31</course>
  <speed>0.02</speed>
  <fix>3d</fix>
</trkpt>
<trkpt lat="40.0713749" lon="-105.229789">
  <ele>1583.0</ele>
  <time>2026-08-28T17:49:30Z</time>
  <course>0.0</course>
  <speed>0.0</speed>
  <fix>3d</fix>
</trkpt>
<trkpt lat="40.071375" lon="-105.229789">
  <ele>1582.97</ele>
  <time>2026-08-28T17:49:30Z</time>
  <course>247.31</course>
  <speed>0.02</speed>
  <fix>3d</fix>
</trkpt>
<trkpt lat="40.0713749" lon="-105.229789">
  <ele>1583.0</ele>
  <time>2026-08-28T17:49:30Z</time>
  <course>0.0</course>
  <speed>0.0</speed>
  <fix>3d</fix>
</trkpt>
<trkpt lat="40.071375" lon="-105.229789">
  <ele>1582.96</ele>
  <time>2026-08-28T17:49:30Z</time>
  <course>247.31</course>
  <speed>0.02</speed>
  <fix>3d</fix>
</trkpt>
<trkpt lat="40.0713749" lon="-105.229789">
  <ele>1583.0</ele>
  <time>2026-08-28T17:49:30Z</time>
  <course>0.0</course>
  <speed>0.0</speed>
  <fix>3d</fix>
</trkpt>
<trkpt lat="40.071375" lon="-105.229789">
  <ele>1582.96</ele>
  <time>2026-08-28T17:49:30Z</time>
  <course>247.31</course>
  <speed>0.02</speed>
  <fix>3d</fix>
</trkpt>
<trkpt lat="40.0713749" lon="-105.229789">
  <ele>1583.0</ele>
  <time>2026-08-28T17:49:30Z</time>
  <course>0.0</course>
  <speed>0.0</speed>
  <fix>3d</fix>
</trkpt>
<trkpt lat="40.071375" lon="-105.229789">
  <ele>1582.95</ele>
  <time>2026-08-28T17:49:30Z</time>
  <course>247.31</course>
  <speed>0.02</speed>
  <fix>3d</fix>
</trkpt>
<trkpt lat="40.0713749" lon="-105.229789">
  <ele>1583.0</ele>
  <time>2026-08-28T17:49:30Z</time>
  <course>0.0</course>
  <speed>0.0</speed>
  <fix>3d</fix>
</trkpt>
<trkpt lat="40.071375" lon="-105.229789">
  <ele>1582.95</ele>
  <time>2026-08-28T17:49:30Z</time>
  <course>247.3</course>
  <speed>0.02</speed>
  <fix>3d</fix>
</trkpt>
<trkpt lat="40.0713749" lon="-105.229789">
  <ele>1583.0</ele>
  <time>2026-08-28T17:49:30Z</time>
  <course>0.0</course>
  <speed>0.0</speed>
  <fix>3d</fix>
</trkpt>
<trkpt lat="40.071375" lon="-105.229789">
  <ele>1582.94</ele>
  <time>2026-08-28T17:49:30Z</time>
  <course>247.3</course>
  <speed>0.02</speed>
  <fix>3d</fix>
</trkpt>
<trkpt lat="40.0713749" lon="-105.229789">
  <ele>1583.0</ele>
  <time>2026-08-28T17:49:30Z</time>
  <course>0.0</course>
  <speed>0.0</speed>
  <fix>3d</fix>
</trkpt>
<trkpt lat="40.071375" lon="-105.229789">
  <ele>1582.93</ele>
  <time>2026-08-28T17:49:30Z</time>
  <course>247.3</course>
  <speed>0.02</speed>
  <fix>3d</fix>
</trkpt>
<trkpt lat="40.0713749" lon="-105.229789">
  <ele>1583.0</ele>
  <time>2026-08-28T17:49:30Z</time>
  <course>0.0</course>
  <speed>0.0</speed>
  <fix>3d</fix>
</trkpt>
<trkpt lat="40.071375" lon="-105.229789">
  <ele>1582.93</ele>
  <time>2026-08-28T17:49:30Z</time>
  <course>247.3</course>
  <speed>0.02</speed>
  <fix>3d</fix>
</trkpt>
<trkpt lat="40.0713749" lon="-105.229789">
  <ele>1583.0</ele>
  <time>2026-08-28T17:49:30Z</time>
  <course>0.0</course>
  <speed>0.0</speed>
  <fix>3d</fix>
</trkpt>
<trkpt lat="40.071375" lon="-105.229789">
  <ele>1582.92</ele>
  <time>2026-08-28T17:49:30Z</time>
  <course>247.3</course>
  <speed>0.02</speed>
  <fix>3d</fix>
</trkpt>
<trkpt lat="40.0713749" lon="-105.229789">
  <ele>1583.0</ele>
  <time>2026-08-28T17:49:30Z</time>
  <course>0.0</course>
  <speed>0.0</speed>
  <fix>3d</fix>
</trkpt>
<trkpt lat="40.071375" lon="-105.229789">
  <ele>1582.92</ele>
  <time>2026-08-28T17:49:30Z</time>
  <course>247.3</course>
  <speed>0.02</speed>
  <fix>3d</fix>
</trkpt>
<trkpt lat="40.0713749" lon="-105.229789">
  <ele>1583.0</ele>
  <time>2026-08-28T17:49:30Z</time>
  <course>0.0</course>
  <speed>0.0</speed>
  <fix>3d</fix>
</trkpt>
<trkpt lat="40.071375" lon="-105.229789">
  <ele>1582.91</ele>
  <time>2026-08-28T17:49:30Z</time>
  <course>247.3</course>
  <speed>0.02</speed>
  <fix>3d</fix>
</trkpt>
<trkpt lat="40.0713749" lon="-105.229789">
  <ele>1583.0</ele>
  <time>2026-08-28T17:49:30Z</time>
  <course>0.0</course>
  <speed>0.0</speed>
  <fix>3d</fix>
</trkpt>
<trkpt lat="40.071375" lon="-105.229789">
  <ele>1582.91</ele>
  <time>2026-08-28T17:49:30Z</time>
  <course>247.3</course>
  <speed>0.02</speed>
  <fix>3d</fix>
</trkpt>
<trkpt lat="40.0713749" lon="-105.229789">
  <ele>1583.0</ele>
  <time>2026-08-28T17:49:30Z</time>
  <course>0.0</course>
  <speed>0.0</speed>
  <fix>3d</fix>
</trkpt>
<trkpt lat="40.071375" lon="-105.229789">
  <ele>1582.91</ele>
  <time>2026-08-28T17:49:30Z</time>
  <course>247.29</course>
  <speed>0.02</speed>
  <fix>3d</fix>
</trkpt>
<trkpt lat="40.0713749" lon="-105.229789">
  <ele>1583.0</ele>
  <time>2026-08-28T17:49:30Z</time>
  <course>0.0</course>
  <speed>0.0</speed>
  <fix>3d</fix>
</trkpt>
<trkpt lat="40.071375" lon="-105.229789">
  <ele>1582.91</ele>
  <time>2026-08-28T17:49:30Z</time>
  <course>247.29</course>
  <speed>0.02</speed>
  <fix>3d</fix>
</trkpt>
<trkpt lat="40.0713749" lon="-105.229789">
  <ele>1583.0</ele>
  <time>2026-08-28T17:49:30Z</time>
  <course>0.0</course>
  <speed>0.0</speed>
  <fix>3d</fix>
</trkpt>
<trkpt lat="40.071375" lon="-105.229789">
  <ele>1582.91</ele>
  <time>2026-08-28T17:49:30Z</time>
  <course>247.29</course>
  <speed>0.02</speed>
  <fix>3d</fix>
</trkpt>
<trkpt lat="40.0713749" lon="-105.229789">
  <ele>1583.0</ele>
  <time>2026-08-28T17:49:30Z</time>
  <course>0.0</course>
  <speed>0.0</speed>
  <fix>3d</fix>
</trkpt>
<trkpt lat="40.071375" lon="-105.229789">
  <ele>1582.91</ele>
  <time>2026-08-28T17:49:30Z</time>
  <course>247.29</course>
  <speed>0.02</speed>
  <fix>3d</fix>
</trkpt>
<trkpt lat="40.0713749" lon="-105.229789">
  <ele>1583.0</ele>
  <time>2026-08-28T17:49:30Z</time>
  <course>0.0</course>
  <speed>0.0</speed>
  <fix>3d</fix>
</trkpt>
<trkpt lat="40.071375" lon="-105.229789">
  <ele>1582.9</ele>
  <time>2026-08-28T17:49:30Z</time>
  <course>247.29</course>
  <speed>0.02</speed>
  <fix>3d</fix>
</trkpt>
<trkpt lat="40.0713749" lon="-105.229789">
  <ele>1583.0</ele>
  <time>2026-08-28T17:49:30Z</time>
  <course>0.0</course>
  <speed>0.0</speed>
  <fix>3d</fix>
</trkpt>
<trkpt lat="40.071375" lon="-105.229789">
  <ele>1582.9</ele>
  <time>2026-08-28T17:49:30Z</time>
  <course>247.29</course>
  <speed>0.02</speed>
  <fix>3d</fix>
</trkpt>
<trkpt lat="40.0713749" lon="-105.229789">
  <ele>1583.0</ele>
  <time>2026-08-28T17:49:30Z</time>
  <course>0.0</course>
  <speed>0.0</speed>
  <fix>3d</fix>
</trkpt>
<trkpt lat="40.071375" lon="-105.229789">
  <ele>1582.9</ele>
  <time>2026-08-28T17:49:30Z</time>
  <course>247.29</course>
  <speed>0.02</speed>
  <fix>3d</fix>
</trkpt>
<trkpt lat="40.0713749" lon="-105.229789">
  <ele>1583.0</ele>
  <time>2026-08-28T17:49:30Z</time>
  <course>0.0</course>
  <speed>0.0</speed>
  <fix>3d</fix>
</trkpt>
<trkpt lat="40.071375" lon="-105.229789">
  <ele>1582.9</ele>
  <time>2026-08-28T17:49:30Z</time>
  <course>247.28</course>
  <speed>0.02</speed>
  <fix>3d</fix>
</trkpt>
<trkpt lat="40.0713749" lon="-105.229789">
  <ele>1583.0</ele>
  <time>2026-08-28T17:49:30Z</time>
  <course>0.0</course>
  <speed>0.0</speed>
  <fix>3d</fix>
</trkpt>
<trkpt lat="40.071375" lon="-105.229789">
  <ele>1582.89</ele>
  <time>2026-08-28T17:49:30Z</time>
  <course>247.28</course>
  <speed>0.02</speed>
  <fix>3d</fix>
</trkpt>
<trkpt lat="40.0713749" lon="-105.229789">
  <ele>1583.0</ele>
  <time>2026-08-28T17:49:30Z</time>
  <course>0.0</course>
  <speed>0.0</speed>
  <fix>3d</fix>
</trkpt>
<trkpt lat="40.071375" lon="-105.2297889">
  <ele>1582.9</ele>
  <time>2026-08-28T17:49:30Z</time>
  <course>247.28</course>
  <speed>0.02</speed>
  <fix>3d</fix>
</trkpt>
<trkpt lat="40.0713749" lon="-105.229789">
  <ele>1583.0</ele>
  <time>2026-08-28T17:49:30Z</time>
  <course>0.0</course>
  <speed>0.0</speed>
  <fix>3d</fix>
</trkpt>
<trkpt lat="40.071375" lon="-105.229789">
  <ele>1582.9</ele>
  <time>2026-08-28T17:49:30Z</time>
  <course>247.28</course>
  <speed>0.02</speed>
  <fix>3d</fix>
</trkpt>
<trkpt lat="40.0713749" lon="-105.229789">
  <ele>1583.0</ele>
  <time>2026-08-28T17:49:30Z</time>
  <course>0.0</course>
  <speed>0.0</speed>
  <fix>3d</fix>
</trkpt>
<trkpt lat="40.071375" lon="-105.2297889">
  <ele>1582.9</ele>
  <time>2026-08-28T17:49:30Z</time>
  <course>247.28</course>
  <speed>0.02</speed>
  <fix>3d</fix>
</trkpt>
<trkpt lat="40.0713749" lon="-105.229789">
  <ele>1583.0</ele>
  <time>2026-08-28T17:49:30Z</time>
  <course>0.0</course>
  <speed>0.0</speed>
  <fix>3d</fix>
</trkpt>
<trkpt lat="40.071375" lon="-105.229789">
  <ele>1582.91</ele>
  <time>2026-08-28T17:49:30Z</time>
  <course>247.28</course>
  <speed>0.02</speed>
  <fix>3d</fix>
</trkpt>
<trkpt lat="40.0713749" lon="-105.229789">
  <ele>1583.0</ele>
  <time>2026-08-28T17:49:30Z</time>
  <course>0.0</course>
  <speed>0.0</speed>
  <fix>3d</fix>
</trkpt>
<trkpt lat="40.071375" lon="-105.2297889">
  <ele>1582.92</ele>
  <time>2026-08-28T17:49:30Z</time>
  <course>247.28</course>
  <speed>0.02</speed>
  <fix>3d</fix>
</trkpt>
<trkpt lat="40.0713749" lon="-105.229789">
  <ele>1583.0</ele>
  <time>2026-08-28T17:49:30Z</time>
  <course>0.0</course>
  <speed>0.0</speed>
  <fix>3d</fix>
</trkpt>
<trkpt lat="40.071375" lon="-105.2297889">
  <ele>1582.93</ele>
  <time>2026-08-28T17:49:30Z</time>
  <course>247.27</course>
  <speed>0.02</speed>
  <fix>3d</fix>
</trkpt>
<trkpt lat="40.0713749" lon="-105.229789">
  <ele>1583.0</ele>
  <time>2026-08-28T17:49:30Z</time>
  <course>0.0</course>
  <speed>0.0</speed>
  <fix>3d</fix>
</trkpt>
<trkpt lat="40.071375" lon="-105.2297889">
  <ele>1582.93</ele>
  <time>2026-08-28T17:49:30Z</time>
  <course>247.27</course>
  <speed>0.02</speed>
  <fix>3d</fix>
</trkpt>
<trkpt lat="40.0713749" lon="-105.229789">
  <ele>1583.0</ele>
  <time>2026-08-28T17:49:30Z</time>
  <course>0.0</course>
  <speed>0.0</speed>
  <fix>3d</fix>
</trkpt>
<trkpt lat="40.071375" lon="-105.2297889">
  <ele>1582.94</ele>
  <time>2026-08-28T17:49:30Z</time>
  <course>247.27</course>
  <speed>0.02</speed>
  <fix>3d</fix>
</trkpt>
<trkpt lat="40.0713749" lon="-105.229789">
  <ele>1583.0</ele>
  <time>2026-08-28T17:49:30Z</time>
  <course>0.0</course>
  <speed>0.0</speed>
  <fix>3d</fix>
</trkpt>
<trkpt lat="40.071375" lon="-105.2297889">
  <ele>1582.95</ele>
  <time>2026-08-28T17:49:30Z</time>
  <course>247.27</course>
  <speed>0.02</speed>
  <fix>3d</fix>
</trkpt>
<trkpt lat="40.0713749" lon="-105.229789">
  <ele>1583.0</ele>
  <time>2026-08-28T17:49:30Z</time>
  <course>0.0</course>
  <speed>0.0</speed>
  <fix>3d</fix>
</trkpt>
<trkpt lat="40.071375" lon="-105.2297889">
  <ele>1582.95</ele>
  <time>2026-08-28T17:49:30Z</time>
  <course>247.27</course>
  <speed>0.02</speed>
  <fix>3d</fix>
</trkpt>
<trkpt lat="40.0713749" lon="-105.229789">
  <ele>1583.0</ele>
  <time>2026-08-28T17:49:30Z</time>
  <course>0.0</course>
  <speed>0.0</speed>
  <fix>3d</fix>
</trkpt>
<trkpt lat="40.071375" lon="-105.2297889">
  <ele>1582.96</ele>
  <time>2026-08-28T17:49:30Z</time>
  <course>247.27</course>
  <speed>0.02</speed>
  <fix>3d</fix>
</trkpt>
<trkpt lat="40.0713749" lon="-105.229789">
  <ele>1583.0</ele>
  <time>2026-08-28T17:49:30Z</time>
  <course>0.0</course>
  <speed>0.0</speed>
  <fix>3d</fix>
</trkpt>
<trkpt lat="40.071375" lon="-105.229789">
  <ele>1582.97</ele>
  <time>2026-08-28T17:49:30Z</time>
  <course>247.27</course>
  <speed>0.02</speed>
  <fix>3d</fix>
</trkpt>
<trkpt lat="40.0713749" lon="-105.229789">
  <ele>1583.0</ele>
  <time>2026-08-28T17:49:30Z</time>
  <course>0.0</course>
  <speed>0.0</speed>
  <fix>3d</fix>
</trkpt>
<trkpt lat="40.071375" lon="-105.2297889">
  <ele>1582.97</ele>
  <time>2026-08-28T17:49:30Z</time>
  <course>247.27</course>
  <speed>0.02</speed>
  <fix>3d</fix>
</trkpt>
<trkpt lat="40.0713749" lon="-105.229789">
  <ele>1583.0</ele>
  <time>2026-08-28T17:49:30Z</time>
  <course>0.0</course>
  <speed>0.0</speed>
  <fix>3d</fix>
</trkpt>
<trkpt lat="40.071375" lon="-105.229789">
  <ele>1582.97</ele>
  <time>2026-08-28T17:49:30Z</time>
  <course>247.26</course>
  <speed>0.02</speed>
  <fix>3d</fix>
</trkpt>
<trkpt lat="40.0713749" lon="-105.229789">
  <ele>1583.0</ele>
  <time>2026-08-28T17:49:30Z</time>
  <course>0.0</course>
  <speed>0.0</speed>
  <fix>3d</fix>
</trkpt>
<trkpt lat="40.071375" lon="-105.2297889">
  <ele>1582.97</ele>
  <time>2026-08-28T17:49:30Z</time>
  <course>247.26</course>
  <speed>0.02</speed>
  <fix>3d</fix>
</trkpt>
<trkpt lat="40.0713749" lon="-105.229789">
  <ele>1583.0</ele>
  <time>2026-08-28T17:49:30Z</time>
  <course>0.0</course>
  <speed>0.0</speed>
  <fix>3d</fix>
</trkpt>
<trkpt lat="40.071375" lon="-105.229789">
  <ele>1582.98</ele>
  <time>2026-08-28T17:49:30Z</time>
  <course>247.26</course>
  <speed>0.02</speed>
  <fix>3d</fix>
</trkpt>
<trkpt lat="40.0713749" lon="-105.229789">
  <ele>1583.0</ele>
  <time>2026-08-28T17:49:30Z</time>
  <course>0.0</course>
  <speed>0.0</speed>
  <fix>3d</fix>
</trkpt>
<trkpt lat="40.071375" lon="-105.2297889">
  <ele>1582.98</ele>
  <time>2026-08-28T17:49:30Z</time>
  <course>247.26</course>
  <speed>0.02</speed>
  <fix>3d</fix>
</trkpt>
<trkpt lat="40.0713749" lon="-105.229789">
  <ele>1583.0</ele>
  <time>2026-08-28T17:49:30Z</time>
  <course>0.0</course>
  <speed>0.0</speed>
  <fix>3d</fix>
</trkpt>
<trkpt lat="40.071375" lon="-105.229789">
  <ele>1582.99</ele>
  <time>2026-08-28T17:49:30Z</time>
  <course>247.26</course>
  <speed>0.02</speed>
  <fix>3d</fix>
</trkpt>
<trkpt lat="40.0713749" lon="-105.229789">
  <ele>1583.0</ele>
  <time>2026-08-28T17:49:30Z</time>
  <course>0.0</course>
  <speed>0.0</speed>
  <fix>3d</fix>
</trkpt>
<trkpt lat="40.071375" lon="-105.2297889">
  <ele>1582.99</ele>
  <time>2026-08-28T17:49:30Z</time>
  <course>247.26</course>
  <speed>0.02</speed>
  <fix>3d</fix>
</trkpt>
<trkpt lat="40.0713749" lon="-105.229789">
  <ele>1583.0</ele>
  <time>2026-08-28T17:49:30Z</time>
  <course>0.0</course>
  <speed>0.0</speed>
  <fix>3d</fix>
</trkpt>
<trkpt lat="40.071375" lon="-105.229789">
  <ele>1583.0</ele>
  <time>2026-08-28T17:49:30Z</time>
  <course>247.26</course>
  <speed>0.02</speed>
  <fix>3d</fix>
</trkpt>
<trkpt lat="40.0713749" lon="-105.229789">
  <ele>1583.0</ele>
  <time>2026-08-28T17:49:30Z</time>
  <course>0.0</course>
  <speed>0.0</speed>
  <fix>3d</fix>
</trkpt>
<trkpt lat="40.071375" lon="-105.2297889">
  <ele>1583.0</ele>
  <time>2026-08-28T17:49:30Z</time>
  <course>247.26</course>
  <speed>0.02</speed>
  <fix>3d</fix>
</trkpt>
<trkpt lat="40.0713749" lon="-105.229789">
  <ele>1583.0</ele>
  <time>2026-08-28T17:49:30Z</time>
  <course>0.0</course>
  <speed>0.0</speed>
  <fix>3d</fix>
</trkpt>
<trkpt lat="40.071375" lon="-105.229789">
  <ele>1583.0</ele>
  <time>2026-08-28T17:49:30Z</time>
  <course>247.25</course>
  <speed>0.02</speed>
  <fix>3d</fix>
</trkpt>
<trkpt lat="40.0713749" lon="-105.229789">
  <ele>1583.0</ele>
  <time>2026-08-28T17:49:30Z</time>
  <course>0.0</course>
  <speed>0.0</speed>
  <fix>3d</fix>
</trkpt>
<trkpt lat="40.071375" lon="-105.2297889">
  <ele>1583.0</ele>
  <time>2026-08-28T17:49:30Z</time>
  <course>247.25</course>
  <speed>0.02</speed>
  <fix>3d</fix>
</trkpt>
<trkpt lat="40.0713749" lon="-105.229789">
  <ele>1583.0</ele>
  <time>2026-08-28T17:49:30Z</time>
  <course>0.0</course>
  <speed>0.0</speed>
  <fix>3d</fix>
</trkpt>
<trkpt lat="40.071375" lon="-105.229789">
  <ele>1582.99</ele>
  <time>2026-08-28T17:49:30Z</time>
  <course>247.25</course>
  <speed>0.02</speed>
  <fix>3d</fix>
</trkpt>
<trkpt lat="40.0713749" lon="-105.229789">
  <ele>1583.0</ele>
  <time>2026-08-28T17:49:30Z</time>
  <course>0.0</course>
  <speed>0.0</speed>
  <fix>3d</fix>
</trkpt>
<trkpt lat="40.071375" lon="-105.2297889">
  <ele>1582.99</ele>
  <time>2026-08-28T17:49:30Z</time>
  <course>247.25</course>
  <speed>0.02</speed>
  <fix>3d</fix>
</trkpt>
<trkpt lat="40.0713749" lon="-105.229789">
  <ele>1583.0</ele>
  <time>2026-08-28T17:49:30Z</time>
  <course>0.0</course>
  <speed>0.0</speed>
  <fix>3d</fix>
</trkpt>
<trkpt lat="40.071375" lon="-105.229789">
  <ele>1582.98</ele>
  <time>2026-08-28T17:49:30Z</time>
  <course>247.25</course>
  <speed>0.02</speed>
  <fix>3d</fix>
</trkpt>
<trkpt lat="40.0713749" lon="-105.229789">
  <ele>1583.0</ele>
  <time>2026-08-28T17:49:30Z</time>
  <course>0.0</course>
  <speed>0.0</speed>
  <fix>3d</fix>
</trkpt>
<trkpt lat="40.071375" lon="-105.2297889">
  <ele>1582.97</ele>
  <time>2026-08-28T17:49:30Z</time>
  <course>247.25</course>
  <speed>0.02</speed>
  <fix>3d</fix>
</trkpt>
<trkpt lat="40.0713749" lon="-105.229789">
  <ele>1583.0</ele>
  <time>2026-08-28T17:49:30Z</time>
  <course>0.0</course>
  <speed>0.0</speed>
  <fix>3d</fix>
</trkpt>
<trkpt lat="40.071375" lon="-105.229789">
  <ele>1582.96</ele>
  <time>2026-08-28T17:49:30Z</time>
  <course>247.25</course>
  <speed>0.02</speed>
  <fix>3d</fix>
</trkpt>
<trkpt lat="40.0713749" lon="-105.229789">
  <ele>1583.0</ele>
  <time>2026-08-28T17:49:30Z</time>
  <course>0.0</course>
  <speed>0.0</speed>
  <fix>3d</fix>
</trkpt>
<trkpt lat="40.071375" lon="-105.2297889">
  <ele>1582.96</ele>
  <time>2026-08-28T17:49:30Z</time>
  <course>247.25</course>
  <speed>0.02</speed>
  <fix>3d</fix>
</trkpt>
<trkpt lat="40.0713749" lon="-105.229789">
  <ele>1583.0</ele>
  <time>2026-08-28T17:49:30Z</time>
  <course>0.0</course>
  <speed>0.0</speed>
  <fix>3d</fix>
</trkpt>
<trkpt lat="40.071375" lon="-105.229789">
  <ele>1582.95</ele>
  <time>2026-08-28T17:49:30Z</time>
  <course>247.25</course>
  <speed>0.02</speed>
  <fix>3d</fix>
</trkpt>
<trkpt lat="40.0713749" lon="-105.229789">
  <ele>1583.0</ele>
  <time>2026-08-28T17:49:30Z</time>
  <course>0.0</course>
  <speed>0.0</speed>
  <fix>3d</fix>
</trkpt>
<trkpt lat="40.071375" lon="-105.2297889">
  <ele>1582.95</ele>
  <time>2026-08-28T17:49:30Z</time>
  <course>247.24</course>
  <speed>0.02</speed>
  <fix>3d</fix>
</trkpt>
<trkpt lat="40.0713749" lon="-105.229789">
  <ele>1583.0</ele>
  <time>2026-08-28T17:49:30Z</time>
  <course>0.0</course>
  <speed>0.0</speed>
  <fix>3d</fix>
</trkpt>
<trkpt lat="40.071375" lon="-105.229789">
  <ele>1582.96</ele>
  <time>2026-08-28T17:49:30Z</time>
  <course>247.24</course>
  <speed>0.02</speed>
  <fix>3d</fix>
</trkpt>
<trkpt lat="40.0713749" lon="-105.229789">
  <ele>1583.0</ele>
  <time>2026-08-28T17:49:30Z</time>
  <course>0.0</course>
  <speed>0.0</speed>
  <fix>3d</fix>
</trkpt>
<trkpt lat="40.071375" lon="-105.2297889">
  <ele>1582.96</ele>
  <time>2026-08-28T17:49:30Z</time>
  <course>247.24</course>
  <speed>0.02</speed>
  <fix>3d</fix>
</trkpt>
<trkpt lat="40.0713749" lon="-105.229789">
  <ele>1583.0</ele>
  <time>2026-08-28T17:49:30Z</time>
  <course>0.0</course>
  <speed>0.0</speed>
  <fix>3d</fix>
</trkpt>
<trkpt lat="40.071375" lon="-105.229789">
  <ele>1582.97</ele>
  <time>2026-08-28T17:49:30Z</time>
  <course>247.24</course>
  <speed>0.02</speed>
  <fix>3d</fix>
</trkpt>
<trkpt lat="40.0713749" lon="-105.229789">
  <ele>1583.0</ele>
  <time>2026-08-28T17:49:30Z</time>
  <course>0.0</course>
  <speed>0.0</speed>
  <fix>3d</fix>
</trkpt>
<trkpt lat="40.071375" lon="-105.229789">
  <ele>1582.97</ele>
  <time>2026-08-28T17:49:30Z</time>
  <course>247.24</course>
  <speed>0.02</speed>
  <fix>3d</fix>
</trkpt>
<trkpt lat="40.0713749" lon="-105.229789">
  <ele>1583.0</ele>
  <time>2026-08-28T17:49:30Z</time>
  <course>0.0</course>
  <speed>0.0</speed>
  <fix>3d</fix>
</trkpt>
<trkpt lat="40.071375" lon="-105.229789">
  <ele>1583.0</ele>
  <time>2026-08-28T17:49:30Z</time>
  <course>247.24</course>
  <speed>0.02</speed>
  <fix>3d</fix>
</trkpt>
<trkpt lat="40.0713749" lon="-105.229789">
  <ele>1583.0</ele>
  <time>2026-08-28T17:49:30Z</time>
  <course>0.0</course>
  <speed>0.0</speed>
  <fix>3d</fix>
</trkpt>
<trkpt lat="40.071375" lon="-105.229789">
  <ele>1583.01</ele>
  <time>2026-08-28T17:49:30Z</time>
  <course>247.23</course>
  <speed>0.02</speed>
  <fix>3d</fix>
</trkpt>
<trkpt lat="40.0713749" lon="-105.229789">
  <ele>1583.0</ele>
  <time>2026-08-28T17:49:30Z</time>
  <course>0.0</course>
  <speed>0.0</speed>
  <fix>3d</fix>
</trkpt>
<trkpt lat="40.071375" lon="-105.229789">
  <ele>1583.02</ele>
  <time>2026-08-28T17:49:30Z</time>
  <course>247.23</course>
  <speed>0.02</speed>
  <fix>3d</fix>
</trkpt>
<trkpt lat="40.0713749" lon="-105.229789">
  <ele>1583.0</ele>
  <time>2026-08-28T17:49:30Z</time>
  <course>0.0</course>
  <speed>0.0</speed>
  <fix>3d</fix>
</trkpt>
<trkpt lat="40.071375" lon="-105.229789">
  <ele>1583.02</ele>
  <time>2026-08-28T17:49:30Z</time>
  <course>247.23</course>
  <speed>0.02</speed>
  <fix>3d</fix>
</trkpt>
<trkpt lat="40.0713749" lon="-105.229789">
  <ele>1583.0</ele>
  <time>2026-08-28T17:49:30Z</time>
  <course>0.0</course>
  <speed>0.0</speed>
  <fix>3d</fix>
</trkpt>
<trkpt lat="40.071375" lon="-105.229789">
  <ele>1583.03</ele>
  <time>2026-08-28T17:49:30Z</time>
  <course>247.23</course>
  <speed>0.02</speed>
  <fix>3d</fix>
</trkpt>
<trkpt lat="40.0713749" lon="-105.229789">
  <ele>1583.0</ele>
  <time>2026-08-28T17:49:30Z</time>
  <course>0.0</course>
  <speed>0.0</speed>
  <fix>3d</fix>
</trkpt>
<trkpt lat="40.071375" lon="-105.229789">
  <ele>1583.03</ele>
  <time>2026-08-28T17:49:30Z</time>
  <course>247.23</course>
  <speed>0.02</speed>
  <fix>3d</fix>
</trkpt>
<trkpt lat="40.0713749" lon="-105.229789">
  <ele>1583.0</ele>
  <time>2026-08-28T17:49:30Z</time>
  <course>0.0</course>
  <speed>0.0</speed>
  <fix>3d</fix>
</trkpt>
<trkpt lat="40.071375" lon="-105.229789">
  <ele>1583.03</ele>
  <time>2026-08-28T17:49:30Z</time>
  <course>247.23</course>
  <speed>0.02</speed>
  <fix>3d</fix>
</trkpt>
<trkpt lat="40.0713749" lon="-105.229789">
  <ele>1583.0</ele>
  <time>2026-08-28T17:49:30Z</time>
  <course>0.0</course>
  <speed>0.0</speed>
  <fix>3d</fix>
</trkpt>
<trkpt lat="40.071375" lon="-105.2297889">
  <ele>1583.03</ele>
  <time>2026-08-28T17:49:30Z</time>
  <course>247.22</course>
  <speed>0.02</speed>
  <fix>3d</fix>
</trkpt>
<trkpt lat="40.0713749" lon="-105.229789">
  <ele>1583.0</ele>
  <time>2026-08-28T17:49:30Z</time>
  <course>0.0</course>
  <speed>0.0</speed>
  <fix>3d</fix>
</trkpt>
<trkpt lat="40.071375" lon="-105.229789">
  <ele>1583.03</ele>
  <time>2026-08-28T17:49:30Z</time>
  <course>247.22</course>
  <speed>0.02</speed>
  <fix>3d</fix>
</trkpt>
<trkpt lat="40.0713749" lon="-105.229789">
  <ele>1583.0</ele>
  <time>2026-08-28T17:49:30Z</time>
  <course>0.0</course>
  <speed>0.0</speed>
  <fix>3d</fix>
</trkpt>
<trkpt lat="40.071375" lon="-105.2297889">
  <ele>1583.03</ele>
  <time>2026-08-28T17:49:30Z</time>
  <course>247.22</course>
  <speed>0.02</speed>
  <fix>3d</fix>
</trkpt>
<trkpt lat="40.0713749" lon="-105.229789">
  <ele>1583.0</ele>
  <time>2026-08-28T17:49:30Z</time>
  <course>0.0</course>
  <speed>0.0</speed>
  <fix>3d</fix>
</trkpt>
<trkpt lat="40.071375" lon="-105.229789">
  <ele>1583.03</ele>
  <time>2026-08-28T17:49:30Z</time>
  <course>247.22</course>
  <speed>0.02</speed>
  <fix>3d</fix>
</trkpt>
<trkpt lat="40.0713749" lon="-105.229789">
  <ele>1583.0</ele>
  <time>2026-08-28T17:49:30Z</time>
  <course>0.0</course>
  <speed>0.0</speed>
  <fix>3d</fix>
</trkpt>
<trkpt lat="40.071375" lon="-105.2297889">
  <ele>1583.02</ele>
  <time>2026-08-28T17:49:30Z</time>
  <course>247.22</course>
  <speed>0.02</speed>
  <fix>3d</fix>
</trkpt>
<trkpt lat="40.0713749" lon="-105.229789">
  <ele>1583.0</ele>
  <time>2026-08-28T17:49:30Z</time>
  <course>0.0</course>
  <speed>0.0</speed>
  <fix>3d</fix>
</trkpt>
<trkpt lat="40.071375" lon="-105.229789">
  <ele>1583.02</ele>
  <time>2026-08-28T17:49:30Z</time>
  <course>247.22</course>
  <speed>0.02</speed>
  <fix>3d</fix>
</trkpt>
<trkpt lat="40.0713749" lon="-105.229789">
  <ele>1583.0</ele>
  <time>2026-08-28T17:49:30Z</time>
  <course>0.0</course>
  <speed>0.0</speed>
  <fix>3d</fix>
</trkpt>
<trkpt lat="40.071375" lon="-105.2297889">
  <ele>1583.01</ele>
  <time>2026-08-28T17:49:30Z</time>
  <course>247.22</course>
  <speed>0.02</speed>
  <fix>3d</fix>
</trkpt>
<trkpt lat="40.0713749" lon="-105.229789">
  <ele>1583.0</ele>
  <time>2026-08-28T17:49:30Z</time>
  <course>0.0</course>
  <speed>0.0</speed>
  <fix>3d</fix>
</trkpt>
<trkpt lat="40.071375" lon="-105.229789">
  <ele>1583.01</ele>
  <time>2026-08-28T17:49:30Z</time>
  <course>247.22</course>
  <speed>0.02</speed>
  <fix>3d</fix>
</trkpt>
<trkpt lat="40.0713749" lon="-105.229789">
  <ele>1583.0</ele>
  <time>2026-08-28T17:49:30Z</time>
  <course>0.0</course>
  <speed>0.0</speed>
  <fix>3d</fix>
</trkpt>
<trkpt lat="40.071375" lon="-105.2297889">
  <ele>1583.0</ele>
  <time>2026-08-28T17:49:30Z</time>
  <course>247.22</course>
  <speed>0.02</speed>
  <fix>3d</fix>
</trkpt>
<trkpt lat="40.0713749" lon="-105.229789">
  <ele>1583.0</ele>
  <time>2026-08-28T17:49:30Z</time>
  <course>0.0</course>
  <speed>0.0</speed>
  <fix>3d</fix>
</trkpt>
<trkpt lat="40.071375" lon="-105.229789">
  <ele>1583.0</ele>
  <time>2026-08-28T17:49:30Z</time>
  <course>247.22</course>
  <speed>0.02</speed>
  <fix>3d</fix>
</trkpt>
<trkpt lat="40.0713749" lon="-105.229789">
  <ele>1583.0</ele>
  <time>2026-08-28T17:49:30Z</time>
  <course>0.0</course>
  <speed>0.0</speed>
  <fix>3d</fix>
</trkpt>
<trkpt lat="40.071375" lon="-105.2297889">
  <ele>1583.0</ele>
  <time>2026-08-28T17:49:30Z</time>
  <course>247.22</course>
  <speed>0.02</speed>
  <fix>3d</fix>
</trkpt>
<trkpt lat="40.0713749" lon="-105.229789">
  <ele>1583.0</ele>
  <time>2026-08-28T17:49:30Z</time>
  <course>0.0</course>
  <speed>0.0</speed>
  <fix>3d</fix>
</trkpt>
<trkpt lat="40.071375" lon="-105.229789">
  <ele>1583.0</ele>
  <time>2026-08-28T17:49:30Z</time>
  <course>247.21</course>
  <speed>0.02</speed>
  <fix>3d</fix>
</trkpt>
<trkpt lat="40.0713749" lon="-105.229789">
  <ele>1583.0</ele>
  <time>2026-08-28T17:49:30Z</time>
  <course>0.0</course>
  <speed>0.0</speed>
  <fix>3d</fix>
</trkpt>
<trkpt lat="40.071375" lon="-105.2297889">
  <ele>1583.0</ele>
  <time>2026-08-28T17:49:30Z</time>
  <course>247.21</course>
  <speed>0.02</speed>
  <fix>3d</fix>
</trkpt>
<trkpt lat="40.0713749" lon="-105.229789">
  <ele>1583.0</ele>
  <time>2026-08-28T17:49:30Z</time>
  <course>0.0</course>
  <speed>0.0</speed>
  <fix>3d</fix>
</trkpt>
<trkpt lat="40.071375" lon="-105.229789">
  <ele>1583.0</ele>
  <time>2026-08-28T17:49:30Z</time>
  <course>247.21</course>
  <speed>0.02</speed>
  <fix>3d</fix>
</trkpt>
<trkpt lat="40.0713749" lon="-105.229789">
  <ele>1583.0</ele>
  <time>2026-08-28T17:49:30Z</time>
  <course>0.0</course>
  <speed>0.0</speed>
  <fix>3d</fix>
</trkpt>
<trkpt lat="40.071375" lon="-105.2297889">
  <ele>1583.0</ele>
  <time>2026-08-28T17:49:30Z</time>
  <course>247.21</course>
  <speed>0.02</speed>
  <fix>3d</fix>
</trkpt>
<trkpt lat="40.0713749" lon="-105.229789">
  <ele>1583.0</ele>
  <time>2026-08-28T17:49:30Z</time>
  <course>0.0</course>
  <speed>0.0</speed>
  <fix>3d</fix>
</trkpt>
<trkpt lat="40.071375" lon="-105.229789">
  <ele>1582.99</ele>
  <time>2026-08-28T17:49:30Z</time>
  <course>247.21</course>
  <speed>0.02</speed>
  <fix>3d</fix>
</trkpt>
<trkpt lat="40.0713749" lon="-105.229789">
  <ele>1583.0</ele>
  <time>2026-08-28T17:49:30Z</time>
  <course>0.0</course>
  <speed>0.0</speed>
  <fix>3d</fix>
</trkpt>
<trkpt lat="40.071375" lon="-105.2297889">
  <ele>1582.99</ele>
  <time>2026-08-28T17:49:30Z</time>
  <course>247.21</course>
  <speed>0.02</speed>
  <fix>3d</fix>
</trkpt>
<trkpt lat="40.0713749" lon="-105.229789">
  <ele>1583.0</ele>
  <time>2026-08-28T17:49:30Z</time>
  <course>0.0</course>
  <speed>0.0</speed>
  <fix>3d</fix>
</trkpt>
<trkpt lat="40.071375" lon="-105.229789">
  <ele>1582.99</ele>
  <time>2026-08-28T17:49:30Z</time>
  <course>247.21</course>
  <speed>0.02</speed>
  <fix>3d</fix>
</trkpt>
<trkpt lat="40.0713749" lon="-105.229789">
  <ele>1583.0</ele>
  <time>2026-08-28T17:49:30Z</time>
  <course>0.0</course>
  <speed>0.0</speed>
  <fix>3d</fix>
</trkpt>
<trkpt lat="40.071375" lon="-105.2297889">
  <ele>1582.98</ele>
  <time>2026-08-28T17:49:30Z</time>
  <course>247.21</course>
  <speed>0.022360679774997897</speed>
  <fix>3d</fix>
</trkpt>
<trkpt lat="40.0713749" lon="-105.229789">
  <ele>1583.0</ele>
  <time>2026-08-28T17:49:30Z</time>
  <course>0.0</course>
  <speed>0.0</speed>
  <fix>3d</fix>
</trkpt>
<trkpt lat="40.071375" lon="-105.2297889">
  <ele>1582.98</ele>
  <time>2026-08-28T17:49:30Z</time>
  <course>247.21</course>
  <speed>0.02</speed>
  <fix>3d</fix>
</trkpt>
<trkpt lat="40.0713749" lon="-105.229789">
  <ele>1583.0</ele>
  <time>2026-08-28T17:49:30Z</time>
  <course>0.0</course>
  <speed>0.0</speed>
  <fix>3d</fix>
</trkpt>
<trkpt lat="40.071375" lon="-105.2297889">
  <ele>1582.98</ele>
  <time>2026-08-28T17:49:30Z</time>
  <course>247.21</course>
  <speed>0.022360679774997897</speed>
  <fix>3d</fix>
</trkpt>
<trkpt lat="40.0713749" lon="-105.229789">
  <ele>1583.0</ele>
  <time>2026-08-28T17:49:30Z</time>
  <course>0.0</course>
  <speed>0.0</speed>
  <fix>3d</fix>
</trkpt>
<trkpt lat="40.071375" lon="-105.2297889">
  <ele>1582.97</ele>
  <time>2026-08-28T17:49:30Z</time>
  <course>247.2</course>
  <speed>0.02</speed>
  <fix>3d</fix>
</trkpt>
<trkpt lat="40.0713749" lon="-105.229789">
  <ele>1583.0</ele>
  <time>2026-08-28T17:49:30Z</time>
  <course>0.0</course>
  <speed>0.0</speed>
  <fix>3d</fix>
</trkpt>
<trkpt lat="40.071375" lon="-105.2297889">
  <ele>1582.97</ele>
  <time>2026-08-28T17:49:30Z</time>
  <course>247.2</course>
  <speed>0.02</speed>
  <fix>3d</fix>
</trkpt>
<trkpt lat="40.0713749" lon="-105.229789">
  <ele>1583.0</ele>
  <time>2026-08-28T17:49:30Z</time>
  <course>0.0</course>
  <speed>0.0</speed>
  <fix>3d</fix>
</trkpt>
<trkpt lat="40.071375" lon="-105.2297889">
  <ele>1582.97</ele>
  <time>2026-08-28T17:49:30Z</time>
  <course>247.2</course>
  <speed>0.02</speed>
  <fix>3d</fix>
</trkpt>
<trkpt lat="40.0713749" lon="-105.229789">
  <ele>1583.0</ele>
  <time>2026-08-28T17:49:30Z</time>
  <course>0.0</course>
  <speed>0.0</speed>
  <fix>3d</fix>
</trkpt>
<trkpt lat="40.071375" lon="-105.2297889">
  <ele>1582.96</ele>
  <time>2026-08-28T17:49:30Z</time>
  <course>247.2</course>
  <speed>0.02</speed>
  <fix>3d</fix>
</trkpt>
<trkpt lat="40.0713749" lon="-105.229789">
  <ele>1583.0</ele>
  <time>2026-08-28T17:49:30Z</time>
  <course>0.0</course>
  <speed>0.0</speed>
  <fix>3d</fix>
</trkpt>
<trkpt lat="40.071375" lon="-105.229789">
  <ele>1582.96</ele>
  <time>2026-08-28T17:49:30Z</time>
  <course>247.2</course>
  <speed>0.02</speed>
  <fix>3d</fix>
</trkpt>
<trkpt lat="40.0713749" lon="-105.229789">
  <ele>1583.0</ele>
  <time>2026-08-28T17:49:30Z</time>
  <course>0.0</course>
  <speed>0.0</speed>
  <fix>3d</fix>
</trkpt>
<trkpt lat="40.071375" lon="-105.229789">
  <ele>1582.95</ele>
  <time>2026-08-28T17:49:30Z</time>
  <course>247.2</course>
  <speed>0.02</speed>
  <fix>3d</fix>
</trkpt>
<trkpt lat="40.0713749" lon="-105.229789">
  <ele>1583.0</ele>
  <time>2026-08-28T17:49:30Z</time>
  <course>0.0</course>
  <speed>0.0</speed>
  <fix>3d</fix>
</trkpt>
<trkpt lat="40.071375" lon="-105.229789">
  <ele>1582.95</ele>
  <time>2026-08-28T17:49:30Z</time>
  <course>247.2</course>
  <speed>0.01</speed>
  <fix>3d</fix>
</trkpt>
<trkpt lat="40.0713749" lon="-105.229789">
  <ele>1583.0</ele>
  <time>2026-08-28T17:49:30Z</time>
  <course>0.0</course>
  <speed>0.0</speed>
  <fix>3d</fix>
</trkpt>
<trkpt lat="40.071375" lon="-105.229789">
  <ele>1582.95</ele>
  <time>2026-08-28T17:49:30Z</time>
  <course>247.2</course>
  <speed>0.01</speed>
  <fix>3d</fix>
</trkpt>
<trkpt lat="40.0713749" lon="-105.229789">
  <ele>1583.0</ele>
  <time>2026-08-28T17:49:30Z</time>
  <course>0.0</course>
  <speed>0.0</speed>
  <fix>3d</fix>
</trkpt>
<trkpt lat="40.071375" lon="-105.229789">
  <ele>1582.94</ele>
  <time>2026-08-28T17:49:30Z</time>
  <course>247.2</course>
  <speed>0.01</speed>
  <fix>3d</fix>
</trkpt>
<trkpt lat="40.0713749" lon="-105.229789">
  <ele>1583.0</ele>
  <time>2026-08-28T17:49:30Z</time>
  <course>0.0</course>
  <speed>0.0</speed>
  <fix>3d</fix>
</trkpt>
<trkpt lat="40.071375" lon="-105.229789">
  <ele>1582.94</ele>
  <time>2026-08-28T17:49:30Z</time>
  <course>247.2</course>
  <speed>0.01</speed>
  <fix>3d</fix>
</trkpt>
<trkpt lat="40.0713749" lon="-105.229789">
  <ele>1583.0</ele>
  <time>2026-08-28T17:49:30Z</time>
  <course>0.0</course>
  <speed>0.0</speed>
  <fix>3d</fix>
</trkpt>
<trkpt lat="40.071375" lon="-105.229789">
  <ele>1582.94</ele>
  <time>2026-08-28T17:49:30Z</time>
  <course>247.2</course>
  <speed>0.01</speed>
  <fix>3d</fix>
</trkpt>
<trkpt lat="40.0713749" lon="-105.229789">
  <ele>1583.0</ele>
  <time>2026-08-28T17:49:30Z</time>
  <course>0.0</course>
  <speed>0.0</speed>
  <fix>3d</fix>
</trkpt>
<trkpt lat="40.071375" lon="-105.229789">
  <ele>1582.94</ele>
  <time>2026-08-28T17:49:30Z</time>
  <course>247.2</course>
  <speed>0.01</speed>
  <fix>3d</fix>
</trkpt>
<trkpt lat="40.0713749" lon="-105.229789">
  <ele>1583.0</ele>
  <time>2026-08-28T17:49:30Z</time>
  <course>0.0</course>
  <speed>0.0</speed>
  <fix>3d</fix>
</trkpt>
<trkpt lat="40.071375" lon="-105.229789">
  <ele>1582.93</ele>
  <time>2026-08-28T17:49:30Z</time>
  <course>247.19</course>
  <speed>0.01</speed>
  <fix>3d</fix>
</trkpt>
<trkpt lat="40.0713749" lon="-105.229789">
  <ele>1583.0</ele>
  <time>2026-08-28T17:49:30Z</time>
  <course>0.0</course>
  <speed>0.0</speed>
  <fix>3d</fix>
</trkpt>
<trkpt lat="40.071375" lon="-105.229789">
  <ele>1582.93</ele>
  <time>2026-08-28T17:49:30Z</time>
  <course>247.19</course>
  <speed>0.01</speed>
  <fix>3d</fix>
</trkpt>
<trkpt lat="40.0713749" lon="-105.229789">
  <ele>1583.0</ele>
  <time>2026-08-28T17:49:30Z</time>
  <course>0.0</course>
  <speed>0.0</speed>
  <fix>3d</fix>
</trkpt>
<trkpt lat="40.071375" lon="-105.229789">
  <ele>1582.93</ele>
  <time>2026-08-28T17:49:30Z</time>
  <course>247.19</course>
  <speed>0.0</speed>
  <fix>3d</fix>
</trkpt>
<trkpt lat="40.0713749" lon="-105.229789">
  <ele>1583.0</ele>
  <time>2026-08-28T17:49:30Z</time>
  <course>0.0</course>
  <speed>0.0</speed>
  <fix>3d</fix>
</trkpt>
<trkpt lat="40.071375" lon="-105.229789">
  <ele>1582.93</ele>
  <time>2026-08-28T17:49:30Z</time>
  <course>247.19</course>
  <speed>0.0</speed>
  <fix>3d</fix>
</trkpt>
<trkpt lat="40.0713749" lon="-105.229789">
  <ele>1583.0</ele>
  <time>2026-08-28T17:49:30Z</time>
  <course>0.0</course>
  <speed>0.0</speed>
  <fix>3d</fix>
</trkpt>
<trkpt lat="40.071375" lon="-105.229789">
  <ele>1582.93</ele>
  <time>2026-08-28T17:49:30Z</time>
  <course>247.19</course>
  <speed>0.0</speed>
  <fix>3d</fix>
</trkpt>
<trkpt lat="40.0713749" lon="-105.229789">
  <ele>1583.0</ele>
  <time>2026-08-28T17:49:30Z</time>
  <course>0.0</course>
  <speed>0.0</speed>
  <fix>3d</fix>
</trkpt>
<trkpt lat="40.071375" lon="-105.229789">
  <ele>1582.93</ele>
  <time>2026-08-28T17:49:30Z</time>
  <course>247.19</course>
  <speed>0.0</speed>
  <fix>3d</fix>
</trkpt>
<trkpt lat="40.0713749" lon="-105.229789">
  <ele>1583.0</ele>
  <time>2026-08-28T17:49:30Z</time>
  <course>0.0</course>
  <speed>0.0</speed>
  <fix>3d</fix>
</trkpt>
<trkpt lat="40.071375" lon="-105.229789">
  <ele>1582.94</ele>
  <time>2026-08-28T17:49:30Z</time>
  <course>247.19</course>
  <speed>0.0</speed>
  <fix>3d</fix>
</trkpt>
<trkpt lat="40.0713749" lon="-105.229789">
  <ele>1583.0</ele>
  <time>2026-08-28T17:49:30Z</time>
  <course>0.0</course>
  <speed>0.0</speed>
  <fix>3d</fix>
</trkpt>
<trkpt lat="40.071375" lon="-105.229789">
  <ele>1582.94</ele>
  <time>2026-08-28T17:49:30Z</time>
  <course>247.19</course>
  <speed>0.0</speed>
  <fix>3d</fix>
</trkpt>
<trkpt lat="40.0713749" lon="-105.229789">
  <ele>1583.0</ele>
  <time>2026-08-28T17:49:30Z</time>
  <course>0.0</course>
  <speed>0.0</speed>
  <fix>3d</fix>
</trkpt>
<trkpt lat="40.071375" lon="-105.229789">
  <ele>1582.94</ele>
  <time>2026-08-28T17:49:30Z</time>
  <course>247.2</course>
  <speed>0.0</speed>
  <fix>3d</fix>
</trkpt>
<trkpt lat="40.0713749" lon="-105.229789">
  <ele>1583.0</ele>
  <time>2026-08-28T17:49:30Z</time>
  <course>245.99</course>
  <speed>0.0</speed>
  <fix>3d</fix>
</trkpt>
<trkpt lat="40.071375" lon="-105.229789">
  <ele>1582.94</ele>
  <time>2026-08-28T17:49:30Z</time>
  <course>247.24</course>
  <speed>0.01</speed>
  <fix>3d</fix>
</trkpt>
<trkpt lat="40.0713749" lon="-105.229789">
  <ele>1583.0</ele>
  <time>2026-08-28T17:49:30Z</time>
  <course>245.99</course>
  <speed>0.0</speed>
  <fix>3d</fix>
</trkpt>
<trkpt lat="40.071375" lon="-105.229789">
  <ele>1582.95</ele>
  <time>2026-08-28T17:49:30Z</time>
  <course>247.33</course>
  <speed>0.0316227766016838</speed>
  <fix>3d</fix>
</trkpt>
<trkpt lat="40.0713749" lon="-105.229789">
  <ele>1583.0</ele>
  <time>2026-08-28T17:49:30Z</time>
  <course>246.04</course>
  <speed>0.01</speed>
  <fix>3d</fix>
</trkpt>
<trkpt lat="40.0713749" lon="-105.229789">
  <ele>1582.95</ele>
  <time>2026-08-28T17:49:30Z</time>
  <course>247.51</course>
  <speed>0.053851648071345036</speed>
  <fix>3d</fix>
</trkpt>
<trkpt lat="40.0713749" lon="-105.229789">
  <ele>1583.0</ele>
  <time>2026-08-28T17:49:30Z</time>
  <course>246.04</course>
  <speed>0.01</speed>
  <fix>3d</fix>
</trkpt>
<trkpt lat="40.0713749" lon="-105.2297891">
  <ele>1582.95</ele>
  <time>2026-08-28T17:49:30Z</time>
  <course>247.81</course>
  <speed>0.07280109889280519</speed>
  <fix>3d</fix>
</trkpt>
<trkpt lat="40.0713749" lon="-105.229789">
  <ele>1583.0</ele>
  <time>2026-08-28T17:49:30Z</time>
  <course>246.25</course>
  <speed>0.03</speed>
  <fix>3d</fix>
</trkpt>
<trkpt lat="40.0713749" lon="-105.2297892">
  <ele>1582.95</ele>
  <time>2026-08-28T17:49:30Z</time>
  <course>248.26</course>
  <speed>0.09486832980505139</speed>
  <fix>3d</fix>
</trkpt>
<trkpt lat="40.0713749" lon="-105.2297891">
  <ele>1583.0</ele>
  <time>2026-08-28T17:49:30Z</time>
  <course>246.81</course>
  <speed>0.08</speed>
  <fix>3d</fix>
</trkpt>
<trkpt lat="40.0713748" lon="-105.2297894">
  <ele>1582.95</ele>
  <time>2026-08-28T17:49:30Z</time>
  <course>248.9</course>
  <speed>0.1264911064067352</speed>
  <fix>3d</fix>
</trkpt>
<trkpt lat="40.0713749" lon="-105.2297891">
  <ele>1583.0</ele>
  <time>2026-08-28T17:49:30Z</time>
  <course>246.81</course>
  <speed>0.08</speed>
  <fix>3d</fix>
</trkpt>
<trkpt lat="40.0713748" lon="-105.2297895">
  <ele>1582.95</ele>
  <time>2026-08-28T17:49:30Z</time>
  <course>249.76</course>
  <speed>0.15811388300841897</speed>
  <fix>3d</fix>
</trkpt>
<trkpt lat="40.0713749" lon="-105.2297893">
  <ele>1583.0</ele>
  <time>2026-08-28T17:49:30Z</time>
  <course>248.0</course>
  <speed>0.13</speed>
  <fix>3d</fix>
</trkpt>
<trkpt lat="40.0713747" lon="-105.2297897">
  <ele>1582.95</ele>
  <time>2026-08-28T17:49:30Z</time>
  <course>250.9</course>
  <speed>0.19924858845171275</speed>
  <fix>3d</fix>
</trkpt>
<trkpt lat="40.0713749" lon="-105.2297893">
  <ele>1583.0</ele>
  <time>2026-08-28T17:49:30Z</time>
  <course>248.0</course>
  <speed>0.13</speed>
  <fix>3d</fix>
</trkpt>
<trkpt lat="40.0713747" lon="-105.22979">
  <ele>1582.95</ele>
  <time>2026-08-28T17:49:30Z</time>
  <course>252.31</course>
  <speed>0.24041630560342614</speed>
  <fix>3d</fix>
</trkpt>
<trkpt lat="40.0713748" lon="-105.2297897">
  <ele>1583.0</ele>
  <time>2026-08-28T17:49:30Z</time>
  <course>250.1</course>
  <speed>0.2</speed>
  <fix>3d</fix>
</trkpt>
<trkpt lat="40.0713746" lon="-105.2297903">
  <ele>1582.95</ele>
  <time>2026-08-28T17:49:30Z</time>
  <course>253.97</course>
  <speed>0.27892651361962706</speed>
  <fix>3d</fix>
</trkpt>
<trkpt lat="40.0713748" lon="-105.2297897">
  <ele>1583.0</ele>
  <time>2026-08-28T17:49:30Z</time>
  <course>250.1</course>
  <speed>0.2</speed>
  <fix>3d</fix>
</trkpt>
<trkpt lat="40.0713745" lon="-105.2297906">
  <ele>1582.95</ele>
  <time>2026-08-28T17:49:30Z</time>
  <course>255.88</course>
  <speed>0.3178049716414141</speed>
  <fix>3d</fix>
</trkpt>
<trkpt lat="40.0713746" lon="-105.2297902">
  <ele>1583.0</ele>
  <time>2026-08-28T17:49:30Z</time>
  <course>253.18</course>
  <speed>0.28</speed>
  <fix>3d</fix>
</trkpt>
<trkpt lat="40.0713745" lon="-105.229791">
  <ele>1582.96</ele>
  <time>2026-08-28T17:49:30Z</time>
  <course>258.05</course>
  <speed>0.356931365951495</speed>
  <fix>3d</fix>
</trkpt>
<trkpt lat="40.0713746" lon="-105.2297902">
  <ele>1583.0</ele>
  <time>2026-08-28T17:49:30Z</time>
  <course>253.18</course>
  <speed>0.28</speed>
  <fix>3d</fix>
</trkpt>
<trkpt lat="40.0713744" lon="-105.2297915">
  <ele>1582.96</ele>
  <time>2026-08-28T17:49:30Z</time>
  <course>260.44</course>
  <speed>0.3945883931389772</speed>
  <fix>3d</fix>
</trkpt>
<trkpt lat="40.0713745" lon="-105.229791">
  <ele>1583.0</ele>
  <time>2026-08-28T17:49:30Z</time>
  <course>257.24</course>
  <speed>0.35</speed>
  <fix>3d</fix>
</trkpt>
<trkpt lat="40.0713744" lon="-105.229792">
  <ele>1582.96</ele>
  <time>2026-08-28T17:49:30Z</time>
  <course>263.06</course>
  <speed>0.43185645763378366</speed>
  <fix>3d</fix>
</trkpt>
<trkpt lat="40.0713745" lon="-105.229791">
  <ele>1583.0</ele>
  <time>2026-08-28T17:49:30Z</time>
  <course>257.24</course>
  <speed>0.35</speed>
  <fix>3d</fix>
</trkpt>
<trkpt lat="40.0713743" lon="-105.2297925">
  <ele>1582.95</ele>
  <time>2026-08-28T17:49:30Z</time>
  <course>265.92</course>
  <speed>0.470425339453563</speed>
  <fix>3d</fix>
</trkpt>
<trkpt lat="40.0713743" lon="-105.2297919">
  <ele>1583.0</ele>
  <time>2026-08-28T17:49:30Z</time>
  <course>262.24</course>
  <speed>0.43</speed>
  <fix>3d</fix>
</trkpt>
<trkpt lat="40.0713743" lon="-105.2297931">
  <ele>1582.95</ele>
  <time>2026-08-28T17:49:30Z</time>
  <course>269.0</course>
  <speed>0.5</speed>
  <fix>3d</fix>
</trkpt>
<trkpt lat="40.0713743" lon="-105.2297919">
  <ele>1583.0</ele>
  <time>2026-08-28T17:49:30Z</time>
  <course>262.24</course>
  <speed>0.43</speed>
  <fix>3d</fix>
</trkpt>
<trkpt lat="40.0713743" lon="-105.2297937">
  <ele>1582.96</ele>
  <time>2026-08-28T17:49:30Z</time>
  <course>272.28</course>
  <speed>0.5403702434442519</speed>
  <fix>3d</fix>
</trkpt>
<trkpt lat="40.0713742" lon="-105.229793">
  <ele>1583.0</ele>
  <time>2026-08-28T17:49:30Z</time>
  <course>268.15</course>
  <speed>0.49</speed>
  <fix>3d</fix>
</trkpt>
<trkpt lat="40.0713744" lon="-105.2297944">
  <ele>1582.96</ele>
  <time>2026-08-28T17:49:30Z</time>
  <course>275.77</course>
  <speed>0.5731491952362839</speed>
  <fix>3d</fix>
</trkpt>
<trkpt lat="40.0713742" lon="-105.229793">
  <ele>1583.0</ele>
  <time>2026-08-28T17:49:30Z</time>
  <course>268.15</course>
  <speed>0.49</speed>
  <fix>3d</fix>
</trkpt>
<trkpt lat="40.0713744" lon="-105.2297951">
  <ele>1582.96</ele>
  <time>2026-08-28T17:49:30Z</time>
  <course>279.44</course>
  <speed>0.5984145720150873</speed>
  <fix>3d</fix>
</trkpt>
<trkpt lat="40.0713742" lon="-105.229793">
  <ele>1583.0</ele>
  <time>2026-08-28T17:49:30Z</time>
  <course>268.15</course>
  <speed>0.49</speed>
  <fix>3d</fix>
</trkpt>
<trkpt lat="40.0713744" lon="-105.2297958">
  <ele>1582.96</ele>
  <time>2026-08-28T17:49:30Z</time>
  <course>283.29</course>
  <speed>0.6281719509815764</speed>
  <fix>3d</fix>
</trkpt>
<trkpt lat="40.0713743" lon="-105.2297942">
  <ele>1583.0</ele>
  <time>2026-08-28T17:49:30Z</time>
  <course>274.92</course>
  <speed>0.56</speed>
  <fix>3d</fix>
</trkpt>
<trkpt lat="40.0713746" lon="-105.2297965">
  <ele>1582.97</ele>
  <time>2026-08-28T17:49:30Z</time>
  <course>287.33</course>
  <speed>0.6609841147864296</speed>
  <fix>3d</fix>
</trkpt>
<trkpt lat="40.0713743" lon="-105.2297942">
  <ele>1583.0</ele>
  <time>2026-08-28T17:49:30Z</time>
  <course>274.92</course>
  <speed>0.56</speed>
  <fix>3d</fix>
</trkpt>
<trkpt lat="40.0713748" lon="-105.2297973">
  <ele>1582.97</ele>
  <time>2026-08-28T17:49:30Z</time>
  <course>291.54</course>
  <speed>0.6907966415668217</speed>
  <fix>3d</fix>
</trkpt>
<trkpt lat="40.0713744" lon="-105.2297955">
  <ele>1583.0</ele>
  <time>2026-08-28T17:49:30Z</time>
  <course>282.45</course>
  <speed>0.61</speed>
  <fix>3d</fix>
</trkpt>
<trkpt lat="40.071375" lon="-105.229798">
  <ele>1582.97</ele>
  <time>2026-08-28T17:49:30Z</time>
  <course>295.93</course>
  <speed>0.7155417527999327</speed>
  <fix>3d</fix>
</trkpt>
<trkpt lat="40.0713744" lon="-105.2297955">
  <ele>1583.0</ele>
  <time>2026-08-28T17:49:30Z</time>
  <course>282.45</course>
  <speed>0.61</speed>
  <fix>3d</fix>
</trkpt>
<trkpt lat="40.0713754" lon="-105.2297987">
  <ele>1582.96</ele>
  <time>2026-08-28T17:49:30Z</time>
  <course>300.51</course>
  <speed>0.7443117626371358</speed>
  <fix>3d</fix>
</trkpt>
<trkpt lat="40.0713747" lon="-105.229797">
  <ele>1583.0</ele>
  <time>2026-08-28T17:49:30Z</time>
  <course>290.71</course>
  <speed>0.67</speed>
  <fix>3d</fix>
</trkpt>
<trkpt lat="40.0713757" lon="-105.2297995">
  <ele>1582.96</ele>
  <time>2026-08-28T17:49:30Z</time>
  <course>305.32</course>
  <speed>0.7742092740338364</speed>
  <fix>3d</fix>
</trkpt>
<trkpt lat="40.0713753" lon="-105.2297985">
  <ele>1583.0</ele>
  <time>2026-08-28T17:49:30Z</time>
  <course>299.72</course>
  <speed>0.73</speed>
  <fix>3d</fix>
</trkpt>
<trkpt lat="40.0713762" lon="-105.2298002">
  <ele>1582.96</ele>
  <time>2026-08-28T17:49:30Z</time>
  <course>310.23</course>
  <speed>0.808084154033477</speed>
  <fix>3d</fix>
</trkpt>
<trkpt lat="40.0713753" lon="-105.2297985">
  <ele>1583.0</ele>
  <time>2026-08-28T17:49:30Z</time>
  <course>299.72</course>
  <speed>0.73</speed>
  <fix>3d</fix>
</trkpt>
<trkpt lat="40.0713767" lon="-105.2298009">
  <ele>1582.96</ele>
  <time>2026-08-28T17:49:30Z</time>
  <course>314.99</course>
  <speed>0.841486779456457</speed>
  <fix>3d</fix>
</trkpt>
<trkpt lat="40.071376" lon="-105.2298">
  <ele>1583.0</ele>
  <time>2026-08-28T17:49:30Z</time>
  <course>309.25</course>
  <speed>0.79</speed>
  <fix>3d</fix>
</trkpt>
<trkpt lat="40.0713773" lon="-105.2298016">
  <ele>1582.95</ele>
  <time>2026-08-28T17:49:30Z</time>
  <course>319.52</course>
  <speed>0.887299273075325</speed>
  <fix>3d</fix>
</trkpt>
<trkpt lat="40.071376" lon="-105.2298">
  <ele>1583.0</ele>
  <time>2026-08-28T17:49:30Z</time>
  <course>309.25</course>
  <speed>0.79</speed>
  <fix>3d</fix>
</trkpt>
<trkpt lat="40.0713779" lon="-105.2298023">
  <ele>1582.95</ele>
  <time>2026-08-28T17:49:30Z</time>
  <course>323.85</course>
  <speed>0.9323089616645333</speed>
  <fix>3d</fix>
</trkpt>
<trkpt lat="40.0713771" lon="-105.2298014">
  <ele>1583.0</ele>
  <time>2026-08-28T17:49:30Z</time>
  <course>318.53</course>
  <speed>0.87</speed>
  <fix>3d</fix>
</trkpt>
<trkpt lat="40.0713786" lon="-105.2298029">
  <ele>1582.95</ele>
  <time>2026-08-28T17:49:30Z</time>
  <course>327.83</course>
  <speed>0.9741663102366043</speed>
  <fix>3d</fix>
</trkpt>
<trkpt lat="40.0713771" lon="-105.2298014">
  <ele>1583.0</ele>
  <time>2026-08-28T17:49:30Z</time>
  <course>318.53</course>
  <speed>0.87</speed>
  <fix>3d</fix>
</trkpt>
<trkpt lat="40.0713794" lon="-105.2298035">
  <ele>1582.94</ele>
  <time>2026-08-28T17:49:30Z</time>
  <course>331.25</course>
  <speed>1.0335376142163382</speed>
  <fix>3d</fix>
</trkpt>
<trkpt lat="40.0713784" lon="-105.2298027">
  <ele>1583.0</ele>
  <time>2026-08-28T17:49:30Z</time>
  <course>326.66</course>
  <speed>0.95</speed>
  <fix>3d</fix>
</trkpt>
<trkpt lat="40.0713803" lon="-105.229804">
  <ele>1582.94</ele>
  <time>2026-08-28T17:49:30Z</time>
  <course>334.11</course>
  <speed>1.086876257906115</speed>
  <fix>3d</fix>
</trkpt>
<trkpt lat="40.0713784" lon="-105.2298027">
  <ele>1583.0</ele>
  <time>2026-08-28T17:49:30Z</time>
  <course>326.66</course>
  <speed>0.95</speed>
  <fix>3d</fix>
</trkpt>
<trkpt lat="40.0713812" lon="-105.2298046">
  <ele>1582.94</ele>
  <time>2026-08-28T17:49:30Z</time>
  <course>336.46</course>
  <speed>1.1423659658795864</speed>
  <fix>3d</fix>
</trkpt>
<trkpt lat="40.0713799" lon="-105.2298039">
  <ele>1583.0</ele>
  <time>2026-08-28T17:49:30Z</time>
  <course>332.9</course>
  <speed>1.06</speed>
  <fix>3d</fix>
</trkpt>
<trkpt lat="40.0713822" lon="-105.2298051">
  <ele>1582.94</ele>
  <time>2026-08-28T17:49:30Z</time>
  <course>338.41</course>
  <speed>1.2126417442921877</speed>
  <fix>3d</fix>
</trkpt>
<trkpt lat="40.0713799" lon="-105.2298039">
  <ele>1583.0</ele>
  <time>2026-08-28T17:49:30Z</time>
  <course>332.9</course>
  <speed>1.06</speed>
  <fix>3d</fix>
</trkpt>
<trkpt lat="40.0713832" lon="-105.2298056">
  <ele>1582.93</ele>
  <time>2026-08-28T17:49:30Z</time>
  <course>340.03</course>
  <speed>1.2747156545677156</speed>
  <fix>3d</fix>
</trkpt>
<trkpt lat="40.0713818" lon="-105.229805">
  <ele>1583.0</ele>
  <time>2026-08-28T17:49:30Z</time>
  <course>337.25</course>
  <speed>1.17</speed>
  <fix>3d</fix>
</trkpt>
<trkpt lat="40.0713843" lon="-105.2298061">
  <ele>1582.93</ele>
  <time>2026-08-28T17:49:30Z</time>
  <course>341.38</course>
  <speed>1.347145129523913</speed>
  <fix>3d</fix>
</trkpt>
<trkpt lat="40.0713818" lon="-105.229805">
  <ele>1583.0</ele>
  <time>2026-08-28T17:49:30Z</time>
  <course>337.25</course>
  <speed>1.17</speed>
  <fix>3d</fix>
</trkpt>
<trkpt lat="40.0713855" lon="-105.2298066">
  <ele>1582.93</ele>
  <time>2026-08-28T17:49:30Z</time>
  <course>342.51</course>
  <speed>1.4233762678926467</speed>
  <fix>3d</fix>
</trkpt>
<trkpt lat="40.0713839" lon="-105.229806">
  <ele>1583.0</ele>
  <time>2026-08-28T17:49:30Z</time>
  <course>340.24</course>
  <speed>1.31</speed>
  <fix>3d</fix>
</trkpt>
<trkpt lat="40.0713867" lon="-105.2298071">
  <ele>1582.93</ele>
  <time>2026-08-28T17:49:30Z</time>
  <course>343.43</course>
  <speed>1.5</speed>
  <fix>3d</fix>
</trkpt>
<trkpt lat="40.0713839" lon="-105.229806">
  <ele>1583.0</ele>
  <time>2026-08-28T17:49:30Z</time>
  <course>340.24</course>
  <speed>1.31</speed>
  <fix>3d</fix>
</trkpt>
<trkpt lat="40.0713881" lon="-105.2298076">
  <ele>1582.93</ele>
  <time>2026-08-28T17:49:30Z</time>
  <course>344.22</course>
  <speed>1.5769590990257165</speed>
  <fix>3d</fix>
</trkpt>
<trkpt lat="40.0713839" lon="-105.229806">
  <ele>1583.0</ele>
  <time>2026-08-28T17:49:30Z</time>
  <course>340.24</course>
  <speed>1.31</speed>
  <fix>3d</fix>
</trkpt>
<trkpt lat="40.0713895" lon="-105.2298082">
  <ele>1582.93</ele>
  <time>2026-08-28T17:49:30Z</time>
  <course>344.87</course>
  <speed>1.666433316997713</speed>
  <fix>3d</fix>
</trkpt>
<trkpt lat="40.0713862" lon="-105.2298071">
  <ele>1583.0</ele>
  <time>2026-08-28T17:49:30Z</time>
  <course>342.32</course>
  <speed>1.45</speed>
  <fix>3d</fix>
</trkpt>
<trkpt lat="40.0713909" lon="-105.2298087">
  <ele>1582.93</ele>
  <time>2026-08-28T17:49:30Z</time>
  <course>345.4</course>
  <speed>1.746339027795004</speed>
  <fix>3d</fix>
</trkpt>
<trkpt lat="40.0713862" lon="-105.2298071">
  <ele>1583.0</ele>
  <time>2026-08-28T17:49:30Z</time>
  <course>342.32</course>
  <speed>1.45</speed>
  <fix>3d</fix>
</trkpt>
<trkpt lat="40.0713925" lon="-105.2298092">
  <ele>1582.92</ele>
  <time>2026-08-28T17:49:30Z</time>
  <course>345.85</course>
  <speed>1.8360010893242955</speed>
  <fix>3d</fix>
</trkpt>
<trkpt lat="40.0713889" lon="-105.2298081">
  <ele>1583.0</ele>
  <time>2026-08-28T17:49:30Z</time>
  <course>343.76</course>
  <speed>1.61</speed>
  <fix>3d</fix>
</trkpt>
<trkpt lat="40.0713941" lon="-105.2298098">
  <ele>1582.93</ele>
  <time>2026-08-28T17:49:31Z</time>
  <course>346.21</course>
  <speed>1.9354586019855862</speed>
  <fix>3d</fix>
</trkpt>
<trkpt lat="40.0713889" lon="-105.2298081">
  <ele>1583.0</ele>
  <time>2026-08-28T17:49:31Z</time>
  <course>343.76</course>
  <speed>1.61</speed>
  <fix>3d</fix>
</trkpt>
<trkpt lat="40.0713958" lon="-105.2298103">
  <ele>1582.93</ele>
  <time>2026-08-28T17:49:31Z</time>
  <course>346.51</course>
  <speed>2.025290102676651</speed>
  <fix>3d</fix>
</trkpt>
<trkpt lat="40.0713918" lon="-105.2298092">
  <ele>1583.0</ele>
  <time>2026-08-28T17:49:31Z</time>
  <course>344.75</course>
  <speed>1.79</speed>
  <fix>3d</fix>
</trkpt>
<trkpt lat="40.0713975" lon="-105.2298109">
  <ele>1582.93</ele>
  <time>2026-08-28T17:49:31Z</time>
  <course>346.76</course>
  <speed>2.1272047386182646</speed>
  <fix>3d</fix>
</trkpt>
<trkpt lat="40.0713918" lon="-105.2298092">
  <ele>1583.0</ele>
  <time>2026-08-28T17:49:31Z</time>
  <course>344.75</course>
  <speed>1.79</speed>
  <fix>3d</fix>
</trkpt>
<trkpt lat="40.0713994" lon="-105.2298115">
  <ele>1582.93</ele>
  <time>2026-08-28T17:49:31Z</time>
  <course>346.96</course>
  <speed>2.2291253890259295</speed>
  <fix>3d</fix>
</trkpt>
<trkpt lat="40.071395" lon="-105.2298103">
  <ele>1583.0</ele>
  <time>2026-08-28T17:49:31Z</time>
  <course>345.42</course>
  <speed>1.98</speed>
  <fix>3d</fix>
</trkpt>
<trkpt lat="40.0714014" lon="-105.2298121">
  <ele>1582.93</ele>
  <time>2026-08-28T17:49:31Z</time>
  <course>347.12</course>
  <speed>2.328797973204202</speed>
  <fix>3d</fix>
</trkpt>
<trkpt lat="40.0713986" lon="-105.2298116">
  <ele>1583.0</ele>
  <time>2026-08-28T17:49:31Z</time>
  <course>345.87</course>
  <speed>2.17</speed>
  <fix>3d</fix>
</trkpt>
<trkpt lat="40.0714034" lon="-105.2298128">
  <ele>1582.93</ele>
  <time>2026-08-28T17:49:31Z</time>
  <course>347.25</course>
  <speed>2.430740627874558</speed>
  <fix>3d</fix>
</trkpt>
<trkpt lat="40.0713986" lon="-105.2298116">
  <ele>1583.0</ele>
  <time>2026-08-28T17:49:31Z</time>
  <course>345.87</course>
  <speed>2.17</speed>
  <fix>3d</fix>
</trkpt>
<trkpt lat="40.0714055" lon="-105.2298135">
  <ele>1582.93</ele>
  <time>2026-08-28T17:49:31Z</time>
  <course>347.35</course>
  <speed>2.5349161721840034</speed>
  <fix>3d</fix>
</trkpt>
<trkpt lat="40.0714026" lon="-105.2298129">
  <ele>1583.0</ele>
  <time>2026-08-28T17:49:31Z</time>
  <course>346.17</course>
  <speed>2.38</speed>
  <fix>3d</fix>
</trkpt>
<trkpt lat="40.0714078" lon="-105.2298142">
  <ele>1582.93</ele>
  <time>2026-08-28T17:49:31Z</time>
  <course>347.42</course>
  <speed>2.646601594498122</speed>
  <fix>3d</fix>
</trkpt>
<trkpt lat="40.0714026" lon="-105.2298129">
  <ele>1583.0</ele>
  <time>2026-08-28T17:49:31Z</time>
  <course>346.17</course>
  <speed>2.38</speed>
  <fix>3d</fix>
</trkpt>
<trkpt lat="40.0714101" lon="-105.2298149">
  <ele>1582.93</ele>
  <time>2026-08-28T17:49:31Z</time>
  <course>347.47</course>
  <speed>2.7485450696686784</speed>
  <fix>3d</fix>
</trkpt>
<trkpt lat="40.071407" lon="-105.2298143">
  <ele>1583.0</ele>
  <time>2026-08-28T17:49:31Z</time>
  <course>346.35</course>
  <speed>2.59</speed>
  <fix>3d</fix>
</trkpt>
<trkpt lat="40.0714126" lon="-105.2298157">
  <ele>1582.93</ele>
  <time>2026-08-28T17:49:31Z</time>
  <course>347.5</course>
  <speed>2.8624639735724187</speed>
  <fix>3d</fix>
</trkpt>
<trkpt lat="40.071407" lon="-105.2298143">
  <ele>1583.0</ele>
  <time>2026-08-28T17:49:31Z</time>
  <course>346.35</course>
  <speed>2.59</speed>
  <fix>3d</fix>
</trkpt>
<trkpt lat="40.0714152" lon="-105.2298165">
  <ele>1582.93</ele>
  <time>2026-08-28T17:49:31Z</time>
  <course>347.54</course>
  <speed>2.964405505324803</speed>
  <fix>3d</fix>
</trkpt>
<trkpt lat="40.0714117" lon="-105.2298157">
  <ele>1583.0</ele>
  <time>2026-08-28T17:49:31Z</time>
  <course>346.45</course>
  <speed>2.8</speed>
  <fix>3d</fix>
</trkpt>
<trkpt lat="40.0714178" lon="-105.2298173">
  <ele>1582.93</ele>
  <time>2026-08-28T17:49:31Z</time>
  <course>347.53</course>
  <speed>3.078327467960483</speed>
  <fix>3d</fix>
</trkpt>
<trkpt lat="40.0714117" lon="-105.2298157">
  <ele>1583.0</ele>
  <time>2026-08-28T17:49:31Z</time>
  <course>346.45</course>
  <speed>2.8</speed>
  <fix>3d</fix>
</trkpt>
<trkpt lat="40.0714205" lon="-105.2298182">
  <ele>1582.92</ele>
  <time>2026-08-28T17:49:31Z</time>
  <course>347.53</course>
  <speed>3.1802672843646334</speed>
  <fix>3d</fix>
</trkpt>
<trkpt lat="40.0714168" lon="-105.2298173">
  <ele>1583.0</ele>
  <time>2026-08-28T17:49:31Z</time>
  <course>346.49</course>
  <speed>3.02</speed>
  <fix>3d</fix>
</trkpt>
<trkpt lat="40.0714234" lon="-105.2298191">
  <ele>1582.92</ele>
  <time>2026-08-28T17:49:31Z</time>
  <course>347.53</course>
  <speed>3.2941918584077645</speed>
  <fix>3d</fix>
</trkpt>
<trkpt lat="40.0714168" lon="-105.2298173">
  <ele>1583.0</ele>
  <time>2026-08-28T17:49:31Z</time>
  <course>346.49</course>
  <speed>3.02</speed>
  <fix>3d</fix>
</trkpt>
<trkpt lat="40.0714263" lon="-105.22982">
  <ele>1582.92</ele>
  <time>2026-08-28T17:49:31Z</time>
  <course>347.52</course>
  <speed>3.3961301506273283</speed>
  <fix>3d</fix>
</trkpt>
<trkpt lat="40.0714222" lon="-105.229819">
  <ele>1583.0</ele>
  <time>2026-08-28T17:49:31Z</time>
  <course>346.49</course>
  <speed>3.23</speed>
  <fix>3d</fix>
</trkpt>
<trkpt lat="40.0714293" lon="-105.229821">
  <ele>1582.92</ele>
  <time>2026-08-28T17:49:31Z</time>
  <course>347.52</course>
  <speed>3.5003142716047653</speed>
  <fix>3d</fix>
</trkpt>
<trkpt lat="40.0714222" lon="-105.229819">
  <ele>1583.0</ele>
  <time>2026-08-28T17:49:31Z</time>
  <course>346.49</course>
  <speed>3.23</speed>
  <fix>3d</fix>
</trkpt>
<trkpt lat="40.0714324" lon="-105.2298219">
  <ele>1582.92</ele>
  <time>2026-08-28T17:49:31Z</time>
  <course>347.51</course>
  <speed>3.6022492973141103</speed>
  <fix>3d</fix>
</trkpt>
<trkpt lat="40.0714281" lon="-105.2298209">
  <ele>1583.0</ele>
  <time>2026-08-28T17:49:31Z</time>
  <course>346.49</course>
  <speed>3.44</speed>
  <fix>3d</fix>
</trkpt>
<trkpt lat="40.0714356" lon="-105.2298229">
  <ele>1582.92</ele>
  <time>2026-08-28T17:49:31Z</time>
  <course>347.51</course>
  <speed>3.706440340812192</speed>
  <fix>3d</fix>
</trkpt>
<trkpt lat="40.0714281" lon="-105.2298209">
  <ele>1583.0</ele>
  <time>2026-08-28T17:49:31Z</time>
  <course>346.49</course>
  <speed>3.44</speed>
  <fix>3d</fix>
</trkpt>
<trkpt lat="40.0714389" lon="-105.229824">
  <ele>1582.93</ele>
  <time>2026-08-28T17:49:31Z</time>
  <course>347.51</course>
  <speed>3.808372355744643</speed>
  <fix>3d</fix>
</trkpt>
<trkpt lat="40.0714281" lon="-105.2298209">
  <ele>1583.0</ele>
  <time>2026-08-28T17:49:31Z</time>
  <course>346.49</course>
  <speed>3.44</speed>
  <fix>3d</fix>
</trkpt>
<trkpt lat="40.0714422" lon="-105.229825">
  <ele>1582.93</ele>
  <time>2026-08-28T17:49:31Z</time>
  <course>347.5</course>
  <speed>3.9103068933269163</speed>
  <fix>3d</fix>
</trkpt>
<trkpt lat="40.0714342" lon="-105.2298228">
  <ele>1583.0</ele>
  <time>2026-08-28T17:49:31Z</time>
  <course>346.49</course>
  <speed>3.64</speed>
  <fix>3d</fix>
</trkpt>
<trkpt lat="40.0714456" lon="-105.2298261">
  <ele>1582.94</ele>
  <time>2026-08-28T17:49:31Z</time>
  <course>347.5</course>
  <speed>4.014498723377553</speed>
  <fix>3d</fix>
</trkpt>
<trkpt lat="40.0714342" lon="-105.2298228">
  <ele>1583.0</ele>
  <time>2026-08-28T17:49:31Z</time>
  <course>346.49</course>
  <speed>3.64</speed>
  <fix>3d</fix>
</trkpt>
<trkpt lat="40.0714491" lon="-105.2298272">
  <ele>1582.94</ele>
  <time>2026-08-28T17:49:31Z</time>
  <course>347.46</course>
  <speed>4.106689664437769</speed>
  <fix>3d</fix>
</trkpt>
<trkpt lat="40.0714409" lon="-105.2298249">
  <ele>1583.0</ele>
  <time>2026-08-28T17:49:31Z</time>
  <course>346.49</course>
  <speed>3.85</speed>
  <fix>3d</fix>
</trkpt>
<trkpt lat="40.0714527" lon="-105.2298283">
  <ele>1582.94</ele>
  <time>2026-08-28T17:49:31Z</time>
  <course>347.42</course>
  <speed>4.210890642132612</speed>
  <fix>3d</fix>
</trkpt>
<trkpt lat="40.0714409" lon="-105.2298249">
  <ele>1583.0</ele>
  <time>2026-08-28T17:49:31Z</time>
  <course>346.49</course>
  <speed>3.85</speed>
  <fix>3d</fix>
</trkpt>
<trkpt lat="40.0714563" lon="-105.2298295">
  <ele>1582.94</ele>
  <time>2026-08-28T17:49:31Z</time>
  <course>347.39</course>
  <speed>4.305368741466868</speed>
  <fix>3d</fix>
</trkpt>
<trkpt lat="40.0714478" lon="-105.2298271">
  <ele>1583.0</ele>
  <time>2026-08-28T17:49:31Z</time>
  <course>346.45</course>
  <speed>4.05</speed>
  <fix>3d</fix>
</trkpt>
<trkpt lat="40.0714601" lon="-105.2298307">
  <ele>1582.95</ele>
  <time>2026-08-28T17:49:31Z</time>
  <course>347.33</course>
  <speed>4.407289416410046</speed>
  <fix>3d</fix>
</trkpt>
<trkpt lat="40.071455" lon="-105.2298294">
  <ele>1583.0</ele>
  <time>2026-08-28T17:49:31Z</time>
  <course>346.38</course>
  <speed>4.25</speed>
  <fix>3d</fix>
</trkpt>
<trkpt lat="40.071464" lon="-105.2298319">
  <ele>1582.95</ele>
  <time>2026-08-28T17:49:31Z</time>
  <course>347.3</course>
  <speed>4.501777426750461</speed>
  <fix>3d</fix>
</trkpt>
<trkpt lat="40.071455" lon="-105.2298294">
  <ele>1583.0</ele>
  <time>2026-08-28T17:49:31Z</time>
  <course>346.38</course>
  <speed>4.25</speed>
  <fix>3d</fix>
</trkpt>
<trkpt lat="40.0714679" lon="-105.2298332">
  <ele>1582.95</ele>
  <time>2026-08-28T17:49:31Z</time>
  <course>347.28</course>
  <speed>4.6060069474545955</speed>
  <fix>3d</fix>
</trkpt>
<trkpt lat="40.0714627" lon="-105.2298318">
  <ele>1583.0</ele>
  <time>2026-08-28T17:49:31Z</time>
  <course>346.32</course>
  <speed>4.46</speed>
  <fix>3d</fix>
</trkpt>
<trkpt lat="40.071472" lon="-105.2298345">
  <ele>1582.95</ele>
  <time>2026-08-28T17:49:31Z</time>
  <course>347.26</course>
  <speed>4.70791886081313</speed>
  <fix>3d</fix>
</trkpt>
<trkpt lat="40.0714627" lon="-105.2298318">
  <ele>1583.0</ele>
  <time>2026-08-28T17:49:31Z</time>
  <course>346.32</course>
  <speed>4.46</speed>
  <fix>3d</fix>
</trkpt>
<trkpt lat="40.0714761" lon="-105.2298358">
  <ele>1582.95</ele>
  <time>2026-08-28T17:49:31Z</time>
  <course>347.26</course>
  <speed>4.802426470025335</speed>
  <fix>3d</fix>
</trkpt>
<trkpt lat="40.0714706" lon="-105.2298342">
  <ele>1583.0</ele>
  <time>2026-08-28T17:49:31Z</time>
  <course>346.29</course>
  <speed>4.66</speed>
  <fix>3d</fix>
</trkpt>
<trkpt lat="40.0714804" lon="-105.2298372">
  <ele>1582.95</ele>
  <time>2026-08-28T17:49:31Z</time>
  <course>347.26</course>
  <speed>4.894609279605472</speed>
  <fix>3d</fix>
</trkpt>
<trkpt lat="40.0714706" lon="-105.2298342">
  <ele>1583.0</ele>
  <time>2026-08-28T17:49:31Z</time>
  <course>346.29</course>
  <speed>4.66</speed>
  <fix>3d</fix>
</trkpt>
<trkpt lat="40.0714847" lon="-105.2298386">
  <ele>1582.95</ele>
  <time>2026-08-28T17:49:31Z</time>
  <course>347.25</course>
  <speed>4.977067409629892</speed>
  <fix>3d</fix>
</trkpt>
<trkpt lat="40.0714789" lon="-105.2298369">
  <ele>1583.0</ele>
  <time>2026-08-28T17:49:31Z</time>
  <course>346.28</course>
  <speed>4.84</speed>
  <fix>3d</fix>
</trkpt>
<trkpt lat="40.0714891" lon="-105.22984">
  <ele>1582.95</ele>
  <time>2026-08-28T17:49:31Z</time>
  <course>347.25</course>
  <speed>5.059525669467445</speed>
  <fix>3d</fix>
</trkpt>
<trkpt lat="40.0714789" lon="-105.2298369">
  <ele>1583.0</ele>
  <time>2026-08-28T17:49:31Z</time>
  <course>346.28</course>
  <speed>4.84</speed>
  <fix>3d</fix>
</trkpt>
<trkpt lat="40.0714936" lon="-105.2298414">
  <ele>1582.95</ele>
  <time>2026-08-28T17:49:31Z</time>
  <course>347.25</course>
  <speed>5.120205074018032</speed>
  <fix>3d</fix>
</trkpt>
<trkpt lat="40.0714875" lon="-105.2298397">
  <ele>1583.0</ele>
  <time>2026-08-28T17:49:31Z</time>
  <course>346.28</course>
  <speed>5.0</speed>
  <fix>3d</fix>
</trkpt>
<trkpt lat="40.0714981" lon="-105.2298428">
  <ele>1582.95</ele>
  <time>2026-08-28T17:49:31Z</time>
  <course>347.25</course>
  <speed>5.183213289070786</speed>
  <fix>3d</fix>
</trkpt>
<trkpt lat="40.0714875" lon="-105.2298397">
  <ele>1583.0</ele>
  <time>2026-08-28T17:49:31Z</time>
  <course>346.28</course>
  <speed>5.0</speed>
  <fix>3d</fix>
</trkpt>
<trkpt lat="40.0715026" lon="-105.2298443">
  <ele>1582.95</ele>
  <time>2026-08-28T17:49:31Z</time>
  <course>347.25</course>
  <speed>5.224442553995593</speed>
  <fix>3d</fix>
</trkpt>
<trkpt lat="40.0714964" lon="-105.2298425">
  <ele>1583.0</ele>
  <time>2026-08-28T17:49:31Z</time>
  <course>346.28</course>
  <speed>5.13</speed>
  <fix>3d</fix>
</trkpt>
<trkpt lat="40.0715072" lon="-105.2298458">
  <ele>1582.95</ele>
  <time>2026-08-28T17:49:31Z</time>
  <course>347.24</course>
  <speed>5.265671846972616</speed>
  <fix>3d</fix>
</trkpt>
<trkpt lat="40.0714964" lon="-105.2298425">
  <ele>1583.0</ele>
  <time>2026-08-28T17:49:31Z</time>
  <course>346.28</course>
  <speed>5.13</speed>
  <fix>3d</fix>
</trkpt>
<trkpt lat="40.0715118" lon="-105.2298472">
  <ele>1582.95</ele>
  <time>2026-08-28T17:49:31Z</time>
  <course>347.24</course>
  <speed>5.28745685561594</speed>
  <fix>3d</fix>
</trkpt>
<trkpt lat="40.0715054" lon="-105.2298454">
  <ele>1583.0</ele>
  <time>2026-08-28T17:49:31Z</time>
  <course>346.28</course>
  <speed>5.21</speed>
  <fix>3d</fix>
</trkpt>
<trkpt lat="40.0715164" lon="-105.2298487">
  <ele>1582.95</ele>
  <time>2026-08-28T17:49:31Z</time>
  <course>347.24</course>
  <speed>5.29717849425522</speed>
  <fix>3d</fix>
</trkpt>
<trkpt lat="40.0715054" lon="-105.2298454">
  <ele>1583.0</ele>
  <time>2026-08-28T17:49:31Z</time>
  <course>346.28</course>
  <speed>5.21</speed>
  <fix>3d</fix>
</trkpt>
<trkpt lat="40.071521" lon="-105.2298502">
  <ele>1582.95</ele>
  <time>2026-08-28T17:49:31Z</time>
  <course>347.24</course>
  <speed>5.29717849425522</speed>
  <fix>3d</fix>
</trkpt>
<trkpt lat="40.0715054" lon="-105.2298454">
  <ele>1583.0</ele>
  <time>2026-08-28T17:49:31Z</time>
  <course>346.28</course>
  <speed>5.21</speed>
  <fix>3d</fix>
</trkpt>
<trkpt lat="40.0715256" lon="-105.2298516">
  <ele>1582.95</ele>
  <time>2026-08-28T17:49:31Z</time>
  <course>347.23</course>
  <speed>5.28745685561594</speed>
  <fix>3d</fix>
</trkpt>
<trkpt lat="40.0715146" lon="-105.2298483">
  <ele>1583.0</ele>
  <time>2026-08-28T17:49:31Z</time>
  <course>346.28</course>
  <speed>5.24</speed>
  <fix>3d</fix>
</trkpt>
<trkpt lat="40.0715302" lon="-105.2298531">
  <ele>1582.95</ele>
  <time>2026-08-28T17:49:31Z</time>
  <course>347.23</course>
  <speed>5.268016704605254</speed>
  <fix>3d</fix>
</trkpt>
<trkpt lat="40.0715146" lon="-105.2298483">
  <ele>1583.0</ele>
  <time>2026-08-28T17:49:31Z</time>
  <course>346.28</course>
  <speed>5.24</speed>
  <fix>3d</fix>
</trkpt>
<trkpt lat="40.0715347" lon="-105.2298545">
  <ele>1582.95</ele>
  <time>2026-08-28T17:49:31Z</time>
  <course>347.21</course>
  <speed>5.236506469011569</speed>
  <fix>3d</fix>
</trkpt>
<trkpt lat="40.0715237" lon="-105.2298512">
  <ele>1583.0</ele>
  <time>2026-08-28T17:49:31Z</time>
  <course>346.28</course>
  <speed>5.24</speed>
  <fix>3d</fix>
</trkpt>
<trkpt lat="40.0715391" lon="-105.229856">
  <ele>1582.95</ele>
  <time>2026-08-28T17:49:31Z</time>
  <course>347.18</course>
  <speed>5.217068142165674</speed>
  <fix>3d</fix>
</trkpt>
<trkpt lat="40.0715237" lon="-105.2298512">
  <ele>1583.0</ele>
  <time>2026-08-28T17:49:31Z</time>
  <course>346.28</course>
  <speed>5.24</speed>
  <fix>3d</fix>
</trkpt>
<trkpt lat="40.0715436" lon="-105.2298574">
  <ele>1582.94</ele>
  <time>2026-08-28T17:49:31Z</time>
  <course>347.15</course>
  <speed>5.178204321963358</speed>
  <fix>3d</fix>
</trkpt>
<trkpt lat="40.0715328" lon="-105.2298541">
  <ele>1583.0</ele>
  <time>2026-08-28T17:49:31Z</time>
  <course>346.26</course>
  <speed>5.21</speed>
  <fix>3d</fix>
</trkpt>
<trkpt lat="40.071548" lon="-105.2298589">
  <ele>1582.94</ele>
  <time>2026-08-28T17:49:31Z</time>
  <course>347.13</course>
  <speed>5.146688255567847</speed>
  <fix>3d</fix>
</trkpt>
<trkpt lat="40.0715328" lon="-105.2298541">
  <ele>1583.0</ele>
  <time>2026-08-28T17:49:31Z</time>
  <course>346.26</course>
  <speed>5.21</speed>
  <fix>3d</fix>
</trkpt>
<trkpt lat="40.0715525" lon="-105.2298603">
  <ele>1582.94</ele>
  <time>2026-08-28T17:49:31Z</time>
  <course>347.08</course>
  <speed>5.117548241101397</speed>
  <fix>3d</fix>
</trkpt>
<trkpt lat="40.0715419" lon="-105.229857">
  <ele>1583.0</ele>
  <time>2026-08-28T17:49:31Z</time>
  <course>346.22</course>
  <speed>5.16</speed>
  <fix>3d</fix>
</trkpt>
<trkpt lat="40.0715568" lon="-105.2298617">
  <ele>1582.94</ele>
  <time>2026-08-28T17:49:31Z</time>
  <course>347.06</course>
  <speed>5.076317562958409</speed>
  <fix>3d</fix>
</trkpt>
<trkpt lat="40.0715508" lon="-105.2298599">
  <ele>1583.0</ele>
  <time>2026-08-28T17:49:31Z</time>
  <course>346.16</course>
  <speed>5.1</speed>
  <fix>3d</fix>
</trkpt>
<trkpt lat="40.0715612" lon="-105.2298631">
  <ele>1582.95</ele>
  <time>2026-08-28T17:49:31Z</time>
  <course>347.03</course>
  <speed>5.0471873355364965</speed>
  <fix>3d</fix>
</trkpt>
<trkpt lat="40.0715508" lon="-105.2298599">
  <ele>1583.0</ele>
  <time>2026-08-28T17:49:31Z</time>
  <course>346.16</course>
  <speed>5.1</speed>
  <fix>3d</fix>
</trkpt>
<trkpt lat="40.0715655" lon="-105.2298645">
  <ele>1582.94</ele>
  <time>2026-08-28T17:49:31Z</time>
  <course>347.0</course>
  <speed>5.018067357060883</speed>
  <fix>3d</fix>
</trkpt>
<trkpt lat="40.0715596" lon="-105.2298627">
  <ele>1583.0</ele>
  <time>2026-08-28T17:49:31Z</time>
  <course>346.1</course>
  <speed>5.05</speed>
  <fix>3d</fix>
</trkpt>
<trkpt lat="40.0715699" lon="-105.229866">
  <ele>1582.94</ele>
  <time>2026-08-28T17:49:31Z</time>
  <course>346.96</course>
  <speed>4.98654188792193</speed>
  <fix>3d</fix>
</trkpt>
<trkpt lat="40.0715596" lon="-105.2298627">
  <ele>1583.0</ele>
  <time>2026-08-28T17:49:31Z</time>
  <course>346.1</course>
  <speed>5.05</speed>
  <fix>3d</fix>
</trkpt>
<trkpt lat="40.0715742" lon="-105.2298674">
  <ele>1582.94</ele>
  <time>2026-08-28T17:49:31Z</time>
  <course>346.92</course>
  <speed>4.957428769029365</speed>
  <fix>3d</fix>
</trkpt>
<trkpt lat="40.0715684" lon="-105.2298656">
  <ele>1583.0</ele>
  <time>2026-08-28T17:49:31Z</time>
  <course>346.03</course>
  <speed>4.99</speed>
  <fix>3d</fix>
</trkpt>
<trkpt lat="40.0715785" lon="-105.2298688">
  <ele>1582.93</ele>
  <time>2026-08-28T17:49:31Z</time>
  <course>346.91</course>
  <speed>4.938025921357643</speed>
  <fix>3d</fix>
</trkpt>
<trkpt lat="40.0715684" lon="-105.2298656">
  <ele>1583.0</ele>
  <time>2026-08-28T17:49:31Z</time>
  <course>346.03</course>
  <speed>4.99</speed>
  <fix>3d</fix>
</trkpt>
<trkpt lat="40.0715829" lon="-105.2298702">
  <ele>1582.93</ele>
  <time>2026-08-28T17:49:31Z</time>
  <course>346.86</course>
  <speed>4.918627857441544</speed>
  <fix>3d</fix>
</trkpt>
<trkpt lat="40.0715771" lon="-105.2298685">
  <ele>1583.0</ele>
  <time>2026-08-28T17:49:31Z</time>
  <course>345.96</course>
  <speed>4.95</speed>
  <fix>3d</fix>
</trkpt>
<trkpt lat="40.0715871" lon="-105.2298716">
  <ele>1582.93</ele>
  <time>2026-08-28T17:49:31Z</time>
  <course>346.84</course>
  <speed>4.896794870116574</speed>
  <fix>3d</fix>
</trkpt>
<trkpt lat="40.0715771" lon="-105.2298685">
  <ele>1583.0</ele>
  <time>2026-08-28T17:49:31Z</time>
  <course>345.96</course>
  <speed>4.95</speed>
  <fix>3d</fix>
</trkpt>
<trkpt lat="40.0715914" lon="-105.2298731">
  <ele>1582.93</ele>
  <time>2026-08-28T17:49:31Z</time>
  <course>346.83</course>
  <speed>4.877396846679589</speed>
  <fix>3d</fix>
</trkpt>
<trkpt lat="40.0715857" lon="-105.2298713">
  <ele>1583.0</ele>
  <time>2026-08-28T17:49:31Z</time>
  <course>345.9</course>
  <speed>4.91</speed>
  <fix>3d</fix>
</trkpt>
<trkpt lat="40.0715957" lon="-105.2298745">
  <ele>1582.93</ele>
  <time>2026-08-28T17:49:31Z</time>
  <course>346.83</course>
  <speed>4.867699662058045</speed>
  <fix>3d</fix>
</trkpt>
<trkpt lat="40.0715857" lon="-105.2298713">
  <ele>1583.0</ele>
  <time>2026-08-28T17:49:31Z</time>
  <course>345.9</course>
  <speed>4.91</speed>
  <fix>3d</fix>
</trkpt>
<trkpt lat="40.0715999" lon="-105.2298759">
  <ele>1582.94</ele>
  <time>2026-08-28T17:49:31Z</time>
  <course>346.83</course>
  <speed>4.848308983552926</speed>
  <fix>3d</fix>
</trkpt>
<trkpt lat="40.0715942" lon="-105.229874">
  <ele>1583.0</ele>
  <time>2026-08-28T17:49:31Z</time>
  <course>345.88</course>
  <speed>4.88</speed>
  <fix>3d</fix>
</trkpt>
<trkpt lat="40.0716042" lon="-105.2298773">
  <ele>1582.94</ele>
  <time>2026-08-28T17:49:31Z</time>
  <course>346.83</course>
  <speed>4.826468688389059</speed>
  <fix>3d</fix>
</trkpt>
<trkpt lat="40.0715942" lon="-105.229874">
  <ele>1583.0</ele>
  <time>2026-08-28T17:49:31Z</time>
  <course>345.88</course>
  <speed>4.88</speed>
  <fix>3d</fix>
</trkpt>
<trkpt lat="40.0716084" lon="-105.2298787">
  <ele>1582.94</ele>
  <time>2026-08-28T17:49:31Z</time>
  <course>346.83</course>
  <speed>4.807078114613907</speed>
  <fix>3d</fix>
</trkpt>
<trkpt lat="40.0715942" lon="-105.229874">
  <ele>1583.0</ele>
  <time>2026-08-28T17:49:31Z</time>
  <course>345.88</course>
  <speed>4.88</speed>
  <fix>3d</fix>
</trkpt>
<trkpt lat="40.0716125" lon="-105.22988">
  <ele>1582.94</ele>
  <time>2026-08-28T17:49:31Z</time>
  <course>346.83</course>
  <speed>4.775541854072688</speed>
  <fix>3d</fix>
</trkpt>
<trkpt lat="40.0716027" lon="-105.2298768">
  <ele>1583.0</ele>
  <time>2026-08-28T17:49:31Z</time>
  <course>345.88</course>
  <speed>4.84</speed>
  <fix>3d</fix>
</trkpt>
<trkpt lat="40.0716167" lon="-105.2298814">
  <ele>1582.94</ele>
  <time>2026-08-28T17:49:31Z</time>
  <course>346.83</course>
  <speed>4.734310931909732</speed>
  <fix>3d</fix>
</trkpt>
<trkpt lat="40.0716027" lon="-105.2298768">
  <ele>1583.0</ele>
  <time>2026-08-28T17:49:31Z</time>
  <course>345.88</course>
  <speed>4.84</speed>
  <fix>3d</fix>
</trkpt>
<trkpt lat="40.0716207" lon="-105.2298827">
  <ele>1582.94</ele>
  <time>2026-08-28T17:49:31Z</time>
  <course>346.83</course>
  <speed>4.693080012102926</speed>
  <fix>3d</fix>
</trkpt>
<trkpt lat="40.0716112" lon="-105.2298796">
  <ele>1583.0</ele>
  <time>2026-08-28T17:49:31Z</time>
  <course>345.88</course>
  <speed>4.79</speed>
  <fix>3d</fix>
</trkpt>
<trkpt lat="40.0716248" lon="-105.2298841">
  <ele>1582.94</ele>
  <time>2026-08-28T17:49:31Z</time>
  <course>346.83</course>
  <speed>4.642154672132328</speed>
  <fix>3d</fix>
</trkpt>
<trkpt lat="40.0716112" lon="-105.2298796">
  <ele>1583.0</ele>
  <time>2026-08-28T17:49:31Z</time>
  <course>345.88</course>
  <speed>4.79</speed>
  <fix>3d</fix>
</trkpt>
<trkpt lat="40.0716288" lon="-105.2298854">
  <ele>1582.94</ele>
  <time>2026-08-28T17:49:31Z</time>
  <course>346.83</course>
  <speed>4.579082877607698</speed>
  <fix>3d</fix>
</trkpt>
<trkpt lat="40.0716195" lon="-105.2298823">
  <ele>1583.0</ele>
  <time>2026-08-28T17:49:31Z</time>
  <course>345.88</course>
  <speed>4.72</speed>
  <fix>3d</fix>
</trkpt>
<trkpt lat="40.0716327" lon="-105.2298867">
  <ele>1582.94</ele>
  <time>2026-08-28T17:49:31Z</time>
  <course>346.83</course>
  <speed>4.506317787284869</speed>
  <fix>3d</fix>
</trkpt>
<trkpt lat="40.0716195" lon="-105.2298823">
  <ele>1583.0</ele>
  <time>2026-08-28T17:49:31Z</time>
  <course>345.88</course>
  <speed>4.72</speed>
  <fix>3d</fix>
</trkpt>
<trkpt lat="40.0716366" lon="-105.229888">
  <ele>1582.94</ele>
  <time>2026-08-28T17:49:31Z</time>
  <course>346.83</course>
  <speed>4.423855784267837</speed>
  <fix>3d</fix>
</trkpt>
<trkpt lat="40.0716276" lon="-105.229885">
  <ele>1583.0</ele>
  <time>2026-08-28T17:49:31Z</time>
  <course>345.88</course>
  <speed>4.61</speed>
  <fix>3d</fix>
</trkpt>
<trkpt lat="40.0716404" lon="-105.2298892">
  <ele>1582.94</ele>
  <time>2026-08-28T17:49:31Z</time>
  <course>346.9</course>
  <speed>4.331697126993068</speed>
  <fix>3d</fix>
</trkpt>
<trkpt lat="40.0716355" lon="-105.2298876">
  <ele>1583.0</ele>
  <time>2026-08-28T17:49:31Z</time>
  <course>345.92</course>
  <speed>4.46</speed>
  <fix>3d</fix>
</trkpt>
<trkpt lat="40.0716441" lon="-105.2298904">
  <ele>1582.94</ele>
  <time>2026-08-28T17:49:31Z</time>
  <course>347.13</course>
  <speed>4.234678264047932</speed>
  <fix>3d</fix>
</trkpt>
<trkpt lat="40.0716355" lon="-105.2298876">
  <ele>1583.0</ele>
  <time>2026-08-28T17:49:31Z</time>
  <course>345.92</course>
  <speed>4.46</speed>
  <fix>3d</fix>
</trkpt>
<trkpt lat="40.0716477" lon="-105.2298916">
  <ele>1582.94</ele>
  <time>2026-08-28T17:49:31Z</time>
  <course>347.51</course>
  <speed>4.12565146370849</speed>
  <fix>3d</fix>
</trkpt>
<trkpt lat="40.0716431" lon="-105.22989">
  <ele>1583.0</ele>
  <time>2026-08-28T17:49:31Z</time>
  <course>346.25</course>
  <speed>4.28</speed>
  <fix>3d</fix>
</trkpt>
<trkpt lat="40.0716513" lon="-105.2298927">
  <ele>1582.94</ele>
  <time>2026-08-28T17:49:31Z</time>
  <course>348.07</course>
  <speed>4.021989557420556</speed>
  <fix>3d</fix>
</trkpt>
<trkpt lat="40.0716431" lon="-105.22989">
  <ele>1583.0</ele>
  <time>2026-08-28T17:49:31Z</time>
  <course>346.25</course>
  <speed>4.28</speed>
  <fix>3d</fix>
</trkpt>
<trkpt lat="40.0716548" lon="-105.2298937">
  <ele>1582.94</ele>
  <time>2026-08-28T17:49:31Z</time>
  <course>348.8</course>
  <speed>3.909130338067535</speed>
  <fix>3d</fix>
</trkpt>
<trkpt lat="40.0716504" lon="-105.2298923">
  <ele>1583.0</ele>
  <time>2026-08-28T17:49:31Z</time>
  <course>347.2</course>
  <speed>4.07</speed>
  <fix>3d</fix>
</trkpt>
<trkpt lat="40.0716583" lon="-105.2298946">
  <ele>1582.94</ele>
  <time>2026-08-28T17:49:31Z</time>
  <course>349.73</course>
  <speed>3.792888081660201</speed>
  <fix>3d</fix>
</trkpt>
<trkpt lat="40.0716504" lon="-105.2298923">
  <ele>1583.0</ele>
  <time>2026-08-28T17:49:31Z</time>
  <course>347.2</course>
  <speed>4.07</speed>
  <fix>3d</fix>
</trkpt>
<trkpt lat="40.0716616" lon="-105.2298954">
  <ele>1582.94</ele>
  <time>2026-08-28T17:49:31Z</time>
  <course>350.86</course>
  <speed>3.6680512537313326</speed>
  <fix>3d</fix>
</trkpt>
<trkpt lat="40.0716573" lon="-105.2298943">
  <ele>1583.0</ele>
  <time>2026-08-28T17:49:31Z</time>
  <course>348.86</course>
  <speed>3.84</speed>
  <fix>3d</fix>
</trkpt>
<trkpt lat="40.0716648" lon="-105.2298961">
  <ele>1582.95</ele>
  <time>2026-08-28T17:49:31Z</time>
  <course>352.26</course>
  <speed>3.541412147717348</speed>
  <fix>3d</fix>
</trkpt>
<trkpt lat="40.0716573" lon="-105.2298943">
  <ele>1583.0</ele>
  <time>2026-08-28T17:49:31Z</time>
  <course>348.86</course>
  <speed>3.84</speed>
  <fix>3d</fix>
</trkpt>
<trkpt lat="40.071668" lon="-105.2298967">
  <ele>1582.95</ele>
  <time>2026-08-28T17:49:31Z</time>
  <course>353.91</course>
  <speed>3.415918617297549</speed>
  <fix>3d</fix>
</trkpt>
<trkpt lat="40.071664" lon="-105.2298958">
  <ele>1583.0</ele>
  <time>2026-08-28T17:49:31Z</time>
  <course>351.4</course>
  <speed>3.6</speed>
  <fix>3d</fix>
</trkpt>
<trkpt lat="40.071671" lon="-105.229897">
  <ele>1582.95</ele>
  <time>2026-08-28T17:49:31Z</time>
  <course>355.83</course>
  <speed>3.292795165205391</speed>
  <fix>3d</fix>
</trkpt>
<trkpt lat="40.071664" lon="-105.2298958">
  <ele>1583.0</ele>
  <time>2026-08-28T17:49:31Z</time>
  <course>351.4</course>
  <speed>3.6</speed>
  <fix>3d</fix>
</trkpt>
<trkpt lat="40.0716739" lon="-105.2298973">
  <ele>1582.95</ele>
  <time>2026-08-28T17:49:31Z</time>
  <course>357.93</course>
  <speed>3.1640480400904156</speed>
  <fix>3d</fix>
</trkpt>
<trkpt lat="40.0716702" lon="-105.2298968">
  <ele>1583.0</ele>
  <time>2026-08-28T17:49:31Z</time>
  <course>354.92</course>
  <speed>3.36</speed>
  <fix>3d</fix>
</trkpt>
<trkpt lat="40.0716767" lon="-105.2298974">
  <ele>1582.96</ele>
  <time>2026-08-28T17:49:31Z</time>
  <course>0.15</course>
  <speed>3.040148022712052</speed>
  <fix>3d</fix>
</trkpt>
<trkpt lat="40.0716702" lon="-105.2298968">
  <ele>1583.0</ele>
  <time>2026-08-28T17:49:31Z</time>
  <course>354.92</course>
  <speed>3.36</speed>
  <fix>3d</fix>
</trkpt>
<trkpt lat="40.0716795" lon="-105.2298973">
  <ele>1582.96</ele>
  <time>2026-08-28T17:49:31Z</time>
  <course>2.55</course>
  <speed>2.92138665705175</speed>
  <fix>3d</fix>
</trkpt>
<trkpt lat="40.0716759" lon="-105.2298972">
  <ele>1583.0</ele>
  <time>2026-08-28T17:49:31Z</time>
  <course>359.25</course>
  <speed>3.12</speed>
  <fix>3d</fix>
</trkpt>
<trkpt lat="40.0716821" lon="-105.2298971">
  <ele>1582.97</ele>
  <time>2026-08-28T17:49:31Z</time>
  <course>5.12</course>
  <speed>2.798660393831306</speed>
  <fix>3d</fix>
</trkpt>
<trkpt lat="40.0716759" lon="-105.2298972">
  <ele>1583.0</ele>
  <time>2026-08-28T17:49:31Z</time>
  <course>359.25</course>
  <speed>3.12</speed>
  <fix>3d</fix>
</trkpt>
<trkpt lat="40.0716845" lon="-105.2298967">
  <ele>1582.97</ele>
  <time>2026-08-28T17:49:31Z</time>
  <course>7.89</course>
  <speed>2.682927505543152</speed>
  <fix>3d</fix>
</trkpt>
<trkpt lat="40.0716759" lon="-105.2298972">
  <ele>1583.0</ele>
  <time>2026-08-28T17:49:31Z</time>
  <course>359.25</course>
  <speed>3.12</speed>
  <fix>3d</fix>
</trkpt>
<trkpt lat="40.0716869" lon="-105.2298962">
  <ele>1582.96</ele>
  <time>2026-08-28T17:49:31Z</time>
  <course>10.86</course>
  <speed>2.563454700204394</speed>
  <fix>3d</fix>
</trkpt>
<trkpt lat="40.0716814" lon="-105.2298969">
  <ele>1583.0</ele>
  <time>2026-08-28T17:49:31Z</time>
  <course>4.25</course>
  <speed>2.88</speed>
  <fix>3d</fix>
</trkpt>
<trkpt lat="40.0716891" lon="-105.2298955">
  <ele>1582.96</ele>
  <time>2026-08-28T17:49:31Z</time>
  <course>14.04</course>
  <speed>2.4423349483639627</speed>
  <fix>3d</fix>
</trkpt>
<trkpt lat="40.0716814" lon="-105.2298969">
  <ele>1583.0</ele>
  <time>2026-08-28T17:49:31Z</time>
  <course>4.25</course>
  <speed>2.88</speed>
  <fix>3d</fix>
</trkpt>
<trkpt lat="40.0716912" lon="-105.2298948">
  <ele>1582.96</ele>
  <time>2026-08-28T17:49:31Z</time>
  <course>17.45</course>
  <speed>2.327745690577044</speed>
  <fix>3d</fix>
</trkpt>
<trkpt lat="40.0716863" lon="-105.2298962">
  <ele>1583.0</ele>
  <time>2026-08-28T17:49:31Z</time>
  <course>10.0</course>
  <speed>2.64</speed>
  <fix>3d</fix>
</trkpt>
<trkpt lat="40.0716931" lon="-105.2298939">
  <ele>1582.96</ele>
  <time>2026-08-28T17:49:31Z</time>
  <course>21.09</course>
  <speed>2.2135265979879257</speed>
  <fix>3d</fix>
</trkpt>
<trkpt lat="40.0716863" lon="-105.2298962">
  <ele>1583.0</ele>
  <time>2026-08-28T17:49:31Z</time>
  <course>10.0</course>
  <speed>2.64</speed>
  <fix>3d</fix>
</trkpt>
<trkpt lat="40.0716949" lon="-105.2298929">
  <ele>1582.96</ele>
  <time>2026-08-28T17:49:31Z</time>
  <course>24.87</course>
  <speed>2.1157031927943013</speed>
  <fix>3d</fix>
</trkpt>
<trkpt lat="40.0716907" lon="-105.2298949">
  <ele>1583.0</ele>
  <time>2026-08-28T17:49:31Z</time>
  <course>16.59</course>
  <speed>2.41</speed>
  <fix>3d</fix>
</trkpt>
<trkpt lat="40.0716966" lon="-105.2298917">
  <ele>1582.95</ele>
  <time>2026-08-28T17:49:31Z</time>
  <course>28.78</course>
  <speed>2.024252948620799</speed>
  <fix>3d</fix>
</trkpt>
<trkpt lat="40.0716946" lon="-105.229893">
  <ele>1583.0</ele>
  <time>2026-08-28T17:49:31Z</time>
  <course>23.96</course>
  <speed>2.2</speed>
  <fix>3d</fix>
</trkpt>
<trkpt lat="40.0716981" lon="-105.2298905">
  <ele>1582.95</ele>
  <time>2026-08-28T17:49:31Z</time>
  <course>32.72</course>
  <speed>1.9525624189766637</speed>
  <fix>3d</fix>
</trkpt>
<trkpt lat="40.0716946" lon="-105.229893">
  <ele>1583.0</ele>
  <time>2026-08-28T17:49:31Z</time>
  <course>23.96</course>
  <speed>2.2</speed>
  <fix>3d</fix>
</trkpt>
<trkpt lat="40.0716995" lon="-105.2298891">
  <ele>1582.94</ele>
  <time>2026-08-28T17:49:31Z</time>
  <course>36.67</course>
  <speed>1.8944656238633626</speed>
  <fix>3d</fix>
</trkpt>
<trkpt lat="40.071698" lon="-105.2298907">
  <ele>1583.0</ele>
  <time>2026-08-28T17:49:31Z</time>
  <course>31.78</course>
  <speed>2.03</speed>
  <fix>3d</fix>
</trkpt>
<trkpt lat="40.0717009" lon="-105.2298877">
  <ele>1582.94</ele>
  <time>2026-08-28T17:49:31Z</time>
  <course>40.56</course>
  <speed>1.8478365728602733</speed>
  <fix>3d</fix>
</trkpt>
<trkpt lat="40.071698" lon="-105.2298907">
  <ele>1583.0</ele>
  <time>2026-08-28T17:49:31Z</time>
  <course>31.78</course>
  <speed>2.03</speed>
  <fix>3d</fix>
</trkpt>
<trkpt lat="40.0717021" lon="-105.2298862">
  <ele>1582.94</ele>
  <time>2026-08-28T17:49:31Z</time>
  <course>44.43</course>
  <speed>1.824828759089466</speed>
  <fix>3d</fix>
</trkpt>
<trkpt lat="40.0717008" lon="-105.229888">
  <ele>1583.0</ele>
  <time>2026-08-28T17:49:31Z</time>
  <course>39.69</course>
  <speed>1.92</speed>
  <fix>3d</fix>
</trkpt>
<trkpt lat="40.0717032" lon="-105.2298845">
  <ele>1582.94</ele>
  <time>2026-08-28T17:49:31Z</time>
  <course>48.21</course>
  <speed>1.8181309083781618</speed>
  <fix>3d</fix>
</trkpt>
<trkpt lat="40.0717008" lon="-105.229888">
  <ele>1583.0</ele>
  <time>2026-08-28T17:49:31Z</time>
  <course>39.69</course>
  <speed>1.92</speed>
  <fix>3d</fix>
</trkpt>
<trkpt lat="40.0717043" lon="-105.2298828">
  <ele>1582.94</ele>
  <time>2026-08-28T17:49:31Z</time>
  <course>51.86</course>
  <speed>1.8262803727796015</speed>
  <fix>3d</fix>
</trkpt>
<trkpt lat="40.0717033" lon="-105.229885">
  <ele>1583.0</ele>
  <time>2026-08-28T17:49:31Z</time>
  <course>47.39</course>
  <speed>1.87</speed>
  <fix>3d</fix>
</trkpt>
<trkpt lat="40.0717053" lon="-105.229881">
  <ele>1582.94</ele>
  <time>2026-08-28T17:49:31Z</time>
  <course>55.4</course>
  <speed>1.8476200908195386</speed>
  <fix>3d</fix>
</trkpt>
<trkpt lat="40.0717033" lon="-105.229885">
  <ele>1583.0</ele>
  <time>2026-08-28T17:49:31Z</time>
  <course>47.39</course>
  <speed>1.87</speed>
  <fix>3d</fix>
</trkpt>
<trkpt lat="40.0717062" lon="-105.2298791">
  <ele>1582.94</ele>
  <time>2026-08-28T17:49:31Z</time>
  <course>58.75</course>
  <speed>1.8843035848822236</speed>
  <fix>3d</fix>
</trkpt>
<trkpt lat="40.0717054" lon="-105.2298816">
  <ele>1583.0</ele>
  <time>2026-08-28T17:49:31Z</time>
  <course>54.61</course>
  <speed>1.89</speed>
  <fix>3d</fix>
</trkpt>
<trkpt lat="40.071707" lon="-105.2298771">
  <ele>1582.95</ele>
  <time>2026-08-28T17:49:31Z</time>
  <course>61.93</course>
  <speed>1.9411594473406868</speed>
  <fix>3d</fix>
</trkpt>
<trkpt lat="40.0717054" lon="-105.2298816">
  <ele>1583.0</ele>
  <time>2026-08-28T17:49:31Z</time>
  <course>54.61</course>
  <speed>1.89</speed>
  <fix>3d</fix>
</trkpt>
<trkpt lat="40.0717078" lon="-105.2298749">
  <ele>1582.95</ele>
  <time>2026-08-28T17:49:31Z</time>
  <course>64.94</course>
  <speed>2.007710138441304</speed>
  <fix>3d</fix>
</trkpt>
<trkpt lat="40.0717073" lon="-105.2298777">
  <ele>1583.0</ele>
  <time>2026-08-28T17:49:31Z</time>
  <course>61.2</course>
  <speed>1.96</speed>
  <fix>3d</fix>
</trkpt>
<trkpt lat="40.0717086" lon="-105.2298727">
  <ele>1582.95</ele>
  <time>2026-08-28T17:49:31Z</time>
  <course>67.78</course>
  <speed>2.08806130178211</speed>
  <fix>3d</fix>
</trkpt>
<trkpt lat="40.0717073" lon="-105.2298777">
  <ele>1583.0</ele>
  <time>2026-08-28T17:49:31Z</time>
  <course>61.2</course>
  <speed>1.96</speed>
  <fix>3d</fix>
</trkpt>
<trkpt lat="40.0717092" lon="-105.2298703">
  <ele>1582.95</ele>
  <time>2026-08-28T17:49:31Z</time>
  <course>70.46</course>
  <speed>2.1822007240398396</speed>
  <fix>3d</fix>
</trkpt>
<trkpt lat="40.0717089" lon="-105.2298734">
  <ele>1583.0</ele>
  <time>2026-08-28T17:49:31Z</time>
  <course>67.09</course>
  <speed>2.1</speed>
  <fix>3d</fix>
</trkpt>
<trkpt lat="40.0717099" lon="-105.2298677">
  <ele>1582.95</ele>
  <time>2026-08-28T17:49:31Z</time>
  <course>72.97</course>
  <speed>2.280350850198276</speed>
  <fix>3d</fix>
</trkpt>
<trkpt lat="40.0717089" lon="-105.2298734">
  <ele>1583.0</ele>
  <time>2026-08-28T17:49:31Z</time>
  <course>67.09</course>
  <speed>2.1</speed>
  <fix>3d</fix>
</trkpt>
<trkpt lat="40.0717104" lon="-105.2298651">
  <ele>1582.95</ele>
  <time>2026-08-28T17:49:31Z</time>
  <course>75.34</course>
  <speed>2.389518780005715</speed>
  <fix>3d</fix>
</trkpt>
<trkpt lat="40.0717089" lon="-105.2298734">
  <ele>1583.0</ele>
  <time>2026-08-28T17:49:31Z</time>
  <course>67.09</course>
  <speed>2.1</speed>
  <fix>3d</fix>
</trkpt>
<trkpt lat="40.071711" lon="-105.2298622">
  <ele>1582.96</ele>
  <time>2026-08-28T17:49:31Z</time>
  <course>77.57</course>
  <speed>2.504495957273639</speed>
  <fix>3d</fix>
</trkpt>
<trkpt lat="40.0717102" lon="-105.2298686">
  <ele>1583.0</ele>
  <time>2026-08-28T17:49:31Z</time>
  <course>72.32</course>
  <speed>2.27</speed>
  <fix>3d</fix>
</trkpt>
<trkpt lat="40.0717114" lon="-105.2298593">
  <ele>1582.96</ele>
  <time>2026-08-28T17:49:31Z</time>
  <course>79.66</course>
  <speed>2.632128416320146</speed>
  <fix>3d</fix>
</trkpt>
<trkpt lat="40.0717102" lon="-105.2298686">
  <ele>1583.0</ele>
  <time>2026-08-28T17:49:31Z</time>
  <course>72.32</course>
  <speed>2.27</speed>
  <fix>3d</fix>
</trkpt>
<trkpt lat="40.0717118" lon="-105.2298562">
  <ele>1582.96</ele>
  <time>2026-08-28T17:49:31Z</time>
  <course>81.63</course>
  <speed>2.7610143063736556</speed>
  <fix>3d</fix>
</trkpt>
<trkpt lat="40.0717114" lon="-105.2298632">
  <ele>1583.0</ele>
  <time>2026-08-28T17:49:31Z</time>
  <course>76.93</course>
  <speed>2.49</speed>
  <fix>3d</fix>
</trkpt>
<trkpt lat="40.0717121" lon="-105.2298529">
  <ele>1582.96</ele>
  <time>2026-08-28T17:49:31Z</time>
  <course>83.49</course>
  <speed>2.8926285623978756</speed>
  <fix>3d</fix>
</trkpt>
<trkpt lat="40.0717114" lon="-105.2298632">
  <ele>1583.0</ele>
  <time>2026-08-28T17:49:31Z</time>
  <course>76.93</course>
  <speed>2.49</speed>
  <fix>3d</fix>
</trkpt>
<trkpt lat="40.0717124" lon="-105.2298494">
  <ele>1582.96</ele>
  <time>2026-08-28T17:49:31Z</time>
  <course>85.19</course>
  <speed>3.0365934861288237</speed>
  <fix>3d</fix>
</trkpt>
<trkpt lat="40.0717122" lon="-105.2298572">
  <ele>1583.0</ele>
  <time>2026-08-28T17:49:31Z</time>
  <course>80.99</course>
  <speed>2.73</speed>
  <fix>3d</fix>
</trkpt>
<trkpt lat="40.0717126" lon="-105.2298458">
  <ele>1582.96</ele>
  <time>2026-08-28T17:49:31Z</time>
  <course>86.65</course>
  <speed>3.1730899766631264</speed>
  <fix>3d</fix>
</trkpt>
<trkpt lat="40.0717122" lon="-105.2298572">
  <ele>1583.0</ele>
  <time>2026-08-28T17:49:31Z</time>
  <course>80.99</course>
  <speed>2.73</speed>
  <fix>3d</fix>
</trkpt>
<trkpt lat="40.0717128" lon="-105.229842">
  <ele>1582.97</ele>
  <time>2026-08-28T17:49:31Z</time>
  <course>87.92</course>
  <speed>3.320737869811467</speed>
  <fix>3d</fix>
</trkpt>
<trkpt lat="40.0717128" lon="-105.2298505">
  <ele>1583.0</ele>
  <time>2026-08-28T17:49:31Z</time>
  <course>84.46</course>
  <speed>3.0</speed>
  <fix>3d</fix>
</trkpt>
<trkpt lat="40.0717129" lon="-105.2298381">
  <ele>1582.97</ele>
  <time>2026-08-28T17:49:31Z</time>
  <course>88.99</course>
  <speed>3.4600578029853777</speed>
  <fix>3d</fix>
</trkpt>
<trkpt lat="40.0717133" lon="-105.2298431">
  <ele>1583.0</ele>
  <time>2026-08-28T17:49:31Z</time>
  <course>87.18</course>
  <speed>3.27</speed>
  <fix>3d</fix>
</trkpt>
<trkpt lat="40.071713" lon="-105.2298339">
  <ele>1582.98</ele>
  <time>2026-08-28T17:49:31Z</time>
  <course>89.88</course>
  <speed>3.6000555551268927</speed>
  <fix>3d</fix>
</trkpt>
<trkpt lat="40.0717133" lon="-105.2298431">
  <ele>1583.0</ele>
  <time>2026-08-28T17:49:31Z</time>
  <course>87.18</course>
  <speed>3.27</speed>
  <fix>3d</fix>
</trkpt>
<trkpt lat="40.071713" lon="-105.2298296">
  <ele>1582.98</ele>
  <time>2026-08-28T17:49:31Z</time>
  <course>90.6</course>
  <speed>3.7404812524593676</speed>
  <fix>3d</fix>
</trkpt>
<trkpt lat="40.0717135" lon="-105.2298351">
  <ele>1583.0</ele>
  <time>2026-08-28T17:49:31Z</time>
  <course>89.13</course>
  <speed>3.55</speed>
  <fix>3d</fix>
</trkpt>
<trkpt lat="40.071713" lon="-105.2298251">
  <ele>1582.98</ele>
  <time>2026-08-28T17:49:31Z</time>
  <course>91.18</course>
  <speed>3.8812884458643366</speed>
  <fix>3d</fix>
</trkpt>
<trkpt lat="40.0717135" lon="-105.2298351">
  <ele>1583.0</ele>
  <time>2026-08-28T17:49:31Z</time>
  <course>89.13</course>
  <speed>3.55</speed>
  <fix>3d</fix>
</trkpt>
<trkpt lat="40.0717129" lon="-105.2298205">
  <ele>1582.98</ele>
  <time>2026-08-28T17:49:31Z</time>
  <course>91.62</course>
  <speed>4.022101440789379</speed>
  <fix>3d</fix>
</trkpt>
<trkpt lat="40.0717135" lon="-105.2298265">
  <ele>1583.0</ele>
  <time>2026-08-28T17:49:31Z</time>
  <course>90.44</course>
  <speed>3.83</speed>
  <fix>3d</fix>
</trkpt>
<trkpt lat="40.0717129" lon="-105.2298156">
  <ele>1582.98</ele>
  <time>2026-08-28T17:49:31Z</time>
  <course>91.93</course>
  <speed>4.152709958569224</speed>
  <fix>3d</fix>
</trkpt>
<trkpt lat="40.0717135" lon="-105.2298265">
  <ele>1583.0</ele>
  <time>2026-08-28T17:49:31Z</time>
  <course>90.44</course>
  <speed>3.83</speed>
  <fix>3d</fix>
</trkpt>
<trkpt lat="40.0717128" lon="-105.2298106">
  <ele>1582.98</ele>
  <time>2026-08-28T17:49:31Z</time>
  <course>92.12</course>
  <speed>4.282989610073786</speed>
  <fix>3d</fix>
</trkpt>
<trkpt lat="40.0717134" lon="-105.2298171">
  <ele>1583.0</ele>
  <time>2026-08-28T17:49:31Z</time>
  <course>91.2</course>
  <speed>4.09</speed>
  <fix>3d</fix>
</trkpt>
<trkpt lat="40.0717128" lon="-105.2298055">
  <ele>1582.98</ele>
  <time>2026-08-28T17:49:31Z</time>
  <course>92.2</course>
  <speed>4.413275427616092</speed>
  <fix>3d</fix>
</trkpt>
<trkpt lat="40.0717134" lon="-105.2298171">
  <ele>1583.0</ele>
  <time>2026-08-28T17:49:31Z</time>
  <course>91.2</course>
  <speed>4.09</speed>
  <fix>3d</fix>
</trkpt>
<trkpt lat="40.0717127" lon="-105.2298002">
  <ele>1582.98</ele>
  <time>2026-08-28T17:49:31Z</time>
  <course>92.23</course>
  <speed>4.543181704488607</speed>
  <fix>3d</fix>
</trkpt>
<trkpt lat="40.0717133" lon="-105.2298072">
  <ele>1583.0</ele>
  <time>2026-08-28T17:49:31Z</time>
  <course>91.51</course>
  <speed>4.35</speed>
  <fix>3d</fix>
</trkpt>
<trkpt lat="40.0717126" lon="-105.2297948">
  <ele>1582.98</ele>
  <time>2026-08-28T17:49:31Z</time>
  <course>92.26</course>
  <speed>4.663099827368057</speed>
  <fix>3d</fix>
</trkpt>
<trkpt lat="40.0717133" lon="-105.2298072">
  <ele>1583.0</ele>
  <time>2026-08-28T17:49:31Z</time>
  <course>91.51</course>
  <speed>4.35</speed>
  <fix>3d</fix>
</trkpt>
<trkpt lat="40.0717125" lon="-105.2297892">
  <ele>1582.98</ele>
  <time>2026-08-28T17:49:31Z</time>
  <course>92.3</course>
  <speed>4.773395018223402</speed>
  <fix>3d</fix>
</trkpt>
<trkpt lat="40.071713" lon="-105.2297967">
  <ele>1583.0</ele>
  <time>2026-08-28T17:49:31Z</time>
  <course>91.6</course>
  <speed>4.59</speed>
  <fix>3d</fix>
</trkpt>
<trkpt lat="40.0717124" lon="-105.2297835">
  <ele>1582.98</ele>
  <time>2026-08-28T17:49:31Z</time>
  <course>92.32</course>
  <speed>4.883318543777377</speed>
  <fix>3d</fix>
</trkpt>
<trkpt lat="40.071713" lon="-105.2297967">
  <ele>1583.0</ele>
  <time>2026-08-28T17:49:31Z</time>
  <course>91.6</course>
  <speed>4.59</speed>
  <fix>3d</fix>
</trkpt>
<trkpt lat="40.0717122" lon="-105.2297777">
  <ele>1582.98</ele>
  <time>2026-08-28T17:49:31Z</time>
  <course>92.37</course>
  <speed>4.993245437588663</speed>
  <fix>3d</fix>
</trkpt>
<trkpt lat="40.0717128" lon="-105.2297857">
  <ele>1583.0</ele>
  <time>2026-08-28T17:49:31Z</time>
  <course>91.68</course>
  <speed>4.81</speed>
  <fix>3d</fix>
</trkpt>
<trkpt lat="40.0717121" lon="-105.2297718">
  <ele>1582.98</ele>
  <time>2026-08-28T17:49:31Z</time>
  <course>92.39</course>
  <speed>5.08318797606384</speed>
  <fix>3d</fix>
</trkpt>
<trkpt lat="40.0717128" lon="-105.2297857">
  <ele>1583.0</ele>
  <time>2026-08-28T17:49:31Z</time>
  <course>91.68</course>
  <speed>4.81</speed>
  <fix>3d</fix>
</trkpt>
<trkpt lat="40.071712" lon="-105.2297658">
  <ele>1582.98</ele>
  <time>2026-08-28T17:49:31Z</time>
  <course>92.42</course>
  <speed>5.163138580359819</speed>
  <fix>3d</fix>
</trkpt>
<trkpt lat="40.0717128" lon="-105.2297857">
  <ele>1583.0</ele>
  <time>2026-08-28T17:49:31Z</time>
  <course>91.68</course>
  <speed>4.81</speed>
  <fix>3d</fix>
</trkpt>
<trkpt lat="40.0717119" lon="-105.2297598">
  <ele>1582.98</ele>
  <time>2026-08-28T17:49:31Z</time>
  <course>92.46</course>
  <speed>5.23345010485435</speed>
  <fix>3d</fix>
</trkpt>
<trkpt lat="40.0717126" lon="-105.2297742">
  <ele>1583.0</ele>
  <time>2026-08-28T17:49:31Z</time>
  <course>91.74</course>
  <speed>5.0</speed>
  <fix>3d</fix>
</trkpt>
<trkpt lat="40.0717118" lon="-105.2297537">
  <ele>1582.98</ele>
  <time>2026-08-28T17:49:31Z</time>
  <course>92.51</course>
  <speed>5.2934109985906055</speed>
  <fix>3d</fix>
</trkpt>
<trkpt lat="40.0717126" lon="-105.2297742">
  <ele>1583.0</ele>
  <time>2026-08-28T17:49:31Z</time>
  <course>91.74</course>
  <speed>5.0</speed>
  <fix>3d</fix>
</trkpt>
<trkpt lat="40.0717116" lon="-105.2297475">
  <ele>1582.98</ele>
  <time>2026-08-28T17:49:31Z</time>
  <course>92.52</course>
  <speed>5.343379080694164</speed>
  <fix>3d</fix>
</trkpt>
<trkpt lat="40.0717123" lon="-105.2297622">
  <ele>1583.0</ele>
  <time>2026-08-28T17:49:31Z</time>
  <course>91.82</course>
  <speed>5.15</speed>
  <fix>3d</fix>
</trkpt>
<trkpt lat="40.0717115" lon="-105.2297413">
  <ele>1582.98</ele>
  <time>2026-08-28T17:49:31Z</time>
  <course>92.56</course>
  <speed>5.373360214986522</speed>
  <fix>3d</fix>
</trkpt>
<trkpt lat="40.0717123" lon="-105.2297622">
  <ele>1583.0</ele>
  <time>2026-08-28T17:49:31Z</time>
  <course>91.82</course>
  <speed>5.15</speed>
  <fix>3d</fix>
</trkpt>
<trkpt lat="40.0717114" lon="-105.2297351">
  <ele>1582.98</ele>
  <time>2026-08-28T17:49:31Z</time>
  <course>92.62</course>
  <speed>5.393347754410056</speed>
  <fix>3d</fix>
</trkpt>
<trkpt lat="40.071712" lon="-105.22975">
  <ele>1583.0</ele>
  <time>2026-08-28T17:49:31Z</time>
  <course>91.9</course>
  <speed>5.26</speed>
  <fix>3d</fix>
</trkpt>
<trkpt lat="40.0717112" lon="-105.2297289">
  <ele>1582.98</ele>
  <time>2026-08-28T17:49:31Z</time>
  <course>92.64</course>
  <speed>5.403341558702356</speed>
  <fix>3d</fix>
</trkpt>
<trkpt lat="40.0717116" lon="-105.2297375">
  <ele>1583.0</ele>
  <time>2026-08-28T17:49:31Z</time>
  <course>91.97</course>
  <speed>5.33</speed>
  <fix>3d</fix>
</trkpt>
<trkpt lat="40.0717111" lon="-105.2297226">
  <ele>1582.98</ele>
  <time>2026-08-28T17:49:31Z</time>
  <course>92.65</course>
  <speed>5.403341558702356</speed>
  <fix>3d</fix>
</trkpt>
<trkpt lat="40.0717116" lon="-105.2297375">
  <ele>1583.0</ele>
  <time>2026-08-28T17:49:31Z</time>
  <course>91.97</course>
  <speed>5.33</speed>
  <fix>3d</fix>
</trkpt>
<trkpt lat="40.0717109" lon="-105.2297163">
  <ele>1582.98</ele>
  <time>2026-08-28T17:49:31Z</time>
  <course>92.7</course>
  <speed>5.403341558702356</speed>
  <fix>3d</fix>
</trkpt>
<trkpt lat="40.0717113" lon="-105.229725">
  <ele>1583.0</ele>
  <time>2026-08-28T17:49:31Z</time>
  <course>92.04</course>
  <speed>5.35</speed>
  <fix>3d</fix>
</trkpt>
<trkpt lat="40.0717108" lon="-105.2297101">
  <ele>1582.98</ele>
  <time>2026-08-28T17:49:31Z</time>
  <course>92.72</course>
  <speed>5.3833539731286475</speed>
  <fix>3d</fix>
</trkpt>
<trkpt lat="40.0717113" lon="-105.229725">
  <ele>1583.0</ele>
  <time>2026-08-28T17:49:31Z</time>
  <course>92.04</course>
  <speed>5.35</speed>
  <fix>3d</fix>
</trkpt>
<trkpt lat="40.0717106" lon="-105.2297038">
  <ele>1582.98</ele>
  <time>2026-08-28T17:49:31Z</time>
  <course>92.73</course>
  <speed>5.363366480113027</speed>
  <fix>3d</fix>
</trkpt>
<trkpt lat="40.0717109" lon="-105.2297124">
  <ele>1583.0</ele>
  <time>2026-08-28T17:49:31Z</time>
  <course>92.09</course>
  <speed>5.33</speed>
  <fix>3d</fix>
</trkpt>
<trkpt lat="40.0717105" lon="-105.2296975">
  <ele>1582.98</ele>
  <time>2026-08-28T17:49:31Z</time>
  <course>92.76</course>
  <speed>5.333385416412356</speed>
  <fix>3d</fix>
</trkpt>
<trkpt lat="40.0717109" lon="-105.2297124">
  <ele>1583.0</ele>
  <time>2026-08-28T17:49:31Z</time>
  <course>92.09</course>
  <speed>5.33</speed>
  <fix>3d</fix>
</trkpt>
<trkpt lat="40.0717103" lon="-105.2296913">
  <ele>1582.98</ele>
  <time>2026-08-28T17:49:31Z</time>
  <course>92.76</course>
  <speed>5.303404566879657</speed>
  <fix>3d</fix>
</trkpt>
<trkpt lat="40.0717106" lon="-105.2296999">
  <ele>1583.0</ele>
  <time>2026-08-28T17:49:31Z</time>
  <course>92.13</course>
  <speed>5.29</speed>
  <fix>3d</fix>
</trkpt>
<trkpt lat="40.0717101" lon="-105.2296851">
  <ele>1582.98</ele>
  <time>2026-08-28T17:49:31Z</time>
  <course>92.78</course>
  <speed>5.263430440311717</speed>
  <fix>3d</fix>
</trkpt>
<trkpt lat="40.0717106" lon="-105.2296999">
  <ele>1583.0</ele>
  <time>2026-08-28T17:49:31Z</time>
  <course>92.13</course>
  <speed>5.29</speed>
  <fix>3d</fix>
</trkpt>
<trkpt lat="40.07171" lon="-105.229679">
  <ele>1582.98</ele>
  <time>2026-08-28T17:49:31Z</time>
  <course>92.78</course>
  <speed>5.223102526276887</speed>
  <fix>3d</fix>
</trkpt>
<trkpt lat="40.0717102" lon="-105.2296876">
  <ele>1583.0</ele>
  <time>2026-08-28T17:49:31Z</time>
  <course>92.16</course>
  <speed>5.22</speed>
  <fix>3d</fix>
</trkpt>
<trkpt lat="40.0717098" lon="-105.2296729">
  <ele>1582.98</ele>
  <time>2026-08-28T17:49:31Z</time>
  <course>92.78</course>
  <speed>5.183126469612719</speed>
  <fix>3d</fix>
</trkpt>
<trkpt lat="40.0717102" lon="-105.2296876">
  <ele>1583.0</ele>
  <time>2026-08-28T17:49:31Z</time>
  <course>92.16</course>
  <speed>5.22</speed>
  <fix>3d</fix>
</trkpt>
<trkpt lat="40.0717097" lon="-105.2296669">
  <ele>1582.99</ele>
  <time>2026-08-28T17:49:31Z</time>
  <course>92.77</course>
  <speed>5.143150785267724</speed>
  <fix>3d</fix>
</trkpt>
<trkpt lat="40.0717099" lon="-105.2296754">
  <ele>1583.0</ele>
  <time>2026-08-28T17:49:31Z</time>
  <course>92.17</course>
  <speed>5.15</speed>
  <fix>3d</fix>
</trkpt>
<trkpt lat="40.0717095" lon="-105.2296609">
  <ele>1582.99</ele>
  <time>2026-08-28T17:49:31Z</time>
  <course>92.77</course>
  <speed>5.102832546733236</speed>
  <fix>3d</fix>
</trkpt>
<trkpt lat="40.0717099" lon="-105.2296754">
  <ele>1583.0</ele>
  <time>2026-08-28T17:49:31Z</time>
  <course>92.17</course>
  <speed>5.15</speed>
  <fix>3d</fix>
</trkpt>
<trkpt lat="40.0717093" lon="-105.2296549">
  <ele>1582.99</ele>
  <time>2026-08-28T17:49:31Z</time>
  <course>92.76</course>
  <speed>5.0628549258298925</speed>
  <fix>3d</fix>
</trkpt>
<trkpt lat="40.0717096" lon="-105.2296634">
  <ele>1583.0</ele>
  <time>2026-08-28T17:49:31Z</time>
  <course>92.17</course>
  <speed>5.08</speed>
  <fix>3d</fix>
</trkpt>
<trkpt lat="40.0717092" lon="-105.229649">
  <ele>1582.98</ele>
  <time>2026-08-28T17:49:31Z</time>
  <course>92.76</course>
  <speed>5.032871943532837</speed>
  <fix>3d</fix>
</trkpt>
<trkpt lat="40.0717096" lon="-105.2296634">
  <ele>1583.0</ele>
  <time>2026-08-28T17:49:31Z</time>
  <course>92.17</course>
  <speed>5.08</speed>
  <fix>3d</fix>
</trkpt>
<trkpt lat="40.071709" lon="-105.2296432">
  <ele>1582.98</ele>
  <time>2026-08-28T17:49:31Z</time>
  <course>92.76</course>
  <speed>4.992894951829049</speed>
  <fix>3d</fix>
</trkpt>
<trkpt lat="40.0717096" lon="-105.2296634">
  <ele>1583.0</ele>
  <time>2026-08-28T17:49:31Z</time>
  <course>92.17</course>
  <speed>5.08</speed>
  <fix>3d</fix>
</trkpt>
<trkpt lat="40.0717089" lon="-105.2296374">
  <ele>1582.98</ele>
  <time>2026-08-28T17:49:31Z</time>
  <course>92.75</course>
  <speed>4.962912451373689</speed>
  <fix>3d</fix>
</trkpt>
<trkpt lat="40.0717092" lon="-105.2296516">
  <ele>1583.0</ele>
  <time>2026-08-28T17:49:31Z</time>
  <course>92.17</course>
  <speed>5.01</speed>
  <fix>3d</fix>
</trkpt>
<trkpt lat="40.0717087" lon="-105.2296317">
  <ele>1582.98</ele>
  <time>2026-08-28T17:49:31Z</time>
  <course>92.75</course>
  <speed>4.9325956655700045</speed>
  <fix>3d</fix>
</trkpt>
<trkpt lat="40.0717092" lon="-105.2296516">
  <ele>1583.0</ele>
  <time>2026-08-28T17:49:31Z</time>
  <course>92.17</course>
  <speed>5.01</speed>
  <fix>3d</fix>
</trkpt>
<trkpt lat="40.0717086" lon="-105.229626">
  <ele>1582.97</ele>
  <time>2026-08-28T17:49:31Z</time>
  <course>92.74</course>
  <speed>4.912606232948047</speed>
  <fix>3d</fix>
</trkpt>
<trkpt lat="40.0717089" lon="-105.2296399">
  <ele>1583.0</ele>
  <time>2026-08-28T17:49:31Z</time>
  <course>92.17</course>
  <speed>4.95</speed>
  <fix>3d</fix>
</trkpt>
<trkpt lat="40.0717084" lon="-105.2296204">
  <ele>1582.97</ele>
  <time>2026-08-28T17:49:31Z</time>
  <course>92.74</course>
  <speed>4.882622246293481</speed>
  <fix>3d</fix>
</trkpt>
<trkpt lat="40.0717089" lon="-105.2296399">
  <ele>1583.0</ele>
  <time>2026-08-28T17:49:31Z</time>
  <course>92.17</course>
  <speed>4.95</speed>
  <fix>3d</fix>
</trkpt>
<trkpt lat="40.0717083" lon="-105.2296148">
  <ele>1582.96</ele>
  <time>2026-08-28T17:49:31Z</time>
  <course>92.73</course>
  <speed>4.872627627882106</speed>
  <fix>3d</fix>
</trkpt>
<trkpt lat="40.0717085" lon="-105.2296283">
  <ele>1583.0</ele>
  <time>2026-08-28T17:49:31Z</time>
  <course>92.17</course>
  <speed>4.91</speed>
  <fix>3d</fix>
</trkpt>
<trkpt lat="40.0717081" lon="-105.2296091">
  <ele>1582.96</ele>
  <time>2026-08-28T17:49:31Z</time>
  <course>92.73</course>
  <speed>4.852638457581607</speed>
  <fix>3d</fix>
</trkpt>
<trkpt lat="40.0717085" lon="-105.2296283">
  <ele>1583.0</ele>
  <time>2026-08-28T17:49:31Z</time>
  <course>92.17</course>
  <speed>4.91</speed>
  <fix>3d</fix>
</trkpt>
<trkpt lat="40.0717079" lon="-105.2296035">
  <ele>1582.96</ele>
  <time>2026-08-28T17:49:31Z</time>
  <course>92.72</course>
  <speed>4.84264390596707</speed>
  <fix>3d</fix>
</trkpt>
<trkpt lat="40.0717082" lon="-105.2296168">
  <ele>1583.0</ele>
  <time>2026-08-28T17:49:31Z</time>
  <course>92.17</course>
  <speed>4.88</speed>
  <fix>3d</fix>
</trkpt>
<trkpt lat="40.0717078" lon="-105.2295979">
  <ele>1582.96</ele>
  <time>2026-08-28T17:49:31Z</time>
  <course>92.72</course>
  <speed>4.84264390596707</speed>
  <fix>3d</fix>
</trkpt>
<trkpt lat="40.0717078" lon="-105.2296054">
  <ele>1583.0</ele>
  <time>2026-08-28T17:49:31Z</time>
  <course>92.17</course>
  <speed>4.86</speed>
  <fix>3d</fix>
</trkpt>
<trkpt lat="40.0717076" lon="-105.2295922">
  <ele>1582.96</ele>
  <time>2026-08-28T17:49:31Z</time>
  <course>92.72</course>
  <speed>4.84264390596707</speed>
  <fix>3d</fix>
</trkpt>
<trkpt lat="40.0717078" lon="-105.2296054">
  <ele>1583.0</ele>
  <time>2026-08-28T17:49:31Z</time>
  <course>92.17</course>
  <speed>4.86</speed>
  <fix>3d</fix>
</trkpt>
<trkpt lat="40.0717075" lon="-105.2295866">
  <ele>1582.96</ele>
  <time>2026-08-28T17:49:31Z</time>
  <course>92.72</course>
  <speed>4.84264390596707</speed>
  <fix>3d</fix>
</trkpt>
<trkpt lat="40.0717075" lon="-105.2295939">
  <ele>1583.0</ele>
  <time>2026-08-28T17:49:31Z</time>
  <course>92.17</course>
  <speed>4.87</speed>
  <fix>3d</fix>
</trkpt>
<trkpt lat="40.0717073" lon="-105.2295809">
  <ele>1582.96</ele>
  <time>2026-08-28T17:49:31Z</time>
  <course>92.73</course>
  <speed>4.84298461694852</speed>
  <fix>3d</fix>
</trkpt>
<trkpt lat="40.0717075" lon="-105.2295939">
  <ele>1583.0</ele>
  <time>2026-08-28T17:49:31Z</time>
  <course>92.17</course>
  <speed>4.87</speed>
  <fix>3d</fix>
</trkpt>
<trkpt lat="40.0717071" lon="-105.2295752">
  <ele>1582.96</ele>
  <time>2026-08-28T17:49:31Z</time>
  <course>92.74</course>
  <speed>4.852978466879901</speed>
  <fix>3d</fix>
</trkpt>
<trkpt lat="40.0717072" lon="-105.2295825">
  <ele>1583.0</ele>
  <time>2026-08-28T17:49:31Z</time>
  <course>92.17</course>
  <speed>4.88</speed>
  <fix>3d</fix>
</trkpt>
<trkpt lat="40.071707" lon="-105.2295694">
  <ele>1582.96</ele>
  <time>2026-08-28T17:49:31Z</time>
  <course>92.74</course>
  <speed>4.862972342096961</speed>
  <fix>3d</fix>
</trkpt>
<trkpt lat="40.0717072" lon="-105.2295825">
  <ele>1583.0</ele>
  <time>2026-08-28T17:49:31Z</time>
  <course>92.17</course>
  <speed>4.88</speed>
  <fix>3d</fix>
</trkpt>
<trkpt lat="40.0717068" lon="-105.2295636">
  <ele>1582.96</ele>
  <time>2026-08-28T17:49:31Z</time>
  <course>92.75</course>
  <speed>4.872966242444123</speed>
  <fix>3d</fix>
</trkpt>
<trkpt lat="40.0717068" lon="-105.229571">
  <ele>1583.0</ele>
  <time>2026-08-28T17:49:31Z</time>
  <course>92.17</course>
  <speed>4.89</speed>
  <fix>3d</fix>
</trkpt>
<trkpt lat="40.0717066" lon="-105.2295578">
  <ele>1582.95</ele>
  <time>2026-08-28T17:49:31Z</time>
  <course>92.76</course>
  <speed>4.88296016776709</speed>
  <fix>3d</fix>
</trkpt>
<trkpt lat="40.0717068" lon="-105.229571">
  <ele>1583.0</ele>
  <time>2026-08-28T17:49:31Z</time>
  <course>92.17</course>
  <speed>4.89</speed>
  <fix>3d</fix>
</trkpt>
<trkpt lat="40.0717064" lon="-105.229552">
  <ele>1582.95</ele>
  <time>2026-08-28T17:49:31Z</time>
  <course>92.76</course>
  <speed>4.892954117912818</speed>
  <fix>3d</fix>
</trkpt>
<trkpt lat="40.0717065" lon="-105.2295595">
  <ele>1583.0</ele>
  <time>2026-08-28T17:49:31Z</time>
  <course>92.17</course>
  <speed>4.91</speed>
  <fix>3d</fix>
</trkpt>
<trkpt lat="40.0717063" lon="-105.2295462">
  <ele>1582.95</ele>
  <time>2026-08-28T17:49:31Z</time>
  <course>92.77</course>
  <speed>4.902948092729516</speed>
  <fix>3d</fix>
</trkpt>
<trkpt lat="40.0717065" lon="-105.2295595">
  <ele>1583.0</ele>
  <time>2026-08-28T17:49:31Z</time>
  <course>92.17</course>
  <speed>4.91</speed>
  <fix>3d</fix>
</trkpt>
<trkpt lat="40.0717061" lon="-105.2295404">
  <ele>1582.94</ele>
  <time>2026-08-28T17:49:31Z</time>
  <course>92.78</course>
  <speed>4.913298281195637</speed>
  <fix>3d</fix>
</trkpt>
<trkpt lat="40.0717062" lon="-105.229548">
  <ele>1583.0</ele>
  <time>2026-08-28T17:49:31Z</time>
  <course>92.17</course>
  <speed>4.93</speed>
  <fix>3d</fix>
</trkpt>
<trkpt lat="40.0717059" lon="-105.2295346">
  <ele>1582.94</ele>
  <time>2026-08-28T17:49:31Z</time>
  <course>92.78</course>
  <speed>4.923291581858624</speed>
  <fix>3d</fix>
</trkpt>
<trkpt lat="40.0717062" lon="-105.229548">
  <ele>1583.0</ele>
  <time>2026-08-28T17:49:31Z</time>
  <course>92.17</course>
  <speed>4.93</speed>
  <fix>3d</fix>
</trkpt>
<trkpt lat="40.0717057" lon="-105.2295288">
  <ele>1582.94</ele>
  <time>2026-08-28T17:49:31Z</time>
  <course>92.79</course>
  <speed>4.933284909672256</speed>
  <fix>3d</fix>
</trkpt>
<trkpt lat="40.0717059" lon="-105.2295364">
  <ele>1583.0</ele>
  <time>2026-08-28T17:49:31Z</time>
  <course>92.17</course>
  <speed>4.95</speed>
  <fix>3d</fix>
</trkpt>
<trkpt lat="40.0717056" lon="-105.2295229">
  <ele>1582.93</ele>
  <time>2026-08-28T17:49:31Z</time>
  <course>92.79</course>
  <speed>4.943278264471868</speed>
  <fix>3d</fix>
</trkpt>
<trkpt lat="40.0717059" lon="-105.2295364">
  <ele>1583.0</ele>
  <time>2026-08-28T17:49:31Z</time>
  <course>92.17</course>
  <speed>4.95</speed>
  <fix>3d</fix>
</trkpt>
<trkpt lat="40.0717054" lon="-105.2295171">
  <ele>1582.93</ele>
  <time>2026-08-28T17:49:31Z</time>
  <course>92.8</course>
  <speed>4.943278264471868</speed>
  <fix>3d</fix>
</trkpt>
<trkpt lat="40.0717059" lon="-105.2295364">
  <ele>1583.0</ele>
  <time>2026-08-28T17:49:31Z</time>
  <course>92.17</course>
  <speed>4.95</speed>
  <fix>3d</fix>
</trkpt>
<trkpt lat="40.0717052" lon="-105.2295113">
  <ele>1582.93</ele>
  <time>2026-08-28T17:49:31Z</time>
  <course>92.8</course>
  <speed>4.953271646094125</speed>
  <fix>3d</fix>
</trkpt>
<trkpt lat="40.0717055" lon="-105.2295247">
  <ele>1583.0</ele>
  <time>2026-08-28T17:49:31Z</time>
  <course>92.17</course>
  <speed>4.97</speed>
  <fix>3d</fix>
</trkpt>
<trkpt lat="40.071705" lon="-105.2295054">
  <ele>1582.93</ele>
  <time>2026-08-28T17:49:31Z</time>
  <course>92.8</course>
  <speed>4.953645122533507</speed>
  <fix>3d</fix>
</trkpt>
<trkpt lat="40.0717055" lon="-105.2295247">
  <ele>1583.0</ele>
  <time>2026-08-28T17:49:31Z</time>
  <course>92.17</course>
  <speed>4.97</speed>
  <fix>3d</fix>
</trkpt>
<trkpt lat="40.0717049" lon="-105.2294997">
  <ele>1582.93</ele>
  <time>2026-08-28T17:49:31Z</time>
  <course>92.8</course>
  <speed>4.953645122533507</speed>
  <fix>3d</fix>
</trkpt>
<trkpt lat="40.0717052" lon="-105.229513">
  <ele>1583.0</ele>
  <time>2026-08-28T17:49:31Z</time>
  <course>92.17</course>
  <speed>4.98</speed>
  <fix>3d</fix>
</trkpt>
<trkpt lat="40.0717047" lon="-105.2294938">
  <ele>1582.93</ele>
  <time>2026-08-28T17:49:31Z</time>
  <course>92.81</course>
  <speed>4.963637778887577</speed>
  <fix>3d</fix>
</trkpt>
<trkpt lat="40.0717052" lon="-105.229513">
  <ele>1583.0</ele>
  <time>2026-08-28T17:49:31Z</time>
  <course>92.17</course>
  <speed>4.98</speed>
  <fix>3d</fix>
</trkpt>
<trkpt lat="40.0717045" lon="-105.229488">
  <ele>1582.93</ele>
  <time>2026-08-28T17:49:31Z</time>
  <course>92.81</course>
  <speed>4.963637778887577</speed>
  <fix>3d</fix>
</trkpt>
<trkpt lat="40.0717049" lon="-105.2295013">
  <ele>1583.0</ele>
  <time>2026-08-28T17:49:31Z</time>
  <course>92.17</course>
  <speed>4.99</speed>
  <fix>3d</fix>
</trkpt>
<trkpt lat="40.0717043" lon="-105.2294822">
  <ele>1582.93</ele>
  <time>2026-08-28T17:49:31Z</time>
  <course>92.81</course>
  <speed>4.963637778887577</speed>
  <fix>3d</fix>
</trkpt>
<trkpt lat="40.0717045" lon="-105.2294895">
  <ele>1583.0</ele>
  <time>2026-08-28T17:49:31Z</time>
  <course>92.17</course>
  <speed>5.01</speed>
  <fix>3d</fix>
</trkpt>
<trkpt lat="40.0717042" lon="-105.2294763">
  <ele>1582.93</ele>
  <time>2026-08-28T17:49:31Z</time>
  <course>92.82</course>
  <speed>4.973630464761128</speed>
  <fix>3d</fix>
</trkpt>
<trkpt lat="40.0717045" lon="-105.2294895">
  <ele>1583.0</ele>
  <time>2026-08-28T17:49:31Z</time>
  <course>92.17</course>
  <speed>5.01</speed>
  <fix>3d</fix>
</trkpt>
<trkpt lat="40.071704" lon="-105.2294704">
  <ele>1582.92</ele>
  <time>2026-08-28T17:49:31Z</time>
  <course>92.82</course>
  <speed>4.973630464761128</speed>
  <fix>3d</fix>
</trkpt>
<trkpt lat="40.0717042" lon="-105.2294778">
  <ele>1583.0</ele>
  <time>2026-08-28T17:49:31Z</time>
  <course>92.17</course>
  <speed>5.02</speed>
  <fix>3d</fix>
</trkpt>
<trkpt lat="40.0717038" lon="-105.2294646">
  <ele>1582.92</ele>
  <time>2026-08-28T17:49:31Z</time>
  <course>92.8</course>
  <speed>4.973630464761128</speed>
  <fix>3d</fix>
</trkpt>
<trkpt lat="40.0717042" lon="-105.2294778">
  <ele>1583.0</ele>
  <time>2026-08-28T17:49:31Z</time>
  <course>92.17</course>
  <speed>5.02</speed>
  <fix>3d</fix>
</trkpt>
<trkpt lat="40.0717036" lon="-105.2294587">
  <ele>1582.92</ele>
  <time>2026-08-28T17:49:31Z</time>
  <course>92.8</course>
  <speed>4.983623179976592</speed>
  <fix>3d</fix>
</trkpt>
<trkpt lat="40.0717038" lon="-105.2294661">
  <ele>1583.0</ele>
  <time>2026-08-28T17:49:31Z</time>
  <course>92.15</course>
  <speed>5.02</speed>
  <fix>3d</fix>
</trkpt>
<trkpt lat="40.0717035" lon="-105.2294528">
  <ele>1582.92</ele>
  <time>2026-08-28T17:49:31Z</time>
  <course>92.79</course>
  <speed>4.973630464761128</speed>
  <fix>3d</fix>
</trkpt>
<trkpt lat="40.0717038" lon="-105.2294661">
  <ele>1583.0</ele>
  <time>2026-08-28T17:49:31Z</time>
  <course>92.15</course>
  <speed>5.02</speed>
  <fix>3d</fix>
</trkpt>
<trkpt lat="40.0717033" lon="-105.2294469">
  <ele>1582.92</ele>
  <time>2026-08-28T17:49:31Z</time>
  <course>92.77</course>
  <speed>4.973630464761128</speed>
  <fix>3d</fix>
</trkpt>
<trkpt lat="40.0717035" lon="-105.2294542">
  <ele>1583.0</ele>
  <time>2026-08-28T17:49:31Z</time>
  <course>92.11</course>
  <speed>5.02</speed>
  <fix>3d</fix>
</trkpt>
<trkpt lat="40.0717031" lon="-105.2294409">
  <ele>1582.92</ele>
  <time>2026-08-28T17:49:31Z</time>
  <course>92.78</course>
  <speed>4.963637778887577</speed>
  <fix>3d</fix>
</trkpt>
<trkpt lat="40.0717035" lon="-105.2294542">
  <ele>1583.0</ele>
  <time>2026-08-28T17:49:31Z</time>
  <course>92.11</course>
  <speed>5.02</speed>
  <fix>3d</fix>
</trkpt>
<trkpt lat="40.0717029" lon="-105.229435">
  <ele>1582.92</ele>
  <time>2026-08-28T17:49:31Z</time>
  <course>92.76</course>
  <speed>4.943652495877921</speed>
  <fix>3d</fix>
</trkpt>
<trkpt lat="40.0717032" lon="-105.2294425">
  <ele>1583.0</ele>
  <time>2026-08-28T17:49:31Z</time>
  <course>92.07</course>
  <speed>5.0</speed>
  <fix>3d</fix>
</trkpt>
<trkpt lat="40.0717028" lon="-105.2294292">
  <ele>1582.92</ele>
  <time>2026-08-28T17:49:31Z</time>
  <course>92.74</course>
  <speed>4.91367479591395</speed>
  <fix>3d</fix>
</trkpt>
<trkpt lat="40.0717032" lon="-105.2294425">
  <ele>1583.0</ele>
  <time>2026-08-28T17:49:31Z</time>
  <course>92.07</course>
  <speed>5.0</speed>
  <fix>3d</fix>
</trkpt>
<trkpt lat="40.0717026" lon="-105.2294234">
  <ele>1582.92</ele>
  <time>2026-08-28T17:49:31Z</time>
  <course>92.75</course>
  <speed>4.8737049561909265</speed>
  <fix>3d</fix>
</trkpt>
<trkpt lat="40.0717028" lon="-105.2294307">
  <ele>1583.0</ele>
  <time>2026-08-28T17:49:31Z</time>
  <course>92.05</course>
  <speed>4.95</speed>
  <fix>3d</fix>
</trkpt>
<trkpt lat="40.0717025" lon="-105.2294176">
  <ele>1582.92</ele>
  <time>2026-08-28T17:49:31Z</time>
  <course>92.73</course>
  <speed>4.823359824852382</speed>
  <fix>3d</fix>
</trkpt>
<trkpt lat="40.0717028" lon="-105.2294307">
  <ele>1583.0</ele>
  <time>2026-08-28T17:49:31Z</time>
  <course>92.05</course>
  <speed>4.95</speed>
  <fix>3d</fix>
</trkpt>
<trkpt lat="40.0717023" lon="-105.2294119">
  <ele>1582.92</ele>
  <time>2026-08-28T17:49:31Z</time>
  <course>92.73</course>
  <speed>4.763402145525822</speed>
  <fix>3d</fix>
</trkpt>
<trkpt lat="40.0717025" lon="-105.2294192">
  <ele>1583.0</ele>
  <time>2026-08-28T17:49:31Z</time>
  <course>92.02</course>
  <speed>4.86</speed>
  <fix>3d</fix>
</trkpt>
<trkpt lat="40.0717021" lon="-105.2294063">
  <ele>1582.92</ele>
  <time>2026-08-28T17:49:31Z</time>
  <course>92.71</course>
  <speed>4.693452886734883</speed>
  <fix>3d</fix>
</trkpt>
<trkpt lat="40.0717025" lon="-105.2294192">
  <ele>1583.0</ele>
  <time>2026-08-28T17:49:31Z</time>
  <course>92.02</course>
  <speed>4.86</speed>
  <fix>3d</fix>
</trkpt>
<trkpt lat="40.071702" lon="-105.2294008">
  <ele>1582.92</ele>
  <time>2026-08-28T17:49:31Z</time>
  <course>92.7</course>
  <speed>4.613133425341174</speed>
  <fix>3d</fix>
</trkpt>
<trkpt lat="40.0717025" lon="-105.2294192">
  <ele>1583.0</ele>
  <time>2026-08-28T17:49:31Z</time>
  <course>92.02</course>
  <speed>4.86</speed>
  <fix>3d</fix>
</trkpt>
<trkpt lat="40.0717018" lon="-105.2293954">
  <ele>1582.92</ele>
  <time>2026-08-28T17:49:31Z</time>
  <course>92.67</course>
  <speed>4.512837245015601</speed>
  <fix>3d</fix>
</trkpt>
<trkpt lat="40.0717022" lon="-105.229408">
  <ele>1583.0</ele>
  <time>2026-08-28T17:49:31Z</time>
  <course>91.99</course>
  <speed>4.73</speed>
  <fix>3d</fix>
</trkpt>
<trkpt lat="40.0717017" lon="-105.2293902">
  <ele>1582.92</ele>
  <time>2026-08-28T17:49:31Z</time>
  <course>92.63</course>
  <speed>4.412901539803489</speed>
  <fix>3d</fix>
</trkpt>
<trkpt lat="40.0717022" lon="-105.229408">
  <ele>1583.0</ele>
  <time>2026-08-28T17:49:31Z</time>
  <course>91.99</course>
  <speed>4.73</speed>
  <fix>3d</fix>
</trkpt>
<trkpt lat="40.0717016" lon="-105.2293851">
  <ele>1582.92</ele>
  <time>2026-08-28T17:49:31Z</time>
  <course>92.61</course>
  <speed>4.302615483633182</speed>
  <fix>3d</fix>
</trkpt>
<trkpt lat="40.0717019" lon="-105.2293971">
  <ele>1583.0</ele>
  <time>2026-08-28T17:49:31Z</time>
  <course>91.93</course>
  <speed>4.55</speed>
  <fix>3d</fix>
</trkpt>
<trkpt lat="40.0717014" lon="-105.2293801">
  <ele>1582.92</ele>
  <time>2026-08-28T17:49:31Z</time>
  <course>92.56</course>
  <speed>4.182343840479881</speed>
  <fix>3d</fix>
</trkpt>
<trkpt lat="40.0717019" lon="-105.2293971">
  <ele>1583.0</ele>
  <time>2026-08-28T17:49:31Z</time>
  <course>91.93</course>
  <speed>4.55</speed>
  <fix>3d</fix>
</trkpt>
<trkpt lat="40.0717013" lon="-105.2293753">
  <ele>1582.92</ele>
  <time>2026-08-28T17:49:31Z</time>
  <course>92.54</course>
  <speed>4.062413075993134</speed>
  <fix>3d</fix>
</trkpt>
<trkpt lat="40.0717017" lon="-105.2293866">
  <ele>1583.0</ele>
  <time>2026-08-28T17:49:31Z</time>
  <course>91.85</course>
  <speed>4.34</speed>
  <fix>3d</fix>
</trkpt>
<trkpt lat="40.0717012" lon="-105.2293706">
  <ele>1582.92</ele>
  <time>2026-08-28T17:49:31Z</time>
  <course>92.48</course>
  <speed>3.9321495393741066</speed>
  <fix>3d</fix>
</trkpt>
<trkpt lat="40.0717014" lon="-105.2293767">
  <ele>1583.0</ele>
  <time>2026-08-28T17:49:31Z</time>
  <course>91.77</course>
  <speed>4.11</speed>
  <fix>3d</fix>
</trkpt>
<trkpt lat="40.0717011" lon="-105.2293661">
  <ele>1582.92</ele>
  <time>2026-08-28T17:49:31Z</time>
  <course>92.45</course>
  <speed>3.8018942647054246</speed>
  <fix>3d</fix>
</trkpt>
<trkpt lat="40.0717014" lon="-105.2293767">
  <ele>1583.0</ele>
  <time>2026-08-28T17:49:31Z</time>
  <course>91.77</course>
  <speed>4.11</speed>
  <fix>3d</fix>
</trkpt>
<trkpt lat="40.071701" lon="-105.2293617">
  <ele>1582.92</ele>
  <time>2026-08-28T17:49:31Z</time>
  <course>92.41</course>
  <speed>3.671961328772404</speed>
  <fix>3d</fix>
</trkpt>
<trkpt lat="40.0717012" lon="-105.2293673">
  <ele>1583.0</ele>
  <time>2026-08-28T17:49:31Z</time>
  <course>91.69</course>
  <speed>3.86</speed>
  <fix>3d</fix>
</trkpt>
<trkpt lat="40.0717009" lon="-105.2293574">
  <ele>1582.92</ele>
  <time>2026-08-28T17:49:31Z</time>
  <course>92.37</course>
  <speed>3.5517038164801975</speed>
  <fix>3d</fix>
</trkpt>
<trkpt lat="40.0717012" lon="-105.2293673">
  <ele>1583.0</ele>
  <time>2026-08-28T17:49:31Z</time>
  <course>91.69</course>
  <speed>3.86</speed>
  <fix>3d</fix>
</trkpt>
<trkpt lat="40.0717008" lon="-105.2293533">
  <ele>1582.92</ele>
  <time>2026-08-28T17:49:31Z</time>
  <course>92.33</course>
  <speed>3.421461675950792</speed>
  <fix>3d</fix>
</trkpt>
<trkpt lat="40.071701" lon="-105.2293585">
  <ele>1583.0</ele>
  <time>2026-08-28T17:49:31Z</time>
  <course>91.61</course>
  <speed>3.61</speed>
  <fix>3d</fix>
</trkpt>
<trkpt lat="40.0717007" lon="-105.2293493">
  <ele>1582.92</ele>
  <time>2026-08-28T17:49:31Z</time>
  <course>92.29</course>
  <speed>3.291230772826482</speed>
  <fix>3d</fix>
</trkpt>
<trkpt lat="40.071701" lon="-105.2293585">
  <ele>1583.0</ele>
  <time>2026-08-28T17:49:31Z</time>
  <course>91.61</course>
  <speed>3.61</speed>
  <fix>3d</fix>
</trkpt>
<trkpt lat="40.0717007" lon="-105.2293455">
  <ele>1582.92</ele>
  <time>2026-08-28T17:49:31Z</time>
  <course>92.25</course>
  <speed>3.1612813857674866</speed>
  <fix>3d</fix>
</trkpt>
<trkpt lat="40.0717008" lon="-105.2293503">
  <ele>1583.0</ele>
  <time>2026-08-28T17:49:31Z</time>
  <course>91.52</course>
  <speed>3.36</speed>
  <fix>3d</fix>
</trkpt>
<trkpt lat="40.0717006" lon="-105.2293418">
  <ele>1582.92</ele>
  <time>2026-08-28T17:49:31Z</time>
  <course>92.21</course>
  <speed>3.0310559216220345</speed>
  <fix>3d</fix>
</trkpt>
<trkpt lat="40.0717008" lon="-105.2293503">
  <ele>1583.0</ele>
  <time>2026-08-28T17:49:31Z</time>
  <course>91.52</course>
  <speed>3.36</speed>
  <fix>3d</fix>
</trkpt>
<trkpt lat="40.0717005" lon="-105.2293383">
  <ele>1582.92</ele>
  <time>2026-08-28T17:49:31Z</time>
  <course>92.17</course>
  <speed>2.9110994486619655</speed>
  <fix>3d</fix>
</trkpt>
<trkpt lat="40.0717007" lon="-105.2293428">
  <ele>1583.0</ele>
  <time>2026-08-28T17:49:31Z</time>
  <course>91.43</course>
  <speed>3.1</speed>
  <fix>3d</fix>
</trkpt>
<trkpt lat="40.0717005" lon="-105.2293349">
  <ele>1582.92</ele>
  <time>2026-08-28T17:49:31Z</time>
  <course>92.14</course>
  <speed>2.7808811553175015</speed>
  <fix>3d</fix>
</trkpt>
<trkpt lat="40.0717007" lon="-105.2293428">
  <ele>1583.0</ele>
  <time>2026-08-28T17:49:31Z</time>
  <course>91.43</course>
  <speed>3.1</speed>
  <fix>3d</fix>
</trkpt>
<trkpt lat="40.0717004" lon="-105.2293316">
  <ele>1582.92</ele>
  <time>2026-08-28T17:49:31Z</time>
  <course>92.1</course>
  <speed>2.6609208932247497</speed>
  <fix>3d</fix>
</trkpt>
<trkpt lat="40.0717006" lon="-105.2293358">
  <ele>1583.0</ele>
  <time>2026-08-28T17:49:31Z</time>
  <course>91.35</course>
  <speed>2.86</speed>
  <fix>3d</fix>
</trkpt>
<trkpt lat="40.0717004" lon="-105.2293285">
  <ele>1582.93</ele>
  <time>2026-08-28T17:49:31Z</time>
  <course>92.07</course>
  <speed>2.5407085625864294</speed>
  <fix>3d</fix>
</trkpt>
<trkpt lat="40.0717006" lon="-105.2293358">
  <ele>1583.0</ele>
  <time>2026-08-28T17:49:31Z</time>
  <course>91.35</course>
  <speed>2.86</speed>
  <fix>3d</fix>
</trkpt>
<trkpt lat="40.0717003" lon="-105.2293256">
  <ele>1582.93</ele>
  <time>2026-08-28T17:49:31Z</time>
  <course>92.04</course>
  <speed>2.430740627874558</speed>
  <fix>3d</fix>
</trkpt>
<trkpt lat="40.0717004" lon="-105.2293293">
  <ele>1583.0</ele>
  <time>2026-08-28T17:49:31Z</time>
  <course>91.28</course>
  <speed>2.62</speed>
  <fix>3d</fix>
</trkpt>
<trkpt lat="40.0717003" lon="-105.2293227">
  <ele>1582.94</ele>
  <time>2026-08-28T17:49:31Z</time>
  <course>92.01</course>
  <speed>2.310541062175697</speed>
  <fix>3d</fix>
</trkpt>
<trkpt lat="40.0717004" lon="-105.2293293">
  <ele>1583.0</ele>
  <time>2026-08-28T17:49:31Z</time>
  <course>91.28</course>
  <speed>2.62</speed>
  <fix>3d</fix>
</trkpt>
<trkpt lat="40.0717002" lon="-105.2293201">
  <ele>1582.94</ele>
  <time>2026-08-28T17:49:31Z</time>
  <course>91.99</course>
  <speed>2.2005681084665385</speed>
  <fix>3d</fix>
</trkpt>
<trkpt lat="40.0717004" lon="-105.2293293">
  <ele>1583.0</ele>
  <time>2026-08-28T17:49:31Z</time>
  <course>91.28</course>
  <speed>2.62</speed>
  <fix>3d</fix>
</trkpt>
<trkpt lat="40.0717002" lon="-105.2293175">
  <ele>1582.95</ele>
  <time>2026-08-28T17:49:31Z</time>
  <course>91.96</course>
  <speed>2.090598000573042</speed>
  <fix>3d</fix>
</trkpt>
<trkpt lat="40.0717003" lon="-105.2293234">
  <ele>1583.0</ele>
  <time>2026-08-28T17:49:31Z</time>
  <course>91.21</course>
  <speed>2.39</speed>
  <fix>3d</fix>
</trkpt>
<trkpt lat="40.0717002" lon="-105.2293151">
  <ele>1582.95</ele>
  <time>2026-08-28T17:49:31Z</time>
  <course>91.93</course>
  <speed>1.9804039991880444</speed>
  <fix>3d</fix>
</trkpt>
<trkpt lat="40.0717003" lon="-105.2293234">
  <ele>1583.0</ele>
  <time>2026-08-28T17:49:31Z</time>
  <course>91.21</course>
  <speed>2.39</speed>
  <fix>3d</fix>
</trkpt>
<trkpt lat="40.0717001" lon="-105.2293128">
  <ele>1582.95</ele>
  <time>2026-08-28T17:49:31Z</time>
  <course>91.88</course>
  <speed>1.8804254837669054</speed>
  <fix>3d</fix>
</trkpt>
<trkpt lat="40.0717002" lon="-105.2293181">
  <ele>1583.0</ele>
  <time>2026-08-28T17:49:31Z</time>
  <course>91.15</course>
  <speed>2.17</speed>
  <fix>3d</fix>
</trkpt>
<trkpt lat="40.0717001" lon="-105.2293106">
  <ele>1582.95</ele>
  <time>2026-08-28T17:49:31Z</time>
  <course>91.83</course>
  <speed>1.7704519197086375</speed>
  <fix>3d</fix>
</trkpt>
<trkpt lat="40.0717002" lon="-105.2293181">
  <ele>1583.0</ele>
  <time>2026-08-28T17:49:31Z</time>
  <course>91.15</course>
  <speed>2.17</speed>
  <fix>3d</fix>
</trkpt>
<trkpt lat="40.0717001" lon="-105.2293086">
  <ele>1582.95</ele>
  <time>2026-08-28T17:49:31Z</time>
  <course>91.79</course>
  <speed>1.6704789732289358</speed>
  <fix>3d</fix>
</trkpt>
<trkpt lat="40.0717002" lon="-105.2293133">
  <ele>1583.0</ele>
  <time>2026-08-28T17:49:31Z</time>
  <course>91.06</course>
  <speed>1.96</speed>
  <fix>3d</fix>
</trkpt>
<trkpt lat="40.0717" lon="-105.2293067">
  <ele>1582.95</ele>
  <time>2026-08-28T17:49:31Z</time>
  <course>91.74</course>
  <speed>1.5702865980450829</speed>
  <fix>3d</fix>
</trkpt>
<trkpt lat="40.0717002" lon="-105.2293133">
  <ele>1583.0</ele>
  <time>2026-08-28T17:49:31Z</time>
  <course>91.06</course>
  <speed>1.96</speed>
  <fix>3d</fix>
</trkpt>
<trkpt lat="40.0717" lon="-105.2293048">
  <ele>1582.94</ele>
  <time>2026-08-28T17:49:31Z</time>
  <course>91.67</course>
  <speed>1.4703060905811416</speed>
  <fix>3d</fix>
</trkpt>
<trkpt lat="40.0717001" lon="-105.2293088">
  <ele>1583.0</ele>
  <time>2026-08-28T17:49:31Z</time>
  <course>90.96</course>
  <speed>1.75</speed>
  <fix>3d</fix>
</trkpt>
<trkpt lat="40.0717" lon="-105.2293031">
  <ele>1582.94</ele>
  <time>2026-08-28T17:49:31Z</time>
  <course>91.61</course>
  <speed>1.3703284277865655</speed>
  <fix>3d</fix>
</trkpt>
<trkpt lat="40.0717001" lon="-105.2293049">
  <ele>1583.0</ele>
  <time>2026-08-28T17:49:31Z</time>
  <course>90.84</course>
  <speed>1.56</speed>
  <fix>3d</fix>
</trkpt>
<trkpt lat="40.0717" lon="-105.2293015">
  <ele>1582.94</ele>
  <time>2026-08-28T17:49:31Z</time>
  <course>91.54</course>
  <speed>1.2701574705523722</speed>
  <fix>3d</fix>
</trkpt>
<trkpt lat="40.0717001" lon="-105.2293049">
  <ele>1583.0</ele>
  <time>2026-08-28T17:49:31Z</time>
  <course>90.84</course>
  <speed>1.56</speed>
  <fix>3d</fix>
</trkpt>
<trkpt lat="40.0717" lon="-105.2293001">
  <ele>1582.94</ele>
  <time>2026-08-28T17:49:31Z</time>
  <course>91.45</course>
  <speed>1.1801694793545543</speed>
  <fix>3d</fix>
</trkpt>
<trkpt lat="40.0717001" lon="-105.2293015">
  <ele>1583.0</ele>
  <time>2026-08-28T17:49:31Z</time>
  <course>90.69</course>
  <speed>1.36</speed>
  <fix>3d</fix>
</trkpt>
<trkpt lat="40.0717" lon="-105.2292987">
  <ele>1582.94</ele>
  <time>2026-08-28T17:49:31Z</time>
  <course>91.35</course>
  <speed>1.080185169311262</speed>
  <fix>3d</fix>
</trkpt>
<trkpt lat="40.0717001" lon="-105.2293015">
  <ele>1583.0</ele>
  <time>2026-08-28T17:49:31Z</time>
  <course>90.69</course>
  <speed>1.36</speed>
  <fix>3d</fix>
</trkpt>
<trkpt lat="40.0717" lon="-105.2292974">
  <ele>1582.94</ele>
  <time>2026-08-28T17:49:31Z</time>
  <course>91.24</course>
  <speed>0.9902019995940222</speed>
  <fix>3d</fix>
</trkpt>
<trkpt lat="40.0717" lon="-105.2292985">
  <ele>1583.0</ele>
  <time>2026-08-28T17:49:31Z</time>
  <course>90.5</course>
  <speed>1.17</speed>
  <fix>3d</fix>
</trkpt>
<trkpt lat="40.0716999" lon="-105.2292962">
  <ele>1582.94</ele>
  <time>2026-08-28T17:49:31Z</time>
  <course>91.11</course>
  <speed>0.8900561780022652</speed>
  <fix>3d</fix>
</trkpt>
<trkpt lat="40.0717" lon="-105.2292985">
  <ele>1583.0</ele>
  <time>2026-08-28T17:49:31Z</time>
  <course>90.5</course>
  <speed>1.17</speed>
  <fix>3d</fix>
</trkpt>
<trkpt lat="40.0716999" lon="-105.2292951">
  <ele>1582.94</ele>
  <time>2026-08-28T17:49:31Z</time>
  <course>90.98</course>
  <speed>0.7900632886041472</speed>
  <fix>3d</fix>
</trkpt>
<trkpt lat="40.0717" lon="-105.229296">
  <ele>1583.0</ele>
  <time>2026-08-28T17:49:31Z</time>
  <course>90.26</course>
  <speed>0.98</speed>
  <fix>3d</fix>
</trkpt>
<trkpt lat="40.0716999" lon="-105.2292942">
  <ele>1582.94</ele>
  <time>2026-08-28T17:49:31Z</time>
  <course>90.85</course>
  <speed>0.7000714249274855</speed>
  <fix>3d</fix>
</trkpt>
<trkpt lat="40.0717" lon="-105.229296">
  <ele>1583.0</ele>
  <time>2026-08-28T17:49:31Z</time>
  <course>90.26</course>
  <speed>0.98</speed>
  <fix>3d</fix>
</trkpt>
<trkpt lat="40.0716999" lon="-105.2292934">
  <ele>1582.94</ele>
  <time>2026-08-28T17:49:31Z</time>
  <course>90.73</course>
  <speed>0.6000833275470999</speed>
  <fix>3d</fix>
</trkpt>
<trkpt lat="40.0717" lon="-105.229294">
  <ele>1583.0</ele>
  <time>2026-08-28T17:49:31Z</time>
  <course>90.0</course>
  <speed>0.78</speed>
  <fix>3d</fix>
</trkpt>
<trkpt lat="40.0716999" lon="-105.2292926">
  <ele>1582.95</ele>
  <time>2026-08-28T17:49:31Z</time>
  <course>90.61</course>
  <speed>0.5000999900019995</speed>
  <fix>3d</fix>
</trkpt>
<trkpt lat="40.0717" lon="-105.229294">
  <ele>1583.0</ele>
  <time>2026-08-28T17:49:31Z</time>
  <course>90.0</course>
  <speed>0.78</speed>
  <fix>3d</fix>
</trkpt>
<trkpt lat="40.0716999" lon="-105.2292921">
  <ele>1582.95</ele>
  <time>2026-08-28T17:49:31Z</time>
  <course>90.49</course>
  <speed>0.41012193308819755</speed>
  <fix>3d</fix>
</trkpt>
<trkpt lat="40.0717" lon="-105.2292923">
  <ele>1583.0</ele>
  <time>2026-08-28T17:49:31Z</time>
  <course>89.75</course>
  <speed>0.59</speed>
  <fix>3d</fix>
</trkpt>
<trkpt lat="40.0716999" lon="-105.2292916">
  <ele>1582.95</ele>
  <time>2026-08-28T17:49:31Z</time>
  <course>90.38</course>
  <speed>0.3101612483854165</speed>
  <fix>3d</fix>
</trkpt>
<trkpt lat="40.0717" lon="-105.2292923">
  <ele>1583.0</ele>
  <time>2026-08-28T17:49:31Z</time>
  <course>89.75</course>
  <speed>0.59</speed>
  <fix>3d</fix>
</trkpt>
<trkpt lat="40.0716999" lon="-105.2292912">
  <ele>1582.95</ele>
  <time>2026-08-28T17:49:31Z</time>
  <course>90.29</course>
  <speed>0.2102379604162864</speed>
  <fix>3d</fix>
</trkpt>
<trkpt lat="40.0717" lon="-105.2292911">
  <ele>1583.0</ele>
  <time>2026-08-28T17:49:31Z</time>
  <course>89.54</course>
  <speed>0.4</speed>
  <fix>3d</fix>
</trkpt>
<trkpt lat="40.0716999" lon="-105.2292909">
  <ele>1582.95</ele>
  <time>2026-08-28T17:49:31Z</time>
  <course>90.22</course>
  <speed>0.12041594578792296</speed>
  <fix>3d</fix>
</trkpt>
<trkpt lat="40.0717" lon="-105.2292911">
  <ele>1583.0</ele>
  <time>2026-08-28T17:49:31Z</time>
  <course>89.54</course>
  <speed>0.4</speed>
  <fix>3d</fix>
</trkpt>
<trkpt lat="40.0716999" lon="-105.2292908">
  <ele>1582.95</ele>
  <time>2026-08-28T17:49:31Z</time>
  <course>90.18</course>
  <speed>0.0316227766016838</speed>
  <fix>3d</fix>
</trkpt>
<trkpt lat="40.0717" lon="-105.2292911">
  <ele>1583.0</ele>
  <time>2026-08-28T17:49:31Z</time>
  <course>89.54</course>
  <speed>0.4</speed>
  <fix>3d</fix>
</trkpt>
<trkpt lat="40.0716999" lon="-105.2292907">
  <ele>1582.95</ele>
  <time>2026-08-28T17:49:31Z</time>
  <course>90.17</course>
  <speed>0.044721359549995794</speed>
  <fix>3d</fix>
</trkpt>
<trkpt lat="40.0717" lon="-105.2292904">
  <ele>1583.0</ele>
  <time>2026-08-28T17:49:31Z</time>
  <course>89.38</course>
  <speed>0.21</speed>
  <fix>3d</fix>
</trkpt>
<trkpt lat="40.0716999" lon="-105.2292907">
  <ele>1582.95</ele>
  <time>2026-08-28T17:49:31Z</time>
  <course>90.17</course>
  <speed>0.1118033988749895</speed>
  <fix>3d</fix>
</trkpt>
<trkpt lat="40.0717" lon="-105.2292904">
  <ele>1583.0</ele>
  <time>2026-08-28T17:49:31Z</time>
  <course>89.38</course>
  <speed>0.21</speed>
  <fix>3d</fix>
</trkpt>
<trkpt lat="40.0716999" lon="-105.2292909">
  <ele>1582.95</ele>
  <time>2026-08-28T17:49:31Z</time>
  <course>90.15</course>
  <speed>0.18110770276274835</speed>
  <fix>3d</fix>
</trkpt>
<trkpt lat="40.0717" lon="-105.2292901">
  <ele>1583.0</ele>
  <time>2026-08-28T17:49:31Z</time>
  <course>89.3</course>
  <speed>0.04</speed>
  <fix>3d</fix>
</trkpt>
<trkpt lat="40.0716999" lon="-105.229291">
  <ele>1582.96</ele>
  <time>2026-08-28T17:49:31Z</time>
  <course>90.1</course>
  <speed>0.24083189157584592</speed>
  <fix>3d</fix>
</trkpt>
<trkpt lat="40.0717" lon="-105.2292901">
  <ele>1583.0</ele>
  <time>2026-08-28T17:49:31Z</time>
  <course>89.3</course>
  <speed>0.04</speed>
  <fix>3d</fix>
</trkpt>
<trkpt lat="40.0716999" lon="-105.2292913">
  <ele>1582.95</ele>
  <time>2026-08-28T17:49:31Z</time>
  <course>90.04</course>
  <speed>0.280713376952364</speed>
  <fix>3d</fix>
</trkpt>
<trkpt lat="40.0717" lon="-105.2292902">
  <ele>1583.0</ele>
  <time>2026-08-28T17:49:31Z</time>
  <course>269.21</course>
  <speed>0.09</speed>
  <fix>3d</fix>
</trkpt>
<trkpt lat="40.0716999" lon="-105.2292916">
  <ele>1582.95</ele>
  <time>2026-08-28T17:49:31Z</time>
  <course>89.96</course>
  <speed>0.31144823004794875</speed>
  <fix>3d</fix>
</trkpt>
<trkpt lat="40.0717" lon="-105.2292905">
  <ele>1583.0</ele>
  <time>2026-08-28T17:49:31Z</time>
  <course>269.11</course>
  <speed>0.19</speed>
  <fix>3d</fix>
</trkpt>
<trkpt lat="40.0716999" lon="-105.2292918">
  <ele>1582.95</ele>
  <time>2026-08-28T17:49:31Z</time>
  <course>89.87</course>
  <speed>0.3313608305156178</speed>
  <fix>3d</fix>
</trkpt>
<trkpt lat="40.0717" lon="-105.2292905">
  <ele>1583.0</ele>
  <time>2026-08-28T17:49:31Z</time>
  <course>269.11</course>
  <speed>0.19</speed>
  <fix>3d</fix>
</trkpt>
<trkpt lat="40.0716999" lon="-105.2292921">
  <ele>1582.95</ele>
  <time>2026-08-28T17:49:31Z</time>
  <course>89.77</course>
  <speed>0.34132096331752027</speed>
  <fix>3d</fix>
</trkpt>
<trkpt lat="40.0717" lon="-105.2292909">
  <ele>1583.0</ele>
  <time>2026-08-28T17:49:31Z</time>
  <course>268.95</course>
  <speed>0.25</speed>
  <fix>3d</fix>
</trkpt>
<trkpt lat="40.0716999" lon="-105.2292924">
  <ele>1582.95</ele>
  <time>2026-08-28T17:49:31Z</time>
  <course>89.66</course>
  <speed>0.34132096331752027</speed>
  <fix>3d</fix>
</trkpt>
<trkpt lat="40.0717" lon="-105.2292909">
  <ele>1583.0</ele>
  <time>2026-08-28T17:49:31Z</time>
  <course>268.95</course>
  <speed>0.25</speed>
  <fix>3d</fix>
</trkpt>
<trkpt lat="40.0716998" lon="-105.2292927">
  <ele>1582.95</ele>
  <time>2026-08-28T17:49:31Z</time>
  <course>89.56</course>
  <speed>0.33241540277189324</speed>
  <fix>3d</fix>
</trkpt>
<trkpt lat="40.0717" lon="-105.2292916">
  <ele>1583.0</ele>
  <time>2026-08-28T17:49:31Z</time>
  <course>268.75</course>
  <speed>0.26</speed>
  <fix>3d</fix>
</trkpt>
<trkpt lat="40.0716998" lon="-105.229293">
  <ele>1582.95</ele>
  <time>2026-08-28T17:49:31Z</time>
  <course>89.45</course>
  <speed>0.32249030993194194</speed>
  <fix>3d</fix>
</trkpt>
<trkpt lat="40.0717" lon="-105.2292916">
  <ele>1583.0</ele>
  <time>2026-08-28T17:49:31Z</time>
  <course>268.75</course>
  <speed>0.26</speed>
  <fix>3d</fix>
</trkpt>
<trkpt lat="40.0716998" lon="-105.2292933">
  <ele>1582.94</ele>
  <time>2026-08-28T17:49:31Z</time>
  <course>89.35</course>
  <speed>0.3026549190084311</speed>
  <fix>3d</fix>
</trkpt>
<trkpt lat="40.0717" lon="-105.2292923">
  <ele>1583.0</ele>
  <time>2026-08-28T17:49:31Z</time>
  <course>268.54</course>
  <speed>0.25</speed>
  <fix>3d</fix>
</trkpt>
<trkpt lat="40.0716998" lon="-105.2292936">
  <ele>1582.94</ele>
  <time>2026-08-28T17:49:31Z</time>
  <course>89.25</course>
  <speed>0.282842712474619</speed>
  <fix>3d</fix>
</trkpt>
<trkpt lat="40.0717" lon="-105.2292923">
  <ele>1583.0</ele>
  <time>2026-08-28T17:49:31Z</time>
  <course>268.54</course>
  <speed>0.25</speed>
  <fix>3d</fix>
</trkpt>
<trkpt lat="40.0716998" lon="-105.2292938">
  <ele>1582.94</ele>
  <time>2026-08-28T17:49:31Z</time>
  <course>89.16</course>
  <speed>0.26305892875931813</speed>
  <fix>3d</fix>
</trkpt>
<trkpt lat="40.0717" lon="-105.2292928">
  <ele>1583.0</ele>
  <time>2026-08-28T17:49:31Z</time>
  <course>268.34</course>
  <speed>0.22</speed>
  <fix>3d</fix>
</trkpt>
<trkpt lat="40.0716998" lon="-105.229294">
  <ele>1582.94</ele>
  <time>2026-08-28T17:49:31Z</time>
  <course>89.08</course>
  <speed>0.23345235059857505</speed>
  <fix>3d</fix>
</trkpt>
<trkpt lat="40.0717" lon="-105.2292928">
  <ele>1583.0</ele>
  <time>2026-08-28T17:49:31Z</time>
  <course>268.34</course>
  <speed>0.22</speed>
  <fix>3d</fix>
</trkpt>
<trkpt lat="40.0716997" lon="-105.2292942">
  <ele>1582.94</ele>
  <time>2026-08-28T17:49:31Z</time>
  <course>89.03</course>
  <speed>0.215870331449229</speed>
  <fix>3d</fix>
</trkpt>
<trkpt lat="40.0717" lon="-105.2292933">
  <ele>1583.0</ele>
  <time>2026-08-28T17:49:31Z</time>
  <course>268.19</course>
  <speed>0.18</speed>
  <fix>3d</fix>
</trkpt>
<trkpt lat="40.0716997" lon="-105.2292944">
  <ele>1582.94</ele>
  <time>2026-08-28T17:49:31Z</time>
  <course>89.05</course>
  <speed>0.196468827043885</speed>
  <fix>3d</fix>
</trkpt>
<trkpt lat="40.0717" lon="-105.2292933">
  <ele>1583.0</ele>
  <time>2026-08-28T17:49:31Z</time>
  <course>268.19</course>
  <speed>0.18</speed>
  <fix>3d</fix>
</trkpt>
<trkpt lat="40.0716997" lon="-105.2292945">
  <ele>1582.94</ele>
  <time>2026-08-28T17:49:31Z</time>
  <course>89.12</course>
  <speed>0.1676305461424021</speed>
  <fix>3d</fix>
</trkpt>
<trkpt lat="40.0717" lon="-105.2292937">
  <ele>1583.0</ele>
  <time>2026-08-28T17:49:31Z</time>
  <course>268.15</course>
  <speed>0.13</speed>
  <fix>3d</fix>
</trkpt>
<trkpt lat="40.0716997" lon="-105.2292946">
  <ele>1582.94</ele>
  <time>2026-08-28T17:49:31Z</time>
  <course>89.22</course>
  <speed>0.1392838827718412</speed>
  <fix>3d</fix>
</trkpt>
<trkpt lat="40.0717" lon="-105.2292937">
  <ele>1583.0</ele>
  <time>2026-08-28T17:49:31Z</time>
  <course>268.15</course>
  <speed>0.13</speed>
  <fix>3d</fix>
</trkpt>
<trkpt lat="40.0716997" lon="-105.2292947">
  <ele>1582.94</ele>
  <time>2026-08-28T17:49:31Z</time>
  <course>89.33</course>
  <speed>0.10295630140987001</speed>
  <fix>3d</fix>
</trkpt>
<trkpt lat="40.0717" lon="-105.2292937">
  <ele>1583.0</ele>
  <time>2026-08-28T17:49:31Z</time>
  <course>268.15</course>
  <speed>0.13</speed>
  <fix>3d</fix>
</trkpt>
<trkpt lat="40.0716997" lon="-105.2292947">
  <ele>1582.94</ele>
  <time>2026-08-28T17:49:31Z</time>
  <course>89.4</course>
  <speed>0.07071067811865475</speed>
  <fix>3d</fix>
</trkpt>
<trkpt lat="40.0717" lon="-105.229294">
  <ele>1583.0</ele>
  <time>2026-08-28T17:49:31Z</time>
  <course>268.27</course>
  <speed>0.08</speed>
  <fix>3d</fix>
</trkpt>
<trkpt lat="40.0716997" lon="-105.2292947">
  <ele>1582.94</ele>
  <time>2026-08-28T17:49:31Z</time>
  <course>89.37</course>
  <speed>0.05</speed>
  <fix>3d</fix>
</trkpt>
<trkpt lat="40.0717" lon="-105.229294">
  <ele>1583.0</ele>
  <time>2026-08-28T17:49:31Z</time>
  <course>268.27</course>
  <speed>0.08</speed>
  <fix>3d</fix>
</trkpt>
<trkpt lat="40.0716997" lon="-105.2292946">
  <ele>1582.94</ele>
  <time>2026-08-28T17:49:31Z</time>
  <course>89.52</course>
  <speed>0.06403124237432849</speed>
  <fix>3d</fix>
</trkpt>
<trkpt lat="40.0717" lon="-105.229294">
  <ele>1583.0</ele>
  <time>2026-08-28T17:49:31Z</time>
  <course>268.31</course>
  <speed>0.01</speed>
  <fix>3d</fix>
</trkpt>
<trkpt lat="40.0716997" lon="-105.2292944">
  <ele>1582.94</ele>
  <time>2026-08-28T17:49:31Z</time>
  <course>89.97</course>
  <speed>0.12083045973594572</speed>
  <fix>3d</fix>
</trkpt>
<trkpt lat="40.0717" lon="-105.229294">
  <ele>1583.0</ele>
  <time>2026-08-28T17:49:31Z</time>
  <course>268.31</course>
  <speed>0.01</speed>
  <fix>3d</fix>
</trkpt>
<trkpt lat="40.0716997" lon="-105.2292942">
  <ele>1582.94</ele>
  <time>2026-08-28T17:49:31Z</time>
  <course>90.76</course>
  <speed>0.18681541692269404</speed>
  <fix>3d</fix>
</trkpt>
<trkpt lat="40.0717" lon="-105.229294">
  <ele>1583.0</ele>
  <time>2026-08-28T17:49:31Z</time>
  <course>88.98</course>
  <speed>0.08</speed>
  <fix>3d</fix>
</trkpt>
<trkpt lat="40.0716997" lon="-105.2292939">
  <ele>1582.94</ele>
  <time>2026-08-28T17:49:31Z</time>
  <course>92.0</course>
  <speed>0.2570992026436488</speed>
  <fix>3d</fix>
</trkpt>
<trkpt lat="40.0717" lon="-105.229294">
  <ele>1583.0</ele>
  <time>2026-08-28T17:49:31Z</time>
  <course>88.98</course>
  <speed>0.08</speed>
  <fix>3d</fix>
</trkpt>
<trkpt lat="40.0716996" lon="-105.2292935">
  <ele>1582.94</ele>
  <time>2026-08-28T17:49:31Z</time>
  <course>93.79</course>
  <speed>0.33734255586865997</speed>
  <fix>3d</fix>
</trkpt>
<trkpt lat="40.0717" lon="-105.2292937">
  <ele>1583.0</ele>
  <time>2026-08-28T17:49:31Z</time>
  <course>90.45</course>
  <speed>0.21</speed>
  <fix>3d</fix>
</trkpt>
<trkpt lat="40.0716996" lon="-105.229293">
  <ele>1582.94</ele>
  <time>2026-08-28T17:49:31Z</time>
  <course>96.18</course>
  <speed>0.4197618372363071</speed>
  <fix>3d</fix>
</trkpt>
<trkpt lat="40.0716999" lon="-105.2292931">
  <ele>1583.0</ele>
  <time>2026-08-28T17:49:31Z</time>
  <course>93.69</course>
  <speed>0.36</speed>
  <fix>3d</fix>
</trkpt>
<trkpt lat="40.0716996" lon="-105.2292924">
  <ele>1582.94</ele>
  <time>2026-08-28T17:49:31Z</time>
  <course>99.2</course>
  <speed>0.5069516742254631</speed>
  <fix>3d</fix>
</trkpt>
<trkpt lat="40.0716999" lon="-105.2292931">
  <ele>1583.0</ele>
  <time>2026-08-28T17:49:31Z</time>
  <course>93.69</course>
  <speed>0.36</speed>
  <fix>3d</fix>
</trkpt>
<trkpt lat="40.0716995" lon="-105.2292917">
  <ele>1582.94</ele>
  <time>2026-08-28T17:49:31Z</time>
  <course>102.73</course>
  <speed>0.5882176467941097</speed>
  <fix>3d</fix>
</trkpt>
<trkpt lat="40.0716998" lon="-105.229292">
  <ele>1583.0</ele>
  <time>2026-08-28T17:49:31Z</time>
  <course>99.15</course>
  <speed>0.51</speed>
  <fix>3d</fix>
</trkpt>
<trkpt lat="40.0716993" lon="-105.2292909">
  <ele>1582.94</ele>
  <time>2026-08-28T17:49:31Z</time>
  <course>106.81</course>
  <speed>0.674166151627327</speed>
  <fix>3d</fix>
</trkpt>
<trkpt lat="40.0716998" lon="-105.229292">
  <ele>1583.0</ele>
  <time>2026-08-28T17:49:31Z</time>
  <course>99.15</course>
  <speed>0.51</speed>
  <fix>3d</fix>
</trkpt>
<trkpt lat="40.0716991" lon="-105.2292901">
  <ele>1582.94</ele>
  <time>2026-08-28T17:49:31Z</time>
  <course>111.39</course>
  <speed>0.7605918747922567</speed>
  <fix>3d</fix>
</trkpt>
<trkpt lat="40.0716996" lon="-105.2292906">
  <ele>1583.0</ele>
  <time>2026-08-28T17:49:31Z</time>
  <course>106.79</course>
  <speed>0.68</speed>
  <fix>3d</fix>
</trkpt>
<trkpt lat="40.0716988" lon="-105.2292892">
  <ele>1582.94</ele>
  <time>2026-08-28T17:49:31Z</time>
  <course>116.47</course>
  <speed>0.8421995013059553</speed>
  <fix>3d</fix>
</trkpt>
<trkpt lat="40.0716996" lon="-105.2292906">
  <ele>1583.0</ele>
  <time>2026-08-28T17:49:31Z</time>
  <course>106.79</course>
  <speed>0.68</speed>
  <fix>3d</fix>
</trkpt>
<trkpt lat="40.0716984" lon="-105.2292882">
  <ele>1582.94</ele>
  <time>2026-08-28T17:49:31Z</time>
  <course>122.08</course>
  <speed>0.9265527507918802</speed>
  <fix>3d</fix>
</trkpt>
<trkpt lat="40.0716991" lon="-105.229289">
  <ele>1583.0</ele>
  <time>2026-08-28T17:49:31Z</time>
  <course>116.43</course>
  <speed>0.83</speed>
  <fix>3d</fix>
</trkpt>
<trkpt lat="40.0716979" lon="-105.2292873">
  <ele>1582.94</ele>
  <time>2026-08-28T17:49:31Z</time>
  <course>128.08</course>
  <speed>1.0000499987500624</speed>
  <fix>3d</fix>
</trkpt>
<trkpt lat="40.0716991" lon="-105.229289">
  <ele>1583.0</ele>
  <time>2026-08-28T17:49:31Z</time>
  <course>116.43</course>
  <speed>0.83</speed>
  <fix>3d</fix>
</trkpt>
<trkpt lat="40.0716972" lon="-105.2292864">
  <ele>1582.94</ele>
  <time>2026-08-28T17:49:31Z</time>
  <course>134.5</course>
  <speed>1.0683164325236227</speed>
  <fix>3d</fix>
</trkpt>
<trkpt lat="40.0716982" lon="-105.2292871">
  <ele>1583.0</ele>
  <time>2026-08-28T17:49:31Z</time>
  <course>127.92</course>
  <speed>0.96</speed>
  <fix>3d</fix>
</trkpt>
<trkpt lat="40.0716965" lon="-105.2292855">
  <ele>1582.94</ele>
  <time>2026-08-28T17:49:31Z</time>
  <course>141.3</course>
  <speed>1.122007130102122</speed>
  <fix>3d</fix>
</trkpt>
<trkpt lat="40.0716982" lon="-105.2292871">
  <ele>1583.0</ele>
  <time>2026-08-28T17:49:31Z</time>
  <course>127.92</course>
  <speed>0.96</speed>
  <fix>3d</fix>
</trkpt>
<trkpt lat="40.0716957" lon="-105.2292847">
  <ele>1582.93</ele>
  <time>2026-08-28T17:49:31Z</time>
  <course>148.44</course>
  <speed>1.1783462988442743</speed>
  <fix>3d</fix>
</trkpt>
<trkpt lat="40.0716969" lon="-105.2292855">
  <ele>1583.0</ele>
  <time>2026-08-28T17:49:31Z</time>
  <course>141.04</course>
  <speed>1.08</speed>
  <fix>3d</fix>
</trkpt>
<trkpt lat="40.0716947" lon="-105.229284">
  <ele>1582.93</ele>
  <time>2026-08-28T17:49:31Z</time>
  <course>155.87</course>
  <speed>1.2277214667830811</speed>
  <fix>3d</fix>
</trkpt>
<trkpt lat="40.0716969" lon="-105.2292855">
  <ele>1583.0</ele>
  <time>2026-08-28T17:49:31Z</time>
  <course>141.04</course>
  <speed>1.08</speed>
  <fix>3d</fix>
</trkpt>
<trkpt lat="40.0716937" lon="-105.2292835">
  <ele>1582.93</ele>
  <time>2026-08-28T17:49:31Z</time>
  <course>163.57</course>
  <speed>1.2664912159190052</speed>
  <fix>3d</fix>
</trkpt>
<trkpt lat="40.0716952" lon="-105.2292841">
  <ele>1583.0</ele>
  <time>2026-08-28T17:49:31Z</time>
  <course>155.5</course>
  <speed>1.17</speed>
  <fix>3d</fix>
</trkpt>
<trkpt lat="40.0716925" lon="-105.2292832">
  <ele>1582.93</ele>
  <time>2026-08-28T17:49:31Z</time>
  <course>171.49</course>
  <speed>1.3024976007655444</speed>
  <fix>3d</fix>
</trkpt>
<trkpt lat="40.0716952" lon="-105.2292841">
  <ele>1583.0</ele>
  <time>2026-08-28T17:49:31Z</time>
  <course>155.5</course>
  <speed>1.17</speed>
  <fix>3d</fix>
</trkpt>
<trkpt lat="40.0716914" lon="-105.2292831">
  <ele>1582.93</ele>
  <time>2026-08-28T17:49:31Z</time>
  <course>179.5</course>
  <speed>1.33</speed>
  <fix>3d</fix>
</trkpt>
<trkpt lat="40.0716952" lon="-105.2292841">
  <ele>1583.0</ele>
  <time>2026-08-28T17:49:31Z</time>
  <course>155.5</course>
  <speed>1.17</speed>
  <fix>3d</fix>
</trkpt>
<trkpt lat="40.0716902" lon="-105.2292832">
  <ele>1582.93</ele>
  <time>2026-08-28T17:49:31Z</time>
  <course>186.97</course>
  <speed>1.3495184326269871</speed>
  <fix>3d</fix>
</trkpt>
<trkpt lat="40.0716931" lon="-105.2292832">
  <ele>1583.0</ele>
  <time>2026-08-28T17:49:31Z</time>
  <course>171.0</course>
  <speed>1.24</speed>
  <fix>3d</fix>
</trkpt>
<trkpt lat="40.071689" lon="-105.2292835">
  <ele>1582.93</ele>
  <time>2026-08-28T17:49:31Z</time>
  <course>193.75</course>
  <speed>1.3679546776117988</speed>
  <fix>3d</fix>
</trkpt>
<trkpt lat="40.0716931" lon="-105.2292832">
  <ele>1583.0</ele>
  <time>2026-08-28T17:49:31Z</time>
  <course>171.0</course>
  <speed>1.24</speed>
  <fix>3d</fix>
</trkpt>
<trkpt lat="40.0716879" lon="-105.2292839">
  <ele>1582.94</ele>
  <time>2026-08-28T17:49:31Z</time>
  <course>199.82</course>
  <speed>1.3789851340750559</speed>
  <fix>3d</fix>
</trkpt>
<trkpt lat="40.0716908" lon="-105.2292832">
  <ele>1583.0</ele>
  <time>2026-08-28T17:49:31Z</time>
  <course>186.05</course>
  <speed>1.29</speed>
  <fix>3d</fix>
</trkpt>
<trkpt lat="40.0716868" lon="-105.2292846">
  <ele>1582.94</ele>
  <time>2026-08-28T17:49:31Z</time>
  <course>205.19</course>
  <speed>1.3961733416735902</speed>
  <fix>3d</fix>
</trkpt>
<trkpt lat="40.0716908" lon="-105.2292832">
  <ele>1583.0</ele>
  <time>2026-08-28T17:49:31Z</time>
  <course>186.05</course>
  <speed>1.29</speed>
  <fix>3d</fix>
</trkpt>
<trkpt lat="40.0716857" lon="-105.2292853">
  <ele>1582.94</ele>
  <time>2026-08-28T17:49:31Z</time>
  <course>209.86</course>
  <speed>1.410319112825179</speed>
  <fix>3d</fix>
</trkpt>
<trkpt lat="40.0716885" lon="-105.2292838">
  <ele>1583.0</ele>
  <time>2026-08-28T17:49:31Z</time>
  <course>198.84</course>
  <speed>1.34</speed>
  <fix>3d</fix>
</trkpt>
<trkpt lat="40.0716847" lon="-105.2292861">
  <ele>1582.95</ele>
  <time>2026-08-28T17:49:31Z</time>
  <course>213.95</course>
  <speed>1.4228492541376263</speed>
  <fix>3d</fix>
</trkpt>
<trkpt lat="40.0716862" lon="-105.2292851">
  <ele>1583.0</ele>
  <time>2026-08-28T17:49:31Z</time>
  <course>208.91</course>
  <speed>1.38</speed>
  <fix>3d</fix>
</trkpt>
<trkpt lat="40.0716836" lon="-105.2292871">
  <ele>1582.95</ele>
  <time>2026-08-28T17:49:31Z</time>
  <course>217.43</course>
  <speed>1.45</speed>
  <fix>3d</fix>
</trkpt>
<trkpt lat="40.0716862" lon="-105.2292851">
  <ele>1583.0</ele>
  <time>2026-08-28T17:49:31Z</time>
  <course>208.91</course>
  <speed>1.38</speed>
  <fix>3d</fix>
</trkpt>
<trkpt lat="40.0716826" lon="-105.2292882">
  <ele>1582.95</ele>
  <time>2026-08-28T17:49:31Z</time>
  <course>220.4</course>
  <speed>1.4839474384222644</speed>
  <fix>3d</fix>
</trkpt>
<trkpt lat="40.0716841" lon="-105.2292868">
  <ele>1583.0</ele>
  <time>2026-08-28T17:49:31Z</time>
  <course>216.49</course>
  <speed>1.43</speed>
  <fix>3d</fix>
</trkpt>
<trkpt lat="40.0716816" lon="-105.2292893">
  <ele>1582.94</ele>
  <time>2026-08-28T17:49:31Z</time>
  <course>222.9</course>
  <speed>1.514859729479928</speed>
  <fix>3d</fix>
</trkpt>
<trkpt lat="40.0716841" lon="-105.2292868">
  <ele>1583.0</ele>
  <time>2026-08-28T17:49:31Z</time>
  <course>216.49</course>
  <speed>1.43</speed>
  <fix>3d</fix>
</trkpt>
<trkpt lat="40.0716806" lon="-105.2292906">
  <ele>1582.94</ele>
  <time>2026-08-28T17:49:31Z</time>
  <course>225.04</course>
  <speed>1.548709139896837</speed>
  <fix>3d</fix>
</trkpt>
<trkpt lat="40.0716822" lon="-105.229289">
  <ele>1583.0</ele>
  <time>2026-08-28T17:49:31Z</time>
  <course>222.03</course>
  <speed>1.5</speed>
  <fix>3d</fix>
</trkpt>
<trkpt lat="40.0716797" lon="-105.2292919">
  <ele>1582.94</ele>
  <time>2026-08-28T17:49:31Z</time>
  <course>226.85</course>
  <speed>1.5913830462839547</speed>
  <fix>3d</fix>
</trkpt>
<trkpt lat="40.0716822" lon="-105.229289">
  <ele>1583.0</ele>
  <time>2026-08-28T17:49:31Z</time>
  <course>222.03</course>
  <speed>1.5</speed>
  <fix>3d</fix>
</trkpt>
<trkpt lat="40.0716787" lon="-105.2292933">
  <ele>1582.93</ele>
  <time>2026-08-28T17:49:31Z</time>
  <course>228.41</course>
  <speed>1.6285576440519385</speed>
  <fix>3d</fix>
</trkpt>
<trkpt lat="40.0716802" lon="-105.2292916">
  <ele>1583.0</ele>
  <time>2026-08-28T17:49:31Z</time>
  <course>226.03</course>
  <speed>1.58</speed>
  <fix>3d</fix>
</trkpt>
<trkpt lat="40.0716777" lon="-105.2292948">
  <ele>1582.93</ele>
  <time>2026-08-28T17:49:31Z</time>
  <course>229.7</course>
  <speed>1.6801488029338352</speed>
  <fix>3d</fix>
</trkpt>
<trkpt lat="40.0716802" lon="-105.2292916">
  <ele>1583.0</ele>
  <time>2026-08-28T17:49:31Z</time>
  <course>226.03</course>
  <speed>1.58</speed>
  <fix>3d</fix>
</trkpt>
<trkpt lat="40.0716768" lon="-105.2292963">
  <ele>1582.93</ele>
  <time>2026-08-28T17:49:31Z</time>
  <course>230.76</course>
  <speed>1.7323394586512193</speed>
  <fix>3d</fix>
</trkpt>
<trkpt lat="40.0716781" lon="-105.2292944">
  <ele>1583.0</ele>
  <time>2026-08-28T17:49:31Z</time>
  <course>228.87</course>
  <speed>1.67</speed>
  <fix>3d</fix>
</trkpt>
<trkpt lat="40.0716758" lon="-105.2292979">
  <ele>1582.93</ele>
  <time>2026-08-28T17:49:31Z</time>
  <course>231.64</course>
  <speed>1.7913681921927718</speed>
  <fix>3d</fix>
</trkpt>
<trkpt lat="40.0716781" lon="-105.2292944">
  <ele>1583.0</ele>
  <time>2026-08-28T17:49:31Z</time>
  <course>228.87</course>
  <speed>1.67</speed>
  <fix>3d</fix>
</trkpt>
<trkpt lat="40.0716747" lon="-105.2292996">
  <ele>1582.92</ele>
  <time>2026-08-28T17:49:31Z</time>
  <course>232.36</course>
  <speed>1.8585209172887993</speed>
  <fix>3d</fix>
</trkpt>
<trkpt lat="40.0716762" lon="-105.2292975">
  <ele>1583.0</ele>
  <time>2026-08-28T17:49:31Z</time>
  <course>230.83</course>
  <speed>1.79</speed>
  <fix>3d</fix>
</trkpt>
<trkpt lat="40.0716737" lon="-105.2293014">
  <ele>1582.92</ele>
  <time>2026-08-28T17:49:31Z</time>
  <course>232.95</course>
  <speed>1.9321749403198458</speed>
  <fix>3d</fix>
</trkpt>
<trkpt lat="40.0716762" lon="-105.2292975">
  <ele>1583.0</ele>
  <time>2026-08-28T17:49:31Z</time>
  <course>230.83</course>
  <speed>1.79</speed>
  <fix>3d</fix>
</trkpt>
<trkpt lat="40.0716726" lon="-105.2293033">
  <ele>1582.92</ele>
  <time>2026-08-28T17:49:31Z</time>
  <course>233.43</course>
  <speed>2.020024752323595</speed>
  <fix>3d</fix>
</trkpt>
<trkpt lat="40.0716741" lon="-105.2293009">
  <ele>1583.0</ele>
  <time>2026-08-28T17:49:31Z</time>
  <course>232.15</course>
  <speed>1.93</speed>
  <fix>3d</fix>
</trkpt>
<trkpt lat="40.0716715" lon="-105.2293052">
  <ele>1582.91</ele>
  <time>2026-08-28T17:49:31Z</time>
  <course>233.8</course>
  <speed>2.1</speed>
  <fix>3d</fix>
</trkpt>
<trkpt lat="40.0716741" lon="-105.2293009">
  <ele>1583.0</ele>
  <time>2026-08-28T17:49:31Z</time>
  <course>232.15</course>
  <speed>1.93</speed>
  <fix>3d</fix>
</trkpt>
<trkpt lat="40.0716704" lon="-105.2293073">
  <ele>1582.91</ele>
  <time>2026-08-28T17:49:31Z</time>
  <course>234.11</course>
  <speed>2.188058500132023</speed>
  <fix>3d</fix>
</trkpt>
<trkpt lat="40.0716741" lon="-105.2293009">
  <ele>1583.0</ele>
  <time>2026-08-28T17:49:31Z</time>
  <course>232.15</course>
  <speed>1.93</speed>
  <fix>3d</fix>
</trkpt>
<trkpt lat="40.0716692" lon="-105.2293094">
  <ele>1582.91</ele>
  <time>2026-08-28T17:49:31Z</time>
  <course>234.35</course>
  <speed>2.282126201593593</speed>
  <fix>3d</fix>
</trkpt>
<trkpt lat="40.0716719" lon="-105.2293048">
  <ele>1583.0</ele>
  <time>2026-08-28T17:49:31Z</time>
  <course>233.02</course>
  <speed>2.1</speed>
  <fix>3d</fix>
</trkpt>
<trkpt lat="40.0716679" lon="-105.2293116">
  <ele>1582.92</ele>
  <time>2026-08-28T17:49:31Z</time>
  <course>234.52</course>
  <speed>2.3843028331149547</speed>
  <fix>3d</fix>
</trkpt>
<trkpt lat="40.0716719" lon="-105.2293048">
  <ele>1583.0</ele>
  <time>2026-08-28T17:49:31Z</time>
  <course>233.02</course>
  <speed>2.1</speed>
  <fix>3d</fix>
</trkpt>
<trkpt lat="40.0716667" lon="-105.229314">
  <ele>1582.92</ele>
  <time>2026-08-28T17:49:31Z</time>
  <course>234.64</course>
  <speed>2.4784269204477263</speed>
  <fix>3d</fix>
</trkpt>
<trkpt lat="40.0716695" lon="-105.2293089">
  <ele>1583.0</ele>
  <time>2026-08-28T17:49:31Z</time>
  <course>233.55</course>
  <speed>2.28</speed>
  <fix>3d</fix>
</trkpt>
<trkpt lat="40.0716653" lon="-105.2293164">
  <ele>1582.92</ele>
  <time>2026-08-28T17:49:31Z</time>
  <course>234.72</course>
  <speed>2.5865227623200995</speed>
  <fix>3d</fix>
</trkpt>
<trkpt lat="40.0716695" lon="-105.2293089">
  <ele>1583.0</ele>
  <time>2026-08-28T17:49:31Z</time>
  <course>233.55</course>
  <speed>2.28</speed>
  <fix>3d</fix>
</trkpt>
<trkpt lat="40.071664" lon="-105.2293189">
  <ele>1582.92</ele>
  <time>2026-08-28T17:49:31Z</time>
  <course>234.77</course>
  <speed>2.6865033035527803</speed>
  <fix>3d</fix>
</trkpt>
<trkpt lat="40.071667" lon="-105.2293134">
  <ele>1583.0</ele>
  <time>2026-08-28T17:49:31Z</time>
  <course>233.85</course>
  <speed>2.48</speed>
  <fix>3d</fix>
</trkpt>
<trkpt lat="40.0716625" lon="-105.2293215">
  <ele>1582.93</ele>
  <time>2026-08-28T17:49:31Z</time>
  <course>234.79</course>
  <speed>2.7946019394539894</speed>
  <fix>3d</fix>
</trkpt>
<trkpt lat="40.0716642" lon="-105.2293183">
  <ele>1583.0</ele>
  <time>2026-08-28T17:49:31Z</time>
  <course>233.98</course>
  <speed>2.69</speed>
  <fix>3d</fix>
</trkpt>
<trkpt lat="40.071661" lon="-105.2293243">
  <ele>1582.93</ele>
  <time>2026-08-28T17:49:31Z</time>
  <course>234.79</course>
  <speed>2.9027056344038744</speed>
  <fix>3d</fix>
</trkpt>
<trkpt lat="40.0716642" lon="-105.2293183">
  <ele>1583.0</ele>
  <time>2026-08-28T17:49:31Z</time>
  <course>233.98</course>
  <speed>2.69</speed>
  <fix>3d</fix>
</trkpt>
<trkpt lat="40.0716594" lon="-105.2293271">
  <ele>1582.94</ele>
  <time>2026-08-28T17:49:31Z</time>
  <course>234.79</course>
  <speed>3.0166372005927395</speed>
  <fix>3d</fix>
</trkpt>
<trkpt lat="40.0716613" lon="-105.2293236">
  <ele>1583.0</ele>
  <time>2026-08-28T17:49:31Z</time>
  <course>234.01</course>
  <speed>2.9</speed>
  <fix>3d</fix>
</trkpt>
<trkpt lat="40.0716578" lon="-105.2293301">
  <ele>1582.94</ele>
  <time>2026-08-28T17:49:31Z</time>
  <course>234.78</course>
  <speed>3.1247399891831</speed>
  <fix>3d</fix>
</trkpt>
<trkpt lat="40.0716613" lon="-105.2293236">
  <ele>1583.0</ele>
  <time>2026-08-28T17:49:31Z</time>
  <course>234.01</course>
  <speed>2.9</speed>
  <fix>3d</fix>
</trkpt>
<trkpt lat="40.0716561" lon="-105.2293331">
  <ele>1582.95</ele>
  <time>2026-08-28T17:49:31Z</time>
  <course>234.74</course>
  <speed>3.2305572274763996</speed>
  <fix>3d</fix>
</trkpt>
<trkpt lat="40.0716581" lon="-105.2293293">
  <ele>1583.0</ele>
  <time>2026-08-28T17:49:31Z</time>
  <course>233.98</course>
  <speed>3.12</speed>
  <fix>3d</fix>
</trkpt>
<trkpt lat="40.0716543" lon="-105.2293363">
  <ele>1582.95</ele>
  <time>2026-08-28T17:49:31Z</time>
  <course>234.69</course>
  <speed>3.3445029526074577</speed>
  <fix>3d</fix>
</trkpt>
<trkpt lat="40.0716581" lon="-105.2293293">
  <ele>1583.0</ele>
  <time>2026-08-28T17:49:31Z</time>
  <course>233.98</course>
  <speed>3.12</speed>
  <fix>3d</fix>
</trkpt>
<trkpt lat="40.0716525" lon="-105.2293396">
  <ele>1582.95</ele>
  <time>2026-08-28T17:49:31Z</time>
  <course>234.65</course>
  <speed>3.4525932282850813</speed>
  <fix>3d</fix>
</trkpt>
<trkpt lat="40.0716547" lon="-105.2293355">
  <ele>1583.0</ele>
  <time>2026-08-28T17:49:31Z</time>
  <course>233.9</course>
  <speed>3.34</speed>
  <fix>3d</fix>
</trkpt>
<trkpt lat="40.0716506" lon="-105.2293429">
  <ele>1582.95</ele>
  <time>2026-08-28T17:49:31Z</time>
  <course>234.55</course>
  <speed>3.5665389385228923</speed>
  <fix>3d</fix>
</trkpt>
<trkpt lat="40.0716547" lon="-105.2293355">
  <ele>1583.0</ele>
  <time>2026-08-28T17:49:31Z</time>
  <course>233.9</course>
  <speed>3.34</speed>
  <fix>3d</fix>
</trkpt>
<trkpt lat="40.0716487" lon="-105.2293464">
  <ele>1582.95</ele>
  <time>2026-08-28T17:49:31Z</time>
  <course>234.46</course>
  <speed>3.6723970373585697</speed>
  <fix>3d</fix>
</trkpt>
<trkpt lat="40.071651" lon="-105.229342">
  <ele>1583.0</ele>
  <time>2026-08-28T17:49:31Z</time>
  <course>233.76</course>
  <speed>3.55</speed>
  <fix>3d</fix>
</trkpt>
<trkpt lat="40.0716467" lon="-105.22935">
  <ele>1582.95</ele>
  <time>2026-08-28T17:49:31Z</time>
  <course>234.36</course>
  <speed>3.77828003197222</speed>
  <fix>3d</fix>
</trkpt>
<trkpt lat="40.071651" lon="-105.229342">
  <ele>1583.0</ele>
  <time>2026-08-28T17:49:31Z</time>
  <course>233.76</course>
  <speed>3.55</speed>
  <fix>3d</fix>
</trkpt>
<trkpt lat="40.0716446" lon="-105.2293537">
  <ele>1582.95</ele>
  <time>2026-08-28T17:49:31Z</time>
  <course>234.25</course>
  <speed>3.884185886385975</speed>
  <fix>3d</fix>
</trkpt>
<trkpt lat="40.0716472" lon="-105.2293489">
  <ele>1583.0</ele>
  <time>2026-08-28T17:49:31Z</time>
  <course>233.56</course>
  <speed>3.76</speed>
  <fix>3d</fix>
</trkpt>
<trkpt lat="40.0716425" lon="-105.2293575">
  <ele>1582.95</ele>
  <time>2026-08-28T17:49:31Z</time>
  <course>234.15</course>
  <speed>3.990112780360976</speed>
  <fix>3d</fix>
</trkpt>
<trkpt lat="40.0716472" lon="-105.2293489">
  <ele>1583.0</ele>
  <time>2026-08-28T17:49:31Z</time>
  <course>233.56</course>
  <speed>3.76</speed>
  <fix>3d</fix>
</trkpt>
<trkpt lat="40.0716403" lon="-105.2293613">
  <ele>1582.96</ele>
  <time>2026-08-28T17:49:31Z</time>
  <course>234.04</course>
  <speed>4.090110022970042</speed>
  <fix>3d</fix>
</trkpt>
<trkpt lat="40.071643" lon="-105.2293562">
  <ele>1583.0</ele>
  <time>2026-08-28T17:49:31Z</time>
  <course>233.35</course>
  <speed>3.97</speed>
  <fix>3d</fix>
</trkpt>
<trkpt lat="40.071638" lon="-105.2293652">
  <ele>1582.96</ele>
  <time>2026-08-28T17:49:32Z</time>
  <course>233.93</course>
  <speed>4.196057673578856</speed>
  <fix>3d</fix>
</trkpt>
<trkpt lat="40.071643" lon="-105.2293562">
  <ele>1583.0</ele>
  <time>2026-08-28T17:49:32Z</time>
  <course>233.35</course>
  <speed>3.97</speed>
  <fix>3d</fix>
</trkpt>
<trkpt lat="40.0716357" lon="-105.2293693">
  <ele>1582.96</ele>
  <time>2026-08-28T17:49:32Z</time>
  <course>233.83</course>
  <speed>4.302022780041965</speed>
  <fix>3d</fix>
</trkpt>
<trkpt lat="40.071643" lon="-105.2293562">
  <ele>1583.0</ele>
  <time>2026-08-28T17:49:32Z</time>
  <course>233.35</course>
  <speed>3.97</speed>
  <fix>3d</fix>
</trkpt>
<trkpt lat="40.0716334" lon="-105.2293733">
  <ele>1582.96</ele>
  <time>2026-08-28T17:49:32Z</time>
  <course>233.73</course>
  <speed>4.394007282652135</speed>
  <fix>3d</fix>
</trkpt>
<trkpt lat="40.0716386" lon="-105.2293639">
  <ele>1583.0</ele>
  <time>2026-08-28T17:49:32Z</time>
  <course>233.14</course>
  <speed>4.17</speed>
  <fix>3d</fix>
</trkpt>
<trkpt lat="40.071631" lon="-105.2293775">
  <ele>1582.96</ele>
  <time>2026-08-28T17:49:32Z</time>
  <course>233.63</course>
  <speed>4.492004007121988</speed>
  <fix>3d</fix>
</trkpt>
<trkpt lat="40.0716386" lon="-105.2293639">
  <ele>1583.0</ele>
  <time>2026-08-28T17:49:32Z</time>
  <course>233.14</course>
  <speed>4.17</speed>
  <fix>3d</fix>
</trkpt>
<trkpt lat="40.0716285" lon="-105.2293817">
  <ele>1582.96</ele>
  <time>2026-08-28T17:49:32Z</time>
  <course>233.57</course>
  <speed>4.592003919858954</speed>
  <fix>3d</fix>
</trkpt>
<trkpt lat="40.0716339" lon="-105.229372">
  <ele>1583.0</ele>
  <time>2026-08-28T17:49:32Z</time>
  <course>232.93</course>
  <speed>4.37</speed>
  <fix>3d</fix>
</trkpt>
<trkpt lat="40.071626" lon="-105.229386">
  <ele>1582.96</ele>
  <time>2026-08-28T17:49:32Z</time>
  <course>233.49</course>
  <speed>4.684015371452148</speed>
  <fix>3d</fix>
</trkpt>
<trkpt lat="40.0716339" lon="-105.229372">
  <ele>1583.0</ele>
  <time>2026-08-28T17:49:32Z</time>
  <course>232.93</course>
  <speed>4.37</speed>
  <fix>3d</fix>
</trkpt>
<trkpt lat="40.0716234" lon="-105.2293904">
  <ele>1582.95</ele>
  <time>2026-08-28T17:49:32Z</time>
  <course>233.43</course>
  <speed>4.77603391947754</speed>
  <fix>3d</fix>
</trkpt>
<trkpt lat="40.0716291" lon="-105.2293804">
  <ele>1583.0</ele>
  <time>2026-08-28T17:49:32Z</time>
  <course>232.76</course>
  <speed>4.57</speed>
  <fix>3d</fix>
</trkpt>
<trkpt lat="40.0716208" lon="-105.2293949">
  <ele>1582.95</ele>
  <time>2026-08-28T17:49:32Z</time>
  <course>233.37</course>
  <speed>4.86805916151396</speed>
  <fix>3d</fix>
</trkpt>
<trkpt lat="40.0716291" lon="-105.2293804">
  <ele>1583.0</ele>
  <time>2026-08-28T17:49:32Z</time>
  <course>232.76</course>
  <speed>4.57</speed>
  <fix>3d</fix>
</trkpt>
<trkpt lat="40.0716181" lon="-105.2293995">
  <ele>1582.95</ele>
  <time>2026-08-28T17:49:32Z</time>
  <course>233.3</course>
  <speed>4.946079255329417</speed>
  <fix>3d</fix>
</trkpt>
<trkpt lat="40.071624" lon="-105.229389">
  <ele>1583.0</ele>
  <time>2026-08-28T17:49:32Z</time>
  <course>232.63</course>
  <speed>4.76</speed>
  <fix>3d</fix>
</trkpt>
<trkpt lat="40.0716154" lon="-105.2294041">
  <ele>1582.94</ele>
  <time>2026-08-28T17:49:32Z</time>
  <course>233.24</course>
  <speed>5.030159043211258</speed>
  <fix>3d</fix>
</trkpt>
<trkpt lat="40.0716187" lon="-105.2293981">
  <ele>1583.0</ele>
  <time>2026-08-28T17:49:32Z</time>
  <course>232.5</course>
  <speed>4.93</speed>
  <fix>3d</fix>
</trkpt>
<trkpt lat="40.0716126" lon="-105.2294088">
  <ele>1582.94</ele>
  <time>2026-08-28T17:49:32Z</time>
  <course>233.17</course>
  <speed>5.094173141933831</speed>
  <fix>3d</fix>
</trkpt>
<trkpt lat="40.0716187" lon="-105.2293981">
  <ele>1583.0</ele>
  <time>2026-08-28T17:49:32Z</time>
  <course>232.5</course>
  <speed>4.93</speed>
  <fix>3d</fix>
</trkpt>
<trkpt lat="40.0716098" lon="-105.2294136">
  <ele>1582.94</ele>
  <time>2026-08-28T17:49:32Z</time>
  <course>233.1</course>
  <speed>5.156326211557992</speed>
  <fix>3d</fix>
</trkpt>
<trkpt lat="40.0716132" lon="-105.2294074">
  <ele>1583.0</ele>
  <time>2026-08-28T17:49:32Z</time>
  <course>232.36</course>
  <speed>5.08</speed>
  <fix>3d</fix>
</trkpt>
<trkpt lat="40.0716069" lon="-105.2294184">
  <ele>1582.93</ele>
  <time>2026-08-28T17:49:32Z</time>
  <course>233.04</course>
  <speed>5.2063230787188</speed>
  <fix>3d</fix>
</trkpt>
<trkpt lat="40.0716132" lon="-105.2294074">
  <ele>1583.0</ele>
  <time>2026-08-28T17:49:32Z</time>
  <course>232.36</course>
  <speed>5.08</speed>
  <fix>3d</fix>
</trkpt>
<trkpt lat="40.0716041" lon="-105.2294233">
  <ele>1582.93</ele>
  <time>2026-08-28T17:49:32Z</time>
  <course>233.0</course>
  <speed>5.248390229394152</speed>
  <fix>3d</fix>
</trkpt>
<trkpt lat="40.0716076" lon="-105.229417">
  <ele>1583.0</ele>
  <time>2026-08-28T17:49:32Z</time>
  <course>232.24</course>
  <speed>5.19</speed>
  <fix>3d</fix>
</trkpt>
<trkpt lat="40.0716011" lon="-105.2294282">
  <ele>1582.93</ele>
  <time>2026-08-28T17:49:32Z</time>
  <course>232.97</course>
  <speed>5.276438192568922</speed>
  <fix>3d</fix>
</trkpt>
<trkpt lat="40.0716076" lon="-105.229417">
  <ele>1583.0</ele>
  <time>2026-08-28T17:49:32Z</time>
  <course>232.24</course>
  <speed>5.19</speed>
  <fix>3d</fix>
</trkpt>
<trkpt lat="40.0715982" lon="-105.2294331">
  <ele>1582.93</ele>
  <time>2026-08-28T17:49:32Z</time>
  <course>232.94</course>
  <speed>5.290463117724194</speed>
  <fix>3d</fix>
</trkpt>
<trkpt lat="40.0716019" lon="-105.2294267">
  <ele>1583.0</ele>
  <time>2026-08-28T17:49:32Z</time>
  <course>232.17</course>
  <speed>5.25</speed>
  <fix>3d</fix>
</trkpt>
<trkpt lat="40.0715952" lon="-105.2294381">
  <ele>1582.93</ele>
  <time>2026-08-28T17:49:32Z</time>
  <course>232.87</course>
  <speed>5.2965743646247425</speed>
  <fix>3d</fix>
</trkpt>
<trkpt lat="40.0716019" lon="-105.2294267">
  <ele>1583.0</ele>
  <time>2026-08-28T17:49:32Z</time>
  <course>232.17</course>
  <speed>5.25</speed>
  <fix>3d</fix>
</trkpt>
<trkpt lat="40.0715923" lon="-105.2294431">
  <ele>1582.94</ele>
  <time>2026-08-28T17:49:32Z</time>
  <course>232.85</course>
  <speed>5.288667128870941</speed>
  <fix>3d</fix>
</trkpt>
<trkpt lat="40.071596" lon="-105.2294364">
  <ele>1583.0</ele>
  <time>2026-08-28T17:49:32Z</time>
  <course>232.09</course>
  <speed>5.27</speed>
  <fix>3d</fix>
</trkpt>
<trkpt lat="40.0715893" lon="-105.229448">
  <ele>1582.94</ele>
  <time>2026-08-28T17:49:32Z</time>
  <course>232.79</course>
  <speed>5.28076698974685</speed>
  <fix>3d</fix>
</trkpt>
<trkpt lat="40.071596" lon="-105.2294364">
  <ele>1583.0</ele>
  <time>2026-08-28T17:49:32Z</time>
  <course>232.09</course>
  <speed>5.27</speed>
  <fix>3d</fix>
</trkpt>
<trkpt lat="40.0715864" lon="-105.2294529">
  <ele>1582.94</ele>
  <time>2026-08-28T17:49:32Z</time>
  <course>232.73</course>
  <speed>5.258840176312645</speed>
  <fix>3d</fix>
</trkpt>
<trkpt lat="40.0715902" lon="-105.2294462">
  <ele>1583.0</ele>
  <time>2026-08-28T17:49:32Z</time>
  <course>231.98</course>
  <speed>5.26</speed>
  <fix>3d</fix>
</trkpt>
<trkpt lat="40.0715835" lon="-105.2294577">
  <ele>1582.95</ele>
  <time>2026-08-28T17:49:32Z</time>
  <course>232.69</course>
  <speed>5.236917031995065</speed>
  <fix>3d</fix>
</trkpt>
<trkpt lat="40.0715902" lon="-105.2294462">
  <ele>1583.0</ele>
  <time>2026-08-28T17:49:32Z</time>
  <course>231.98</course>
  <speed>5.26</speed>
  <fix>3d</fix>
</trkpt>
<trkpt lat="40.0715806" lon="-105.2294626">
  <ele>1582.95</ele>
  <time>2026-08-28T17:49:32Z</time>
  <course>232.62</course>
  <speed>5.207120125366804</speed>
  <fix>3d</fix>
</trkpt>
<trkpt lat="40.0715844" lon="-105.2294558">
  <ele>1583.0</ele>
  <time>2026-08-28T17:49:32Z</time>
  <course>231.87</course>
  <speed>5.21</speed>
  <fix>3d</fix>
</trkpt>
<trkpt lat="40.0715777" lon="-105.2294674">
  <ele>1582.95</ele>
  <time>2026-08-28T17:49:32Z</time>
  <course>232.58</course>
  <speed>5.17117008035899</speed>
  <fix>3d</fix>
</trkpt>
<trkpt lat="40.0715844" lon="-105.2294558">
  <ele>1583.0</ele>
  <time>2026-08-28T17:49:32Z</time>
  <course>231.87</course>
  <speed>5.21</speed>
  <fix>3d</fix>
</trkpt>
<trkpt lat="40.0715748" lon="-105.2294721">
  <ele>1582.95</ele>
  <time>2026-08-28T17:49:32Z</time>
  <course>232.54</course>
  <speed>5.13522151420949</speed>
  <fix>3d</fix>
</trkpt>
<trkpt lat="40.0715844" lon="-105.2294558">
  <ele>1583.0</ele>
  <time>2026-08-28T17:49:32Z</time>
  <course>231.87</course>
  <speed>5.21</speed>
  <fix>3d</fix>
</trkpt>
<trkpt lat="40.071572" lon="-105.2294768">
  <ele>1582.95</ele>
  <time>2026-08-28T17:49:32Z</time>
  <course>232.47</course>
  <speed>5.091414341811124</speed>
  <fix>3d</fix>
</trkpt>
<trkpt lat="40.0715786" lon="-105.2294654">
  <ele>1583.0</ele>
  <time>2026-08-28T17:49:32Z</time>
  <course>231.77</course>
  <speed>5.15</speed>
  <fix>3d</fix>
</trkpt>
<trkpt lat="40.0715692" lon="-105.2294814">
  <ele>1582.95</ele>
  <time>2026-08-28T17:49:32Z</time>
  <course>232.43</course>
  <speed>5.055472282586465</speed>
  <fix>3d</fix>
</trkpt>
<trkpt lat="40.0715786" lon="-105.2294654">
  <ele>1583.0</ele>
  <time>2026-08-28T17:49:32Z</time>
  <course>231.77</course>
  <speed>5.15</speed>
  <fix>3d</fix>
</trkpt>
<trkpt lat="40.0715664" lon="-105.229486">
  <ele>1582.95</ele>
  <time>2026-08-28T17:49:32Z</time>
  <course>232.38</course>
  <speed>5.019531850680898</speed>
  <fix>3d</fix>
</trkpt>
<trkpt lat="40.0715729" lon="-105.2294749">
  <ele>1583.0</ele>
  <time>2026-08-28T17:49:32Z</time>
  <course>231.67</course>
  <speed>5.09</speed>
  <fix>3d</fix>
</trkpt>
<trkpt lat="40.0715636" lon="-105.2294905">
  <ele>1582.95</ele>
  <time>2026-08-28T17:49:32Z</time>
  <course>232.33</course>
  <speed>4.989799595174139</speed>
  <fix>3d</fix>
</trkpt>
<trkpt lat="40.0715729" lon="-105.2294749">
  <ele>1583.0</ele>
  <time>2026-08-28T17:49:32Z</time>
  <course>231.67</course>
  <speed>5.09</speed>
  <fix>3d</fix>
</trkpt>
<trkpt lat="40.0715609" lon="-105.229495">
  <ele>1582.95</ele>
  <time>2026-08-28T17:49:32Z</time>
  <course>232.29</course>
  <speed>4.9538671762573525</speed>
  <fix>3d</fix>
</trkpt>
<trkpt lat="40.0715673" lon="-105.2294843">
  <ele>1583.0</ele>
  <time>2026-08-28T17:49:32Z</time>
  <course>231.56</course>
  <speed>5.02</speed>
  <fix>3d</fix>
</trkpt>
<trkpt lat="40.0715581" lon="-105.2294995">
  <ele>1582.95</ele>
  <time>2026-08-28T17:49:32Z</time>
  <course>232.22</course>
  <speed>4.917936559167879</speed>
  <fix>3d</fix>
</trkpt>
<trkpt lat="40.0715617" lon="-105.2294934">
  <ele>1583.0</ele>
  <time>2026-08-28T17:49:32Z</time>
  <course>231.45</course>
  <speed>4.96</speed>
  <fix>3d</fix>
</trkpt>
<trkpt lat="40.0715553" lon="-105.229504">
  <ele>1582.95</ele>
  <time>2026-08-28T17:49:32Z</time>
  <course>232.19</course>
  <speed>4.896059640159625</speed>
  <fix>3d</fix>
</trkpt>
<trkpt lat="40.0715617" lon="-105.2294934">
  <ele>1583.0</ele>
  <time>2026-08-28T17:49:32Z</time>
  <course>231.45</course>
  <speed>4.96</speed>
  <fix>3d</fix>
</trkpt>
<trkpt lat="40.0715526" lon="-105.2295085">
  <ele>1582.95</ele>
  <time>2026-08-28T17:49:32Z</time>
  <course>232.15</course>
  <speed>4.874187111714116</speed>
  <fix>3d</fix>
</trkpt>
<trkpt lat="40.0715562" lon="-105.2295025">
  <ele>1583.0</ele>
  <time>2026-08-28T17:49:32Z</time>
  <course>231.36</course>
  <speed>4.91</speed>
  <fix>3d</fix>
</trkpt>
<trkpt lat="40.0715499" lon="-105.2295129">
  <ele>1582.95</ele>
  <time>2026-08-28T17:49:32Z</time>
  <course>232.09</course>
  <speed>4.852319033204639</speed>
  <fix>3d</fix>
</trkpt>
<trkpt lat="40.0715562" lon="-105.2295025">
  <ele>1583.0</ele>
  <time>2026-08-28T17:49:32Z</time>
  <course>231.36</course>
  <speed>4.91</speed>
  <fix>3d</fix>
</trkpt>
<trkpt lat="40.0715472" lon="-105.2295174">
  <ele>1582.95</ele>
  <time>2026-08-28T17:49:32Z</time>
  <course>232.05</course>
  <speed>4.844512359360847</speed>
  <fix>3d</fix>
</trkpt>
<trkpt lat="40.0715507" lon="-105.2295114">
  <ele>1583.0</ele>
  <time>2026-08-28T17:49:32Z</time>
  <course>231.27</course>
  <speed>4.87</speed>
  <fix>3d</fix>
</trkpt>
<trkpt lat="40.0715444" lon="-105.2295218">
  <ele>1582.95</ele>
  <time>2026-08-28T17:49:32Z</time>
  <course>231.99</course>
  <speed>4.83045546506745</speed>
  <fix>3d</fix>
</trkpt>
<trkpt lat="40.0715507" lon="-105.2295114">
  <ele>1583.0</ele>
  <time>2026-08-28T17:49:32Z</time>
  <course>231.27</course>
  <speed>4.87</speed>
  <fix>3d</fix>
</trkpt>
<trkpt lat="40.0715417" lon="-105.2295262">
  <ele>1582.95</ele>
  <time>2026-08-28T17:49:32Z</time>
  <course>231.95</course>
  <speed>4.82265487050442</speed>
  <fix>3d</fix>
</trkpt>
<trkpt lat="40.0715452" lon="-105.2295203">
  <ele>1583.0</ele>
  <time>2026-08-28T17:49:32Z</time>
  <course>231.16</course>
  <speed>4.85</speed>
  <fix>3d</fix>
</trkpt>
<trkpt lat="40.0715389" lon="-105.2295307">
  <ele>1582.95</ele>
  <time>2026-08-28T17:49:32Z</time>
  <course>231.91</course>
  <speed>4.814862407172193</speed>
  <fix>3d</fix>
</trkpt>
<trkpt lat="40.0715452" lon="-105.2295203">
  <ele>1583.0</ele>
  <time>2026-08-28T17:49:32Z</time>
  <course>231.16</course>
  <speed>4.85</speed>
  <fix>3d</fix>
</trkpt>
<trkpt lat="40.0715362" lon="-105.2295351">
  <ele>1582.95</ele>
  <time>2026-08-28T17:49:32Z</time>
  <course>231.85</course>
  <speed>4.814862407172193</speed>
  <fix>3d</fix>
</trkpt>
<trkpt lat="40.0715397" lon="-105.2295292">
  <ele>1583.0</ele>
  <time>2026-08-28T17:49:32Z</time>
  <course>231.05</course>
  <speed>4.84</speed>
  <fix>3d</fix>
</trkpt>
<trkpt lat="40.0715334" lon="-105.2295395">
  <ele>1582.95</ele>
  <time>2026-08-28T17:49:32Z</time>
  <course>231.82</course>
  <speed>4.807078114613907</speed>
  <fix>3d</fix>
</trkpt>
<trkpt lat="40.0715397" lon="-105.2295292">
  <ele>1583.0</ele>
  <time>2026-08-28T17:49:32Z</time>
  <course>231.05</course>
  <speed>4.84</speed>
  <fix>3d</fix>
</trkpt>
<trkpt lat="40.0715307" lon="-105.2295439">
  <ele>1582.94</ele>
  <time>2026-08-28T17:49:32Z</time>
  <course>231.78</course>
  <speed>4.813366805054441</speed>
  <fix>3d</fix>
</trkpt>
<trkpt lat="40.0715342" lon="-105.229538">
  <ele>1583.0</ele>
  <time>2026-08-28T17:49:32Z</time>
  <course>230.96</course>
  <speed>4.83</speed>
  <fix>3d</fix>
</trkpt>
<trkpt lat="40.0715279" lon="-105.2295484">
  <ele>1582.94</ele>
  <time>2026-08-28T17:49:32Z</time>
  <course>231.73</course>
  <speed>4.813366805054441</speed>
  <fix>3d</fix>
</trkpt>
<trkpt lat="40.0715342" lon="-105.229538">
  <ele>1583.0</ele>
  <time>2026-08-28T17:49:32Z</time>
  <course>230.96</course>
  <speed>4.83</speed>
  <fix>3d</fix>
</trkpt>
<trkpt lat="40.0715252" lon="-105.2295528">
  <ele>1582.94</ele>
  <time>2026-08-28T17:49:32Z</time>
  <course>231.69</course>
  <speed>4.819668038361148</speed>
  <fix>3d</fix>
</trkpt>
<trkpt lat="40.0715288" lon="-105.2295469">
  <ele>1583.0</ele>
  <time>2026-08-28T17:49:32Z</time>
  <course>230.88</course>
  <speed>4.84</speed>
  <fix>3d</fix>
</trkpt>
<trkpt lat="40.0715224" lon="-105.2295572">
  <ele>1582.94</ele>
  <time>2026-08-28T17:49:32Z</time>
  <course>231.67</course>
  <speed>4.827432029557744</speed>
  <fix>3d</fix>
</trkpt>
<trkpt lat="40.0715288" lon="-105.2295469">
  <ele>1583.0</ele>
  <time>2026-08-28T17:49:32Z</time>
  <course>230.88</course>
  <speed>4.84</speed>
  <fix>3d</fix>
</trkpt>
<trkpt lat="40.0715197" lon="-105.2295616">
  <ele>1582.94</ele>
  <time>2026-08-28T17:49:32Z</time>
  <course>231.61</course>
  <speed>4.833735615442781</speed>
  <fix>3d</fix>
</trkpt>
<trkpt lat="40.0715288" lon="-105.2295469">
  <ele>1583.0</ele>
  <time>2026-08-28T17:49:32Z</time>
  <course>230.88</course>
  <speed>4.84</speed>
  <fix>3d</fix>
</trkpt>
<trkpt lat="40.0715169" lon="-105.229566">
  <ele>1582.93</ele>
  <time>2026-08-28T17:49:32Z</time>
  <course>231.58</course>
  <speed>4.833735615442781</speed>
  <fix>3d</fix>
</trkpt>
<trkpt lat="40.0715233" lon="-105.2295556">
  <ele>1583.0</ele>
  <time>2026-08-28T17:49:32Z</time>
  <course>230.79</course>
  <speed>4.85</speed>
  <fix>3d</fix>
</trkpt>
<trkpt lat="40.0715142" lon="-105.2295704">
  <ele>1582.93</ele>
  <time>2026-08-28T17:49:32Z</time>
  <course>231.55</course>
  <speed>4.847803626385871</speed>
  <fix>3d</fix>
</trkpt>
<trkpt lat="40.0715233" lon="-105.2295556">
  <ele>1583.0</ele>
  <time>2026-08-28T17:49:32Z</time>
  <course>230.79</course>
  <speed>4.85</speed>
  <fix>3d</fix>
</trkpt>
<trkpt lat="40.0715114" lon="-105.2295748">
  <ele>1582.94</ele>
  <time>2026-08-28T17:49:32Z</time>
  <course>231.5</course>
  <speed>4.8541219597369</speed>
  <fix>3d</fix>
</trkpt>
<trkpt lat="40.0715177" lon="-105.2295645">
  <ele>1583.0</ele>
  <time>2026-08-28T17:49:32Z</time>
  <course>230.71</course>
  <speed>4.86</speed>
  <fix>3d</fix>
</trkpt>
<trkpt lat="40.0715087" lon="-105.2295792">
  <ele>1582.94</ele>
  <time>2026-08-28T17:49:32Z</time>
  <course>231.47</course>
  <speed>4.8541219597369</speed>
  <fix>3d</fix>
</trkpt>
<trkpt lat="40.0715177" lon="-105.2295645">
  <ele>1583.0</ele>
  <time>2026-08-28T17:49:32Z</time>
  <course>230.71</course>
  <speed>4.86</speed>
  <fix>3d</fix>
</trkpt>
<trkpt lat="40.0715059" lon="-105.2295835">
  <ele>1582.94</ele>
  <time>2026-08-28T17:49:32Z</time>
  <course>231.42</course>
  <speed>4.868192683121735</speed>
  <fix>3d</fix>
</trkpt>
<trkpt lat="40.0715122" lon="-105.2295733">
  <ele>1583.0</ele>
  <time>2026-08-28T17:49:32Z</time>
  <course>230.63</course>
  <speed>4.88</speed>
  <fix>3d</fix>
</trkpt>
<trkpt lat="40.0715032" lon="-105.2295879">
  <ele>1582.94</ele>
  <time>2026-08-28T17:49:32Z</time>
  <course>231.39</course>
  <speed>4.874525617944786</speed>
  <fix>3d</fix>
</trkpt>
<trkpt lat="40.0715122" lon="-105.2295733">
  <ele>1583.0</ele>
  <time>2026-08-28T17:49:32Z</time>
  <course>230.63</course>
  <speed>4.88</speed>
  <fix>3d</fix>
</trkpt>
<trkpt lat="40.0715004" lon="-105.2295924">
  <ele>1582.94</ele>
  <time>2026-08-28T17:49:32Z</time>
  <course>231.36</course>
  <speed>4.874525617944786</speed>
  <fix>3d</fix>
</trkpt>
<trkpt lat="40.0715067" lon="-105.2295822">
  <ele>1583.0</ele>
  <time>2026-08-28T17:49:32Z</time>
  <course>230.55</course>
  <speed>4.9</speed>
  <fix>3d</fix>
</trkpt>
<trkpt lat="40.0714976" lon="-105.2295968">
  <ele>1582.94</ele>
  <time>2026-08-28T17:49:32Z</time>
  <course>231.33</course>
  <speed>4.888598981303335</speed>
  <fix>3d</fix>
</trkpt>
<trkpt lat="40.071501" lon="-105.2295911">
  <ele>1583.0</ele>
  <time>2026-08-28T17:49:32Z</time>
  <course>230.47</course>
  <speed>4.92</speed>
  <fix>3d</fix>
</trkpt>
<trkpt lat="40.0714948" lon="-105.2296012">
  <ele>1582.94</ele>
  <time>2026-08-28T17:49:32Z</time>
  <course>231.28</course>
  <speed>4.902672740454945</speed>
  <fix>3d</fix>
</trkpt>
<trkpt lat="40.071501" lon="-105.2295911">
  <ele>1583.0</ele>
  <time>2026-08-28T17:49:32Z</time>
  <course>230.47</course>
  <speed>4.92</speed>
  <fix>3d</fix>
</trkpt>
<trkpt lat="40.071492" lon="-105.2296057">
  <ele>1582.94</ele>
  <time>2026-08-28T17:49:32Z</time>
  <course>231.25</course>
  <speed>4.909022305917952</speed>
  <fix>3d</fix>
</trkpt>
<trkpt lat="40.0714954" lon="-105.2296001">
  <ele>1583.0</ele>
  <time>2026-08-28T17:49:32Z</time>
  <course>230.39</course>
  <speed>4.94</speed>
  <fix>3d</fix>
</trkpt>
<trkpt lat="40.0714891" lon="-105.2296102">
  <ele>1582.94</ele>
  <time>2026-08-28T17:49:32Z</time>
  <course>231.23</course>
  <speed>4.916746892000848</speed>
  <fix>3d</fix>
</trkpt>
<trkpt lat="40.0714954" lon="-105.2296001">
  <ele>1583.0</ele>
  <time>2026-08-28T17:49:32Z</time>
  <course>230.39</course>
  <speed>4.94</speed>
  <fix>3d</fix>
</trkpt>
<trkpt lat="40.0714863" lon="-105.2296146">
  <ele>1582.95</ele>
  <time>2026-08-28T17:49:32Z</time>
  <course>231.21</course>
  <speed>4.92309861774066</speed>
  <fix>3d</fix>
</trkpt>
<trkpt lat="40.0714897" lon="-105.2296091">
  <ele>1583.0</ele>
  <time>2026-08-28T17:49:32Z</time>
  <course>230.33</course>
  <speed>4.96</speed>
  <fix>3d</fix>
</trkpt>
<trkpt lat="40.0714834" lon="-105.2296192">
  <ele>1582.95</ele>
  <time>2026-08-28T17:49:32Z</time>
  <course>231.17</course>
  <speed>4.937175305779611</speed>
  <fix>3d</fix>
</trkpt>
<trkpt lat="40.0714897" lon="-105.2296091">
  <ele>1583.0</ele>
  <time>2026-08-28T17:49:32Z</time>
  <course>230.33</course>
  <speed>4.96</speed>
  <fix>3d</fix>
</trkpt>
<trkpt lat="40.0714805" lon="-105.2296237">
  <ele>1582.95</ele>
  <time>2026-08-28T17:49:32Z</time>
  <course>231.13</course>
  <speed>4.937175305779611</speed>
  <fix>3d</fix>
</trkpt>
<trkpt lat="40.071484" lon="-105.229618">
  <ele>1583.0</ele>
  <time>2026-08-28T17:49:32Z</time>
  <course>230.26</course>
  <speed>4.97</speed>
  <fix>3d</fix>
</trkpt>
<trkpt lat="40.0714776" lon="-105.2296283">
  <ele>1582.95</ele>
  <time>2026-08-28T17:49:32Z</time>
  <course>231.1</course>
  <speed>4.951252366825994</speed>
  <fix>3d</fix>
</trkpt>
<trkpt lat="40.071484" lon="-105.229618">
  <ele>1583.0</ele>
  <time>2026-08-28T17:49:32Z</time>
  <course>230.26</course>
  <speed>4.97</speed>
  <fix>3d</fix>
</trkpt>
<trkpt lat="40.0714748" lon="-105.2296328">
  <ele>1582.95</ele>
  <time>2026-08-28T17:49:32Z</time>
  <course>231.07</course>
  <speed>4.951252366825994</speed>
  <fix>3d</fix>
</trkpt>
<trkpt lat="40.0714782" lon="-105.2296269">
  <ele>1583.0</ele>
  <time>2026-08-28T17:49:32Z</time>
  <course>230.19</course>
  <speed>4.98</speed>
  <fix>3d</fix>
</trkpt>
<trkpt lat="40.0714719" lon="-105.2296373">
  <ele>1582.95</ele>
  <time>2026-08-28T17:49:32Z</time>
  <course>231.06</course>
  <speed>4.957620396924315</speed>
  <fix>3d</fix>
</trkpt>
<trkpt lat="40.0714782" lon="-105.2296269">
  <ele>1583.0</ele>
  <time>2026-08-28T17:49:32Z</time>
  <course>230.19</course>
  <speed>4.98</speed>
  <fix>3d</fix>
</trkpt>
<trkpt lat="40.071469" lon="-105.2296418">
  <ele>1582.95</ele>
  <time>2026-08-28T17:49:32Z</time>
  <course>231.03</course>
  <speed>4.957620396924315</speed>
  <fix>3d</fix>
</trkpt>
<trkpt lat="40.0714725" lon="-105.229636">
  <ele>1583.0</ele>
  <time>2026-08-28T17:49:32Z</time>
  <course>230.12</course>
  <speed>4.99</speed>
  <fix>3d</fix>
</trkpt>
<trkpt lat="40.0714661" lon="-105.2296464">
  <ele>1582.95</ele>
  <time>2026-08-28T17:49:32Z</time>
  <course>230.99</course>
  <speed>4.957620396924315</speed>
  <fix>3d</fix>
</trkpt>
<trkpt lat="40.0714725" lon="-105.229636">
  <ele>1583.0</ele>
  <time>2026-08-28T17:49:32Z</time>
  <course>230.12</course>
  <speed>4.99</speed>
  <fix>3d</fix>
</trkpt>
<trkpt lat="40.0714632" lon="-105.2296509">
  <ele>1582.95</ele>
  <time>2026-08-28T17:49:32Z</time>
  <course>230.98</course>
  <speed>4.96400040290087</speed>
  <fix>3d</fix>
</trkpt>
<trkpt lat="40.0714667" lon="-105.229645">
  <ele>1583.0</ele>
  <time>2026-08-28T17:49:32Z</time>
  <course>230.07</course>
  <speed>4.99</speed>
  <fix>3d</fix>
</trkpt>
<trkpt lat="40.0714603" lon="-105.2296554">
  <ele>1582.95</ele>
  <time>2026-08-28T17:49:32Z</time>
  <course>230.96</course>
  <speed>4.96400040290087</speed>
  <fix>3d</fix>
</trkpt>
<trkpt lat="40.0714667" lon="-105.229645">
  <ele>1583.0</ele>
  <time>2026-08-28T17:49:32Z</time>
  <course>230.07</course>
  <speed>4.99</speed>
  <fix>3d</fix>
</trkpt>
<trkpt lat="40.0714574" lon="-105.2296599">
  <ele>1582.95</ele>
  <time>2026-08-28T17:49:32Z</time>
  <course>230.93</course>
  <speed>4.9563091106185055</speed>
  <fix>3d</fix>
</trkpt>
<trkpt lat="40.0714667" lon="-105.229645">
  <ele>1583.0</ele>
  <time>2026-08-28T17:49:32Z</time>
  <course>230.07</course>
  <speed>4.99</speed>
  <fix>3d</fix>
</trkpt>
<trkpt lat="40.0714545" lon="-105.2296644">
  <ele>1582.95</ele>
  <time>2026-08-28T17:49:32Z</time>
  <course>230.93</course>
  <speed>4.949919191259591</speed>
  <fix>3d</fix>
</trkpt>
<trkpt lat="40.071461" lon="-105.229654">
  <ele>1583.0</ele>
  <time>2026-08-28T17:49:32Z</time>
  <course>230.02</course>
  <speed>4.99</speed>
  <fix>3d</fix>
</trkpt>
<trkpt lat="40.0714517" lon="-105.2296689">
  <ele>1582.95</ele>
  <time>2026-08-28T17:49:32Z</time>
  <course>230.92</course>
  <speed>4.949919191259591</speed>
  <fix>3d</fix>
</trkpt>
<trkpt lat="40.071461" lon="-105.229654">
  <ele>1583.0</ele>
  <time>2026-08-28T17:49:32Z</time>
  <course>230.02</course>
  <speed>4.99</speed>
  <fix>3d</fix>
</trkpt>
<trkpt lat="40.0714488" lon="-105.2296733">
  <ele>1582.96</ele>
  <time>2026-08-28T17:49:32Z</time>
  <course>230.92</course>
  <speed>4.935838327984416</speed>
  <fix>3d</fix>
</trkpt>
<trkpt lat="40.0714552" lon="-105.2296629">
  <ele>1583.0</ele>
  <time>2026-08-28T17:49:32Z</time>
  <course>229.98</course>
  <speed>4.98</speed>
  <fix>3d</fix>
</trkpt>
<trkpt lat="40.071446" lon="-105.2296777">
  <ele>1582.96</ele>
  <time>2026-08-28T17:49:32Z</time>
  <course>230.93</course>
  <speed>4.914061456677155</speed>
  <fix>3d</fix>
</trkpt>
<trkpt lat="40.0714552" lon="-105.2296629">
  <ele>1583.0</ele>
  <time>2026-08-28T17:49:32Z</time>
  <course>229.98</course>
  <speed>4.98</speed>
  <fix>3d</fix>
</trkpt>
<trkpt lat="40.0714432" lon="-105.2296821">
  <ele>1582.96</ele>
  <time>2026-08-28T17:49:32Z</time>
  <course>230.93</course>
  <speed>4.899979591794235</speed>
  <fix>3d</fix>
</trkpt>
<trkpt lat="40.0714495" lon="-105.2296719">
  <ele>1583.0</ele>
  <time>2026-08-28T17:49:32Z</time>
  <course>229.98</course>
  <speed>4.96</speed>
  <fix>3d</fix>
</trkpt>
<trkpt lat="40.0714403" lon="-105.2296865">
  <ele>1582.96</ele>
  <time>2026-08-28T17:49:32Z</time>
  <course>230.93</course>
  <speed>4.864123764872765</speed>
  <fix>3d</fix>
</trkpt>
<trkpt lat="40.0714437" lon="-105.2296808">
  <ele>1583.0</ele>
  <time>2026-08-28T17:49:32Z</time>
  <course>229.98</course>
  <speed>4.93</speed>
  <fix>3d</fix>
</trkpt>
<trkpt lat="40.0714375" lon="-105.2296909">
  <ele>1582.96</ele>
  <time>2026-08-28T17:49:32Z</time>
  <course>230.93</course>
  <speed>4.821877227802466</speed>
  <fix>3d</fix>
</trkpt>
<trkpt lat="40.0714437" lon="-105.2296808">
  <ele>1583.0</ele>
  <time>2026-08-28T17:49:32Z</time>
  <course>229.98</course>
  <speed>4.93</speed>
  <fix>3d</fix>
</trkpt>
<trkpt lat="40.0714347" lon="-105.2296953">
  <ele>1582.95</ele>
  <time>2026-08-28T17:49:32Z</time>
  <course>230.94</course>
  <speed>4.771938809331067</speed>
  <fix>3d</fix>
</trkpt>
<trkpt lat="40.071438" lon="-105.2296896">
  <ele>1583.0</ele>
  <time>2026-08-28T17:49:32Z</time>
  <course>229.98</course>
  <speed>4.86</speed>
  <fix>3d</fix>
</trkpt>
<trkpt lat="40.071432" lon="-105.2296995">
  <ele>1582.95</ele>
  <time>2026-08-28T17:49:32Z</time>
  <course>230.94</course>
  <speed>4.72200169419707</speed>
  <fix>3d</fix>
</trkpt>
<trkpt lat="40.071438" lon="-105.2296896">
  <ele>1583.0</ele>
  <time>2026-08-28T17:49:32Z</time>
  <course>229.98</course>
  <speed>4.86</speed>
  <fix>3d</fix>
</trkpt>
<trkpt lat="40.0714292" lon="-105.2297038">
  <ele>1582.95</ele>
  <time>2026-08-28T17:49:32Z</time>
  <course>230.94</course>
  <speed>4.651591125625725</speed>
  <fix>3d</fix>
</trkpt>
<trkpt lat="40.0714325" lon="-105.2296983">
  <ele>1583.0</ele>
  <time>2026-08-28T17:49:32Z</time>
  <course>229.98</course>
  <speed>4.75</speed>
  <fix>3d</fix>
</trkpt>
<trkpt lat="40.0714265" lon="-105.229708">
  <ele>1582.95</ele>
  <time>2026-08-28T17:49:32Z</time>
  <course>230.94</course>
  <speed>4.565796754127367</speed>
  <fix>3d</fix>
</trkpt>
<trkpt lat="40.0714325" lon="-105.2296983">
  <ele>1583.0</ele>
  <time>2026-08-28T17:49:32Z</time>
  <course>229.98</course>
  <speed>4.75</speed>
  <fix>3d</fix>
</trkpt>
<trkpt lat="40.0714239" lon="-105.2297121">
  <ele>1582.94</ele>
  <time>2026-08-28T17:49:32Z</time>
  <course>230.95</course>
  <speed>4.473611516437251</speed>
  <fix>3d</fix>
</trkpt>
<trkpt lat="40.0714271" lon="-105.2297067">
  <ele>1583.0</ele>
  <time>2026-08-28T17:49:32Z</time>
  <course>229.98</course>
  <speed>4.6</speed>
  <fix>3d</fix>
</trkpt>
<trkpt lat="40.0714213" lon="-105.2297161">
  <ele>1582.94</ele>
  <time>2026-08-28T17:49:32Z</time>
  <course>230.95</course>
  <speed>4.373739818507726</speed>
  <fix>3d</fix>
</trkpt>
<trkpt lat="40.0714271" lon="-105.2297067">
  <ele>1583.0</ele>
  <time>2026-08-28T17:49:32Z</time>
  <course>229.98</course>
  <speed>4.6</speed>
  <fix>3d</fix>
</trkpt>
<trkpt lat="40.0714188" lon="-105.22972">
  <ele>1582.94</ele>
  <time>2026-08-28T17:49:32Z</time>
  <course>230.95</course>
  <speed>4.267469976461463</speed>
  <fix>3d</fix>
</trkpt>
<trkpt lat="40.0714219" lon="-105.2297148">
  <ele>1583.0</ele>
  <time>2026-08-28T17:49:32Z</time>
  <course>229.98</course>
  <speed>4.41</speed>
  <fix>3d</fix>
</trkpt>
<trkpt lat="40.0714163" lon="-105.2297239">
  <ele>1582.94</ele>
  <time>2026-08-28T17:49:32Z</time>
  <course>230.95</course>
  <speed>4.153516582367284</speed>
  <fix>3d</fix>
</trkpt>
<trkpt lat="40.0714219" lon="-105.2297148">
  <ele>1583.0</ele>
  <time>2026-08-28T17:49:32Z</time>
  <course>229.98</course>
  <speed>4.41</speed>
  <fix>3d</fix>
</trkpt>
<trkpt lat="40.0714139" lon="-105.2297276">
  <ele>1582.95</ele>
  <time>2026-08-28T17:49:32Z</time>
  <course>230.95</course>
  <speed>4.0331625308187125</speed>
  <fix>3d</fix>
</trkpt>
<trkpt lat="40.0714169" lon="-105.2297225">
  <ele>1583.0</ele>
  <time>2026-08-28T17:49:32Z</time>
  <course>229.98</course>
  <speed>4.19</speed>
  <fix>3d</fix>
</trkpt>
<trkpt lat="40.0714116" lon="-105.2297312">
  <ele>1582.95</ele>
  <time>2026-08-28T17:49:32Z</time>
  <course>230.96</course>
  <speed>3.9128122878563953</speed>
  <fix>3d</fix>
</trkpt>
<trkpt lat="40.0714169" lon="-105.2297225">
  <ele>1583.0</ele>
  <time>2026-08-28T17:49:32Z</time>
  <course>229.98</course>
  <speed>4.19</speed>
  <fix>3d</fix>
</trkpt>
<trkpt lat="40.0714094" lon="-105.2297347">
  <ele>1582.95</ele>
  <time>2026-08-28T17:49:32Z</time>
  <course>230.96</course>
  <speed>3.7847721199564974</speed>
  <fix>3d</fix>
</trkpt>
<trkpt lat="40.0714123" lon="-105.2297299">
  <ele>1583.0</ele>
  <time>2026-08-28T17:49:32Z</time>
  <course>229.98</course>
  <speed>3.95</speed>
  <fix>3d</fix>
</trkpt>
<trkpt lat="40.0714072" lon="-105.229738">
  <ele>1582.95</ele>
  <time>2026-08-28T17:49:32Z</time>
  <course>230.96</course>
  <speed>3.656733515037704</speed>
  <fix>3d</fix>
</trkpt>
<trkpt lat="40.0714123" lon="-105.2297299">
  <ele>1583.0</ele>
  <time>2026-08-28T17:49:32Z</time>
  <course>229.98</course>
  <speed>3.95</speed>
  <fix>3d</fix>
</trkpt>
<trkpt lat="40.0714051" lon="-105.2297413">
  <ele>1582.96</ele>
  <time>2026-08-28T17:49:32Z</time>
  <course>230.96</course>
  <speed>3.5286966432381233</speed>
  <fix>3d</fix>
</trkpt>
<trkpt lat="40.0714123" lon="-105.2297299">
  <ele>1583.0</ele>
  <time>2026-08-28T17:49:32Z</time>
  <course>229.98</course>
  <speed>3.95</speed>
  <fix>3d</fix>
</trkpt>
<trkpt lat="40.0714031" lon="-105.2297444">
  <ele>1582.96</ele>
  <time>2026-08-28T17:49:32Z</time>
  <course>230.97</course>
  <speed>3.4006617003165722</speed>
  <fix>3d</fix>
</trkpt>
<trkpt lat="40.0714078" lon="-105.2297368">
  <ele>1583.0</ele>
  <time>2026-08-28T17:49:32Z</time>
  <course>229.98</course>
  <speed>3.7</speed>
  <fix>3d</fix>
</trkpt>
<trkpt lat="40.0714012" lon="-105.2297473">
  <ele>1582.96</ele>
  <time>2026-08-28T17:49:32Z</time>
  <course>230.97</course>
  <speed>3.266221058042459</speed>
  <fix>3d</fix>
</trkpt>
<trkpt lat="40.0714078" lon="-105.2297368">
  <ele>1583.0</ele>
  <time>2026-08-28T17:49:32Z</time>
  <course>229.98</course>
  <speed>3.7</speed>
  <fix>3d</fix>
</trkpt>
<trkpt lat="40.0713993" lon="-105.2297502">
  <ele>1582.96</ele>
  <time>2026-08-28T17:49:32Z</time>
  <course>230.97</course>
  <speed>3.138184188348415</speed>
  <fix>3d</fix>
</trkpt>
<trkpt lat="40.0714037" lon="-105.2297432">
  <ele>1583.0</ele>
  <time>2026-08-28T17:49:32Z</time>
  <course>229.98</course>
  <speed>3.44</speed>
  <fix>3d</fix>
</trkpt>
<trkpt lat="40.0713976" lon="-105.2297529">
  <ele>1582.96</ele>
  <time>2026-08-28T17:49:32Z</time>
  <course>230.97</course>
  <speed>3.0101494979485652</speed>
  <fix>3d</fix>
</trkpt>
<trkpt lat="40.0714037" lon="-105.2297432">
  <ele>1583.0</ele>
  <time>2026-08-28T17:49:32Z</time>
  <course>229.98</course>
  <speed>3.44</speed>
  <fix>3d</fix>
</trkpt>
<trkpt lat="40.0713959" lon="-105.2297556">
  <ele>1582.96</ele>
  <time>2026-08-28T17:49:32Z</time>
  <course>230.98</course>
  <speed>2.882117277280715</speed>
  <fix>3d</fix>
</trkpt>
<trkpt lat="40.0713998" lon="-105.2297492">
  <ele>1583.0</ele>
  <time>2026-08-28T17:49:32Z</time>
  <course>229.98</course>
  <speed>3.19</speed>
  <fix>3d</fix>
</trkpt>
<trkpt lat="40.0713943" lon="-105.2297581">
  <ele>1582.96</ele>
  <time>2026-08-28T17:49:32Z</time>
  <course>230.98</course>
  <speed>2.761756687327832</speed>
  <fix>3d</fix>
</trkpt>
<trkpt lat="40.0713998" lon="-105.2297492">
  <ele>1583.0</ele>
  <time>2026-08-28T17:49:32Z</time>
  <course>229.98</course>
  <speed>3.19</speed>
  <fix>3d</fix>
</trkpt>
<trkpt lat="40.0713927" lon="-105.2297605">
  <ele>1582.96</ele>
  <time>2026-08-28T17:49:32Z</time>
  <course>230.98</course>
  <speed>2.633723599772763</speed>
  <fix>3d</fix>
</trkpt>
<trkpt lat="40.0713962" lon="-105.2297547">
  <ele>1583.0</ele>
  <time>2026-08-28T17:49:32Z</time>
  <course>229.98</course>
  <speed>2.94</speed>
  <fix>3d</fix>
</trkpt>
<trkpt lat="40.0713912" lon="-105.2297628">
  <ele>1582.96</ele>
  <time>2026-08-28T17:49:32Z</time>
  <course>230.98</course>
  <speed>2.5133642792082487</speed>
  <fix>3d</fix>
</trkpt>
<trkpt lat="40.071393" lon="-105.2297597">
  <ele>1583.0</ele>
  <time>2026-08-28T17:49:32Z</time>
  <course>229.98</course>
  <speed>2.7</speed>
  <fix>3d</fix>
</trkpt>
<trkpt lat="40.0713898" lon="-105.229765">
  <ele>1582.96</ele>
  <time>2026-08-28T17:49:32Z</time>
  <course>230.99</course>
  <speed>2.399416595758227</speed>
  <fix>3d</fix>
</trkpt>
<trkpt lat="40.071393" lon="-105.2297597">
  <ele>1583.0</ele>
  <time>2026-08-28T17:49:32Z</time>
  <course>229.98</course>
  <speed>2.7</speed>
  <fix>3d</fix>
</trkpt>
<trkpt lat="40.0713884" lon="-105.2297671">
  <ele>1582.96</ele>
  <time>2026-08-28T17:49:32Z</time>
  <course>230.99</course>
  <speed>2.285475880424031</speed>
  <fix>3d</fix>
</trkpt>
<trkpt lat="40.0713901" lon="-105.2297643">
  <ele>1583.0</ele>
  <time>2026-08-28T17:49:32Z</time>
  <course>229.98</course>
  <speed>2.46</speed>
  <fix>3d</fix>
</trkpt>
<trkpt lat="40.0713871" lon="-105.2297691">
  <ele>1582.96</ele>
  <time>2026-08-28T17:49:32Z</time>
  <course>230.99</course>
  <speed>2.1727862297059968</speed>
  <fix>3d</fix>
</trkpt>
<trkpt lat="40.0713901" lon="-105.2297643">
  <ele>1583.0</ele>
  <time>2026-08-28T17:49:32Z</time>
  <course>229.98</course>
  <speed>2.46</speed>
  <fix>3d</fix>
</trkpt>
<trkpt lat="40.0713859" lon="-105.229771">
  <ele>1582.96</ele>
  <time>2026-08-28T17:49:32Z</time>
  <course>230.99</course>
  <speed>2.058834621818858</speed>
  <fix>3d</fix>
</trkpt>
<trkpt lat="40.0713874" lon="-105.2297686">
  <ele>1583.0</ele>
  <time>2026-08-28T17:49:32Z</time>
  <course>229.98</course>
  <speed>2.24</speed>
  <fix>3d</fix>
</trkpt>
<trkpt lat="40.0713847" lon="-105.2297729">
  <ele>1582.96</ele>
  <time>2026-08-28T17:49:32Z</time>
  <course>231.0</course>
  <speed>1.9525624189766637</speed>
  <fix>3d</fix>
</trkpt>
<trkpt lat="40.0713874" lon="-105.2297686">
  <ele>1583.0</ele>
  <time>2026-08-28T17:49:32Z</time>
  <course>229.98</course>
  <speed>2.24</speed>
  <fix>3d</fix>
</trkpt>
<trkpt lat="40.0713836" lon="-105.2297746">
  <ele>1582.96</ele>
  <time>2026-08-28T17:49:32Z</time>
  <course>231.03</course>
  <speed>1.8527007313648907</speed>
  <fix>3d</fix>
</trkpt>
<trkpt lat="40.0713849" lon="-105.2297725">
  <ele>1583.0</ele>
  <time>2026-08-28T17:49:32Z</time>
  <course>229.99</course>
  <speed>2.02</speed>
  <fix>3d</fix>
</trkpt>
<trkpt lat="40.0713825" lon="-105.2297763">
  <ele>1582.95</ele>
  <time>2026-08-28T17:49:32Z</time>
  <course>231.06</course>
  <speed>1.746424919657298</speed>
  <fix>3d</fix>
</trkpt>
<trkpt lat="40.0713849" lon="-105.2297725">
  <ele>1583.0</ele>
  <time>2026-08-28T17:49:32Z</time>
  <course>229.99</course>
  <speed>2.02</speed>
  <fix>3d</fix>
</trkpt>
<trkpt lat="40.0713815" lon="-105.2297778">
  <ele>1582.95</ele>
  <time>2026-08-28T17:49:32Z</time>
  <course>231.08</course>
  <speed>1.6478470802838472</speed>
  <fix>3d</fix>
</trkpt>
<trkpt lat="40.0713826" lon="-105.2297759">
  <ele>1583.0</ele>
  <time>2026-08-28T17:49:32Z</time>
  <course>230.03</course>
  <speed>1.82</speed>
  <fix>3d</fix>
</trkpt>
<trkpt lat="40.0713806" lon="-105.2297793">
  <ele>1582.95</ele>
  <time>2026-08-28T17:49:32Z</time>
  <course>231.11</course>
  <speed>1.547966407904254</speed>
  <fix>3d</fix>
</trkpt>
<trkpt lat="40.0713826" lon="-105.2297759">
  <ele>1583.0</ele>
  <time>2026-08-28T17:49:32Z</time>
  <course>230.03</course>
  <speed>1.82</speed>
  <fix>3d</fix>
</trkpt>
<trkpt lat="40.0713797" lon="-105.2297807">
  <ele>1582.95</ele>
  <time>2026-08-28T17:49:32Z</time>
  <course>231.14</course>
  <speed>1.441700384962146</speed>
  <fix>3d</fix>
</trkpt>
<trkpt lat="40.0713806" lon="-105.229779">
  <ele>1583.0</ele>
  <time>2026-08-28T17:49:32Z</time>
  <course>230.08</course>
  <speed>1.62</speed>
  <fix>3d</fix>
</trkpt>
<trkpt lat="40.0713788" lon="-105.229782">
  <ele>1582.95</ele>
  <time>2026-08-28T17:49:32Z</time>
  <course>231.18</course>
  <speed>1.3495184326269871</speed>
  <fix>3d</fix>
</trkpt>
<trkpt lat="40.0713806" lon="-105.229779">
  <ele>1583.0</ele>
  <time>2026-08-28T17:49:32Z</time>
  <course>230.08</course>
  <speed>1.62</speed>
  <fix>3d</fix>
</trkpt>
<trkpt lat="40.0713781" lon="-105.2297832">
  <ele>1582.95</ele>
  <time>2026-08-28T17:49:32Z</time>
  <course>231.22</course>
  <speed>1.2496399481450646</speed>
  <fix>3d</fix>
</trkpt>
<trkpt lat="40.0713806" lon="-105.229779">
  <ele>1583.0</ele>
  <time>2026-08-28T17:49:32Z</time>
  <course>230.08</course>
  <speed>1.62</speed>
  <fix>3d</fix>
</trkpt>
<trkpt lat="40.0713774" lon="-105.2297843">
  <ele>1582.95</ele>
  <time>2026-08-28T17:49:32Z</time>
  <course>231.27</course>
  <speed>1.151086443322134</speed>
  <fix>3d</fix>
</trkpt>
<trkpt lat="40.0713789" lon="-105.2297817">
  <ele>1583.0</ele>
  <time>2026-08-28T17:49:32Z</time>
  <course>230.15</course>
  <speed>1.42</speed>
  <fix>3d</fix>
</trkpt>
<trkpt lat="40.0713767" lon="-105.2297853">
  <ele>1582.94</ele>
  <time>2026-08-28T17:49:32Z</time>
  <course>231.33</course>
  <speed>1.0589145385724006</speed>
  <fix>3d</fix>
</trkpt>
<trkpt lat="40.0713789" lon="-105.2297817">
  <ele>1583.0</ele>
  <time>2026-08-28T17:49:32Z</time>
  <course>230.15</course>
  <speed>1.42</speed>
  <fix>3d</fix>
</trkpt>
<trkpt lat="40.0713761" lon="-105.2297862">
  <ele>1582.94</ele>
  <time>2026-08-28T17:49:32Z</time>
  <course>231.41</course>
  <speed>0.9590099061010788</speed>
  <fix>3d</fix>
</trkpt>
<trkpt lat="40.0713773" lon="-105.2297841">
  <ele>1583.0</ele>
  <time>2026-08-28T17:49:32Z</time>
  <course>230.24</course>
  <speed>1.22</speed>
  <fix>3d</fix>
</trkpt>
<trkpt lat="40.0713756" lon="-105.2297871">
  <ele>1582.94</ele>
  <time>2026-08-28T17:49:32Z</time>
  <course>231.49</course>
  <speed>0.8605230967266364</speed>
  <fix>3d</fix>
</trkpt>
<trkpt lat="40.0713773" lon="-105.2297841">
  <ele>1583.0</ele>
  <time>2026-08-28T17:49:32Z</time>
  <course>230.24</course>
  <speed>1.22</speed>
  <fix>3d</fix>
</trkpt>
<trkpt lat="40.0713751" lon="-105.2297879">
  <ele>1582.94</ele>
  <time>2026-08-28T17:49:32Z</time>
  <course>231.56</course>
  <speed>0.7683749084919418</speed>
  <fix>3d</fix>
</trkpt>
<trkpt lat="40.071376" lon="-105.2297862">
  <ele>1583.0</ele>
  <time>2026-08-28T17:49:32Z</time>
  <course>230.37</course>
  <speed>1.03</speed>
  <fix>3d</fix>
</trkpt>
<trkpt lat="40.0713747" lon="-105.2297885">
  <ele>1582.94</ele>
  <time>2026-08-28T17:49:32Z</time>
  <course>231.64</course>
  <speed>0.6762396025078685</speed>
  <fix>3d</fix>
</trkpt>
<trkpt lat="40.071376" lon="-105.2297862">
  <ele>1583.0</ele>
  <time>2026-08-28T17:49:32Z</time>
  <course>230.37</course>
  <speed>1.03</speed>
  <fix>3d</fix>
</trkpt>
<trkpt lat="40.0713743" lon="-105.2297891">
  <ele>1582.94</ele>
  <time>2026-08-28T17:49:32Z</time>
  <course>231.72</course>
  <speed>0.5762811813689563</speed>
  <fix>3d</fix>
</trkpt>
<trkpt lat="40.071375" lon="-105.2297879">
  <ele>1583.0</ele>
  <time>2026-08-28T17:49:32Z</time>
  <course>230.51</course>
  <speed>0.84</speed>
  <fix>3d</fix>
</trkpt>
<trkpt lat="40.071374" lon="-105.2297897">
  <ele>1582.94</ele>
  <time>2026-08-28T17:49:32Z</time>
  <course>231.8</course>
  <speed>0.4841487374764082</speed>
  <fix>3d</fix>
</trkpt>
<trkpt lat="40.0713741" lon="-105.2297892">
  <ele>1583.0</ele>
  <time>2026-08-28T17:49:32Z</time>
  <course>230.66</course>
  <speed>0.65</speed>
  <fix>3d</fix>
</trkpt>
<trkpt lat="40.0713737" lon="-105.2297901">
  <ele>1582.94</ele>
  <time>2026-08-28T17:49:32Z</time>
  <course>231.87</course>
  <speed>0.3920459156782532</speed>
  <fix>3d</fix>
</trkpt>
<trkpt lat="40.0713741" lon="-105.2297892">
  <ele>1583.0</ele>
  <time>2026-08-28T17:49:32Z</time>
  <course>230.66</course>
  <speed>0.65</speed>
  <fix>3d</fix>
</trkpt>
<trkpt lat="40.0713735" lon="-105.2297904">
  <ele>1582.94</ele>
  <time>2026-08-28T17:49:32Z</time>
  <course>231.93</course>
  <speed>0.3</speed>
  <fix>3d</fix>
</trkpt>
<trkpt lat="40.0713735" lon="-105.2297902">
  <ele>1583.0</ele>
  <time>2026-08-28T17:49:32Z</time>
  <course>230.8</course>
  <speed>0.46</speed>
  <fix>3d</fix>
</trkpt>
<trkpt lat="40.0713733" lon="-105.2297907">
  <ele>1582.94</ele>
  <time>2026-08-28T17:49:32Z</time>
  <course>231.98</course>
  <speed>0.20808652046684814</speed>
  <fix>3d</fix>
</trkpt>
<trkpt lat="40.0713735" lon="-105.2297902">
  <ele>1583.0</ele>
  <time>2026-08-28T17:49:32Z</time>
  <course>230.8</course>
  <speed>0.46</speed>
  <fix>3d</fix>
</trkpt>
<trkpt lat="40.0713732" lon="-105.2297909">
  <ele>1582.94</ele>
  <time>2026-08-28T17:49:32Z</time>
  <course>232.01</course>
  <speed>0.11661903789690602</speed>
  <fix>3d</fix>
</trkpt>
<trkpt lat="40.0713731" lon="-105.2297909">
  <ele>1583.0</ele>
  <time>2026-08-28T17:49:32Z</time>
  <course>230.91</course>
  <speed>0.28</speed>
  <fix>3d</fix>
</trkpt>
<trkpt lat="40.0713731" lon="-105.229791">
  <ele>1582.94</ele>
  <time>2026-08-28T17:49:32Z</time>
  <course>232.03</course>
  <speed>0.0316227766016838</speed>
  <fix>3d</fix>
</trkpt>
<trkpt lat="40.0713731" lon="-105.2297909">
  <ele>1583.0</ele>
  <time>2026-08-28T17:49:32Z</time>
  <course>230.91</course>
  <speed>0.28</speed>
  <fix>3d</fix>
</trkpt>
<trkpt lat="40.0713731" lon="-105.229791">
  <ele>1582.94</ele>
  <time>2026-08-28T17:49:32Z</time>
  <course>232.03</course>
  <speed>0.03605551275463989</speed>
  <fix>3d</fix>
</trkpt>
<trkpt lat="40.0713729" lon="-105.2297912">
  <ele>1583.0</ele>
  <time>2026-08-28T17:49:32Z</time>
  <course>230.97</course>
  <speed>0.1</speed>
  <fix>3d</fix>
</trkpt>
<trkpt lat="40.0713731" lon="-105.229791">
  <ele>1582.94</ele>
  <time>2026-08-28T17:49:32Z</time>
  <course>232.04</course>
  <speed>0.1063014581273465</speed>
  <fix>3d</fix>
</trkpt>
<trkpt lat="40.0713729" lon="-105.2297912">
  <ele>1583.0</ele>
  <time>2026-08-28T17:49:32Z</time>
  <course>230.97</course>
  <speed>0.1</speed>
  <fix>3d</fix>
</trkpt>
<trkpt lat="40.0713731" lon="-105.229791">
  <ele>1582.94</ele>
  <time>2026-08-28T17:49:32Z</time>
  <course>232.04</course>
  <speed>0.1697056274847714</speed>
  <fix>3d</fix>
</trkpt>
<trkpt lat="40.0713729" lon="-105.2297914">
  <ele>1583.0</ele>
  <time>2026-08-28T17:49:32Z</time>
  <course>50.94</course>
  <speed>0.04</speed>
  <fix>3d</fix>
</trkpt>
<trkpt lat="40.0713732" lon="-105.2297909">
  <ele>1582.94</ele>
  <time>2026-08-28T17:49:32Z</time>
  <course>232.05</course>
  <speed>0.2262741699796952</speed>
  <fix>3d</fix>
</trkpt>
<trkpt lat="40.0713729" lon="-105.2297914">
  <ele>1583.0</ele>
  <time>2026-08-28T17:49:32Z</time>
  <course>50.94</course>
  <speed>0.04</speed>
  <fix>3d</fix>
</trkpt>
<trkpt lat="40.0713734" lon="-105.2297907">
  <ele>1582.94</ele>
  <time>2026-08-28T17:49:32Z</time>
  <course>232.05</course>
  <speed>0.27586228448267447</speed>
  <fix>3d</fix>
</trkpt>
<trkpt lat="40.0713729" lon="-105.2297912">
  <ele>1583.0</ele>
  <time>2026-08-28T17:49:32Z</time>
  <course>50.97</course>
  <speed>0.16</speed>
  <fix>3d</fix>
</trkpt>
<trkpt lat="40.0713735" lon="-105.2297905">
  <ele>1582.94</ele>
  <time>2026-08-28T17:49:32Z</time>
  <course>232.04</course>
  <speed>0.304138126514911</speed>
  <fix>3d</fix>
</trkpt>
<trkpt lat="40.0713729" lon="-105.2297912">
  <ele>1583.0</ele>
  <time>2026-08-28T17:49:32Z</time>
  <course>50.97</course>
  <speed>0.16</speed>
  <fix>3d</fix>
</trkpt>
<trkpt lat="40.0713737" lon="-105.2297902">
  <ele>1582.94</ele>
  <time>2026-08-28T17:49:32Z</time>
  <course>232.03</course>
  <speed>0.33241540277189324</speed>
  <fix>3d</fix>
</trkpt>
<trkpt lat="40.0713731" lon="-105.2297909">
  <ele>1583.0</ele>
  <time>2026-08-28T17:49:32Z</time>
  <course>50.96</course>
  <speed>0.24</speed>
  <fix>3d</fix>
</trkpt>
<trkpt lat="40.0713738" lon="-105.22979">
  <ele>1582.94</ele>
  <time>2026-08-28T17:49:32Z</time>
  <course>232.01</course>
  <speed>0.3397057550292606</speed>
  <fix>3d</fix>
</trkpt>
<trkpt lat="40.0713731" lon="-105.2297909">
  <ele>1583.0</ele>
  <time>2026-08-28T17:49:32Z</time>
  <course>50.96</course>
  <speed>0.24</speed>
  <fix>3d</fix>
</trkpt>
<trkpt lat="40.071374" lon="-105.2297897">
  <ele>1582.93</ele>
  <time>2026-08-28T17:49:32Z</time>
  <course>231.98</course>
  <speed>0.34655446902326914</speed>
  <fix>3d</fix>
</trkpt>
<trkpt lat="40.0713731" lon="-105.2297909">
  <ele>1583.0</ele>
  <time>2026-08-28T17:49:32Z</time>
  <course>50.96</course>
  <speed>0.24</speed>
  <fix>3d</fix>
</trkpt>
<trkpt lat="40.0713742" lon="-105.2297894">
  <ele>1582.93</ele>
  <time>2026-08-28T17:49:32Z</time>
  <course>231.95</course>
  <speed>0.34655446902326914</speed>
  <fix>3d</fix>
</trkpt>
<trkpt lat="40.0713734" lon="-105.2297904">
  <ele>1583.0</ele>
  <time>2026-08-28T17:49:32Z</time>
  <course>50.93</course>
  <speed>0.28</speed>
  <fix>3d</fix>
</trkpt>
<trkpt lat="40.0713744" lon="-105.2297892">
  <ele>1582.93</ele>
  <time>2026-08-28T17:49:32Z</time>
  <course>231.9</course>
  <speed>0.33241540277189324</speed>
  <fix>3d</fix>
</trkpt>
<trkpt lat="40.0713734" lon="-105.2297904">
  <ele>1583.0</ele>
  <time>2026-08-28T17:49:32Z</time>
  <course>50.93</course>
  <speed>0.28</speed>
  <fix>3d</fix>
</trkpt>
<trkpt lat="40.0713745" lon="-105.229789">
  <ele>1582.93</ele>
  <time>2026-08-28T17:49:32Z</time>
  <course>231.86</course>
  <speed>0.3111269837220809</speed>
  <fix>3d</fix>
</trkpt>
<trkpt lat="40.0713737" lon="-105.2297899">
  <ele>1583.0</ele>
  <time>2026-08-28T17:49:32Z</time>
  <course>50.87</course>
  <speed>0.28</speed>
  <fix>3d</fix>
</trkpt>
<trkpt lat="40.0713747" lon="-105.2297887">
  <ele>1582.93</ele>
  <time>2026-08-28T17:49:32Z</time>
  <course>231.81</course>
  <speed>0.304138126514911</speed>
  <fix>3d</fix>
</trkpt>
<trkpt lat="40.0713737" lon="-105.2297899">
  <ele>1583.0</ele>
  <time>2026-08-28T17:49:32Z</time>
  <course>50.87</course>
  <speed>0.28</speed>
  <fix>3d</fix>
</trkpt>
<trkpt lat="40.0713748" lon="-105.2297886">
  <ele>1582.94</ele>
  <time>2026-08-28T17:49:32Z</time>
  <course>231.76</course>
  <speed>0.27586228448267447</speed>
  <fix>3d</fix>
</trkpt>
<trkpt lat="40.071374" lon="-105.2297894">
  <ele>1583.0</ele>
  <time>2026-08-28T17:49:32Z</time>
  <course>50.78</course>
  <speed>0.26</speed>
  <fix>3d</fix>
</trkpt>
<trkpt lat="40.0713749" lon="-105.2297884">
  <ele>1582.94</ele>
  <time>2026-08-28T17:49:32Z</time>
  <course>231.71</course>
  <speed>0.25495097567963926</speed>
  <fix>3d</fix>
</trkpt>
<trkpt lat="40.0713743" lon="-105.229789">
  <ele>1583.0</ele>
  <time>2026-08-28T17:49:32Z</time>
  <course>50.68</course>
  <speed>0.23</speed>
  <fix>3d</fix>
</trkpt>
<trkpt lat="40.071375" lon="-105.2297882">
  <ele>1582.94</ele>
  <time>2026-08-28T17:49:32Z</time>
  <course>231.67</course>
  <speed>0.22671568097509268</speed>
  <fix>3d</fix>
</trkpt>
<trkpt lat="40.0713743" lon="-105.229789">
  <ele>1583.0</ele>
  <time>2026-08-28T17:49:32Z</time>
  <course>50.68</course>
  <speed>0.23</speed>
  <fix>3d</fix>
</trkpt>
<trkpt lat="40.0713751" lon="-105.2297881">
  <ele>1582.94</ele>
  <time>2026-08-28T17:49:32Z</time>
  <course>231.65</course>
  <speed>0.2</speed>
  <fix>3d</fix>
</trkpt>
<trkpt lat="40.0713746" lon="-105.2297885">
  <ele>1583.0</ele>
  <time>2026-08-28T17:49:32Z</time>
  <course>50.6</course>
  <speed>0.18</speed>
  <fix>3d</fix>
</trkpt>
<trkpt lat="40.0713752" lon="-105.229788">
  <ele>1582.94</ele>
  <time>2026-08-28T17:49:32Z</time>
  <course>231.65</course>
  <speed>0.17204650534085253</speed>
  <fix>3d</fix>
</trkpt>
<trkpt lat="40.0713746" lon="-105.2297885">
  <ele>1583.0</ele>
  <time>2026-08-28T17:49:32Z</time>
  <course>50.6</course>
  <speed>0.18</speed>
  <fix>3d</fix>
</trkpt>
<trkpt lat="40.0713753" lon="-105.2297879">
  <ele>1582.94</ele>
  <time>2026-08-28T17:49:32Z</time>
  <course>231.65</course>
  <speed>0.15264337522473748</speed>
  <fix>3d</fix>
</trkpt>
<trkpt lat="40.0713748" lon="-105.2297883">
  <ele>1583.0</ele>
  <time>2026-08-28T17:49:32Z</time>
  <course>50.57</course>
  <speed>0.13</speed>
  <fix>3d</fix>
</trkpt>
<trkpt lat="40.0713753" lon="-105.2297879">
  <ele>1582.94</ele>
  <time>2026-08-28T17:49:32Z</time>
  <course>231.64</course>
  <speed>0.12529964086141668</speed>
  <fix>3d</fix>
</trkpt>
<trkpt lat="40.0713748" lon="-105.2297883">
  <ele>1583.0</ele>
  <time>2026-08-28T17:49:32Z</time>
  <course>50.57</course>
  <speed>0.13</speed>
  <fix>3d</fix>
</trkpt>
<trkpt lat="40.0713754" lon="-105.2297878">
  <ele>1582.94</ele>
  <time>2026-08-28T17:49:32Z</time>
  <course>231.64</course>
  <speed>0.10770329614269007</speed>
  <fix>3d</fix>
</trkpt>
<trkpt lat="40.0713749" lon="-105.2297881">
  <ele>1583.0</ele>
  <time>2026-08-28T17:49:32Z</time>
  <course>50.56</course>
  <speed>0.09</speed>
  <fix>3d</fix>
</trkpt>
<trkpt lat="40.0713754" lon="-105.2297878">
  <ele>1582.94</ele>
  <time>2026-08-28T17:49:32Z</time>
  <course>231.63</course>
  <speed>0.09486832980505139</speed>
  <fix>3d</fix>
</trkpt>
<trkpt lat="40.0713749" lon="-105.2297881">
  <ele>1583.0</ele>
  <time>2026-08-28T17:49:32Z</time>
  <course>50.56</course>
  <speed>0.09</speed>
  <fix>3d</fix>
</trkpt>
<trkpt lat="40.0713755" lon="-105.2297878">
  <ele>1582.94</ele>
  <time>2026-08-28T17:49:32Z</time>
  <course>231.63</course>
  <speed>0.09486832980505139</speed>
  <fix>3d</fix>
</trkpt>
<trkpt lat="40.0713749" lon="-105.2297879">
  <ele>1583.0</ele>
  <time>2026-08-28T17:49:32Z</time>
  <course>50.56</course>
  <speed>0.06</speed>
  <fix>3d</fix>
</trkpt>
<trkpt lat="40.0713755" lon="-105.2297878">
  <ele>1582.95</ele>
  <time>2026-08-28T17:49:32Z</time>
  <course>231.62</course>
  <speed>0.09219544457292887</speed>
  <fix>3d</fix>
</trkpt>
<trkpt lat="40.0713749" lon="-105.2297879">
  <ele>1583.0</ele>
  <time>2026-08-28T17:49:32Z</time>
  <course>50.56</course>
  <speed>0.06</speed>
  <fix>3d</fix>
</trkpt>
<trkpt lat="40.0713755" lon="-105.2297877">
  <ele>1582.95</ele>
  <time>2026-08-28T17:49:32Z</time>
  <course>231.62</course>
  <speed>0.0824621125123532</speed>
  <fix>3d</fix>
</trkpt>
<trkpt lat="40.071375" lon="-105.2297878">
  <ele>1583.0</ele>
  <time>2026-08-28T17:49:32Z</time>
  <course>50.55</course>
  <speed>0.05</speed>
  <fix>3d</fix>
</trkpt>
<trkpt lat="40.0713755" lon="-105.2297877">
  <ele>1582.95</ele>
  <time>2026-08-28T17:49:32Z</time>
  <course>231.61</course>
  <speed>0.0824621125123532</speed>
  <fix>3d</fix>
</trkpt>
<trkpt lat="40.071375" lon="-105.2297878">
  <ele>1583.0</ele>
  <time>2026-08-28T17:49:32Z</time>
  <course>50.55</course>
  <speed>0.05</speed>
  <fix>3d</fix>
</trkpt>
<trkpt lat="40.0713755" lon="-105.2297877">
  <ele>1582.96</ele>
  <time>2026-08-28T17:49:32Z</time>
  <course>231.6</course>
  <speed>0.08062257748298549</speed>
  <fix>3d</fix>
</trkpt>
<trkpt lat="40.0713751" lon="-105.2297877">
  <ele>1583.0</ele>
  <time>2026-08-28T17:49:32Z</time>
  <course>50.55</course>
  <speed>0.05</speed>
  <fix>3d</fix>
</trkpt>
<trkpt lat="40.0713756" lon="-105.2297877">
  <ele>1582.96</ele>
  <time>2026-08-28T17:49:32Z</time>
  <course>231.6</course>
  <speed>0.08062257748298549</speed>
  <fix>3d</fix>
</trkpt>
<trkpt lat="40.0713751" lon="-105.2297877">
  <ele>1583.0</ele>
  <time>2026-08-28T17:49:32Z</time>
  <course>50.55</course>
  <speed>0.05</speed>
  <fix>3d</fix>
</trkpt>
<trkpt lat="40.0713756" lon="-105.2297877">
  <ele>1582.96</ele>
  <time>2026-08-28T17:49:32Z</time>
  <course>231.59</course>
  <speed>0.07071067811865475</speed>
  <fix>3d</fix>
</trkpt>
<trkpt lat="40.0713751" lon="-105.2297877">
  <ele>1583.0</ele>
  <time>2026-08-28T17:49:32Z</time>
  <course>50.55</course>
  <speed>0.05</speed>
  <fix>3d</fix>
</trkpt>
<trkpt lat="40.0713756" lon="-105.2297876">
  <ele>1582.96</ele>
  <time>2026-08-28T17:49:32Z</time>
  <course>231.58</course>
  <speed>0.07071067811865475</speed>
  <fix>3d</fix>
</trkpt>
<trkpt lat="40.0713752" lon="-105.2297876">
  <ele>1583.0</ele>
  <time>2026-08-28T17:49:32Z</time>
  <course>50.54</course>
  <speed>0.04</speed>
  <fix>3d</fix>
</trkpt>
<trkpt lat="40.0713756" lon="-105.2297876">
  <ele>1582.96</ele>
  <time>2026-08-28T17:49:32Z</time>
  <course>231.58</course>
  <speed>0.07</speed>
  <fix>3d</fix>
</trkpt>
<trkpt lat="40.0713752" lon="-105.2297876">
  <ele>1583.0</ele>
  <time>2026-08-28T17:49:32Z</time>
  <course>50.54</course>
  <speed>0.04</speed>
  <fix>3d</fix>
</trkpt>
<trkpt lat="40.0713756" lon="-105.2297875">
  <ele>1582.96</ele>
  <time>2026-08-28T17:49:32Z</time>
  <course>231.57</course>
  <speed>0.07</speed>
  <fix>3d</fix>
</trkpt>
<trkpt lat="40.0713752" lon="-105.2297875">
  <ele>1583.0</ele>
  <time>2026-08-28T17:49:32Z</time>
  <course>50.54</course>
  <speed>0.04</speed>
  <fix>3d</fix>
</trkpt>
<trkpt lat="40.0713757" lon="-105.2297875">
  <ele>1582.96</ele>
  <time>2026-08-28T17:49:32Z</time>
  <course>231.56</course>
  <speed>0.06</speed>
  <fix>3d</fix>
</trkpt>
<trkpt lat="40.0713752" lon="-105.2297875">
  <ele>1583.0</ele>
  <time>2026-08-28T17:49:32Z</time>
  <course>50.54</course>
  <speed>0.04</speed>
  <fix>3d</fix>
</trkpt>
<trkpt lat="40.0713757" lon="-105.2297875">
  <ele>1582.96</ele>
  <time>2026-08-28T17:49:32Z</time>
  <course>231.55</course>
  <speed>0.06</speed>
  <fix>3d</fix>
</trkpt>
<trkpt lat="40.0713753" lon="-105.2297875">
  <ele>1583.0</ele>
  <time>2026-08-28T17:49:32Z</time>
  <course>50.54</course>
  <speed>0.03</speed>
  <fix>3d</fix>
</trkpt>
<trkpt lat="40.0713757" lon="-105.2297875">
  <ele>1582.96</ele>
  <time>2026-08-28T17:49:32Z</time>
  <course>231.55</course>
  <speed>0.06</speed>
  <fix>3d</fix>
</trkpt>
<trkpt lat="40.0713753" lon="-105.2297875">
  <ele>1583.0</ele>
  <time>2026-08-28T17:49:32Z</time>
  <course>50.54</course>
  <speed>0.03</speed>
  <fix>3d</fix>
</trkpt>
<trkpt lat="40.0713757" lon="-105.2297875">
  <ele>1582.96</ele>
  <time>2026-08-28T17:49:32Z</time>
  <course>231.54</course>
  <speed>0.06</speed>
  <fix>3d</fix>
</trkpt>
<trkpt lat="40.0713753" lon="-105.2297874">
  <ele>1583.0</ele>
  <time>2026-08-28T17:49:32Z</time>
  <course>50.53</course>
  <speed>0.03</speed>
  <fix>3d</fix>
</trkpt>
<trkpt lat="40.0713757" lon="-105.2297875">
  <ele>1582.96</ele>
  <time>2026-08-28T17:49:32Z</time>
  <course>231.53</course>
  <speed>0.05</speed>
  <fix>3d</fix>
</trkpt>
<trkpt lat="40.0713753" lon="-105.2297873">
  <ele>1583.0</ele>
  <time>2026-08-28T17:49:32Z</time>
  <course>50.53</course>
  <speed>0.03</speed>
  <fix>3d</fix>
</trkpt>
<trkpt lat="40.0713757" lon="-105.2297875">
  <ele>1582.96</ele>
  <time>2026-08-28T17:49:32Z</time>
  <course>231.52</course>
  <speed>0.05</speed>
  <fix>3d</fix>
</trkpt>
<trkpt lat="40.0713753" lon="-105.2297873">
  <ele>1583.0</ele>
  <time>2026-08-28T17:49:32Z</time>
  <course>50.53</course>
  <speed>0.03</speed>
  <fix>3d</fix>
</trkpt>
<trkpt lat="40.0713757" lon="-105.2297875">
  <ele>1582.96</ele>
  <time>2026-08-28T17:49:32Z</time>
  <course>231.51</course>
  <speed>0.05</speed>
  <fix>3d</fix>
</trkpt>
<trkpt lat="40.0713754" lon="-105.2297873">
  <ele>1583.0</ele>
  <time>2026-08-28T17:49:32Z</time>
  <course>50.52</course>
  <speed>0.02</speed>
  <fix>3d</fix>
</trkpt>
<trkpt lat="40.0713757" lon="-105.2297875">
  <ele>1582.96</ele>
  <time>2026-08-28T17:49:32Z</time>
  <course>231.51</course>
  <speed>0.05</speed>
  <fix>3d</fix>
</trkpt>
<trkpt lat="40.0713754" lon="-105.2297873">
  <ele>1583.0</ele>
  <time>2026-08-28T17:49:32Z</time>
  <course>50.52</course>
  <speed>0.02</speed>
  <fix>3d</fix>
</trkpt>
<trkpt lat="40.0713757" lon="-105.2297874">
  <ele>1582.96</ele>
  <time>2026-08-28T17:49:32Z</time>
  <course>231.5</course>
  <speed>0.05</speed>
  <fix>3d</fix>
</trkpt>
<trkpt lat="40.0713754" lon="-105.2297873">
  <ele>1583.0</ele>
  <time>2026-08-28T17:49:32Z</time>
  <course>50.51</course>
  <speed>0.02</speed>
  <fix>3d</fix>
</trkpt>
<trkpt lat="40.0713757" lon="-105.2297874">
  <ele>1582.96</ele>
  <time>2026-08-28T17:49:32Z</time>
  <course>231.49</course>
  <speed>0.04</speed>
  <fix>3d</fix>
</trkpt>
<trkpt lat="40.0713754" lon="-105.2297873">
  <ele>1583.0</ele>
  <time>2026-08-28T17:49:32Z</time>
  <course>50.51</course>
  <speed>0.02</speed>
  <fix>3d</fix>
</trkpt>
<trkpt lat="40.0713757" lon="-105.2297874">
  <ele>1582.96</ele>
  <time>2026-08-28T17:49:32Z</time>
  <course>231.49</course>
  <speed>0.04</speed>
  <fix>3d</fix>
</trkpt>
<trkpt lat="40.0713754" lon="-105.2297872">
  <ele>1583.0</ele>
  <time>2026-08-28T17:49:32Z</time>
  <course>50.51</course>
  <speed>0.02</speed>
  <fix>3d</fix>
</trkpt>
<trkpt lat="40.0713757" lon="-105.2297874">
  <ele>1582.96</ele>
  <time>2026-08-28T17:49:32Z</time>
  <course>231.48</course>
  <speed>0.04</speed>
  <fix>3d</fix>
</trkpt>
<trkpt lat="40.0713754" lon="-105.2297872">
  <ele>1583.0</ele>
  <time>2026-08-28T17:49:32Z</time>
  <course>50.51</course>
  <speed>0.02</speed>
  <fix>3d</fix>
</trkpt>
<trkpt lat="40.0713757" lon="-105.2297874">
  <ele>1582.96</ele>
  <time>2026-08-28T17:49:32Z</time>
  <course>231.47</course>
  <speed>0.04</speed>
  <fix>3d</fix>
</trkpt>
<trkpt lat="40.0713754" lon="-105.2297871">
  <ele>1583.0</ele>
  <time>2026-08-28T17:49:32Z</time>
  <course>50.5</course>
  <speed>0.02</speed>
  <fix>3d</fix>
</trkpt>
<trkpt lat="40.0713757" lon="-105.2297874">
  <ele>1582.97</ele>
  <time>2026-08-28T17:49:32Z</time>
  <course>231.47</course>
  <speed>0.04</speed>
  <fix>3d</fix>
</trkpt>
<trkpt lat="40.0713754" lon="-105.2297871">
  <ele>1583.0</ele>
  <time>2026-08-28T17:49:32Z</time>
  <course>50.5</course>
  <speed>0.02</speed>
  <fix>3d</fix>
</trkpt>
<trkpt lat="40.0713757" lon="-105.2297874">
  <ele>1582.98</ele>
  <time>2026-08-28T17:49:32Z</time>
  <course>231.46</course>
  <speed>0.0412310562561766</speed>
  <fix>3d</fix>
</trkpt>
<trkpt lat="40.0713754" lon="-105.2297871">
  <ele>1583.0</ele>
  <time>2026-08-28T17:49:32Z</time>
  <course>50.49</course>
  <speed>0.01</speed>
  <fix>3d</fix>
</trkpt>
<trkpt lat="40.0713757" lon="-105.2297873">
  <ele>1583.0</ele>
  <time>2026-08-28T17:49:32Z</time>
  <course>231.44</course>
  <speed>0.0316227766016838</speed>
  <fix>3d</fix>
</trkpt>
<trkpt lat="40.0713754" lon="-105.2297871">
  <ele>1583.0</ele>
  <time>2026-08-28T17:49:32Z</time>
  <course>50.48</course>
  <speed>0.01</speed>
  <fix>3d</fix>
</trkpt>
<trkpt lat="40.0713757" lon="-105.2297872">
  <ele>1583.01</ele>
  <time>2026-08-28T17:49:32Z</time>
  <course>231.42</course>
  <speed>0.0316227766016838</speed>
  <fix>3d</fix>
</trkpt>
<trkpt lat="40.0713755" lon="-105.2297871">
  <ele>1583.0</ele>
  <time>2026-08-28T17:49:32Z</time>
  <course>50.46</course>
  <speed>0.01</speed>
  <fix>3d</fix>
</trkpt>
<trkpt lat="40.0713757" lon="-105.2297872">
  <ele>1583.01</ele>
  <time>2026-08-28T17:49:32Z</time>
  <course>231.42</course>
  <speed>0.022360679774997897</speed>
  <fix>3d</fix>
</trkpt>
<trkpt lat="40.0713755" lon="-105.2297871">
  <ele>1583.0</ele>
  <time>2026-08-28T17:49:32Z</time>
  <course>50.46</course>
  <speed>0.01</speed>
  <fix>3d</fix>
</trkpt>
<trkpt lat="40.0713757" lon="-105.2297872">
  <ele>1583.01</ele>
  <time>2026-08-28T17:49:32Z</time>
  <course>231.42</course>
  <speed>0.022360679774997897</speed>
  <fix>3d</fix>
</trkpt>
<trkpt lat="40.0713755" lon="-105.229787">
  <ele>1583.0</ele>
  <time>2026-08-28T17:49:32Z</time>
  <course>50.45</course>
  <speed>0.01</speed>
  <fix>3d</fix>
</trkpt>
<trkpt lat="40.0713757" lon="-105.2297872">
  <ele>1583.01</ele>
  <time>2026-08-28T17:49:32Z</time>
  <course>231.41</course>
  <speed>0.022360679774997897</speed>
  <fix>3d</fix>
</trkpt>
<trkpt lat="40.0713755" lon="-105.229787">
  <ele>1583.0</ele>
  <time>2026-08-28T17:49:32Z</time>
  <course>50.43</course>
  <speed>0.01</speed>
  <fix>3d</fix>
</trkpt>
<trkpt lat="40.0713757" lon="-105.2297872">
  <ele>1583.0</ele>
  <time>2026-08-28T17:49:32Z</time>
  <course>231.41</course>
  <speed>0.022360679774997897</speed>
  <fix>3d</fix>
</trkpt>
<trkpt lat="40.0713755" lon="-105.229787">
  <ele>1583.0</ele>
  <time>2026-08-28T17:49:32Z</time>
  <course>50.42</course>
  <speed>0.01</speed>
  <fix>3d</fix>
</trkpt>
<trkpt lat="40.0713757" lon="-105.2297872">
  <ele>1582.99</ele>
  <time>2026-08-28T17:49:32Z</time>
  <course>231.4</course>
  <speed>0.02</speed>
  <fix>3d</fix>
</trkpt>
<trkpt lat="40.0713755" lon="-105.229787">
  <ele>1583.0</ele>
  <time>2026-08-28T17:49:32Z</time>
  <course>50.42</course>
  <speed>0.01</speed>
  <fix>3d</fix>
</trkpt>
<trkpt lat="40.0713757" lon="-105.2297872">
  <ele>1582.98</ele>
  <time>2026-08-28T17:49:32Z</time>
  <course>231.4</course>
  <speed>0.02</speed>
  <fix>3d</fix>
</trkpt>
<trkpt lat="40.0713755" lon="-105.229787">
  <ele>1583.0</ele>
  <time>2026-08-28T17:49:32Z</time>
  <course>50.4</course>
  <speed>0.0</speed>
  <fix>3d</fix>
</trkpt>
<trkpt lat="40.0713757" lon="-105.2297871">
  <ele>1582.97</ele>
  <time>2026-08-28T17:49:32Z</time>
  <course>231.4</course>
  <speed>0.02</speed>
  <fix>3d</fix>
</trkpt>
<trkpt lat="40.0713755" lon="-105.229787">
  <ele>1583.0</ele>
  <time>2026-08-28T17:49:32Z</time>
  <course>50.4</course>
  <speed>0.0</speed>
  <fix>3d</fix>
</trkpt>
<trkpt lat="40.0713757" lon="-105.2297871">
  <ele>1582.97</ele>
  <time>2026-08-28T17:49:32Z</time>
  <course>231.4</course>
  <speed>0.02</speed>
  <fix>3d</fix>
</trkpt>
<trkpt lat="40.0713755" lon="-105.229787">
  <ele>1583.0</ele>
  <time>2026-08-28T17:49:32Z</time>
  <course>50.38</course>
  <speed>0.0</speed>
  <fix>3d</fix>
</trkpt>
<trkpt lat="40.0713757" lon="-105.2297871">
  <ele>1582.97</ele>
  <time>2026-08-28T17:49:32Z</time>
  <course>231.39</course>
  <speed>0.02</speed>
  <fix>3d</fix>
</trkpt>
<trkpt lat="40.0713755" lon="-105.229787">
  <ele>1583.0</ele>
  <time>2026-08-28T17:49:32Z</time>
  <course>50.38</course>
  <speed>0.0</speed>
  <fix>3d</fix>
</trkpt>
<trkpt lat="40.0713757" lon="-105.2297871">
  <ele>1582.97</ele>
  <time>2026-08-28T17:49:32Z</time>
  <course>231.39</course>
  <speed>0.02</speed>
  <fix>3d</fix>
</trkpt>
<trkpt lat="40.0713755" lon="-105.2297869">
  <ele>1583.0</ele>
  <time>2026-08-28T17:49:32Z</time>
  <course>50.36</course>
  <speed>0.0</speed>
  <fix>3d</fix>
</trkpt>
<trkpt lat="40.0713757" lon="-105.2297871">
  <ele>1582.97</ele>
  <time>2026-08-28T17:49:32Z</time>
  <course>231.39</course>
  <speed>0.02</speed>
  <fix>3d</fix>
</trkpt>
<trkpt lat="40.0713755" lon="-105.2297869">
  <ele>1583.0</ele>
  <time>2026-08-28T17:49:32Z</time>
  <course>50.36</course>
  <speed>0.0</speed>
  <fix>3d</fix>
</trkpt>
<trkpt lat="40.0713757" lon="-105.2297871">
  <ele>1582.98</ele>
  <time>2026-08-28T17:49:32Z</time>
  <course>231.39</course>
  <speed>0.02</speed>
  <fix>3d</fix>
</trkpt>
<trkpt lat="40.0713755" lon="-105.2297868">
  <ele>1583.0</ele>
  <time>2026-08-28T17:49:32Z</time>
  <course>50.34</course>
  <speed>0.0</speed>
  <fix>3d</fix>
</trkpt>
<trkpt lat="40.0713757" lon="-105.2297871">
  <ele>1582.99</ele>
  <time>2026-08-28T17:49:32Z</time>
  <course>231.39</course>
  <speed>0.02</speed>
  <fix>3d</fix>
</trkpt>
<trkpt lat="40.0713755" lon="-105.2297868">
  <ele>1583.0</ele>
  <time>2026-08-28T17:49:32Z</time>
  <course>50.34</course>
  <speed>0.0</speed>
  <fix>3d</fix>
</trkpt>
<trkpt lat="40.0713757" lon="-105.2297871">
  <ele>1583.0</ele>
  <time>2026-08-28T17:49:32Z</time>
  <course>231.39</course>
  <speed>0.02</speed>
  <fix>3d</fix>
</trkpt>
<trkpt lat="40.0713755" lon="-105.2297868">
  <ele>1583.0</ele>
  <time>2026-08-28T17:49:32Z</time>
  <course>50.31</course>
  <speed>0.0</speed>
  <fix>3d</fix>
</trkpt>
<trkpt lat="40.0713757" lon="-105.2297871">
  <ele>1583.0</ele>
  <time>2026-08-28T17:49:32Z</time>
  <course>231.38</course>
  <speed>0.02</speed>
  <fix>3d</fix>
</trkpt>
<trkpt lat="40.0713755" lon="-105.2297868">
  <ele>1583.0</ele>
  <time>2026-08-28T17:49:32Z</time>
  <course>50.31</course>
  <speed>0.0</speed>
  <fix>3d</fix>
</trkpt>
<trkpt lat="40.0713757" lon="-105.2297871">
  <ele>1583.01</ele>
  <time>2026-08-28T17:49:32Z</time>
  <course>231.38</course>
  <speed>0.02</speed>
  <fix>3d</fix>
</trkpt>
<trkpt lat="40.0713755" lon="-105.2297868">
  <ele>1583.0</ele>
  <time>2026-08-28T17:49:32Z</time>
  <course>50.31</course>
  <speed>0.0</speed>
  <fix>3d</fix>
</trkpt>
<trkpt lat="40.0713757" lon="-105.229787">
  <ele>1583.02</ele>
  <time>2026-08-28T17:49:32Z</time>
  <course>231.38</course>
  <speed>0.02</speed>
  <fix>3d</fix>
</trkpt>
<trkpt lat="40.0713756" lon="-105.2297868">
  <ele>1583.0</ele>
  <time>2026-08-28T17:49:32Z</time>
  <course>50.28</course>
  <speed>0.0</speed>
  <fix>3d</fix>
</trkpt>
<trkpt lat="40.0713757" lon="-105.229787">
  <ele>1583.02</ele>
  <time>2026-08-28T17:49:32Z</time>
  <course>231.38</course>
  <speed>0.02</speed>
  <fix>3d</fix>
</trkpt>
<trkpt lat="40.0713756" lon="-105.2297868">
  <ele>1583.0</ele>
  <time>2026-08-28T17:49:32Z</time>
  <course>50.28</course>
  <speed>0.0</speed>
  <fix>3d</fix>
</trkpt>
<trkpt lat="40.0713757" lon="-105.229787">
  <ele>1583.02</ele>
  <time>2026-08-28T17:49:32Z</time>
  <course>231.38</course>
  <speed>0.02</speed>
  <fix>3d</fix>
</trkpt>
<trkpt lat="40.0713757" lon="-105.2297868">
  <ele>1583.0</ele>
  <time>2026-08-28T17:49:32Z</time>
  <course>50.25</course>
  <speed>0.0</speed>
  <fix>3d</fix>
</trkpt>
<trkpt lat="40.0713757" lon="-105.229787">
  <ele>1583.03</ele>
  <time>2026-08-28T17:49:32Z</time>
  <course>231.38</course>
  <speed>0.02</speed>
  <fix>3d</fix>
</trkpt>
<trkpt lat="40.0713757" lon="-105.2297868">
  <ele>1583.0</ele>
  <time>2026-08-28T17:49:32Z</time>
  <course>50.25</course>
  <speed>0.0</speed>
  <fix>3d</fix>
</trkpt>
<trkpt lat="40.0713757" lon="-105.229787">
  <ele>1583.03</ele>
  <time>2026-08-28T17:49:32Z</time>
  <course>231.38</course>
  <speed>0.02</speed>
  <fix>3d</fix>
</trkpt>
<trkpt lat="40.0713757" lon="-105.2297868">
  <ele>1583.0</ele>
  <time>2026-08-28T17:49:32Z</time>
  <course>50.22</course>
  <speed>0.0</speed>
  <fix>3d</fix>
</trkpt>
<trkpt lat="40.0713757" lon="-105.229787">
  <ele>1583.04</ele>
  <time>2026-08-28T17:49:32Z</time>
  <course>231.38</course>
  <speed>0.02</speed>
  <fix>3d</fix>
</trkpt>
<trkpt lat="40.0713757" lon="-105.2297868">
  <ele>1583.0</ele>
  <time>2026-08-28T17:49:32Z</time>
  <course>50.22</course>
  <speed>0.0</speed>
  <fix>3d</fix>
</trkpt>
<trkpt lat="40.0713757" lon="-105.229787">
  <ele>1583.04</ele>
  <time>2026-08-28T17:49:32Z</time>
  <course>231.38</course>
  <speed>0.02</speed>
  <fix>3d</fix>
</trkpt>
<trkpt lat="40.0713757" lon="-105.2297868">
  <ele>1583.0</ele>
  <time>2026-08-28T17:49:32Z</time>
  <course>50.18</course>
  <speed>0.0</speed>
  <fix>3d</fix>
</trkpt>
<trkpt lat="40.0713757" lon="-105.229787">
  <ele>1583.04</ele>
  <time>2026-08-28T17:49:32Z</time>
  <course>231.38</course>
  <speed>0.02</speed>
  <fix>3d</fix>
</trkpt>
<trkpt lat="40.0713757" lon="-105.2297868">
  <ele>1583.0</ele>
  <time>2026-08-28T17:49:32Z</time>
  <course>50.14</course>
  <speed>0.0</speed>
  <fix>3d</fix>
</trkpt>
<trkpt lat="40.0713757" lon="-105.2297869">
  <ele>1583.04</ele>
  <time>2026-08-28T17:49:32Z</time>
  <course>231.38</course>
  <speed>0.02</speed>
  <fix>3d</fix>
</trkpt>
<trkpt lat="40.0713757" lon="-105.2297868">
  <ele>1583.0</ele>
  <time>2026-08-28T17:49:32Z</time>
  <course>50.14</course>
  <speed>0.0</speed>
  <fix>3d</fix>
</trkpt>
<trkpt lat="40.0713757" lon="-105.2297869">
  <ele>1583.04</ele>
  <time>2026-08-28T17:49:32Z</time>
  <course>231.38</course>
  <speed>0.01414213562373095</speed>
  <fix>3d</fix>
</trkpt>
<trkpt lat="40.0713757" lon="-105.2297868">
  <ele>1583.0</ele>
  <time>2026-08-28T17:49:32Z</time>
  <course>230.81</course>
  <speed>0.0</speed>
  <fix>3d</fix>
</trkpt>
<trkpt lat="40.0713757" lon="-105.2297869">
  <ele>1583.04</ele>
  <time>2026-08-28T17:49:32Z</time>
  <course>231.39</course>
  <speed>0.0412310562561766</speed>
  <fix>3d</fix>
</trkpt>
<trkpt lat="40.0713757" lon="-105.2297868">
  <ele>1583.0</ele>
  <time>2026-08-28T17:49:32Z</time>
  <course>230.81</course>
  <speed>0.0</speed>
  <fix>3d</fix>
</trkpt>
<trkpt lat="40.0713757" lon="-105.2297869">
  <ele>1583.04</ele>
  <time>2026-08-28T17:49:32Z</time>
  <course>231.41</course>
  <speed>0.08944271909999159</speed>
  <fix>3d</fix>
</trkpt>
<trkpt lat="40.0713757" lon="-105.2297868">
  <ele>1583.0</ele>
  <time>2026-08-28T17:49:32Z</time>
  <course>230.63</course>
  <speed>0.06</speed>
  <fix>3d</fix>
</trkpt>
<trkpt lat="40.0713757" lon="-105.2297871">
  <ele>1583.04</ele>
  <time>2026-08-28T17:49:32Z</time>
  <course>231.43</course>
  <speed>0.147648230602334</speed>
  <fix>3d</fix>
</trkpt>
<trkpt lat="40.0713757" lon="-105.2297868">
  <ele>1583.0</ele>
  <time>2026-08-28T17:49:32Z</time>
  <course>230.63</course>
  <speed>0.06</speed>
  <fix>3d</fix>
</trkpt>
<trkpt lat="40.0713756" lon="-105.2297872">
  <ele>1583.04</ele>
  <time>2026-08-28T17:49:32Z</time>
  <course>231.48</course>
  <speed>0.22472205054244232</speed>
  <fix>3d</fix>
</trkpt>
<trkpt lat="40.0713755" lon="-105.229787">
  <ele>1583.0</ele>
  <time>2026-08-28T17:49:32Z</time>
  <course>230.67</course>
  <speed>0.17</speed>
  <fix>3d</fix>
</trkpt>
<trkpt lat="40.0713754" lon="-105.2297875">
  <ele>1583.04</ele>
  <time>2026-08-28T17:49:32Z</time>
  <course>231.54</course>
  <speed>0.31064449134018135</speed>
  <fix>3d</fix>
</trkpt>
<trkpt lat="40.0713755" lon="-105.229787">
  <ele>1583.0</ele>
  <time>2026-08-28T17:49:32Z</time>
  <course>230.67</course>
  <speed>0.17</speed>
  <fix>3d</fix>
</trkpt>
<trkpt lat="40.0713752" lon="-105.2297879">
  <ele>1583.04</ele>
  <time>2026-08-28T17:49:32Z</time>
  <course>231.65</course>
  <speed>0.4022437072223753</speed>
  <fix>3d</fix>
</trkpt>
<trkpt lat="40.0713753" lon="-105.2297874">
  <ele>1583.0</ele>
  <time>2026-08-28T17:49:32Z</time>
  <course>230.79</course>
  <speed>0.32</speed>
  <fix>3d</fix>
</trkpt>
<trkpt lat="40.071375" lon="-105.2297883">
  <ele>1583.04</ele>
  <time>2026-08-28T17:49:32Z</time>
  <course>231.86</course>
  <speed>0.4801041553663121</speed>
  <fix>3d</fix>
</trkpt>
<trkpt lat="40.0713753" lon="-105.2297874">
  <ele>1583.0</ele>
  <time>2026-08-28T17:49:32Z</time>
  <course>230.79</course>
  <speed>0.32</speed>
  <fix>3d</fix>
</trkpt>
<trkpt lat="40.0713747" lon="-105.2297888">
  <ele>1583.05</ele>
  <time>2026-08-28T17:49:32Z</time>
  <course>232.19</course>
  <speed>0.5521775076911409</speed>
  <fix>3d</fix>
</trkpt>
<trkpt lat="40.0713748" lon="-105.2297882">
  <ele>1583.0</ele>
  <time>2026-08-28T17:49:32Z</time>
  <course>231.16</course>
  <speed>0.49</speed>
  <fix>3d</fix>
</trkpt>
<trkpt lat="40.0713743" lon="-105.2297894">
  <ele>1583.05</ele>
  <time>2026-08-28T17:49:32Z</time>
  <course>232.67</course>
  <speed>0.6242595614005443</speed>
  <fix>3d</fix>
</trkpt>
<trkpt lat="40.0713748" lon="-105.2297882">
  <ele>1583.0</ele>
  <time>2026-08-28T17:49:32Z</time>
  <course>231.16</course>
  <speed>0.49</speed>
  <fix>3d</fix>
</trkpt>
<trkpt lat="40.071374" lon="-105.22979">
  <ele>1583.05</ele>
  <time>2026-08-28T17:49:32Z</time>
  <course>233.31</course>
  <speed>0.6824221567329127</speed>
  <fix>3d</fix>
</trkpt>
<trkpt lat="40.0713742" lon="-105.2297892">
  <ele>1583.0</ele>
  <time>2026-08-28T17:49:32Z</time>
  <course>232.0</course>
  <speed>0.62</speed>
  <fix>3d</fix>
</trkpt>
<trkpt lat="40.0713736" lon="-105.2297907">
  <ele>1583.05</ele>
  <time>2026-08-28T17:49:32Z</time>
  <course>234.1</course>
  <speed>0.7267048919609665</speed>
  <fix>3d</fix>
</trkpt>
<trkpt lat="40.0713742" lon="-105.2297892">
  <ele>1583.0</ele>
  <time>2026-08-28T17:49:32Z</time>
  <course>232.0</course>
  <speed>0.62</speed>
  <fix>3d</fix>
</trkpt>
<trkpt lat="40.0713732" lon="-105.2297914">
  <ele>1583.05</ele>
  <time>2026-08-28T17:49:32Z</time>
  <course>235.04</course>
  <speed>0.7655063683601856</speed>
  <fix>3d</fix>
</trkpt>
<trkpt lat="40.0713742" lon="-105.2297892">
  <ele>1583.0</ele>
  <time>2026-08-28T17:49:32Z</time>
  <course>232.0</course>
  <speed>0.62</speed>
  <fix>3d</fix>
</trkpt>
<trkpt lat="40.0713728" lon="-105.2297922">
  <ele>1583.05</ele>
  <time>2026-08-28T17:49:32Z</time>
  <course>236.12</course>
  <speed>0.8045495634204272</speed>
  <fix>3d</fix>
</trkpt>
<trkpt lat="40.0713734" lon="-105.2297904">
  <ele>1583.0</ele>
  <time>2026-08-28T17:49:32Z</time>
  <course>233.43</course>
  <speed>0.73</speed>
  <fix>3d</fix>
</trkpt>
<trkpt lat="40.0713723" lon="-105.229793">
  <ele>1583.05</ele>
  <time>2026-08-28T17:49:32Z</time>
  <course>237.32</course>
  <speed>0.8300602387778854</speed>
  <fix>3d</fix>
</trkpt>
<trkpt lat="40.0713734" lon="-105.2297904">
  <ele>1583.0</ele>
  <time>2026-08-28T17:49:32Z</time>
  <course>233.43</course>
  <speed>0.73</speed>
  <fix>3d</fix>
</trkpt>
<trkpt lat="40.0713719" lon="-105.2297939">
  <ele>1583.05</ele>
  <time>2026-08-28T17:49:32Z</time>
  <course>238.61</course>
  <speed>0.8421995013059553</speed>
  <fix>3d</fix>
</trkpt>
<trkpt lat="40.0713727" lon="-105.229792">
  <ele>1583.0</ele>
  <time>2026-08-28T17:49:32Z</time>
  <course>235.44</course>
  <speed>0.8</speed>
  <fix>3d</fix>
</trkpt>
<trkpt lat="40.0713715" lon="-105.2297947">
  <ele>1583.05</ele>
  <time>2026-08-28T17:49:32Z</time>
  <course>239.96</course>
  <speed>0.8547514258543241</speed>
  <fix>3d</fix>
</trkpt>
<trkpt lat="40.0713727" lon="-105.229792">
  <ele>1583.0</ele>
  <time>2026-08-28T17:49:32Z</time>
  <course>235.44</course>
  <speed>0.8</speed>
  <fix>3d</fix>
</trkpt>
<trkpt lat="40.0713712" lon="-105.2297956">
  <ele>1583.05</ele>
  <time>2026-08-28T17:49:32Z</time>
  <course>241.36</course>
  <speed>0.8676981041814025</speed>
  <fix>3d</fix>
</trkpt>
<trkpt lat="40.0713719" lon="-105.2297936">
  <ele>1583.0</ele>
  <time>2026-08-28T17:49:32Z</time>
  <course>237.88</course>
  <speed>0.85</speed>
  <fix>3d</fix>
</trkpt>
<trkpt lat="40.0713708" lon="-105.2297965">
  <ele>1583.05</ele>
  <time>2026-08-28T17:49:32Z</time>
  <course>242.78</course>
  <speed>0.8676404785393546</speed>
  <fix>3d</fix>
</trkpt>
<trkpt lat="40.071371" lon="-105.2297954">
  <ele>1583.0</ele>
  <time>2026-08-28T17:49:32Z</time>
  <course>240.6</course>
  <speed>0.86</speed>
  <fix>3d</fix>
</trkpt>
<trkpt lat="40.0713704" lon="-105.2297974">
  <ele>1583.05</ele>
  <time>2026-08-28T17:49:32Z</time>
  <course>244.2</course>
  <speed>0.8681589716175259</speed>
  <fix>3d</fix>
</trkpt>
<trkpt lat="40.071371" lon="-105.2297954">
  <ele>1583.0</ele>
  <time>2026-08-28T17:49:32Z</time>
  <course>240.6</course>
  <speed>0.86</speed>
  <fix>3d</fix>
</trkpt>
<trkpt lat="40.0713701" lon="-105.2297984">
  <ele>1583.05</ele>
  <time>2026-08-28T17:49:32Z</time>
  <course>245.59</course>
  <speed>0.8600581375697809</speed>
  <fix>3d</fix>
</trkpt>
<trkpt lat="40.0713703" lon="-105.2297971">
  <ele>1583.0</ele>
  <time>2026-08-28T17:49:32Z</time>
  <course>243.4</course>
  <speed>0.86</speed>
  <fix>3d</fix>
</trkpt>
<trkpt lat="40.0713698" lon="-105.2297993">
  <ele>1583.05</ele>
  <time>2026-08-28T17:49:32Z</time>
  <course>246.94</course>
  <speed>0.8486459803710851</speed>
  <fix>3d</fix>
</trkpt>
<trkpt lat="40.0713703" lon="-105.2297971">
  <ele>1583.0</ele>
  <time>2026-08-28T17:49:32Z</time>
  <course>243.4</course>
  <speed>0.86</speed>
  <fix>3d</fix>
</trkpt>
<trkpt lat="40.0713695" lon="-105.2298002">
  <ele>1583.05</ele>
  <time>2026-08-28T17:49:32Z</time>
  <course>248.25</course>
  <speed>0.8415461959987698</speed>
  <fix>3d</fix>
</trkpt>
<trkpt lat="40.0713697" lon="-105.2297989">
  <ele>1583.0</ele>
  <time>2026-08-28T17:49:32Z</time>
  <course>246.13</course>
  <speed>0.85</speed>
  <fix>3d</fix>
</trkpt>
<trkpt lat="40.0713692" lon="-105.2298011">
  <ele>1583.05</ele>
  <time>2026-08-28T17:49:32Z</time>
  <course>249.52</course>
  <speed>0.8254089895318564</speed>
  <fix>3d</fix>
</trkpt>
<trkpt lat="40.0713697" lon="-105.2297989">
  <ele>1583.0</ele>
  <time>2026-08-28T17:49:32Z</time>
  <course>246.13</course>
  <speed>0.85</speed>
  <fix>3d</fix>
</trkpt>
<trkpt lat="40.0713689" lon="-105.229802">
  <ele>1583.05</ele>
  <time>2026-08-28T17:49:32Z</time>
  <course>250.72</course>
  <speed>0.8095677859203638</speed>
  <fix>3d</fix>
</trkpt>
<trkpt lat="40.0713691" lon="-105.2298008">
  <ele>1583.0</ele>
  <time>2026-08-28T17:49:32Z</time>
  <course>248.69</course>
  <speed>0.83</speed>
  <fix>3d</fix>
</trkpt>
<trkpt lat="40.0713687" lon="-105.2298029">
  <ele>1583.05</ele>
  <time>2026-08-28T17:49:32Z</time>
  <course>251.87</course>
  <speed>0.7940403012442127</speed>
  <fix>3d</fix>
</trkpt>
<trkpt lat="40.0713691" lon="-105.2298008">
  <ele>1583.0</ele>
  <time>2026-08-28T17:49:32Z</time>
  <course>248.69</course>
  <speed>0.83</speed>
  <fix>3d</fix>
</trkpt>
<trkpt lat="40.0713685" lon="-105.2298038">
  <ele>1583.05</ele>
  <time>2026-08-28T17:49:32Z</time>
  <course>252.95</course>
  <speed>0.7788452991448301</speed>
  <fix>3d</fix>
</trkpt>
<trkpt lat="40.0713686" lon="-105.2298026">
  <ele>1583.0</ele>
  <time>2026-08-28T17:49:32Z</time>
  <course>251.04</course>
  <speed>0.8</speed>
  <fix>3d</fix>
</trkpt>
<trkpt lat="40.0713683" lon="-105.2298047">
  <ele>1583.05</ele>
  <time>2026-08-28T17:49:32Z</time>
  <course>253.98</course>
  <speed>0.7640026177965623</speed>
  <fix>3d</fix>
</trkpt>
<trkpt lat="40.0713686" lon="-105.2298026">
  <ele>1583.0</ele>
  <time>2026-08-28T17:49:32Z</time>
  <course>251.04</course>
  <speed>0.8</speed>
  <fix>3d</fix>
</trkpt>
<trkpt lat="40.0713681" lon="-105.2298056">
  <ele>1583.05</ele>
  <time>2026-08-28T17:49:32Z</time>
  <course>254.94</course>
  <speed>0.7518643494673757</speed>
  <fix>3d</fix>
</trkpt>
<trkpt lat="40.0713681" lon="-105.2298043">
  <ele>1583.0</ele>
  <time>2026-08-28T17:49:32Z</time>
  <course>253.15</course>
  <speed>0.77</speed>
  <fix>3d</fix>
</trkpt>
<trkpt lat="40.0713679" lon="-105.2298064">
  <ele>1583.05</ele>
  <time>2026-08-28T17:49:32Z</time>
  <course>255.85</course>
  <speed>0.7278049189171505</speed>
  <fix>3d</fix>
</trkpt>
<trkpt lat="40.0713681" lon="-105.2298043">
  <ele>1583.0</ele>
  <time>2026-08-28T17:49:32Z</time>
  <course>253.15</course>
  <speed>0.77</speed>
  <fix>3d</fix>
</trkpt>
<trkpt lat="40.0713678" lon="-105.2298072">
  <ele>1583.04</ele>
  <time>2026-08-28T17:49:32Z</time>
  <course>256.71</course>
  <speed>0.7158910531638176</speed>
  <fix>3d</fix>
</trkpt>
<trkpt lat="40.0713678" lon="-105.2298061">
  <ele>1583.0</ele>
  <time>2026-08-28T17:49:32Z</time>
  <course>255.02</course>
  <speed>0.74</speed>
  <fix>3d</fix>
</trkpt>
<trkpt lat="40.0713676" lon="-105.229808">
  <ele>1583.04</ele>
  <time>2026-08-28T17:49:32Z</time>
  <course>257.52</course>
  <speed>0.7021395872616784</speed>
  <fix>3d</fix>
</trkpt>
<trkpt lat="40.0713678" lon="-105.2298061">
  <ele>1583.0</ele>
  <time>2026-08-28T17:49:32Z</time>
  <course>255.02</course>
  <speed>0.74</speed>
  <fix>3d</fix>
</trkpt>
<trkpt lat="40.0713675" lon="-105.2298088">
  <ele>1583.04</ele>
  <time>2026-08-28T17:49:32Z</time>
  <course>258.28</course>
  <speed>0.6905070600652827</speed>
  <fix>3d</fix>
</trkpt>
<trkpt lat="40.0713678" lon="-105.2298061">
  <ele>1583.0</ele>
  <time>2026-08-28T17:49:32Z</time>
  <course>255.02</course>
  <speed>0.74</speed>
  <fix>3d</fix>
</trkpt>
<trkpt lat="40.0713673" lon="-105.2298096">
  <ele>1583.04</ele>
  <time>2026-08-28T17:49:32Z</time>
  <course>259.02</course>
  <speed>0.6789698078707183</speed>
  <fix>3d</fix>
</trkpt>
<trkpt lat="40.0713674" lon="-105.2298078">
  <ele>1583.0</ele>
  <time>2026-08-28T17:49:32Z</time>
  <course>256.7</course>
  <speed>0.71</speed>
  <fix>3d</fix>
</trkpt>
<trkpt lat="40.0713672" lon="-105.2298104">
  <ele>1583.04</ele>
  <time>2026-08-28T17:49:32Z</time>
  <course>259.72</course>
  <speed>0.6675327707311455</speed>
  <fix>3d</fix>
</trkpt>
<trkpt lat="40.0713674" lon="-105.2298078">
  <ele>1583.0</ele>
  <time>2026-08-28T17:49:32Z</time>
  <course>256.7</course>
  <speed>0.71</speed>
  <fix>3d</fix>
</trkpt>
<trkpt lat="40.0713671" lon="-105.2298112">
  <ele>1583.04</ele>
  <time>2026-08-28T17:49:32Z</time>
  <course>260.4</course>
  <speed>0.6661080993352355</speed>
  <fix>3d</fix>
</trkpt>
<trkpt lat="40.0713672" lon="-105.2298093">
  <ele>1583.0</ele>
  <time>2026-08-28T17:49:32Z</time>
  <course>258.21</course>
  <speed>0.69</speed>
  <fix>3d</fix>
</trkpt>
<trkpt lat="40.071367" lon="-105.2298119">
  <ele>1583.04</ele>
  <time>2026-08-28T17:49:32Z</time>
  <course>261.05</course>
  <speed>0.6549045732013177</speed>
  <fix>3d</fix>
</trkpt>
<trkpt lat="40.0713672" lon="-105.2298093">
  <ele>1583.0</ele>
  <time>2026-08-28T17:49:32Z</time>
  <course>258.21</course>
  <speed>0.69</speed>
  <fix>3d</fix>
</trkpt>
<trkpt lat="40.0713669" lon="-105.2298127">
  <ele>1583.04</ele>
  <time>2026-08-28T17:49:32Z</time>
  <course>261.68</course>
  <speed>0.6449806198638839</speed>
  <fix>3d</fix>
</trkpt>
<trkpt lat="40.0713669" lon="-105.2298109">
  <ele>1583.0</ele>
  <time>2026-08-28T17:49:32Z</time>
  <course>259.6</course>
  <speed>0.67</speed>
  <fix>3d</fix>
</trkpt>
<trkpt lat="40.0713668" lon="-105.2298134">
  <ele>1583.04</ele>
  <time>2026-08-28T17:49:32Z</time>
  <course>262.3</course>
  <speed>0.6438167441127949</speed>
  <fix>3d</fix>
</trkpt>
<trkpt lat="40.0713668" lon="-105.2298125">
  <ele>1583.0</ele>
  <time>2026-08-28T17:49:32Z</time>
  <course>260.89</course>
  <speed>0.65</speed>
  <fix>3d</fix>
</trkpt>
<trkpt lat="40.0713667" lon="-105.2298142">
  <ele>1583.04</ele>
  <time>2026-08-28T17:49:32Z</time>
  <course>262.91</course>
  <speed>0.6328506932918696</speed>
  <fix>3d</fix>
</trkpt>
<trkpt lat="40.0713668" lon="-105.2298125">
  <ele>1583.0</ele>
  <time>2026-08-28T17:49:32Z</time>
  <course>260.89</course>
  <speed>0.65</speed>
  <fix>3d</fix>
</trkpt>
<trkpt lat="40.0713667" lon="-105.2298149">
  <ele>1583.04</ele>
  <time>2026-08-28T17:49:32Z</time>
  <course>263.5</course>
  <speed>0.6319810123729984</speed>
  <fix>3d</fix>
</trkpt>
<trkpt lat="40.0713666" lon="-105.229814">
  <ele>1583.0</ele>
  <time>2026-08-28T17:49:32Z</time>
  <course>262.11</course>
  <speed>0.65</speed>
  <fix>3d</fix>
</trkpt>
<trkpt lat="40.0713666" lon="-105.2298157">
  <ele>1583.04</ele>
  <time>2026-08-28T17:49:32Z</time>
  <course>264.09</course>
  <speed>0.6319810123729984</speed>
  <fix>3d</fix>
</trkpt>
<trkpt lat="40.0713666" lon="-105.229814">
  <ele>1583.0</ele>
  <time>2026-08-28T17:49:32Z</time>
  <course>262.11</course>
  <speed>0.65</speed>
  <fix>3d</fix>
</trkpt>
<trkpt lat="40.0713665" lon="-105.2298164">
  <ele>1583.04</ele>
  <time>2026-08-28T17:49:32Z</time>
  <course>264.67</course>
  <speed>0.6312685640834652</speed>
  <fix>3d</fix>
</trkpt>
<trkpt lat="40.0713664" lon="-105.2298155">
  <ele>1583.0</ele>
  <time>2026-08-28T17:49:32Z</time>
  <course>263.29</course>
  <speed>0.64</speed>
  <fix>3d</fix>
</trkpt>
<trkpt lat="40.0713665" lon="-105.2298172">
  <ele>1583.04</ele>
  <time>2026-08-28T17:49:32Z</time>
  <course>265.26</course>
  <speed>0.6312685640834652</speed>
  <fix>3d</fix>
</trkpt>
<trkpt lat="40.0713664" lon="-105.2298155">
  <ele>1583.0</ele>
  <time>2026-08-28T17:49:32Z</time>
  <course>263.29</course>
  <speed>0.64</speed>
  <fix>3d</fix>
</trkpt>
<trkpt lat="40.0713664" lon="-105.2298179">
  <ele>1583.03</ele>
  <time>2026-08-28T17:49:32Z</time>
  <course>265.84</course>
  <speed>0.6307138812488592</speed>
  <fix>3d</fix>
</trkpt>
<trkpt lat="40.0713663" lon="-105.229817">
  <ele>1583.0</ele>
  <time>2026-08-28T17:49:32Z</time>
  <course>264.46</course>
  <speed>0.64</speed>
  <fix>3d</fix>
</trkpt>
<trkpt lat="40.0713664" lon="-105.2298187">
  <ele>1583.03</ele>
  <time>2026-08-28T17:49:32Z</time>
  <course>266.43</course>
  <speed>0.630317380372777</speed>
  <fix>3d</fix>
</trkpt>
<trkpt lat="40.0713663" lon="-105.229817">
  <ele>1583.0</ele>
  <time>2026-08-28T17:49:32Z</time>
  <course>264.46</course>
  <speed>0.64</speed>
  <fix>3d</fix>
</trkpt>
<trkpt lat="40.0713664" lon="-105.2298194">
  <ele>1583.03</ele>
  <time>2026-08-28T17:49:32Z</time>
  <course>267.02</course>
  <speed>0.630317380372777</speed>
  <fix>3d</fix>
</trkpt>
<trkpt lat="40.0713662" lon="-105.2298185">
  <ele>1583.0</ele>
  <time>2026-08-28T17:49:32Z</time>
  <course>265.64</course>
  <speed>0.64</speed>
  <fix>3d</fix>
</trkpt>
<trkpt lat="40.0713663" lon="-105.2298202">
  <ele>1583.03</ele>
  <time>2026-08-28T17:49:32Z</time>
  <course>267.61</course>
  <speed>0.6400781202322103</speed>
  <fix>3d</fix>
</trkpt>
<trkpt lat="40.0713662" lon="-105.2298185">
  <ele>1583.0</ele>
  <time>2026-08-28T17:49:32Z</time>
  <course>265.64</course>
  <speed>0.64</speed>
  <fix>3d</fix>
</trkpt>
<trkpt lat="40.0713663" lon="-105.229821">
  <ele>1583.03</ele>
  <time>2026-08-28T17:49:32Z</time>
  <course>268.21</course>
  <speed>0.64</speed>
  <fix>3d</fix>
</trkpt>
<trkpt lat="40.0713661" lon="-105.22982">
  <ele>1583.0</ele>
  <time>2026-08-28T17:49:32Z</time>
  <course>266.81</course>
  <speed>0.64</speed>
  <fix>3d</fix>
</trkpt>
<trkpt lat="40.0713663" lon="-105.2298217">
  <ele>1583.04</ele>
  <time>2026-08-28T17:49:32Z</time>
  <course>268.81</course>
  <speed>0.64</speed>
  <fix>3d</fix>
</trkpt>
<trkpt lat="40.0713661" lon="-105.22982">
  <ele>1583.0</ele>
  <time>2026-08-28T17:49:32Z</time>
  <course>266.81</course>
  <speed>0.64</speed>
  <fix>3d</fix>
</trkpt>
<trkpt lat="40.0713663" lon="-105.2298225">
  <ele>1583.04</ele>
  <time>2026-08-28T17:49:32Z</time>
  <course>269.41</course>
  <speed>0.64</speed>
  <fix>3d</fix>
</trkpt>
<trkpt lat="40.0713661" lon="-105.2298215">
  <ele>1583.0</ele>
  <time>2026-08-28T17:49:32Z</time>
  <course>268.01</course>
  <speed>0.65</speed>
  <fix>3d</fix>
</trkpt>
<trkpt lat="40.0713662" lon="-105.2298232">
  <ele>1583.04</ele>
  <time>2026-08-28T17:49:32Z</time>
  <course>270.03</course>
  <speed>0.6400781202322103</speed>
  <fix>3d</fix>
</trkpt>
<trkpt lat="40.0713661" lon="-105.2298215">
  <ele>1583.0</ele>
  <time>2026-08-28T17:49:32Z</time>
  <course>268.01</course>
  <speed>0.65</speed>
  <fix>3d</fix>
</trkpt>
<trkpt lat="40.0713662" lon="-105.229824">
  <ele>1583.03</ele>
  <time>2026-08-28T17:49:32Z</time>
  <course>270.64</course>
  <speed>0.6500769185258002</speed>
  <fix>3d</fix>
</trkpt>
<trkpt lat="40.0713661" lon="-105.2298215">
  <ele>1583.0</ele>
  <time>2026-08-28T17:49:32Z</time>
  <course>268.01</course>
  <speed>0.65</speed>
  <fix>3d</fix>
</trkpt>
<trkpt lat="40.0713662" lon="-105.2298248">
  <ele>1583.03</ele>
  <time>2026-08-28T17:49:32Z</time>
  <course>271.27</course>
  <speed>0.6503076195155643</speed>
  <fix>3d</fix>
</trkpt>
<trkpt lat="40.071366" lon="-105.2298231">
  <ele>1583.0</ele>
  <time>2026-08-28T17:49:32Z</time>
  <course>269.22</course>
  <speed>0.65</speed>
  <fix>3d</fix>
</trkpt>
<trkpt lat="40.0713662" lon="-105.2298256">
  <ele>1583.03</ele>
  <time>2026-08-28T17:49:32Z</time>
  <course>271.91</course>
  <speed>0.6506919393998976</speed>
  <fix>3d</fix>
</trkpt>
<trkpt lat="40.071366" lon="-105.2298231">
  <ele>1583.0</ele>
  <time>2026-08-28T17:49:32Z</time>
  <course>269.22</course>
  <speed>0.65</speed>
  <fix>3d</fix>
</trkpt>
<trkpt lat="40.0713662" lon="-105.2298263">
  <ele>1583.03</ele>
  <time>2026-08-28T17:49:32Z</time>
  <course>272.55</course>
  <speed>0.6512296062065974</speed>
  <fix>3d</fix>
</trkpt>
<trkpt lat="40.071366" lon="-105.2298246">
  <ele>1583.0</ele>
  <time>2026-08-28T17:49:32Z</time>
  <course>270.47</course>
  <speed>0.66</speed>
  <fix>3d</fix>
</trkpt>
<trkpt lat="40.0713662" lon="-105.2298271">
  <ele>1583.03</ele>
  <time>2026-08-28T17:49:32Z</time>
  <course>273.2</course>
  <speed>0.6512296062065974</speed>
  <fix>3d</fix>
</trkpt>
<trkpt lat="40.071366" lon="-105.2298246">
  <ele>1583.0</ele>
  <time>2026-08-28T17:49:32Z</time>
  <course>270.47</course>
  <speed>0.66</speed>
  <fix>3d</fix>
</trkpt>
<trkpt lat="40.0713662" lon="-105.2298279">
  <ele>1583.03</ele>
  <time>2026-08-28T17:49:32Z</time>
  <course>273.85</course>
  <speed>0.6618912297349165</speed>
  <fix>3d</fix>
</trkpt>
<trkpt lat="40.0713661" lon="-105.2298261">
  <ele>1583.0</ele>
  <time>2026-08-28T17:49:32Z</time>
  <course>271.74</course>
  <speed>0.66</speed>
  <fix>3d</fix>
</trkpt>
<trkpt lat="40.0713663" lon="-105.2298286">
  <ele>1583.03</ele>
  <time>2026-08-28T17:49:32Z</time>
  <course>274.51</course>
  <speed>0.6627216610312356</speed>
  <fix>3d</fix>
</trkpt>
<trkpt lat="40.0713661" lon="-105.2298261">
  <ele>1583.0</ele>
  <time>2026-08-28T17:49:32Z</time>
  <course>271.74</course>
  <speed>0.66</speed>
  <fix>3d</fix>
</trkpt>
<trkpt lat="40.0713663" lon="-105.2298294">
  <ele>1583.03</ele>
  <time>2026-08-28T17:49:32Z</time>
  <course>275.17</course>
  <speed>0.6637017402418047</speed>
  <fix>3d</fix>
</trkpt>
<trkpt lat="40.0713661" lon="-105.2298278">
  <ele>1583.0</ele>
  <time>2026-08-28T17:49:32Z</time>
  <course>273.04</course>
  <speed>0.67</speed>
  <fix>3d</fix>
</trkpt>
<trkpt lat="40.0713663" lon="-105.2298302">
  <ele>1583.02</ele>
  <time>2026-08-28T17:49:32Z</time>
  <course>275.83</course>
  <speed>0.6537583651472461</speed>
  <fix>3d</fix>
</trkpt>
<trkpt lat="40.0713661" lon="-105.2298294">
  <ele>1583.0</ele>
  <time>2026-08-28T17:49:32Z</time>
  <course>274.35</course>
  <speed>0.67</speed>
  <fix>3d</fix>
</trkpt>
<trkpt lat="40.0713664" lon="-105.229831">
  <ele>1583.02</ele>
  <time>2026-08-28T17:49:32Z</time>
  <course>276.49</course>
  <speed>0.6549045732013177</speed>
  <fix>3d</fix>
</trkpt>
<trkpt lat="40.0713661" lon="-105.2298294">
  <ele>1583.0</ele>
  <time>2026-08-28T17:49:32Z</time>
  <course>274.35</course>
  <speed>0.67</speed>
  <fix>3d</fix>
</trkpt>
<trkpt lat="40.0713665" lon="-105.2298318">
  <ele>1583.02</ele>
  <time>2026-08-28T17:49:32Z</time>
  <course>277.15</course>
  <speed>0.6562011886609167</speed>
  <fix>3d</fix>
</trkpt>
<trkpt lat="40.0713662" lon="-105.2298309">
  <ele>1583.0</ele>
  <time>2026-08-28T17:49:32Z</time>
  <course>275.67</course>
  <speed>0.67</speed>
  <fix>3d</fix>
</trkpt>
<trkpt lat="40.0713665" lon="-105.2298326">
  <ele>1583.02</ele>
  <time>2026-08-28T17:49:32Z</time>
  <course>277.81</course>
  <speed>0.6562011886609167</speed>
  <fix>3d</fix>
</trkpt>
<trkpt lat="40.0713662" lon="-105.2298309">
  <ele>1583.0</ele>
  <time>2026-08-28T17:49:32Z</time>
  <course>275.67</course>
  <speed>0.67</speed>
  <fix>3d</fix>
</trkpt>
<trkpt lat="40.0713666" lon="-105.2298334">
  <ele>1583.02</ele>
  <time>2026-08-28T17:49:32Z</time>
  <course>278.47</course>
  <speed>0.6576473218982953</speed>
  <fix>3d</fix>
</trkpt>
<trkpt lat="40.0713663" lon="-105.2298324">
  <ele>1583.0</ele>
  <time>2026-08-28T17:49:32Z</time>
  <course>276.98</course>
  <speed>0.67</speed>
  <fix>3d</fix>
</trkpt>
<trkpt lat="40.0713667" lon="-105.2298341">
  <ele>1583.02</ele>
  <time>2026-08-28T17:49:32Z</time>
  <course>279.13</course>
  <speed>0.6592419889539803</speed>
  <fix>3d</fix>
</trkpt>
<trkpt lat="40.0713663" lon="-105.2298324">
  <ele>1583.0</ele>
  <time>2026-08-28T17:49:32Z</time>
  <course>276.98</course>
  <speed>0.67</speed>
  <fix>3d</fix>
</trkpt>
<trkpt lat="40.0713668" lon="-105.2298349">
  <ele>1583.02</ele>
  <time>2026-08-28T17:49:32Z</time>
  <course>279.81</course>
  <speed>0.6609841147864296</speed>
  <fix>3d</fix>
</trkpt>
<trkpt lat="40.0713664" lon="-105.2298341">
  <ele>1583.0</ele>
  <time>2026-08-28T17:49:32Z</time>
  <course>278.31</course>
  <speed>0.67</speed>
  <fix>3d</fix>
</trkpt>
<trkpt lat="40.0713668" lon="-105.2298357">
  <ele>1583.03</ele>
  <time>2026-08-28T17:49:32Z</time>
  <course>280.48</course>
  <speed>0.6609841147864296</speed>
  <fix>3d</fix>
</trkpt>
<trkpt lat="40.0713664" lon="-105.2298341">
  <ele>1583.0</ele>
  <time>2026-08-28T17:49:32Z</time>
  <course>278.31</course>
  <speed>0.67</speed>
  <fix>3d</fix>
</trkpt>
<trkpt lat="40.0713669" lon="-105.2298365">
  <ele>1583.03</ele>
  <time>2026-08-28T17:49:32Z</time>
  <course>281.15</course>
  <speed>0.662872536767062</speed>
  <fix>3d</fix>
</trkpt>
<trkpt lat="40.0713667" lon="-105.2298356">
  <ele>1583.0</ele>
  <time>2026-08-28T17:49:32Z</time>
  <course>279.64</course>
  <speed>0.67</speed>
  <fix>3d</fix>
</trkpt>
<trkpt lat="40.071367" lon="-105.2298373">
  <ele>1583.03</ele>
  <time>2026-08-28T17:49:32Z</time>
  <course>281.82</course>
  <speed>0.6649060083951716</speed>
  <fix>3d</fix>
</trkpt>
<trkpt lat="40.0713667" lon="-105.2298356">
  <ele>1583.0</ele>
  <time>2026-08-28T17:49:32Z</time>
  <course>279.64</course>
  <speed>0.67</speed>
  <fix>3d</fix>
</trkpt>
<trkpt lat="40.0713672" lon="-105.2298381">
  <ele>1583.03</ele>
  <time>2026-08-28T17:49:32Z</time>
  <course>282.49</course>
  <speed>0.6670832032063168</speed>
  <fix>3d</fix>
</trkpt>
<trkpt lat="40.0713669" lon="-105.2298371">
  <ele>1583.0</ele>
  <time>2026-08-28T17:49:32Z</time>
  <course>280.98</course>
  <speed>0.67</speed>
  <fix>3d</fix>
</trkpt>
<trkpt lat="40.0713673" lon="-105.2298388">
  <ele>1583.03</ele>
  <time>2026-08-28T17:49:32Z</time>
  <course>283.16</course>
  <speed>0.6573431371817918</speed>
  <fix>3d</fix>
</trkpt>
<trkpt lat="40.0713669" lon="-105.2298371">
  <ele>1583.0</ele>
  <time>2026-08-28T17:49:32Z</time>
  <course>280.98</course>
  <speed>0.67</speed>
  <fix>3d</fix>
</trkpt>
<trkpt lat="40.0713674" lon="-105.2298396">
  <ele>1583.03</ele>
  <time>2026-08-28T17:49:32Z</time>
  <course>283.83</course>
  <speed>0.6596969000988256</speed>
  <fix>3d</fix>
</trkpt>
<trkpt lat="40.0713671" lon="-105.2298388">
  <ele>1583.0</ele>
  <time>2026-08-28T17:49:32Z</time>
  <course>282.32</course>
  <speed>0.67</speed>
  <fix>3d</fix>
</trkpt>
<trkpt lat="40.0713675" lon="-105.2298404">
  <ele>1583.03</ele>
  <time>2026-08-28T17:49:32Z</time>
  <course>284.5</course>
  <speed>0.6621933252457322</speed>
  <fix>3d</fix>
</trkpt>
<trkpt lat="40.0713671" lon="-105.2298388">
  <ele>1583.0</ele>
  <time>2026-08-28T17:49:32Z</time>
  <course>282.32</course>
  <speed>0.67</speed>
  <fix>3d</fix>
</trkpt>
<trkpt lat="40.0713677" lon="-105.2298412">
  <ele>1583.03</ele>
  <time>2026-08-28T17:49:32Z</time>
  <course>285.17</course>
  <speed>0.6648308055437865</speed>
  <fix>3d</fix>
</trkpt>
<trkpt lat="40.0713671" lon="-105.2298388">
  <ele>1583.0</ele>
  <time>2026-08-28T17:49:32Z</time>
  <course>282.32</course>
  <speed>0.67</speed>
  <fix>3d</fix>
</trkpt>
<trkpt lat="40.0713678" lon="-105.2298419">
  <ele>1583.04</ele>
  <time>2026-08-28T17:49:32Z</time>
  <course>285.84</course>
  <speed>0.6648308055437865</speed>
  <fix>3d</fix>
</trkpt>
<trkpt lat="40.0713674" lon="-105.2298403">
  <ele>1583.0</ele>
  <time>2026-08-28T17:49:32Z</time>
  <course>283.66</course>
  <speed>0.67</speed>
  <fix>3d</fix>
</trkpt>
<trkpt lat="40.071368" lon="-105.2298427">
  <ele>1583.04</ele>
  <time>2026-08-28T17:49:32Z</time>
  <course>286.51</course>
  <speed>0.6580273550544841</speed>
  <fix>3d</fix>
</trkpt>
<trkpt lat="40.0713674" lon="-105.2298403">
  <ele>1583.0</ele>
  <time>2026-08-28T17:49:32Z</time>
  <course>283.66</course>
  <speed>0.67</speed>
  <fix>3d</fix>
</trkpt>
<trkpt lat="40.0713682" lon="-105.2298434">
  <ele>1583.04</ele>
  <time>2026-08-28T17:49:32Z</time>
  <course>287.18</course>
  <speed>0.6609841147864296</speed>
  <fix>3d</fix>
</trkpt>
<trkpt lat="40.0713677" lon="-105.2298418">
  <ele>1583.0</ele>
  <time>2026-08-28T17:49:32Z</time>
  <course>285.0</course>
  <speed>0.67</speed>
  <fix>3d</fix>
</trkpt>
<trkpt lat="40.0713683" lon="-105.2298442">
  <ele>1583.05</ele>
  <time>2026-08-28T17:49:32Z</time>
  <course>287.86</course>
  <speed>0.6640783086353597</speed>
  <fix>3d</fix>
</trkpt>
<trkpt lat="40.0713677" lon="-105.2298418">
  <ele>1583.0</ele>
  <time>2026-08-28T17:49:32Z</time>
  <course>285.0</course>
  <speed>0.67</speed>
  <fix>3d</fix>
</trkpt>
<trkpt lat="40.0713685" lon="-105.2298449">
  <ele>1583.05</ele>
  <time>2026-08-28T17:49:32Z</time>
  <course>288.53</course>
  <speed>0.6640783086353597</speed>
  <fix>3d</fix>
</trkpt>
<trkpt lat="40.071368" lon="-105.2298433">
  <ele>1583.0</ele>
  <time>2026-08-28T17:49:32Z</time>
  <course>286.34</course>
  <speed>0.67</speed>
  <fix>3d</fix>
</trkpt>
<trkpt lat="40.0713687" lon="-105.2298457">
  <ele>1583.05</ele>
  <time>2026-08-28T17:49:32Z</time>
  <course>289.2</course>
  <speed>0.657875368135941</speed>
  <fix>3d</fix>
</trkpt>
<trkpt lat="40.0713684" lon="-105.2298449">
  <ele>1583.0</ele>
  <time>2026-08-28T17:49:32Z</time>
  <course>287.68</course>
  <speed>0.67</speed>
  <fix>3d</fix>
</trkpt>
<trkpt lat="40.0713689" lon="-105.2298464">
  <ele>1583.04</ele>
  <time>2026-08-28T17:49:32Z</time>
  <course>289.88</course>
  <speed>0.6612866246946176</speed>
  <fix>3d</fix>
</trkpt>
<trkpt lat="40.0713684" lon="-105.2298449">
  <ele>1583.0</ele>
  <time>2026-08-28T17:49:32Z</time>
  <course>287.68</course>
  <speed>0.67</speed>
  <fix>3d</fix>
</trkpt>
<trkpt lat="40.0713691" lon="-105.2298472">
  <ele>1583.04</ele>
  <time>2026-08-28T17:49:32Z</time>
  <course>290.55</course>
  <speed>0.6648308055437865</speed>
  <fix>3d</fix>
</trkpt>
<trkpt lat="40.0713688" lon="-105.2298464">
  <ele>1583.0</ele>
  <time>2026-08-28T17:49:32Z</time>
  <course>289.02</course>
  <speed>0.67</speed>
  <fix>3d</fix>
</trkpt>
<trkpt lat="40.0713693" lon="-105.2298479">
  <ele>1583.04</ele>
  <time>2026-08-28T17:49:32Z</time>
  <course>291.21</course>
  <speed>0.6555150646628953</speed>
  <fix>3d</fix>
</trkpt>
<trkpt lat="40.0713688" lon="-105.2298464">
  <ele>1583.0</ele>
  <time>2026-08-28T17:49:32Z</time>
  <course>289.02</course>
  <speed>0.67</speed>
  <fix>3d</fix>
</trkpt>
<trkpt lat="40.0713695" lon="-105.2298487">
  <ele>1583.04</ele>
  <time>2026-08-28T17:49:32Z</time>
  <course>291.89</course>
  <speed>0.6592419889539803</speed>
  <fix>3d</fix>
</trkpt>
<trkpt lat="40.0713691" lon="-105.2298479">
  <ele>1583.0</ele>
  <time>2026-08-28T17:49:32Z</time>
  <course>290.36</course>
  <speed>0.67</speed>
  <fix>3d</fix>
</trkpt>
<trkpt lat="40.0713697" lon="-105.2298494">
  <ele>1583.04</ele>
  <time>2026-08-28T17:49:32Z</time>
  <course>292.56</course>
  <speed>0.6630987860040162</speed>
  <fix>3d</fix>
</trkpt>
<trkpt lat="40.0713691" lon="-105.2298479">
  <ele>1583.0</ele>
  <time>2026-08-28T17:49:32Z</time>
  <course>290.36</course>
  <speed>0.67</speed>
  <fix>3d</fix>
</trkpt>
<trkpt lat="40.07137" lon="-105.2298501">
  <ele>1583.04</ele>
  <time>2026-08-28T17:49:32Z</time>
  <course>293.23</course>
  <speed>0.6630987860040162</speed>
  <fix>3d</fix>
</trkpt>
<trkpt lat="40.0713696" lon="-105.2298494">
  <ele>1583.0</ele>
  <time>2026-08-28T17:49:32Z</time>
  <course>291.7</course>
  <speed>0.67</speed>
  <fix>3d</fix>
</trkpt>
<trkpt lat="40.0713702" lon="-105.2298509">
  <ele>1583.04</ele>
  <time>2026-08-28T17:49:32Z</time>
  <course>293.91</course>
  <speed>0.6579513659838392</speed>
  <fix>3d</fix>
</trkpt>
<trkpt lat="40.0713696" lon="-105.2298494">
  <ele>1583.0</ele>
  <time>2026-08-28T17:49:32Z</time>
  <course>291.7</course>
  <speed>0.67</speed>
  <fix>3d</fix>
</trkpt>
<trkpt lat="40.0713704" lon="-105.2298516">
  <ele>1583.04</ele>
  <time>2026-08-28T17:49:32Z</time>
  <course>294.58</course>
  <speed>0.6621178142898739</speed>
  <fix>3d</fix>
</trkpt>
<trkpt lat="40.0713701" lon="-105.2298509">
  <ele>1583.0</ele>
  <time>2026-08-28T17:49:32Z</time>
  <course>293.04</course>
  <speed>0.67</speed>
  <fix>3d</fix>
</trkpt>
<trkpt lat="40.0713707" lon="-105.2298524">
  <ele>1583.04</ele>
  <time>2026-08-28T17:49:32Z</time>
  <course>295.25</course>
  <speed>0.6664082832618454</speed>
  <fix>3d</fix>
</trkpt>
<trkpt lat="40.0713701" lon="-105.2298509">
  <ele>1583.0</ele>
  <time>2026-08-28T17:49:32Z</time>
  <course>293.04</course>
  <speed>0.67</speed>
  <fix>3d</fix>
</trkpt>
<trkpt lat="40.0713709" lon="-105.2298531">
  <ele>1583.04</ele>
  <time>2026-08-28T17:49:32Z</time>
  <course>295.92</course>
  <speed>0.6574191965557441</speed>
  <fix>3d</fix>
</trkpt>
<trkpt lat="40.0713706" lon="-105.2298523">
  <ele>1583.0</ele>
  <time>2026-08-28T17:49:32Z</time>
  <course>294.39</course>
  <speed>0.67</speed>
  <fix>3d</fix>
</trkpt>
<trkpt lat="40.0713712" lon="-105.2298538">
  <ele>1583.04</ele>
  <time>2026-08-28T17:49:32Z</time>
  <course>296.59</course>
  <speed>0.6618912297349165</speed>
  <fix>3d</fix>
</trkpt>
<trkpt lat="40.0713706" lon="-105.2298523">
  <ele>1583.0</ele>
  <time>2026-08-28T17:49:32Z</time>
  <course>294.39</course>
  <speed>0.67</speed>
  <fix>3d</fix>
</trkpt>
<trkpt lat="40.0713715" lon="-105.2298545">
  <ele>1583.04</ele>
  <time>2026-08-28T17:49:32Z</time>
  <course>297.27</course>
  <speed>0.6664833081180653</speed>
  <fix>3d</fix>
</trkpt>
<trkpt lat="40.0713711" lon="-105.2298538">
  <ele>1583.0</ele>
  <time>2026-08-28T17:49:32Z</time>
  <course>295.73</course>
  <speed>0.67</speed>
  <fix>3d</fix>
</trkpt>
<trkpt lat="40.0713718" lon="-105.2298552">
  <ele>1583.04</ele>
  <time>2026-08-28T17:49:32Z</time>
  <course>297.94</course>
  <speed>0.6624198064671678</speed>
  <fix>3d</fix>
</trkpt>
<trkpt lat="40.0713711" lon="-105.2298538">
  <ele>1583.0</ele>
  <time>2026-08-28T17:49:32Z</time>
  <course>295.73</course>
  <speed>0.67</speed>
  <fix>3d</fix>
</trkpt>
<trkpt lat="40.071372" lon="-105.229856">
  <ele>1583.04</ele>
  <time>2026-08-28T17:49:33Z</time>
  <course>298.61</course>
  <speed>0.6624198064671678</speed>
  <fix>3d</fix>
</trkpt>
<trkpt lat="40.0713711" lon="-105.2298538">
  <ele>1583.0</ele>
  <time>2026-08-28T17:49:33Z</time>
  <course>295.73</course>
  <speed>0.67</speed>
  <fix>3d</fix>
</trkpt>
<trkpt lat="40.0713723" lon="-105.2298567">
  <ele>1583.04</ele>
  <time>2026-08-28T17:49:33Z</time>
  <course>299.28</course>
  <speed>0.6673080248281148</speed>
  <fix>3d</fix>
</trkpt>
<trkpt lat="40.0713716" lon="-105.2298552">
  <ele>1583.0</ele>
  <time>2026-08-28T17:49:33Z</time>
  <course>297.07</course>
  <speed>0.67</speed>
  <fix>3d</fix>
</trkpt>
<trkpt lat="40.0713726" lon="-105.2298573">
  <ele>1583.04</ele>
  <time>2026-08-28T17:49:33Z</time>
  <course>299.96</course>
  <speed>0.6637017402418047</speed>
  <fix>3d</fix>
</trkpt>
<trkpt lat="40.0713716" lon="-105.2298552">
  <ele>1583.0</ele>
  <time>2026-08-28T17:49:33Z</time>
  <course>297.07</course>
  <speed>0.67</speed>
  <fix>3d</fix>
</trkpt>
<trkpt lat="40.0713729" lon="-105.229858">
  <ele>1583.05</ele>
  <time>2026-08-28T17:49:33Z</time>
  <course>300.63</course>
  <speed>0.6637017402418047</speed>
  <fix>3d</fix>
</trkpt>
<trkpt lat="40.0713722" lon="-105.2298565">
  <ele>1583.0</ele>
  <time>2026-08-28T17:49:33Z</time>
  <course>298.42</course>
  <speed>0.67</speed>
  <fix>3d</fix>
</trkpt>
<trkpt lat="40.0713732" lon="-105.2298587">
  <ele>1583.05</ele>
  <time>2026-08-28T17:49:33Z</time>
  <course>301.3</course>
  <speed>0.6603786792439622</speed>
  <fix>3d</fix>
</trkpt>
<trkpt lat="40.0713722" lon="-105.2298565">
  <ele>1583.0</ele>
  <time>2026-08-28T17:49:33Z</time>
  <course>298.42</course>
  <speed>0.67</speed>
  <fix>3d</fix>
</trkpt>
<trkpt lat="40.0713735" lon="-105.2298594">
  <ele>1583.05</ele>
  <time>2026-08-28T17:49:33Z</time>
  <course>301.97</course>
  <speed>0.6657326790837296</speed>
  <fix>3d</fix>
</trkpt>
<trkpt lat="40.0713727" lon="-105.2298579">
  <ele>1583.0</ele>
  <time>2026-08-28T17:49:33Z</time>
  <course>299.76</course>
  <speed>0.67</speed>
  <fix>3d</fix>
</trkpt>
<trkpt lat="40.0713738" lon="-105.22986">
  <ele>1583.05</ele>
  <time>2026-08-28T17:49:33Z</time>
  <course>302.65</course>
  <speed>0.6573431371817918</speed>
  <fix>3d</fix>
</trkpt>
<trkpt lat="40.0713727" lon="-105.2298579">
  <ele>1583.0</ele>
  <time>2026-08-28T17:49:33Z</time>
  <course>299.76</course>
  <speed>0.67</speed>
  <fix>3d</fix>
</trkpt>
<trkpt lat="40.0713742" lon="-105.2298607">
  <ele>1583.05</ele>
  <time>2026-08-28T17:49:33Z</time>
  <course>303.32</course>
  <speed>0.662872536767062</speed>
  <fix>3d</fix>
</trkpt>
<trkpt lat="40.0713734" lon="-105.2298594">
  <ele>1583.0</ele>
  <time>2026-08-28T17:49:33Z</time>
  <course>301.1</course>
  <speed>0.67</speed>
  <fix>3d</fix>
</trkpt>
<trkpt lat="40.0713745" lon="-105.2298614">
  <ele>1583.05</ele>
  <time>2026-08-28T17:49:33Z</time>
  <course>304.0</course>
  <speed>0.660302960768767</speed>
  <fix>3d</fix>
</trkpt>
<trkpt lat="40.0713741" lon="-105.2298607">
  <ele>1583.0</ele>
  <time>2026-08-28T17:49:33Z</time>
  <course>302.44</course>
  <speed>0.67</speed>
  <fix>3d</fix>
</trkpt>
<trkpt lat="40.0713748" lon="-105.229862">
  <ele>1583.05</ele>
  <time>2026-08-28T17:49:33Z</time>
  <course>304.67</course>
  <speed>0.660302960768767</speed>
  <fix>3d</fix>
</trkpt>
<trkpt lat="40.0713741" lon="-105.2298607">
  <ele>1583.0</ele>
  <time>2026-08-28T17:49:33Z</time>
  <course>302.44</course>
  <speed>0.67</speed>
  <fix>3d</fix>
</trkpt>
<trkpt lat="40.0713752" lon="-105.2298627">
  <ele>1583.05</ele>
  <time>2026-08-28T17:49:33Z</time>
  <course>305.34</course>
  <speed>0.6661080993352355</speed>
  <fix>3d</fix>
</trkpt>
<trkpt lat="40.0713747" lon="-105.229862">
  <ele>1583.0</ele>
  <time>2026-08-28T17:49:33Z</time>
  <course>303.79</course>
  <speed>0.67</speed>
  <fix>3d</fix>
</trkpt>
<trkpt lat="40.0713755" lon="-105.2298633">
  <ele>1583.04</ele>
  <time>2026-08-28T17:49:33Z</time>
  <course>306.01</course>
  <speed>0.6640030120413611</speed>
  <fix>3d</fix>
</trkpt>
<trkpt lat="40.0713747" lon="-105.229862">
  <ele>1583.0</ele>
  <time>2026-08-28T17:49:33Z</time>
  <course>303.79</course>
  <speed>0.67</speed>
  <fix>3d</fix>
</trkpt>
<trkpt lat="40.0713759" lon="-105.229864">
  <ele>1583.04</ele>
  <time>2026-08-28T17:49:33Z</time>
  <course>306.68</course>
  <speed>0.6640030120413611</speed>
  <fix>3d</fix>
</trkpt>
<trkpt lat="40.0713754" lon="-105.2298634">
  <ele>1583.0</ele>
  <time>2026-08-28T17:49:33Z</time>
  <course>305.13</course>
  <speed>0.67</speed>
  <fix>3d</fix>
</trkpt>
<trkpt lat="40.0713762" lon="-105.2298646">
  <ele>1583.04</ele>
  <time>2026-08-28T17:49:33Z</time>
  <course>307.35</course>
  <speed>0.6621933252457322</speed>
  <fix>3d</fix>
</trkpt>
<trkpt lat="40.0713754" lon="-105.2298634">
  <ele>1583.0</ele>
  <time>2026-08-28T17:49:33Z</time>
  <course>305.13</course>
  <speed>0.67</speed>
  <fix>3d</fix>
</trkpt>
<trkpt lat="40.0713766" lon="-105.2298653">
  <ele>1583.04</ele>
  <time>2026-08-28T17:49:33Z</time>
  <course>308.03</course>
  <speed>0.6621933252457322</speed>
  <fix>3d</fix>
</trkpt>
<trkpt lat="40.0713761" lon="-105.2298647">
  <ele>1583.0</ele>
  <time>2026-08-28T17:49:33Z</time>
  <course>306.47</course>
  <speed>0.67</speed>
  <fix>3d</fix>
</trkpt>
<trkpt lat="40.071377" lon="-105.2298659">
  <ele>1583.04</ele>
  <time>2026-08-28T17:49:33Z</time>
  <course>308.71</course>
  <speed>0.6606814663663572</speed>
  <fix>3d</fix>
</trkpt>
<trkpt lat="40.0713761" lon="-105.2298647">
  <ele>1583.0</ele>
  <time>2026-08-28T17:49:33Z</time>
  <course>306.47</course>
  <speed>0.67</speed>
  <fix>3d</fix>
</trkpt>
<trkpt lat="40.0713774" lon="-105.2298665">
  <ele>1583.03</ele>
  <time>2026-08-28T17:49:33Z</time>
  <course>309.38</course>
  <speed>0.6670832032063168</speed>
  <fix>3d</fix>
</trkpt>
<trkpt lat="40.0713769" lon="-105.2298659">
  <ele>1583.0</ele>
  <time>2026-08-28T17:49:33Z</time>
  <course>307.82</course>
  <speed>0.67</speed>
  <fix>3d</fix>
</trkpt>
<trkpt lat="40.0713778" lon="-105.2298671">
  <ele>1583.03</ele>
  <time>2026-08-28T17:49:33Z</time>
  <course>310.05</course>
  <speed>0.6594694837519018</speed>
  <fix>3d</fix>
</trkpt>
<trkpt lat="40.0713769" lon="-105.2298659">
  <ele>1583.0</ele>
  <time>2026-08-28T17:49:33Z</time>
  <course>307.82</course>
  <speed>0.67</speed>
  <fix>3d</fix>
</trkpt>
<trkpt lat="40.0713781" lon="-105.2298678">
  <ele>1583.03</ele>
  <time>2026-08-28T17:49:33Z</time>
  <course>310.72</course>
  <speed>0.6660330322138686</speed>
  <fix>3d</fix>
</trkpt>
<trkpt lat="40.0713776" lon="-105.2298672">
  <ele>1583.0</ele>
  <time>2026-08-28T17:49:33Z</time>
  <course>309.16</course>
  <speed>0.67</speed>
  <fix>3d</fix>
</trkpt>
<trkpt lat="40.0713785" lon="-105.2298684">
  <ele>1583.03</ele>
  <time>2026-08-28T17:49:33Z</time>
  <course>311.39</course>
  <speed>0.6585590330410782</speed>
  <fix>3d</fix>
</trkpt>
<trkpt lat="40.0713776" lon="-105.2298672">
  <ele>1583.0</ele>
  <time>2026-08-28T17:49:33Z</time>
  <course>309.16</course>
  <speed>0.67</speed>
  <fix>3d</fix>
</trkpt>
<trkpt lat="40.0713789" lon="-105.229869">
  <ele>1583.03</ele>
  <time>2026-08-28T17:49:33Z</time>
  <course>312.06</course>
  <speed>0.6579513659838392</speed>
  <fix>3d</fix>
</trkpt>
<trkpt lat="40.0713784" lon="-105.2298684">
  <ele>1583.0</ele>
  <time>2026-08-28T17:49:33Z</time>
  <course>310.5</course>
  <speed>0.67</speed>
  <fix>3d</fix>
</trkpt>
<trkpt lat="40.0713793" lon="-105.2298696">
  <ele>1583.03</ele>
  <time>2026-08-28T17:49:33Z</time>
  <course>312.73</course>
  <speed>0.6648308055437865</speed>
  <fix>3d</fix>
</trkpt>
<trkpt lat="40.0713784" lon="-105.2298684">
  <ele>1583.0</ele>
  <time>2026-08-28T17:49:33Z</time>
  <course>310.5</course>
  <speed>0.67</speed>
  <fix>3d</fix>
</trkpt>
<trkpt lat="40.0713798" lon="-105.2298702">
  <ele>1583.03</ele>
  <time>2026-08-28T17:49:33Z</time>
  <course>313.4</course>
  <speed>0.6576473218982953</speed>
  <fix>3d</fix>
</trkpt>
<trkpt lat="40.0713784" lon="-105.2298684">
  <ele>1583.0</ele>
  <time>2026-08-28T17:49:33Z</time>
  <course>310.5</course>
  <speed>0.67</speed>
  <fix>3d</fix>
</trkpt>
<trkpt lat="40.0713802" lon="-105.2298707">
  <ele>1583.03</ele>
  <time>2026-08-28T17:49:33Z</time>
  <course>314.07</course>
  <speed>0.6646803743153546</speed>
  <fix>3d</fix>
</trkpt>
<trkpt lat="40.0713791" lon="-105.2298696">
  <ele>1583.0</ele>
  <time>2026-08-28T17:49:33Z</time>
  <course>311.84</course>
  <speed>0.67</speed>
  <fix>3d</fix>
</trkpt>
<trkpt lat="40.0713806" lon="-105.2298713">
  <ele>1583.03</ele>
  <time>2026-08-28T17:49:33Z</time>
  <course>314.74</course>
  <speed>0.6576473218982953</speed>
  <fix>3d</fix>
</trkpt>
<trkpt lat="40.0713791" lon="-105.2298696">
  <ele>1583.0</ele>
  <time>2026-08-28T17:49:33Z</time>
  <course>311.84</course>
  <speed>0.67</speed>
  <fix>3d</fix>
</trkpt>
<trkpt lat="40.071381" lon="-105.2298719">
  <ele>1583.03</ele>
  <time>2026-08-28T17:49:33Z</time>
  <course>315.4</course>
  <speed>0.6648308055437865</speed>
  <fix>3d</fix>
</trkpt>
<trkpt lat="40.07138" lon="-105.2298707">
  <ele>1583.0</ele>
  <time>2026-08-28T17:49:33Z</time>
  <course>313.17</course>
  <speed>0.67</speed>
  <fix>3d</fix>
</trkpt>
<trkpt lat="40.0713814" lon="-105.2298724">
  <ele>1583.03</ele>
  <time>2026-08-28T17:49:33Z</time>
  <course>316.07</course>
  <speed>0.6579513659838392</speed>
  <fix>3d</fix>
</trkpt>
<trkpt lat="40.07138" lon="-105.2298707">
  <ele>1583.0</ele>
  <time>2026-08-28T17:49:33Z</time>
  <course>313.17</course>
  <speed>0.67</speed>
  <fix>3d</fix>
</trkpt>
<trkpt lat="40.0713818" lon="-105.229873">
  <ele>1583.03</ele>
  <time>2026-08-28T17:49:33Z</time>
  <course>316.74</course>
  <speed>0.6652818951391959</speed>
  <fix>3d</fix>
</trkpt>
<trkpt lat="40.0713808" lon="-105.2298719">
  <ele>1583.0</ele>
  <time>2026-08-28T17:49:33Z</time>
  <course>314.51</course>
  <speed>0.67</speed>
  <fix>3d</fix>
</trkpt>
<trkpt lat="40.0713823" lon="-105.2298735">
  <ele>1583.03</ele>
  <time>2026-08-28T17:49:33Z</time>
  <course>317.42</course>
  <speed>0.6585590330410782</speed>
  <fix>3d</fix>
</trkpt>
<trkpt lat="40.0713817" lon="-105.229873">
  <ele>1583.0</ele>
  <time>2026-08-28T17:49:33Z</time>
  <course>315.85</course>
  <speed>0.67</speed>
  <fix>3d</fix>
</trkpt>
<trkpt lat="40.0713827" lon="-105.229874">
  <ele>1583.03</ele>
  <time>2026-08-28T17:49:33Z</time>
  <course>318.09</course>
  <speed>0.6594694837519018</speed>
  <fix>3d</fix>
</trkpt>
<trkpt lat="40.0713817" lon="-105.229873">
  <ele>1583.0</ele>
  <time>2026-08-28T17:49:33Z</time>
  <course>315.85</course>
  <speed>0.67</speed>
  <fix>3d</fix>
</trkpt>
<trkpt lat="40.0713832" lon="-105.2298746">
  <ele>1583.03</ele>
  <time>2026-08-28T17:49:33Z</time>
  <course>318.76</course>
  <speed>0.6594694837519018</speed>
  <fix>3d</fix>
</trkpt>
<trkpt lat="40.0713826" lon="-105.2298741">
  <ele>1583.0</ele>
  <time>2026-08-28T17:49:33Z</time>
  <course>317.18</course>
  <speed>0.67</speed>
  <fix>3d</fix>
</trkpt>
<trkpt lat="40.0713836" lon="-105.2298751">
  <ele>1583.02</ele>
  <time>2026-08-28T17:49:33Z</time>
  <course>319.42</course>
  <speed>0.6606814663663572</speed>
  <fix>3d</fix>
</trkpt>
<trkpt lat="40.0713826" lon="-105.2298741">
  <ele>1583.0</ele>
  <time>2026-08-28T17:49:33Z</time>
  <course>317.18</course>
  <speed>0.67</speed>
  <fix>3d</fix>
</trkpt>
<trkpt lat="40.0713841" lon="-105.2298756">
  <ele>1583.02</ele>
  <time>2026-08-28T17:49:33Z</time>
  <course>320.09</course>
  <speed>0.6606814663663572</speed>
  <fix>3d</fix>
</trkpt>
<trkpt lat="40.0713835" lon="-105.2298752">
  <ele>1583.0</ele>
  <time>2026-08-28T17:49:33Z</time>
  <course>318.52</course>
  <speed>0.67</speed>
  <fix>3d</fix>
</trkpt>
<trkpt lat="40.0713845" lon="-105.2298761">
  <ele>1583.02</ele>
  <time>2026-08-28T17:49:33Z</time>
  <course>320.76</course>
  <speed>0.6621933252457322</speed>
  <fix>3d</fix>
</trkpt>
<trkpt lat="40.0713835" lon="-105.2298752">
  <ele>1583.0</ele>
  <time>2026-08-28T17:49:33Z</time>
  <course>318.52</course>
  <speed>0.67</speed>
  <fix>3d</fix>
</trkpt>
<trkpt lat="40.071385" lon="-105.2298766">
  <ele>1583.02</ele>
  <time>2026-08-28T17:49:33Z</time>
  <course>321.43</course>
  <speed>0.656048778674269</speed>
  <fix>3d</fix>
</trkpt>
<trkpt lat="40.0713844" lon="-105.2298763">
  <ele>1583.0</ele>
  <time>2026-08-28T17:49:33Z</time>
  <course>319.86</course>
  <speed>0.67</speed>
  <fix>3d</fix>
</trkpt>
<trkpt lat="40.0713855" lon="-105.2298771">
  <ele>1583.02</ele>
  <time>2026-08-28T17:49:33Z</time>
  <course>322.1</course>
  <speed>0.6640030120413611</speed>
  <fix>3d</fix>
</trkpt>
<trkpt lat="40.0713844" lon="-105.2298763">
  <ele>1583.0</ele>
  <time>2026-08-28T17:49:33Z</time>
  <course>319.86</course>
  <speed>0.67</speed>
  <fix>3d</fix>
</trkpt>
<trkpt lat="40.071386" lon="-105.2298776">
  <ele>1583.02</ele>
  <time>2026-08-28T17:49:33Z</time>
  <course>322.77</course>
  <speed>0.6580273550544841</speed>
  <fix>3d</fix>
</trkpt>
<trkpt lat="40.0713853" lon="-105.2298773">
  <ele>1583.0</ele>
  <time>2026-08-28T17:49:33Z</time>
  <course>321.19</course>
  <speed>0.67</speed>
  <fix>3d</fix>
</trkpt>
<trkpt lat="40.0713864" lon="-105.2298781">
  <ele>1583.01</ele>
  <time>2026-08-28T17:49:33Z</time>
  <course>323.44</course>
  <speed>0.660302960768767</speed>
  <fix>3d</fix>
</trkpt>
<trkpt lat="40.0713853" lon="-105.2298773">
  <ele>1583.0</ele>
  <time>2026-08-28T17:49:33Z</time>
  <course>321.19</course>
  <speed>0.67</speed>
  <fix>3d</fix>
</trkpt>
<trkpt lat="40.0713869" lon="-105.2298786">
  <ele>1583.01</ele>
  <time>2026-08-28T17:49:33Z</time>
  <course>324.11</course>
  <speed>0.660302960768767</speed>
  <fix>3d</fix>
</trkpt>
<trkpt lat="40.0713863" lon="-105.2298782">
  <ele>1583.0</ele>
  <time>2026-08-28T17:49:33Z</time>
  <course>322.53</course>
  <speed>0.67</speed>
  <fix>3d</fix>
</trkpt>
<trkpt lat="40.0713874" lon="-105.2298791">
  <ele>1583.01</ele>
  <time>2026-08-28T17:49:33Z</time>
  <course>324.78</course>
  <speed>0.6545991139621257</speed>
  <fix>3d</fix>
</trkpt>
<trkpt lat="40.0713863" lon="-105.2298782">
  <ele>1583.0</ele>
  <time>2026-08-28T17:49:33Z</time>
  <course>322.53</course>
  <speed>0.67</speed>
  <fix>3d</fix>
</trkpt>
<trkpt lat="40.0713879" lon="-105.2298795">
  <ele>1583.01</ele>
  <time>2026-08-28T17:49:33Z</time>
  <course>325.44</course>
  <speed>0.662872536767062</speed>
  <fix>3d</fix>
</trkpt>
<trkpt lat="40.0713873" lon="-105.2298792">
  <ele>1583.0</ele>
  <time>2026-08-28T17:49:33Z</time>
  <course>323.86</course>
  <speed>0.67</speed>
  <fix>3d</fix>
</trkpt>
<trkpt lat="40.0713884" lon="-105.22988">
  <ele>1583.01</ele>
  <time>2026-08-28T17:49:33Z</time>
  <course>326.11</course>
  <speed>0.6573431371817918</speed>
  <fix>3d</fix>
</trkpt>
<trkpt lat="40.0713873" lon="-105.2298792">
  <ele>1583.0</ele>
  <time>2026-08-28T17:49:33Z</time>
  <course>323.86</course>
  <speed>0.67</speed>
  <fix>3d</fix>
</trkpt>
<trkpt lat="40.0713889" lon="-105.2298805">
  <ele>1583.01</ele>
  <time>2026-08-28T17:49:33Z</time>
  <course>326.78</course>
  <speed>0.6603786792439622</speed>
  <fix>3d</fix>
</trkpt>
<trkpt lat="40.0713873" lon="-105.2298792">
  <ele>1583.0</ele>
  <time>2026-08-28T17:49:33Z</time>
  <course>323.86</course>
  <speed>0.67</speed>
  <fix>3d</fix>
</trkpt>
<trkpt lat="40.0713894" lon="-105.2298809">
  <ele>1583.01</ele>
  <time>2026-08-28T17:49:33Z</time>
  <course>327.45</course>
  <speed>0.6603786792439622</speed>
  <fix>3d</fix>
</trkpt>
<trkpt lat="40.0713882" lon="-105.2298801">
  <ele>1583.0</ele>
  <time>2026-08-28T17:49:33Z</time>
  <course>325.19</course>
  <speed>0.67</speed>
  <fix>3d</fix>
</trkpt>
<trkpt lat="40.0713899" lon="-105.2298813">
  <ele>1583.01</ele>
  <time>2026-08-28T17:49:33Z</time>
  <course>328.11</course>
  <speed>0.6637017402418047</speed>
  <fix>3d</fix>
</trkpt>
<trkpt lat="40.0713882" lon="-105.2298801">
  <ele>1583.0</ele>
  <time>2026-08-28T17:49:33Z</time>
  <course>325.19</course>
  <speed>0.67</speed>
  <fix>3d</fix>
</trkpt>
<trkpt lat="40.0713904" lon="-105.2298817">
  <ele>1583.01</ele>
  <time>2026-08-28T17:49:33Z</time>
  <course>328.78</course>
  <speed>0.6586349520030045</speed>
  <fix>3d</fix>
</trkpt>
<trkpt lat="40.0713893" lon="-105.229881">
  <ele>1583.0</ele>
  <time>2026-08-28T17:49:33Z</time>
  <course>326.53</course>
  <speed>0.67</speed>
  <fix>3d</fix>
</trkpt>
<trkpt lat="40.0713909" lon="-105.2298821">
  <ele>1583.01</ele>
  <time>2026-08-28T17:49:33Z</time>
  <course>329.45</course>
  <speed>0.6586349520030045</speed>
  <fix>3d</fix>
</trkpt>
<trkpt lat="40.0713893" lon="-105.229881">
  <ele>1583.0</ele>
  <time>2026-08-28T17:49:33Z</time>
  <course>326.53</course>
  <speed>0.67</speed>
  <fix>3d</fix>
</trkpt>
<trkpt lat="40.0713914" lon="-105.2298826">
  <ele>1583.01</ele>
  <time>2026-08-28T17:49:33Z</time>
  <course>330.12</course>
  <speed>0.6624198064671678</speed>
  <fix>3d</fix>
</trkpt>
<trkpt lat="40.0713903" lon="-105.2298819">
  <ele>1583.0</ele>
  <time>2026-08-28T17:49:33Z</time>
  <course>327.86</course>
  <speed>0.67</speed>
  <fix>3d</fix>
</trkpt>
<trkpt lat="40.071392" lon="-105.229883">
  <ele>1583.0</ele>
  <time>2026-08-28T17:49:33Z</time>
  <course>330.78</course>
  <speed>0.6576473218982953</speed>
  <fix>3d</fix>
</trkpt>
<trkpt lat="40.0713903" lon="-105.2298819">
  <ele>1583.0</ele>
  <time>2026-08-28T17:49:33Z</time>
  <course>327.86</course>
  <speed>0.67</speed>
  <fix>3d</fix>
</trkpt>
<trkpt lat="40.0713925" lon="-105.2298833">
  <ele>1583.0</ele>
  <time>2026-08-28T17:49:33Z</time>
  <course>331.46</course>
  <speed>0.6576473218982953</speed>
  <fix>3d</fix>
</trkpt>
<trkpt lat="40.0713913" lon="-105.2298826">
  <ele>1583.0</ele>
  <time>2026-08-28T17:49:33Z</time>
  <course>329.2</course>
  <speed>0.67</speed>
  <fix>3d</fix>
</trkpt>
<trkpt lat="40.071393" lon="-105.2298837">
  <ele>1583.0</ele>
  <time>2026-08-28T17:49:33Z</time>
  <course>332.13</course>
  <speed>0.6618912297349165</speed>
  <fix>3d</fix>
</trkpt>
<trkpt lat="40.0713923" lon="-105.2298835">
  <ele>1583.0</ele>
  <time>2026-08-28T17:49:33Z</time>
  <course>330.53</course>
  <speed>0.67</speed>
  <fix>3d</fix>
</trkpt>
<trkpt lat="40.0713935" lon="-105.2298841">
  <ele>1583.0</ele>
  <time>2026-08-28T17:49:33Z</time>
  <course>332.8</course>
  <speed>0.6574191965557441</speed>
  <fix>3d</fix>
</trkpt>
<trkpt lat="40.0713923" lon="-105.2298835">
  <ele>1583.0</ele>
  <time>2026-08-28T17:49:33Z</time>
  <course>330.53</course>
  <speed>0.67</speed>
  <fix>3d</fix>
</trkpt>
<trkpt lat="40.0713941" lon="-105.2298845">
  <ele>1583.0</ele>
  <time>2026-08-28T17:49:33Z</time>
  <course>333.46</course>
  <speed>0.6621178142898739</speed>
  <fix>3d</fix>
</trkpt>
<trkpt lat="40.0713934" lon="-105.2298842">
  <ele>1583.0</ele>
  <time>2026-08-28T17:49:33Z</time>
  <course>331.87</course>
  <speed>0.67</speed>
  <fix>3d</fix>
</trkpt>
<trkpt lat="40.0713946" lon="-105.2298848">
  <ele>1583.0</ele>
  <time>2026-08-28T17:49:33Z</time>
  <course>334.13</course>
  <speed>0.6621178142898739</speed>
  <fix>3d</fix>
</trkpt>
<trkpt lat="40.0713934" lon="-105.2298842">
  <ele>1583.0</ele>
  <time>2026-08-28T17:49:33Z</time>
  <course>331.87</course>
  <speed>0.67</speed>
  <fix>3d</fix>
</trkpt>
<trkpt lat="40.0713952" lon="-105.2298852">
  <ele>1583.0</ele>
  <time>2026-08-28T17:49:33Z</time>
  <course>334.8</course>
  <speed>0.6579513659838392</speed>
  <fix>3d</fix>
</trkpt>
<trkpt lat="40.0713945" lon="-105.229885">
  <ele>1583.0</ele>
  <time>2026-08-28T17:49:33Z</time>
  <course>333.2</course>
  <speed>0.67</speed>
  <fix>3d</fix>
</trkpt>
<trkpt lat="40.0713957" lon="-105.2298855">
  <ele>1583.0</ele>
  <time>2026-08-28T17:49:33Z</time>
  <course>335.47</course>
  <speed>0.6630987860040162</speed>
  <fix>3d</fix>
</trkpt>
<trkpt lat="40.0713945" lon="-105.229885">
  <ele>1583.0</ele>
  <time>2026-08-28T17:49:33Z</time>
  <course>333.2</course>
  <speed>0.67</speed>
  <fix>3d</fix>
</trkpt>
<trkpt lat="40.0713963" lon="-105.2298858">
  <ele>1583.0</ele>
  <time>2026-08-28T17:49:33Z</time>
  <course>336.15</course>
  <speed>0.6630987860040162</speed>
  <fix>3d</fix>
</trkpt>
<trkpt lat="40.0713956" lon="-105.2298857">
  <ele>1583.0</ele>
  <time>2026-08-28T17:49:33Z</time>
  <course>334.54</course>
  <speed>0.67</speed>
  <fix>3d</fix>
</trkpt>
<trkpt lat="40.0713968" lon="-105.2298862">
  <ele>1583.0</ele>
  <time>2026-08-28T17:49:33Z</time>
  <course>336.81</course>
  <speed>0.6592419889539803</speed>
  <fix>3d</fix>
</trkpt>
<trkpt lat="40.0713956" lon="-105.2298857">
  <ele>1583.0</ele>
  <time>2026-08-28T17:49:33Z</time>
  <course>334.54</course>
  <speed>0.67</speed>
  <fix>3d</fix>
</trkpt>
<trkpt lat="40.0713974" lon="-105.2298865">
  <ele>1583.0</ele>
  <time>2026-08-28T17:49:33Z</time>
  <course>337.48</course>
  <speed>0.6555150646628953</speed>
  <fix>3d</fix>
</trkpt>
<trkpt lat="40.0713967" lon="-105.2298863">
  <ele>1583.0</ele>
  <time>2026-08-28T17:49:33Z</time>
  <course>335.88</course>
  <speed>0.67</speed>
  <fix>3d</fix>
</trkpt>
<trkpt lat="40.0713979" lon="-105.2298868">
  <ele>1583.0</ele>
  <time>2026-08-28T17:49:33Z</time>
  <course>338.15</course>
  <speed>0.6612866246946176</speed>
  <fix>3d</fix>
</trkpt>
<trkpt lat="40.0713967" lon="-105.2298863">
  <ele>1583.0</ele>
  <time>2026-08-28T17:49:33Z</time>
  <course>335.88</course>
  <speed>0.67</speed>
  <fix>3d</fix>
</trkpt>
<trkpt lat="40.0713985" lon="-105.2298871">
  <ele>1583.0</ele>
  <time>2026-08-28T17:49:33Z</time>
  <course>338.82</course>
  <speed>0.6612866246946176</speed>
  <fix>3d</fix>
</trkpt>
<trkpt lat="40.0713978" lon="-105.2298869">
  <ele>1583.0</ele>
  <time>2026-08-28T17:49:33Z</time>
  <course>337.21</course>
  <speed>0.67</speed>
  <fix>3d</fix>
</trkpt>
<trkpt lat="40.0713991" lon="-105.2298874">
  <ele>1583.0</ele>
  <time>2026-08-28T17:49:33Z</time>
  <course>339.49</course>
  <speed>0.657875368135941</speed>
  <fix>3d</fix>
</trkpt>
<trkpt lat="40.0713978" lon="-105.2298869">
  <ele>1583.0</ele>
  <time>2026-08-28T17:49:33Z</time>
  <course>337.21</course>
  <speed>0.67</speed>
  <fix>3d</fix>
</trkpt>
<trkpt lat="40.0713996" lon="-105.2298877">
  <ele>1583.0</ele>
  <time>2026-08-28T17:49:33Z</time>
  <course>340.16</course>
  <speed>0.6640783086353597</speed>
  <fix>3d</fix>
</trkpt>
<trkpt lat="40.0713978" lon="-105.2298869">
  <ele>1583.0</ele>
  <time>2026-08-28T17:49:33Z</time>
  <course>337.21</course>
  <speed>0.67</speed>
  <fix>3d</fix>
</trkpt>
<trkpt lat="40.0714002" lon="-105.229888">
  <ele>1583.0</ele>
  <time>2026-08-28T17:49:33Z</time>
  <course>340.83</course>
  <speed>0.6609841147864296</speed>
  <fix>3d</fix>
</trkpt>
<trkpt lat="40.071399" lon="-105.2298876">
  <ele>1583.0</ele>
  <time>2026-08-28T17:49:33Z</time>
  <course>338.55</course>
  <speed>0.67</speed>
  <fix>3d</fix>
</trkpt>
<trkpt lat="40.0714008" lon="-105.2298882">
  <ele>1582.99</ele>
  <time>2026-08-28T17:49:33Z</time>
  <course>341.5</course>
  <speed>0.6609841147864296</speed>
  <fix>3d</fix>
</trkpt>
<trkpt lat="40.071399" lon="-105.2298876">
  <ele>1583.0</ele>
  <time>2026-08-28T17:49:33Z</time>
  <course>338.55</course>
  <speed>0.67</speed>
  <fix>3d</fix>
</trkpt>
<trkpt lat="40.0714013" lon="-105.2298885">
  <ele>1582.99</ele>
  <time>2026-08-28T17:49:33Z</time>
  <course>342.17</course>
  <speed>0.6580273550544841</speed>
  <fix>3d</fix>
</trkpt>
<trkpt lat="40.0714001" lon="-105.2298881">
  <ele>1583.0</ele>
  <time>2026-08-28T17:49:33Z</time>
  <course>339.89</course>
  <speed>0.67</speed>
  <fix>3d</fix>
</trkpt>
<trkpt lat="40.0714019" lon="-105.2298887">
  <ele>1582.99</ele>
  <time>2026-08-28T17:49:33Z</time>
  <course>342.83</course>
  <speed>0.6552098900352467</speed>
  <fix>3d</fix>
</trkpt>
<trkpt lat="40.0714001" lon="-105.2298881">
  <ele>1583.0</ele>
  <time>2026-08-28T17:49:33Z</time>
  <course>339.89</course>
  <speed>0.67</speed>
  <fix>3d</fix>
</trkpt>
<trkpt lat="40.0714025" lon="-105.2298889">
  <ele>1582.99</ele>
  <time>2026-08-28T17:49:33Z</time>
  <course>343.5</course>
  <speed>0.6621933252457322</speed>
  <fix>3d</fix>
</trkpt>
<trkpt lat="40.0714012" lon="-105.2298886">
  <ele>1583.0</ele>
  <time>2026-08-28T17:49:33Z</time>
  <course>341.22</course>
  <speed>0.67</speed>
  <fix>3d</fix>
</trkpt>
<trkpt lat="40.0714031" lon="-105.2298892">
  <ele>1582.99</ele>
  <time>2026-08-28T17:49:33Z</time>
  <course>344.17</course>
  <speed>0.6621933252457322</speed>
  <fix>3d</fix>
</trkpt>
<trkpt lat="40.0714012" lon="-105.2298886">
  <ele>1583.0</ele>
  <time>2026-08-28T17:49:33Z</time>
  <course>341.22</course>
  <speed>0.67</speed>
  <fix>3d</fix>
</trkpt>
<trkpt lat="40.0714036" lon="-105.2298894">
  <ele>1582.99</ele>
  <time>2026-08-28T17:49:33Z</time>
  <course>344.84</course>
  <speed>0.6596969000988256</speed>
  <fix>3d</fix>
</trkpt>
<trkpt lat="40.0714023" lon="-105.2298891">
  <ele>1583.0</ele>
  <time>2026-08-28T17:49:33Z</time>
  <course>342.56</course>
  <speed>0.67</speed>
  <fix>3d</fix>
</trkpt>
<trkpt lat="40.0714042" lon="-105.2298896">
  <ele>1582.98</ele>
  <time>2026-08-28T17:49:33Z</time>
  <course>345.5</course>
  <speed>0.6573431371817918</speed>
  <fix>3d</fix>
</trkpt>
<trkpt lat="40.0714035" lon="-105.2298895">
  <ele>1583.0</ele>
  <time>2026-08-28T17:49:33Z</time>
  <course>343.89</course>
  <speed>0.67</speed>
  <fix>3d</fix>
</trkpt>
<trkpt lat="40.0714048" lon="-105.2298898">
  <ele>1582.98</ele>
  <time>2026-08-28T17:49:33Z</time>
  <course>346.16</course>
  <speed>0.655133574166368</speed>
  <fix>3d</fix>
</trkpt>
<trkpt lat="40.0714035" lon="-105.2298895">
  <ele>1583.0</ele>
  <time>2026-08-28T17:49:33Z</time>
  <course>343.89</course>
  <speed>0.67</speed>
  <fix>3d</fix>
</trkpt>
<trkpt lat="40.0714054" lon="-105.22989">
  <ele>1582.98</ele>
  <time>2026-08-28T17:49:33Z</time>
  <course>346.82</course>
  <speed>0.6649060083951716</speed>
  <fix>3d</fix>
</trkpt>
<trkpt lat="40.0714047" lon="-105.22989">
  <ele>1583.0</ele>
  <time>2026-08-28T17:49:33Z</time>
  <course>345.21</course>
  <speed>0.67</speed>
  <fix>3d</fix>
</trkpt>
<trkpt lat="40.071406" lon="-105.2298902">
  <ele>1582.98</ele>
  <time>2026-08-28T17:49:33Z</time>
  <course>347.48</course>
  <speed>0.662872536767062</speed>
  <fix>3d</fix>
</trkpt>
<trkpt lat="40.0714047" lon="-105.22989">
  <ele>1583.0</ele>
  <time>2026-08-28T17:49:33Z</time>
  <course>345.21</course>
  <speed>0.67</speed>
  <fix>3d</fix>
</trkpt>
<trkpt lat="40.0714066" lon="-105.2298903">
  <ele>1582.98</ele>
  <time>2026-08-28T17:49:33Z</time>
  <course>348.14</course>
  <speed>0.6609841147864296</speed>
  <fix>3d</fix>
</trkpt>
<trkpt lat="40.0714058" lon="-105.2298904">
  <ele>1583.0</ele>
  <time>2026-08-28T17:49:33Z</time>
  <course>346.53</course>
  <speed>0.67</speed>
  <fix>3d</fix>
</trkpt>
<trkpt lat="40.0714071" lon="-105.2298905">
  <ele>1582.98</ele>
  <time>2026-08-28T17:49:33Z</time>
  <course>348.81</course>
  <speed>0.6592419889539803</speed>
  <fix>3d</fix>
</trkpt>
<trkpt lat="40.0714058" lon="-105.2298904">
  <ele>1583.0</ele>
  <time>2026-08-28T17:49:33Z</time>
  <course>346.53</course>
  <speed>0.67</speed>
  <fix>3d</fix>
</trkpt>
<trkpt lat="40.0714077" lon="-105.2298907">
  <ele>1582.98</ele>
  <time>2026-08-28T17:49:33Z</time>
  <course>349.47</course>
  <speed>0.6592419889539803</speed>
  <fix>3d</fix>
</trkpt>
<trkpt lat="40.0714071" lon="-105.2298907">
  <ele>1583.0</ele>
  <time>2026-08-28T17:49:33Z</time>
  <course>347.85</course>
  <speed>0.67</speed>
  <fix>3d</fix>
</trkpt>
<trkpt lat="40.0714083" lon="-105.2298908">
  <ele>1582.98</ele>
  <time>2026-08-28T17:49:33Z</time>
  <course>350.15</course>
  <speed>0.6576473218982953</speed>
  <fix>3d</fix>
</trkpt>
<trkpt lat="40.0714071" lon="-105.2298907">
  <ele>1583.0</ele>
  <time>2026-08-28T17:49:33Z</time>
  <course>347.85</course>
  <speed>0.67</speed>
  <fix>3d</fix>
</trkpt>
<trkpt lat="40.0714089" lon="-105.229891">
  <ele>1582.99</ele>
  <time>2026-08-28T17:49:33Z</time>
  <course>350.82</course>
  <speed>0.6562011886609167</speed>
  <fix>3d</fix>
</trkpt>
<trkpt lat="40.0714083" lon="-105.2298911">
  <ele>1583.0</ele>
  <time>2026-08-28T17:49:33Z</time>
  <course>349.18</course>
  <speed>0.67</speed>
  <fix>3d</fix>
</trkpt>
<trkpt lat="40.0714096" lon="-105.2298911">
  <ele>1582.99</ele>
  <time>2026-08-28T17:49:33Z</time>
  <course>351.49</course>
  <speed>0.6648308055437865</speed>
  <fix>3d</fix>
</trkpt>
<trkpt lat="40.0714083" lon="-105.2298911">
  <ele>1583.0</ele>
  <time>2026-08-28T17:49:33Z</time>
  <course>349.18</course>
  <speed>0.67</speed>
  <fix>3d</fix>
</trkpt>
<trkpt lat="40.0714102" lon="-105.2298912">
  <ele>1582.99</ele>
  <time>2026-08-28T17:49:33Z</time>
  <course>352.16</course>
  <speed>0.6637017402418047</speed>
  <fix>3d</fix>
</trkpt>
<trkpt lat="40.0714095" lon="-105.2298913">
  <ele>1583.0</ele>
  <time>2026-08-28T17:49:33Z</time>
  <course>350.52</course>
  <speed>0.67</speed>
  <fix>3d</fix>
</trkpt>
<trkpt lat="40.0714108" lon="-105.2298913">
  <ele>1582.99</ele>
  <time>2026-08-28T17:49:33Z</time>
  <course>352.83</course>
  <speed>0.6637017402418047</speed>
  <fix>3d</fix>
</trkpt>
<trkpt lat="40.0714095" lon="-105.2298913">
  <ele>1583.0</ele>
  <time>2026-08-28T17:49:33Z</time>
  <course>350.52</course>
  <speed>0.67</speed>
  <fix>3d</fix>
</trkpt>
<trkpt lat="40.0714114" lon="-105.2298914">
  <ele>1582.99</ele>
  <time>2026-08-28T17:49:33Z</time>
  <course>353.5</course>
  <speed>0.6627216610312356</speed>
  <fix>3d</fix>
</trkpt>
<trkpt lat="40.0714107" lon="-105.2298916">
  <ele>1583.0</ele>
  <time>2026-08-28T17:49:33Z</time>
  <course>351.86</course>
  <speed>0.67</speed>
  <fix>3d</fix>
</trkpt>
<trkpt lat="40.071412" lon="-105.2298915">
  <ele>1582.99</ele>
  <time>2026-08-28T17:49:33Z</time>
  <course>354.17</course>
  <speed>0.6618912297349165</speed>
  <fix>3d</fix>
</trkpt>
<trkpt lat="40.0714107" lon="-105.2298916">
  <ele>1583.0</ele>
  <time>2026-08-28T17:49:33Z</time>
  <course>351.86</course>
  <speed>0.67</speed>
  <fix>3d</fix>
</trkpt>
<trkpt lat="40.0714126" lon="-105.2298916">
  <ele>1582.99</ele>
  <time>2026-08-28T17:49:33Z</time>
  <course>354.84</course>
  <speed>0.6612110101926616</speed>
  <fix>3d</fix>
</trkpt>
<trkpt lat="40.0714107" lon="-105.2298916">
  <ele>1583.0</ele>
  <time>2026-08-28T17:49:33Z</time>
  <course>351.86</course>
  <speed>0.67</speed>
  <fix>3d</fix>
</trkpt>
<trkpt lat="40.0714132" lon="-105.2298917">
  <ele>1582.99</ele>
  <time>2026-08-28T17:49:33Z</time>
  <course>355.51</course>
  <speed>0.6612110101926616</speed>
  <fix>3d</fix>
</trkpt>
<trkpt lat="40.0714119" lon="-105.2298917">
  <ele>1583.0</ele>
  <time>2026-08-28T17:49:33Z</time>
  <course>353.2</course>
  <speed>0.67</speed>
  <fix>3d</fix>
</trkpt>
<trkpt lat="40.0714138" lon="-105.2298918">
  <ele>1582.99</ele>
  <time>2026-08-28T17:49:33Z</time>
  <course>356.17</course>
  <speed>0.6606814663663572</speed>
  <fix>3d</fix>
</trkpt>
<trkpt lat="40.0714119" lon="-105.2298917">
  <ele>1583.0</ele>
  <time>2026-08-28T17:49:33Z</time>
  <course>353.2</course>
  <speed>0.67</speed>
  <fix>3d</fix>
</trkpt>
<trkpt lat="40.0714144" lon="-105.2298918">
  <ele>1583.0</ele>
  <time>2026-08-28T17:49:33Z</time>
  <course>356.8</course>
  <speed>0.630317380372777</speed>
  <fix>3d</fix>
</trkpt>
<trkpt lat="40.0714131" lon="-105.229892">
  <ele>1583.0</ele>
  <time>2026-08-28T17:49:33Z</time>
  <course>354.54</course>
  <speed>0.67</speed>
  <fix>3d</fix>
</trkpt>
<trkpt lat="40.0714149" lon="-105.2298919">
  <ele>1583.0</ele>
  <time>2026-08-28T17:49:33Z</time>
  <course>357.26</course>
  <speed>0.6000833275470999</speed>
  <fix>3d</fix>
</trkpt>
<trkpt lat="40.0714131" lon="-105.229892">
  <ele>1583.0</ele>
  <time>2026-08-28T17:49:33Z</time>
  <course>354.54</course>
  <speed>0.67</speed>
  <fix>3d</fix>
</trkpt>
<trkpt lat="40.0714155" lon="-105.2298919">
  <ele>1583.0</ele>
  <time>2026-08-28T17:49:33Z</time>
  <course>357.25</course>
  <speed>0.5500909015790026</speed>
  <fix>3d</fix>
</trkpt>
<trkpt lat="40.0714143" lon="-105.2298921">
  <ele>1583.0</ele>
  <time>2026-08-28T17:49:33Z</time>
  <course>355.72</course>
  <speed>0.64</speed>
  <fix>3d</fix>
</trkpt>
<trkpt lat="40.0714159" lon="-105.229892">
  <ele>1583.01</ele>
  <time>2026-08-28T17:49:33Z</time>
  <course>357.25</course>
  <speed>0.4901020301937138</speed>
  <fix>3d</fix>
</trkpt>
<trkpt lat="40.0714154" lon="-105.2298922">
  <ele>1583.0</ele>
  <time>2026-08-28T17:49:33Z</time>
  <course>356.28</course>
  <speed>0.56</speed>
  <fix>3d</fix>
</trkpt>
<trkpt lat="40.0714164" lon="-105.229892">
  <ele>1583.01</ele>
  <time>2026-08-28T17:49:33Z</time>
  <course>357.25</course>
  <speed>0.450111097397076</speed>
  <fix>3d</fix>
</trkpt>
<trkpt lat="40.0714154" lon="-105.2298922">
  <ele>1583.0</ele>
  <time>2026-08-28T17:49:33Z</time>
  <course>356.28</course>
  <speed>0.56</speed>
  <fix>3d</fix>
</trkpt>
<trkpt lat="40.0714168" lon="-105.229892">
  <ele>1583.01</ele>
  <time>2026-08-28T17:49:33Z</time>
  <course>357.25</course>
  <speed>0.4301162633521314</speed>
  <fix>3d</fix>
</trkpt>
<trkpt lat="40.0714162" lon="-105.2298923">
  <ele>1583.0</ele>
  <time>2026-08-28T17:49:33Z</time>
  <course>356.27</course>
  <speed>0.47</speed>
  <fix>3d</fix>
</trkpt>
<trkpt lat="40.0714171" lon="-105.2298921">
  <ele>1583.0</ele>
  <time>2026-08-28T17:49:33Z</time>
  <course>357.26</course>
  <speed>0.4301162633521314</speed>
  <fix>3d</fix>
</trkpt>
<trkpt lat="40.0714162" lon="-105.2298923">
  <ele>1583.0</ele>
  <time>2026-08-28T17:49:33Z</time>
  <course>356.27</course>
  <speed>0.47</speed>
  <fix>3d</fix>
</trkpt>
<trkpt lat="40.0714175" lon="-105.2298921">
  <ele>1583.0</ele>
  <time>2026-08-28T17:49:33Z</time>
  <course>357.26</course>
  <speed>0.44011362169330775</speed>
  <fix>3d</fix>
</trkpt>
<trkpt lat="40.0714171" lon="-105.2298924">
  <ele>1583.0</ele>
  <time>2026-08-28T17:49:33Z</time>
  <course>356.27</course>
  <speed>0.45</speed>
  <fix>3d</fix>
</trkpt>
<trkpt lat="40.071418" lon="-105.2298922">
  <ele>1583.0</ele>
  <time>2026-08-28T17:49:33Z</time>
  <course>357.26</course>
  <speed>0.4801041553663121</speed>
  <fix>3d</fix>
</trkpt>
<trkpt lat="40.0714171" lon="-105.2298924">
  <ele>1583.0</ele>
  <time>2026-08-28T17:49:33Z</time>
  <course>356.27</course>
  <speed>0.45</speed>
  <fix>3d</fix>
</trkpt>
<trkpt lat="40.0714184" lon="-105.2298922">
  <ele>1583.0</ele>
  <time>2026-08-28T17:49:33Z</time>
  <course>357.26</course>
  <speed>0.5300943312279428</speed>
  <fix>3d</fix>
</trkpt>
<trkpt lat="40.071418" lon="-105.2298924">
  <ele>1583.0</ele>
  <time>2026-08-28T17:49:33Z</time>
  <course>356.27</course>
  <speed>0.5</speed>
  <fix>3d</fix>
</trkpt>
<trkpt lat="40.071419" lon="-105.2298923">
  <ele>1583.0</ele>
  <time>2026-08-28T17:49:33Z</time>
  <course>357.26</course>
  <speed>0.6000833275470999</speed>
  <fix>3d</fix>
</trkpt>
<trkpt lat="40.071418" lon="-105.2298924">
  <ele>1583.0</ele>
  <time>2026-08-28T17:49:33Z</time>
  <course>356.27</course>
  <speed>0.5</speed>
  <fix>3d</fix>
</trkpt>
<trkpt lat="40.0714195" lon="-105.2298923">
  <ele>1583.0</ele>
  <time>2026-08-28T17:49:33Z</time>
  <course>357.27</course>
  <speed>0.680294054067798</speed>
  <fix>3d</fix>
</trkpt>
<trkpt lat="40.071419" lon="-105.2298925">
  <ele>1583.0</ele>
  <time>2026-08-28T17:49:33Z</time>
  <course>356.27</course>
  <speed>0.62</speed>
  <fix>3d</fix>
</trkpt>
<trkpt lat="40.0714202" lon="-105.2298924">
  <ele>1583.0</ele>
  <time>2026-08-28T17:49:33Z</time>
  <course>357.27</course>
  <speed>0.7702596964660685</speed>
  <fix>3d</fix>
</trkpt>
<trkpt lat="40.071419" lon="-105.2298925">
  <ele>1583.0</ele>
  <time>2026-08-28T17:49:33Z</time>
  <course>356.27</course>
  <speed>0.62</speed>
  <fix>3d</fix>
</trkpt>
<trkpt lat="40.071421" lon="-105.2298924">
  <ele>1582.99</ele>
  <time>2026-08-28T17:49:33Z</time>
  <course>357.27</course>
  <speed>0.8805112151472007</speed>
  <fix>3d</fix>
</trkpt>
<trkpt lat="40.0714203" lon="-105.2298926">
  <ele>1583.0</ele>
  <time>2026-08-28T17:49:33Z</time>
  <course>356.27</course>
  <speed>0.79</speed>
  <fix>3d</fix>
</trkpt>
<trkpt lat="40.0714219" lon="-105.2298925">
  <ele>1582.99</ele>
  <time>2026-08-28T17:49:33Z</time>
  <course>357.27</course>
  <speed>0.9904544411531506</speed>
  <fix>3d</fix>
</trkpt>
<trkpt lat="40.0714203" lon="-105.2298926">
  <ele>1583.0</ele>
  <time>2026-08-28T17:49:33Z</time>
  <course>356.27</course>
  <speed>0.79</speed>
  <fix>3d</fix>
</trkpt>
<trkpt lat="40.0714228" lon="-105.2298926">
  <ele>1582.99</ele>
  <time>2026-08-28T17:49:33Z</time>
  <course>357.27</course>
  <speed>1.110720486891279</speed>
  <fix>3d</fix>
</trkpt>
<trkpt lat="40.0714219" lon="-105.2298927">
  <ele>1583.0</ele>
  <time>2026-08-28T17:49:33Z</time>
  <course>356.27</course>
  <speed>1.0</speed>
  <fix>3d</fix>
</trkpt>
<trkpt lat="40.071424" lon="-105.2298926">
  <ele>1582.99</ele>
  <time>2026-08-28T17:49:33Z</time>
  <course>357.28</course>
  <speed>1.2410076550932312</speed>
  <fix>3d</fix>
</trkpt>
<trkpt lat="40.0714219" lon="-105.2298927">
  <ele>1583.0</ele>
  <time>2026-08-28T17:49:33Z</time>
  <course>356.27</course>
  <speed>1.0</speed>
  <fix>3d</fix>
</trkpt>
<trkpt lat="40.0714252" lon="-105.2298927">
  <ele>1582.99</ele>
  <time>2026-08-28T17:49:33Z</time>
  <course>357.28</course>
  <speed>1.3709121051329294</speed>
  <fix>3d</fix>
</trkpt>
<trkpt lat="40.0714219" lon="-105.2298927">
  <ele>1583.0</ele>
  <time>2026-08-28T17:49:33Z</time>
  <course>356.27</course>
  <speed>1.0</speed>
  <fix>3d</fix>
</trkpt>
<trkpt lat="40.0714265" lon="-105.2298928">
  <ele>1582.99</ele>
  <time>2026-08-28T17:49:33Z</time>
  <course>357.28</course>
  <speed>1.5011995203836164</speed>
  <fix>3d</fix>
</trkpt>
<trkpt lat="40.0714239" lon="-105.229893">
  <ele>1583.0</ele>
  <time>2026-08-28T17:49:33Z</time>
  <course>356.27</course>
  <speed>1.25</speed>
  <fix>3d</fix>
</trkpt>
<trkpt lat="40.0714279" lon="-105.2298929">
  <ele>1582.99</ele>
  <time>2026-08-28T17:49:33Z</time>
  <course>357.28</course>
  <speed>1.6414932226482082</speed>
  <fix>3d</fix>
</trkpt>
<trkpt lat="40.0714239" lon="-105.229893">
  <ele>1583.0</ele>
  <time>2026-08-28T17:49:33Z</time>
  <course>356.27</course>
  <speed>1.25</speed>
  <fix>3d</fix>
</trkpt>
<trkpt lat="40.0714295" lon="-105.2298931">
  <ele>1583.0</ele>
  <time>2026-08-28T17:49:33Z</time>
  <course>357.28</course>
  <speed>1.7813758727455584</speed>
  <fix>3d</fix>
</trkpt>
<trkpt lat="40.0714263" lon="-105.2298931">
  <ele>1583.0</ele>
  <time>2026-08-28T17:49:33Z</time>
  <course>356.27</course>
  <speed>1.51</speed>
  <fix>3d</fix>
</trkpt>
<trkpt lat="40.0714312" lon="-105.2298932">
  <ele>1583.0</ele>
  <time>2026-08-28T17:49:33Z</time>
  <course>357.28</course>
  <speed>1.911674658512792</speed>
  <fix>3d</fix>
</trkpt>
<trkpt lat="40.0714263" lon="-105.2298931">
  <ele>1583.0</ele>
  <time>2026-08-28T17:49:33Z</time>
  <course>356.27</course>
  <speed>1.51</speed>
  <fix>3d</fix>
</trkpt>
<trkpt lat="40.071433" lon="-105.2298933">
  <ele>1583.01</ele>
  <time>2026-08-28T17:49:33Z</time>
  <course>357.27</course>
  <speed>2.051974658712919</speed>
  <fix>3d</fix>
</trkpt>
<trkpt lat="40.0714293" lon="-105.2298934">
  <ele>1583.0</ele>
  <time>2026-08-28T17:49:33Z</time>
  <course>356.27</course>
  <speed>1.78</speed>
  <fix>3d</fix>
</trkpt>
<trkpt lat="40.0714349" lon="-105.2298935">
  <ele>1583.01</ele>
  <time>2026-08-28T17:49:33Z</time>
  <course>357.27</course>
  <speed>2.19184853491294</speed>
  <fix>3d</fix>
</trkpt>
<trkpt lat="40.0714293" lon="-105.2298934">
  <ele>1583.0</ele>
  <time>2026-08-28T17:49:33Z</time>
  <course>356.27</course>
  <speed>1.78</speed>
  <fix>3d</fix>
</trkpt>
<trkpt lat="40.0714369" lon="-105.2298936">
  <ele>1583.01</ele>
  <time>2026-08-28T17:49:33Z</time>
  <course>357.27</course>
  <speed>2.322154172315008</speed>
  <fix>3d</fix>
</trkpt>
<trkpt lat="40.0714327" lon="-105.2298937">
  <ele>1583.0</ele>
  <time>2026-08-28T17:49:33Z</time>
  <course>356.27</course>
  <speed>2.05</speed>
  <fix>3d</fix>
</trkpt>
<trkpt lat="40.0714391" lon="-105.2298938">
  <ele>1583.01</ele>
  <time>2026-08-28T17:49:33Z</time>
  <course>357.27</course>
  <speed>2.45246814454337</speed>
  <fix>3d</fix>
</trkpt>
<trkpt lat="40.0714366" lon="-105.229894">
  <ele>1583.0</ele>
  <time>2026-08-28T17:49:33Z</time>
  <course>356.27</course>
  <speed>2.32</speed>
  <fix>3d</fix>
</trkpt>
<trkpt lat="40.0714414" lon="-105.229894">
  <ele>1583.01</ele>
  <time>2026-08-28T17:49:33Z</time>
  <course>357.26</course>
  <speed>2.592778432492835</speed>
  <fix>3d</fix>
</trkpt>
<trkpt lat="40.0714366" lon="-105.229894">
  <ele>1583.0</ele>
  <time>2026-08-28T17:49:33Z</time>
  <course>356.27</course>
  <speed>2.32</speed>
  <fix>3d</fix>
</trkpt>
<trkpt lat="40.0714438" lon="-105.2298942">
  <ele>1583.01</ele>
  <time>2026-08-28T17:49:33Z</time>
  <course>357.26</course>
  <speed>2.7126555254952667</speed>
  <fix>3d</fix>
</trkpt>
<trkpt lat="40.0714411" lon="-105.2298943">
  <ele>1583.0</ele>
  <time>2026-08-28T17:49:33Z</time>
  <course>356.27</course>
  <speed>2.58</speed>
  <fix>3d</fix>
</trkpt>
<trkpt lat="40.0714464" lon="-105.2298944">
  <ele>1583.01</ele>
  <time>2026-08-28T17:49:33Z</time>
  <course>357.25</course>
  <speed>2.8429737951659</speed>
  <fix>3d</fix>
</trkpt>
<trkpt lat="40.0714411" lon="-105.2298943">
  <ele>1583.0</ele>
  <time>2026-08-28T17:49:33Z</time>
  <course>356.27</course>
  <speed>2.58</speed>
  <fix>3d</fix>
</trkpt>
<trkpt lat="40.071449" lon="-105.2298946">
  <ele>1583.01</ele>
  <time>2026-08-28T17:49:33Z</time>
  <course>357.25</course>
  <speed>2.963308961279603</speed>
  <fix>3d</fix>
</trkpt>
<trkpt lat="40.0714459" lon="-105.2298948">
  <ele>1583.0</ele>
  <time>2026-08-28T17:49:33Z</time>
  <course>356.27</course>
  <speed>2.83</speed>
  <fix>3d</fix>
</trkpt>
<trkpt lat="40.0714518" lon="-105.2298948">
  <ele>1583.01</ele>
  <time>2026-08-28T17:49:33Z</time>
  <course>357.24</course>
  <speed>3.083650434144571</speed>
  <fix>3d</fix>
</trkpt>
<trkpt lat="40.0714459" lon="-105.2298948">
  <ele>1583.0</ele>
  <time>2026-08-28T17:49:33Z</time>
  <course>356.27</course>
  <speed>2.83</speed>
  <fix>3d</fix>
</trkpt>
<trkpt lat="40.0714547" lon="-105.2298951">
  <ele>1583.01</ele>
  <time>2026-08-28T17:49:33Z</time>
  <course>357.23</course>
  <speed>3.2035136959282693</speed>
  <fix>3d</fix>
</trkpt>
<trkpt lat="40.0714512" lon="-105.2298953">
  <ele>1583.0</ele>
  <time>2026-08-28T17:49:33Z</time>
  <course>356.27</course>
  <speed>3.07</speed>
  <fix>3d</fix>
</trkpt>
<trkpt lat="40.0714576" lon="-105.2298953">
  <ele>1583.0</ele>
  <time>2026-08-28T17:49:33Z</time>
  <course>357.23</course>
  <speed>3.3138648131750936</speed>
  <fix>3d</fix>
</trkpt>
<trkpt lat="40.0714512" lon="-105.2298953">
  <ele>1583.0</ele>
  <time>2026-08-28T17:49:33Z</time>
  <course>356.27</course>
  <speed>3.07</speed>
  <fix>3d</fix>
</trkpt>
<trkpt lat="40.0714607" lon="-105.2298956">
  <ele>1583.0</ele>
  <time>2026-08-28T17:49:33Z</time>
  <course>357.22</course>
  <speed>3.434210244000795</speed>
  <fix>3d</fix>
</trkpt>
<trkpt lat="40.071457" lon="-105.2298957">
  <ele>1583.0</ele>
  <time>2026-08-28T17:49:33Z</time>
  <course>356.27</course>
  <speed>3.3</speed>
  <fix>3d</fix>
</trkpt>
<trkpt lat="40.0714639" lon="-105.2298958">
  <ele>1583.0</ele>
  <time>2026-08-28T17:49:33Z</time>
  <course>357.21</course>
  <speed>3.5345862558438155</speed>
  <fix>3d</fix>
</trkpt>
<trkpt lat="40.071457" lon="-105.2298957">
  <ele>1583.0</ele>
  <time>2026-08-28T17:49:33Z</time>
  <course>356.27</course>
  <speed>3.3</speed>
  <fix>3d</fix>
</trkpt>
<trkpt lat="40.0714672" lon="-105.2298961">
  <ele>1583.0</ele>
  <time>2026-08-28T17:49:33Z</time>
  <course>357.2</course>
  <speed>3.6444478319767457</speed>
  <fix>3d</fix>
</trkpt>
<trkpt lat="40.0714631" lon="-105.2298962">
  <ele>1583.0</ele>
  <time>2026-08-28T17:49:33Z</time>
  <course>356.27</course>
  <speed>3.51</speed>
  <fix>3d</fix>
</trkpt>
<trkpt lat="40.0714705" lon="-105.2298964">
  <ele>1583.0</ele>
  <time>2026-08-28T17:49:33Z</time>
  <course>357.2</course>
  <speed>3.744823093284915</speed>
  <fix>3d</fix>
</trkpt>
<trkpt lat="40.0714631" lon="-105.2298962">
  <ele>1583.0</ele>
  <time>2026-08-28T17:49:33Z</time>
  <course>356.27</course>
  <speed>3.51</speed>
  <fix>3d</fix>
</trkpt>
<trkpt lat="40.071474" lon="-105.2298967">
  <ele>1583.0</ele>
  <time>2026-08-28T17:49:33Z</time>
  <course>357.19</course>
  <speed>3.8551913052402473</speed>
  <fix>3d</fix>
</trkpt>
<trkpt lat="40.0714696" lon="-105.2298968">
  <ele>1583.0</ele>
  <time>2026-08-28T17:49:33Z</time>
  <course>356.27</course>
  <speed>3.72</speed>
  <fix>3d</fix>
</trkpt>
<trkpt lat="40.0714775" lon="-105.229897">
  <ele>1583.0</ele>
  <time>2026-08-28T17:49:33Z</time>
  <course>357.18</course>
  <speed>3.9550600501130195</speed>
  <fix>3d</fix>
</trkpt>
<trkpt lat="40.0714696" lon="-105.2298968">
  <ele>1583.0</ele>
  <time>2026-08-28T17:49:33Z</time>
  <course>356.27</course>
  <speed>3.72</speed>
  <fix>3d</fix>
</trkpt>
<trkpt lat="40.0714811" lon="-105.2298973">
  <ele>1583.0</ele>
  <time>2026-08-28T17:49:33Z</time>
  <course>357.17</course>
  <speed>4.045454239019396</speed>
  <fix>3d</fix>
</trkpt>
<trkpt lat="40.0714696" lon="-105.2298968">
  <ele>1583.0</ele>
  <time>2026-08-28T17:49:33Z</time>
  <course>356.27</course>
  <speed>3.72</speed>
  <fix>3d</fix>
</trkpt>
<trkpt lat="40.0714848" lon="-105.2298976">
  <ele>1583.0</ele>
  <time>2026-08-28T17:49:33Z</time>
  <course>357.16</course>
  <speed>4.1458412897746095</speed>
  <fix>3d</fix>
</trkpt>
<trkpt lat="40.0714765" lon="-105.2298974">
  <ele>1583.0</ele>
  <time>2026-08-28T17:49:33Z</time>
  <course>356.27</course>
  <speed>3.92</speed>
  <fix>3d</fix>
</trkpt>
<trkpt lat="40.0714886" lon="-105.2298979">
  <ele>1583.0</ele>
  <time>2026-08-28T17:49:33Z</time>
  <course>357.16</course>
  <speed>4.235717176582969</speed>
  <fix>3d</fix>
</trkpt>
<trkpt lat="40.0714765" lon="-105.2298974">
  <ele>1583.0</ele>
  <time>2026-08-28T17:49:33Z</time>
  <course>356.27</course>
  <speed>3.92</speed>
  <fix>3d</fix>
</trkpt>
<trkpt lat="40.0714924" lon="-105.2298982">
  <ele>1583.0</ele>
  <time>2026-08-28T17:49:33Z</time>
  <course>357.15</course>
  <speed>4.336104242289385</speed>
  <fix>3d</fix>
</trkpt>
<trkpt lat="40.0714837" lon="-105.229898">
  <ele>1583.0</ele>
  <time>2026-08-28T17:49:33Z</time>
  <course>356.27</course>
  <speed>4.11</speed>
  <fix>3d</fix>
</trkpt>
<trkpt lat="40.0714963" lon="-105.2298986">
  <ele>1583.0</ele>
  <time>2026-08-28T17:49:33Z</time>
  <course>357.14</course>
  <speed>4.4265110414411035</speed>
  <fix>3d</fix>
</trkpt>
<trkpt lat="40.0714837" lon="-105.229898">
  <ele>1583.0</ele>
  <time>2026-08-28T17:49:33Z</time>
  <course>356.27</course>
  <speed>4.11</speed>
  <fix>3d</fix>
</trkpt>
<trkpt lat="40.0715003" lon="-105.2298989">
  <ele>1583.0</ele>
  <time>2026-08-28T17:49:33Z</time>
  <course>357.13</course>
  <speed>4.516923731921981</speed>
  <fix>3d</fix>
</trkpt>
<trkpt lat="40.0714912" lon="-105.2298986">
  <ele>1583.0</ele>
  <time>2026-08-28T17:49:33Z</time>
  <course>356.27</course>
  <speed>4.3</speed>
  <fix>3d</fix>
</trkpt>
<trkpt lat="40.0715044" lon="-105.2298993">
  <ele>1583.01</ele>
  <time>2026-08-28T17:49:33Z</time>
  <course>357.13</course>
  <speed>4.606788469204984</speed>
  <fix>3d</fix>
</trkpt>
<trkpt lat="40.0714991" lon="-105.2298993">
  <ele>1583.0</ele>
  <time>2026-08-28T17:49:33Z</time>
  <course>356.27</course>
  <speed>4.49</speed>
  <fix>3d</fix>
</trkpt>
<trkpt lat="40.0715086" lon="-105.2298996">
  <ele>1583.01</ele>
  <time>2026-08-28T17:49:33Z</time>
  <course>357.12</course>
  <speed>4.707185995900311</speed>
  <fix>3d</fix>
</trkpt>
<trkpt lat="40.0714991" lon="-105.2298993">
  <ele>1583.0</ele>
  <time>2026-08-28T17:49:33Z</time>
  <course>356.27</course>
  <speed>4.49</speed>
  <fix>3d</fix>
</trkpt>
<trkpt lat="40.0715128" lon="-105.2299">
  <ele>1583.01</ele>
  <time>2026-08-28T17:49:33Z</time>
  <course>357.11</course>
  <speed>4.797603568449565</speed>
  <fix>3d</fix>
</trkpt>
<trkpt lat="40.0715074" lon="-105.2299">
  <ele>1583.0</ele>
  <time>2026-08-28T17:49:33Z</time>
  <course>356.27</course>
  <speed>4.68</speed>
  <fix>3d</fix>
</trkpt>
<trkpt lat="40.0715172" lon="-105.2299004">
  <ele>1583.01</ele>
  <time>2026-08-28T17:49:33Z</time>
  <course>357.1</course>
  <speed>4.897448315194352</speed>
  <fix>3d</fix>
</trkpt>
<trkpt lat="40.0715074" lon="-105.2299">
  <ele>1583.0</ele>
  <time>2026-08-28T17:49:33Z</time>
  <course>356.27</course>
  <speed>4.68</speed>
  <fix>3d</fix>
</trkpt>
<trkpt lat="40.0715216" lon="-105.2299007">
  <ele>1583.01</ele>
  <time>2026-08-28T17:49:33Z</time>
  <course>357.1</course>
  <speed>4.98786527484454</speed>
  <fix>3d</fix>
</trkpt>
<trkpt lat="40.0715159" lon="-105.2299008">
  <ele>1583.0</ele>
  <time>2026-08-28T17:49:33Z</time>
  <course>356.27</course>
  <speed>4.87</speed>
  <fix>3d</fix>
</trkpt>
<trkpt lat="40.0715262" lon="-105.2299011">
  <ele>1583.01</ele>
  <time>2026-08-28T17:49:33Z</time>
  <course>357.09</course>
  <speed>5.088270826125512</speed>
  <fix>3d</fix>
</trkpt>
<trkpt lat="40.0715159" lon="-105.2299008">
  <ele>1583.0</ele>
  <time>2026-08-28T17:49:33Z</time>
  <course>356.27</course>
  <speed>4.87</speed>
  <fix>3d</fix>
</trkpt>
<trkpt lat="40.0715308" lon="-105.2299015">
  <ele>1583.01</ele>
  <time>2026-08-28T17:49:33Z</time>
  <course>357.09</course>
  <speed>5.188111409752107</speed>
  <fix>3d</fix>
</trkpt>
<trkpt lat="40.0715248" lon="-105.2299015">
  <ele>1583.0</ele>
  <time>2026-08-28T17:49:33Z</time>
  <course>356.27</course>
  <speed>5.06</speed>
  <fix>3d</fix>
</trkpt>
<trkpt lat="40.0715356" lon="-105.229902">
  <ele>1583.01</ele>
  <time>2026-08-28T17:49:33Z</time>
  <course>357.08</course>
  <speed>5.2785319928934795</speed>
  <fix>3d</fix>
</trkpt>
<trkpt lat="40.0715248" lon="-105.2299015">
  <ele>1583.0</ele>
  <time>2026-08-28T17:49:33Z</time>
  <course>356.27</course>
  <speed>5.06</speed>
  <fix>3d</fix>
</trkpt>
<trkpt lat="40.0715404" lon="-105.2299024">
  <ele>1583.01</ele>
  <time>2026-08-28T17:49:33Z</time>
  <course>357.08</course>
  <speed>5.378940416104272</speed>
  <fix>3d</fix>
</trkpt>
<trkpt lat="40.071534" lon="-105.2299022">
  <ele>1583.0</ele>
  <time>2026-08-28T17:49:33Z</time>
  <course>356.27</course>
  <speed>5.25</speed>
  <fix>3d</fix>
</trkpt>
<trkpt lat="40.0715453" lon="-105.2299028">
  <ele>1583.01</ele>
  <time>2026-08-28T17:49:33Z</time>
  <course>357.07</course>
  <speed>5.479352151486524</speed>
  <fix>3d</fix>
</trkpt>
<trkpt lat="40.071534" lon="-105.2299022">
  <ele>1583.0</ele>
  <time>2026-08-28T17:49:33Z</time>
  <course>356.27</course>
  <speed>5.25</speed>
  <fix>3d</fix>
</trkpt>
<trkpt lat="40.0715503" lon="-105.2299032">
  <ele>1583.01</ele>
  <time>2026-08-28T17:49:33Z</time>
  <course>357.07</course>
  <speed>5.579184528226325</speed>
  <fix>3d</fix>
</trkpt>
<trkpt lat="40.0715437" lon="-105.2299031">
  <ele>1583.0</ele>
  <time>2026-08-28T17:49:33Z</time>
  <course>356.27</course>
  <speed>5.44</speed>
  <fix>3d</fix>
</trkpt>
<trkpt lat="40.0715554" lon="-105.2299037">
  <ele>1583.02</ele>
  <time>2026-08-28T17:49:33Z</time>
  <course>357.06</course>
  <speed>5.66961197966845</speed>
  <fix>3d</fix>
</trkpt>
<trkpt lat="40.0715437" lon="-105.2299031">
  <ele>1583.0</ele>
  <time>2026-08-28T17:49:33Z</time>
  <course>356.27</course>
  <speed>5.44</speed>
  <fix>3d</fix>
</trkpt>
<trkpt lat="40.0715605" lon="-105.2299041">
  <ele>1583.02</ele>
  <time>2026-08-28T17:49:33Z</time>
  <course>357.06</course>
  <speed>5.770025996475232</speed>
  <fix>3d</fix>
</trkpt>
<trkpt lat="40.0715536" lon="-105.229904">
  <ele>1583.0</ele>
  <time>2026-08-28T17:49:33Z</time>
  <course>356.27</course>
  <speed>5.64</speed>
  <fix>3d</fix>
</trkpt>
<trkpt lat="40.0715657" lon="-105.2299046">
  <ele>1583.01</ele>
  <time>2026-08-28T17:49:33Z</time>
  <course>357.06</course>
  <speed>5.83990582115842</speed>
  <fix>3d</fix>
</trkpt>
<trkpt lat="40.0715536" lon="-105.229904">
  <ele>1583.0</ele>
  <time>2026-08-28T17:49:33Z</time>
  <course>356.27</course>
  <speed>5.64</speed>
  <fix>3d</fix>
</trkpt>
<trkpt lat="40.071571" lon="-105.229905">
  <ele>1583.01</ele>
  <time>2026-08-28T17:49:33Z</time>
  <course>357.05</course>
  <speed>5.8904074561952</speed>
  <fix>3d</fix>
</trkpt>
<trkpt lat="40.0715536" lon="-105.229904">
  <ele>1583.0</ele>
  <time>2026-08-28T17:49:33Z</time>
  <course>356.27</course>
  <speed>5.64</speed>
  <fix>3d</fix>
</trkpt>
<trkpt lat="40.0715763" lon="-105.2299055">
  <ele>1583.01</ele>
  <time>2026-08-28T17:49:33Z</time>
  <course>357.05</course>
  <speed>5.900389817630696</speed>
  <fix>3d</fix>
</trkpt>
<trkpt lat="40.0715639" lon="-105.2299048">
  <ele>1583.0</ele>
  <time>2026-08-28T17:49:33Z</time>
  <course>356.27</course>
  <speed>5.79</speed>
  <fix>3d</fix>
</trkpt>
<trkpt lat="40.0715815" lon="-105.2299059">
  <ele>1583.02</ele>
  <time>2026-08-28T17:49:33Z</time>
  <course>357.05</course>
  <speed>5.880425154697575</speed>
  <fix>3d</fix>
</trkpt>
<trkpt lat="40.0715639" lon="-105.2299048">
  <ele>1583.0</ele>
  <time>2026-08-28T17:49:33Z</time>
  <course>356.27</course>
  <speed>5.79</speed>
  <fix>3d</fix>
</trkpt>
<trkpt lat="40.0715867" lon="-105.2299064">
  <ele>1583.02</ele>
  <time>2026-08-28T17:49:33Z</time>
  <course>357.04</course>
  <speed>5.840496554232354</speed>
  <fix>3d</fix>
</trkpt>
<trkpt lat="40.0715744" lon="-105.2299057">
  <ele>1583.0</ele>
  <time>2026-08-28T17:49:33Z</time>
  <course>356.27</course>
  <speed>5.85</speed>
  <fix>3d</fix>
</trkpt>
<trkpt lat="40.0715919" lon="-105.2299068">
  <ele>1583.02</ele>
  <time>2026-08-28T17:49:33Z</time>
  <course>357.04</course>
  <speed>5.780605504616277</speed>
  <fix>3d</fix>
</trkpt>
<trkpt lat="40.0715744" lon="-105.2299057">
  <ele>1583.0</ele>
  <time>2026-08-28T17:49:33Z</time>
  <course>356.27</course>
  <speed>5.85</speed>
  <fix>3d</fix>
</trkpt>
<trkpt lat="40.071597" lon="-105.2299073">
  <ele>1583.03</ele>
  <time>2026-08-28T17:49:33Z</time>
  <course>357.04</course>
  <speed>5.690166957128763</speed>
  <fix>3d</fix>
</trkpt>
<trkpt lat="40.0715849" lon="-105.2299066">
  <ele>1583.0</ele>
  <time>2026-08-28T17:49:33Z</time>
  <course>356.27</course>
  <speed>5.8</speed>
  <fix>3d</fix>
</trkpt>
<trkpt lat="40.071602" lon="-105.2299077">
  <ele>1583.03</ele>
  <time>2026-08-28T17:49:33Z</time>
  <course>357.04</course>
  <speed>5.590348826325599</speed>
  <fix>3d</fix>
</trkpt>
<trkpt lat="40.0715849" lon="-105.2299066">
  <ele>1583.0</ele>
  <time>2026-08-28T17:49:33Z</time>
  <course>356.27</course>
  <speed>5.8</speed>
  <fix>3d</fix>
</trkpt>
<trkpt lat="40.0716069" lon="-105.2299081">
  <ele>1583.03</ele>
  <time>2026-08-28T17:49:33Z</time>
  <course>357.03</course>
  <speed>5.4705758380631195</speed>
  <fix>3d</fix>
</trkpt>
<trkpt lat="40.0715952" lon="-105.2299075">
  <ele>1583.0</ele>
  <time>2026-08-28T17:49:33Z</time>
  <course>356.27</course>
  <speed>5.66</speed>
  <fix>3d</fix>
</trkpt>
<trkpt lat="40.0716117" lon="-105.2299086">
  <ele>1583.04</ele>
  <time>2026-08-28T17:49:33Z</time>
  <course>357.03</course>
  <speed>5.340205988536398</speed>
  <fix>3d</fix>
</trkpt>
<trkpt lat="40.0716052" lon="-105.2299084">
  <ele>1583.0</ele>
  <time>2026-08-28T17:49:33Z</time>
  <course>356.27</course>
  <speed>5.46</speed>
  <fix>3d</fix>
</trkpt>
<trkpt lat="40.0716163" lon="-105.229909">
  <ele>1583.04</ele>
  <time>2026-08-28T17:49:33Z</time>
  <course>357.03</course>
  <speed>5.1998557672304715</speed>
  <fix>3d</fix>
</trkpt>
<trkpt lat="40.0716052" lon="-105.2299084">
  <ele>1583.0</ele>
  <time>2026-08-28T17:49:33Z</time>
  <course>356.27</course>
  <speed>5.46</speed>
  <fix>3d</fix>
</trkpt>
<trkpt lat="40.0716209" lon="-105.2299094">
  <ele>1583.04</ele>
  <time>2026-08-28T17:49:33Z</time>
  <course>357.03</course>
  <speed>5.050148512667722</speed>
  <fix>3d</fix>
</trkpt>
<trkpt lat="40.0716147" lon="-105.2299092">
  <ele>1583.0</ele>
  <time>2026-08-28T17:49:33Z</time>
  <course>356.27</course>
  <speed>5.2</speed>
  <fix>3d</fix>
</trkpt>
<trkpt lat="40.0716253" lon="-105.2299098">
  <ele>1583.04</ele>
  <time>2026-08-28T17:49:33Z</time>
  <course>357.03</course>
  <speed>4.89981632308804</speed>
  <fix>3d</fix>
</trkpt>
<trkpt lat="40.0716147" lon="-105.2299092">
  <ele>1583.0</ele>
  <time>2026-08-28T17:49:33Z</time>
  <course>356.27</course>
  <speed>5.2</speed>
  <fix>3d</fix>
</trkpt>
<trkpt lat="40.0716296" lon="-105.2299102">
  <ele>1583.04</ele>
  <time>2026-08-28T17:49:33Z</time>
  <course>357.04</course>
  <speed>4.73950419347847</speed>
  <fix>3d</fix>
</trkpt>
<trkpt lat="40.0716238" lon="-105.2299099">
  <ele>1583.0</ele>
  <time>2026-08-28T17:49:33Z</time>
  <course>356.27</course>
  <speed>4.91</speed>
  <fix>3d</fix>
</trkpt>
<trkpt lat="40.0716338" lon="-105.2299106">
  <ele>1583.03</ele>
  <time>2026-08-28T17:49:33Z</time>
  <course>357.04</course>
  <speed>4.579836241613886</speed>
  <fix>3d</fix>
</trkpt>
<trkpt lat="40.0716238" lon="-105.2299099">
  <ele>1583.0</ele>
  <time>2026-08-28T17:49:33Z</time>
  <course>356.27</course>
  <speed>4.91</speed>
  <fix>3d</fix>
</trkpt>
<trkpt lat="40.0716379" lon="-105.2299109">
  <ele>1583.03</ele>
  <time>2026-08-28T17:49:33Z</time>
  <course>357.04</course>
  <speed>4.419524861339735</speed>
  <fix>3d</fix>
</trkpt>
<trkpt lat="40.0716323" lon="-105.2299106">
  <ele>1583.0</ele>
  <time>2026-08-28T17:49:33Z</time>
  <course>356.27</course>
  <speed>4.6</speed>
  <fix>3d</fix>
</trkpt>
<trkpt lat="40.0716417" lon="-105.2299113">
  <ele>1583.03</ele>
  <time>2026-08-28T17:49:33Z</time>
  <course>357.04</course>
  <speed>4.259213542427757</speed>
  <fix>3d</fix>
</trkpt>
<trkpt lat="40.0716323" lon="-105.2299106">
  <ele>1583.0</ele>
  <time>2026-08-28T17:49:33Z</time>
  <course>356.27</course>
  <speed>4.6</speed>
  <fix>3d</fix>
</trkpt>
<trkpt lat="40.0716455" lon="-105.2299116">
  <ele>1583.03</ele>
  <time>2026-08-28T17:49:33Z</time>
  <course>357.04</course>
  <speed>4.098902292077722</speed>
  <fix>3d</fix>
</trkpt>
<trkpt lat="40.0716402" lon="-105.2299113">
  <ele>1583.0</ele>
  <time>2026-08-28T17:49:33Z</time>
  <course>356.27</course>
  <speed>4.28</speed>
  <fix>3d</fix>
</trkpt>
<trkpt lat="40.0716491" lon="-105.229912">
  <ele>1583.04</ele>
  <time>2026-08-28T17:49:33Z</time>
  <course>357.05</course>
  <speed>3.938591118661596</speed>
  <fix>3d</fix>
</trkpt>
<trkpt lat="40.0716402" lon="-105.2299113">
  <ele>1583.0</ele>
  <time>2026-08-28T17:49:33Z</time>
  <course>356.27</course>
  <speed>4.28</speed>
  <fix>3d</fix>
</trkpt>
<trkpt lat="40.0716525" lon="-105.2299123">
  <ele>1583.04</ele>
  <time>2026-08-28T17:49:33Z</time>
  <course>357.05</course>
  <speed>3.7882581749400344</speed>
  <fix>3d</fix>
</trkpt>
<trkpt lat="40.0716476" lon="-105.2299119">
  <ele>1583.0</ele>
  <time>2026-08-28T17:49:33Z</time>
  <course>356.27</course>
  <speed>3.97</speed>
  <fix>3d</fix>
</trkpt>
<trkpt lat="40.0716558" lon="-105.2299126">
  <ele>1583.04</ele>
  <time>2026-08-28T17:49:33Z</time>
  <course>357.05</course>
  <speed>3.6385986313414675</speed>
  <fix>3d</fix>
</trkpt>
<trkpt lat="40.0716476" lon="-105.2299119">
  <ele>1583.0</ele>
  <time>2026-08-28T17:49:33Z</time>
  <course>356.27</course>
  <speed>3.97</speed>
  <fix>3d</fix>
</trkpt>
<trkpt lat="40.071659" lon="-105.2299129">
  <ele>1583.05</ele>
  <time>2026-08-28T17:49:33Z</time>
  <course>357.05</course>
  <speed>3.488266044899672</speed>
  <fix>3d</fix>
</trkpt>
<trkpt lat="40.0716544" lon="-105.2299126">
  <ele>1583.0</ele>
  <time>2026-08-28T17:49:33Z</time>
  <course>356.27</course>
  <speed>3.68</speed>
  <fix>3d</fix>
</trkpt>
<trkpt lat="40.0716621" lon="-105.2299131">
  <ele>1583.05</ele>
  <time>2026-08-28T17:49:33Z</time>
  <course>357.05</course>
  <speed>3.3479097956784916</speed>
  <fix>3d</fix>
</trkpt>
<trkpt lat="40.0716544" lon="-105.2299126">
  <ele>1583.0</ele>
  <time>2026-08-28T17:49:33Z</time>
  <course>356.27</course>
  <speed>3.68</speed>
  <fix>3d</fix>
</trkpt>
<trkpt lat="40.071665" lon="-105.2299134">
  <ele>1583.05</ele>
  <time>2026-08-28T17:49:33Z</time>
  <course>357.05</course>
  <speed>3.207553584899245</speed>
  <fix>3d</fix>
</trkpt>
<trkpt lat="40.0716544" lon="-105.2299126">
  <ele>1583.0</ele>
  <time>2026-08-28T17:49:33Z</time>
  <course>356.27</course>
  <speed>3.68</speed>
  <fix>3d</fix>
</trkpt>
<trkpt lat="40.0716678" lon="-105.2299137">
  <ele>1583.05</ele>
  <time>2026-08-28T17:49:33Z</time>
  <course>357.05</course>
  <speed>3.077174028227848</speed>
  <fix>3d</fix>
</trkpt>
<trkpt lat="40.0716608" lon="-105.2299131">
  <ele>1583.0</ele>
  <time>2026-08-28T17:49:33Z</time>
  <course>356.27</course>
  <speed>3.39</speed>
  <fix>3d</fix>
</trkpt>
<trkpt lat="40.0716704" lon="-105.2299139">
  <ele>1583.06</ele>
  <time>2026-08-28T17:49:33Z</time>
  <course>357.05</course>
  <speed>2.947490457999822</speed>
  <fix>3d</fix>
</trkpt>
<trkpt lat="40.0716608" lon="-105.2299131">
  <ele>1583.0</ele>
  <time>2026-08-28T17:49:33Z</time>
  <course>356.27</course>
  <speed>3.39</speed>
  <fix>3d</fix>
</trkpt>
<trkpt lat="40.071673" lon="-105.2299142">
  <ele>1583.06</ele>
  <time>2026-08-28T17:49:33Z</time>
  <course>357.05</course>
  <speed>2.827083302628347</speed>
  <fix>3d</fix>
</trkpt>
<trkpt lat="40.0716667" lon="-105.2299136">
  <ele>1583.0</ele>
  <time>2026-08-28T17:49:33Z</time>
  <course>356.27</course>
  <speed>3.13</speed>
  <fix>3d</fix>
</trkpt>
<trkpt lat="40.0716754" lon="-105.2299144">
  <ele>1583.06</ele>
  <time>2026-08-28T17:49:33Z</time>
  <course>357.05</course>
  <speed>2.7066769293729904</speed>
  <fix>3d</fix>
</trkpt>
<trkpt lat="40.0716667" lon="-105.2299136">
  <ele>1583.0</ele>
  <time>2026-08-28T17:49:33Z</time>
  <course>356.27</course>
  <speed>3.13</speed>
  <fix>3d</fix>
</trkpt>
<trkpt lat="40.0716778" lon="-105.2299146">
  <ele>1583.06</ele>
  <time>2026-08-28T17:49:33Z</time>
  <course>357.05</course>
  <speed>2.586271447470277</speed>
  <fix>3d</fix>
</trkpt>
<trkpt lat="40.0716721" lon="-105.2299141">
  <ele>1583.0</ele>
  <time>2026-08-28T17:49:33Z</time>
  <course>356.27</course>
  <speed>2.89</speed>
  <fix>3d</fix>
</trkpt>
<trkpt lat="40.0716801" lon="-105.2299148">
  <ele>1583.06</ele>
  <time>2026-08-28T17:49:33Z</time>
  <course>357.04</course>
  <speed>2.476550019684642</speed>
  <fix>3d</fix>
</trkpt>
<trkpt lat="40.071677" lon="-105.2299144">
  <ele>1583.0</ele>
  <time>2026-08-28T17:49:33Z</time>
  <course>356.27</course>
  <speed>2.66</speed>
  <fix>3d</fix>
</trkpt>
<trkpt lat="40.0716822" lon="-105.229915">
  <ele>1583.06</ele>
  <time>2026-08-28T17:49:33Z</time>
  <course>357.04</course>
  <speed>2.3760892239139504</speed>
  <fix>3d</fix>
</trkpt>
<trkpt lat="40.071677" lon="-105.2299144">
  <ele>1583.0</ele>
  <time>2026-08-28T17:49:33Z</time>
  <course>356.27</course>
  <speed>2.66</speed>
  <fix>3d</fix>
</trkpt>
<trkpt lat="40.0716843" lon="-105.2299152">
  <ele>1583.06</ele>
  <time>2026-08-28T17:49:33Z</time>
  <course>357.04</course>
  <speed>2.2656566377101366</speed>
  <fix>3d</fix>
</trkpt>
<trkpt lat="40.0716817" lon="-105.2299149">
  <ele>1583.0</ele>
  <time>2026-08-28T17:49:33Z</time>
  <course>356.27</course>
  <speed>2.45</speed>
  <fix>3d</fix>
</trkpt>
<trkpt lat="40.0716863" lon="-105.2299153">
  <ele>1583.06</ele>
  <time>2026-08-28T17:49:33Z</time>
  <course>357.04</course>
  <speed>2.1659178193089414</speed>
  <fix>3d</fix>
</trkpt>
<trkpt lat="40.0716817" lon="-105.2299149">
  <ele>1583.0</ele>
  <time>2026-08-28T17:49:33Z</time>
  <course>356.27</course>
  <speed>2.45</speed>
  <fix>3d</fix>
</trkpt>
<trkpt lat="40.0716882" lon="-105.2299155">
  <ele>1583.06</ele>
  <time>2026-08-28T17:49:33Z</time>
  <course>357.04</course>
  <speed>2.075427666771357</speed>
  <fix>3d</fix>
</trkpt>
<trkpt lat="40.0716859" lon="-105.2299152">
  <ele>1583.0</ele>
  <time>2026-08-28T17:49:33Z</time>
  <course>356.27</course>
  <speed>2.25</speed>
  <fix>3d</fix>
</trkpt>
<trkpt lat="40.0716901" lon="-105.2299157">
  <ele>1583.06</ele>
  <time>2026-08-28T17:49:33Z</time>
  <course>357.04</course>
  <speed>1.974968354176846</speed>
  <fix>3d</fix>
</trkpt>
<trkpt lat="40.0716859" lon="-105.2299152">
  <ele>1583.0</ele>
  <time>2026-08-28T17:49:33Z</time>
  <course>356.27</course>
  <speed>2.25</speed>
  <fix>3d</fix>
</trkpt>
<trkpt lat="40.0716918" lon="-105.2299158">
  <ele>1583.06</ele>
  <time>2026-08-28T17:49:33Z</time>
  <course>357.04</course>
  <speed>1.8844893207444822</speed>
  <fix>3d</fix>
</trkpt>
<trkpt lat="40.0716897" lon="-105.2299155">
  <ele>1583.0</ele>
  <time>2026-08-28T17:49:33Z</time>
  <course>356.27</course>
  <speed>2.06</speed>
  <fix>3d</fix>
</trkpt>
<trkpt lat="40.0716935" lon="-105.229916">
  <ele>1583.06</ele>
  <time>2026-08-28T17:49:33Z</time>
  <course>357.04</course>
  <speed>1.7947144619688116</speed>
  <fix>3d</fix>
</trkpt>
<trkpt lat="40.0716897" lon="-105.2299155">
  <ele>1583.0</ele>
  <time>2026-08-28T17:49:33Z</time>
  <course>356.27</course>
  <speed>2.06</speed>
  <fix>3d</fix>
</trkpt>
<trkpt lat="40.0716951" lon="-105.2299161">
  <ele>1583.06</ele>
  <time>2026-08-28T17:49:33Z</time>
  <course>357.04</course>
  <speed>1.6942549985170472</speed>
  <fix>3d</fix>
</trkpt>
<trkpt lat="40.0716933" lon="-105.2299158">
  <ele>1583.0</ele>
  <time>2026-08-28T17:49:33Z</time>
  <course>356.27</course>
  <speed>1.88</speed>
  <fix>3d</fix>
</trkpt>
<trkpt lat="40.0716967" lon="-105.2299162">
  <ele>1583.05</ele>
  <time>2026-08-28T17:49:33Z</time>
  <course>357.04</course>
  <speed>1.6137533888422977</speed>
  <fix>3d</fix>
</trkpt>
<trkpt lat="40.0716933" lon="-105.2299158">
  <ele>1583.0</ele>
  <time>2026-08-28T17:49:33Z</time>
  <course>356.27</course>
  <speed>1.88</speed>
  <fix>3d</fix>
</trkpt>
<trkpt lat="40.0716981" lon="-105.2299163">
  <ele>1583.05</ele>
  <time>2026-08-28T17:49:33Z</time>
  <course>357.04</course>
  <speed>1.523975065412817</speed>
  <fix>3d</fix>
</trkpt>
<trkpt lat="40.0716965" lon="-105.2299161">
  <ele>1583.0</ele>
  <time>2026-08-28T17:49:33Z</time>
  <course>356.27</course>
  <speed>1.7</speed>
  <fix>3d</fix>
</trkpt>
<trkpt lat="40.0716995" lon="-105.2299165">
  <ele>1583.05</ele>
  <time>2026-08-28T17:49:33Z</time>
  <course>357.04</course>
  <speed>1.4334922392534952</speed>
  <fix>3d</fix>
</trkpt>
<trkpt lat="40.0716965" lon="-105.2299161">
  <ele>1583.0</ele>
  <time>2026-08-28T17:49:33Z</time>
  <course>356.27</course>
  <speed>1.7</speed>
  <fix>3d</fix>
</trkpt>
<trkpt lat="40.0717008" lon="-105.2299166">
  <ele>1583.04</ele>
  <time>2026-08-28T17:49:33Z</time>
  <course>357.04</course>
  <speed>1.3430189872075524</speed>
  <fix>3d</fix>
</trkpt>
<trkpt lat="40.0716994" lon="-105.2299164">
  <ele>1583.0</ele>
  <time>2026-08-28T17:49:33Z</time>
  <course>356.27</course>
  <speed>1.52</speed>
  <fix>3d</fix>
</trkpt>
<trkpt lat="40.071702" lon="-105.2299167">
  <ele>1583.04</ele>
  <time>2026-08-28T17:49:33Z</time>
  <course>357.04</course>
  <speed>1.2532358118087752</speed>
  <fix>3d</fix>
</trkpt>
<trkpt lat="40.0716994" lon="-105.2299164">
  <ele>1583.0</ele>
  <time>2026-08-28T17:49:33Z</time>
  <course>356.27</course>
  <speed>1.52</speed>
  <fix>3d</fix>
</trkpt>
<trkpt lat="40.0717031" lon="-105.2299167">
  <ele>1583.04</ele>
  <time>2026-08-28T17:49:33Z</time>
  <course>357.04</course>
  <speed>1.1627553482998907</speed>
  <fix>3d</fix>
</trkpt>
<trkpt lat="40.0716994" lon="-105.2299164">
  <ele>1583.0</ele>
  <time>2026-08-28T17:49:33Z</time>
  <course>356.27</course>
  <speed>1.52</speed>
  <fix>3d</fix>
</trkpt>
<trkpt lat="40.0717042" lon="-105.2299168">
  <ele>1583.04</ele>
  <time>2026-08-28T17:49:33Z</time>
  <course>357.04</course>
  <speed>1.0722872749408154</speed>
  <fix>3d</fix>
</trkpt>
<trkpt lat="40.0717019" lon="-105.2299166">
  <ele>1583.0</ele>
  <time>2026-08-28T17:49:33Z</time>
  <course>356.27</course>
  <speed>1.34</speed>
  <fix>3d</fix>
</trkpt>
<trkpt lat="40.0717051" lon="-105.2299169">
  <ele>1583.04</ele>
  <time>2026-08-28T17:49:33Z</time>
  <course>357.04</course>
  <speed>0.9818350166906862</speed>
  <fix>3d</fix>
</trkpt>
<trkpt lat="40.0717019" lon="-105.2299166">
  <ele>1583.0</ele>
  <time>2026-08-28T17:49:33Z</time>
  <course>356.27</course>
  <speed>1.34</speed>
  <fix>3d</fix>
</trkpt>
<trkpt lat="40.0717058" lon="-105.229917">
  <ele>1583.05</ele>
  <time>2026-08-28T17:49:33Z</time>
  <course>357.04</course>
  <speed>0.9019977827023744</speed>
  <fix>3d</fix>
</trkpt>
<trkpt lat="40.071706" lon="-105.229917">
  <ele>1583.05</ele>
  <time>2026-08-28T17:49:33Z</time>
  <course>357.04</course>
  <speed>0.8820430828479978</speed>
  <fix>3d</fix>
</trkpt>
<trkpt lat="40.0717042" lon="-105.2299167">
  <ele>1583.0</ele>
  <time>2026-08-28T17:49:33Z</time>
  <course>356.27</course>
  <speed>1.16</speed>
  <fix>3d</fix>
</trkpt>
<trkpt lat="40.0717068" lon="-105.229917">
  <ele>1583.05</ele>
  <time>2026-08-28T17:49:33Z</time>
  <course>357.05</course>
  <speed>0.8015609770940699</speed>
  <fix>3d</fix>
</trkpt>
<trkpt lat="40.0717042" lon="-105.2299167">
  <ele>1583.0</ele>
  <time>2026-08-28T17:49:33Z</time>
  <course>356.27</course>
  <speed>1.16</speed>
  <fix>3d</fix>
</trkpt>
<trkpt lat="40.0717075" lon="-105.2299171">
  <ele>1583.05</ele>
  <time>2026-08-28T17:49:33Z</time>
  <course>357.17</course>
  <speed>0.7510659092250159</speed>
  <fix>3d</fix>
</trkpt>
<trkpt lat="40.0717061" lon="-105.229917">
  <ele>1583.0</ele>
  <time>2026-08-28T17:49:33Z</time>
  <course>356.27</course>
  <speed>0.98</speed>
  <fix>3d</fix>
</trkpt>
<trkpt lat="40.0717082" lon="-105.2299171">
  <ele>1583.05</ele>
  <time>2026-08-28T17:49:33Z</time>
  <course>358.09</course>
  <speed>0.7206247289678588</speed>
  <fix>3d</fix>
</trkpt>
<trkpt lat="40.0717078" lon="-105.2299171">
  <ele>1583.0</ele>
  <time>2026-08-28T17:49:33Z</time>
  <course>356.77</course>
  <speed>0.85</speed>
  <fix>3d</fix>
</trkpt>
<trkpt lat="40.0717089" lon="-105.2299172">
  <ele>1583.05</ele>
  <time>2026-08-28T17:49:33Z</time>
  <course>359.04</course>
  <speed>0.7300684899377592</speed>
  <fix>3d</fix>
</trkpt>
<trkpt lat="40.0717078" lon="-105.2299171">
  <ele>1583.0</ele>
  <time>2026-08-28T17:49:33Z</time>
  <course>356.77</course>
  <speed>0.85</speed>
  <fix>3d</fix>
</trkpt>
<trkpt lat="40.0717096" lon="-105.2299172">
  <ele>1583.04</ele>
  <time>2026-08-28T17:49:33Z</time>
  <course>359.99</course>
  <speed>0.73</speed>
  <fix>3d</fix>
</trkpt>
<trkpt lat="40.0717093" lon="-105.2299171">
  <ele>1583.0</ele>
  <time>2026-08-28T17:49:33Z</time>
  <course>358.26</course>
  <speed>0.82</speed>
  <fix>3d</fix>
</trkpt>
<trkpt lat="40.0717104" lon="-105.2299171">
  <ele>1583.04</ele>
  <time>2026-08-28T17:49:33Z</time>
  <course>0.92</course>
  <speed>0.7200694410957876</speed>
  <fix>3d</fix>
</trkpt>
<trkpt lat="40.0717093" lon="-105.2299171">
  <ele>1583.0</ele>
  <time>2026-08-28T17:49:33Z</time>
  <course>358.26</course>
  <speed>0.82</speed>
  <fix>3d</fix>
</trkpt>
<trkpt lat="40.0717111" lon="-105.2299171">
  <ele>1583.04</ele>
  <time>2026-08-28T17:49:33Z</time>
  <course>1.83</course>
  <speed>0.7102816342831905</speed>
  <fix>3d</fix>
</trkpt>
<trkpt lat="40.0717108" lon="-105.2299171">
  <ele>1583.0</ele>
  <time>2026-08-28T17:49:33Z</time>
  <course>0.13</course>
  <speed>0.8</speed>
  <fix>3d</fix>
</trkpt>
<trkpt lat="40.0717118" lon="-105.2299171">
  <ele>1583.04</ele>
  <time>2026-08-28T17:49:33Z</time>
  <course>2.68</course>
  <speed>0.6811754546370561</speed>
  <fix>3d</fix>
</trkpt>
<trkpt lat="40.0717108" lon="-105.2299171">
  <ele>1583.0</ele>
  <time>2026-08-28T17:49:33Z</time>
  <course>0.13</course>
  <speed>0.8</speed>
  <fix>3d</fix>
</trkpt>
<trkpt lat="40.0717124" lon="-105.2299171">
  <ele>1583.04</ele>
  <time>2026-08-28T17:49:33Z</time>
  <course>3.43</course>
  <speed>0.6519202405202649</speed>
  <fix>3d</fix>
</trkpt>
<trkpt lat="40.0717122" lon="-105.2299171">
  <ele>1583.0</ele>
  <time>2026-08-28T17:49:33Z</time>
  <course>1.83</course>
  <speed>0.76</speed>
  <fix>3d</fix>
</trkpt>
<trkpt lat="40.0717131" lon="-105.229917">
  <ele>1583.03</ele>
  <time>2026-08-28T17:49:33Z</time>
  <course>4.09</course>
  <speed>0.6120457499239742</speed>
  <fix>3d</fix>
</trkpt>
<trkpt lat="40.0717122" lon="-105.2299171">
  <ele>1583.0</ele>
  <time>2026-08-28T17:49:33Z</time>
  <course>1.83</course>
  <speed>0.76</speed>
  <fix>3d</fix>
</trkpt>
<trkpt lat="40.0717137" lon="-105.229917">
  <ele>1583.03</ele>
  <time>2026-08-28T17:49:33Z</time>
  <course>4.64</course>
  <speed>0.58309518948453</speed>
  <fix>3d</fix>
</trkpt>
<trkpt lat="40.0717135" lon="-105.2299171">
  <ele>1583.0</ele>
  <time>2026-08-28T17:49:33Z</time>
  <course>3.22</course>
  <speed>0.69</speed>
  <fix>3d</fix>
</trkpt>
<trkpt lat="40.0717143" lon="-105.2299169">
  <ele>1583.03</ele>
  <time>2026-08-28T17:49:33Z</time>
  <course>5.1</course>
  <speed>0.5532630477449222</speed>
  <fix>3d</fix>
</trkpt>
<trkpt lat="40.0717135" lon="-105.2299171">
  <ele>1583.0</ele>
  <time>2026-08-28T17:49:33Z</time>
  <course>3.22</course>
  <speed>0.69</speed>
  <fix>3d</fix>
</trkpt>
<trkpt lat="40.0717148" lon="-105.2299168">
  <ele>1583.03</ele>
  <time>2026-08-28T17:49:33Z</time>
  <course>5.51</course>
  <speed>0.5246903848937962</speed>
  <fix>3d</fix>
</trkpt>
<trkpt lat="40.0717147" lon="-105.2299171">
  <ele>1583.0</ele>
  <time>2026-08-28T17:49:33Z</time>
  <course>4.27</course>
  <speed>0.63</speed>
  <fix>3d</fix>
</trkpt>
<trkpt lat="40.0717154" lon="-105.2299168">
  <ele>1583.03</ele>
  <time>2026-08-28T17:49:33Z</time>
  <course>5.87</course>
  <speed>0.5048762224545735</speed>
  <fix>3d</fix>
</trkpt>
<trkpt lat="40.0717147" lon="-105.2299171">
  <ele>1583.0</ele>
  <time>2026-08-28T17:49:33Z</time>
  <course>4.27</course>
  <speed>0.63</speed>
  <fix>3d</fix>
</trkpt>
<trkpt lat="40.0717159" lon="-105.2299167">
  <ele>1583.03</ele>
  <time>2026-08-28T17:49:33Z</time>
  <course>6.2</course>
  <speed>0.4949747468305833</speed>
  <fix>3d</fix>
</trkpt>
<trkpt lat="40.0717158" lon="-105.229917">
  <ele>1583.0</ele>
  <time>2026-08-28T17:49:33Z</time>
  <course>5.05</course>
  <speed>0.58</speed>
  <fix>3d</fix>
</trkpt>
<trkpt lat="40.0717164" lon="-105.2299166">
  <ele>1583.03</ele>
  <time>2026-08-28T17:49:33Z</time>
  <course>6.52</course>
  <speed>0.48662100242385753</speed>
  <fix>3d</fix>
</trkpt>
<trkpt lat="40.0717158" lon="-105.229917">
  <ele>1583.0</ele>
  <time>2026-08-28T17:49:33Z</time>
  <course>5.05</course>
  <speed>0.58</speed>
  <fix>3d</fix>
</trkpt>
<trkpt lat="40.0717169" lon="-105.2299165">
  <ele>1583.03</ele>
  <time>2026-08-28T17:49:33Z</time>
  <course>6.82</course>
  <speed>0.47675989764240867</speed>
  <fix>3d</fix>
</trkpt>
<trkpt lat="40.0717158" lon="-105.229917">
  <ele>1583.0</ele>
  <time>2026-08-28T17:49:33Z</time>
  <course>5.05</course>
  <speed>0.58</speed>
  <fix>3d</fix>
</trkpt>
<trkpt lat="40.0717174" lon="-105.2299165">
  <ele>1583.03</ele>
  <time>2026-08-28T17:49:33Z</time>
  <course>7.11</course>
  <speed>0.47675989764240867</speed>
  <fix>3d</fix>
</trkpt>
<trkpt lat="40.0717168" lon="-105.2299168">
  <ele>1583.0</ele>
  <time>2026-08-28T17:49:33Z</time>
  <course>5.71</course>
  <speed>0.55</speed>
  <fix>3d</fix>
</trkpt>
<trkpt lat="40.0717178" lon="-105.2299164">
  <ele>1583.03</ele>
  <time>2026-08-28T17:49:33Z</time>
  <course>7.41</course>
  <speed>0.4883646178829912</speed>
  <fix>3d</fix>
</trkpt>
<trkpt lat="40.0717168" lon="-105.2299168">
  <ele>1583.0</ele>
  <time>2026-08-28T17:49:33Z</time>
  <course>5.71</course>
  <speed>0.55</speed>
  <fix>3d</fix>
</trkpt>
<trkpt lat="40.0717183" lon="-105.2299163">
  <ele>1583.03</ele>
  <time>2026-08-28T17:49:33Z</time>
  <course>7.72</course>
  <speed>0.4883646178829912</speed>
  <fix>3d</fix>
</trkpt>
<trkpt lat="40.0717178" lon="-105.2299167">
  <ele>1583.0</ele>
  <time>2026-08-28T17:49:33Z</time>
  <course>6.31</course>
  <speed>0.54</speed>
  <fix>3d</fix>
</trkpt>
<trkpt lat="40.0717188" lon="-105.2299162">
  <ele>1583.03</ele>
  <time>2026-08-28T17:49:33Z</time>
  <course>8.04</course>
  <speed>0.498196748283246</speed>
  <fix>3d</fix>
</trkpt>
<trkpt lat="40.0717178" lon="-105.2299167">
  <ele>1583.0</ele>
  <time>2026-08-28T17:49:33Z</time>
  <course>6.31</course>
  <speed>0.54</speed>
  <fix>3d</fix>
</trkpt>
<trkpt lat="40.0717193" lon="-105.2299161">
  <ele>1583.03</ele>
  <time>2026-08-28T17:49:33Z</time>
  <course>8.38</course>
  <speed>0.5099019513592785</speed>
  <fix>3d</fix>
</trkpt>
<trkpt lat="40.0717188" lon="-105.2299166">
  <ele>1583.0</ele>
  <time>2026-08-28T17:49:33Z</time>
  <course>6.92</course>
  <speed>0.55</speed>
  <fix>3d</fix>
</trkpt>
<trkpt lat="40.0717199" lon="-105.229916">
  <ele>1583.03</ele>
  <time>2026-08-28T17:49:33Z</time>
  <course>8.74</course>
  <speed>0.5315072906367324</speed>
  <fix>3d</fix>
</trkpt>
<trkpt lat="40.0717188" lon="-105.2299166">
  <ele>1583.0</ele>
  <time>2026-08-28T17:49:33Z</time>
  <course>6.92</course>
  <speed>0.55</speed>
  <fix>3d</fix>
</trkpt>
<trkpt lat="40.0717204" lon="-105.2299159">
  <ele>1583.02</ele>
  <time>2026-08-28T17:49:33Z</time>
  <course>9.13</course>
  <speed>0.5412947441089743</speed>
  <fix>3d</fix>
</trkpt>
<trkpt lat="40.0717197" lon="-105.2299164">
  <ele>1583.0</ele>
  <time>2026-08-28T17:49:33Z</time>
  <course>7.57</course>
  <speed>0.56</speed>
  <fix>3d</fix>
</trkpt>
<trkpt lat="40.0717209" lon="-105.2299158">
  <ele>1583.02</ele>
  <time>2026-08-28T17:49:33Z</time>
  <course>9.54</course>
  <speed>0.5531726674375732</speed>
  <fix>3d</fix>
</trkpt>
<trkpt lat="40.0717207" lon="-105.2299161">
  <ele>1583.0</ele>
  <time>2026-08-28T17:49:33Z</time>
  <course>8.32</course>
  <speed>0.58</speed>
  <fix>3d</fix>
</trkpt>
<trkpt lat="40.0717215" lon="-105.2299157">
  <ele>1583.02</ele>
  <time>2026-08-28T17:49:33Z</time>
  <course>9.98</course>
  <speed>0.5651548460377916</speed>
  <fix>3d</fix>
</trkpt>
<trkpt lat="40.0717207" lon="-105.2299161">
  <ele>1583.0</ele>
  <time>2026-08-28T17:49:33Z</time>
  <course>8.32</course>
  <speed>0.58</speed>
  <fix>3d</fix>
</trkpt>
<trkpt lat="40.071722" lon="-105.2299156">
  <ele>1583.02</ele>
  <time>2026-08-28T17:49:33Z</time>
  <course>10.44</course>
  <speed>0.5846366392897386</speed>
  <fix>3d</fix>
</trkpt>
<trkpt lat="40.0717218" lon="-105.229916">
  <ele>1583.0</ele>
  <time>2026-08-28T17:49:33Z</time>
  <course>9.16</course>
  <speed>0.61</speed>
  <fix>3d</fix>
</trkpt>
<trkpt lat="40.0717226" lon="-105.2299155">
  <ele>1583.03</ele>
  <time>2026-08-28T17:49:33Z</time>
  <course>10.94</course>
  <speed>0.5966573556070519</speed>
  <fix>3d</fix>
</trkpt>
<trkpt lat="40.0717218" lon="-105.229916">
  <ele>1583.0</ele>
  <time>2026-08-28T17:49:33Z</time>
  <course>9.16</course>
  <speed>0.61</speed>
  <fix>3d</fix>
</trkpt>
<trkpt lat="40.0717232" lon="-105.2299153">
  <ele>1583.03</ele>
  <time>2026-08-28T17:49:33Z</time>
  <course>11.47</course>
  <speed>0.608769250208977</speed>
  <fix>3d</fix>
</trkpt>
<trkpt lat="40.0717229" lon="-105.2299157">
  <ele>1583.0</ele>
  <time>2026-08-28T17:49:33Z</time>
  <course>10.13</course>
  <speed>0.63</speed>
  <fix>3d</fix>
</trkpt>
<trkpt lat="40.0717238" lon="-105.2299152">
  <ele>1583.03</ele>
  <time>2026-08-28T17:49:33Z</time>
  <course>12.02</course>
  <speed>0.6209669878504009</speed>
  <fix>3d</fix>
</trkpt>
<trkpt lat="40.0717229" lon="-105.2299157">
  <ele>1583.0</ele>
  <time>2026-08-28T17:49:33Z</time>
  <course>10.13</course>
  <speed>0.63</speed>
  <fix>3d</fix>
</trkpt>
<trkpt lat="40.0717244" lon="-105.229915">
  <ele>1583.03</ele>
  <time>2026-08-28T17:49:33Z</time>
  <course>12.61</course>
  <speed>0.6332456079595026</speed>
  <fix>3d</fix>
</trkpt>
<trkpt lat="40.0717241" lon="-105.2299155">
  <ele>1583.0</ele>
  <time>2026-08-28T17:49:33Z</time>
  <course>11.21</course>
  <speed>0.65</speed>
  <fix>3d</fix>
</trkpt>
<trkpt lat="40.071725" lon="-105.2299148">
  <ele>1583.03</ele>
  <time>2026-08-28T17:49:33Z</time>
  <course>13.23</course>
  <speed>0.6456004956627589</speed>
  <fix>3d</fix>
</trkpt>
<trkpt lat="40.0717241" lon="-105.2299155">
  <ele>1583.0</ele>
  <time>2026-08-28T17:49:33Z</time>
  <course>11.21</course>
  <speed>0.65</speed>
  <fix>3d</fix>
</trkpt>
<trkpt lat="40.0717256" lon="-105.2299146">
  <ele>1583.03</ele>
  <time>2026-08-28T17:49:33Z</time>
  <course>13.87</course>
  <speed>0.6580273550544841</speed>
  <fix>3d</fix>
</trkpt>
<trkpt lat="40.0717253" lon="-105.2299151">
  <ele>1583.0</ele>
  <time>2026-08-28T17:49:33Z</time>
  <course>12.41</course>
  <speed>0.67</speed>
  <fix>3d</fix>
</trkpt>
<trkpt lat="40.0717262" lon="-105.2299144">
  <ele>1583.03</ele>
  <time>2026-08-28T17:49:33Z</time>
  <course>14.54</course>
  <speed>0.6580273550544841</speed>
  <fix>3d</fix>
</trkpt>
<trkpt lat="40.0717253" lon="-105.2299151">
  <ele>1583.0</ele>
  <time>2026-08-28T17:49:33Z</time>
  <course>12.41</course>
  <speed>0.67</speed>
  <fix>3d</fix>
</trkpt>
<trkpt lat="40.0717268" lon="-105.2299142">
  <ele>1583.03</ele>
  <time>2026-08-28T17:49:33Z</time>
  <course>15.22</course>
  <speed>0.6705221845696084</speed>
  <fix>3d</fix>
</trkpt>
<trkpt lat="40.0717264" lon="-105.2299147">
  <ele>1583.0</ele>
  <time>2026-08-28T17:49:33Z</time>
  <course>13.71</course>
  <speed>0.68</speed>
  <fix>3d</fix>
</trkpt>
<trkpt lat="40.0717275" lon="-105.229914">
  <ele>1583.03</ele>
  <time>2026-08-28T17:49:33Z</time>
  <course>15.93</course>
  <speed>0.6735725647619565</speed>
  <fix>3d</fix>
</trkpt>
<trkpt lat="40.0717264" lon="-105.2299147">
  <ele>1583.0</ele>
  <time>2026-08-28T17:49:33Z</time>
  <course>13.71</course>
  <speed>0.68</speed>
  <fix>3d</fix>
</trkpt>
<trkpt lat="40.0717281" lon="-105.2299138">
  <ele>1583.03</ele>
  <time>2026-08-28T17:49:33Z</time>
  <course>16.65</course>
  <speed>0.6767569726275453</speed>
  <fix>3d</fix>
</trkpt>
<trkpt lat="40.0717276" lon="-105.2299144">
  <ele>1583.0</ele>
  <time>2026-08-28T17:49:33Z</time>
  <course>15.09</course>
  <speed>0.69</speed>
  <fix>3d</fix>
</trkpt>
<trkpt lat="40.0717287" lon="-105.2299135">
  <ele>1583.03</ele>
  <time>2026-08-28T17:49:33Z</time>
  <course>17.38</course>
  <speed>0.6800735254367721</speed>
  <fix>3d</fix>
</trkpt>
<trkpt lat="40.0717276" lon="-105.2299144">
  <ele>1583.0</ele>
  <time>2026-08-28T17:49:33Z</time>
  <course>15.09</course>
  <speed>0.69</speed>
  <fix>3d</fix>
</trkpt>
<trkpt lat="40.0717293" lon="-105.2299133">
  <ele>1583.03</ele>
  <time>2026-08-28T17:49:33Z</time>
  <course>18.12</course>
  <speed>0.6835202996254024</speed>
  <fix>3d</fix>
</trkpt>
<trkpt lat="40.0717276" lon="-105.2299144">
  <ele>1583.0</ele>
  <time>2026-08-28T17:49:33Z</time>
  <course>15.09</course>
  <speed>0.69</speed>
  <fix>3d</fix>
</trkpt>
<trkpt lat="40.0717299" lon="-105.229913">
  <ele>1583.03</ele>
  <time>2026-08-28T17:49:33Z</time>
  <course>18.87</course>
  <speed>0.6870953354520754</speed>
  <fix>3d</fix>
</trkpt>
<trkpt lat="40.0717288" lon="-105.2299139">
  <ele>1583.0</ele>
  <time>2026-08-28T17:49:33Z</time>
  <course>16.54</course>
  <speed>0.7</speed>
  <fix>3d</fix>
</trkpt>
<trkpt lat="40.0717305" lon="-105.2299128">
  <ele>1583.03</ele>
  <time>2026-08-28T17:49:33Z</time>
  <course>19.62</course>
  <speed>0.6907966415668217</speed>
  <fix>3d</fix>
</trkpt>
<trkpt lat="40.0717288" lon="-105.2299139">
  <ele>1583.0</ele>
  <time>2026-08-28T17:49:33Z</time>
  <course>16.54</course>
  <speed>0.7</speed>
  <fix>3d</fix>
</trkpt>
<trkpt lat="40.0717311" lon="-105.2299125">
  <ele>1583.03</ele>
  <time>2026-08-28T17:49:33Z</time>
  <course>20.37</course>
  <speed>0.6946221994724903</speed>
  <fix>3d</fix>
</trkpt>
<trkpt lat="40.07173" lon="-105.2299134">
  <ele>1583.0</ele>
  <time>2026-08-28T17:49:33Z</time>
  <course>18.03</course>
  <speed>0.7</speed>
  <fix>3d</fix>
</trkpt>
<trkpt lat="40.0717317" lon="-105.2299122">
  <ele>1583.04</ele>
  <time>2026-08-28T17:49:33Z</time>
  <course>21.12</course>
  <speed>0.6854195795277518</speed>
  <fix>3d</fix>
</trkpt>
<trkpt lat="40.07173" lon="-105.2299134">
  <ele>1583.0</ele>
  <time>2026-08-28T17:49:33Z</time>
  <course>18.03</course>
  <speed>0.7</speed>
  <fix>3d</fix>
</trkpt>
<trkpt lat="40.0717323" lon="-105.2299119">
  <ele>1583.04</ele>
  <time>2026-08-28T17:49:33Z</time>
  <course>21.86</course>
  <speed>0.6894200461257273</speed>
  <fix>3d</fix>
</trkpt>
<trkpt lat="40.0717312" lon="-105.2299129">
  <ele>1583.0</ele>
  <time>2026-08-28T17:49:33Z</time>
  <course>19.53</course>
  <speed>0.7</speed>
  <fix>3d</fix>
</trkpt>
<trkpt lat="40.0717329" lon="-105.2299116">
  <ele>1583.04</ele>
  <time>2026-08-28T17:49:33Z</time>
  <course>22.61</course>
  <speed>0.6844705983459041</speed>
  <fix>3d</fix>
</trkpt>
<trkpt lat="40.0717324" lon="-105.2299123">
  <ele>1583.0</ele>
  <time>2026-08-28T17:49:33Z</time>
  <course>21.02</course>
  <speed>0.69</speed>
  <fix>3d</fix>
</trkpt>
<trkpt lat="40.0717335" lon="-105.2299113">
  <ele>1583.04</ele>
  <time>2026-08-28T17:49:33Z</time>
  <course>23.34</course>
  <speed>0.6844705983459041</speed>
  <fix>3d</fix>
</trkpt>
<trkpt lat="40.0717324" lon="-105.2299123">
  <ele>1583.0</ele>
  <time>2026-08-28T17:49:33Z</time>
  <course>21.02</course>
  <speed>0.69</speed>
  <fix>3d</fix>
</trkpt>
<trkpt lat="40.0717341" lon="-105.229911">
  <ele>1583.04</ele>
  <time>2026-08-28T17:49:33Z</time>
  <course>24.07</course>
  <speed>0.6797793759742936</speed>
  <fix>3d</fix>
</trkpt>
<trkpt lat="40.0717336" lon="-105.2299118">
  <ele>1583.0</ele>
  <time>2026-08-28T17:49:33Z</time>
  <course>22.49</course>
  <speed>0.69</speed>
  <fix>3d</fix>
</trkpt>
<trkpt lat="40.0717346" lon="-105.2299107">
  <ele>1583.04</ele>
  <time>2026-08-28T17:49:33Z</time>
  <course>24.78</course>
  <speed>0.6842514157822401</speed>
  <fix>3d</fix>
</trkpt>
<trkpt lat="40.0717336" lon="-105.2299118">
  <ele>1583.0</ele>
  <time>2026-08-28T17:49:33Z</time>
  <course>22.49</course>
  <speed>0.69</speed>
  <fix>3d</fix>
</trkpt>
<trkpt lat="40.0717352" lon="-105.2299104">
  <ele>1583.04</ele>
  <time>2026-08-28T17:49:33Z</time>
  <course>25.49</course>
  <speed>0.6753517601961218</speed>
  <fix>3d</fix>
</trkpt>
<trkpt lat="40.0717347" lon="-105.2299111">
  <ele>1583.0</ele>
  <time>2026-08-28T17:49:33Z</time>
  <course>23.94</course>
  <speed>0.68</speed>
  <fix>3d</fix>
</trkpt>
<trkpt lat="40.0717358" lon="-105.22991">
  <ele>1583.03</ele>
  <time>2026-08-28T17:49:33Z</time>
  <course>26.2</course>
  <speed>0.68</speed>
  <fix>3d</fix>
</trkpt>
<trkpt lat="40.0717347" lon="-105.2299111">
  <ele>1583.0</ele>
  <time>2026-08-28T17:49:33Z</time>
  <course>23.94</course>
  <speed>0.68</speed>
  <fix>3d</fix>
</trkpt>
<trkpt lat="40.0717363" lon="-105.2299097">
  <ele>1583.03</ele>
  <time>2026-08-28T17:49:33Z</time>
  <course>26.91</course>
  <speed>0.6711929677819934</speed>
  <fix>3d</fix>
</trkpt>
<trkpt lat="40.0717358" lon="-105.2299104">
  <ele>1583.0</ele>
  <time>2026-08-28T17:49:33Z</time>
  <course>25.37</course>
  <speed>0.68</speed>
  <fix>3d</fix>
</trkpt>
<trkpt lat="40.0717369" lon="-105.2299093">
  <ele>1583.03</ele>
  <time>2026-08-28T17:49:33Z</time>
  <course>27.61</course>
  <speed>0.6760177512462228</speed>
  <fix>3d</fix>
</trkpt>
<trkpt lat="40.0717358" lon="-105.2299104">
  <ele>1583.0</ele>
  <time>2026-08-28T17:49:33Z</time>
  <course>25.37</course>
  <speed>0.68</speed>
  <fix>3d</fix>
</trkpt>
<trkpt lat="40.0717374" lon="-105.229909">
  <ele>1583.04</ele>
  <time>2026-08-28T17:49:33Z</time>
  <course>28.29</course>
  <speed>0.6673080248281148</speed>
  <fix>3d</fix>
</trkpt>
<trkpt lat="40.0717369" lon="-105.2299097">
  <ele>1583.0</ele>
  <time>2026-08-28T17:49:33Z</time>
  <course>26.76</course>
  <speed>0.67</speed>
  <fix>3d</fix>
</trkpt>
<trkpt lat="40.071738" lon="-105.2299086">
  <ele>1583.04</ele>
  <time>2026-08-28T17:49:33Z</time>
  <course>28.97</course>
  <speed>0.6723094525588644</speed>
  <fix>3d</fix>
</trkpt>
<trkpt lat="40.0717369" lon="-105.2299097">
  <ele>1583.0</ele>
  <time>2026-08-28T17:49:33Z</time>
  <course>26.76</course>
  <speed>0.67</speed>
  <fix>3d</fix>
</trkpt>
<trkpt lat="40.0717385" lon="-105.2299082">
  <ele>1583.03</ele>
  <time>2026-08-28T17:49:33Z</time>
  <course>29.65</course>
  <speed>0.6688796603276258</speed>
  <fix>3d</fix>
</trkpt>
<trkpt lat="40.071738" lon="-105.229909">
  <ele>1583.0</ele>
  <time>2026-08-28T17:49:33Z</time>
  <course>28.13</course>
  <speed>0.67</speed>
  <fix>3d</fix>
</trkpt>
<trkpt lat="40.0717391" lon="-105.2299078">
  <ele>1583.03</ele>
  <time>2026-08-28T17:49:33Z</time>
  <course>30.32</course>
  <speed>0.6688796603276258</speed>
  <fix>3d</fix>
</trkpt>
<trkpt lat="40.071738" lon="-105.229909">
  <ele>1583.0</ele>
  <time>2026-08-28T17:49:33Z</time>
  <course>28.13</course>
  <speed>0.67</speed>
  <fix>3d</fix>
</trkpt>
<trkpt lat="40.0717396" lon="-105.2299075">
  <ele>1583.03</ele>
  <time>2026-08-28T17:49:33Z</time>
  <course>30.99</course>
  <speed>0.6657326790837296</speed>
  <fix>3d</fix>
</trkpt>
<trkpt lat="40.0717391" lon="-105.2299083">
  <ele>1583.0</ele>
  <time>2026-08-28T17:49:33Z</time>
  <course>29.48</course>
  <speed>0.66</speed>
  <fix>3d</fix>
</trkpt>
<trkpt lat="40.0717401" lon="-105.2299071">
  <ele>1583.03</ele>
  <time>2026-08-28T17:49:33Z</time>
  <course>31.65</course>
  <speed>0.6657326790837296</speed>
  <fix>3d</fix>
</trkpt>
<trkpt lat="40.0717391" lon="-105.2299083">
  <ele>1583.0</ele>
  <time>2026-08-28T17:49:33Z</time>
  <course>29.48</course>
  <speed>0.66</speed>
  <fix>3d</fix>
</trkpt>
<trkpt lat="40.0717406" lon="-105.2299067">
  <ele>1583.03</ele>
  <time>2026-08-28T17:49:33Z</time>
  <course>32.31</course>
  <speed>0.662872536767062</speed>
  <fix>3d</fix>
</trkpt>
<trkpt lat="40.0717391" lon="-105.2299083">
  <ele>1583.0</ele>
  <time>2026-08-28T17:49:33Z</time>
  <course>29.48</course>
  <speed>0.66</speed>
  <fix>3d</fix>
</trkpt>
<trkpt lat="40.0717411" lon="-105.2299063">
  <ele>1583.03</ele>
  <time>2026-08-28T17:49:33Z</time>
  <course>32.97</course>
  <speed>0.662872536767062</speed>
  <fix>3d</fix>
</trkpt>
<trkpt lat="40.0717401" lon="-105.2299075">
  <ele>1583.0</ele>
  <time>2026-08-28T17:49:33Z</time>
  <course>30.82</course>
  <speed>0.66</speed>
  <fix>3d</fix>
</trkpt>
<trkpt lat="40.0717416" lon="-105.2299059">
  <ele>1583.02</ele>
  <time>2026-08-28T17:49:33Z</time>
  <course>33.62</course>
  <speed>0.660302960768767</speed>
  <fix>3d</fix>
</trkpt>
<trkpt lat="40.0717401" lon="-105.2299075">
  <ele>1583.0</ele>
  <time>2026-08-28T17:49:33Z</time>
  <course>30.82</course>
  <speed>0.66</speed>
  <fix>3d</fix>
</trkpt>
<trkpt lat="40.0717421" lon="-105.2299054">
  <ele>1583.02</ele>
  <time>2026-08-28T17:49:33Z</time>
  <course>34.28</course>
  <speed>0.660302960768767</speed>
  <fix>3d</fix>
</trkpt>
<trkpt lat="40.0717412" lon="-105.2299066">
  <ele>1583.0</ele>
  <time>2026-08-28T17:49:33Z</time>
  <course>32.14</course>
  <speed>0.66</speed>
  <fix>3d</fix>
</trkpt>
<trkpt lat="40.0717426" lon="-105.229905">
  <ele>1583.02</ele>
  <time>2026-08-28T17:49:33Z</time>
  <course>34.92</course>
  <speed>0.6580273550544841</speed>
  <fix>3d</fix>
</trkpt>
<trkpt lat="40.0717412" lon="-105.2299066">
  <ele>1583.0</ele>
  <time>2026-08-28T17:49:33Z</time>
  <course>32.14</course>
  <speed>0.66</speed>
  <fix>3d</fix>
</trkpt>
<trkpt lat="40.0717431" lon="-105.2299046">
  <ele>1583.02</ele>
  <time>2026-08-28T17:49:33Z</time>
  <course>35.56</course>
  <speed>0.6580273550544841</speed>
  <fix>3d</fix>
</trkpt>
<trkpt lat="40.0717422" lon="-105.2299058">
  <ele>1583.0</ele>
  <time>2026-08-28T17:49:33Z</time>
  <course>33.44</course>
  <speed>0.66</speed>
  <fix>3d</fix>
</trkpt>
<trkpt lat="40.0717436" lon="-105.2299042">
  <ele>1583.02</ele>
  <time>2026-08-28T17:49:33Z</time>
  <course>36.21</course>
  <speed>0.656048778674269</speed>
  <fix>3d</fix>
</trkpt>
<trkpt lat="40.0717422" lon="-105.2299058">
  <ele>1583.0</ele>
  <time>2026-08-28T17:49:33Z</time>
  <course>33.44</course>
  <speed>0.66</speed>
  <fix>3d</fix>
</trkpt>
<trkpt lat="40.0717441" lon="-105.2299037">
  <ele>1583.01</ele>
  <time>2026-08-28T17:49:33Z</time>
  <course>36.85</course>
  <speed>0.656048778674269</speed>
  <fix>3d</fix>
</trkpt>
<trkpt lat="40.0717431" lon="-105.2299049">
  <ele>1583.0</ele>
  <time>2026-08-28T17:49:33Z</time>
  <course>34.74</course>
  <speed>0.65</speed>
  <fix>3d</fix>
</trkpt>
<trkpt lat="40.0717446" lon="-105.2299033">
  <ele>1583.01</ele>
  <time>2026-08-28T17:49:33Z</time>
  <course>37.48</course>
  <speed>0.6481512169239521</speed>
  <fix>3d</fix>
</trkpt>
<trkpt lat="40.071744" lon="-105.229904">
  <ele>1583.0</ele>
  <time>2026-08-28T17:49:33Z</time>
  <course>36.01</course>
  <speed>0.65</speed>
  <fix>3d</fix>
</trkpt>
<trkpt lat="40.071745" lon="-105.2299028">
  <ele>1583.01</ele>
  <time>2026-08-28T17:49:33Z</time>
  <course>38.12</course>
  <speed>0.6543699259593154</speed>
  <fix>3d</fix>
</trkpt>
<trkpt lat="40.071744" lon="-105.229904">
  <ele>1583.0</ele>
  <time>2026-08-28T17:49:33Z</time>
  <course>36.01</course>
  <speed>0.65</speed>
  <fix>3d</fix>
</trkpt>
<trkpt lat="40.0717455" lon="-105.2299023">
  <ele>1583.01</ele>
  <time>2026-08-28T17:49:33Z</time>
  <course>38.74</course>
  <speed>0.6466065264130885</speed>
  <fix>3d</fix>
</trkpt>
<trkpt lat="40.071745" lon="-105.2299031">
  <ele>1583.0</ele>
  <time>2026-08-28T17:49:33Z</time>
  <course>37.28</course>
  <speed>0.65</speed>
  <fix>3d</fix>
</trkpt>
<trkpt lat="40.071746" lon="-105.2299019">
  <ele>1583.01</ele>
  <time>2026-08-28T17:49:33Z</time>
  <course>39.37</course>
  <speed>0.6529931086925803</speed>
  <fix>3d</fix>
</trkpt>
<trkpt lat="40.071745" lon="-105.2299031">
  <ele>1583.0</ele>
  <time>2026-08-28T17:49:33Z</time>
  <course>37.28</course>
  <speed>0.65</speed>
  <fix>3d</fix>
</trkpt>
<trkpt lat="40.0717464" lon="-105.2299014">
  <ele>1583.01</ele>
  <time>2026-08-28T17:49:33Z</time>
  <course>40.01</course>
  <speed>0.6519202405202649</speed>
  <fix>3d</fix>
</trkpt>
<trkpt lat="40.0717459" lon="-105.2299022">
  <ele>1583.0</ele>
  <time>2026-08-28T17:49:33Z</time>
  <course>38.55</course>
  <speed>0.65</speed>
  <fix>3d</fix>
</trkpt>
<trkpt lat="40.0717469" lon="-105.2299009">
  <ele>1583.0</ele>
  <time>2026-08-28T17:49:33Z</time>
  <course>40.65</course>
  <speed>0.6519202405202649</speed>
  <fix>3d</fix>
</trkpt>
<trkpt lat="40.0717459" lon="-105.2299022">
  <ele>1583.0</ele>
  <time>2026-08-28T17:49:33Z</time>
  <course>38.55</course>
  <speed>0.65</speed>
  <fix>3d</fix>
</trkpt>
<trkpt lat="40.0717473" lon="-105.2299004">
  <ele>1583.0</ele>
  <time>2026-08-28T17:49:33Z</time>
  <course>41.3</course>
  <speed>0.6585590330410782</speed>
  <fix>3d</fix>
</trkpt>
<trkpt lat="40.0717468" lon="-105.2299012">
  <ele>1583.0</ele>
  <time>2026-08-28T17:49:33Z</time>
  <course>39.82</course>
  <speed>0.65</speed>
  <fix>3d</fix>
</trkpt>
<trkpt lat="40.0717478" lon="-105.2298999">
  <ele>1583.0</ele>
  <time>2026-08-28T17:49:33Z</time>
  <course>41.94</course>
  <speed>0.6511528238439882</speed>
  <fix>3d</fix>
</trkpt>
<trkpt lat="40.0717468" lon="-105.2299012">
  <ele>1583.0</ele>
  <time>2026-08-28T17:49:33Z</time>
  <course>39.82</course>
  <speed>0.65</speed>
  <fix>3d</fix>
</trkpt>
<trkpt lat="40.0717482" lon="-105.2298994">
  <ele>1583.0</ele>
  <time>2026-08-28T17:49:33Z</time>
  <course>42.59</course>
  <speed>0.6579513659838392</speed>
  <fix>3d</fix>
</trkpt>
<trkpt lat="40.0717477" lon="-105.2299002">
  <ele>1583.0</ele>
  <time>2026-08-28T17:49:33Z</time>
  <course>41.11</course>
  <speed>0.66</speed>
  <fix>3d</fix>
</trkpt>
<trkpt lat="40.0717486" lon="-105.2298989">
  <ele>1583.0</ele>
  <time>2026-08-28T17:49:33Z</time>
  <course>43.24</course>
  <speed>0.6576473218982953</speed>
  <fix>3d</fix>
</trkpt>
<trkpt lat="40.0717477" lon="-105.2299002">
  <ele>1583.0</ele>
  <time>2026-08-28T17:49:33Z</time>
  <course>41.11</course>
  <speed>0.66</speed>
  <fix>3d</fix>
</trkpt>
<trkpt lat="40.0717491" lon="-105.2298983">
  <ele>1583.0</ele>
  <time>2026-08-28T17:49:33Z</time>
  <course>43.88</course>
  <speed>0.6576473218982953</speed>
  <fix>3d</fix>
</trkpt>
<trkpt lat="40.0717486" lon="-105.2298991">
  <ele>1583.0</ele>
  <time>2026-08-28T17:49:33Z</time>
  <course>42.4</course>
  <speed>0.66</speed>
  <fix>3d</fix>
</trkpt>
<trkpt lat="40.0717495" lon="-105.2298978">
  <ele>1583.0</ele>
  <time>2026-08-28T17:49:33Z</time>
  <course>44.53</course>
  <speed>0.6576473218982953</speed>
  <fix>3d</fix>
</trkpt>
<trkpt lat="40.0717486" lon="-105.2298991">
  <ele>1583.0</ele>
  <time>2026-08-28T17:49:33Z</time>
  <course>42.4</course>
  <speed>0.66</speed>
  <fix>3d</fix>
</trkpt>
<trkpt lat="40.0717499" lon="-105.2298973">
  <ele>1583.0</ele>
  <time>2026-08-28T17:49:33Z</time>
  <course>45.18</course>
  <speed>0.6576473218982953</speed>
  <fix>3d</fix>
</trkpt>
<trkpt lat="40.0717495" lon="-105.2298981">
  <ele>1583.0</ele>
  <time>2026-08-28T17:49:33Z</time>
  <course>43.69</course>
  <speed>0.66</speed>
  <fix>3d</fix>
</trkpt>
<trkpt lat="40.0717504" lon="-105.2298967">
  <ele>1583.0</ele>
  <time>2026-08-28T17:49:33Z</time>
  <course>45.83</course>
  <speed>0.6579513659838392</speed>
  <fix>3d</fix>
</trkpt>
<trkpt lat="40.0717495" lon="-105.2298981">
  <ele>1583.0</ele>
  <time>2026-08-28T17:49:33Z</time>
  <course>43.69</course>
  <speed>0.66</speed>
  <fix>3d</fix>
</trkpt>
<trkpt lat="40.0717508" lon="-105.2298962">
  <ele>1583.0</ele>
  <time>2026-08-28T17:49:33Z</time>
  <course>46.49</course>
  <speed>0.6579513659838392</speed>
  <fix>3d</fix>
</trkpt>
<trkpt lat="40.0717495" lon="-105.2298981">
  <ele>1583.0</ele>
  <time>2026-08-28T17:49:33Z</time>
  <course>43.69</course>
  <speed>0.66</speed>
  <fix>3d</fix>
</trkpt>
<trkpt lat="40.0717512" lon="-105.2298956">
  <ele>1583.0</ele>
  <time>2026-08-28T17:49:33Z</time>
  <course>47.15</course>
  <speed>0.6585590330410782</speed>
  <fix>3d</fix>
</trkpt>
<trkpt lat="40.0717504" lon="-105.229897">
  <ele>1583.0</ele>
  <time>2026-08-28T17:49:33Z</time>
  <course>44.99</course>
  <speed>0.66</speed>
  <fix>3d</fix>
</trkpt>
<trkpt lat="40.0717516" lon="-105.229895">
  <ele>1583.0</ele>
  <time>2026-08-28T17:49:33Z</time>
  <course>47.8</course>
  <speed>0.6585590330410782</speed>
  <fix>3d</fix>
</trkpt>
<trkpt lat="40.0717504" lon="-105.229897">
  <ele>1583.0</ele>
  <time>2026-08-28T17:49:33Z</time>
  <course>44.99</course>
  <speed>0.66</speed>
  <fix>3d</fix>
</trkpt>
<trkpt lat="40.071752" lon="-105.2298945">
  <ele>1583.0</ele>
  <time>2026-08-28T17:49:33Z</time>
  <course>48.46</course>
  <speed>0.6594694837519018</speed>
  <fix>3d</fix>
</trkpt>
<trkpt lat="40.0717512" lon="-105.2298959">
  <ele>1583.0</ele>
  <time>2026-08-28T17:49:33Z</time>
  <course>46.3</course>
  <speed>0.66</speed>
  <fix>3d</fix>
</trkpt>
<trkpt lat="40.0717524" lon="-105.2298939">
  <ele>1583.01</ele>
  <time>2026-08-28T17:49:33Z</time>
  <course>49.12</course>
  <speed>0.6529931086925803</speed>
  <fix>3d</fix>
</trkpt>
<trkpt lat="40.0717512" lon="-105.2298959">
  <ele>1583.0</ele>
  <time>2026-08-28T17:49:33Z</time>
  <course>46.3</course>
  <speed>0.66</speed>
  <fix>3d</fix>
</trkpt>
<trkpt lat="40.0717528" lon="-105.2298933">
  <ele>1583.01</ele>
  <time>2026-08-28T17:49:33Z</time>
  <course>49.77</course>
  <speed>0.6606814663663572</speed>
  <fix>3d</fix>
</trkpt>
<trkpt lat="40.0717521" lon="-105.2298947">
  <ele>1583.0</ele>
  <time>2026-08-28T17:49:33Z</time>
  <course>47.61</course>
  <speed>0.66</speed>
  <fix>3d</fix>
</trkpt>
<trkpt lat="40.0717532" lon="-105.2298927">
  <ele>1583.01</ele>
  <time>2026-08-28T17:49:33Z</time>
  <course>50.43</course>
  <speed>0.6543699259593154</speed>
  <fix>3d</fix>
</trkpt>
<trkpt lat="40.0717528" lon="-105.2298936">
  <ele>1583.0</ele>
  <time>2026-08-28T17:49:33Z</time>
  <course>48.92</course>
  <speed>0.66</speed>
  <fix>3d</fix>
</trkpt>
<trkpt lat="40.0717536" lon="-105.2298921">
  <ele>1583.02</ele>
  <time>2026-08-28T17:49:33Z</time>
  <course>51.08</course>
  <speed>0.6621933252457322</speed>
  <fix>3d</fix>
</trkpt>
<trkpt lat="40.0717528" lon="-105.2298936">
  <ele>1583.0</ele>
  <time>2026-08-28T17:49:33Z</time>
  <course>48.92</course>
  <speed>0.66</speed>
  <fix>3d</fix>
</trkpt>
<trkpt lat="40.0717539" lon="-105.2298915">
  <ele>1583.02</ele>
  <time>2026-08-28T17:49:33Z</time>
  <course>51.74</course>
  <speed>0.656048778674269</speed>
  <fix>3d</fix>
</trkpt>
<trkpt lat="40.0717536" lon="-105.2298923">
  <ele>1583.0</ele>
  <time>2026-08-28T17:49:33Z</time>
  <course>50.23</course>
  <speed>0.67</speed>
  <fix>3d</fix>
</trkpt>
<trkpt lat="40.0717543" lon="-105.2298909">
  <ele>1583.02</ele>
  <time>2026-08-28T17:49:33Z</time>
  <course>52.39</course>
  <speed>0.6580273550544841</speed>
  <fix>3d</fix>
</trkpt>
<trkpt lat="40.0717536" lon="-105.2298923">
  <ele>1583.0</ele>
  <time>2026-08-28T17:49:33Z</time>
  <course>50.23</course>
  <speed>0.67</speed>
  <fix>3d</fix>
</trkpt>
<trkpt lat="40.0717547" lon="-105.2298903">
  <ele>1583.03</ele>
  <time>2026-08-28T17:49:33Z</time>
  <course>53.05</course>
  <speed>0.6580273550544841</speed>
  <fix>3d</fix>
</trkpt>
<trkpt lat="40.0717544" lon="-105.2298912">
  <ele>1583.0</ele>
  <time>2026-08-28T17:49:33Z</time>
  <course>51.54</course>
  <speed>0.67</speed>
  <fix>3d</fix>
</trkpt>
<trkpt lat="40.0717551" lon="-105.2298897">
  <ele>1583.03</ele>
  <time>2026-08-28T17:49:33Z</time>
  <course>53.72</course>
  <speed>0.660302960768767</speed>
  <fix>3d</fix>
</trkpt>
<trkpt lat="40.0717544" lon="-105.2298912">
  <ele>1583.0</ele>
  <time>2026-08-28T17:49:33Z</time>
  <course>51.54</course>
  <speed>0.67</speed>
  <fix>3d</fix>
</trkpt>
<trkpt lat="40.0717554" lon="-105.229889">
  <ele>1583.03</ele>
  <time>2026-08-28T17:49:33Z</time>
  <course>54.38</course>
  <speed>0.660302960768767</speed>
  <fix>3d</fix>
</trkpt>
<trkpt lat="40.0717551" lon="-105.2298899">
  <ele>1583.0</ele>
  <time>2026-08-28T17:49:33Z</time>
  <course>52.86</course>
  <speed>0.67</speed>
  <fix>3d</fix>
</trkpt>
<trkpt lat="40.0717558" lon="-105.2298884">
  <ele>1583.03</ele>
  <time>2026-08-28T17:49:33Z</time>
  <course>55.05</course>
  <speed>0.6545991139621257</speed>
  <fix>3d</fix>
</trkpt>
<trkpt lat="40.0717551" lon="-105.2298899">
  <ele>1583.0</ele>
  <time>2026-08-28T17:49:33Z</time>
  <course>52.86</course>
  <speed>0.67</speed>
  <fix>3d</fix>
</trkpt>
<trkpt lat="40.0717561" lon="-105.2298878">
  <ele>1583.03</ele>
  <time>2026-08-28T17:49:33Z</time>
  <course>55.72</course>
  <speed>0.6573431371817918</speed>
  <fix>3d</fix>
</trkpt>
<trkpt lat="40.0717558" lon="-105.2298886">
  <ele>1583.0</ele>
  <time>2026-08-28T17:49:33Z</time>
  <course>54.18</course>
  <speed>0.67</speed>
  <fix>3d</fix>
</trkpt>
<trkpt lat="40.0717565" lon="-105.2298871">
  <ele>1583.02</ele>
  <time>2026-08-28T17:49:33Z</time>
  <course>56.39</course>
  <speed>0.6573431371817918</speed>
  <fix>3d</fix>
</trkpt>
<trkpt lat="40.0717558" lon="-105.2298886">
  <ele>1583.0</ele>
  <time>2026-08-28T17:49:33Z</time>
  <course>54.18</course>
  <speed>0.67</speed>
  <fix>3d</fix>
</trkpt>
<trkpt lat="40.0717568" lon="-105.2298865">
  <ele>1583.02</ele>
  <time>2026-08-28T17:49:33Z</time>
  <course>57.05</course>
  <speed>0.6603786792439622</speed>
  <fix>3d</fix>
</trkpt>
<trkpt lat="40.0717565" lon="-105.2298873">
  <ele>1583.0</ele>
  <time>2026-08-28T17:49:33Z</time>
  <course>55.51</course>
  <speed>0.67</speed>
  <fix>3d</fix>
</trkpt>
<trkpt lat="40.0717571" lon="-105.2298858">
  <ele>1583.02</ele>
  <time>2026-08-28T17:49:33Z</time>
  <course>57.72</course>
  <speed>0.655133574166368</speed>
  <fix>3d</fix>
</trkpt>
<trkpt lat="40.0717565" lon="-105.2298873">
  <ele>1583.0</ele>
  <time>2026-08-28T17:49:33Z</time>
  <course>55.51</course>
  <speed>0.67</speed>
  <fix>3d</fix>
</trkpt>
<trkpt lat="40.0717574" lon="-105.2298851">
  <ele>1583.01</ele>
  <time>2026-08-28T17:49:33Z</time>
  <course>58.39</course>
  <speed>0.6637017402418047</speed>
  <fix>3d</fix>
</trkpt>
<trkpt lat="40.0717572" lon="-105.229886">
  <ele>1583.0</ele>
  <time>2026-08-28T17:49:33Z</time>
  <course>56.84</course>
  <speed>0.67</speed>
  <fix>3d</fix>
</trkpt>
<trkpt lat="40.0717578" lon="-105.2298844">
  <ele>1583.01</ele>
  <time>2026-08-28T17:49:33Z</time>
  <course>59.06</course>
  <speed>0.6586349520030045</speed>
  <fix>3d</fix>
</trkpt>
<trkpt lat="40.0717572" lon="-105.229886">
  <ele>1583.0</ele>
  <time>2026-08-28T17:49:33Z</time>
  <course>56.84</course>
  <speed>0.67</speed>
  <fix>3d</fix>
</trkpt>
<trkpt lat="40.0717581" lon="-105.2298838">
  <ele>1583.01</ele>
  <time>2026-08-28T17:49:33Z</time>
  <course>59.73</course>
  <speed>0.6624198064671678</speed>
  <fix>3d</fix>
</trkpt>
<trkpt lat="40.0717572" lon="-105.229886">
  <ele>1583.0</ele>
  <time>2026-08-28T17:49:33Z</time>
  <course>56.84</course>
  <speed>0.67</speed>
  <fix>3d</fix>
</trkpt>
<trkpt lat="40.0717584" lon="-105.2298831">
  <ele>1583.01</ele>
  <time>2026-08-28T17:49:33Z</time>
  <course>60.4</course>
  <speed>0.6624198064671678</speed>
  <fix>3d</fix>
</trkpt>
<trkpt lat="40.0717578" lon="-105.2298847">
  <ele>1583.0</ele>
  <time>2026-08-28T17:49:33Z</time>
  <course>58.18</course>
  <speed>0.67</speed>
  <fix>3d</fix>
</trkpt>
<trkpt lat="40.0717587" lon="-105.2298824">
  <ele>1583.01</ele>
  <time>2026-08-28T17:49:33Z</time>
  <course>61.07</course>
  <speed>0.6576473218982953</speed>
  <fix>3d</fix>
</trkpt>
<trkpt lat="40.0717578" lon="-105.2298847">
  <ele>1583.0</ele>
  <time>2026-08-28T17:49:33Z</time>
  <course>58.18</course>
  <speed>0.67</speed>
  <fix>3d</fix>
</trkpt>
<trkpt lat="40.071759" lon="-105.2298817">
  <ele>1583.0</ele>
  <time>2026-08-28T17:49:33Z</time>
  <course>61.73</course>
  <speed>0.6618912297349165</speed>
  <fix>3d</fix>
</trkpt>
<trkpt lat="40.0717585" lon="-105.2298833">
  <ele>1583.0</ele>
  <time>2026-08-28T17:49:33Z</time>
  <course>59.52</course>
  <speed>0.67</speed>
  <fix>3d</fix>
</trkpt>
<trkpt lat="40.0717593" lon="-105.229881">
  <ele>1583.0</ele>
  <time>2026-08-28T17:49:33Z</time>
  <course>62.39</course>
  <speed>0.6574191965557441</speed>
  <fix>3d</fix>
</trkpt>
<trkpt lat="40.0717585" lon="-105.2298833">
  <ele>1583.0</ele>
  <time>2026-08-28T17:49:33Z</time>
  <course>59.52</course>
  <speed>0.67</speed>
  <fix>3d</fix>
</trkpt>
<trkpt lat="40.0717595" lon="-105.2298804">
  <ele>1583.0</ele>
  <time>2026-08-28T17:49:33Z</time>
  <course>63.06</course>
  <speed>0.6574191965557441</speed>
  <fix>3d</fix>
</trkpt>
<trkpt lat="40.071759" lon="-105.2298819">
  <ele>1583.0</ele>
  <time>2026-08-28T17:49:33Z</time>
  <course>60.85</course>
  <speed>0.67</speed>
  <fix>3d</fix>
</trkpt>
<trkpt lat="40.0717598" lon="-105.2298797">
  <ele>1583.0</ele>
  <time>2026-08-28T17:49:33Z</time>
  <course>63.72</course>
  <speed>0.6621178142898739</speed>
  <fix>3d</fix>
</trkpt>
<trkpt lat="40.0717597" lon="-105.2298806">
  <ele>1583.0</ele>
  <time>2026-08-28T17:49:33Z</time>
  <course>62.17</course>
  <speed>0.67</speed>
  <fix>3d</fix>
</trkpt>
<trkpt lat="40.0717601" lon="-105.229879">
  <ele>1583.0</ele>
  <time>2026-08-28T17:49:33Z</time>
  <course>64.38</course>
  <speed>0.6579513659838392</speed>
  <fix>3d</fix>
</trkpt>
<trkpt lat="40.0717597" lon="-105.2298806">
  <ele>1583.0</ele>
  <time>2026-08-28T17:49:33Z</time>
  <course>62.17</course>
  <speed>0.67</speed>
  <fix>3d</fix>
</trkpt>
<trkpt lat="40.0717603" lon="-105.2298782">
  <ele>1583.0</ele>
  <time>2026-08-28T17:49:33Z</time>
  <course>65.04</course>
  <speed>0.6539113089708727</speed>
  <fix>3d</fix>
</trkpt>
<trkpt lat="40.0717602" lon="-105.2298792">
  <ele>1583.0</ele>
  <time>2026-08-28T17:49:33Z</time>
  <course>63.49</course>
  <speed>0.67</speed>
  <fix>3d</fix>
</trkpt>
<trkpt lat="40.0717606" lon="-105.2298775">
  <ele>1583.0</ele>
  <time>2026-08-28T17:49:33Z</time>
  <course>65.7</course>
  <speed>0.6539113089708727</speed>
  <fix>3d</fix>
</trkpt>
<trkpt lat="40.0717602" lon="-105.2298792">
  <ele>1583.0</ele>
  <time>2026-08-28T17:49:33Z</time>
  <course>63.49</course>
  <speed>0.67</speed>
  <fix>3d</fix>
</trkpt>
<trkpt lat="40.0717608" lon="-105.2298768">
  <ele>1583.0</ele>
  <time>2026-08-28T17:49:33Z</time>
  <course>66.36</course>
  <speed>0.6592419889539803</speed>
  <fix>3d</fix>
</trkpt>
<trkpt lat="40.0717607" lon="-105.2298777">
  <ele>1583.0</ele>
  <time>2026-08-28T17:49:33Z</time>
  <course>64.8</course>
  <speed>0.67</speed>
  <fix>3d</fix>
</trkpt>
<trkpt lat="40.0717611" lon="-105.2298761">
  <ele>1583.0</ele>
  <time>2026-08-28T17:49:33Z</time>
  <course>67.02</course>
  <speed>0.6555150646628953</speed>
  <fix>3d</fix>
</trkpt>
<trkpt lat="40.0717607" lon="-105.2298777">
  <ele>1583.0</ele>
  <time>2026-08-28T17:49:33Z</time>
  <course>64.8</course>
  <speed>0.67</speed>
  <fix>3d</fix>
</trkpt>
<trkpt lat="40.0717613" lon="-105.2298754">
  <ele>1583.0</ele>
  <time>2026-08-28T17:49:33Z</time>
  <course>67.69</course>
  <speed>0.6555150646628953</speed>
  <fix>3d</fix>
</trkpt>
<trkpt lat="40.0717612" lon="-105.2298763">
  <ele>1583.0</ele>
  <time>2026-08-28T17:49:33Z</time>
  <course>66.12</course>
  <speed>0.67</speed>
  <fix>3d</fix>
</trkpt>
<trkpt lat="40.0717616" lon="-105.2298746">
  <ele>1583.0</ele>
  <time>2026-08-28T17:49:33Z</time>
  <course>68.35</course>
  <speed>0.6612866246946176</speed>
  <fix>3d</fix>
</trkpt>
<trkpt lat="40.0717612" lon="-105.2298763">
  <ele>1583.0</ele>
  <time>2026-08-28T17:49:33Z</time>
  <course>66.12</course>
  <speed>0.67</speed>
  <fix>3d</fix>
</trkpt>
<trkpt lat="40.0717618" lon="-105.2298739">
  <ele>1583.0</ele>
  <time>2026-08-28T17:49:33Z</time>
  <course>69.02</course>
  <speed>0.657875368135941</speed>
  <fix>3d</fix>
</trkpt>
<trkpt lat="40.0717617" lon="-105.2298748">
  <ele>1583.0</ele>
  <time>2026-08-28T17:49:33Z</time>
  <course>67.44</course>
  <speed>0.67</speed>
  <fix>3d</fix>
</trkpt>
<trkpt lat="40.071762" lon="-105.2298732">
  <ele>1583.0</ele>
  <time>2026-08-28T17:49:34Z</time>
  <course>69.68</course>
  <speed>0.6545991139621257</speed>
  <fix>3d</fix>
</trkpt>
<trkpt lat="40.0717617" lon="-105.2298748">
  <ele>1583.0</ele>
  <time>2026-08-28T17:49:34Z</time>
  <course>67.44</course>
  <speed>0.67</speed>
  <fix>3d</fix>
</trkpt>
<trkpt lat="40.0717622" lon="-105.2298724">
  <ele>1583.0</ele>
  <time>2026-08-28T17:49:34Z</time>
  <course>70.34</course>
  <speed>0.6640783086353597</speed>
  <fix>3d</fix>
</trkpt>
<trkpt lat="40.0717621" lon="-105.2298733">
  <ele>1583.0</ele>
  <time>2026-08-28T17:49:34Z</time>
  <course>68.77</course>
  <speed>0.67</speed>
  <fix>3d</fix>
</trkpt>
<trkpt lat="40.0717624" lon="-105.2298717">
  <ele>1583.0</ele>
  <time>2026-08-28T17:49:34Z</time>
  <course>71.0</course>
  <speed>0.6609841147864296</speed>
  <fix>3d</fix>
</trkpt>
<trkpt lat="40.0717621" lon="-105.2298733">
  <ele>1583.0</ele>
  <time>2026-08-28T17:49:34Z</time>
  <course>68.77</course>
  <speed>0.67</speed>
  <fix>3d</fix>
</trkpt>
<trkpt lat="40.0717626" lon="-105.2298709">
  <ele>1583.0</ele>
  <time>2026-08-28T17:49:34Z</time>
  <course>71.67</course>
  <speed>0.6580273550544841</speed>
  <fix>3d</fix>
</trkpt>
<trkpt lat="40.0717626" lon="-105.2298718">
  <ele>1583.0</ele>
  <time>2026-08-28T17:49:34Z</time>
  <course>70.09</course>
  <speed>0.67</speed>
  <fix>3d</fix>
</trkpt>
<trkpt lat="40.0717628" lon="-105.2298702">
  <ele>1583.0</ele>
  <time>2026-08-28T17:49:34Z</time>
  <course>72.34</course>
  <speed>0.6552098900352467</speed>
  <fix>3d</fix>
</trkpt>
<trkpt lat="40.0717626" lon="-105.2298718">
  <ele>1583.0</ele>
  <time>2026-08-28T17:49:34Z</time>
  <course>70.09</course>
  <speed>0.67</speed>
  <fix>3d</fix>
</trkpt>
<trkpt lat="40.071763" lon="-105.2298694">
  <ele>1583.01</ele>
  <time>2026-08-28T17:49:34Z</time>
  <course>73.01</course>
  <speed>0.6648308055437865</speed>
  <fix>3d</fix>
</trkpt>
<trkpt lat="40.0717626" lon="-105.2298718">
  <ele>1583.0</ele>
  <time>2026-08-28T17:49:34Z</time>
  <course>70.09</course>
  <speed>0.67</speed>
  <fix>3d</fix>
</trkpt>
<trkpt lat="40.0717632" lon="-105.2298686">
  <ele>1583.01</ele>
  <time>2026-08-28T17:49:34Z</time>
  <course>73.68</course>
  <speed>0.6621933252457322</speed>
  <fix>3d</fix>
</trkpt>
<trkpt lat="40.071763" lon="-105.2298703">
  <ele>1583.0</ele>
  <time>2026-08-28T17:49:34Z</time>
  <course>71.42</course>
  <speed>0.67</speed>
  <fix>3d</fix>
</trkpt>
<trkpt lat="40.0717634" lon="-105.2298679">
  <ele>1583.01</ele>
  <time>2026-08-28T17:49:34Z</time>
  <course>74.35</course>
  <speed>0.6596969000988256</speed>
  <fix>3d</fix>
</trkpt>
<trkpt lat="40.071763" lon="-105.2298703">
  <ele>1583.0</ele>
  <time>2026-08-28T17:49:34Z</time>
  <course>71.42</course>
  <speed>0.67</speed>
  <fix>3d</fix>
</trkpt>
<trkpt lat="40.0717635" lon="-105.2298671">
  <ele>1583.01</ele>
  <time>2026-08-28T17:49:34Z</time>
  <course>75.01</course>
  <speed>0.6573431371817918</speed>
  <fix>3d</fix>
</trkpt>
<trkpt lat="40.0717633" lon="-105.2298688">
  <ele>1583.0</ele>
  <time>2026-08-28T17:49:34Z</time>
  <course>72.76</course>
  <speed>0.67</speed>
  <fix>3d</fix>
</trkpt>
<trkpt lat="40.0717637" lon="-105.2298664">
  <ele>1583.01</ele>
  <time>2026-08-28T17:49:34Z</time>
  <course>75.68</course>
  <speed>0.6573431371817918</speed>
  <fix>3d</fix>
</trkpt>
<trkpt lat="40.0717633" lon="-105.2298688">
  <ele>1583.0</ele>
  <time>2026-08-28T17:49:34Z</time>
  <course>72.76</course>
  <speed>0.67</speed>
  <fix>3d</fix>
</trkpt>
<trkpt lat="40.0717638" lon="-105.2298656">
  <ele>1583.02</ele>
  <time>2026-08-28T17:49:34Z</time>
  <course>76.35</course>
  <speed>0.6649060083951716</speed>
  <fix>3d</fix>
</trkpt>
<trkpt lat="40.0717637" lon="-105.2298673">
  <ele>1583.0</ele>
  <time>2026-08-28T17:49:34Z</time>
  <course>74.09</course>
  <speed>0.67</speed>
  <fix>3d</fix>
</trkpt>
<trkpt lat="40.071764" lon="-105.2298648">
  <ele>1583.01</ele>
  <time>2026-08-28T17:49:34Z</time>
  <course>77.03</course>
  <speed>0.662872536767062</speed>
  <fix>3d</fix>
</trkpt>
<trkpt lat="40.0717637" lon="-105.2298673">
  <ele>1583.0</ele>
  <time>2026-08-28T17:49:34Z</time>
  <course>74.09</course>
  <speed>0.67</speed>
  <fix>3d</fix>
</trkpt>
<trkpt lat="40.0717641" lon="-105.2298641">
  <ele>1583.01</ele>
  <time>2026-08-28T17:49:34Z</time>
  <course>77.71</course>
  <speed>0.6609841147864296</speed>
  <fix>3d</fix>
</trkpt>
<trkpt lat="40.071764" lon="-105.2298658">
  <ele>1583.0</ele>
  <time>2026-08-28T17:49:34Z</time>
  <course>75.43</course>
  <speed>0.67</speed>
  <fix>3d</fix>
</trkpt>
<trkpt lat="40.0717642" lon="-105.2298633">
  <ele>1583.02</ele>
  <time>2026-08-28T17:49:34Z</time>
  <course>78.38</course>
  <speed>0.6592419889539803</speed>
  <fix>3d</fix>
</trkpt>
<trkpt lat="40.0717643" lon="-105.2298642">
  <ele>1583.0</ele>
  <time>2026-08-28T17:49:34Z</time>
  <course>76.77</course>
  <speed>0.68</speed>
  <fix>3d</fix>
</trkpt>
<trkpt lat="40.0717644" lon="-105.2298625">
  <ele>1583.02</ele>
  <time>2026-08-28T17:49:34Z</time>
  <course>79.06</course>
  <speed>0.6592419889539803</speed>
  <fix>3d</fix>
</trkpt>
<trkpt lat="40.0717643" lon="-105.2298642">
  <ele>1583.0</ele>
  <time>2026-08-28T17:49:34Z</time>
  <course>76.77</course>
  <speed>0.68</speed>
  <fix>3d</fix>
</trkpt>
<trkpt lat="40.0717645" lon="-105.2298618">
  <ele>1583.02</ele>
  <time>2026-08-28T17:49:34Z</time>
  <course>79.72</course>
  <speed>0.6576473218982953</speed>
  <fix>3d</fix>
</trkpt>
<trkpt lat="40.0717646" lon="-105.2298626">
  <ele>1583.0</ele>
  <time>2026-08-28T17:49:34Z</time>
  <course>78.12</course>
  <speed>0.68</speed>
  <fix>3d</fix>
</trkpt>
<trkpt lat="40.0717646" lon="-105.229861">
  <ele>1583.02</ele>
  <time>2026-08-28T17:49:34Z</time>
  <course>80.4</course>
  <speed>0.6661080993352355</speed>
  <fix>3d</fix>
</trkpt>
<trkpt lat="40.0717646" lon="-105.2298626">
  <ele>1583.0</ele>
  <time>2026-08-28T17:49:34Z</time>
  <course>78.12</course>
  <speed>0.68</speed>
  <fix>3d</fix>
</trkpt>
<trkpt lat="40.0717647" lon="-105.2298602">
  <ele>1583.02</ele>
  <time>2026-08-28T17:49:34Z</time>
  <course>81.08</course>
  <speed>0.6648308055437865</speed>
  <fix>3d</fix>
</trkpt>
<trkpt lat="40.0717649" lon="-105.229861">
  <ele>1583.0</ele>
  <time>2026-08-28T17:49:34Z</time>
  <course>79.46</course>
  <speed>0.68</speed>
  <fix>3d</fix>
</trkpt>
<trkpt lat="40.0717648" lon="-105.2298594">
  <ele>1583.02</ele>
  <time>2026-08-28T17:49:34Z</time>
  <course>81.75</course>
  <speed>0.6648308055437865</speed>
  <fix>3d</fix>
</trkpt>
<trkpt lat="40.0717649" lon="-105.229861">
  <ele>1583.0</ele>
  <time>2026-08-28T17:49:34Z</time>
  <course>79.46</course>
  <speed>0.68</speed>
  <fix>3d</fix>
</trkpt>
<trkpt lat="40.0717649" lon="-105.2298586">
  <ele>1583.02</ele>
  <time>2026-08-28T17:49:34Z</time>
  <course>82.43</course>
  <speed>0.6637017402418047</speed>
  <fix>3d</fix>
</trkpt>
<trkpt lat="40.0717651" lon="-105.2298595">
  <ele>1583.0</ele>
  <time>2026-08-28T17:49:34Z</time>
  <course>80.81</course>
  <speed>0.68</speed>
  <fix>3d</fix>
</trkpt>
<trkpt lat="40.071765" lon="-105.2298578">
  <ele>1583.02</ele>
  <time>2026-08-28T17:49:34Z</time>
  <course>83.11</course>
  <speed>0.6627216610312356</speed>
  <fix>3d</fix>
</trkpt>
<trkpt lat="40.0717651" lon="-105.2298595">
  <ele>1583.0</ele>
  <time>2026-08-28T17:49:34Z</time>
  <course>80.81</course>
  <speed>0.68</speed>
  <fix>3d</fix>
</trkpt>
<trkpt lat="40.0717651" lon="-105.229857">
  <ele>1583.02</ele>
  <time>2026-08-28T17:49:34Z</time>
  <course>83.78</course>
  <speed>0.6618912297349165</speed>
  <fix>3d</fix>
</trkpt>
<trkpt lat="40.0717652" lon="-105.2298579">
  <ele>1583.0</ele>
  <time>2026-08-28T17:49:34Z</time>
  <course>82.16</course>
  <speed>0.68</speed>
  <fix>3d</fix>
</trkpt>
<trkpt lat="40.0717651" lon="-105.2298562">
  <ele>1583.02</ele>
  <time>2026-08-28T17:49:34Z</time>
  <course>84.45</course>
  <speed>0.6612110101926616</speed>
  <fix>3d</fix>
</trkpt>
<trkpt lat="40.0717652" lon="-105.2298579">
  <ele>1583.0</ele>
  <time>2026-08-28T17:49:34Z</time>
  <course>82.16</course>
  <speed>0.68</speed>
  <fix>3d</fix>
</trkpt>
<trkpt lat="40.0717652" lon="-105.2298554">
  <ele>1583.02</ele>
  <time>2026-08-28T17:49:34Z</time>
  <course>85.13</course>
  <speed>0.6612110101926616</speed>
  <fix>3d</fix>
</trkpt>
<trkpt lat="40.0717654" lon="-105.2298563">
  <ele>1583.0</ele>
  <time>2026-08-28T17:49:34Z</time>
  <course>83.5</course>
  <speed>0.68</speed>
  <fix>3d</fix>
</trkpt>
<trkpt lat="40.0717653" lon="-105.2298546">
  <ele>1583.02</ele>
  <time>2026-08-28T17:49:34Z</time>
  <course>85.8</course>
  <speed>0.6606814663663572</speed>
  <fix>3d</fix>
</trkpt>
<trkpt lat="40.0717654" lon="-105.2298563">
  <ele>1583.0</ele>
  <time>2026-08-28T17:49:34Z</time>
  <course>83.5</course>
  <speed>0.68</speed>
  <fix>3d</fix>
</trkpt>
<trkpt lat="40.0717653" lon="-105.2298538">
  <ele>1583.02</ele>
  <time>2026-08-28T17:49:34Z</time>
  <course>86.46</course>
  <speed>0.6503076195155643</speed>
  <fix>3d</fix>
</trkpt>
<trkpt lat="40.0717655" lon="-105.2298548">
  <ele>1583.0</ele>
  <time>2026-08-28T17:49:34Z</time>
  <course>84.83</course>
  <speed>0.67</speed>
  <fix>3d</fix>
</trkpt>
<trkpt lat="40.0717654" lon="-105.229853">
  <ele>1583.02</ele>
  <time>2026-08-28T17:49:34Z</time>
  <course>86.97</course>
  <speed>0.6200806399170998</speed>
  <fix>3d</fix>
</trkpt>
<trkpt lat="40.0717655" lon="-105.2298548">
  <ele>1583.0</ele>
  <time>2026-08-28T17:49:34Z</time>
  <course>84.83</course>
  <speed>0.67</speed>
  <fix>3d</fix>
</trkpt>
<trkpt lat="40.0717654" lon="-105.2298523">
  <ele>1583.02</ele>
  <time>2026-08-28T17:49:34Z</time>
  <course>86.97</course>
  <speed>0.5800862004909271</speed>
  <fix>3d</fix>
</trkpt>
<trkpt lat="40.0717655" lon="-105.2298548">
  <ele>1583.0</ele>
  <time>2026-08-28T17:49:34Z</time>
  <course>84.83</course>
  <speed>0.67</speed>
  <fix>3d</fix>
</trkpt>
<trkpt lat="40.0717654" lon="-105.2298517">
  <ele>1583.02</ele>
  <time>2026-08-28T17:49:34Z</time>
  <course>86.97</course>
  <speed>0.5200961449578337</speed>
  <fix>3d</fix>
</trkpt>
<trkpt lat="40.0717656" lon="-105.2298532">
  <ele>1583.0</ele>
  <time>2026-08-28T17:49:34Z</time>
  <course>85.74</course>
  <speed>0.62</speed>
  <fix>3d</fix>
</trkpt>
<trkpt lat="40.0717655" lon="-105.2298511">
  <ele>1583.02</ele>
  <time>2026-08-28T17:49:34Z</time>
  <course>86.97</course>
  <speed>0.4801041553663121</speed>
  <fix>3d</fix>
</trkpt>
<trkpt lat="40.0717656" lon="-105.2298532">
  <ele>1583.0</ele>
  <time>2026-08-28T17:49:34Z</time>
  <course>85.74</course>
  <speed>0.62</speed>
  <fix>3d</fix>
</trkpt>
<trkpt lat="40.0717655" lon="-105.2298505">
  <ele>1583.02</ele>
  <time>2026-08-28T17:49:34Z</time>
  <course>86.97</course>
  <speed>0.46</speed>
  <fix>3d</fix>
</trkpt>
<trkpt lat="40.0717657" lon="-105.2298518">
  <ele>1583.0</ele>
  <time>2026-08-28T17:49:34Z</time>
  <course>86.0</course>
  <speed>0.54</speed>
  <fix>3d</fix>
</trkpt>
<trkpt lat="40.0717655" lon="-105.22985">
  <ele>1583.02</ele>
  <time>2026-08-28T17:49:34Z</time>
  <course>86.97</course>
  <speed>0.45</speed>
  <fix>3d</fix>
</trkpt>
<trkpt lat="40.0717657" lon="-105.2298518">
  <ele>1583.0</ele>
  <time>2026-08-28T17:49:34Z</time>
  <course>86.0</course>
  <speed>0.54</speed>
  <fix>3d</fix>
</trkpt>
<trkpt lat="40.0717656" lon="-105.2298495">
  <ele>1583.02</ele>
  <time>2026-08-28T17:49:34Z</time>
  <course>86.97</course>
  <speed>0.47010637094172636</speed>
  <fix>3d</fix>
</trkpt>
<trkpt lat="40.0717658" lon="-105.2298506">
  <ele>1583.0</ele>
  <time>2026-08-28T17:49:34Z</time>
  <course>86.0</course>
  <speed>0.48</speed>
  <fix>3d</fix>
</trkpt>
<trkpt lat="40.0717656" lon="-105.2298489">
  <ele>1583.01</ele>
  <time>2026-08-28T17:49:34Z</time>
  <course>86.98</course>
  <speed>0.5000999900019995</speed>
  <fix>3d</fix>
</trkpt>
<trkpt lat="40.0717658" lon="-105.2298495">
  <ele>1583.0</ele>
  <time>2026-08-28T17:49:34Z</time>
  <course>86.0</course>
  <speed>0.49</speed>
  <fix>3d</fix>
</trkpt>
<trkpt lat="40.0717656" lon="-105.2298482">
  <ele>1583.01</ele>
  <time>2026-08-28T17:49:34Z</time>
  <course>86.98</course>
  <speed>0.5500909015790026</speed>
  <fix>3d</fix>
</trkpt>
<trkpt lat="40.0717658" lon="-105.2298495">
  <ele>1583.0</ele>
  <time>2026-08-28T17:49:34Z</time>
  <course>86.0</course>
  <speed>0.49</speed>
  <fix>3d</fix>
</trkpt>
<trkpt lat="40.0717657" lon="-105.2298475">
  <ele>1583.0</ele>
  <time>2026-08-28T17:49:34Z</time>
  <course>86.98</course>
  <speed>0.6100819617067857</speed>
  <fix>3d</fix>
</trkpt>
<trkpt lat="40.0717659" lon="-105.2298483">
  <ele>1583.0</ele>
  <time>2026-08-28T17:49:34Z</time>
  <course>86.0</course>
  <speed>0.57</speed>
  <fix>3d</fix>
</trkpt>
<trkpt lat="40.0717657" lon="-105.2298468">
  <ele>1583.0</ele>
  <time>2026-08-28T17:49:34Z</time>
  <course>86.98</course>
  <speed>0.6902897942168927</speed>
  <fix>3d</fix>
</trkpt>
<trkpt lat="40.0717659" lon="-105.2298483">
  <ele>1583.0</ele>
  <time>2026-08-28T17:49:34Z</time>
  <course>86.0</course>
  <speed>0.57</speed>
  <fix>3d</fix>
</trkpt>
<trkpt lat="40.0717658" lon="-105.2298459">
  <ele>1583.0</ele>
  <time>2026-08-28T17:49:34Z</time>
  <course>86.98</course>
  <speed>0.7802563681252463</speed>
  <fix>3d</fix>
</trkpt>
<trkpt lat="40.0717659" lon="-105.2298467">
  <ele>1583.0</ele>
  <time>2026-08-28T17:49:34Z</time>
  <course>86.0</course>
  <speed>0.71</speed>
  <fix>3d</fix>
</trkpt>
<trkpt lat="40.0717658" lon="-105.2298448">
  <ele>1583.0</ele>
  <time>2026-08-28T17:49:34Z</time>
  <course>86.99</course>
  <speed>0.8805112151472007</speed>
  <fix>3d</fix>
</trkpt>
<trkpt lat="40.0717659" lon="-105.2298467">
  <ele>1583.0</ele>
  <time>2026-08-28T17:49:34Z</time>
  <course>86.0</course>
  <speed>0.71</speed>
  <fix>3d</fix>
</trkpt>
<trkpt lat="40.0717659" lon="-105.2298437">
  <ele>1583.0</ele>
  <time>2026-08-28T17:49:34Z</time>
  <course>86.99</course>
  <speed>0.9904544411531506</speed>
  <fix>3d</fix>
</trkpt>
<trkpt lat="40.0717661" lon="-105.2298448">
  <ele>1583.0</ele>
  <time>2026-08-28T17:49:34Z</time>
  <course>86.0</course>
  <speed>0.9</speed>
  <fix>3d</fix>
</trkpt>
<trkpt lat="40.0717659" lon="-105.2298424">
  <ele>1583.0</ele>
  <time>2026-08-28T17:49:34Z</time>
  <course>86.99</course>
  <speed>1.110720486891279</speed>
  <fix>3d</fix>
</trkpt>
<trkpt lat="40.0717661" lon="-105.2298448">
  <ele>1583.0</ele>
  <time>2026-08-28T17:49:34Z</time>
  <course>86.0</course>
  <speed>0.9</speed>
  <fix>3d</fix>
</trkpt>
<trkpt lat="40.071766" lon="-105.229841">
  <ele>1583.0</ele>
  <time>2026-08-28T17:49:34Z</time>
  <course>86.99</course>
  <speed>1.2410076550932312</speed>
  <fix>3d</fix>
</trkpt>
<trkpt lat="40.0717662" lon="-105.2298424">
  <ele>1583.0</ele>
  <time>2026-08-28T17:49:34Z</time>
  <course>86.0</course>
  <speed>1.13</speed>
  <fix>3d</fix>
</trkpt>
<trkpt lat="40.0717661" lon="-105.2298394">
  <ele>1583.0</ele>
  <time>2026-08-28T17:49:34Z</time>
  <course>86.99</course>
  <speed>1.3709121051329294</speed>
  <fix>3d</fix>
</trkpt>
<trkpt lat="40.0717662" lon="-105.2298424">
  <ele>1583.0</ele>
  <time>2026-08-28T17:49:34Z</time>
  <course>86.0</course>
  <speed>1.13</speed>
  <fix>3d</fix>
</trkpt>
<trkpt lat="40.0717662" lon="-105.2298376">
  <ele>1583.0</ele>
  <time>2026-08-28T17:49:34Z</time>
  <course>86.99</course>
  <speed>1.5011995203836164</speed>
  <fix>3d</fix>
</trkpt>
<trkpt lat="40.0717664" lon="-105.2298395">
  <ele>1583.0</ele>
  <time>2026-08-28T17:49:34Z</time>
  <course>86.0</course>
  <speed>1.38</speed>
  <fix>3d</fix>
</trkpt>
<trkpt lat="40.0717663" lon="-105.2298357">
  <ele>1583.0</ele>
  <time>2026-08-28T17:49:34Z</time>
  <course>86.99</course>
  <speed>1.6414932226482082</speed>
  <fix>3d</fix>
</trkpt>
<trkpt lat="40.0717664" lon="-105.2298395">
  <ele>1583.0</ele>
  <time>2026-08-28T17:49:34Z</time>
  <course>86.0</course>
  <speed>1.38</speed>
  <fix>3d</fix>
</trkpt>
<trkpt lat="40.0717664" lon="-105.2298337">
  <ele>1583.0</ele>
  <time>2026-08-28T17:49:34Z</time>
  <course>86.99</course>
  <speed>1.7817968458833908</speed>
  <fix>3d</fix>
</trkpt>
<trkpt lat="40.0717665" lon="-105.2298359">
  <ele>1583.0</ele>
  <time>2026-08-28T17:49:34Z</time>
  <course>86.0</course>
  <speed>1.64</speed>
  <fix>3d</fix>
</trkpt>
<trkpt lat="40.0717665" lon="-105.2298314">
  <ele>1583.0</ele>
  <time>2026-08-28T17:49:34Z</time>
  <course>86.99</course>
  <speed>1.9221082175569617</speed>
  <fix>3d</fix>
</trkpt>
<trkpt lat="40.0717665" lon="-105.2298359">
  <ele>1583.0</ele>
  <time>2026-08-28T17:49:34Z</time>
  <course>86.0</course>
  <speed>1.64</speed>
  <fix>3d</fix>
</trkpt>
<trkpt lat="40.0717666" lon="-105.229829">
  <ele>1583.0</ele>
  <time>2026-08-28T17:49:34Z</time>
  <course>86.99</course>
  <speed>2.051974658712919</speed>
  <fix>3d</fix>
</trkpt>
<trkpt lat="40.0717665" lon="-105.2298359">
  <ele>1583.0</ele>
  <time>2026-08-28T17:49:34Z</time>
  <course>86.0</course>
  <speed>1.64</speed>
  <fix>3d</fix>
</trkpt>
<trkpt lat="40.0717667" lon="-105.2298265">
  <ele>1583.0</ele>
  <time>2026-08-28T17:49:34Z</time>
  <course>86.99</course>
  <speed>2.1922819161777527</speed>
  <fix>3d</fix>
</trkpt>
<trkpt lat="40.0717668" lon="-105.2298318">
  <ele>1583.0</ele>
  <time>2026-08-28T17:49:34Z</time>
  <course>86.0</course>
  <speed>1.92</speed>
  <fix>3d</fix>
</trkpt>
<trkpt lat="40.0717668" lon="-105.2298238">
  <ele>1583.01</ele>
  <time>2026-08-28T17:49:34Z</time>
  <course>86.99</course>
  <speed>2.3226062946612367</speed>
  <fix>3d</fix>
</trkpt>
<trkpt lat="40.0717668" lon="-105.2298318">
  <ele>1583.0</ele>
  <time>2026-08-28T17:49:34Z</time>
  <course>86.0</course>
  <speed>1.92</speed>
  <fix>3d</fix>
</trkpt>
<trkpt lat="40.071767" lon="-105.229821">
  <ele>1583.01</ele>
  <time>2026-08-28T17:49:34Z</time>
  <course>86.98</course>
  <speed>2.4529370150902774</speed>
  <fix>3d</fix>
</trkpt>
<trkpt lat="40.071767" lon="-105.229827">
  <ele>1583.0</ele>
  <time>2026-08-28T17:49:34Z</time>
  <course>86.0</course>
  <speed>2.19</speed>
  <fix>3d</fix>
</trkpt>
<trkpt lat="40.0717671" lon="-105.229818">
  <ele>1583.01</ele>
  <time>2026-08-28T17:49:34Z</time>
  <course>86.98</course>
  <speed>2.582789190003706</speed>
  <fix>3d</fix>
</trkpt>
<trkpt lat="40.071767" lon="-105.229827">
  <ele>1583.0</ele>
  <time>2026-08-28T17:49:34Z</time>
  <course>86.0</course>
  <speed>2.19</speed>
  <fix>3d</fix>
</trkpt>
<trkpt lat="40.0717673" lon="-105.2298149">
  <ele>1583.02</ele>
  <time>2026-08-28T17:49:34Z</time>
  <course>86.98</course>
  <speed>2.713116289435453</speed>
  <fix>3d</fix>
</trkpt>
<trkpt lat="40.0717673" lon="-105.2298215">
  <ele>1583.0</ele>
  <time>2026-08-28T17:49:34Z</time>
  <course>86.0</course>
  <speed>2.45</speed>
  <fix>3d</fix>
</trkpt>
<trkpt lat="40.0717674" lon="-105.2298116">
  <ele>1583.02</ele>
  <time>2026-08-28T17:49:34Z</time>
  <course>86.97</course>
  <speed>2.83346078144731</speed>
  <fix>3d</fix>
</trkpt>
<trkpt lat="40.0717673" lon="-105.2298215">
  <ele>1583.0</ele>
  <time>2026-08-28T17:49:34Z</time>
  <course>86.0</course>
  <speed>2.45</speed>
  <fix>3d</fix>
</trkpt>
<trkpt lat="40.0717676" lon="-105.2298082">
  <ele>1583.02</ele>
  <time>2026-08-28T17:49:34Z</time>
  <course>86.97</course>
  <speed>2.9538110975483858</speed>
  <fix>3d</fix>
</trkpt>
<trkpt lat="40.0717676" lon="-105.2298155">
  <ele>1583.0</ele>
  <time>2026-08-28T17:49:34Z</time>
  <course>86.0</course>
  <speed>2.7</speed>
  <fix>3d</fix>
</trkpt>
<trkpt lat="40.0717678" lon="-105.2298046">
  <ele>1583.02</ele>
  <time>2026-08-28T17:49:34Z</time>
  <course>86.96</course>
  <speed>3.074166553718259</speed>
  <fix>3d</fix>
</trkpt>
<trkpt lat="40.071768" lon="-105.2298088">
  <ele>1583.0</ele>
  <time>2026-08-28T17:49:34Z</time>
  <course>86.0</course>
  <speed>2.95</speed>
  <fix>3d</fix>
</trkpt>
<trkpt lat="40.071768" lon="-105.2298009">
  <ele>1583.02</ele>
  <time>2026-08-28T17:49:34Z</time>
  <course>86.96</course>
  <speed>3.194010018769509</speed>
  <fix>3d</fix>
</trkpt>
<trkpt lat="40.071768" lon="-105.2298088">
  <ele>1583.0</ele>
  <time>2026-08-28T17:49:34Z</time>
  <course>86.0</course>
  <speed>2.95</speed>
  <fix>3d</fix>
</trkpt>
<trkpt lat="40.0717682" lon="-105.2297971">
  <ele>1583.02</ele>
  <time>2026-08-28T17:49:34Z</time>
  <course>86.95</course>
  <speed>3.3043758866085438</speed>
  <fix>3d</fix>
</trkpt>
<trkpt lat="40.0717683" lon="-105.2298017">
  <ele>1583.0</ele>
  <time>2026-08-28T17:49:34Z</time>
  <course>86.0</course>
  <speed>3.18</speed>
  <fix>3d</fix>
</trkpt>
<trkpt lat="40.0717684" lon="-105.2297931">
  <ele>1583.02</ele>
  <time>2026-08-28T17:49:34Z</time>
  <course>86.94</course>
  <speed>3.4247335662792806</speed>
  <fix>3d</fix>
</trkpt>
<trkpt lat="40.0717683" lon="-105.2298017">
  <ele>1583.0</ele>
  <time>2026-08-28T17:49:34Z</time>
  <course>86.0</course>
  <speed>3.18</speed>
  <fix>3d</fix>
</trkpt>
<trkpt lat="40.0717686" lon="-105.229789">
  <ele>1583.02</ele>
  <time>2026-08-28T17:49:34Z</time>
  <course>86.94</course>
  <speed>3.5251241112902676</speed>
  <fix>3d</fix>
</trkpt>
<trkpt lat="40.0717688" lon="-105.229794">
  <ele>1583.0</ele>
  <time>2026-08-28T17:49:34Z</time>
  <course>86.0</course>
  <speed>3.41</speed>
  <fix>3d</fix>
</trkpt>
<trkpt lat="40.0717688" lon="-105.2297847">
  <ele>1583.02</ele>
  <time>2026-08-28T17:49:34Z</time>
  <course>86.93</course>
  <speed>3.6349690507623307</speed>
  <fix>3d</fix>
</trkpt>
<trkpt lat="40.0717688" lon="-105.229794">
  <ele>1583.0</ele>
  <time>2026-08-28T17:49:34Z</time>
  <course>86.0</course>
  <speed>3.41</speed>
  <fix>3d</fix>
</trkpt>
<trkpt lat="40.0717691" lon="-105.2297803">
  <ele>1583.02</ele>
  <time>2026-08-28T17:49:34Z</time>
  <course>86.92</course>
  <speed>3.745343775943672</speed>
  <fix>3d</fix>
</trkpt>
<trkpt lat="40.0717692" lon="-105.2297857">
  <ele>1583.0</ele>
  <time>2026-08-28T17:49:34Z</time>
  <course>86.0</course>
  <speed>3.62</speed>
  <fix>3d</fix>
</trkpt>
<trkpt lat="40.0717693" lon="-105.2297758">
  <ele>1583.03</ele>
  <time>2026-08-28T17:49:34Z</time>
  <course>86.92</course>
  <speed>3.8457379005855303</speed>
  <fix>3d</fix>
</trkpt>
<trkpt lat="40.0717692" lon="-105.2297857">
  <ele>1583.0</ele>
  <time>2026-08-28T17:49:34Z</time>
  <course>86.0</course>
  <speed>3.62</speed>
  <fix>3d</fix>
</trkpt>
<trkpt lat="40.0717695" lon="-105.2297712">
  <ele>1583.03</ele>
  <time>2026-08-28T17:49:34Z</time>
  <course>86.91</course>
  <speed>3.946137351892354</speed>
  <fix>3d</fix>
</trkpt>
<trkpt lat="40.0717697" lon="-105.229777">
  <ele>1583.0</ele>
  <time>2026-08-28T17:49:34Z</time>
  <course>86.0</course>
  <speed>3.82</speed>
  <fix>3d</fix>
</trkpt>
<trkpt lat="40.0717698" lon="-105.2297664">
  <ele>1583.03</ele>
  <time>2026-08-28T17:49:34Z</time>
  <course>86.9</course>
  <speed>4.045985664828782</speed>
  <fix>3d</fix>
</trkpt>
<trkpt lat="40.0717697" lon="-105.229777">
  <ele>1583.0</ele>
  <time>2026-08-28T17:49:34Z</time>
  <course>86.0</course>
  <speed>3.82</speed>
  <fix>3d</fix>
</trkpt>
<trkpt lat="40.0717701" lon="-105.2297616">
  <ele>1583.03</ele>
  <time>2026-08-28T17:49:34Z</time>
  <course>86.89</course>
  <speed>4.146383966783588</speed>
  <fix>3d</fix>
</trkpt>
<trkpt lat="40.0717702" lon="-105.2297677">
  <ele>1583.0</ele>
  <time>2026-08-28T17:49:34Z</time>
  <course>86.0</course>
  <speed>4.02</speed>
  <fix>3d</fix>
</trkpt>
<trkpt lat="40.0717703" lon="-105.2297566">
  <ele>1583.03</ele>
  <time>2026-08-28T17:49:34Z</time>
  <course>86.89</course>
  <speed>4.246787020795839</speed>
  <fix>3d</fix>
</trkpt>
<trkpt lat="40.0717702" lon="-105.2297677">
  <ele>1583.0</ele>
  <time>2026-08-28T17:49:34Z</time>
  <course>86.0</course>
  <speed>4.02</speed>
  <fix>3d</fix>
</trkpt>
<trkpt lat="40.0717706" lon="-105.2297515">
  <ele>1583.03</ele>
  <time>2026-08-28T17:49:34Z</time>
  <course>86.88</course>
  <speed>4.337211085478778</speed>
  <fix>3d</fix>
</trkpt>
<trkpt lat="40.0717707" lon="-105.2297581">
  <ele>1583.0</ele>
  <time>2026-08-28T17:49:34Z</time>
  <course>86.0</course>
  <speed>4.21</speed>
  <fix>3d</fix>
</trkpt>
<trkpt lat="40.0717709" lon="-105.2297463">
  <ele>1583.04</ele>
  <time>2026-08-28T17:49:34Z</time>
  <course>86.87</course>
  <speed>4.437048568587006</speed>
  <fix>3d</fix>
</trkpt>
<trkpt lat="40.0717707" lon="-105.2297581">
  <ele>1583.0</ele>
  <time>2026-08-28T17:49:34Z</time>
  <course>86.0</course>
  <speed>4.21</speed>
  <fix>3d</fix>
</trkpt>
<trkpt lat="40.0717712" lon="-105.229741">
  <ele>1583.04</ele>
  <time>2026-08-28T17:49:34Z</time>
  <course>86.87</course>
  <speed>4.527471700629392</speed>
  <fix>3d</fix>
</trkpt>
<trkpt lat="40.0717707" lon="-105.2297581">
  <ele>1583.0</ele>
  <time>2026-08-28T17:49:34Z</time>
  <course>86.0</course>
  <speed>4.21</speed>
  <fix>3d</fix>
</trkpt>
<trkpt lat="40.0717714" lon="-105.2297357">
  <ele>1583.04</ele>
  <time>2026-08-28T17:49:34Z</time>
  <course>86.86</course>
  <speed>4.617899955607527</speed>
  <fix>3d</fix>
</trkpt>
<trkpt lat="40.0717712" lon="-105.229748">
  <ele>1583.0</ele>
  <time>2026-08-28T17:49:34Z</time>
  <course>86.0</course>
  <speed>4.4</speed>
  <fix>3d</fix>
</trkpt>
<trkpt lat="40.0717717" lon="-105.2297302">
  <ele>1583.05</ele>
  <time>2026-08-28T17:49:34Z</time>
  <course>86.85</course>
  <speed>4.708333038348074</speed>
  <fix>3d</fix>
</trkpt>
<trkpt lat="40.0717712" lon="-105.229748">
  <ele>1583.0</ele>
  <time>2026-08-28T17:49:34Z</time>
  <course>86.0</course>
  <speed>4.4</speed>
  <fix>3d</fix>
</trkpt>
<trkpt lat="40.071772" lon="-105.2297247">
  <ele>1583.05</ele>
  <time>2026-08-28T17:49:34Z</time>
  <course>86.85</course>
  <speed>4.808159731123749</speed>
  <fix>3d</fix>
</trkpt>
<trkpt lat="40.0717717" lon="-105.2297374">
  <ele>1583.0</ele>
  <time>2026-08-28T17:49:34Z</time>
  <course>86.0</course>
  <speed>4.59</speed>
  <fix>3d</fix>
</trkpt>
<trkpt lat="40.0717723" lon="-105.229719">
  <ele>1583.05</ele>
  <time>2026-08-28T17:49:34Z</time>
  <course>86.84</course>
  <speed>4.898591634337364</speed>
  <fix>3d</fix>
</trkpt>
<trkpt lat="40.0717717" lon="-105.2297374">
  <ele>1583.0</ele>
  <time>2026-08-28T17:49:34Z</time>
  <course>86.0</course>
  <speed>4.59</speed>
  <fix>3d</fix>
</trkpt>
<trkpt lat="40.0717726" lon="-105.2297133">
  <ele>1583.05</ele>
  <time>2026-08-28T17:49:34Z</time>
  <course>86.84</course>
  <speed>4.989027961436977</speed>
  <fix>3d</fix>
</trkpt>
<trkpt lat="40.0717724" lon="-105.2297265">
  <ele>1583.0</ele>
  <time>2026-08-28T17:49:34Z</time>
  <course>86.0</course>
  <speed>4.78</speed>
  <fix>3d</fix>
</trkpt>
<trkpt lat="40.071773" lon="-105.2297074">
  <ele>1583.05</ele>
  <time>2026-08-28T17:49:34Z</time>
  <course>86.83</course>
  <speed>5.07886798410827</speed>
  <fix>3d</fix>
</trkpt>
<trkpt lat="40.0717729" lon="-105.229715">
  <ele>1583.0</ele>
  <time>2026-08-28T17:49:34Z</time>
  <course>86.0</course>
  <speed>4.97</speed>
  <fix>3d</fix>
</trkpt>
<trkpt lat="40.0717733" lon="-105.2297014">
  <ele>1583.05</ele>
  <time>2026-08-28T17:49:34Z</time>
  <course>86.82</course>
  <speed>5.179285665031424</speed>
  <fix>3d</fix>
</trkpt>
<trkpt lat="40.0717729" lon="-105.229715">
  <ele>1583.0</ele>
  <time>2026-08-28T17:49:34Z</time>
  <course>86.0</course>
  <speed>4.97</speed>
  <fix>3d</fix>
</trkpt>
<trkpt lat="40.0717736" lon="-105.2296952">
  <ele>1583.05</ele>
  <time>2026-08-28T17:49:34Z</time>
  <course>86.82</course>
  <speed>5.269724850502159</speed>
  <fix>3d</fix>
</trkpt>
<trkpt lat="40.0717736" lon="-105.2297032">
  <ele>1583.0</ele>
  <time>2026-08-28T17:49:34Z</time>
  <course>86.0</course>
  <speed>5.16</speed>
  <fix>3d</fix>
</trkpt>
<trkpt lat="40.071774" lon="-105.229689">
  <ele>1583.05</ele>
  <time>2026-08-28T17:49:34Z</time>
  <course>86.81</course>
  <speed>5.37014897372503</speed>
  <fix>3d</fix>
</trkpt>
<trkpt lat="40.0717736" lon="-105.2297032">
  <ele>1583.0</ele>
  <time>2026-08-28T17:49:34Z</time>
  <course>86.0</course>
  <speed>5.16</speed>
  <fix>3d</fix>
</trkpt>
<trkpt lat="40.0717743" lon="-105.2296826">
  <ele>1583.05</ele>
  <time>2026-08-28T17:49:34Z</time>
  <course>86.81</course>
  <speed>5.469963436806502</speed>
  <fix>3d</fix>
</trkpt>
<trkpt lat="40.0717743" lon="-105.2296909">
  <ele>1583.0</ele>
  <time>2026-08-28T17:49:34Z</time>
  <course>86.0</course>
  <speed>5.35</speed>
  <fix>3d</fix>
</trkpt>
<trkpt lat="40.0717747" lon="-105.2296761">
  <ele>1583.04</ele>
  <time>2026-08-28T17:49:34Z</time>
  <course>86.8</course>
  <speed>5.570385983035647</speed>
  <fix>3d</fix>
</trkpt>
<trkpt lat="40.0717743" lon="-105.2296909">
  <ele>1583.0</ele>
  <time>2026-08-28T17:49:34Z</time>
  <course>86.0</course>
  <speed>5.35</speed>
  <fix>3d</fix>
</trkpt>
<trkpt lat="40.071775" lon="-105.2296695">
  <ele>1583.04</ele>
  <time>2026-08-28T17:49:34Z</time>
  <course>86.8</course>
  <speed>5.660830327787612</speed>
  <fix>3d</fix>
</trkpt>
<trkpt lat="40.071775" lon="-105.2296781">
  <ele>1583.0</ele>
  <time>2026-08-28T17:49:34Z</time>
  <course>86.0</course>
  <speed>5.54</speed>
  <fix>3d</fix>
</trkpt>
<trkpt lat="40.0717754" lon="-105.2296627">
  <ele>1583.03</ele>
  <time>2026-08-28T17:49:34Z</time>
  <course>86.79</course>
  <speed>5.741297762701391</speed>
  <fix>3d</fix>
</trkpt>
<trkpt lat="40.071775" lon="-105.2296781">
  <ele>1583.0</ele>
  <time>2026-08-28T17:49:34Z</time>
  <course>86.0</course>
  <speed>5.54</speed>
  <fix>3d</fix>
</trkpt>
<trkpt lat="40.0717757" lon="-105.2296559">
  <ele>1583.03</ele>
  <time>2026-08-28T17:49:34Z</time>
  <course>86.79</course>
  <speed>5.791200221024999</speed>
  <fix>3d</fix>
</trkpt>
<trkpt lat="40.0717757" lon="-105.2296649">
  <ele>1583.0</ele>
  <time>2026-08-28T17:49:34Z</time>
  <course>86.0</course>
  <speed>5.7</speed>
  <fix>3d</fix>
</trkpt>
<trkpt lat="40.0717761" lon="-105.2296491">
  <ele>1583.03</ele>
  <time>2026-08-28T17:49:34Z</time>
  <course>86.79</course>
  <speed>5.801180914262199</speed>
  <fix>3d</fix>
</trkpt>
<trkpt lat="40.0717757" lon="-105.2296649">
  <ele>1583.0</ele>
  <time>2026-08-28T17:49:34Z</time>
  <course>86.0</course>
  <speed>5.7</speed>
  <fix>3d</fix>
</trkpt>
<trkpt lat="40.0717765" lon="-105.2296423">
  <ele>1583.03</ele>
  <time>2026-08-28T17:49:34Z</time>
  <course>86.78</course>
  <speed>5.791200221024999</speed>
  <fix>3d</fix>
</trkpt>
<trkpt lat="40.0717764" lon="-105.2296514">
  <ele>1583.0</ele>
  <time>2026-08-28T17:49:34Z</time>
  <course>86.0</course>
  <speed>5.76</speed>
  <fix>3d</fix>
</trkpt>
<trkpt lat="40.0717769" lon="-105.2296355">
  <ele>1583.03</ele>
  <time>2026-08-28T17:49:34Z</time>
  <course>86.78</course>
  <speed>5.75127811881846</speed>
  <fix>3d</fix>
</trkpt>
<trkpt lat="40.0717764" lon="-105.2296514">
  <ele>1583.0</ele>
  <time>2026-08-28T17:49:34Z</time>
  <course>86.0</course>
  <speed>5.76</speed>
  <fix>3d</fix>
</trkpt>
<trkpt lat="40.0717772" lon="-105.2296287">
  <ele>1583.03</ele>
  <time>2026-08-28T17:49:34Z</time>
  <course>86.78</course>
  <speed>5.691397016550505</speed>
  <fix>3d</fix>
</trkpt>
<trkpt lat="40.0717771" lon="-105.229638">
  <ele>1583.0</ele>
  <time>2026-08-28T17:49:34Z</time>
  <course>86.0</course>
  <speed>5.71</speed>
  <fix>3d</fix>
</trkpt>
<trkpt lat="40.0717776" lon="-105.2296221">
  <ele>1583.03</ele>
  <time>2026-08-28T17:49:34Z</time>
  <course>86.77</course>
  <speed>5.601580134212131</speed>
  <fix>3d</fix>
</trkpt>
<trkpt lat="40.0717771" lon="-105.229638">
  <ele>1583.0</ele>
  <time>2026-08-28T17:49:34Z</time>
  <course>86.0</course>
  <speed>5.71</speed>
  <fix>3d</fix>
</trkpt>
<trkpt lat="40.071778" lon="-105.2296156">
  <ele>1583.03</ele>
  <time>2026-08-28T17:49:34Z</time>
  <course>86.77</course>
  <speed>5.501145335291552</speed>
  <fix>3d</fix>
</trkpt>
<trkpt lat="40.0717771" lon="-105.229638">
  <ele>1583.0</ele>
  <time>2026-08-28T17:49:34Z</time>
  <course>86.0</course>
  <speed>5.71</speed>
  <fix>3d</fix>
</trkpt>
<trkpt lat="40.0717783" lon="-105.2296093">
  <ele>1583.03</ele>
  <time>2026-08-28T17:49:34Z</time>
  <course>86.77</course>
  <speed>5.3813938714797676</speed>
  <fix>3d</fix>
</trkpt>
<trkpt lat="40.0717778" lon="-105.2296247">
  <ele>1583.0</ele>
  <time>2026-08-28T17:49:34Z</time>
  <course>86.0</course>
  <speed>5.57</speed>
  <fix>3d</fix>
</trkpt>
<trkpt lat="40.0717787" lon="-105.2296031">
  <ele>1583.04</ele>
  <time>2026-08-28T17:49:34Z</time>
  <course>86.77</course>
  <speed>5.251018948737474</speed>
  <fix>3d</fix>
</trkpt>
<trkpt lat="40.0717778" lon="-105.2296247">
  <ele>1583.0</ele>
  <time>2026-08-28T17:49:34Z</time>
  <course>86.0</course>
  <speed>5.57</speed>
  <fix>3d</fix>
</trkpt>
<trkpt lat="40.071779" lon="-105.2295972">
  <ele>1583.04</ele>
  <time>2026-08-28T17:49:34Z</time>
  <course>86.77</course>
  <speed>5.111320768646789</speed>
  <fix>3d</fix>
</trkpt>
<trkpt lat="40.0717785" lon="-105.2296119">
  <ele>1583.0</ele>
  <time>2026-08-28T17:49:34Z</time>
  <course>86.0</course>
  <speed>5.36</speed>
  <fix>3d</fix>
</trkpt>
<trkpt lat="40.0717793" lon="-105.2295914">
  <ele>1583.04</ele>
  <time>2026-08-28T17:49:34Z</time>
  <course>86.82</course>
  <speed>4.960332650135473</speed>
  <fix>3d</fix>
</trkpt>
<trkpt lat="40.0717785" lon="-105.2296119">
  <ele>1583.0</ele>
  <time>2026-08-28T17:49:34Z</time>
  <course>86.0</course>
  <speed>5.36</speed>
  <fix>3d</fix>
</trkpt>
<trkpt lat="40.0717796" lon="-105.2295858">
  <ele>1583.05</ele>
  <time>2026-08-28T17:49:34Z</time>
  <course>86.86</course>
  <speed>4.800020833288122</speed>
  <fix>3d</fix>
</trkpt>
<trkpt lat="40.0717791" lon="-105.2295997">
  <ele>1583.0</ele>
  <time>2026-08-28T17:49:34Z</time>
  <course>86.03</course>
  <speed>5.09</speed>
  <fix>3d</fix>
</trkpt>
<trkpt lat="40.0717799" lon="-105.2295803">
  <ele>1583.05</ele>
  <time>2026-08-28T17:49:34Z</time>
  <course>86.93</course>
  <speed>4.639709042601702</speed>
  <fix>3d</fix>
</trkpt>
<trkpt lat="40.0717791" lon="-105.2295997">
  <ele>1583.0</ele>
  <time>2026-08-28T17:49:34Z</time>
  <course>86.03</course>
  <speed>5.09</speed>
  <fix>3d</fix>
</trkpt>
<trkpt lat="40.0717802" lon="-105.2295751">
  <ele>1583.05</ele>
  <time>2026-08-28T17:49:34Z</time>
  <course>86.99</course>
  <speed>4.4694183066703435</speed>
  <fix>3d</fix>
</trkpt>
<trkpt lat="40.0717798" lon="-105.2295881">
  <ele>1583.0</ele>
  <time>2026-08-28T17:49:34Z</time>
  <course>86.11</course>
  <speed>4.8</speed>
  <fix>3d</fix>
</trkpt>
<trkpt lat="40.0717805" lon="-105.22957">
  <ele>1583.05</ele>
  <time>2026-08-28T17:49:34Z</time>
  <course>87.05</course>
  <speed>4.308468405361701</speed>
  <fix>3d</fix>
</trkpt>
<trkpt lat="40.0717803" lon="-105.2295772">
  <ele>1583.0</ele>
  <time>2026-08-28T17:49:34Z</time>
  <course>86.22</course>
  <speed>4.49</speed>
  <fix>3d</fix>
</trkpt>
<trkpt lat="40.0717807" lon="-105.2295651">
  <ele>1583.05</ele>
  <time>2026-08-28T17:49:34Z</time>
  <course>87.11</course>
  <speed>4.148156216923369</speed>
  <fix>3d</fix>
</trkpt>
<trkpt lat="40.0717803" lon="-105.2295772">
  <ele>1583.0</ele>
  <time>2026-08-28T17:49:34Z</time>
  <course>86.22</course>
  <speed>4.49</speed>
  <fix>3d</fix>
</trkpt>
<trkpt lat="40.071781" lon="-105.2295605">
  <ele>1583.06</ele>
  <time>2026-08-28T17:49:34Z</time>
  <course>87.17</course>
  <speed>3.9878440290462716</speed>
  <fix>3d</fix>
</trkpt>
<trkpt lat="40.0717808" lon="-105.229567">
  <ele>1583.0</ele>
  <time>2026-08-28T17:49:34Z</time>
  <course>86.34</course>
  <speed>4.18</speed>
  <fix>3d</fix>
</trkpt>
<trkpt lat="40.0717812" lon="-105.2295559">
  <ele>1583.06</ele>
  <time>2026-08-28T17:49:34Z</time>
  <course>87.22</course>
  <speed>3.8275318418009276</speed>
  <fix>3d</fix>
</trkpt>
<trkpt lat="40.0717808" lon="-105.229567">
  <ele>1583.0</ele>
  <time>2026-08-28T17:49:34Z</time>
  <course>86.34</course>
  <speed>4.18</speed>
  <fix>3d</fix>
</trkpt>
<trkpt lat="40.0717814" lon="-105.2295515">
  <ele>1583.06</ele>
  <time>2026-08-28T17:49:34Z</time>
  <course>87.3</course>
  <speed>3.6772000217556835</speed>
  <fix>3d</fix>
</trkpt>
<trkpt lat="40.0717813" lon="-105.2295576">
  <ele>1583.0</ele>
  <time>2026-08-28T17:49:34Z</time>
  <course>86.45</course>
  <speed>3.87</speed>
  <fix>3d</fix>
</trkpt>
<trkpt lat="40.0717816" lon="-105.2295473">
  <ele>1583.06</ele>
  <time>2026-08-28T17:49:34Z</time>
  <course>87.4</course>
  <speed>3.5262586405424092</speed>
  <fix>3d</fix>
</trkpt>
<trkpt lat="40.0717813" lon="-105.2295576">
  <ele>1583.0</ele>
  <time>2026-08-28T17:49:34Z</time>
  <course>86.45</course>
  <speed>3.87</speed>
  <fix>3d</fix>
</trkpt>
<trkpt lat="40.0717818" lon="-105.2295433">
  <ele>1583.06</ele>
  <time>2026-08-28T17:49:34Z</time>
  <course>87.49</course>
  <speed>3.3859119894055127</speed>
  <fix>3d</fix>
</trkpt>
<trkpt lat="40.0717817" lon="-105.2295489">
  <ele>1583.0</ele>
  <time>2026-08-28T17:49:34Z</time>
  <course>86.61</course>
  <speed>3.57</speed>
  <fix>3d</fix>
</trkpt>
<trkpt lat="40.071782" lon="-105.2295394">
  <ele>1583.05</ele>
  <time>2026-08-28T17:49:34Z</time>
  <course>87.59</course>
  <speed>3.2455662063806368</speed>
  <fix>3d</fix>
</trkpt>
<trkpt lat="40.0717817" lon="-105.2295489">
  <ele>1583.0</ele>
  <time>2026-08-28T17:49:34Z</time>
  <course>86.61</course>
  <speed>3.57</speed>
  <fix>3d</fix>
</trkpt>
<trkpt lat="40.0717822" lon="-105.2295357">
  <ele>1583.05</ele>
  <time>2026-08-28T17:49:34Z</time>
  <course>87.67</course>
  <speed>3.105221409175198</speed>
  <fix>3d</fix>
</trkpt>
<trkpt lat="40.071782" lon="-105.2295408">
  <ele>1583.0</ele>
  <time>2026-08-28T17:49:34Z</time>
  <course>86.8</course>
  <speed>3.29</speed>
  <fix>3d</fix>
</trkpt>
<trkpt lat="40.0717824" lon="-105.2295321">
  <ele>1583.05</ele>
  <time>2026-08-28T17:49:34Z</time>
  <course>87.77</course>
  <speed>2.974306641891518</speed>
  <fix>3d</fix>
</trkpt>
<trkpt lat="40.071782" lon="-105.2295408">
  <ele>1583.0</ele>
  <time>2026-08-28T17:49:34Z</time>
  <course>86.8</course>
  <speed>3.29</speed>
  <fix>3d</fix>
</trkpt>
<trkpt lat="40.0717825" lon="-105.2295287">
  <ele>1583.05</ele>
  <time>2026-08-28T17:49:34Z</time>
  <course>87.89</course>
  <speed>2.843958508839396</speed>
  <fix>3d</fix>
</trkpt>
<trkpt lat="40.0717823" lon="-105.2295334">
  <ele>1583.0</ele>
  <time>2026-08-28T17:49:34Z</time>
  <course>86.99</course>
  <speed>3.03</speed>
  <fix>3d</fix>
</trkpt>
<trkpt lat="40.0717826" lon="-105.2295254">
  <ele>1583.05</ele>
  <time>2026-08-28T17:49:34Z</time>
  <course>88.0</course>
  <speed>2.72360055808483</speed>
  <fix>3d</fix>
</trkpt>
<trkpt lat="40.0717823" lon="-105.2295334">
  <ele>1583.0</ele>
  <time>2026-08-28T17:49:34Z</time>
  <course>86.99</course>
  <speed>3.03</speed>
  <fix>3d</fix>
</trkpt>
<trkpt lat="40.0717827" lon="-105.2295223">
  <ele>1583.05</ele>
  <time>2026-08-28T17:49:34Z</time>
  <course>88.11</course>
  <speed>2.603247971285102</speed>
  <fix>3d</fix>
</trkpt>
<trkpt lat="40.0717823" lon="-105.2295334">
  <ele>1583.0</ele>
  <time>2026-08-28T17:49:34Z</time>
  <course>86.99</course>
  <speed>3.03</speed>
  <fix>3d</fix>
</trkpt>
<trkpt lat="40.0717829" lon="-105.2295193">
  <ele>1583.05</ele>
  <time>2026-08-28T17:49:34Z</time>
  <course>88.22</course>
  <speed>2.4928898892650673</speed>
  <fix>3d</fix>
</trkpt>
<trkpt lat="40.0717826" lon="-105.2295265">
  <ele>1583.0</ele>
  <time>2026-08-28T17:49:34Z</time>
  <course>87.22</course>
  <speed>2.79</speed>
  <fix>3d</fix>
</trkpt>
<trkpt lat="40.071783" lon="-105.2295165">
  <ele>1583.05</ele>
  <time>2026-08-28T17:49:34Z</time>
  <course>88.35</course>
  <speed>2.382540660723338</speed>
  <fix>3d</fix>
</trkpt>
<trkpt lat="40.0717826" lon="-105.2295265">
  <ele>1583.0</ele>
  <time>2026-08-28T17:49:34Z</time>
  <course>87.22</course>
  <speed>2.79</speed>
  <fix>3d</fix>
</trkpt>
<trkpt lat="40.071783" lon="-105.2295137">
  <ele>1583.05</ele>
  <time>2026-08-28T17:49:34Z</time>
  <course>88.48</course>
  <speed>2.272201575564985</speed>
  <fix>3d</fix>
</trkpt>
<trkpt lat="40.0717829" lon="-105.2295202">
  <ele>1583.0</ele>
  <time>2026-08-28T17:49:34Z</time>
  <course>87.45</course>
  <speed>2.56</speed>
  <fix>3d</fix>
</trkpt>
<trkpt lat="40.0717831" lon="-105.2295111">
  <ele>1583.05</ele>
  <time>2026-08-28T17:49:34Z</time>
  <course>88.61</course>
  <speed>2.171865557533431</speed>
  <fix>3d</fix>
</trkpt>
<trkpt lat="40.0717829" lon="-105.2295202">
  <ele>1583.0</ele>
  <time>2026-08-28T17:49:34Z</time>
  <course>87.45</course>
  <speed>2.56</speed>
  <fix>3d</fix>
</trkpt>
<trkpt lat="40.0717832" lon="-105.2295086">
  <ele>1583.05</ele>
  <time>2026-08-28T17:49:34Z</time>
  <course>88.76</course>
  <speed>2.0715453169071636</speed>
  <fix>3d</fix>
</trkpt>
<trkpt lat="40.0717831" lon="-105.2295145">
  <ele>1583.0</ele>
  <time>2026-08-28T17:49:34Z</time>
  <course>87.7</course>
  <speed>2.35</speed>
  <fix>3d</fix>
</trkpt>
<trkpt lat="40.0717833" lon="-105.2295062">
  <ele>1583.05</ele>
  <time>2026-08-28T17:49:34Z</time>
  <course>88.91</course>
  <speed>1.9712432625122653</speed>
  <fix>3d</fix>
</trkpt>
<trkpt lat="40.0717831" lon="-105.2295145">
  <ele>1583.0</ele>
  <time>2026-08-28T17:49:34Z</time>
  <course>87.7</course>
  <speed>2.35</speed>
  <fix>3d</fix>
</trkpt>
<trkpt lat="40.0717833" lon="-105.229504">
  <ele>1583.05</ele>
  <time>2026-08-28T17:49:34Z</time>
  <course>89.07</course>
  <speed>1.880957203128237</speed>
  <fix>3d</fix>
</trkpt>
<trkpt lat="40.0717832" lon="-105.2295092">
  <ele>1583.0</ele>
  <time>2026-08-28T17:49:34Z</time>
  <course>87.98</course>
  <speed>2.15</speed>
  <fix>3d</fix>
</trkpt>
<trkpt lat="40.0717834" lon="-105.2295018">
  <ele>1583.05</ele>
  <time>2026-08-28T17:49:34Z</time>
  <course>89.24</course>
  <speed>1.7807021087200408</speed>
  <fix>3d</fix>
</trkpt>
<trkpt lat="40.0717833" lon="-105.2295044">
  <ele>1583.0</ele>
  <time>2026-08-28T17:49:34Z</time>
  <course>88.29</course>
  <speed>1.96</speed>
  <fix>3d</fix>
</trkpt>
<trkpt lat="40.0717834" lon="-105.2294997">
  <ele>1583.05</ele>
  <time>2026-08-28T17:49:34Z</time>
  <course>89.41</course>
  <speed>1.690473306503241</speed>
  <fix>3d</fix>
</trkpt>
<trkpt lat="40.0717833" lon="-105.2295044">
  <ele>1583.0</ele>
  <time>2026-08-28T17:49:34Z</time>
  <course>88.29</course>
  <speed>1.96</speed>
  <fix>3d</fix>
</trkpt>
<trkpt lat="40.0717835" lon="-105.2294978">
  <ele>1583.05</ele>
  <time>2026-08-28T17:49:34Z</time>
  <course>89.6</course>
  <speed>1.600281225285106</speed>
  <fix>3d</fix>
</trkpt>
<trkpt lat="40.0717834" lon="-105.2295">
  <ele>1583.0</ele>
  <time>2026-08-28T17:49:34Z</time>
  <course>88.63</course>
  <speed>1.78</speed>
  <fix>3d</fix>
</trkpt>
<trkpt lat="40.0717835" lon="-105.2294959">
  <ele>1583.05</ele>
  <time>2026-08-28T17:49:34Z</time>
  <course>89.8</course>
  <speed>1.5102979838429236</speed>
  <fix>3d</fix>
</trkpt>
<trkpt lat="40.0717834" lon="-105.2295">
  <ele>1583.0</ele>
  <time>2026-08-28T17:49:34Z</time>
  <course>88.63</course>
  <speed>1.78</speed>
  <fix>3d</fix>
</trkpt>
<trkpt lat="40.0717835" lon="-105.2294941">
  <ele>1583.05</ele>
  <time>2026-08-28T17:49:34Z</time>
  <course>90.01</course>
  <speed>1.4201408380861387</speed>
  <fix>3d</fix>
</trkpt>
<trkpt lat="40.0717834" lon="-105.229496">
  <ele>1583.0</ele>
  <time>2026-08-28T17:49:34Z</time>
  <course>89.02</course>
  <speed>1.6</speed>
  <fix>3d</fix>
</trkpt>
<trkpt lat="40.0717835" lon="-105.2294924">
  <ele>1583.05</ele>
  <time>2026-08-28T17:49:34Z</time>
  <course>90.24</course>
  <speed>1.3300375934536586</speed>
  <fix>3d</fix>
</trkpt>
<trkpt lat="40.0717834" lon="-105.229496">
  <ele>1583.0</ele>
  <time>2026-08-28T17:49:34Z</time>
  <course>89.02</course>
  <speed>1.6</speed>
  <fix>3d</fix>
</trkpt>
<trkpt lat="40.0717835" lon="-105.2294909">
  <ele>1583.05</ele>
  <time>2026-08-28T17:49:34Z</time>
  <course>90.49</course>
  <speed>1.24</speed>
  <fix>3d</fix>
</trkpt>
<trkpt lat="40.0717834" lon="-105.2294924">
  <ele>1583.0</ele>
  <time>2026-08-28T17:49:34Z</time>
  <course>89.47</course>
  <speed>1.42</speed>
  <fix>3d</fix>
</trkpt>
<trkpt lat="40.0717835" lon="-105.2294894">
  <ele>1583.04</ele>
  <time>2026-08-28T17:49:34Z</time>
  <course>90.77</course>
  <speed>1.15</speed>
  <fix>3d</fix>
</trkpt>
<trkpt lat="40.0717834" lon="-105.2294924">
  <ele>1583.0</ele>
  <time>2026-08-28T17:49:34Z</time>
  <course>89.47</course>
  <speed>1.42</speed>
  <fix>3d</fix>
</trkpt>
<trkpt lat="40.0717835" lon="-105.229488">
  <ele>1583.04</ele>
  <time>2026-08-28T17:49:34Z</time>
  <course>91.08</course>
  <speed>1.06</speed>
  <fix>3d</fix>
</trkpt>
<trkpt lat="40.0717834" lon="-105.2294893">
  <ele>1583.0</ele>
  <time>2026-08-28T17:49:34Z</time>
  <course>89.99</course>
  <speed>1.25</speed>
  <fix>3d</fix>
</trkpt>
<trkpt lat="40.0717835" lon="-105.2294867">
  <ele>1583.04</ele>
  <time>2026-08-28T17:49:34Z</time>
  <course>91.42</course>
  <speed>0.970051545022222</speed>
  <fix>3d</fix>
</trkpt>
<trkpt lat="40.0717834" lon="-105.2294893">
  <ele>1583.0</ele>
  <time>2026-08-28T17:49:34Z</time>
  <course>89.99</course>
  <speed>1.25</speed>
  <fix>3d</fix>
</trkpt>
<trkpt lat="40.0717834" lon="-105.2294856">
  <ele>1583.04</ele>
  <time>2026-08-28T17:49:34Z</time>
  <course>91.79</course>
  <speed>0.8802272433866155</speed>
  <fix>3d</fix>
</trkpt>
<trkpt lat="40.0717834" lon="-105.2294865">
  <ele>1583.0</ele>
  <time>2026-08-28T17:49:34Z</time>
  <course>90.63</course>
  <speed>1.06</speed>
  <fix>3d</fix>
</trkpt>
<trkpt lat="40.0717834" lon="-105.2294845">
  <ele>1583.03</ele>
  <time>2026-08-28T17:49:34Z</time>
  <course>92.13</course>
  <speed>0.7902531240052139</speed>
  <fix>3d</fix>
</trkpt>
<trkpt lat="40.0717834" lon="-105.2294865">
  <ele>1583.0</ele>
  <time>2026-08-28T17:49:34Z</time>
  <course>90.63</course>
  <speed>1.06</speed>
  <fix>3d</fix>
</trkpt>
<trkpt lat="40.0717834" lon="-105.2294836">
  <ele>1583.03</ele>
  <time>2026-08-28T17:49:34Z</time>
  <course>92.46</course>
  <speed>0.6902897942168927</speed>
  <fix>3d</fix>
</trkpt>
<trkpt lat="40.0717834" lon="-105.2294843">
  <ele>1583.0</ele>
  <time>2026-08-28T17:49:34Z</time>
  <course>91.32</course>
  <speed>0.88</speed>
  <fix>3d</fix>
</trkpt>
<trkpt lat="40.0717834" lon="-105.2294827">
  <ele>1583.03</ele>
  <time>2026-08-28T17:49:34Z</time>
  <course>92.76</course>
  <speed>0.6007495318350236</speed>
  <fix>3d</fix>
</trkpt>
<trkpt lat="40.0717834" lon="-105.2294843">
  <ele>1583.0</ele>
  <time>2026-08-28T17:49:34Z</time>
  <course>91.32</course>
  <speed>0.88</speed>
  <fix>3d</fix>
</trkpt>
<trkpt lat="40.0717834" lon="-105.229482">
  <ele>1583.03</ele>
  <time>2026-08-28T17:49:34Z</time>
  <course>93.03</course>
  <speed>0.5008991914547277</speed>
  <fix>3d</fix>
</trkpt>
<trkpt lat="40.0717834" lon="-105.2294843">
  <ele>1583.0</ele>
  <time>2026-08-28T17:49:34Z</time>
  <course>91.32</course>
  <speed>0.88</speed>
  <fix>3d</fix>
</trkpt>
<trkpt lat="40.0717834" lon="-105.2294814">
  <ele>1583.03</ele>
  <time>2026-08-28T17:49:34Z</time>
  <course>93.27</course>
  <speed>0.41109609582188933</speed>
  <fix>3d</fix>
</trkpt>
<trkpt lat="40.0717834" lon="-105.2294824">
  <ele>1583.0</ele>
  <time>2026-08-28T17:49:34Z</time>
  <course>91.94</course>
  <speed>0.69</speed>
  <fix>3d</fix>
</trkpt>
<trkpt lat="40.0717833" lon="-105.2294809">
  <ele>1583.02</ele>
  <time>2026-08-28T17:49:34Z</time>
  <course>93.48</course>
  <speed>0.31064449134018135</speed>
  <fix>3d</fix>
</trkpt>
<trkpt lat="40.0717834" lon="-105.2294824">
  <ele>1583.0</ele>
  <time>2026-08-28T17:49:34Z</time>
  <course>91.94</course>
  <speed>0.69</speed>
  <fix>3d</fix>
</trkpt>
<trkpt lat="40.0717833" lon="-105.2294806">
  <ele>1583.02</ele>
  <time>2026-08-28T17:49:34Z</time>
  <course>93.65</course>
  <speed>0.2109502310972899</speed>
  <fix>3d</fix>
</trkpt>
<trkpt lat="40.0717834" lon="-105.229481">
  <ele>1583.0</ele>
  <time>2026-08-28T17:49:34Z</time>
  <course>92.44</course>
  <speed>0.5</speed>
  <fix>3d</fix>
</trkpt>
<trkpt lat="40.0717833" lon="-105.2294803">
  <ele>1583.02</ele>
  <time>2026-08-28T17:49:34Z</time>
  <course>93.78</course>
  <speed>0.1118033988749895</speed>
  <fix>3d</fix>
</trkpt>
<trkpt lat="40.0717834" lon="-105.229481">
  <ele>1583.0</ele>
  <time>2026-08-28T17:49:34Z</time>
  <course>92.44</course>
  <speed>0.5</speed>
  <fix>3d</fix>
</trkpt>
<trkpt lat="40.0717833" lon="-105.2294802">
  <ele>1583.02</ele>
  <time>2026-08-28T17:49:34Z</time>
  <course>93.87</course>
  <speed>0.022360679774997897</speed>
  <fix>3d</fix>
</trkpt>
<trkpt lat="40.0717834" lon="-105.22948">
  <ele>1583.0</ele>
  <time>2026-08-28T17:49:34Z</time>
  <course>92.8</course>
  <speed>0.3</speed>
  <fix>3d</fix>
</trkpt>
<trkpt lat="40.0717833" lon="-105.2294801">
  <ele>1583.02</ele>
  <time>2026-08-28T17:49:34Z</time>
  <course>93.88</course>
  <speed>0.07071067811865475</speed>
  <fix>3d</fix>
</trkpt>
<trkpt lat="40.0717834" lon="-105.2294795">
  <ele>1583.0</ele>
  <time>2026-08-28T17:49:34Z</time>
  <course>93.01</course>
  <speed>0.1</speed>
  <fix>3d</fix>
</trkpt>
<trkpt lat="40.0717833" lon="-105.2294802">
  <ele>1583.02</ele>
  <time>2026-08-28T17:49:34Z</time>
  <course>93.9</course>
  <speed>0.15</speed>
  <fix>3d</fix>
</trkpt>
<trkpt lat="40.0717834" lon="-105.2294795">
  <ele>1583.0</ele>
  <time>2026-08-28T17:49:34Z</time>
  <course>93.01</course>
  <speed>0.1</speed>
  <fix>3d</fix>
</trkpt>
<trkpt lat="40.0717833" lon="-105.2294803">
  <ele>1583.02</ele>
  <time>2026-08-28T17:49:34Z</time>
  <course>93.97</course>
  <speed>0.21</speed>
  <fix>3d</fix>
</trkpt>
<trkpt lat="40.0717834" lon="-105.2294795">
  <ele>1583.0</ele>
  <time>2026-08-28T17:49:34Z</time>
  <course>273.15</course>
  <speed>0.05</speed>
  <fix>3d</fix>
</trkpt>
<trkpt lat="40.0717833" lon="-105.2294805">
  <ele>1583.02</ele>
  <time>2026-08-28T17:49:34Z</time>
  <course>94.07</course>
  <speed>0.24</speed>
  <fix>3d</fix>
</trkpt>
<trkpt lat="40.0717834" lon="-105.2294795">
  <ele>1583.0</ele>
  <time>2026-08-28T17:49:34Z</time>
  <course>273.15</course>
  <speed>0.05</speed>
  <fix>3d</fix>
</trkpt>
<trkpt lat="40.0717833" lon="-105.2294807">
  <ele>1583.02</ele>
  <time>2026-08-28T17:49:34Z</time>
  <course>94.21</course>
  <speed>0.26</speed>
  <fix>3d</fix>
</trkpt>
<trkpt lat="40.0717834" lon="-105.2294798">
  <ele>1583.0</ele>
  <time>2026-08-28T17:49:34Z</time>
  <course>273.29</course>
  <speed>0.15</speed>
  <fix>3d</fix>
</trkpt>
<trkpt lat="40.0717833" lon="-105.2294809">
  <ele>1583.01</ele>
  <time>2026-08-28T17:49:34Z</time>
  <course>94.35</course>
  <speed>0.25</speed>
  <fix>3d</fix>
</trkpt>
<trkpt lat="40.0717834" lon="-105.2294798">
  <ele>1583.0</ele>
  <time>2026-08-28T17:49:34Z</time>
  <course>273.29</course>
  <speed>0.15</speed>
  <fix>3d</fix>
</trkpt>
<trkpt lat="40.0717833" lon="-105.2294811">
  <ele>1583.01</ele>
  <time>2026-08-28T17:49:34Z</time>
  <course>94.49</course>
  <speed>0.23</speed>
  <fix>3d</fix>
</trkpt>
<trkpt lat="40.0717834" lon="-105.22948">
  <ele>1583.0</ele>
  <time>2026-08-28T17:49:34Z</time>
  <course>273.52</course>
  <speed>0.16</speed>
  <fix>3d</fix>
</trkpt>
<trkpt lat="40.0717833" lon="-105.2294813">
  <ele>1583.01</ele>
  <time>2026-08-28T17:49:34Z</time>
  <course>94.62</course>
  <speed>0.18027756377319945</speed>
  <fix>3d</fix>
</trkpt>
<trkpt lat="40.0717834" lon="-105.22948">
  <ele>1583.0</ele>
  <time>2026-08-28T17:49:34Z</time>
  <course>273.52</course>
  <speed>0.16</speed>
  <fix>3d</fix>
</trkpt>
<trkpt lat="40.0717833" lon="-105.2294814">
  <ele>1583.01</ele>
  <time>2026-08-28T17:49:34Z</time>
  <course>94.71</course>
  <speed>0.12041594578792296</speed>
  <fix>3d</fix>
</trkpt>
<trkpt lat="40.0717834" lon="-105.2294804">
  <ele>1583.0</ele>
  <time>2026-08-28T17:49:34Z</time>
  <course>273.72</course>
  <speed>0.1</speed>
  <fix>3d</fix>
</trkpt>
<trkpt lat="40.0717833" lon="-105.2294814">
  <ele>1583.02</ele>
  <time>2026-08-28T17:49:34Z</time>
  <course>94.74</course>
  <speed>0.053851648071345036</speed>
  <fix>3d</fix>
</trkpt>
<trkpt lat="40.0717834" lon="-105.2294804">
  <ele>1583.0</ele>
  <time>2026-08-28T17:49:34Z</time>
  <course>273.72</course>
  <speed>0.1</speed>
  <fix>3d</fix>
</trkpt>
<trkpt lat="40.0717833" lon="-105.2294813">
  <ele>1583.02</ele>
  <time>2026-08-28T17:49:34Z</time>
  <course>94.76</course>
  <speed>0.04242640687119285</speed>
  <fix>3d</fix>
</trkpt>
<trkpt lat="40.0717834" lon="-105.2294806">
  <ele>1583.0</ele>
  <time>2026-08-28T17:49:34Z</time>
  <course>94.05</course>
  <speed>0.02</speed>
  <fix>3d</fix>
</trkpt>
<trkpt lat="40.0717833" lon="-105.2294811">
  <ele>1583.02</ele>
  <time>2026-08-28T17:49:34Z</time>
  <course>94.94</course>
  <speed>0.13601470508735444</speed>
  <fix>3d</fix>
</trkpt>
<trkpt lat="40.0717834" lon="-105.2294806">
  <ele>1583.0</ele>
  <time>2026-08-28T17:49:34Z</time>
  <course>94.05</course>
  <speed>0.02</speed>
  <fix>3d</fix>
</trkpt>
<trkpt lat="40.0717833" lon="-105.2294809">
  <ele>1583.02</ele>
  <time>2026-08-28T17:49:34Z</time>
  <course>95.28</course>
  <speed>0.24515301344262524</speed>
  <fix>3d</fix>
</trkpt>
<trkpt lat="40.0717834" lon="-105.2294804">
  <ele>1583.0</ele>
  <time>2026-08-28T17:49:34Z</time>
  <course>94.32</course>
  <speed>0.2</speed>
  <fix>3d</fix>
</trkpt>
<trkpt lat="40.0717832" lon="-105.2294804">
  <ele>1583.02</ele>
  <time>2026-08-28T17:49:34Z</time>
  <course>95.79</course>
  <speed>0.366742416417845</speed>
  <fix>3d</fix>
</trkpt>
<trkpt lat="40.0717834" lon="-105.2294804">
  <ele>1583.0</ele>
  <time>2026-08-28T17:49:34Z</time>
  <course>94.32</course>
  <speed>0.2</speed>
  <fix>3d</fix>
</trkpt>
<trkpt lat="40.0717832" lon="-105.2294798">
  <ele>1583.02</ele>
  <time>2026-08-28T17:49:34Z</time>
  <course>96.54</course>
  <speed>0.4883646178829912</speed>
  <fix>3d</fix>
</trkpt>
<trkpt lat="40.0717834" lon="-105.2294804">
  <ele>1583.0</ele>
  <time>2026-08-28T17:49:34Z</time>
  <course>94.32</course>
  <speed>0.2</speed>
  <fix>3d</fix>
</trkpt>
<trkpt lat="40.0717831" lon="-105.2294791">
  <ele>1583.02</ele>
  <time>2026-08-28T17:49:34Z</time>
  <course>97.59</course>
  <speed>0.6118823416311342</speed>
  <fix>3d</fix>
</trkpt>
<trkpt lat="40.0717834" lon="-105.2294797">
  <ele>1583.0</ele>
  <time>2026-08-28T17:49:34Z</time>
  <course>95.26</course>
  <speed>0.42</speed>
  <fix>3d</fix>
</trkpt>
<trkpt lat="40.071783" lon="-105.2294782">
  <ele>1583.02</ele>
  <time>2026-08-28T17:49:34Z</time>
  <course>98.93</course>
  <speed>0.7354590403278758</speed>
  <fix>3d</fix>
</trkpt>
<trkpt lat="40.0717834" lon="-105.2294797">
  <ele>1583.0</ele>
  <time>2026-08-28T17:49:34Z</time>
  <course>95.26</course>
  <speed>0.42</speed>
  <fix>3d</fix>
</trkpt>
<trkpt lat="40.0717829" lon="-105.2294772">
  <ele>1583.02</ele>
  <time>2026-08-28T17:49:34Z</time>
  <course>100.64</course>
  <speed>0.863481325796916</speed>
  <fix>3d</fix>
</trkpt>
<trkpt lat="40.0717833" lon="-105.2294784">
  <ele>1583.0</ele>
  <time>2026-08-28T17:49:34Z</time>
  <course>97.13</course>
  <speed>0.66</speed>
  <fix>3d</fix>
</trkpt>
<trkpt lat="40.0717827" lon="-105.229476">
  <ele>1583.01</ele>
  <time>2026-08-28T17:49:34Z</time>
  <course>102.8</course>
  <speed>0.9945853407325085</speed>
  <fix>3d</fix>
</trkpt>
<trkpt lat="40.0717833" lon="-105.2294784">
  <ele>1583.0</ele>
  <time>2026-08-28T17:49:34Z</time>
  <course>97.13</course>
  <speed>0.66</speed>
  <fix>3d</fix>
</trkpt>
<trkpt lat="40.0717824" lon="-105.2294748">
  <ele>1583.01</ele>
  <time>2026-08-28T17:49:34Z</time>
  <course>105.4</course>
  <speed>1.1131936040060597</speed>
  <fix>3d</fix>
</trkpt>
<trkpt lat="40.0717831" lon="-105.2294766">
  <ele>1583.0</ele>
  <time>2026-08-28T17:49:34Z</time>
  <course>100.3</course>
  <speed>0.9</speed>
  <fix>3d</fix>
</trkpt>
<trkpt lat="40.0717821" lon="-105.2294734">
  <ele>1583.01</ele>
  <time>2026-08-28T17:49:34Z</time>
  <course>108.33</course>
  <speed>1.227762191957384</speed>
  <fix>3d</fix>
</trkpt>
<trkpt lat="40.0717831" lon="-105.2294766">
  <ele>1583.0</ele>
  <time>2026-08-28T17:49:34Z</time>
  <course>100.3</course>
  <speed>0.9</speed>
  <fix>3d</fix>
</trkpt>
<trkpt lat="40.0717817" lon="-105.2294719">
  <ele>1583.01</ele>
  <time>2026-08-28T17:49:34Z</time>
  <course>111.68</course>
  <speed>1.3433167906342869</speed>
  <fix>3d</fix>
</trkpt>
<trkpt lat="40.0717827" lon="-105.2294742">
  <ele>1583.0</ele>
  <time>2026-08-28T17:49:34Z</time>
  <course>105.03</course>
  <speed>1.13</speed>
  <fix>3d</fix>
</trkpt>
<trkpt lat="40.0717812" lon="-105.2294703">
  <ele>1583.01</ele>
  <time>2026-08-28T17:49:34Z</time>
  <course>115.42</course>
  <speed>1.4490341610879987</speed>
  <fix>3d</fix>
</trkpt>
<trkpt lat="40.071782" lon="-105.2294714">
  <ele>1583.0</ele>
  <time>2026-08-28T17:49:34Z</time>
  <course>111.33</course>
  <speed>1.35</speed>
  <fix>3d</fix>
</trkpt>
<trkpt lat="40.0717805" lon="-105.2294687">
  <ele>1583.01</ele>
  <time>2026-08-28T17:49:34Z</time>
  <course>119.61</course>
  <speed>1.548709139896837</speed>
  <fix>3d</fix>
</trkpt>
<trkpt lat="40.071782" lon="-105.2294714">
  <ele>1583.0</ele>
  <time>2026-08-28T17:49:34Z</time>
  <course>111.33</course>
  <speed>1.35</speed>
  <fix>3d</fix>
</trkpt>
<trkpt lat="40.0717798" lon="-105.229467">
  <ele>1583.01</ele>
  <time>2026-08-28T17:49:34Z</time>
  <course>124.23</course>
  <speed>1.640274367293472</speed>
  <fix>3d</fix>
</trkpt>
<trkpt lat="40.0717809" lon="-105.2294684">
  <ele>1583.0</ele>
  <time>2026-08-28T17:49:34Z</time>
  <course>119.29</course>
  <speed>1.54</speed>
  <fix>3d</fix>
</trkpt>
<trkpt lat="40.0717788" lon="-105.2294654">
  <ele>1583.01</ele>
  <time>2026-08-28T17:49:34Z</time>
  <course>129.38</course>
  <speed>1.7300289014926888</speed>
  <fix>3d</fix>
</trkpt>
<trkpt lat="40.0717809" lon="-105.2294684">
  <ele>1583.0</ele>
  <time>2026-08-28T17:49:34Z</time>
  <course>119.29</course>
  <speed>1.54</speed>
  <fix>3d</fix>
</trkpt>
<trkpt lat="40.0717777" lon="-105.2294638">
  <ele>1583.01</ele>
  <time>2026-08-28T17:49:34Z</time>
  <course>135.1</course>
  <speed>1.803801541190161</speed>
  <fix>3d</fix>
</trkpt>
<trkpt lat="40.0717792" lon="-105.2294652">
  <ele>1583.0</ele>
  <time>2026-08-28T17:49:34Z</time>
  <course>129.14</course>
  <speed>1.71</speed>
  <fix>3d</fix>
</trkpt>
<trkpt lat="40.0717765" lon="-105.2294623">
  <ele>1583.01</ele>
  <time>2026-08-28T17:49:34Z</time>
  <course>141.51</course>
  <speed>1.8700267377767625</speed>
  <fix>3d</fix>
</trkpt>
<trkpt lat="40.0717792" lon="-105.2294652">
  <ele>1583.0</ele>
  <time>2026-08-28T17:49:34Z</time>
  <course>129.14</course>
  <speed>1.71</speed>
  <fix>3d</fix>
</trkpt>
<trkpt lat="40.0717751" lon="-105.229461">
  <ele>1583.02</ele>
  <time>2026-08-28T17:49:34Z</time>
  <course>148.68</course>
  <speed>1.9312690128513947</speed>
  <fix>3d</fix>
</trkpt>
<trkpt lat="40.071777" lon="-105.2294623">
  <ele>1583.0</ele>
  <time>2026-08-28T17:49:34Z</time>
  <course>141.29</course>
  <speed>1.83</speed>
  <fix>3d</fix>
</trkpt>
<trkpt lat="40.0717735" lon="-105.2294599">
  <ele>1583.02</ele>
  <time>2026-08-28T17:49:34Z</time>
  <course>156.46</course>
  <speed>1.9592345444075858</speed>
  <fix>3d</fix>
</trkpt>
<trkpt lat="40.071777" lon="-105.2294623">
  <ele>1583.0</ele>
  <time>2026-08-28T17:49:34Z</time>
  <course>141.29</course>
  <speed>1.83</speed>
  <fix>3d</fix>
</trkpt>
<trkpt lat="40.0717718" lon="-105.2294592">
  <ele>1583.02</ele>
  <time>2026-08-28T17:49:34Z</time>
  <course>164.82</course>
  <speed>1.9815398053029367</speed>
  <fix>3d</fix>
</trkpt>
<trkpt lat="40.0717741" lon="-105.2294599">
  <ele>1583.0</ele>
  <time>2026-08-28T17:49:34Z</time>
  <course>156.05</course>
  <speed>1.9</speed>
  <fix>3d</fix>
</trkpt>
<trkpt lat="40.07177" lon="-105.2294587">
  <ele>1583.02</ele>
  <time>2026-08-28T17:49:34Z</time>
  <course>173.64</course>
  <speed>1.9990497742677644</speed>
  <fix>3d</fix>
</trkpt>
<trkpt lat="40.0717741" lon="-105.2294599">
  <ele>1583.0</ele>
  <time>2026-08-28T17:49:34Z</time>
  <course>156.05</course>
  <speed>1.9</speed>
  <fix>3d</fix>
</trkpt>
<trkpt lat="40.0717683" lon="-105.2294587">
  <ele>1583.02</ele>
  <time>2026-08-28T17:49:34Z</time>
  <course>182.77</course>
  <speed>2.003022715797302</speed>
  <fix>3d</fix>
</trkpt>
<trkpt lat="40.0717708" lon="-105.2294588">
  <ele>1583.0</ele>
  <time>2026-08-28T17:49:34Z</time>
  <course>173.01</course>
  <speed>1.93</speed>
  <fix>3d</fix>
</trkpt>
<trkpt lat="40.0717665" lon="-105.229459">
  <ele>1583.02</ele>
  <time>2026-08-28T17:49:34Z</time>
  <course>192.01</course>
  <speed>1.9947180251855148</speed>
  <fix>3d</fix>
</trkpt>
<trkpt lat="40.0717708" lon="-105.2294588">
  <ele>1583.0</ele>
  <time>2026-08-28T17:49:34Z</time>
  <course>173.01</course>
  <speed>1.93</speed>
  <fix>3d</fix>
</trkpt>
<trkpt lat="40.0717648" lon="-105.2294597">
  <ele>1583.02</ele>
  <time>2026-08-28T17:49:34Z</time>
  <course>201.13</course>
  <speed>1.9758542456365549</speed>
  <fix>3d</fix>
</trkpt>
<trkpt lat="40.0717673" lon="-105.2294589">
  <ele>1583.0</ele>
  <time>2026-08-28T17:49:34Z</time>
  <course>191.08</course>
  <speed>1.93</speed>
  <fix>3d</fix>
</trkpt>
<trkpt lat="40.0717632" lon="-105.2294607">
  <ele>1583.02</ele>
  <time>2026-08-28T17:49:34Z</time>
  <course>209.97</course>
  <speed>1.9622436138257655</speed>
  <fix>3d</fix>
</trkpt>
<trkpt lat="40.0717673" lon="-105.2294589">
  <ele>1583.0</ele>
  <time>2026-08-28T17:49:34Z</time>
  <course>191.08</course>
  <speed>1.93</speed>
  <fix>3d</fix>
</trkpt>
<trkpt lat="40.0717618" lon="-105.2294621">
  <ele>1583.02</ele>
  <time>2026-08-28T17:49:34Z</time>
  <course>218.36</course>
  <speed>1.9365949499056327</speed>
  <fix>3d</fix>
</trkpt>
<trkpt lat="40.0717673" lon="-105.2294589">
  <ele>1583.0</ele>
  <time>2026-08-28T17:49:34Z</time>
  <course>191.08</course>
  <speed>1.93</speed>
  <fix>3d</fix>
</trkpt>
<trkpt lat="40.0717606" lon="-105.2294635">
  <ele>1583.01</ele>
  <time>2026-08-28T17:49:34Z</time>
  <course>226.19</course>
  <speed>1.902445794234359</speed>
  <fix>3d</fix>
</trkpt>
<trkpt lat="40.071764" lon="-105.2294604">
  <ele>1583.0</ele>
  <time>2026-08-28T17:49:34Z</time>
  <course>208.86</course>
  <speed>1.91</speed>
  <fix>3d</fix>
</trkpt>
<trkpt lat="40.0717595" lon="-105.2294652">
  <ele>1583.01</ele>
  <time>2026-08-28T17:49:34Z</time>
  <course>233.37</course>
  <speed>1.8720042734993956</speed>
  <fix>3d</fix>
</trkpt>
<trkpt lat="40.071764" lon="-105.2294604">
  <ele>1583.0</ele>
  <time>2026-08-28T17:49:34Z</time>
  <course>208.86</course>
  <speed>1.91</speed>
  <fix>3d</fix>
</trkpt>
<trkpt lat="40.0717586" lon="-105.229467">
  <ele>1583.01</ele>
  <time>2026-08-28T17:49:34Z</time>
  <course>239.87</course>
  <speed>1.8420097719610502</speed>
  <fix>3d</fix>
</trkpt>
<trkpt lat="40.0717614" lon="-105.229463">
  <ele>1583.0</ele>
  <time>2026-08-28T17:49:34Z</time>
  <course>224.99</course>
  <speed>1.87</speed>
  <fix>3d</fix>
</trkpt>
<trkpt lat="40.0717579" lon="-105.2294689">
  <ele>1583.02</ele>
  <time>2026-08-28T17:49:34Z</time>
  <course>245.68</course>
  <speed>1.8124568960391858</speed>
  <fix>3d</fix>
</trkpt>
<trkpt lat="40.0717614" lon="-105.229463">
  <ele>1583.0</ele>
  <time>2026-08-28T17:49:34Z</time>
  <course>224.99</course>
  <speed>1.87</speed>
  <fix>3d</fix>
</trkpt>
<trkpt lat="40.0717574" lon="-105.2294708">
  <ele>1583.02</ele>
  <time>2026-08-28T17:49:34Z</time>
  <course>250.77</course>
  <speed>1.7900279327429502</speed>
  <fix>3d</fix>
</trkpt>
<trkpt lat="40.0717593" lon="-105.2294664">
  <ele>1583.0</ele>
  <time>2026-08-28T17:49:34Z</time>
  <course>238.64</course>
  <speed>1.83</speed>
  <fix>3d</fix>
</trkpt>
<trkpt lat="40.0717569" lon="-105.2294728">
  <ele>1583.02</ele>
  <time>2026-08-28T17:49:34Z</time>
  <course>255.05</course>
  <speed>1.770790783802536</speed>
  <fix>3d</fix>
</trkpt>
<trkpt lat="40.0717579" lon="-105.2294703">
  <ele>1583.0</ele>
  <time>2026-08-28T17:49:34Z</time>
  <course>249.49</course>
  <speed>1.79</speed>
  <fix>3d</fix>
</trkpt>
<trkpt lat="40.0717566" lon="-105.2294749">
  <ele>1583.02</ele>
  <time>2026-08-28T17:49:34Z</time>
  <course>258.56</course>
  <speed>1.7768511473953017</speed>
  <fix>3d</fix>
</trkpt>
<trkpt lat="40.0717579" lon="-105.2294703">
  <ele>1583.0</ele>
  <time>2026-08-28T17:49:34Z</time>
  <course>249.49</course>
  <speed>1.79</speed>
  <fix>3d</fix>
</trkpt>
<trkpt lat="40.0717564" lon="-105.2294769">
  <ele>1583.02</ele>
  <time>2026-08-28T17:49:34Z</time>
  <course>261.5</course>
  <speed>1.800361074895811</speed>
  <fix>3d</fix>
</trkpt>
<trkpt lat="40.071757" lon="-105.2294743">
  <ele>1583.0</ele>
  <time>2026-08-28T17:49:34Z</time>
  <course>257.44</course>
  <speed>1.79</speed>
  <fix>3d</fix>
</trkpt>
<trkpt lat="40.0717562" lon="-105.229479">
  <ele>1583.02</ele>
  <time>2026-08-28T17:49:34Z</time>
  <course>263.93</course>
  <speed>1.8309560344257314</speed>
  <fix>3d</fix>
</trkpt>
<trkpt lat="40.071757" lon="-105.2294743">
  <ele>1583.0</ele>
  <time>2026-08-28T17:49:34Z</time>
  <course>257.44</course>
  <speed>1.79</speed>
  <fix>3d</fix>
</trkpt>
<trkpt lat="40.0717561" lon="-105.2294812">
  <ele>1583.02</ele>
  <time>2026-08-28T17:49:34Z</time>
  <course>265.99</course>
  <speed>1.8844893207444822</speed>
  <fix>3d</fix>
</trkpt>
<trkpt lat="40.0717565" lon="-105.2294785">
  <ele>1583.0</ele>
  <time>2026-08-28T17:49:34Z</time>
  <course>262.94</course>
  <speed>1.85</speed>
  <fix>3d</fix>
</trkpt>
<trkpt lat="40.071756" lon="-105.2294835">
  <ele>1583.02</ele>
  <time>2026-08-28T17:49:34Z</time>
  <course>267.72</course>
  <speed>1.94164878389476</speed>
  <fix>3d</fix>
</trkpt>
<trkpt lat="40.0717565" lon="-105.2294785">
  <ele>1583.0</ele>
  <time>2026-08-28T17:49:34Z</time>
  <course>262.94</course>
  <speed>1.85</speed>
  <fix>3d</fix>
</trkpt>
<trkpt lat="40.071756" lon="-105.2294859">
  <ele>1583.01</ele>
  <time>2026-08-28T17:49:34Z</time>
  <course>269.19</course>
  <speed>2.020222759994551</speed>
  <fix>3d</fix>
</trkpt>
<trkpt lat="40.0717561" lon="-105.2294829">
  <ele>1583.0</ele>
  <time>2026-08-28T17:49:34Z</time>
  <course>266.78</course>
  <speed>1.96</speed>
  <fix>3d</fix>
</trkpt>
<trkpt lat="40.071756" lon="-105.2294883">
  <ele>1583.01</ele>
  <time>2026-08-28T17:49:34Z</time>
  <course>270.43</course>
  <speed>2.1</speed>
  <fix>3d</fix>
</trkpt>
<trkpt lat="40.0717561" lon="-105.2294829">
  <ele>1583.0</ele>
  <time>2026-08-28T17:49:34Z</time>
  <course>266.78</course>
  <speed>1.96</speed>
  <fix>3d</fix>
</trkpt>
<trkpt lat="40.071756" lon="-105.2294909">
  <ele>1583.01</ele>
  <time>2026-08-28T17:49:34Z</time>
  <course>271.46</course>
  <speed>2.180366941594923</speed>
  <fix>3d</fix>
</trkpt>
<trkpt lat="40.071756" lon="-105.2294877">
  <ele>1583.0</ele>
  <time>2026-08-28T17:49:34Z</time>
  <course>269.5</course>
  <speed>2.11</speed>
  <fix>3d</fix>
</trkpt>
<trkpt lat="40.071756" lon="-105.2294935">
  <ele>1583.01</ele>
  <time>2026-08-28T17:49:34Z</time>
  <course>272.32</course>
  <speed>2.2714092541856035</speed>
  <fix>3d</fix>
</trkpt>
<trkpt lat="40.071756" lon="-105.2294877">
  <ele>1583.0</ele>
  <time>2026-08-28T17:49:34Z</time>
  <course>269.5</course>
  <speed>2.11</speed>
  <fix>3d</fix>
</trkpt>
<trkpt lat="40.0717561" lon="-105.2294963">
  <ele>1583.01</ele>
  <time>2026-08-28T17:49:34Z</time>
  <course>273.04</course>
  <speed>2.3625621684941964</speed>
  <fix>3d</fix>
</trkpt>
<trkpt lat="40.0717561" lon="-105.2294929">
  <ele>1583.0</ele>
  <time>2026-08-28T17:49:34Z</time>
  <course>271.42</course>
  <speed>2.28</speed>
  <fix>3d</fix>
</trkpt>
<trkpt lat="40.0717562" lon="-105.2294992">
  <ele>1583.01</ele>
  <time>2026-08-28T17:49:34Z</time>
  <course>273.63</course>
  <speed>2.463980519403512</speed>
  <fix>3d</fix>
</trkpt>
<trkpt lat="40.0717561" lon="-105.2294929">
  <ele>1583.0</ele>
  <time>2026-08-28T17:49:34Z</time>
  <course>271.42</course>
  <speed>2.28</speed>
  <fix>3d</fix>
</trkpt>
<trkpt lat="40.0717564" lon="-105.2295022">
  <ele>1583.01</ele>
  <time>2026-08-28T17:49:34Z</time>
  <course>274.11</course>
  <speed>2.5656383221335</speed>
  <fix>3d</fix>
</trkpt>
<trkpt lat="40.0717562" lon="-105.2294984">
  <ele>1583.0</ele>
  <time>2026-08-28T17:49:34Z</time>
  <course>272.73</course>
  <speed>2.47</speed>
  <fix>3d</fix>
</trkpt>
<trkpt lat="40.0717565" lon="-105.2295053">
  <ele>1583.01</ele>
  <time>2026-08-28T17:49:34Z</time>
  <course>274.49</course>
  <speed>2.6667770810474583</speed>
  <fix>3d</fix>
</trkpt>
<trkpt lat="40.0717562" lon="-105.2294984">
  <ele>1583.0</ele>
  <time>2026-08-28T17:49:34Z</time>
  <course>272.73</course>
  <speed>2.47</speed>
  <fix>3d</fix>
</trkpt>
<trkpt lat="40.0717567" lon="-105.2295085">
  <ele>1583.01</ele>
  <time>2026-08-28T17:49:34Z</time>
  <course>274.78</course>
  <speed>2.7779488836189916</speed>
  <fix>3d</fix>
</trkpt>
<trkpt lat="40.0717562" lon="-105.2294984">
  <ele>1583.0</ele>
  <time>2026-08-28T17:49:34Z</time>
  <course>272.73</course>
  <speed>2.47</speed>
  <fix>3d</fix>
</trkpt>
<trkpt lat="40.0717569" lon="-105.2295118">
  <ele>1583.01</ele>
  <time>2026-08-28T17:49:34Z</time>
  <course>275.0</course>
  <speed>2.879201278132531</speed>
  <fix>3d</fix>
</trkpt>
<trkpt lat="40.0717564" lon="-105.2295045">
  <ele>1583.0</ele>
  <time>2026-08-28T17:49:34Z</time>
  <course>273.59</course>
  <speed>2.67</speed>
  <fix>3d</fix>
</trkpt>
<trkpt lat="40.0717571" lon="-105.2295153">
  <ele>1583.01</ele>
  <time>2026-08-28T17:49:34Z</time>
  <course>275.17</course>
  <speed>2.9796811910001377</speed>
  <fix>3d</fix>
</trkpt>
<trkpt lat="40.0717564" lon="-105.2295045">
  <ele>1583.0</ele>
  <time>2026-08-28T17:49:34Z</time>
  <course>273.59</course>
  <speed>2.67</speed>
  <fix>3d</fix>
</trkpt>
<trkpt lat="40.0717573" lon="-105.2295189">
  <ele>1583.01</ele>
  <time>2026-08-28T17:49:34Z</time>
  <course>275.28</course>
  <speed>3.0909545451203257</speed>
  <fix>3d</fix>
</trkpt>
<trkpt lat="40.0717568" lon="-105.2295111">
  <ele>1583.0</ele>
  <time>2026-08-28T17:49:34Z</time>
  <course>274.12</course>
  <speed>2.88</speed>
  <fix>3d</fix>
</trkpt>
<trkpt lat="40.0717575" lon="-105.2295225">
  <ele>1583.01</ele>
  <time>2026-08-28T17:49:34Z</time>
  <course>275.34</course>
  <speed>3.1914416804948824</speed>
  <fix>3d</fix>
</trkpt>
<trkpt lat="40.0717568" lon="-105.2295111">
  <ele>1583.0</ele>
  <time>2026-08-28T17:49:34Z</time>
  <course>274.12</course>
  <speed>2.88</speed>
  <fix>3d</fix>
</trkpt>
<trkpt lat="40.0717578" lon="-105.2295264">
  <ele>1583.01</ele>
  <time>2026-08-28T17:49:34Z</time>
  <course>275.36</course>
  <speed>3.301893396219811</speed>
  <fix>3d</fix>
</trkpt>
<trkpt lat="40.0717571" lon="-105.229518">
  <ele>1583.0</ele>
  <time>2026-08-28T17:49:34Z</time>
  <course>274.4</course>
  <speed>3.09</speed>
  <fix>3d</fix>
</trkpt>
<trkpt lat="40.071758" lon="-105.2295303">
  <ele>1583.01</ele>
  <time>2026-08-28T17:49:34Z</time>
  <course>275.36</course>
  <speed>3.401543767173958</speed>
  <fix>3d</fix>
</trkpt>
<trkpt lat="40.0717571" lon="-105.229518">
  <ele>1583.0</ele>
  <time>2026-08-28T17:49:34Z</time>
  <course>274.4</course>
  <speed>3.09</speed>
  <fix>3d</fix>
</trkpt>
<trkpt lat="40.0717583" lon="-105.2295344">
  <ele>1583.0</ele>
  <time>2026-08-28T17:49:34Z</time>
  <course>275.37</course>
  <speed>3.5119937357575113</speed>
  <fix>3d</fix>
</trkpt>
<trkpt lat="40.0717576" lon="-105.2295255">
  <ele>1583.0</ele>
  <time>2026-08-28T17:49:34Z</time>
  <course>274.49</course>
  <speed>3.3</speed>
  <fix>3d</fix>
</trkpt>
<trkpt lat="40.0717585" lon="-105.2295385">
  <ele>1583.01</ele>
  <time>2026-08-28T17:49:34Z</time>
  <course>275.37</course>
  <speed>3.612478373637688</speed>
  <fix>3d</fix>
</trkpt>
<trkpt lat="40.0717581" lon="-105.2295335">
  <ele>1583.0</ele>
  <time>2026-08-28T17:49:34Z</time>
  <course>274.5</course>
  <speed>3.51</speed>
  <fix>3d</fix>
</trkpt>
<trkpt lat="40.0717588" lon="-105.2295429">
  <ele>1583.01</ele>
  <time>2026-08-28T17:49:34Z</time>
  <course>275.36</course>
  <speed>3.712963775745732</speed>
  <fix>3d</fix>
</trkpt>
<trkpt lat="40.0717581" lon="-105.2295335">
  <ele>1583.0</ele>
  <time>2026-08-28T17:49:34Z</time>
  <course>274.5</course>
  <speed>3.51</speed>
  <fix>3d</fix>
</trkpt>
<trkpt lat="40.071759" lon="-105.2295473">
  <ele>1583.01</ele>
  <time>2026-08-28T17:49:34Z</time>
  <course>275.36</course>
  <speed>3.802656965859529</speed>
  <fix>3d</fix>
</trkpt>
<trkpt lat="40.0717586" lon="-105.229542">
  <ele>1583.0</ele>
  <time>2026-08-28T17:49:34Z</time>
  <course>274.5</course>
  <speed>3.7</speed>
  <fix>3d</fix>
</trkpt>
<trkpt lat="40.0717593" lon="-105.2295518">
  <ele>1583.01</ele>
  <time>2026-08-28T17:49:34Z</time>
  <course>275.36</course>
  <speed>3.883207437158103</speed>
  <fix>3d</fix>
</trkpt>
<trkpt lat="40.0717586" lon="-105.229542">
  <ele>1583.0</ele>
  <time>2026-08-28T17:49:34Z</time>
  <course>274.5</course>
  <speed>3.7</speed>
  <fix>3d</fix>
</trkpt>
<trkpt lat="40.0717596" lon="-105.2295565">
  <ele>1583.02</ele>
  <time>2026-08-28T17:49:34Z</time>
  <course>275.36</course>
  <speed>3.962940827214053</speed>
  <fix>3d</fix>
</trkpt>
<trkpt lat="40.0717592" lon="-105.2295508">
  <ele>1583.0</ele>
  <time>2026-08-28T17:49:34Z</time>
  <course>274.5</course>
  <speed>3.88</speed>
  <fix>3d</fix>
</trkpt>
<trkpt lat="40.0717599" lon="-105.2295612">
  <ele>1583.02</ele>
  <time>2026-08-28T17:49:34Z</time>
  <course>275.36</course>
  <speed>4.033522034153278</speed>
  <fix>3d</fix>
</trkpt>
<trkpt lat="40.0717592" lon="-105.2295508">
  <ele>1583.0</ele>
  <time>2026-08-28T17:49:34Z</time>
  <course>274.5</course>
  <speed>3.88</speed>
  <fix>3d</fix>
</trkpt>
<trkpt lat="40.0717601" lon="-105.2295661">
  <ele>1583.02</ele>
  <time>2026-08-28T17:49:34Z</time>
  <course>275.35</course>
  <speed>4.083356462519529</speed>
  <fix>3d</fix>
</trkpt>
<trkpt lat="40.0717597" lon="-105.22956">
  <ele>1583.0</ele>
  <time>2026-08-28T17:49:34Z</time>
  <course>274.5</course>
  <speed>4.01</speed>
  <fix>3d</fix>
</trkpt>
<trkpt lat="40.0717604" lon="-105.229571">
  <ele>1583.02</ele>
  <time>2026-08-28T17:49:34Z</time>
  <course>275.35</course>
  <speed>4.133194890154588</speed>
  <fix>3d</fix>
</trkpt>
<trkpt lat="40.0717597" lon="-105.22956">
  <ele>1583.0</ele>
  <time>2026-08-28T17:49:34Z</time>
  <course>274.5</course>
  <speed>4.01</speed>
  <fix>3d</fix>
</trkpt>
<trkpt lat="40.0717607" lon="-105.2295759">
  <ele>1583.02</ele>
  <time>2026-08-28T17:49:34Z</time>
  <course>275.35</course>
  <speed>4.163099806634475</speed>
  <fix>3d</fix>
</trkpt>
<trkpt lat="40.0717602" lon="-105.2295696">
  <ele>1583.0</ele>
  <time>2026-08-28T17:49:34Z</time>
  <course>274.5</course>
  <speed>4.11</speed>
  <fix>3d</fix>
</trkpt>
<trkpt lat="40.071761" lon="-105.2295808">
  <ele>1583.02</ele>
  <time>2026-08-28T17:49:34Z</time>
  <course>275.35</course>
  <speed>4.183037174111653</speed>
  <fix>3d</fix>
</trkpt>
<trkpt lat="40.0717602" lon="-105.2295696">
  <ele>1583.0</ele>
  <time>2026-08-28T17:49:34Z</time>
  <course>274.5</course>
  <speed>4.11</speed>
  <fix>3d</fix>
</trkpt>
<trkpt lat="40.0717613" lon="-105.2295857">
  <ele>1583.02</ele>
  <time>2026-08-28T17:49:34Z</time>
  <course>275.35</course>
  <speed>4.193006081560102</speed>
  <fix>3d</fix>
</trkpt>
<trkpt lat="40.0717609" lon="-105.2295793">
  <ele>1583.0</ele>
  <time>2026-08-28T17:49:34Z</time>
  <course>274.5</course>
  <speed>4.16</speed>
  <fix>3d</fix>
</trkpt>
<trkpt lat="40.0717616" lon="-105.2295907">
  <ele>1583.02</ele>
  <time>2026-08-28T17:49:34Z</time>
  <course>275.35</course>
  <speed>4.183037174111653</speed>
  <fix>3d</fix>
</trkpt>
<trkpt lat="40.0717609" lon="-105.2295793">
  <ele>1583.0</ele>
  <time>2026-08-28T17:49:34Z</time>
  <course>274.5</course>
  <speed>4.16</speed>
  <fix>3d</fix>
</trkpt>
<trkpt lat="40.0717619" lon="-105.2295956">
  <ele>1583.02</ele>
  <time>2026-08-28T17:49:34Z</time>
  <course>275.35</course>
  <speed>4.17306841544684</speed>
  <fix>3d</fix>
</trkpt>
<trkpt lat="40.0717614" lon="-105.2295891">
  <ele>1583.0</ele>
  <time>2026-08-28T17:49:34Z</time>
  <course>274.5</course>
  <speed>4.16</speed>
  <fix>3d</fix>
</trkpt>
<trkpt lat="40.0717622" lon="-105.2296005">
  <ele>1583.02</ele>
  <time>2026-08-28T17:49:34Z</time>
  <course>275.36</course>
  <speed>4.142378543783752</speed>
  <fix>3d</fix>
</trkpt>
<trkpt lat="40.0717614" lon="-105.2295891">
  <ele>1583.0</ele>
  <time>2026-08-28T17:49:34Z</time>
  <course>274.5</course>
  <speed>4.16</speed>
  <fix>3d</fix>
</trkpt>
<trkpt lat="40.0717625" lon="-105.2296054">
  <ele>1583.02</ele>
  <time>2026-08-28T17:49:34Z</time>
  <course>275.36</course>
  <speed>4.102499238269277</speed>
  <fix>3d</fix>
</trkpt>
<trkpt lat="40.0717614" lon="-105.2295891">
  <ele>1583.0</ele>
  <time>2026-08-28T17:49:34Z</time>
  <course>274.5</course>
  <speed>4.16</speed>
  <fix>3d</fix>
</trkpt>
<trkpt lat="40.0717627" lon="-105.2296101">
  <ele>1583.02</ele>
  <time>2026-08-28T17:49:34Z</time>
  <course>275.36</course>
  <speed>4.051876108668674</speed>
  <fix>3d</fix>
</trkpt>
<trkpt lat="40.0717621" lon="-105.2295988">
  <ele>1583.0</ele>
  <time>2026-08-28T17:49:34Z</time>
  <course>274.5</course>
  <speed>4.12</speed>
  <fix>3d</fix>
</trkpt>
<trkpt lat="40.071763" lon="-105.2296148">
  <ele>1583.02</ele>
  <time>2026-08-28T17:49:34Z</time>
  <course>275.36</course>
  <speed>3.9920546088449242</speed>
  <fix>3d</fix>
</trkpt>
<trkpt lat="40.0717621" lon="-105.2295988">
  <ele>1583.0</ele>
  <time>2026-08-28T17:49:34Z</time>
  <course>274.5</course>
  <speed>4.12</speed>
  <fix>3d</fix>
</trkpt>
<trkpt lat="40.0717633" lon="-105.2296194">
  <ele>1583.02</ele>
  <time>2026-08-28T17:49:34Z</time>
  <course>275.37</course>
  <speed>3.911521443121589</speed>
  <fix>3d</fix>
</trkpt>
<trkpt lat="40.0717626" lon="-105.2296084">
  <ele>1583.0</ele>
  <time>2026-08-28T17:49:34Z</time>
  <course>274.5</course>
  <speed>4.03</speed>
  <fix>3d</fix>
</trkpt>
<trkpt lat="40.0717635" lon="-105.2296238">
  <ele>1583.02</ele>
  <time>2026-08-28T17:49:34Z</time>
  <course>275.37</course>
  <speed>3.8309920386239384</speed>
  <fix>3d</fix>
</trkpt>
<trkpt lat="40.0717626" lon="-105.2296084">
  <ele>1583.0</ele>
  <time>2026-08-28T17:49:34Z</time>
  <course>274.5</course>
  <speed>4.03</speed>
  <fix>3d</fix>
</trkpt>
<trkpt lat="40.0717638" lon="-105.2296282">
  <ele>1583.02</ele>
  <time>2026-08-28T17:49:34Z</time>
  <course>275.37</course>
  <speed>3.7404946196993785</speed>
  <fix>3d</fix>
</trkpt>
<trkpt lat="40.0717631" lon="-105.2296177">
  <ele>1583.0</ele>
  <time>2026-08-28T17:49:34Z</time>
  <course>274.5</course>
  <speed>3.9</speed>
  <fix>3d</fix>
</trkpt>
<trkpt lat="40.071764" lon="-105.2296325">
  <ele>1583.01</ele>
  <time>2026-08-28T17:49:34Z</time>
  <course>275.37</course>
  <speed>3.65</speed>
  <fix>3d</fix>
</trkpt>
<trkpt lat="40.0717637" lon="-105.2296266">
  <ele>1583.0</ele>
  <time>2026-08-28T17:49:34Z</time>
  <course>274.5</course>
  <speed>3.74</speed>
  <fix>3d</fix>
</trkpt>
<trkpt lat="40.0717643" lon="-105.2296367">
  <ele>1583.01</ele>
  <time>2026-08-28T17:49:34Z</time>
  <course>275.34</course>
  <speed>3.5495351808370628</speed>
  <fix>3d</fix>
</trkpt>
<trkpt lat="40.0717637" lon="-105.2296266">
  <ele>1583.0</ele>
  <time>2026-08-28T17:49:34Z</time>
  <course>274.5</course>
  <speed>3.74</speed>
  <fix>3d</fix>
</trkpt>
<trkpt lat="40.0717645" lon="-105.2296408">
  <ele>1583.01</ele>
  <time>2026-08-28T17:49:34Z</time>
  <course>275.27</course>
  <speed>3.4590461112855957</speed>
  <fix>3d</fix>
</trkpt>
<trkpt lat="40.0717642" lon="-105.2296352">
  <ele>1583.0</ele>
  <time>2026-08-28T17:49:34Z</time>
  <course>274.45</course>
  <speed>3.56</speed>
  <fix>3d</fix>
</trkpt>
<trkpt lat="40.0717647" lon="-105.2296447">
  <ele>1583.01</ele>
  <time>2026-08-28T17:49:34Z</time>
  <course>275.17</course>
  <speed>3.367862823809782</speed>
  <fix>3d</fix>
</trkpt>
<trkpt lat="40.0717642" lon="-105.2296352">
  <ele>1583.0</ele>
  <time>2026-08-28T17:49:34Z</time>
  <course>274.45</course>
  <speed>3.56</speed>
  <fix>3d</fix>
</trkpt>
<trkpt lat="40.0717649" lon="-105.2296486">
  <ele>1583.01</ele>
  <time>2026-08-28T17:49:34Z</time>
  <course>275.04</course>
  <speed>3.2873697692836443</speed>
  <fix>3d</fix>
</trkpt>
<trkpt lat="40.0717647" lon="-105.2296433">
  <ele>1583.0</ele>
  <time>2026-08-28T17:49:34Z</time>
  <course>274.28</course>
  <speed>3.38</speed>
  <fix>3d</fix>
</trkpt>
<trkpt lat="40.0717651" lon="-105.2296524">
  <ele>1583.02</ele>
  <time>2026-08-28T17:49:34Z</time>
  <course>274.87</course>
  <speed>3.2062439083762797</speed>
  <fix>3d</fix>
</trkpt>
<trkpt lat="40.0717647" lon="-105.2296433">
  <ele>1583.0</ele>
  <time>2026-08-28T17:49:34Z</time>
  <course>274.28</course>
  <speed>3.38</speed>
  <fix>3d</fix>
</trkpt>
<trkpt lat="40.0717653" lon="-105.2296561">
  <ele>1583.02</ele>
  <time>2026-08-28T17:49:34Z</time>
  <course>274.7</course>
  <speed>3.1351714466676297</speed>
  <fix>3d</fix>
</trkpt>
<trkpt lat="40.0717652" lon="-105.2296511">
  <ele>1583.0</ele>
  <time>2026-08-28T17:49:34Z</time>
  <course>273.99</course>
  <speed>3.23</speed>
  <fix>3d</fix>
</trkpt>
<trkpt lat="40.0717655" lon="-105.2296598">
  <ele>1583.02</ele>
  <time>2026-08-28T17:49:34Z</time>
  <course>274.53</course>
  <speed>3.084687990705057</speed>
  <fix>3d</fix>
</trkpt>
<trkpt lat="40.0717652" lon="-105.2296511">
  <ele>1583.0</ele>
  <time>2026-08-28T17:49:34Z</time>
  <course>273.99</course>
  <speed>3.23</speed>
  <fix>3d</fix>
</trkpt>
<trkpt lat="40.0717656" lon="-105.2296634">
  <ele>1583.02</ele>
  <time>2026-08-28T17:49:34Z</time>
  <course>274.33</course>
  <speed>3.034221481698394</speed>
  <fix>3d</fix>
</trkpt>
<trkpt lat="40.0717655" lon="-105.2296585">
  <ele>1583.0</ele>
  <time>2026-08-28T17:49:34Z</time>
  <course>273.64</course>
  <speed>3.11</speed>
  <fix>3d</fix>
</trkpt>
<trkpt lat="40.0717658" lon="-105.2296669">
  <ele>1583.02</ele>
  <time>2026-08-28T17:49:34Z</time>
  <course>274.13</course>
  <speed>3.003747659175118</speed>
  <fix>3d</fix>
</trkpt>
<trkpt lat="40.0717655" lon="-105.2296585">
  <ele>1583.0</ele>
  <time>2026-08-28T17:49:34Z</time>
  <course>273.64</course>
  <speed>3.11</speed>
  <fix>3d</fix>
</trkpt>
<trkpt lat="40.0717659" lon="-105.2296704">
  <ele>1583.02</ele>
  <time>2026-08-28T17:49:34Z</time>
  <course>273.93</course>
  <speed>2.9728437564056405</speed>
  <fix>3d</fix>
</trkpt>
<trkpt lat="40.0717658" lon="-105.2296657">
  <ele>1583.0</ele>
  <time>2026-08-28T17:49:34Z</time>
  <course>273.25</course>
  <speed>3.03</speed>
  <fix>3d</fix>
</trkpt>
<trkpt lat="40.071766" lon="-105.2296739">
  <ele>1583.02</ele>
  <time>2026-08-28T17:49:34Z</time>
  <course>273.72</course>
  <speed>2.962431433805684</speed>
  <fix>3d</fix>
</trkpt>
<trkpt lat="40.0717658" lon="-105.2296657">
  <ele>1583.0</ele>
  <time>2026-08-28T17:49:34Z</time>
  <course>273.25</course>
  <speed>3.03</speed>
  <fix>3d</fix>
</trkpt>
<trkpt lat="40.0717662" lon="-105.2296774">
  <ele>1583.02</ele>
  <time>2026-08-28T17:49:34Z</time>
  <course>273.53</course>
  <speed>2.952050135075622</speed>
  <fix>3d</fix>
</trkpt>
<trkpt lat="40.0717661" lon="-105.2296728">
  <ele>1583.0</ele>
  <time>2026-08-28T17:49:34Z</time>
  <course>272.85</course>
  <speed>2.99</speed>
  <fix>3d</fix>
</trkpt>
<trkpt lat="40.0717663" lon="-105.2296809">
  <ele>1583.02</ele>
  <time>2026-08-28T17:49:34Z</time>
  <course>273.33</course>
  <speed>2.9516944286290885</speed>
  <fix>3d</fix>
</trkpt>
<trkpt lat="40.0717661" lon="-105.2296728">
  <ele>1583.0</ele>
  <time>2026-08-28T17:49:34Z</time>
  <course>272.85</course>
  <speed>2.99</speed>
  <fix>3d</fix>
</trkpt>
<trkpt lat="40.0717664" lon="-105.2296844">
  <ele>1583.02</ele>
  <time>2026-08-28T17:49:34Z</time>
  <course>273.14</course>
  <speed>2.9513725620463442</speed>
  <fix>3d</fix>
</trkpt>
<trkpt lat="40.0717661" lon="-105.2296728">
  <ele>1583.0</ele>
  <time>2026-08-28T17:49:34Z</time>
  <course>272.85</course>
  <speed>2.99</speed>
  <fix>3d</fix>
</trkpt>
<trkpt lat="40.0717665" lon="-105.2296878">
  <ele>1583.02</ele>
  <time>2026-08-28T17:49:34Z</time>
  <course>272.96</course>
  <speed>2.9613679271579882</speed>
  <fix>3d</fix>
</trkpt>
<trkpt lat="40.0717664" lon="-105.2296797">
  <ele>1583.0</ele>
  <time>2026-08-28T17:49:34Z</time>
  <course>272.45</course>
  <speed>2.97</speed>
  <fix>3d</fix>
</trkpt>
<trkpt lat="40.0717666" lon="-105.2296913">
  <ele>1583.02</ele>
  <time>2026-08-28T17:49:34Z</time>
  <course>272.77</course>
  <speed>2.971077245714086</speed>
  <fix>3d</fix>
</trkpt>
<trkpt lat="40.0717664" lon="-105.2296797">
  <ele>1583.0</ele>
  <time>2026-08-28T17:49:34Z</time>
  <course>272.45</course>
  <speed>2.97</speed>
  <fix>3d</fix>
</trkpt>
<trkpt lat="40.0717666" lon="-105.2296948">
  <ele>1583.02</ele>
  <time>2026-08-28T17:49:34Z</time>
  <course>272.61</course>
  <speed>2.990819285747636</speed>
  <fix>3d</fix>
</trkpt>
<trkpt lat="40.0717665" lon="-105.2296868">
  <ele>1583.0</ele>
  <time>2026-08-28T17:49:34Z</time>
  <course>272.07</course>
  <speed>2.99</speed>
  <fix>3d</fix>
</trkpt>
<trkpt lat="40.0717667" lon="-105.2296983">
  <ele>1583.02</ele>
  <time>2026-08-28T17:49:34Z</time>
  <course>272.43</course>
  <speed>3.0105979472523394</speed>
  <fix>3d</fix>
</trkpt>
<trkpt lat="40.0717665" lon="-105.2296868">
  <ele>1583.0</ele>
  <time>2026-08-28T17:49:34Z</time>
  <course>272.07</course>
  <speed>2.99</speed>
  <fix>3d</fix>
</trkpt>
<trkpt lat="40.0717668" lon="-105.2297019">
  <ele>1583.01</ele>
  <time>2026-08-28T17:49:34Z</time>
  <course>272.26</course>
  <speed>3.04059204761178</speed>
  <fix>3d</fix>
</trkpt>
<trkpt lat="40.0717668" lon="-105.2296938">
  <ele>1583.0</ele>
  <time>2026-08-28T17:49:34Z</time>
  <course>271.71</course>
  <speed>3.02</speed>
  <fix>3d</fix>
</trkpt>
<trkpt lat="40.0717668" lon="-105.2297055">
  <ele>1583.01</ele>
  <time>2026-08-28T17:49:34Z</time>
  <course>272.1</course>
  <speed>3.0604084694693943</speed>
  <fix>3d</fix>
</trkpt>
<trkpt lat="40.0717669" lon="-105.2297009">
  <ele>1583.0</ele>
  <time>2026-08-28T17:49:34Z</time>
  <course>271.37</course>
  <speed>3.07</speed>
  <fix>3d</fix>
</trkpt>
<trkpt lat="40.0717669" lon="-105.2297091">
  <ele>1583.01</ele>
  <time>2026-08-28T17:49:34Z</time>
  <course>271.93</course>
  <speed>3.0902588888311606</speed>
  <fix>3d</fix>
</trkpt>
<trkpt lat="40.0717669" lon="-105.2297009">
  <ele>1583.0</ele>
  <time>2026-08-28T17:49:34Z</time>
  <course>271.37</course>
  <speed>3.07</speed>
  <fix>3d</fix>
</trkpt>
<trkpt lat="40.071767" lon="-105.2297128">
  <ele>1583.0</ele>
  <time>2026-08-28T17:49:34Z</time>
  <course>271.76</course>
  <speed>3.120256399721023</speed>
  <fix>3d</fix>
</trkpt>
<trkpt lat="40.071767" lon="-105.2297083">
  <ele>1583.0</ele>
  <time>2026-08-28T17:49:34Z</time>
  <course>271.04</course>
  <speed>3.13</speed>
  <fix>3d</fix>
</trkpt>
<trkpt lat="40.071767" lon="-105.2297165">
  <ele>1583.0</ele>
  <time>2026-08-28T17:49:34Z</time>
  <course>271.6</course>
  <speed>3.150142853903613</speed>
  <fix>3d</fix>
</trkpt>
<trkpt lat="40.071767" lon="-105.2297083">
  <ele>1583.0</ele>
  <time>2026-08-28T17:49:34Z</time>
  <course>271.04</course>
  <speed>3.13</speed>
  <fix>3d</fix>
</trkpt>
<trkpt lat="40.071767" lon="-105.2297202">
  <ele>1583.0</ele>
  <time>2026-08-28T17:49:34Z</time>
  <course>271.43</course>
  <speed>3.1700630908548173</speed>
  <fix>3d</fix>
</trkpt>
<trkpt lat="40.0717671" lon="-105.2297156">
  <ele>1583.0</ele>
  <time>2026-08-28T17:49:34Z</time>
  <course>270.69</course>
  <speed>3.18</speed>
  <fix>3d</fix>
</trkpt>
<trkpt lat="40.0717671" lon="-105.229724">
  <ele>1583.0</ele>
  <time>2026-08-28T17:49:34Z</time>
  <course>271.25</course>
  <speed>3.2000156249618534</speed>
  <fix>3d</fix>
</trkpt>
<trkpt lat="40.0717671" lon="-105.2297156">
  <ele>1583.0</ele>
  <time>2026-08-28T17:49:34Z</time>
  <course>270.69</course>
  <speed>3.18</speed>
  <fix>3d</fix>
</trkpt>
<trkpt lat="40.0717671" lon="-105.2297279">
  <ele>1583.0</ele>
  <time>2026-08-28T17:49:34Z</time>
  <course>271.08</course>
  <speed>3.22001552791287</speed>
  <fix>3d</fix>
</trkpt>
<trkpt lat="40.0717671" lon="-105.2297232">
  <ele>1583.0</ele>
  <time>2026-08-28T17:49:34Z</time>
  <course>270.35</course>
  <speed>3.23</speed>
  <fix>3d</fix>
</trkpt>
<trkpt lat="40.0717671" lon="-105.2297317">
  <ele>1583.01</ele>
  <time>2026-08-28T17:49:34Z</time>
  <course>270.91</course>
  <speed>3.25</speed>
  <fix>3d</fix>
</trkpt>
<trkpt lat="40.0717671" lon="-105.2297232">
  <ele>1583.0</ele>
  <time>2026-08-28T17:49:34Z</time>
  <course>270.35</course>
  <speed>3.23</speed>
  <fix>3d</fix>
</trkpt>
<trkpt lat="40.0717671" lon="-105.2297356">
  <ele>1583.0</ele>
  <time>2026-08-28T17:49:34Z</time>
  <course>270.73</course>
  <speed>3.27</speed>
  <fix>3d</fix>
</trkpt>
<trkpt lat="40.0717671" lon="-105.2297308">
  <ele>1583.0</ele>
  <time>2026-08-28T17:49:34Z</time>
  <course>269.99</course>
  <speed>3.28</speed>
  <fix>3d</fix>
</trkpt>
<trkpt lat="40.0717671" lon="-105.2297396">
  <ele>1583.01</ele>
  <time>2026-08-28T17:49:34Z</time>
  <course>270.56</course>
  <speed>3.290015197533288</speed>
  <fix>3d</fix>
</trkpt>
<trkpt lat="40.0717671" lon="-105.2297308">
  <ele>1583.0</ele>
  <time>2026-08-28T17:49:34Z</time>
  <course>269.99</course>
  <speed>3.28</speed>
  <fix>3d</fix>
</trkpt>
<trkpt lat="40.0717671" lon="-105.2297435">
  <ele>1583.0</ele>
  <time>2026-08-28T17:49:34Z</time>
  <course>270.41</course>
  <speed>3.3000606055040866</speed>
  <fix>3d</fix>
</trkpt>
<trkpt lat="40.0717671" lon="-105.2297385">
  <ele>1583.0</ele>
  <time>2026-08-28T17:49:34Z</time>
  <course>269.65</course>
  <speed>3.31</speed>
  <fix>3d</fix>
</trkpt>
<trkpt lat="40.071767" lon="-105.2297474">
  <ele>1583.0</ele>
  <time>2026-08-28T17:49:34Z</time>
  <course>270.26</course>
  <speed>3.3101359488697737</speed>
  <fix>3d</fix>
</trkpt>
<trkpt lat="40.0717671" lon="-105.2297385">
  <ele>1583.0</ele>
  <time>2026-08-28T17:49:34Z</time>
  <course>269.65</course>
  <speed>3.31</speed>
  <fix>3d</fix>
</trkpt>
<trkpt lat="40.071767" lon="-105.2297514">
  <ele>1583.0</ele>
  <time>2026-08-28T17:49:34Z</time>
  <course>270.13</course>
  <speed>3.3201355394019685</speed>
  <fix>3d</fix>
</trkpt>
<trkpt lat="40.0717671" lon="-105.2297464">
  <ele>1583.0</ele>
  <time>2026-08-28T17:49:34Z</time>
  <course>269.35</course>
  <speed>3.34</speed>
  <fix>3d</fix>
</trkpt>
<trkpt lat="40.071767" lon="-105.2297553">
  <ele>1583.01</ele>
  <time>2026-08-28T17:49:34Z</time>
  <course>270.0</course>
  <speed>3.3302402315748934</speed>
  <fix>3d</fix>
</trkpt>
<trkpt lat="40.0717671" lon="-105.2297464">
  <ele>1583.0</ele>
  <time>2026-08-28T17:49:34Z</time>
  <course>269.35</course>
  <speed>3.34</speed>
  <fix>3d</fix>
</trkpt>
<trkpt lat="40.071767" lon="-105.2297593">
  <ele>1583.01</ele>
  <time>2026-08-28T17:49:34Z</time>
  <course>269.86</course>
  <speed>3.3403742305316633</speed>
  <fix>3d</fix>
</trkpt>
<trkpt lat="40.0717671" lon="-105.2297464">
  <ele>1583.0</ele>
  <time>2026-08-28T17:49:34Z</time>
  <course>269.35</course>
  <speed>3.34</speed>
  <fix>3d</fix>
</trkpt>
<trkpt lat="40.071767" lon="-105.2297632">
  <ele>1583.01</ele>
  <time>2026-08-28T17:49:34Z</time>
  <course>269.73</course>
  <speed>3.3403742305316633</speed>
  <fix>3d</fix>
</trkpt>
<trkpt lat="40.0717671" lon="-105.2297543">
  <ele>1583.0</ele>
  <time>2026-08-28T17:49:34Z</time>
  <course>269.06</course>
  <speed>3.36</speed>
  <fix>3d</fix>
</trkpt>
<trkpt lat="40.0717669" lon="-105.2297672">
  <ele>1583.01</ele>
  <time>2026-08-28T17:49:34Z</time>
  <course>269.6</course>
  <speed>3.340538878684096</speed>
  <fix>3d</fix>
</trkpt>
<trkpt lat="40.0717671" lon="-105.2297543">
  <ele>1583.0</ele>
  <time>2026-08-28T17:49:34Z</time>
  <course>269.06</course>
  <speed>3.36</speed>
  <fix>3d</fix>
</trkpt>
<trkpt lat="40.0717668" lon="-105.2297711">
  <ele>1583.01</ele>
  <time>2026-08-28T17:49:34Z</time>
  <course>269.46</course>
  <speed>3.3407334524023313</speed>
  <fix>3d</fix>
</trkpt>
<trkpt lat="40.071767" lon="-105.2297622">
  <ele>1583.0</ele>
  <time>2026-08-28T17:49:34Z</time>
  <course>268.79</course>
  <speed>3.36</speed>
  <fix>3d</fix>
</trkpt>
<trkpt lat="40.0717668" lon="-105.229775">
  <ele>1583.0</ele>
  <time>2026-08-28T17:49:34Z</time>
  <course>269.32</course>
  <speed>3.3407334524023313</speed>
  <fix>3d</fix>
</trkpt>
<trkpt lat="40.071767" lon="-105.2297622">
  <ele>1583.0</ele>
  <time>2026-08-28T17:49:34Z</time>
  <course>268.79</course>
  <speed>3.36</speed>
  <fix>3d</fix>
</trkpt>
<trkpt lat="40.0717667" lon="-105.2297789">
  <ele>1583.0</ele>
  <time>2026-08-28T17:49:34Z</time>
  <course>269.19</course>
  <speed>3.3409579464578716</speed>
  <fix>3d</fix>
</trkpt>
<trkpt lat="40.0717669" lon="-105.2297701">
  <ele>1583.0</ele>
  <time>2026-08-28T17:49:34Z</time>
  <course>268.52</course>
  <speed>3.37</speed>
  <fix>3d</fix>
</trkpt>
<trkpt lat="40.0717666" lon="-105.2297828">
  <ele>1583.0</ele>
  <time>2026-08-28T17:49:34Z</time>
  <course>269.05</course>
  <speed>3.3312159941979145</speed>
  <fix>3d</fix>
</trkpt>
<trkpt lat="40.0717669" lon="-105.2297701">
  <ele>1583.0</ele>
  <time>2026-08-28T17:49:34Z</time>
  <course>268.52</course>
  <speed>3.37</speed>
  <fix>3d</fix>
</trkpt>
<trkpt lat="40.0717665" lon="-105.2297868">
  <ele>1583.0</ele>
  <time>2026-08-28T17:49:34Z</time>
  <course>268.95</course>
  <speed>3.3312159941979145</speed>
  <fix>3d</fix>
</trkpt>
<trkpt lat="40.0717668" lon="-105.229778">
  <ele>1583.0</ele>
  <time>2026-08-28T17:49:34Z</time>
  <course>268.24</course>
  <speed>3.37</speed>
  <fix>3d</fix>
</trkpt>
<trkpt lat="40.0717665" lon="-105.2297907">
  <ele>1583.0</ele>
  <time>2026-08-28T17:49:34Z</time>
  <course>268.86</course>
  <speed>3.321219655488026</speed>
  <fix>3d</fix>
</trkpt>
<trkpt lat="40.0717665" lon="-105.2297859">
  <ele>1583.0</ele>
  <time>2026-08-28T17:49:34Z</time>
  <course>268.01</course>
  <speed>3.36</speed>
  <fix>3d</fix>
</trkpt>
<trkpt lat="40.0717664" lon="-105.2297946">
  <ele>1583.01</ele>
  <time>2026-08-28T17:49:34Z</time>
  <course>268.78</course>
  <speed>3.3215056826686298</speed>
  <fix>3d</fix>
</trkpt>
<trkpt lat="40.0717665" lon="-105.2297859">
  <ele>1583.0</ele>
  <time>2026-08-28T17:49:34Z</time>
  <course>268.01</course>
  <speed>3.36</speed>
  <fix>3d</fix>
</trkpt>
<trkpt lat="40.0717663" lon="-105.2297985">
  <ele>1583.01</ele>
  <time>2026-08-28T17:49:34Z</time>
  <course>268.69</course>
  <speed>3.3115102294874466</speed>
  <fix>3d</fix>
</trkpt>
<trkpt lat="40.0717663" lon="-105.2297938">
  <ele>1583.0</ele>
  <time>2026-08-28T17:49:34Z</time>
  <course>267.82</course>
  <speed>3.35</speed>
  <fix>3d</fix>
</trkpt>
<trkpt lat="40.0717662" lon="-105.2298025">
  <ele>1583.01</ele>
  <time>2026-08-28T17:49:34Z</time>
  <course>268.6</course>
  <speed>3.291838392145033</speed>
  <fix>3d</fix>
</trkpt>
<trkpt lat="40.0717663" lon="-105.2297938">
  <ele>1583.0</ele>
  <time>2026-08-28T17:49:34Z</time>
  <course>267.82</course>
  <speed>3.35</speed>
  <fix>3d</fix>
</trkpt>
<trkpt lat="40.0717661" lon="-105.2298064">
  <ele>1583.01</ele>
  <time>2026-08-28T17:49:34Z</time>
  <course>268.55</course>
  <speed>3.2618553002854065</speed>
  <fix>3d</fix>
</trkpt>
<trkpt lat="40.0717661" lon="-105.2298017">
  <ele>1583.0</ele>
  <time>2026-08-28T17:49:34Z</time>
  <course>267.66</course>
  <speed>3.32</speed>
  <fix>3d</fix>
</trkpt>
<trkpt lat="40.0717659" lon="-105.2298102">
  <ele>1583.01</ele>
  <time>2026-08-28T17:49:34Z</time>
  <course>268.51</course>
  <speed>3.2318725222384628</speed>
  <fix>3d</fix>
</trkpt>
<trkpt lat="40.0717661" lon="-105.2298017">
  <ele>1583.0</ele>
  <time>2026-08-28T17:49:34Z</time>
  <course>267.66</course>
  <speed>3.32</speed>
  <fix>3d</fix>
</trkpt>
<trkpt lat="40.0717658" lon="-105.2298141">
  <ele>1583.02</ele>
  <time>2026-08-28T17:49:34Z</time>
  <course>268.47</course>
  <speed>3.19189598828032</speed>
  <fix>3d</fix>
</trkpt>
<trkpt lat="40.0717658" lon="-105.2298093">
  <ele>1583.0</ele>
  <time>2026-08-28T17:49:34Z</time>
  <course>267.54</course>
  <speed>3.26</speed>
  <fix>3d</fix>
</trkpt>
<trkpt lat="40.0717657" lon="-105.2298179">
  <ele>1583.02</ele>
  <time>2026-08-28T17:49:34Z</time>
  <course>268.43</course>
  <speed>3.131932310890515</speed>
  <fix>3d</fix>
</trkpt>
<trkpt lat="40.0717658" lon="-105.2298093">
  <ele>1583.0</ele>
  <time>2026-08-28T17:49:34Z</time>
  <course>267.54</course>
  <speed>3.26</speed>
  <fix>3d</fix>
</trkpt>
<trkpt lat="40.0717656" lon="-105.2298215">
  <ele>1583.02</ele>
  <time>2026-08-28T17:49:34Z</time>
  <course>268.39</course>
  <speed>3.0719700519373556</speed>
  <fix>3d</fix>
</trkpt>
<trkpt lat="40.0717656" lon="-105.2298169">
  <ele>1583.0</ele>
  <time>2026-08-28T17:49:34Z</time>
  <course>267.46</course>
  <speed>3.16</speed>
  <fix>3d</fix>
</trkpt>
<trkpt lat="40.0717655" lon="-105.2298252">
  <ele>1583.02</ele>
  <time>2026-08-28T17:49:34Z</time>
  <course>268.35</course>
  <speed>2.9920227271864097</speed>
  <fix>3d</fix>
</trkpt>
<trkpt lat="40.0717656" lon="-105.2298169">
  <ele>1583.0</ele>
  <time>2026-08-28T17:49:34Z</time>
  <course>267.46</course>
  <speed>3.16</speed>
  <fix>3d</fix>
</trkpt>
<trkpt lat="40.0717654" lon="-105.2298287">
  <ele>1583.02</ele>
  <time>2026-08-28T17:49:34Z</time>
  <course>268.31</course>
  <speed>2.9120782956507196</speed>
  <fix>3d</fix>
</trkpt>
<trkpt lat="40.0717653" lon="-105.2298242">
  <ele>1583.0</ele>
  <time>2026-08-28T17:49:34Z</time>
  <course>267.37</course>
  <speed>3.02</speed>
  <fix>3d</fix>
</trkpt>
<trkpt lat="40.0717652" lon="-105.2298321">
  <ele>1583.02</ele>
  <time>2026-08-28T17:49:34Z</time>
  <course>268.3</course>
  <speed>2.8117787964205148</speed>
  <fix>3d</fix>
</trkpt>
<trkpt lat="40.0717653" lon="-105.2298242">
  <ele>1583.0</ele>
  <time>2026-08-28T17:49:34Z</time>
  <course>267.37</course>
  <speed>3.02</speed>
  <fix>3d</fix>
</trkpt>
<trkpt lat="40.0717651" lon="-105.2298353">
  <ele>1583.02</ele>
  <time>2026-08-28T17:49:34Z</time>
  <course>268.26</course>
  <speed>2.701851217221259</speed>
  <fix>3d</fix>
</trkpt>
<trkpt lat="40.0717651" lon="-105.2298311">
  <ele>1583.0</ele>
  <time>2026-08-28T17:49:34Z</time>
  <course>267.3</course>
  <speed>2.84</speed>
  <fix>3d</fix>
</trkpt>
<trkpt lat="40.071765" lon="-105.2298385">
  <ele>1583.02</ele>
  <time>2026-08-28T17:49:34Z</time>
  <course>268.15</course>
  <speed>2.5919297829995314</speed>
  <fix>3d</fix>
</trkpt>
<trkpt lat="40.0717651" lon="-105.2298311">
  <ele>1583.0</ele>
  <time>2026-08-28T17:49:34Z</time>
  <course>267.3</course>
  <speed>2.84</speed>
  <fix>3d</fix>
</trkpt>
<trkpt lat="40.0717649" lon="-105.2298415">
  <ele>1583.02</ele>
  <time>2026-08-28T17:49:34Z</time>
  <course>267.87</course>
  <speed>2.482438317461282</speed>
  <fix>3d</fix>
</trkpt>
<trkpt lat="40.0717651" lon="-105.2298311">
  <ele>1583.0</ele>
  <time>2026-08-28T17:49:34Z</time>
  <course>267.3</course>
  <speed>2.84</speed>
  <fix>3d</fix>
</trkpt>
<trkpt lat="40.0717648" lon="-105.2298443">
  <ele>1583.02</ele>
  <time>2026-08-28T17:49:34Z</time>
  <course>267.38</course>
  <speed>2.35306183514161</speed>
  <fix>3d</fix>
</trkpt>
<trkpt lat="40.0717649" lon="-105.2298375">
  <ele>1583.0</ele>
  <time>2026-08-28T17:49:34Z</time>
  <course>267.09</course>
  <speed>2.62</speed>
  <fix>3d</fix>
</trkpt>
<trkpt lat="40.0717646" lon="-105.229847">
  <ele>1583.02</ele>
  <time>2026-08-28T17:49:34Z</time>
  <course>266.68</course>
  <speed>2.23503914954526</speed>
  <fix>3d</fix>
</trkpt>
<trkpt lat="40.0717649" lon="-105.2298375">
  <ele>1583.0</ele>
  <time>2026-08-28T17:49:34Z</time>
  <course>267.09</course>
  <speed>2.62</speed>
  <fix>3d</fix>
</trkpt>
<trkpt lat="40.0717645" lon="-105.2298495">
  <ele>1583.02</ele>
  <time>2026-08-28T17:49:34Z</time>
  <course>265.75</course>
  <speed>2.1168372634664196</speed>
  <fix>3d</fix>
</trkpt>
<trkpt lat="40.0717646" lon="-105.2298433">
  <ele>1583.0</ele>
  <time>2026-08-28T17:49:34Z</time>
  <course>266.31</course>
  <speed>2.39</speed>
  <fix>3d</fix>
</trkpt>
<trkpt lat="40.0717643" lon="-105.2298519">
  <ele>1583.02</ele>
  <time>2026-08-28T17:49:34Z</time>
  <course>264.56</course>
  <speed>2.0010497245196084</speed>
  <fix>3d</fix>
</trkpt>
<trkpt lat="40.0717646" lon="-105.2298433">
  <ele>1583.0</ele>
  <time>2026-08-28T17:49:34Z</time>
  <course>266.31</course>
  <speed>2.39</speed>
  <fix>3d</fix>
</trkpt>
<trkpt lat="40.0717641" lon="-105.2298541">
  <ele>1583.01</ele>
  <time>2026-08-28T17:49:34Z</time>
  <course>263.11</course>
  <speed>1.8853381659532593</speed>
  <fix>3d</fix>
</trkpt>
<trkpt lat="40.0717643" lon="-105.2298487">
  <ele>1583.0</ele>
  <time>2026-08-28T17:49:34Z</time>
  <course>264.67</course>
  <speed>2.15</speed>
  <fix>3d</fix>
</trkpt>
<trkpt lat="40.0717638" lon="-105.2298563">
  <ele>1583.01</ele>
  <time>2026-08-28T17:49:34Z</time>
  <course>261.41</course>
  <speed>1.782133552795637</speed>
  <fix>3d</fix>
</trkpt>
<trkpt lat="40.0717638" lon="-105.2298534">
  <ele>1583.0</ele>
  <time>2026-08-28T17:49:34Z</time>
  <course>262.05</course>
  <speed>1.93</speed>
  <fix>3d</fix>
</trkpt>
<trkpt lat="40.0717635" lon="-105.2298583">
  <ele>1583.01</ele>
  <time>2026-08-28T17:49:34Z</time>
  <course>259.47</course>
  <speed>1.6924833824885843</speed>
  <fix>3d</fix>
</trkpt>
<trkpt lat="40.0717638" lon="-105.2298534">
  <ele>1583.0</ele>
  <time>2026-08-28T17:49:34Z</time>
  <course>262.05</course>
  <speed>1.93</speed>
  <fix>3d</fix>
</trkpt>
<trkpt lat="40.0717631" lon="-105.2298602">
  <ele>1583.0</ele>
  <time>2026-08-28T17:49:34Z</time>
  <course>257.32</course>
  <speed>1.603277892319357</speed>
  <fix>3d</fix>
</trkpt>
<trkpt lat="40.0717633" lon="-105.2298577">
  <ele>1583.0</ele>
  <time>2026-08-28T17:49:34Z</time>
  <course>258.44</course>
  <speed>1.74</speed>
  <fix>3d</fix>
</trkpt>
<trkpt lat="40.0717627" lon="-105.229862">
  <ele>1583.0</ele>
  <time>2026-08-28T17:49:34Z</time>
  <course>255.07</course>
  <speed>1.5384407690905748</speed>
  <fix>3d</fix>
</trkpt>
<trkpt lat="40.0717633" lon="-105.2298577">
  <ele>1583.0</ele>
  <time>2026-08-28T17:49:34Z</time>
  <course>258.44</course>
  <speed>1.74</speed>
  <fix>3d</fix>
</trkpt>
<trkpt lat="40.0717623" lon="-105.2298637">
  <ele>1583.0</ele>
  <time>2026-08-28T17:49:34Z</time>
  <course>252.81</course>
  <speed>1.483138563991915</speed>
  <fix>3d</fix>
</trkpt>
<trkpt lat="40.0717626" lon="-105.2298615">
  <ele>1583.0</ele>
  <time>2026-08-28T17:49:34Z</time>
  <course>254.11</course>
  <speed>1.59</speed>
  <fix>3d</fix>
</trkpt>
<trkpt lat="40.0717619" lon="-105.2298653">
  <ele>1583.0</ele>
  <time>2026-08-28T17:49:34Z</time>
  <course>250.53</course>
  <speed>1.4431216164966834</speed>
  <fix>3d</fix>
</trkpt>
<trkpt lat="40.0717626" lon="-105.2298615">
  <ele>1583.0</ele>
  <time>2026-08-28T17:49:34Z</time>
  <course>254.11</course>
  <speed>1.59</speed>
  <fix>3d</fix>
</trkpt>
<trkpt lat="40.0717613" lon="-105.2298669">
  <ele>1583.0</ele>
  <time>2026-08-28T17:49:34Z</time>
  <course>248.25</course>
  <speed>1.4115594213493106</speed>
  <fix>3d</fix>
</trkpt>
<trkpt lat="40.0717617" lon="-105.229865">
  <ele>1583.0</ele>
  <time>2026-08-28T17:49:34Z</time>
  <course>249.52</course>
  <speed>1.5</speed>
  <fix>3d</fix>
</trkpt>
<trkpt lat="40.0717608" lon="-105.2298684">
  <ele>1583.0</ele>
  <time>2026-08-28T17:49:34Z</time>
  <course>245.96</course>
  <speed>1.395564401953561</speed>
  <fix>3d</fix>
</trkpt>
<trkpt lat="40.0717617" lon="-105.229865">
  <ele>1583.0</ele>
  <time>2026-08-28T17:49:34Z</time>
  <course>249.52</course>
  <speed>1.5</speed>
  <fix>3d</fix>
</trkpt>
<trkpt lat="40.0717602" lon="-105.2298699">
  <ele>1583.0</ele>
  <time>2026-08-28T17:49:34Z</time>
  <course>243.72</course>
  <speed>1.3865424623862048</speed>
  <fix>3d</fix>
</trkpt>
<trkpt lat="40.0717607" lon="-105.2298682">
  <ele>1583.0</ele>
  <time>2026-08-28T17:49:34Z</time>
  <course>244.94</course>
  <speed>1.45</speed>
  <fix>3d</fix>
</trkpt>
<trkpt lat="40.0717596" lon="-105.2298714">
  <ele>1583.01</ele>
  <time>2026-08-28T17:49:34Z</time>
  <course>241.49</course>
  <speed>1.3842326394071194</speed>
  <fix>3d</fix>
</trkpt>
<trkpt lat="40.0717607" lon="-105.2298682">
  <ele>1583.0</ele>
  <time>2026-08-28T17:49:34Z</time>
  <course>244.94</course>
  <speed>1.45</speed>
  <fix>3d</fix>
</trkpt>
<trkpt lat="40.0717589" lon="-105.2298728">
  <ele>1583.01</ele>
  <time>2026-08-28T17:49:34Z</time>
  <course>239.3</course>
  <speed>1.4066271716414411</speed>
  <fix>3d</fix>
</trkpt>
<trkpt lat="40.0717595" lon="-105.2298711">
  <ele>1583.0</ele>
  <time>2026-08-28T17:49:34Z</time>
  <course>240.44</course>
  <speed>1.44</speed>
  <fix>3d</fix>
</trkpt>
<trkpt lat="40.0717582" lon="-105.2298743">
  <ele>1583.0</ele>
  <time>2026-08-28T17:49:34Z</time>
  <course>237.16</course>
  <speed>1.4256226709757387</speed>
  <fix>3d</fix>
</trkpt>
<trkpt lat="40.0717595" lon="-105.2298711">
  <ele>1583.0</ele>
  <time>2026-08-28T17:49:34Z</time>
  <course>240.44</course>
  <speed>1.44</speed>
  <fix>3d</fix>
</trkpt>
<trkpt lat="40.0717574" lon="-105.2298757">
  <ele>1583.0</ele>
  <time>2026-08-28T17:49:34Z</time>
  <course>235.05</course>
  <speed>1.452067491544384</speed>
  <fix>3d</fix>
</trkpt>
<trkpt lat="40.0717581" lon="-105.2298741">
  <ele>1583.0</ele>
  <time>2026-08-28T17:49:34Z</time>
  <course>236.07</course>
  <speed>1.47</speed>
  <fix>3d</fix>
</trkpt>
<trkpt lat="40.0717565" lon="-105.2298771">
  <ele>1583.0</ele>
  <time>2026-08-28T17:49:34Z</time>
  <course>233.04</course>
  <speed>1.4805404418657397</speed>
  <fix>3d</fix>
</trkpt>
<trkpt lat="40.0717581" lon="-105.2298741">
  <ele>1583.0</ele>
  <time>2026-08-28T17:49:34Z</time>
  <course>236.07</course>
  <speed>1.47</speed>
  <fix>3d</fix>
</trkpt>
<trkpt lat="40.0717556" lon="-105.2298785">
  <ele>1583.0</ele>
  <time>2026-08-28T17:49:34Z</time>
  <course>231.24</course>
  <speed>1.5185519418182574</speed>
  <fix>3d</fix>
</trkpt>
<trkpt lat="40.0717581" lon="-105.2298741">
  <ele>1583.0</ele>
  <time>2026-08-28T17:49:34Z</time>
  <course>236.07</course>
  <speed>1.47</speed>
  <fix>3d</fix>
</trkpt>
<trkpt lat="40.0717547" lon="-105.2298799">
  <ele>1583.0</ele>
  <time>2026-08-28T17:49:34Z</time>
  <course>229.65</course>
  <speed>1.5654072952429985</speed>
  <fix>3d</fix>
</trkpt>
<trkpt lat="40.0717565" lon="-105.2298769">
  <ele>1583.0</ele>
  <time>2026-08-28T17:49:34Z</time>
  <course>232.01</course>
  <speed>1.53</speed>
  <fix>3d</fix>
</trkpt>
<trkpt lat="40.0717537" lon="-105.2298813">
  <ele>1583.0</ele>
  <time>2026-08-28T17:49:34Z</time>
  <course>228.27</course>
  <speed>1.6058953888718903</speed>
  <fix>3d</fix>
</trkpt>
<trkpt lat="40.0717565" lon="-105.2298769">
  <ele>1583.0</ele>
  <time>2026-08-28T17:49:34Z</time>
  <course>232.01</course>
  <speed>1.53</speed>
  <fix>3d</fix>
</trkpt>
<trkpt lat="40.0717527" lon="-105.2298827">
  <ele>1583.0</ele>
  <time>2026-08-28T17:49:34Z</time>
  <course>227.09</course>
  <speed>1.6546903033498443</speed>
  <fix>3d</fix>
</trkpt>
<trkpt lat="40.0717547" lon="-105.2298797">
  <ele>1583.0</ele>
  <time>2026-08-28T17:49:34Z</time>
  <course>228.6</course>
  <speed>1.61</speed>
  <fix>3d</fix>
</trkpt>
<trkpt lat="40.0717516" lon="-105.2298841">
  <ele>1583.01</ele>
  <time>2026-08-28T17:49:34Z</time>
  <course>226.09</course>
  <speed>1.7041420128616043</speed>
  <fix>3d</fix>
</trkpt>
<trkpt lat="40.0717547" lon="-105.2298797">
  <ele>1583.0</ele>
  <time>2026-08-28T17:49:34Z</time>
  <course>228.6</course>
  <speed>1.61</speed>
  <fix>3d</fix>
</trkpt>
<trkpt lat="40.0717504" lon="-105.2298856">
  <ele>1583.01</ele>
  <time>2026-08-28T17:49:34Z</time>
  <course>225.27</course>
  <speed>1.7469115604403103</speed>
  <fix>3d</fix>
</trkpt>
<trkpt lat="40.0717527" lon="-105.2298826">
  <ele>1583.0</ele>
  <time>2026-08-28T17:49:34Z</time>
  <course>226.03</course>
  <speed>1.7</speed>
  <fix>3d</fix>
</trkpt>
<trkpt lat="40.0717493" lon="-105.229887">
  <ele>1583.01</ele>
  <time>2026-08-28T17:49:34Z</time>
  <course>224.63</course>
  <speed>1.7896647730790256</speed>
  <fix>3d</fix>
</trkpt>
<trkpt lat="40.0717527" lon="-105.2298826">
  <ele>1583.0</ele>
  <time>2026-08-28T17:49:34Z</time>
  <course>226.03</course>
  <speed>1.7</speed>
  <fix>3d</fix>
</trkpt>
<trkpt lat="40.071748" lon="-105.2298885">
  <ele>1583.01</ele>
  <time>2026-08-28T17:49:34Z</time>
  <course>224.15</course>
  <speed>1.8325119372053214</speed>
  <fix>3d</fix>
</trkpt>
<trkpt lat="40.0717505" lon="-105.2298855">
  <ele>1583.0</ele>
  <time>2026-08-28T17:49:34Z</time>
  <course>224.22</course>
  <speed>1.79</speed>
  <fix>3d</fix>
</trkpt>
<trkpt lat="40.0717468" lon="-105.22989">
  <ele>1583.01</ele>
  <time>2026-08-28T17:49:34Z</time>
  <course>223.85</course>
  <speed>1.8681006396872735</speed>
  <fix>3d</fix>
</trkpt>
<trkpt lat="40.0717481" lon="-105.2298886">
  <ele>1583.0</ele>
  <time>2026-08-28T17:49:34Z</time>
  <course>223.11</course>
  <speed>1.87</speed>
  <fix>3d</fix>
</trkpt>
<trkpt lat="40.0717455" lon="-105.2298916">
  <ele>1583.01</ele>
  <time>2026-08-28T17:49:34Z</time>
  <course>223.72</course>
  <speed>1.9037069102149102</speed>
  <fix>3d</fix>
</trkpt>
<trkpt lat="40.0717481" lon="-105.2298886">
  <ele>1583.0</ele>
  <time>2026-08-28T17:49:34Z</time>
  <course>223.11</course>
  <speed>1.87</speed>
  <fix>3d</fix>
</trkpt>
<trkpt lat="40.0717442" lon="-105.2298932">
  <ele>1583.02</ele>
  <time>2026-08-28T17:49:35Z</time>
  <course>223.72</course>
  <speed>1.9319679086361656</speed>
  <fix>3d</fix>
</trkpt>
<trkpt lat="40.0717456" lon="-105.2298916">
  <ele>1583.0</ele>
  <time>2026-08-28T17:49:35Z</time>
  <course>222.66</course>
  <speed>1.95</speed>
  <fix>3d</fix>
</trkpt>
<trkpt lat="40.0717429" lon="-105.2298948">
  <ele>1583.02</ele>
  <time>2026-08-28T17:49:35Z</time>
  <course>223.66</course>
  <speed>1.9602295783912658</speed>
  <fix>3d</fix>
</trkpt>
<trkpt lat="40.0717456" lon="-105.2298916">
  <ele>1583.0</ele>
  <time>2026-08-28T17:49:35Z</time>
  <course>222.66</course>
  <speed>1.95</speed>
  <fix>3d</fix>
</trkpt>
<trkpt lat="40.0717416" lon="-105.2298964">
  <ele>1583.02</ele>
  <time>2026-08-28T17:49:35Z</time>
  <course>223.39</course>
  <speed>1.9817164277464119</speed>
  <fix>3d</fix>
</trkpt>
<trkpt lat="40.071743" lon="-105.2298948">
  <ele>1583.0</ele>
  <time>2026-08-28T17:49:35Z</time>
  <course>222.42</course>
  <speed>2.0</speed>
  <fix>3d</fix>
</trkpt>
<trkpt lat="40.0717402" lon="-105.229898">
  <ele>1583.02</ele>
  <time>2026-08-28T17:49:35Z</time>
  <course>222.93</course>
  <speed>2.003921156133644</speed>
  <fix>3d</fix>
</trkpt>
<trkpt lat="40.071743" lon="-105.2298948">
  <ele>1583.0</ele>
  <time>2026-08-28T17:49:35Z</time>
  <course>222.42</course>
  <speed>2.0</speed>
  <fix>3d</fix>
</trkpt>
<trkpt lat="40.0717388" lon="-105.2298997">
  <ele>1583.02</ele>
  <time>2026-08-28T17:49:35Z</time>
  <course>222.25</course>
  <speed>2.012212712413874</speed>
  <fix>3d</fix>
</trkpt>
<trkpt lat="40.0717403" lon="-105.2298979">
  <ele>1583.0</ele>
  <time>2026-08-28T17:49:35Z</time>
  <course>221.68</course>
  <speed>2.04</speed>
  <fix>3d</fix>
</trkpt>
<trkpt lat="40.0717374" lon="-105.2299013">
  <ele>1583.03</ele>
  <time>2026-08-28T17:49:35Z</time>
  <course>221.36</course>
  <speed>2.0218061232472317</speed>
  <fix>3d</fix>
</trkpt>
<trkpt lat="40.0717403" lon="-105.2298979">
  <ele>1583.0</ele>
  <time>2026-08-28T17:49:35Z</time>
  <course>221.68</course>
  <speed>2.04</speed>
  <fix>3d</fix>
</trkpt>
<trkpt lat="40.0717359" lon="-105.2299029">
  <ele>1583.03</ele>
  <time>2026-08-28T17:49:35Z</time>
  <course>220.26</course>
  <speed>2.0179197209007103</speed>
  <fix>3d</fix>
</trkpt>
<trkpt lat="40.0717375" lon="-105.2299011">
  <ele>1583.0</ele>
  <time>2026-08-28T17:49:35Z</time>
  <course>220.11</course>
  <speed>2.06</speed>
  <fix>3d</fix>
</trkpt>
<trkpt lat="40.0717345" lon="-105.2299044">
  <ele>1583.03</ele>
  <time>2026-08-28T17:49:35Z</time>
  <course>218.93</course>
  <speed>2.022523176628639</speed>
  <fix>3d</fix>
</trkpt>
<trkpt lat="40.0717375" lon="-105.2299011">
  <ele>1583.0</ele>
  <time>2026-08-28T17:49:35Z</time>
  <course>220.11</course>
  <speed>2.06</speed>
  <fix>3d</fix>
</trkpt>
<trkpt lat="40.071733" lon="-105.2299059">
  <ele>1583.03</ele>
  <time>2026-08-28T17:49:35Z</time>
  <course>217.36</course>
  <speed>2.016035713969373</speed>
  <fix>3d</fix>
</trkpt>
<trkpt lat="40.0717346" lon="-105.2299041">
  <ele>1583.0</ele>
  <time>2026-08-28T17:49:35Z</time>
  <course>217.67</course>
  <speed>2.05</speed>
  <fix>3d</fix>
</trkpt>
<trkpt lat="40.0717315" lon="-105.2299073">
  <ele>1583.03</ele>
  <time>2026-08-28T17:49:35Z</time>
  <course>215.54</course>
  <speed>1.997298175035465</speed>
  <fix>3d</fix>
</trkpt>
<trkpt lat="40.0717346" lon="-105.2299041">
  <ele>1583.0</ele>
  <time>2026-08-28T17:49:35Z</time>
  <course>217.67</course>
  <speed>2.05</speed>
  <fix>3d</fix>
</trkpt>
<trkpt lat="40.0717299" lon="-105.2299086">
  <ele>1583.03</ele>
  <time>2026-08-28T17:49:35Z</time>
  <course>213.45</course>
  <speed>1.9780040444852482</speed>
  <fix>3d</fix>
</trkpt>
<trkpt lat="40.0717316" lon="-105.2299069">
  <ele>1583.0</ele>
  <time>2026-08-28T17:49:35Z</time>
  <course>214.28</course>
  <speed>2.03</speed>
  <fix>3d</fix>
</trkpt>
<trkpt lat="40.0717284" lon="-105.2299098">
  <ele>1583.03</ele>
  <time>2026-08-28T17:49:35Z</time>
  <course>211.13</course>
  <speed>1.9535864454894236</speed>
  <fix>3d</fix>
</trkpt>
<trkpt lat="40.0717316" lon="-105.2299069">
  <ele>1583.0</ele>
  <time>2026-08-28T17:49:35Z</time>
  <course>214.28</course>
  <speed>2.03</speed>
  <fix>3d</fix>
</trkpt>
<trkpt lat="40.0717268" lon="-105.2299109">
  <ele>1583.03</ele>
  <time>2026-08-28T17:49:35Z</time>
  <course>208.72</course>
  <speed>1.93238194982255</speed>
  <fix>3d</fix>
</trkpt>
<trkpt lat="40.0717316" lon="-105.2299069">
  <ele>1583.0</ele>
  <time>2026-08-28T17:49:35Z</time>
  <course>214.28</course>
  <speed>2.03</speed>
  <fix>3d</fix>
</trkpt>
<trkpt lat="40.0717252" lon="-105.2299119">
  <ele>1583.03</ele>
  <time>2026-08-28T17:49:35Z</time>
  <course>206.29</course>
  <speed>1.9102355875650523</speed>
  <fix>3d</fix>
</trkpt>
<trkpt lat="40.0717285" lon="-105.2299094">
  <ele>1583.0</ele>
  <time>2026-08-28T17:49:35Z</time>
  <course>209.96</course>
  <speed>1.99</speed>
  <fix>3d</fix>
</trkpt>
<trkpt lat="40.0717236" lon="-105.2299128">
  <ele>1583.02</ele>
  <time>2026-08-28T17:49:35Z</time>
  <course>203.82</course>
  <speed>1.8869287214942698</speed>
  <fix>3d</fix>
</trkpt>
<trkpt lat="40.0717285" lon="-105.2299094">
  <ele>1583.0</ele>
  <time>2026-08-28T17:49:35Z</time>
  <course>209.96</course>
  <speed>1.99</speed>
  <fix>3d</fix>
</trkpt>
<trkpt lat="40.071722" lon="-105.2299136">
  <ele>1583.02</ele>
  <time>2026-08-28T17:49:35Z</time>
  <course>201.33</course>
  <speed>1.8539687160251654</speed>
  <fix>3d</fix>
</trkpt>
<trkpt lat="40.0717254" lon="-105.2299116">
  <ele>1583.0</ele>
  <time>2026-08-28T17:49:35Z</time>
  <course>205.14</course>
  <speed>1.94</speed>
  <fix>3d</fix>
</trkpt>
<trkpt lat="40.0717205" lon="-105.2299143">
  <ele>1583.02</ele>
  <time>2026-08-28T17:49:35Z</time>
  <course>198.84</course>
  <speed>1.8248561587149823</speed>
  <fix>3d</fix>
</trkpt>
<trkpt lat="40.0717254" lon="-105.2299116">
  <ele>1583.0</ele>
  <time>2026-08-28T17:49:35Z</time>
  <course>205.14</course>
  <speed>1.94</speed>
  <fix>3d</fix>
</trkpt>
<trkpt lat="40.0717189" lon="-105.2299149">
  <ele>1583.02</ele>
  <time>2026-08-28T17:49:35Z</time>
  <course>196.35</course>
  <speed>1.8023595645708435</speed>
  <fix>3d</fix>
</trkpt>
<trkpt lat="40.0717223" lon="-105.2299133">
  <ele>1583.0</ele>
  <time>2026-08-28T17:49:35Z</time>
  <course>200.2</course>
  <speed>1.89</speed>
  <fix>3d</fix>
</trkpt>
<trkpt lat="40.0717173" lon="-105.2299154">
  <ele>1583.02</ele>
  <time>2026-08-28T17:49:35Z</time>
  <course>193.85</course>
  <speed>1.7810109488714547</speed>
  <fix>3d</fix>
</trkpt>
<trkpt lat="40.071719" lon="-105.2299147">
  <ele>1583.0</ele>
  <time>2026-08-28T17:49:35Z</time>
  <course>195.22</course>
  <speed>1.84</speed>
  <fix>3d</fix>
</trkpt>
<trkpt lat="40.0717157" lon="-105.2299158">
  <ele>1583.02</ele>
  <time>2026-08-28T17:49:35Z</time>
  <course>191.4</course>
  <speed>1.7755280904564703</speed>
  <fix>3d</fix>
</trkpt>
<trkpt lat="40.071719" lon="-105.2299147">
  <ele>1583.0</ele>
  <time>2026-08-28T17:49:35Z</time>
  <course>195.22</course>
  <speed>1.84</speed>
  <fix>3d</fix>
</trkpt>
<trkpt lat="40.0717141" lon="-105.2299161">
  <ele>1583.02</ele>
  <time>2026-08-28T17:49:35Z</time>
  <course>188.98</course>
  <speed>1.7650495743746122</speed>
  <fix>3d</fix>
</trkpt>
<trkpt lat="40.0717159" lon="-105.2299156">
  <ele>1583.0</ele>
  <time>2026-08-28T17:49:35Z</time>
  <course>190.29</course>
  <speed>1.81</speed>
  <fix>3d</fix>
</trkpt>
<trkpt lat="40.0717125" lon="-105.2299163">
  <ele>1583.02</ele>
  <time>2026-08-28T17:49:35Z</time>
  <course>186.64</course>
  <speed>1.7564168070250294</speed>
  <fix>3d</fix>
</trkpt>
<trkpt lat="40.0717159" lon="-105.2299156">
  <ele>1583.0</ele>
  <time>2026-08-28T17:49:35Z</time>
  <course>190.29</course>
  <speed>1.81</speed>
  <fix>3d</fix>
</trkpt>
<trkpt lat="40.0717109" lon="-105.2299164">
  <ele>1583.01</ele>
  <time>2026-08-28T17:49:35Z</time>
  <course>184.47</course>
  <speed>1.7518276170902203</speed>
  <fix>3d</fix>
</trkpt>
<trkpt lat="40.0717127" lon="-105.2299161">
  <ele>1583.0</ele>
  <time>2026-08-28T17:49:35Z</time>
  <course>185.57</course>
  <speed>1.79</speed>
  <fix>3d</fix>
</trkpt>
<trkpt lat="40.0717092" lon="-105.2299165">
  <ele>1583.01</ele>
  <time>2026-08-28T17:49:35Z</time>
  <course>182.56</course>
  <speed>1.760113632695344</speed>
  <fix>3d</fix>
</trkpt>
<trkpt lat="40.0717127" lon="-105.2299161">
  <ele>1583.0</ele>
  <time>2026-08-28T17:49:35Z</time>
  <course>185.57</course>
  <speed>1.79</speed>
  <fix>3d</fix>
</trkpt>
<trkpt lat="40.0717076" lon="-105.2299165">
  <ele>1583.01</ele>
  <time>2026-08-28T17:49:35Z</time>
  <course>180.91</course>
  <speed>1.7801123560045304</speed>
  <fix>3d</fix>
</trkpt>
<trkpt lat="40.0717094" lon="-105.2299165">
  <ele>1583.0</ele>
  <time>2026-08-28T17:49:35Z</time>
  <course>181.51</course>
  <speed>1.8</speed>
  <fix>3d</fix>
</trkpt>
<trkpt lat="40.0717059" lon="-105.2299164">
  <ele>1583.01</ele>
  <time>2026-08-28T17:49:35Z</time>
  <course>179.5</course>
  <speed>1.800999722376436</speed>
  <fix>3d</fix>
</trkpt>
<trkpt lat="40.0717094" lon="-105.2299165">
  <ele>1583.0</ele>
  <time>2026-08-28T17:49:35Z</time>
  <course>181.51</course>
  <speed>1.8</speed>
  <fix>3d</fix>
</trkpt>
<trkpt lat="40.0717043" lon="-105.2299163">
  <ele>1583.01</ele>
  <time>2026-08-28T17:49:35Z</time>
  <course>178.38</course>
  <speed>1.83273020382161</speed>
  <fix>3d</fix>
</trkpt>
<trkpt lat="40.0717061" lon="-105.2299165">
  <ele>1583.0</ele>
  <time>2026-08-28T17:49:35Z</time>
  <course>178.47</course>
  <speed>1.84</speed>
  <fix>3d</fix>
</trkpt>
<trkpt lat="40.0717025" lon="-105.2299162">
  <ele>1583.02</ele>
  <time>2026-08-28T17:49:35Z</time>
  <course>177.51</course>
  <speed>1.8844893207444822</speed>
  <fix>3d</fix>
</trkpt>
<trkpt lat="40.0717061" lon="-105.2299165">
  <ele>1583.0</ele>
  <time>2026-08-28T17:49:35Z</time>
  <course>178.47</course>
  <speed>1.84</speed>
  <fix>3d</fix>
</trkpt>
<trkpt lat="40.0717008" lon="-105.229916">
  <ele>1583.02</ele>
  <time>2026-08-28T17:49:35Z</time>
  <course>176.86</course>
  <speed>1.9358202395883766</speed>
  <fix>3d</fix>
</trkpt>
<trkpt lat="40.0717028" lon="-105.2299162">
  <ele>1583.0</ele>
  <time>2026-08-28T17:49:35Z</time>
  <course>176.46</course>
  <speed>1.91</speed>
  <fix>3d</fix>
</trkpt>
<trkpt lat="40.071699" lon="-105.2299158">
  <ele>1583.02</ele>
  <time>2026-08-28T17:49:35Z</time>
  <course>176.43</course>
  <speed>1.997248106770914</speed>
  <fix>3d</fix>
</trkpt>
<trkpt lat="40.0717028" lon="-105.2299162">
  <ele>1583.0</ele>
  <time>2026-08-28T17:49:35Z</time>
  <course>176.46</course>
  <speed>1.91</speed>
  <fix>3d</fix>
</trkpt>
<trkpt lat="40.0716971" lon="-105.2299157">
  <ele>1583.02</ele>
  <time>2026-08-28T17:49:35Z</time>
  <course>176.19</course>
  <speed>2.077811348510735</speed>
  <fix>3d</fix>
</trkpt>
<trkpt lat="40.0716993" lon="-105.229916">
  <ele>1583.0</ele>
  <time>2026-08-28T17:49:35Z</time>
  <course>175.37</course>
  <speed>2.03</speed>
  <fix>3d</fix>
</trkpt>
<trkpt lat="40.0716952" lon="-105.2299154">
  <ele>1583.02</ele>
  <time>2026-08-28T17:49:35Z</time>
  <course>176.12</course>
  <speed>2.158379021395455</speed>
  <fix>3d</fix>
</trkpt>
<trkpt lat="40.0716993" lon="-105.229916">
  <ele>1583.0</ele>
  <time>2026-08-28T17:49:35Z</time>
  <course>175.37</course>
  <speed>2.03</speed>
  <fix>3d</fix>
</trkpt>
<trkpt lat="40.0716931" lon="-105.2299152">
  <ele>1583.02</ele>
  <time>2026-08-28T17:49:35Z</time>
  <course>176.1</course>
  <speed>2.2588713996153036</speed>
  <fix>3d</fix>
</trkpt>
<trkpt lat="40.0716993" lon="-105.229916">
  <ele>1583.0</ele>
  <time>2026-08-28T17:49:35Z</time>
  <course>175.37</course>
  <speed>2.03</speed>
  <fix>3d</fix>
</trkpt>
<trkpt lat="40.071691" lon="-105.229915">
  <ele>1583.02</ele>
  <time>2026-08-28T17:49:35Z</time>
  <course>176.07</course>
  <speed>2.358495283014151</speed>
  <fix>3d</fix>
</trkpt>
<trkpt lat="40.0716955" lon="-105.2299156">
  <ele>1583.0</ele>
  <time>2026-08-28T17:49:35Z</time>
  <course>175.0</course>
  <speed>2.19</speed>
  <fix>3d</fix>
</trkpt>
<trkpt lat="40.0716889" lon="-105.2299147">
  <ele>1583.02</ele>
  <time>2026-08-28T17:49:35Z</time>
  <course>176.07</course>
  <speed>2.468947144027186</speed>
  <fix>3d</fix>
</trkpt>
<trkpt lat="40.0716955" lon="-105.2299156">
  <ele>1583.0</ele>
  <time>2026-08-28T17:49:35Z</time>
  <course>175.0</course>
  <speed>2.19</speed>
  <fix>3d</fix>
</trkpt>
<trkpt lat="40.0716866" lon="-105.2299145">
  <ele>1583.02</ele>
  <time>2026-08-28T17:49:35Z</time>
  <course>176.07</course>
  <speed>2.579399154842073</speed>
  <fix>3d</fix>
</trkpt>
<trkpt lat="40.0716913" lon="-105.2299151">
  <ele>1583.0</ele>
  <time>2026-08-28T17:49:35Z</time>
  <course>174.93</course>
  <speed>2.39</speed>
  <fix>3d</fix>
</trkpt>
<trkpt lat="40.0716842" lon="-105.2299142">
  <ele>1583.02</ele>
  <time>2026-08-28T17:49:35Z</time>
  <course>176.07</course>
  <speed>2.6989812893015768</speed>
  <fix>3d</fix>
</trkpt>
<trkpt lat="40.0716913" lon="-105.2299151">
  <ele>1583.0</ele>
  <time>2026-08-28T17:49:35Z</time>
  <course>174.93</course>
  <speed>2.39</speed>
  <fix>3d</fix>
</trkpt>
<trkpt lat="40.0716817" lon="-105.229914">
  <ele>1583.02</ele>
  <time>2026-08-28T17:49:35Z</time>
  <course>176.07</course>
  <speed>2.8293638861058503</speed>
  <fix>3d</fix>
</trkpt>
<trkpt lat="40.0716869" lon="-105.2299146">
  <ele>1583.0</ele>
  <time>2026-08-28T17:49:35Z</time>
  <course>174.92</course>
  <speed>2.61</speed>
  <fix>3d</fix>
</trkpt>
<trkpt lat="40.071679" lon="-105.2299137">
  <ele>1583.02</ele>
  <time>2026-08-28T17:49:35Z</time>
  <course>176.07</course>
  <speed>2.9497796527876448</speed>
  <fix>3d</fix>
</trkpt>
<trkpt lat="40.071682" lon="-105.2299141">
  <ele>1583.0</ele>
  <time>2026-08-28T17:49:35Z</time>
  <course>174.92</course>
  <speed>2.85</speed>
  <fix>3d</fix>
</trkpt>
<trkpt lat="40.0716763" lon="-105.2299134">
  <ele>1583.02</ele>
  <time>2026-08-28T17:49:35Z</time>
  <course>176.06</course>
  <speed>3.080162333384395</speed>
  <fix>3d</fix>
</trkpt>
<trkpt lat="40.071682" lon="-105.2299141">
  <ele>1583.0</ele>
  <time>2026-08-28T17:49:35Z</time>
  <course>174.92</course>
  <speed>2.85</speed>
  <fix>3d</fix>
</trkpt>
<trkpt lat="40.0716734" lon="-105.2299131">
  <ele>1583.02</ele>
  <time>2026-08-28T17:49:35Z</time>
  <course>176.06</course>
  <speed>3.2105451250527532</speed>
  <fix>3d</fix>
</trkpt>
<trkpt lat="40.0716767" lon="-105.2299134">
  <ele>1583.0</ele>
  <time>2026-08-28T17:49:35Z</time>
  <course>174.92</course>
  <speed>3.11</speed>
  <fix>3d</fix>
</trkpt>
<trkpt lat="40.0716704" lon="-105.2299128">
  <ele>1583.02</ele>
  <time>2026-08-28T17:49:35Z</time>
  <course>176.06</course>
  <speed>3.340134727821619</speed>
  <fix>3d</fix>
</trkpt>
<trkpt lat="40.0716767" lon="-105.2299134">
  <ele>1583.0</ele>
  <time>2026-08-28T17:49:35Z</time>
  <course>174.92</course>
  <speed>3.11</speed>
  <fix>3d</fix>
</trkpt>
<trkpt lat="40.0716673" lon="-105.2299125">
  <ele>1583.02</ele>
  <time>2026-08-28T17:49:35Z</time>
  <course>176.05</course>
  <speed>3.470518693221519</speed>
  <fix>3d</fix>
</trkpt>
<trkpt lat="40.0716709" lon="-105.2299127">
  <ele>1583.0</ele>
  <time>2026-08-28T17:49:35Z</time>
  <course>174.92</course>
  <speed>3.36</speed>
  <fix>3d</fix>
</trkpt>
<trkpt lat="40.0716641" lon="-105.2299121">
  <ele>1583.02</ele>
  <time>2026-08-28T17:49:35Z</time>
  <course>176.05</course>
  <speed>3.600902664610639</speed>
  <fix>3d</fix>
</trkpt>
<trkpt lat="40.0716709" lon="-105.2299127">
  <ele>1583.0</ele>
  <time>2026-08-28T17:49:35Z</time>
  <course>174.92</course>
  <speed>3.36</speed>
  <fix>3d</fix>
</trkpt>
<trkpt lat="40.0716607" lon="-105.2299117">
  <ele>1583.02</ele>
  <time>2026-08-28T17:49:35Z</time>
  <course>176.04</course>
  <speed>3.721316971181036</speed>
  <fix>3d</fix>
</trkpt>
<trkpt lat="40.0716646" lon="-105.229912">
  <ele>1583.0</ele>
  <time>2026-08-28T17:49:35Z</time>
  <course>174.92</course>
  <speed>3.62</speed>
  <fix>3d</fix>
</trkpt>
<trkpt lat="40.0716572" lon="-105.2299114">
  <ele>1583.02</ele>
  <time>2026-08-28T17:49:35Z</time>
  <course>176.04</course>
  <speed>3.851700922968968</speed>
  <fix>3d</fix>
</trkpt>
<trkpt lat="40.0716646" lon="-105.229912">
  <ele>1583.0</ele>
  <time>2026-08-28T17:49:35Z</time>
  <course>174.92</course>
  <speed>3.62</speed>
  <fix>3d</fix>
</trkpt>
<trkpt lat="40.0716537" lon="-105.229911">
  <ele>1583.02</ele>
  <time>2026-08-28T17:49:35Z</time>
  <course>176.03</course>
  <speed>3.972115305476416</speed>
  <fix>3d</fix>
</trkpt>
<trkpt lat="40.0716579" lon="-105.2299113">
  <ele>1583.0</ele>
  <time>2026-08-28T17:49:35Z</time>
  <course>174.92</course>
  <speed>3.86</speed>
  <fix>3d</fix>
</trkpt>
<trkpt lat="40.07165" lon="-105.2299106">
  <ele>1583.02</ele>
  <time>2026-08-28T17:49:35Z</time>
  <course>176.03</course>
  <speed>4.0925297799771725</speed>
  <fix>3d</fix>
</trkpt>
<trkpt lat="40.0716579" lon="-105.2299113">
  <ele>1583.0</ele>
  <time>2026-08-28T17:49:35Z</time>
  <course>174.92</course>
  <speed>3.86</speed>
  <fix>3d</fix>
</trkpt>
<trkpt lat="40.0716462" lon="-105.2299102">
  <ele>1583.02</ele>
  <time>2026-08-28T17:49:35Z</time>
  <course>176.02</course>
  <speed>4.202975136733502</speed>
  <fix>3d</fix>
</trkpt>
<trkpt lat="40.0716508" lon="-105.2299104">
  <ele>1583.0</ele>
  <time>2026-08-28T17:49:35Z</time>
  <course>174.92</course>
  <speed>4.09</speed>
  <fix>3d</fix>
</trkpt>
<trkpt lat="40.0716423" lon="-105.2299097">
  <ele>1583.02</ele>
  <time>2026-08-28T17:49:35Z</time>
  <course>176.02</course>
  <speed>4.312644200487678</speed>
  <fix>3d</fix>
</trkpt>
<trkpt lat="40.0716508" lon="-105.2299104">
  <ele>1583.0</ele>
  <time>2026-08-28T17:49:35Z</time>
  <course>174.92</course>
  <speed>4.09</speed>
  <fix>3d</fix>
</trkpt>
<trkpt lat="40.0716383" lon="-105.2299093">
  <ele>1583.03</ele>
  <time>2026-08-28T17:49:35Z</time>
  <course>176.01</course>
  <speed>4.423087157178796</speed>
  <fix>3d</fix>
</trkpt>
<trkpt lat="40.0716432" lon="-105.2299095">
  <ele>1583.0</ele>
  <time>2026-08-28T17:49:35Z</time>
  <course>174.92</course>
  <speed>4.32</speed>
  <fix>3d</fix>
</trkpt>
<trkpt lat="40.0716342" lon="-105.2299088">
  <ele>1583.03</ele>
  <time>2026-08-28T17:49:35Z</time>
  <course>176.0</course>
  <speed>4.533530632961467</speed>
  <fix>3d</fix>
</trkpt>
<trkpt lat="40.0716432" lon="-105.2299095">
  <ele>1583.0</ele>
  <time>2026-08-28T17:49:35Z</time>
  <course>174.92</course>
  <speed>4.32</speed>
  <fix>3d</fix>
</trkpt>
<trkpt lat="40.0716301" lon="-105.2299084">
  <ele>1583.03</ele>
  <time>2026-08-28T17:49:35Z</time>
  <course>176.0</course>
  <speed>4.634004747515911</speed>
  <fix>3d</fix>
</trkpt>
<trkpt lat="40.0716432" lon="-105.2299095">
  <ele>1583.0</ele>
  <time>2026-08-28T17:49:35Z</time>
  <course>174.92</course>
  <speed>4.32</speed>
  <fix>3d</fix>
</trkpt>
<trkpt lat="40.0716259" lon="-105.2299079">
  <ele>1583.03</ele>
  <time>2026-08-28T17:49:35Z</time>
  <course>175.99</course>
  <speed>4.7344799080786055</speed>
  <fix>3d</fix>
</trkpt>
<trkpt lat="40.0716353" lon="-105.2299086">
  <ele>1583.0</ele>
  <time>2026-08-28T17:49:35Z</time>
  <course>174.92</course>
  <speed>4.53</speed>
  <fix>3d</fix>
</trkpt>
<trkpt lat="40.0716216" lon="-105.2299074">
  <ele>1583.03</ele>
  <time>2026-08-28T17:49:35Z</time>
  <course>175.98</course>
  <speed>4.82420977984996</speed>
  <fix>3d</fix>
</trkpt>
<trkpt lat="40.0716353" lon="-105.2299086">
  <ele>1583.0</ele>
  <time>2026-08-28T17:49:35Z</time>
  <course>174.92</course>
  <speed>4.53</speed>
  <fix>3d</fix>
</trkpt>
<trkpt lat="40.0716172" lon="-105.2299069">
  <ele>1583.03</ele>
  <time>2026-08-28T17:49:35Z</time>
  <course>175.98</course>
  <speed>4.9147126060432065</speed>
  <fix>3d</fix>
</trkpt>
<trkpt lat="40.071627" lon="-105.2299077">
  <ele>1583.0</ele>
  <time>2026-08-28T17:49:35Z</time>
  <course>174.92</course>
  <speed>4.73</speed>
  <fix>3d</fix>
</trkpt>
<trkpt lat="40.0716128" lon="-105.2299064">
  <ele>1583.03</ele>
  <time>2026-08-28T17:49:35Z</time>
  <course>175.98</course>
  <speed>5.005217278001026</speed>
  <fix>3d</fix>
</trkpt>
<trkpt lat="40.071627" lon="-105.2299077">
  <ele>1583.0</ele>
  <time>2026-08-28T17:49:35Z</time>
  <course>174.92</course>
  <speed>4.73</speed>
  <fix>3d</fix>
</trkpt>
<trkpt lat="40.0716083" lon="-105.2299059">
  <ele>1583.04</ele>
  <time>2026-08-28T17:49:35Z</time>
  <course>175.97</course>
  <speed>5.075785653472771</speed>
  <fix>3d</fix>
</trkpt>
<trkpt lat="40.0716184" lon="-105.2299067">
  <ele>1583.0</ele>
  <time>2026-08-28T17:49:35Z</time>
  <course>174.92</course>
  <speed>4.91</speed>
  <fix>3d</fix>
</trkpt>
<trkpt lat="40.0716037" lon="-105.2299054">
  <ele>1583.04</ele>
  <time>2026-08-28T17:49:35Z</time>
  <course>175.97</course>
  <speed>5.14557091098743</speed>
  <fix>3d</fix>
</trkpt>
<trkpt lat="40.0716184" lon="-105.2299067">
  <ele>1583.0</ele>
  <time>2026-08-28T17:49:35Z</time>
  <course>174.92</course>
  <speed>4.91</speed>
  <fix>3d</fix>
</trkpt>
<trkpt lat="40.071599" lon="-105.2299049">
  <ele>1583.04</ele>
  <time>2026-08-28T17:49:35Z</time>
  <course>175.96</course>
  <speed>5.196200535006324</speed>
  <fix>3d</fix>
</trkpt>
<trkpt lat="40.0716094" lon="-105.2299056">
  <ele>1583.0</ele>
  <time>2026-08-28T17:49:35Z</time>
  <course>174.92</course>
  <speed>5.07</speed>
  <fix>3d</fix>
</trkpt>
<trkpt lat="40.0715944" lon="-105.2299043">
  <ele>1583.04</ele>
  <time>2026-08-28T17:49:35Z</time>
  <course>175.96</course>
  <speed>5.246046130182235</speed>
  <fix>3d</fix>
</trkpt>
<trkpt lat="40.0716002" lon="-105.2299045">
  <ele>1583.0</ele>
  <time>2026-08-28T17:49:35Z</time>
  <course>174.92</course>
  <speed>5.2</speed>
  <fix>3d</fix>
</trkpt>
<trkpt lat="40.0715896" lon="-105.2299038">
  <ele>1583.04</ele>
  <time>2026-08-28T17:49:35Z</time>
  <course>175.95</course>
  <speed>5.2867097518210695</speed>
  <fix>3d</fix>
</trkpt>
<trkpt lat="40.0716002" lon="-105.2299045">
  <ele>1583.0</ele>
  <time>2026-08-28T17:49:35Z</time>
  <course>174.92</course>
  <speed>5.2</speed>
  <fix>3d</fix>
</trkpt>
<trkpt lat="40.0715849" lon="-105.2299033">
  <ele>1583.04</ele>
  <time>2026-08-28T17:49:35Z</time>
  <course>175.97</course>
  <speed>5.30664677550711</speed>
  <fix>3d</fix>
</trkpt>
<trkpt lat="40.0715908" lon="-105.2299034">
  <ele>1583.0</ele>
  <time>2026-08-28T17:49:35Z</time>
  <course>174.93</course>
  <speed>5.28</speed>
  <fix>3d</fix>
</trkpt>
<trkpt lat="40.0715801" lon="-105.2299027">
  <ele>1583.05</ele>
  <time>2026-08-28T17:49:35Z</time>
  <course>176.0</course>
  <speed>5.326584271369411</speed>
  <fix>3d</fix>
</trkpt>
<trkpt lat="40.0715908" lon="-105.2299034">
  <ele>1583.0</ele>
  <time>2026-08-28T17:49:35Z</time>
  <course>174.93</course>
  <speed>5.28</speed>
  <fix>3d</fix>
</trkpt>
<trkpt lat="40.0715753" lon="-105.2299021">
  <ele>1583.05</ele>
  <time>2026-08-28T17:49:35Z</time>
  <course>176.02</course>
  <speed>5.326584271369411</speed>
  <fix>3d</fix>
</trkpt>
<trkpt lat="40.0715813" lon="-105.2299023">
  <ele>1583.0</ele>
  <time>2026-08-28T17:49:35Z</time>
  <course>174.98</course>
  <speed>5.32</speed>
  <fix>3d</fix>
</trkpt>
<trkpt lat="40.0715705" lon="-105.2299016">
  <ele>1583.05</ele>
  <time>2026-08-28T17:49:35Z</time>
  <course>176.09</course>
  <speed>5.32580510345619</speed>
  <fix>3d</fix>
</trkpt>
<trkpt lat="40.0715813" lon="-105.2299023">
  <ele>1583.0</ele>
  <time>2026-08-28T17:49:35Z</time>
  <course>174.98</course>
  <speed>5.32</speed>
  <fix>3d</fix>
</trkpt>
<trkpt lat="40.0715656" lon="-105.229901">
  <ele>1583.05</ele>
  <time>2026-08-28T17:49:35Z</time>
  <course>176.13</course>
  <speed>5.305864679767097</speed>
  <fix>3d</fix>
</trkpt>
<trkpt lat="40.0715718" lon="-105.2299013">
  <ele>1583.0</ele>
  <time>2026-08-28T17:49:35Z</time>
  <course>175.08</course>
  <speed>5.32</speed>
  <fix>3d</fix>
</trkpt>
<trkpt lat="40.0715608" lon="-105.2299005">
  <ele>1583.05</ele>
  <time>2026-08-28T17:49:35Z</time>
  <course>176.18</course>
  <speed>5.285158464984754</speed>
  <fix>3d</fix>
</trkpt>
<trkpt lat="40.0715718" lon="-105.2299013">
  <ele>1583.0</ele>
  <time>2026-08-28T17:49:35Z</time>
  <course>175.08</course>
  <speed>5.32</speed>
  <fix>3d</fix>
</trkpt>
<trkpt lat="40.0715561" lon="-105.2299">
  <ele>1583.05</ele>
  <time>2026-08-28T17:49:35Z</time>
  <course>176.23</course>
  <speed>5.255244999046191</speed>
  <fix>3d</fix>
</trkpt>
<trkpt lat="40.0715623" lon="-105.2299002">
  <ele>1583.0</ele>
  <time>2026-08-28T17:49:35Z</time>
  <course>175.19</course>
  <speed>5.28</speed>
  <fix>3d</fix>
</trkpt>
<trkpt lat="40.0715513" lon="-105.2298995">
  <ele>1583.04</ele>
  <time>2026-08-28T17:49:35Z</time>
  <course>176.29</course>
  <speed>5.224576537864098</speed>
  <fix>3d</fix>
</trkpt>
<trkpt lat="40.0715623" lon="-105.2299002">
  <ele>1583.0</ele>
  <time>2026-08-28T17:49:35Z</time>
  <course>175.19</course>
  <speed>5.28</speed>
  <fix>3d</fix>
</trkpt>
<trkpt lat="40.0715466" lon="-105.229899">
  <ele>1583.04</ele>
  <time>2026-08-28T17:49:35Z</time>
  <course>176.35</course>
  <speed>5.19391952190251</speed>
  <fix>3d</fix>
</trkpt>
<trkpt lat="40.0715529" lon="-105.2298991">
  <ele>1583.0</ele>
  <time>2026-08-28T17:49:35Z</time>
  <course>175.31</course>
  <speed>5.23</speed>
  <fix>3d</fix>
</trkpt>
<trkpt lat="40.071542" lon="-105.2298984">
  <ele>1583.04</ele>
  <time>2026-08-28T17:49:35Z</time>
  <course>176.41</course>
  <speed>5.154027551342737</speed>
  <fix>3d</fix>
</trkpt>
<trkpt lat="40.0715529" lon="-105.2298991">
  <ele>1583.0</ele>
  <time>2026-08-28T17:49:35Z</time>
  <course>175.31</course>
  <speed>5.23</speed>
  <fix>3d</fix>
</trkpt>
<trkpt lat="40.0715373" lon="-105.229898">
  <ele>1583.04</ele>
  <time>2026-08-28T17:49:35Z</time>
  <course>176.45</course>
  <speed>5.113403954314581</speed>
  <fix>3d</fix>
</trkpt>
<trkpt lat="40.0715436" lon="-105.2298982">
  <ele>1583.0</ele>
  <time>2026-08-28T17:49:35Z</time>
  <course>175.43</course>
  <speed>5.16</speed>
  <fix>3d</fix>
</trkpt>
<trkpt lat="40.0715328" lon="-105.2298975">
  <ele>1583.04</ele>
  <time>2026-08-28T17:49:35Z</time>
  <course>176.52</course>
  <speed>5.083483057904295</speed>
  <fix>3d</fix>
</trkpt>
<trkpt lat="40.0715436" lon="-105.2298982">
  <ele>1583.0</ele>
  <time>2026-08-28T17:49:35Z</time>
  <course>175.43</course>
  <speed>5.16</speed>
  <fix>3d</fix>
</trkpt>
<trkpt lat="40.0715282" lon="-105.229897">
  <ele>1583.04</ele>
  <time>2026-08-28T17:49:35Z</time>
  <course>176.56</course>
  <speed>5.042866248474175</speed>
  <fix>3d</fix>
</trkpt>
<trkpt lat="40.0715436" lon="-105.2298982">
  <ele>1583.0</ele>
  <time>2026-08-28T17:49:35Z</time>
  <course>175.43</course>
  <speed>5.16</speed>
  <fix>3d</fix>
</trkpt>
<trkpt lat="40.0715237" lon="-105.2298965">
  <ele>1583.04</ele>
  <time>2026-08-28T17:49:35Z</time>
  <course>176.63</course>
  <speed>5.002259489470734</speed>
  <fix>3d</fix>
</trkpt>
<trkpt lat="40.0715344" lon="-105.2298972">
  <ele>1583.0</ele>
  <time>2026-08-28T17:49:35Z</time>
  <course>175.53</course>
  <speed>5.08</speed>
  <fix>3d</fix>
</trkpt>
<trkpt lat="40.0715193" lon="-105.2298961">
  <ele>1583.03</ele>
  <time>2026-08-28T17:49:35Z</time>
  <course>176.67</course>
  <speed>4.962358310319802</speed>
  <fix>3d</fix>
</trkpt>
<trkpt lat="40.0715344" lon="-105.2298972">
  <ele>1583.0</ele>
  <time>2026-08-28T17:49:35Z</time>
  <course>175.53</course>
  <speed>5.08</speed>
  <fix>3d</fix>
</trkpt>
<trkpt lat="40.0715149" lon="-105.2298956">
  <ele>1583.03</ele>
  <time>2026-08-28T17:49:35Z</time>
  <course>176.72</course>
  <speed>4.921757816065313</speed>
  <fix>3d</fix>
</trkpt>
<trkpt lat="40.0715253" lon="-105.2298963">
  <ele>1583.0</ele>
  <time>2026-08-28T17:49:35Z</time>
  <course>175.64</course>
  <speed>5.01</speed>
  <fix>3d</fix>
</trkpt>
<trkpt lat="40.0715106" lon="-105.2298952">
  <ele>1583.03</ele>
  <time>2026-08-28T17:49:35Z</time>
  <course>176.78</course>
  <speed>4.8818541559534525</speed>
  <fix>3d</fix>
</trkpt>
<trkpt lat="40.0715253" lon="-105.2298963">
  <ele>1583.0</ele>
  <time>2026-08-28T17:49:35Z</time>
  <course>175.64</course>
  <speed>5.01</speed>
  <fix>3d</fix>
</trkpt>
<trkpt lat="40.0715062" lon="-105.2298948">
  <ele>1583.03</ele>
  <time>2026-08-28T17:49:35Z</time>
  <course>176.85</course>
  <speed>4.841260166526893</speed>
  <fix>3d</fix>
</trkpt>
<trkpt lat="40.0715164" lon="-105.2298955">
  <ele>1583.0</ele>
  <time>2026-08-28T17:49:35Z</time>
  <course>175.75</course>
  <speed>4.94</speed>
  <fix>3d</fix>
</trkpt>
<trkpt lat="40.0715019" lon="-105.2298944">
  <ele>1583.03</ele>
  <time>2026-08-28T17:49:35Z</time>
  <course>176.91</course>
  <speed>4.790699322645912</speed>
  <fix>3d</fix>
</trkpt>
<trkpt lat="40.0715076" lon="-105.2298946">
  <ele>1583.0</ele>
  <time>2026-08-28T17:49:35Z</time>
  <course>175.86</course>
  <speed>4.86</speed>
  <fix>3d</fix>
</trkpt>
<trkpt lat="40.0714977" lon="-105.229894">
  <ele>1583.03</ele>
  <time>2026-08-28T17:49:35Z</time>
  <course>176.97</course>
  <speed>4.740147677024419</speed>
  <fix>3d</fix>
</trkpt>
<trkpt lat="40.0715076" lon="-105.2298946">
  <ele>1583.0</ele>
  <time>2026-08-28T17:49:35Z</time>
  <course>175.86</course>
  <speed>4.86</speed>
  <fix>3d</fix>
</trkpt>
<trkpt lat="40.0714934" lon="-105.2298936">
  <ele>1583.03</ele>
  <time>2026-08-28T17:49:35Z</time>
  <course>177.04</course>
  <speed>4.680277769534625</speed>
  <fix>3d</fix>
</trkpt>
<trkpt lat="40.0714989" lon="-105.2298938">
  <ele>1583.0</ele>
  <time>2026-08-28T17:49:35Z</time>
  <course>175.99</course>
  <speed>4.76</speed>
  <fix>3d</fix>
</trkpt>
<trkpt lat="40.0714893" lon="-105.2298932">
  <ele>1583.03</ele>
  <time>2026-08-28T17:49:35Z</time>
  <course>177.1</course>
  <speed>4.619751075545088</speed>
  <fix>3d</fix>
</trkpt>
<trkpt lat="40.0714989" lon="-105.2298938">
  <ele>1583.0</ele>
  <time>2026-08-28T17:49:35Z</time>
  <course>175.99</course>
  <speed>4.76</speed>
  <fix>3d</fix>
</trkpt>
<trkpt lat="40.0714852" lon="-105.2298928">
  <ele>1583.03</ele>
  <time>2026-08-28T17:49:35Z</time>
  <course>177.16</course>
  <speed>4.539273069556402</speed>
  <fix>3d</fix>
</trkpt>
<trkpt lat="40.0714905" lon="-105.2298931">
  <ele>1583.0</ele>
  <time>2026-08-28T17:49:35Z</time>
  <course>176.11</course>
  <speed>4.64</speed>
  <fix>3d</fix>
</trkpt>
<trkpt lat="40.0714811" lon="-105.2298924">
  <ele>1583.02</ele>
  <time>2026-08-28T17:49:35Z</time>
  <course>177.22</course>
  <speed>4.458800287072745</speed>
  <fix>3d</fix>
</trkpt>
<trkpt lat="40.0714905" lon="-105.2298931">
  <ele>1583.0</ele>
  <time>2026-08-28T17:49:35Z</time>
  <course>176.11</course>
  <speed>4.64</speed>
  <fix>3d</fix>
</trkpt>
<trkpt lat="40.0714771" lon="-105.2298921">
  <ele>1583.02</ele>
  <time>2026-08-28T17:49:35Z</time>
  <course>177.28</course>
  <speed>4.368352092036538</speed>
  <fix>3d</fix>
</trkpt>
<trkpt lat="40.0714823" lon="-105.2298924">
  <ele>1583.0</ele>
  <time>2026-08-28T17:49:35Z</time>
  <course>176.24</course>
  <speed>4.49</speed>
  <fix>3d</fix>
</trkpt>
<trkpt lat="40.0714732" lon="-105.2298918">
  <ele>1583.02</ele>
  <time>2026-08-28T17:49:35Z</time>
  <course>177.34</course>
  <speed>4.267926897218367</speed>
  <fix>3d</fix>
</trkpt>
<trkpt lat="40.0714823" lon="-105.2298924">
  <ele>1583.0</ele>
  <time>2026-08-28T17:49:35Z</time>
  <course>176.24</course>
  <speed>4.49</speed>
  <fix>3d</fix>
</trkpt>
<trkpt lat="40.0714694" lon="-105.2298914">
  <ele>1583.02</ele>
  <time>2026-08-28T17:49:35Z</time>
  <course>177.4</course>
  <speed>4.167505248946904</speed>
  <fix>3d</fix>
</trkpt>
<trkpt lat="40.0714744" lon="-105.2298917">
  <ele>1583.0</ele>
  <time>2026-08-28T17:49:35Z</time>
  <course>176.36</course>
  <speed>4.3</speed>
  <fix>3d</fix>
</trkpt>
<trkpt lat="40.0714657" lon="-105.2298911">
  <ele>1583.02</ele>
  <time>2026-08-28T17:49:35Z</time>
  <course>177.45</course>
  <speed>4.057104879097902</speed>
  <fix>3d</fix>
</trkpt>
<trkpt lat="40.0714744" lon="-105.2298917">
  <ele>1583.0</ele>
  <time>2026-08-28T17:49:35Z</time>
  <course>176.36</course>
  <speed>4.3</speed>
  <fix>3d</fix>
</trkpt>
<trkpt lat="40.0714621" lon="-105.2298908">
  <ele>1583.02</ele>
  <time>2026-08-28T17:49:35Z</time>
  <course>177.51</course>
  <speed>3.9467074885276205</speed>
  <fix>3d</fix>
</trkpt>
<trkpt lat="40.0714669" lon="-105.2298911">
  <ele>1583.0</ele>
  <time>2026-08-28T17:49:35Z</time>
  <course>176.47</course>
  <speed>4.09</speed>
  <fix>3d</fix>
</trkpt>
<trkpt lat="40.0714585" lon="-105.2298906">
  <ele>1583.02</ele>
  <time>2026-08-28T17:49:35Z</time>
  <course>177.56</course>
  <speed>3.82632983418837</speed>
  <fix>3d</fix>
</trkpt>
<trkpt lat="40.0714669" lon="-105.2298911">
  <ele>1583.0</ele>
  <time>2026-08-28T17:49:35Z</time>
  <course>176.47</course>
  <speed>4.09</speed>
  <fix>3d</fix>
</trkpt>
<trkpt lat="40.0714552" lon="-105.2298903">
  <ele>1583.02</ele>
  <time>2026-08-28T17:49:35Z</time>
  <course>177.62</course>
  <speed>3.7059546678285202</speed>
  <fix>3d</fix>
</trkpt>
<trkpt lat="40.0714598" lon="-105.2298905">
  <ele>1583.0</ele>
  <time>2026-08-28T17:49:35Z</time>
  <course>176.58</course>
  <speed>3.87</speed>
  <fix>3d</fix>
</trkpt>
<trkpt lat="40.0714519" lon="-105.22989">
  <ele>1583.02</ele>
  <time>2026-08-28T17:49:35Z</time>
  <course>177.67</course>
  <speed>3.5855822400274127</speed>
  <fix>3d</fix>
</trkpt>
<trkpt lat="40.0714598" lon="-105.2298905">
  <ele>1583.0</ele>
  <time>2026-08-28T17:49:35Z</time>
  <course>176.58</course>
  <speed>3.87</speed>
  <fix>3d</fix>
</trkpt>
<trkpt lat="40.0714487" lon="-105.2298898">
  <ele>1583.02</ele>
  <time>2026-08-28T17:49:35Z</time>
  <course>177.72</course>
  <speed>3.465775526487542</speed>
  <fix>3d</fix>
</trkpt>
<trkpt lat="40.0714598" lon="-105.2298905">
  <ele>1583.0</ele>
  <time>2026-08-28T17:49:35Z</time>
  <course>176.58</course>
  <speed>3.87</speed>
  <fix>3d</fix>
</trkpt>
<trkpt lat="40.0714457" lon="-105.2298895">
  <ele>1583.02</ele>
  <time>2026-08-28T17:49:35Z</time>
  <course>177.76</course>
  <speed>3.3354160160315836</speed>
  <fix>3d</fix>
</trkpt>
<trkpt lat="40.071453" lon="-105.22989">
  <ele>1583.0</ele>
  <time>2026-08-28T17:49:35Z</time>
  <course>176.68</course>
  <speed>3.63</speed>
  <fix>3d</fix>
</trkpt>
<trkpt lat="40.0714427" lon="-105.2298893">
  <ele>1583.02</ele>
  <time>2026-08-28T17:49:35Z</time>
  <course>177.84</course>
  <speed>3.2150427679892535</speed>
  <fix>3d</fix>
</trkpt>
<trkpt lat="40.071453" lon="-105.22989">
  <ele>1583.0</ele>
  <time>2026-08-28T17:49:35Z</time>
  <course>176.68</course>
  <speed>3.63</speed>
  <fix>3d</fix>
</trkpt>
<trkpt lat="40.0714399" lon="-105.2298891">
  <ele>1583.02</ele>
  <time>2026-08-28T17:49:35Z</time>
  <course>177.92</course>
  <speed>3.084687990705057</speed>
  <fix>3d</fix>
</trkpt>
<trkpt lat="40.0714467" lon="-105.2298895">
  <ele>1583.0</ele>
  <time>2026-08-28T17:49:35Z</time>
  <course>176.79</course>
  <speed>3.39</speed>
  <fix>3d</fix>
</trkpt>
<trkpt lat="40.0714372" lon="-105.2298889">
  <ele>1583.03</ele>
  <time>2026-08-28T17:49:35Z</time>
  <course>178.0</course>
  <speed>2.964321170183825</speed>
  <fix>3d</fix>
</trkpt>
<trkpt lat="40.0714467" lon="-105.2298895">
  <ele>1583.0</ele>
  <time>2026-08-28T17:49:35Z</time>
  <course>176.79</course>
  <speed>3.39</speed>
  <fix>3d</fix>
</trkpt>
<trkpt lat="40.0714347" lon="-105.2298887">
  <ele>1583.03</ele>
  <time>2026-08-28T17:49:35Z</time>
  <course>178.08</course>
  <speed>2.843958508839396</speed>
  <fix>3d</fix>
</trkpt>
<trkpt lat="40.0714409" lon="-105.2298891">
  <ele>1583.0</ele>
  <time>2026-08-28T17:49:35Z</time>
  <course>176.93</course>
  <speed>3.14</speed>
  <fix>3d</fix>
</trkpt>
<trkpt lat="40.0714322" lon="-105.2298886">
  <ele>1583.03</ele>
  <time>2026-08-28T17:49:35Z</time>
  <course>178.16</course>
  <speed>2.72360055808483</speed>
  <fix>3d</fix>
</trkpt>
<trkpt lat="40.0714409" lon="-105.2298891">
  <ele>1583.0</ele>
  <time>2026-08-28T17:49:35Z</time>
  <course>176.93</course>
  <speed>3.14</speed>
  <fix>3d</fix>
</trkpt>
<trkpt lat="40.0714298" lon="-105.2298884">
  <ele>1583.03</ele>
  <time>2026-08-28T17:49:35Z</time>
  <course>178.24</course>
  <speed>2.603247971285102</speed>
  <fix>3d</fix>
</trkpt>
<trkpt lat="40.0714355" lon="-105.2298887">
  <ele>1583.0</ele>
  <time>2026-08-28T17:49:35Z</time>
  <course>177.09</course>
  <speed>2.91</speed>
  <fix>3d</fix>
</trkpt>
<trkpt lat="40.0714275" lon="-105.2298882">
  <ele>1583.03</ele>
  <time>2026-08-28T17:49:35Z</time>
  <course>178.31</course>
  <speed>2.482901528454159</speed>
  <fix>3d</fix>
</trkpt>
<trkpt lat="40.0714305" lon="-105.2298884">
  <ele>1583.0</ele>
  <time>2026-08-28T17:49:35Z</time>
  <course>177.24</course>
  <speed>2.67</speed>
  <fix>3d</fix>
</trkpt>
<trkpt lat="40.0714253" lon="-105.2298881">
  <ele>1583.03</ele>
  <time>2026-08-28T17:49:35Z</time>
  <course>178.38</course>
  <speed>2.37255136930689</speed>
  <fix>3d</fix>
</trkpt>
<trkpt lat="40.0714305" lon="-105.2298884">
  <ele>1583.0</ele>
  <time>2026-08-28T17:49:35Z</time>
  <course>177.24</course>
  <speed>2.67</speed>
  <fix>3d</fix>
</trkpt>
<trkpt lat="40.0714233" lon="-105.229888">
  <ele>1583.03</ele>
  <time>2026-08-28T17:49:35Z</time>
  <course>178.46</course>
  <speed>2.262211307548435</speed>
  <fix>3d</fix>
</trkpt>
<trkpt lat="40.0714258" lon="-105.2298881">
  <ele>1583.0</ele>
  <time>2026-08-28T17:49:35Z</time>
  <course>177.39</course>
  <speed>2.45</speed>
  <fix>3d</fix>
</trkpt>
<trkpt lat="40.0714212" lon="-105.2298879">
  <ele>1583.03</ele>
  <time>2026-08-28T17:49:35Z</time>
  <course>178.55</course>
  <speed>2.1523243250030886</speed>
  <fix>3d</fix>
</trkpt>
<trkpt lat="40.0714258" lon="-105.2298881">
  <ele>1583.0</ele>
  <time>2026-08-28T17:49:35Z</time>
  <course>177.39</course>
  <speed>2.45</speed>
  <fix>3d</fix>
</trkpt>
<trkpt lat="40.0714193" lon="-105.2298878">
  <ele>1583.03</ele>
  <time>2026-08-28T17:49:35Z</time>
  <course>178.64</course>
  <speed>2.0419843290289963</speed>
  <fix>3d</fix>
</trkpt>
<trkpt lat="40.0714217" lon="-105.2298879">
  <ele>1583.0</ele>
  <time>2026-08-28T17:49:35Z</time>
  <course>177.55</course>
  <speed>2.23</speed>
  <fix>3d</fix>
</trkpt>
<trkpt lat="40.0714175" lon="-105.2298877">
  <ele>1583.03</ele>
  <time>2026-08-28T17:49:35Z</time>
  <course>178.72</course>
  <speed>1.94164878389476</speed>
  <fix>3d</fix>
</trkpt>
<trkpt lat="40.0714217" lon="-105.2298879">
  <ele>1583.0</ele>
  <time>2026-08-28T17:49:35Z</time>
  <course>177.55</course>
  <speed>2.23</speed>
  <fix>3d</fix>
</trkpt>
<trkpt lat="40.0714158" lon="-105.2298876">
  <ele>1583.02</ele>
  <time>2026-08-28T17:49:35Z</time>
  <course>178.8</course>
  <speed>1.8413310403075271</speed>
  <fix>3d</fix>
</trkpt>
<trkpt lat="40.0714178" lon="-105.2298877">
  <ele>1583.0</ele>
  <time>2026-08-28T17:49:35Z</time>
  <course>177.73</course>
  <speed>2.02</speed>
  <fix>3d</fix>
</trkpt>
<trkpt lat="40.0714141" lon="-105.2298875">
  <ele>1583.02</ele>
  <time>2026-08-28T17:49:35Z</time>
  <course>178.77</course>
  <speed>1.7414074767268</speed>
  <fix>3d</fix>
</trkpt>
<trkpt lat="40.0714178" lon="-105.2298877">
  <ele>1583.0</ele>
  <time>2026-08-28T17:49:35Z</time>
  <course>177.73</course>
  <speed>2.02</speed>
  <fix>3d</fix>
</trkpt>
<trkpt lat="40.0714126" lon="-105.2298874">
  <ele>1583.02</ele>
  <time>2026-08-28T17:49:35Z</time>
  <course>178.52</course>
  <speed>1.6414932226482082</speed>
  <fix>3d</fix>
</trkpt>
<trkpt lat="40.0714143" lon="-105.2298875">
  <ele>1583.0</ele>
  <time>2026-08-28T17:49:35Z</time>
  <course>177.69</course>
  <speed>1.82</speed>
  <fix>3d</fix>
</trkpt>
<trkpt lat="40.0714111" lon="-105.2298873">
  <ele>1583.02</ele>
  <time>2026-08-28T17:49:35Z</time>
  <course>178.06</course>
  <speed>1.552063143045411</speed>
  <fix>3d</fix>
</trkpt>
<trkpt lat="40.0714143" lon="-105.2298875">
  <ele>1583.0</ele>
  <time>2026-08-28T17:49:35Z</time>
  <course>177.69</course>
  <speed>1.82</speed>
  <fix>3d</fix>
</trkpt>
<trkpt lat="40.0714097" lon="-105.2298872">
  <ele>1583.02</ele>
  <time>2026-08-28T17:49:35Z</time>
  <course>177.32</course>
  <speed>1.4627713423498563</speed>
  <fix>3d</fix>
</trkpt>
<trkpt lat="40.0714112" lon="-105.2298874">
  <ele>1583.0</ele>
  <time>2026-08-28T17:49:35Z</time>
  <course>176.98</course>
  <speed>1.64</speed>
  <fix>3d</fix>
</trkpt>
<trkpt lat="40.0714084" lon="-105.2298871">
  <ele>1583.02</ele>
  <time>2026-08-28T17:49:35Z</time>
  <course>176.32</course>
  <speed>1.3843771162512042</speed>
  <fix>3d</fix>
</trkpt>
<trkpt lat="40.0714112" lon="-105.2298874">
  <ele>1583.0</ele>
  <time>2026-08-28T17:49:35Z</time>
  <course>176.98</course>
  <speed>1.64</speed>
  <fix>3d</fix>
</trkpt>
<trkpt lat="40.0714071" lon="-105.2298869">
  <ele>1583.02</ele>
  <time>2026-08-28T17:49:35Z</time>
  <course>175.03</course>
  <speed>1.3075167302944921</speed>
  <fix>3d</fix>
</trkpt>
<trkpt lat="40.0714084" lon="-105.2298871">
  <ele>1583.0</ele>
  <time>2026-08-28T17:49:35Z</time>
  <course>175.25</course>
  <speed>1.47</speed>
  <fix>3d</fix>
</trkpt>
<trkpt lat="40.0714059" lon="-105.2298868">
  <ele>1583.02</ele>
  <time>2026-08-28T17:49:35Z</time>
  <course>173.45</course>
  <speed>1.2416923934694937</speed>
  <fix>3d</fix>
</trkpt>
<trkpt lat="40.0714084" lon="-105.2298871">
  <ele>1583.0</ele>
  <time>2026-08-28T17:49:35Z</time>
  <course>175.25</course>
  <speed>1.47</speed>
  <fix>3d</fix>
</trkpt>
<trkpt lat="40.0714048" lon="-105.2298865">
  <ele>1583.02</ele>
  <time>2026-08-28T17:49:35Z</time>
  <course>171.59</course>
  <speed>1.1869709347747317</speed>
  <fix>3d</fix>
</trkpt>
<trkpt lat="40.0714084" lon="-105.2298871">
  <ele>1583.0</ele>
  <time>2026-08-28T17:49:35Z</time>
  <course>175.25</course>
  <speed>1.47</speed>
  <fix>3d</fix>
</trkpt>
<trkpt lat="40.0714037" lon="-105.2298863">
  <ele>1583.03</ele>
  <time>2026-08-28T17:49:35Z</time>
  <course>169.48</course>
  <speed>1.1335784048754634</speed>
  <fix>3d</fix>
</trkpt>
<trkpt lat="40.0714059" lon="-105.2298868">
  <ele>1583.0</ele>
  <time>2026-08-28T17:49:35Z</time>
  <course>172.4</course>
  <speed>1.33</speed>
  <fix>3d</fix>
</trkpt>
<trkpt lat="40.0714027" lon="-105.229886">
  <ele>1583.03</ele>
  <time>2026-08-28T17:49:35Z</time>
  <course>167.15</course>
  <speed>1.0938464243210744</speed>
  <fix>3d</fix>
</trkpt>
<trkpt lat="40.0714059" lon="-105.2298868">
  <ele>1583.0</ele>
  <time>2026-08-28T17:49:35Z</time>
  <course>172.4</course>
  <speed>1.33</speed>
  <fix>3d</fix>
</trkpt>
<trkpt lat="40.0714017" lon="-105.2298856">
  <ele>1583.03</ele>
  <time>2026-08-28T17:49:35Z</time>
  <course>164.73</course>
  <speed>1.0660675400742676</speed>
  <fix>3d</fix>
</trkpt>
<trkpt lat="40.0714037" lon="-105.2298863">
  <ele>1583.0</ele>
  <time>2026-08-28T17:49:35Z</time>
  <course>168.45</course>
  <speed>1.22</speed>
  <fix>3d</fix>
</trkpt>
<trkpt lat="40.0714008" lon="-105.2298852">
  <ele>1583.03</ele>
  <time>2026-08-28T17:49:35Z</time>
  <course>162.33</course>
  <speed>1.050047617967871</speed>
  <fix>3d</fix>
</trkpt>
<trkpt lat="40.0714037" lon="-105.2298863">
  <ele>1583.0</ele>
  <time>2026-08-28T17:49:35Z</time>
  <course>168.45</course>
  <speed>1.22</speed>
  <fix>3d</fix>
</trkpt>
<trkpt lat="40.0713999" lon="-105.2298848">
  <ele>1583.03</ele>
  <time>2026-08-28T17:49:35Z</time>
  <course>159.93</course>
  <speed>1.04546640309481</speed>
  <fix>3d</fix>
</trkpt>
<trkpt lat="40.0714016" lon="-105.2298855">
  <ele>1583.0</ele>
  <time>2026-08-28T17:49:35Z</time>
  <course>163.77</course>
  <speed>1.15</speed>
  <fix>3d</fix>
</trkpt>
<trkpt lat="40.0713989" lon="-105.2298843">
  <ele>1583.03</ele>
  <time>2026-08-28T17:49:35Z</time>
  <course>157.55</course>
  <speed>1.0519030373565805</speed>
  <fix>3d</fix>
</trkpt>
<trkpt lat="40.0713997" lon="-105.2298847">
  <ele>1583.0</ele>
  <time>2026-08-28T17:49:35Z</time>
  <course>158.94</course>
  <speed>1.12</speed>
  <fix>3d</fix>
</trkpt>
<trkpt lat="40.071398" lon="-105.2298837">
  <ele>1583.03</ele>
  <time>2026-08-28T17:49:35Z</time>
  <course>155.21</course>
  <speed>1.064377752492037</speed>
  <fix>3d</fix>
</trkpt>
<trkpt lat="40.0713997" lon="-105.2298847">
  <ele>1583.0</ele>
  <time>2026-08-28T17:49:35Z</time>
  <course>158.94</course>
  <speed>1.12</speed>
  <fix>3d</fix>
</trkpt>
<trkpt lat="40.0713971" lon="-105.2298831">
  <ele>1583.03</ele>
  <time>2026-08-28T17:49:35Z</time>
  <course>152.91</course>
  <speed>1.0830050784737808</speed>
  <fix>3d</fix>
</trkpt>
<trkpt lat="40.0713978" lon="-105.2298836">
  <ele>1583.0</ele>
  <time>2026-08-28T17:49:35Z</time>
  <course>154.2</course>
  <speed>1.13</speed>
  <fix>3d</fix>
</trkpt>
<trkpt lat="40.0713962" lon="-105.2298824">
  <ele>1583.03</ele>
  <time>2026-08-28T17:49:35Z</time>
  <course>150.73</course>
  <speed>1.1078808600206071</speed>
  <fix>3d</fix>
</trkpt>
<trkpt lat="40.0713978" lon="-105.2298836">
  <ele>1583.0</ele>
  <time>2026-08-28T17:49:35Z</time>
  <course>154.2</course>
  <speed>1.13</speed>
  <fix>3d</fix>
</trkpt>
<trkpt lat="40.0713953" lon="-105.2298817">
  <ele>1583.03</ele>
  <time>2026-08-28T17:49:35Z</time>
  <course>148.76</course>
  <speed>1.1344161493913951</speed>
  <fix>3d</fix>
</trkpt>
<trkpt lat="40.0713959" lon="-105.2298823">
  <ele>1583.0</ele>
  <time>2026-08-28T17:49:35Z</time>
  <course>149.77</course>
  <speed>1.17</speed>
  <fix>3d</fix>
</trkpt>
<trkpt lat="40.0713944" lon="-105.2298809">
  <ele>1583.03</ele>
  <time>2026-08-28T17:49:35Z</time>
  <course>147.03</course>
  <speed>1.1706835610018618</speed>
  <fix>3d</fix>
</trkpt>
<trkpt lat="40.0713959" lon="-105.2298823">
  <ele>1583.0</ele>
  <time>2026-08-28T17:49:35Z</time>
  <course>149.77</course>
  <speed>1.17</speed>
  <fix>3d</fix>
</trkpt>
<trkpt lat="40.0713935" lon="-105.22988">
  <ele>1583.03</ele>
  <time>2026-08-28T17:49:35Z</time>
  <course>145.52</course>
  <speed>1.208014900570353</speed>
  <fix>3d</fix>
</trkpt>
<trkpt lat="40.0713942" lon="-105.2298808">
  <ele>1583.0</ele>
  <time>2026-08-28T17:49:35Z</time>
  <course>146.06</course>
  <speed>1.23</speed>
  <fix>3d</fix>
</trkpt>
<trkpt lat="40.0713925" lon="-105.2298791">
  <ele>1583.04</ele>
  <time>2026-08-28T17:49:35Z</time>
  <course>144.21</course>
  <speed>1.2480785231707179</speed>
  <fix>3d</fix>
</trkpt>
<trkpt lat="40.0713942" lon="-105.2298808">
  <ele>1583.0</ele>
  <time>2026-08-28T17:49:35Z</time>
  <course>146.06</course>
  <speed>1.23</speed>
  <fix>3d</fix>
</trkpt>
<trkpt lat="40.0713915" lon="-105.2298782">
  <ele>1583.04</ele>
  <time>2026-08-28T17:49:35Z</time>
  <course>143.12</course>
  <speed>1.2806248474865698</speed>
  <fix>3d</fix>
</trkpt>
<trkpt lat="40.0713923" lon="-105.2298792">
  <ele>1583.0</ele>
  <time>2026-08-28T17:49:35Z</time>
  <course>143.24</course>
  <speed>1.3</speed>
  <fix>3d</fix>
</trkpt>
<trkpt lat="40.0713906" lon="-105.2298772">
  <ele>1583.04</ele>
  <time>2026-08-28T17:49:35Z</time>
  <course>142.22</course>
  <speed>1.3213629327327143</speed>
  <fix>3d</fix>
</trkpt>
<trkpt lat="40.0713923" lon="-105.2298792">
  <ele>1583.0</ele>
  <time>2026-08-28T17:49:35Z</time>
  <course>143.24</course>
  <speed>1.3</speed>
  <fix>3d</fix>
</trkpt>
<trkpt lat="40.0713896" lon="-105.2298761">
  <ele>1583.04</ele>
  <time>2026-08-28T17:49:35Z</time>
  <course>141.5</course>
  <speed>1.3623509092741122</speed>
  <fix>3d</fix>
</trkpt>
<trkpt lat="40.0713904" lon="-105.2298772">
  <ele>1583.0</ele>
  <time>2026-08-28T17:49:35Z</time>
  <course>141.24</course>
  <speed>1.37</speed>
  <fix>3d</fix>
</trkpt>
<trkpt lat="40.0713886" lon="-105.229875">
  <ele>1583.04</ele>
  <time>2026-08-28T17:49:35Z</time>
  <course>140.98</course>
  <speed>1.3970325694127537</speed>
  <fix>3d</fix>
</trkpt>
<trkpt lat="40.0713904" lon="-105.2298772">
  <ele>1583.0</ele>
  <time>2026-08-28T17:49:35Z</time>
  <course>141.24</course>
  <speed>1.37</speed>
  <fix>3d</fix>
</trkpt>
<trkpt lat="40.0713876" lon="-105.2298739">
  <ele>1583.05</ele>
  <time>2026-08-28T17:49:35Z</time>
  <course>140.62</course>
  <speed>1.4252368224263643</speed>
  <fix>3d</fix>
</trkpt>
<trkpt lat="40.0713885" lon="-105.229875">
  <ele>1583.0</ele>
  <time>2026-08-28T17:49:35Z</time>
  <course>140.0</course>
  <speed>1.44</speed>
  <fix>3d</fix>
</trkpt>
<trkpt lat="40.0713865" lon="-105.2298727">
  <ele>1583.05</ele>
  <time>2026-08-28T17:49:35Z</time>
  <course>140.45</course>
  <speed>1.46102703602637</speed>
  <fix>3d</fix>
</trkpt>
<trkpt lat="40.0713885" lon="-105.229875">
  <ele>1583.0</ele>
  <time>2026-08-28T17:49:35Z</time>
  <course>140.0</course>
  <speed>1.44</speed>
  <fix>3d</fix>
</trkpt>
<trkpt lat="40.0713855" lon="-105.2298716">
  <ele>1583.05</ele>
  <time>2026-08-28T17:49:35Z</time>
  <course>140.44</course>
  <speed>1.4892279879185724</speed>
  <fix>3d</fix>
</trkpt>
<trkpt lat="40.0713885" lon="-105.229875">
  <ele>1583.0</ele>
  <time>2026-08-28T17:49:35Z</time>
  <course>140.0</course>
  <speed>1.44</speed>
  <fix>3d</fix>
</trkpt>
<trkpt lat="40.0713844" lon="-105.2298704">
  <ele>1583.05</ele>
  <time>2026-08-28T17:49:35Z</time>
  <course>140.44</course>
  <speed>1.5109268678529744</speed>
  <fix>3d</fix>
</trkpt>
<trkpt lat="40.0713864" lon="-105.2298728">
  <ele>1583.0</ele>
  <time>2026-08-28T17:49:35Z</time>
  <course>139.47</course>
  <speed>1.51</speed>
  <fix>3d</fix>
</trkpt>
<trkpt lat="40.0713833" lon="-105.2298692">
  <ele>1583.05</ele>
  <time>2026-08-28T17:49:35Z</time>
  <course>140.22</course>
  <speed>1.5315351775261317</speed>
  <fix>3d</fix>
</trkpt>
<trkpt lat="40.0713864" lon="-105.2298728">
  <ele>1583.0</ele>
  <time>2026-08-28T17:49:35Z</time>
  <course>139.47</course>
  <speed>1.51</speed>
  <fix>3d</fix>
</trkpt>
<trkpt lat="40.0713822" lon="-105.229868">
  <ele>1583.05</ele>
  <time>2026-08-28T17:49:35Z</time>
  <course>139.72</course>
  <speed>1.54466824917197</speed>
  <fix>3d</fix>
</trkpt>
<trkpt lat="40.0713843" lon="-105.2298704">
  <ele>1583.0</ele>
  <time>2026-08-28T17:49:35Z</time>
  <course>139.26</course>
  <speed>1.55</speed>
  <fix>3d</fix>
</trkpt>
<trkpt lat="40.0713811" lon="-105.2298667">
  <ele>1583.05</ele>
  <time>2026-08-28T17:49:35Z</time>
  <course>138.94</course>
  <speed>1.5579473675320359</speed>
  <fix>3d</fix>
</trkpt>
<trkpt lat="40.0713843" lon="-105.2298704">
  <ele>1583.0</ele>
  <time>2026-08-28T17:49:35Z</time>
  <course>139.26</course>
  <speed>1.55</speed>
  <fix>3d</fix>
</trkpt>
<trkpt lat="40.0713801" lon="-105.2298655">
  <ele>1583.05</ele>
  <time>2026-08-28T17:49:35Z</time>
  <course>138.66</course>
  <speed>1.4798986451781082</speed>
  <fix>3d</fix>
</trkpt>
<trkpt lat="40.0713822" lon="-105.229868">
  <ele>1583.0</ele>
  <time>2026-08-28T17:49:35Z</time>
  <course>138.5</course>
  <speed>1.59</speed>
  <fix>3d</fix>
</trkpt>
<trkpt lat="40.0713791" lon="-105.2298643">
  <ele>1583.06</ele>
  <time>2026-08-28T17:49:35Z</time>
  <course>138.68</course>
  <speed>1.4018559127100045</speed>
  <fix>3d</fix>
</trkpt>
<trkpt lat="40.0713822" lon="-105.229868">
  <ele>1583.0</ele>
  <time>2026-08-28T17:49:35Z</time>
  <course>138.5</course>
  <speed>1.59</speed>
  <fix>3d</fix>
</trkpt>
<trkpt lat="40.0713782" lon="-105.2298632">
  <ele>1583.06</ele>
  <time>2026-08-28T17:49:35Z</time>
  <course>138.63</course>
  <speed>1.3379461872586653</speed>
  <fix>3d</fix>
</trkpt>
<trkpt lat="40.0713801" lon="-105.2298656">
  <ele>1583.0</ele>
  <time>2026-08-28T17:49:35Z</time>
  <course>137.74</course>
  <speed>1.52</speed>
  <fix>3d</fix>
</trkpt>
<trkpt lat="40.0713773" lon="-105.2298622">
  <ele>1583.05</ele>
  <time>2026-08-28T17:49:35Z</time>
  <course>138.6</course>
  <speed>1.2673200069437869</speed>
  <fix>3d</fix>
</trkpt>
<trkpt lat="40.0713782" lon="-105.2298634">
  <ele>1583.0</ele>
  <time>2026-08-28T17:49:35Z</time>
  <course>137.57</course>
  <speed>1.38</speed>
  <fix>3d</fix>
</trkpt>
<trkpt lat="40.0713764" lon="-105.2298612">
  <ele>1583.05</ele>
  <time>2026-08-28T17:49:35Z</time>
  <course>138.57</course>
  <speed>1.2034118164618461</speed>
  <fix>3d</fix>
</trkpt>
<trkpt lat="40.0713782" lon="-105.2298634">
  <ele>1583.0</ele>
  <time>2026-08-28T17:49:35Z</time>
  <course>137.57</course>
  <speed>1.38</speed>
  <fix>3d</fix>
</trkpt>
<trkpt lat="40.0713756" lon="-105.2298602">
  <ele>1583.06</ele>
  <time>2026-08-28T17:49:35Z</time>
  <course>138.56</course>
  <speed>1.1469088891450794</speed>
  <fix>3d</fix>
</trkpt>
<trkpt lat="40.0713764" lon="-105.2298613">
  <ele>1583.0</ele>
  <time>2026-08-28T17:49:35Z</time>
  <course>137.51</course>
  <speed>1.25</speed>
  <fix>3d</fix>
</trkpt>
<trkpt lat="40.0713749" lon="-105.2298593">
  <ele>1583.06</ele>
  <time>2026-08-28T17:49:35Z</time>
  <course>138.53</course>
  <speed>1.0830050784737808</speed>
  <fix>3d</fix>
</trkpt>
<trkpt lat="40.0713764" lon="-105.2298613">
  <ele>1583.0</ele>
  <time>2026-08-28T17:49:35Z</time>
  <course>137.51</course>
  <speed>1.25</speed>
  <fix>3d</fix>
</trkpt>
<trkpt lat="40.0713741" lon="-105.2298585">
  <ele>1583.06</ele>
  <time>2026-08-28T17:49:35Z</time>
  <course>138.51</course>
  <speed>1.026498904042279</speed>
  <fix>3d</fix>
</trkpt>
<trkpt lat="40.0713748" lon="-105.2298594">
  <ele>1583.0</ele>
  <time>2026-08-28T17:49:35Z</time>
  <course>137.46</course>
  <speed>1.13</speed>
  <fix>3d</fix>
</trkpt>
<trkpt lat="40.0713734" lon="-105.2298577">
  <ele>1583.06</ele>
  <time>2026-08-28T17:49:35Z</time>
  <course>138.49</course>
  <speed>0.97</speed>
  <fix>3d</fix>
</trkpt>
<trkpt lat="40.0713748" lon="-105.2298594">
  <ele>1583.0</ele>
  <time>2026-08-28T17:49:35Z</time>
  <course>137.46</course>
  <speed>1.13</speed>
  <fix>3d</fix>
</trkpt>
<trkpt lat="40.0713728" lon="-105.2298569">
  <ele>1583.07</ele>
  <time>2026-08-28T17:49:35Z</time>
  <course>138.47</course>
  <speed>0.9276313923105448</speed>
  <fix>3d</fix>
</trkpt>
<trkpt lat="40.0713734" lon="-105.2298577">
  <ele>1583.0</ele>
  <time>2026-08-28T17:49:35Z</time>
  <course>137.42</course>
  <speed>1.02</speed>
  <fix>3d</fix>
</trkpt>
<trkpt lat="40.0713721" lon="-105.2298561">
  <ele>1583.07</ele>
  <time>2026-08-28T17:49:35Z</time>
  <course>138.45</course>
  <speed>0.8711486669908873</speed>
  <fix>3d</fix>
</trkpt>
<trkpt lat="40.0713734" lon="-105.2298577">
  <ele>1583.0</ele>
  <time>2026-08-28T17:49:35Z</time>
  <course>137.42</course>
  <speed>1.02</speed>
  <fix>3d</fix>
</trkpt>
<trkpt lat="40.0713715" lon="-105.2298554">
  <ele>1583.07</ele>
  <time>2026-08-28T17:49:35Z</time>
  <course>138.44</course>
  <speed>0.8287943049997388</speed>
  <fix>3d</fix>
</trkpt>
<trkpt lat="40.0713721" lon="-105.2298561">
  <ele>1583.0</ele>
  <time>2026-08-28T17:49:35Z</time>
  <course>137.39</course>
  <speed>0.92</speed>
  <fix>3d</fix>
</trkpt>
<trkpt lat="40.071371" lon="-105.2298548">
  <ele>1583.08</ele>
  <time>2026-08-28T17:49:35Z</time>
  <course>138.42</course>
  <speed>0.7864477096412705</speed>
  <fix>3d</fix>
</trkpt>
<trkpt lat="40.0713721" lon="-105.2298561">
  <ele>1583.0</ele>
  <time>2026-08-28T17:49:35Z</time>
  <course>137.39</course>
  <speed>0.92</speed>
  <fix>3d</fix>
</trkpt>
<trkpt lat="40.0713704" lon="-105.2298542">
  <ele>1583.08</ele>
  <time>2026-08-28T17:49:35Z</time>
  <course>138.41</course>
  <speed>0.7441102068914255</speed>
  <fix>3d</fix>
</trkpt>
<trkpt lat="40.0713709" lon="-105.2298547">
  <ele>1583.0</ele>
  <time>2026-08-28T17:49:35Z</time>
  <course>137.36</course>
  <speed>0.83</speed>
  <fix>3d</fix>
</trkpt>
<trkpt lat="40.0713699" lon="-105.2298535">
  <ele>1583.08</ele>
  <time>2026-08-28T17:49:35Z</time>
  <course>138.39</course>
  <speed>0.7083784299369935</speed>
  <fix>3d</fix>
</trkpt>
<trkpt lat="40.0713709" lon="-105.2298547">
  <ele>1583.0</ele>
  <time>2026-08-28T17:49:35Z</time>
  <course>137.36</course>
  <speed>0.83</speed>
  <fix>3d</fix>
</trkpt>
<trkpt lat="40.0713694" lon="-105.229853">
  <ele>1583.08</ele>
  <time>2026-08-28T17:49:35Z</time>
  <course>138.38</course>
  <speed>0.6660330322138686</speed>
  <fix>3d</fix>
</trkpt>
<trkpt lat="40.0713709" lon="-105.2298547">
  <ele>1583.0</ele>
  <time>2026-08-28T17:49:35Z</time>
  <course>137.36</course>
  <speed>0.83</speed>
  <fix>3d</fix>
</trkpt>
<trkpt lat="40.071369" lon="-105.2298524">
  <ele>1583.09</ele>
  <time>2026-08-28T17:49:35Z</time>
  <course>138.37</course>
  <speed>0.637808748764079</speed>
  <fix>3d</fix>
</trkpt>
<trkpt lat="40.0713698" lon="-105.2298534">
  <ele>1583.0</ele>
  <time>2026-08-28T17:49:35Z</time>
  <course>137.33</course>
  <speed>0.75</speed>
  <fix>3d</fix>
</trkpt>
<trkpt lat="40.0713685" lon="-105.2298519">
  <ele>1583.09</ele>
  <time>2026-08-28T17:49:35Z</time>
  <course>138.36</course>
  <speed>0.5954829972383763</speed>
  <fix>3d</fix>
</trkpt>
<trkpt lat="40.0713698" lon="-105.2298534">
  <ele>1583.0</ele>
  <time>2026-08-28T17:49:35Z</time>
  <course>137.33</course>
  <speed>0.75</speed>
  <fix>3d</fix>
</trkpt>
<trkpt lat="40.0713681" lon="-105.2298514">
  <ele>1583.09</ele>
  <time>2026-08-28T17:49:35Z</time>
  <course>138.35</course>
  <speed>0.5672741841473133</speed>
  <fix>3d</fix>
</trkpt>
<trkpt lat="40.0713689" lon="-105.2298522">
  <ele>1583.0</ele>
  <time>2026-08-28T17:49:35Z</time>
  <course>137.31</course>
  <speed>0.68</speed>
  <fix>3d</fix>
</trkpt>
<trkpt lat="40.0713677" lon="-105.229851">
  <ele>1583.08</ele>
  <time>2026-08-28T17:49:35Z</time>
  <course>138.34</course>
  <speed>0.5390732788777421</speed>
  <fix>3d</fix>
</trkpt>
<trkpt lat="40.0713689" lon="-105.2298522">
  <ele>1583.0</ele>
  <time>2026-08-28T17:49:35Z</time>
  <course>137.31</course>
  <speed>0.68</speed>
  <fix>3d</fix>
</trkpt>
<trkpt lat="40.0713673" lon="-105.2298505">
  <ele>1583.07</ele>
  <time>2026-08-28T17:49:35Z</time>
  <course>138.32</course>
  <speed>0.5108815909777921</speed>
  <fix>3d</fix>
</trkpt>
<trkpt lat="40.0713681" lon="-105.2298512">
  <ele>1583.0</ele>
  <time>2026-08-28T17:49:35Z</time>
  <course>137.29</course>
  <speed>0.62</speed>
  <fix>3d</fix>
</trkpt>
<trkpt lat="40.071367" lon="-105.2298501">
  <ele>1583.07</ele>
  <time>2026-08-28T17:49:35Z</time>
  <course>138.31</course>
  <speed>0.4827007354458868</speed>
  <fix>3d</fix>
</trkpt>
<trkpt lat="40.0713681" lon="-105.2298512">
  <ele>1583.0</ele>
  <time>2026-08-28T17:49:35Z</time>
  <course>137.29</course>
  <speed>0.62</speed>
  <fix>3d</fix>
</trkpt>
<trkpt lat="40.0713666" lon="-105.2298497">
  <ele>1583.06</ele>
  <time>2026-08-28T17:49:35Z</time>
  <course>138.3</course>
  <speed>0.45453272709454046</speed>
  <fix>3d</fix>
</trkpt>
<trkpt lat="40.0713673" lon="-105.2298503">
  <ele>1583.0</ele>
  <time>2026-08-28T17:49:35Z</time>
  <course>137.28</course>
  <speed>0.56</speed>
  <fix>3d</fix>
</trkpt>
<trkpt lat="40.0713663" lon="-105.2298493">
  <ele>1583.06</ele>
  <time>2026-08-28T17:49:35Z</time>
  <course>138.29</course>
  <speed>0.43278170016764805</speed>
  <fix>3d</fix>
</trkpt>
<trkpt lat="40.0713666" lon="-105.2298495">
  <ele>1583.0</ele>
  <time>2026-08-28T17:49:35Z</time>
  <course>137.26</course>
  <speed>0.5</speed>
  <fix>3d</fix>
</trkpt>
<trkpt lat="40.071366" lon="-105.229849">
  <ele>1583.05</ele>
  <time>2026-08-28T17:49:35Z</time>
  <course>138.28</course>
  <speed>0.41231056256176607</speed>
  <fix>3d</fix>
</trkpt>
<trkpt lat="40.0713666" lon="-105.2298495">
  <ele>1583.0</ele>
  <time>2026-08-28T17:49:35Z</time>
  <course>137.26</course>
  <speed>0.5</speed>
  <fix>3d</fix>
</trkpt>
<trkpt lat="40.0713657" lon="-105.2298486">
  <ele>1583.05</ele>
  <time>2026-08-28T17:49:35Z</time>
  <course>138.28</course>
  <speed>0.3905124837953327</speed>
  <fix>3d</fix>
</trkpt>
<trkpt lat="40.071366" lon="-105.2298486">
  <ele>1583.0</ele>
  <time>2026-08-28T17:49:35Z</time>
  <course>137.25</course>
  <speed>0.46</speed>
  <fix>3d</fix>
</trkpt>
<trkpt lat="40.0713654" lon="-105.2298483">
  <ele>1583.05</ele>
  <time>2026-08-28T17:49:35Z</time>
  <course>138.26</course>
  <speed>0.36235341863986875</speed>
  <fix>3d</fix>
</trkpt>
<trkpt lat="40.071366" lon="-105.2298486">
  <ele>1583.0</ele>
  <time>2026-08-28T17:49:35Z</time>
  <course>137.25</course>
  <speed>0.46</speed>
  <fix>3d</fix>
</trkpt>
<trkpt lat="40.0713652" lon="-105.229848">
  <ele>1583.05</ele>
  <time>2026-08-28T17:49:35Z</time>
  <course>138.26</course>
  <speed>0.34828149534535996</speed>
  <fix>3d</fix>
</trkpt>
<trkpt lat="40.0713654" lon="-105.229848">
  <ele>1583.0</ele>
  <time>2026-08-28T17:49:35Z</time>
  <course>137.24</course>
  <speed>0.41</speed>
  <fix>3d</fix>
</trkpt>
<trkpt lat="40.0713642" lon="-105.2298469">
  <ele>1583.05</ele>
  <time>2026-08-28T17:49:35Z</time>
  <course>138.22</course>
  <speed>0.2780287754891569</speed>
  <fix>3d</fix>
</trkpt>
<trkpt lat="40.0713643" lon="-105.2298467">
  <ele>1583.0</ele>
  <time>2026-08-28T17:49:35Z</time>
  <course>137.22</course>
  <speed>0.34</speed>
  <fix>3d</fix>
</trkpt>
<trkpt lat="40.0713636" lon="-105.2298462">
  <ele>1583.06</ele>
  <time>2026-08-28T17:49:35Z</time>
  <course>138.2</course>
  <speed>0.23600847442411893</speed>
  <fix>3d</fix>
</trkpt>
<trkpt lat="40.071364" lon="-105.2298462">
  <ele>1583.0</ele>
  <time>2026-08-28T17:49:35Z</time>
  <course>137.21</course>
  <speed>0.3</speed>
  <fix>3d</fix>
</trkpt>
<trkpt lat="40.0713634" lon="-105.229846">
  <ele>1583.06</ele>
  <time>2026-08-28T17:49:35Z</time>
  <course>138.19</course>
  <speed>0.2220360331117452</speed>
  <fix>3d</fix>
</trkpt>
<trkpt lat="40.0713636" lon="-105.2298457">
  <ele>1583.0</ele>
  <time>2026-08-28T17:49:35Z</time>
  <course>137.2</course>
  <speed>0.27</speed>
  <fix>3d</fix>
</trkpt>
<trkpt lat="40.0713633" lon="-105.2298457">
  <ele>1583.07</ele>
  <time>2026-08-28T17:49:35Z</time>
  <course>138.18</course>
  <speed>0.20808652046684814</speed>
  <fix>3d</fix>
</trkpt>
<trkpt lat="40.0713636" lon="-105.2298457">
  <ele>1583.0</ele>
  <time>2026-08-28T17:49:35Z</time>
  <course>137.2</course>
  <speed>0.27</speed>
  <fix>3d</fix>
</trkpt>
<trkpt lat="40.0713631" lon="-105.2298456">
  <ele>1583.07</ele>
  <time>2026-08-28T17:49:35Z</time>
  <course>138.17</course>
  <speed>0.194164878389476</speed>
  <fix>3d</fix>
</trkpt>
<trkpt lat="40.0713636" lon="-105.2298457">
  <ele>1583.0</ele>
  <time>2026-08-28T17:49:35Z</time>
  <course>137.2</course>
  <speed>0.27</speed>
  <fix>3d</fix>
</trkpt>
<trkpt lat="40.071363" lon="-105.2298454">
  <ele>1583.08</ele>
  <time>2026-08-28T17:49:35Z</time>
  <course>138.16</course>
  <speed>0.194164878389476</speed>
  <fix>3d</fix>
</trkpt>
<trkpt lat="40.0713632" lon="-105.2298453">
  <ele>1583.0</ele>
  <time>2026-08-28T17:49:35Z</time>
  <course>137.19</course>
  <speed>0.25</speed>
  <fix>3d</fix>
</trkpt>
<trkpt lat="40.0713627" lon="-105.229845">
  <ele>1583.08</ele>
  <time>2026-08-28T17:49:35Z</time>
  <course>138.15</course>
  <speed>0.1664331697709324</speed>
  <fix>3d</fix>
</trkpt>
<trkpt lat="40.0713629" lon="-105.229845">
  <ele>1583.0</ele>
  <time>2026-08-28T17:49:35Z</time>
  <course>137.18</course>
  <speed>0.22</speed>
  <fix>3d</fix>
</trkpt>
<trkpt lat="40.0713625" lon="-105.2298449">
  <ele>1583.08</ele>
  <time>2026-08-28T17:49:35Z</time>
  <course>138.14</course>
  <speed>0.15264337522473748</speed>
  <fix>3d</fix>
</trkpt>
<trkpt lat="40.0713629" lon="-105.229845">
  <ele>1583.0</ele>
  <time>2026-08-28T17:49:35Z</time>
  <course>137.18</course>
  <speed>0.22</speed>
  <fix>3d</fix>
</trkpt>
<trkpt lat="40.0713624" lon="-105.2298447">
  <ele>1583.09</ele>
  <time>2026-08-28T17:49:35Z</time>
  <course>138.14</course>
  <speed>0.15264337522473748</speed>
  <fix>3d</fix>
</trkpt>
<trkpt lat="40.0713626" lon="-105.2298446">
  <ele>1583.0</ele>
  <time>2026-08-28T17:49:35Z</time>
  <course>137.18</course>
  <speed>0.2</speed>
  <fix>3d</fix>
</trkpt>
<trkpt lat="40.0713623" lon="-105.2298446">
  <ele>1583.09</ele>
  <time>2026-08-28T17:49:35Z</time>
  <course>138.13</course>
  <speed>0.13892443989449804</speed>
  <fix>3d</fix>
</trkpt>
<trkpt lat="40.0713623" lon="-105.2298443">
  <ele>1583.0</ele>
  <time>2026-08-28T17:49:35Z</time>
  <course>137.17</course>
  <speed>0.18</speed>
  <fix>3d</fix>
</trkpt>
<trkpt lat="40.0713622" lon="-105.2298444">
  <ele>1583.09</ele>
  <time>2026-08-28T17:49:35Z</time>
  <course>138.12</course>
  <speed>0.13892443989449804</speed>
  <fix>3d</fix>
</trkpt>
<trkpt lat="40.0713623" lon="-105.2298443">
  <ele>1583.0</ele>
  <time>2026-08-28T17:49:35Z</time>
  <course>137.17</course>
  <speed>0.18</speed>
  <fix>3d</fix>
</trkpt>
<trkpt lat="40.071362" lon="-105.2298443">
  <ele>1583.09</ele>
  <time>2026-08-28T17:49:35Z</time>
  <course>138.12</course>
  <speed>0.12529964086141668</speed>
  <fix>3d</fix>
</trkpt>
<trkpt lat="40.0713621" lon="-105.229844">
  <ele>1583.0</ele>
  <time>2026-08-28T17:49:35Z</time>
  <course>137.16</course>
  <speed>0.16</speed>
  <fix>3d</fix>
</trkpt>
<trkpt lat="40.0713619" lon="-105.2298442">
  <ele>1583.09</ele>
  <time>2026-08-28T17:49:35Z</time>
  <course>138.11</course>
  <speed>0.12529964086141668</speed>
  <fix>3d</fix>
</trkpt>
<trkpt lat="40.0713621" lon="-105.229844">
  <ele>1583.0</ele>
  <time>2026-08-28T17:49:35Z</time>
  <course>137.16</course>
  <speed>0.16</speed>
  <fix>3d</fix>
</trkpt>
<trkpt lat="40.0713618" lon="-105.2298441">
  <ele>1583.09</ele>
  <time>2026-08-28T17:49:35Z</time>
  <course>138.11</course>
  <speed>0.1118033988749895</speed>
  <fix>3d</fix>
</trkpt>
<trkpt lat="40.0713619" lon="-105.2298438">
  <ele>1583.0</ele>
  <time>2026-08-28T17:49:35Z</time>
  <course>137.16</course>
  <speed>0.15</speed>
  <fix>3d</fix>
</trkpt>
<trkpt lat="40.0713617" lon="-105.229844">
  <ele>1583.1</ele>
  <time>2026-08-28T17:49:35Z</time>
  <course>138.11</course>
  <speed>0.1118033988749895</speed>
  <fix>3d</fix>
</trkpt>
<trkpt lat="40.0713619" lon="-105.2298438">
  <ele>1583.0</ele>
  <time>2026-08-28T17:49:35Z</time>
  <course>137.16</course>
  <speed>0.15</speed>
  <fix>3d</fix>
</trkpt>
<trkpt lat="40.0713617" lon="-105.2298439">
  <ele>1583.1</ele>
  <time>2026-08-28T17:49:35Z</time>
  <course>138.11</course>
  <speed>0.09848857801796104</speed>
  <fix>3d</fix>
</trkpt>
<trkpt lat="40.0713617" lon="-105.2298436">
  <ele>1583.0</ele>
  <time>2026-08-28T17:49:35Z</time>
  <course>137.16</course>
  <speed>0.13</speed>
  <fix>3d</fix>
</trkpt>
<trkpt lat="40.0713616" lon="-105.2298438">
  <ele>1583.1</ele>
  <time>2026-08-28T17:49:35Z</time>
  <course>138.1</course>
  <speed>0.09848857801796104</speed>
  <fix>3d</fix>
</trkpt>
<trkpt lat="40.0713617" lon="-105.2298436">
  <ele>1583.0</ele>
  <time>2026-08-28T17:49:35Z</time>
  <course>137.16</course>
  <speed>0.13</speed>
  <fix>3d</fix>
</trkpt>
<trkpt lat="40.0713615" lon="-105.2298437">
  <ele>1583.1</ele>
  <time>2026-08-28T17:49:35Z</time>
  <course>138.1</course>
  <speed>0.0854400374531753</speed>
  <fix>3d</fix>
</trkpt>
<trkpt lat="40.0713615" lon="-105.2298433">
  <ele>1583.0</ele>
  <time>2026-08-28T17:49:35Z</time>
  <course>137.16</course>
  <speed>0.12</speed>
  <fix>3d</fix>
</trkpt>
<trkpt lat="40.0713614" lon="-105.2298436">
  <ele>1583.1</ele>
  <time>2026-08-28T17:49:35Z</time>
  <course>138.1</course>
  <speed>0.0854400374531753</speed>
  <fix>3d</fix>
</trkpt>
<trkpt lat="40.0713615" lon="-105.2298433">
  <ele>1583.0</ele>
  <time>2026-08-28T17:49:35Z</time>
  <course>137.16</course>
  <speed>0.12</speed>
  <fix>3d</fix>
</trkpt>
<trkpt lat="40.0713613" lon="-105.2298435">
  <ele>1583.1</ele>
  <time>2026-08-28T17:49:35Z</time>
  <course>138.1</course>
  <speed>0.0854400374531753</speed>
  <fix>3d</fix>
</trkpt>
<trkpt lat="40.0713614" lon="-105.2298432">
  <ele>1583.0</ele>
  <time>2026-08-28T17:49:35Z</time>
  <course>137.17</course>
  <speed>0.11</speed>
  <fix>3d</fix>
</trkpt>
<trkpt lat="40.0713613" lon="-105.2298434">
  <ele>1583.09</ele>
  <time>2026-08-28T17:49:35Z</time>
  <course>138.09</course>
  <speed>0.07280109889280519</speed>
  <fix>3d</fix>
</trkpt>
<trkpt lat="40.0713614" lon="-105.2298432">
  <ele>1583.0</ele>
  <time>2026-08-28T17:49:35Z</time>
  <course>137.17</course>
  <speed>0.11</speed>
  <fix>3d</fix>
</trkpt>
<trkpt lat="40.0713612" lon="-105.2298433">
  <ele>1583.09</ele>
  <time>2026-08-28T17:49:35Z</time>
  <course>138.09</course>
  <speed>0.07280109889280519</speed>
  <fix>3d</fix>
</trkpt>
<trkpt lat="40.0713612" lon="-105.2298429">
  <ele>1583.0</ele>
  <time>2026-08-28T17:49:35Z</time>
  <course>137.17</course>
  <speed>0.1</speed>
  <fix>3d</fix>
</trkpt>
<trkpt lat="40.0713611" lon="-105.2298432">
  <ele>1583.08</ele>
  <time>2026-08-28T17:49:35Z</time>
  <course>138.09</course>
  <speed>0.07280109889280519</speed>
  <fix>3d</fix>
</trkpt>
<trkpt lat="40.0713612" lon="-105.2298429">
  <ele>1583.0</ele>
  <time>2026-08-28T17:49:35Z</time>
  <course>137.17</course>
  <speed>0.1</speed>
  <fix>3d</fix>
</trkpt>
<trkpt lat="40.0713611" lon="-105.2298432">
  <ele>1583.07</ele>
  <time>2026-08-28T17:49:35Z</time>
  <course>138.09</course>
  <speed>0.06082762530298219</speed>
  <fix>3d</fix>
</trkpt>
<trkpt lat="40.0713612" lon="-105.2298429">
  <ele>1583.0</ele>
  <time>2026-08-28T17:49:35Z</time>
  <course>137.17</course>
  <speed>0.1</speed>
  <fix>3d</fix>
</trkpt>
<trkpt lat="40.071361" lon="-105.2298431">
  <ele>1583.07</ele>
  <time>2026-08-28T17:49:35Z</time>
  <course>138.09</course>
  <speed>0.06082762530298219</speed>
  <fix>3d</fix>
</trkpt>
<trkpt lat="40.0713611" lon="-105.2298428">
  <ele>1583.0</ele>
  <time>2026-08-28T17:49:35Z</time>
  <course>137.17</course>
  <speed>0.09</speed>
  <fix>3d</fix>
</trkpt>
<trkpt lat="40.0713609" lon="-105.229843">
  <ele>1583.06</ele>
  <time>2026-08-28T17:49:35Z</time>
  <course>138.08</course>
  <speed>0.06082762530298219</speed>
  <fix>3d</fix>
</trkpt>
<trkpt lat="40.0713611" lon="-105.2298428">
  <ele>1583.0</ele>
  <time>2026-08-28T17:49:35Z</time>
  <course>137.17</course>
  <speed>0.09</speed>
  <fix>3d</fix>
</trkpt>
<trkpt lat="40.0713609" lon="-105.229843">
  <ele>1583.05</ele>
  <time>2026-08-28T17:49:35Z</time>
  <course>138.08</course>
  <speed>0.05099019513592785</speed>
  <fix>3d</fix>
</trkpt>
<trkpt lat="40.071361" lon="-105.2298427">
  <ele>1583.0</ele>
  <time>2026-08-28T17:49:35Z</time>
  <course>137.17</course>
  <speed>0.08</speed>
  <fix>3d</fix>
</trkpt>
<trkpt lat="40.0713608" lon="-105.2298429">
  <ele>1583.05</ele>
  <time>2026-08-28T17:49:35Z</time>
  <course>138.08</course>
  <speed>0.05</speed>
  <fix>3d</fix>
</trkpt>
<trkpt lat="40.071361" lon="-105.2298427">
  <ele>1583.0</ele>
  <time>2026-08-28T17:49:35Z</time>
  <course>137.17</course>
  <speed>0.08</speed>
  <fix>3d</fix>
</trkpt>
<trkpt lat="40.0713608" lon="-105.2298429">
  <ele>1583.04</ele>
  <time>2026-08-28T17:49:35Z</time>
  <course>138.08</course>
  <speed>0.05</speed>
  <fix>3d</fix>
</trkpt>
<trkpt lat="40.0713609" lon="-105.2298425">
  <ele>1583.0</ele>
  <time>2026-08-28T17:49:35Z</time>
  <course>137.18</course>
  <speed>0.07</speed>
  <fix>3d</fix>
</trkpt>
<trkpt lat="40.0713608" lon="-105.2298428">
  <ele>1583.03</ele>
  <time>2026-08-28T17:49:35Z</time>
  <course>138.07</course>
  <speed>0.05</speed>
  <fix>3d</fix>
</trkpt>
<trkpt lat="40.0713609" lon="-105.2298425">
  <ele>1583.0</ele>
  <time>2026-08-28T17:49:35Z</time>
  <course>137.18</course>
  <speed>0.07</speed>
  <fix>3d</fix>
</trkpt>
<trkpt lat="40.0713607" lon="-105.2298428">
  <ele>1583.03</ele>
  <time>2026-08-28T17:49:35Z</time>
  <course>138.07</course>
  <speed>0.04</speed>
  <fix>3d</fix>
</trkpt>
<trkpt lat="40.0713608" lon="-105.2298424">
  <ele>1583.0</ele>
  <time>2026-08-28T17:49:35Z</time>
  <course>137.18</course>
  <speed>0.06</speed>
  <fix>3d</fix>
</trkpt>
<trkpt lat="40.0713607" lon="-105.2298427">
  <ele>1583.03</ele>
  <time>2026-08-28T17:49:35Z</time>
  <course>138.07</course>
  <speed>0.04</speed>
  <fix>3d</fix>
</trkpt>
<trkpt lat="40.0713607" lon="-105.2298423">
  <ele>1583.0</ele>
  <time>2026-08-28T17:49:35Z</time>
  <course>137.18</course>
  <speed>0.06</speed>
  <fix>3d</fix>
</trkpt>
<trkpt lat="40.0713606" lon="-105.2298427">
  <ele>1583.03</ele>
  <time>2026-08-28T17:49:35Z</time>
  <course>138.07</course>
  <speed>0.04</speed>
  <fix>3d</fix>
</trkpt>
<trkpt lat="40.0713607" lon="-105.2298423">
  <ele>1583.0</ele>
  <time>2026-08-28T17:49:35Z</time>
  <course>137.18</course>
  <speed>0.06</speed>
  <fix>3d</fix>
</trkpt>
<trkpt lat="40.0713606" lon="-105.2298426">
  <ele>1583.03</ele>
  <time>2026-08-28T17:49:35Z</time>
  <course>138.07</course>
  <speed>0.04</speed>
  <fix>3d</fix>
</trkpt>
<trkpt lat="40.0713606" lon="-105.2298422">
  <ele>1583.0</ele>
  <time>2026-08-28T17:49:35Z</time>
  <course>137.19</course>
  <speed>0.05</speed>
  <fix>3d</fix>
</trkpt>
<trkpt lat="40.0713606" lon="-105.2298426">
  <ele>1583.04</ele>
  <time>2026-08-28T17:49:35Z</time>
  <course>138.07</course>
  <speed>0.04</speed>
  <fix>3d</fix>
</trkpt>
<trkpt lat="40.0713606" lon="-105.2298422">
  <ele>1583.0</ele>
  <time>2026-08-28T17:49:35Z</time>
  <course>137.19</course>
  <speed>0.05</speed>
  <fix>3d</fix>
</trkpt>
<trkpt lat="40.0713605" lon="-105.2298425">
  <ele>1583.04</ele>
  <time>2026-08-28T17:49:35Z</time>
  <course>138.06</course>
  <speed>0.03</speed>
  <fix>3d</fix>
</trkpt>
<trkpt lat="40.0713605" lon="-105.2298421">
  <ele>1583.0</ele>
  <time>2026-08-28T17:49:35Z</time>
  <course>137.19</course>
  <speed>0.05</speed>
  <fix>3d</fix>
</trkpt>
<trkpt lat="40.0713605" lon="-105.2298425">
  <ele>1583.04</ele>
  <time>2026-08-28T17:49:35Z</time>
  <course>138.06</course>
  <speed>0.03</speed>
  <fix>3d</fix>
</trkpt>
<trkpt lat="40.0713605" lon="-105.2298421">
  <ele>1583.0</ele>
  <time>2026-08-28T17:49:35Z</time>
  <course>137.19</course>
  <speed>0.05</speed>
  <fix>3d</fix>
</trkpt>
<trkpt lat="40.0713605" lon="-105.2298424">
  <ele>1583.04</ele>
  <time>2026-08-28T17:49:35Z</time>
  <course>138.06</course>
  <speed>0.03</speed>
  <fix>3d</fix>
</trkpt>
<trkpt lat="40.0713605" lon="-105.229842">
  <ele>1583.0</ele>
  <time>2026-08-28T17:49:35Z</time>
  <course>137.2</course>
  <speed>0.04</speed>
  <fix>3d</fix>
</trkpt>
<trkpt lat="40.0713604" lon="-105.2298424">
  <ele>1583.04</ele>
  <time>2026-08-28T17:49:35Z</time>
  <course>138.06</course>
  <speed>0.03</speed>
  <fix>3d</fix>
</trkpt>
<trkpt lat="40.0713605" lon="-105.229842">
  <ele>1583.0</ele>
  <time>2026-08-28T17:49:35Z</time>
  <course>137.2</course>
  <speed>0.04</speed>
  <fix>3d</fix>
</trkpt>
<trkpt lat="40.0713604" lon="-105.2298424">
  <ele>1583.04</ele>
  <time>2026-08-28T17:49:35Z</time>
  <course>138.06</course>
  <speed>0.03</speed>
  <fix>3d</fix>
</trkpt>
<trkpt lat="40.0713604" lon="-105.2298419">
  <ele>1583.0</ele>
  <time>2026-08-28T17:49:35Z</time>
  <course>137.2</course>
  <speed>0.04</speed>
  <fix>3d</fix>
</trkpt>
<trkpt lat="40.0713604" lon="-105.2298423">
  <ele>1583.04</ele>
  <time>2026-08-28T17:49:35Z</time>
  <course>138.05</course>
  <speed>0.03</speed>
  <fix>3d</fix>
</trkpt>
<trkpt lat="40.0713604" lon="-105.2298419">
  <ele>1583.0</ele>
  <time>2026-08-28T17:49:35Z</time>
  <course>137.2</course>
  <speed>0.04</speed>
  <fix>3d</fix>
</trkpt>
<trkpt lat="40.0713604" lon="-105.2298423">
  <ele>1583.05</ele>
  <time>2026-08-28T17:49:35Z</time>
  <course>138.05</course>
  <speed>0.03</speed>
  <fix>3d</fix>
</trkpt>
<trkpt lat="40.0713603" lon="-105.2298419">
  <ele>1583.0</ele>
  <time>2026-08-28T17:49:35Z</time>
  <course>137.21</course>
  <speed>0.03</speed>
  <fix>3d</fix>
</trkpt>
<trkpt lat="40.0713603" lon="-105.2298422">
  <ele>1583.05</ele>
  <time>2026-08-28T17:49:35Z</time>
  <course>138.05</course>
  <speed>0.022360679774997897</speed>
  <fix>3d</fix>
</trkpt>
<trkpt lat="40.0713603" lon="-105.2298419">
  <ele>1583.0</ele>
  <time>2026-08-28T17:49:35Z</time>
  <course>137.21</course>
  <speed>0.03</speed>
  <fix>3d</fix>
</trkpt>
<trkpt lat="40.0713603" lon="-105.2298422">
  <ele>1583.06</ele>
  <time>2026-08-28T17:49:35Z</time>
  <course>138.05</course>
  <speed>0.022360679774997897</speed>
  <fix>3d</fix>
</trkpt>
<trkpt lat="40.0713603" lon="-105.2298419">
  <ele>1583.0</ele>
  <time>2026-08-28T17:49:35Z</time>
  <course>137.21</course>
  <speed>0.03</speed>
  <fix>3d</fix>
</trkpt>
<trkpt lat="40.0713603" lon="-105.2298422">
  <ele>1583.06</ele>
  <time>2026-08-28T17:49:35Z</time>
  <course>138.05</course>
  <speed>0.022360679774997897</speed>
  <fix>3d</fix>
</trkpt>
<trkpt lat="40.0713603" lon="-105.2298419">
  <ele>1583.0</ele>
  <time>2026-08-28T17:49:35Z</time>
  <course>137.21</course>
  <speed>0.03</speed>
  <fix>3d</fix>
</trkpt>
<trkpt lat="40.0713603" lon="-105.2298422">
  <ele>1583.07</ele>
  <time>2026-08-28T17:49:35Z</time>
  <course>138.05</course>
  <speed>0.022360679774997897</speed>
  <fix>3d</fix>
</trkpt>
<trkpt lat="40.0713603" lon="-105.2298419">
  <ele>1583.0</ele>
  <time>2026-08-28T17:49:35Z</time>
  <course>137.21</course>
  <speed>0.03</speed>
  <fix>3d</fix>
</trkpt>
<trkpt lat="40.0713602" lon="-105.2298421">
  <ele>1583.07</ele>
  <time>2026-08-28T17:49:35Z</time>
  <course>138.05</course>
  <speed>0.022360679774997897</speed>
  <fix>3d</fix>
</trkpt>
<trkpt lat="40.0713602" lon="-105.2298418">
  <ele>1583.0</ele>
  <time>2026-08-28T17:49:35Z</time>
  <course>137.22</course>
  <speed>0.03</speed>
  <fix>3d</fix>
</trkpt>
<trkpt lat="40.0713602" lon="-105.2298421">
  <ele>1583.08</ele>
  <time>2026-08-28T17:49:35Z</time>
  <course>138.05</course>
  <speed>0.022360679774997897</speed>
  <fix>3d</fix>
</trkpt>
<trkpt lat="40.0713602" lon="-105.2298418">
  <ele>1583.0</ele>
  <time>2026-08-28T17:49:35Z</time>
  <course>137.22</course>
  <speed>0.03</speed>
  <fix>3d</fix>
</trkpt>
<trkpt lat="40.0713602" lon="-105.2298421">
  <ele>1583.09</ele>
  <time>2026-08-28T17:49:35Z</time>
  <course>138.04</course>
  <speed>0.022360679774997897</speed>
  <fix>3d</fix>
</trkpt>
<trkpt lat="40.0713602" lon="-105.2298417">
  <ele>1583.0</ele>
  <time>2026-08-28T17:49:35Z</time>
  <course>137.23</course>
  <speed>0.02</speed>
  <fix>3d</fix>
</trkpt>
<trkpt lat="40.0713602" lon="-105.2298421">
  <ele>1583.09</ele>
  <time>2026-08-28T17:49:35Z</time>
  <course>138.04</course>
  <speed>0.022360679774997897</speed>
  <fix>3d</fix>
</trkpt>
<trkpt lat="40.0713602" lon="-105.2298417">
  <ele>1583.0</ele>
  <time>2026-08-28T17:49:35Z</time>
  <course>137.23</course>
  <speed>0.02</speed>
  <fix>3d</fix>
</trkpt>
<trkpt lat="40.0713602" lon="-105.2298421">
  <ele>1583.1</ele>
  <time>2026-08-28T17:49:35Z</time>
  <course>138.04</course>
  <speed>0.022360679774997897</speed>
  <fix>3d</fix>
</trkpt>
<trkpt lat="40.0713602" lon="-105.2298417">
  <ele>1583.0</ele>
  <time>2026-08-28T17:49:35Z</time>
  <course>137.24</course>
  <speed>0.02</speed>
  <fix>3d</fix>
</trkpt>
<trkpt lat="40.0713601" lon="-105.229842">
  <ele>1583.1</ele>
  <time>2026-08-28T17:49:35Z</time>
  <course>138.04</course>
  <speed>0.022360679774997897</speed>
  <fix>3d</fix>
</trkpt>
<trkpt lat="40.0713602" lon="-105.2298417">
  <ele>1583.0</ele>
  <time>2026-08-28T17:49:35Z</time>
  <course>137.25</course>
  <speed>0.02</speed>
  <fix>3d</fix>
</trkpt>
<trkpt lat="40.0713601" lon="-105.229842">
  <ele>1583.1</ele>
  <time>2026-08-28T17:49:35Z</time>
  <course>138.04</course>
  <speed>0.01414213562373095</speed>
  <fix>3d</fix>
</trkpt>
<trkpt lat="40.0713602" lon="-105.2298417">
  <ele>1583.0</ele>
  <time>2026-08-28T17:49:35Z</time>
  <course>137.25</course>
  <speed>0.02</speed>
  <fix>3d</fix>
</trkpt>
<trkpt lat="40.0713601" lon="-105.229842">
  <ele>1583.1</ele>
  <time>2026-08-28T17:49:35Z</time>
  <course>138.04</course>
  <speed>0.01414213562373095</speed>
  <fix>3d</fix>
</trkpt>
<trkpt lat="40.0713602" lon="-105.2298417">
  <ele>1583.0</ele>
  <time>2026-08-28T17:49:35Z</time>
  <course>137.26</course>
  <speed>0.02</speed>
  <fix>3d</fix>
</trkpt>
<trkpt lat="40.0713601" lon="-105.229842">
  <ele>1583.1</ele>
  <time>2026-08-28T17:49:35Z</time>
  <course>138.04</course>
  <speed>0.01414213562373095</speed>
  <fix>3d</fix>
</trkpt>
<trkpt lat="40.0713602" lon="-105.2298417">
  <ele>1583.0</ele>
  <time>2026-08-28T17:49:35Z</time>
  <course>137.26</course>
  <speed>0.02</speed>
  <fix>3d</fix>
</trkpt>
<trkpt lat="40.0713601" lon="-105.229842">
  <ele>1583.11</ele>
  <time>2026-08-28T17:49:35Z</time>
  <course>138.04</course>
  <speed>0.01414213562373095</speed>
  <fix>3d</fix>
</trkpt>
<trkpt lat="40.0713601" lon="-105.2298416">
  <ele>1583.0</ele>
  <time>2026-08-28T17:49:35Z</time>
  <course>137.27</course>
  <speed>0.01</speed>
  <fix>3d</fix>
</trkpt>
<trkpt lat="40.0713601" lon="-105.2298419">
  <ele>1583.11</ele>
  <time>2026-08-28T17:49:35Z</time>
  <course>138.04</course>
  <speed>0.01414213562373095</speed>
  <fix>3d</fix>
</trkpt>
<trkpt lat="40.0713601" lon="-105.2298416">
  <ele>1583.0</ele>
  <time>2026-08-28T17:49:35Z</time>
  <course>137.27</course>
  <speed>0.01</speed>
  <fix>3d</fix>
</trkpt>
<trkpt lat="40.0713601" lon="-105.2298419">
  <ele>1583.11</ele>
  <time>2026-08-28T17:49:35Z</time>
  <course>138.03</course>
  <speed>0.01414213562373095</speed>
  <fix>3d</fix>
</trkpt>
<trkpt lat="40.0713601" lon="-105.2298416">
  <ele>1583.0</ele>
  <time>2026-08-28T17:49:35Z</time>
  <course>137.28</course>
  <speed>0.01</speed>
  <fix>3d</fix>
</trkpt>
<trkpt lat="40.0713601" lon="-105.2298419">
  <ele>1583.12</ele>
  <time>2026-08-28T17:49:35Z</time>
  <course>138.03</course>
  <speed>0.01414213562373095</speed>
  <fix>3d</fix>
</trkpt>
<trkpt lat="40.0713601" lon="-105.2298416">
  <ele>1583.0</ele>
  <time>2026-08-28T17:49:35Z</time>
  <course>137.28</course>
  <speed>0.01</speed>
  <fix>3d</fix>
</trkpt>
<trkpt lat="40.0713601" lon="-105.2298419">
  <ele>1583.12</ele>
  <time>2026-08-28T17:49:35Z</time>
  <course>138.03</course>
  <speed>0.01414213562373095</speed>
  <fix>3d</fix>
</trkpt>
<trkpt lat="40.0713601" lon="-105.2298416">
  <ele>1583.0</ele>
  <time>2026-08-28T17:49:35Z</time>
  <course>137.3</course>
  <speed>0.01</speed>
  <fix>3d</fix>
</trkpt>
<trkpt lat="40.0713601" lon="-105.2298419">
  <ele>1583.13</ele>
  <time>2026-08-28T17:49:35Z</time>
  <course>138.03</course>
  <speed>0.01414213562373095</speed>
  <fix>3d</fix>
</trkpt>
<trkpt lat="40.0713601" lon="-105.2298416">
  <ele>1583.0</ele>
  <time>2026-08-28T17:49:35Z</time>
  <course>137.3</course>
  <speed>0.01</speed>
  <fix>3d</fix>
</trkpt>
<trkpt lat="40.0713601" lon="-105.2298419">
  <ele>1583.13</ele>
  <time>2026-08-28T17:49:35Z</time>
  <course>138.03</course>
  <speed>0.022360679774997897</speed>
  <fix>3d</fix>
</trkpt>
<trkpt lat="40.0713601" lon="-105.2298416">
  <ele>1583.0</ele>
  <time>2026-08-28T17:49:35Z</time>
  <course>137.32</course>
  <speed>0.01</speed>
  <fix>3d</fix>
</trkpt>
<trkpt lat="40.0713601" lon="-105.2298419">
  <ele>1583.13</ele>
  <time>2026-08-28T17:49:35Z</time>
  <course>138.03</course>
  <speed>0.022360679774997897</speed>
  <fix>3d</fix>
</trkpt>
<trkpt lat="40.0713601" lon="-105.2298416">
  <ele>1583.0</ele>
  <time>2026-08-28T17:49:35Z</time>
  <course>137.32</course>
  <speed>0.01</speed>
  <fix>3d</fix>
</trkpt>
<trkpt lat="40.0713601" lon="-105.2298419">
  <ele>1583.14</ele>
  <time>2026-08-28T17:49:35Z</time>
  <course>138.03</course>
  <speed>0.02</speed>
  <fix>3d</fix>
</trkpt>
<trkpt lat="40.0713601" lon="-105.2298415">
  <ele>1583.0</ele>
  <time>2026-08-28T17:49:35Z</time>
  <course>137.33</course>
  <speed>0.01</speed>
  <fix>3d</fix>
</trkpt>
<trkpt lat="40.0713601" lon="-105.2298419">
  <ele>1583.14</ele>
  <time>2026-08-28T17:49:35Z</time>
  <course>138.05</course>
  <speed>0.02</speed>
  <fix>3d</fix>
</trkpt>
<trkpt lat="40.0713601" lon="-105.2298415">
  <ele>1583.0</ele>
  <time>2026-08-28T17:49:35Z</time>
  <course>137.33</course>
  <speed>0.01</speed>
  <fix>3d</fix>
</trkpt>
<trkpt lat="40.0713601" lon="-105.2298419">
  <ele>1583.15</ele>
  <time>2026-08-28T17:49:35Z</time>
  <course>138.07</course>
  <speed>0.02</speed>
  <fix>3d</fix>
</trkpt>
<trkpt lat="40.0713601" lon="-105.2298415">
  <ele>1583.0</ele>
  <time>2026-08-28T17:49:35Z</time>
  <course>137.33</course>
  <speed>0.01</speed>
  <fix>3d</fix>
</trkpt>
<trkpt lat="40.07136" lon="-105.2298418">
  <ele>1583.15</ele>
  <time>2026-08-28T17:49:35Z</time>
  <course>138.11</course>
  <speed>0.02</speed>
  <fix>3d</fix>
</trkpt>
<trkpt lat="40.07136" lon="-105.2298414">
  <ele>1583.0</ele>
  <time>2026-08-28T17:49:35Z</time>
  <course>137.37</course>
  <speed>0.01</speed>
  <fix>3d</fix>
</trkpt>
<trkpt lat="40.07136" lon="-105.2298418">
  <ele>1583.16</ele>
  <time>2026-08-28T17:49:35Z</time>
  <course>138.23</course>
  <speed>0.05099019513592785</speed>
  <fix>3d</fix>
</trkpt>
<trkpt lat="40.07136" lon="-105.2298414">
  <ele>1583.0</ele>
  <time>2026-08-28T17:49:35Z</time>
  <course>137.37</course>
  <speed>0.01</speed>
  <fix>3d</fix>
</trkpt>
<trkpt lat="40.07136" lon="-105.2298417">
  <ele>1583.16</ele>
  <time>2026-08-28T17:49:35Z</time>
  <course>138.43</course>
  <speed>0.08062257748298549</speed>
  <fix>3d</fix>
</trkpt>
<trkpt lat="40.07136" lon="-105.2298414">
  <ele>1583.0</ele>
  <time>2026-08-28T17:49:35Z</time>
  <course>137.38</course>
  <speed>0.03</speed>
  <fix>3d</fix>
</trkpt>
<trkpt lat="40.0713599" lon="-105.2298416">
  <ele>1583.17</ele>
  <time>2026-08-28T17:49:35Z</time>
  <course>138.72</course>
  <speed>0.11661903789690602</speed>
  <fix>3d</fix>
</trkpt>
<trkpt lat="40.07136" lon="-105.2298414">
  <ele>1583.0</ele>
  <time>2026-08-28T17:49:35Z</time>
  <course>137.38</course>
  <speed>0.03</speed>
  <fix>3d</fix>
</trkpt>
<trkpt lat="40.0713598" lon="-105.2298415">
  <ele>1583.17</ele>
  <time>2026-08-28T17:49:35Z</time>
  <course>139.09</course>
  <speed>0.14422205101855956</speed>
  <fix>3d</fix>
</trkpt>
<trkpt lat="40.0713599" lon="-105.2298414">
  <ele>1583.0</ele>
  <time>2026-08-28T17:49:35Z</time>
  <course>137.7</course>
  <speed>0.1</speed>
  <fix>3d</fix>
</trkpt>
<trkpt lat="40.0713596" lon="-105.2298413">
  <ele>1583.17</ele>
  <time>2026-08-28T17:49:35Z</time>
  <course>139.54</course>
  <speed>0.18027756377319945</speed>
  <fix>3d</fix>
</trkpt>
<trkpt lat="40.0713599" lon="-105.2298414">
  <ele>1583.0</ele>
  <time>2026-08-28T17:49:35Z</time>
  <course>137.7</course>
  <speed>0.1</speed>
  <fix>3d</fix>
</trkpt>
<trkpt lat="40.0713595" lon="-105.2298412">
  <ele>1583.17</ele>
  <time>2026-08-28T17:49:35Z</time>
  <course>140.07</course>
  <speed>0.20808652046684814</speed>
  <fix>3d</fix>
</trkpt>
<trkpt lat="40.0713597" lon="-105.2298411">
  <ele>1583.0</ele>
  <time>2026-08-28T17:49:35Z</time>
  <course>138.35</course>
  <speed>0.16</speed>
  <fix>3d</fix>
</trkpt>
<trkpt lat="40.0713593" lon="-105.229841">
  <ele>1583.16</ele>
  <time>2026-08-28T17:49:35Z</time>
  <course>140.65</course>
  <speed>0.23021728866442676</speed>
  <fix>3d</fix>
</trkpt>
<trkpt lat="40.0713594" lon="-105.2298408">
  <ele>1583.0</ele>
  <time>2026-08-28T17:49:35Z</time>
  <course>139.3</course>
  <speed>0.22</speed>
  <fix>3d</fix>
</trkpt>
<trkpt lat="40.0713591" lon="-105.2298408">
  <ele>1583.16</ele>
  <time>2026-08-28T17:49:35Z</time>
  <course>141.31</course>
  <speed>0.266270539113887</speed>
  <fix>3d</fix>
</trkpt>
<trkpt lat="40.0713594" lon="-105.2298408">
  <ele>1583.0</ele>
  <time>2026-08-28T17:49:35Z</time>
  <course>139.3</course>
  <speed>0.22</speed>
  <fix>3d</fix>
</trkpt>
<trkpt lat="40.0713589" lon="-105.2298405">
  <ele>1583.16</ele>
  <time>2026-08-28T17:49:35Z</time>
  <course>142.02</course>
  <speed>0.2884441020371191</speed>
  <fix>3d</fix>
</trkpt>
<trkpt lat="40.071359" lon="-105.2298405">
  <ele>1583.0</ele>
  <time>2026-08-28T17:49:35Z</time>
  <course>140.53</course>
  <speed>0.28</speed>
  <fix>3d</fix>
</trkpt>
<trkpt lat="40.0713587" lon="-105.2298403">
  <ele>1583.16</ele>
  <time>2026-08-28T17:49:35Z</time>
  <course>142.79</course>
  <speed>0.31064449134018135</speed>
  <fix>3d</fix>
</trkpt>
<trkpt lat="40.071359" lon="-105.2298405">
  <ele>1583.0</ele>
  <time>2026-08-28T17:49:35Z</time>
  <course>140.53</course>
  <speed>0.28</speed>
  <fix>3d</fix>
</trkpt>
<trkpt lat="40.0713584" lon="-105.22984">
  <ele>1583.16</ele>
  <time>2026-08-28T17:49:35Z</time>
  <course>143.63</course>
  <speed>0.3328663395418648</speed>
  <fix>3d</fix>
</trkpt>
<trkpt lat="40.0713587" lon="-105.22984">
  <ele>1583.0</ele>
  <time>2026-08-28T17:49:35Z</time>
  <course>142.02</course>
  <speed>0.33</speed>
  <fix>3d</fix>
</trkpt>
<trkpt lat="40.0713581" lon="-105.2298398">
  <ele>1583.17</ele>
  <time>2026-08-28T17:49:35Z</time>
  <course>144.51</course>
  <speed>0.36359317925395684</speed>
  <fix>3d</fix>
</trkpt>
<trkpt lat="40.0713587" lon="-105.22984">
  <ele>1583.0</ele>
  <time>2026-08-28T17:49:35Z</time>
  <course>142.02</course>
  <speed>0.33</speed>
  <fix>3d</fix>
</trkpt>
<trkpt lat="40.0713578" lon="-105.2298395">
  <ele>1583.17</ele>
  <time>2026-08-28T17:49:35Z</time>
  <course>145.46</course>
  <speed>0.3858756276314948</speed>
  <fix>3d</fix>
</trkpt>
<trkpt lat="40.0713581" lon="-105.2298395">
  <ele>1583.0</ele>
  <time>2026-08-28T17:49:35Z</time>
  <course>143.73</course>
  <speed>0.37</speed>
  <fix>3d</fix>
</trkpt>
<trkpt lat="40.0713575" lon="-105.2298392">
  <ele>1583.17</ele>
  <time>2026-08-28T17:49:35Z</time>
  <course>146.44</course>
  <speed>0.40311288741492746</speed>
  <fix>3d</fix>
</trkpt>
<trkpt lat="40.0713581" lon="-105.2298395">
  <ele>1583.0</ele>
  <time>2026-08-28T17:49:35Z</time>
  <course>143.73</course>
  <speed>0.37</speed>
  <fix>3d</fix>
</trkpt>
<trkpt lat="40.0713572" lon="-105.2298389">
  <ele>1583.17</ele>
  <time>2026-08-28T17:49:35Z</time>
  <course>147.48</course>
  <speed>0.425440947723653</speed>
  <fix>3d</fix>
</trkpt>
<trkpt lat="40.0713576" lon="-105.229839">
  <ele>1583.0</ele>
  <time>2026-08-28T17:49:35Z</time>
  <course>145.65</course>
  <speed>0.41</speed>
  <fix>3d</fix>
</trkpt>
<trkpt lat="40.0713568" lon="-105.2298386">
  <ele>1583.17</ele>
  <time>2026-08-28T17:49:35Z</time>
  <course>148.55</course>
  <speed>0.442944691807002</speed>
  <fix>3d</fix>
</trkpt>
<trkpt lat="40.0713576" lon="-105.229839">
  <ele>1583.0</ele>
  <time>2026-08-28T17:49:35Z</time>
  <course>145.65</course>
  <speed>0.41</speed>
  <fix>3d</fix>
</trkpt>
<trkpt lat="40.0713565" lon="-105.2298384">
  <ele>1583.18</ele>
  <time>2026-08-28T17:49:35Z</time>
  <course>149.67</course>
  <speed>0.4606517122512408</speed>
  <fix>3d</fix>
</trkpt>
<trkpt lat="40.0713569" lon="-105.2298384">
  <ele>1583.0</ele>
  <time>2026-08-28T17:49:35Z</time>
  <course>147.75</course>
  <speed>0.45</speed>
  <fix>3d</fix>
</trkpt>
<trkpt lat="40.0713561" lon="-105.2298381">
  <ele>1583.18</ele>
  <time>2026-08-28T17:49:35Z</time>
  <course>150.83</course>
  <speed>0.4695742752749558</speed>
  <fix>3d</fix>
</trkpt>
<trkpt lat="40.0713569" lon="-105.2298384">
  <ele>1583.0</ele>
  <time>2026-08-28T17:49:35Z</time>
  <course>147.75</course>
  <speed>0.45</speed>
  <fix>3d</fix>
</trkpt>
<trkpt lat="40.0713557" lon="-105.2298378">
  <ele>1583.17</ele>
  <time>2026-08-28T17:49:35Z</time>
  <course>152.03</course>
  <speed>0.4875448697299562</speed>
  <fix>3d</fix>
</trkpt>
<trkpt lat="40.0713561" lon="-105.2298378">
  <ele>1583.0</ele>
  <time>2026-08-28T17:49:35Z</time>
  <course>150.03</course>
  <speed>0.48</speed>
  <fix>3d</fix>
</trkpt>
<trkpt lat="40.0713553" lon="-105.2298375">
  <ele>1583.17</ele>
  <time>2026-08-28T17:49:35Z</time>
  <course>153.26</course>
  <speed>0.5056678751908212</speed>
  <fix>3d</fix>
</trkpt>
<trkpt lat="40.0713561" lon="-105.2298378">
  <ele>1583.0</ele>
  <time>2026-08-28T17:49:35Z</time>
  <course>150.03</course>
  <speed>0.48</speed>
  <fix>3d</fix>
</trkpt>
<trkpt lat="40.0713549" lon="-105.2298372">
  <ele>1583.17</ele>
  <time>2026-08-28T17:49:35Z</time>
  <course>154.52</course>
  <speed>0.52</speed>
  <fix>3d</fix>
</trkpt>
<trkpt lat="40.0713561" lon="-105.2298378">
  <ele>1583.0</ele>
  <time>2026-08-28T17:49:35Z</time>
  <course>150.03</course>
  <speed>0.48</speed>
  <fix>3d</fix>
</trkpt>
<trkpt lat="40.0713544" lon="-105.2298369">
  <ele>1583.17</ele>
  <time>2026-08-28T17:49:35Z</time>
  <course>155.82</course>
  <speed>0.5385164807134504</speed>
  <fix>3d</fix>
</trkpt>
<trkpt lat="40.0713554" lon="-105.2298372">
  <ele>1583.0</ele>
  <time>2026-08-28T17:49:35Z</time>
  <course>152.46</course>
  <speed>0.51</speed>
  <fix>3d</fix>
</trkpt>
<trkpt lat="40.071354" lon="-105.2298367">
  <ele>1583.17</ele>
  <time>2026-08-28T17:49:35Z</time>
  <course>157.15</course>
  <speed>0.5442425929675111</speed>
  <fix>3d</fix>
</trkpt>
<trkpt lat="40.0713554" lon="-105.2298372">
  <ele>1583.0</ele>
  <time>2026-08-28T17:49:35Z</time>
  <course>152.46</course>
  <speed>0.51</speed>
  <fix>3d</fix>
</trkpt>
<trkpt lat="40.0713535" lon="-105.2298364">
  <ele>1583.18</ele>
  <time>2026-08-28T17:49:35Z</time>
  <course>158.51</course>
  <speed>0.5597320787662612</speed>
  <fix>3d</fix>
</trkpt>
<trkpt lat="40.0713545" lon="-105.2298367">
  <ele>1583.0</ele>
  <time>2026-08-28T17:49:35Z</time>
  <course>155.02</course>
  <speed>0.54</speed>
  <fix>3d</fix>
</trkpt>
<trkpt lat="40.071353" lon="-105.2298362">
  <ele>1583.18</ele>
  <time>2026-08-28T17:49:35Z</time>
  <course>159.9</course>
  <speed>0.5661271941887265</speed>
  <fix>3d</fix>
</trkpt>
<trkpt lat="40.0713545" lon="-105.2298367">
  <ele>1583.0</ele>
  <time>2026-08-28T17:49:35Z</time>
  <course>155.02</course>
  <speed>0.54</speed>
  <fix>3d</fix>
</trkpt>
<trkpt lat="40.0713525" lon="-105.2298359">
  <ele>1583.18</ele>
  <time>2026-08-28T17:49:35Z</time>
  <course>161.31</course>
  <speed>0.5852349955359812</speed>
  <fix>3d</fix>
</trkpt>
<trkpt lat="40.0713536" lon="-105.2298362">
  <ele>1583.0</ele>
  <time>2026-08-28T17:49:35Z</time>
  <course>157.71</course>
  <speed>0.56</speed>
  <fix>3d</fix>
</trkpt>
<trkpt lat="40.071352" lon="-105.2298357">
  <ele>1583.18</ele>
  <time>2026-08-28T17:49:35Z</time>
  <course>162.76</course>
  <speed>0.5894064811316551</speed>
  <fix>3d</fix>
</trkpt>
<trkpt lat="40.0713527" lon="-105.2298357">
  <ele>1583.0</ele>
  <time>2026-08-28T17:49:35Z</time>
  <course>160.51</course>
  <speed>0.58</speed>
  <fix>3d</fix>
</trkpt>
<trkpt lat="40.0713515" lon="-105.2298355">
  <ele>1583.19</ele>
  <time>2026-08-28T17:49:35Z</time>
  <course>164.22</course>
  <speed>0.6063827174318213</speed>
  <fix>3d</fix>
</trkpt>
<trkpt lat="40.0713527" lon="-105.2298357">
  <ele>1583.0</ele>
  <time>2026-08-28T17:49:35Z</time>
  <course>160.51</course>
  <speed>0.58</speed>
  <fix>3d</fix>
</trkpt>
<trkpt lat="40.071351" lon="-105.2298353">
  <ele>1583.19</ele>
  <time>2026-08-28T17:49:35Z</time>
  <course>165.71</course>
  <speed>0.6139218191268331</speed>
  <fix>3d</fix>
</trkpt>
<trkpt lat="40.0713516" lon="-105.2298352">
  <ele>1583.0</ele>
  <time>2026-08-28T17:49:35Z</time>
  <course>163.41</course>
  <speed>0.6</speed>
  <fix>3d</fix>
</trkpt>
<trkpt lat="40.0713504" lon="-105.2298351">
  <ele>1583.19</ele>
  <time>2026-08-28T17:49:35Z</time>
  <course>167.21</course>
  <speed>0.6216912416947821</speed>
  <fix>3d</fix>
</trkpt>
<trkpt lat="40.0713516" lon="-105.2298352">
  <ele>1583.0</ele>
  <time>2026-08-28T17:49:35Z</time>
  <course>163.41</course>
  <speed>0.6</speed>
  <fix>3d</fix>
</trkpt>
<trkpt lat="40.0713499" lon="-105.229835">
  <ele>1583.19</ele>
  <time>2026-08-28T17:49:35Z</time>
  <course>168.74</course>
  <speed>0.6280127387243033</speed>
  <fix>3d</fix>
</trkpt>
<trkpt lat="40.0713505" lon="-105.2298348">
  <ele>1583.0</ele>
  <time>2026-08-28T17:49:35Z</time>
  <course>166.41</course>
  <speed>0.62</speed>
  <fix>3d</fix>
</trkpt>
<trkpt lat="40.0713493" lon="-105.2298348">
  <ele>1583.19</ele>
  <time>2026-08-28T17:49:35Z</time>
  <course>170.28</course>
  <speed>0.6363961030678928</speed>
  <fix>3d</fix>
</trkpt>
<trkpt lat="40.0713505" lon="-105.2298348">
  <ele>1583.0</ele>
  <time>2026-08-28T17:49:35Z</time>
  <course>166.41</course>
  <speed>0.62</speed>
  <fix>3d</fix>
</trkpt>
<trkpt lat="40.0713487" lon="-105.2298347">
  <ele>1583.19</ele>
  <time>2026-08-28T17:49:35Z</time>
  <course>171.85</course>
  <speed>0.6438167441127949</speed>
  <fix>3d</fix>
</trkpt>
<trkpt lat="40.0713494" lon="-105.2298346">
  <ele>1583.0</ele>
  <time>2026-08-28T17:49:35Z</time>
  <course>169.49</course>
  <speed>0.64</speed>
  <fix>3d</fix>
</trkpt>
<trkpt lat="40.0713481" lon="-105.2298346">
  <ele>1583.2</ele>
  <time>2026-08-28T17:49:35Z</time>
  <course>173.45</course>
  <speed>0.6519202405202649</speed>
  <fix>3d</fix>
</trkpt>
<trkpt lat="40.0713494" lon="-105.2298346">
  <ele>1583.0</ele>
  <time>2026-08-28T17:49:35Z</time>
  <course>169.49</course>
  <speed>0.64</speed>
  <fix>3d</fix>
</trkpt>
<trkpt lat="40.0713475" lon="-105.2298345">
  <ele>1583.2</ele>
  <time>2026-08-28T17:49:35Z</time>
  <course>175.05</course>
  <speed>0.6606814663663572</speed>
  <fix>3d</fix>
</trkpt>
<trkpt lat="40.0713482" lon="-105.2298343">
  <ele>1583.0</ele>
  <time>2026-08-28T17:49:35Z</time>
  <course>172.64</course>
  <speed>0.65</speed>
  <fix>3d</fix>
</trkpt>
<trkpt lat="40.0713469" lon="-105.2298344">
  <ele>1583.2</ele>
  <time>2026-08-28T17:49:35Z</time>
  <course>176.67</course>
  <speed>0.6702984409947557</speed>
  <fix>3d</fix>
</trkpt>
<trkpt lat="40.0713482" lon="-105.2298343">
  <ele>1583.0</ele>
  <time>2026-08-28T17:49:35Z</time>
  <course>172.64</course>
  <speed>0.65</speed>
  <fix>3d</fix>
</trkpt>
<trkpt lat="40.0713463" lon="-105.2298344">
  <ele>1583.2</ele>
  <time>2026-08-28T17:49:35Z</time>
  <course>178.31</course>
  <speed>0.68</speed>
  <fix>3d</fix>
</trkpt>
<trkpt lat="40.071347" lon="-105.2298342">
  <ele>1583.0</ele>
  <time>2026-08-28T17:49:35Z</time>
  <course>175.86</course>
  <speed>0.67</speed>
  <fix>3d</fix>
</trkpt>
<trkpt lat="40.0713457" lon="-105.2298344">
  <ele>1583.2</ele>
  <time>2026-08-28T17:49:35Z</time>
  <course>179.96</course>
  <speed>0.6800735254367721</speed>
  <fix>3d</fix>
</trkpt>
<trkpt lat="40.071347" lon="-105.2298342">
  <ele>1583.0</ele>
  <time>2026-08-28T17:49:35Z</time>
  <course>175.86</course>
  <speed>0.67</speed>
  <fix>3d</fix>
</trkpt>
<trkpt lat="40.071345" lon="-105.2298344">
  <ele>1583.21</ele>
  <time>2026-08-28T17:49:35Z</time>
  <course>181.63</course>
  <speed>0.6906518659932803</speed>
  <fix>3d</fix>
</trkpt>
<trkpt lat="40.0713459" lon="-105.229834">
  <ele>1583.0</ele>
  <time>2026-08-28T17:49:35Z</time>
  <course>179.15</course>
  <speed>0.68</speed>
  <fix>3d</fix>
</trkpt>
<trkpt lat="40.0713444" lon="-105.2298344">
  <ele>1583.21</ele>
  <time>2026-08-28T17:49:35Z</time>
  <course>183.31</course>
  <speed>0.691809222257119</speed>
  <fix>3d</fix>
</trkpt>
<trkpt lat="40.0713459" lon="-105.229834">
  <ele>1583.0</ele>
  <time>2026-08-28T17:49:35Z</time>
  <course>179.15</course>
  <speed>0.68</speed>
  <fix>3d</fix>
</trkpt>
<trkpt lat="40.0713438" lon="-105.2298345">
  <ele>1583.21</ele>
  <time>2026-08-28T17:49:35Z</time>
  <course>185.0</course>
  <speed>0.7045565981523414</speed>
  <fix>3d</fix>
</trkpt>
<trkpt lat="40.0713459" lon="-105.229834">
  <ele>1583.0</ele>
  <time>2026-08-28T17:49:35Z</time>
  <course>179.15</course>
  <speed>0.68</speed>
  <fix>3d</fix>
</trkpt>
<trkpt lat="40.0713432" lon="-105.2298344">
  <ele>1583.21</ele>
  <time>2026-08-28T17:49:35Z</time>
  <course>186.7</course>
  <speed>0.7071067811865476</speed>
  <fix>3d</fix>
</trkpt>
<trkpt lat="40.0713446" lon="-105.2298341">
  <ele>1583.0</ele>
  <time>2026-08-28T17:49:35Z</time>
  <course>182.49</course>
  <speed>0.69</speed>
  <fix>3d</fix>
</trkpt>
<trkpt lat="40.0713425" lon="-105.2298345">
  <ele>1583.21</ele>
  <time>2026-08-28T17:49:35Z</time>
  <course>188.41</course>
  <speed>0.7102112361825881</speed>
  <fix>3d</fix>
</trkpt>
<trkpt lat="40.0713446" lon="-105.2298341">
  <ele>1583.0</ele>
  <time>2026-08-28T17:49:35Z</time>
  <course>182.49</course>
  <speed>0.69</speed>
  <fix>3d</fix>
</trkpt>
<trkpt lat="40.0713419" lon="-105.2298347">
  <ele>1583.21</ele>
  <time>2026-08-28T17:49:35Z</time>
  <course>190.13</course>
  <speed>0.71386273190299</speed>
  <fix>3d</fix>
</trkpt>
<trkpt lat="40.0713433" lon="-105.2298342">
  <ele>1583.0</ele>
  <time>2026-08-28T17:49:35Z</time>
  <course>185.89</course>
  <speed>0.7</speed>
  <fix>3d</fix>
</trkpt>
<trkpt lat="40.0713413" lon="-105.2298348">
  <ele>1583.21</ele>
  <time>2026-08-28T17:49:35Z</time>
  <course>191.87</course>
  <speed>0.7180529228406496</speed>
  <fix>3d</fix>
</trkpt>
<trkpt lat="40.0713433" lon="-105.2298342">
  <ele>1583.0</ele>
  <time>2026-08-28T17:49:35Z</time>
  <course>185.89</course>
  <speed>0.7</speed>
  <fix>3d</fix>
</trkpt>
<trkpt lat="40.0713407" lon="-105.229835">
  <ele>1583.22</ele>
  <time>2026-08-28T17:49:35Z</time>
  <course>193.61</course>
  <speed>0.7227724399837061</speed>
  <fix>3d</fix>
</trkpt>
<trkpt lat="40.0713421" lon="-105.2298343">
  <ele>1583.0</ele>
  <time>2026-08-28T17:49:35Z</time>
  <course>189.33</course>
  <speed>0.71</speed>
  <fix>3d</fix>
</trkpt>
<trkpt lat="40.07134" lon="-105.2298352">
  <ele>1583.22</ele>
  <time>2026-08-28T17:49:35Z</time>
  <course>195.38</course>
  <speed>0.7212489168102785</speed>
  <fix>3d</fix>
</trkpt>
<trkpt lat="40.0713408" lon="-105.2298347">
  <ele>1583.0</ele>
  <time>2026-08-28T17:49:35Z</time>
  <course>192.81</course>
  <speed>0.72</speed>
  <fix>3d</fix>
</trkpt>
<trkpt lat="40.0713394" lon="-105.2298354">
  <ele>1583.22</ele>
  <time>2026-08-28T17:49:35Z</time>
  <course>197.14</course>
  <speed>0.7273238618387272</speed>
  <fix>3d</fix>
</trkpt>
<trkpt lat="40.0713408" lon="-105.2298347">
  <ele>1583.0</ele>
  <time>2026-08-28T17:49:35Z</time>
  <course>192.81</course>
  <speed>0.72</speed>
  <fix>3d</fix>
</trkpt>
<trkpt lat="40.0713388" lon="-105.2298357">
  <ele>1583.22</ele>
  <time>2026-08-28T17:49:35Z</time>
  <course>198.91</course>
  <speed>0.7338937252763509</speed>
  <fix>3d</fix>
</trkpt>
<trkpt lat="40.0713396" lon="-105.2298351">
  <ele>1583.0</ele>
  <time>2026-08-28T17:49:35Z</time>
  <course>196.32</course>
  <speed>0.72</speed>
  <fix>3d</fix>
</trkpt>
<trkpt lat="40.0713382" lon="-105.229836">
  <ele>1583.22</ele>
  <time>2026-08-28T17:49:35Z</time>
  <course>200.67</course>
  <speed>0.7316419889536138</speed>
  <fix>3d</fix>
</trkpt>
<trkpt lat="40.0713396" lon="-105.2298351">
  <ele>1583.0</ele>
  <time>2026-08-28T17:49:35Z</time>
  <course>196.32</course>
  <speed>0.72</speed>
  <fix>3d</fix>
</trkpt>
<trkpt lat="40.0713376" lon="-105.2298363">
  <ele>1583.22</ele>
  <time>2026-08-28T17:49:35Z</time>
  <course>202.46</course>
  <speed>0.7432361670424819</speed>
  <fix>3d</fix>
</trkpt>
<trkpt lat="40.0713383" lon="-105.2298357">
  <ele>1583.0</ele>
  <time>2026-08-28T17:49:35Z</time>
  <course>199.87</course>
  <speed>0.73</speed>
  <fix>3d</fix>
</trkpt>
<trkpt lat="40.0713369" lon="-105.2298366">
  <ele>1583.22</ele>
  <time>2026-08-28T17:49:35Z</time>
  <course>204.25</course>
  <speed>0.7424957912338628</speed>
  <fix>3d</fix>
</trkpt>
<trkpt lat="40.0713383" lon="-105.2298357">
  <ele>1583.0</ele>
  <time>2026-08-28T17:49:35Z</time>
  <course>199.87</course>
  <speed>0.73</speed>
  <fix>3d</fix>
</trkpt>
<trkpt lat="40.0713363" lon="-105.229837">
  <ele>1583.22</ele>
  <time>2026-08-28T17:49:35Z</time>
  <course>206.05</course>
  <speed>0.7424284477308234</speed>
  <fix>3d</fix>
</trkpt>
<trkpt lat="40.0713371" lon="-105.2298363">
  <ele>1583.0</ele>
  <time>2026-08-28T17:49:35Z</time>
  <course>203.45</course>
  <speed>0.74</speed>
  <fix>3d</fix>
</trkpt>
<trkpt lat="40.0713357" lon="-105.2298374">
  <ele>1583.22</ele>
  <time>2026-08-28T17:49:35Z</time>
  <course>207.86</course>
  <speed>0.7430343195303969</speed>
  <fix>3d</fix>
</trkpt>
<trkpt lat="40.0713371" lon="-105.2298363">
  <ele>1583.0</ele>
  <time>2026-08-28T17:49:35Z</time>
  <course>203.45</course>
  <speed>0.74</speed>
  <fix>3d</fix>
</trkpt>
<trkpt lat="40.0713351" lon="-105.2298378">
  <ele>1583.22</ele>
  <time>2026-08-28T17:49:35Z</time>
  <course>209.69</course>
  <speed>0.7443117626371358</speed>
  <fix>3d</fix>
</trkpt>
<trkpt lat="40.0713359" lon="-105.2298371">
  <ele>1583.0</ele>
  <time>2026-08-28T17:49:35Z</time>
  <course>207.06</course>
  <speed>0.74</speed>
  <fix>3d</fix>
</trkpt>
<trkpt lat="40.0713346" lon="-105.2298382">
  <ele>1583.22</ele>
  <time>2026-08-28T17:49:35Z</time>
  <course>211.51</course>
  <speed>0.7516648189186453</speed>
  <fix>3d</fix>
</trkpt>
<trkpt lat="40.0713359" lon="-105.2298371">
  <ele>1583.0</ele>
  <time>2026-08-28T17:49:35Z</time>
  <course>207.06</course>
  <speed>0.74</speed>
  <fix>3d</fix>
</trkpt>
<trkpt lat="40.071334" lon="-105.2298387">
  <ele>1583.22</ele>
  <time>2026-08-28T17:49:35Z</time>
  <course>213.33</course>
  <speed>0.7545197147855052</speed>
  <fix>3d</fix>
</trkpt>
<trkpt lat="40.0713347" lon="-105.2298379">
  <ele>1583.0</ele>
  <time>2026-08-28T17:49:35Z</time>
  <course>210.69</course>
  <speed>0.75</speed>
  <fix>3d</fix>
</trkpt>
<trkpt lat="40.0713334" lon="-105.2298392">
  <ele>1583.22</ele>
  <time>2026-08-28T17:49:35Z</time>
  <course>215.16</course>
  <speed>0.758023746329889</speed>
  <fix>3d</fix>
</trkpt>
<trkpt lat="40.0713347" lon="-105.2298379">
  <ele>1583.0</ele>
  <time>2026-08-28T17:49:35Z</time>
  <course>210.69</course>
  <speed>0.75</speed>
  <fix>3d</fix>
</trkpt>
<trkpt lat="40.0713329" lon="-105.2298397">
  <ele>1583.22</ele>
  <time>2026-08-28T17:49:35Z</time>
  <course>217.0</course>
  <speed>0.7621679604916491</speed>
  <fix>3d</fix>
</trkpt>
<trkpt lat="40.0713335" lon="-105.2298388">
  <ele>1583.0</ele>
  <time>2026-08-28T17:49:35Z</time>
  <course>214.35</course>
  <speed>0.75</speed>
  <fix>3d</fix>
</trkpt>
<trkpt lat="40.0713323" lon="-105.2298403">
  <ele>1583.22</ele>
  <time>2026-08-28T17:49:35Z</time>
  <course>218.84</course>
  <speed>0.7592759709091287</speed>
  <fix>3d</fix>
</trkpt>
<trkpt lat="40.0713335" lon="-105.2298388">
  <ele>1583.0</ele>
  <time>2026-08-28T17:49:35Z</time>
  <course>214.35</course>
  <speed>0.75</speed>
  <fix>3d</fix>
</trkpt>
<trkpt lat="40.0713318" lon="-105.2298409">
  <ele>1583.22</ele>
  <time>2026-08-28T17:49:36Z</time>
  <course>220.68</course>
  <speed>0.7648529270389177</speed>
  <fix>3d</fix>
</trkpt>
<trkpt lat="40.0713335" lon="-105.2298388">
  <ele>1583.0</ele>
  <time>2026-08-28T17:49:36Z</time>
  <course>214.35</course>
  <speed>0.75</speed>
  <fix>3d</fix>
</trkpt>
<trkpt lat="40.0713313" lon="-105.2298414">
  <ele>1583.22</ele>
  <time>2026-08-28T17:49:36Z</time>
  <course>222.53</course>
  <speed>0.7638062581571324</speed>
  <fix>3d</fix>
</trkpt>
<trkpt lat="40.0713324" lon="-105.2298399">
  <ele>1583.0</ele>
  <time>2026-08-28T17:49:36Z</time>
  <course>218.03</course>
  <speed>0.76</speed>
  <fix>3d</fix>
</trkpt>
<trkpt lat="40.0713308" lon="-105.2298421">
  <ele>1583.22</ele>
  <time>2026-08-28T17:49:36Z</time>
  <course>224.38</course>
  <speed>0.7707788269017254</speed>
  <fix>3d</fix>
</trkpt>
<trkpt lat="40.0713324" lon="-105.2298399">
  <ele>1583.0</ele>
  <time>2026-08-28T17:49:36Z</time>
  <course>218.03</course>
  <speed>0.76</speed>
  <fix>3d</fix>
</trkpt>
<trkpt lat="40.0713303" lon="-105.2298427">
  <ele>1583.22</ele>
  <time>2026-08-28T17:49:36Z</time>
  <course>226.24</course>
  <speed>0.7715568676384134</speed>
  <fix>3d</fix>
</trkpt>
<trkpt lat="40.0713314" lon="-105.229841">
  <ele>1583.0</ele>
  <time>2026-08-28T17:49:36Z</time>
  <course>221.74</course>
  <speed>0.76</speed>
  <fix>3d</fix>
</trkpt>
<trkpt lat="40.0713299" lon="-105.2298433">
  <ele>1583.21</ele>
  <time>2026-08-28T17:49:36Z</time>
  <course>228.1</course>
  <speed>0.7657675887630658</speed>
  <fix>3d</fix>
</trkpt>
<trkpt lat="40.0713314" lon="-105.229841">
  <ele>1583.0</ele>
  <time>2026-08-28T17:49:36Z</time>
  <course>221.74</course>
  <speed>0.76</speed>
  <fix>3d</fix>
</trkpt>
<trkpt lat="40.0713294" lon="-105.229844">
  <ele>1583.21</ele>
  <time>2026-08-28T17:49:36Z</time>
  <course>229.97</course>
  <speed>0.7683749084919418</speed>
  <fix>3d</fix>
</trkpt>
<trkpt lat="40.0713304" lon="-105.2298423">
  <ele>1583.0</ele>
  <time>2026-08-28T17:49:36Z</time>
  <course>225.45</course>
  <speed>0.76</speed>
  <fix>3d</fix>
</trkpt>
<trkpt lat="40.071329" lon="-105.2298447">
  <ele>1583.21</ele>
  <time>2026-08-28T17:49:36Z</time>
  <course>231.84</course>
  <speed>0.7720103626247513</speed>
  <fix>3d</fix>
</trkpt>
<trkpt lat="40.0713304" lon="-105.2298423">
  <ele>1583.0</ele>
  <time>2026-08-28T17:49:36Z</time>
  <course>225.45</course>
  <speed>0.76</speed>
  <fix>3d</fix>
</trkpt>
<trkpt lat="40.0713286" lon="-105.2298454">
  <ele>1583.21</ele>
  <time>2026-08-28T17:49:36Z</time>
  <course>233.73</course>
  <speed>0.7684399781375251</speed>
  <fix>3d</fix>
</trkpt>
<trkpt lat="40.0713295" lon="-105.2298436">
  <ele>1583.0</ele>
  <time>2026-08-28T17:49:36Z</time>
  <course>229.17</course>
  <speed>0.77</speed>
  <fix>3d</fix>
</trkpt>
<trkpt lat="40.0713282" lon="-105.2298461">
  <ele>1583.21</ele>
  <time>2026-08-28T17:49:36Z</time>
  <course>235.6</course>
  <speed>0.7738862965578341</speed>
  <fix>3d</fix>
</trkpt>
<trkpt lat="40.0713286" lon="-105.229845">
  <ele>1583.0</ele>
  <time>2026-08-28T17:49:36Z</time>
  <course>232.92</course>
  <speed>0.77</speed>
  <fix>3d</fix>
</trkpt>
<trkpt lat="40.0713278" lon="-105.2298469">
  <ele>1583.21</ele>
  <time>2026-08-28T17:49:36Z</time>
  <course>237.48</course>
  <speed>0.7717512552629896</speed>
  <fix>3d</fix>
</trkpt>
<trkpt lat="40.0713286" lon="-105.229845">
  <ele>1583.0</ele>
  <time>2026-08-28T17:49:36Z</time>
  <course>232.92</course>
  <speed>0.77</speed>
  <fix>3d</fix>
</trkpt>
<trkpt lat="40.0713274" lon="-105.2298476">
  <ele>1583.21</ele>
  <time>2026-08-28T17:49:36Z</time>
  <course>239.34</course>
  <speed>0.7789736837660179</speed>
  <fix>3d</fix>
</trkpt>
<trkpt lat="40.0713278" lon="-105.2298465">
  <ele>1583.0</ele>
  <time>2026-08-28T17:49:36Z</time>
  <course>236.67</course>
  <speed>0.77</speed>
  <fix>3d</fix>
</trkpt>
<trkpt lat="40.0713271" lon="-105.2298484">
  <ele>1583.2</ele>
  <time>2026-08-28T17:49:36Z</time>
  <course>241.23</course>
  <speed>0.7782673062643708</speed>
  <fix>3d</fix>
</trkpt>
<trkpt lat="40.0713278" lon="-105.2298465">
  <ele>1583.0</ele>
  <time>2026-08-28T17:49:36Z</time>
  <course>236.67</course>
  <speed>0.77</speed>
  <fix>3d</fix>
</trkpt>
<trkpt lat="40.0713268" lon="-105.2298492">
  <ele>1583.2</ele>
  <time>2026-08-28T17:49:36Z</time>
  <course>243.11</course>
  <speed>0.7738862965578341</speed>
  <fix>3d</fix>
</trkpt>
<trkpt lat="40.0713271" lon="-105.2298481">
  <ele>1583.0</ele>
  <time>2026-08-28T17:49:36Z</time>
  <course>240.43</course>
  <speed>0.77</speed>
  <fix>3d</fix>
</trkpt>
<trkpt lat="40.0713265" lon="-105.2298501">
  <ele>1583.2</ele>
  <time>2026-08-28T17:49:36Z</time>
  <course>245.0</course>
  <speed>0.7839005038906405</speed>
  <fix>3d</fix>
</trkpt>
<trkpt lat="40.0713271" lon="-105.2298481">
  <ele>1583.0</ele>
  <time>2026-08-28T17:49:36Z</time>
  <course>240.43</course>
  <speed>0.77</speed>
  <fix>3d</fix>
</trkpt>
<trkpt lat="40.0713262" lon="-105.2298509">
  <ele>1583.2</ele>
  <time>2026-08-28T17:49:36Z</time>
  <course>246.91</course>
  <speed>0.7854934754662193</speed>
  <fix>3d</fix>
</trkpt>
<trkpt lat="40.0713265" lon="-105.2298497">
  <ele>1583.0</ele>
  <time>2026-08-28T17:49:36Z</time>
  <course>244.21</course>
  <speed>0.78</speed>
  <fix>3d</fix>
</trkpt>
<trkpt lat="40.0713259" lon="-105.2298518">
  <ele>1583.2</ele>
  <time>2026-08-28T17:49:36Z</time>
  <course>248.8</course>
  <speed>0.7843468620451032</speed>
  <fix>3d</fix>
</trkpt>
<trkpt lat="40.0713265" lon="-105.2298497">
  <ele>1583.0</ele>
  <time>2026-08-28T17:49:36Z</time>
  <course>244.21</course>
  <speed>0.78</speed>
  <fix>3d</fix>
</trkpt>
<trkpt lat="40.0713257" lon="-105.2298526">
  <ele>1583.2</ele>
  <time>2026-08-28T17:49:36Z</time>
  <course>250.7</course>
  <speed>0.7874642849044012</speed>
  <fix>3d</fix>
</trkpt>
<trkpt lat="40.0713259" lon="-105.2298514">
  <ele>1583.0</ele>
  <time>2026-08-28T17:49:36Z</time>
  <course>247.99</course>
  <speed>0.78</speed>
  <fix>3d</fix>
</trkpt>
<trkpt lat="40.0713255" lon="-105.2298535">
  <ele>1583.2</ele>
  <time>2026-08-28T17:49:36Z</time>
  <course>252.59</course>
  <speed>0.7912016177940993</speed>
  <fix>3d</fix>
</trkpt>
<trkpt lat="40.0713259" lon="-105.2298514">
  <ele>1583.0</ele>
  <time>2026-08-28T17:49:36Z</time>
  <course>247.99</course>
  <speed>0.78</speed>
  <fix>3d</fix>
</trkpt>
<trkpt lat="40.0713253" lon="-105.2298544">
  <ele>1583.21</ele>
  <time>2026-08-28T17:49:36Z</time>
  <course>254.49</course>
  <speed>0.7833900688673555</speed>
  <fix>3d</fix>
</trkpt>
<trkpt lat="40.0713254" lon="-105.2298531">
  <ele>1583.0</ele>
  <time>2026-08-28T17:49:36Z</time>
  <course>251.79</course>
  <speed>0.78</speed>
  <fix>3d</fix>
</trkpt>
<trkpt lat="40.0713251" lon="-105.2298553">
  <ele>1583.21</ele>
  <time>2026-08-28T17:49:36Z</time>
  <course>256.39</course>
  <speed>0.7864477096412705</speed>
  <fix>3d</fix>
</trkpt>
<trkpt lat="40.0713254" lon="-105.2298531">
  <ele>1583.0</ele>
  <time>2026-08-28T17:49:36Z</time>
  <course>251.79</course>
  <speed>0.78</speed>
  <fix>3d</fix>
</trkpt>
<trkpt lat="40.0713249" lon="-105.2298562">
  <ele>1583.2</ele>
  <time>2026-08-28T17:49:36Z</time>
  <course>258.3</course>
  <speed>0.792464510246358</speed>
  <fix>3d</fix>
</trkpt>
<trkpt lat="40.071325" lon="-105.2298548">
  <ele>1583.0</ele>
  <time>2026-08-28T17:49:36Z</time>
  <course>255.59</course>
  <speed>0.78</speed>
  <fix>3d</fix>
</trkpt>
<trkpt lat="40.0713248" lon="-105.2298571">
  <ele>1583.2</ele>
  <time>2026-08-28T17:49:36Z</time>
  <course>260.2</course>
  <speed>0.7877182237323191</speed>
  <fix>3d</fix>
</trkpt>
<trkpt lat="40.071325" lon="-105.2298548">
  <ele>1583.0</ele>
  <time>2026-08-28T17:49:36Z</time>
  <course>255.59</course>
  <speed>0.78</speed>
  <fix>3d</fix>
</trkpt>
<trkpt lat="40.0713247" lon="-105.229858">
  <ele>1583.2</ele>
  <time>2026-08-28T17:49:36Z</time>
  <course>262.11</course>
  <speed>0.7951100552753688</speed>
  <fix>3d</fix>
</trkpt>
<trkpt lat="40.071325" lon="-105.2298548">
  <ele>1583.0</ele>
  <time>2026-08-28T17:49:36Z</time>
  <course>255.59</course>
  <speed>0.78</speed>
  <fix>3d</fix>
</trkpt>
<trkpt lat="40.0713246" lon="-105.2298589">
  <ele>1583.2</ele>
  <time>2026-08-28T17:49:36Z</time>
  <course>264.02</course>
  <speed>0.7922752047110904</speed>
  <fix>3d</fix>
</trkpt>
<trkpt lat="40.0713247" lon="-105.2298567">
  <ele>1583.0</ele>
  <time>2026-08-28T17:49:36Z</time>
  <course>259.4</course>
  <speed>0.78</speed>
  <fix>3d</fix>
</trkpt>
<trkpt lat="40.0713246" lon="-105.2298598">
  <ele>1583.2</ele>
  <time>2026-08-28T17:49:36Z</time>
  <course>265.92</course>
  <speed>0.7905694150420949</speed>
  <fix>3d</fix>
</trkpt>
<trkpt lat="40.0713247" lon="-105.2298567">
  <ele>1583.0</ele>
  <time>2026-08-28T17:49:36Z</time>
  <course>259.4</course>
  <speed>0.78</speed>
  <fix>3d</fix>
</trkpt>
<trkpt lat="40.0713245" lon="-105.2298607">
  <ele>1583.2</ele>
  <time>2026-08-28T17:49:36Z</time>
  <course>267.83</course>
  <speed>0.7900632886041472</speed>
  <fix>3d</fix>
</trkpt>
<trkpt lat="40.0713245" lon="-105.2298585">
  <ele>1583.0</ele>
  <time>2026-08-28T17:49:36Z</time>
  <course>263.22</course>
  <speed>0.78</speed>
  <fix>3d</fix>
</trkpt>
<trkpt lat="40.0713245" lon="-105.2298617">
  <ele>1583.2</ele>
  <time>2026-08-28T17:49:36Z</time>
  <course>269.75</course>
  <speed>0.7900632886041472</speed>
  <fix>3d</fix>
</trkpt>
<trkpt lat="40.0713245" lon="-105.2298585">
  <ele>1583.0</ele>
  <time>2026-08-28T17:49:36Z</time>
  <course>263.22</course>
  <speed>0.78</speed>
  <fix>3d</fix>
</trkpt>
<trkpt lat="40.0713245" lon="-105.2298626">
  <ele>1583.2</ele>
  <time>2026-08-28T17:49:36Z</time>
  <course>271.66</course>
  <speed>0.7905694150420949</speed>
  <fix>3d</fix>
</trkpt>
<trkpt lat="40.0713243" lon="-105.2298603">
  <ele>1583.0</ele>
  <time>2026-08-28T17:49:36Z</time>
  <course>267.04</course>
  <speed>0.78</speed>
  <fix>3d</fix>
</trkpt>
<trkpt lat="40.0713246" lon="-105.2298635">
  <ele>1583.2</ele>
  <time>2026-08-28T17:49:36Z</time>
  <course>273.59</course>
  <speed>0.7922752047110904</speed>
  <fix>3d</fix>
</trkpt>
<trkpt lat="40.0713243" lon="-105.2298622">
  <ele>1583.0</ele>
  <time>2026-08-28T17:49:36Z</time>
  <course>270.87</course>
  <speed>0.79</speed>
  <fix>3d</fix>
</trkpt>
<trkpt lat="40.0713246" lon="-105.2298644">
  <ele>1583.2</ele>
  <time>2026-08-28T17:49:36Z</time>
  <course>275.5</course>
  <speed>0.7951100552753688</speed>
  <fix>3d</fix>
</trkpt>
<trkpt lat="40.0713243" lon="-105.2298622">
  <ele>1583.0</ele>
  <time>2026-08-28T17:49:36Z</time>
  <course>270.87</course>
  <speed>0.79</speed>
  <fix>3d</fix>
</trkpt>
<trkpt lat="40.0713247" lon="-105.2298653">
  <ele>1583.2</ele>
  <time>2026-08-28T17:49:36Z</time>
  <course>277.42</course>
  <speed>0.7976214641043707</speed>
  <fix>3d</fix>
</trkpt>
<trkpt lat="40.0713244" lon="-105.229864">
  <ele>1583.0</ele>
  <time>2026-08-28T17:49:36Z</time>
  <course>274.69</course>
  <speed>0.79</speed>
  <fix>3d</fix>
</trkpt>
<trkpt lat="40.0713247" lon="-105.2298662">
  <ele>1583.19</ele>
  <time>2026-08-28T17:49:36Z</time>
  <course>279.32</course>
  <speed>0.792464510246358</speed>
  <fix>3d</fix>
</trkpt>
<trkpt lat="40.0713244" lon="-105.229864">
  <ele>1583.0</ele>
  <time>2026-08-28T17:49:36Z</time>
  <course>274.69</course>
  <speed>0.79</speed>
  <fix>3d</fix>
</trkpt>
<trkpt lat="40.0713248" lon="-105.2298671">
  <ele>1583.19</ele>
  <time>2026-08-28T17:49:36Z</time>
  <course>281.24</course>
  <speed>0.7962411694957753</speed>
  <fix>3d</fix>
</trkpt>
<trkpt lat="40.0713245" lon="-105.2298658">
  <ele>1583.0</ele>
  <time>2026-08-28T17:49:36Z</time>
  <course>278.53</course>
  <speed>0.79</speed>
  <fix>3d</fix>
</trkpt>
<trkpt lat="40.0713249" lon="-105.229868">
  <ele>1583.19</ele>
  <time>2026-08-28T17:49:36Z</time>
  <course>283.16</course>
  <speed>0.7930952023559341</speed>
  <fix>3d</fix>
</trkpt>
<trkpt lat="40.0713245" lon="-105.2298658">
  <ele>1583.0</ele>
  <time>2026-08-28T17:49:36Z</time>
  <course>278.53</course>
  <speed>0.79</speed>
  <fix>3d</fix>
</trkpt>
<trkpt lat="40.0713251" lon="-105.2298689">
  <ele>1583.19</ele>
  <time>2026-08-28T17:49:36Z</time>
  <course>285.08</course>
  <speed>0.800812087820857</speed>
  <fix>3d</fix>
</trkpt>
<trkpt lat="40.0713247" lon="-105.2298677">
  <ele>1583.0</ele>
  <time>2026-08-28T17:49:36Z</time>
  <course>282.36</course>
  <speed>0.79</speed>
  <fix>3d</fix>
</trkpt>
<trkpt lat="40.0713253" lon="-105.2298698">
  <ele>1583.18</ele>
  <time>2026-08-28T17:49:36Z</time>
  <course>287.01</course>
  <speed>0.796994353806851</speed>
  <fix>3d</fix>
</trkpt>
<trkpt lat="40.0713247" lon="-105.2298677">
  <ele>1583.0</ele>
  <time>2026-08-28T17:49:36Z</time>
  <course>282.36</course>
  <speed>0.79</speed>
  <fix>3d</fix>
</trkpt>
<trkpt lat="40.0713255" lon="-105.2298707">
  <ele>1583.18</ele>
  <time>2026-08-28T17:49:36Z</time>
  <course>288.94</course>
  <speed>0.7971198153351854</speed>
  <fix>3d</fix>
</trkpt>
<trkpt lat="40.071325" lon="-105.2298695">
  <ele>1583.0</ele>
  <time>2026-08-28T17:49:36Z</time>
  <course>286.2</course>
  <speed>0.79</speed>
  <fix>3d</fix>
</trkpt>
<trkpt lat="40.0713258" lon="-105.2298716">
  <ele>1583.18</ele>
  <time>2026-08-28T17:49:36Z</time>
  <course>290.86</course>
  <speed>0.7947955712005447</speed>
  <fix>3d</fix>
</trkpt>
<trkpt lat="40.071325" lon="-105.2298695">
  <ele>1583.0</ele>
  <time>2026-08-28T17:49:36Z</time>
  <course>286.2</course>
  <speed>0.79</speed>
  <fix>3d</fix>
</trkpt>
<trkpt lat="40.071326" lon="-105.2298725">
  <ele>1583.18</ele>
  <time>2026-08-28T17:49:36Z</time>
  <course>292.78</course>
  <speed>0.797057087039567</speed>
  <fix>3d</fix>
</trkpt>
<trkpt lat="40.0713255" lon="-105.2298712">
  <ele>1583.0</ele>
  <time>2026-08-28T17:49:36Z</time>
  <course>290.05</course>
  <speed>0.79</speed>
  <fix>3d</fix>
</trkpt>
<trkpt lat="40.0713263" lon="-105.2298733">
  <ele>1583.18</ele>
  <time>2026-08-28T17:49:36Z</time>
  <course>294.7</course>
  <speed>0.7962411694957753</speed>
  <fix>3d</fix>
</trkpt>
<trkpt lat="40.0713255" lon="-105.2298712">
  <ele>1583.0</ele>
  <time>2026-08-28T17:49:36Z</time>
  <course>290.05</course>
  <speed>0.79</speed>
  <fix>3d</fix>
</trkpt>
<trkpt lat="40.0713266" lon="-105.2298741">
  <ele>1583.19</ele>
  <time>2026-08-28T17:49:36Z</time>
  <course>296.63</course>
  <speed>0.7960527620704547</speed>
  <fix>3d</fix>
</trkpt>
<trkpt lat="40.071326" lon="-105.229873">
  <ele>1583.0</ele>
  <time>2026-08-28T17:49:36Z</time>
  <course>293.89</course>
  <speed>0.79</speed>
  <fix>3d</fix>
</trkpt>
<trkpt lat="40.0713269" lon="-105.229875">
  <ele>1583.19</ele>
  <time>2026-08-28T17:49:36Z</time>
  <course>298.55</course>
  <speed>0.8013114251026251</speed>
  <fix>3d</fix>
</trkpt>
<trkpt lat="40.071326" lon="-105.229873">
  <ele>1583.0</ele>
  <time>2026-08-28T17:49:36Z</time>
  <course>293.89</course>
  <speed>0.79</speed>
  <fix>3d</fix>
</trkpt>
<trkpt lat="40.0713272" lon="-105.2298758">
  <ele>1583.19</ele>
  <time>2026-08-28T17:49:36Z</time>
  <course>300.48</course>
  <speed>0.7940403012442127</speed>
  <fix>3d</fix>
</trkpt>
<trkpt lat="40.071326" lon="-105.229873">
  <ele>1583.0</ele>
  <time>2026-08-28T17:49:36Z</time>
  <course>293.89</course>
  <speed>0.79</speed>
  <fix>3d</fix>
</trkpt>
<trkpt lat="40.0713276" lon="-105.2298766">
  <ele>1583.2</ele>
  <time>2026-08-28T17:49:36Z</time>
  <course>302.4</course>
  <speed>0.7961155694998057</speed>
  <fix>3d</fix>
</trkpt>
<trkpt lat="40.0713267" lon="-105.2298747">
  <ele>1583.0</ele>
  <time>2026-08-28T17:49:36Z</time>
  <course>297.75</course>
  <speed>0.79</speed>
  <fix>3d</fix>
</trkpt>
<trkpt lat="40.071328" lon="-105.2298773">
  <ele>1583.2</ele>
  <time>2026-08-28T17:49:36Z</time>
  <course>304.33</course>
  <speed>0.7905694150420949</speed>
  <fix>3d</fix>
</trkpt>
<trkpt lat="40.0713267" lon="-105.2298747">
  <ele>1583.0</ele>
  <time>2026-08-28T17:49:36Z</time>
  <course>297.75</course>
  <speed>0.79</speed>
  <fix>3d</fix>
</trkpt>
<trkpt lat="40.0713284" lon="-105.2298781">
  <ele>1583.21</ele>
  <time>2026-08-28T17:49:36Z</time>
  <course>306.26</course>
  <speed>0.8</speed>
  <fix>3d</fix>
</trkpt>
<trkpt lat="40.0713274" lon="-105.2298764">
  <ele>1583.0</ele>
  <time>2026-08-28T17:49:36Z</time>
  <course>301.61</course>
  <speed>0.79</speed>
  <fix>3d</fix>
</trkpt>
<trkpt lat="40.0713288" lon="-105.2298788">
  <ele>1583.21</ele>
  <time>2026-08-28T17:49:36Z</time>
  <course>308.18</course>
  <speed>0.7964923100695951</speed>
  <fix>3d</fix>
</trkpt>
<trkpt lat="40.0713274" lon="-105.2298764">
  <ele>1583.0</ele>
  <time>2026-08-28T17:49:36Z</time>
  <course>301.61</course>
  <speed>0.79</speed>
  <fix>3d</fix>
</trkpt>
<trkpt lat="40.0713293" lon="-105.2298796">
  <ele>1583.21</ele>
  <time>2026-08-28T17:49:36Z</time>
  <course>310.11</course>
  <speed>0.7939773296511683</speed>
  <fix>3d</fix>
</trkpt>
<trkpt lat="40.0713281" lon="-105.2298779">
  <ele>1583.0</ele>
  <time>2026-08-28T17:49:36Z</time>
  <course>305.46</course>
  <speed>0.79</speed>
  <fix>3d</fix>
</trkpt>
<trkpt lat="40.0713297" lon="-105.2298803">
  <ele>1583.21</ele>
  <time>2026-08-28T17:49:36Z</time>
  <course>312.04</course>
  <speed>0.7998124780221925</speed>
  <fix>3d</fix>
</trkpt>
<trkpt lat="40.0713281" lon="-105.2298779">
  <ele>1583.0</ele>
  <time>2026-08-28T17:49:36Z</time>
  <course>305.46</course>
  <speed>0.79</speed>
  <fix>3d</fix>
</trkpt>
<trkpt lat="40.0713302" lon="-105.2298809">
  <ele>1583.21</ele>
  <time>2026-08-28T17:49:36Z</time>
  <course>313.99</course>
  <speed>0.7990619500389191</speed>
  <fix>3d</fix>
</trkpt>
<trkpt lat="40.071329" lon="-105.2298793">
  <ele>1583.0</ele>
  <time>2026-08-28T17:49:36Z</time>
  <course>309.31</course>
  <speed>0.79</speed>
  <fix>3d</fix>
</trkpt>
<trkpt lat="40.0713307" lon="-105.2298816">
  <ele>1583.21</ele>
  <time>2026-08-28T17:49:36Z</time>
  <course>315.91</course>
  <speed>0.7920858539325141</speed>
  <fix>3d</fix>
</trkpt>
<trkpt lat="40.0713299" lon="-105.2298807">
  <ele>1583.0</ele>
  <time>2026-08-28T17:49:36Z</time>
  <course>313.17</course>
  <speed>0.79</speed>
  <fix>3d</fix>
</trkpt>
<trkpt lat="40.0713312" lon="-105.2298822">
  <ele>1583.22</ele>
  <time>2026-08-28T17:49:36Z</time>
  <course>317.84</course>
  <speed>0.7930952023559341</speed>
  <fix>3d</fix>
</trkpt>
<trkpt lat="40.0713299" lon="-105.2298807">
  <ele>1583.0</ele>
  <time>2026-08-28T17:49:36Z</time>
  <course>313.17</course>
  <speed>0.79</speed>
  <fix>3d</fix>
</trkpt>
<trkpt lat="40.0713317" lon="-105.2298828">
  <ele>1583.22</ele>
  <time>2026-08-28T17:49:36Z</time>
  <course>319.76</course>
  <speed>0.7951100552753688</speed>
  <fix>3d</fix>
</trkpt>
<trkpt lat="40.071331" lon="-105.2298821">
  <ele>1583.0</ele>
  <time>2026-08-28T17:49:36Z</time>
  <course>317.03</course>
  <speed>0.79</speed>
  <fix>3d</fix>
</trkpt>
<trkpt lat="40.0713323" lon="-105.2298834">
  <ele>1583.22</ele>
  <time>2026-08-28T17:49:36Z</time>
  <course>321.69</course>
  <speed>0.7981227975693966</speed>
  <fix>3d</fix>
</trkpt>
<trkpt lat="40.071331" lon="-105.2298821">
  <ele>1583.0</ele>
  <time>2026-08-28T17:49:36Z</time>
  <course>317.03</course>
  <speed>0.79</speed>
  <fix>3d</fix>
</trkpt>
<trkpt lat="40.0713328" lon="-105.229884">
  <ele>1583.22</ele>
  <time>2026-08-28T17:49:36Z</time>
  <course>323.62</course>
  <speed>0.7881624198095213</speed>
  <fix>3d</fix>
</trkpt>
<trkpt lat="40.0713321" lon="-105.2298833">
  <ele>1583.0</ele>
  <time>2026-08-28T17:49:36Z</time>
  <course>320.89</course>
  <speed>0.79</speed>
  <fix>3d</fix>
</trkpt>
<trkpt lat="40.0713334" lon="-105.2298845">
  <ele>1583.22</ele>
  <time>2026-08-28T17:49:36Z</time>
  <course>325.55</course>
  <speed>0.7932212806020776</speed>
  <fix>3d</fix>
</trkpt>
<trkpt lat="40.0713321" lon="-105.2298833">
  <ele>1583.0</ele>
  <time>2026-08-28T17:49:36Z</time>
  <course>320.89</course>
  <speed>0.79</speed>
  <fix>3d</fix>
</trkpt>
<trkpt lat="40.071334" lon="-105.229885">
  <ele>1583.22</ele>
  <time>2026-08-28T17:49:36Z</time>
  <course>327.49</course>
  <speed>0.7907591289387687</speed>
  <fix>3d</fix>
</trkpt>
<trkpt lat="40.0713332" lon="-105.2298844">
  <ele>1583.0</ele>
  <time>2026-08-28T17:49:36Z</time>
  <course>324.75</course>
  <speed>0.79</speed>
  <fix>3d</fix>
</trkpt>
<trkpt lat="40.0713346" lon="-105.2298855">
  <ele>1583.22</ele>
  <time>2026-08-28T17:49:36Z</time>
  <course>329.42</course>
  <speed>0.7975587752636166</speed>
  <fix>3d</fix>
</trkpt>
<trkpt lat="40.0713332" lon="-105.2298844">
  <ele>1583.0</ele>
  <time>2026-08-28T17:49:36Z</time>
  <course>324.75</course>
  <speed>0.79</speed>
  <fix>3d</fix>
</trkpt>
<trkpt lat="40.0713352" lon="-105.229886">
  <ele>1583.22</ele>
  <time>2026-08-28T17:49:36Z</time>
  <course>331.36</course>
  <speed>0.7917701686727027</speed>
  <fix>3d</fix>
</trkpt>
<trkpt lat="40.0713344" lon="-105.2298855">
  <ele>1583.0</ele>
  <time>2026-08-28T17:49:36Z</time>
  <course>328.61</course>
  <speed>0.79</speed>
  <fix>3d</fix>
</trkpt>
<trkpt lat="40.0713359" lon="-105.2298864">
  <ele>1583.22</ele>
  <time>2026-08-28T17:49:36Z</time>
  <course>333.29</course>
  <speed>0.791580697086532</speed>
  <fix>3d</fix>
</trkpt>
<trkpt lat="40.0713344" lon="-105.2298855">
  <ele>1583.0</ele>
  <time>2026-08-28T17:49:36Z</time>
  <course>328.61</course>
  <speed>0.79</speed>
  <fix>3d</fix>
</trkpt>
<trkpt lat="40.0713365" lon="-105.2298868">
  <ele>1583.21</ele>
  <time>2026-08-28T17:49:36Z</time>
  <course>335.22</course>
  <speed>0.797057087039567</speed>
  <fix>3d</fix>
</trkpt>
<trkpt lat="40.0713356" lon="-105.2298864">
  <ele>1583.0</ele>
  <time>2026-08-28T17:49:36Z</time>
  <course>332.47</course>
  <speed>0.79</speed>
  <fix>3d</fix>
</trkpt>
<trkpt lat="40.0713372" lon="-105.2298872">
  <ele>1583.21</ele>
  <time>2026-08-28T17:49:36Z</time>
  <course>337.15</course>
  <speed>0.7984985911070852</speed>
  <fix>3d</fix>
</trkpt>
<trkpt lat="40.0713356" lon="-105.2298864">
  <ele>1583.0</ele>
  <time>2026-08-28T17:49:36Z</time>
  <course>332.47</course>
  <speed>0.79</speed>
  <fix>3d</fix>
</trkpt>
<trkpt lat="40.0713378" lon="-105.2298876">
  <ele>1583.21</ele>
  <time>2026-08-28T17:49:36Z</time>
  <course>339.08</course>
  <speed>0.7971198153351854</speed>
  <fix>3d</fix>
</trkpt>
<trkpt lat="40.0713369" lon="-105.2298872">
  <ele>1583.0</ele>
  <time>2026-08-28T17:49:36Z</time>
  <course>336.33</course>
  <speed>0.79</speed>
  <fix>3d</fix>
</trkpt>
<trkpt lat="40.0713385" lon="-105.2298879">
  <ele>1583.21</ele>
  <time>2026-08-28T17:49:36Z</time>
  <course>341.02</course>
  <speed>0.7905694150420949</speed>
  <fix>3d</fix>
</trkpt>
<trkpt lat="40.0713369" lon="-105.2298872">
  <ele>1583.0</ele>
  <time>2026-08-28T17:49:36Z</time>
  <course>336.33</course>
  <speed>0.79</speed>
  <fix>3d</fix>
</trkpt>
<trkpt lat="40.0713392" lon="-105.2298882">
  <ele>1583.21</ele>
  <time>2026-08-28T17:49:36Z</time>
  <course>342.95</course>
  <speed>0.7912016177940993</speed>
  <fix>3d</fix>
</trkpt>
<trkpt lat="40.0713369" lon="-105.2298872">
  <ele>1583.0</ele>
  <time>2026-08-28T17:49:36Z</time>
  <course>336.33</course>
  <speed>0.79</speed>
  <fix>3d</fix>
</trkpt>
<trkpt lat="40.0713399" lon="-105.2298884">
  <ele>1583.21</ele>
  <time>2026-08-28T17:49:36Z</time>
  <course>344.88</course>
  <speed>0.7955501241279521</speed>
  <fix>3d</fix>
</trkpt>
<trkpt lat="40.0713382" lon="-105.2298879">
  <ele>1583.0</ele>
  <time>2026-08-28T17:49:36Z</time>
  <course>340.21</course>
  <speed>0.79</speed>
  <fix>3d</fix>
</trkpt>
<trkpt lat="40.0713406" lon="-105.2298887">
  <ele>1583.21</ele>
  <time>2026-08-28T17:49:36Z</time>
  <course>346.81</course>
  <speed>0.7983107164506812</speed>
  <fix>3d</fix>
</trkpt>
<trkpt lat="40.0713382" lon="-105.2298879">
  <ele>1583.0</ele>
  <time>2026-08-28T17:49:36Z</time>
  <course>340.21</course>
  <speed>0.79</speed>
  <fix>3d</fix>
</trkpt>
<trkpt lat="40.0713412" lon="-105.2298889">
  <ele>1583.21</ele>
  <time>2026-08-28T17:49:36Z</time>
  <course>348.75</course>
  <speed>0.792464510246358</speed>
  <fix>3d</fix>
</trkpt>
<trkpt lat="40.0713396" lon="-105.2298884">
  <ele>1583.0</ele>
  <time>2026-08-28T17:49:36Z</time>
  <course>344.08</course>
  <speed>0.79</speed>
  <fix>3d</fix>
</trkpt>
<trkpt lat="40.0713419" lon="-105.229889">
  <ele>1583.21</ele>
  <time>2026-08-28T17:49:36Z</time>
  <course>350.68</course>
  <speed>0.7990619500389191</speed>
  <fix>3d</fix>
</trkpt>
<trkpt lat="40.0713396" lon="-105.2298884">
  <ele>1583.0</ele>
  <time>2026-08-28T17:49:36Z</time>
  <course>344.08</course>
  <speed>0.79</speed>
  <fix>3d</fix>
</trkpt>
<trkpt lat="40.0713426" lon="-105.2298892">
  <ele>1583.21</ele>
  <time>2026-08-28T17:49:36Z</time>
  <course>352.62</course>
  <speed>0.7951100552753688</speed>
  <fix>3d</fix>
</trkpt>
<trkpt lat="40.0713411" lon="-105.2298889">
  <ele>1583.0</ele>
  <time>2026-08-28T17:49:36Z</time>
  <course>347.94</course>
  <speed>0.79</speed>
  <fix>3d</fix>
</trkpt>
<trkpt lat="40.0713434" lon="-105.2298893">
  <ele>1583.21</ele>
  <time>2026-08-28T17:49:36Z</time>
  <course>354.57</course>
  <speed>0.7922752047110904</speed>
  <fix>3d</fix>
</trkpt>
<trkpt lat="40.0713425" lon="-105.2298893">
  <ele>1583.0</ele>
  <time>2026-08-28T17:49:36Z</time>
  <course>351.81</course>
  <speed>0.79</speed>
  <fix>3d</fix>
</trkpt>
<trkpt lat="40.0713441" lon="-105.2298893">
  <ele>1583.21</ele>
  <time>2026-08-28T17:49:36Z</time>
  <course>356.5</course>
  <speed>0.7910120100226039</speed>
  <fix>3d</fix>
</trkpt>
<trkpt lat="40.0713425" lon="-105.2298893">
  <ele>1583.0</ele>
  <time>2026-08-28T17:49:36Z</time>
  <course>351.81</course>
  <speed>0.79</speed>
  <fix>3d</fix>
</trkpt>
<trkpt lat="40.0713448" lon="-105.2298894">
  <ele>1583.21</ele>
  <time>2026-08-28T17:49:36Z</time>
  <course>358.43</course>
  <speed>0.7900632886041472</speed>
  <fix>3d</fix>
</trkpt>
<trkpt lat="40.0713439" lon="-105.2298894">
  <ele>1583.0</ele>
  <time>2026-08-28T17:49:36Z</time>
  <course>355.68</course>
  <speed>0.79</speed>
  <fix>3d</fix>
</trkpt>
<trkpt lat="40.0713455" lon="-105.2298894">
  <ele>1583.21</ele>
  <time>2026-08-28T17:49:36Z</time>
  <course>0.34</course>
  <speed>0.7900632886041472</speed>
  <fix>3d</fix>
</trkpt>
<trkpt lat="40.0713439" lon="-105.2298894">
  <ele>1583.0</ele>
  <time>2026-08-28T17:49:36Z</time>
  <course>355.68</course>
  <speed>0.79</speed>
  <fix>3d</fix>
</trkpt>
<trkpt lat="40.0713462" lon="-105.2298894">
  <ele>1583.21</ele>
  <time>2026-08-28T17:49:36Z</time>
  <course>2.28</course>
  <speed>0.7905694150420949</speed>
  <fix>3d</fix>
</trkpt>
<trkpt lat="40.0713453" lon="-105.2298895">
  <ele>1583.0</ele>
  <time>2026-08-28T17:49:36Z</time>
  <course>359.54</course>
  <speed>0.79</speed>
  <fix>3d</fix>
</trkpt>
<trkpt lat="40.0713469" lon="-105.2298893">
  <ele>1583.21</ele>
  <time>2026-08-28T17:49:36Z</time>
  <course>4.21</course>
  <speed>0.7922752047110904</speed>
  <fix>3d</fix>
</trkpt>
<trkpt lat="40.0713453" lon="-105.2298895">
  <ele>1583.0</ele>
  <time>2026-08-28T17:49:36Z</time>
  <course>359.54</course>
  <speed>0.79</speed>
  <fix>3d</fix>
</trkpt>
<trkpt lat="40.0713477" lon="-105.2298893">
  <ele>1583.2</ele>
  <time>2026-08-28T17:49:36Z</time>
  <course>6.14</course>
  <speed>0.7951100552753688</speed>
  <fix>3d</fix>
</trkpt>
<trkpt lat="40.0713468" lon="-105.2298895">
  <ele>1583.0</ele>
  <time>2026-08-28T17:49:36Z</time>
  <course>3.41</course>
  <speed>0.79</speed>
  <fix>3d</fix>
</trkpt>
<trkpt lat="40.0713484" lon="-105.2298892">
  <ele>1583.2</ele>
  <time>2026-08-28T17:49:36Z</time>
  <course>8.08</course>
  <speed>0.7778174593052023</speed>
  <fix>3d</fix>
</trkpt>
<trkpt lat="40.0713468" lon="-105.2298895">
  <ele>1583.0</ele>
  <time>2026-08-28T17:49:36Z</time>
  <course>3.41</course>
  <speed>0.79</speed>
  <fix>3d</fix>
</trkpt>
<trkpt lat="40.0713491" lon="-105.2298891">
  <ele>1583.21</ele>
  <time>2026-08-28T17:49:36Z</time>
  <course>9.92</course>
  <speed>0.7414849964766651</speed>
  <fix>3d</fix>
</trkpt>
<trkpt lat="40.0713482" lon="-105.2298893">
  <ele>1583.0</ele>
  <time>2026-08-28T17:49:36Z</time>
  <course>7.16</course>
  <speed>0.76</speed>
  <fix>3d</fix>
</trkpt>
<trkpt lat="40.0713497" lon="-105.2298889">
  <ele>1583.21</ele>
  <time>2026-08-28T17:49:36Z</time>
  <course>10.99</course>
  <speed>0.7040596565632774</speed>
  <fix>3d</fix>
</trkpt>
<trkpt lat="40.0713482" lon="-105.2298893">
  <ele>1583.0</ele>
  <time>2026-08-28T17:49:36Z</time>
  <course>7.16</course>
  <speed>0.76</speed>
  <fix>3d</fix>
</trkpt>
<trkpt lat="40.0713503" lon="-105.2298888">
  <ele>1583.21</ele>
  <time>2026-08-28T17:49:36Z</time>
  <course>10.99</course>
  <speed>0.662872536767062</speed>
  <fix>3d</fix>
</trkpt>
<trkpt lat="40.0713494" lon="-105.2298891">
  <ele>1583.0</ele>
  <time>2026-08-28T17:49:36Z</time>
  <course>9.61</course>
  <speed>0.7</speed>
  <fix>3d</fix>
</trkpt>
<trkpt lat="40.0713509" lon="-105.2298886">
  <ele>1583.2</ele>
  <time>2026-08-28T17:49:36Z</time>
  <course>10.99</course>
  <speed>0.6315061361538777</speed>
  <fix>3d</fix>
</trkpt>
<trkpt lat="40.0713494" lon="-105.2298891">
  <ele>1583.0</ele>
  <time>2026-08-28T17:49:36Z</time>
  <course>9.61</course>
  <speed>0.7</speed>
  <fix>3d</fix>
</trkpt>
<trkpt lat="40.0713514" lon="-105.2298885">
  <ele>1583.2</ele>
  <time>2026-08-28T17:49:36Z</time>
  <course>11.0</course>
  <speed>0.6020797289396147</speed>
  <fix>3d</fix>
</trkpt>
<trkpt lat="40.0713506" lon="-105.2298888">
  <ele>1583.0</ele>
  <time>2026-08-28T17:49:36Z</time>
  <course>10.17</course>
  <speed>0.63</speed>
  <fix>3d</fix>
</trkpt>
<trkpt lat="40.0713519" lon="-105.2298884">
  <ele>1583.2</ele>
  <time>2026-08-28T17:49:36Z</time>
  <course>11.0</course>
  <speed>0.570701322935211</speed>
  <fix>3d</fix>
</trkpt>
<trkpt lat="40.0713506" lon="-105.2298888">
  <ele>1583.0</ele>
  <time>2026-08-28T17:49:36Z</time>
  <course>10.17</course>
  <speed>0.63</speed>
  <fix>3d</fix>
</trkpt>
<trkpt lat="40.0713524" lon="-105.2298883">
  <ele>1583.19</ele>
  <time>2026-08-28T17:49:36Z</time>
  <course>11.0</course>
  <speed>0.5412947441089743</speed>
  <fix>3d</fix>
</trkpt>
<trkpt lat="40.0713506" lon="-105.2298888">
  <ele>1583.0</ele>
  <time>2026-08-28T17:49:36Z</time>
  <course>10.17</course>
  <speed>0.63</speed>
  <fix>3d</fix>
</trkpt>
<trkpt lat="40.0713529" lon="-105.2298882">
  <ele>1583.19</ele>
  <time>2026-08-28T17:49:36Z</time>
  <course>11.0</course>
  <speed>0.5099019513592785</speed>
  <fix>3d</fix>
</trkpt>
<trkpt lat="40.0713517" lon="-105.2298886">
  <ele>1583.0</ele>
  <time>2026-08-28T17:49:36Z</time>
  <course>10.17</course>
  <speed>0.57</speed>
  <fix>3d</fix>
</trkpt>
<trkpt lat="40.0713533" lon="-105.2298881">
  <ele>1583.18</ele>
  <time>2026-08-28T17:49:36Z</time>
  <course>11.0</course>
  <speed>0.4903060268852505</speed>
  <fix>3d</fix>
</trkpt>
<trkpt lat="40.0713517" lon="-105.2298886">
  <ele>1583.0</ele>
  <time>2026-08-28T17:49:36Z</time>
  <course>10.17</course>
  <speed>0.57</speed>
  <fix>3d</fix>
</trkpt>
<trkpt lat="40.0713537" lon="-105.229888">
  <ele>1583.18</ele>
  <time>2026-08-28T17:49:36Z</time>
  <course>11.01</course>
  <speed>0.4589117562233506</speed>
  <fix>3d</fix>
</trkpt>
<trkpt lat="40.0713527" lon="-105.2298883">
  <ele>1583.0</ele>
  <time>2026-08-28T17:49:36Z</time>
  <course>10.17</course>
  <speed>0.52</speed>
  <fix>3d</fix>
</trkpt>
<trkpt lat="40.0713541" lon="-105.2298879">
  <ele>1583.18</ele>
  <time>2026-08-28T17:49:36Z</time>
  <course>11.01</course>
  <speed>0.4393176527297759</speed>
  <fix>3d</fix>
</trkpt>
<trkpt lat="40.0713527" lon="-105.2298883">
  <ele>1583.0</ele>
  <time>2026-08-28T17:49:36Z</time>
  <course>10.17</course>
  <speed>0.52</speed>
  <fix>3d</fix>
</trkpt>
<trkpt lat="40.0713545" lon="-105.2298878">
  <ele>1583.18</ele>
  <time>2026-08-28T17:49:36Z</time>
  <course>11.01</course>
  <speed>0.41773197148410846</speed>
  <fix>3d</fix>
</trkpt>
<trkpt lat="40.0713535" lon="-105.2298882">
  <ele>1583.0</ele>
  <time>2026-08-28T17:49:36Z</time>
  <course>10.17</course>
  <speed>0.47</speed>
  <fix>3d</fix>
</trkpt>
<trkpt lat="40.0713548" lon="-105.2298877">
  <ele>1583.18</ele>
  <time>2026-08-28T17:49:36Z</time>
  <course>11.01</course>
  <speed>0.388329756778952</speed>
  <fix>3d</fix>
</trkpt>
<trkpt lat="40.0713544" lon="-105.2298879">
  <ele>1583.0</ele>
  <time>2026-08-28T17:49:36Z</time>
  <course>10.17</course>
  <speed>0.42</speed>
  <fix>3d</fix>
</trkpt>
<trkpt lat="40.0713552" lon="-105.2298876">
  <ele>1583.18</ele>
  <time>2026-08-28T17:49:36Z</time>
  <course>11.01</course>
  <speed>0.366742416417845</speed>
  <fix>3d</fix>
</trkpt>
<trkpt lat="40.0713544" lon="-105.2298879">
  <ele>1583.0</ele>
  <time>2026-08-28T17:49:36Z</time>
  <course>10.17</course>
  <speed>0.42</speed>
  <fix>3d</fix>
</trkpt>
<trkpt lat="40.0713555" lon="-105.2298876">
  <ele>1583.18</ele>
  <time>2026-08-28T17:49:36Z</time>
  <course>11.02</course>
  <speed>0.34713109915419565</speed>
  <fix>3d</fix>
</trkpt>
<trkpt lat="40.0713551" lon="-105.2298878">
  <ele>1583.0</ele>
  <time>2026-08-28T17:49:36Z</time>
  <course>10.17</course>
  <speed>0.38</speed>
  <fix>3d</fix>
</trkpt>
<trkpt lat="40.0713558" lon="-105.2298875">
  <ele>1583.18</ele>
  <time>2026-08-28T17:49:36Z</time>
  <course>11.02</course>
  <speed>0.33541019662496846</speed>
  <fix>3d</fix>
</trkpt>
<trkpt lat="40.0713551" lon="-105.2298878">
  <ele>1583.0</ele>
  <time>2026-08-28T17:49:36Z</time>
  <course>10.17</course>
  <speed>0.38</speed>
  <fix>3d</fix>
</trkpt>
<trkpt lat="40.0713561" lon="-105.2298874">
  <ele>1583.18</ele>
  <time>2026-08-28T17:49:36Z</time>
  <course>11.02</course>
  <speed>0.31575306807693887</speed>
  <fix>3d</fix>
</trkpt>
<trkpt lat="40.0713557" lon="-105.2298877">
  <ele>1583.0</ele>
  <time>2026-08-28T17:49:36Z</time>
  <course>10.17</course>
  <speed>0.35</speed>
  <fix>3d</fix>
</trkpt>
<trkpt lat="40.0713563" lon="-105.2298874">
  <ele>1583.18</ele>
  <time>2026-08-28T17:49:36Z</time>
  <course>11.02</course>
  <speed>0.29614185789921693</speed>
  <fix>3d</fix>
</trkpt>
<trkpt lat="40.0713557" lon="-105.2298877">
  <ele>1583.0</ele>
  <time>2026-08-28T17:49:36Z</time>
  <course>10.17</course>
  <speed>0.35</speed>
  <fix>3d</fix>
</trkpt>
<trkpt lat="40.0713566" lon="-105.2298873">
  <ele>1583.18</ele>
  <time>2026-08-28T17:49:36Z</time>
  <course>11.02</course>
  <speed>0.28442925306655786</speed>
  <fix>3d</fix>
</trkpt>
<trkpt lat="40.0713563" lon="-105.2298875">
  <ele>1583.0</ele>
  <time>2026-08-28T17:49:36Z</time>
  <course>10.17</course>
  <speed>0.31</speed>
  <fix>3d</fix>
</trkpt>
<trkpt lat="40.0713569" lon="-105.2298873">
  <ele>1583.19</ele>
  <time>2026-08-28T17:49:36Z</time>
  <course>11.02</course>
  <speed>0.26476404589747454</speed>
  <fix>3d</fix>
</trkpt>
<trkpt lat="40.0713563" lon="-105.2298875">
  <ele>1583.0</ele>
  <time>2026-08-28T17:49:36Z</time>
  <course>10.17</course>
  <speed>0.31</speed>
  <fix>3d</fix>
</trkpt>
<trkpt lat="40.0713571" lon="-105.2298872">
  <ele>1583.19</ele>
  <time>2026-08-28T17:49:36Z</time>
  <course>11.03</course>
  <speed>0.25495097567963926</speed>
  <fix>3d</fix>
</trkpt>
<trkpt lat="40.0713569" lon="-105.2298874">
  <ele>1583.0</ele>
  <time>2026-08-28T17:49:36Z</time>
  <course>10.17</course>
  <speed>0.28</speed>
  <fix>3d</fix>
</trkpt>
<trkpt lat="40.0713573" lon="-105.2298872">
  <ele>1583.19</ele>
  <time>2026-08-28T17:49:36Z</time>
  <course>11.03</course>
  <speed>0.2353720459187964</speed>
  <fix>3d</fix>
</trkpt>
<trkpt lat="40.0713569" lon="-105.2298874">
  <ele>1583.0</ele>
  <time>2026-08-28T17:49:36Z</time>
  <course>10.17</course>
  <speed>0.28</speed>
  <fix>3d</fix>
</trkpt>
<trkpt lat="40.0713575" lon="-105.2298871">
  <ele>1583.19</ele>
  <time>2026-08-28T17:49:36Z</time>
  <course>11.03</course>
  <speed>0.223606797749979</speed>
  <fix>3d</fix>
</trkpt>
<trkpt lat="40.0713573" lon="-105.2298873">
  <ele>1583.0</ele>
  <time>2026-08-28T17:49:36Z</time>
  <course>10.18</course>
  <speed>0.25</speed>
  <fix>3d</fix>
</trkpt>
<trkpt lat="40.0713577" lon="-105.2298871">
  <ele>1583.19</ele>
  <time>2026-08-28T17:49:36Z</time>
  <course>11.03</course>
  <speed>0.21377558326431947</speed>
  <fix>3d</fix>
</trkpt>
<trkpt lat="40.0713573" lon="-105.2298873">
  <ele>1583.0</ele>
  <time>2026-08-28T17:49:36Z</time>
  <course>10.18</course>
  <speed>0.25</speed>
  <fix>3d</fix>
</trkpt>
<trkpt lat="40.0713579" lon="-105.2298871">
  <ele>1583.19</ele>
  <time>2026-08-28T17:49:36Z</time>
  <course>11.03</course>
  <speed>0.2039607805437114</speed>
  <fix>3d</fix>
</trkpt>
<trkpt lat="40.0713578" lon="-105.2298872">
  <ele>1583.0</ele>
  <time>2026-08-28T17:49:36Z</time>
  <course>10.18</course>
  <speed>0.23</speed>
  <fix>3d</fix>
</trkpt>
<trkpt lat="40.0713581" lon="-105.229887">
  <ele>1583.19</ele>
  <time>2026-08-28T17:49:36Z</time>
  <course>11.03</course>
  <speed>0.18439088914585774</speed>
  <fix>3d</fix>
</trkpt>
<trkpt lat="40.0713578" lon="-105.2298872">
  <ele>1583.0</ele>
  <time>2026-08-28T17:49:36Z</time>
  <course>10.18</course>
  <speed>0.23</speed>
  <fix>3d</fix>
</trkpt>
<trkpt lat="40.0713583" lon="-105.229887">
  <ele>1583.19</ele>
  <time>2026-08-28T17:49:36Z</time>
  <course>11.04</course>
  <speed>0.17262676501632068</speed>
  <fix>3d</fix>
</trkpt>
<trkpt lat="40.0713578" lon="-105.2298872">
  <ele>1583.0</ele>
  <time>2026-08-28T17:49:36Z</time>
  <course>10.18</course>
  <speed>0.23</speed>
  <fix>3d</fix>
</trkpt>
<trkpt lat="40.0713584" lon="-105.229887">
  <ele>1583.19</ele>
  <time>2026-08-28T17:49:36Z</time>
  <course>11.04</course>
  <speed>0.16278820596099705</speed>
  <fix>3d</fix>
</trkpt>
<trkpt lat="40.0713582" lon="-105.2298871">
  <ele>1583.0</ele>
  <time>2026-08-28T17:49:36Z</time>
  <course>10.18</course>
  <speed>0.21</speed>
  <fix>3d</fix>
</trkpt>
<trkpt lat="40.0713586" lon="-105.2298869">
  <ele>1583.19</ele>
  <time>2026-08-28T17:49:36Z</time>
  <course>11.04</course>
  <speed>0.15297058540778355</speed>
  <fix>3d</fix>
</trkpt>
<trkpt lat="40.0713582" lon="-105.2298871">
  <ele>1583.0</ele>
  <time>2026-08-28T17:49:36Z</time>
  <course>10.18</course>
  <speed>0.21</speed>
  <fix>3d</fix>
</trkpt>
<trkpt lat="40.0713588" lon="-105.2298869">
  <ele>1583.19</ele>
  <time>2026-08-28T17:49:36Z</time>
  <course>11.04</course>
  <speed>0.14317821063276354</speed>
  <fix>3d</fix>
</trkpt>
<trkpt lat="40.0713585" lon="-105.229887">
  <ele>1583.0</ele>
  <time>2026-08-28T17:49:36Z</time>
  <course>10.18</course>
  <speed>0.19</speed>
  <fix>3d</fix>
</trkpt>
<trkpt lat="40.0713589" lon="-105.2298869">
  <ele>1583.2</ele>
  <time>2026-08-28T17:49:36Z</time>
  <course>11.04</course>
  <speed>0.14317821063276354</speed>
  <fix>3d</fix>
</trkpt>
<trkpt lat="40.0713585" lon="-105.229887">
  <ele>1583.0</ele>
  <time>2026-08-28T17:49:36Z</time>
  <course>10.18</course>
  <speed>0.19</speed>
  <fix>3d</fix>
</trkpt>
<trkpt lat="40.071359" lon="-105.2298868">
  <ele>1583.2</ele>
  <time>2026-08-28T17:49:36Z</time>
  <course>11.05</course>
  <speed>0.13341664064126335</speed>
  <fix>3d</fix>
</trkpt>
<trkpt lat="40.0713588" lon="-105.2298869">
  <ele>1583.0</ele>
  <time>2026-08-28T17:49:36Z</time>
  <course>10.18</course>
  <speed>0.17</speed>
  <fix>3d</fix>
</trkpt>
<trkpt lat="40.0713591" lon="-105.2298868">
  <ele>1583.2</ele>
  <time>2026-08-28T17:49:36Z</time>
  <course>11.05</course>
  <speed>0.12369316876852982</speed>
  <fix>3d</fix>
</trkpt>
<trkpt lat="40.0713588" lon="-105.2298869">
  <ele>1583.0</ele>
  <time>2026-08-28T17:49:36Z</time>
  <course>10.18</course>
  <speed>0.17</speed>
  <fix>3d</fix>
</trkpt>
<trkpt lat="40.0713593" lon="-105.2298868">
  <ele>1583.2</ele>
  <time>2026-08-28T17:49:36Z</time>
  <course>11.05</course>
  <speed>0.1118033988749895</speed>
  <fix>3d</fix>
</trkpt>
<trkpt lat="40.0713591" lon="-105.2298869">
  <ele>1583.0</ele>
  <time>2026-08-28T17:49:36Z</time>
  <course>10.18</course>
  <speed>0.15</speed>
  <fix>3d</fix>
</trkpt>
<trkpt lat="40.0713594" lon="-105.2298868">
  <ele>1583.19</ele>
  <time>2026-08-28T17:49:36Z</time>
  <course>11.05</course>
  <speed>0.1019803902718557</speed>
  <fix>3d</fix>
</trkpt>
<trkpt lat="40.0713594" lon="-105.2298868">
  <ele>1583.0</ele>
  <time>2026-08-28T17:49:36Z</time>
  <course>10.18</course>
  <speed>0.14</speed>
  <fix>3d</fix>
</trkpt>
<trkpt lat="40.0713595" lon="-105.2298867">
  <ele>1583.19</ele>
  <time>2026-08-28T17:49:36Z</time>
  <course>11.05</course>
  <speed>0.1019803902718557</speed>
  <fix>3d</fix>
</trkpt>
<trkpt lat="40.0713594" lon="-105.2298868">
  <ele>1583.0</ele>
  <time>2026-08-28T17:49:36Z</time>
  <course>10.18</course>
  <speed>0.14</speed>
  <fix>3d</fix>
</trkpt>
<trkpt lat="40.0713596" lon="-105.2298867">
  <ele>1583.19</ele>
  <time>2026-08-28T17:49:36Z</time>
  <course>11.06</course>
  <speed>0.09219544457292887</speed>
  <fix>3d</fix>
</trkpt>
<trkpt lat="40.0713597" lon="-105.2298867">
  <ele>1583.0</ele>
  <time>2026-08-28T17:49:36Z</time>
  <course>10.19</course>
  <speed>0.12</speed>
  <fix>3d</fix>
</trkpt>
<trkpt lat="40.0713597" lon="-105.2298867">
  <ele>1583.19</ele>
  <time>2026-08-28T17:49:36Z</time>
  <course>11.06</course>
  <speed>0.0824621125123532</speed>
  <fix>3d</fix>
</trkpt>
<trkpt lat="40.0713597" lon="-105.2298867">
  <ele>1583.0</ele>
  <time>2026-08-28T17:49:36Z</time>
  <course>10.19</course>
  <speed>0.12</speed>
  <fix>3d</fix>
</trkpt>
<trkpt lat="40.0713598" lon="-105.2298867">
  <ele>1583.19</ele>
  <time>2026-08-28T17:49:36Z</time>
  <course>11.06</course>
  <speed>0.0824621125123532</speed>
  <fix>3d</fix>
</trkpt>
<trkpt lat="40.0713599" lon="-105.2298867">
  <ele>1583.0</ele>
  <time>2026-08-28T17:49:36Z</time>
  <course>10.19</course>
  <speed>0.11</speed>
  <fix>3d</fix>
</trkpt>
<trkpt lat="40.0713599" lon="-105.2298866">
  <ele>1583.19</ele>
  <time>2026-08-28T17:49:36Z</time>
  <course>11.06</course>
  <speed>0.07280109889280519</speed>
  <fix>3d</fix>
</trkpt>
<trkpt lat="40.0713599" lon="-105.2298867">
  <ele>1583.0</ele>
  <time>2026-08-28T17:49:36Z</time>
  <course>10.19</course>
  <speed>0.11</speed>
  <fix>3d</fix>
</trkpt>
<trkpt lat="40.07136" lon="-105.2298866">
  <ele>1583.19</ele>
  <time>2026-08-28T17:49:36Z</time>
  <course>11.06</course>
  <speed>0.07280109889280519</speed>
  <fix>3d</fix>
</trkpt>
<trkpt lat="40.0713601" lon="-105.2298867">
  <ele>1583.0</ele>
  <time>2026-08-28T17:49:36Z</time>
  <course>10.19</course>
  <speed>0.1</speed>
  <fix>3d</fix>
</trkpt>
<trkpt lat="40.07136" lon="-105.2298866">
  <ele>1583.19</ele>
  <time>2026-08-28T17:49:36Z</time>
  <course>11.07</course>
  <speed>0.0632455532033676</speed>
  <fix>3d</fix>
</trkpt>
<trkpt lat="40.0713601" lon="-105.2298867">
  <ele>1583.0</ele>
  <time>2026-08-28T17:49:36Z</time>
  <course>10.19</course>
  <speed>0.1</speed>
  <fix>3d</fix>
</trkpt>
<trkpt lat="40.0713601" lon="-105.2298866">
  <ele>1583.19</ele>
  <time>2026-08-28T17:49:36Z</time>
  <course>11.07</course>
  <speed>0.0632455532033676</speed>
  <fix>3d</fix>
</trkpt>
<trkpt lat="40.0713602" lon="-105.2298866">
  <ele>1583.0</ele>
  <time>2026-08-28T17:49:36Z</time>
  <course>10.19</course>
  <speed>0.09</speed>
  <fix>3d</fix>
</trkpt>
<trkpt lat="40.0713602" lon="-105.2298866">
  <ele>1583.18</ele>
  <time>2026-08-28T17:49:36Z</time>
  <course>11.07</course>
  <speed>0.053851648071345036</speed>
  <fix>3d</fix>
</trkpt>
<trkpt lat="40.0713602" lon="-105.2298866">
  <ele>1583.0</ele>
  <time>2026-08-28T17:49:36Z</time>
  <course>10.19</course>
  <speed>0.09</speed>
  <fix>3d</fix>
</trkpt>
<trkpt lat="40.0713603" lon="-105.2298865">
  <ele>1583.18</ele>
  <time>2026-08-28T17:49:36Z</time>
  <course>11.07</course>
  <speed>0.053851648071345036</speed>
  <fix>3d</fix>
</trkpt>
<trkpt lat="40.0713604" lon="-105.2298866">
  <ele>1583.0</ele>
  <time>2026-08-28T17:49:36Z</time>
  <course>10.2</course>
  <speed>0.08</speed>
  <fix>3d</fix>
</trkpt>
<trkpt lat="40.0713603" lon="-105.2298865">
  <ele>1583.18</ele>
  <time>2026-08-28T17:49:36Z</time>
  <course>11.07</course>
  <speed>0.044721359549995794</speed>
  <fix>3d</fix>
</trkpt>
<trkpt lat="40.0713604" lon="-105.2298866">
  <ele>1583.0</ele>
  <time>2026-08-28T17:49:36Z</time>
  <course>10.2</course>
  <speed>0.08</speed>
  <fix>3d</fix>
</trkpt>
<trkpt lat="40.0713604" lon="-105.2298865">
  <ele>1583.19</ele>
  <time>2026-08-28T17:49:36Z</time>
  <course>11.08</course>
  <speed>0.044721359549995794</speed>
  <fix>3d</fix>
</trkpt>
<trkpt lat="40.0713606" lon="-105.2298866">
  <ele>1583.0</ele>
  <time>2026-08-28T17:49:36Z</time>
  <course>10.2</course>
  <speed>0.07</speed>
  <fix>3d</fix>
</trkpt>
<trkpt lat="40.0713605" lon="-105.2298865">
  <ele>1583.19</ele>
  <time>2026-08-28T17:49:36Z</time>
  <course>11.08</course>
  <speed>0.044721359549995794</speed>
  <fix>3d</fix>
</trkpt>
<trkpt lat="40.0713606" lon="-105.2298866">
  <ele>1583.0</ele>
  <time>2026-08-28T17:49:36Z</time>
  <course>10.2</course>
  <speed>0.07</speed>
  <fix>3d</fix>
</trkpt>
<trkpt lat="40.0713605" lon="-105.2298865">
  <ele>1583.19</ele>
  <time>2026-08-28T17:49:36Z</time>
  <course>11.08</course>
  <speed>0.0316227766016838</speed>
  <fix>3d</fix>
</trkpt>
<trkpt lat="40.0713606" lon="-105.2298866">
  <ele>1583.0</ele>
  <time>2026-08-28T17:49:36Z</time>
  <course>10.2</course>
  <speed>0.07</speed>
  <fix>3d</fix>
</trkpt>
<trkpt lat="40.0713606" lon="-105.2298865">
  <ele>1583.19</ele>
  <time>2026-08-28T17:49:36Z</time>
  <course>11.08</course>
  <speed>0.0316227766016838</speed>
  <fix>3d</fix>
</trkpt>
<trkpt lat="40.0713607" lon="-105.2298865">
  <ele>1583.0</ele>
  <time>2026-08-28T17:49:36Z</time>
  <course>10.2</course>
  <speed>0.07</speed>
  <fix>3d</fix>
</trkpt>
<trkpt lat="40.0713606" lon="-105.2298864">
  <ele>1583.19</ele>
  <time>2026-08-28T17:49:36Z</time>
  <course>11.08</course>
  <speed>0.0316227766016838</speed>
  <fix>3d</fix>
</trkpt>
<trkpt lat="40.0713607" lon="-105.2298865">
  <ele>1583.0</ele>
  <time>2026-08-28T17:49:36Z</time>
  <course>10.2</course>
  <speed>0.07</speed>
  <fix>3d</fix>
</trkpt>
<trkpt lat="40.0713607" lon="-105.2298864">
  <ele>1583.19</ele>
  <time>2026-08-28T17:49:36Z</time>
  <course>11.09</course>
  <speed>0.022360679774997897</speed>
  <fix>3d</fix>
</trkpt>
<trkpt lat="40.0713608" lon="-105.2298864">
  <ele>1583.0</ele>
  <time>2026-08-28T17:49:36Z</time>
  <course>10.21</course>
  <speed>0.06</speed>
  <fix>3d</fix>
</trkpt>
<trkpt lat="40.0713607" lon="-105.2298864">
  <ele>1583.19</ele>
  <time>2026-08-28T17:49:36Z</time>
  <course>11.09</course>
  <speed>0.022360679774997897</speed>
  <fix>3d</fix>
</trkpt>
<trkpt lat="40.0713608" lon="-105.2298864">
  <ele>1583.0</ele>
  <time>2026-08-28T17:49:36Z</time>
  <course>10.21</course>
  <speed>0.06</speed>
  <fix>3d</fix>
</trkpt>
<trkpt lat="40.0713608" lon="-105.2298864">
  <ele>1583.19</ele>
  <time>2026-08-28T17:49:36Z</time>
  <course>11.09</course>
  <speed>0.022360679774997897</speed>
  <fix>3d</fix>
</trkpt>
<trkpt lat="40.0713609" lon="-105.2298864">
  <ele>1583.0</ele>
  <time>2026-08-28T17:49:36Z</time>
  <course>10.21</course>
  <speed>0.05</speed>
  <fix>3d</fix>
</trkpt>
<trkpt lat="40.0713608" lon="-105.2298864">
  <ele>1583.2</ele>
  <time>2026-08-28T17:49:36Z</time>
  <course>11.09</course>
  <speed>0.022360679774997897</speed>
  <fix>3d</fix>
</trkpt>
<trkpt lat="40.071361" lon="-105.2298864">
  <ele>1583.0</ele>
  <time>2026-08-28T17:49:36Z</time>
  <course>10.21</course>
  <speed>0.05</speed>
  <fix>3d</fix>
</trkpt>
<trkpt lat="40.0713608" lon="-105.2298864">
  <ele>1583.2</ele>
  <time>2026-08-28T17:49:36Z</time>
  <course>11.09</course>
  <speed>0.01414213562373095</speed>
  <fix>3d</fix>
</trkpt>
<trkpt lat="40.071361" lon="-105.2298864">
  <ele>1583.0</ele>
  <time>2026-08-28T17:49:36Z</time>
  <course>10.21</course>
  <speed>0.05</speed>
  <fix>3d</fix>
</trkpt>
<trkpt lat="40.0713609" lon="-105.2298863">
  <ele>1583.19</ele>
  <time>2026-08-28T17:49:36Z</time>
  <course>11.1</course>
  <speed>0.01414213562373095</speed>
  <fix>3d</fix>
</trkpt>
<trkpt lat="40.0713611" lon="-105.2298864">
  <ele>1583.0</ele>
  <time>2026-08-28T17:49:36Z</time>
  <course>10.22</course>
  <speed>0.04</speed>
  <fix>3d</fix>
</trkpt>
<trkpt lat="40.0713609" lon="-105.2298863">
  <ele>1583.19</ele>
  <time>2026-08-28T17:49:36Z</time>
  <course>11.1</course>
  <speed>0.01414213562373095</speed>
  <fix>3d</fix>
</trkpt>
<trkpt lat="40.0713611" lon="-105.2298864">
  <ele>1583.0</ele>
  <time>2026-08-28T17:49:36Z</time>
  <course>10.22</course>
  <speed>0.04</speed>
  <fix>3d</fix>
</trkpt>
<trkpt lat="40.071361" lon="-105.2298863">
  <ele>1583.19</ele>
  <time>2026-08-28T17:49:36Z</time>
  <course>11.1</course>
  <speed>0.01414213562373095</speed>
  <fix>3d</fix>
</trkpt>
<trkpt lat="40.0713612" lon="-105.2298864">
  <ele>1583.0</ele>
  <time>2026-08-28T17:49:36Z</time>
  <course>10.23</course>
  <speed>0.04</speed>
  <fix>3d</fix>
</trkpt>
<trkpt lat="40.071361" lon="-105.2298863">
  <ele>1583.19</ele>
  <time>2026-08-28T17:49:36Z</time>
  <course>11.1</course>
  <speed>0.01</speed>
  <fix>3d</fix>
</trkpt>
<trkpt lat="40.0713612" lon="-105.2298864">
  <ele>1583.0</ele>
  <time>2026-08-28T17:49:36Z</time>
  <course>10.23</course>
  <speed>0.04</speed>
  <fix>3d</fix>
</trkpt>
<trkpt lat="40.071361" lon="-105.2298863">
  <ele>1583.19</ele>
  <time>2026-08-28T17:49:36Z</time>
  <course>11.1</course>
  <speed>0.01</speed>
  <fix>3d</fix>
</trkpt>
<trkpt lat="40.0713613" lon="-105.2298864">
  <ele>1583.0</ele>
  <time>2026-08-28T17:49:36Z</time>
  <course>10.23</course>
  <speed>0.03</speed>
  <fix>3d</fix>
</trkpt>
<trkpt lat="40.0713611" lon="-105.2298863">
  <ele>1583.19</ele>
  <time>2026-08-28T17:49:36Z</time>
  <course>11.1</course>
  <speed>0.01</speed>
  <fix>3d</fix>
</trkpt>
<trkpt lat="40.0713613" lon="-105.2298864">
  <ele>1583.0</ele>
  <time>2026-08-28T17:49:36Z</time>
  <course>10.23</course>
  <speed>0.03</speed>
  <fix>3d</fix>
</trkpt>
<trkpt lat="40.0713611" lon="-105.2298863">
  <ele>1583.19</ele>
  <time>2026-08-28T17:49:36Z</time>
  <course>11.11</course>
  <speed>0.01</speed>
  <fix>3d</fix>
</trkpt>
<trkpt lat="40.0713613" lon="-105.2298864">
  <ele>1583.0</ele>
  <time>2026-08-28T17:49:36Z</time>
  <course>10.24</course>
  <speed>0.03</speed>
  <fix>3d</fix>
</trkpt>
<trkpt lat="40.0713611" lon="-105.2298863">
  <ele>1583.19</ele>
  <time>2026-08-28T17:49:36Z</time>
  <course>11.11</course>
  <speed>0.01</speed>
  <fix>3d</fix>
</trkpt>
<trkpt lat="40.0713613" lon="-105.2298864">
  <ele>1583.0</ele>
  <time>2026-08-28T17:49:36Z</time>
  <course>10.24</course>
  <speed>0.03</speed>
  <fix>3d</fix>
</trkpt>
<trkpt lat="40.0713611" lon="-105.2298863">
  <ele>1583.19</ele>
  <time>2026-08-28T17:49:36Z</time>
  <course>11.11</course>
  <speed>0.01</speed>
  <fix>3d</fix>
</trkpt>
<trkpt lat="40.0713614" lon="-105.2298864">
  <ele>1583.0</ele>
  <time>2026-08-28T17:49:36Z</time>
  <course>10.25</course>
  <speed>0.03</speed>
  <fix>3d</fix>
</trkpt>
<trkpt lat="40.0713612" lon="-105.2298863">
  <ele>1583.19</ele>
  <time>2026-08-28T17:49:36Z</time>
  <course>11.11</course>
  <speed>0.01</speed>
  <fix>3d</fix>
</trkpt>
<trkpt lat="40.0713614" lon="-105.2298864">
  <ele>1583.0</ele>
  <time>2026-08-28T17:49:36Z</time>
  <course>10.25</course>
  <speed>0.03</speed>
  <fix>3d</fix>
</trkpt>
<trkpt lat="40.0713612" lon="-105.2298863">
  <ele>1583.19</ele>
  <time>2026-08-28T17:49:36Z</time>
  <course>11.11</course>
  <speed>0.01</speed>
  <fix>3d</fix>
</trkpt>
<trkpt lat="40.0713614" lon="-105.2298864">
  <ele>1583.0</ele>
  <time>2026-08-28T17:49:36Z</time>
  <course>10.26</course>
  <speed>0.02</speed>
  <fix>3d</fix>
</trkpt>
<trkpt lat="40.0713612" lon="-105.2298863">
  <ele>1583.19</ele>
  <time>2026-08-28T17:49:36Z</time>
  <course>11.11</course>
  <speed>0.01</speed>
  <fix>3d</fix>
</trkpt>
<trkpt lat="40.0713614" lon="-105.2298864">
  <ele>1583.0</ele>
  <time>2026-08-28T17:49:36Z</time>
  <course>10.26</course>
  <speed>0.02</speed>
  <fix>3d</fix>
</trkpt>
<trkpt lat="40.0713612" lon="-105.2298862">
  <ele>1583.19</ele>
  <time>2026-08-28T17:49:36Z</time>
  <course>11.11</course>
  <speed>0.01</speed>
  <fix>3d</fix>
</trkpt>
<trkpt lat="40.0713614" lon="-105.2298864">
  <ele>1583.0</ele>
  <time>2026-08-28T17:49:36Z</time>
  <course>10.26</course>
  <speed>0.02</speed>
  <fix>3d</fix>
</trkpt>
<trkpt lat="40.0713612" lon="-105.2298862">
  <ele>1583.2</ele>
  <time>2026-08-28T17:49:36Z</time>
  <course>11.11</course>
  <speed>0.01</speed>
  <fix>3d</fix>
</trkpt>
<trkpt lat="40.0713614" lon="-105.2298864">
  <ele>1583.0</ele>
  <time>2026-08-28T17:49:36Z</time>
  <course>10.26</course>
  <speed>0.02</speed>
  <fix>3d</fix>
</trkpt>
<trkpt lat="40.0713613" lon="-105.2298862">
  <ele>1583.2</ele>
  <time>2026-08-28T17:49:36Z</time>
  <course>11.12</course>
  <speed>0.01</speed>
  <fix>3d</fix>
</trkpt>
<trkpt lat="40.0713614" lon="-105.2298864">
  <ele>1583.0</ele>
  <time>2026-08-28T17:49:36Z</time>
  <course>10.26</course>
  <speed>0.02</speed>
  <fix>3d</fix>
</trkpt>
<trkpt lat="40.0713613" lon="-105.2298862">
  <ele>1583.19</ele>
  <time>2026-08-28T17:49:36Z</time>
  <course>11.12</course>
  <speed>0.01</speed>
  <fix>3d</fix>
</trkpt>
<trkpt lat="40.0713615" lon="-105.2298864">
  <ele>1583.0</ele>
  <time>2026-08-28T17:49:36Z</time>
  <course>10.28</course>
  <speed>0.02</speed>
  <fix>3d</fix>
</trkpt>
<trkpt lat="40.0713613" lon="-105.2298862">
  <ele>1583.19</ele>
  <time>2026-08-28T17:49:36Z</time>
  <course>11.12</course>
  <speed>0.01</speed>
  <fix>3d</fix>
</trkpt>
<trkpt lat="40.0713615" lon="-105.2298864">
  <ele>1583.0</ele>
  <time>2026-08-28T17:49:36Z</time>
  <course>10.28</course>
  <speed>0.02</speed>
  <fix>3d</fix>
</trkpt>
<trkpt lat="40.0713613" lon="-105.2298862">
  <ele>1583.19</ele>
  <time>2026-08-28T17:49:36Z</time>
  <course>11.12</course>
  <speed>0.01414213562373095</speed>
  <fix>3d</fix>
</trkpt>
<trkpt lat="40.0713615" lon="-105.2298863">
  <ele>1583.0</ele>
  <time>2026-08-28T17:49:36Z</time>
  <course>10.29</course>
  <speed>0.02</speed>
  <fix>3d</fix>
</trkpt>
<trkpt lat="40.0713613" lon="-105.2298862">
  <ele>1583.19</ele>
  <time>2026-08-28T17:49:36Z</time>
  <course>11.12</course>
  <speed>0.01414213562373095</speed>
  <fix>3d</fix>
</trkpt>
<trkpt lat="40.0713615" lon="-105.2298863">
  <ele>1583.0</ele>
  <time>2026-08-28T17:49:36Z</time>
  <course>10.29</course>
  <speed>0.02</speed>
  <fix>3d</fix>
</trkpt>
<trkpt lat="40.0713613" lon="-105.2298862">
  <ele>1583.19</ele>
  <time>2026-08-28T17:49:36Z</time>
  <course>11.12</course>
  <speed>0.01414213562373095</speed>
  <fix>3d</fix>
</trkpt>
<trkpt lat="40.0713616" lon="-105.2298862">
  <ele>1583.0</ele>
  <time>2026-08-28T17:49:36Z</time>
  <course>10.3</course>
  <speed>0.01</speed>
  <fix>3d</fix>
</trkpt>
<trkpt lat="40.0713613" lon="-105.2298862">
  <ele>1583.19</ele>
  <time>2026-08-28T17:49:36Z</time>
  <course>11.12</course>
  <speed>0.01414213562373095</speed>
  <fix>3d</fix>
</trkpt>
<trkpt lat="40.0713617" lon="-105.2298862">
  <ele>1583.0</ele>
  <time>2026-08-28T17:49:36Z</time>
  <course>10.31</course>
  <speed>0.01</speed>
  <fix>3d</fix>
</trkpt>
<trkpt lat="40.0713614" lon="-105.2298862">
  <ele>1583.19</ele>
  <time>2026-08-28T17:49:36Z</time>
  <course>11.12</course>
  <speed>0.01414213562373095</speed>
  <fix>3d</fix>
</trkpt>
<trkpt lat="40.0713617" lon="-105.2298862">
  <ele>1583.0</ele>
  <time>2026-08-28T17:49:36Z</time>
  <course>10.31</course>
  <speed>0.01</speed>
  <fix>3d</fix>
</trkpt>
<trkpt lat="40.0713614" lon="-105.2298862">
  <ele>1583.19</ele>
  <time>2026-08-28T17:49:36Z</time>
  <course>11.12</course>
  <speed>0.01414213562373095</speed>
  <fix>3d</fix>
</trkpt>
<trkpt lat="40.0713617" lon="-105.2298862">
  <ele>1583.0</ele>
  <time>2026-08-28T17:49:36Z</time>
  <course>10.33</course>
  <speed>0.01</speed>
  <fix>3d</fix>
</trkpt>
<trkpt lat="40.0713614" lon="-105.2298862">
  <ele>1583.19</ele>
  <time>2026-08-28T17:49:36Z</time>
  <course>11.12</course>
  <speed>0.01414213562373095</speed>
  <fix>3d</fix>
</trkpt>
<trkpt lat="40.0713617" lon="-105.2298862">
  <ele>1583.0</ele>
  <time>2026-08-28T17:49:36Z</time>
  <course>10.33</course>
  <speed>0.01</speed>
  <fix>3d</fix>
</trkpt>
<trkpt lat="40.0713614" lon="-105.2298862">
  <ele>1583.19</ele>
  <time>2026-08-28T17:49:36Z</time>
  <course>11.13</course>
  <speed>0.01414213562373095</speed>
  <fix>3d</fix>
</trkpt>
<trkpt lat="40.0713617" lon="-105.2298862">
  <ele>1583.0</ele>
  <time>2026-08-28T17:49:36Z</time>
  <course>10.35</course>
  <speed>0.01</speed>
  <fix>3d</fix>
</trkpt>
<trkpt lat="40.0713614" lon="-105.2298862">
  <ele>1583.19</ele>
  <time>2026-08-28T17:49:36Z</time>
  <course>11.13</course>
  <speed>0.01414213562373095</speed>
  <fix>3d</fix>
</trkpt>
<trkpt lat="40.0713617" lon="-105.2298862">
  <ele>1583.0</ele>
  <time>2026-08-28T17:49:36Z</time>
  <course>10.35</course>
  <speed>0.01</speed>
  <fix>3d</fix>
</trkpt>
<trkpt lat="40.0713614" lon="-105.2298861">
  <ele>1583.19</ele>
  <time>2026-08-28T17:49:36Z</time>
  <course>11.13</course>
  <speed>0.01414213562373095</speed>
  <fix>3d</fix>
</trkpt>
<trkpt lat="40.0713617" lon="-105.2298862">
  <ele>1583.0</ele>
  <time>2026-08-28T17:49:36Z</time>
  <course>10.37</course>
  <speed>0.01</speed>
  <fix>3d</fix>
</trkpt>
<trkpt lat="40.0713615" lon="-105.2298861">
  <ele>1583.19</ele>
  <time>2026-08-28T17:49:36Z</time>
  <course>11.13</course>
  <speed>0.022360679774997897</speed>
  <fix>3d</fix>
</trkpt>
<trkpt lat="40.0713617" lon="-105.2298862">
  <ele>1583.0</ele>
  <time>2026-08-28T17:49:36Z</time>
  <course>10.37</course>
  <speed>0.01</speed>
  <fix>3d</fix>
</trkpt>
<trkpt lat="40.0713615" lon="-105.2298861">
  <ele>1583.19</ele>
  <time>2026-08-28T17:49:36Z</time>
  <course>11.13</course>
  <speed>0.0670820393249937</speed>
  <fix>3d</fix>
</trkpt>
<trkpt lat="40.0713618" lon="-105.2298862">
  <ele>1583.0</ele>
  <time>2026-08-28T17:49:36Z</time>
  <course>10.21</course>
  <speed>0.05</speed>
  <fix>3d</fix>
</trkpt>
<trkpt lat="40.0713617" lon="-105.2298861">
  <ele>1583.19</ele>
  <time>2026-08-28T17:49:36Z</time>
  <course>11.13</course>
  <speed>0.23769728648009425</speed>
  <fix>3d</fix>
</trkpt>
<trkpt lat="40.0713618" lon="-105.2298862">
  <ele>1583.0</ele>
  <time>2026-08-28T17:49:36Z</time>
  <course>10.21</course>
  <speed>0.05</speed>
  <fix>3d</fix>
</trkpt>
<trkpt lat="40.071362" lon="-105.229886">
  <ele>1583.19</ele>
  <time>2026-08-28T17:49:36Z</time>
  <course>11.13</course>
  <speed>0.49244289008980524</speed>
  <fix>3d</fix>
</trkpt>
<trkpt lat="40.071362" lon="-105.2298862">
  <ele>1583.0</ele>
  <time>2026-08-28T17:49:36Z</time>
  <course>10.17</course>
  <speed>0.3</speed>
  <fix>3d</fix>
</trkpt>
<trkpt lat="40.0713627" lon="-105.2298858">
  <ele>1583.19</ele>
  <time>2026-08-28T17:49:36Z</time>
  <course>11.13</course>
  <speed>0.82</speed>
  <fix>3d</fix>
</trkpt>
<trkpt lat="40.071362" lon="-105.2298862">
  <ele>1583.0</ele>
  <time>2026-08-28T17:49:36Z</time>
  <course>10.17</course>
  <speed>0.3</speed>
  <fix>3d</fix>
</trkpt>
<trkpt lat="40.0713636" lon="-105.2298856">
  <ele>1583.19</ele>
  <time>2026-08-28T17:49:36Z</time>
  <course>11.13</course>
  <speed>1.135649593844862</speed>
  <fix>3d</fix>
</trkpt>
<trkpt lat="40.071363" lon="-105.2298859">
  <ele>1583.0</ele>
  <time>2026-08-28T17:49:36Z</time>
  <course>10.17</course>
  <speed>0.84</speed>
  <fix>3d</fix>
</trkpt>
<trkpt lat="40.0713648" lon="-105.2298853">
  <ele>1583.19</ele>
  <time>2026-08-28T17:49:36Z</time>
  <course>11.13</course>
  <speed>1.4415616532080755</speed>
  <fix>3d</fix>
</trkpt>
<trkpt lat="40.071363" lon="-105.2298859">
  <ele>1583.0</ele>
  <time>2026-08-28T17:49:36Z</time>
  <course>10.17</course>
  <speed>0.84</speed>
  <fix>3d</fix>
</trkpt>
<trkpt lat="40.0713663" lon="-105.2298849">
  <ele>1583.19</ele>
  <time>2026-08-28T17:49:36Z</time>
  <course>11.13</course>
  <speed>1.7160710940983768</speed>
  <fix>3d</fix>
</trkpt>
<trkpt lat="40.071363" lon="-105.2298859">
  <ele>1583.0</ele>
  <time>2026-08-28T17:49:36Z</time>
  <course>10.17</course>
  <speed>0.84</speed>
  <fix>3d</fix>
</trkpt>
<trkpt lat="40.071368" lon="-105.2298845">
  <ele>1583.19</ele>
  <time>2026-08-28T17:49:36Z</time>
  <course>11.12</course>
  <speed>1.9906029237394385</speed>
  <fix>3d</fix>
</trkpt>
<trkpt lat="40.071365" lon="-105.2298855">
  <ele>1583.0</ele>
  <time>2026-08-28T17:49:36Z</time>
  <course>10.17</course>
  <speed>1.44</speed>
  <fix>3d</fix>
</trkpt>
<trkpt lat="40.0713699" lon="-105.229884">
  <ele>1583.19</ele>
  <time>2026-08-28T17:49:36Z</time>
  <course>11.12</course>
  <speed>2.245551157288562</speed>
  <fix>3d</fix>
</trkpt>
<trkpt lat="40.071365" lon="-105.2298855">
  <ele>1583.0</ele>
  <time>2026-08-28T17:49:36Z</time>
  <course>10.17</course>
  <speed>1.44</speed>
  <fix>3d</fix>
</trkpt>
<trkpt lat="40.071372" lon="-105.2298834">
  <ele>1583.19</ele>
  <time>2026-08-28T17:49:36Z</time>
  <course>11.11</course>
  <speed>2.4907027120874945</speed>
  <fix>3d</fix>
</trkpt>
<trkpt lat="40.0713681" lon="-105.2298847">
  <ele>1583.0</ele>
  <time>2026-08-28T17:49:36Z</time>
  <course>10.17</course>
  <speed>1.99</speed>
  <fix>3d</fix>
</trkpt>
<trkpt lat="40.0713744" lon="-105.2298829">
  <ele>1583.19</ele>
  <time>2026-08-28T17:49:36Z</time>
  <course>11.1</course>
  <speed>2.7240594707164525</speed>
  <fix>3d</fix>
</trkpt>
<trkpt lat="40.0713681" lon="-105.2298847">
  <ele>1583.0</ele>
  <time>2026-08-28T17:49:36Z</time>
  <course>10.17</course>
  <speed>1.99</speed>
  <fix>3d</fix>
</trkpt>
<trkpt lat="40.071377" lon="-105.2298822">
  <ele>1583.2</ele>
  <time>2026-08-28T17:49:36Z</time>
  <course>11.09</course>
  <speed>2.9476261635424534</speed>
  <fix>3d</fix>
</trkpt>
<trkpt lat="40.0713721" lon="-105.2298838">
  <ele>1583.0</ele>
  <time>2026-08-28T17:49:36Z</time>
  <course>10.17</course>
  <speed>2.48</speed>
  <fix>3d</fix>
</trkpt>
<trkpt lat="40.0713797" lon="-105.2298816">
  <ele>1583.2</ele>
  <time>2026-08-28T17:49:36Z</time>
  <course>11.08</course>
  <speed>3.1613920984275268</speed>
  <fix>3d</fix>
</trkpt>
<trkpt lat="40.0713769" lon="-105.2298827">
  <ele>1583.0</ele>
  <time>2026-08-28T17:49:36Z</time>
  <course>10.17</course>
  <speed>2.93</speed>
  <fix>3d</fix>
</trkpt>
<trkpt lat="40.0713827" lon="-105.2298809">
  <ele>1583.2</ele>
  <time>2026-08-28T17:49:36Z</time>
  <course>11.06</course>
  <speed>3.3535950858742622</speed>
  <fix>3d</fix>
</trkpt>
<trkpt lat="40.0713769" lon="-105.2298827">
  <ele>1583.0</ele>
  <time>2026-08-28T17:49:36Z</time>
  <course>10.17</course>
  <speed>2.93</speed>
  <fix>3d</fix>
</trkpt>
<trkpt lat="40.0713858" lon="-105.2298801">
  <ele>1583.2</ele>
  <time>2026-08-28T17:49:36Z</time>
  <course>11.05</course>
  <speed>3.547745763157219</speed>
  <fix>3d</fix>
</trkpt>
<trkpt lat="40.0713824" lon="-105.2298814">
  <ele>1583.0</ele>
  <time>2026-08-28T17:49:36Z</time>
  <course>10.17</course>
  <speed>3.34</speed>
  <fix>3d</fix>
</trkpt>
<trkpt lat="40.0713891" lon="-105.2298793">
  <ele>1583.19</ele>
  <time>2026-08-28T17:49:36Z</time>
  <course>11.03</course>
  <speed>3.7301474501686926</speed>
  <fix>3d</fix>
</trkpt>
<trkpt lat="40.0713824" lon="-105.2298814">
  <ele>1583.0</ele>
  <time>2026-08-28T17:49:36Z</time>
  <course>10.17</course>
  <speed>3.34</speed>
  <fix>3d</fix>
</trkpt>
<trkpt lat="40.0713925" lon="-105.2298785">
  <ele>1583.19</ele>
  <time>2026-08-28T17:49:36Z</time>
  <course>11.01</course>
  <speed>3.902742625385384</speed>
  <fix>3d</fix>
</trkpt>
<trkpt lat="40.0713887" lon="-105.22988">
  <ele>1583.0</ele>
  <time>2026-08-28T17:49:36Z</time>
  <course>10.17</course>
  <speed>3.71</speed>
  <fix>3d</fix>
</trkpt>
<trkpt lat="40.0713961" lon="-105.2298777">
  <ele>1583.19</ele>
  <time>2026-08-28T17:49:36Z</time>
  <course>10.99</course>
  <speed>4.075340476573706</speed>
  <fix>3d</fix>
</trkpt>
<trkpt lat="40.0713887" lon="-105.22988">
  <ele>1583.0</ele>
  <time>2026-08-28T17:49:36Z</time>
  <course>10.17</course>
  <speed>3.71</speed>
  <fix>3d</fix>
</trkpt>
<trkpt lat="40.0713999" lon="-105.2298768">
  <ele>1583.19</ele>
  <time>2026-08-28T17:49:36Z</time>
  <course>10.98</course>
  <speed>4.226405091800832</speed>
  <fix>3d</fix>
</trkpt>
<trkpt lat="40.0713955" lon="-105.2298783">
  <ele>1583.0</ele>
  <time>2026-08-28T17:49:36Z</time>
  <course>10.17</course>
  <speed>4.04</speed>
  <fix>3d</fix>
</trkpt>
<trkpt lat="40.0714038" lon="-105.2298759">
  <ele>1583.19</ele>
  <time>2026-08-28T17:49:36Z</time>
  <course>10.96</course>
  <speed>4.379372101112213</speed>
  <fix>3d</fix>
</trkpt>
<trkpt lat="40.0713955" lon="-105.2298783">
  <ele>1583.0</ele>
  <time>2026-08-28T17:49:36Z</time>
  <course>10.17</course>
  <speed>4.04</speed>
  <fix>3d</fix>
</trkpt>
<trkpt lat="40.0714078" lon="-105.2298749">
  <ele>1583.19</ele>
  <time>2026-08-28T17:49:36Z</time>
  <course>10.94</course>
  <speed>4.5206304870006795</speed>
  <fix>3d</fix>
</trkpt>
<trkpt lat="40.0714029" lon="-105.2298766">
  <ele>1583.0</ele>
  <time>2026-08-28T17:49:36Z</time>
  <course>10.17</course>
  <speed>4.34</speed>
  <fix>3d</fix>
</trkpt>
<trkpt lat="40.0714119" lon="-105.229874">
  <ele>1583.2</ele>
  <time>2026-08-28T17:49:36Z</time>
  <course>10.92</course>
  <speed>4.661898754799378</speed>
  <fix>3d</fix>
</trkpt>
<trkpt lat="40.0714029" lon="-105.2298766">
  <ele>1583.0</ele>
  <time>2026-08-28T17:49:36Z</time>
  <course>10.17</course>
  <speed>4.34</speed>
  <fix>3d</fix>
</trkpt>
<trkpt lat="40.0714161" lon="-105.229873">
  <ele>1583.2</ele>
  <time>2026-08-28T17:49:36Z</time>
  <course>10.91</course>
  <speed>4.78539444560216</speed>
  <fix>3d</fix>
</trkpt>
<trkpt lat="40.0714108" lon="-105.2298747">
  <ele>1583.0</ele>
  <time>2026-08-28T17:49:36Z</time>
  <course>10.17</course>
  <speed>4.61</speed>
  <fix>3d</fix>
</trkpt>
<trkpt lat="40.0714205" lon="-105.229872">
  <ele>1583.2</ele>
  <time>2026-08-28T17:49:36Z</time>
  <course>10.89</course>
  <speed>4.905150354474366</speed>
  <fix>3d</fix>
</trkpt>
<trkpt lat="40.0714108" lon="-105.2298747">
  <ele>1583.0</ele>
  <time>2026-08-28T17:49:36Z</time>
  <course>10.17</course>
  <speed>4.61</speed>
  <fix>3d</fix>
</trkpt>
<trkpt lat="40.0714249" lon="-105.2298709">
  <ele>1583.2</ele>
  <time>2026-08-28T17:49:36Z</time>
  <course>10.88</course>
  <speed>5.026778292306116</speed>
  <fix>3d</fix>
</trkpt>
<trkpt lat="40.0714192" lon="-105.2298728">
  <ele>1583.0</ele>
  <time>2026-08-28T17:49:36Z</time>
  <course>10.17</course>
  <speed>4.86</speed>
  <fix>3d</fix>
</trkpt>
<trkpt lat="40.0714294" lon="-105.2298699">
  <ele>1583.2</ele>
  <time>2026-08-28T17:49:36Z</time>
  <course>10.86</course>
  <speed>5.138579570270369</speed>
  <fix>3d</fix>
</trkpt>
<trkpt lat="40.0714192" lon="-105.2298728">
  <ele>1583.0</ele>
  <time>2026-08-28T17:49:36Z</time>
  <course>10.17</course>
  <speed>4.86</speed>
  <fix>3d</fix>
</trkpt>
<trkpt lat="40.0714341" lon="-105.2298688">
  <ele>1583.2</ele>
  <time>2026-08-28T17:49:36Z</time>
  <course>10.85</course>
  <speed>5.240553405891404</speed>
  <fix>3d</fix>
</trkpt>
<trkpt lat="40.0714192" lon="-105.2298728">
  <ele>1583.0</ele>
  <time>2026-08-28T17:49:36Z</time>
  <course>10.17</course>
  <speed>4.86</speed>
  <fix>3d</fix>
</trkpt>
<trkpt lat="40.0714387" lon="-105.2298677">
  <ele>1583.2</ele>
  <time>2026-08-28T17:49:36Z</time>
  <course>10.84</course>
  <speed>5.340683476859493</speed>
  <fix>3d</fix>
</trkpt>
<trkpt lat="40.0714281" lon="-105.2298707">
  <ele>1583.0</ele>
  <time>2026-08-28T17:49:36Z</time>
  <course>10.17</course>
  <speed>5.08</speed>
  <fix>3d</fix>
</trkpt>
<trkpt lat="40.0714435" lon="-105.2298666">
  <ele>1583.2</ele>
  <time>2026-08-28T17:49:36Z</time>
  <course>10.83</course>
  <speed>5.432826152197399</speed>
  <fix>3d</fix>
</trkpt>
<trkpt lat="40.0714281" lon="-105.2298707">
  <ele>1583.0</ele>
  <time>2026-08-28T17:49:36Z</time>
  <course>10.17</course>
  <speed>5.08</speed>
  <fix>3d</fix>
</trkpt>
<trkpt lat="40.0714483" lon="-105.2298655">
  <ele>1583.19</ele>
  <time>2026-08-28T17:49:36Z</time>
  <course>10.82</course>
  <speed>5.513302095840568</speed>
  <fix>3d</fix>
</trkpt>
<trkpt lat="40.0714373" lon="-105.2298686">
  <ele>1583.0</ele>
  <time>2026-08-28T17:49:36Z</time>
  <course>10.17</course>
  <speed>5.28</speed>
  <fix>3d</fix>
</trkpt>
<trkpt lat="40.0714532" lon="-105.2298644">
  <ele>1583.19</ele>
  <time>2026-08-28T17:49:36Z</time>
  <course>10.81</course>
  <speed>5.593782262476794</speed>
  <fix>3d</fix>
</trkpt>
<trkpt lat="40.0714373" lon="-105.2298686">
  <ele>1583.0</ele>
  <time>2026-08-28T17:49:36Z</time>
  <course>10.17</course>
  <speed>5.28</speed>
  <fix>3d</fix>
</trkpt>
<trkpt lat="40.0714581" lon="-105.2298633">
  <ele>1583.18</ele>
  <time>2026-08-28T17:49:36Z</time>
  <course>10.8</course>
  <speed>5.674266472417383</speed>
  <fix>3d</fix>
</trkpt>
<trkpt lat="40.0714467" lon="-105.2298663">
  <ele>1583.0</ele>
  <time>2026-08-28T17:49:36Z</time>
  <course>10.17</course>
  <speed>5.46</speed>
  <fix>3d</fix>
</trkpt>
<trkpt lat="40.0714631" lon="-105.2298621">
  <ele>1583.18</ele>
  <time>2026-08-28T17:49:36Z</time>
  <course>10.79</course>
  <speed>5.746738205277843</speed>
  <fix>3d</fix>
</trkpt>
<trkpt lat="40.0714467" lon="-105.2298663">
  <ele>1583.0</ele>
  <time>2026-08-28T17:49:36Z</time>
  <course>10.17</course>
  <speed>5.46</speed>
  <fix>3d</fix>
</trkpt>
<trkpt lat="40.0714682" lon="-105.2298609">
  <ele>1583.17</ele>
  <time>2026-08-28T17:49:36Z</time>
  <course>10.78</course>
  <speed>5.817387729900767</speed>
  <fix>3d</fix>
</trkpt>
<trkpt lat="40.0714566" lon="-105.229864">
  <ele>1583.0</ele>
  <time>2026-08-28T17:49:36Z</time>
  <course>10.17</course>
  <speed>5.63</speed>
  <fix>3d</fix>
</trkpt>
<trkpt lat="40.0714733" lon="-105.2298597">
  <ele>1583.17</ele>
  <time>2026-08-28T17:49:36Z</time>
  <course>10.77</course>
  <speed>5.888038722698756</speed>
  <fix>3d</fix>
</trkpt>
<trkpt lat="40.0714667" lon="-105.2298617">
  <ele>1583.0</ele>
  <time>2026-08-28T17:49:36Z</time>
  <course>10.17</course>
  <speed>5.78</speed>
  <fix>3d</fix>
</trkpt>
<trkpt lat="40.0714786" lon="-105.2298585">
  <ele>1583.16</ele>
  <time>2026-08-28T17:49:36Z</time>
  <course>10.77</course>
  <speed>5.948857033077867</speed>
  <fix>3d</fix>
</trkpt>
<trkpt lat="40.0714667" lon="-105.2298617">
  <ele>1583.0</ele>
  <time>2026-08-28T17:49:36Z</time>
  <course>10.17</course>
  <speed>5.78</speed>
  <fix>3d</fix>
</trkpt>
<trkpt lat="40.0714838" lon="-105.2298573">
  <ele>1583.15</ele>
  <time>2026-08-28T17:49:36Z</time>
  <course>10.76</course>
  <speed>6.009675532006699</speed>
  <fix>3d</fix>
</trkpt>
<trkpt lat="40.071477" lon="-105.2298593">
  <ele>1583.0</ele>
  <time>2026-08-28T17:49:36Z</time>
  <course>10.17</course>
  <speed>5.91</speed>
  <fix>3d</fix>
</trkpt>
<trkpt lat="40.0714892" lon="-105.2298561">
  <ele>1583.15</ele>
  <time>2026-08-28T17:49:36Z</time>
  <course>10.75</course>
  <speed>6.068690138736695</speed>
  <fix>3d</fix>
</trkpt>
<trkpt lat="40.071477" lon="-105.2298593">
  <ele>1583.0</ele>
  <time>2026-08-28T17:49:36Z</time>
  <course>10.17</course>
  <speed>5.91</speed>
  <fix>3d</fix>
</trkpt>
<trkpt lat="40.0714946" lon="-105.2298548">
  <ele>1583.15</ele>
  <time>2026-08-28T17:49:36Z</time>
  <course>10.75</course>
  <speed>6.129510584051552</speed>
  <fix>3d</fix>
</trkpt>
<trkpt lat="40.0714876" lon="-105.2298568">
  <ele>1583.0</ele>
  <time>2026-08-28T17:49:36Z</time>
  <course>10.17</course>
  <speed>6.03</speed>
  <fix>3d</fix>
</trkpt>
<trkpt lat="40.0715" lon="-105.2298536">
  <ele>1583.15</ele>
  <time>2026-08-28T17:49:36Z</time>
  <course>10.74</course>
  <speed>6.180493507803402</speed>
  <fix>3d</fix>
</trkpt>
<trkpt lat="40.0714876" lon="-105.2298568">
  <ele>1583.0</ele>
  <time>2026-08-28T17:49:36Z</time>
  <course>10.17</course>
  <speed>6.03</speed>
  <fix>3d</fix>
</trkpt>
<trkpt lat="40.0715056" lon="-105.2298523">
  <ele>1583.15</ele>
  <time>2026-08-28T17:49:36Z</time>
  <course>10.74</course>
  <speed>6.231476550545625</speed>
  <fix>3d</fix>
</trkpt>
<trkpt lat="40.0714983" lon="-105.2298543">
  <ele>1583.0</ele>
  <time>2026-08-28T17:49:36Z</time>
  <course>10.17</course>
  <speed>6.14</speed>
  <fix>3d</fix>
</trkpt>
<trkpt lat="40.0715112" lon="-105.229851">
  <ele>1583.16</ele>
  <time>2026-08-28T17:49:36Z</time>
  <course>10.74</course>
  <speed>6.2824597093813495</speed>
  <fix>3d</fix>
</trkpt>
<trkpt lat="40.0714983" lon="-105.2298543">
  <ele>1583.0</ele>
  <time>2026-08-28T17:49:36Z</time>
  <course>10.17</course>
  <speed>6.14</speed>
  <fix>3d</fix>
</trkpt>
<trkpt lat="40.0715168" lon="-105.2298497">
  <ele>1583.16</ele>
  <time>2026-08-28T17:49:36Z</time>
  <course>10.73</course>
  <speed>6.331650653660545</speed>
  <fix>3d</fix>
</trkpt>
<trkpt lat="40.0715093" lon="-105.2298516">
  <ele>1583.0</ele>
  <time>2026-08-28T17:49:36Z</time>
  <course>10.17</course>
  <speed>6.24</speed>
  <fix>3d</fix>
</trkpt>
<trkpt lat="40.0715224" lon="-105.2298484">
  <ele>1583.16</ele>
  <time>2026-08-28T17:49:36Z</time>
  <course>10.73</course>
  <speed>6.372793735874401</speed>
  <fix>3d</fix>
</trkpt>
<trkpt lat="40.0715093" lon="-105.2298516">
  <ele>1583.0</ele>
  <time>2026-08-28T17:49:36Z</time>
  <course>10.17</course>
  <speed>6.24</speed>
  <fix>3d</fix>
</trkpt>
<trkpt lat="40.0715281" lon="-105.2298471">
  <ele>1583.16</ele>
  <time>2026-08-28T17:49:36Z</time>
  <course>10.73</course>
  <speed>6.413937947938068</speed>
  <fix>3d</fix>
</trkpt>
<trkpt lat="40.0715205" lon="-105.2298491">
  <ele>1583.0</ele>
  <time>2026-08-28T17:49:36Z</time>
  <course>10.17</course>
  <speed>6.33</speed>
  <fix>3d</fix>
</trkpt>
<trkpt lat="40.0715338" lon="-105.2298457">
  <ele>1583.17</ele>
  <time>2026-08-28T17:49:36Z</time>
  <course>10.73</course>
  <speed>6.453293732660865</speed>
  <fix>3d</fix>
</trkpt>
<trkpt lat="40.0715205" lon="-105.2298491">
  <ele>1583.0</ele>
  <time>2026-08-28T17:49:36Z</time>
  <course>10.17</course>
  <speed>6.33</speed>
  <fix>3d</fix>
</trkpt>
<trkpt lat="40.0715395" lon="-105.2298444">
  <ele>1583.17</ele>
  <time>2026-08-28T17:49:36Z</time>
  <course>10.73</course>
  <speed>6.4944360802151255</speed>
  <fix>3d</fix>
</trkpt>
<trkpt lat="40.0715205" lon="-105.2298491">
  <ele>1583.0</ele>
  <time>2026-08-28T17:49:36Z</time>
  <course>10.17</course>
  <speed>6.33</speed>
  <fix>3d</fix>
</trkpt>
<trkpt lat="40.0715452" lon="-105.2298431">
  <ele>1583.18</ele>
  <time>2026-08-28T17:49:36Z</time>
  <course>10.73</course>
  <speed>6.523955855154141</speed>
  <fix>3d</fix>
</trkpt>
<trkpt lat="40.0715318" lon="-105.2298464">
  <ele>1583.0</ele>
  <time>2026-08-28T17:49:36Z</time>
  <course>10.17</course>
  <speed>6.42</speed>
  <fix>3d</fix>
</trkpt>
<trkpt lat="40.071551" lon="-105.2298417">
  <ele>1583.18</ele>
  <time>2026-08-28T17:49:36Z</time>
  <course>10.73</course>
  <speed>6.555257432015924</speed>
  <fix>3d</fix>
</trkpt>
<trkpt lat="40.0715318" lon="-105.2298464">
  <ele>1583.0</ele>
  <time>2026-08-28T17:49:36Z</time>
  <course>10.17</course>
  <speed>6.42</speed>
  <fix>3d</fix>
</trkpt>
<trkpt lat="40.0715567" lon="-105.2298404">
  <ele>1583.18</ele>
  <time>2026-08-28T17:49:36Z</time>
  <course>10.73</course>
  <speed>6.584777900582525</speed>
  <fix>3d</fix>
</trkpt>
<trkpt lat="40.0715432" lon="-105.2298437">
  <ele>1583.0</ele>
  <time>2026-08-28T17:49:36Z</time>
  <course>10.17</course>
  <speed>6.49</speed>
  <fix>3d</fix>
</trkpt>
<trkpt lat="40.0715625" lon="-105.229839">
  <ele>1583.19</ele>
  <time>2026-08-28T17:49:36Z</time>
  <course>10.73</course>
  <speed>6.60446061385788</speed>
  <fix>3d</fix>
</trkpt>
<trkpt lat="40.0715432" lon="-105.2298437">
  <ele>1583.0</ele>
  <time>2026-08-28T17:49:36Z</time>
  <course>10.17</course>
  <speed>6.49</speed>
  <fix>3d</fix>
</trkpt>
<trkpt lat="40.0715683" lon="-105.2298377">
  <ele>1583.19</ele>
  <time>2026-08-28T17:49:36Z</time>
  <course>10.73</course>
  <speed>6.635759187915125</speed>
  <fix>3d</fix>
</trkpt>
<trkpt lat="40.0715548" lon="-105.229841">
  <ele>1583.0</ele>
  <time>2026-08-28T17:49:36Z</time>
  <course>10.17</course>
  <speed>6.56</speed>
  <fix>3d</fix>
</trkpt>
<trkpt lat="40.0715741" lon="-105.2298363">
  <ele>1583.19</ele>
  <time>2026-08-28T17:49:36Z</time>
  <course>10.73</course>
  <speed>6.6554413828085055</speed>
  <fix>3d</fix>
</trkpt>
<trkpt lat="40.0715548" lon="-105.229841">
  <ele>1583.0</ele>
  <time>2026-08-28T17:49:36Z</time>
  <course>10.17</course>
  <speed>6.56</speed>
  <fix>3d</fix>
</trkpt>
<trkpt lat="40.07158" lon="-105.229835">
  <ele>1583.18</ele>
  <time>2026-08-28T17:49:36Z</time>
  <course>10.74</course>
  <speed>6.675125466985621</speed>
  <fix>3d</fix>
</trkpt>
<trkpt lat="40.0715664" lon="-105.2298383">
  <ele>1583.0</ele>
  <time>2026-08-28T17:49:36Z</time>
  <course>10.17</course>
  <speed>6.62</speed>
  <fix>3d</fix>
</trkpt>
<trkpt lat="40.0715859" lon="-105.2298336">
  <ele>1583.18</ele>
  <time>2026-08-28T17:49:36Z</time>
  <course>10.74</course>
  <speed>6.696581217307829</speed>
  <fix>3d</fix>
</trkpt>
<trkpt lat="40.0715782" lon="-105.2298356">
  <ele>1583.0</ele>
  <time>2026-08-28T17:49:36Z</time>
  <course>10.17</course>
  <speed>6.67</speed>
  <fix>3d</fix>
</trkpt>
<trkpt lat="40.0715918" lon="-105.2298322">
  <ele>1583.18</ele>
  <time>2026-08-28T17:49:36Z</time>
  <course>10.74</course>
  <speed>6.726105857031987</speed>
  <fix>3d</fix>
</trkpt>
<trkpt lat="40.0715782" lon="-105.2298356">
  <ele>1583.0</ele>
  <time>2026-08-28T17:49:36Z</time>
  <course>10.17</course>
  <speed>6.67</speed>
  <fix>3d</fix>
</trkpt>
<trkpt lat="40.0715977" lon="-105.2298309">
  <ele>1583.18</ele>
  <time>2026-08-28T17:49:36Z</time>
  <course>10.74</course>
  <speed>6.745791280494824</speed>
  <fix>3d</fix>
</trkpt>
<trkpt lat="40.07159" lon="-105.2298328">
  <ele>1583.0</ele>
  <time>2026-08-28T17:49:36Z</time>
  <course>10.17</course>
  <speed>6.72</speed>
  <fix>3d</fix>
</trkpt>
<trkpt lat="40.0716037" lon="-105.2298295">
  <ele>1583.19</ele>
  <time>2026-08-28T17:49:36Z</time>
  <course>10.74</course>
  <speed>6.7672446386989735</speed>
  <fix>3d</fix>
</trkpt>
<trkpt lat="40.07159" lon="-105.2298328">
  <ele>1583.0</ele>
  <time>2026-08-28T17:49:36Z</time>
  <course>10.17</course>
  <speed>6.72</speed>
  <fix>3d</fix>
</trkpt>
<trkpt lat="40.0716097" lon="-105.2298281">
  <ele>1583.19</ele>
  <time>2026-08-28T17:49:36Z</time>
  <course>10.74</course>
  <speed>6.786928613150428</speed>
  <fix>3d</fix>
</trkpt>
<trkpt lat="40.0716019" lon="-105.2298299">
  <ele>1583.0</ele>
  <time>2026-08-28T17:49:36Z</time>
  <course>10.17</course>
  <speed>6.77</speed>
  <fix>3d</fix>
</trkpt>
<trkpt lat="40.0716158" lon="-105.2298267">
  <ele>1583.19</ele>
  <time>2026-08-28T17:49:36Z</time>
  <course>10.74</course>
  <speed>6.806614430096654</speed>
  <fix>3d</fix>
</trkpt>
<trkpt lat="40.0716019" lon="-105.2298299">
  <ele>1583.0</ele>
  <time>2026-08-28T17:49:36Z</time>
  <course>10.17</course>
  <speed>6.77</speed>
  <fix>3d</fix>
</trkpt>
<trkpt lat="40.0716218" lon="-105.2298252">
  <ele>1583.19</ele>
  <time>2026-08-28T17:49:36Z</time>
  <course>10.75</course>
  <speed>6.828067076413354</speed>
  <fix>3d</fix>
</trkpt>
<trkpt lat="40.0716139" lon="-105.2298271">
  <ele>1583.0</ele>
  <time>2026-08-28T17:49:36Z</time>
  <course>10.17</course>
  <speed>6.81</speed>
  <fix>3d</fix>
</trkpt>
<trkpt lat="40.071628" lon="-105.2298238">
  <ele>1583.19</ele>
  <time>2026-08-28T17:49:36Z</time>
  <course>10.75</course>
  <speed>6.847751455769989</speed>
  <fix>3d</fix>
</trkpt>
<trkpt lat="40.0716139" lon="-105.2298271">
  <ele>1583.0</ele>
  <time>2026-08-28T17:49:36Z</time>
  <course>10.17</course>
  <speed>6.81</speed>
  <fix>3d</fix>
</trkpt>
<trkpt lat="40.0716341" lon="-105.2298224">
  <ele>1583.19</ele>
  <time>2026-08-28T17:49:36Z</time>
  <course>10.75</course>
  <speed>6.857594330375631</speed>
  <fix>3d</fix>
</trkpt>
<trkpt lat="40.071626" lon="-105.2298243">
  <ele>1583.0</ele>
  <time>2026-08-28T17:49:36Z</time>
  <course>10.17</course>
  <speed>6.85</speed>
  <fix>3d</fix>
</trkpt>
<trkpt lat="40.0716402" lon="-105.2298209">
  <ele>1583.19</ele>
  <time>2026-08-28T17:49:36Z</time>
  <course>10.75</course>
  <speed>6.877281439638776</speed>
  <fix>3d</fix>
</trkpt>
<trkpt lat="40.071626" lon="-105.2298243">
  <ele>1583.0</ele>
  <time>2026-08-28T17:49:36Z</time>
  <course>10.17</course>
  <speed>6.85</speed>
  <fix>3d</fix>
</trkpt>
<trkpt lat="40.0716463" lon="-105.2298195">
  <ele>1583.19</ele>
  <time>2026-08-28T17:49:36Z</time>
  <course>10.76</course>
  <speed>6.88888960573473</speed>
  <fix>3d</fix>
</trkpt>
<trkpt lat="40.0716381" lon="-105.2298215">
  <ele>1583.0</ele>
  <time>2026-08-28T17:49:36Z</time>
  <course>10.17</course>
  <speed>6.88</speed>
  <fix>3d</fix>
</trkpt>
<trkpt lat="40.0716524" lon="-105.2298181">
  <ele>1583.19</ele>
  <time>2026-08-28T17:49:36Z</time>
  <course>10.76</course>
  <speed>6.908574382606009</speed>
  <fix>3d</fix>
</trkpt>
<trkpt lat="40.0716381" lon="-105.2298215">
  <ele>1583.0</ele>
  <time>2026-08-28T17:49:36Z</time>
  <course>10.17</course>
  <speed>6.88</speed>
  <fix>3d</fix>
</trkpt>
<trkpt lat="40.0716586" lon="-105.2298166">
  <ele>1583.18</ele>
  <time>2026-08-28T17:49:36Z</time>
  <course>10.76</course>
  <speed>6.91841744909918</speed>
  <fix>3d</fix>
</trkpt>
<trkpt lat="40.0716503" lon="-105.2298186">
  <ele>1583.0</ele>
  <time>2026-08-28T17:49:36Z</time>
  <course>10.17</course>
  <speed>6.91</speed>
  <fix>3d</fix>
</trkpt>
<trkpt lat="40.0716647" lon="-105.2298152">
  <ele>1583.18</ele>
  <time>2026-08-28T17:49:36Z</time>
  <course>10.76</course>
  <speed>6.928260965061868</speed>
  <fix>3d</fix>
</trkpt>
<trkpt lat="40.0716503" lon="-105.2298186">
  <ele>1583.0</ele>
  <time>2026-08-28T17:49:36Z</time>
  <course>10.17</course>
  <speed>6.91</speed>
  <fix>3d</fix>
</trkpt>
<trkpt lat="40.0716709" lon="-105.2298138">
  <ele>1583.18</ele>
  <time>2026-08-28T17:49:36Z</time>
  <course>10.77</course>
  <speed>6.949712224257922</speed>
  <fix>3d</fix>
</trkpt>
<trkpt lat="40.0716503" lon="-105.2298186">
  <ele>1583.0</ele>
  <time>2026-08-28T17:49:36Z</time>
  <course>10.17</course>
  <speed>6.91</speed>
  <fix>3d</fix>
</trkpt>
<trkpt lat="40.071677" lon="-105.2298123">
  <ele>1583.18</ele>
  <time>2026-08-28T17:49:36Z</time>
  <course>10.77</course>
  <speed>6.95955458344857</speed>
  <fix>3d</fix>
</trkpt>
<trkpt lat="40.0716626" lon="-105.2298157">
  <ele>1583.0</ele>
  <time>2026-08-28T17:49:36Z</time>
  <course>10.17</course>
  <speed>6.94</speed>
  <fix>3d</fix>
</trkpt>
<trkpt lat="40.0716831" lon="-105.2298109">
  <ele>1583.18</ele>
  <time>2026-08-28T17:49:36Z</time>
  <course>10.77</course>
  <speed>6.95955458344857</speed>
  <fix>3d</fix>
</trkpt>
<trkpt lat="40.0716626" lon="-105.2298157">
  <ele>1583.0</ele>
  <time>2026-08-28T17:49:36Z</time>
  <course>10.17</course>
  <speed>6.94</speed>
  <fix>3d</fix>
</trkpt>
<trkpt lat="40.0716892" lon="-105.2298095">
  <ele>1583.18</ele>
  <time>2026-08-28T17:49:36Z</time>
  <course>10.77</course>
  <speed>6.969397391453582</speed>
  <fix>3d</fix>
</trkpt>
<trkpt lat="40.0716749" lon="-105.2298128">
  <ele>1583.0</ele>
  <time>2026-08-28T17:49:36Z</time>
  <course>10.17</course>
  <speed>6.96</speed>
  <fix>3d</fix>
</trkpt>
<trkpt lat="40.0716954" lon="-105.229808">
  <ele>1583.18</ele>
  <time>2026-08-28T17:49:36Z</time>
  <course>10.78</course>
  <speed>6.979240646374073</speed>
  <fix>3d</fix>
</trkpt>
<trkpt lat="40.0716749" lon="-105.2298128">
  <ele>1583.0</ele>
  <time>2026-08-28T17:49:36Z</time>
  <course>10.17</course>
  <speed>6.96</speed>
  <fix>3d</fix>
</trkpt>
<trkpt lat="40.0717015" lon="-105.2298066">
  <ele>1583.18</ele>
  <time>2026-08-28T17:49:36Z</time>
  <course>10.78</course>
  <speed>6.979240646374073</speed>
  <fix>3d</fix>
</trkpt>
<trkpt lat="40.0716872" lon="-105.2298099">
  <ele>1583.0</ele>
  <time>2026-08-28T17:49:36Z</time>
  <course>10.17</course>
  <speed>6.98</speed>
  <fix>3d</fix>
</trkpt>
<trkpt lat="40.0717076" lon="-105.2298051">
  <ele>1583.18</ele>
  <time>2026-08-28T17:49:36Z</time>
  <course>10.78</course>
  <speed>6.98908434632177</speed>
  <fix>3d</fix>
</trkpt>
<trkpt lat="40.0716996" lon="-105.229807">
  <ele>1583.0</ele>
  <time>2026-08-28T17:49:36Z</time>
  <course>10.17</course>
  <speed>7.0</speed>
  <fix>3d</fix>
</trkpt>
<trkpt lat="40.0717138" lon="-105.2298037">
  <ele>1583.18</ele>
  <time>2026-08-28T17:49:36Z</time>
  <course>10.78</course>
  <speed>6.98908434632177</speed>
  <fix>3d</fix>
</trkpt>
<trkpt lat="40.0716996" lon="-105.229807">
  <ele>1583.0</ele>
  <time>2026-08-28T17:49:36Z</time>
  <course>10.17</course>
  <speed>7.0</speed>
  <fix>3d</fix>
</trkpt>
<trkpt lat="40.07172" lon="-105.2298022">
  <ele>1583.18</ele>
  <time>2026-08-28T17:49:36Z</time>
  <course>10.79</course>
  <speed>7.000692822856892</speed>
  <fix>3d</fix>
</trkpt>
<trkpt lat="40.0717121" lon="-105.2298041">
  <ele>1583.0</ele>
  <time>2026-08-28T17:49:36Z</time>
  <course>10.17</course>
  <speed>7.02</speed>
  <fix>3d</fix>
</trkpt>
<trkpt lat="40.0717262" lon="-105.2298008">
  <ele>1583.18</ele>
  <time>2026-08-28T17:49:36Z</time>
  <course>10.79</course>
  <speed>7.010534929661216</speed>
  <fix>3d</fix>
</trkpt>
<trkpt lat="40.0717121" lon="-105.2298041">
  <ele>1583.0</ele>
  <time>2026-08-28T17:49:36Z</time>
  <course>10.17</course>
  <speed>7.02</speed>
  <fix>3d</fix>
</trkpt>
<trkpt lat="40.0717324" lon="-105.2297993">
  <ele>1583.17</ele>
  <time>2026-08-28T17:49:36Z</time>
  <course>10.79</course>
  <speed>7.010534929661216</speed>
  <fix>3d</fix>
</trkpt>
<trkpt lat="40.0717245" lon="-105.2298012">
  <ele>1583.0</ele>
  <time>2026-08-28T17:49:36Z</time>
  <course>10.17</course>
  <speed>7.04</speed>
  <fix>3d</fix>
</trkpt>
<trkpt lat="40.0717387" lon="-105.2297979">
  <ele>1583.17</ele>
  <time>2026-08-28T17:49:36Z</time>
  <course>10.8</course>
  <speed>7.020377482728404</speed>
  <fix>3d</fix>
</trkpt>
<trkpt lat="40.0717245" lon="-105.2298012">
  <ele>1583.0</ele>
  <time>2026-08-28T17:49:36Z</time>
  <course>10.17</course>
  <speed>7.04</speed>
  <fix>3d</fix>
</trkpt>
<trkpt lat="40.071745" lon="-105.2297964">
  <ele>1583.17</ele>
  <time>2026-08-28T17:49:36Z</time>
  <course>10.8</course>
  <speed>7.030220480184102</speed>
  <fix>3d</fix>
</trkpt>
<trkpt lat="40.0717369" lon="-105.2297983">
  <ele>1583.0</ele>
  <time>2026-08-28T17:49:36Z</time>
  <course>10.17</course>
  <speed>7.05</speed>
  <fix>3d</fix>
</trkpt>
<trkpt lat="40.0717513" lon="-105.2297949">
  <ele>1583.17</ele>
  <time>2026-08-28T17:49:36Z</time>
  <course>10.8</course>
  <speed>7.0400639201643616</speed>
  <fix>3d</fix>
</trkpt>
<trkpt lat="40.0717369" lon="-105.2297983">
  <ele>1583.0</ele>
  <time>2026-08-28T17:49:36Z</time>
  <course>10.17</course>
  <speed>7.05</speed>
  <fix>3d</fix>
</trkpt>
<trkpt lat="40.0717576" lon="-105.2297934">
  <ele>1583.16</ele>
  <time>2026-08-28T17:49:36Z</time>
  <course>10.8</course>
  <speed>7.049907800815554</speed>
  <fix>3d</fix>
</trkpt>
<trkpt lat="40.0717494" lon="-105.2297954">
  <ele>1583.0</ele>
  <time>2026-08-28T17:49:36Z</time>
  <course>10.17</course>
  <speed>7.07</speed>
  <fix>3d</fix>
</trkpt>
<trkpt lat="40.0717639" lon="-105.229792">
  <ele>1583.16</ele>
  <time>2026-08-28T17:49:36Z</time>
  <course>10.81</course>
  <speed>7.0516735602266785</speed>
  <fix>3d</fix>
</trkpt>
<trkpt lat="40.0717494" lon="-105.2297954">
  <ele>1583.0</ele>
  <time>2026-08-28T17:49:36Z</time>
  <course>10.17</course>
  <speed>7.07</speed>
  <fix>3d</fix>
</trkpt>
<trkpt lat="40.0717702" lon="-105.2297905">
  <ele>1583.16</ele>
  <time>2026-08-28T17:49:36Z</time>
  <course>10.81</course>
  <speed>7.061515418095468</speed>
  <fix>3d</fix>
</trkpt>
<trkpt lat="40.0717619" lon="-105.2297924">
  <ele>1583.0</ele>
  <time>2026-08-28T17:49:36Z</time>
  <course>10.17</course>
  <speed>7.08</speed>
  <fix>3d</fix>
</trkpt>
<trkpt lat="40.0717765" lon="-105.229789">
  <ele>1583.16</ele>
  <time>2026-08-28T17:49:36Z</time>
  <course>10.81</course>
  <speed>7.061515418095468</speed>
  <fix>3d</fix>
</trkpt>
<trkpt lat="40.0717619" lon="-105.2297924">
  <ele>1583.0</ele>
  <time>2026-08-28T17:49:36Z</time>
  <course>10.17</course>
  <speed>7.08</speed>
  <fix>3d</fix>
</trkpt>
<trkpt lat="40.0717828" lon="-105.2297875">
  <ele>1583.16</ele>
  <time>2026-08-28T17:49:36Z</time>
  <course>10.81</course>
  <speed>7.071357719702772</speed>
  <fix>3d</fix>
</trkpt>
<trkpt lat="40.0717745" lon="-105.2297895">
  <ele>1583.0</ele>
  <time>2026-08-28T17:49:36Z</time>
  <course>10.17</course>
  <speed>7.09</speed>
  <fix>3d</fix>
</trkpt>
<trkpt lat="40.0717891" lon="-105.2297861">
  <ele>1583.16</ele>
  <time>2026-08-28T17:49:36Z</time>
  <course>10.82</course>
  <speed>7.081200463198313</speed>
  <fix>3d</fix>
</trkpt>
<trkpt lat="40.0717745" lon="-105.2297895">
  <ele>1583.0</ele>
  <time>2026-08-28T17:49:36Z</time>
  <course>10.17</course>
  <speed>7.09</speed>
  <fix>3d</fix>
</trkpt>
<trkpt lat="40.0717954" lon="-105.2297846">
  <ele>1583.16</ele>
  <time>2026-08-28T17:49:36Z</time>
  <course>10.82</course>
  <speed>7.061515418095468</speed>
  <fix>3d</fix>
</trkpt>
<trkpt lat="40.0717745" lon="-105.2297895">
  <ele>1583.0</ele>
  <time>2026-08-28T17:49:36Z</time>
  <course>10.17</course>
  <speed>7.09</speed>
  <fix>3d</fix>
</trkpt>
<trkpt lat="40.0718015" lon="-105.2297831">
  <ele>1583.16</ele>
  <time>2026-08-28T17:49:36Z</time>
  <course>10.82</course>
  <speed>6.939870315791211</speed>
  <fix>3d</fix>
</trkpt>
<trkpt lat="40.071787" lon="-105.2297866">
  <ele>1583.0</ele>
  <time>2026-08-28T17:49:36Z</time>
  <course>10.17</course>
  <speed>7.09</speed>
  <fix>3d</fix>
</trkpt>
<trkpt lat="40.0718076" lon="-105.2297817">
  <ele>1583.16</ele>
  <time>2026-08-28T17:49:36Z</time>
  <course>10.83</course>
  <speed>6.735948337094043</speed>
  <fix>3d</fix>
</trkpt>
<trkpt lat="40.071787" lon="-105.2297866">
  <ele>1583.0</ele>
  <time>2026-08-28T17:49:36Z</time>
  <course>10.17</course>
  <speed>7.09</speed>
  <fix>3d</fix>
</trkpt>
<trkpt lat="40.0718134" lon="-105.2297804">
  <ele>1583.16</ele>
  <time>2026-08-28T17:49:36Z</time>
  <course>10.83</course>
  <speed>6.439914595706996</speed>
  <fix>3d</fix>
</trkpt>
<trkpt lat="40.0717995" lon="-105.2297836">
  <ele>1583.0</ele>
  <time>2026-08-28T17:49:36Z</time>
  <course>10.17</course>
  <speed>6.92</speed>
  <fix>3d</fix>
</trkpt>
<trkpt lat="40.0718189" lon="-105.2297791">
  <ele>1583.17</ele>
  <time>2026-08-28T17:49:36Z</time>
  <course>10.83</course>
  <speed>6.114351968933421</speed>
  <fix>3d</fix>
</trkpt>
<trkpt lat="40.0717995" lon="-105.2297836">
  <ele>1583.0</ele>
  <time>2026-08-28T17:49:36Z</time>
  <course>10.17</course>
  <speed>6.92</speed>
  <fix>3d</fix>
</trkpt>
<trkpt lat="40.0718241" lon="-105.2297779">
  <ele>1583.17</ele>
  <time>2026-08-28T17:49:36Z</time>
  <course>10.83</course>
  <speed>5.808485172572967</speed>
  <fix>3d</fix>
</trkpt>
<trkpt lat="40.0718114" lon="-105.2297808">
  <ele>1583.0</ele>
  <time>2026-08-28T17:49:36Z</time>
  <course>10.17</course>
  <speed>6.46</speed>
  <fix>3d</fix>
</trkpt>
<trkpt lat="40.071829" lon="-105.2297767">
  <ele>1583.17</ele>
  <time>2026-08-28T17:49:36Z</time>
  <course>10.84</course>
  <speed>5.514208918784272</speed>
  <fix>3d</fix>
</trkpt>
<trkpt lat="40.0718114" lon="-105.2297808">
  <ele>1583.0</ele>
  <time>2026-08-28T17:49:36Z</time>
  <course>10.17</course>
  <speed>6.46</speed>
  <fix>3d</fix>
</trkpt>
<trkpt lat="40.0718337" lon="-105.2297756">
  <ele>1583.17</ele>
  <time>2026-08-28T17:49:36Z</time>
  <course>10.84</course>
  <speed>5.2396278493801445</speed>
  <fix>3d</fix>
</trkpt>
<trkpt lat="40.0718222" lon="-105.2297782">
  <ele>1583.0</ele>
  <time>2026-08-28T17:49:36Z</time>
  <course>10.17</course>
  <speed>5.86</speed>
  <fix>3d</fix>
</trkpt>
<trkpt lat="40.0718382" lon="-105.2297746">
  <ele>1583.17</ele>
  <time>2026-08-28T17:49:36Z</time>
  <course>10.84</course>
  <speed>4.9748969838580575</speed>
  <fix>3d</fix>
</trkpt>
<trkpt lat="40.0718322" lon="-105.2297759">
  <ele>1583.0</ele>
  <time>2026-08-28T17:49:36Z</time>
  <course>10.17</course>
  <speed>5.3</speed>
  <fix>3d</fix>
</trkpt>
<trkpt lat="40.0718425" lon="-105.2297736">
  <ele>1583.17</ele>
  <time>2026-08-28T17:49:36Z</time>
  <course>10.84</course>
  <speed>4.7200211863931285</speed>
  <fix>3d</fix>
</trkpt>
<trkpt lat="40.0718322" lon="-105.2297759">
  <ele>1583.0</ele>
  <time>2026-08-28T17:49:36Z</time>
  <course>10.17</course>
  <speed>5.3</speed>
  <fix>3d</fix>
</trkpt>
<trkpt lat="40.0718465" lon="-105.2297727">
  <ele>1583.17</ele>
  <time>2026-08-28T17:49:36Z</time>
  <course>10.84</course>
  <speed>4.486568844896955</speed>
  <fix>3d</fix>
</trkpt>
<trkpt lat="40.0718411" lon="-105.2297739">
  <ele>1583.0</ele>
  <time>2026-08-28T17:49:36Z</time>
  <course>10.17</course>
  <speed>4.8</speed>
  <fix>3d</fix>
</trkpt>
<trkpt lat="40.0718504" lon="-105.2297718">
  <ele>1583.17</ele>
  <time>2026-08-28T17:49:36Z</time>
  <course>10.84</course>
  <speed>4.262968449331991</speed>
  <fix>3d</fix>
</trkpt>
<trkpt lat="40.0718411" lon="-105.2297739">
  <ele>1583.0</ele>
  <time>2026-08-28T17:49:36Z</time>
  <course>10.17</course>
  <speed>4.8</speed>
  <fix>3d</fix>
</trkpt>
<trkpt lat="40.071854" lon="-105.229771">
  <ele>1583.16</ele>
  <time>2026-08-28T17:49:36Z</time>
  <course>10.84</course>
  <speed>4.049222147524139</speed>
  <fix>3d</fix>
</trkpt>
<trkpt lat="40.0718491" lon="-105.229772">
  <ele>1583.0</ele>
  <time>2026-08-28T17:49:36Z</time>
  <course>10.17</course>
  <speed>4.34</speed>
  <fix>3d</fix>
</trkpt>
<trkpt lat="40.0718575" lon="-105.2297702">
  <ele>1583.16</ele>
  <time>2026-08-28T17:49:36Z</time>
  <course>10.84</course>
  <speed>3.845334835875805</speed>
  <fix>3d</fix>
</trkpt>
<trkpt lat="40.0718491" lon="-105.229772">
  <ele>1583.0</ele>
  <time>2026-08-28T17:49:36Z</time>
  <course>10.17</course>
  <speed>4.34</speed>
  <fix>3d</fix>
</trkpt>
<trkpt lat="40.0718609" lon="-105.2297694">
  <ele>1583.15</ele>
  <time>2026-08-28T17:49:36Z</time>
  <course>10.83</course>
  <speed>3.643144246389374</speed>
  <fix>3d</fix>
</trkpt>
<trkpt lat="40.0718564" lon="-105.2297702">
  <ele>1583.0</ele>
  <time>2026-08-28T17:49:36Z</time>
  <course>10.17</course>
  <speed>3.93</speed>
  <fix>3d</fix>
</trkpt>
<trkpt lat="40.071864" lon="-105.2297686">
  <ele>1583.15</ele>
  <time>2026-08-28T17:49:36Z</time>
  <course>10.83</course>
  <speed>3.458973836269942</speed>
  <fix>3d</fix>
</trkpt>
<trkpt lat="40.0718564" lon="-105.2297702">
  <ele>1583.0</ele>
  <time>2026-08-28T17:49:36Z</time>
  <course>10.17</course>
  <speed>3.93</speed>
  <fix>3d</fix>
</trkpt>
<trkpt lat="40.071867" lon="-105.229768">
  <ele>1583.15</ele>
  <time>2026-08-28T17:49:36Z</time>
  <course>10.83</course>
  <speed>3.2863505595112645</speed>
  <fix>3d</fix>
</trkpt>
<trkpt lat="40.0718631" lon="-105.2297687">
  <ele>1583.0</ele>
  <time>2026-08-28T17:49:36Z</time>
  <course>10.17</course>
  <speed>3.55</speed>
  <fix>3d</fix>
</trkpt>
<trkpt lat="40.0718699" lon="-105.2297673">
  <ele>1583.15</ele>
  <time>2026-08-28T17:49:36Z</time>
  <course>10.83</course>
  <speed>3.1137276695305256</speed>
  <fix>3d</fix>
</trkpt>
<trkpt lat="40.0718631" lon="-105.2297687">
  <ele>1583.0</ele>
  <time>2026-08-28T17:49:36Z</time>
  <course>10.17</course>
  <speed>3.55</speed>
  <fix>3d</fix>
</trkpt>
<trkpt lat="40.0718726" lon="-105.2297667">
  <ele>1583.15</ele>
  <time>2026-08-28T17:49:36Z</time>
  <course>10.82</course>
  <speed>2.9624989451474915</speed>
  <fix>3d</fix>
</trkpt>
<trkpt lat="40.071869" lon="-105.2297673">
  <ele>1583.0</ele>
  <time>2026-08-28T17:49:36Z</time>
  <course>10.17</course>
  <speed>3.22</speed>
  <fix>3d</fix>
</trkpt>
<trkpt lat="40.0718752" lon="-105.2297661">
  <ele>1583.15</ele>
  <time>2026-08-28T17:49:36Z</time>
  <course>10.82</course>
  <speed>2.809590717524529</speed>
  <fix>3d</fix>
</trkpt>
<trkpt lat="40.071869" lon="-105.2297673">
  <ele>1583.0</ele>
  <time>2026-08-28T17:49:36Z</time>
  <course>10.17</course>
  <speed>3.22</speed>
  <fix>3d</fix>
</trkpt>
<trkpt lat="40.0718776" lon="-105.2297655">
  <ele>1583.15</ele>
  <time>2026-08-28T17:49:36Z</time>
  <course>10.82</course>
  <speed>2.6682203807032128</speed>
  <fix>3d</fix>
</trkpt>
<trkpt lat="40.0718744" lon="-105.2297661">
  <ele>1583.0</ele>
  <time>2026-08-28T17:49:36Z</time>
  <course>10.17</course>
  <speed>2.91</speed>
  <fix>3d</fix>
</trkpt>
<trkpt lat="40.0718799" lon="-105.229765">
  <ele>1583.15</ele>
  <time>2026-08-28T17:49:36Z</time>
  <course>10.82</course>
  <speed>2.525173261382276</speed>
  <fix>3d</fix>
</trkpt>
<trkpt lat="40.0718744" lon="-105.2297661">
  <ele>1583.0</ele>
  <time>2026-08-28T17:49:36Z</time>
  <course>10.17</course>
  <speed>2.91</speed>
  <fix>3d</fix>
</trkpt>
<trkpt lat="40.0718822" lon="-105.2297644">
  <ele>1583.15</ele>
  <time>2026-08-28T17:49:36Z</time>
  <course>10.81</course>
  <speed>2.393658288060349</speed>
  <fix>3d</fix>
</trkpt>
<trkpt lat="40.0718744" lon="-105.2297661">
  <ele>1583.0</ele>
  <time>2026-08-28T17:49:36Z</time>
  <course>10.17</course>
  <speed>2.91</speed>
  <fix>3d</fix>
</trkpt>
<trkpt lat="40.0718842" lon="-105.229764">
  <ele>1583.15</ele>
  <time>2026-08-28T17:49:36Z</time>
  <course>10.81</course>
  <speed>2.272003521124032</speed>
  <fix>3d</fix>
</trkpt>
<trkpt lat="40.0718794" lon="-105.2297649">
  <ele>1583.0</ele>
  <time>2026-08-28T17:49:36Z</time>
  <course>10.17</course>
  <speed>2.63</speed>
  <fix>3d</fix>
</trkpt>
<trkpt lat="40.0718862" lon="-105.2297635">
  <ele>1583.15</ele>
  <time>2026-08-28T17:49:36Z</time>
  <course>10.81</course>
  <speed>2.160208323287363</speed>
  <fix>3d</fix>
</trkpt>
<trkpt lat="40.0718794" lon="-105.2297649">
  <ele>1583.0</ele>
  <time>2026-08-28T17:49:36Z</time>
  <course>10.17</course>
  <speed>2.63</speed>
  <fix>3d</fix>
</trkpt>
<trkpt lat="40.0718881" lon="-105.229763">
  <ele>1583.15</ele>
  <time>2026-08-28T17:49:36Z</time>
  <course>10.81</course>
  <speed>2.048414020651099</speed>
  <fix>3d</fix>
</trkpt>
<trkpt lat="40.0718839" lon="-105.2297639">
  <ele>1583.0</ele>
  <time>2026-08-28T17:49:36Z</time>
  <course>10.17</course>
  <speed>2.38</speed>
  <fix>3d</fix>
</trkpt>
<trkpt lat="40.0718899" lon="-105.2297626">
  <ele>1583.15</ele>
  <time>2026-08-28T17:49:36Z</time>
  <course>10.81</course>
  <speed>1.936620768245554</speed>
  <fix>3d</fix>
</trkpt>
<trkpt lat="40.0718839" lon="-105.2297639">
  <ele>1583.0</ele>
  <time>2026-08-28T17:49:36Z</time>
  <course>10.17</course>
  <speed>2.38</speed>
  <fix>3d</fix>
</trkpt>
<trkpt lat="40.0718916" lon="-105.2297622">
  <ele>1583.15</ele>
  <time>2026-08-28T17:49:36Z</time>
  <course>10.81</course>
  <speed>1.8363550854886426</speed>
  <fix>3d</fix>
</trkpt>
<trkpt lat="40.0718879" lon="-105.2297629">
  <ele>1583.0</ele>
  <time>2026-08-28T17:49:36Z</time>
  <course>10.17</course>
  <speed>2.15</speed>
  <fix>3d</fix>
</trkpt>
<trkpt lat="40.0718932" lon="-105.2297618">
  <ele>1583.15</ele>
  <time>2026-08-28T17:49:36Z</time>
  <course>10.81</course>
  <speed>1.7442763542512407</speed>
  <fix>3d</fix>
</trkpt>
<trkpt lat="40.0718915" lon="-105.229762">
  <ele>1583.0</ele>
  <time>2026-08-28T17:49:36Z</time>
  <course>10.17</course>
  <speed>1.95</speed>
  <fix>3d</fix>
</trkpt>
<trkpt lat="40.0718948" lon="-105.2297615">
  <ele>1583.15</ele>
  <time>2026-08-28T17:49:36Z</time>
  <course>10.81</course>
  <speed>1.6538742394752994</speed>
  <fix>3d</fix>
</trkpt>
<trkpt lat="40.0718915" lon="-105.229762">
  <ele>1583.0</ele>
  <time>2026-08-28T17:49:36Z</time>
  <course>10.17</course>
  <speed>1.95</speed>
  <fix>3d</fix>
</trkpt>
<trkpt lat="40.0718963" lon="-105.2297611">
  <ele>1583.15</ele>
  <time>2026-08-28T17:49:36Z</time>
  <course>10.81</course>
  <speed>1.561793840428371</speed>
  <fix>3d</fix>
</trkpt>
<trkpt lat="40.0718947" lon="-105.2297613">
  <ele>1583.0</ele>
  <time>2026-08-28T17:49:36Z</time>
  <course>10.17</course>
  <speed>1.76</speed>
  <fix>3d</fix>
</trkpt>
<trkpt lat="40.0718977" lon="-105.2297608">
  <ele>1583.14</ele>
  <time>2026-08-28T17:49:36Z</time>
  <course>10.81</course>
  <speed>1.4812494725737457</speed>
  <fix>3d</fix>
</trkpt>
<trkpt lat="40.0718947" lon="-105.2297613">
  <ele>1583.0</ele>
  <time>2026-08-28T17:49:36Z</time>
  <course>10.17</course>
  <speed>1.76</speed>
  <fix>3d</fix>
</trkpt>
<trkpt lat="40.071899" lon="-105.2297604">
  <ele>1583.14</ele>
  <time>2026-08-28T17:49:36Z</time>
  <course>10.81</course>
  <speed>1.4105672617780407</speed>
  <fix>3d</fix>
</trkpt>
<trkpt lat="40.0718977" lon="-105.2297606">
  <ele>1583.0</ele>
  <time>2026-08-28T17:49:36Z</time>
  <course>10.17</course>
  <speed>1.59</speed>
  <fix>3d</fix>
</trkpt>
<trkpt lat="40.0719003" lon="-105.2297601">
  <ele>1583.14</ele>
  <time>2026-08-28T17:49:36Z</time>
  <course>10.81</course>
  <speed>1.3398880550254935</speed>
  <fix>3d</fix>
</trkpt>
<trkpt lat="40.0718977" lon="-105.2297606">
  <ele>1583.0</ele>
  <time>2026-08-28T17:49:36Z</time>
  <course>10.17</course>
  <speed>1.59</speed>
  <fix>3d</fix>
</trkpt>
<trkpt lat="40.0719015" lon="-105.2297598">
  <ele>1583.14</ele>
  <time>2026-08-28T17:49:36Z</time>
  <course>10.81</course>
  <speed>1.2692123541787639</speed>
  <fix>3d</fix>
</trkpt>
<trkpt lat="40.0719004" lon="-105.22976">
  <ele>1583.0</ele>
  <time>2026-08-28T17:49:36Z</time>
  <course>10.17</course>
  <speed>1.44</speed>
  <fix>3d</fix>
</trkpt>
<trkpt lat="40.0719027" lon="-105.2297596">
  <ele>1583.14</ele>
  <time>2026-08-28T17:49:36Z</time>
  <course>10.81</course>
  <speed>1.1985407794480754</speed>
  <fix>3d</fix>
</trkpt>
<trkpt lat="40.0719004" lon="-105.22976">
  <ele>1583.0</ele>
  <time>2026-08-28T17:49:36Z</time>
  <course>10.17</course>
  <speed>1.44</speed>
  <fix>3d</fix>
</trkpt>
<trkpt lat="40.0719037" lon="-105.2297593">
  <ele>1583.14</ele>
  <time>2026-08-28T17:49:36Z</time>
  <course>10.81</course>
  <speed>1.1377170122662315</speed>
  <fix>3d</fix>
</trkpt>
<trkpt lat="40.0719028" lon="-105.2297594">
  <ele>1583.0</ele>
  <time>2026-08-28T17:49:36Z</time>
  <course>10.17</course>
  <speed>1.3</speed>
  <fix>3d</fix>
</trkpt>
<trkpt lat="40.0719048" lon="-105.229759">
  <ele>1583.15</ele>
  <time>2026-08-28T17:49:36Z</time>
  <course>10.81</course>
  <speed>1.0768936809174803</speed>
  <fix>3d</fix>
</trkpt>
<trkpt lat="40.0719028" lon="-105.2297594">
  <ele>1583.0</ele>
  <time>2026-08-28T17:49:36Z</time>
  <course>10.17</course>
  <speed>1.3</speed>
  <fix>3d</fix>
</trkpt>
<trkpt lat="40.0719058" lon="-105.2297588">
  <ele>1583.15</ele>
  <time>2026-08-28T17:49:36Z</time>
  <course>10.82</course>
  <speed>1.0259142264341596</speed>
  <fix>3d</fix>
</trkpt>
<trkpt lat="40.071905" lon="-105.2297589">
  <ele>1583.0</ele>
  <time>2026-08-28T17:49:36Z</time>
  <course>10.17</course>
  <speed>1.18</speed>
  <fix>3d</fix>
</trkpt>
<trkpt lat="40.0719067" lon="-105.2297585">
  <ele>1583.15</ele>
  <time>2026-08-28T17:49:36Z</time>
  <course>10.82</course>
  <speed>0.965090669315583</speed>
  <fix>3d</fix>
</trkpt>
<trkpt lat="40.071905" lon="-105.2297589">
  <ele>1583.0</ele>
  <time>2026-08-28T17:49:36Z</time>
  <course>10.17</course>
  <speed>1.18</speed>
  <fix>3d</fix>
</trkpt>
<trkpt lat="40.0719076" lon="-105.2297583">
  <ele>1583.15</ele>
  <time>2026-08-28T17:49:36Z</time>
  <course>10.82</course>
  <speed>0.9159148432032315</speed>
  <fix>3d</fix>
</trkpt>
<trkpt lat="40.071907" lon="-105.2297584">
  <ele>1583.0</ele>
  <time>2026-08-28T17:49:36Z</time>
  <course>10.17</course>
  <speed>1.07</speed>
  <fix>3d</fix>
</trkpt>
<trkpt lat="40.0719085" lon="-105.2297581">
  <ele>1583.15</ele>
  <time>2026-08-28T17:49:36Z</time>
  <course>10.82</course>
  <speed>0.8747571091451616</speed>
  <fix>3d</fix>
</trkpt>
<trkpt lat="40.071907" lon="-105.2297584">
  <ele>1583.0</ele>
  <time>2026-08-28T17:49:36Z</time>
  <course>10.17</course>
  <speed>1.07</speed>
  <fix>3d</fix>
</trkpt>
<trkpt lat="40.0719093" lon="-105.2297579">
  <ele>1583.15</ele>
  <time>2026-08-28T17:49:36Z</time>
  <course>11.26</course>
  <speed>0.8256512580987205</speed>
  <fix>3d</fix>
</trkpt>
<trkpt lat="40.071907" lon="-105.2297584">
  <ele>1583.0</ele>
  <time>2026-08-28T17:49:36Z</time>
  <course>10.17</course>
  <speed>1.07</speed>
  <fix>3d</fix>
</trkpt>
<trkpt lat="40.0719101" lon="-105.2297577">
  <ele>1583.15</ele>
  <time>2026-08-28T17:49:36Z</time>
  <course>13.44</course>
  <speed>0.7833900688673555</speed>
  <fix>3d</fix>
</trkpt>
<trkpt lat="40.0719088" lon="-105.229758">
  <ele>1583.0</ele>
  <time>2026-08-28T17:49:36Z</time>
  <course>10.39</course>
  <speed>0.96</speed>
  <fix>3d</fix>
</trkpt>
<trkpt lat="40.0719108" lon="-105.2297574">
  <ele>1583.16</ele>
  <time>2026-08-28T17:49:36Z</time>
  <course>15.52</course>
  <speed>0.75</speed>
  <fix>3d</fix>
</trkpt>
<trkpt lat="40.0719088" lon="-105.229758">
  <ele>1583.0</ele>
  <time>2026-08-28T17:49:36Z</time>
  <course>10.39</course>
  <speed>0.96</speed>
  <fix>3d</fix>
</trkpt>
<trkpt lat="40.0719115" lon="-105.2297571">
  <ele>1583.16</ele>
  <time>2026-08-28T17:49:36Z</time>
  <course>17.57</course>
  <speed>0.7589466384404111</speed>
  <fix>3d</fix>
</trkpt>
<trkpt lat="40.0719105" lon="-105.2297576">
  <ele>1583.0</ele>
  <time>2026-08-28T17:49:36Z</time>
  <course>12.67</course>
  <speed>0.88</speed>
  <fix>3d</fix>
</trkpt>
<trkpt lat="40.0719122" lon="-105.2297568">
  <ele>1583.16</ele>
  <time>2026-08-28T17:49:36Z</time>
  <course>19.61</course>
  <speed>0.7596051605933176</speed>
  <fix>3d</fix>
</trkpt>
<trkpt lat="40.0719105" lon="-105.2297576">
  <ele>1583.0</ele>
  <time>2026-08-28T17:49:36Z</time>
  <course>12.67</course>
  <speed>0.88</speed>
  <fix>3d</fix>
</trkpt>
<trkpt lat="40.0719129" lon="-105.2297565">
  <ele>1583.17</ele>
  <time>2026-08-28T17:49:36Z</time>
  <course>21.64</course>
  <speed>0.7615773105863909</speed>
  <fix>3d</fix>
</trkpt>
<trkpt lat="40.071912" lon="-105.2297571">
  <ele>1583.0</ele>
  <time>2026-08-28T17:49:36Z</time>
  <course>16.92</course>
  <speed>0.84</speed>
  <fix>3d</fix>
</trkpt>
<trkpt lat="40.0719136" lon="-105.2297561">
  <ele>1583.17</ele>
  <time>2026-08-28T17:49:36Z</time>
  <course>23.67</course>
  <speed>0.7558438992278762</speed>
  <fix>3d</fix>
</trkpt>
<trkpt lat="40.071912" lon="-105.2297571">
  <ele>1583.0</ele>
  <time>2026-08-28T17:49:36Z</time>
  <course>16.92</course>
  <speed>0.84</speed>
  <fix>3d</fix>
</trkpt>
<trkpt lat="40.0719143" lon="-105.2297557">
  <ele>1583.17</ele>
  <time>2026-08-28T17:49:36Z</time>
  <course>25.72</course>
  <speed>0.7605918747922567</speed>
  <fix>3d</fix>
</trkpt>
<trkpt lat="40.0719134" lon="-105.2297564">
  <ele>1583.0</ele>
  <time>2026-08-28T17:49:36Z</time>
  <course>20.99</course>
  <speed>0.83</speed>
  <fix>3d</fix>
</trkpt>
<trkpt lat="40.071915" lon="-105.2297552">
  <ele>1583.18</ele>
  <time>2026-08-28T17:49:36Z</time>
  <course>27.74</course>
  <speed>0.7666159403508382</speed>
  <fix>3d</fix>
</trkpt>
<trkpt lat="40.0719148" lon="-105.2297557">
  <ele>1583.0</ele>
  <time>2026-08-28T17:49:36Z</time>
  <course>25.05</course>
  <speed>0.83</speed>
  <fix>3d</fix>
</trkpt>
<trkpt lat="40.0719156" lon="-105.2297547">
  <ele>1583.18</ele>
  <time>2026-08-28T17:49:36Z</time>
  <course>29.76</course>
  <speed>0.768505042273634</speed>
  <fix>3d</fix>
</trkpt>
<trkpt lat="40.0719148" lon="-105.2297557">
  <ele>1583.0</ele>
  <time>2026-08-28T17:49:36Z</time>
  <course>25.05</course>
  <speed>0.83</speed>
  <fix>3d</fix>
</trkpt>
<trkpt lat="40.0719163" lon="-105.2297542">
  <ele>1583.18</ele>
  <time>2026-08-28T17:49:36Z</time>
  <course>31.75</course>
  <speed>0.7684399781375251</speed>
  <fix>3d</fix>
</trkpt>
<trkpt lat="40.0719161" lon="-105.2297548">
  <ele>1583.0</ele>
  <time>2026-08-28T17:49:36Z</time>
  <course>29.08</course>
  <speed>0.83</speed>
  <fix>3d</fix>
</trkpt>
<trkpt lat="40.0719169" lon="-105.2297537">
  <ele>1583.18</ele>
  <time>2026-08-28T17:49:36Z</time>
  <course>33.76</course>
  <speed>0.7720103626247513</speed>
  <fix>3d</fix>
</trkpt>
<trkpt lat="40.0719161" lon="-105.2297548">
  <ele>1583.0</ele>
  <time>2026-08-28T17:49:36Z</time>
  <course>29.08</course>
  <speed>0.83</speed>
  <fix>3d</fix>
</trkpt>
<trkpt lat="40.0719175" lon="-105.2297531">
  <ele>1583.19</ele>
  <time>2026-08-28T17:49:36Z</time>
  <course>35.77</course>
  <speed>0.7746612162745725</speed>
  <fix>3d</fix>
</trkpt>
<trkpt lat="40.0719173" lon="-105.2297538">
  <ele>1583.0</ele>
  <time>2026-08-28T17:49:36Z</time>
  <course>33.1</course>
  <speed>0.82</speed>
  <fix>3d</fix>
</trkpt>
<trkpt lat="40.0719182" lon="-105.2297525">
  <ele>1583.19</ele>
  <time>2026-08-28T17:49:36Z</time>
  <course>37.77</course>
  <speed>0.7798717843338097</speed>
  <fix>3d</fix>
</trkpt>
<trkpt lat="40.0719173" lon="-105.2297538">
  <ele>1583.0</ele>
  <time>2026-08-28T17:49:36Z</time>
  <course>33.1</course>
  <speed>0.82</speed>
  <fix>3d</fix>
</trkpt>
<trkpt lat="40.0719187" lon="-105.2297519">
  <ele>1583.19</ele>
  <time>2026-08-28T17:49:36Z</time>
  <course>39.78</course>
  <speed>0.785175139698144</speed>
  <fix>3d</fix>
</trkpt>
<trkpt lat="40.0719185" lon="-105.2297527">
  <ele>1583.0</ele>
  <time>2026-08-28T17:49:36Z</time>
  <course>37.11</course>
  <speed>0.82</speed>
  <fix>3d</fix>
</trkpt>
<trkpt lat="40.0719193" lon="-105.2297512">
  <ele>1583.19</ele>
  <time>2026-08-28T17:49:37Z</time>
  <course>41.78</course>
  <speed>0.7849203781276163</speed>
  <fix>3d</fix>
</trkpt>
<trkpt lat="40.0719185" lon="-105.2297527">
  <ele>1583.0</ele>
  <time>2026-08-28T17:49:37Z</time>
  <course>37.11</course>
  <speed>0.82</speed>
  <fix>3d</fix>
</trkpt>
<trkpt lat="40.0719199" lon="-105.2297506">
  <ele>1583.19</ele>
  <time>2026-08-28T17:49:37Z</time>
  <course>43.77</course>
  <speed>0.792464510246358</speed>
  <fix>3d</fix>
</trkpt>
<trkpt lat="40.0719197" lon="-105.2297514">
  <ele>1583.0</ele>
  <time>2026-08-28T17:49:37Z</time>
  <course>41.1</course>
  <speed>0.82</speed>
  <fix>3d</fix>
</trkpt>
<trkpt lat="40.0719204" lon="-105.2297499">
  <ele>1583.19</ele>
  <time>2026-08-28T17:49:37Z</time>
  <course>45.76</course>
  <speed>0.7939773296511683</speed>
  <fix>3d</fix>
</trkpt>
<trkpt lat="40.0719197" lon="-105.2297514">
  <ele>1583.0</ele>
  <time>2026-08-28T17:49:37Z</time>
  <course>41.1</course>
  <speed>0.82</speed>
  <fix>3d</fix>
</trkpt>
<trkpt lat="40.0719209" lon="-105.2297491">
  <ele>1583.19</ele>
  <time>2026-08-28T17:49:37Z</time>
  <course>47.75</course>
  <speed>0.7964923100695951</speed>
  <fix>3d</fix>
</trkpt>
<trkpt lat="40.0719208" lon="-105.22975">
  <ele>1583.0</ele>
  <time>2026-08-28T17:49:37Z</time>
  <course>45.08</course>
  <speed>0.82</speed>
  <fix>3d</fix>
</trkpt>
<trkpt lat="40.0719214" lon="-105.2297484">
  <ele>1583.19</ele>
  <time>2026-08-28T17:49:37Z</time>
  <course>49.73</course>
  <speed>0.8</speed>
  <fix>3d</fix>
</trkpt>
<trkpt lat="40.0719208" lon="-105.22975">
  <ele>1583.0</ele>
  <time>2026-08-28T17:49:37Z</time>
  <course>45.08</course>
  <speed>0.82</speed>
  <fix>3d</fix>
</trkpt>
<trkpt lat="40.0719219" lon="-105.2297476">
  <ele>1583.19</ele>
  <time>2026-08-28T17:49:37Z</time>
  <course>51.71</course>
  <speed>0.8044874144447506</speed>
  <fix>3d</fix>
</trkpt>
<trkpt lat="40.0719218" lon="-105.2297486">
  <ele>1583.0</ele>
  <time>2026-08-28T17:49:37Z</time>
  <course>49.06</course>
  <speed>0.81</speed>
  <fix>3d</fix>
</trkpt>
<trkpt lat="40.0719224" lon="-105.2297468">
  <ele>1583.19</ele>
  <time>2026-08-28T17:49:37Z</time>
  <course>53.69</course>
  <speed>0.8099382692526634</speed>
  <fix>3d</fix>
</trkpt>
<trkpt lat="40.0719218" lon="-105.2297486">
  <ele>1583.0</ele>
  <time>2026-08-28T17:49:37Z</time>
  <course>49.06</course>
  <speed>0.81</speed>
  <fix>3d</fix>
</trkpt>
<trkpt lat="40.0719228" lon="-105.229746">
  <ele>1583.19</ele>
  <time>2026-08-28T17:49:37Z</time>
  <course>55.67</course>
  <speed>0.816333265278342</speed>
  <fix>3d</fix>
</trkpt>
<trkpt lat="40.0719218" lon="-105.2297486">
  <ele>1583.0</ele>
  <time>2026-08-28T17:49:37Z</time>
  <course>49.06</course>
  <speed>0.81</speed>
  <fix>3d</fix>
</trkpt>
<trkpt lat="40.0719232" lon="-105.2297452">
  <ele>1583.19</ele>
  <time>2026-08-28T17:49:37Z</time>
  <course>57.64</course>
  <speed>0.8100617260431454</speed>
  <fix>3d</fix>
</trkpt>
<trkpt lat="40.0719227" lon="-105.2297472">
  <ele>1583.0</ele>
  <time>2026-08-28T17:49:37Z</time>
  <course>53.03</course>
  <speed>0.81</speed>
  <fix>3d</fix>
</trkpt>
<trkpt lat="40.0719236" lon="-105.2297444">
  <ele>1583.19</ele>
  <time>2026-08-28T17:49:37Z</time>
  <course>59.62</course>
  <speed>0.8184130986244049</speed>
  <fix>3d</fix>
</trkpt>
<trkpt lat="40.0719227" lon="-105.2297472">
  <ele>1583.0</ele>
  <time>2026-08-28T17:49:37Z</time>
  <course>53.03</course>
  <speed>0.81</speed>
  <fix>3d</fix>
</trkpt>
<trkpt lat="40.071924" lon="-105.2297435">
  <ele>1583.19</ele>
  <time>2026-08-28T17:49:37Z</time>
  <course>61.59</course>
  <speed>0.8185963596303125</speed>
  <fix>3d</fix>
</trkpt>
<trkpt lat="40.0719236" lon="-105.2297456">
  <ele>1583.0</ele>
  <time>2026-08-28T17:49:37Z</time>
  <course>56.99</course>
  <speed>0.81</speed>
  <fix>3d</fix>
</trkpt>
<trkpt lat="40.0719243" lon="-105.2297427">
  <ele>1583.19</ele>
  <time>2026-08-28T17:49:37Z</time>
  <course>63.55</course>
  <speed>0.8154140052758475</speed>
  <fix>3d</fix>
</trkpt>
<trkpt lat="40.0719236" lon="-105.2297456">
  <ele>1583.0</ele>
  <time>2026-08-28T17:49:37Z</time>
  <course>56.99</course>
  <speed>0.81</speed>
  <fix>3d</fix>
</trkpt>
<trkpt lat="40.0719247" lon="-105.2297418">
  <ele>1583.19</ele>
  <time>2026-08-28T17:49:37Z</time>
  <course>65.52</course>
  <speed>0.8170679286326198</speed>
  <fix>3d</fix>
</trkpt>
<trkpt lat="40.0719243" lon="-105.229744">
  <ele>1583.0</ele>
  <time>2026-08-28T17:49:37Z</time>
  <course>60.93</course>
  <speed>0.81</speed>
  <fix>3d</fix>
</trkpt>
<trkpt lat="40.071925" lon="-105.2297409">
  <ele>1583.19</ele>
  <time>2026-08-28T17:49:37Z</time>
  <course>67.5</course>
  <speed>0.8193289937503738</speed>
  <fix>3d</fix>
</trkpt>
<trkpt lat="40.071925" lon="-105.2297423">
  <ele>1583.0</ele>
  <time>2026-08-28T17:49:37Z</time>
  <course>64.87</course>
  <speed>0.81</speed>
  <fix>3d</fix>
</trkpt>
<trkpt lat="40.0719253" lon="-105.2297401">
  <ele>1583.19</ele>
  <time>2026-08-28T17:49:37Z</time>
  <course>69.47</course>
  <speed>0.8190848551890091</speed>
  <fix>3d</fix>
</trkpt>
<trkpt lat="40.071925" lon="-105.2297423">
  <ele>1583.0</ele>
  <time>2026-08-28T17:49:37Z</time>
  <course>64.87</course>
  <speed>0.81</speed>
  <fix>3d</fix>
</trkpt>
<trkpt lat="40.0719255" lon="-105.2297392">
  <ele>1583.19</ele>
  <time>2026-08-28T17:49:37Z</time>
  <course>71.43</course>
  <speed>0.8228000972289685</speed>
  <fix>3d</fix>
</trkpt>
<trkpt lat="40.0719256" lon="-105.2297405">
  <ele>1583.0</ele>
  <time>2026-08-28T17:49:37Z</time>
  <course>68.81</course>
  <speed>0.81</speed>
  <fix>3d</fix>
</trkpt>
<trkpt lat="40.0719258" lon="-105.2297383">
  <ele>1583.19</ele>
  <time>2026-08-28T17:49:37Z</time>
  <course>73.37</course>
  <speed>0.8246211251235321</speed>
  <fix>3d</fix>
</trkpt>
<trkpt lat="40.0719256" lon="-105.2297405">
  <ele>1583.0</ele>
  <time>2026-08-28T17:49:37Z</time>
  <course>68.81</course>
  <speed>0.81</speed>
  <fix>3d</fix>
</trkpt>
<trkpt lat="40.071926" lon="-105.2297373">
  <ele>1583.19</ele>
  <time>2026-08-28T17:49:37Z</time>
  <course>75.33</course>
  <speed>0.8297590011563598</speed>
  <fix>3d</fix>
</trkpt>
<trkpt lat="40.0719261" lon="-105.2297387">
  <ele>1583.0</ele>
  <time>2026-08-28T17:49:37Z</time>
  <course>72.73</course>
  <speed>0.81</speed>
  <fix>3d</fix>
</trkpt>
<trkpt lat="40.0719262" lon="-105.2297364">
  <ele>1583.19</ele>
  <time>2026-08-28T17:49:37Z</time>
  <course>77.29</course>
  <speed>0.8237718130647589</speed>
  <fix>3d</fix>
</trkpt>
<trkpt lat="40.0719261" lon="-105.2297387">
  <ele>1583.0</ele>
  <time>2026-08-28T17:49:37Z</time>
  <course>72.73</course>
  <speed>0.81</speed>
  <fix>3d</fix>
</trkpt>
<trkpt lat="40.0719263" lon="-105.2297355">
  <ele>1583.19</ele>
  <time>2026-08-28T17:49:37Z</time>
  <course>79.25</course>
  <speed>0.8302409288875127</speed>
  <fix>3d</fix>
</trkpt>
<trkpt lat="40.0719264" lon="-105.2297369">
  <ele>1583.0</ele>
  <time>2026-08-28T17:49:37Z</time>
  <course>76.65</course>
  <speed>0.8</speed>
  <fix>3d</fix>
</trkpt>
<trkpt lat="40.0719265" lon="-105.2297345">
  <ele>1583.2</ele>
  <time>2026-08-28T17:49:37Z</time>
  <course>81.22</course>
  <speed>0.8260750571225353</speed>
  <fix>3d</fix>
</trkpt>
<trkpt lat="40.0719264" lon="-105.2297369">
  <ele>1583.0</ele>
  <time>2026-08-28T17:49:37Z</time>
  <course>76.65</course>
  <speed>0.8</speed>
  <fix>3d</fix>
</trkpt>
<trkpt lat="40.0719266" lon="-105.2297336">
  <ele>1583.2</ele>
  <time>2026-08-28T17:49:37Z</time>
  <course>83.18</course>
  <speed>0.8329465769183519</speed>
  <fix>3d</fix>
</trkpt>
<trkpt lat="40.0719267" lon="-105.229735">
  <ele>1583.0</ele>
  <time>2026-08-28T17:49:37Z</time>
  <course>80.57</course>
  <speed>0.8</speed>
  <fix>3d</fix>
</trkpt>
<trkpt lat="40.0719267" lon="-105.2297326">
  <ele>1583.2</ele>
  <time>2026-08-28T17:49:37Z</time>
  <course>85.13</course>
  <speed>0.8315046602394962</speed>
  <fix>3d</fix>
</trkpt>
<trkpt lat="40.0719267" lon="-105.229735">
  <ele>1583.0</ele>
  <time>2026-08-28T17:49:37Z</time>
  <course>80.57</course>
  <speed>0.8</speed>
  <fix>3d</fix>
</trkpt>
<trkpt lat="40.0719267" lon="-105.2297316">
  <ele>1583.2</ele>
  <time>2026-08-28T17:49:37Z</time>
  <course>87.08</course>
  <speed>0.8302409288875127</speed>
  <fix>3d</fix>
</trkpt>
<trkpt lat="40.0719269" lon="-105.2297332">
  <ele>1583.0</ele>
  <time>2026-08-28T17:49:37Z</time>
  <course>84.48</course>
  <speed>0.8</speed>
  <fix>3d</fix>
</trkpt>
<trkpt lat="40.0719268" lon="-105.2297307">
  <ele>1583.2</ele>
  <time>2026-08-28T17:49:37Z</time>
  <course>89.04</course>
  <speed>0.83</speed>
  <fix>3d</fix>
</trkpt>
<trkpt lat="40.0719269" lon="-105.2297332">
  <ele>1583.0</ele>
  <time>2026-08-28T17:49:37Z</time>
  <course>84.48</course>
  <speed>0.8</speed>
  <fix>3d</fix>
</trkpt>
<trkpt lat="40.0719268" lon="-105.2297298">
  <ele>1583.2</ele>
  <time>2026-08-28T17:49:37Z</time>
  <course>90.99</course>
  <speed>0.8302409288875127</speed>
  <fix>3d</fix>
</trkpt>
<trkpt lat="40.071927" lon="-105.2297313">
  <ele>1583.0</ele>
  <time>2026-08-28T17:49:37Z</time>
  <course>88.39</course>
  <speed>0.8</speed>
  <fix>3d</fix>
</trkpt>
<trkpt lat="40.0719267" lon="-105.2297288">
  <ele>1583.2</ele>
  <time>2026-08-28T17:49:37Z</time>
  <course>92.94</course>
  <speed>0.8315046602394962</speed>
  <fix>3d</fix>
</trkpt>
<trkpt lat="40.071927" lon="-105.2297313">
  <ele>1583.0</ele>
  <time>2026-08-28T17:49:37Z</time>
  <course>88.39</course>
  <speed>0.8</speed>
  <fix>3d</fix>
</trkpt>
<trkpt lat="40.0719267" lon="-105.2297279">
  <ele>1583.2</ele>
  <time>2026-08-28T17:49:37Z</time>
  <course>94.89</course>
  <speed>0.8238931969618392</speed>
  <fix>3d</fix>
</trkpt>
<trkpt lat="40.071927" lon="-105.2297313">
  <ele>1583.0</ele>
  <time>2026-08-28T17:49:37Z</time>
  <course>88.39</course>
  <speed>0.8</speed>
  <fix>3d</fix>
</trkpt>
<trkpt lat="40.0719267" lon="-105.2297269">
  <ele>1583.2</ele>
  <time>2026-08-28T17:49:37Z</time>
  <course>96.84</course>
  <speed>0.8260750571225353</speed>
  <fix>3d</fix>
</trkpt>
<trkpt lat="40.071927" lon="-105.2297294">
  <ele>1583.0</ele>
  <time>2026-08-28T17:49:37Z</time>
  <course>92.31</course>
  <speed>0.8</speed>
  <fix>3d</fix>
</trkpt>
<trkpt lat="40.0719267" lon="-105.229726">
  <ele>1583.2</ele>
  <time>2026-08-28T17:49:37Z</time>
  <course>98.77</course>
  <speed>0.7990619500389191</speed>
  <fix>3d</fix>
</trkpt>
<trkpt lat="40.071927" lon="-105.2297294">
  <ele>1583.0</ele>
  <time>2026-08-28T17:49:37Z</time>
  <course>92.31</course>
  <speed>0.8</speed>
  <fix>3d</fix>
</trkpt>
<trkpt lat="40.0719266" lon="-105.2297251">
  <ele>1583.2</ele>
  <time>2026-08-28T17:49:37Z</time>
  <course>100.63</course>
  <speed>0.762954782408499</speed>
  <fix>3d</fix>
</trkpt>
<trkpt lat="40.0719269" lon="-105.2297275">
  <ele>1583.0</ele>
  <time>2026-08-28T17:49:37Z</time>
  <course>96.19</course>
  <speed>0.79</speed>
  <fix>3d</fix>
</trkpt>
<trkpt lat="40.0719264" lon="-105.2297243">
  <ele>1583.2</ele>
  <time>2026-08-28T17:49:37Z</time>
  <course>101.7</course>
  <speed>0.7256721022610694</speed>
  <fix>3d</fix>
</trkpt>
<trkpt lat="40.0719269" lon="-105.2297275">
  <ele>1583.0</ele>
  <time>2026-08-28T17:49:37Z</time>
  <course>96.19</course>
  <speed>0.79</speed>
  <fix>3d</fix>
</trkpt>
<trkpt lat="40.0719263" lon="-105.2297236">
  <ele>1583.2</ele>
  <time>2026-08-28T17:49:37Z</time>
  <course>101.7</course>
  <speed>0.6844705983459041</speed>
  <fix>3d</fix>
</trkpt>
<trkpt lat="40.0719268" lon="-105.2297257">
  <ele>1583.0</ele>
  <time>2026-08-28T17:49:37Z</time>
  <course>99.54</course>
  <speed>0.74</speed>
  <fix>3d</fix>
</trkpt>
<trkpt lat="40.0719262" lon="-105.2297228">
  <ele>1583.2</ele>
  <time>2026-08-28T17:49:37Z</time>
  <course>101.7</course>
  <speed>0.6746851117373199</speed>
  <fix>3d</fix>
</trkpt>
<trkpt lat="40.0719266" lon="-105.2297241">
  <ele>1583.0</ele>
  <time>2026-08-28T17:49:37Z</time>
  <course>101.06</course>
  <speed>0.68</speed>
  <fix>3d</fix>
</trkpt>
<trkpt lat="40.0719261" lon="-105.229722">
  <ele>1583.21</ele>
  <time>2026-08-28T17:49:37Z</time>
  <course>101.7</course>
  <speed>0.7648529270389177</speed>
  <fix>3d</fix>
</trkpt>
<trkpt lat="40.0719266" lon="-105.2297241">
  <ele>1583.0</ele>
  <time>2026-08-28T17:49:37Z</time>
  <course>101.06</course>
  <speed>0.68</speed>
  <fix>3d</fix>
</trkpt>
<trkpt lat="40.071926" lon="-105.2297211">
  <ele>1583.21</ele>
  <time>2026-08-28T17:49:37Z</time>
  <course>101.7</course>
  <speed>0.9394147114027968</speed>
  <fix>3d</fix>
</trkpt>
<trkpt lat="40.0719263" lon="-105.2297223">
  <ele>1583.0</ele>
  <time>2026-08-28T17:49:37Z</time>
  <course>101.06</course>
  <speed>0.79</speed>
  <fix>3d</fix>
</trkpt>
<trkpt lat="40.0719258" lon="-105.2297199">
  <ele>1583.21</ele>
  <time>2026-08-28T17:49:37Z</time>
  <course>101.7</course>
  <speed>1.2041594578792294</speed>
  <fix>3d</fix>
</trkpt>
<trkpt lat="40.0719263" lon="-105.2297223">
  <ele>1583.0</ele>
  <time>2026-08-28T17:49:37Z</time>
  <course>101.06</course>
  <speed>0.79</speed>
  <fix>3d</fix>
</trkpt>
<trkpt lat="40.0719256" lon="-105.2297183">
  <ele>1583.21</ele>
  <time>2026-08-28T17:49:37Z</time>
  <course>101.7</course>
  <speed>1.5002999700059985</speed>
  <fix>3d</fix>
</trkpt>
<trkpt lat="40.071926" lon="-105.2297201">
  <ele>1583.0</ele>
  <time>2026-08-28T17:49:37Z</time>
  <course>101.06</course>
  <speed>1.21</speed>
  <fix>3d</fix>
</trkpt>
<trkpt lat="40.0719253" lon="-105.2297164">
  <ele>1583.2</ele>
  <time>2026-08-28T17:49:37Z</time>
  <course>101.71</course>
  <speed>1.7748521065147935</speed>
  <fix>3d</fix>
</trkpt>
<trkpt lat="40.071926" lon="-105.2297201">
  <ele>1583.0</ele>
  <time>2026-08-28T17:49:37Z</time>
  <course>101.06</course>
  <speed>1.21</speed>
  <fix>3d</fix>
</trkpt>
<trkpt lat="40.071925" lon="-105.2297141">
  <ele>1583.2</ele>
  <time>2026-08-28T17:49:37Z</time>
  <course>101.72</course>
  <speed>2.051389772812568</speed>
  <fix>3d</fix>
</trkpt>
<trkpt lat="40.0719254" lon="-105.2297167">
  <ele>1583.0</ele>
  <time>2026-08-28T17:49:37Z</time>
  <course>101.06</course>
  <speed>1.76</speed>
  <fix>3d</fix>
</trkpt>
<trkpt lat="40.0719246" lon="-105.2297115">
  <ele>1583.2</ele>
  <time>2026-08-28T17:49:37Z</time>
  <course>101.73</course>
  <speed>2.30633909042014</speed>
  <fix>3d</fix>
</trkpt>
<trkpt lat="40.0719254" lon="-105.2297167">
  <ele>1583.0</ele>
  <time>2026-08-28T17:49:37Z</time>
  <course>101.06</course>
  <speed>1.76</speed>
  <fix>3d</fix>
</trkpt>
<trkpt lat="40.0719241" lon="-105.2297087">
  <ele>1583.19</ele>
  <time>2026-08-28T17:49:37Z</time>
  <course>101.73</course>
  <speed>2.5514897609044014</speed>
  <fix>3d</fix>
</trkpt>
<trkpt lat="40.0719248" lon="-105.229712">
  <ele>1583.0</ele>
  <time>2026-08-28T17:49:37Z</time>
  <course>101.06</course>
  <speed>2.27</speed>
  <fix>3d</fix>
</trkpt>
<trkpt lat="40.0719237" lon="-105.2297055">
  <ele>1583.19</ele>
  <time>2026-08-28T17:49:37Z</time>
  <course>101.74</course>
  <speed>2.7868440932352136</speed>
  <fix>3d</fix>
</trkpt>
<trkpt lat="40.0719248" lon="-105.229712">
  <ele>1583.0</ele>
  <time>2026-08-28T17:49:37Z</time>
  <course>101.06</course>
  <speed>2.27</speed>
  <fix>3d</fix>
</trkpt>
<trkpt lat="40.0719231" lon="-105.2297021">
  <ele>1583.19</ele>
  <time>2026-08-28T17:49:37Z</time>
  <course>101.74</course>
  <speed>3.000599940011997</speed>
  <fix>3d</fix>
</trkpt>
<trkpt lat="40.0719239" lon="-105.2297062">
  <ele>1583.0</ele>
  <time>2026-08-28T17:49:37Z</time>
  <course>101.06</course>
  <speed>2.74</speed>
  <fix>3d</fix>
</trkpt>
<trkpt lat="40.0719226" lon="-105.2296985">
  <ele>1583.19</ele>
  <time>2026-08-28T17:49:37Z</time>
  <course>101.75</course>
  <speed>3.2143584118763107</speed>
  <fix>3d</fix>
</trkpt>
<trkpt lat="40.0719239" lon="-105.2297062">
  <ele>1583.0</ele>
  <time>2026-08-28T17:49:37Z</time>
  <course>101.06</course>
  <speed>2.74</speed>
  <fix>3d</fix>
</trkpt>
<trkpt lat="40.071922" lon="-105.2296946">
  <ele>1583.19</ele>
  <time>2026-08-28T17:49:37Z</time>
  <course>101.75</course>
  <speed>3.408518739863403</speed>
  <fix>3d</fix>
</trkpt>
<trkpt lat="40.0719229" lon="-105.2296994">
  <ele>1583.0</ele>
  <time>2026-08-28T17:49:37Z</time>
  <course>101.06</course>
  <speed>3.17</speed>
  <fix>3d</fix>
</trkpt>
<trkpt lat="40.0719214" lon="-105.2296905">
  <ele>1583.19</ele>
  <time>2026-08-28T17:49:37Z</time>
  <course>101.75</course>
  <speed>3.6026795583287723</speed>
  <fix>3d</fix>
</trkpt>
<trkpt lat="40.0719229" lon="-105.2296994">
  <ele>1583.0</ele>
  <time>2026-08-28T17:49:37Z</time>
  <course>101.06</course>
  <speed>3.17</speed>
  <fix>3d</fix>
</trkpt>
<trkpt lat="40.0719207" lon="-105.2296862">
  <ele>1583.2</ele>
  <time>2026-08-28T17:49:37Z</time>
  <course>101.75</course>
  <speed>3.787043701886737</speed>
  <fix>3d</fix>
</trkpt>
<trkpt lat="40.0719229" lon="-105.2296994">
  <ele>1583.0</ele>
  <time>2026-08-28T17:49:37Z</time>
  <course>101.06</course>
  <speed>3.17</speed>
  <fix>3d</fix>
</trkpt>
<trkpt lat="40.0719201" lon="-105.2296817">
  <ele>1583.2</ele>
  <time>2026-08-28T17:49:37Z</time>
  <course>101.75</course>
  <speed>3.9498101220185253</speed>
  <fix>3d</fix>
</trkpt>
<trkpt lat="40.0719217" lon="-105.2296916">
  <ele>1583.0</ele>
  <time>2026-08-28T17:49:37Z</time>
  <course>101.06</course>
  <speed>3.55</speed>
  <fix>3d</fix>
</trkpt>
<trkpt lat="40.0719194" lon="-105.2296771">
  <ele>1583.2</ele>
  <time>2026-08-28T17:49:37Z</time>
  <course>101.75</course>
  <speed>4.11257826673244</speed>
  <fix>3d</fix>
</trkpt>
<trkpt lat="40.0719217" lon="-105.2296916">
  <ele>1583.0</ele>
  <time>2026-08-28T17:49:37Z</time>
  <course>101.06</course>
  <speed>3.55</speed>
  <fix>3d</fix>
</trkpt>
<trkpt lat="40.0719186" lon="-105.2296723">
  <ele>1583.2</ele>
  <time>2026-08-28T17:49:37Z</time>
  <course>101.74</course>
  <speed>4.265548030441106</speed>
  <fix>3d</fix>
</trkpt>
<trkpt lat="40.0719204" lon="-105.229683">
  <ele>1583.0</ele>
  <time>2026-08-28T17:49:37Z</time>
  <course>101.06</course>
  <speed>3.9</speed>
  <fix>3d</fix>
</trkpt>
<trkpt lat="40.0719179" lon="-105.2296673">
  <ele>1583.2</ele>
  <time>2026-08-28T17:49:37Z</time>
  <course>101.74</course>
  <speed>4.408718634705553</speed>
  <fix>3d</fix>
</trkpt>
<trkpt lat="40.0719204" lon="-105.229683">
  <ele>1583.0</ele>
  <time>2026-08-28T17:49:37Z</time>
  <course>101.06</course>
  <speed>3.9</speed>
  <fix>3d</fix>
</trkpt>
<trkpt lat="40.0719171" lon="-105.2296622">
  <ele>1583.2</ele>
  <time>2026-08-28T17:49:37Z</time>
  <course>101.73</course>
  <speed>4.549901097826194</speed>
  <fix>3d</fix>
</trkpt>
<trkpt lat="40.071919" lon="-105.2296736">
  <ele>1583.0</ele>
  <time>2026-08-28T17:49:37Z</time>
  <course>101.06</course>
  <speed>4.21</speed>
  <fix>3d</fix>
</trkpt>
<trkpt lat="40.0719163" lon="-105.2296569">
  <ele>1583.2</ele>
  <time>2026-08-28T17:49:37Z</time>
  <course>101.72</course>
  <speed>4.683268089699755</speed>
  <fix>3d</fix>
</trkpt>
<trkpt lat="40.071919" lon="-105.2296736">
  <ele>1583.0</ele>
  <time>2026-08-28T17:49:37Z</time>
  <course>101.06</course>
  <speed>4.21</speed>
  <fix>3d</fix>
</trkpt>
<trkpt lat="40.0719155" lon="-105.2296514">
  <ele>1583.19</ele>
  <time>2026-08-28T17:49:37Z</time>
  <course>101.72</course>
  <speed>4.8048517146734095</speed>
  <fix>3d</fix>
</trkpt>
<trkpt lat="40.0719175" lon="-105.2296636">
  <ele>1583.0</ele>
  <time>2026-08-28T17:49:37Z</time>
  <course>101.06</course>
  <speed>4.5</speed>
  <fix>3d</fix>
</trkpt>
<trkpt lat="40.0719147" lon="-105.2296459">
  <ele>1583.19</ele>
  <time>2026-08-28T17:49:37Z</time>
  <course>101.71</course>
  <speed>4.916635028146791</speed>
  <fix>3d</fix>
</trkpt>
<trkpt lat="40.0719159" lon="-105.229653">
  <ele>1583.0</ele>
  <time>2026-08-28T17:49:37Z</time>
  <course>101.06</course>
  <speed>4.75</speed>
  <fix>3d</fix>
</trkpt>
<trkpt lat="40.0719138" lon="-105.2296401">
  <ele>1583.19</ele>
  <time>2026-08-28T17:49:37Z</time>
  <course>101.71</course>
  <speed>5.040198408793051</speed>
  <fix>3d</fix>
</trkpt>
<trkpt lat="40.0719159" lon="-105.229653">
  <ele>1583.0</ele>
  <time>2026-08-28T17:49:37Z</time>
  <course>101.06</course>
  <speed>4.75</speed>
  <fix>3d</fix>
</trkpt>
<trkpt lat="40.0719129" lon="-105.2296343">
  <ele>1583.19</ele>
  <time>2026-08-28T17:49:37Z</time>
  <course>101.71</course>
  <speed>5.142178526655798</speed>
  <fix>3d</fix>
</trkpt>
<trkpt lat="40.0719142" lon="-105.2296417">
  <ele>1583.0</ele>
  <time>2026-08-28T17:49:37Z</time>
  <course>101.06</course>
  <speed>4.98</speed>
  <fix>3d</fix>
</trkpt>
<trkpt lat="40.071912" lon="-105.2296283">
  <ele>1583.19</ele>
  <time>2026-08-28T17:49:37Z</time>
  <course>101.7</course>
  <speed>5.244158655113325</speed>
  <fix>3d</fix>
</trkpt>
<trkpt lat="40.0719142" lon="-105.2296417">
  <ele>1583.0</ele>
  <time>2026-08-28T17:49:37Z</time>
  <course>101.06</course>
  <speed>4.98</speed>
  <fix>3d</fix>
</trkpt>
<trkpt lat="40.0719111" lon="-105.2296221">
  <ele>1583.19</ele>
  <time>2026-08-28T17:49:37Z</time>
  <course>101.7</course>
  <speed>5.344165042361623</speed>
  <fix>3d</fix>
</trkpt>
<trkpt lat="40.0719124" lon="-105.22963">
  <ele>1583.0</ele>
  <time>2026-08-28T17:49:37Z</time>
  <course>101.06</course>
  <speed>5.19</speed>
  <fix>3d</fix>
</trkpt>
<trkpt lat="40.0719102" lon="-105.2296159">
  <ele>1583.19</ele>
  <time>2026-08-28T17:49:37Z</time>
  <course>101.7</course>
  <speed>5.436340681009607</speed>
  <fix>3d</fix>
</trkpt>
<trkpt lat="40.0719124" lon="-105.22963">
  <ele>1583.0</ele>
  <time>2026-08-28T17:49:37Z</time>
  <course>101.06</course>
  <speed>5.19</speed>
  <fix>3d</fix>
</trkpt>
<trkpt lat="40.0719092" lon="-105.2296095">
  <ele>1583.19</ele>
  <time>2026-08-28T17:49:37Z</time>
  <course>101.7</course>
  <speed>5.528516980167466</speed>
  <fix>3d</fix>
</trkpt>
<trkpt lat="40.0719107" lon="-105.2296178">
  <ele>1583.0</ele>
  <time>2026-08-28T17:49:37Z</time>
  <course>101.06</course>
  <speed>5.39</speed>
  <fix>3d</fix>
</trkpt>
<trkpt lat="40.0719082" lon="-105.229603">
  <ele>1583.19</ele>
  <time>2026-08-28T17:49:37Z</time>
  <course>101.7</course>
  <speed>5.608921464952064</speed>
  <fix>3d</fix>
</trkpt>
<trkpt lat="40.0719107" lon="-105.2296178">
  <ele>1583.0</ele>
  <time>2026-08-28T17:49:37Z</time>
  <course>101.06</course>
  <speed>5.39</speed>
  <fix>3d</fix>
</trkpt>
<trkpt lat="40.0719073" lon="-105.2295965">
  <ele>1583.19</ele>
  <time>2026-08-28T17:49:37Z</time>
  <course>101.7</course>
  <speed>5.691291593302878</speed>
  <fix>3d</fix>
</trkpt>
<trkpt lat="40.0719088" lon="-105.2296052">
  <ele>1583.0</ele>
  <time>2026-08-28T17:49:37Z</time>
  <course>101.06</course>
  <speed>5.56</speed>
  <fix>3d</fix>
</trkpt>
<trkpt lat="40.0719063" lon="-105.2295899">
  <ele>1583.19</ele>
  <time>2026-08-28T17:49:37Z</time>
  <course>101.69</course>
  <speed>5.771698190307598</speed>
  <fix>3d</fix>
</trkpt>
<trkpt lat="40.0719088" lon="-105.2296052">
  <ele>1583.0</ele>
  <time>2026-08-28T17:49:37Z</time>
  <course>101.06</course>
  <speed>5.56</speed>
  <fix>3d</fix>
</trkpt>
<trkpt lat="40.0719053" lon="-105.2295832">
  <ele>1583.18</ele>
  <time>2026-08-28T17:49:37Z</time>
  <course>101.69</course>
  <speed>5.844262143333408</speed>
  <fix>3d</fix>
</trkpt>
<trkpt lat="40.0719068" lon="-105.2295921">
  <ele>1583.0</ele>
  <time>2026-08-28T17:49:37Z</time>
  <course>101.06</course>
  <speed>5.71</speed>
  <fix>3d</fix>
</trkpt>
<trkpt lat="40.0719043" lon="-105.2295764">
  <ele>1583.18</ele>
  <time>2026-08-28T17:49:37Z</time>
  <course>101.69</course>
  <speed>5.91486263576763</speed>
  <fix>3d</fix>
</trkpt>
<trkpt lat="40.0719068" lon="-105.2295921">
  <ele>1583.0</ele>
  <time>2026-08-28T17:49:37Z</time>
  <course>101.06</course>
  <speed>5.71</speed>
  <fix>3d</fix>
</trkpt>
<trkpt lat="40.0719032" lon="-105.2295695">
  <ele>1583.18</ele>
  <time>2026-08-28T17:49:37Z</time>
  <course>101.68</course>
  <speed>5.975658959478863</speed>
  <fix>3d</fix>
</trkpt>
<trkpt lat="40.0719048" lon="-105.2295788">
  <ele>1583.0</ele>
  <time>2026-08-28T17:49:37Z</time>
  <course>101.06</course>
  <speed>5.85</speed>
  <fix>3d</fix>
</trkpt>
<trkpt lat="40.0719022" lon="-105.2295626">
  <ele>1583.18</ele>
  <time>2026-08-28T17:49:37Z</time>
  <course>101.68</course>
  <speed>6.03645591386204</speed>
  <fix>3d</fix>
</trkpt>
<trkpt lat="40.0719048" lon="-105.2295788">
  <ele>1583.0</ele>
  <time>2026-08-28T17:49:37Z</time>
  <course>101.06</course>
  <speed>5.85</speed>
  <fix>3d</fix>
</trkpt>
<trkpt lat="40.0719011" lon="-105.2295556">
  <ele>1583.18</ele>
  <time>2026-08-28T17:49:37Z</time>
  <course>101.68</course>
  <speed>6.0972534800514895</speed>
  <fix>3d</fix>
</trkpt>
<trkpt lat="40.0719048" lon="-105.2295788">
  <ele>1583.0</ele>
  <time>2026-08-28T17:49:37Z</time>
  <course>101.06</course>
  <speed>5.85</speed>
  <fix>3d</fix>
</trkpt>
<trkpt lat="40.0719001" lon="-105.2295486">
  <ele>1583.18</ele>
  <time>2026-08-28T17:49:37Z</time>
  <course>101.68</course>
  <speed>6.148243651645565</speed>
  <fix>3d</fix>
</trkpt>
<trkpt lat="40.0719028" lon="-105.2295652">
  <ele>1583.0</ele>
  <time>2026-08-28T17:49:37Z</time>
  <course>101.06</course>
  <speed>5.98</speed>
  <fix>3d</fix>
</trkpt>
<trkpt lat="40.0718991" lon="-105.2295415">
  <ele>1583.18</ele>
  <time>2026-08-28T17:49:37Z</time>
  <course>101.67</course>
  <speed>6.199233823626916</speed>
  <fix>3d</fix>
</trkpt>
<trkpt lat="40.0719028" lon="-105.2295652">
  <ele>1583.0</ele>
  <time>2026-08-28T17:49:37Z</time>
  <course>101.06</course>
  <speed>5.98</speed>
  <fix>3d</fix>
</trkpt>
<trkpt lat="40.071898" lon="-105.2295344">
  <ele>1583.18</ele>
  <time>2026-08-28T17:49:37Z</time>
  <course>101.67</course>
  <speed>6.250223995986064</speed>
  <fix>3d</fix>
</trkpt>
<trkpt lat="40.0719007" lon="-105.2295512">
  <ele>1583.0</ele>
  <time>2026-08-28T17:49:37Z</time>
  <course>101.06</course>
  <speed>6.1</speed>
  <fix>3d</fix>
</trkpt>
<trkpt lat="40.0718969" lon="-105.2295273">
  <ele>1583.18</ele>
  <time>2026-08-28T17:49:37Z</time>
  <course>101.67</course>
  <speed>6.291406837901997</speed>
  <fix>3d</fix>
</trkpt>
<trkpt lat="40.0719007" lon="-105.2295512">
  <ele>1583.0</ele>
  <time>2026-08-28T17:49:37Z</time>
  <course>101.06</course>
  <speed>6.1</speed>
  <fix>3d</fix>
</trkpt>
<trkpt lat="40.0718959" lon="-105.2295201">
  <ele>1583.18</ele>
  <time>2026-08-28T17:49:37Z</time>
  <course>101.66</course>
  <speed>6.330639778095102</speed>
  <fix>3d</fix>
</trkpt>
<trkpt lat="40.0718986" lon="-105.229537">
  <ele>1583.0</ele>
  <time>2026-08-28T17:49:37Z</time>
  <course>101.06</course>
  <speed>6.2</speed>
  <fix>3d</fix>
</trkpt>
<trkpt lat="40.0718948" lon="-105.2295128">
  <ele>1583.19</ele>
  <time>2026-08-28T17:49:37Z</time>
  <course>101.66</course>
  <speed>6.371820775885022</speed>
  <fix>3d</fix>
</trkpt>
<trkpt lat="40.0718964" lon="-105.2295226">
  <ele>1583.0</ele>
  <time>2026-08-28T17:49:37Z</time>
  <course>101.06</course>
  <speed>6.3</speed>
  <fix>3d</fix>
</trkpt>
<trkpt lat="40.0718937" lon="-105.2295055">
  <ele>1583.19</ele>
  <time>2026-08-28T17:49:37Z</time>
  <course>101.66</course>
  <speed>6.413002416965083</speed>
  <fix>3d</fix>
</trkpt>
<trkpt lat="40.0718964" lon="-105.2295226">
  <ele>1583.0</ele>
  <time>2026-08-28T17:49:37Z</time>
  <course>101.06</course>
  <speed>6.3</speed>
  <fix>3d</fix>
</trkpt>
<trkpt lat="40.0718926" lon="-105.2294981">
  <ele>1583.19</ele>
  <time>2026-08-28T17:49:37Z</time>
  <course>101.66</course>
  <speed>6.452239921143664</speed>
  <fix>3d</fix>
</trkpt>
<trkpt lat="40.0718942" lon="-105.229508">
  <ele>1583.0</ele>
  <time>2026-08-28T17:49:37Z</time>
  <course>101.06</course>
  <speed>6.38</speed>
  <fix>3d</fix>
</trkpt>
<trkpt lat="40.0718915" lon="-105.2294907">
  <ele>1583.19</ele>
  <time>2026-08-28T17:49:37Z</time>
  <course>101.66</course>
  <speed>6.4836101054890705</speed>
  <fix>3d</fix>
</trkpt>
<trkpt lat="40.0718942" lon="-105.229508">
  <ele>1583.0</ele>
  <time>2026-08-28T17:49:37Z</time>
  <course>101.06</course>
  <speed>6.38</speed>
  <fix>3d</fix>
</trkpt>
<trkpt lat="40.0718904" lon="-105.2294832">
  <ele>1583.19</ele>
  <time>2026-08-28T17:49:37Z</time>
  <course>101.66</course>
  <speed>6.524791184398165</speed>
  <fix>3d</fix>
</trkpt>
<trkpt lat="40.071892" lon="-105.2294932">
  <ele>1583.0</ele>
  <time>2026-08-28T17:49:37Z</time>
  <course>101.06</course>
  <speed>6.46</speed>
  <fix>3d</fix>
</trkpt>
<trkpt lat="40.0718893" lon="-105.2294757">
  <ele>1583.19</ele>
  <time>2026-08-28T17:49:37Z</time>
  <course>101.66</course>
  <speed>6.554220014616537</speed>
  <fix>3d</fix>
</trkpt>
<trkpt lat="40.071892" lon="-105.2294932">
  <ele>1583.0</ele>
  <time>2026-08-28T17:49:37Z</time>
  <course>101.06</course>
  <speed>6.46</speed>
  <fix>3d</fix>
</trkpt>
<trkpt lat="40.0718881" lon="-105.2294681">
  <ele>1583.19</ele>
  <time>2026-08-28T17:49:37Z</time>
  <course>101.66</course>
  <speed>6.585590330410782</speed>
  <fix>3d</fix>
</trkpt>
<trkpt lat="40.0718897" lon="-105.2294782">
  <ele>1583.0</ele>
  <time>2026-08-28T17:49:37Z</time>
  <course>101.06</course>
  <speed>6.53</speed>
  <fix>3d</fix>
</trkpt>
<trkpt lat="40.071887" lon="-105.2294604">
  <ele>1583.19</ele>
  <time>2026-08-28T17:49:37Z</time>
  <course>101.66</course>
  <speed>6.615020786059557</speed>
  <fix>3d</fix>
</trkpt>
<trkpt lat="40.0718897" lon="-105.2294782">
  <ele>1583.0</ele>
  <time>2026-08-28T17:49:37Z</time>
  <course>101.06</course>
  <speed>6.53</speed>
  <fix>3d</fix>
</trkpt>
<trkpt lat="40.0718858" lon="-105.2294528">
  <ele>1583.19</ele>
  <time>2026-08-28T17:49:37Z</time>
  <course>101.67</course>
  <speed>6.646389997585155</speed>
  <fix>3d</fix>
</trkpt>
<trkpt lat="40.0718875" lon="-105.2294631">
  <ele>1583.0</ele>
  <time>2026-08-28T17:49:37Z</time>
  <course>101.06</course>
  <speed>6.59</speed>
  <fix>3d</fix>
</trkpt>
<trkpt lat="40.0718847" lon="-105.2294451">
  <ele>1583.19</ele>
  <time>2026-08-28T17:49:37Z</time>
  <course>101.67</course>
  <speed>6.675822046759485</speed>
  <fix>3d</fix>
</trkpt>
<trkpt lat="40.0718875" lon="-105.2294631">
  <ele>1583.0</ele>
  <time>2026-08-28T17:49:37Z</time>
  <course>101.06</course>
  <speed>6.59</speed>
  <fix>3d</fix>
</trkpt>
<trkpt lat="40.0718835" lon="-105.2294373">
  <ele>1583.18</ele>
  <time>2026-08-28T17:49:37Z</time>
  <course>101.67</course>
  <speed>6.697380084779422</speed>
  <fix>3d</fix>
</trkpt>
<trkpt lat="40.0718852" lon="-105.2294478">
  <ele>1583.0</ele>
  <time>2026-08-28T17:49:37Z</time>
  <course>101.06</course>
  <speed>6.65</speed>
  <fix>3d</fix>
</trkpt>
<trkpt lat="40.0718824" lon="-105.2294296">
  <ele>1583.18</ele>
  <time>2026-08-28T17:49:37Z</time>
  <course>101.67</course>
  <speed>6.7170008188178745</speed>
  <fix>3d</fix>
</trkpt>
<trkpt lat="40.0718852" lon="-105.2294478">
  <ele>1583.0</ele>
  <time>2026-08-28T17:49:37Z</time>
  <course>101.06</course>
  <speed>6.65</speed>
  <fix>3d</fix>
</trkpt>
<trkpt lat="40.0718812" lon="-105.2294218">
  <ele>1583.18</ele>
  <time>2026-08-28T17:49:37Z</time>
  <course>101.67</course>
  <speed>6.748370173604883</speed>
  <fix>3d</fix>
</trkpt>
<trkpt lat="40.0718829" lon="-105.2294324">
  <ele>1583.0</ele>
  <time>2026-08-28T17:49:37Z</time>
  <course>101.06</course>
  <speed>6.7</speed>
  <fix>3d</fix>
</trkpt>
<trkpt lat="40.07188" lon="-105.229414">
  <ele>1583.18</ele>
  <time>2026-08-28T17:49:37Z</time>
  <course>101.67</course>
  <speed>6.7679908392372985</speed>
  <fix>3d</fix>
</trkpt>
<trkpt lat="40.0718829" lon="-105.2294324">
  <ele>1583.0</ele>
  <time>2026-08-28T17:49:37Z</time>
  <course>101.06</course>
  <speed>6.7</speed>
  <fix>3d</fix>
</trkpt>
<trkpt lat="40.0718789" lon="-105.2294062">
  <ele>1583.17</ele>
  <time>2026-08-28T17:49:37Z</time>
  <course>101.68</course>
  <speed>6.789550795155744</speed>
  <fix>3d</fix>
</trkpt>
<trkpt lat="40.0718829" lon="-105.2294324">
  <ele>1583.0</ele>
  <time>2026-08-28T17:49:37Z</time>
  <course>101.06</course>
  <speed>6.7</speed>
  <fix>3d</fix>
</trkpt>
<trkpt lat="40.0718777" lon="-105.2293984">
  <ele>1583.17</ele>
  <time>2026-08-28T17:49:37Z</time>
  <course>101.68</course>
  <speed>6.809170287193588</speed>
  <fix>3d</fix>
</trkpt>
<trkpt lat="40.0718806" lon="-105.2294168">
  <ele>1583.0</ele>
  <time>2026-08-28T17:49:37Z</time>
  <course>101.06</course>
  <speed>6.75</speed>
  <fix>3d</fix>
</trkpt>
<trkpt lat="40.0718765" lon="-105.2293906">
  <ele>1583.17</ele>
  <time>2026-08-28T17:49:37Z</time>
  <course>101.68</course>
  <speed>6.81898086226967</speed>
  <fix>3d</fix>
</trkpt>
<trkpt lat="40.0718806" lon="-105.2294168">
  <ele>1583.0</ele>
  <time>2026-08-28T17:49:37Z</time>
  <course>101.06</course>
  <speed>6.75</speed>
  <fix>3d</fix>
</trkpt>
<trkpt lat="40.0718754" lon="-105.2293828">
  <ele>1583.17</ele>
  <time>2026-08-28T17:49:37Z</time>
  <course>101.68</course>
  <speed>6.828791986874398</speed>
  <fix>3d</fix>
</trkpt>
<trkpt lat="40.0718782" lon="-105.2294013">
  <ele>1583.0</ele>
  <time>2026-08-28T17:49:37Z</time>
  <course>101.06</course>
  <speed>6.79</speed>
  <fix>3d</fix>
</trkpt>
<trkpt lat="40.0718742" lon="-105.229375">
  <ele>1583.17</ele>
  <time>2026-08-28T17:49:37Z</time>
  <course>101.68</course>
  <speed>6.850350356003698</speed>
  <fix>3d</fix>
</trkpt>
<trkpt lat="40.0718782" lon="-105.2294013">
  <ele>1583.0</ele>
  <time>2026-08-28T17:49:37Z</time>
  <course>101.06</course>
  <speed>6.79</speed>
  <fix>3d</fix>
</trkpt>
<trkpt lat="40.071873" lon="-105.2293672">
  <ele>1583.17</ele>
  <time>2026-08-28T17:49:37Z</time>
  <course>101.68</course>
  <speed>6.860160347980213</speed>
  <fix>3d</fix>
</trkpt>
<trkpt lat="40.0718759" lon="-105.2293856">
  <ele>1583.0</ele>
  <time>2026-08-28T17:49:37Z</time>
  <course>101.06</course>
  <speed>6.83</speed>
  <fix>3d</fix>
</trkpt>
<trkpt lat="40.0718719" lon="-105.2293594">
  <ele>1583.16</ele>
  <time>2026-08-28T17:49:37Z</time>
  <course>101.68</course>
  <speed>6.8699708878568035</speed>
  <fix>3d</fix>
</trkpt>
<trkpt lat="40.0718759" lon="-105.2293856">
  <ele>1583.0</ele>
  <time>2026-08-28T17:49:37Z</time>
  <course>101.06</course>
  <speed>6.83</speed>
  <fix>3d</fix>
</trkpt>
<trkpt lat="40.0718707" lon="-105.2293515">
  <ele>1583.16</ele>
  <time>2026-08-28T17:49:37Z</time>
  <course>101.68</course>
  <speed>6.87978197328956</speed>
  <fix>3d</fix>
</trkpt>
<trkpt lat="40.0718735" lon="-105.2293698">
  <ele>1583.0</ele>
  <time>2026-08-28T17:49:37Z</time>
  <course>101.06</course>
  <speed>6.86</speed>
  <fix>3d</fix>
</trkpt>
<trkpt lat="40.0718695" lon="-105.2293436">
  <ele>1583.16</ele>
  <time>2026-08-28T17:49:37Z</time>
  <course>101.68</course>
  <speed>6.889593601947796</speed>
  <fix>3d</fix>
</trkpt>
<trkpt lat="40.0718711" lon="-105.2293539">
  <ele>1583.0</ele>
  <time>2026-08-28T17:49:37Z</time>
  <course>101.06</course>
  <speed>6.9</speed>
  <fix>3d</fix>
</trkpt>
<trkpt lat="40.0718683" lon="-105.2293357">
  <ele>1583.16</ele>
  <time>2026-08-28T17:49:37Z</time>
  <course>101.69</course>
  <speed>6.901340449506892</speed>
  <fix>3d</fix>
</trkpt>
<trkpt lat="40.0718711" lon="-105.2293539">
  <ele>1583.0</ele>
  <time>2026-08-28T17:49:37Z</time>
  <course>101.06</course>
  <speed>6.9</speed>
  <fix>3d</fix>
</trkpt>
<trkpt lat="40.0718671" lon="-105.2293278">
  <ele>1583.16</ele>
  <time>2026-08-28T17:49:37Z</time>
  <course>101.69</course>
  <speed>6.911150410749284</speed>
  <fix>3d</fix>
</trkpt>
<trkpt lat="40.0718688" lon="-105.229338">
  <ele>1583.0</ele>
  <time>2026-08-28T17:49:37Z</time>
  <course>101.06</course>
  <speed>6.92</speed>
  <fix>3d</fix>
</trkpt>
<trkpt lat="40.0718659" lon="-105.2293198">
  <ele>1583.16</ele>
  <time>2026-08-28T17:49:37Z</time>
  <course>101.69</course>
  <speed>6.9307719627758635</speed>
  <fix>3d</fix>
</trkpt>
<trkpt lat="40.0718688" lon="-105.229338">
  <ele>1583.0</ele>
  <time>2026-08-28T17:49:37Z</time>
  <course>101.06</course>
  <speed>6.92</speed>
  <fix>3d</fix>
</trkpt>
<trkpt lat="40.0718647" lon="-105.2293117">
  <ele>1583.15</ele>
  <time>2026-08-28T17:49:37Z</time>
  <course>101.69</course>
  <speed>6.940583548953215</speed>
  <fix>3d</fix>
</trkpt>
<trkpt lat="40.0718664" lon="-105.229322">
  <ele>1583.0</ele>
  <time>2026-08-28T17:49:37Z</time>
  <course>101.06</course>
  <speed>6.95</speed>
  <fix>3d</fix>
</trkpt>
<trkpt lat="40.0718635" lon="-105.2293037">
  <ele>1583.15</ele>
  <time>2026-08-28T17:49:37Z</time>
  <course>101.7</course>
  <speed>6.952330544500887</speed>
  <fix>3d</fix>
</trkpt>
<trkpt lat="40.0718664" lon="-105.229322">
  <ele>1583.0</ele>
  <time>2026-08-28T17:49:37Z</time>
  <course>101.06</course>
  <speed>6.95</speed>
  <fix>3d</fix>
</trkpt>
<trkpt lat="40.0718623" lon="-105.2292955">
  <ele>1583.15</ele>
  <time>2026-08-28T17:49:37Z</time>
  <course>101.7</course>
  <speed>6.962140475457243</speed>
  <fix>3d</fix>
</trkpt>
<trkpt lat="40.071864" lon="-105.229306">
  <ele>1583.0</ele>
  <time>2026-08-28T17:49:37Z</time>
  <course>101.06</course>
  <speed>6.97</speed>
  <fix>3d</fix>
</trkpt>
<trkpt lat="40.0718611" lon="-105.2292874">
  <ele>1583.15</ele>
  <time>2026-08-28T17:49:37Z</time>
  <course>101.71</course>
  <speed>6.971950946471153</speed>
  <fix>3d</fix>
</trkpt>
<trkpt lat="40.071864" lon="-105.229306">
  <ele>1583.0</ele>
  <time>2026-08-28T17:49:37Z</time>
  <course>101.06</course>
  <speed>6.97</speed>
  <fix>3d</fix>
</trkpt>
<trkpt lat="40.0718599" lon="-105.2292793">
  <ele>1583.15</ele>
  <time>2026-08-28T17:49:37Z</time>
  <course>101.71</course>
  <speed>6.98176195526602</speed>
  <fix>3d</fix>
</trkpt>
<trkpt lat="40.0718616" lon="-105.2292899">
  <ele>1583.0</ele>
  <time>2026-08-28T17:49:37Z</time>
  <course>101.06</course>
  <speed>6.99</speed>
  <fix>3d</fix>
</trkpt>
<trkpt lat="40.0718587" lon="-105.2292712">
  <ele>1583.15</ele>
  <time>2026-08-28T17:49:37Z</time>
  <course>101.71</course>
  <speed>6.991573499577903</speed>
  <fix>3d</fix>
</trkpt>
<trkpt lat="40.0718616" lon="-105.2292899">
  <ele>1583.0</ele>
  <time>2026-08-28T17:49:37Z</time>
  <course>101.06</course>
  <speed>6.99</speed>
  <fix>3d</fix>
</trkpt>
<trkpt lat="40.0718575" lon="-105.2292631">
  <ele>1583.15</ele>
  <time>2026-08-28T17:49:37Z</time>
  <course>101.72</course>
  <speed>7.001385577155425</speed>
  <fix>3d</fix>
</trkpt>
<trkpt lat="40.0718592" lon="-105.2292737">
  <ele>1583.0</ele>
  <time>2026-08-28T17:49:37Z</time>
  <course>101.06</course>
  <speed>7.01</speed>
  <fix>3d</fix>
</trkpt>
<trkpt lat="40.0718563" lon="-105.229255">
  <ele>1583.15</ele>
  <time>2026-08-28T17:49:37Z</time>
  <course>101.72</course>
  <speed>7.013130542061797</speed>
  <fix>3d</fix>
</trkpt>
<trkpt lat="40.0718592" lon="-105.2292737">
  <ele>1583.0</ele>
  <time>2026-08-28T17:49:37Z</time>
  <course>101.06</course>
  <speed>7.01</speed>
  <fix>3d</fix>
</trkpt>
<trkpt lat="40.071855" lon="-105.2292468">
  <ele>1583.15</ele>
  <time>2026-08-28T17:49:37Z</time>
  <course>101.72</course>
  <speed>7.022940979390329</speed>
  <fix>3d</fix>
</trkpt>
<trkpt lat="40.0718568" lon="-105.2292576">
  <ele>1583.0</ele>
  <time>2026-08-28T17:49:37Z</time>
  <course>101.06</course>
  <speed>7.03</speed>
  <fix>3d</fix>
</trkpt>
<trkpt lat="40.0718538" lon="-105.2292387">
  <ele>1583.15</ele>
  <time>2026-08-28T17:49:37Z</time>
  <course>101.73</course>
  <speed>7.022940979390329</speed>
  <fix>3d</fix>
</trkpt>
<trkpt lat="40.0718568" lon="-105.2292576">
  <ele>1583.0</ele>
  <time>2026-08-28T17:49:37Z</time>
  <course>101.06</course>
  <speed>7.03</speed>
  <fix>3d</fix>
</trkpt>
<trkpt lat="40.0718526" lon="-105.2292305">
  <ele>1583.16</ele>
  <time>2026-08-28T17:49:37Z</time>
  <course>101.73</course>
  <speed>7.032751950694692</speed>
  <fix>3d</fix>
</trkpt>
<trkpt lat="40.0718568" lon="-105.2292576">
  <ele>1583.0</ele>
  <time>2026-08-28T17:49:37Z</time>
  <course>101.06</course>
  <speed>7.03</speed>
  <fix>3d</fix>
</trkpt>
<trkpt lat="40.0718514" lon="-105.2292224">
  <ele>1583.16</ele>
  <time>2026-08-28T17:49:37Z</time>
  <course>101.73</course>
  <speed>7.032751950694692</speed>
  <fix>3d</fix>
</trkpt>
<trkpt lat="40.0718543" lon="-105.2292413">
  <ele>1583.0</ele>
  <time>2026-08-28T17:49:37Z</time>
  <course>101.06</course>
  <speed>7.05</speed>
  <fix>3d</fix>
</trkpt>
<trkpt lat="40.0718502" lon="-105.2292143">
  <ele>1583.16</ele>
  <time>2026-08-28T17:49:37Z</time>
  <course>101.73</course>
  <speed>7.042563453743246</speed>
  <fix>3d</fix>
</trkpt>
<trkpt lat="40.0718543" lon="-105.2292413">
  <ele>1583.0</ele>
  <time>2026-08-28T17:49:37Z</time>
  <course>101.06</course>
  <speed>7.05</speed>
  <fix>3d</fix>
</trkpt>
<trkpt lat="40.071849" lon="-105.2292063">
  <ele>1583.17</ele>
  <time>2026-08-28T17:49:37Z</time>
  <course>101.74</course>
  <speed>7.042563453743246</speed>
  <fix>3d</fix>
</trkpt>
<trkpt lat="40.0718519" lon="-105.229225">
  <ele>1583.0</ele>
  <time>2026-08-28T17:49:37Z</time>
  <course>101.06</course>
  <speed>7.06</speed>
  <fix>3d</fix>
</trkpt>
<trkpt lat="40.0718478" lon="-105.2291982">
  <ele>1583.17</ele>
  <time>2026-08-28T17:49:37Z</time>
  <course>101.74</course>
  <speed>7.042563453743246</speed>
  <fix>3d</fix>
</trkpt>
<trkpt lat="40.0718519" lon="-105.229225">
  <ele>1583.0</ele>
  <time>2026-08-28T17:49:37Z</time>
  <course>101.06</course>
  <speed>7.06</speed>
  <fix>3d</fix>
</trkpt>
<trkpt lat="40.0718466" lon="-105.2291901">
  <ele>1583.17</ele>
  <time>2026-08-28T17:49:37Z</time>
  <course>101.74</course>
  <speed>7.042563453743246</speed>
  <fix>3d</fix>
</trkpt>
<trkpt lat="40.0718495" lon="-105.2292087">
  <ele>1583.0</ele>
  <time>2026-08-28T17:49:37Z</time>
  <course>101.06</course>
  <speed>7.07</speed>
  <fix>3d</fix>
</trkpt>
<trkpt lat="40.0718454" lon="-105.229182">
  <ele>1583.18</ele>
  <time>2026-08-28T17:49:37Z</time>
  <course>101.74</course>
  <speed>7.05237548631665</speed>
  <fix>3d</fix>
</trkpt>
<trkpt lat="40.071847" lon="-105.2291923">
  <ele>1583.0</ele>
  <time>2026-08-28T17:49:37Z</time>
  <course>101.06</course>
  <speed>7.09</speed>
  <fix>3d</fix>
</trkpt>
<trkpt lat="40.0718441" lon="-105.2291738">
  <ele>1583.18</ele>
  <time>2026-08-28T17:49:37Z</time>
  <course>101.75</course>
  <speed>7.05237548631665</speed>
  <fix>3d</fix>
</trkpt>
<trkpt lat="40.071847" lon="-105.2291923">
  <ele>1583.0</ele>
  <time>2026-08-28T17:49:37Z</time>
  <course>101.06</course>
  <speed>7.09</speed>
  <fix>3d</fix>
</trkpt>
<trkpt lat="40.0718429" lon="-105.2291657">
  <ele>1583.18</ele>
  <time>2026-08-28T17:49:37Z</time>
  <course>101.75</course>
  <speed>7.054310738831966</speed>
  <fix>3d</fix>
</trkpt>
<trkpt lat="40.0718446" lon="-105.229176">
  <ele>1583.0</ele>
  <time>2026-08-28T17:49:37Z</time>
  <course>101.06</course>
  <speed>7.1</speed>
  <fix>3d</fix>
</trkpt>
<trkpt lat="40.0718417" lon="-105.2291575">
  <ele>1583.18</ele>
  <time>2026-08-28T17:49:37Z</time>
  <course>101.76</course>
  <speed>7.042563453743246</speed>
  <fix>3d</fix>
</trkpt>
<trkpt lat="40.0718446" lon="-105.229176">
  <ele>1583.0</ele>
  <time>2026-08-28T17:49:37Z</time>
  <course>101.06</course>
  <speed>7.1</speed>
  <fix>3d</fix>
</trkpt>
<trkpt lat="40.0718405" lon="-105.2291494">
  <ele>1583.18</ele>
  <time>2026-08-28T17:49:37Z</time>
  <course>101.76</course>
  <speed>6.9307719627758635</speed>
  <fix>3d</fix>
</trkpt>
<trkpt lat="40.0718421" lon="-105.2291597">
  <ele>1583.0</ele>
  <time>2026-08-28T17:49:37Z</time>
  <course>101.06</course>
  <speed>7.03</speed>
  <fix>3d</fix>
</trkpt>
<trkpt lat="40.0718393" lon="-105.2291415">
  <ele>1583.18</ele>
  <time>2026-08-28T17:49:37Z</time>
  <course>101.76</course>
  <speed>6.726812023536855</speed>
  <fix>3d</fix>
</trkpt>
<trkpt lat="40.0718421" lon="-105.2291597">
  <ele>1583.0</ele>
  <time>2026-08-28T17:49:37Z</time>
  <course>101.06</course>
  <speed>7.03</speed>
  <fix>3d</fix>
</trkpt>
<trkpt lat="40.0718382" lon="-105.2291338">
  <ele>1583.18</ele>
  <time>2026-08-28T17:49:37Z</time>
  <course>101.77</course>
  <speed>6.430684255971521</speed>
  <fix>3d</fix>
</trkpt>
<trkpt lat="40.0718397" lon="-105.2291438">
  <ele>1583.0</ele>
  <time>2026-08-28T17:49:37Z</time>
  <course>101.06</course>
  <speed>6.72</speed>
  <fix>3d</fix>
</trkpt>
<trkpt lat="40.0718371" lon="-105.2291265">
  <ele>1583.17</ele>
  <time>2026-08-28T17:49:37Z</time>
  <course>101.77</course>
  <speed>6.113010714860559</speed>
  <fix>3d</fix>
</trkpt>
<trkpt lat="40.0718397" lon="-105.2291438">
  <ele>1583.0</ele>
  <time>2026-08-28T17:49:37Z</time>
  <course>101.06</course>
  <speed>6.72</speed>
  <fix>3d</fix>
</trkpt>
<trkpt lat="40.0718361" lon="-105.2291196">
  <ele>1583.17</ele>
  <time>2026-08-28T17:49:37Z</time>
  <course>101.77</course>
  <speed>5.807073273172985</speed>
  <fix>3d</fix>
</trkpt>
<trkpt lat="40.0718375" lon="-105.2291289">
  <ele>1583.0</ele>
  <time>2026-08-28T17:49:37Z</time>
  <course>101.06</course>
  <speed>6.17</speed>
  <fix>3d</fix>
</trkpt>
<trkpt lat="40.0718351" lon="-105.229113">
  <ele>1583.17</ele>
  <time>2026-08-28T17:49:37Z</time>
  <course>101.77</course>
  <speed>5.520769873849117</speed>
  <fix>3d</fix>
</trkpt>
<trkpt lat="40.0718375" lon="-105.2291289">
  <ele>1583.0</ele>
  <time>2026-08-28T17:49:37Z</time>
  <course>101.06</course>
  <speed>6.17</speed>
  <fix>3d</fix>
</trkpt>
<trkpt lat="40.0718342" lon="-105.2291068">
  <ele>1583.17</ele>
  <time>2026-08-28T17:49:37Z</time>
  <course>101.78</course>
  <speed>5.246189093046495</speed>
  <fix>3d</fix>
</trkpt>
<trkpt lat="40.0718355" lon="-105.2291154">
  <ele>1583.0</ele>
  <time>2026-08-28T17:49:37Z</time>
  <course>101.06</course>
  <speed>5.58</speed>
  <fix>3d</fix>
</trkpt>
<trkpt lat="40.0718333" lon="-105.2291009">
  <ele>1583.17</ele>
  <time>2026-08-28T17:49:37Z</time>
  <course>101.78</course>
  <speed>4.9814254987904825</speed>
  <fix>3d</fix>
</trkpt>
<trkpt lat="40.0718355" lon="-105.2291154">
  <ele>1583.0</ele>
  <time>2026-08-28T17:49:37Z</time>
  <course>101.06</course>
  <speed>5.58</speed>
  <fix>3d</fix>
</trkpt>
<trkpt lat="40.0718325" lon="-105.2290953">
  <ele>1583.17</ele>
  <time>2026-08-28T17:49:37Z</time>
  <course>101.78</course>
  <speed>4.736296021154083</speed>
  <fix>3d</fix>
</trkpt>
<trkpt lat="40.0718337" lon="-105.2291032">
  <ele>1583.0</ele>
  <time>2026-08-28T17:49:37Z</time>
  <course>101.06</course>
  <speed>5.05</speed>
  <fix>3d</fix>
</trkpt>
<trkpt lat="40.0718317" lon="-105.22909">
  <ele>1583.17</ele>
  <time>2026-08-28T17:49:37Z</time>
  <course>101.78</course>
  <speed>4.491169112825746</speed>
  <fix>3d</fix>
</trkpt>
<trkpt lat="40.0718337" lon="-105.2291032">
  <ele>1583.0</ele>
  <time>2026-08-28T17:49:37Z</time>
  <course>101.06</course>
  <speed>5.05</speed>
  <fix>3d</fix>
</trkpt>
<trkpt lat="40.071831" lon="-105.229085">
  <ele>1583.17</ele>
  <time>2026-08-28T17:49:37Z</time>
  <course>101.78</course>
  <speed>4.2656886900007125</speed>
  <fix>3d</fix>
</trkpt>
<trkpt lat="40.0718337" lon="-105.2291032">
  <ele>1583.0</ele>
  <time>2026-08-28T17:49:37Z</time>
  <course>101.06</course>
  <speed>5.05</speed>
  <fix>3d</fix>
</trkpt>
<trkpt lat="40.0718303" lon="-105.2290802">
  <ele>1583.18</ele>
  <time>2026-08-28T17:49:37Z</time>
  <course>101.78</course>
  <speed>4.051913128387626</speed>
  <fix>3d</fix>
</trkpt>
<trkpt lat="40.071832" lon="-105.2290921">
  <ele>1583.0</ele>
  <time>2026-08-28T17:49:37Z</time>
  <course>101.06</course>
  <speed>4.57</speed>
  <fix>3d</fix>
</trkpt>
<trkpt lat="40.0718296" lon="-105.2290757">
  <ele>1583.18</ele>
  <time>2026-08-28T17:49:37Z</time>
  <course>101.78</course>
  <speed>3.847960498757751</speed>
  <fix>3d</fix>
</trkpt>
<trkpt lat="40.071832" lon="-105.2290921">
  <ele>1583.0</ele>
  <time>2026-08-28T17:49:37Z</time>
  <course>101.06</course>
  <speed>4.57</speed>
  <fix>3d</fix>
</trkpt>
<trkpt lat="40.071829" lon="-105.2290714">
  <ele>1583.17</ele>
  <time>2026-08-28T17:49:37Z</time>
  <course>101.78</course>
  <speed>3.6440087815481457</speed>
  <fix>3d</fix>
</trkpt>
<trkpt lat="40.0718305" lon="-105.229082">
  <ele>1583.0</ele>
  <time>2026-08-28T17:49:37Z</time>
  <course>101.06</course>
  <speed>4.13</speed>
  <fix>3d</fix>
</trkpt>
<trkpt lat="40.0718284" lon="-105.2290674">
  <ele>1583.17</ele>
  <time>2026-08-28T17:49:37Z</time>
  <course>101.78</course>
  <speed>3.459710970586994</speed>
  <fix>3d</fix>
</trkpt>
<trkpt lat="40.0718305" lon="-105.229082">
  <ele>1583.0</ele>
  <time>2026-08-28T17:49:37Z</time>
  <course>101.06</course>
  <speed>4.13</speed>
  <fix>3d</fix>
</trkpt>
<trkpt lat="40.0718278" lon="-105.2290635">
  <ele>1583.17</ele>
  <time>2026-08-28T17:49:37Z</time>
  <course>101.78</course>
  <speed>3.2870959827787205</speed>
  <fix>3d</fix>
</trkpt>
<trkpt lat="40.0718291" lon="-105.229073">
  <ele>1583.0</ele>
  <time>2026-08-28T17:49:37Z</time>
  <course>101.06</course>
  <speed>3.74</speed>
  <fix>3d</fix>
</trkpt>
<trkpt lat="40.0718273" lon="-105.2290599">
  <ele>1583.18</ele>
  <time>2026-08-28T17:49:37Z</time>
  <course>101.78</course>
  <speed>3.1144823004794877</speed>
  <fix>3d</fix>
</trkpt>
<trkpt lat="40.0718279" lon="-105.2290648">
  <ele>1583.0</ele>
  <time>2026-08-28T17:49:37Z</time>
  <course>101.06</course>
  <speed>3.38</speed>
  <fix>3d</fix>
</trkpt>
<trkpt lat="40.0718268" lon="-105.2290564">
  <ele>1583.18</ele>
  <time>2026-08-28T17:49:37Z</time>
  <course>101.78</course>
  <speed>2.9516944286290885</speed>
  <fix>3d</fix>
</trkpt>
<trkpt lat="40.0718279" lon="-105.2290648">
  <ele>1583.0</ele>
  <time>2026-08-28T17:49:37Z</time>
  <course>101.06</course>
  <speed>3.38</speed>
  <fix>3d</fix>
</trkpt>
<trkpt lat="40.0718263" lon="-105.229053">
  <ele>1583.18</ele>
  <time>2026-08-28T17:49:37Z</time>
  <course>101.78</course>
  <speed>2.798731855680354</speed>
  <fix>3d</fix>
</trkpt>
<trkpt lat="40.0718268" lon="-105.2290573">
  <ele>1583.0</ele>
  <time>2026-08-28T17:49:37Z</time>
  <course>101.06</course>
  <speed>3.06</speed>
  <fix>3d</fix>
</trkpt>
<trkpt lat="40.0718258" lon="-105.2290498">
  <ele>1583.18</ele>
  <time>2026-08-28T17:49:37Z</time>
  <course>101.78</course>
  <speed>2.6555978611228017</speed>
  <fix>3d</fix>
</trkpt>
<trkpt lat="40.0718268" lon="-105.2290573">
  <ele>1583.0</ele>
  <time>2026-08-28T17:49:37Z</time>
  <course>101.06</course>
  <speed>3.06</speed>
  <fix>3d</fix>
</trkpt>
<trkpt lat="40.0718253" lon="-105.2290469">
  <ele>1583.18</ele>
  <time>2026-08-28T17:49:37Z</time>
  <course>101.78</course>
  <speed>2.5241434190631877</speed>
  <fix>3d</fix>
</trkpt>
<trkpt lat="40.0718258" lon="-105.2290506">
  <ele>1583.0</ele>
  <time>2026-08-28T17:49:37Z</time>
  <course>101.06</course>
  <speed>2.77</speed>
  <fix>3d</fix>
</trkpt>
<trkpt lat="40.0718249" lon="-105.229044">
  <ele>1583.18</ele>
  <time>2026-08-28T17:49:37Z</time>
  <course>101.78</course>
  <speed>2.3908366736354036</speed>
  <fix>3d</fix>
</trkpt>
<trkpt lat="40.0718258" lon="-105.2290506">
  <ele>1583.0</ele>
  <time>2026-08-28T17:49:37Z</time>
  <course>101.06</course>
  <speed>2.77</speed>
  <fix>3d</fix>
</trkpt>
<trkpt lat="40.0718245" lon="-105.2290412">
  <ele>1583.19</ele>
  <time>2026-08-28T17:49:37Z</time>
  <course>101.78</course>
  <speed>2.269206909913682</speed>
  <fix>3d</fix>
</trkpt>
<trkpt lat="40.0718248" lon="-105.2290446">
  <ele>1583.0</ele>
  <time>2026-08-28T17:49:37Z</time>
  <course>101.06</course>
  <speed>2.5</speed>
  <fix>3d</fix>
</trkpt>
<trkpt lat="40.0718241" lon="-105.2290386">
  <ele>1583.19</ele>
  <time>2026-08-28T17:49:37Z</time>
  <course>101.78</course>
  <speed>2.157405849625888</speed>
  <fix>3d</fix>
</trkpt>
<trkpt lat="40.0718248" lon="-105.2290446">
  <ele>1583.0</ele>
  <time>2026-08-28T17:49:37Z</time>
  <course>101.06</course>
  <speed>2.5</speed>
  <fix>3d</fix>
</trkpt>
<trkpt lat="40.0718237" lon="-105.2290361">
  <ele>1583.19</ele>
  <time>2026-08-28T17:49:37Z</time>
  <course>101.77</course>
  <speed>2.0456050449683585</speed>
  <fix>3d</fix>
</trkpt>
<trkpt lat="40.0718241" lon="-105.2290391">
  <ele>1583.0</ele>
  <time>2026-08-28T17:49:37Z</time>
  <course>101.06</course>
  <speed>2.26</speed>
  <fix>3d</fix>
</trkpt>
<trkpt lat="40.0718234" lon="-105.2290338">
  <ele>1583.19</ele>
  <time>2026-08-28T17:49:37Z</time>
  <course>101.77</course>
  <speed>1.93380454027805</speed>
  <fix>3d</fix>
</trkpt>
<trkpt lat="40.0718241" lon="-105.2290391">
  <ele>1583.0</ele>
  <time>2026-08-28T17:49:37Z</time>
  <course>101.06</course>
  <speed>2.26</speed>
  <fix>3d</fix>
</trkpt>
<trkpt lat="40.071823" lon="-105.2290315">
  <ele>1583.19</ele>
  <time>2026-08-28T17:49:37Z</time>
  <course>101.77</course>
  <speed>1.831829686406463</speed>
  <fix>3d</fix>
</trkpt>
<trkpt lat="40.0718233" lon="-105.2290341">
  <ele>1583.0</ele>
  <time>2026-08-28T17:49:37Z</time>
  <course>101.06</course>
  <speed>2.05</speed>
  <fix>3d</fix>
</trkpt>
<trkpt lat="40.0718227" lon="-105.2290294">
  <ele>1583.18</ele>
  <time>2026-08-28T17:49:37Z</time>
  <course>101.78</course>
  <speed>1.741551032843999</speed>
  <fix>3d</fix>
</trkpt>
<trkpt lat="40.0718233" lon="-105.2290341">
  <ele>1583.0</ele>
  <time>2026-08-28T17:49:37Z</time>
  <course>101.06</course>
  <speed>2.05</speed>
  <fix>3d</fix>
</trkpt>
<trkpt lat="40.0718224" lon="-105.2290274">
  <ele>1583.18</ele>
  <time>2026-08-28T17:49:37Z</time>
  <course>101.78</course>
  <speed>1.6493938280471405</speed>
  <fix>3d</fix>
</trkpt>
<trkpt lat="40.0718227" lon="-105.2290296">
  <ele>1583.0</ele>
  <time>2026-08-28T17:49:37Z</time>
  <course>101.06</course>
  <speed>1.85</speed>
  <fix>3d</fix>
</trkpt>
<trkpt lat="40.0718221" lon="-105.2290255">
  <ele>1583.18</ele>
  <time>2026-08-28T17:49:37Z</time>
  <course>101.78</course>
  <speed>1.568948692596415</speed>
  <fix>3d</fix>
</trkpt>
<trkpt lat="40.0718227" lon="-105.2290296">
  <ele>1583.0</ele>
  <time>2026-08-28T17:49:37Z</time>
  <course>101.06</course>
  <speed>1.85</speed>
  <fix>3d</fix>
</trkpt>
<trkpt lat="40.0718218" lon="-105.2290236">
  <ele>1583.18</ele>
  <time>2026-08-28T17:49:37Z</time>
  <course>101.78</course>
  <speed>1.4866068747318506</speed>
  <fix>3d</fix>
</trkpt>
<trkpt lat="40.0718227" lon="-105.2290296">
  <ele>1583.0</ele>
  <time>2026-08-28T17:49:37Z</time>
  <course>101.06</course>
  <speed>1.85</speed>
  <fix>3d</fix>
</trkpt>
<trkpt lat="40.0718216" lon="-105.2290219">
  <ele>1583.18</ele>
  <time>2026-08-28T17:49:37Z</time>
  <course>101.78</course>
  <speed>1.4061649974309558</speed>
  <fix>3d</fix>
</trkpt>
<trkpt lat="40.071822" lon="-105.2290255">
  <ele>1583.0</ele>
  <time>2026-08-28T17:49:37Z</time>
  <course>101.06</course>
  <speed>1.68</speed>
  <fix>3d</fix>
</trkpt>
<trkpt lat="40.0718213" lon="-105.2290203">
  <ele>1583.18</ele>
  <time>2026-08-28T17:49:37Z</time>
  <course>101.78</course>
  <speed>1.3355523202031434</speed>
  <fix>3d</fix>
</trkpt>
<trkpt lat="40.071822" lon="-105.2290255">
  <ele>1583.0</ele>
  <time>2026-08-28T17:49:37Z</time>
  <course>101.06</course>
  <speed>1.68</speed>
  <fix>3d</fix>
</trkpt>
<trkpt lat="40.0718211" lon="-105.2290187">
  <ele>1583.18</ele>
  <time>2026-08-28T17:49:37Z</time>
  <course>101.78</course>
  <speed>1.2630122723077555</speed>
  <fix>3d</fix>
</trkpt>
<trkpt lat="40.0718215" lon="-105.2290218">
  <ele>1583.0</ele>
  <time>2026-08-28T17:49:37Z</time>
  <course>101.06</course>
  <speed>1.52</speed>
  <fix>3d</fix>
</trkpt>
<trkpt lat="40.0718208" lon="-105.2290172">
  <ele>1583.18</ele>
  <time>2026-08-28T17:49:37Z</time>
  <course>101.79</course>
  <speed>1.1923925528113635</speed>
  <fix>3d</fix>
</trkpt>
<trkpt lat="40.0718215" lon="-105.2290218">
  <ele>1583.0</ele>
  <time>2026-08-28T17:49:37Z</time>
  <course>101.06</course>
  <speed>1.52</speed>
  <fix>3d</fix>
</trkpt>
<trkpt lat="40.0718206" lon="-105.2290158">
  <ele>1583.18</ele>
  <time>2026-08-28T17:49:37Z</time>
  <course>101.79</course>
  <speed>1.131591799192624</speed>
  <fix>3d</fix>
</trkpt>
<trkpt lat="40.071821" lon="-105.2290185">
  <ele>1583.0</ele>
  <time>2026-08-28T17:49:37Z</time>
  <course>101.06</course>
  <speed>1.37</speed>
  <fix>3d</fix>
</trkpt>
<trkpt lat="40.0718204" lon="-105.2290144">
  <ele>1583.19</ele>
  <time>2026-08-28T17:49:37Z</time>
  <course>101.79</course>
  <speed>1.0707940978544848</speed>
  <fix>3d</fix>
</trkpt>
<trkpt lat="40.071821" lon="-105.2290185">
  <ele>1583.0</ele>
  <time>2026-08-28T17:49:37Z</time>
  <course>101.06</course>
  <speed>1.37</speed>
  <fix>3d</fix>
</trkpt>
<trkpt lat="40.0718202" lon="-105.2290131">
  <ele>1583.19</ele>
  <time>2026-08-28T17:49:37Z</time>
  <course>101.79</course>
  <speed>1.019803902718557</speed>
  <fix>3d</fix>
</trkpt>
<trkpt lat="40.0718205" lon="-105.2290155">
  <ele>1583.0</ele>
  <time>2026-08-28T17:49:37Z</time>
  <course>101.06</course>
  <speed>1.24</speed>
  <fix>3d</fix>
</trkpt>
<trkpt lat="40.07182" lon="-105.2290119">
  <ele>1583.19</ele>
  <time>2026-08-28T17:49:37Z</time>
  <course>101.79</course>
  <speed>0.97082439194738</speed>
  <fix>3d</fix>
</trkpt>
<trkpt lat="40.0718201" lon="-105.2290127">
  <ele>1583.0</ele>
  <time>2026-08-28T17:49:37Z</time>
  <course>101.06</course>
  <speed>1.12</speed>
  <fix>3d</fix>
</trkpt>
<trkpt lat="40.0718198" lon="-105.2290107">
  <ele>1583.19</ele>
  <time>2026-08-28T17:49:37Z</time>
  <course>101.8</course>
  <speed>0.9198369420718001</speed>
  <fix>3d</fix>
</trkpt>
<trkpt lat="40.0718201" lon="-105.2290127">
  <ele>1583.0</ele>
  <time>2026-08-28T17:49:37Z</time>
  <course>101.06</course>
  <speed>1.12</speed>
  <fix>3d</fix>
</trkpt>
<trkpt lat="40.0718196" lon="-105.2290096">
  <ele>1583.19</ele>
  <time>2026-08-28T17:49:37Z</time>
  <course>101.8</course>
  <speed>0.8688498144098322</speed>
  <fix>3d</fix>
</trkpt>
<trkpt lat="40.0718198" lon="-105.2290103">
  <ele>1583.0</ele>
  <time>2026-08-28T17:49:37Z</time>
  <course>101.06</course>
  <speed>1.01</speed>
  <fix>3d</fix>
</trkpt>
<trkpt lat="40.0718195" lon="-105.2290086">
  <ele>1583.19</ele>
  <time>2026-08-28T17:49:37Z</time>
  <course>101.8</course>
  <speed>0.8276472678623424</speed>
  <fix>3d</fix>
</trkpt>
<trkpt lat="40.0718198" lon="-105.2290103">
  <ele>1583.0</ele>
  <time>2026-08-28T17:49:37Z</time>
  <course>101.06</course>
  <speed>1.01</speed>
  <fix>3d</fix>
</trkpt>
<trkpt lat="40.0718193" lon="-105.2290076">
  <ele>1583.19</ele>
  <time>2026-08-28T17:49:37Z</time>
  <course>102.21</course>
  <speed>0.7787810988975015</speed>
  <fix>3d</fix>
</trkpt>
<trkpt lat="40.0718194" lon="-105.229008">
  <ele>1583.0</ele>
  <time>2026-08-28T17:49:37Z</time>
  <course>101.27</course>
  <speed>0.92</speed>
  <fix>3d</fix>
</trkpt>
<trkpt lat="40.0718191" lon="-105.2290066">
  <ele>1583.19</ele>
  <time>2026-08-28T17:49:37Z</time>
  <course>104.29</course>
  <speed>0.7472616676907762</speed>
  <fix>3d</fix>
</trkpt>
<trkpt lat="40.0718194" lon="-105.229008">
  <ele>1583.0</ele>
  <time>2026-08-28T17:49:37Z</time>
  <course>101.27</course>
  <speed>0.92</speed>
  <fix>3d</fix>
</trkpt>
<trkpt lat="40.0718189" lon="-105.2290057">
  <ele>1583.19</ele>
  <time>2026-08-28T17:49:37Z</time>
  <course>106.26</course>
  <speed>0.7147027354082255</speed>
  <fix>3d</fix>
</trkpt>
<trkpt lat="40.0718191" lon="-105.229006">
  <ele>1583.0</ele>
  <time>2026-08-28T17:49:37Z</time>
  <course>103.42</course>
  <speed>0.84</speed>
  <fix>3d</fix>
</trkpt>
<trkpt lat="40.0718187" lon="-105.2290048">
  <ele>1583.19</ele>
  <time>2026-08-28T17:49:37Z</time>
  <course>108.23</course>
  <speed>0.7244998274671982</speed>
  <fix>3d</fix>
</trkpt>
<trkpt lat="40.0718191" lon="-105.229006">
  <ele>1583.0</ele>
  <time>2026-08-28T17:49:37Z</time>
  <course>103.42</course>
  <speed>0.84</speed>
  <fix>3d</fix>
</trkpt>
<trkpt lat="40.0718185" lon="-105.2290039">
  <ele>1583.19</ele>
  <time>2026-08-28T17:49:37Z</time>
  <course>110.18</course>
  <speed>0.7261542535852834</speed>
  <fix>3d</fix>
</trkpt>
<trkpt lat="40.0718186" lon="-105.2290041">
  <ele>1583.0</ele>
  <time>2026-08-28T17:49:37Z</time>
  <course>107.48</course>
  <speed>0.8</speed>
  <fix>3d</fix>
</trkpt>
<trkpt lat="40.0718182" lon="-105.229003">
  <ele>1583.19</ele>
  <time>2026-08-28T17:49:37Z</time>
  <course>112.13</course>
  <speed>0.7249827584156744</speed>
  <fix>3d</fix>
</trkpt>
<trkpt lat="40.0718186" lon="-105.2290041">
  <ele>1583.0</ele>
  <time>2026-08-28T17:49:37Z</time>
  <course>107.48</course>
  <speed>0.8</speed>
  <fix>3d</fix>
</trkpt>
<trkpt lat="40.0718179" lon="-105.2290021">
  <ele>1583.18</ele>
  <time>2026-08-28T17:49:37Z</time>
  <course>114.08</course>
  <speed>0.7289718787443039</speed>
  <fix>3d</fix>
</trkpt>
<trkpt lat="40.0718182" lon="-105.2290024">
  <ele>1583.0</ele>
  <time>2026-08-28T17:49:37Z</time>
  <course>111.37</course>
  <speed>0.8</speed>
  <fix>3d</fix>
</trkpt>
<trkpt lat="40.0718176" lon="-105.2290012">
  <ele>1583.18</ele>
  <time>2026-08-28T17:49:37Z</time>
  <course>116.02</course>
  <speed>0.7343023900274328</speed>
  <fix>3d</fix>
</trkpt>
<trkpt lat="40.0718182" lon="-105.2290024">
  <ele>1583.0</ele>
  <time>2026-08-28T17:49:37Z</time>
  <course>111.37</course>
  <speed>0.8</speed>
  <fix>3d</fix>
</trkpt>
<trkpt lat="40.0718172" lon="-105.2290004">
  <ele>1583.18</ele>
  <time>2026-08-28T17:49:37Z</time>
  <course>117.97</course>
  <speed>0.7409453421137081</speed>
  <fix>3d</fix>
</trkpt>
<trkpt lat="40.0718176" lon="-105.2290006">
  <ele>1583.0</ele>
  <time>2026-08-28T17:49:37Z</time>
  <course>115.27</course>
  <speed>0.8</speed>
  <fix>3d</fix>
</trkpt>
<trkpt lat="40.0718169" lon="-105.2289995">
  <ele>1583.17</ele>
  <time>2026-08-28T17:49:37Z</time>
  <course>119.91</course>
  <speed>0.7433034373659253</speed>
  <fix>3d</fix>
</trkpt>
<trkpt lat="40.0718176" lon="-105.2290006">
  <ele>1583.0</ele>
  <time>2026-08-28T17:49:37Z</time>
  <course>115.27</course>
  <speed>0.8</speed>
  <fix>3d</fix>
</trkpt>
<trkpt lat="40.0718165" lon="-105.2289987">
  <ele>1583.17</ele>
  <time>2026-08-28T17:49:37Z</time>
  <course>121.86</course>
  <speed>0.7521303078589507</speed>
  <fix>3d</fix>
</trkpt>
<trkpt lat="40.0718176" lon="-105.2290006">
  <ele>1583.0</ele>
  <time>2026-08-28T17:49:37Z</time>
  <course>115.27</course>
  <speed>0.8</speed>
  <fix>3d</fix>
</trkpt>
<trkpt lat="40.0718161" lon="-105.2289979">
  <ele>1583.17</ele>
  <time>2026-08-28T17:49:37Z</time>
  <course>123.8</course>
  <speed>0.756042326857432</speed>
  <fix>3d</fix>
</trkpt>
<trkpt lat="40.071817" lon="-105.2289989">
  <ele>1583.0</ele>
  <time>2026-08-28T17:49:37Z</time>
  <course>119.16</course>
  <speed>0.8</speed>
  <fix>3d</fix>
</trkpt>
<trkpt lat="40.0718157" lon="-105.2289971">
  <ele>1583.16</ele>
  <time>2026-08-28T17:49:37Z</time>
  <course>125.74</course>
  <speed>0.7669419795525605</speed>
  <fix>3d</fix>
</trkpt>
<trkpt lat="40.071817" lon="-105.2289989">
  <ele>1583.0</ele>
  <time>2026-08-28T17:49:37Z</time>
  <course>119.16</course>
  <speed>0.8</speed>
  <fix>3d</fix>
</trkpt>
<trkpt lat="40.0718152" lon="-105.2289964">
  <ele>1583.16</ele>
  <time>2026-08-28T17:49:37Z</time>
  <course>127.69</course>
  <speed>0.7648529270389177</speed>
  <fix>3d</fix>
</trkpt>
<trkpt lat="40.0718162" lon="-105.2289974">
  <ele>1583.0</ele>
  <time>2026-08-28T17:49:37Z</time>
  <course>123.06</course>
  <speed>0.8</speed>
  <fix>3d</fix>
</trkpt>
<trkpt lat="40.0718148" lon="-105.2289956">
  <ele>1583.16</ele>
  <time>2026-08-28T17:49:37Z</time>
  <course>129.63</course>
  <speed>0.7710382610480494</speed>
  <fix>3d</fix>
</trkpt>
<trkpt lat="40.0718162" lon="-105.2289974">
  <ele>1583.0</ele>
  <time>2026-08-28T17:49:37Z</time>
  <course>123.06</course>
  <speed>0.8</speed>
  <fix>3d</fix>
</trkpt>
<trkpt lat="40.0718143" lon="-105.2289949">
  <ele>1583.16</ele>
  <time>2026-08-28T17:49:37Z</time>
  <course>131.57</course>
  <speed>0.7707788269017254</speed>
  <fix>3d</fix>
</trkpt>
<trkpt lat="40.0718154" lon="-105.2289958">
  <ele>1583.0</ele>
  <time>2026-08-28T17:49:37Z</time>
  <course>126.95</course>
  <speed>0.8</speed>
  <fix>3d</fix>
</trkpt>
<trkpt lat="40.0718138" lon="-105.2289942">
  <ele>1583.16</ele>
  <time>2026-08-28T17:49:37Z</time>
  <course>133.53</course>
  <speed>0.7789736837660179</speed>
  <fix>3d</fix>
</trkpt>
<trkpt lat="40.0718145" lon="-105.2289943">
  <ele>1583.0</ele>
  <time>2026-08-28T17:49:37Z</time>
  <course>130.83</course>
  <speed>0.8</speed>
  <fix>3d</fix>
</trkpt>
<trkpt lat="40.0718133" lon="-105.2289935">
  <ele>1583.16</ele>
  <time>2026-08-28T17:49:37Z</time>
  <course>135.47</course>
  <speed>0.7874642849044012</speed>
  <fix>3d</fix>
</trkpt>
<trkpt lat="40.0718145" lon="-105.2289943">
  <ele>1583.0</ele>
  <time>2026-08-28T17:49:37Z</time>
  <course>130.83</course>
  <speed>0.8</speed>
  <fix>3d</fix>
</trkpt>
<trkpt lat="40.0718127" lon="-105.2289928">
  <ele>1583.17</ele>
  <time>2026-08-28T17:49:37Z</time>
  <course>137.41</course>
  <speed>0.7902531240052139</speed>
  <fix>3d</fix>
</trkpt>
<trkpt lat="40.0718135" lon="-105.228993">
  <ele>1583.0</ele>
  <time>2026-08-28T17:49:37Z</time>
  <course>134.72</course>
  <speed>0.8</speed>
  <fix>3d</fix>
</trkpt>
<trkpt lat="40.0718122" lon="-105.2289922">
  <ele>1583.17</ele>
  <time>2026-08-28T17:49:37Z</time>
  <course>139.33</course>
  <speed>0.7860025445251434</speed>
  <fix>3d</fix>
</trkpt>
<trkpt lat="40.0718135" lon="-105.228993">
  <ele>1583.0</ele>
  <time>2026-08-28T17:49:37Z</time>
  <course>134.72</course>
  <speed>0.8</speed>
  <fix>3d</fix>
</trkpt>
<trkpt lat="40.0718116" lon="-105.2289915">
  <ele>1583.17</ele>
  <time>2026-08-28T17:49:37Z</time>
  <course>141.27</course>
  <speed>0.7905694150420949</speed>
  <fix>3d</fix>
</trkpt>
<trkpt lat="40.0718125" lon="-105.2289917">
  <ele>1583.0</ele>
  <time>2026-08-28T17:49:37Z</time>
  <course>138.6</course>
  <speed>0.8</speed>
  <fix>3d</fix>
</trkpt>
<trkpt lat="40.071811" lon="-105.2289909">
  <ele>1583.17</ele>
  <time>2026-08-28T17:49:37Z</time>
  <course>143.21</course>
  <speed>0.8015609770940699</speed>
  <fix>3d</fix>
</trkpt>
<trkpt lat="40.0718125" lon="-105.2289917">
  <ele>1583.0</ele>
  <time>2026-08-28T17:49:37Z</time>
  <course>138.6</course>
  <speed>0.8</speed>
  <fix>3d</fix>
</trkpt>
<trkpt lat="40.0718104" lon="-105.2289904">
  <ele>1583.17</ele>
  <time>2026-08-28T17:49:37Z</time>
  <course>145.15</course>
  <speed>0.8026207074328446</speed>
  <fix>3d</fix>
</trkpt>
<trkpt lat="40.0718114" lon="-105.2289905">
  <ele>1583.0</ele>
  <time>2026-08-28T17:49:37Z</time>
  <course>142.48</course>
  <speed>0.8</speed>
  <fix>3d</fix>
</trkpt>
<trkpt lat="40.0718098" lon="-105.2289898">
  <ele>1583.17</ele>
  <time>2026-08-28T17:49:37Z</time>
  <course>147.1</course>
  <speed>0.8013114251026251</speed>
  <fix>3d</fix>
</trkpt>
<trkpt lat="40.0718114" lon="-105.2289905">
  <ele>1583.0</ele>
  <time>2026-08-28T17:49:37Z</time>
  <course>142.48</course>
  <speed>0.8</speed>
  <fix>3d</fix>
</trkpt>
<trkpt lat="40.0718092" lon="-105.2289893">
  <ele>1583.17</ele>
  <time>2026-08-28T17:49:37Z</time>
  <course>149.04</course>
  <speed>0.8095060222135473</speed>
  <fix>3d</fix>
</trkpt>
<trkpt lat="40.0718102" lon="-105.2289894">
  <ele>1583.0</ele>
  <time>2026-08-28T17:49:37Z</time>
  <course>146.36</course>
  <speed>0.8</speed>
  <fix>3d</fix>
</trkpt>
<trkpt lat="40.0718086" lon="-105.2289888">
  <ele>1583.17</ele>
  <time>2026-08-28T17:49:37Z</time>
  <course>150.97</course>
  <speed>0.8095677859203638</speed>
  <fix>3d</fix>
</trkpt>
<trkpt lat="40.0718102" lon="-105.2289894">
  <ele>1583.0</ele>
  <time>2026-08-28T17:49:37Z</time>
  <course>146.36</course>
  <speed>0.8</speed>
  <fix>3d</fix>
</trkpt>
<trkpt lat="40.0718079" lon="-105.2289883">
  <ele>1583.17</ele>
  <time>2026-08-28T17:49:37Z</time>
  <course>152.91</course>
  <speed>0.8102468759581859</speed>
  <fix>3d</fix>
</trkpt>
<trkpt lat="40.071809" lon="-105.2289884">
  <ele>1583.0</ele>
  <time>2026-08-28T17:49:37Z</time>
  <course>150.24</course>
  <speed>0.8</speed>
  <fix>3d</fix>
</trkpt>
<trkpt lat="40.0718073" lon="-105.2289879">
  <ele>1583.17</ele>
  <time>2026-08-28T17:49:37Z</time>
  <course>154.85</course>
  <speed>0.8207923001588161</speed>
  <fix>3d</fix>
</trkpt>
<trkpt lat="40.071809" lon="-105.2289884">
  <ele>1583.0</ele>
  <time>2026-08-28T17:49:37Z</time>
  <course>150.24</course>
  <speed>0.8</speed>
  <fix>3d</fix>
</trkpt>
<trkpt lat="40.0718066" lon="-105.2289875">
  <ele>1583.17</ele>
  <time>2026-08-28T17:49:37Z</time>
  <course>156.78</course>
  <speed>0.8193289937503738</speed>
  <fix>3d</fix>
</trkpt>
<trkpt lat="40.0718077" lon="-105.2289876">
  <ele>1583.0</ele>
  <time>2026-08-28T17:49:37Z</time>
  <course>154.12</course>
  <speed>0.8</speed>
  <fix>3d</fix>
</trkpt>
<trkpt lat="40.0718059" lon="-105.2289871">
  <ele>1583.17</ele>
  <time>2026-08-28T17:49:37Z</time>
  <course>158.72</course>
  <speed>0.8221921916437787</speed>
  <fix>3d</fix>
</trkpt>
<trkpt lat="40.0718077" lon="-105.2289876">
  <ele>1583.0</ele>
  <time>2026-08-28T17:49:37Z</time>
  <course>154.12</course>
  <speed>0.8</speed>
  <fix>3d</fix>
</trkpt>
<trkpt lat="40.0718053" lon="-105.2289868">
  <ele>1583.17</ele>
  <time>2026-08-28T17:49:37Z</time>
  <course>160.66</course>
  <speed>0.8256512580987205</speed>
  <fix>3d</fix>
</trkpt>
<trkpt lat="40.0718077" lon="-105.2289876">
  <ele>1583.0</ele>
  <time>2026-08-28T17:49:37Z</time>
  <course>154.12</course>
  <speed>0.8</speed>
  <fix>3d</fix>
</trkpt>
<trkpt lat="40.0718046" lon="-105.2289865">
  <ele>1583.17</ele>
  <time>2026-08-28T17:49:37Z</time>
  <course>162.59</course>
  <speed>0.8271033792700887</speed>
  <fix>3d</fix>
</trkpt>
<trkpt lat="40.0718064" lon="-105.2289868">
  <ele>1583.0</ele>
  <time>2026-08-28T17:49:37Z</time>
  <course>158.01</course>
  <speed>0.8</speed>
  <fix>3d</fix>
</trkpt>
<trkpt lat="40.0718039" lon="-105.2289862">
  <ele>1583.17</ele>
  <time>2026-08-28T17:49:37Z</time>
  <course>164.53</course>
  <speed>0.8222530024268686</speed>
  <fix>3d</fix>
</trkpt>
<trkpt lat="40.0718064" lon="-105.2289868">
  <ele>1583.0</ele>
  <time>2026-08-28T17:49:37Z</time>
  <course>158.01</course>
  <speed>0.8</speed>
  <fix>3d</fix>
</trkpt>
<trkpt lat="40.0718032" lon="-105.2289859">
  <ele>1583.17</ele>
  <time>2026-08-28T17:49:37Z</time>
  <course>166.46</course>
  <speed>0.8256512580987205</speed>
  <fix>3d</fix>
</trkpt>
<trkpt lat="40.071805" lon="-105.2289862">
  <ele>1583.0</ele>
  <time>2026-08-28T17:49:37Z</time>
  <course>161.9</course>
  <speed>0.8</speed>
  <fix>3d</fix>
</trkpt>
<trkpt lat="40.0718025" lon="-105.2289857">
  <ele>1583.17</ele>
  <time>2026-08-28T17:49:37Z</time>
  <course>168.4</course>
  <speed>0.8220097323024831</speed>
  <fix>3d</fix>
</trkpt>
<trkpt lat="40.071805" lon="-105.2289862">
  <ele>1583.0</ele>
  <time>2026-08-28T17:49:37Z</time>
  <course>161.9</course>
  <speed>0.8</speed>
  <fix>3d</fix>
</trkpt>
<trkpt lat="40.0718018" lon="-105.2289855">
  <ele>1583.17</ele>
  <time>2026-08-28T17:49:37Z</time>
  <course>170.33</course>
  <speed>0.8273451516749222</speed>
  <fix>3d</fix>
</trkpt>
<trkpt lat="40.0718036" lon="-105.2289856">
  <ele>1583.0</ele>
  <time>2026-08-28T17:49:37Z</time>
  <course>165.77</course>
  <speed>0.8</speed>
  <fix>3d</fix>
</trkpt>
<trkpt lat="40.0718011" lon="-105.2289854">
  <ele>1583.17</ele>
  <time>2026-08-28T17:49:37Z</time>
  <course>172.27</course>
  <speed>0.8238931969618392</speed>
  <fix>3d</fix>
</trkpt>
<trkpt lat="40.0718036" lon="-105.2289856">
  <ele>1583.0</ele>
  <time>2026-08-28T17:49:37Z</time>
  <course>165.77</course>
  <speed>0.8</speed>
  <fix>3d</fix>
</trkpt>
<trkpt lat="40.0718004" lon="-105.2289853">
  <ele>1583.16</ele>
  <time>2026-08-28T17:49:37Z</time>
  <course>174.22</course>
  <speed>0.8221921916437787</speed>
  <fix>3d</fix>
</trkpt>
<trkpt lat="40.0718023" lon="-105.2289852">
  <ele>1583.0</ele>
  <time>2026-08-28T17:49:37Z</time>
  <course>169.65</course>
  <speed>0.8</speed>
  <fix>3d</fix>
</trkpt>
<trkpt lat="40.0717997" lon="-105.2289852">
  <ele>1583.16</ele>
  <time>2026-08-28T17:49:37Z</time>
  <course>176.15</course>
  <speed>0.8205485969764374</speed>
  <fix>3d</fix>
</trkpt>
<trkpt lat="40.0718008" lon="-105.228985">
  <ele>1583.0</ele>
  <time>2026-08-28T17:49:37Z</time>
  <course>173.53</course>
  <speed>0.8</speed>
  <fix>3d</fix>
</trkpt>
<trkpt lat="40.071799" lon="-105.2289851">
  <ele>1583.16</ele>
  <time>2026-08-28T17:49:37Z</time>
  <course>178.09</course>
  <speed>0.8300602387778854</speed>
  <fix>3d</fix>
</trkpt>
<trkpt lat="40.0718008" lon="-105.228985">
  <ele>1583.0</ele>
  <time>2026-08-28T17:49:37Z</time>
  <course>173.53</course>
  <speed>0.8</speed>
  <fix>3d</fix>
</trkpt>
<trkpt lat="40.0717983" lon="-105.2289851">
  <ele>1583.15</ele>
  <time>2026-08-28T17:49:37Z</time>
  <course>180.02</course>
  <speed>0.8200609733428362</speed>
  <fix>3d</fix>
</trkpt>
<trkpt lat="40.0717993" lon="-105.2289848">
  <ele>1583.0</ele>
  <time>2026-08-28T17:49:37Z</time>
  <course>177.4</course>
  <speed>0.8</speed>
  <fix>3d</fix>
</trkpt>
<trkpt lat="40.0717975" lon="-105.2289851">
  <ele>1583.15</ele>
  <time>2026-08-28T17:49:37Z</time>
  <course>181.95</course>
  <speed>0.8209750300709517</speed>
  <fix>3d</fix>
</trkpt>
<trkpt lat="40.0717993" lon="-105.2289848">
  <ele>1583.0</ele>
  <time>2026-08-28T17:49:37Z</time>
  <course>177.4</course>
  <speed>0.8</speed>
  <fix>3d</fix>
</trkpt>
<trkpt lat="40.0717968" lon="-105.2289851">
  <ele>1583.15</ele>
  <time>2026-08-28T17:49:37Z</time>
  <course>183.89</course>
  <speed>0.8221921916437787</speed>
  <fix>3d</fix>
</trkpt>
<trkpt lat="40.071798" lon="-105.2289847">
  <ele>1583.0</ele>
  <time>2026-08-28T17:49:37Z</time>
  <course>181.28</course>
  <speed>0.8</speed>
  <fix>3d</fix>
</trkpt>
<trkpt lat="40.0717961" lon="-105.2289852">
  <ele>1583.15</ele>
  <time>2026-08-28T17:49:37Z</time>
  <course>185.82</course>
  <speed>0.8249242389456137</speed>
  <fix>3d</fix>
</trkpt>
<trkpt lat="40.071798" lon="-105.2289847">
  <ele>1583.0</ele>
  <time>2026-08-28T17:49:37Z</time>
  <course>181.28</course>
  <speed>0.8</speed>
  <fix>3d</fix>
</trkpt>
<trkpt lat="40.0717954" lon="-105.2289853">
  <ele>1583.15</ele>
  <time>2026-08-28T17:49:37Z</time>
  <course>187.76</course>
  <speed>0.8075270893288967</speed>
  <fix>3d</fix>
</trkpt>
<trkpt lat="40.0717965" lon="-105.2289849">
  <ele>1583.0</ele>
  <time>2026-08-28T17:49:37Z</time>
  <course>185.12</course>
  <speed>0.79</speed>
  <fix>3d</fix>
</trkpt>
<trkpt lat="40.0717947" lon="-105.2289854">
  <ele>1583.15</ele>
  <time>2026-08-28T17:49:37Z</time>
  <course>189.61</course>
  <speed>0.7611832893594026</speed>
  <fix>3d</fix>
</trkpt>
<trkpt lat="40.0717965" lon="-105.2289849">
  <ele>1583.0</ele>
  <time>2026-08-28T17:49:37Z</time>
  <course>185.12</course>
  <speed>0.79</speed>
  <fix>3d</fix>
</trkpt>
<trkpt lat="40.0717941" lon="-105.2289854">
  <ele>1583.15</ele>
  <time>2026-08-28T17:49:37Z</time>
  <course>190.32</course>
  <speed>0.7218032973047436</speed>
  <fix>3d</fix>
</trkpt>
<trkpt lat="40.0717951" lon="-105.228985">
  <ele>1583.0</ele>
  <time>2026-08-28T17:49:37Z</time>
  <course>188.29</course>
  <speed>0.74</speed>
  <fix>3d</fix>
</trkpt>
<trkpt lat="40.0717935" lon="-105.2289856">
  <ele>1583.15</ele>
  <time>2026-08-28T17:49:37Z</time>
  <course>190.32</course>
  <speed>0.6905070600652827</speed>
  <fix>3d</fix>
</trkpt>
<trkpt lat="40.0717951" lon="-105.228985">
  <ele>1583.0</ele>
  <time>2026-08-28T17:49:37Z</time>
  <course>188.29</course>
  <speed>0.74</speed>
  <fix>3d</fix>
</trkpt>
<trkpt lat="40.0717929" lon="-105.2289857">
  <ele>1583.15</ele>
  <time>2026-08-28T17:49:37Z</time>
  <course>190.32</course>
  <speed>0.7021395872616784</speed>
  <fix>3d</fix>
</trkpt>
<trkpt lat="40.0717938" lon="-105.2289852">
  <ele>1583.0</ele>
  <time>2026-08-28T17:49:37Z</time>
  <course>189.64</course>
  <speed>0.69</speed>
  <fix>3d</fix>
</trkpt>
<trkpt lat="40.0717922" lon="-105.2289858">
  <ele>1583.15</ele>
  <time>2026-08-28T17:49:37Z</time>
  <course>190.32</course>
  <speed>0.8023091673413684</speed>
  <fix>3d</fix>
</trkpt>
<trkpt lat="40.0717938" lon="-105.2289852">
  <ele>1583.0</ele>
  <time>2026-08-28T17:49:37Z</time>
  <course>189.64</course>
  <speed>0.69</speed>
  <fix>3d</fix>
</trkpt>
<trkpt lat="40.0717915" lon="-105.228986">
  <ele>1583.16</ele>
  <time>2026-08-28T17:49:37Z</time>
  <course>190.32</course>
  <speed>0.996393496566492</speed>
  <fix>3d</fix>
</trkpt>
<trkpt lat="40.0717925" lon="-105.2289855">
  <ele>1583.0</ele>
  <time>2026-08-28T17:49:37Z</time>
  <course>189.64</course>
  <speed>0.82</speed>
  <fix>3d</fix>
</trkpt>
<trkpt lat="40.0717905" lon="-105.2289862">
  <ele>1583.16</ele>
  <time>2026-08-28T17:49:37Z</time>
  <course>190.32</course>
  <speed>1.2808200498118385</speed>
  <fix>3d</fix>
</trkpt>
<trkpt lat="40.0717925" lon="-105.2289855">
  <ele>1583.0</ele>
  <time>2026-08-28T17:49:37Z</time>
  <course>189.64</course>
  <speed>0.82</speed>
  <fix>3d</fix>
</trkpt>
<trkpt lat="40.0717892" lon="-105.2289865">
  <ele>1583.16</ele>
  <time>2026-08-28T17:49:37Z</time>
  <course>190.32</course>
  <speed>1.5652475842498526</speed>
  <fix>3d</fix>
</trkpt>
<trkpt lat="40.0717925" lon="-105.2289855">
  <ele>1583.0</ele>
  <time>2026-08-28T17:49:37Z</time>
  <course>189.64</course>
  <speed>0.82</speed>
  <fix>3d</fix>
</trkpt>
<trkpt lat="40.0717877" lon="-105.2289868">
  <ele>1583.16</ele>
  <time>2026-08-28T17:49:37Z</time>
  <course>190.33</course>
  <speed>1.84967564724197</speed>
  <fix>3d</fix>
</trkpt>
<trkpt lat="40.0717908" lon="-105.2289859">
  <ele>1583.0</ele>
  <time>2026-08-28T17:49:37Z</time>
  <course>189.63</course>
  <speed>1.26</speed>
  <fix>3d</fix>
</trkpt>
<trkpt lat="40.0717859" lon="-105.2289872">
  <ele>1583.16</ele>
  <time>2026-08-28T17:49:37Z</time>
  <course>190.33</course>
  <speed>2.1126523613694705</speed>
  <fix>3d</fix>
</trkpt>
<trkpt lat="40.0717908" lon="-105.2289859">
  <ele>1583.0</ele>
  <time>2026-08-28T17:49:37Z</time>
  <course>189.63</course>
  <speed>1.26</speed>
  <fix>3d</fix>
</trkpt>
<trkpt lat="40.0717839" lon="-105.2289876">
  <ele>1583.17</ele>
  <time>2026-08-28T17:49:37Z</time>
  <course>190.33</course>
  <speed>2.3577107541002564</speed>
  <fix>3d</fix>
</trkpt>
<trkpt lat="40.071788" lon="-105.2289865">
  <ele>1583.0</ele>
  <time>2026-08-28T17:49:37Z</time>
  <course>189.63</course>
  <speed>1.81</speed>
  <fix>3d</fix>
</trkpt>
<trkpt lat="40.0717817" lon="-105.2289881">
  <ele>1583.16</ele>
  <time>2026-08-28T17:49:37Z</time>
  <course>190.33</course>
  <speed>2.600999807766237</speed>
  <fix>3d</fix>
</trkpt>
<trkpt lat="40.071788" lon="-105.2289865">
  <ele>1583.0</ele>
  <time>2026-08-28T17:49:37Z</time>
  <course>189.63</course>
  <speed>1.81</speed>
  <fix>3d</fix>
</trkpt>
<trkpt lat="40.0717793" lon="-105.2289887">
  <ele>1583.16</ele>
  <time>2026-08-28T17:49:37Z</time>
  <course>190.33</course>
  <speed>2.824606167238187</speed>
  <fix>3d</fix>
</trkpt>
<trkpt lat="40.0717843" lon="-105.2289874">
  <ele>1583.0</ele>
  <time>2026-08-28T17:49:37Z</time>
  <course>189.63</course>
  <speed>2.33</speed>
  <fix>3d</fix>
</trkpt>
<trkpt lat="40.0717767" lon="-105.2289893">
  <ele>1583.16</ele>
  <time>2026-08-28T17:49:37Z</time>
  <course>190.33</course>
  <speed>3.0383712742191333</speed>
  <fix>3d</fix>
</trkpt>
<trkpt lat="40.0717798" lon="-105.2289884">
  <ele>1583.0</ele>
  <time>2026-08-28T17:49:37Z</time>
  <course>189.63</course>
  <speed>2.79</speed>
  <fix>3d</fix>
</trkpt>
<trkpt lat="40.0717739" lon="-105.2289899">
  <ele>1583.16</ele>
  <time>2026-08-28T17:49:37Z</time>
  <course>190.33</course>
  <speed>3.250369209797558</speed>
  <fix>3d</fix>
</trkpt>
<trkpt lat="40.0717798" lon="-105.2289884">
  <ele>1583.0</ele>
  <time>2026-08-28T17:49:37Z</time>
  <course>189.63</course>
  <speed>2.79</speed>
  <fix>3d</fix>
</trkpt>
<trkpt lat="40.0717709" lon="-105.2289906">
  <ele>1583.16</ele>
  <time>2026-08-28T17:49:37Z</time>
  <course>190.34</course>
  <speed>3.444444802867365</speed>
  <fix>3d</fix>
</trkpt>
<trkpt lat="40.0717744" lon="-105.2289896">
  <ele>1583.0</ele>
  <time>2026-08-28T17:49:37Z</time>
  <course>189.63</course>
  <speed>3.21</speed>
  <fix>3d</fix>
</trkpt>
<trkpt lat="40.0717677" lon="-105.2289913">
  <ele>1583.15</ele>
  <time>2026-08-28T17:49:37Z</time>
  <course>190.34</course>
  <speed>3.636756796927724</speed>
  <fix>3d</fix>
</trkpt>
<trkpt lat="40.0717744" lon="-105.2289896">
  <ele>1583.0</ele>
  <time>2026-08-28T17:49:37Z</time>
  <course>189.63</course>
  <speed>3.21</speed>
  <fix>3d</fix>
</trkpt>
<trkpt lat="40.0717644" lon="-105.228992">
  <ele>1583.15</ele>
  <time>2026-08-28T17:49:37Z</time>
  <course>190.34</course>
  <speed>3.80938315216519</speed>
  <fix>3d</fix>
</trkpt>
<trkpt lat="40.0717684" lon="-105.2289909">
  <ele>1583.0</ele>
  <time>2026-08-28T17:49:37Z</time>
  <course>189.63</course>
  <speed>3.59</speed>
  <fix>3d</fix>
</trkpt>
<trkpt lat="40.0717609" lon="-105.2289928">
  <ele>1583.15</ele>
  <time>2026-08-28T17:49:37Z</time>
  <course>190.34</course>
  <speed>3.98200954293181</speed>
  <fix>3d</fix>
</trkpt>
<trkpt lat="40.0717684" lon="-105.2289909">
  <ele>1583.0</ele>
  <time>2026-08-28T17:49:37Z</time>
  <course>189.63</course>
  <speed>3.59</speed>
  <fix>3d</fix>
</trkpt>
<trkpt lat="40.0717572" lon="-105.2289937">
  <ele>1583.15</ele>
  <time>2026-08-28T17:49:37Z</time>
  <course>190.34</course>
  <speed>4.144791912750265</speed>
  <fix>3d</fix>
</trkpt>
<trkpt lat="40.0717618" lon="-105.2289924">
  <ele>1583.0</ele>
  <time>2026-08-28T17:49:37Z</time>
  <course>189.63</course>
  <speed>3.93</speed>
  <fix>3d</fix>
</trkpt>
<trkpt lat="40.0717534" lon="-105.2289945">
  <ele>1583.16</ele>
  <time>2026-08-28T17:49:37Z</time>
  <course>190.33</course>
  <speed>4.305821640523444</speed>
  <fix>3d</fix>
</trkpt>
<trkpt lat="40.0717618" lon="-105.2289924">
  <ele>1583.0</ele>
  <time>2026-08-28T17:49:37Z</time>
  <course>189.63</course>
  <speed>3.93</speed>
  <fix>3d</fix>
</trkpt>
<trkpt lat="40.0717495" lon="-105.2289954">
  <ele>1583.16</ele>
  <time>2026-08-28T17:49:37Z</time>
  <course>190.33</course>
  <speed>4.44890997885999</speed>
  <fix>3d</fix>
</trkpt>
<trkpt lat="40.0717545" lon="-105.228994">
  <ele>1583.0</ele>
  <time>2026-08-28T17:49:37Z</time>
  <course>189.63</course>
  <speed>4.24</speed>
  <fix>3d</fix>
</trkpt>
<trkpt lat="40.0717455" lon="-105.2289963">
  <ele>1583.16</ele>
  <time>2026-08-28T17:49:37Z</time>
  <course>190.33</course>
  <speed>4.590250537824706</speed>
  <fix>3d</fix>
</trkpt>
<trkpt lat="40.0717545" lon="-105.228994">
  <ele>1583.0</ele>
  <time>2026-08-28T17:49:37Z</time>
  <course>189.63</course>
  <speed>4.24</speed>
  <fix>3d</fix>
</trkpt>
<trkpt lat="40.0717413" lon="-105.2289972">
  <ele>1583.16</ele>
  <time>2026-08-28T17:49:37Z</time>
  <course>190.32</course>
  <speed>4.723494469140405</speed>
  <fix>3d</fix>
</trkpt>
<trkpt lat="40.0717467" lon="-105.2289957">
  <ele>1583.0</ele>
  <time>2026-08-28T17:49:37Z</time>
  <course>189.63</course>
  <speed>4.52</speed>
  <fix>3d</fix>
</trkpt>
<trkpt lat="40.0717371" lon="-105.2289982">
  <ele>1583.17</ele>
  <time>2026-08-28T17:49:37Z</time>
  <course>190.32</course>
  <speed>4.845141896786925</speed>
  <fix>3d</fix>
</trkpt>
<trkpt lat="40.0717467" lon="-105.2289957">
  <ele>1583.0</ele>
  <time>2026-08-28T17:49:37Z</time>
  <course>189.63</course>
  <speed>4.52</speed>
  <fix>3d</fix>
</trkpt>
<trkpt lat="40.0717327" lon="-105.2289992">
  <ele>1583.17</ele>
  <time>2026-08-28T17:49:37Z</time>
  <course>190.32</course>
  <speed>4.966789707648191</speed>
  <fix>3d</fix>
</trkpt>
<trkpt lat="40.0717384" lon="-105.2289975">
  <ele>1583.0</ele>
  <time>2026-08-28T17:49:37Z</time>
  <course>189.63</course>
  <speed>4.78</speed>
  <fix>3d</fix>
</trkpt>
<trkpt lat="40.0717282" lon="-105.2290001">
  <ele>1583.17</ele>
  <time>2026-08-28T17:49:37Z</time>
  <course>190.31</course>
  <speed>5.0768494167150555</speed>
  <fix>3d</fix>
</trkpt>
<trkpt lat="40.0717384" lon="-105.2289975">
  <ele>1583.0</ele>
  <time>2026-08-28T17:49:37Z</time>
  <course>189.63</course>
  <speed>4.78</speed>
  <fix>3d</fix>
</trkpt>
<trkpt lat="40.0717237" lon="-105.2290012">
  <ele>1583.17</ele>
  <time>2026-08-28T17:49:37Z</time>
  <course>190.31</course>
  <speed>5.188651077110504</speed>
  <fix>3d</fix>
</trkpt>
<trkpt lat="40.0717384" lon="-105.2289975">
  <ele>1583.0</ele>
  <time>2026-08-28T17:49:37Z</time>
  <course>189.63</course>
  <speed>4.78</speed>
  <fix>3d</fix>
</trkpt>
<trkpt lat="40.0717191" lon="-105.2290022">
  <ele>1583.16</ele>
  <time>2026-08-28T17:49:37Z</time>
  <course>190.3</course>
  <speed>5.290604880351584</speed>
  <fix>3d</fix>
</trkpt>
<trkpt lat="40.0717298" lon="-105.2289994">
  <ele>1583.0</ele>
  <time>2026-08-28T17:49:37Z</time>
  <course>189.63</course>
  <speed>5.01</speed>
  <fix>3d</fix>
</trkpt>
<trkpt lat="40.0717144" lon="-105.2290032">
  <ele>1583.16</ele>
  <time>2026-08-28T17:49:37Z</time>
  <course>190.29</course>
  <speed>5.380975747947579</speed>
  <fix>3d</fix>
</trkpt>
<trkpt lat="40.0717298" lon="-105.2289994">
  <ele>1583.0</ele>
  <time>2026-08-28T17:49:37Z</time>
  <course>189.63</course>
  <speed>5.01</speed>
  <fix>3d</fix>
</trkpt>
<trkpt lat="40.0717096" lon="-105.2290043">
  <ele>1583.17</ele>
  <time>2026-08-28T17:49:37Z</time>
  <course>190.29</course>
  <speed>5.473079571868109</speed>
  <fix>3d</fix>
</trkpt>
<trkpt lat="40.0717207" lon="-105.2290015">
  <ele>1583.0</ele>
  <time>2026-08-28T17:49:37Z</time>
  <course>189.63</course>
  <speed>5.22</speed>
  <fix>3d</fix>
</trkpt>
<trkpt lat="40.0717048" lon="-105.2290053">
  <ele>1583.17</ele>
  <time>2026-08-28T17:49:37Z</time>
  <course>190.28</course>
  <speed>5.553602434456395</speed>
  <fix>3d</fix>
</trkpt>
<trkpt lat="40.0717207" lon="-105.2290015">
  <ele>1583.0</ele>
  <time>2026-08-28T17:49:37Z</time>
  <course>189.63</course>
  <speed>5.22</speed>
  <fix>3d</fix>
</trkpt>
<trkpt lat="40.0716999" lon="-105.2290064">
  <ele>1583.17</ele>
  <time>2026-08-28T17:49:37Z</time>
  <course>190.27</course>
  <speed>5.6341281490573145</speed>
  <fix>3d</fix>
</trkpt>
<trkpt lat="40.0717112" lon="-105.2290036">
  <ele>1583.0</ele>
  <time>2026-08-28T17:49:37Z</time>
  <course>189.63</course>
  <speed>5.4</speed>
  <fix>3d</fix>
</trkpt>
<trkpt lat="40.0716949" lon="-105.2290075">
  <ele>1583.17</ele>
  <time>2026-08-28T17:49:37Z</time>
  <course>190.26</course>
  <speed>5.704804992285013</speed>
  <fix>3d</fix>
</trkpt>
<trkpt lat="40.0717112" lon="-105.2290036">
  <ele>1583.0</ele>
  <time>2026-08-28T17:49:37Z</time>
  <course>189.63</course>
  <speed>5.4</speed>
  <fix>3d</fix>
</trkpt>
<trkpt lat="40.0716899" lon="-105.2290086">
  <ele>1583.17</ele>
  <time>2026-08-28T17:49:37Z</time>
  <course>190.26</course>
  <speed>5.787054518492115</speed>
  <fix>3d</fix>
</trkpt>
<trkpt lat="40.0717015" lon="-105.2290058">
  <ele>1583.0</ele>
  <time>2026-08-28T17:49:37Z</time>
  <course>189.63</course>
  <speed>5.57</speed>
  <fix>3d</fix>
</trkpt>
<trkpt lat="40.0716848" lon="-105.2290098">
  <ele>1583.17</ele>
  <time>2026-08-28T17:49:37Z</time>
  <course>190.25</course>
  <speed>5.847879957728271</speed>
  <fix>3d</fix>
</trkpt>
<trkpt lat="40.0716915" lon="-105.2290079">
  <ele>1583.0</ele>
  <time>2026-08-28T17:49:37Z</time>
  <course>189.63</course>
  <speed>5.73</speed>
  <fix>3d</fix>
</trkpt>
<trkpt lat="40.0716796" lon="-105.2290109">
  <ele>1583.17</ele>
  <time>2026-08-28T17:49:37Z</time>
  <course>190.25</course>
  <speed>5.918555567028157</speed>
  <fix>3d</fix>
</trkpt>
<trkpt lat="40.0716915" lon="-105.2290079">
  <ele>1583.0</ele>
  <time>2026-08-28T17:49:37Z</time>
  <course>189.63</course>
  <speed>5.73</speed>
  <fix>3d</fix>
</trkpt>
<trkpt lat="40.0716744" lon="-105.229012">
  <ele>1583.18</ele>
  <time>2026-08-28T17:49:37Z</time>
  <course>190.25</course>
  <speed>5.97938123889086</speed>
  <fix>3d</fix>
</trkpt>
<trkpt lat="40.0716812" lon="-105.2290102">
  <ele>1583.0</ele>
  <time>2026-08-28T17:49:37Z</time>
  <course>189.63</course>
  <speed>5.87</speed>
  <fix>3d</fix>
</trkpt>
<trkpt lat="40.071669" lon="-105.2290132">
  <ele>1583.18</ele>
  <time>2026-08-28T17:49:37Z</time>
  <course>190.24</course>
  <speed>6.038493189529984</speed>
  <fix>3d</fix>
</trkpt>
<trkpt lat="40.0716812" lon="-105.2290102">
  <ele>1583.0</ele>
  <time>2026-08-28T17:49:37Z</time>
  <course>189.63</course>
  <speed>5.87</speed>
  <fix>3d</fix>
</trkpt>
<trkpt lat="40.0716637" lon="-105.2290144">
  <ele>1583.18</ele>
  <time>2026-08-28T17:49:37Z</time>
  <course>190.24</course>
  <speed>6.099319634188719</speed>
  <fix>3d</fix>
</trkpt>
<trkpt lat="40.0716708" lon="-105.2290125">
  <ele>1583.0</ele>
  <time>2026-08-28T17:49:37Z</time>
  <course>189.63</course>
  <speed>5.99</speed>
  <fix>3d</fix>
</trkpt>
<trkpt lat="40.0716582" lon="-105.2290156">
  <ele>1583.17</ele>
  <time>2026-08-28T17:49:37Z</time>
  <course>190.24</course>
  <speed>6.150292675962666</speed>
  <fix>3d</fix>
</trkpt>
<trkpt lat="40.0716708" lon="-105.2290125">
  <ele>1583.0</ele>
  <time>2026-08-28T17:49:37Z</time>
  <course>189.63</course>
  <speed>5.99</speed>
  <fix>3d</fix>
</trkpt>
<trkpt lat="40.0716527" lon="-105.2290168">
  <ele>1583.17</ele>
  <time>2026-08-28T17:49:37Z</time>
  <course>190.24</course>
  <speed>6.211119061811647</speed>
  <fix>3d</fix>
</trkpt>
<trkpt lat="40.07166" lon="-105.2290149">
  <ele>1583.0</ele>
  <time>2026-08-28T17:49:37Z</time>
  <course>189.63</course>
  <speed>6.11</speed>
  <fix>3d</fix>
</trkpt>
<trkpt lat="40.0716471" lon="-105.229018">
  <ele>1583.18</ele>
  <time>2026-08-28T17:49:37Z</time>
  <course>190.24</course>
  <speed>6.262092302098397</speed>
  <fix>3d</fix>
</trkpt>
<trkpt lat="40.07166" lon="-105.2290149">
  <ele>1583.0</ele>
  <time>2026-08-28T17:49:37Z</time>
  <course>189.63</course>
  <speed>6.11</speed>
  <fix>3d</fix>
</trkpt>
<trkpt lat="40.0716416" lon="-105.2290193">
  <ele>1583.18</ele>
  <time>2026-08-28T17:49:37Z</time>
  <course>190.23</course>
  <speed>6.303213466161526</speed>
  <fix>3d</fix>
</trkpt>
<trkpt lat="40.0716491" lon="-105.2290173">
  <ele>1583.0</ele>
  <time>2026-08-28T17:49:37Z</time>
  <course>189.63</course>
  <speed>6.21</speed>
  <fix>3d</fix>
</trkpt>
<trkpt lat="40.0716359" lon="-105.2290205">
  <ele>1583.18</ele>
  <time>2026-08-28T17:49:37Z</time>
  <course>190.23</course>
  <speed>6.352479830743266</speed>
  <fix>3d</fix>
</trkpt>
<trkpt lat="40.0716491" lon="-105.2290173">
  <ele>1583.0</ele>
  <time>2026-08-28T17:49:37Z</time>
  <course>189.63</course>
  <speed>6.21</speed>
  <fix>3d</fix>
</trkpt>
<trkpt lat="40.0716303" lon="-105.2290218">
  <ele>1583.18</ele>
  <time>2026-08-28T17:49:37Z</time>
  <course>190.23</course>
  <speed>6.3935983608606515</speed>
  <fix>3d</fix>
</trkpt>
<trkpt lat="40.071638" lon="-105.2290198">
  <ele>1583.0</ele>
  <time>2026-08-28T17:49:37Z</time>
  <course>189.63</course>
  <speed>6.31</speed>
  <fix>3d</fix>
</trkpt>
<trkpt lat="40.0716246" lon="-105.229023">
  <ele>1583.18</ele>
  <time>2026-08-28T17:49:37Z</time>
  <course>190.23</course>
  <speed>6.434718331053815</speed>
  <fix>3d</fix>
</trkpt>
<trkpt lat="40.071638" lon="-105.2290198">
  <ele>1583.0</ele>
  <time>2026-08-28T17:49:37Z</time>
  <course>189.63</course>
  <speed>6.31</speed>
  <fix>3d</fix>
</trkpt>
<trkpt lat="40.0716189" lon="-105.2290243">
  <ele>1583.19</ele>
  <time>2026-08-28T17:49:37Z</time>
  <course>190.23</course>
  <speed>6.47413314660735</speed>
  <fix>3d</fix>
</trkpt>
<trkpt lat="40.071638" lon="-105.2290198">
  <ele>1583.0</ele>
  <time>2026-08-28T17:49:37Z</time>
  <course>189.63</course>
  <speed>6.31</speed>
  <fix>3d</fix>
</trkpt>
<trkpt lat="40.0716132" lon="-105.2290255">
  <ele>1583.19</ele>
  <time>2026-08-28T17:49:37Z</time>
  <course>190.23</course>
  <speed>6.505397758784624</speed>
  <fix>3d</fix>
</trkpt>
<trkpt lat="40.0716267" lon="-105.2290223">
  <ele>1583.0</ele>
  <time>2026-08-28T17:49:37Z</time>
  <course>189.63</course>
  <speed>6.39</speed>
  <fix>3d</fix>
</trkpt>
<trkpt lat="40.0716075" lon="-105.2290268">
  <ele>1583.19</ele>
  <time>2026-08-28T17:49:37Z</time>
  <course>190.23</course>
  <speed>6.544814741457546</speed>
  <fix>3d</fix>
</trkpt>
<trkpt lat="40.0716267" lon="-105.2290223">
  <ele>1583.0</ele>
  <time>2026-08-28T17:49:37Z</time>
  <course>189.63</course>
  <speed>6.39</speed>
  <fix>3d</fix>
</trkpt>
<trkpt lat="40.0716017" lon="-105.2290281">
  <ele>1583.19</ele>
  <time>2026-08-28T17:49:37Z</time>
  <course>190.22</course>
  <speed>6.566224181369381</speed>
  <fix>3d</fix>
</trkpt>
<trkpt lat="40.0716153" lon="-105.2290248">
  <ele>1583.0</ele>
  <time>2026-08-28T17:49:37Z</time>
  <course>189.63</course>
  <speed>6.47</speed>
  <fix>3d</fix>
</trkpt>
<trkpt lat="40.071596" lon="-105.2290293">
  <ele>1583.2</ele>
  <time>2026-08-28T17:49:37Z</time>
  <course>190.22</course>
  <speed>6.595786533841131</speed>
  <fix>3d</fix>
</trkpt>
<trkpt lat="40.0716153" lon="-105.2290248">
  <ele>1583.0</ele>
  <time>2026-08-28T17:49:37Z</time>
  <course>189.63</course>
  <speed>6.47</speed>
  <fix>3d</fix>
</trkpt>
<trkpt lat="40.0715902" lon="-105.2290306">
  <ele>1583.2</ele>
  <time>2026-08-28T17:49:37Z</time>
  <course>190.22</course>
  <speed>6.625352820793772</speed>
  <fix>3d</fix>
</trkpt>
<trkpt lat="40.0716038" lon="-105.2290275">
  <ele>1583.0</ele>
  <time>2026-08-28T17:49:37Z</time>
  <course>189.63</course>
  <speed>6.54</speed>
  <fix>3d</fix>
</trkpt>
<trkpt lat="40.0715844" lon="-105.2290319">
  <ele>1583.2</ele>
  <time>2026-08-28T17:49:37Z</time>
  <course>190.22</course>
  <speed>6.646758608524911</speed>
  <fix>3d</fix>
</trkpt>
<trkpt lat="40.0716038" lon="-105.2290275">
  <ele>1583.0</ele>
  <time>2026-08-28T17:49:37Z</time>
  <course>189.63</course>
  <speed>6.54</speed>
  <fix>3d</fix>
</trkpt>
<trkpt lat="40.0715785" lon="-105.2290332">
  <ele>1583.2</ele>
  <time>2026-08-28T17:49:37Z</time>
  <course>190.22</course>
  <speed>6.666468330383037</speed>
  <fix>3d</fix>
</trkpt>
<trkpt lat="40.0715921" lon="-105.22903">
  <ele>1583.0</ele>
  <time>2026-08-28T17:49:37Z</time>
  <course>189.63</course>
  <speed>6.6</speed>
  <fix>3d</fix>
</trkpt>
<trkpt lat="40.0715726" lon="-105.2290345">
  <ele>1583.21</ele>
  <time>2026-08-28T17:49:37Z</time>
  <course>190.22</course>
  <speed>6.686179776224986</speed>
  <fix>3d</fix>
</trkpt>
<trkpt lat="40.0715804" lon="-105.2290326">
  <ele>1583.0</ele>
  <time>2026-08-28T17:49:37Z</time>
  <course>189.63</course>
  <speed>6.66</speed>
  <fix>3d</fix>
</trkpt>
<trkpt lat="40.0715667" lon="-105.2290358">
  <ele>1583.21</ele>
  <time>2026-08-28T17:49:37Z</time>
  <course>190.22</course>
  <speed>6.717439988567073</speed>
  <fix>3d</fix>
</trkpt>
<trkpt lat="40.0715804" lon="-105.2290326">
  <ele>1583.0</ele>
  <time>2026-08-28T17:49:37Z</time>
  <course>189.63</course>
  <speed>6.66</speed>
  <fix>3d</fix>
</trkpt>
<trkpt lat="40.0715608" lon="-105.2290371">
  <ele>1583.2</ele>
  <time>2026-08-28T17:49:37Z</time>
  <course>190.22</course>
  <speed>6.73715073306216</speed>
  <fix>3d</fix>
</trkpt>
<trkpt lat="40.0715686" lon="-105.2290352">
  <ele>1583.0</ele>
  <time>2026-08-28T17:49:37Z</time>
  <course>189.63</course>
  <speed>6.71</speed>
  <fix>3d</fix>
</trkpt>
<trkpt lat="40.0715548" lon="-105.2290384">
  <ele>1583.2</ele>
  <time>2026-08-28T17:49:37Z</time>
  <course>190.22</course>
  <speed>6.7585575384101</speed>
  <fix>3d</fix>
</trkpt>
<trkpt lat="40.0715686" lon="-105.2290352">
  <ele>1583.0</ele>
  <time>2026-08-28T17:49:37Z</time>
  <course>189.63</course>
  <speed>6.71</speed>
  <fix>3d</fix>
</trkpt>
<trkpt lat="40.0715488" lon="-105.2290398">
  <ele>1583.2</ele>
  <time>2026-08-28T17:49:37Z</time>
  <course>190.23</course>
  <speed>6.778266740103992</speed>
  <fix>3d</fix>
</trkpt>
<trkpt lat="40.0715567" lon="-105.2290379">
  <ele>1583.0</ele>
  <time>2026-08-28T17:49:37Z</time>
  <course>189.63</course>
  <speed>6.75</speed>
  <fix>3d</fix>
</trkpt>
<trkpt lat="40.0715428" lon="-105.2290411">
  <ele>1583.2</ele>
  <time>2026-08-28T17:49:37Z</time>
  <course>190.23</course>
  <speed>6.7979776404457235</speed>
  <fix>3d</fix>
</trkpt>
<trkpt lat="40.0715567" lon="-105.2290379">
  <ele>1583.0</ele>
  <time>2026-08-28T17:49:37Z</time>
  <course>189.63</course>
  <speed>6.75</speed>
  <fix>3d</fix>
</trkpt>
<trkpt lat="40.0715367" lon="-105.2290425">
  <ele>1583.19</ele>
  <time>2026-08-28T17:49:37Z</time>
  <course>190.23</course>
  <speed>6.819384136415839</speed>
  <fix>3d</fix>
</trkpt>
<trkpt lat="40.0715446" lon="-105.2290405">
  <ele>1583.0</ele>
  <time>2026-08-28T17:49:37Z</time>
  <course>189.63</course>
  <speed>6.8</speed>
  <fix>3d</fix>
</trkpt>
<trkpt lat="40.0715306" lon="-105.2290438">
  <ele>1583.19</ele>
  <time>2026-08-28T17:49:37Z</time>
  <course>190.23</course>
  <speed>6.839093507183536</speed>
  <fix>3d</fix>
</trkpt>
<trkpt lat="40.0715446" lon="-105.2290405">
  <ele>1583.0</ele>
  <time>2026-08-28T17:49:37Z</time>
  <course>189.63</course>
  <speed>6.8</speed>
  <fix>3d</fix>
</trkpt>
<trkpt lat="40.0715245" lon="-105.2290452">
  <ele>1583.19</ele>
  <time>2026-08-28T17:49:37Z</time>
  <course>190.24</course>
  <speed>6.858804560563015</speed>
  <fix>3d</fix>
</trkpt>
<trkpt lat="40.0715325" lon="-105.2290432">
  <ele>1583.0</ele>
  <time>2026-08-28T17:49:37Z</time>
  <course>189.63</course>
  <speed>6.83</speed>
  <fix>3d</fix>
</trkpt>
<trkpt lat="40.0715184" lon="-105.2290465">
  <ele>1583.19</ele>
  <time>2026-08-28T17:49:37Z</time>
  <course>190.24</course>
  <speed>6.8686607137054025</speed>
  <fix>3d</fix>
</trkpt>
<trkpt lat="40.0715325" lon="-105.2290432">
  <ele>1583.0</ele>
  <time>2026-08-28T17:49:37Z</time>
  <course>189.63</course>
  <speed>6.83</speed>
  <fix>3d</fix>
</trkpt>
<trkpt lat="40.0715122" lon="-105.2290479">
  <ele>1583.19</ele>
  <time>2026-08-28T17:49:37Z</time>
  <course>190.24</course>
  <speed>6.890065311736893</speed>
  <fix>3d</fix>
</trkpt>
<trkpt lat="40.0715204" lon="-105.2290459">
  <ele>1583.0</ele>
  <time>2026-08-28T17:49:37Z</time>
  <course>189.63</course>
  <speed>6.87</speed>
  <fix>3d</fix>
</trkpt>
<trkpt lat="40.0715061" lon="-105.2290492">
  <ele>1583.19</ele>
  <time>2026-08-28T17:49:37Z</time>
  <course>190.24</course>
  <speed>6.899920289394654</speed>
  <fix>3d</fix>
</trkpt>
<trkpt lat="40.0715204" lon="-105.2290459">
  <ele>1583.0</ele>
  <time>2026-08-28T17:49:37Z</time>
  <course>189.63</course>
  <speed>6.87</speed>
  <fix>3d</fix>
</trkpt>
<trkpt lat="40.0715" lon="-105.2290506">
  <ele>1583.19</ele>
  <time>2026-08-28T17:49:37Z</time>
  <course>190.25</course>
  <speed>6.919631493078226</speed>
  <fix>3d</fix>
</trkpt>
<trkpt lat="40.0715082" lon="-105.2290486">
  <ele>1583.0</ele>
  <time>2026-08-28T17:49:37Z</time>
  <course>189.63</course>
  <speed>6.9</speed>
  <fix>3d</fix>
</trkpt>
<trkpt lat="40.0714938" lon="-105.229052">
  <ele>1583.19</ele>
  <time>2026-08-28T17:49:37Z</time>
  <course>190.25</course>
  <speed>6.929487715553005</speed>
  <fix>3d</fix>
</trkpt>
<trkpt lat="40.0715082" lon="-105.2290486">
  <ele>1583.0</ele>
  <time>2026-08-28T17:49:37Z</time>
  <course>189.63</course>
  <speed>6.9</speed>
  <fix>3d</fix>
</trkpt>
<trkpt lat="40.0714876" lon="-105.2290533">
  <ele>1583.2</ele>
  <time>2026-08-28T17:49:37Z</time>
  <course>190.25</course>
  <speed>6.941037386443038</speed>
  <fix>3d</fix>
</trkpt>
<trkpt lat="40.0715082" lon="-105.2290486">
  <ele>1583.0</ele>
  <time>2026-08-28T17:49:37Z</time>
  <course>189.63</course>
  <speed>6.9</speed>
  <fix>3d</fix>
</trkpt>
<trkpt lat="40.0714815" lon="-105.2290547">
  <ele>1583.2</ele>
  <time>2026-08-28T17:49:37Z</time>
  <course>190.25</course>
  <speed>6.950892029085188</speed>
  <fix>3d</fix>
</trkpt>
<trkpt lat="40.0714959" lon="-105.2290514">
  <ele>1583.0</ele>
  <time>2026-08-28T17:49:37Z</time>
  <course>189.63</course>
  <speed>6.93</speed>
  <fix>3d</fix>
</trkpt>
<trkpt lat="40.0714754" lon="-105.2290561">
  <ele>1583.19</ele>
  <time>2026-08-28T17:49:37Z</time>
  <course>190.26</course>
  <speed>6.96074708634066</speed>
  <fix>3d</fix>
</trkpt>
<trkpt lat="40.0714959" lon="-105.2290514">
  <ele>1583.0</ele>
  <time>2026-08-28T17:49:37Z</time>
  <course>189.63</course>
  <speed>6.93</speed>
  <fix>3d</fix>
</trkpt>
<trkpt lat="40.0714693" lon="-105.2290574">
  <ele>1583.19</ele>
  <time>2026-08-28T17:49:37Z</time>
  <course>190.26</course>
  <speed>6.970602556450912</speed>
  <fix>3d</fix>
</trkpt>
<trkpt lat="40.0714836" lon="-105.2290541">
  <ele>1583.0</ele>
  <time>2026-08-28T17:49:37Z</time>
  <course>189.63</course>
  <speed>6.95</speed>
  <fix>3d</fix>
</trkpt>
<trkpt lat="40.0714631" lon="-105.2290588">
  <ele>1583.19</ele>
  <time>2026-08-28T17:49:37Z</time>
  <course>190.26</course>
  <speed>6.980458437667258</speed>
  <fix>3d</fix>
</trkpt>
<trkpt lat="40.0714836" lon="-105.2290541">
  <ele>1583.0</ele>
  <time>2026-08-28T17:49:37Z</time>
  <course>189.63</course>
  <speed>6.95</speed>
  <fix>3d</fix>
</trkpt>
<trkpt lat="40.071457" lon="-105.2290601">
  <ele>1583.19</ele>
  <time>2026-08-28T17:49:37Z</time>
  <course>190.26</course>
  <speed>6.980458437667258</speed>
  <fix>3d</fix>
</trkpt>
<trkpt lat="40.0714713" lon="-105.2290568">
  <ele>1583.0</ele>
  <time>2026-08-28T17:49:37Z</time>
  <course>189.63</course>
  <speed>6.98</speed>
  <fix>3d</fix>
</trkpt>
<trkpt lat="40.0714508" lon="-105.2290615">
  <ele>1583.19</ele>
  <time>2026-08-28T17:49:37Z</time>
  <course>190.26</course>
  <speed>6.990314728250796</speed>
  <fix>3d</fix>
</trkpt>
<trkpt lat="40.0714588" lon="-105.2290596">
  <ele>1583.0</ele>
  <time>2026-08-28T17:49:37Z</time>
  <course>189.63</course>
  <speed>7.0</speed>
  <fix>3d</fix>
</trkpt>
<trkpt lat="40.0714446" lon="-105.2290629">
  <ele>1583.19</ele>
  <time>2026-08-28T17:49:37Z</time>
  <course>190.27</course>
  <speed>6.990314728250796</speed>
  <fix>3d</fix>
</trkpt>
<trkpt lat="40.0714588" lon="-105.2290596">
  <ele>1583.0</ele>
  <time>2026-08-28T17:49:37Z</time>
  <course>189.63</course>
  <speed>7.0</speed>
  <fix>3d</fix>
</trkpt>
<trkpt lat="40.0714384" lon="-105.2290643">
  <ele>1583.19</ele>
  <time>2026-08-28T17:49:37Z</time>
  <course>190.27</course>
  <speed>7.0018640375260075</speed>
  <fix>3d</fix>
</trkpt>
<trkpt lat="40.0714464" lon="-105.2290623">
  <ele>1583.0</ele>
  <time>2026-08-28T17:49:37Z</time>
  <course>189.63</course>
  <speed>7.02</speed>
  <fix>3d</fix>
</trkpt>
<trkpt lat="40.0714322" lon="-105.2290656">
  <ele>1583.19</ele>
  <time>2026-08-28T17:49:37Z</time>
  <course>190.27</course>
  <speed>7.0117187621866295</speed>
  <fix>3d</fix>
</trkpt>
<trkpt lat="40.0714464" lon="-105.2290623">
  <ele>1583.0</ele>
  <time>2026-08-28T17:49:37Z</time>
  <course>189.63</course>
  <speed>7.02</speed>
  <fix>3d</fix>
</trkpt>
<trkpt lat="40.071426" lon="-105.229067">
  <ele>1583.19</ele>
  <time>2026-08-28T17:49:37Z</time>
  <course>190.28</course>
  <speed>7.0215738976386195</speed>
  <fix>3d</fix>
</trkpt>
<trkpt lat="40.071434" lon="-105.2290651">
  <ele>1583.0</ele>
  <time>2026-08-28T17:49:37Z</time>
  <course>189.63</course>
  <speed>7.03</speed>
  <fix>3d</fix>
</trkpt>
<trkpt lat="40.0714197" lon="-105.2290684">
  <ele>1583.18</ele>
  <time>2026-08-28T17:49:37Z</time>
  <course>190.28</course>
  <speed>7.031429442154702</speed>
  <fix>3d</fix>
</trkpt>
<trkpt lat="40.071434" lon="-105.2290651">
  <ele>1583.0</ele>
  <time>2026-08-28T17:49:37Z</time>
  <course>189.63</course>
  <speed>7.03</speed>
  <fix>3d</fix>
</trkpt>
<trkpt lat="40.0714134" lon="-105.2290698">
  <ele>1583.18</ele>
  <time>2026-08-28T17:49:37Z</time>
  <course>190.29</course>
  <speed>7.031429442154702</speed>
  <fix>3d</fix>
</trkpt>
<trkpt lat="40.0714215" lon="-105.2290678">
  <ele>1583.0</ele>
  <time>2026-08-28T17:49:37Z</time>
  <course>189.63</course>
  <speed>7.05</speed>
  <fix>3d</fix>
</trkpt>
<trkpt lat="40.0714071" lon="-105.2290712">
  <ele>1583.18</ele>
  <time>2026-08-28T17:49:37Z</time>
  <course>190.29</course>
  <speed>7.041285394017203</speed>
  <fix>3d</fix>
</trkpt>
<trkpt lat="40.0714215" lon="-105.2290678">
  <ele>1583.0</ele>
  <time>2026-08-28T17:49:37Z</time>
  <course>189.63</course>
  <speed>7.05</speed>
  <fix>3d</fix>
</trkpt>
<trkpt lat="40.0714008" lon="-105.2290726">
  <ele>1583.18</ele>
  <time>2026-08-28T17:49:37Z</time>
  <course>190.29</course>
  <speed>7.051141751517977</speed>
  <fix>3d</fix>
</trkpt>
<trkpt lat="40.071409" lon="-105.2290707">
  <ele>1583.0</ele>
  <time>2026-08-28T17:49:37Z</time>
  <course>189.63</course>
  <speed>7.06</speed>
  <fix>3d</fix>
</trkpt>
<trkpt lat="40.0713945" lon="-105.229074">
  <ele>1583.18</ele>
  <time>2026-08-28T17:49:37Z</time>
  <course>190.3</course>
  <speed>7.060998512958348</speed>
  <fix>3d</fix>
</trkpt>
<trkpt lat="40.071409" lon="-105.2290707">
  <ele>1583.0</ele>
  <time>2026-08-28T17:49:37Z</time>
  <course>189.63</course>
  <speed>7.06</speed>
  <fix>3d</fix>
</trkpt>
<trkpt lat="40.0713882" lon="-105.2290754">
  <ele>1583.18</ele>
  <time>2026-08-28T17:49:37Z</time>
  <course>190.3</course>
  <speed>7.062690705389838</speed>
  <fix>3d</fix>
</trkpt>
<trkpt lat="40.0713965" lon="-105.2290734">
  <ele>1583.0</ele>
  <time>2026-08-28T17:49:37Z</time>
  <course>189.63</course>
  <speed>7.07</speed>
  <fix>3d</fix>
</trkpt>
<trkpt lat="40.0713819" lon="-105.2290768">
  <ele>1583.18</ele>
  <time>2026-08-28T17:49:37Z</time>
  <course>190.3</course>
  <speed>7.072545510634767</speed>
  <fix>3d</fix>
</trkpt>
<trkpt lat="40.0713965" lon="-105.2290734">
  <ele>1583.0</ele>
  <time>2026-08-28T17:49:37Z</time>
  <course>189.63</course>
  <speed>7.07</speed>
  <fix>3d</fix>
</trkpt>
<trkpt lat="40.0713756" lon="-105.2290782">
  <ele>1583.18</ele>
  <time>2026-08-28T17:49:37Z</time>
  <course>190.31</course>
  <speed>7.072545510634767</speed>
  <fix>3d</fix>
</trkpt>
<trkpt lat="40.071384" lon="-105.2290762">
  <ele>1583.0</ele>
  <time>2026-08-28T17:49:37Z</time>
  <course>189.63</course>
  <speed>7.09</speed>
  <fix>3d</fix>
</trkpt>
<trkpt lat="40.0713693" lon="-105.2290796">
  <ele>1583.18</ele>
  <time>2026-08-28T17:49:37Z</time>
  <course>190.31</course>
  <speed>7.082400722918748</speed>
  <fix>3d</fix>
</trkpt>
<trkpt lat="40.071384" lon="-105.2290762">
  <ele>1583.0</ele>
  <time>2026-08-28T17:49:37Z</time>
  <course>189.63</course>
  <speed>7.09</speed>
  <fix>3d</fix>
</trkpt>
<trkpt lat="40.071363" lon="-105.229081">
  <ele>1583.18</ele>
  <time>2026-08-28T17:49:37Z</time>
  <course>190.31</course>
  <speed>7.082400722918748</speed>
  <fix>3d</fix>
</trkpt>
<trkpt lat="40.071384" lon="-105.2290762">
  <ele>1583.0</ele>
  <time>2026-08-28T17:49:37Z</time>
  <course>189.63</course>
  <speed>7.09</speed>
  <fix>3d</fix>
</trkpt>
<trkpt lat="40.0713567" lon="-105.2290824">
  <ele>1583.18</ele>
  <time>2026-08-28T17:49:37Z</time>
  <course>190.32</course>
  <speed>7.062690705389838</speed>
  <fix>3d</fix>
</trkpt>
<trkpt lat="40.0713714" lon="-105.229079">
  <ele>1583.0</ele>
  <time>2026-08-28T17:49:37Z</time>
  <course>189.63</course>
  <speed>7.1</speed>
  <fix>3d</fix>
</trkpt>
<trkpt lat="40.0713505" lon="-105.2290838">
  <ele>1583.17</ele>
  <time>2026-08-28T17:49:37Z</time>
  <course>190.32</course>
  <speed>6.950892029085188</speed>
  <fix>3d</fix>
</trkpt>
<trkpt lat="40.0713714" lon="-105.229079">
  <ele>1583.0</ele>
  <time>2026-08-28T17:49:37Z</time>
  <course>189.63</course>
  <speed>7.1</speed>
  <fix>3d</fix>
</trkpt>
<trkpt lat="40.0713445" lon="-105.2290851">
  <ele>1583.17</ele>
  <time>2026-08-28T17:49:37Z</time>
  <course>190.32</course>
  <speed>6.73715073306216</speed>
  <fix>3d</fix>
</trkpt>
<trkpt lat="40.0713588" lon="-105.2290817">
  <ele>1583.0</ele>
  <time>2026-08-28T17:49:37Z</time>
  <course>189.63</course>
  <speed>7.04</speed>
  <fix>3d</fix>
</trkpt>
<trkpt lat="40.0713387" lon="-105.2290864">
  <ele>1583.17</ele>
  <time>2026-08-28T17:49:37Z</time>
  <course>190.32</course>
  <speed>6.442872030391416</speed>
  <fix>3d</fix>
</trkpt>
<trkpt lat="40.0713588" lon="-105.2290817">
  <ele>1583.0</ele>
  <time>2026-08-28T17:49:37Z</time>
  <course>189.63</course>
  <speed>7.04</speed>
  <fix>3d</fix>
</trkpt>
<trkpt lat="40.0713332" lon="-105.2290876">
  <ele>1583.17</ele>
  <time>2026-08-28T17:49:37Z</time>
  <course>190.33</course>
  <speed>6.117336021504785</speed>
  <fix>3d</fix>
</trkpt>
<trkpt lat="40.0713466" lon="-105.2290845">
  <ele>1583.0</ele>
  <time>2026-08-28T17:49:37Z</time>
  <course>189.63</course>
  <speed>6.72</speed>
  <fix>3d</fix>
</trkpt>
<trkpt lat="40.071328" lon="-105.2290887">
  <ele>1583.17</ele>
  <time>2026-08-28T17:49:37Z</time>
  <course>190.33</course>
  <speed>5.811523036175629</speed>
  <fix>3d</fix>
</trkpt>
<trkpt lat="40.0713466" lon="-105.2290845">
  <ele>1583.0</ele>
  <time>2026-08-28T17:49:37Z</time>
  <course>189.63</course>
  <speed>6.72</speed>
  <fix>3d</fix>
</trkpt>
<trkpt lat="40.071323" lon="-105.2290898">
  <ele>1583.17</ele>
  <time>2026-08-28T17:49:37Z</time>
  <course>190.33</course>
  <speed>5.517245689653489</speed>
  <fix>3d</fix>
</trkpt>
<trkpt lat="40.0713352" lon="-105.2290871">
  <ele>1583.0</ele>
  <time>2026-08-28T17:49:37Z</time>
  <course>189.63</course>
  <speed>6.16</speed>
  <fix>3d</fix>
</trkpt>
<trkpt lat="40.0713183" lon="-105.2290908">
  <ele>1583.17</ele>
  <time>2026-08-28T17:49:37Z</time>
  <course>190.33</course>
  <speed>5.24269014915053</speed>
  <fix>3d</fix>
</trkpt>
<trkpt lat="40.0713248" lon="-105.2290893">
  <ele>1583.0</ele>
  <time>2026-08-28T17:49:37Z</time>
  <course>189.63</course>
  <speed>5.58</speed>
  <fix>3d</fix>
</trkpt>
<trkpt lat="40.0713139" lon="-105.2290918">
  <ele>1583.18</ele>
  <time>2026-08-28T17:49:37Z</time>
  <course>190.34</course>
  <speed>4.979658622837514</speed>
  <fix>3d</fix>
</trkpt>
<trkpt lat="40.0713248" lon="-105.2290893">
  <ele>1583.0</ele>
  <time>2026-08-28T17:49:37Z</time>
  <course>189.63</course>
  <speed>5.58</speed>
  <fix>3d</fix>
</trkpt>
<trkpt lat="40.0713096" lon="-105.2290927">
  <ele>1583.18</ele>
  <time>2026-08-28T17:49:37Z</time>
  <course>190.34</course>
  <speed>4.724828039198886</speed>
  <fix>3d</fix>
</trkpt>
<trkpt lat="40.0713154" lon="-105.2290915">
  <ele>1583.0</ele>
  <time>2026-08-28T17:49:37Z</time>
  <course>189.63</course>
  <speed>5.05</speed>
  <fix>3d</fix>
</trkpt>
<trkpt lat="40.0713056" lon="-105.2290936">
  <ele>1583.18</ele>
  <time>2026-08-28T17:49:38Z</time>
  <course>190.34</course>
  <speed>4.491380634058975</speed>
  <fix>3d</fix>
</trkpt>
<trkpt lat="40.0713154" lon="-105.2290915">
  <ele>1583.0</ele>
  <time>2026-08-28T17:49:38Z</time>
  <course>189.63</course>
  <speed>5.05</speed>
  <fix>3d</fix>
</trkpt>
<trkpt lat="40.0713017" lon="-105.2290945">
  <ele>1583.18</ele>
  <time>2026-08-28T17:49:38Z</time>
  <course>190.34</course>
  <speed>4.267798027086099</speed>
  <fix>3d</fix>
</trkpt>
<trkpt lat="40.0713068" lon="-105.2290934">
  <ele>1583.0</ele>
  <time>2026-08-28T17:49:38Z</time>
  <course>189.63</course>
  <speed>4.57</speed>
  <fix>3d</fix>
</trkpt>
<trkpt lat="40.071298" lon="-105.2290953">
  <ele>1583.18</ele>
  <time>2026-08-28T17:49:38Z</time>
  <course>190.34</course>
  <speed>4.044218095009219</speed>
  <fix>3d</fix>
</trkpt>
<trkpt lat="40.0713068" lon="-105.2290934">
  <ele>1583.0</ele>
  <time>2026-08-28T17:49:38Z</time>
  <course>189.63</course>
  <speed>4.57</speed>
  <fix>3d</fix>
</trkpt>
<trkpt lat="40.0712945" lon="-105.2290961">
  <ele>1583.18</ele>
  <time>2026-08-28T17:49:38Z</time>
  <course>190.34</course>
  <speed>3.842004685057008</speed>
  <fix>3d</fix>
</trkpt>
<trkpt lat="40.0712991" lon="-105.2290951">
  <ele>1583.0</ele>
  <time>2026-08-28T17:49:38Z</time>
  <course>189.63</course>
  <speed>4.13</speed>
  <fix>3d</fix>
</trkpt>
<trkpt lat="40.0712911" lon="-105.2290968">
  <ele>1583.17</ele>
  <time>2026-08-28T17:49:38Z</time>
  <course>190.34</course>
  <speed>3.649657518178932</speed>
  <fix>3d</fix>
</trkpt>
<trkpt lat="40.0712991" lon="-105.2290951">
  <ele>1583.0</ele>
  <time>2026-08-28T17:49:38Z</time>
  <course>189.63</course>
  <speed>4.13</speed>
  <fix>3d</fix>
</trkpt>
<trkpt lat="40.071288" lon="-105.2290975">
  <ele>1583.17</ele>
  <time>2026-08-28T17:49:38Z</time>
  <course>190.35</course>
  <speed>3.4655446902326914</speed>
  <fix>3d</fix>
</trkpt>
<trkpt lat="40.0712922" lon="-105.2290965">
  <ele>1583.0</ele>
  <time>2026-08-28T17:49:38Z</time>
  <course>189.63</course>
  <speed>3.74</speed>
  <fix>3d</fix>
</trkpt>
<trkpt lat="40.071285" lon="-105.2290981">
  <ele>1583.17</ele>
  <time>2026-08-28T17:49:38Z</time>
  <course>190.35</course>
  <speed>3.283062594590606</speed>
  <fix>3d</fix>
</trkpt>
<trkpt lat="40.0712922" lon="-105.2290965">
  <ele>1583.0</ele>
  <time>2026-08-28T17:49:38Z</time>
  <course>189.63</course>
  <speed>3.74</speed>
  <fix>3d</fix>
</trkpt>
<trkpt lat="40.0712821" lon="-105.2290988">
  <ele>1583.18</ele>
  <time>2026-08-28T17:49:38Z</time>
  <course>190.35</course>
  <speed>3.1219385003551876</speed>
  <fix>3d</fix>
</trkpt>
<trkpt lat="40.0712859" lon="-105.2290979">
  <ele>1583.0</ele>
  <time>2026-08-28T17:49:38Z</time>
  <course>189.63</course>
  <speed>3.38</speed>
  <fix>3d</fix>
</trkpt>
<trkpt lat="40.0712794" lon="-105.2290993">
  <ele>1583.18</ele>
  <time>2026-08-28T17:49:38Z</time>
  <course>190.35</course>
  <speed>2.959189078109069</speed>
  <fix>3d</fix>
</trkpt>
<trkpt lat="40.0712859" lon="-105.2290979">
  <ele>1583.0</ele>
  <time>2026-08-28T17:49:38Z</time>
  <course>189.63</course>
  <speed>3.38</speed>
  <fix>3d</fix>
</trkpt>
<trkpt lat="40.0712768" lon="-105.2290999">
  <ele>1583.18</ele>
  <time>2026-08-28T17:49:38Z</time>
  <course>190.35</course>
  <speed>2.806314308839977</speed>
  <fix>3d</fix>
</trkpt>
<trkpt lat="40.0712802" lon="-105.2290993">
  <ele>1583.0</ele>
  <time>2026-08-28T17:49:38Z</time>
  <course>189.63</course>
  <speed>3.06</speed>
  <fix>3d</fix>
</trkpt>
<trkpt lat="40.0712743" lon="-105.2291004">
  <ele>1583.19</ele>
  <time>2026-08-28T17:49:38Z</time>
  <course>190.35</course>
  <speed>2.664920261471251</speed>
  <fix>3d</fix>
</trkpt>
<trkpt lat="40.0712802" lon="-105.2290993">
  <ele>1583.0</ele>
  <time>2026-08-28T17:49:38Z</time>
  <course>189.63</course>
  <speed>3.06</speed>
  <fix>3d</fix>
</trkpt>
<trkpt lat="40.071272" lon="-105.229101">
  <ele>1583.19</ele>
  <time>2026-08-28T17:49:38Z</time>
  <course>190.35</course>
  <speed>2.5333969290263223</speed>
  <fix>3d</fix>
</trkpt>
<trkpt lat="40.0712802" lon="-105.2290993">
  <ele>1583.0</ele>
  <time>2026-08-28T17:49:38Z</time>
  <course>189.63</course>
  <speed>3.06</speed>
  <fix>3d</fix>
</trkpt>
<trkpt lat="40.0712698" lon="-105.2291014">
  <ele>1583.19</ele>
  <time>2026-08-28T17:49:38Z</time>
  <course>190.35</course>
  <speed>2.401874268149771</speed>
  <fix>3d</fix>
</trkpt>
<trkpt lat="40.071275" lon="-105.2291004">
  <ele>1583.0</ele>
  <time>2026-08-28T17:49:38Z</time>
  <course>189.63</course>
  <speed>2.77</speed>
  <fix>3d</fix>
</trkpt>
<trkpt lat="40.0712677" lon="-105.2291019">
  <ele>1583.19</ele>
  <time>2026-08-28T17:49:38Z</time>
  <course>190.35</course>
  <speed>2.280219287700198</speed>
  <fix>3d</fix>
</trkpt>
<trkpt lat="40.071275" lon="-105.2291004">
  <ele>1583.0</ele>
  <time>2026-08-28T17:49:38Z</time>
  <course>189.63</course>
  <speed>2.77</speed>
  <fix>3d</fix>
</trkpt>
<trkpt lat="40.0712657" lon="-105.2291023">
  <ele>1583.19</ele>
  <time>2026-08-28T17:49:38Z</time>
  <course>190.35</course>
  <speed>2.158564337702261</speed>
  <fix>3d</fix>
</trkpt>
<trkpt lat="40.0712703" lon="-105.2291015">
  <ele>1583.0</ele>
  <time>2026-08-28T17:49:38Z</time>
  <course>189.63</course>
  <speed>2.5</speed>
  <fix>3d</fix>
</trkpt>
<trkpt lat="40.0712639" lon="-105.2291028">
  <ele>1583.19</ele>
  <time>2026-08-28T17:49:38Z</time>
  <course>190.35</course>
  <speed>2.0467779557147865</speed>
  <fix>3d</fix>
</trkpt>
<trkpt lat="40.0712703" lon="-105.2291015">
  <ele>1583.0</ele>
  <time>2026-08-28T17:49:38Z</time>
  <course>189.63</course>
  <speed>2.5</speed>
  <fix>3d</fix>
</trkpt>
<trkpt lat="40.0712621" lon="-105.2291032">
  <ele>1583.19</ele>
  <time>2026-08-28T17:49:38Z</time>
  <course>190.35</course>
  <speed>1.936620768245554</speed>
  <fix>3d</fix>
</trkpt>
<trkpt lat="40.0712661" lon="-105.2291023">
  <ele>1583.0</ele>
  <time>2026-08-28T17:49:38Z</time>
  <course>189.63</course>
  <speed>2.26</speed>
  <fix>3d</fix>
</trkpt>
<trkpt lat="40.0712604" lon="-105.2291035">
  <ele>1583.19</ele>
  <time>2026-08-28T17:49:38Z</time>
  <course>190.35</course>
  <speed>1.8346934348822421</speed>
  <fix>3d</fix>
</trkpt>
<trkpt lat="40.0712623" lon="-105.2291032">
  <ele>1583.0</ele>
  <time>2026-08-28T17:49:38Z</time>
  <course>189.63</course>
  <speed>2.05</speed>
  <fix>3d</fix>
</trkpt>
<trkpt lat="40.0712587" lon="-105.2291039">
  <ele>1583.19</ele>
  <time>2026-08-28T17:49:38Z</time>
  <course>190.35</course>
  <speed>1.7442763542512407</speed>
  <fix>3d</fix>
</trkpt>
<trkpt lat="40.0712623" lon="-105.2291032">
  <ele>1583.0</ele>
  <time>2026-08-28T17:49:38Z</time>
  <course>189.63</course>
  <speed>2.05</speed>
  <fix>3d</fix>
</trkpt>
<trkpt lat="40.0712572" lon="-105.2291043">
  <ele>1583.19</ele>
  <time>2026-08-28T17:49:38Z</time>
  <course>190.35</course>
  <speed>1.6522106403240477</speed>
  <fix>3d</fix>
</trkpt>
<trkpt lat="40.0712588" lon="-105.229104">
  <ele>1583.0</ele>
  <time>2026-08-28T17:49:38Z</time>
  <course>189.63</course>
  <speed>1.85</speed>
  <fix>3d</fix>
</trkpt>
<trkpt lat="40.0712557" lon="-105.2291046">
  <ele>1583.19</ele>
  <time>2026-08-28T17:49:38Z</time>
  <course>190.35</course>
  <speed>1.5716551784663197</speed>
  <fix>3d</fix>
</trkpt>
<trkpt lat="40.0712588" lon="-105.229104">
  <ele>1583.0</ele>
  <time>2026-08-28T17:49:38Z</time>
  <course>189.63</course>
  <speed>1.85</speed>
  <fix>3d</fix>
</trkpt>
<trkpt lat="40.0712543" lon="-105.2291049">
  <ele>1583.19</ele>
  <time>2026-08-28T17:49:38Z</time>
  <course>190.35</course>
  <speed>1.4911069713471263</speed>
  <fix>3d</fix>
</trkpt>
<trkpt lat="40.0712556" lon="-105.2291046">
  <ele>1583.0</ele>
  <time>2026-08-28T17:49:38Z</time>
  <course>189.63</course>
  <speed>1.68</speed>
  <fix>3d</fix>
</trkpt>
<trkpt lat="40.0712529" lon="-105.2291052">
  <ele>1583.19</ele>
  <time>2026-08-28T17:49:38Z</time>
  <course>190.36</course>
  <speed>1.4105672617780407</speed>
  <fix>3d</fix>
</trkpt>
<trkpt lat="40.0712556" lon="-105.2291046">
  <ele>1583.0</ele>
  <time>2026-08-28T17:49:38Z</time>
  <course>189.63</course>
  <speed>1.68</speed>
  <fix>3d</fix>
</trkpt>
<trkpt lat="40.0712517" lon="-105.2291055">
  <ele>1583.19</ele>
  <time>2026-08-28T17:49:38Z</time>
  <course>190.36</course>
  <speed>1.338207756665608</speed>
  <fix>3d</fix>
</trkpt>
<trkpt lat="40.0712529" lon="-105.2291052">
  <ele>1583.0</ele>
  <time>2026-08-28T17:49:38Z</time>
  <course>189.63</course>
  <speed>1.52</speed>
  <fix>3d</fix>
</trkpt>
<trkpt lat="40.0712504" lon="-105.2291058">
  <ele>1583.19</ele>
  <time>2026-08-28T17:49:38Z</time>
  <course>190.36</course>
  <speed>1.2675172582651488</speed>
  <fix>3d</fix>
</trkpt>
<trkpt lat="40.0712529" lon="-105.2291052">
  <ele>1583.0</ele>
  <time>2026-08-28T17:49:38Z</time>
  <course>189.63</course>
  <speed>1.52</speed>
  <fix>3d</fix>
</trkpt>
<trkpt lat="40.0712493" lon="-105.229106">
  <ele>1583.19</ele>
  <time>2026-08-28T17:49:38Z</time>
  <course>190.36</course>
  <speed>1.2083873551142448</speed>
  <fix>3d</fix>
</trkpt>
<trkpt lat="40.0712503" lon="-105.2291058">
  <ele>1583.0</ele>
  <time>2026-08-28T17:49:38Z</time>
  <course>189.63</course>
  <speed>1.37</speed>
  <fix>3d</fix>
</trkpt>
<trkpt lat="40.0712482" lon="-105.2291063">
  <ele>1583.18</ele>
  <time>2026-08-28T17:49:38Z</time>
  <course>190.37</course>
  <speed>1.1377170122662315</speed>
  <fix>3d</fix>
</trkpt>
<trkpt lat="40.0712503" lon="-105.2291058">
  <ele>1583.0</ele>
  <time>2026-08-28T17:49:38Z</time>
  <course>189.63</course>
  <speed>1.37</speed>
  <fix>3d</fix>
</trkpt>
<trkpt lat="40.0712471" lon="-105.2291065">
  <ele>1583.18</ele>
  <time>2026-08-28T17:49:38Z</time>
  <course>190.37</course>
  <speed>1.0867382389517726</speed>
  <fix>3d</fix>
</trkpt>
<trkpt lat="40.071248" lon="-105.2291064">
  <ele>1583.0</ele>
  <time>2026-08-28T17:49:38Z</time>
  <course>189.63</course>
  <speed>1.24</speed>
  <fix>3d</fix>
</trkpt>
<trkpt lat="40.0712461" lon="-105.2291068">
  <ele>1583.18</ele>
  <time>2026-08-28T17:49:38Z</time>
  <course>190.37</course>
  <speed>1.0259142264341596</speed>
  <fix>3d</fix>
</trkpt>
<trkpt lat="40.071248" lon="-105.2291064">
  <ele>1583.0</ele>
  <time>2026-08-28T17:49:38Z</time>
  <course>189.63</course>
  <speed>1.24</speed>
  <fix>3d</fix>
</trkpt>
<trkpt lat="40.0712452" lon="-105.229107">
  <ele>1583.18</ele>
  <time>2026-08-28T17:49:38Z</time>
  <course>190.37</course>
  <speed>0.9749358953285082</speed>
  <fix>3d</fix>
</trkpt>
<trkpt lat="40.0712458" lon="-105.2291068">
  <ele>1583.0</ele>
  <time>2026-08-28T17:49:38Z</time>
  <course>189.63</course>
  <speed>1.12</speed>
  <fix>3d</fix>
</trkpt>
<trkpt lat="40.0712443" lon="-105.2291072">
  <ele>1583.19</ele>
  <time>2026-08-28T17:49:38Z</time>
  <course>190.38</course>
  <speed>0.9257429448826494</speed>
  <fix>3d</fix>
</trkpt>
<trkpt lat="40.0712458" lon="-105.2291068">
  <ele>1583.0</ele>
  <time>2026-08-28T17:49:38Z</time>
  <course>189.63</course>
  <speed>1.12</speed>
  <fix>3d</fix>
</trkpt>
<trkpt lat="40.0712434" lon="-105.2291074">
  <ele>1583.19</ele>
  <time>2026-08-28T17:49:38Z</time>
  <course>190.38</course>
  <speed>0.8747571091451616</speed>
  <fix>3d</fix>
</trkpt>
<trkpt lat="40.0712458" lon="-105.2291068">
  <ele>1583.0</ele>
  <time>2026-08-28T17:49:38Z</time>
  <course>189.63</course>
  <speed>1.12</speed>
  <fix>3d</fix>
</trkpt>
<trkpt lat="40.0712426" lon="-105.2291076">
  <ele>1583.19</ele>
  <time>2026-08-28T17:49:38Z</time>
  <course>190.82</course>
  <speed>0.8256512580987205</speed>
  <fix>3d</fix>
</trkpt>
<trkpt lat="40.0712439" lon="-105.2291073">
  <ele>1583.0</ele>
  <time>2026-08-28T17:49:38Z</time>
  <course>189.63</course>
  <speed>1.01</speed>
  <fix>3d</fix>
</trkpt>
<trkpt lat="40.0712418" lon="-105.2291078">
  <ele>1583.19</ele>
  <time>2026-08-28T17:49:38Z</time>
  <course>193.0</course>
  <speed>0.7833900688673555</speed>
  <fix>3d</fix>
</trkpt>
<trkpt lat="40.0712439" lon="-105.2291073">
  <ele>1583.0</ele>
  <time>2026-08-28T17:49:38Z</time>
  <course>189.63</course>
  <speed>1.01</speed>
  <fix>3d</fix>
</trkpt>
<trkpt lat="40.0712411" lon="-105.2291081">
  <ele>1583.19</ele>
  <time>2026-08-28T17:49:38Z</time>
  <course>195.08</course>
  <speed>0.7692203845452874</speed>
  <fix>3d</fix>
</trkpt>
<trkpt lat="40.0712422" lon="-105.2291076">
  <ele>1583.0</ele>
  <time>2026-08-28T17:49:38Z</time>
  <course>190.89</course>
  <speed>0.92</speed>
  <fix>3d</fix>
</trkpt>
<trkpt lat="40.0712404" lon="-105.2291084">
  <ele>1583.19</ele>
  <time>2026-08-28T17:49:38Z</time>
  <course>197.15</course>
  <speed>0.771621668954417</speed>
  <fix>3d</fix>
</trkpt>
<trkpt lat="40.0712422" lon="-105.2291076">
  <ele>1583.0</ele>
  <time>2026-08-28T17:49:38Z</time>
  <course>190.89</course>
  <speed>0.92</speed>
  <fix>3d</fix>
</trkpt>
<trkpt lat="40.0712396" lon="-105.2291087">
  <ele>1583.19</ele>
  <time>2026-08-28T17:49:38Z</time>
  <course>199.2</course>
  <speed>0.7725283166331187</speed>
  <fix>3d</fix>
</trkpt>
<trkpt lat="40.0712407" lon="-105.2291081">
  <ele>1583.0</ele>
  <time>2026-08-28T17:49:38Z</time>
  <course>194.32</course>
  <speed>0.86</speed>
  <fix>3d</fix>
</trkpt>
<trkpt lat="40.0712389" lon="-105.229109">
  <ele>1583.19</ele>
  <time>2026-08-28T17:49:38Z</time>
  <course>201.26</course>
  <speed>0.7747257579298626</speed>
  <fix>3d</fix>
</trkpt>
<trkpt lat="40.0712407" lon="-105.2291081">
  <ele>1583.0</ele>
  <time>2026-08-28T17:49:38Z</time>
  <course>194.32</course>
  <speed>0.86</speed>
  <fix>3d</fix>
</trkpt>
<trkpt lat="40.0712382" lon="-105.2291094">
  <ele>1583.19</ele>
  <time>2026-08-28T17:49:38Z</time>
  <course>203.32</course>
  <speed>0.7692203845452874</speed>
  <fix>3d</fix>
</trkpt>
<trkpt lat="40.0712393" lon="-105.2291087">
  <ele>1583.0</ele>
  <time>2026-08-28T17:49:38Z</time>
  <course>198.47</course>
  <speed>0.84</speed>
  <fix>3d</fix>
</trkpt>
<trkpt lat="40.0712376" lon="-105.2291098">
  <ele>1583.19</ele>
  <time>2026-08-28T17:49:38Z</time>
  <course>205.36</course>
  <speed>0.7741446893184762</speed>
  <fix>3d</fix>
</trkpt>
<trkpt lat="40.0712379" lon="-105.2291094">
  <ele>1583.0</ele>
  <time>2026-08-28T17:49:38Z</time>
  <course>202.56</course>
  <speed>0.84</speed>
  <fix>3d</fix>
</trkpt>
<trkpt lat="40.0712369" lon="-105.2291103">
  <ele>1583.19</ele>
  <time>2026-08-28T17:49:38Z</time>
  <course>207.39</course>
  <speed>0.7752418977325722</speed>
  <fix>3d</fix>
</trkpt>
<trkpt lat="40.0712379" lon="-105.2291094">
  <ele>1583.0</ele>
  <time>2026-08-28T17:49:38Z</time>
  <course>202.56</course>
  <speed>0.84</speed>
  <fix>3d</fix>
</trkpt>
<trkpt lat="40.0712362" lon="-105.2291108">
  <ele>1583.19</ele>
  <time>2026-08-28T17:49:38Z</time>
  <course>209.41</course>
  <speed>0.7823042886243178</speed>
  <fix>3d</fix>
</trkpt>
<trkpt lat="40.0712365" lon="-105.2291102">
  <ele>1583.0</ele>
  <time>2026-08-28T17:49:38Z</time>
  <course>206.64</course>
  <speed>0.83</speed>
  <fix>3d</fix>
</trkpt>
<trkpt lat="40.0712356" lon="-105.2291113">
  <ele>1583.2</ele>
  <time>2026-08-28T17:49:38Z</time>
  <course>211.43</course>
  <speed>0.7823681997627461</speed>
  <fix>3d</fix>
</trkpt>
<trkpt lat="40.0712365" lon="-105.2291102">
  <ele>1583.0</ele>
  <time>2026-08-28T17:49:38Z</time>
  <course>206.64</course>
  <speed>0.83</speed>
  <fix>3d</fix>
</trkpt>
<trkpt lat="40.0712349" lon="-105.2291118">
  <ele>1583.19</ele>
  <time>2026-08-28T17:49:38Z</time>
  <course>213.45</course>
  <speed>0.7920227269466451</speed>
  <fix>3d</fix>
</trkpt>
<trkpt lat="40.0712351" lon="-105.2291111">
  <ele>1583.0</ele>
  <time>2026-08-28T17:49:38Z</time>
  <course>210.7</course>
  <speed>0.83</speed>
  <fix>3d</fix>
</trkpt>
<trkpt lat="40.0712343" lon="-105.2291124">
  <ele>1583.19</ele>
  <time>2026-08-28T17:49:38Z</time>
  <course>215.47</course>
  <speed>0.7887331614684399</speed>
  <fix>3d</fix>
</trkpt>
<trkpt lat="40.0712351" lon="-105.2291111">
  <ele>1583.0</ele>
  <time>2026-08-28T17:49:38Z</time>
  <course>210.7</course>
  <speed>0.83</speed>
  <fix>3d</fix>
</trkpt>
<trkpt lat="40.0712337" lon="-105.229113">
  <ele>1583.19</ele>
  <time>2026-08-28T17:49:38Z</time>
  <course>217.49</course>
  <speed>0.7930952023559341</speed>
  <fix>3d</fix>
</trkpt>
<trkpt lat="40.0712338" lon="-105.2291122">
  <ele>1583.0</ele>
  <time>2026-08-28T17:49:38Z</time>
  <course>214.73</course>
  <speed>0.83</speed>
  <fix>3d</fix>
</trkpt>
<trkpt lat="40.0712331" lon="-105.2291136">
  <ele>1583.19</ele>
  <time>2026-08-28T17:49:38Z</time>
  <course>219.5</course>
  <speed>0.7993122043357026</speed>
  <fix>3d</fix>
</trkpt>
<trkpt lat="40.0712338" lon="-105.2291122">
  <ele>1583.0</ele>
  <time>2026-08-28T17:49:38Z</time>
  <course>214.73</course>
  <speed>0.83</speed>
  <fix>3d</fix>
</trkpt>
<trkpt lat="40.0712325" lon="-105.2291143">
  <ele>1583.19</ele>
  <time>2026-08-28T17:49:38Z</time>
  <course>221.51</course>
  <speed>0.7990619500389191</speed>
  <fix>3d</fix>
</trkpt>
<trkpt lat="40.0712326" lon="-105.2291133">
  <ele>1583.0</ele>
  <time>2026-08-28T17:49:38Z</time>
  <course>218.76</course>
  <speed>0.82</speed>
  <fix>3d</fix>
</trkpt>
<trkpt lat="40.0712319" lon="-105.229115">
  <ele>1583.19</ele>
  <time>2026-08-28T17:49:38Z</time>
  <course>223.51</course>
  <speed>0.7998124780221925</speed>
  <fix>3d</fix>
</trkpt>
<trkpt lat="40.0712326" lon="-105.2291133">
  <ele>1583.0</ele>
  <time>2026-08-28T17:49:38Z</time>
  <course>218.76</course>
  <speed>0.82</speed>
  <fix>3d</fix>
</trkpt>
<trkpt lat="40.0712314" lon="-105.2291157">
  <ele>1583.19</ele>
  <time>2026-08-28T17:49:38Z</time>
  <course>225.5</course>
  <speed>0.8015609770940699</speed>
  <fix>3d</fix>
</trkpt>
<trkpt lat="40.0712315" lon="-105.2291146">
  <ele>1583.0</ele>
  <time>2026-08-28T17:49:38Z</time>
  <course>222.76</course>
  <speed>0.82</speed>
  <fix>3d</fix>
</trkpt>
<trkpt lat="40.0712308" lon="-105.2291164">
  <ele>1583.18</ele>
  <time>2026-08-28T17:49:38Z</time>
  <course>227.5</course>
  <speed>0.8105553651663777</speed>
  <fix>3d</fix>
</trkpt>
<trkpt lat="40.0712315" lon="-105.2291146">
  <ele>1583.0</ele>
  <time>2026-08-28T17:49:38Z</time>
  <course>222.76</course>
  <speed>0.82</speed>
  <fix>3d</fix>
</trkpt>
<trkpt lat="40.0712303" lon="-105.2291171">
  <ele>1583.18</ele>
  <time>2026-08-28T17:49:38Z</time>
  <course>229.49</course>
  <speed>0.8140024569987488</speed>
  <fix>3d</fix>
</trkpt>
<trkpt lat="40.0712305" lon="-105.2291159">
  <ele>1583.0</ele>
  <time>2026-08-28T17:49:38Z</time>
  <course>226.76</course>
  <speed>0.82</speed>
  <fix>3d</fix>
</trkpt>
<trkpt lat="40.0712298" lon="-105.2291179">
  <ele>1583.18</ele>
  <time>2026-08-28T17:49:38Z</time>
  <course>231.47</course>
  <speed>0.8184130986244049</speed>
  <fix>3d</fix>
</trkpt>
<trkpt lat="40.0712305" lon="-105.2291159">
  <ele>1583.0</ele>
  <time>2026-08-28T17:49:38Z</time>
  <course>226.76</course>
  <speed>0.82</speed>
  <fix>3d</fix>
</trkpt>
<trkpt lat="40.0712294" lon="-105.2291187">
  <ele>1583.18</ele>
  <time>2026-08-28T17:49:38Z</time>
  <course>233.46</course>
  <speed>0.8183520025025907</speed>
  <fix>3d</fix>
</trkpt>
<trkpt lat="40.0712305" lon="-105.2291159">
  <ele>1583.0</ele>
  <time>2026-08-28T17:49:38Z</time>
  <course>226.76</course>
  <speed>0.82</speed>
  <fix>3d</fix>
</trkpt>
<trkpt lat="40.0712289" lon="-105.2291195">
  <ele>1583.18</ele>
  <time>2026-08-28T17:49:38Z</time>
  <course>235.44</course>
  <speed>0.8249242389456137</speed>
  <fix>3d</fix>
</trkpt>
<trkpt lat="40.0712295" lon="-105.2291174">
  <ele>1583.0</ele>
  <time>2026-08-28T17:49:38Z</time>
  <course>230.75</course>
  <speed>0.82</speed>
  <fix>3d</fix>
</trkpt>
<trkpt lat="40.0712285" lon="-105.2291203">
  <ele>1583.18</ele>
  <time>2026-08-28T17:49:38Z</time>
  <course>237.42</course>
  <speed>0.8236504112789601</speed>
  <fix>3d</fix>
</trkpt>
<trkpt lat="40.0712295" lon="-105.2291174">
  <ele>1583.0</ele>
  <time>2026-08-28T17:49:38Z</time>
  <course>230.75</course>
  <speed>0.82</speed>
  <fix>3d</fix>
</trkpt>
<trkpt lat="40.0712281" lon="-105.2291211">
  <ele>1583.18</ele>
  <time>2026-08-28T17:49:38Z</time>
  <course>239.39</course>
  <speed>0.8229823813423954</speed>
  <fix>3d</fix>
</trkpt>
<trkpt lat="40.0712286" lon="-105.229119">
  <ele>1583.0</ele>
  <time>2026-08-28T17:49:38Z</time>
  <course>234.73</course>
  <speed>0.81</speed>
  <fix>3d</fix>
</trkpt>
<trkpt lat="40.0712277" lon="-105.2291219">
  <ele>1583.18</ele>
  <time>2026-08-28T17:49:38Z</time>
  <course>241.37</course>
  <speed>0.8319254774317228</speed>
  <fix>3d</fix>
</trkpt>
<trkpt lat="40.0712286" lon="-105.229119">
  <ele>1583.0</ele>
  <time>2026-08-28T17:49:38Z</time>
  <course>234.73</course>
  <speed>0.81</speed>
  <fix>3d</fix>
</trkpt>
<trkpt lat="40.0712274" lon="-105.2291228">
  <ele>1583.18</ele>
  <time>2026-08-28T17:49:38Z</time>
  <course>243.34</course>
  <speed>0.8285529554590945</speed>
  <fix>3d</fix>
</trkpt>
<trkpt lat="40.0712278" lon="-105.2291205">
  <ele>1583.0</ele>
  <time>2026-08-28T17:49:38Z</time>
  <course>238.7</course>
  <speed>0.81</speed>
  <fix>3d</fix>
</trkpt>
<trkpt lat="40.0712271" lon="-105.2291236">
  <ele>1583.18</ele>
  <time>2026-08-28T17:49:38Z</time>
  <course>245.33</course>
  <speed>0.8300602387778854</speed>
  <fix>3d</fix>
</trkpt>
<trkpt lat="40.0712271" lon="-105.2291222">
  <ele>1583.0</ele>
  <time>2026-08-28T17:49:38Z</time>
  <course>242.65</course>
  <speed>0.81</speed>
  <fix>3d</fix>
</trkpt>
<trkpt lat="40.0712267" lon="-105.2291245">
  <ele>1583.18</ele>
  <time>2026-08-28T17:49:38Z</time>
  <course>247.3</course>
  <speed>0.8287339742040264</speed>
  <fix>3d</fix>
</trkpt>
<trkpt lat="40.0712271" lon="-105.2291222">
  <ele>1583.0</ele>
  <time>2026-08-28T17:49:38Z</time>
  <course>242.65</course>
  <speed>0.81</speed>
  <fix>3d</fix>
</trkpt>
<trkpt lat="40.0712265" lon="-105.2291254">
  <ele>1583.18</ele>
  <time>2026-08-28T17:49:38Z</time>
  <course>249.26</course>
  <speed>0.8316850365372699</speed>
  <fix>3d</fix>
</trkpt>
<trkpt lat="40.0712264" lon="-105.229124">
  <ele>1583.0</ele>
  <time>2026-08-28T17:49:38Z</time>
  <course>246.6</course>
  <speed>0.81</speed>
  <fix>3d</fix>
</trkpt>
<trkpt lat="40.0712262" lon="-105.2291263">
  <ele>1583.18</ele>
  <time>2026-08-28T17:49:38Z</time>
  <course>251.21</course>
  <speed>0.8324061508662703</speed>
  <fix>3d</fix>
</trkpt>
<trkpt lat="40.0712264" lon="-105.229124">
  <ele>1583.0</ele>
  <time>2026-08-28T17:49:38Z</time>
  <course>246.6</course>
  <speed>0.81</speed>
  <fix>3d</fix>
</trkpt>
<trkpt lat="40.071226" lon="-105.2291272">
  <ele>1583.18</ele>
  <time>2026-08-28T17:49:38Z</time>
  <course>253.18</course>
  <speed>0.8367795408588812</speed>
  <fix>3d</fix>
</trkpt>
<trkpt lat="40.0712259" lon="-105.2291257">
  <ele>1583.0</ele>
  <time>2026-08-28T17:49:38Z</time>
  <course>250.54</course>
  <speed>0.81</speed>
  <fix>3d</fix>
</trkpt>
<trkpt lat="40.0712257" lon="-105.2291281">
  <ele>1583.18</ele>
  <time>2026-08-28T17:49:38Z</time>
  <course>255.14</course>
  <speed>0.8297590011563598</speed>
  <fix>3d</fix>
</trkpt>
<trkpt lat="40.0712259" lon="-105.2291257">
  <ele>1583.0</ele>
  <time>2026-08-28T17:49:38Z</time>
  <course>250.54</course>
  <speed>0.81</speed>
  <fix>3d</fix>
</trkpt>
<trkpt lat="40.0712255" lon="-105.2291291">
  <ele>1583.18</ele>
  <time>2026-08-28T17:49:38Z</time>
  <course>257.1</course>
  <speed>0.8354639429682169</speed>
  <fix>3d</fix>
</trkpt>
<trkpt lat="40.0712255" lon="-105.2291276">
  <ele>1583.0</ele>
  <time>2026-08-28T17:49:38Z</time>
  <course>254.47</course>
  <speed>0.81</speed>
  <fix>3d</fix>
</trkpt>
<trkpt lat="40.0712254" lon="-105.22913">
  <ele>1583.18</ele>
  <time>2026-08-28T17:49:38Z</time>
  <course>259.07</course>
  <speed>0.840119039184329</speed>
  <fix>3d</fix>
</trkpt>
<trkpt lat="40.0712255" lon="-105.2291276">
  <ele>1583.0</ele>
  <time>2026-08-28T17:49:38Z</time>
  <course>254.47</course>
  <speed>0.81</speed>
  <fix>3d</fix>
</trkpt>
<trkpt lat="40.0712252" lon="-105.2291309">
  <ele>1583.18</ele>
  <time>2026-08-28T17:49:38Z</time>
  <course>261.03</course>
  <speed>0.8372574275573791</speed>
  <fix>3d</fix>
</trkpt>
<trkpt lat="40.0712252" lon="-105.2291294">
  <ele>1583.0</ele>
  <time>2026-08-28T17:49:38Z</time>
  <course>258.4</course>
  <speed>0.81</speed>
  <fix>3d</fix>
</trkpt>
<trkpt lat="40.0712251" lon="-105.2291319">
  <ele>1583.18</ele>
  <time>2026-08-28T17:49:38Z</time>
  <course>262.99</course>
  <speed>0.8338465086573187</speed>
  <fix>3d</fix>
</trkpt>
<trkpt lat="40.0712252" lon="-105.2291294">
  <ele>1583.0</ele>
  <time>2026-08-28T17:49:38Z</time>
  <course>258.4</course>
  <speed>0.81</speed>
  <fix>3d</fix>
</trkpt>
<trkpt lat="40.071225" lon="-105.2291328">
  <ele>1583.17</ele>
  <time>2026-08-28T17:49:38Z</time>
  <course>264.95</course>
  <speed>0.8315046602394962</speed>
  <fix>3d</fix>
</trkpt>
<trkpt lat="40.071225" lon="-105.2291313">
  <ele>1583.0</ele>
  <time>2026-08-28T17:49:38Z</time>
  <course>262.32</course>
  <speed>0.8</speed>
  <fix>3d</fix>
</trkpt>
<trkpt lat="40.071225" lon="-105.2291338">
  <ele>1583.17</ele>
  <time>2026-08-28T17:49:38Z</time>
  <course>266.9</course>
  <speed>0.840535543567314</speed>
  <fix>3d</fix>
</trkpt>
<trkpt lat="40.071225" lon="-105.2291313">
  <ele>1583.0</ele>
  <time>2026-08-28T17:49:38Z</time>
  <course>262.32</course>
  <speed>0.8</speed>
  <fix>3d</fix>
</trkpt>
<trkpt lat="40.071225" lon="-105.2291347">
  <ele>1583.17</ele>
  <time>2026-08-28T17:49:38Z</time>
  <course>268.86</course>
  <speed>0.84</speed>
  <fix>3d</fix>
</trkpt>
<trkpt lat="40.0712248" lon="-105.2291332">
  <ele>1583.0</ele>
  <time>2026-08-28T17:49:38Z</time>
  <course>266.24</course>
  <speed>0.8</speed>
  <fix>3d</fix>
</trkpt>
<trkpt lat="40.0712249" lon="-105.2291357">
  <ele>1583.17</ele>
  <time>2026-08-28T17:49:38Z</time>
  <course>270.81</course>
  <speed>0.8302409288875127</speed>
  <fix>3d</fix>
</trkpt>
<trkpt lat="40.0712248" lon="-105.2291332">
  <ele>1583.0</ele>
  <time>2026-08-28T17:49:38Z</time>
  <course>266.24</course>
  <speed>0.8</speed>
  <fix>3d</fix>
</trkpt>
<trkpt lat="40.071225" lon="-105.2291366">
  <ele>1583.18</ele>
  <time>2026-08-28T17:49:38Z</time>
  <course>272.76</course>
  <speed>0.8309632964216891</speed>
  <fix>3d</fix>
</trkpt>
<trkpt lat="40.0712248" lon="-105.2291332">
  <ele>1583.0</ele>
  <time>2026-08-28T17:49:38Z</time>
  <course>266.24</course>
  <speed>0.8</speed>
  <fix>3d</fix>
</trkpt>
<trkpt lat="40.071225" lon="-105.2291376">
  <ele>1583.18</ele>
  <time>2026-08-28T17:49:38Z</time>
  <course>274.71</course>
  <speed>0.8329465769183519</speed>
  <fix>3d</fix>
</trkpt>
<trkpt lat="40.0712247" lon="-105.2291351">
  <ele>1583.0</ele>
  <time>2026-08-28T17:49:38Z</time>
  <course>270.16</course>
  <speed>0.8</speed>
  <fix>3d</fix>
</trkpt>
<trkpt lat="40.071225" lon="-105.2291385">
  <ele>1583.17</ele>
  <time>2026-08-28T17:49:38Z</time>
  <course>276.66</course>
  <speed>0.8360023923410747</speed>
  <fix>3d</fix>
</trkpt>
<trkpt lat="40.0712247" lon="-105.2291351">
  <ele>1583.0</ele>
  <time>2026-08-28T17:49:38Z</time>
  <course>270.16</course>
  <speed>0.8</speed>
  <fix>3d</fix>
</trkpt>
<trkpt lat="40.071225" lon="-105.2291394">
  <ele>1583.17</ele>
  <time>2026-08-28T17:49:38Z</time>
  <course>278.61</course>
  <speed>0.8188406438373709</speed>
  <fix>3d</fix>
</trkpt>
<trkpt lat="40.0712247" lon="-105.229137">
  <ele>1583.0</ele>
  <time>2026-08-28T17:49:38Z</time>
  <course>274.08</course>
  <speed>0.8</speed>
  <fix>3d</fix>
</trkpt>
<trkpt lat="40.0712252" lon="-105.2291403">
  <ele>1583.17</ele>
  <time>2026-08-28T17:49:38Z</time>
  <course>280.48</course>
  <speed>0.7727871634544663</speed>
  <fix>3d</fix>
</trkpt>
<trkpt lat="40.0712247" lon="-105.229137">
  <ele>1583.0</ele>
  <time>2026-08-28T17:49:38Z</time>
  <course>274.08</course>
  <speed>0.8</speed>
  <fix>3d</fix>
</trkpt>
<trkpt lat="40.0712253" lon="-105.2291412">
  <ele>1583.17</ele>
  <time>2026-08-28T17:49:38Z</time>
  <course>280.85</course>
  <speed>0.7433034373659253</speed>
  <fix>3d</fix>
</trkpt>
<trkpt lat="40.0712249" lon="-105.2291389">
  <ele>1583.0</ele>
  <time>2026-08-28T17:49:38Z</time>
  <course>277.88</course>
  <speed>0.78</speed>
  <fix>3d</fix>
</trkpt>
<trkpt lat="40.0712254" lon="-105.229142">
  <ele>1583.17</ele>
  <time>2026-08-28T17:49:38Z</time>
  <course>280.85</course>
  <speed>0.7021395872616784</speed>
  <fix>3d</fix>
</trkpt>
<trkpt lat="40.0712251" lon="-105.2291406">
  <ele>1583.0</ele>
  <time>2026-08-28T17:49:38Z</time>
  <course>280.02</course>
  <speed>0.71</speed>
  <fix>3d</fix>
</trkpt>
<trkpt lat="40.0712255" lon="-105.2291427">
  <ele>1583.17</ele>
  <time>2026-08-28T17:49:38Z</time>
  <course>280.85</course>
  <speed>0.692314957226839</speed>
  <fix>3d</fix>
</trkpt>
<trkpt lat="40.0712251" lon="-105.2291406">
  <ele>1583.0</ele>
  <time>2026-08-28T17:49:38Z</time>
  <course>280.02</course>
  <speed>0.71</speed>
  <fix>3d</fix>
</trkpt>
<trkpt lat="40.0712256" lon="-105.2291435">
  <ele>1583.17</ele>
  <time>2026-08-28T17:49:38Z</time>
  <course>280.84</course>
  <speed>0.7727871634544663</speed>
  <fix>3d</fix>
</trkpt>
<trkpt lat="40.0712252" lon="-105.2291423">
  <ele>1583.0</ele>
  <time>2026-08-28T17:49:38Z</time>
  <course>280.2</course>
  <speed>0.72</speed>
  <fix>3d</fix>
</trkpt>
<trkpt lat="40.0712257" lon="-105.2291445">
  <ele>1583.17</ele>
  <time>2026-08-28T17:49:38Z</time>
  <course>280.84</course>
  <speed>0.9454099639838793</speed>
  <fix>3d</fix>
</trkpt>
<trkpt lat="40.0712252" lon="-105.2291423">
  <ele>1583.0</ele>
  <time>2026-08-28T17:49:38Z</time>
  <course>280.2</course>
  <speed>0.72</speed>
  <fix>3d</fix>
</trkpt>
<trkpt lat="40.0712258" lon="-105.2291457">
  <ele>1583.16</ele>
  <time>2026-08-28T17:49:38Z</time>
  <course>280.85</course>
  <speed>1.22</speed>
  <fix>3d</fix>
</trkpt>
<trkpt lat="40.0712255" lon="-105.2291442">
  <ele>1583.0</ele>
  <time>2026-08-28T17:49:38Z</time>
  <course>280.2</course>
  <speed>0.98</speed>
  <fix>3d</fix>
</trkpt>
<trkpt lat="40.0712261" lon="-105.2291473">
  <ele>1583.16</ele>
  <time>2026-08-28T17:49:38Z</time>
  <course>280.85</course>
  <speed>1.5160804727981954</speed>
  <fix>3d</fix>
</trkpt>
<trkpt lat="40.0712255" lon="-105.2291442">
  <ele>1583.0</ele>
  <time>2026-08-28T17:49:38Z</time>
  <course>280.2</course>
  <speed>0.98</speed>
  <fix>3d</fix>
</trkpt>
<trkpt lat="40.0712263" lon="-105.2291493">
  <ele>1583.16</ele>
  <time>2026-08-28T17:49:38Z</time>
  <course>280.85</course>
  <speed>1.7906702655709676</speed>
  <fix>3d</fix>
</trkpt>
<trkpt lat="40.0712259" lon="-105.229147">
  <ele>1583.0</ele>
  <time>2026-08-28T17:49:38Z</time>
  <course>280.2</course>
  <speed>1.48</speed>
  <fix>3d</fix>
</trkpt>
<trkpt lat="40.0712266" lon="-105.2291515">
  <ele>1583.16</ele>
  <time>2026-08-28T17:49:38Z</time>
  <course>280.86</course>
  <speed>2.065260274154326</speed>
  <fix>3d</fix>
</trkpt>
<trkpt lat="40.0712259" lon="-105.229147">
  <ele>1583.0</ele>
  <time>2026-08-28T17:49:38Z</time>
  <course>280.2</course>
  <speed>1.48</speed>
  <fix>3d</fix>
</trkpt>
<trkpt lat="40.071227" lon="-105.2291541">
  <ele>1583.16</ele>
  <time>2026-08-28T17:49:38Z</time>
  <course>280.87</course>
  <speed>2.3201939574095958</speed>
  <fix>3d</fix>
</trkpt>
<trkpt lat="40.0712264" lon="-105.229151">
  <ele>1583.0</ele>
  <time>2026-08-28T17:49:38Z</time>
  <course>280.2</course>
  <speed>2.03</speed>
  <fix>3d</fix>
</trkpt>
<trkpt lat="40.0712274" lon="-105.229157">
  <ele>1583.16</ele>
  <time>2026-08-28T17:49:38Z</time>
  <course>280.87</course>
  <speed>2.563454700204394</speed>
  <fix>3d</fix>
</trkpt>
<trkpt lat="40.0712264" lon="-105.229151">
  <ele>1583.0</ele>
  <time>2026-08-28T17:49:38Z</time>
  <course>280.2</course>
  <speed>2.03</speed>
  <fix>3d</fix>
</trkpt>
<trkpt lat="40.0712278" lon="-105.2291601">
  <ele>1583.16</ele>
  <time>2026-08-28T17:49:38Z</time>
  <course>280.87</course>
  <speed>2.796891131238397</speed>
  <fix>3d</fix>
</trkpt>
<trkpt lat="40.0712271" lon="-105.2291563">
  <ele>1583.0</ele>
  <time>2026-08-28T17:49:38Z</time>
  <course>280.2</course>
  <speed>2.52</speed>
  <fix>3d</fix>
</trkpt>
<trkpt lat="40.0712283" lon="-105.2291636">
  <ele>1583.16</ele>
  <time>2026-08-28T17:49:38Z</time>
  <course>280.88</course>
  <speed>3.010664378505183</speed>
  <fix>3d</fix>
</trkpt>
<trkpt lat="40.0712271" lon="-105.2291563">
  <ele>1583.0</ele>
  <time>2026-08-28T17:49:38Z</time>
  <course>280.2</course>
  <speed>2.52</speed>
  <fix>3d</fix>
</trkpt>
<trkpt lat="40.0712288" lon="-105.2291672">
  <ele>1583.16</ele>
  <time>2026-08-28T17:49:38Z</time>
  <course>280.88</course>
  <speed>3.224437935516824</speed>
  <fix>3d</fix>
</trkpt>
<trkpt lat="40.0712281" lon="-105.2291626">
  <ele>1583.0</ele>
  <time>2026-08-28T17:49:38Z</time>
  <course>280.2</course>
  <speed>2.96</speed>
  <fix>3d</fix>
</trkpt>
<trkpt lat="40.0712293" lon="-105.2291711">
  <ele>1583.16</ele>
  <time>2026-08-28T17:49:38Z</time>
  <course>280.88</course>
  <speed>3.428381542360768</speed>
  <fix>3d</fix>
</trkpt>
<trkpt lat="40.0712281" lon="-105.2291626">
  <ele>1583.0</ele>
  <time>2026-08-28T17:49:38Z</time>
  <course>280.2</course>
  <speed>2.96</speed>
  <fix>3d</fix>
</trkpt>
<trkpt lat="40.0712299" lon="-105.2291752">
  <ele>1583.16</ele>
  <time>2026-08-28T17:49:38Z</time>
  <course>280.88</course>
  <speed>3.6108309293014536</speed>
  <fix>3d</fix>
</trkpt>
<trkpt lat="40.0712281" lon="-105.2291626">
  <ele>1583.0</ele>
  <time>2026-08-28T17:49:38Z</time>
  <course>280.2</course>
  <speed>2.96</speed>
  <fix>3d</fix>
</trkpt>
<trkpt lat="40.0712305" lon="-105.2291795">
  <ele>1583.15</ele>
  <time>2026-08-28T17:49:38Z</time>
  <course>280.88</course>
  <speed>3.7951152815164915</speed>
  <fix>3d</fix>
</trkpt>
<trkpt lat="40.0712291" lon="-105.22917">
  <ele>1583.0</ele>
  <time>2026-08-28T17:49:38Z</time>
  <course>280.2</course>
  <speed>3.37</speed>
  <fix>3d</fix>
</trkpt>
<trkpt lat="40.0712311" lon="-105.229184">
  <ele>1583.15</ele>
  <time>2026-08-28T17:49:38Z</time>
  <course>280.88</course>
  <speed>3.9579034854326602</speed>
  <fix>3d</fix>
</trkpt>
<trkpt lat="40.0712291" lon="-105.22917">
  <ele>1583.0</ele>
  <time>2026-08-28T17:49:38Z</time>
  <course>280.2</course>
  <speed>3.37</speed>
  <fix>3d</fix>
</trkpt>
<trkpt lat="40.0712318" lon="-105.2291886">
  <ele>1583.15</ele>
  <time>2026-08-28T17:49:38Z</time>
  <course>280.87</course>
  <speed>4.120691689510391</speed>
  <fix>3d</fix>
</trkpt>
<trkpt lat="40.0712302" lon="-105.2291783">
  <ele>1583.0</ele>
  <time>2026-08-28T17:49:38Z</time>
  <course>280.2</course>
  <speed>3.73</speed>
  <fix>3d</fix>
</trkpt>
<trkpt lat="40.0712324" lon="-105.2291934">
  <ele>1583.14</ele>
  <time>2026-08-28T17:49:38Z</time>
  <course>280.87</course>
  <speed>4.2718146027186155</speed>
  <fix>3d</fix>
</trkpt>
<trkpt lat="40.0712302" lon="-105.2291783">
  <ele>1583.0</ele>
  <time>2026-08-28T17:49:38Z</time>
  <course>280.2</course>
  <speed>3.73</speed>
  <fix>3d</fix>
</trkpt>
<trkpt lat="40.0712331" lon="-105.2291984">
  <ele>1583.14</ele>
  <time>2026-08-28T17:49:38Z</time>
  <course>280.86</course>
  <speed>4.4149405432010065</speed>
  <fix>3d</fix>
</trkpt>
<trkpt lat="40.0712315" lon="-105.2291873">
  <ele>1583.0</ele>
  <time>2026-08-28T17:49:38Z</time>
  <course>280.2</course>
  <speed>4.06</speed>
  <fix>3d</fix>
</trkpt>
<trkpt lat="40.0712339" lon="-105.2292036">
  <ele>1583.14</ele>
  <time>2026-08-28T17:49:38Z</time>
  <course>280.86</course>
  <speed>4.55623748283603</speed>
  <fix>3d</fix>
</trkpt>
<trkpt lat="40.0712315" lon="-105.2291873">
  <ele>1583.0</ele>
  <time>2026-08-28T17:49:38Z</time>
  <course>280.2</course>
  <speed>4.06</speed>
  <fix>3d</fix>
</trkpt>
<trkpt lat="40.0712346" lon="-105.2292089">
  <ele>1583.14</ele>
  <time>2026-08-28T17:49:38Z</time>
  <course>280.85</course>
  <speed>4.689530893383687</speed>
  <fix>3d</fix>
</trkpt>
<trkpt lat="40.0712328" lon="-105.229197">
  <ele>1583.0</ele>
  <time>2026-08-28T17:49:38Z</time>
  <course>280.2</course>
  <speed>4.36</speed>
  <fix>3d</fix>
</trkpt>
<trkpt lat="40.0712354" lon="-105.2292144">
  <ele>1583.14</ele>
  <time>2026-08-28T17:49:38Z</time>
  <course>280.85</course>
  <speed>4.811164100298388</speed>
  <fix>3d</fix>
</trkpt>
<trkpt lat="40.0712342" lon="-105.2292074">
  <ele>1583.0</ele>
  <time>2026-08-28T17:49:38Z</time>
  <course>280.2</course>
  <speed>4.63</speed>
  <fix>3d</fix>
</trkpt>
<trkpt lat="40.0712361" lon="-105.22922">
  <ele>1583.14</ele>
  <time>2026-08-28T17:49:38Z</time>
  <course>280.84</course>
  <speed>4.932798394420757</speed>
  <fix>3d</fix>
</trkpt>
<trkpt lat="40.0712342" lon="-105.2292074">
  <ele>1583.0</ele>
  <time>2026-08-28T17:49:38Z</time>
  <course>280.2</course>
  <speed>4.63</speed>
  <fix>3d</fix>
</trkpt>
<trkpt lat="40.0712369" lon="-105.2292257">
  <ele>1583.14</ele>
  <time>2026-08-28T17:49:38Z</time>
  <course>280.84</course>
  <speed>5.044601074416093</speed>
  <fix>3d</fix>
</trkpt>
<trkpt lat="40.0712357" lon="-105.2292184">
  <ele>1583.0</ele>
  <time>2026-08-28T17:49:38Z</time>
  <course>280.2</course>
  <speed>4.87</speed>
  <fix>3d</fix>
</trkpt>
<trkpt lat="40.0712377" lon="-105.2292316">
  <ele>1583.14</ele>
  <time>2026-08-28T17:49:38Z</time>
  <course>280.84</course>
  <speed>5.1564037855854545</speed>
  <fix>3d</fix>
</trkpt>
<trkpt lat="40.0712357" lon="-105.2292184">
  <ele>1583.0</ele>
  <time>2026-08-28T17:49:38Z</time>
  <course>280.2</course>
  <speed>4.87</speed>
  <fix>3d</fix>
</trkpt>
<trkpt lat="40.0712386" lon="-105.2292377">
  <ele>1583.14</ele>
  <time>2026-08-28T17:49:38Z</time>
  <course>280.83</course>
  <speed>5.256557809060983</speed>
  <fix>3d</fix>
</trkpt>
<trkpt lat="40.0712374" lon="-105.2292299">
  <ele>1583.0</ele>
  <time>2026-08-28T17:49:38Z</time>
  <course>280.2</course>
  <speed>5.09</speed>
  <fix>3d</fix>
</trkpt>
<trkpt lat="40.0712394" lon="-105.2292438">
  <ele>1583.14</ele>
  <time>2026-08-28T17:49:38Z</time>
  <course>280.83</course>
  <speed>5.348691428751522</speed>
  <fix>3d</fix>
</trkpt>
<trkpt lat="40.0712374" lon="-105.2292299">
  <ele>1583.0</ele>
  <time>2026-08-28T17:49:38Z</time>
  <course>280.2</course>
  <speed>5.09</speed>
  <fix>3d</fix>
</trkpt>
<trkpt lat="40.0712403" lon="-105.2292502">
  <ele>1583.14</ele>
  <time>2026-08-28T17:49:38Z</time>
  <course>280.83</course>
  <speed>5.450660510433575</speed>
  <fix>3d</fix>
</trkpt>
<trkpt lat="40.071239" lon="-105.2292419">
  <ele>1583.0</ele>
  <time>2026-08-28T17:49:38Z</time>
  <course>280.2</course>
  <speed>5.29</speed>
  <fix>3d</fix>
</trkpt>
<trkpt lat="40.0712412" lon="-105.2292565">
  <ele>1583.14</ele>
  <time>2026-08-28T17:49:38Z</time>
  <course>280.83</course>
  <speed>5.540983667184014</speed>
  <fix>3d</fix>
</trkpt>
<trkpt lat="40.071239" lon="-105.2292419">
  <ele>1583.0</ele>
  <time>2026-08-28T17:49:38Z</time>
  <course>280.2</course>
  <speed>5.29</speed>
  <fix>3d</fix>
</trkpt>
<trkpt lat="40.0712421" lon="-105.229263">
  <ele>1583.14</ele>
  <time>2026-08-28T17:49:38Z</time>
  <course>280.82</course>
  <speed>5.623281959852271</speed>
  <fix>3d</fix>
</trkpt>
<trkpt lat="40.0712407" lon="-105.2292544">
  <ele>1583.0</ele>
  <time>2026-08-28T17:49:38Z</time>
  <course>280.2</course>
  <speed>5.48</speed>
  <fix>3d</fix>
</trkpt>
<trkpt lat="40.071243" lon="-105.2292696">
  <ele>1583.14</ele>
  <time>2026-08-28T17:49:38Z</time>
  <course>280.82</course>
  <speed>5.703770682627415</speed>
  <fix>3d</fix>
</trkpt>
<trkpt lat="40.0712407" lon="-105.2292544">
  <ele>1583.0</ele>
  <time>2026-08-28T17:49:38Z</time>
  <course>280.2</course>
  <speed>5.48</speed>
  <fix>3d</fix>
</trkpt>
<trkpt lat="40.0712439" lon="-105.2292762">
  <ele>1583.14</ele>
  <time>2026-08-28T17:49:38Z</time>
  <course>280.82</course>
  <speed>5.774426378437949</speed>
  <fix>3d</fix>
</trkpt>
<trkpt lat="40.0712424" lon="-105.2292673">
  <ele>1583.0</ele>
  <time>2026-08-28T17:49:38Z</time>
  <course>280.2</course>
  <speed>5.64</speed>
  <fix>3d</fix>
</trkpt>
<trkpt lat="40.0712448" lon="-105.229283">
  <ele>1583.14</ele>
  <time>2026-08-28T17:49:38Z</time>
  <course>280.82</course>
  <speed>5.85672263300901</speed>
  <fix>3d</fix>
</trkpt>
<trkpt lat="40.0712424" lon="-105.2292673">
  <ele>1583.0</ele>
  <time>2026-08-28T17:49:38Z</time>
  <course>280.2</course>
  <speed>5.64</speed>
  <fix>3d</fix>
</trkpt>
<trkpt lat="40.0712457" lon="-105.2292898">
  <ele>1583.14</ele>
  <time>2026-08-28T17:49:38Z</time>
  <course>280.81</course>
  <speed>5.9175417193290665</speed>
  <fix>3d</fix>
</trkpt>
<trkpt lat="40.0712443" lon="-105.2292805">
  <ele>1583.0</ele>
  <time>2026-08-28T17:49:38Z</time>
  <course>280.2</course>
  <speed>5.79</speed>
  <fix>3d</fix>
</trkpt>
<trkpt lat="40.0712467" lon="-105.2292967">
  <ele>1583.14</ele>
  <time>2026-08-28T17:49:38Z</time>
  <course>280.81</course>
  <speed>5.988196723555432</speed>
  <fix>3d</fix>
</trkpt>
<trkpt lat="40.0712443" lon="-105.2292805">
  <ele>1583.0</ele>
  <time>2026-08-28T17:49:38Z</time>
  <course>280.2</course>
  <speed>5.79</speed>
  <fix>3d</fix>
</trkpt>
<trkpt lat="40.0712476" lon="-105.2293036">
  <ele>1583.14</ele>
  <time>2026-08-28T17:49:38Z</time>
  <course>280.81</course>
  <speed>6.04901644897747</speed>
  <fix>3d</fix>
</trkpt>
<trkpt lat="40.0712443" lon="-105.2292805">
  <ele>1583.0</ele>
  <time>2026-08-28T17:49:38Z</time>
  <course>280.2</course>
  <speed>5.79</speed>
  <fix>3d</fix>
</trkpt>
<trkpt lat="40.0712486" lon="-105.2293106">
  <ele>1583.14</ele>
  <time>2026-08-28T17:49:38Z</time>
  <course>280.8</course>
  <speed>6.1</speed>
  <fix>3d</fix>
</trkpt>
<trkpt lat="40.0712462" lon="-105.229294">
  <ele>1583.0</ele>
  <time>2026-08-28T17:49:38Z</time>
  <course>280.2</course>
  <speed>5.92</speed>
  <fix>3d</fix>
</trkpt>
<trkpt lat="40.0712495" lon="-105.2293176">
  <ele>1583.14</ele>
  <time>2026-08-28T17:49:38Z</time>
  <course>280.8</course>
  <speed>6.160819750650071</speed>
  <fix>3d</fix>
</trkpt>
<trkpt lat="40.0712462" lon="-105.229294">
  <ele>1583.0</ele>
  <time>2026-08-28T17:49:38Z</time>
  <course>280.2</course>
  <speed>5.92</speed>
  <fix>3d</fix>
</trkpt>
<trkpt lat="40.0712505" lon="-105.2293246">
  <ele>1583.14</ele>
  <time>2026-08-28T17:49:38Z</time>
  <course>280.8</course>
  <speed>6.201967429775813</speed>
  <fix>3d</fix>
</trkpt>
<trkpt lat="40.0712481" lon="-105.2293079">
  <ele>1583.0</ele>
  <time>2026-08-28T17:49:38Z</time>
  <course>280.2</course>
  <speed>6.04</speed>
  <fix>3d</fix>
</trkpt>
<trkpt lat="40.0712515" lon="-105.2293317">
  <ele>1583.14</ele>
  <time>2026-08-28T17:49:38Z</time>
  <course>280.79</course>
  <speed>6.251151893851245</speed>
  <fix>3d</fix>
</trkpt>
<trkpt lat="40.0712481" lon="-105.2293079">
  <ele>1583.0</ele>
  <time>2026-08-28T17:49:38Z</time>
  <course>280.2</course>
  <speed>6.04</speed>
  <fix>3d</fix>
</trkpt>
<trkpt lat="40.0712525" lon="-105.2293389">
  <ele>1583.14</ele>
  <time>2026-08-28T17:49:38Z</time>
  <course>280.79</course>
  <speed>6.292296877929394</speed>
  <fix>3d</fix>
</trkpt>
<trkpt lat="40.07125" lon="-105.229322">
  <ele>1583.0</ele>
  <time>2026-08-28T17:49:38Z</time>
  <course>280.2</course>
  <speed>6.15</speed>
  <fix>3d</fix>
</trkpt>
<trkpt lat="40.0712535" lon="-105.2293461">
  <ele>1583.14</ele>
  <time>2026-08-28T17:49:38Z</time>
  <course>280.79</course>
  <speed>6.333442981506978</speed>
  <fix>3d</fix>
</trkpt>
<trkpt lat="40.071252" lon="-105.2293363">
  <ele>1583.0</ele>
  <time>2026-08-28T17:49:38Z</time>
  <course>280.2</course>
  <speed>6.25</speed>
  <fix>3d</fix>
</trkpt>
<trkpt lat="40.0712545" lon="-105.2293534">
  <ele>1583.15</ele>
  <time>2026-08-28T17:49:38Z</time>
  <course>280.78</course>
  <speed>6.382632685655661</speed>
  <fix>3d</fix>
</trkpt>
<trkpt lat="40.071252" lon="-105.2293363">
  <ele>1583.0</ele>
  <time>2026-08-28T17:49:38Z</time>
  <course>280.2</course>
  <speed>6.25</speed>
  <fix>3d</fix>
</trkpt>
<trkpt lat="40.0712555" lon="-105.2293608">
  <ele>1583.15</ele>
  <time>2026-08-28T17:49:38Z</time>
  <course>280.78</course>
  <speed>6.413937947938068</speed>
  <fix>3d</fix>
</trkpt>
<trkpt lat="40.071254" lon="-105.2293508">
  <ele>1583.0</ele>
  <time>2026-08-28T17:49:38Z</time>
  <course>280.2</course>
  <speed>6.34</speed>
  <fix>3d</fix>
</trkpt>
<trkpt lat="40.0712565" lon="-105.2293682">
  <ele>1583.16</ele>
  <time>2026-08-28T17:49:38Z</time>
  <course>280.78</course>
  <speed>6.455083268246816</speed>
  <fix>3d</fix>
</trkpt>
<trkpt lat="40.071254" lon="-105.2293508">
  <ele>1583.0</ele>
  <time>2026-08-28T17:49:38Z</time>
  <course>280.2</course>
  <speed>6.34</speed>
  <fix>3d</fix>
</trkpt>
<trkpt lat="40.0712575" lon="-105.2293756">
  <ele>1583.16</ele>
  <time>2026-08-28T17:49:38Z</time>
  <course>280.78</course>
  <speed>6.4944360802151255</speed>
  <fix>3d</fix>
</trkpt>
<trkpt lat="40.0712561" lon="-105.2293656">
  <ele>1583.0</ele>
  <time>2026-08-28T17:49:38Z</time>
  <course>280.2</course>
  <speed>6.42</speed>
  <fix>3d</fix>
</trkpt>
<trkpt lat="40.0712586" lon="-105.2293832">
  <ele>1583.16</ele>
  <time>2026-08-28T17:49:38Z</time>
  <course>280.79</course>
  <speed>6.525741337196871</speed>
  <fix>3d</fix>
</trkpt>
<trkpt lat="40.0712561" lon="-105.2293656">
  <ele>1583.0</ele>
  <time>2026-08-28T17:49:38Z</time>
  <course>280.2</course>
  <speed>6.42</speed>
  <fix>3d</fix>
</trkpt>
<trkpt lat="40.0712596" lon="-105.2293907">
  <ele>1583.16</ele>
  <time>2026-08-28T17:49:38Z</time>
  <course>280.79</course>
  <speed>6.565097105146275</speed>
  <fix>3d</fix>
</trkpt>
<trkpt lat="40.0712581" lon="-105.2293805">
  <ele>1583.0</ele>
  <time>2026-08-28T17:49:38Z</time>
  <course>280.2</course>
  <speed>6.5</speed>
  <fix>3d</fix>
</trkpt>
<trkpt lat="40.0712607" lon="-105.2293984">
  <ele>1583.16</ele>
  <time>2026-08-28T17:49:38Z</time>
  <course>280.79</course>
  <speed>6.596400533624379</speed>
  <fix>3d</fix>
</trkpt>
<trkpt lat="40.0712581" lon="-105.2293805">
  <ele>1583.0</ele>
  <time>2026-08-28T17:49:38Z</time>
  <course>280.2</course>
  <speed>6.5</speed>
  <fix>3d</fix>
</trkpt>
<trkpt lat="40.0712617" lon="-105.229406">
  <ele>1583.16</ele>
  <time>2026-08-28T17:49:38Z</time>
  <course>280.79</course>
  <speed>6.625918804211231</speed>
  <fix>3d</fix>
</trkpt>
<trkpt lat="40.0712602" lon="-105.2293957">
  <ele>1583.0</ele>
  <time>2026-08-28T17:49:38Z</time>
  <course>280.2</course>
  <speed>6.56</speed>
  <fix>3d</fix>
</trkpt>
<trkpt lat="40.0712628" lon="-105.2294137">
  <ele>1583.16</ele>
  <time>2026-08-28T17:49:38Z</time>
  <course>280.79</course>
  <speed>6.6473829436854315</speed>
  <fix>3d</fix>
</trkpt>
<trkpt lat="40.0712602" lon="-105.2293957">
  <ele>1583.0</ele>
  <time>2026-08-28T17:49:38Z</time>
  <course>280.2</course>
  <speed>6.56</speed>
  <fix>3d</fix>
</trkpt>
<trkpt lat="40.0712638" lon="-105.2294214">
  <ele>1583.16</ele>
  <time>2026-08-28T17:49:38Z</time>
  <course>280.79</course>
  <speed>6.676900478515462</speed>
  <fix>3d</fix>
</trkpt>
<trkpt lat="40.0712623" lon="-105.2294109">
  <ele>1583.0</ele>
  <time>2026-08-28T17:49:38Z</time>
  <course>280.2</course>
  <speed>6.62</speed>
  <fix>3d</fix>
</trkpt>
<trkpt lat="40.0712649" lon="-105.2294292">
  <ele>1583.16</ele>
  <time>2026-08-28T17:49:38Z</time>
  <course>280.79</course>
  <speed>6.708203932499369</speed>
  <fix>3d</fix>
</trkpt>
<trkpt lat="40.0712623" lon="-105.2294109">
  <ele>1583.0</ele>
  <time>2026-08-28T17:49:38Z</time>
  <course>280.2</course>
  <speed>6.62</speed>
  <fix>3d</fix>
</trkpt>
<trkpt lat="40.071266" lon="-105.229437">
  <ele>1583.17</ele>
  <time>2026-08-28T17:49:38Z</time>
  <course>280.8</course>
  <speed>6.727882281966592</speed>
  <fix>3d</fix>
</trkpt>
<trkpt lat="40.0712644" lon="-105.2294263">
  <ele>1583.0</ele>
  <time>2026-08-28T17:49:38Z</time>
  <course>280.2</course>
  <speed>6.68</speed>
  <fix>3d</fix>
</trkpt>
<trkpt lat="40.071267" lon="-105.2294448">
  <ele>1583.17</ele>
  <time>2026-08-28T17:49:38Z</time>
  <course>280.8</course>
  <speed>6.749348116670231</speed>
  <fix>3d</fix>
</trkpt>
<trkpt lat="40.0712644" lon="-105.2294263">
  <ele>1583.0</ele>
  <time>2026-08-28T17:49:38Z</time>
  <course>280.2</course>
  <speed>6.68</speed>
  <fix>3d</fix>
</trkpt>
<trkpt lat="40.0712681" lon="-105.2294526">
  <ele>1583.17</ele>
  <time>2026-08-28T17:49:38Z</time>
  <course>280.8</course>
  <speed>6.778864211650798</speed>
  <fix>3d</fix>
</trkpt>
<trkpt lat="40.0712644" lon="-105.2294263">
  <ele>1583.0</ele>
  <time>2026-08-28T17:49:38Z</time>
  <course>280.2</course>
  <speed>6.68</speed>
  <fix>3d</fix>
</trkpt>
<trkpt lat="40.0712692" lon="-105.2294603">
  <ele>1583.17</ele>
  <time>2026-08-28T17:49:38Z</time>
  <course>280.8</course>
  <speed>6.78870385272476</speed>
  <fix>3d</fix>
</trkpt>
<trkpt lat="40.0712665" lon="-105.2294417">
  <ele>1583.0</ele>
  <time>2026-08-28T17:49:38Z</time>
  <course>280.2</course>
  <speed>6.73</speed>
  <fix>3d</fix>
</trkpt>
<trkpt lat="40.0712703" lon="-105.2294681">
  <ele>1583.18</ele>
  <time>2026-08-28T17:49:38Z</time>
  <course>280.8</course>
  <speed>6.8101688672161425</speed>
  <fix>3d</fix>
</trkpt>
<trkpt lat="40.0712665" lon="-105.2294417">
  <ele>1583.0</ele>
  <time>2026-08-28T17:49:38Z</time>
  <course>280.2</course>
  <speed>6.73</speed>
  <fix>3d</fix>
</trkpt>
<trkpt lat="40.0712713" lon="-105.2294759">
  <ele>1583.18</ele>
  <time>2026-08-28T17:49:38Z</time>
  <course>280.8</course>
  <speed>6.8200073313743586</speed>
  <fix>3d</fix>
</trkpt>
<trkpt lat="40.0712687" lon="-105.2294574">
  <ele>1583.0</ele>
  <time>2026-08-28T17:49:38Z</time>
  <course>280.2</course>
  <speed>6.77</speed>
  <fix>3d</fix>
</trkpt>
<trkpt lat="40.0712724" lon="-105.2294837">
  <ele>1583.18</ele>
  <time>2026-08-28T17:49:38Z</time>
  <course>280.8</course>
  <speed>6.839685665291936</speed>
  <fix>3d</fix>
</trkpt>
<trkpt lat="40.0712687" lon="-105.2294574">
  <ele>1583.0</ele>
  <time>2026-08-28T17:49:38Z</time>
  <course>280.2</course>
  <speed>6.77</speed>
  <fix>3d</fix>
</trkpt>
<trkpt lat="40.0712735" lon="-105.2294915">
  <ele>1583.18</ele>
  <time>2026-08-28T17:49:38Z</time>
  <course>280.8</course>
  <speed>6.849525531013079</speed>
  <fix>3d</fix>
</trkpt>
<trkpt lat="40.0712709" lon="-105.2294731">
  <ele>1583.0</ele>
  <time>2026-08-28T17:49:38Z</time>
  <course>280.2</course>
  <speed>6.81</speed>
  <fix>3d</fix>
</trkpt>
<trkpt lat="40.0712745" lon="-105.2294994">
  <ele>1583.19</ele>
  <time>2026-08-28T17:49:38Z</time>
  <course>280.8</course>
  <speed>6.859365859902795</speed>
  <fix>3d</fix>
</trkpt>
<trkpt lat="40.0712709" lon="-105.2294731">
  <ele>1583.0</ele>
  <time>2026-08-28T17:49:38Z</time>
  <course>280.2</course>
  <speed>6.81</speed>
  <fix>3d</fix>
</trkpt>
<trkpt lat="40.0712756" lon="-105.2295073">
  <ele>1583.19</ele>
  <time>2026-08-28T17:49:38Z</time>
  <course>280.8</course>
  <speed>6.87098973947713</speed>
  <fix>3d</fix>
</trkpt>
<trkpt lat="40.071273" lon="-105.2294888">
  <ele>1583.0</ele>
  <time>2026-08-28T17:49:38Z</time>
  <course>280.2</course>
  <speed>6.85</speed>
  <fix>3d</fix>
</trkpt>
<trkpt lat="40.0712767" lon="-105.2295151">
  <ele>1583.19</ele>
  <time>2026-08-28T17:49:38Z</time>
  <course>280.81</course>
  <speed>6.880828438494888</speed>
  <fix>3d</fix>
</trkpt>
<trkpt lat="40.0712752" lon="-105.2295048">
  <ele>1583.0</ele>
  <time>2026-08-28T17:49:38Z</time>
  <course>280.2</course>
  <speed>6.88</speed>
  <fix>3d</fix>
</trkpt>
<trkpt lat="40.0712778" lon="-105.2295231">
  <ele>1583.2</ele>
  <time>2026-08-28T17:49:38Z</time>
  <course>280.81</course>
  <speed>6.89066760190912</speed>
  <fix>3d</fix>
</trkpt>
<trkpt lat="40.0712752" lon="-105.2295048">
  <ele>1583.0</ele>
  <time>2026-08-28T17:49:38Z</time>
  <course>280.2</course>
  <speed>6.88</speed>
  <fix>3d</fix>
</trkpt>
<trkpt lat="40.0712789" lon="-105.229531">
  <ele>1583.2</ele>
  <time>2026-08-28T17:49:38Z</time>
  <course>280.81</course>
  <speed>6.910347313992258</speed>
  <fix>3d</fix>
</trkpt>
<trkpt lat="40.0712774" lon="-105.2295207">
  <ele>1583.0</ele>
  <time>2026-08-28T17:49:38Z</time>
  <course>280.2</course>
  <speed>6.91</speed>
  <fix>3d</fix>
</trkpt>
<trkpt lat="40.07128" lon="-105.229539">
  <ele>1583.2</ele>
  <time>2026-08-28T17:49:38Z</time>
  <course>280.82</course>
  <speed>6.920187858721756</speed>
  <fix>3d</fix>
</trkpt>
<trkpt lat="40.0712774" lon="-105.2295207">
  <ele>1583.0</ele>
  <time>2026-08-28T17:49:38Z</time>
  <course>280.2</course>
  <speed>6.91</speed>
  <fix>3d</fix>
</trkpt>
<trkpt lat="40.0712811" lon="-105.229547">
  <ele>1583.2</ele>
  <time>2026-08-28T17:49:38Z</time>
  <course>280.82</course>
  <speed>6.931810730249348</speed>
  <fix>3d</fix>
</trkpt>
<trkpt lat="40.0712795" lon="-105.2295367">
  <ele>1583.0</ele>
  <time>2026-08-28T17:49:38Z</time>
  <course>280.2</course>
  <speed>6.94</speed>
  <fix>3d</fix>
</trkpt>
<trkpt lat="40.0712822" lon="-105.2295551">
  <ele>1583.2</ele>
  <time>2026-08-28T17:49:38Z</time>
  <course>280.82</course>
  <speed>6.9416496598431126</speed>
  <fix>3d</fix>
</trkpt>
<trkpt lat="40.0712795" lon="-105.2295367">
  <ele>1583.0</ele>
  <time>2026-08-28T17:49:38Z</time>
  <course>280.2</course>
  <speed>6.94</speed>
  <fix>3d</fix>
</trkpt>
<trkpt lat="40.0712833" lon="-105.2295633">
  <ele>1583.2</ele>
  <time>2026-08-28T17:49:38Z</time>
  <course>280.83</course>
  <speed>6.96132889612321</speed>
  <fix>3d</fix>
</trkpt>
<trkpt lat="40.0712818" lon="-105.2295528">
  <ele>1583.0</ele>
  <time>2026-08-28T17:49:38Z</time>
  <course>280.2</course>
  <speed>6.96</speed>
  <fix>3d</fix>
</trkpt>
<trkpt lat="40.0712844" lon="-105.2295714">
  <ele>1583.2</ele>
  <time>2026-08-28T17:49:38Z</time>
  <course>280.83</course>
  <speed>6.971169198922086</speed>
  <fix>3d</fix>
</trkpt>
<trkpt lat="40.0712818" lon="-105.2295528">
  <ele>1583.0</ele>
  <time>2026-08-28T17:49:38Z</time>
  <course>280.2</course>
  <speed>6.96</speed>
  <fix>3d</fix>
</trkpt>
<trkpt lat="40.0712855" lon="-105.2295795">
  <ele>1583.2</ele>
  <time>2026-08-28T17:49:38Z</time>
  <course>280.83</course>
  <speed>6.981009955586655</speed>
  <fix>3d</fix>
</trkpt>
<trkpt lat="40.0712841" lon="-105.2295689">
  <ele>1583.0</ele>
  <time>2026-08-28T17:49:38Z</time>
  <course>280.2</course>
  <speed>6.98</speed>
  <fix>3d</fix>
</trkpt>
<trkpt lat="40.0712867" lon="-105.2295876">
  <ele>1583.21</ele>
  <time>2026-08-28T17:49:38Z</time>
  <course>280.84</course>
  <speed>6.992631836440412</speed>
  <fix>3d</fix>
</trkpt>
<trkpt lat="40.0712841" lon="-105.2295689">
  <ele>1583.0</ele>
  <time>2026-08-28T17:49:38Z</time>
  <course>280.2</course>
  <speed>6.98</speed>
  <fix>3d</fix>
</trkpt>
<trkpt lat="40.0712878" lon="-105.2295958">
  <ele>1583.21</ele>
  <time>2026-08-28T17:49:38Z</time>
  <course>280.84</course>
  <speed>7.002470992442596</speed>
  <fix>3d</fix>
</trkpt>
<trkpt lat="40.0712863" lon="-105.2295851">
  <ele>1583.0</ele>
  <time>2026-08-28T17:49:38Z</time>
  <course>280.2</course>
  <speed>7.0</speed>
  <fix>3d</fix>
</trkpt>
<trkpt lat="40.0712889" lon="-105.2296039">
  <ele>1583.21</ele>
  <time>2026-08-28T17:49:38Z</time>
  <course>280.84</course>
  <speed>7.012310603502957</speed>
  <fix>3d</fix>
</trkpt>
<trkpt lat="40.0712863" lon="-105.2295851">
  <ele>1583.0</ele>
  <time>2026-08-28T17:49:38Z</time>
  <course>280.2</course>
  <speed>7.0</speed>
  <fix>3d</fix>
</trkpt>
<trkpt lat="40.07129" lon="-105.2296121">
  <ele>1583.22</ele>
  <time>2026-08-28T17:49:38Z</time>
  <course>280.85</course>
  <speed>7.022150667708575</speed>
  <fix>3d</fix>
</trkpt>
<trkpt lat="40.0712885" lon="-105.2296013">
  <ele>1583.0</ele>
  <time>2026-08-28T17:49:38Z</time>
  <course>280.2</course>
  <speed>7.02</speed>
  <fix>3d</fix>
</trkpt>
<trkpt lat="40.0712912" lon="-105.2296203">
  <ele>1583.22</ele>
  <time>2026-08-28T17:49:38Z</time>
  <course>280.85</course>
  <speed>7.022150667708575</speed>
  <fix>3d</fix>
</trkpt>
<trkpt lat="40.0712885" lon="-105.2296013">
  <ele>1583.0</ele>
  <time>2026-08-28T17:49:38Z</time>
  <course>280.2</course>
  <speed>7.02</speed>
  <fix>3d</fix>
</trkpt>
<trkpt lat="40.0712923" lon="-105.2296284">
  <ele>1583.22</ele>
  <time>2026-08-28T17:49:38Z</time>
  <course>280.86</course>
  <speed>7.0319911831571575</speed>
  <fix>3d</fix>
</trkpt>
<trkpt lat="40.0712885" lon="-105.2296013">
  <ele>1583.0</ele>
  <time>2026-08-28T17:49:38Z</time>
  <course>280.2</course>
  <speed>7.02</speed>
  <fix>3d</fix>
</trkpt>
<trkpt lat="40.0712934" lon="-105.2296365">
  <ele>1583.21</ele>
  <time>2026-08-28T17:49:38Z</time>
  <course>280.86</course>
  <speed>7.041832147956951</speed>
  <fix>3d</fix>
</trkpt>
<trkpt lat="40.0712908" lon="-105.2296176">
  <ele>1583.0</ele>
  <time>2026-08-28T17:49:38Z</time>
  <course>280.2</course>
  <speed>7.04</speed>
  <fix>3d</fix>
</trkpt>
<trkpt lat="40.0712945" lon="-105.2296447">
  <ele>1583.21</ele>
  <time>2026-08-28T17:49:38Z</time>
  <course>280.86</course>
  <speed>7.043614129124337</speed>
  <fix>3d</fix>
</trkpt>
<trkpt lat="40.0712908" lon="-105.2296176">
  <ele>1583.0</ele>
  <time>2026-08-28T17:49:38Z</time>
  <course>280.2</course>
  <speed>7.04</speed>
  <fix>3d</fix>
</trkpt>
<trkpt lat="40.0712956" lon="-105.2296527">
  <ele>1583.21</ele>
  <time>2026-08-28T17:49:38Z</time>
  <course>280.86</course>
  <speed>7.043614129124337</speed>
  <fix>3d</fix>
</trkpt>
<trkpt lat="40.071293" lon="-105.2296339">
  <ele>1583.0</ele>
  <time>2026-08-28T17:49:38Z</time>
  <course>280.2</course>
  <speed>7.05</speed>
  <fix>3d</fix>
</trkpt>
<trkpt lat="40.0712968" lon="-105.2296608">
  <ele>1583.21</ele>
  <time>2026-08-28T17:49:38Z</time>
  <course>280.87</course>
  <speed>7.05345305506459</speed>
  <fix>3d</fix>
</trkpt>
<trkpt lat="40.071293" lon="-105.2296339">
  <ele>1583.0</ele>
  <time>2026-08-28T17:49:38Z</time>
  <course>280.2</course>
  <speed>7.05</speed>
  <fix>3d</fix>
</trkpt>
<trkpt lat="40.0712979" lon="-105.2296689">
  <ele>1583.2</ele>
  <time>2026-08-28T17:49:38Z</time>
  <course>280.87</course>
  <speed>7.05345305506459</speed>
  <fix>3d</fix>
</trkpt>
<trkpt lat="40.0712953" lon="-105.2296502">
  <ele>1583.0</ele>
  <time>2026-08-28T17:49:38Z</time>
  <course>280.2</course>
  <speed>7.07</speed>
  <fix>3d</fix>
</trkpt>
<trkpt lat="40.071299" lon="-105.2296771">
  <ele>1583.2</ele>
  <time>2026-08-28T17:49:38Z</time>
  <course>280.87</course>
  <speed>7.05345305506459</speed>
  <fix>3d</fix>
</trkpt>
<trkpt lat="40.0712975" lon="-105.2296666">
  <ele>1583.0</ele>
  <time>2026-08-28T17:49:38Z</time>
  <course>280.2</course>
  <speed>7.08</speed>
  <fix>3d</fix>
</trkpt>
<trkpt lat="40.0713001" lon="-105.2296853">
  <ele>1583.2</ele>
  <time>2026-08-28T17:49:38Z</time>
  <course>280.88</course>
  <speed>7.05345305506459</speed>
  <fix>3d</fix>
</trkpt>
<trkpt lat="40.0712975" lon="-105.2296666">
  <ele>1583.0</ele>
  <time>2026-08-28T17:49:38Z</time>
  <course>280.2</course>
  <speed>7.08</speed>
  <fix>3d</fix>
</trkpt>
<trkpt lat="40.0713013" lon="-105.2296934">
  <ele>1583.2</ele>
  <time>2026-08-28T17:49:38Z</time>
  <course>280.88</course>
  <speed>7.063292433419417</speed>
  <fix>3d</fix>
</trkpt>
<trkpt lat="40.0712998" lon="-105.229683">
  <ele>1583.0</ele>
  <time>2026-08-28T17:49:38Z</time>
  <course>280.2</course>
  <speed>7.09</speed>
  <fix>3d</fix>
</trkpt>
<trkpt lat="40.0713024" lon="-105.2297016">
  <ele>1583.2</ele>
  <time>2026-08-28T17:49:38Z</time>
  <course>280.88</course>
  <speed>7.063292433419417</speed>
  <fix>3d</fix>
</trkpt>
<trkpt lat="40.0712998" lon="-105.229683">
  <ele>1583.0</ele>
  <time>2026-08-28T17:49:38Z</time>
  <course>280.2</course>
  <speed>7.09</speed>
  <fix>3d</fix>
</trkpt>
<trkpt lat="40.0713035" lon="-105.2297098">
  <ele>1583.2</ele>
  <time>2026-08-28T17:49:38Z</time>
  <course>280.89</course>
  <speed>7.05345305506459</speed>
  <fix>3d</fix>
</trkpt>
<trkpt lat="40.071302" lon="-105.2296993">
  <ele>1583.0</ele>
  <time>2026-08-28T17:49:38Z</time>
  <course>280.2</course>
  <speed>7.09</speed>
  <fix>3d</fix>
</trkpt>
<trkpt lat="40.0713046" lon="-105.229718">
  <ele>1583.2</ele>
  <time>2026-08-28T17:49:38Z</time>
  <course>280.89</course>
  <speed>6.9416496598431126</speed>
  <fix>3d</fix>
</trkpt>
<trkpt lat="40.071302" lon="-105.2296993">
  <ele>1583.0</ele>
  <time>2026-08-28T17:49:38Z</time>
  <course>280.2</course>
  <speed>7.09</speed>
  <fix>3d</fix>
</trkpt>
<trkpt lat="40.0713057" lon="-105.2297259">
  <ele>1583.2</ele>
  <time>2026-08-28T17:49:38Z</time>
  <course>280.89</course>
  <speed>6.737722167023511</speed>
  <fix>3d</fix>
</trkpt>
<trkpt lat="40.0713042" lon="-105.2297155">
  <ele>1583.0</ele>
  <time>2026-08-28T17:49:38Z</time>
  <course>280.2</course>
  <speed>6.92</speed>
  <fix>3d</fix>
</trkpt>
<trkpt lat="40.0713068" lon="-105.2297337">
  <ele>1583.2</ele>
  <time>2026-08-28T17:49:38Z</time>
  <course>280.9</course>
  <speed>6.441676800337006</speed>
  <fix>3d</fix>
</trkpt>
<trkpt lat="40.0713042" lon="-105.2297155">
  <ele>1583.0</ele>
  <time>2026-08-28T17:49:38Z</time>
  <course>280.2</course>
  <speed>6.92</speed>
  <fix>3d</fix>
</trkpt>
<trkpt lat="40.0713078" lon="-105.229741">
  <ele>1583.21</ele>
  <time>2026-08-28T17:49:38Z</time>
  <course>280.9</course>
  <speed>6.125952987086989</speed>
  <fix>3d</fix>
</trkpt>
<trkpt lat="40.0713064" lon="-105.2297311">
  <ele>1583.0</ele>
  <time>2026-08-28T17:49:38Z</time>
  <course>280.2</course>
  <speed>6.46</speed>
  <fix>3d</fix>
</trkpt>
<trkpt lat="40.0713087" lon="-105.2297479">
  <ele>1583.21</ele>
  <time>2026-08-28T17:49:38Z</time>
  <course>280.9</course>
  <speed>5.821838197682927</speed>
  <fix>3d</fix>
</trkpt>
<trkpt lat="40.0713064" lon="-105.2297311">
  <ele>1583.0</ele>
  <time>2026-08-28T17:49:38Z</time>
  <course>280.2</course>
  <speed>6.46</speed>
  <fix>3d</fix>
</trkpt>
<trkpt lat="40.0713096" lon="-105.2297544">
  <ele>1583.21</ele>
  <time>2026-08-28T17:49:38Z</time>
  <course>280.91</course>
  <speed>5.525803109051209</speed>
  <fix>3d</fix>
</trkpt>
<trkpt lat="40.0713083" lon="-105.2297453">
  <ele>1583.0</ele>
  <time>2026-08-28T17:49:38Z</time>
  <course>280.2</course>
  <speed>5.86</speed>
  <fix>3d</fix>
</trkpt>
<trkpt lat="40.0713105" lon="-105.2297607">
  <ele>1583.21</ele>
  <time>2026-08-28T17:49:38Z</time>
  <course>280.91</course>
  <speed>5.25121890612075</speed>
  <fix>3d</fix>
</trkpt>
<trkpt lat="40.0713083" lon="-105.2297453">
  <ele>1583.0</ele>
  <time>2026-08-28T17:49:38Z</time>
  <course>280.2</course>
  <speed>5.86</speed>
  <fix>3d</fix>
</trkpt>
<trkpt lat="40.0713113" lon="-105.2297666">
  <ele>1583.21</ele>
  <time>2026-08-28T17:49:38Z</time>
  <course>280.91</course>
  <speed>4.9864817256257945</speed>
  <fix>3d</fix>
</trkpt>
<trkpt lat="40.0713101" lon="-105.2297582">
  <ele>1583.0</ele>
  <time>2026-08-28T17:49:38Z</time>
  <course>280.2</course>
  <speed>5.31</speed>
  <fix>3d</fix>
</trkpt>
<trkpt lat="40.071312" lon="-105.2297722">
  <ele>1583.21</ele>
  <time>2026-08-28T17:49:38Z</time>
  <course>280.92</course>
  <speed>4.741444927445641</speed>
  <fix>3d</fix>
</trkpt>
<trkpt lat="40.0713101" lon="-105.2297582">
  <ele>1583.0</ele>
  <time>2026-08-28T17:49:38Z</time>
  <course>280.2</course>
  <speed>5.31</speed>
  <fix>3d</fix>
</trkpt>
<trkpt lat="40.0713127" lon="-105.2297775">
  <ele>1583.21</ele>
  <time>2026-08-28T17:49:38Z</time>
  <course>280.92</course>
  <speed>4.498144061721456</speed>
  <fix>3d</fix>
</trkpt>
<trkpt lat="40.0713101" lon="-105.2297582">
  <ele>1583.0</ele>
  <time>2026-08-28T17:49:38Z</time>
  <course>280.2</course>
  <speed>5.31</speed>
  <fix>3d</fix>
</trkpt>
<trkpt lat="40.0713134" lon="-105.2297825">
  <ele>1583.21</ele>
  <time>2026-08-28T17:49:38Z</time>
  <course>280.92</course>
  <speed>4.274540911021908</speed>
  <fix>3d</fix>
</trkpt>
<trkpt lat="40.0713117" lon="-105.2297699">
  <ele>1583.0</ele>
  <time>2026-08-28T17:49:38Z</time>
  <course>280.2</course>
  <speed>4.8</speed>
  <fix>3d</fix>
</trkpt>
<trkpt lat="40.0713141" lon="-105.2297873">
  <ele>1583.21</ele>
  <time>2026-08-28T17:49:38Z</time>
  <course>280.92</course>
  <speed>4.060788100849391</speed>
  <fix>3d</fix>
</trkpt>
<trkpt lat="40.0713117" lon="-105.2297699">
  <ele>1583.0</ele>
  <time>2026-08-28T17:49:38Z</time>
  <course>280.2</course>
  <speed>4.8</speed>
  <fix>3d</fix>
</trkpt>
<trkpt lat="40.0713147" lon="-105.2297918">
  <ele>1583.21</ele>
  <time>2026-08-28T17:49:38Z</time>
  <course>280.92</course>
  <speed>3.847037821493311</speed>
  <fix>3d</fix>
</trkpt>
<trkpt lat="40.0713132" lon="-105.2297805">
  <ele>1583.0</ele>
  <time>2026-08-28T17:49:38Z</time>
  <course>280.2</course>
  <speed>4.34</speed>
  <fix>3d</fix>
</trkpt>
<trkpt lat="40.0713152" lon="-105.2297961">
  <ele>1583.21</ele>
  <time>2026-08-28T17:49:38Z</time>
  <course>280.92</course>
  <speed>3.652998768135571</speed>
  <fix>3d</fix>
</trkpt>
<trkpt lat="40.0713132" lon="-105.2297805">
  <ele>1583.0</ele>
  <time>2026-08-28T17:49:38Z</time>
  <course>280.2</course>
  <speed>4.34</speed>
  <fix>3d</fix>
</trkpt>
<trkpt lat="40.0713158" lon="-105.2298001">
  <ele>1583.21</ele>
  <time>2026-08-28T17:49:38Z</time>
  <course>280.92</course>
  <speed>3.470518693221519</speed>
  <fix>3d</fix>
</trkpt>
<trkpt lat="40.0713145" lon="-105.2297901">
  <ele>1583.0</ele>
  <time>2026-08-28T17:49:38Z</time>
  <course>280.2</course>
  <speed>3.93</speed>
  <fix>3d</fix>
</trkpt>
<trkpt lat="40.0713163" lon="-105.229804">
  <ele>1583.21</ele>
  <time>2026-08-28T17:49:38Z</time>
  <course>280.92</course>
  <speed>3.2880389292099323</speed>
  <fix>3d</fix>
</trkpt>
<trkpt lat="40.0713145" lon="-105.2297901">
  <ele>1583.0</ele>
  <time>2026-08-28T17:49:38Z</time>
  <course>280.2</course>
  <speed>3.93</speed>
  <fix>3d</fix>
</trkpt>
<trkpt lat="40.0713168" lon="-105.2298077">
  <ele>1583.21</ele>
  <time>2026-08-28T17:49:38Z</time>
  <course>280.92</course>
  <speed>3.115413295214617</speed>
  <fix>3d</fix>
</trkpt>
<trkpt lat="40.0713157" lon="-105.2297987">
  <ele>1583.0</ele>
  <time>2026-08-28T17:49:38Z</time>
  <course>280.2</course>
  <speed>3.55</speed>
  <fix>3d</fix>
</trkpt>
<trkpt lat="40.0713173" lon="-105.2298112">
  <ele>1583.21</ele>
  <time>2026-08-28T17:49:38Z</time>
  <course>280.92</course>
  <speed>2.9624989451474915</speed>
  <fix>3d</fix>
</trkpt>
<trkpt lat="40.0713168" lon="-105.2298065">
  <ele>1583.0</ele>
  <time>2026-08-28T17:49:38Z</time>
  <course>280.2</course>
  <speed>3.22</speed>
  <fix>3d</fix>
</trkpt>
<trkpt lat="40.0713177" lon="-105.2298145">
  <ele>1583.21</ele>
  <time>2026-08-28T17:49:38Z</time>
  <course>280.92</course>
  <speed>2.809590717524529</speed>
  <fix>3d</fix>
</trkpt>
<trkpt lat="40.0713168" lon="-105.2298065">
  <ele>1583.0</ele>
  <time>2026-08-28T17:49:38Z</time>
  <course>280.2</course>
  <speed>3.22</speed>
  <fix>3d</fix>
</trkpt>
<trkpt lat="40.0713182" lon="-105.2298176">
  <ele>1583.21</ele>
  <time>2026-08-28T17:49:38Z</time>
  <course>280.92</course>
  <speed>2.6682203807032128</speed>
  <fix>3d</fix>
</trkpt>
<trkpt lat="40.0713177" lon="-105.2298136">
  <ele>1583.0</ele>
  <time>2026-08-28T17:49:38Z</time>
  <course>280.2</course>
  <speed>2.91</speed>
  <fix>3d</fix>
</trkpt>
<trkpt lat="40.0713186" lon="-105.2298207">
  <ele>1583.21</ele>
  <time>2026-08-28T17:49:38Z</time>
  <course>280.91</course>
  <speed>2.5268557536986553</speed>
  <fix>3d</fix>
</trkpt>
<trkpt lat="40.0713177" lon="-105.2298136">
  <ele>1583.0</ele>
  <time>2026-08-28T17:49:38Z</time>
  <course>280.2</course>
  <speed>2.91</speed>
  <fix>3d</fix>
</trkpt>
<trkpt lat="40.071319" lon="-105.2298236">
  <ele>1583.21</ele>
  <time>2026-08-28T17:49:38Z</time>
  <course>280.91</course>
  <speed>2.393658288060349</speed>
  <fix>3d</fix>
</trkpt>
<trkpt lat="40.0713186" lon="-105.22982">
  <ele>1583.0</ele>
  <time>2026-08-28T17:49:38Z</time>
  <course>280.2</course>
  <speed>2.63</speed>
  <fix>3d</fix>
</trkpt>
<trkpt lat="40.0713193" lon="-105.2298263">
  <ele>1583.22</ele>
  <time>2026-08-28T17:49:38Z</time>
  <course>280.91</course>
  <speed>2.272003521124032</speed>
  <fix>3d</fix>
</trkpt>
<trkpt lat="40.0713186" lon="-105.22982">
  <ele>1583.0</ele>
  <time>2026-08-28T17:49:38Z</time>
  <course>280.2</course>
  <speed>2.63</speed>
  <fix>3d</fix>
</trkpt>
<trkpt lat="40.0713197" lon="-105.2298289">
  <ele>1583.22</ele>
  <time>2026-08-28T17:49:38Z</time>
  <course>280.91</course>
  <speed>2.160208323287363</speed>
  <fix>3d</fix>
</trkpt>
<trkpt lat="40.0713194" lon="-105.2298258">
  <ele>1583.0</ele>
  <time>2026-08-28T17:49:38Z</time>
  <course>280.2</course>
  <speed>2.38</speed>
  <fix>3d</fix>
</trkpt>
<trkpt lat="40.07132" lon="-105.2298314">
  <ele>1583.22</ele>
  <time>2026-08-28T17:49:38Z</time>
  <course>280.91</course>
  <speed>2.0500975586542216</speed>
  <fix>3d</fix>
</trkpt>
<trkpt lat="40.0713194" lon="-105.2298258">
  <ele>1583.0</ele>
  <time>2026-08-28T17:49:38Z</time>
  <course>280.2</course>
  <speed>2.38</speed>
  <fix>3d</fix>
</trkpt>
<trkpt lat="40.0713204" lon="-105.2298338">
  <ele>1583.22</ele>
  <time>2026-08-28T17:49:38Z</time>
  <course>280.91</course>
  <speed>1.9382982226685346</speed>
  <fix>3d</fix>
</trkpt>
<trkpt lat="40.0713201" lon="-105.229831">
  <ele>1583.0</ele>
  <time>2026-08-28T17:49:38Z</time>
  <course>280.2</course>
  <speed>2.15</speed>
  <fix>3d</fix>
</trkpt>
<trkpt lat="40.0713207" lon="-105.2298361">
  <ele>1583.22</ele>
  <time>2026-08-28T17:49:38Z</time>
  <course>280.91</course>
  <speed>1.846212338816963</speed>
  <fix>3d</fix>
</trkpt>
<trkpt lat="40.0713201" lon="-105.229831">
  <ele>1583.0</ele>
  <time>2026-08-28T17:49:38Z</time>
  <course>280.2</course>
  <speed>2.15</speed>
  <fix>3d</fix>
</trkpt>
<trkpt lat="40.071321" lon="-105.2298382">
  <ele>1583.21</ele>
  <time>2026-08-28T17:49:38Z</time>
  <course>280.91</course>
  <speed>1.7459667808981933</speed>
  <fix>3d</fix>
</trkpt>
<trkpt lat="40.0713207" lon="-105.2298358">
  <ele>1583.0</ele>
  <time>2026-08-28T17:49:38Z</time>
  <course>280.2</course>
  <speed>1.95</speed>
  <fix>3d</fix>
</trkpt>
<trkpt lat="40.0713213" lon="-105.2298402">
  <ele>1583.21</ele>
  <time>2026-08-28T17:49:38Z</time>
  <course>280.91</course>
  <speed>1.6538742394752994</speed>
  <fix>3d</fix>
</trkpt>
<trkpt lat="40.0713207" lon="-105.2298358">
  <ele>1583.0</ele>
  <time>2026-08-28T17:49:38Z</time>
  <course>280.2</course>
  <speed>1.95</speed>
  <fix>3d</fix>
</trkpt>
<trkpt lat="40.0713215" lon="-105.2298422">
  <ele>1583.2</ele>
  <time>2026-08-28T17:49:38Z</time>
  <course>280.91</course>
  <speed>1.5733403954643763</speed>
  <fix>3d</fix>
</trkpt>
<trkpt lat="40.0713207" lon="-105.2298358">
  <ele>1583.0</ele>
  <time>2026-08-28T17:49:38Z</time>
  <course>280.2</course>
  <speed>1.95</speed>
  <fix>3d</fix>
</trkpt>
<trkpt lat="40.0713218" lon="-105.229844">
  <ele>1583.2</ele>
  <time>2026-08-28T17:49:38Z</time>
  <course>280.91</course>
  <speed>1.4911069713471263</speed>
  <fix>3d</fix>
</trkpt>
<trkpt lat="40.0713214" lon="-105.2298401">
  <ele>1583.0</ele>
  <time>2026-08-28T17:49:38Z</time>
  <course>280.2</course>
  <speed>1.76</speed>
  <fix>3d</fix>
</trkpt>
<trkpt lat="40.071322" lon="-105.2298457">
  <ele>1583.2</ele>
  <time>2026-08-28T17:49:38Z</time>
  <course>280.92</course>
  <speed>1.4105672617780407</speed>
  <fix>3d</fix>
</trkpt>
<trkpt lat="40.0713214" lon="-105.2298401">
  <ele>1583.0</ele>
  <time>2026-08-28T17:49:38Z</time>
  <course>280.2</course>
  <speed>1.76</speed>
  <fix>3d</fix>
</trkpt>
<trkpt lat="40.0713223" lon="-105.2298474">
  <ele>1583.2</ele>
  <time>2026-08-28T17:49:38Z</time>
  <course>280.92</course>
  <speed>1.3398880550254935</speed>
  <fix>3d</fix>
</trkpt>
<trkpt lat="40.0713219" lon="-105.229844">
  <ele>1583.0</ele>
  <time>2026-08-28T17:49:38Z</time>
  <course>280.2</course>
  <speed>1.59</speed>
  <fix>3d</fix>
</trkpt>
<trkpt lat="40.0713225" lon="-105.2298489">
  <ele>1583.2</ele>
  <time>2026-08-28T17:49:38Z</time>
  <course>280.92</course>
  <speed>1.2692123541787639</speed>
  <fix>3d</fix>
</trkpt>
<trkpt lat="40.0713219" lon="-105.229844">
  <ele>1583.0</ele>
  <time>2026-08-28T17:49:38Z</time>
  <course>280.2</course>
  <speed>1.59</speed>
  <fix>3d</fix>
</trkpt>
<trkpt lat="40.0713227" lon="-105.2298504">
  <ele>1583.2</ele>
  <time>2026-08-28T17:49:38Z</time>
  <course>280.92</course>
  <speed>1.2083873551142448</speed>
  <fix>3d</fix>
</trkpt>
<trkpt lat="40.0713224" lon="-105.2298475">
  <ele>1583.0</ele>
  <time>2026-08-28T17:49:38Z</time>
  <course>280.2</course>
  <speed>1.44</speed>
  <fix>3d</fix>
</trkpt>
<trkpt lat="40.0713229" lon="-105.2298519">
  <ele>1583.2</ele>
  <time>2026-08-28T17:49:38Z</time>
  <course>280.92</course>
  <speed>1.1377170122662315</speed>
  <fix>3d</fix>
</trkpt>
<trkpt lat="40.0713224" lon="-105.2298475">
  <ele>1583.0</ele>
  <time>2026-08-28T17:49:38Z</time>
  <course>280.2</course>
  <speed>1.44</speed>
  <fix>3d</fix>
</trkpt>
<trkpt lat="40.0713231" lon="-105.2298532">
  <ele>1583.2</ele>
  <time>2026-08-28T17:49:38Z</time>
  <course>280.92</course>
  <speed>1.0867382389517726</speed>
  <fix>3d</fix>
</trkpt>
<trkpt lat="40.0713229" lon="-105.2298506">
  <ele>1583.0</ele>
  <time>2026-08-28T17:49:38Z</time>
  <course>280.2</course>
  <speed>1.3</speed>
  <fix>3d</fix>
</trkpt>
<trkpt lat="40.0713233" lon="-105.2298545">
  <ele>1583.2</ele>
  <time>2026-08-28T17:49:38Z</time>
  <course>280.92</course>
  <speed>1.0259142264341596</speed>
  <fix>3d</fix>
</trkpt>
<trkpt lat="40.0713233" lon="-105.2298535">
  <ele>1583.0</ele>
  <time>2026-08-28T17:49:38Z</time>
  <course>280.2</course>
  <speed>1.18</speed>
  <fix>3d</fix>
</trkpt>
<trkpt lat="40.0713235" lon="-105.2298558">
  <ele>1583.2</ele>
  <time>2026-08-28T17:49:38Z</time>
  <course>280.92</course>
  <speed>0.9767292357659824</speed>
  <fix>3d</fix>
</trkpt>
<trkpt lat="40.0713233" lon="-105.2298535">
  <ele>1583.0</ele>
  <time>2026-08-28T17:49:38Z</time>
  <course>280.2</course>
  <speed>1.18</speed>
  <fix>3d</fix>
</trkpt>
<trkpt lat="40.0713237" lon="-105.2298569">
  <ele>1583.2</ele>
  <time>2026-08-28T17:49:38Z</time>
  <course>280.92</course>
  <speed>0.9257429448826494</speed>
  <fix>3d</fix>
</trkpt>
<trkpt lat="40.0713236" lon="-105.2298561">
  <ele>1583.0</ele>
  <time>2026-08-28T17:49:38Z</time>
  <course>280.2</course>
  <speed>1.07</speed>
  <fix>3d</fix>
</trkpt>
<trkpt lat="40.0713238" lon="-105.2298581">
  <ele>1583.2</ele>
  <time>2026-08-28T17:49:38Z</time>
  <course>280.92</course>
  <speed>0.8747571091451616</speed>
  <fix>3d</fix>
</trkpt>
<trkpt lat="40.0713236" lon="-105.2298561">
  <ele>1583.0</ele>
  <time>2026-08-28T17:49:38Z</time>
  <course>280.2</course>
  <speed>1.07</speed>
  <fix>3d</fix>
</trkpt>
<trkpt lat="40.071324" lon="-105.2298591">
  <ele>1583.2</ele>
  <time>2026-08-28T17:49:38Z</time>
  <course>280.93</course>
  <speed>0.8354639429682169</speed>
  <fix>3d</fix>
</trkpt>
<trkpt lat="40.0713239" lon="-105.2298585">
  <ele>1583.0</ele>
  <time>2026-08-28T17:49:38Z</time>
  <course>280.2</course>
  <speed>0.96</speed>
  <fix>3d</fix>
</trkpt>
<trkpt lat="40.0713241" lon="-105.2298602">
  <ele>1583.2</ele>
  <time>2026-08-28T17:49:40Z</time>
  <course>280.93</course>
  <speed>0.7942921376924236</speed>
  <fix>3d</fix>
</trkpt>
<trkpt lat="40.0713239" lon="-105.2298585">
  <ele>1583.0</ele>
  <time>2026-08-28T17:49:40Z</time>
  <course>280.2</course>
  <speed>0.96</speed>
  <fix>3d</fix>
</trkpt>
<trkpt lat="40.0713243" lon="-105.2298611">
  <ele>1583.2</ele>
  <time>2026-08-28T17:49:40Z</time>
  <course>280.93</course>
  <speed>0.7531268153505093</speed>
  <fix>3d</fix>
</trkpt>
<trkpt lat="40.0713242" lon="-105.2298606">
  <ele>1583.0</ele>
  <time>2026-08-28T17:49:40Z</time>
  <course>280.2</course>
  <speed>0.87</speed>
  <fix>3d</fix>
</trkpt>
<trkpt lat="40.0713244" lon="-105.2298621">
  <ele>1583.19</ele>
  <time>2026-08-28T17:49:40Z</time>
  <course>280.93</course>
  <speed>0.71386273190299</speed>
  <fix>3d</fix>
</trkpt>
<trkpt lat="40.0713242" lon="-105.2298606">
  <ele>1583.0</ele>
  <time>2026-08-28T17:49:40Z</time>
  <course>280.2</course>
  <speed>0.87</speed>
  <fix>3d</fix>
</trkpt>
<trkpt lat="40.0713246" lon="-105.2298629">
  <ele>1583.19</ele>
  <time>2026-08-28T17:49:40Z</time>
  <course>280.93</course>
  <speed>0.6726812023536856</speed>
  <fix>3d</fix>
</trkpt>
<trkpt lat="40.0713245" lon="-105.2298625">
  <ele>1583.0</ele>
  <time>2026-08-28T17:49:40Z</time>
  <course>280.2</course>
  <speed>0.79</speed>
  <fix>3d</fix>
</trkpt>
<trkpt lat="40.0713247" lon="-105.2298638">
  <ele>1583.19</ele>
  <time>2026-08-28T17:49:40Z</time>
  <course>280.94</course>
  <speed>0.6432728814430156</speed>
  <fix>3d</fix>
</trkpt>
<trkpt lat="40.0713245" lon="-105.2298625">
  <ele>1583.0</ele>
  <time>2026-08-28T17:49:40Z</time>
  <course>280.2</course>
  <speed>0.79</speed>
  <fix>3d</fix>
</trkpt>
<trkpt lat="40.0713248" lon="-105.2298646">
  <ele>1583.19</ele>
  <time>2026-08-28T17:49:40Z</time>
  <course>280.94</course>
  <speed>0.6139218191268331</speed>
  <fix>3d</fix>
</trkpt>
<trkpt lat="40.0713248" lon="-105.2298643">
  <ele>1583.0</ele>
  <time>2026-08-28T17:49:40Z</time>
  <course>280.2</course>
  <speed>0.71</speed>
  <fix>3d</fix>
</trkpt>
<trkpt lat="40.0713249" lon="-105.2298654">
  <ele>1583.19</ele>
  <time>2026-08-28T17:49:40Z</time>
  <course>280.94</course>
  <speed>0.5824946351684279</speed>
  <fix>3d</fix>
</trkpt>
<trkpt lat="40.0713248" lon="-105.2298643">
  <ele>1583.0</ele>
  <time>2026-08-28T17:49:40Z</time>
  <course>280.2</course>
  <speed>0.71</speed>
  <fix>3d</fix>
</trkpt>
<trkpt lat="40.071325" lon="-105.2298661">
  <ele>1583.19</ele>
  <time>2026-08-28T17:49:40Z</time>
  <course>280.94</course>
  <speed>0.5531726674375732</speed>
  <fix>3d</fix>
</trkpt>
<trkpt lat="40.071325" lon="-105.2298659">
  <ele>1583.0</ele>
  <time>2026-08-28T17:49:40Z</time>
  <course>280.2</course>
  <speed>0.65</speed>
  <fix>3d</fix>
</trkpt>
<trkpt lat="40.0713252" lon="-105.2298668">
  <ele>1583.18</ele>
  <time>2026-08-28T17:49:40Z</time>
  <course>280.94</course>
  <speed>0.5217278984298233</speed>
  <fix>3d</fix>
</trkpt>
<trkpt lat="40.071325" lon="-105.2298659">
  <ele>1583.0</ele>
  <time>2026-08-28T17:49:40Z</time>
  <course>280.2</course>
  <speed>0.65</speed>
  <fix>3d</fix>
</trkpt>
<trkpt lat="40.0713253" lon="-105.2298675">
  <ele>1583.18</ele>
  <time>2026-08-28T17:49:40Z</time>
  <course>280.94</course>
  <speed>0.49244289008980524</speed>
  <fix>3d</fix>
</trkpt>
<trkpt lat="40.071325" lon="-105.2298659">
  <ele>1583.0</ele>
  <time>2026-08-28T17:49:40Z</time>
  <course>280.2</course>
  <speed>0.65</speed>
  <fix>3d</fix>
</trkpt>
<trkpt lat="40.0713254" lon="-105.2298681">
  <ele>1583.17</ele>
  <time>2026-08-28T17:49:40Z</time>
  <course>280.94</course>
  <speed>0.4729693436154187</speed>
  <fix>3d</fix>
</trkpt>
<trkpt lat="40.0713251" lon="-105.2298673">
  <ele>1583.0</ele>
  <time>2026-08-28T17:49:40Z</time>
  <course>280.2</course>
  <speed>0.58</speed>
  <fix>3d</fix>
</trkpt>
<trkpt lat="40.0713255" lon="-105.2298687">
  <ele>1583.17</ele>
  <time>2026-08-28T17:49:40Z</time>
  <course>280.94</course>
  <speed>0.45122056690713913</speed>
  <fix>3d</fix>
</trkpt>
<trkpt lat="40.0713251" lon="-105.2298673">
  <ele>1583.0</ele>
  <time>2026-08-28T17:49:40Z</time>
  <course>280.2</course>
  <speed>0.58</speed>
  <fix>3d</fix>
</trkpt>
<trkpt lat="40.0713255" lon="-105.2298693">
  <ele>1583.17</ele>
  <time>2026-08-28T17:49:40Z</time>
  <course>280.94</course>
  <speed>0.4220189569201838</speed>
  <fix>3d</fix>
</trkpt>
<trkpt lat="40.0713253" lon="-105.2298686">
  <ele>1583.0</ele>
  <time>2026-08-28T17:49:40Z</time>
  <course>280.2</course>
  <speed>0.53</speed>
  <fix>3d</fix>
</trkpt>
<trkpt lat="40.0713256" lon="-105.2298698">
  <ele>1583.16</ele>
  <time>2026-08-28T17:49:40Z</time>
  <course>280.94</course>
  <speed>0.4026164427839479</speed>
  <fix>3d</fix>
</trkpt>
<trkpt lat="40.0713253" lon="-105.2298686">
  <ele>1583.0</ele>
  <time>2026-08-28T17:49:40Z</time>
  <course>280.2</course>
  <speed>0.53</speed>
  <fix>3d</fix>
</trkpt>
<trkpt lat="40.0713257" lon="-105.2298703">
  <ele>1583.16</ele>
  <time>2026-08-28T17:49:40Z</time>
  <course>280.94</course>
  <speed>0.38078865529319544</speed>
  <fix>3d</fix>
</trkpt>
<trkpt lat="40.0713255" lon="-105.2298698">
  <ele>1583.0</ele>
  <time>2026-08-28T17:49:40Z</time>
  <course>280.2</course>
  <speed>0.48</speed>
  <fix>3d</fix>
</trkpt>
<trkpt lat="40.0713258" lon="-105.2298708">
  <ele>1583.16</ele>
  <time>2026-08-28T17:49:40Z</time>
  <course>280.94</course>
  <speed>0.36138621999185305</speed>
  <fix>3d</fix>
</trkpt>
<trkpt lat="40.0713256" lon="-105.2298709">
  <ele>1583.0</ele>
  <time>2026-08-28T17:49:40Z</time>
  <course>280.2</course>
  <speed>0.43</speed>
  <fix>3d</fix>
</trkpt>
<trkpt lat="40.0713259" lon="-105.2298713">
  <ele>1583.16</ele>
  <time>2026-08-28T17:49:40Z</time>
  <course>280.94</course>
  <speed>0.35171010790137947</speed>
  <fix>3d</fix>
</trkpt>
<trkpt lat="40.0713256" lon="-105.2298709">
  <ele>1583.0</ele>
  <time>2026-08-28T17:49:40Z</time>
  <course>280.2</course>
  <speed>0.43</speed>
  <fix>3d</fix>
</trkpt>
<trkpt lat="40.0713259" lon="-105.2298718">
  <ele>1583.16</ele>
  <time>2026-08-28T17:49:40Z</time>
  <course>280.94</course>
  <speed>0.33241540277189324</speed>
  <fix>3d</fix>
</trkpt>
<trkpt lat="40.0713257" lon="-105.2298718">
  <ele>1583.0</ele>
  <time>2026-08-28T17:49:40Z</time>
  <course>280.2</course>
  <speed>0.39</speed>
  <fix>3d</fix>
</trkpt>
<trkpt lat="40.071326" lon="-105.2298722">
  <ele>1583.16</ele>
  <time>2026-08-28T17:49:40Z</time>
  <course>280.94</course>
  <speed>0.32015621187164245</speed>
  <fix>3d</fix>
</trkpt>
<trkpt lat="40.0713257" lon="-105.2298718">
  <ele>1583.0</ele>
  <time>2026-08-28T17:49:40Z</time>
  <course>280.2</course>
  <speed>0.39</speed>
  <fix>3d</fix>
</trkpt>
<trkpt lat="40.071326" lon="-105.2298726">
  <ele>1583.16</ele>
  <time>2026-08-28T17:49:40Z</time>
  <course>280.94</course>
  <speed>0.30083217912982646</speed>
  <fix>3d</fix>
</trkpt>
<trkpt lat="40.0713259" lon="-105.2298726">
  <ele>1583.0</ele>
  <time>2026-08-28T17:49:40Z</time>
  <course>280.21</course>
  <speed>0.35</speed>
  <fix>3d</fix>
</trkpt>
<trkpt lat="40.0713261" lon="-105.229873">
  <ele>1583.16</ele>
  <time>2026-08-28T17:49:40Z</time>
  <course>280.94</course>
  <speed>0.29120439557122074</speed>
  <fix>3d</fix>
</trkpt>
<trkpt lat="40.0713259" lon="-105.2298726">
  <ele>1583.0</ele>
  <time>2026-08-28T17:49:40Z</time>
  <course>280.21</course>
  <speed>0.35</speed>
  <fix>3d</fix>
</trkpt>
<trkpt lat="40.0713262" lon="-105.2298734">
  <ele>1583.16</ele>
  <time>2026-08-28T17:49:40Z</time>
  <course>280.94</course>
  <speed>0.2720294101747089</speed>
  <fix>3d</fix>
</trkpt>
<trkpt lat="40.071326" lon="-105.2298735">
  <ele>1583.0</ele>
  <time>2026-08-28T17:49:40Z</time>
  <course>280.21</course>
  <speed>0.32</speed>
  <fix>3d</fix>
</trkpt>
<trkpt lat="40.0713262" lon="-105.2298738">
  <ele>1583.16</ele>
  <time>2026-08-28T17:49:40Z</time>
  <course>280.94</course>
  <speed>0.26248809496813374</speed>
  <fix>3d</fix>
</trkpt>
<trkpt lat="40.071326" lon="-105.2298735">
  <ele>1583.0</ele>
  <time>2026-08-28T17:49:40Z</time>
  <course>280.21</course>
  <speed>0.32</speed>
  <fix>3d</fix>
</trkpt>
<trkpt lat="40.0713263" lon="-105.2298741">
  <ele>1583.15</ele>
  <time>2026-08-28T17:49:40Z</time>
  <course>280.94</course>
  <speed>0.25</speed>
  <fix>3d</fix>
</trkpt>
<trkpt lat="40.0713261" lon="-105.2298742">
  <ele>1583.0</ele>
  <time>2026-08-28T17:49:40Z</time>
  <course>280.21</course>
  <speed>0.29</speed>
  <fix>3d</fix>
</trkpt>
<trkpt lat="40.0713263" lon="-105.2298745">
  <ele>1583.15</ele>
  <time>2026-08-28T17:49:40Z</time>
  <course>280.93</course>
  <speed>0.24041630560342614</speed>
  <fix>3d</fix>
</trkpt>
<trkpt lat="40.0713261" lon="-105.2298742">
  <ele>1583.0</ele>
  <time>2026-08-28T17:49:40Z</time>
  <course>280.21</course>
  <speed>0.29</speed>
  <fix>3d</fix>
</trkpt>
<trkpt lat="40.0713264" lon="-105.2298748">
  <ele>1583.15</ele>
  <time>2026-08-28T17:49:40Z</time>
  <course>280.93</course>
  <speed>0.2308679276123039</speed>
  <fix>3d</fix>
</trkpt>
<trkpt lat="40.0713262" lon="-105.2298748">
  <ele>1583.0</ele>
  <time>2026-08-28T17:49:40Z</time>
  <course>280.21</course>
  <speed>0.26</speed>
  <fix>3d</fix>
</trkpt>
<trkpt lat="40.0713264" lon="-105.2298751">
  <ele>1583.15</ele>
  <time>2026-08-28T17:49:40Z</time>
  <course>280.93</course>
  <speed>0.22135943621178655</speed>
  <fix>3d</fix>
</trkpt>
<trkpt lat="40.0713262" lon="-105.2298748">
  <ele>1583.0</ele>
  <time>2026-08-28T17:49:40Z</time>
  <course>280.21</course>
  <speed>0.26</speed>
  <fix>3d</fix>
</trkpt>
<trkpt lat="40.0713265" lon="-105.2298754">
  <ele>1583.15</ele>
  <time>2026-08-28T17:49:40Z</time>
  <course>280.93</course>
  <speed>0.21189620100417092</speed>
  <fix>3d</fix>
</trkpt>
<trkpt lat="40.0713262" lon="-105.2298754">
  <ele>1583.0</ele>
  <time>2026-08-28T17:49:40Z</time>
  <course>280.21</course>
  <speed>0.23</speed>
  <fix>3d</fix>
</trkpt>
<trkpt lat="40.0713265" lon="-105.2298756">
  <ele>1583.15</ele>
  <time>2026-08-28T17:49:40Z</time>
  <course>280.92</course>
  <speed>0.19924858845171275</speed>
  <fix>3d</fix>
</trkpt>
<trkpt lat="40.0713262" lon="-105.2298754">
  <ele>1583.0</ele>
  <time>2026-08-28T17:49:40Z</time>
  <course>280.21</course>
  <speed>0.23</speed>
  <fix>3d</fix>
</trkpt>
<trkpt lat="40.0713265" lon="-105.2298759">
  <ele>1583.15</ele>
  <time>2026-08-28T17:49:40Z</time>
  <course>280.92</course>
  <speed>0.18973665961010278</speed>
  <fix>3d</fix>
</trkpt>
<trkpt lat="40.0713262" lon="-105.2298754">
  <ele>1583.0</ele>
  <time>2026-08-28T17:49:40Z</time>
  <course>280.21</course>
  <speed>0.23</speed>
  <fix>3d</fix>
</trkpt>
<trkpt lat="40.0713266" lon="-105.2298761">
  <ele>1583.15</ele>
  <time>2026-08-28T17:49:40Z</time>
  <course>280.92</course>
  <speed>0.18027756377319945</speed>
  <fix>3d</fix>
</trkpt>
<trkpt lat="40.0713263" lon="-105.2298759">
  <ele>1583.0</ele>
  <time>2026-08-28T17:49:40Z</time>
  <course>280.21</course>
  <speed>0.21</speed>
  <fix>3d</fix>
</trkpt>
<trkpt lat="40.0713266" lon="-105.2298764">
  <ele>1583.15</ele>
  <time>2026-08-28T17:49:40Z</time>
  <course>280.91</course>
  <speed>0.1708800749063506</speed>
  <fix>3d</fix>
</trkpt>
<trkpt lat="40.0713263" lon="-105.2298759">
  <ele>1583.0</ele>
  <time>2026-08-28T17:49:40Z</time>
  <course>280.21</course>
  <speed>0.21</speed>
  <fix>3d</fix>
</trkpt>
<trkpt lat="40.0713266" lon="-105.2298766">
  <ele>1583.15</ele>
  <time>2026-08-28T17:49:40Z</time>
  <course>280.91</course>
  <speed>0.1708800749063506</speed>
  <fix>3d</fix>
</trkpt>
<trkpt lat="40.0713264" lon="-105.2298764">
  <ele>1583.0</ele>
  <time>2026-08-28T17:49:40Z</time>
  <course>280.21</course>
  <speed>0.19</speed>
  <fix>3d</fix>
</trkpt>
<trkpt lat="40.0713267" lon="-105.2298768">
  <ele>1583.16</ele>
  <time>2026-08-28T17:49:40Z</time>
  <course>280.91</course>
  <speed>0.1615549442140351</speed>
  <fix>3d</fix>
</trkpt>
<trkpt lat="40.0713264" lon="-105.2298764">
  <ele>1583.0</ele>
  <time>2026-08-28T17:49:40Z</time>
  <course>280.21</course>
  <speed>0.19</speed>
  <fix>3d</fix>
</trkpt>
<trkpt lat="40.0713267" lon="-105.229877">
  <ele>1583.16</ele>
  <time>2026-08-28T17:49:40Z</time>
  <course>280.91</course>
  <speed>0.14866068747318506</speed>
  <fix>3d</fix>
</trkpt>
<trkpt lat="40.0713265" lon="-105.2298768">
  <ele>1583.0</ele>
  <time>2026-08-28T17:49:40Z</time>
  <course>280.21</course>
  <speed>0.17</speed>
  <fix>3d</fix>
</trkpt>
<trkpt lat="40.0713267" lon="-105.2298772">
  <ele>1583.16</ele>
  <time>2026-08-28T17:49:40Z</time>
  <course>280.9</course>
  <speed>0.14866068747318506</speed>
  <fix>3d</fix>
</trkpt>
<trkpt lat="40.0713265" lon="-105.2298768">
  <ele>1583.0</ele>
  <time>2026-08-28T17:49:40Z</time>
  <course>280.21</course>
  <speed>0.17</speed>
  <fix>3d</fix>
</trkpt>
<trkpt lat="40.0713267" lon="-105.2298774">
  <ele>1583.16</ele>
  <time>2026-08-28T17:49:40Z</time>
  <course>280.9</course>
  <speed>0.1392838827718412</speed>
  <fix>3d</fix>
</trkpt>
<trkpt lat="40.0713265" lon="-105.2298772">
  <ele>1583.0</ele>
  <time>2026-08-28T17:49:40Z</time>
  <course>280.21</course>
  <speed>0.16</speed>
  <fix>3d</fix>
</trkpt>
<trkpt lat="40.0713268" lon="-105.2298776">
  <ele>1583.16</ele>
  <time>2026-08-28T17:49:40Z</time>
  <course>280.9</course>
  <speed>0.13</speed>
  <fix>3d</fix>
</trkpt>
<trkpt lat="40.0713266" lon="-105.2298776">
  <ele>1583.0</ele>
  <time>2026-08-28T17:49:40Z</time>
  <course>280.22</course>
  <speed>0.14</speed>
  <fix>3d</fix>
</trkpt>
<trkpt lat="40.0713268" lon="-105.2298777">
  <ele>1583.16</ele>
  <time>2026-08-28T17:49:40Z</time>
  <course>280.89</course>
  <speed>0.13</speed>
  <fix>3d</fix>
</trkpt>
<trkpt lat="40.0713266" lon="-105.2298776">
  <ele>1583.0</ele>
  <time>2026-08-28T17:49:40Z</time>
  <course>280.22</course>
  <speed>0.14</speed>
  <fix>3d</fix>
</trkpt>
<trkpt lat="40.0713268" lon="-105.2298779">
  <ele>1583.16</ele>
  <time>2026-08-28T17:49:40Z</time>
  <course>280.89</course>
  <speed>0.12083045973594572</speed>
  <fix>3d</fix>
</trkpt>
<trkpt lat="40.0713266" lon="-105.2298779">
  <ele>1583.0</ele>
  <time>2026-08-28T17:49:40Z</time>
  <course>280.22</course>
  <speed>0.13</speed>
  <fix>3d</fix>
</trkpt>
<trkpt lat="40.0713268" lon="-105.229878">
  <ele>1583.16</ele>
  <time>2026-08-28T17:49:40Z</time>
  <course>280.89</course>
  <speed>0.12083045973594572</speed>
  <fix>3d</fix>
</trkpt>
<trkpt lat="40.0713266" lon="-105.2298779">
  <ele>1583.0</ele>
  <time>2026-08-28T17:49:40Z</time>
  <course>280.22</course>
  <speed>0.13</speed>
  <fix>3d</fix>
</trkpt>
<trkpt lat="40.0713268" lon="-105.2298782">
  <ele>1583.16</ele>
  <time>2026-08-28T17:49:40Z</time>
  <course>280.88</course>
  <speed>0.11704699910719625</speed>
  <fix>3d</fix>
</trkpt>
<trkpt lat="40.0713267" lon="-105.2298782">
  <ele>1583.0</ele>
  <time>2026-08-28T17:49:40Z</time>
  <course>280.22</course>
  <speed>0.11</speed>
  <fix>3d</fix>
</trkpt>
<trkpt lat="40.0713269" lon="-105.2298783">
  <ele>1583.16</ele>
  <time>2026-08-28T17:49:40Z</time>
  <course>280.88</course>
  <speed>0.10770329614269007</speed>
  <fix>3d</fix>
</trkpt>
<trkpt lat="40.0713267" lon="-105.2298782">
  <ele>1583.0</ele>
  <time>2026-08-28T17:49:40Z</time>
  <course>280.22</course>
  <speed>0.11</speed>
  <fix>3d</fix>
</trkpt>
<trkpt lat="40.0713269" lon="-105.2298785">
  <ele>1583.16</ele>
  <time>2026-08-28T17:49:40Z</time>
  <course>280.88</course>
  <speed>0.10770329614269007</speed>
  <fix>3d</fix>
</trkpt>
<trkpt lat="40.0713267" lon="-105.2298784">
  <ele>1583.0</ele>
  <time>2026-08-28T17:49:40Z</time>
  <course>280.22</course>
  <speed>0.1</speed>
  <fix>3d</fix>
</trkpt>
<trkpt lat="40.0713269" lon="-105.2298786">
  <ele>1583.15</ele>
  <time>2026-08-28T17:49:40Z</time>
  <course>280.87</course>
  <speed>0.09848857801796104</speed>
  <fix>3d</fix>
</trkpt>
<trkpt lat="40.0713267" lon="-105.2298784">
  <ele>1583.0</ele>
  <time>2026-08-28T17:49:40Z</time>
  <course>280.22</course>
  <speed>0.1</speed>
  <fix>3d</fix>
</trkpt>
<trkpt lat="40.0713269" lon="-105.2298787">
  <ele>1583.15</ele>
  <time>2026-08-28T17:49:40Z</time>
  <course>280.87</course>
  <speed>0.09848857801796104</speed>
  <fix>3d</fix>
</trkpt>
<trkpt lat="40.0713267" lon="-105.2298787">
  <ele>1583.0</ele>
  <time>2026-08-28T17:49:40Z</time>
  <course>280.23</course>
  <speed>0.09</speed>
  <fix>3d</fix>
</trkpt>
<trkpt lat="40.0713269" lon="-105.2298788">
  <ele>1583.16</ele>
  <time>2026-08-28T17:49:40Z</time>
  <course>280.87</course>
  <speed>0.09848857801796104</speed>
  <fix>3d</fix>
</trkpt>
<trkpt lat="40.0713267" lon="-105.2298787">
  <ele>1583.0</ele>
  <time>2026-08-28T17:49:40Z</time>
  <course>280.23</course>
  <speed>0.09</speed>
  <fix>3d</fix>
</trkpt>
<trkpt lat="40.0713269" lon="-105.2298789">
  <ele>1583.16</ele>
  <time>2026-08-28T17:49:40Z</time>
  <course>280.86</course>
  <speed>0.08944271909999159</speed>
  <fix>3d</fix>
</trkpt>
<trkpt lat="40.0713268" lon="-105.2298788">
  <ele>1583.0</ele>
  <time>2026-08-28T17:49:40Z</time>
  <course>280.23</course>
  <speed>0.08</speed>
  <fix>3d</fix>
</trkpt>
<trkpt lat="40.071327" lon="-105.229879">
  <ele>1583.16</ele>
  <time>2026-08-28T17:49:40Z</time>
  <course>280.86</course>
  <speed>0.08944271909999159</speed>
  <fix>3d</fix>
</trkpt>
<trkpt lat="40.0713268" lon="-105.2298788">
  <ele>1583.0</ele>
  <time>2026-08-28T17:49:40Z</time>
  <course>280.23</course>
  <speed>0.08</speed>
  <fix>3d</fix>
</trkpt>
<trkpt lat="40.071327" lon="-105.2298791">
  <ele>1583.15</ele>
  <time>2026-08-28T17:49:40Z</time>
  <course>280.86</course>
  <speed>0.07615773105863909</speed>
  <fix>3d</fix>
</trkpt>
<trkpt lat="40.0713268" lon="-105.2298791">
  <ele>1583.0</ele>
  <time>2026-08-28T17:49:40Z</time>
  <course>280.23</course>
  <speed>0.07</speed>
  <fix>3d</fix>
</trkpt>
<trkpt lat="40.071327" lon="-105.2298792">
  <ele>1583.15</ele>
  <time>2026-08-28T17:49:40Z</time>
  <course>280.85</course>
  <speed>0.07615773105863909</speed>
  <fix>3d</fix>
</trkpt>
<trkpt lat="40.0713268" lon="-105.2298791">
  <ele>1583.0</ele>
  <time>2026-08-28T17:49:40Z</time>
  <course>280.23</course>
  <speed>0.07</speed>
  <fix>3d</fix>
</trkpt>
<trkpt lat="40.071327" lon="-105.2298793">
  <ele>1583.15</ele>
  <time>2026-08-28T17:49:40Z</time>
  <course>280.85</course>
  <speed>0.07615773105863909</speed>
  <fix>3d</fix>
</trkpt>
<trkpt lat="40.0713268" lon="-105.2298791">
  <ele>1583.0</ele>
  <time>2026-08-28T17:49:40Z</time>
  <course>280.23</course>
  <speed>0.07</speed>
  <fix>3d</fix>
</trkpt>
<trkpt lat="40.071327" lon="-105.2298794">
  <ele>1583.15</ele>
  <time>2026-08-28T17:49:40Z</time>
  <course>280.85</course>
  <speed>0.07615773105863909</speed>
  <fix>3d</fix>
</trkpt>
<trkpt lat="40.0713268" lon="-105.2298792">
  <ele>1583.0</ele>
  <time>2026-08-28T17:49:40Z</time>
  <course>280.24</course>
  <speed>0.07</speed>
  <fix>3d</fix>
</trkpt>
<trkpt lat="40.071327" lon="-105.2298795">
  <ele>1583.15</ele>
  <time>2026-08-28T17:49:40Z</time>
  <course>280.85</course>
  <speed>0.0670820393249937</speed>
  <fix>3d</fix>
</trkpt>
<trkpt lat="40.0713268" lon="-105.2298792">
  <ele>1583.0</ele>
  <time>2026-08-28T17:49:40Z</time>
  <course>280.24</course>
  <speed>0.07</speed>
  <fix>3d</fix>
</trkpt>
<trkpt lat="40.071327" lon="-105.2298796">
  <ele>1583.15</ele>
  <time>2026-08-28T17:49:40Z</time>
  <course>280.84</course>
  <speed>0.0670820393249937</speed>
  <fix>3d</fix>
</trkpt>
<trkpt lat="40.0713268" lon="-105.2298794">
  <ele>1583.0</ele>
  <time>2026-08-28T17:49:40Z</time>
  <course>280.24</course>
  <speed>0.06</speed>
  <fix>3d</fix>
</trkpt>
<trkpt lat="40.071327" lon="-105.2298796">
  <ele>1583.15</ele>
  <time>2026-08-28T17:49:40Z</time>
  <course>280.84</course>
  <speed>0.0670820393249937</speed>
  <fix>3d</fix>
</trkpt>
<trkpt lat="40.0713268" lon="-105.2298794">
  <ele>1583.0</ele>
  <time>2026-08-28T17:49:40Z</time>
  <course>280.24</course>
  <speed>0.06</speed>
  <fix>3d</fix>
</trkpt>
<trkpt lat="40.071327" lon="-105.2298797">
  <ele>1583.15</ele>
  <time>2026-08-28T17:49:40Z</time>
  <course>280.84</course>
  <speed>0.0670820393249937</speed>
  <fix>3d</fix>
</trkpt>
<trkpt lat="40.0713268" lon="-105.2298795">
  <ele>1583.0</ele>
  <time>2026-08-28T17:49:40Z</time>
  <course>280.24</course>
  <speed>0.05</speed>
  <fix>3d</fix>
</trkpt>
<trkpt lat="40.071327" lon="-105.2298798">
  <ele>1583.15</ele>
  <time>2026-08-28T17:49:40Z</time>
  <course>280.84</course>
  <speed>0.053851648071345036</speed>
  <fix>3d</fix>
</trkpt>
<trkpt lat="40.0713268" lon="-105.2298797">
  <ele>1583.0</ele>
  <time>2026-08-28T17:49:40Z</time>
  <course>280.25</course>
  <speed>0.05</speed>
  <fix>3d</fix>
</trkpt>
<trkpt lat="40.071327" lon="-105.2298798">
  <ele>1583.16</ele>
  <time>2026-08-28T17:49:40Z</time>
  <course>280.83</course>
  <speed>0.053851648071345036</speed>
  <fix>3d</fix>
</trkpt>
<trkpt lat="40.0713268" lon="-105.2298797">
  <ele>1583.0</ele>
  <time>2026-08-28T17:49:40Z</time>
  <course>280.25</course>
  <speed>0.05</speed>
  <fix>3d</fix>
</trkpt>
<trkpt lat="40.071327" lon="-105.2298799">
  <ele>1583.16</ele>
  <time>2026-08-28T17:49:40Z</time>
  <course>280.83</course>
  <speed>0.053851648071345036</speed>
  <fix>3d</fix>
</trkpt>
<trkpt lat="40.0713268" lon="-105.2298798">
  <ele>1583.0</ele>
  <time>2026-08-28T17:49:40Z</time>
  <course>280.25</course>
  <speed>0.04</speed>
  <fix>3d</fix>
</trkpt>
<trkpt lat="40.071327" lon="-105.2298799">
  <ele>1583.16</ele>
  <time>2026-08-28T17:49:40Z</time>
  <course>280.83</course>
  <speed>0.053851648071345036</speed>
  <fix>3d</fix>
</trkpt>
<trkpt lat="40.0713268" lon="-105.2298798">
  <ele>1583.0</ele>
  <time>2026-08-28T17:49:40Z</time>
  <course>280.25</course>
  <speed>0.04</speed>
  <fix>3d</fix>
</trkpt>
<trkpt lat="40.071327" lon="-105.22988">
  <ele>1583.17</ele>
  <time>2026-08-28T17:49:40Z</time>
  <course>280.82</course>
  <speed>0.053851648071345036</speed>
  <fix>3d</fix>
</trkpt>
<trkpt lat="40.0713268" lon="-105.2298799">
  <ele>1583.0</ele>
  <time>2026-08-28T17:49:40Z</time>
  <course>280.26</course>
  <speed>0.04</speed>
  <fix>3d</fix>
</trkpt>
<trkpt lat="40.071327" lon="-105.22988">
  <ele>1583.17</ele>
  <time>2026-08-28T17:49:40Z</time>
  <course>280.82</course>
  <speed>0.044721359549995794</speed>
  <fix>3d</fix>
</trkpt>
<trkpt lat="40.0713268" lon="-105.2298799">
  <ele>1583.0</ele>
  <time>2026-08-28T17:49:40Z</time>
  <course>280.26</course>
  <speed>0.04</speed>
  <fix>3d</fix>
</trkpt>
<trkpt lat="40.071327" lon="-105.2298801">
  <ele>1583.17</ele>
  <time>2026-08-28T17:49:40Z</time>
  <course>280.82</course>
  <speed>0.044721359549995794</speed>
  <fix>3d</fix>
</trkpt>
<trkpt lat="40.0713268" lon="-105.22988">
  <ele>1583.0</ele>
  <time>2026-08-28T17:49:40Z</time>
  <course>280.27</course>
  <speed>0.03</speed>
  <fix>3d</fix>
</trkpt>
<trkpt lat="40.071327" lon="-105.2298801">
  <ele>1583.17</ele>
  <time>2026-08-28T17:49:40Z</time>
  <course>280.82</course>
  <speed>0.044721359549995794</speed>
  <fix>3d</fix>
</trkpt>
<trkpt lat="40.0713268" lon="-105.22988">
  <ele>1583.0</ele>
  <time>2026-08-28T17:49:40Z</time>
  <course>280.27</course>
  <speed>0.03</speed>
  <fix>3d</fix>
</trkpt>
<trkpt lat="40.071327" lon="-105.2298802">
  <ele>1583.17</ele>
  <time>2026-08-28T17:49:40Z</time>
  <course>280.82</course>
  <speed>0.044721359549995794</speed>
  <fix>3d</fix>
</trkpt>
<trkpt lat="40.0713268" lon="-105.2298801">
  <ele>1583.0</ele>
  <time>2026-08-28T17:49:40Z</time>
  <course>280.27</course>
  <speed>0.03</speed>
  <fix>3d</fix>
</trkpt>
<trkpt lat="40.071327" lon="-105.2298802">
  <ele>1583.17</ele>
  <time>2026-08-28T17:49:40Z</time>
  <course>280.81</course>
  <speed>0.0412310562561766</speed>
  <fix>3d</fix>
</trkpt>
<trkpt lat="40.0713268" lon="-105.2298801">
  <ele>1583.0</ele>
  <time>2026-08-28T17:49:40Z</time>
  <course>280.27</course>
  <speed>0.03</speed>
  <fix>3d</fix>
</trkpt>
<trkpt lat="40.071327" lon="-105.2298803">
  <ele>1583.17</ele>
  <time>2026-08-28T17:49:40Z</time>
  <course>280.81</course>
  <speed>0.0412310562561766</speed>
  <fix>3d</fix>
</trkpt>
<trkpt lat="40.0713269" lon="-105.2298802">
  <ele>1583.0</ele>
  <time>2026-08-28T17:49:40Z</time>
  <course>280.28</course>
  <speed>0.03</speed>
  <fix>3d</fix>
</trkpt>
<trkpt lat="40.071327" lon="-105.2298803">
  <ele>1583.17</ele>
  <time>2026-08-28T17:49:40Z</time>
  <course>280.81</course>
  <speed>0.0316227766016838</speed>
  <fix>3d</fix>
</trkpt>
<trkpt lat="40.0713269" lon="-105.2298802">
  <ele>1583.0</ele>
  <time>2026-08-28T17:49:40Z</time>
  <course>280.28</course>
  <speed>0.03</speed>
  <fix>3d</fix>
</trkpt>
<trkpt lat="40.071327" lon="-105.2298803">
  <ele>1583.17</ele>
  <time>2026-08-28T17:49:40Z</time>
  <course>280.81</course>
  <speed>0.0316227766016838</speed>
  <fix>3d</fix>
</trkpt>
<trkpt lat="40.0713269" lon="-105.2298802">
  <ele>1583.0</ele>
  <time>2026-08-28T17:49:40Z</time>
  <course>280.29</course>
  <speed>0.02</speed>
  <fix>3d</fix>
</trkpt>
<trkpt lat="40.071327" lon="-105.2298804">
  <ele>1583.17</ele>
  <time>2026-08-28T17:49:40Z</time>
  <course>280.81</course>
  <speed>0.0316227766016838</speed>
  <fix>3d</fix>
</trkpt>
<trkpt lat="40.0713269" lon="-105.2298802">
  <ele>1583.0</ele>
  <time>2026-08-28T17:49:40Z</time>
  <course>280.29</course>
  <speed>0.02</speed>
  <fix>3d</fix>
</trkpt>
<trkpt lat="40.071327" lon="-105.2298804">
  <ele>1583.17</ele>
  <time>2026-08-28T17:49:40Z</time>
  <course>280.81</course>
  <speed>0.0316227766016838</speed>
  <fix>3d</fix>
</trkpt>
<trkpt lat="40.0713269" lon="-105.2298802">
  <ele>1583.0</ele>
  <time>2026-08-28T17:49:40Z</time>
  <course>280.29</course>
  <speed>0.02</speed>
  <fix>3d</fix>
</trkpt>
<trkpt lat="40.071327" lon="-105.2298804">
  <ele>1583.17</ele>
  <time>2026-08-28T17:49:40Z</time>
  <course>280.81</course>
  <speed>0.0316227766016838</speed>
  <fix>3d</fix>
</trkpt>
<trkpt lat="40.0713269" lon="-105.2298803">
  <ele>1583.0</ele>
  <time>2026-08-28T17:49:40Z</time>
  <course>280.3</course>
  <speed>0.02</speed>
  <fix>3d</fix>
</trkpt>
<trkpt lat="40.071327" lon="-105.2298804">
  <ele>1583.17</ele>
  <time>2026-08-28T17:49:40Z</time>
  <course>280.8</course>
  <speed>0.0316227766016838</speed>
  <fix>3d</fix>
</trkpt>
<trkpt lat="40.0713269" lon="-105.2298803">
  <ele>1583.0</ele>
  <time>2026-08-28T17:49:40Z</time>
  <course>280.3</course>
  <speed>0.02</speed>
  <fix>3d</fix>
</trkpt>
<trkpt lat="40.071327" lon="-105.2298805">
  <ele>1583.17</ele>
  <time>2026-08-28T17:49:40Z</time>
  <course>280.8</course>
  <speed>0.0316227766016838</speed>
  <fix>3d</fix>
</trkpt>
<trkpt lat="40.0713269" lon="-105.2298804">
  <ele>1583.0</ele>
  <time>2026-08-28T17:49:40Z</time>
  <course>280.31</course>
  <speed>0.02</speed>
  <fix>3d</fix>
</trkpt>
<trkpt lat="40.071327" lon="-105.2298805">
  <ele>1583.17</ele>
  <time>2026-08-28T17:49:40Z</time>
  <course>280.8</course>
  <speed>0.0316227766016838</speed>
  <fix>3d</fix>
</trkpt>
<trkpt lat="40.0713269" lon="-105.2298804">
  <ele>1583.0</ele>
  <time>2026-08-28T17:49:40Z</time>
  <course>280.31</course>
  <speed>0.02</speed>
  <fix>3d</fix>
</trkpt>
<trkpt lat="40.071327" lon="-105.2298805">
  <ele>1583.17</ele>
  <time>2026-08-28T17:49:40Z</time>
  <course>280.8</course>
  <speed>0.022360679774997897</speed>
  <fix>3d</fix>
</trkpt>
<trkpt lat="40.0713269" lon="-105.2298804">
  <ele>1583.0</ele>
  <time>2026-08-28T17:49:40Z</time>
  <course>280.32</course>
  <speed>0.02</speed>
  <fix>3d</fix>
</trkpt>
<trkpt lat="40.071327" lon="-105.2298805">
  <ele>1583.17</ele>
  <time>2026-08-28T17:49:40Z</time>
  <course>280.8</course>
  <speed>0.022360679774997897</speed>
  <fix>3d</fix>
</trkpt>
<trkpt lat="40.0713269" lon="-105.2298804">
  <ele>1583.0</ele>
  <time>2026-08-28T17:49:40Z</time>
  <course>280.32</course>
  <speed>0.02</speed>
  <fix>3d</fix>
</trkpt>
<trkpt lat="40.071327" lon="-105.2298806">
  <ele>1583.17</ele>
  <time>2026-08-28T17:49:40Z</time>
  <course>280.8</course>
  <speed>0.022360679774997897</speed>
  <fix>3d</fix>
</trkpt>
<trkpt lat="40.0713269" lon="-105.2298804">
  <ele>1583.0</ele>
  <time>2026-08-28T17:49:40Z</time>
  <course>280.34</course>
  <speed>0.01</speed>
  <fix>3d</fix>
</trkpt>
<trkpt lat="40.071327" lon="-105.2298806">
  <ele>1583.17</ele>
  <time>2026-08-28T17:49:40Z</time>
  <course>280.8</course>
  <speed>0.02</speed>
  <fix>3d</fix>
</trkpt>
<trkpt lat="40.0713269" lon="-105.2298805">
  <ele>1583.0</ele>
  <time>2026-08-28T17:49:40Z</time>
  <course>280.35</course>
  <speed>0.01</speed>
  <fix>3d</fix>
</trkpt>
<trkpt lat="40.071327" lon="-105.2298806">
  <ele>1583.17</ele>
  <time>2026-08-28T17:49:40Z</time>
  <course>280.8</course>
  <speed>0.02</speed>
  <fix>3d</fix>
</trkpt>
<trkpt lat="40.0713269" lon="-105.2298805">
  <ele>1583.0</ele>
  <time>2026-08-28T17:49:40Z</time>
  <course>280.35</course>
  <speed>0.01</speed>
  <fix>3d</fix>
</trkpt>
<trkpt lat="40.071327" lon="-105.2298806">
  <ele>1583.17</ele>
  <time>2026-08-28T17:49:40Z</time>
  <course>280.8</course>
  <speed>0.02</speed>
  <fix>3d</fix>
</trkpt>
<trkpt lat="40.0713269" lon="-105.2298806">
  <ele>1583.0</ele>
  <time>2026-08-28T17:49:40Z</time>
  <course>280.37</course>
  <speed>0.01</speed>
  <fix>3d</fix>
</trkpt>
<trkpt lat="40.071327" lon="-105.2298806">
  <ele>1583.17</ele>
  <time>2026-08-28T17:49:40Z</time>
  <course>280.79</course>
  <speed>0.02</speed>
  <fix>3d</fix>
</trkpt>
<trkpt lat="40.0713269" lon="-105.2298806">
  <ele>1583.0</ele>
  <time>2026-08-28T17:49:40Z</time>
  <course>280.37</course>
  <speed>0.01</speed>
  <fix>3d</fix>
</trkpt>
<trkpt lat="40.071327" lon="-105.2298806">
  <ele>1583.17</ele>
  <time>2026-08-28T17:49:40Z</time>
  <course>280.79</course>
  <speed>0.02</speed>
  <fix>3d</fix>
</trkpt>
<trkpt lat="40.0713269" lon="-105.2298806">
  <ele>1583.0</ele>
  <time>2026-08-28T17:49:40Z</time>
  <course>280.38</course>
  <speed>0.01</speed>
  <fix>3d</fix>
</trkpt>
<trkpt lat="40.071327" lon="-105.2298807">
  <ele>1583.17</ele>
  <time>2026-08-28T17:49:40Z</time>
  <course>280.79</course>
  <speed>0.02</speed>
  <fix>3d</fix>
</trkpt>
<trkpt lat="40.0713269" lon="-105.2298806">
  <ele>1583.0</ele>
  <time>2026-08-28T17:49:40Z</time>
  <course>280.38</course>
  <speed>0.01</speed>
  <fix>3d</fix>
</trkpt>
<trkpt lat="40.071327" lon="-105.2298807">
  <ele>1583.17</ele>
  <time>2026-08-28T17:49:40Z</time>
  <course>280.79</course>
  <speed>0.02</speed>
  <fix>3d</fix>
</trkpt>
<trkpt lat="40.0713269" lon="-105.2298806">
  <ele>1583.0</ele>
  <time>2026-08-28T17:49:40Z</time>
  <course>280.4</course>
  <speed>0.01</speed>
  <fix>3d</fix>
</trkpt>
<trkpt lat="40.071327" lon="-105.2298807">
  <ele>1583.17</ele>
  <time>2026-08-28T17:49:40Z</time>
  <course>280.79</course>
  <speed>0.02</speed>
  <fix>3d</fix>
</trkpt>
<trkpt lat="40.0713269" lon="-105.2298806">
  <ele>1583.0</ele>
  <time>2026-08-28T17:49:40Z</time>
  <course>280.4</course>
  <speed>0.01</speed>
  <fix>3d</fix>
</trkpt>
<trkpt lat="40.071327" lon="-105.2298807">
  <ele>1583.17</ele>
  <time>2026-08-28T17:49:40Z</time>
  <course>280.79</course>
  <speed>0.01</speed>
  <fix>3d</fix>
</trkpt>
<trkpt lat="40.0713269" lon="-105.2298807">
  <ele>1583.0</ele>
  <time>2026-08-28T17:49:40Z</time>
  <course>280.42</course>
  <speed>0.01</speed>
  <fix>3d</fix>
</trkpt>
<trkpt lat="40.071327" lon="-105.2298807">
  <ele>1583.17</ele>
  <time>2026-08-28T17:49:40Z</time>
  <course>280.79</course>
  <speed>0.01</speed>
  <fix>3d</fix>
</trkpt>
<trkpt lat="40.0713269" lon="-105.2298807">
  <ele>1583.0</ele>
  <time>2026-08-28T17:49:40Z</time>
  <course>280.42</course>
  <speed>0.01</speed>
  <fix>3d</fix>
</trkpt>
<trkpt lat="40.071327" lon="-105.2298807">
  <ele>1583.16</ele>
  <time>2026-08-28T17:49:40Z</time>
  <course>280.79</course>
  <speed>0.01</speed>
  <fix>3d</fix>
</trkpt>
<trkpt lat="40.0713269" lon="-105.2298807">
  <ele>1583.0</ele>
  <time>2026-08-28T17:49:40Z</time>
  <course>280.45</course>
  <speed>0.01</speed>
  <fix>3d</fix>
</trkpt>
<trkpt lat="40.071327" lon="-105.2298807">
  <ele>1583.16</ele>
  <time>2026-08-28T17:49:40Z</time>
  <course>280.79</course>
  <speed>0.01</speed>
  <fix>3d</fix>
</trkpt>
<trkpt lat="40.0713269" lon="-105.2298807">
  <ele>1583.0</ele>
  <time>2026-08-28T17:49:40Z</time>
  <course>280.45</course>
  <speed>0.01</speed>
  <fix>3d</fix>
</trkpt>
<trkpt lat="40.071327" lon="-105.2298808">
  <ele>1583.16</ele>
  <time>2026-08-28T17:49:40Z</time>
  <course>280.79</course>
  <speed>0.01</speed>
  <fix>3d</fix>
</trkpt>
<trkpt lat="40.0713269" lon="-105.2298807">
  <ele>1583.0</ele>
  <time>2026-08-28T17:49:40Z</time>
  <course>280.47</course>
  <speed>0.0</speed>
  <fix>3d</fix>
</trkpt>
<trkpt lat="40.071327" lon="-105.2298808">
  <ele>1583.15</ele>
  <time>2026-08-28T17:49:40Z</time>
  <course>280.79</course>
  <speed>0.01</speed>
  <fix>3d</fix>
</trkpt>
<trkpt lat="40.0713269" lon="-105.2298807">
  <ele>1583.0</ele>
  <time>2026-08-28T17:49:40Z</time>
  <course>280.47</course>
  <speed>0.0</speed>
  <fix>3d</fix>
</trkpt>
<trkpt lat="40.071327" lon="-105.2298808">
  <ele>1583.15</ele>
  <time>2026-08-28T17:49:40Z</time>
  <course>280.79</course>
  <speed>0.01</speed>
  <fix>3d</fix>
</trkpt>
<trkpt lat="40.0713269" lon="-105.2298807">
  <ele>1583.0</ele>
  <time>2026-08-28T17:49:40Z</time>
  <course>280.47</course>
  <speed>0.0</speed>
  <fix>3d</fix>
</trkpt>
<trkpt lat="40.071327" lon="-105.2298808">
  <ele>1583.15</ele>
  <time>2026-08-28T17:49:40Z</time>
  <course>280.79</course>
  <speed>0.01</speed>
  <fix>3d</fix>
</trkpt>
<trkpt lat="40.0713269" lon="-105.2298807">
  <ele>1583.0</ele>
  <time>2026-08-28T17:49:40Z</time>
  <course>280.5</course>
  <speed>0.0</speed>
  <fix>3d</fix>
</trkpt>
<trkpt lat="40.071327" lon="-105.2298808">
  <ele>1583.15</ele>
  <time>2026-08-28T17:49:40Z</time>
  <course>280.79</course>
  <speed>0.01</speed>
  <fix>3d</fix>
</trkpt>
<trkpt lat="40.0713269" lon="-105.2298807">
  <ele>1583.0</ele>
  <time>2026-08-28T17:49:40Z</time>
  <course>280.5</course>
  <speed>0.0</speed>
  <fix>3d</fix>
</trkpt>
<trkpt lat="40.071327" lon="-105.2298808">
  <ele>1583.15</ele>
  <time>2026-08-28T17:49:40Z</time>
  <course>280.79</course>
  <speed>0.01</speed>
  <fix>3d</fix>
</trkpt>
<trkpt lat="40.0713269" lon="-105.2298807">
  <ele>1583.0</ele>
  <time>2026-08-28T17:49:40Z</time>
  <course>280.54</course>
  <speed>0.0</speed>
  <fix>3d</fix>
</trkpt>
<trkpt lat="40.071327" lon="-105.2298808">
  <ele>1583.16</ele>
  <time>2026-08-28T17:49:40Z</time>
  <course>280.78</course>
  <speed>0.01</speed>
  <fix>3d</fix>
</trkpt>
<trkpt lat="40.0713269" lon="-105.2298807">
  <ele>1583.0</ele>
  <time>2026-08-28T17:49:40Z</time>
  <course>280.54</course>
  <speed>0.0</speed>
  <fix>3d</fix>
</trkpt>
<trkpt lat="40.071327" lon="-105.2298808">
  <ele>1583.16</ele>
  <time>2026-08-28T17:49:40Z</time>
  <course>280.78</course>
  <speed>0.01</speed>
  <fix>3d</fix>
</trkpt>
<trkpt lat="40.0713269" lon="-105.2298807">
  <ele>1583.0</ele>
  <time>2026-08-28T17:49:40Z</time>
  <course>280.57</course>
  <speed>0.0</speed>
  <fix>3d</fix>
</trkpt>
<trkpt lat="40.071327" lon="-105.2298808">
  <ele>1583.16</ele>
  <time>2026-08-28T17:49:40Z</time>
  <course>280.78</course>
  <speed>0.01</speed>
  <fix>3d</fix>
</trkpt>
<trkpt lat="40.0713269" lon="-105.2298807">
  <ele>1583.0</ele>
  <time>2026-08-28T17:49:40Z</time>
  <course>280.61</course>
  <speed>0.0</speed>
  <fix>3d</fix>
</trkpt>
<trkpt lat="40.071327" lon="-105.2298808">
  <ele>1583.16</ele>
  <time>2026-08-28T17:49:40Z</time>
  <course>280.78</course>
  <speed>0.01</speed>
  <fix>3d</fix>
</trkpt>
<trkpt lat="40.0713269" lon="-105.2298807">
  <ele>1583.0</ele>
  <time>2026-08-28T17:49:40Z</time>
  <course>280.61</course>
  <speed>0.0</speed>
  <fix>3d</fix>
</trkpt>
<trkpt lat="40.071327" lon="-105.2298808">
  <ele>1583.15</ele>
  <time>2026-08-28T17:49:40Z</time>
  <course>280.78</course>
  <speed>0.01</speed>
  <fix>3d</fix>
</trkpt>
<trkpt lat="40.0713269" lon="-105.2298807">
  <ele>1583.0</ele>
  <time>2026-08-28T17:49:40Z</time>
  <course>280.65</course>
  <speed>0.0</speed>
  <fix>3d</fix>
</trkpt>
<trkpt lat="40.071327" lon="-105.2298808">
  <ele>1583.15</ele>
  <time>2026-08-28T17:49:40Z</time>
  <course>280.78</course>
  <speed>0.01</speed>
  <fix>3d</fix>
</trkpt>
<trkpt lat="40.0713269" lon="-105.2298807">
  <ele>1583.0</ele>
  <time>2026-08-28T17:49:40Z</time>
  <course>280.65</course>
  <speed>0.0</speed>
  <fix>3d</fix>
</trkpt>
<trkpt lat="40.071327" lon="-105.2298808">
  <ele>1583.15</ele>
  <time>2026-08-28T17:49:40Z</time>
  <course>280.78</course>
  <speed>0.01</speed>
  <fix>3d</fix>
</trkpt>
<trkpt lat="40.0713269" lon="-105.2298807">
  <ele>1583.0</ele>
  <time>2026-08-28T17:49:40Z</time>
  <course>280.7</course>
  <speed>0.0</speed>
  <fix>3d</fix>
</trkpt>
<trkpt lat="40.071327" lon="-105.2298808">
  <ele>1583.15</ele>
  <time>2026-08-28T17:49:40Z</time>
  <course>280.78</course>
  <speed>0.0</speed>
  <fix>3d</fix>
</trkpt>
<trkpt lat="40.0713269" lon="-105.2298807">
  <ele>1583.0</ele>
  <time>2026-08-28T17:49:40Z</time>
  <course>280.7</course>
  <speed>0.0</speed>
  <fix>3d</fix>
</trkpt>
<trkpt lat="40.071327" lon="-105.2298808">
  <ele>1583.15</ele>
  <time>2026-08-28T17:49:40Z</time>
  <course>280.78</course>
  <speed>0.0</speed>
  <fix>3d</fix>
</trkpt>
<trkpt lat="40.0713269" lon="-105.2298807">
  <ele>1583.0</ele>
  <time>2026-08-28T17:49:40Z</time>
  <course>280.75</course>
  <speed>0.0</speed>
  <fix>3d</fix>
</trkpt>
<trkpt lat="40.071327" lon="-105.2298808">
  <ele>1583.15</ele>
  <time>2026-08-28T17:49:40Z</time>
  <course>280.78</course>
  <speed>0.0</speed>
  <fix>3d</fix>
</trkpt>
<trkpt lat="40.0713269" lon="-105.2298807">
  <ele>1583.0</ele>
  <time>2026-08-28T17:49:40Z</time>
  <course>280.75</course>
  <speed>0.0</speed>
  <fix>3d</fix>
</trkpt>
<trkpt lat="40.071327" lon="-105.2298808">
  <ele>1583.15</ele>
  <time>2026-08-28T17:49:40Z</time>
  <course>280.78</course>
  <speed>0.0</speed>
  <fix>3d</fix>
</trkpt>
<trkpt lat="40.0713269" lon="-105.2298807">
  <ele>1583.0</ele>
  <time>2026-08-28T17:49:40Z</time>
  <course>280.81</course>
  <speed>0.0</speed>
  <fix>3d</fix>
</trkpt>
<trkpt lat="40.071327" lon="-105.2298808">
  <ele>1583.16</ele>
  <time>2026-08-28T17:49:40Z</time>
  <course>280.78</course>
  <speed>0.0</speed>
  <fix>3d</fix>
</trkpt>
<trkpt lat="40.0713269" lon="-105.2298807">
  <ele>1583.0</ele>
  <time>2026-08-28T17:49:40Z</time>
  <course>280.81</course>
  <speed>0.0</speed>
  <fix>3d</fix>
</trkpt>
<trkpt lat="40.071327" lon="-105.2298808">
  <ele>1583.16</ele>
  <time>2026-08-28T17:49:40Z</time>
  <course>280.78</course>
  <speed>0.0</speed>
  <fix>3d</fix>
</trkpt>
<trkpt lat="40.0713269" lon="-105.2298808">
  <ele>1583.0</ele>
  <time>2026-08-28T17:49:40Z</time>
  <course>280.88</course>
  <speed>0.0</speed>
  <fix>3d</fix>
</trkpt>
<trkpt lat="40.071327" lon="-105.2298808">
  <ele>1583.16</ele>
  <time>2026-08-28T17:49:40Z</time>
  <course>280.78</course>
  <speed>0.0</speed>
  <fix>3d</fix>
</trkpt>
<trkpt lat="40.0713269" lon="-105.2298808">
  <ele>1583.0</ele>
  <time>2026-08-28T17:49:40Z</time>
  <course>280.88</course>
  <speed>0.0</speed>
  <fix>3d</fix>
</trkpt>
<trkpt lat="40.071327" lon="-105.2298808">
  <ele>1583.17</ele>
  <time>2026-08-28T17:49:40Z</time>
  <course>280.78</course>
  <speed>0.0</speed>
  <fix>3d</fix>
</trkpt>
<trkpt lat="40.0713269" lon="-105.2298809">
  <ele>1583.0</ele>
  <time>2026-08-28T17:49:40Z</time>
  <course>280.95</course>
  <speed>0.0</speed>
  <fix>3d</fix>
</trkpt>
<trkpt lat="40.071327" lon="-105.2298808">
  <ele>1583.17</ele>
  <time>2026-08-28T17:49:40Z</time>
  <course>280.78</course>
  <speed>0.0</speed>
  <fix>3d</fix>
</trkpt>
<trkpt lat="40.0713269" lon="-105.2298809">
  <ele>1583.0</ele>
  <time>2026-08-28T17:49:40Z</time>
  <course>280.95</course>
  <speed>0.0</speed>
  <fix>3d</fix>
</trkpt>
<trkpt lat="40.0713269" lon="-105.2298808">
  <ele>1583.17</ele>
  <time>2026-08-28T17:49:40Z</time>
  <course>280.78</course>
  <speed>0.0</speed>
  <fix>3d</fix>
</trkpt>
<trkpt lat="40.0713269" lon="-105.2298809">
  <ele>1583.0</ele>
  <time>2026-08-28T17:49:40Z</time>
  <course>280.95</course>
  <speed>0.0</speed>
  <fix>3d</fix>
</trkpt>
<trkpt lat="40.0713269" lon="-105.2298808">
  <ele>1583.18</ele>
  <time>2026-08-28T17:49:40Z</time>
  <course>280.77</course>
  <speed>0.0</speed>
  <fix>3d</fix>
</trkpt>
<trkpt lat="40.0713269" lon="-105.2298809">
  <ele>1583.0</ele>
  <time>2026-08-28T17:49:40Z</time>
  <course>281.03</course>
  <speed>0.0</speed>
  <fix>3d</fix>
</trkpt>
<trkpt lat="40.0713269" lon="-105.2298808">
  <ele>1583.18</ele>
  <time>2026-08-28T17:49:40Z</time>
  <course>280.77</course>
  <speed>0.0</speed>
  <fix>3d</fix>
</trkpt>
<trkpt lat="40.0713269" lon="-105.2298809">
  <ele>1583.0</ele>
  <time>2026-08-28T17:49:40Z</time>
  <course>281.03</course>
  <speed>0.0</speed>
  <fix>3d</fix>
</trkpt>
<trkpt lat="40.0713269" lon="-105.2298808">
  <ele>1583.18</ele>
  <time>2026-08-28T17:49:40Z</time>
  <course>280.77</course>
  <speed>0.0</speed>
  <fix>3d</fix>
</trkpt>
<trkpt lat="40.0713269" lon="-105.2298809">
  <ele>1583.0</ele>
  <time>2026-08-28T17:49:40Z</time>
  <course>281.12</course>
  <speed>0.0</speed>
  <fix>3d</fix>
</trkpt>
<trkpt lat="40.0713269" lon="-105.2298808">
  <ele>1583.18</ele>
  <time>2026-08-28T17:49:40Z</time>
  <course>280.77</course>
  <speed>0.0</speed>
  <fix>3d</fix>
</trkpt>
<trkpt lat="40.0713269" lon="-105.2298809">
  <ele>1583.0</ele>
  <time>2026-08-28T17:49:40Z</time>
  <course>281.12</course>
  <speed>0.0</speed>
  <fix>3d</fix>
</trkpt>
<trkpt lat="40.0713269" lon="-105.2298808">
  <ele>1583.18</ele>
  <time>2026-08-28T17:49:40Z</time>
  <course>280.77</course>
  <speed>0.0</speed>
  <fix>3d</fix>
</trkpt>
<trkpt lat="40.071327" lon="-105.2298809">
  <ele>1583.0</ele>
  <time>2026-08-28T17:49:40Z</time>
  <course>281.21</course>
  <speed>0.0</speed>
  <fix>3d</fix>
</trkpt>
<trkpt lat="40.0713269" lon="-105.2298809">
  <ele>1583.18</ele>
  <time>2026-08-28T17:49:40Z</time>
  <course>280.77</course>
  <speed>0.0</speed>
  <fix>3d</fix>
</trkpt>
<trkpt lat="40.0713271" lon="-105.2298809">
  <ele>1583.0</ele>
  <time>2026-08-28T17:49:40Z</time>
  <course>281.32</course>
  <speed>0.0</speed>
  <fix>3d</fix>
</trkpt>
<trkpt lat="40.071327" lon="-105.2298809">
  <ele>1583.19</ele>
  <time>2026-08-28T17:49:40Z</time>
  <course>280.77</course>
  <speed>0.0</speed>
  <fix>3d</fix>
</trkpt>
<trkpt lat="40.0713271" lon="-105.2298809">
  <ele>1583.0</ele>
  <time>2026-08-28T17:49:40Z</time>
  <course>281.32</course>
  <speed>0.0</speed>
  <fix>3d</fix>
</trkpt>
<trkpt lat="40.071327" lon="-105.2298809">
  <ele>1583.19</ele>
  <time>2026-08-28T17:49:40Z</time>
  <course>280.77</course>
  <speed>0.0</speed>
  <fix>3d</fix>
</trkpt>
<trkpt lat="40.0713271" lon="-105.2298809">
  <ele>1583.0</ele>
  <time>2026-08-28T17:49:40Z</time>
  <course>281.44</course>
  <speed>0.0</speed>
  <fix>3d</fix>
</trkpt>
<trkpt lat="40.071327" lon="-105.2298809">
  <ele>1583.19</ele>
  <time>2026-08-28T17:49:40Z</time>
  <course>280.77</course>
  <speed>0.0</speed>
  <fix>3d</fix>
</trkpt>
<trkpt lat="40.0713271" lon="-105.2298809">
  <ele>1583.0</ele>
  <time>2026-08-28T17:49:40Z</time>
  <course>281.44</course>
  <speed>0.0</speed>
  <fix>3d</fix>
</trkpt>
<trkpt lat="40.071327" lon="-105.2298809">
  <ele>1583.19</ele>
  <time>2026-08-28T17:49:40Z</time>
  <course>280.77</course>
  <speed>0.0</speed>
  <fix>3d</fix>
</trkpt>
<trkpt lat="40.0713271" lon="-105.2298809">
  <ele>1583.0</ele>
  <time>2026-08-28T17:49:40Z</time>
  <course>281.57</course>
  <speed>0.0</speed>
  <fix>3d</fix>
</trkpt>
<trkpt lat="40.071327" lon="-105.2298809">
  <ele>1583.19</ele>
  <time>2026-08-28T17:49:40Z</time>
  <course>280.77</course>
  <speed>0.0</speed>
  <fix>3d</fix>
</trkpt>
<trkpt lat="40.0713271" lon="-105.2298809">
  <ele>1583.0</ele>
  <time>2026-08-28T17:49:40Z</time>
  <course>281.57</course>
  <speed>0.0</speed>
  <fix>3d</fix>
</trkpt>
<trkpt lat="40.071327" lon="-105.2298809">
  <ele>1583.19</ele>
  <time>2026-08-28T17:49:40Z</time>
  <course>280.77</course>
  <speed>0.0</speed>
  <fix>3d</fix>
</trkpt>
<trkpt lat="40.0713271" lon="-105.2298809">
  <ele>1583.0</ele>
  <time>2026-08-28T17:49:40Z</time>
  <course>281.71</course>
  <speed>0.0</speed>
  <fix>3d</fix>
</trkpt>
<trkpt lat="40.071327" lon="-105.2298809">
  <ele>1583.19</ele>
  <time>2026-08-28T17:49:40Z</time>
  <course>280.77</course>
  <speed>0.0</speed>
  <fix>3d</fix>
</trkpt>
<trkpt lat="40.0713271" lon="-105.2298809">
  <ele>1583.0</ele>
  <time>2026-08-28T17:49:40Z</time>
  <course>281.71</course>
  <speed>0.0</speed>
  <fix>3d</fix>
</trkpt>
<trkpt lat="40.071327" lon="-105.2298809">
  <ele>1583.19</ele>
  <time>2026-08-28T17:49:40Z</time>
  <course>280.77</course>
  <speed>0.0</speed>
  <fix>3d</fix>
</trkpt>
<trkpt lat="40.0713271" lon="-105.2298809">
  <ele>1583.0</ele>
  <time>2026-08-28T17:49:40Z</time>
  <course>281.87</course>
  <speed>0.0</speed>
  <fix>3d</fix>
</trkpt>
<trkpt lat="40.071327" lon="-105.2298809">
  <ele>1583.19</ele>
  <time>2026-08-28T17:49:40Z</time>
  <course>280.76</course>
  <speed>0.0</speed>
  <fix>3d</fix>
</trkpt>
<trkpt lat="40.0713271" lon="-105.2298809">
  <ele>1583.0</ele>
  <time>2026-08-28T17:49:40Z</time>
  <course>281.87</course>
  <speed>0.0</speed>
  <fix>3d</fix>
</trkpt>
<trkpt lat="40.071327" lon="-105.2298809">
  <ele>1583.18</ele>
  <time>2026-08-28T17:49:40Z</time>
  <course>280.76</course>
  <speed>0.0</speed>
  <fix>3d</fix>
</trkpt>
<trkpt lat="40.0713271" lon="-105.2298809">
  <ele>1583.0</ele>
  <time>2026-08-28T17:49:40Z</time>
  <course>282.04</course>
  <speed>0.0</speed>
  <fix>3d</fix>
</trkpt>
<trkpt lat="40.071327" lon="-105.2298809">
  <ele>1583.18</ele>
  <time>2026-08-28T17:49:40Z</time>
  <course>280.76</course>
  <speed>0.0</speed>
  <fix>3d</fix>
</trkpt>
<trkpt lat="40.0713271" lon="-105.2298809">
  <ele>1583.0</ele>
  <time>2026-08-28T17:49:40Z</time>
  <course>282.04</course>
  <speed>0.0</speed>
  <fix>3d</fix>
</trkpt>
<trkpt lat="40.071327" lon="-105.2298809">
  <ele>1583.18</ele>
  <time>2026-08-28T17:49:40Z</time>
  <course>280.76</course>
  <speed>0.0</speed>
  <fix>3d</fix>
</trkpt>
<trkpt lat="40.0713271" lon="-105.2298809">
  <ele>1583.0</ele>
  <time>2026-08-28T17:49:40Z</time>
  <course>282.24</course>
  <speed>0.0</speed>
  <fix>3d</fix>
</trkpt>
<trkpt lat="40.071327" lon="-105.2298809">
  <ele>1583.17</ele>
  <time>2026-08-28T17:49:40Z</time>
  <course>280.76</course>
  <speed>0.0</speed>
  <fix>3d</fix>
</trkpt>
<trkpt lat="40.0713271" lon="-105.2298809">
  <ele>1583.0</ele>
  <time>2026-08-28T17:49:40Z</time>
  <course>282.24</course>
  <speed>0.0</speed>
  <fix>3d</fix>
</trkpt>
<trkpt lat="40.071327" lon="-105.2298809">
  <ele>1583.17</ele>
  <time>2026-08-28T17:49:40Z</time>
  <course>280.76</course>
  <speed>0.0</speed>
  <fix>3d</fix>
</trkpt>
<trkpt lat="40.0713271" lon="-105.2298809">
  <ele>1583.0</ele>
  <time>2026-08-28T17:49:40Z</time>
  <course>282.24</course>
  <speed>0.0</speed>
  <fix>3d</fix>
</trkpt>
<trkpt lat="40.071327" lon="-105.2298809">
  <ele>1583.17</ele>
  <time>2026-08-28T17:49:40Z</time>
  <course>280.76</course>
  <speed>0.0</speed>
  <fix>3d</fix>
</trkpt>
<trkpt lat="40.0713271" lon="-105.2298809">
  <ele>1583.0</ele>
  <time>2026-08-28T17:49:40Z</time>
  <course>282.45</course>
  <speed>0.0</speed>
  <fix>3d</fix>
</trkpt>
<trkpt lat="40.071327" lon="-105.2298809">
  <ele>1583.17</ele>
  <time>2026-08-28T17:49:40Z</time>
  <course>280.76</course>
  <speed>0.0</speed>
  <fix>3d</fix>
</trkpt>
<trkpt lat="40.0713271" lon="-105.2298809">
  <ele>1583.0</ele>
  <time>2026-08-28T17:49:40Z</time>
  <course>282.45</course>
  <speed>0.0</speed>
  <fix>3d</fix>
</trkpt>
<trkpt lat="40.071327" lon="-105.2298809">
  <ele>1583.17</ele>
  <time>2026-08-28T17:49:40Z</time>
  <course>280.76</course>
  <speed>0.0</speed>
  <fix>3d</fix>
</trkpt>
<trkpt lat="40.0713271" lon="-105.2298809">
  <ele>1583.0</ele>
  <time>2026-08-28T17:49:40Z</time>
  <course>282.69</course>
  <speed>0.0</speed>
  <fix>3d</fix>
</trkpt>
<trkpt lat="40.071327" lon="-105.2298809">
  <ele>1583.17</ele>
  <time>2026-08-28T17:49:40Z</time>
  <course>280.76</course>
  <speed>0.0</speed>
  <fix>3d</fix>
</trkpt>
<trkpt lat="40.0713271" lon="-105.2298809">
  <ele>1583.0</ele>
  <time>2026-08-28T17:49:40Z</time>
  <course>282.69</course>
  <speed>0.0</speed>
  <fix>3d</fix>
</trkpt>
<trkpt lat="40.071327" lon="-105.2298809">
  <ele>1583.17</ele>
  <time>2026-08-28T17:49:40Z</time>
  <course>280.75</course>
  <speed>0.0</speed>
  <fix>3d</fix>
</trkpt>
<trkpt lat="40.0713271" lon="-105.2298809">
  <ele>1583.0</ele>
  <time>2026-08-28T17:49:40Z</time>
  <course>282.95</course>
  <speed>0.0</speed>
  <fix>3d</fix>
</trkpt>
<trkpt lat="40.071327" lon="-105.2298809">
  <ele>1583.18</ele>
  <time>2026-08-28T17:49:40Z</time>
  <course>280.75</course>
  <speed>0.0</speed>
  <fix>3d</fix>
</trkpt>
<trkpt lat="40.0713271" lon="-105.2298809">
  <ele>1583.0</ele>
  <time>2026-08-28T17:49:40Z</time>
  <course>282.95</course>
  <speed>0.0</speed>
  <fix>3d</fix>
</trkpt>
<trkpt lat="40.071327" lon="-105.2298809">
  <ele>1583.18</ele>
  <time>2026-08-28T17:49:40Z</time>
  <course>280.75</course>
  <speed>0.0</speed>
  <fix>3d</fix>
</trkpt>
<trkpt lat="40.0713271" lon="-105.2298809">
  <ele>1583.0</ele>
  <time>2026-08-28T17:49:40Z</time>
  <course>283.24</course>
  <speed>0.0</speed>
  <fix>3d</fix>
</trkpt>
<trkpt lat="40.071327" lon="-105.2298809">
  <ele>1583.18</ele>
  <time>2026-08-28T17:49:40Z</time>
  <course>280.75</course>
  <speed>0.0</speed>
  <fix>3d</fix>
</trkpt>
<trkpt lat="40.0713271" lon="-105.2298809">
  <ele>1583.0</ele>
  <time>2026-08-28T17:49:40Z</time>
  <course>283.56</course>
  <speed>0.0</speed>
  <fix>3d</fix>
</trkpt>
<trkpt lat="40.071327" lon="-105.2298809">
  <ele>1583.18</ele>
  <time>2026-08-28T17:49:40Z</time>
  <course>280.75</course>
  <speed>0.0</speed>
  <fix>3d</fix>
</trkpt>
<trkpt lat="40.0713271" lon="-105.2298809">
  <ele>1583.0</ele>
  <time>2026-08-28T17:49:40Z</time>
  <course>283.56</course>
  <speed>0.0</speed>
  <fix>3d</fix>
</trkpt>
<trkpt lat="40.071327" lon="-105.2298809">
  <ele>1583.18</ele>
  <time>2026-08-28T17:49:40Z</time>
  <course>280.75</course>
  <speed>0.0</speed>
  <fix>3d</fix>
</trkpt>
<trkpt lat="40.0713271" lon="-105.2298809">
  <ele>1583.0</ele>
  <time>2026-08-28T17:49:40Z</time>
  <course>283.91</course>
  <speed>0.0</speed>
  <fix>3d</fix>
</trkpt>
<trkpt lat="40.071327" lon="-105.2298809">
  <ele>1583.18</ele>
  <time>2026-08-28T17:49:40Z</time>
  <course>280.75</course>
  <speed>0.0</speed>
  <fix>3d</fix>
</trkpt>
<trkpt lat="40.0713271" lon="-105.2298809">
  <ele>1583.0</ele>
  <time>2026-08-28T17:49:40Z</time>
  <course>283.91</course>
  <speed>0.0</speed>
  <fix>3d</fix>
</trkpt>
<trkpt lat="40.0713271" lon="-105.2298809">
  <ele>1583.18</ele>
  <time>2026-08-28T17:49:40Z</time>
  <course>280.75</course>
  <speed>0.0</speed>
  <fix>3d</fix>
</trkpt>
<trkpt lat="40.0713271" lon="-105.2298809">
  <ele>1583.0</ele>
  <time>2026-08-28T17:49:40Z</time>
  <course>284.3</course>
  <speed>0.0</speed>
  <fix>3d</fix>
</trkpt>
<trkpt lat="40.0713271" lon="-105.2298809">
  <ele>1583.18</ele>
  <time>2026-08-28T17:49:40Z</time>
  <course>280.75</course>
  <speed>0.0</speed>
  <fix>3d</fix>
</trkpt>
<trkpt lat="40.0713271" lon="-105.2298809">
  <ele>1583.0</ele>
  <time>2026-08-28T17:49:40Z</time>
  <course>284.3</course>
  <speed>0.0</speed>
  <fix>3d</fix>
</trkpt>
<trkpt lat="40.0713271" lon="-105.2298809">
  <ele>1583.18</ele>
  <time>2026-08-28T17:49:40Z</time>
  <course>280.74</course>
  <speed>0.0</speed>
  <fix>3d</fix>
</trkpt>
<trkpt lat="40.0713271" lon="-105.2298809">
  <ele>1583.0</ele>
  <time>2026-08-28T17:49:40Z</time>
  <course>284.73</course>
  <speed>0.0</speed>
  <fix>3d</fix>
</trkpt>
<trkpt lat="40.0713271" lon="-105.2298809">
  <ele>1583.18</ele>
  <time>2026-08-28T17:49:40Z</time>
  <course>280.74</course>
  <speed>0.0</speed>
  <fix>3d</fix>
</trkpt>
<trkpt lat="40.0713271" lon="-105.2298809">
  <ele>1583.0</ele>
  <time>2026-08-28T17:49:40Z</time>
  <course>284.73</course>
  <speed>0.0</speed>
  <fix>3d</fix>
</trkpt>
<trkpt lat="40.0713271" lon="-105.2298809">
  <ele>1583.18</ele>
  <time>2026-08-28T17:49:40Z</time>
  <course>280.74</course>
  <speed>0.0</speed>
  <fix>3d</fix>
</trkpt>
<trkpt lat="40.0713271" lon="-105.2298809">
  <ele>1583.0</ele>
  <time>2026-08-28T17:49:40Z</time>
  <course>285.21</course>
  <speed>0.0</speed>
  <fix>3d</fix>
</trkpt>
<trkpt lat="40.0713271" lon="-105.2298809">
  <ele>1583.18</ele>
  <time>2026-08-28T17:49:40Z</time>
  <course>280.74</course>
  <speed>0.0</speed>
  <fix>3d</fix>
</trkpt>
<trkpt lat="40.0713271" lon="-105.2298809">
  <ele>1583.0</ele>
  <time>2026-08-28T17:49:40Z</time>
  <course>285.21</course>
  <speed>0.0</speed>
  <fix>3d</fix>
</trkpt>
<trkpt lat="40.0713271" lon="-105.2298809">
  <ele>1583.18</ele>
  <time>2026-08-28T17:49:40Z</time>
  <course>280.74</course>
  <speed>0.0</speed>
  <fix>3d</fix>
</trkpt>
<trkpt lat="40.0713271" lon="-105.2298809">
  <ele>1583.0</ele>
  <time>2026-08-28T17:49:40Z</time>
  <course>285.73</course>
  <speed>0.0</speed>
  <fix>3d</fix>
</trkpt>
<trkpt lat="40.0713271" lon="-105.2298809">
  <ele>1583.17</ele>
  <time>2026-08-28T17:49:40Z</time>
  <course>280.74</course>
  <speed>0.0</speed>
  <fix>3d</fix>
</trkpt>
<trkpt lat="40.0713271" lon="-105.2298809">
  <ele>1583.0</ele>
  <time>2026-08-28T17:49:40Z</time>
  <course>285.73</course>
  <speed>0.0</speed>
  <fix>3d</fix>
</trkpt>
<trkpt lat="40.0713271" lon="-105.2298809">
  <ele>1583.17</ele>
  <time>2026-08-28T17:49:40Z</time>
  <course>280.74</course>
  <speed>0.0</speed>
  <fix>3d</fix>
</trkpt>
<trkpt lat="40.0713271" lon="-105.2298809">
  <ele>1583.0</ele>
  <time>2026-08-28T17:49:40Z</time>
  <course>286.31</course>
  <speed>0.0</speed>
  <fix>3d</fix>
</trkpt>
<trkpt lat="40.0713271" lon="-105.2298809">
  <ele>1583.18</ele>
  <time>2026-08-28T17:49:40Z</time>
  <course>280.73</course>
  <speed>0.0</speed>
  <fix>3d</fix>
</trkpt>
<trkpt lat="40.0713271" lon="-105.2298809">
  <ele>1583.0</ele>
  <time>2026-08-28T17:49:40Z</time>
  <course>286.31</course>
  <speed>0.0</speed>
  <fix>3d</fix>
</trkpt>
<trkpt lat="40.0713271" lon="-105.2298809">
  <ele>1583.18</ele>
  <time>2026-08-28T17:49:40Z</time>
  <course>280.73</course>
  <speed>0.0</speed>
  <fix>3d</fix>
</trkpt>
<trkpt lat="40.0713271" lon="-105.2298809">
  <ele>1583.0</ele>
  <time>2026-08-28T17:49:40Z</time>
  <course>286.31</course>
  <speed>0.0</speed>
  <fix>3d</fix>
</trkpt>
<trkpt lat="40.0713271" lon="-105.2298809">
  <ele>1583.17</ele>
  <time>2026-08-28T17:49:40Z</time>
  <course>280.73</course>
  <speed>0.0</speed>
  <fix>3d</fix>
</trkpt>
<trkpt lat="40.0713271" lon="-105.2298809">
  <ele>1583.0</ele>
  <time>2026-08-28T17:49:40Z</time>
  <course>286.94</course>
  <speed>0.0</speed>
  <fix>3d</fix>
</trkpt>
<trkpt lat="40.0713271" lon="-105.2298809">
  <ele>1583.17</ele>
  <time>2026-08-28T17:49:40Z</time>
  <course>280.73</course>
  <speed>0.0</speed>
  <fix>3d</fix>
</trkpt>
<trkpt lat="40.0713271" lon="-105.2298809">
  <ele>1583.0</ele>
  <time>2026-08-28T17:49:40Z</time>
  <course>286.94</course>
  <speed>0.0</speed>
  <fix>3d</fix>
</trkpt>
<trkpt lat="40.0713271" lon="-105.2298809">
  <ele>1583.17</ele>
  <time>2026-08-28T17:49:40Z</time>
  <course>280.73</course>
  <speed>0.0</speed>
  <fix>3d</fix>
</trkpt>
<trkpt lat="40.0713271" lon="-105.2298809">
  <ele>1583.0</ele>
  <time>2026-08-28T17:49:40Z</time>
  <course>287.65</course>
  <speed>0.0</speed>
  <fix>3d</fix>
</trkpt>
<trkpt lat="40.0713271" lon="-105.2298809">
  <ele>1583.17</ele>
  <time>2026-08-28T17:49:40Z</time>
  <course>280.73</course>
  <speed>0.0</speed>
  <fix>3d</fix>
</trkpt>
<trkpt lat="40.0713271" lon="-105.2298809">
  <ele>1583.0</ele>
  <time>2026-08-28T17:49:40Z</time>
  <course>287.65</course>
  <speed>0.0</speed>
  <fix>3d</fix>
</trkpt>
<trkpt lat="40.0713271" lon="-105.2298809">
  <ele>1583.17</ele>
  <time>2026-08-28T17:49:40Z</time>
  <course>280.73</course>
  <speed>0.0</speed>
  <fix>3d</fix>
</trkpt>
<trkpt lat="40.0713271" lon="-105.2298809">
  <ele>1583.0</ele>
  <time>2026-08-28T17:49:40Z</time>
  <course>288.42</course>
  <speed>0.0</speed>
  <fix>3d</fix>
</trkpt>
<trkpt lat="40.0713271" lon="-105.2298809">
  <ele>1583.16</ele>
  <time>2026-08-28T17:49:40Z</time>
  <course>280.73</course>
  <speed>0.0</speed>
  <fix>3d</fix>
</trkpt>
<trkpt lat="40.0713271" lon="-105.2298809">
  <ele>1583.0</ele>
  <time>2026-08-28T17:49:40Z</time>
  <course>289.27</course>
  <speed>0.0</speed>
  <fix>3d</fix>
</trkpt>
<trkpt lat="40.0713271" lon="-105.2298809">
  <ele>1583.16</ele>
  <time>2026-08-28T17:49:40Z</time>
  <course>280.72</course>
  <speed>0.0</speed>
  <fix>3d</fix>
</trkpt>
<trkpt lat="40.0713271" lon="-105.2298809">
  <ele>1583.0</ele>
  <time>2026-08-28T17:49:40Z</time>
  <course>289.27</course>
  <speed>0.0</speed>
  <fix>3d</fix>
</trkpt>
<trkpt lat="40.0713271" lon="-105.2298809">
  <ele>1583.16</ele>
  <time>2026-08-28T17:49:40Z</time>
  <course>280.72</course>
  <speed>0.0</speed>
  <fix>3d</fix>
</trkpt>
<trkpt lat="40.0713271" lon="-105.2298809">
  <ele>1583.0</ele>
  <time>2026-08-28T17:49:40Z</time>
  <course>290.21</course>
  <speed>0.0</speed>
  <fix>3d</fix>
</trkpt>
<trkpt lat="40.0713271" lon="-105.2298809">
  <ele>1583.15</ele>
  <time>2026-08-28T17:49:40Z</time>
  <course>280.72</course>
  <speed>0.0</speed>
  <fix>3d</fix>
</trkpt>
<trkpt lat="40.0713271" lon="-105.2298809">
  <ele>1583.0</ele>
  <time>2026-08-28T17:49:40Z</time>
  <course>290.21</course>
  <speed>0.0</speed>
  <fix>3d</fix>
</trkpt>
<trkpt lat="40.0713271" lon="-105.2298809">
  <ele>1583.15</ele>
  <time>2026-08-28T17:49:40Z</time>
  <course>280.72</course>
  <speed>0.0</speed>
  <fix>3d</fix>
</trkpt>
<trkpt lat="40.0713271" lon="-105.2298809">
  <ele>1583.0</ele>
  <time>2026-08-28T17:49:40Z</time>
  <course>291.23</course>
  <speed>0.0</speed>
  <fix>3d</fix>
</trkpt>
<trkpt lat="40.0713271" lon="-105.2298809">
  <ele>1583.15</ele>
  <time>2026-08-28T17:49:40Z</time>
  <course>280.72</course>
  <speed>0.0</speed>
  <fix>3d</fix>
</trkpt>
<trkpt lat="40.0713271" lon="-105.2298809">
  <ele>1583.0</ele>
  <time>2026-08-28T17:49:40Z</time>
  <course>291.23</course>
  <speed>0.0</speed>
  <fix>3d</fix>
</trkpt>
<trkpt lat="40.0713271" lon="-105.2298809">
  <ele>1583.15</ele>
  <time>2026-08-28T17:49:40Z</time>
  <course>280.72</course>
  <speed>0.0</speed>
  <fix>3d</fix>
</trkpt>
<trkpt lat="40.0713271" lon="-105.2298809">
  <ele>1583.0</ele>
  <time>2026-08-28T17:49:40Z</time>
  <course>292.36</course>
  <speed>0.0</speed>
  <fix>3d</fix>
</trkpt>
<trkpt lat="40.0713271" lon="-105.2298809">
  <ele>1583.15</ele>
  <time>2026-08-28T17:49:41Z</time>
  <course>280.72</course>
  <speed>0.0</speed>
  <fix>3d</fix>
</trkpt>
<trkpt lat="40.0713271" lon="-105.2298809">
  <ele>1583.0</ele>
  <time>2026-08-28T17:49:41Z</time>
  <course>292.36</course>
  <speed>0.0</speed>
  <fix>3d</fix>
</trkpt>
<trkpt lat="40.0713271" lon="-105.2298809">
  <ele>1583.15</ele>
  <time>2026-08-28T17:49:41Z</time>
  <course>280.71</course>
  <speed>0.0</speed>
  <fix>3d</fix>
</trkpt>
<trkpt lat="40.0713271" lon="-105.2298809">
  <ele>1583.0</ele>
  <time>2026-08-28T17:49:41Z</time>
  <course>293.6</course>
  <speed>0.0</speed>
  <fix>3d</fix>
</trkpt>
<trkpt lat="40.0713271" lon="-105.2298809">
  <ele>1583.15</ele>
  <time>2026-08-28T17:49:41Z</time>
  <course>280.71</course>
  <speed>0.0</speed>
  <fix>3d</fix>
</trkpt>
<trkpt lat="40.0713271" lon="-105.2298809">
  <ele>1583.0</ele>
  <time>2026-08-28T17:49:41Z</time>
  <course>293.6</course>
  <speed>0.0</speed>
  <fix>3d</fix>
</trkpt>
<trkpt lat="40.0713271" lon="-105.2298809">
  <ele>1583.15</ele>
  <time>2026-08-28T17:49:41Z</time>
  <course>280.71</course>
  <speed>0.0</speed>
  <fix>3d</fix>
</trkpt>
<trkpt lat="40.0713271" lon="-105.2298809">
  <ele>1583.0</ele>
  <time>2026-08-28T17:49:41Z</time>
  <course>294.95</course>
  <speed>0.0</speed>
  <fix>3d</fix>
</trkpt>
<trkpt lat="40.0713271" lon="-105.2298809">
  <ele>1583.16</ele>
  <time>2026-08-28T17:49:41Z</time>
  <course>280.71</course>
  <speed>0.0</speed>
  <fix>3d</fix>
</trkpt>
<trkpt lat="40.0713271" lon="-105.2298809">
  <ele>1583.0</ele>
  <time>2026-08-28T17:49:41Z</time>
  <course>294.95</course>
  <speed>0.0</speed>
  <fix>3d</fix>
</trkpt>
<trkpt lat="40.0713271" lon="-105.2298809">
  <ele>1583.16</ele>
  <time>2026-08-28T17:49:41Z</time>
  <course>280.71</course>
  <speed>0.0</speed>
  <fix>3d</fix>
</trkpt>
<trkpt lat="40.0713271" lon="-105.2298809">
  <ele>1583.0</ele>
  <time>2026-08-28T17:49:41Z</time>
  <course>296.42</course>
  <speed>0.0</speed>
  <fix>3d</fix>
</trkpt>
<trkpt lat="40.0713271" lon="-105.2298809">
  <ele>1583.16</ele>
  <time>2026-08-28T17:49:41Z</time>
  <course>280.71</course>
  <speed>0.0</speed>
  <fix>3d</fix>
</trkpt>
<trkpt lat="40.0713271" lon="-105.2298809">
  <ele>1583.0</ele>
  <time>2026-08-28T17:49:41Z</time>
  <course>296.42</course>
  <speed>0.0</speed>
  <fix>3d</fix>
</trkpt>
<trkpt lat="40.0713271" lon="-105.2298809">
  <ele>1583.17</ele>
  <time>2026-08-28T17:49:41Z</time>
  <course>280.7</course>
  <speed>0.0</speed>
  <fix>3d</fix>
</trkpt>
<trkpt lat="40.0713271" lon="-105.2298809">
  <ele>1583.0</ele>
  <time>2026-08-28T17:49:41Z</time>
  <course>296.42</course>
  <speed>0.0</speed>
  <fix>3d</fix>
</trkpt>
<trkpt lat="40.0713271" lon="-105.2298809">
  <ele>1583.17</ele>
  <time>2026-08-28T17:49:41Z</time>
  <course>280.7</course>
  <speed>0.0</speed>
  <fix>3d</fix>
</trkpt>
<trkpt lat="40.0713271" lon="-105.2298809">
  <ele>1583.0</ele>
  <time>2026-08-28T17:49:41Z</time>
  <course>298.03</course>
  <speed>0.0</speed>
  <fix>3d</fix>
</trkpt>
<trkpt lat="40.0713271" lon="-105.2298809">
  <ele>1583.17</ele>
  <time>2026-08-28T17:49:41Z</time>
  <course>280.7</course>
  <speed>0.0</speed>
  <fix>3d</fix>
</trkpt>
<trkpt lat="40.0713271" lon="-105.2298809">
  <ele>1583.0</ele>
  <time>2026-08-28T17:49:41Z</time>
  <course>298.03</course>
  <speed>0.0</speed>
  <fix>3d</fix>
</trkpt>
<trkpt lat="40.0713271" lon="-105.2298809">
  <ele>1583.18</ele>
  <time>2026-08-28T17:49:41Z</time>
  <course>280.7</course>
  <speed>0.0</speed>
  <fix>3d</fix>
</trkpt>
<trkpt lat="40.0713271" lon="-105.2298809">
  <ele>1583.0</ele>
  <time>2026-08-28T17:49:41Z</time>
  <course>299.77</course>
  <speed>0.0</speed>
  <fix>3d</fix>
</trkpt>
<trkpt lat="40.0713271" lon="-105.2298809">
  <ele>1583.18</ele>
  <time>2026-08-28T17:49:41Z</time>
  <course>280.7</course>
  <speed>0.0</speed>
  <fix>3d</fix>
</trkpt>
<trkpt lat="40.0713271" lon="-105.2298809">
  <ele>1583.0</ele>
  <time>2026-08-28T17:49:41Z</time>
  <course>299.77</course>
  <speed>0.0</speed>
  <fix>3d</fix>
</trkpt>
<trkpt lat="40.0713271" lon="-105.2298809">
  <ele>1583.18</ele>
  <time>2026-08-28T17:49:41Z</time>
  <course>280.7</course>
  <speed>0.0</speed>
  <fix>3d</fix>
</trkpt>
<trkpt lat="40.0713271" lon="-105.2298809">
  <ele>1583.0</ele>
  <time>2026-08-28T17:49:41Z</time>
  <course>301.65</course>
  <speed>0.0</speed>
  <fix>3d</fix>
</trkpt>
<trkpt lat="40.0713271" lon="-105.2298809">
  <ele>1583.19</ele>
  <time>2026-08-28T17:49:41Z</time>
  <course>280.69</course>
  <speed>0.0</speed>
  <fix>3d</fix>
</trkpt>
<trkpt lat="40.0713271" lon="-105.2298809">
  <ele>1583.0</ele>
  <time>2026-08-28T17:49:41Z</time>
  <course>301.65</course>
  <speed>0.0</speed>
  <fix>3d</fix>
</trkpt>
<trkpt lat="40.0713271" lon="-105.2298809">
  <ele>1583.19</ele>
  <time>2026-08-28T17:49:41Z</time>
  <course>280.69</course>
  <speed>0.0</speed>
  <fix>3d</fix>
</trkpt>
<trkpt lat="40.0713271" lon="-105.2298809">
  <ele>1583.0</ele>
  <time>2026-08-28T17:49:41Z</time>
  <course>303.67</course>
  <speed>0.0</speed>
  <fix>3d</fix>
</trkpt>
<trkpt lat="40.0713271" lon="-105.2298809">
  <ele>1583.18</ele>
  <time>2026-08-28T17:49:41Z</time>
  <course>280.69</course>
  <speed>0.0</speed>
  <fix>3d</fix>
</trkpt>
<trkpt lat="40.0713271" lon="-105.2298809">
  <ele>1583.0</ele>
  <time>2026-08-28T17:49:41Z</time>
  <course>305.83</course>
  <speed>0.0</speed>
  <fix>3d</fix>
</trkpt>
<trkpt lat="40.0713271" lon="-105.2298809">
  <ele>1583.18</ele>
  <time>2026-08-28T17:49:41Z</time>
  <course>280.69</course>
  <speed>0.0</speed>
  <fix>3d</fix>
</trkpt>
<trkpt lat="40.0713271" lon="-105.2298809">
  <ele>1583.0</ele>
  <time>2026-08-28T17:49:41Z</time>
  <course>305.83</course>
  <speed>0.0</speed>
  <fix>3d</fix>
</trkpt>
<trkpt lat="40.0713271" lon="-105.2298809">
  <ele>1583.18</ele>
  <time>2026-08-28T17:49:41Z</time>
  <course>280.69</course>
  <speed>0.01</speed>
  <fix>3d</fix>
</trkpt>
<trkpt lat="40.0713271" lon="-105.2298809">
  <ele>1583.0</ele>
  <time>2026-08-28T17:49:41Z</time>
  <course>308.13</course>
  <speed>0.0</speed>
  <fix>3d</fix>
</trkpt>
<trkpt lat="40.0713271" lon="-105.2298809">
  <ele>1583.18</ele>
  <time>2026-08-28T17:49:41Z</time>
  <course>280.69</course>
  <speed>0.01</speed>
  <fix>3d</fix>
</trkpt>
<trkpt lat="40.0713271" lon="-105.2298809">
  <ele>1583.0</ele>
  <time>2026-08-28T17:49:41Z</time>
  <course>308.13</course>
  <speed>0.0</speed>
  <fix>3d</fix>
</trkpt>
<trkpt lat="40.0713271" lon="-105.229881">
  <ele>1583.18</ele>
  <time>2026-08-28T17:49:41Z</time>
  <course>280.68</course>
  <speed>0.01</speed>
  <fix>3d</fix>
</trkpt>
<trkpt lat="40.0713271" lon="-105.2298809">
  <ele>1583.0</ele>
  <time>2026-08-28T17:49:41Z</time>
  <course>310.57</course>
  <speed>0.0</speed>
  <fix>3d</fix>
</trkpt>
<trkpt lat="40.0713271" lon="-105.2298809">
  <ele>1583.18</ele>
  <time>2026-08-28T17:49:41Z</time>
  <course>280.68</course>
  <speed>0.01</speed>
  <fix>3d</fix>
</trkpt>
<trkpt lat="40.0713271" lon="-105.2298809">
  <ele>1583.0</ele>
  <time>2026-08-28T17:49:41Z</time>
  <course>310.57</course>
  <speed>0.0</speed>
  <fix>3d</fix>
</trkpt>
<trkpt lat="40.0713271" lon="-105.229881">
  <ele>1583.18</ele>
  <time>2026-08-28T17:49:41Z</time>
  <course>280.68</course>
  <speed>0.01</speed>
  <fix>3d</fix>
</trkpt>
<trkpt lat="40.0713271" lon="-105.2298809">
  <ele>1583.0</ele>
  <time>2026-08-28T17:49:41Z</time>
  <course>313.13</course>
  <speed>0.0</speed>
  <fix>3d</fix>
</trkpt>
<trkpt lat="40.0713271" lon="-105.229881">
  <ele>1583.18</ele>
  <time>2026-08-28T17:49:41Z</time>
  <course>280.68</course>
  <speed>0.01</speed>
  <fix>3d</fix>
</trkpt>
<trkpt lat="40.0713271" lon="-105.2298809">
  <ele>1583.0</ele>
  <time>2026-08-28T17:49:41Z</time>
  <course>313.13</course>
  <speed>0.0</speed>
  <fix>3d</fix>
</trkpt>
<trkpt lat="40.0713271" lon="-105.229881">
  <ele>1583.18</ele>
  <time>2026-08-28T17:49:41Z</time>
  <course>280.68</course>
  <speed>0.01</speed>
  <fix>3d</fix>
</trkpt>
<trkpt lat="40.0713271" lon="-105.2298809">
  <ele>1583.0</ele>
  <time>2026-08-28T17:49:41Z</time>
  <course>315.79</course>
  <speed>0.0</speed>
  <fix>3d</fix>
</trkpt>
<trkpt lat="40.0713271" lon="-105.229881">
  <ele>1583.18</ele>
  <time>2026-08-28T17:49:41Z</time>
  <course>280.67</course>
  <speed>0.01</speed>
  <fix>3d</fix>
</trkpt>
<trkpt lat="40.0713271" lon="-105.2298809">
  <ele>1583.0</ele>
  <time>2026-08-28T17:49:41Z</time>
  <course>315.79</course>
  <speed>0.0</speed>
  <fix>3d</fix>
</trkpt>
<trkpt lat="40.0713271" lon="-105.229881">
  <ele>1583.18</ele>
  <time>2026-08-28T17:49:41Z</time>
  <course>280.67</course>
  <speed>0.01</speed>
  <fix>3d</fix>
</trkpt>
<trkpt lat="40.0713271" lon="-105.2298809">
  <ele>1583.0</ele>
  <time>2026-08-28T17:49:41Z</time>
  <course>318.54</course>
  <speed>0.0</speed>
  <fix>3d</fix>
</trkpt>
<trkpt lat="40.0713271" lon="-105.229881">
  <ele>1583.17</ele>
  <time>2026-08-28T17:49:41Z</time>
  <course>280.67</course>
  <speed>0.01</speed>
  <fix>3d</fix>
</trkpt>
<trkpt lat="40.0713271" lon="-105.2298809">
  <ele>1583.0</ele>
  <time>2026-08-28T17:49:41Z</time>
  <course>318.54</course>
  <speed>0.0</speed>
  <fix>3d</fix>
</trkpt>
<trkpt lat="40.0713271" lon="-105.229881">
  <ele>1583.17</ele>
  <time>2026-08-28T17:49:41Z</time>
  <course>280.67</course>
  <speed>0.01</speed>
  <fix>3d</fix>
</trkpt>
<trkpt lat="40.0713271" lon="-105.2298809">
  <ele>1583.0</ele>
  <time>2026-08-28T17:49:41Z</time>
  <course>321.36</course>
  <speed>0.0</speed>
  <fix>3d</fix>
</trkpt>
<trkpt lat="40.0713271" lon="-105.229881">
  <ele>1583.17</ele>
  <time>2026-08-28T17:49:41Z</time>
  <course>280.67</course>
  <speed>0.01</speed>
  <fix>3d</fix>
</trkpt>
<trkpt lat="40.0713271" lon="-105.2298809">
  <ele>1583.0</ele>
  <time>2026-08-28T17:49:41Z</time>
  <course>321.36</course>
  <speed>0.0</speed>
  <fix>3d</fix>
</trkpt>
<trkpt lat="40.0713271" lon="-105.229881">
  <ele>1583.17</ele>
  <time>2026-08-28T17:49:41Z</time>
  <course>280.67</course>
  <speed>0.01</speed>
  <fix>3d</fix>
</trkpt>
<trkpt lat="40.0713271" lon="-105.2298809">
  <ele>1583.0</ele>
  <time>2026-08-28T17:49:41Z</time>
  <course>321.36</course>
  <speed>0.0</speed>
  <fix>3d</fix>
</trkpt>
<trkpt lat="40.0713271" lon="-105.229881">
  <ele>1583.17</ele>
  <time>2026-08-28T17:49:41Z</time>
  <course>280.66</course>
  <speed>0.01</speed>
  <fix>3d</fix>
</trkpt>
<trkpt lat="40.0713271" lon="-105.2298809">
  <ele>1583.0</ele>
  <time>2026-08-28T17:49:41Z</time>
  <course>324.22</course>
  <speed>0.0</speed>
  <fix>3d</fix>
</trkpt>
<trkpt lat="40.0713271" lon="-105.229881">
  <ele>1583.17</ele>
  <time>2026-08-28T17:49:41Z</time>
  <course>280.66</course>
  <speed>0.01</speed>
  <fix>3d</fix>
</trkpt>
<trkpt lat="40.0713271" lon="-105.2298809">
  <ele>1583.0</ele>
  <time>2026-08-28T17:49:41Z</time>
  <course>324.22</course>
  <speed>0.0</speed>
  <fix>3d</fix>
</trkpt>
<trkpt lat="40.0713271" lon="-105.229881">
  <ele>1583.17</ele>
  <time>2026-08-28T17:49:41Z</time>
  <course>280.66</course>
  <speed>0.01</speed>
  <fix>3d</fix>
</trkpt>
<trkpt lat="40.0713271" lon="-105.2298809">
  <ele>1583.0</ele>
  <time>2026-08-28T17:49:41Z</time>
  <course>327.09</course>
  <speed>0.0</speed>
  <fix>3d</fix>
</trkpt>
<trkpt lat="40.0713271" lon="-105.229881">
  <ele>1583.16</ele>
  <time>2026-08-28T17:49:41Z</time>
  <course>280.66</course>
  <speed>0.01</speed>
  <fix>3d</fix>
</trkpt>
<trkpt lat="40.0713271" lon="-105.2298809">
  <ele>1583.0</ele>
  <time>2026-08-28T17:49:41Z</time>
  <course>327.09</course>
  <speed>0.0</speed>
  <fix>3d</fix>
</trkpt>
<trkpt lat="40.0713271" lon="-105.229881">
  <ele>1583.16</ele>
  <time>2026-08-28T17:49:41Z</time>
  <course>280.66</course>
  <speed>0.01</speed>
  <fix>3d</fix>
</trkpt>
<trkpt lat="40.0713271" lon="-105.2298809">
  <ele>1583.0</ele>
  <time>2026-08-28T17:49:41Z</time>
  <course>329.93</course>
  <speed>0.0</speed>
  <fix>3d</fix>
</trkpt>
<trkpt lat="40.0713271" lon="-105.229881">
  <ele>1583.16</ele>
  <time>2026-08-28T17:49:41Z</time>
  <course>280.65</course>
  <speed>0.01</speed>
  <fix>3d</fix>
</trkpt>
<trkpt lat="40.0713271" lon="-105.2298809">
  <ele>1583.0</ele>
  <time>2026-08-28T17:49:41Z</time>
  <course>332.73</course>
  <speed>0.0</speed>
  <fix>3d</fix>
</trkpt>
<trkpt lat="40.0713271" lon="-105.229881">
  <ele>1583.16</ele>
  <time>2026-08-28T17:49:41Z</time>
  <course>280.65</course>
  <speed>0.01</speed>
  <fix>3d</fix>
</trkpt>
<trkpt lat="40.0713271" lon="-105.2298809">
  <ele>1583.0</ele>
  <time>2026-08-28T17:49:41Z</time>
  <course>332.73</course>
  <speed>0.0</speed>
  <fix>3d</fix>
</trkpt>
<trkpt lat="40.0713271" lon="-105.229881">
  <ele>1583.16</ele>
  <time>2026-08-28T17:49:41Z</time>
  <course>280.65</course>
  <speed>0.01</speed>
  <fix>3d</fix>
</trkpt>
<trkpt lat="40.0713271" lon="-105.2298809">
  <ele>1583.0</ele>
  <time>2026-08-28T17:49:41Z</time>
  <course>335.45</course>
  <speed>0.0</speed>
  <fix>3d</fix>
</trkpt>
<trkpt lat="40.0713271" lon="-105.229881">
  <ele>1583.16</ele>
  <time>2026-08-28T17:49:41Z</time>
  <course>280.65</course>
  <speed>0.01</speed>
  <fix>3d</fix>
</trkpt>
<trkpt lat="40.0713271" lon="-105.2298809">
  <ele>1583.0</ele>
  <time>2026-08-28T17:49:41Z</time>
  <course>335.45</course>
  <speed>0.0</speed>
  <fix>3d</fix>
</trkpt>
<trkpt lat="40.0713271" lon="-105.229881">
  <ele>1583.16</ele>
  <time>2026-08-28T17:49:41Z</time>
  <course>280.65</course>
  <speed>0.01</speed>
  <fix>3d</fix>
</trkpt>
<trkpt lat="40.0713271" lon="-105.2298809">
  <ele>1583.0</ele>
  <time>2026-08-28T17:49:41Z</time>
  <course>338.09</course>
  <speed>0.0</speed>
  <fix>3d</fix>
</trkpt>
<trkpt lat="40.0713271" lon="-105.229881">
  <ele>1583.16</ele>
  <time>2026-08-28T17:49:41Z</time>
  <course>280.64</course>
  <speed>0.01</speed>
  <fix>3d</fix>
</trkpt>
<trkpt lat="40.0713271" lon="-105.2298809">
  <ele>1583.0</ele>
  <time>2026-08-28T17:49:41Z</time>
  <course>338.09</course>
  <speed>0.0</speed>
  <fix>3d</fix>
</trkpt>
<trkpt lat="40.0713271" lon="-105.229881">
  <ele>1583.16</ele>
  <time>2026-08-28T17:49:41Z</time>
  <course>280.64</course>
  <speed>0.01</speed>
  <fix>3d</fix>
</trkpt>
<trkpt lat="40.0713271" lon="-105.2298809">
  <ele>1583.0</ele>
  <time>2026-08-28T17:49:41Z</time>
  <course>340.61</course>
  <speed>0.0</speed>
  <fix>3d</fix>
</trkpt>
<trkpt lat="40.0713271" lon="-105.229881">
  <ele>1583.16</ele>
  <time>2026-08-28T17:49:41Z</time>
  <course>280.64</course>
  <speed>0.01</speed>
  <fix>3d</fix>
</trkpt>
<trkpt lat="40.0713271" lon="-105.2298809">
  <ele>1583.0</ele>
  <time>2026-08-28T17:49:41Z</time>
  <course>340.61</course>
  <speed>0.0</speed>
  <fix>3d</fix>
</trkpt>
<trkpt lat="40.0713271" lon="-105.229881">
  <ele>1583.16</ele>
  <time>2026-08-28T17:49:41Z</time>
  <course>280.64</course>
  <speed>0.01</speed>
  <fix>3d</fix>
</trkpt>
<trkpt lat="40.0713271" lon="-105.2298809">
  <ele>1583.0</ele>
  <time>2026-08-28T17:49:41Z</time>
  <course>343.0</course>
  <speed>0.0</speed>
  <fix>3d</fix>
</trkpt>
<trkpt lat="40.0713271" lon="-105.229881">
  <ele>1583.16</ele>
  <time>2026-08-28T17:49:41Z</time>
  <course>280.64</course>
  <speed>0.01</speed>
  <fix>3d</fix>
</trkpt>
<trkpt lat="40.0713271" lon="-105.2298809">
  <ele>1583.0</ele>
  <time>2026-08-28T17:49:41Z</time>
  <course>343.0</course>
  <speed>0.0</speed>
  <fix>3d</fix>
</trkpt>
<trkpt lat="40.0713271" lon="-105.229881">
  <ele>1583.15</ele>
  <time>2026-08-28T17:49:41Z</time>
  <course>280.63</course>
  <speed>0.01</speed>
  <fix>3d</fix>
</trkpt>
<trkpt lat="40.0713271" lon="-105.2298809">
  <ele>1583.0</ele>
  <time>2026-08-28T17:49:41Z</time>
  <course>345.26</course>
  <speed>0.0</speed>
  <fix>3d</fix>
</trkpt>
<trkpt lat="40.0713271" lon="-105.229881">
  <ele>1583.15</ele>
  <time>2026-08-28T17:49:41Z</time>
  <course>280.63</course>
  <speed>0.01</speed>
  <fix>3d</fix>
</trkpt>
<trkpt lat="40.0713271" lon="-105.2298809">
  <ele>1583.0</ele>
  <time>2026-08-28T17:49:41Z</time>
  <course>345.26</course>
  <speed>0.0</speed>
  <fix>3d</fix>
</trkpt>
<trkpt lat="40.0713271" lon="-105.229881">
  <ele>1583.15</ele>
  <time>2026-08-28T17:49:41Z</time>
  <course>280.63</course>
  <speed>0.01</speed>
  <fix>3d</fix>
</trkpt>
<trkpt lat="40.0713271" lon="-105.2298809">
  <ele>1583.0</ele>
  <time>2026-08-28T17:49:41Z</time>
  <course>347.38</course>
  <speed>0.0</speed>
  <fix>3d</fix>
</trkpt>
<trkpt lat="40.0713271" lon="-105.229881">
  <ele>1583.15</ele>
  <time>2026-08-28T17:49:41Z</time>
  <course>280.63</course>
  <speed>0.01</speed>
  <fix>3d</fix>
</trkpt>
<trkpt lat="40.0713271" lon="-105.2298809">
  <ele>1583.0</ele>
  <time>2026-08-28T17:49:41Z</time>
  <course>347.38</course>
  <speed>0.0</speed>
  <fix>3d</fix>
</trkpt>
<trkpt lat="40.0713271" lon="-105.229881">
  <ele>1583.15</ele>
  <time>2026-08-28T17:49:41Z</time>
  <course>280.63</course>
  <speed>0.01</speed>
  <fix>3d</fix>
</trkpt>
<trkpt lat="40.0713271" lon="-105.2298809">
  <ele>1583.0</ele>
  <time>2026-08-28T17:49:41Z</time>
  <course>347.38</course>
  <speed>0.0</speed>
  <fix>3d</fix>
</trkpt>
<trkpt lat="40.0713271" lon="-105.229881">
  <ele>1583.15</ele>
  <time>2026-08-28T17:49:41Z</time>
  <course>280.62</course>
  <speed>0.01</speed>
  <fix>3d</fix>
</trkpt>
<trkpt lat="40.0713271" lon="-105.2298809">
  <ele>1583.0</ele>
  <time>2026-08-28T17:49:41Z</time>
  <course>349.36</course>
  <speed>0.0</speed>
  <fix>3d</fix>
</trkpt>
<trkpt lat="40.0713271" lon="-105.229881">
  <ele>1583.15</ele>
  <time>2026-08-28T17:49:41Z</time>
  <course>280.62</course>
  <speed>0.01</speed>
  <fix>3d</fix>
</trkpt>
<trkpt lat="40.0713271" lon="-105.2298809">
  <ele>1583.0</ele>
  <time>2026-08-28T17:49:41Z</time>
  <course>349.36</course>
  <speed>0.0</speed>
  <fix>3d</fix>
</trkpt>
<trkpt lat="40.0713271" lon="-105.229881">
  <ele>1583.15</ele>
  <time>2026-08-28T17:49:41Z</time>
  <course>280.62</course>
  <speed>0.01</speed>
  <fix>3d</fix>
</trkpt>
<trkpt lat="40.0713271" lon="-105.2298809">
  <ele>1583.0</ele>
  <time>2026-08-28T17:49:41Z</time>
  <course>351.2</course>
  <speed>0.0</speed>
  <fix>3d</fix>
</trkpt>
<trkpt lat="40.0713271" lon="-105.229881">
  <ele>1583.15</ele>
  <time>2026-08-28T17:49:41Z</time>
  <course>280.62</course>
  <speed>0.01414213562373095</speed>
  <fix>3d</fix>
</trkpt>
<trkpt lat="40.0713271" lon="-105.2298809">
  <ele>1583.0</ele>
  <time>2026-08-28T17:49:41Z</time>
  <course>351.2</course>
  <speed>0.0</speed>
  <fix>3d</fix>
</trkpt>
<trkpt lat="40.0713271" lon="-105.229881">
  <ele>1583.15</ele>
  <time>2026-08-28T17:49:41Z</time>
  <course>280.61</course>
  <speed>0.01</speed>
  <fix>3d</fix>
</trkpt>
<trkpt lat="40.0713271" lon="-105.2298809">
  <ele>1583.0</ele>
  <time>2026-08-28T17:49:41Z</time>
  <course>352.89</course>
  <speed>0.0</speed>
  <fix>3d</fix>
</trkpt>
<trkpt lat="40.0713271" lon="-105.229881">
  <ele>1583.16</ele>
  <time>2026-08-28T17:49:41Z</time>
  <course>280.61</course>
  <speed>0.01414213562373095</speed>
  <fix>3d</fix>
</trkpt>
<trkpt lat="40.0713271" lon="-105.2298809">
  <ele>1583.0</ele>
  <time>2026-08-28T17:49:41Z</time>
  <course>354.45</course>
  <speed>0.0</speed>
  <fix>3d</fix>
</trkpt>
<trkpt lat="40.0713271" lon="-105.229881">
  <ele>1583.16</ele>
  <time>2026-08-28T17:49:41Z</time>
  <course>280.61</course>
  <speed>0.01</speed>
  <fix>3d</fix>
</trkpt>
<trkpt lat="40.0713271" lon="-105.2298809">
  <ele>1583.0</ele>
  <time>2026-08-28T17:49:41Z</time>
  <course>354.45</course>
  <speed>0.0</speed>
  <fix>3d</fix>
</trkpt>
<trkpt lat="40.0713271" lon="-105.229881">
  <ele>1583.16</ele>
  <time>2026-08-28T17:49:41Z</time>
  <course>280.61</course>
  <speed>0.01414213562373095</speed>
  <fix>3d</fix>
</trkpt>
<trkpt lat="40.0713271" lon="-105.2298809">
  <ele>1583.0</ele>
  <time>2026-08-28T17:49:41Z</time>
  <course>355.89</course>
  <speed>0.0</speed>
  <fix>3d</fix>
</trkpt>
<trkpt lat="40.0713271" lon="-105.229881">
  <ele>1583.16</ele>
  <time>2026-08-28T17:49:41Z</time>
  <course>280.61</course>
  <speed>0.01</speed>
  <fix>3d</fix>
</trkpt>
<trkpt lat="40.0713271" lon="-105.2298809">
  <ele>1583.0</ele>
  <time>2026-08-28T17:49:41Z</time>
  <course>355.89</course>
  <speed>0.0</speed>
  <fix>3d</fix>
</trkpt>
<trkpt lat="40.0713271" lon="-105.229881">
  <ele>1583.17</ele>
  <time>2026-08-28T17:49:41Z</time>
  <course>280.6</course>
  <speed>0.01414213562373095</speed>
  <fix>3d</fix>
</trkpt>
<trkpt lat="40.0713271" lon="-105.2298809">
  <ele>1583.0</ele>
  <time>2026-08-28T17:49:41Z</time>
  <course>357.2</course>
  <speed>0.0</speed>
  <fix>3d</fix>
</trkpt>
<trkpt lat="40.0713271" lon="-105.229881">
  <ele>1583.17</ele>
  <time>2026-08-28T17:49:41Z</time>
  <course>280.6</course>
  <speed>0.01414213562373095</speed>
  <fix>3d</fix>
</trkpt>
<trkpt lat="40.0713271" lon="-105.2298809">
  <ele>1583.0</ele>
  <time>2026-08-28T17:49:41Z</time>
  <course>357.2</course>
  <speed>0.0</speed>
  <fix>3d</fix>
</trkpt>
<trkpt lat="40.0713271" lon="-105.229881">
  <ele>1583.17</ele>
  <time>2026-08-28T17:49:41Z</time>
  <course>280.6</course>
  <speed>0.01414213562373095</speed>
  <fix>3d</fix>
</trkpt>
<trkpt lat="40.0713271" lon="-105.2298809">
  <ele>1583.0</ele>
  <time>2026-08-28T17:49:41Z</time>
  <course>358.4</course>
  <speed>0.0</speed>
  <fix>3d</fix>
</trkpt>
<trkpt lat="40.0713271" lon="-105.229881">
  <ele>1583.17</ele>
  <time>2026-08-28T17:49:41Z</time>
  <course>280.6</course>
  <speed>0.01414213562373095</speed>
  <fix>3d</fix>
</trkpt>
<trkpt lat="40.0713271" lon="-105.2298809">
  <ele>1583.0</ele>
  <time>2026-08-28T17:49:41Z</time>
  <course>358.4</course>
  <speed>0.0</speed>
  <fix>3d</fix>
</trkpt>
<trkpt lat="40.0713271" lon="-105.229881">
  <ele>1583.17</ele>
  <time>2026-08-28T17:49:41Z</time>
  <course>280.6</course>
  <speed>0.01414213562373095</speed>
  <fix>3d</fix>
</trkpt>
<trkpt lat="40.0713271" lon="-105.2298809">
  <ele>1583.0</ele>
  <time>2026-08-28T17:49:41Z</time>
  <course>359.5</course>
  <speed>0.0</speed>
  <fix>3d</fix>
</trkpt>
<trkpt lat="40.0713271" lon="-105.229881">
  <ele>1583.17</ele>
  <time>2026-08-28T17:49:41Z</time>
  <course>280.59</course>
  <speed>0.01414213562373095</speed>
  <fix>3d</fix>
</trkpt>
<trkpt lat="40.0713271" lon="-105.2298809">
  <ele>1583.0</ele>
  <time>2026-08-28T17:49:41Z</time>
  <course>359.5</course>
  <speed>0.0</speed>
  <fix>3d</fix>
</trkpt>
<trkpt lat="40.0713271" lon="-105.229881">
  <ele>1583.17</ele>
  <time>2026-08-28T17:49:41Z</time>
  <course>280.59</course>
  <speed>0.01414213562373095</speed>
  <fix>3d</fix>
</trkpt>
<trkpt lat="40.0713271" lon="-105.2298809">
  <ele>1583.0</ele>
  <time>2026-08-28T17:49:41Z</time>
  <course>0.49</course>
  <speed>0.0</speed>
  <fix>3d</fix>
</trkpt>
<trkpt lat="40.0713271" lon="-105.229881">
  <ele>1583.16</ele>
  <time>2026-08-28T17:49:41Z</time>
  <course>280.59</course>
  <speed>0.01414213562373095</speed>
  <fix>3d</fix>
</trkpt>
<trkpt lat="40.0713271" lon="-105.2298809">
  <ele>1583.0</ele>
  <time>2026-08-28T17:49:41Z</time>
  <course>0.49</course>
  <speed>0.0</speed>
  <fix>3d</fix>
</trkpt>
<trkpt lat="40.0713271" lon="-105.229881">
  <ele>1583.16</ele>
  <time>2026-08-28T17:49:41Z</time>
  <course>280.59</course>
  <speed>0.01414213562373095</speed>
  <fix>3d</fix>
</trkpt>
<trkpt lat="40.0713271" lon="-105.2298809">
  <ele>1583.0</ele>
  <time>2026-08-28T17:49:41Z</time>
  <course>1.4</course>
  <speed>0.0</speed>
  <fix>3d</fix>
</trkpt>
<trkpt lat="40.0713271" lon="-105.229881">
  <ele>1583.16</ele>
  <time>2026-08-28T17:49:41Z</time>
  <course>280.58</course>
  <speed>0.01414213562373095</speed>
  <fix>3d</fix>
</trkpt>
<trkpt lat="40.0713271" lon="-105.2298809">
  <ele>1583.0</ele>
  <time>2026-08-28T17:49:41Z</time>
  <course>1.4</course>
  <speed>0.0</speed>
  <fix>3d</fix>
</trkpt>
<trkpt lat="40.0713271" lon="-105.229881">
  <ele>1583.16</ele>
  <time>2026-08-28T17:49:41Z</time>
  <course>280.58</course>
  <speed>0.01414213562373095</speed>
  <fix>3d</fix>
</trkpt>
<trkpt lat="40.0713271" lon="-105.2298809">
  <ele>1583.0</ele>
  <time>2026-08-28T17:49:41Z</time>
  <course>1.4</course>
  <speed>0.0</speed>
  <fix>3d</fix>
</trkpt>
<trkpt lat="40.0713271" lon="-105.229881">
  <ele>1583.16</ele>
  <time>2026-08-28T17:49:41Z</time>
  <course>280.58</course>
  <speed>0.01414213562373095</speed>
  <fix>3d</fix>
</trkpt>
<trkpt lat="40.0713271" lon="-105.2298809">
  <ele>1583.0</ele>
  <time>2026-08-28T17:49:41Z</time>
  <course>2.23</course>
  <speed>0.0</speed>
  <fix>3d</fix>
</trkpt>
<trkpt lat="40.0713271" lon="-105.229881">
  <ele>1583.16</ele>
  <time>2026-08-28T17:49:41Z</time>
  <course>280.58</course>
  <speed>0.01414213562373095</speed>
  <fix>3d</fix>
</trkpt>
<trkpt lat="40.0713271" lon="-105.2298809">
  <ele>1583.0</ele>
  <time>2026-08-28T17:49:41Z</time>
  <course>2.23</course>
  <speed>0.0</speed>
  <fix>3d</fix>
</trkpt>
<trkpt lat="40.0713271" lon="-105.229881">
  <ele>1583.16</ele>
  <time>2026-08-28T17:49:41Z</time>
  <course>280.57</course>
  <speed>0.01414213562373095</speed>
  <fix>3d</fix>
</trkpt>
<trkpt lat="40.0713271" lon="-105.2298809">
  <ele>1583.0</ele>
  <time>2026-08-28T17:49:41Z</time>
  <course>2.98</course>
  <speed>0.0</speed>
  <fix>3d</fix>
</trkpt>
<trkpt lat="40.0713271" lon="-105.229881">
  <ele>1583.16</ele>
  <time>2026-08-28T17:49:41Z</time>
  <course>280.57</course>
  <speed>0.01414213562373095</speed>
  <fix>3d</fix>
</trkpt>
<trkpt lat="40.0713271" lon="-105.2298809">
  <ele>1583.0</ele>
  <time>2026-08-28T17:49:41Z</time>
  <course>2.98</course>
  <speed>0.0</speed>
  <fix>3d</fix>
</trkpt>
<trkpt lat="40.0713271" lon="-105.229881">
  <ele>1583.16</ele>
  <time>2026-08-28T17:49:41Z</time>
  <course>280.57</course>
  <speed>0.01414213562373095</speed>
  <fix>3d</fix>
</trkpt>
<trkpt lat="40.0713271" lon="-105.2298809">
  <ele>1583.0</ele>
  <time>2026-08-28T17:49:41Z</time>
  <course>3.66</course>
  <speed>0.0</speed>
  <fix>3d</fix>
</trkpt>
<trkpt lat="40.0713271" lon="-105.229881">
  <ele>1583.16</ele>
  <time>2026-08-28T17:49:41Z</time>
  <course>280.57</course>
  <speed>0.01414213562373095</speed>
  <fix>3d</fix>
</trkpt>
<trkpt lat="40.0713271" lon="-105.2298809">
  <ele>1583.0</ele>
  <time>2026-08-28T17:49:41Z</time>
  <course>3.66</course>
  <speed>0.0</speed>
  <fix>3d</fix>
</trkpt>
<trkpt lat="40.0713271" lon="-105.229881">
  <ele>1583.16</ele>
  <time>2026-08-28T17:49:41Z</time>
  <course>280.56</course>
  <speed>0.01414213562373095</speed>
  <fix>3d</fix>
</trkpt>
<trkpt lat="40.0713271" lon="-105.2298809">
  <ele>1583.0</ele>
  <time>2026-08-28T17:49:41Z</time>
  <course>4.28</course>
  <speed>0.0</speed>
  <fix>3d</fix>
</trkpt>
<trkpt lat="40.0713271" lon="-105.229881">
  <ele>1583.17</ele>
  <time>2026-08-28T17:49:41Z</time>
  <course>280.56</course>
  <speed>0.01414213562373095</speed>
  <fix>3d</fix>
</trkpt>
<trkpt lat="40.0713271" lon="-105.2298809">
  <ele>1583.0</ele>
  <time>2026-08-28T17:49:41Z</time>
  <course>4.84</course>
  <speed>0.0</speed>
  <fix>3d</fix>
</trkpt>
<trkpt lat="40.0713271" lon="-105.229881">
  <ele>1583.17</ele>
  <time>2026-08-28T17:49:41Z</time>
  <course>280.56</course>
  <speed>0.01414213562373095</speed>
  <fix>3d</fix>
</trkpt>
<trkpt lat="40.0713271" lon="-105.2298809">
  <ele>1583.0</ele>
  <time>2026-08-28T17:49:41Z</time>
  <course>4.84</course>
  <speed>0.0</speed>
  <fix>3d</fix>
</trkpt>
<trkpt lat="40.0713271" lon="-105.229881">
  <ele>1583.17</ele>
  <time>2026-08-28T17:49:41Z</time>
  <course>280.56</course>
  <speed>0.01414213562373095</speed>
  <fix>3d</fix>
</trkpt>
<trkpt lat="40.0713271" lon="-105.2298809">
  <ele>1583.0</ele>
  <time>2026-08-28T17:49:41Z</time>
  <course>5.35</course>
  <speed>0.0</speed>
  <fix>3d</fix>
</trkpt>
<trkpt lat="40.0713271" lon="-105.229881">
  <ele>1583.17</ele>
  <time>2026-08-28T17:49:41Z</time>
  <course>280.55</course>
  <speed>0.01414213562373095</speed>
  <fix>3d</fix>
</trkpt>
<trkpt lat="40.0713271" lon="-105.2298809">
  <ele>1583.0</ele>
  <time>2026-08-28T17:49:41Z</time>
  <course>5.35</course>
  <speed>0.0</speed>
  <fix>3d</fix>
</trkpt>
<trkpt lat="40.0713271" lon="-105.229881">
  <ele>1583.17</ele>
  <time>2026-08-28T17:49:41Z</time>
  <course>280.55</course>
  <speed>0.01414213562373095</speed>
  <fix>3d</fix>
</trkpt>
<trkpt lat="40.0713271" lon="-105.2298809">
  <ele>1583.0</ele>
  <time>2026-08-28T17:49:41Z</time>
  <course>5.81</course>
  <speed>0.0</speed>
  <fix>3d</fix>
</trkpt>
<trkpt lat="40.0713271" lon="-105.229881">
  <ele>1583.17</ele>
  <time>2026-08-28T17:49:41Z</time>
  <course>280.55</course>
  <speed>0.01414213562373095</speed>
  <fix>3d</fix>
</trkpt>
<trkpt lat="40.0713271" lon="-105.2298809">
  <ele>1583.0</ele>
  <time>2026-08-28T17:49:41Z</time>
  <course>5.81</course>
  <speed>0.0</speed>
  <fix>3d</fix>
</trkpt>
<trkpt lat="40.0713271" lon="-105.229881">
  <ele>1583.18</ele>
  <time>2026-08-28T17:49:41Z</time>
  <course>280.55</course>
  <speed>0.01414213562373095</speed>
  <fix>3d</fix>
</trkpt>
<trkpt lat="40.0713271" lon="-105.2298809">
  <ele>1583.0</ele>
  <time>2026-08-28T17:49:41Z</time>
  <course>6.22</course>
  <speed>0.0</speed>
  <fix>3d</fix>
</trkpt>
<trkpt lat="40.0713271" lon="-105.229881">
  <ele>1583.18</ele>
  <time>2026-08-28T17:49:41Z</time>
  <course>280.55</course>
  <speed>0.01414213562373095</speed>
  <fix>3d</fix>
</trkpt>
<trkpt lat="40.0713271" lon="-105.2298809">
  <ele>1583.0</ele>
  <time>2026-08-28T17:49:41Z</time>
  <course>6.22</course>
  <speed>0.0</speed>
  <fix>3d</fix>
</trkpt>
<trkpt lat="40.0713271" lon="-105.229881">
  <ele>1583.18</ele>
  <time>2026-08-28T17:49:41Z</time>
  <course>280.54</course>
  <speed>0.01414213562373095</speed>
  <fix>3d</fix>
</trkpt>
<trkpt lat="40.0713271" lon="-105.2298809">
  <ele>1583.0</ele>
  <time>2026-08-28T17:49:41Z</time>
  <course>6.6</course>
  <speed>0.0</speed>
  <fix>3d</fix>
</trkpt>
<trkpt lat="40.0713271" lon="-105.229881">
  <ele>1583.18</ele>
  <time>2026-08-28T17:49:41Z</time>
  <course>280.54</course>
  <speed>0.01414213562373095</speed>
  <fix>3d</fix>
</trkpt>
<trkpt lat="40.0713271" lon="-105.2298809">
  <ele>1583.0</ele>
  <time>2026-08-28T17:49:41Z</time>
  <course>6.6</course>
  <speed>0.0</speed>
  <fix>3d</fix>
</trkpt>
<trkpt lat="40.0713271" lon="-105.229881">
  <ele>1583.18</ele>
  <time>2026-08-28T17:49:41Z</time>
  <course>280.54</course>
  <speed>0.01414213562373095</speed>
  <fix>3d</fix>
</trkpt>
<trkpt lat="40.0713271" lon="-105.2298809">
  <ele>1583.0</ele>
  <time>2026-08-28T17:49:41Z</time>
  <course>6.94</course>
  <speed>0.0</speed>
  <fix>3d</fix>
</trkpt>
<trkpt lat="40.0713271" lon="-105.229881">
  <ele>1583.17</ele>
  <time>2026-08-28T17:49:41Z</time>
  <course>280.54</course>
  <speed>0.01414213562373095</speed>
  <fix>3d</fix>
</trkpt>
<trkpt lat="40.0713271" lon="-105.2298809">
  <ele>1583.0</ele>
  <time>2026-08-28T17:49:41Z</time>
  <course>6.94</course>
  <speed>0.0</speed>
  <fix>3d</fix>
</trkpt>
<trkpt lat="40.0713271" lon="-105.229881">
  <ele>1583.17</ele>
  <time>2026-08-28T17:49:41Z</time>
  <course>280.53</course>
  <speed>0.01414213562373095</speed>
  <fix>3d</fix>
</trkpt>
<trkpt lat="40.0713271" lon="-105.2298809">
  <ele>1583.0</ele>
  <time>2026-08-28T17:49:41Z</time>
  <course>7.25</course>
  <speed>0.0</speed>
  <fix>3d</fix>
</trkpt>
<trkpt lat="40.0713271" lon="-105.229881">
  <ele>1583.17</ele>
  <time>2026-08-28T17:49:41Z</time>
  <course>280.53</course>
  <speed>0.01414213562373095</speed>
  <fix>3d</fix>
</trkpt>
<trkpt lat="40.0713271" lon="-105.2298809">
  <ele>1583.0</ele>
  <time>2026-08-28T17:49:41Z</time>
  <course>7.25</course>
  <speed>0.0</speed>
  <fix>3d</fix>
</trkpt>
<trkpt lat="40.0713271" lon="-105.229881">
  <ele>1583.17</ele>
  <time>2026-08-28T17:49:41Z</time>
  <course>280.53</course>
  <speed>0.01414213562373095</speed>
  <fix>3d</fix>
</trkpt>
<trkpt lat="40.0713271" lon="-105.2298809">
  <ele>1583.0</ele>
  <time>2026-08-28T17:49:41Z</time>
  <course>7.25</course>
  <speed>0.0</speed>
  <fix>3d</fix>
</trkpt>
<trkpt lat="40.0713271" lon="-105.229881">
  <ele>1583.17</ele>
  <time>2026-08-28T17:49:41Z</time>
  <course>280.53</course>
  <speed>0.01414213562373095</speed>
  <fix>3d</fix>
</trkpt>
<trkpt lat="40.0713271" lon="-105.2298809">
  <ele>1583.0</ele>
  <time>2026-08-28T17:49:41Z</time>
  <course>7.53</course>
  <speed>0.0</speed>
  <fix>3d</fix>
</trkpt>
<trkpt lat="40.0713271" lon="-105.229881">
  <ele>1583.17</ele>
  <time>2026-08-28T17:49:41Z</time>
  <course>280.52</course>
  <speed>0.01414213562373095</speed>
  <fix>3d</fix>
</trkpt>
<trkpt lat="40.0713271" lon="-105.2298809">
  <ele>1583.0</ele>
  <time>2026-08-28T17:49:41Z</time>
  <course>7.53</course>
  <speed>0.0</speed>
  <fix>3d</fix>
</trkpt>
<trkpt lat="40.0713271" lon="-105.229881">
  <ele>1583.17</ele>
  <time>2026-08-28T17:49:41Z</time>
  <course>280.52</course>
  <speed>0.01414213562373095</speed>
  <fix>3d</fix>
</trkpt>
<trkpt lat="40.0713271" lon="-105.2298809">
  <ele>1583.0</ele>
  <time>2026-08-28T17:49:41Z</time>
  <course>7.78</course>
  <speed>0.0</speed>
  <fix>3d</fix>
</trkpt>
<trkpt lat="40.0713271" lon="-105.229881">
  <ele>1583.17</ele>
  <time>2026-08-28T17:49:41Z</time>
  <course>280.52</course>
  <speed>0.01414213562373095</speed>
  <fix>3d</fix>
</trkpt>
<trkpt lat="40.0713271" lon="-105.2298809">
  <ele>1583.0</ele>
  <time>2026-08-28T17:49:41Z</time>
  <course>7.78</course>
  <speed>0.0</speed>
  <fix>3d</fix>
</trkpt>
<trkpt lat="40.0713271" lon="-105.229881">
  <ele>1583.17</ele>
  <time>2026-08-28T17:49:41Z</time>
  <course>280.52</course>
  <speed>0.01414213562373095</speed>
  <fix>3d</fix>
</trkpt>
<trkpt lat="40.0713271" lon="-105.2298809">
  <ele>1583.0</ele>
  <time>2026-08-28T17:49:41Z</time>
  <course>8.01</course>
  <speed>0.0</speed>
  <fix>3d</fix>
</trkpt>
<trkpt lat="40.0713271" lon="-105.229881">
  <ele>1583.17</ele>
  <time>2026-08-28T17:49:41Z</time>
  <course>280.51</course>
  <speed>0.01414213562373095</speed>
  <fix>3d</fix>
</trkpt>
<trkpt lat="40.0713271" lon="-105.2298809">
  <ele>1583.0</ele>
  <time>2026-08-28T17:49:41Z</time>
  <course>8.22</course>
  <speed>0.0</speed>
  <fix>3d</fix>
</trkpt>
<trkpt lat="40.0713271" lon="-105.229881">
  <ele>1583.17</ele>
  <time>2026-08-28T17:49:41Z</time>
  <course>280.51</course>
  <speed>0.01414213562373095</speed>
  <fix>3d</fix>
</trkpt>
<trkpt lat="40.0713271" lon="-105.2298809">
  <ele>1583.0</ele>
  <time>2026-08-28T17:49:41Z</time>
  <course>8.22</course>
  <speed>0.0</speed>
  <fix>3d</fix>
</trkpt>
<trkpt lat="40.0713271" lon="-105.229881">
  <ele>1583.17</ele>
  <time>2026-08-28T17:49:41Z</time>
  <course>280.51</course>
  <speed>0.01414213562373095</speed>
  <fix>3d</fix>
</trkpt>
<trkpt lat="40.0713271" lon="-105.2298809">
  <ele>1583.0</ele>
  <time>2026-08-28T17:49:41Z</time>
  <course>8.41</course>
  <speed>0.0</speed>
  <fix>3d</fix>
</trkpt>
<trkpt lat="40.0713271" lon="-105.229881">
  <ele>1583.17</ele>
  <time>2026-08-28T17:49:41Z</time>
  <course>280.51</course>
  <speed>0.01414213562373095</speed>
  <fix>3d</fix>
</trkpt>
<trkpt lat="40.0713271" lon="-105.2298809">
  <ele>1583.0</ele>
  <time>2026-08-28T17:49:41Z</time>
  <course>8.41</course>
  <speed>0.0</speed>
  <fix>3d</fix>
</trkpt>
<trkpt lat="40.0713271" lon="-105.229881">
  <ele>1583.18</ele>
  <time>2026-08-28T17:49:41Z</time>
  <course>280.5</course>
  <speed>0.01414213562373095</speed>
  <fix>3d</fix>
</trkpt>
<trkpt lat="40.0713271" lon="-105.2298809">
  <ele>1583.0</ele>
  <time>2026-08-28T17:49:41Z</time>
  <course>8.58</course>
  <speed>0.0</speed>
  <fix>3d</fix>
</trkpt>
<trkpt lat="40.0713271" lon="-105.229881">
  <ele>1583.18</ele>
  <time>2026-08-28T17:49:41Z</time>
  <course>280.5</course>
  <speed>0.01414213562373095</speed>
  <fix>3d</fix>
</trkpt>
<trkpt lat="40.0713271" lon="-105.2298809">
  <ele>1583.0</ele>
  <time>2026-08-28T17:49:41Z</time>
  <course>8.58</course>
  <speed>0.0</speed>
  <fix>3d</fix>
</trkpt>
<trkpt lat="40.0713271" lon="-105.229881">
  <ele>1583.18</ele>
  <time>2026-08-28T17:49:41Z</time>
  <course>280.5</course>
  <speed>0.01414213562373095</speed>
  <fix>3d</fix>
</trkpt>
<trkpt lat="40.0713271" lon="-105.2298809">
  <ele>1583.0</ele>
  <time>2026-08-28T17:49:41Z</time>
  <course>8.73</course>
  <speed>0.0</speed>
  <fix>3d</fix>
</trkpt>
<trkpt lat="40.0713271" lon="-105.229881">
  <ele>1583.18</ele>
  <time>2026-08-28T17:49:41Z</time>
  <course>280.5</course>
  <speed>0.01414213562373095</speed>
  <fix>3d</fix>
</trkpt>
<trkpt lat="40.0713271" lon="-105.2298809">
  <ele>1583.0</ele>
  <time>2026-08-28T17:49:41Z</time>
  <course>8.73</course>
  <speed>0.0</speed>
  <fix>3d</fix>
</trkpt>
<trkpt lat="40.0713271" lon="-105.229881">
  <ele>1583.18</ele>
  <time>2026-08-28T17:49:41Z</time>
  <course>280.49</course>
  <speed>0.01414213562373095</speed>
  <fix>3d</fix>
</trkpt>
<trkpt lat="40.0713271" lon="-105.2298809">
  <ele>1583.0</ele>
  <time>2026-08-28T17:49:41Z</time>
  <course>8.87</course>
  <speed>0.0</speed>
  <fix>3d</fix>
</trkpt>
<trkpt lat="40.0713271" lon="-105.229881">
  <ele>1583.18</ele>
  <time>2026-08-28T17:49:41Z</time>
  <course>280.49</course>
  <speed>0.01414213562373095</speed>
  <fix>3d</fix>
</trkpt>
<trkpt lat="40.0713271" lon="-105.2298809">
  <ele>1583.0</ele>
  <time>2026-08-28T17:49:41Z</time>
  <course>8.87</course>
  <speed>0.0</speed>
  <fix>3d</fix>
</trkpt>
<trkpt lat="40.0713271" lon="-105.229881">
  <ele>1583.18</ele>
  <time>2026-08-28T17:49:41Z</time>
  <course>280.49</course>
  <speed>0.01414213562373095</speed>
  <fix>3d</fix>
</trkpt>
<trkpt lat="40.0713271" lon="-105.2298809">
  <ele>1583.0</ele>
  <time>2026-08-28T17:49:41Z</time>
  <course>9.0</course>
  <speed>0.0</speed>
  <fix>3d</fix>
</trkpt>
<trkpt lat="40.0713271" lon="-105.229881">
  <ele>1583.18</ele>
  <time>2026-08-28T17:49:41Z</time>
  <course>280.48</course>
  <speed>0.01414213562373095</speed>
  <fix>3d</fix>
</trkpt>
<trkpt lat="40.0713271" lon="-105.2298809">
  <ele>1583.0</ele>
  <time>2026-08-28T17:49:41Z</time>
  <course>9.0</course>
  <speed>0.0</speed>
  <fix>3d</fix>
</trkpt>
<trkpt lat="40.0713271" lon="-105.229881">
  <ele>1583.18</ele>
  <time>2026-08-28T17:49:41Z</time>
  <course>280.48</course>
  <speed>0.01414213562373095</speed>
  <fix>3d</fix>
</trkpt>
<trkpt lat="40.0713271" lon="-105.2298809">
  <ele>1583.0</ele>
  <time>2026-08-28T17:49:41Z</time>
  <course>9.11</course>
  <speed>0.0</speed>
  <fix>3d</fix>
</trkpt>
<trkpt lat="40.0713271" lon="-105.229881">
  <ele>1583.18</ele>
  <time>2026-08-28T17:49:41Z</time>
  <course>280.48</course>
  <speed>0.01414213562373095</speed>
  <fix>3d</fix>
</trkpt>
<trkpt lat="40.0713271" lon="-105.2298809">
  <ele>1583.0</ele>
  <time>2026-08-28T17:49:41Z</time>
  <course>9.11</course>
  <speed>0.0</speed>
  <fix>3d</fix>
</trkpt>
<trkpt lat="40.0713271" lon="-105.229881">
  <ele>1583.18</ele>
  <time>2026-08-28T17:49:41Z</time>
  <course>280.48</course>
  <speed>0.01414213562373095</speed>
  <fix>3d</fix>
</trkpt>
<trkpt lat="40.0713271" lon="-105.2298809">
  <ele>1583.0</ele>
  <time>2026-08-28T17:49:41Z</time>
  <course>9.11</course>
  <speed>0.0</speed>
  <fix>3d</fix>
</trkpt>
<trkpt lat="40.0713271" lon="-105.229881">
  <ele>1583.18</ele>
  <time>2026-08-28T17:49:41Z</time>
  <course>280.47</course>
  <speed>0.01414213562373095</speed>
  <fix>3d</fix>
</trkpt>
<trkpt lat="40.0713271" lon="-105.2298809">
  <ele>1583.0</ele>
  <time>2026-08-28T17:49:41Z</time>
  <course>9.22</course>
  <speed>0.0</speed>
  <fix>3d</fix>
</trkpt>
<trkpt lat="40.0713271" lon="-105.229881">
  <ele>1583.18</ele>
  <time>2026-08-28T17:49:41Z</time>
  <course>280.47</course>
  <speed>0.01414213562373095</speed>
  <fix>3d</fix>
</trkpt>
<trkpt lat="40.0713271" lon="-105.2298809">
  <ele>1583.0</ele>
  <time>2026-08-28T17:49:41Z</time>
  <course>9.22</course>
  <speed>0.0</speed>
  <fix>3d</fix>
</trkpt>
<trkpt lat="40.0713271" lon="-105.229881">
  <ele>1583.18</ele>
  <time>2026-08-28T17:49:41Z</time>
  <course>280.47</course>
  <speed>0.01414213562373095</speed>
  <fix>3d</fix>
</trkpt>
<trkpt lat="40.0713271" lon="-105.2298809">
  <ele>1583.0</ele>
  <time>2026-08-28T17:49:41Z</time>
  <course>9.31</course>
  <speed>0.0</speed>
  <fix>3d</fix>
</trkpt>
<trkpt lat="40.0713271" lon="-105.229881">
  <ele>1583.18</ele>
  <time>2026-08-28T17:49:41Z</time>
  <course>280.47</course>
  <speed>0.01414213562373095</speed>
  <fix>3d</fix>
</trkpt>
<trkpt lat="40.0713271" lon="-105.2298809">
  <ele>1583.0</ele>
  <time>2026-08-28T17:49:41Z</time>
  <course>9.31</course>
  <speed>0.0</speed>
  <fix>3d</fix>
</trkpt>
<trkpt lat="40.0713271" lon="-105.229881">
  <ele>1583.18</ele>
  <time>2026-08-28T17:49:41Z</time>
  <course>280.46</course>
  <speed>0.01414213562373095</speed>
  <fix>3d</fix>
</trkpt>
<trkpt lat="40.0713271" lon="-105.2298809">
  <ele>1583.0</ele>
  <time>2026-08-28T17:49:41Z</time>
  <course>9.39</course>
  <speed>0.0</speed>
  <fix>3d</fix>
</trkpt>
<trkpt lat="40.0713271" lon="-105.229881">
  <ele>1583.18</ele>
  <time>2026-08-28T17:49:41Z</time>
  <course>280.46</course>
  <speed>0.01414213562373095</speed>
  <fix>3d</fix>
</trkpt>
<trkpt lat="40.0713271" lon="-105.2298809">
  <ele>1583.0</ele>
  <time>2026-08-28T17:49:41Z</time>
  <course>9.39</course>
  <speed>0.0</speed>
  <fix>3d</fix>
</trkpt>
<trkpt lat="40.0713271" lon="-105.229881">
  <ele>1583.18</ele>
  <time>2026-08-28T17:49:41Z</time>
  <course>280.46</course>
  <speed>0.01414213562373095</speed>
  <fix>3d</fix>
</trkpt>
<trkpt lat="40.0713271" lon="-105.2298809">
  <ele>1583.0</ele>
  <time>2026-08-28T17:49:41Z</time>
  <course>9.47</course>
  <speed>0.0</speed>
  <fix>3d</fix>
</trkpt>
<trkpt lat="40.0713271" lon="-105.229881">
  <ele>1583.18</ele>
  <time>2026-08-28T17:49:41Z</time>
  <course>280.46</course>
  <speed>0.01414213562373095</speed>
  <fix>3d</fix>
</trkpt>
<trkpt lat="40.0713271" lon="-105.2298809">
  <ele>1583.0</ele>
  <time>2026-08-28T17:49:41Z</time>
  <course>9.54</course>
  <speed>0.0</speed>
  <fix>3d</fix>
</trkpt>
<trkpt lat="40.0713271" lon="-105.229881">
  <ele>1583.18</ele>
  <time>2026-08-28T17:49:41Z</time>
  <course>280.45</course>
  <speed>0.01414213562373095</speed>
  <fix>3d</fix>
</trkpt>
<trkpt lat="40.0713271" lon="-105.2298809">
  <ele>1583.0</ele>
  <time>2026-08-28T17:49:41Z</time>
  <course>9.54</course>
  <speed>0.0</speed>
  <fix>3d</fix>
</trkpt>
<trkpt lat="40.0713271" lon="-105.229881">
  <ele>1583.19</ele>
  <time>2026-08-28T17:49:41Z</time>
  <course>280.45</course>
  <speed>0.01414213562373095</speed>
  <fix>3d</fix>
</trkpt>
<trkpt lat="40.0713271" lon="-105.2298809">
  <ele>1583.0</ele>
  <time>2026-08-28T17:49:41Z</time>
  <course>9.6</course>
  <speed>0.0</speed>
  <fix>3d</fix>
</trkpt>
<trkpt lat="40.0713271" lon="-105.229881">
  <ele>1583.19</ele>
  <time>2026-08-28T17:49:41Z</time>
  <course>280.45</course>
  <speed>0.01414213562373095</speed>
  <fix>3d</fix>
</trkpt>
<trkpt lat="40.0713271" lon="-105.2298809">
  <ele>1583.0</ele>
  <time>2026-08-28T17:49:41Z</time>
  <course>9.6</course>
  <speed>0.0</speed>
  <fix>3d</fix>
</trkpt>
<trkpt lat="40.0713271" lon="-105.229881">
  <ele>1583.19</ele>
  <time>2026-08-28T17:49:41Z</time>
  <course>280.45</course>
  <speed>0.01414213562373095</speed>
  <fix>3d</fix>
</trkpt>
<trkpt lat="40.0713271" lon="-105.2298809">
  <ele>1583.0</ele>
  <time>2026-08-28T17:49:41Z</time>
  <course>9.66</course>
  <speed>0.0</speed>
  <fix>3d</fix>
</trkpt>
<trkpt lat="40.0713271" lon="-105.229881">
  <ele>1583.19</ele>
  <time>2026-08-28T17:49:41Z</time>
  <course>280.44</course>
  <speed>0.01414213562373095</speed>
  <fix>3d</fix>
</trkpt>
<trkpt lat="40.0713271" lon="-105.2298809">
  <ele>1583.0</ele>
  <time>2026-08-28T17:49:41Z</time>
  <course>9.66</course>
  <speed>0.0</speed>
  <fix>3d</fix>
</trkpt>
<trkpt lat="40.0713271" lon="-105.229881">
  <ele>1583.19</ele>
  <time>2026-08-28T17:49:41Z</time>
  <course>280.44</course>
  <speed>0.01414213562373095</speed>
  <fix>3d</fix>
</trkpt>
<trkpt lat="40.0713271" lon="-105.2298809">
  <ele>1583.0</ele>
  <time>2026-08-28T17:49:41Z</time>
  <course>9.71</course>
  <speed>0.0</speed>
  <fix>3d</fix>
</trkpt>
<trkpt lat="40.0713271" lon="-105.229881">
  <ele>1583.19</ele>
  <time>2026-08-28T17:49:41Z</time>
  <course>280.44</course>
  <speed>0.01414213562373095</speed>
  <fix>3d</fix>
</trkpt>
<trkpt lat="40.0713271" lon="-105.2298809">
  <ele>1583.0</ele>
  <time>2026-08-28T17:49:41Z</time>
  <course>9.71</course>
  <speed>0.0</speed>
  <fix>3d</fix>
</trkpt>
<trkpt lat="40.0713271" lon="-105.229881">
  <ele>1583.19</ele>
  <time>2026-08-28T17:49:41Z</time>
  <course>280.44</course>
  <speed>0.01414213562373095</speed>
  <fix>3d</fix>
</trkpt>
<trkpt lat="40.0713271" lon="-105.2298809">
  <ele>1583.0</ele>
  <time>2026-08-28T17:49:41Z</time>
  <course>9.76</course>
  <speed>0.0</speed>
  <fix>3d</fix>
</trkpt>
<trkpt lat="40.0713271" lon="-105.229881">
  <ele>1583.2</ele>
  <time>2026-08-28T17:49:41Z</time>
  <course>280.43</course>
  <speed>0.01414213562373095</speed>
  <fix>3d</fix>
</trkpt>
<trkpt lat="40.0713271" lon="-105.2298809">
  <ele>1583.0</ele>
  <time>2026-08-28T17:49:41Z</time>
  <course>9.76</course>
  <speed>0.0</speed>
  <fix>3d</fix>
</trkpt>
<trkpt lat="40.0713271" lon="-105.229881">
  <ele>1583.2</ele>
  <time>2026-08-28T17:49:41Z</time>
  <course>280.43</course>
  <speed>0.01414213562373095</speed>
  <fix>3d</fix>
</trkpt>
<trkpt lat="40.0713271" lon="-105.2298809">
  <ele>1583.0</ele>
  <time>2026-08-28T17:49:41Z</time>
  <course>9.8</course>
  <speed>0.0</speed>
  <fix>3d</fix>
</trkpt>
<trkpt lat="40.0713271" lon="-105.229881">
  <ele>1583.2</ele>
  <time>2026-08-28T17:49:41Z</time>
  <course>280.43</course>
  <speed>0.01414213562373095</speed>
  <fix>3d</fix>
</trkpt>
<trkpt lat="40.0713271" lon="-105.2298809">
  <ele>1583.0</ele>
  <time>2026-08-28T17:49:41Z</time>
  <course>9.8</course>
  <speed>0.0</speed>
  <fix>3d</fix>
</trkpt>
<trkpt lat="40.0713271" lon="-105.229881">
  <ele>1583.2</ele>
  <time>2026-08-28T17:49:41Z</time>
  <course>280.42</course>
  <speed>0.01414213562373095</speed>
  <fix>3d</fix>
</trkpt>
<trkpt lat="40.0713271" lon="-105.2298809">
  <ele>1583.0</ele>
  <time>2026-08-28T17:49:41Z</time>
  <course>9.84</course>
  <speed>0.0</speed>
  <fix>3d</fix>
</trkpt>
<trkpt lat="40.0713271" lon="-105.229881">
  <ele>1583.2</ele>
  <time>2026-08-28T17:49:41Z</time>
  <course>280.42</course>
  <speed>0.01414213562373095</speed>
  <fix>3d</fix>
</trkpt>
<trkpt lat="40.0713271" lon="-105.2298809">
  <ele>1583.0</ele>
  <time>2026-08-28T17:49:41Z</time>
  <course>9.84</course>
  <speed>0.0</speed>
  <fix>3d</fix>
</trkpt>
<trkpt lat="40.0713271" lon="-105.229881">
  <ele>1583.2</ele>
  <time>2026-08-28T17:49:41Z</time>
  <course>280.42</course>
  <speed>0.01414213562373095</speed>
  <fix>3d</fix>
</trkpt>
<trkpt lat="40.0713271" lon="-105.2298809">
  <ele>1583.0</ele>
  <time>2026-08-28T17:49:41Z</time>
  <course>9.84</course>
  <speed>0.0</speed>
  <fix>3d</fix>
</trkpt>
<trkpt lat="40.0713271" lon="-105.229881">
  <ele>1583.2</ele>
  <time>2026-08-28T17:49:41Z</time>
  <course>280.42</course>
  <speed>0.01414213562373095</speed>
  <fix>3d</fix>
</trkpt>
<trkpt lat="40.0713271" lon="-105.2298809">
  <ele>1583.0</ele>
  <time>2026-08-28T17:49:41Z</time>
  <course>9.87</course>
  <speed>0.0</speed>
  <fix>3d</fix>
</trkpt>
<trkpt lat="40.0713271" lon="-105.229881">
  <ele>1583.2</ele>
  <time>2026-08-28T17:49:41Z</time>
  <course>280.41</course>
  <speed>0.01414213562373095</speed>
  <fix>3d</fix>
</trkpt>
<trkpt lat="40.0713271" lon="-105.2298809">
  <ele>1583.0</ele>
  <time>2026-08-28T17:49:41Z</time>
  <course>9.87</course>
  <speed>0.0</speed>
  <fix>3d</fix>
</trkpt>
<trkpt lat="40.0713271" lon="-105.229881">
  <ele>1583.2</ele>
  <time>2026-08-28T17:49:41Z</time>
  <course>280.41</course>
  <speed>0.01414213562373095</speed>
  <fix>3d</fix>
</trkpt>
<trkpt lat="40.0713271" lon="-105.2298809">
  <ele>1583.0</ele>
  <time>2026-08-28T17:49:41Z</time>
  <course>9.9</course>
  <speed>0.0</speed>
  <fix>3d</fix>
</trkpt>
<trkpt lat="40.0713271" lon="-105.229881">
  <ele>1583.2</ele>
  <time>2026-08-28T17:49:41Z</time>
  <course>280.41</course>
  <speed>0.01414213562373095</speed>
  <fix>3d</fix>
</trkpt>
<trkpt lat="40.0713271" lon="-105.2298809">
  <ele>1583.0</ele>
  <time>2026-08-28T17:49:41Z</time>
  <course>9.9</course>
  <speed>0.0</speed>
  <fix>3d</fix>
</trkpt>
<trkpt lat="40.0713271" lon="-105.229881">
  <ele>1583.19</ele>
  <time>2026-08-28T17:49:41Z</time>
  <course>280.41</course>
  <speed>0.01414213562373095</speed>
  <fix>3d</fix>
</trkpt>
<trkpt lat="40.0713271" lon="-105.2298809">
  <ele>1583.0</ele>
  <time>2026-08-28T17:49:41Z</time>
  <course>9.93</course>
  <speed>0.0</speed>
  <fix>3d</fix>
</trkpt>
<trkpt lat="40.0713271" lon="-105.229881">
  <ele>1583.19</ele>
  <time>2026-08-28T17:49:41Z</time>
  <course>280.4</course>
  <speed>0.01414213562373095</speed>
  <fix>3d</fix>
</trkpt>
<trkpt lat="40.0713271" lon="-105.2298809">
  <ele>1583.0</ele>
  <time>2026-08-28T17:49:41Z</time>
  <course>9.96</course>
  <speed>0.0</speed>
  <fix>3d</fix>
</trkpt>
<trkpt lat="40.0713271" lon="-105.229881">
  <ele>1583.19</ele>
  <time>2026-08-28T17:49:41Z</time>
  <course>280.4</course>
  <speed>0.01414213562373095</speed>
  <fix>3d</fix>
</trkpt>
<trkpt lat="40.0713271" lon="-105.2298809">
  <ele>1583.0</ele>
  <time>2026-08-28T17:49:41Z</time>
  <course>9.96</course>
  <speed>0.0</speed>
  <fix>3d</fix>
</trkpt>
<trkpt lat="40.0713271" lon="-105.229881">
  <ele>1583.19</ele>
  <time>2026-08-28T17:49:41Z</time>
  <course>280.4</course>
  <speed>0.01414213562373095</speed>
  <fix>3d</fix>
</trkpt>
<trkpt lat="40.0713271" lon="-105.2298809">
  <ele>1583.0</ele>
  <time>2026-08-28T17:49:41Z</time>
  <course>9.98</course>
  <speed>0.0</speed>
  <fix>3d</fix>
</trkpt>
<trkpt lat="40.0713271" lon="-105.229881">
  <ele>1583.19</ele>
  <time>2026-08-28T17:49:41Z</time>
  <course>280.4</course>
  <speed>0.01414213562373095</speed>
  <fix>3d</fix>
</trkpt>
<trkpt lat="40.0713271" lon="-105.2298809">
  <ele>1583.0</ele>
  <time>2026-08-28T17:49:41Z</time>
  <course>9.98</course>
  <speed>0.0</speed>
  <fix>3d</fix>
</trkpt>
<trkpt lat="40.0713271" lon="-105.229881">
  <ele>1583.19</ele>
  <time>2026-08-28T17:49:41Z</time>
  <course>280.39</course>
  <speed>0.01414213562373095</speed>
  <fix>3d</fix>
</trkpt>
<trkpt lat="40.0713271" lon="-105.2298809">
  <ele>1583.0</ele>
  <time>2026-08-28T17:49:41Z</time>
  <course>10.0</course>
  <speed>0.0</speed>
  <fix>3d</fix>
</trkpt>
<trkpt lat="40.0713271" lon="-105.229881">
  <ele>1583.19</ele>
  <time>2026-08-28T17:49:41Z</time>
  <course>280.39</course>
  <speed>0.01414213562373095</speed>
  <fix>3d</fix>
</trkpt>
<trkpt lat="40.0713271" lon="-105.2298809">
  <ele>1583.0</ele>
  <time>2026-08-28T17:49:41Z</time>
  <course>10.0</course>
  <speed>0.0</speed>
  <fix>3d</fix>
</trkpt>
<trkpt lat="40.0713271" lon="-105.229881">
  <ele>1583.19</ele>
  <time>2026-08-28T17:49:41Z</time>
  <course>280.39</course>
  <speed>0.01414213562373095</speed>
  <fix>3d</fix>
</trkpt>
<trkpt lat="40.0713271" lon="-105.2298809">
  <ele>1583.0</ele>
  <time>2026-08-28T17:49:41Z</time>
  <course>10.02</course>
  <speed>0.0</speed>
  <fix>3d</fix>
</trkpt>
<trkpt lat="40.0713271" lon="-105.229881">
  <ele>1583.19</ele>
  <time>2026-08-28T17:49:41Z</time>
  <course>280.38</course>
  <speed>0.01414213562373095</speed>
  <fix>3d</fix>
</trkpt>
<trkpt lat="40.0713271" lon="-105.2298809">
  <ele>1583.0</ele>
  <time>2026-08-28T17:49:41Z</time>
  <course>10.02</course>
  <speed>0.0</speed>
  <fix>3d</fix>
</trkpt>
<trkpt lat="40.0713271" lon="-105.229881">
  <ele>1583.19</ele>
  <time>2026-08-28T17:49:41Z</time>
  <course>280.38</course>
  <speed>0.01414213562373095</speed>
  <fix>3d</fix>
</trkpt>
<trkpt lat="40.0713271" lon="-105.2298809">
  <ele>1583.0</ele>
  <time>2026-08-28T17:49:41Z</time>
  <course>10.04</course>
  <speed>0.0</speed>
  <fix>3d</fix>
</trkpt>
<trkpt lat="40.0713271" lon="-105.229881">
  <ele>1583.19</ele>
  <time>2026-08-28T17:49:41Z</time>
  <course>280.38</course>
  <speed>0.01414213562373095</speed>
  <fix>3d</fix>
</trkpt>
<trkpt lat="40.0713271" lon="-105.2298809">
  <ele>1583.0</ele>
  <time>2026-08-28T17:49:41Z</time>
  <course>10.04</course>
  <speed>0.0</speed>
  <fix>3d</fix>
</trkpt>
<trkpt lat="40.0713271" lon="-105.229881">
  <ele>1583.2</ele>
  <time>2026-08-28T17:49:41Z</time>
  <course>280.38</course>
  <speed>0.01414213562373095</speed>
  <fix>3d</fix>
</trkpt>
<trkpt lat="40.0713271" lon="-105.2298809">
  <ele>1583.0</ele>
  <time>2026-08-28T17:49:41Z</time>
  <course>10.05</course>
  <speed>0.0</speed>
  <fix>3d</fix>
</trkpt>
<trkpt lat="40.0713271" lon="-105.229881">
  <ele>1583.2</ele>
  <time>2026-08-28T17:49:41Z</time>
  <course>280.37</course>
  <speed>0.01414213562373095</speed>
  <fix>3d</fix>
</trkpt>
<trkpt lat="40.0713271" lon="-105.2298809">
  <ele>1583.0</ele>
  <time>2026-08-28T17:49:41Z</time>
  <course>10.05</course>
  <speed>0.0</speed>
  <fix>3d</fix>
</trkpt>
<trkpt lat="40.0713271" lon="-105.229881">
  <ele>1583.2</ele>
  <time>2026-08-28T17:49:41Z</time>
  <course>280.37</course>
  <speed>0.01414213562373095</speed>
  <fix>3d</fix>
</trkpt>
<trkpt lat="40.0713271" lon="-105.2298809">
  <ele>1583.0</ele>
  <time>2026-08-28T17:49:41Z</time>
  <course>10.07</course>
  <speed>0.0</speed>
  <fix>3d</fix>
</trkpt>
<trkpt lat="40.0713271" lon="-105.229881">
  <ele>1583.2</ele>
  <time>2026-08-28T17:49:41Z</time>
  <course>280.37</course>
  <speed>0.01414213562373095</speed>
  <fix>3d</fix>
</trkpt>
<trkpt lat="40.0713271" lon="-105.2298809">
  <ele>1583.0</ele>
  <time>2026-08-28T17:49:41Z</time>
  <course>10.07</course>
  <speed>0.0</speed>
  <fix>3d</fix>
</trkpt>
<trkpt lat="40.0713271" lon="-105.229881">
  <ele>1583.2</ele>
  <time>2026-08-28T17:49:41Z</time>
  <course>280.36</course>
  <speed>0.01414213562373095</speed>
  <fix>3d</fix>
</trkpt>
<trkpt lat="40.0713271" lon="-105.2298809">
  <ele>1583.0</ele>
  <time>2026-08-28T17:49:41Z</time>
  <course>10.07</course>
  <speed>0.0</speed>
  <fix>3d</fix>
</trkpt>
<trkpt lat="40.0713271" lon="-105.229881">
  <ele>1583.2</ele>
  <time>2026-08-28T17:49:42Z</time>
  <course>280.36</course>
  <speed>0.01414213562373095</speed>
  <fix>3d</fix>
</trkpt>
<trkpt lat="40.0713271" lon="-105.2298809">
  <ele>1583.0</ele>
  <time>2026-08-28T17:49:42Z</time>
  <course>10.08</course>
  <speed>0.0</speed>
  <fix>3d</fix>
</trkpt>
<trkpt lat="40.0713271" lon="-105.229881">
  <ele>1583.2</ele>
  <time>2026-08-28T17:49:42Z</time>
  <course>280.36</course>
  <speed>0.01414213562373095</speed>
  <fix>3d</fix>
</trkpt>
<trkpt lat="40.0713271" lon="-105.2298809">
  <ele>1583.0</ele>
  <time>2026-08-28T17:49:42Z</time>
  <course>10.08</course>
  <speed>0.0</speed>
  <fix>3d</fix>
</trkpt>
<trkpt lat="40.0713271" lon="-105.229881">
  <ele>1583.19</ele>
  <time>2026-08-28T17:49:42Z</time>
  <course>280.36</course>
  <speed>0.01414213562373095</speed>
  <fix>3d</fix>
</trkpt>
<trkpt lat="40.0713271" lon="-105.2298809">
  <ele>1583.0</ele>
  <time>2026-08-28T17:49:42Z</time>
  <course>10.09</course>
  <speed>0.0</speed>
  <fix>3d</fix>
</trkpt>
<trkpt lat="40.0713271" lon="-105.229881">
  <ele>1583.19</ele>
  <time>2026-08-28T17:49:42Z</time>
  <course>280.35</course>
  <speed>0.01414213562373095</speed>
  <fix>3d</fix>
</trkpt>
<trkpt lat="40.0713271" lon="-105.2298809">
  <ele>1583.0</ele>
  <time>2026-08-28T17:49:42Z</time>
  <course>10.09</course>
  <speed>0.0</speed>
  <fix>3d</fix>
</trkpt>
<trkpt lat="40.0713271" lon="-105.229881">
  <ele>1583.19</ele>
  <time>2026-08-28T17:49:42Z</time>
  <course>280.35</course>
  <speed>0.01414213562373095</speed>
  <fix>3d</fix>
</trkpt>
<trkpt lat="40.0713271" lon="-105.2298809">
  <ele>1583.0</ele>
  <time>2026-08-28T17:49:42Z</time>
  <course>10.1</course>
  <speed>0.0</speed>
  <fix>3d</fix>
</trkpt>
<trkpt lat="40.0713271" lon="-105.229881">
  <ele>1583.19</ele>
  <time>2026-08-28T17:49:42Z</time>
  <course>280.35</course>
  <speed>0.01414213562373095</speed>
  <fix>3d</fix>
</trkpt>
<trkpt lat="40.0713271" lon="-105.2298809">
  <ele>1583.0</ele>
  <time>2026-08-28T17:49:42Z</time>
  <course>10.1</course>
  <speed>0.0</speed>
  <fix>3d</fix>
</trkpt>
<trkpt lat="40.0713271" lon="-105.229881">
  <ele>1583.19</ele>
  <time>2026-08-28T17:49:42Z</time>
  <course>280.35</course>
  <speed>0.01414213562373095</speed>
  <fix>3d</fix>
</trkpt>
<trkpt lat="40.0713271" lon="-105.2298809">
  <ele>1583.0</ele>
  <time>2026-08-28T17:49:42Z</time>
  <course>10.11</course>
  <speed>0.0</speed>
  <fix>3d</fix>
</trkpt>
<trkpt lat="40.0713271" lon="-105.229881">
  <ele>1583.19</ele>
  <time>2026-08-28T17:49:42Z</time>
  <course>280.34</course>
  <speed>0.01414213562373095</speed>
  <fix>3d</fix>
</trkpt>
<trkpt lat="40.0713271" lon="-105.2298809">
  <ele>1583.0</ele>
  <time>2026-08-28T17:49:42Z</time>
  <course>10.12</course>
  <speed>0.0</speed>
  <fix>3d</fix>
</trkpt>
<trkpt lat="40.0713271" lon="-105.229881">
  <ele>1583.19</ele>
  <time>2026-08-28T17:49:42Z</time>
  <course>280.34</course>
  <speed>0.01414213562373095</speed>
  <fix>3d</fix>
</trkpt>
<trkpt lat="40.0713271" lon="-105.2298809">
  <ele>1583.0</ele>
  <time>2026-08-28T17:49:42Z</time>
  <course>10.12</course>
  <speed>0.0</speed>
  <fix>3d</fix>
</trkpt>
<trkpt lat="40.0713271" lon="-105.229881">
  <ele>1583.19</ele>
  <time>2026-08-28T17:49:42Z</time>
  <course>280.34</course>
  <speed>0.01414213562373095</speed>
  <fix>3d</fix>
</trkpt>
<trkpt lat="40.0713271" lon="-105.2298809">
  <ele>1583.0</ele>
  <time>2026-08-28T17:49:42Z</time>
  <course>10.13</course>
  <speed>0.0</speed>
  <fix>3d</fix>
</trkpt>
<trkpt lat="40.0713271" lon="-105.229881">
  <ele>1583.19</ele>
  <time>2026-08-28T17:49:42Z</time>
  <course>280.33</course>
  <speed>0.01414213562373095</speed>
  <fix>3d</fix>
</trkpt>
<trkpt lat="40.0713271" lon="-105.2298809">
  <ele>1583.0</ele>
  <time>2026-08-28T17:49:42Z</time>
  <course>10.13</course>
  <speed>0.0</speed>
  <fix>3d</fix>
</trkpt>
<trkpt lat="40.0713271" lon="-105.229881">
  <ele>1583.2</ele>
  <time>2026-08-28T17:49:42Z</time>
  <course>280.33</course>
  <speed>0.01414213562373095</speed>
  <fix>3d</fix>
</trkpt>
<trkpt lat="40.0713271" lon="-105.2298809">
  <ele>1583.0</ele>
  <time>2026-08-28T17:49:42Z</time>
  <course>10.13</course>
  <speed>0.0</speed>
  <fix>3d</fix>
</trkpt>
<trkpt lat="40.0713271" lon="-105.229881">
  <ele>1583.2</ele>
  <time>2026-08-28T17:49:42Z</time>
  <course>280.33</course>
  <speed>0.01414213562373095</speed>
  <fix>3d</fix>
</trkpt>
<trkpt lat="40.0713271" lon="-105.2298809">
  <ele>1583.0</ele>
  <time>2026-08-28T17:49:42Z</time>
  <course>10.13</course>
  <speed>0.0</speed>
  <fix>3d</fix>
</trkpt>
<trkpt lat="40.0713271" lon="-105.229881">
  <ele>1583.2</ele>
  <time>2026-08-28T17:49:42Z</time>
  <course>280.33</course>
  <speed>0.01414213562373095</speed>
  <fix>3d</fix>
</trkpt>
<trkpt lat="40.0713271" lon="-105.2298809">
  <ele>1583.0</ele>
  <time>2026-08-28T17:49:42Z</time>
  <course>10.14</course>
  <speed>0.0</speed>
  <fix>3d</fix>
</trkpt>
<trkpt lat="40.0713271" lon="-105.229881">
  <ele>1583.2</ele>
  <time>2026-08-28T17:49:42Z</time>
  <course>280.32</course>
  <speed>0.01414213562373095</speed>
  <fix>3d</fix>
</trkpt>
<trkpt lat="40.0713271" lon="-105.2298809">
  <ele>1583.0</ele>
  <time>2026-08-28T17:49:42Z</time>
  <course>10.14</course>
  <speed>0.0</speed>
  <fix>3d</fix>
</trkpt>
<trkpt lat="40.0713271" lon="-105.229881">
  <ele>1583.2</ele>
  <time>2026-08-28T17:49:42Z</time>
  <course>280.32</course>
  <speed>0.01414213562373095</speed>
  <fix>3d</fix>
</trkpt>
<trkpt lat="40.0713271" lon="-105.2298809">
  <ele>1583.0</ele>
  <time>2026-08-28T17:49:42Z</time>
  <course>10.14</course>
  <speed>0.0</speed>
  <fix>3d</fix>
</trkpt>
<trkpt lat="40.0713271" lon="-105.229881">
  <ele>1583.19</ele>
  <time>2026-08-28T17:49:42Z</time>
  <course>280.32</course>
  <speed>0.01414213562373095</speed>
  <fix>3d</fix>
</trkpt>
<trkpt lat="40.0713271" lon="-105.2298809">
  <ele>1583.0</ele>
  <time>2026-08-28T17:49:42Z</time>
  <course>10.14</course>
  <speed>0.0</speed>
  <fix>3d</fix>
</trkpt>
<trkpt lat="40.0713271" lon="-105.229881">
  <ele>1583.19</ele>
  <time>2026-08-28T17:49:42Z</time>
  <course>280.31</course>
  <speed>0.01414213562373095</speed>
  <fix>3d</fix>
</trkpt>
<trkpt lat="40.0713271" lon="-105.2298809">
  <ele>1583.0</ele>
  <time>2026-08-28T17:49:42Z</time>
  <course>10.15</course>
  <speed>0.0</speed>
  <fix>3d</fix>
</trkpt>
<trkpt lat="40.0713271" lon="-105.229881">
  <ele>1583.19</ele>
  <time>2026-08-28T17:49:42Z</time>
  <course>280.31</course>
  <speed>0.01414213562373095</speed>
  <fix>3d</fix>
</trkpt>
<trkpt lat="40.0713271" lon="-105.2298809">
  <ele>1583.0</ele>
  <time>2026-08-28T17:49:42Z</time>
  <course>10.15</course>
  <speed>0.0</speed>
  <fix>3d</fix>
</trkpt>
<trkpt lat="40.0713271" lon="-105.229881">
  <ele>1583.19</ele>
  <time>2026-08-28T17:49:42Z</time>
  <course>280.31</course>
  <speed>0.01414213562373095</speed>
  <fix>3d</fix>
</trkpt>
<trkpt lat="40.0713271" lon="-105.2298809">
  <ele>1583.0</ele>
  <time>2026-08-28T17:49:42Z</time>
  <course>10.15</course>
  <speed>0.0</speed>
  <fix>3d</fix>
</trkpt>
<trkpt lat="40.0713271" lon="-105.229881">
  <ele>1583.19</ele>
  <time>2026-08-28T17:49:42Z</time>
  <course>280.31</course>
  <speed>0.01414213562373095</speed>
  <fix>3d</fix>
</trkpt>
<trkpt lat="40.0713271" lon="-105.2298809">
  <ele>1583.0</ele>
  <time>2026-08-28T17:49:42Z</time>
  <course>10.15</course>
  <speed>0.0</speed>
  <fix>3d</fix>
</trkpt>
<trkpt lat="40.0713271" lon="-105.229881">
  <ele>1583.19</ele>
  <time>2026-08-28T17:49:42Z</time>
  <course>280.3</course>
  <speed>0.01414213562373095</speed>
  <fix>3d</fix>
</trkpt>
<trkpt lat="40.0713271" lon="-105.2298809">
  <ele>1583.0</ele>
  <time>2026-08-28T17:49:42Z</time>
  <course>10.15</course>
  <speed>0.0</speed>
  <fix>3d</fix>
</trkpt>
<trkpt lat="40.0713271" lon="-105.229881">
  <ele>1583.19</ele>
  <time>2026-08-28T17:49:42Z</time>
  <course>280.3</course>
  <speed>0.01414213562373095</speed>
  <fix>3d</fix>
</trkpt>
<trkpt lat="40.0713271" lon="-105.2298809">
  <ele>1583.0</ele>
  <time>2026-08-28T17:49:42Z</time>
  <course>10.16</course>
  <speed>0.0</speed>
  <fix>3d</fix>
</trkpt>
<trkpt lat="40.0713271" lon="-105.229881">
  <ele>1583.19</ele>
  <time>2026-08-28T17:49:42Z</time>
  <course>280.3</course>
  <speed>0.01414213562373095</speed>
  <fix>3d</fix>
</trkpt>
<trkpt lat="40.0713271" lon="-105.2298809">
  <ele>1583.0</ele>
  <time>2026-08-28T17:49:42Z</time>
  <course>10.16</course>
  <speed>0.0</speed>
  <fix>3d</fix>
</trkpt>
<trkpt lat="40.0713271" lon="-105.229881">
  <ele>1583.19</ele>
  <time>2026-08-28T17:49:42Z</time>
  <course>280.29</course>
  <speed>0.01414213562373095</speed>
  <fix>3d</fix>
</trkpt>
<trkpt lat="40.0713271" lon="-105.2298809">
  <ele>1583.0</ele>
  <time>2026-08-28T17:49:42Z</time>
  <course>10.16</course>
  <speed>0.0</speed>
  <fix>3d</fix>
</trkpt>
<trkpt lat="40.0713271" lon="-105.229881">
  <ele>1583.19</ele>
  <time>2026-08-28T17:49:42Z</time>
  <course>280.29</course>
  <speed>0.01414213562373095</speed>
  <fix>3d</fix>
</trkpt>
<trkpt lat="40.0713271" lon="-105.2298809">
  <ele>1583.0</ele>
  <time>2026-08-28T17:49:42Z</time>
  <course>10.16</course>
  <speed>0.0</speed>
  <fix>3d</fix>
</trkpt>
<trkpt lat="40.0713271" lon="-105.229881">
  <ele>1583.19</ele>
  <time>2026-08-28T17:49:42Z</time>
  <course>280.29</course>
  <speed>0.01414213562373095</speed>
  <fix>3d</fix>
</trkpt>
<trkpt lat="40.0713271" lon="-105.2298809">
  <ele>1583.0</ele>
  <time>2026-08-28T17:49:42Z</time>
  <course>10.17</course>
  <speed>0.0</speed>
  <fix>3d</fix>
</trkpt>
<trkpt lat="40.0713271" lon="-105.229881">
  <ele>1583.19</ele>
  <time>2026-08-28T17:49:42Z</time>
  <course>280.29</course>
  <speed>0.01414213562373095</speed>
  <fix>3d</fix>
</trkpt>
<trkpt lat="40.0713271" lon="-105.2298809">
  <ele>1583.0</ele>
  <time>2026-08-28T17:49:42Z</time>
  <course>10.17</course>
  <speed>0.0</speed>
  <fix>3d</fix>
</trkpt>
<trkpt lat="40.0713271" lon="-105.229881">
  <ele>1583.19</ele>
  <time>2026-08-28T17:49:42Z</time>
  <course>280.28</course>
  <speed>0.01414213562373095</speed>
  <fix>3d</fix>
</trkpt>
<trkpt lat="40.0713271" lon="-105.2298809">
  <ele>1583.0</ele>
  <time>2026-08-28T17:49:42Z</time>
  <course>10.17</course>
  <speed>0.0</speed>
  <fix>3d</fix>
</trkpt>
<trkpt lat="40.0713271" lon="-105.229881">
  <ele>1583.19</ele>
  <time>2026-08-28T17:49:42Z</time>
  <course>280.28</course>
  <speed>0.01414213562373095</speed>
  <fix>3d</fix>
</trkpt>
<trkpt lat="40.0713271" lon="-105.2298809">
  <ele>1583.0</ele>
  <time>2026-08-28T17:49:42Z</time>
  <course>10.17</course>
  <speed>0.0</speed>
  <fix>3d</fix>
</trkpt>
<trkpt lat="40.0713271" lon="-105.229881">
  <ele>1583.19</ele>
  <time>2026-08-28T17:49:42Z</time>
  <course>280.28</course>
  <speed>0.01414213562373095</speed>
  <fix>3d</fix>
</trkpt>
<trkpt lat="40.0713271" lon="-105.2298809">
  <ele>1583.0</ele>
  <time>2026-08-28T17:49:42Z</time>
  <course>10.17</course>
  <speed>0.0</speed>
  <fix>3d</fix>
</trkpt>
<trkpt lat="40.0713271" lon="-105.229881">
  <ele>1583.19</ele>
  <time>2026-08-28T17:49:42Z</time>
  <course>280.27</course>
  <speed>0.01414213562373095</speed>
  <fix>3d</fix>
</trkpt>
<trkpt lat="40.0713271" lon="-105.2298809">
  <ele>1583.0</ele>
  <time>2026-08-28T17:49:42Z</time>
  <course>10.17</course>
  <speed>0.0</speed>
  <fix>3d</fix>
</trkpt>
<trkpt lat="40.0713271" lon="-105.229881">
  <ele>1583.19</ele>
  <time>2026-08-28T17:49:42Z</time>
  <course>280.27</course>
  <speed>0.01414213562373095</speed>
  <fix>3d</fix>
</trkpt>
<trkpt lat="40.0713271" lon="-105.2298809">
  <ele>1583.0</ele>
  <time>2026-08-28T17:49:42Z</time>
  <course>10.17</course>
  <speed>0.0</speed>
  <fix>3d</fix>
</trkpt>
<trkpt lat="40.0713271" lon="-105.229881">
  <ele>1583.19</ele>
  <time>2026-08-28T17:49:42Z</time>
  <course>280.27</course>
  <speed>0.01414213562373095</speed>
  <fix>3d</fix>
</trkpt>
<trkpt lat="40.0713271" lon="-105.2298809">
  <ele>1583.0</ele>
  <time>2026-08-28T17:49:42Z</time>
  <course>10.18</course>
  <speed>0.0</speed>
  <fix>3d</fix>
</trkpt>
<trkpt lat="40.0713271" lon="-105.229881">
  <ele>1583.19</ele>
  <time>2026-08-28T17:49:42Z</time>
  <course>280.27</course>
  <speed>0.01414213562373095</speed>
  <fix>3d</fix>
</trkpt>
<trkpt lat="40.0713271" lon="-105.2298809">
  <ele>1583.0</ele>
  <time>2026-08-28T17:49:42Z</time>
  <course>10.18</course>
  <speed>0.0</speed>
  <fix>3d</fix>
</trkpt>
<trkpt lat="40.0713271" lon="-105.229881">
  <ele>1583.19</ele>
  <time>2026-08-28T17:49:42Z</time>
  <course>280.26</course>
  <speed>0.01414213562373095</speed>
  <fix>3d</fix>
</trkpt>
<trkpt lat="40.0713271" lon="-105.2298809">
  <ele>1583.0</ele>
  <time>2026-08-28T17:49:42Z</time>
  <course>10.18</course>
  <speed>0.0</speed>
  <fix>3d</fix>
</trkpt>
<trkpt lat="40.0713271" lon="-105.229881">
  <ele>1583.19</ele>
  <time>2026-08-28T17:49:42Z</time>
  <course>280.26</course>
  <speed>0.01414213562373095</speed>
  <fix>3d</fix>
</trkpt>
<trkpt lat="40.0713271" lon="-105.2298809">
  <ele>1583.0</ele>
  <time>2026-08-28T17:49:42Z</time>
  <course>10.18</course>
  <speed>0.0</speed>
  <fix>3d</fix>
</trkpt>
<trkpt lat="40.0713271" lon="-105.229881">
  <ele>1583.19</ele>
  <time>2026-08-28T17:49:42Z</time>
  <course>280.26</course>
  <speed>0.01414213562373095</speed>
  <fix>3d</fix>
</trkpt>
<trkpt lat="40.0713271" lon="-105.2298809">
  <ele>1583.0</ele>
  <time>2026-08-28T17:49:42Z</time>
  <course>10.18</course>
  <speed>0.0</speed>
  <fix>3d</fix>
</trkpt>
<trkpt lat="40.0713271" lon="-105.229881">
  <ele>1583.2</ele>
  <time>2026-08-28T17:49:42Z</time>
  <course>280.25</course>
  <speed>0.01414213562373095</speed>
  <fix>3d</fix>
</trkpt>
<trkpt lat="40.0713271" lon="-105.2298809">
  <ele>1583.0</ele>
  <time>2026-08-28T17:49:42Z</time>
  <course>10.18</course>
  <speed>0.0</speed>
  <fix>3d</fix>
</trkpt>
<trkpt lat="40.0713271" lon="-105.229881">
  <ele>1583.2</ele>
  <time>2026-08-28T17:49:42Z</time>
  <course>280.25</course>
  <speed>0.01414213562373095</speed>
  <fix>3d</fix>
</trkpt>
<trkpt lat="40.0713271" lon="-105.2298809">
  <ele>1583.0</ele>
  <time>2026-08-28T17:49:42Z</time>
  <course>10.18</course>
  <speed>0.0</speed>
  <fix>3d</fix>
</trkpt>
<trkpt lat="40.0713271" lon="-105.229881">
  <ele>1583.2</ele>
  <time>2026-08-28T17:49:42Z</time>
  <course>280.25</course>
  <speed>0.01414213562373095</speed>
  <fix>3d</fix>
</trkpt>
<trkpt lat="40.0713271" lon="-105.2298809">
  <ele>1583.0</ele>
  <time>2026-08-28T17:49:42Z</time>
  <course>10.18</course>
  <speed>0.0</speed>
  <fix>3d</fix>
</trkpt>
<trkpt lat="40.071327" lon="-105.2298811">
  <ele>1583.2</ele>
  <time>2026-08-28T17:49:42Z</time>
  <course>280.25</course>
  <speed>0.01414213562373095</speed>
  <fix>3d</fix>
</trkpt>
<trkpt lat="40.0713271" lon="-105.2298809">
  <ele>1583.0</ele>
  <time>2026-08-28T17:49:42Z</time>
  <course>10.18</course>
  <speed>0.0</speed>
  <fix>3d</fix>
</trkpt>
<trkpt lat="40.0713271" lon="-105.229881">
  <ele>1583.2</ele>
  <time>2026-08-28T17:49:42Z</time>
  <course>280.24</course>
  <speed>0.01414213562373095</speed>
  <fix>3d</fix>
</trkpt>
<trkpt lat="40.0713271" lon="-105.2298809">
  <ele>1583.0</ele>
  <time>2026-08-28T17:49:42Z</time>
  <course>10.18</course>
  <speed>0.0</speed>
  <fix>3d</fix>
</trkpt>
<trkpt lat="40.071327" lon="-105.2298811">
  <ele>1583.21</ele>
  <time>2026-08-28T17:49:42Z</time>
  <course>280.24</course>
  <speed>0.01414213562373095</speed>
  <fix>3d</fix>
</trkpt>
<trkpt lat="40.0713271" lon="-105.2298809">
  <ele>1583.0</ele>
  <time>2026-08-28T17:49:42Z</time>
  <course>10.18</course>
  <speed>0.0</speed>
  <fix>3d</fix>
</trkpt>
<trkpt lat="40.071327" lon="-105.2298811">
  <ele>1583.21</ele>
  <time>2026-08-28T17:49:42Z</time>
  <course>280.24</course>
  <speed>0.01414213562373095</speed>
  <fix>3d</fix>
</trkpt>
<trkpt lat="40.0713271" lon="-105.2298809">
  <ele>1583.0</ele>
  <time>2026-08-28T17:49:42Z</time>
  <course>10.18</course>
  <speed>0.0</speed>
  <fix>3d</fix>
</trkpt>
<trkpt lat="40.071327" lon="-105.2298811">
  <ele>1583.21</ele>
  <time>2026-08-28T17:49:42Z</time>
  <course>280.23</course>
  <speed>0.01414213562373095</speed>
  <fix>3d</fix>
</trkpt>
<trkpt lat="40.0713271" lon="-105.2298809">
  <ele>1583.0</ele>
  <time>2026-08-28T17:49:42Z</time>
  <course>10.18</course>
  <speed>0.0</speed>
  <fix>3d</fix>
</trkpt>
<trkpt lat="40.071327" lon="-105.2298811">
  <ele>1583.2</ele>
  <time>2026-08-28T17:49:42Z</time>
  <course>280.23</course>
  <speed>0.01414213562373095</speed>
  <fix>3d</fix>
</trkpt>
<trkpt lat="40.0713271" lon="-105.2298809">
  <ele>1583.0</ele>
  <time>2026-08-28T17:49:42Z</time>
  <course>10.19</course>
  <speed>0.0</speed>
  <fix>3d</fix>
</trkpt>
<trkpt lat="40.071327" lon="-105.2298811">
  <ele>1583.2</ele>
  <time>2026-08-28T17:49:42Z</time>
  <course>280.23</course>
  <speed>0.01414213562373095</speed>
  <fix>3d</fix>
</trkpt>
<trkpt lat="40.0713271" lon="-105.2298809">
  <ele>1583.0</ele>
  <time>2026-08-28T17:49:42Z</time>
  <course>10.19</course>
  <speed>0.0</speed>
  <fix>3d</fix>
</trkpt>
<trkpt lat="40.071327" lon="-105.229881">
  <ele>1583.2</ele>
  <time>2026-08-28T17:49:42Z</time>
  <course>280.23</course>
  <speed>0.01414213562373095</speed>
  <fix>3d</fix>
</trkpt>
<trkpt lat="40.0713271" lon="-105.2298809">
  <ele>1583.0</ele>
  <time>2026-08-28T17:49:42Z</time>
  <course>10.19</course>
  <speed>0.0</speed>
  <fix>3d</fix>
</trkpt>
<trkpt lat="40.071327" lon="-105.2298811">
  <ele>1583.2</ele>
  <time>2026-08-28T17:49:42Z</time>
  <course>280.22</course>
  <speed>0.01414213562373095</speed>
  <fix>3d</fix>
</trkpt>
<trkpt lat="40.0713271" lon="-105.2298809">
  <ele>1583.0</ele>
  <time>2026-08-28T17:49:42Z</time>
  <course>10.19</course>
  <speed>0.0</speed>
  <fix>3d</fix>
</trkpt>
<trkpt lat="40.0713271" lon="-105.229881">
  <ele>1583.2</ele>
  <time>2026-08-28T17:49:42Z</time>
  <course>280.22</course>
  <speed>0.01414213562373095</speed>
  <fix>3d</fix>
</trkpt>
<trkpt lat="40.0713271" lon="-105.2298809">
  <ele>1583.0</ele>
  <time>2026-08-28T17:49:42Z</time>
  <course>10.19</course>
  <speed>0.0</speed>
  <fix>3d</fix>
</trkpt>
<trkpt lat="40.071327" lon="-105.2298811">
  <ele>1583.2</ele>
  <time>2026-08-28T17:49:42Z</time>
  <course>280.22</course>
  <speed>0.01414213562373095</speed>
  <fix>3d</fix>
</trkpt>
<trkpt lat="40.0713271" lon="-105.2298809">
  <ele>1583.0</ele>
  <time>2026-08-28T17:49:42Z</time>
  <course>10.19</course>
  <speed>0.0</speed>
  <fix>3d</fix>
</trkpt>
<trkpt lat="40.0713271" lon="-105.229881">
  <ele>1583.2</ele>
  <time>2026-08-28T17:49:42Z</time>
  <course>280.22</course>
  <speed>0.01414213562373095</speed>
  <fix>3d</fix>
</trkpt>
<trkpt lat="40.0713271" lon="-105.2298809">
  <ele>1583.0</ele>
  <time>2026-08-28T17:49:42Z</time>
  <course>10.19</course>
  <speed>0.0</speed>
  <fix>3d</fix>
</trkpt>
<trkpt lat="40.071327" lon="-105.2298811">
  <ele>1583.19</ele>
  <time>2026-08-28T17:49:42Z</time>
  <course>280.21</course>
  <speed>0.01414213562373095</speed>
  <fix>3d</fix>
</trkpt>
<trkpt lat="40.0713271" lon="-105.2298809">
  <ele>1583.0</ele>
  <time>2026-08-28T17:49:42Z</time>
  <course>10.19</course>
  <speed>0.0</speed>
  <fix>3d</fix>
</trkpt>
<trkpt lat="40.071327" lon="-105.229881">
  <ele>1583.19</ele>
  <time>2026-08-28T17:49:42Z</time>
  <course>280.21</course>
  <speed>0.01414213562373095</speed>
  <fix>3d</fix>
</trkpt>
<trkpt lat="40.0713271" lon="-105.2298809">
  <ele>1583.0</ele>
  <time>2026-08-28T17:49:42Z</time>
  <course>10.19</course>
  <speed>0.0</speed>
  <fix>3d</fix>
</trkpt>
<trkpt lat="40.071327" lon="-105.2298811">
  <ele>1583.19</ele>
  <time>2026-08-28T17:49:42Z</time>
  <course>280.21</course>
  <speed>0.01414213562373095</speed>
  <fix>3d</fix>
</trkpt>
<trkpt lat="40.0713271" lon="-105.2298809">
  <ele>1583.0</ele>
  <time>2026-08-28T17:49:42Z</time>
  <course>10.19</course>
  <speed>0.0</speed>
  <fix>3d</fix>
</trkpt>
<trkpt lat="40.071327" lon="-105.229881">
  <ele>1583.19</ele>
  <time>2026-08-28T17:49:42Z</time>
  <course>280.2</course>
  <speed>0.01414213562373095</speed>
  <fix>3d</fix>
</trkpt>
<trkpt lat="40.0713271" lon="-105.2298809">
  <ele>1583.0</ele>
  <time>2026-08-28T17:49:42Z</time>
  <course>10.19</course>
  <speed>0.0</speed>
  <fix>3d</fix>
</trkpt>
<trkpt lat="40.071327" lon="-105.2298811">
  <ele>1583.19</ele>
  <time>2026-08-28T17:49:42Z</time>
  <course>280.2</course>
  <speed>0.01414213562373095</speed>
  <fix>3d</fix>
</trkpt>
<trkpt lat="40.0713271" lon="-105.2298809">
  <ele>1583.0</ele>
  <time>2026-08-28T17:49:42Z</time>
  <course>10.19</course>
  <speed>0.0</speed>
  <fix>3d</fix>
</trkpt>
<trkpt lat="40.071327" lon="-105.229881">
  <ele>1583.19</ele>
  <time>2026-08-28T17:49:42Z</time>
  <course>280.2</course>
  <speed>0.01414213562373095</speed>
  <fix>3d</fix>
</trkpt>
<trkpt lat="40.0713271" lon="-105.2298809">
  <ele>1583.0</ele>
  <time>2026-08-28T17:49:42Z</time>
  <course>10.19</course>
  <speed>0.0</speed>
  <fix>3d</fix>
</trkpt>
<trkpt lat="40.071327" lon="-105.2298811">
  <ele>1583.19</ele>
  <time>2026-08-28T17:49:42Z</time>
  <course>280.2</course>
  <speed>0.01414213562373095</speed>
  <fix>3d</fix>
</trkpt>
<trkpt lat="40.0713271" lon="-105.2298809">
  <ele>1583.0</ele>
  <time>2026-08-28T17:49:42Z</time>
  <course>10.19</course>
  <speed>0.0</speed>
  <fix>3d</fix>
</trkpt>
<trkpt lat="40.071327" lon="-105.2298811">
  <ele>1583.19</ele>
  <time>2026-08-28T17:49:42Z</time>
  <course>280.19</course>
  <speed>0.01414213562373095</speed>
  <fix>3d</fix>
</trkpt>
<trkpt lat="40.0713271" lon="-105.2298809">
  <ele>1583.0</ele>
  <time>2026-08-28T17:49:42Z</time>
  <course>10.19</course>
  <speed>0.0</speed>
  <fix>3d</fix>
</trkpt>
<trkpt lat="40.071327" lon="-105.2298811">
  <ele>1583.19</ele>
  <time>2026-08-28T17:49:42Z</time>
  <course>280.19</course>
  <speed>0.01414213562373095</speed>
  <fix>3d</fix>
</trkpt>
<trkpt lat="40.0713271" lon="-105.2298809">
  <ele>1583.0</ele>
  <time>2026-08-28T17:49:42Z</time>
  <course>10.19</course>
  <speed>0.0</speed>
  <fix>3d</fix>
</trkpt>
<trkpt lat="40.071327" lon="-105.2298811">
  <ele>1583.2</ele>
  <time>2026-08-28T17:49:42Z</time>
  <course>280.19</course>
  <speed>0.01414213562373095</speed>
  <fix>3d</fix>
</trkpt>
<trkpt lat="40.0713271" lon="-105.2298809">
  <ele>1583.0</ele>
  <time>2026-08-28T17:49:42Z</time>
  <course>10.19</course>
  <speed>0.0</speed>
  <fix>3d</fix>
</trkpt>
<trkpt lat="40.071327" lon="-105.2298811">
  <ele>1583.2</ele>
  <time>2026-08-28T17:49:42Z</time>
  <course>280.18</course>
  <speed>0.01414213562373095</speed>
  <fix>3d</fix>
</trkpt>
<trkpt lat="40.0713271" lon="-105.2298809">
  <ele>1583.0</ele>
  <time>2026-08-28T17:49:42Z</time>
  <course>10.19</course>
  <speed>0.0</speed>
  <fix>3d</fix>
</trkpt>
<trkpt lat="40.071327" lon="-105.2298811">
  <ele>1583.2</ele>
  <time>2026-08-28T17:49:42Z</time>
  <course>280.18</course>
  <speed>0.01414213562373095</speed>
  <fix>3d</fix>
</trkpt>
<trkpt lat="40.0713271" lon="-105.2298809">
  <ele>1583.0</ele>
  <time>2026-08-28T17:49:42Z</time>
  <course>10.19</course>
  <speed>0.0</speed>
  <fix>3d</fix>
</trkpt>
<trkpt lat="40.071327" lon="-105.2298811">
  <ele>1583.2</ele>
  <time>2026-08-28T17:49:42Z</time>
  <course>280.18</course>
  <speed>0.01414213562373095</speed>
  <fix>3d</fix>
</trkpt>
<trkpt lat="40.0713271" lon="-105.2298809">
  <ele>1583.0</ele>
  <time>2026-08-28T17:49:42Z</time>
  <course>10.19</course>
  <speed>0.0</speed>
  <fix>3d</fix>
</trkpt>
<trkpt lat="40.071327" lon="-105.2298811">
  <ele>1583.19</ele>
  <time>2026-08-28T17:49:42Z</time>
  <course>280.18</course>
  <speed>0.01414213562373095</speed>
  <fix>3d</fix>
</trkpt>
<trkpt lat="40.0713271" lon="-105.2298809">
  <ele>1583.0</ele>
  <time>2026-08-28T17:49:42Z</time>
  <course>10.19</course>
  <speed>0.0</speed>
  <fix>3d</fix>
</trkpt>
<trkpt lat="40.071327" lon="-105.2298811">
  <ele>1583.19</ele>
  <time>2026-08-28T17:49:42Z</time>
  <course>280.17</course>
  <speed>0.01414213562373095</speed>
  <fix>3d</fix>
</trkpt>
<trkpt lat="40.0713271" lon="-105.2298809">
  <ele>1583.0</ele>
  <time>2026-08-28T17:49:42Z</time>
  <course>10.19</course>
  <speed>0.0</speed>
  <fix>3d</fix>
</trkpt>
<trkpt lat="40.071327" lon="-105.2298811">
  <ele>1583.19</ele>
  <time>2026-08-28T17:49:42Z</time>
  <course>280.17</course>
  <speed>0.01414213562373095</speed>
  <fix>3d</fix>
</trkpt>
<trkpt lat="40.0713271" lon="-105.2298809">
  <ele>1583.0</ele>
  <time>2026-08-28T17:49:42Z</time>
  <course>10.19</course>
  <speed>0.0</speed>
  <fix>3d</fix>
</trkpt>
<trkpt lat="40.071327" lon="-105.2298811">
  <ele>1583.19</ele>
  <time>2026-08-28T17:49:42Z</time>
  <course>280.17</course>
  <speed>0.01414213562373095</speed>
  <fix>3d</fix>
</trkpt>
<trkpt lat="40.0713271" lon="-105.2298809">
  <ele>1583.0</ele>
  <time>2026-08-28T17:49:42Z</time>
  <course>10.19</course>
  <speed>0.0</speed>
  <fix>3d</fix>
</trkpt>
<trkpt lat="40.071327" lon="-105.2298811">
  <ele>1583.18</ele>
  <time>2026-08-28T17:49:42Z</time>
  <course>280.16</course>
  <speed>0.01414213562373095</speed>
  <fix>3d</fix>
</trkpt>
<trkpt lat="40.0713271" lon="-105.2298809">
  <ele>1583.0</ele>
  <time>2026-08-28T17:49:42Z</time>
  <course>10.19</course>
  <speed>0.0</speed>
  <fix>3d</fix>
</trkpt>
<trkpt lat="40.071327" lon="-105.2298811">
  <ele>1583.18</ele>
  <time>2026-08-28T17:49:42Z</time>
  <course>280.16</course>
  <speed>0.01414213562373095</speed>
  <fix>3d</fix>
</trkpt>
<trkpt lat="40.0713271" lon="-105.2298809">
  <ele>1583.0</ele>
  <time>2026-08-28T17:49:42Z</time>
  <course>10.19</course>
  <speed>0.0</speed>
  <fix>3d</fix>
</trkpt>
<trkpt lat="40.071327" lon="-105.229881">
  <ele>1583.18</ele>
  <time>2026-08-28T17:49:42Z</time>
  <course>280.16</course>
  <speed>0.01414213562373095</speed>
  <fix>3d</fix>
</trkpt>
<trkpt lat="40.0713271" lon="-105.2298809">
  <ele>1583.0</ele>
  <time>2026-08-28T17:49:42Z</time>
  <course>10.19</course>
  <speed>0.0</speed>
  <fix>3d</fix>
</trkpt>
<trkpt lat="40.071327" lon="-105.2298811">
  <ele>1583.18</ele>
  <time>2026-08-28T17:49:42Z</time>
  <course>280.16</course>
  <speed>0.01414213562373095</speed>
  <fix>3d</fix>
</trkpt>
<trkpt lat="40.0713271" lon="-105.2298809">
  <ele>1583.0</ele>
  <time>2026-08-28T17:49:42Z</time>
  <course>10.19</course>
  <speed>0.0</speed>
  <fix>3d</fix>
</trkpt>
<trkpt lat="40.071327" lon="-105.229881">
  <ele>1583.18</ele>
  <time>2026-08-28T17:49:42Z</time>
  <course>280.15</course>
  <speed>0.01414213562373095</speed>
  <fix>3d</fix>
</trkpt>
<trkpt lat="40.0713271" lon="-105.2298809">
  <ele>1583.0</ele>
  <time>2026-08-28T17:49:42Z</time>
  <course>10.19</course>
  <speed>0.0</speed>
  <fix>3d</fix>
</trkpt>
<trkpt lat="40.071327" lon="-105.2298811">
  <ele>1583.18</ele>
  <time>2026-08-28T17:49:42Z</time>
  <course>280.15</course>
  <speed>0.01414213562373095</speed>
  <fix>3d</fix>
</trkpt>
<trkpt lat="40.0713271" lon="-105.2298809">
  <ele>1583.0</ele>
  <time>2026-08-28T17:49:42Z</time>
  <course>10.2</course>
  <speed>0.0</speed>
  <fix>3d</fix>
</trkpt>
<trkpt lat="40.071327" lon="-105.2298811">
  <ele>1583.18</ele>
  <time>2026-08-28T17:49:42Z</time>
  <course>280.15</course>
  <speed>0.01414213562373095</speed>
  <fix>3d</fix>
</trkpt>
<trkpt lat="40.0713271" lon="-105.2298809">
  <ele>1583.0</ele>
  <time>2026-08-28T17:49:42Z</time>
  <course>10.2</course>
  <speed>0.0</speed>
  <fix>3d</fix>
</trkpt>
<trkpt lat="40.071327" lon="-105.2298811">
  <ele>1583.19</ele>
  <time>2026-08-28T17:49:42Z</time>
  <course>280.14</course>
  <speed>0.01414213562373095</speed>
  <fix>3d</fix>
</trkpt>
<trkpt lat="40.0713271" lon="-105.2298809">
  <ele>1583.0</ele>
  <time>2026-08-28T17:49:42Z</time>
  <course>10.2</course>
  <speed>0.0</speed>
  <fix>3d</fix>
</trkpt>
<trkpt lat="40.071327" lon="-105.2298811">
  <ele>1583.19</ele>
  <time>2026-08-28T17:49:42Z</time>
  <course>280.14</course>
  <speed>0.01414213562373095</speed>
  <fix>3d</fix>
</trkpt>
<trkpt lat="40.0713271" lon="-105.2298809">
  <ele>1583.0</ele>
  <time>2026-08-28T17:49:42Z</time>
  <course>10.2</course>
  <speed>0.0</speed>
  <fix>3d</fix>
</trkpt>
<trkpt lat="40.071327" lon="-105.2298811">
  <ele>1583.19</ele>
  <time>2026-08-28T17:49:42Z</time>
  <course>280.14</course>
  <speed>0.01414213562373095</speed>
  <fix>3d</fix>
</trkpt>
<trkpt lat="40.0713271" lon="-105.2298809">
  <ele>1583.0</ele>
  <time>2026-08-28T17:49:42Z</time>
  <course>10.2</course>
  <speed>0.0</speed>
  <fix>3d</fix>
</trkpt>
<trkpt lat="40.071327" lon="-105.2298811">
  <ele>1583.19</ele>
  <time>2026-08-28T17:49:42Z</time>
  <course>280.14</course>
  <speed>0.01414213562373095</speed>
  <fix>3d</fix>
</trkpt>
<trkpt lat="40.0713271" lon="-105.2298809">
  <ele>1583.0</ele>
  <time>2026-08-28T17:49:42Z</time>
  <course>10.2</course>
  <speed>0.0</speed>
  <fix>3d</fix>
</trkpt>
<trkpt lat="40.071327" lon="-105.2298811">
  <ele>1583.19</ele>
  <time>2026-08-28T17:49:42Z</time>
  <course>280.13</course>
  <speed>0.01414213562373095</speed>
  <fix>3d</fix>
</trkpt>
<trkpt lat="40.0713271" lon="-105.2298809">
  <ele>1583.0</ele>
  <time>2026-08-28T17:49:42Z</time>
  <course>10.2</course>
  <speed>0.0</speed>
  <fix>3d</fix>
</trkpt>
<trkpt lat="40.071327" lon="-105.2298811">
  <ele>1583.19</ele>
  <time>2026-08-28T17:49:42Z</time>
  <course>280.13</course>
  <speed>0.01414213562373095</speed>
  <fix>3d</fix>
</trkpt>
<trkpt lat="40.0713271" lon="-105.2298809">
  <ele>1583.0</ele>
  <time>2026-08-28T17:49:42Z</time>
  <course>10.2</course>
  <speed>0.0</speed>
  <fix>3d</fix>
</trkpt>
<trkpt lat="40.071327" lon="-105.2298811">
  <ele>1583.19</ele>
  <time>2026-08-28T17:49:42Z</time>
  <course>280.13</course>
  <speed>0.01414213562373095</speed>
  <fix>3d</fix>
</trkpt>
<trkpt lat="40.0713271" lon="-105.2298809">
  <ele>1583.0</ele>
  <time>2026-08-28T17:49:42Z</time>
  <course>10.2</course>
  <speed>0.0</speed>
  <fix>3d</fix>
</trkpt>
<trkpt lat="40.071327" lon="-105.2298811">
  <ele>1583.2</ele>
  <time>2026-08-28T17:49:42Z</time>
  <course>280.13</course>
  <speed>0.01414213562373095</speed>
  <fix>3d</fix>
</trkpt>
<trkpt lat="40.0713271" lon="-105.2298809">
  <ele>1583.0</ele>
  <time>2026-08-28T17:49:42Z</time>
  <course>10.2</course>
  <speed>0.0</speed>
  <fix>3d</fix>
</trkpt>
<trkpt lat="40.071327" lon="-105.2298811">
  <ele>1583.2</ele>
  <time>2026-08-28T17:49:42Z</time>
  <course>280.12</course>
  <speed>0.022360679774997897</speed>
  <fix>3d</fix>
</trkpt>
<trkpt lat="40.0713271" lon="-105.2298809">
  <ele>1583.0</ele>
  <time>2026-08-28T17:49:42Z</time>
  <course>10.2</course>
  <speed>0.0</speed>
  <fix>3d</fix>
</trkpt>
<trkpt lat="40.071327" lon="-105.2298811">
  <ele>1583.2</ele>
  <time>2026-08-28T17:49:42Z</time>
  <course>280.12</course>
  <speed>0.01414213562373095</speed>
  <fix>3d</fix>
</trkpt>
<trkpt lat="40.0713271" lon="-105.2298809">
  <ele>1583.0</ele>
  <time>2026-08-28T17:49:42Z</time>
  <course>10.2</course>
  <speed>0.0</speed>
  <fix>3d</fix>
</trkpt>
<trkpt lat="40.071327" lon="-105.2298811">
  <ele>1583.2</ele>
  <time>2026-08-28T17:49:42Z</time>
  <course>280.12</course>
  <speed>0.022360679774997897</speed>
  <fix>3d</fix>
</trkpt>
<trkpt lat="40.0713271" lon="-105.2298809">
  <ele>1583.0</ele>
  <time>2026-08-28T17:49:42Z</time>
  <course>10.2</course>
  <speed>0.0</speed>
  <fix>3d</fix>
</trkpt>
<trkpt lat="40.071327" lon="-105.2298811">
  <ele>1583.2</ele>
  <time>2026-08-28T17:49:42Z</time>
  <course>280.11</course>
  <speed>0.01414213562373095</speed>
  <fix>3d</fix>
</trkpt>
<trkpt lat="40.0713271" lon="-105.2298809">
  <ele>1583.0</ele>
  <time>2026-08-28T17:49:42Z</time>
  <course>10.2</course>
  <speed>0.0</speed>
  <fix>3d</fix>
</trkpt>
<trkpt lat="40.071327" lon="-105.2298811">
  <ele>1583.2</ele>
  <time>2026-08-28T17:49:42Z</time>
  <course>280.11</course>
  <speed>0.022360679774997897</speed>
  <fix>3d</fix>
</trkpt>
<trkpt lat="40.0713271" lon="-105.2298809">
  <ele>1583.0</ele>
  <time>2026-08-28T17:49:42Z</time>
  <course>10.2</course>
  <speed>0.0</speed>
  <fix>3d</fix>
</trkpt>
<trkpt lat="40.071327" lon="-105.2298811">
  <ele>1583.19</ele>
  <time>2026-08-28T17:49:42Z</time>
  <course>280.11</course>
  <speed>0.01414213562373095</speed>
  <fix>3d</fix>
</trkpt>
<trkpt lat="40.0713271" lon="-105.2298809">
  <ele>1583.0</ele>
  <time>2026-08-28T17:49:42Z</time>
  <course>10.2</course>
  <speed>0.0</speed>
  <fix>3d</fix>
</trkpt>
<trkpt lat="40.071327" lon="-105.2298811">
  <ele>1583.19</ele>
  <time>2026-08-28T17:49:42Z</time>
  <course>280.11</course>
  <speed>0.022360679774997897</speed>
  <fix>3d</fix>
</trkpt>
<trkpt lat="40.0713271" lon="-105.2298809">
  <ele>1583.0</ele>
  <time>2026-08-28T17:49:42Z</time>
  <course>10.2</course>
  <speed>0.0</speed>
  <fix>3d</fix>
</trkpt>
<trkpt lat="40.071327" lon="-105.2298811">
  <ele>1583.19</ele>
  <time>2026-08-28T17:49:42Z</time>
  <course>280.1</course>
  <speed>0.01414213562373095</speed>
  <fix>3d</fix>
</trkpt>
<trkpt lat="40.0713271" lon="-105.2298809">
  <ele>1583.0</ele>
  <time>2026-08-28T17:49:42Z</time>
  <course>10.2</course>
  <speed>0.0</speed>
  <fix>3d</fix>
</trkpt>
<trkpt lat="40.071327" lon="-105.2298811">
  <ele>1583.19</ele>
  <time>2026-08-28T17:49:42Z</time>
  <course>280.1</course>
  <speed>0.022360679774997897</speed>
  <fix>3d</fix>
</trkpt>
<trkpt lat="40.0713271" lon="-105.2298809">
  <ele>1583.0</ele>
  <time>2026-08-28T17:49:42Z</time>
  <course>10.2</course>
  <speed>0.0</speed>
  <fix>3d</fix>
</trkpt>
<trkpt lat="40.071327" lon="-105.2298811">
  <ele>1583.19</ele>
  <time>2026-08-28T17:49:42Z</time>
  <course>280.1</course>
  <speed>0.01414213562373095</speed>
  <fix>3d</fix>
</trkpt>
<trkpt lat="40.0713271" lon="-105.2298809">
  <ele>1583.0</ele>
  <time>2026-08-28T17:49:42Z</time>
  <course>10.2</course>
  <speed>0.0</speed>
  <fix>3d</fix>
</trkpt>
<trkpt lat="40.071327" lon="-105.2298811">
  <ele>1583.19</ele>
  <time>2026-08-28T17:49:42Z</time>
  <course>280.09</course>
  <speed>0.022360679774997897</speed>
  <fix>3d</fix>
</trkpt>
<trkpt lat="40.0713271" lon="-105.2298809">
  <ele>1583.0</ele>
  <time>2026-08-28T17:49:42Z</time>
  <course>10.2</course>
  <speed>0.0</speed>
  <fix>3d</fix>
</trkpt>
<trkpt lat="40.071327" lon="-105.2298811">
  <ele>1583.19</ele>
  <time>2026-08-28T17:49:42Z</time>
  <course>280.09</course>
  <speed>0.01414213562373095</speed>
  <fix>3d</fix>
</trkpt>
<trkpt lat="40.0713271" lon="-105.2298809">
  <ele>1583.0</ele>
  <time>2026-08-28T17:49:42Z</time>
  <course>10.2</course>
  <speed>0.0</speed>
  <fix>3d</fix>
</trkpt>
<trkpt lat="40.071327" lon="-105.2298811">
  <ele>1583.19</ele>
  <time>2026-08-28T17:49:42Z</time>
  <course>280.09</course>
  <speed>0.022360679774997897</speed>
  <fix>3d</fix>
</trkpt>
<trkpt lat="40.0713271" lon="-105.2298809">
  <ele>1583.0</ele>
  <time>2026-08-28T17:49:42Z</time>
  <course>10.2</course>
  <speed>0.0</speed>
  <fix>3d</fix>
</trkpt>
<trkpt lat="40.071327" lon="-105.2298811">
  <ele>1583.19</ele>
  <time>2026-08-28T17:49:42Z</time>
  <course>280.09</course>
  <speed>0.01414213562373095</speed>
  <fix>3d</fix>
</trkpt>
<trkpt lat="40.0713271" lon="-105.2298809">
  <ele>1583.0</ele>
  <time>2026-08-28T17:49:42Z</time>
  <course>10.2</course>
  <speed>0.0</speed>
  <fix>3d</fix>
</trkpt>
<trkpt lat="40.071327" lon="-105.2298811">
  <ele>1583.19</ele>
  <time>2026-08-28T17:49:42Z</time>
  <course>280.08</course>
  <speed>0.022360679774997897</speed>
  <fix>3d</fix>
</trkpt>
<trkpt lat="40.0713271" lon="-105.2298809">
  <ele>1583.0</ele>
  <time>2026-08-28T17:49:42Z</time>
  <course>10.2</course>
  <speed>0.0</speed>
  <fix>3d</fix>
</trkpt>
<trkpt lat="40.071327" lon="-105.2298811">
  <ele>1583.19</ele>
  <time>2026-08-28T17:49:42Z</time>
  <course>280.08</course>
  <speed>0.01414213562373095</speed>
  <fix>3d</fix>
</trkpt>
<trkpt lat="40.0713271" lon="-105.2298809">
  <ele>1583.0</ele>
  <time>2026-08-28T17:49:42Z</time>
  <course>10.2</course>
  <speed>0.0</speed>
  <fix>3d</fix>
</trkpt>
<trkpt lat="40.071327" lon="-105.2298811">
  <ele>1583.19</ele>
  <time>2026-08-28T17:49:42Z</time>
  <course>280.08</course>
  <speed>0.022360679774997897</speed>
  <fix>3d</fix>
</trkpt>
<trkpt lat="40.0713271" lon="-105.2298809">
  <ele>1583.0</ele>
  <time>2026-08-28T17:49:42Z</time>
  <course>10.2</course>
  <speed>0.0</speed>
  <fix>3d</fix>
</trkpt>
<trkpt lat="40.071327" lon="-105.2298811">
  <ele>1583.19</ele>
  <time>2026-08-28T17:49:42Z</time>
  <course>280.08</course>
  <speed>0.022360679774997897</speed>
  <fix>3d</fix>
</trkpt>
<trkpt lat="40.0713271" lon="-105.2298809">
  <ele>1583.0</ele>
  <time>2026-08-28T17:49:42Z</time>
  <course>10.2</course>
  <speed>0.0</speed>
  <fix>3d</fix>
</trkpt>
<trkpt lat="40.071327" lon="-105.2298811">
  <ele>1583.19</ele>
  <time>2026-08-28T17:49:42Z</time>
  <course>280.07</course>
  <speed>0.022360679774997897</speed>
  <fix>3d</fix>
</trkpt>
<trkpt lat="40.0713271" lon="-105.2298809">
  <ele>1583.0</ele>
  <time>2026-08-28T17:49:42Z</time>
  <course>10.2</course>
  <speed>0.0</speed>
  <fix>3d</fix>
</trkpt>
<trkpt lat="40.071327" lon="-105.2298811">
  <ele>1583.19</ele>
  <time>2026-08-28T17:49:42Z</time>
  <course>280.07</course>
  <speed>0.022360679774997897</speed>
  <fix>3d</fix>
</trkpt>
<trkpt lat="40.0713271" lon="-105.2298809">
  <ele>1583.0</ele>
  <time>2026-08-28T17:49:42Z</time>
  <course>10.2</course>
  <speed>0.0</speed>
  <fix>3d</fix>
</trkpt>
<trkpt lat="40.071327" lon="-105.2298811">
  <ele>1583.19</ele>
  <time>2026-08-28T17:49:42Z</time>
  <course>280.07</course>
  <speed>0.022360679774997897</speed>
  <fix>3d</fix>
</trkpt>
<trkpt lat="40.0713271" lon="-105.2298809">
  <ele>1583.0</ele>
  <time>2026-08-28T17:49:42Z</time>
  <course>10.2</course>
  <speed>0.0</speed>
  <fix>3d</fix>
</trkpt>
<trkpt lat="40.071327" lon="-105.2298811">
  <ele>1583.19</ele>
  <time>2026-08-28T17:49:42Z</time>
  <course>280.06</course>
  <speed>0.022360679774997897</speed>
  <fix>3d</fix>
</trkpt>
<trkpt lat="40.0713271" lon="-105.2298809">
  <ele>1583.0</ele>
  <time>2026-08-28T17:49:42Z</time>
  <course>10.2</course>
  <speed>0.0</speed>
  <fix>3d</fix>
</trkpt>
<trkpt lat="40.071327" lon="-105.2298811">
  <ele>1583.19</ele>
  <time>2026-08-28T17:49:42Z</time>
  <course>280.06</course>
  <speed>0.022360679774997897</speed>
  <fix>3d</fix>
</trkpt>
<trkpt lat="40.0713271" lon="-105.2298809">
  <ele>1583.0</ele>
  <time>2026-08-28T17:49:42Z</time>
  <course>10.2</course>
  <speed>0.0</speed>
  <fix>3d</fix>
</trkpt>
<trkpt lat="40.071327" lon="-105.2298811">
  <ele>1583.19</ele>
  <time>2026-08-28T17:49:42Z</time>
  <course>280.06</course>
  <speed>0.022360679774997897</speed>
  <fix>3d</fix>
</trkpt>
<trkpt lat="40.0713271" lon="-105.2298809">
  <ele>1583.0</ele>
  <time>2026-08-28T17:49:42Z</time>
  <course>10.2</course>
  <speed>0.0</speed>
  <fix>3d</fix>
</trkpt>
<trkpt lat="40.071327" lon="-105.2298811">
  <ele>1583.19</ele>
  <time>2026-08-28T17:49:42Z</time>
  <course>280.06</course>
  <speed>0.022360679774997897</speed>
  <fix>3d</fix>
</trkpt>
<trkpt lat="40.0713271" lon="-105.2298809">
  <ele>1583.0</ele>
  <time>2026-08-28T17:49:42Z</time>
  <course>10.2</course>
  <speed>0.0</speed>
  <fix>3d</fix>
</trkpt>
<trkpt lat="40.071327" lon="-105.2298811">
  <ele>1583.19</ele>
  <time>2026-08-28T17:49:42Z</time>
  <course>280.05</course>
  <speed>0.022360679774997897</speed>
  <fix>3d</fix>
</trkpt>
<trkpt lat="40.0713271" lon="-105.2298809">
  <ele>1583.0</ele>
  <time>2026-08-28T17:49:42Z</time>
  <course>10.2</course>
  <speed>0.0</speed>
  <fix>3d</fix>
</trkpt>
<trkpt lat="40.071327" lon="-105.2298811">
  <ele>1583.18</ele>
  <time>2026-08-28T17:49:42Z</time>
  <course>280.05</course>
  <speed>0.022360679774997897</speed>
  <fix>3d</fix>
</trkpt>
<trkpt lat="40.0713271" lon="-105.2298809">
  <ele>1583.0</ele>
  <time>2026-08-28T17:49:42Z</time>
  <course>10.2</course>
  <speed>0.0</speed>
  <fix>3d</fix>
</trkpt>
<trkpt lat="40.071327" lon="-105.2298811">
  <ele>1583.18</ele>
  <time>2026-08-28T17:49:42Z</time>
  <course>280.05</course>
  <speed>0.022360679774997897</speed>
  <fix>3d</fix>
</trkpt>
<trkpt lat="40.0713271" lon="-105.2298809">
  <ele>1583.0</ele>
  <time>2026-08-28T17:49:42Z</time>
  <course>10.2</course>
  <speed>0.0</speed>
  <fix>3d</fix>
</trkpt>
<trkpt lat="40.071327" lon="-105.2298811">
  <ele>1583.18</ele>
  <time>2026-08-28T17:49:42Z</time>
  <course>280.05</course>
  <speed>0.022360679774997897</speed>
  <fix>3d</fix>
</trkpt>
<trkpt lat="40.0713271" lon="-105.2298809">
  <ele>1583.0</ele>
  <time>2026-08-28T17:49:42Z</time>
  <course>10.2</course>
  <speed>0.0</speed>
  <fix>3d</fix>
</trkpt>
<trkpt lat="40.071327" lon="-105.2298811">
  <ele>1583.18</ele>
  <time>2026-08-28T17:49:42Z</time>
  <course>280.04</course>
  <speed>0.022360679774997897</speed>
  <fix>3d</fix>
</trkpt>
<trkpt lat="40.0713271" lon="-105.2298809">
  <ele>1583.0</ele>
  <time>2026-08-28T17:49:42Z</time>
  <course>10.2</course>
  <speed>0.0</speed>
  <fix>3d</fix>
</trkpt>
<trkpt lat="40.071327" lon="-105.2298811">
  <ele>1583.19</ele>
  <time>2026-08-28T17:49:42Z</time>
  <course>280.04</course>
  <speed>0.022360679774997897</speed>
  <fix>3d</fix>
</trkpt>
<trkpt lat="40.0713271" lon="-105.2298809">
  <ele>1583.0</ele>
  <time>2026-08-28T17:49:42Z</time>
  <course>10.2</course>
  <speed>0.0</speed>
  <fix>3d</fix>
</trkpt>
<trkpt lat="40.071327" lon="-105.2298811">
  <ele>1583.19</ele>
  <time>2026-08-28T17:49:42Z</time>
  <course>280.04</course>
  <speed>0.022360679774997897</speed>
  <fix>3d</fix>
</trkpt>
<trkpt lat="40.0713271" lon="-105.2298809">
  <ele>1583.0</ele>
  <time>2026-08-28T17:49:42Z</time>
  <course>10.2</course>
  <speed>0.0</speed>
  <fix>3d</fix>
</trkpt>
<trkpt lat="40.071327" lon="-105.2298811">
  <ele>1583.19</ele>
  <time>2026-08-28T17:49:42Z</time>
  <course>280.03</course>
  <speed>0.022360679774997897</speed>
  <fix>3d</fix>
</trkpt>
<trkpt lat="40.0713271" lon="-105.2298809">
  <ele>1583.0</ele>
  <time>2026-08-28T17:49:42Z</time>
  <course>10.2</course>
  <speed>0.0</speed>
  <fix>3d</fix>
</trkpt>
<trkpt lat="40.071327" lon="-105.2298811">
  <ele>1583.19</ele>
  <time>2026-08-28T17:49:42Z</time>
  <course>280.03</course>
  <speed>0.022360679774997897</speed>
  <fix>3d</fix>
</trkpt>
<trkpt lat="40.0713271" lon="-105.2298809">
  <ele>1583.0</ele>
  <time>2026-08-28T17:49:42Z</time>
  <course>10.2</course>
  <speed>0.0</speed>
  <fix>3d</fix>
</trkpt>
<trkpt lat="40.071327" lon="-105.2298811">
  <ele>1583.19</ele>
  <time>2026-08-28T17:49:42Z</time>
  <course>280.03</course>
  <speed>0.022360679774997897</speed>
  <fix>3d</fix>
</trkpt>
<trkpt lat="40.0713271" lon="-105.2298809">
  <ele>1583.0</ele>
  <time>2026-08-28T17:49:42Z</time>
  <course>10.2</course>
  <speed>0.0</speed>
  <fix>3d</fix>
</trkpt>
<trkpt lat="40.071327" lon="-105.2298811">
  <ele>1583.19</ele>
  <time>2026-08-28T17:49:42Z</time>
  <course>280.03</course>
  <speed>0.022360679774997897</speed>
  <fix>3d</fix>
</trkpt>
<trkpt lat="40.0713271" lon="-105.2298809">
  <ele>1583.0</ele>
  <time>2026-08-28T17:49:42Z</time>
  <course>10.2</course>
  <speed>0.0</speed>
  <fix>3d</fix>
</trkpt>
<trkpt lat="40.071327" lon="-105.2298811">
  <ele>1583.19</ele>
  <time>2026-08-28T17:49:42Z</time>
  <course>280.02</course>
  <speed>0.022360679774997897</speed>
  <fix>3d</fix>
</trkpt>
<trkpt lat="40.0713271" lon="-105.2298809">
  <ele>1583.0</ele>
  <time>2026-08-28T17:49:42Z</time>
  <course>10.2</course>
  <speed>0.0</speed>
  <fix>3d</fix>
</trkpt>
<trkpt lat="40.071327" lon="-105.2298811">
  <ele>1583.19</ele>
  <time>2026-08-28T17:49:42Z</time>
  <course>280.02</course>
  <speed>0.022360679774997897</speed>
  <fix>3d</fix>
</trkpt>
<trkpt lat="40.0713271" lon="-105.2298809">
  <ele>1583.0</ele>
  <time>2026-08-28T17:49:42Z</time>
  <course>10.2</course>
  <speed>0.0</speed>
  <fix>3d</fix>
</trkpt>
<trkpt lat="40.071327" lon="-105.2298811">
  <ele>1583.19</ele>
  <time>2026-08-28T17:49:42Z</time>
  <course>280.02</course>
  <speed>0.022360679774997897</speed>
  <fix>3d</fix>
</trkpt>
<trkpt lat="40.0713271" lon="-105.2298809">
  <ele>1583.0</ele>
  <time>2026-08-28T17:49:42Z</time>
  <course>10.2</course>
  <speed>0.0</speed>
  <fix>3d</fix>
</trkpt>
<trkpt lat="40.071327" lon="-105.2298811">
  <ele>1583.19</ele>
  <time>2026-08-28T17:49:42Z</time>
  <course>280.02</course>
  <speed>0.022360679774997897</speed>
  <fix>3d</fix>
</trkpt>
<trkpt lat="40.0713271" lon="-105.2298809">
  <ele>1583.0</ele>
  <time>2026-08-28T17:49:42Z</time>
  <course>10.2</course>
  <speed>0.0</speed>
  <fix>3d</fix>
</trkpt>
<trkpt lat="40.071327" lon="-105.2298811">
  <ele>1583.19</ele>
  <time>2026-08-28T17:49:42Z</time>
  <course>280.01</course>
  <speed>0.022360679774997897</speed>
  <fix>3d</fix>
</trkpt>
<trkpt lat="40.0713271" lon="-105.2298809">
  <ele>1583.0</ele>
  <time>2026-08-28T17:49:42Z</time>
  <course>10.2</course>
  <speed>0.0</speed>
  <fix>3d</fix>
</trkpt>
<trkpt lat="40.071327" lon="-105.2298811">
  <ele>1583.2</ele>
  <time>2026-08-28T17:49:42Z</time>
  <course>280.01</course>
  <speed>0.022360679774997897</speed>
  <fix>3d</fix>
</trkpt>
<trkpt lat="40.0713271" lon="-105.2298809">
  <ele>1583.0</ele>
  <time>2026-08-28T17:49:42Z</time>
  <course>10.2</course>
  <speed>0.0</speed>
  <fix>3d</fix>
</trkpt>
<trkpt lat="40.071327" lon="-105.2298811">
  <ele>1583.19</ele>
  <time>2026-08-28T17:49:42Z</time>
  <course>280.01</course>
  <speed>0.022360679774997897</speed>
  <fix>3d</fix>
</trkpt>
<trkpt lat="40.0713271" lon="-105.2298809">
  <ele>1583.0</ele>
  <time>2026-08-28T17:49:42Z</time>
  <course>10.2</course>
  <speed>0.0</speed>
  <fix>3d</fix>
</trkpt>
<trkpt lat="40.071327" lon="-105.2298811">
  <ele>1583.19</ele>
  <time>2026-08-28T17:49:42Z</time>
  <course>280.0</course>
  <speed>0.022360679774997897</speed>
  <fix>3d</fix>
</trkpt>
<trkpt lat="40.0713271" lon="-105.2298809">
  <ele>1583.0</ele>
  <time>2026-08-28T17:49:42Z</time>
  <course>10.2</course>
  <speed>0.0</speed>
  <fix>3d</fix>
</trkpt>
<trkpt lat="40.071327" lon="-105.2298811">
  <ele>1583.19</ele>
  <time>2026-08-28T17:49:42Z</time>
  <course>280.0</course>
  <speed>0.022360679774997897</speed>
  <fix>3d</fix>
</trkpt>
<trkpt lat="40.0713271" lon="-105.2298809">
  <ele>1583.0</ele>
  <time>2026-08-28T17:49:42Z</time>
  <course>10.2</course>
  <speed>0.0</speed>
  <fix>3d</fix>
</trkpt>
<trkpt lat="40.071327" lon="-105.2298811">
  <ele>1583.19</ele>
  <time>2026-08-28T17:49:42Z</time>
  <course>280.0</course>
  <speed>0.022360679774997897</speed>
  <fix>3d</fix>
</trkpt>
<trkpt lat="40.0713271" lon="-105.2298809">
  <ele>1583.0</ele>
  <time>2026-08-28T17:49:42Z</time>
  <course>10.2</course>
  <speed>0.0</speed>
  <fix>3d</fix>
</trkpt>
<trkpt lat="40.071327" lon="-105.2298811">
  <ele>1583.19</ele>
  <time>2026-08-28T17:49:42Z</time>
  <course>280.0</course>
  <speed>0.022360679774997897</speed>
  <fix>3d</fix>
</trkpt>
<trkpt lat="40.0713271" lon="-105.2298809">
  <ele>1583.0</ele>
  <time>2026-08-28T17:49:42Z</time>
  <course>10.2</course>
  <speed>0.0</speed>
  <fix>3d</fix>
</trkpt>
<trkpt lat="40.071327" lon="-105.2298811">
  <ele>1583.19</ele>
  <time>2026-08-28T17:49:42Z</time>
  <course>279.99</course>
  <speed>0.022360679774997897</speed>
  <fix>3d</fix>
</trkpt>
<trkpt lat="40.0713271" lon="-105.2298809">
  <ele>1583.0</ele>
  <time>2026-08-28T17:49:42Z</time>
  <course>10.2</course>
  <speed>0.0</speed>
  <fix>3d</fix>
</trkpt>
<trkpt lat="40.071327" lon="-105.2298811">
  <ele>1583.19</ele>
  <time>2026-08-28T17:49:42Z</time>
  <course>279.99</course>
  <speed>0.022360679774997897</speed>
  <fix>3d</fix>
</trkpt>
<trkpt lat="40.0713271" lon="-105.2298809">
  <ele>1583.0</ele>
  <time>2026-08-28T17:49:42Z</time>
  <course>10.2</course>
  <speed>0.0</speed>
  <fix>3d</fix>
</trkpt>
<trkpt lat="40.071327" lon="-105.2298811">
  <ele>1583.19</ele>
  <time>2026-08-28T17:49:42Z</time>
  <course>279.99</course>
  <speed>0.022360679774997897</speed>
  <fix>3d</fix>
</trkpt>
<trkpt lat="40.0713271" lon="-105.2298809">
  <ele>1583.0</ele>
  <time>2026-08-28T17:49:42Z</time>
  <course>10.2</course>
  <speed>0.0</speed>
  <fix>3d</fix>
</trkpt>
<trkpt lat="40.071327" lon="-105.2298811">
  <ele>1583.19</ele>
  <time>2026-08-28T17:49:42Z</time>
  <course>279.99</course>
  <speed>0.022360679774997897</speed>
  <fix>3d</fix>
</trkpt>
<trkpt lat="40.0713271" lon="-105.2298809">
  <ele>1583.0</ele>
  <time>2026-08-28T17:49:42Z</time>
  <course>10.2</course>
  <speed>0.0</speed>
  <fix>3d</fix>
</trkpt>
<trkpt lat="40.071327" lon="-105.2298811">
  <ele>1583.19</ele>
  <time>2026-08-28T17:49:42Z</time>
  <course>279.98</course>
  <speed>0.022360679774997897</speed>
  <fix>3d</fix>
</trkpt>
<trkpt lat="40.0713271" lon="-105.2298809">
  <ele>1583.0</ele>
  <time>2026-08-28T17:49:42Z</time>
  <course>10.2</course>
  <speed>0.0</speed>
  <fix>3d</fix>
</trkpt>
<trkpt lat="40.071327" lon="-105.2298811">
  <ele>1583.19</ele>
  <time>2026-08-28T17:49:42Z</time>
  <course>279.98</course>
  <speed>0.022360679774997897</speed>
  <fix>3d</fix>
</trkpt>
<trkpt lat="40.0713271" lon="-105.2298809">
  <ele>1583.0</ele>
  <time>2026-08-28T17:49:42Z</time>
  <course>10.2</course>
  <speed>0.0</speed>
  <fix>3d</fix>
</trkpt>
<trkpt lat="40.071327" lon="-105.2298811">
  <ele>1583.19</ele>
  <time>2026-08-28T17:49:42Z</time>
  <course>279.98</course>
  <speed>0.022360679774997897</speed>
  <fix>3d</fix>
</trkpt>
<trkpt lat="40.0713271" lon="-105.2298809">
  <ele>1583.0</ele>
  <time>2026-08-28T17:49:42Z</time>
  <course>10.2</course>
  <speed>0.0</speed>
  <fix>3d</fix>
</trkpt>
<trkpt lat="40.071327" lon="-105.2298811">
  <ele>1583.19</ele>
  <time>2026-08-28T17:49:42Z</time>
  <course>279.98</course>
  <speed>0.022360679774997897</speed>
  <fix>3d</fix>
</trkpt>
<trkpt lat="40.0713271" lon="-105.2298809">
  <ele>1583.0</ele>
  <time>2026-08-28T17:49:42Z</time>
  <course>10.2</course>
  <speed>0.0</speed>
  <fix>3d</fix>
</trkpt>
<trkpt lat="40.071327" lon="-105.2298811">
  <ele>1583.19</ele>
  <time>2026-08-28T17:49:42Z</time>
  <course>279.97</course>
  <speed>0.022360679774997897</speed>
  <fix>3d</fix>
</trkpt>
<trkpt lat="40.0713271" lon="-105.2298809">
  <ele>1583.0</ele>
  <time>2026-08-28T17:49:42Z</time>
  <course>10.2</course>
  <speed>0.0</speed>
  <fix>3d</fix>
</trkpt>
<trkpt lat="40.071327" lon="-105.2298811">
  <ele>1583.19</ele>
  <time>2026-08-28T17:49:42Z</time>
  <course>279.97</course>
  <speed>0.022360679774997897</speed>
  <fix>3d</fix>
</trkpt>
<trkpt lat="40.0713271" lon="-105.2298809">
  <ele>1583.0</ele>
  <time>2026-08-28T17:49:42Z</time>
  <course>10.2</course>
  <speed>0.0</speed>
  <fix>3d</fix>
</trkpt>
<trkpt lat="40.071327" lon="-105.2298811">
  <ele>1583.2</ele>
  <time>2026-08-28T17:49:42Z</time>
  <course>279.97</course>
  <speed>0.022360679774997897</speed>
  <fix>3d</fix>
</trkpt>
<trkpt lat="40.0713271" lon="-105.2298809">
  <ele>1583.0</ele>
  <time>2026-08-28T17:49:42Z</time>
  <course>10.2</course>
  <speed>0.0</speed>
  <fix>3d</fix>
</trkpt>
<trkpt lat="40.071327" lon="-105.2298811">
  <ele>1583.2</ele>
  <time>2026-08-28T17:49:42Z</time>
  <course>279.97</course>
  <speed>0.022360679774997897</speed>
  <fix>3d</fix>
</trkpt>
<trkpt lat="40.0713271" lon="-105.2298809">
  <ele>1583.0</ele>
  <time>2026-08-28T17:49:42Z</time>
  <course>10.2</course>
  <speed>0.0</speed>
  <fix>3d</fix>
</trkpt>
<trkpt lat="40.071327" lon="-105.2298811">
  <ele>1583.2</ele>
  <time>2026-08-28T17:49:42Z</time>
  <course>279.96</course>
  <speed>0.022360679774997897</speed>
  <fix>3d</fix>
</trkpt>
<trkpt lat="40.0713271" lon="-105.2298809">
  <ele>1583.0</ele>
  <time>2026-08-28T17:49:42Z</time>
  <course>10.2</course>
  <speed>0.0</speed>
  <fix>3d</fix>
</trkpt>
<trkpt lat="40.071327" lon="-105.2298811">
  <ele>1583.2</ele>
  <time>2026-08-28T17:49:42Z</time>
  <course>279.96</course>
  <speed>0.022360679774997897</speed>
  <fix>3d</fix>
</trkpt>
<trkpt lat="40.0713271" lon="-105.2298809">
  <ele>1583.0</ele>
  <time>2026-08-28T17:49:42Z</time>
  <course>10.2</course>
  <speed>0.0</speed>
  <fix>3d</fix>
</trkpt>
<trkpt lat="40.071327" lon="-105.2298811">
  <ele>1583.2</ele>
  <time>2026-08-28T17:49:42Z</time>
  <course>279.96</course>
  <speed>0.022360679774997897</speed>
  <fix>3d</fix>
</trkpt>
<trkpt lat="40.0713271" lon="-105.2298809">
  <ele>1583.0</ele>
  <time>2026-08-28T17:49:42Z</time>
  <course>10.2</course>
  <speed>0.0</speed>
  <fix>3d</fix>
</trkpt>
<trkpt lat="40.071327" lon="-105.2298811">
  <ele>1583.19</ele>
  <time>2026-08-28T17:49:42Z</time>
  <course>279.96</course>
  <speed>0.022360679774997897</speed>
  <fix>3d</fix>
</trkpt>
<trkpt lat="40.0713271" lon="-105.2298809">
  <ele>1583.0</ele>
  <time>2026-08-28T17:49:42Z</time>
  <course>10.2</course>
  <speed>0.0</speed>
  <fix>3d</fix>
</trkpt>
<trkpt lat="40.071327" lon="-105.2298811">
  <ele>1583.19</ele>
  <time>2026-08-28T17:49:42Z</time>
  <course>279.95</course>
  <speed>0.022360679774997897</speed>
  <fix>3d</fix>
</trkpt>
<trkpt lat="40.0713271" lon="-105.2298809">
  <ele>1583.0</ele>
  <time>2026-08-28T17:49:42Z</time>
  <course>10.2</course>
  <speed>0.0</speed>
  <fix>3d</fix>
</trkpt>
<trkpt lat="40.071327" lon="-105.2298811">
  <ele>1583.19</ele>
  <time>2026-08-28T17:49:42Z</time>
  <course>279.95</course>
  <speed>0.022360679774997897</speed>
  <fix>3d</fix>
</trkpt>
<trkpt lat="40.0713271" lon="-105.2298809">
  <ele>1583.0</ele>
  <time>2026-08-28T17:49:42Z</time>
  <course>10.2</course>
  <speed>0.0</speed>
  <fix>3d</fix>
</trkpt>
<trkpt lat="40.071327" lon="-105.2298811">
  <ele>1583.19</ele>
  <time>2026-08-28T17:49:42Z</time>
  <course>279.95</course>
  <speed>0.022360679774997897</speed>
  <fix>3d</fix>
</trkpt>
<trkpt lat="40.0713271" lon="-105.2298809">
  <ele>1583.0</ele>
  <time>2026-08-28T17:49:42Z</time>
  <course>10.2</course>
  <speed>0.0</speed>
  <fix>3d</fix>
</trkpt>
<trkpt lat="40.071327" lon="-105.2298811">
  <ele>1583.19</ele>
  <time>2026-08-28T17:49:42Z</time>
  <course>279.94</course>
  <speed>0.022360679774997897</speed>
  <fix>3d</fix>
</trkpt>
<trkpt lat="40.0713271" lon="-105.2298809">
  <ele>1583.0</ele>
  <time>2026-08-28T17:49:42Z</time>
  <course>10.2</course>
  <speed>0.0</speed>
  <fix>3d</fix>
</trkpt>
<trkpt lat="40.071327" lon="-105.2298811">
  <ele>1583.18</ele>
  <time>2026-08-28T17:49:42Z</time>
  <course>279.94</course>
  <speed>0.022360679774997897</speed>
  <fix>3d</fix>
</trkpt>
<trkpt lat="40.0713271" lon="-105.2298809">
  <ele>1583.0</ele>
  <time>2026-08-28T17:49:42Z</time>
  <course>10.2</course>
  <speed>0.0</speed>
  <fix>3d</fix>
</trkpt>
<trkpt lat="40.071327" lon="-105.2298811">
  <ele>1583.19</ele>
  <time>2026-08-28T17:49:42Z</time>
  <course>279.94</course>
  <speed>0.022360679774997897</speed>
  <fix>3d</fix>
</trkpt>
<trkpt lat="40.0713271" lon="-105.2298809">
  <ele>1583.0</ele>
  <time>2026-08-28T17:49:42Z</time>
  <course>10.2</course>
  <speed>0.0</speed>
  <fix>3d</fix>
</trkpt>
<trkpt lat="40.071327" lon="-105.2298811">
  <ele>1583.19</ele>
  <time>2026-08-28T17:49:42Z</time>
  <course>279.94</course>
  <speed>0.022360679774997897</speed>
  <fix>3d</fix>
</trkpt>
<trkpt lat="40.0713271" lon="-105.2298809">
  <ele>1583.0</ele>
  <time>2026-08-28T17:49:42Z</time>
  <course>10.2</course>
  <speed>0.0</speed>
  <fix>3d</fix>
</trkpt>
<trkpt lat="40.071327" lon="-105.2298811">
  <ele>1583.19</ele>
  <time>2026-08-28T17:49:42Z</time>
  <course>279.93</course>
  <speed>0.022360679774997897</speed>
  <fix>3d</fix>
</trkpt>
<trkpt lat="40.0713271" lon="-105.2298809">
  <ele>1583.0</ele>
  <time>2026-08-28T17:49:42Z</time>
  <course>10.2</course>
  <speed>0.0</speed>
  <fix>3d</fix>
</trkpt>
<trkpt lat="40.071327" lon="-105.2298811">
  <ele>1583.19</ele>
  <time>2026-08-28T17:49:42Z</time>
  <course>279.93</course>
  <speed>0.022360679774997897</speed>
  <fix>3d</fix>
</trkpt>
<trkpt lat="40.0713271" lon="-105.2298809">
  <ele>1583.0</ele>
  <time>2026-08-28T17:49:42Z</time>
  <course>10.2</course>
  <speed>0.0</speed>
  <fix>3d</fix>
</trkpt>
<trkpt lat="40.071327" lon="-105.2298811">
  <ele>1583.19</ele>
  <time>2026-08-28T17:49:42Z</time>
  <course>279.93</course>
  <speed>0.022360679774997897</speed>
  <fix>3d</fix>
</trkpt>
<trkpt lat="40.0713271" lon="-105.2298809">
  <ele>1583.0</ele>
  <time>2026-08-28T17:49:42Z</time>
  <course>10.2</course>
  <speed>0.0</speed>
  <fix>3d</fix>
</trkpt>
<trkpt lat="40.071327" lon="-105.2298811">
  <ele>1583.19</ele>
  <time>2026-08-28T17:49:42Z</time>
  <course>279.93</course>
  <speed>0.022360679774997897</speed>
  <fix>3d</fix>
</trkpt>
<trkpt lat="40.0713271" lon="-105.2298809">
  <ele>1583.0</ele>
  <time>2026-08-28T17:49:42Z</time>
  <course>10.2</course>
  <speed>0.0</speed>
  <fix>3d</fix>
</trkpt>
<trkpt lat="40.071327" lon="-105.2298811">
  <ele>1583.18</ele>
  <time>2026-08-28T17:49:42Z</time>
  <course>279.92</course>
  <speed>0.022360679774997897</speed>
  <fix>3d</fix>
</trkpt>
<trkpt lat="40.0713271" lon="-105.2298809">
  <ele>1583.0</ele>
  <time>2026-08-28T17:49:42Z</time>
  <course>10.2</course>
  <speed>0.0</speed>
  <fix>3d</fix>
</trkpt>
<trkpt lat="40.071327" lon="-105.2298811">
  <ele>1583.18</ele>
  <time>2026-08-28T17:49:42Z</time>
  <course>279.92</course>
  <speed>0.022360679774997897</speed>
  <fix>3d</fix>
</trkpt>
<trkpt lat="40.0713271" lon="-105.2298809">
  <ele>1583.0</ele>
  <time>2026-08-28T17:49:42Z</time>
  <course>10.2</course>
  <speed>0.0</speed>
  <fix>3d</fix>
</trkpt>
<trkpt lat="40.071327" lon="-105.2298811">
  <ele>1583.18</ele>
  <time>2026-08-28T17:49:42Z</time>
  <course>279.92</course>
  <speed>0.022360679774997897</speed>
  <fix>3d</fix>
</trkpt>
<trkpt lat="40.0713271" lon="-105.2298809">
  <ele>1583.0</ele>
  <time>2026-08-28T17:49:42Z</time>
  <course>10.2</course>
  <speed>0.0</speed>
  <fix>3d</fix>
</trkpt>
<trkpt lat="40.071327" lon="-105.2298811">
  <ele>1583.18</ele>
  <time>2026-08-28T17:49:42Z</time>
  <course>279.92</course>
  <speed>0.022360679774997897</speed>
  <fix>3d</fix>
</trkpt>
<trkpt lat="40.0713271" lon="-105.2298809">
  <ele>1583.0</ele>
  <time>2026-08-28T17:49:42Z</time>
  <course>10.2</course>
  <speed>0.0</speed>
  <fix>3d</fix>
</trkpt>
<trkpt lat="40.071327" lon="-105.2298811">
  <ele>1583.18</ele>
  <time>2026-08-28T17:49:42Z</time>
  <course>279.91</course>
  <speed>0.022360679774997897</speed>
  <fix>3d</fix>
</trkpt>
<trkpt lat="40.0713271" lon="-105.2298809">
  <ele>1583.0</ele>
  <time>2026-08-28T17:49:42Z</time>
  <course>10.2</course>
  <speed>0.0</speed>
  <fix>3d</fix>
</trkpt>
<trkpt lat="40.071327" lon="-105.2298811">
  <ele>1583.18</ele>
  <time>2026-08-28T17:49:42Z</time>
  <course>279.91</course>
  <speed>0.022360679774997897</speed>
  <fix>3d</fix>
</trkpt>
<trkpt lat="40.0713271" lon="-105.2298809">
  <ele>1583.0</ele>
  <time>2026-08-28T17:49:42Z</time>
  <course>10.2</course>
  <speed>0.0</speed>
  <fix>3d</fix>
</trkpt>
<trkpt lat="40.071327" lon="-105.2298811">
  <ele>1583.18</ele>
  <time>2026-08-28T17:49:42Z</time>
  <course>279.91</course>
  <speed>0.022360679774997897</speed>
  <fix>3d</fix>
</trkpt>
<trkpt lat="40.0713271" lon="-105.2298809">
  <ele>1583.0</ele>
  <time>2026-08-28T17:49:42Z</time>
  <course>10.2</course>
  <speed>0.0</speed>
  <fix>3d</fix>
</trkpt>
<trkpt lat="40.071327" lon="-105.2298811">
  <ele>1583.18</ele>
  <time>2026-08-28T17:49:42Z</time>
  <course>279.91</course>
  <speed>0.022360679774997897</speed>
  <fix>3d</fix>
</trkpt>
<trkpt lat="40.0713271" lon="-105.2298809">
  <ele>1583.0</ele>
  <time>2026-08-28T17:49:42Z</time>
  <course>10.2</course>
  <speed>0.0</speed>
  <fix>3d</fix>
</trkpt>
<trkpt lat="40.071327" lon="-105.2298811">
  <ele>1583.18</ele>
  <time>2026-08-28T17:49:42Z</time>
  <course>279.9</course>
  <speed>0.022360679774997897</speed>
  <fix>3d</fix>
</trkpt>
<trkpt lat="40.0713271" lon="-105.2298809">
  <ele>1583.0</ele>
  <time>2026-08-28T17:49:42Z</time>
  <course>10.2</course>
  <speed>0.0</speed>
  <fix>3d</fix>
</trkpt>
<trkpt lat="40.071327" lon="-105.2298811">
  <ele>1583.19</ele>
  <time>2026-08-28T17:49:42Z</time>
  <course>279.9</course>
  <speed>0.022360679774997897</speed>
  <fix>3d</fix>
</trkpt>
<trkpt lat="40.0713271" lon="-105.2298809">
  <ele>1583.0</ele>
  <time>2026-08-28T17:49:42Z</time>
  <course>10.2</course>
  <speed>0.0</speed>
  <fix>3d</fix>
</trkpt>
<trkpt lat="40.071327" lon="-105.2298811">
  <ele>1583.19</ele>
  <time>2026-08-28T17:49:44Z</time>
  <course>279.9</course>
  <speed>0.022360679774997897</speed>
  <fix>3d</fix>
</trkpt>
<trkpt lat="40.0713271" lon="-105.2298809">
  <ele>1583.0</ele>
  <time>2026-08-28T17:49:44Z</time>
  <course>10.2</course>
  <speed>0.0</speed>
  <fix>3d</fix>
</trkpt>
<trkpt lat="40.071327" lon="-105.2298811">
  <ele>1583.19</ele>
  <time>2026-08-28T17:49:44Z</time>
  <course>279.9</course>
  <speed>0.022360679774997897</speed>
  <fix>3d</fix>
</trkpt>
<trkpt lat="40.0713271" lon="-105.2298809">
  <ele>1583.0</ele>
  <time>2026-08-28T17:49:44Z</time>
  <course>10.2</course>
  <speed>0.0</speed>
  <fix>3d</fix>
</trkpt>
<trkpt lat="40.071327" lon="-105.2298811">
  <ele>1583.19</ele>
  <time>2026-08-28T17:49:44Z</time>
  <course>279.89</course>
  <speed>0.022360679774997897</speed>
  <fix>3d</fix>
</trkpt>
<trkpt lat="40.0713271" lon="-105.2298809">
  <ele>1583.0</ele>
  <time>2026-08-28T17:49:44Z</time>
  <course>10.2</course>
  <speed>0.0</speed>
  <fix>3d</fix>
</trkpt>
<trkpt lat="40.071327" lon="-105.2298811">
  <ele>1583.19</ele>
  <time>2026-08-28T17:49:44Z</time>
  <course>279.89</course>
  <speed>0.022360679774997897</speed>
  <fix>3d</fix>
</trkpt>
<trkpt lat="40.0713271" lon="-105.2298809">
  <ele>1583.0</ele>
  <time>2026-08-28T17:49:44Z</time>
  <course>10.2</course>
  <speed>0.0</speed>
  <fix>3d</fix>
</trkpt>
<trkpt lat="40.071327" lon="-105.2298811">
  <ele>1583.18</ele>
  <time>2026-08-28T17:49:44Z</time>
  <course>279.89</course>
  <speed>0.022360679774997897</speed>
  <fix>3d</fix>
</trkpt>
<trkpt lat="40.0713271" lon="-105.2298809">
  <ele>1583.0</ele>
  <time>2026-08-28T17:49:44Z</time>
  <course>10.2</course>
  <speed>0.0</speed>
  <fix>3d</fix>
</trkpt>
<trkpt lat="40.071327" lon="-105.2298811">
  <ele>1583.18</ele>
  <time>2026-08-28T17:49:44Z</time>
  <course>279.89</course>
  <speed>0.022360679774997897</speed>
  <fix>3d</fix>
</trkpt>
<trkpt lat="40.0713271" lon="-105.2298809">
  <ele>1583.0</ele>
  <time>2026-08-28T17:49:44Z</time>
  <course>10.2</course>
  <speed>0.0</speed>
  <fix>3d</fix>
</trkpt>
<trkpt lat="40.071327" lon="-105.2298811">
  <ele>1583.18</ele>
  <time>2026-08-28T17:49:44Z</time>
  <course>279.88</course>
  <speed>0.022360679774997897</speed>
  <fix>3d</fix>
</trkpt>
<trkpt lat="40.0713271" lon="-105.2298809">
  <ele>1583.0</ele>
  <time>2026-08-28T17:49:44Z</time>
  <course>10.2</course>
  <speed>0.0</speed>
  <fix>3d</fix>
</trkpt>
<trkpt lat="40.071327" lon="-105.2298811">
  <ele>1583.18</ele>
  <time>2026-08-28T17:49:44Z</time>
  <course>279.88</course>
  <speed>0.022360679774997897</speed>
  <fix>3d</fix>
</trkpt>
<trkpt lat="40.0713271" lon="-105.2298809">
  <ele>1583.0</ele>
  <time>2026-08-28T17:49:44Z</time>
  <course>10.2</course>
  <speed>0.0</speed>
  <fix>3d</fix>
</trkpt>
<trkpt lat="40.071327" lon="-105.2298811">
  <ele>1583.18</ele>
  <time>2026-08-28T17:49:44Z</time>
  <course>279.88</course>
  <speed>0.022360679774997897</speed>
  <fix>3d</fix>
</trkpt>
<trkpt lat="40.0713271" lon="-105.2298809">
  <ele>1583.0</ele>
  <time>2026-08-28T17:49:44Z</time>
  <course>10.2</course>
  <speed>0.0</speed>
  <fix>3d</fix>
</trkpt>
<trkpt lat="40.071327" lon="-105.2298811">
  <ele>1583.18</ele>
  <time>2026-08-28T17:49:44Z</time>
  <course>279.88</course>
  <speed>0.022360679774997897</speed>
  <fix>3d</fix>
</trkpt>
<trkpt lat="40.0713271" lon="-105.2298809">
  <ele>1583.0</ele>
  <time>2026-08-28T17:49:44Z</time>
  <course>10.2</course>
  <speed>0.0</speed>
  <fix>3d</fix>
</trkpt>
<trkpt lat="40.071327" lon="-105.2298811">
  <ele>1583.19</ele>
  <time>2026-08-28T17:49:44Z</time>
  <course>279.87</course>
  <speed>0.022360679774997897</speed>
  <fix>3d</fix>
</trkpt>
<trkpt lat="40.0713271" lon="-105.2298809">
  <ele>1583.0</ele>
  <time>2026-08-28T17:49:44Z</time>
  <course>10.2</course>
  <speed>0.0</speed>
  <fix>3d</fix>
</trkpt>
<trkpt lat="40.071327" lon="-105.2298811">
  <ele>1583.19</ele>
  <time>2026-08-28T17:49:44Z</time>
  <course>279.87</course>
  <speed>0.022360679774997897</speed>
  <fix>3d</fix>
</trkpt>
<trkpt lat="40.0713271" lon="-105.2298809">
  <ele>1583.0</ele>
  <time>2026-08-28T17:49:44Z</time>
  <course>10.2</course>
  <speed>0.0</speed>
  <fix>3d</fix>
</trkpt>
<trkpt lat="40.071327" lon="-105.2298811">
  <ele>1583.19</ele>
  <time>2026-08-28T17:49:44Z</time>
  <course>279.87</course>
  <speed>0.022360679774997897</speed>
  <fix>3d</fix>
</trkpt>
<trkpt lat="40.0713271" lon="-105.2298809">
  <ele>1583.0</ele>
  <time>2026-08-28T17:49:44Z</time>
  <course>10.2</course>
  <speed>0.0</speed>
  <fix>3d</fix>
</trkpt>
<trkpt lat="40.071327" lon="-105.2298811">
  <ele>1583.18</ele>
  <time>2026-08-28T17:49:44Z</time>
  <course>279.87</course>
  <speed>0.022360679774997897</speed>
  <fix>3d</fix>
</trkpt>
<trkpt lat="40.0713271" lon="-105.2298809">
  <ele>1583.0</ele>
  <time>2026-08-28T17:49:44Z</time>
  <course>10.2</course>
  <speed>0.0</speed>
  <fix>3d</fix>
</trkpt>
<trkpt lat="40.071327" lon="-105.2298811">
  <ele>1583.18</ele>
  <time>2026-08-28T17:49:44Z</time>
  <course>279.86</course>
  <speed>0.022360679774997897</speed>
  <fix>3d</fix>
</trkpt>
<trkpt lat="40.0713271" lon="-105.2298809">
  <ele>1583.0</ele>
  <time>2026-08-28T17:49:44Z</time>
  <course>10.2</course>
  <speed>0.0</speed>
  <fix>3d</fix>
</trkpt>
<trkpt lat="40.071327" lon="-105.2298811">
  <ele>1583.18</ele>
  <time>2026-08-28T17:49:44Z</time>
  <course>279.86</course>
  <speed>0.022360679774997897</speed>
  <fix>3d</fix>
</trkpt>
<trkpt lat="40.0713271" lon="-105.2298809">
  <ele>1583.0</ele>
  <time>2026-08-28T17:49:44Z</time>
  <course>10.2</course>
  <speed>0.0</speed>
  <fix>3d</fix>
</trkpt>
<trkpt lat="40.071327" lon="-105.2298811">
  <ele>1583.18</ele>
  <time>2026-08-28T17:49:44Z</time>
  <course>279.86</course>
  <speed>0.022360679774997897</speed>
  <fix>3d</fix>
</trkpt>
<trkpt lat="40.0713271" lon="-105.2298809">
  <ele>1583.0</ele>
  <time>2026-08-28T17:49:44Z</time>
  <course>10.2</course>
  <speed>0.0</speed>
  <fix>3d</fix>
</trkpt>
<trkpt lat="40.071327" lon="-105.2298811">
  <ele>1583.18</ele>
  <time>2026-08-28T17:49:44Z</time>
  <course>279.86</course>
  <speed>0.022360679774997897</speed>
  <fix>3d</fix>
</trkpt>
<trkpt lat="40.0713271" lon="-105.2298809">
  <ele>1583.0</ele>
  <time>2026-08-28T17:49:44Z</time>
  <course>10.2</course>
  <speed>0.0</speed>
  <fix>3d</fix>
</trkpt>
<trkpt lat="40.071327" lon="-105.2298811">
  <ele>1583.18</ele>
  <time>2026-08-28T17:49:44Z</time>
  <course>279.85</course>
  <speed>0.022360679774997897</speed>
  <fix>3d</fix>
</trkpt>
<trkpt lat="40.0713271" lon="-105.2298809">
  <ele>1583.0</ele>
  <time>2026-08-28T17:49:44Z</time>
  <course>10.2</course>
  <speed>0.0</speed>
  <fix>3d</fix>
</trkpt>
<trkpt lat="40.071327" lon="-105.2298811">
  <ele>1583.18</ele>
  <time>2026-08-28T17:49:44Z</time>
  <course>279.85</course>
  <speed>0.022360679774997897</speed>
  <fix>3d</fix>
</trkpt>
<trkpt lat="40.0713271" lon="-105.2298809">
  <ele>1583.0</ele>
  <time>2026-08-28T17:49:44Z</time>
  <course>10.2</course>
  <speed>0.0</speed>
  <fix>3d</fix>
</trkpt>
<trkpt lat="40.071327" lon="-105.2298811">
  <ele>1583.18</ele>
  <time>2026-08-28T17:49:44Z</time>
  <course>279.85</course>
  <speed>0.022360679774997897</speed>
  <fix>3d</fix>
</trkpt>
<trkpt lat="40.0713271" lon="-105.2298809">
  <ele>1583.0</ele>
  <time>2026-08-28T17:49:44Z</time>
  <course>10.2</course>
  <speed>0.0</speed>
  <fix>3d</fix>
</trkpt>
<trkpt lat="40.071327" lon="-105.2298811">
  <ele>1583.18</ele>
  <time>2026-08-28T17:49:44Z</time>
  <course>279.85</course>
  <speed>0.022360679774997897</speed>
  <fix>3d</fix>
</trkpt>
<trkpt lat="40.0713271" lon="-105.2298809">
  <ele>1583.0</ele>
  <time>2026-08-28T17:49:44Z</time>
  <course>10.2</course>
  <speed>0.0</speed>
  <fix>3d</fix>
</trkpt>
<trkpt lat="40.071327" lon="-105.2298811">
  <ele>1583.18</ele>
  <time>2026-08-28T17:49:44Z</time>
  <course>279.84</course>
  <speed>0.022360679774997897</speed>
  <fix>3d</fix>
</trkpt>
<trkpt lat="40.0713271" lon="-105.2298809">
  <ele>1583.0</ele>
  <time>2026-08-28T17:49:44Z</time>
  <course>10.2</course>
  <speed>0.0</speed>
  <fix>3d</fix>
</trkpt>
<trkpt lat="40.071327" lon="-105.2298811">
  <ele>1583.18</ele>
  <time>2026-08-28T17:49:44Z</time>
  <course>279.84</course>
  <speed>0.022360679774997897</speed>
  <fix>3d</fix>
</trkpt>
<trkpt lat="40.0713271" lon="-105.2298809">
  <ele>1583.0</ele>
  <time>2026-08-28T17:49:44Z</time>
  <course>10.2</course>
  <speed>0.0</speed>
  <fix>3d</fix>
</trkpt>
<trkpt lat="40.071327" lon="-105.2298811">
  <ele>1583.18</ele>
  <time>2026-08-28T17:49:44Z</time>
  <course>279.84</course>
  <speed>0.022360679774997897</speed>
  <fix>3d</fix>
</trkpt>
<trkpt lat="40.0713271" lon="-105.2298809">
  <ele>1583.0</ele>
  <time>2026-08-28T17:49:44Z</time>
  <course>10.2</course>
  <speed>0.0</speed>
  <fix>3d</fix>
</trkpt>
<trkpt lat="40.071327" lon="-105.2298811">
  <ele>1583.18</ele>
  <time>2026-08-28T17:49:44Z</time>
  <course>279.84</course>
  <speed>0.022360679774997897</speed>
  <fix>3d</fix>
</trkpt>
<trkpt lat="40.0713271" lon="-105.2298809">
  <ele>1583.0</ele>
  <time>2026-08-28T17:49:44Z</time>
  <course>10.2</course>
  <speed>0.0</speed>
  <fix>3d</fix>
</trkpt>
<trkpt lat="40.071327" lon="-105.2298811">
  <ele>1583.18</ele>
  <time>2026-08-28T17:49:44Z</time>
  <course>279.83</course>
  <speed>0.022360679774997897</speed>
  <fix>3d</fix>
</trkpt>
<trkpt lat="40.0713271" lon="-105.2298809">
  <ele>1583.0</ele>
  <time>2026-08-28T17:49:44Z</time>
  <course>10.2</course>
  <speed>0.0</speed>
  <fix>3d</fix>
</trkpt>
<trkpt lat="40.071327" lon="-105.2298811">
  <ele>1583.18</ele>
  <time>2026-08-28T17:49:44Z</time>
  <course>279.83</course>
  <speed>0.022360679774997897</speed>
  <fix>3d</fix>
</trkpt>
<trkpt lat="40.0713271" lon="-105.2298809">
  <ele>1583.0</ele>
  <time>2026-08-28T17:49:44Z</time>
  <course>10.2</course>
  <speed>0.0</speed>
  <fix>3d</fix>
</trkpt>
<trkpt lat="40.071327" lon="-105.2298811">
  <ele>1583.18</ele>
  <time>2026-08-28T17:49:44Z</time>
  <course>279.83</course>
  <speed>0.022360679774997897</speed>
  <fix>3d</fix>
</trkpt>
<trkpt lat="40.0713271" lon="-105.2298809">
  <ele>1583.0</ele>
  <time>2026-08-28T17:49:44Z</time>
  <course>10.2</course>
  <speed>0.0</speed>
  <fix>3d</fix>
</trkpt>
<trkpt lat="40.071327" lon="-105.2298811">
  <ele>1583.18</ele>
  <time>2026-08-28T17:49:44Z</time>
  <course>279.83</course>
  <speed>0.022360679774997897</speed>
  <fix>3d</fix>
</trkpt>
<trkpt lat="40.0713271" lon="-105.2298809">
  <ele>1583.0</ele>
  <time>2026-08-28T17:49:44Z</time>
  <course>10.2</course>
  <speed>0.0</speed>
  <fix>3d</fix>
</trkpt>
<trkpt lat="40.071327" lon="-105.2298811">
  <ele>1583.19</ele>
  <time>2026-08-28T17:49:44Z</time>
  <course>279.83</course>
  <speed>0.022360679774997897</speed>
  <fix>3d</fix>
</trkpt>
<trkpt lat="40.0713271" lon="-105.2298809">
  <ele>1583.0</ele>
  <time>2026-08-28T17:49:44Z</time>
  <course>10.2</course>
  <speed>0.0</speed>
  <fix>3d</fix>
</trkpt>
<trkpt lat="40.071327" lon="-105.2298811">
  <ele>1583.19</ele>
  <time>2026-08-28T17:49:44Z</time>
  <course>279.82</course>
  <speed>0.022360679774997897</speed>
  <fix>3d</fix>
</trkpt>
<trkpt lat="40.0713271" lon="-105.2298809">
  <ele>1583.0</ele>
  <time>2026-08-28T17:49:44Z</time>
  <course>10.2</course>
  <speed>0.0</speed>
  <fix>3d</fix>
</trkpt>
<trkpt lat="40.071327" lon="-105.2298811">
  <ele>1583.18</ele>
  <time>2026-08-28T17:49:44Z</time>
  <course>279.82</course>
  <speed>0.022360679774997897</speed>
  <fix>3d</fix>
</trkpt>
<trkpt lat="40.0713271" lon="-105.2298809">
  <ele>1583.0</ele>
  <time>2026-08-28T17:49:44Z</time>
  <course>10.2</course>
  <speed>0.0</speed>
  <fix>3d</fix>
</trkpt>
<trkpt lat="40.071327" lon="-105.2298811">
  <ele>1583.18</ele>
  <time>2026-08-28T17:49:44Z</time>
  <course>279.82</course>
  <speed>0.022360679774997897</speed>
  <fix>3d</fix>
</trkpt>
<trkpt lat="40.0713271" lon="-105.2298809">
  <ele>1583.0</ele>
  <time>2026-08-28T17:49:44Z</time>
  <course>10.2</course>
  <speed>0.0</speed>
  <fix>3d</fix>
</trkpt>
<trkpt lat="40.071327" lon="-105.2298811">
  <ele>1583.18</ele>
  <time>2026-08-28T17:49:44Z</time>
  <course>279.82</course>
  <speed>0.022360679774997897</speed>
  <fix>3d</fix>
</trkpt>
<trkpt lat="40.0713271" lon="-105.2298809">
  <ele>1583.0</ele>
  <time>2026-08-28T17:49:44Z</time>
  <course>10.2</course>
  <speed>0.0</speed>
  <fix>3d</fix>
</trkpt>
<trkpt lat="40.071327" lon="-105.2298811">
  <ele>1583.18</ele>
  <time>2026-08-28T17:49:44Z</time>
  <course>279.81</course>
  <speed>0.022360679774997897</speed>
  <fix>3d</fix>
</trkpt>
<trkpt lat="40.0713271" lon="-105.2298809">
  <ele>1583.0</ele>
  <time>2026-08-28T17:49:44Z</time>
  <course>10.2</course>
  <speed>0.0</speed>
  <fix>3d</fix>
</trkpt>
<trkpt lat="40.071327" lon="-105.2298811">
  <ele>1583.18</ele>
  <time>2026-08-28T17:49:44Z</time>
  <course>279.81</course>
  <speed>0.022360679774997897</speed>
  <fix>3d</fix>
</trkpt>
<trkpt lat="40.0713271" lon="-105.2298809">
  <ele>1583.0</ele>
  <time>2026-08-28T17:49:44Z</time>
  <course>10.2</course>
  <speed>0.0</speed>
  <fix>3d</fix>
</trkpt>
<trkpt lat="40.071327" lon="-105.2298811">
  <ele>1583.18</ele>
  <time>2026-08-28T17:49:44Z</time>
  <course>279.81</course>
  <speed>0.022360679774997897</speed>
  <fix>3d</fix>
</trkpt>
<trkpt lat="40.0713271" lon="-105.2298809">
  <ele>1583.0</ele>
  <time>2026-08-28T17:49:44Z</time>
  <course>10.2</course>
  <speed>0.0</speed>
  <fix>3d</fix>
</trkpt>
<trkpt lat="40.071327" lon="-105.2298811">
  <ele>1583.18</ele>
  <time>2026-08-28T17:49:44Z</time>
  <course>279.81</course>
  <speed>0.022360679774997897</speed>
  <fix>3d</fix>
</trkpt>
<trkpt lat="40.0713271" lon="-105.2298809">
  <ele>1583.0</ele>
  <time>2026-08-28T17:49:44Z</time>
  <course>10.2</course>
  <speed>0.0</speed>
  <fix>3d</fix>
</trkpt>
<trkpt lat="40.071327" lon="-105.2298811">
  <ele>1583.18</ele>
  <time>2026-08-28T17:49:44Z</time>
  <course>279.8</course>
  <speed>0.022360679774997897</speed>
  <fix>3d</fix>
</trkpt>
<trkpt lat="40.0713271" lon="-105.2298809">
  <ele>1583.0</ele>
  <time>2026-08-28T17:49:44Z</time>
  <course>10.2</course>
  <speed>0.0</speed>
  <fix>3d</fix>
</trkpt>
<trkpt lat="40.071327" lon="-105.2298811">
  <ele>1583.18</ele>
  <time>2026-08-28T17:49:44Z</time>
  <course>279.8</course>
  <speed>0.022360679774997897</speed>
  <fix>3d</fix>
</trkpt>
<trkpt lat="40.0713271" lon="-105.2298809">
  <ele>1583.0</ele>
  <time>2026-08-28T17:49:44Z</time>
  <course>10.2</course>
  <speed>0.0</speed>
  <fix>3d</fix>
</trkpt>
<trkpt lat="40.071327" lon="-105.2298811">
  <ele>1583.18</ele>
  <time>2026-08-28T17:49:44Z</time>
  <course>279.8</course>
  <speed>0.022360679774997897</speed>
  <fix>3d</fix>
</trkpt>
<trkpt lat="40.0713271" lon="-105.2298809">
  <ele>1583.0</ele>
  <time>2026-08-28T17:49:44Z</time>
  <course>10.2</course>
  <speed>0.0</speed>
  <fix>3d</fix>
</trkpt>
<trkpt lat="40.071327" lon="-105.2298811">
  <ele>1583.18</ele>
  <time>2026-08-28T17:49:44Z</time>
  <course>279.8</course>
  <speed>0.022360679774997897</speed>
  <fix>3d</fix>
</trkpt>
<trkpt lat="40.0713271" lon="-105.2298809">
  <ele>1583.0</ele>
  <time>2026-08-28T17:49:44Z</time>
  <course>10.2</course>
  <speed>0.0</speed>
  <fix>3d</fix>
</trkpt>
<trkpt lat="40.071327" lon="-105.2298811">
  <ele>1583.18</ele>
  <time>2026-08-28T17:49:44Z</time>
  <course>279.79</course>
  <speed>0.022360679774997897</speed>
  <fix>3d</fix>
</trkpt>
<trkpt lat="40.0713271" lon="-105.2298809">
  <ele>1583.0</ele>
  <time>2026-08-28T17:49:44Z</time>
  <course>10.2</course>
  <speed>0.0</speed>
  <fix>3d</fix>
</trkpt>
<trkpt lat="40.071327" lon="-105.2298811">
  <ele>1583.18</ele>
  <time>2026-08-28T17:49:44Z</time>
  <course>279.79</course>
  <speed>0.022360679774997897</speed>
  <fix>3d</fix>
</trkpt>
<trkpt lat="40.0713271" lon="-105.2298809">
  <ele>1583.0</ele>
  <time>2026-08-28T17:49:44Z</time>
  <course>10.2</course>
  <speed>0.0</speed>
  <fix>3d</fix>
</trkpt>
<trkpt lat="40.071327" lon="-105.2298811">
  <ele>1583.18</ele>
  <time>2026-08-28T17:49:44Z</time>
  <course>279.79</course>
  <speed>0.022360679774997897</speed>
  <fix>3d</fix>
</trkpt>
<trkpt lat="40.0713271" lon="-105.2298809">
  <ele>1583.0</ele>
  <time>2026-08-28T17:49:44Z</time>
  <course>10.2</course>
  <speed>0.0</speed>
  <fix>3d</fix>
</trkpt>
<trkpt lat="40.071327" lon="-105.2298811">
  <ele>1583.19</ele>
  <time>2026-08-28T17:49:44Z</time>
  <course>279.79</course>
  <speed>0.022360679774997897</speed>
  <fix>3d</fix>
</trkpt>
<trkpt lat="40.0713271" lon="-105.2298809">
  <ele>1583.0</ele>
  <time>2026-08-28T17:49:44Z</time>
  <course>10.2</course>
  <speed>0.0</speed>
  <fix>3d</fix>
</trkpt>
<trkpt lat="40.071327" lon="-105.2298811">
  <ele>1583.19</ele>
  <time>2026-08-28T17:49:44Z</time>
  <course>279.78</course>
  <speed>0.022360679774997897</speed>
  <fix>3d</fix>
</trkpt>
<trkpt lat="40.0713271" lon="-105.2298809">
  <ele>1583.0</ele>
  <time>2026-08-28T17:49:44Z</time>
  <course>10.2</course>
  <speed>0.0</speed>
  <fix>3d</fix>
</trkpt>
<trkpt lat="40.071327" lon="-105.2298811">
  <ele>1583.19</ele>
  <time>2026-08-28T17:49:44Z</time>
  <course>279.78</course>
  <speed>0.022360679774997897</speed>
  <fix>3d</fix>
</trkpt>
<trkpt lat="40.0713271" lon="-105.2298809">
  <ele>1583.0</ele>
  <time>2026-08-28T17:49:44Z</time>
  <course>10.2</course>
  <speed>0.0</speed>
  <fix>3d</fix>
</trkpt>
<trkpt lat="40.071327" lon="-105.2298811">
  <ele>1583.19</ele>
  <time>2026-08-28T17:49:44Z</time>
  <course>279.78</course>
  <speed>0.022360679774997897</speed>
  <fix>3d</fix>
</trkpt>
<trkpt lat="40.0713271" lon="-105.2298809">
  <ele>1583.0</ele>
  <time>2026-08-28T17:49:44Z</time>
  <course>10.2</course>
  <speed>0.0</speed>
  <fix>3d</fix>
</trkpt>
<trkpt lat="40.071327" lon="-105.2298811">
  <ele>1583.19</ele>
  <time>2026-08-28T17:49:44Z</time>
  <course>279.78</course>
  <speed>0.022360679774997897</speed>
  <fix>3d</fix>
</trkpt>
<trkpt lat="40.0713271" lon="-105.2298809">
  <ele>1583.0</ele>
  <time>2026-08-28T17:49:44Z</time>
  <course>10.2</course>
  <speed>0.0</speed>
  <fix>3d</fix>
</trkpt>
<trkpt lat="40.071327" lon="-105.2298811">
  <ele>1583.19</ele>
  <time>2026-08-28T17:49:44Z</time>
  <course>279.77</course>
  <speed>0.022360679774997897</speed>
  <fix>3d</fix>
</trkpt>
<trkpt lat="40.0713271" lon="-105.2298809">
  <ele>1583.0</ele>
  <time>2026-08-28T17:49:44Z</time>
  <course>10.2</course>
  <speed>0.0</speed>
  <fix>3d</fix>
</trkpt>
<trkpt lat="40.071327" lon="-105.2298811">
  <ele>1583.19</ele>
  <time>2026-08-28T17:49:44Z</time>
  <course>279.77</course>
  <speed>0.022360679774997897</speed>
  <fix>3d</fix>
</trkpt>
<trkpt lat="40.0713271" lon="-105.2298809">
  <ele>1583.0</ele>
  <time>2026-08-28T17:49:44Z</time>
  <course>10.2</course>
  <speed>0.0</speed>
  <fix>3d</fix>
</trkpt>
<trkpt lat="40.071327" lon="-105.2298811">
  <ele>1583.19</ele>
  <time>2026-08-28T17:49:44Z</time>
  <course>279.77</course>
  <speed>0.022360679774997897</speed>
  <fix>3d</fix>
</trkpt>
<trkpt lat="40.0713271" lon="-105.2298809">
  <ele>1583.0</ele>
  <time>2026-08-28T17:49:44Z</time>
  <course>10.2</course>
  <speed>0.0</speed>
  <fix>3d</fix>
</trkpt>
<trkpt lat="40.071327" lon="-105.2298811">
  <ele>1583.18</ele>
  <time>2026-08-28T17:49:44Z</time>
  <course>279.77</course>
  <speed>0.022360679774997897</speed>
  <fix>3d</fix>
</trkpt>
<trkpt lat="40.0713271" lon="-105.2298809">
  <ele>1583.0</ele>
  <time>2026-08-28T17:49:44Z</time>
  <course>10.2</course>
  <speed>0.0</speed>
  <fix>3d</fix>
</trkpt>
<trkpt lat="40.071327" lon="-105.2298811">
  <ele>1583.18</ele>
  <time>2026-08-28T17:49:44Z</time>
  <course>279.77</course>
  <speed>0.022360679774997897</speed>
  <fix>3d</fix>
</trkpt>
<trkpt lat="40.0713271" lon="-105.2298809">
  <ele>1583.0</ele>
  <time>2026-08-28T17:49:44Z</time>
  <course>10.2</course>
  <speed>0.0</speed>
  <fix>3d</fix>
</trkpt>
<trkpt lat="40.071327" lon="-105.2298811">
  <ele>1583.18</ele>
  <time>2026-08-28T17:49:44Z</time>
  <course>279.76</course>
  <speed>0.022360679774997897</speed>
  <fix>3d</fix>
</trkpt>
<trkpt lat="40.0713271" lon="-105.2298809">
  <ele>1583.0</ele>
  <time>2026-08-28T17:49:44Z</time>
  <course>10.2</course>
  <speed>0.0</speed>
  <fix>3d</fix>
</trkpt>
<trkpt lat="40.071327" lon="-105.2298811">
  <ele>1583.17</ele>
  <time>2026-08-28T17:49:44Z</time>
  <course>279.76</course>
  <speed>0.022360679774997897</speed>
  <fix>3d</fix>
</trkpt>
<trkpt lat="40.0713271" lon="-105.2298809">
  <ele>1583.0</ele>
  <time>2026-08-28T17:49:44Z</time>
  <course>10.2</course>
  <speed>0.0</speed>
  <fix>3d</fix>
</trkpt>
<trkpt lat="40.071327" lon="-105.2298811">
  <ele>1583.17</ele>
  <time>2026-08-28T17:49:44Z</time>
  <course>279.76</course>
  <speed>0.022360679774997897</speed>
  <fix>3d</fix>
</trkpt>
<trkpt lat="40.0713271" lon="-105.2298809">
  <ele>1583.0</ele>
  <time>2026-08-28T17:49:44Z</time>
  <course>10.2</course>
  <speed>0.0</speed>
  <fix>3d</fix>
</trkpt>
<trkpt lat="40.071327" lon="-105.2298811">
  <ele>1583.17</ele>
  <time>2026-08-28T17:49:44Z</time>
  <course>279.76</course>
  <speed>0.022360679774997897</speed>
  <fix>3d</fix>
</trkpt>
<trkpt lat="40.0713271" lon="-105.2298809">
  <ele>1583.0</ele>
  <time>2026-08-28T17:49:44Z</time>
  <course>10.2</course>
  <speed>0.0</speed>
  <fix>3d</fix>
</trkpt>
<trkpt lat="40.071327" lon="-105.2298811">
  <ele>1583.17</ele>
  <time>2026-08-28T17:49:44Z</time>
  <course>279.75</course>
  <speed>0.022360679774997897</speed>
  <fix>3d</fix>
</trkpt>
<trkpt lat="40.0713271" lon="-105.2298809">
  <ele>1583.0</ele>
  <time>2026-08-28T17:49:44Z</time>
  <course>10.2</course>
  <speed>0.0</speed>
  <fix>3d</fix>
</trkpt>
<trkpt lat="40.071327" lon="-105.2298811">
  <ele>1583.16</ele>
  <time>2026-08-28T17:49:44Z</time>
  <course>279.75</course>
  <speed>0.022360679774997897</speed>
  <fix>3d</fix>
</trkpt>
<trkpt lat="40.0713271" lon="-105.2298809">
  <ele>1583.0</ele>
  <time>2026-08-28T17:49:44Z</time>
  <course>10.2</course>
  <speed>0.0</speed>
  <fix>3d</fix>
</trkpt>
<trkpt lat="40.071327" lon="-105.2298811">
  <ele>1583.16</ele>
  <time>2026-08-28T17:49:44Z</time>
  <course>279.75</course>
  <speed>0.022360679774997897</speed>
  <fix>3d</fix>
</trkpt>
<trkpt lat="40.0713271" lon="-105.2298809">
  <ele>1583.0</ele>
  <time>2026-08-28T17:49:44Z</time>
  <course>10.2</course>
  <speed>0.0</speed>
  <fix>3d</fix>
</trkpt>
<trkpt lat="40.071327" lon="-105.2298811">
  <ele>1583.17</ele>
  <time>2026-08-28T17:49:44Z</time>
  <course>279.75</course>
  <speed>0.022360679774997897</speed>
  <fix>3d</fix>
</trkpt>
<trkpt lat="40.0713271" lon="-105.2298809">
  <ele>1583.0</ele>
  <time>2026-08-28T17:49:44Z</time>
  <course>10.2</course>
  <speed>0.0</speed>
  <fix>3d</fix>
</trkpt>
<trkpt lat="40.071327" lon="-105.2298811">
  <ele>1583.17</ele>
  <time>2026-08-28T17:49:44Z</time>
  <course>279.74</course>
  <speed>0.022360679774997897</speed>
  <fix>3d</fix>
</trkpt>
<trkpt lat="40.0713271" lon="-105.2298809">
  <ele>1583.0</ele>
  <time>2026-08-28T17:49:44Z</time>
  <course>10.2</course>
  <speed>0.0</speed>
  <fix>3d</fix>
</trkpt>
<trkpt lat="40.071327" lon="-105.2298811">
  <ele>1583.17</ele>
  <time>2026-08-28T17:49:44Z</time>
  <course>279.74</course>
  <speed>0.022360679774997897</speed>
  <fix>3d</fix>
</trkpt>
<trkpt lat="40.0713271" lon="-105.2298809">
  <ele>1583.0</ele>
  <time>2026-08-28T17:49:44Z</time>
  <course>10.2</course>
  <speed>0.0</speed>
  <fix>3d</fix>
</trkpt>
<trkpt lat="40.071327" lon="-105.2298811">
  <ele>1583.17</ele>
  <time>2026-08-28T17:49:44Z</time>
  <course>279.74</course>
  <speed>0.022360679774997897</speed>
  <fix>3d</fix>
</trkpt>
<trkpt lat="40.0713271" lon="-105.2298809">
  <ele>1583.0</ele>
  <time>2026-08-28T17:49:44Z</time>
  <course>10.2</course>
  <speed>0.0</speed>
  <fix>3d</fix>
</trkpt>
<trkpt lat="40.071327" lon="-105.2298811">
  <ele>1583.17</ele>
  <time>2026-08-28T17:49:44Z</time>
  <course>279.74</course>
  <speed>0.022360679774997897</speed>
  <fix>3d</fix>
</trkpt>
<trkpt lat="40.0713271" lon="-105.2298809">
  <ele>1583.0</ele>
  <time>2026-08-28T17:49:44Z</time>
  <course>10.2</course>
  <speed>0.0</speed>
  <fix>3d</fix>
</trkpt>
<trkpt lat="40.071327" lon="-105.2298811">
  <ele>1583.18</ele>
  <time>2026-08-28T17:49:44Z</time>
  <course>279.74</course>
  <speed>0.022360679774997897</speed>
  <fix>3d</fix>
</trkpt>
<trkpt lat="40.0713271" lon="-105.2298809">
  <ele>1583.0</ele>
  <time>2026-08-28T17:49:44Z</time>
  <course>10.2</course>
  <speed>0.0</speed>
  <fix>3d</fix>
</trkpt>
<trkpt lat="40.071327" lon="-105.2298811">
  <ele>1583.18</ele>
  <time>2026-08-28T17:49:44Z</time>
  <course>279.73</course>
  <speed>0.022360679774997897</speed>
  <fix>3d</fix>
</trkpt>
<trkpt lat="40.0713271" lon="-105.2298809">
  <ele>1583.0</ele>
  <time>2026-08-28T17:49:44Z</time>
  <course>10.2</course>
  <speed>0.0</speed>
  <fix>3d</fix>
</trkpt>
<trkpt lat="40.071327" lon="-105.2298811">
  <ele>1583.18</ele>
  <time>2026-08-28T17:49:44Z</time>
  <course>279.73</course>
  <speed>0.022360679774997897</speed>
  <fix>3d</fix>
</trkpt>
<trkpt lat="40.0713271" lon="-105.2298809">
  <ele>1583.0</ele>
  <time>2026-08-28T17:49:44Z</time>
  <course>10.2</course>
  <speed>0.0</speed>
  <fix>3d</fix>
</trkpt>
<trkpt lat="40.071327" lon="-105.2298811">
  <ele>1583.18</ele>
  <time>2026-08-28T17:49:44Z</time>
  <course>279.73</course>
  <speed>0.022360679774997897</speed>
  <fix>3d</fix>
</trkpt>
<trkpt lat="40.0713271" lon="-105.2298809">
  <ele>1583.0</ele>
  <time>2026-08-28T17:49:44Z</time>
  <course>10.2</course>
  <speed>0.0</speed>
  <fix>3d</fix>
</trkpt>
<trkpt lat="40.071327" lon="-105.2298811">
  <ele>1583.18</ele>
  <time>2026-08-28T17:49:44Z</time>
  <course>279.73</course>
  <speed>0.022360679774997897</speed>
  <fix>3d</fix>
</trkpt>
<trkpt lat="40.0713271" lon="-105.2298809">
  <ele>1583.0</ele>
  <time>2026-08-28T17:49:44Z</time>
  <course>10.2</course>
  <speed>0.0</speed>
  <fix>3d</fix>
</trkpt>
<trkpt lat="40.071327" lon="-105.2298811">
  <ele>1583.17</ele>
  <time>2026-08-28T17:49:44Z</time>
  <course>279.72</course>
  <speed>0.022360679774997897</speed>
  <fix>3d</fix>
</trkpt>
<trkpt lat="40.0713271" lon="-105.2298809">
  <ele>1583.0</ele>
  <time>2026-08-28T17:49:44Z</time>
  <course>10.2</course>
  <speed>0.0</speed>
  <fix>3d</fix>
</trkpt>
<trkpt lat="40.071327" lon="-105.2298811">
  <ele>1583.18</ele>
  <time>2026-08-28T17:49:44Z</time>
  <course>279.72</course>
  <speed>0.022360679774997897</speed>
  <fix>3d</fix>
</trkpt>
<trkpt lat="40.0713271" lon="-105.2298809">
  <ele>1583.0</ele>
  <time>2026-08-28T17:49:44Z</time>
  <course>10.2</course>
  <speed>0.0</speed>
  <fix>3d</fix>
</trkpt>
<trkpt lat="40.071327" lon="-105.2298811">
  <ele>1583.18</ele>
  <time>2026-08-28T17:49:44Z</time>
  <course>279.72</course>
  <speed>0.022360679774997897</speed>
  <fix>3d</fix>
</trkpt>
<trkpt lat="40.0713271" lon="-105.2298809">
  <ele>1583.0</ele>
  <time>2026-08-28T17:49:44Z</time>
  <course>10.2</course>
  <speed>0.0</speed>
  <fix>3d</fix>
</trkpt>
<trkpt lat="40.071327" lon="-105.2298811">
  <ele>1583.18</ele>
  <time>2026-08-28T17:49:44Z</time>
  <course>279.72</course>
  <speed>0.022360679774997897</speed>
  <fix>3d</fix>
</trkpt>
<trkpt lat="40.0713271" lon="-105.2298809">
  <ele>1583.0</ele>
  <time>2026-08-28T17:49:44Z</time>
  <course>10.2</course>
  <speed>0.0</speed>
  <fix>3d</fix>
</trkpt>
<trkpt lat="40.071327" lon="-105.2298811">
  <ele>1583.18</ele>
  <time>2026-08-28T17:49:44Z</time>
  <course>279.72</course>
  <speed>0.022360679774997897</speed>
  <fix>3d</fix>
</trkpt>
<trkpt lat="40.0713271" lon="-105.2298809">
  <ele>1583.0</ele>
  <time>2026-08-28T17:49:44Z</time>
  <course>10.2</course>
  <speed>0.0</speed>
  <fix>3d</fix>
</trkpt>
<trkpt lat="40.071327" lon="-105.2298811">
  <ele>1583.18</ele>
  <time>2026-08-28T17:49:44Z</time>
  <course>279.71</course>
  <speed>0.022360679774997897</speed>
  <fix>3d</fix>
</trkpt>
<trkpt lat="40.0713271" lon="-105.2298809">
  <ele>1583.0</ele>
  <time>2026-08-28T17:49:44Z</time>
  <course>10.2</course>
  <speed>0.0</speed>
  <fix>3d</fix>
</trkpt>
<trkpt lat="40.071327" lon="-105.2298811">
  <ele>1583.18</ele>
  <time>2026-08-28T17:49:44Z</time>
  <course>279.71</course>
  <speed>0.022360679774997897</speed>
  <fix>3d</fix>
</trkpt>
<trkpt lat="40.0713271" lon="-105.2298809">
  <ele>1583.0</ele>
  <time>2026-08-28T17:49:44Z</time>
  <course>10.2</course>
  <speed>0.0</speed>
  <fix>3d</fix>
</trkpt>
<trkpt lat="40.071327" lon="-105.2298811">
  <ele>1583.17</ele>
  <time>2026-08-28T17:49:44Z</time>
  <course>279.71</course>
  <speed>0.022360679774997897</speed>
  <fix>3d</fix>
</trkpt>
<trkpt lat="40.0713271" lon="-105.2298809">
  <ele>1583.0</ele>
  <time>2026-08-28T17:49:44Z</time>
  <course>10.2</course>
  <speed>0.0</speed>
  <fix>3d</fix>
</trkpt>
<trkpt lat="40.071327" lon="-105.2298811">
  <ele>1583.17</ele>
  <time>2026-08-28T17:49:44Z</time>
  <course>279.71</course>
  <speed>0.022360679774997897</speed>
  <fix>3d</fix>
</trkpt>
<trkpt lat="40.0713271" lon="-105.2298809">
  <ele>1583.0</ele>
  <time>2026-08-28T17:49:44Z</time>
  <course>10.2</course>
  <speed>0.0</speed>
  <fix>3d</fix>
</trkpt>
<trkpt lat="40.071327" lon="-105.2298811">
  <ele>1583.17</ele>
  <time>2026-08-28T17:49:44Z</time>
  <course>279.7</course>
  <speed>0.022360679774997897</speed>
  <fix>3d</fix>
</trkpt>
<trkpt lat="40.0713271" lon="-105.2298809">
  <ele>1583.0</ele>
  <time>2026-08-28T17:49:44Z</time>
  <course>10.2</course>
  <speed>0.0</speed>
  <fix>3d</fix>
</trkpt>
<trkpt lat="40.071327" lon="-105.2298811">
  <ele>1583.18</ele>
  <time>2026-08-28T17:49:44Z</time>
  <course>279.7</course>
  <speed>0.022360679774997897</speed>
  <fix>3d</fix>
</trkpt>
<trkpt lat="40.0713271" lon="-105.2298809">
  <ele>1583.0</ele>
  <time>2026-08-28T17:49:44Z</time>
  <course>10.2</course>
  <speed>0.0</speed>
  <fix>3d</fix>
</trkpt>
<trkpt lat="40.071327" lon="-105.2298811">
  <ele>1583.18</ele>
  <time>2026-08-28T17:49:44Z</time>
  <course>279.7</course>
  <speed>0.022360679774997897</speed>
  <fix>3d</fix>
</trkpt>
<trkpt lat="40.0713271" lon="-105.2298809">
  <ele>1583.0</ele>
  <time>2026-08-28T17:49:44Z</time>
  <course>10.2</course>
  <speed>0.0</speed>
  <fix>3d</fix>
</trkpt>
<trkpt lat="40.071327" lon="-105.2298811">
  <ele>1583.18</ele>
  <time>2026-08-28T17:49:44Z</time>
  <course>279.7</course>
  <speed>0.022360679774997897</speed>
  <fix>3d</fix>
</trkpt>
<trkpt lat="40.0713271" lon="-105.2298809">
  <ele>1583.0</ele>
  <time>2026-08-28T17:49:44Z</time>
  <course>10.2</course>
  <speed>0.0</speed>
  <fix>3d</fix>
</trkpt>
<trkpt lat="40.071327" lon="-105.2298811">
  <ele>1583.18</ele>
  <time>2026-08-28T17:49:44Z</time>
  <course>279.7</course>
  <speed>0.022360679774997897</speed>
  <fix>3d</fix>
</trkpt>
<trkpt lat="40.0713271" lon="-105.2298809">
  <ele>1583.0</ele>
  <time>2026-08-28T17:49:44Z</time>
  <course>10.2</course>
  <speed>0.0</speed>
  <fix>3d</fix>
</trkpt>
<trkpt lat="40.071327" lon="-105.2298811">
  <ele>1583.18</ele>
  <time>2026-08-28T17:49:44Z</time>
  <course>279.69</course>
  <speed>0.022360679774997897</speed>
  <fix>3d</fix>
</trkpt>
<trkpt lat="40.0713271" lon="-105.2298809">
  <ele>1583.0</ele>
  <time>2026-08-28T17:49:44Z</time>
  <course>10.2</course>
  <speed>0.0</speed>
  <fix>3d</fix>
</trkpt>
<trkpt lat="40.071327" lon="-105.2298811">
  <ele>1583.18</ele>
  <time>2026-08-28T17:49:44Z</time>
  <course>279.69</course>
  <speed>0.022360679774997897</speed>
  <fix>3d</fix>
</trkpt>
<trkpt lat="40.0713271" lon="-105.2298809">
  <ele>1583.0</ele>
  <time>2026-08-28T17:49:44Z</time>
  <course>10.2</course>
  <speed>0.0</speed>
  <fix>3d</fix>
</trkpt>
<trkpt lat="40.071327" lon="-105.2298811">
  <ele>1583.18</ele>
  <time>2026-08-28T17:49:44Z</time>
  <course>279.69</course>
  <speed>0.022360679774997897</speed>
  <fix>3d</fix>
</trkpt>
<trkpt lat="40.0713271" lon="-105.2298809">
  <ele>1583.0</ele>
  <time>2026-08-28T17:49:44Z</time>
  <course>10.2</course>
  <speed>0.0</speed>
  <fix>3d</fix>
</trkpt>
<trkpt lat="40.071327" lon="-105.2298811">
  <ele>1583.17</ele>
  <time>2026-08-28T17:49:44Z</time>
  <course>279.69</course>
  <speed>0.022360679774997897</speed>
  <fix>3d</fix>
</trkpt>
<trkpt lat="40.0713271" lon="-105.2298809">
  <ele>1583.0</ele>
  <time>2026-08-28T17:49:44Z</time>
  <course>10.2</course>
  <speed>0.0</speed>
  <fix>3d</fix>
</trkpt>
<trkpt lat="40.071327" lon="-105.2298811">
  <ele>1583.17</ele>
  <time>2026-08-28T17:49:44Z</time>
  <course>279.69</course>
  <speed>0.022360679774997897</speed>
  <fix>3d</fix>
</trkpt>
<trkpt lat="40.0713271" lon="-105.2298809">
  <ele>1583.0</ele>
  <time>2026-08-28T17:49:44Z</time>
  <course>10.2</course>
  <speed>0.0</speed>
  <fix>3d</fix>
</trkpt>
<trkpt lat="40.071327" lon="-105.2298811">
  <ele>1583.17</ele>
  <time>2026-08-28T17:49:44Z</time>
  <course>279.68</course>
  <speed>0.022360679774997897</speed>
  <fix>3d</fix>
</trkpt>
<trkpt lat="40.0713271" lon="-105.2298809">
  <ele>1583.0</ele>
  <time>2026-08-28T17:49:44Z</time>
  <course>10.2</course>
  <speed>0.0</speed>
  <fix>3d</fix>
</trkpt>
<trkpt lat="40.071327" lon="-105.2298811">
  <ele>1583.17</ele>
  <time>2026-08-28T17:49:44Z</time>
  <course>279.68</course>
  <speed>0.022360679774997897</speed>
  <fix>3d</fix>
</trkpt>
<trkpt lat="40.0713271" lon="-105.2298809">
  <ele>1583.0</ele>
  <time>2026-08-28T17:49:44Z</time>
  <course>10.2</course>
  <speed>0.0</speed>
  <fix>3d</fix>
</trkpt>
<trkpt lat="40.071327" lon="-105.2298811">
  <ele>1583.17</ele>
  <time>2026-08-28T17:49:44Z</time>
  <course>279.68</course>
  <speed>0.022360679774997897</speed>
  <fix>3d</fix>
</trkpt>
<trkpt lat="40.0713271" lon="-105.2298809">
  <ele>1583.0</ele>
  <time>2026-08-28T17:49:44Z</time>
  <course>10.2</course>
  <speed>0.0</speed>
  <fix>3d</fix>
</trkpt>
<trkpt lat="40.071327" lon="-105.2298811">
  <ele>1583.18</ele>
  <time>2026-08-28T17:49:44Z</time>
  <course>279.68</course>
  <speed>0.022360679774997897</speed>
  <fix>3d</fix>
</trkpt>
<trkpt lat="40.0713271" lon="-105.2298809">
  <ele>1583.0</ele>
  <time>2026-08-28T17:49:44Z</time>
  <course>10.2</course>
  <speed>0.0</speed>
  <fix>3d</fix>
</trkpt>
<trkpt lat="40.071327" lon="-105.2298811">
  <ele>1583.18</ele>
  <time>2026-08-28T17:49:44Z</time>
  <course>279.68</course>
  <speed>0.022360679774997897</speed>
  <fix>3d</fix>
</trkpt>
<trkpt lat="40.0713271" lon="-105.2298809">
  <ele>1583.0</ele>
  <time>2026-08-28T17:49:44Z</time>
  <course>10.2</course>
  <speed>0.0</speed>
  <fix>3d</fix>
</trkpt>
<trkpt lat="40.071327" lon="-105.2298811">
  <ele>1583.18</ele>
  <time>2026-08-28T17:49:44Z</time>
  <course>279.67</course>
  <speed>0.022360679774997897</speed>
  <fix>3d</fix>
</trkpt>
<trkpt lat="40.0713271" lon="-105.2298809">
  <ele>1583.0</ele>
  <time>2026-08-28T17:49:44Z</time>
  <course>10.2</course>
  <speed>0.0</speed>
  <fix>3d</fix>
</trkpt>
<trkpt lat="40.071327" lon="-105.2298811">
  <ele>1583.18</ele>
  <time>2026-08-28T17:49:44Z</time>
  <course>279.67</course>
  <speed>0.022360679774997897</speed>
  <fix>3d</fix>
</trkpt>
<trkpt lat="40.0713271" lon="-105.2298809">
  <ele>1583.0</ele>
  <time>2026-08-28T17:49:44Z</time>
  <course>10.2</course>
  <speed>0.0</speed>
  <fix>3d</fix>
</trkpt>
<trkpt lat="40.071327" lon="-105.2298811">
  <ele>1583.17</ele>
  <time>2026-08-28T17:49:44Z</time>
  <course>279.67</course>
  <speed>0.022360679774997897</speed>
  <fix>3d</fix>
</trkpt>
<trkpt lat="40.0713271" lon="-105.2298809">
  <ele>1583.0</ele>
  <time>2026-08-28T17:49:44Z</time>
  <course>10.2</course>
  <speed>0.0</speed>
  <fix>3d</fix>
</trkpt>
<trkpt lat="40.071327" lon="-105.2298811">
  <ele>1583.17</ele>
  <time>2026-08-28T17:49:44Z</time>
  <course>279.67</course>
  <speed>0.022360679774997897</speed>
  <fix>3d</fix>
</trkpt>
<trkpt lat="40.0713271" lon="-105.2298809">
  <ele>1583.0</ele>
  <time>2026-08-28T17:49:44Z</time>
  <course>10.2</course>
  <speed>0.0</speed>
  <fix>3d</fix>
</trkpt>
<trkpt lat="40.071327" lon="-105.2298811">
  <ele>1583.17</ele>
  <time>2026-08-28T17:49:44Z</time>
  <course>279.66</course>
  <speed>0.022360679774997897</speed>
  <fix>3d</fix>
</trkpt>
<trkpt lat="40.0713271" lon="-105.2298809">
  <ele>1583.0</ele>
  <time>2026-08-28T17:49:44Z</time>
  <course>10.2</course>
  <speed>0.0</speed>
  <fix>3d</fix>
</trkpt>
<trkpt lat="40.071327" lon="-105.2298811">
  <ele>1583.17</ele>
  <time>2026-08-28T17:49:44Z</time>
  <course>279.66</course>
  <speed>0.022360679774997897</speed>
  <fix>3d</fix>
</trkpt>
<trkpt lat="40.0713271" lon="-105.2298809">
  <ele>1583.0</ele>
  <time>2026-08-28T17:49:44Z</time>
  <course>10.2</course>
  <speed>0.0</speed>
  <fix>3d</fix>
</trkpt>
<trkpt lat="40.071327" lon="-105.2298811">
  <ele>1583.17</ele>
  <time>2026-08-28T17:49:44Z</time>
  <course>279.66</course>
  <speed>0.022360679774997897</speed>
  <fix>3d</fix>
</trkpt>
<trkpt lat="40.0713271" lon="-105.2298809">
  <ele>1583.0</ele>
  <time>2026-08-28T17:49:44Z</time>
  <course>10.2</course>
  <speed>0.0</speed>
  <fix>3d</fix>
</trkpt>
<trkpt lat="40.071327" lon="-105.2298811">
  <ele>1583.17</ele>
  <time>2026-08-28T17:49:44Z</time>
  <course>279.66</course>
  <speed>0.022360679774997897</speed>
  <fix>3d</fix>
</trkpt>
<trkpt lat="40.0713271" lon="-105.2298809">
  <ele>1583.0</ele>
  <time>2026-08-28T17:49:44Z</time>
  <course>10.2</course>
  <speed>0.0</speed>
  <fix>3d</fix>
</trkpt>
<trkpt lat="40.071327" lon="-105.2298811">
  <ele>1583.17</ele>
  <time>2026-08-28T17:49:44Z</time>
  <course>279.66</course>
  <speed>0.022360679774997897</speed>
  <fix>3d</fix>
</trkpt>
<trkpt lat="40.0713271" lon="-105.2298809">
  <ele>1583.0</ele>
  <time>2026-08-28T17:49:44Z</time>
  <course>10.2</course>
  <speed>0.0</speed>
  <fix>3d</fix>
</trkpt>
<trkpt lat="40.071327" lon="-105.2298811">
  <ele>1583.17</ele>
  <time>2026-08-28T17:49:44Z</time>
  <course>279.65</course>
  <speed>0.022360679774997897</speed>
  <fix>3d</fix>
</trkpt>
<trkpt lat="40.0713271" lon="-105.2298809">
  <ele>1583.0</ele>
  <time>2026-08-28T17:49:44Z</time>
  <course>10.2</course>
  <speed>0.0</speed>
  <fix>3d</fix>
</trkpt>
<trkpt lat="40.071327" lon="-105.2298811">
  <ele>1583.17</ele>
  <time>2026-08-28T17:49:44Z</time>
  <course>279.65</course>
  <speed>0.022360679774997897</speed>
  <fix>3d</fix>
</trkpt>
<trkpt lat="40.0713271" lon="-105.2298809">
  <ele>1583.0</ele>
  <time>2026-08-28T17:49:44Z</time>
  <course>10.2</course>
  <speed>0.0</speed>
  <fix>3d</fix>
</trkpt>
<trkpt lat="40.071327" lon="-105.2298811">
  <ele>1583.17</ele>
  <time>2026-08-28T17:49:44Z</time>
  <course>279.65</course>
  <speed>0.022360679774997897</speed>
  <fix>3d</fix>
</trkpt>
<trkpt lat="40.0713271" lon="-105.2298809">
  <ele>1583.0</ele>
  <time>2026-08-28T17:49:44Z</time>
  <course>10.2</course>
  <speed>0.0</speed>
  <fix>3d</fix>
</trkpt>
<trkpt lat="40.071327" lon="-105.2298811">
  <ele>1583.17</ele>
  <time>2026-08-28T17:49:44Z</time>
  <course>279.65</course>
  <speed>0.022360679774997897</speed>
  <fix>3d</fix>
</trkpt>
<trkpt lat="40.0713271" lon="-105.2298809">
  <ele>1583.0</ele>
  <time>2026-08-28T17:49:44Z</time>
  <course>10.2</course>
  <speed>0.0</speed>
  <fix>3d</fix>
</trkpt>
<trkpt lat="40.071327" lon="-105.2298811">
  <ele>1583.17</ele>
  <time>2026-08-28T17:49:44Z</time>
  <course>279.65</course>
  <speed>0.022360679774997897</speed>
  <fix>3d</fix>
</trkpt>
<trkpt lat="40.0713271" lon="-105.2298809">
  <ele>1583.0</ele>
  <time>2026-08-28T17:49:44Z</time>
  <course>10.2</course>
  <speed>0.0</speed>
  <fix>3d</fix>
</trkpt>
<trkpt lat="40.071327" lon="-105.2298811">
  <ele>1583.17</ele>
  <time>2026-08-28T17:49:44Z</time>
  <course>279.64</course>
  <speed>0.022360679774997897</speed>
  <fix>3d</fix>
</trkpt>
<trkpt lat="40.0713271" lon="-105.2298809">
  <ele>1583.0</ele>
  <time>2026-08-28T17:49:44Z</time>
  <course>10.2</course>
  <speed>0.0</speed>
  <fix>3d</fix>
</trkpt>
<trkpt lat="40.071327" lon="-105.2298811">
  <ele>1583.17</ele>
  <time>2026-08-28T17:49:44Z</time>
  <course>279.64</course>
  <speed>0.022360679774997897</speed>
  <fix>3d</fix>
</trkpt>
<trkpt lat="40.0713271" lon="-105.2298809">
  <ele>1583.0</ele>
  <time>2026-08-28T17:49:44Z</time>
  <course>10.2</course>
  <speed>0.0</speed>
  <fix>3d</fix>
</trkpt>
<trkpt lat="40.071327" lon="-105.2298811">
  <ele>1583.17</ele>
  <time>2026-08-28T17:49:44Z</time>
  <course>279.64</course>
  <speed>0.022360679774997897</speed>
  <fix>3d</fix>
</trkpt>
<trkpt lat="40.0713271" lon="-105.2298809">
  <ele>1583.0</ele>
  <time>2026-08-28T17:49:44Z</time>
  <course>10.2</course>
  <speed>0.0</speed>
  <fix>3d</fix>
</trkpt>
<trkpt lat="40.071327" lon="-105.2298811">
  <ele>1583.17</ele>
  <time>2026-08-28T17:49:44Z</time>
  <course>279.64</course>
  <speed>0.022360679774997897</speed>
  <fix>3d</fix>
</trkpt>
<trkpt lat="40.0713271" lon="-105.2298809">
  <ele>1583.0</ele>
  <time>2026-08-28T17:49:44Z</time>
  <course>10.2</course>
  <speed>0.0</speed>
  <fix>3d</fix>
</trkpt>
<trkpt lat="40.071327" lon="-105.2298811">
  <ele>1583.16</ele>
  <time>2026-08-28T17:49:44Z</time>
  <course>279.63</course>
  <speed>0.022360679774997897</speed>
  <fix>3d</fix>
</trkpt>
<trkpt lat="40.0713271" lon="-105.2298809">
  <ele>1583.0</ele>
  <time>2026-08-28T17:49:44Z</time>
  <course>10.2</course>
  <speed>0.0</speed>
  <fix>3d</fix>
</trkpt>
<trkpt lat="40.071327" lon="-105.2298811">
  <ele>1583.16</ele>
  <time>2026-08-28T17:49:44Z</time>
  <course>279.63</course>
  <speed>0.022360679774997897</speed>
  <fix>3d</fix>
</trkpt>
<trkpt lat="40.0713271" lon="-105.2298809">
  <ele>1583.0</ele>
  <time>2026-08-28T17:49:44Z</time>
  <course>10.2</course>
  <speed>0.0</speed>
  <fix>3d</fix>
</trkpt>
<trkpt lat="40.071327" lon="-105.2298811">
  <ele>1583.16</ele>
  <time>2026-08-28T17:49:44Z</time>
  <course>279.63</course>
  <speed>0.022360679774997897</speed>
  <fix>3d</fix>
</trkpt>
<trkpt lat="40.0713271" lon="-105.2298809">
  <ele>1583.0</ele>
  <time>2026-08-28T17:49:44Z</time>
  <course>10.2</course>
  <speed>0.0</speed>
  <fix>3d</fix>
</trkpt>
<trkpt lat="40.071327" lon="-105.2298811">
  <ele>1583.16</ele>
  <time>2026-08-28T17:49:44Z</time>
  <course>279.63</course>
  <speed>0.022360679774997897</speed>
  <fix>3d</fix>
</trkpt>
<trkpt lat="40.0713271" lon="-105.2298809">
  <ele>1583.0</ele>
  <time>2026-08-28T17:49:44Z</time>
  <course>10.2</course>
  <speed>0.0</speed>
  <fix>3d</fix>
</trkpt>
<trkpt lat="40.071327" lon="-105.2298811">
  <ele>1583.16</ele>
  <time>2026-08-28T17:49:44Z</time>
  <course>279.63</course>
  <speed>0.022360679774997897</speed>
  <fix>3d</fix>
</trkpt>
<trkpt lat="40.0713271" lon="-105.2298809">
  <ele>1583.0</ele>
  <time>2026-08-28T17:49:44Z</time>
  <course>10.2</course>
  <speed>0.0</speed>
  <fix>3d</fix>
</trkpt>
<trkpt lat="40.071327" lon="-105.2298811">
  <ele>1583.16</ele>
  <time>2026-08-28T17:49:44Z</time>
  <course>279.62</course>
  <speed>0.022360679774997897</speed>
  <fix>3d</fix>
</trkpt>
<trkpt lat="40.0713271" lon="-105.2298809">
  <ele>1583.0</ele>
  <time>2026-08-28T17:49:44Z</time>
  <course>10.2</course>
  <speed>0.0</speed>
  <fix>3d</fix>
</trkpt>
<trkpt lat="40.071327" lon="-105.2298811">
  <ele>1583.16</ele>
  <time>2026-08-28T17:49:44Z</time>
  <course>279.62</course>
  <speed>0.022360679774997897</speed>
  <fix>3d</fix>
</trkpt>
<trkpt lat="40.0713271" lon="-105.2298809">
  <ele>1583.0</ele>
  <time>2026-08-28T17:49:44Z</time>
  <course>10.2</course>
  <speed>0.0</speed>
  <fix>3d</fix>
</trkpt>
<trkpt lat="40.071327" lon="-105.2298811">
  <ele>1583.16</ele>
  <time>2026-08-28T17:49:44Z</time>
  <course>279.62</course>
  <speed>0.022360679774997897</speed>
  <fix>3d</fix>
</trkpt>
<trkpt lat="40.0713271" lon="-105.2298809">
  <ele>1583.0</ele>
  <time>2026-08-28T17:49:44Z</time>
  <course>10.2</course>
  <speed>0.0</speed>
  <fix>3d</fix>
</trkpt>
<trkpt lat="40.071327" lon="-105.2298811">
  <ele>1583.16</ele>
  <time>2026-08-28T17:49:44Z</time>
  <course>279.62</course>
  <speed>0.022360679774997897</speed>
  <fix>3d</fix>
</trkpt>
<trkpt lat="40.0713271" lon="-105.2298809">
  <ele>1583.0</ele>
  <time>2026-08-28T17:49:44Z</time>
  <course>10.2</course>
  <speed>0.0</speed>
  <fix>3d</fix>
</trkpt>
<trkpt lat="40.071327" lon="-105.2298811">
  <ele>1583.16</ele>
  <time>2026-08-28T17:49:44Z</time>
  <course>279.62</course>
  <speed>0.022360679774997897</speed>
  <fix>3d</fix>
</trkpt>
<trkpt lat="40.0713271" lon="-105.2298809">
  <ele>1583.0</ele>
  <time>2026-08-28T17:49:44Z</time>
  <course>10.2</course>
  <speed>0.0</speed>
  <fix>3d</fix>
</trkpt>
<trkpt lat="40.071327" lon="-105.2298811">
  <ele>1583.16</ele>
  <time>2026-08-28T17:49:44Z</time>
  <course>279.61</course>
  <speed>0.022360679774997897</speed>
  <fix>3d</fix>
</trkpt>
<trkpt lat="40.0713271" lon="-105.2298809">
  <ele>1583.0</ele>
  <time>2026-08-28T17:49:44Z</time>
  <course>10.2</course>
  <speed>0.0</speed>
  <fix>3d</fix>
</trkpt>
<trkpt lat="40.071327" lon="-105.2298811">
  <ele>1583.16</ele>
  <time>2026-08-28T17:49:44Z</time>
  <course>279.61</course>
  <speed>0.022360679774997897</speed>
  <fix>3d</fix>
</trkpt>
<trkpt lat="40.0713271" lon="-105.2298809">
  <ele>1583.0</ele>
  <time>2026-08-28T17:49:44Z</time>
  <course>10.2</course>
  <speed>0.0</speed>
  <fix>3d</fix>
</trkpt>
<trkpt lat="40.071327" lon="-105.2298811">
  <ele>1583.16</ele>
  <time>2026-08-28T17:49:44Z</time>
  <course>279.61</course>
  <speed>0.022360679774997897</speed>
  <fix>3d</fix>
</trkpt>
<trkpt lat="40.0713271" lon="-105.2298809">
  <ele>1583.0</ele>
  <time>2026-08-28T17:49:44Z</time>
  <course>10.2</course>
  <speed>0.0</speed>
  <fix>3d</fix>
</trkpt>
<trkpt lat="40.071327" lon="-105.2298811">
  <ele>1583.16</ele>
  <time>2026-08-28T17:49:44Z</time>
  <course>279.61</course>
  <speed>0.022360679774997897</speed>
  <fix>3d</fix>
</trkpt>
<trkpt lat="40.0713271" lon="-105.2298809">
  <ele>1583.0</ele>
  <time>2026-08-28T17:49:44Z</time>
  <course>10.2</course>
  <speed>0.0</speed>
  <fix>3d</fix>
</trkpt>
<trkpt lat="40.071327" lon="-105.2298811">
  <ele>1583.15</ele>
  <time>2026-08-28T17:49:44Z</time>
  <course>279.61</course>
  <speed>0.022360679774997897</speed>
  <fix>3d</fix>
</trkpt>
<trkpt lat="40.0713271" lon="-105.2298809">
  <ele>1583.0</ele>
  <time>2026-08-28T17:49:44Z</time>
  <course>10.2</course>
  <speed>0.0</speed>
  <fix>3d</fix>
</trkpt>
<trkpt lat="40.071327" lon="-105.2298811">
  <ele>1583.15</ele>
  <time>2026-08-28T17:49:44Z</time>
  <course>279.6</course>
  <speed>0.022360679774997897</speed>
  <fix>3d</fix>
</trkpt>
<trkpt lat="40.0713271" lon="-105.2298809">
  <ele>1583.0</ele>
  <time>2026-08-28T17:49:44Z</time>
  <course>10.2</course>
  <speed>0.0</speed>
  <fix>3d</fix>
</trkpt>
<trkpt lat="40.071327" lon="-105.2298811">
  <ele>1583.15</ele>
  <time>2026-08-28T17:49:44Z</time>
  <course>279.6</course>
  <speed>0.022360679774997897</speed>
  <fix>3d</fix>
</trkpt>
<trkpt lat="40.0713271" lon="-105.2298809">
  <ele>1583.0</ele>
  <time>2026-08-28T17:49:44Z</time>
  <course>10.2</course>
  <speed>0.0</speed>
  <fix>3d</fix>
</trkpt>
<trkpt lat="40.071327" lon="-105.2298811">
  <ele>1583.15</ele>
  <time>2026-08-28T17:49:44Z</time>
  <course>279.6</course>
  <speed>0.022360679774997897</speed>
  <fix>3d</fix>
</trkpt>
<trkpt lat="40.0713271" lon="-105.2298809">
  <ele>1583.0</ele>
  <time>2026-08-28T17:49:44Z</time>
  <course>10.2</course>
  <speed>0.0</speed>
  <fix>3d</fix>
</trkpt>
<trkpt lat="40.071327" lon="-105.2298811">
  <ele>1583.15</ele>
  <time>2026-08-28T17:49:44Z</time>
  <course>279.6</course>
  <speed>0.022360679774997897</speed>
  <fix>3d</fix>
</trkpt>
<trkpt lat="40.0713271" lon="-105.2298809">
  <ele>1583.0</ele>
  <time>2026-08-28T17:49:44Z</time>
  <course>10.2</course>
  <speed>0.0</speed>
  <fix>3d</fix>
</trkpt>
<trkpt lat="40.071327" lon="-105.2298811">
  <ele>1583.15</ele>
  <time>2026-08-28T17:49:44Z</time>
  <course>279.6</course>
  <speed>0.022360679774997897</speed>
  <fix>3d</fix>
</trkpt>
<trkpt lat="40.0713271" lon="-105.2298809">
  <ele>1583.0</ele>
  <time>2026-08-28T17:49:44Z</time>
  <course>10.2</course>
  <speed>0.0</speed>
  <fix>3d</fix>
</trkpt>
<trkpt lat="40.071327" lon="-105.2298811">
  <ele>1583.15</ele>
  <time>2026-08-28T17:49:44Z</time>
  <course>279.59</course>
  <speed>0.022360679774997897</speed>
  <fix>3d</fix>
</trkpt>
<trkpt lat="40.0713271" lon="-105.2298809">
  <ele>1583.0</ele>
  <time>2026-08-28T17:49:44Z</time>
  <course>10.2</course>
  <speed>0.0</speed>
  <fix>3d</fix>
</trkpt>
<trkpt lat="40.071327" lon="-105.2298811">
  <ele>1583.16</ele>
  <time>2026-08-28T17:49:44Z</time>
  <course>279.59</course>
  <speed>0.022360679774997897</speed>
  <fix>3d</fix>
</trkpt>
<trkpt lat="40.0713271" lon="-105.2298809">
  <ele>1583.0</ele>
  <time>2026-08-28T17:49:44Z</time>
  <course>10.2</course>
  <speed>0.0</speed>
  <fix>3d</fix>
</trkpt>
<trkpt lat="40.071327" lon="-105.2298811">
  <ele>1583.16</ele>
  <time>2026-08-28T17:49:44Z</time>
  <course>279.59</course>
  <speed>0.022360679774997897</speed>
  <fix>3d</fix>
</trkpt>
<trkpt lat="40.0713271" lon="-105.2298809">
  <ele>1583.0</ele>
  <time>2026-08-28T17:49:44Z</time>
  <course>10.2</course>
  <speed>0.0</speed>
  <fix>3d</fix>
</trkpt>
<trkpt lat="40.071327" lon="-105.2298811">
  <ele>1583.17</ele>
  <time>2026-08-28T17:49:44Z</time>
  <course>279.59</course>
  <speed>0.022360679774997897</speed>
  <fix>3d</fix>
</trkpt>
<trkpt lat="40.0713271" lon="-105.2298809">
  <ele>1583.0</ele>
  <time>2026-08-28T17:49:44Z</time>
  <course>10.2</course>
  <speed>0.0</speed>
  <fix>3d</fix>
</trkpt>
<trkpt lat="40.071327" lon="-105.2298811">
  <ele>1583.17</ele>
  <time>2026-08-28T17:49:44Z</time>
  <course>279.59</course>
  <speed>0.022360679774997897</speed>
  <fix>3d</fix>
</trkpt>
<trkpt lat="40.0713271" lon="-105.2298809">
  <ele>1583.0</ele>
  <time>2026-08-28T17:49:44Z</time>
  <course>10.2</course>
  <speed>0.0</speed>
  <fix>3d</fix>
</trkpt>
<trkpt lat="40.071327" lon="-105.2298811">
  <ele>1583.17</ele>
  <time>2026-08-28T17:49:44Z</time>
  <course>279.58</course>
  <speed>0.022360679774997897</speed>
  <fix>3d</fix>
</trkpt>
<trkpt lat="40.0713271" lon="-105.2298809">
  <ele>1583.0</ele>
  <time>2026-08-28T17:49:44Z</time>
  <course>10.2</course>
  <speed>0.0</speed>
  <fix>3d</fix>
</trkpt>
<trkpt lat="40.071327" lon="-105.2298811">
  <ele>1583.17</ele>
  <time>2026-08-28T17:49:44Z</time>
  <course>279.58</course>
  <speed>0.022360679774997897</speed>
  <fix>3d</fix>
</trkpt>
<trkpt lat="40.0713271" lon="-105.2298809">
  <ele>1583.0</ele>
  <time>2026-08-28T17:49:44Z</time>
  <course>10.2</course>
  <speed>0.0</speed>
  <fix>3d</fix>
</trkpt>
<trkpt lat="40.071327" lon="-105.2298811">
  <ele>1583.17</ele>
  <time>2026-08-28T17:49:44Z</time>
  <course>279.58</course>
  <speed>0.022360679774997897</speed>
  <fix>3d</fix>
</trkpt>
<trkpt lat="40.0713271" lon="-105.2298809">
  <ele>1583.0</ele>
  <time>2026-08-28T17:49:44Z</time>
  <course>10.2</course>
  <speed>0.0</speed>
  <fix>3d</fix>
</trkpt>
<trkpt lat="40.071327" lon="-105.2298811">
  <ele>1583.18</ele>
  <time>2026-08-28T17:49:44Z</time>
  <course>279.58</course>
  <speed>0.022360679774997897</speed>
  <fix>3d</fix>
</trkpt>
<trkpt lat="40.0713271" lon="-105.2298809">
  <ele>1583.0</ele>
  <time>2026-08-28T17:49:44Z</time>
  <course>10.2</course>
  <speed>0.0</speed>
  <fix>3d</fix>
</trkpt>
<trkpt lat="40.071327" lon="-105.2298811">
  <ele>1583.18</ele>
  <time>2026-08-28T17:49:44Z</time>
  <course>279.58</course>
  <speed>0.022360679774997897</speed>
  <fix>3d</fix>
</trkpt>
<trkpt lat="40.0713271" lon="-105.2298809">
  <ele>1583.0</ele>
  <time>2026-08-28T17:49:44Z</time>
  <course>10.2</course>
  <speed>0.0</speed>
  <fix>3d</fix>
</trkpt>
<trkpt lat="40.071327" lon="-105.2298811">
  <ele>1583.18</ele>
  <time>2026-08-28T17:49:44Z</time>
  <course>279.57</course>
  <speed>0.022360679774997897</speed>
  <fix>3d</fix>
</trkpt>
<trkpt lat="40.0713271" lon="-105.2298809">
  <ele>1583.0</ele>
  <time>2026-08-28T17:49:44Z</time>
  <course>10.2</course>
  <speed>0.0</speed>
  <fix>3d</fix>
</trkpt>
<trkpt lat="40.071327" lon="-105.2298811">
  <ele>1583.17</ele>
  <time>2026-08-28T17:49:44Z</time>
  <course>279.57</course>
  <speed>0.022360679774997897</speed>
  <fix>3d</fix>
</trkpt>
<trkpt lat="40.0713271" lon="-105.2298809">
  <ele>1583.0</ele>
  <time>2026-08-28T17:49:44Z</time>
  <course>10.2</course>
  <speed>0.0</speed>
  <fix>3d</fix>
</trkpt>
<trkpt lat="40.071327" lon="-105.2298811">
  <ele>1583.17</ele>
  <time>2026-08-28T17:49:44Z</time>
  <course>279.57</course>
  <speed>0.022360679774997897</speed>
  <fix>3d</fix>
</trkpt>
<trkpt lat="40.0713271" lon="-105.2298809">
  <ele>1583.0</ele>
  <time>2026-08-28T17:49:44Z</time>
  <course>10.2</course>
  <speed>0.0</speed>
  <fix>3d</fix>
</trkpt>
<trkpt lat="40.071327" lon="-105.2298811">
  <ele>1583.17</ele>
  <time>2026-08-28T17:49:44Z</time>
  <course>279.57</course>
  <speed>0.022360679774997897</speed>
  <fix>3d</fix>
</trkpt>
<trkpt lat="40.0713271" lon="-105.2298809">
  <ele>1583.0</ele>
  <time>2026-08-28T17:49:44Z</time>
  <course>10.2</course>
  <speed>0.0</speed>
  <fix>3d</fix>
</trkpt>
<trkpt lat="40.071327" lon="-105.2298811">
  <ele>1583.17</ele>
  <time>2026-08-28T17:49:44Z</time>
  <course>279.57</course>
  <speed>0.022360679774997897</speed>
  <fix>3d</fix>
</trkpt>
<trkpt lat="40.0713271" lon="-105.2298809">
  <ele>1583.0</ele>
  <time>2026-08-28T17:49:44Z</time>
  <course>10.2</course>
  <speed>0.0</speed>
  <fix>3d</fix>
</trkpt>
<trkpt lat="40.071327" lon="-105.2298811">
  <ele>1583.17</ele>
  <time>2026-08-28T17:49:44Z</time>
  <course>279.56</course>
  <speed>0.022360679774997897</speed>
  <fix>3d</fix>
</trkpt>
<trkpt lat="40.0713271" lon="-105.2298809">
  <ele>1583.0</ele>
  <time>2026-08-28T17:49:44Z</time>
  <course>10.2</course>
  <speed>0.0</speed>
  <fix>3d</fix>
</trkpt>
<trkpt lat="40.071327" lon="-105.2298811">
  <ele>1583.18</ele>
  <time>2026-08-28T17:49:44Z</time>
  <course>279.56</course>
  <speed>0.022360679774997897</speed>
  <fix>3d</fix>
</trkpt>
<trkpt lat="40.0713271" lon="-105.2298809">
  <ele>1583.0</ele>
  <time>2026-08-28T17:49:44Z</time>
  <course>10.2</course>
  <speed>0.0</speed>
  <fix>3d</fix>
</trkpt>
<trkpt lat="40.071327" lon="-105.2298811">
  <ele>1583.18</ele>
  <time>2026-08-28T17:49:44Z</time>
  <course>279.56</course>
  <speed>0.022360679774997897</speed>
  <fix>3d</fix>
</trkpt>
<trkpt lat="40.0713271" lon="-105.2298809">
  <ele>1583.0</ele>
  <time>2026-08-28T17:49:44Z</time>
  <course>10.2</course>
  <speed>0.0</speed>
  <fix>3d</fix>
</trkpt>
<trkpt lat="40.071327" lon="-105.2298811">
  <ele>1583.18</ele>
  <time>2026-08-28T17:49:44Z</time>
  <course>279.56</course>
  <speed>0.022360679774997897</speed>
  <fix>3d</fix>
</trkpt>
<trkpt lat="40.0713271" lon="-105.2298809">
  <ele>1583.0</ele>
  <time>2026-08-28T17:49:44Z</time>
  <course>10.2</course>
  <speed>0.0</speed>
  <fix>3d</fix>
</trkpt>
<trkpt lat="40.071327" lon="-105.2298811">
  <ele>1583.18</ele>
  <time>2026-08-28T17:49:44Z</time>
  <course>279.56</course>
  <speed>0.022360679774997897</speed>
  <fix>3d</fix>
</trkpt>
<trkpt lat="40.0713271" lon="-105.2298809">
  <ele>1583.0</ele>
  <time>2026-08-28T17:49:44Z</time>
  <course>10.2</course>
  <speed>0.0</speed>
  <fix>3d</fix>
</trkpt>
<trkpt lat="40.071327" lon="-105.2298811">
  <ele>1583.19</ele>
  <time>2026-08-28T17:49:44Z</time>
  <course>279.56</course>
  <speed>0.022360679774997897</speed>
  <fix>3d</fix>
</trkpt>
<trkpt lat="40.0713271" lon="-105.2298809">
  <ele>1583.0</ele>
  <time>2026-08-28T17:49:44Z</time>
  <course>10.2</course>
  <speed>0.0</speed>
  <fix>3d</fix>
</trkpt>
<trkpt lat="40.071327" lon="-105.2298811">
  <ele>1583.19</ele>
  <time>2026-08-28T17:49:44Z</time>
  <course>279.55</course>
  <speed>0.022360679774997897</speed>
  <fix>3d</fix>
</trkpt>
<trkpt lat="40.0713271" lon="-105.2298809">
  <ele>1583.0</ele>
  <time>2026-08-28T17:49:44Z</time>
  <course>10.2</course>
  <speed>0.0</speed>
  <fix>3d</fix>
</trkpt>
<trkpt lat="40.071327" lon="-105.2298811">
  <ele>1583.19</ele>
  <time>2026-08-28T17:49:44Z</time>
  <course>279.55</course>
  <speed>0.022360679774997897</speed>
  <fix>3d</fix>
</trkpt>
<trkpt lat="40.0713271" lon="-105.2298809">
  <ele>1583.0</ele>
  <time>2026-08-28T17:49:44Z</time>
  <course>10.2</course>
  <speed>0.0</speed>
  <fix>3d</fix>
</trkpt>
<trkpt lat="40.071327" lon="-105.2298811">
  <ele>1583.19</ele>
  <time>2026-08-28T17:49:44Z</time>
  <course>279.55</course>
  <speed>0.022360679774997897</speed>
  <fix>3d</fix>
</trkpt>
<trkpt lat="40.0713271" lon="-105.2298809">
  <ele>1583.0</ele>
  <time>2026-08-28T17:49:44Z</time>
  <course>10.2</course>
  <speed>0.0</speed>
  <fix>3d</fix>
</trkpt>
<trkpt lat="40.071327" lon="-105.2298811">
  <ele>1583.19</ele>
  <time>2026-08-28T17:49:44Z</time>
  <course>279.55</course>
  <speed>0.022360679774997897</speed>
  <fix>3d</fix>
</trkpt>
<trkpt lat="40.0713271" lon="-105.2298809">
  <ele>1583.0</ele>
  <time>2026-08-28T17:49:44Z</time>
  <course>10.2</course>
  <speed>0.0</speed>
  <fix>3d</fix>
</trkpt>
<trkpt lat="40.071327" lon="-105.2298811">
  <ele>1583.19</ele>
  <time>2026-08-28T17:49:44Z</time>
  <course>279.55</course>
  <speed>0.022360679774997897</speed>
  <fix>3d</fix>
</trkpt>
<trkpt lat="40.0713271" lon="-105.2298809">
  <ele>1583.0</ele>
  <time>2026-08-28T17:49:44Z</time>
  <course>10.2</course>
  <speed>0.0</speed>
  <fix>3d</fix>
</trkpt>
<trkpt lat="40.071327" lon="-105.2298811">
  <ele>1583.2</ele>
  <time>2026-08-28T17:49:44Z</time>
  <course>279.54</course>
  <speed>0.022360679774997897</speed>
  <fix>3d</fix>
</trkpt>
<trkpt lat="40.0713271" lon="-105.2298809">
  <ele>1583.0</ele>
  <time>2026-08-28T17:49:44Z</time>
  <course>10.2</course>
  <speed>0.0</speed>
  <fix>3d</fix>
</trkpt>
<trkpt lat="40.071327" lon="-105.2298811">
  <ele>1583.2</ele>
  <time>2026-08-28T17:49:44Z</time>
  <course>279.54</course>
  <speed>0.022360679774997897</speed>
  <fix>3d</fix>
</trkpt>
<trkpt lat="40.0713271" lon="-105.2298809">
  <ele>1583.0</ele>
  <time>2026-08-28T17:49:44Z</time>
  <course>10.2</course>
  <speed>0.0</speed>
  <fix>3d</fix>
</trkpt>
<trkpt lat="40.071327" lon="-105.2298811">
  <ele>1583.2</ele>
  <time>2026-08-28T17:49:44Z</time>
  <course>279.54</course>
  <speed>0.022360679774997897</speed>
  <fix>3d</fix>
</trkpt>
<trkpt lat="40.0713271" lon="-105.2298809">
  <ele>1583.0</ele>
  <time>2026-08-28T17:49:44Z</time>
  <course>10.2</course>
  <speed>0.0</speed>
  <fix>3d</fix>
</trkpt>
<trkpt lat="40.071327" lon="-105.2298811">
  <ele>1583.2</ele>
  <time>2026-08-28T17:49:44Z</time>
  <course>279.54</course>
  <speed>0.022360679774997897</speed>
  <fix>3d</fix>
</trkpt>
<trkpt lat="40.0713271" lon="-105.2298809">
  <ele>1583.0</ele>
  <time>2026-08-28T17:49:44Z</time>
  <course>10.2</course>
  <speed>0.0</speed>
  <fix>3d</fix>
</trkpt>
<trkpt lat="40.071327" lon="-105.2298811">
  <ele>1583.2</ele>
  <time>2026-08-28T17:49:44Z</time>
  <course>279.54</course>
  <speed>0.022360679774997897</speed>
  <fix>3d</fix>
</trkpt>
<trkpt lat="40.0713271" lon="-105.2298809">
  <ele>1583.0</ele>
  <time>2026-08-28T17:49:44Z</time>
  <course>10.2</course>
  <speed>0.0</speed>
  <fix>3d</fix>
</trkpt>
<trkpt lat="40.071327" lon="-105.2298811">
  <ele>1583.19</ele>
  <time>2026-08-28T17:49:44Z</time>
  <course>279.53</course>
  <speed>0.022360679774997897</speed>
  <fix>3d</fix>
</trkpt>
<trkpt lat="40.0713271" lon="-105.2298809">
  <ele>1583.0</ele>
  <time>2026-08-28T17:49:44Z</time>
  <course>10.2</course>
  <speed>0.0</speed>
  <fix>3d</fix>
</trkpt>
<trkpt lat="40.071327" lon="-105.2298811">
  <ele>1583.19</ele>
  <time>2026-08-28T17:49:44Z</time>
  <course>279.53</course>
  <speed>0.022360679774997897</speed>
  <fix>3d</fix>
</trkpt>
<trkpt lat="40.0713271" lon="-105.2298809">
  <ele>1583.0</ele>
  <time>2026-08-28T17:49:44Z</time>
  <course>10.2</course>
  <speed>0.0</speed>
  <fix>3d</fix>
</trkpt>
<trkpt lat="40.071327" lon="-105.2298811">
  <ele>1583.19</ele>
  <time>2026-08-28T17:49:44Z</time>
  <course>279.53</course>
  <speed>0.022360679774997897</speed>
  <fix>3d</fix>
</trkpt>
<trkpt lat="40.0713271" lon="-105.2298809">
  <ele>1583.0</ele>
  <time>2026-08-28T17:49:44Z</time>
  <course>10.2</course>
  <speed>0.0</speed>
  <fix>3d</fix>
</trkpt>
<trkpt lat="40.071327" lon="-105.2298811">
  <ele>1583.19</ele>
  <time>2026-08-28T17:49:44Z</time>
  <course>279.53</course>
  <speed>0.022360679774997897</speed>
  <fix>3d</fix>
</trkpt>
<trkpt lat="40.0713271" lon="-105.2298809">
  <ele>1583.0</ele>
  <time>2026-08-28T17:49:44Z</time>
  <course>10.2</course>
  <speed>0.0</speed>
  <fix>3d</fix>
</trkpt>
<trkpt lat="40.071327" lon="-105.2298811">
  <ele>1583.19</ele>
  <time>2026-08-28T17:49:44Z</time>
  <course>279.53</course>
  <speed>0.022360679774997897</speed>
  <fix>3d</fix>
</trkpt>
<trkpt lat="40.0713271" lon="-105.2298809">
  <ele>1583.0</ele>
  <time>2026-08-28T17:49:44Z</time>
  <course>10.2</course>
  <speed>0.0</speed>
  <fix>3d</fix>
</trkpt>
<trkpt lat="40.071327" lon="-105.2298811">
  <ele>1583.19</ele>
  <time>2026-08-28T17:49:44Z</time>
  <course>279.53</course>
  <speed>0.022360679774997897</speed>
  <fix>3d</fix>
</trkpt>
<trkpt lat="40.0713271" lon="-105.2298809">
  <ele>1583.0</ele>
  <time>2026-08-28T17:49:44Z</time>
  <course>10.2</course>
  <speed>0.0</speed>
  <fix>3d</fix>
</trkpt>
<trkpt lat="40.071327" lon="-105.2298811">
  <ele>1583.19</ele>
  <time>2026-08-28T17:49:44Z</time>
  <course>279.52</course>
  <speed>0.022360679774997897</speed>
  <fix>3d</fix>
</trkpt>
<trkpt lat="40.0713271" lon="-105.2298809">
  <ele>1583.0</ele>
  <time>2026-08-28T17:49:44Z</time>
  <course>10.2</course>
  <speed>0.0</speed>
  <fix>3d</fix>
</trkpt>
<trkpt lat="40.071327" lon="-105.2298811">
  <ele>1583.19</ele>
  <time>2026-08-28T17:49:44Z</time>
  <course>279.52</course>
  <speed>0.022360679774997897</speed>
  <fix>3d</fix>
</trkpt>
<trkpt lat="40.0713271" lon="-105.2298809">
  <ele>1583.0</ele>
  <time>2026-08-28T17:49:44Z</time>
  <course>10.2</course>
  <speed>0.0</speed>
  <fix>3d</fix>
</trkpt>
<trkpt lat="40.071327" lon="-105.2298811">
  <ele>1583.19</ele>
  <time>2026-08-28T17:49:44Z</time>
  <course>279.52</course>
  <speed>0.022360679774997897</speed>
  <fix>3d</fix>
</trkpt>
<trkpt lat="40.0713271" lon="-105.2298809">
  <ele>1583.0</ele>
  <time>2026-08-28T17:49:44Z</time>
  <course>10.2</course>
  <speed>0.0</speed>
  <fix>3d</fix>
</trkpt>
<trkpt lat="40.071327" lon="-105.2298811">
  <ele>1583.2</ele>
  <time>2026-08-28T17:49:44Z</time>
  <course>279.52</course>
  <speed>0.022360679774997897</speed>
  <fix>3d</fix>
</trkpt>
<trkpt lat="40.0713271" lon="-105.2298809">
  <ele>1583.0</ele>
  <time>2026-08-28T17:49:44Z</time>
  <course>10.2</course>
  <speed>0.0</speed>
  <fix>3d</fix>
</trkpt>
<trkpt lat="40.071327" lon="-105.2298811">
  <ele>1583.2</ele>
  <time>2026-08-28T17:49:44Z</time>
  <course>279.52</course>
  <speed>0.022360679774997897</speed>
  <fix>3d</fix>
</trkpt>
<trkpt lat="40.0713271" lon="-105.2298809">
  <ele>1583.0</ele>
  <time>2026-08-28T17:49:44Z</time>
  <course>10.2</course>
  <speed>0.0</speed>
  <fix>3d</fix>
</trkpt>
<trkpt lat="40.071327" lon="-105.2298811">
  <ele>1583.2</ele>
  <time>2026-08-28T17:49:44Z</time>
  <course>279.51</course>
  <speed>0.022360679774997897</speed>
  <fix>3d</fix>
</trkpt>
<trkpt lat="40.0713271" lon="-105.2298809">
  <ele>1583.0</ele>
  <time>2026-08-28T17:49:44Z</time>
  <course>10.2</course>
  <speed>0.0</speed>
  <fix>3d</fix>
</trkpt>
<trkpt lat="40.071327" lon="-105.2298811">
  <ele>1583.21</ele>
  <time>2026-08-28T17:49:44Z</time>
  <course>279.51</course>
  <speed>0.022360679774997897</speed>
  <fix>3d</fix>
</trkpt>
<trkpt lat="40.0713271" lon="-105.2298809">
  <ele>1583.0</ele>
  <time>2026-08-28T17:49:44Z</time>
  <course>10.2</course>
  <speed>0.0</speed>
  <fix>3d</fix>
</trkpt>
<trkpt lat="40.071327" lon="-105.2298811">
  <ele>1583.21</ele>
  <time>2026-08-28T17:49:44Z</time>
  <course>279.51</course>
  <speed>0.022360679774997897</speed>
  <fix>3d</fix>
</trkpt>
<trkpt lat="40.0713271" lon="-105.2298809">
  <ele>1583.0</ele>
  <time>2026-08-28T17:49:44Z</time>
  <course>10.2</course>
  <speed>0.0</speed>
  <fix>3d</fix>
</trkpt>
<trkpt lat="40.071327" lon="-105.2298811">
  <ele>1583.22</ele>
  <time>2026-08-28T17:49:44Z</time>
  <course>279.51</course>
  <speed>0.022360679774997897</speed>
  <fix>3d</fix>
</trkpt>
<trkpt lat="40.0713271" lon="-105.2298809">
  <ele>1583.0</ele>
  <time>2026-08-28T17:49:44Z</time>
  <course>10.2</course>
  <speed>0.0</speed>
  <fix>3d</fix>
</trkpt>
<trkpt lat="40.071327" lon="-105.2298811">
  <ele>1583.22</ele>
  <time>2026-08-28T17:49:44Z</time>
  <course>279.51</course>
  <speed>0.022360679774997897</speed>
  <fix>3d</fix>
</trkpt>
<trkpt lat="40.0713271" lon="-105.2298809">
  <ele>1583.0</ele>
  <time>2026-08-28T17:49:44Z</time>
  <course>10.2</course>
  <speed>0.0</speed>
  <fix>3d</fix>
</trkpt>
<trkpt lat="40.071327" lon="-105.2298811">
  <ele>1583.23</ele>
  <time>2026-08-28T17:49:44Z</time>
  <course>279.51</course>
  <speed>0.022360679774997897</speed>
  <fix>3d</fix>
</trkpt>
<trkpt lat="40.0713271" lon="-105.2298809">
  <ele>1583.0</ele>
  <time>2026-08-28T17:49:44Z</time>
  <course>10.2</course>
  <speed>0.0</speed>
  <fix>3d</fix>
</trkpt>
<trkpt lat="40.071327" lon="-105.2298811">
  <ele>1583.23</ele>
  <time>2026-08-28T17:49:44Z</time>
  <course>279.5</course>
  <speed>0.022360679774997897</speed>
  <fix>3d</fix>
</trkpt>
<trkpt lat="40.0713271" lon="-105.2298809">
  <ele>1583.0</ele>
  <time>2026-08-28T17:49:44Z</time>
  <course>10.2</course>
  <speed>0.0</speed>
  <fix>3d</fix>
</trkpt>
<trkpt lat="40.071327" lon="-105.2298811">
  <ele>1583.23</ele>
  <time>2026-08-28T17:49:44Z</time>
  <course>279.5</course>
  <speed>0.022360679774997897</speed>
  <fix>3d</fix>
</trkpt>
<trkpt lat="40.0713271" lon="-105.2298809">
  <ele>1583.0</ele>
  <time>2026-08-28T17:49:44Z</time>
  <course>10.2</course>
  <speed>0.0</speed>
  <fix>3d</fix>
</trkpt>
<trkpt lat="40.071327" lon="-105.2298811">
  <ele>1583.23</ele>
  <time>2026-08-28T17:49:44Z</time>
  <course>279.5</course>
  <speed>0.022360679774997897</speed>
  <fix>3d</fix>
</trkpt>
<trkpt lat="40.0713271" lon="-105.2298809">
  <ele>1583.0</ele>
  <time>2026-08-28T17:49:44Z</time>
  <course>10.2</course>
  <speed>0.0</speed>
  <fix>3d</fix>
</trkpt>
<trkpt lat="40.071327" lon="-105.2298811">
  <ele>1583.23</ele>
  <time>2026-08-28T17:49:44Z</time>
  <course>279.5</course>
  <speed>0.022360679774997897</speed>
  <fix>3d</fix>
</trkpt>
<trkpt lat="40.0713271" lon="-105.2298809">
  <ele>1583.0</ele>
  <time>2026-08-28T17:49:44Z</time>
  <course>10.2</course>
  <speed>0.0</speed>
  <fix>3d</fix>
</trkpt>
<trkpt lat="40.071327" lon="-105.2298811">
  <ele>1583.23</ele>
  <time>2026-08-28T17:49:44Z</time>
  <course>279.5</course>
  <speed>0.022360679774997897</speed>
  <fix>3d</fix>
</trkpt>
<trkpt lat="40.0713271" lon="-105.2298809">
  <ele>1583.0</ele>
  <time>2026-08-28T17:49:44Z</time>
  <course>10.2</course>
  <speed>0.0</speed>
  <fix>3d</fix>
</trkpt>
<trkpt lat="40.071327" lon="-105.2298811">
  <ele>1583.23</ele>
  <time>2026-08-28T17:49:44Z</time>
  <course>279.49</course>
  <speed>0.022360679774997897</speed>
  <fix>3d</fix>
</trkpt>
<trkpt lat="40.0713271" lon="-105.2298809">
  <ele>1583.0</ele>
  <time>2026-08-28T17:49:44Z</time>
  <course>10.2</course>
  <speed>0.0</speed>
  <fix>3d</fix>
</trkpt>
<trkpt lat="40.071327" lon="-105.2298811">
  <ele>1583.23</ele>
  <time>2026-08-28T17:49:44Z</time>
  <course>279.49</course>
  <speed>0.022360679774997897</speed>
  <fix>3d</fix>
</trkpt>
<trkpt lat="40.0713271" lon="-105.2298809">
  <ele>1583.0</ele>
  <time>2026-08-28T17:49:44Z</time>
  <course>10.2</course>
  <speed>0.0</speed>
  <fix>3d</fix>
</trkpt>
<trkpt lat="40.071327" lon="-105.2298811">
  <ele>1583.23</ele>
  <time>2026-08-28T17:49:44Z</time>
  <course>279.49</course>
  <speed>0.022360679774997897</speed>
  <fix>3d</fix>
</trkpt>
<trkpt lat="40.0713271" lon="-105.2298809">
  <ele>1583.0</ele>
  <time>2026-08-28T17:49:44Z</time>
  <course>10.2</course>
  <speed>0.0</speed>
  <fix>3d</fix>
</trkpt>
<trkpt lat="40.071327" lon="-105.2298811">
  <ele>1583.23</ele>
  <time>2026-08-28T17:49:44Z</time>
  <course>279.49</course>
  <speed>0.022360679774997897</speed>
  <fix>3d</fix>
</trkpt>
<trkpt lat="40.0713271" lon="-105.2298809">
  <ele>1583.0</ele>
  <time>2026-08-28T17:49:44Z</time>
  <course>10.2</course>
  <speed>0.0</speed>
  <fix>3d</fix>
</trkpt>
<trkpt lat="40.071327" lon="-105.2298811">
  <ele>1583.23</ele>
  <time>2026-08-28T17:49:44Z</time>
  <course>279.49</course>
  <speed>0.022360679774997897</speed>
  <fix>3d</fix>
</trkpt>
<trkpt lat="40.0713271" lon="-105.2298809">
  <ele>1583.0</ele>
  <time>2026-08-28T17:49:44Z</time>
  <course>10.2</course>
  <speed>0.0</speed>
  <fix>3d</fix>
</trkpt>
<trkpt lat="40.071327" lon="-105.2298811">
  <ele>1583.23</ele>
  <time>2026-08-28T17:49:44Z</time>
  <course>279.49</course>
  <speed>0.022360679774997897</speed>
  <fix>3d</fix>
</trkpt>
<trkpt lat="40.0713271" lon="-105.2298809">
  <ele>1583.0</ele>
  <time>2026-08-28T17:49:44Z</time>
  <course>10.2</course>
  <speed>0.0</speed>
  <fix>3d</fix>
</trkpt>
<trkpt lat="40.071327" lon="-105.2298811">
  <ele>1583.23</ele>
  <time>2026-08-28T17:49:44Z</time>
  <course>279.48</course>
  <speed>0.022360679774997897</speed>
  <fix>3d</fix>
</trkpt>
<trkpt lat="40.0713271" lon="-105.2298809">
  <ele>1583.0</ele>
  <time>2026-08-28T17:49:44Z</time>
  <course>10.2</course>
  <speed>0.0</speed>
  <fix>3d</fix>
</trkpt>
<trkpt lat="40.071327" lon="-105.2298811">
  <ele>1583.23</ele>
  <time>2026-08-28T17:49:44Z</time>
  <course>279.48</course>
  <speed>0.022360679774997897</speed>
  <fix>3d</fix>
</trkpt>
<trkpt lat="40.0713271" lon="-105.2298809">
  <ele>1583.0</ele>
  <time>2026-08-28T17:49:44Z</time>
  <course>10.2</course>
  <speed>0.0</speed>
  <fix>3d</fix>
</trkpt>
<trkpt lat="40.071327" lon="-105.2298811">
  <ele>1583.23</ele>
  <time>2026-08-28T17:49:44Z</time>
  <course>279.48</course>
  <speed>0.022360679774997897</speed>
  <fix>3d</fix>
</trkpt>
<trkpt lat="40.0713271" lon="-105.2298809">
  <ele>1583.0</ele>
  <time>2026-08-28T17:49:44Z</time>
  <course>10.2</course>
  <speed>0.0</speed>
  <fix>3d</fix>
</trkpt>
<trkpt lat="40.071327" lon="-105.2298811">
  <ele>1583.22</ele>
  <time>2026-08-28T17:49:44Z</time>
  <course>279.48</course>
  <speed>0.022360679774997897</speed>
  <fix>3d</fix>
</trkpt>
<trkpt lat="40.0713271" lon="-105.2298809">
  <ele>1583.0</ele>
  <time>2026-08-28T17:49:44Z</time>
  <course>10.2</course>
  <speed>0.0</speed>
  <fix>3d</fix>
</trkpt>
<trkpt lat="40.071327" lon="-105.2298811">
  <ele>1583.22</ele>
  <time>2026-08-28T17:49:44Z</time>
  <course>279.48</course>
  <speed>0.022360679774997897</speed>
  <fix>3d</fix>
</trkpt>
<trkpt lat="40.0713271" lon="-105.2298809">
  <ele>1583.0</ele>
  <time>2026-08-28T17:49:44Z</time>
  <course>10.2</course>
  <speed>0.0</speed>
  <fix>3d</fix>
</trkpt>
<trkpt lat="40.071327" lon="-105.2298811">
  <ele>1583.22</ele>
  <time>2026-08-28T17:49:44Z</time>
  <course>279.48</course>
  <speed>0.022360679774997897</speed>
  <fix>3d</fix>
</trkpt>
<trkpt lat="40.0713271" lon="-105.2298809">
  <ele>1583.0</ele>
  <time>2026-08-28T17:49:44Z</time>
  <course>10.2</course>
  <speed>0.0</speed>
  <fix>3d</fix>
</trkpt>
<trkpt lat="40.071327" lon="-105.2298811">
  <ele>1583.22</ele>
  <time>2026-08-28T17:49:44Z</time>
  <course>279.47</course>
  <speed>0.022360679774997897</speed>
  <fix>3d</fix>
</trkpt>
<trkpt lat="40.0713271" lon="-105.2298809">
  <ele>1583.0</ele>
  <time>2026-08-28T17:49:44Z</time>
  <course>10.2</course>
  <speed>0.0</speed>
  <fix>3d</fix>
</trkpt>
<trkpt lat="40.071327" lon="-105.2298811">
  <ele>1583.22</ele>
  <time>2026-08-28T17:49:44Z</time>
  <course>279.47</course>
  <speed>0.022360679774997897</speed>
  <fix>3d</fix>
</trkpt>
<trkpt lat="40.0713271" lon="-105.2298809">
  <ele>1583.0</ele>
  <time>2026-08-28T17:49:44Z</time>
  <course>10.2</course>
  <speed>0.0</speed>
  <fix>3d</fix>
</trkpt>
<trkpt lat="40.071327" lon="-105.2298811">
  <ele>1583.22</ele>
  <time>2026-08-28T17:49:44Z</time>
  <course>279.47</course>
  <speed>0.022360679774997897</speed>
  <fix>3d</fix>
</trkpt>
<trkpt lat="40.0713271" lon="-105.2298809">
  <ele>1583.0</ele>
  <time>2026-08-28T17:49:44Z</time>
  <course>10.2</course>
  <speed>0.0</speed>
  <fix>3d</fix>
</trkpt>
<trkpt lat="40.071327" lon="-105.2298811">
  <ele>1583.22</ele>
  <time>2026-08-28T17:49:44Z</time>
  <course>279.47</course>
  <speed>0.022360679774997897</speed>
  <fix>3d</fix>
</trkpt>
<trkpt lat="40.0713271" lon="-105.2298809">
  <ele>1583.0</ele>
  <time>2026-08-28T17:49:44Z</time>
  <course>10.2</course>
  <speed>0.0</speed>
  <fix>3d</fix>
</trkpt>
<trkpt lat="40.071327" lon="-105.2298811">
  <ele>1583.22</ele>
  <time>2026-08-28T17:49:44Z</time>
  <course>279.47</course>
  <speed>0.022360679774997897</speed>
  <fix>3d</fix>
</trkpt>
<trkpt lat="40.0713271" lon="-105.2298809">
  <ele>1583.0</ele>
  <time>2026-08-28T17:49:44Z</time>
  <course>10.2</course>
  <speed>0.0</speed>
  <fix>3d</fix>
</trkpt>
<trkpt lat="40.071327" lon="-105.2298811">
  <ele>1583.22</ele>
  <time>2026-08-28T17:49:44Z</time>
  <course>279.47</course>
  <speed>0.022360679774997897</speed>
  <fix>3d</fix>
</trkpt>
<trkpt lat="40.0713271" lon="-105.2298809">
  <ele>1583.0</ele>
  <time>2026-08-28T17:49:44Z</time>
  <course>10.2</course>
  <speed>0.0</speed>
  <fix>3d</fix>
</trkpt>
<trkpt lat="40.071327" lon="-105.2298811">
  <ele>1583.21</ele>
  <time>2026-08-28T17:49:44Z</time>
  <course>279.46</course>
  <speed>0.022360679774997897</speed>
  <fix>3d</fix>
</trkpt>
<trkpt lat="40.0713271" lon="-105.2298809">
  <ele>1583.0</ele>
  <time>2026-08-28T17:49:44Z</time>
  <course>10.2</course>
  <speed>0.0</speed>
  <fix>3d</fix>
</trkpt>
<trkpt lat="40.071327" lon="-105.2298811">
  <ele>1583.21</ele>
  <time>2026-08-28T17:49:44Z</time>
  <course>279.46</course>
  <speed>0.022360679774997897</speed>
  <fix>3d</fix>
</trkpt>
<trkpt lat="40.0713271" lon="-105.2298809">
  <ele>1583.0</ele>
  <time>2026-08-28T17:49:44Z</time>
  <course>10.2</course>
  <speed>0.0</speed>
  <fix>3d</fix>
</trkpt>
<trkpt lat="40.071327" lon="-105.2298811">
  <ele>1583.2</ele>
  <time>2026-08-28T17:49:44Z</time>
  <course>279.46</course>
  <speed>0.022360679774997897</speed>
  <fix>3d</fix>
</trkpt>
<trkpt lat="40.0713271" lon="-105.2298809">
  <ele>1583.0</ele>
  <time>2026-08-28T17:49:44Z</time>
  <course>10.2</course>
  <speed>0.0</speed>
  <fix>3d</fix>
</trkpt>
<trkpt lat="40.071327" lon="-105.2298811">
  <ele>1583.2</ele>
  <time>2026-08-28T17:49:44Z</time>
  <course>279.46</course>
  <speed>0.022360679774997897</speed>
  <fix>3d</fix>
</trkpt>
<trkpt lat="40.0713271" lon="-105.2298809">
  <ele>1583.0</ele>
  <time>2026-08-28T17:49:44Z</time>
  <course>10.2</course>
  <speed>0.0</speed>
  <fix>3d</fix>
</trkpt>
<trkpt lat="40.071327" lon="-105.2298811">
  <ele>1583.2</ele>
  <time>2026-08-28T17:49:44Z</time>
  <course>279.46</course>
  <speed>0.022360679774997897</speed>
  <fix>3d</fix>
</trkpt>
<trkpt lat="40.0713271" lon="-105.2298809">
  <ele>1583.0</ele>
  <time>2026-08-28T17:49:44Z</time>
  <course>10.2</course>
  <speed>0.0</speed>
  <fix>3d</fix>
</trkpt>
<trkpt lat="40.071327" lon="-105.2298811">
  <ele>1583.2</ele>
  <time>2026-08-28T17:49:44Z</time>
  <course>279.45</course>
  <speed>0.022360679774997897</speed>
  <fix>3d</fix>
</trkpt>
<trkpt lat="40.0713271" lon="-105.2298809">
  <ele>1583.0</ele>
  <time>2026-08-28T17:49:44Z</time>
  <course>10.2</course>
  <speed>0.0</speed>
  <fix>3d</fix>
</trkpt>
<trkpt lat="40.071327" lon="-105.2298811">
  <ele>1583.2</ele>
  <time>2026-08-28T17:49:44Z</time>
  <course>279.45</course>
  <speed>0.022360679774997897</speed>
  <fix>3d</fix>
</trkpt>
<trkpt lat="40.0713271" lon="-105.2298809">
  <ele>1583.0</ele>
  <time>2026-08-28T17:49:44Z</time>
  <course>10.2</course>
  <speed>0.0</speed>
  <fix>3d</fix>
</trkpt>
<trkpt lat="40.071327" lon="-105.2298811">
  <ele>1583.2</ele>
  <time>2026-08-28T17:49:44Z</time>
  <course>279.45</course>
  <speed>0.022360679774997897</speed>
  <fix>3d</fix>
</trkpt>
<trkpt lat="40.0713271" lon="-105.2298809">
  <ele>1583.0</ele>
  <time>2026-08-28T17:49:44Z</time>
  <course>10.2</course>
  <speed>0.0</speed>
  <fix>3d</fix>
</trkpt>
<trkpt lat="40.071327" lon="-105.2298811">
  <ele>1583.2</ele>
  <time>2026-08-28T17:49:44Z</time>
  <course>279.45</course>
  <speed>0.022360679774997897</speed>
  <fix>3d</fix>
</trkpt>
<trkpt lat="40.0713271" lon="-105.2298809">
  <ele>1583.0</ele>
  <time>2026-08-28T17:49:44Z</time>
  <course>10.2</course>
  <speed>0.0</speed>
  <fix>3d</fix>
</trkpt>
<trkpt lat="40.071327" lon="-105.2298811">
  <ele>1583.2</ele>
  <time>2026-08-28T17:49:44Z</time>
  <course>279.45</course>
  <speed>0.022360679774997897</speed>
  <fix>3d</fix>
</trkpt>
<trkpt lat="40.0713271" lon="-105.2298809">
  <ele>1583.0</ele>
  <time>2026-08-28T17:49:44Z</time>
  <course>10.2</course>
  <speed>0.0</speed>
  <fix>3d</fix>
</trkpt>
<trkpt lat="40.071327" lon="-105.2298811">
  <ele>1583.2</ele>
  <time>2026-08-28T17:49:44Z</time>
  <course>279.45</course>
  <speed>0.022360679774997897</speed>
  <fix>3d</fix>
</trkpt>
<trkpt lat="40.0713271" lon="-105.2298809">
  <ele>1583.0</ele>
  <time>2026-08-28T17:49:44Z</time>
  <course>10.2</course>
  <speed>0.0</speed>
  <fix>3d</fix>
</trkpt>
<trkpt lat="40.071327" lon="-105.2298811">
  <ele>1583.21</ele>
  <time>2026-08-28T17:49:44Z</time>
  <course>279.45</course>
  <speed>0.022360679774997897</speed>
  <fix>3d</fix>
</trkpt>
<trkpt lat="40.0713271" lon="-105.2298809">
  <ele>1583.0</ele>
  <time>2026-08-28T17:49:44Z</time>
  <course>10.2</course>
  <speed>0.0</speed>
  <fix>3d</fix>
</trkpt>
<trkpt lat="40.071327" lon="-105.2298811">
  <ele>1583.21</ele>
  <time>2026-08-28T17:49:44Z</time>
  <course>279.44</course>
  <speed>0.022360679774997897</speed>
  <fix>3d</fix>
</trkpt>
<trkpt lat="40.0713271" lon="-105.2298809">
  <ele>1583.0</ele>
  <time>2026-08-28T17:49:44Z</time>
  <course>10.2</course>
  <speed>0.0</speed>
  <fix>3d</fix>
</trkpt>
<trkpt lat="40.071327" lon="-105.2298811">
  <ele>1583.21</ele>
  <time>2026-08-28T17:49:44Z</time>
  <course>279.44</course>
  <speed>0.022360679774997897</speed>
  <fix>3d</fix>
</trkpt>
<trkpt lat="40.0713271" lon="-105.2298809">
  <ele>1583.0</ele>
  <time>2026-08-28T17:49:44Z</time>
  <course>10.2</course>
  <speed>0.0</speed>
  <fix>3d</fix>
</trkpt>
<trkpt lat="40.071327" lon="-105.2298811">
  <ele>1583.21</ele>
  <time>2026-08-28T17:49:44Z</time>
  <course>279.44</course>
  <speed>0.022360679774997897</speed>
  <fix>3d</fix>
</trkpt>
<trkpt lat="40.0713271" lon="-105.2298809">
  <ele>1583.0</ele>
  <time>2026-08-28T17:49:44Z</time>
  <course>10.2</course>
  <speed>0.0</speed>
  <fix>3d</fix>
</trkpt>
<trkpt lat="40.071327" lon="-105.2298811">
  <ele>1583.22</ele>
  <time>2026-08-28T17:49:44Z</time>
  <course>279.44</course>
  <speed>0.022360679774997897</speed>
  <fix>3d</fix>
</trkpt>
<trkpt lat="40.0713271" lon="-105.2298809">
  <ele>1583.0</ele>
  <time>2026-08-28T17:49:44Z</time>
  <course>10.2</course>
  <speed>0.0</speed>
  <fix>3d</fix>
</trkpt>
<trkpt lat="40.071327" lon="-105.2298811">
  <ele>1583.22</ele>
  <time>2026-08-28T17:49:44Z</time>
  <course>279.44</course>
  <speed>0.022360679774997897</speed>
  <fix>3d</fix>
</trkpt>
<trkpt lat="40.0713271" lon="-105.2298809">
  <ele>1583.0</ele>
  <time>2026-08-28T17:49:44Z</time>
  <course>10.2</course>
  <speed>0.0</speed>
  <fix>3d</fix>
</trkpt>
<trkpt lat="40.071327" lon="-105.2298811">
  <ele>1583.22</ele>
  <time>2026-08-28T17:49:44Z</time>
  <course>279.44</course>
  <speed>0.022360679774997897</speed>
  <fix>3d</fix>
</trkpt>
<trkpt lat="40.0713271" lon="-105.2298809">
  <ele>1583.0</ele>
  <time>2026-08-28T17:49:44Z</time>
  <course>10.2</course>
  <speed>0.0</speed>
  <fix>3d</fix>
</trkpt>
<trkpt lat="40.071327" lon="-105.2298811">
  <ele>1583.22</ele>
  <time>2026-08-28T17:49:44Z</time>
  <course>279.43</course>
  <speed>0.022360679774997897</speed>
  <fix>3d</fix>
</trkpt>
<trkpt lat="40.0713271" lon="-105.2298809">
  <ele>1583.0</ele>
  <time>2026-08-28T17:49:44Z</time>
  <course>10.2</course>
  <speed>0.0</speed>
  <fix>3d</fix>
</trkpt>
<trkpt lat="40.071327" lon="-105.2298811">
  <ele>1583.23</ele>
  <time>2026-08-28T17:49:44Z</time>
  <course>279.43</course>
  <speed>0.022360679774997897</speed>
  <fix>3d</fix>
</trkpt>
<trkpt lat="40.0713271" lon="-105.2298809">
  <ele>1583.0</ele>
  <time>2026-08-28T17:49:44Z</time>
  <course>10.2</course>
  <speed>0.0</speed>
  <fix>3d</fix>
</trkpt>
<trkpt lat="40.071327" lon="-105.2298811">
  <ele>1583.23</ele>
  <time>2026-08-28T17:49:44Z</time>
  <course>279.43</course>
  <speed>0.022360679774997897</speed>
  <fix>3d</fix>
</trkpt>
<trkpt lat="40.0713271" lon="-105.2298809">
  <ele>1583.0</ele>
  <time>2026-08-28T17:49:44Z</time>
  <course>10.2</course>
  <speed>0.0</speed>
  <fix>3d</fix>
</trkpt>
<trkpt lat="40.071327" lon="-105.2298811">
  <ele>1583.23</ele>
  <time>2026-08-28T17:49:44Z</time>
  <course>279.43</course>
  <speed>0.022360679774997897</speed>
  <fix>3d</fix>
</trkpt>
<trkpt lat="40.0713271" lon="-105.2298809">
  <ele>1583.0</ele>
  <time>2026-08-28T17:49:44Z</time>
  <course>10.2</course>
  <speed>0.0</speed>
  <fix>3d</fix>
</trkpt>
<trkpt lat="40.071327" lon="-105.2298811">
  <ele>1583.23</ele>
  <time>2026-08-28T17:49:44Z</time>
  <course>279.43</course>
  <speed>0.022360679774997897</speed>
  <fix>3d</fix>
</trkpt>
<trkpt lat="40.0713271" lon="-105.2298809">
  <ele>1583.0</ele>
  <time>2026-08-28T17:49:44Z</time>
  <course>10.2</course>
  <speed>0.0</speed>
  <fix>3d</fix>
</trkpt>
<trkpt lat="40.071327" lon="-105.2298811">
  <ele>1583.23</ele>
  <time>2026-08-28T17:49:44Z</time>
  <course>279.43</course>
  <speed>0.022360679774997897</speed>
  <fix>3d</fix>
</trkpt>
<trkpt lat="40.0713271" lon="-105.2298809">
  <ele>1583.0</ele>
  <time>2026-08-28T17:49:44Z</time>
  <course>10.2</course>
  <speed>0.0</speed>
  <fix>3d</fix>
</trkpt>
<trkpt lat="40.071327" lon="-105.2298811">
  <ele>1583.24</ele>
  <time>2026-08-28T17:49:44Z</time>
  <course>279.42</course>
  <speed>0.022360679774997897</speed>
  <fix>3d</fix>
</trkpt>
<trkpt lat="40.0713271" lon="-105.2298809">
  <ele>1583.0</ele>
  <time>2026-08-28T17:49:44Z</time>
  <course>10.2</course>
  <speed>0.0</speed>
  <fix>3d</fix>
</trkpt>
<trkpt lat="40.071327" lon="-105.2298811">
  <ele>1583.24</ele>
  <time>2026-08-28T17:49:44Z</time>
  <course>279.42</course>
  <speed>0.022360679774997897</speed>
  <fix>3d</fix>
</trkpt>
<trkpt lat="40.0713271" lon="-105.2298809">
  <ele>1583.0</ele>
  <time>2026-08-28T17:49:44Z</time>
  <course>10.2</course>
  <speed>0.0</speed>
  <fix>3d</fix>
</trkpt>
<trkpt lat="40.071327" lon="-105.2298811">
  <ele>1583.24</ele>
  <time>2026-08-28T17:49:44Z</time>
  <course>279.42</course>
  <speed>0.022360679774997897</speed>
  <fix>3d</fix>
</trkpt>
<trkpt lat="40.0713271" lon="-105.2298809">
  <ele>1583.0</ele>
  <time>2026-08-28T17:49:44Z</time>
  <course>10.2</course>
  <speed>0.0</speed>
  <fix>3d</fix>
</trkpt>
<trkpt lat="40.071327" lon="-105.2298811">
  <ele>1583.24</ele>
  <time>2026-08-28T17:49:44Z</time>
  <course>279.42</course>
  <speed>0.022360679774997897</speed>
  <fix>3d</fix>
</trkpt>
<trkpt lat="40.0713271" lon="-105.2298809">
  <ele>1583.0</ele>
  <time>2026-08-28T17:49:44Z</time>
  <course>10.2</course>
  <speed>0.0</speed>
  <fix>3d</fix>
</trkpt>
<trkpt lat="40.071327" lon="-105.2298811">
  <ele>1583.24</ele>
  <time>2026-08-28T17:49:44Z</time>
  <course>279.42</course>
  <speed>0.022360679774997897</speed>
  <fix>3d</fix>
</trkpt>
<trkpt lat="40.0713271" lon="-105.2298809">
  <ele>1583.0</ele>
  <time>2026-08-28T17:49:44Z</time>
  <course>10.2</course>
  <speed>0.0</speed>
  <fix>3d</fix>
</trkpt>
<trkpt lat="40.071327" lon="-105.2298811">
  <ele>1583.24</ele>
  <time>2026-08-28T17:49:44Z</time>
  <course>279.42</course>
  <speed>0.022360679774997897</speed>
  <fix>3d</fix>
</trkpt>
<trkpt lat="40.0713271" lon="-105.2298809">
  <ele>1583.0</ele>
  <time>2026-08-28T17:49:44Z</time>
  <course>10.2</course>
  <speed>0.0</speed>
  <fix>3d</fix>
</trkpt>
<trkpt lat="40.071327" lon="-105.2298811">
  <ele>1583.24</ele>
  <time>2026-08-28T17:49:44Z</time>
  <course>279.41</course>
  <speed>0.022360679774997897</speed>
  <fix>3d</fix>
</trkpt>
<trkpt lat="40.0713271" lon="-105.2298809">
  <ele>1583.0</ele>
  <time>2026-08-28T17:49:44Z</time>
  <course>10.2</course>
  <speed>0.0</speed>
  <fix>3d</fix>
</trkpt>
<trkpt lat="40.071327" lon="-105.2298811">
  <ele>1583.23</ele>
  <time>2026-08-28T17:49:44Z</time>
  <course>279.41</course>
  <speed>0.022360679774997897</speed>
  <fix>3d</fix>
</trkpt>
<trkpt lat="40.0713271" lon="-105.2298809">
  <ele>1583.0</ele>
  <time>2026-08-28T17:49:44Z</time>
  <course>10.2</course>
  <speed>0.0</speed>
  <fix>3d</fix>
</trkpt>
<trkpt lat="40.071327" lon="-105.2298811">
  <ele>1583.22</ele>
  <time>2026-08-28T17:49:44Z</time>
  <course>279.41</course>
  <speed>0.022360679774997897</speed>
  <fix>3d</fix>
</trkpt>
<trkpt lat="40.0713271" lon="-105.2298809">
  <ele>1583.0</ele>
  <time>2026-08-28T17:49:44Z</time>
  <course>10.2</course>
  <speed>0.0</speed>
  <fix>3d</fix>
</trkpt>
<trkpt lat="40.071327" lon="-105.2298811">
  <ele>1583.21</ele>
  <time>2026-08-28T17:49:44Z</time>
  <course>279.41</course>
  <speed>0.022360679774997897</speed>
  <fix>3d</fix>
</trkpt>
<trkpt lat="40.0713271" lon="-105.2298809">
  <ele>1583.0</ele>
  <time>2026-08-28T17:49:44Z</time>
  <course>10.2</course>
  <speed>0.0</speed>
  <fix>3d</fix>
</trkpt>
<trkpt lat="40.071327" lon="-105.2298811">
  <ele>1583.2</ele>
  <time>2026-08-28T17:49:44Z</time>
  <course>279.41</course>
  <speed>0.022360679774997897</speed>
  <fix>3d</fix>
</trkpt>
<trkpt lat="40.0713271" lon="-105.2298809">
  <ele>1583.0</ele>
  <time>2026-08-28T17:49:44Z</time>
  <course>10.2</course>
  <speed>0.0</speed>
  <fix>3d</fix>
</trkpt>
<trkpt lat="40.071327" lon="-105.2298811">
  <ele>1583.19</ele>
  <time>2026-08-28T17:49:44Z</time>
  <course>279.41</course>
  <speed>0.022360679774997897</speed>
  <fix>3d</fix>
</trkpt>
<trkpt lat="40.0713271" lon="-105.2298809">
  <ele>1583.0</ele>
  <time>2026-08-28T17:49:44Z</time>
  <course>10.2</course>
  <speed>0.0</speed>
  <fix>3d</fix>
</trkpt>
<trkpt lat="40.071327" lon="-105.2298811">
  <ele>1583.18</ele>
  <time>2026-08-28T17:49:44Z</time>
  <course>279.41</course>
  <speed>0.022360679774997897</speed>
  <fix>3d</fix>
</trkpt>
<trkpt lat="40.0713271" lon="-105.2298809">
  <ele>1583.0</ele>
  <time>2026-08-28T17:49:44Z</time>
  <course>10.2</course>
  <speed>0.0</speed>
  <fix>3d</fix>
</trkpt>
<trkpt lat="40.071327" lon="-105.2298811">
  <ele>1583.17</ele>
  <time>2026-08-28T17:49:44Z</time>
  <course>279.4</course>
  <speed>0.022360679774997897</speed>
  <fix>3d</fix>
</trkpt>
<trkpt lat="40.0713271" lon="-105.2298809">
  <ele>1583.0</ele>
  <time>2026-08-28T17:49:44Z</time>
  <course>10.2</course>
  <speed>0.0</speed>
  <fix>3d</fix>
</trkpt>
<trkpt lat="40.071327" lon="-105.2298811">
  <ele>1583.15</ele>
  <time>2026-08-28T17:49:44Z</time>
  <course>279.4</course>
  <speed>0.022360679774997897</speed>
  <fix>3d</fix>
</trkpt>
<trkpt lat="40.0713271" lon="-105.2298809">
  <ele>1583.0</ele>
  <time>2026-08-28T17:49:44Z</time>
  <course>10.2</course>
  <speed>0.0</speed>
  <fix>3d</fix>
</trkpt>
<trkpt lat="40.071327" lon="-105.2298811">
  <ele>1583.14</ele>
  <time>2026-08-28T17:49:44Z</time>
  <course>279.4</course>
  <speed>0.022360679774997897</speed>
  <fix>3d</fix>
</trkpt>
<trkpt lat="40.0713271" lon="-105.2298809">
  <ele>1583.0</ele>
  <time>2026-08-28T17:49:44Z</time>
  <course>10.2</course>
  <speed>0.0</speed>
  <fix>3d</fix>
</trkpt>
<trkpt lat="40.071327" lon="-105.2298811">
  <ele>1583.13</ele>
  <time>2026-08-28T17:49:44Z</time>
  <course>279.4</course>
  <speed>0.022360679774997897</speed>
  <fix>3d</fix>
</trkpt>
<trkpt lat="40.0713271" lon="-105.2298809">
  <ele>1583.0</ele>
  <time>2026-08-28T17:49:44Z</time>
  <course>10.2</course>
  <speed>0.0</speed>
  <fix>3d</fix>
</trkpt>
<trkpt lat="40.071327" lon="-105.2298811">
  <ele>1583.12</ele>
  <time>2026-08-28T17:49:44Z</time>
  <course>279.4</course>
  <speed>0.022360679774997897</speed>
  <fix>3d</fix>
</trkpt>
<trkpt lat="40.0713271" lon="-105.2298809">
  <ele>1583.0</ele>
  <time>2026-08-28T17:49:44Z</time>
  <course>10.2</course>
  <speed>0.0</speed>
  <fix>3d</fix>
</trkpt>
<trkpt lat="40.071327" lon="-105.2298811">
  <ele>1583.11</ele>
  <time>2026-08-28T17:49:44Z</time>
  <course>279.4</course>
  <speed>0.022360679774997897</speed>
  <fix>3d</fix>
</trkpt>
<trkpt lat="40.0713271" lon="-105.2298809">
  <ele>1583.0</ele>
  <time>2026-08-28T17:49:44Z</time>
  <course>10.2</course>
  <speed>0.0</speed>
  <fix>3d</fix>
</trkpt>
<trkpt lat="40.071327" lon="-105.2298811">
  <ele>1583.11</ele>
  <time>2026-08-28T17:49:44Z</time>
  <course>279.4</course>
  <speed>0.022360679774997897</speed>
  <fix>3d</fix>
</trkpt>
<trkpt lat="40.0713271" lon="-105.2298809">
  <ele>1583.0</ele>
  <time>2026-08-28T17:49:44Z</time>
  <course>10.2</course>
  <speed>0.0</speed>
  <fix>3d</fix>
</trkpt>
<trkpt lat="40.071327" lon="-105.2298811">
  <ele>1583.1</ele>
  <time>2026-08-28T17:49:44Z</time>
  <course>279.39</course>
  <speed>0.022360679774997897</speed>
  <fix>3d</fix>
</trkpt>
<trkpt lat="40.0713271" lon="-105.2298809">
  <ele>1583.0</ele>
  <time>2026-08-28T17:49:44Z</time>
  <course>10.2</course>
  <speed>0.0</speed>
  <fix>3d</fix>
</trkpt>
<trkpt lat="40.071327" lon="-105.2298811">
  <ele>1583.08</ele>
  <time>2026-08-28T17:49:44Z</time>
  <course>279.39</course>
  <speed>0.022360679774997897</speed>
  <fix>3d</fix>
</trkpt>
<trkpt lat="40.0713271" lon="-105.2298809">
  <ele>1583.0</ele>
  <time>2026-08-28T17:49:44Z</time>
  <course>10.2</course>
  <speed>0.0</speed>
  <fix>3d</fix>
</trkpt>
<trkpt lat="40.071327" lon="-105.2298811">
  <ele>1583.06</ele>
  <time>2026-08-28T17:49:44Z</time>
  <course>279.38</course>
  <speed>0.022360679774997897</speed>
  <fix>3d</fix>
</trkpt>
<trkpt lat="40.0713271" lon="-105.2298809">
  <ele>1583.0</ele>
  <time>2026-08-28T17:49:44Z</time>
  <course>10.2</course>
  <speed>0.0</speed>
  <fix>3d</fix>
</trkpt>
<trkpt lat="40.071327" lon="-105.2298811">
  <ele>1583.06</ele>
  <time>2026-08-28T17:49:44Z</time>
  <course>279.38</course>
  <speed>0.022360679774997897</speed>
  <fix>3d</fix>
</trkpt>
<trkpt lat="40.0713271" lon="-105.2298809">
  <ele>1583.0</ele>
  <time>2026-08-28T17:49:44Z</time>
  <course>10.2</course>
  <speed>0.0</speed>
  <fix>3d</fix>
</trkpt>
<trkpt lat="40.071327" lon="-105.2298811">
  <ele>1583.05</ele>
  <time>2026-08-28T17:49:44Z</time>
  <course>279.38</course>
  <speed>0.01414213562373095</speed>
  <fix>3d</fix>
</trkpt>
<trkpt lat="40.0713271" lon="-105.2298809">
  <ele>1583.0</ele>
  <time>2026-08-28T17:49:44Z</time>
  <course>10.2</course>
  <speed>0.0</speed>
  <fix>3d</fix>
</trkpt>
<trkpt lat="40.071327" lon="-105.2298811">
  <ele>1583.04</ele>
  <time>2026-08-28T17:49:44Z</time>
  <course>279.38</course>
  <speed>0.022360679774997897</speed>
  <fix>3d</fix>
</trkpt>
<trkpt lat="40.0713271" lon="-105.2298809">
  <ele>1583.0</ele>
  <time>2026-08-28T17:49:44Z</time>
  <course>10.2</course>
  <speed>0.0</speed>
  <fix>3d</fix>
</trkpt>
<trkpt lat="40.071327" lon="-105.2298811">
  <ele>1583.03</ele>
  <time>2026-08-28T17:49:44Z</time>
  <course>279.38</course>
  <speed>0.01414213562373095</speed>
  <fix>3d</fix>
</trkpt>
<trkpt lat="40.0713271" lon="-105.2298809">
  <ele>1583.0</ele>
  <time>2026-08-28T17:49:44Z</time>
  <course>10.2</course>
  <speed>0.0</speed>
  <fix>3d</fix>
</trkpt>
<trkpt lat="40.071327" lon="-105.2298811">
  <ele>1583.02</ele>
  <time>2026-08-28T17:49:44Z</time>
  <course>279.38</course>
  <speed>0.01414213562373095</speed>
  <fix>3d</fix>
</trkpt>
<trkpt lat="40.0713271" lon="-105.2298809">
  <ele>1583.0</ele>
  <time>2026-08-28T17:49:44Z</time>
  <course>10.2</course>
  <speed>0.0</speed>
  <fix>3d</fix>
</trkpt>
<trkpt lat="40.071327" lon="-105.2298811">
  <ele>1583.0</ele>
  <time>2026-08-28T17:49:44Z</time>
  <course>279.38</course>
  <speed>0.01414213562373095</speed>
  <fix>3d</fix>
</trkpt>
<trkpt lat="40.0713271" lon="-105.2298809">
  <ele>1583.0</ele>
  <time>2026-08-28T17:49:44Z</time>
  <course>10.2</course>
  <speed>0.0</speed>
  <fix>3d</fix>
</trkpt>
<trkpt lat="40.071327" lon="-105.2298811">
  <ele>1583.0</ele>
  <time>2026-08-28T17:49:44Z</time>
  <course>279.37</course>
  <speed>0.01414213562373095</speed>
  <fix>3d</fix>
</trkpt>
<trkpt lat="40.0713271" lon="-105.2298809">
  <ele>1583.0</ele>
  <time>2026-08-28T17:49:44Z</time>
  <course>10.2</course>
  <speed>0.0</speed>
  <fix>3d</fix>
</trkpt>
<trkpt lat="40.071327" lon="-105.2298811">
  <ele>1582.99</ele>
  <time>2026-08-28T17:49:44Z</time>
  <course>279.37</course>
  <speed>0.01414213562373095</speed>
  <fix>3d</fix>
</trkpt>
<trkpt lat="40.0713271" lon="-105.2298809">
  <ele>1583.0</ele>
  <time>2026-08-28T17:49:44Z</time>
  <course>10.2</course>
  <speed>0.0</speed>
  <fix>3d</fix>
</trkpt>
<trkpt lat="40.071327" lon="-105.2298811">
  <ele>1582.99</ele>
  <time>2026-08-28T17:49:44Z</time>
  <course>279.37</course>
  <speed>0.01414213562373095</speed>
  <fix>3d</fix>
</trkpt>
<trkpt lat="40.0713271" lon="-105.2298809">
  <ele>1583.0</ele>
  <time>2026-08-28T17:49:44Z</time>
  <course>10.2</course>
  <speed>0.0</speed>
  <fix>3d</fix>
</trkpt>
<trkpt lat="40.071327" lon="-105.2298811">
  <ele>1582.98</ele>
  <time>2026-08-28T17:49:44Z</time>
  <course>279.37</course>
  <speed>0.01414213562373095</speed>
  <fix>3d</fix>
</trkpt>
<trkpt lat="40.0713271" lon="-105.2298809">
  <ele>1583.0</ele>
  <time>2026-08-28T17:49:44Z</time>
  <course>10.2</course>
  <speed>0.0</speed>
  <fix>3d</fix>
</trkpt>
<trkpt lat="40.071327" lon="-105.2298811">
  <ele>1582.98</ele>
  <time>2026-08-28T17:49:44Z</time>
  <course>279.37</course>
  <speed>0.01414213562373095</speed>
  <fix>3d</fix>
</trkpt>
<trkpt lat="40.0713271" lon="-105.2298809">
  <ele>1583.0</ele>
  <time>2026-08-28T17:49:44Z</time>
  <course>10.2</course>
  <speed>0.0</speed>
  <fix>3d</fix>
</trkpt>
<trkpt lat="40.071327" lon="-105.2298811">
  <ele>1582.98</ele>
  <time>2026-08-28T17:49:44Z</time>
  <course>279.37</course>
  <speed>0.01414213562373095</speed>
  <fix>3d</fix>
</trkpt>
<trkpt lat="40.0713271" lon="-105.2298809">
  <ele>1583.0</ele>
  <time>2026-08-28T17:49:44Z</time>
  <course>10.2</course>
  <speed>0.0</speed>
  <fix>3d</fix>
</trkpt>
<trkpt lat="40.071327" lon="-105.2298811">
  <ele>1582.97</ele>
  <time>2026-08-28T17:49:44Z</time>
  <course>279.37</course>
  <speed>0.01414213562373095</speed>
  <fix>3d</fix>
</trkpt>
<trkpt lat="40.0713271" lon="-105.2298809">
  <ele>1583.0</ele>
  <time>2026-08-28T17:49:44Z</time>
  <course>10.2</course>
  <speed>0.0</speed>
  <fix>3d</fix>
</trkpt>
<trkpt lat="40.071327" lon="-105.2298811">
  <ele>1582.97</ele>
  <time>2026-08-28T17:49:44Z</time>
  <course>279.37</course>
  <speed>0.01414213562373095</speed>
  <fix>3d</fix>
</trkpt>
<trkpt lat="40.0713271" lon="-105.2298809">
  <ele>1583.0</ele>
  <time>2026-08-28T17:49:44Z</time>
  <course>10.2</course>
  <speed>0.0</speed>
  <fix>3d</fix>
</trkpt>
<trkpt lat="40.071327" lon="-105.2298811">
  <ele>1582.97</ele>
  <time>2026-08-28T17:49:44Z</time>
  <course>279.36</course>
  <speed>0.01414213562373095</speed>
  <fix>3d</fix>
</trkpt>
<trkpt lat="40.0713271" lon="-105.2298809">
  <ele>1583.0</ele>
  <time>2026-08-28T17:49:44Z</time>
  <course>10.2</course>
  <speed>0.0</speed>
  <fix>3d</fix>
</trkpt>
<trkpt lat="40.071327" lon="-105.2298811">
  <ele>1582.96</ele>
  <time>2026-08-28T17:49:44Z</time>
  <course>279.36</course>
  <speed>0.01414213562373095</speed>
  <fix>3d</fix>
</trkpt>
<trkpt lat="40.0713271" lon="-105.2298809">
  <ele>1583.0</ele>
  <time>2026-08-28T17:49:44Z</time>
  <course>10.2</course>
  <speed>0.0</speed>
  <fix>3d</fix>
</trkpt>
<trkpt lat="40.071327" lon="-105.2298811">
  <ele>1582.96</ele>
  <time>2026-08-28T17:49:44Z</time>
  <course>279.36</course>
  <speed>0.01414213562373095</speed>
  <fix>3d</fix>
</trkpt>
<trkpt lat="40.0713271" lon="-105.2298809">
  <ele>1583.0</ele>
  <time>2026-08-28T17:49:44Z</time>
  <course>10.2</course>
  <speed>0.0</speed>
  <fix>3d</fix>
</trkpt>
<trkpt lat="40.071327" lon="-105.2298811">
  <ele>1582.96</ele>
  <time>2026-08-28T17:49:44Z</time>
  <course>279.36</course>
  <speed>0.01414213562373095</speed>
  <fix>3d</fix>
</trkpt>
<trkpt lat="40.0713271" lon="-105.2298809">
  <ele>1583.0</ele>
  <time>2026-08-28T17:49:44Z</time>
  <course>10.2</course>
  <speed>0.0</speed>
  <fix>3d</fix>
</trkpt>
<trkpt lat="40.071327" lon="-105.2298811">
  <ele>1582.95</ele>
  <time>2026-08-28T17:49:44Z</time>
  <course>279.36</course>
  <speed>0.01414213562373095</speed>
  <fix>3d</fix>
</trkpt>
<trkpt lat="40.0713271" lon="-105.2298809">
  <ele>1583.0</ele>
  <time>2026-08-28T17:49:44Z</time>
  <course>10.2</course>
  <speed>0.0</speed>
  <fix>3d</fix>
</trkpt>
<trkpt lat="40.071327" lon="-105.2298811">
  <ele>1582.94</ele>
  <time>2026-08-28T17:49:44Z</time>
  <course>279.36</course>
  <speed>0.01414213562373095</speed>
  <fix>3d</fix>
</trkpt>
<trkpt lat="40.0713271" lon="-105.2298809">
  <ele>1583.0</ele>
  <time>2026-08-28T17:49:44Z</time>
  <course>10.2</course>
  <speed>0.0</speed>
  <fix>3d</fix>
</trkpt>
<trkpt lat="40.071327" lon="-105.2298811">
  <ele>1582.94</ele>
  <time>2026-08-28T17:49:44Z</time>
  <course>279.36</course>
  <speed>0.01414213562373095</speed>
  <fix>3d</fix>
</trkpt>
<trkpt lat="40.0713271" lon="-105.2298809">
  <ele>1583.0</ele>
  <time>2026-08-28T17:49:44Z</time>
  <course>10.2</course>
  <speed>0.0</speed>
  <fix>3d</fix>
</trkpt>
<trkpt lat="40.071327" lon="-105.2298811">
  <ele>1582.93</ele>
  <time>2026-08-28T17:49:44Z</time>
  <course>279.36</course>
  <speed>0.01414213562373095</speed>
  <fix>3d</fix>
</trkpt>
<trkpt lat="40.0713271" lon="-105.2298809">
  <ele>1583.0</ele>
  <time>2026-08-28T17:49:44Z</time>
  <course>10.2</course>
  <speed>0.0</speed>
  <fix>3d</fix>
</trkpt>
<trkpt lat="40.071327" lon="-105.2298811">
  <ele>1582.93</ele>
  <time>2026-08-28T17:49:44Z</time>
  <course>279.35</course>
  <speed>0.01414213562373095</speed>
  <fix>3d</fix>
</trkpt>
<trkpt lat="40.0713271" lon="-105.2298809">
  <ele>1583.0</ele>
  <time>2026-08-28T17:49:44Z</time>
  <course>10.2</course>
  <speed>0.0</speed>
  <fix>3d</fix>
</trkpt>
<trkpt lat="40.071327" lon="-105.2298811">
  <ele>1582.92</ele>
  <time>2026-08-28T17:49:44Z</time>
  <course>279.35</course>
  <speed>0.01414213562373095</speed>
  <fix>3d</fix>
</trkpt>
<trkpt lat="40.0713271" lon="-105.2298809">
  <ele>1583.0</ele>
  <time>2026-08-28T17:49:44Z</time>
  <course>10.2</course>
  <speed>0.0</speed>
  <fix>3d</fix>
</trkpt>
<trkpt lat="40.071327" lon="-105.2298811">
  <ele>1582.92</ele>
  <time>2026-08-28T17:49:44Z</time>
  <course>279.35</course>
  <speed>0.01414213562373095</speed>
  <fix>3d</fix>
</trkpt>
<trkpt lat="40.0713271" lon="-105.2298809">
  <ele>1583.0</ele>
  <time>2026-08-28T17:49:44Z</time>
  <course>10.2</course>
  <speed>0.0</speed>
  <fix>3d</fix>
</trkpt>
<trkpt lat="40.071327" lon="-105.2298811">
  <ele>1582.92</ele>
  <time>2026-08-28T17:49:44Z</time>
  <course>279.35</course>
  <speed>0.01414213562373095</speed>
  <fix>3d</fix>
</trkpt>
<trkpt lat="40.0713271" lon="-105.2298809">
  <ele>1583.0</ele>
  <time>2026-08-28T17:49:44Z</time>
  <course>10.2</course>
  <speed>0.0</speed>
  <fix>3d</fix>
</trkpt>
<trkpt lat="39.655741" lon="-104.1383097">
  <ele>1566.58</ele>
  <time>2026-08-28T17:49:44Z</time>
  <course>0.0</course>
  <speed>0.0</speed>
  <fix>3d</fix>
</trkpt>
<trkpt lat="40.0713749" lon="-105.229789">
  <ele>1583.0</ele>
  <time>2026-08-28T17:49:44Z</time>
  <course>0.0</course>
  <speed>0.0</speed>
  <fix>3d</fix>
</trkpt>
<trkpt lat="40.0713749" lon="-105.229789">
  <ele>1583.0</ele>
  <time>2026-08-28T17:49:44Z</time>
  <course>238.36</course>
  <speed>0.0</speed>
  <fix>3d</fix>
</trkpt>
<trkpt lat="40.0713749" lon="-105.229789">
  <ele>1583.0</ele>
  <time>2026-08-28T17:49:44Z</time>
  <course>0.0</course>
  <speed>0.0</speed>
  <fix>3d</fix>
</trkpt>
<trkpt lat="40.0713749" lon="-105.229789">
  <ele>1583.0</ele>
  <time>2026-08-28T17:49:44Z</time>
  <course>238.44</course>
  <speed>0.0</speed>
  <fix>3d</fix>
</trkpt>
<trkpt lat="40.0713749" lon="-105.229789">
  <ele>1583.0</ele>
  <time>2026-08-28T17:49:44Z</time>
  <course>0.0</course>
  <speed>0.0</speed>
  <fix>3d</fix>
</trkpt>
<trkpt lat="40.0713749" lon="-105.229789">
  <ele>1583.0</ele>
  <time>2026-08-28T17:49:44Z</time>
  <course>238.64</course>
  <speed>0.0</speed>
  <fix>3d</fix>
</trkpt>
<trkpt lat="40.0713749" lon="-105.229789">
  <ele>1583.0</ele>
  <time>2026-08-28T17:49:44Z</time>
  <course>0.0</course>
  <speed>0.0</speed>
  <fix>3d</fix>
</trkpt>
<trkpt lat="40.0713749" lon="-105.229789">
  <ele>1583.0</ele>
  <time>2026-08-28T17:49:44Z</time>
  <course>238.93</course>
  <speed>0.0</speed>
  <fix>3d</fix>
</trkpt>
<trkpt lat="40.0713749" lon="-105.229789">
  <ele>1583.0</ele>
  <time>2026-08-28T17:49:44Z</time>
  <course>0.0</course>
  <speed>0.0</speed>
  <fix>3d</fix>
</trkpt>
<trkpt lat="40.0713749" lon="-105.229789">
  <ele>1583.0</ele>
  <time>2026-08-28T17:49:44Z</time>
  <course>239.26</course>
  <speed>0.0</speed>
  <fix>3d</fix>
</trkpt>
<trkpt lat="40.0713749" lon="-105.229789">
  <ele>1583.0</ele>
  <time>2026-08-28T17:49:44Z</time>
  <course>0.0</course>
  <speed>0.0</speed>
  <fix>3d</fix>
</trkpt>
<trkpt lat="40.0713749" lon="-105.229789">
  <ele>1583.0</ele>
  <time>2026-08-28T17:49:44Z</time>
  <course>239.61</course>
  <speed>0.0</speed>
  <fix>3d</fix>
</trkpt>
<trkpt lat="40.0713749" lon="-105.229789">
  <ele>1583.0</ele>
  <time>2026-08-28T17:49:44Z</time>
  <course>0.0</course>
  <speed>0.0</speed>
  <fix>3d</fix>
</trkpt>
<trkpt lat="40.0713749" lon="-105.229789">
  <ele>1583.0</ele>
  <time>2026-08-28T17:49:44Z</time>
  <course>239.96</course>
  <speed>0.0</speed>
  <fix>3d</fix>
</trkpt>
<trkpt lat="40.0713749" lon="-105.229789">
  <ele>1583.0</ele>
  <time>2026-08-28T17:49:44Z</time>
  <course>0.0</course>
  <speed>0.0</speed>
  <fix>3d</fix>
</trkpt>
<trkpt lat="40.0713749" lon="-105.229789">
  <ele>1583.0</ele>
  <time>2026-08-28T17:49:44Z</time>
  <course>240.29</course>
  <speed>0.0</speed>
  <fix>3d</fix>
</trkpt>
<trkpt lat="40.0713749" lon="-105.229789">
  <ele>1583.0</ele>
  <time>2026-08-28T17:49:44Z</time>
  <course>0.0</course>
  <speed>0.0</speed>
  <fix>3d</fix>
</trkpt>
<trkpt lat="40.0713749" lon="-105.229789">
  <ele>1583.0</ele>
  <time>2026-08-28T17:49:44Z</time>
  <course>240.61</course>
  <speed>0.0</speed>
  <fix>3d</fix>
</trkpt>
<trkpt lat="40.0713749" lon="-105.229789">
  <ele>1583.0</ele>
  <time>2026-08-28T17:49:44Z</time>
  <course>0.0</course>
  <speed>0.0</speed>
  <fix>3d</fix>
</trkpt>
<trkpt lat="40.0713749" lon="-105.229789">
  <ele>1583.0</ele>
  <time>2026-08-28T17:49:44Z</time>
  <course>240.92</course>
  <speed>0.0</speed>
  <fix>3d</fix>
</trkpt>
<trkpt lat="40.0713749" lon="-105.229789">
  <ele>1583.0</ele>
  <time>2026-08-28T17:49:44Z</time>
  <course>0.0</course>
  <speed>0.0</speed>
  <fix>3d</fix>
</trkpt>
<trkpt lat="40.0713749" lon="-105.229789">
  <ele>1583.0</ele>
  <time>2026-08-28T17:49:44Z</time>
  <course>241.21</course>
  <speed>0.0</speed>
  <fix>3d</fix>
</trkpt>
<trkpt lat="40.0713749" lon="-105.229789">
  <ele>1583.0</ele>
  <time>2026-08-28T17:49:44Z</time>
  <course>0.0</course>
  <speed>0.0</speed>
  <fix>3d</fix>
</trkpt>
<trkpt lat="40.0713749" lon="-105.229789">
  <ele>1583.0</ele>
  <time>2026-08-28T17:49:44Z</time>
  <course>241.49</course>
  <speed>0.0</speed>
  <fix>3d</fix>
</trkpt>
<trkpt lat="40.0713749" lon="-105.229789">
  <ele>1583.0</ele>
  <time>2026-08-28T17:49:44Z</time>
  <course>0.0</course>
  <speed>0.0</speed>
  <fix>3d</fix>
</trkpt>
<trkpt lat="40.0713749" lon="-105.229789">
  <ele>1583.0</ele>
  <time>2026-08-28T17:49:44Z</time>
  <course>241.77</course>
  <speed>0.0</speed>
  <fix>3d</fix>
</trkpt>
<trkpt lat="40.0713749" lon="-105.229789">
  <ele>1583.0</ele>
  <time>2026-08-28T17:49:44Z</time>
  <course>0.0</course>
  <speed>0.0</speed>
  <fix>3d</fix>
</trkpt>
<trkpt lat="40.0713749" lon="-105.229789">
  <ele>1583.0</ele>
  <time>2026-08-28T17:49:44Z</time>
  <course>242.03</course>
  <speed>0.0</speed>
  <fix>3d</fix>
</trkpt>
<trkpt lat="40.0713749" lon="-105.229789">
  <ele>1583.0</ele>
  <time>2026-08-28T17:49:45Z</time>
  <course>0.0</course>
  <speed>0.0</speed>
  <fix>3d</fix>
</trkpt>
<trkpt lat="40.0713749" lon="-105.229789">
  <ele>1583.0</ele>
  <time>2026-08-28T17:49:45Z</time>
  <course>242.29</course>
  <speed>0.0</speed>
  <fix>3d</fix>
</trkpt>
<trkpt lat="40.0713749" lon="-105.229789">
  <ele>1583.0</ele>
  <time>2026-08-28T17:49:45Z</time>
  <course>0.0</course>
  <speed>0.0</speed>
  <fix>3d</fix>
</trkpt>
<trkpt lat="40.0713749" lon="-105.229789">
  <ele>1583.0</ele>
  <time>2026-08-28T17:49:45Z</time>
  <course>242.54</course>
  <speed>0.0</speed>
  <fix>3d</fix>
</trkpt>
<trkpt lat="40.0713749" lon="-105.229789">
  <ele>1583.0</ele>
  <time>2026-08-28T17:49:45Z</time>
  <course>0.0</course>
  <speed>0.0</speed>
  <fix>3d</fix>
</trkpt>
<trkpt lat="40.0713749" lon="-105.229789">
  <ele>1583.0</ele>
  <time>2026-08-28T17:49:45Z</time>
  <course>242.79</course>
  <speed>0.0</speed>
  <fix>3d</fix>
</trkpt>
<trkpt lat="40.0713749" lon="-105.229789">
  <ele>1583.0</ele>
  <time>2026-08-28T17:49:45Z</time>
  <course>0.0</course>
  <speed>0.0</speed>
  <fix>3d</fix>
</trkpt>
<trkpt lat="40.0713749" lon="-105.229789">
  <ele>1583.0</ele>
  <time>2026-08-28T17:49:45Z</time>
  <course>243.02</course>
  <speed>0.0</speed>
  <fix>3d</fix>
</trkpt>
<trkpt lat="40.0713749" lon="-105.229789">
  <ele>1583.0</ele>
  <time>2026-08-28T17:49:45Z</time>
  <course>0.0</course>
  <speed>0.0</speed>
  <fix>3d</fix>
</trkpt>
<trkpt lat="40.0713749" lon="-105.229789">
  <ele>1583.0</ele>
  <time>2026-08-28T17:49:45Z</time>
  <course>243.25</course>
  <speed>0.0</speed>
  <fix>3d</fix>
</trkpt>
<trkpt lat="40.0713749" lon="-105.229789">
  <ele>1583.0</ele>
  <time>2026-08-28T17:49:45Z</time>
  <course>0.0</course>
  <speed>0.0</speed>
  <fix>3d</fix>
</trkpt>
<trkpt lat="40.0713749" lon="-105.229789">
  <ele>1583.0</ele>
  <time>2026-08-28T17:49:45Z</time>
  <course>243.47</course>
  <speed>0.0</speed>
  <fix>3d</fix>
</trkpt>
<trkpt lat="40.0713749" lon="-105.229789">
  <ele>1583.0</ele>
  <time>2026-08-28T17:49:45Z</time>
  <course>0.0</course>
  <speed>0.0</speed>
  <fix>3d</fix>
</trkpt>
<trkpt lat="40.0713749" lon="-105.229789">
  <ele>1583.0</ele>
  <time>2026-08-28T17:49:45Z</time>
  <course>243.68</course>
  <speed>0.0</speed>
  <fix>3d</fix>
</trkpt>
<trkpt lat="40.0713749" lon="-105.229789">
  <ele>1583.0</ele>
  <time>2026-08-28T17:49:45Z</time>
  <course>0.0</course>
  <speed>0.0</speed>
  <fix>3d</fix>
</trkpt>
<trkpt lat="40.0713749" lon="-105.229789">
  <ele>1583.0</ele>
  <time>2026-08-28T17:49:45Z</time>
  <course>243.89</course>
  <speed>0.0</speed>
  <fix>3d</fix>
</trkpt>
<trkpt lat="40.0713749" lon="-105.229789">
  <ele>1583.0</ele>
  <time>2026-08-28T17:49:45Z</time>
  <course>0.0</course>
  <speed>0.0</speed>
  <fix>3d</fix>
</trkpt>
<trkpt lat="40.0713749" lon="-105.229789">
  <ele>1583.0</ele>
  <time>2026-08-28T17:49:45Z</time>
  <course>244.09</course>
  <speed>0.0</speed>
  <fix>3d</fix>
</trkpt>
<trkpt lat="40.0713749" lon="-105.229789">
  <ele>1583.0</ele>
  <time>2026-08-28T17:49:45Z</time>
  <course>0.0</course>
  <speed>0.0</speed>
  <fix>3d</fix>
</trkpt>
<trkpt lat="40.0713749" lon="-105.229789">
  <ele>1583.0</ele>
  <time>2026-08-28T17:49:45Z</time>
  <course>244.28</course>
  <speed>0.0</speed>
  <fix>3d</fix>
</trkpt>
<trkpt lat="40.0713749" lon="-105.229789">
  <ele>1583.0</ele>
  <time>2026-08-28T17:49:45Z</time>
  <course>0.0</course>
  <speed>0.0</speed>
  <fix>3d</fix>
</trkpt>
<trkpt lat="40.0713749" lon="-105.229789">
  <ele>1583.0</ele>
  <time>2026-08-28T17:49:45Z</time>
  <course>244.46</course>
  <speed>0.0</speed>
  <fix>3d</fix>
</trkpt>
<trkpt lat="40.0713749" lon="-105.229789">
  <ele>1583.0</ele>
  <time>2026-08-28T17:49:45Z</time>
  <course>0.0</course>
  <speed>0.0</speed>
  <fix>3d</fix>
</trkpt>
<trkpt lat="40.0713749" lon="-105.229789">
  <ele>1583.0</ele>
  <time>2026-08-28T17:49:45Z</time>
  <course>244.64</course>
  <speed>0.0</speed>
  <fix>3d</fix>
</trkpt>
<trkpt lat="40.0713749" lon="-105.229789">
  <ele>1583.0</ele>
  <time>2026-08-28T17:49:45Z</time>
  <course>0.0</course>
  <speed>0.0</speed>
  <fix>3d</fix>
</trkpt>
<trkpt lat="40.0713749" lon="-105.229789">
  <ele>1583.0</ele>
  <time>2026-08-28T17:49:45Z</time>
  <course>244.81</course>
  <speed>0.0</speed>
  <fix>3d</fix>
</trkpt>
<trkpt lat="40.0713749" lon="-105.229789">
  <ele>1583.0</ele>
  <time>2026-08-28T17:49:45Z</time>
  <course>0.0</course>
  <speed>0.0</speed>
  <fix>3d</fix>
</trkpt>
<trkpt lat="40.0713749" lon="-105.229789">
  <ele>1583.0</ele>
  <time>2026-08-28T17:49:45Z</time>
  <course>244.97</course>
  <speed>0.0</speed>
  <fix>3d</fix>
</trkpt>
<trkpt lat="40.0713749" lon="-105.229789">
  <ele>1583.0</ele>
  <time>2026-08-28T17:49:45Z</time>
  <course>0.0</course>
  <speed>0.0</speed>
  <fix>3d</fix>
</trkpt>
<trkpt lat="40.0713749" lon="-105.229789">
  <ele>1583.0</ele>
  <time>2026-08-28T17:49:45Z</time>
  <course>245.13</course>
  <speed>0.0</speed>
  <fix>3d</fix>
</trkpt>
<trkpt lat="40.0713749" lon="-105.229789">
  <ele>1583.0</ele>
  <time>2026-08-28T17:49:45Z</time>
  <course>0.0</course>
  <speed>0.0</speed>
  <fix>3d</fix>
</trkpt>
<trkpt lat="40.0713749" lon="-105.229789">
  <ele>1583.0</ele>
  <time>2026-08-28T17:49:45Z</time>
  <course>245.29</course>
  <speed>0.0</speed>
  <fix>3d</fix>
</trkpt>
<trkpt lat="40.0713749" lon="-105.229789">
  <ele>1583.0</ele>
  <time>2026-08-28T17:49:45Z</time>
  <course>0.0</course>
  <speed>0.0</speed>
  <fix>3d</fix>
</trkpt>
<trkpt lat="40.0713749" lon="-105.229789">
  <ele>1583.0</ele>
  <time>2026-08-28T17:49:45Z</time>
  <course>245.43</course>
  <speed>0.0</speed>
  <fix>3d</fix>
</trkpt>
<trkpt lat="40.0713749" lon="-105.229789">
  <ele>1583.0</ele>
  <time>2026-08-28T17:49:45Z</time>
  <course>0.0</course>
  <speed>0.0</speed>
  <fix>3d</fix>
</trkpt>
<trkpt lat="40.0713749" lon="-105.229789">
  <ele>1583.0</ele>
  <time>2026-08-28T17:49:45Z</time>
  <course>245.57</course>
  <speed>0.0</speed>
  <fix>3d</fix>
</trkpt>
<trkpt lat="40.0713749" lon="-105.229789">
  <ele>1583.0</ele>
  <time>2026-08-28T17:49:45Z</time>
  <course>0.0</course>
  <speed>0.0</speed>
  <fix>3d</fix>
</trkpt>
<trkpt lat="40.0713749" lon="-105.229789">
  <ele>1583.0</ele>
  <time>2026-08-28T17:49:45Z</time>
  <course>245.71</course>
  <speed>0.0</speed>
  <fix>3d</fix>
</trkpt>
<trkpt lat="40.0713749" lon="-105.229789">
  <ele>1583.0</ele>
  <time>2026-08-28T17:49:45Z</time>
  <course>0.0</course>
  <speed>0.0</speed>
  <fix>3d</fix>
</trkpt>
<trkpt lat="40.0713749" lon="-105.229789">
  <ele>1583.0</ele>
  <time>2026-08-28T17:49:45Z</time>
  <course>245.84</course>
  <speed>0.0</speed>
  <fix>3d</fix>
</trkpt>
<trkpt lat="40.0713749" lon="-105.229789">
  <ele>1583.0</ele>
  <time>2026-08-28T17:49:45Z</time>
  <course>0.0</course>
  <speed>0.0</speed>
  <fix>3d</fix>
</trkpt>
<trkpt lat="40.0713749" lon="-105.229789">
  <ele>1583.0</ele>
  <time>2026-08-28T17:49:45Z</time>
  <course>245.96</course>
  <speed>0.0</speed>
  <fix>3d</fix>
</trkpt>
<trkpt lat="40.0713749" lon="-105.229789">
  <ele>1583.0</ele>
  <time>2026-08-28T17:49:45Z</time>
  <course>0.0</course>
  <speed>0.0</speed>
  <fix>3d</fix>
</trkpt>
<trkpt lat="40.0713749" lon="-105.229789">
  <ele>1583.0</ele>
  <time>2026-08-28T17:49:45Z</time>
  <course>246.08</course>
  <speed>0.0</speed>
  <fix>3d</fix>
</trkpt>
<trkpt lat="40.0713749" lon="-105.229789">
  <ele>1583.0</ele>
  <time>2026-08-28T17:49:45Z</time>
  <course>0.0</course>
  <speed>0.0</speed>
  <fix>3d</fix>
</trkpt>
<trkpt lat="40.0713749" lon="-105.229789">
  <ele>1583.0</ele>
  <time>2026-08-28T17:49:45Z</time>
  <course>246.19</course>
  <speed>0.0</speed>
  <fix>3d</fix>
</trkpt>
<trkpt lat="40.0713749" lon="-105.229789">
  <ele>1583.0</ele>
  <time>2026-08-28T17:49:45Z</time>
  <course>0.0</course>
  <speed>0.0</speed>
  <fix>3d</fix>
</trkpt>
<trkpt lat="40.0713749" lon="-105.229789">
  <ele>1583.0</ele>
  <time>2026-08-28T17:49:45Z</time>
  <course>246.3</course>
  <speed>0.0</speed>
  <fix>3d</fix>
</trkpt>
<trkpt lat="40.0713749" lon="-105.229789">
  <ele>1583.0</ele>
  <time>2026-08-28T17:49:45Z</time>
  <course>0.0</course>
  <speed>0.0</speed>
  <fix>3d</fix>
</trkpt>
<trkpt lat="40.0713749" lon="-105.229789">
  <ele>1583.0</ele>
  <time>2026-08-28T17:49:45Z</time>
  <course>246.41</course>
  <speed>0.0</speed>
  <fix>3d</fix>
</trkpt>
<trkpt lat="40.0713749" lon="-105.229789">
  <ele>1583.0</ele>
  <time>2026-08-28T17:49:45Z</time>
  <course>0.0</course>
  <speed>0.0</speed>
  <fix>3d</fix>
</trkpt>
<trkpt lat="40.0713749" lon="-105.229789">
  <ele>1583.0</ele>
  <time>2026-08-28T17:49:45Z</time>
  <course>246.51</course>
  <speed>0.0</speed>
  <fix>3d</fix>
</trkpt>
<trkpt lat="40.0713749" lon="-105.229789">
  <ele>1583.0</ele>
  <time>2026-08-28T17:49:45Z</time>
  <course>0.0</course>
  <speed>0.0</speed>
  <fix>3d</fix>
</trkpt>
<trkpt lat="40.0713749" lon="-105.229789">
  <ele>1583.0</ele>
  <time>2026-08-28T17:49:45Z</time>
  <course>246.6</course>
  <speed>0.0</speed>
  <fix>3d</fix>
</trkpt>
<trkpt lat="40.0713749" lon="-105.229789">
  <ele>1583.0</ele>
  <time>2026-08-28T17:49:45Z</time>
  <course>0.0</course>
  <speed>0.0</speed>
  <fix>3d</fix>
</trkpt>
<trkpt lat="40.0713749" lon="-105.229789">
  <ele>1583.0</ele>
  <time>2026-08-28T17:49:45Z</time>
  <course>246.7</course>
  <speed>0.0</speed>
  <fix>3d</fix>
</trkpt>
<trkpt lat="40.0713749" lon="-105.229789">
  <ele>1583.0</ele>
  <time>2026-08-28T17:49:45Z</time>
  <course>0.0</course>
  <speed>0.0</speed>
  <fix>3d</fix>
</trkpt>
<trkpt lat="40.0713749" lon="-105.229789">
  <ele>1583.0</ele>
  <time>2026-08-28T17:49:45Z</time>
  <course>246.78</course>
  <speed>0.0</speed>
  <fix>3d</fix>
</trkpt>
<trkpt lat="40.0713749" lon="-105.229789">
  <ele>1583.0</ele>
  <time>2026-08-28T17:49:45Z</time>
  <course>0.0</course>
  <speed>0.0</speed>
  <fix>3d</fix>
</trkpt>
<trkpt lat="40.0713749" lon="-105.229789">
  <ele>1583.0</ele>
  <time>2026-08-28T17:49:45Z</time>
  <course>246.87</course>
  <speed>0.0</speed>
  <fix>3d</fix>
</trkpt>
<trkpt lat="40.0713749" lon="-105.229789">
  <ele>1583.0</ele>
  <time>2026-08-28T17:49:45Z</time>
  <course>0.0</course>
  <speed>0.0</speed>
  <fix>3d</fix>
</trkpt>
<trkpt lat="40.0713749" lon="-105.229789">
  <ele>1583.0</ele>
  <time>2026-08-28T17:49:45Z</time>
  <course>246.95</course>
  <speed>0.0</speed>
  <fix>3d</fix>
</trkpt>
<trkpt lat="40.0713749" lon="-105.229789">
  <ele>1583.0</ele>
  <time>2026-08-28T17:49:45Z</time>
  <course>0.0</course>
  <speed>0.0</speed>
  <fix>3d</fix>
</trkpt>
<trkpt lat="40.0713749" lon="-105.229789">
  <ele>1583.0</ele>
  <time>2026-08-28T17:49:45Z</time>
  <course>247.02</course>
  <speed>0.0</speed>
  <fix>3d</fix>
</trkpt>
<trkpt lat="40.0713749" lon="-105.229789">
  <ele>1583.0</ele>
  <time>2026-08-28T17:49:45Z</time>
  <course>0.0</course>
  <speed>0.0</speed>
  <fix>3d</fix>
</trkpt>
<trkpt lat="40.0713749" lon="-105.229789">
  <ele>1583.0</ele>
  <time>2026-08-28T17:49:45Z</time>
  <course>247.1</course>
  <speed>0.0</speed>
  <fix>3d</fix>
</trkpt>
<trkpt lat="40.0713749" lon="-105.229789">
  <ele>1583.0</ele>
  <time>2026-08-28T17:49:45Z</time>
  <course>0.0</course>
  <speed>0.0</speed>
  <fix>3d</fix>
</trkpt>
<trkpt lat="40.0713749" lon="-105.229789">
  <ele>1583.0</ele>
  <time>2026-08-28T17:49:45Z</time>
  <course>247.17</course>
  <speed>0.0</speed>
  <fix>3d</fix>
</trkpt>
<trkpt lat="40.0713749" lon="-105.229789">
  <ele>1583.0</ele>
  <time>2026-08-28T17:49:45Z</time>
  <course>0.0</course>
  <speed>0.0</speed>
  <fix>3d</fix>
</trkpt>
<trkpt lat="40.0713749" lon="-105.229789">
  <ele>1583.0</ele>
  <time>2026-08-28T17:49:45Z</time>
  <course>247.24</course>
  <speed>0.0</speed>
  <fix>3d</fix>
</trkpt>
<trkpt lat="40.0713749" lon="-105.229789">
  <ele>1583.0</ele>
  <time>2026-08-28T17:49:45Z</time>
  <course>0.0</course>
  <speed>0.0</speed>
  <fix>3d</fix>
</trkpt>
<trkpt lat="40.0713749" lon="-105.229789">
  <ele>1583.0</ele>
  <time>2026-08-28T17:49:45Z</time>
  <course>247.3</course>
  <speed>0.0</speed>
  <fix>3d</fix>
</trkpt>
<trkpt lat="40.0713749" lon="-105.229789">
  <ele>1583.0</ele>
  <time>2026-08-28T17:49:45Z</time>
  <course>0.0</course>
  <speed>0.0</speed>
  <fix>3d</fix>
</trkpt>
<trkpt lat="40.0713749" lon="-105.229789">
  <ele>1583.0</ele>
  <time>2026-08-28T17:49:45Z</time>
  <course>247.36</course>
  <speed>0.0</speed>
  <fix>3d</fix>
</trkpt>
<trkpt lat="40.0713749" lon="-105.229789">
  <ele>1583.0</ele>
  <time>2026-08-28T17:49:45Z</time>
  <course>0.0</course>
  <speed>0.0</speed>
  <fix>3d</fix>
</trkpt>
<trkpt lat="40.0713749" lon="-105.229789">
  <ele>1583.0</ele>
  <time>2026-08-28T17:49:45Z</time>
  <course>247.42</course>
  <speed>0.0</speed>
  <fix>3d</fix>
</trkpt>
<trkpt lat="40.0713749" lon="-105.229789">
  <ele>1583.0</ele>
  <time>2026-08-28T17:49:45Z</time>
  <course>0.0</course>
  <speed>0.0</speed>
  <fix>3d</fix>
</trkpt>
<trkpt lat="40.0713749" lon="-105.229789">
  <ele>1583.0</ele>
  <time>2026-08-28T17:49:45Z</time>
  <course>247.47</course>
  <speed>0.0</speed>
  <fix>3d</fix>
</trkpt>
<trkpt lat="40.0713749" lon="-105.229789">
  <ele>1583.0</ele>
  <time>2026-08-28T17:49:45Z</time>
  <course>0.0</course>
  <speed>0.0</speed>
  <fix>3d</fix>
</trkpt>
<trkpt lat="40.0713749" lon="-105.229789">
  <ele>1583.0</ele>
  <time>2026-08-28T17:49:45Z</time>
  <course>247.53</course>
  <speed>0.0</speed>
  <fix>3d</fix>
</trkpt>
<trkpt lat="40.0713749" lon="-105.229789">
  <ele>1583.0</ele>
  <time>2026-08-28T17:49:45Z</time>
  <course>0.0</course>
  <speed>0.0</speed>
  <fix>3d</fix>
</trkpt>
<trkpt lat="40.0713749" lon="-105.229789">
  <ele>1583.0</ele>
  <time>2026-08-28T17:49:45Z</time>
  <course>247.58</course>
  <speed>0.0</speed>
  <fix>3d</fix>
</trkpt>
<trkpt lat="40.0713749" lon="-105.229789">
  <ele>1583.0</ele>
  <time>2026-08-28T17:49:45Z</time>
  <course>0.0</course>
  <speed>0.0</speed>
  <fix>3d</fix>
</trkpt>
<trkpt lat="40.0713749" lon="-105.229789">
  <ele>1583.0</ele>
  <time>2026-08-28T17:49:45Z</time>
  <course>247.63</course>
  <speed>0.0</speed>
  <fix>3d</fix>
</trkpt>
<trkpt lat="40.0713749" lon="-105.229789">
  <ele>1583.0</ele>
  <time>2026-08-28T17:49:45Z</time>
  <course>0.0</course>
  <speed>0.0</speed>
  <fix>3d</fix>
</trkpt>
<trkpt lat="40.0713749" lon="-105.229789">
  <ele>1583.0</ele>
  <time>2026-08-28T17:49:45Z</time>
  <course>247.67</course>
  <speed>0.0</speed>
  <fix>3d</fix>
</trkpt>
<trkpt lat="40.0713749" lon="-105.229789">
  <ele>1583.0</ele>
  <time>2026-08-28T17:49:45Z</time>
  <course>0.0</course>
  <speed>0.0</speed>
  <fix>3d</fix>
</trkpt>
<trkpt lat="40.0713749" lon="-105.229789">
  <ele>1583.0</ele>
  <time>2026-08-28T17:49:45Z</time>
  <course>247.72</course>
  <speed>0.0</speed>
  <fix>3d</fix>
</trkpt>
<trkpt lat="40.0713749" lon="-105.229789">
  <ele>1583.0</ele>
  <time>2026-08-28T17:49:45Z</time>
  <course>0.0</course>
  <speed>0.0</speed>
  <fix>3d</fix>
</trkpt>
<trkpt lat="40.0713749" lon="-105.229789">
  <ele>1583.0</ele>
  <time>2026-08-28T17:49:45Z</time>
  <course>247.76</course>
  <speed>0.0</speed>
  <fix>3d</fix>
</trkpt>
<trkpt lat="40.0713749" lon="-105.229789">
  <ele>1583.0</ele>
  <time>2026-08-28T17:49:45Z</time>
  <course>0.0</course>
  <speed>0.0</speed>
  <fix>3d</fix>
</trkpt>
<trkpt lat="40.0713749" lon="-105.229789">
  <ele>1583.0</ele>
  <time>2026-08-28T17:49:45Z</time>
  <course>247.8</course>
  <speed>0.0</speed>
  <fix>3d</fix>
</trkpt>
<trkpt lat="40.0713749" lon="-105.229789">
  <ele>1583.0</ele>
  <time>2026-08-28T17:49:45Z</time>
  <course>0.0</course>
  <speed>0.0</speed>
  <fix>3d</fix>
</trkpt>
<trkpt lat="40.0713749" lon="-105.229789">
  <ele>1583.0</ele>
  <time>2026-08-28T17:49:45Z</time>
  <course>247.83</course>
  <speed>0.0</speed>
  <fix>3d</fix>
</trkpt>
<trkpt lat="40.0713749" lon="-105.229789">
  <ele>1583.0</ele>
  <time>2026-08-28T17:49:45Z</time>
  <course>0.0</course>
  <speed>0.0</speed>
  <fix>3d</fix>
</trkpt>
<trkpt lat="40.0713749" lon="-105.229789">
  <ele>1583.0</ele>
  <time>2026-08-28T17:49:45Z</time>
  <course>247.87</course>
  <speed>0.0</speed>
  <fix>3d</fix>
</trkpt>
<trkpt lat="40.0713749" lon="-105.229789">
  <ele>1583.0</ele>
  <time>2026-08-28T17:49:45Z</time>
  <course>0.0</course>
  <speed>0.0</speed>
  <fix>3d</fix>
</trkpt>
<trkpt lat="40.0713749" lon="-105.229789">
  <ele>1583.0</ele>
  <time>2026-08-28T17:49:45Z</time>
  <course>247.9</course>
  <speed>0.0</speed>
  <fix>3d</fix>
</trkpt>
<trkpt lat="40.0713749" lon="-105.229789">
  <ele>1583.0</ele>
  <time>2026-08-28T17:49:45Z</time>
  <course>0.0</course>
  <speed>0.0</speed>
  <fix>3d</fix>
</trkpt>
<trkpt lat="40.0713749" lon="-105.229789">
  <ele>1583.0</ele>
  <time>2026-08-28T17:49:45Z</time>
  <course>247.94</course>
  <speed>0.0</speed>
  <fix>3d</fix>
</trkpt>
<trkpt lat="40.0713749" lon="-105.229789">
  <ele>1583.0</ele>
  <time>2026-08-28T17:49:45Z</time>
  <course>0.0</course>
  <speed>0.0</speed>
  <fix>3d</fix>
</trkpt>
<trkpt lat="40.0713749" lon="-105.229789">
  <ele>1583.0</ele>
  <time>2026-08-28T17:49:45Z</time>
  <course>247.97</course>
  <speed>0.0</speed>
  <fix>3d</fix>
</trkpt>
<trkpt lat="40.0713749" lon="-105.229789">
  <ele>1583.0</ele>
  <time>2026-08-28T17:49:45Z</time>
  <course>0.0</course>
  <speed>0.0</speed>
  <fix>3d</fix>
</trkpt>
<trkpt lat="40.0713749" lon="-105.229789">
  <ele>1583.0</ele>
  <time>2026-08-28T17:49:45Z</time>
  <course>248.0</course>
  <speed>0.0</speed>
  <fix>3d</fix>
</trkpt>
<trkpt lat="40.0713749" lon="-105.229789">
  <ele>1583.0</ele>
  <time>2026-08-28T17:49:45Z</time>
  <course>0.0</course>
  <speed>0.0</speed>
  <fix>3d</fix>
</trkpt>
<trkpt lat="40.0713749" lon="-105.229789">
  <ele>1583.0</ele>
  <time>2026-08-28T17:49:45Z</time>
  <course>248.02</course>
  <speed>0.0</speed>
  <fix>3d</fix>
</trkpt>
<trkpt lat="40.0713749" lon="-105.229789">
  <ele>1583.0</ele>
  <time>2026-08-28T17:49:45Z</time>
  <course>0.0</course>
  <speed>0.0</speed>
  <fix>3d</fix>
</trkpt>
<trkpt lat="40.0713749" lon="-105.229789">
  <ele>1583.0</ele>
  <time>2026-08-28T17:49:45Z</time>
  <course>248.05</course>
  <speed>0.0</speed>
  <fix>3d</fix>
</trkpt>
<trkpt lat="40.0713749" lon="-105.229789">
  <ele>1583.0</ele>
  <time>2026-08-28T17:49:45Z</time>
  <course>0.0</course>
  <speed>0.0</speed>
  <fix>3d</fix>
</trkpt>
<trkpt lat="40.0713749" lon="-105.229789">
  <ele>1583.0</ele>
  <time>2026-08-28T17:49:45Z</time>
  <course>248.08</course>
  <speed>0.0</speed>
  <fix>3d</fix>
</trkpt>
<trkpt lat="40.0713749" lon="-105.229789">
  <ele>1583.0</ele>
  <time>2026-08-28T17:49:45Z</time>
  <course>0.0</course>
  <speed>0.0</speed>
  <fix>3d</fix>
</trkpt>
<trkpt lat="40.0713749" lon="-105.229789">
  <ele>1583.0</ele>
  <time>2026-08-28T17:49:45Z</time>
  <course>248.1</course>
  <speed>0.0</speed>
  <fix>3d</fix>
</trkpt>
<trkpt lat="40.0713749" lon="-105.229789">
  <ele>1583.0</ele>
  <time>2026-08-28T17:49:45Z</time>
  <course>0.0</course>
  <speed>0.0</speed>
  <fix>3d</fix>
</trkpt>
<trkpt lat="40.0713749" lon="-105.229789">
  <ele>1583.0</ele>
  <time>2026-08-28T17:49:45Z</time>
  <course>248.12</course>
  <speed>0.0</speed>
  <fix>3d</fix>
</trkpt>
<trkpt lat="40.0713749" lon="-105.229789">
  <ele>1583.0</ele>
  <time>2026-08-28T17:49:45Z</time>
  <course>0.0</course>
  <speed>0.0</speed>
  <fix>3d</fix>
</trkpt>
<trkpt lat="40.0713749" lon="-105.229789">
  <ele>1583.0</ele>
  <time>2026-08-28T17:49:45Z</time>
  <course>248.14</course>
  <speed>0.0</speed>
  <fix>3d</fix>
</trkpt>
<trkpt lat="40.0713749" lon="-105.229789">
  <ele>1583.0</ele>
  <time>2026-08-28T17:49:45Z</time>
  <course>0.0</course>
  <speed>0.0</speed>
  <fix>3d</fix>
</trkpt>
<trkpt lat="40.0713749" lon="-105.229789">
  <ele>1583.0</ele>
  <time>2026-08-28T17:49:45Z</time>
  <course>248.16</course>
  <speed>0.0</speed>
  <fix>3d</fix>
</trkpt>
<trkpt lat="40.0713749" lon="-105.229789">
  <ele>1583.0</ele>
  <time>2026-08-28T17:49:45Z</time>
  <course>0.0</course>
  <speed>0.0</speed>
  <fix>3d</fix>
</trkpt>
<trkpt lat="40.0713749" lon="-105.229789">
  <ele>1583.0</ele>
  <time>2026-08-28T17:49:45Z</time>
  <course>248.18</course>
  <speed>0.0</speed>
  <fix>3d</fix>
</trkpt>
<trkpt lat="40.0713749" lon="-105.229789">
  <ele>1583.0</ele>
  <time>2026-08-28T17:49:45Z</time>
  <course>0.0</course>
  <speed>0.0</speed>
  <fix>3d</fix>
</trkpt>
<trkpt lat="40.0713749" lon="-105.229789">
  <ele>1583.0</ele>
  <time>2026-08-28T17:49:45Z</time>
  <course>248.2</course>
  <speed>0.0</speed>
  <fix>3d</fix>
</trkpt>
<trkpt lat="40.0713749" lon="-105.229789">
  <ele>1583.0</ele>
  <time>2026-08-28T17:49:45Z</time>
  <course>0.0</course>
  <speed>0.0</speed>
  <fix>3d</fix>
</trkpt>
<trkpt lat="40.0713749" lon="-105.229789">
  <ele>1583.0</ele>
  <time>2026-08-28T17:49:45Z</time>
  <course>248.22</course>
  <speed>0.0</speed>
  <fix>3d</fix>
</trkpt>
<trkpt lat="40.0713749" lon="-105.229789">
  <ele>1583.0</ele>
  <time>2026-08-28T17:49:45Z</time>
  <course>0.0</course>
  <speed>0.0</speed>
  <fix>3d</fix>
</trkpt>
<trkpt lat="40.0713749" lon="-105.229789">
  <ele>1583.0</ele>
  <time>2026-08-28T17:49:45Z</time>
  <course>248.23</course>
  <speed>0.0</speed>
  <fix>3d</fix>
</trkpt>
<trkpt lat="40.0713749" lon="-105.229789">
  <ele>1583.0</ele>
  <time>2026-08-28T17:49:45Z</time>
  <course>0.0</course>
  <speed>0.0</speed>
  <fix>3d</fix>
</trkpt>
<trkpt lat="40.0713749" lon="-105.229789">
  <ele>1583.0</ele>
  <time>2026-08-28T17:49:45Z</time>
  <course>248.25</course>
  <speed>0.0</speed>
  <fix>3d</fix>
</trkpt>
<trkpt lat="40.0713749" lon="-105.229789">
  <ele>1583.0</ele>
  <time>2026-08-28T17:49:45Z</time>
  <course>0.0</course>
  <speed>0.0</speed>
  <fix>3d</fix>
</trkpt>
<trkpt lat="40.0713749" lon="-105.229789">
  <ele>1583.0</ele>
  <time>2026-08-28T17:49:45Z</time>
  <course>248.26</course>
  <speed>0.0</speed>
  <fix>3d</fix>
</trkpt>
<trkpt lat="40.0713749" lon="-105.229789">
  <ele>1583.0</ele>
  <time>2026-08-28T17:49:45Z</time>
  <course>0.0</course>
  <speed>0.0</speed>
  <fix>3d</fix>
</trkpt>
<trkpt lat="40.0713749" lon="-105.229789">
  <ele>1583.0</ele>
  <time>2026-08-28T17:49:45Z</time>
  <course>248.28</course>
  <speed>0.0</speed>
  <fix>3d</fix>
</trkpt>
<trkpt lat="40.0713749" lon="-105.229789">
  <ele>1583.0</ele>
  <time>2026-08-28T17:49:45Z</time>
  <course>0.0</course>
  <speed>0.0</speed>
  <fix>3d</fix>
</trkpt>
<trkpt lat="40.0713749" lon="-105.229789">
  <ele>1583.0</ele>
  <time>2026-08-28T17:49:45Z</time>
  <course>248.29</course>
  <speed>0.0</speed>
  <fix>3d</fix>
</trkpt>
<trkpt lat="40.0713749" lon="-105.229789">
  <ele>1583.0</ele>
  <time>2026-08-28T17:49:45Z</time>
  <course>0.0</course>
  <speed>0.0</speed>
  <fix>3d</fix>
</trkpt>
<trkpt lat="40.0713749" lon="-105.229789">
  <ele>1583.0</ele>
  <time>2026-08-28T17:49:45Z</time>
  <course>248.3</course>
  <speed>0.0</speed>
  <fix>3d</fix>
</trkpt>
<trkpt lat="40.0713749" lon="-105.229789">
  <ele>1583.0</ele>
  <time>2026-08-28T17:49:45Z</time>
  <course>0.0</course>
  <speed>0.0</speed>
  <fix>3d</fix>
</trkpt>
<trkpt lat="40.0713749" lon="-105.229789">
  <ele>1583.0</ele>
  <time>2026-08-28T17:49:45Z</time>
  <course>248.31</course>
  <speed>0.0</speed>
  <fix>3d</fix>
</trkpt>
<trkpt lat="40.0713749" lon="-105.229789">
  <ele>1583.0</ele>
  <time>2026-08-28T17:49:45Z</time>
  <course>0.0</course>
  <speed>0.0</speed>
  <fix>3d</fix>
</trkpt>
<trkpt lat="40.0713749" lon="-105.229789">
  <ele>1583.0</ele>
  <time>2026-08-28T17:49:45Z</time>
  <course>248.32</course>
  <speed>0.0</speed>
  <fix>3d</fix>
</trkpt>
<trkpt lat="40.0713749" lon="-105.229789">
  <ele>1583.0</ele>
  <time>2026-08-28T17:49:45Z</time>
  <course>0.0</course>
  <speed>0.0</speed>
  <fix>3d</fix>
</trkpt>
<trkpt lat="40.0713749" lon="-105.229789">
  <ele>1583.0</ele>
  <time>2026-08-28T17:49:45Z</time>
  <course>248.33</course>
  <speed>0.0</speed>
  <fix>3d</fix>
</trkpt>
<trkpt lat="40.0713749" lon="-105.229789">
  <ele>1583.0</ele>
  <time>2026-08-28T17:49:45Z</time>
  <course>0.0</course>
  <speed>0.0</speed>
  <fix>3d</fix>
</trkpt>
<trkpt lat="40.0713749" lon="-105.229789">
  <ele>1583.0</ele>
  <time>2026-08-28T17:49:45Z</time>
  <course>248.34</course>
  <speed>0.0</speed>
  <fix>3d</fix>
</trkpt>
<trkpt lat="40.0713749" lon="-105.229789">
  <ele>1583.0</ele>
  <time>2026-08-28T17:49:45Z</time>
  <course>0.0</course>
  <speed>0.0</speed>
  <fix>3d</fix>
</trkpt>
<trkpt lat="40.0713749" lon="-105.229789">
  <ele>1583.0</ele>
  <time>2026-08-28T17:49:45Z</time>
  <course>248.35</course>
  <speed>0.0</speed>
  <fix>3d</fix>
</trkpt>
<trkpt lat="40.0713749" lon="-105.229789">
  <ele>1583.0</ele>
  <time>2026-08-28T17:49:45Z</time>
  <course>0.0</course>
  <speed>0.0</speed>
  <fix>3d</fix>
</trkpt>
<trkpt lat="40.0713749" lon="-105.229789">
  <ele>1583.0</ele>
  <time>2026-08-28T17:49:45Z</time>
  <course>248.35</course>
  <speed>0.0</speed>
  <fix>3d</fix>
</trkpt>
<trkpt lat="40.0713749" lon="-105.229789">
  <ele>1583.0</ele>
  <time>2026-08-28T17:49:45Z</time>
  <course>0.0</course>
  <speed>0.0</speed>
  <fix>3d</fix>
</trkpt>
<trkpt lat="40.0713749" lon="-105.229789">
  <ele>1583.0</ele>
  <time>2026-08-28T17:49:45Z</time>
  <course>248.36</course>
  <speed>0.0</speed>
  <fix>3d</fix>
</trkpt>
<trkpt lat="40.0713749" lon="-105.229789">
  <ele>1583.0</ele>
  <time>2026-08-28T17:49:45Z</time>
  <course>0.0</course>
  <speed>0.0</speed>
  <fix>3d</fix>
</trkpt>
<trkpt lat="40.0713749" lon="-105.229789">
  <ele>1583.0</ele>
  <time>2026-08-28T17:49:45Z</time>
  <course>248.37</course>
  <speed>0.0</speed>
  <fix>3d</fix>
</trkpt>
<trkpt lat="40.0713749" lon="-105.229789">
  <ele>1583.0</ele>
  <time>2026-08-28T17:49:45Z</time>
  <course>0.0</course>
  <speed>0.0</speed>
  <fix>3d</fix>
</trkpt>
<trkpt lat="40.0713749" lon="-105.229789">
  <ele>1583.0</ele>
  <time>2026-08-28T17:49:45Z</time>
  <course>248.37</course>
  <speed>0.0</speed>
  <fix>3d</fix>
</trkpt>
<trkpt lat="40.0713749" lon="-105.229789">
  <ele>1583.0</ele>
  <time>2026-08-28T17:49:45Z</time>
  <course>0.0</course>
  <speed>0.0</speed>
  <fix>3d</fix>
</trkpt>
<trkpt lat="40.0713749" lon="-105.229789">
  <ele>1583.0</ele>
  <time>2026-08-28T17:49:45Z</time>
  <course>248.38</course>
  <speed>0.0</speed>
  <fix>3d</fix>
</trkpt>
<trkpt lat="40.0713749" lon="-105.229789">
  <ele>1583.0</ele>
  <time>2026-08-28T17:49:45Z</time>
  <course>0.0</course>
  <speed>0.0</speed>
  <fix>3d</fix>
</trkpt>
<trkpt lat="40.0713749" lon="-105.229789">
  <ele>1583.0</ele>
  <time>2026-08-28T17:49:45Z</time>
  <course>248.38</course>
  <speed>0.0</speed>
  <fix>3d</fix>
</trkpt>
<trkpt lat="40.0713749" lon="-105.229789">
  <ele>1583.0</ele>
  <time>2026-08-28T17:49:45Z</time>
  <course>0.0</course>
  <speed>0.0</speed>
  <fix>3d</fix>
</trkpt>
<trkpt lat="40.0713749" lon="-105.229789">
  <ele>1583.0</ele>
  <time>2026-08-28T17:49:45Z</time>
  <course>248.39</course>
  <speed>0.0</speed>
  <fix>3d</fix>
</trkpt>
<trkpt lat="40.0713749" lon="-105.229789">
  <ele>1583.0</ele>
  <time>2026-08-28T17:49:45Z</time>
  <course>0.0</course>
  <speed>0.0</speed>
  <fix>3d</fix>
</trkpt>
<trkpt lat="40.0713749" lon="-105.229789">
  <ele>1583.0</ele>
  <time>2026-08-28T17:49:45Z</time>
  <course>248.39</course>
  <speed>0.0</speed>
  <fix>3d</fix>
</trkpt>
<trkpt lat="40.0713749" lon="-105.229789">
  <ele>1583.0</ele>
  <time>2026-08-28T17:49:45Z</time>
  <course>0.0</course>
  <speed>0.0</speed>
  <fix>3d</fix>
</trkpt>
<trkpt lat="40.0713749" lon="-105.229789">
  <ele>1583.0</ele>
  <time>2026-08-28T17:49:45Z</time>
  <course>248.4</course>
  <speed>0.0</speed>
  <fix>3d</fix>
</trkpt>
<trkpt lat="40.0713749" lon="-105.229789">
  <ele>1583.0</ele>
  <time>2026-08-28T17:49:45Z</time>
  <course>0.0</course>
  <speed>0.0</speed>
  <fix>3d</fix>
</trkpt>
<trkpt lat="40.0713749" lon="-105.229789">
  <ele>1583.0</ele>
  <time>2026-08-28T17:49:45Z</time>
  <course>248.4</course>
  <speed>0.0</speed>
  <fix>3d</fix>
</trkpt>
<trkpt lat="40.0713749" lon="-105.229789">
  <ele>1583.0</ele>
  <time>2026-08-28T17:49:45Z</time>
  <course>0.0</course>
  <speed>0.0</speed>
  <fix>3d</fix>
</trkpt>
<trkpt lat="40.0713749" lon="-105.229789">
  <ele>1583.0</ele>
  <time>2026-08-28T17:49:45Z</time>
  <course>248.4</course>
  <speed>0.0</speed>
  <fix>3d</fix>
</trkpt>
<trkpt lat="40.0713749" lon="-105.229789">
  <ele>1583.0</ele>
  <time>2026-08-28T17:49:45Z</time>
  <course>0.0</course>
  <speed>0.0</speed>
  <fix>3d</fix>
</trkpt>
<trkpt lat="40.0713749" lon="-105.229789">
  <ele>1583.0</ele>
  <time>2026-08-28T17:49:45Z</time>
  <course>248.4</course>
  <speed>0.0</speed>
  <fix>3d</fix>
</trkpt>
<trkpt lat="40.0713749" lon="-105.229789">
  <ele>1583.0</ele>
  <time>2026-08-28T17:49:45Z</time>
  <course>0.0</course>
  <speed>0.0</speed>
  <fix>3d</fix>
</trkpt>
<trkpt lat="40.0713749" lon="-105.229789">
  <ele>1583.0</ele>
  <time>2026-08-28T17:49:45Z</time>
  <course>248.41</course>
  <speed>0.0</speed>
  <fix>3d</fix>
</trkpt>
<trkpt lat="40.0713749" lon="-105.229789">
  <ele>1583.0</ele>
  <time>2026-08-28T17:49:45Z</time>
  <course>0.0</course>
  <speed>0.0</speed>
  <fix>3d</fix>
</trkpt>
<trkpt lat="40.0713749" lon="-105.229789">
  <ele>1583.0</ele>
  <time>2026-08-28T17:49:45Z</time>
  <course>248.41</course>
  <speed>0.0</speed>
  <fix>3d</fix>
</trkpt>
<trkpt lat="40.0713749" lon="-105.229789">
  <ele>1583.0</ele>
  <time>2026-08-28T17:49:45Z</time>
  <course>0.0</course>
  <speed>0.0</speed>
  <fix>3d</fix>
</trkpt>
<trkpt lat="40.0713749" lon="-105.229789">
  <ele>1583.0</ele>
  <time>2026-08-28T17:49:45Z</time>
  <course>248.41</course>
  <speed>0.0</speed>
  <fix>3d</fix>
</trkpt>
<trkpt lat="40.0713749" lon="-105.229789">
  <ele>1583.0</ele>
  <time>2026-08-28T17:49:45Z</time>
  <course>0.0</course>
  <speed>0.0</speed>
  <fix>3d</fix>
</trkpt>
<trkpt lat="40.0713749" lon="-105.229789">
  <ele>1583.0</ele>
  <time>2026-08-28T17:49:45Z</time>
  <course>248.41</course>
  <speed>0.0</speed>
  <fix>3d</fix>
</trkpt>
<trkpt lat="40.0713749" lon="-105.229789">
  <ele>1583.0</ele>
  <time>2026-08-28T17:49:45Z</time>
  <course>0.0</course>
  <speed>0.0</speed>
  <fix>3d</fix>
</trkpt>
<trkpt lat="40.0713749" lon="-105.229789">
  <ele>1583.0</ele>
  <time>2026-08-28T17:49:45Z</time>
  <course>248.41</course>
  <speed>0.0</speed>
  <fix>3d</fix>
</trkpt>
<trkpt lat="40.0713749" lon="-105.229789">
  <ele>1583.0</ele>
  <time>2026-08-28T17:49:45Z</time>
  <course>0.0</course>
  <speed>0.0</speed>
  <fix>3d</fix>
</trkpt>
<trkpt lat="40.0713749" lon="-105.229789">
  <ele>1583.0</ele>
  <time>2026-08-28T17:49:45Z</time>
  <course>248.41</course>
  <speed>0.0</speed>
  <fix>3d</fix>
</trkpt>
<trkpt lat="40.0713749" lon="-105.229789">
  <ele>1583.0</ele>
  <time>2026-08-28T17:49:45Z</time>
  <course>0.0</course>
  <speed>0.0</speed>
  <fix>3d</fix>
</trkpt>
<trkpt lat="40.0713749" lon="-105.229789">
  <ele>1583.0</ele>
  <time>2026-08-28T17:49:45Z</time>
  <course>248.41</course>
  <speed>0.0</speed>
  <fix>3d</fix>
</trkpt>
<trkpt lat="40.0713749" lon="-105.229789">
  <ele>1583.0</ele>
  <time>2026-08-28T17:49:45Z</time>
  <course>0.0</course>
  <speed>0.0</speed>
  <fix>3d</fix>
</trkpt>
<trkpt lat="40.0713749" lon="-105.229789">
  <ele>1583.0</ele>
  <time>2026-08-28T17:49:45Z</time>
  <course>248.41</course>
  <speed>0.0</speed>
  <fix>3d</fix>
</trkpt>
<trkpt lat="40.0713749" lon="-105.229789">
  <ele>1583.0</ele>
  <time>2026-08-28T17:49:45Z</time>
  <course>0.0</course>
  <speed>0.0</speed>
  <fix>3d</fix>
</trkpt>
<trkpt lat="40.0713749" lon="-105.229789">
  <ele>1583.0</ele>
  <time>2026-08-28T17:49:45Z</time>
  <course>248.41</course>
  <speed>0.0</speed>
  <fix>3d</fix>
</trkpt>
<trkpt lat="40.0713749" lon="-105.229789">
  <ele>1583.0</ele>
  <time>2026-08-28T17:49:45Z</time>
  <course>0.0</course>
  <speed>0.0</speed>
  <fix>3d</fix>
</trkpt>
<trkpt lat="40.0713749" lon="-105.229789">
  <ele>1583.0</ele>
  <time>2026-08-28T17:49:45Z</time>
  <course>248.41</course>
  <speed>0.0</speed>
  <fix>3d</fix>
</trkpt>
<trkpt lat="40.0713749" lon="-105.229789">
  <ele>1583.0</ele>
  <time>2026-08-28T17:49:45Z</time>
  <course>0.0</course>
  <speed>0.0</speed>
  <fix>3d</fix>
</trkpt>
<trkpt lat="40.0713749" lon="-105.229789">
  <ele>1583.0</ele>
  <time>2026-08-28T17:49:45Z</time>
  <course>248.41</course>
  <speed>0.0</speed>
  <fix>3d</fix>
</trkpt>
<trkpt lat="40.0713749" lon="-105.229789">
  <ele>1583.0</ele>
  <time>2026-08-28T17:49:45Z</time>
  <course>0.0</course>
  <speed>0.0</speed>
  <fix>3d</fix>
</trkpt>
<trkpt lat="40.0713749" lon="-105.229789">
  <ele>1583.0</ele>
  <time>2026-08-28T17:49:45Z</time>
  <course>248.41</course>
  <speed>0.0</speed>
  <fix>3d</fix>
</trkpt>
<trkpt lat="40.0713749" lon="-105.229789">
  <ele>1583.0</ele>
  <time>2026-08-28T17:49:45Z</time>
  <course>0.0</course>
  <speed>0.0</speed>
  <fix>3d</fix>
</trkpt>
<trkpt lat="40.0713749" lon="-105.229789">
  <ele>1583.0</ele>
  <time>2026-08-28T17:49:45Z</time>
  <course>248.41</course>
  <speed>0.0</speed>
  <fix>3d</fix>
</trkpt>
<trkpt lat="40.0713749" lon="-105.229789">
  <ele>1583.0</ele>
  <time>2026-08-28T17:49:45Z</time>
  <course>0.0</course>
  <speed>0.0</speed>
  <fix>3d</fix>
</trkpt>
<trkpt lat="40.0713749" lon="-105.229789">
  <ele>1583.0</ele>
  <time>2026-08-28T17:49:45Z</time>
  <course>248.41</course>
  <speed>0.0</speed>
  <fix>3d</fix>
</trkpt>
<trkpt lat="40.0713749" lon="-105.229789">
  <ele>1583.0</ele>
  <time>2026-08-28T17:49:45Z</time>
  <course>0.0</course>
  <speed>0.0</speed>
  <fix>3d</fix>
</trkpt>
<trkpt lat="40.0713749" lon="-105.229789">
  <ele>1583.0</ele>
  <time>2026-08-28T17:49:45Z</time>
  <course>248.41</course>
  <speed>0.0</speed>
  <fix>3d</fix>
</trkpt>
<trkpt lat="40.0713749" lon="-105.229789">
  <ele>1583.0</ele>
  <time>2026-08-28T17:49:45Z</time>
  <course>0.0</course>
  <speed>0.0</speed>
  <fix>3d</fix>
</trkpt>
<trkpt lat="40.0713749" lon="-105.229789">
  <ele>1583.0</ele>
  <time>2026-08-28T17:49:45Z</time>
  <course>248.41</course>
  <speed>0.0</speed>
  <fix>3d</fix>
</trkpt>
<trkpt lat="40.0713749" lon="-105.229789">
  <ele>1583.0</ele>
  <time>2026-08-28T17:49:45Z</time>
  <course>0.0</course>
  <speed>0.0</speed>
  <fix>3d</fix>
</trkpt>
<trkpt lat="40.0713749" lon="-105.229789">
  <ele>1583.0</ele>
  <time>2026-08-28T17:49:45Z</time>
  <course>248.4</course>
  <speed>0.0</speed>
  <fix>3d</fix>
</trkpt>
<trkpt lat="40.0713749" lon="-105.229789">
  <ele>1583.0</ele>
  <time>2026-08-28T17:49:45Z</time>
  <course>0.0</course>
  <speed>0.0</speed>
  <fix>3d</fix>
</trkpt>
<trkpt lat="40.0713749" lon="-105.229789">
  <ele>1583.0</ele>
  <time>2026-08-28T17:49:45Z</time>
  <course>248.4</course>
  <speed>0.01</speed>
  <fix>3d</fix>
</trkpt>
<trkpt lat="40.0713749" lon="-105.229789">
  <ele>1583.0</ele>
  <time>2026-08-28T17:49:45Z</time>
  <course>0.0</course>
  <speed>0.0</speed>
  <fix>3d</fix>
</trkpt>
<trkpt lat="40.0713749" lon="-105.229789">
  <ele>1583.0</ele>
  <time>2026-08-28T17:49:45Z</time>
  <course>248.4</course>
  <speed>0.01</speed>
  <fix>3d</fix>
</trkpt>
<trkpt lat="40.0713749" lon="-105.229789">
  <ele>1583.0</ele>
  <time>2026-08-28T17:49:45Z</time>
  <course>0.0</course>
  <speed>0.0</speed>
  <fix>3d</fix>
</trkpt>
<trkpt lat="40.0713749" lon="-105.229789">
  <ele>1583.0</ele>
  <time>2026-08-28T17:49:45Z</time>
  <course>248.4</course>
  <speed>0.01</speed>
  <fix>3d</fix>
</trkpt>
<trkpt lat="40.0713749" lon="-105.229789">
  <ele>1583.0</ele>
  <time>2026-08-28T17:49:45Z</time>
  <course>0.0</course>
  <speed>0.0</speed>
  <fix>3d</fix>
</trkpt>
<trkpt lat="40.0713749" lon="-105.229789">
  <ele>1583.0</ele>
  <time>2026-08-28T17:49:45Z</time>
  <course>248.4</course>
  <speed>0.01</speed>
  <fix>3d</fix>
</trkpt>
<trkpt lat="40.0713749" lon="-105.229789">
  <ele>1583.0</ele>
  <time>2026-08-28T17:49:45Z</time>
  <course>0.0</course>
  <speed>0.0</speed>
  <fix>3d</fix>
</trkpt>
<trkpt lat="40.0713749" lon="-105.229789">
  <ele>1583.0</ele>
  <time>2026-08-28T17:49:45Z</time>
  <course>248.39</course>
  <speed>0.01</speed>
  <fix>3d</fix>
</trkpt>
<trkpt lat="40.0713749" lon="-105.229789">
  <ele>1583.0</ele>
  <time>2026-08-28T17:49:45Z</time>
  <course>0.0</course>
  <speed>0.0</speed>
  <fix>3d</fix>
</trkpt>
<trkpt lat="40.0713749" lon="-105.229789">
  <ele>1583.0</ele>
  <time>2026-08-28T17:49:45Z</time>
  <course>248.39</course>
  <speed>0.01</speed>
  <fix>3d</fix>
</trkpt>
<trkpt lat="40.0713749" lon="-105.229789">
  <ele>1583.0</ele>
  <time>2026-08-28T17:49:45Z</time>
  <course>0.0</course>
  <speed>0.0</speed>
  <fix>3d</fix>
</trkpt>
<trkpt lat="40.0713749" lon="-105.229789">
  <ele>1583.0</ele>
  <time>2026-08-28T17:49:45Z</time>
  <course>248.39</course>
  <speed>0.01</speed>
  <fix>3d</fix>
</trkpt>
<trkpt lat="40.0713749" lon="-105.229789">
  <ele>1583.0</ele>
  <time>2026-08-28T17:49:45Z</time>
  <course>0.0</course>
  <speed>0.0</speed>
  <fix>3d</fix>
</trkpt>
<trkpt lat="40.0713749" lon="-105.229789">
  <ele>1583.0</ele>
  <time>2026-08-28T17:49:45Z</time>
  <course>248.38</course>
  <speed>0.01</speed>
  <fix>3d</fix>
</trkpt>
<trkpt lat="40.0713749" lon="-105.229789">
  <ele>1583.0</ele>
  <time>2026-08-28T17:49:45Z</time>
  <course>0.0</course>
  <speed>0.0</speed>
  <fix>3d</fix>
</trkpt>
<trkpt lat="40.0713749" lon="-105.229789">
  <ele>1583.0</ele>
  <time>2026-08-28T17:49:45Z</time>
  <course>248.38</course>
  <speed>0.01</speed>
  <fix>3d</fix>
</trkpt>
<trkpt lat="40.0713749" lon="-105.229789">
  <ele>1583.0</ele>
  <time>2026-08-28T17:49:45Z</time>
  <course>0.0</course>
  <speed>0.0</speed>
  <fix>3d</fix>
</trkpt>
<trkpt lat="40.0713749" lon="-105.229789">
  <ele>1583.0</ele>
  <time>2026-08-28T17:49:45Z</time>
  <course>248.38</course>
  <speed>0.01</speed>
  <fix>3d</fix>
</trkpt>
<trkpt lat="40.0713749" lon="-105.229789">
  <ele>1583.0</ele>
  <time>2026-08-28T17:49:45Z</time>
  <course>0.0</course>
  <speed>0.0</speed>
  <fix>3d</fix>
</trkpt>
<trkpt lat="40.0713749" lon="-105.229789">
  <ele>1583.0</ele>
  <time>2026-08-28T17:49:45Z</time>
  <course>248.37</course>
  <speed>0.01</speed>
  <fix>3d</fix>
</trkpt>
<trkpt lat="40.0713749" lon="-105.229789">
  <ele>1583.0</ele>
  <time>2026-08-28T17:49:45Z</time>
  <course>0.0</course>
  <speed>0.0</speed>
  <fix>3d</fix>
</trkpt>
<trkpt lat="40.0713749" lon="-105.229789">
  <ele>1583.0</ele>
  <time>2026-08-28T17:49:45Z</time>
  <course>248.37</course>
  <speed>0.01</speed>
  <fix>3d</fix>
</trkpt>
<trkpt lat="40.0713749" lon="-105.229789">
  <ele>1583.0</ele>
  <time>2026-08-28T17:49:45Z</time>
  <course>0.0</course>
  <speed>0.0</speed>
  <fix>3d</fix>
</trkpt>
<trkpt lat="40.0713749" lon="-105.229789">
  <ele>1583.0</ele>
  <time>2026-08-28T17:49:45Z</time>
  <course>248.37</course>
  <speed>0.01</speed>
  <fix>3d</fix>
</trkpt>
<trkpt lat="40.0713749" lon="-105.229789">
  <ele>1583.0</ele>
  <time>2026-08-28T17:49:45Z</time>
  <course>0.0</course>
  <speed>0.0</speed>
  <fix>3d</fix>
</trkpt>
<trkpt lat="40.0713749" lon="-105.229789">
  <ele>1583.0</ele>
  <time>2026-08-28T17:49:45Z</time>
  <course>248.36</course>
  <speed>0.01</speed>
  <fix>3d</fix>
</trkpt>
<trkpt lat="40.0713749" lon="-105.229789">
  <ele>1583.0</ele>
  <time>2026-08-28T17:49:45Z</time>
  <course>0.0</course>
  <speed>0.0</speed>
  <fix>3d</fix>
</trkpt>
<trkpt lat="40.0713749" lon="-105.229789">
  <ele>1583.0</ele>
  <time>2026-08-28T17:49:45Z</time>
  <course>248.36</course>
  <speed>0.01</speed>
  <fix>3d</fix>
</trkpt>
<trkpt lat="40.0713749" lon="-105.229789">
  <ele>1583.0</ele>
  <time>2026-08-28T17:49:45Z</time>
  <course>0.0</course>
  <speed>0.0</speed>
  <fix>3d</fix>
</trkpt>
<trkpt lat="40.0713749" lon="-105.229789">
  <ele>1583.0</ele>
  <time>2026-08-28T17:49:45Z</time>
  <course>248.36</course>
  <speed>0.01</speed>
  <fix>3d</fix>
</trkpt>
<trkpt lat="40.0713749" lon="-105.229789">
  <ele>1583.0</ele>
  <time>2026-08-28T17:49:45Z</time>
  <course>0.0</course>
  <speed>0.0</speed>
  <fix>3d</fix>
</trkpt>
<trkpt lat="40.0713749" lon="-105.229789">
  <ele>1583.0</ele>
  <time>2026-08-28T17:49:45Z</time>
  <course>248.35</course>
  <speed>0.01</speed>
  <fix>3d</fix>
</trkpt>
<trkpt lat="40.0713749" lon="-105.229789">
  <ele>1583.0</ele>
  <time>2026-08-28T17:49:45Z</time>
  <course>0.0</course>
  <speed>0.0</speed>
  <fix>3d</fix>
</trkpt>
<trkpt lat="40.0713749" lon="-105.229789">
  <ele>1583.0</ele>
  <time>2026-08-28T17:49:45Z</time>
  <course>248.35</course>
  <speed>0.01</speed>
  <fix>3d</fix>
</trkpt>
<trkpt lat="40.0713749" lon="-105.229789">
  <ele>1583.0</ele>
  <time>2026-08-28T17:49:45Z</time>
  <course>0.0</course>
  <speed>0.0</speed>
  <fix>3d</fix>
</trkpt>
<trkpt lat="40.0713749" lon="-105.229789">
  <ele>1583.0</ele>
  <time>2026-08-28T17:49:45Z</time>
  <course>248.35</course>
  <speed>0.01</speed>
  <fix>3d</fix>
</trkpt>
<trkpt lat="40.0713749" lon="-105.229789">
  <ele>1583.0</ele>
  <time>2026-08-28T17:49:45Z</time>
  <course>0.0</course>
  <speed>0.0</speed>
  <fix>3d</fix>
</trkpt>
<trkpt lat="40.0713749" lon="-105.229789">
  <ele>1583.0</ele>
  <time>2026-08-28T17:49:45Z</time>
  <course>248.34</course>
  <speed>0.01</speed>
  <fix>3d</fix>
</trkpt>
<trkpt lat="40.0713749" lon="-105.229789">
  <ele>1583.0</ele>
  <time>2026-08-28T17:49:45Z</time>
  <course>0.0</course>
  <speed>0.0</speed>
  <fix>3d</fix>
</trkpt>
<trkpt lat="40.0713749" lon="-105.229789">
  <ele>1583.0</ele>
  <time>2026-08-28T17:49:45Z</time>
  <course>248.34</course>
  <speed>0.01</speed>
  <fix>3d</fix>
</trkpt>
<trkpt lat="40.0713749" lon="-105.229789">
  <ele>1583.0</ele>
  <time>2026-08-28T17:49:45Z</time>
  <course>0.0</course>
  <speed>0.0</speed>
  <fix>3d</fix>
</trkpt>
<trkpt lat="40.0713749" lon="-105.229789">
  <ele>1583.0</ele>
  <time>2026-08-28T17:49:45Z</time>
  <course>248.33</course>
  <speed>0.01</speed>
  <fix>3d</fix>
</trkpt>
<trkpt lat="40.0713749" lon="-105.229789">
  <ele>1583.0</ele>
  <time>2026-08-28T17:49:45Z</time>
  <course>0.0</course>
  <speed>0.0</speed>
  <fix>3d</fix>
</trkpt>
<trkpt lat="40.0713749" lon="-105.229789">
  <ele>1583.0</ele>
  <time>2026-08-28T17:49:45Z</time>
  <course>248.33</course>
  <speed>0.01</speed>
  <fix>3d</fix>
</trkpt>
<trkpt lat="40.0713749" lon="-105.229789">
  <ele>1583.0</ele>
  <time>2026-08-28T17:49:45Z</time>
  <course>0.0</course>
  <speed>0.0</speed>
  <fix>3d</fix>
</trkpt>
<trkpt lat="40.0713749" lon="-105.229789">
  <ele>1583.0</ele>
  <time>2026-08-28T17:49:45Z</time>
  <course>248.32</course>
  <speed>0.01</speed>
  <fix>3d</fix>
</trkpt>
<trkpt lat="40.0713749" lon="-105.229789">
  <ele>1583.0</ele>
  <time>2026-08-28T17:49:45Z</time>
  <course>0.0</course>
  <speed>0.0</speed>
  <fix>3d</fix>
</trkpt>
<trkpt lat="40.0713749" lon="-105.229789">
  <ele>1583.0</ele>
  <time>2026-08-28T17:49:45Z</time>
  <course>248.32</course>
  <speed>0.01</speed>
  <fix>3d</fix>
</trkpt>
<trkpt lat="40.0713749" lon="-105.229789">
  <ele>1583.0</ele>
  <time>2026-08-28T17:49:45Z</time>
  <course>0.0</course>
  <speed>0.0</speed>
  <fix>3d</fix>
</trkpt>
<trkpt lat="40.0713749" lon="-105.229789">
  <ele>1583.0</ele>
  <time>2026-08-28T17:49:45Z</time>
  <course>248.32</course>
  <speed>0.01</speed>
  <fix>3d</fix>
</trkpt>
<trkpt lat="40.0713749" lon="-105.229789">
  <ele>1583.0</ele>
  <time>2026-08-28T17:49:45Z</time>
  <course>0.0</course>
  <speed>0.0</speed>
  <fix>3d</fix>
</trkpt>
<trkpt lat="40.0713749" lon="-105.229789">
  <ele>1583.0</ele>
  <time>2026-08-28T17:49:45Z</time>
  <course>248.31</course>
  <speed>0.01</speed>
  <fix>3d</fix>
</trkpt>
<trkpt lat="40.0713749" lon="-105.229789">
  <ele>1583.0</ele>
  <time>2026-08-28T17:49:45Z</time>
  <course>0.0</course>
  <speed>0.0</speed>
  <fix>3d</fix>
</trkpt>
<trkpt lat="40.0713749" lon="-105.229789">
  <ele>1583.0</ele>
  <time>2026-08-28T17:49:45Z</time>
  <course>248.31</course>
  <speed>0.01</speed>
  <fix>3d</fix>
</trkpt>
<trkpt lat="40.0713749" lon="-105.229789">
  <ele>1583.0</ele>
  <time>2026-08-28T17:49:45Z</time>
  <course>0.0</course>
  <speed>0.0</speed>
  <fix>3d</fix>
</trkpt>
<trkpt lat="40.0713749" lon="-105.229789">
  <ele>1583.0</ele>
  <time>2026-08-28T17:49:45Z</time>
  <course>248.3</course>
  <speed>0.01</speed>
  <fix>3d</fix>
</trkpt>
<trkpt lat="40.0713749" lon="-105.229789">
  <ele>1583.0</ele>
  <time>2026-08-28T17:49:45Z</time>
  <course>0.0</course>
  <speed>0.0</speed>
  <fix>3d</fix>
</trkpt>
<trkpt lat="40.0713749" lon="-105.229789">
  <ele>1583.0</ele>
  <time>2026-08-28T17:49:45Z</time>
  <course>248.3</course>
  <speed>0.01</speed>
  <fix>3d</fix>
</trkpt>
<trkpt lat="40.0713749" lon="-105.229789">
  <ele>1583.0</ele>
  <time>2026-08-28T17:49:45Z</time>
  <course>0.0</course>
  <speed>0.0</speed>
  <fix>3d</fix>
</trkpt>
<trkpt lat="40.0713749" lon="-105.229789">
  <ele>1583.0</ele>
  <time>2026-08-28T17:49:45Z</time>
  <course>248.29</course>
  <speed>0.01</speed>
  <fix>3d</fix>
</trkpt>
<trkpt lat="40.0713749" lon="-105.229789">
  <ele>1583.0</ele>
  <time>2026-08-28T17:49:45Z</time>
  <course>0.0</course>
  <speed>0.0</speed>
  <fix>3d</fix>
</trkpt>
<trkpt lat="40.0713749" lon="-105.229789">
  <ele>1583.0</ele>
  <time>2026-08-28T17:49:45Z</time>
  <course>248.29</course>
  <speed>0.01</speed>
  <fix>3d</fix>
</trkpt>
<trkpt lat="40.0713749" lon="-105.229789">
  <ele>1583.0</ele>
  <time>2026-08-28T17:49:45Z</time>
  <course>0.0</course>
  <speed>0.0</speed>
  <fix>3d</fix>
</trkpt>
<trkpt lat="40.0713749" lon="-105.229789">
  <ele>1583.0</ele>
  <time>2026-08-28T17:49:45Z</time>
  <course>248.28</course>
  <speed>0.01</speed>
  <fix>3d</fix>
</trkpt>
<trkpt lat="40.0713749" lon="-105.229789">
  <ele>1583.0</ele>
  <time>2026-08-28T17:49:45Z</time>
  <course>0.0</course>
  <speed>0.0</speed>
  <fix>3d</fix>
</trkpt>
<trkpt lat="40.0713749" lon="-105.229789">
  <ele>1583.0</ele>
  <time>2026-08-28T17:49:45Z</time>
  <course>248.28</course>
  <speed>0.01</speed>
  <fix>3d</fix>
</trkpt>
<trkpt lat="40.0713749" lon="-105.229789">
  <ele>1583.0</ele>
  <time>2026-08-28T17:49:45Z</time>
  <course>0.0</course>
  <speed>0.0</speed>
  <fix>3d</fix>
</trkpt>
<trkpt lat="40.0713749" lon="-105.229789">
  <ele>1583.0</ele>
  <time>2026-08-28T17:49:45Z</time>
  <course>248.27</course>
  <speed>0.01</speed>
  <fix>3d</fix>
</trkpt>
<trkpt lat="40.0713749" lon="-105.229789">
  <ele>1583.0</ele>
  <time>2026-08-28T17:49:45Z</time>
  <course>0.0</course>
  <speed>0.0</speed>
  <fix>3d</fix>
</trkpt>
<trkpt lat="40.0713749" lon="-105.229789">
  <ele>1583.0</ele>
  <time>2026-08-28T17:49:45Z</time>
  <course>248.27</course>
  <speed>0.01</speed>
  <fix>3d</fix>
</trkpt>
<trkpt lat="40.0713749" lon="-105.229789">
  <ele>1583.0</ele>
  <time>2026-08-28T17:49:45Z</time>
  <course>0.0</course>
  <speed>0.0</speed>
  <fix>3d</fix>
</trkpt>
<trkpt lat="40.0713749" lon="-105.229789">
  <ele>1583.0</ele>
  <time>2026-08-28T17:49:45Z</time>
  <course>248.26</course>
  <speed>0.01</speed>
  <fix>3d</fix>
</trkpt>
<trkpt lat="40.0713749" lon="-105.229789">
  <ele>1583.0</ele>
  <time>2026-08-28T17:49:45Z</time>
  <course>0.0</course>
  <speed>0.0</speed>
  <fix>3d</fix>
</trkpt>
<trkpt lat="40.0713749" lon="-105.229789">
  <ele>1583.0</ele>
  <time>2026-08-28T17:49:45Z</time>
  <course>248.26</course>
  <speed>0.01</speed>
  <fix>3d</fix>
</trkpt>
<trkpt lat="40.0713749" lon="-105.229789">
  <ele>1583.0</ele>
  <time>2026-08-28T17:49:45Z</time>
  <course>0.0</course>
  <speed>0.0</speed>
  <fix>3d</fix>
</trkpt>
<trkpt lat="40.0713749" lon="-105.229789">
  <ele>1583.0</ele>
  <time>2026-08-28T17:49:45Z</time>
  <course>248.26</course>
  <speed>0.01</speed>
  <fix>3d</fix>
</trkpt>
<trkpt lat="40.0713749" lon="-105.229789">
  <ele>1583.0</ele>
  <time>2026-08-28T17:49:45Z</time>
  <course>0.0</course>
  <speed>0.0</speed>
  <fix>3d</fix>
</trkpt>
<trkpt lat="40.0713749" lon="-105.229789">
  <ele>1583.0</ele>
  <time>2026-08-28T17:49:45Z</time>
  <course>248.25</course>
  <speed>0.01</speed>
  <fix>3d</fix>
</trkpt>
<trkpt lat="40.0713749" lon="-105.229789">
  <ele>1583.0</ele>
  <time>2026-08-28T17:49:45Z</time>
  <course>0.0</course>
  <speed>0.0</speed>
  <fix>3d</fix>
</trkpt>
<trkpt lat="40.0713749" lon="-105.229789">
  <ele>1583.0</ele>
  <time>2026-08-28T17:49:45Z</time>
  <course>248.25</course>
  <speed>0.01</speed>
  <fix>3d</fix>
</trkpt>
<trkpt lat="40.0713749" lon="-105.229789">
  <ele>1583.0</ele>
  <time>2026-08-28T17:49:45Z</time>
  <course>0.0</course>
  <speed>0.0</speed>
  <fix>3d</fix>
</trkpt>
<trkpt lat="40.0713749" lon="-105.229789">
  <ele>1583.0</ele>
  <time>2026-08-28T17:49:45Z</time>
  <course>248.24</course>
  <speed>0.01</speed>
  <fix>3d</fix>
</trkpt>
<trkpt lat="40.0713749" lon="-105.229789">
  <ele>1583.0</ele>
  <time>2026-08-28T17:49:45Z</time>
  <course>0.0</course>
  <speed>0.0</speed>
  <fix>3d</fix>
</trkpt>
<trkpt lat="40.0713749" lon="-105.229789">
  <ele>1583.0</ele>
  <time>2026-08-28T17:49:45Z</time>
  <course>248.24</course>
  <speed>0.01</speed>
  <fix>3d</fix>
</trkpt>
<trkpt lat="40.0713749" lon="-105.229789">
  <ele>1583.0</ele>
  <time>2026-08-28T17:49:45Z</time>
  <course>0.0</course>
  <speed>0.0</speed>
  <fix>3d</fix>
</trkpt>
<trkpt lat="40.0713749" lon="-105.229789">
  <ele>1583.0</ele>
  <time>2026-08-28T17:49:45Z</time>
  <course>248.23</course>
  <speed>0.01</speed>
  <fix>3d</fix>
</trkpt>
<trkpt lat="40.0713749" lon="-105.229789">
  <ele>1583.0</ele>
  <time>2026-08-28T17:49:45Z</time>
  <course>0.0</course>
  <speed>0.0</speed>
  <fix>3d</fix>
</trkpt>
<trkpt lat="40.0713749" lon="-105.229789">
  <ele>1583.0</ele>
  <time>2026-08-28T17:49:45Z</time>
  <course>248.23</course>
  <speed>0.01</speed>
  <fix>3d</fix>
</trkpt>
<trkpt lat="40.0713749" lon="-105.229789">
  <ele>1583.0</ele>
  <time>2026-08-28T17:49:45Z</time>
  <course>0.0</course>
  <speed>0.0</speed>
  <fix>3d</fix>
</trkpt>
<trkpt lat="40.0713749" lon="-105.229789">
  <ele>1583.0</ele>
  <time>2026-08-28T17:49:45Z</time>
  <course>248.22</course>
  <speed>0.01</speed>
  <fix>3d</fix>
</trkpt>
<trkpt lat="40.0713749" lon="-105.229789">
  <ele>1583.0</ele>
  <time>2026-08-28T17:49:45Z</time>
  <course>0.0</course>
  <speed>0.0</speed>
  <fix>3d</fix>
</trkpt>
<trkpt lat="40.0713749" lon="-105.229789">
  <ele>1583.0</ele>
  <time>2026-08-28T17:49:45Z</time>
  <course>248.22</course>
  <speed>0.01</speed>
  <fix>3d</fix>
</trkpt>
<trkpt lat="40.0713749" lon="-105.229789">
  <ele>1583.0</ele>
  <time>2026-08-28T17:49:45Z</time>
  <course>0.0</course>
  <speed>0.0</speed>
  <fix>3d</fix>
</trkpt>
<trkpt lat="40.0713749" lon="-105.229789">
  <ele>1583.0</ele>
  <time>2026-08-28T17:49:45Z</time>
  <course>248.21</course>
  <speed>0.01</speed>
  <fix>3d</fix>
</trkpt>
<trkpt lat="40.0713749" lon="-105.229789">
  <ele>1583.0</ele>
  <time>2026-08-28T17:49:45Z</time>
  <course>0.0</course>
  <speed>0.0</speed>
  <fix>3d</fix>
</trkpt>
<trkpt lat="40.0713749" lon="-105.229789">
  <ele>1583.0</ele>
  <time>2026-08-28T17:49:45Z</time>
  <course>248.21</course>
  <speed>0.01</speed>
  <fix>3d</fix>
</trkpt>
<trkpt lat="40.0713749" lon="-105.229789">
  <ele>1583.0</ele>
  <time>2026-08-28T17:49:45Z</time>
  <course>0.0</course>
  <speed>0.0</speed>
  <fix>3d</fix>
</trkpt>
<trkpt lat="40.0713749" lon="-105.229789">
  <ele>1583.0</ele>
  <time>2026-08-28T17:49:45Z</time>
  <course>248.2</course>
  <speed>0.01</speed>
  <fix>3d</fix>
</trkpt>
<trkpt lat="40.0713749" lon="-105.229789">
  <ele>1583.0</ele>
  <time>2026-08-28T17:49:45Z</time>
  <course>0.0</course>
  <speed>0.0</speed>
  <fix>3d</fix>
</trkpt>
<trkpt lat="40.0713749" lon="-105.229789">
  <ele>1583.0</ele>
  <time>2026-08-28T17:49:45Z</time>
  <course>248.2</course>
  <speed>0.01</speed>
  <fix>3d</fix>
</trkpt>
<trkpt lat="40.0713749" lon="-105.229789">
  <ele>1583.0</ele>
  <time>2026-08-28T17:49:45Z</time>
  <course>0.0</course>
  <speed>0.0</speed>
  <fix>3d</fix>
</trkpt>
<trkpt lat="40.0713749" lon="-105.229789">
  <ele>1583.0</ele>
  <time>2026-08-28T17:49:45Z</time>
  <course>248.19</course>
  <speed>0.01</speed>
  <fix>3d</fix>
</trkpt>
<trkpt lat="40.0713749" lon="-105.229789">
  <ele>1583.0</ele>
  <time>2026-08-28T17:49:45Z</time>
  <course>0.0</course>
  <speed>0.0</speed>
  <fix>3d</fix>
</trkpt>
<trkpt lat="40.0713749" lon="-105.229789">
  <ele>1583.0</ele>
  <time>2026-08-28T17:49:45Z</time>
  <course>248.19</course>
  <speed>0.01</speed>
  <fix>3d</fix>
</trkpt>
<trkpt lat="40.0713749" lon="-105.229789">
  <ele>1583.0</ele>
  <time>2026-08-28T17:49:45Z</time>
  <course>0.0</course>
  <speed>0.0</speed>
  <fix>3d</fix>
</trkpt>
<trkpt lat="40.0713749" lon="-105.229789">
  <ele>1583.0</ele>
  <time>2026-08-28T17:49:45Z</time>
  <course>248.18</course>
  <speed>0.01</speed>
  <fix>3d</fix>
</trkpt>
<trkpt lat="40.0713749" lon="-105.229789">
  <ele>1583.0</ele>
  <time>2026-08-28T17:49:45Z</time>
  <course>0.0</course>
  <speed>0.0</speed>
  <fix>3d</fix>
</trkpt>
<trkpt lat="40.0713749" lon="-105.229789">
  <ele>1583.0</ele>
  <time>2026-08-28T17:49:45Z</time>
  <course>248.18</course>
  <speed>0.01</speed>
  <fix>3d</fix>
</trkpt>
<trkpt lat="40.0713749" lon="-105.229789">
  <ele>1583.0</ele>
  <time>2026-08-28T17:49:45Z</time>
  <course>0.0</course>
  <speed>0.0</speed>
  <fix>3d</fix>
</trkpt>
<trkpt lat="40.0713749" lon="-105.229789">
  <ele>1583.0</ele>
  <time>2026-08-28T17:49:45Z</time>
  <course>248.17</course>
  <speed>0.022360679774997897</speed>
  <fix>3d</fix>
</trkpt>
<trkpt lat="40.0713749" lon="-105.229789">
  <ele>1583.0</ele>
  <time>2026-08-28T17:49:45Z</time>
  <course>0.0</course>
  <speed>0.0</speed>
  <fix>3d</fix>
</trkpt>
<trkpt lat="40.0713749" lon="-105.229789">
  <ele>1583.0</ele>
  <time>2026-08-28T17:49:45Z</time>
  <course>248.17</course>
  <speed>0.022360679774997897</speed>
  <fix>3d</fix>
</trkpt>
<trkpt lat="40.0713749" lon="-105.229789">
  <ele>1583.0</ele>
  <time>2026-08-28T17:49:45Z</time>
  <course>0.0</course>
  <speed>0.0</speed>
  <fix>3d</fix>
</trkpt>
<trkpt lat="40.0713749" lon="-105.229789">
  <ele>1583.0</ele>
  <time>2026-08-28T17:49:45Z</time>
  <course>248.16</course>
  <speed>0.022360679774997897</speed>
  <fix>3d</fix>
</trkpt>
<trkpt lat="40.0713749" lon="-105.229789">
  <ele>1583.0</ele>
  <time>2026-08-28T17:49:45Z</time>
  <course>0.0</course>
  <speed>0.0</speed>
  <fix>3d</fix>
</trkpt>
<trkpt lat="40.0713749" lon="-105.229789">
  <ele>1583.0</ele>
  <time>2026-08-28T17:49:45Z</time>
  <course>248.16</course>
  <speed>0.022360679774997897</speed>
  <fix>3d</fix>
</trkpt>
<trkpt lat="40.0713749" lon="-105.229789">
  <ele>1583.0</ele>
  <time>2026-08-28T17:49:45Z</time>
  <course>0.0</course>
  <speed>0.0</speed>
  <fix>3d</fix>
</trkpt>
<trkpt lat="40.0713749" lon="-105.229789">
  <ele>1583.0</ele>
  <time>2026-08-28T17:49:45Z</time>
  <course>248.15</course>
  <speed>0.022360679774997897</speed>
  <fix>3d</fix>
</trkpt>
<trkpt lat="40.0713749" lon="-105.229789">
  <ele>1583.0</ele>
  <time>2026-08-28T17:49:45Z</time>
  <course>0.0</course>
  <speed>0.0</speed>
  <fix>3d</fix>
</trkpt>
<trkpt lat="40.0713749" lon="-105.229789">
  <ele>1583.0</ele>
  <time>2026-08-28T17:49:45Z</time>
  <course>248.15</course>
  <speed>0.022360679774997897</speed>
  <fix>3d</fix>
</trkpt>
<trkpt lat="40.0713749" lon="-105.229789">
  <ele>1583.0</ele>
  <time>2026-08-28T17:49:45Z</time>
  <course>0.0</course>
  <speed>0.0</speed>
  <fix>3d</fix>
</trkpt>
<trkpt lat="40.0713749" lon="-105.229789">
  <ele>1583.0</ele>
  <time>2026-08-28T17:49:45Z</time>
  <course>248.14</course>
  <speed>0.022360679774997897</speed>
  <fix>3d</fix>
</trkpt>
<trkpt lat="40.0713749" lon="-105.229789">
  <ele>1583.0</ele>
  <time>2026-08-28T17:49:45Z</time>
  <course>0.0</course>
  <speed>0.0</speed>
  <fix>3d</fix>
</trkpt>
<trkpt lat="40.0713749" lon="-105.229789">
  <ele>1583.0</ele>
  <time>2026-08-28T17:49:45Z</time>
  <course>248.14</course>
  <speed>0.022360679774997897</speed>
  <fix>3d</fix>
</trkpt>
<trkpt lat="40.0713749" lon="-105.229789">
  <ele>1583.0</ele>
  <time>2026-08-28T17:49:45Z</time>
  <course>0.0</course>
  <speed>0.0</speed>
  <fix>3d</fix>
</trkpt>
<trkpt lat="40.0713749" lon="-105.229789">
  <ele>1583.0</ele>
  <time>2026-08-28T17:49:45Z</time>
  <course>248.13</course>
  <speed>0.022360679774997897</speed>
  <fix>3d</fix>
</trkpt>
<trkpt lat="40.0713749" lon="-105.229789">
  <ele>1583.0</ele>
  <time>2026-08-28T17:49:45Z</time>
  <course>0.0</course>
  <speed>0.0</speed>
  <fix>3d</fix>
</trkpt>
<trkpt lat="40.0713749" lon="-105.229789">
  <ele>1583.0</ele>
  <time>2026-08-28T17:49:45Z</time>
  <course>248.13</course>
  <speed>0.022360679774997897</speed>
  <fix>3d</fix>
</trkpt>
<trkpt lat="40.0713749" lon="-105.229789">
  <ele>1583.0</ele>
  <time>2026-08-28T17:49:45Z</time>
  <course>0.0</course>
  <speed>0.0</speed>
  <fix>3d</fix>
</trkpt>
<trkpt lat="40.0713749" lon="-105.229789">
  <ele>1583.0</ele>
  <time>2026-08-28T17:49:45Z</time>
  <course>248.12</course>
  <speed>0.022360679774997897</speed>
  <fix>3d</fix>
</trkpt>
<trkpt lat="40.0713749" lon="-105.229789">
  <ele>1583.0</ele>
  <time>2026-08-28T17:49:45Z</time>
  <course>0.0</course>
  <speed>0.0</speed>
  <fix>3d</fix>
</trkpt>
<trkpt lat="40.0713749" lon="-105.229789">
  <ele>1583.0</ele>
  <time>2026-08-28T17:49:45Z</time>
  <course>248.12</course>
  <speed>0.022360679774997897</speed>
  <fix>3d</fix>
</trkpt>
<trkpt lat="40.0713749" lon="-105.229789">
  <ele>1583.0</ele>
  <time>2026-08-28T17:49:45Z</time>
  <course>0.0</course>
  <speed>0.0</speed>
  <fix>3d</fix>
</trkpt>
<trkpt lat="40.0713749" lon="-105.229789">
  <ele>1583.0</ele>
  <time>2026-08-28T17:49:45Z</time>
  <course>248.11</course>
  <speed>0.022360679774997897</speed>
  <fix>3d</fix>
</trkpt>
<trkpt lat="40.0713749" lon="-105.229789">
  <ele>1583.0</ele>
  <time>2026-08-28T17:49:45Z</time>
  <course>0.0</course>
  <speed>0.0</speed>
  <fix>3d</fix>
</trkpt>
<trkpt lat="40.0713749" lon="-105.229789">
  <ele>1583.0</ele>
  <time>2026-08-28T17:49:45Z</time>
  <course>248.11</course>
  <speed>0.022360679774997897</speed>
  <fix>3d</fix>
</trkpt>
<trkpt lat="40.0713749" lon="-105.229789">
  <ele>1583.0</ele>
  <time>2026-08-28T17:49:45Z</time>
  <course>0.0</course>
  <speed>0.0</speed>
  <fix>3d</fix>
</trkpt>
<trkpt lat="40.0713749" lon="-105.229789">
  <ele>1583.0</ele>
  <time>2026-08-28T17:49:45Z</time>
  <course>248.1</course>
  <speed>0.022360679774997897</speed>
  <fix>3d</fix>
</trkpt>
<trkpt lat="40.0713749" lon="-105.229789">
  <ele>1583.0</ele>
  <time>2026-08-28T17:49:45Z</time>
  <course>0.0</course>
  <speed>0.0</speed>
  <fix>3d</fix>
</trkpt>
<trkpt lat="40.0713749" lon="-105.229789">
  <ele>1583.0</ele>
  <time>2026-08-28T17:49:45Z</time>
  <course>248.1</course>
  <speed>0.022360679774997897</speed>
  <fix>3d</fix>
</trkpt>
<trkpt lat="40.0713749" lon="-105.229789">
  <ele>1583.0</ele>
  <time>2026-08-28T17:49:45Z</time>
  <course>0.0</course>
  <speed>0.0</speed>
  <fix>3d</fix>
</trkpt>
<trkpt lat="40.0713749" lon="-105.229789">
  <ele>1583.0</ele>
  <time>2026-08-28T17:49:45Z</time>
  <course>248.09</course>
  <speed>0.022360679774997897</speed>
  <fix>3d</fix>
</trkpt>
<trkpt lat="40.0713749" lon="-105.229789">
  <ele>1583.0</ele>
  <time>2026-08-28T17:49:45Z</time>
  <course>0.0</course>
  <speed>0.0</speed>
  <fix>3d</fix>
</trkpt>
<trkpt lat="40.0713749" lon="-105.229789">
  <ele>1583.0</ele>
  <time>2026-08-28T17:49:45Z</time>
  <course>248.09</course>
  <speed>0.022360679774997897</speed>
  <fix>3d</fix>
</trkpt>
<trkpt lat="40.0713749" lon="-105.229789">
  <ele>1583.0</ele>
  <time>2026-08-28T17:49:45Z</time>
  <course>0.0</course>
  <speed>0.0</speed>
  <fix>3d</fix>
</trkpt>
<trkpt lat="40.0713749" lon="-105.229789">
  <ele>1583.0</ele>
  <time>2026-08-28T17:49:45Z</time>
  <course>248.08</course>
  <speed>0.022360679774997897</speed>
  <fix>3d</fix>
</trkpt>
<trkpt lat="40.0713749" lon="-105.229789">
  <ele>1583.0</ele>
  <time>2026-08-28T17:49:45Z</time>
  <course>0.0</course>
  <speed>0.0</speed>
  <fix>3d</fix>
</trkpt>
<trkpt lat="40.0713749" lon="-105.229789">
  <ele>1583.0</ele>
  <time>2026-08-28T17:49:45Z</time>
  <course>248.08</course>
  <speed>0.022360679774997897</speed>
  <fix>3d</fix>
</trkpt>
<trkpt lat="40.0713749" lon="-105.229789">
  <ele>1583.0</ele>
  <time>2026-08-28T17:49:45Z</time>
  <course>0.0</course>
  <speed>0.0</speed>
  <fix>3d</fix>
</trkpt>
<trkpt lat="40.0713749" lon="-105.229789">
  <ele>1583.0</ele>
  <time>2026-08-28T17:49:45Z</time>
  <course>248.07</course>
  <speed>0.022360679774997897</speed>
  <fix>3d</fix>
</trkpt>
<trkpt lat="40.0713749" lon="-105.229789">
  <ele>1583.0</ele>
  <time>2026-08-28T17:49:45Z</time>
  <course>0.0</course>
  <speed>0.0</speed>
  <fix>3d</fix>
</trkpt>
<trkpt lat="40.0713749" lon="-105.229789">
  <ele>1583.0</ele>
  <time>2026-08-28T17:49:45Z</time>
  <course>248.07</course>
  <speed>0.022360679774997897</speed>
  <fix>3d</fix>
</trkpt>
<trkpt lat="40.0713749" lon="-105.229789">
  <ele>1583.0</ele>
  <time>2026-08-28T17:49:45Z</time>
  <course>0.0</course>
  <speed>0.0</speed>
  <fix>3d</fix>
</trkpt>
<trkpt lat="40.0713749" lon="-105.229789">
  <ele>1583.0</ele>
  <time>2026-08-28T17:49:45Z</time>
  <course>248.06</course>
  <speed>0.022360679774997897</speed>
  <fix>3d</fix>
</trkpt>
<trkpt lat="40.0713749" lon="-105.229789">
  <ele>1583.0</ele>
  <time>2026-08-28T17:49:45Z</time>
  <course>0.0</course>
  <speed>0.0</speed>
  <fix>3d</fix>
</trkpt>
<trkpt lat="40.0713749" lon="-105.229789">
  <ele>1583.0</ele>
  <time>2026-08-28T17:49:45Z</time>
  <course>248.06</course>
  <speed>0.022360679774997897</speed>
  <fix>3d</fix>
</trkpt>
<trkpt lat="40.0713749" lon="-105.229789">
  <ele>1583.0</ele>
  <time>2026-08-28T17:49:45Z</time>
  <course>0.0</course>
  <speed>0.0</speed>
  <fix>3d</fix>
</trkpt>
<trkpt lat="40.0713749" lon="-105.229789">
  <ele>1583.0</ele>
  <time>2026-08-28T17:49:45Z</time>
  <course>248.05</course>
  <speed>0.022360679774997897</speed>
  <fix>3d</fix>
</trkpt>
<trkpt lat="40.0713749" lon="-105.229789">
  <ele>1583.0</ele>
  <time>2026-08-28T17:49:45Z</time>
  <course>0.0</course>
  <speed>0.0</speed>
  <fix>3d</fix>
</trkpt>
<trkpt lat="40.0713749" lon="-105.229789">
  <ele>1583.0</ele>
  <time>2026-08-28T17:49:45Z</time>
  <course>248.05</course>
  <speed>0.022360679774997897</speed>
  <fix>3d</fix>
</trkpt>
<trkpt lat="40.0713749" lon="-105.229789">
  <ele>1583.0</ele>
  <time>2026-08-28T17:49:45Z</time>
  <course>0.0</course>
  <speed>0.0</speed>
  <fix>3d</fix>
</trkpt>
<trkpt lat="40.0713749" lon="-105.229789">
  <ele>1583.0</ele>
  <time>2026-08-28T17:49:45Z</time>
  <course>248.05</course>
  <speed>0.022360679774997897</speed>
  <fix>3d</fix>
</trkpt>
<trkpt lat="40.0713749" lon="-105.229789">
  <ele>1583.0</ele>
  <time>2026-08-28T17:49:45Z</time>
  <course>0.0</course>
  <speed>0.0</speed>
  <fix>3d</fix>
</trkpt>
<trkpt lat="40.0713749" lon="-105.229789">
  <ele>1583.0</ele>
  <time>2026-08-28T17:49:45Z</time>
  <course>248.04</course>
  <speed>0.022360679774997897</speed>
  <fix>3d</fix>
</trkpt>
<trkpt lat="40.0713749" lon="-105.229789">
  <ele>1583.0</ele>
  <time>2026-08-28T17:49:45Z</time>
  <course>0.0</course>
  <speed>0.0</speed>
  <fix>3d</fix>
</trkpt>
<trkpt lat="40.0713749" lon="-105.229789">
  <ele>1583.0</ele>
  <time>2026-08-28T17:49:45Z</time>
  <course>248.04</course>
  <speed>0.022360679774997897</speed>
  <fix>3d</fix>
</trkpt>
<trkpt lat="40.0713749" lon="-105.229789">
  <ele>1583.0</ele>
  <time>2026-08-28T17:49:45Z</time>
  <course>0.0</course>
  <speed>0.0</speed>
  <fix>3d</fix>
</trkpt>
<trkpt lat="40.0713749" lon="-105.229789">
  <ele>1583.0</ele>
  <time>2026-08-28T17:49:45Z</time>
  <course>248.03</course>
  <speed>0.022360679774997897</speed>
  <fix>3d</fix>
</trkpt>
<trkpt lat="40.0713749" lon="-105.229789">
  <ele>1583.0</ele>
  <time>2026-08-28T17:49:45Z</time>
  <course>0.0</course>
  <speed>0.0</speed>
  <fix>3d</fix>
</trkpt>
<trkpt lat="40.0713749" lon="-105.229789">
  <ele>1583.0</ele>
  <time>2026-08-28T17:49:45Z</time>
  <course>248.03</course>
  <speed>0.022360679774997897</speed>
  <fix>3d</fix>
</trkpt>
<trkpt lat="40.0713749" lon="-105.229789">
  <ele>1583.0</ele>
  <time>2026-08-28T17:49:45Z</time>
  <course>0.0</course>
  <speed>0.0</speed>
  <fix>3d</fix>
</trkpt>
<trkpt lat="40.0713749" lon="-105.229789">
  <ele>1583.0</ele>
  <time>2026-08-28T17:49:45Z</time>
  <course>248.02</course>
  <speed>0.022360679774997897</speed>
  <fix>3d</fix>
</trkpt>
<trkpt lat="40.0713749" lon="-105.229789">
  <ele>1583.0</ele>
  <time>2026-08-28T17:49:45Z</time>
  <course>0.0</course>
  <speed>0.0</speed>
  <fix>3d</fix>
</trkpt>
<trkpt lat="40.0713749" lon="-105.229789">
  <ele>1583.0</ele>
  <time>2026-08-28T17:49:45Z</time>
  <course>248.02</course>
  <speed>0.022360679774997897</speed>
  <fix>3d</fix>
</trkpt>
<trkpt lat="40.0713749" lon="-105.229789">
  <ele>1583.0</ele>
  <time>2026-08-28T17:49:45Z</time>
  <course>0.0</course>
  <speed>0.0</speed>
  <fix>3d</fix>
</trkpt>
<trkpt lat="40.0713749" lon="-105.229789">
  <ele>1583.0</ele>
  <time>2026-08-28T17:49:45Z</time>
  <course>248.01</course>
  <speed>0.022360679774997897</speed>
  <fix>3d</fix>
</trkpt>
<trkpt lat="40.0713749" lon="-105.229789">
  <ele>1583.0</ele>
  <time>2026-08-28T17:49:45Z</time>
  <course>0.0</course>
  <speed>0.0</speed>
  <fix>3d</fix>
</trkpt>
<trkpt lat="40.0713749" lon="-105.229789">
  <ele>1583.0</ele>
  <time>2026-08-28T17:49:45Z</time>
  <course>248.01</course>
  <speed>0.022360679774997897</speed>
  <fix>3d</fix>
</trkpt>
<trkpt lat="40.0713749" lon="-105.229789">
  <ele>1583.0</ele>
  <time>2026-08-28T17:49:45Z</time>
  <course>0.0</course>
  <speed>0.0</speed>
  <fix>3d</fix>
</trkpt>
<trkpt lat="40.0713749" lon="-105.229789">
  <ele>1583.0</ele>
  <time>2026-08-28T17:49:45Z</time>
  <course>248.0</course>
  <speed>0.022360679774997897</speed>
  <fix>3d</fix>
</trkpt>
<trkpt lat="40.0713749" lon="-105.229789">
  <ele>1583.0</ele>
  <time>2026-08-28T17:49:45Z</time>
  <course>0.0</course>
  <speed>0.0</speed>
  <fix>3d</fix>
</trkpt>
<trkpt lat="40.0713749" lon="-105.229789">
  <ele>1583.0</ele>
  <time>2026-08-28T17:49:45Z</time>
  <course>248.0</course>
  <speed>0.022360679774997897</speed>
  <fix>3d</fix>
</trkpt>
<trkpt lat="40.0713749" lon="-105.229789">
  <ele>1583.0</ele>
  <time>2026-08-28T17:49:45Z</time>
  <course>0.0</course>
  <speed>0.0</speed>
  <fix>3d</fix>
</trkpt>
<trkpt lat="40.0713749" lon="-105.229789">
  <ele>1583.0</ele>
  <time>2026-08-28T17:49:45Z</time>
  <course>247.99</course>
  <speed>0.022360679774997897</speed>
  <fix>3d</fix>
</trkpt>
<trkpt lat="40.0713749" lon="-105.229789">
  <ele>1583.0</ele>
  <time>2026-08-28T17:49:45Z</time>
  <course>0.0</course>
  <speed>0.0</speed>
  <fix>3d</fix>
</trkpt>
<trkpt lat="40.0713749" lon="-105.229789">
  <ele>1583.0</ele>
  <time>2026-08-28T17:49:45Z</time>
  <course>247.99</course>
  <speed>0.022360679774997897</speed>
  <fix>3d</fix>
</trkpt>
<trkpt lat="40.0713749" lon="-105.229789">
  <ele>1583.0</ele>
  <time>2026-08-28T17:49:45Z</time>
  <course>0.0</course>
  <speed>0.0</speed>
  <fix>3d</fix>
</trkpt>
<trkpt lat="40.0713749" lon="-105.229789">
  <ele>1583.0</ele>
  <time>2026-08-28T17:49:45Z</time>
  <course>247.99</course>
  <speed>0.022360679774997897</speed>
  <fix>3d</fix>
</trkpt>
<trkpt lat="40.0713749" lon="-105.229789">
  <ele>1583.0</ele>
  <time>2026-08-28T17:49:45Z</time>
  <course>0.0</course>
  <speed>0.0</speed>
  <fix>3d</fix>
</trkpt>
<trkpt lat="40.0713749" lon="-105.229789">
  <ele>1583.0</ele>
  <time>2026-08-28T17:49:45Z</time>
  <course>247.98</course>
  <speed>0.022360679774997897</speed>
  <fix>3d</fix>
</trkpt>
<trkpt lat="40.0713749" lon="-105.229789">
  <ele>1583.0</ele>
  <time>2026-08-28T17:49:45Z</time>
  <course>0.0</course>
  <speed>0.0</speed>
  <fix>3d</fix>
</trkpt>
<trkpt lat="40.0713749" lon="-105.229789">
  <ele>1583.0</ele>
  <time>2026-08-28T17:49:45Z</time>
  <course>247.98</course>
  <speed>0.022360679774997897</speed>
  <fix>3d</fix>
</trkpt>
<trkpt lat="40.0713749" lon="-105.229789">
  <ele>1583.0</ele>
  <time>2026-08-28T17:49:45Z</time>
  <course>0.0</course>
  <speed>0.0</speed>
  <fix>3d</fix>
</trkpt>
<trkpt lat="40.0713749" lon="-105.229789">
  <ele>1583.0</ele>
  <time>2026-08-28T17:49:45Z</time>
  <course>247.97</course>
  <speed>0.022360679774997897</speed>
  <fix>3d</fix>
</trkpt>
<trkpt lat="40.0713749" lon="-105.229789">
  <ele>1583.0</ele>
  <time>2026-08-28T17:49:45Z</time>
  <course>0.0</course>
  <speed>0.0</speed>
  <fix>3d</fix>
</trkpt>
<trkpt lat="40.0713749" lon="-105.229789">
  <ele>1583.0</ele>
  <time>2026-08-28T17:49:45Z</time>
  <course>247.97</course>
  <speed>0.022360679774997897</speed>
  <fix>3d</fix>
</trkpt>
<trkpt lat="40.0713749" lon="-105.229789">
  <ele>1583.0</ele>
  <time>2026-08-28T17:49:45Z</time>
  <course>0.0</course>
  <speed>0.0</speed>
  <fix>3d</fix>
</trkpt>
<trkpt lat="40.0713749" lon="-105.229789">
  <ele>1583.0</ele>
  <time>2026-08-28T17:49:45Z</time>
  <course>247.96</course>
  <speed>0.022360679774997897</speed>
  <fix>3d</fix>
</trkpt>
<trkpt lat="40.0713749" lon="-105.229789">
  <ele>1583.0</ele>
  <time>2026-08-28T17:49:45Z</time>
  <course>0.0</course>
  <speed>0.0</speed>
  <fix>3d</fix>
</trkpt>
<trkpt lat="40.0713749" lon="-105.229789">
  <ele>1583.0</ele>
  <time>2026-08-28T17:49:45Z</time>
  <course>247.96</course>
  <speed>0.022360679774997897</speed>
  <fix>3d</fix>
</trkpt>
<trkpt lat="40.0713749" lon="-105.229789">
  <ele>1583.0</ele>
  <time>2026-08-28T17:49:45Z</time>
  <course>0.0</course>
  <speed>0.0</speed>
  <fix>3d</fix>
</trkpt>
<trkpt lat="40.0713749" lon="-105.229789">
  <ele>1583.0</ele>
  <time>2026-08-28T17:49:45Z</time>
  <course>247.95</course>
  <speed>0.022360679774997897</speed>
  <fix>3d</fix>
</trkpt>
<trkpt lat="40.0713749" lon="-105.229789">
  <ele>1583.0</ele>
  <time>2026-08-28T17:49:45Z</time>
  <course>0.0</course>
  <speed>0.0</speed>
  <fix>3d</fix>
</trkpt>
<trkpt lat="40.0713749" lon="-105.229789">
  <ele>1583.0</ele>
  <time>2026-08-28T17:49:45Z</time>
  <course>247.95</course>
  <speed>0.022360679774997897</speed>
  <fix>3d</fix>
</trkpt>
<trkpt lat="40.0713749" lon="-105.229789">
  <ele>1583.0</ele>
  <time>2026-08-28T17:49:45Z</time>
  <course>0.0</course>
  <speed>0.0</speed>
  <fix>3d</fix>
</trkpt>
<trkpt lat="40.0713749" lon="-105.229789">
  <ele>1583.0</ele>
  <time>2026-08-28T17:49:45Z</time>
  <course>247.95</course>
  <speed>0.022360679774997897</speed>
  <fix>3d</fix>
</trkpt>
<trkpt lat="40.0713749" lon="-105.229789">
  <ele>1583.0</ele>
  <time>2026-08-28T17:49:45Z</time>
  <course>0.0</course>
  <speed>0.0</speed>
  <fix>3d</fix>
</trkpt>
<trkpt lat="40.0713749" lon="-105.229789">
  <ele>1583.0</ele>
  <time>2026-08-28T17:49:45Z</time>
  <course>247.94</course>
  <speed>0.022360679774997897</speed>
  <fix>3d</fix>
</trkpt>
<trkpt lat="40.0713749" lon="-105.229789">
  <ele>1583.0</ele>
  <time>2026-08-28T17:49:45Z</time>
  <course>0.0</course>
  <speed>0.0</speed>
  <fix>3d</fix>
</trkpt>
<trkpt lat="40.0713749" lon="-105.229789">
  <ele>1583.0</ele>
  <time>2026-08-28T17:49:45Z</time>
  <course>247.94</course>
  <speed>0.022360679774997897</speed>
  <fix>3d</fix>
</trkpt>
<trkpt lat="40.0713749" lon="-105.229789">
  <ele>1583.0</ele>
  <time>2026-08-28T17:49:45Z</time>
  <course>0.0</course>
  <speed>0.0</speed>
  <fix>3d</fix>
</trkpt>
<trkpt lat="40.0713749" lon="-105.229789">
  <ele>1583.0</ele>
  <time>2026-08-28T17:49:45Z</time>
  <course>247.93</course>
  <speed>0.022360679774997897</speed>
  <fix>3d</fix>
</trkpt>
<trkpt lat="40.0713749" lon="-105.229789">
  <ele>1583.0</ele>
  <time>2026-08-28T17:49:45Z</time>
  <course>0.0</course>
  <speed>0.0</speed>
  <fix>3d</fix>
</trkpt>
<trkpt lat="40.0713749" lon="-105.229789">
  <ele>1583.0</ele>
  <time>2026-08-28T17:49:45Z</time>
  <course>247.93</course>
  <speed>0.022360679774997897</speed>
  <fix>3d</fix>
</trkpt>
<trkpt lat="40.0713749" lon="-105.229789">
  <ele>1583.0</ele>
  <time>2026-08-28T17:49:45Z</time>
  <course>0.0</course>
  <speed>0.0</speed>
  <fix>3d</fix>
</trkpt>
<trkpt lat="40.0713749" lon="-105.229789">
  <ele>1583.0</ele>
  <time>2026-08-28T17:49:45Z</time>
  <course>247.92</course>
  <speed>0.022360679774997897</speed>
  <fix>3d</fix>
</trkpt>
<trkpt lat="40.0713749" lon="-105.229789">
  <ele>1583.0</ele>
  <time>2026-08-28T17:49:45Z</time>
  <course>0.0</course>
  <speed>0.0</speed>
  <fix>3d</fix>
</trkpt>
<trkpt lat="40.0713749" lon="-105.229789">
  <ele>1583.0</ele>
  <time>2026-08-28T17:49:45Z</time>
  <course>247.92</course>
  <speed>0.022360679774997897</speed>
  <fix>3d</fix>
</trkpt>
<trkpt lat="40.0713749" lon="-105.229789">
  <ele>1583.0</ele>
  <time>2026-08-28T17:49:45Z</time>
  <course>0.0</course>
  <speed>0.0</speed>
  <fix>3d</fix>
</trkpt>
<trkpt lat="40.0713749" lon="-105.229789">
  <ele>1583.0</ele>
  <time>2026-08-28T17:49:45Z</time>
  <course>247.92</course>
  <speed>0.022360679774997897</speed>
  <fix>3d</fix>
</trkpt>
<trkpt lat="40.0713749" lon="-105.229789">
  <ele>1583.0</ele>
  <time>2026-08-28T17:49:45Z</time>
  <course>0.0</course>
  <speed>0.0</speed>
  <fix>3d</fix>
</trkpt>
<trkpt lat="40.0713749" lon="-105.229789">
  <ele>1583.0</ele>
  <time>2026-08-28T17:49:45Z</time>
  <course>247.91</course>
  <speed>0.022360679774997897</speed>
  <fix>3d</fix>
</trkpt>
<trkpt lat="40.0713749" lon="-105.229789">
  <ele>1583.0</ele>
  <time>2026-08-28T17:49:45Z</time>
  <course>0.0</course>
  <speed>0.0</speed>
  <fix>3d</fix>
</trkpt>
<trkpt lat="40.0713749" lon="-105.229789">
  <ele>1583.0</ele>
  <time>2026-08-28T17:49:45Z</time>
  <course>247.91</course>
  <speed>0.022360679774997897</speed>
  <fix>3d</fix>
</trkpt>
<trkpt lat="40.0713749" lon="-105.229789">
  <ele>1583.0</ele>
  <time>2026-08-28T17:49:45Z</time>
  <course>0.0</course>
  <speed>0.0</speed>
  <fix>3d</fix>
</trkpt>
<trkpt lat="40.0713749" lon="-105.229789">
  <ele>1583.0</ele>
  <time>2026-08-28T17:49:45Z</time>
  <course>247.9</course>
  <speed>0.022360679774997897</speed>
  <fix>3d</fix>
</trkpt>
<trkpt lat="40.0713749" lon="-105.229789">
  <ele>1583.0</ele>
  <time>2026-08-28T17:49:45Z</time>
  <course>0.0</course>
  <speed>0.0</speed>
  <fix>3d</fix>
</trkpt>
<trkpt lat="40.0713749" lon="-105.229789">
  <ele>1583.0</ele>
  <time>2026-08-28T17:49:45Z</time>
  <course>247.9</course>
  <speed>0.022360679774997897</speed>
  <fix>3d</fix>
</trkpt>
<trkpt lat="40.0713749" lon="-105.229789">
  <ele>1583.0</ele>
  <time>2026-08-28T17:49:45Z</time>
  <course>0.0</course>
  <speed>0.0</speed>
  <fix>3d</fix>
</trkpt>
<trkpt lat="40.0713749" lon="-105.229789">
  <ele>1583.0</ele>
  <time>2026-08-28T17:49:45Z</time>
  <course>247.89</course>
  <speed>0.022360679774997897</speed>
  <fix>3d</fix>
</trkpt>
<trkpt lat="40.0713749" lon="-105.229789">
  <ele>1583.0</ele>
  <time>2026-08-28T17:49:45Z</time>
  <course>0.0</course>
  <speed>0.0</speed>
  <fix>3d</fix>
</trkpt>
<trkpt lat="40.0713749" lon="-105.229789">
  <ele>1583.0</ele>
  <time>2026-08-28T17:49:45Z</time>
  <course>247.89</course>
  <speed>0.022360679774997897</speed>
  <fix>3d</fix>
</trkpt>
<trkpt lat="40.0713749" lon="-105.229789">
  <ele>1583.0</ele>
  <time>2026-08-28T17:49:45Z</time>
  <course>0.0</course>
  <speed>0.0</speed>
  <fix>3d</fix>
</trkpt>
<trkpt lat="40.0713749" lon="-105.229789">
  <ele>1583.0</ele>
  <time>2026-08-28T17:49:45Z</time>
  <course>247.89</course>
  <speed>0.022360679774997897</speed>
  <fix>3d</fix>
</trkpt>
<trkpt lat="40.0713749" lon="-105.229789">
  <ele>1583.0</ele>
  <time>2026-08-28T17:49:45Z</time>
  <course>0.0</course>
  <speed>0.0</speed>
  <fix>3d</fix>
</trkpt>
<trkpt lat="40.0713749" lon="-105.229789">
  <ele>1583.0</ele>
  <time>2026-08-28T17:49:45Z</time>
  <course>247.88</course>
  <speed>0.0316227766016838</speed>
  <fix>3d</fix>
</trkpt>
<trkpt lat="40.0713749" lon="-105.229789">
  <ele>1583.0</ele>
  <time>2026-08-28T17:49:45Z</time>
  <course>0.0</course>
  <speed>0.0</speed>
  <fix>3d</fix>
</trkpt>
<trkpt lat="40.0713749" lon="-105.229789">
  <ele>1583.0</ele>
  <time>2026-08-28T17:49:45Z</time>
  <course>247.88</course>
  <speed>0.0316227766016838</speed>
  <fix>3d</fix>
</trkpt>
<trkpt lat="40.0713749" lon="-105.229789">
  <ele>1583.0</ele>
  <time>2026-08-28T17:49:45Z</time>
  <course>0.0</course>
  <speed>0.0</speed>
  <fix>3d</fix>
</trkpt>
<trkpt lat="40.0713749" lon="-105.229789">
  <ele>1583.0</ele>
  <time>2026-08-28T17:49:45Z</time>
  <course>247.87</course>
  <speed>0.0316227766016838</speed>
  <fix>3d</fix>
</trkpt>
<trkpt lat="40.0713749" lon="-105.229789">
  <ele>1583.0</ele>
  <time>2026-08-28T17:49:45Z</time>
  <course>0.0</course>
  <speed>0.0</speed>
  <fix>3d</fix>
</trkpt>
<trkpt lat="40.0713749" lon="-105.229789">
  <ele>1583.0</ele>
  <time>2026-08-28T17:49:45Z</time>
  <course>247.87</course>
  <speed>0.0316227766016838</speed>
  <fix>3d</fix>
</trkpt>
<trkpt lat="40.0713749" lon="-105.229789">
  <ele>1583.0</ele>
  <time>2026-08-28T17:49:45Z</time>
  <course>0.0</course>
  <speed>0.0</speed>
  <fix>3d</fix>
</trkpt>
<trkpt lat="40.0713749" lon="-105.229789">
  <ele>1583.0</ele>
  <time>2026-08-28T17:49:45Z</time>
  <course>247.87</course>
  <speed>0.0316227766016838</speed>
  <fix>3d</fix>
</trkpt>
<trkpt lat="40.0713749" lon="-105.229789">
  <ele>1583.0</ele>
  <time>2026-08-28T17:49:45Z</time>
  <course>0.0</course>
  <speed>0.0</speed>
  <fix>3d</fix>
</trkpt>
<trkpt lat="40.0713749" lon="-105.229789">
  <ele>1583.0</ele>
  <time>2026-08-28T17:49:45Z</time>
  <course>247.86</course>
  <speed>0.0316227766016838</speed>
  <fix>3d</fix>
</trkpt>
<trkpt lat="40.0713749" lon="-105.229789">
  <ele>1583.0</ele>
  <time>2026-08-28T17:49:45Z</time>
  <course>0.0</course>
  <speed>0.0</speed>
  <fix>3d</fix>
</trkpt>
<trkpt lat="40.0713749" lon="-105.229789">
  <ele>1583.0</ele>
  <time>2026-08-28T17:49:45Z</time>
  <course>247.86</course>
  <speed>0.0316227766016838</speed>
  <fix>3d</fix>
</trkpt>
<trkpt lat="40.0713749" lon="-105.229789">
  <ele>1583.0</ele>
  <time>2026-08-28T17:49:45Z</time>
  <course>0.0</course>
  <speed>0.0</speed>
  <fix>3d</fix>
</trkpt>
<trkpt lat="40.0713749" lon="-105.229789">
  <ele>1583.0</ele>
  <time>2026-08-28T17:49:45Z</time>
  <course>247.85</course>
  <speed>0.0316227766016838</speed>
  <fix>3d</fix>
</trkpt>
<trkpt lat="40.0713749" lon="-105.229789">
  <ele>1583.0</ele>
  <time>2026-08-28T17:49:45Z</time>
  <course>0.0</course>
  <speed>0.0</speed>
  <fix>3d</fix>
</trkpt>
<trkpt lat="40.0713749" lon="-105.229789">
  <ele>1583.0</ele>
  <time>2026-08-28T17:49:45Z</time>
  <course>247.85</course>
  <speed>0.0316227766016838</speed>
  <fix>3d</fix>
</trkpt>
<trkpt lat="40.0713749" lon="-105.229789">
  <ele>1583.0</ele>
  <time>2026-08-28T17:49:45Z</time>
  <course>0.0</course>
  <speed>0.0</speed>
  <fix>3d</fix>
</trkpt>
<trkpt lat="40.0713749" lon="-105.229789">
  <ele>1583.0</ele>
  <time>2026-08-28T17:49:45Z</time>
  <course>247.85</course>
  <speed>0.0316227766016838</speed>
  <fix>3d</fix>
</trkpt>
<trkpt lat="40.0713749" lon="-105.229789">
  <ele>1583.0</ele>
  <time>2026-08-28T17:49:45Z</time>
  <course>0.0</course>
  <speed>0.0</speed>
  <fix>3d</fix>
</trkpt>
<trkpt lat="40.0713749" lon="-105.229789">
  <ele>1583.0</ele>
  <time>2026-08-28T17:49:45Z</time>
  <course>247.84</course>
  <speed>0.0316227766016838</speed>
  <fix>3d</fix>
</trkpt>
<trkpt lat="40.0713749" lon="-105.229789">
  <ele>1583.0</ele>
  <time>2026-08-28T17:49:45Z</time>
  <course>0.0</course>
  <speed>0.0</speed>
  <fix>3d</fix>
</trkpt>
<trkpt lat="40.0713749" lon="-105.229789">
  <ele>1583.0</ele>
  <time>2026-08-28T17:49:45Z</time>
  <course>247.84</course>
  <speed>0.0316227766016838</speed>
  <fix>3d</fix>
</trkpt>
<trkpt lat="40.0713749" lon="-105.229789">
  <ele>1583.0</ele>
  <time>2026-08-28T17:49:45Z</time>
  <course>0.0</course>
  <speed>0.0</speed>
  <fix>3d</fix>
</trkpt>
<trkpt lat="40.0713749" lon="-105.229789">
  <ele>1583.0</ele>
  <time>2026-08-28T17:49:45Z</time>
  <course>247.83</course>
  <speed>0.0316227766016838</speed>
  <fix>3d</fix>
</trkpt>
<trkpt lat="40.0713749" lon="-105.229789">
  <ele>1583.0</ele>
  <time>2026-08-28T17:49:45Z</time>
  <course>0.0</course>
  <speed>0.0</speed>
  <fix>3d</fix>
</trkpt>
<trkpt lat="40.0713749" lon="-105.229789">
  <ele>1583.0</ele>
  <time>2026-08-28T17:49:45Z</time>
  <course>247.83</course>
  <speed>0.0316227766016838</speed>
  <fix>3d</fix>
</trkpt>
<trkpt lat="40.0713749" lon="-105.229789">
  <ele>1583.0</ele>
  <time>2026-08-28T17:49:45Z</time>
  <course>0.0</course>
  <speed>0.0</speed>
  <fix>3d</fix>
</trkpt>
<trkpt lat="40.0713749" lon="-105.229789">
  <ele>1583.0</ele>
  <time>2026-08-28T17:49:45Z</time>
  <course>247.83</course>
  <speed>0.0316227766016838</speed>
  <fix>3d</fix>
</trkpt>
<trkpt lat="40.0713749" lon="-105.229789">
  <ele>1583.0</ele>
  <time>2026-08-28T17:49:45Z</time>
  <course>0.0</course>
  <speed>0.0</speed>
  <fix>3d</fix>
</trkpt>
<trkpt lat="40.0713749" lon="-105.229789">
  <ele>1583.0</ele>
  <time>2026-08-28T17:49:45Z</time>
  <course>247.82</course>
  <speed>0.0316227766016838</speed>
  <fix>3d</fix>
</trkpt>
<trkpt lat="40.0713749" lon="-105.229789">
  <ele>1583.0</ele>
  <time>2026-08-28T17:49:45Z</time>
  <course>0.0</course>
  <speed>0.0</speed>
  <fix>3d</fix>
</trkpt>
<trkpt lat="40.0713749" lon="-105.229789">
  <ele>1583.0</ele>
  <time>2026-08-28T17:49:45Z</time>
  <course>247.82</course>
  <speed>0.0316227766016838</speed>
  <fix>3d</fix>
</trkpt>
<trkpt lat="40.0713749" lon="-105.229789">
  <ele>1583.0</ele>
  <time>2026-08-28T17:49:45Z</time>
  <course>0.0</course>
  <speed>0.0</speed>
  <fix>3d</fix>
</trkpt>
<trkpt lat="40.0713749" lon="-105.229789">
  <ele>1583.0</ele>
  <time>2026-08-28T17:49:45Z</time>
  <course>247.82</course>
  <speed>0.0316227766016838</speed>
  <fix>3d</fix>
</trkpt>
<trkpt lat="40.0713749" lon="-105.229789">
  <ele>1583.0</ele>
  <time>2026-08-28T17:49:45Z</time>
  <course>0.0</course>
  <speed>0.0</speed>
  <fix>3d</fix>
</trkpt>
<trkpt lat="40.0713749" lon="-105.229789">
  <ele>1583.0</ele>
  <time>2026-08-28T17:49:45Z</time>
  <course>247.81</course>
  <speed>0.0316227766016838</speed>
  <fix>3d</fix>
</trkpt>
<trkpt lat="40.0713749" lon="-105.229789">
  <ele>1583.0</ele>
  <time>2026-08-28T17:49:45Z</time>
  <course>0.0</course>
  <speed>0.0</speed>
  <fix>3d</fix>
</trkpt>
<trkpt lat="40.0713749" lon="-105.229789">
  <ele>1583.0</ele>
  <time>2026-08-28T17:49:45Z</time>
  <course>247.81</course>
  <speed>0.0316227766016838</speed>
  <fix>3d</fix>
</trkpt>
<trkpt lat="40.0713749" lon="-105.229789">
  <ele>1583.0</ele>
  <time>2026-08-28T17:49:45Z</time>
  <course>0.0</course>
  <speed>0.0</speed>
  <fix>3d</fix>
</trkpt>
<trkpt lat="40.0713749" lon="-105.229789">
  <ele>1583.0</ele>
  <time>2026-08-28T17:49:45Z</time>
  <course>247.8</course>
  <speed>0.0316227766016838</speed>
  <fix>3d</fix>
</trkpt>
<trkpt lat="40.0713749" lon="-105.229789">
  <ele>1583.0</ele>
  <time>2026-08-28T17:49:45Z</time>
  <course>0.0</course>
  <speed>0.0</speed>
  <fix>3d</fix>
</trkpt>
<trkpt lat="40.0713749" lon="-105.229789">
  <ele>1583.0</ele>
  <time>2026-08-28T17:49:45Z</time>
  <course>247.8</course>
  <speed>0.0316227766016838</speed>
  <fix>3d</fix>
</trkpt>
<trkpt lat="40.0713749" lon="-105.229789">
  <ele>1583.0</ele>
  <time>2026-08-28T17:49:45Z</time>
  <course>0.0</course>
  <speed>0.0</speed>
  <fix>3d</fix>
</trkpt>
<trkpt lat="40.0713749" lon="-105.229789">
  <ele>1583.0</ele>
  <time>2026-08-28T17:49:45Z</time>
  <course>247.8</course>
  <speed>0.0316227766016838</speed>
  <fix>3d</fix>
</trkpt>
<trkpt lat="40.0713749" lon="-105.229789">
  <ele>1583.0</ele>
  <time>2026-08-28T17:49:45Z</time>
  <course>0.0</course>
  <speed>0.0</speed>
  <fix>3d</fix>
</trkpt>
<trkpt lat="40.0713749" lon="-105.229789">
  <ele>1583.0</ele>
  <time>2026-08-28T17:49:45Z</time>
  <course>247.79</course>
  <speed>0.0316227766016838</speed>
  <fix>3d</fix>
</trkpt>
<trkpt lat="40.0713749" lon="-105.229789">
  <ele>1583.0</ele>
  <time>2026-08-28T17:49:45Z</time>
  <course>0.0</course>
  <speed>0.0</speed>
  <fix>3d</fix>
</trkpt>
<trkpt lat="40.0713749" lon="-105.229789">
  <ele>1583.0</ele>
  <time>2026-08-28T17:49:45Z</time>
  <course>247.79</course>
  <speed>0.0316227766016838</speed>
  <fix>3d</fix>
</trkpt>
<trkpt lat="40.0713749" lon="-105.229789">
  <ele>1583.0</ele>
  <time>2026-08-28T17:49:45Z</time>
  <course>0.0</course>
  <speed>0.0</speed>
  <fix>3d</fix>
</trkpt>
<trkpt lat="40.0713749" lon="-105.229789">
  <ele>1583.0</ele>
  <time>2026-08-28T17:49:45Z</time>
  <course>247.79</course>
  <speed>0.0316227766016838</speed>
  <fix>3d</fix>
</trkpt>
<trkpt lat="40.0713749" lon="-105.229789">
  <ele>1583.0</ele>
  <time>2026-08-28T17:49:45Z</time>
  <course>0.0</course>
  <speed>0.0</speed>
  <fix>3d</fix>
</trkpt>
<trkpt lat="40.0713749" lon="-105.229789">
  <ele>1583.0</ele>
  <time>2026-08-28T17:49:45Z</time>
  <course>247.78</course>
  <speed>0.0316227766016838</speed>
  <fix>3d</fix>
</trkpt>
<trkpt lat="40.0713749" lon="-105.229789">
  <ele>1583.0</ele>
  <time>2026-08-28T17:49:45Z</time>
  <course>0.0</course>
  <speed>0.0</speed>
  <fix>3d</fix>
</trkpt>
<trkpt lat="40.0713749" lon="-105.229789">
  <ele>1583.0</ele>
  <time>2026-08-28T17:49:45Z</time>
  <course>247.78</course>
  <speed>0.0316227766016838</speed>
  <fix>3d</fix>
</trkpt>
<trkpt lat="40.0713749" lon="-105.229789">
  <ele>1583.0</ele>
  <time>2026-08-28T17:49:45Z</time>
  <course>0.0</course>
  <speed>0.0</speed>
  <fix>3d</fix>
</trkpt>
<trkpt lat="40.0713749" lon="-105.229789">
  <ele>1583.0</ele>
  <time>2026-08-28T17:49:45Z</time>
  <course>247.78</course>
  <speed>0.0316227766016838</speed>
  <fix>3d</fix>
</trkpt>
<trkpt lat="40.0713749" lon="-105.229789">
  <ele>1583.0</ele>
  <time>2026-08-28T17:49:45Z</time>
  <course>0.0</course>
  <speed>0.0</speed>
  <fix>3d</fix>
</trkpt>
<trkpt lat="40.0713749" lon="-105.229789">
  <ele>1583.0</ele>
  <time>2026-08-28T17:49:45Z</time>
  <course>247.77</course>
  <speed>0.0316227766016838</speed>
  <fix>3d</fix>
</trkpt>
<trkpt lat="40.0713749" lon="-105.229789">
  <ele>1583.0</ele>
  <time>2026-08-28T17:49:45Z</time>
  <course>0.0</course>
  <speed>0.0</speed>
  <fix>3d</fix>
</trkpt>
<trkpt lat="40.0713749" lon="-105.229789">
  <ele>1583.0</ele>
  <time>2026-08-28T17:49:45Z</time>
  <course>247.77</course>
  <speed>0.0316227766016838</speed>
  <fix>3d</fix>
</trkpt>
<trkpt lat="40.0713749" lon="-105.229789">
  <ele>1583.0</ele>
  <time>2026-08-28T17:49:45Z</time>
  <course>0.0</course>
  <speed>0.0</speed>
  <fix>3d</fix>
</trkpt>
<trkpt lat="40.0713749" lon="-105.229789">
  <ele>1583.0</ele>
  <time>2026-08-28T17:49:45Z</time>
  <course>247.76</course>
  <speed>0.0316227766016838</speed>
  <fix>3d</fix>
</trkpt>
<trkpt lat="40.0713749" lon="-105.229789">
  <ele>1583.0</ele>
  <time>2026-08-28T17:49:45Z</time>
  <course>0.0</course>
  <speed>0.0</speed>
  <fix>3d</fix>
</trkpt>
<trkpt lat="40.0713749" lon="-105.229789">
  <ele>1583.0</ele>
  <time>2026-08-28T17:49:45Z</time>
  <course>247.76</course>
  <speed>0.0316227766016838</speed>
  <fix>3d</fix>
</trkpt>
<trkpt lat="40.0713749" lon="-105.229789">
  <ele>1583.0</ele>
  <time>2026-08-28T17:49:45Z</time>
  <course>0.0</course>
  <speed>0.0</speed>
  <fix>3d</fix>
</trkpt>
<trkpt lat="40.0713749" lon="-105.229789">
  <ele>1583.0</ele>
  <time>2026-08-28T17:49:45Z</time>
  <course>247.76</course>
  <speed>0.0316227766016838</speed>
  <fix>3d</fix>
</trkpt>
<trkpt lat="40.0713749" lon="-105.229789">
  <ele>1583.0</ele>
  <time>2026-08-28T17:49:45Z</time>
  <course>0.0</course>
  <speed>0.0</speed>
  <fix>3d</fix>
</trkpt>
<trkpt lat="40.0713749" lon="-105.229789">
  <ele>1583.0</ele>
  <time>2026-08-28T17:49:45Z</time>
  <course>247.75</course>
  <speed>0.0316227766016838</speed>
  <fix>3d</fix>
</trkpt>
<trkpt lat="40.0713749" lon="-105.229789">
  <ele>1583.0</ele>
  <time>2026-08-28T17:49:45Z</time>
  <course>0.0</course>
  <speed>0.0</speed>
  <fix>3d</fix>
</trkpt>
<trkpt lat="40.0713749" lon="-105.229789">
  <ele>1583.0</ele>
  <time>2026-08-28T17:49:45Z</time>
  <course>247.75</course>
  <speed>0.0316227766016838</speed>
  <fix>3d</fix>
</trkpt>
<trkpt lat="40.0713749" lon="-105.229789">
  <ele>1583.0</ele>
  <time>2026-08-28T17:49:45Z</time>
  <course>0.0</course>
  <speed>0.0</speed>
  <fix>3d</fix>
</trkpt>
<trkpt lat="40.0713749" lon="-105.229789">
  <ele>1583.0</ele>
  <time>2026-08-28T17:49:45Z</time>
  <course>247.75</course>
  <speed>0.0316227766016838</speed>
  <fix>3d</fix>
</trkpt>
<trkpt lat="40.0713749" lon="-105.229789">
  <ele>1583.0</ele>
  <time>2026-08-28T17:49:45Z</time>
  <course>0.0</course>
  <speed>0.0</speed>
  <fix>3d</fix>
</trkpt>
<trkpt lat="40.0713749" lon="-105.229789">
  <ele>1583.0</ele>
  <time>2026-08-28T17:49:45Z</time>
  <course>247.74</course>
  <speed>0.0316227766016838</speed>
  <fix>3d</fix>
</trkpt>
<trkpt lat="40.0713749" lon="-105.229789">
  <ele>1583.0</ele>
  <time>2026-08-28T17:49:45Z</time>
  <course>0.0</course>
  <speed>0.0</speed>
  <fix>3d</fix>
</trkpt>
<trkpt lat="40.0713749" lon="-105.229789">
  <ele>1583.0</ele>
  <time>2026-08-28T17:49:45Z</time>
  <course>247.74</course>
  <speed>0.0316227766016838</speed>
  <fix>3d</fix>
</trkpt>
<trkpt lat="40.0713749" lon="-105.229789">
  <ele>1583.0</ele>
  <time>2026-08-28T17:49:45Z</time>
  <course>0.0</course>
  <speed>0.0</speed>
  <fix>3d</fix>
</trkpt>
<trkpt lat="40.0713749" lon="-105.229789">
  <ele>1583.0</ele>
  <time>2026-08-28T17:49:45Z</time>
  <course>247.74</course>
  <speed>0.0316227766016838</speed>
  <fix>3d</fix>
</trkpt>
<trkpt lat="40.0713749" lon="-105.229789">
  <ele>1583.0</ele>
  <time>2026-08-28T17:49:45Z</time>
  <course>0.0</course>
  <speed>0.0</speed>
  <fix>3d</fix>
</trkpt>
<trkpt lat="40.0713749" lon="-105.229789">
  <ele>1583.0</ele>
  <time>2026-08-28T17:49:45Z</time>
  <course>247.73</course>
  <speed>0.0316227766016838</speed>
  <fix>3d</fix>
</trkpt>
<trkpt lat="40.0713749" lon="-105.229789">
  <ele>1583.0</ele>
  <time>2026-08-28T17:49:45Z</time>
  <course>0.0</course>
  <speed>0.0</speed>
  <fix>3d</fix>
</trkpt>
<trkpt lat="40.0713749" lon="-105.229789">
  <ele>1583.0</ele>
  <time>2026-08-28T17:49:45Z</time>
  <course>247.73</course>
  <speed>0.0316227766016838</speed>
  <fix>3d</fix>
</trkpt>
<trkpt lat="40.0713749" lon="-105.229789">
  <ele>1583.0</ele>
  <time>2026-08-28T17:49:45Z</time>
  <course>0.0</course>
  <speed>0.0</speed>
  <fix>3d</fix>
</trkpt>
<trkpt lat="40.0713749" lon="-105.229789">
  <ele>1583.0</ele>
  <time>2026-08-28T17:49:45Z</time>
  <course>247.73</course>
  <speed>0.0316227766016838</speed>
  <fix>3d</fix>
</trkpt>
<trkpt lat="40.0713749" lon="-105.229789">
  <ele>1583.0</ele>
  <time>2026-08-28T17:49:45Z</time>
  <course>0.0</course>
  <speed>0.0</speed>
  <fix>3d</fix>
</trkpt>
<trkpt lat="40.0713749" lon="-105.229789">
  <ele>1583.0</ele>
  <time>2026-08-28T17:49:45Z</time>
  <course>247.72</course>
  <speed>0.0316227766016838</speed>
  <fix>3d</fix>
</trkpt>
<trkpt lat="40.0713749" lon="-105.229789">
  <ele>1583.0</ele>
  <time>2026-08-28T17:49:45Z</time>
  <course>0.0</course>
  <speed>0.0</speed>
  <fix>3d</fix>
</trkpt>
<trkpt lat="40.0713749" lon="-105.229789">
  <ele>1583.0</ele>
  <time>2026-08-28T17:49:45Z</time>
  <course>247.72</course>
  <speed>0.0316227766016838</speed>
  <fix>3d</fix>
</trkpt>
<trkpt lat="40.0713749" lon="-105.229789">
  <ele>1583.0</ele>
  <time>2026-08-28T17:49:45Z</time>
  <course>0.0</course>
  <speed>0.0</speed>
  <fix>3d</fix>
</trkpt>
<trkpt lat="40.0713749" lon="-105.229789">
  <ele>1583.0</ele>
  <time>2026-08-28T17:49:45Z</time>
  <course>247.72</course>
  <speed>0.0316227766016838</speed>
  <fix>3d</fix>
</trkpt>
<trkpt lat="40.0713749" lon="-105.229789">
  <ele>1583.0</ele>
  <time>2026-08-28T17:49:45Z</time>
  <course>0.0</course>
  <speed>0.0</speed>
  <fix>3d</fix>
</trkpt>
<trkpt lat="40.0713749" lon="-105.229789">
  <ele>1583.0</ele>
  <time>2026-08-28T17:49:45Z</time>
  <course>247.71</course>
  <speed>0.0316227766016838</speed>
  <fix>3d</fix>
</trkpt>
<trkpt lat="40.0713749" lon="-105.229789">
  <ele>1583.0</ele>
  <time>2026-08-28T17:49:45Z</time>
  <course>0.0</course>
  <speed>0.0</speed>
  <fix>3d</fix>
</trkpt>
<trkpt lat="40.0713749" lon="-105.229789">
  <ele>1583.0</ele>
  <time>2026-08-28T17:49:45Z</time>
  <course>247.71</course>
  <speed>0.0316227766016838</speed>
  <fix>3d</fix>
</trkpt>
<trkpt lat="40.0713749" lon="-105.229789">
  <ele>1583.0</ele>
  <time>2026-08-28T17:49:45Z</time>
  <course>0.0</course>
  <speed>0.0</speed>
  <fix>3d</fix>
</trkpt>
<trkpt lat="40.0713749" lon="-105.229789">
  <ele>1583.0</ele>
  <time>2026-08-28T17:49:45Z</time>
  <course>247.71</course>
  <speed>0.0316227766016838</speed>
  <fix>3d</fix>
</trkpt>
<trkpt lat="40.0713749" lon="-105.229789">
  <ele>1583.0</ele>
  <time>2026-08-28T17:49:45Z</time>
  <course>0.0</course>
  <speed>0.0</speed>
  <fix>3d</fix>
</trkpt>
<trkpt lat="40.0713749" lon="-105.229789">
  <ele>1583.0</ele>
  <time>2026-08-28T17:49:45Z</time>
  <course>247.7</course>
  <speed>0.0316227766016838</speed>
  <fix>3d</fix>
</trkpt>
<trkpt lat="40.0713749" lon="-105.229789">
  <ele>1583.0</ele>
  <time>2026-08-28T17:49:45Z</time>
  <course>0.0</course>
  <speed>0.0</speed>
  <fix>3d</fix>
</trkpt>
<trkpt lat="40.0713749" lon="-105.229789">
  <ele>1583.0</ele>
  <time>2026-08-28T17:49:45Z</time>
  <course>247.7</course>
  <speed>0.0316227766016838</speed>
  <fix>3d</fix>
</trkpt>
<trkpt lat="40.0713749" lon="-105.229789">
  <ele>1583.0</ele>
  <time>2026-08-28T17:49:45Z</time>
  <course>0.0</course>
  <speed>0.0</speed>
  <fix>3d</fix>
</trkpt>
<trkpt lat="40.0713749" lon="-105.229789">
  <ele>1583.0</ele>
  <time>2026-08-28T17:49:45Z</time>
  <course>247.7</course>
  <speed>0.0316227766016838</speed>
  <fix>3d</fix>
</trkpt>
<trkpt lat="40.0713749" lon="-105.229789">
  <ele>1583.0</ele>
  <time>2026-08-28T17:49:45Z</time>
  <course>0.0</course>
  <speed>0.0</speed>
  <fix>3d</fix>
</trkpt>
<trkpt lat="40.0713749" lon="-105.229789">
  <ele>1583.0</ele>
  <time>2026-08-28T17:49:45Z</time>
  <course>247.69</course>
  <speed>0.0316227766016838</speed>
  <fix>3d</fix>
</trkpt>
<trkpt lat="40.0713749" lon="-105.229789">
  <ele>1583.0</ele>
  <time>2026-08-28T17:49:45Z</time>
  <course>0.0</course>
  <speed>0.0</speed>
  <fix>3d</fix>
</trkpt>
<trkpt lat="40.0713749" lon="-105.229789">
  <ele>1583.0</ele>
  <time>2026-08-28T17:49:45Z</time>
  <course>247.69</course>
  <speed>0.0316227766016838</speed>
  <fix>3d</fix>
</trkpt>
<trkpt lat="40.0713749" lon="-105.229789">
  <ele>1583.0</ele>
  <time>2026-08-28T17:49:45Z</time>
  <course>0.0</course>
  <speed>0.0</speed>
  <fix>3d</fix>
</trkpt>
<trkpt lat="40.0713749" lon="-105.229789">
  <ele>1583.0</ele>
  <time>2026-08-28T17:49:45Z</time>
  <course>247.69</course>
  <speed>0.0316227766016838</speed>
  <fix>3d</fix>
</trkpt>
<trkpt lat="40.0713749" lon="-105.229789">
  <ele>1583.0</ele>
  <time>2026-08-28T17:49:45Z</time>
  <course>0.0</course>
  <speed>0.0</speed>
  <fix>3d</fix>
</trkpt>
<trkpt lat="40.0713749" lon="-105.229789">
  <ele>1583.0</ele>
  <time>2026-08-28T17:49:45Z</time>
  <course>247.68</course>
  <speed>0.0316227766016838</speed>
  <fix>3d</fix>
</trkpt>
<trkpt lat="40.0713749" lon="-105.229789">
  <ele>1583.0</ele>
  <time>2026-08-28T17:49:45Z</time>
  <course>0.0</course>
  <speed>0.0</speed>
  <fix>3d</fix>
</trkpt>
<trkpt lat="40.0713749" lon="-105.229789">
  <ele>1583.0</ele>
  <time>2026-08-28T17:49:45Z</time>
  <course>247.68</course>
  <speed>0.0316227766016838</speed>
  <fix>3d</fix>
</trkpt>
<trkpt lat="40.0713749" lon="-105.229789">
  <ele>1583.0</ele>
  <time>2026-08-28T17:49:45Z</time>
  <course>0.0</course>
  <speed>0.0</speed>
  <fix>3d</fix>
</trkpt>
<trkpt lat="40.0713749" lon="-105.229789">
  <ele>1583.0</ele>
  <time>2026-08-28T17:49:45Z</time>
  <course>247.68</course>
  <speed>0.0316227766016838</speed>
  <fix>3d</fix>
</trkpt>
<trkpt lat="40.0713749" lon="-105.229789">
  <ele>1583.0</ele>
  <time>2026-08-28T17:49:45Z</time>
  <course>0.0</course>
  <speed>0.0</speed>
  <fix>3d</fix>
</trkpt>
<trkpt lat="40.0713749" lon="-105.229789">
  <ele>1583.0</ele>
  <time>2026-08-28T17:49:45Z</time>
  <course>247.67</course>
  <speed>0.0316227766016838</speed>
  <fix>3d</fix>
</trkpt>
<trkpt lat="40.0713749" lon="-105.229789">
  <ele>1583.0</ele>
  <time>2026-08-28T17:49:45Z</time>
  <course>0.0</course>
  <speed>0.0</speed>
  <fix>3d</fix>
</trkpt>
<trkpt lat="40.0713749" lon="-105.229789">
  <ele>1583.0</ele>
  <time>2026-08-28T17:49:45Z</time>
  <course>247.67</course>
  <speed>0.0316227766016838</speed>
  <fix>3d</fix>
</trkpt>
<trkpt lat="40.0713749" lon="-105.229789">
  <ele>1583.0</ele>
  <time>2026-08-28T17:49:45Z</time>
  <course>0.0</course>
  <speed>0.0</speed>
  <fix>3d</fix>
</trkpt>
<trkpt lat="40.0713749" lon="-105.229789">
  <ele>1583.0</ele>
  <time>2026-08-28T17:49:45Z</time>
  <course>247.67</course>
  <speed>0.0316227766016838</speed>
  <fix>3d</fix>
</trkpt>
<trkpt lat="40.0713749" lon="-105.229789">
  <ele>1583.0</ele>
  <time>2026-08-28T17:49:45Z</time>
  <course>0.0</course>
  <speed>0.0</speed>
  <fix>3d</fix>
</trkpt>
<trkpt lat="40.0713749" lon="-105.229789">
  <ele>1583.0</ele>
  <time>2026-08-28T17:49:45Z</time>
  <course>247.66</course>
  <speed>0.0316227766016838</speed>
  <fix>3d</fix>
</trkpt>
<trkpt lat="40.0713749" lon="-105.229789">
  <ele>1583.0</ele>
  <time>2026-08-28T17:49:45Z</time>
  <course>0.0</course>
  <speed>0.0</speed>
  <fix>3d</fix>
</trkpt>
<trkpt lat="40.0713749" lon="-105.229789">
  <ele>1583.0</ele>
  <time>2026-08-28T17:49:45Z</time>
  <course>247.66</course>
  <speed>0.0316227766016838</speed>
  <fix>3d</fix>
</trkpt>
<trkpt lat="40.0713749" lon="-105.229789">
  <ele>1583.0</ele>
  <time>2026-08-28T17:49:45Z</time>
  <course>0.0</course>
  <speed>0.0</speed>
  <fix>3d</fix>
</trkpt>
<trkpt lat="40.0713749" lon="-105.229789">
  <ele>1583.0</ele>
  <time>2026-08-28T17:49:45Z</time>
  <course>247.66</course>
  <speed>0.0316227766016838</speed>
  <fix>3d</fix>
</trkpt>
<trkpt lat="40.0713749" lon="-105.229789">
  <ele>1583.0</ele>
  <time>2026-08-28T17:49:45Z</time>
  <course>0.0</course>
  <speed>0.0</speed>
  <fix>3d</fix>
</trkpt>
<trkpt lat="40.0713749" lon="-105.229789">
  <ele>1583.0</ele>
  <time>2026-08-28T17:49:45Z</time>
  <course>247.65</course>
  <speed>0.0316227766016838</speed>
  <fix>3d</fix>
</trkpt>
<trkpt lat="40.0713749" lon="-105.229789">
  <ele>1583.0</ele>
  <time>2026-08-28T17:49:45Z</time>
  <course>0.0</course>
  <speed>0.0</speed>
  <fix>3d</fix>
</trkpt>
<trkpt lat="40.0713749" lon="-105.229789">
  <ele>1583.0</ele>
  <time>2026-08-28T17:49:45Z</time>
  <course>247.65</course>
  <speed>0.0316227766016838</speed>
  <fix>3d</fix>
</trkpt>
<trkpt lat="40.0713749" lon="-105.229789">
  <ele>1583.0</ele>
  <time>2026-08-28T17:49:45Z</time>
  <course>0.0</course>
  <speed>0.0</speed>
  <fix>3d</fix>
</trkpt>
<trkpt lat="40.0713749" lon="-105.229789">
  <ele>1583.0</ele>
  <time>2026-08-28T17:49:45Z</time>
  <course>247.65</course>
  <speed>0.0316227766016838</speed>
  <fix>3d</fix>
</trkpt>
<trkpt lat="40.0713749" lon="-105.229789">
  <ele>1583.0</ele>
  <time>2026-08-28T17:49:45Z</time>
  <course>0.0</course>
  <speed>0.0</speed>
  <fix>3d</fix>
</trkpt>
<trkpt lat="40.0713749" lon="-105.229789">
  <ele>1583.0</ele>
  <time>2026-08-28T17:49:45Z</time>
  <course>247.64</course>
  <speed>0.0316227766016838</speed>
  <fix>3d</fix>
</trkpt>
<trkpt lat="40.0713749" lon="-105.229789">
  <ele>1583.0</ele>
  <time>2026-08-28T17:49:45Z</time>
  <course>0.0</course>
  <speed>0.0</speed>
  <fix>3d</fix>
</trkpt>
<trkpt lat="40.0713749" lon="-105.229789">
  <ele>1583.0</ele>
  <time>2026-08-28T17:49:45Z</time>
  <course>247.64</course>
  <speed>0.0316227766016838</speed>
  <fix>3d</fix>
</trkpt>
<trkpt lat="40.0713749" lon="-105.229789">
  <ele>1583.0</ele>
  <time>2026-08-28T17:49:45Z</time>
  <course>0.0</course>
  <speed>0.0</speed>
  <fix>3d</fix>
</trkpt>
<trkpt lat="40.0713749" lon="-105.229789">
  <ele>1583.0</ele>
  <time>2026-08-28T17:49:45Z</time>
  <course>247.64</course>
  <speed>0.0316227766016838</speed>
  <fix>3d</fix>
</trkpt>
<trkpt lat="40.0713749" lon="-105.229789">
  <ele>1583.0</ele>
  <time>2026-08-28T17:49:45Z</time>
  <course>0.0</course>
  <speed>0.0</speed>
  <fix>3d</fix>
</trkpt>
<trkpt lat="40.0713749" lon="-105.229789">
  <ele>1583.0</ele>
  <time>2026-08-28T17:49:45Z</time>
  <course>247.64</course>
  <speed>0.0316227766016838</speed>
  <fix>3d</fix>
</trkpt>
<trkpt lat="40.0713749" lon="-105.229789">
  <ele>1583.0</ele>
  <time>2026-08-28T17:49:45Z</time>
  <course>0.0</course>
  <speed>0.0</speed>
  <fix>3d</fix>
</trkpt>
<trkpt lat="40.0713749" lon="-105.229789">
  <ele>1583.0</ele>
  <time>2026-08-28T17:49:45Z</time>
  <course>247.63</course>
  <speed>0.0316227766016838</speed>
  <fix>3d</fix>
</trkpt>
<trkpt lat="40.0713749" lon="-105.229789">
  <ele>1583.0</ele>
  <time>2026-08-28T17:49:45Z</time>
  <course>0.0</course>
  <speed>0.0</speed>
  <fix>3d</fix>
</trkpt>
<trkpt lat="40.0713749" lon="-105.229789">
  <ele>1583.0</ele>
  <time>2026-08-28T17:49:45Z</time>
  <course>247.63</course>
  <speed>0.0316227766016838</speed>
  <fix>3d</fix>
</trkpt>
<trkpt lat="40.0713749" lon="-105.229789">
  <ele>1583.0</ele>
  <time>2026-08-28T17:49:45Z</time>
  <course>0.0</course>
  <speed>0.0</speed>
  <fix>3d</fix>
</trkpt>
<trkpt lat="40.0713749" lon="-105.229789">
  <ele>1583.0</ele>
  <time>2026-08-28T17:49:45Z</time>
  <course>247.63</course>
  <speed>0.0316227766016838</speed>
  <fix>3d</fix>
</trkpt>
<trkpt lat="40.0713749" lon="-105.229789">
  <ele>1583.0</ele>
  <time>2026-08-28T17:49:45Z</time>
  <course>0.0</course>
  <speed>0.0</speed>
  <fix>3d</fix>
</trkpt>
<trkpt lat="40.0713749" lon="-105.229789">
  <ele>1583.0</ele>
  <time>2026-08-28T17:49:45Z</time>
  <course>247.62</course>
  <speed>0.0316227766016838</speed>
  <fix>3d</fix>
</trkpt>
<trkpt lat="40.0713749" lon="-105.229789">
  <ele>1583.0</ele>
  <time>2026-08-28T17:49:45Z</time>
  <course>0.0</course>
  <speed>0.0</speed>
  <fix>3d</fix>
</trkpt>
<trkpt lat="40.0713749" lon="-105.229789">
  <ele>1583.0</ele>
  <time>2026-08-28T17:49:45Z</time>
  <course>247.62</course>
  <speed>0.0316227766016838</speed>
  <fix>3d</fix>
</trkpt>
<trkpt lat="40.0713749" lon="-105.229789">
  <ele>1583.0</ele>
  <time>2026-08-28T17:49:45Z</time>
  <course>0.0</course>
  <speed>0.0</speed>
  <fix>3d</fix>
</trkpt>
<trkpt lat="40.0713749" lon="-105.229789">
  <ele>1583.0</ele>
  <time>2026-08-28T17:49:45Z</time>
  <course>247.62</course>
  <speed>0.0316227766016838</speed>
  <fix>3d</fix>
</trkpt>
<trkpt lat="40.0713749" lon="-105.229789">
  <ele>1583.0</ele>
  <time>2026-08-28T17:49:45Z</time>
  <course>0.0</course>
  <speed>0.0</speed>
  <fix>3d</fix>
</trkpt>
<trkpt lat="40.0713749" lon="-105.229789">
  <ele>1583.0</ele>
  <time>2026-08-28T17:49:45Z</time>
  <course>247.62</course>
  <speed>0.0316227766016838</speed>
  <fix>3d</fix>
</trkpt>
<trkpt lat="40.0713749" lon="-105.229789">
  <ele>1583.0</ele>
  <time>2026-08-28T17:49:45Z</time>
  <course>0.0</course>
  <speed>0.0</speed>
  <fix>3d</fix>
</trkpt>
<trkpt lat="40.0713749" lon="-105.229789">
  <ele>1583.0</ele>
  <time>2026-08-28T17:49:45Z</time>
  <course>247.61</course>
  <speed>0.0316227766016838</speed>
  <fix>3d</fix>
</trkpt>
<trkpt lat="40.0713749" lon="-105.229789">
  <ele>1583.0</ele>
  <time>2026-08-28T17:49:45Z</time>
  <course>0.0</course>
  <speed>0.0</speed>
  <fix>3d</fix>
</trkpt>
<trkpt lat="40.0713749" lon="-105.229789">
  <ele>1583.0</ele>
  <time>2026-08-28T17:49:45Z</time>
  <course>247.61</course>
  <speed>0.0316227766016838</speed>
  <fix>3d</fix>
</trkpt>
<trkpt lat="40.0713749" lon="-105.229789">
  <ele>1583.0</ele>
  <time>2026-08-28T17:49:45Z</time>
  <course>0.0</course>
  <speed>0.0</speed>
  <fix>3d</fix>
</trkpt>
<trkpt lat="40.0713749" lon="-105.229789">
  <ele>1583.0</ele>
  <time>2026-08-28T17:49:45Z</time>
  <course>247.61</course>
  <speed>0.0316227766016838</speed>
  <fix>3d</fix>
</trkpt>
<trkpt lat="40.0713749" lon="-105.229789">
  <ele>1583.0</ele>
  <time>2026-08-28T17:49:45Z</time>
  <course>0.0</course>
  <speed>0.0</speed>
  <fix>3d</fix>
</trkpt>
<trkpt lat="40.0713749" lon="-105.229789">
  <ele>1583.0</ele>
  <time>2026-08-28T17:49:45Z</time>
  <course>247.6</course>
  <speed>0.0316227766016838</speed>
  <fix>3d</fix>
</trkpt>
<trkpt lat="40.0713749" lon="-105.229789">
  <ele>1583.0</ele>
  <time>2026-08-28T17:49:45Z</time>
  <course>0.0</course>
  <speed>0.0</speed>
  <fix>3d</fix>
</trkpt>
<trkpt lat="40.0713749" lon="-105.229789">
  <ele>1583.0</ele>
  <time>2026-08-28T17:49:45Z</time>
  <course>247.6</course>
  <speed>0.0316227766016838</speed>
  <fix>3d</fix>
</trkpt>
<trkpt lat="40.0713749" lon="-105.229789">
  <ele>1583.0</ele>
  <time>2026-08-28T17:49:45Z</time>
  <course>0.0</course>
  <speed>0.0</speed>
  <fix>3d</fix>
</trkpt>
<trkpt lat="40.0713749" lon="-105.229789">
  <ele>1583.0</ele>
  <time>2026-08-28T17:49:45Z</time>
  <course>247.6</course>
  <speed>0.0316227766016838</speed>
  <fix>3d</fix>
</trkpt>
<trkpt lat="40.0713749" lon="-105.229789">
  <ele>1583.0</ele>
  <time>2026-08-28T17:49:45Z</time>
  <course>0.0</course>
  <speed>0.0</speed>
  <fix>3d</fix>
</trkpt>
<trkpt lat="40.0713749" lon="-105.229789">
  <ele>1583.0</ele>
  <time>2026-08-28T17:49:45Z</time>
  <course>247.6</course>
  <speed>0.0316227766016838</speed>
  <fix>3d</fix>
</trkpt>
<trkpt lat="40.0713749" lon="-105.229789">
  <ele>1583.0</ele>
  <time>2026-08-28T17:49:45Z</time>
  <course>0.0</course>
  <speed>0.0</speed>
  <fix>3d</fix>
</trkpt>
<trkpt lat="40.0713749" lon="-105.229789">
  <ele>1583.0</ele>
  <time>2026-08-28T17:49:45Z</time>
  <course>247.59</course>
  <speed>0.0316227766016838</speed>
  <fix>3d</fix>
</trkpt>
<trkpt lat="40.0713749" lon="-105.229789">
  <ele>1583.0</ele>
  <time>2026-08-28T17:49:45Z</time>
  <course>0.0</course>
  <speed>0.0</speed>
  <fix>3d</fix>
</trkpt>
<trkpt lat="40.0713749" lon="-105.229789">
  <ele>1582.92</ele>
  <time>2026-08-28T17:49:45Z</time>
  <course>247.59</course>
  <speed>0.0</speed>
  <fix>3d</fix>
</trkpt>
<trkpt lat="40.0713749" lon="-105.229789">
  <ele>1583.0</ele>
  <time>2026-08-28T17:49:45Z</time>
  <course>0.0</course>
  <speed>0.0</speed>
  <fix>3d</fix>
</trkpt>
<trkpt lat="40.0713749" lon="-105.229789">
  <ele>1582.92</ele>
  <time>2026-08-28T17:49:46Z</time>
  <course>247.59</course>
  <speed>0.0</speed>
  <fix>3d</fix>
</trkpt>
<trkpt lat="40.0713749" lon="-105.229789">
  <ele>1583.0</ele>
  <time>2026-08-28T17:49:46Z</time>
  <course>0.0</course>
  <speed>0.0</speed>
  <fix>3d</fix>
</trkpt>
<trkpt lat="40.0713749" lon="-105.229789">
  <ele>1582.91</ele>
  <time>2026-08-28T17:49:46Z</time>
  <course>247.58</course>
  <speed>0.0</speed>
  <fix>3d</fix>
</trkpt>
<trkpt lat="40.0713749" lon="-105.229789">
  <ele>1583.0</ele>
  <time>2026-08-28T17:49:46Z</time>
  <course>0.0</course>
  <speed>0.0</speed>
  <fix>3d</fix>
</trkpt>
<trkpt lat="40.0713749" lon="-105.229789">
  <ele>1582.91</ele>
  <time>2026-08-28T17:49:46Z</time>
  <course>247.58</course>
  <speed>0.0</speed>
  <fix>3d</fix>
</trkpt>
<trkpt lat="40.0713749" lon="-105.229789">
  <ele>1583.0</ele>
  <time>2026-08-28T17:49:46Z</time>
  <course>0.0</course>
  <speed>0.0</speed>
  <fix>3d</fix>
</trkpt>
<trkpt lat="40.0713749" lon="-105.229789">
  <ele>1582.9</ele>
  <time>2026-08-28T17:49:46Z</time>
  <course>247.58</course>
  <speed>0.0</speed>
  <fix>3d</fix>
</trkpt>
<trkpt lat="40.0713749" lon="-105.229789">
  <ele>1583.0</ele>
  <time>2026-08-28T17:49:46Z</time>
  <course>0.0</course>
  <speed>0.0</speed>
  <fix>3d</fix>
</trkpt>
<trkpt lat="40.0713749" lon="-105.229789">
  <ele>1582.9</ele>
  <time>2026-08-28T17:49:46Z</time>
  <course>247.58</course>
  <speed>0.0</speed>
  <fix>3d</fix>
</trkpt>
<trkpt lat="40.0713749" lon="-105.229789">
  <ele>1583.0</ele>
  <time>2026-08-28T17:49:46Z</time>
  <course>0.0</course>
  <speed>0.0</speed>
  <fix>3d</fix>
</trkpt>
<trkpt lat="40.0713749" lon="-105.229789">
  <ele>1582.9</ele>
  <time>2026-08-28T17:49:46Z</time>
  <course>247.57</course>
  <speed>0.0</speed>
  <fix>3d</fix>
</trkpt>
<trkpt lat="40.0713749" lon="-105.229789">
  <ele>1583.0</ele>
  <time>2026-08-28T17:49:46Z</time>
  <course>0.0</course>
  <speed>0.0</speed>
  <fix>3d</fix>
</trkpt>
<trkpt lat="40.0713749" lon="-105.229789">
  <ele>1582.9</ele>
  <time>2026-08-28T17:49:46Z</time>
  <course>247.57</course>
  <speed>0.0</speed>
  <fix>3d</fix>
</trkpt>
<trkpt lat="40.0713749" lon="-105.229789">
  <ele>1583.0</ele>
  <time>2026-08-28T17:49:46Z</time>
  <course>0.0</course>
  <speed>0.0</speed>
  <fix>3d</fix>
</trkpt>
<trkpt lat="40.0713749" lon="-105.229789">
  <ele>1582.9</ele>
  <time>2026-08-28T17:49:46Z</time>
  <course>247.57</course>
  <speed>0.0</speed>
  <fix>3d</fix>
</trkpt>
<trkpt lat="40.0713749" lon="-105.229789">
  <ele>1583.0</ele>
  <time>2026-08-28T17:49:46Z</time>
  <course>0.0</course>
  <speed>0.0</speed>
  <fix>3d</fix>
</trkpt>
<trkpt lat="40.0713749" lon="-105.229789">
  <ele>1582.9</ele>
  <time>2026-08-28T17:49:46Z</time>
  <course>247.57</course>
  <speed>0.01</speed>
  <fix>3d</fix>
</trkpt>
<trkpt lat="40.0713749" lon="-105.229789">
  <ele>1583.0</ele>
  <time>2026-08-28T17:49:46Z</time>
  <course>0.0</course>
  <speed>0.0</speed>
  <fix>3d</fix>
</trkpt>
<trkpt lat="40.0713749" lon="-105.229789">
  <ele>1582.9</ele>
  <time>2026-08-28T17:49:46Z</time>
  <course>247.56</course>
  <speed>0.01</speed>
  <fix>3d</fix>
</trkpt>
<trkpt lat="40.0713749" lon="-105.229789">
  <ele>1583.0</ele>
  <time>2026-08-28T17:49:46Z</time>
  <course>0.0</course>
  <speed>0.0</speed>
  <fix>3d</fix>
</trkpt>
<trkpt lat="40.0713749" lon="-105.229789">
  <ele>1582.91</ele>
  <time>2026-08-28T17:49:46Z</time>
  <course>247.56</course>
  <speed>0.01</speed>
  <fix>3d</fix>
</trkpt>
<trkpt lat="40.0713749" lon="-105.229789">
  <ele>1583.0</ele>
  <time>2026-08-28T17:49:46Z</time>
  <course>0.0</course>
  <speed>0.0</speed>
  <fix>3d</fix>
</trkpt>
<trkpt lat="40.0713749" lon="-105.229789">
  <ele>1582.91</ele>
  <time>2026-08-28T17:49:46Z</time>
  <course>247.56</course>
  <speed>0.01</speed>
  <fix>3d</fix>
</trkpt>
<trkpt lat="40.0713749" lon="-105.229789">
  <ele>1583.0</ele>
  <time>2026-08-28T17:49:46Z</time>
  <course>0.0</course>
  <speed>0.0</speed>
  <fix>3d</fix>
</trkpt>
<trkpt lat="40.0713749" lon="-105.229789">
  <ele>1582.92</ele>
  <time>2026-08-28T17:49:46Z</time>
  <course>247.56</course>
  <speed>0.01</speed>
  <fix>3d</fix>
</trkpt>
<trkpt lat="40.0713749" lon="-105.229789">
  <ele>1583.0</ele>
  <time>2026-08-28T17:49:46Z</time>
  <course>0.0</course>
  <speed>0.0</speed>
  <fix>3d</fix>
</trkpt>
<trkpt lat="40.0713749" lon="-105.229789">
  <ele>1582.92</ele>
  <time>2026-08-28T17:49:46Z</time>
  <course>247.55</course>
  <speed>0.01</speed>
  <fix>3d</fix>
</trkpt>
<trkpt lat="40.0713749" lon="-105.229789">
  <ele>1583.0</ele>
  <time>2026-08-28T17:49:46Z</time>
  <course>0.0</course>
  <speed>0.0</speed>
  <fix>3d</fix>
</trkpt>
<trkpt lat="40.0713749" lon="-105.229789">
  <ele>1582.92</ele>
  <time>2026-08-28T17:49:46Z</time>
  <course>247.55</course>
  <speed>0.01</speed>
  <fix>3d</fix>
</trkpt>
<trkpt lat="40.0713749" lon="-105.229789">
  <ele>1583.0</ele>
  <time>2026-08-28T17:49:46Z</time>
  <course>0.0</course>
  <speed>0.0</speed>
  <fix>3d</fix>
</trkpt>
<trkpt lat="40.0713749" lon="-105.229789">
  <ele>1582.93</ele>
  <time>2026-08-28T17:49:46Z</time>
  <course>247.55</course>
  <speed>0.01</speed>
  <fix>3d</fix>
</trkpt>
<trkpt lat="40.0713749" lon="-105.229789">
  <ele>1583.0</ele>
  <time>2026-08-28T17:49:46Z</time>
  <course>0.0</course>
  <speed>0.0</speed>
  <fix>3d</fix>
</trkpt>
<trkpt lat="40.0713749" lon="-105.229789">
  <ele>1582.93</ele>
  <time>2026-08-28T17:49:46Z</time>
  <course>247.55</course>
  <speed>0.01</speed>
  <fix>3d</fix>
</trkpt>
<trkpt lat="40.0713749" lon="-105.229789">
  <ele>1583.0</ele>
  <time>2026-08-28T17:49:46Z</time>
  <course>0.0</course>
  <speed>0.0</speed>
  <fix>3d</fix>
</trkpt>
<trkpt lat="40.0713749" lon="-105.229789">
  <ele>1582.93</ele>
  <time>2026-08-28T17:49:46Z</time>
  <course>247.54</course>
  <speed>0.01</speed>
  <fix>3d</fix>
</trkpt>
<trkpt lat="40.0713749" lon="-105.229789">
  <ele>1583.0</ele>
  <time>2026-08-28T17:49:46Z</time>
  <course>0.0</course>
  <speed>0.0</speed>
  <fix>3d</fix>
</trkpt>
<trkpt lat="40.0713749" lon="-105.229789">
  <ele>1582.93</ele>
  <time>2026-08-28T17:49:46Z</time>
  <course>247.54</course>
  <speed>0.01</speed>
  <fix>3d</fix>
</trkpt>
<trkpt lat="40.0713749" lon="-105.229789">
  <ele>1583.0</ele>
  <time>2026-08-28T17:49:46Z</time>
  <course>0.0</course>
  <speed>0.0</speed>
  <fix>3d</fix>
</trkpt>
<trkpt lat="40.0713749" lon="-105.229789">
  <ele>1582.94</ele>
  <time>2026-08-28T17:49:46Z</time>
  <course>247.54</course>
  <speed>0.01</speed>
  <fix>3d</fix>
</trkpt>
<trkpt lat="40.0713749" lon="-105.229789">
  <ele>1583.0</ele>
  <time>2026-08-28T17:49:46Z</time>
  <course>0.0</course>
  <speed>0.0</speed>
  <fix>3d</fix>
</trkpt>
<trkpt lat="40.0713749" lon="-105.229789">
  <ele>1582.94</ele>
  <time>2026-08-28T17:49:46Z</time>
  <course>247.54</course>
  <speed>0.02</speed>
  <fix>3d</fix>
</trkpt>
<trkpt lat="40.0713749" lon="-105.229789">
  <ele>1583.0</ele>
  <time>2026-08-28T17:49:46Z</time>
  <course>0.0</course>
  <speed>0.0</speed>
  <fix>3d</fix>
</trkpt>
<trkpt lat="40.0713749" lon="-105.229789">
  <ele>1582.94</ele>
  <time>2026-08-28T17:49:46Z</time>
  <course>247.53</course>
  <speed>0.01</speed>
  <fix>3d</fix>
</trkpt>
<trkpt lat="40.0713749" lon="-105.229789">
  <ele>1583.0</ele>
  <time>2026-08-28T17:49:46Z</time>
  <course>0.0</course>
  <speed>0.0</speed>
  <fix>3d</fix>
</trkpt>
<trkpt lat="40.0713749" lon="-105.229789">
  <ele>1582.95</ele>
  <time>2026-08-28T17:49:46Z</time>
  <course>247.53</course>
  <speed>0.01</speed>
  <fix>3d</fix>
</trkpt>
<trkpt lat="40.0713749" lon="-105.229789">
  <ele>1582.95</ele>
  <time>2026-08-28T17:49:46Z</time>
  <course>247.53</course>
  <speed>0.01</speed>
  <fix>3d</fix>
</trkpt>
<trkpt lat="40.0713749" lon="-105.229789">
  <ele>1582.95</ele>
  <time>2026-08-28T17:49:46Z</time>
  <course>247.53</course>
  <speed>0.01</speed>
  <fix>3d</fix>
</trkpt>
<trkpt lat="40.0713749" lon="-105.229789">
  <ele>1583.0</ele>
  <time>2026-08-28T17:49:46Z</time>
  <course>246.0</course>
  <speed>0.0</speed>
  <fix>3d</fix>
</trkpt>
<trkpt lat="40.0713749" lon="-105.229789">
  <ele>1582.95</ele>
  <time>2026-08-28T17:49:46Z</time>
  <course>247.53</course>
  <speed>0.01</speed>
  <fix>3d</fix>
</trkpt>
<trkpt lat="40.0713749" lon="-105.229789">
  <ele>1582.95</ele>
  <time>2026-08-28T17:49:46Z</time>
  <course>247.53</course>
  <speed>0.01</speed>
  <fix>3d</fix>
</trkpt>
<trkpt lat="40.0713749" lon="-105.229789">
  <ele>1582.95</ele>
  <time>2026-08-28T17:49:46Z</time>
  <course>247.53</course>
  <speed>0.01</speed>
  <fix>3d</fix>
</trkpt>
<trkpt lat="40.0713749" lon="-105.229789">
  <ele>1583.0</ele>
  <time>2026-08-28T17:49:46Z</time>
  <course>246.0</course>
  <speed>0.0</speed>
  <fix>3d</fix>
</trkpt>
<trkpt lat="40.0713749" lon="-105.229789">
  <ele>1582.95</ele>
  <time>2026-08-28T17:49:46Z</time>
  <course>247.52</course>
  <speed>0.01</speed>
  <fix>3d</fix>
</trkpt>
<trkpt lat="40.0713749" lon="-105.229789">
  <ele>1582.95</ele>
  <time>2026-08-28T17:49:46Z</time>
  <course>247.51</course>
  <speed>0.01</speed>
  <fix>3d</fix>
</trkpt>
<trkpt lat="40.0713749" lon="-105.229789">
  <ele>1582.95</ele>
  <time>2026-08-28T17:49:46Z</time>
  <course>247.51</course>
  <speed>0.01</speed>
  <fix>3d</fix>
</trkpt>
<trkpt lat="40.0713749" lon="-105.229789">
  <ele>1583.0</ele>
  <time>2026-08-28T17:49:46Z</time>
  <course>245.98</course>
  <speed>0.0</speed>
  <fix>3d</fix>
</trkpt>
<trkpt lat="40.0713749" lon="-105.229789">
  <ele>1582.95</ele>
  <time>2026-08-28T17:49:46Z</time>
  <course>247.51</course>
  <speed>0.01</speed>
  <fix>3d</fix>
</trkpt>
<trkpt lat="40.0713749" lon="-105.229789">
  <ele>1582.96</ele>
  <time>2026-08-28T17:49:46Z</time>
  <course>247.52</course>
  <speed>0.01414213562373095</speed>
  <fix>3d</fix>
</trkpt>
<trkpt lat="40.0713749" lon="-105.229789">
  <ele>1582.96</ele>
  <time>2026-08-28T17:49:46Z</time>
  <course>247.53</course>
  <speed>0.01</speed>
  <fix>3d</fix>
</trkpt>
<trkpt lat="40.0713749" lon="-105.229789">
  <ele>1582.96</ele>
  <time>2026-08-28T17:49:46Z</time>
  <course>247.53</course>
  <speed>0.01</speed>
  <fix>3d</fix>
</trkpt>
<trkpt lat="40.0713749" lon="-105.229789">
  <ele>1583.0</ele>
  <time>2026-08-28T17:49:46Z</time>
  <course>245.98</course>
  <speed>0.0</speed>
  <fix>3d</fix>
</trkpt>
<trkpt lat="40.0713749" lon="-105.229789">
  <ele>1582.96</ele>
  <time>2026-08-28T17:49:46Z</time>
  <course>247.58</course>
  <speed>0.02</speed>
  <fix>3d</fix>
</trkpt>
<trkpt lat="40.0713749" lon="-105.229789">
  <ele>1582.96</ele>
  <time>2026-08-28T17:49:46Z</time>
  <course>247.6</course>
  <speed>0.02</speed>
  <fix>3d</fix>
</trkpt>
<trkpt lat="40.0713749" lon="-105.229789">
  <ele>1582.96</ele>
  <time>2026-08-28T17:49:46Z</time>
  <course>247.6</course>
  <speed>0.02</speed>
  <fix>3d</fix>
</trkpt>
<trkpt lat="40.0713749" lon="-105.229789">
  <ele>1583.0</ele>
  <time>2026-08-28T17:49:46Z</time>
  <course>246.05</course>
  <speed>0.02</speed>
  <fix>3d</fix>
</trkpt>
<trkpt lat="40.0713749" lon="-105.229789">
  <ele>1582.96</ele>
  <time>2026-08-28T17:49:46Z</time>
  <course>247.68</course>
  <speed>0.03</speed>
  <fix>3d</fix>
</trkpt>
<trkpt lat="40.0713749" lon="-105.229789">
  <ele>1582.96</ele>
  <time>2026-08-28T17:49:46Z</time>
  <course>247.72</course>
  <speed>0.04</speed>
  <fix>3d</fix>
</trkpt>
<trkpt lat="40.0713749" lon="-105.229789">
  <ele>1582.96</ele>
  <time>2026-08-28T17:49:46Z</time>
  <course>247.76</course>
  <speed>0.04</speed>
  <fix>3d</fix>
</trkpt>
<trkpt lat="40.0713749" lon="-105.229789">
  <ele>1582.96</ele>
  <time>2026-08-28T17:49:46Z</time>
  <course>247.76</course>
  <speed>0.04</speed>
  <fix>3d</fix>
</trkpt>
<trkpt lat="40.0713749" lon="-105.229789">
  <ele>1583.0</ele>
  <time>2026-08-28T17:49:46Z</time>
  <course>246.05</course>
  <speed>0.02</speed>
  <fix>3d</fix>
</trkpt>
<trkpt lat="40.0713749" lon="-105.229789">
  <ele>1582.96</ele>
  <time>2026-08-28T17:49:46Z</time>
  <course>247.86</course>
  <speed>0.05</speed>
  <fix>3d</fix>
</trkpt>
<trkpt lat="40.0713749" lon="-105.2297891">
  <ele>1582.96</ele>
  <time>2026-08-28T17:49:46Z</time>
  <course>247.92</course>
  <speed>0.06082762530298219</speed>
  <fix>3d</fix>
</trkpt>
<trkpt lat="40.0713749" lon="-105.2297891">
  <ele>1582.96</ele>
  <time>2026-08-28T17:49:46Z</time>
  <course>247.98</course>
  <speed>0.06082762530298219</speed>
  <fix>3d</fix>
</trkpt>
<trkpt lat="40.0713749" lon="-105.2297891">
  <ele>1582.96</ele>
  <time>2026-08-28T17:49:46Z</time>
  <course>248.06</course>
  <speed>0.07071067811865475</speed>
  <fix>3d</fix>
</trkpt>
<trkpt lat="40.0713749" lon="-105.2297891">
  <ele>1582.96</ele>
  <time>2026-08-28T17:49:46Z</time>
  <course>248.06</course>
  <speed>0.07071067811865475</speed>
  <fix>3d</fix>
</trkpt>
<trkpt lat="40.0713749" lon="-105.229789">
  <ele>1583.0</ele>
  <time>2026-08-28T17:49:46Z</time>
  <course>246.4</course>
  <speed>0.06</speed>
  <fix>3d</fix>
</trkpt>
<trkpt lat="40.0713749" lon="-105.2297892">
  <ele>1582.96</ele>
  <time>2026-08-28T17:49:46Z</time>
  <course>248.34</course>
  <speed>0.09219544457292887</speed>
  <fix>3d</fix>
</trkpt>
<trkpt lat="40.0713749" lon="-105.2297892">
  <ele>1582.96</ele>
  <time>2026-08-28T17:49:46Z</time>
  <course>248.46</course>
  <speed>0.1019803902718557</speed>
  <fix>3d</fix>
</trkpt>
<trkpt lat="40.0713749" lon="-105.2297892">
  <ele>1582.96</ele>
  <time>2026-08-28T17:49:46Z</time>
  <course>248.58</course>
  <speed>0.1019803902718557</speed>
  <fix>3d</fix>
</trkpt>
<trkpt lat="40.0713749" lon="-105.2297892">
  <ele>1582.96</ele>
  <time>2026-08-28T17:49:46Z</time>
  <course>248.58</course>
  <speed>0.1019803902718557</speed>
  <fix>3d</fix>
</trkpt>
<trkpt lat="40.0713749" lon="-105.229789">
  <ele>1583.0</ele>
  <time>2026-08-28T17:49:46Z</time>
  <course>246.4</course>
  <speed>0.06</speed>
  <fix>3d</fix>
</trkpt>
<trkpt lat="40.0713749" lon="-105.2297893">
  <ele>1582.96</ele>
  <time>2026-08-28T17:49:46Z</time>
  <course>249.24</course>
  <speed>0.14560219778561037</speed>
  <fix>3d</fix>
</trkpt>
<trkpt lat="40.0713749" lon="-105.2297894">
  <ele>1582.96</ele>
  <time>2026-08-28T17:49:46Z</time>
  <course>249.45</course>
  <speed>0.15524174696260024</speed>
  <fix>3d</fix>
</trkpt>
<trkpt lat="40.0713749" lon="-105.2297894">
  <ele>1582.96</ele>
  <time>2026-08-28T17:49:46Z</time>
  <course>249.45</course>
  <speed>0.15524174696260024</speed>
  <fix>3d</fix>
</trkpt>
<trkpt lat="40.0713749" lon="-105.2297892">
  <ele>1583.0</ele>
  <time>2026-08-28T17:49:46Z</time>
  <course>247.47</course>
  <speed>0.12</speed>
  <fix>3d</fix>
</trkpt>
<trkpt lat="40.0713748" lon="-105.2297896">
  <ele>1582.96</ele>
  <time>2026-08-28T17:49:46Z</time>
  <course>250.42</course>
  <speed>0.20615528128088303</speed>
  <fix>3d</fix>
</trkpt>
<trkpt lat="40.0713748" lon="-105.2297896">
  <ele>1582.95</ele>
  <time>2026-08-28T17:49:46Z</time>
  <course>250.71</course>
  <speed>0.21840329667841554</speed>
  <fix>3d</fix>
</trkpt>
<trkpt lat="40.0713748" lon="-105.2297896">
  <ele>1582.95</ele>
  <time>2026-08-28T17:49:46Z</time>
  <course>250.71</course>
  <speed>0.21840329667841554</speed>
  <fix>3d</fix>
</trkpt>
<trkpt lat="40.0713749" lon="-105.2297892">
  <ele>1583.0</ele>
  <time>2026-08-28T17:49:46Z</time>
  <course>247.47</course>
  <speed>0.12</speed>
  <fix>3d</fix>
</trkpt>
<trkpt lat="40.0713748" lon="-105.2297897">
  <ele>1582.95</ele>
  <time>2026-08-28T17:49:46Z</time>
  <course>251.32</course>
  <speed>0.23769728648009425</speed>
  <fix>3d</fix>
</trkpt>
<trkpt lat="40.0713748" lon="-105.2297898">
  <ele>1582.95</ele>
  <time>2026-08-28T17:49:46Z</time>
  <course>251.65</course>
  <speed>0.2596150997149434</speed>
  <fix>3d</fix>
</trkpt>
<trkpt lat="40.0713748" lon="-105.2297898">
  <ele>1582.95</ele>
  <time>2026-08-28T17:49:46Z</time>
  <course>252.0</course>
  <speed>0.2692582403567252</speed>
  <fix>3d</fix>
</trkpt>
<trkpt lat="40.0713747" lon="-105.2297899">
  <ele>1582.95</ele>
  <time>2026-08-28T17:49:46Z</time>
  <course>252.37</course>
  <speed>0.28861739379323625</speed>
  <fix>3d</fix>
</trkpt>
<trkpt lat="40.0713747" lon="-105.2297899">
  <ele>1582.95</ele>
  <time>2026-08-28T17:49:46Z</time>
  <course>252.37</course>
  <speed>0.28861739379323625</speed>
  <fix>3d</fix>
</trkpt>
<trkpt lat="40.0713748" lon="-105.2297896">
  <ele>1583.0</ele>
  <time>2026-08-28T17:49:46Z</time>
  <course>249.8</course>
  <speed>0.23</speed>
  <fix>3d</fix>
</trkpt>
<trkpt lat="40.0713747" lon="-105.2297901">
  <ele>1582.95</ele>
  <time>2026-08-28T17:49:46Z</time>
  <course>253.6</course>
  <speed>0.33955853692699295</speed>
  <fix>3d</fix>
</trkpt>
<trkpt lat="40.0713747" lon="-105.2297902">
  <ele>1582.95</ele>
  <time>2026-08-28T17:49:46Z</time>
  <course>254.05</course>
  <speed>0.34928498393145957</speed>
  <fix>3d</fix>
</trkpt>
<trkpt lat="40.0713747" lon="-105.2297903">
  <ele>1582.95</ele>
  <time>2026-08-28T17:49:46Z</time>
  <course>254.52</course>
  <speed>0.3687817782917155</speed>
  <fix>3d</fix>
</trkpt>
<trkpt lat="40.0713747" lon="-105.2297903">
  <ele>1582.95</ele>
  <time>2026-08-28T17:49:46Z</time>
  <course>254.52</course>
  <speed>0.3687817782917155</speed>
  <fix>3d</fix>
</trkpt>
<trkpt lat="40.0713748" lon="-105.2297896">
  <ele>1583.0</ele>
  <time>2026-08-28T17:49:46Z</time>
  <course>249.8</course>
  <speed>0.23</speed>
  <fix>3d</fix>
</trkpt>
<trkpt lat="40.0713746" lon="-105.2297906">
  <ele>1582.95</ele>
  <time>2026-08-28T17:49:46Z</time>
  <course>256.06</course>
  <speed>0.4295346318982906</speed>
  <fix>3d</fix>
</trkpt>
<trkpt lat="40.0713746" lon="-105.2297907">
  <ele>1582.96</ele>
  <time>2026-08-28T17:49:46Z</time>
  <course>256.62</course>
  <speed>0.4491102314577124</speed>
  <fix>3d</fix>
</trkpt>
<trkpt lat="40.0713746" lon="-105.2297908">
  <ele>1582.95</ele>
  <time>2026-08-28T17:49:46Z</time>
  <course>257.21</course>
  <speed>0.4687216658103186</speed>
  <fix>3d</fix>
</trkpt>
<trkpt lat="40.0713746" lon="-105.2297908">
  <ele>1582.95</ele>
  <time>2026-08-28T17:49:46Z</time>
  <course>257.21</course>
  <speed>0.4687216658103186</speed>
  <fix>3d</fix>
</trkpt>
<trkpt lat="40.0713748" lon="-105.2297896">
  <ele>1583.0</ele>
  <time>2026-08-28T17:49:46Z</time>
  <course>249.8</course>
  <speed>0.23</speed>
  <fix>3d</fix>
</trkpt>
<trkpt lat="40.0713745" lon="-105.2297912">
  <ele>1582.95</ele>
  <time>2026-08-28T17:49:46Z</time>
  <course>259.11</course>
  <speed>0.5261178575186363</speed>
  <fix>3d</fix>
</trkpt>
<trkpt lat="40.0713745" lon="-105.2297913">
  <ele>1582.95</ele>
  <time>2026-08-28T17:49:46Z</time>
  <course>259.79</course>
  <speed>0.5458937625582473</speed>
  <fix>3d</fix>
</trkpt>
<trkpt lat="40.0713745" lon="-105.2297914">
  <ele>1582.95</ele>
  <time>2026-08-28T17:49:46Z</time>
  <course>260.5</course>
  <speed>0.565685424949238</speed>
  <fix>3d</fix>
</trkpt>
<trkpt lat="40.0713745" lon="-105.2297914">
  <ele>1582.95</ele>
  <time>2026-08-28T17:49:46Z</time>
  <course>260.5</course>
  <speed>0.565685424949238</speed>
  <fix>3d</fix>
</trkpt>
<trkpt lat="40.0713747" lon="-105.2297903">
  <ele>1583.0</ele>
  <time>2026-08-28T17:49:46Z</time>
  <course>253.85</course>
  <speed>0.38</speed>
  <fix>3d</fix>
</trkpt>
<trkpt lat="40.0713744" lon="-105.2297919">
  <ele>1582.95</ele>
  <time>2026-08-28T17:49:46Z</time>
  <course>262.78</course>
  <speed>0.6328506932918696</speed>
  <fix>3d</fix>
</trkpt>
<trkpt lat="40.0713744" lon="-105.229792">
  <ele>1582.95</ele>
  <time>2026-08-28T17:49:46Z</time>
  <course>263.59</course>
  <speed>0.6527633568147035</speed>
  <fix>3d</fix>
</trkpt>
<trkpt lat="40.0713744" lon="-105.2297922">
  <ele>1582.95</ele>
  <time>2026-08-28T17:49:46Z</time>
  <course>264.43</course>
  <speed>0.671863081289633</speed>
  <fix>3d</fix>
</trkpt>
<trkpt lat="40.0713744" lon="-105.2297922">
  <ele>1582.95</ele>
  <time>2026-08-28T17:49:46Z</time>
  <course>264.43</course>
  <speed>0.671863081289633</speed>
  <fix>3d</fix>
</trkpt>
<trkpt lat="40.0713747" lon="-105.2297903">
  <ele>1583.0</ele>
  <time>2026-08-28T17:49:46Z</time>
  <course>253.85</course>
  <speed>0.38</speed>
  <fix>3d</fix>
</trkpt>
<trkpt lat="40.0713744" lon="-105.2297927">
  <ele>1582.95</ele>
  <time>2026-08-28T17:49:46Z</time>
  <course>267.12</course>
  <speed>0.7402702209328699</speed>
  <fix>3d</fix>
</trkpt>
<trkpt lat="40.0713744" lon="-105.2297929">
  <ele>1582.95</ele>
  <time>2026-08-28T17:49:46Z</time>
  <course>268.08</course>
  <speed>0.7700649323271382</speed>
  <fix>3d</fix>
</trkpt>
<trkpt lat="40.0713744" lon="-105.2297931">
  <ele>1582.95</ele>
  <time>2026-08-28T17:49:46Z</time>
  <course>269.06</course>
  <speed>0.79</speed>
  <fix>3d</fix>
</trkpt>
<trkpt lat="40.0713744" lon="-105.2297931">
  <ele>1582.95</ele>
  <time>2026-08-28T17:49:46Z</time>
  <course>269.06</course>
  <speed>0.79</speed>
  <fix>3d</fix>
</trkpt>
<trkpt lat="40.0713745" lon="-105.2297914">
  <ele>1583.0</ele>
  <time>2026-08-28T17:49:46Z</time>
  <course>260.01</course>
  <speed>0.57</speed>
  <fix>3d</fix>
</trkpt>
<trkpt lat="40.0713744" lon="-105.2297939">
  <ele>1582.95</ele>
  <time>2026-08-28T17:49:46Z</time>
  <course>273.28</course>
  <speed>0.8820430828479978</speed>
  <fix>3d</fix>
</trkpt>
<trkpt lat="40.0713744" lon="-105.2297941">
  <ele>1582.95</ele>
  <time>2026-08-28T17:49:46Z</time>
  <course>274.4</course>
  <speed>0.9035485598461215</speed>
  <fix>3d</fix>
</trkpt>
<trkpt lat="40.0713744" lon="-105.2297941">
  <ele>1582.95</ele>
  <time>2026-08-28T17:49:46Z</time>
  <course>274.4</course>
  <speed>0.9035485598461215</speed>
  <fix>3d</fix>
</trkpt>
<trkpt lat="40.0713745" lon="-105.2297914">
  <ele>1583.0</ele>
  <time>2026-08-28T17:49:46Z</time>
  <course>260.01</course>
  <speed>0.57</speed>
  <fix>3d</fix>
</trkpt>
<trkpt lat="40.0713744" lon="-105.2297947">
  <ele>1582.95</ele>
  <time>2026-08-28T17:49:46Z</time>
  <course>277.97</course>
  <speed>0.9815294188153507</speed>
  <fix>3d</fix>
</trkpt>
<trkpt lat="40.0713744" lon="-105.229795">
  <ele>1582.95</ele>
  <time>2026-08-28T17:49:46Z</time>
  <course>279.22</course>
  <speed>1.0044899203078146</speed>
  <fix>3d</fix>
</trkpt>
<trkpt lat="40.0713744" lon="-105.2297952">
  <ele>1582.95</ele>
  <time>2026-08-28T17:49:46Z</time>
  <course>280.5</course>
  <speed>1.0296115772464878</speed>
  <fix>3d</fix>
</trkpt>
<trkpt lat="40.0713744" lon="-105.2297952">
  <ele>1582.95</ele>
  <time>2026-08-28T17:49:46Z</time>
  <course>280.5</course>
  <speed>1.0296115772464878</speed>
  <fix>3d</fix>
</trkpt>
<trkpt lat="40.0713743" lon="-105.229793">
  <ele>1583.0</ele>
  <time>2026-08-28T17:49:46Z</time>
  <course>268.72</course>
  <speed>0.78</speed>
  <fix>3d</fix>
</trkpt>
<trkpt lat="40.0713746" lon="-105.2297962">
  <ele>1582.95</ele>
  <time>2026-08-28T17:49:46Z</time>
  <course>285.93</course>
  <speed>1.126410227226298</speed>
  <fix>3d</fix>
</trkpt>
<trkpt lat="40.0713747" lon="-105.2297965">
  <ele>1582.95</ele>
  <time>2026-08-28T17:49:46Z</time>
  <course>287.37</course>
  <speed>1.157410903698423</speed>
  <fix>3d</fix>
</trkpt>
<trkpt lat="40.0713747" lon="-105.2297965">
  <ele>1582.95</ele>
  <time>2026-08-28T17:49:46Z</time>
  <course>287.37</course>
  <speed>1.157410903698423</speed>
  <fix>3d</fix>
</trkpt>
<trkpt lat="40.0713743" lon="-105.229793">
  <ele>1583.0</ele>
  <time>2026-08-28T17:49:46Z</time>
  <course>268.72</course>
  <speed>0.78</speed>
  <fix>3d</fix>
</trkpt>
<trkpt lat="40.0713749" lon="-105.2297973">
  <ele>1582.95</ele>
  <time>2026-08-28T17:49:46Z</time>
  <course>291.93</course>
  <speed>1.233085560697229</speed>
  <fix>3d</fix>
</trkpt>
<trkpt lat="40.071375" lon="-105.2297976">
  <ele>1582.95</ele>
  <time>2026-08-28T17:49:46Z</time>
  <course>293.49</course>
  <speed>1.2580143083447024</speed>
  <fix>3d</fix>
</trkpt>
<trkpt lat="40.0713751" lon="-105.2297978">
  <ele>1582.95</ele>
  <time>2026-08-28T17:49:46Z</time>
  <course>295.08</course>
  <speed>1.2747548783981961</speed>
  <fix>3d</fix>
</trkpt>
<trkpt lat="40.0713751" lon="-105.2297978">
  <ele>1582.95</ele>
  <time>2026-08-28T17:49:46Z</time>
  <course>295.08</course>
  <speed>1.2747548783981961</speed>
  <fix>3d</fix>
</trkpt>
<trkpt lat="40.0713743" lon="-105.229795">
  <ele>1583.0</ele>
  <time>2026-08-28T17:49:46Z</time>
  <course>280.26</course>
  <speed>1.01</speed>
  <fix>3d</fix>
</trkpt>
<trkpt lat="40.0713755" lon="-105.2297989">
  <ele>1582.95</ele>
  <time>2026-08-28T17:49:46Z</time>
  <course>301.54</course>
  <speed>1.379057649266339</speed>
  <fix>3d</fix>
</trkpt>
<trkpt lat="40.0713757" lon="-105.2297992">
  <ele>1582.95</ele>
  <time>2026-08-28T17:49:46Z</time>
  <course>303.1</course>
  <speed>1.4061649974309558</speed>
  <fix>3d</fix>
</trkpt>
<trkpt lat="40.0713757" lon="-105.2297992">
  <ele>1582.95</ele>
  <time>2026-08-28T17:49:46Z</time>
  <course>303.1</course>
  <speed>1.4061649974309558</speed>
  <fix>3d</fix>
</trkpt>
<trkpt lat="40.0713749" lon="-105.2297976">
  <ele>1583.0</ele>
  <time>2026-08-28T17:49:46Z</time>
  <course>294.61</course>
  <speed>1.25</speed>
  <fix>3d</fix>
</trkpt>
<trkpt lat="40.0713761" lon="-105.2298">
  <ele>1582.96</ele>
  <time>2026-08-28T17:49:46Z</time>
  <course>307.59</course>
  <speed>1.488388390172404</speed>
  <fix>3d</fix>
</trkpt>
<trkpt lat="40.0713763" lon="-105.2298003">
  <ele>1582.96</ele>
  <time>2026-08-28T17:49:46Z</time>
  <course>309.05</course>
  <speed>1.5057224179774968</speed>
  <fix>3d</fix>
</trkpt>
<trkpt lat="40.0713765" lon="-105.2298006">
  <ele>1582.96</ele>
  <time>2026-08-28T17:49:46Z</time>
  <course>310.5</course>
  <speed>1.538083222715858</speed>
  <fix>3d</fix>
</trkpt>
<trkpt lat="40.0713765" lon="-105.2298006">
  <ele>1582.96</ele>
  <time>2026-08-28T17:49:46Z</time>
  <course>310.5</course>
  <speed>1.538083222715858</speed>
  <fix>3d</fix>
</trkpt>
<trkpt lat="40.0713749" lon="-105.2297976">
  <ele>1583.0</ele>
  <time>2026-08-28T17:49:46Z</time>
  <course>294.61</course>
  <speed>1.25</speed>
  <fix>3d</fix>
</trkpt>
<trkpt lat="40.0713771" lon="-105.2298014">
  <ele>1582.96</ele>
  <time>2026-08-28T17:49:46Z</time>
  <course>314.75</course>
  <speed>1.6051479682571324</speed>
  <fix>3d</fix>
</trkpt>
<trkpt lat="40.0713773" lon="-105.2298017">
  <ele>1582.96</ele>
  <time>2026-08-28T17:49:46Z</time>
  <course>316.15</course>
  <speed>1.6268988905276196</speed>
  <fix>3d</fix>
</trkpt>
<trkpt lat="40.0713775" lon="-105.2298019">
  <ele>1582.97</ele>
  <time>2026-08-28T17:49:46Z</time>
  <course>317.55</course>
  <speed>1.6501212076693035</speed>
  <fix>3d</fix>
</trkpt>
<trkpt lat="40.0713775" lon="-105.2298019">
  <ele>1582.97</ele>
  <time>2026-08-28T17:49:46Z</time>
  <course>317.55</course>
  <speed>1.6501212076693035</speed>
  <fix>3d</fix>
</trkpt>
<trkpt lat="40.0713763" lon="-105.2298003">
  <ele>1583.0</ele>
  <time>2026-08-28T17:49:46Z</time>
  <course>309.5</course>
  <speed>1.49</speed>
  <fix>3d</fix>
</trkpt>
<trkpt lat="40.0713782" lon="-105.2298027">
  <ele>1582.97</ele>
  <time>2026-08-28T17:49:46Z</time>
  <course>321.61</course>
  <speed>1.710263137648707</speed>
  <fix>3d</fix>
</trkpt>
<trkpt lat="40.0713785" lon="-105.229803">
  <ele>1582.97</ele>
  <time>2026-08-28T17:49:46Z</time>
  <course>322.92</course>
  <speed>1.7300289014926888</speed>
  <fix>3d</fix>
</trkpt>
<trkpt lat="40.0713787" lon="-105.2298032">
  <ele>1582.97</ele>
  <time>2026-08-28T17:49:46Z</time>
  <course>324.21</course>
  <speed>1.7507141400011597</speed>
  <fix>3d</fix>
</trkpt>
<trkpt lat="40.0713787" lon="-105.2298032">
  <ele>1582.97</ele>
  <time>2026-08-28T17:49:46Z</time>
  <course>324.21</course>
  <speed>1.7507141400011597</speed>
  <fix>3d</fix>
</trkpt>
<trkpt lat="40.0713763" lon="-105.2298003">
  <ele>1583.0</ele>
  <time>2026-08-28T17:49:46Z</time>
  <course>309.5</course>
  <speed>1.49</speed>
  <fix>3d</fix>
</trkpt>
<trkpt lat="40.0713798" lon="-105.2298041">
  <ele>1582.97</ele>
  <time>2026-08-28T17:49:46Z</time>
  <course>329.11</course>
  <speed>1.8196977771047589</speed>
  <fix>3d</fix>
</trkpt>
<trkpt lat="40.0713801" lon="-105.2298043">
  <ele>1582.97</ele>
  <time>2026-08-28T17:49:46Z</time>
  <course>330.24</course>
  <speed>1.8357559750685821</speed>
  <fix>3d</fix>
</trkpt>
<trkpt lat="40.0713801" lon="-105.2298043">
  <ele>1582.97</ele>
  <time>2026-08-28T17:49:46Z</time>
  <course>330.24</course>
  <speed>1.8357559750685821</speed>
  <fix>3d</fix>
</trkpt>
<trkpt lat="40.0713784" lon="-105.2298029">
  <ele>1583.0</ele>
  <time>2026-08-28T17:49:46Z</time>
  <course>322.86</course>
  <speed>1.7</speed>
  <fix>3d</fix>
</trkpt>
<trkpt lat="40.071381" lon="-105.229805">
  <ele>1582.98</ele>
  <time>2026-08-28T17:49:46Z</time>
  <course>333.41</course>
  <speed>1.882817038376273</speed>
  <fix>3d</fix>
</trkpt>
<trkpt lat="40.0713813" lon="-105.2298051">
  <ele>1582.98</ele>
  <time>2026-08-28T17:49:46Z</time>
  <course>334.4</course>
  <speed>1.9011838417154718</speed>
  <fix>3d</fix>
</trkpt>
<trkpt lat="40.0713816" lon="-105.2298053">
  <ele>1582.98</ele>
  <time>2026-08-28T17:49:46Z</time>
  <course>335.36</course>
  <speed>1.9200520826269272</speed>
  <fix>3d</fix>
</trkpt>
<trkpt lat="40.0713816" lon="-105.2298053">
  <ele>1582.98</ele>
  <time>2026-08-28T17:49:46Z</time>
  <course>335.36</course>
  <speed>1.9200520826269272</speed>
  <fix>3d</fix>
</trkpt>
<trkpt lat="40.0713784" lon="-105.2298029">
  <ele>1583.0</ele>
  <time>2026-08-28T17:49:46Z</time>
  <course>322.86</course>
  <speed>1.7</speed>
  <fix>3d</fix>
</trkpt>
<trkpt lat="40.0713826" lon="-105.2298059">
  <ele>1582.98</ele>
  <time>2026-08-28T17:49:46Z</time>
  <course>338.06</course>
  <speed>1.9665451939886864</speed>
  <fix>3d</fix>
</trkpt>
<trkpt lat="40.0713829" lon="-105.229806">
  <ele>1582.98</ele>
  <time>2026-08-28T17:49:46Z</time>
  <course>338.94</course>
  <speed>1.9873600579663466</speed>
  <fix>3d</fix>
</trkpt>
<trkpt lat="40.0713833" lon="-105.2298062">
  <ele>1582.98</ele>
  <time>2026-08-28T17:49:46Z</time>
  <course>339.75</course>
  <speed>2.008606482116395</speed>
  <fix>3d</fix>
</trkpt>
<trkpt lat="40.0713833" lon="-105.2298062">
  <ele>1582.98</ele>
  <time>2026-08-28T17:49:46Z</time>
  <course>339.75</course>
  <speed>2.008606482116395</speed>
  <fix>3d</fix>
</trkpt>
<trkpt lat="40.0713811" lon="-105.2298051">
  <ele>1583.0</ele>
  <time>2026-08-28T17:49:46Z</time>
  <course>333.82</course>
  <speed>1.87</speed>
  <fix>3d</fix>
</trkpt>
<trkpt lat="40.071384" lon="-105.2298065">
  <ele>1582.98</ele>
  <time>2026-08-28T17:49:46Z</time>
  <course>341.3</course>
  <speed>2.042841158778626</speed>
  <fix>3d</fix>
</trkpt>
<trkpt lat="40.0713843" lon="-105.2298067">
  <ele>1582.98</ele>
  <time>2026-08-28T17:49:46Z</time>
  <course>342.04</course>
  <speed>2.055723716845238</speed>
  <fix>3d</fix>
</trkpt>
<trkpt lat="40.0713847" lon="-105.2298068">
  <ele>1582.98</ele>
  <time>2026-08-28T17:49:46Z</time>
  <course>342.75</course>
  <speed>2.0784850252046563</speed>
  <fix>3d</fix>
</trkpt>
<trkpt lat="40.071385" lon="-105.229807">
  <ele>1582.98</ele>
  <time>2026-08-28T17:49:46Z</time>
  <course>343.44</course>
  <speed>2.092008604188807</speed>
  <fix>3d</fix>
</trkpt>
<trkpt lat="40.071385" lon="-105.229807">
  <ele>1582.98</ele>
  <time>2026-08-28T17:49:46Z</time>
  <course>343.44</course>
  <speed>2.092008604188807</speed>
  <fix>3d</fix>
</trkpt>
<trkpt lat="40.0713811" lon="-105.2298051">
  <ele>1583.0</ele>
  <time>2026-08-28T17:49:46Z</time>
  <course>333.82</course>
  <speed>1.87</speed>
  <fix>3d</fix>
</trkpt>
<trkpt lat="40.0713861" lon="-105.2298074">
  <ele>1582.98</ele>
  <time>2026-08-28T17:49:46Z</time>
  <course>345.38</course>
  <speed>2.1464622055838767</speed>
  <fix>3d</fix>
</trkpt>
<trkpt lat="40.0713865" lon="-105.2298075">
  <ele>1582.98</ele>
  <time>2026-08-28T17:49:46Z</time>
  <course>345.98</course>
  <speed>2.1610414156142403</speed>
  <fix>3d</fix>
</trkpt>
<trkpt lat="40.0713869" lon="-105.2298076">
  <ele>1582.98</ele>
  <time>2026-08-28T17:49:46Z</time>
  <course>346.57</course>
  <speed>2.175890622251036</speed>
  <fix>3d</fix>
</trkpt>
<trkpt lat="40.0713869" lon="-105.2298076">
  <ele>1582.98</ele>
  <time>2026-08-28T17:49:46Z</time>
  <course>346.57</course>
  <speed>2.175890622251036</speed>
  <fix>3d</fix>
</trkpt>
<trkpt lat="40.0713844" lon="-105.2298068">
  <ele>1583.0</ele>
  <time>2026-08-28T17:49:46Z</time>
  <course>341.9</course>
  <speed>2.04</speed>
  <fix>3d</fix>
</trkpt>
<trkpt lat="40.0713881" lon="-105.2298079">
  <ele>1582.98</ele>
  <time>2026-08-28T17:49:46Z</time>
  <course>348.21</course>
  <speed>2.233763640137425</speed>
  <fix>3d</fix>
</trkpt>
<trkpt lat="40.0713885" lon="-105.229808">
  <ele>1582.98</ele>
  <time>2026-08-28T17:49:46Z</time>
  <course>348.72</course>
  <speed>2.251443981093023</speed>
  <fix>3d</fix>
</trkpt>
<trkpt lat="40.0713889" lon="-105.2298081">
  <ele>1582.97</ele>
  <time>2026-08-28T17:49:46Z</time>
  <course>349.22</course>
  <speed>2.2673773395709858</speed>
  <fix>3d</fix>
</trkpt>
<trkpt lat="40.0713889" lon="-105.2298081">
  <ele>1582.97</ele>
  <time>2026-08-28T17:49:46Z</time>
  <course>349.22</course>
  <speed>2.2673773395709858</speed>
  <fix>3d</fix>
</trkpt>
<trkpt lat="40.0713844" lon="-105.2298068">
  <ele>1583.0</ele>
  <time>2026-08-28T17:49:46Z</time>
  <course>341.9</course>
  <speed>2.04</speed>
  <fix>3d</fix>
</trkpt>
<trkpt lat="40.0713901" lon="-105.2298084">
  <ele>1582.97</ele>
  <time>2026-08-28T17:49:46Z</time>
  <course>350.61</course>
  <speed>2.3196982562393758</speed>
  <fix>3d</fix>
</trkpt>
<trkpt lat="40.0713905" lon="-105.2298085">
  <ele>1582.97</ele>
  <time>2026-08-28T17:49:46Z</time>
  <course>351.05</course>
  <speed>2.3363646975590093</speed>
  <fix>3d</fix>
</trkpt>
<trkpt lat="40.0713909" lon="-105.2298086">
  <ele>1582.97</ele>
  <time>2026-08-28T17:49:46Z</time>
  <course>351.47</course>
  <speed>2.364571842850202</speed>
  <fix>3d</fix>
</trkpt>
<trkpt lat="40.0713909" lon="-105.2298086">
  <ele>1582.97</ele>
  <time>2026-08-28T17:49:46Z</time>
  <course>351.47</course>
  <speed>2.364571842850202</speed>
  <fix>3d</fix>
</trkpt>
<trkpt lat="40.0713881" lon="-105.2298081">
  <ele>1583.0</ele>
  <time>2026-08-28T17:49:46Z</time>
  <course>347.73</course>
  <speed>2.21</speed>
  <fix>3d</fix>
</trkpt>
<trkpt lat="40.0713922" lon="-105.2298088">
  <ele>1582.97</ele>
  <time>2026-08-28T17:49:46Z</time>
  <course>352.65</course>
  <speed>2.418677324489565</speed>
  <fix>3d</fix>
</trkpt>
<trkpt lat="40.0713926" lon="-105.2298089">
  <ele>1582.97</ele>
  <time>2026-08-28T17:49:46Z</time>
  <course>353.02</course>
  <speed>2.437314095474771</speed>
  <fix>3d</fix>
</trkpt>
<trkpt lat="40.0713931" lon="-105.229809">
  <ele>1582.97</ele>
  <time>2026-08-28T17:49:46Z</time>
  <course>353.37</course>
  <speed>2.4560130292814004</speed>
  <fix>3d</fix>
</trkpt>
<trkpt lat="40.0713931" lon="-105.229809">
  <ele>1582.97</ele>
  <time>2026-08-28T17:49:46Z</time>
  <course>353.37</course>
  <speed>2.4560130292814004</speed>
  <fix>3d</fix>
</trkpt>
<trkpt lat="40.0713881" lon="-105.2298081">
  <ele>1583.0</ele>
  <time>2026-08-28T17:49:46Z</time>
  <course>347.73</course>
  <speed>2.21</speed>
  <fix>3d</fix>
</trkpt>
<trkpt lat="40.0713948" lon="-105.2298092">
  <ele>1582.97</ele>
  <time>2026-08-28T17:49:46Z</time>
  <course>354.68</course>
  <speed>2.5205158202241065</speed>
  <fix>3d</fix>
</trkpt>
<trkpt lat="40.0713953" lon="-105.2298093">
  <ele>1582.97</ele>
  <time>2026-08-28T17:49:46Z</time>
  <course>354.99</course>
  <speed>2.539547203735343</speed>
  <fix>3d</fix>
</trkpt>
<trkpt lat="40.0713953" lon="-105.2298093">
  <ele>1582.97</ele>
  <time>2026-08-28T17:49:46Z</time>
  <course>354.99</course>
  <speed>2.539547203735343</speed>
  <fix>3d</fix>
</trkpt>
<trkpt lat="40.0713922" lon="-105.2298091">
  <ele>1583.0</ele>
  <time>2026-08-28T17:49:46Z</time>
  <course>351.92</course>
  <speed>2.39</speed>
  <fix>3d</fix>
</trkpt>
<trkpt lat="40.0713967" lon="-105.2298095">
  <ele>1582.97</ele>
  <time>2026-08-28T17:49:46Z</time>
  <course>355.84</course>
  <speed>2.596247291765559</speed>
  <fix>3d</fix>
</trkpt>
<trkpt lat="40.0713971" lon="-105.2298095">
  <ele>1582.97</ele>
  <time>2026-08-28T17:49:46Z</time>
  <course>356.11</course>
  <speed>2.615530538915575</speed>
  <fix>3d</fix>
</trkpt>
<trkpt lat="40.0713976" lon="-105.2298095">
  <ele>1582.97</ele>
  <time>2026-08-28T17:49:46Z</time>
  <course>356.37</course>
  <speed>2.6348624252510797</speed>
  <fix>3d</fix>
</trkpt>
<trkpt lat="40.0713976" lon="-105.2298095">
  <ele>1582.97</ele>
  <time>2026-08-28T17:49:46Z</time>
  <course>356.37</course>
  <speed>2.6348624252510797</speed>
  <fix>3d</fix>
</trkpt>
<trkpt lat="40.0713922" lon="-105.2298091">
  <ele>1583.0</ele>
  <time>2026-08-28T17:49:46Z</time>
  <course>351.92</course>
  <speed>2.39</speed>
  <fix>3d</fix>
</trkpt>
<trkpt lat="40.0713995" lon="-105.2298097">
  <ele>1582.97</ele>
  <time>2026-08-28T17:49:46Z</time>
  <course>357.32</course>
  <speed>2.713116289435453</speed>
  <fix>3d</fix>
</trkpt>
<trkpt lat="40.0714" lon="-105.2298097">
  <ele>1582.97</ele>
  <time>2026-08-28T17:49:46Z</time>
  <course>357.54</course>
  <speed>2.7326360899322104</speed>
  <fix>3d</fix>
</trkpt>
<trkpt lat="40.0714" lon="-105.2298097">
  <ele>1582.97</ele>
  <time>2026-08-28T17:49:46Z</time>
  <course>357.54</course>
  <speed>2.7326360899322104</speed>
  <fix>3d</fix>
</trkpt>
<trkpt lat="40.0713922" lon="-105.2298091">
  <ele>1583.0</ele>
  <time>2026-08-28T17:49:46Z</time>
  <course>351.92</course>
  <speed>2.39</speed>
  <fix>3d</fix>
</trkpt>
<trkpt lat="40.0714015" lon="-105.2298098">
  <ele>1582.97</ele>
  <time>2026-08-28T17:49:46Z</time>
  <course>358.16</course>
  <speed>2.791451235468748</speed>
  <fix>3d</fix>
</trkpt>
<trkpt lat="40.0714019" lon="-105.2298099">
  <ele>1582.98</ele>
  <time>2026-08-28T17:49:46Z</time>
  <course>358.35</course>
  <speed>2.811138559374119</speed>
  <fix>3d</fix>
</trkpt>
<trkpt lat="40.0714024" lon="-105.2298099">
  <ele>1582.98</ele>
  <time>2026-08-28T17:49:46Z</time>
  <course>358.54</course>
  <speed>2.8211345235560814</speed>
  <fix>3d</fix>
</trkpt>
<trkpt lat="40.0714024" lon="-105.2298099">
  <ele>1582.98</ele>
  <time>2026-08-28T17:49:46Z</time>
  <course>358.54</course>
  <speed>2.8211345235560814</speed>
  <fix>3d</fix>
</trkpt>
<trkpt lat="40.0713966" lon="-105.2298097">
  <ele>1583.0</ele>
  <time>2026-08-28T17:49:46Z</time>
  <course>354.96</course>
  <speed>2.57</speed>
  <fix>3d</fix>
</trkpt>
<trkpt lat="40.071404" lon="-105.22981">
  <ele>1582.98</ele>
  <time>2026-08-28T17:49:46Z</time>
  <course>359.07</course>
  <speed>2.880433995077825</speed>
  <fix>3d</fix>
</trkpt>
<trkpt lat="40.0714045" lon="-105.22981">
  <ele>1582.98</ele>
  <time>2026-08-28T17:49:46Z</time>
  <course>359.24</course>
  <speed>2.900275848949544</speed>
  <fix>3d</fix>
</trkpt>
<trkpt lat="40.071405" lon="-105.22981">
  <ele>1582.98</ele>
  <time>2026-08-28T17:49:46Z</time>
  <course>359.4</course>
  <speed>2.9202739597510368</speed>
  <fix>3d</fix>
</trkpt>
<trkpt lat="40.071405" lon="-105.22981">
  <ele>1582.98</ele>
  <time>2026-08-28T17:49:46Z</time>
  <course>359.4</course>
  <speed>2.9202739597510368</speed>
  <fix>3d</fix>
</trkpt>
<trkpt lat="40.0713966" lon="-105.2298097">
  <ele>1583.0</ele>
  <time>2026-08-28T17:49:46Z</time>
  <course>354.96</course>
  <speed>2.57</speed>
  <fix>3d</fix>
</trkpt>
<trkpt lat="40.0714065" lon="-105.22981">
  <ele>1582.98</ele>
  <time>2026-08-28T17:49:46Z</time>
  <course>359.85</course>
  <speed>2.980067113338221</speed>
  <fix>3d</fix>
</trkpt>
<trkpt lat="40.0714071" lon="-105.22981">
  <ele>1582.98</ele>
  <time>2026-08-28T17:49:46Z</time>
  <course>359.99</course>
  <speed>3.0000166666203705</speed>
  <fix>3d</fix>
</trkpt>
<trkpt lat="40.0714076" lon="-105.2298101">
  <ele>1582.98</ele>
  <time>2026-08-28T17:49:46Z</time>
  <course>0.12</course>
  <speed>3.02</speed>
  <fix>3d</fix>
</trkpt>
<trkpt lat="40.0714076" lon="-105.2298101">
  <ele>1582.98</ele>
  <time>2026-08-28T17:49:46Z</time>
  <course>0.12</course>
  <speed>3.02</speed>
  <fix>3d</fix>
</trkpt>
<trkpt lat="40.0714014" lon="-105.2298101">
  <ele>1583.0</ele>
  <time>2026-08-28T17:49:46Z</time>
  <course>357.17</course>
  <speed>2.76</speed>
  <fix>3d</fix>
</trkpt>
<trkpt lat="40.0714092" lon="-105.2298101">
  <ele>1582.98</ele>
  <time>2026-08-28T17:49:46Z</time>
  <course>0.51</course>
  <speed>3.07</speed>
  <fix>3d</fix>
</trkpt>
<trkpt lat="40.0714097" lon="-105.2298101">
  <ele>1582.98</ele>
  <time>2026-08-28T17:49:46Z</time>
  <course>0.63</course>
  <speed>3.0900161811874063</speed>
  <fix>3d</fix>
</trkpt>
<trkpt lat="40.0714103" lon="-105.2298101">
  <ele>1582.97</ele>
  <time>2026-08-28T17:49:46Z</time>
  <course>0.74</course>
  <speed>3.110064308016797</speed>
  <fix>3d</fix>
</trkpt>
<trkpt lat="40.0714103" lon="-105.2298101">
  <ele>1582.97</ele>
  <time>2026-08-28T17:49:46Z</time>
  <course>0.74</course>
  <speed>3.110064308016797</speed>
  <fix>3d</fix>
</trkpt>
<trkpt lat="40.0714014" lon="-105.2298101">
  <ele>1583.0</ele>
  <time>2026-08-28T17:49:46Z</time>
  <course>357.17</course>
  <speed>2.76</speed>
  <fix>3d</fix>
</trkpt>
<trkpt lat="40.0714119" lon="-105.2298101">
  <ele>1582.97</ele>
  <time>2026-08-28T17:49:46Z</time>
  <course>1.07</course>
  <speed>3.170141952657641</speed>
  <fix>3d</fix>
</trkpt>
<trkpt lat="40.0714125" lon="-105.2298101">
  <ele>1582.97</ele>
  <time>2026-08-28T17:49:46Z</time>
  <course>1.17</course>
  <speed>3.1902507738420813</speed>
  <fix>3d</fix>
</trkpt>
<trkpt lat="40.0714131" lon="-105.2298101">
  <ele>1582.97</ele>
  <time>2026-08-28T17:49:46Z</time>
  <course>1.28</course>
  <speed>3.21024921150991</speed>
  <fix>3d</fix>
</trkpt>
<trkpt lat="40.0714131" lon="-105.2298101">
  <ele>1582.97</ele>
  <time>2026-08-28T17:49:46Z</time>
  <course>1.28</course>
  <speed>3.21024921150991</speed>
  <fix>3d</fix>
</trkpt>
<trkpt lat="40.0714065" lon="-105.2298103">
  <ele>1583.0</ele>
  <time>2026-08-28T17:49:46Z</time>
  <course>358.78</course>
  <speed>2.95</speed>
  <fix>3d</fix>
</trkpt>
<trkpt lat="40.0714142" lon="-105.2298101">
  <ele>1582.97</ele>
  <time>2026-08-28T17:49:46Z</time>
  <course>1.47</course>
  <speed>3.250384592629002</speed>
  <fix>3d</fix>
</trkpt>
<trkpt lat="40.0714148" lon="-105.2298101">
  <ele>1582.97</ele>
  <time>2026-08-28T17:49:46Z</time>
  <course>1.56</course>
  <speed>3.270550412392385</speed>
  <fix>3d</fix>
</trkpt>
<trkpt lat="40.0714154" lon="-105.2298101">
  <ele>1582.97</ele>
  <time>2026-08-28T17:49:46Z</time>
  <course>1.65</course>
  <speed>3.290547066978377</speed>
  <fix>3d</fix>
</trkpt>
<trkpt lat="40.071416" lon="-105.2298101">
  <ele>1582.97</ele>
  <time>2026-08-28T17:49:46Z</time>
  <course>1.73</course>
  <speed>3.31074009852782</speed>
  <fix>3d</fix>
</trkpt>
<trkpt lat="40.071416" lon="-105.2298101">
  <ele>1582.97</ele>
  <time>2026-08-28T17:49:46Z</time>
  <course>1.73</course>
  <speed>3.31074009852782</speed>
  <fix>3d</fix>
</trkpt>
<trkpt lat="40.071412" lon="-105.2298105">
  <ele>1583.0</ele>
  <time>2026-08-28T17:49:46Z</time>
  <course>359.95</course>
  <speed>3.14</speed>
  <fix>3d</fix>
</trkpt>
<trkpt lat="40.0714177" lon="-105.22981">
  <ele>1582.97</ele>
  <time>2026-08-28T17:49:46Z</time>
  <course>1.97</course>
  <speed>3.370949421157191</speed>
  <fix>3d</fix>
</trkpt>
<trkpt lat="40.0714183" lon="-105.22981">
  <ele>1582.97</ele>
  <time>2026-08-28T17:49:46Z</time>
  <course>2.04</course>
  <speed>3.390943821416096</speed>
  <fix>3d</fix>
</trkpt>
<trkpt lat="40.0714189" lon="-105.22981">
  <ele>1582.97</ele>
  <time>2026-08-28T17:49:46Z</time>
  <course>2.11</course>
  <speed>3.4111874765248533</speed>
  <fix>3d</fix>
</trkpt>
<trkpt lat="40.0714189" lon="-105.22981">
  <ele>1582.97</ele>
  <time>2026-08-28T17:49:46Z</time>
  <course>2.11</course>
  <speed>3.4111874765248533</speed>
  <fix>3d</fix>
</trkpt>
<trkpt lat="40.071412" lon="-105.2298105">
  <ele>1583.0</ele>
  <time>2026-08-28T17:49:46Z</time>
  <course>359.95</course>
  <speed>3.14</speed>
  <fix>3d</fix>
</trkpt>
<trkpt lat="40.0714208" lon="-105.22981">
  <ele>1582.97</ele>
  <time>2026-08-28T17:49:46Z</time>
  <course>2.32</course>
  <speed>3.471440623141925</speed>
  <fix>3d</fix>
</trkpt>
<trkpt lat="40.0714214" lon="-105.22981">
  <ele>1582.97</ele>
  <time>2026-08-28T17:49:46Z</time>
  <course>2.38</course>
  <speed>3.4914323708186017</speed>
  <fix>3d</fix>
</trkpt>
<trkpt lat="40.071422" lon="-105.2298099">
  <ele>1582.97</ele>
  <time>2026-08-28T17:49:46Z</time>
  <course>2.44</course>
  <speed>3.511723223717951</speed>
  <fix>3d</fix>
</trkpt>
<trkpt lat="40.071422" lon="-105.2298099">
  <ele>1582.97</ele>
  <time>2026-08-28T17:49:46Z</time>
  <course>2.44</course>
  <speed>3.511723223717951</speed>
  <fix>3d</fix>
</trkpt>
<trkpt lat="40.0714179" lon="-105.2298105">
  <ele>1583.0</ele>
  <time>2026-08-28T17:49:46Z</time>
  <course>0.8</course>
  <speed>3.35</speed>
  <fix>3d</fix>
</trkpt>
<trkpt lat="40.0714239" lon="-105.2298099">
  <ele>1582.97</ele>
  <time>2026-08-28T17:49:46Z</time>
  <course>2.61</course>
  <speed>3.5720162373651103</speed>
  <fix>3d</fix>
</trkpt>
<trkpt lat="40.0714245" lon="-105.2298099">
  <ele>1582.97</ele>
  <time>2026-08-28T17:49:46Z</time>
  <course>2.66</course>
  <speed>3.592005011132362</speed>
  <fix>3d</fix>
</trkpt>
<trkpt lat="40.0714252" lon="-105.2298099">
  <ele>1582.97</ele>
  <time>2026-08-28T17:49:46Z</time>
  <course>2.71</course>
  <speed>3.6119939091864484</speed>
  <fix>3d</fix>
</trkpt>
<trkpt lat="40.0714252" lon="-105.2298099">
  <ele>1582.97</ele>
  <time>2026-08-28T17:49:46Z</time>
  <course>2.71</course>
  <speed>3.6119939091864484</speed>
  <fix>3d</fix>
</trkpt>
<trkpt lat="40.0714179" lon="-105.2298105">
  <ele>1583.0</ele>
  <time>2026-08-28T17:49:46Z</time>
  <course>0.8</course>
  <speed>3.35</speed>
  <fix>3d</fix>
</trkpt>
<trkpt lat="40.0714271" lon="-105.2298099">
  <ele>1582.97</ele>
  <time>2026-08-28T17:49:46Z</time>
  <course>2.85</course>
  <speed>3.672301730522698</speed>
  <fix>3d</fix>
</trkpt>
<trkpt lat="40.0714278" lon="-105.2298099">
  <ele>1582.98</ele>
  <time>2026-08-28T17:49:46Z</time>
  <course>2.9</course>
  <speed>3.692654871498283</speed>
  <fix>3d</fix>
</trkpt>
<trkpt lat="40.0714285" lon="-105.2298098">
  <ele>1582.98</ele>
  <time>2026-08-28T17:49:46Z</time>
  <course>2.94</course>
  <speed>3.712640569729313</speed>
  <fix>3d</fix>
</trkpt>
<trkpt lat="40.0714285" lon="-105.2298098">
  <ele>1582.98</ele>
  <time>2026-08-28T17:49:46Z</time>
  <course>2.94</course>
  <speed>3.712640569729313</speed>
  <fix>3d</fix>
</trkpt>
<trkpt lat="40.0714241" lon="-105.2298103">
  <ele>1583.0</ele>
  <time>2026-08-28T17:49:46Z</time>
  <course>1.42</course>
  <speed>3.55</speed>
  <fix>3d</fix>
</trkpt>
<trkpt lat="40.0714312" lon="-105.2298097">
  <ele>1582.98</ele>
  <time>2026-08-28T17:49:46Z</time>
  <course>3.09</course>
  <speed>3.802959373961284</speed>
  <fix>3d</fix>
</trkpt>
<trkpt lat="40.0714318" lon="-105.2298097">
  <ele>1582.98</ele>
  <time>2026-08-28T17:49:46Z</time>
  <course>3.13</course>
  <speed>3.822943891819497</speed>
  <fix>3d</fix>
</trkpt>
<trkpt lat="40.0714318" lon="-105.2298097">
  <ele>1582.98</ele>
  <time>2026-08-28T17:49:46Z</time>
  <course>3.13</course>
  <speed>3.822943891819497</speed>
  <fix>3d</fix>
</trkpt>
<trkpt lat="40.0714241" lon="-105.2298103">
  <ele>1583.0</ele>
  <time>2026-08-28T17:49:46Z</time>
  <course>1.42</course>
  <speed>3.55</speed>
  <fix>3d</fix>
</trkpt>
<trkpt lat="40.0714339" lon="-105.2298096">
  <ele>1582.98</ele>
  <time>2026-08-28T17:49:46Z</time>
  <course>3.23</course>
  <speed>3.88329756778952</speed>
  <fix>3d</fix>
</trkpt>
<trkpt lat="40.0714346" lon="-105.2298096">
  <ele>1582.98</ele>
  <time>2026-08-28T17:49:46Z</time>
  <course>3.26</course>
  <speed>3.903280671435248</speed>
  <fix>3d</fix>
</trkpt>
<trkpt lat="40.0714353" lon="-105.2298096">
  <ele>1582.98</ele>
  <time>2026-08-28T17:49:46Z</time>
  <course>3.29</course>
  <speed>3.923684492922437</speed>
  <fix>3d</fix>
</trkpt>
<trkpt lat="40.0714353" lon="-105.2298096">
  <ele>1582.98</ele>
  <time>2026-08-28T17:49:46Z</time>
  <course>3.29</course>
  <speed>3.923684492922437</speed>
  <fix>3d</fix>
</trkpt>
<trkpt lat="40.0714306" lon="-105.2298101">
  <ele>1583.0</ele>
  <time>2026-08-28T17:49:46Z</time>
  <course>1.85</course>
  <speed>3.75</speed>
  <fix>3d</fix>
</trkpt>
<trkpt lat="40.0714375" lon="-105.2298095">
  <ele>1582.99</ele>
  <time>2026-08-28T17:49:46Z</time>
  <course>3.38</course>
  <speed>3.9836289987899227</speed>
  <fix>3d</fix>
</trkpt>
<trkpt lat="40.0714382" lon="-105.2298094">
  <ele>1582.99</ele>
  <time>2026-08-28T17:49:46Z</time>
  <course>3.41</course>
  <speed>4.013601873629222</speed>
  <fix>3d</fix>
</trkpt>
<trkpt lat="40.0714389" lon="-105.2298094">
  <ele>1582.99</ele>
  <time>2026-08-28T17:49:46Z</time>
  <course>3.44</course>
  <speed>4.034017848250055</speed>
  <fix>3d</fix>
</trkpt>
<trkpt lat="40.0714389" lon="-105.2298094">
  <ele>1582.99</ele>
  <time>2026-08-28T17:49:46Z</time>
  <course>3.44</course>
  <speed>4.034017848250055</speed>
  <fix>3d</fix>
</trkpt>
<trkpt lat="40.0714306" lon="-105.2298101">
  <ele>1583.0</ele>
  <time>2026-08-28T17:49:46Z</time>
  <course>1.85</course>
  <speed>3.75</speed>
  <fix>3d</fix>
</trkpt>
<trkpt lat="40.0714411" lon="-105.2298093">
  <ele>1582.99</ele>
  <time>2026-08-28T17:49:46Z</time>
  <course>3.51</course>
  <speed>4.093958964132396</speed>
  <fix>3d</fix>
</trkpt>
<trkpt lat="40.0714418" lon="-105.2298093">
  <ele>1582.99</ele>
  <time>2026-08-28T17:49:46Z</time>
  <course>3.53</course>
  <speed>4.114389383614536</speed>
  <fix>3d</fix>
</trkpt>
<trkpt lat="40.0714426" lon="-105.2298092">
  <ele>1582.99</ele>
  <time>2026-08-28T17:49:46Z</time>
  <course>3.55</course>
  <speed>4.1343681500321185</speed>
  <fix>3d</fix>
</trkpt>
<trkpt lat="40.0714426" lon="-105.2298092">
  <ele>1582.99</ele>
  <time>2026-08-28T17:49:46Z</time>
  <course>3.55</course>
  <speed>4.1343681500321185</speed>
  <fix>3d</fix>
</trkpt>
<trkpt lat="40.0714375" lon="-105.2298098">
  <ele>1583.0</ele>
  <time>2026-08-28T17:49:46Z</time>
  <course>2.17</course>
  <speed>3.96</speed>
  <fix>3d</fix>
</trkpt>
<trkpt lat="40.0714456" lon="-105.2298091">
  <ele>1582.99</ele>
  <time>2026-08-28T17:49:46Z</time>
  <course>3.64</course>
  <speed>4.214747916542578</speed>
  <fix>3d</fix>
</trkpt>
<trkpt lat="40.0714463" lon="-105.229809">
  <ele>1582.99</ele>
  <time>2026-08-28T17:49:46Z</time>
  <course>3.66</course>
  <speed>4.234725492874361</speed>
  <fix>3d</fix>
</trkpt>
<trkpt lat="40.0714463" lon="-105.229809">
  <ele>1582.99</ele>
  <time>2026-08-28T17:49:46Z</time>
  <course>3.66</course>
  <speed>4.234725492874361</speed>
  <fix>3d</fix>
</trkpt>
<trkpt lat="40.0714375" lon="-105.2298098">
  <ele>1583.0</ele>
  <time>2026-08-28T17:49:46Z</time>
  <course>2.17</course>
  <speed>3.96</speed>
  <fix>3d</fix>
</trkpt>
<trkpt lat="40.0714486" lon="-105.2298089">
  <ele>1582.99</ele>
  <time>2026-08-28T17:49:46Z</time>
  <course>3.72</course>
  <speed>4.294659474277326</speed>
  <fix>3d</fix>
</trkpt>
<trkpt lat="40.0714494" lon="-105.2298089">
  <ele>1582.99</ele>
  <time>2026-08-28T17:49:46Z</time>
  <course>3.74</course>
  <speed>4.315112976504787</speed>
  <fix>3d</fix>
</trkpt>
<trkpt lat="40.0714502" lon="-105.2298088">
  <ele>1582.99</ele>
  <time>2026-08-28T17:49:46Z</time>
  <course>3.77</course>
  <speed>4.335089387775066</speed>
  <fix>3d</fix>
</trkpt>
<trkpt lat="40.0714502" lon="-105.2298088">
  <ele>1582.99</ele>
  <time>2026-08-28T17:49:46Z</time>
  <course>3.77</course>
  <speed>4.335089387775066</speed>
  <fix>3d</fix>
</trkpt>
<trkpt lat="40.0714448" lon="-105.2298093">
  <ele>1583.0</ele>
  <time>2026-08-28T17:49:46Z</time>
  <course>2.43</course>
  <speed>4.17</speed>
  <fix>3d</fix>
</trkpt>
<trkpt lat="40.0714525" lon="-105.2298087">
  <ele>1582.99</ele>
  <time>2026-08-28T17:49:46Z</time>
  <course>3.82</course>
  <speed>4.405008513045122</speed>
  <fix>3d</fix>
</trkpt>
<trkpt lat="40.0714533" lon="-105.2298087">
  <ele>1582.99</ele>
  <time>2026-08-28T17:49:46Z</time>
  <course>3.83</course>
  <speed>4.425471726268285</speed>
  <fix>3d</fix>
</trkpt>
<trkpt lat="40.0714541" lon="-105.2298086">
  <ele>1582.99</ele>
  <time>2026-08-28T17:49:46Z</time>
  <course>3.84</course>
  <speed>4.445447109121871</speed>
  <fix>3d</fix>
</trkpt>
<trkpt lat="40.0714541" lon="-105.2298086">
  <ele>1582.99</ele>
  <time>2026-08-28T17:49:46Z</time>
  <course>3.84</course>
  <speed>4.445447109121871</speed>
  <fix>3d</fix>
</trkpt>
<trkpt lat="40.0714448" lon="-105.2298093">
  <ele>1583.0</ele>
  <time>2026-08-28T17:49:46Z</time>
  <course>2.43</course>
  <speed>4.17</speed>
  <fix>3d</fix>
</trkpt>
<trkpt lat="40.0714565" lon="-105.2298085">
  <ele>1583.0</ele>
  <time>2026-08-28T17:49:46Z</time>
  <course>3.88</course>
  <speed>4.505374568224045</speed>
  <fix>3d</fix>
</trkpt>
<trkpt lat="40.0714573" lon="-105.2298084">
  <ele>1583.0</ele>
  <time>2026-08-28T17:49:46Z</time>
  <course>3.89</course>
  <speed>4.525350815130248</speed>
  <fix>3d</fix>
</trkpt>
<trkpt lat="40.0714581" lon="-105.2298084">
  <ele>1583.0</ele>
  <time>2026-08-28T17:49:46Z</time>
  <course>3.9</course>
  <speed>4.545822257853908</speed>
  <fix>3d</fix>
</trkpt>
<trkpt lat="40.0714581" lon="-105.2298084">
  <ele>1583.0</ele>
  <time>2026-08-28T17:49:46Z</time>
  <course>3.9</course>
  <speed>4.545822257853908</speed>
  <fix>3d</fix>
</trkpt>
<trkpt lat="40.0714524" lon="-105.2298089">
  <ele>1583.0</ele>
  <time>2026-08-28T17:49:46Z</time>
  <course>2.61</course>
  <speed>4.37</speed>
  <fix>3d</fix>
</trkpt>
<trkpt lat="40.0714614" lon="-105.2298082">
  <ele>1583.0</ele>
  <time>2026-08-28T17:49:46Z</time>
  <course>3.94</course>
  <speed>4.6257215653344295</speed>
  <fix>3d</fix>
</trkpt>
<trkpt lat="40.0714622" lon="-105.2298082">
  <ele>1583.0</ele>
  <time>2026-08-28T17:49:46Z</time>
  <course>3.96</course>
  <speed>4.645696933722647</speed>
  <fix>3d</fix>
</trkpt>
<trkpt lat="40.0714622" lon="-105.2298082">
  <ele>1583.0</ele>
  <time>2026-08-28T17:49:46Z</time>
  <course>3.96</course>
  <speed>4.645696933722647</speed>
  <fix>3d</fix>
</trkpt>
<trkpt lat="40.0714524" lon="-105.2298089">
  <ele>1583.0</ele>
  <time>2026-08-28T17:49:46Z</time>
  <course>2.61</course>
  <speed>4.37</speed>
  <fix>3d</fix>
</trkpt>
<trkpt lat="40.0714656" lon="-105.229808">
  <ele>1583.0</ele>
  <time>2026-08-28T17:49:46Z</time>
  <course>4.0</course>
  <speed>4.726097756077418</speed>
  <fix>3d</fix>
</trkpt>
<trkpt lat="40.0714664" lon="-105.2298079">
  <ele>1583.0</ele>
  <time>2026-08-28T17:49:46Z</time>
  <course>4.01</course>
  <speed>4.746072060135623</speed>
  <fix>3d</fix>
</trkpt>
<trkpt lat="40.0714664" lon="-105.2298079">
  <ele>1583.0</ele>
  <time>2026-08-28T17:49:46Z</time>
  <course>4.01</course>
  <speed>4.746072060135623</speed>
  <fix>3d</fix>
</trkpt>
<trkpt lat="40.0714524" lon="-105.2298089">
  <ele>1583.0</ele>
  <time>2026-08-28T17:49:46Z</time>
  <course>2.61</course>
  <speed>4.37</speed>
  <fix>3d</fix>
</trkpt>
<trkpt lat="40.0714689" lon="-105.2298077">
  <ele>1583.0</ele>
  <time>2026-08-28T17:49:46Z</time>
  <course>4.05</course>
  <speed>4.806506007486103</speed>
  <fix>3d</fix>
</trkpt>
<trkpt lat="40.0714698" lon="-105.2298077">
  <ele>1583.0</ele>
  <time>2026-08-28T17:49:46Z</time>
  <course>4.06</course>
  <speed>4.826479047918887</speed>
  <fix>3d</fix>
</trkpt>
<trkpt lat="40.0714706" lon="-105.2298076">
  <ele>1583.0</ele>
  <time>2026-08-28T17:49:46Z</time>
  <course>4.07</course>
  <speed>4.846452310711414</speed>
  <fix>3d</fix>
</trkpt>
<trkpt lat="40.0714706" lon="-105.2298076">
  <ele>1583.0</ele>
  <time>2026-08-28T17:49:46Z</time>
  <course>4.07</course>
  <speed>4.846452310711414</speed>
  <fix>3d</fix>
</trkpt>
<trkpt lat="40.0714605" lon="-105.2298084">
  <ele>1583.0</ele>
  <time>2026-08-28T17:49:46Z</time>
  <course>2.74</course>
  <speed>4.57</speed>
  <fix>3d</fix>
</trkpt>
<trkpt lat="40.0714741" lon="-105.2298074">
  <ele>1583.0</ele>
  <time>2026-08-28T17:49:46Z</time>
  <course>4.12</course>
  <speed>4.926865129065337</speed>
  <fix>3d</fix>
</trkpt>
<trkpt lat="40.071475" lon="-105.2298074">
  <ele>1583.0</ele>
  <time>2026-08-28T17:49:46Z</time>
  <course>4.13</course>
  <speed>4.946837373514517</speed>
  <fix>3d</fix>
</trkpt>
<trkpt lat="40.071475" lon="-105.2298074">
  <ele>1583.0</ele>
  <time>2026-08-28T17:49:46Z</time>
  <course>4.13</course>
  <speed>4.946837373514517</speed>
  <fix>3d</fix>
</trkpt>
<trkpt lat="40.0714605" lon="-105.2298084">
  <ele>1583.0</ele>
  <time>2026-08-28T17:49:46Z</time>
  <course>2.74</course>
  <speed>4.57</speed>
  <fix>3d</fix>
</trkpt>
<trkpt lat="40.0714759" lon="-105.2298073">
  <ele>1583.0</ele>
  <time>2026-08-28T17:49:46Z</time>
  <course>4.13</course>
  <speed>4.966809841336791</speed>
  <fix>3d</fix>
</trkpt>
<trkpt lat="40.0714767" lon="-105.2298072">
  <ele>1583.0</ele>
  <time>2026-08-28T17:49:46Z</time>
  <course>4.13</course>
  <speed>4.986782529848279</speed>
  <fix>3d</fix>
</trkpt>
<trkpt lat="40.0714776" lon="-105.2298072">
  <ele>1583.0</ele>
  <time>2026-08-28T17:49:46Z</time>
  <course>4.13</course>
  <speed>4.99676895603549</speed>
  <fix>3d</fix>
</trkpt>
<trkpt lat="40.0714785" lon="-105.2298071">
  <ele>1583.0</ele>
  <time>2026-08-28T17:49:46Z</time>
  <course>4.14</course>
  <speed>5.0167419706419025</speed>
  <fix>3d</fix>
</trkpt>
<trkpt lat="40.0714794" lon="-105.2298071">
  <ele>1583.0</ele>
  <time>2026-08-28T17:49:46Z</time>
  <course>4.16</course>
  <speed>5.037241308494164</speed>
  <fix>3d</fix>
</trkpt>
<trkpt lat="40.0714794" lon="-105.2298071">
  <ele>1583.0</ele>
  <time>2026-08-28T17:49:46Z</time>
  <course>4.16</course>
  <speed>5.037241308494164</speed>
  <fix>3d</fix>
</trkpt>
<trkpt lat="40.071469" lon="-105.2298079">
  <ele>1583.0</ele>
  <time>2026-08-28T17:49:46Z</time>
  <course>2.87</course>
  <speed>4.78</speed>
  <fix>3d</fix>
</trkpt>
<trkpt lat="40.071483" lon="-105.2298068">
  <ele>1583.0</ele>
  <time>2026-08-28T17:49:46Z</time>
  <course>4.17</course>
  <speed>5.117128100800292</speed>
  <fix>3d</fix>
</trkpt>
<trkpt lat="40.0714839" lon="-105.2298068">
  <ele>1583.0</ele>
  <time>2026-08-28T17:49:46Z</time>
  <course>4.16</course>
  <speed>5.137100349418921</speed>
  <fix>3d</fix>
</trkpt>
<trkpt lat="40.0714839" lon="-105.2298068">
  <ele>1583.0</ele>
  <time>2026-08-28T17:49:46Z</time>
  <course>4.16</course>
  <speed>5.137100349418921</speed>
  <fix>3d</fix>
</trkpt>
<trkpt lat="40.071469" lon="-105.2298079">
  <ele>1583.0</ele>
  <time>2026-08-28T17:49:46Z</time>
  <course>2.87</course>
  <speed>4.78</speed>
  <fix>3d</fix>
</trkpt>
<trkpt lat="40.0714875" lon="-105.2298066">
  <ele>1583.0</ele>
  <time>2026-08-28T17:49:46Z</time>
  <course>4.16</course>
  <speed>5.197018375953658</speed>
  <fix>3d</fix>
</trkpt>
<trkpt lat="40.0714884" lon="-105.2298065">
  <ele>1583.0</ele>
  <time>2026-08-28T17:49:46Z</time>
  <course>4.16</course>
  <speed>5.207004897251394</speed>
  <fix>3d</fix>
</trkpt>
<trkpt lat="40.0714884" lon="-105.2298065">
  <ele>1583.0</ele>
  <time>2026-08-28T17:49:46Z</time>
  <course>4.16</course>
  <speed>5.207004897251394</speed>
  <fix>3d</fix>
</trkpt>
<trkpt lat="40.0714777" lon="-105.2298074">
  <ele>1583.0</ele>
  <time>2026-08-28T17:49:46Z</time>
  <course>2.95</course>
  <speed>4.98</speed>
  <fix>3d</fix>
</trkpt>
<trkpt lat="40.0714912" lon="-105.2298063">
  <ele>1583.0</ele>
  <time>2026-08-28T17:49:46Z</time>
  <course>4.15</course>
  <speed>5.246951495868816</speed>
  <fix>3d</fix>
</trkpt>
<trkpt lat="40.0714921" lon="-105.2298063">
  <ele>1583.0</ele>
  <time>2026-08-28T17:49:46Z</time>
  <course>4.15</course>
  <speed>5.2569382724167495</speed>
  <fix>3d</fix>
</trkpt>
<trkpt lat="40.071493" lon="-105.2298062">
  <ele>1583.0</ele>
  <time>2026-08-28T17:49:46Z</time>
  <course>4.15</course>
  <speed>5.266925099144661</speed>
  <fix>3d</fix>
</trkpt>
<trkpt lat="40.071493" lon="-105.2298062">
  <ele>1583.0</ele>
  <time>2026-08-28T17:49:46Z</time>
  <course>4.15</course>
  <speed>5.266925099144661</speed>
  <fix>3d</fix>
</trkpt>
<trkpt lat="40.0714777" lon="-105.2298074">
  <ele>1583.0</ele>
  <time>2026-08-28T17:49:46Z</time>
  <course>2.95</course>
  <speed>4.98</speed>
  <fix>3d</fix>
</trkpt>
<trkpt lat="40.0714968" lon="-105.229806">
  <ele>1583.0</ele>
  <time>2026-08-28T17:49:46Z</time>
  <course>4.15</course>
  <speed>5.30687290219014</speed>
  <fix>3d</fix>
</trkpt>
<trkpt lat="40.0714978" lon="-105.2298059">
  <ele>1583.0</ele>
  <time>2026-08-28T17:49:46Z</time>
  <course>4.15</course>
  <speed>5.316859975587095</speed>
  <fix>3d</fix>
</trkpt>
<trkpt lat="40.0714978" lon="-105.2298059">
  <ele>1583.0</ele>
  <time>2026-08-28T17:49:46Z</time>
  <course>4.15</course>
  <speed>5.316859975587095</speed>
  <fix>3d</fix>
</trkpt>
<trkpt lat="40.0714868" lon="-105.2298067">
  <ele>1583.0</ele>
  <time>2026-08-28T17:49:46Z</time>
  <course>2.97</course>
  <speed>5.15</speed>
  <fix>3d</fix>
</trkpt>
<trkpt lat="40.0715015" lon="-105.2298057">
  <ele>1583.0</ele>
  <time>2026-08-28T17:49:46Z</time>
  <course>4.14</course>
  <speed>5.346821485705316</speed>
  <fix>3d</fix>
</trkpt>
<trkpt lat="40.0715025" lon="-105.2298056">
  <ele>1583.0</ele>
  <time>2026-08-28T17:49:46Z</time>
  <course>4.14</course>
  <speed>5.346821485705316</speed>
  <fix>3d</fix>
</trkpt>
<trkpt lat="40.0715025" lon="-105.2298056">
  <ele>1583.0</ele>
  <time>2026-08-28T17:49:46Z</time>
  <course>4.14</course>
  <speed>5.346821485705316</speed>
  <fix>3d</fix>
</trkpt>
<trkpt lat="40.0714962" lon="-105.229806">
  <ele>1583.0</ele>
  <time>2026-08-28T17:49:46Z</time>
  <course>2.97</course>
  <speed>5.27</speed>
  <fix>3d</fix>
</trkpt>
<trkpt lat="40.0715053" lon="-105.2298054">
  <ele>1583.0</ele>
  <time>2026-08-28T17:49:46Z</time>
  <course>4.14</course>
  <speed>5.366796064692602</speed>
  <fix>3d</fix>
</trkpt>
<trkpt lat="40.0715063" lon="-105.2298053">
  <ele>1583.0</ele>
  <time>2026-08-28T17:49:46Z</time>
  <course>4.14</course>
  <speed>5.366796064692602</speed>
  <fix>3d</fix>
</trkpt>
<trkpt lat="40.0715073" lon="-105.2298053">
  <ele>1583.0</ele>
  <time>2026-08-28T17:49:46Z</time>
  <course>4.14</course>
  <speed>5.376783425060005</speed>
  <fix>3d</fix>
</trkpt>
<trkpt lat="40.0715073" lon="-105.2298053">
  <ele>1583.0</ele>
  <time>2026-08-28T17:49:46Z</time>
  <course>4.14</course>
  <speed>5.376783425060005</speed>
  <fix>3d</fix>
</trkpt>
<trkpt lat="40.0714962" lon="-105.229806">
  <ele>1583.0</ele>
  <time>2026-08-28T17:49:46Z</time>
  <course>2.97</course>
  <speed>5.27</speed>
  <fix>3d</fix>
</trkpt>
<trkpt lat="40.0715111" lon="-105.229805">
  <ele>1583.0</ele>
  <time>2026-08-28T17:49:46Z</time>
  <course>4.14</course>
  <speed>5.386770832326172</speed>
  <fix>3d</fix>
</trkpt>
<trkpt lat="40.071512" lon="-105.229805">
  <ele>1583.0</ele>
  <time>2026-08-28T17:49:46Z</time>
  <course>4.14</course>
  <speed>5.386770832326172</speed>
  <fix>3d</fix>
</trkpt>
<trkpt lat="40.071512" lon="-105.229805">
  <ele>1583.0</ele>
  <time>2026-08-28T17:49:46Z</time>
  <course>4.14</course>
  <speed>5.386770832326172</speed>
  <fix>3d</fix>
</trkpt>
<trkpt lat="40.0715058" lon="-105.2298054">
  <ele>1583.0</ele>
  <time>2026-08-28T17:49:46Z</time>
  <course>2.97</course>
  <speed>5.34</speed>
  <fix>3d</fix>
</trkpt>
<trkpt lat="40.0715159" lon="-105.2298047">
  <ele>1583.0</ele>
  <time>2026-08-28T17:49:46Z</time>
  <course>4.13</course>
  <speed>5.3967582862307255</speed>
  <fix>3d</fix>
</trkpt>
<trkpt lat="40.0715169" lon="-105.2298047">
  <ele>1583.0</ele>
  <time>2026-08-28T17:49:46Z</time>
  <course>4.13</course>
  <speed>5.3967582862307255</speed>
  <fix>3d</fix>
</trkpt>
<trkpt lat="40.0715169" lon="-105.2298047">
  <ele>1583.0</ele>
  <time>2026-08-28T17:49:46Z</time>
  <course>4.13</course>
  <speed>5.3967582862307255</speed>
  <fix>3d</fix>
</trkpt>
<trkpt lat="40.0715058" lon="-105.2298054">
  <ele>1583.0</ele>
  <time>2026-08-28T17:49:46Z</time>
  <course>2.97</course>
  <speed>5.34</speed>
  <fix>3d</fix>
</trkpt>
<trkpt lat="40.0715178" lon="-105.2298046">
  <ele>1583.0</ele>
  <time>2026-08-28T17:49:46Z</time>
  <course>4.13</course>
  <speed>5.3967582862307255</speed>
  <fix>3d</fix>
</trkpt>
<trkpt lat="40.0715188" lon="-105.2298045">
  <ele>1583.0</ele>
  <time>2026-08-28T17:49:46Z</time>
  <course>4.13</course>
  <speed>5.3967582862307255</speed>
  <fix>3d</fix>
</trkpt>
<trkpt lat="40.0715198" lon="-105.2298045">
  <ele>1583.0</ele>
  <time>2026-08-28T17:49:46Z</time>
  <course>4.13</course>
  <speed>5.3967582862307255</speed>
  <fix>3d</fix>
</trkpt>
<trkpt lat="40.0715207" lon="-105.2298044">
  <ele>1583.0</ele>
  <time>2026-08-28T17:49:46Z</time>
  <course>4.13</course>
  <speed>5.3967582862307255</speed>
  <fix>3d</fix>
</trkpt>
<trkpt lat="40.0715217" lon="-105.2298043">
  <ele>1583.0</ele>
  <time>2026-08-28T17:49:46Z</time>
  <course>4.13</course>
  <speed>5.3967582862307255</speed>
  <fix>3d</fix>
</trkpt>
<trkpt lat="40.0715217" lon="-105.2298043">
  <ele>1583.0</ele>
  <time>2026-08-28T17:49:46Z</time>
  <course>4.13</course>
  <speed>5.3967582862307255</speed>
  <fix>3d</fix>
</trkpt>
<trkpt lat="40.0715153" lon="-105.2298048">
  <ele>1583.0</ele>
  <time>2026-08-28T17:49:46Z</time>
  <course>2.97</course>
  <speed>5.36</speed>
  <fix>3d</fix>
</trkpt>
<trkpt lat="40.0715256" lon="-105.2298041">
  <ele>1583.0</ele>
  <time>2026-08-28T17:49:46Z</time>
  <course>4.13</course>
  <speed>5.386278863928231</speed>
  <fix>3d</fix>
</trkpt>
<trkpt lat="40.0715266" lon="-105.229804">
  <ele>1583.0</ele>
  <time>2026-08-28T17:49:46Z</time>
  <course>4.13</course>
  <speed>5.386278863928231</speed>
  <fix>3d</fix>
</trkpt>
<trkpt lat="40.0715266" lon="-105.229804">
  <ele>1583.0</ele>
  <time>2026-08-28T17:49:46Z</time>
  <course>4.13</course>
  <speed>5.386278863928231</speed>
  <fix>3d</fix>
</trkpt>
<trkpt lat="40.0715153" lon="-105.2298048">
  <ele>1583.0</ele>
  <time>2026-08-28T17:49:46Z</time>
  <course>2.97</course>
  <speed>5.36</speed>
  <fix>3d</fix>
</trkpt>
<trkpt lat="40.0715295" lon="-105.2298038">
  <ele>1583.0</ele>
  <time>2026-08-28T17:49:46Z</time>
  <course>4.13</course>
  <speed>5.376290542744133</speed>
  <fix>3d</fix>
</trkpt>
<trkpt lat="40.0715305" lon="-105.2298038">
  <ele>1583.0</ele>
  <time>2026-08-28T17:49:46Z</time>
  <course>4.13</course>
  <speed>5.376290542744133</speed>
  <fix>3d</fix>
</trkpt>
<trkpt lat="40.0715314" lon="-105.2298037">
  <ele>1583.0</ele>
  <time>2026-08-28T17:49:46Z</time>
  <course>4.13</course>
  <speed>5.366302265061111</speed>
  <fix>3d</fix>
</trkpt>
<trkpt lat="40.0715314" lon="-105.2298037">
  <ele>1583.0</ele>
  <time>2026-08-28T17:49:46Z</time>
  <course>4.13</course>
  <speed>5.366302265061111</speed>
  <fix>3d</fix>
</trkpt>
<trkpt lat="40.0715249" lon="-105.2298041">
  <ele>1583.0</ele>
  <time>2026-08-28T17:49:46Z</time>
  <course>2.97</course>
  <speed>5.35</speed>
  <fix>3d</fix>
</trkpt>
<trkpt lat="40.0715353" lon="-105.2298035">
  <ele>1583.0</ele>
  <time>2026-08-28T17:49:46Z</time>
  <course>4.12</course>
  <speed>5.356314031122522</speed>
  <fix>3d</fix>
</trkpt>
<trkpt lat="40.0715362" lon="-105.2298034">
  <ele>1583.0</ele>
  <time>2026-08-28T17:49:46Z</time>
  <course>4.12</course>
  <speed>5.3463258411735435</speed>
  <fix>3d</fix>
</trkpt>
<trkpt lat="40.0715362" lon="-105.2298034">
  <ele>1583.0</ele>
  <time>2026-08-28T17:49:46Z</time>
  <course>4.12</course>
  <speed>5.3463258411735435</speed>
  <fix>3d</fix>
</trkpt>
<trkpt lat="40.0715249" lon="-105.2298041">
  <ele>1583.0</ele>
  <time>2026-08-28T17:49:46Z</time>
  <course>2.97</course>
  <speed>5.35</speed>
  <fix>3d</fix>
</trkpt>
<trkpt lat="40.0715382" lon="-105.2298033">
  <ele>1583.0</ele>
  <time>2026-08-28T17:49:46Z</time>
  <course>4.12</course>
  <speed>5.336337695461186</speed>
  <fix>3d</fix>
</trkpt>
<trkpt lat="40.0715391" lon="-105.2298032">
  <ele>1583.0</ele>
  <time>2026-08-28T17:49:46Z</time>
  <course>4.12</course>
  <speed>5.336337695461186</speed>
  <fix>3d</fix>
</trkpt>
<trkpt lat="40.0715401" lon="-105.2298032">
  <ele>1583.0</ele>
  <time>2026-08-28T17:49:46Z</time>
  <course>4.12</course>
  <speed>5.32634959423431</speed>
  <fix>3d</fix>
</trkpt>
<trkpt lat="40.071541" lon="-105.2298031">
  <ele>1583.0</ele>
  <time>2026-08-28T17:49:46Z</time>
  <course>4.12</course>
  <speed>5.32634959423431</speed>
  <fix>3d</fix>
</trkpt>
<trkpt lat="40.071541" lon="-105.2298031">
  <ele>1583.0</ele>
  <time>2026-08-28T17:49:46Z</time>
  <course>4.12</course>
  <speed>5.32634959423431</speed>
  <fix>3d</fix>
</trkpt>
<trkpt lat="40.0715346" lon="-105.2298035">
  <ele>1583.0</ele>
  <time>2026-08-28T17:49:46Z</time>
  <course>2.97</course>
  <speed>5.32</speed>
  <fix>3d</fix>
</trkpt>
<trkpt lat="40.0715439" lon="-105.2298029">
  <ele>1583.0</ele>
  <time>2026-08-28T17:49:46Z</time>
  <course>4.12</course>
  <speed>5.305892950295926</speed>
  <fix>3d</fix>
</trkpt>
<trkpt lat="40.0715449" lon="-105.2298029">
  <ele>1583.0</ele>
  <time>2026-08-28T17:49:46Z</time>
  <course>4.11</course>
  <speed>5.2959040776811666</speed>
  <fix>3d</fix>
</trkpt>
<trkpt lat="40.0715458" lon="-105.2298028">
  <ele>1583.0</ele>
  <time>2026-08-28T17:49:46Z</time>
  <course>4.11</course>
  <speed>5.2959040776811666</speed>
  <fix>3d</fix>
</trkpt>
<trkpt lat="40.0715458" lon="-105.2298028">
  <ele>1583.0</ele>
  <time>2026-08-28T17:49:46Z</time>
  <course>4.11</course>
  <speed>5.2959040776811666</speed>
  <fix>3d</fix>
</trkpt>
<trkpt lat="40.0715346" lon="-105.2298035">
  <ele>1583.0</ele>
  <time>2026-08-28T17:49:46Z</time>
  <course>2.97</course>
  <speed>5.32</speed>
  <fix>3d</fix>
</trkpt>
<trkpt lat="40.0715496" lon="-105.2298026">
  <ele>1583.0</ele>
  <time>2026-08-28T17:49:46Z</time>
  <course>4.11</course>
  <speed>5.265937713266271</speed>
  <fix>3d</fix>
</trkpt>
<trkpt lat="40.0715506" lon="-105.2298025">
  <ele>1583.0</ele>
  <time>2026-08-28T17:49:46Z</time>
  <course>4.11</course>
  <speed>5.265937713266271</speed>
  <fix>3d</fix>
</trkpt>
<trkpt lat="40.0715506" lon="-105.2298025">
  <ele>1583.0</ele>
  <time>2026-08-28T17:49:46Z</time>
  <course>4.11</course>
  <speed>5.265937713266271</speed>
  <fix>3d</fix>
</trkpt>
<trkpt lat="40.071544" lon="-105.2298028">
  <ele>1583.0</ele>
  <time>2026-08-28T17:49:46Z</time>
  <course>2.97</course>
  <speed>5.27</speed>
  <fix>3d</fix>
</trkpt>
<trkpt lat="40.0715534" lon="-105.2298023">
  <ele>1583.0</ele>
  <time>2026-08-28T17:49:46Z</time>
  <course>4.11</course>
  <speed>5.245960350593588</speed>
  <fix>3d</fix>
</trkpt>
<trkpt lat="40.0715543" lon="-105.2298022">
  <ele>1583.0</ele>
  <time>2026-08-28T17:49:46Z</time>
  <course>4.1</course>
  <speed>5.23597173407191</speed>
  <fix>3d</fix>
</trkpt>
<trkpt lat="40.0715553" lon="-105.2298022">
  <ele>1583.0</ele>
  <time>2026-08-28T17:49:46Z</time>
  <course>4.1</course>
  <speed>5.23597173407191</speed>
  <fix>3d</fix>
</trkpt>
<trkpt lat="40.0715553" lon="-105.2298022">
  <ele>1583.0</ele>
  <time>2026-08-28T17:49:46Z</time>
  <course>4.1</course>
  <speed>5.23597173407191</speed>
  <fix>3d</fix>
</trkpt>
<trkpt lat="40.071544" lon="-105.2298028">
  <ele>1583.0</ele>
  <time>2026-08-28T17:49:46Z</time>
  <course>2.97</course>
  <speed>5.27</speed>
  <fix>3d</fix>
</trkpt>
<trkpt lat="40.0715581" lon="-105.229802">
  <ele>1583.0</ele>
  <time>2026-08-28T17:49:46Z</time>
  <course>4.1</course>
  <speed>5.2155249016757645</speed>
  <fix>3d</fix>
</trkpt>
<trkpt lat="40.0715599" lon="-105.2298019">
  <ele>1583.0</ele>
  <time>2026-08-28T17:49:46Z</time>
  <course>4.1</course>
  <speed>5.2055355151991805</speed>
  <fix>3d</fix>
</trkpt>
<trkpt lat="40.0715599" lon="-105.2298019">
  <ele>1583.0</ele>
  <time>2026-08-28T17:49:46Z</time>
  <course>4.1</course>
  <speed>5.2055355151991805</speed>
  <fix>3d</fix>
</trkpt>
<trkpt lat="40.0715534" lon="-105.2298022">
  <ele>1583.0</ele>
  <time>2026-08-28T17:49:46Z</time>
  <course>2.97</course>
  <speed>5.21</speed>
  <fix>3d</fix>
</trkpt>
<trkpt lat="40.0715637" lon="-105.2298016">
  <ele>1583.0</ele>
  <time>2026-08-28T17:49:46Z</time>
  <course>4.09</course>
  <speed>5.175567601722539</speed>
  <fix>3d</fix>
</trkpt>
<trkpt lat="40.0715646" lon="-105.2298016">
  <ele>1583.01</ele>
  <time>2026-08-28T17:49:46Z</time>
  <course>4.09</course>
  <speed>5.165578380007412</speed>
  <fix>3d</fix>
</trkpt>
<trkpt lat="40.0715646" lon="-105.2298016">
  <ele>1583.01</ele>
  <time>2026-08-28T17:49:46Z</time>
  <course>4.09</course>
  <speed>5.165578380007412</speed>
  <fix>3d</fix>
</trkpt>
<trkpt lat="40.0715534" lon="-105.2298022">
  <ele>1583.0</ele>
  <time>2026-08-28T17:49:46Z</time>
  <course>2.97</course>
  <speed>5.21</speed>
  <fix>3d</fix>
</trkpt>
<trkpt lat="40.0715674" lon="-105.2298014">
  <ele>1583.01</ele>
  <time>2026-08-28T17:49:46Z</time>
  <course>4.09</course>
  <speed>5.15558920008179</speed>
  <fix>3d</fix>
</trkpt>
<trkpt lat="40.0715683" lon="-105.2298013">
  <ele>1583.01</ele>
  <time>2026-08-28T17:49:46Z</time>
  <course>4.09</course>
  <speed>5.145600062189054</speed>
  <fix>3d</fix>
</trkpt>
<trkpt lat="40.0715692" lon="-105.2298013">
  <ele>1583.01</ele>
  <time>2026-08-28T17:49:46Z</time>
  <course>4.09</course>
  <speed>5.135610966574474</speed>
  <fix>3d</fix>
</trkpt>
<trkpt lat="40.0715692" lon="-105.2298013">
  <ele>1583.01</ele>
  <time>2026-08-28T17:49:46Z</time>
  <course>4.09</course>
  <speed>5.135610966574474</speed>
  <fix>3d</fix>
</trkpt>
<trkpt lat="40.0715534" lon="-105.2298022">
  <ele>1583.0</ele>
  <time>2026-08-28T17:49:46Z</time>
  <course>2.97</course>
  <speed>5.21</speed>
  <fix>3d</fix>
</trkpt>
<trkpt lat="40.0715719" lon="-105.2298011">
  <ele>1583.01</ele>
  <time>2026-08-28T17:49:46Z</time>
  <course>4.08</course>
  <speed>5.115632903170438</speed>
  <fix>3d</fix>
</trkpt>
<trkpt lat="40.0715728" lon="-105.229801">
  <ele>1583.01</ele>
  <time>2026-08-28T17:49:46Z</time>
  <course>4.08</course>
  <speed>5.115632903170438</speed>
  <fix>3d</fix>
</trkpt>
<trkpt lat="40.0715737" lon="-105.229801">
  <ele>1583.01</ele>
  <time>2026-08-28T17:49:46Z</time>
  <course>4.08</course>
  <speed>5.105643935881154</speed>
  <fix>3d</fix>
</trkpt>
<trkpt lat="40.0715737" lon="-105.229801">
  <ele>1583.01</ele>
  <time>2026-08-28T17:49:46Z</time>
  <course>4.08</course>
  <speed>5.105643935881154</speed>
  <fix>3d</fix>
</trkpt>
<trkpt lat="40.0715628" lon="-105.2298016">
  <ele>1583.0</ele>
  <time>2026-08-28T17:49:46Z</time>
  <course>2.97</course>
  <speed>5.16</speed>
  <fix>3d</fix>
</trkpt>
<trkpt lat="40.0715774" lon="-105.2298007">
  <ele>1583.01</ele>
  <time>2026-08-28T17:49:46Z</time>
  <course>4.07</course>
  <speed>5.085666131393212</speed>
  <fix>3d</fix>
</trkpt>
<trkpt lat="40.0715783" lon="-105.2298007">
  <ele>1583.01</ele>
  <time>2026-08-28T17:49:46Z</time>
  <course>4.07</course>
  <speed>5.0752142811905</speed>
  <fix>3d</fix>
</trkpt>
<trkpt lat="40.0715783" lon="-105.2298007">
  <ele>1583.01</ele>
  <time>2026-08-28T17:49:46Z</time>
  <course>4.07</course>
  <speed>5.0752142811905</speed>
  <fix>3d</fix>
</trkpt>
<trkpt lat="40.0715628" lon="-105.2298016">
  <ele>1583.0</ele>
  <time>2026-08-28T17:49:46Z</time>
  <course>2.97</course>
  <speed>5.16</speed>
  <fix>3d</fix>
</trkpt>
<trkpt lat="40.0715819" lon="-105.2298005">
  <ele>1583.01</ele>
  <time>2026-08-28T17:49:46Z</time>
  <course>4.06</course>
  <speed>5.0552349104665755</speed>
  <fix>3d</fix>
</trkpt>
<trkpt lat="40.0715827" lon="-105.2298004">
  <ele>1583.01</ele>
  <time>2026-08-28T17:49:46Z</time>
  <course>4.06</course>
  <speed>5.045245286405805</speed>
  <fix>3d</fix>
</trkpt>
<trkpt lat="40.0715827" lon="-105.2298004">
  <ele>1583.01</ele>
  <time>2026-08-28T17:49:46Z</time>
  <course>4.06</course>
  <speed>5.045245286405805</speed>
  <fix>3d</fix>
</trkpt>
<trkpt lat="40.071572" lon="-105.2298009">
  <ele>1583.0</ele>
  <time>2026-08-28T17:49:46Z</time>
  <course>2.97</course>
  <speed>5.1</speed>
  <fix>3d</fix>
</trkpt>
<trkpt lat="40.0715863" lon="-105.2298002">
  <ele>1583.01</ele>
  <time>2026-08-28T17:49:46Z</time>
  <course>4.05</course>
  <speed>5.025266162105247</speed>
  <fix>3d</fix>
</trkpt>
<trkpt lat="40.0715872" lon="-105.2298001">
  <ele>1583.01</ele>
  <time>2026-08-28T17:49:46Z</time>
  <course>4.05</course>
  <speed>5.025266162105247</speed>
  <fix>3d</fix>
</trkpt>
<trkpt lat="40.0715872" lon="-105.2298001">
  <ele>1583.01</ele>
  <time>2026-08-28T17:49:46Z</time>
  <course>4.05</course>
  <speed>5.025266162105247</speed>
  <fix>3d</fix>
</trkpt>
<trkpt lat="40.071572" lon="-105.2298009">
  <ele>1583.0</ele>
  <time>2026-08-28T17:49:46Z</time>
  <course>2.97</course>
  <speed>5.1</speed>
  <fix>3d</fix>
</trkpt>
<trkpt lat="40.0715899" lon="-105.2297999">
  <ele>1583.01</ele>
  <time>2026-08-28T17:49:46Z</time>
  <course>4.05</course>
  <speed>5.015276662358718</speed>
  <fix>3d</fix>
</trkpt>
<trkpt lat="40.0715908" lon="-105.2297999">
  <ele>1583.01</ele>
  <time>2026-08-28T17:49:46Z</time>
  <course>4.04</course>
  <speed>5.005287204546808</speed>
  <fix>3d</fix>
</trkpt>
<trkpt lat="40.0715916" lon="-105.2297998">
  <ele>1583.01</ele>
  <time>2026-08-28T17:49:46Z</time>
  <course>4.04</course>
  <speed>5.005287204546808</speed>
  <fix>3d</fix>
</trkpt>
<trkpt lat="40.0715916" lon="-105.2297998">
  <ele>1583.01</ele>
  <time>2026-08-28T17:49:46Z</time>
  <course>4.04</course>
  <speed>5.005287204546808</speed>
  <fix>3d</fix>
</trkpt>
<trkpt lat="40.0715811" lon="-105.2298002">
  <ele>1583.0</ele>
  <time>2026-08-28T17:49:46Z</time>
  <course>2.97</course>
  <speed>5.05</speed>
  <fix>3d</fix>
</trkpt>
<trkpt lat="40.0715943" lon="-105.2297996">
  <ele>1583.01</ele>
  <time>2026-08-28T17:49:46Z</time>
  <course>4.04</course>
  <speed>4.985308415735179</speed>
  <fix>3d</fix>
</trkpt>
<trkpt lat="40.0715952" lon="-105.2297996">
  <ele>1583.01</ele>
  <time>2026-08-28T17:49:46Z</time>
  <course>4.04</course>
  <speed>4.985308415735179</speed>
  <fix>3d</fix>
</trkpt>
<trkpt lat="40.0715961" lon="-105.2297995">
  <ele>1583.01</ele>
  <time>2026-08-28T17:49:46Z</time>
  <course>4.03</course>
  <speed>4.985308415735179</speed>
  <fix>3d</fix>
</trkpt>
<trkpt lat="40.0715961" lon="-105.2297995">
  <ele>1583.01</ele>
  <time>2026-08-28T17:49:46Z</time>
  <course>4.03</course>
  <speed>4.985308415735179</speed>
  <fix>3d</fix>
</trkpt>
<trkpt lat="40.0715902" lon="-105.2297997">
  <ele>1583.0</ele>
  <time>2026-08-28T17:49:46Z</time>
  <course>2.97</course>
  <speed>5.02</speed>
  <fix>3d</fix>
</trkpt>
<trkpt lat="40.0715988" lon="-105.2297993">
  <ele>1583.02</ele>
  <time>2026-08-28T17:49:46Z</time>
  <course>4.03</course>
  <speed>4.975319085244684</speed>
  <fix>3d</fix>
</trkpt>
<trkpt lat="40.0715997" lon="-105.2297993">
  <ele>1583.02</ele>
  <time>2026-08-28T17:49:46Z</time>
  <course>4.03</course>
  <speed>4.975319085244684</speed>
  <fix>3d</fix>
</trkpt>
<trkpt lat="40.0716006" lon="-105.2297992">
  <ele>1583.02</ele>
  <time>2026-08-28T17:49:46Z</time>
  <course>4.03</course>
  <speed>4.965329797707298</speed>
  <fix>3d</fix>
</trkpt>
<trkpt lat="40.0716006" lon="-105.2297992">
  <ele>1583.02</ele>
  <time>2026-08-28T17:49:46Z</time>
  <course>4.03</course>
  <speed>4.965329797707298</speed>
  <fix>3d</fix>
</trkpt>
<trkpt lat="40.0715902" lon="-105.2297997">
  <ele>1583.0</ele>
  <time>2026-08-28T17:49:46Z</time>
  <course>2.97</course>
  <speed>5.02</speed>
  <fix>3d</fix>
</trkpt>
<trkpt lat="40.0716032" lon="-105.229799">
  <ele>1583.02</ele>
  <time>2026-08-28T17:49:46Z</time>
  <course>4.03</course>
  <speed>4.955340553382785</speed>
  <fix>3d</fix>
</trkpt>
<trkpt lat="40.0716041" lon="-105.229799">
  <ele>1583.02</ele>
  <time>2026-08-28T17:49:46Z</time>
  <course>4.03</course>
  <speed>4.955340553382785</speed>
  <fix>3d</fix>
</trkpt>
<trkpt lat="40.071605" lon="-105.2297989">
  <ele>1583.02</ele>
  <time>2026-08-28T17:49:46Z</time>
  <course>4.03</course>
  <speed>4.945351352533002</speed>
  <fix>3d</fix>
</trkpt>
<trkpt lat="40.071605" lon="-105.2297989">
  <ele>1583.02</ele>
  <time>2026-08-28T17:49:46Z</time>
  <course>4.03</course>
  <speed>4.945351352533002</speed>
  <fix>3d</fix>
</trkpt>
<trkpt lat="40.0715991" lon="-105.229799">
  <ele>1583.0</ele>
  <time>2026-08-28T17:49:46Z</time>
  <course>2.97</course>
  <speed>4.99</speed>
  <fix>3d</fix>
</trkpt>
<trkpt lat="40.0716076" lon="-105.2297987">
  <ele>1583.02</ele>
  <time>2026-08-28T17:49:46Z</time>
  <course>4.03</course>
  <speed>4.935362195421933</speed>
  <fix>3d</fix>
</trkpt>
<trkpt lat="40.0716085" lon="-105.2297987">
  <ele>1583.02</ele>
  <time>2026-08-28T17:49:46Z</time>
  <course>4.02</course>
  <speed>4.935362195421933</speed>
  <fix>3d</fix>
</trkpt>
<trkpt lat="40.0716094" lon="-105.2297986">
  <ele>1583.02</ele>
  <time>2026-08-28T17:49:46Z</time>
  <course>4.02</course>
  <speed>4.925373082315694</speed>
  <fix>3d</fix>
</trkpt>
<trkpt lat="40.0716094" lon="-105.2297986">
  <ele>1583.02</ele>
  <time>2026-08-28T17:49:46Z</time>
  <course>4.02</course>
  <speed>4.925373082315694</speed>
  <fix>3d</fix>
</trkpt>
<trkpt lat="40.0715991" lon="-105.229799">
  <ele>1583.0</ele>
  <time>2026-08-28T17:49:46Z</time>
  <course>2.97</course>
  <speed>4.99</speed>
  <fix>3d</fix>
</trkpt>
<trkpt lat="40.0716129" lon="-105.2297984">
  <ele>1583.02</ele>
  <time>2026-08-28T17:49:46Z</time>
  <course>4.02</course>
  <speed>4.895406009719725</speed>
  <fix>3d</fix>
</trkpt>
<trkpt lat="40.0716138" lon="-105.2297983">
  <ele>1583.02</ele>
  <time>2026-08-28T17:49:46Z</time>
  <course>4.02</course>
  <speed>4.895406009719725</speed>
  <fix>3d</fix>
</trkpt>
<trkpt lat="40.0716138" lon="-105.2297983">
  <ele>1583.02</ele>
  <time>2026-08-28T17:49:46Z</time>
  <course>4.02</course>
  <speed>4.895406009719725</speed>
  <fix>3d</fix>
</trkpt>
<trkpt lat="40.0716081" lon="-105.2297984">
  <ele>1583.0</ele>
  <time>2026-08-28T17:49:46Z</time>
  <course>2.97</course>
  <speed>4.94</speed>
  <fix>3d</fix>
</trkpt>
<trkpt lat="40.0716156" lon="-105.2297982">
  <ele>1583.02</ele>
  <time>2026-08-28T17:49:46Z</time>
  <course>4.02</course>
  <speed>4.875428186323741</speed>
  <fix>3d</fix>
</trkpt>
<trkpt lat="40.0716165" lon="-105.2297981">
  <ele>1583.02</ele>
  <time>2026-08-28T17:49:46Z</time>
  <course>4.02</course>
  <speed>4.865439342957632</speed>
  <fix>3d</fix>
</trkpt>
<trkpt lat="40.0716173" lon="-105.229798">
  <ele>1583.02</ele>
  <time>2026-08-28T17:49:46Z</time>
  <course>4.02</course>
  <speed>4.865439342957632</speed>
  <fix>3d</fix>
</trkpt>
<trkpt lat="40.0716182" lon="-105.229798">
  <ele>1583.02</ele>
  <time>2026-08-28T17:49:46Z</time>
  <course>4.02</course>
  <speed>4.8554505455209815</speed>
  <fix>3d</fix>
</trkpt>
<trkpt lat="40.0716182" lon="-105.229798">
  <ele>1583.02</ele>
  <time>2026-08-28T17:49:46Z</time>
  <course>4.02</course>
  <speed>4.8554505455209815</speed>
  <fix>3d</fix>
</trkpt>
<trkpt lat="40.0716081" lon="-105.2297984">
  <ele>1583.0</ele>
  <time>2026-08-28T17:49:46Z</time>
  <course>2.97</course>
  <speed>4.94</speed>
  <fix>3d</fix>
</trkpt>
<trkpt lat="40.0716217" lon="-105.2297978">
  <ele>1583.02</ele>
  <time>2026-08-28T17:49:46Z</time>
  <course>4.02</course>
  <speed>4.815028556509296</speed>
  <fix>3d</fix>
</trkpt>
<trkpt lat="40.0716226" lon="-105.2297977">
  <ele>1583.02</ele>
  <time>2026-08-28T17:49:46Z</time>
  <course>4.02</course>
  <speed>4.805039021693789</speed>
  <fix>3d</fix>
</trkpt>
<trkpt lat="40.0716226" lon="-105.2297977">
  <ele>1583.02</ele>
  <time>2026-08-28T17:49:46Z</time>
  <course>4.02</course>
  <speed>4.805039021693789</speed>
  <fix>3d</fix>
</trkpt>
<trkpt lat="40.0716168" lon="-105.2297979">
  <ele>1583.0</ele>
  <time>2026-08-28T17:49:46Z</time>
  <course>2.97</course>
  <speed>4.87</speed>
  <fix>3d</fix>
</trkpt>
<trkpt lat="40.0716261" lon="-105.2297975">
  <ele>1583.02</ele>
  <time>2026-08-28T17:49:46Z</time>
  <course>4.02</course>
  <speed>4.755092007522041</speed>
  <fix>3d</fix>
</trkpt>
<trkpt lat="40.0716269" lon="-105.2297974">
  <ele>1583.02</ele>
  <time>2026-08-28T17:49:46Z</time>
  <course>4.02</course>
  <speed>4.74510273861378</speed>
  <fix>3d</fix>
</trkpt>
<trkpt lat="40.0716269" lon="-105.2297974">
  <ele>1583.02</ele>
  <time>2026-08-28T17:49:46Z</time>
  <course>4.02</course>
  <speed>4.74510273861378</speed>
  <fix>3d</fix>
</trkpt>
<trkpt lat="40.0716168" lon="-105.2297979">
  <ele>1583.0</ele>
  <time>2026-08-28T17:49:46Z</time>
  <course>2.97</course>
  <speed>4.87</speed>
  <fix>3d</fix>
</trkpt>
<trkpt lat="40.0716295" lon="-105.2297972">
  <ele>1583.02</ele>
  <time>2026-08-28T17:49:46Z</time>
  <course>4.02</course>
  <speed>4.705146118878775</speed>
  <fix>3d</fix>
</trkpt>
<trkpt lat="40.0716303" lon="-105.2297972">
  <ele>1583.02</ele>
  <time>2026-08-28T17:49:46Z</time>
  <course>4.02</course>
  <speed>4.695157079374448</speed>
  <fix>3d</fix>
</trkpt>
<trkpt lat="40.0716312" lon="-105.2297971">
  <ele>1583.02</ele>
  <time>2026-08-28T17:49:46Z</time>
  <course>4.02</course>
  <speed>4.675179140952783</speed>
  <fix>3d</fix>
</trkpt>
<trkpt lat="40.0716312" lon="-105.2297971">
  <ele>1583.02</ele>
  <time>2026-08-28T17:49:46Z</time>
  <course>4.02</course>
  <speed>4.675179140952783</speed>
  <fix>3d</fix>
</trkpt>
<trkpt lat="40.0716256" lon="-105.2297973">
  <ele>1583.0</ele>
  <time>2026-08-28T17:49:46Z</time>
  <course>2.97</course>
  <speed>4.77</speed>
  <fix>3d</fix>
</trkpt>
<trkpt lat="40.0716337" lon="-105.2297969">
  <ele>1583.02</ele>
  <time>2026-08-28T17:49:46Z</time>
  <course>4.02</course>
  <speed>4.635223834940445</speed>
  <fix>3d</fix>
</trkpt>
<trkpt lat="40.0716345" lon="-105.2297969">
  <ele>1583.02</ele>
  <time>2026-08-28T17:49:46Z</time>
  <course>4.02</course>
  <speed>4.624770264564501</speed>
  <fix>3d</fix>
</trkpt>
<trkpt lat="40.0716354" lon="-105.2297968">
  <ele>1583.02</ele>
  <time>2026-08-28T17:49:46Z</time>
  <course>4.02</course>
  <speed>4.604790983312923</speed>
  <fix>3d</fix>
</trkpt>
<trkpt lat="40.0716354" lon="-105.2297968">
  <ele>1583.02</ele>
  <time>2026-08-28T17:49:46Z</time>
  <course>4.02</course>
  <speed>4.604790983312923</speed>
  <fix>3d</fix>
</trkpt>
<trkpt lat="40.0716256" lon="-105.2297973">
  <ele>1583.0</ele>
  <time>2026-08-28T17:49:46Z</time>
  <course>2.97</course>
  <speed>4.77</speed>
  <fix>3d</fix>
</trkpt>
<trkpt lat="40.0716379" lon="-105.2297967">
  <ele>1583.02</ele>
  <time>2026-08-28T17:49:46Z</time>
  <course>4.02</course>
  <speed>4.564832965180654</speed>
  <fix>3d</fix>
</trkpt>
<trkpt lat="40.0716395" lon="-105.2297965">
  <ele>1583.02</ele>
  <time>2026-08-28T17:49:46Z</time>
  <course>4.02</course>
  <speed>4.5248756889001935</speed>
  <fix>3d</fix>
</trkpt>
<trkpt lat="40.0716395" lon="-105.2297965">
  <ele>1583.02</ele>
  <time>2026-08-28T17:49:46Z</time>
  <course>4.02</course>
  <speed>4.5248756889001935</speed>
  <fix>3d</fix>
</trkpt>
<trkpt lat="40.071634" lon="-105.2297967">
  <ele>1583.0</ele>
  <time>2026-08-28T17:49:46Z</time>
  <course>2.97</course>
  <speed>4.63</speed>
  <fix>3d</fix>
</trkpt>
<trkpt lat="40.0716419" lon="-105.2297964">
  <ele>1583.02</ele>
  <time>2026-08-28T17:49:46Z</time>
  <course>4.02</course>
  <speed>4.474930167052889</speed>
  <fix>3d</fix>
</trkpt>
<trkpt lat="40.0716427" lon="-105.2297963">
  <ele>1583.02</ele>
  <time>2026-08-28T17:49:46Z</time>
  <course>4.01</course>
  <speed>4.454952300530277</speed>
  <fix>3d</fix>
</trkpt>
<trkpt lat="40.0716435" lon="-105.2297963">
  <ele>1583.02</ele>
  <time>2026-08-28T17:49:46Z</time>
  <course>4.01</course>
  <speed>4.444502221846672</speed>
  <fix>3d</fix>
</trkpt>
<trkpt lat="40.0716435" lon="-105.2297963">
  <ele>1583.02</ele>
  <time>2026-08-28T17:49:46Z</time>
  <course>4.01</course>
  <speed>4.444502221846672</speed>
  <fix>3d</fix>
</trkpt>
<trkpt lat="40.071634" lon="-105.2297967">
  <ele>1583.0</ele>
  <time>2026-08-28T17:49:46Z</time>
  <course>2.97</course>
  <speed>4.63</speed>
  <fix>3d</fix>
</trkpt>
<trkpt lat="40.0716467" lon="-105.2297961">
  <ele>1583.03</ele>
  <time>2026-08-28T17:49:46Z</time>
  <course>4.01</course>
  <speed>4.364584745425388</speed>
  <fix>3d</fix>
</trkpt>
<trkpt lat="40.0716475" lon="-105.229796">
  <ele>1583.03</ele>
  <time>2026-08-28T17:49:46Z</time>
  <course>4.01</course>
  <speed>4.344605850937459</speed>
  <fix>3d</fix>
</trkpt>
<trkpt lat="40.0716475" lon="-105.229796">
  <ele>1583.03</ele>
  <time>2026-08-28T17:49:46Z</time>
  <course>4.01</course>
  <speed>4.344605850937459</speed>
  <fix>3d</fix>
</trkpt>
<trkpt lat="40.0716422" lon="-105.2297962">
  <ele>1583.0</ele>
  <time>2026-08-28T17:49:46Z</time>
  <course>2.97</course>
  <speed>4.47</speed>
  <fix>3d</fix>
</trkpt>
<trkpt lat="40.0716498" lon="-105.2297959">
  <ele>1583.03</ele>
  <time>2026-08-28T17:49:46Z</time>
  <course>4.01</course>
  <speed>4.284670349046704</speed>
  <fix>3d</fix>
</trkpt>
<trkpt lat="40.0716506" lon="-105.2297958">
  <ele>1583.03</ele>
  <time>2026-08-28T17:49:46Z</time>
  <course>4.01</course>
  <speed>4.2642349841442835</speed>
  <fix>3d</fix>
</trkpt>
<trkpt lat="40.0716514" lon="-105.2297957">
  <ele>1583.03</ele>
  <time>2026-08-28T17:49:46Z</time>
  <course>4.01</course>
  <speed>4.24425494050487</speed>
  <fix>3d</fix>
</trkpt>
<trkpt lat="40.0716514" lon="-105.2297957">
  <ele>1583.03</ele>
  <time>2026-08-28T17:49:46Z</time>
  <course>4.01</course>
  <speed>4.24425494050487</speed>
  <fix>3d</fix>
</trkpt>
<trkpt lat="40.0716422" lon="-105.2297962">
  <ele>1583.0</ele>
  <time>2026-08-28T17:49:46Z</time>
  <course>2.97</course>
  <speed>4.47</speed>
  <fix>3d</fix>
</trkpt>
<trkpt lat="40.0716537" lon="-105.2297956">
  <ele>1583.03</ele>
  <time>2026-08-28T17:49:46Z</time>
  <course>4.01</course>
  <speed>4.184315953653596</speed>
  <fix>3d</fix>
</trkpt>
<trkpt lat="40.0716544" lon="-105.2297955">
  <ele>1583.03</ele>
  <time>2026-08-28T17:49:46Z</time>
  <course>4.01</course>
  <speed>4.164336681873837</speed>
  <fix>3d</fix>
</trkpt>
<trkpt lat="40.0716552" lon="-105.2297955">
  <ele>1583.03</ele>
  <time>2026-08-28T17:49:46Z</time>
  <course>4.01</course>
  <speed>4.1443576100524915</speed>
  <fix>3d</fix>
</trkpt>
<trkpt lat="40.0716552" lon="-105.2297955">
  <ele>1583.03</ele>
  <time>2026-08-28T17:49:46Z</time>
  <course>4.01</course>
  <speed>4.1443576100524915</speed>
  <fix>3d</fix>
</trkpt>
<trkpt lat="40.0716422" lon="-105.2297962">
  <ele>1583.0</ele>
  <time>2026-08-28T17:49:46Z</time>
  <course>2.97</course>
  <speed>4.47</speed>
  <fix>3d</fix>
</trkpt>
<trkpt lat="40.0716574" lon="-105.2297954">
  <ele>1583.03</ele>
  <time>2026-08-28T17:49:46Z</time>
  <course>4.0</course>
  <speed>4.083968658057993</speed>
  <fix>3d</fix>
</trkpt>
<trkpt lat="40.0716581" lon="-105.2297953">
  <ele>1583.03</ele>
  <time>2026-08-28T17:49:46Z</time>
  <course>4.0</course>
  <speed>4.0639881889592155</speed>
  <fix>3d</fix>
</trkpt>
<trkpt lat="40.0716588" lon="-105.2297953">
  <ele>1583.03</ele>
  <time>2026-08-28T17:49:46Z</time>
  <course>4.0</course>
  <speed>4.034017848250055</speed>
  <fix>3d</fix>
</trkpt>
<trkpt lat="40.0716588" lon="-105.2297953">
  <ele>1583.03</ele>
  <time>2026-08-28T17:49:46Z</time>
  <course>4.0</course>
  <speed>4.034017848250055</speed>
  <fix>3d</fix>
</trkpt>
<trkpt lat="40.07165" lon="-105.2297956">
  <ele>1583.0</ele>
  <time>2026-08-28T17:49:46Z</time>
  <course>2.97</course>
  <speed>4.28</speed>
  <fix>3d</fix>
</trkpt>
<trkpt lat="40.071661" lon="-105.2297951">
  <ele>1583.03</ele>
  <time>2026-08-28T17:49:46Z</time>
  <course>4.0</course>
  <speed>3.9740785095415516</speed>
  <fix>3d</fix>
</trkpt>
<trkpt lat="40.0716617" lon="-105.2297951">
  <ele>1583.03</ele>
  <time>2026-08-28T17:49:46Z</time>
  <course>4.0</course>
  <speed>3.9540991388684223</speed>
  <fix>3d</fix>
</trkpt>
<trkpt lat="40.0716624" lon="-105.229795">
  <ele>1583.03</ele>
  <time>2026-08-28T17:49:46Z</time>
  <course>4.0</course>
  <speed>3.924130476933712</speed>
  <fix>3d</fix>
</trkpt>
<trkpt lat="40.0716624" lon="-105.229795">
  <ele>1583.03</ele>
  <time>2026-08-28T17:49:46Z</time>
  <course>4.0</course>
  <speed>3.924130476933712</speed>
  <fix>3d</fix>
</trkpt>
<trkpt lat="40.07165" lon="-105.2297956">
  <ele>1583.0</ele>
  <time>2026-08-28T17:49:46Z</time>
  <course>2.97</course>
  <speed>4.28</speed>
  <fix>3d</fix>
</trkpt>
<trkpt lat="40.0716644" lon="-105.2297949">
  <ele>1583.03</ele>
  <time>2026-08-28T17:49:46Z</time>
  <course>3.99</course>
  <speed>3.8537514190720707</speed>
  <fix>3d</fix>
</trkpt>
<trkpt lat="40.0716651" lon="-105.2297948">
  <ele>1583.03</ele>
  <time>2026-08-28T17:49:46Z</time>
  <course>3.99</course>
  <speed>3.8337709895088934</speed>
  <fix>3d</fix>
</trkpt>
<trkpt lat="40.0716658" lon="-105.2297948">
  <ele>1583.03</ele>
  <time>2026-08-28T17:49:46Z</time>
  <course>3.99</course>
  <speed>3.8137907651049763</speed>
  <fix>3d</fix>
</trkpt>
<trkpt lat="40.0716658" lon="-105.2297948">
  <ele>1583.03</ele>
  <time>2026-08-28T17:49:46Z</time>
  <course>3.99</course>
  <speed>3.8137907651049763</speed>
  <fix>3d</fix>
</trkpt>
<trkpt lat="40.0716575" lon="-105.2297951">
  <ele>1583.0</ele>
  <time>2026-08-28T17:49:46Z</time>
  <course>2.97</course>
  <speed>4.07</speed>
  <fix>3d</fix>
</trkpt>
<trkpt lat="40.0716678" lon="-105.2297946">
  <ele>1583.03</ele>
  <time>2026-08-28T17:49:46Z</time>
  <course>3.98</course>
  <speed>3.743861642742691</speed>
  <fix>3d</fix>
</trkpt>
<trkpt lat="40.0716685" lon="-105.2297946">
  <ele>1583.03</ele>
  <time>2026-08-28T17:49:46Z</time>
  <course>3.98</course>
  <speed>3.7238823826753715</speed>
  <fix>3d</fix>
</trkpt>
<trkpt lat="40.0716692" lon="-105.2297946">
  <ele>1583.03</ele>
  <time>2026-08-28T17:49:46Z</time>
  <course>3.98</course>
  <speed>3.693467205756672</speed>
  <fix>3d</fix>
</trkpt>
<trkpt lat="40.0716692" lon="-105.2297946">
  <ele>1583.03</ele>
  <time>2026-08-28T17:49:46Z</time>
  <course>3.98</course>
  <speed>3.693467205756672</speed>
  <fix>3d</fix>
</trkpt>
<trkpt lat="40.0716575" lon="-105.2297951">
  <ele>1583.0</ele>
  <time>2026-08-28T17:49:46Z</time>
  <course>2.97</course>
  <speed>4.07</speed>
  <fix>3d</fix>
</trkpt>
<trkpt lat="40.0716705" lon="-105.2297945">
  <ele>1583.03</ele>
  <time>2026-08-28T17:49:46Z</time>
  <course>3.98</course>
  <speed>3.653505166275258</speed>
  <fix>3d</fix>
</trkpt>
<trkpt lat="40.0716711" lon="-105.2297944">
  <ele>1583.03</ele>
  <time>2026-08-28T17:49:46Z</time>
  <course>3.98</course>
  <speed>3.623534186398688</speed>
  <fix>3d</fix>
</trkpt>
<trkpt lat="40.0716717" lon="-105.2297944">
  <ele>1583.04</ele>
  <time>2026-08-28T17:49:46Z</time>
  <course>3.98</course>
  <speed>3.6035538014576667</speed>
  <fix>3d</fix>
</trkpt>
<trkpt lat="40.0716724" lon="-105.2297943">
  <ele>1583.04</ele>
  <time>2026-08-28T17:49:46Z</time>
  <course>3.97</course>
  <speed>3.5835736353534027</speed>
  <fix>3d</fix>
</trkpt>
<trkpt lat="40.0716647" lon="-105.2297946">
  <ele>1583.0</ele>
  <time>2026-08-28T17:49:46Z</time>
  <course>2.97</course>
  <speed>3.86</speed>
  <fix>3d</fix>
</trkpt>
<trkpt lat="40.0716755" lon="-105.2297941">
  <ele>1583.04</ele>
  <time>2026-08-28T17:49:46Z</time>
  <course>3.97</course>
  <speed>3.4632499187901526</speed>
  <fix>3d</fix>
</trkpt>
<trkpt lat="40.0716755" lon="-105.2297941">
  <ele>1583.04</ele>
  <time>2026-08-28T17:49:46Z</time>
  <course>3.97</course>
  <speed>3.4632499187901526</speed>
  <fix>3d</fix>
</trkpt>
<trkpt lat="40.0716714" lon="-105.2297941">
  <ele>1583.0</ele>
  <time>2026-08-28T17:49:46Z</time>
  <course>2.97</course>
  <speed>3.63</speed>
  <fix>3d</fix>
</trkpt>
<trkpt lat="40.071678" lon="-105.2297939">
  <ele>1583.04</ele>
  <time>2026-08-28T17:49:46Z</time>
  <course>3.96</course>
  <speed>3.3733366271393668</speed>
  <fix>3d</fix>
</trkpt>
<trkpt lat="40.0716786" lon="-105.2297939">
  <ele>1583.04</ele>
  <time>2026-08-28T17:49:46Z</time>
  <course>3.96</course>
  <speed>3.3433665668005954</speed>
  <fix>3d</fix>
</trkpt>
<trkpt lat="40.0716786" lon="-105.2297939">
  <ele>1583.04</ele>
  <time>2026-08-28T17:49:46Z</time>
  <course>3.96</course>
  <speed>3.3433665668005954</speed>
  <fix>3d</fix>
</trkpt>
<trkpt lat="40.0716714" lon="-105.2297941">
  <ele>1583.0</ele>
  <time>2026-08-28T17:49:46Z</time>
  <course>2.97</course>
  <speed>3.63</speed>
  <fix>3d</fix>
</trkpt>
<trkpt lat="40.071681" lon="-105.2297937">
  <ele>1583.04</ele>
  <time>2026-08-28T17:49:46Z</time>
  <course>3.96</course>
  <speed>3.253013987058771</speed>
  <fix>3d</fix>
</trkpt>
<trkpt lat="40.0716816" lon="-105.2297937">
  <ele>1583.05</ele>
  <time>2026-08-28T17:49:46Z</time>
  <course>3.96</course>
  <speed>3.2330326320654423</speed>
  <fix>3d</fix>
</trkpt>
<trkpt lat="40.0716816" lon="-105.2297937">
  <ele>1583.05</ele>
  <time>2026-08-28T17:49:46Z</time>
  <course>3.96</course>
  <speed>3.2330326320654423</speed>
  <fix>3d</fix>
</trkpt>
<trkpt lat="40.0716777" lon="-105.2297938">
  <ele>1583.0</ele>
  <time>2026-08-28T17:49:46Z</time>
  <course>2.97</course>
  <speed>3.41</speed>
  <fix>3d</fix>
</trkpt>
<trkpt lat="40.0716833" lon="-105.2297936">
  <ele>1583.05</ele>
  <time>2026-08-28T17:49:46Z</time>
  <course>3.96</course>
  <speed>3.1630997455028194</speed>
  <fix>3d</fix>
</trkpt>
<trkpt lat="40.0716839" lon="-105.2297935">
  <ele>1583.05</ele>
  <time>2026-08-28T17:49:46Z</time>
  <course>3.96</course>
  <speed>3.143119469571591</speed>
  <fix>3d</fix>
</trkpt>
<trkpt lat="40.0716844" lon="-105.2297935">
  <ele>1583.05</ele>
  <time>2026-08-28T17:49:46Z</time>
  <course>3.96</course>
  <speed>3.113149530620076</speed>
  <fix>3d</fix>
</trkpt>
<trkpt lat="40.0716844" lon="-105.2297935">
  <ele>1583.05</ele>
  <time>2026-08-28T17:49:46Z</time>
  <course>3.96</course>
  <speed>3.113149530620076</speed>
  <fix>3d</fix>
</trkpt>
<trkpt lat="40.0716777" lon="-105.2297938">
  <ele>1583.0</ele>
  <time>2026-08-28T17:49:46Z</time>
  <course>2.97</course>
  <speed>3.41</speed>
  <fix>3d</fix>
</trkpt>
<trkpt lat="40.0716861" lon="-105.2297934">
  <ele>1583.05</ele>
  <time>2026-08-28T17:49:46Z</time>
  <course>3.97</course>
  <speed>3.0427783356662705</speed>
  <fix>3d</fix>
</trkpt>
<trkpt lat="40.0716866" lon="-105.2297934">
  <ele>1583.05</ele>
  <time>2026-08-28T17:49:46Z</time>
  <course>3.97</course>
  <speed>3.0227967182726663</speed>
  <fix>3d</fix>
</trkpt>
<trkpt lat="40.0716872" lon="-105.2297933">
  <ele>1583.05</ele>
  <time>2026-08-28T17:49:46Z</time>
  <course>3.97</course>
  <speed>3.0028153456381563</speed>
  <fix>3d</fix>
</trkpt>
<trkpt lat="40.0716836" lon="-105.2297933">
  <ele>1583.0</ele>
  <time>2026-08-28T17:49:46Z</time>
  <course>2.98</course>
  <speed>3.18</speed>
  <fix>3d</fix>
</trkpt>
<trkpt lat="40.0716877" lon="-105.2297933">
  <ele>1583.05</ele>
  <time>2026-08-28T17:49:46Z</time>
  <course>3.97</course>
  <speed>2.9828342226815083</speed>
  <fix>3d</fix>
</trkpt>
<trkpt lat="40.0716893" lon="-105.2297932">
  <ele>1583.05</ele>
  <time>2026-08-28T17:49:46Z</time>
  <course>4.0</course>
  <speed>2.912902332725902</speed>
  <fix>3d</fix>
</trkpt>
<trkpt lat="40.0716898" lon="-105.2297931">
  <ele>1583.05</ele>
  <time>2026-08-28T17:49:46Z</time>
  <course>4.0</course>
  <speed>2.8929223978530776</speed>
  <fix>3d</fix>
</trkpt>
<trkpt lat="40.0716898" lon="-105.2297931">
  <ele>1583.05</ele>
  <time>2026-08-28T17:49:46Z</time>
  <course>4.0</course>
  <speed>2.8929223978530776</speed>
  <fix>3d</fix>
</trkpt>
<trkpt lat="40.0716836" lon="-105.2297933">
  <ele>1583.0</ele>
  <time>2026-08-28T17:49:46Z</time>
  <course>2.98</course>
  <speed>3.18</speed>
  <fix>3d</fix>
</trkpt>
<trkpt lat="40.0716919" lon="-105.229793">
  <ele>1583.05</ele>
  <time>2026-08-28T17:49:46Z</time>
  <course>4.02</course>
  <speed>2.8025702488965374</speed>
  <fix>3d</fix>
</trkpt>
<trkpt lat="40.0716924" lon="-105.229793">
  <ele>1583.05</ele>
  <time>2026-08-28T17:49:46Z</time>
  <course>4.03</course>
  <speed>2.772598059582384</speed>
  <fix>3d</fix>
</trkpt>
<trkpt lat="40.0716924" lon="-105.229793">
  <ele>1583.05</ele>
  <time>2026-08-28T17:49:46Z</time>
  <course>4.03</course>
  <speed>2.772598059582384</speed>
  <fix>3d</fix>
</trkpt>
<trkpt lat="40.0716891" lon="-105.229793">
  <ele>1583.0</ele>
  <time>2026-08-28T17:49:46Z</time>
  <course>3.02</course>
  <speed>2.96</speed>
  <fix>3d</fix>
</trkpt>
<trkpt lat="40.0716944" lon="-105.2297928">
  <ele>1583.06</ele>
  <time>2026-08-28T17:49:46Z</time>
  <course>4.05</course>
  <speed>2.6826852219371546</speed>
  <fix>3d</fix>
</trkpt>
<trkpt lat="40.0716949" lon="-105.2297928">
  <ele>1583.06</ele>
  <time>2026-08-28T17:49:46Z</time>
  <course>4.06</course>
  <speed>2.6627053911388696</speed>
  <fix>3d</fix>
</trkpt>
<trkpt lat="40.0716949" lon="-105.2297928">
  <ele>1583.06</ele>
  <time>2026-08-28T17:49:46Z</time>
  <course>4.06</course>
  <speed>2.6627053911388696</speed>
  <fix>3d</fix>
</trkpt>
<trkpt lat="40.0716891" lon="-105.229793">
  <ele>1583.0</ele>
  <time>2026-08-28T17:49:46Z</time>
  <course>3.02</course>
  <speed>2.96</speed>
  <fix>3d</fix>
</trkpt>
<trkpt lat="40.0716963" lon="-105.2297927">
  <ele>1583.06</ele>
  <time>2026-08-28T17:49:46Z</time>
  <course>4.08</course>
  <speed>2.592778432492835</speed>
  <fix>3d</fix>
</trkpt>
<trkpt lat="40.0716968" lon="-105.2297927">
  <ele>1583.06</ele>
  <time>2026-08-28T17:49:46Z</time>
  <course>4.09</course>
  <speed>2.572800031094527</speed>
  <fix>3d</fix>
</trkpt>
<trkpt lat="40.0716972" lon="-105.2297926">
  <ele>1583.06</ele>
  <time>2026-08-28T17:49:46Z</time>
  <course>4.1</course>
  <speed>2.552821967940577</speed>
  <fix>3d</fix>
</trkpt>
<trkpt lat="40.0716972" lon="-105.2297926">
  <ele>1583.06</ele>
  <time>2026-08-28T17:49:46Z</time>
  <course>4.1</course>
  <speed>2.552821967940577</speed>
  <fix>3d</fix>
</trkpt>
<trkpt lat="40.0716942" lon="-105.2297926">
  <ele>1583.0</ele>
  <time>2026-08-28T17:49:46Z</time>
  <course>3.08</course>
  <speed>2.73</speed>
  <fix>3d</fix>
</trkpt>
<trkpt lat="40.0716986" lon="-105.2297925">
  <ele>1583.06</ele>
  <time>2026-08-28T17:49:46Z</time>
  <course>4.12</course>
  <speed>2.492428534582286</speed>
  <fix>3d</fix>
</trkpt>
<trkpt lat="40.0716991" lon="-105.2297925">
  <ele>1583.05</ele>
  <time>2026-08-28T17:49:46Z</time>
  <course>4.12</course>
  <speed>2.4624581214713075</speed>
  <fix>3d</fix>
</trkpt>
<trkpt lat="40.0716995" lon="-105.2297925">
  <ele>1583.05</ele>
  <time>2026-08-28T17:49:46Z</time>
  <course>4.13</course>
  <speed>2.4424782496472717</speed>
  <fix>3d</fix>
</trkpt>
<trkpt lat="40.0716995" lon="-105.2297925">
  <ele>1583.05</ele>
  <time>2026-08-28T17:49:46Z</time>
  <course>4.13</course>
  <speed>2.4424782496472717</speed>
  <fix>3d</fix>
</trkpt>
<trkpt lat="40.0716942" lon="-105.2297926">
  <ele>1583.0</ele>
  <time>2026-08-28T17:49:46Z</time>
  <course>3.08</course>
  <speed>2.73</speed>
  <fix>3d</fix>
</trkpt>
<trkpt lat="40.0717008" lon="-105.2297924">
  <ele>1583.05</ele>
  <time>2026-08-28T17:49:46Z</time>
  <course>4.15</course>
  <speed>2.382540660723338</speed>
  <fix>3d</fix>
</trkpt>
<trkpt lat="40.0717013" lon="-105.2297923">
  <ele>1583.05</ele>
  <time>2026-08-28T17:49:46Z</time>
  <course>4.16</course>
  <speed>2.3625621684941964</speed>
  <fix>3d</fix>
</trkpt>
<trkpt lat="40.0717017" lon="-105.2297923">
  <ele>1583.05</ele>
  <time>2026-08-28T17:49:46Z</time>
  <course>4.16</course>
  <speed>2.3325951213187426</speed>
  <fix>3d</fix>
</trkpt>
<trkpt lat="40.0717017" lon="-105.2297923">
  <ele>1583.05</ele>
  <time>2026-08-28T17:49:46Z</time>
  <course>4.16</course>
  <speed>2.3325951213187426</speed>
  <fix>3d</fix>
</trkpt>
<trkpt lat="40.0716989" lon="-105.2297923">
  <ele>1583.0</ele>
  <time>2026-08-28T17:49:46Z</time>
  <course>3.15</course>
  <speed>2.52</speed>
  <fix>3d</fix>
</trkpt>
<trkpt lat="40.0717034" lon="-105.2297922">
  <ele>1583.05</ele>
  <time>2026-08-28T17:49:46Z</time>
  <course>4.19</course>
  <speed>2.2522211259110416</speed>
  <fix>3d</fix>
</trkpt>
<trkpt lat="40.0717038" lon="-105.2297921">
  <ele>1583.05</ele>
  <time>2026-08-28T17:49:46Z</time>
  <course>4.19</course>
  <speed>2.2322410264126944</speed>
  <fix>3d</fix>
</trkpt>
<trkpt lat="40.0717038" lon="-105.2297921">
  <ele>1583.05</ele>
  <time>2026-08-28T17:49:46Z</time>
  <course>4.19</course>
  <speed>2.2322410264126944</speed>
  <fix>3d</fix>
</trkpt>
<trkpt lat="40.0716989" lon="-105.2297923">
  <ele>1583.0</ele>
  <time>2026-08-28T17:49:46Z</time>
  <course>3.15</course>
  <speed>2.52</speed>
  <fix>3d</fix>
</trkpt>
<trkpt lat="40.0717042" lon="-105.2297921">
  <ele>1583.05</ele>
  <time>2026-08-28T17:49:46Z</time>
  <course>4.2</course>
  <speed>2.2122612865572635</speed>
  <fix>3d</fix>
</trkpt>
<trkpt lat="40.0717046" lon="-105.2297921">
  <ele>1583.06</ele>
  <time>2026-08-28T17:49:46Z</time>
  <course>4.2</course>
  <speed>2.1922819161777527</speed>
  <fix>3d</fix>
</trkpt>
<trkpt lat="40.071705" lon="-105.229792">
  <ele>1583.06</ele>
  <time>2026-08-28T17:49:46Z</time>
  <course>4.21</course>
  <speed>2.1623135757794243</speed>
  <fix>3d</fix>
</trkpt>
<trkpt lat="40.0717054" lon="-105.229792">
  <ele>1583.06</ele>
  <time>2026-08-28T17:49:46Z</time>
  <course>4.22</course>
  <speed>2.142335174523352</speed>
  <fix>3d</fix>
</trkpt>
<trkpt lat="40.0717057" lon="-105.229792">
  <ele>1583.06</ele>
  <time>2026-08-28T17:49:46Z</time>
  <course>4.22</course>
  <speed>2.12235718011837</speed>
  <fix>3d</fix>
</trkpt>
<trkpt lat="40.0717057" lon="-105.229792">
  <ele>1583.06</ele>
  <time>2026-08-28T17:49:46Z</time>
  <course>4.22</course>
  <speed>2.12235718011837</speed>
  <fix>3d</fix>
</trkpt>
<trkpt lat="40.0717033" lon="-105.2297919">
  <ele>1583.0</ele>
  <time>2026-08-28T17:49:46Z</time>
  <course>3.22</course>
  <speed>2.31</speed>
  <fix>3d</fix>
</trkpt>
<trkpt lat="40.0717069" lon="-105.2297919">
  <ele>1583.05</ele>
  <time>2026-08-28T17:49:46Z</time>
  <course>4.26</course>
  <speed>2.0624257562394823</speed>
  <fix>3d</fix>
</trkpt>
<trkpt lat="40.0717073" lon="-105.2297919">
  <ele>1583.05</ele>
  <time>2026-08-28T17:49:46Z</time>
  <course>4.27</course>
  <speed>2.0424495097798623</speed>
  <fix>3d</fix>
</trkpt>
<trkpt lat="40.0717076" lon="-105.2297918">
  <ele>1583.05</ele>
  <time>2026-08-28T17:49:46Z</time>
  <course>4.28</course>
  <speed>2.022473732833136</speed>
  <fix>3d</fix>
</trkpt>
<trkpt lat="40.0717076" lon="-105.2297918">
  <ele>1583.05</ele>
  <time>2026-08-28T17:49:46Z</time>
  <course>4.28</course>
  <speed>2.022473732833136</speed>
  <fix>3d</fix>
</trkpt>
<trkpt lat="40.0717033" lon="-105.2297919">
  <ele>1583.0</ele>
  <time>2026-08-28T17:49:46Z</time>
  <course>3.22</course>
  <speed>2.31</speed>
  <fix>3d</fix>
</trkpt>
<trkpt lat="40.0717091" lon="-105.2297917">
  <ele>1583.05</ele>
  <time>2026-08-28T17:49:46Z</time>
  <course>4.32</course>
  <speed>1.942086506827129</speed>
  <fix>3d</fix>
</trkpt>
<trkpt lat="40.0717094" lon="-105.2297917">
  <ele>1583.05</ele>
  <time>2026-08-28T17:49:46Z</time>
  <course>4.34</course>
  <speed>1.9221082175569617</speed>
  <fix>3d</fix>
</trkpt>
<trkpt lat="40.0717094" lon="-105.2297917">
  <ele>1583.05</ele>
  <time>2026-08-28T17:49:46Z</time>
  <course>4.34</course>
  <speed>1.9221082175569617</speed>
  <fix>3d</fix>
</trkpt>
<trkpt lat="40.0717033" lon="-105.2297919">
  <ele>1583.0</ele>
  <time>2026-08-28T17:49:46Z</time>
  <course>3.22</course>
  <speed>2.31</speed>
  <fix>3d</fix>
</trkpt>
<trkpt lat="40.0717105" lon="-105.2297916">
  <ele>1583.05</ele>
  <time>2026-08-28T17:49:46Z</time>
  <course>4.37</course>
  <speed>1.8521878954360975</speed>
  <fix>3d</fix>
</trkpt>
<trkpt lat="40.0717108" lon="-105.2297916">
  <ele>1583.05</ele>
  <time>2026-08-28T17:49:46Z</time>
  <course>4.38</course>
  <speed>1.8421997720117111</speed>
  <fix>3d</fix>
</trkpt>
<trkpt lat="40.0717111" lon="-105.2297916">
  <ele>1583.05</ele>
  <time>2026-08-28T17:49:46Z</time>
  <course>4.39</course>
  <speed>1.8122361876973982</speed>
  <fix>3d</fix>
</trkpt>
<trkpt lat="40.0717111" lon="-105.2297916">
  <ele>1583.05</ele>
  <time>2026-08-28T17:49:46Z</time>
  <course>4.39</course>
  <speed>1.8122361876973982</speed>
  <fix>3d</fix>
</trkpt>
<trkpt lat="40.0717073" lon="-105.2297916">
  <ele>1583.0</ele>
  <time>2026-08-28T17:49:46Z</time>
  <course>3.31</course>
  <speed>2.1</speed>
  <fix>3d</fix>
</trkpt>
<trkpt lat="40.0717121" lon="-105.2297915">
  <ele>1583.05</ele>
  <time>2026-08-28T17:49:46Z</time>
  <course>4.42</course>
  <speed>1.75231275747225</speed>
  <fix>3d</fix>
</trkpt>
<trkpt lat="40.0717124" lon="-105.2297914">
  <ele>1583.05</ele>
  <time>2026-08-28T17:49:46Z</time>
  <course>4.44</course>
  <speed>1.7423260314877924</speed>
  <fix>3d</fix>
</trkpt>
<trkpt lat="40.0717127" lon="-105.2297914">
  <ele>1583.05</ele>
  <time>2026-08-28T17:49:46Z</time>
  <course>4.45</course>
  <speed>1.7223530416264836</speed>
  <fix>3d</fix>
</trkpt>
<trkpt lat="40.0717127" lon="-105.2297914">
  <ele>1583.05</ele>
  <time>2026-08-28T17:49:46Z</time>
  <course>4.45</course>
  <speed>1.7223530416264836</speed>
  <fix>3d</fix>
</trkpt>
<trkpt lat="40.0717073" lon="-105.2297916">
  <ele>1583.0</ele>
  <time>2026-08-28T17:49:46Z</time>
  <course>3.31</course>
  <speed>2.1</speed>
  <fix>3d</fix>
</trkpt>
<trkpt lat="40.0717137" lon="-105.2297913">
  <ele>1583.05</ele>
  <time>2026-08-28T17:49:46Z</time>
  <course>4.5</course>
  <speed>1.6624379687675568</speed>
  <fix>3d</fix>
</trkpt>
<trkpt lat="40.071714" lon="-105.2297913">
  <ele>1583.05</ele>
  <time>2026-08-28T17:49:46Z</time>
  <course>4.51</course>
  <speed>1.6424676556937126</speed>
  <fix>3d</fix>
</trkpt>
<trkpt lat="40.0717143" lon="-105.2297913">
  <ele>1583.05</ele>
  <time>2026-08-28T17:49:46Z</time>
  <course>4.52</course>
  <speed>1.622498073958795</speed>
  <fix>3d</fix>
</trkpt>
<trkpt lat="40.0717143" lon="-105.2297913">
  <ele>1583.05</ele>
  <time>2026-08-28T17:49:46Z</time>
  <course>4.52</course>
  <speed>1.622498073958795</speed>
  <fix>3d</fix>
</trkpt>
<trkpt lat="40.0717109" lon="-105.2297914">
  <ele>1583.0</ele>
  <time>2026-08-28T17:49:46Z</time>
  <course>3.42</course>
  <speed>1.9</speed>
  <fix>3d</fix>
</trkpt>
<trkpt lat="40.0717151" lon="-105.2297912">
  <ele>1583.05</ele>
  <time>2026-08-28T17:49:46Z</time>
  <course>4.57</course>
  <speed>1.5620499351813308</speed>
  <fix>3d</fix>
</trkpt>
<trkpt lat="40.0717154" lon="-105.2297912">
  <ele>1583.05</ele>
  <time>2026-08-28T17:49:46Z</time>
  <course>4.59</course>
  <speed>1.5420765220960988</speed>
  <fix>3d</fix>
</trkpt>
<trkpt lat="40.0717157" lon="-105.2297912">
  <ele>1583.05</ele>
  <time>2026-08-28T17:49:46Z</time>
  <course>4.61</course>
  <speed>1.5221038072352358</speed>
  <fix>3d</fix>
</trkpt>
<trkpt lat="40.0717157" lon="-105.2297912">
  <ele>1583.05</ele>
  <time>2026-08-28T17:49:46Z</time>
  <course>4.61</course>
  <speed>1.5221038072352358</speed>
  <fix>3d</fix>
</trkpt>
<trkpt lat="40.0717109" lon="-105.2297914">
  <ele>1583.0</ele>
  <time>2026-08-28T17:49:46Z</time>
  <course>3.42</course>
  <speed>1.9</speed>
  <fix>3d</fix>
</trkpt>
<trkpt lat="40.0717165" lon="-105.2297911">
  <ele>1583.05</ele>
  <time>2026-08-28T17:49:46Z</time>
  <course>4.66</course>
  <speed>1.4621901381147393</speed>
  <fix>3d</fix>
</trkpt>
<trkpt lat="40.0717168" lon="-105.2297911">
  <ele>1583.04</ele>
  <time>2026-08-28T17:49:46Z</time>
  <course>4.68</course>
  <speed>1.4422205101855956</speed>
  <fix>3d</fix>
</trkpt>
<trkpt lat="40.0717171" lon="-105.229791">
  <ele>1583.04</ele>
  <time>2026-08-28T17:49:46Z</time>
  <course>4.7</course>
  <speed>1.422251735804882</speed>
  <fix>3d</fix>
</trkpt>
<trkpt lat="40.0717171" lon="-105.229791">
  <ele>1583.04</ele>
  <time>2026-08-28T17:49:46Z</time>
  <course>4.7</course>
  <speed>1.422251735804882</speed>
  <fix>3d</fix>
</trkpt>
<trkpt lat="40.0717141" lon="-105.2297911">
  <ele>1583.0</ele>
  <time>2026-08-28T17:49:46Z</time>
  <course>3.56</course>
  <speed>1.7</speed>
  <fix>3d</fix>
</trkpt>
<trkpt lat="40.0717178" lon="-105.229791">
  <ele>1583.04</ele>
  <time>2026-08-28T17:49:46Z</time>
  <course>4.77</course>
  <speed>1.3623509092741122</speed>
  <fix>3d</fix>
</trkpt>
<trkpt lat="40.0717181" lon="-105.2297909">
  <ele>1583.04</ele>
  <time>2026-08-28T17:49:46Z</time>
  <course>4.79</course>
  <speed>1.3423859355639869</speed>
  <fix>3d</fix>
</trkpt>
<trkpt lat="40.0717183" lon="-105.2297909">
  <ele>1583.04</ele>
  <time>2026-08-28T17:49:46Z</time>
  <course>4.82</course>
  <speed>1.3224220203853232</speed>
  <fix>3d</fix>
</trkpt>
<trkpt lat="40.0717183" lon="-105.2297909">
  <ele>1583.04</ele>
  <time>2026-08-28T17:49:46Z</time>
  <course>4.82</course>
  <speed>1.3224220203853232</speed>
  <fix>3d</fix>
</trkpt>
<trkpt lat="40.0717141" lon="-105.2297911">
  <ele>1583.0</ele>
  <time>2026-08-28T17:49:46Z</time>
  <course>3.56</course>
  <speed>1.7</speed>
  <fix>3d</fix>
</trkpt>
<trkpt lat="40.071719" lon="-105.2297909">
  <ele>1583.04</ele>
  <time>2026-08-28T17:49:46Z</time>
  <course>4.89</course>
  <speed>1.2625371281669304</speed>
  <fix>3d</fix>
</trkpt>
<trkpt lat="40.0717193" lon="-105.2297908">
  <ele>1583.04</ele>
  <time>2026-08-28T17:49:46Z</time>
  <course>4.92</course>
  <speed>1.241974234837422</speed>
  <fix>3d</fix>
</trkpt>
<trkpt lat="40.0717195" lon="-105.2297908">
  <ele>1583.04</ele>
  <time>2026-08-28T17:49:46Z</time>
  <course>4.95</course>
  <speed>1.231990259701756</speed>
  <fix>3d</fix>
</trkpt>
<trkpt lat="40.0717195" lon="-105.2297908">
  <ele>1583.04</ele>
  <time>2026-08-28T17:49:46Z</time>
  <course>4.95</course>
  <speed>1.231990259701756</speed>
  <fix>3d</fix>
</trkpt>
<trkpt lat="40.071717" lon="-105.2297908">
  <ele>1583.0</ele>
  <time>2026-08-28T17:49:46Z</time>
  <course>3.73</course>
  <speed>1.51</speed>
  <fix>3d</fix>
</trkpt>
<trkpt lat="40.0717204" lon="-105.2297907">
  <ele>1583.04</ele>
  <time>2026-08-28T17:49:46Z</time>
  <course>5.07</course>
  <speed>1.152128465059344</speed>
  <fix>3d</fix>
</trkpt>
<trkpt lat="40.0717206" lon="-105.2297907">
  <ele>1583.04</ele>
  <time>2026-08-28T17:49:46Z</time>
  <course>5.1</course>
  <speed>1.1321660655575223</speed>
  <fix>3d</fix>
</trkpt>
<trkpt lat="40.0717206" lon="-105.2297907">
  <ele>1583.04</ele>
  <time>2026-08-28T17:49:46Z</time>
  <course>5.1</course>
  <speed>1.1321660655575223</speed>
  <fix>3d</fix>
</trkpt>
<trkpt lat="40.0717195" lon="-105.2297907">
  <ele>1583.0</ele>
  <time>2026-08-28T17:49:46Z</time>
  <course>3.97</course>
  <speed>1.31</speed>
  <fix>3d</fix>
</trkpt>
<trkpt lat="40.0717214" lon="-105.2297906">
  <ele>1583.04</ele>
  <time>2026-08-28T17:49:46Z</time>
  <course>5.24</course>
  <speed>1.0523307464861036</speed>
  <fix>3d</fix>
</trkpt>
<trkpt lat="40.0717216" lon="-105.2297906">
  <ele>1583.04</ele>
  <time>2026-08-28T17:49:46Z</time>
  <course>5.28</course>
  <speed>1.0323759005323594</speed>
  <fix>3d</fix>
</trkpt>
<trkpt lat="40.0717216" lon="-105.2297906">
  <ele>1583.04</ele>
  <time>2026-08-28T17:49:46Z</time>
  <course>5.28</course>
  <speed>1.0323759005323594</speed>
  <fix>3d</fix>
</trkpt>
<trkpt lat="40.0717195" lon="-105.2297907">
  <ele>1583.0</ele>
  <time>2026-08-28T17:49:46Z</time>
  <course>3.97</course>
  <speed>1.31</speed>
  <fix>3d</fix>
</trkpt>
<trkpt lat="40.0717222" lon="-105.2297905">
  <ele>1583.05</ele>
  <time>2026-08-28T17:49:46Z</time>
  <course>5.41</course>
  <speed>0.9725224933131367</speed>
  <fix>3d</fix>
</trkpt>
<trkpt lat="40.0717223" lon="-105.2297905">
  <ele>1583.05</ele>
  <time>2026-08-28T17:49:46Z</time>
  <course>5.46</course>
  <speed>0.9625487000666512</speed>
  <fix>3d</fix>
</trkpt>
<trkpt lat="40.0717225" lon="-105.2297905">
  <ele>1583.05</ele>
  <time>2026-08-28T17:49:46Z</time>
  <course>5.5</course>
  <speed>0.9426027795418386</speed>
  <fix>3d</fix>
</trkpt>
<trkpt lat="40.0717225" lon="-105.2297905">
  <ele>1583.05</ele>
  <time>2026-08-28T17:49:46Z</time>
  <course>5.5</course>
  <speed>0.9426027795418386</speed>
  <fix>3d</fix>
</trkpt>
<trkpt lat="40.0717217" lon="-105.2297905">
  <ele>1583.0</ele>
  <time>2026-08-28T17:49:46Z</time>
  <course>4.31</course>
  <speed>1.12</speed>
  <fix>3d</fix>
</trkpt>
<trkpt lat="40.0717232" lon="-105.2297904">
  <ele>1583.05</ele>
  <time>2026-08-28T17:49:46Z</time>
  <course>5.65</course>
  <speed>0.8620904824900922</speed>
  <fix>3d</fix>
</trkpt>
<trkpt lat="40.0717234" lon="-105.2297904">
  <ele>1583.05</ele>
  <time>2026-08-28T17:49:46Z</time>
  <course>5.68</course>
  <speed>0.8421401308570919</speed>
  <fix>3d</fix>
</trkpt>
<trkpt lat="40.0717234" lon="-105.2297904">
  <ele>1583.05</ele>
  <time>2026-08-28T17:49:46Z</time>
  <course>5.68</course>
  <speed>0.8421401308570919</speed>
  <fix>3d</fix>
</trkpt>
<trkpt lat="40.0717217" lon="-105.2297905">
  <ele>1583.0</ele>
  <time>2026-08-28T17:49:46Z</time>
  <course>4.31</course>
  <speed>1.12</speed>
  <fix>3d</fix>
</trkpt>
<trkpt lat="40.071724" lon="-105.2297903">
  <ele>1583.05</ele>
  <time>2026-08-28T17:49:46Z</time>
  <course>5.81</course>
  <speed>0.7623647421018367</speed>
  <fix>3d</fix>
</trkpt>
<trkpt lat="40.0717241" lon="-105.2297903">
  <ele>1583.05</ele>
  <time>2026-08-28T17:49:46Z</time>
  <course>5.83</course>
  <speed>0.7523961722390672</speed>
  <fix>3d</fix>
</trkpt>
<trkpt lat="40.0717241" lon="-105.2297903">
  <ele>1583.05</ele>
  <time>2026-08-28T17:49:46Z</time>
  <course>5.83</course>
  <speed>0.7523961722390672</speed>
  <fix>3d</fix>
</trkpt>
<trkpt lat="40.0717235" lon="-105.2297902">
  <ele>1583.0</ele>
  <time>2026-08-28T17:49:46Z</time>
  <course>4.67</course>
  <speed>0.93</speed>
  <fix>3d</fix>
</trkpt>
<trkpt lat="40.0717247" lon="-105.2297902">
  <ele>1583.05</ele>
  <time>2026-08-28T17:49:46Z</time>
  <course>5.93</course>
  <speed>0.671863081289633</speed>
  <fix>3d</fix>
</trkpt>
<trkpt lat="40.0717248" lon="-105.2297902">
  <ele>1583.05</ele>
  <time>2026-08-28T17:49:46Z</time>
  <course>5.95</course>
  <speed>0.6519202405202649</speed>
  <fix>3d</fix>
</trkpt>
<trkpt lat="40.0717248" lon="-105.2297902">
  <ele>1583.05</ele>
  <time>2026-08-28T17:49:46Z</time>
  <course>5.95</course>
  <speed>0.6519202405202649</speed>
  <fix>3d</fix>
</trkpt>
<trkpt lat="40.0717235" lon="-105.2297902">
  <ele>1583.0</ele>
  <time>2026-08-28T17:49:46Z</time>
  <course>4.67</course>
  <speed>0.93</speed>
  <fix>3d</fix>
</trkpt>
<trkpt lat="40.0717253" lon="-105.2297901">
  <ele>1583.04</ele>
  <time>2026-08-28T17:49:46Z</time>
  <course>6.03</course>
  <speed>0.5921148537234985</speed>
  <fix>3d</fix>
</trkpt>
<trkpt lat="40.0717254" lon="-105.2297901">
  <ele>1583.04</ele>
  <time>2026-08-28T17:49:46Z</time>
  <course>6.05</course>
  <speed>0.5721887800367987</speed>
  <fix>3d</fix>
</trkpt>
<trkpt lat="40.071725" lon="-105.2297901">
  <ele>1583.0</ele>
  <time>2026-08-28T17:49:46Z</time>
  <course>4.94</course>
  <speed>0.74</speed>
  <fix>3d</fix>
</trkpt>
<trkpt lat="40.0717259" lon="-105.2297901">
  <ele>1583.04</ele>
  <time>2026-08-28T17:49:46Z</time>
  <course>6.11</course>
  <speed>0.4916299421312742</speed>
  <fix>3d</fix>
</trkpt>
<trkpt lat="40.071725" lon="-105.2297901">
  <ele>1583.0</ele>
  <time>2026-08-28T17:49:46Z</time>
  <course>4.94</course>
  <speed>0.74</speed>
  <fix>3d</fix>
</trkpt>
<trkpt lat="40.0717264" lon="-105.22979">
  <ele>1583.04</ele>
  <time>2026-08-28T17:49:46Z</time>
  <course>6.17</course>
  <speed>0.4119465984809196</speed>
  <fix>3d</fix>
</trkpt>
<trkpt lat="40.0717262" lon="-105.2297899">
  <ele>1583.0</ele>
  <time>2026-08-28T17:49:46Z</time>
  <course>5.1</course>
  <speed>0.57</speed>
  <fix>3d</fix>
</trkpt>
<trkpt lat="40.0717268" lon="-105.2297899">
  <ele>1583.04</ele>
  <time>2026-08-28T17:49:46Z</time>
  <course>6.2</course>
  <speed>0.34132096331752027</speed>
  <fix>3d</fix>
</trkpt>
<trkpt lat="40.0717262" lon="-105.2297899">
  <ele>1583.0</ele>
  <time>2026-08-28T17:49:46Z</time>
  <course>5.1</course>
  <speed>0.57</speed>
  <fix>3d</fix>
</trkpt>
<trkpt lat="40.0717271" lon="-105.2297899">
  <ele>1583.04</ele>
  <time>2026-08-28T17:49:46Z</time>
  <course>6.23</course>
  <speed>0.2816025568065745</speed>
  <fix>3d</fix>
</trkpt>
<trkpt lat="40.0717271" lon="-105.2297898">
  <ele>1583.0</ele>
  <time>2026-08-28T17:49:46Z</time>
  <course>5.18</course>
  <speed>0.43</speed>
  <fix>3d</fix>
</trkpt>
<trkpt lat="40.0717274" lon="-105.2297898">
  <ele>1583.03</ele>
  <time>2026-08-28T17:49:46Z</time>
  <course>6.24</course>
  <speed>0.22090722034374521</speed>
  <fix>3d</fix>
</trkpt>
<trkpt lat="40.0717271" lon="-105.2297898">
  <ele>1583.0</ele>
  <time>2026-08-28T17:49:46Z</time>
  <course>5.18</course>
  <speed>0.43</speed>
  <fix>3d</fix>
</trkpt>
<trkpt lat="40.0717276" lon="-105.2297898">
  <ele>1583.03</ele>
  <time>2026-08-28T17:49:46Z</time>
  <course>6.25</course>
  <speed>0.1711724276862369</speed>
  <fix>3d</fix>
</trkpt>
<trkpt lat="40.0717278" lon="-105.2297897">
  <ele>1583.0</ele>
  <time>2026-08-28T17:49:46Z</time>
  <course>5.22</course>
  <speed>0.3</speed>
  <fix>3d</fix>
</trkpt>
<trkpt lat="40.0717278" lon="-105.2297898">
  <ele>1583.03</ele>
  <time>2026-08-28T17:49:46Z</time>
  <course>6.25</course>
  <speed>0.13152946437965907</speed>
  <fix>3d</fix>
</trkpt>
<trkpt lat="40.0717278" lon="-105.2297897">
  <ele>1583.0</ele>
  <time>2026-08-28T17:49:46Z</time>
  <course>5.22</course>
  <speed>0.3</speed>
  <fix>3d</fix>
</trkpt>
<trkpt lat="40.0717279" lon="-105.2297897">
  <ele>1583.03</ele>
  <time>2026-08-28T17:49:46Z</time>
  <course>6.25</course>
  <speed>0.09219544457292887</speed>
  <fix>3d</fix>
</trkpt>
<trkpt lat="40.0717278" lon="-105.2297897">
  <ele>1583.0</ele>
  <time>2026-08-28T17:49:46Z</time>
  <course>5.22</course>
  <speed>0.3</speed>
  <fix>3d</fix>
</trkpt>
<trkpt lat="40.0717281" lon="-105.2297897">
  <ele>1583.02</ele>
  <time>2026-08-28T17:49:46Z</time>
  <course>6.25</course>
  <speed>0.0632455532033676</speed>
  <fix>3d</fix>
</trkpt>
<trkpt lat="40.0717283" lon="-105.2297897">
  <ele>1583.0</ele>
  <time>2026-08-28T17:49:46Z</time>
  <course>5.22</course>
  <speed>0.21</speed>
  <fix>3d</fix>
</trkpt>
<trkpt lat="40.0717281" lon="-105.2297897">
  <ele>1583.02</ele>
  <time>2026-08-28T17:49:46Z</time>
  <course>6.25</course>
  <speed>0.044721359549995794</speed>
  <fix>3d</fix>
</trkpt>
<trkpt lat="40.0717282" lon="-105.2297897">
  <ele>1583.02</ele>
  <time>2026-08-28T17:49:46Z</time>
  <course>6.26</course>
  <speed>0.044721359549995794</speed>
  <fix>3d</fix>
</trkpt>
<trkpt lat="40.0717282" lon="-105.2297897">
  <ele>1583.02</ele>
  <time>2026-08-28T17:49:46Z</time>
  <course>6.26</course>
  <speed>0.044721359549995794</speed>
  <fix>3d</fix>
</trkpt>
<trkpt lat="40.0717283" lon="-105.2297897">
  <ele>1583.0</ele>
  <time>2026-08-28T17:49:46Z</time>
  <course>5.22</course>
  <speed>0.21</speed>
  <fix>3d</fix>
</trkpt>
<trkpt lat="40.0717282" lon="-105.2297897">
  <ele>1583.02</ele>
  <time>2026-08-28T17:49:46Z</time>
  <course>6.29</course>
  <speed>0.0282842712474619</speed>
  <fix>3d</fix>
</trkpt>
<trkpt lat="40.0717283" lon="-105.2297897">
  <ele>1583.02</ele>
  <time>2026-08-28T17:49:46Z</time>
  <course>6.3</course>
  <speed>0.0282842712474619</speed>
  <fix>3d</fix>
</trkpt>
<trkpt lat="40.0717286" lon="-105.2297897">
  <ele>1583.0</ele>
  <time>2026-08-28T17:49:46Z</time>
  <course>5.22</course>
  <speed>0.14</speed>
  <fix>3d</fix>
</trkpt>
<trkpt lat="40.0717283" lon="-105.2297896">
  <ele>1583.02</ele>
  <time>2026-08-28T17:49:46Z</time>
  <course>6.32</course>
  <speed>0.0282842712474619</speed>
  <fix>3d</fix>
</trkpt>
<trkpt lat="40.0717283" lon="-105.2297896">
  <ele>1583.02</ele>
  <time>2026-08-28T17:49:46Z</time>
  <course>6.36</course>
  <speed>0.022360679774997897</speed>
  <fix>3d</fix>
</trkpt>
<trkpt lat="40.0717283" lon="-105.2297896">
  <ele>1583.02</ele>
  <time>2026-08-28T17:49:46Z</time>
  <course>6.38</course>
  <speed>0.022360679774997897</speed>
  <fix>3d</fix>
</trkpt>
<trkpt lat="40.0717283" lon="-105.2297896">
  <ele>1583.02</ele>
  <time>2026-08-28T17:49:46Z</time>
  <course>6.4</course>
  <speed>0.022360679774997897</speed>
  <fix>3d</fix>
</trkpt>
<trkpt lat="40.0717283" lon="-105.2297896">
  <ele>1583.02</ele>
  <time>2026-08-28T17:49:46Z</time>
  <course>6.4</course>
  <speed>0.022360679774997897</speed>
  <fix>3d</fix>
</trkpt>
<trkpt lat="40.0717286" lon="-105.2297897">
  <ele>1583.0</ele>
  <time>2026-08-28T17:49:46Z</time>
  <course>5.22</course>
  <speed>0.14</speed>
  <fix>3d</fix>
</trkpt>
<trkpt lat="40.0717284" lon="-105.2297896">
  <ele>1583.01</ele>
  <time>2026-08-28T17:49:46Z</time>
  <course>6.49</course>
  <speed>0.02</speed>
  <fix>3d</fix>
</trkpt>
<trkpt lat="40.0717284" lon="-105.2297896">
  <ele>1583.01</ele>
  <time>2026-08-28T17:49:46Z</time>
  <course>6.52</course>
  <speed>0.02</speed>
  <fix>3d</fix>
</trkpt>
<trkpt lat="40.0717284" lon="-105.2297896">
  <ele>1583.01</ele>
  <time>2026-08-28T17:49:46Z</time>
  <course>6.55</course>
  <speed>0.02</speed>
  <fix>3d</fix>
</trkpt>
<trkpt lat="40.0717284" lon="-105.2297896">
  <ele>1583.01</ele>
  <time>2026-08-28T17:49:46Z</time>
  <course>6.55</course>
  <speed>0.02</speed>
  <fix>3d</fix>
</trkpt>
<trkpt lat="40.0717288" lon="-105.2297897">
  <ele>1583.0</ele>
  <time>2026-08-28T17:49:46Z</time>
  <course>5.27</course>
  <speed>0.09</speed>
  <fix>3d</fix>
</trkpt>
<trkpt lat="40.0717284" lon="-105.2297896">
  <ele>1583.01</ele>
  <time>2026-08-28T17:49:46Z</time>
  <course>6.65</course>
  <speed>0.02</speed>
  <fix>3d</fix>
</trkpt>
<trkpt lat="40.0717284" lon="-105.2297896">
  <ele>1583.01</ele>
  <time>2026-08-28T17:49:46Z</time>
  <course>6.69</course>
  <speed>0.02</speed>
  <fix>3d</fix>
</trkpt>
<trkpt lat="40.0717284" lon="-105.2297896">
  <ele>1583.01</ele>
  <time>2026-08-28T17:49:46Z</time>
  <course>6.73</course>
  <speed>0.02</speed>
  <fix>3d</fix>
</trkpt>
<trkpt lat="40.0717289" lon="-105.2297897">
  <ele>1583.0</ele>
  <time>2026-08-28T17:49:46Z</time>
  <course>5.49</course>
  <speed>0.07</speed>
  <fix>3d</fix>
</trkpt>
<trkpt lat="40.0717285" lon="-105.2297896">
  <ele>1583.01</ele>
  <time>2026-08-28T17:49:46Z</time>
  <course>6.77</course>
  <speed>0.02</speed>
  <fix>3d</fix>
</trkpt>
<trkpt lat="40.0717285" lon="-105.2297896">
  <ele>1583.01</ele>
  <time>2026-08-28T17:49:46Z</time>
  <course>6.86</course>
  <speed>0.02</speed>
  <fix>3d</fix>
</trkpt>
<trkpt lat="40.0717285" lon="-105.2297896">
  <ele>1583.01</ele>
  <time>2026-08-28T17:49:46Z</time>
  <course>6.91</course>
  <speed>0.02</speed>
  <fix>3d</fix>
</trkpt>
<trkpt lat="40.0717285" lon="-105.2297896">
  <ele>1583.01</ele>
  <time>2026-08-28T17:49:46Z</time>
  <course>6.96</course>
  <speed>0.02</speed>
  <fix>3d</fix>
</trkpt>
<trkpt lat="40.0717285" lon="-105.2297896">
  <ele>1583.01</ele>
  <time>2026-08-28T17:49:46Z</time>
  <course>6.96</course>
  <speed>0.02</speed>
  <fix>3d</fix>
</trkpt>
<trkpt lat="40.0717289" lon="-105.2297897">
  <ele>1583.0</ele>
  <time>2026-08-28T17:49:46Z</time>
  <course>5.49</course>
  <speed>0.07</speed>
  <fix>3d</fix>
</trkpt>
<trkpt lat="40.0717286" lon="-105.2297896">
  <ele>1583.01</ele>
  <time>2026-08-28T17:49:46Z</time>
  <course>7.11</course>
  <speed>0.02</speed>
  <fix>3d</fix>
</trkpt>
<trkpt lat="40.0717286" lon="-105.2297896">
  <ele>1583.01</ele>
  <time>2026-08-28T17:49:46Z</time>
  <course>7.16</course>
  <speed>0.02</speed>
  <fix>3d</fix>
</trkpt>
<trkpt lat="40.0717286" lon="-105.2297896">
  <ele>1583.01</ele>
  <time>2026-08-28T17:49:46Z</time>
  <course>7.22</course>
  <speed>0.02</speed>
  <fix>3d</fix>
</trkpt>
<trkpt lat="40.0717286" lon="-105.2297896">
  <ele>1583.01</ele>
  <time>2026-08-28T17:49:46Z</time>
  <course>7.22</course>
  <speed>0.02</speed>
  <fix>3d</fix>
</trkpt>
<trkpt lat="40.071729" lon="-105.2297896">
  <ele>1583.0</ele>
  <time>2026-08-28T17:49:46Z</time>
  <course>5.91</course>
  <speed>0.06</speed>
  <fix>3d</fix>
</trkpt>
<trkpt lat="40.0717286" lon="-105.2297895">
  <ele>1583.0</ele>
  <time>2026-08-28T17:49:46Z</time>
  <course>7.4</course>
  <speed>0.022360679774997897</speed>
  <fix>3d</fix>
</trkpt>
<trkpt lat="40.0717287" lon="-105.2297895">
  <ele>1583.0</ele>
  <time>2026-08-28T17:49:46Z</time>
  <course>7.48</course>
  <speed>0.0316227766016838</speed>
  <fix>3d</fix>
</trkpt>
<trkpt lat="40.0717287" lon="-105.2297895">
  <ele>1583.0</ele>
  <time>2026-08-28T17:49:46Z</time>
  <course>7.55</course>
  <speed>0.0316227766016838</speed>
  <fix>3d</fix>
</trkpt>
<trkpt lat="40.0717287" lon="-105.2297895">
  <ele>1583.0</ele>
  <time>2026-08-28T17:49:46Z</time>
  <course>7.55</course>
  <speed>0.0316227766016838</speed>
  <fix>3d</fix>
</trkpt>
<trkpt lat="40.071729" lon="-105.2297896">
  <ele>1583.0</ele>
  <time>2026-08-28T17:49:46Z</time>
  <course>5.91</course>
  <speed>0.06</speed>
  <fix>3d</fix>
</trkpt>
<trkpt lat="40.0717287" lon="-105.2297895">
  <ele>1583.0</ele>
  <time>2026-08-28T17:49:46Z</time>
  <course>7.81</course>
  <speed>0.03605551275463989</speed>
  <fix>3d</fix>
</trkpt>
<trkpt lat="40.0717287" lon="-105.2297895">
  <ele>1583.0</ele>
  <time>2026-08-28T17:49:46Z</time>
  <course>7.91</course>
  <speed>0.04242640687119285</speed>
  <fix>3d</fix>
</trkpt>
<trkpt lat="40.0717287" lon="-105.2297895">
  <ele>1583.0</ele>
  <time>2026-08-28T17:49:46Z</time>
  <course>8.02</course>
  <speed>0.04242640687119285</speed>
  <fix>3d</fix>
</trkpt>
<trkpt lat="40.0717287" lon="-105.2297895">
  <ele>1583.0</ele>
  <time>2026-08-28T17:49:46Z</time>
  <course>8.02</course>
  <speed>0.04242640687119285</speed>
  <fix>3d</fix>
</trkpt>
<trkpt lat="40.0717292" lon="-105.2297895">
  <ele>1583.0</ele>
  <time>2026-08-28T17:49:46Z</time>
  <course>6.61</course>
  <speed>0.08</speed>
  <fix>3d</fix>
</trkpt>
<trkpt lat="40.0717288" lon="-105.2297895">
  <ele>1583.0</ele>
  <time>2026-08-28T17:49:46Z</time>
  <course>8.39</course>
  <speed>0.06403124237432849</speed>
  <fix>3d</fix>
</trkpt>
<trkpt lat="40.0717288" lon="-105.2297895">
  <ele>1583.0</ele>
  <time>2026-08-28T17:49:46Z</time>
  <course>8.69</course>
  <speed>0.07211102550927978</speed>
  <fix>3d</fix>
</trkpt>
<trkpt lat="40.0717288" lon="-105.2297895">
  <ele>1583.0</ele>
  <time>2026-08-28T17:49:46Z</time>
  <course>8.69</course>
  <speed>0.07211102550927978</speed>
  <fix>3d</fix>
</trkpt>
<trkpt lat="40.0717292" lon="-105.2297895">
  <ele>1583.0</ele>
  <time>2026-08-28T17:49:46Z</time>
  <course>6.61</course>
  <speed>0.08</speed>
  <fix>3d</fix>
</trkpt>
<trkpt lat="40.0717289" lon="-105.2297894">
  <ele>1583.0</ele>
  <time>2026-08-28T17:49:46Z</time>
  <course>9.4</course>
  <speed>0.1118033988749895</speed>
  <fix>3d</fix>
</trkpt>
<trkpt lat="40.071729" lon="-105.2297894">
  <ele>1583.0</ele>
  <time>2026-08-28T17:49:46Z</time>
  <course>9.61</course>
  <speed>0.12083045973594572</speed>
  <fix>3d</fix>
</trkpt>
<trkpt lat="40.071729" lon="-105.2297894">
  <ele>1583.0</ele>
  <time>2026-08-28T17:49:46Z</time>
  <course>9.61</course>
  <speed>0.12083045973594572</speed>
  <fix>3d</fix>
</trkpt>
<trkpt lat="40.0717293" lon="-105.2297895">
  <ele>1583.0</ele>
  <time>2026-08-28T17:49:46Z</time>
  <course>7.95</course>
  <speed>0.13</speed>
  <fix>3d</fix>
</trkpt>
<trkpt lat="40.0717291" lon="-105.2297894">
  <ele>1583.0</ele>
  <time>2026-08-28T17:49:46Z</time>
  <course>10.57</course>
  <speed>0.1615549442140351</speed>
  <fix>3d</fix>
</trkpt>
<trkpt lat="40.0717292" lon="-105.2297894">
  <ele>1583.0</ele>
  <time>2026-08-28T17:49:46Z</time>
  <course>10.85</course>
  <speed>0.18384776310850234</speed>
  <fix>3d</fix>
</trkpt>
<trkpt lat="40.0717292" lon="-105.2297894">
  <ele>1583.0</ele>
  <time>2026-08-28T17:49:46Z</time>
  <course>10.85</course>
  <speed>0.18384776310850234</speed>
  <fix>3d</fix>
</trkpt>
<trkpt lat="40.0717293" lon="-105.2297895">
  <ele>1583.0</ele>
  <time>2026-08-28T17:49:46Z</time>
  <course>7.95</course>
  <speed>0.13</speed>
  <fix>3d</fix>
</trkpt>
<trkpt lat="40.0717293" lon="-105.2297893">
  <ele>1583.0</ele>
  <time>2026-08-28T17:49:46Z</time>
  <course>11.78</course>
  <speed>0.22472205054244232</speed>
  <fix>3d</fix>
</trkpt>
<trkpt lat="40.0717293" lon="-105.2297893">
  <ele>1583.0</ele>
  <time>2026-08-28T17:49:46Z</time>
  <course>12.12</course>
  <speed>0.2340939982143925</speed>
  <fix>3d</fix>
</trkpt>
<trkpt lat="40.0717294" lon="-105.2297893">
  <ele>1583.0</ele>
  <time>2026-08-28T17:49:46Z</time>
  <course>12.48</course>
  <speed>0.24698178070456936</speed>
  <fix>3d</fix>
</trkpt>
<trkpt lat="40.0717294" lon="-105.2297893">
  <ele>1583.0</ele>
  <time>2026-08-28T17:49:46Z</time>
  <course>12.48</course>
  <speed>0.24698178070456936</speed>
  <fix>3d</fix>
</trkpt>
<trkpt lat="40.0717297" lon="-105.2297895">
  <ele>1583.0</ele>
  <time>2026-08-28T17:49:46Z</time>
  <course>10.35</course>
  <speed>0.22</speed>
  <fix>3d</fix>
</trkpt>
<trkpt lat="40.0717296" lon="-105.2297892">
  <ele>1583.0</ele>
  <time>2026-08-28T17:49:46Z</time>
  <course>13.69</course>
  <speed>0.30083217912982646</speed>
  <fix>3d</fix>
</trkpt>
<trkpt lat="40.0717297" lon="-105.2297892">
  <ele>1583.0</ele>
  <time>2026-08-28T17:49:46Z</time>
  <course>14.6</course>
  <speed>0.3417601498127012</speed>
  <fix>3d</fix>
</trkpt>
<trkpt lat="40.0717297" lon="-105.2297892">
  <ele>1583.0</ele>
  <time>2026-08-28T17:49:46Z</time>
  <course>14.6</course>
  <speed>0.3417601498127012</speed>
  <fix>3d</fix>
</trkpt>
<trkpt lat="40.0717297" lon="-105.2297895">
  <ele>1583.0</ele>
  <time>2026-08-28T17:49:46Z</time>
  <course>10.35</course>
  <speed>0.22</speed>
  <fix>3d</fix>
</trkpt>
<trkpt lat="40.0717299" lon="-105.2297891">
  <ele>1583.0</ele>
  <time>2026-08-28T17:49:46Z</time>
  <course>16.14</course>
  <speed>0.3992492955535426</speed>
  <fix>3d</fix>
</trkpt>
<trkpt lat="40.0717301" lon="-105.229789">
  <ele>1583.0</ele>
  <time>2026-08-28T17:49:46Z</time>
  <course>17.28</course>
  <speed>0.4346262762420146</speed>
  <fix>3d</fix>
</trkpt>
<trkpt lat="40.0717301" lon="-105.229789">
  <ele>1583.0</ele>
  <time>2026-08-28T17:49:46Z</time>
  <course>17.28</course>
  <speed>0.4346262762420146</speed>
  <fix>3d</fix>
</trkpt>
<trkpt lat="40.0717302" lon="-105.2297893">
  <ele>1583.0</ele>
  <time>2026-08-28T17:49:46Z</time>
  <course>14.35</course>
  <speed>0.38</speed>
  <fix>3d</fix>
</trkpt>
<trkpt lat="40.0717305" lon="-105.2297888">
  <ele>1583.01</ele>
  <time>2026-08-28T17:49:46Z</time>
  <course>19.88</course>
  <speed>0.5280151512977634</speed>
  <fix>3d</fix>
</trkpt>
<trkpt lat="40.0717306" lon="-105.2297888">
  <ele>1583.01</ele>
  <time>2026-08-28T17:49:46Z</time>
  <course>20.6</course>
  <speed>0.5503635162326805</speed>
  <fix>3d</fix>
</trkpt>
<trkpt lat="40.0717306" lon="-105.2297888">
  <ele>1583.01</ele>
  <time>2026-08-28T17:49:46Z</time>
  <course>20.6</course>
  <speed>0.5503635162326805</speed>
  <fix>3d</fix>
</trkpt>
<trkpt lat="40.0717302" lon="-105.2297893">
  <ele>1583.0</ele>
  <time>2026-08-28T17:49:46Z</time>
  <course>14.35</course>
  <speed>0.38</speed>
  <fix>3d</fix>
</trkpt>
<trkpt lat="40.071731" lon="-105.2297886">
  <ele>1583.01</ele>
  <time>2026-08-28T17:49:46Z</time>
  <course>23.74</course>
  <speed>0.6441273166075167</speed>
  <fix>3d</fix>
</trkpt>
<trkpt lat="40.0717311" lon="-105.2297885">
  <ele>1583.01</ele>
  <time>2026-08-28T17:49:46Z</time>
  <course>24.59</course>
  <speed>0.6624198064671678</speed>
  <fix>3d</fix>
</trkpt>
<trkpt lat="40.0717311" lon="-105.2297885">
  <ele>1583.01</ele>
  <time>2026-08-28T17:49:46Z</time>
  <course>24.59</course>
  <speed>0.6624198064671678</speed>
  <fix>3d</fix>
</trkpt>
<trkpt lat="40.071731" lon="-105.229789">
  <ele>1583.0</ele>
  <time>2026-08-28T17:49:46Z</time>
  <course>20.53</course>
  <speed>0.57</speed>
  <fix>3d</fix>
</trkpt>
<trkpt lat="40.0717315" lon="-105.2297882">
  <ele>1583.01</ele>
  <time>2026-08-28T17:49:46Z</time>
  <course>27.34</course>
  <speed>0.7443117626371358</speed>
  <fix>3d</fix>
</trkpt>
<trkpt lat="40.0717316" lon="-105.2297882">
  <ele>1583.01</ele>
  <time>2026-08-28T17:49:46Z</time>
  <course>28.32</course>
  <speed>0.7632168761236874</speed>
  <fix>3d</fix>
</trkpt>
<trkpt lat="40.0717318" lon="-105.2297881">
  <ele>1583.01</ele>
  <time>2026-08-28T17:49:46Z</time>
  <course>29.33</course>
  <speed>0.7961155694998057</speed>
  <fix>3d</fix>
</trkpt>
<trkpt lat="40.0717318" lon="-105.2297881">
  <ele>1583.01</ele>
  <time>2026-08-28T17:49:46Z</time>
  <course>29.33</course>
  <speed>0.7961155694998057</speed>
  <fix>3d</fix>
</trkpt>
<trkpt lat="40.071731" lon="-105.229789">
  <ele>1583.0</ele>
  <time>2026-08-28T17:49:46Z</time>
  <course>20.53</course>
  <speed>0.57</speed>
  <fix>3d</fix>
</trkpt>
<trkpt lat="40.0717322" lon="-105.2297877">
  <ele>1583.01</ele>
  <time>2026-08-28T17:49:46Z</time>
  <course>32.53</course>
  <speed>0.8741853350405736</speed>
  <fix>3d</fix>
</trkpt>
<trkpt lat="40.0717323" lon="-105.2297876">
  <ele>1583.0</ele>
  <time>2026-08-28T17:49:46Z</time>
  <course>33.66</course>
  <speed>0.9</speed>
  <fix>3d</fix>
</trkpt>
<trkpt lat="40.0717325" lon="-105.2297875">
  <ele>1583.0</ele>
  <time>2026-08-28T17:49:46Z</time>
  <course>34.83</course>
  <speed>0.9261749294814667</speed>
  <fix>3d</fix>
</trkpt>
<trkpt lat="40.0717325" lon="-105.2297875">
  <ele>1583.0</ele>
  <time>2026-08-28T17:49:46Z</time>
  <course>34.83</course>
  <speed>0.9261749294814667</speed>
  <fix>3d</fix>
</trkpt>
<trkpt lat="40.071731" lon="-105.229789">
  <ele>1583.0</ele>
  <time>2026-08-28T17:49:46Z</time>
  <course>20.53</course>
  <speed>0.57</speed>
  <fix>3d</fix>
</trkpt>
<trkpt lat="40.0717329" lon="-105.2297871">
  <ele>1583.0</ele>
  <time>2026-08-28T17:49:46Z</time>
  <course>38.52</course>
  <speed>0.9990495483208028</speed>
  <fix>3d</fix>
</trkpt>
<trkpt lat="40.071733" lon="-105.2297869">
  <ele>1583.0</ele>
  <time>2026-08-28T17:49:46Z</time>
  <course>39.81</course>
  <speed>1.0332473082471592</speed>
  <fix>3d</fix>
</trkpt>
<trkpt lat="40.0717332" lon="-105.2297867">
  <ele>1583.0</ele>
  <time>2026-08-28T17:49:46Z</time>
  <course>41.14</course>
  <speed>1.0538026380684382</speed>
  <fix>3d</fix>
</trkpt>
<trkpt lat="40.0717332" lon="-105.2297867">
  <ele>1583.0</ele>
  <time>2026-08-28T17:49:46Z</time>
  <course>41.14</course>
  <speed>1.0538026380684382</speed>
  <fix>3d</fix>
</trkpt>
<trkpt lat="40.0717321" lon="-105.2297883">
  <ele>1583.0</ele>
  <time>2026-08-28T17:49:46Z</time>
  <course>29.43</course>
  <speed>0.8</speed>
  <fix>3d</fix>
</trkpt>
<trkpt lat="40.0717336" lon="-105.2297862">
  <ele>1583.0</ele>
  <time>2026-08-28T17:49:46Z</time>
  <course>45.0</course>
  <speed>1.1395174417269793</speed>
  <fix>3d</fix>
</trkpt>
<trkpt lat="40.0717338" lon="-105.229786">
  <ele>1583.0</ele>
  <time>2026-08-28T17:49:46Z</time>
  <course>46.22</course>
  <speed>1.1693160394008115</speed>
  <fix>3d</fix>
</trkpt>
<trkpt lat="40.0717339" lon="-105.2297858">
  <ele>1583.0</ele>
  <time>2026-08-28T17:49:46Z</time>
  <course>47.41</course>
  <speed>1.192057045614848</speed>
  <fix>3d</fix>
</trkpt>
<trkpt lat="40.0717321" lon="-105.2297883">
  <ele>1583.0</ele>
  <time>2026-08-28T17:49:46Z</time>
  <course>29.43</course>
  <speed>0.8</speed>
  <fix>3d</fix>
</trkpt>
<trkpt lat="40.0717341" lon="-105.2297856">
  <ele>1583.0</ele>
  <time>2026-08-28T17:49:46Z</time>
  <course>48.57</course>
  <speed>1.2228654872879519</speed>
  <fix>3d</fix>
</trkpt>
<trkpt lat="40.0717344" lon="-105.2297851">
  <ele>1583.0</ele>
  <time>2026-08-28T17:49:46Z</time>
  <course>50.79</course>
  <speed>1.2780062597655772</speed>
  <fix>3d</fix>
</trkpt>
<trkpt lat="40.0717345" lon="-105.2297849">
  <ele>1583.0</ele>
  <time>2026-08-28T17:49:46Z</time>
  <course>51.87</course>
  <speed>1.302075266641679</speed>
  <fix>3d</fix>
</trkpt>
<trkpt lat="40.0717347" lon="-105.2297846">
  <ele>1583.0</ele>
  <time>2026-08-28T17:49:46Z</time>
  <course>52.92</course>
  <speed>1.3287964479181904</speed>
  <fix>3d</fix>
</trkpt>
<trkpt lat="40.0717347" lon="-105.2297846">
  <ele>1583.0</ele>
  <time>2026-08-28T17:49:46Z</time>
  <course>52.92</course>
  <speed>1.3287964479181904</speed>
  <fix>3d</fix>
</trkpt>
<trkpt lat="40.0717335" lon="-105.2297871">
  <ele>1583.0</ele>
  <time>2026-08-28T17:49:46Z</time>
  <course>40.85</course>
  <speed>1.05</speed>
  <fix>3d</fix>
</trkpt>
<trkpt lat="40.0717351" lon="-105.2297838">
  <ele>1583.0</ele>
  <time>2026-08-28T17:49:46Z</time>
  <course>55.92</course>
  <speed>1.4150971698084904</speed>
  <fix>3d</fix>
</trkpt>
<trkpt lat="40.0717353" lon="-105.2297836">
  <ele>1583.0</ele>
  <time>2026-08-28T17:49:46Z</time>
  <course>56.88</course>
  <speed>1.4406248644251562</speed>
  <fix>3d</fix>
</trkpt>
<trkpt lat="40.0717354" lon="-105.2297833">
  <ele>1583.0</ele>
  <time>2026-08-28T17:49:46Z</time>
  <course>57.83</course>
  <speed>1.469863939281456</speed>
  <fix>3d</fix>
</trkpt>
<trkpt lat="40.0717354" lon="-105.2297833">
  <ele>1583.0</ele>
  <time>2026-08-28T17:49:46Z</time>
  <course>57.83</course>
  <speed>1.469863939281456</speed>
  <fix>3d</fix>
</trkpt>
<trkpt lat="40.0717335" lon="-105.2297871">
  <ele>1583.0</ele>
  <time>2026-08-28T17:49:46Z</time>
  <course>40.85</course>
  <speed>1.05</speed>
  <fix>3d</fix>
</trkpt>
<trkpt lat="40.0717358" lon="-105.2297824">
  <ele>1583.0</ele>
  <time>2026-08-28T17:49:46Z</time>
  <course>60.61</course>
  <speed>1.5388307249337074</speed>
  <fix>3d</fix>
</trkpt>
<trkpt lat="40.071736" lon="-105.229782">
  <ele>1583.0</ele>
  <time>2026-08-28T17:49:46Z</time>
  <course>61.51</course>
  <speed>1.5697452022541747</speed>
  <fix>3d</fix>
</trkpt>
<trkpt lat="40.0717361" lon="-105.2297817">
  <ele>1583.0</ele>
  <time>2026-08-28T17:49:46Z</time>
  <course>62.39</course>
  <speed>1.5921369287847074</speed>
  <fix>3d</fix>
</trkpt>
<trkpt lat="40.0717361" lon="-105.2297817">
  <ele>1583.0</ele>
  <time>2026-08-28T17:49:46Z</time>
  <course>62.39</course>
  <speed>1.5921369287847074</speed>
  <fix>3d</fix>
</trkpt>
<trkpt lat="40.0717349" lon="-105.2297851">
  <ele>1583.0</ele>
  <time>2026-08-28T17:49:46Z</time>
  <course>52.1</course>
  <speed>1.31</speed>
  <fix>3d</fix>
</trkpt>
<trkpt lat="40.0717365" lon="-105.2297807">
  <ele>1583.0</ele>
  <time>2026-08-28T17:49:46Z</time>
  <course>64.88</course>
  <speed>1.6611140839809888</speed>
  <fix>3d</fix>
</trkpt>
<trkpt lat="40.0717367" lon="-105.22978">
  <ele>1583.0</ele>
  <time>2026-08-28T17:49:46Z</time>
  <course>66.41</course>
  <speed>1.7084788555905512</speed>
  <fix>3d</fix>
</trkpt>
<trkpt lat="40.0717367" lon="-105.22978">
  <ele>1583.0</ele>
  <time>2026-08-28T17:49:46Z</time>
  <course>66.41</course>
  <speed>1.7084788555905512</speed>
  <fix>3d</fix>
</trkpt>
<trkpt lat="40.0717349" lon="-105.2297851">
  <ele>1583.0</ele>
  <time>2026-08-28T17:49:46Z</time>
  <course>52.1</course>
  <speed>1.31</speed>
  <fix>3d</fix>
</trkpt>
<trkpt lat="40.0717371" lon="-105.2297788">
  <ele>1583.0</ele>
  <time>2026-08-28T17:49:46Z</time>
  <course>68.56</course>
  <speed>1.7685304634074022</speed>
  <fix>3d</fix>
</trkpt>
<trkpt lat="40.0717372" lon="-105.2297784">
  <ele>1583.0</ele>
  <time>2026-08-28T17:49:46Z</time>
  <course>69.23</course>
  <speed>1.793348822733603</speed>
  <fix>3d</fix>
</trkpt>
<trkpt lat="40.0717373" lon="-105.229778">
  <ele>1583.0</ele>
  <time>2026-08-28T17:49:46Z</time>
  <course>69.88</course>
  <speed>1.818378398463862</speed>
  <fix>3d</fix>
</trkpt>
<trkpt lat="40.0717373" lon="-105.229778">
  <ele>1583.0</ele>
  <time>2026-08-28T17:49:46Z</time>
  <course>69.88</course>
  <speed>1.818378398463862</speed>
  <fix>3d</fix>
</trkpt>
<trkpt lat="40.0717364" lon="-105.2297822">
  <ele>1583.0</ele>
  <time>2026-08-28T17:49:46Z</time>
  <course>61.39</course>
  <speed>1.55</speed>
  <fix>3d</fix>
</trkpt>
<trkpt lat="40.0717376" lon="-105.2297772">
  <ele>1583.01</ele>
  <time>2026-08-28T17:49:46Z</time>
  <course>71.12</course>
  <speed>1.8595160660774082</speed>
  <fix>3d</fix>
</trkpt>
<trkpt lat="40.0717377" lon="-105.2297768">
  <ele>1583.01</ele>
  <time>2026-08-28T17:49:46Z</time>
  <course>71.72</course>
  <speed>1.8850994668717087</speed>
  <fix>3d</fix>
</trkpt>
<trkpt lat="40.0717378" lon="-105.2297764">
  <ele>1583.01</ele>
  <time>2026-08-28T17:49:46Z</time>
  <course>72.29</course>
  <speed>1.9012890364171355</speed>
  <fix>3d</fix>
</trkpt>
<trkpt lat="40.0717379" lon="-105.229776">
  <ele>1583.01</ele>
  <time>2026-08-28T17:49:46Z</time>
  <course>72.85</course>
  <speed>1.927200041511</speed>
  <fix>3d</fix>
</trkpt>
<trkpt lat="40.0717379" lon="-105.229776">
  <ele>1583.01</ele>
  <time>2026-08-28T17:49:46Z</time>
  <course>72.85</course>
  <speed>1.927200041511</speed>
  <fix>3d</fix>
</trkpt>
<trkpt lat="40.0717376" lon="-105.2297786">
  <ele>1583.0</ele>
  <time>2026-08-28T17:49:46Z</time>
  <course>68.78</course>
  <speed>1.78</speed>
  <fix>3d</fix>
</trkpt>
<trkpt lat="40.0717383" lon="-105.2297742">
  <ele>1583.01</ele>
  <time>2026-08-28T17:49:46Z</time>
  <course>74.93</course>
  <speed>2.0130822139197395</speed>
  <fix>3d</fix>
</trkpt>
<trkpt lat="40.0717384" lon="-105.2297737">
  <ele>1583.01</ele>
  <time>2026-08-28T17:49:46Z</time>
  <course>75.42</course>
  <speed>2.039730374338726</speed>
  <fix>3d</fix>
</trkpt>
<trkpt lat="40.0717384" lon="-105.2297737">
  <ele>1583.01</ele>
  <time>2026-08-28T17:49:46Z</time>
  <course>75.42</course>
  <speed>2.039730374338726</speed>
  <fix>3d</fix>
</trkpt>
<trkpt lat="40.0717376" lon="-105.2297786">
  <ele>1583.0</ele>
  <time>2026-08-28T17:49:46Z</time>
  <course>68.78</course>
  <speed>1.78</speed>
  <fix>3d</fix>
</trkpt>
<trkpt lat="40.0717388" lon="-105.2297718">
  <ele>1583.01</ele>
  <time>2026-08-28T17:49:46Z</time>
  <course>77.21</course>
  <speed>2.1281212371479215</speed>
  <fix>3d</fix>
</trkpt>
<trkpt lat="40.0717389" lon="-105.2297714">
  <ele>1583.01</ele>
  <time>2026-08-28T17:49:46Z</time>
  <course>77.63</course>
  <speed>2.145600149142426</speed>
  <fix>3d</fix>
</trkpt>
<trkpt lat="40.0717389" lon="-105.2297714">
  <ele>1583.01</ele>
  <time>2026-08-28T17:49:46Z</time>
  <course>77.63</course>
  <speed>2.145600149142426</speed>
  <fix>3d</fix>
</trkpt>
<trkpt lat="40.0717387" lon="-105.2297744">
  <ele>1583.0</ele>
  <time>2026-08-28T17:49:46Z</time>
  <course>74.32</course>
  <speed>2.0</speed>
  <fix>3d</fix>
</trkpt>
<trkpt lat="40.0717391" lon="-105.2297698">
  <ele>1583.01</ele>
  <time>2026-08-28T17:49:46Z</time>
  <course>78.81</course>
  <speed>2.218220007122828</speed>
  <fix>3d</fix>
</trkpt>
<trkpt lat="40.0717392" lon="-105.2297693">
  <ele>1583.01</ele>
  <time>2026-08-28T17:49:46Z</time>
  <course>79.19</course>
  <speed>2.23606797749979</speed>
  <fix>3d</fix>
</trkpt>
<trkpt lat="40.0717393" lon="-105.2297688">
  <ele>1583.01</ele>
  <time>2026-08-28T17:49:46Z</time>
  <course>79.55</course>
  <speed>2.2539964507514205</speed>
  <fix>3d</fix>
</trkpt>
<trkpt lat="40.0717393" lon="-105.2297688">
  <ele>1583.01</ele>
  <time>2026-08-28T17:49:46Z</time>
  <course>79.55</course>
  <speed>2.2539964507514205</speed>
  <fix>3d</fix>
</trkpt>
<trkpt lat="40.0717387" lon="-105.2297744">
  <ele>1583.0</ele>
  <time>2026-08-28T17:49:46Z</time>
  <course>74.32</course>
  <speed>2.0</speed>
  <fix>3d</fix>
</trkpt>
<trkpt lat="40.0717396" lon="-105.2297667">
  <ele>1583.01</ele>
  <time>2026-08-28T17:49:46Z</time>
  <course>80.9</course>
  <speed>2.346252330845939</speed>
  <fix>3d</fix>
</trkpt>
<trkpt lat="40.0717397" lon="-105.2297661">
  <ele>1583.01</ele>
  <time>2026-08-28T17:49:46Z</time>
  <course>81.21</course>
  <speed>2.364571842850202</speed>
  <fix>3d</fix>
</trkpt>
<trkpt lat="40.0717397" lon="-105.2297661">
  <ele>1583.01</ele>
  <time>2026-08-28T17:49:46Z</time>
  <course>81.21</course>
  <speed>2.364571842850202</speed>
  <fix>3d</fix>
</trkpt>
<trkpt lat="40.0717396" lon="-105.2297696">
  <ele>1583.0</ele>
  <time>2026-08-28T17:49:46Z</time>
  <course>78.47</course>
  <speed>2.22</speed>
  <fix>3d</fix>
</trkpt>
<trkpt lat="40.0717399" lon="-105.2297644">
  <ele>1583.01</ele>
  <time>2026-08-28T17:49:46Z</time>
  <course>82.1</course>
  <speed>2.4311519903124115</speed>
  <fix>3d</fix>
</trkpt>
<trkpt lat="40.0717399" lon="-105.2297639">
  <ele>1583.01</ele>
  <time>2026-08-28T17:49:46Z</time>
  <course>82.38</course>
  <speed>2.449693858423946</speed>
  <fix>3d</fix>
</trkpt>
<trkpt lat="40.07174" lon="-105.2297633">
  <ele>1583.01</ele>
  <time>2026-08-28T17:49:46Z</time>
  <course>82.66</course>
  <speed>2.478225171367606</speed>
  <fix>3d</fix>
</trkpt>
<trkpt lat="40.07174" lon="-105.2297633">
  <ele>1583.01</ele>
  <time>2026-08-28T17:49:46Z</time>
  <course>82.66</course>
  <speed>2.478225171367606</speed>
  <fix>3d</fix>
</trkpt>
<trkpt lat="40.0717396" lon="-105.2297696">
  <ele>1583.0</ele>
  <time>2026-08-28T17:49:46Z</time>
  <course>78.47</course>
  <speed>2.22</speed>
  <fix>3d</fix>
</trkpt>
<trkpt lat="40.0717401" lon="-105.2297627">
  <ele>1583.01</ele>
  <time>2026-08-28T17:49:46Z</time>
  <course>82.93</course>
  <speed>2.4980792621532246</speed>
  <fix>3d</fix>
</trkpt>
<trkpt lat="40.0717402" lon="-105.2297615">
  <ele>1583.01</ele>
  <time>2026-08-28T17:49:46Z</time>
  <course>83.45</course>
  <speed>2.5355078386784764</speed>
  <fix>3d</fix>
</trkpt>
<trkpt lat="40.0717402" lon="-105.2297609">
  <ele>1583.01</ele>
  <time>2026-08-28T17:49:46Z</time>
  <course>83.69</course>
  <speed>2.564254277562972</speed>
  <fix>3d</fix>
</trkpt>
<trkpt lat="40.0717403" lon="-105.2297603">
  <ele>1583.01</ele>
  <time>2026-08-28T17:49:46Z</time>
  <course>83.93</course>
  <speed>2.583118270617898</speed>
  <fix>3d</fix>
</trkpt>
<trkpt lat="40.0717403" lon="-105.2297603">
  <ele>1583.01</ele>
  <time>2026-08-28T17:49:46Z</time>
  <course>83.93</course>
  <speed>2.583118270617898</speed>
  <fix>3d</fix>
</trkpt>
<trkpt lat="40.0717403" lon="-105.2297642">
  <ele>1583.0</ele>
  <time>2026-08-28T17:49:46Z</time>
  <course>81.59</course>
  <speed>2.43</speed>
  <fix>3d</fix>
</trkpt>
<trkpt lat="40.0717405" lon="-105.2297578">
  <ele>1583.01</ele>
  <time>2026-08-28T17:49:46Z</time>
  <course>84.81</course>
  <speed>2.670805122055894</speed>
  <fix>3d</fix>
</trkpt>
<trkpt lat="40.0717406" lon="-105.2297572">
  <ele>1583.01</ele>
  <time>2026-08-28T17:49:46Z</time>
  <course>85.02</course>
  <speed>2.689851297005097</speed>
  <fix>3d</fix>
</trkpt>
<trkpt lat="40.0717406" lon="-105.2297572">
  <ele>1583.01</ele>
  <time>2026-08-28T17:49:46Z</time>
  <course>85.02</course>
  <speed>2.689851297005097</speed>
  <fix>3d</fix>
</trkpt>
<trkpt lat="40.0717403" lon="-105.2297642">
  <ele>1583.0</ele>
  <time>2026-08-28T17:49:46Z</time>
  <course>81.59</course>
  <speed>2.43</speed>
  <fix>3d</fix>
</trkpt>
<trkpt lat="40.0717408" lon="-105.2297546">
  <ele>1583.01</ele>
  <time>2026-08-28T17:49:46Z</time>
  <course>85.79</course>
  <speed>2.7772108310317383</speed>
  <fix>3d</fix>
</trkpt>
<trkpt lat="40.0717408" lon="-105.229754">
  <ele>1583.01</ele>
  <time>2026-08-28T17:49:46Z</time>
  <course>85.97</course>
  <speed>2.7971592732627863</speed>
  <fix>3d</fix>
</trkpt>
<trkpt lat="40.0717408" lon="-105.2297583">
  <ele>1583.0</ele>
  <time>2026-08-28T17:49:46Z</time>
  <course>83.95</course>
  <speed>2.64</speed>
  <fix>3d</fix>
</trkpt>
<trkpt lat="40.0717408" lon="-105.2297533">
  <ele>1583.01</ele>
  <time>2026-08-28T17:49:46Z</time>
  <course>86.14</course>
  <speed>2.8164161624305457</speed>
  <fix>3d</fix>
</trkpt>
<trkpt lat="40.071741" lon="-105.2297513">
  <ele>1583.01</ele>
  <time>2026-08-28T17:49:46Z</time>
  <course>86.64</course>
  <speed>2.875030434621519</speed>
  <fix>3d</fix>
</trkpt>
<trkpt lat="40.071741" lon="-105.2297506">
  <ele>1583.01</ele>
  <time>2026-08-28T17:49:46Z</time>
  <course>86.79</course>
  <speed>2.8944256770558128</speed>
  <fix>3d</fix>
</trkpt>
<trkpt lat="40.071741" lon="-105.2297506">
  <ele>1583.01</ele>
  <time>2026-08-28T17:49:46Z</time>
  <course>86.79</course>
  <speed>2.8944256770558128</speed>
  <fix>3d</fix>
</trkpt>
<trkpt lat="40.0717408" lon="-105.2297583">
  <ele>1583.0</ele>
  <time>2026-08-28T17:49:46Z</time>
  <course>83.95</course>
  <speed>2.64</speed>
  <fix>3d</fix>
</trkpt>
<trkpt lat="40.0717411" lon="-105.2297479">
  <ele>1583.02</ele>
  <time>2026-08-28T17:49:46Z</time>
  <course>87.39</course>
  <speed>2.98328677803526</speed>
  <fix>3d</fix>
</trkpt>
<trkpt lat="40.0717412" lon="-105.2297472">
  <ele>1583.02</ele>
  <time>2026-08-28T17:49:46Z</time>
  <course>87.52</course>
  <speed>3.0032648900821255</speed>
  <fix>3d</fix>
</trkpt>
<trkpt lat="40.0717412" lon="-105.2297472">
  <ele>1583.02</ele>
  <time>2026-08-28T17:49:46Z</time>
  <course>87.52</course>
  <speed>3.0032648900821255</speed>
  <fix>3d</fix>
</trkpt>
<trkpt lat="40.0717413" lon="-105.2297518">
  <ele>1583.0</ele>
  <time>2026-08-28T17:49:46Z</time>
  <course>85.74</course>
  <speed>2.85</speed>
  <fix>3d</fix>
</trkpt>
<trkpt lat="40.0717413" lon="-105.229745">
  <ele>1583.02</ele>
  <time>2026-08-28T17:49:46Z</time>
  <course>87.92</course>
  <speed>3.0623520372419626</speed>
  <fix>3d</fix>
</trkpt>
<trkpt lat="40.0717413" lon="-105.2297443">
  <ele>1583.02</ele>
  <time>2026-08-28T17:49:46Z</time>
  <course>88.04</course>
  <speed>3.0819636597468176</speed>
  <fix>3d</fix>
</trkpt>
<trkpt lat="40.0717413" lon="-105.2297436">
  <ele>1583.02</ele>
  <time>2026-08-28T17:49:46Z</time>
  <course>88.16</course>
  <speed>3.1019509989682303</speed>
  <fix>3d</fix>
</trkpt>
<trkpt lat="40.0717413" lon="-105.2297436">
  <ele>1583.02</ele>
  <time>2026-08-28T17:49:46Z</time>
  <course>88.16</course>
  <speed>3.1019509989682303</speed>
  <fix>3d</fix>
</trkpt>
<trkpt lat="40.0717413" lon="-105.2297518">
  <ele>1583.0</ele>
  <time>2026-08-28T17:49:46Z</time>
  <course>85.74</course>
  <speed>2.85</speed>
  <fix>3d</fix>
</trkpt>
<trkpt lat="40.0717414" lon="-105.2297406">
  <ele>1583.02</ele>
  <time>2026-08-28T17:49:46Z</time>
  <course>88.61</course>
  <speed>3.191269339933563</speed>
  <fix>3d</fix>
</trkpt>
<trkpt lat="40.0717415" lon="-105.2297399">
  <ele>1583.02</ele>
  <time>2026-08-28T17:49:46Z</time>
  <course>88.72</course>
  <speed>3.211261434389919</speed>
  <fix>3d</fix>
</trkpt>
<trkpt lat="40.0717415" lon="-105.2297399">
  <ele>1583.02</ele>
  <time>2026-08-28T17:49:46Z</time>
  <course>88.72</course>
  <speed>3.211261434389919</speed>
  <fix>3d</fix>
</trkpt>
<trkpt lat="40.0717416" lon="-105.2297449">
  <ele>1583.0</ele>
  <time>2026-08-28T17:49:46Z</time>
  <course>87.11</course>
  <speed>3.06</speed>
  <fix>3d</fix>
</trkpt>
<trkpt lat="40.0717415" lon="-105.2297368">
  <ele>1583.03</ele>
  <time>2026-08-28T17:49:46Z</time>
  <course>89.11</course>
  <speed>3.2907445965920847</speed>
  <fix>3d</fix>
</trkpt>
<trkpt lat="40.0717416" lon="-105.229736">
  <ele>1583.03</ele>
  <time>2026-08-28T17:49:46Z</time>
  <course>89.2</course>
  <speed>3.3105437619823124</speed>
  <fix>3d</fix>
</trkpt>
<trkpt lat="40.0717416" lon="-105.229736">
  <ele>1583.03</ele>
  <time>2026-08-28T17:49:46Z</time>
  <course>89.2</course>
  <speed>3.3105437619823124</speed>
  <fix>3d</fix>
</trkpt>
<trkpt lat="40.0717416" lon="-105.2297449">
  <ele>1583.0</ele>
  <time>2026-08-28T17:49:46Z</time>
  <course>87.11</course>
  <speed>3.06</speed>
  <fix>3d</fix>
</trkpt>
<trkpt lat="40.0717416" lon="-105.2297329">
  <ele>1583.03</ele>
  <time>2026-08-28T17:49:46Z</time>
  <course>89.54</course>
  <speed>3.390368711512068</speed>
  <fix>3d</fix>
</trkpt>
<trkpt lat="40.0717416" lon="-105.2297321">
  <ele>1583.03</ele>
  <time>2026-08-28T17:49:46Z</time>
  <course>89.62</course>
  <speed>3.4102345960358798</speed>
  <fix>3d</fix>
</trkpt>
<trkpt lat="40.0717416" lon="-105.2297321">
  <ele>1583.03</ele>
  <time>2026-08-28T17:49:46Z</time>
  <course>89.62</course>
  <speed>3.4102345960358798</speed>
  <fix>3d</fix>
</trkpt>
<trkpt lat="40.0717416" lon="-105.2297449">
  <ele>1583.0</ele>
  <time>2026-08-28T17:49:46Z</time>
  <course>87.11</course>
  <speed>3.06</speed>
  <fix>3d</fix>
</trkpt>
<trkpt lat="40.0717417" lon="-105.2297289">
  <ele>1583.03</ele>
  <time>2026-08-28T17:49:46Z</time>
  <course>89.92</course>
  <speed>3.4901289374462943</speed>
  <fix>3d</fix>
</trkpt>
<trkpt lat="40.0717417" lon="-105.2297281">
  <ele>1583.03</ele>
  <time>2026-08-28T17:49:46Z</time>
  <course>89.99</course>
  <speed>3.510056979594491</speed>
  <fix>3d</fix>
</trkpt>
<trkpt lat="40.0717417" lon="-105.2297281">
  <ele>1583.03</ele>
  <time>2026-08-28T17:49:46Z</time>
  <course>89.99</course>
  <speed>3.510056979594491</speed>
  <fix>3d</fix>
</trkpt>
<trkpt lat="40.0717419" lon="-105.2297375">
  <ele>1583.0</ele>
  <time>2026-08-28T17:49:46Z</time>
  <course>88.16</course>
  <speed>3.26</speed>
  <fix>3d</fix>
</trkpt>
<trkpt lat="40.0717418" lon="-105.2297248">
  <ele>1583.03</ele>
  <time>2026-08-28T17:49:46Z</time>
  <course>90.25</course>
  <speed>3.5900139275495855</speed>
  <fix>3d</fix>
</trkpt>
<trkpt lat="40.0717418" lon="-105.2297239">
  <ele>1583.03</ele>
  <time>2026-08-28T17:49:46Z</time>
  <course>90.31</course>
  <speed>3.6100138503889427</speed>
  <fix>3d</fix>
</trkpt>
<trkpt lat="40.0717419" lon="-105.2297375">
  <ele>1583.0</ele>
  <time>2026-08-28T17:49:46Z</time>
  <course>88.16</course>
  <speed>3.26</speed>
  <fix>3d</fix>
</trkpt>
<trkpt lat="40.0717418" lon="-105.2297231">
  <ele>1583.03</ele>
  <time>2026-08-28T17:49:46Z</time>
  <course>90.37</course>
  <speed>3.63</speed>
  <fix>3d</fix>
</trkpt>
<trkpt lat="40.0717418" lon="-105.2297214">
  <ele>1583.03</ele>
  <time>2026-08-28T17:49:46Z</time>
  <course>90.48</course>
  <speed>3.66</speed>
  <fix>3d</fix>
</trkpt>
<trkpt lat="40.0717418" lon="-105.2297197">
  <ele>1583.03</ele>
  <time>2026-08-28T17:49:46Z</time>
  <course>90.59</course>
  <speed>3.7</speed>
  <fix>3d</fix>
</trkpt>
<trkpt lat="40.0717418" lon="-105.2297197">
  <ele>1583.03</ele>
  <time>2026-08-28T17:49:46Z</time>
  <course>90.59</course>
  <speed>3.7</speed>
  <fix>3d</fix>
</trkpt>
<trkpt lat="40.071742" lon="-105.2297296">
  <ele>1583.0</ele>
  <time>2026-08-28T17:49:46Z</time>
  <course>88.97</course>
  <speed>3.46</speed>
  <fix>3d</fix>
</trkpt>
<trkpt lat="40.0717418" lon="-105.2297162">
  <ele>1583.03</ele>
  <time>2026-08-28T17:49:46Z</time>
  <course>90.78</course>
  <speed>3.7800132274900835</speed>
  <fix>3d</fix>
</trkpt>
<trkpt lat="40.0717418" lon="-105.2297153">
  <ele>1583.03</ele>
  <time>2026-08-28T17:49:46Z</time>
  <course>90.83</course>
  <speed>3.8000131578719567</speed>
  <fix>3d</fix>
</trkpt>
<trkpt lat="40.0717418" lon="-105.2297153">
  <ele>1583.03</ele>
  <time>2026-08-28T17:49:46Z</time>
  <course>90.83</course>
  <speed>3.8000131578719567</speed>
  <fix>3d</fix>
</trkpt>
<trkpt lat="40.071742" lon="-105.2297296">
  <ele>1583.0</ele>
  <time>2026-08-28T17:49:46Z</time>
  <course>88.97</course>
  <speed>3.46</speed>
  <fix>3d</fix>
</trkpt>
<trkpt lat="40.0717418" lon="-105.2297144">
  <ele>1583.03</ele>
  <time>2026-08-28T17:49:46Z</time>
  <course>90.87</course>
  <speed>3.8200130889828112</speed>
  <fix>3d</fix>
</trkpt>
<trkpt lat="40.0717418" lon="-105.2297127">
  <ele>1583.03</ele>
  <time>2026-08-28T17:49:46Z</time>
  <course>90.95</course>
  <speed>3.8600518131237567</speed>
  <fix>3d</fix>
</trkpt>
<trkpt lat="40.0717418" lon="-105.2297118">
  <ele>1583.03</ele>
  <time>2026-08-28T17:49:46Z</time>
  <course>90.99</course>
  <speed>3.8800515460493563</speed>
  <fix>3d</fix>
</trkpt>
<trkpt lat="40.0717418" lon="-105.2297109">
  <ele>1583.03</ele>
  <time>2026-08-28T17:49:46Z</time>
  <course>91.03</course>
  <speed>3.9000512817141266</speed>
  <fix>3d</fix>
</trkpt>
<trkpt lat="40.0717421" lon="-105.2297212">
  <ele>1583.0</ele>
  <time>2026-08-28T17:49:46Z</time>
  <course>89.58</course>
  <speed>3.66</speed>
  <fix>3d</fix>
</trkpt>
<trkpt lat="40.0717418" lon="-105.2297099">
  <ele>1583.03</ele>
  <time>2026-08-28T17:49:46Z</time>
  <course>91.07</course>
  <speed>3.920114794237536</speed>
  <fix>3d</fix>
</trkpt>
<trkpt lat="40.0717418" lon="-105.2297072">
  <ele>1583.03</ele>
  <time>2026-08-28T17:49:46Z</time>
  <course>91.18</course>
  <speed>3.980113063720678</speed>
  <fix>3d</fix>
</trkpt>
<trkpt lat="40.0717418" lon="-105.2297063">
  <ele>1583.03</ele>
  <time>2026-08-28T17:49:46Z</time>
  <course>91.22</course>
  <speed>4.00019999500025</speed>
  <fix>3d</fix>
</trkpt>
<trkpt lat="40.0717421" lon="-105.2297123">
  <ele>1583.0</ele>
  <time>2026-08-28T17:49:46Z</time>
  <course>90.05</course>
  <speed>3.86</speed>
  <fix>3d</fix>
</trkpt>
<trkpt lat="40.0717418" lon="-105.2297053">
  <ele>1583.03</ele>
  <time>2026-08-28T17:49:46Z</time>
  <course>91.25</course>
  <speed>4.020199000049624</speed>
  <fix>3d</fix>
</trkpt>
<trkpt lat="40.0717418" lon="-105.2297025">
  <ele>1583.02</ele>
  <time>2026-08-28T17:49:46Z</time>
  <course>91.34</course>
  <speed>4.080196073719987</speed>
  <fix>3d</fix>
</trkpt>
<trkpt lat="40.0717418" lon="-105.2297015">
  <ele>1583.02</ele>
  <time>2026-08-28T17:49:46Z</time>
  <course>91.38</course>
  <speed>4.100304866714182</speed>
  <fix>3d</fix>
</trkpt>
<trkpt lat="40.0717418" lon="-105.2297015">
  <ele>1583.02</ele>
  <time>2026-08-28T17:49:46Z</time>
  <course>91.38</course>
  <speed>4.100304866714182</speed>
  <fix>3d</fix>
</trkpt>
<trkpt lat="40.0717421" lon="-105.2297123">
  <ele>1583.0</ele>
  <time>2026-08-28T17:49:46Z</time>
  <course>90.05</course>
  <speed>3.86</speed>
  <fix>3d</fix>
</trkpt>
<trkpt lat="40.0717419" lon="-105.2296986">
  <ele>1583.02</ele>
  <time>2026-08-28T17:49:46Z</time>
  <course>91.48</course>
  <speed>4.160300469918008</speed>
  <fix>3d</fix>
</trkpt>
<trkpt lat="40.0717419" lon="-105.2296976">
  <ele>1583.02</ele>
  <time>2026-08-28T17:49:46Z</time>
  <course>91.5</course>
  <speed>4.180299032365986</speed>
  <fix>3d</fix>
</trkpt>
<trkpt lat="40.0717419" lon="-105.2296967">
  <ele>1583.02</ele>
  <time>2026-08-28T17:49:46Z</time>
  <course>91.52</course>
  <speed>4.200428549564913</speed>
  <fix>3d</fix>
</trkpt>
<trkpt lat="40.0717419" lon="-105.2296967">
  <ele>1583.02</ele>
  <time>2026-08-28T17:49:46Z</time>
  <course>91.52</course>
  <speed>4.200428549564913</speed>
  <fix>3d</fix>
</trkpt>
<trkpt lat="40.0717421" lon="-105.229703">
  <ele>1583.0</ele>
  <time>2026-08-28T17:49:46Z</time>
  <course>90.4</course>
  <speed>4.06</speed>
  <fix>3d</fix>
</trkpt>
<trkpt lat="40.0717419" lon="-105.2296927">
  <ele>1583.02</ele>
  <time>2026-08-28T17:49:46Z</time>
  <course>91.61</course>
  <speed>4.280420540087153</speed>
  <fix>3d</fix>
</trkpt>
<trkpt lat="40.0717419" lon="-105.2296917">
  <ele>1583.02</ele>
  <time>2026-08-28T17:49:46Z</time>
  <course>91.64</course>
  <speed>4.3004185842775815</speed>
  <fix>3d</fix>
</trkpt>
<trkpt lat="40.0717419" lon="-105.2296917">
  <ele>1583.02</ele>
  <time>2026-08-28T17:49:46Z</time>
  <course>91.64</course>
  <speed>4.3004185842775815</speed>
  <fix>3d</fix>
</trkpt>
<trkpt lat="40.0717421" lon="-105.229703">
  <ele>1583.0</ele>
  <time>2026-08-28T17:49:46Z</time>
  <course>90.4</course>
  <speed>4.06</speed>
  <fix>3d</fix>
</trkpt>
<trkpt lat="40.0717419" lon="-105.2296897">
  <ele>1583.01</ele>
  <time>2026-08-28T17:49:46Z</time>
  <course>91.68</course>
  <speed>4.340564479419698</speed>
  <fix>3d</fix>
</trkpt>
<trkpt lat="40.0717419" lon="-105.2296886">
  <ele>1583.01</ele>
  <time>2026-08-28T17:49:46Z</time>
  <course>91.71</course>
  <speed>4.360561890398989</speed>
  <fix>3d</fix>
</trkpt>
<trkpt lat="40.0717418" lon="-105.2296876">
  <ele>1583.01</ele>
  <time>2026-08-28T17:49:46Z</time>
  <course>91.73</course>
  <speed>4.380559325017754</speed>
  <fix>3d</fix>
</trkpt>
<trkpt lat="40.0717418" lon="-105.2296866">
  <ele>1583.01</ele>
  <time>2026-08-28T17:49:46Z</time>
  <course>91.76</course>
  <speed>4.40055678295372</speed>
  <fix>3d</fix>
</trkpt>
<trkpt lat="40.0717418" lon="-105.2296866">
  <ele>1583.01</ele>
  <time>2026-08-28T17:49:46Z</time>
  <course>91.76</course>
  <speed>4.40055678295372</speed>
  <fix>3d</fix>
</trkpt>
<trkpt lat="40.0717421" lon="-105.2296932">
  <ele>1583.0</ele>
  <time>2026-08-28T17:49:46Z</time>
  <course>90.67</course>
  <speed>4.27</speed>
  <fix>3d</fix>
</trkpt>
<trkpt lat="40.0717418" lon="-105.2296824">
  <ele>1583.01</ele>
  <time>2026-08-28T17:49:46Z</time>
  <course>91.85</course>
  <speed>4.4807142287809425</speed>
  <fix>3d</fix>
</trkpt>
<trkpt lat="40.0717418" lon="-105.2296813">
  <ele>1583.01</ele>
  <time>2026-08-28T17:49:46Z</time>
  <course>91.88</course>
  <speed>4.500711054933431</speed>
  <fix>3d</fix>
</trkpt>
<trkpt lat="40.0717418" lon="-105.2296813">
  <ele>1583.01</ele>
  <time>2026-08-28T17:49:46Z</time>
  <course>91.88</course>
  <speed>4.500711054933431</speed>
  <fix>3d</fix>
</trkpt>
<trkpt lat="40.0717421" lon="-105.2296932">
  <ele>1583.0</ele>
  <time>2026-08-28T17:49:46Z</time>
  <course>90.67</course>
  <speed>4.27</speed>
  <fix>3d</fix>
</trkpt>
<trkpt lat="40.0717417" lon="-105.229677">
  <ele>1583.01</ele>
  <time>2026-08-28T17:49:46Z</time>
  <course>91.93</course>
  <speed>4.580884194126719</speed>
  <fix>3d</fix>
</trkpt>
<trkpt lat="40.0717417" lon="-105.229676">
  <ele>1583.01</ele>
  <time>2026-08-28T17:49:46Z</time>
  <course>91.94</course>
  <speed>4.6008803505416225</speed>
  <fix>3d</fix>
</trkpt>
<trkpt lat="40.0717417" lon="-105.229676">
  <ele>1583.01</ele>
  <time>2026-08-28T17:49:46Z</time>
  <course>91.94</course>
  <speed>4.6008803505416225</speed>
  <fix>3d</fix>
</trkpt>
<trkpt lat="40.071742" lon="-105.229683">
  <ele>1583.0</ele>
  <time>2026-08-28T17:49:46Z</time>
  <course>90.87</course>
  <speed>4.46</speed>
  <fix>3d</fix>
</trkpt>
<trkpt lat="40.0717417" lon="-105.2296715">
  <ele>1583.01</ele>
  <time>2026-08-28T17:49:46Z</time>
  <course>91.99</course>
  <speed>4.680865304620504</speed>
  <fix>3d</fix>
</trkpt>
<trkpt lat="40.0717417" lon="-105.2296704">
  <ele>1583.01</ele>
  <time>2026-08-28T17:49:46Z</time>
  <course>92.01</course>
  <speed>4.700861623149526</speed>
  <fix>3d</fix>
</trkpt>
<trkpt lat="40.071742" lon="-105.229683">
  <ele>1583.0</ele>
  <time>2026-08-28T17:49:46Z</time>
  <course>90.87</course>
  <speed>4.46</speed>
  <fix>3d</fix>
</trkpt>
<trkpt lat="40.0717417" lon="-105.2296693">
  <ele>1583.01</ele>
  <time>2026-08-28T17:49:46Z</time>
  <course>92.02</course>
  <speed>4.720857972868915</speed>
  <fix>3d</fix>
</trkpt>
<trkpt lat="40.0717416" lon="-105.2296671">
  <ele>1583.01</ele>
  <time>2026-08-28T17:49:46Z</time>
  <course>92.05</course>
  <speed>4.761050304292111</speed>
  <fix>3d</fix>
</trkpt>
<trkpt lat="40.0717416" lon="-105.2296648">
  <ele>1583.01</ele>
  <time>2026-08-28T17:49:46Z</time>
  <course>92.07</course>
  <speed>4.801041553663122</speed>
  <fix>3d</fix>
</trkpt>
<trkpt lat="40.0717416" lon="-105.2296648">
  <ele>1583.01</ele>
  <time>2026-08-28T17:49:46Z</time>
  <course>92.07</course>
  <speed>4.801041553663122</speed>
  <fix>3d</fix>
</trkpt>
<trkpt lat="40.0717418" lon="-105.2296722">
  <ele>1583.0</ele>
  <time>2026-08-28T17:49:46Z</time>
  <course>91.03</course>
  <speed>4.66</speed>
  <fix>3d</fix>
</trkpt>
<trkpt lat="40.0717415" lon="-105.2296602">
  <ele>1583.01</ele>
  <time>2026-08-28T17:49:46Z</time>
  <course>92.13</course>
  <speed>4.8810244826265725</speed>
  <fix>3d</fix>
</trkpt>
<trkpt lat="40.0717415" lon="-105.2296591">
  <ele>1583.01</ele>
  <time>2026-08-28T17:49:46Z</time>
  <course>92.14</course>
  <speed>4.901020301937138</speed>
  <fix>3d</fix>
</trkpt>
<trkpt lat="40.0717415" lon="-105.2296591">
  <ele>1583.01</ele>
  <time>2026-08-28T17:49:46Z</time>
  <course>92.14</course>
  <speed>4.901020301937138</speed>
  <fix>3d</fix>
</trkpt>
<trkpt lat="40.0717418" lon="-105.2296722">
  <ele>1583.0</ele>
  <time>2026-08-28T17:49:46Z</time>
  <course>91.03</course>
  <speed>4.66</speed>
  <fix>3d</fix>
</trkpt>
<trkpt lat="40.0717415" lon="-105.2296544">
  <ele>1583.01</ele>
  <time>2026-08-28T17:49:46Z</time>
  <course>92.19</course>
  <speed>4.971217154782116</speed>
  <fix>3d</fix>
</trkpt>
<trkpt lat="40.0717414" lon="-105.2296532">
  <ele>1583.01</ele>
  <time>2026-08-28T17:49:46Z</time>
  <course>92.21</course>
  <speed>4.99121227759349</speed>
  <fix>3d</fix>
</trkpt>
<trkpt lat="40.0717414" lon="-105.2296532">
  <ele>1583.01</ele>
  <time>2026-08-28T17:49:46Z</time>
  <course>92.21</course>
  <speed>4.99121227759349</speed>
  <fix>3d</fix>
</trkpt>
<trkpt lat="40.0717416" lon="-105.229661">
  <ele>1583.0</ele>
  <time>2026-08-28T17:49:46Z</time>
  <course>91.16</course>
  <speed>4.86</speed>
  <fix>3d</fix>
</trkpt>
<trkpt lat="40.0717414" lon="-105.2296485">
  <ele>1583.01</ele>
  <time>2026-08-28T17:49:46Z</time>
  <course>92.26</course>
  <speed>5.051425541369485</speed>
  <fix>3d</fix>
</trkpt>
<trkpt lat="40.0717414" lon="-105.2296473">
  <ele>1583.01</ele>
  <time>2026-08-28T17:49:46Z</time>
  <course>92.28</course>
  <speed>5.071419919509722</speed>
  <fix>3d</fix>
</trkpt>
<trkpt lat="40.0717414" lon="-105.2296473">
  <ele>1583.01</ele>
  <time>2026-08-28T17:49:46Z</time>
  <course>92.28</course>
  <speed>5.071419919509722</speed>
  <fix>3d</fix>
</trkpt>
<trkpt lat="40.0717416" lon="-105.229661">
  <ele>1583.0</ele>
  <time>2026-08-28T17:49:46Z</time>
  <course>91.16</course>
  <speed>4.86</speed>
  <fix>3d</fix>
</trkpt>
<trkpt lat="40.0717413" lon="-105.2296425">
  <ele>1583.01</ele>
  <time>2026-08-28T17:49:46Z</time>
  <course>92.34</course>
  <speed>5.121406056933974</speed>
  <fix>3d</fix>
</trkpt>
<trkpt lat="40.0717413" lon="-105.2296413">
  <ele>1583.01</ele>
  <time>2026-08-28T17:49:46Z</time>
  <course>92.35</course>
  <speed>5.141643706053542</speed>
  <fix>3d</fix>
</trkpt>
<trkpt lat="40.0717415" lon="-105.2296494">
  <ele>1583.0</ele>
  <time>2026-08-28T17:49:46Z</time>
  <course>91.29</course>
  <speed>5.03</speed>
  <fix>3d</fix>
</trkpt>
<trkpt lat="40.0717412" lon="-105.2296401">
  <ele>1583.01</ele>
  <time>2026-08-28T17:49:46Z</time>
  <course>92.36</course>
  <speed>5.15164051540866</speed>
  <fix>3d</fix>
</trkpt>
<trkpt lat="40.0717412" lon="-105.2296364">
  <ele>1583.01</ele>
  <time>2026-08-28T17:49:46Z</time>
  <course>92.37</course>
  <speed>5.181631017353513</speed>
  <fix>3d</fix>
</trkpt>
<trkpt lat="40.0717412" lon="-105.2296352">
  <ele>1583.0</ele>
  <time>2026-08-28T17:49:46Z</time>
  <course>92.38</course>
  <speed>5.19162787572453</speed>
  <fix>3d</fix>
</trkpt>
<trkpt lat="40.0717412" lon="-105.2296352">
  <ele>1583.0</ele>
  <time>2026-08-28T17:49:46Z</time>
  <course>92.38</course>
  <speed>5.19162787572453</speed>
  <fix>3d</fix>
</trkpt>
<trkpt lat="40.0717415" lon="-105.2296494">
  <ele>1583.0</ele>
  <time>2026-08-28T17:49:46Z</time>
  <course>91.29</course>
  <speed>5.03</speed>
  <fix>3d</fix>
</trkpt>
<trkpt lat="40.071741" lon="-105.2296291">
  <ele>1583.0</ele>
  <time>2026-08-28T17:49:46Z</time>
  <course>92.41</course>
  <speed>5.241612347360305</speed>
  <fix>3d</fix>
</trkpt>
<trkpt lat="40.071741" lon="-105.2296291">
  <ele>1583.0</ele>
  <time>2026-08-28T17:49:46Z</time>
  <course>92.41</course>
  <speed>5.241612347360305</speed>
  <fix>3d</fix>
</trkpt>
<trkpt lat="40.0717415" lon="-105.2296494">
  <ele>1583.0</ele>
  <time>2026-08-28T17:49:46Z</time>
  <course>91.29</course>
  <speed>5.03</speed>
  <fix>3d</fix>
</trkpt>
<trkpt lat="40.071741" lon="-105.2296242">
  <ele>1583.0</ele>
  <time>2026-08-28T17:49:46Z</time>
  <course>92.44</course>
  <speed>5.271603171711619</speed>
  <fix>3d</fix>
</trkpt>
<trkpt lat="40.0717409" lon="-105.2296229">
  <ele>1583.0</ele>
  <time>2026-08-28T17:49:46Z</time>
  <course>92.44</course>
  <speed>5.271603171711619</speed>
  <fix>3d</fix>
</trkpt>
<trkpt lat="40.0717409" lon="-105.2296229">
  <ele>1583.0</ele>
  <time>2026-08-28T17:49:46Z</time>
  <course>92.44</course>
  <speed>5.271603171711619</speed>
  <fix>3d</fix>
</trkpt>
<trkpt lat="40.0717413" lon="-105.2296375">
  <ele>1583.0</ele>
  <time>2026-08-28T17:49:46Z</time>
  <course>91.39</course>
  <speed>5.15</speed>
  <fix>3d</fix>
</trkpt>
<trkpt lat="40.0717409" lon="-105.229618">
  <ele>1583.0</ele>
  <time>2026-08-28T17:49:46Z</time>
  <course>92.44</course>
  <speed>5.291597112403777</speed>
  <fix>3d</fix>
</trkpt>
<trkpt lat="40.0717408" lon="-105.2296168">
  <ele>1583.0</ele>
  <time>2026-08-28T17:49:46Z</time>
  <course>92.44</course>
  <speed>5.301594099891089</speed>
  <fix>3d</fix>
</trkpt>
<trkpt lat="40.0717408" lon="-105.2296168">
  <ele>1583.0</ele>
  <time>2026-08-28T17:49:46Z</time>
  <course>92.44</course>
  <speed>5.301594099891089</speed>
  <fix>3d</fix>
</trkpt>
<trkpt lat="40.0717413" lon="-105.2296375">
  <ele>1583.0</ele>
  <time>2026-08-28T17:49:46Z</time>
  <course>91.39</course>
  <speed>5.15</speed>
  <fix>3d</fix>
</trkpt>
<trkpt lat="40.0717407" lon="-105.2296119">
  <ele>1583.0</ele>
  <time>2026-08-28T17:49:46Z</time>
  <course>92.44</course>
  <speed>5.311591098719855</speed>
  <fix>3d</fix>
</trkpt>
<trkpt lat="40.0717407" lon="-105.2296106">
  <ele>1583.0</ele>
  <time>2026-08-28T17:49:46Z</time>
  <course>92.44</course>
  <speed>5.311591098719855</speed>
  <fix>3d</fix>
</trkpt>
<trkpt lat="40.0717407" lon="-105.2296106">
  <ele>1583.0</ele>
  <time>2026-08-28T17:49:46Z</time>
  <course>92.44</course>
  <speed>5.311591098719855</speed>
  <fix>3d</fix>
</trkpt>
<trkpt lat="40.071741" lon="-105.2296252">
  <ele>1583.0</ele>
  <time>2026-08-28T17:49:46Z</time>
  <course>91.43</course>
  <speed>5.23</speed>
  <fix>3d</fix>
</trkpt>
<trkpt lat="40.0717406" lon="-105.2296057">
  <ele>1583.0</ele>
  <time>2026-08-28T17:49:46Z</time>
  <course>92.43</course>
  <speed>5.311591098719855</speed>
  <fix>3d</fix>
</trkpt>
<trkpt lat="40.0717406" lon="-105.2296045">
  <ele>1583.0</ele>
  <time>2026-08-28T17:49:46Z</time>
  <course>92.43</course>
  <speed>5.321588108826161</speed>
  <fix>3d</fix>
</trkpt>
<trkpt lat="40.0717406" lon="-105.2296045">
  <ele>1583.0</ele>
  <time>2026-08-28T17:49:46Z</time>
  <course>92.43</course>
  <speed>5.321588108826161</speed>
  <fix>3d</fix>
</trkpt>
<trkpt lat="40.071741" lon="-105.2296252">
  <ele>1583.0</ele>
  <time>2026-08-28T17:49:46Z</time>
  <course>91.43</course>
  <speed>5.23</speed>
  <fix>3d</fix>
</trkpt>
<trkpt lat="40.0717405" lon="-105.2295996">
  <ele>1583.0</ele>
  <time>2026-08-28T17:49:46Z</time>
  <course>92.43</course>
  <speed>5.321588108826161</speed>
  <fix>3d</fix>
</trkpt>
<trkpt lat="40.0717405" lon="-105.2295983">
  <ele>1582.99</ele>
  <time>2026-08-28T17:49:46Z</time>
  <course>92.43</course>
  <speed>5.311591098719855</speed>
  <fix>3d</fix>
</trkpt>
<trkpt lat="40.0717405" lon="-105.2295983">
  <ele>1582.99</ele>
  <time>2026-08-28T17:49:46Z</time>
  <course>92.43</course>
  <speed>5.311591098719855</speed>
  <fix>3d</fix>
</trkpt>
<trkpt lat="40.0717408" lon="-105.2296128">
  <ele>1583.0</ele>
  <time>2026-08-28T17:49:46Z</time>
  <course>91.44</course>
  <speed>5.28</speed>
  <fix>3d</fix>
</trkpt>
<trkpt lat="40.0717404" lon="-105.2295946">
  <ele>1582.99</ele>
  <time>2026-08-28T17:49:46Z</time>
  <course>92.43</course>
  <speed>5.311591098719855</speed>
  <fix>3d</fix>
</trkpt>
<trkpt lat="40.0717404" lon="-105.2295921">
  <ele>1582.99</ele>
  <time>2026-08-28T17:49:46Z</time>
  <course>92.43</course>
  <speed>5.311591098719855</speed>
  <fix>3d</fix>
</trkpt>
<trkpt lat="40.0717404" lon="-105.2295921">
  <ele>1582.99</ele>
  <time>2026-08-28T17:49:46Z</time>
  <course>92.43</course>
  <speed>5.311591098719855</speed>
  <fix>3d</fix>
</trkpt>
<trkpt lat="40.0717406" lon="-105.2296005">
  <ele>1583.0</ele>
  <time>2026-08-28T17:49:46Z</time>
  <course>91.44</course>
  <speed>5.29</speed>
  <fix>3d</fix>
</trkpt>
<trkpt lat="40.0717403" lon="-105.2295884">
  <ele>1582.99</ele>
  <time>2026-08-28T17:49:46Z</time>
  <course>92.43</course>
  <speed>5.301358316507195</speed>
  <fix>3d</fix>
</trkpt>
<trkpt lat="40.0717403" lon="-105.2295859">
  <ele>1582.99</ele>
  <time>2026-08-28T17:49:46Z</time>
  <course>92.43</course>
  <speed>5.301358316507195</speed>
  <fix>3d</fix>
</trkpt>
<trkpt lat="40.0717403" lon="-105.2295859">
  <ele>1582.99</ele>
  <time>2026-08-28T17:49:46Z</time>
  <course>92.43</course>
  <speed>5.301358316507195</speed>
  <fix>3d</fix>
</trkpt>
<trkpt lat="40.0717406" lon="-105.2296005">
  <ele>1583.0</ele>
  <time>2026-08-28T17:49:46Z</time>
  <course>91.44</course>
  <speed>5.29</speed>
  <fix>3d</fix>
</trkpt>
<trkpt lat="40.0717402" lon="-105.229581">
  <ele>1582.99</ele>
  <time>2026-08-28T17:49:46Z</time>
  <course>92.43</course>
  <speed>5.2913608835534935</speed>
  <fix>3d</fix>
</trkpt>
<trkpt lat="40.0717402" lon="-105.2295797">
  <ele>1582.99</ele>
  <time>2026-08-28T17:49:46Z</time>
  <course>92.44</course>
  <speed>5.2913608835534935</speed>
  <fix>3d</fix>
</trkpt>
<trkpt lat="40.0717402" lon="-105.2295797">
  <ele>1582.99</ele>
  <time>2026-08-28T17:49:46Z</time>
  <course>92.44</course>
  <speed>5.2913608835534935</speed>
  <fix>3d</fix>
</trkpt>
<trkpt lat="40.0717403" lon="-105.2295881">
  <ele>1583.0</ele>
  <time>2026-08-28T17:49:46Z</time>
  <course>91.44</course>
  <speed>5.29</speed>
  <fix>3d</fix>
</trkpt>
<trkpt lat="40.0717401" lon="-105.2295748">
  <ele>1582.98</ele>
  <time>2026-08-28T17:49:46Z</time>
  <course>92.44</course>
  <speed>5.271366046861098</speed>
  <fix>3d</fix>
</trkpt>
<trkpt lat="40.0717401" lon="-105.2295735">
  <ele>1582.98</ele>
  <time>2026-08-28T17:49:46Z</time>
  <course>92.44</course>
  <speed>5.271366046861098</speed>
  <fix>3d</fix>
</trkpt>
<trkpt lat="40.0717401" lon="-105.2295735">
  <ele>1582.98</ele>
  <time>2026-08-28T17:49:46Z</time>
  <course>92.44</course>
  <speed>5.271366046861098</speed>
  <fix>3d</fix>
</trkpt>
<trkpt lat="40.0717403" lon="-105.2295881">
  <ele>1583.0</ele>
  <time>2026-08-28T17:49:46Z</time>
  <course>91.44</course>
  <speed>5.29</speed>
  <fix>3d</fix>
</trkpt>
<trkpt lat="40.07174" lon="-105.2295686">
  <ele>1582.98</ele>
  <time>2026-08-28T17:49:46Z</time>
  <course>92.44</course>
  <speed>5.261368643233432</speed>
  <fix>3d</fix>
</trkpt>
<trkpt lat="40.07174" lon="-105.2295674">
  <ele>1582.98</ele>
  <time>2026-08-28T17:49:46Z</time>
  <course>92.44</course>
  <speed>5.25137124949284</speed>
  <fix>3d</fix>
</trkpt>
<trkpt lat="40.0717401" lon="-105.2295757">
  <ele>1583.0</ele>
  <time>2026-08-28T17:49:46Z</time>
  <course>91.44</course>
  <speed>5.26</speed>
  <fix>3d</fix>
</trkpt>
<trkpt lat="40.0717399" lon="-105.2295662">
  <ele>1582.98</ele>
  <time>2026-08-28T17:49:46Z</time>
  <course>92.44</course>
  <speed>5.25137124949284</speed>
  <fix>3d</fix>
</trkpt>
<trkpt lat="40.0717399" lon="-105.2295625">
  <ele>1582.98</ele>
  <time>2026-08-28T17:49:46Z</time>
  <course>92.44</course>
  <speed>5.241373865695902</speed>
  <fix>3d</fix>
</trkpt>
<trkpt lat="40.0717399" lon="-105.2295612">
  <ele>1582.98</ele>
  <time>2026-08-28T17:49:46Z</time>
  <course>92.45</course>
  <speed>5.2313764918996215</speed>
  <fix>3d</fix>
</trkpt>
<trkpt lat="40.0717399" lon="-105.2295612">
  <ele>1582.98</ele>
  <time>2026-08-28T17:49:46Z</time>
  <course>92.45</course>
  <speed>5.2313764918996215</speed>
  <fix>3d</fix>
</trkpt>
<trkpt lat="40.0717401" lon="-105.2295757">
  <ele>1583.0</ele>
  <time>2026-08-28T17:49:46Z</time>
  <course>91.44</course>
  <speed>5.26</speed>
  <fix>3d</fix>
</trkpt>
<trkpt lat="40.0717398" lon="-105.2295588">
  <ele>1582.98</ele>
  <time>2026-08-28T17:49:46Z</time>
  <course>92.45</course>
  <speed>5.2213791281614474</speed>
  <fix>3d</fix>
</trkpt>
<trkpt lat="40.0717398" lon="-105.2295576">
  <ele>1582.98</ele>
  <time>2026-08-28T17:49:46Z</time>
  <course>92.45</course>
  <speed>5.2213791281614474</speed>
  <fix>3d</fix>
</trkpt>
<trkpt lat="40.0717398" lon="-105.2295563">
  <ele>1582.98</ele>
  <time>2026-08-28T17:49:46Z</time>
  <course>92.45</course>
  <speed>5.211381774539263</speed>
  <fix>3d</fix>
</trkpt>
<trkpt lat="40.0717398" lon="-105.2295551">
  <ele>1582.98</ele>
  <time>2026-08-28T17:49:46Z</time>
  <course>92.45</course>
  <speed>5.21116109902582</speed>
  <fix>3d</fix>
</trkpt>
<trkpt lat="40.0717398" lon="-105.2295551">
  <ele>1582.98</ele>
  <time>2026-08-28T17:49:46Z</time>
  <course>92.45</course>
  <speed>5.21116109902582</speed>
  <fix>3d</fix>
</trkpt>
<trkpt lat="40.0717399" lon="-105.2295633">
  <ele>1583.0</ele>
  <time>2026-08-28T17:49:46Z</time>
  <course>91.44</course>
  <speed>5.23</speed>
  <fix>3d</fix>
</trkpt>
<trkpt lat="40.0717397" lon="-105.2295502">
  <ele>1582.98</ele>
  <time>2026-08-28T17:49:46Z</time>
  <course>92.45</course>
  <speed>5.191165572393159</speed>
  <fix>3d</fix>
</trkpt>
<trkpt lat="40.0717397" lon="-105.229549">
  <ele>1582.97</ele>
  <time>2026-08-28T17:49:46Z</time>
  <course>92.45</course>
  <speed>5.191165572393159</speed>
  <fix>3d</fix>
</trkpt>
<trkpt lat="40.0717397" lon="-105.229549">
  <ele>1582.97</ele>
  <time>2026-08-28T17:49:46Z</time>
  <course>92.45</course>
  <speed>5.191165572393159</speed>
  <fix>3d</fix>
</trkpt>
<trkpt lat="40.0717399" lon="-105.2295633">
  <ele>1583.0</ele>
  <time>2026-08-28T17:49:46Z</time>
  <course>91.44</course>
  <speed>5.23</speed>
  <fix>3d</fix>
</trkpt>
<trkpt lat="40.0717396" lon="-105.2295441">
  <ele>1582.97</ele>
  <time>2026-08-28T17:49:46Z</time>
  <course>92.45</course>
  <speed>5.17117008035899</speed>
  <fix>3d</fix>
</trkpt>
<trkpt lat="40.0717395" lon="-105.2295428">
  <ele>1582.97</ele>
  <time>2026-08-28T17:49:46Z</time>
  <course>92.45</course>
  <speed>5.161172347442004</speed>
  <fix>3d</fix>
</trkpt>
<trkpt lat="40.0717395" lon="-105.2295428">
  <ele>1582.97</ele>
  <time>2026-08-28T17:49:46Z</time>
  <course>92.45</course>
  <speed>5.161172347442004</speed>
  <fix>3d</fix>
</trkpt>
<trkpt lat="40.0717396" lon="-105.2295511">
  <ele>1583.0</ele>
  <time>2026-08-28T17:49:46Z</time>
  <course>91.44</course>
  <speed>5.18</speed>
  <fix>3d</fix>
</trkpt>
<trkpt lat="40.0717395" lon="-105.229538">
  <ele>1582.97</ele>
  <time>2026-08-28T17:49:46Z</time>
  <course>92.46</course>
  <speed>5.1411769080629774</speed>
  <fix>3d</fix>
</trkpt>
<trkpt lat="40.0717394" lon="-105.2295368">
  <ele>1582.97</ele>
  <time>2026-08-28T17:49:46Z</time>
  <course>92.46</course>
  <speed>5.1411769080629774</speed>
  <fix>3d</fix>
</trkpt>
<trkpt lat="40.0717396" lon="-105.2295511">
  <ele>1583.0</ele>
  <time>2026-08-28T17:49:46Z</time>
  <course>91.44</course>
  <speed>5.18</speed>
  <fix>3d</fix>
</trkpt>
<trkpt lat="40.0717394" lon="-105.2295332">
  <ele>1582.97</ele>
  <time>2026-08-28T17:49:46Z</time>
  <course>92.46</course>
  <speed>5.13117920170403</speed>
  <fix>3d</fix>
</trkpt>
<trkpt lat="40.0717393" lon="-105.2295307">
  <ele>1582.97</ele>
  <time>2026-08-28T17:49:46Z</time>
  <course>92.46</course>
  <speed>5.121181504301522</speed>
  <fix>3d</fix>
</trkpt>
<trkpt lat="40.0717393" lon="-105.2295307">
  <ele>1582.97</ele>
  <time>2026-08-28T17:49:46Z</time>
  <course>92.46</course>
  <speed>5.121181504301522</speed>
  <fix>3d</fix>
</trkpt>
<trkpt lat="40.0717394" lon="-105.229539">
  <ele>1583.0</ele>
  <time>2026-08-28T17:49:46Z</time>
  <course>91.44</course>
  <speed>5.14</speed>
  <fix>3d</fix>
</trkpt>
<trkpt lat="40.0717392" lon="-105.2295247">
  <ele>1582.97</ele>
  <time>2026-08-28T17:49:46Z</time>
  <course>92.46</course>
  <speed>5.091188466360286</speed>
  <fix>3d</fix>
</trkpt>
<trkpt lat="40.0717394" lon="-105.229539">
  <ele>1583.0</ele>
  <time>2026-08-28T17:49:46Z</time>
  <course>91.44</course>
  <speed>5.14</speed>
  <fix>3d</fix>
</trkpt>
<trkpt lat="40.0717392" lon="-105.2295235">
  <ele>1582.97</ele>
  <time>2026-08-28T17:49:46Z</time>
  <course>92.46</course>
  <speed>5.091188466360286</speed>
  <fix>3d</fix>
</trkpt>
<trkpt lat="40.0717391" lon="-105.22952">
  <ele>1582.97</ele>
  <time>2026-08-28T17:49:46Z</time>
  <course>92.46</course>
  <speed>5.081190805313258</speed>
  <fix>3d</fix>
</trkpt>
<trkpt lat="40.0717391" lon="-105.2295188">
  <ele>1582.97</ele>
  <time>2026-08-28T17:49:46Z</time>
  <course>92.46</course>
  <speed>5.07119315348962</speed>
  <fix>3d</fix>
</trkpt>
<trkpt lat="40.0717391" lon="-105.2295188">
  <ele>1582.97</ele>
  <time>2026-08-28T17:49:46Z</time>
  <course>92.46</course>
  <speed>5.07119315348962</speed>
  <fix>3d</fix>
</trkpt>
<trkpt lat="40.0717391" lon="-105.2295269">
  <ele>1583.0</ele>
  <time>2026-08-28T17:49:46Z</time>
  <course>91.44</course>
  <speed>5.1</speed>
  <fix>3d</fix>
</trkpt>
<trkpt lat="40.071739" lon="-105.229514">
  <ele>1582.97</ele>
  <time>2026-08-28T17:49:46Z</time>
  <course>92.47</course>
  <speed>5.051197877731578</speed>
  <fix>3d</fix>
</trkpt>
<trkpt lat="40.071739" lon="-105.2295128">
  <ele>1582.97</ele>
  <time>2026-08-28T17:49:46Z</time>
  <course>92.47</course>
  <speed>5.051197877731578</speed>
  <fix>3d</fix>
</trkpt>
<trkpt lat="40.0717391" lon="-105.2295269">
  <ele>1583.0</ele>
  <time>2026-08-28T17:49:46Z</time>
  <course>91.44</course>
  <speed>5.1</speed>
  <fix>3d</fix>
</trkpt>
<trkpt lat="40.071739" lon="-105.2295116">
  <ele>1582.97</ele>
  <time>2026-08-28T17:49:46Z</time>
  <course>92.47</course>
  <speed>5.051197877731578</speed>
  <fix>3d</fix>
</trkpt>
<trkpt lat="40.0717389" lon="-105.2295081">
  <ele>1582.97</ele>
  <time>2026-08-28T17:49:46Z</time>
  <course>92.47</course>
  <speed>5.031202639528645</speed>
  <fix>3d</fix>
</trkpt>
<trkpt lat="40.0717389" lon="-105.2295069">
  <ele>1582.97</ele>
  <time>2026-08-28T17:49:46Z</time>
  <course>92.47</course>
  <speed>5.031202639528645</speed>
  <fix>3d</fix>
</trkpt>
<trkpt lat="40.0717391" lon="-105.2295269">
  <ele>1583.0</ele>
  <time>2026-08-28T17:49:46Z</time>
  <course>91.44</course>
  <speed>5.1</speed>
  <fix>3d</fix>
</trkpt>
<trkpt lat="40.0717389" lon="-105.2295057">
  <ele>1582.97</ele>
  <time>2026-08-28T17:49:46Z</time>
  <course>92.47</course>
  <speed>5.021205034650547</speed>
  <fix>3d</fix>
</trkpt>
<trkpt lat="40.0717388" lon="-105.2295022">
  <ele>1582.98</ele>
  <time>2026-08-28T17:49:46Z</time>
  <course>92.47</course>
  <speed>5.011207439330366</speed>
  <fix>3d</fix>
</trkpt>
<trkpt lat="40.0717388" lon="-105.229501">
  <ele>1582.98</ele>
  <time>2026-08-28T17:49:46Z</time>
  <course>92.47</course>
  <speed>5.00120985362542</speed>
  <fix>3d</fix>
</trkpt>
<trkpt lat="40.0717389" lon="-105.229515">
  <ele>1583.0</ele>
  <time>2026-08-28T17:49:46Z</time>
  <course>91.44</course>
  <speed>5.05</speed>
  <fix>3d</fix>
</trkpt>
<trkpt lat="40.0717388" lon="-105.2294999">
  <ele>1582.98</ele>
  <time>2026-08-28T17:49:46Z</time>
  <course>92.47</course>
  <speed>4.99121227759349</speed>
  <fix>3d</fix>
</trkpt>
<trkpt lat="40.0717387" lon="-105.2294964">
  <ele>1582.98</ele>
  <time>2026-08-28T17:49:46Z</time>
  <course>92.47</course>
  <speed>4.981214711292819</speed>
  <fix>3d</fix>
</trkpt>
<trkpt lat="40.0717387" lon="-105.2294952">
  <ele>1582.98</ele>
  <time>2026-08-28T17:49:46Z</time>
  <course>92.47</course>
  <speed>4.971217154782116</speed>
  <fix>3d</fix>
</trkpt>
<trkpt lat="40.0717387" lon="-105.2294952">
  <ele>1582.98</ele>
  <time>2026-08-28T17:49:46Z</time>
  <course>92.47</course>
  <speed>4.971217154782116</speed>
  <fix>3d</fix>
</trkpt>
<trkpt lat="40.0717389" lon="-105.229515">
  <ele>1583.0</ele>
  <time>2026-08-28T17:49:46Z</time>
  <course>91.44</course>
  <speed>5.05</speed>
  <fix>3d</fix>
</trkpt>
<trkpt lat="40.0717386" lon="-105.2294906">
  <ele>1582.98</ele>
  <time>2026-08-28T17:49:46Z</time>
  <course>92.47</course>
  <speed>4.941012042082067</speed>
  <fix>3d</fix>
</trkpt>
<trkpt lat="40.0717386" lon="-105.2294895">
  <ele>1582.98</ele>
  <time>2026-08-28T17:49:46Z</time>
  <course>92.47</course>
  <speed>4.931014094484014</speed>
  <fix>3d</fix>
</trkpt>
<trkpt lat="40.0717386" lon="-105.2294895">
  <ele>1582.98</ele>
  <time>2026-08-28T17:49:46Z</time>
  <course>92.47</course>
  <speed>4.931014094484014</speed>
  <fix>3d</fix>
</trkpt>
<trkpt lat="40.0717387" lon="-105.2295032">
  <ele>1583.0</ele>
  <time>2026-08-28T17:49:46Z</time>
  <course>91.44</course>
  <speed>5.01</speed>
  <fix>3d</fix>
</trkpt>
<trkpt lat="40.0717385" lon="-105.2294849">
  <ele>1582.99</ele>
  <time>2026-08-28T17:49:46Z</time>
  <course>92.47</course>
  <speed>4.901020301937138</speed>
  <fix>3d</fix>
</trkpt>
<trkpt lat="40.0717385" lon="-105.2294838">
  <ele>1582.99</ele>
  <time>2026-08-28T17:49:46Z</time>
  <course>92.47</course>
  <speed>4.891022388008462</speed>
  <fix>3d</fix>
</trkpt>
<trkpt lat="40.0717385" lon="-105.2294838">
  <ele>1582.99</ele>
  <time>2026-08-28T17:49:46Z</time>
  <course>92.47</course>
  <speed>4.891022388008462</speed>
  <fix>3d</fix>
</trkpt>
<trkpt lat="40.0717387" lon="-105.2295032">
  <ele>1583.0</ele>
  <time>2026-08-28T17:49:46Z</time>
  <course>91.44</course>
  <speed>5.01</speed>
  <fix>3d</fix>
</trkpt>
<trkpt lat="40.0717384" lon="-105.2294792">
  <ele>1582.99</ele>
  <time>2026-08-28T17:49:46Z</time>
  <course>92.47</course>
  <speed>4.8610286977140955</speed>
  <fix>3d</fix>
</trkpt>
<trkpt lat="40.0717383" lon="-105.2294781">
  <ele>1582.99</ele>
  <time>2026-08-28T17:49:46Z</time>
  <course>92.47</course>
  <speed>4.851030818290067</speed>
  <fix>3d</fix>
</trkpt>
<trkpt lat="40.0717383" lon="-105.2294781">
  <ele>1582.99</ele>
  <time>2026-08-28T17:49:46Z</time>
  <course>92.47</course>
  <speed>4.851030818290067</speed>
  <fix>3d</fix>
</trkpt>
<trkpt lat="40.0717384" lon="-105.2294915">
  <ele>1583.0</ele>
  <time>2026-08-28T17:49:46Z</time>
  <course>91.44</course>
  <speed>4.95</speed>
  <fix>3d</fix>
</trkpt>
<trkpt lat="40.0717383" lon="-105.2294736">
  <ele>1582.99</ele>
  <time>2026-08-28T17:49:46Z</time>
  <course>92.47</course>
  <speed>4.811039388739195</speed>
  <fix>3d</fix>
</trkpt>
<trkpt lat="40.0717382" lon="-105.2294725">
  <ele>1582.99</ele>
  <time>2026-08-28T17:49:46Z</time>
  <course>92.47</course>
  <speed>4.801041553663122</speed>
  <fix>3d</fix>
</trkpt>
<trkpt lat="40.0717384" lon="-105.2294915">
  <ele>1583.0</ele>
  <time>2026-08-28T17:49:46Z</time>
  <course>91.44</course>
  <speed>4.95</speed>
  <fix>3d</fix>
</trkpt>
<trkpt lat="40.0717382" lon="-105.2294714">
  <ele>1582.99</ele>
  <time>2026-08-28T17:49:46Z</time>
  <course>92.47</course>
  <speed>4.79104372762345</speed>
  <fix>3d</fix>
</trkpt>
<trkpt lat="40.0717382" lon="-105.229468">
  <ele>1582.99</ele>
  <time>2026-08-28T17:49:46Z</time>
  <course>92.47</course>
  <speed>4.761050304292111</speed>
  <fix>3d</fix>
</trkpt>
<trkpt lat="40.0717381" lon="-105.2294669">
  <ele>1582.99</ele>
  <time>2026-08-28T17:49:46Z</time>
  <course>92.47</course>
  <speed>4.751052514969709</speed>
  <fix>3d</fix>
</trkpt>
<trkpt lat="40.0717381" lon="-105.2294669">
  <ele>1582.99</ele>
  <time>2026-08-28T17:49:46Z</time>
  <course>92.47</course>
  <speed>4.751052514969709</speed>
  <fix>3d</fix>
</trkpt>
<trkpt lat="40.0717383" lon="-105.22948">
  <ele>1583.0</ele>
  <time>2026-08-28T17:49:46Z</time>
  <course>91.44</course>
  <speed>4.87</speed>
  <fix>3d</fix>
</trkpt>
<trkpt lat="40.071738" lon="-105.2294625">
  <ele>1582.99</ele>
  <time>2026-08-28T17:49:46Z</time>
  <course>92.47</course>
  <speed>4.701063709417263</speed>
  <fix>3d</fix>
</trkpt>
<trkpt lat="40.071738" lon="-105.2294614">
  <ele>1582.99</ele>
  <time>2026-08-28T17:49:46Z</time>
  <course>92.47</course>
  <speed>4.69106597693957</speed>
  <fix>3d</fix>
</trkpt>
<trkpt lat="40.071738" lon="-105.2294614">
  <ele>1582.99</ele>
  <time>2026-08-28T17:49:46Z</time>
  <course>92.47</course>
  <speed>4.69106597693957</speed>
  <fix>3d</fix>
</trkpt>
<trkpt lat="40.071738" lon="-105.2294686">
  <ele>1583.0</ele>
  <time>2026-08-28T17:49:46Z</time>
  <course>91.44</course>
  <speed>4.78</speed>
  <fix>3d</fix>
</trkpt>
<trkpt lat="40.0717379" lon="-105.229457">
  <ele>1582.99</ele>
  <time>2026-08-28T17:49:46Z</time>
  <course>92.47</course>
  <speed>4.641077461107496</speed>
  <fix>3d</fix>
</trkpt>
<trkpt lat="40.0717379" lon="-105.2294559">
  <ele>1582.99</ele>
  <time>2026-08-28T17:49:46Z</time>
  <course>92.47</course>
  <speed>4.631079787695306</speed>
  <fix>3d</fix>
</trkpt>
<trkpt lat="40.0717379" lon="-105.2294559">
  <ele>1582.99</ele>
  <time>2026-08-28T17:49:46Z</time>
  <course>92.47</course>
  <speed>4.631079787695306</speed>
  <fix>3d</fix>
</trkpt>
<trkpt lat="40.071738" lon="-105.2294686">
  <ele>1583.0</ele>
  <time>2026-08-28T17:49:46Z</time>
  <course>91.44</course>
  <speed>4.78</speed>
  <fix>3d</fix>
</trkpt>
<trkpt lat="40.0717378" lon="-105.2294516">
  <ele>1583.0</ele>
  <time>2026-08-28T17:49:46Z</time>
  <course>92.48</course>
  <speed>4.571093960968206</speed>
  <fix>3d</fix>
</trkpt>
<trkpt lat="40.0717378" lon="-105.2294506">
  <ele>1583.0</ele>
  <time>2026-08-28T17:49:46Z</time>
  <course>92.48</course>
  <speed>4.561096359429386</speed>
  <fix>3d</fix>
</trkpt>
<trkpt lat="40.0717378" lon="-105.2294506">
  <ele>1583.0</ele>
  <time>2026-08-28T17:49:46Z</time>
  <course>92.48</course>
  <speed>4.561096359429386</speed>
  <fix>3d</fix>
</trkpt>
<trkpt lat="40.0717377" lon="-105.2294575">
  <ele>1583.0</ele>
  <time>2026-08-28T17:49:46Z</time>
  <course>91.45</course>
  <speed>4.66</speed>
  <fix>3d</fix>
</trkpt>
<trkpt lat="40.0717377" lon="-105.2294463">
  <ele>1583.0</ele>
  <time>2026-08-28T17:49:46Z</time>
  <course>92.48</course>
  <speed>4.50111097397076</speed>
  <fix>3d</fix>
</trkpt>
<trkpt lat="40.0717377" lon="-105.2294452">
  <ele>1583.0</ele>
  <time>2026-08-28T17:49:46Z</time>
  <course>92.5</course>
  <speed>4.491113447687556</speed>
  <fix>3d</fix>
</trkpt>
<trkpt lat="40.0717377" lon="-105.2294452">
  <ele>1583.0</ele>
  <time>2026-08-28T17:49:46Z</time>
  <course>92.5</course>
  <speed>4.491113447687556</speed>
  <fix>3d</fix>
</trkpt>
<trkpt lat="40.0717377" lon="-105.2294575">
  <ele>1583.0</ele>
  <time>2026-08-28T17:49:46Z</time>
  <course>91.45</course>
  <speed>4.66</speed>
  <fix>3d</fix>
</trkpt>
<trkpt lat="40.0717376" lon="-105.229441">
  <ele>1583.0</ele>
  <time>2026-08-28T17:49:46Z</time>
  <course>92.51</course>
  <speed>4.43112852442806</speed>
  <fix>3d</fix>
</trkpt>
<trkpt lat="40.0717376" lon="-105.22944">
  <ele>1583.0</ele>
  <time>2026-08-28T17:49:46Z</time>
  <course>92.51</course>
  <speed>4.411133641140336</speed>
  <fix>3d</fix>
</trkpt>
<trkpt lat="40.0717376" lon="-105.22944">
  <ele>1583.0</ele>
  <time>2026-08-28T17:49:46Z</time>
  <course>92.51</course>
  <speed>4.411133641140336</speed>
  <fix>3d</fix>
</trkpt>
<trkpt lat="40.0717376" lon="-105.2294467">
  <ele>1583.0</ele>
  <time>2026-08-28T17:49:46Z</time>
  <course>91.47</course>
  <speed>4.53</speed>
  <fix>3d</fix>
</trkpt>
<trkpt lat="40.0717375" lon="-105.2294358">
  <ele>1583.0</ele>
  <time>2026-08-28T17:49:46Z</time>
  <course>92.54</course>
  <speed>4.351149273467873</speed>
  <fix>3d</fix>
</trkpt>
<trkpt lat="40.0717375" lon="-105.2294348">
  <ele>1583.0</ele>
  <time>2026-08-28T17:49:46Z</time>
  <course>92.55</course>
  <speed>4.331154580478512</speed>
  <fix>3d</fix>
</trkpt>
<trkpt lat="40.0717376" lon="-105.2294467">
  <ele>1583.0</ele>
  <time>2026-08-28T17:49:46Z</time>
  <course>91.47</course>
  <speed>4.53</speed>
  <fix>3d</fix>
</trkpt>
<trkpt lat="40.0717375" lon="-105.2294338">
  <ele>1583.0</ele>
  <time>2026-08-28T17:49:46Z</time>
  <course>92.55</course>
  <speed>4.311159936722366</speed>
  <fix>3d</fix>
</trkpt>
<trkpt lat="40.0717374" lon="-105.2294307">
  <ele>1583.0</ele>
  <time>2026-08-28T17:49:46Z</time>
  <course>92.55</course>
  <speed>4.260950598164687</speed>
  <fix>3d</fix>
</trkpt>
<trkpt lat="40.0717374" lon="-105.2294297">
  <ele>1583.0</ele>
  <time>2026-08-28T17:49:46Z</time>
  <course>92.55</course>
  <speed>4.240955081110857</speed>
  <fix>3d</fix>
</trkpt>
<trkpt lat="40.0717374" lon="-105.2294297">
  <ele>1583.0</ele>
  <time>2026-08-28T17:49:46Z</time>
  <course>92.55</course>
  <speed>4.240955081110857</speed>
  <fix>3d</fix>
</trkpt>
<trkpt lat="40.0717373" lon="-105.2294363">
  <ele>1583.0</ele>
  <time>2026-08-28T17:49:46Z</time>
  <course>91.5</course>
  <speed>4.37</speed>
  <fix>3d</fix>
</trkpt>
<trkpt lat="40.0717373" lon="-105.2294247">
  <ele>1583.0</ele>
  <time>2026-08-28T17:49:46Z</time>
  <course>92.58</course>
  <speed>4.150975788895908</speed>
  <fix>3d</fix>
</trkpt>
<trkpt lat="40.0717373" lon="-105.2294247">
  <ele>1583.0</ele>
  <time>2026-08-28T17:49:46Z</time>
  <course>92.58</course>
  <speed>4.150975788895908</speed>
  <fix>3d</fix>
</trkpt>
<trkpt lat="40.0717373" lon="-105.2294363">
  <ele>1583.0</ele>
  <time>2026-08-28T17:49:46Z</time>
  <course>91.5</course>
  <speed>4.37</speed>
  <fix>3d</fix>
</trkpt>
<trkpt lat="40.0717372" lon="-105.2294208">
  <ele>1583.01</ele>
  <time>2026-08-28T17:49:46Z</time>
  <course>92.6</course>
  <speed>4.0809925263347395</speed>
  <fix>3d</fix>
</trkpt>
<trkpt lat="40.0717372" lon="-105.2294199">
  <ele>1583.0</ele>
  <time>2026-08-28T17:49:46Z</time>
  <course>92.6</course>
  <speed>4.060997414429121</speed>
  <fix>3d</fix>
</trkpt>
<trkpt lat="40.0717372" lon="-105.2294199">
  <ele>1583.0</ele>
  <time>2026-08-28T17:49:46Z</time>
  <course>92.6</course>
  <speed>4.060997414429121</speed>
  <fix>3d</fix>
</trkpt>
<trkpt lat="40.0717372" lon="-105.2294262">
  <ele>1583.0</ele>
  <time>2026-08-28T17:49:46Z</time>
  <course>91.54</course>
  <speed>4.2</speed>
  <fix>3d</fix>
</trkpt>
<trkpt lat="40.0717372" lon="-105.2294189">
  <ele>1583.0</ele>
  <time>2026-08-28T17:49:46Z</time>
  <course>92.6</course>
  <speed>4.041002350902558</speed>
  <fix>3d</fix>
</trkpt>
<trkpt lat="40.0717371" lon="-105.2294179">
  <ele>1583.0</ele>
  <time>2026-08-28T17:49:46Z</time>
  <course>92.6</course>
  <speed>4.021007336476769</speed>
  <fix>3d</fix>
</trkpt>
<trkpt lat="40.0717371" lon="-105.229417">
  <ele>1583.0</ele>
  <time>2026-08-28T17:49:46Z</time>
  <course>92.61</course>
  <speed>4.001012371887895</speed>
  <fix>3d</fix>
</trkpt>
<trkpt lat="40.0717371" lon="-105.229416">
  <ele>1583.0</ele>
  <time>2026-08-28T17:49:46Z</time>
  <course>92.62</course>
  <speed>3.9810174578868653</speed>
  <fix>3d</fix>
</trkpt>
<trkpt lat="40.0717371" lon="-105.2294151">
  <ele>1583.0</ele>
  <time>2026-08-28T17:49:46Z</time>
  <course>92.63</course>
  <speed>3.9610225952397697</speed>
  <fix>3d</fix>
</trkpt>
<trkpt lat="40.0717371" lon="-105.2294151">
  <ele>1583.0</ele>
  <time>2026-08-28T17:49:46Z</time>
  <course>92.63</course>
  <speed>3.9610225952397697</speed>
  <fix>3d</fix>
</trkpt>
<trkpt lat="40.0717372" lon="-105.2294262">
  <ele>1583.0</ele>
  <time>2026-08-28T17:49:46Z</time>
  <course>91.54</course>
  <speed>4.2</speed>
  <fix>3d</fix>
</trkpt>
<trkpt lat="40.071737" lon="-105.2294114">
  <ele>1583.0</ele>
  <time>2026-08-28T17:49:46Z</time>
  <course>92.64</course>
  <speed>3.881043674065006</speed>
  <fix>3d</fix>
</trkpt>
<trkpt lat="40.071737" lon="-105.2294105">
  <ele>1583.0</ele>
  <time>2026-08-28T17:49:46Z</time>
  <course>92.65</course>
  <speed>3.8610490802371316</speed>
  <fix>3d</fix>
</trkpt>
<trkpt lat="40.071737" lon="-105.2294105">
  <ele>1583.0</ele>
  <time>2026-08-28T17:49:46Z</time>
  <course>92.65</course>
  <speed>3.8610490802371316</speed>
  <fix>3d</fix>
</trkpt>
<trkpt lat="40.071737" lon="-105.2294166">
  <ele>1583.0</ele>
  <time>2026-08-28T17:49:46Z</time>
  <course>91.58</course>
  <speed>4.01</speed>
  <fix>3d</fix>
</trkpt>
<trkpt lat="40.0717369" lon="-105.2294069">
  <ele>1583.0</ele>
  <time>2026-08-28T17:49:46Z</time>
  <course>92.67</course>
  <speed>3.781071276768001</speed>
  <fix>3d</fix>
</trkpt>
<trkpt lat="40.0717369" lon="-105.229406">
  <ele>1583.0</ele>
  <time>2026-08-28T17:49:46Z</time>
  <course>92.67</course>
  <speed>3.7610769734213094</speed>
  <fix>3d</fix>
</trkpt>
<trkpt lat="40.0717369" lon="-105.229406">
  <ele>1583.0</ele>
  <time>2026-08-28T17:49:46Z</time>
  <course>92.67</course>
  <speed>3.7610769734213094</speed>
  <fix>3d</fix>
</trkpt>
<trkpt lat="40.071737" lon="-105.2294166">
  <ele>1583.0</ele>
  <time>2026-08-28T17:49:46Z</time>
  <course>91.58</course>
  <speed>4.01</speed>
  <fix>3d</fix>
</trkpt>
<trkpt lat="40.0717368" lon="-105.2294025">
  <ele>1583.01</ele>
  <time>2026-08-28T17:49:46Z</time>
  <course>92.7</course>
  <speed>3.671103376370652</speed>
  <fix>3d</fix>
</trkpt>
<trkpt lat="40.0717368" lon="-105.2294016">
  <ele>1583.01</ele>
  <time>2026-08-28T17:49:46Z</time>
  <course>92.7</course>
  <speed>3.6511094204364785</speed>
  <fix>3d</fix>
</trkpt>
<trkpt lat="40.0717367" lon="-105.2294074">
  <ele>1583.0</ele>
  <time>2026-08-28T17:49:46Z</time>
  <course>91.63</course>
  <speed>3.81</speed>
  <fix>3d</fix>
</trkpt>
<trkpt lat="40.0717368" lon="-105.2294007">
  <ele>1583.01</ele>
  <time>2026-08-28T17:49:46Z</time>
  <course>92.7</course>
  <speed>3.6311155310730614</speed>
  <fix>3d</fix>
</trkpt>
<trkpt lat="40.0717367" lon="-105.2293982">
  <ele>1583.01</ele>
  <time>2026-08-28T17:49:46Z</time>
  <course>92.73</course>
  <speed>3.571134273588715</speed>
  <fix>3d</fix>
</trkpt>
<trkpt lat="40.0717367" lon="-105.2293973">
  <ele>1583.01</ele>
  <time>2026-08-28T17:49:46Z</time>
  <course>92.74</course>
  <speed>3.5511406618155807</speed>
  <fix>3d</fix>
</trkpt>
<trkpt lat="40.0717367" lon="-105.2293973">
  <ele>1583.01</ele>
  <time>2026-08-28T17:49:46Z</time>
  <course>92.74</course>
  <speed>3.5511406618155807</speed>
  <fix>3d</fix>
</trkpt>
<trkpt lat="40.0717367" lon="-105.2294074">
  <ele>1583.0</ele>
  <time>2026-08-28T17:49:46Z</time>
  <course>91.63</course>
  <speed>3.81</speed>
  <fix>3d</fix>
</trkpt>
<trkpt lat="40.0717366" lon="-105.229394">
  <ele>1583.01</ele>
  <time>2026-08-28T17:49:46Z</time>
  <course>92.74</course>
  <speed>3.4611703223042922</speed>
  <fix>3d</fix>
</trkpt>
<trkpt lat="40.0717366" lon="-105.2293932">
  <ele>1583.01</ele>
  <time>2026-08-28T17:49:46Z</time>
  <course>92.75</course>
  <speed>3.4411771241829445</speed>
  <fix>3d</fix>
</trkpt>
<trkpt lat="40.0717366" lon="-105.2293932">
  <ele>1583.01</ele>
  <time>2026-08-28T17:49:46Z</time>
  <course>92.75</course>
  <speed>3.4411771241829445</speed>
  <fix>3d</fix>
</trkpt>
<trkpt lat="40.0717367" lon="-105.2294074">
  <ele>1583.0</ele>
  <time>2026-08-28T17:49:46Z</time>
  <course>91.63</course>
  <speed>3.81</speed>
  <fix>3d</fix>
</trkpt>
<trkpt lat="40.0717365" lon="-105.22939">
  <ele>1583.01</ele>
  <time>2026-08-28T17:49:46Z</time>
  <course>92.79</course>
  <speed>3.351208737157386</speed>
  <fix>3d</fix>
</trkpt>
<trkpt lat="40.0717365" lon="-105.2293892">
  <ele>1583.01</ele>
  <time>2026-08-28T17:49:46Z</time>
  <course>92.79</course>
  <speed>3.330960822345409</speed>
  <fix>3d</fix>
</trkpt>
<trkpt lat="40.0717365" lon="-105.2293892">
  <ele>1583.01</ele>
  <time>2026-08-28T17:49:46Z</time>
  <course>92.79</course>
  <speed>3.330960822345409</speed>
  <fix>3d</fix>
</trkpt>
<trkpt lat="40.0717365" lon="-105.2293986">
  <ele>1583.0</ele>
  <time>2026-08-28T17:49:46Z</time>
  <course>91.68</course>
  <speed>3.6</speed>
  <fix>3d</fix>
</trkpt>
<trkpt lat="40.0717364" lon="-105.2293861">
  <ele>1583.02</ele>
  <time>2026-08-28T17:49:46Z</time>
  <course>92.8</course>
  <speed>3.2409875038327436</speed>
  <fix>3d</fix>
</trkpt>
<trkpt lat="40.0717364" lon="-105.2293854">
  <ele>1583.02</ele>
  <time>2026-08-28T17:49:46Z</time>
  <course>92.81</course>
  <speed>3.220993635510632</speed>
  <fix>3d</fix>
</trkpt>
<trkpt lat="40.0717365" lon="-105.2293986">
  <ele>1583.0</ele>
  <time>2026-08-28T17:49:46Z</time>
  <course>91.68</course>
  <speed>3.6</speed>
  <fix>3d</fix>
</trkpt>
<trkpt lat="40.0717364" lon="-105.2293846">
  <ele>1583.02</ele>
  <time>2026-08-28T17:49:46Z</time>
  <course>92.82</course>
  <speed>3.200999843798809</speed>
  <fix>3d</fix>
</trkpt>
<trkpt lat="40.0717363" lon="-105.2293824">
  <ele>1583.02</ele>
  <time>2026-08-28T17:49:46Z</time>
  <course>92.83</course>
  <speed>3.1310221973023444</speed>
  <fix>3d</fix>
</trkpt>
<trkpt lat="40.0717363" lon="-105.2293817">
  <ele>1583.02</ele>
  <time>2026-08-28T17:49:46Z</time>
  <course>92.83</course>
  <speed>3.1110287687515847</speed>
  <fix>3d</fix>
</trkpt>
<trkpt lat="40.0717363" lon="-105.2293817">
  <ele>1583.02</ele>
  <time>2026-08-28T17:49:46Z</time>
  <course>92.83</course>
  <speed>3.1110287687515847</speed>
  <fix>3d</fix>
</trkpt>
<trkpt lat="40.0717364" lon="-105.2293904">
  <ele>1583.0</ele>
  <time>2026-08-28T17:49:46Z</time>
  <course>91.73</course>
  <speed>3.38</speed>
  <fix>3d</fix>
</trkpt>
<trkpt lat="40.0717362" lon="-105.2293788">
  <ele>1583.02</ele>
  <time>2026-08-28T17:49:46Z</time>
  <course>92.86</course>
  <speed>3.0210594168271503</speed>
  <fix>3d</fix>
</trkpt>
<trkpt lat="40.0717362" lon="-105.2293781">
  <ele>1583.02</ele>
  <time>2026-08-28T17:49:46Z</time>
  <course>92.87</course>
  <speed>3.001066477104431</speed>
  <fix>3d</fix>
</trkpt>
<trkpt lat="40.0717362" lon="-105.2293781">
  <ele>1583.02</ele>
  <time>2026-08-28T17:49:46Z</time>
  <course>92.87</course>
  <speed>3.001066477104431</speed>
  <fix>3d</fix>
</trkpt>
<trkpt lat="40.0717364" lon="-105.2293904">
  <ele>1583.0</ele>
  <time>2026-08-28T17:49:46Z</time>
  <course>91.73</course>
  <speed>3.38</speed>
  <fix>3d</fix>
</trkpt>
<trkpt lat="40.0717362" lon="-105.2293753">
  <ele>1583.02</ele>
  <time>2026-08-28T17:49:46Z</time>
  <course>92.88</course>
  <speed>2.9110994486619655</speed>
  <fix>3d</fix>
</trkpt>
<trkpt lat="40.0717361" lon="-105.2293747">
  <ele>1583.02</ele>
  <time>2026-08-28T17:49:46Z</time>
  <course>92.89</course>
  <speed>2.89110705439975</speed>
  <fix>3d</fix>
</trkpt>
<trkpt lat="40.0717361" lon="-105.2293747">
  <ele>1583.02</ele>
  <time>2026-08-28T17:49:46Z</time>
  <course>92.89</course>
  <speed>2.89110705439975</speed>
  <fix>3d</fix>
</trkpt>
<trkpt lat="40.0717362" lon="-105.2293827">
  <ele>1583.0</ele>
  <time>2026-08-28T17:49:46Z</time>
  <course>91.79</course>
  <speed>3.17</speed>
  <fix>3d</fix>
</trkpt>
<trkpt lat="40.0717361" lon="-105.229372">
  <ele>1583.01</ele>
  <time>2026-08-28T17:49:46Z</time>
  <course>92.92</course>
  <speed>2.8011426240018555</speed>
  <fix>3d</fix>
</trkpt>
<trkpt lat="40.071736" lon="-105.2293713">
  <ele>1583.01</ele>
  <time>2026-08-28T17:49:46Z</time>
  <course>92.93</course>
  <speed>2.781150840928985</speed>
  <fix>3d</fix>
</trkpt>
<trkpt lat="40.071736" lon="-105.2293755">
  <ele>1583.0</ele>
  <time>2026-08-28T17:49:46Z</time>
  <course>91.85</course>
  <speed>2.96</speed>
  <fix>3d</fix>
</trkpt>
<trkpt lat="40.071736" lon="-105.2293706">
  <ele>1583.01</ele>
  <time>2026-08-28T17:49:46Z</time>
  <course>92.93</course>
  <speed>2.761159176867571</speed>
  <fix>3d</fix>
</trkpt>
<trkpt lat="40.071736" lon="-105.2293687">
  <ele>1583.01</ele>
  <time>2026-08-28T17:49:46Z</time>
  <course>92.95</course>
  <speed>2.701184925176357</speed>
  <fix>3d</fix>
</trkpt>
<trkpt lat="40.071736" lon="-105.2293681">
  <ele>1583.01</ele>
  <time>2026-08-28T17:49:46Z</time>
  <course>92.96</course>
  <speed>2.6811937639790226</speed>
  <fix>3d</fix>
</trkpt>
<trkpt lat="40.071736" lon="-105.2293755">
  <ele>1583.0</ele>
  <time>2026-08-28T17:49:46Z</time>
  <course>91.85</course>
  <speed>2.96</speed>
  <fix>3d</fix>
</trkpt>
<trkpt lat="40.0717359" lon="-105.2293674">
  <ele>1583.01</ele>
  <time>2026-08-28T17:49:46Z</time>
  <course>92.96</course>
  <speed>2.651207272168662</speed>
  <fix>3d</fix>
</trkpt>
<trkpt lat="40.0717359" lon="-105.2293668">
  <ele>1583.01</ele>
  <time>2026-08-28T17:49:46Z</time>
  <course>92.97</course>
  <speed>2.631216448717209</speed>
  <fix>3d</fix>
</trkpt>
<trkpt lat="40.0717359" lon="-105.2293656">
  <ele>1583.01</ele>
  <time>2026-08-28T17:49:46Z</time>
  <course>92.99</course>
  <speed>2.5909457732650445</speed>
  <fix>3d</fix>
</trkpt>
<trkpt lat="40.0717359" lon="-105.229365">
  <ele>1583.01</ele>
  <time>2026-08-28T17:49:46Z</time>
  <course>92.99</course>
  <speed>2.5709531306501874</speed>
  <fix>3d</fix>
</trkpt>
<trkpt lat="40.0717359" lon="-105.229365">
  <ele>1583.01</ele>
  <time>2026-08-28T17:49:46Z</time>
  <course>92.99</course>
  <speed>2.5709531306501874</speed>
  <fix>3d</fix>
</trkpt>
<trkpt lat="40.0717359" lon="-105.2293688">
  <ele>1583.0</ele>
  <time>2026-08-28T17:49:46Z</time>
  <course>91.91</course>
  <speed>2.75</speed>
  <fix>3d</fix>
</trkpt>
<trkpt lat="40.0717358" lon="-105.2293632">
  <ele>1583.01</ele>
  <time>2026-08-28T17:49:46Z</time>
  <course>93.02</course>
  <speed>2.510975905897944</speed>
  <fix>3d</fix>
</trkpt>
<trkpt lat="40.0717358" lon="-105.2293626">
  <ele>1583.01</ele>
  <time>2026-08-28T17:49:46Z</time>
  <course>93.02</course>
  <speed>2.49098374141623</speed>
  <fix>3d</fix>
</trkpt>
<trkpt lat="40.0717358" lon="-105.229362">
  <ele>1583.01</ele>
  <time>2026-08-28T17:49:46Z</time>
  <course>93.03</course>
  <speed>2.4709917037497315</speed>
  <fix>3d</fix>
</trkpt>
<trkpt lat="40.0717358" lon="-105.229362">
  <ele>1583.01</ele>
  <time>2026-08-28T17:49:46Z</time>
  <course>93.03</course>
  <speed>2.4709917037497315</speed>
  <fix>3d</fix>
</trkpt>
<trkpt lat="40.0717359" lon="-105.2293688">
  <ele>1583.0</ele>
  <time>2026-08-28T17:49:46Z</time>
  <course>91.91</course>
  <speed>2.75</speed>
  <fix>3d</fix>
</trkpt>
<trkpt lat="40.0717357" lon="-105.2293597">
  <ele>1583.01</ele>
  <time>2026-08-28T17:49:46Z</time>
  <course>93.06</course>
  <speed>2.381029189237293</speed>
  <fix>3d</fix>
</trkpt>
<trkpt lat="40.0717357" lon="-105.2293591">
  <ele>1583.01</ele>
  <time>2026-08-28T17:49:46Z</time>
  <course>93.07</course>
  <speed>2.3610379073619296</speed>
  <fix>3d</fix>
</trkpt>
<trkpt lat="40.0717357" lon="-105.2293591">
  <ele>1583.01</ele>
  <time>2026-08-28T17:49:46Z</time>
  <course>93.07</course>
  <speed>2.3610379073619296</speed>
  <fix>3d</fix>
</trkpt>
<trkpt lat="40.0717357" lon="-105.2293626">
  <ele>1583.0</ele>
  <time>2026-08-28T17:49:46Z</time>
  <course>91.98</course>
  <speed>2.54</speed>
  <fix>3d</fix>
</trkpt>
<trkpt lat="40.0717357" lon="-105.2293569">
  <ele>1583.0</ele>
  <time>2026-08-28T17:49:46Z</time>
  <course>93.1</course>
  <speed>2.281074308302998</speed>
  <fix>3d</fix>
</trkpt>
<trkpt lat="40.0717356" lon="-105.2293564">
  <ele>1583.0</ele>
  <time>2026-08-28T17:49:46Z</time>
  <course>93.1</course>
  <speed>2.261083810919003</speed>
  <fix>3d</fix>
</trkpt>
<trkpt lat="40.0717356" lon="-105.2293564">
  <ele>1583.0</ele>
  <time>2026-08-28T17:49:46Z</time>
  <course>93.1</course>
  <speed>2.261083810919003</speed>
  <fix>3d</fix>
</trkpt>
<trkpt lat="40.0717357" lon="-105.2293626">
  <ele>1583.0</ele>
  <time>2026-08-28T17:49:46Z</time>
  <course>91.98</course>
  <speed>2.54</speed>
  <fix>3d</fix>
</trkpt>
<trkpt lat="40.0717356" lon="-105.2293548">
  <ele>1583.0</ele>
  <time>2026-08-28T17:49:46Z</time>
  <course>93.12</course>
  <speed>2.20111335464578</speed>
  <fix>3d</fix>
</trkpt>
<trkpt lat="40.0717356" lon="-105.2293542">
  <ele>1583.0</ele>
  <time>2026-08-28T17:49:46Z</time>
  <course>93.13</course>
  <speed>2.1811235636707975</speed>
  <fix>3d</fix>
</trkpt>
<trkpt lat="40.0717356" lon="-105.2293537">
  <ele>1583.0</ele>
  <time>2026-08-28T17:49:46Z</time>
  <course>93.14</course>
  <speed>2.1611339616044165</speed>
  <fix>3d</fix>
</trkpt>
<trkpt lat="40.0717356" lon="-105.2293537">
  <ele>1583.0</ele>
  <time>2026-08-28T17:49:46Z</time>
  <course>93.14</course>
  <speed>2.1611339616044165</speed>
  <fix>3d</fix>
</trkpt>
<trkpt lat="40.0717355" lon="-105.2293569">
  <ele>1583.0</ele>
  <time>2026-08-28T17:49:46Z</time>
  <course>92.04</course>
  <speed>2.33</speed>
  <fix>3d</fix>
</trkpt>
<trkpt lat="40.0717355" lon="-105.2293522">
  <ele>1583.0</ele>
  <time>2026-08-28T17:49:46Z</time>
  <course>93.15</course>
  <speed>2.1011663427725087</speed>
  <fix>3d</fix>
</trkpt>
<trkpt lat="40.0717355" lon="-105.2293517">
  <ele>1583.0</ele>
  <time>2026-08-28T17:49:46Z</time>
  <course>93.16</course>
  <speed>2.081177551291576</speed>
  <fix>3d</fix>
</trkpt>
<trkpt lat="40.0717355" lon="-105.2293512">
  <ele>1583.0</ele>
  <time>2026-08-28T17:49:46Z</time>
  <course>93.17</course>
  <speed>2.0611889772653065</speed>
  <fix>3d</fix>
</trkpt>
<trkpt lat="40.0717355" lon="-105.2293512">
  <ele>1583.0</ele>
  <time>2026-08-28T17:49:46Z</time>
  <course>93.17</course>
  <speed>2.0611889772653065</speed>
  <fix>3d</fix>
</trkpt>
<trkpt lat="40.0717355" lon="-105.2293569">
  <ele>1583.0</ele>
  <time>2026-08-28T17:49:46Z</time>
  <course>92.04</course>
  <speed>2.33</speed>
  <fix>3d</fix>
</trkpt>
<trkpt lat="40.0717354" lon="-105.2293492">
  <ele>1583.0</ele>
  <time>2026-08-28T17:49:46Z</time>
  <course>93.19</course>
  <speed>1.9812369873389704</speed>
  <fix>3d</fix>
</trkpt>
<trkpt lat="40.0717354" lon="-105.2293488">
  <ele>1583.0</ele>
  <time>2026-08-28T17:49:46Z</time>
  <course>93.2</course>
  <speed>1.9609181522949906</speed>
  <fix>3d</fix>
</trkpt>
<trkpt lat="40.0717354" lon="-105.2293488">
  <ele>1583.0</ele>
  <time>2026-08-28T17:49:46Z</time>
  <course>93.2</course>
  <speed>1.9609181522949906</speed>
  <fix>3d</fix>
</trkpt>
<trkpt lat="40.0717354" lon="-105.2293517">
  <ele>1583.0</ele>
  <time>2026-08-28T17:49:46Z</time>
  <course>92.1</course>
  <speed>2.13</speed>
  <fix>3d</fix>
</trkpt>
<trkpt lat="40.0717354" lon="-105.2293474">
  <ele>1582.99</ele>
  <time>2026-08-28T17:49:46Z</time>
  <course>93.22</course>
  <speed>1.9009471323527123</speed>
  <fix>3d</fix>
</trkpt>
<trkpt lat="40.0717353" lon="-105.2293465">
  <ele>1582.99</ele>
  <time>2026-08-28T17:49:46Z</time>
  <course>93.23</course>
  <speed>1.8609674903124989</speed>
  <fix>3d</fix>
</trkpt>
<trkpt lat="40.0717353" lon="-105.2293465">
  <ele>1582.99</ele>
  <time>2026-08-28T17:49:46Z</time>
  <course>93.23</course>
  <speed>1.8609674903124989</speed>
  <fix>3d</fix>
</trkpt>
<trkpt lat="40.0717354" lon="-105.2293517">
  <ele>1583.0</ele>
  <time>2026-08-28T17:49:46Z</time>
  <course>92.1</course>
  <speed>2.13</speed>
  <fix>3d</fix>
</trkpt>
<trkpt lat="40.0717353" lon="-105.2293447">
  <ele>1582.99</ele>
  <time>2026-08-28T17:49:46Z</time>
  <course>93.25</course>
  <speed>1.7810109488714547</speed>
  <fix>3d</fix>
</trkpt>
<trkpt lat="40.0717353" lon="-105.2293443">
  <ele>1582.99</ele>
  <time>2026-08-28T17:49:46Z</time>
  <course>93.26</course>
  <speed>1.7610224302944013</speed>
  <fix>3d</fix>
</trkpt>
<trkpt lat="40.0717353" lon="-105.2293443">
  <ele>1582.99</ele>
  <time>2026-08-28T17:49:46Z</time>
  <course>93.26</course>
  <speed>1.7610224302944013</speed>
  <fix>3d</fix>
</trkpt>
<trkpt lat="40.0717353" lon="-105.2293469">
  <ele>1583.0</ele>
  <time>2026-08-28T17:49:46Z</time>
  <course>92.16</course>
  <speed>1.93</speed>
  <fix>3d</fix>
</trkpt>
<trkpt lat="40.0717352" lon="-105.2293426">
  <ele>1582.99</ele>
  <time>2026-08-28T17:49:46Z</time>
  <course>93.3</course>
  <speed>1.681071087134628</speed>
  <fix>3d</fix>
</trkpt>
<trkpt lat="40.0717352" lon="-105.2293422">
  <ele>1582.99</ele>
  <time>2026-08-28T17:49:46Z</time>
  <course>93.31</course>
  <speed>1.6610839834276894</speed>
  <fix>3d</fix>
</trkpt>
<trkpt lat="40.0717352" lon="-105.2293422">
  <ele>1582.99</ele>
  <time>2026-08-28T17:49:46Z</time>
  <course>93.31</course>
  <speed>1.6610839834276894</speed>
  <fix>3d</fix>
</trkpt>
<trkpt lat="40.0717353" lon="-105.2293469">
  <ele>1583.0</ele>
  <time>2026-08-28T17:49:46Z</time>
  <course>92.16</course>
  <speed>1.93</speed>
  <fix>3d</fix>
</trkpt>
<trkpt lat="40.0717352" lon="-105.2293407">
  <ele>1582.99</ele>
  <time>2026-08-28T17:49:46Z</time>
  <course>93.35</course>
  <speed>1.5811388300841898</speed>
  <fix>3d</fix>
</trkpt>
<trkpt lat="40.0717351" lon="-105.2293403">
  <ele>1582.99</ele>
  <time>2026-08-28T17:49:46Z</time>
  <course>93.36</course>
  <speed>1.5611534197509223</speed>
  <fix>3d</fix>
</trkpt>
<trkpt lat="40.0717351" lon="-105.2293403">
  <ele>1582.99</ele>
  <time>2026-08-28T17:49:46Z</time>
  <course>93.36</course>
  <speed>1.5611534197509223</speed>
  <fix>3d</fix>
</trkpt>
<trkpt lat="40.0717351" lon="-105.2293426">
  <ele>1583.0</ele>
  <time>2026-08-28T17:49:46Z</time>
  <course>92.24</course>
  <speed>1.74</speed>
  <fix>3d</fix>
</trkpt>
<trkpt lat="40.0717351" lon="-105.2293392">
  <ele>1582.99</ele>
  <time>2026-08-28T17:49:46Z</time>
  <course>93.39</course>
  <speed>1.5111915828246265</speed>
  <fix>3d</fix>
</trkpt>
<trkpt lat="40.0717351" lon="-105.2293388">
  <ele>1582.98</ele>
  <time>2026-08-28T17:49:46Z</time>
  <course>93.4</course>
  <speed>1.4912075643584968</speed>
  <fix>3d</fix>
</trkpt>
<trkpt lat="40.0717351" lon="-105.2293385">
  <ele>1582.98</ele>
  <time>2026-08-28T17:49:46Z</time>
  <course>93.41</course>
  <speed>1.4712239802287073</speed>
  <fix>3d</fix>
</trkpt>
<trkpt lat="40.0717351" lon="-105.2293385">
  <ele>1582.98</ele>
  <time>2026-08-28T17:49:46Z</time>
  <course>93.41</course>
  <speed>1.4712239802287073</speed>
  <fix>3d</fix>
</trkpt>
<trkpt lat="40.0717351" lon="-105.2293426">
  <ele>1583.0</ele>
  <time>2026-08-28T17:49:46Z</time>
  <course>92.24</course>
  <speed>1.74</speed>
  <fix>3d</fix>
</trkpt>
<trkpt lat="40.071735" lon="-105.2293371">
  <ele>1582.99</ele>
  <time>2026-08-28T17:49:46Z</time>
  <course>93.47</course>
  <speed>1.391294361377203</speed>
  <fix>3d</fix>
</trkpt>
<trkpt lat="40.071735" lon="-105.2293368">
  <ele>1582.99</ele>
  <time>2026-08-28T17:49:46Z</time>
  <course>93.48</course>
  <speed>1.3713132391981053</speed>
  <fix>3d</fix>
</trkpt>
<trkpt lat="40.071735" lon="-105.2293368">
  <ele>1582.99</ele>
  <time>2026-08-28T17:49:46Z</time>
  <course>93.48</course>
  <speed>1.3713132391981053</speed>
  <fix>3d</fix>
</trkpt>
<trkpt lat="40.0717351" lon="-105.2293426">
  <ele>1583.0</ele>
  <time>2026-08-28T17:49:46Z</time>
  <course>92.24</course>
  <speed>1.74</speed>
  <fix>3d</fix>
</trkpt>
<trkpt lat="40.071735" lon="-105.2293364">
  <ele>1582.99</ele>
  <time>2026-08-28T17:49:46Z</time>
  <course>93.49</course>
  <speed>1.351332675546625</speed>
  <fix>3d</fix>
</trkpt>
<trkpt lat="40.071735" lon="-105.2293361">
  <ele>1582.99</ele>
  <time>2026-08-28T17:49:46Z</time>
  <course>93.5</course>
  <speed>1.3309395177843357</speed>
  <fix>3d</fix>
</trkpt>
<trkpt lat="40.071735" lon="-105.2293358">
  <ele>1582.99</ele>
  <time>2026-08-28T17:49:46Z</time>
  <course>93.52</course>
  <speed>1.3109538512091108</speed>
  <fix>3d</fix>
</trkpt>
<trkpt lat="40.071735" lon="-105.2293355">
  <ele>1582.99</ele>
  <time>2026-08-28T17:49:46Z</time>
  <course>93.54</course>
  <speed>1.2909686285886268</speed>
  <fix>3d</fix>
</trkpt>
<trkpt lat="40.071735" lon="-105.2293352">
  <ele>1582.99</ele>
  <time>2026-08-28T17:49:46Z</time>
  <course>93.55</course>
  <speed>1.2809761902549164</speed>
  <fix>3d</fix>
</trkpt>
<trkpt lat="40.071735" lon="-105.2293352">
  <ele>1582.99</ele>
  <time>2026-08-28T17:49:46Z</time>
  <course>93.55</course>
  <speed>1.2809761902549164</speed>
  <fix>3d</fix>
</trkpt>
<trkpt lat="40.071735" lon="-105.2293387">
  <ele>1583.0</ele>
  <time>2026-08-28T17:49:46Z</time>
  <course>92.34</course>
  <speed>1.55</speed>
  <fix>3d</fix>
</trkpt>
<trkpt lat="40.0717349" lon="-105.229334">
  <ele>1582.99</ele>
  <time>2026-08-28T17:49:46Z</time>
  <course>93.62</course>
  <speed>1.2010412149464313</speed>
  <fix>3d</fix>
</trkpt>
<trkpt lat="40.0717349" lon="-105.2293337">
  <ele>1582.99</ele>
  <time>2026-08-28T17:49:46Z</time>
  <course>93.63</course>
  <speed>1.181058846967415</speed>
  <fix>3d</fix>
</trkpt>
<trkpt lat="40.0717349" lon="-105.2293337">
  <ele>1582.99</ele>
  <time>2026-08-28T17:49:46Z</time>
  <course>93.63</course>
  <speed>1.181058846967415</speed>
  <fix>3d</fix>
</trkpt>
<trkpt lat="40.071735" lon="-105.2293387">
  <ele>1583.0</ele>
  <time>2026-08-28T17:49:46Z</time>
  <course>92.34</course>
  <speed>1.55</speed>
  <fix>3d</fix>
</trkpt>
<trkpt lat="40.0717349" lon="-105.2293329">
  <ele>1582.98</ele>
  <time>2026-08-28T17:49:46Z</time>
  <course>93.69</course>
  <speed>1.1211155159036914</speed>
  <fix>3d</fix>
</trkpt>
<trkpt lat="40.0717349" lon="-105.2293326">
  <ele>1582.98</ele>
  <time>2026-08-28T17:49:46Z</time>
  <course>93.71</course>
  <speed>1.101135777277262</speed>
  <fix>3d</fix>
</trkpt>
<trkpt lat="40.0717349" lon="-105.2293323">
  <ele>1582.98</ele>
  <time>2026-08-28T17:49:46Z</time>
  <course>93.74</course>
  <speed>1.0811567878897121</speed>
  <fix>3d</fix>
</trkpt>
<trkpt lat="40.0717349" lon="-105.2293323">
  <ele>1582.98</ele>
  <time>2026-08-28T17:49:46Z</time>
  <course>93.74</course>
  <speed>1.0811567878897121</speed>
  <fix>3d</fix>
</trkpt>
<trkpt lat="40.0717349" lon="-105.2293353">
  <ele>1583.0</ele>
  <time>2026-08-28T17:49:46Z</time>
  <course>92.47</course>
  <speed>1.35</speed>
  <fix>3d</fix>
</trkpt>
<trkpt lat="40.0717348" lon="-105.2293313">
  <ele>1582.99</ele>
  <time>2026-08-28T17:49:46Z</time>
  <course>93.83</course>
  <speed>1.0012492197250393</speed>
  <fix>3d</fix>
</trkpt>
<trkpt lat="40.0717348" lon="-105.2293311">
  <ele>1582.99</ele>
  <time>2026-08-28T17:49:46Z</time>
  <course>93.86</course>
  <speed>0.9912618221237011</speed>
  <fix>3d</fix>
</trkpt>
<trkpt lat="40.0717348" lon="-105.2293311">
  <ele>1582.99</ele>
  <time>2026-08-28T17:49:46Z</time>
  <course>93.86</course>
  <speed>0.9912618221237011</speed>
  <fix>3d</fix>
</trkpt>
<trkpt lat="40.0717349" lon="-105.2293353">
  <ele>1583.0</ele>
  <time>2026-08-28T17:49:46Z</time>
  <course>92.47</course>
  <speed>1.35</speed>
  <fix>3d</fix>
</trkpt>
<trkpt lat="40.0717347" lon="-105.2293299">
  <ele>1582.99</ele>
  <time>2026-08-28T17:49:46Z</time>
  <course>93.99</course>
  <speed>0.891403387922662</speed>
  <fix>3d</fix>
</trkpt>
<trkpt lat="40.0717348" lon="-105.2293323">
  <ele>1583.0</ele>
  <time>2026-08-28T17:49:46Z</time>
  <course>92.65</course>
  <speed>1.16</speed>
  <fix>3d</fix>
</trkpt>
<trkpt lat="40.0717347" lon="-105.2293289">
  <ele>1582.99</ele>
  <time>2026-08-28T17:49:46Z</time>
  <course>94.11</course>
  <speed>0.791580697086532</speed>
  <fix>3d</fix>
</trkpt>
<trkpt lat="40.0717348" lon="-105.2293323">
  <ele>1583.0</ele>
  <time>2026-08-28T17:49:46Z</time>
  <course>92.65</course>
  <speed>1.16</speed>
  <fix>3d</fix>
</trkpt>
<trkpt lat="40.0717347" lon="-105.229328">
  <ele>1582.99</ele>
  <time>2026-08-28T17:49:46Z</time>
  <course>94.2</course>
  <speed>0.7011419257183242</speed>
  <fix>3d</fix>
</trkpt>
<trkpt lat="40.0717347" lon="-105.2293298">
  <ele>1583.0</ele>
  <time>2026-08-28T17:49:46Z</time>
  <course>92.88</course>
  <speed>0.97</speed>
  <fix>3d</fix>
</trkpt>
<trkpt lat="40.0717346" lon="-105.2293273">
  <ele>1582.99</ele>
  <time>2026-08-28T17:49:46Z</time>
  <course>94.25</course>
  <speed>0.6212889826803627</speed>
  <fix>3d</fix>
</trkpt>
<trkpt lat="40.0717346" lon="-105.2293272">
  <ele>1582.99</ele>
  <time>2026-08-28T17:49:46Z</time>
  <course>94.26</course>
  <speed>0.6013318551349163</speed>
  <fix>3d</fix>
</trkpt>
<trkpt lat="40.0717346" lon="-105.2293272">
  <ele>1582.99</ele>
  <time>2026-08-28T17:49:46Z</time>
  <course>94.26</course>
  <speed>0.6013318551349163</speed>
  <fix>3d</fix>
</trkpt>
<trkpt lat="40.0717346" lon="-105.2293277">
  <ele>1583.0</ele>
  <time>2026-08-28T17:49:46Z</time>
  <course>93.07</course>
  <speed>0.78</speed>
  <fix>3d</fix>
</trkpt>
<trkpt lat="40.0717346" lon="-105.2293268">
  <ele>1582.99</ele>
  <time>2026-08-28T17:49:46Z</time>
  <course>94.28</course>
  <speed>0.5714017850864661</speed>
  <fix>3d</fix>
</trkpt>
<trkpt lat="40.0717346" lon="-105.2293267">
  <ele>1583.0</ele>
  <time>2026-08-28T17:49:46Z</time>
  <course>94.3</course>
  <speed>0.5514526271584895</speed>
  <fix>3d</fix>
</trkpt>
<trkpt lat="40.0717346" lon="-105.2293266">
  <ele>1583.0</ele>
  <time>2026-08-28T17:49:46Z</time>
  <course>94.31</course>
  <speed>0.5315072906367324</speed>
  <fix>3d</fix>
</trkpt>
<trkpt lat="40.0717346" lon="-105.2293264">
  <ele>1583.0</ele>
  <time>2026-08-28T17:49:46Z</time>
  <course>94.33</course>
  <speed>0.521536192416212</speed>
  <fix>3d</fix>
</trkpt>
<trkpt lat="40.0717346" lon="-105.2293264">
  <ele>1583.0</ele>
  <time>2026-08-28T17:49:46Z</time>
  <course>94.33</course>
  <speed>0.521536192416212</speed>
  <fix>3d</fix>
</trkpt>
<trkpt lat="40.0717346" lon="-105.2293277">
  <ele>1583.0</ele>
  <time>2026-08-28T17:49:46Z</time>
  <course>93.07</course>
  <speed>0.78</speed>
  <fix>3d</fix>
</trkpt>
<trkpt lat="40.0717346" lon="-105.2293261">
  <ele>1583.0</ele>
  <time>2026-08-28T17:49:46Z</time>
  <course>94.39</course>
  <speed>0.4709564735726646</speed>
  <fix>3d</fix>
</trkpt>
<trkpt lat="40.0717345" lon="-105.2293259">
  <ele>1583.0</ele>
  <time>2026-08-28T17:49:46Z</time>
  <course>94.41</course>
  <speed>0.4509988913511872</speed>
  <fix>3d</fix>
</trkpt>
<trkpt lat="40.0717345" lon="-105.2293258">
  <ele>1583.0</ele>
  <time>2026-08-28T17:49:46Z</time>
  <course>94.43</course>
  <speed>0.4310452412450461</speed>
  <fix>3d</fix>
</trkpt>
<trkpt lat="40.0717345" lon="-105.2293258">
  <ele>1583.0</ele>
  <time>2026-08-28T17:49:46Z</time>
  <course>94.43</course>
  <speed>0.4310452412450461</speed>
  <fix>3d</fix>
</trkpt>
<trkpt lat="40.0717346" lon="-105.2293262">
  <ele>1583.0</ele>
  <time>2026-08-28T17:49:46Z</time>
  <course>93.22</course>
  <speed>0.6</speed>
  <fix>3d</fix>
</trkpt>
<trkpt lat="40.0717345" lon="-105.2293254">
  <ele>1582.99</ele>
  <time>2026-08-28T17:49:46Z</time>
  <course>94.53</course>
  <speed>0.36124783736376886</speed>
  <fix>3d</fix>
</trkpt>
<trkpt lat="40.0717345" lon="-105.2293253">
  <ele>1582.99</ele>
  <time>2026-08-28T17:49:46Z</time>
  <course>94.55</course>
  <speed>0.35128336140500593</speed>
  <fix>3d</fix>
</trkpt>
<trkpt lat="40.0717345" lon="-105.2293253">
  <ele>1582.99</ele>
  <time>2026-08-28T17:49:46Z</time>
  <course>94.55</course>
  <speed>0.35128336140500593</speed>
  <fix>3d</fix>
</trkpt>
<trkpt lat="40.0717346" lon="-105.2293262">
  <ele>1583.0</ele>
  <time>2026-08-28T17:49:46Z</time>
  <course>93.22</course>
  <speed>0.6</speed>
  <fix>3d</fix>
</trkpt>
<trkpt lat="40.0717345" lon="-105.229325">
  <ele>1582.99</ele>
  <time>2026-08-28T17:49:46Z</time>
  <course>94.65</course>
  <speed>0.2816025568065745</speed>
  <fix>3d</fix>
</trkpt>
<trkpt lat="40.0717345" lon="-105.2293249">
  <ele>1582.99</ele>
  <time>2026-08-28T17:49:46Z</time>
  <course>94.67</course>
  <speed>0.261725046566048</speed>
  <fix>3d</fix>
</trkpt>
<trkpt lat="40.0717345" lon="-105.2293249">
  <ele>1582.99</ele>
  <time>2026-08-28T17:49:46Z</time>
  <course>94.67</course>
  <speed>0.261725046566048</speed>
  <fix>3d</fix>
</trkpt>
<trkpt lat="40.0717345" lon="-105.2293249">
  <ele>1583.0</ele>
  <time>2026-08-28T17:49:46Z</time>
  <course>93.41</course>
  <speed>0.42</speed>
  <fix>3d</fix>
</trkpt>
<trkpt lat="40.0717345" lon="-105.2293247">
  <ele>1582.99</ele>
  <time>2026-08-28T17:49:46Z</time>
  <course>94.74</course>
  <speed>0.2109502310972899</speed>
  <fix>3d</fix>
</trkpt>
<trkpt lat="40.0717345" lon="-105.2293246">
  <ele>1582.99</ele>
  <time>2026-08-28T17:49:46Z</time>
  <course>94.76</course>
  <speed>0.191049731745428</speed>
  <fix>3d</fix>
</trkpt>
<trkpt lat="40.0717345" lon="-105.2293246">
  <ele>1582.99</ele>
  <time>2026-08-28T17:49:46Z</time>
  <course>94.78</course>
  <speed>0.1711724276862369</speed>
  <fix>3d</fix>
</trkpt>
<trkpt lat="40.0717345" lon="-105.2293246">
  <ele>1582.99</ele>
  <time>2026-08-28T17:49:46Z</time>
  <course>94.78</course>
  <speed>0.1711724276862369</speed>
  <fix>3d</fix>
</trkpt>
<trkpt lat="40.0717345" lon="-105.2293249">
  <ele>1583.0</ele>
  <time>2026-08-28T17:49:46Z</time>
  <course>93.41</course>
  <speed>0.42</speed>
  <fix>3d</fix>
</trkpt>
<trkpt lat="40.0717344" lon="-105.2293244">
  <ele>1582.99</ele>
  <time>2026-08-28T17:49:46Z</time>
  <course>94.85</course>
  <speed>0.1019803902718557</speed>
  <fix>3d</fix>
</trkpt>
<trkpt lat="40.0717344" lon="-105.2293244">
  <ele>1582.99</ele>
  <time>2026-08-28T17:49:46Z</time>
  <course>94.86</course>
  <speed>0.0824621125123532</speed>
  <fix>3d</fix>
</trkpt>
<trkpt lat="40.0717344" lon="-105.2293244">
  <ele>1582.99</ele>
  <time>2026-08-28T17:49:46Z</time>
  <course>94.86</course>
  <speed>0.0824621125123532</speed>
  <fix>3d</fix>
</trkpt>
<trkpt lat="40.0717345" lon="-105.2293241">
  <ele>1583.0</ele>
  <time>2026-08-28T17:49:46Z</time>
  <course>93.6</course>
  <speed>0.25</speed>
  <fix>3d</fix>
</trkpt>
<trkpt lat="40.0717344" lon="-105.2293243">
  <ele>1582.99</ele>
  <time>2026-08-28T17:49:46Z</time>
  <course>94.91</course>
  <speed>0.01414213562373095</speed>
  <fix>3d</fix>
</trkpt>
<trkpt lat="40.0717344" lon="-105.2293243">
  <ele>1582.99</ele>
  <time>2026-08-28T17:49:46Z</time>
  <course>94.92</course>
  <speed>0.01</speed>
  <fix>3d</fix>
</trkpt>
<trkpt lat="40.0717344" lon="-105.2293243">
  <ele>1582.99</ele>
  <time>2026-08-28T17:49:46Z</time>
  <course>94.92</course>
  <speed>0.01</speed>
  <fix>3d</fix>
</trkpt>
<trkpt lat="40.0717345" lon="-105.2293241">
  <ele>1583.0</ele>
  <time>2026-08-28T17:49:46Z</time>
  <course>93.6</course>
  <speed>0.25</speed>
  <fix>3d</fix>
</trkpt>
<trkpt lat="40.0717344" lon="-105.2293243">
  <ele>1582.99</ele>
  <time>2026-08-28T17:49:46Z</time>
  <course>94.91</course>
  <speed>0.07071067811865475</speed>
  <fix>3d</fix>
</trkpt>
<trkpt lat="40.0717344" lon="-105.2293242">
  <ele>1582.99</ele>
  <time>2026-08-28T17:49:46Z</time>
  <course>94.91</course>
  <speed>0.09055385138137417</speed>
  <fix>3d</fix>
</trkpt>
<trkpt lat="40.0717344" lon="-105.2293242">
  <ele>1582.99</ele>
  <time>2026-08-28T17:49:46Z</time>
  <course>94.91</course>
  <speed>0.09055385138137417</speed>
  <fix>3d</fix>
</trkpt>
<trkpt lat="40.0717345" lon="-105.2293238">
  <ele>1583.0</ele>
  <time>2026-08-28T17:49:46Z</time>
  <course>93.72</course>
  <speed>0.07</speed>
  <fix>3d</fix>
</trkpt>
<trkpt lat="40.0717344" lon="-105.2293242">
  <ele>1582.99</ele>
  <time>2026-08-28T17:49:46Z</time>
  <course>94.95</course>
  <speed>0.140356688476182</speed>
  <fix>3d</fix>
</trkpt>
<trkpt lat="40.0717344" lon="-105.2293243">
  <ele>1582.99</ele>
  <time>2026-08-28T17:49:46Z</time>
  <course>94.97</course>
  <speed>0.15</speed>
  <fix>3d</fix>
</trkpt>
<trkpt lat="40.0717344" lon="-105.2293243">
  <ele>1582.99</ele>
  <time>2026-08-28T17:49:46Z</time>
  <course>94.97</course>
  <speed>0.15</speed>
  <fix>3d</fix>
</trkpt>
<trkpt lat="40.0717345" lon="-105.2293238">
  <ele>1583.0</ele>
  <time>2026-08-28T17:49:46Z</time>
  <course>93.72</course>
  <speed>0.07</speed>
  <fix>3d</fix>
</trkpt>
<trkpt lat="40.0717344" lon="-105.2293244">
  <ele>1582.99</ele>
  <time>2026-08-28T17:49:46Z</time>
  <course>95.05</course>
  <speed>0.18</speed>
  <fix>3d</fix>
</trkpt>
<trkpt lat="40.0717344" lon="-105.2293244">
  <ele>1582.99</ele>
  <time>2026-08-28T17:49:46Z</time>
  <course>95.08</course>
  <speed>0.18</speed>
  <fix>3d</fix>
</trkpt>
<trkpt lat="40.0717344" lon="-105.2293244">
  <ele>1582.99</ele>
  <time>2026-08-28T17:49:46Z</time>
  <course>95.12</course>
  <speed>0.19</speed>
  <fix>3d</fix>
</trkpt>
<trkpt lat="40.0717344" lon="-105.2293244">
  <ele>1582.99</ele>
  <time>2026-08-28T17:49:46Z</time>
  <course>95.12</course>
  <speed>0.19</speed>
  <fix>3d</fix>
</trkpt>
<trkpt lat="40.0717345" lon="-105.2293237">
  <ele>1583.0</ele>
  <time>2026-08-28T17:49:46Z</time>
  <course>273.93</course>
  <speed>0.07</speed>
  <fix>3d</fix>
</trkpt>
<trkpt lat="40.0717344" lon="-105.2293246">
  <ele>1582.99</ele>
  <time>2026-08-28T17:49:46Z</time>
  <course>95.32</course>
  <speed>0.2</speed>
  <fix>3d</fix>
</trkpt>
<trkpt lat="40.0717344" lon="-105.2293246">
  <ele>1582.99</ele>
  <time>2026-08-28T17:49:46Z</time>
  <course>95.38</course>
  <speed>0.2</speed>
  <fix>3d</fix>
</trkpt>
<trkpt lat="40.0717345" lon="-105.2293237">
  <ele>1583.0</ele>
  <time>2026-08-28T17:49:46Z</time>
  <course>273.93</course>
  <speed>0.07</speed>
  <fix>3d</fix>
</trkpt>
<trkpt lat="40.0717344" lon="-105.2293246">
  <ele>1582.99</ele>
  <time>2026-08-28T17:49:46Z</time>
  <course>95.44</course>
  <speed>0.2</speed>
  <fix>3d</fix>
</trkpt>
<trkpt lat="40.0717344" lon="-105.2293248">
  <ele>1582.99</ele>
  <time>2026-08-28T17:49:46Z</time>
  <course>95.7</course>
  <speed>0.19026297590440447</speed>
  <fix>3d</fix>
</trkpt>
<trkpt lat="40.0717344" lon="-105.2293248">
  <ele>1582.99</ele>
  <time>2026-08-28T17:49:46Z</time>
  <course>95.7</course>
  <speed>0.19026297590440447</speed>
  <fix>3d</fix>
</trkpt>
<trkpt lat="40.0717345" lon="-105.2293239">
  <ele>1583.0</ele>
  <time>2026-08-28T17:49:46Z</time>
  <course>274.25</course>
  <speed>0.12</speed>
  <fix>3d</fix>
</trkpt>
<trkpt lat="40.0717344" lon="-105.2293249">
  <ele>1582.99</ele>
  <time>2026-08-28T17:49:46Z</time>
  <course>95.97</course>
  <speed>0.16031219541881397</speed>
  <fix>3d</fix>
</trkpt>
<trkpt lat="40.0717344" lon="-105.2293249">
  <ele>1582.99</ele>
  <time>2026-08-28T17:49:46Z</time>
  <course>96.03</course>
  <speed>0.15033296378372907</speed>
  <fix>3d</fix>
</trkpt>
<trkpt lat="40.0717344" lon="-105.2293249">
  <ele>1582.99</ele>
  <time>2026-08-28T17:49:46Z</time>
  <course>96.03</course>
  <speed>0.15033296378372907</speed>
  <fix>3d</fix>
</trkpt>
<trkpt lat="40.0717345" lon="-105.2293239">
  <ele>1583.0</ele>
  <time>2026-08-28T17:49:46Z</time>
  <course>274.25</course>
  <speed>0.12</speed>
  <fix>3d</fix>
</trkpt>
<trkpt lat="40.0717344" lon="-105.2293249">
  <ele>1582.99</ele>
  <time>2026-08-28T17:49:46Z</time>
  <course>96.15</course>
  <speed>0.130384048104053</speed>
  <fix>3d</fix>
</trkpt>
<trkpt lat="40.0717344" lon="-105.229325">
  <ele>1582.99</ele>
  <time>2026-08-28T17:49:46Z</time>
  <course>96.2</course>
  <speed>0.12165525060596438</speed>
  <fix>3d</fix>
</trkpt>
<trkpt lat="40.0717344" lon="-105.229325">
  <ele>1582.99</ele>
  <time>2026-08-28T17:49:46Z</time>
  <course>96.24</course>
  <speed>0.1118033988749895</speed>
  <fix>3d</fix>
</trkpt>
<trkpt lat="40.0717344" lon="-105.229325">
  <ele>1583.0</ele>
  <time>2026-08-28T17:49:46Z</time>
  <course>96.28</course>
  <speed>0.1019803902718557</speed>
  <fix>3d</fix>
</trkpt>
<trkpt lat="40.0717344" lon="-105.229325">
  <ele>1583.0</ele>
  <time>2026-08-28T17:49:46Z</time>
  <course>96.28</course>
  <speed>0.1019803902718557</speed>
  <fix>3d</fix>
</trkpt>
<trkpt lat="40.0717345" lon="-105.2293239">
  <ele>1583.0</ele>
  <time>2026-08-28T17:49:46Z</time>
  <course>274.25</course>
  <speed>0.12</speed>
  <fix>3d</fix>
</trkpt>
<trkpt lat="40.0717344" lon="-105.229325">
  <ele>1583.0</ele>
  <time>2026-08-28T17:49:46Z</time>
  <course>96.34</course>
  <speed>0.0670820393249937</speed>
  <fix>3d</fix>
</trkpt>
<trkpt lat="40.0717344" lon="-105.229325">
  <ele>1583.0</ele>
  <time>2026-08-28T17:49:46Z</time>
  <course>96.34</course>
  <speed>0.05830951894845301</speed>
  <fix>3d</fix>
</trkpt>
<trkpt lat="40.0717344" lon="-105.229325">
  <ele>1583.0</ele>
  <time>2026-08-28T17:49:46Z</time>
  <course>96.32</course>
  <speed>0.04242640687119285</speed>
  <fix>3d</fix>
</trkpt>
<trkpt lat="40.0717344" lon="-105.229325">
  <ele>1583.0</ele>
  <time>2026-08-28T17:49:46Z</time>
  <course>96.32</course>
  <speed>0.04242640687119285</speed>
  <fix>3d</fix>
</trkpt>
<trkpt lat="40.0717345" lon="-105.2293242">
  <ele>1583.0</ele>
  <time>2026-08-28T17:49:47Z</time>
  <course>274.67</course>
  <speed>0.08</speed>
  <fix>3d</fix>
</trkpt>
<trkpt lat="40.0717344" lon="-105.2293249">
  <ele>1583.0</ele>
  <time>2026-08-28T17:49:47Z</time>
  <course>96.27</course>
  <speed>0.044721359549995794</speed>
  <fix>3d</fix>
</trkpt>
<trkpt lat="40.0717344" lon="-105.2293249">
  <ele>1583.0</ele>
  <time>2026-08-28T17:49:47Z</time>
  <course>96.37</course>
  <speed>0.0565685424949238</speed>
  <fix>3d</fix>
</trkpt>
<trkpt lat="40.0717344" lon="-105.2293249">
  <ele>1583.0</ele>
  <time>2026-08-28T17:49:47Z</time>
  <course>96.37</course>
  <speed>0.0565685424949238</speed>
  <fix>3d</fix>
</trkpt>
<trkpt lat="40.0717345" lon="-105.2293242">
  <ele>1583.0</ele>
  <time>2026-08-28T17:49:47Z</time>
  <course>274.67</course>
  <speed>0.08</speed>
  <fix>3d</fix>
</trkpt>
<trkpt lat="40.0717344" lon="-105.2293248">
  <ele>1583.01</ele>
  <time>2026-08-28T17:49:47Z</time>
  <course>96.8</course>
  <speed>0.10295630140987001</speed>
  <fix>3d</fix>
</trkpt>
<trkpt lat="40.0717344" lon="-105.2293248">
  <ele>1583.01</ele>
  <time>2026-08-28T17:49:47Z</time>
  <course>96.99</course>
  <speed>0.12083045973594572</speed>
  <fix>3d</fix>
</trkpt>
<trkpt lat="40.0717344" lon="-105.2293247">
  <ele>1583.01</ele>
  <time>2026-08-28T17:49:47Z</time>
  <course>97.21</course>
  <speed>0.14317821063276354</speed>
  <fix>3d</fix>
</trkpt>
<trkpt lat="40.0717344" lon="-105.2293247">
  <ele>1583.01</ele>
  <time>2026-08-28T17:49:47Z</time>
  <course>97.21</course>
  <speed>0.14317821063276354</speed>
  <fix>3d</fix>
</trkpt>
<trkpt lat="40.0717345" lon="-105.2293243">
  <ele>1583.0</ele>
  <time>2026-08-28T17:49:47Z</time>
  <course>95.25</course>
  <speed>0.03</speed>
  <fix>3d</fix>
</trkpt>
<trkpt lat="40.0717343" lon="-105.2293245">
  <ele>1583.01</ele>
  <time>2026-08-28T17:49:47Z</time>
  <course>98.05</course>
  <speed>0.20248456731316586</speed>
  <fix>3d</fix>
</trkpt>
<trkpt lat="40.0717343" lon="-105.2293245">
  <ele>1583.01</ele>
  <time>2026-08-28T17:49:47Z</time>
  <course>98.38</course>
  <speed>0.22135943621178655</speed>
  <fix>3d</fix>
</trkpt>
<trkpt lat="40.0717343" lon="-105.2293244">
  <ele>1583.01</ele>
  <time>2026-08-28T17:49:47Z</time>
  <course>98.74</course>
  <speed>0.24351591323771843</speed>
  <fix>3d</fix>
</trkpt>
<trkpt lat="40.0717343" lon="-105.2293244">
  <ele>1583.01</ele>
  <time>2026-08-28T17:49:47Z</time>
  <course>98.74</course>
  <speed>0.24351591323771843</speed>
  <fix>3d</fix>
</trkpt>
<trkpt lat="40.0717345" lon="-105.2293243">
  <ele>1583.0</ele>
  <time>2026-08-28T17:49:47Z</time>
  <course>95.25</course>
  <speed>0.03</speed>
  <fix>3d</fix>
</trkpt>
<trkpt lat="40.0717343" lon="-105.2293242">
  <ele>1583.01</ele>
  <time>2026-08-28T17:49:47Z</time>
  <course>100.45</course>
  <speed>0.3352610922848042</speed>
  <fix>3d</fix>
</trkpt>
<trkpt lat="40.0717343" lon="-105.2293241">
  <ele>1583.01</ele>
  <time>2026-08-28T17:49:47Z</time>
  <course>100.94</course>
  <speed>0.35735136770411274</speed>
  <fix>3d</fix>
</trkpt>
<trkpt lat="40.0717343" lon="-105.2293241">
  <ele>1583.01</ele>
  <time>2026-08-28T17:49:47Z</time>
  <course>100.94</course>
  <speed>0.35735136770411274</speed>
  <fix>3d</fix>
</trkpt>
<trkpt lat="40.0717345" lon="-105.2293241">
  <ele>1583.0</ele>
  <time>2026-08-28T17:49:47Z</time>
  <course>96.95</course>
  <speed>0.19</speed>
  <fix>3d</fix>
</trkpt>
<trkpt lat="40.0717342" lon="-105.2293237">
  <ele>1583.01</ele>
  <time>2026-08-28T17:49:47Z</time>
  <course>103.25</course>
  <speed>0.455411901469428</speed>
  <fix>3d</fix>
</trkpt>
<trkpt lat="40.0717341" lon="-105.2293235">
  <ele>1583.01</ele>
  <time>2026-08-28T17:49:47Z</time>
  <course>103.89</course>
  <speed>0.4775981574503821</speed>
  <fix>3d</fix>
</trkpt>
<trkpt lat="40.0717344" lon="-105.2293234">
  <ele>1583.0</ele>
  <time>2026-08-28T17:49:47Z</time>
  <course>100.85</course>
  <speed>0.4</speed>
  <fix>3d</fix>
</trkpt>
<trkpt lat="40.0717341" lon="-105.2293234">
  <ele>1583.01</ele>
  <time>2026-08-28T17:49:47Z</time>
  <course>104.57</course>
  <speed>0.5126402247190519</speed>
  <fix>3d</fix>
</trkpt>
<trkpt lat="40.0717341" lon="-105.2293231">
  <ele>1583.02</ele>
  <time>2026-08-28T17:49:47Z</time>
  <course>106.01</course>
  <speed>0.5571355310873648</speed>
  <fix>3d</fix>
</trkpt>
<trkpt lat="40.071734" lon="-105.229323">
  <ele>1583.02</ele>
  <time>2026-08-28T17:49:47Z</time>
  <course>106.79</course>
  <speed>0.58309518948453</speed>
  <fix>3d</fix>
</trkpt>
<trkpt lat="40.071734" lon="-105.2293228">
  <ele>1583.02</ele>
  <time>2026-08-28T17:49:47Z</time>
  <course>107.59</course>
  <speed>0.6184658438426491</speed>
  <fix>3d</fix>
</trkpt>
<trkpt lat="40.071734" lon="-105.2293228">
  <ele>1583.02</ele>
  <time>2026-08-28T17:49:47Z</time>
  <course>107.59</course>
  <speed>0.6184658438426491</speed>
  <fix>3d</fix>
</trkpt>
<trkpt lat="40.0717344" lon="-105.2293234">
  <ele>1583.0</ele>
  <time>2026-08-28T17:49:47Z</time>
  <course>100.85</course>
  <speed>0.4</speed>
  <fix>3d</fix>
</trkpt>
<trkpt lat="40.0717338" lon="-105.2293222">
  <ele>1583.02</ele>
  <time>2026-08-28T17:49:47Z</time>
  <course>111.14</course>
  <speed>0.7201388754955533</speed>
  <fix>3d</fix>
</trkpt>
<trkpt lat="40.0717337" lon="-105.229322">
  <ele>1583.02</ele>
  <time>2026-08-28T17:49:47Z</time>
  <course>112.11</course>
  <speed>0.7513321502504735</speed>
  <fix>3d</fix>
</trkpt>
<trkpt lat="40.0717337" lon="-105.229322">
  <ele>1583.02</ele>
  <time>2026-08-28T17:49:47Z</time>
  <course>112.11</course>
  <speed>0.7513321502504735</speed>
  <fix>3d</fix>
</trkpt>
<trkpt lat="40.0717341" lon="-105.2293222">
  <ele>1583.0</ele>
  <time>2026-08-28T17:49:47Z</time>
  <course>107.63</course>
  <speed>0.64</speed>
  <fix>3d</fix>
</trkpt>
<trkpt lat="40.0717335" lon="-105.2293212">
  <ele>1583.02</ele>
  <time>2026-08-28T17:49:47Z</time>
  <course>116.29</course>
  <speed>0.8695401083331349</speed>
  <fix>3d</fix>
</trkpt>
<trkpt lat="40.0717334" lon="-105.229321">
  <ele>1583.02</ele>
  <time>2026-08-28T17:49:47Z</time>
  <course>117.43</course>
  <speed>0.9021086409075129</speed>
  <fix>3d</fix>
</trkpt>
<trkpt lat="40.0717334" lon="-105.229321">
  <ele>1583.02</ele>
  <time>2026-08-28T17:49:47Z</time>
  <course>117.43</course>
  <speed>0.9021086409075129</speed>
  <fix>3d</fix>
</trkpt>
<trkpt lat="40.0717341" lon="-105.2293222">
  <ele>1583.0</ele>
  <time>2026-08-28T17:49:47Z</time>
  <course>107.63</course>
  <speed>0.64</speed>
  <fix>3d</fix>
</trkpt>
<trkpt lat="40.071733" lon="-105.2293202">
  <ele>1583.02</ele>
  <time>2026-08-28T17:49:47Z</time>
  <course>122.36</course>
  <speed>1.016070863670443</speed>
  <fix>3d</fix>
</trkpt>
<trkpt lat="40.0717329" lon="-105.22932">
  <ele>1583.02</ele>
  <time>2026-08-28T17:49:47Z</time>
  <course>123.68</course>
  <speed>1.0420172743289815</speed>
  <fix>3d</fix>
</trkpt>
<trkpt lat="40.0717329" lon="-105.22932">
  <ele>1583.02</ele>
  <time>2026-08-28T17:49:47Z</time>
  <course>123.68</course>
  <speed>1.0420172743289815</speed>
  <fix>3d</fix>
</trkpt>
<trkpt lat="40.0717336" lon="-105.2293205">
  <ele>1583.0</ele>
  <time>2026-08-28T17:49:47Z</time>
  <course>117.62</course>
  <speed>0.91</speed>
  <fix>3d</fix>
</trkpt>
<trkpt lat="40.0717324" lon="-105.2293191">
  <ele>1583.02</ele>
  <time>2026-08-28T17:49:47Z</time>
  <course>129.31</course>
  <speed>1.1677756633874505</speed>
  <fix>3d</fix>
</trkpt>
<trkpt lat="40.0717323" lon="-105.2293189">
  <ele>1583.02</ele>
  <time>2026-08-28T17:49:47Z</time>
  <course>130.81</course>
  <speed>1.2024142381059866</speed>
  <fix>3d</fix>
</trkpt>
<trkpt lat="40.0717323" lon="-105.2293189">
  <ele>1583.02</ele>
  <time>2026-08-28T17:49:47Z</time>
  <course>130.81</course>
  <speed>1.2024142381059866</speed>
  <fix>3d</fix>
</trkpt>
<trkpt lat="40.0717336" lon="-105.2293205">
  <ele>1583.0</ele>
  <time>2026-08-28T17:49:47Z</time>
  <course>117.62</course>
  <speed>0.91</speed>
  <fix>3d</fix>
</trkpt>
<trkpt lat="40.0717316" lon="-105.229318">
  <ele>1583.02</ele>
  <time>2026-08-28T17:49:47Z</time>
  <course>137.17</course>
  <speed>1.3200757554019389</speed>
  <fix>3d</fix>
</trkpt>
<trkpt lat="40.0717314" lon="-105.2293178">
  <ele>1583.02</ele>
  <time>2026-08-28T17:49:47Z</time>
  <course>138.85</course>
  <speed>1.352479205015737</speed>
  <fix>3d</fix>
</trkpt>
<trkpt lat="40.0717314" lon="-105.2293178">
  <ele>1583.02</ele>
  <time>2026-08-28T17:49:47Z</time>
  <course>138.85</course>
  <speed>1.352479205015737</speed>
  <fix>3d</fix>
</trkpt>
<trkpt lat="40.0717326" lon="-105.2293185">
  <ele>1583.0</ele>
  <time>2026-08-28T17:49:47Z</time>
  <course>131.06</course>
  <speed>1.18</speed>
  <fix>3d</fix>
</trkpt>
<trkpt lat="40.0717308" lon="-105.2293171">
  <ele>1583.02</ele>
  <time>2026-08-28T17:49:47Z</time>
  <course>143.99</course>
  <speed>1.4422205101855956</speed>
  <fix>3d</fix>
</trkpt>
<trkpt lat="40.0717306" lon="-105.2293169">
  <ele>1583.02</ele>
  <time>2026-08-28T17:49:47Z</time>
  <course>145.7</course>
  <speed>1.4733974345029923</speed>
  <fix>3d</fix>
</trkpt>
<trkpt lat="40.0717304" lon="-105.2293167">
  <ele>1583.02</ele>
  <time>2026-08-28T17:49:47Z</time>
  <course>147.42</course>
  <speed>1.4921796138535066</speed>
  <fix>3d</fix>
</trkpt>
<trkpt lat="40.0717304" lon="-105.2293167">
  <ele>1583.02</ele>
  <time>2026-08-28T17:49:47Z</time>
  <course>147.42</course>
  <speed>1.4921796138535066</speed>
  <fix>3d</fix>
</trkpt>
<trkpt lat="40.0717326" lon="-105.2293185">
  <ele>1583.0</ele>
  <time>2026-08-28T17:49:47Z</time>
  <course>131.06</course>
  <speed>1.18</speed>
  <fix>3d</fix>
</trkpt>
<trkpt lat="40.0717294" lon="-105.229316">
  <ele>1583.02</ele>
  <time>2026-08-28T17:49:47Z</time>
  <course>154.39</course>
  <speed>1.603277892319357</speed>
  <fix>3d</fix>
</trkpt>
<trkpt lat="40.0717291" lon="-105.2293159">
  <ele>1583.02</ele>
  <time>2026-08-28T17:49:47Z</time>
  <course>156.15</course>
  <speed>1.6248384535085327</speed>
  <fix>3d</fix>
</trkpt>
<trkpt lat="40.0717291" lon="-105.2293159">
  <ele>1583.02</ele>
  <time>2026-08-28T17:49:47Z</time>
  <course>156.15</course>
  <speed>1.6248384535085327</speed>
  <fix>3d</fix>
</trkpt>
<trkpt lat="40.0717308" lon="-105.2293165">
  <ele>1583.0</ele>
  <time>2026-08-28T17:49:47Z</time>
  <course>147.12</course>
  <speed>1.44</speed>
  <fix>3d</fix>
</trkpt>
<trkpt lat="40.0717277" lon="-105.2293152">
  <ele>1583.02</ele>
  <time>2026-08-28T17:49:47Z</time>
  <course>164.93</course>
  <speed>1.726962651593832</speed>
  <fix>3d</fix>
</trkpt>
<trkpt lat="40.0717277" lon="-105.2293152">
  <ele>1583.02</ele>
  <time>2026-08-28T17:49:47Z</time>
  <course>164.93</course>
  <speed>1.726962651593832</speed>
  <fix>3d</fix>
</trkpt>
<trkpt lat="40.0717308" lon="-105.2293165">
  <ele>1583.0</ele>
  <time>2026-08-28T17:49:47Z</time>
  <course>147.12</course>
  <speed>1.44</speed>
  <fix>3d</fix>
</trkpt>
<trkpt lat="40.0717264" lon="-105.2293149">
  <ele>1583.02</ele>
  <time>2026-08-28T17:49:47Z</time>
  <course>171.83</course>
  <speed>1.8022763384120648</speed>
  <fix>3d</fix>
</trkpt>
<trkpt lat="40.0717261" lon="-105.2293148">
  <ele>1583.02</ele>
  <time>2026-08-28T17:49:47Z</time>
  <course>173.52</course>
  <speed>1.8170580618131056</speed>
  <fix>3d</fix>
</trkpt>
<trkpt lat="40.0717261" lon="-105.2293148">
  <ele>1583.02</ele>
  <time>2026-08-28T17:49:47Z</time>
  <course>173.52</course>
  <speed>1.8170580618131056</speed>
  <fix>3d</fix>
</trkpt>
<trkpt lat="40.0717282" lon="-105.229315">
  <ele>1583.0</ele>
  <time>2026-08-28T17:49:47Z</time>
  <course>164.15</course>
  <speed>1.66</speed>
  <fix>3d</fix>
</trkpt>
<trkpt lat="40.0717251" lon="-105.2293147">
  <ele>1583.02</ele>
  <time>2026-08-28T17:49:47Z</time>
  <course>178.5</course>
  <speed>1.8700267377767625</speed>
  <fix>3d</fix>
</trkpt>
<trkpt lat="40.0717248" lon="-105.2293147">
  <ele>1583.02</ele>
  <time>2026-08-28T17:49:47Z</time>
  <course>180.13</course>
  <speed>1.880239346466295</speed>
  <fix>3d</fix>
</trkpt>
<trkpt lat="40.0717244" lon="-105.2293147">
  <ele>1583.02</ele>
  <time>2026-08-28T17:49:47Z</time>
  <course>181.73</course>
  <speed>1.8916923639957952</speed>
  <fix>3d</fix>
</trkpt>
<trkpt lat="40.0717244" lon="-105.2293147">
  <ele>1583.02</ele>
  <time>2026-08-28T17:49:47Z</time>
  <course>181.73</course>
  <speed>1.8916923639957952</speed>
  <fix>3d</fix>
</trkpt>
<trkpt lat="40.0717282" lon="-105.229315">
  <ele>1583.0</ele>
  <time>2026-08-28T17:49:47Z</time>
  <course>164.15</course>
  <speed>1.66</speed>
  <fix>3d</fix>
</trkpt>
<trkpt lat="40.0717231" lon="-105.2293149">
  <ele>1583.02</ele>
  <time>2026-08-28T17:49:47Z</time>
  <course>187.85</course>
  <speed>1.9417775361765828</speed>
  <fix>3d</fix>
</trkpt>
<trkpt lat="40.0717227" lon="-105.229315">
  <ele>1583.02</ele>
  <time>2026-08-28T17:49:47Z</time>
  <course>189.29</course>
  <speed>1.9481529714065065</speed>
  <fix>3d</fix>
</trkpt>
<trkpt lat="40.0717227" lon="-105.229315">
  <ele>1583.02</ele>
  <time>2026-08-28T17:49:47Z</time>
  <course>189.29</course>
  <speed>1.9481529714065065</speed>
  <fix>3d</fix>
</trkpt>
<trkpt lat="40.0717251" lon="-105.2293145">
  <ele>1583.0</ele>
  <time>2026-08-28T17:49:47Z</time>
  <course>180.49</course>
  <speed>1.82</speed>
  <fix>3d</fix>
</trkpt>
<trkpt lat="40.0717213" lon="-105.2293154">
  <ele>1583.02</ele>
  <time>2026-08-28T17:49:47Z</time>
  <course>194.63</course>
  <speed>1.989170681465017</speed>
  <fix>3d</fix>
</trkpt>
<trkpt lat="40.071721" lon="-105.2293155">
  <ele>1583.02</ele>
  <time>2026-08-28T17:49:47Z</time>
  <course>195.86</course>
  <speed>2.0</speed>
  <fix>3d</fix>
</trkpt>
<trkpt lat="40.071721" lon="-105.2293155">
  <ele>1583.02</ele>
  <time>2026-08-28T17:49:47Z</time>
  <course>195.86</course>
  <speed>2.0</speed>
  <fix>3d</fix>
</trkpt>
<trkpt lat="40.0717251" lon="-105.2293145">
  <ele>1583.0</ele>
  <time>2026-08-28T17:49:47Z</time>
  <course>180.49</course>
  <speed>1.82</speed>
  <fix>3d</fix>
</trkpt>
<trkpt lat="40.0717196" lon="-105.2293161">
  <ele>1583.02</ele>
  <time>2026-08-28T17:49:47Z</time>
  <course>200.36</course>
  <speed>2.0505608988762076</speed>
  <fix>3d</fix>
</trkpt>
<trkpt lat="40.0717193" lon="-105.2293163">
  <ele>1583.02</ele>
  <time>2026-08-28T17:49:47Z</time>
  <course>201.39</course>
  <speed>2.0556507485465523</speed>
  <fix>3d</fix>
</trkpt>
<trkpt lat="40.0717193" lon="-105.2293163">
  <ele>1583.02</ele>
  <time>2026-08-28T17:49:47Z</time>
  <course>201.39</course>
  <speed>2.0556507485465523</speed>
  <fix>3d</fix>
</trkpt>
<trkpt lat="40.0717251" lon="-105.2293145">
  <ele>1583.0</ele>
  <time>2026-08-28T17:49:47Z</time>
  <course>180.49</course>
  <speed>1.82</speed>
  <fix>3d</fix>
</trkpt>
<trkpt lat="40.0717179" lon="-105.229317">
  <ele>1583.02</ele>
  <time>2026-08-28T17:49:47Z</time>
  <course>205.16</course>
  <speed>2.1023796041628637</speed>
  <fix>3d</fix>
</trkpt>
<trkpt lat="40.0717176" lon="-105.2293171">
  <ele>1583.02</ele>
  <time>2026-08-28T17:49:47Z</time>
  <course>206.03</course>
  <speed>2.1153959440256096</speed>
  <fix>3d</fix>
</trkpt>
<trkpt lat="40.0717218" lon="-105.2293151">
  <ele>1583.0</ele>
  <time>2026-08-28T17:49:47Z</time>
  <course>194.34</course>
  <speed>1.94</speed>
  <fix>3d</fix>
</trkpt>
<trkpt lat="40.0717173" lon="-105.2293174">
  <ele>1583.02</ele>
  <time>2026-08-28T17:49:47Z</time>
  <course>206.86</course>
  <speed>2.128755504984074</speed>
  <fix>3d</fix>
</trkpt>
<trkpt lat="40.0717163" lon="-105.2293181">
  <ele>1583.02</ele>
  <time>2026-08-28T17:49:47Z</time>
  <course>209.21</course>
  <speed>2.1669563908856126</speed>
  <fix>3d</fix>
</trkpt>
<trkpt lat="40.0717159" lon="-105.2293183">
  <ele>1583.02</ele>
  <time>2026-08-28T17:49:47Z</time>
  <course>209.94</course>
  <speed>2.1817882573705454</speed>
  <fix>3d</fix>
</trkpt>
<trkpt lat="40.0717159" lon="-105.2293183">
  <ele>1583.02</ele>
  <time>2026-08-28T17:49:47Z</time>
  <course>209.94</course>
  <speed>2.1817882573705454</speed>
  <fix>3d</fix>
</trkpt>
<trkpt lat="40.0717218" lon="-105.2293151">
  <ele>1583.0</ele>
  <time>2026-08-28T17:49:47Z</time>
  <course>194.34</course>
  <speed>1.94</speed>
  <fix>3d</fix>
</trkpt>
<trkpt lat="40.0717146" lon="-105.2293194">
  <ele>1583.02</ele>
  <time>2026-08-28T17:49:47Z</time>
  <course>212.6</course>
  <speed>2.2303362975121037</speed>
  <fix>3d</fix>
</trkpt>
<trkpt lat="40.0717143" lon="-105.2293196">
  <ele>1583.02</ele>
  <time>2026-08-28T17:49:47Z</time>
  <course>213.21</course>
  <speed>2.2466196829904255</speed>
  <fix>3d</fix>
</trkpt>
<trkpt lat="40.0717143" lon="-105.2293196">
  <ele>1583.02</ele>
  <time>2026-08-28T17:49:47Z</time>
  <course>213.21</course>
  <speed>2.2466196829904255</speed>
  <fix>3d</fix>
</trkpt>
<trkpt lat="40.0717183" lon="-105.2293166">
  <ele>1583.0</ele>
  <time>2026-08-28T17:49:47Z</time>
  <course>204.63</course>
  <speed>2.06</speed>
  <fix>3d</fix>
</trkpt>
<trkpt lat="40.0717126" lon="-105.2293211">
  <ele>1583.01</ele>
  <time>2026-08-28T17:49:47Z</time>
  <course>215.97</course>
  <speed>2.314497785697796</speed>
  <fix>3d</fix>
</trkpt>
<trkpt lat="40.0717126" lon="-105.2293211">
  <ele>1583.01</ele>
  <time>2026-08-28T17:49:47Z</time>
  <course>215.97</course>
  <speed>2.314497785697796</speed>
  <fix>3d</fix>
</trkpt>
<trkpt lat="40.0717183" lon="-105.2293166">
  <ele>1583.0</ele>
  <time>2026-08-28T17:49:47Z</time>
  <course>204.63</course>
  <speed>2.06</speed>
  <fix>3d</fix>
</trkpt>
<trkpt lat="40.0717113" lon="-105.2293224">
  <ele>1583.01</ele>
  <time>2026-08-28T17:49:47Z</time>
  <course>217.84</course>
  <speed>2.374215659960148</speed>
  <fix>3d</fix>
</trkpt>
<trkpt lat="40.071711" lon="-105.2293227">
  <ele>1583.01</ele>
  <time>2026-08-28T17:49:47Z</time>
  <course>218.27</course>
  <speed>2.3864827675891562</speed>
  <fix>3d</fix>
</trkpt>
<trkpt lat="40.071711" lon="-105.2293227">
  <ele>1583.01</ele>
  <time>2026-08-28T17:49:47Z</time>
  <course>218.27</course>
  <speed>2.3864827675891562</speed>
  <fix>3d</fix>
</trkpt>
<trkpt lat="40.071715" lon="-105.229319">
  <ele>1583.0</ele>
  <time>2026-08-28T17:49:47Z</time>
  <course>211.89</course>
  <speed>2.2</speed>
  <fix>3d</fix>
</trkpt>
<trkpt lat="40.0717096" lon="-105.2293241">
  <ele>1583.0</ele>
  <time>2026-08-28T17:49:47Z</time>
  <course>219.85</course>
  <speed>2.450652974209119</speed>
  <fix>3d</fix>
</trkpt>
<trkpt lat="40.0717093" lon="-105.2293245">
  <ele>1583.0</ele>
  <time>2026-08-28T17:49:47Z</time>
  <course>220.21</course>
  <speed>2.4634325645326687</speed>
  <fix>3d</fix>
</trkpt>
<trkpt lat="40.0717093" lon="-105.2293245">
  <ele>1583.0</ele>
  <time>2026-08-28T17:49:47Z</time>
  <course>220.21</course>
  <speed>2.4634325645326687</speed>
  <fix>3d</fix>
</trkpt>
<trkpt lat="40.071715" lon="-105.229319">
  <ele>1583.0</ele>
  <time>2026-08-28T17:49:47Z</time>
  <course>211.89</course>
  <speed>2.2</speed>
  <fix>3d</fix>
</trkpt>
<trkpt lat="40.071708" lon="-105.229326">
  <ele>1583.0</ele>
  <time>2026-08-28T17:49:47Z</time>
  <course>221.54</course>
  <speed>2.5296047122030747</speed>
  <fix>3d</fix>
</trkpt>
<trkpt lat="40.0717076" lon="-105.2293264">
  <ele>1583.0</ele>
  <time>2026-08-28T17:49:47Z</time>
  <course>221.84</course>
  <speed>2.5503333115496885</speed>
  <fix>3d</fix>
</trkpt>
<trkpt lat="40.0717076" lon="-105.2293264">
  <ele>1583.0</ele>
  <time>2026-08-28T17:49:47Z</time>
  <course>221.84</course>
  <speed>2.5503333115496885</speed>
  <fix>3d</fix>
</trkpt>
<trkpt lat="40.0717116" lon="-105.229322">
  <ele>1583.0</ele>
  <time>2026-08-28T17:49:47Z</time>
  <course>217.0</course>
  <speed>2.36</speed>
  <fix>3d</fix>
</trkpt>
<trkpt lat="40.0717063" lon="-105.229328">
  <ele>1583.01</ele>
  <time>2026-08-28T17:49:47Z</time>
  <course>222.94</course>
  <speed>2.6187401551127594</speed>
  <fix>3d</fix>
</trkpt>
<trkpt lat="40.0717059" lon="-105.2293284">
  <ele>1583.01</ele>
  <time>2026-08-28T17:49:47Z</time>
  <course>223.2</course>
  <speed>2.632299375071156</speed>
  <fix>3d</fix>
</trkpt>
<trkpt lat="40.0717059" lon="-105.2293284">
  <ele>1583.01</ele>
  <time>2026-08-28T17:49:47Z</time>
  <course>223.2</course>
  <speed>2.632299375071156</speed>
  <fix>3d</fix>
</trkpt>
<trkpt lat="40.0717082" lon="-105.2293256">
  <ele>1583.0</ele>
  <time>2026-08-28T17:49:47Z</time>
  <course>220.59</course>
  <speed>2.53</speed>
  <fix>3d</fix>
</trkpt>
<trkpt lat="40.0717045" lon="-105.2293301">
  <ele>1583.01</ele>
  <time>2026-08-28T17:49:47Z</time>
  <course>224.12</course>
  <speed>2.708966592632696</speed>
  <fix>3d</fix>
</trkpt>
<trkpt lat="40.0717042" lon="-105.2293305">
  <ele>1583.01</ele>
  <time>2026-08-28T17:49:47Z</time>
  <course>224.33</course>
  <speed>2.7228110474287415</speed>
  <fix>3d</fix>
</trkpt>
<trkpt lat="40.0717042" lon="-105.2293305">
  <ele>1583.01</ele>
  <time>2026-08-28T17:49:47Z</time>
  <course>224.33</course>
  <speed>2.7228110474287415</speed>
  <fix>3d</fix>
</trkpt>
<trkpt lat="40.0717082" lon="-105.2293256">
  <ele>1583.0</ele>
  <time>2026-08-28T17:49:47Z</time>
  <course>220.59</course>
  <speed>2.53</speed>
  <fix>3d</fix>
</trkpt>
<trkpt lat="40.0717035" lon="-105.2293314">
  <ele>1583.01</ele>
  <time>2026-08-28T17:49:47Z</time>
  <course>224.73</course>
  <speed>2.765013562353718</speed>
  <fix>3d</fix>
</trkpt>
<trkpt lat="40.0717028" lon="-105.2293323">
  <ele>1583.01</ele>
  <time>2026-08-28T17:49:47Z</time>
  <course>225.09</course>
  <speed>2.8001785657346927</speed>
  <fix>3d</fix>
</trkpt>
<trkpt lat="40.0717024" lon="-105.2293328">
  <ele>1583.01</ele>
  <time>2026-08-28T17:49:47Z</time>
  <course>225.27</course>
  <speed>2.8213649179076428</speed>
  <fix>3d</fix>
</trkpt>
<trkpt lat="40.0717024" lon="-105.2293328">
  <ele>1583.01</ele>
  <time>2026-08-28T17:49:47Z</time>
  <course>225.27</course>
  <speed>2.8213649179076428</speed>
  <fix>3d</fix>
</trkpt>
<trkpt lat="40.0717047" lon="-105.2293297">
  <ele>1583.0</ele>
  <time>2026-08-28T17:49:47Z</time>
  <course>223.1</course>
  <speed>2.71</speed>
  <fix>3d</fix>
</trkpt>
<trkpt lat="40.071701" lon="-105.2293347">
  <ele>1583.01</ele>
  <time>2026-08-28T17:49:47Z</time>
  <course>225.91</course>
  <speed>2.899275771636772</speed>
  <fix>3d</fix>
</trkpt>
<trkpt lat="40.0717006" lon="-105.2293352">
  <ele>1583.0</ele>
  <time>2026-08-28T17:49:47Z</time>
  <course>226.06</course>
  <speed>2.92056501382866</speed>
  <fix>3d</fix>
</trkpt>
<trkpt lat="40.0717047" lon="-105.2293297">
  <ele>1583.0</ele>
  <time>2026-08-28T17:49:47Z</time>
  <course>223.1</course>
  <speed>2.71</speed>
  <fix>3d</fix>
</trkpt>
<trkpt lat="40.0717002" lon="-105.2293356">
  <ele>1583.0</ele>
  <time>2026-08-28T17:49:47Z</time>
  <course>226.2</course>
  <speed>2.941870153490803</speed>
  <fix>3d</fix>
</trkpt>
<trkpt lat="40.0716995" lon="-105.2293366">
  <ele>1583.0</ele>
  <time>2026-08-28T17:49:47Z</time>
  <course>226.47</course>
  <speed>2.9773310195542586</speed>
  <fix>3d</fix>
</trkpt>
<trkpt lat="40.0716991" lon="-105.2293372">
  <ele>1583.0</ele>
  <time>2026-08-28T17:49:47Z</time>
  <course>226.6</course>
  <speed>2.99866637023861</speed>
  <fix>3d</fix>
</trkpt>
<trkpt lat="40.0716987" lon="-105.2293377">
  <ele>1583.0</ele>
  <time>2026-08-28T17:49:47Z</time>
  <course>226.72</course>
  <speed>3.0200165562460084</speed>
  <fix>3d</fix>
</trkpt>
<trkpt lat="40.0716987" lon="-105.2293377">
  <ele>1583.0</ele>
  <time>2026-08-28T17:49:47Z</time>
  <course>226.72</course>
  <speed>3.0200165562460084</speed>
  <fix>3d</fix>
</trkpt>
<trkpt lat="40.0717011" lon="-105.2293343">
  <ele>1583.0</ele>
  <time>2026-08-28T17:49:47Z</time>
  <course>224.85</course>
  <speed>2.91</speed>
  <fix>3d</fix>
</trkpt>
<trkpt lat="40.0716972" lon="-105.2293397">
  <ele>1583.0</ele>
  <time>2026-08-28T17:49:47Z</time>
  <course>227.16</course>
  <speed>3.1055595309058237</speed>
  <fix>3d</fix>
</trkpt>
<trkpt lat="40.0716968" lon="-105.2293403">
  <ele>1583.0</ele>
  <time>2026-08-28T17:49:47Z</time>
  <course>227.26</course>
  <speed>3.1196954979613</speed>
  <fix>3d</fix>
</trkpt>
<trkpt lat="40.0716968" lon="-105.2293403">
  <ele>1583.0</ele>
  <time>2026-08-28T17:49:47Z</time>
  <course>227.26</course>
  <speed>3.1196954979613</speed>
  <fix>3d</fix>
</trkpt>
<trkpt lat="40.0717011" lon="-105.2293343">
  <ele>1583.0</ele>
  <time>2026-08-28T17:49:47Z</time>
  <course>224.85</course>
  <speed>2.91</speed>
  <fix>3d</fix>
</trkpt>
<trkpt lat="40.0716952" lon="-105.2293425">
  <ele>1582.99</ele>
  <time>2026-08-28T17:49:47Z</time>
  <course>227.63</course>
  <speed>3.2122577729690374</speed>
  <fix>3d</fix>
</trkpt>
<trkpt lat="40.0716948" lon="-105.229343">
  <ele>1582.99</ele>
  <time>2026-08-28T17:49:47Z</time>
  <course>227.71</course>
  <speed>3.233713036124263</speed>
  <fix>3d</fix>
</trkpt>
<trkpt lat="40.0716948" lon="-105.229343">
  <ele>1582.99</ele>
  <time>2026-08-28T17:49:47Z</time>
  <course>227.71</course>
  <speed>3.233713036124263</speed>
  <fix>3d</fix>
</trkpt>
<trkpt lat="40.0716973" lon="-105.2293393">
  <ele>1583.0</ele>
  <time>2026-08-28T17:49:47Z</time>
  <course>226.06</course>
  <speed>3.11</speed>
  <fix>3d</fix>
</trkpt>
<trkpt lat="40.071694" lon="-105.2293441">
  <ele>1582.99</ele>
  <time>2026-08-28T17:49:47Z</time>
  <course>227.86</course>
  <speed>3.2693118541980666</speed>
  <fix>3d</fix>
</trkpt>
<trkpt lat="40.0716932" lon="-105.2293453">
  <ele>1582.99</ele>
  <time>2026-08-28T17:49:47Z</time>
  <course>228.01</course>
  <speed>3.312280181385627</speed>
  <fix>3d</fix>
</trkpt>
<trkpt lat="40.0716928" lon="-105.2293459">
  <ele>1582.99</ele>
  <time>2026-08-28T17:49:47Z</time>
  <course>228.07</course>
  <speed>3.333781636520305</speed>
  <fix>3d</fix>
</trkpt>
<trkpt lat="40.0716928" lon="-105.2293459">
  <ele>1582.99</ele>
  <time>2026-08-28T17:49:47Z</time>
  <course>228.07</course>
  <speed>3.333781636520305</speed>
  <fix>3d</fix>
</trkpt>
<trkpt lat="40.0716973" lon="-105.2293393">
  <ele>1583.0</ele>
  <time>2026-08-28T17:49:47Z</time>
  <course>226.06</course>
  <speed>3.11</speed>
  <fix>3d</fix>
</trkpt>
<trkpt lat="40.0716911" lon="-105.2293482">
  <ele>1582.99</ele>
  <time>2026-08-28T17:49:47Z</time>
  <course>228.31</course>
  <speed>3.4191958118832564</speed>
  <fix>3d</fix>
</trkpt>
<trkpt lat="40.0716907" lon="-105.2293488">
  <ele>1582.99</ele>
  <time>2026-08-28T17:49:47Z</time>
  <course>228.36</course>
  <speed>3.4407266674352384</speed>
  <fix>3d</fix>
</trkpt>
<trkpt lat="40.0716933" lon="-105.2293448">
  <ele>1583.0</ele>
  <time>2026-08-28T17:49:47Z</time>
  <course>226.87</course>
  <speed>3.32</speed>
  <fix>3d</fix>
</trkpt>
<trkpt lat="40.0716903" lon="-105.2293494">
  <ele>1582.99</ele>
  <time>2026-08-28T17:49:47Z</time>
  <course>228.42</course>
  <speed>3.4689767943876477</speed>
  <fix>3d</fix>
</trkpt>
<trkpt lat="40.071689" lon="-105.2293512">
  <ele>1582.99</ele>
  <time>2026-08-28T17:49:47Z</time>
  <course>228.56</course>
  <speed>3.5328883367579</speed>
  <fix>3d</fix>
</trkpt>
<trkpt lat="40.0716886" lon="-105.2293519">
  <ele>1583.0</ele>
  <time>2026-08-28T17:49:47Z</time>
  <course>228.61</course>
  <speed>3.554433850840384</speed>
  <fix>3d</fix>
</trkpt>
<trkpt lat="40.0716886" lon="-105.2293519">
  <ele>1583.0</ele>
  <time>2026-08-28T17:49:47Z</time>
  <course>228.61</course>
  <speed>3.554433850840384</speed>
  <fix>3d</fix>
</trkpt>
<trkpt lat="40.0716933" lon="-105.2293448">
  <ele>1583.0</ele>
  <time>2026-08-28T17:49:47Z</time>
  <course>226.87</course>
  <speed>3.32</speed>
  <fix>3d</fix>
</trkpt>
<trkpt lat="40.0716868" lon="-105.2293544">
  <ele>1583.0</ele>
  <time>2026-08-28T17:49:47Z</time>
  <course>228.77</course>
  <speed>3.639917581484504</speed>
  <fix>3d</fix>
</trkpt>
<trkpt lat="40.0716864" lon="-105.229355">
  <ele>1583.0</ele>
  <time>2026-08-28T17:49:47Z</time>
  <course>228.81</course>
  <speed>3.6614887682471458</speed>
  <fix>3d</fix>
</trkpt>
<trkpt lat="40.0716891" lon="-105.2293507">
  <ele>1583.0</ele>
  <time>2026-08-28T17:49:47Z</time>
  <course>227.41</course>
  <speed>3.54</speed>
  <fix>3d</fix>
</trkpt>
<trkpt lat="40.0716859" lon="-105.2293557">
  <ele>1583.0</ele>
  <time>2026-08-28T17:49:47Z</time>
  <course>228.84</course>
  <speed>3.6822819012128876</speed>
  <fix>3d</fix>
</trkpt>
<trkpt lat="40.071685" lon="-105.2293569">
  <ele>1583.0</ele>
  <time>2026-08-28T17:49:47Z</time>
  <course>228.9</course>
  <speed>3.7254261501202786</speed>
  <fix>3d</fix>
</trkpt>
<trkpt lat="40.0716841" lon="-105.2293583">
  <ele>1583.0</ele>
  <time>2026-08-28T17:49:47Z</time>
  <course>228.96</course>
  <speed>3.7677844948988257</speed>
  <fix>3d</fix>
</trkpt>
<trkpt lat="40.0716841" lon="-105.2293583">
  <ele>1583.0</ele>
  <time>2026-08-28T17:49:47Z</time>
  <course>228.96</course>
  <speed>3.7677844948988257</speed>
  <fix>3d</fix>
</trkpt>
<trkpt lat="40.0716891" lon="-105.2293507">
  <ele>1583.0</ele>
  <time>2026-08-28T17:49:47Z</time>
  <course>227.41</course>
  <speed>3.54</speed>
  <fix>3d</fix>
</trkpt>
<trkpt lat="40.0716823" lon="-105.2293609">
  <ele>1583.0</ele>
  <time>2026-08-28T17:49:47Z</time>
  <course>229.07</course>
  <speed>3.8533102652135347</speed>
  <fix>3d</fix>
</trkpt>
<trkpt lat="40.0716818" lon="-105.2293616">
  <ele>1583.0</ele>
  <time>2026-08-28T17:49:47Z</time>
  <course>229.09</course>
  <speed>3.8815460837145808</speed>
  <fix>3d</fix>
</trkpt>
<trkpt lat="40.0716818" lon="-105.2293616">
  <ele>1583.0</ele>
  <time>2026-08-28T17:49:47Z</time>
  <course>229.09</course>
  <speed>3.8815460837145808</speed>
  <fix>3d</fix>
</trkpt>
<trkpt lat="40.0716891" lon="-105.2293507">
  <ele>1583.0</ele>
  <time>2026-08-28T17:49:47Z</time>
  <course>227.41</course>
  <speed>3.54</speed>
  <fix>3d</fix>
</trkpt>
<trkpt lat="40.0716804" lon="-105.2293637">
  <ele>1583.0</ele>
  <time>2026-08-28T17:49:47Z</time>
  <course>229.16</course>
  <speed>3.9454910974427504</speed>
  <fix>3d</fix>
</trkpt>
<trkpt lat="40.0716799" lon="-105.2293644">
  <ele>1583.0</ele>
  <time>2026-08-28T17:49:47Z</time>
  <course>229.18</course>
  <speed>3.959608566512604</speed>
  <fix>3d</fix>
</trkpt>
<trkpt lat="40.0716794" lon="-105.2293651">
  <ele>1583.0</ele>
  <time>2026-08-28T17:49:47Z</time>
  <course>229.2</course>
  <speed>3.981205847478877</speed>
  <fix>3d</fix>
</trkpt>
<trkpt lat="40.0716794" lon="-105.2293651">
  <ele>1583.0</ele>
  <time>2026-08-28T17:49:47Z</time>
  <course>229.2</course>
  <speed>3.981205847478877</speed>
  <fix>3d</fix>
</trkpt>
<trkpt lat="40.0716847" lon="-105.2293571">
  <ele>1583.0</ele>
  <time>2026-08-28T17:49:47Z</time>
  <course>227.77</course>
  <speed>3.76</speed>
  <fix>3d</fix>
</trkpt>
<trkpt lat="40.0716775" lon="-105.2293679">
  <ele>1583.0</ele>
  <time>2026-08-28T17:49:47Z</time>
  <course>229.29</course>
  <speed>4.073389252207551</speed>
  <fix>3d</fix>
</trkpt>
<trkpt lat="40.071677" lon="-105.2293686">
  <ele>1583.0</ele>
  <time>2026-08-28T17:49:47Z</time>
  <course>229.3</course>
  <speed>4.087505351678454</speed>
  <fix>3d</fix>
</trkpt>
<trkpt lat="40.071677" lon="-105.2293686">
  <ele>1583.0</ele>
  <time>2026-08-28T17:49:47Z</time>
  <course>229.3</course>
  <speed>4.087505351678454</speed>
  <fix>3d</fix>
</trkpt>
<trkpt lat="40.0716847" lon="-105.2293571">
  <ele>1583.0</ele>
  <time>2026-08-28T17:49:47Z</time>
  <course>227.77</course>
  <speed>3.76</speed>
  <fix>3d</fix>
</trkpt>
<trkpt lat="40.0716755" lon="-105.2293707">
  <ele>1583.0</ele>
  <time>2026-08-28T17:49:47Z</time>
  <course>229.33</course>
  <speed>4.1514575753583225</speed>
  <fix>3d</fix>
</trkpt>
<trkpt lat="40.0716745" lon="-105.2293722">
  <ele>1583.0</ele>
  <time>2026-08-28T17:49:47Z</time>
  <course>229.36</course>
  <speed>4.201297418655337</speed>
  <fix>3d</fix>
</trkpt>
<trkpt lat="40.0716745" lon="-105.2293722">
  <ele>1583.0</ele>
  <time>2026-08-28T17:49:47Z</time>
  <course>229.36</course>
  <speed>4.201297418655337</speed>
  <fix>3d</fix>
</trkpt>
<trkpt lat="40.07168" lon="-105.2293639">
  <ele>1583.0</ele>
  <time>2026-08-28T17:49:47Z</time>
  <course>228.02</course>
  <speed>3.97</speed>
  <fix>3d</fix>
</trkpt>
<trkpt lat="40.0716725" lon="-105.2293751">
  <ele>1583.0</ele>
  <time>2026-08-28T17:49:47Z</time>
  <course>229.4</course>
  <speed>4.2793691123809365</speed>
  <fix>3d</fix>
</trkpt>
<trkpt lat="40.071672" lon="-105.2293759">
  <ele>1583.0</ele>
  <time>2026-08-28T17:49:47Z</time>
  <course>229.41</course>
  <speed>4.307597938526761</speed>
  <fix>3d</fix>
</trkpt>
<trkpt lat="40.071672" lon="-105.2293759">
  <ele>1583.0</ele>
  <time>2026-08-28T17:49:47Z</time>
  <course>229.41</course>
  <speed>4.307597938526761</speed>
  <fix>3d</fix>
</trkpt>
<trkpt lat="40.07168" lon="-105.2293639">
  <ele>1583.0</ele>
  <time>2026-08-28T17:49:47Z</time>
  <course>228.02</course>
  <speed>3.97</speed>
  <fix>3d</fix>
</trkpt>
<trkpt lat="40.0716699" lon="-105.2293789">
  <ele>1583.0</ele>
  <time>2026-08-28T17:49:47Z</time>
  <course>229.46</course>
  <speed>4.385669846215057</speed>
  <fix>3d</fix>
</trkpt>
<trkpt lat="40.0716694" lon="-105.2293797">
  <ele>1583.0</ele>
  <time>2026-08-28T17:49:47Z</time>
  <course>229.47</course>
  <speed>4.407289416410046</speed>
  <fix>3d</fix>
</trkpt>
<trkpt lat="40.0716694" lon="-105.2293797">
  <ele>1583.0</ele>
  <time>2026-08-28T17:49:47Z</time>
  <course>229.47</course>
  <speed>4.407289416410046</speed>
  <fix>3d</fix>
</trkpt>
<trkpt lat="40.0716751" lon="-105.229371">
  <ele>1583.0</ele>
  <time>2026-08-28T17:49:47Z</time>
  <course>228.18</course>
  <speed>4.19</speed>
  <fix>3d</fix>
</trkpt>
<trkpt lat="40.0716678" lon="-105.229382">
  <ele>1583.0</ele>
  <time>2026-08-28T17:49:47Z</time>
  <course>229.51</course>
  <speed>4.47125262091061</speed>
  <fix>3d</fix>
</trkpt>
<trkpt lat="40.0716673" lon="-105.2293828">
  <ele>1583.0</ele>
  <time>2026-08-28T17:49:47Z</time>
  <course>229.51</course>
  <speed>4.491970614329528</speed>
  <fix>3d</fix>
</trkpt>
<trkpt lat="40.0716668" lon="-105.2293836">
  <ele>1583.0</ele>
  <time>2026-08-28T17:49:47Z</time>
  <course>229.51</course>
  <speed>4.513590588434002</speed>
  <fix>3d</fix>
</trkpt>
<trkpt lat="40.0716668" lon="-105.2293836">
  <ele>1583.0</ele>
  <time>2026-08-28T17:49:47Z</time>
  <course>229.51</course>
  <speed>4.513590588434002</speed>
  <fix>3d</fix>
</trkpt>
<trkpt lat="40.0716751" lon="-105.229371">
  <ele>1583.0</ele>
  <time>2026-08-28T17:49:47Z</time>
  <course>228.18</course>
  <speed>4.19</speed>
  <fix>3d</fix>
</trkpt>
<trkpt lat="40.0716651" lon="-105.229386">
  <ele>1583.0</ele>
  <time>2026-08-28T17:49:47Z</time>
  <course>229.51</course>
  <speed>4.570043763466604</speed>
  <fix>3d</fix>
</trkpt>
<trkpt lat="40.0716646" lon="-105.2293868">
  <ele>1583.0</ele>
  <time>2026-08-28T17:49:47Z</time>
  <course>229.52</course>
  <speed>4.598271414346917</speed>
  <fix>3d</fix>
</trkpt>
<trkpt lat="40.071664" lon="-105.2293876">
  <ele>1583.0</ele>
  <time>2026-08-28T17:49:47Z</time>
  <course>229.52</course>
  <speed>4.61989177362414</speed>
  <fix>3d</fix>
</trkpt>
<trkpt lat="40.071664" lon="-105.2293876">
  <ele>1583.0</ele>
  <time>2026-08-28T17:49:47Z</time>
  <course>229.52</course>
  <speed>4.61989177362414</speed>
  <fix>3d</fix>
</trkpt>
<trkpt lat="40.07167" lon="-105.2293785">
  <ele>1583.0</ele>
  <time>2026-08-28T17:49:47Z</time>
  <course>228.28</course>
  <speed>4.4</speed>
  <fix>3d</fix>
</trkpt>
<trkpt lat="40.0716624" lon="-105.22939">
  <ele>1583.0</ele>
  <time>2026-08-28T17:49:47Z</time>
  <course>229.52</course>
  <speed>4.676344726386198</speed>
  <fix>3d</fix>
</trkpt>
<trkpt lat="40.0716612" lon="-105.2293917">
  <ele>1583.0</ele>
  <time>2026-08-28T17:49:47Z</time>
  <course>229.52</course>
  <speed>4.718686257847622</speed>
  <fix>3d</fix>
</trkpt>
<trkpt lat="40.0716612" lon="-105.2293917">
  <ele>1583.0</ele>
  <time>2026-08-28T17:49:47Z</time>
  <course>229.52</course>
  <speed>4.718686257847622</speed>
  <fix>3d</fix>
</trkpt>
<trkpt lat="40.0716646" lon="-105.2293864">
  <ele>1583.0</ele>
  <time>2026-08-28T17:49:47Z</time>
  <course>228.33</course>
  <speed>4.62</speed>
  <fix>3d</fix>
</trkpt>
<trkpt lat="40.0716595" lon="-105.2293942">
  <ele>1583.0</ele>
  <time>2026-08-28T17:49:47Z</time>
  <course>229.52</course>
  <speed>4.782645711319207</speed>
  <fix>3d</fix>
</trkpt>
<trkpt lat="40.071659" lon="-105.2293951">
  <ele>1583.0</ele>
  <time>2026-08-28T17:49:47Z</time>
  <course>229.52</course>
  <speed>4.810873101631345</speed>
  <fix>3d</fix>
</trkpt>
<trkpt lat="40.0716584" lon="-105.2293959">
  <ele>1583.0</ele>
  <time>2026-08-28T17:49:47Z</time>
  <course>229.52</course>
  <speed>4.824987046614736</speed>
  <fix>3d</fix>
</trkpt>
<trkpt lat="40.0716584" lon="-105.2293959">
  <ele>1583.0</ele>
  <time>2026-08-28T17:49:47Z</time>
  <course>229.52</course>
  <speed>4.824987046614736</speed>
  <fix>3d</fix>
</trkpt>
<trkpt lat="40.0716646" lon="-105.2293864">
  <ele>1583.0</ele>
  <time>2026-08-28T17:49:47Z</time>
  <course>228.33</course>
  <speed>4.62</speed>
  <fix>3d</fix>
</trkpt>
<trkpt lat="40.071656" lon="-105.2293993">
  <ele>1583.0</ele>
  <time>2026-08-28T17:49:47Z</time>
  <course>229.53</course>
  <speed>4.917173985126009</speed>
  <fix>3d</fix>
</trkpt>
<trkpt lat="40.0716555" lon="-105.2294002">
  <ele>1583.0</ele>
  <time>2026-08-28T17:49:47Z</time>
  <course>229.53</course>
  <speed>4.931287864239929</speed>
  <fix>3d</fix>
</trkpt>
<trkpt lat="40.0716555" lon="-105.2294002">
  <ele>1583.0</ele>
  <time>2026-08-28T17:49:47Z</time>
  <course>229.53</course>
  <speed>4.931287864239929</speed>
  <fix>3d</fix>
</trkpt>
<trkpt lat="40.0716589" lon="-105.2293947">
  <ele>1583.0</ele>
  <time>2026-08-28T17:49:47Z</time>
  <course>228.34</course>
  <speed>4.83</speed>
  <fix>3d</fix>
</trkpt>
<trkpt lat="40.0716531" lon="-105.2294037">
  <ele>1583.0</ele>
  <time>2026-08-28T17:49:47Z</time>
  <course>229.52</course>
  <speed>5.015974481593781</speed>
  <fix>3d</fix>
</trkpt>
<trkpt lat="40.0716524" lon="-105.2294046">
  <ele>1583.0</ele>
  <time>2026-08-28T17:49:47Z</time>
  <course>229.52</course>
  <speed>5.03758870889635</speed>
  <fix>3d</fix>
</trkpt>
<trkpt lat="40.0716524" lon="-105.2294046">
  <ele>1583.0</ele>
  <time>2026-08-28T17:49:47Z</time>
  <course>229.52</course>
  <speed>5.03758870889635</speed>
  <fix>3d</fix>
</trkpt>
<trkpt lat="40.0716589" lon="-105.2293947">
  <ele>1583.0</ele>
  <time>2026-08-28T17:49:47Z</time>
  <course>228.34</course>
  <speed>4.83</speed>
  <fix>3d</fix>
</trkpt>
<trkpt lat="40.07165" lon="-105.2294082">
  <ele>1583.0</ele>
  <time>2026-08-28T17:49:47Z</time>
  <course>229.52</course>
  <speed>5.1222748852438595</speed>
  <fix>3d</fix>
</trkpt>
<trkpt lat="40.0716494" lon="-105.2294091">
  <ele>1583.0</ele>
  <time>2026-08-28T17:49:47Z</time>
  <course>229.52</course>
  <speed>5.13638978271704</speed>
  <fix>3d</fix>
</trkpt>
<trkpt lat="40.0716494" lon="-105.2294091">
  <ele>1583.0</ele>
  <time>2026-08-28T17:49:47Z</time>
  <course>229.52</course>
  <speed>5.13638978271704</speed>
  <fix>3d</fix>
</trkpt>
<trkpt lat="40.0716531" lon="-105.2294034">
  <ele>1583.0</ele>
  <time>2026-08-28T17:49:47Z</time>
  <course>228.34</course>
  <speed>5.03</speed>
  <fix>3d</fix>
</trkpt>
<trkpt lat="40.0716481" lon="-105.2294109">
  <ele>1583.0</ele>
  <time>2026-08-28T17:49:47Z</time>
  <course>229.52</course>
  <speed>5.172117554735198</speed>
  <fix>3d</fix>
</trkpt>
<trkpt lat="40.0716469" lon="-105.2294128">
  <ele>1583.0</ele>
  <time>2026-08-28T17:49:47Z</time>
  <course>229.52</course>
  <speed>5.214460662427132</speed>
  <fix>3d</fix>
</trkpt>
<trkpt lat="40.0716462" lon="-105.2294137">
  <ele>1583.0</ele>
  <time>2026-08-28T17:49:47Z</time>
  <course>229.52</course>
  <speed>5.228575331770596</speed>
  <fix>3d</fix>
</trkpt>
<trkpt lat="40.0716462" lon="-105.2294137">
  <ele>1583.0</ele>
  <time>2026-08-28T17:49:47Z</time>
  <course>229.52</course>
  <speed>5.228575331770596</speed>
  <fix>3d</fix>
</trkpt>
<trkpt lat="40.0716531" lon="-105.2294034">
  <ele>1583.0</ele>
  <time>2026-08-28T17:49:47Z</time>
  <course>228.34</course>
  <speed>5.03</speed>
  <fix>3d</fix>
</trkpt>
<trkpt lat="40.0716437" lon="-105.2294174">
  <ele>1583.0</ele>
  <time>2026-08-28T17:49:47Z</time>
  <course>229.52</course>
  <speed>5.2850354776481865</speed>
  <fix>3d</fix>
</trkpt>
<trkpt lat="40.0716431" lon="-105.2294184">
  <ele>1583.0</ele>
  <time>2026-08-28T17:49:47Z</time>
  <course>229.53</course>
  <speed>5.292532475101122</speed>
  <fix>3d</fix>
</trkpt>
<trkpt lat="40.0716431" lon="-105.2294184">
  <ele>1583.0</ele>
  <time>2026-08-28T17:49:47Z</time>
  <course>229.53</course>
  <speed>5.292532475101122</speed>
  <fix>3d</fix>
</trkpt>
<trkpt lat="40.0716469" lon="-105.2294124">
  <ele>1583.0</ele>
  <time>2026-08-28T17:49:47Z</time>
  <course>228.34</course>
  <speed>5.21</speed>
  <fix>3d</fix>
</trkpt>
<trkpt lat="40.0716398" lon="-105.2294231">
  <ele>1583.0</ele>
  <time>2026-08-28T17:49:47Z</time>
  <course>229.53</course>
  <speed>5.348990558974656</speed>
  <fix>3d</fix>
</trkpt>
<trkpt lat="40.0716398" lon="-105.2294231">
  <ele>1583.0</ele>
  <time>2026-08-28T17:49:47Z</time>
  <course>229.53</course>
  <speed>5.348990558974656</speed>
  <fix>3d</fix>
</trkpt>
<trkpt lat="40.0716469" lon="-105.2294124">
  <ele>1583.0</ele>
  <time>2026-08-28T17:49:47Z</time>
  <course>228.34</course>
  <speed>5.21</speed>
  <fix>3d</fix>
</trkpt>
<trkpt lat="40.0716372" lon="-105.2294269">
  <ele>1583.0</ele>
  <time>2026-08-28T17:49:47Z</time>
  <course>229.53</course>
  <speed>5.377220471581949</speed>
  <fix>3d</fix>
</trkpt>
<trkpt lat="40.0716366" lon="-105.2294279">
  <ele>1583.0</ele>
  <time>2026-08-28T17:49:47Z</time>
  <course>229.53</course>
  <speed>5.391335641564157</speed>
  <fix>3d</fix>
</trkpt>
<trkpt lat="40.0716366" lon="-105.2294279">
  <ele>1583.0</ele>
  <time>2026-08-28T17:49:47Z</time>
  <course>229.53</course>
  <speed>5.391335641564157</speed>
  <fix>3d</fix>
</trkpt>
<trkpt lat="40.0716406" lon="-105.2294216">
  <ele>1583.0</ele>
  <time>2026-08-28T17:49:47Z</time>
  <course>228.34</course>
  <speed>5.33</speed>
  <fix>3d</fix>
</trkpt>
<trkpt lat="40.0716346" lon="-105.2294308">
  <ele>1583.01</ele>
  <time>2026-08-28T17:49:47Z</time>
  <course>229.53</course>
  <speed>5.405450952510807</speed>
  <fix>3d</fix>
</trkpt>
<trkpt lat="40.0716333" lon="-105.2294327">
  <ele>1583.01</ele>
  <time>2026-08-28T17:49:47Z</time>
  <course>229.53</course>
  <speed>5.412079082940307</speed>
  <fix>3d</fix>
</trkpt>
<trkpt lat="40.0716333" lon="-105.2294327">
  <ele>1583.01</ele>
  <time>2026-08-28T17:49:47Z</time>
  <course>229.53</course>
  <speed>5.412079082940307</speed>
  <fix>3d</fix>
</trkpt>
<trkpt lat="40.0716406" lon="-105.2294216">
  <ele>1583.0</ele>
  <time>2026-08-28T17:49:47Z</time>
  <course>228.34</course>
  <speed>5.33</speed>
  <fix>3d</fix>
</trkpt>
<trkpt lat="40.0716313" lon="-105.2294356">
  <ele>1583.01</ele>
  <time>2026-08-28T17:49:47Z</time>
  <course>229.53</course>
  <speed>5.419566403320472</speed>
  <fix>3d</fix>
</trkpt>
<trkpt lat="40.07163" lon="-105.2294375">
  <ele>1583.01</ele>
  <time>2026-08-28T17:49:47Z</time>
  <course>229.53</course>
  <speed>5.426195720760541</speed>
  <fix>3d</fix>
</trkpt>
<trkpt lat="40.07163" lon="-105.2294375">
  <ele>1583.01</ele>
  <time>2026-08-28T17:49:47Z</time>
  <course>229.53</course>
  <speed>5.426195720760541</speed>
  <fix>3d</fix>
</trkpt>
<trkpt lat="40.0716342" lon="-105.2294311">
  <ele>1583.0</ele>
  <time>2026-08-28T17:49:47Z</time>
  <course>228.34</course>
  <speed>5.39</speed>
  <fix>3d</fix>
</trkpt>
<trkpt lat="40.0716274" lon="-105.2294413">
  <ele>1583.01</ele>
  <time>2026-08-28T17:49:47Z</time>
  <course>229.53</course>
  <speed>5.433681992903155</speed>
  <fix>3d</fix>
</trkpt>
<trkpt lat="40.0716268" lon="-105.2294423">
  <ele>1583.01</ele>
  <time>2026-08-28T17:49:47Z</time>
  <course>229.53</course>
  <speed>5.433681992903155</speed>
  <fix>3d</fix>
</trkpt>
<trkpt lat="40.0716342" lon="-105.2294311">
  <ele>1583.0</ele>
  <time>2026-08-28T17:49:47Z</time>
  <course>228.34</course>
  <speed>5.39</speed>
  <fix>3d</fix>
</trkpt>
<trkpt lat="40.0716261" lon="-105.2294432">
  <ele>1583.02</ele>
  <time>2026-08-28T17:49:47Z</time>
  <course>229.53</course>
  <speed>5.426195720760541</speed>
  <fix>3d</fix>
</trkpt>
<trkpt lat="40.0716242" lon="-105.2294461">
  <ele>1583.02</ele>
  <time>2026-08-28T17:49:47Z</time>
  <course>229.53</course>
  <speed>5.426195720760541</speed>
  <fix>3d</fix>
</trkpt>
<trkpt lat="40.0716235" lon="-105.229447">
  <ele>1583.02</ele>
  <time>2026-08-28T17:49:47Z</time>
  <course>229.53</course>
  <speed>5.426195720760541</speed>
  <fix>3d</fix>
</trkpt>
<trkpt lat="40.0716235" lon="-105.229447">
  <ele>1583.02</ele>
  <time>2026-08-28T17:49:47Z</time>
  <course>229.53</course>
  <speed>5.426195720760541</speed>
  <fix>3d</fix>
</trkpt>
<trkpt lat="40.0716277" lon="-105.2294406">
  <ele>1583.0</ele>
  <time>2026-08-28T17:49:47Z</time>
  <course>228.34</course>
  <speed>5.41</speed>
  <fix>3d</fix>
</trkpt>
<trkpt lat="40.0716202" lon="-105.2294518">
  <ele>1583.02</ele>
  <time>2026-08-28T17:49:47Z</time>
  <course>229.53</course>
  <speed>5.412079082940307</speed>
  <fix>3d</fix>
</trkpt>
<trkpt lat="40.0716202" lon="-105.2294518">
  <ele>1583.02</ele>
  <time>2026-08-28T17:49:47Z</time>
  <course>229.53</course>
  <speed>5.412079082940307</speed>
  <fix>3d</fix>
</trkpt>
<trkpt lat="40.0716277" lon="-105.2294406">
  <ele>1583.0</ele>
  <time>2026-08-28T17:49:47Z</time>
  <course>228.34</course>
  <speed>5.41</speed>
  <fix>3d</fix>
</trkpt>
<trkpt lat="40.0716189" lon="-105.2294537">
  <ele>1583.02</ele>
  <time>2026-08-28T17:49:47Z</time>
  <course>229.53</course>
  <speed>5.4045998926840095</speed>
  <fix>3d</fix>
</trkpt>
<trkpt lat="40.0716183" lon="-105.2294547">
  <ele>1583.02</ele>
  <time>2026-08-28T17:49:47Z</time>
  <course>229.53</course>
  <speed>5.3979625786031535</speed>
  <fix>3d</fix>
</trkpt>
<trkpt lat="40.0716176" lon="-105.2294556">
  <ele>1583.02</ele>
  <time>2026-08-28T17:49:47Z</time>
  <course>229.53</course>
  <speed>5.390482353185103</speed>
  <fix>3d</fix>
</trkpt>
<trkpt lat="40.071617" lon="-105.2294566">
  <ele>1583.02</ele>
  <time>2026-08-28T17:49:47Z</time>
  <course>229.53</course>
  <speed>5.390482353185103</speed>
  <fix>3d</fix>
</trkpt>
<trkpt lat="40.071617" lon="-105.2294566">
  <ele>1583.02</ele>
  <time>2026-08-28T17:49:47Z</time>
  <course>229.53</course>
  <speed>5.390482353185103</speed>
  <fix>3d</fix>
</trkpt>
<trkpt lat="40.0716277" lon="-105.2294406">
  <ele>1583.0</ele>
  <time>2026-08-28T17:49:47Z</time>
  <course>228.34</course>
  <speed>5.41</speed>
  <fix>3d</fix>
</trkpt>
<trkpt lat="40.0716144" lon="-105.2294603">
  <ele>1583.02</ele>
  <time>2026-08-28T17:49:47Z</time>
  <course>229.53</course>
  <speed>5.368891878218446</speed>
  <fix>3d</fix>
</trkpt>
<trkpt lat="40.0716138" lon="-105.2294613">
  <ele>1583.02</ele>
  <time>2026-08-28T17:49:47Z</time>
  <course>229.53</course>
  <speed>5.362247663060706</speed>
  <fix>3d</fix>
</trkpt>
<trkpt lat="40.0716138" lon="-105.2294613">
  <ele>1583.02</ele>
  <time>2026-08-28T17:49:47Z</time>
  <course>229.53</course>
  <speed>5.362247663060706</speed>
  <fix>3d</fix>
</trkpt>
<trkpt lat="40.0716212" lon="-105.2294501">
  <ele>1583.0</ele>
  <time>2026-08-28T17:49:47Z</time>
  <course>228.34</course>
  <speed>5.39</speed>
  <fix>3d</fix>
</trkpt>
<trkpt lat="40.0716112" lon="-105.229465">
  <ele>1583.02</ele>
  <time>2026-08-28T17:49:47Z</time>
  <course>229.54</course>
  <speed>5.3406553904928185</speed>
  <fix>3d</fix>
</trkpt>
<trkpt lat="40.0716106" lon="-105.2294659">
  <ele>1583.02</ele>
  <time>2026-08-28T17:49:47Z</time>
  <course>229.54</course>
  <speed>5.326537336769545</speed>
  <fix>3d</fix>
</trkpt>
<trkpt lat="40.0716106" lon="-105.2294659">
  <ele>1583.02</ele>
  <time>2026-08-28T17:49:47Z</time>
  <course>229.54</course>
  <speed>5.326537336769545</speed>
  <fix>3d</fix>
</trkpt>
<trkpt lat="40.0716212" lon="-105.2294501">
  <ele>1583.0</ele>
  <time>2026-08-28T17:49:47Z</time>
  <course>228.34</course>
  <speed>5.39</speed>
  <fix>3d</fix>
</trkpt>
<trkpt lat="40.0716081" lon="-105.2294696">
  <ele>1583.02</ele>
  <time>2026-08-28T17:49:47Z</time>
  <course>229.54</course>
  <speed>5.30495051814812</speed>
  <fix>3d</fix>
</trkpt>
<trkpt lat="40.0716075" lon="-105.2294705">
  <ele>1583.02</ele>
  <time>2026-08-28T17:49:47Z</time>
  <course>229.54</course>
  <speed>5.29830161466861</speed>
  <fix>3d</fix>
</trkpt>
<trkpt lat="40.0716075" lon="-105.2294705">
  <ele>1583.02</ele>
  <time>2026-08-28T17:49:47Z</time>
  <course>229.54</course>
  <speed>5.29830161466861</speed>
  <fix>3d</fix>
</trkpt>
<trkpt lat="40.0716149" lon="-105.2294595">
  <ele>1583.0</ele>
  <time>2026-08-28T17:49:47Z</time>
  <course>228.34</course>
  <speed>5.35</speed>
  <fix>3d</fix>
</trkpt>
<trkpt lat="40.0716049" lon="-105.2294742">
  <ele>1583.02</ele>
  <time>2026-08-28T17:49:47Z</time>
  <course>229.54</course>
  <speed>5.2700664132437645</speed>
  <fix>3d</fix>
</trkpt>
<trkpt lat="40.0716043" lon="-105.2294751">
  <ele>1583.02</ele>
  <time>2026-08-28T17:49:47Z</time>
  <course>229.54</course>
  <speed>5.262594417205263</speed>
  <fix>3d</fix>
</trkpt>
<trkpt lat="40.0716043" lon="-105.2294751">
  <ele>1583.02</ele>
  <time>2026-08-28T17:49:47Z</time>
  <course>229.54</course>
  <speed>5.262594417205263</speed>
  <fix>3d</fix>
</trkpt>
<trkpt lat="40.0716149" lon="-105.2294595">
  <ele>1583.0</ele>
  <time>2026-08-28T17:49:47Z</time>
  <course>228.34</course>
  <speed>5.35</speed>
  <fix>3d</fix>
</trkpt>
<trkpt lat="40.0716018" lon="-105.2294787">
  <ele>1583.01</ele>
  <time>2026-08-28T17:49:47Z</time>
  <course>229.54</course>
  <speed>5.234357649224974</speed>
  <fix>3d</fix>
</trkpt>
<trkpt lat="40.0716012" lon="-105.2294796">
  <ele>1583.01</ele>
  <time>2026-08-28T17:49:47Z</time>
  <course>229.54</course>
  <speed>5.226892001945324</speed>
  <fix>3d</fix>
</trkpt>
<trkpt lat="40.0716012" lon="-105.2294796">
  <ele>1583.01</ele>
  <time>2026-08-28T17:49:47Z</time>
  <course>229.54</course>
  <speed>5.226892001945324</speed>
  <fix>3d</fix>
</trkpt>
<trkpt lat="40.0716084" lon="-105.2294688">
  <ele>1583.0</ele>
  <time>2026-08-28T17:49:47Z</time>
  <course>228.34</course>
  <speed>5.29</speed>
  <fix>3d</fix>
</trkpt>
<trkpt lat="40.0715987" lon="-105.2294833">
  <ele>1583.01</ele>
  <time>2026-08-28T17:49:47Z</time>
  <course>229.5</course>
  <speed>5.198653671865438</speed>
  <fix>3d</fix>
</trkpt>
<trkpt lat="40.0715981" lon="-105.2294842">
  <ele>1583.01</ele>
  <time>2026-08-28T17:49:47Z</time>
  <course>229.5</course>
  <speed>5.191194467557539</speed>
  <fix>3d</fix>
</trkpt>
<trkpt lat="40.0715981" lon="-105.2294842">
  <ele>1583.01</ele>
  <time>2026-08-28T17:49:47Z</time>
  <course>229.5</course>
  <speed>5.191194467557539</speed>
  <fix>3d</fix>
</trkpt>
<trkpt lat="40.0716022" lon="-105.2294781">
  <ele>1583.0</ele>
  <time>2026-08-28T17:49:47Z</time>
  <course>228.32</course>
  <speed>5.23</speed>
  <fix>3d</fix>
</trkpt>
<trkpt lat="40.0715956" lon="-105.2294878">
  <ele>1583.01</ele>
  <time>2026-08-28T17:49:47Z</time>
  <course>229.48</course>
  <speed>5.162954580470373</speed>
  <fix>3d</fix>
</trkpt>
<trkpt lat="40.071595" lon="-105.2294887">
  <ele>1583.01</ele>
  <time>2026-08-28T17:49:47Z</time>
  <course>229.46</course>
  <speed>5.155501915429768</speed>
  <fix>3d</fix>
</trkpt>
<trkpt lat="40.071595" lon="-105.2294887">
  <ele>1583.01</ele>
  <time>2026-08-28T17:49:47Z</time>
  <course>229.46</course>
  <speed>5.155501915429768</speed>
  <fix>3d</fix>
</trkpt>
<trkpt lat="40.0716022" lon="-105.2294781">
  <ele>1583.0</ele>
  <time>2026-08-28T17:49:47Z</time>
  <course>228.32</course>
  <speed>5.23</speed>
  <fix>3d</fix>
</trkpt>
<trkpt lat="40.0715919" lon="-105.2294932">
  <ele>1583.0</ele>
  <time>2026-08-28T17:49:47Z</time>
  <course>229.42</course>
  <speed>5.127260477096907</speed>
  <fix>3d</fix>
</trkpt>
<trkpt lat="40.0715919" lon="-105.2294932">
  <ele>1583.0</ele>
  <time>2026-08-28T17:49:47Z</time>
  <course>229.42</course>
  <speed>5.127260477096907</speed>
  <fix>3d</fix>
</trkpt>
<trkpt lat="40.071596" lon="-105.2294872">
  <ele>1583.0</ele>
  <time>2026-08-28T17:49:47Z</time>
  <course>228.25</course>
  <speed>5.17</speed>
  <fix>3d</fix>
</trkpt>
<trkpt lat="40.0715913" lon="-105.2294941">
  <ele>1583.0</ele>
  <time>2026-08-28T17:49:47Z</time>
  <course>229.41</course>
  <speed>5.119814449762804</speed>
  <fix>3d</fix>
</trkpt>
<trkpt lat="40.0715901" lon="-105.2294959">
  <ele>1583.0</ele>
  <time>2026-08-28T17:49:47Z</time>
  <course>229.38</course>
  <speed>5.1056929010664165</speed>
  <fix>3d</fix>
</trkpt>
<trkpt lat="40.0715895" lon="-105.2294967">
  <ele>1583.0</ele>
  <time>2026-08-28T17:49:47Z</time>
  <course>229.37</course>
  <speed>5.09825460329317</speed>
  <fix>3d</fix>
</trkpt>
<trkpt lat="40.0715889" lon="-105.2294976">
  <ele>1583.0</ele>
  <time>2026-08-28T17:49:47Z</time>
  <course>229.36</course>
  <speed>5.09825460329317</speed>
  <fix>3d</fix>
</trkpt>
<trkpt lat="40.0715889" lon="-105.2294976">
  <ele>1583.0</ele>
  <time>2026-08-28T17:49:47Z</time>
  <course>229.36</course>
  <speed>5.09825460329317</speed>
  <fix>3d</fix>
</trkpt>
<trkpt lat="40.071596" lon="-105.2294872">
  <ele>1583.0</ele>
  <time>2026-08-28T17:49:47Z</time>
  <course>228.25</course>
  <speed>5.17</speed>
  <fix>3d</fix>
</trkpt>
<trkpt lat="40.0715864" lon="-105.2295012">
  <ele>1583.0</ele>
  <time>2026-08-28T17:49:47Z</time>
  <course>229.3</course>
  <speed>5.076701685149523</speed>
  <fix>3d</fix>
</trkpt>
<trkpt lat="40.0715858" lon="-105.229502">
  <ele>1583.0</ele>
  <time>2026-08-28T17:49:47Z</time>
  <course>229.29</course>
  <speed>5.070009861923348</speed>
  <fix>3d</fix>
</trkpt>
<trkpt lat="40.0715858" lon="-105.229502">
  <ele>1583.0</ele>
  <time>2026-08-28T17:49:47Z</time>
  <course>229.29</course>
  <speed>5.070009861923348</speed>
  <fix>3d</fix>
</trkpt>
<trkpt lat="40.0715898" lon="-105.2294962">
  <ele>1583.0</ele>
  <time>2026-08-28T17:49:47Z</time>
  <course>228.14</course>
  <speed>5.11</speed>
  <fix>3d</fix>
</trkpt>
<trkpt lat="40.071584" lon="-105.2295047">
  <ele>1583.0</ele>
  <time>2026-08-28T17:49:47Z</time>
  <course>229.25</course>
  <speed>5.055155783949689</speed>
  <fix>3d</fix>
</trkpt>
<trkpt lat="40.0715834" lon="-105.2295056">
  <ele>1583.0</ele>
  <time>2026-08-28T17:49:47Z</time>
  <course>229.23</course>
  <speed>5.055155783949689</speed>
  <fix>3d</fix>
</trkpt>
<trkpt lat="40.0715828" lon="-105.2295065">
  <ele>1583.0</ele>
  <time>2026-08-28T17:49:47Z</time>
  <course>229.22</course>
  <speed>5.041031640448213</speed>
  <fix>3d</fix>
</trkpt>
<trkpt lat="40.0715898" lon="-105.2294962">
  <ele>1583.0</ele>
  <time>2026-08-28T17:49:47Z</time>
  <course>228.14</course>
  <speed>5.11</speed>
  <fix>3d</fix>
</trkpt>
<trkpt lat="40.0715821" lon="-105.2295074">
  <ele>1583.0</ele>
  <time>2026-08-28T17:49:47Z</time>
  <course>229.21</course>
  <speed>5.041031640448213</speed>
  <fix>3d</fix>
</trkpt>
<trkpt lat="40.0715803" lon="-105.22951">
  <ele>1583.0</ele>
  <time>2026-08-28T17:49:47Z</time>
  <course>229.17</course>
  <speed>5.026907598116361</speed>
  <fix>3d</fix>
</trkpt>
<trkpt lat="40.0715797" lon="-105.2295109">
  <ele>1583.0</ele>
  <time>2026-08-28T17:49:47Z</time>
  <course>229.15</course>
  <speed>5.019492006169548</speed>
  <fix>3d</fix>
</trkpt>
<trkpt lat="40.0715797" lon="-105.2295109">
  <ele>1583.0</ele>
  <time>2026-08-28T17:49:47Z</time>
  <course>229.15</course>
  <speed>5.019492006169548</speed>
  <fix>3d</fix>
</trkpt>
<trkpt lat="40.0715837" lon="-105.229505">
  <ele>1583.0</ele>
  <time>2026-08-28T17:49:47Z</time>
  <course>228.0</course>
  <speed>5.06</speed>
  <fix>3d</fix>
</trkpt>
<trkpt lat="40.0715785" lon="-105.2295126">
  <ele>1583.0</ele>
  <time>2026-08-28T17:49:47Z</time>
  <course>229.13</course>
  <speed>5.012085394324402</speed>
  <fix>3d</fix>
</trkpt>
<trkpt lat="40.0715779" lon="-105.2295135">
  <ele>1583.0</ele>
  <time>2026-08-28T17:49:47Z</time>
  <course>229.11</course>
  <speed>5.012085394324402</speed>
  <fix>3d</fix>
</trkpt>
<trkpt lat="40.0715766" lon="-105.2295153">
  <ele>1583.0</ele>
  <time>2026-08-28T17:49:47Z</time>
  <course>229.08</course>
  <speed>4.99795958367012</speed>
  <fix>3d</fix>
</trkpt>
<trkpt lat="40.0715766" lon="-105.2295153">
  <ele>1583.0</ele>
  <time>2026-08-28T17:49:47Z</time>
  <course>229.08</course>
  <speed>4.99795958367012</speed>
  <fix>3d</fix>
</trkpt>
<trkpt lat="40.0715837" lon="-105.229505">
  <ele>1583.0</ele>
  <time>2026-08-28T17:49:47Z</time>
  <course>228.0</course>
  <speed>5.06</speed>
  <fix>3d</fix>
</trkpt>
<trkpt lat="40.0715748" lon="-105.2295179">
  <ele>1583.0</ele>
  <time>2026-08-28T17:49:47Z</time>
  <course>229.04</course>
  <speed>4.990561090699121</speed>
  <fix>3d</fix>
</trkpt>
<trkpt lat="40.0715742" lon="-105.2295188">
  <ele>1583.0</ele>
  <time>2026-08-28T17:49:47Z</time>
  <course>229.03</course>
  <speed>4.990561090699121</speed>
  <fix>3d</fix>
</trkpt>
<trkpt lat="40.0715736" lon="-105.2295197">
  <ele>1583.01</ele>
  <time>2026-08-28T17:49:47Z</time>
  <course>229.02</course>
  <speed>4.990561090699121</speed>
  <fix>3d</fix>
</trkpt>
<trkpt lat="40.0715736" lon="-105.2295197">
  <ele>1583.01</ele>
  <time>2026-08-28T17:49:47Z</time>
  <course>229.02</course>
  <speed>4.990561090699121</speed>
  <fix>3d</fix>
</trkpt>
<trkpt lat="40.0715777" lon="-105.2295139">
  <ele>1583.0</ele>
  <time>2026-08-28T17:49:47Z</time>
  <course>227.87</course>
  <speed>5.02</speed>
  <fix>3d</fix>
</trkpt>
<trkpt lat="40.0715718" lon="-105.2295223">
  <ele>1583.01</ele>
  <time>2026-08-28T17:49:47Z</time>
  <course>228.98</course>
  <speed>4.976434466563385</speed>
  <fix>3d</fix>
</trkpt>
<trkpt lat="40.0715712" lon="-105.2295231">
  <ele>1583.01</ele>
  <time>2026-08-28T17:49:47Z</time>
  <course>228.96</course>
  <speed>4.976434466563385</speed>
  <fix>3d</fix>
</trkpt>
<trkpt lat="40.0715706" lon="-105.229524">
  <ele>1583.01</ele>
  <time>2026-08-28T17:49:47Z</time>
  <course>228.95</course>
  <speed>4.969044173681695</speed>
  <fix>3d</fix>
</trkpt>
<trkpt lat="40.0715706" lon="-105.229524">
  <ele>1583.01</ele>
  <time>2026-08-28T17:49:47Z</time>
  <course>228.95</course>
  <speed>4.969044173681695</speed>
  <fix>3d</fix>
</trkpt>
<trkpt lat="40.0715777" lon="-105.2295139">
  <ele>1583.0</ele>
  <time>2026-08-28T17:49:47Z</time>
  <course>227.87</course>
  <speed>5.02</speed>
  <fix>3d</fix>
</trkpt>
<trkpt lat="40.0715682" lon="-105.2295275">
  <ele>1583.01</ele>
  <time>2026-08-28T17:49:47Z</time>
  <course>228.9</course>
  <speed>4.961663027655143</speed>
  <fix>3d</fix>
</trkpt>
<trkpt lat="40.0715676" lon="-105.2295283">
  <ele>1583.01</ele>
  <time>2026-08-28T17:49:47Z</time>
  <course>228.88</course>
  <speed>4.961663027655143</speed>
  <fix>3d</fix>
</trkpt>
<trkpt lat="40.0715716" lon="-105.2295226">
  <ele>1583.0</ele>
  <time>2026-08-28T17:49:47Z</time>
  <course>227.73</course>
  <speed>4.99</speed>
  <fix>3d</fix>
</trkpt>
<trkpt lat="40.071567" lon="-105.2295292">
  <ele>1583.01</ele>
  <time>2026-08-28T17:49:47Z</time>
  <course>228.87</course>
  <speed>4.961663027655143</speed>
  <fix>3d</fix>
</trkpt>
<trkpt lat="40.0715657" lon="-105.2295309">
  <ele>1583.01</ele>
  <time>2026-08-28T17:49:47Z</time>
  <course>228.84</course>
  <speed>4.95429106936603</speed>
  <fix>3d</fix>
</trkpt>
<trkpt lat="40.0715651" lon="-105.2295318">
  <ele>1583.01</ele>
  <time>2026-08-28T17:49:47Z</time>
  <course>228.83</course>
  <speed>4.95429106936603</speed>
  <fix>3d</fix>
</trkpt>
<trkpt lat="40.0715645" lon="-105.2295327">
  <ele>1583.02</ele>
  <time>2026-08-28T17:49:47Z</time>
  <course>228.82</course>
  <speed>4.95429106936603</speed>
  <fix>3d</fix>
</trkpt>
<trkpt lat="40.0715716" lon="-105.2295226">
  <ele>1583.0</ele>
  <time>2026-08-28T17:49:47Z</time>
  <course>227.73</course>
  <speed>4.99</speed>
  <fix>3d</fix>
</trkpt>
<trkpt lat="40.0715639" lon="-105.2295335">
  <ele>1583.02</ele>
  <time>2026-08-28T17:49:47Z</time>
  <course>228.8</course>
  <speed>4.95429106936603</speed>
  <fix>3d</fix>
</trkpt>
<trkpt lat="40.0715621" lon="-105.2295361">
  <ele>1583.02</ele>
  <time>2026-08-28T17:49:47Z</time>
  <course>228.76</course>
  <speed>4.940161940665508</speed>
  <fix>3d</fix>
</trkpt>
<trkpt lat="40.0715615" lon="-105.229537">
  <ele>1583.02</ele>
  <time>2026-08-28T17:49:47Z</time>
  <course>228.75</course>
  <speed>4.940161940665508</speed>
  <fix>3d</fix>
</trkpt>
<trkpt lat="40.0715615" lon="-105.229537">
  <ele>1583.02</ele>
  <time>2026-08-28T17:49:47Z</time>
  <course>228.75</course>
  <speed>4.940161940665508</speed>
  <fix>3d</fix>
</trkpt>
<trkpt lat="40.0715656" lon="-105.2295312">
  <ele>1583.0</ele>
  <time>2026-08-28T17:49:47Z</time>
  <course>227.6</course>
  <speed>4.97</speed>
  <fix>3d</fix>
</trkpt>
<trkpt lat="40.0715597" lon="-105.2295395">
  <ele>1583.01</ele>
  <time>2026-08-28T17:49:47Z</time>
  <course>228.71</course>
  <speed>4.940161940665508</speed>
  <fix>3d</fix>
</trkpt>
<trkpt lat="40.0715591" lon="-105.2295404">
  <ele>1583.01</ele>
  <time>2026-08-28T17:49:47Z</time>
  <course>228.7</course>
  <speed>4.932798394420757</speed>
  <fix>3d</fix>
</trkpt>
<trkpt lat="40.0715585" lon="-105.2295413">
  <ele>1583.01</ele>
  <time>2026-08-28T17:49:47Z</time>
  <course>228.69</course>
  <speed>4.932798394420757</speed>
  <fix>3d</fix>
</trkpt>
<trkpt lat="40.0715585" lon="-105.2295413">
  <ele>1583.01</ele>
  <time>2026-08-28T17:49:47Z</time>
  <course>228.69</course>
  <speed>4.932798394420757</speed>
  <fix>3d</fix>
</trkpt>
<trkpt lat="40.0715656" lon="-105.2295312">
  <ele>1583.0</ele>
  <time>2026-08-28T17:49:47Z</time>
  <course>227.6</course>
  <speed>4.97</speed>
  <fix>3d</fix>
</trkpt>
<trkpt lat="40.0715567" lon="-105.2295438">
  <ele>1583.02</ele>
  <time>2026-08-28T17:49:47Z</time>
  <course>228.65</course>
  <speed>4.932798394420757</speed>
  <fix>3d</fix>
</trkpt>
<trkpt lat="40.0715561" lon="-105.2295447">
  <ele>1583.02</ele>
  <time>2026-08-28T17:49:47Z</time>
  <course>228.63</course>
  <speed>4.932798394420757</speed>
  <fix>3d</fix>
</trkpt>
<trkpt lat="40.0715555" lon="-105.2295455">
  <ele>1583.02</ele>
  <time>2026-08-28T17:49:47Z</time>
  <course>228.62</course>
  <speed>4.932798394420757</speed>
  <fix>3d</fix>
</trkpt>
<trkpt lat="40.0715555" lon="-105.2295455">
  <ele>1583.02</ele>
  <time>2026-08-28T17:49:47Z</time>
  <course>228.62</course>
  <speed>4.932798394420757</speed>
  <fix>3d</fix>
</trkpt>
<trkpt lat="40.0715656" lon="-105.2295312">
  <ele>1583.0</ele>
  <time>2026-08-28T17:49:47Z</time>
  <course>227.6</course>
  <speed>4.97</speed>
  <fix>3d</fix>
</trkpt>
<trkpt lat="40.0715531" lon="-105.2295489">
  <ele>1583.02</ele>
  <time>2026-08-28T17:49:47Z</time>
  <course>228.57</course>
  <speed>4.9254441424099005</speed>
  <fix>3d</fix>
</trkpt>
<trkpt lat="40.0715525" lon="-105.2295498">
  <ele>1583.02</ele>
  <time>2026-08-28T17:49:47Z</time>
  <course>228.55</course>
  <speed>4.932230732640151</speed>
  <fix>3d</fix>
</trkpt>
<trkpt lat="40.0715525" lon="-105.2295498">
  <ele>1583.02</ele>
  <time>2026-08-28T17:49:47Z</time>
  <course>228.55</course>
  <speed>4.932230732640151</speed>
  <fix>3d</fix>
</trkpt>
<trkpt lat="40.0715596" lon="-105.2295398">
  <ele>1583.0</ele>
  <time>2026-08-28T17:49:47Z</time>
  <course>227.46</course>
  <speed>4.95</speed>
  <fix>3d</fix>
</trkpt>
<trkpt lat="40.0715501" lon="-105.2295532">
  <ele>1583.02</ele>
  <time>2026-08-28T17:49:47Z</time>
  <course>228.5</course>
  <speed>4.924895937986913</speed>
  <fix>3d</fix>
</trkpt>
<trkpt lat="40.0715495" lon="-105.229554">
  <ele>1583.02</ele>
  <time>2026-08-28T17:49:47Z</time>
  <course>228.49</course>
  <speed>4.924895937986913</speed>
  <fix>3d</fix>
</trkpt>
<trkpt lat="40.0715495" lon="-105.229554">
  <ele>1583.02</ele>
  <time>2026-08-28T17:49:47Z</time>
  <course>228.49</course>
  <speed>4.924895937986913</speed>
  <fix>3d</fix>
</trkpt>
<trkpt lat="40.0715596" lon="-105.2295398">
  <ele>1583.0</ele>
  <time>2026-08-28T17:49:47Z</time>
  <course>227.46</course>
  <speed>4.95</speed>
  <fix>3d</fix>
</trkpt>
<trkpt lat="40.0715477" lon="-105.2295565">
  <ele>1583.02</ele>
  <time>2026-08-28T17:49:47Z</time>
  <course>228.45</course>
  <speed>4.924895937986913</speed>
  <fix>3d</fix>
</trkpt>
<trkpt lat="40.0715471" lon="-105.2295574">
  <ele>1583.02</ele>
  <time>2026-08-28T17:49:47Z</time>
  <course>228.43</course>
  <speed>4.924895937986913</speed>
  <fix>3d</fix>
</trkpt>
<trkpt lat="40.0715465" lon="-105.2295582">
  <ele>1583.02</ele>
  <time>2026-08-28T17:49:47Z</time>
  <course>228.42</course>
  <speed>4.924895937986913</speed>
  <fix>3d</fix>
</trkpt>
<trkpt lat="40.0715465" lon="-105.2295582">
  <ele>1583.02</ele>
  <time>2026-08-28T17:49:47Z</time>
  <course>228.42</course>
  <speed>4.924895937986913</speed>
  <fix>3d</fix>
</trkpt>
<trkpt lat="40.0715535" lon="-105.2295484">
  <ele>1583.0</ele>
  <time>2026-08-28T17:49:47Z</time>
  <course>227.33</course>
  <speed>4.95</speed>
  <fix>3d</fix>
</trkpt>
<trkpt lat="40.0715435" lon="-105.2295624">
  <ele>1583.02</ele>
  <time>2026-08-28T17:49:47Z</time>
  <course>228.35</course>
  <speed>4.924895937986913</speed>
  <fix>3d</fix>
</trkpt>
<trkpt lat="40.0715435" lon="-105.2295624">
  <ele>1583.02</ele>
  <time>2026-08-28T17:49:47Z</time>
  <course>228.35</course>
  <speed>4.924895937986913</speed>
  <fix>3d</fix>
</trkpt>
<trkpt lat="40.0715535" lon="-105.2295484">
  <ele>1583.0</ele>
  <time>2026-08-28T17:49:47Z</time>
  <course>227.33</course>
  <speed>4.95</speed>
  <fix>3d</fix>
</trkpt>
<trkpt lat="40.0715412" lon="-105.2295658">
  <ele>1583.02</ele>
  <time>2026-08-28T17:49:47Z</time>
  <course>228.3</course>
  <speed>4.9175705383857995</speed>
  <fix>3d</fix>
</trkpt>
<trkpt lat="40.0715406" lon="-105.2295666">
  <ele>1583.02</ele>
  <time>2026-08-28T17:49:47Z</time>
  <course>228.29</course>
  <speed>4.924388286883966</speed>
  <fix>3d</fix>
</trkpt>
<trkpt lat="40.0715406" lon="-105.2295666">
  <ele>1583.02</ele>
  <time>2026-08-28T17:49:47Z</time>
  <course>228.29</course>
  <speed>4.924388286883966</speed>
  <fix>3d</fix>
</trkpt>
<trkpt lat="40.0715475" lon="-105.2295569">
  <ele>1583.0</ele>
  <time>2026-08-28T17:49:47Z</time>
  <course>227.19</course>
  <speed>4.95</speed>
  <fix>3d</fix>
</trkpt>
<trkpt lat="40.07154" lon="-105.2295675">
  <ele>1583.03</ele>
  <time>2026-08-28T17:49:47Z</time>
  <course>228.27</course>
  <speed>4.924388286883966</speed>
  <fix>3d</fix>
</trkpt>
<trkpt lat="40.0715388" lon="-105.2295692">
  <ele>1583.03</ele>
  <time>2026-08-28T17:49:47Z</time>
  <course>228.25</course>
  <speed>4.924388286883966</speed>
  <fix>3d</fix>
</trkpt>
<trkpt lat="40.0715376" lon="-105.2295709">
  <ele>1583.03</ele>
  <time>2026-08-28T17:49:47Z</time>
  <course>228.22</course>
  <speed>4.924388286883966</speed>
  <fix>3d</fix>
</trkpt>
<trkpt lat="40.0715376" lon="-105.2295709">
  <ele>1583.03</ele>
  <time>2026-08-28T17:49:47Z</time>
  <course>228.22</course>
  <speed>4.924388286883966</speed>
  <fix>3d</fix>
</trkpt>
<trkpt lat="40.0715475" lon="-105.2295569">
  <ele>1583.0</ele>
  <time>2026-08-28T17:49:47Z</time>
  <course>227.19</course>
  <speed>4.95</speed>
  <fix>3d</fix>
</trkpt>
<trkpt lat="40.0715351" lon="-105.2295743">
  <ele>1583.03</ele>
  <time>2026-08-28T17:49:47Z</time>
  <course>228.17</course>
  <speed>4.924388286883966</speed>
  <fix>3d</fix>
</trkpt>
<trkpt lat="40.0715345" lon="-105.2295751">
  <ele>1583.03</ele>
  <time>2026-08-28T17:49:47Z</time>
  <course>228.15</course>
  <speed>4.931216888355246</speed>
  <fix>3d</fix>
</trkpt>
<trkpt lat="40.0715345" lon="-105.2295751">
  <ele>1583.03</ele>
  <time>2026-08-28T17:49:47Z</time>
  <course>228.15</course>
  <speed>4.931216888355246</speed>
  <fix>3d</fix>
</trkpt>
<trkpt lat="40.0715414" lon="-105.2295654">
  <ele>1583.0</ele>
  <time>2026-08-28T17:49:47Z</time>
  <course>227.06</course>
  <speed>4.95</speed>
  <fix>3d</fix>
</trkpt>
<trkpt lat="40.0715327" lon="-105.2295776">
  <ele>1583.03</ele>
  <time>2026-08-28T17:49:47Z</time>
  <course>228.11</course>
  <speed>4.931216888355246</speed>
  <fix>3d</fix>
</trkpt>
<trkpt lat="40.0715321" lon="-105.2295785">
  <ele>1583.03</ele>
  <time>2026-08-28T17:49:47Z</time>
  <course>228.1</course>
  <speed>4.931216888355246</speed>
  <fix>3d</fix>
</trkpt>
<trkpt lat="40.0715315" lon="-105.2295793">
  <ele>1583.03</ele>
  <time>2026-08-28T17:49:47Z</time>
  <course>228.09</course>
  <speed>4.931216888355246</speed>
  <fix>3d</fix>
</trkpt>
<trkpt lat="40.0715315" lon="-105.2295793">
  <ele>1583.03</ele>
  <time>2026-08-28T17:49:47Z</time>
  <course>228.09</course>
  <speed>4.931216888355246</speed>
  <fix>3d</fix>
</trkpt>
<trkpt lat="40.0715353" lon="-105.229574">
  <ele>1583.0</ele>
  <time>2026-08-28T17:49:47Z</time>
  <course>226.92</course>
  <speed>4.96</speed>
  <fix>3d</fix>
</trkpt>
<trkpt lat="40.0715291" lon="-105.2295827">
  <ele>1583.04</ele>
  <time>2026-08-28T17:49:47Z</time>
  <course>228.04</course>
  <speed>4.938056297775472</speed>
  <fix>3d</fix>
</trkpt>
<trkpt lat="40.0715285" lon="-105.2295836">
  <ele>1583.04</ele>
  <time>2026-08-28T17:49:47Z</time>
  <course>228.02</course>
  <speed>4.938056297775472</speed>
  <fix>3d</fix>
</trkpt>
<trkpt lat="40.0715285" lon="-105.2295836">
  <ele>1583.04</ele>
  <time>2026-08-28T17:49:47Z</time>
  <course>228.02</course>
  <speed>4.938056297775472</speed>
  <fix>3d</fix>
</trkpt>
<trkpt lat="40.0715353" lon="-105.229574">
  <ele>1583.0</ele>
  <time>2026-08-28T17:49:47Z</time>
  <course>226.92</course>
  <speed>4.96</speed>
  <fix>3d</fix>
</trkpt>
<trkpt lat="40.0715266" lon="-105.2295861">
  <ele>1583.04</ele>
  <time>2026-08-28T17:49:47Z</time>
  <course>227.98</course>
  <speed>4.938056297775472</speed>
  <fix>3d</fix>
</trkpt>
<trkpt lat="40.0715261" lon="-105.2295869">
  <ele>1583.04</ele>
  <time>2026-08-28T17:49:47Z</time>
  <course>227.97</course>
  <speed>4.944906470298503</speed>
  <fix>3d</fix>
</trkpt>
<trkpt lat="40.0715254" lon="-105.2295878">
  <ele>1583.04</ele>
  <time>2026-08-28T17:49:47Z</time>
  <course>227.96</course>
  <speed>4.944906470298503</speed>
  <fix>3d</fix>
</trkpt>
<trkpt lat="40.0715254" lon="-105.2295878">
  <ele>1583.04</ele>
  <time>2026-08-28T17:49:47Z</time>
  <course>227.96</course>
  <speed>4.944906470298503</speed>
  <fix>3d</fix>
</trkpt>
<trkpt lat="40.0715292" lon="-105.2295825">
  <ele>1583.0</ele>
  <time>2026-08-28T17:49:47Z</time>
  <course>226.79</course>
  <speed>4.98</speed>
  <fix>3d</fix>
</trkpt>
<trkpt lat="40.071523" lon="-105.2295912">
  <ele>1583.04</ele>
  <time>2026-08-28T17:49:47Z</time>
  <course>227.91</course>
  <speed>4.9521914341026845</speed>
  <fix>3d</fix>
</trkpt>
<trkpt lat="40.0715224" lon="-105.229592">
  <ele>1583.04</ele>
  <time>2026-08-28T17:49:47Z</time>
  <course>227.89</course>
  <speed>4.959042246240699</speed>
  <fix>3d</fix>
</trkpt>
<trkpt lat="40.0715292" lon="-105.2295825">
  <ele>1583.0</ele>
  <time>2026-08-28T17:49:47Z</time>
  <course>226.79</course>
  <speed>4.98</speed>
  <fix>3d</fix>
</trkpt>
<trkpt lat="40.0715217" lon="-105.2295929">
  <ele>1583.04</ele>
  <time>2026-08-28T17:49:47Z</time>
  <course>227.88</course>
  <speed>4.959042246240699</speed>
  <fix>3d</fix>
</trkpt>
<trkpt lat="40.0715199" lon="-105.2295955">
  <ele>1583.04</ele>
  <time>2026-08-28T17:49:47Z</time>
  <course>227.84</course>
  <speed>4.959042246240699</speed>
  <fix>3d</fix>
</trkpt>
<trkpt lat="40.0715193" lon="-105.2295963">
  <ele>1583.04</ele>
  <time>2026-08-28T17:49:47Z</time>
  <course>227.83</course>
  <speed>4.959042246240699</speed>
  <fix>3d</fix>
</trkpt>
<trkpt lat="40.0715193" lon="-105.2295963">
  <ele>1583.04</ele>
  <time>2026-08-28T17:49:47Z</time>
  <course>227.83</course>
  <speed>4.959042246240699</speed>
  <fix>3d</fix>
</trkpt>
<trkpt lat="40.0715231" lon="-105.229591">
  <ele>1583.0</ele>
  <time>2026-08-28T17:49:47Z</time>
  <course>226.65</course>
  <speed>4.99</speed>
  <fix>3d</fix>
</trkpt>
<trkpt lat="40.0715168" lon="-105.2295998">
  <ele>1583.04</ele>
  <time>2026-08-28T17:49:47Z</time>
  <course>227.78</course>
  <speed>4.965903744536336</speed>
  <fix>3d</fix>
</trkpt>
<trkpt lat="40.0715162" lon="-105.2296006">
  <ele>1583.04</ele>
  <time>2026-08-28T17:49:47Z</time>
  <course>227.77</course>
  <speed>4.965903744536336</speed>
  <fix>3d</fix>
</trkpt>
<trkpt lat="40.0715231" lon="-105.229591">
  <ele>1583.0</ele>
  <time>2026-08-28T17:49:47Z</time>
  <course>226.65</course>
  <speed>4.99</speed>
  <fix>3d</fix>
</trkpt>
<trkpt lat="40.0715156" lon="-105.2296015">
  <ele>1583.04</ele>
  <time>2026-08-28T17:49:47Z</time>
  <course>227.75</course>
  <speed>4.965903744536336</speed>
  <fix>3d</fix>
</trkpt>
<trkpt lat="40.0715137" lon="-105.2296041">
  <ele>1583.04</ele>
  <time>2026-08-28T17:49:47Z</time>
  <course>227.71</course>
  <speed>4.972775884754912</speed>
  <fix>3d</fix>
</trkpt>
<trkpt lat="40.071513" lon="-105.2296049">
  <ele>1583.04</ele>
  <time>2026-08-28T17:49:47Z</time>
  <course>227.7</course>
  <speed>4.972775884754912</speed>
  <fix>3d</fix>
</trkpt>
<trkpt lat="40.071513" lon="-105.2296049">
  <ele>1583.04</ele>
  <time>2026-08-28T17:49:47Z</time>
  <course>227.7</course>
  <speed>4.972775884754912</speed>
  <fix>3d</fix>
</trkpt>
<trkpt lat="40.071517" lon="-105.2295995">
  <ele>1583.0</ele>
  <time>2026-08-28T17:49:47Z</time>
  <course>226.52</course>
  <speed>5.0</speed>
  <fix>3d</fix>
</trkpt>
<trkpt lat="40.0715105" lon="-105.2296084">
  <ele>1583.04</ele>
  <time>2026-08-28T17:49:47Z</time>
  <course>227.65</course>
  <speed>4.979658622837514</speed>
  <fix>3d</fix>
</trkpt>
<trkpt lat="40.0715099" lon="-105.2296092">
  <ele>1583.04</ele>
  <time>2026-08-28T17:49:47Z</time>
  <course>227.64</course>
  <speed>4.979658622837514</speed>
  <fix>3d</fix>
</trkpt>
<trkpt lat="40.071517" lon="-105.2295995">
  <ele>1583.0</ele>
  <time>2026-08-28T17:49:47Z</time>
  <course>226.52</course>
  <speed>5.0</speed>
  <fix>3d</fix>
</trkpt>
<trkpt lat="40.0715093" lon="-105.2296101">
  <ele>1583.04</ele>
  <time>2026-08-28T17:49:47Z</time>
  <course>227.62</course>
  <speed>4.979658622837514</speed>
  <fix>3d</fix>
</trkpt>
<trkpt lat="40.0715074" lon="-105.2296127">
  <ele>1583.04</ele>
  <time>2026-08-28T17:49:47Z</time>
  <course>227.58</course>
  <speed>4.979658622837514</speed>
  <fix>3d</fix>
</trkpt>
<trkpt lat="40.0715068" lon="-105.2296135">
  <ele>1583.04</ele>
  <time>2026-08-28T17:49:47Z</time>
  <course>227.57</course>
  <speed>4.9865519149007165</speed>
  <fix>3d</fix>
</trkpt>
<trkpt lat="40.0715068" lon="-105.2296135">
  <ele>1583.04</ele>
  <time>2026-08-28T17:49:47Z</time>
  <course>227.57</course>
  <speed>4.9865519149007165</speed>
  <fix>3d</fix>
</trkpt>
<trkpt lat="40.0715108" lon="-105.229608">
  <ele>1583.0</ele>
  <time>2026-08-28T17:49:47Z</time>
  <course>226.38</course>
  <speed>5.01</speed>
  <fix>3d</fix>
</trkpt>
<trkpt lat="40.0715043" lon="-105.229617">
  <ele>1583.05</ele>
  <time>2026-08-28T17:49:47Z</time>
  <course>227.52</course>
  <speed>4.9865519149007165</speed>
  <fix>3d</fix>
</trkpt>
<trkpt lat="40.0715037" lon="-105.2296178">
  <ele>1583.05</ele>
  <time>2026-08-28T17:49:47Z</time>
  <course>227.51</course>
  <speed>4.9865519149007165</speed>
  <fix>3d</fix>
</trkpt>
<trkpt lat="40.0715037" lon="-105.2296178">
  <ele>1583.05</ele>
  <time>2026-08-28T17:49:47Z</time>
  <course>227.51</course>
  <speed>4.9865519149007165</speed>
  <fix>3d</fix>
</trkpt>
<trkpt lat="40.0715108" lon="-105.229608">
  <ele>1583.0</ele>
  <time>2026-08-28T17:49:47Z</time>
  <course>226.38</course>
  <speed>5.01</speed>
  <fix>3d</fix>
</trkpt>
<trkpt lat="40.0715012" lon="-105.2296212">
  <ele>1583.05</ele>
  <time>2026-08-28T17:49:47Z</time>
  <course>227.45</course>
  <speed>4.993455717236311</speed>
  <fix>3d</fix>
</trkpt>
<trkpt lat="40.0715006" lon="-105.2296221">
  <ele>1583.05</ele>
  <time>2026-08-28T17:49:47Z</time>
  <course>227.44</course>
  <speed>4.993455717236311</speed>
  <fix>3d</fix>
</trkpt>
<trkpt lat="40.0715006" lon="-105.2296221">
  <ele>1583.05</ele>
  <time>2026-08-28T17:49:47Z</time>
  <course>227.44</course>
  <speed>4.993455717236311</speed>
  <fix>3d</fix>
</trkpt>
<trkpt lat="40.0715045" lon="-105.2296166">
  <ele>1583.0</ele>
  <time>2026-08-28T17:49:47Z</time>
  <course>226.25</course>
  <speed>5.02</speed>
  <fix>3d</fix>
</trkpt>
<trkpt lat="40.071498" lon="-105.2296255">
  <ele>1583.05</ele>
  <time>2026-08-28T17:49:47Z</time>
  <course>227.39</course>
  <speed>4.993455717236311</speed>
  <fix>3d</fix>
</trkpt>
<trkpt lat="40.0714974" lon="-105.2296264">
  <ele>1583.05</ele>
  <time>2026-08-28T17:49:47Z</time>
  <course>227.38</course>
  <speed>4.993455717236311</speed>
  <fix>3d</fix>
</trkpt>
<trkpt lat="40.0714974" lon="-105.2296264">
  <ele>1583.05</ele>
  <time>2026-08-28T17:49:47Z</time>
  <course>227.38</course>
  <speed>4.993455717236311</speed>
  <fix>3d</fix>
</trkpt>
<trkpt lat="40.0715045" lon="-105.2296166">
  <ele>1583.0</ele>
  <time>2026-08-28T17:49:47Z</time>
  <course>226.25</course>
  <speed>5.02</speed>
  <fix>3d</fix>
</trkpt>
<trkpt lat="40.0714949" lon="-105.2296298">
  <ele>1583.05</ele>
  <time>2026-08-28T17:49:47Z</time>
  <course>227.32</course>
  <speed>5.000369986311013</speed>
  <fix>3d</fix>
</trkpt>
<trkpt lat="40.0714943" lon="-105.2296307">
  <ele>1583.05</ele>
  <time>2026-08-28T17:49:47Z</time>
  <course>227.31</course>
  <speed>5.000369986311013</speed>
  <fix>3d</fix>
</trkpt>
<trkpt lat="40.0714943" lon="-105.2296307">
  <ele>1583.05</ele>
  <time>2026-08-28T17:49:47Z</time>
  <course>227.31</course>
  <speed>5.000369986311013</speed>
  <fix>3d</fix>
</trkpt>
<trkpt lat="40.0714983" lon="-105.2296251">
  <ele>1583.0</ele>
  <time>2026-08-28T17:49:47Z</time>
  <course>226.11</course>
  <speed>5.02</speed>
  <fix>3d</fix>
</trkpt>
<trkpt lat="40.0714911" lon="-105.2296349">
  <ele>1583.05</ele>
  <time>2026-08-28T17:49:47Z</time>
  <course>227.25</course>
  <speed>5.000369986311013</speed>
  <fix>3d</fix>
</trkpt>
<trkpt lat="40.0714911" lon="-105.2296349">
  <ele>1583.05</ele>
  <time>2026-08-28T17:49:47Z</time>
  <course>227.25</course>
  <speed>5.000369986311013</speed>
  <fix>3d</fix>
</trkpt>
<trkpt lat="40.0714983" lon="-105.2296251">
  <ele>1583.0</ele>
  <time>2026-08-28T17:49:47Z</time>
  <course>226.11</course>
  <speed>5.02</speed>
  <fix>3d</fix>
</trkpt>
<trkpt lat="40.0714886" lon="-105.2296384">
  <ele>1583.04</ele>
  <time>2026-08-28T17:49:47Z</time>
  <course>227.19</course>
  <speed>5.007294678766169</speed>
  <fix>3d</fix>
</trkpt>
<trkpt lat="40.071488" lon="-105.2296392">
  <ele>1583.04</ele>
  <time>2026-08-28T17:49:47Z</time>
  <course>227.18</course>
  <speed>5.007294678766169</speed>
  <fix>3d</fix>
</trkpt>
<trkpt lat="40.071488" lon="-105.2296392">
  <ele>1583.04</ele>
  <time>2026-08-28T17:49:47Z</time>
  <course>227.18</course>
  <speed>5.007294678766169</speed>
  <fix>3d</fix>
</trkpt>
<trkpt lat="40.0714983" lon="-105.2296251">
  <ele>1583.0</ele>
  <time>2026-08-28T17:49:47Z</time>
  <course>226.11</course>
  <speed>5.02</speed>
  <fix>3d</fix>
</trkpt>
<trkpt lat="40.0714861" lon="-105.2296417">
  <ele>1583.04</ele>
  <time>2026-08-28T17:49:47Z</time>
  <course>227.14</course>
  <speed>5.007294678766169</speed>
  <fix>3d</fix>
</trkpt>
<trkpt lat="40.0714848" lon="-105.2296434">
  <ele>1583.04</ele>
  <time>2026-08-28T17:49:47Z</time>
  <course>227.11</course>
  <speed>5.000089999190014</speed>
  <fix>3d</fix>
</trkpt>
<trkpt lat="40.0714848" lon="-105.2296434">
  <ele>1583.04</ele>
  <time>2026-08-28T17:49:47Z</time>
  <course>227.11</course>
  <speed>5.000089999190014</speed>
  <fix>3d</fix>
</trkpt>
<trkpt lat="40.071492" lon="-105.2296336">
  <ele>1583.0</ele>
  <time>2026-08-28T17:49:47Z</time>
  <course>225.97</course>
  <speed>5.02</speed>
  <fix>3d</fix>
</trkpt>
<trkpt lat="40.0714823" lon="-105.2296468">
  <ele>1583.04</ele>
  <time>2026-08-28T17:49:47Z</time>
  <course>227.09</course>
  <speed>5.000089999190014</speed>
  <fix>3d</fix>
</trkpt>
<trkpt lat="40.0714817" lon="-105.2296477">
  <ele>1583.04</ele>
  <time>2026-08-28T17:49:47Z</time>
  <course>227.07</course>
  <speed>5.000089999190014</speed>
  <fix>3d</fix>
</trkpt>
<trkpt lat="40.0714817" lon="-105.2296477">
  <ele>1583.04</ele>
  <time>2026-08-28T17:49:47Z</time>
  <course>227.07</course>
  <speed>5.000089999190014</speed>
  <fix>3d</fix>
</trkpt>
<trkpt lat="40.071492" lon="-105.2296336">
  <ele>1583.0</ele>
  <time>2026-08-28T17:49:47Z</time>
  <course>225.97</course>
  <speed>5.02</speed>
  <fix>3d</fix>
</trkpt>
<trkpt lat="40.0714799" lon="-105.2296502">
  <ele>1583.04</ele>
  <time>2026-08-28T17:49:47Z</time>
  <course>227.05</course>
  <speed>5.000089999190014</speed>
  <fix>3d</fix>
</trkpt>
<trkpt lat="40.0714786" lon="-105.2296519">
  <ele>1583.04</ele>
  <time>2026-08-28T17:49:47Z</time>
  <course>227.05</course>
  <speed>5.000089999190014</speed>
  <fix>3d</fix>
</trkpt>
<trkpt lat="40.0714786" lon="-105.2296519">
  <ele>1583.04</ele>
  <time>2026-08-28T17:49:47Z</time>
  <course>227.05</course>
  <speed>5.000089999190014</speed>
  <fix>3d</fix>
</trkpt>
<trkpt lat="40.0714857" lon="-105.2296421">
  <ele>1583.0</ele>
  <time>2026-08-28T17:49:47Z</time>
  <course>225.85</course>
  <speed>5.03</speed>
  <fix>3d</fix>
</trkpt>
<trkpt lat="40.0714767" lon="-105.2296544">
  <ele>1583.04</ele>
  <time>2026-08-28T17:49:47Z</time>
  <course>227.01</course>
  <speed>5.000089999190014</speed>
  <fix>3d</fix>
</trkpt>
<trkpt lat="40.0714755" lon="-105.2296561">
  <ele>1583.04</ele>
  <time>2026-08-28T17:49:47Z</time>
  <course>226.99</course>
  <speed>5.000089999190014</speed>
  <fix>3d</fix>
</trkpt>
<trkpt lat="40.0714755" lon="-105.2296561">
  <ele>1583.04</ele>
  <time>2026-08-28T17:49:47Z</time>
  <course>226.99</course>
  <speed>5.000089999190014</speed>
  <fix>3d</fix>
</trkpt>
<trkpt lat="40.0714857" lon="-105.2296421">
  <ele>1583.0</ele>
  <time>2026-08-28T17:49:47Z</time>
  <course>225.85</course>
  <speed>5.03</speed>
  <fix>3d</fix>
</trkpt>
<trkpt lat="40.071473" lon="-105.2296594">
  <ele>1583.04</ele>
  <time>2026-08-28T17:49:47Z</time>
  <course>226.98</course>
  <speed>5.000089999190014</speed>
  <fix>3d</fix>
</trkpt>
<trkpt lat="40.0714724" lon="-105.2296603">
  <ele>1583.04</ele>
  <time>2026-08-28T17:49:47Z</time>
  <course>226.97</course>
  <speed>4.992894951829049</speed>
  <fix>3d</fix>
</trkpt>
<trkpt lat="40.0714794" lon="-105.2296505">
  <ele>1583.0</ele>
  <time>2026-08-28T17:49:47Z</time>
  <course>225.76</course>
  <speed>5.03</speed>
  <fix>3d</fix>
</trkpt>
<trkpt lat="40.0714717" lon="-105.2296611">
  <ele>1583.04</ele>
  <time>2026-08-28T17:49:47Z</time>
  <course>226.95</course>
  <speed>4.992894951829049</speed>
  <fix>3d</fix>
</trkpt>
<trkpt lat="40.0714705" lon="-105.2296628">
  <ele>1583.04</ele>
  <time>2026-08-28T17:49:47Z</time>
  <course>226.94</course>
  <speed>4.992894951829049</speed>
  <fix>3d</fix>
</trkpt>
<trkpt lat="40.0714692" lon="-105.2296645">
  <ele>1583.04</ele>
  <time>2026-08-28T17:49:47Z</time>
  <course>226.94</course>
  <speed>4.992894951829049</speed>
  <fix>3d</fix>
</trkpt>
<trkpt lat="40.0714692" lon="-105.2296645">
  <ele>1583.04</ele>
  <time>2026-08-28T17:49:47Z</time>
  <course>226.94</course>
  <speed>4.992894951829049</speed>
  <fix>3d</fix>
</trkpt>
<trkpt lat="40.0714731" lon="-105.229659">
  <ele>1583.0</ele>
  <time>2026-08-28T17:49:47Z</time>
  <course>225.69</course>
  <speed>5.03</speed>
  <fix>3d</fix>
</trkpt>
<trkpt lat="40.0714667" lon="-105.2296679">
  <ele>1583.04</ele>
  <time>2026-08-28T17:49:47Z</time>
  <course>226.9</course>
  <speed>4.999849997749933</speed>
  <fix>3d</fix>
</trkpt>
<trkpt lat="40.0714661" lon="-105.2296687">
  <ele>1583.04</ele>
  <time>2026-08-28T17:49:47Z</time>
  <course>226.9</course>
  <speed>4.999849997749933</speed>
  <fix>3d</fix>
</trkpt>
<trkpt lat="40.0714661" lon="-105.2296687">
  <ele>1583.04</ele>
  <time>2026-08-28T17:49:47Z</time>
  <course>226.9</course>
  <speed>4.999849997749933</speed>
  <fix>3d</fix>
</trkpt>
<trkpt lat="40.0714731" lon="-105.229659">
  <ele>1583.0</ele>
  <time>2026-08-28T17:49:47Z</time>
  <course>225.69</course>
  <speed>5.03</speed>
  <fix>3d</fix>
</trkpt>
<trkpt lat="40.0714636" lon="-105.2296721">
  <ele>1583.04</ele>
  <time>2026-08-28T17:49:47Z</time>
  <course>226.89</course>
  <speed>4.992894951829049</speed>
  <fix>3d</fix>
</trkpt>
<trkpt lat="40.0714629" lon="-105.2296729">
  <ele>1583.04</ele>
  <time>2026-08-28T17:49:47Z</time>
  <course>226.88</course>
  <speed>4.992894951829049</speed>
  <fix>3d</fix>
</trkpt>
<trkpt lat="40.0714629" lon="-105.2296729">
  <ele>1583.04</ele>
  <time>2026-08-28T17:49:47Z</time>
  <course>226.88</course>
  <speed>4.992894951829049</speed>
  <fix>3d</fix>
</trkpt>
<trkpt lat="40.0714667" lon="-105.2296675">
  <ele>1583.0</ele>
  <time>2026-08-28T17:49:47Z</time>
  <course>225.63</course>
  <speed>5.03</speed>
  <fix>3d</fix>
</trkpt>
<trkpt lat="40.0714604" lon="-105.2296763">
  <ele>1583.04</ele>
  <time>2026-08-28T17:49:47Z</time>
  <course>226.87</course>
  <speed>4.9857095783850065</speed>
  <fix>3d</fix>
</trkpt>
<trkpt lat="40.0714598" lon="-105.2296771">
  <ele>1583.04</ele>
  <time>2026-08-28T17:49:47Z</time>
  <course>226.87</course>
  <speed>4.971569168783635</speed>
  <fix>3d</fix>
</trkpt>
<trkpt lat="40.0714598" lon="-105.2296771">
  <ele>1583.04</ele>
  <time>2026-08-28T17:49:47Z</time>
  <course>226.87</course>
  <speed>4.971569168783635</speed>
  <fix>3d</fix>
</trkpt>
<trkpt lat="40.0714667" lon="-105.2296675">
  <ele>1583.0</ele>
  <time>2026-08-28T17:49:47Z</time>
  <course>225.63</course>
  <speed>5.03</speed>
  <fix>3d</fix>
</trkpt>
<trkpt lat="40.0714579" lon="-105.2296796">
  <ele>1583.04</ele>
  <time>2026-08-28T17:49:47Z</time>
  <course>226.86</course>
  <speed>4.957428769029365</speed>
  <fix>3d</fix>
</trkpt>
<trkpt lat="40.0714566" lon="-105.2296813">
  <ele>1583.04</ele>
  <time>2026-08-28T17:49:47Z</time>
  <course>226.84</course>
  <speed>4.9432883792067</speed>
  <fix>3d</fix>
</trkpt>
<trkpt lat="40.0714566" lon="-105.2296813">
  <ele>1583.04</ele>
  <time>2026-08-28T17:49:47Z</time>
  <course>226.84</course>
  <speed>4.9432883792067</speed>
  <fix>3d</fix>
</trkpt>
<trkpt lat="40.0714604" lon="-105.2296758">
  <ele>1583.0</ele>
  <time>2026-08-28T17:49:47Z</time>
  <course>225.57</course>
  <speed>5.0</speed>
  <fix>3d</fix>
</trkpt>
<trkpt lat="40.0714541" lon="-105.2296847">
  <ele>1583.04</ele>
  <time>2026-08-28T17:49:47Z</time>
  <course>226.85</course>
  <speed>4.915007629699063</speed>
  <fix>3d</fix>
</trkpt>
<trkpt lat="40.0714535" lon="-105.2296855">
  <ele>1583.04</ele>
  <time>2026-08-28T17:49:47Z</time>
  <course>226.85</course>
  <speed>4.907830477919954</speed>
  <fix>3d</fix>
</trkpt>
<trkpt lat="40.0714535" lon="-105.2296855">
  <ele>1583.04</ele>
  <time>2026-08-28T17:49:47Z</time>
  <course>226.85</course>
  <speed>4.907830477919954</speed>
  <fix>3d</fix>
</trkpt>
<trkpt lat="40.0714604" lon="-105.2296758">
  <ele>1583.0</ele>
  <time>2026-08-28T17:49:47Z</time>
  <course>225.57</course>
  <speed>5.0</speed>
  <fix>3d</fix>
</trkpt>
<trkpt lat="40.071451" lon="-105.2296888">
  <ele>1583.04</ele>
  <time>2026-08-28T17:49:47Z</time>
  <course>226.83</course>
  <speed>4.865408513167214</speed>
  <fix>3d</fix>
</trkpt>
<trkpt lat="40.0714504" lon="-105.2296896">
  <ele>1583.04</ele>
  <time>2026-08-28T17:49:47Z</time>
  <course>226.84</course>
  <speed>4.851267875514606</speed>
  <fix>3d</fix>
</trkpt>
<trkpt lat="40.0714504" lon="-105.2296896">
  <ele>1583.04</ele>
  <time>2026-08-28T17:49:47Z</time>
  <course>226.84</course>
  <speed>4.851267875514606</speed>
  <fix>3d</fix>
</trkpt>
<trkpt lat="40.0714542" lon="-105.2296842">
  <ele>1583.0</ele>
  <time>2026-08-28T17:49:47Z</time>
  <course>225.54</course>
  <speed>4.93</speed>
  <fix>3d</fix>
</trkpt>
<trkpt lat="40.0714479" lon="-105.2296929">
  <ele>1583.04</ele>
  <time>2026-08-28T17:49:47Z</time>
  <course>226.84</course>
  <speed>4.801885046520793</speed>
  <fix>3d</fix>
</trkpt>
<trkpt lat="40.0714473" lon="-105.2296938">
  <ele>1583.04</ele>
  <time>2026-08-28T17:49:47Z</time>
  <course>226.82</course>
  <speed>4.7947054132657625</speed>
  <fix>3d</fix>
</trkpt>
<trkpt lat="40.0714542" lon="-105.2296842">
  <ele>1583.0</ele>
  <time>2026-08-28T17:49:47Z</time>
  <course>225.54</course>
  <speed>4.93</speed>
  <fix>3d</fix>
</trkpt>
<trkpt lat="40.0714467" lon="-105.2296946">
  <ele>1583.04</ele>
  <time>2026-08-28T17:49:47Z</time>
  <course>226.83</course>
  <speed>4.780564820186</speed>
  <fix>3d</fix>
</trkpt>
<trkpt lat="40.0714449" lon="-105.229697">
  <ele>1583.04</ele>
  <time>2026-08-28T17:49:47Z</time>
  <course>226.83</course>
  <speed>4.72400254021947</speed>
  <fix>3d</fix>
</trkpt>
<trkpt lat="40.0714443" lon="-105.2296978">
  <ele>1583.04</ele>
  <time>2026-08-28T17:49:47Z</time>
  <course>226.83</course>
  <speed>4.7098619937318755</speed>
  <fix>3d</fix>
</trkpt>
<trkpt lat="40.0714443" lon="-105.2296978">
  <ele>1583.04</ele>
  <time>2026-08-28T17:49:47Z</time>
  <course>226.83</course>
  <speed>4.7098619937318755</speed>
  <fix>3d</fix>
</trkpt>
<trkpt lat="40.0714481" lon="-105.2296924">
  <ele>1583.0</ele>
  <time>2026-08-28T17:49:47Z</time>
  <course>225.53</course>
  <speed>4.81</speed>
  <fix>3d</fix>
</trkpt>
<trkpt lat="40.0714419" lon="-105.2297009">
  <ele>1583.04</ele>
  <time>2026-08-28T17:49:47Z</time>
  <course>226.81</course>
  <speed>4.646127419690511</speed>
  <fix>3d</fix>
</trkpt>
<trkpt lat="40.0714413" lon="-105.2297017">
  <ele>1583.04</ele>
  <time>2026-08-28T17:49:47Z</time>
  <course>226.81</course>
  <speed>4.625018918880224</speed>
  <fix>3d</fix>
</trkpt>
<trkpt lat="40.0714481" lon="-105.2296924">
  <ele>1583.0</ele>
  <time>2026-08-28T17:49:47Z</time>
  <course>225.53</course>
  <speed>4.81</speed>
  <fix>3d</fix>
</trkpt>
<trkpt lat="40.0714407" lon="-105.2297025">
  <ele>1583.04</ele>
  <time>2026-08-28T17:49:47Z</time>
  <course>226.82</course>
  <speed>4.603705029647316</speed>
  <fix>3d</fix>
</trkpt>
<trkpt lat="40.071439" lon="-105.2297048">
  <ele>1583.04</ele>
  <time>2026-08-28T17:49:47Z</time>
  <course>226.82</course>
  <speed>4.547141959516988</speed>
  <fix>3d</fix>
</trkpt>
<trkpt lat="40.0714384" lon="-105.2297056">
  <ele>1583.04</ele>
  <time>2026-08-28T17:49:47Z</time>
  <course>226.82</course>
  <speed>4.533001213324347</speed>
  <fix>3d</fix>
</trkpt>
<trkpt lat="40.0714384" lon="-105.2297056">
  <ele>1583.04</ele>
  <time>2026-08-28T17:49:47Z</time>
  <course>226.82</course>
  <speed>4.533001213324347</speed>
  <fix>3d</fix>
</trkpt>
<trkpt lat="40.0714421" lon="-105.2297003">
  <ele>1583.0</ele>
  <time>2026-08-28T17:49:47Z</time>
  <course>225.52</course>
  <speed>4.64</speed>
  <fix>3d</fix>
</trkpt>
<trkpt lat="40.0714367" lon="-105.2297079">
  <ele>1583.05</ele>
  <time>2026-08-28T17:49:47Z</time>
  <course>226.8</course>
  <speed>4.469272871508295</speed>
  <fix>3d</fix>
</trkpt>
<trkpt lat="40.0714361" lon="-105.2297086">
  <ele>1583.05</ele>
  <time>2026-08-28T17:49:47Z</time>
  <course>226.8</course>
  <speed>4.448156921692399</speed>
  <fix>3d</fix>
</trkpt>
<trkpt lat="40.0714356" lon="-105.2297094">
  <ele>1583.05</ele>
  <time>2026-08-28T17:49:47Z</time>
  <course>226.81</course>
  <speed>4.426849895806272</speed>
  <fix>3d</fix>
</trkpt>
<trkpt lat="40.0714356" lon="-105.2297094">
  <ele>1583.05</ele>
  <time>2026-08-28T17:49:47Z</time>
  <course>226.81</course>
  <speed>4.426849895806272</speed>
  <fix>3d</fix>
</trkpt>
<trkpt lat="40.0714421" lon="-105.2297003">
  <ele>1583.0</ele>
  <time>2026-08-28T17:49:47Z</time>
  <course>225.52</course>
  <speed>4.64</speed>
  <fix>3d</fix>
</trkpt>
<trkpt lat="40.0714334" lon="-105.2297123">
  <ele>1583.05</ele>
  <time>2026-08-28T17:49:47Z</time>
  <course>226.79</course>
  <speed>4.342004145553065</speed>
  <fix>3d</fix>
</trkpt>
<trkpt lat="40.0714328" lon="-105.229713">
  <ele>1583.04</ele>
  <time>2026-08-28T17:49:47Z</time>
  <course>226.79</course>
  <speed>4.313722290551398</speed>
  <fix>3d</fix>
</trkpt>
<trkpt lat="40.0714328" lon="-105.229713">
  <ele>1583.04</ele>
  <time>2026-08-28T17:49:47Z</time>
  <course>226.79</course>
  <speed>4.313722290551398</speed>
  <fix>3d</fix>
</trkpt>
<trkpt lat="40.0714363" lon="-105.2297079">
  <ele>1583.0</ele>
  <time>2026-08-28T17:49:47Z</time>
  <course>225.5</course>
  <speed>4.45</speed>
  <fix>3d</fix>
</trkpt>
<trkpt lat="40.0714312" lon="-105.2297152">
  <ele>1583.04</ele>
  <time>2026-08-28T17:49:47Z</time>
  <course>226.79</course>
  <speed>4.2430177939763585</speed>
  <fix>3d</fix>
</trkpt>
<trkpt lat="40.0714306" lon="-105.2297159">
  <ele>1583.04</ele>
  <time>2026-08-28T17:49:47Z</time>
  <course>226.8</course>
  <speed>4.21473605342019</speed>
  <fix>3d</fix>
</trkpt>
<trkpt lat="40.0714301" lon="-105.2297166">
  <ele>1583.04</ele>
  <time>2026-08-28T17:49:47Z</time>
  <course>226.8</course>
  <speed>4.200595195921645</speed>
  <fix>3d</fix>
</trkpt>
<trkpt lat="40.0714301" lon="-105.2297166">
  <ele>1583.04</ele>
  <time>2026-08-28T17:49:47Z</time>
  <course>226.8</course>
  <speed>4.200595195921645</speed>
  <fix>3d</fix>
</trkpt>
<trkpt lat="40.0714363" lon="-105.2297079">
  <ele>1583.0</ele>
  <time>2026-08-28T17:49:47Z</time>
  <course>225.5</course>
  <speed>4.45</speed>
  <fix>3d</fix>
</trkpt>
<trkpt lat="40.071428" lon="-105.2297194">
  <ele>1583.04</ele>
  <time>2026-08-28T17:49:47Z</time>
  <course>226.79</course>
  <speed>4.1016094402075876</speed>
  <fix>3d</fix>
</trkpt>
<trkpt lat="40.0714275" lon="-105.2297201">
  <ele>1583.04</ele>
  <time>2026-08-28T17:49:47Z</time>
  <course>226.79</course>
  <speed>4.080306361046925</speed>
  <fix>3d</fix>
</trkpt>
<trkpt lat="40.0714275" lon="-105.2297201">
  <ele>1583.04</ele>
  <time>2026-08-28T17:49:47Z</time>
  <course>226.79</course>
  <speed>4.080306361046925</speed>
  <fix>3d</fix>
</trkpt>
<trkpt lat="40.0714363" lon="-105.2297079">
  <ele>1583.0</ele>
  <time>2026-08-28T17:49:47Z</time>
  <course>225.5</course>
  <speed>4.45</speed>
  <fix>3d</fix>
</trkpt>
<trkpt lat="40.0714255" lon="-105.2297228">
  <ele>1583.04</ele>
  <time>2026-08-28T17:49:47Z</time>
  <course>226.79</course>
  <speed>3.974166579296847</speed>
  <fix>3d</fix>
</trkpt>
<trkpt lat="40.071425" lon="-105.2297234">
  <ele>1583.04</ele>
  <time>2026-08-28T17:49:47Z</time>
  <course>226.79</course>
  <speed>3.9530368073166233</speed>
  <fix>3d</fix>
</trkpt>
<trkpt lat="40.0714309" lon="-105.2297152">
  <ele>1583.0</ele>
  <time>2026-08-28T17:49:47Z</time>
  <course>225.48</course>
  <speed>4.22</speed>
  <fix>3d</fix>
</trkpt>
<trkpt lat="40.0714245" lon="-105.2297241">
  <ele>1583.04</ele>
  <time>2026-08-28T17:49:47Z</time>
  <course>226.79</course>
  <speed>3.9247547694091667</speed>
  <fix>3d</fix>
</trkpt>
<trkpt lat="40.071423" lon="-105.229726">
  <ele>1583.03</ele>
  <time>2026-08-28T17:49:47Z</time>
  <course>226.79</course>
  <speed>3.846894851695325</speed>
  <fix>3d</fix>
</trkpt>
<trkpt lat="40.0714225" lon="-105.2297267">
  <ele>1583.03</ele>
  <time>2026-08-28T17:49:47Z</time>
  <course>226.78</course>
  <speed>3.81861231339344</speed>
  <fix>3d</fix>
</trkpt>
<trkpt lat="40.0714309" lon="-105.2297152">
  <ele>1583.0</ele>
  <time>2026-08-28T17:49:47Z</time>
  <course>225.48</course>
  <speed>4.22</speed>
  <fix>3d</fix>
</trkpt>
<trkpt lat="40.0714221" lon="-105.2297273">
  <ele>1583.03</ele>
  <time>2026-08-28T17:49:47Z</time>
  <course>226.78</course>
  <speed>3.7903298009540016</speed>
  <fix>3d</fix>
</trkpt>
<trkpt lat="40.0714211" lon="-105.2297285">
  <ele>1583.03</ele>
  <time>2026-08-28T17:49:47Z</time>
  <course>226.78</course>
  <speed>3.7409223461601018</speed>
  <fix>3d</fix>
</trkpt>
<trkpt lat="40.0714206" lon="-105.2297291">
  <ele>1583.03</ele>
  <time>2026-08-28T17:49:47Z</time>
  <course>226.78</course>
  <speed>3.719623636875107</speed>
  <fix>3d</fix>
</trkpt>
<trkpt lat="40.0714202" lon="-105.2297298">
  <ele>1583.03</ele>
  <time>2026-08-28T17:49:47Z</time>
  <course>226.78</course>
  <speed>3.691341219665286</speed>
  <fix>3d</fix>
</trkpt>
<trkpt lat="40.0714202" lon="-105.2297298">
  <ele>1583.03</ele>
  <time>2026-08-28T17:49:47Z</time>
  <course>226.78</course>
  <speed>3.691341219665286</speed>
  <fix>3d</fix>
</trkpt>
<trkpt lat="40.0714258" lon="-105.2297221">
  <ele>1583.0</ele>
  <time>2026-08-28T17:49:47Z</time>
  <course>225.47</course>
  <speed>3.98</speed>
  <fix>3d</fix>
</trkpt>
<trkpt lat="40.0714184" lon="-105.2297322">
  <ele>1583.03</ele>
  <time>2026-08-28T17:49:47Z</time>
  <course>226.78</course>
  <speed>3.5782118439242807</speed>
  <fix>3d</fix>
</trkpt>
<trkpt lat="40.0714179" lon="-105.2297328">
  <ele>1583.02</ele>
  <time>2026-08-28T17:49:47Z</time>
  <course>226.77</course>
  <speed>3.5569228273888656</speed>
  <fix>3d</fix>
</trkpt>
<trkpt lat="40.0714179" lon="-105.2297328">
  <ele>1583.02</ele>
  <time>2026-08-28T17:49:47Z</time>
  <course>226.77</course>
  <speed>3.5569228273888656</speed>
  <fix>3d</fix>
</trkpt>
<trkpt lat="40.0714258" lon="-105.2297221">
  <ele>1583.0</ele>
  <time>2026-08-28T17:49:47Z</time>
  <course>225.47</course>
  <speed>3.98</speed>
  <fix>3d</fix>
</trkpt>
<trkpt lat="40.0714162" lon="-105.2297351">
  <ele>1583.02</ele>
  <time>2026-08-28T17:49:47Z</time>
  <course>226.77</course>
  <speed>3.45094190040922</speed>
  <fix>3d</fix>
</trkpt>
<trkpt lat="40.0714157" lon="-105.2297356">
  <ele>1583.02</ele>
  <time>2026-08-28T17:49:47Z</time>
  <course>226.77</course>
  <speed>3.422659784436659</speed>
  <fix>3d</fix>
</trkpt>
<trkpt lat="40.0714157" lon="-105.2297356">
  <ele>1583.02</ele>
  <time>2026-08-28T17:49:47Z</time>
  <course>226.77</course>
  <speed>3.422659784436659</speed>
  <fix>3d</fix>
</trkpt>
<trkpt lat="40.0714209" lon="-105.2297286">
  <ele>1583.0</ele>
  <time>2026-08-28T17:49:47Z</time>
  <course>225.46</course>
  <speed>3.72</speed>
  <fix>3d</fix>
</trkpt>
<trkpt lat="40.0714141" lon="-105.2297379">
  <ele>1583.02</ele>
  <time>2026-08-28T17:49:47Z</time>
  <course>226.76</course>
  <speed>3.316519259705874</speed>
  <fix>3d</fix>
</trkpt>
<trkpt lat="40.0714136" lon="-105.2297384">
  <ele>1583.02</ele>
  <time>2026-08-28T17:49:47Z</time>
  <course>226.75</course>
  <speed>3.288236609491476</speed>
  <fix>3d</fix>
</trkpt>
<trkpt lat="40.0714136" lon="-105.2297384">
  <ele>1583.02</ele>
  <time>2026-08-28T17:49:47Z</time>
  <course>226.75</course>
  <speed>3.288236609491476</speed>
  <fix>3d</fix>
</trkpt>
<trkpt lat="40.0714209" lon="-105.2297286">
  <ele>1583.0</ele>
  <time>2026-08-28T17:49:47Z</time>
  <course>225.46</course>
  <speed>3.72</speed>
  <fix>3d</fix>
</trkpt>
<trkpt lat="40.0714116" lon="-105.2297411">
  <ele>1583.02</ele>
  <time>2026-08-28T17:49:47Z</time>
  <course>226.75</course>
  <speed>3.1609650425147064</speed>
  <fix>3d</fix>
</trkpt>
<trkpt lat="40.0714116" lon="-105.2297411">
  <ele>1583.02</ele>
  <time>2026-08-28T17:49:47Z</time>
  <course>226.75</course>
  <speed>3.1609650425147064</speed>
  <fix>3d</fix>
</trkpt>
<trkpt lat="40.0714164" lon="-105.2297346">
  <ele>1583.0</ele>
  <time>2026-08-28T17:49:47Z</time>
  <course>225.45</course>
  <speed>3.46</speed>
  <fix>3d</fix>
</trkpt>
<trkpt lat="40.0714101" lon="-105.2297432">
  <ele>1583.02</ele>
  <time>2026-08-28T17:49:47Z</time>
  <course>226.74</course>
  <speed>3.0548322376196047</speed>
  <fix>3d</fix>
</trkpt>
<trkpt lat="40.0714097" lon="-105.2297437">
  <ele>1583.02</ele>
  <time>2026-08-28T17:49:47Z</time>
  <course>226.74</course>
  <speed>3.0336941177383063</speed>
  <fix>3d</fix>
</trkpt>
<trkpt lat="40.0714097" lon="-105.2297437">
  <ele>1583.02</ele>
  <time>2026-08-28T17:49:47Z</time>
  <course>226.74</course>
  <speed>3.0336941177383063</speed>
  <fix>3d</fix>
</trkpt>
<trkpt lat="40.0714121" lon="-105.2297402">
  <ele>1583.0</ele>
  <time>2026-08-28T17:49:47Z</time>
  <course>225.43</course>
  <speed>3.21</speed>
  <fix>3d</fix>
</trkpt>
<trkpt lat="40.0714082" lon="-105.2297457">
  <ele>1583.01</ele>
  <time>2026-08-28T17:49:47Z</time>
  <course>226.75</course>
  <speed>2.9275587099151403</speed>
  <fix>3d</fix>
</trkpt>
<trkpt lat="40.0714078" lon="-105.2297461">
  <ele>1583.01</ele>
  <time>2026-08-28T17:49:47Z</time>
  <course>226.75</course>
  <speed>2.913417237540823</speed>
  <fix>3d</fix>
</trkpt>
<trkpt lat="40.0714078" lon="-105.2297461">
  <ele>1583.01</ele>
  <time>2026-08-28T17:49:47Z</time>
  <course>226.75</course>
  <speed>2.913417237540823</speed>
  <fix>3d</fix>
</trkpt>
<trkpt lat="40.0714121" lon="-105.2297402">
  <ele>1583.0</ele>
  <time>2026-08-28T17:49:47Z</time>
  <course>225.43</course>
  <speed>3.21</speed>
  <fix>3d</fix>
</trkpt>
<trkpt lat="40.0714064" lon="-105.229748">
  <ele>1583.01</ele>
  <time>2026-08-28T17:49:47Z</time>
  <course>226.74</course>
  <speed>2.814427117549857</speed>
  <fix>3d</fix>
</trkpt>
<trkpt lat="40.071406" lon="-105.2297485">
  <ele>1583.01</ele>
  <time>2026-08-28T17:49:47Z</time>
  <course>226.74</course>
  <speed>2.7861442891566117</speed>
  <fix>3d</fix>
</trkpt>
<trkpt lat="40.071406" lon="-105.2297485">
  <ele>1583.01</ele>
  <time>2026-08-28T17:49:47Z</time>
  <course>226.74</course>
  <speed>2.7861442891566117</speed>
  <fix>3d</fix>
</trkpt>
<trkpt lat="40.0714082" lon="-105.2297453">
  <ele>1583.0</ele>
  <time>2026-08-28T17:49:47Z</time>
  <course>225.43</course>
  <speed>2.96</speed>
  <fix>3d</fix>
</trkpt>
<trkpt lat="40.0714046" lon="-105.2297503">
  <ele>1583.01</ele>
  <time>2026-08-28T17:49:47Z</time>
  <course>226.74</course>
  <speed>2.6871546289709496</speed>
  <fix>3d</fix>
</trkpt>
<trkpt lat="40.0714043" lon="-105.2297508">
  <ele>1583.01</ele>
  <time>2026-08-28T17:49:47Z</time>
  <course>226.74</course>
  <speed>2.6658769664033635</speed>
  <fix>3d</fix>
</trkpt>
<trkpt lat="40.0714043" lon="-105.2297508">
  <ele>1583.01</ele>
  <time>2026-08-28T17:49:47Z</time>
  <course>226.74</course>
  <speed>2.6658769664033635</speed>
  <fix>3d</fix>
</trkpt>
<trkpt lat="40.0714082" lon="-105.2297453">
  <ele>1583.0</ele>
  <time>2026-08-28T17:49:47Z</time>
  <course>225.43</course>
  <speed>2.96</speed>
  <fix>3d</fix>
</trkpt>
<trkpt lat="40.0714039" lon="-105.2297512">
  <ele>1583.01</ele>
  <time>2026-08-28T17:49:47Z</time>
  <course>226.74</course>
  <speed>2.644730610100016</speed>
  <fix>3d</fix>
</trkpt>
<trkpt lat="40.0714033" lon="-105.2297521">
  <ele>1583.01</ele>
  <time>2026-08-28T17:49:47Z</time>
  <course>226.74</course>
  <speed>2.595168587972658</speed>
  <fix>3d</fix>
</trkpt>
<trkpt lat="40.0714029" lon="-105.2297525">
  <ele>1583.01</ele>
  <time>2026-08-28T17:49:47Z</time>
  <course>226.74</course>
  <speed>2.5668852720758673</speed>
  <fix>3d</fix>
</trkpt>
<trkpt lat="40.0714026" lon="-105.229753">
  <ele>1583.01</ele>
  <time>2026-08-28T17:49:47Z</time>
  <course>226.74</course>
  <speed>2.552743622066266</speed>
  <fix>3d</fix>
</trkpt>
<trkpt lat="40.0714026" lon="-105.229753">
  <ele>1583.01</ele>
  <time>2026-08-28T17:49:47Z</time>
  <course>226.74</course>
  <speed>2.552743622066266</speed>
  <fix>3d</fix>
</trkpt>
<trkpt lat="40.0714047" lon="-105.22975">
  <ele>1583.0</ele>
  <time>2026-08-28T17:49:47Z</time>
  <course>225.42</course>
  <speed>2.72</speed>
  <fix>3d</fix>
</trkpt>
<trkpt lat="40.0714013" lon="-105.2297547">
  <ele>1583.01</ele>
  <time>2026-08-28T17:49:47Z</time>
  <course>226.74</course>
  <speed>2.453752228730521</speed>
  <fix>3d</fix>
</trkpt>
<trkpt lat="40.071401" lon="-105.2297551">
  <ele>1583.01</ele>
  <time>2026-08-28T17:49:47Z</time>
  <course>226.74</course>
  <speed>2.4254690268069803</speed>
  <fix>3d</fix>
</trkpt>
<trkpt lat="40.071401" lon="-105.2297551">
  <ele>1583.01</ele>
  <time>2026-08-28T17:49:47Z</time>
  <course>226.74</course>
  <speed>2.4254690268069803</speed>
  <fix>3d</fix>
</trkpt>
<trkpt lat="40.0714047" lon="-105.22975">
  <ele>1583.0</ele>
  <time>2026-08-28T17:49:47Z</time>
  <course>225.42</course>
  <speed>2.72</speed>
  <fix>3d</fix>
</trkpt>
<trkpt lat="40.0713998" lon="-105.2297567">
  <ele>1583.01</ele>
  <time>2026-08-28T17:49:47Z</time>
  <course>226.75</course>
  <speed>2.3406195760951842</speed>
  <fix>3d</fix>
</trkpt>
<trkpt lat="40.0713995" lon="-105.2297571">
  <ele>1583.01</ele>
  <time>2026-08-28T17:49:47Z</time>
  <course>226.75</course>
  <speed>2.3123364807051763</speed>
  <fix>3d</fix>
</trkpt>
<trkpt lat="40.0713995" lon="-105.2297571">
  <ele>1583.01</ele>
  <time>2026-08-28T17:49:47Z</time>
  <course>226.75</course>
  <speed>2.3123364807051763</speed>
  <fix>3d</fix>
</trkpt>
<trkpt lat="40.0714014" lon="-105.2297545">
  <ele>1583.0</ele>
  <time>2026-08-28T17:49:47Z</time>
  <course>225.42</course>
  <speed>2.49</speed>
  <fix>3d</fix>
</trkpt>
<trkpt lat="40.0713983" lon="-105.2297586">
  <ele>1583.01</ele>
  <time>2026-08-28T17:49:47Z</time>
  <course>226.75</course>
  <speed>2.2274873737015883</speed>
  <fix>3d</fix>
</trkpt>
<trkpt lat="40.0713981" lon="-105.229759">
  <ele>1583.01</ele>
  <time>2026-08-28T17:49:47Z</time>
  <course>226.75</course>
  <speed>2.2062184841941654</speed>
  <fix>3d</fix>
</trkpt>
<trkpt lat="40.0713981" lon="-105.229759">
  <ele>1583.01</ele>
  <time>2026-08-28T17:49:47Z</time>
  <course>226.75</course>
  <speed>2.2062184841941654</speed>
  <fix>3d</fix>
</trkpt>
<trkpt lat="40.0714014" lon="-105.2297545">
  <ele>1583.0</ele>
  <time>2026-08-28T17:49:47Z</time>
  <course>225.42</course>
  <speed>2.49</speed>
  <fix>3d</fix>
</trkpt>
<trkpt lat="40.0713972" lon="-105.2297601">
  <ele>1583.01</ele>
  <time>2026-08-28T17:49:47Z</time>
  <course>226.75</course>
  <speed>2.1426385602802913</speed>
  <fix>3d</fix>
</trkpt>
<trkpt lat="40.071397" lon="-105.2297604">
  <ele>1583.01</ele>
  <time>2026-08-28T17:49:47Z</time>
  <course>226.75</course>
  <speed>2.1143556938225885</speed>
  <fix>3d</fix>
</trkpt>
<trkpt lat="40.0713967" lon="-105.2297608">
  <ele>1583.01</ele>
  <time>2026-08-28T17:49:47Z</time>
  <course>226.75</course>
  <speed>2.1002142747824566</speed>
  <fix>3d</fix>
</trkpt>
<trkpt lat="40.0713967" lon="-105.2297608">
  <ele>1583.01</ele>
  <time>2026-08-28T17:49:47Z</time>
  <course>226.75</course>
  <speed>2.1002142747824566</speed>
  <fix>3d</fix>
</trkpt>
<trkpt lat="40.0713983" lon="-105.2297585">
  <ele>1583.0</ele>
  <time>2026-08-28T17:49:47Z</time>
  <course>225.42</course>
  <speed>2.27</speed>
  <fix>3d</fix>
</trkpt>
<trkpt lat="40.0713954" lon="-105.2297625">
  <ele>1583.0</ele>
  <time>2026-08-28T17:49:47Z</time>
  <course>226.75</course>
  <speed>1.9870832896484234</speed>
  <fix>3d</fix>
</trkpt>
<trkpt lat="40.0713954" lon="-105.2297625">
  <ele>1583.0</ele>
  <time>2026-08-28T17:49:47Z</time>
  <course>226.75</course>
  <speed>1.9870832896484234</speed>
  <fix>3d</fix>
</trkpt>
<trkpt lat="40.0713983" lon="-105.2297585">
  <ele>1583.0</ele>
  <time>2026-08-28T17:49:47Z</time>
  <course>225.42</course>
  <speed>2.27</speed>
  <fix>3d</fix>
</trkpt>
<trkpt lat="40.0713944" lon="-105.2297639">
  <ele>1583.0</ele>
  <time>2026-08-28T17:49:47Z</time>
  <course>226.75</course>
  <speed>1.909240686765291</speed>
  <fix>3d</fix>
</trkpt>
<trkpt lat="40.0713941" lon="-105.2297642">
  <ele>1583.0</ele>
  <time>2026-08-28T17:49:47Z</time>
  <course>226.75</course>
  <speed>1.8880942773071476</speed>
  <fix>3d</fix>
</trkpt>
<trkpt lat="40.0713941" lon="-105.2297642">
  <ele>1583.0</ele>
  <time>2026-08-28T17:49:47Z</time>
  <course>226.75</course>
  <speed>1.8880942773071476</speed>
  <fix>3d</fix>
</trkpt>
<trkpt lat="40.0713956" lon="-105.229762">
  <ele>1583.0</ele>
  <time>2026-08-28T17:49:47Z</time>
  <course>225.42</course>
  <speed>2.05</speed>
  <fix>3d</fix>
</trkpt>
<trkpt lat="40.0713932" lon="-105.2297654">
  <ele>1583.0</ele>
  <time>2026-08-28T17:49:47Z</time>
  <course>226.75</course>
  <speed>1.8032470712578461</speed>
  <fix>3d</fix>
</trkpt>
<trkpt lat="40.0713929" lon="-105.2297657">
  <ele>1583.0</ele>
  <time>2026-08-28T17:49:47Z</time>
  <course>226.75</course>
  <speed>1.7819652072922187</speed>
  <fix>3d</fix>
</trkpt>
<trkpt lat="40.0713929" lon="-105.2297657">
  <ele>1583.0</ele>
  <time>2026-08-28T17:49:47Z</time>
  <course>226.75</course>
  <speed>1.7819652072922187</speed>
  <fix>3d</fix>
</trkpt>
<trkpt lat="40.0713956" lon="-105.229762">
  <ele>1583.0</ele>
  <time>2026-08-28T17:49:47Z</time>
  <course>225.42</course>
  <speed>2.05</speed>
  <fix>3d</fix>
</trkpt>
<trkpt lat="40.071392" lon="-105.2297669">
  <ele>1582.99</ele>
  <time>2026-08-28T17:49:47Z</time>
  <course>226.75</course>
  <speed>1.7042593699317015</speed>
  <fix>3d</fix>
</trkpt>
<trkpt lat="40.0713918" lon="-105.2297672">
  <ele>1582.99</ele>
  <time>2026-08-28T17:49:47Z</time>
  <course>226.75</course>
  <speed>1.682973558912914</speed>
  <fix>3d</fix>
</trkpt>
<trkpt lat="40.0713918" lon="-105.2297672">
  <ele>1582.99</ele>
  <time>2026-08-28T17:49:47Z</time>
  <course>226.75</course>
  <speed>1.682973558912914</speed>
  <fix>3d</fix>
</trkpt>
<trkpt lat="40.0713931" lon="-105.2297653">
  <ele>1583.0</ele>
  <time>2026-08-28T17:49:47Z</time>
  <course>225.42</course>
  <speed>1.85</speed>
  <fix>3d</fix>
</trkpt>
<trkpt lat="40.071391" lon="-105.2297683">
  <ele>1582.99</ele>
  <time>2026-08-28T17:49:47Z</time>
  <course>226.75</course>
  <speed>1.6052725625263766</speed>
  <fix>3d</fix>
</trkpt>
<trkpt lat="40.0713908" lon="-105.2297686">
  <ele>1582.99</ele>
  <time>2026-08-28T17:49:47Z</time>
  <course>226.75</course>
  <speed>1.5839823231336896</speed>
  <fix>3d</fix>
</trkpt>
<trkpt lat="40.0713908" lon="-105.2297686">
  <ele>1582.99</ele>
  <time>2026-08-28T17:49:47Z</time>
  <course>226.75</course>
  <speed>1.5839823231336896</speed>
  <fix>3d</fix>
</trkpt>
<trkpt lat="40.0713931" lon="-105.2297653">
  <ele>1583.0</ele>
  <time>2026-08-28T17:49:47Z</time>
  <course>225.42</course>
  <speed>1.85</speed>
  <fix>3d</fix>
</trkpt>
<trkpt lat="40.07139" lon="-105.2297697">
  <ele>1582.99</ele>
  <time>2026-08-28T17:49:47Z</time>
  <course>226.75</course>
  <speed>1.506286825275983</speed>
  <fix>3d</fix>
</trkpt>
<trkpt lat="40.0713898" lon="-105.2297699">
  <ele>1582.99</ele>
  <time>2026-08-28T17:49:47Z</time>
  <course>226.75</course>
  <speed>1.4849915824677256</speed>
  <fix>3d</fix>
</trkpt>
<trkpt lat="40.0713931" lon="-105.2297653">
  <ele>1583.0</ele>
  <time>2026-08-28T17:49:47Z</time>
  <course>225.42</course>
  <speed>1.85</speed>
  <fix>3d</fix>
</trkpt>
<trkpt lat="40.0713896" lon="-105.2297702">
  <ele>1582.99</ele>
  <time>2026-08-28T17:49:47Z</time>
  <course>226.75</course>
  <speed>1.4638647478507023</speed>
  <fix>3d</fix>
</trkpt>
<trkpt lat="40.0713892" lon="-105.2297706">
  <ele>1582.99</ele>
  <time>2026-08-28T17:49:47Z</time>
  <course>226.75</course>
  <speed>1.4284257068535278</speed>
  <fix>3d</fix>
</trkpt>
<trkpt lat="40.071389" lon="-105.2297709">
  <ele>1582.99</ele>
  <time>2026-08-28T17:49:47Z</time>
  <course>226.75</course>
  <speed>1.4073023839957068</speed>
  <fix>3d</fix>
</trkpt>
<trkpt lat="40.0713889" lon="-105.2297711">
  <ele>1582.99</ele>
  <time>2026-08-28T17:49:47Z</time>
  <course>226.76</course>
  <speed>1.386001443000692</speed>
  <fix>3d</fix>
</trkpt>
<trkpt lat="40.0713889" lon="-105.2297711">
  <ele>1582.99</ele>
  <time>2026-08-28T17:49:47Z</time>
  <course>226.76</course>
  <speed>1.386001443000692</speed>
  <fix>3d</fix>
</trkpt>
<trkpt lat="40.071391" lon="-105.2297682">
  <ele>1583.0</ele>
  <time>2026-08-28T17:49:47Z</time>
  <course>225.42</course>
  <speed>1.65</speed>
  <fix>3d</fix>
</trkpt>
<trkpt lat="40.0713882" lon="-105.229772">
  <ele>1582.99</ele>
  <time>2026-08-28T17:49:47Z</time>
  <course>226.76</course>
  <speed>1.30831953283592</speed>
  <fix>3d</fix>
</trkpt>
<trkpt lat="40.071388" lon="-105.2297723">
  <ele>1582.99</ele>
  <time>2026-08-28T17:49:47Z</time>
  <course>226.76</course>
  <speed>1.2870120434556935</speed>
  <fix>3d</fix>
</trkpt>
<trkpt lat="40.071388" lon="-105.2297723">
  <ele>1582.99</ele>
  <time>2026-08-28T17:49:47Z</time>
  <course>226.76</course>
  <speed>1.2870120434556935</speed>
  <fix>3d</fix>
</trkpt>
<trkpt lat="40.071391" lon="-105.2297682">
  <ele>1583.0</ele>
  <time>2026-08-28T17:49:47Z</time>
  <course>225.42</course>
  <speed>1.65</speed>
  <fix>3d</fix>
</trkpt>
<trkpt lat="40.0713874" lon="-105.2297731">
  <ele>1582.98</ele>
  <time>2026-08-28T17:49:47Z</time>
  <course>226.76</course>
  <speed>1.2093386622447826</speed>
  <fix>3d</fix>
</trkpt>
<trkpt lat="40.0713872" lon="-105.2297733">
  <ele>1582.98</ele>
  <time>2026-08-28T17:49:47Z</time>
  <course>226.76</course>
  <speed>1.188023568789778</speed>
  <fix>3d</fix>
</trkpt>
<trkpt lat="40.0713872" lon="-105.2297733">
  <ele>1582.98</ele>
  <time>2026-08-28T17:49:47Z</time>
  <course>226.76</course>
  <speed>1.188023568789778</speed>
  <fix>3d</fix>
</trkpt>
<trkpt lat="40.071389" lon="-105.2297708">
  <ele>1583.0</ele>
  <time>2026-08-28T17:49:47Z</time>
  <course>225.42</course>
  <speed>1.45</speed>
  <fix>3d</fix>
</trkpt>
<trkpt lat="40.0713866" lon="-105.2297741">
  <ele>1582.98</ele>
  <time>2026-08-28T17:49:47Z</time>
  <course>226.76</course>
  <speed>1.1173182178770737</speed>
  <fix>3d</fix>
</trkpt>
<trkpt lat="40.0713865" lon="-105.2297743">
  <ele>1582.98</ele>
  <time>2026-08-28T17:49:47Z</time>
  <course>226.76</course>
  <speed>1.0962207806824318</speed>
  <fix>3d</fix>
</trkpt>
<trkpt lat="40.0713865" lon="-105.2297743">
  <ele>1582.98</ele>
  <time>2026-08-28T17:49:47Z</time>
  <course>226.76</course>
  <speed>1.0962207806824318</speed>
  <fix>3d</fix>
</trkpt>
<trkpt lat="40.071389" lon="-105.2297708">
  <ele>1583.0</ele>
  <time>2026-08-28T17:49:47Z</time>
  <course>225.42</course>
  <speed>1.45</speed>
  <fix>3d</fix>
</trkpt>
<trkpt lat="40.071386" lon="-105.229775">
  <ele>1582.98</ele>
  <time>2026-08-28T17:49:47Z</time>
  <course>226.77</course>
  <speed>1.0183319694480775</speed>
  <fix>3d</fix>
</trkpt>
<trkpt lat="40.0713858" lon="-105.2297752">
  <ele>1582.98</ele>
  <time>2026-08-28T17:49:47Z</time>
  <course>226.77</course>
  <speed>0.9972462083156798</speed>
  <fix>3d</fix>
</trkpt>
<trkpt lat="40.0713858" lon="-105.2297752">
  <ele>1582.98</ele>
  <time>2026-08-28T17:49:47Z</time>
  <course>226.77</course>
  <speed>0.9972462083156798</speed>
  <fix>3d</fix>
</trkpt>
<trkpt lat="40.0713873" lon="-105.2297731">
  <ele>1583.0</ele>
  <time>2026-08-28T17:49:47Z</time>
  <course>225.42</course>
  <speed>1.26</speed>
  <fix>3d</fix>
</trkpt>
<trkpt lat="40.0713853" lon="-105.2297758">
  <ele>1582.98</ele>
  <time>2026-08-28T17:49:47Z</time>
  <course>226.77</course>
  <speed>0.9193475947648964</speed>
  <fix>3d</fix>
</trkpt>
<trkpt lat="40.0713852" lon="-105.229776">
  <ele>1582.98</ele>
  <time>2026-08-28T17:49:47Z</time>
  <course>226.77</course>
  <speed>0.9052071586106685</speed>
  <fix>3d</fix>
</trkpt>
<trkpt lat="40.0713852" lon="-105.229776">
  <ele>1582.98</ele>
  <time>2026-08-28T17:49:47Z</time>
  <course>226.77</course>
  <speed>0.9052071586106685</speed>
  <fix>3d</fix>
</trkpt>
<trkpt lat="40.0713858" lon="-105.2297751">
  <ele>1583.0</ele>
  <time>2026-08-28T17:49:47Z</time>
  <course>225.43</course>
  <speed>1.06</speed>
  <fix>3d</fix>
</trkpt>
<trkpt lat="40.0713848" lon="-105.2297766">
  <ele>1582.98</ele>
  <time>2026-08-28T17:49:47Z</time>
  <course>226.77</course>
  <speed>0.8275868534480233</speed>
  <fix>3d</fix>
</trkpt>
<trkpt lat="40.0713847" lon="-105.2297767">
  <ele>1582.98</ele>
  <time>2026-08-28T17:49:47Z</time>
  <course>226.76</course>
  <speed>0.8062257748298549</speed>
  <fix>3d</fix>
</trkpt>
<trkpt lat="40.0713858" lon="-105.2297751">
  <ele>1583.0</ele>
  <time>2026-08-28T17:49:47Z</time>
  <course>225.43</course>
  <speed>1.06</speed>
  <fix>3d</fix>
</trkpt>
<trkpt lat="40.0713845" lon="-105.2297769">
  <ele>1582.98</ele>
  <time>2026-08-28T17:49:47Z</time>
  <course>226.76</course>
  <speed>0.7920858539325141</speed>
  <fix>3d</fix>
</trkpt>
<trkpt lat="40.0713842" lon="-105.2297773">
  <ele>1582.98</ele>
  <time>2026-08-28T17:49:47Z</time>
  <course>226.75</course>
  <speed>0.7355270219373317</speed>
  <fix>3d</fix>
</trkpt>
<trkpt lat="40.0713842" lon="-105.2297774">
  <ele>1582.98</ele>
  <time>2026-08-28T17:49:47Z</time>
  <course>226.74</course>
  <speed>0.7144928271158499</speed>
  <fix>3d</fix>
</trkpt>
<trkpt lat="40.0713842" lon="-105.2297774">
  <ele>1582.98</ele>
  <time>2026-08-28T17:49:47Z</time>
  <course>226.74</course>
  <speed>0.7144928271158499</speed>
  <fix>3d</fix>
</trkpt>
<trkpt lat="40.0713846" lon="-105.2297767">
  <ele>1583.0</ele>
  <time>2026-08-28T17:49:47Z</time>
  <course>225.42</course>
  <speed>0.88</speed>
  <fix>3d</fix>
</trkpt>
<trkpt lat="40.0713838" lon="-105.2297779">
  <ele>1582.98</ele>
  <time>2026-08-28T17:49:47Z</time>
  <course>226.71</course>
  <speed>0.6506919393998976</speed>
  <fix>3d</fix>
</trkpt>
<trkpt lat="40.0713837" lon="-105.229778">
  <ele>1582.98</ele>
  <time>2026-08-28T17:49:47Z</time>
  <course>226.71</course>
  <speed>0.6296824596572467</speed>
  <fix>3d</fix>
</trkpt>
<trkpt lat="40.0713837" lon="-105.229778">
  <ele>1582.98</ele>
  <time>2026-08-28T17:49:47Z</time>
  <course>226.71</course>
  <speed>0.6296824596572467</speed>
  <fix>3d</fix>
</trkpt>
<trkpt lat="40.0713846" lon="-105.2297767">
  <ele>1583.0</ele>
  <time>2026-08-28T17:49:47Z</time>
  <course>225.42</course>
  <speed>0.88</speed>
  <fix>3d</fix>
</trkpt>
<trkpt lat="40.0713836" lon="-105.2297782">
  <ele>1582.98</ele>
  <time>2026-08-28T17:49:47Z</time>
  <course>226.69</course>
  <speed>0.6014149981501958</speed>
  <fix>3d</fix>
</trkpt>
<trkpt lat="40.0713834" lon="-105.2297784">
  <ele>1582.98</ele>
  <time>2026-08-28T17:49:47Z</time>
  <course>226.67</course>
  <speed>0.5658621740318044</speed>
  <fix>3d</fix>
</trkpt>
<trkpt lat="40.0713833" lon="-105.2297785">
  <ele>1582.98</ele>
  <time>2026-08-28T17:49:47Z</time>
  <course>226.66</course>
  <speed>0.5517245689653489</speed>
  <fix>3d</fix>
</trkpt>
<trkpt lat="40.0713833" lon="-105.2297785">
  <ele>1582.98</ele>
  <time>2026-08-28T17:49:47Z</time>
  <course>226.66</course>
  <speed>0.5517245689653489</speed>
  <fix>3d</fix>
</trkpt>
<trkpt lat="40.0713836" lon="-105.2297779">
  <ele>1583.0</ele>
  <time>2026-08-28T17:49:47Z</time>
  <course>225.36</course>
  <speed>0.7</speed>
  <fix>3d</fix>
</trkpt>
<trkpt lat="40.0713831" lon="-105.2297788">
  <ele>1582.98</ele>
  <time>2026-08-28T17:49:47Z</time>
  <course>226.64</course>
  <speed>0.5024937810560445</speed>
  <fix>3d</fix>
</trkpt>
<trkpt lat="40.071383" lon="-105.2297789">
  <ele>1582.98</ele>
  <time>2026-08-28T17:49:47Z</time>
  <course>226.63</course>
  <speed>0.4883646178829912</speed>
  <fix>3d</fix>
</trkpt>
<trkpt lat="40.071383" lon="-105.229779">
  <ele>1582.98</ele>
  <time>2026-08-28T17:49:47Z</time>
  <course>226.62</course>
  <speed>0.474236228055175</speed>
  <fix>3d</fix>
</trkpt>
<trkpt lat="40.071383" lon="-105.229779">
  <ele>1582.98</ele>
  <time>2026-08-28T17:49:47Z</time>
  <course>226.62</course>
  <speed>0.474236228055175</speed>
  <fix>3d</fix>
</trkpt>
<trkpt lat="40.0713836" lon="-105.2297779">
  <ele>1583.0</ele>
  <time>2026-08-28T17:49:47Z</time>
  <course>225.36</course>
  <speed>0.7</speed>
  <fix>3d</fix>
</trkpt>
<trkpt lat="40.0713827" lon="-105.2297793">
  <ele>1582.98</ele>
  <time>2026-08-28T17:49:47Z</time>
  <course>226.58</course>
  <speed>0.41773197148410846</speed>
  <fix>3d</fix>
</trkpt>
<trkpt lat="40.0713827" lon="-105.2297794">
  <ele>1582.98</ele>
  <time>2026-08-28T17:49:47Z</time>
  <course>226.57</course>
  <speed>0.40360872141221127</speed>
  <fix>3d</fix>
</trkpt>
<trkpt lat="40.0713827" lon="-105.2297794">
  <ele>1582.98</ele>
  <time>2026-08-28T17:49:47Z</time>
  <course>226.57</course>
  <speed>0.40360872141221127</speed>
  <fix>3d</fix>
</trkpt>
<trkpt lat="40.0713828" lon="-105.229779">
  <ele>1583.0</ele>
  <time>2026-08-28T17:49:47Z</time>
  <course>225.28</course>
  <speed>0.54</speed>
  <fix>3d</fix>
</trkpt>
<trkpt lat="40.0713825" lon="-105.2297796">
  <ele>1582.98</ele>
  <time>2026-08-28T17:49:47Z</time>
  <course>226.54</course>
  <speed>0.36796738985948196</speed>
  <fix>3d</fix>
</trkpt>
<trkpt lat="40.0713825" lon="-105.2297797">
  <ele>1582.98</ele>
  <time>2026-08-28T17:49:47Z</time>
  <course>226.53</course>
  <speed>0.3538361202590826</speed>
  <fix>3d</fix>
</trkpt>
<trkpt lat="40.0713824" lon="-105.2297797">
  <ele>1582.98</ele>
  <time>2026-08-28T17:49:47Z</time>
  <course>226.52</course>
  <speed>0.3397057550292606</speed>
  <fix>3d</fix>
</trkpt>
<trkpt lat="40.0713824" lon="-105.2297797">
  <ele>1582.98</ele>
  <time>2026-08-28T17:49:47Z</time>
  <course>226.52</course>
  <speed>0.3397057550292606</speed>
  <fix>3d</fix>
</trkpt>
<trkpt lat="40.0713828" lon="-105.229779">
  <ele>1583.0</ele>
  <time>2026-08-28T17:49:47Z</time>
  <course>225.28</course>
  <speed>0.54</speed>
  <fix>3d</fix>
</trkpt>
<trkpt lat="40.0713822" lon="-105.22978">
  <ele>1582.98</ele>
  <time>2026-08-28T17:49:47Z</time>
  <course>226.47</course>
  <speed>0.2906888370749727</speed>
  <fix>3d</fix>
</trkpt>
<trkpt lat="40.0713822" lon="-105.22978">
  <ele>1582.98</ele>
  <time>2026-08-28T17:49:47Z</time>
  <course>226.46</course>
  <speed>0.2906888370749727</speed>
  <fix>3d</fix>
</trkpt>
<trkpt lat="40.0713822" lon="-105.22978">
  <ele>1582.98</ele>
  <time>2026-08-28T17:49:47Z</time>
  <course>226.46</course>
  <speed>0.2906888370749727</speed>
  <fix>3d</fix>
</trkpt>
<trkpt lat="40.0713822" lon="-105.2297798">
  <ele>1583.0</ele>
  <time>2026-08-28T17:49:47Z</time>
  <course>225.17</course>
  <speed>0.41</speed>
  <fix>3d</fix>
</trkpt>
<trkpt lat="40.0713821" lon="-105.2297802">
  <ele>1582.98</ele>
  <time>2026-08-28T17:49:47Z</time>
  <course>226.43</course>
  <speed>0.25612496949731395</speed>
  <fix>3d</fix>
</trkpt>
<trkpt lat="40.0713821" lon="-105.2297802">
  <ele>1582.98</ele>
  <time>2026-08-28T17:49:47Z</time>
  <course>226.42</course>
  <speed>0.24839484696748443</speed>
  <fix>3d</fix>
</trkpt>
<trkpt lat="40.071382" lon="-105.2297803">
  <ele>1582.98</ele>
  <time>2026-08-28T17:49:47Z</time>
  <course>226.41</course>
  <speed>0.23430749027719963</speed>
  <fix>3d</fix>
</trkpt>
<trkpt lat="40.071382" lon="-105.2297803">
  <ele>1582.98</ele>
  <time>2026-08-28T17:49:47Z</time>
  <course>226.41</course>
  <speed>0.23430749027719963</speed>
  <fix>3d</fix>
</trkpt>
<trkpt lat="40.0713822" lon="-105.2297798">
  <ele>1583.0</ele>
  <time>2026-08-28T17:49:47Z</time>
  <course>225.17</course>
  <speed>0.41</speed>
  <fix>3d</fix>
</trkpt>
<trkpt lat="40.0713819" lon="-105.2297804">
  <ele>1582.98</ele>
  <time>2026-08-28T17:49:47Z</time>
  <course>226.38</course>
  <speed>0.20615528128088303</speed>
  <fix>3d</fix>
</trkpt>
<trkpt lat="40.0713819" lon="-105.2297805">
  <ele>1582.98</ele>
  <time>2026-08-28T17:49:47Z</time>
  <course>226.36</course>
  <speed>0.19209372712298545</speed>
  <fix>3d</fix>
</trkpt>
<trkpt lat="40.0713819" lon="-105.2297805">
  <ele>1582.98</ele>
  <time>2026-08-28T17:49:47Z</time>
  <course>226.36</course>
  <speed>0.19209372712298545</speed>
  <fix>3d</fix>
</trkpt>
<trkpt lat="40.0713818" lon="-105.2297804">
  <ele>1583.0</ele>
  <time>2026-08-28T17:49:47Z</time>
  <course>225.07</course>
  <speed>0.3</speed>
  <fix>3d</fix>
</trkpt>
<trkpt lat="40.0713817" lon="-105.2297807">
  <ele>1582.98</ele>
  <time>2026-08-28T17:49:47Z</time>
  <course>226.32</course>
  <speed>0.15811388300841897</speed>
  <fix>3d</fix>
</trkpt>
<trkpt lat="40.0713817" lon="-105.2297807">
  <ele>1582.98</ele>
  <time>2026-08-28T17:49:47Z</time>
  <course>226.32</course>
  <speed>0.15811388300841897</speed>
  <fix>3d</fix>
</trkpt>
<trkpt lat="40.0713818" lon="-105.2297804">
  <ele>1583.0</ele>
  <time>2026-08-28T17:49:47Z</time>
  <course>225.07</course>
  <speed>0.3</speed>
  <fix>3d</fix>
</trkpt>
<trkpt lat="40.0713816" lon="-105.2297808">
  <ele>1582.98</ele>
  <time>2026-08-28T17:49:47Z</time>
  <course>226.28</course>
  <speed>0.130384048104053</speed>
  <fix>3d</fix>
</trkpt>
<trkpt lat="40.0713816" lon="-105.2297809">
  <ele>1582.98</ele>
  <time>2026-08-28T17:49:47Z</time>
  <course>226.27</course>
  <speed>0.130384048104053</speed>
  <fix>3d</fix>
</trkpt>
<trkpt lat="40.0713814" lon="-105.2297809">
  <ele>1583.0</ele>
  <time>2026-08-28T17:49:47Z</time>
  <course>224.97</course>
  <speed>0.22</speed>
  <fix>3d</fix>
</trkpt>
<trkpt lat="40.0713816" lon="-105.2297809">
  <ele>1582.98</ele>
  <time>2026-08-28T17:49:47Z</time>
  <course>226.26</course>
  <speed>0.130384048104053</speed>
  <fix>3d</fix>
</trkpt>
<trkpt lat="40.0713815" lon="-105.229781">
  <ele>1582.98</ele>
  <time>2026-08-28T17:49:47Z</time>
  <course>226.24</course>
  <speed>0.11661903789690602</speed>
  <fix>3d</fix>
</trkpt>
<trkpt lat="40.0713815" lon="-105.229781">
  <ele>1582.98</ele>
  <time>2026-08-28T17:49:47Z</time>
  <course>226.23</course>
  <speed>0.10295630140987001</speed>
  <fix>3d</fix>
</trkpt>
<trkpt lat="40.0713815" lon="-105.229781">
  <ele>1582.98</ele>
  <time>2026-08-28T17:49:47Z</time>
  <course>226.23</course>
  <speed>0.10295630140987001</speed>
  <fix>3d</fix>
</trkpt>
<trkpt lat="40.0713814" lon="-105.2297809">
  <ele>1583.0</ele>
  <time>2026-08-28T17:49:47Z</time>
  <course>224.97</course>
  <speed>0.22</speed>
  <fix>3d</fix>
</trkpt>
<trkpt lat="40.0713815" lon="-105.2297811">
  <ele>1582.98</ele>
  <time>2026-08-28T17:49:47Z</time>
  <course>226.2</course>
  <speed>0.09848857801796104</speed>
  <fix>3d</fix>
</trkpt>
<trkpt lat="40.0713814" lon="-105.2297811">
  <ele>1582.98</ele>
  <time>2026-08-28T17:49:47Z</time>
  <course>226.19</course>
  <speed>0.08944271909999159</speed>
  <fix>3d</fix>
</trkpt>
<trkpt lat="40.0713814" lon="-105.2297809">
  <ele>1583.0</ele>
  <time>2026-08-28T17:49:47Z</time>
  <course>224.97</course>
  <speed>0.22</speed>
  <fix>3d</fix>
</trkpt>
<trkpt lat="40.0713814" lon="-105.2297813">
  <ele>1582.98</ele>
  <time>2026-08-28T17:49:47Z</time>
  <course>226.15</course>
  <speed>0.0854400374531753</speed>
  <fix>3d</fix>
</trkpt>
<trkpt lat="40.0713812" lon="-105.2297812">
  <ele>1583.0</ele>
  <time>2026-08-28T17:49:47Z</time>
  <course>224.87</course>
  <speed>0.17</speed>
  <fix>3d</fix>
</trkpt>
<trkpt lat="40.0713813" lon="-105.2297814">
  <ele>1582.98</ele>
  <time>2026-08-28T17:49:47Z</time>
  <course>226.15</course>
  <speed>0.07280109889280519</speed>
  <fix>3d</fix>
</trkpt>
<trkpt lat="40.0713812" lon="-105.2297812">
  <ele>1583.0</ele>
  <time>2026-08-28T17:49:47Z</time>
  <course>224.87</course>
  <speed>0.17</speed>
  <fix>3d</fix>
</trkpt>
<trkpt lat="40.0713812" lon="-105.2297815">
  <ele>1582.98</ele>
  <time>2026-08-28T17:49:47Z</time>
  <course>226.15</course>
  <speed>0.07280109889280519</speed>
  <fix>3d</fix>
</trkpt>
<trkpt lat="40.071381" lon="-105.2297815">
  <ele>1583.0</ele>
  <time>2026-08-28T17:49:47Z</time>
  <course>224.81</course>
  <speed>0.13</speed>
  <fix>3d</fix>
</trkpt>
<trkpt lat="40.0713812" lon="-105.2297816">
  <ele>1582.98</ele>
  <time>2026-08-28T17:49:47Z</time>
  <course>226.15</course>
  <speed>0.07071067811865475</speed>
  <fix>3d</fix>
</trkpt>
<trkpt lat="40.071381" lon="-105.2297815">
  <ele>1583.0</ele>
  <time>2026-08-28T17:49:47Z</time>
  <course>224.81</course>
  <speed>0.13</speed>
  <fix>3d</fix>
</trkpt>
<trkpt lat="40.0713811" lon="-105.2297817">
  <ele>1582.98</ele>
  <time>2026-08-28T17:49:47Z</time>
  <course>226.14</course>
  <speed>0.07071067811865475</speed>
  <fix>3d</fix>
</trkpt>
<trkpt lat="40.0713808" lon="-105.2297816">
  <ele>1583.0</ele>
  <time>2026-08-28T17:49:47Z</time>
  <course>224.79</course>
  <speed>0.12</speed>
  <fix>3d</fix>
</trkpt>
<trkpt lat="40.0713811" lon="-105.2297818">
  <ele>1582.98</ele>
  <time>2026-08-28T17:49:47Z</time>
  <course>226.14</course>
  <speed>0.07</speed>
  <fix>3d</fix>
</trkpt>
<trkpt lat="40.0713807" lon="-105.2297819">
  <ele>1583.0</ele>
  <time>2026-08-28T17:49:47Z</time>
  <course>224.78</course>
  <speed>0.11</speed>
  <fix>3d</fix>
</trkpt>
<trkpt lat="40.071381" lon="-105.2297819">
  <ele>1582.98</ele>
  <time>2026-08-28T17:49:47Z</time>
  <course>226.14</course>
  <speed>0.07</speed>
  <fix>3d</fix>
</trkpt>
<trkpt lat="40.0713807" lon="-105.2297819">
  <ele>1583.0</ele>
  <time>2026-08-28T17:49:47Z</time>
  <course>224.78</course>
  <speed>0.11</speed>
  <fix>3d</fix>
</trkpt>
<trkpt lat="40.071381" lon="-105.229782">
  <ele>1582.98</ele>
  <time>2026-08-28T17:49:47Z</time>
  <course>226.13</course>
  <speed>0.07</speed>
  <fix>3d</fix>
</trkpt>
<trkpt lat="40.0713805" lon="-105.2297821">
  <ele>1583.0</ele>
  <time>2026-08-28T17:49:47Z</time>
  <course>224.78</course>
  <speed>0.1</speed>
  <fix>3d</fix>
</trkpt>
<trkpt lat="40.0713809" lon="-105.2297821">
  <ele>1582.98</ele>
  <time>2026-08-28T17:49:47Z</time>
  <course>226.13</course>
  <speed>0.07</speed>
  <fix>3d</fix>
</trkpt>
<trkpt lat="40.0713805" lon="-105.2297821">
  <ele>1583.0</ele>
  <time>2026-08-28T17:49:47Z</time>
  <course>224.78</course>
  <speed>0.1</speed>
  <fix>3d</fix>
</trkpt>
<trkpt lat="40.0713808" lon="-105.2297822">
  <ele>1582.97</ele>
  <time>2026-08-28T17:49:47Z</time>
  <course>226.12</course>
  <speed>0.07</speed>
  <fix>3d</fix>
</trkpt>
<trkpt lat="40.0713804" lon="-105.2297822">
  <ele>1583.0</ele>
  <time>2026-08-28T17:49:47Z</time>
  <course>224.78</course>
  <speed>0.09</speed>
  <fix>3d</fix>
</trkpt>
<trkpt lat="40.0713808" lon="-105.2297823">
  <ele>1582.97</ele>
  <time>2026-08-28T17:49:47Z</time>
  <course>226.12</course>
  <speed>0.06</speed>
  <fix>3d</fix>
</trkpt>
<trkpt lat="40.0713804" lon="-105.2297822">
  <ele>1583.0</ele>
  <time>2026-08-28T17:49:47Z</time>
  <course>224.78</course>
  <speed>0.09</speed>
  <fix>3d</fix>
</trkpt>
<trkpt lat="40.0713808" lon="-105.2297824">
  <ele>1582.97</ele>
  <time>2026-08-28T17:49:47Z</time>
  <course>226.11</course>
  <speed>0.06</speed>
  <fix>3d</fix>
</trkpt>
<trkpt lat="40.0713803" lon="-105.2297823">
  <ele>1583.0</ele>
  <time>2026-08-28T17:49:47Z</time>
  <course>224.77</course>
  <speed>0.08</speed>
  <fix>3d</fix>
</trkpt>
<trkpt lat="40.0713807" lon="-105.2297825">
  <ele>1582.98</ele>
  <time>2026-08-28T17:49:47Z</time>
  <course>226.11</course>
  <speed>0.06</speed>
  <fix>3d</fix>
</trkpt>
<trkpt lat="40.0713803" lon="-105.2297823">
  <ele>1583.0</ele>
  <time>2026-08-28T17:49:47Z</time>
  <course>224.77</course>
  <speed>0.08</speed>
  <fix>3d</fix>
</trkpt>
<trkpt lat="40.0713807" lon="-105.2297825">
  <ele>1582.98</ele>
  <time>2026-08-28T17:49:47Z</time>
  <course>226.1</course>
  <speed>0.06082762530298219</speed>
  <fix>3d</fix>
</trkpt>
<trkpt lat="40.0713802" lon="-105.2297825">
  <ele>1583.0</ele>
  <time>2026-08-28T17:49:47Z</time>
  <course>224.77</course>
  <speed>0.07</speed>
  <fix>3d</fix>
</trkpt>
<trkpt lat="40.0713806" lon="-105.2297826">
  <ele>1582.98</ele>
  <time>2026-08-28T17:49:47Z</time>
  <course>226.09</course>
  <speed>0.06082762530298219</speed>
  <fix>3d</fix>
</trkpt>
<trkpt lat="40.0713802" lon="-105.2297825">
  <ele>1583.0</ele>
  <time>2026-08-28T17:49:47Z</time>
  <course>224.77</course>
  <speed>0.07</speed>
  <fix>3d</fix>
</trkpt>
<trkpt lat="40.0713806" lon="-105.2297827">
  <ele>1582.97</ele>
  <time>2026-08-28T17:49:47Z</time>
  <course>226.09</course>
  <speed>0.06082762530298219</speed>
  <fix>3d</fix>
</trkpt>
<trkpt lat="40.0713801" lon="-105.2297826">
  <ele>1583.0</ele>
  <time>2026-08-28T17:49:47Z</time>
  <course>224.76</course>
  <speed>0.06</speed>
  <fix>3d</fix>
</trkpt>
<trkpt lat="40.0713805" lon="-105.2297828">
  <ele>1582.97</ele>
  <time>2026-08-28T17:49:47Z</time>
  <course>226.08</course>
  <speed>0.06082762530298219</speed>
  <fix>3d</fix>
</trkpt>
<trkpt lat="40.0713801" lon="-105.2297826">
  <ele>1583.0</ele>
  <time>2026-08-28T17:49:47Z</time>
  <course>224.76</course>
  <speed>0.06</speed>
  <fix>3d</fix>
</trkpt>
<trkpt lat="40.0713805" lon="-105.2297828">
  <ele>1582.97</ele>
  <time>2026-08-28T17:49:47Z</time>
  <course>226.07</course>
  <speed>0.06082762530298219</speed>
  <fix>3d</fix>
</trkpt>
<trkpt lat="40.07138" lon="-105.2297827">
  <ele>1583.0</ele>
  <time>2026-08-28T17:49:47Z</time>
  <course>224.76</course>
  <speed>0.06</speed>
  <fix>3d</fix>
</trkpt>
<trkpt lat="40.0713804" lon="-105.2297829">
  <ele>1582.97</ele>
  <time>2026-08-28T17:49:47Z</time>
  <course>226.06</course>
  <speed>0.06082762530298219</speed>
  <fix>3d</fix>
</trkpt>
<trkpt lat="40.07138" lon="-105.2297827">
  <ele>1583.0</ele>
  <time>2026-08-28T17:49:47Z</time>
  <course>224.76</course>
  <speed>0.06</speed>
  <fix>3d</fix>
</trkpt>
<trkpt lat="40.0713804" lon="-105.2297829">
  <ele>1582.98</ele>
  <time>2026-08-28T17:49:47Z</time>
  <course>226.06</course>
  <speed>0.06082762530298219</speed>
  <fix>3d</fix>
</trkpt>
<trkpt lat="40.07138" lon="-105.2297827">
  <ele>1583.0</ele>
  <time>2026-08-28T17:49:47Z</time>
  <course>224.76</course>
  <speed>0.06</speed>
  <fix>3d</fix>
</trkpt>
<trkpt lat="40.0713804" lon="-105.229783">
  <ele>1582.98</ele>
  <time>2026-08-28T17:49:47Z</time>
  <course>226.05</course>
  <speed>0.06082762530298219</speed>
  <fix>3d</fix>
</trkpt>
<trkpt lat="40.0713799" lon="-105.2297828">
  <ele>1583.0</ele>
  <time>2026-08-28T17:49:47Z</time>
  <course>224.75</course>
  <speed>0.05</speed>
  <fix>3d</fix>
</trkpt>
<trkpt lat="40.0713803" lon="-105.2297831">
  <ele>1582.98</ele>
  <time>2026-08-28T17:49:47Z</time>
  <course>226.04</course>
  <speed>0.06082762530298219</speed>
  <fix>3d</fix>
</trkpt>
<trkpt lat="40.0713799" lon="-105.2297828">
  <ele>1583.0</ele>
  <time>2026-08-28T17:49:47Z</time>
  <course>224.75</course>
  <speed>0.05</speed>
  <fix>3d</fix>
</trkpt>
<trkpt lat="40.0713803" lon="-105.2297831">
  <ele>1582.97</ele>
  <time>2026-08-28T17:49:47Z</time>
  <course>226.03</course>
  <speed>0.06082762530298219</speed>
  <fix>3d</fix>
</trkpt>
<trkpt lat="40.0713798" lon="-105.2297829">
  <ele>1583.0</ele>
  <time>2026-08-28T17:49:47Z</time>
  <course>224.75</course>
  <speed>0.05</speed>
  <fix>3d</fix>
</trkpt>
<trkpt lat="40.0713803" lon="-105.2297832">
  <ele>1582.97</ele>
  <time>2026-08-28T17:49:47Z</time>
  <course>226.02</course>
  <speed>0.053851648071345036</speed>
  <fix>3d</fix>
</trkpt>
<trkpt lat="40.0713798" lon="-105.2297829">
  <ele>1583.0</ele>
  <time>2026-08-28T17:49:47Z</time>
  <course>224.75</course>
  <speed>0.05</speed>
  <fix>3d</fix>
</trkpt>
<trkpt lat="40.0713802" lon="-105.2297832">
  <ele>1582.97</ele>
  <time>2026-08-28T17:49:47Z</time>
  <course>226.01</course>
  <speed>0.05099019513592785</speed>
  <fix>3d</fix>
</trkpt>
<trkpt lat="40.0713798" lon="-105.229783">
  <ele>1583.0</ele>
  <time>2026-08-28T17:49:47Z</time>
  <course>224.75</course>
  <speed>0.04</speed>
  <fix>3d</fix>
</trkpt>
<trkpt lat="40.0713802" lon="-105.2297832">
  <ele>1582.97</ele>
  <time>2026-08-28T17:49:47Z</time>
  <course>226.0</course>
  <speed>0.053851648071345036</speed>
  <fix>3d</fix>
</trkpt>
<trkpt lat="40.0713798" lon="-105.229783">
  <ele>1583.0</ele>
  <time>2026-08-28T17:49:47Z</time>
  <course>224.75</course>
  <speed>0.04</speed>
  <fix>3d</fix>
</trkpt>
<trkpt lat="40.0713801" lon="-105.2297833">
  <ele>1582.96</ele>
  <time>2026-08-28T17:49:47Z</time>
  <course>225.99</course>
  <speed>0.05099019513592785</speed>
  <fix>3d</fix>
</trkpt>
<trkpt lat="40.0713797" lon="-105.229783">
  <ele>1583.0</ele>
  <time>2026-08-28T17:49:47Z</time>
  <course>224.74</course>
  <speed>0.04</speed>
  <fix>3d</fix>
</trkpt>
<trkpt lat="40.0713801" lon="-105.2297833">
  <ele>1582.96</ele>
  <time>2026-08-28T17:49:47Z</time>
  <course>225.98</course>
  <speed>0.05099019513592785</speed>
  <fix>3d</fix>
</trkpt>
<trkpt lat="40.0713797" lon="-105.2297831">
  <ele>1583.0</ele>
  <time>2026-08-28T17:49:47Z</time>
  <course>224.74</course>
  <speed>0.03</speed>
  <fix>3d</fix>
</trkpt>
<trkpt lat="40.0713801" lon="-105.2297833">
  <ele>1582.96</ele>
  <time>2026-08-28T17:49:47Z</time>
  <course>225.97</course>
  <speed>0.05099019513592785</speed>
  <fix>3d</fix>
</trkpt>
<trkpt lat="40.0713797" lon="-105.2297831">
  <ele>1583.0</ele>
  <time>2026-08-28T17:49:47Z</time>
  <course>224.74</course>
  <speed>0.03</speed>
  <fix>3d</fix>
</trkpt>
<trkpt lat="40.07138" lon="-105.2297834">
  <ele>1582.96</ele>
  <time>2026-08-28T17:49:47Z</time>
  <course>225.96</course>
  <speed>0.05099019513592785</speed>
  <fix>3d</fix>
</trkpt>
<trkpt lat="40.0713797" lon="-105.2297832">
  <ele>1583.0</ele>
  <time>2026-08-28T17:49:47Z</time>
  <course>224.73</course>
  <speed>0.03</speed>
  <fix>3d</fix>
</trkpt>
<trkpt lat="40.07138" lon="-105.2297834">
  <ele>1582.96</ele>
  <time>2026-08-28T17:49:47Z</time>
  <course>225.95</course>
  <speed>0.05099019513592785</speed>
  <fix>3d</fix>
</trkpt>
<trkpt lat="40.0713797" lon="-105.2297832">
  <ele>1583.0</ele>
  <time>2026-08-28T17:49:47Z</time>
  <course>224.73</course>
  <speed>0.03</speed>
  <fix>3d</fix>
</trkpt>
<trkpt lat="40.07138" lon="-105.2297834">
  <ele>1582.97</ele>
  <time>2026-08-28T17:49:47Z</time>
  <course>225.94</course>
  <speed>0.05099019513592785</speed>
  <fix>3d</fix>
</trkpt>
<trkpt lat="40.0713796" lon="-105.2297832">
  <ele>1583.0</ele>
  <time>2026-08-28T17:49:47Z</time>
  <course>224.72</course>
  <speed>0.03</speed>
  <fix>3d</fix>
</trkpt>
<trkpt lat="40.07138" lon="-105.2297835">
  <ele>1582.97</ele>
  <time>2026-08-28T17:49:47Z</time>
  <course>225.93</course>
  <speed>0.0412310562561766</speed>
  <fix>3d</fix>
</trkpt>
<trkpt lat="40.0713796" lon="-105.2297832">
  <ele>1583.0</ele>
  <time>2026-08-28T17:49:47Z</time>
  <course>224.72</course>
  <speed>0.03</speed>
  <fix>3d</fix>
</trkpt>
<trkpt lat="40.0713799" lon="-105.2297835">
  <ele>1582.97</ele>
  <time>2026-08-28T17:49:47Z</time>
  <course>225.92</course>
  <speed>0.0412310562561766</speed>
  <fix>3d</fix>
</trkpt>
<trkpt lat="40.0713796" lon="-105.2297832">
  <ele>1583.0</ele>
  <time>2026-08-28T17:49:47Z</time>
  <course>224.72</course>
  <speed>0.02</speed>
  <fix>3d</fix>
</trkpt>
<trkpt lat="40.0713799" lon="-105.2297835">
  <ele>1582.97</ele>
  <time>2026-08-28T17:49:47Z</time>
  <course>225.91</course>
  <speed>0.0412310562561766</speed>
  <fix>3d</fix>
</trkpt>
<trkpt lat="40.0713796" lon="-105.2297832">
  <ele>1583.0</ele>
  <time>2026-08-28T17:49:47Z</time>
  <course>224.72</course>
  <speed>0.02</speed>
  <fix>3d</fix>
</trkpt>
<trkpt lat="40.0713799" lon="-105.2297835">
  <ele>1582.97</ele>
  <time>2026-08-28T17:49:47Z</time>
  <course>225.91</course>
  <speed>0.0412310562561766</speed>
  <fix>3d</fix>
</trkpt>
<trkpt lat="40.0713796" lon="-105.2297832">
  <ele>1583.0</ele>
  <time>2026-08-28T17:49:47Z</time>
  <course>224.71</course>
  <speed>0.02</speed>
  <fix>3d</fix>
</trkpt>
<trkpt lat="40.0713799" lon="-105.2297835">
  <ele>1582.97</ele>
  <time>2026-08-28T17:49:47Z</time>
  <course>225.9</course>
  <speed>0.0412310562561766</speed>
  <fix>3d</fix>
</trkpt>
<trkpt lat="40.0713796" lon="-105.2297832">
  <ele>1583.0</ele>
  <time>2026-08-28T17:49:47Z</time>
  <course>224.71</course>
  <speed>0.02</speed>
  <fix>3d</fix>
</trkpt>
<trkpt lat="40.0713799" lon="-105.2297836">
  <ele>1582.97</ele>
  <time>2026-08-28T17:49:47Z</time>
  <course>225.89</course>
  <speed>0.0412310562561766</speed>
  <fix>3d</fix>
</trkpt>
<trkpt lat="40.0713795" lon="-105.2297833">
  <ele>1583.0</ele>
  <time>2026-08-28T17:49:47Z</time>
  <course>224.7</course>
  <speed>0.02</speed>
  <fix>3d</fix>
</trkpt>
<trkpt lat="40.0713798" lon="-105.2297836">
  <ele>1582.97</ele>
  <time>2026-08-28T17:49:47Z</time>
  <course>225.88</course>
  <speed>0.0412310562561766</speed>
  <fix>3d</fix>
</trkpt>
<trkpt lat="40.0713795" lon="-105.2297833">
  <ele>1583.0</ele>
  <time>2026-08-28T17:49:47Z</time>
  <course>224.7</course>
  <speed>0.02</speed>
  <fix>3d</fix>
</trkpt>
<trkpt lat="40.0713798" lon="-105.2297836">
  <ele>1582.96</ele>
  <time>2026-08-28T17:49:47Z</time>
  <course>225.87</course>
  <speed>0.0412310562561766</speed>
  <fix>3d</fix>
</trkpt>
<trkpt lat="40.0713795" lon="-105.2297834">
  <ele>1583.0</ele>
  <time>2026-08-28T17:49:47Z</time>
  <course>224.7</course>
  <speed>0.02</speed>
  <fix>3d</fix>
</trkpt>
<trkpt lat="40.0713798" lon="-105.2297836">
  <ele>1582.96</ele>
  <time>2026-08-28T17:49:47Z</time>
  <course>225.87</course>
  <speed>0.0412310562561766</speed>
  <fix>3d</fix>
</trkpt>
<trkpt lat="40.0713795" lon="-105.2297834">
  <ele>1583.0</ele>
  <time>2026-08-28T17:49:47Z</time>
  <course>224.7</course>
  <speed>0.02</speed>
  <fix>3d</fix>
</trkpt>
<trkpt lat="40.0713798" lon="-105.2297836">
  <ele>1582.96</ele>
  <time>2026-08-28T17:49:47Z</time>
  <course>225.86</course>
  <speed>0.0412310562561766</speed>
  <fix>3d</fix>
</trkpt>
<trkpt lat="40.0713795" lon="-105.2297834">
  <ele>1583.0</ele>
  <time>2026-08-28T17:49:47Z</time>
  <course>224.7</course>
  <speed>0.02</speed>
  <fix>3d</fix>
</trkpt>
<trkpt lat="40.0713798" lon="-105.2297836">
  <ele>1582.96</ele>
  <time>2026-08-28T17:49:47Z</time>
  <course>225.85</course>
  <speed>0.0316227766016838</speed>
  <fix>3d</fix>
</trkpt>
<trkpt lat="40.0713795" lon="-105.2297834">
  <ele>1583.0</ele>
  <time>2026-08-28T17:49:47Z</time>
  <course>224.69</course>
  <speed>0.01</speed>
  <fix>3d</fix>
</trkpt>
<trkpt lat="40.0713798" lon="-105.2297836">
  <ele>1582.96</ele>
  <time>2026-08-28T17:49:47Z</time>
  <course>225.85</course>
  <speed>0.0316227766016838</speed>
  <fix>3d</fix>
</trkpt>
<trkpt lat="40.0713795" lon="-105.2297834">
  <ele>1583.0</ele>
  <time>2026-08-28T17:49:47Z</time>
  <course>224.69</course>
  <speed>0.01</speed>
  <fix>3d</fix>
</trkpt>
<trkpt lat="40.0713797" lon="-105.2297837">
  <ele>1582.96</ele>
  <time>2026-08-28T17:49:47Z</time>
  <course>225.84</course>
  <speed>0.0316227766016838</speed>
  <fix>3d</fix>
</trkpt>
<trkpt lat="40.0713795" lon="-105.2297834">
  <ele>1583.0</ele>
  <time>2026-08-28T17:49:47Z</time>
  <course>224.68</course>
  <speed>0.01</speed>
  <fix>3d</fix>
</trkpt>
<trkpt lat="40.0713797" lon="-105.2297837">
  <ele>1582.95</ele>
  <time>2026-08-28T17:49:47Z</time>
  <course>225.83</course>
  <speed>0.0316227766016838</speed>
  <fix>3d</fix>
</trkpt>
<trkpt lat="40.0713795" lon="-105.2297834">
  <ele>1583.0</ele>
  <time>2026-08-28T17:49:47Z</time>
  <course>224.68</course>
  <speed>0.01</speed>
  <fix>3d</fix>
</trkpt>
<trkpt lat="40.0713797" lon="-105.2297837">
  <ele>1582.95</ele>
  <time>2026-08-28T17:49:47Z</time>
  <course>225.83</course>
  <speed>0.0316227766016838</speed>
  <fix>3d</fix>
</trkpt>
<trkpt lat="40.0713795" lon="-105.2297835">
  <ele>1583.0</ele>
  <time>2026-08-28T17:49:47Z</time>
  <course>224.67</course>
  <speed>0.01</speed>
  <fix>3d</fix>
</trkpt>
<trkpt lat="40.0713797" lon="-105.2297837">
  <ele>1582.94</ele>
  <time>2026-08-28T17:49:47Z</time>
  <course>225.82</course>
  <speed>0.0316227766016838</speed>
  <fix>3d</fix>
</trkpt>
<trkpt lat="40.0713794" lon="-105.2297835">
  <ele>1583.0</ele>
  <time>2026-08-28T17:49:47Z</time>
  <course>224.66</course>
  <speed>0.01</speed>
  <fix>3d</fix>
</trkpt>
<trkpt lat="40.0713797" lon="-105.2297837">
  <ele>1582.94</ele>
  <time>2026-08-28T17:49:47Z</time>
  <course>225.82</course>
  <speed>0.0316227766016838</speed>
  <fix>3d</fix>
</trkpt>
<trkpt lat="40.0713794" lon="-105.2297835">
  <ele>1583.0</ele>
  <time>2026-08-28T17:49:47Z</time>
  <course>224.66</course>
  <speed>0.01</speed>
  <fix>3d</fix>
</trkpt>
<trkpt lat="40.0713797" lon="-105.2297837">
  <ele>1582.94</ele>
  <time>2026-08-28T17:49:47Z</time>
  <course>225.81</course>
  <speed>0.0316227766016838</speed>
  <fix>3d</fix>
</trkpt>
<trkpt lat="40.0713794" lon="-105.2297835">
  <ele>1583.0</ele>
  <time>2026-08-28T17:49:47Z</time>
  <course>224.64</course>
  <speed>0.01</speed>
  <fix>3d</fix>
</trkpt>
<trkpt lat="40.0713797" lon="-105.2297837">
  <ele>1582.93</ele>
  <time>2026-08-28T17:49:47Z</time>
  <course>225.8</course>
  <speed>0.0316227766016838</speed>
  <fix>3d</fix>
</trkpt>
<trkpt lat="40.0713794" lon="-105.2297835">
  <ele>1583.0</ele>
  <time>2026-08-28T17:49:47Z</time>
  <course>224.64</course>
  <speed>0.01</speed>
  <fix>3d</fix>
</trkpt>
<trkpt lat="40.0713797" lon="-105.2297837">
  <ele>1582.93</ele>
  <time>2026-08-28T17:49:47Z</time>
  <course>225.8</course>
  <speed>0.0316227766016838</speed>
  <fix>3d</fix>
</trkpt>
<trkpt lat="40.0713794" lon="-105.2297835">
  <ele>1583.0</ele>
  <time>2026-08-28T17:49:47Z</time>
  <course>224.63</course>
  <speed>0.01</speed>
  <fix>3d</fix>
</trkpt>
<trkpt lat="40.0713796" lon="-105.2297837">
  <ele>1582.92</ele>
  <time>2026-08-28T17:49:47Z</time>
  <course>225.79</course>
  <speed>0.0316227766016838</speed>
  <fix>3d</fix>
</trkpt>
<trkpt lat="40.0713794" lon="-105.2297835">
  <ele>1583.0</ele>
  <time>2026-08-28T17:49:47Z</time>
  <course>224.63</course>
  <speed>0.01</speed>
  <fix>3d</fix>
</trkpt>
<trkpt lat="40.0713796" lon="-105.2297837">
  <ele>1582.92</ele>
  <time>2026-08-28T17:49:47Z</time>
  <course>225.79</course>
  <speed>0.0316227766016838</speed>
  <fix>3d</fix>
</trkpt>
<trkpt lat="40.0713794" lon="-105.2297835">
  <ele>1583.0</ele>
  <time>2026-08-28T17:49:47Z</time>
  <course>224.61</course>
  <speed>0.01</speed>
  <fix>3d</fix>
</trkpt>
<trkpt lat="40.0713796" lon="-105.2297837">
  <ele>1582.92</ele>
  <time>2026-08-28T17:49:47Z</time>
  <course>225.78</course>
  <speed>0.022360679774997897</speed>
  <fix>3d</fix>
</trkpt>
<trkpt lat="40.0713794" lon="-105.2297835">
  <ele>1583.0</ele>
  <time>2026-08-28T17:49:47Z</time>
  <course>224.61</course>
  <speed>0.01</speed>
  <fix>3d</fix>
</trkpt>
<trkpt lat="40.0713796" lon="-105.2297837">
  <ele>1582.92</ele>
  <time>2026-08-28T17:49:47Z</time>
  <course>225.78</course>
  <speed>0.022360679774997897</speed>
  <fix>3d</fix>
</trkpt>
<trkpt lat="40.0713794" lon="-105.2297835">
  <ele>1583.0</ele>
  <time>2026-08-28T17:49:47Z</time>
  <course>224.6</course>
  <speed>0.0</speed>
  <fix>3d</fix>
</trkpt>
<trkpt lat="40.0713796" lon="-105.2297837">
  <ele>1582.93</ele>
  <time>2026-08-28T17:49:47Z</time>
  <course>225.78</course>
  <speed>0.022360679774997897</speed>
  <fix>3d</fix>
</trkpt>
<trkpt lat="40.0713794" lon="-105.2297835">
  <ele>1583.0</ele>
  <time>2026-08-28T17:49:47Z</time>
  <course>224.6</course>
  <speed>0.0</speed>
  <fix>3d</fix>
</trkpt>
<trkpt lat="40.0713796" lon="-105.2297837">
  <ele>1582.93</ele>
  <time>2026-08-28T17:49:47Z</time>
  <course>225.77</course>
  <speed>0.022360679774997897</speed>
  <fix>3d</fix>
</trkpt>
<trkpt lat="40.0713794" lon="-105.2297835">
  <ele>1583.0</ele>
  <time>2026-08-28T17:49:47Z</time>
  <course>224.58</course>
  <speed>0.0</speed>
  <fix>3d</fix>
</trkpt>
<trkpt lat="40.0713796" lon="-105.2297837">
  <ele>1582.93</ele>
  <time>2026-08-28T17:49:47Z</time>
  <course>225.77</course>
  <speed>0.022360679774997897</speed>
  <fix>3d</fix>
</trkpt>
<trkpt lat="40.0713794" lon="-105.2297835">
  <ele>1583.0</ele>
  <time>2026-08-28T17:49:47Z</time>
  <course>224.58</course>
  <speed>0.0</speed>
  <fix>3d</fix>
</trkpt>
<trkpt lat="40.0713796" lon="-105.2297837">
  <ele>1582.94</ele>
  <time>2026-08-28T17:49:47Z</time>
  <course>225.76</course>
  <speed>0.022360679774997897</speed>
  <fix>3d</fix>
</trkpt>
<trkpt lat="40.0713794" lon="-105.2297835">
  <ele>1583.0</ele>
  <time>2026-08-28T17:49:47Z</time>
  <course>224.56</course>
  <speed>0.0</speed>
  <fix>3d</fix>
</trkpt>
<trkpt lat="40.0713796" lon="-105.2297837">
  <ele>1582.95</ele>
  <time>2026-08-28T17:49:47Z</time>
  <course>225.76</course>
  <speed>0.022360679774997897</speed>
  <fix>3d</fix>
</trkpt>
<trkpt lat="40.0713794" lon="-105.2297835">
  <ele>1583.0</ele>
  <time>2026-08-28T17:49:47Z</time>
  <course>224.56</course>
  <speed>0.0</speed>
  <fix>3d</fix>
</trkpt>
<trkpt lat="40.0713796" lon="-105.2297837">
  <ele>1582.95</ele>
  <time>2026-08-28T17:49:47Z</time>
  <course>225.76</course>
  <speed>0.022360679774997897</speed>
  <fix>3d</fix>
</trkpt>
<trkpt lat="40.0713794" lon="-105.2297835">
  <ele>1583.0</ele>
  <time>2026-08-28T17:49:47Z</time>
  <course>224.56</course>
  <speed>0.0</speed>
  <fix>3d</fix>
</trkpt>
<trkpt lat="40.0713796" lon="-105.2297837">
  <ele>1582.96</ele>
  <time>2026-08-28T17:49:47Z</time>
  <course>225.75</course>
  <speed>0.022360679774997897</speed>
  <fix>3d</fix>
</trkpt>
<trkpt lat="40.0713794" lon="-105.2297835">
  <ele>1583.0</ele>
  <time>2026-08-28T17:49:47Z</time>
  <course>224.53</course>
  <speed>0.0</speed>
  <fix>3d</fix>
</trkpt>
<trkpt lat="40.0713796" lon="-105.2297837">
  <ele>1582.96</ele>
  <time>2026-08-28T17:49:47Z</time>
  <course>225.75</course>
  <speed>0.0282842712474619</speed>
  <fix>3d</fix>
</trkpt>
<trkpt lat="40.0713794" lon="-105.2297835">
  <ele>1583.0</ele>
  <time>2026-08-28T17:49:47Z</time>
  <course>224.53</course>
  <speed>0.0</speed>
  <fix>3d</fix>
</trkpt>
<trkpt lat="40.0713796" lon="-105.2297837">
  <ele>1582.97</ele>
  <time>2026-08-28T17:49:47Z</time>
  <course>225.75</course>
  <speed>0.0282842712474619</speed>
  <fix>3d</fix>
</trkpt>
<trkpt lat="40.0713793" lon="-105.2297835">
  <ele>1583.0</ele>
  <time>2026-08-28T17:49:47Z</time>
  <course>224.51</course>
  <speed>0.0</speed>
  <fix>3d</fix>
</trkpt>
<trkpt lat="40.0713796" lon="-105.2297837">
  <ele>1582.97</ele>
  <time>2026-08-28T17:49:47Z</time>
  <course>225.75</course>
  <speed>0.0282842712474619</speed>
  <fix>3d</fix>
</trkpt>
<trkpt lat="40.0713793" lon="-105.2297835">
  <ele>1583.0</ele>
  <time>2026-08-28T17:49:47Z</time>
  <course>224.51</course>
  <speed>0.0</speed>
  <fix>3d</fix>
</trkpt>
<trkpt lat="40.0713796" lon="-105.2297837">
  <ele>1582.97</ele>
  <time>2026-08-28T17:49:47Z</time>
  <course>225.74</course>
  <speed>0.022360679774997897</speed>
  <fix>3d</fix>
</trkpt>
<trkpt lat="40.0713792" lon="-105.2297835">
  <ele>1583.0</ele>
  <time>2026-08-28T17:49:47Z</time>
  <course>224.48</course>
  <speed>0.0</speed>
  <fix>3d</fix>
</trkpt>
<trkpt lat="40.0713796" lon="-105.2297837">
  <ele>1582.97</ele>
  <time>2026-08-28T17:49:47Z</time>
  <course>225.74</course>
  <speed>0.022360679774997897</speed>
  <fix>3d</fix>
</trkpt>
<trkpt lat="40.0713792" lon="-105.2297835">
  <ele>1583.0</ele>
  <time>2026-08-28T17:49:47Z</time>
  <course>224.48</course>
  <speed>0.0</speed>
  <fix>3d</fix>
</trkpt>
<trkpt lat="40.0713795" lon="-105.2297837">
  <ele>1582.97</ele>
  <time>2026-08-28T17:49:47Z</time>
  <course>225.74</course>
  <speed>0.01414213562373095</speed>
  <fix>3d</fix>
</trkpt>
<trkpt lat="40.0713792" lon="-105.2297836">
  <ele>1583.0</ele>
  <time>2026-08-28T17:49:47Z</time>
  <course>224.45</course>
  <speed>0.0</speed>
  <fix>3d</fix>
</trkpt>
<trkpt lat="40.0713795" lon="-105.2297837">
  <ele>1582.97</ele>
  <time>2026-08-28T17:49:47Z</time>
  <course>225.73</course>
  <speed>0.01414213562373095</speed>
  <fix>3d</fix>
</trkpt>
<trkpt lat="40.0713792" lon="-105.2297837">
  <ele>1583.0</ele>
  <time>2026-08-28T17:49:47Z</time>
  <course>224.42</course>
  <speed>0.0</speed>
  <fix>3d</fix>
</trkpt>
<trkpt lat="40.0713795" lon="-105.2297837">
  <ele>1582.97</ele>
  <time>2026-08-28T17:49:47Z</time>
  <course>225.73</course>
  <speed>0.01414213562373095</speed>
  <fix>3d</fix>
</trkpt>
<trkpt lat="40.0713792" lon="-105.2297837">
  <ele>1583.0</ele>
  <time>2026-08-28T17:49:47Z</time>
  <course>224.42</course>
  <speed>0.0</speed>
  <fix>3d</fix>
</trkpt>
<trkpt lat="40.0713795" lon="-105.2297837">
  <ele>1582.98</ele>
  <time>2026-08-28T17:49:47Z</time>
  <course>225.73</course>
  <speed>0.01414213562373095</speed>
  <fix>3d</fix>
</trkpt>
<trkpt lat="40.0713792" lon="-105.2297837">
  <ele>1583.0</ele>
  <time>2026-08-28T17:49:47Z</time>
  <course>224.38</course>
  <speed>0.0</speed>
  <fix>3d</fix>
</trkpt>
<trkpt lat="40.0713795" lon="-105.2297837">
  <ele>1582.98</ele>
  <time>2026-08-28T17:49:47Z</time>
  <course>225.73</course>
  <speed>0.01414213562373095</speed>
  <fix>3d</fix>
</trkpt>
<trkpt lat="40.0713792" lon="-105.2297837">
  <ele>1583.0</ele>
  <time>2026-08-28T17:49:47Z</time>
  <course>224.38</course>
  <speed>0.0</speed>
  <fix>3d</fix>
</trkpt>
<trkpt lat="40.0713795" lon="-105.2297837">
  <ele>1582.98</ele>
  <time>2026-08-28T17:49:47Z</time>
  <course>225.73</course>
  <speed>0.01414213562373095</speed>
  <fix>3d</fix>
</trkpt>
<trkpt lat="40.0713792" lon="-105.2297837">
  <ele>1583.0</ele>
  <time>2026-08-28T17:49:47Z</time>
  <course>224.34</course>
  <speed>0.0</speed>
  <fix>3d</fix>
</trkpt>
<trkpt lat="40.0713795" lon="-105.2297837">
  <ele>1582.98</ele>
  <time>2026-08-28T17:49:47Z</time>
  <course>225.72</course>
  <speed>0.01414213562373095</speed>
  <fix>3d</fix>
</trkpt>
<trkpt lat="40.0713792" lon="-105.2297837">
  <ele>1583.0</ele>
  <time>2026-08-28T17:49:47Z</time>
  <course>224.34</course>
  <speed>0.0</speed>
  <fix>3d</fix>
</trkpt>
<trkpt lat="40.0713795" lon="-105.2297838">
  <ele>1582.99</ele>
  <time>2026-08-28T17:49:47Z</time>
  <course>225.72</course>
  <speed>0.01414213562373095</speed>
  <fix>3d</fix>
</trkpt>
<trkpt lat="40.0713792" lon="-105.2297837">
  <ele>1583.0</ele>
  <time>2026-08-28T17:49:47Z</time>
  <course>224.29</course>
  <speed>0.0</speed>
  <fix>3d</fix>
</trkpt>
<trkpt lat="40.0713795" lon="-105.2297838">
  <ele>1582.99</ele>
  <time>2026-08-28T17:49:47Z</time>
  <course>225.72</course>
  <speed>0.01414213562373095</speed>
  <fix>3d</fix>
</trkpt>
<trkpt lat="40.0713792" lon="-105.2297837">
  <ele>1583.0</ele>
  <time>2026-08-28T17:49:47Z</time>
  <course>224.29</course>
  <speed>0.0</speed>
  <fix>3d</fix>
</trkpt>
<trkpt lat="40.0713794" lon="-105.2297838">
  <ele>1582.99</ele>
  <time>2026-08-28T17:49:47Z</time>
  <course>225.72</course>
  <speed>0.01414213562373095</speed>
  <fix>3d</fix>
</trkpt>
<trkpt lat="40.0713792" lon="-105.2297837">
  <ele>1583.0</ele>
  <time>2026-08-28T17:49:47Z</time>
  <course>224.24</course>
  <speed>0.0</speed>
  <fix>3d</fix>
</trkpt>
<trkpt lat="40.0713794" lon="-105.2297838">
  <ele>1582.99</ele>
  <time>2026-08-28T17:49:47Z</time>
  <course>225.72</course>
  <speed>0.01414213562373095</speed>
  <fix>3d</fix>
</trkpt>
<trkpt lat="40.0713792" lon="-105.2297837">
  <ele>1583.0</ele>
  <time>2026-08-28T17:49:47Z</time>
  <course>224.24</course>
  <speed>0.0</speed>
  <fix>3d</fix>
</trkpt>
<trkpt lat="40.0713794" lon="-105.2297838">
  <ele>1582.99</ele>
  <time>2026-08-28T17:49:47Z</time>
  <course>225.72</course>
  <speed>0.01414213562373095</speed>
  <fix>3d</fix>
</trkpt>
<trkpt lat="40.0713792" lon="-105.2297837">
  <ele>1583.0</ele>
  <time>2026-08-28T17:49:47Z</time>
  <course>224.18</course>
  <speed>0.0</speed>
  <fix>3d</fix>
</trkpt>
<trkpt lat="40.0713794" lon="-105.2297838">
  <ele>1583.0</ele>
  <time>2026-08-28T17:49:47Z</time>
  <course>225.72</course>
  <speed>0.01414213562373095</speed>
  <fix>3d</fix>
</trkpt>
<trkpt lat="40.0713792" lon="-105.2297837">
  <ele>1583.0</ele>
  <time>2026-08-28T17:49:47Z</time>
  <course>224.18</course>
  <speed>0.0</speed>
  <fix>3d</fix>
</trkpt>
<trkpt lat="39.655741" lon="-104.1383097">
  <ele>1566.58</ele>
  <time>2026-08-28T17:49:48Z</time>
  <course>0.0</course>
  <speed>0.0</speed>
  <fix>3d</fix>
</trkpt>
<trkpt lat="40.0713749" lon="-105.229789">
  <ele>1583.0</ele>
  <time>2026-08-28T17:49:48Z</time>
  <course>0.0</course>
  <speed>0.0</speed>
  <fix>3d</fix>
</trkpt>
<trkpt lat="40.0713749" lon="-105.229789">
  <ele>1583.0</ele>
  <time>2026-08-28T17:49:48Z</time>
  <course>238.36</course>
  <speed>0.0</speed>
  <fix>3d</fix>
</trkpt>
<trkpt lat="40.0713749" lon="-105.229789">
  <ele>1583.0</ele>
  <time>2026-08-28T17:49:48Z</time>
  <course>0.0</course>
  <speed>0.0</speed>
  <fix>3d</fix>
</trkpt>
<trkpt lat="40.0713749" lon="-105.229789">
  <ele>1583.0</ele>
  <time>2026-08-28T17:49:48Z</time>
  <course>238.44</course>
  <speed>0.0</speed>
  <fix>3d</fix>
</trkpt>
<trkpt lat="40.0713749" lon="-105.229789">
  <ele>1583.0</ele>
  <time>2026-08-28T17:49:48Z</time>
  <course>0.0</course>
  <speed>0.0</speed>
  <fix>3d</fix>
</trkpt>
<trkpt lat="40.0713749" lon="-105.229789">
  <ele>1583.0</ele>
  <time>2026-08-28T17:49:48Z</time>
  <course>238.64</course>
  <speed>0.0</speed>
  <fix>3d</fix>
</trkpt>
<trkpt lat="40.0713749" lon="-105.229789">
  <ele>1583.0</ele>
  <time>2026-08-28T17:49:48Z</time>
  <course>0.0</course>
  <speed>0.0</speed>
  <fix>3d</fix>
</trkpt>
<trkpt lat="40.0713749" lon="-105.229789">
  <ele>1583.0</ele>
  <time>2026-08-28T17:49:48Z</time>
  <course>238.93</course>
  <speed>0.0</speed>
  <fix>3d</fix>
</trkpt>
<trkpt lat="40.0713749" lon="-105.229789">
  <ele>1583.0</ele>
  <time>2026-08-28T17:49:48Z</time>
  <course>0.0</course>
  <speed>0.0</speed>
  <fix>3d</fix>
</trkpt>
<trkpt lat="40.0713749" lon="-105.229789">
  <ele>1583.0</ele>
  <time>2026-08-28T17:49:48Z</time>
  <course>239.26</course>
  <speed>0.0</speed>
  <fix>3d</fix>
</trkpt>
<trkpt lat="40.0713749" lon="-105.229789">
  <ele>1583.0</ele>
  <time>2026-08-28T17:49:48Z</time>
  <course>0.0</course>
  <speed>0.0</speed>
  <fix>3d</fix>
</trkpt>
<trkpt lat="40.0713749" lon="-105.229789">
  <ele>1583.0</ele>
  <time>2026-08-28T17:49:48Z</time>
  <course>239.61</course>
  <speed>0.0</speed>
  <fix>3d</fix>
</trkpt>
<trkpt lat="40.0713749" lon="-105.229789">
  <ele>1583.0</ele>
  <time>2026-08-28T17:49:48Z</time>
  <course>0.0</course>
  <speed>0.0</speed>
  <fix>3d</fix>
</trkpt>
<trkpt lat="40.0713749" lon="-105.229789">
  <ele>1583.0</ele>
  <time>2026-08-28T17:49:48Z</time>
  <course>239.96</course>
  <speed>0.0</speed>
  <fix>3d</fix>
</trkpt>
<trkpt lat="40.0713749" lon="-105.229789">
  <ele>1583.0</ele>
  <time>2026-08-28T17:49:48Z</time>
  <course>0.0</course>
  <speed>0.0</speed>
  <fix>3d</fix>
</trkpt>
<trkpt lat="40.0713749" lon="-105.229789">
  <ele>1583.0</ele>
  <time>2026-08-28T17:49:48Z</time>
  <course>240.29</course>
  <speed>0.0</speed>
  <fix>3d</fix>
</trkpt>
<trkpt lat="40.0713749" lon="-105.229789">
  <ele>1583.0</ele>
  <time>2026-08-28T17:49:48Z</time>
  <course>0.0</course>
  <speed>0.0</speed>
  <fix>3d</fix>
</trkpt>
<trkpt lat="40.0713749" lon="-105.229789">
  <ele>1583.0</ele>
  <time>2026-08-28T17:49:48Z</time>
  <course>240.61</course>
  <speed>0.0</speed>
  <fix>3d</fix>
</trkpt>
<trkpt lat="40.0713749" lon="-105.229789">
  <ele>1583.0</ele>
  <time>2026-08-28T17:49:48Z</time>
  <course>0.0</course>
  <speed>0.0</speed>
  <fix>3d</fix>
</trkpt>
<trkpt lat="40.0713749" lon="-105.229789">
  <ele>1583.0</ele>
  <time>2026-08-28T17:49:48Z</time>
  <course>240.92</course>
  <speed>0.0</speed>
  <fix>3d</fix>
</trkpt>
<trkpt lat="40.0713749" lon="-105.229789">
  <ele>1583.0</ele>
  <time>2026-08-28T17:49:48Z</time>
  <course>0.0</course>
  <speed>0.0</speed>
  <fix>3d</fix>
</trkpt>
<trkpt lat="40.0713749" lon="-105.229789">
  <ele>1583.0</ele>
  <time>2026-08-28T17:49:48Z</time>
  <course>241.21</course>
  <speed>0.0</speed>
  <fix>3d</fix>
</trkpt>
<trkpt lat="40.0713749" lon="-105.229789">
  <ele>1583.0</ele>
  <time>2026-08-28T17:49:48Z</time>
  <course>0.0</course>
  <speed>0.0</speed>
  <fix>3d</fix>
</trkpt>
<trkpt lat="40.0713749" lon="-105.229789">
  <ele>1583.0</ele>
  <time>2026-08-28T17:49:48Z</time>
  <course>241.49</course>
  <speed>0.0</speed>
  <fix>3d</fix>
</trkpt>
<trkpt lat="40.0713749" lon="-105.229789">
  <ele>1583.0</ele>
  <time>2026-08-28T17:49:48Z</time>
  <course>0.0</course>
  <speed>0.0</speed>
  <fix>3d</fix>
</trkpt>
<trkpt lat="40.0713749" lon="-105.229789">
  <ele>1583.0</ele>
  <time>2026-08-28T17:49:48Z</time>
  <course>241.77</course>
  <speed>0.0</speed>
  <fix>3d</fix>
</trkpt>
<trkpt lat="40.0713749" lon="-105.229789">
  <ele>1583.0</ele>
  <time>2026-08-28T17:49:48Z</time>
  <course>0.0</course>
  <speed>0.0</speed>
  <fix>3d</fix>
</trkpt>
<trkpt lat="40.0713749" lon="-105.229789">
  <ele>1583.0</ele>
  <time>2026-08-28T17:49:48Z</time>
  <course>242.03</course>
  <speed>0.0</speed>
  <fix>3d</fix>
</trkpt>
<trkpt lat="40.0713749" lon="-105.229789">
  <ele>1583.0</ele>
  <time>2026-08-28T17:49:48Z</time>
  <course>0.0</course>
  <speed>0.0</speed>
  <fix>3d</fix>
</trkpt>
<trkpt lat="40.0713749" lon="-105.229789">
  <ele>1583.0</ele>
  <time>2026-08-28T17:49:48Z</time>
  <course>242.29</course>
  <speed>0.0</speed>
  <fix>3d</fix>
</trkpt>
<trkpt lat="40.0713749" lon="-105.229789">
  <ele>1583.0</ele>
  <time>2026-08-28T17:49:48Z</time>
  <course>0.0</course>
  <speed>0.0</speed>
  <fix>3d</fix>
</trkpt>
<trkpt lat="40.0713749" lon="-105.229789">
  <ele>1583.0</ele>
  <time>2026-08-28T17:49:48Z</time>
  <course>242.54</course>
  <speed>0.0</speed>
  <fix>3d</fix>
</trkpt>
<trkpt lat="40.0713749" lon="-105.229789">
  <ele>1583.0</ele>
  <time>2026-08-28T17:49:48Z</time>
  <course>0.0</course>
  <speed>0.0</speed>
  <fix>3d</fix>
</trkpt>
<trkpt lat="40.0713749" lon="-105.229789">
  <ele>1583.0</ele>
  <time>2026-08-28T17:49:48Z</time>
  <course>242.79</course>
  <speed>0.0</speed>
  <fix>3d</fix>
</trkpt>
<trkpt lat="40.0713749" lon="-105.229789">
  <ele>1583.0</ele>
  <time>2026-08-28T17:49:48Z</time>
  <course>0.0</course>
  <speed>0.0</speed>
  <fix>3d</fix>
</trkpt>
<trkpt lat="40.0713749" lon="-105.229789">
  <ele>1583.0</ele>
  <time>2026-08-28T17:49:48Z</time>
  <course>243.02</course>
  <speed>0.0</speed>
  <fix>3d</fix>
</trkpt>
<trkpt lat="40.0713749" lon="-105.229789">
  <ele>1583.0</ele>
  <time>2026-08-28T17:49:48Z</time>
  <course>0.0</course>
  <speed>0.0</speed>
  <fix>3d</fix>
</trkpt>
<trkpt lat="40.0713749" lon="-105.229789">
  <ele>1583.0</ele>
  <time>2026-08-28T17:49:48Z</time>
  <course>243.25</course>
  <speed>0.0</speed>
  <fix>3d</fix>
</trkpt>
<trkpt lat="40.0713749" lon="-105.229789">
  <ele>1583.0</ele>
  <time>2026-08-28T17:49:48Z</time>
  <course>0.0</course>
  <speed>0.0</speed>
  <fix>3d</fix>
</trkpt>
<trkpt lat="40.0713749" lon="-105.229789">
  <ele>1583.0</ele>
  <time>2026-08-28T17:49:48Z</time>
  <course>243.47</course>
  <speed>0.0</speed>
  <fix>3d</fix>
</trkpt>
<trkpt lat="40.0713749" lon="-105.229789">
  <ele>1583.0</ele>
  <time>2026-08-28T17:49:48Z</time>
  <course>0.0</course>
  <speed>0.0</speed>
  <fix>3d</fix>
</trkpt>
<trkpt lat="40.0713749" lon="-105.229789">
  <ele>1583.0</ele>
  <time>2026-08-28T17:49:48Z</time>
  <course>243.68</course>
  <speed>0.0</speed>
  <fix>3d</fix>
</trkpt>
<trkpt lat="40.0713749" lon="-105.229789">
  <ele>1583.0</ele>
  <time>2026-08-28T17:49:48Z</time>
  <course>0.0</course>
  <speed>0.0</speed>
  <fix>3d</fix>
</trkpt>
<trkpt lat="40.0713749" lon="-105.229789">
  <ele>1583.0</ele>
  <time>2026-08-28T17:49:48Z</time>
  <course>243.89</course>
  <speed>0.0</speed>
  <fix>3d</fix>
</trkpt>
<trkpt lat="40.0713749" lon="-105.229789">
  <ele>1583.0</ele>
  <time>2026-08-28T17:49:48Z</time>
  <course>0.0</course>
  <speed>0.0</speed>
  <fix>3d</fix>
</trkpt>
<trkpt lat="40.0713749" lon="-105.229789">
  <ele>1583.0</ele>
  <time>2026-08-28T17:49:48Z</time>
  <course>244.09</course>
  <speed>0.0</speed>
  <fix>3d</fix>
</trkpt>
<trkpt lat="40.0713749" lon="-105.229789">
  <ele>1583.0</ele>
  <time>2026-08-28T17:49:48Z</time>
  <course>0.0</course>
  <speed>0.0</speed>
  <fix>3d</fix>
</trkpt>
<trkpt lat="40.0713749" lon="-105.229789">
  <ele>1583.0</ele>
  <time>2026-08-28T17:49:48Z</time>
  <course>244.28</course>
  <speed>0.0</speed>
  <fix>3d</fix>
</trkpt>
<trkpt lat="40.0713749" lon="-105.229789">
  <ele>1583.0</ele>
  <time>2026-08-28T17:49:48Z</time>
  <course>0.0</course>
  <speed>0.0</speed>
  <fix>3d</fix>
</trkpt>
<trkpt lat="40.0713749" lon="-105.229789">
  <ele>1583.0</ele>
  <time>2026-08-28T17:49:48Z</time>
  <course>244.46</course>
  <speed>0.0</speed>
  <fix>3d</fix>
</trkpt>
<trkpt lat="40.0713749" lon="-105.229789">
  <ele>1583.0</ele>
  <time>2026-08-28T17:49:48Z</time>
  <course>0.0</course>
  <speed>0.0</speed>
  <fix>3d</fix>
</trkpt>
<trkpt lat="40.0713749" lon="-105.229789">
  <ele>1583.0</ele>
  <time>2026-08-28T17:49:48Z</time>
  <course>244.64</course>
  <speed>0.0</speed>
  <fix>3d</fix>
</trkpt>
<trkpt lat="40.0713749" lon="-105.229789">
  <ele>1583.0</ele>
  <time>2026-08-28T17:49:48Z</time>
  <course>0.0</course>
  <speed>0.0</speed>
  <fix>3d</fix>
</trkpt>
<trkpt lat="40.0713749" lon="-105.229789">
  <ele>1583.0</ele>
  <time>2026-08-28T17:49:48Z</time>
  <course>244.81</course>
  <speed>0.0</speed>
  <fix>3d</fix>
</trkpt>
<trkpt lat="40.0713749" lon="-105.229789">
  <ele>1583.0</ele>
  <time>2026-08-28T17:49:48Z</time>
  <course>0.0</course>
  <speed>0.0</speed>
  <fix>3d</fix>
</trkpt>
<trkpt lat="40.0713749" lon="-105.229789">
  <ele>1583.0</ele>
  <time>2026-08-28T17:49:48Z</time>
  <course>244.97</course>
  <speed>0.0</speed>
  <fix>3d</fix>
</trkpt>
<trkpt lat="40.0713749" lon="-105.229789">
  <ele>1583.0</ele>
  <time>2026-08-28T17:49:48Z</time>
  <course>0.0</course>
  <speed>0.0</speed>
  <fix>3d</fix>
</trkpt>
<trkpt lat="40.0713749" lon="-105.229789">
  <ele>1583.0</ele>
  <time>2026-08-28T17:49:48Z</time>
  <course>245.13</course>
  <speed>0.0</speed>
  <fix>3d</fix>
</trkpt>
<trkpt lat="40.0713749" lon="-105.229789">
  <ele>1583.0</ele>
  <time>2026-08-28T17:49:48Z</time>
  <course>0.0</course>
  <speed>0.0</speed>
  <fix>3d</fix>
</trkpt>
<trkpt lat="40.0713749" lon="-105.229789">
  <ele>1583.0</ele>
  <time>2026-08-28T17:49:48Z</time>
  <course>245.29</course>
  <speed>0.0</speed>
  <fix>3d</fix>
</trkpt>
<trkpt lat="40.0713749" lon="-105.229789">
  <ele>1583.0</ele>
  <time>2026-08-28T17:49:48Z</time>
  <course>0.0</course>
  <speed>0.0</speed>
  <fix>3d</fix>
</trkpt>
<trkpt lat="40.0713749" lon="-105.229789">
  <ele>1583.0</ele>
  <time>2026-08-28T17:49:48Z</time>
  <course>245.43</course>
  <speed>0.0</speed>
  <fix>3d</fix>
</trkpt>
<trkpt lat="40.0713749" lon="-105.229789">
  <ele>1583.0</ele>
  <time>2026-08-28T17:49:48Z</time>
  <course>0.0</course>
  <speed>0.0</speed>
  <fix>3d</fix>
</trkpt>
<trkpt lat="40.0713749" lon="-105.229789">
  <ele>1583.0</ele>
  <time>2026-08-28T17:49:48Z</time>
  <course>245.57</course>
  <speed>0.0</speed>
  <fix>3d</fix>
</trkpt>
<trkpt lat="40.0713749" lon="-105.229789">
  <ele>1583.0</ele>
  <time>2026-08-28T17:49:48Z</time>
  <course>0.0</course>
  <speed>0.0</speed>
  <fix>3d</fix>
</trkpt>
<trkpt lat="40.0713749" lon="-105.229789">
  <ele>1583.0</ele>
  <time>2026-08-28T17:49:48Z</time>
  <course>245.71</course>
  <speed>0.0</speed>
  <fix>3d</fix>
</trkpt>
<trkpt lat="40.0713749" lon="-105.229789">
  <ele>1583.0</ele>
  <time>2026-08-28T17:49:48Z</time>
  <course>0.0</course>
  <speed>0.0</speed>
  <fix>3d</fix>
</trkpt>
<trkpt lat="40.0713749" lon="-105.229789">
  <ele>1583.0</ele>
  <time>2026-08-28T17:49:48Z</time>
  <course>245.84</course>
  <speed>0.0</speed>
  <fix>3d</fix>
</trkpt>
<trkpt lat="40.0713749" lon="-105.229789">
  <ele>1583.0</ele>
  <time>2026-08-28T17:49:48Z</time>
  <course>0.0</course>
  <speed>0.0</speed>
  <fix>3d</fix>
</trkpt>
<trkpt lat="40.0713749" lon="-105.229789">
  <ele>1583.0</ele>
  <time>2026-08-28T17:49:48Z</time>
  <course>245.96</course>
  <speed>0.0</speed>
  <fix>3d</fix>
</trkpt>
<trkpt lat="40.0713749" lon="-105.229789">
  <ele>1583.0</ele>
  <time>2026-08-28T17:49:48Z</time>
  <course>0.0</course>
  <speed>0.0</speed>
  <fix>3d</fix>
</trkpt>
<trkpt lat="40.0713749" lon="-105.229789">
  <ele>1583.0</ele>
  <time>2026-08-28T17:49:48Z</time>
  <course>246.08</course>
  <speed>0.0</speed>
  <fix>3d</fix>
</trkpt>
<trkpt lat="40.0713749" lon="-105.229789">
  <ele>1583.0</ele>
  <time>2026-08-28T17:49:48Z</time>
  <course>0.0</course>
  <speed>0.0</speed>
  <fix>3d</fix>
</trkpt>
<trkpt lat="40.0713749" lon="-105.229789">
  <ele>1583.0</ele>
  <time>2026-08-28T17:49:48Z</time>
  <course>246.19</course>
  <speed>0.0</speed>
  <fix>3d</fix>
</trkpt>
<trkpt lat="40.0713749" lon="-105.229789">
  <ele>1583.0</ele>
  <time>2026-08-28T17:49:48Z</time>
  <course>0.0</course>
  <speed>0.0</speed>
  <fix>3d</fix>
</trkpt>
<trkpt lat="40.0713749" lon="-105.229789">
  <ele>1583.0</ele>
  <time>2026-08-28T17:49:48Z</time>
  <course>246.3</course>
  <speed>0.0</speed>
  <fix>3d</fix>
</trkpt>
<trkpt lat="40.0713749" lon="-105.229789">
  <ele>1583.0</ele>
  <time>2026-08-28T17:49:48Z</time>
  <course>0.0</course>
  <speed>0.0</speed>
  <fix>3d</fix>
</trkpt>
<trkpt lat="40.0713749" lon="-105.229789">
  <ele>1583.0</ele>
  <time>2026-08-28T17:49:48Z</time>
  <course>246.41</course>
  <speed>0.0</speed>
  <fix>3d</fix>
</trkpt>
<trkpt lat="40.0713749" lon="-105.229789">
  <ele>1583.0</ele>
  <time>2026-08-28T17:49:48Z</time>
  <course>0.0</course>
  <speed>0.0</speed>
  <fix>3d</fix>
</trkpt>
<trkpt lat="40.0713749" lon="-105.229789">
  <ele>1583.0</ele>
  <time>2026-08-28T17:49:48Z</time>
  <course>246.51</course>
  <speed>0.0</speed>
  <fix>3d</fix>
</trkpt>
<trkpt lat="40.0713749" lon="-105.229789">
  <ele>1583.0</ele>
  <time>2026-08-28T17:49:48Z</time>
  <course>0.0</course>
  <speed>0.0</speed>
  <fix>3d</fix>
</trkpt>
<trkpt lat="40.0713749" lon="-105.229789">
  <ele>1583.0</ele>
  <time>2026-08-28T17:49:48Z</time>
  <course>246.6</course>
  <speed>0.0</speed>
  <fix>3d</fix>
</trkpt>
<trkpt lat="40.0713749" lon="-105.229789">
  <ele>1583.0</ele>
  <time>2026-08-28T17:49:48Z</time>
  <course>0.0</course>
  <speed>0.0</speed>
  <fix>3d</fix>
</trkpt>
<trkpt lat="40.0713749" lon="-105.229789">
  <ele>1583.0</ele>
  <time>2026-08-28T17:49:48Z</time>
  <course>246.7</course>
  <speed>0.0</speed>
  <fix>3d</fix>
</trkpt>
<trkpt lat="40.0713749" lon="-105.229789">
  <ele>1583.0</ele>
  <time>2026-08-28T17:49:48Z</time>
  <course>0.0</course>
  <speed>0.0</speed>
  <fix>3d</fix>
</trkpt>
<trkpt lat="40.0713749" lon="-105.229789">
  <ele>1583.0</ele>
  <time>2026-08-28T17:49:48Z</time>
  <course>246.78</course>
  <speed>0.0</speed>
  <fix>3d</fix>
</trkpt>
<trkpt lat="40.0713749" lon="-105.229789">
  <ele>1583.0</ele>
  <time>2026-08-28T17:49:48Z</time>
  <course>0.0</course>
  <speed>0.0</speed>
  <fix>3d</fix>
</trkpt>
<trkpt lat="40.0713749" lon="-105.229789">
  <ele>1583.0</ele>
  <time>2026-08-28T17:49:48Z</time>
  <course>246.87</course>
  <speed>0.0</speed>
  <fix>3d</fix>
</trkpt>
<trkpt lat="40.0713749" lon="-105.229789">
  <ele>1583.0</ele>
  <time>2026-08-28T17:49:48Z</time>
  <course>0.0</course>
  <speed>0.0</speed>
  <fix>3d</fix>
</trkpt>
<trkpt lat="40.0713749" lon="-105.229789">
  <ele>1583.0</ele>
  <time>2026-08-28T17:49:48Z</time>
  <course>246.95</course>
  <speed>0.0</speed>
  <fix>3d</fix>
</trkpt>
<trkpt lat="40.0713749" lon="-105.229789">
  <ele>1583.0</ele>
  <time>2026-08-28T17:49:48Z</time>
  <course>0.0</course>
  <speed>0.0</speed>
  <fix>3d</fix>
</trkpt>
<trkpt lat="40.0713749" lon="-105.229789">
  <ele>1583.0</ele>
  <time>2026-08-28T17:49:48Z</time>
  <course>247.02</course>
  <speed>0.0</speed>
  <fix>3d</fix>
</trkpt>
<trkpt lat="40.0713749" lon="-105.229789">
  <ele>1583.0</ele>
  <time>2026-08-28T17:49:48Z</time>
  <course>0.0</course>
  <speed>0.0</speed>
  <fix>3d</fix>
</trkpt>
<trkpt lat="40.0713749" lon="-105.229789">
  <ele>1583.0</ele>
  <time>2026-08-28T17:49:48Z</time>
  <course>247.1</course>
  <speed>0.0</speed>
  <fix>3d</fix>
</trkpt>
<trkpt lat="40.0713749" lon="-105.229789">
  <ele>1583.0</ele>
  <time>2026-08-28T17:49:48Z</time>
  <course>0.0</course>
  <speed>0.0</speed>
  <fix>3d</fix>
</trkpt>
<trkpt lat="40.0713749" lon="-105.229789">
  <ele>1583.0</ele>
  <time>2026-08-28T17:49:48Z</time>
  <course>247.17</course>
  <speed>0.0</speed>
  <fix>3d</fix>
</trkpt>
<trkpt lat="40.0713749" lon="-105.229789">
  <ele>1583.0</ele>
  <time>2026-08-28T17:49:48Z</time>
  <course>0.0</course>
  <speed>0.0</speed>
  <fix>3d</fix>
</trkpt>
<trkpt lat="40.0713749" lon="-105.229789">
  <ele>1583.0</ele>
  <time>2026-08-28T17:49:48Z</time>
  <course>247.24</course>
  <speed>0.0</speed>
  <fix>3d</fix>
</trkpt>
<trkpt lat="40.0713749" lon="-105.229789">
  <ele>1583.0</ele>
  <time>2026-08-28T17:49:48Z</time>
  <course>0.0</course>
  <speed>0.0</speed>
  <fix>3d</fix>
</trkpt>
<trkpt lat="40.0713749" lon="-105.229789">
  <ele>1583.0</ele>
  <time>2026-08-28T17:49:48Z</time>
  <course>247.3</course>
  <speed>0.0</speed>
  <fix>3d</fix>
</trkpt>
<trkpt lat="40.0713749" lon="-105.229789">
  <ele>1583.0</ele>
  <time>2026-08-28T17:49:48Z</time>
  <course>0.0</course>
  <speed>0.0</speed>
  <fix>3d</fix>
</trkpt>
<trkpt lat="40.0713749" lon="-105.229789">
  <ele>1583.0</ele>
  <time>2026-08-28T17:49:48Z</time>
  <course>247.36</course>
  <speed>0.0</speed>
  <fix>3d</fix>
</trkpt>
<trkpt lat="40.0713749" lon="-105.229789">
  <ele>1583.0</ele>
  <time>2026-08-28T17:49:48Z</time>
  <course>0.0</course>
  <speed>0.0</speed>
  <fix>3d</fix>
</trkpt>
<trkpt lat="40.0713749" lon="-105.229789">
  <ele>1583.0</ele>
  <time>2026-08-28T17:49:48Z</time>
  <course>247.42</course>
  <speed>0.0</speed>
  <fix>3d</fix>
</trkpt>
<trkpt lat="40.0713749" lon="-105.229789">
  <ele>1583.0</ele>
  <time>2026-08-28T17:49:48Z</time>
  <course>0.0</course>
  <speed>0.0</speed>
  <fix>3d</fix>
</trkpt>
<trkpt lat="40.0713749" lon="-105.229789">
  <ele>1583.0</ele>
  <time>2026-08-28T17:49:48Z</time>
  <course>247.47</course>
  <speed>0.0</speed>
  <fix>3d</fix>
</trkpt>
<trkpt lat="40.0713749" lon="-105.229789">
  <ele>1583.0</ele>
  <time>2026-08-28T17:49:48Z</time>
  <course>0.0</course>
  <speed>0.0</speed>
  <fix>3d</fix>
</trkpt>
<trkpt lat="40.0713749" lon="-105.229789">
  <ele>1583.0</ele>
  <time>2026-08-28T17:49:48Z</time>
  <course>247.53</course>
  <speed>0.0</speed>
  <fix>3d</fix>
</trkpt>
<trkpt lat="40.0713749" lon="-105.229789">
  <ele>1583.0</ele>
  <time>2026-08-28T17:49:48Z</time>
  <course>0.0</course>
  <speed>0.0</speed>
  <fix>3d</fix>
</trkpt>
<trkpt lat="40.0713749" lon="-105.229789">
  <ele>1583.0</ele>
  <time>2026-08-28T17:49:48Z</time>
  <course>247.58</course>
  <speed>0.0</speed>
  <fix>3d</fix>
</trkpt>
<trkpt lat="40.0713749" lon="-105.229789">
  <ele>1583.0</ele>
  <time>2026-08-28T17:49:48Z</time>
  <course>0.0</course>
  <speed>0.0</speed>
  <fix>3d</fix>
</trkpt>
<trkpt lat="40.0713749" lon="-105.229789">
  <ele>1583.0</ele>
  <time>2026-08-28T17:49:48Z</time>
  <course>247.63</course>
  <speed>0.0</speed>
  <fix>3d</fix>
</trkpt>
<trkpt lat="40.0713749" lon="-105.229789">
  <ele>1583.0</ele>
  <time>2026-08-28T17:49:48Z</time>
  <course>0.0</course>
  <speed>0.0</speed>
  <fix>3d</fix>
</trkpt>
<trkpt lat="40.0713749" lon="-105.229789">
  <ele>1583.0</ele>
  <time>2026-08-28T17:49:48Z</time>
  <course>247.67</course>
  <speed>0.0</speed>
  <fix>3d</fix>
</trkpt>
<trkpt lat="40.0713749" lon="-105.229789">
  <ele>1583.0</ele>
  <time>2026-08-28T17:49:48Z</time>
  <course>0.0</course>
  <speed>0.0</speed>
  <fix>3d</fix>
</trkpt>
<trkpt lat="40.0713749" lon="-105.229789">
  <ele>1583.0</ele>
  <time>2026-08-28T17:49:48Z</time>
  <course>247.72</course>
  <speed>0.0</speed>
  <fix>3d</fix>
</trkpt>
<trkpt lat="40.0713749" lon="-105.229789">
  <ele>1583.0</ele>
  <time>2026-08-28T17:49:48Z</time>
  <course>0.0</course>
  <speed>0.0</speed>
  <fix>3d</fix>
</trkpt>
<trkpt lat="40.0713749" lon="-105.229789">
  <ele>1583.0</ele>
  <time>2026-08-28T17:49:48Z</time>
  <course>247.76</course>
  <speed>0.0</speed>
  <fix>3d</fix>
</trkpt>
<trkpt lat="40.0713749" lon="-105.229789">
  <ele>1583.0</ele>
  <time>2026-08-28T17:49:48Z</time>
  <course>0.0</course>
  <speed>0.0</speed>
  <fix>3d</fix>
</trkpt>
<trkpt lat="40.0713749" lon="-105.229789">
  <ele>1583.0</ele>
  <time>2026-08-28T17:49:48Z</time>
  <course>247.8</course>
  <speed>0.0</speed>
  <fix>3d</fix>
</trkpt>
<trkpt lat="40.0713749" lon="-105.229789">
  <ele>1583.0</ele>
  <time>2026-08-28T17:49:48Z</time>
  <course>0.0</course>
  <speed>0.0</speed>
  <fix>3d</fix>
</trkpt>
<trkpt lat="40.0713749" lon="-105.229789">
  <ele>1583.0</ele>
  <time>2026-08-28T17:49:48Z</time>
  <course>247.83</course>
  <speed>0.0</speed>
  <fix>3d</fix>
</trkpt>
<trkpt lat="40.0713749" lon="-105.229789">
  <ele>1583.0</ele>
  <time>2026-08-28T17:49:48Z</time>
  <course>0.0</course>
  <speed>0.0</speed>
  <fix>3d</fix>
</trkpt>
<trkpt lat="40.0713749" lon="-105.229789">
  <ele>1583.0</ele>
  <time>2026-08-28T17:49:48Z</time>
  <course>247.87</course>
  <speed>0.0</speed>
  <fix>3d</fix>
</trkpt>
<trkpt lat="40.0713749" lon="-105.229789">
  <ele>1583.0</ele>
  <time>2026-08-28T17:49:48Z</time>
  <course>0.0</course>
  <speed>0.0</speed>
  <fix>3d</fix>
</trkpt>
<trkpt lat="40.0713749" lon="-105.229789">
  <ele>1583.0</ele>
  <time>2026-08-28T17:49:48Z</time>
  <course>247.9</course>
  <speed>0.0</speed>
  <fix>3d</fix>
</trkpt>
<trkpt lat="40.0713749" lon="-105.229789">
  <ele>1583.0</ele>
  <time>2026-08-28T17:49:48Z</time>
  <course>0.0</course>
  <speed>0.0</speed>
  <fix>3d</fix>
</trkpt>
<trkpt lat="40.0713749" lon="-105.229789">
  <ele>1583.0</ele>
  <time>2026-08-28T17:49:48Z</time>
  <course>247.94</course>
  <speed>0.0</speed>
  <fix>3d</fix>
</trkpt>
<trkpt lat="40.0713749" lon="-105.229789">
  <ele>1583.0</ele>
  <time>2026-08-28T17:49:48Z</time>
  <course>0.0</course>
  <speed>0.0</speed>
  <fix>3d</fix>
</trkpt>
<trkpt lat="40.0713749" lon="-105.229789">
  <ele>1583.0</ele>
  <time>2026-08-28T17:49:48Z</time>
  <course>247.97</course>
  <speed>0.0</speed>
  <fix>3d</fix>
</trkpt>
<trkpt lat="40.0713749" lon="-105.229789">
  <ele>1583.0</ele>
  <time>2026-08-28T17:49:48Z</time>
  <course>0.0</course>
  <speed>0.0</speed>
  <fix>3d</fix>
</trkpt>
<trkpt lat="40.0713749" lon="-105.229789">
  <ele>1583.0</ele>
  <time>2026-08-28T17:49:48Z</time>
  <course>248.0</course>
  <speed>0.0</speed>
  <fix>3d</fix>
</trkpt>
<trkpt lat="40.0713749" lon="-105.229789">
  <ele>1583.0</ele>
  <time>2026-08-28T17:49:48Z</time>
  <course>0.0</course>
  <speed>0.0</speed>
  <fix>3d</fix>
</trkpt>
<trkpt lat="40.0713749" lon="-105.229789">
  <ele>1583.0</ele>
  <time>2026-08-28T17:49:48Z</time>
  <course>248.02</course>
  <speed>0.0</speed>
  <fix>3d</fix>
</trkpt>
<trkpt lat="40.0713749" lon="-105.229789">
  <ele>1583.0</ele>
  <time>2026-08-28T17:49:48Z</time>
  <course>0.0</course>
  <speed>0.0</speed>
  <fix>3d</fix>
</trkpt>
<trkpt lat="40.0713749" lon="-105.229789">
  <ele>1583.0</ele>
  <time>2026-08-28T17:49:48Z</time>
  <course>248.05</course>
  <speed>0.0</speed>
  <fix>3d</fix>
</trkpt>
<trkpt lat="40.0713749" lon="-105.229789">
  <ele>1583.0</ele>
  <time>2026-08-28T17:49:48Z</time>
  <course>0.0</course>
  <speed>0.0</speed>
  <fix>3d</fix>
</trkpt>
<trkpt lat="40.0713749" lon="-105.229789">
  <ele>1583.0</ele>
  <time>2026-08-28T17:49:48Z</time>
  <course>248.08</course>
  <speed>0.0</speed>
  <fix>3d</fix>
</trkpt>
<trkpt lat="40.0713749" lon="-105.229789">
  <ele>1583.0</ele>
  <time>2026-08-28T17:49:48Z</time>
  <course>0.0</course>
  <speed>0.0</speed>
  <fix>3d</fix>
</trkpt>
<trkpt lat="40.0713749" lon="-105.229789">
  <ele>1583.0</ele>
  <time>2026-08-28T17:49:48Z</time>
  <course>248.1</course>
  <speed>0.0</speed>
  <fix>3d</fix>
</trkpt>
<trkpt lat="40.0713749" lon="-105.229789">
  <ele>1583.0</ele>
  <time>2026-08-28T17:49:48Z</time>
  <course>0.0</course>
  <speed>0.0</speed>
  <fix>3d</fix>
</trkpt>
<trkpt lat="40.0713749" lon="-105.229789">
  <ele>1583.0</ele>
  <time>2026-08-28T17:49:48Z</time>
  <course>248.12</course>
  <speed>0.0</speed>
  <fix>3d</fix>
</trkpt>
<trkpt lat="40.0713749" lon="-105.229789">
  <ele>1583.0</ele>
  <time>2026-08-28T17:49:48Z</time>
  <course>0.0</course>
  <speed>0.0</speed>
  <fix>3d</fix>
</trkpt>
<trkpt lat="40.0713749" lon="-105.229789">
  <ele>1583.0</ele>
  <time>2026-08-28T17:49:48Z</time>
  <course>248.14</course>
  <speed>0.0</speed>
  <fix>3d</fix>
</trkpt>
<trkpt lat="40.0713749" lon="-105.229789">
  <ele>1583.0</ele>
  <time>2026-08-28T17:49:48Z</time>
  <course>0.0</course>
  <speed>0.0</speed>
  <fix>3d</fix>
</trkpt>
<trkpt lat="40.0713749" lon="-105.229789">
  <ele>1583.0</ele>
  <time>2026-08-28T17:49:48Z</time>
  <course>248.16</course>
  <speed>0.0</speed>
  <fix>3d</fix>
</trkpt>
<trkpt lat="40.0713749" lon="-105.229789">
  <ele>1583.0</ele>
  <time>2026-08-28T17:49:48Z</time>
  <course>0.0</course>
  <speed>0.0</speed>
  <fix>3d</fix>
</trkpt>
<trkpt lat="40.0713749" lon="-105.229789">
  <ele>1583.0</ele>
  <time>2026-08-28T17:49:48Z</time>
  <course>248.18</course>
  <speed>0.0</speed>
  <fix>3d</fix>
</trkpt>
<trkpt lat="40.0713749" lon="-105.229789">
  <ele>1583.0</ele>
  <time>2026-08-28T17:49:48Z</time>
  <course>0.0</course>
  <speed>0.0</speed>
  <fix>3d</fix>
</trkpt>
<trkpt lat="40.0713749" lon="-105.229789">
  <ele>1583.0</ele>
  <time>2026-08-28T17:49:48Z</time>
  <course>248.2</course>
  <speed>0.0</speed>
  <fix>3d</fix>
</trkpt>
<trkpt lat="40.0713749" lon="-105.229789">
  <ele>1583.0</ele>
  <time>2026-08-28T17:49:48Z</time>
  <course>0.0</course>
  <speed>0.0</speed>
  <fix>3d</fix>
</trkpt>
<trkpt lat="40.0713749" lon="-105.229789">
  <ele>1583.0</ele>
  <time>2026-08-28T17:49:48Z</time>
  <course>248.22</course>
  <speed>0.0</speed>
  <fix>3d</fix>
</trkpt>
<trkpt lat="40.0713749" lon="-105.229789">
  <ele>1583.0</ele>
  <time>2026-08-28T17:49:48Z</time>
  <course>0.0</course>
  <speed>0.0</speed>
  <fix>3d</fix>
</trkpt>
<trkpt lat="40.0713749" lon="-105.229789">
  <ele>1583.0</ele>
  <time>2026-08-28T17:49:48Z</time>
  <course>248.23</course>
  <speed>0.0</speed>
  <fix>3d</fix>
</trkpt>
<trkpt lat="40.0713749" lon="-105.229789">
  <ele>1583.0</ele>
  <time>2026-08-28T17:49:48Z</time>
  <course>0.0</course>
  <speed>0.0</speed>
  <fix>3d</fix>
</trkpt>
<trkpt lat="40.0713749" lon="-105.229789">
  <ele>1583.0</ele>
  <time>2026-08-28T17:49:48Z</time>
  <course>248.25</course>
  <speed>0.0</speed>
  <fix>3d</fix>
</trkpt>
<trkpt lat="40.0713749" lon="-105.229789">
  <ele>1583.0</ele>
  <time>2026-08-28T17:49:48Z</time>
  <course>0.0</course>
  <speed>0.0</speed>
  <fix>3d</fix>
</trkpt>
<trkpt lat="40.0713749" lon="-105.229789">
  <ele>1583.0</ele>
  <time>2026-08-28T17:49:48Z</time>
  <course>248.26</course>
  <speed>0.0</speed>
  <fix>3d</fix>
</trkpt>
<trkpt lat="40.0713749" lon="-105.229789">
  <ele>1583.0</ele>
  <time>2026-08-28T17:49:48Z</time>
  <course>0.0</course>
  <speed>0.0</speed>
  <fix>3d</fix>
</trkpt>
<trkpt lat="40.0713749" lon="-105.229789">
  <ele>1583.0</ele>
  <time>2026-08-28T17:49:48Z</time>
  <course>248.28</course>
  <speed>0.0</speed>
  <fix>3d</fix>
</trkpt>
<trkpt lat="40.0713749" lon="-105.229789">
  <ele>1583.0</ele>
  <time>2026-08-28T17:49:48Z</time>
  <course>0.0</course>
  <speed>0.0</speed>
  <fix>3d</fix>
</trkpt>
<trkpt lat="40.0713749" lon="-105.229789">
  <ele>1583.0</ele>
  <time>2026-08-28T17:49:48Z</time>
  <course>248.29</course>
  <speed>0.0</speed>
  <fix>3d</fix>
</trkpt>
<trkpt lat="40.0713749" lon="-105.229789">
  <ele>1583.0</ele>
  <time>2026-08-28T17:49:48Z</time>
  <course>0.0</course>
  <speed>0.0</speed>
  <fix>3d</fix>
</trkpt>
<trkpt lat="40.0713749" lon="-105.229789">
  <ele>1583.0</ele>
  <time>2026-08-28T17:49:48Z</time>
  <course>248.3</course>
  <speed>0.0</speed>
  <fix>3d</fix>
</trkpt>
<trkpt lat="40.0713749" lon="-105.229789">
  <ele>1583.0</ele>
  <time>2026-08-28T17:49:48Z</time>
  <course>0.0</course>
  <speed>0.0</speed>
  <fix>3d</fix>
</trkpt>
<trkpt lat="40.0713749" lon="-105.229789">
  <ele>1583.0</ele>
  <time>2026-08-28T17:49:48Z</time>
  <course>248.31</course>
  <speed>0.0</speed>
  <fix>3d</fix>
</trkpt>
<trkpt lat="40.0713749" lon="-105.229789">
  <ele>1583.0</ele>
  <time>2026-08-28T17:49:48Z</time>
  <course>0.0</course>
  <speed>0.0</speed>
  <fix>3d</fix>
</trkpt>
<trkpt lat="40.0713749" lon="-105.229789">
  <ele>1583.0</ele>
  <time>2026-08-28T17:49:48Z</time>
  <course>248.32</course>
  <speed>0.0</speed>
  <fix>3d</fix>
</trkpt>
<trkpt lat="40.0713749" lon="-105.229789">
  <ele>1583.0</ele>
  <time>2026-08-28T17:49:48Z</time>
  <course>0.0</course>
  <speed>0.0</speed>
  <fix>3d</fix>
</trkpt>
<trkpt lat="40.0713749" lon="-105.229789">
  <ele>1583.0</ele>
  <time>2026-08-28T17:49:48Z</time>
  <course>248.33</course>
  <speed>0.0</speed>
  <fix>3d</fix>
</trkpt>
<trkpt lat="40.0713749" lon="-105.229789">
  <ele>1583.0</ele>
  <time>2026-08-28T17:49:48Z</time>
  <course>0.0</course>
  <speed>0.0</speed>
  <fix>3d</fix>
</trkpt>
<trkpt lat="40.0713749" lon="-105.229789">
  <ele>1583.0</ele>
  <time>2026-08-28T17:49:48Z</time>
  <course>248.34</course>
  <speed>0.0</speed>
  <fix>3d</fix>
</trkpt>
<trkpt lat="40.0713749" lon="-105.229789">
  <ele>1583.0</ele>
  <time>2026-08-28T17:49:48Z</time>
  <course>0.0</course>
  <speed>0.0</speed>
  <fix>3d</fix>
</trkpt>
<trkpt lat="40.0713749" lon="-105.229789">
  <ele>1583.0</ele>
  <time>2026-08-28T17:49:48Z</time>
  <course>248.35</course>
  <speed>0.0</speed>
  <fix>3d</fix>
</trkpt>
<trkpt lat="40.0713749" lon="-105.229789">
  <ele>1583.0</ele>
  <time>2026-08-28T17:49:48Z</time>
  <course>0.0</course>
  <speed>0.0</speed>
  <fix>3d</fix>
</trkpt>
<trkpt lat="40.0713749" lon="-105.229789">
  <ele>1583.0</ele>
  <time>2026-08-28T17:49:48Z</time>
  <course>248.35</course>
  <speed>0.0</speed>
  <fix>3d</fix>
</trkpt>
<trkpt lat="40.0713749" lon="-105.229789">
  <ele>1583.0</ele>
  <time>2026-08-28T17:49:48Z</time>
  <course>0.0</course>
  <speed>0.0</speed>
  <fix>3d</fix>
</trkpt>
<trkpt lat="40.0713749" lon="-105.229789">
  <ele>1583.0</ele>
  <time>2026-08-28T17:49:48Z</time>
  <course>248.36</course>
  <speed>0.0</speed>
  <fix>3d</fix>
</trkpt>
<trkpt lat="40.0713749" lon="-105.229789">
  <ele>1583.0</ele>
  <time>2026-08-28T17:49:48Z</time>
  <course>0.0</course>
  <speed>0.0</speed>
  <fix>3d</fix>
</trkpt>
<trkpt lat="40.0713749" lon="-105.229789">
  <ele>1583.0</ele>
  <time>2026-08-28T17:49:48Z</time>
  <course>248.37</course>
  <speed>0.0</speed>
  <fix>3d</fix>
</trkpt>
<trkpt lat="40.0713749" lon="-105.229789">
  <ele>1583.0</ele>
  <time>2026-08-28T17:49:48Z</time>
  <course>0.0</course>
  <speed>0.0</speed>
  <fix>3d</fix>
</trkpt>
<trkpt lat="40.0713749" lon="-105.229789">
  <ele>1583.0</ele>
  <time>2026-08-28T17:49:48Z</time>
  <course>248.37</course>
  <speed>0.0</speed>
  <fix>3d</fix>
</trkpt>
<trkpt lat="40.0713749" lon="-105.229789">
  <ele>1583.0</ele>
  <time>2026-08-28T17:49:48Z</time>
  <course>0.0</course>
  <speed>0.0</speed>
  <fix>3d</fix>
</trkpt>
<trkpt lat="40.0713749" lon="-105.229789">
  <ele>1583.0</ele>
  <time>2026-08-28T17:49:48Z</time>
  <course>248.38</course>
  <speed>0.0</speed>
  <fix>3d</fix>
</trkpt>
<trkpt lat="40.0713749" lon="-105.229789">
  <ele>1583.0</ele>
  <time>2026-08-28T17:49:48Z</time>
  <course>0.0</course>
  <speed>0.0</speed>
  <fix>3d</fix>
</trkpt>
<trkpt lat="40.0713749" lon="-105.229789">
  <ele>1583.0</ele>
  <time>2026-08-28T17:49:48Z</time>
  <course>248.38</course>
  <speed>0.0</speed>
  <fix>3d</fix>
</trkpt>
<trkpt lat="40.0713749" lon="-105.229789">
  <ele>1583.0</ele>
  <time>2026-08-28T17:49:48Z</time>
  <course>0.0</course>
  <speed>0.0</speed>
  <fix>3d</fix>
</trkpt>
<trkpt lat="40.0713749" lon="-105.229789">
  <ele>1583.0</ele>
  <time>2026-08-28T17:49:48Z</time>
  <course>248.39</course>
  <speed>0.0</speed>
  <fix>3d</fix>
</trkpt>
<trkpt lat="40.0713749" lon="-105.229789">
  <ele>1583.0</ele>
  <time>2026-08-28T17:49:48Z</time>
  <course>0.0</course>
  <speed>0.0</speed>
  <fix>3d</fix>
</trkpt>
<trkpt lat="40.0713749" lon="-105.229789">
  <ele>1583.0</ele>
  <time>2026-08-28T17:49:48Z</time>
  <course>248.39</course>
  <speed>0.0</speed>
  <fix>3d</fix>
</trkpt>
<trkpt lat="40.0713749" lon="-105.229789">
  <ele>1583.0</ele>
  <time>2026-08-28T17:49:48Z</time>
  <course>0.0</course>
  <speed>0.0</speed>
  <fix>3d</fix>
</trkpt>
<trkpt lat="40.0713749" lon="-105.229789">
  <ele>1583.0</ele>
  <time>2026-08-28T17:49:48Z</time>
  <course>248.4</course>
  <speed>0.0</speed>
  <fix>3d</fix>
</trkpt>
<trkpt lat="40.0713749" lon="-105.229789">
  <ele>1583.0</ele>
  <time>2026-08-28T17:49:48Z</time>
  <course>0.0</course>
  <speed>0.0</speed>
  <fix>3d</fix>
</trkpt>
<trkpt lat="40.0713749" lon="-105.229789">
  <ele>1583.0</ele>
  <time>2026-08-28T17:49:48Z</time>
  <course>248.4</course>
  <speed>0.0</speed>
  <fix>3d</fix>
</trkpt>
<trkpt lat="40.0713749" lon="-105.229789">
  <ele>1583.0</ele>
  <time>2026-08-28T17:49:48Z</time>
  <course>0.0</course>
  <speed>0.0</speed>
  <fix>3d</fix>
</trkpt>
<trkpt lat="40.0713749" lon="-105.229789">
  <ele>1583.0</ele>
  <time>2026-08-28T17:49:48Z</time>
  <course>248.4</course>
  <speed>0.0</speed>
  <fix>3d</fix>
</trkpt>
<trkpt lat="40.0713749" lon="-105.229789">
  <ele>1583.0</ele>
  <time>2026-08-28T17:49:48Z</time>
  <course>0.0</course>
  <speed>0.0</speed>
  <fix>3d</fix>
</trkpt>
<trkpt lat="40.0713749" lon="-105.229789">
  <ele>1583.0</ele>
  <time>2026-08-28T17:49:48Z</time>
  <course>248.4</course>
  <speed>0.0</speed>
  <fix>3d</fix>
</trkpt>
<trkpt lat="40.0713749" lon="-105.229789">
  <ele>1583.0</ele>
  <time>2026-08-28T17:49:48Z</time>
  <course>0.0</course>
  <speed>0.0</speed>
  <fix>3d</fix>
</trkpt>
<trkpt lat="40.0713749" lon="-105.229789">
  <ele>1583.0</ele>
  <time>2026-08-28T17:49:48Z</time>
  <course>248.41</course>
  <speed>0.0</speed>
  <fix>3d</fix>
</trkpt>
<trkpt lat="40.0713749" lon="-105.229789">
  <ele>1583.0</ele>
  <time>2026-08-28T17:49:48Z</time>
  <course>0.0</course>
  <speed>0.0</speed>
  <fix>3d</fix>
</trkpt>
<trkpt lat="40.0713749" lon="-105.229789">
  <ele>1583.0</ele>
  <time>2026-08-28T17:49:48Z</time>
  <course>248.41</course>
  <speed>0.0</speed>
  <fix>3d</fix>
</trkpt>
<trkpt lat="40.0713749" lon="-105.229789">
  <ele>1583.0</ele>
  <time>2026-08-28T17:49:48Z</time>
  <course>0.0</course>
  <speed>0.0</speed>
  <fix>3d</fix>
</trkpt>
<trkpt lat="40.0713749" lon="-105.229789">
  <ele>1583.0</ele>
  <time>2026-08-28T17:49:48Z</time>
  <course>248.41</course>
  <speed>0.0</speed>
  <fix>3d</fix>
</trkpt>
<trkpt lat="40.0713749" lon="-105.229789">
  <ele>1583.0</ele>
  <time>2026-08-28T17:49:48Z</time>
  <course>0.0</course>
  <speed>0.0</speed>
  <fix>3d</fix>
</trkpt>
<trkpt lat="40.0713749" lon="-105.229789">
  <ele>1583.0</ele>
  <time>2026-08-28T17:49:48Z</time>
  <course>248.41</course>
  <speed>0.0</speed>
  <fix>3d</fix>
</trkpt>
<trkpt lat="40.0713749" lon="-105.229789">
  <ele>1583.0</ele>
  <time>2026-08-28T17:49:48Z</time>
  <course>0.0</course>
  <speed>0.0</speed>
  <fix>3d</fix>
</trkpt>
<trkpt lat="40.0713749" lon="-105.229789">
  <ele>1583.0</ele>
  <time>2026-08-28T17:49:48Z</time>
  <course>248.41</course>
  <speed>0.0</speed>
  <fix>3d</fix>
</trkpt>
<trkpt lat="40.0713749" lon="-105.229789">
  <ele>1583.0</ele>
  <time>2026-08-28T17:49:48Z</time>
  <course>0.0</course>
  <speed>0.0</speed>
  <fix>3d</fix>
</trkpt>
<trkpt lat="40.0713749" lon="-105.229789">
  <ele>1583.0</ele>
  <time>2026-08-28T17:49:48Z</time>
  <course>248.41</course>
  <speed>0.0</speed>
  <fix>3d</fix>
</trkpt>
<trkpt lat="40.0713749" lon="-105.229789">
  <ele>1583.0</ele>
  <time>2026-08-28T17:49:48Z</time>
  <course>0.0</course>
  <speed>0.0</speed>
  <fix>3d</fix>
</trkpt>
<trkpt lat="40.0713749" lon="-105.229789">
  <ele>1583.0</ele>
  <time>2026-08-28T17:49:48Z</time>
  <course>248.41</course>
  <speed>0.0</speed>
  <fix>3d</fix>
</trkpt>
<trkpt lat="40.0713749" lon="-105.229789">
  <ele>1583.0</ele>
  <time>2026-08-28T17:49:48Z</time>
  <course>0.0</course>
  <speed>0.0</speed>
  <fix>3d</fix>
</trkpt>
<trkpt lat="40.0713749" lon="-105.229789">
  <ele>1583.0</ele>
  <time>2026-08-28T17:49:48Z</time>
  <course>248.41</course>
  <speed>0.0</speed>
  <fix>3d</fix>
</trkpt>
<trkpt lat="40.0713749" lon="-105.229789">
  <ele>1583.0</ele>
  <time>2026-08-28T17:49:48Z</time>
  <course>0.0</course>
  <speed>0.0</speed>
  <fix>3d</fix>
</trkpt>
<trkpt lat="40.0713749" lon="-105.229789">
  <ele>1583.0</ele>
  <time>2026-08-28T17:49:48Z</time>
  <course>248.41</course>
  <speed>0.0</speed>
  <fix>3d</fix>
</trkpt>
<trkpt lat="40.0713749" lon="-105.229789">
  <ele>1583.0</ele>
  <time>2026-08-28T17:49:48Z</time>
  <course>0.0</course>
  <speed>0.0</speed>
  <fix>3d</fix>
</trkpt>
<trkpt lat="40.0713749" lon="-105.229789">
  <ele>1583.0</ele>
  <time>2026-08-28T17:49:48Z</time>
  <course>248.41</course>
  <speed>0.0</speed>
  <fix>3d</fix>
</trkpt>
<trkpt lat="40.0713749" lon="-105.229789">
  <ele>1583.0</ele>
  <time>2026-08-28T17:49:48Z</time>
  <course>0.0</course>
  <speed>0.0</speed>
  <fix>3d</fix>
</trkpt>
<trkpt lat="40.0713749" lon="-105.229789">
  <ele>1583.0</ele>
  <time>2026-08-28T17:49:48Z</time>
  <course>248.41</course>
  <speed>0.0</speed>
  <fix>3d</fix>
</trkpt>
<trkpt lat="40.0713749" lon="-105.229789">
  <ele>1583.0</ele>
  <time>2026-08-28T17:49:48Z</time>
  <course>0.0</course>
  <speed>0.0</speed>
  <fix>3d</fix>
</trkpt>
<trkpt lat="40.0713749" lon="-105.229789">
  <ele>1583.0</ele>
  <time>2026-08-28T17:49:48Z</time>
  <course>248.41</course>
  <speed>0.0</speed>
  <fix>3d</fix>
</trkpt>
<trkpt lat="40.0713749" lon="-105.229789">
  <ele>1583.0</ele>
  <time>2026-08-28T17:49:48Z</time>
  <course>0.0</course>
  <speed>0.0</speed>
  <fix>3d</fix>
</trkpt>
<trkpt lat="40.0713749" lon="-105.229789">
  <ele>1583.0</ele>
  <time>2026-08-28T17:49:48Z</time>
  <course>248.41</course>
  <speed>0.0</speed>
  <fix>3d</fix>
</trkpt>
<trkpt lat="40.0713749" lon="-105.229789">
  <ele>1583.0</ele>
  <time>2026-08-28T17:49:48Z</time>
  <course>0.0</course>
  <speed>0.0</speed>
  <fix>3d</fix>
</trkpt>
<trkpt lat="40.0713749" lon="-105.229789">
  <ele>1583.0</ele>
  <time>2026-08-28T17:49:48Z</time>
  <course>248.41</course>
  <speed>0.0</speed>
  <fix>3d</fix>
</trkpt>
<trkpt lat="40.0713749" lon="-105.229789">
  <ele>1583.0</ele>
  <time>2026-08-28T17:49:48Z</time>
  <course>0.0</course>
  <speed>0.0</speed>
  <fix>3d</fix>
</trkpt>
<trkpt lat="40.0713749" lon="-105.229789">
  <ele>1583.0</ele>
  <time>2026-08-28T17:49:48Z</time>
  <course>248.41</course>
  <speed>0.0</speed>
  <fix>3d</fix>
</trkpt>
<trkpt lat="40.0713749" lon="-105.229789">
  <ele>1583.0</ele>
  <time>2026-08-28T17:49:48Z</time>
  <course>0.0</course>
  <speed>0.0</speed>
  <fix>3d</fix>
</trkpt>
<trkpt lat="40.0713749" lon="-105.229789">
  <ele>1583.0</ele>
  <time>2026-08-28T17:49:48Z</time>
  <course>248.41</course>
  <speed>0.0</speed>
  <fix>3d</fix>
</trkpt>
<trkpt lat="40.0713749" lon="-105.229789">
  <ele>1583.0</ele>
  <time>2026-08-28T17:49:48Z</time>
  <course>0.0</course>
  <speed>0.0</speed>
  <fix>3d</fix>
</trkpt>
<trkpt lat="40.0713749" lon="-105.229789">
  <ele>1583.0</ele>
  <time>2026-08-28T17:49:48Z</time>
  <course>248.4</course>
  <speed>0.0</speed>
  <fix>3d</fix>
</trkpt>
<trkpt lat="40.0713749" lon="-105.229789">
  <ele>1583.0</ele>
  <time>2026-08-28T17:49:48Z</time>
  <course>0.0</course>
  <speed>0.0</speed>
  <fix>3d</fix>
</trkpt>
<trkpt lat="40.0713749" lon="-105.229789">
  <ele>1583.0</ele>
  <time>2026-08-28T17:49:48Z</time>
  <course>248.4</course>
  <speed>0.01</speed>
  <fix>3d</fix>
</trkpt>
<trkpt lat="40.0713749" lon="-105.229789">
  <ele>1583.0</ele>
  <time>2026-08-28T17:49:48Z</time>
  <course>0.0</course>
  <speed>0.0</speed>
  <fix>3d</fix>
</trkpt>
<trkpt lat="40.0713749" lon="-105.229789">
  <ele>1583.0</ele>
  <time>2026-08-28T17:49:48Z</time>
  <course>248.4</course>
  <speed>0.01</speed>
  <fix>3d</fix>
</trkpt>
<trkpt lat="40.0713749" lon="-105.229789">
  <ele>1583.0</ele>
  <time>2026-08-28T17:49:48Z</time>
  <course>0.0</course>
  <speed>0.0</speed>
  <fix>3d</fix>
</trkpt>
<trkpt lat="40.0713749" lon="-105.229789">
  <ele>1583.0</ele>
  <time>2026-08-28T17:49:48Z</time>
  <course>248.4</course>
  <speed>0.01</speed>
  <fix>3d</fix>
</trkpt>
<trkpt lat="40.0713749" lon="-105.229789">
  <ele>1583.0</ele>
  <time>2026-08-28T17:49:48Z</time>
  <course>0.0</course>
  <speed>0.0</speed>
  <fix>3d</fix>
</trkpt>
<trkpt lat="40.0713749" lon="-105.229789">
  <ele>1583.0</ele>
  <time>2026-08-28T17:49:48Z</time>
  <course>248.4</course>
  <speed>0.01</speed>
  <fix>3d</fix>
</trkpt>
<trkpt lat="40.0713749" lon="-105.229789">
  <ele>1583.0</ele>
  <time>2026-08-28T17:49:48Z</time>
  <course>0.0</course>
  <speed>0.0</speed>
  <fix>3d</fix>
</trkpt>
<trkpt lat="40.0713749" lon="-105.229789">
  <ele>1583.0</ele>
  <time>2026-08-28T17:49:48Z</time>
  <course>248.39</course>
  <speed>0.01</speed>
  <fix>3d</fix>
</trkpt>
<trkpt lat="40.0713749" lon="-105.229789">
  <ele>1583.0</ele>
  <time>2026-08-28T17:49:48Z</time>
  <course>0.0</course>
  <speed>0.0</speed>
  <fix>3d</fix>
</trkpt>
<trkpt lat="40.0713749" lon="-105.229789">
  <ele>1583.0</ele>
  <time>2026-08-28T17:49:48Z</time>
  <course>248.39</course>
  <speed>0.01</speed>
  <fix>3d</fix>
</trkpt>
<trkpt lat="40.0713749" lon="-105.229789">
  <ele>1583.0</ele>
  <time>2026-08-28T17:49:48Z</time>
  <course>0.0</course>
  <speed>0.0</speed>
  <fix>3d</fix>
</trkpt>
<trkpt lat="40.0713749" lon="-105.229789">
  <ele>1583.0</ele>
  <time>2026-08-28T17:49:48Z</time>
  <course>248.39</course>
  <speed>0.01</speed>
  <fix>3d</fix>
</trkpt>
<trkpt lat="40.0713749" lon="-105.229789">
  <ele>1583.0</ele>
  <time>2026-08-28T17:49:48Z</time>
  <course>0.0</course>
  <speed>0.0</speed>
  <fix>3d</fix>
</trkpt>
<trkpt lat="40.0713749" lon="-105.229789">
  <ele>1583.0</ele>
  <time>2026-08-28T17:49:48Z</time>
  <course>248.38</course>
  <speed>0.01</speed>
  <fix>3d</fix>
</trkpt>
<trkpt lat="40.0713749" lon="-105.229789">
  <ele>1583.0</ele>
  <time>2026-08-28T17:49:48Z</time>
  <course>0.0</course>
  <speed>0.0</speed>
  <fix>3d</fix>
</trkpt>
<trkpt lat="40.0713749" lon="-105.229789">
  <ele>1583.0</ele>
  <time>2026-08-28T17:49:48Z</time>
  <course>248.38</course>
  <speed>0.01</speed>
  <fix>3d</fix>
</trkpt>
<trkpt lat="40.0713749" lon="-105.229789">
  <ele>1583.0</ele>
  <time>2026-08-28T17:49:48Z</time>
  <course>0.0</course>
  <speed>0.0</speed>
  <fix>3d</fix>
</trkpt>
<trkpt lat="40.0713749" lon="-105.229789">
  <ele>1583.0</ele>
  <time>2026-08-28T17:49:48Z</time>
  <course>248.38</course>
  <speed>0.01</speed>
  <fix>3d</fix>
</trkpt>
<trkpt lat="40.0713749" lon="-105.229789">
  <ele>1583.0</ele>
  <time>2026-08-28T17:49:48Z</time>
  <course>0.0</course>
  <speed>0.0</speed>
  <fix>3d</fix>
</trkpt>
<trkpt lat="40.0713749" lon="-105.229789">
  <ele>1583.0</ele>
  <time>2026-08-28T17:49:48Z</time>
  <course>248.37</course>
  <speed>0.01</speed>
  <fix>3d</fix>
</trkpt>
<trkpt lat="40.0713749" lon="-105.229789">
  <ele>1583.0</ele>
  <time>2026-08-28T17:49:48Z</time>
  <course>0.0</course>
  <speed>0.0</speed>
  <fix>3d</fix>
</trkpt>
<trkpt lat="40.0713749" lon="-105.229789">
  <ele>1583.0</ele>
  <time>2026-08-28T17:49:48Z</time>
  <course>248.37</course>
  <speed>0.01</speed>
  <fix>3d</fix>
</trkpt>
<trkpt lat="40.0713749" lon="-105.229789">
  <ele>1583.0</ele>
  <time>2026-08-28T17:49:48Z</time>
  <course>0.0</course>
  <speed>0.0</speed>
  <fix>3d</fix>
</trkpt>
<trkpt lat="40.0713749" lon="-105.229789">
  <ele>1583.0</ele>
  <time>2026-08-28T17:49:48Z</time>
  <course>248.37</course>
  <speed>0.01</speed>
  <fix>3d</fix>
</trkpt>
<trkpt lat="40.0713749" lon="-105.229789">
  <ele>1583.0</ele>
  <time>2026-08-28T17:49:48Z</time>
  <course>0.0</course>
  <speed>0.0</speed>
  <fix>3d</fix>
</trkpt>
<trkpt lat="40.0713749" lon="-105.229789">
  <ele>1583.0</ele>
  <time>2026-08-28T17:49:48Z</time>
  <course>248.36</course>
  <speed>0.01</speed>
  <fix>3d</fix>
</trkpt>
<trkpt lat="40.0713749" lon="-105.229789">
  <ele>1583.0</ele>
  <time>2026-08-28T17:49:48Z</time>
  <course>0.0</course>
  <speed>0.0</speed>
  <fix>3d</fix>
</trkpt>
<trkpt lat="40.0713749" lon="-105.229789">
  <ele>1583.0</ele>
  <time>2026-08-28T17:49:48Z</time>
  <course>248.36</course>
  <speed>0.01</speed>
  <fix>3d</fix>
</trkpt>
<trkpt lat="40.0713749" lon="-105.229789">
  <ele>1583.0</ele>
  <time>2026-08-28T17:49:48Z</time>
  <course>0.0</course>
  <speed>0.0</speed>
  <fix>3d</fix>
</trkpt>
<trkpt lat="40.0713749" lon="-105.229789">
  <ele>1583.0</ele>
  <time>2026-08-28T17:49:48Z</time>
  <course>248.36</course>
  <speed>0.01</speed>
  <fix>3d</fix>
</trkpt>
<trkpt lat="40.0713749" lon="-105.229789">
  <ele>1583.0</ele>
  <time>2026-08-28T17:49:48Z</time>
  <course>0.0</course>
  <speed>0.0</speed>
  <fix>3d</fix>
</trkpt>
<trkpt lat="40.0713749" lon="-105.229789">
  <ele>1583.0</ele>
  <time>2026-08-28T17:49:48Z</time>
  <course>248.35</course>
  <speed>0.01</speed>
  <fix>3d</fix>
</trkpt>
<trkpt lat="40.0713749" lon="-105.229789">
  <ele>1583.0</ele>
  <time>2026-08-28T17:49:48Z</time>
  <course>0.0</course>
  <speed>0.0</speed>
  <fix>3d</fix>
</trkpt>
<trkpt lat="40.0713749" lon="-105.229789">
  <ele>1583.0</ele>
  <time>2026-08-28T17:49:48Z</time>
  <course>248.35</course>
  <speed>0.01</speed>
  <fix>3d</fix>
</trkpt>
<trkpt lat="40.0713749" lon="-105.229789">
  <ele>1583.0</ele>
  <time>2026-08-28T17:49:48Z</time>
  <course>0.0</course>
  <speed>0.0</speed>
  <fix>3d</fix>
</trkpt>
<trkpt lat="40.0713749" lon="-105.229789">
  <ele>1583.0</ele>
  <time>2026-08-28T17:49:48Z</time>
  <course>248.35</course>
  <speed>0.01</speed>
  <fix>3d</fix>
</trkpt>
<trkpt lat="40.0713749" lon="-105.229789">
  <ele>1583.0</ele>
  <time>2026-08-28T17:49:48Z</time>
  <course>0.0</course>
  <speed>0.0</speed>
  <fix>3d</fix>
</trkpt>
<trkpt lat="40.0713749" lon="-105.229789">
  <ele>1583.0</ele>
  <time>2026-08-28T17:49:48Z</time>
  <course>248.34</course>
  <speed>0.01</speed>
  <fix>3d</fix>
</trkpt>
<trkpt lat="40.0713749" lon="-105.229789">
  <ele>1583.0</ele>
  <time>2026-08-28T17:49:48Z</time>
  <course>0.0</course>
  <speed>0.0</speed>
  <fix>3d</fix>
</trkpt>
<trkpt lat="40.0713749" lon="-105.229789">
  <ele>1583.0</ele>
  <time>2026-08-28T17:49:48Z</time>
  <course>248.34</course>
  <speed>0.01</speed>
  <fix>3d</fix>
</trkpt>
<trkpt lat="40.0713749" lon="-105.229789">
  <ele>1583.0</ele>
  <time>2026-08-28T17:49:48Z</time>
  <course>0.0</course>
  <speed>0.0</speed>
  <fix>3d</fix>
</trkpt>
<trkpt lat="40.0713749" lon="-105.229789">
  <ele>1583.0</ele>
  <time>2026-08-28T17:49:48Z</time>
  <course>248.33</course>
  <speed>0.01</speed>
  <fix>3d</fix>
</trkpt>
<trkpt lat="40.0713749" lon="-105.229789">
  <ele>1583.0</ele>
  <time>2026-08-28T17:49:48Z</time>
  <course>0.0</course>
  <speed>0.0</speed>
  <fix>3d</fix>
</trkpt>
<trkpt lat="40.0713749" lon="-105.229789">
  <ele>1583.0</ele>
  <time>2026-08-28T17:49:48Z</time>
  <course>248.33</course>
  <speed>0.01</speed>
  <fix>3d</fix>
</trkpt>
<trkpt lat="40.0713749" lon="-105.229789">
  <ele>1583.0</ele>
  <time>2026-08-28T17:49:48Z</time>
  <course>0.0</course>
  <speed>0.0</speed>
  <fix>3d</fix>
</trkpt>
<trkpt lat="40.0713749" lon="-105.229789">
  <ele>1583.0</ele>
  <time>2026-08-28T17:49:48Z</time>
  <course>248.32</course>
  <speed>0.01</speed>
  <fix>3d</fix>
</trkpt>
<trkpt lat="40.0713749" lon="-105.229789">
  <ele>1583.0</ele>
  <time>2026-08-28T17:49:48Z</time>
  <course>0.0</course>
  <speed>0.0</speed>
  <fix>3d</fix>
</trkpt>
<trkpt lat="40.0713749" lon="-105.229789">
  <ele>1583.0</ele>
  <time>2026-08-28T17:49:48Z</time>
  <course>248.32</course>
  <speed>0.01</speed>
  <fix>3d</fix>
</trkpt>
<trkpt lat="40.0713749" lon="-105.229789">
  <ele>1583.0</ele>
  <time>2026-08-28T17:49:48Z</time>
  <course>0.0</course>
  <speed>0.0</speed>
  <fix>3d</fix>
</trkpt>
<trkpt lat="40.0713749" lon="-105.229789">
  <ele>1583.0</ele>
  <time>2026-08-28T17:49:48Z</time>
  <course>248.32</course>
  <speed>0.01</speed>
  <fix>3d</fix>
</trkpt>
<trkpt lat="40.0713749" lon="-105.229789">
  <ele>1583.0</ele>
  <time>2026-08-28T17:49:48Z</time>
  <course>0.0</course>
  <speed>0.0</speed>
  <fix>3d</fix>
</trkpt>
<trkpt lat="40.0713749" lon="-105.229789">
  <ele>1583.0</ele>
  <time>2026-08-28T17:49:48Z</time>
  <course>248.31</course>
  <speed>0.01</speed>
  <fix>3d</fix>
</trkpt>
<trkpt lat="40.0713749" lon="-105.229789">
  <ele>1583.0</ele>
  <time>2026-08-28T17:49:48Z</time>
  <course>0.0</course>
  <speed>0.0</speed>
  <fix>3d</fix>
</trkpt>
<trkpt lat="40.0713749" lon="-105.229789">
  <ele>1583.0</ele>
  <time>2026-08-28T17:49:48Z</time>
  <course>248.31</course>
  <speed>0.01</speed>
  <fix>3d</fix>
</trkpt>
<trkpt lat="40.0713749" lon="-105.229789">
  <ele>1583.0</ele>
  <time>2026-08-28T17:49:48Z</time>
  <course>0.0</course>
  <speed>0.0</speed>
  <fix>3d</fix>
</trkpt>
<trkpt lat="40.0713749" lon="-105.229789">
  <ele>1583.0</ele>
  <time>2026-08-28T17:49:48Z</time>
  <course>248.3</course>
  <speed>0.01</speed>
  <fix>3d</fix>
</trkpt>
<trkpt lat="40.0713749" lon="-105.229789">
  <ele>1583.0</ele>
  <time>2026-08-28T17:49:48Z</time>
  <course>0.0</course>
  <speed>0.0</speed>
  <fix>3d</fix>
</trkpt>
<trkpt lat="40.0713749" lon="-105.229789">
  <ele>1583.0</ele>
  <time>2026-08-28T17:49:48Z</time>
  <course>248.3</course>
  <speed>0.01</speed>
  <fix>3d</fix>
</trkpt>
<trkpt lat="40.0713749" lon="-105.229789">
  <ele>1583.0</ele>
  <time>2026-08-28T17:49:48Z</time>
  <course>0.0</course>
  <speed>0.0</speed>
  <fix>3d</fix>
</trkpt>
<trkpt lat="40.0713749" lon="-105.229789">
  <ele>1583.0</ele>
  <time>2026-08-28T17:49:48Z</time>
  <course>248.29</course>
  <speed>0.01</speed>
  <fix>3d</fix>
</trkpt>
<trkpt lat="40.0713749" lon="-105.229789">
  <ele>1583.0</ele>
  <time>2026-08-28T17:49:48Z</time>
  <course>0.0</course>
  <speed>0.0</speed>
  <fix>3d</fix>
</trkpt>
<trkpt lat="40.0713749" lon="-105.229789">
  <ele>1583.0</ele>
  <time>2026-08-28T17:49:48Z</time>
  <course>248.29</course>
  <speed>0.01</speed>
  <fix>3d</fix>
</trkpt>
<trkpt lat="40.0713749" lon="-105.229789">
  <ele>1583.0</ele>
  <time>2026-08-28T17:49:48Z</time>
  <course>0.0</course>
  <speed>0.0</speed>
  <fix>3d</fix>
</trkpt>
<trkpt lat="40.0713749" lon="-105.229789">
  <ele>1583.0</ele>
  <time>2026-08-28T17:49:48Z</time>
  <course>248.28</course>
  <speed>0.01</speed>
  <fix>3d</fix>
</trkpt>
<trkpt lat="40.0713749" lon="-105.229789">
  <ele>1583.0</ele>
  <time>2026-08-28T17:49:48Z</time>
  <course>0.0</course>
  <speed>0.0</speed>
  <fix>3d</fix>
</trkpt>
<trkpt lat="40.0713749" lon="-105.229789">
  <ele>1583.0</ele>
  <time>2026-08-28T17:49:48Z</time>
  <course>248.28</course>
  <speed>0.01</speed>
  <fix>3d</fix>
</trkpt>
<trkpt lat="40.0713749" lon="-105.229789">
  <ele>1583.0</ele>
  <time>2026-08-28T17:49:48Z</time>
  <course>0.0</course>
  <speed>0.0</speed>
  <fix>3d</fix>
</trkpt>
<trkpt lat="40.0713749" lon="-105.229789">
  <ele>1583.0</ele>
  <time>2026-08-28T17:49:48Z</time>
  <course>248.27</course>
  <speed>0.01</speed>
  <fix>3d</fix>
</trkpt>
<trkpt lat="40.0713749" lon="-105.229789">
  <ele>1583.0</ele>
  <time>2026-08-28T17:49:48Z</time>
  <course>0.0</course>
  <speed>0.0</speed>
  <fix>3d</fix>
</trkpt>
<trkpt lat="40.0713749" lon="-105.229789">
  <ele>1583.0</ele>
  <time>2026-08-28T17:49:48Z</time>
  <course>248.27</course>
  <speed>0.01</speed>
  <fix>3d</fix>
</trkpt>
<trkpt lat="40.0713749" lon="-105.229789">
  <ele>1583.0</ele>
  <time>2026-08-28T17:49:48Z</time>
  <course>0.0</course>
  <speed>0.0</speed>
  <fix>3d</fix>
</trkpt>
<trkpt lat="40.0713749" lon="-105.229789">
  <ele>1583.0</ele>
  <time>2026-08-28T17:49:48Z</time>
  <course>248.26</course>
  <speed>0.01</speed>
  <fix>3d</fix>
</trkpt>
<trkpt lat="40.0713749" lon="-105.229789">
  <ele>1583.0</ele>
  <time>2026-08-28T17:49:48Z</time>
  <course>0.0</course>
  <speed>0.0</speed>
  <fix>3d</fix>
</trkpt>
<trkpt lat="40.0713749" lon="-105.229789">
  <ele>1583.0</ele>
  <time>2026-08-28T17:49:48Z</time>
  <course>248.26</course>
  <speed>0.01</speed>
  <fix>3d</fix>
</trkpt>
<trkpt lat="40.0713749" lon="-105.229789">
  <ele>1583.0</ele>
  <time>2026-08-28T17:49:48Z</time>
  <course>0.0</course>
  <speed>0.0</speed>
  <fix>3d</fix>
</trkpt>
<trkpt lat="40.0713749" lon="-105.229789">
  <ele>1583.0</ele>
  <time>2026-08-28T17:49:48Z</time>
  <course>248.26</course>
  <speed>0.01</speed>
  <fix>3d</fix>
</trkpt>
<trkpt lat="40.0713749" lon="-105.229789">
  <ele>1583.0</ele>
  <time>2026-08-28T17:49:48Z</time>
  <course>0.0</course>
  <speed>0.0</speed>
  <fix>3d</fix>
</trkpt>
<trkpt lat="40.0713749" lon="-105.229789">
  <ele>1583.0</ele>
  <time>2026-08-28T17:49:48Z</time>
  <course>248.25</course>
  <speed>0.01</speed>
  <fix>3d</fix>
</trkpt>
<trkpt lat="40.0713749" lon="-105.229789">
  <ele>1583.0</ele>
  <time>2026-08-28T17:49:48Z</time>
  <course>0.0</course>
  <speed>0.0</speed>
  <fix>3d</fix>
</trkpt>
<trkpt lat="40.0713749" lon="-105.229789">
  <ele>1583.0</ele>
  <time>2026-08-28T17:49:48Z</time>
  <course>248.25</course>
  <speed>0.01</speed>
  <fix>3d</fix>
</trkpt>
<trkpt lat="40.0713749" lon="-105.229789">
  <ele>1583.0</ele>
  <time>2026-08-28T17:49:48Z</time>
  <course>0.0</course>
  <speed>0.0</speed>
  <fix>3d</fix>
</trkpt>
<trkpt lat="40.0713749" lon="-105.229789">
  <ele>1583.0</ele>
  <time>2026-08-28T17:49:48Z</time>
  <course>248.24</course>
  <speed>0.01</speed>
  <fix>3d</fix>
</trkpt>
<trkpt lat="40.0713749" lon="-105.229789">
  <ele>1583.0</ele>
  <time>2026-08-28T17:49:48Z</time>
  <course>0.0</course>
  <speed>0.0</speed>
  <fix>3d</fix>
</trkpt>
<trkpt lat="40.0713749" lon="-105.229789">
  <ele>1583.0</ele>
  <time>2026-08-28T17:49:48Z</time>
  <course>248.24</course>
  <speed>0.01</speed>
  <fix>3d</fix>
</trkpt>
<trkpt lat="40.0713749" lon="-105.229789">
  <ele>1583.0</ele>
  <time>2026-08-28T17:49:48Z</time>
  <course>0.0</course>
  <speed>0.0</speed>
  <fix>3d</fix>
</trkpt>
<trkpt lat="40.0713749" lon="-105.229789">
  <ele>1583.0</ele>
  <time>2026-08-28T17:49:48Z</time>
  <course>248.23</course>
  <speed>0.01</speed>
  <fix>3d</fix>
</trkpt>
<trkpt lat="40.0713749" lon="-105.229789">
  <ele>1583.0</ele>
  <time>2026-08-28T17:49:48Z</time>
  <course>0.0</course>
  <speed>0.0</speed>
  <fix>3d</fix>
</trkpt>
<trkpt lat="40.0713749" lon="-105.229789">
  <ele>1583.0</ele>
  <time>2026-08-28T17:49:48Z</time>
  <course>248.23</course>
  <speed>0.01</speed>
  <fix>3d</fix>
</trkpt>
<trkpt lat="40.0713749" lon="-105.229789">
  <ele>1583.0</ele>
  <time>2026-08-28T17:49:48Z</time>
  <course>0.0</course>
  <speed>0.0</speed>
  <fix>3d</fix>
</trkpt>
<trkpt lat="40.0713749" lon="-105.229789">
  <ele>1583.0</ele>
  <time>2026-08-28T17:49:48Z</time>
  <course>248.22</course>
  <speed>0.01</speed>
  <fix>3d</fix>
</trkpt>
<trkpt lat="40.0713749" lon="-105.229789">
  <ele>1583.0</ele>
  <time>2026-08-28T17:49:48Z</time>
  <course>0.0</course>
  <speed>0.0</speed>
  <fix>3d</fix>
</trkpt>
<trkpt lat="40.0713749" lon="-105.229789">
  <ele>1583.0</ele>
  <time>2026-08-28T17:49:48Z</time>
  <course>248.22</course>
  <speed>0.01</speed>
  <fix>3d</fix>
</trkpt>
<trkpt lat="40.0713749" lon="-105.229789">
  <ele>1583.0</ele>
  <time>2026-08-28T17:49:48Z</time>
  <course>0.0</course>
  <speed>0.0</speed>
  <fix>3d</fix>
</trkpt>
<trkpt lat="40.0713749" lon="-105.229789">
  <ele>1583.0</ele>
  <time>2026-08-28T17:49:48Z</time>
  <course>248.21</course>
  <speed>0.01</speed>
  <fix>3d</fix>
</trkpt>
<trkpt lat="40.0713749" lon="-105.229789">
  <ele>1583.0</ele>
  <time>2026-08-28T17:49:48Z</time>
  <course>0.0</course>
  <speed>0.0</speed>
  <fix>3d</fix>
</trkpt>
<trkpt lat="40.0713749" lon="-105.229789">
  <ele>1583.0</ele>
  <time>2026-08-28T17:49:48Z</time>
  <course>248.21</course>
  <speed>0.01</speed>
  <fix>3d</fix>
</trkpt>
<trkpt lat="40.0713749" lon="-105.229789">
  <ele>1583.0</ele>
  <time>2026-08-28T17:49:48Z</time>
  <course>0.0</course>
  <speed>0.0</speed>
  <fix>3d</fix>
</trkpt>
<trkpt lat="40.0713749" lon="-105.229789">
  <ele>1583.0</ele>
  <time>2026-08-28T17:49:48Z</time>
  <course>248.2</course>
  <speed>0.01</speed>
  <fix>3d</fix>
</trkpt>
<trkpt lat="40.0713749" lon="-105.229789">
  <ele>1583.0</ele>
  <time>2026-08-28T17:49:48Z</time>
  <course>0.0</course>
  <speed>0.0</speed>
  <fix>3d</fix>
</trkpt>
<trkpt lat="40.0713749" lon="-105.229789">
  <ele>1583.0</ele>
  <time>2026-08-28T17:49:48Z</time>
  <course>248.2</course>
  <speed>0.01</speed>
  <fix>3d</fix>
</trkpt>
<trkpt lat="40.0713749" lon="-105.229789">
  <ele>1583.0</ele>
  <time>2026-08-28T17:49:48Z</time>
  <course>0.0</course>
  <speed>0.0</speed>
  <fix>3d</fix>
</trkpt>
<trkpt lat="40.0713749" lon="-105.229789">
  <ele>1583.0</ele>
  <time>2026-08-28T17:49:48Z</time>
  <course>248.19</course>
  <speed>0.01</speed>
  <fix>3d</fix>
</trkpt>
<trkpt lat="40.0713749" lon="-105.229789">
  <ele>1583.0</ele>
  <time>2026-08-28T17:49:48Z</time>
  <course>0.0</course>
  <speed>0.0</speed>
  <fix>3d</fix>
</trkpt>
<trkpt lat="40.0713749" lon="-105.229789">
  <ele>1583.0</ele>
  <time>2026-08-28T17:49:48Z</time>
  <course>248.19</course>
  <speed>0.01</speed>
  <fix>3d</fix>
</trkpt>
<trkpt lat="40.0713749" lon="-105.229789">
  <ele>1583.0</ele>
  <time>2026-08-28T17:49:48Z</time>
  <course>0.0</course>
  <speed>0.0</speed>
  <fix>3d</fix>
</trkpt>
<trkpt lat="40.0713749" lon="-105.229789">
  <ele>1583.0</ele>
  <time>2026-08-28T17:49:48Z</time>
  <course>248.18</course>
  <speed>0.01</speed>
  <fix>3d</fix>
</trkpt>
<trkpt lat="40.0713749" lon="-105.229789">
  <ele>1583.0</ele>
  <time>2026-08-28T17:49:48Z</time>
  <course>0.0</course>
  <speed>0.0</speed>
  <fix>3d</fix>
</trkpt>
<trkpt lat="40.0713749" lon="-105.229789">
  <ele>1583.0</ele>
  <time>2026-08-28T17:49:48Z</time>
  <course>248.18</course>
  <speed>0.01</speed>
  <fix>3d</fix>
</trkpt>
<trkpt lat="40.0713749" lon="-105.229789">
  <ele>1583.0</ele>
  <time>2026-08-28T17:49:48Z</time>
  <course>0.0</course>
  <speed>0.0</speed>
  <fix>3d</fix>
</trkpt>
<trkpt lat="40.0713749" lon="-105.229789">
  <ele>1583.0</ele>
  <time>2026-08-28T17:49:48Z</time>
  <course>248.17</course>
  <speed>0.022360679774997897</speed>
  <fix>3d</fix>
</trkpt>
<trkpt lat="40.0713749" lon="-105.229789">
  <ele>1583.0</ele>
  <time>2026-08-28T17:49:48Z</time>
  <course>0.0</course>
  <speed>0.0</speed>
  <fix>3d</fix>
</trkpt>
<trkpt lat="40.0713749" lon="-105.229789">
  <ele>1583.0</ele>
  <time>2026-08-28T17:49:48Z</time>
  <course>248.17</course>
  <speed>0.022360679774997897</speed>
  <fix>3d</fix>
</trkpt>
<trkpt lat="40.0713749" lon="-105.229789">
  <ele>1583.0</ele>
  <time>2026-08-28T17:49:48Z</time>
  <course>0.0</course>
  <speed>0.0</speed>
  <fix>3d</fix>
</trkpt>
<trkpt lat="40.0713749" lon="-105.229789">
  <ele>1583.0</ele>
  <time>2026-08-28T17:49:48Z</time>
  <course>248.16</course>
  <speed>0.022360679774997897</speed>
  <fix>3d</fix>
</trkpt>
<trkpt lat="40.0713749" lon="-105.229789">
  <ele>1583.0</ele>
  <time>2026-08-28T17:49:48Z</time>
  <course>0.0</course>
  <speed>0.0</speed>
  <fix>3d</fix>
</trkpt>
<trkpt lat="40.0713749" lon="-105.229789">
  <ele>1583.0</ele>
  <time>2026-08-28T17:49:48Z</time>
  <course>248.16</course>
  <speed>0.022360679774997897</speed>
  <fix>3d</fix>
</trkpt>
<trkpt lat="40.0713749" lon="-105.229789">
  <ele>1583.0</ele>
  <time>2026-08-28T17:49:48Z</time>
  <course>0.0</course>
  <speed>0.0</speed>
  <fix>3d</fix>
</trkpt>
<trkpt lat="40.0713749" lon="-105.229789">
  <ele>1583.0</ele>
  <time>2026-08-28T17:49:48Z</time>
  <course>248.15</course>
  <speed>0.022360679774997897</speed>
  <fix>3d</fix>
</trkpt>
<trkpt lat="40.0713749" lon="-105.229789">
  <ele>1583.0</ele>
  <time>2026-08-28T17:49:48Z</time>
  <course>0.0</course>
  <speed>0.0</speed>
  <fix>3d</fix>
</trkpt>
<trkpt lat="40.0713749" lon="-105.229789">
  <ele>1583.0</ele>
  <time>2026-08-28T17:49:48Z</time>
  <course>248.15</course>
  <speed>0.022360679774997897</speed>
  <fix>3d</fix>
</trkpt>
<trkpt lat="40.0713749" lon="-105.229789">
  <ele>1583.0</ele>
  <time>2026-08-28T17:49:48Z</time>
  <course>0.0</course>
  <speed>0.0</speed>
  <fix>3d</fix>
</trkpt>
<trkpt lat="40.0713749" lon="-105.229789">
  <ele>1583.0</ele>
  <time>2026-08-28T17:49:48Z</time>
  <course>248.14</course>
  <speed>0.022360679774997897</speed>
  <fix>3d</fix>
</trkpt>
<trkpt lat="40.0713749" lon="-105.229789">
  <ele>1583.0</ele>
  <time>2026-08-28T17:49:48Z</time>
  <course>0.0</course>
  <speed>0.0</speed>
  <fix>3d</fix>
</trkpt>
<trkpt lat="40.0713749" lon="-105.229789">
  <ele>1583.0</ele>
  <time>2026-08-28T17:49:48Z</time>
  <course>248.14</course>
  <speed>0.022360679774997897</speed>
  <fix>3d</fix>
</trkpt>
<trkpt lat="40.0713749" lon="-105.229789">
  <ele>1583.0</ele>
  <time>2026-08-28T17:49:48Z</time>
  <course>0.0</course>
  <speed>0.0</speed>
  <fix>3d</fix>
</trkpt>
<trkpt lat="40.0713749" lon="-105.229789">
  <ele>1583.0</ele>
  <time>2026-08-28T17:49:48Z</time>
  <course>248.13</course>
  <speed>0.022360679774997897</speed>
  <fix>3d</fix>
</trkpt>
<trkpt lat="40.0713749" lon="-105.229789">
  <ele>1583.0</ele>
  <time>2026-08-28T17:49:48Z</time>
  <course>0.0</course>
  <speed>0.0</speed>
  <fix>3d</fix>
</trkpt>
<trkpt lat="40.0713749" lon="-105.229789">
  <ele>1583.0</ele>
  <time>2026-08-28T17:49:48Z</time>
  <course>248.13</course>
  <speed>0.022360679774997897</speed>
  <fix>3d</fix>
</trkpt>
<trkpt lat="40.0713749" lon="-105.229789">
  <ele>1583.0</ele>
  <time>2026-08-28T17:49:48Z</time>
  <course>0.0</course>
  <speed>0.0</speed>
  <fix>3d</fix>
</trkpt>
<trkpt lat="40.0713749" lon="-105.229789">
  <ele>1583.0</ele>
  <time>2026-08-28T17:49:48Z</time>
  <course>248.12</course>
  <speed>0.022360679774997897</speed>
  <fix>3d</fix>
</trkpt>
<trkpt lat="40.0713749" lon="-105.229789">
  <ele>1583.0</ele>
  <time>2026-08-28T17:49:48Z</time>
  <course>0.0</course>
  <speed>0.0</speed>
  <fix>3d</fix>
</trkpt>
<trkpt lat="40.0713749" lon="-105.229789">
  <ele>1583.0</ele>
  <time>2026-08-28T17:49:48Z</time>
  <course>248.12</course>
  <speed>0.022360679774997897</speed>
  <fix>3d</fix>
</trkpt>
<trkpt lat="40.0713749" lon="-105.229789">
  <ele>1583.0</ele>
  <time>2026-08-28T17:49:48Z</time>
  <course>0.0</course>
  <speed>0.0</speed>
  <fix>3d</fix>
</trkpt>
<trkpt lat="40.0713749" lon="-105.229789">
  <ele>1583.0</ele>
  <time>2026-08-28T17:49:48Z</time>
  <course>248.11</course>
  <speed>0.022360679774997897</speed>
  <fix>3d</fix>
</trkpt>
<trkpt lat="40.0713749" lon="-105.229789">
  <ele>1583.0</ele>
  <time>2026-08-28T17:49:48Z</time>
  <course>0.0</course>
  <speed>0.0</speed>
  <fix>3d</fix>
</trkpt>
<trkpt lat="40.0713749" lon="-105.229789">
  <ele>1583.0</ele>
  <time>2026-08-28T17:49:48Z</time>
  <course>248.11</course>
  <speed>0.022360679774997897</speed>
  <fix>3d</fix>
</trkpt>
<trkpt lat="40.0713749" lon="-105.229789">
  <ele>1583.0</ele>
  <time>2026-08-28T17:49:48Z</time>
  <course>0.0</course>
  <speed>0.0</speed>
  <fix>3d</fix>
</trkpt>
<trkpt lat="40.0713749" lon="-105.229789">
  <ele>1583.0</ele>
  <time>2026-08-28T17:49:48Z</time>
  <course>248.1</course>
  <speed>0.022360679774997897</speed>
  <fix>3d</fix>
</trkpt>
<trkpt lat="40.0713749" lon="-105.229789">
  <ele>1583.0</ele>
  <time>2026-08-28T17:49:48Z</time>
  <course>0.0</course>
  <speed>0.0</speed>
  <fix>3d</fix>
</trkpt>
<trkpt lat="40.0713749" lon="-105.229789">
  <ele>1583.0</ele>
  <time>2026-08-28T17:49:48Z</time>
  <course>248.1</course>
  <speed>0.022360679774997897</speed>
  <fix>3d</fix>
</trkpt>
<trkpt lat="40.0713749" lon="-105.229789">
  <ele>1583.0</ele>
  <time>2026-08-28T17:49:48Z</time>
  <course>0.0</course>
  <speed>0.0</speed>
  <fix>3d</fix>
</trkpt>
<trkpt lat="40.0713749" lon="-105.229789">
  <ele>1583.0</ele>
  <time>2026-08-28T17:49:48Z</time>
  <course>248.09</course>
  <speed>0.022360679774997897</speed>
  <fix>3d</fix>
</trkpt>
<trkpt lat="40.0713749" lon="-105.229789">
  <ele>1583.0</ele>
  <time>2026-08-28T17:49:48Z</time>
  <course>0.0</course>
  <speed>0.0</speed>
  <fix>3d</fix>
</trkpt>
<trkpt lat="40.0713749" lon="-105.229789">
  <ele>1583.0</ele>
  <time>2026-08-28T17:49:48Z</time>
  <course>248.09</course>
  <speed>0.022360679774997897</speed>
  <fix>3d</fix>
</trkpt>
<trkpt lat="40.0713749" lon="-105.229789">
  <ele>1583.0</ele>
  <time>2026-08-28T17:49:48Z</time>
  <course>0.0</course>
  <speed>0.0</speed>
  <fix>3d</fix>
</trkpt>
<trkpt lat="40.0713749" lon="-105.229789">
  <ele>1583.0</ele>
  <time>2026-08-28T17:49:48Z</time>
  <course>248.08</course>
  <speed>0.022360679774997897</speed>
  <fix>3d</fix>
</trkpt>
<trkpt lat="40.0713749" lon="-105.229789">
  <ele>1583.0</ele>
  <time>2026-08-28T17:49:48Z</time>
  <course>0.0</course>
  <speed>0.0</speed>
  <fix>3d</fix>
</trkpt>
<trkpt lat="40.0713749" lon="-105.229789">
  <ele>1583.0</ele>
  <time>2026-08-28T17:49:48Z</time>
  <course>248.08</course>
  <speed>0.022360679774997897</speed>
  <fix>3d</fix>
</trkpt>
<trkpt lat="40.0713749" lon="-105.229789">
  <ele>1583.0</ele>
  <time>2026-08-28T17:49:48Z</time>
  <course>0.0</course>
  <speed>0.0</speed>
  <fix>3d</fix>
</trkpt>
<trkpt lat="40.0713749" lon="-105.229789">
  <ele>1583.0</ele>
  <time>2026-08-28T17:49:48Z</time>
  <course>248.07</course>
  <speed>0.022360679774997897</speed>
  <fix>3d</fix>
</trkpt>
<trkpt lat="40.0713749" lon="-105.229789">
  <ele>1583.0</ele>
  <time>2026-08-28T17:49:48Z</time>
  <course>0.0</course>
  <speed>0.0</speed>
  <fix>3d</fix>
</trkpt>
<trkpt lat="40.0713749" lon="-105.229789">
  <ele>1583.0</ele>
  <time>2026-08-28T17:49:48Z</time>
  <course>248.07</course>
  <speed>0.022360679774997897</speed>
  <fix>3d</fix>
</trkpt>
<trkpt lat="40.0713749" lon="-105.229789">
  <ele>1583.0</ele>
  <time>2026-08-28T17:49:48Z</time>
  <course>0.0</course>
  <speed>0.0</speed>
  <fix>3d</fix>
</trkpt>
<trkpt lat="40.0713749" lon="-105.229789">
  <ele>1583.0</ele>
  <time>2026-08-28T17:49:48Z</time>
  <course>248.06</course>
  <speed>0.022360679774997897</speed>
  <fix>3d</fix>
</trkpt>
<trkpt lat="40.0713749" lon="-105.229789">
  <ele>1583.0</ele>
  <time>2026-08-28T17:49:48Z</time>
  <course>0.0</course>
  <speed>0.0</speed>
  <fix>3d</fix>
</trkpt>
<trkpt lat="40.0713749" lon="-105.229789">
  <ele>1583.0</ele>
  <time>2026-08-28T17:49:48Z</time>
  <course>248.06</course>
  <speed>0.022360679774997897</speed>
  <fix>3d</fix>
</trkpt>
<trkpt lat="40.0713749" lon="-105.229789">
  <ele>1583.0</ele>
  <time>2026-08-28T17:49:48Z</time>
  <course>0.0</course>
  <speed>0.0</speed>
  <fix>3d</fix>
</trkpt>
<trkpt lat="40.0713749" lon="-105.229789">
  <ele>1583.0</ele>
  <time>2026-08-28T17:49:48Z</time>
  <course>248.05</course>
  <speed>0.022360679774997897</speed>
  <fix>3d</fix>
</trkpt>
<trkpt lat="40.0713749" lon="-105.229789">
  <ele>1583.0</ele>
  <time>2026-08-28T17:49:48Z</time>
  <course>0.0</course>
  <speed>0.0</speed>
  <fix>3d</fix>
</trkpt>
<trkpt lat="40.0713749" lon="-105.229789">
  <ele>1583.0</ele>
  <time>2026-08-28T17:49:48Z</time>
  <course>248.05</course>
  <speed>0.022360679774997897</speed>
  <fix>3d</fix>
</trkpt>
<trkpt lat="40.0713749" lon="-105.229789">
  <ele>1583.0</ele>
  <time>2026-08-28T17:49:48Z</time>
  <course>0.0</course>
  <speed>0.0</speed>
  <fix>3d</fix>
</trkpt>
<trkpt lat="40.0713749" lon="-105.229789">
  <ele>1583.0</ele>
  <time>2026-08-28T17:49:48Z</time>
  <course>248.05</course>
  <speed>0.022360679774997897</speed>
  <fix>3d</fix>
</trkpt>
<trkpt lat="40.0713749" lon="-105.229789">
  <ele>1583.0</ele>
  <time>2026-08-28T17:49:48Z</time>
  <course>0.0</course>
  <speed>0.0</speed>
  <fix>3d</fix>
</trkpt>
<trkpt lat="40.0713749" lon="-105.229789">
  <ele>1583.0</ele>
  <time>2026-08-28T17:49:48Z</time>
  <course>248.04</course>
  <speed>0.022360679774997897</speed>
  <fix>3d</fix>
</trkpt>
<trkpt lat="40.0713749" lon="-105.229789">
  <ele>1583.0</ele>
  <time>2026-08-28T17:49:48Z</time>
  <course>0.0</course>
  <speed>0.0</speed>
  <fix>3d</fix>
</trkpt>
<trkpt lat="40.0713749" lon="-105.229789">
  <ele>1583.0</ele>
  <time>2026-08-28T17:49:48Z</time>
  <course>248.04</course>
  <speed>0.022360679774997897</speed>
  <fix>3d</fix>
</trkpt>
<trkpt lat="40.0713749" lon="-105.229789">
  <ele>1583.0</ele>
  <time>2026-08-28T17:49:48Z</time>
  <course>0.0</course>
  <speed>0.0</speed>
  <fix>3d</fix>
</trkpt>
<trkpt lat="40.0713749" lon="-105.229789">
  <ele>1583.0</ele>
  <time>2026-08-28T17:49:48Z</time>
  <course>248.03</course>
  <speed>0.022360679774997897</speed>
  <fix>3d</fix>
</trkpt>
<trkpt lat="40.0713749" lon="-105.229789">
  <ele>1583.0</ele>
  <time>2026-08-28T17:49:48Z</time>
  <course>0.0</course>
  <speed>0.0</speed>
  <fix>3d</fix>
</trkpt>
<trkpt lat="40.0713749" lon="-105.229789">
  <ele>1583.0</ele>
  <time>2026-08-28T17:49:48Z</time>
  <course>248.03</course>
  <speed>0.022360679774997897</speed>
  <fix>3d</fix>
</trkpt>
<trkpt lat="40.0713749" lon="-105.229789">
  <ele>1583.0</ele>
  <time>2026-08-28T17:49:48Z</time>
  <course>0.0</course>
  <speed>0.0</speed>
  <fix>3d</fix>
</trkpt>
<trkpt lat="40.0713749" lon="-105.229789">
  <ele>1583.0</ele>
  <time>2026-08-28T17:49:48Z</time>
  <course>248.02</course>
  <speed>0.022360679774997897</speed>
  <fix>3d</fix>
</trkpt>
<trkpt lat="40.0713749" lon="-105.229789">
  <ele>1583.0</ele>
  <time>2026-08-28T17:49:48Z</time>
  <course>0.0</course>
  <speed>0.0</speed>
  <fix>3d</fix>
</trkpt>
<trkpt lat="40.0713749" lon="-105.229789">
  <ele>1583.0</ele>
  <time>2026-08-28T17:49:48Z</time>
  <course>248.02</course>
  <speed>0.022360679774997897</speed>
  <fix>3d</fix>
</trkpt>
<trkpt lat="40.0713749" lon="-105.229789">
  <ele>1583.0</ele>
  <time>2026-08-28T17:49:48Z</time>
  <course>0.0</course>
  <speed>0.0</speed>
  <fix>3d</fix>
</trkpt>
<trkpt lat="40.0713749" lon="-105.229789">
  <ele>1583.0</ele>
  <time>2026-08-28T17:49:48Z</time>
  <course>248.01</course>
  <speed>0.022360679774997897</speed>
  <fix>3d</fix>
</trkpt>
<trkpt lat="40.0713749" lon="-105.229789">
  <ele>1583.0</ele>
  <time>2026-08-28T17:49:48Z</time>
  <course>0.0</course>
  <speed>0.0</speed>
  <fix>3d</fix>
</trkpt>
<trkpt lat="40.0713749" lon="-105.229789">
  <ele>1583.0</ele>
  <time>2026-08-28T17:49:48Z</time>
  <course>248.01</course>
  <speed>0.022360679774997897</speed>
  <fix>3d</fix>
</trkpt>
<trkpt lat="40.0713749" lon="-105.229789">
  <ele>1583.0</ele>
  <time>2026-08-28T17:49:48Z</time>
  <course>0.0</course>
  <speed>0.0</speed>
  <fix>3d</fix>
</trkpt>
<trkpt lat="40.0713749" lon="-105.229789">
  <ele>1583.0</ele>
  <time>2026-08-28T17:49:48Z</time>
  <course>248.0</course>
  <speed>0.022360679774997897</speed>
  <fix>3d</fix>
</trkpt>
<trkpt lat="40.0713749" lon="-105.229789">
  <ele>1583.0</ele>
  <time>2026-08-28T17:49:48Z</time>
  <course>0.0</course>
  <speed>0.0</speed>
  <fix>3d</fix>
</trkpt>
<trkpt lat="40.0713749" lon="-105.229789">
  <ele>1583.0</ele>
  <time>2026-08-28T17:49:48Z</time>
  <course>248.0</course>
  <speed>0.022360679774997897</speed>
  <fix>3d</fix>
</trkpt>
<trkpt lat="40.0713749" lon="-105.229789">
  <ele>1583.0</ele>
  <time>2026-08-28T17:49:48Z</time>
  <course>0.0</course>
  <speed>0.0</speed>
  <fix>3d</fix>
</trkpt>
<trkpt lat="40.0713749" lon="-105.229789">
  <ele>1583.0</ele>
  <time>2026-08-28T17:49:48Z</time>
  <course>247.99</course>
  <speed>0.022360679774997897</speed>
  <fix>3d</fix>
</trkpt>
<trkpt lat="40.0713749" lon="-105.229789">
  <ele>1583.0</ele>
  <time>2026-08-28T17:49:48Z</time>
  <course>0.0</course>
  <speed>0.0</speed>
  <fix>3d</fix>
</trkpt>
<trkpt lat="40.0713749" lon="-105.229789">
  <ele>1583.0</ele>
  <time>2026-08-28T17:49:48Z</time>
  <course>247.99</course>
  <speed>0.022360679774997897</speed>
  <fix>3d</fix>
</trkpt>
<trkpt lat="40.0713749" lon="-105.229789">
  <ele>1583.0</ele>
  <time>2026-08-28T17:49:48Z</time>
  <course>0.0</course>
  <speed>0.0</speed>
  <fix>3d</fix>
</trkpt>
<trkpt lat="40.0713749" lon="-105.229789">
  <ele>1583.0</ele>
  <time>2026-08-28T17:49:48Z</time>
  <course>247.99</course>
  <speed>0.022360679774997897</speed>
  <fix>3d</fix>
</trkpt>
<trkpt lat="40.0713749" lon="-105.229789">
  <ele>1583.0</ele>
  <time>2026-08-28T17:49:48Z</time>
  <course>0.0</course>
  <speed>0.0</speed>
  <fix>3d</fix>
</trkpt>
<trkpt lat="40.0713749" lon="-105.229789">
  <ele>1583.0</ele>
  <time>2026-08-28T17:49:48Z</time>
  <course>247.98</course>
  <speed>0.022360679774997897</speed>
  <fix>3d</fix>
</trkpt>
<trkpt lat="40.0713749" lon="-105.229789">
  <ele>1583.0</ele>
  <time>2026-08-28T17:49:48Z</time>
  <course>0.0</course>
  <speed>0.0</speed>
  <fix>3d</fix>
</trkpt>
<trkpt lat="40.0713749" lon="-105.229789">
  <ele>1583.0</ele>
  <time>2026-08-28T17:49:48Z</time>
  <course>247.98</course>
  <speed>0.022360679774997897</speed>
  <fix>3d</fix>
</trkpt>
<trkpt lat="40.0713749" lon="-105.229789">
  <ele>1583.0</ele>
  <time>2026-08-28T17:49:48Z</time>
  <course>0.0</course>
  <speed>0.0</speed>
  <fix>3d</fix>
</trkpt>
<trkpt lat="40.0713749" lon="-105.229789">
  <ele>1583.0</ele>
  <time>2026-08-28T17:49:48Z</time>
  <course>247.97</course>
  <speed>0.022360679774997897</speed>
  <fix>3d</fix>
</trkpt>
<trkpt lat="40.0713749" lon="-105.229789">
  <ele>1583.0</ele>
  <time>2026-08-28T17:49:48Z</time>
  <course>0.0</course>
  <speed>0.0</speed>
  <fix>3d</fix>
</trkpt>
<trkpt lat="40.0713749" lon="-105.229789">
  <ele>1583.0</ele>
  <time>2026-08-28T17:49:48Z</time>
  <course>247.97</course>
  <speed>0.022360679774997897</speed>
  <fix>3d</fix>
</trkpt>
<trkpt lat="40.0713749" lon="-105.229789">
  <ele>1583.0</ele>
  <time>2026-08-28T17:49:48Z</time>
  <course>0.0</course>
  <speed>0.0</speed>
  <fix>3d</fix>
</trkpt>
<trkpt lat="40.0713749" lon="-105.229789">
  <ele>1583.0</ele>
  <time>2026-08-28T17:49:48Z</time>
  <course>247.96</course>
  <speed>0.022360679774997897</speed>
  <fix>3d</fix>
</trkpt>
<trkpt lat="40.0713749" lon="-105.229789">
  <ele>1583.0</ele>
  <time>2026-08-28T17:49:48Z</time>
  <course>0.0</course>
  <speed>0.0</speed>
  <fix>3d</fix>
</trkpt>
<trkpt lat="40.0713749" lon="-105.229789">
  <ele>1583.0</ele>
  <time>2026-08-28T17:49:48Z</time>
  <course>247.96</course>
  <speed>0.022360679774997897</speed>
  <fix>3d</fix>
</trkpt>
<trkpt lat="40.0713749" lon="-105.229789">
  <ele>1583.0</ele>
  <time>2026-08-28T17:49:48Z</time>
  <course>0.0</course>
  <speed>0.0</speed>
  <fix>3d</fix>
</trkpt>
<trkpt lat="40.0713749" lon="-105.229789">
  <ele>1583.0</ele>
  <time>2026-08-28T17:49:48Z</time>
  <course>247.95</course>
  <speed>0.022360679774997897</speed>
  <fix>3d</fix>
</trkpt>
<trkpt lat="40.0713749" lon="-105.229789">
  <ele>1583.0</ele>
  <time>2026-08-28T17:49:48Z</time>
  <course>0.0</course>
  <speed>0.0</speed>
  <fix>3d</fix>
</trkpt>
<trkpt lat="40.0713749" lon="-105.229789">
  <ele>1583.0</ele>
  <time>2026-08-28T17:49:48Z</time>
  <course>247.95</course>
  <speed>0.022360679774997897</speed>
  <fix>3d</fix>
</trkpt>
<trkpt lat="40.0713749" lon="-105.229789">
  <ele>1583.0</ele>
  <time>2026-08-28T17:49:48Z</time>
  <course>0.0</course>
  <speed>0.0</speed>
  <fix>3d</fix>
</trkpt>
<trkpt lat="40.0713749" lon="-105.229789">
  <ele>1583.0</ele>
  <time>2026-08-28T17:49:48Z</time>
  <course>247.95</course>
  <speed>0.022360679774997897</speed>
  <fix>3d</fix>
</trkpt>
<trkpt lat="40.0713749" lon="-105.229789">
  <ele>1583.0</ele>
  <time>2026-08-28T17:49:48Z</time>
  <course>0.0</course>
  <speed>0.0</speed>
  <fix>3d</fix>
</trkpt>
<trkpt lat="40.0713749" lon="-105.229789">
  <ele>1583.0</ele>
  <time>2026-08-28T17:49:48Z</time>
  <course>247.94</course>
  <speed>0.022360679774997897</speed>
  <fix>3d</fix>
</trkpt>
<trkpt lat="40.0713749" lon="-105.229789">
  <ele>1583.0</ele>
  <time>2026-08-28T17:49:48Z</time>
  <course>0.0</course>
  <speed>0.0</speed>
  <fix>3d</fix>
</trkpt>
<trkpt lat="40.0713749" lon="-105.229789">
  <ele>1583.0</ele>
  <time>2026-08-28T17:49:48Z</time>
  <course>247.94</course>
  <speed>0.022360679774997897</speed>
  <fix>3d</fix>
</trkpt>
<trkpt lat="40.0713749" lon="-105.229789">
  <ele>1583.0</ele>
  <time>2026-08-28T17:49:48Z</time>
  <course>0.0</course>
  <speed>0.0</speed>
  <fix>3d</fix>
</trkpt>
<trkpt lat="40.0713749" lon="-105.229789">
  <ele>1583.0</ele>
  <time>2026-08-28T17:49:48Z</time>
  <course>247.93</course>
  <speed>0.022360679774997897</speed>
  <fix>3d</fix>
</trkpt>
<trkpt lat="40.0713749" lon="-105.229789">
  <ele>1583.0</ele>
  <time>2026-08-28T17:49:48Z</time>
  <course>0.0</course>
  <speed>0.0</speed>
  <fix>3d</fix>
</trkpt>
<trkpt lat="40.0713749" lon="-105.229789">
  <ele>1583.0</ele>
  <time>2026-08-28T17:49:48Z</time>
  <course>247.93</course>
  <speed>0.022360679774997897</speed>
  <fix>3d</fix>
</trkpt>
<trkpt lat="40.0713749" lon="-105.229789">
  <ele>1583.0</ele>
  <time>2026-08-28T17:49:48Z</time>
  <course>0.0</course>
  <speed>0.0</speed>
  <fix>3d</fix>
</trkpt>
<trkpt lat="40.0713749" lon="-105.229789">
  <ele>1583.0</ele>
  <time>2026-08-28T17:49:48Z</time>
  <course>247.92</course>
  <speed>0.022360679774997897</speed>
  <fix>3d</fix>
</trkpt>
<trkpt lat="40.0713749" lon="-105.229789">
  <ele>1583.0</ele>
  <time>2026-08-28T17:49:48Z</time>
  <course>0.0</course>
  <speed>0.0</speed>
  <fix>3d</fix>
</trkpt>
<trkpt lat="40.0713749" lon="-105.229789">
  <ele>1583.0</ele>
  <time>2026-08-28T17:49:48Z</time>
  <course>247.92</course>
  <speed>0.022360679774997897</speed>
  <fix>3d</fix>
</trkpt>
<trkpt lat="40.0713749" lon="-105.229789">
  <ele>1583.0</ele>
  <time>2026-08-28T17:49:48Z</time>
  <course>0.0</course>
  <speed>0.0</speed>
  <fix>3d</fix>
</trkpt>
<trkpt lat="40.0713749" lon="-105.229789">
  <ele>1583.0</ele>
  <time>2026-08-28T17:49:48Z</time>
  <course>247.92</course>
  <speed>0.022360679774997897</speed>
  <fix>3d</fix>
</trkpt>
<trkpt lat="40.0713749" lon="-105.229789">
  <ele>1583.0</ele>
  <time>2026-08-28T17:49:48Z</time>
  <course>0.0</course>
  <speed>0.0</speed>
  <fix>3d</fix>
</trkpt>
<trkpt lat="40.0713749" lon="-105.229789">
  <ele>1583.0</ele>
  <time>2026-08-28T17:49:48Z</time>
  <course>247.91</course>
  <speed>0.022360679774997897</speed>
  <fix>3d</fix>
</trkpt>
<trkpt lat="40.0713749" lon="-105.229789">
  <ele>1583.0</ele>
  <time>2026-08-28T17:49:48Z</time>
  <course>0.0</course>
  <speed>0.0</speed>
  <fix>3d</fix>
</trkpt>
<trkpt lat="40.0713749" lon="-105.229789">
  <ele>1583.0</ele>
  <time>2026-08-28T17:49:48Z</time>
  <course>247.91</course>
  <speed>0.022360679774997897</speed>
  <fix>3d</fix>
</trkpt>
<trkpt lat="40.0713749" lon="-105.229789">
  <ele>1583.0</ele>
  <time>2026-08-28T17:49:48Z</time>
  <course>0.0</course>
  <speed>0.0</speed>
  <fix>3d</fix>
</trkpt>
<trkpt lat="40.0713749" lon="-105.229789">
  <ele>1583.0</ele>
  <time>2026-08-28T17:49:48Z</time>
  <course>247.9</course>
  <speed>0.022360679774997897</speed>
  <fix>3d</fix>
</trkpt>
<trkpt lat="40.0713749" lon="-105.229789">
  <ele>1583.0</ele>
  <time>2026-08-28T17:49:48Z</time>
  <course>0.0</course>
  <speed>0.0</speed>
  <fix>3d</fix>
</trkpt>
<trkpt lat="40.0713749" lon="-105.229789">
  <ele>1583.0</ele>
  <time>2026-08-28T17:49:48Z</time>
  <course>247.9</course>
  <speed>0.022360679774997897</speed>
  <fix>3d</fix>
</trkpt>
<trkpt lat="40.0713749" lon="-105.229789">
  <ele>1583.0</ele>
  <time>2026-08-28T17:49:48Z</time>
  <course>0.0</course>
  <speed>0.0</speed>
  <fix>3d</fix>
</trkpt>
<trkpt lat="40.0713749" lon="-105.229789">
  <ele>1583.0</ele>
  <time>2026-08-28T17:49:48Z</time>
  <course>247.89</course>
  <speed>0.022360679774997897</speed>
  <fix>3d</fix>
</trkpt>
<trkpt lat="40.0713749" lon="-105.229789">
  <ele>1583.0</ele>
  <time>2026-08-28T17:49:48Z</time>
  <course>0.0</course>
  <speed>0.0</speed>
  <fix>3d</fix>
</trkpt>
<trkpt lat="40.0713749" lon="-105.229789">
  <ele>1583.0</ele>
  <time>2026-08-28T17:49:48Z</time>
  <course>247.89</course>
  <speed>0.022360679774997897</speed>
  <fix>3d</fix>
</trkpt>
<trkpt lat="40.0713749" lon="-105.229789">
  <ele>1583.0</ele>
  <time>2026-08-28T17:49:48Z</time>
  <course>0.0</course>
  <speed>0.0</speed>
  <fix>3d</fix>
</trkpt>
<trkpt lat="40.0713749" lon="-105.229789">
  <ele>1583.0</ele>
  <time>2026-08-28T17:49:48Z</time>
  <course>247.89</course>
  <speed>0.022360679774997897</speed>
  <fix>3d</fix>
</trkpt>
<trkpt lat="40.0713749" lon="-105.229789">
  <ele>1583.0</ele>
  <time>2026-08-28T17:49:48Z</time>
  <course>0.0</course>
  <speed>0.0</speed>
  <fix>3d</fix>
</trkpt>
<trkpt lat="40.0713749" lon="-105.229789">
  <ele>1583.0</ele>
  <time>2026-08-28T17:49:48Z</time>
  <course>247.88</course>
  <speed>0.0316227766016838</speed>
  <fix>3d</fix>
</trkpt>
<trkpt lat="40.0713749" lon="-105.229789">
  <ele>1583.0</ele>
  <time>2026-08-28T17:49:48Z</time>
  <course>0.0</course>
  <speed>0.0</speed>
  <fix>3d</fix>
</trkpt>
<trkpt lat="40.0713749" lon="-105.229789">
  <ele>1583.0</ele>
  <time>2026-08-28T17:49:48Z</time>
  <course>247.88</course>
  <speed>0.0316227766016838</speed>
  <fix>3d</fix>
</trkpt>
<trkpt lat="40.0713749" lon="-105.229789">
  <ele>1583.0</ele>
  <time>2026-08-28T17:49:48Z</time>
  <course>0.0</course>
  <speed>0.0</speed>
  <fix>3d</fix>
</trkpt>
<trkpt lat="40.0713749" lon="-105.229789">
  <ele>1583.0</ele>
  <time>2026-08-28T17:49:48Z</time>
  <course>247.87</course>
  <speed>0.0316227766016838</speed>
  <fix>3d</fix>
</trkpt>
<trkpt lat="40.0713749" lon="-105.229789">
  <ele>1583.0</ele>
  <time>2026-08-28T17:49:48Z</time>
  <course>0.0</course>
  <speed>0.0</speed>
  <fix>3d</fix>
</trkpt>
<trkpt lat="40.0713749" lon="-105.229789">
  <ele>1583.0</ele>
  <time>2026-08-28T17:49:48Z</time>
  <course>247.87</course>
  <speed>0.0316227766016838</speed>
  <fix>3d</fix>
</trkpt>
<trkpt lat="40.0713749" lon="-105.229789">
  <ele>1583.0</ele>
  <time>2026-08-28T17:49:48Z</time>
  <course>0.0</course>
  <speed>0.0</speed>
  <fix>3d</fix>
</trkpt>
<trkpt lat="40.0713749" lon="-105.229789">
  <ele>1583.0</ele>
  <time>2026-08-28T17:49:48Z</time>
  <course>247.87</course>
  <speed>0.0316227766016838</speed>
  <fix>3d</fix>
</trkpt>
<trkpt lat="40.0713749" lon="-105.229789">
  <ele>1583.0</ele>
  <time>2026-08-28T17:49:48Z</time>
  <course>0.0</course>
  <speed>0.0</speed>
  <fix>3d</fix>
</trkpt>
<trkpt lat="40.0713749" lon="-105.229789">
  <ele>1583.0</ele>
  <time>2026-08-28T17:49:48Z</time>
  <course>247.86</course>
  <speed>0.0316227766016838</speed>
  <fix>3d</fix>
</trkpt>
<trkpt lat="40.0713749" lon="-105.229789">
  <ele>1583.0</ele>
  <time>2026-08-28T17:49:48Z</time>
  <course>0.0</course>
  <speed>0.0</speed>
  <fix>3d</fix>
</trkpt>
<trkpt lat="40.0713749" lon="-105.229789">
  <ele>1583.0</ele>
  <time>2026-08-28T17:49:48Z</time>
  <course>247.86</course>
  <speed>0.0316227766016838</speed>
  <fix>3d</fix>
</trkpt>
<trkpt lat="40.0713749" lon="-105.229789">
  <ele>1583.0</ele>
  <time>2026-08-28T17:49:48Z</time>
  <course>0.0</course>
  <speed>0.0</speed>
  <fix>3d</fix>
</trkpt>
<trkpt lat="40.0713749" lon="-105.229789">
  <ele>1583.0</ele>
  <time>2026-08-28T17:49:48Z</time>
  <course>247.85</course>
  <speed>0.0316227766016838</speed>
  <fix>3d</fix>
</trkpt>
<trkpt lat="40.0713749" lon="-105.229789">
  <ele>1583.0</ele>
  <time>2026-08-28T17:49:48Z</time>
  <course>0.0</course>
  <speed>0.0</speed>
  <fix>3d</fix>
</trkpt>
<trkpt lat="40.0713749" lon="-105.229789">
  <ele>1583.0</ele>
  <time>2026-08-28T17:49:48Z</time>
  <course>247.85</course>
  <speed>0.0316227766016838</speed>
  <fix>3d</fix>
</trkpt>
<trkpt lat="40.0713749" lon="-105.229789">
  <ele>1583.0</ele>
  <time>2026-08-28T17:49:48Z</time>
  <course>0.0</course>
  <speed>0.0</speed>
  <fix>3d</fix>
</trkpt>
<trkpt lat="40.0713749" lon="-105.229789">
  <ele>1583.0</ele>
  <time>2026-08-28T17:49:48Z</time>
  <course>247.85</course>
  <speed>0.0316227766016838</speed>
  <fix>3d</fix>
</trkpt>
<trkpt lat="40.0713749" lon="-105.229789">
  <ele>1583.0</ele>
  <time>2026-08-28T17:49:48Z</time>
  <course>0.0</course>
  <speed>0.0</speed>
  <fix>3d</fix>
</trkpt>
<trkpt lat="40.0713749" lon="-105.229789">
  <ele>1583.0</ele>
  <time>2026-08-28T17:49:48Z</time>
  <course>247.84</course>
  <speed>0.0316227766016838</speed>
  <fix>3d</fix>
</trkpt>
<trkpt lat="40.0713749" lon="-105.229789">
  <ele>1583.0</ele>
  <time>2026-08-28T17:49:48Z</time>
  <course>0.0</course>
  <speed>0.0</speed>
  <fix>3d</fix>
</trkpt>
<trkpt lat="40.0713749" lon="-105.229789">
  <ele>1583.0</ele>
  <time>2026-08-28T17:49:48Z</time>
  <course>247.84</course>
  <speed>0.0316227766016838</speed>
  <fix>3d</fix>
</trkpt>
<trkpt lat="40.0713749" lon="-105.229789">
  <ele>1583.0</ele>
  <time>2026-08-28T17:49:48Z</time>
  <course>0.0</course>
  <speed>0.0</speed>
  <fix>3d</fix>
</trkpt>
<trkpt lat="40.0713749" lon="-105.229789">
  <ele>1583.0</ele>
  <time>2026-08-28T17:49:48Z</time>
  <course>247.83</course>
  <speed>0.0316227766016838</speed>
  <fix>3d</fix>
</trkpt>
<trkpt lat="40.0713749" lon="-105.229789">
  <ele>1583.0</ele>
  <time>2026-08-28T17:49:48Z</time>
  <course>0.0</course>
  <speed>0.0</speed>
  <fix>3d</fix>
</trkpt>
<trkpt lat="40.0713749" lon="-105.229789">
  <ele>1583.0</ele>
  <time>2026-08-28T17:49:48Z</time>
  <course>247.83</course>
  <speed>0.0316227766016838</speed>
  <fix>3d</fix>
</trkpt>
<trkpt lat="40.0713749" lon="-105.229789">
  <ele>1583.0</ele>
  <time>2026-08-28T17:49:48Z</time>
  <course>0.0</course>
  <speed>0.0</speed>
  <fix>3d</fix>
</trkpt>
<trkpt lat="40.0713749" lon="-105.229789">
  <ele>1583.0</ele>
  <time>2026-08-28T17:49:48Z</time>
  <course>247.83</course>
  <speed>0.0316227766016838</speed>
  <fix>3d</fix>
</trkpt>
<trkpt lat="40.0713749" lon="-105.229789">
  <ele>1583.0</ele>
  <time>2026-08-28T17:49:48Z</time>
  <course>0.0</course>
  <speed>0.0</speed>
  <fix>3d</fix>
</trkpt>
<trkpt lat="40.0713749" lon="-105.229789">
  <ele>1583.0</ele>
  <time>2026-08-28T17:49:48Z</time>
  <course>247.82</course>
  <speed>0.0316227766016838</speed>
  <fix>3d</fix>
</trkpt>
<trkpt lat="40.0713749" lon="-105.229789">
  <ele>1583.0</ele>
  <time>2026-08-28T17:49:48Z</time>
  <course>0.0</course>
  <speed>0.0</speed>
  <fix>3d</fix>
</trkpt>
<trkpt lat="40.0713749" lon="-105.229789">
  <ele>1583.0</ele>
  <time>2026-08-28T17:49:48Z</time>
  <course>247.82</course>
  <speed>0.0316227766016838</speed>
  <fix>3d</fix>
</trkpt>
<trkpt lat="40.0713749" lon="-105.229789">
  <ele>1583.0</ele>
  <time>2026-08-28T17:49:48Z</time>
  <course>0.0</course>
  <speed>0.0</speed>
  <fix>3d</fix>
</trkpt>
<trkpt lat="40.0713749" lon="-105.229789">
  <ele>1583.0</ele>
  <time>2026-08-28T17:49:48Z</time>
  <course>247.82</course>
  <speed>0.0316227766016838</speed>
  <fix>3d</fix>
</trkpt>
<trkpt lat="40.0713749" lon="-105.229789">
  <ele>1583.0</ele>
  <time>2026-08-28T17:49:48Z</time>
  <course>0.0</course>
  <speed>0.0</speed>
  <fix>3d</fix>
</trkpt>
<trkpt lat="40.0713749" lon="-105.229789">
  <ele>1583.0</ele>
  <time>2026-08-28T17:49:48Z</time>
  <course>247.81</course>
  <speed>0.0316227766016838</speed>
  <fix>3d</fix>
</trkpt>
<trkpt lat="40.0713749" lon="-105.229789">
  <ele>1583.0</ele>
  <time>2026-08-28T17:49:48Z</time>
  <course>0.0</course>
  <speed>0.0</speed>
  <fix>3d</fix>
</trkpt>
<trkpt lat="40.0713749" lon="-105.229789">
  <ele>1583.0</ele>
  <time>2026-08-28T17:49:48Z</time>
  <course>247.81</course>
  <speed>0.0316227766016838</speed>
  <fix>3d</fix>
</trkpt>
<trkpt lat="40.0713749" lon="-105.229789">
  <ele>1583.0</ele>
  <time>2026-08-28T17:49:48Z</time>
  <course>0.0</course>
  <speed>0.0</speed>
  <fix>3d</fix>
</trkpt>
<trkpt lat="40.0713749" lon="-105.229789">
  <ele>1583.0</ele>
  <time>2026-08-28T17:49:48Z</time>
  <course>247.8</course>
  <speed>0.0316227766016838</speed>
  <fix>3d</fix>
</trkpt>
<trkpt lat="40.0713749" lon="-105.229789">
  <ele>1583.0</ele>
  <time>2026-08-28T17:49:48Z</time>
  <course>0.0</course>
  <speed>0.0</speed>
  <fix>3d</fix>
</trkpt>
<trkpt lat="40.0713749" lon="-105.229789">
  <ele>1583.0</ele>
  <time>2026-08-28T17:49:48Z</time>
  <course>247.8</course>
  <speed>0.0316227766016838</speed>
  <fix>3d</fix>
</trkpt>
<trkpt lat="40.0713749" lon="-105.229789">
  <ele>1583.0</ele>
  <time>2026-08-28T17:49:48Z</time>
  <course>0.0</course>
  <speed>0.0</speed>
  <fix>3d</fix>
</trkpt>
<trkpt lat="40.0713749" lon="-105.229789">
  <ele>1583.0</ele>
  <time>2026-08-28T17:49:48Z</time>
  <course>247.8</course>
  <speed>0.0316227766016838</speed>
  <fix>3d</fix>
</trkpt>
<trkpt lat="40.0713749" lon="-105.229789">
  <ele>1583.0</ele>
  <time>2026-08-28T17:49:48Z</time>
  <course>0.0</course>
  <speed>0.0</speed>
  <fix>3d</fix>
</trkpt>
<trkpt lat="40.0713749" lon="-105.229789">
  <ele>1583.0</ele>
  <time>2026-08-28T17:49:48Z</time>
  <course>247.79</course>
  <speed>0.0316227766016838</speed>
  <fix>3d</fix>
</trkpt>
<trkpt lat="40.0713749" lon="-105.229789">
  <ele>1583.0</ele>
  <time>2026-08-28T17:49:48Z</time>
  <course>0.0</course>
  <speed>0.0</speed>
  <fix>3d</fix>
</trkpt>
<trkpt lat="40.0713749" lon="-105.229789">
  <ele>1583.0</ele>
  <time>2026-08-28T17:49:48Z</time>
  <course>247.79</course>
  <speed>0.0316227766016838</speed>
  <fix>3d</fix>
</trkpt>
<trkpt lat="40.0713749" lon="-105.229789">
  <ele>1583.0</ele>
  <time>2026-08-28T17:49:48Z</time>
  <course>0.0</course>
  <speed>0.0</speed>
  <fix>3d</fix>
</trkpt>
<trkpt lat="40.0713749" lon="-105.229789">
  <ele>1583.0</ele>
  <time>2026-08-28T17:49:48Z</time>
  <course>247.79</course>
  <speed>0.0316227766016838</speed>
  <fix>3d</fix>
</trkpt>
<trkpt lat="40.0713749" lon="-105.229789">
  <ele>1583.0</ele>
  <time>2026-08-28T17:49:48Z</time>
  <course>0.0</course>
  <speed>0.0</speed>
  <fix>3d</fix>
</trkpt>
<trkpt lat="40.0713749" lon="-105.229789">
  <ele>1583.0</ele>
  <time>2026-08-28T17:49:49Z</time>
  <course>247.78</course>
  <speed>0.0316227766016838</speed>
  <fix>3d</fix>
</trkpt>
<trkpt lat="40.0713749" lon="-105.229789">
  <ele>1583.0</ele>
  <time>2026-08-28T17:49:49Z</time>
  <course>0.0</course>
  <speed>0.0</speed>
  <fix>3d</fix>
</trkpt>
<trkpt lat="40.0713749" lon="-105.229789">
  <ele>1583.0</ele>
  <time>2026-08-28T17:49:49Z</time>
  <course>247.78</course>
  <speed>0.0316227766016838</speed>
  <fix>3d</fix>
</trkpt>
<trkpt lat="40.0713749" lon="-105.229789">
  <ele>1583.0</ele>
  <time>2026-08-28T17:49:49Z</time>
  <course>0.0</course>
  <speed>0.0</speed>
  <fix>3d</fix>
</trkpt>
<trkpt lat="40.0713749" lon="-105.229789">
  <ele>1583.0</ele>
  <time>2026-08-28T17:49:49Z</time>
  <course>247.78</course>
  <speed>0.0316227766016838</speed>
  <fix>3d</fix>
</trkpt>
<trkpt lat="40.0713749" lon="-105.229789">
  <ele>1583.0</ele>
  <time>2026-08-28T17:49:49Z</time>
  <course>0.0</course>
  <speed>0.0</speed>
  <fix>3d</fix>
</trkpt>
<trkpt lat="40.0713749" lon="-105.229789">
  <ele>1583.0</ele>
  <time>2026-08-28T17:49:49Z</time>
  <course>247.77</course>
  <speed>0.0316227766016838</speed>
  <fix>3d</fix>
</trkpt>
<trkpt lat="40.0713749" lon="-105.229789">
  <ele>1583.0</ele>
  <time>2026-08-28T17:49:49Z</time>
  <course>0.0</course>
  <speed>0.0</speed>
  <fix>3d</fix>
</trkpt>
<trkpt lat="40.0713749" lon="-105.229789">
  <ele>1583.0</ele>
  <time>2026-08-28T17:49:49Z</time>
  <course>247.77</course>
  <speed>0.0316227766016838</speed>
  <fix>3d</fix>
</trkpt>
<trkpt lat="40.0713749" lon="-105.229789">
  <ele>1583.0</ele>
  <time>2026-08-28T17:49:49Z</time>
  <course>0.0</course>
  <speed>0.0</speed>
  <fix>3d</fix>
</trkpt>
<trkpt lat="40.0713749" lon="-105.229789">
  <ele>1583.0</ele>
  <time>2026-08-28T17:49:49Z</time>
  <course>247.76</course>
  <speed>0.0316227766016838</speed>
  <fix>3d</fix>
</trkpt>
<trkpt lat="40.0713749" lon="-105.229789">
  <ele>1583.0</ele>
  <time>2026-08-28T17:49:49Z</time>
  <course>0.0</course>
  <speed>0.0</speed>
  <fix>3d</fix>
</trkpt>
<trkpt lat="40.0713749" lon="-105.229789">
  <ele>1583.0</ele>
  <time>2026-08-28T17:49:49Z</time>
  <course>247.76</course>
  <speed>0.0316227766016838</speed>
  <fix>3d</fix>
</trkpt>
<trkpt lat="40.0713749" lon="-105.229789">
  <ele>1583.0</ele>
  <time>2026-08-28T17:49:49Z</time>
  <course>0.0</course>
  <speed>0.0</speed>
  <fix>3d</fix>
</trkpt>
<trkpt lat="40.0713749" lon="-105.229789">
  <ele>1583.0</ele>
  <time>2026-08-28T17:49:49Z</time>
  <course>247.76</course>
  <speed>0.0316227766016838</speed>
  <fix>3d</fix>
</trkpt>
<trkpt lat="40.0713749" lon="-105.229789">
  <ele>1583.0</ele>
  <time>2026-08-28T17:49:49Z</time>
  <course>0.0</course>
  <speed>0.0</speed>
  <fix>3d</fix>
</trkpt>
<trkpt lat="40.0713749" lon="-105.229789">
  <ele>1583.0</ele>
  <time>2026-08-28T17:49:49Z</time>
  <course>247.75</course>
  <speed>0.0316227766016838</speed>
  <fix>3d</fix>
</trkpt>
<trkpt lat="40.0713749" lon="-105.229789">
  <ele>1583.0</ele>
  <time>2026-08-28T17:49:49Z</time>
  <course>0.0</course>
  <speed>0.0</speed>
  <fix>3d</fix>
</trkpt>
<trkpt lat="40.0713749" lon="-105.229789">
  <ele>1583.0</ele>
  <time>2026-08-28T17:49:49Z</time>
  <course>247.75</course>
  <speed>0.0316227766016838</speed>
  <fix>3d</fix>
</trkpt>
<trkpt lat="40.0713749" lon="-105.229789">
  <ele>1583.0</ele>
  <time>2026-08-28T17:49:49Z</time>
  <course>0.0</course>
  <speed>0.0</speed>
  <fix>3d</fix>
</trkpt>
<trkpt lat="40.0713749" lon="-105.229789">
  <ele>1583.0</ele>
  <time>2026-08-28T17:49:49Z</time>
  <course>247.75</course>
  <speed>0.0316227766016838</speed>
  <fix>3d</fix>
</trkpt>
<trkpt lat="40.0713749" lon="-105.229789">
  <ele>1583.0</ele>
  <time>2026-08-28T17:49:49Z</time>
  <course>0.0</course>
  <speed>0.0</speed>
  <fix>3d</fix>
</trkpt>
<trkpt lat="40.0713749" lon="-105.229789">
  <ele>1583.0</ele>
  <time>2026-08-28T17:49:49Z</time>
  <course>247.74</course>
  <speed>0.0316227766016838</speed>
  <fix>3d</fix>
</trkpt>
<trkpt lat="40.0713749" lon="-105.229789">
  <ele>1583.0</ele>
  <time>2026-08-28T17:49:49Z</time>
  <course>0.0</course>
  <speed>0.0</speed>
  <fix>3d</fix>
</trkpt>
<trkpt lat="40.0713749" lon="-105.229789">
  <ele>1583.0</ele>
  <time>2026-08-28T17:49:49Z</time>
  <course>247.74</course>
  <speed>0.0316227766016838</speed>
  <fix>3d</fix>
</trkpt>
<trkpt lat="40.0713749" lon="-105.229789">
  <ele>1583.0</ele>
  <time>2026-08-28T17:49:49Z</time>
  <course>0.0</course>
  <speed>0.0</speed>
  <fix>3d</fix>
</trkpt>
<trkpt lat="40.0713749" lon="-105.229789">
  <ele>1583.0</ele>
  <time>2026-08-28T17:49:49Z</time>
  <course>247.74</course>
  <speed>0.0316227766016838</speed>
  <fix>3d</fix>
</trkpt>
<trkpt lat="40.0713749" lon="-105.229789">
  <ele>1583.0</ele>
  <time>2026-08-28T17:49:49Z</time>
  <course>0.0</course>
  <speed>0.0</speed>
  <fix>3d</fix>
</trkpt>
<trkpt lat="40.0713749" lon="-105.229789">
  <ele>1583.0</ele>
  <time>2026-08-28T17:49:49Z</time>
  <course>247.73</course>
  <speed>0.0316227766016838</speed>
  <fix>3d</fix>
</trkpt>
<trkpt lat="40.0713749" lon="-105.229789">
  <ele>1583.0</ele>
  <time>2026-08-28T17:49:49Z</time>
  <course>0.0</course>
  <speed>0.0</speed>
  <fix>3d</fix>
</trkpt>
<trkpt lat="40.0713749" lon="-105.229789">
  <ele>1583.0</ele>
  <time>2026-08-28T17:49:49Z</time>
  <course>247.73</course>
  <speed>0.0316227766016838</speed>
  <fix>3d</fix>
</trkpt>
<trkpt lat="40.0713749" lon="-105.229789">
  <ele>1583.0</ele>
  <time>2026-08-28T17:49:49Z</time>
  <course>0.0</course>
  <speed>0.0</speed>
  <fix>3d</fix>
</trkpt>
<trkpt lat="40.0713749" lon="-105.229789">
  <ele>1583.0</ele>
  <time>2026-08-28T17:49:49Z</time>
  <course>247.73</course>
  <speed>0.0316227766016838</speed>
  <fix>3d</fix>
</trkpt>
<trkpt lat="40.0713749" lon="-105.229789">
  <ele>1583.0</ele>
  <time>2026-08-28T17:49:49Z</time>
  <course>0.0</course>
  <speed>0.0</speed>
  <fix>3d</fix>
</trkpt>
<trkpt lat="40.0713749" lon="-105.229789">
  <ele>1583.0</ele>
  <time>2026-08-28T17:49:49Z</time>
  <course>247.72</course>
  <speed>0.0316227766016838</speed>
  <fix>3d</fix>
</trkpt>
<trkpt lat="40.0713749" lon="-105.229789">
  <ele>1583.0</ele>
  <time>2026-08-28T17:49:49Z</time>
  <course>0.0</course>
  <speed>0.0</speed>
  <fix>3d</fix>
</trkpt>
<trkpt lat="40.0713749" lon="-105.229789">
  <ele>1583.0</ele>
  <time>2026-08-28T17:49:49Z</time>
  <course>247.72</course>
  <speed>0.0316227766016838</speed>
  <fix>3d</fix>
</trkpt>
<trkpt lat="40.0713749" lon="-105.229789">
  <ele>1583.0</ele>
  <time>2026-08-28T17:49:49Z</time>
  <course>0.0</course>
  <speed>0.0</speed>
  <fix>3d</fix>
</trkpt>
<trkpt lat="40.0713749" lon="-105.229789">
  <ele>1583.0</ele>
  <time>2026-08-28T17:49:49Z</time>
  <course>247.72</course>
  <speed>0.0316227766016838</speed>
  <fix>3d</fix>
</trkpt>
<trkpt lat="40.0713749" lon="-105.229789">
  <ele>1583.0</ele>
  <time>2026-08-28T17:49:49Z</time>
  <course>0.0</course>
  <speed>0.0</speed>
  <fix>3d</fix>
</trkpt>
<trkpt lat="40.0713749" lon="-105.229789">
  <ele>1583.0</ele>
  <time>2026-08-28T17:49:49Z</time>
  <course>247.71</course>
  <speed>0.0316227766016838</speed>
  <fix>3d</fix>
</trkpt>
<trkpt lat="40.0713749" lon="-105.229789">
  <ele>1583.0</ele>
  <time>2026-08-28T17:49:49Z</time>
  <course>0.0</course>
  <speed>0.0</speed>
  <fix>3d</fix>
</trkpt>
<trkpt lat="40.0713749" lon="-105.229789">
  <ele>1583.0</ele>
  <time>2026-08-28T17:49:49Z</time>
  <course>247.71</course>
  <speed>0.0316227766016838</speed>
  <fix>3d</fix>
</trkpt>
<trkpt lat="40.0713749" lon="-105.229789">
  <ele>1583.0</ele>
  <time>2026-08-28T17:49:49Z</time>
  <course>0.0</course>
  <speed>0.0</speed>
  <fix>3d</fix>
</trkpt>
<trkpt lat="40.0713749" lon="-105.229789">
  <ele>1583.0</ele>
  <time>2026-08-28T17:49:49Z</time>
  <course>247.71</course>
  <speed>0.0316227766016838</speed>
  <fix>3d</fix>
</trkpt>
<trkpt lat="40.0713749" lon="-105.229789">
  <ele>1583.0</ele>
  <time>2026-08-28T17:49:49Z</time>
  <course>0.0</course>
  <speed>0.0</speed>
  <fix>3d</fix>
</trkpt>
<trkpt lat="40.0713749" lon="-105.229789">
  <ele>1583.0</ele>
  <time>2026-08-28T17:49:49Z</time>
  <course>247.7</course>
  <speed>0.0316227766016838</speed>
  <fix>3d</fix>
</trkpt>
<trkpt lat="40.0713749" lon="-105.229789">
  <ele>1583.0</ele>
  <time>2026-08-28T17:49:49Z</time>
  <course>0.0</course>
  <speed>0.0</speed>
  <fix>3d</fix>
</trkpt>
<trkpt lat="40.0713749" lon="-105.229789">
  <ele>1583.0</ele>
  <time>2026-08-28T17:49:49Z</time>
  <course>247.7</course>
  <speed>0.0316227766016838</speed>
  <fix>3d</fix>
</trkpt>
<trkpt lat="40.0713749" lon="-105.229789">
  <ele>1583.0</ele>
  <time>2026-08-28T17:49:49Z</time>
  <course>0.0</course>
  <speed>0.0</speed>
  <fix>3d</fix>
</trkpt>
<trkpt lat="40.0713749" lon="-105.229789">
  <ele>1583.0</ele>
  <time>2026-08-28T17:49:49Z</time>
  <course>247.7</course>
  <speed>0.0316227766016838</speed>
  <fix>3d</fix>
</trkpt>
<trkpt lat="40.0713749" lon="-105.229789">
  <ele>1583.0</ele>
  <time>2026-08-28T17:49:49Z</time>
  <course>0.0</course>
  <speed>0.0</speed>
  <fix>3d</fix>
</trkpt>
<trkpt lat="40.0713749" lon="-105.229789">
  <ele>1583.0</ele>
  <time>2026-08-28T17:49:49Z</time>
  <course>247.69</course>
  <speed>0.0316227766016838</speed>
  <fix>3d</fix>
</trkpt>
<trkpt lat="40.0713749" lon="-105.229789">
  <ele>1583.0</ele>
  <time>2026-08-28T17:49:49Z</time>
  <course>0.0</course>
  <speed>0.0</speed>
  <fix>3d</fix>
</trkpt>
<trkpt lat="40.0713749" lon="-105.229789">
  <ele>1583.0</ele>
  <time>2026-08-28T17:49:49Z</time>
  <course>247.69</course>
  <speed>0.0316227766016838</speed>
  <fix>3d</fix>
</trkpt>
<trkpt lat="40.0713749" lon="-105.229789">
  <ele>1583.0</ele>
  <time>2026-08-28T17:49:49Z</time>
  <course>0.0</course>
  <speed>0.0</speed>
  <fix>3d</fix>
</trkpt>
<trkpt lat="40.0713749" lon="-105.229789">
  <ele>1583.0</ele>
  <time>2026-08-28T17:49:49Z</time>
  <course>247.69</course>
  <speed>0.0316227766016838</speed>
  <fix>3d</fix>
</trkpt>
<trkpt lat="40.0713749" lon="-105.229789">
  <ele>1583.0</ele>
  <time>2026-08-28T17:49:49Z</time>
  <course>0.0</course>
  <speed>0.0</speed>
  <fix>3d</fix>
</trkpt>
<trkpt lat="40.0713749" lon="-105.229789">
  <ele>1583.0</ele>
  <time>2026-08-28T17:49:49Z</time>
  <course>247.68</course>
  <speed>0.0316227766016838</speed>
  <fix>3d</fix>
</trkpt>
<trkpt lat="40.0713749" lon="-105.229789">
  <ele>1583.0</ele>
  <time>2026-08-28T17:49:49Z</time>
  <course>0.0</course>
  <speed>0.0</speed>
  <fix>3d</fix>
</trkpt>
<trkpt lat="40.0713749" lon="-105.229789">
  <ele>1583.0</ele>
  <time>2026-08-28T17:49:49Z</time>
  <course>247.68</course>
  <speed>0.0316227766016838</speed>
  <fix>3d</fix>
</trkpt>
<trkpt lat="40.0713749" lon="-105.229789">
  <ele>1583.0</ele>
  <time>2026-08-28T17:49:49Z</time>
  <course>0.0</course>
  <speed>0.0</speed>
  <fix>3d</fix>
</trkpt>
<trkpt lat="40.0713749" lon="-105.229789">
  <ele>1583.0</ele>
  <time>2026-08-28T17:49:49Z</time>
  <course>247.68</course>
  <speed>0.0316227766016838</speed>
  <fix>3d</fix>
</trkpt>
<trkpt lat="40.0713749" lon="-105.229789">
  <ele>1583.0</ele>
  <time>2026-08-28T17:49:49Z</time>
  <course>0.0</course>
  <speed>0.0</speed>
  <fix>3d</fix>
</trkpt>
<trkpt lat="40.0713749" lon="-105.229789">
  <ele>1583.0</ele>
  <time>2026-08-28T17:49:49Z</time>
  <course>247.67</course>
  <speed>0.0316227766016838</speed>
  <fix>3d</fix>
</trkpt>
<trkpt lat="40.0713749" lon="-105.229789">
  <ele>1583.0</ele>
  <time>2026-08-28T17:49:49Z</time>
  <course>0.0</course>
  <speed>0.0</speed>
  <fix>3d</fix>
</trkpt>
<trkpt lat="40.0713749" lon="-105.229789">
  <ele>1583.0</ele>
  <time>2026-08-28T17:49:49Z</time>
  <course>247.67</course>
  <speed>0.0316227766016838</speed>
  <fix>3d</fix>
</trkpt>
<trkpt lat="40.0713749" lon="-105.229789">
  <ele>1583.0</ele>
  <time>2026-08-28T17:49:49Z</time>
  <course>0.0</course>
  <speed>0.0</speed>
  <fix>3d</fix>
</trkpt>
<trkpt lat="40.0713749" lon="-105.229789">
  <ele>1583.0</ele>
  <time>2026-08-28T17:49:49Z</time>
  <course>247.67</course>
  <speed>0.0316227766016838</speed>
  <fix>3d</fix>
</trkpt>
<trkpt lat="40.0713749" lon="-105.229789">
  <ele>1583.0</ele>
  <time>2026-08-28T17:49:49Z</time>
  <course>0.0</course>
  <speed>0.0</speed>
  <fix>3d</fix>
</trkpt>
<trkpt lat="40.0713749" lon="-105.229789">
  <ele>1583.0</ele>
  <time>2026-08-28T17:49:49Z</time>
  <course>247.66</course>
  <speed>0.0316227766016838</speed>
  <fix>3d</fix>
</trkpt>
<trkpt lat="40.0713749" lon="-105.229789">
  <ele>1583.0</ele>
  <time>2026-08-28T17:49:49Z</time>
  <course>0.0</course>
  <speed>0.0</speed>
  <fix>3d</fix>
</trkpt>
<trkpt lat="40.0713749" lon="-105.229789">
  <ele>1583.0</ele>
  <time>2026-08-28T17:49:49Z</time>
  <course>247.66</course>
  <speed>0.0316227766016838</speed>
  <fix>3d</fix>
</trkpt>
<trkpt lat="40.0713749" lon="-105.229789">
  <ele>1583.0</ele>
  <time>2026-08-28T17:49:49Z</time>
  <course>0.0</course>
  <speed>0.0</speed>
  <fix>3d</fix>
</trkpt>
<trkpt lat="40.0713749" lon="-105.229789">
  <ele>1583.0</ele>
  <time>2026-08-28T17:49:49Z</time>
  <course>247.66</course>
  <speed>0.0316227766016838</speed>
  <fix>3d</fix>
</trkpt>
<trkpt lat="40.0713749" lon="-105.229789">
  <ele>1583.0</ele>
  <time>2026-08-28T17:49:49Z</time>
  <course>0.0</course>
  <speed>0.0</speed>
  <fix>3d</fix>
</trkpt>
<trkpt lat="40.0713749" lon="-105.229789">
  <ele>1583.0</ele>
  <time>2026-08-28T17:49:49Z</time>
  <course>247.65</course>
  <speed>0.0316227766016838</speed>
  <fix>3d</fix>
</trkpt>
<trkpt lat="40.0713749" lon="-105.229789">
  <ele>1583.0</ele>
  <time>2026-08-28T17:49:49Z</time>
  <course>0.0</course>
  <speed>0.0</speed>
  <fix>3d</fix>
</trkpt>
<trkpt lat="40.0713749" lon="-105.229789">
  <ele>1583.0</ele>
  <time>2026-08-28T17:49:49Z</time>
  <course>247.65</course>
  <speed>0.0316227766016838</speed>
  <fix>3d</fix>
</trkpt>
<trkpt lat="40.0713749" lon="-105.229789">
  <ele>1583.0</ele>
  <time>2026-08-28T17:49:49Z</time>
  <course>0.0</course>
  <speed>0.0</speed>
  <fix>3d</fix>
</trkpt>
<trkpt lat="40.0713749" lon="-105.229789">
  <ele>1583.0</ele>
  <time>2026-08-28T17:49:49Z</time>
  <course>247.65</course>
  <speed>0.0316227766016838</speed>
  <fix>3d</fix>
</trkpt>
<trkpt lat="40.0713749" lon="-105.229789">
  <ele>1583.0</ele>
  <time>2026-08-28T17:49:49Z</time>
  <course>0.0</course>
  <speed>0.0</speed>
  <fix>3d</fix>
</trkpt>
<trkpt lat="40.0713749" lon="-105.229789">
  <ele>1583.0</ele>
  <time>2026-08-28T17:49:49Z</time>
  <course>247.64</course>
  <speed>0.0316227766016838</speed>
  <fix>3d</fix>
</trkpt>
<trkpt lat="40.0713749" lon="-105.229789">
  <ele>1583.0</ele>
  <time>2026-08-28T17:49:49Z</time>
  <course>0.0</course>
  <speed>0.0</speed>
  <fix>3d</fix>
</trkpt>
<trkpt lat="40.0713749" lon="-105.229789">
  <ele>1583.0</ele>
  <time>2026-08-28T17:49:49Z</time>
  <course>247.64</course>
  <speed>0.0316227766016838</speed>
  <fix>3d</fix>
</trkpt>
<trkpt lat="40.0713749" lon="-105.229789">
  <ele>1583.0</ele>
  <time>2026-08-28T17:49:49Z</time>
  <course>0.0</course>
  <speed>0.0</speed>
  <fix>3d</fix>
</trkpt>
<trkpt lat="40.0713749" lon="-105.229789">
  <ele>1583.0</ele>
  <time>2026-08-28T17:49:49Z</time>
  <course>247.64</course>
  <speed>0.0316227766016838</speed>
  <fix>3d</fix>
</trkpt>
<trkpt lat="40.0713749" lon="-105.229789">
  <ele>1583.0</ele>
  <time>2026-08-28T17:49:49Z</time>
  <course>0.0</course>
  <speed>0.0</speed>
  <fix>3d</fix>
</trkpt>
<trkpt lat="40.0713749" lon="-105.229789">
  <ele>1583.0</ele>
  <time>2026-08-28T17:49:49Z</time>
  <course>247.64</course>
  <speed>0.0316227766016838</speed>
  <fix>3d</fix>
</trkpt>
<trkpt lat="40.0713749" lon="-105.229789">
  <ele>1583.0</ele>
  <time>2026-08-28T17:49:49Z</time>
  <course>0.0</course>
  <speed>0.0</speed>
  <fix>3d</fix>
</trkpt>
<trkpt lat="40.0713749" lon="-105.229789">
  <ele>1583.0</ele>
  <time>2026-08-28T17:49:49Z</time>
  <course>247.63</course>
  <speed>0.0316227766016838</speed>
  <fix>3d</fix>
</trkpt>
<trkpt lat="40.0713749" lon="-105.229789">
  <ele>1583.0</ele>
  <time>2026-08-28T17:49:49Z</time>
  <course>0.0</course>
  <speed>0.0</speed>
  <fix>3d</fix>
</trkpt>
<trkpt lat="40.0713749" lon="-105.229789">
  <ele>1583.0</ele>
  <time>2026-08-28T17:49:49Z</time>
  <course>247.63</course>
  <speed>0.0316227766016838</speed>
  <fix>3d</fix>
</trkpt>
<trkpt lat="40.0713749" lon="-105.229789">
  <ele>1583.0</ele>
  <time>2026-08-28T17:49:49Z</time>
  <course>0.0</course>
  <speed>0.0</speed>
  <fix>3d</fix>
</trkpt>
<trkpt lat="40.0713749" lon="-105.229789">
  <ele>1583.0</ele>
  <time>2026-08-28T17:49:49Z</time>
  <course>247.63</course>
  <speed>0.0316227766016838</speed>
  <fix>3d</fix>
</trkpt>
<trkpt lat="40.0713749" lon="-105.229789">
  <ele>1583.0</ele>
  <time>2026-08-28T17:49:49Z</time>
  <course>0.0</course>
  <speed>0.0</speed>
  <fix>3d</fix>
</trkpt>
<trkpt lat="40.0713749" lon="-105.229789">
  <ele>1583.0</ele>
  <time>2026-08-28T17:49:49Z</time>
  <course>247.62</course>
  <speed>0.0316227766016838</speed>
  <fix>3d</fix>
</trkpt>
<trkpt lat="40.0713749" lon="-105.229789">
  <ele>1583.0</ele>
  <time>2026-08-28T17:49:49Z</time>
  <course>0.0</course>
  <speed>0.0</speed>
  <fix>3d</fix>
</trkpt>
<trkpt lat="40.0713749" lon="-105.229789">
  <ele>1583.0</ele>
  <time>2026-08-28T17:49:49Z</time>
  <course>247.62</course>
  <speed>0.0316227766016838</speed>
  <fix>3d</fix>
</trkpt>
<trkpt lat="40.0713749" lon="-105.229789">
  <ele>1583.0</ele>
  <time>2026-08-28T17:49:49Z</time>
  <course>0.0</course>
  <speed>0.0</speed>
  <fix>3d</fix>
</trkpt>
<trkpt lat="40.0713749" lon="-105.229789">
  <ele>1583.0</ele>
  <time>2026-08-28T17:49:49Z</time>
  <course>247.62</course>
  <speed>0.0316227766016838</speed>
  <fix>3d</fix>
</trkpt>
<trkpt lat="40.0713749" lon="-105.229789">
  <ele>1583.0</ele>
  <time>2026-08-28T17:49:49Z</time>
  <course>0.0</course>
  <speed>0.0</speed>
  <fix>3d</fix>
</trkpt>
<trkpt lat="40.0713749" lon="-105.229789">
  <ele>1583.0</ele>
  <time>2026-08-28T17:49:49Z</time>
  <course>247.62</course>
  <speed>0.0316227766016838</speed>
  <fix>3d</fix>
</trkpt>
<trkpt lat="40.0713749" lon="-105.229789">
  <ele>1583.0</ele>
  <time>2026-08-28T17:49:49Z</time>
  <course>0.0</course>
  <speed>0.0</speed>
  <fix>3d</fix>
</trkpt>
<trkpt lat="40.0713749" lon="-105.229789">
  <ele>1583.0</ele>
  <time>2026-08-28T17:49:49Z</time>
  <course>247.61</course>
  <speed>0.0316227766016838</speed>
  <fix>3d</fix>
</trkpt>
<trkpt lat="40.0713749" lon="-105.229789">
  <ele>1583.0</ele>
  <time>2026-08-28T17:49:49Z</time>
  <course>0.0</course>
  <speed>0.0</speed>
  <fix>3d</fix>
</trkpt>
<trkpt lat="40.0713749" lon="-105.229789">
  <ele>1583.0</ele>
  <time>2026-08-28T17:49:49Z</time>
  <course>247.61</course>
  <speed>0.0316227766016838</speed>
  <fix>3d</fix>
</trkpt>
<trkpt lat="40.0713749" lon="-105.229789">
  <ele>1583.0</ele>
  <time>2026-08-28T17:49:49Z</time>
  <course>0.0</course>
  <speed>0.0</speed>
  <fix>3d</fix>
</trkpt>
<trkpt lat="40.0713749" lon="-105.229789">
  <ele>1583.0</ele>
  <time>2026-08-28T17:49:49Z</time>
  <course>247.61</course>
  <speed>0.0316227766016838</speed>
  <fix>3d</fix>
</trkpt>
<trkpt lat="40.0713749" lon="-105.229789">
  <ele>1583.0</ele>
  <time>2026-08-28T17:49:49Z</time>
  <course>0.0</course>
  <speed>0.0</speed>
  <fix>3d</fix>
</trkpt>
<trkpt lat="40.0713749" lon="-105.229789">
  <ele>1583.0</ele>
  <time>2026-08-28T17:49:49Z</time>
  <course>247.6</course>
  <speed>0.0316227766016838</speed>
  <fix>3d</fix>
</trkpt>
<trkpt lat="40.0713749" lon="-105.229789">
  <ele>1583.0</ele>
  <time>2026-08-28T17:49:49Z</time>
  <course>0.0</course>
  <speed>0.0</speed>
  <fix>3d</fix>
</trkpt>
<trkpt lat="40.0713749" lon="-105.229789">
  <ele>1583.0</ele>
  <time>2026-08-28T17:49:49Z</time>
  <course>247.6</course>
  <speed>0.0316227766016838</speed>
  <fix>3d</fix>
</trkpt>
<trkpt lat="40.0713749" lon="-105.229789">
  <ele>1583.0</ele>
  <time>2026-08-28T17:49:49Z</time>
  <course>0.0</course>
  <speed>0.0</speed>
  <fix>3d</fix>
</trkpt>
<trkpt lat="40.0713749" lon="-105.229789">
  <ele>1583.0</ele>
  <time>2026-08-28T17:49:49Z</time>
  <course>247.6</course>
  <speed>0.0316227766016838</speed>
  <fix>3d</fix>
</trkpt>
<trkpt lat="40.0713749" lon="-105.229789">
  <ele>1583.0</ele>
  <time>2026-08-28T17:49:49Z</time>
  <course>0.0</course>
  <speed>0.0</speed>
  <fix>3d</fix>
</trkpt>
<trkpt lat="40.0713749" lon="-105.229789">
  <ele>1583.0</ele>
  <time>2026-08-28T17:49:49Z</time>
  <course>247.6</course>
  <speed>0.0316227766016838</speed>
  <fix>3d</fix>
</trkpt>
<trkpt lat="40.0713749" lon="-105.229789">
  <ele>1583.0</ele>
  <time>2026-08-28T17:49:49Z</time>
  <course>0.0</course>
  <speed>0.0</speed>
  <fix>3d</fix>
</trkpt>
<trkpt lat="40.0713749" lon="-105.229789">
  <ele>1583.0</ele>
  <time>2026-08-28T17:49:49Z</time>
  <course>247.59</course>
  <speed>0.0316227766016838</speed>
  <fix>3d</fix>
</trkpt>
<trkpt lat="40.0713749" lon="-105.229789">
  <ele>1583.0</ele>
  <time>2026-08-28T17:49:49Z</time>
  <course>0.0</course>
  <speed>0.0</speed>
  <fix>3d</fix>
</trkpt>
<trkpt lat="40.0713749" lon="-105.229789">
  <ele>1582.92</ele>
  <time>2026-08-28T17:49:49Z</time>
  <course>247.59</course>
  <speed>0.0</speed>
  <fix>3d</fix>
</trkpt>
<trkpt lat="40.0713749" lon="-105.229789">
  <ele>1583.0</ele>
  <time>2026-08-28T17:49:49Z</time>
  <course>0.0</course>
  <speed>0.0</speed>
  <fix>3d</fix>
</trkpt>
<trkpt lat="40.0713749" lon="-105.229789">
  <ele>1582.92</ele>
  <time>2026-08-28T17:49:49Z</time>
  <course>247.59</course>
  <speed>0.0</speed>
  <fix>3d</fix>
</trkpt>
<trkpt lat="40.0713749" lon="-105.229789">
  <ele>1583.0</ele>
  <time>2026-08-28T17:49:49Z</time>
  <course>0.0</course>
  <speed>0.0</speed>
  <fix>3d</fix>
</trkpt>
<trkpt lat="40.0713749" lon="-105.229789">
  <ele>1582.91</ele>
  <time>2026-08-28T17:49:49Z</time>
  <course>247.58</course>
  <speed>0.0</speed>
  <fix>3d</fix>
</trkpt>
<trkpt lat="40.0713749" lon="-105.229789">
  <ele>1583.0</ele>
  <time>2026-08-28T17:49:49Z</time>
  <course>0.0</course>
  <speed>0.0</speed>
  <fix>3d</fix>
</trkpt>
<trkpt lat="40.0713749" lon="-105.229789">
  <ele>1582.91</ele>
  <time>2026-08-28T17:49:49Z</time>
  <course>247.58</course>
  <speed>0.0</speed>
  <fix>3d</fix>
</trkpt>
<trkpt lat="40.0713749" lon="-105.229789">
  <ele>1583.0</ele>
  <time>2026-08-28T17:49:49Z</time>
  <course>0.0</course>
  <speed>0.0</speed>
  <fix>3d</fix>
</trkpt>
<trkpt lat="40.0713749" lon="-105.229789">
  <ele>1582.9</ele>
  <time>2026-08-28T17:49:49Z</time>
  <course>247.58</course>
  <speed>0.0</speed>
  <fix>3d</fix>
</trkpt>
<trkpt lat="40.0713749" lon="-105.229789">
  <ele>1583.0</ele>
  <time>2026-08-28T17:49:49Z</time>
  <course>0.0</course>
  <speed>0.0</speed>
  <fix>3d</fix>
</trkpt>
<trkpt lat="40.0713749" lon="-105.229789">
  <ele>1582.9</ele>
  <time>2026-08-28T17:49:49Z</time>
  <course>247.58</course>
  <speed>0.0</speed>
  <fix>3d</fix>
</trkpt>
<trkpt lat="40.0713749" lon="-105.229789">
  <ele>1583.0</ele>
  <time>2026-08-28T17:49:49Z</time>
  <course>0.0</course>
  <speed>0.0</speed>
  <fix>3d</fix>
</trkpt>
<trkpt lat="40.0713749" lon="-105.229789">
  <ele>1582.9</ele>
  <time>2026-08-28T17:49:49Z</time>
  <course>247.57</course>
  <speed>0.0</speed>
  <fix>3d</fix>
</trkpt>
<trkpt lat="40.0713749" lon="-105.229789">
  <ele>1583.0</ele>
  <time>2026-08-28T17:49:49Z</time>
  <course>0.0</course>
  <speed>0.0</speed>
  <fix>3d</fix>
</trkpt>
<trkpt lat="40.0713749" lon="-105.229789">
  <ele>1582.9</ele>
  <time>2026-08-28T17:49:49Z</time>
  <course>247.57</course>
  <speed>0.0</speed>
  <fix>3d</fix>
</trkpt>
<trkpt lat="40.0713749" lon="-105.229789">
  <ele>1583.0</ele>
  <time>2026-08-28T17:49:49Z</time>
  <course>0.0</course>
  <speed>0.0</speed>
  <fix>3d</fix>
</trkpt>
<trkpt lat="40.0713749" lon="-105.229789">
  <ele>1582.9</ele>
  <time>2026-08-28T17:49:49Z</time>
  <course>247.57</course>
  <speed>0.0</speed>
  <fix>3d</fix>
</trkpt>
<trkpt lat="40.0713749" lon="-105.229789">
  <ele>1583.0</ele>
  <time>2026-08-28T17:49:49Z</time>
  <course>0.0</course>
  <speed>0.0</speed>
  <fix>3d</fix>
</trkpt>
<trkpt lat="40.0713749" lon="-105.229789">
  <ele>1582.9</ele>
  <time>2026-08-28T17:49:49Z</time>
  <course>247.57</course>
  <speed>0.01</speed>
  <fix>3d</fix>
</trkpt>
<trkpt lat="40.0713749" lon="-105.229789">
  <ele>1583.0</ele>
  <time>2026-08-28T17:49:49Z</time>
  <course>0.0</course>
  <speed>0.0</speed>
  <fix>3d</fix>
</trkpt>
<trkpt lat="40.0713749" lon="-105.229789">
  <ele>1582.9</ele>
  <time>2026-08-28T17:49:49Z</time>
  <course>247.56</course>
  <speed>0.01</speed>
  <fix>3d</fix>
</trkpt>
<trkpt lat="40.0713749" lon="-105.229789">
  <ele>1583.0</ele>
  <time>2026-08-28T17:49:49Z</time>
  <course>0.0</course>
  <speed>0.0</speed>
  <fix>3d</fix>
</trkpt>
<trkpt lat="40.0713749" lon="-105.229789">
  <ele>1582.91</ele>
  <time>2026-08-28T17:49:49Z</time>
  <course>247.56</course>
  <speed>0.01</speed>
  <fix>3d</fix>
</trkpt>
<trkpt lat="40.0713749" lon="-105.229789">
  <ele>1583.0</ele>
  <time>2026-08-28T17:49:49Z</time>
  <course>0.0</course>
  <speed>0.0</speed>
  <fix>3d</fix>
</trkpt>
<trkpt lat="40.0713749" lon="-105.229789">
  <ele>1582.91</ele>
  <time>2026-08-28T17:49:49Z</time>
  <course>247.56</course>
  <speed>0.01</speed>
  <fix>3d</fix>
</trkpt>
<trkpt lat="40.0713749" lon="-105.229789">
  <ele>1583.0</ele>
  <time>2026-08-28T17:49:49Z</time>
  <course>0.0</course>
  <speed>0.0</speed>
  <fix>3d</fix>
</trkpt>
<trkpt lat="40.0713749" lon="-105.229789">
  <ele>1582.92</ele>
  <time>2026-08-28T17:49:49Z</time>
  <course>247.56</course>
  <speed>0.01</speed>
  <fix>3d</fix>
</trkpt>
<trkpt lat="40.0713749" lon="-105.229789">
  <ele>1583.0</ele>
  <time>2026-08-28T17:49:49Z</time>
  <course>0.0</course>
  <speed>0.0</speed>
  <fix>3d</fix>
</trkpt>
<trkpt lat="40.0713749" lon="-105.229789">
  <ele>1582.92</ele>
  <time>2026-08-28T17:49:49Z</time>
  <course>247.55</course>
  <speed>0.01</speed>
  <fix>3d</fix>
</trkpt>
<trkpt lat="40.0713749" lon="-105.229789">
  <ele>1583.0</ele>
  <time>2026-08-28T17:49:49Z</time>
  <course>0.0</course>
  <speed>0.0</speed>
  <fix>3d</fix>
</trkpt>
<trkpt lat="40.0713749" lon="-105.229789">
  <ele>1582.92</ele>
  <time>2026-08-28T17:49:49Z</time>
  <course>247.55</course>
  <speed>0.01</speed>
  <fix>3d</fix>
</trkpt>
<trkpt lat="40.0713749" lon="-105.229789">
  <ele>1583.0</ele>
  <time>2026-08-28T17:49:49Z</time>
  <course>0.0</course>
  <speed>0.0</speed>
  <fix>3d</fix>
</trkpt>
<trkpt lat="40.0713749" lon="-105.229789">
  <ele>1582.93</ele>
  <time>2026-08-28T17:49:49Z</time>
  <course>247.55</course>
  <speed>0.01</speed>
  <fix>3d</fix>
</trkpt>
<trkpt lat="40.0713749" lon="-105.229789">
  <ele>1583.0</ele>
  <time>2026-08-28T17:49:49Z</time>
  <course>246.0</course>
  <speed>0.0</speed>
  <fix>3d</fix>
</trkpt>
<trkpt lat="40.0713749" lon="-105.229789">
  <ele>1582.93</ele>
  <time>2026-08-28T17:49:49Z</time>
  <course>247.55</course>
  <speed>0.01</speed>
  <fix>3d</fix>
</trkpt>
<trkpt lat="40.0713749" lon="-105.229789">
  <ele>1583.0</ele>
  <time>2026-08-28T17:49:49Z</time>
  <course>246.0</course>
  <speed>0.0</speed>
  <fix>3d</fix>
</trkpt>
<trkpt lat="40.0713749" lon="-105.229789">
  <ele>1582.93</ele>
  <time>2026-08-28T17:49:49Z</time>
  <course>247.55</course>
  <speed>0.01414213562373095</speed>
  <fix>3d</fix>
</trkpt>
<trkpt lat="40.0713749" lon="-105.229789">
  <ele>1583.0</ele>
  <time>2026-08-28T17:49:49Z</time>
  <course>246.0</course>
  <speed>0.0</speed>
  <fix>3d</fix>
</trkpt>
<trkpt lat="40.0713749" lon="-105.229789">
  <ele>1582.93</ele>
  <time>2026-08-28T17:49:49Z</time>
  <course>247.54</course>
  <speed>0.02</speed>
  <fix>3d</fix>
</trkpt>
<trkpt lat="40.0713749" lon="-105.229789">
  <ele>1583.0</ele>
  <time>2026-08-28T17:49:49Z</time>
  <course>246.0</course>
  <speed>0.0</speed>
  <fix>3d</fix>
</trkpt>
<trkpt lat="40.0713749" lon="-105.229789">
  <ele>1582.94</ele>
  <time>2026-08-28T17:49:49Z</time>
  <course>247.53</course>
  <speed>0.03</speed>
  <fix>3d</fix>
</trkpt>
<trkpt lat="40.0713749" lon="-105.229789">
  <ele>1583.0</ele>
  <time>2026-08-28T17:49:49Z</time>
  <course>245.99</course>
  <speed>0.02</speed>
  <fix>3d</fix>
</trkpt>
<trkpt lat="40.0713749" lon="-105.2297891">
  <ele>1582.94</ele>
  <time>2026-08-28T17:49:49Z</time>
  <course>247.52</course>
  <speed>0.05</speed>
  <fix>3d</fix>
</trkpt>
<trkpt lat="40.0713749" lon="-105.229789">
  <ele>1583.0</ele>
  <time>2026-08-28T17:49:49Z</time>
  <course>245.99</course>
  <speed>0.04</speed>
  <fix>3d</fix>
</trkpt>
<trkpt lat="40.0713749" lon="-105.2297892">
  <ele>1582.94</ele>
  <time>2026-08-28T17:49:49Z</time>
  <course>247.51</course>
  <speed>0.07071067811865475</speed>
  <fix>3d</fix>
</trkpt>
<trkpt lat="40.0713749" lon="-105.229789">
  <ele>1583.0</ele>
  <time>2026-08-28T17:49:49Z</time>
  <course>245.99</course>
  <speed>0.04</speed>
  <fix>3d</fix>
</trkpt>
<trkpt lat="40.0713749" lon="-105.2297893">
  <ele>1582.95</ele>
  <time>2026-08-28T17:49:49Z</time>
  <course>247.5</course>
  <speed>0.09219544457292887</speed>
  <fix>3d</fix>
</trkpt>
<trkpt lat="40.0713749" lon="-105.2297892">
  <ele>1583.0</ele>
  <time>2026-08-28T17:49:49Z</time>
  <course>245.97</course>
  <speed>0.08</speed>
  <fix>3d</fix>
</trkpt>
<trkpt lat="40.0713749" lon="-105.2297894">
  <ele>1582.95</ele>
  <time>2026-08-28T17:49:49Z</time>
  <course>247.48</course>
  <speed>0.12369316876852982</speed>
  <fix>3d</fix>
</trkpt>
<trkpt lat="40.0713749" lon="-105.2297892">
  <ele>1583.0</ele>
  <time>2026-08-28T17:49:49Z</time>
  <course>245.97</course>
  <speed>0.08</speed>
  <fix>3d</fix>
</trkpt>
<trkpt lat="40.0713748" lon="-105.2297896">
  <ele>1582.95</ele>
  <time>2026-08-28T17:49:49Z</time>
  <course>247.46</course>
  <speed>0.15524174696260024</speed>
  <fix>3d</fix>
</trkpt>
<trkpt lat="40.0713748" lon="-105.2297894">
  <ele>1583.0</ele>
  <time>2026-08-28T17:49:49Z</time>
  <course>245.94</course>
  <speed>0.14</speed>
  <fix>3d</fix>
</trkpt>
<trkpt lat="40.0713748" lon="-105.2297898">
  <ele>1582.96</ele>
  <time>2026-08-28T17:49:49Z</time>
  <course>247.44</course>
  <speed>0.18973665961010278</speed>
  <fix>3d</fix>
</trkpt>
<trkpt lat="40.0713748" lon="-105.2297894">
  <ele>1583.0</ele>
  <time>2026-08-28T17:49:49Z</time>
  <course>245.94</course>
  <speed>0.14</speed>
  <fix>3d</fix>
</trkpt>
<trkpt lat="40.0713747" lon="-105.22979">
  <ele>1582.96</ele>
  <time>2026-08-28T17:49:49Z</time>
  <course>247.41</course>
  <speed>0.2308679276123039</speed>
  <fix>3d</fix>
</trkpt>
<trkpt lat="40.0713747" lon="-105.2297898">
  <ele>1583.0</ele>
  <time>2026-08-28T17:49:49Z</time>
  <course>245.9</course>
  <speed>0.2</speed>
  <fix>3d</fix>
</trkpt>
<trkpt lat="40.0713746" lon="-105.2297903">
  <ele>1582.96</ele>
  <time>2026-08-28T17:49:49Z</time>
  <course>247.38</course>
  <speed>0.2751363298439521</speed>
  <fix>3d</fix>
</trkpt>
<trkpt lat="40.0713747" lon="-105.2297898">
  <ele>1583.0</ele>
  <time>2026-08-28T17:49:49Z</time>
  <course>245.9</course>
  <speed>0.2</speed>
  <fix>3d</fix>
</trkpt>
<trkpt lat="40.0713745" lon="-105.2297907">
  <ele>1582.96</ele>
  <time>2026-08-28T17:49:49Z</time>
  <course>247.35</course>
  <speed>0.3195309061734092</speed>
  <fix>3d</fix>
</trkpt>
<trkpt lat="40.0713746" lon="-105.2297903">
  <ele>1583.0</ele>
  <time>2026-08-28T17:49:49Z</time>
  <course>245.85</course>
  <speed>0.28</speed>
  <fix>3d</fix>
</trkpt>
<trkpt lat="40.0713743" lon="-105.2297911">
  <ele>1582.96</ele>
  <time>2026-08-28T17:49:49Z</time>
  <course>247.31</course>
  <speed>0.37336309405188944</speed>
  <fix>3d</fix>
</trkpt>
<trkpt lat="40.0713746" lon="-105.2297903">
  <ele>1583.0</ele>
  <time>2026-08-28T17:49:49Z</time>
  <course>245.85</course>
  <speed>0.28</speed>
  <fix>3d</fix>
</trkpt>
<trkpt lat="40.0713742" lon="-105.2297915">
  <ele>1582.96</ele>
  <time>2026-08-28T17:49:49Z</time>
  <course>247.28</course>
  <speed>0.42720018726587655</speed>
  <fix>3d</fix>
</trkpt>
<trkpt lat="40.0713743" lon="-105.2297911">
  <ele>1583.0</ele>
  <time>2026-08-28T17:49:49Z</time>
  <course>245.79</course>
  <speed>0.38</speed>
  <fix>3d</fix>
</trkpt>
<trkpt lat="40.071374" lon="-105.2297921">
  <ele>1582.96</ele>
  <time>2026-08-28T17:49:49Z</time>
  <course>247.25</course>
  <speed>0.4939635614091387</speed>
  <fix>3d</fix>
</trkpt>
<trkpt lat="40.0713743" lon="-105.2297911">
  <ele>1583.0</ele>
  <time>2026-08-28T17:49:49Z</time>
  <course>245.79</course>
  <speed>0.38</speed>
  <fix>3d</fix>
</trkpt>
<trkpt lat="40.0713738" lon="-105.2297927">
  <ele>1582.95</ele>
  <time>2026-08-28T17:49:49Z</time>
  <course>247.22</course>
  <speed>0.5571355310873648</speed>
  <fix>3d</fix>
</trkpt>
<trkpt lat="40.071374" lon="-105.229792">
  <ele>1583.0</ele>
  <time>2026-08-28T17:49:49Z</time>
  <course>245.74</course>
  <speed>0.49</speed>
  <fix>3d</fix>
</trkpt>
<trkpt lat="40.0713736" lon="-105.2297933">
  <ele>1582.95</ele>
  <time>2026-08-28T17:49:49Z</time>
  <course>247.2</course>
  <speed>0.6239390995922599</speed>
  <fix>3d</fix>
</trkpt>
<trkpt lat="40.071374" lon="-105.229792">
  <ele>1583.0</ele>
  <time>2026-08-28T17:49:49Z</time>
  <course>245.74</course>
  <speed>0.49</speed>
  <fix>3d</fix>
</trkpt>
<trkpt lat="40.0713734" lon="-105.2297941">
  <ele>1582.96</ele>
  <time>2026-08-28T17:49:49Z</time>
  <course>247.18</course>
  <speed>0.6907966415668217</speed>
  <fix>3d</fix>
</trkpt>
<trkpt lat="40.071374" lon="-105.229792">
  <ele>1583.0</ele>
  <time>2026-08-28T17:49:49Z</time>
  <course>245.74</course>
  <speed>0.49</speed>
  <fix>3d</fix>
</trkpt>
<trkpt lat="40.0713731" lon="-105.2297949">
  <ele>1582.95</ele>
  <time>2026-08-28T17:49:49Z</time>
  <course>247.16</course>
  <speed>0.7669419795525605</speed>
  <fix>3d</fix>
</trkpt>
<trkpt lat="40.0713735" lon="-105.2297932">
  <ele>1583.0</ele>
  <time>2026-08-28T17:49:49Z</time>
  <course>245.69</course>
  <speed>0.62</speed>
  <fix>3d</fix>
</trkpt>
<trkpt lat="40.0713728" lon="-105.2297958">
  <ele>1582.95</ele>
  <time>2026-08-28T17:49:49Z</time>
  <course>247.16</course>
  <speed>0.8430895563343196</speed>
  <fix>3d</fix>
</trkpt>
<trkpt lat="40.0713735" lon="-105.2297932">
  <ele>1583.0</ele>
  <time>2026-08-28T17:49:49Z</time>
  <course>245.69</course>
  <speed>0.62</speed>
  <fix>3d</fix>
</trkpt>
<trkpt lat="40.0713725" lon="-105.2297967">
  <ele>1582.95</ele>
  <time>2026-08-28T17:49:49Z</time>
  <course>247.15</course>
  <speed>0.9230926280715278</speed>
  <fix>3d</fix>
</trkpt>
<trkpt lat="40.071373" lon="-105.2297947">
  <ele>1583.0</ele>
  <time>2026-08-28T17:49:49Z</time>
  <course>245.67</course>
  <speed>0.77</speed>
  <fix>3d</fix>
</trkpt>
<trkpt lat="40.0713721" lon="-105.2297978">
  <ele>1582.95</ele>
  <time>2026-08-28T17:49:49Z</time>
  <course>247.16</course>
  <speed>1.0084641788382966</speed>
  <fix>3d</fix>
</trkpt>
<trkpt lat="40.071373" lon="-105.2297947">
  <ele>1583.0</ele>
  <time>2026-08-28T17:49:49Z</time>
  <course>245.67</course>
  <speed>0.77</speed>
  <fix>3d</fix>
</trkpt>
<trkpt lat="40.0713717" lon="-105.2297989">
  <ele>1582.95</ele>
  <time>2026-08-28T17:49:49Z</time>
  <course>247.17</course>
  <speed>1.0938464243210744</speed>
  <fix>3d</fix>
</trkpt>
<trkpt lat="40.0713724" lon="-105.2297965">
  <ele>1583.0</ele>
  <time>2026-08-28T17:49:49Z</time>
  <course>245.67</course>
  <speed>0.92</speed>
  <fix>3d</fix>
</trkpt>
<trkpt lat="40.0713713" lon="-105.2298002">
  <ele>1582.95</ele>
  <time>2026-08-28T17:49:49Z</time>
  <course>247.2</course>
  <speed>1.1830891766895681</speed>
  <fix>3d</fix>
</trkpt>
<trkpt lat="40.0713724" lon="-105.2297965">
  <ele>1583.0</ele>
  <time>2026-08-28T17:49:49Z</time>
  <course>245.67</course>
  <speed>0.92</speed>
  <fix>3d</fix>
</trkpt>
<trkpt lat="40.0713708" lon="-105.2298015">
  <ele>1582.95</ele>
  <time>2026-08-28T17:49:49Z</time>
  <course>247.23</course>
  <speed>1.2684636376341263</speed>
  <fix>3d</fix>
</trkpt>
<trkpt lat="40.0713717" lon="-105.2297986">
  <ele>1583.0</ele>
  <time>2026-08-28T17:49:49Z</time>
  <course>245.7</course>
  <speed>1.08</speed>
  <fix>3d</fix>
</trkpt>
<trkpt lat="40.0713704" lon="-105.2298029">
  <ele>1582.96</ele>
  <time>2026-08-28T17:49:49Z</time>
  <course>247.26</course>
  <speed>1.3577186748365804</speed>
  <fix>3d</fix>
</trkpt>
<trkpt lat="40.0713708" lon="-105.2298012">
  <ele>1583.0</ele>
  <time>2026-08-28T17:49:49Z</time>
  <course>245.76</course>
  <speed>1.26</speed>
  <fix>3d</fix>
</trkpt>
<trkpt lat="40.0713698" lon="-105.2298044">
  <ele>1582.96</ele>
  <time>2026-08-28T17:49:49Z</time>
  <course>247.29</course>
  <speed>1.456193668438371</speed>
  <fix>3d</fix>
</trkpt>
<trkpt lat="40.0713708" lon="-105.2298012">
  <ele>1583.0</ele>
  <time>2026-08-28T17:49:49Z</time>
  <course>245.76</course>
  <speed>1.26</speed>
  <fix>3d</fix>
</trkpt>
<trkpt lat="40.0713693" lon="-105.229806">
  <ele>1582.97</ele>
  <time>2026-08-28T17:49:49Z</time>
  <course>247.32</course>
  <speed>1.5415576538034508</speed>
  <fix>3d</fix>
</trkpt>
<trkpt lat="40.0713698" lon="-105.2298041">
  <ele>1583.0</ele>
  <time>2026-08-28T17:49:49Z</time>
  <course>245.83</course>
  <speed>1.44</speed>
  <fix>3d</fix>
</trkpt>
<trkpt lat="40.0713687" lon="-105.2298078">
  <ele>1582.97</ele>
  <time>2026-08-28T17:49:49Z</time>
  <course>247.35</course>
  <speed>1.6400304875214973</speed>
  <fix>3d</fix>
</trkpt>
<trkpt lat="40.0713698" lon="-105.2298041">
  <ele>1583.0</ele>
  <time>2026-08-28T17:49:49Z</time>
  <course>245.83</course>
  <speed>1.44</speed>
  <fix>3d</fix>
</trkpt>
<trkpt lat="40.0713681" lon="-105.2298096">
  <ele>1582.98</ele>
  <time>2026-08-28T17:49:49Z</time>
  <course>247.37</course>
  <speed>1.7385051049680584</speed>
  <fix>3d</fix>
</trkpt>
<trkpt lat="40.0713687" lon="-105.2298074">
  <ele>1583.0</ele>
  <time>2026-08-28T17:49:49Z</time>
  <course>245.89</course>
  <speed>1.62</speed>
  <fix>3d</fix>
</trkpt>
<trkpt lat="40.0713674" lon="-105.2298116">
  <ele>1582.98</ele>
  <time>2026-08-28T17:49:49Z</time>
  <course>247.4</course>
  <speed>1.8369812192834198</speed>
  <fix>3d</fix>
</trkpt>
<trkpt lat="40.0713687" lon="-105.2298074">
  <ele>1583.0</ele>
  <time>2026-08-28T17:49:49Z</time>
  <course>245.89</course>
  <speed>1.62</speed>
  <fix>3d</fix>
</trkpt>
<trkpt lat="40.0713667" lon="-105.2298137">
  <ele>1582.98</ele>
  <time>2026-08-28T17:49:49Z</time>
  <course>247.42</course>
  <speed>1.9354586019855862</speed>
  <fix>3d</fix>
</trkpt>
<trkpt lat="40.0713674" lon="-105.229811">
  <ele>1583.0</ele>
  <time>2026-08-28T17:49:49Z</time>
  <course>245.95</course>
  <speed>1.81</speed>
  <fix>3d</fix>
</trkpt>
<trkpt lat="40.071366" lon="-105.2298158">
  <ele>1582.98</ele>
  <time>2026-08-28T17:49:49Z</time>
  <course>247.44</course>
  <speed>2.033937068839643</speed>
  <fix>3d</fix>
</trkpt>
<trkpt lat="40.0713674" lon="-105.229811">
  <ele>1583.0</ele>
  <time>2026-08-28T17:49:49Z</time>
  <course>245.95</course>
  <speed>1.81</speed>
  <fix>3d</fix>
</trkpt>
<trkpt lat="40.0713652" lon="-105.2298181">
  <ele>1582.98</ele>
  <time>2026-08-28T17:49:49Z</time>
  <course>247.46</course>
  <speed>2.1324164696418944</speed>
  <fix>3d</fix>
</trkpt>
<trkpt lat="40.071366" lon="-105.2298151">
  <ele>1583.0</ele>
  <time>2026-08-28T17:49:49Z</time>
  <course>246.01</course>
  <speed>2.01</speed>
  <fix>3d</fix>
</trkpt>
<trkpt lat="40.0713644" lon="-105.2298205">
  <ele>1582.98</ele>
  <time>2026-08-28T17:49:49Z</time>
  <course>247.48</course>
  <speed>2.230896680709351</speed>
  <fix>3d</fix>
</trkpt>
<trkpt lat="40.071366" lon="-105.2298151">
  <ele>1583.0</ele>
  <time>2026-08-28T17:49:49Z</time>
  <course>246.01</course>
  <speed>2.01</speed>
  <fix>3d</fix>
</trkpt>
<trkpt lat="40.0713635" lon="-105.229823">
  <ele>1582.98</ele>
  <time>2026-08-28T17:49:49Z</time>
  <course>247.5</course>
  <speed>2.325446193744332</speed>
  <fix>3d</fix>
</trkpt>
<trkpt lat="40.0713645" lon="-105.2298197">
  <ele>1583.0</ele>
  <time>2026-08-28T17:49:49Z</time>
  <course>246.07</course>
  <speed>2.2</speed>
  <fix>3d</fix>
</trkpt>
<trkpt lat="40.0713627" lon="-105.2298255">
  <ele>1582.98</ele>
  <time>2026-08-28T17:49:49Z</time>
  <course>247.53</course>
  <speed>2.4331255619059204</speed>
  <fix>3d</fix>
</trkpt>
<trkpt lat="40.0713645" lon="-105.2298197">
  <ele>1583.0</ele>
  <time>2026-08-28T17:49:49Z</time>
  <course>246.07</course>
  <speed>2.2</speed>
  <fix>3d</fix>
</trkpt>
<trkpt lat="40.0713618" lon="-105.2298282">
  <ele>1582.98</ele>
  <time>2026-08-28T17:49:49Z</time>
  <course>247.56</course>
  <speed>2.531600284405103</speed>
  <fix>3d</fix>
</trkpt>
<trkpt lat="40.0713628" lon="-105.2298246">
  <ele>1583.0</ele>
  <time>2026-08-28T17:49:49Z</time>
  <course>246.13</course>
  <speed>2.4</speed>
  <fix>3d</fix>
</trkpt>
<trkpt lat="40.0713608" lon="-105.229831">
  <ele>1582.98</ele>
  <time>2026-08-28T17:49:49Z</time>
  <course>247.58</course>
  <speed>2.6300760445279905</speed>
  <fix>3d</fix>
</trkpt>
<trkpt lat="40.0713628" lon="-105.2298246">
  <ele>1583.0</ele>
  <time>2026-08-28T17:49:49Z</time>
  <course>246.13</course>
  <speed>2.4</speed>
  <fix>3d</fix>
</trkpt>
<trkpt lat="40.0713599" lon="-105.2298339">
  <ele>1582.98</ele>
  <time>2026-08-28T17:49:49Z</time>
  <course>247.61</course>
  <speed>2.7285527299284507</speed>
  <fix>3d</fix>
</trkpt>
<trkpt lat="40.0713628" lon="-105.2298246">
  <ele>1583.0</ele>
  <time>2026-08-28T17:49:49Z</time>
  <course>246.13</course>
  <speed>2.4</speed>
  <fix>3d</fix>
</trkpt>
<trkpt lat="40.0713589" lon="-105.2298369">
  <ele>1582.98</ele>
  <time>2026-08-28T17:49:49Z</time>
  <course>247.64</course>
  <speed>2.8270302439132124</speed>
  <fix>3d</fix>
</trkpt>
<trkpt lat="40.0713609" lon="-105.22983">
  <ele>1583.0</ele>
  <time>2026-08-28T17:49:49Z</time>
  <course>246.2</course>
  <speed>2.59</speed>
  <fix>3d</fix>
</trkpt>
<trkpt lat="40.0713578" lon="-105.22984">
  <ele>1582.99</ele>
  <time>2026-08-28T17:49:49Z</time>
  <course>247.68</course>
  <speed>2.921592031752551</speed>
  <fix>3d</fix>
</trkpt>
<trkpt lat="40.0713609" lon="-105.22983">
  <ele>1583.0</ele>
  <time>2026-08-28T17:49:49Z</time>
  <course>246.2</course>
  <speed>2.59</speed>
  <fix>3d</fix>
</trkpt>
<trkpt lat="40.0713568" lon="-105.2298431">
  <ele>1582.99</ele>
  <time>2026-08-28T17:49:49Z</time>
  <course>247.71</course>
  <speed>3.020066224439457</speed>
  <fix>3d</fix>
</trkpt>
<trkpt lat="40.071359" lon="-105.2298358">
  <ele>1583.0</ele>
  <time>2026-08-28T17:49:49Z</time>
  <course>246.27</course>
  <speed>2.79</speed>
  <fix>3d</fix>
</trkpt>
<trkpt lat="40.0713557" lon="-105.2298464">
  <ele>1582.98</ele>
  <time>2026-08-28T17:49:49Z</time>
  <course>247.74</course>
  <speed>3.118541325684173</speed>
  <fix>3d</fix>
</trkpt>
<trkpt lat="40.071359" lon="-105.2298358">
  <ele>1583.0</ele>
  <time>2026-08-28T17:49:49Z</time>
  <course>246.27</course>
  <speed>2.79</speed>
  <fix>3d</fix>
</trkpt>
<trkpt lat="40.0713545" lon="-105.2298498">
  <ele>1582.98</ele>
  <time>2026-08-28T17:49:49Z</time>
  <course>247.78</course>
  <speed>3.2170172520519684</speed>
  <fix>3d</fix>
</trkpt>
<trkpt lat="40.0713569" lon="-105.229842">
  <ele>1583.0</ele>
  <time>2026-08-28T17:49:49Z</time>
  <course>246.35</course>
  <speed>2.99</speed>
  <fix>3d</fix>
</trkpt>
<trkpt lat="40.0713534" lon="-105.2298533">
  <ele>1582.98</ele>
  <time>2026-08-28T17:49:49Z</time>
  <course>247.8</course>
  <speed>3.3115857228826195</speed>
  <fix>3d</fix>
</trkpt>
<trkpt lat="40.0713547" lon="-105.2298487">
  <ele>1583.0</ele>
  <time>2026-08-28T17:49:49Z</time>
  <course>246.43</course>
  <speed>3.19</speed>
  <fix>3d</fix>
</trkpt>
<trkpt lat="40.0713522" lon="-105.2298569">
  <ele>1582.98</ele>
  <time>2026-08-28T17:49:49Z</time>
  <course>247.82</course>
  <speed>3.419268927709548</speed>
  <fix>3d</fix>
</trkpt>
<trkpt lat="40.0713547" lon="-105.2298487">
  <ele>1583.0</ele>
  <time>2026-08-28T17:49:49Z</time>
  <course>246.43</course>
  <speed>3.19</speed>
  <fix>3d</fix>
</trkpt>
<trkpt lat="40.0713509" lon="-105.2298607">
  <ele>1582.98</ele>
  <time>2026-08-28T17:49:49Z</time>
  <course>247.84</course>
  <speed>3.5177407522442583</speed>
  <fix>3d</fix>
</trkpt>
<trkpt lat="40.0713523" lon="-105.2298558">
  <ele>1583.0</ele>
  <time>2026-08-28T17:49:49Z</time>
  <course>246.49</course>
  <speed>3.39</speed>
  <fix>3d</fix>
</trkpt>
<trkpt lat="40.0713496" lon="-105.2298645">
  <ele>1582.98</ele>
  <time>2026-08-28T17:49:49Z</time>
  <course>247.85</course>
  <speed>3.625424113121112</speed>
  <fix>3d</fix>
</trkpt>
<trkpt lat="40.0713523" lon="-105.2298558">
  <ele>1583.0</ele>
  <time>2026-08-28T17:49:49Z</time>
  <course>246.49</course>
  <speed>3.39</speed>
  <fix>3d</fix>
</trkpt>
<trkpt lat="40.0713483" lon="-105.2298685">
  <ele>1582.99</ele>
  <time>2026-08-28T17:49:49Z</time>
  <course>247.86</course>
  <speed>3.7238958094984342</speed>
  <fix>3d</fix>
</trkpt>
<trkpt lat="40.0713499" lon="-105.2298633">
  <ele>1583.0</ele>
  <time>2026-08-28T17:49:49Z</time>
  <course>246.53</course>
  <speed>3.59</speed>
  <fix>3d</fix>
</trkpt>
<trkpt lat="40.071347" lon="-105.2298726">
  <ele>1582.99</ele>
  <time>2026-08-28T17:49:49Z</time>
  <course>247.87</course>
  <speed>3.8223683757586735</speed>
  <fix>3d</fix>
</trkpt>
<trkpt lat="40.0713499" lon="-105.2298633">
  <ele>1583.0</ele>
  <time>2026-08-28T17:49:49Z</time>
  <course>246.53</course>
  <speed>3.59</speed>
  <fix>3d</fix>
</trkpt>
<trkpt lat="40.0713456" lon="-105.2298768">
  <ele>1583.0</ele>
  <time>2026-08-28T17:49:49Z</time>
  <course>247.88</course>
  <speed>3.9300508902557483</speed>
  <fix>3d</fix>
</trkpt>
<trkpt lat="40.0713472" lon="-105.2298713">
  <ele>1583.0</ele>
  <time>2026-08-28T17:49:49Z</time>
  <course>246.56</course>
  <speed>3.8</speed>
  <fix>3d</fix>
</trkpt>
<trkpt lat="40.0713441" lon="-105.2298812">
  <ele>1583.0</ele>
  <time>2026-08-28T17:49:49Z</time>
  <course>247.88</course>
  <speed>4.028523302650737</speed>
  <fix>3d</fix>
</trkpt>
<trkpt lat="40.0713472" lon="-105.2298713">
  <ele>1583.0</ele>
  <time>2026-08-28T17:49:49Z</time>
  <course>246.56</course>
  <speed>3.8</speed>
  <fix>3d</fix>
</trkpt>
<trkpt lat="40.0713427" lon="-105.2298856">
  <ele>1583.0</ele>
  <time>2026-08-28T17:49:49Z</time>
  <course>247.89</course>
  <speed>4.126996486550479</speed>
  <fix>3d</fix>
</trkpt>
<trkpt lat="40.0713444" lon="-105.2298797">
  <ele>1583.0</ele>
  <time>2026-08-28T17:49:49Z</time>
  <course>246.6</course>
  <speed>3.99</speed>
  <fix>3d</fix>
</trkpt>
<trkpt lat="40.0713412" lon="-105.2298901">
  <ele>1583.0</ele>
  <time>2026-08-28T17:49:49Z</time>
  <course>247.91</course>
  <speed>4.221575535271162</speed>
  <fix>3d</fix>
</trkpt>
<trkpt lat="40.0713444" lon="-105.2298797">
  <ele>1583.0</ele>
  <time>2026-08-28T17:49:49Z</time>
  <course>246.6</course>
  <speed>3.99</speed>
  <fix>3d</fix>
</trkpt>
<trkpt lat="40.0713397" lon="-105.2298948">
  <ele>1583.01</ele>
  <time>2026-08-28T17:49:49Z</time>
  <course>247.94</course>
  <speed>4.320046296048226</speed>
  <fix>3d</fix>
</trkpt>
<trkpt lat="40.0713415" lon="-105.2298885">
  <ele>1583.0</ele>
  <time>2026-08-28T17:49:49Z</time>
  <course>246.64</course>
  <speed>4.19</speed>
  <fix>3d</fix>
</trkpt>
<trkpt lat="40.0713381" lon="-105.2298995">
  <ele>1583.01</ele>
  <time>2026-08-28T17:49:49Z</time>
  <course>247.94</course>
  <speed>4.396202907055133</speed>
  <fix>3d</fix>
</trkpt>
<trkpt lat="40.0713415" lon="-105.2298885">
  <ele>1583.0</ele>
  <time>2026-08-28T17:49:49Z</time>
  <course>246.64</course>
  <speed>4.19</speed>
  <fix>3d</fix>
</trkpt>
<trkpt lat="40.0713365" lon="-105.2299043">
  <ele>1583.01</ele>
  <time>2026-08-28T17:49:49Z</time>
  <course>247.96</course>
  <speed>4.4815733844265</speed>
  <fix>3d</fix>
</trkpt>
<trkpt lat="40.0713384" lon="-105.2298978">
  <ele>1583.0</ele>
  <time>2026-08-28T17:49:49Z</time>
  <course>246.68</course>
  <speed>4.36</speed>
  <fix>3d</fix>
</trkpt>
<trkpt lat="40.0713349" lon="-105.2299092">
  <ele>1583.01</ele>
  <time>2026-08-28T17:49:49Z</time>
  <course>248.0</course>
  <speed>4.544634198700705</speed>
  <fix>3d</fix>
</trkpt>
<trkpt lat="40.0713384" lon="-105.2298978">
  <ele>1583.0</ele>
  <time>2026-08-28T17:49:49Z</time>
  <course>246.68</course>
  <speed>4.36</speed>
  <fix>3d</fix>
</trkpt>
<trkpt lat="40.0713333" lon="-105.2299142">
  <ele>1583.01</ele>
  <time>2026-08-28T17:49:49Z</time>
  <course>248.02</course>
  <speed>4.602358091239751</speed>
  <fix>3d</fix>
</trkpt>
<trkpt lat="40.0713384" lon="-105.2298978">
  <ele>1583.0</ele>
  <time>2026-08-28T17:49:49Z</time>
  <course>246.68</course>
  <speed>4.36</speed>
  <fix>3d</fix>
</trkpt>
<trkpt lat="40.0713316" lon="-105.2299191">
  <ele>1583.01</ele>
  <time>2026-08-28T17:49:49Z</time>
  <course>248.05</course>
  <speed>4.652322000893747</speed>
  <fix>3d</fix>
</trkpt>
<trkpt lat="40.0713353" lon="-105.2299073">
  <ele>1583.0</ele>
  <time>2026-08-28T17:49:49Z</time>
  <course>246.74</course>
  <speed>4.5</speed>
  <fix>3d</fix>
</trkpt>
<trkpt lat="40.07133" lon="-105.2299241">
  <ele>1583.01</ele>
  <time>2026-08-28T17:49:49Z</time>
  <course>248.09</course>
  <speed>4.6838552496848145</speed>
  <fix>3d</fix>
</trkpt>
<trkpt lat="40.0713353" lon="-105.2299073">
  <ele>1583.0</ele>
  <time>2026-08-28T17:49:49Z</time>
  <course>246.74</course>
  <speed>4.5</speed>
  <fix>3d</fix>
</trkpt>
<trkpt lat="40.0713284" lon="-105.2299291">
  <ele>1583.01</ele>
  <time>2026-08-28T17:49:49Z</time>
  <course>248.11</course>
  <speed>4.706166167912051</speed>
  <fix>3d</fix>
</trkpt>
<trkpt lat="40.071332" lon="-105.2299171">
  <ele>1583.0</ele>
  <time>2026-08-28T17:49:49Z</time>
  <course>246.81</course>
  <speed>4.61</speed>
  <fix>3d</fix>
</trkpt>
<trkpt lat="40.0713267" lon="-105.2299342">
  <ele>1583.01</ele>
  <time>2026-08-28T17:49:49Z</time>
  <course>248.17</course>
  <speed>4.715389697575376</speed>
  <fix>3d</fix>
</trkpt>
<trkpt lat="40.071332" lon="-105.2299171">
  <ele>1583.0</ele>
  <time>2026-08-28T17:49:49Z</time>
  <course>246.81</course>
  <speed>4.61</speed>
  <fix>3d</fix>
</trkpt>
<trkpt lat="40.0713251" lon="-105.2299392">
  <ele>1583.01</ele>
  <time>2026-08-28T17:49:49Z</time>
  <course>248.2</course>
  <speed>4.715389697575376</speed>
  <fix>3d</fix>
</trkpt>
<trkpt lat="40.0713287" lon="-105.2299272">
  <ele>1583.0</ele>
  <time>2026-08-28T17:49:49Z</time>
  <course>246.89</course>
  <speed>4.67</speed>
  <fix>3d</fix>
</trkpt>
<trkpt lat="40.0713234" lon="-105.2299442">
  <ele>1583.02</ele>
  <time>2026-08-28T17:49:49Z</time>
  <course>248.26</course>
  <speed>4.715389697575376</speed>
  <fix>3d</fix>
</trkpt>
<trkpt lat="40.0713287" lon="-105.2299272">
  <ele>1583.0</ele>
  <time>2026-08-28T17:49:49Z</time>
  <course>246.89</course>
  <speed>4.67</speed>
  <fix>3d</fix>
</trkpt>
<trkpt lat="40.0713218" lon="-105.2299493">
  <ele>1583.02</ele>
  <time>2026-08-28T17:49:49Z</time>
  <course>248.31</course>
  <speed>4.693080012102926</speed>
  <fix>3d</fix>
</trkpt>
<trkpt lat="40.0713254" lon="-105.2299374">
  <ele>1583.0</ele>
  <time>2026-08-28T17:49:49Z</time>
  <course>246.99</course>
  <speed>4.69</speed>
  <fix>3d</fix>
</trkpt>
<trkpt lat="40.0713202" lon="-105.2299543">
  <ele>1583.02</ele>
  <time>2026-08-28T17:49:49Z</time>
  <course>248.37</course>
  <speed>4.65769256177348</speed>
  <fix>3d</fix>
</trkpt>
<trkpt lat="40.0713222" lon="-105.2299475">
  <ele>1583.0</ele>
  <time>2026-08-28T17:49:49Z</time>
  <course>247.09</course>
  <speed>4.67</speed>
  <fix>3d</fix>
</trkpt>
<trkpt lat="40.0713186" lon="-105.2299593">
  <ele>1583.01</ele>
  <time>2026-08-28T17:49:49Z</time>
  <course>248.44</course>
  <speed>4.613079231923076</speed>
  <fix>3d</fix>
</trkpt>
<trkpt lat="40.0713222" lon="-105.2299475">
  <ele>1583.0</ele>
  <time>2026-08-28T17:49:49Z</time>
  <course>247.09</course>
  <speed>4.67</speed>
  <fix>3d</fix>
</trkpt>
<trkpt lat="40.071317" lon="-105.2299642">
  <ele>1583.01</ele>
  <time>2026-08-28T17:49:49Z</time>
  <course>248.5</course>
  <speed>4.559232391532592</speed>
  <fix>3d</fix>
</trkpt>
<trkpt lat="40.071319" lon="-105.2299575">
  <ele>1583.0</ele>
  <time>2026-08-28T17:49:49Z</time>
  <course>247.21</course>
  <speed>4.6</speed>
  <fix>3d</fix>
</trkpt>
<trkpt lat="40.0713154" lon="-105.2299691">
  <ele>1583.01</ele>
  <time>2026-08-28T17:49:49Z</time>
  <course>248.56</course>
  <speed>4.4923156612152715</speed>
  <fix>3d</fix>
</trkpt>
<trkpt lat="40.071319" lon="-105.2299575">
  <ele>1583.0</ele>
  <time>2026-08-28T17:49:49Z</time>
  <course>247.21</course>
  <speed>4.6</speed>
  <fix>3d</fix>
</trkpt>
<trkpt lat="40.0713139" lon="-105.2299739">
  <ele>1583.01</ele>
  <time>2026-08-28T17:49:49Z</time>
  <course>248.62</course>
  <speed>4.416163493350308</speed>
  <fix>3d</fix>
</trkpt>
<trkpt lat="40.0713158" lon="-105.2299674">
  <ele>1583.0</ele>
  <time>2026-08-28T17:49:49Z</time>
  <course>247.34</course>
  <speed>4.48</speed>
  <fix>3d</fix>
</trkpt>
<trkpt lat="40.0713124" lon="-105.2299786">
  <ele>1583.01</ele>
  <time>2026-08-28T17:49:49Z</time>
  <course>248.68</course>
  <speed>4.317707725170846</speed>
  <fix>3d</fix>
</trkpt>
<trkpt lat="40.0713158" lon="-105.2299674">
  <ele>1583.0</ele>
  <time>2026-08-28T17:49:49Z</time>
  <course>247.34</course>
  <speed>4.48</speed>
  <fix>3d</fix>
</trkpt>
<trkpt lat="40.0713109" lon="-105.2299833">
  <ele>1583.01</ele>
  <time>2026-08-28T17:49:49Z</time>
  <course>248.74</course>
  <speed>4.210011876467808</speed>
  <fix>3d</fix>
</trkpt>
<trkpt lat="40.0713128" lon="-105.2299769">
  <ele>1583.0</ele>
  <time>2026-08-28T17:49:49Z</time>
  <course>247.46</course>
  <speed>4.31</speed>
  <fix>3d</fix>
</trkpt>
<trkpt lat="40.0713094" lon="-105.2299878">
  <ele>1583.01</ele>
  <time>2026-08-28T17:49:49Z</time>
  <course>248.8</course>
  <speed>4.098499725509324</speed>
  <fix>3d</fix>
</trkpt>
<trkpt lat="40.0713128" lon="-105.2299769">
  <ele>1583.0</ele>
  <time>2026-08-28T17:49:49Z</time>
  <course>247.46</course>
  <speed>4.31</speed>
  <fix>3d</fix>
</trkpt>
<trkpt lat="40.071308" lon="-105.2299922">
  <ele>1583.01</ele>
  <time>2026-08-28T17:49:49Z</time>
  <course>248.86</course>
  <speed>3.977750620639761</speed>
  <fix>3d</fix>
</trkpt>
<trkpt lat="40.0713099" lon="-105.2299861">
  <ele>1583.0</ele>
  <time>2026-08-28T17:49:49Z</time>
  <course>247.57</course>
  <speed>4.1</speed>
  <fix>3d</fix>
</trkpt>
<trkpt lat="40.0713067" lon="-105.2299964">
  <ele>1583.02</ele>
  <time>2026-08-28T17:49:49Z</time>
  <course>248.91</course>
  <speed>3.8477525907989456</speed>
  <fix>3d</fix>
</trkpt>
<trkpt lat="40.0713099" lon="-105.2299861">
  <ele>1583.0</ele>
  <time>2026-08-28T17:49:49Z</time>
  <course>247.57</course>
  <speed>4.1</speed>
  <fix>3d</fix>
</trkpt>
<trkpt lat="40.0713054" lon="-105.2300005">
  <ele>1583.02</ele>
  <time>2026-08-28T17:49:49Z</time>
  <course>249.01</course>
  <speed>3.708503741402993</speed>
  <fix>3d</fix>
</trkpt>
<trkpt lat="40.0713071" lon="-105.2299947">
  <ele>1583.0</ele>
  <time>2026-08-28T17:49:49Z</time>
  <course>247.7</course>
  <speed>3.86</speed>
  <fix>3d</fix>
</trkpt>
<trkpt lat="40.0713042" lon="-105.2300044">
  <ele>1583.02</ele>
  <time>2026-08-28T17:49:49Z</time>
  <course>249.08</course>
  <speed>3.5692576258936537</speed>
  <fix>3d</fix>
</trkpt>
<trkpt lat="40.0713071" lon="-105.2299947">
  <ele>1583.0</ele>
  <time>2026-08-28T17:49:49Z</time>
  <course>247.7</course>
  <speed>3.86</speed>
  <fix>3d</fix>
</trkpt>
<trkpt lat="40.071303" lon="-105.2300082">
  <ele>1583.02</ele>
  <time>2026-08-28T17:49:49Z</time>
  <course>249.07</course>
  <speed>3.430014577228499</speed>
  <fix>3d</fix>
</trkpt>
<trkpt lat="40.0713046" lon="-105.2300028">
  <ele>1583.0</ele>
  <time>2026-08-28T17:49:49Z</time>
  <course>247.8</course>
  <speed>3.59</speed>
  <fix>3d</fix>
</trkpt>
<trkpt lat="40.0713018" lon="-105.2300118">
  <ele>1583.02</ele>
  <time>2026-08-28T17:49:49Z</time>
  <course>248.9</course>
  <speed>3.290774984711048</speed>
  <fix>3d</fix>
</trkpt>
<trkpt lat="40.0713046" lon="-105.2300028">
  <ele>1583.0</ele>
  <time>2026-08-28T17:49:49Z</time>
  <course>247.8</course>
  <speed>3.59</speed>
  <fix>3d</fix>
</trkpt>
<trkpt lat="40.0713007" lon="-105.2300153">
  <ele>1583.02</ele>
  <time>2026-08-28T17:49:49Z</time>
  <course>248.55</course>
  <speed>3.140859754907882</speed>
  <fix>3d</fix>
</trkpt>
<trkpt lat="40.0713046" lon="-105.2300028">
  <ele>1583.0</ele>
  <time>2026-08-28T17:49:49Z</time>
  <course>247.8</course>
  <speed>3.59</speed>
  <fix>3d</fix>
</trkpt>
<trkpt lat="40.0712996" lon="-105.2300186">
  <ele>1583.02</ele>
  <time>2026-08-28T17:49:49Z</time>
  <course>247.98</course>
  <speed>3.0004166377354995</speed>
  <fix>3d</fix>
</trkpt>
<trkpt lat="40.0713022" lon="-105.2300104">
  <ele>1583.0</ele>
  <time>2026-08-28T17:49:49Z</time>
  <course>247.58</course>
  <speed>3.31</speed>
  <fix>3d</fix>
</trkpt>
<trkpt lat="40.0712986" lon="-105.2300217">
  <ele>1583.02</ele>
  <time>2026-08-28T17:49:49Z</time>
  <course>247.19</course>
  <speed>2.859388046418324</speed>
  <fix>3d</fix>
</trkpt>
<trkpt lat="40.0713022" lon="-105.2300104">
  <ele>1583.0</ele>
  <time>2026-08-28T17:49:49Z</time>
  <course>247.58</course>
  <speed>3.31</speed>
  <fix>3d</fix>
</trkpt>
<trkpt lat="40.0712975" lon="-105.2300246">
  <ele>1583.02</ele>
  <time>2026-08-28T17:49:49Z</time>
  <course>246.16</course>
  <speed>2.728369476445593</speed>
  <fix>3d</fix>
</trkpt>
<trkpt lat="40.0713" lon="-105.2300172">
  <ele>1583.0</ele>
  <time>2026-08-28T17:49:49Z</time>
  <course>246.65</course>
  <speed>3.03</speed>
  <fix>3d</fix>
</trkpt>
<trkpt lat="40.0712965" lon="-105.2300274">
  <ele>1583.02</ele>
  <time>2026-08-28T17:49:49Z</time>
  <course>244.89</course>
  <speed>2.6028445977430152</speed>
  <fix>3d</fix>
</trkpt>
<trkpt lat="40.0713" lon="-105.2300172">
  <ele>1583.0</ele>
  <time>2026-08-28T17:49:49Z</time>
  <course>246.65</course>
  <speed>3.03</speed>
  <fix>3d</fix>
</trkpt>
<trkpt lat="40.0712954" lon="-105.23003">
  <ele>1583.02</ele>
  <time>2026-08-28T17:49:49Z</time>
  <course>243.35</course>
  <speed>2.483646512690564</speed>
  <fix>3d</fix>
</trkpt>
<trkpt lat="40.0712979" lon="-105.2300234">
  <ele>1583.0</ele>
  <time>2026-08-28T17:49:49Z</time>
  <course>244.84</course>
  <speed>2.77</speed>
  <fix>3d</fix>
</trkpt>
<trkpt lat="40.0712943" lon="-105.2300324">
  <ele>1583.02</ele>
  <time>2026-08-28T17:49:49Z</time>
  <course>241.53</course>
  <speed>2.3667699507979223</speed>
  <fix>3d</fix>
</trkpt>
<trkpt lat="40.0712958" lon="-105.230029">
  <ele>1583.0</ele>
  <time>2026-08-28T17:49:49Z</time>
  <course>242.02</course>
  <speed>2.53</speed>
  <fix>3d</fix>
</trkpt>
<trkpt lat="40.0712933" lon="-105.2300347">
  <ele>1583.02</ele>
  <time>2026-08-28T17:49:49Z</time>
  <course>239.48</course>
  <speed>2.2717834403833477</speed>
  <fix>3d</fix>
</trkpt>
<trkpt lat="40.0712958" lon="-105.230029">
  <ele>1583.0</ele>
  <time>2026-08-28T17:49:49Z</time>
  <course>242.02</course>
  <speed>2.53</speed>
  <fix>3d</fix>
</trkpt>
<trkpt lat="40.0712921" lon="-105.2300369">
  <ele>1583.02</ele>
  <time>2026-08-28T17:49:49Z</time>
  <course>237.3</course>
  <speed>2.1889952032839175</speed>
  <fix>3d</fix>
</trkpt>
<trkpt lat="40.0712936" lon="-105.2300339">
  <ele>1583.0</ele>
  <time>2026-08-28T17:49:49Z</time>
  <course>238.24</course>
  <speed>2.33</speed>
  <fix>3d</fix>
</trkpt>
<trkpt lat="40.071291" lon="-105.2300389">
  <ele>1583.02</ele>
  <time>2026-08-28T17:49:49Z</time>
  <course>235.08</course>
  <speed>2.1181359729724623</speed>
  <fix>3d</fix>
</trkpt>
<trkpt lat="40.0712936" lon="-105.2300339">
  <ele>1583.0</ele>
  <time>2026-08-28T17:49:49Z</time>
  <course>238.24</course>
  <speed>2.33</speed>
  <fix>3d</fix>
</trkpt>
<trkpt lat="40.0712898" lon="-105.2300408">
  <ele>1583.03</ele>
  <time>2026-08-28T17:49:49Z</time>
  <course>232.78</course>
  <speed>2.058834621818858</speed>
  <fix>3d</fix>
</trkpt>
<trkpt lat="40.0712913" lon="-105.2300383">
  <ele>1583.0</ele>
  <time>2026-08-28T17:49:49Z</time>
  <course>233.82</course>
  <speed>2.17</speed>
  <fix>3d</fix>
</trkpt>
<trkpt lat="40.0712886" lon="-105.2300427">
  <ele>1583.02</ele>
  <time>2026-08-28T17:49:49Z</time>
  <course>230.43</course>
  <speed>2.0173497465734593</speed>
  <fix>3d</fix>
</trkpt>
<trkpt lat="40.0712913" lon="-105.2300383">
  <ele>1583.0</ele>
  <time>2026-08-28T17:49:49Z</time>
  <course>233.82</course>
  <speed>2.17</speed>
  <fix>3d</fix>
</trkpt>
<trkpt lat="40.0712874" lon="-105.2300444">
  <ele>1583.02</ele>
  <time>2026-08-28T17:49:49Z</time>
  <course>228.03</course>
  <speed>1.9798989873223332</speed>
  <fix>3d</fix>
</trkpt>
<trkpt lat="40.071289" lon="-105.2300422">
  <ele>1583.0</ele>
  <time>2026-08-28T17:49:49Z</time>
  <course>229.15</course>
  <speed>2.06</speed>
  <fix>3d</fix>
</trkpt>
<trkpt lat="40.0712861" lon="-105.230046">
  <ele>1583.02</ele>
  <time>2026-08-28T17:49:49Z</time>
  <course>225.59</course>
  <speed>1.9534584715319647</speed>
  <fix>3d</fix>
</trkpt>
<trkpt lat="40.071289" lon="-105.2300422">
  <ele>1583.0</ele>
  <time>2026-08-28T17:49:49Z</time>
  <course>229.15</course>
  <speed>2.06</speed>
  <fix>3d</fix>
</trkpt>
<trkpt lat="40.0712848" lon="-105.2300475">
  <ele>1583.02</ele>
  <time>2026-08-28T17:49:49Z</time>
  <course>223.14</course>
  <speed>1.9448907424325923</speed>
  <fix>3d</fix>
</trkpt>
<trkpt lat="40.0712865" lon="-105.2300457">
  <ele>1583.0</ele>
  <time>2026-08-28T17:49:49Z</time>
  <course>224.3</course>
  <speed>2.0</speed>
  <fix>3d</fix>
</trkpt>
<trkpt lat="40.0712834" lon="-105.230049">
  <ele>1583.02</ele>
  <time>2026-08-28T17:49:49Z</time>
  <course>220.68</course>
  <speed>1.940103090044444</speed>
  <fix>3d</fix>
</trkpt>
<trkpt lat="40.0712865" lon="-105.2300457">
  <ele>1583.0</ele>
  <time>2026-08-28T17:49:49Z</time>
  <course>224.3</course>
  <speed>2.0</speed>
  <fix>3d</fix>
</trkpt>
<trkpt lat="40.071282" lon="-105.2300504">
  <ele>1583.02</ele>
  <time>2026-08-28T17:49:49Z</time>
  <course>218.22</course>
  <speed>1.9391235133430775</speed>
  <fix>3d</fix>
</trkpt>
<trkpt lat="40.0712838" lon="-105.2300488">
  <ele>1583.0</ele>
  <time>2026-08-28T17:49:49Z</time>
  <course>219.36</course>
  <speed>1.98</speed>
  <fix>3d</fix>
</trkpt>
<trkpt lat="40.0712805" lon="-105.2300517">
  <ele>1583.02</ele>
  <time>2026-08-28T17:49:49Z</time>
  <course>215.76</course>
  <speed>1.9557607215607944</speed>
  <fix>3d</fix>
</trkpt>
<trkpt lat="40.0712838" lon="-105.2300488">
  <ele>1583.0</ele>
  <time>2026-08-28T17:49:49Z</time>
  <course>219.36</course>
  <speed>1.98</speed>
  <fix>3d</fix>
</trkpt>
<trkpt lat="40.071279" lon="-105.2300529">
  <ele>1583.03</ele>
  <time>2026-08-28T17:49:49Z</time>
  <course>213.33</course>
  <speed>1.9759048560090133</speed>
  <fix>3d</fix>
</trkpt>
<trkpt lat="40.071281" lon="-105.2300516">
  <ele>1583.0</ele>
  <time>2026-08-28T17:49:49Z</time>
  <course>214.42</course>
  <speed>1.99</speed>
  <fix>3d</fix>
</trkpt>
<trkpt lat="40.0712774" lon="-105.2300541">
  <ele>1583.03</ele>
  <time>2026-08-28T17:49:49Z</time>
  <course>210.93</course>
  <speed>2.008307745341834</speed>
  <fix>3d</fix>
</trkpt>
<trkpt lat="40.071281" lon="-105.2300516">
  <ele>1583.0</ele>
  <time>2026-08-28T17:49:49Z</time>
  <course>214.42</course>
  <speed>1.99</speed>
  <fix>3d</fix>
</trkpt>
<trkpt lat="40.0712758" lon="-105.2300552">
  <ele>1583.03</ele>
  <time>2026-08-28T17:49:49Z</time>
  <course>208.55</course>
  <speed>2.0401225453388823</speed>
  <fix>3d</fix>
</trkpt>
<trkpt lat="40.071281" lon="-105.2300516">
  <ele>1583.0</ele>
  <time>2026-08-28T17:49:49Z</time>
  <course>214.42</course>
  <speed>1.99</speed>
  <fix>3d</fix>
</trkpt>
<trkpt lat="40.0712741" lon="-105.2300562">
  <ele>1583.03</ele>
  <time>2026-08-28T17:49:49Z</time>
  <course>206.22</course>
  <speed>2.08</speed>
  <fix>3d</fix>
</trkpt>
<trkpt lat="40.0712779" lon="-105.2300541">
  <ele>1583.0</ele>
  <time>2026-08-28T17:49:49Z</time>
  <course>209.55</course>
  <speed>2.04</speed>
  <fix>3d</fix>
</trkpt>
<trkpt lat="40.0712723" lon="-105.2300572">
  <ele>1583.03</ele>
  <time>2026-08-28T17:49:49Z</time>
  <course>203.93</course>
  <speed>2.1231344752511556</speed>
  <fix>3d</fix>
</trkpt>
<trkpt lat="40.0712779" lon="-105.2300541">
  <ele>1583.0</ele>
  <time>2026-08-28T17:49:49Z</time>
  <course>209.55</course>
  <speed>2.04</speed>
  <fix>3d</fix>
</trkpt>
<trkpt lat="40.0712705" lon="-105.2300581">
  <ele>1583.03</ele>
  <time>2026-08-28T17:49:49Z</time>
  <course>201.68</course>
  <speed>2.169331694324314</speed>
  <fix>3d</fix>
</trkpt>
<trkpt lat="40.0712745" lon="-105.2300563">
  <ele>1583.0</ele>
  <time>2026-08-28T17:49:49Z</time>
  <course>204.81</course>
  <speed>2.1</speed>
  <fix>3d</fix>
</trkpt>
<trkpt lat="40.0712686" lon="-105.2300589">
  <ele>1583.03</ele>
  <time>2026-08-28T17:49:49Z</time>
  <course>199.49</course>
  <speed>2.2280035906613795</speed>
  <fix>3d</fix>
</trkpt>
<trkpt lat="40.0712745" lon="-105.2300563">
  <ele>1583.0</ele>
  <time>2026-08-28T17:49:49Z</time>
  <course>204.81</course>
  <speed>2.1</speed>
  <fix>3d</fix>
</trkpt>
<trkpt lat="40.0712667" lon="-105.2300596">
  <ele>1583.04</ele>
  <time>2026-08-28T17:49:49Z</time>
  <course>197.35</course>
  <speed>2.277410810547803</speed>
  <fix>3d</fix>
</trkpt>
<trkpt lat="40.071271" lon="-105.2300583">
  <ele>1583.0</ele>
  <time>2026-08-28T17:49:49Z</time>
  <course>200.27</course>
  <speed>2.19</speed>
  <fix>3d</fix>
</trkpt>
<trkpt lat="40.0712646" lon="-105.2300603">
  <ele>1583.04</ele>
  <time>2026-08-28T17:49:49Z</time>
  <course>195.26</course>
  <speed>2.3397649454592657</speed>
  <fix>3d</fix>
</trkpt>
<trkpt lat="40.0712671" lon="-105.2300599">
  <ele>1583.0</ele>
  <time>2026-08-28T17:49:49Z</time>
  <course>195.93</course>
  <speed>2.3</speed>
  <fix>3d</fix>
</trkpt>
<trkpt lat="40.0712625" lon="-105.2300609">
  <ele>1583.04</ele>
  <time>2026-08-28T17:49:49Z</time>
  <course>193.26</course>
  <speed>2.3970815588961507</speed>
  <fix>3d</fix>
</trkpt>
<trkpt lat="40.0712671" lon="-105.2300599">
  <ele>1583.0</ele>
  <time>2026-08-28T17:49:49Z</time>
  <course>195.93</course>
  <speed>2.3</speed>
  <fix>3d</fix>
</trkpt>
<trkpt lat="40.0712604" lon="-105.2300614">
  <ele>1583.05</ele>
  <time>2026-08-28T17:49:49Z</time>
  <course>191.46</course>
  <speed>2.4649746449000243</speed>
  <fix>3d</fix>
</trkpt>
<trkpt lat="40.071263" lon="-105.2300612">
  <ele>1583.0</ele>
  <time>2026-08-28T17:49:49Z</time>
  <course>191.91</course>
  <speed>2.41</speed>
  <fix>3d</fix>
</trkpt>
<trkpt lat="40.0712581" lon="-105.2300618">
  <ele>1583.05</ele>
  <time>2026-08-28T17:49:49Z</time>
  <course>189.92</course>
  <speed>2.527864711569826</speed>
  <fix>3d</fix>
</trkpt>
<trkpt lat="40.071263" lon="-105.2300612">
  <ele>1583.0</ele>
  <time>2026-08-28T17:49:49Z</time>
  <course>191.91</course>
  <speed>2.41</speed>
  <fix>3d</fix>
</trkpt>
<trkpt lat="40.0712558" lon="-105.2300622">
  <ele>1583.05</ele>
  <time>2026-08-28T17:49:49Z</time>
  <course>188.56</course>
  <speed>2.592084103573802</speed>
  <fix>3d</fix>
</trkpt>
<trkpt lat="40.0712586" lon="-105.2300622">
  <ele>1583.0</ele>
  <time>2026-08-28T17:49:49Z</time>
  <course>188.54</course>
  <speed>2.54</speed>
  <fix>3d</fix>
</trkpt>
<trkpt lat="40.0712534" lon="-105.2300625">
  <ele>1583.05</ele>
  <time>2026-08-28T17:49:49Z</time>
  <course>187.4</course>
  <speed>2.6575364531836625</speed>
  <fix>3d</fix>
</trkpt>
<trkpt lat="40.0712586" lon="-105.2300622">
  <ele>1583.0</ele>
  <time>2026-08-28T17:49:49Z</time>
  <course>188.54</course>
  <speed>2.54</speed>
  <fix>3d</fix>
</trkpt>
<trkpt lat="40.071251" lon="-105.2300628">
  <ele>1583.05</ele>
  <time>2026-08-28T17:49:49Z</time>
  <course>186.42</course>
  <speed>2.714719138327205</speed>
  <fix>3d</fix>
</trkpt>
<trkpt lat="40.0712539" lon="-105.230063">
  <ele>1583.0</ele>
  <time>2026-08-28T17:49:49Z</time>
  <course>186.0</course>
  <speed>2.66</speed>
  <fix>3d</fix>
</trkpt>
<trkpt lat="40.0712485" lon="-105.2300631">
  <ele>1583.06</ele>
  <time>2026-08-28T17:49:49Z</time>
  <course>185.65</course>
  <speed>2.773048863615641</speed>
  <fix>3d</fix>
</trkpt>
<trkpt lat="40.0712539" lon="-105.230063">
  <ele>1583.0</ele>
  <time>2026-08-28T17:49:49Z</time>
  <course>186.0</course>
  <speed>2.66</speed>
  <fix>3d</fix>
</trkpt>
<trkpt lat="40.0712459" lon="-105.2300633">
  <ele>1583.06</ele>
  <time>2026-08-28T17:49:49Z</time>
  <course>185.03</course>
  <speed>2.8317662332897466</speed>
  <fix>3d</fix>
</trkpt>
<trkpt lat="40.0712491" lon="-105.2300636">
  <ele>1583.0</ele>
  <time>2026-08-28T17:49:49Z</time>
  <course>184.23</course>
  <speed>2.77</speed>
  <fix>3d</fix>
</trkpt>
<trkpt lat="40.0712433" lon="-105.2300635">
  <ele>1583.06</ele>
  <time>2026-08-28T17:49:49Z</time>
  <course>184.57</course>
  <speed>2.8714108030722456</speed>
  <fix>3d</fix>
</trkpt>
<trkpt lat="40.0712491" lon="-105.2300636">
  <ele>1583.0</ele>
  <time>2026-08-28T17:49:49Z</time>
  <course>184.23</course>
  <speed>2.77</speed>
  <fix>3d</fix>
</trkpt>
<trkpt lat="40.0712407" lon="-105.2300636">
  <ele>1583.06</ele>
  <time>2026-08-28T17:49:49Z</time>
  <course>184.3</course>
  <speed>2.9110994486619655</speed>
  <fix>3d</fix>
</trkpt>
<trkpt lat="40.0712441" lon="-105.230064">
  <ele>1583.0</ele>
  <time>2026-08-28T17:49:49Z</time>
  <course>183.16</course>
  <speed>2.87</speed>
  <fix>3d</fix>
</trkpt>
<trkpt lat="40.071238" lon="-105.2300638">
  <ele>1583.06</ele>
  <time>2026-08-28T17:49:49Z</time>
  <course>184.18</course>
  <speed>2.9510845463998487</speed>
  <fix>3d</fix>
</trkpt>
<trkpt lat="40.0712441" lon="-105.230064">
  <ele>1583.0</ele>
  <time>2026-08-28T17:49:49Z</time>
  <course>183.16</course>
  <speed>2.87</speed>
  <fix>3d</fix>
</trkpt>
<trkpt lat="40.0712353" lon="-105.230064">
  <ele>1583.06</ele>
  <time>2026-08-28T17:49:49Z</time>
  <course>184.17</course>
  <speed>2.971077245714086</speed>
  <fix>3d</fix>
</trkpt>
<trkpt lat="40.0712388" lon="-105.2300644">
  <ele>1583.0</ele>
  <time>2026-08-28T17:49:49Z</time>
  <course>182.71</course>
  <speed>2.95</speed>
  <fix>3d</fix>
</trkpt>
<trkpt lat="40.0712326" lon="-105.2300641">
  <ele>1583.06</ele>
  <time>2026-08-28T17:49:49Z</time>
  <course>184.12</course>
  <speed>2.991070042643602</speed>
  <fix>3d</fix>
</trkpt>
<trkpt lat="40.0712388" lon="-105.2300644">
  <ele>1583.0</ele>
  <time>2026-08-28T17:49:49Z</time>
  <course>182.71</course>
  <speed>2.95</speed>
  <fix>3d</fix>
</trkpt>
<trkpt lat="40.0712299" lon="-105.2300643">
  <ele>1583.06</ele>
  <time>2026-08-28T17:49:49Z</time>
  <course>184.01</course>
  <speed>3.0110629352439644</speed>
  <fix>3d</fix>
</trkpt>
<trkpt lat="40.0712388" lon="-105.2300644">
  <ele>1583.0</ele>
  <time>2026-08-28T17:49:49Z</time>
  <course>182.71</course>
  <speed>2.95</speed>
  <fix>3d</fix>
</trkpt>
<trkpt lat="40.0712272" lon="-105.2300645">
  <ele>1583.06</ele>
  <time>2026-08-28T17:49:49Z</time>
  <course>183.84</course>
  <speed>3.010813843464919</speed>
  <fix>3d</fix>
</trkpt>
<trkpt lat="40.0712335" lon="-105.2300647">
  <ele>1583.0</ele>
  <time>2026-08-28T17:49:49Z</time>
  <course>182.56</course>
  <speed>3.0</speed>
  <fix>3d</fix>
</trkpt>
<trkpt lat="40.0712245" lon="-105.2300646">
  <ele>1583.05</ele>
  <time>2026-08-28T17:49:49Z</time>
  <course>183.61</course>
  <speed>3.020595967685847</speed>
  <fix>3d</fix>
</trkpt>
<trkpt lat="40.0712335" lon="-105.2300647">
  <ele>1583.0</ele>
  <time>2026-08-28T17:49:49Z</time>
  <course>182.56</course>
  <speed>3.0</speed>
  <fix>3d</fix>
</trkpt>
<trkpt lat="40.0712218" lon="-105.2300647">
  <ele>1583.05</ele>
  <time>2026-08-28T17:49:49Z</time>
  <course>183.31</course>
  <speed>3.0104152537482265</speed>
  <fix>3d</fix>
</trkpt>
<trkpt lat="40.0712281" lon="-105.230065">
  <ele>1583.0</ele>
  <time>2026-08-28T17:49:49Z</time>
  <course>182.27</course>
  <speed>3.02</speed>
  <fix>3d</fix>
</trkpt>
<trkpt lat="40.0712191" lon="-105.2300649">
  <ele>1583.05</ele>
  <time>2026-08-28T17:49:49Z</time>
  <course>182.95</course>
  <speed>3.0101494979485652</speed>
  <fix>3d</fix>
</trkpt>
<trkpt lat="40.0712281" lon="-105.230065">
  <ele>1583.0</ele>
  <time>2026-08-28T17:49:49Z</time>
  <course>182.27</course>
  <speed>3.02</speed>
  <fix>3d</fix>
</trkpt>
<trkpt lat="40.0712164" lon="-105.2300649">
  <ele>1583.05</ele>
  <time>2026-08-28T17:49:49Z</time>
  <course>182.53</course>
  <speed>3.0000166666203705</speed>
  <fix>3d</fix>
</trkpt>
<trkpt lat="40.0712226" lon="-105.2300653">
  <ele>1583.0</ele>
  <time>2026-08-28T17:49:49Z</time>
  <course>181.73</course>
  <speed>3.03</speed>
  <fix>3d</fix>
</trkpt>
<trkpt lat="40.0712138" lon="-105.230065">
  <ele>1583.05</ele>
  <time>2026-08-28T17:49:49Z</time>
  <course>182.04</course>
  <speed>2.9800167784762555</speed>
  <fix>3d</fix>
</trkpt>
<trkpt lat="40.0712226" lon="-105.2300653">
  <ele>1583.0</ele>
  <time>2026-08-28T17:49:49Z</time>
  <course>181.73</course>
  <speed>3.03</speed>
  <fix>3d</fix>
</trkpt>
<trkpt lat="40.0712111" lon="-105.230065">
  <ele>1583.05</ele>
  <time>2026-08-28T17:49:49Z</time>
  <course>181.48</course>
  <speed>2.9701515112869243</speed>
  <fix>3d</fix>
</trkpt>
<trkpt lat="40.0712171" lon="-105.2300654">
  <ele>1583.0</ele>
  <time>2026-08-28T17:49:49Z</time>
  <course>180.94</course>
  <speed>3.02</speed>
  <fix>3d</fix>
</trkpt>
<trkpt lat="40.0712084" lon="-105.230065">
  <ele>1583.05</ele>
  <time>2026-08-28T17:49:49Z</time>
  <course>180.85</course>
  <speed>2.9506101064017254</speed>
  <fix>3d</fix>
</trkpt>
<trkpt lat="40.0712118" lon="-105.2300655">
  <ele>1583.0</ele>
  <time>2026-08-28T17:49:49Z</time>
  <course>179.9</course>
  <speed>2.99</speed>
  <fix>3d</fix>
</trkpt>
<trkpt lat="40.0712057" lon="-105.230065">
  <ele>1583.05</ele>
  <time>2026-08-28T17:49:49Z</time>
  <course>180.21</course>
  <speed>2.9413772284424855</speed>
  <fix>3d</fix>
</trkpt>
<trkpt lat="40.0712118" lon="-105.2300655">
  <ele>1583.0</ele>
  <time>2026-08-28T17:49:49Z</time>
  <course>179.9</course>
  <speed>2.99</speed>
  <fix>3d</fix>
</trkpt>
<trkpt lat="40.0712031" lon="-105.2300649">
  <ele>1583.05</ele>
  <time>2026-08-28T17:49:49Z</time>
  <course>179.53</course>
  <speed>2.922892403082946</speed>
  <fix>3d</fix>
</trkpt>
<trkpt lat="40.0712064" lon="-105.2300654">
  <ele>1583.0</ele>
  <time>2026-08-28T17:49:49Z</time>
  <course>178.65</course>
  <speed>2.97</speed>
  <fix>3d</fix>
</trkpt>
<trkpt lat="40.0712005" lon="-105.2300649">
  <ele>1583.05</ele>
  <time>2026-08-28T17:49:49Z</time>
  <course>178.85</course>
  <speed>2.904410439314664</speed>
  <fix>3d</fix>
</trkpt>
<trkpt lat="40.0712064" lon="-105.2300654">
  <ele>1583.0</ele>
  <time>2026-08-28T17:49:49Z</time>
  <course>178.65</course>
  <speed>2.97</speed>
  <fix>3d</fix>
</trkpt>
<trkpt lat="40.0711978" lon="-105.2300647">
  <ele>1583.05</ele>
  <time>2026-08-28T17:49:49Z</time>
  <course>178.18</course>
  <speed>2.8962389404191082</speed>
  <fix>3d</fix>
</trkpt>
<trkpt lat="40.0712011" lon="-105.2300651">
  <ele>1583.0</ele>
  <time>2026-08-28T17:49:49Z</time>
  <course>177.32</course>
  <speed>2.93</speed>
  <fix>3d</fix>
</trkpt>
<trkpt lat="40.0711952" lon="-105.2300645">
  <ele>1583.05</ele>
  <time>2026-08-28T17:49:49Z</time>
  <course>177.5</course>
  <speed>2.878419705324434</speed>
  <fix>3d</fix>
</trkpt>
<trkpt lat="40.0712011" lon="-105.2300651">
  <ele>1583.0</ele>
  <time>2026-08-28T17:49:49Z</time>
  <course>177.32</course>
  <speed>2.93</speed>
  <fix>3d</fix>
</trkpt>
<trkpt lat="40.0711926" lon="-105.2300642">
  <ele>1583.05</ele>
  <time>2026-08-28T17:49:49Z</time>
  <course>176.83</course>
  <speed>2.861835075611451</speed>
  <fix>3d</fix>
</trkpt>
<trkpt lat="40.0711959" lon="-105.2300648">
  <ele>1583.0</ele>
  <time>2026-08-28T17:49:49Z</time>
  <course>175.97</course>
  <speed>2.9</speed>
  <fix>3d</fix>
</trkpt>
<trkpt lat="40.07119" lon="-105.2300639">
  <ele>1583.04</ele>
  <time>2026-08-28T17:49:49Z</time>
  <course>176.16</course>
  <speed>2.844819853699</speed>
  <fix>3d</fix>
</trkpt>
<trkpt lat="40.0711959" lon="-105.2300648">
  <ele>1583.0</ele>
  <time>2026-08-28T17:49:49Z</time>
  <course>175.97</course>
  <speed>2.9</speed>
  <fix>3d</fix>
</trkpt>
<trkpt lat="40.0711874" lon="-105.2300636">
  <ele>1583.04</ele>
  <time>2026-08-28T17:49:49Z</time>
  <course>175.5</course>
  <speed>2.8281619472724686</speed>
  <fix>3d</fix>
</trkpt>
<trkpt lat="40.0711907" lon="-105.2300643">
  <ele>1583.0</ele>
  <time>2026-08-28T17:49:49Z</time>
  <course>174.64</course>
  <speed>2.87</speed>
  <fix>3d</fix>
</trkpt>
<trkpt lat="40.0711849" lon="-105.2300632">
  <ele>1583.04</ele>
  <time>2026-08-28T17:49:49Z</time>
  <course>174.82</course>
  <speed>2.8118677067031443</speed>
  <fix>3d</fix>
</trkpt>
<trkpt lat="40.0711907" lon="-105.2300643">
  <ele>1583.0</ele>
  <time>2026-08-28T17:49:49Z</time>
  <course>174.64</course>
  <speed>2.87</speed>
  <fix>3d</fix>
</trkpt>
<trkpt lat="40.0711824" lon="-105.2300628">
  <ele>1583.04</ele>
  <time>2026-08-28T17:49:49Z</time>
  <course>174.14</course>
  <speed>2.8058510295452255</speed>
  <fix>3d</fix>
</trkpt>
<trkpt lat="40.0711856" lon="-105.2300636">
  <ele>1583.0</ele>
  <time>2026-08-28T17:49:49Z</time>
  <course>173.3</course>
  <speed>2.84</speed>
  <fix>3d</fix>
</trkpt>
<trkpt lat="40.0711798" lon="-105.2300624">
  <ele>1583.03</ele>
  <time>2026-08-28T17:49:49Z</time>
  <course>173.46</course>
  <speed>2.7902867236182023</speed>
  <fix>3d</fix>
</trkpt>
<trkpt lat="40.0711856" lon="-105.2300636">
  <ele>1583.0</ele>
  <time>2026-08-28T17:49:49Z</time>
  <course>173.3</course>
  <speed>2.84</speed>
  <fix>3d</fix>
</trkpt>
<trkpt lat="40.0711773" lon="-105.2300619">
  <ele>1583.03</ele>
  <time>2026-08-28T17:49:49Z</time>
  <course>172.77</course>
  <speed>2.784977558257876</speed>
  <fix>3d</fix>
</trkpt>
<trkpt lat="40.0711806" lon="-105.2300627">
  <ele>1583.0</ele>
  <time>2026-08-28T17:49:49Z</time>
  <course>171.93</course>
  <speed>2.82</speed>
  <fix>3d</fix>
</trkpt>
<trkpt lat="40.0711748" lon="-105.2300614">
  <ele>1583.03</ele>
  <time>2026-08-28T17:49:49Z</time>
  <course>172.08</course>
  <speed>2.780017985553331</speed>
  <fix>3d</fix>
</trkpt>
<trkpt lat="40.0711806" lon="-105.2300627">
  <ele>1583.0</ele>
  <time>2026-08-28T17:49:49Z</time>
  <course>171.93</course>
  <speed>2.82</speed>
  <fix>3d</fix>
</trkpt>
<trkpt lat="40.0711724" lon="-105.2300608">
  <ele>1583.03</ele>
  <time>2026-08-28T17:49:49Z</time>
  <course>171.39</course>
  <speed>2.775409879639402</speed>
  <fix>3d</fix>
</trkpt>
<trkpt lat="40.0711806" lon="-105.2300627">
  <ele>1583.0</ele>
  <time>2026-08-28T17:49:49Z</time>
  <course>171.93</course>
  <speed>2.82</speed>
  <fix>3d</fix>
</trkpt>
<trkpt lat="40.0711699" lon="-105.2300602">
  <ele>1583.02</ele>
  <time>2026-08-28T17:49:49Z</time>
  <course>170.72</course>
  <speed>2.7613402542968153</speed>
  <fix>3d</fix>
</trkpt>
<trkpt lat="40.0711755" lon="-105.2300617">
  <ele>1583.0</ele>
  <time>2026-08-28T17:49:49Z</time>
  <course>170.56</course>
  <speed>2.8</speed>
  <fix>3d</fix>
</trkpt>
<trkpt lat="40.0711675" lon="-105.2300596">
  <ele>1583.02</ele>
  <time>2026-08-28T17:49:49Z</time>
  <course>170.05</course>
  <speed>2.7672549575346324</speed>
  <fix>3d</fix>
</trkpt>
<trkpt lat="40.0711755" lon="-105.2300617">
  <ele>1583.0</ele>
  <time>2026-08-28T17:49:49Z</time>
  <course>170.56</course>
  <speed>2.8</speed>
  <fix>3d</fix>
</trkpt>
<trkpt lat="40.071165" lon="-105.230059">
  <ele>1583.02</ele>
  <time>2026-08-28T17:49:49Z</time>
  <course>169.37</course>
  <speed>2.7637112729082247</speed>
  <fix>3d</fix>
</trkpt>
<trkpt lat="40.0711706" lon="-105.2300606">
  <ele>1583.0</ele>
  <time>2026-08-28T17:49:49Z</time>
  <course>169.2</course>
  <speed>2.79</speed>
  <fix>3d</fix>
</trkpt>
<trkpt lat="40.0711626" lon="-105.2300583">
  <ele>1583.01</ele>
  <time>2026-08-28T17:49:49Z</time>
  <course>168.7</course>
  <speed>2.7605253123273474</speed>
  <fix>3d</fix>
</trkpt>
<trkpt lat="40.0711706" lon="-105.2300606">
  <ele>1583.0</ele>
  <time>2026-08-28T17:49:49Z</time>
  <course>169.2</course>
  <speed>2.79</speed>
  <fix>3d</fix>
</trkpt>
<trkpt lat="40.0711602" lon="-105.2300575">
  <ele>1583.01</ele>
  <time>2026-08-28T17:49:49Z</time>
  <course>168.06</course>
  <speed>2.7674175687814078</speed>
  <fix>3d</fix>
</trkpt>
<trkpt lat="40.0711656" lon="-105.2300592">
  <ele>1583.0</ele>
  <time>2026-08-28T17:49:49Z</time>
  <course>167.86</course>
  <speed>2.79</speed>
  <fix>3d</fix>
</trkpt>
<trkpt lat="40.0711578" lon="-105.2300568">
  <ele>1583.01</ele>
  <time>2026-08-28T17:49:49Z</time>
  <course>167.41</course>
  <speed>2.764923145405673</speed>
  <fix>3d</fix>
</trkpt>
<trkpt lat="40.0711607" lon="-105.2300578">
  <ele>1583.0</ele>
  <time>2026-08-28T17:49:49Z</time>
  <course>166.54</course>
  <speed>2.8</speed>
  <fix>3d</fix>
</trkpt>
<trkpt lat="40.0711553" lon="-105.230056">
  <ele>1583.01</ele>
  <time>2026-08-28T17:49:49Z</time>
  <course>166.83</course>
  <speed>2.7724537868105217</speed>
  <fix>3d</fix>
</trkpt>
<trkpt lat="40.0711607" lon="-105.2300578">
  <ele>1583.0</ele>
  <time>2026-08-28T17:49:49Z</time>
  <course>166.54</course>
  <speed>2.8</speed>
  <fix>3d</fix>
</trkpt>
<trkpt lat="40.0711529" lon="-105.2300551">
  <ele>1583.0</ele>
  <time>2026-08-28T17:49:49Z</time>
  <course>166.31</course>
  <speed>2.7872925931807013</speed>
  <fix>3d</fix>
</trkpt>
<trkpt lat="40.0711558" lon="-105.2300562">
  <ele>1583.0</ele>
  <time>2026-08-28T17:49:49Z</time>
  <course>165.36</course>
  <speed>2.81</speed>
  <fix>3d</fix>
</trkpt>
<trkpt lat="40.0711504" lon="-105.2300542">
  <ele>1583.0</ele>
  <time>2026-08-28T17:49:49Z</time>
  <course>165.87</course>
  <speed>2.795299626158169</speed>
  <fix>3d</fix>
</trkpt>
<trkpt lat="40.0711558" lon="-105.2300562">
  <ele>1583.0</ele>
  <time>2026-08-28T17:49:49Z</time>
  <course>165.36</course>
  <speed>2.81</speed>
  <fix>3d</fix>
</trkpt>
<trkpt lat="40.071148" lon="-105.2300533">
  <ele>1582.99</ele>
  <time>2026-08-28T17:49:49Z</time>
  <course>165.48</course>
  <speed>2.8104092228712885</speed>
  <fix>3d</fix>
</trkpt>
<trkpt lat="40.0711509" lon="-105.2300545">
  <ele>1583.0</ele>
  <time>2026-08-28T17:49:49Z</time>
  <course>164.4</course>
  <speed>2.83</speed>
  <fix>3d</fix>
</trkpt>
<trkpt lat="40.0711455" lon="-105.2300524">
  <ele>1582.99</ele>
  <time>2026-08-28T17:49:49Z</time>
  <course>165.15</course>
  <speed>2.8256149773102495</speed>
  <fix>3d</fix>
</trkpt>
<trkpt lat="40.0711509" lon="-105.2300545">
  <ele>1583.0</ele>
  <time>2026-08-28T17:49:49Z</time>
  <course>164.4</course>
  <speed>2.83</speed>
  <fix>3d</fix>
</trkpt>
<trkpt lat="40.071143" lon="-105.2300514">
  <ele>1582.99</ele>
  <time>2026-08-28T17:49:49Z</time>
  <course>164.88</course>
  <speed>2.838045101826255</speed>
  <fix>3d</fix>
</trkpt>
<trkpt lat="40.071146" lon="-105.2300526">
  <ele>1583.0</ele>
  <time>2026-08-28T17:49:49Z</time>
  <course>163.69</course>
  <speed>2.85</speed>
  <fix>3d</fix>
</trkpt>
<trkpt lat="40.0711405" lon="-105.2300505">
  <ele>1582.99</ele>
  <time>2026-08-28T17:49:49Z</time>
  <course>164.68</course>
  <speed>2.850491185743257</speed>
  <fix>3d</fix>
</trkpt>
<trkpt lat="40.071146" lon="-105.2300526">
  <ele>1583.0</ele>
  <time>2026-08-28T17:49:49Z</time>
  <course>163.69</course>
  <speed>2.85</speed>
  <fix>3d</fix>
</trkpt>
<trkpt lat="40.071138" lon="-105.2300495">
  <ele>1582.99</ele>
  <time>2026-08-28T17:49:49Z</time>
  <course>164.55</course>
  <speed>2.8629530209208816</speed>
  <fix>3d</fix>
</trkpt>
<trkpt lat="40.0711411" lon="-105.2300507">
  <ele>1583.0</ele>
  <time>2026-08-28T17:49:49Z</time>
  <course>163.24</course>
  <speed>2.88</speed>
  <fix>3d</fix>
</trkpt>
<trkpt lat="40.0711355" lon="-105.2300485">
  <ele>1583.0</ele>
  <time>2026-08-28T17:49:49Z</time>
  <course>164.48</course>
  <speed>2.875430402565849</speed>
  <fix>3d</fix>
</trkpt>
<trkpt lat="40.0711411" lon="-105.2300507">
  <ele>1583.0</ele>
  <time>2026-08-28T17:49:49Z</time>
  <course>163.24</course>
  <speed>2.88</speed>
  <fix>3d</fix>
</trkpt>
<trkpt lat="40.071133" lon="-105.2300475">
  <ele>1583.0</ele>
  <time>2026-08-28T17:49:49Z</time>
  <course>164.44</course>
  <speed>2.884995667241114</speed>
  <fix>3d</fix>
</trkpt>
<trkpt lat="40.0711362" lon="-105.2300487">
  <ele>1583.0</ele>
  <time>2026-08-28T17:49:49Z</time>
  <course>163.02</course>
  <speed>2.91</speed>
  <fix>3d</fix>
</trkpt>
<trkpt lat="40.0711304" lon="-105.2300465">
  <ele>1583.0</ele>
  <time>2026-08-28T17:49:49Z</time>
  <course>164.4</course>
  <speed>2.9070431713340614</speed>
  <fix>3d</fix>
</trkpt>
<trkpt lat="40.0711362" lon="-105.2300487">
  <ele>1583.0</ele>
  <time>2026-08-28T17:49:49Z</time>
  <course>163.02</course>
  <speed>2.91</speed>
  <fix>3d</fix>
</trkpt>
<trkpt lat="40.0711279" lon="-105.2300455">
  <ele>1583.0</ele>
  <time>2026-08-28T17:49:49Z</time>
  <course>164.38</course>
  <speed>2.9070431713340614</speed>
  <fix>3d</fix>
</trkpt>
<trkpt lat="40.0711311" lon="-105.2300467">
  <ele>1583.0</ele>
  <time>2026-08-28T17:49:49Z</time>
  <course>162.95</course>
  <speed>2.93</speed>
  <fix>3d</fix>
</trkpt>
<trkpt lat="40.0711253" lon="-105.2300445">
  <ele>1583.0</ele>
  <time>2026-08-28T17:49:49Z</time>
  <course>164.38</course>
  <speed>2.9166076184499</speed>
  <fix>3d</fix>
</trkpt>
<trkpt lat="40.0711311" lon="-105.2300467">
  <ele>1583.0</ele>
  <time>2026-08-28T17:49:49Z</time>
  <course>162.95</course>
  <speed>2.93</speed>
  <fix>3d</fix>
</trkpt>
<trkpt lat="40.0711228" lon="-105.2300434">
  <ele>1583.0</ele>
  <time>2026-08-28T17:49:49Z</time>
  <course>164.38</course>
  <speed>2.9166076184499</speed>
  <fix>3d</fix>
</trkpt>
<trkpt lat="40.0711311" lon="-105.2300467">
  <ele>1583.0</ele>
  <time>2026-08-28T17:49:49Z</time>
  <course>162.95</course>
  <speed>2.93</speed>
  <fix>3d</fix>
</trkpt>
<trkpt lat="40.0711203" lon="-105.2300424">
  <ele>1582.99</ele>
  <time>2026-08-28T17:49:49Z</time>
  <course>164.38</course>
  <speed>2.904134983088768</speed>
  <fix>3d</fix>
</trkpt>
<trkpt lat="40.071126" lon="-105.2300446">
  <ele>1583.0</ele>
  <time>2026-08-28T17:49:49Z</time>
  <course>162.92</course>
  <speed>2.94</speed>
  <fix>3d</fix>
</trkpt>
<trkpt lat="40.0711178" lon="-105.2300414">
  <ele>1582.99</ele>
  <time>2026-08-28T17:49:49Z</time>
  <course>164.38</course>
  <speed>2.894563870430224</speed>
  <fix>3d</fix>
</trkpt>
<trkpt lat="40.071126" lon="-105.2300446">
  <ele>1583.0</ele>
  <time>2026-08-28T17:49:49Z</time>
  <course>162.92</course>
  <speed>2.94</speed>
  <fix>3d</fix>
</trkpt>
<trkpt lat="40.0711153" lon="-105.2300404">
  <ele>1582.99</ele>
  <time>2026-08-28T17:49:49Z</time>
  <course>164.38</course>
  <speed>2.872525021649072</speed>
  <fix>3d</fix>
</trkpt>
<trkpt lat="40.071121" lon="-105.2300427">
  <ele>1583.0</ele>
  <time>2026-08-28T17:49:49Z</time>
  <course>162.92</course>
  <speed>2.94</speed>
  <fix>3d</fix>
</trkpt>
<trkpt lat="40.0711129" lon="-105.2300395">
  <ele>1582.99</ele>
  <time>2026-08-28T17:49:49Z</time>
  <course>164.38</course>
  <speed>2.8409153454476606</speed>
  <fix>3d</fix>
</trkpt>
<trkpt lat="40.071121" lon="-105.2300427">
  <ele>1583.0</ele>
  <time>2026-08-28T17:49:49Z</time>
  <course>162.92</course>
  <speed>2.94</speed>
  <fix>3d</fix>
</trkpt>
<trkpt lat="40.0711104" lon="-105.2300385">
  <ele>1582.99</ele>
  <time>2026-08-28T17:49:49Z</time>
  <course>164.38</course>
  <speed>2.7997321300438727</speed>
  <fix>3d</fix>
</trkpt>
<trkpt lat="40.0711159" lon="-105.2300406">
  <ele>1583.0</ele>
  <time>2026-08-28T17:49:49Z</time>
  <course>162.92</course>
  <speed>2.9</speed>
  <fix>3d</fix>
</trkpt>
<trkpt lat="40.071108" lon="-105.2300375">
  <ele>1582.99</ele>
  <time>2026-08-28T17:49:49Z</time>
  <course>164.38</course>
  <speed>2.7489816296221408</speed>
  <fix>3d</fix>
</trkpt>
<trkpt lat="40.0711159" lon="-105.2300406">
  <ele>1583.0</ele>
  <time>2026-08-28T17:49:49Z</time>
  <course>162.92</course>
  <speed>2.9</speed>
  <fix>3d</fix>
</trkpt>
<trkpt lat="40.0711057" lon="-105.2300366">
  <ele>1583.0</ele>
  <time>2026-08-28T17:49:49Z</time>
  <course>164.38</course>
  <speed>2.695329293425944</speed>
  <fix>3d</fix>
</trkpt>
<trkpt lat="40.071111" lon="-105.2300387">
  <ele>1583.0</ele>
  <time>2026-08-28T17:49:49Z</time>
  <course>162.92</course>
  <speed>2.83</speed>
  <fix>3d</fix>
</trkpt>
<trkpt lat="40.0711034" lon="-105.2300357">
  <ele>1583.0</ele>
  <time>2026-08-28T17:49:49Z</time>
  <course>164.41</course>
  <speed>2.6321094202179363</speed>
  <fix>3d</fix>
</trkpt>
<trkpt lat="40.0711062" lon="-105.2300367">
  <ele>1583.0</ele>
  <time>2026-08-28T17:49:49Z</time>
  <course>162.94</course>
  <speed>2.73</speed>
  <fix>3d</fix>
</trkpt>
<trkpt lat="40.0711011" lon="-105.2300348">
  <ele>1583.0</ele>
  <time>2026-08-28T17:49:49Z</time>
  <course>164.45</course>
  <speed>2.568890811225732</speed>
  <fix>3d</fix>
</trkpt>
<trkpt lat="40.0711062" lon="-105.2300367">
  <ele>1583.0</ele>
  <time>2026-08-28T17:49:49Z</time>
  <course>162.94</course>
  <speed>2.73</speed>
  <fix>3d</fix>
</trkpt>
<trkpt lat="40.0710989" lon="-105.2300339">
  <ele>1583.0</ele>
  <time>2026-08-28T17:49:49Z</time>
  <course>164.49</course>
  <speed>2.505673562138532</speed>
  <fix>3d</fix>
</trkpt>
<trkpt lat="40.0711016" lon="-105.2300348">
  <ele>1583.0</ele>
  <time>2026-08-28T17:49:49Z</time>
  <course>163.0</course>
  <speed>2.62</speed>
  <fix>3d</fix>
</trkpt>
<trkpt lat="40.0710968" lon="-105.2300331">
  <ele>1583.0</ele>
  <time>2026-08-28T17:49:49Z</time>
  <course>164.56</course>
  <speed>2.452039967047846</speed>
  <fix>3d</fix>
</trkpt>
<trkpt lat="40.0711016" lon="-105.2300348">
  <ele>1583.0</ele>
  <time>2026-08-28T17:49:49Z</time>
  <course>163.0</course>
  <speed>2.62</speed>
  <fix>3d</fix>
</trkpt>
<trkpt lat="40.0710947" lon="-105.2300322">
  <ele>1583.0</ele>
  <time>2026-08-28T17:49:49Z</time>
  <course>164.62</course>
  <speed>2.3888281646028875</speed>
  <fix>3d</fix>
</trkpt>
<trkpt lat="40.0710972" lon="-105.2300331">
  <ele>1583.0</ele>
  <time>2026-08-28T17:49:49Z</time>
  <course>163.11</course>
  <speed>2.5</speed>
  <fix>3d</fix>
</trkpt>
<trkpt lat="40.0710926" lon="-105.2300314">
  <ele>1583.0</ele>
  <time>2026-08-28T17:49:49Z</time>
  <course>164.71</course>
  <speed>2.3380547470065793</speed>
  <fix>3d</fix>
</trkpt>
<trkpt lat="40.0710972" lon="-105.2300331">
  <ele>1583.0</ele>
  <time>2026-08-28T17:49:49Z</time>
  <course>163.11</course>
  <speed>2.5</speed>
  <fix>3d</fix>
</trkpt>
<trkpt lat="40.0710905" lon="-105.2300306">
  <ele>1583.0</ele>
  <time>2026-08-28T17:49:49Z</time>
  <course>164.81</course>
  <speed>2.2940139493908926</speed>
  <fix>3d</fix>
</trkpt>
<trkpt lat="40.071093" lon="-105.2300315">
  <ele>1583.0</ele>
  <time>2026-08-28T17:49:49Z</time>
  <course>163.27</course>
  <speed>2.39</speed>
  <fix>3d</fix>
</trkpt>
<trkpt lat="40.0710885" lon="-105.2300298">
  <ele>1583.0</ele>
  <time>2026-08-28T17:49:49Z</time>
  <course>164.9</course>
  <speed>2.25</speed>
  <fix>3d</fix>
</trkpt>
<trkpt lat="40.071093" lon="-105.2300315">
  <ele>1583.0</ele>
  <time>2026-08-28T17:49:49Z</time>
  <course>163.27</course>
  <speed>2.39</speed>
  <fix>3d</fix>
</trkpt>
<trkpt lat="40.0710866" lon="-105.2300291">
  <ele>1583.01</ele>
  <time>2026-08-28T17:49:49Z</time>
  <course>164.99</course>
  <speed>2.2184003245582162</speed>
  <fix>3d</fix>
</trkpt>
<trkpt lat="40.071089" lon="-105.2300299">
  <ele>1583.0</ele>
  <time>2026-08-28T17:49:49Z</time>
  <course>163.46</course>
  <speed>2.3</speed>
  <fix>3d</fix>
</trkpt>
<trkpt lat="40.0710846" lon="-105.2300283">
  <ele>1583.01</ele>
  <time>2026-08-28T17:49:49Z</time>
  <course>165.08</course>
  <speed>2.1964061555186007</speed>
  <fix>3d</fix>
</trkpt>
<trkpt lat="40.071089" lon="-105.2300299">
  <ele>1583.0</ele>
  <time>2026-08-28T17:49:49Z</time>
  <course>163.46</course>
  <speed>2.3</speed>
  <fix>3d</fix>
</trkpt>
<trkpt lat="40.0710827" lon="-105.2300276">
  <ele>1583.01</ele>
  <time>2026-08-28T17:49:49Z</time>
  <course>165.16</course>
  <speed>2.1744194627532196</speed>
  <fix>3d</fix>
</trkpt>
<trkpt lat="40.0710851" lon="-105.2300284">
  <ele>1583.0</ele>
  <time>2026-08-28T17:49:49Z</time>
  <course>163.65</course>
  <speed>2.25</speed>
  <fix>3d</fix>
</trkpt>
<trkpt lat="40.0710808" lon="-105.2300269">
  <ele>1583.02</ele>
  <time>2026-08-28T17:49:49Z</time>
  <course>165.25</course>
  <speed>2.162059203629725</speed>
  <fix>3d</fix>
</trkpt>
<trkpt lat="40.0710851" lon="-105.2300284">
  <ele>1583.0</ele>
  <time>2026-08-28T17:49:49Z</time>
  <course>163.65</course>
  <speed>2.25</speed>
  <fix>3d</fix>
</trkpt>
<trkpt lat="40.0710789" lon="-105.2300262">
  <ele>1583.02</ele>
  <time>2026-08-28T17:49:49Z</time>
  <course>165.34</course>
  <speed>2.1497209121185943</speed>
  <fix>3d</fix>
</trkpt>
<trkpt lat="40.0710812" lon="-105.2300269">
  <ele>1583.0</ele>
  <time>2026-08-28T17:49:49Z</time>
  <course>163.83</course>
  <speed>2.21</speed>
  <fix>3d</fix>
</trkpt>
<trkpt lat="40.071077" lon="-105.2300254">
  <ele>1583.02</ele>
  <time>2026-08-28T17:49:49Z</time>
  <course>165.45</course>
  <speed>2.127768784431241</speed>
  <fix>3d</fix>
</trkpt>
<trkpt lat="40.0710812" lon="-105.2300269">
  <ele>1583.0</ele>
  <time>2026-08-28T17:49:49Z</time>
  <course>163.83</course>
  <speed>2.21</speed>
  <fix>3d</fix>
</trkpt>
<trkpt lat="40.0710752" lon="-105.2300248">
  <ele>1583.03</ele>
  <time>2026-08-28T17:49:49Z</time>
  <course>165.57</course>
  <speed>2.105825253908785</speed>
  <fix>3d</fix>
</trkpt>
<trkpt lat="40.0710812" lon="-105.2300269">
  <ele>1583.0</ele>
  <time>2026-08-28T17:49:49Z</time>
  <course>163.83</course>
  <speed>2.21</speed>
  <fix>3d</fix>
</trkpt>
<trkpt lat="40.0710733" lon="-105.2300241">
  <ele>1583.03</ele>
  <time>2026-08-28T17:49:49Z</time>
  <course>165.68</course>
  <speed>2.06196508214858</speed>
  <fix>3d</fix>
</trkpt>
<trkpt lat="40.0710774" lon="-105.2300255">
  <ele>1583.0</ele>
  <time>2026-08-28T17:49:49Z</time>
  <course>164.04</course>
  <speed>2.18</speed>
  <fix>3d</fix>
</trkpt>
<trkpt lat="40.0710715" lon="-105.2300234">
  <ele>1583.03</ele>
  <time>2026-08-28T17:49:49Z</time>
  <course>165.81</course>
  <speed>1.9988246546408217</speed>
  <fix>3d</fix>
</trkpt>
<trkpt lat="40.0710774" lon="-105.2300255">
  <ele>1583.0</ele>
  <time>2026-08-28T17:49:49Z</time>
  <course>164.04</course>
  <speed>2.18</speed>
  <fix>3d</fix>
</trkpt>
<trkpt lat="40.0710698" lon="-105.2300228">
  <ele>1583.03</ele>
  <time>2026-08-28T17:49:49Z</time>
  <course>165.95</course>
  <speed>1.9356910910576617</speed>
  <fix>3d</fix>
</trkpt>
<trkpt lat="40.0710737" lon="-105.2300241">
  <ele>1583.0</ele>
  <time>2026-08-28T17:49:49Z</time>
  <course>164.28</course>
  <speed>2.1</speed>
  <fix>3d</fix>
</trkpt>
<trkpt lat="40.0710681" lon="-105.2300222">
  <ele>1583.03</ele>
  <time>2026-08-28T17:49:49Z</time>
  <course>166.08</course>
  <speed>1.8629009635512028</speed>
  <fix>3d</fix>
</trkpt>
<trkpt lat="40.0710737" lon="-105.2300241">
  <ele>1583.0</ele>
  <time>2026-08-28T17:49:49Z</time>
  <course>164.28</course>
  <speed>2.1</speed>
  <fix>3d</fix>
</trkpt>
<trkpt lat="40.0710665" lon="-105.2300217">
  <ele>1583.03</ele>
  <time>2026-08-28T17:49:49Z</time>
  <course>166.23</course>
  <speed>1.7778920102188434</speed>
  <fix>3d</fix>
</trkpt>
<trkpt lat="40.0710701" lon="-105.2300228">
  <ele>1583.0</ele>
  <time>2026-08-28T17:49:49Z</time>
  <course>164.53</course>
  <speed>1.99</speed>
  <fix>3d</fix>
</trkpt>
<trkpt lat="40.071065" lon="-105.2300211">
  <ele>1583.02</ele>
  <time>2026-08-28T17:49:49Z</time>
  <course>166.38</course>
  <speed>1.6954350474140847</speed>
  <fix>3d</fix>
</trkpt>
<trkpt lat="40.0710667" lon="-105.2300216">
  <ele>1583.0</ele>
  <time>2026-08-28T17:49:49Z</time>
  <course>164.82</course>
  <speed>1.83</speed>
  <fix>3d</fix>
</trkpt>
<trkpt lat="40.0710635" lon="-105.2300206">
  <ele>1583.02</ele>
  <time>2026-08-28T17:49:49Z</time>
  <course>166.51</course>
  <speed>1.6007810593582121</speed>
  <fix>3d</fix>
</trkpt>
<trkpt lat="40.0710667" lon="-105.2300216">
  <ele>1583.0</ele>
  <time>2026-08-28T17:49:49Z</time>
  <course>164.82</course>
  <speed>1.83</speed>
  <fix>3d</fix>
</trkpt>
<trkpt lat="40.0710622" lon="-105.2300201">
  <ele>1583.02</ele>
  <time>2026-08-28T17:49:49Z</time>
  <course>166.64</course>
  <speed>1.4964624953536256</speed>
  <fix>3d</fix>
</trkpt>
<trkpt lat="40.0710638" lon="-105.2300205">
  <ele>1583.0</ele>
  <time>2026-08-28T17:49:49Z</time>
  <course>165.1</course>
  <speed>1.65</speed>
  <fix>3d</fix>
</trkpt>
<trkpt lat="40.0710609" lon="-105.2300197">
  <ele>1583.01</ele>
  <time>2026-08-28T17:49:49Z</time>
  <course>166.76</course>
  <speed>1.3921566003866088</speed>
  <fix>3d</fix>
</trkpt>
<trkpt lat="40.0710638" lon="-105.2300205">
  <ele>1583.0</ele>
  <time>2026-08-28T17:49:49Z</time>
  <course>165.1</course>
  <speed>1.65</speed>
  <fix>3d</fix>
</trkpt>
<trkpt lat="40.0710597" lon="-105.2300193">
  <ele>1583.01</ele>
  <time>2026-08-28T17:49:49Z</time>
  <course>166.88</course>
  <speed>1.2781627439414747</speed>
  <fix>3d</fix>
</trkpt>
<trkpt lat="40.071061" lon="-105.2300196">
  <ele>1583.0</ele>
  <time>2026-08-28T17:49:49Z</time>
  <course>165.35</course>
  <speed>1.45</speed>
  <fix>3d</fix>
</trkpt>
<trkpt lat="40.0710586" lon="-105.2300189">
  <ele>1583.01</ele>
  <time>2026-08-28T17:49:49Z</time>
  <course>166.98</course>
  <speed>1.1641735265844178</speed>
  <fix>3d</fix>
</trkpt>
<trkpt lat="40.071061" lon="-105.2300196">
  <ele>1583.0</ele>
  <time>2026-08-28T17:49:49Z</time>
  <course>165.35</course>
  <speed>1.45</speed>
  <fix>3d</fix>
</trkpt>
<trkpt lat="40.0710576" lon="-105.2300186">
  <ele>1583.01</ele>
  <time>2026-08-28T17:49:49Z</time>
  <course>167.06</course>
  <speed>1.0623088063270492</speed>
  <fix>3d</fix>
</trkpt>
<trkpt lat="40.0710587" lon="-105.2300188">
  <ele>1583.0</ele>
  <time>2026-08-28T17:49:49Z</time>
  <course>165.57</course>
  <speed>1.23</speed>
  <fix>3d</fix>
</trkpt>
<trkpt lat="40.0710567" lon="-105.2300183">
  <ele>1583.01</ele>
  <time>2026-08-28T17:49:49Z</time>
  <course>167.12</course>
  <speed>0.9677293009927931</speed>
  <fix>3d</fix>
</trkpt>
<trkpt lat="40.0710587" lon="-105.2300188">
  <ele>1583.0</ele>
  <time>2026-08-28T17:49:49Z</time>
  <course>165.57</course>
  <speed>1.23</speed>
  <fix>3d</fix>
</trkpt>
<trkpt lat="40.0710558" lon="-105.230018">
  <ele>1583.01</ele>
  <time>2026-08-28T17:49:49Z</time>
  <course>167.15</course>
  <speed>0.8852683209061533</speed>
  <fix>3d</fix>
</trkpt>
<trkpt lat="40.0710567" lon="-105.2300181">
  <ele>1583.0</ele>
  <time>2026-08-28T17:49:49Z</time>
  <course>165.71</course>
  <speed>1.03</speed>
  <fix>3d</fix>
</trkpt>
<trkpt lat="40.0710551" lon="-105.2300177">
  <ele>1583.01</ele>
  <time>2026-08-28T17:49:49Z</time>
  <course>167.15</course>
  <speed>0.8246211251235321</speed>
  <fix>3d</fix>
</trkpt>
<trkpt lat="40.0710567" lon="-105.2300181">
  <ele>1583.0</ele>
  <time>2026-08-28T17:49:49Z</time>
  <course>165.71</course>
  <speed>1.03</speed>
  <fix>3d</fix>
</trkpt>
<trkpt lat="40.0710543" lon="-105.2300175">
  <ele>1583.01</ele>
  <time>2026-08-28T17:49:49Z</time>
  <course>167.15</course>
  <speed>0.7615773105863909</speed>
  <fix>3d</fix>
</trkpt>
<trkpt lat="40.0710551" lon="-105.2300176">
  <ele>1583.0</ele>
  <time>2026-08-28T17:49:49Z</time>
  <course>165.76</course>
  <speed>0.89</speed>
  <fix>3d</fix>
</trkpt>
<trkpt lat="40.0710537" lon="-105.2300172">
  <ele>1583.01</ele>
  <time>2026-08-28T17:49:49Z</time>
  <course>167.15</course>
  <speed>0.7203471385380802</speed>
  <fix>3d</fix>
</trkpt>
<trkpt lat="40.0710551" lon="-105.2300176">
  <ele>1583.0</ele>
  <time>2026-08-28T17:49:49Z</time>
  <course>165.76</course>
  <speed>0.89</speed>
  <fix>3d</fix>
</trkpt>
<trkpt lat="40.071053" lon="-105.230017">
  <ele>1583.01</ele>
  <time>2026-08-28T17:49:49Z</time>
  <course>167.13</course>
  <speed>0.688839603971781</speed>
  <fix>3d</fix>
</trkpt>
<trkpt lat="40.0710537" lon="-105.2300171">
  <ele>1583.0</ele>
  <time>2026-08-28T17:49:49Z</time>
  <course>165.76</course>
  <speed>0.79</speed>
  <fix>3d</fix>
</trkpt>
<trkpt lat="40.0710524" lon="-105.2300168">
  <ele>1583.0</ele>
  <time>2026-08-28T17:49:49Z</time>
  <course>167.11</course>
  <speed>0.6694027188471824</speed>
  <fix>3d</fix>
</trkpt>
<trkpt lat="40.0710537" lon="-105.2300171">
  <ele>1583.0</ele>
  <time>2026-08-28T17:49:49Z</time>
  <course>165.76</course>
  <speed>0.79</speed>
  <fix>3d</fix>
</trkpt>
<trkpt lat="40.0710518" lon="-105.2300166">
  <ele>1583.0</ele>
  <time>2026-08-28T17:49:49Z</time>
  <course>167.07</course>
  <speed>0.6573431371817918</speed>
  <fix>3d</fix>
</trkpt>
<trkpt lat="40.0710537" lon="-105.2300171">
  <ele>1583.0</ele>
  <time>2026-08-28T17:49:49Z</time>
  <course>165.76</course>
  <speed>0.79</speed>
  <fix>3d</fix>
</trkpt>
<trkpt lat="40.0710512" lon="-105.2300164">
  <ele>1583.0</ele>
  <time>2026-08-28T17:49:49Z</time>
  <course>167.03</course>
  <speed>0.6476109943476871</speed>
  <fix>3d</fix>
</trkpt>
<trkpt lat="40.0710523" lon="-105.2300167">
  <ele>1583.0</ele>
  <time>2026-08-28T17:49:49Z</time>
  <course>165.72</course>
  <speed>0.74</speed>
  <fix>3d</fix>
</trkpt>
<trkpt lat="40.0710506" lon="-105.2300162">
  <ele>1583.0</ele>
  <time>2026-08-28T17:49:49Z</time>
  <course>166.98</course>
  <speed>0.6573431371817918</speed>
  <fix>3d</fix>
</trkpt>
<trkpt lat="40.0710523" lon="-105.2300167">
  <ele>1583.0</ele>
  <time>2026-08-28T17:49:49Z</time>
  <course>165.72</course>
  <speed>0.74</speed>
  <fix>3d</fix>
</trkpt>
<trkpt lat="40.0710499" lon="-105.230016">
  <ele>1583.0</ele>
  <time>2026-08-28T17:49:49Z</time>
  <course>166.92</course>
  <speed>0.6670832032063168</speed>
  <fix>3d</fix>
</trkpt>
<trkpt lat="40.071051" lon="-105.2300162">
  <ele>1583.0</ele>
  <time>2026-08-28T17:49:49Z</time>
  <course>165.64</course>
  <speed>0.72</speed>
  <fix>3d</fix>
</trkpt>
<trkpt lat="40.0710493" lon="-105.2300158">
  <ele>1583.0</ele>
  <time>2026-08-28T17:49:49Z</time>
  <course>166.85</course>
  <speed>0.6768308503607087</speed>
  <fix>3d</fix>
</trkpt>
<trkpt lat="40.071051" lon="-105.2300162">
  <ele>1583.0</ele>
  <time>2026-08-28T17:49:49Z</time>
  <course>165.64</course>
  <speed>0.72</speed>
  <fix>3d</fix>
</trkpt>
<trkpt lat="40.0710487" lon="-105.2300156">
  <ele>1582.99</ele>
  <time>2026-08-28T17:49:49Z</time>
  <course>166.78</course>
  <speed>0.6985699678629191</speed>
  <fix>3d</fix>
</trkpt>
<trkpt lat="40.0710497" lon="-105.2300159">
  <ele>1583.0</ele>
  <time>2026-08-28T17:49:49Z</time>
  <course>165.53</course>
  <speed>0.73</speed>
  <fix>3d</fix>
</trkpt>
<trkpt lat="40.071048" lon="-105.2300154">
  <ele>1582.99</ele>
  <time>2026-08-28T17:49:49Z</time>
  <course>166.69</course>
  <speed>0.7180529228406496</speed>
  <fix>3d</fix>
</trkpt>
<trkpt lat="40.0710484" lon="-105.2300154">
  <ele>1583.0</ele>
  <time>2026-08-28T17:49:49Z</time>
  <course>165.39</course>
  <speed>0.76</speed>
  <fix>3d</fix>
</trkpt>
<trkpt lat="40.0710473" lon="-105.2300152">
  <ele>1582.99</ele>
  <time>2026-08-28T17:49:49Z</time>
  <course>166.61</course>
  <speed>0.7495331880577403</speed>
  <fix>3d</fix>
</trkpt>
<trkpt lat="40.0710484" lon="-105.2300154">
  <ele>1583.0</ele>
  <time>2026-08-28T17:49:49Z</time>
  <course>165.39</course>
  <speed>0.76</speed>
  <fix>3d</fix>
</trkpt>
<trkpt lat="40.0710466" lon="-105.2300149">
  <ele>1582.99</ele>
  <time>2026-08-28T17:49:49Z</time>
  <course>166.52</course>
  <speed>0.7690253571892152</speed>
  <fix>3d</fix>
</trkpt>
<trkpt lat="40.0710471" lon="-105.2300149">
  <ele>1583.0</ele>
  <time>2026-08-28T17:49:49Z</time>
  <course>165.23</course>
  <speed>0.8</speed>
  <fix>3d</fix>
</trkpt>
<trkpt lat="40.0710458" lon="-105.2300147">
  <ele>1582.98</ele>
  <time>2026-08-28T17:49:49Z</time>
  <course>166.42</course>
  <speed>0.8004998438475801</speed>
  <fix>3d</fix>
</trkpt>
<trkpt lat="40.0710471" lon="-105.2300149">
  <ele>1583.0</ele>
  <time>2026-08-28T17:49:49Z</time>
  <course>165.23</course>
  <speed>0.8</speed>
  <fix>3d</fix>
</trkpt>
<trkpt lat="40.0710451" lon="-105.2300145">
  <ele>1582.98</ele>
  <time>2026-08-28T17:49:49Z</time>
  <course>166.34</course>
  <speed>0.82</speed>
  <fix>3d</fix>
</trkpt>
<trkpt lat="40.0710456" lon="-105.2300144">
  <ele>1583.0</ele>
  <time>2026-08-28T17:49:49Z</time>
  <course>165.05</course>
  <speed>0.85</speed>
  <fix>3d</fix>
</trkpt>
<trkpt lat="40.0710443" lon="-105.2300142">
  <ele>1582.98</ele>
  <time>2026-08-28T17:49:49Z</time>
  <course>166.26</course>
  <speed>0.8514693182963201</speed>
  <fix>3d</fix>
</trkpt>
<trkpt lat="40.0710456" lon="-105.2300144">
  <ele>1583.0</ele>
  <time>2026-08-28T17:49:49Z</time>
  <course>165.05</course>
  <speed>0.85</speed>
  <fix>3d</fix>
</trkpt>
<trkpt lat="40.0710435" lon="-105.2300139">
  <ele>1582.98</ele>
  <time>2026-08-28T17:49:49Z</time>
  <course>166.17</course>
  <speed>0.873212459828649</speed>
  <fix>3d</fix>
</trkpt>
<trkpt lat="40.0710441" lon="-105.2300139">
  <ele>1583.0</ele>
  <time>2026-08-28T17:49:49Z</time>
  <course>164.88</course>
  <speed>0.9</speed>
  <fix>3d</fix>
</trkpt>
<trkpt lat="40.0710427" lon="-105.2300136">
  <ele>1582.98</ele>
  <time>2026-08-28T17:49:49Z</time>
  <course>166.08</course>
  <speed>0.9024411338142783</speed>
  <fix>3d</fix>
</trkpt>
<trkpt lat="40.0710441" lon="-105.2300139">
  <ele>1583.0</ele>
  <time>2026-08-28T17:49:49Z</time>
  <course>164.88</course>
  <speed>0.9</speed>
  <fix>3d</fix>
</trkpt>
<trkpt lat="40.0710418" lon="-105.2300133">
  <ele>1582.97</ele>
  <time>2026-08-28T17:49:49Z</time>
  <course>166.0</course>
  <speed>0.9241753080449618</speed>
  <fix>3d</fix>
</trkpt>
<trkpt lat="40.0710425" lon="-105.2300133">
  <ele>1583.0</ele>
  <time>2026-08-28T17:49:49Z</time>
  <course>164.71</course>
  <speed>0.95</speed>
  <fix>3d</fix>
</trkpt>
<trkpt lat="40.0710409" lon="-105.230013">
  <ele>1582.97</ele>
  <time>2026-08-28T17:49:49Z</time>
  <course>165.91</course>
  <speed>0.9436630754670864</speed>
  <fix>3d</fix>
</trkpt>
<trkpt lat="40.0710425" lon="-105.2300133">
  <ele>1583.0</ele>
  <time>2026-08-28T17:49:49Z</time>
  <course>164.71</course>
  <speed>0.95</speed>
  <fix>3d</fix>
</trkpt>
<trkpt lat="40.07104" lon="-105.2300127">
  <ele>1582.97</ele>
  <time>2026-08-28T17:49:49Z</time>
  <course>165.84</course>
  <speed>0.9654014708917736</speed>
  <fix>3d</fix>
</trkpt>
<trkpt lat="40.0710408" lon="-105.2300128">
  <ele>1583.0</ele>
  <time>2026-08-28T17:49:49Z</time>
  <course>164.55</course>
  <speed>0.99</speed>
  <fix>3d</fix>
</trkpt>
<trkpt lat="40.0710391" lon="-105.2300124">
  <ele>1582.97</ele>
  <time>2026-08-28T17:49:49Z</time>
  <course>165.76</course>
  <speed>0.9871676655968833</speed>
  <fix>3d</fix>
</trkpt>
<trkpt lat="40.0710408" lon="-105.2300128">
  <ele>1583.0</ele>
  <time>2026-08-28T17:49:49Z</time>
  <course>164.55</course>
  <speed>0.99</speed>
  <fix>3d</fix>
</trkpt>
<trkpt lat="40.0710382" lon="-105.2300121">
  <ele>1582.97</ele>
  <time>2026-08-28T17:49:49Z</time>
  <course>165.69</course>
  <speed>0.9968951800465282</speed>
  <fix>3d</fix>
</trkpt>
<trkpt lat="40.071039" lon="-105.2300121">
  <ele>1583.0</ele>
  <time>2026-08-28T17:49:49Z</time>
  <course>164.4</course>
  <speed>1.02</speed>
  <fix>3d</fix>
</trkpt>
<trkpt lat="40.0710373" lon="-105.2300118">
  <ele>1582.98</ele>
  <time>2026-08-28T17:49:49Z</time>
  <course>165.63</course>
  <speed>1.006628034578811</speed>
  <fix>3d</fix>
</trkpt>
<trkpt lat="40.071039" lon="-105.2300121">
  <ele>1583.0</ele>
  <time>2026-08-28T17:49:49Z</time>
  <course>164.4</course>
  <speed>1.02</speed>
  <fix>3d</fix>
</trkpt>
<trkpt lat="40.0710364" lon="-105.2300115">
  <ele>1582.98</ele>
  <time>2026-08-28T17:49:49Z</time>
  <course>165.57</course>
  <speed>1.0186756107809787</speed>
  <fix>3d</fix>
</trkpt>
<trkpt lat="40.071039" lon="-105.2300121">
  <ele>1583.0</ele>
  <time>2026-08-28T17:49:49Z</time>
  <course>164.4</course>
  <speed>1.02</speed>
  <fix>3d</fix>
</trkpt>
<trkpt lat="40.0710354" lon="-105.2300111">
  <ele>1582.98</ele>
  <time>2026-08-28T17:49:49Z</time>
  <course>165.51</course>
  <speed>1.0283968105745953</speed>
  <fix>3d</fix>
</trkpt>
<trkpt lat="40.0710373" lon="-105.2300114">
  <ele>1583.0</ele>
  <time>2026-08-28T17:49:49Z</time>
  <course>164.27</course>
  <speed>1.04</speed>
  <fix>3d</fix>
</trkpt>
<trkpt lat="40.0710345" lon="-105.2300108">
  <ele>1582.98</ele>
  <time>2026-08-28T17:49:49Z</time>
  <course>165.47</course>
  <speed>1.0381233067415452</speed>
  <fix>3d</fix>
</trkpt>
<trkpt lat="40.0710373" lon="-105.2300114">
  <ele>1583.0</ele>
  <time>2026-08-28T17:49:49Z</time>
  <course>164.27</course>
  <speed>1.04</speed>
  <fix>3d</fix>
</trkpt>
<trkpt lat="40.0710336" lon="-105.2300105">
  <ele>1582.99</ele>
  <time>2026-08-28T17:49:49Z</time>
  <course>165.42</course>
  <speed>1.0381233067415452</speed>
  <fix>3d</fix>
</trkpt>
<trkpt lat="40.0710354" lon="-105.2300108">
  <ele>1583.0</ele>
  <time>2026-08-28T17:49:49Z</time>
  <course>164.17</course>
  <speed>1.06</speed>
  <fix>3d</fix>
</trkpt>
<trkpt lat="40.0710326" lon="-105.2300101">
  <ele>1582.99</ele>
  <time>2026-08-28T17:49:50Z</time>
  <course>165.39</course>
  <speed>1.0381233067415452</speed>
  <fix>3d</fix>
</trkpt>
<trkpt lat="40.0710354" lon="-105.2300108">
  <ele>1583.0</ele>
  <time>2026-08-28T17:49:50Z</time>
  <course>164.17</course>
  <speed>1.06</speed>
  <fix>3d</fix>
</trkpt>
<trkpt lat="40.0710317" lon="-105.2300098">
  <ele>1582.99</ele>
  <time>2026-08-28T17:49:50Z</time>
  <course>165.36</course>
  <speed>1.0404806581575652</speed>
  <fix>3d</fix>
</trkpt>
<trkpt lat="40.0710335" lon="-105.2300101">
  <ele>1583.0</ele>
  <time>2026-08-28T17:49:50Z</time>
  <course>164.08</course>
  <speed>1.07</speed>
  <fix>3d</fix>
</trkpt>
<trkpt lat="40.0710308" lon="-105.2300094">
  <ele>1583.0</ele>
  <time>2026-08-28T17:49:50Z</time>
  <course>165.34</course>
  <speed>1.0404806581575652</speed>
  <fix>3d</fix>
</trkpt>
<trkpt lat="40.0710335" lon="-105.2300101">
  <ele>1583.0</ele>
  <time>2026-08-28T17:49:50Z</time>
  <course>164.08</course>
  <speed>1.07</speed>
  <fix>3d</fix>
</trkpt>
<trkpt lat="40.0710298" lon="-105.2300091">
  <ele>1583.0</ele>
  <time>2026-08-28T17:49:50Z</time>
  <course>165.32</course>
  <speed>1.0404806581575652</speed>
  <fix>3d</fix>
</trkpt>
<trkpt lat="40.0710317" lon="-105.2300094">
  <ele>1583.0</ele>
  <time>2026-08-28T17:49:50Z</time>
  <course>164.03</course>
  <speed>1.07</speed>
  <fix>3d</fix>
</trkpt>
<trkpt lat="40.0710289" lon="-105.2300088">
  <ele>1583.0</ele>
  <time>2026-08-28T17:49:50Z</time>
  <course>165.3</course>
  <speed>1.0404806581575652</speed>
  <fix>3d</fix>
</trkpt>
<trkpt lat="40.0710299" lon="-105.2300087">
  <ele>1583.0</ele>
  <time>2026-08-28T17:49:50Z</time>
  <course>163.99</course>
  <speed>1.07</speed>
  <fix>3d</fix>
</trkpt>
<trkpt lat="40.0710279" lon="-105.2300084">
  <ele>1583.0</ele>
  <time>2026-08-28T17:49:50Z</time>
  <course>165.3</course>
  <speed>1.0404806581575652</speed>
  <fix>3d</fix>
</trkpt>
<trkpt lat="40.0710299" lon="-105.2300087">
  <ele>1583.0</ele>
  <time>2026-08-28T17:49:50Z</time>
  <course>163.99</course>
  <speed>1.07</speed>
  <fix>3d</fix>
</trkpt>
<trkpt lat="40.071027" lon="-105.2300081">
  <ele>1583.0</ele>
  <time>2026-08-28T17:49:50Z</time>
  <course>165.29</course>
  <speed>1.0404806581575652</speed>
  <fix>3d</fix>
</trkpt>
<trkpt lat="40.071028" lon="-105.230008">
  <ele>1583.0</ele>
  <time>2026-08-28T17:49:50Z</time>
  <course>163.97</course>
  <speed>1.07</speed>
  <fix>3d</fix>
</trkpt>
<trkpt lat="40.0710261" lon="-105.2300077">
  <ele>1583.0</ele>
  <time>2026-08-28T17:49:50Z</time>
  <course>165.29</course>
  <speed>1.0404806581575652</speed>
  <fix>3d</fix>
</trkpt>
<trkpt lat="40.071028" lon="-105.230008">
  <ele>1583.0</ele>
  <time>2026-08-28T17:49:50Z</time>
  <course>163.97</course>
  <speed>1.07</speed>
  <fix>3d</fix>
</trkpt>
<trkpt lat="40.0710252" lon="-105.2300074">
  <ele>1583.0</ele>
  <time>2026-08-28T17:49:50Z</time>
  <course>165.28</course>
  <speed>1.0307764064044151</speed>
  <fix>3d</fix>
</trkpt>
<trkpt lat="40.0710261" lon="-105.2300073">
  <ele>1583.0</ele>
  <time>2026-08-28T17:49:50Z</time>
  <course>163.97</course>
  <speed>1.06</speed>
  <fix>3d</fix>
</trkpt>
<trkpt lat="40.0710242" lon="-105.230007">
  <ele>1583.0</ele>
  <time>2026-08-28T17:49:50Z</time>
  <course>165.28</course>
  <speed>1.0307764064044151</speed>
  <fix>3d</fix>
</trkpt>
<trkpt lat="40.0710261" lon="-105.2300073">
  <ele>1583.0</ele>
  <time>2026-08-28T17:49:50Z</time>
  <course>163.97</course>
  <speed>1.06</speed>
  <fix>3d</fix>
</trkpt>
<trkpt lat="40.0710233" lon="-105.2300067">
  <ele>1583.01</ele>
  <time>2026-08-28T17:49:50Z</time>
  <course>165.28</course>
  <speed>1.0186756107809787</speed>
  <fix>3d</fix>
</trkpt>
<trkpt lat="40.0710243" lon="-105.2300066">
  <ele>1583.0</ele>
  <time>2026-08-28T17:49:50Z</time>
  <course>163.97</course>
  <speed>1.05</speed>
  <fix>3d</fix>
</trkpt>
<trkpt lat="40.0710224" lon="-105.2300063">
  <ele>1583.01</ele>
  <time>2026-08-28T17:49:50Z</time>
  <course>165.26</course>
  <speed>1.0186756107809787</speed>
  <fix>3d</fix>
</trkpt>
<trkpt lat="40.0710243" lon="-105.2300066">
  <ele>1583.0</ele>
  <time>2026-08-28T17:49:50Z</time>
  <course>163.97</course>
  <speed>1.05</speed>
  <fix>3d</fix>
</trkpt>
<trkpt lat="40.0710215" lon="-105.230006">
  <ele>1583.01</ele>
  <time>2026-08-28T17:49:50Z</time>
  <course>165.04</course>
  <speed>1.021077861869505</speed>
  <fix>3d</fix>
</trkpt>
<trkpt lat="40.0710225" lon="-105.2300059">
  <ele>1583.0</ele>
  <time>2026-08-28T17:49:50Z</time>
  <course>163.86</course>
  <speed>1.04</speed>
  <fix>3d</fix>
</trkpt>
<trkpt lat="40.0710206" lon="-105.2300056">
  <ele>1583.01</ele>
  <time>2026-08-28T17:49:50Z</time>
  <course>164.43</course>
  <speed>1.0139033484509261</speed>
  <fix>3d</fix>
</trkpt>
<trkpt lat="40.0710225" lon="-105.2300059">
  <ele>1583.0</ele>
  <time>2026-08-28T17:49:50Z</time>
  <course>163.86</course>
  <speed>1.04</speed>
  <fix>3d</fix>
</trkpt>
<trkpt lat="40.0710197" lon="-105.2300052">
  <ele>1583.01</ele>
  <time>2026-08-28T17:49:50Z</time>
  <course>163.44</course>
  <speed>1.009603882718366</speed>
  <fix>3d</fix>
</trkpt>
<trkpt lat="40.0710207" lon="-105.2300052">
  <ele>1583.0</ele>
  <time>2026-08-28T17:49:50Z</time>
  <course>162.95</course>
  <speed>1.03</speed>
  <fix>3d</fix>
</trkpt>
<trkpt lat="40.0710188" lon="-105.2300048">
  <ele>1583.01</ele>
  <time>2026-08-28T17:49:50Z</time>
  <course>162.04</course>
  <speed>1.0057832768544126</speed>
  <fix>3d</fix>
</trkpt>
<trkpt lat="40.0710207" lon="-105.2300052">
  <ele>1583.0</ele>
  <time>2026-08-28T17:49:50Z</time>
  <course>162.95</course>
  <speed>1.03</speed>
  <fix>3d</fix>
</trkpt>
<trkpt lat="40.0710179" lon="-105.2300044">
  <ele>1583.01</ele>
  <time>2026-08-28T17:49:50Z</time>
  <course>160.22</course>
  <speed>1.00568384694197</speed>
  <fix>3d</fix>
</trkpt>
<trkpt lat="40.0710189" lon="-105.2300045">
  <ele>1583.0</ele>
  <time>2026-08-28T17:49:50Z</time>
  <course>160.54</course>
  <speed>1.03</speed>
  <fix>3d</fix>
</trkpt>
<trkpt lat="40.071017" lon="-105.2300039">
  <ele>1583.02</ele>
  <time>2026-08-28T17:49:50Z</time>
  <course>157.93</course>
  <speed>1.0008995953640905</speed>
  <fix>3d</fix>
</trkpt>
<trkpt lat="40.0710189" lon="-105.2300045">
  <ele>1583.0</ele>
  <time>2026-08-28T17:49:50Z</time>
  <course>160.54</course>
  <speed>1.03</speed>
  <fix>3d</fix>
</trkpt>
<trkpt lat="40.0710162" lon="-105.2300034">
  <ele>1583.02</ele>
  <time>2026-08-28T17:49:50Z</time>
  <course>155.15</course>
  <speed>0.9980981915623331</speed>
  <fix>3d</fix>
</trkpt>
<trkpt lat="40.0710189" lon="-105.2300045">
  <ele>1583.0</ele>
  <time>2026-08-28T17:49:50Z</time>
  <course>160.54</course>
  <speed>1.03</speed>
  <fix>3d</fix>
</trkpt>
<trkpt lat="40.0710154" lon="-105.2300028">
  <ele>1583.02</ele>
  <time>2026-08-28T17:49:50Z</time>
  <course>151.82</course>
  <speed>0.9976472322419383</speed>
  <fix>3d</fix>
</trkpt>
<trkpt lat="40.0710172" lon="-105.2300036">
  <ele>1583.0</ele>
  <time>2026-08-28T17:49:50Z</time>
  <course>156.39</course>
  <speed>1.02</speed>
  <fix>3d</fix>
</trkpt>
<trkpt lat="40.0710146" lon="-105.2300022">
  <ele>1583.02</ele>
  <time>2026-08-28T17:49:50Z</time>
  <course>147.97</course>
  <speed>0.9879271228182774</speed>
  <fix>3d</fix>
</trkpt>
<trkpt lat="40.0710172" lon="-105.2300036">
  <ele>1583.0</ele>
  <time>2026-08-28T17:49:50Z</time>
  <course>156.39</course>
  <speed>1.02</speed>
  <fix>3d</fix>
</trkpt>
<trkpt lat="40.0710139" lon="-105.2300015">
  <ele>1583.02</ele>
  <time>2026-08-28T17:49:50Z</time>
  <course>143.67</course>
  <speed>0.9720082304178294</speed>
  <fix>3d</fix>
</trkpt>
<trkpt lat="40.0710155" lon="-105.2300025">
  <ele>1583.0</ele>
  <time>2026-08-28T17:49:50Z</time>
  <course>150.26</course>
  <speed>1.01</speed>
  <fix>3d</fix>
</trkpt>
<trkpt lat="40.0710132" lon="-105.2300008">
  <ele>1583.02</ele>
  <time>2026-08-28T17:49:50Z</time>
  <course>139.0</course>
  <speed>0.9492101980067429</speed>
  <fix>3d</fix>
</trkpt>
<trkpt lat="40.0710155" lon="-105.2300025">
  <ele>1583.0</ele>
  <time>2026-08-28T17:49:50Z</time>
  <course>150.26</course>
  <speed>1.01</speed>
  <fix>3d</fix>
</trkpt>
<trkpt lat="40.0710126" lon="-105.2299999">
  <ele>1583.02</ele>
  <time>2026-08-28T17:49:50Z</time>
  <course>134.06</course>
  <speed>0.9265527507918802</speed>
  <fix>3d</fix>
</trkpt>
<trkpt lat="40.0710141" lon="-105.2300012">
  <ele>1583.0</ele>
  <time>2026-08-28T17:49:50Z</time>
  <course>142.24</course>
  <speed>0.98</speed>
  <fix>3d</fix>
</trkpt>
<trkpt lat="40.0710121" lon="-105.2299991">
  <ele>1583.02</ele>
  <time>2026-08-28T17:49:50Z</time>
  <course>129.15</course>
  <speed>0.8964373932405988</speed>
  <fix>3d</fix>
</trkpt>
<trkpt lat="40.0710128" lon="-105.2299996">
  <ele>1583.0</ele>
  <time>2026-08-28T17:49:50Z</time>
  <course>132.9</course>
  <speed>0.94</speed>
  <fix>3d</fix>
</trkpt>
<trkpt lat="40.0710116" lon="-105.2299982">
  <ele>1583.02</ele>
  <time>2026-08-28T17:49:50Z</time>
  <course>124.7</course>
  <speed>0.8792041856133307</speed>
  <fix>3d</fix>
</trkpt>
<trkpt lat="40.0710128" lon="-105.2299996">
  <ele>1583.0</ele>
  <time>2026-08-28T17:49:50Z</time>
  <course>132.9</course>
  <speed>0.94</speed>
  <fix>3d</fix>
</trkpt>
<trkpt lat="40.0710112" lon="-105.2299972">
  <ele>1583.01</ele>
  <time>2026-08-28T17:49:50Z</time>
  <course>120.74</course>
  <speed>0.8595929269136642</speed>
  <fix>3d</fix>
</trkpt>
<trkpt lat="40.0710117" lon="-105.229998">
  <ele>1583.0</ele>
  <time>2026-08-28T17:49:50Z</time>
  <course>123.77</course>
  <speed>0.9</speed>
  <fix>3d</fix>
</trkpt>
<trkpt lat="40.0710108" lon="-105.2299963">
  <ele>1583.01</ele>
  <time>2026-08-28T17:49:50Z</time>
  <course>117.28</course>
  <speed>0.8452810183601664</speed>
  <fix>3d</fix>
</trkpt>
<trkpt lat="40.0710117" lon="-105.229998">
  <ele>1583.0</ele>
  <time>2026-08-28T17:49:50Z</time>
  <course>123.77</course>
  <speed>0.9</speed>
  <fix>3d</fix>
</trkpt>
<trkpt lat="40.0710105" lon="-105.2299954">
  <ele>1583.01</ele>
  <time>2026-08-28T17:49:50Z</time>
  <course>114.25</course>
  <speed>0.8338465086573187</speed>
  <fix>3d</fix>
</trkpt>
<trkpt lat="40.071011" lon="-105.2299961">
  <ele>1583.0</ele>
  <time>2026-08-28T17:49:50Z</time>
  <course>116.26</course>
  <speed>0.86</speed>
  <fix>3d</fix>
</trkpt>
<trkpt lat="40.0710103" lon="-105.2299944">
  <ele>1583.01</ele>
  <time>2026-08-28T17:49:50Z</time>
  <course>111.66</course>
  <speed>0.8287339742040264</speed>
  <fix>3d</fix>
</trkpt>
<trkpt lat="40.071011" lon="-105.2299961">
  <ele>1583.0</ele>
  <time>2026-08-28T17:49:50Z</time>
  <course>116.26</course>
  <speed>0.86</speed>
  <fix>3d</fix>
</trkpt>
<trkpt lat="40.07101" lon="-105.2299934">
  <ele>1583.0</ele>
  <time>2026-08-28T17:49:50Z</time>
  <course>109.5</course>
  <speed>0.8381527307120105</speed>
  <fix>3d</fix>
</trkpt>
<trkpt lat="40.0710103" lon="-105.2299943">
  <ele>1583.0</ele>
  <time>2026-08-28T17:49:50Z</time>
  <course>110.59</course>
  <speed>0.85</speed>
  <fix>3d</fix>
</trkpt>
<trkpt lat="40.0710098" lon="-105.2299924">
  <ele>1583.0</ele>
  <time>2026-08-28T17:49:50Z</time>
  <course>107.75</course>
  <speed>0.8420213774008353</speed>
  <fix>3d</fix>
</trkpt>
<trkpt lat="40.0710103" lon="-105.2299943">
  <ele>1583.0</ele>
  <time>2026-08-28T17:49:50Z</time>
  <course>110.59</course>
  <speed>0.85</speed>
  <fix>3d</fix>
</trkpt>
<trkpt lat="40.0710096" lon="-105.2299914">
  <ele>1583.0</ele>
  <time>2026-08-28T17:49:50Z</time>
  <course>106.44</course>
  <speed>0.8464632301523793</speed>
  <fix>3d</fix>
</trkpt>
<trkpt lat="40.0710098" lon="-105.2299924">
  <ele>1583.0</ele>
  <time>2026-08-28T17:49:50Z</time>
  <course>106.68</course>
  <speed>0.86</speed>
  <fix>3d</fix>
</trkpt>
<trkpt lat="40.0710094" lon="-105.2299904">
  <ele>1583.0</ele>
  <time>2026-08-28T17:49:50Z</time>
  <course>105.55</course>
  <speed>0.863481325796916</speed>
  <fix>3d</fix>
</trkpt>
<trkpt lat="40.0710098" lon="-105.2299924">
  <ele>1583.0</ele>
  <time>2026-08-28T17:49:50Z</time>
  <course>106.68</course>
  <speed>0.86</speed>
  <fix>3d</fix>
</trkpt>
<trkpt lat="40.0710092" lon="-105.2299894">
  <ele>1582.99</ele>
  <time>2026-08-28T17:49:50Z</time>
  <course>105.1</course>
  <speed>0.873212459828649</speed>
  <fix>3d</fix>
</trkpt>
<trkpt lat="40.0710095" lon="-105.2299905">
  <ele>1583.0</ele>
  <time>2026-08-28T17:49:50Z</time>
  <course>104.49</course>
  <speed>0.87</speed>
  <fix>3d</fix>
</trkpt>
<trkpt lat="40.0710091" lon="-105.2299883">
  <ele>1582.99</ele>
  <time>2026-08-28T17:49:50Z</time>
  <course>104.83</course>
  <speed>0.8829496021857647</speed>
  <fix>3d</fix>
</trkpt>
<trkpt lat="40.0710095" lon="-105.2299905">
  <ele>1583.0</ele>
  <time>2026-08-28T17:49:50Z</time>
  <course>104.49</course>
  <speed>0.87</speed>
  <fix>3d</fix>
</trkpt>
<trkpt lat="40.0710089" lon="-105.2299873">
  <ele>1582.99</ele>
  <time>2026-08-28T17:49:50Z</time>
  <course>104.57</course>
  <speed>0.9024411338142783</speed>
  <fix>3d</fix>
</trkpt>
<trkpt lat="40.0710091" lon="-105.2299884">
  <ele>1583.0</ele>
  <time>2026-08-28T17:49:50Z</time>
  <course>103.56</course>
  <speed>0.89</speed>
  <fix>3d</fix>
</trkpt>
<trkpt lat="40.0710087" lon="-105.2299862">
  <ele>1582.99</ele>
  <time>2026-08-28T17:49:50Z</time>
  <course>104.33</course>
  <speed>0.9121951545584969</speed>
  <fix>3d</fix>
</trkpt>
<trkpt lat="40.0710091" lon="-105.2299884">
  <ele>1583.0</ele>
  <time>2026-08-28T17:49:50Z</time>
  <course>103.56</course>
  <speed>0.89</speed>
  <fix>3d</fix>
</trkpt>
<trkpt lat="40.0710085" lon="-105.2299851">
  <ele>1582.99</ele>
  <time>2026-08-28T17:49:50Z</time>
  <course>104.1</course>
  <speed>0.9198369420718001</speed>
  <fix>3d</fix>
</trkpt>
<trkpt lat="40.0710091" lon="-105.2299884">
  <ele>1583.0</ele>
  <time>2026-08-28T17:49:50Z</time>
  <course>103.56</course>
  <speed>0.89</speed>
  <fix>3d</fix>
</trkpt>
<trkpt lat="40.0710083" lon="-105.229984">
  <ele>1582.99</ele>
  <time>2026-08-28T17:49:50Z</time>
  <course>103.89</course>
  <speed>0.929623579735368</speed>
  <fix>3d</fix>
</trkpt>
<trkpt lat="40.0710086" lon="-105.2299864">
  <ele>1583.0</ele>
  <time>2026-08-28T17:49:50Z</time>
  <course>103.06</course>
  <speed>0.92</speed>
  <fix>3d</fix>
</trkpt>
<trkpt lat="40.0710081" lon="-105.2299829">
  <ele>1582.99</ele>
  <time>2026-08-28T17:49:50Z</time>
  <course>103.68</course>
  <speed>0.9394147114027968</speed>
  <fix>3d</fix>
</trkpt>
<trkpt lat="40.0710086" lon="-105.2299864">
  <ele>1583.0</ele>
  <time>2026-08-28T17:49:50Z</time>
  <course>103.06</course>
  <speed>0.92</speed>
  <fix>3d</fix>
</trkpt>
<trkpt lat="40.071008" lon="-105.2299818">
  <ele>1582.99</ele>
  <time>2026-08-28T17:49:50Z</time>
  <course>103.49</course>
  <speed>0.9492101980067429</speed>
  <fix>3d</fix>
</trkpt>
<trkpt lat="40.0710083" lon="-105.2299842">
  <ele>1583.0</ele>
  <time>2026-08-28T17:49:50Z</time>
  <course>102.62</course>
  <speed>0.94</speed>
  <fix>3d</fix>
</trkpt>
<trkpt lat="40.0710078" lon="-105.2299807">
  <ele>1582.99</ele>
  <time>2026-08-28T17:49:50Z</time>
  <course>103.31</course>
  <speed>0.9590099061010788</speed>
  <fix>3d</fix>
</trkpt>
<trkpt lat="40.0710083" lon="-105.2299842">
  <ele>1583.0</ele>
  <time>2026-08-28T17:49:50Z</time>
  <course>102.62</course>
  <speed>0.94</speed>
  <fix>3d</fix>
</trkpt>
<trkpt lat="40.0710076" lon="-105.2299796">
  <ele>1582.99</ele>
  <time>2026-08-28T17:49:50Z</time>
  <course>103.14</course>
  <speed>0.9590099061010788</speed>
  <fix>3d</fix>
</trkpt>
<trkpt lat="40.071008" lon="-105.2299821">
  <ele>1583.0</ele>
  <time>2026-08-28T17:49:50Z</time>
  <course>102.22</course>
  <speed>0.96</speed>
  <fix>3d</fix>
</trkpt>
<trkpt lat="40.0710074" lon="-105.2299785">
  <ele>1582.99</ele>
  <time>2026-08-28T17:49:50Z</time>
  <course>102.98</course>
  <speed>0.9688137075826292</speed>
  <fix>3d</fix>
</trkpt>
<trkpt lat="40.071008" lon="-105.2299821">
  <ele>1583.0</ele>
  <time>2026-08-28T17:49:50Z</time>
  <course>102.22</course>
  <speed>0.96</speed>
  <fix>3d</fix>
</trkpt>
<trkpt lat="40.0710073" lon="-105.2299774">
  <ele>1582.99</ele>
  <time>2026-08-28T17:49:50Z</time>
  <course>102.83</course>
  <speed>0.9688137075826292</speed>
  <fix>3d</fix>
</trkpt>
<trkpt lat="40.0710076" lon="-105.2299798">
  <ele>1583.0</ele>
  <time>2026-08-28T17:49:50Z</time>
  <course>101.87</course>
  <speed>0.97</speed>
  <fix>3d</fix>
</trkpt>
<trkpt lat="40.0710071" lon="-105.2299763">
  <ele>1582.99</ele>
  <time>2026-08-28T17:49:50Z</time>
  <course>102.69</course>
  <speed>0.9786214794290998</speed>
  <fix>3d</fix>
</trkpt>
<trkpt lat="40.0710072" lon="-105.2299775">
  <ele>1583.0</ele>
  <time>2026-08-28T17:49:50Z</time>
  <course>101.56</course>
  <speed>0.98</speed>
  <fix>3d</fix>
</trkpt>
<trkpt lat="40.0710069" lon="-105.2299751">
  <ele>1583.0</ele>
  <time>2026-08-28T17:49:50Z</time>
  <course>102.56</course>
  <speed>0.9786214794290998</speed>
  <fix>3d</fix>
</trkpt>
<trkpt lat="40.0710072" lon="-105.2299775">
  <ele>1583.0</ele>
  <time>2026-08-28T17:49:50Z</time>
  <course>101.56</course>
  <speed>0.98</speed>
  <fix>3d</fix>
</trkpt>
<trkpt lat="40.0710067" lon="-105.229974">
  <ele>1583.0</ele>
  <time>2026-08-28T17:49:50Z</time>
  <course>102.44</course>
  <speed>0.9786214794290998</speed>
  <fix>3d</fix>
</trkpt>
<trkpt lat="40.0710069" lon="-105.2299753">
  <ele>1583.0</ele>
  <time>2026-08-28T17:49:50Z</time>
  <course>101.29</course>
  <speed>0.99</speed>
  <fix>3d</fix>
</trkpt>
<trkpt lat="40.0710066" lon="-105.2299728">
  <ele>1582.99</ele>
  <time>2026-08-28T17:49:50Z</time>
  <course>102.32</course>
  <speed>0.9865596788841515</speed>
  <fix>3d</fix>
</trkpt>
<trkpt lat="40.0710069" lon="-105.2299753">
  <ele>1583.0</ele>
  <time>2026-08-28T17:49:50Z</time>
  <course>101.29</course>
  <speed>0.99</speed>
  <fix>3d</fix>
</trkpt>
<trkpt lat="40.0710064" lon="-105.2299716">
  <ele>1582.99</ele>
  <time>2026-08-28T17:49:50Z</time>
  <course>102.21</course>
  <speed>0.9865596788841515</speed>
  <fix>3d</fix>
</trkpt>
<trkpt lat="40.0710065" lon="-105.229973">
  <ele>1583.0</ele>
  <time>2026-08-28T17:49:50Z</time>
  <course>101.05</course>
  <speed>1.0</speed>
  <fix>3d</fix>
</trkpt>
<trkpt lat="40.0710062" lon="-105.2299705">
  <ele>1582.99</ele>
  <time>2026-08-28T17:49:50Z</time>
  <course>102.11</course>
  <speed>0.9865596788841515</speed>
  <fix>3d</fix>
</trkpt>
<trkpt lat="40.0710065" lon="-105.229973">
  <ele>1583.0</ele>
  <time>2026-08-28T17:49:50Z</time>
  <course>101.05</course>
  <speed>1.0</speed>
  <fix>3d</fix>
</trkpt>
<trkpt lat="40.071006" lon="-105.2299693">
  <ele>1582.99</ele>
  <time>2026-08-28T17:49:50Z</time>
  <course>102.02</course>
  <speed>0.9865596788841515</speed>
  <fix>3d</fix>
</trkpt>
<trkpt lat="40.0710062" lon="-105.2299707">
  <ele>1583.0</ele>
  <time>2026-08-28T17:49:50Z</time>
  <course>100.84</course>
  <speed>1.0</speed>
  <fix>3d</fix>
</trkpt>
<trkpt lat="40.0710059" lon="-105.2299681">
  <ele>1582.99</ele>
  <time>2026-08-28T17:49:50Z</time>
  <course>101.93</course>
  <speed>0.9865596788841515</speed>
  <fix>3d</fix>
</trkpt>
<trkpt lat="40.0710062" lon="-105.2299707">
  <ele>1583.0</ele>
  <time>2026-08-28T17:49:50Z</time>
  <course>100.84</course>
  <speed>1.0</speed>
  <fix>3d</fix>
</trkpt>
<trkpt lat="40.0710057" lon="-105.229967">
  <ele>1582.99</ele>
  <time>2026-08-28T17:49:50Z</time>
  <course>101.85</course>
  <speed>0.9865596788841515</speed>
  <fix>3d</fix>
</trkpt>
<trkpt lat="40.0710059" lon="-105.2299683">
  <ele>1583.0</ele>
  <time>2026-08-28T17:49:50Z</time>
  <course>100.66</course>
  <speed>1.0</speed>
  <fix>3d</fix>
</trkpt>
<trkpt lat="40.0710055" lon="-105.2299658">
  <ele>1582.99</ele>
  <time>2026-08-28T17:49:50Z</time>
  <course>101.76</course>
  <speed>0.9865596788841515</speed>
  <fix>3d</fix>
</trkpt>
<trkpt lat="40.0710059" lon="-105.2299683">
  <ele>1583.0</ele>
  <time>2026-08-28T17:49:50Z</time>
  <course>100.66</course>
  <speed>1.0</speed>
  <fix>3d</fix>
</trkpt>
<trkpt lat="40.0710054" lon="-105.2299646">
  <ele>1582.99</ele>
  <time>2026-08-28T17:49:50Z</time>
  <course>101.69</course>
  <speed>0.9865596788841515</speed>
  <fix>3d</fix>
</trkpt>
<trkpt lat="40.0710055" lon="-105.229966">
  <ele>1583.0</ele>
  <time>2026-08-28T17:49:50Z</time>
  <course>100.5</course>
  <speed>1.0</speed>
  <fix>3d</fix>
</trkpt>
<trkpt lat="40.0710052" lon="-105.2299635">
  <ele>1582.99</ele>
  <time>2026-08-28T17:49:50Z</time>
  <course>101.63</course>
  <speed>0.9767292357659824</speed>
  <fix>3d</fix>
</trkpt>
<trkpt lat="40.0710055" lon="-105.229966">
  <ele>1583.0</ele>
  <time>2026-08-28T17:49:50Z</time>
  <course>100.5</course>
  <speed>1.0</speed>
  <fix>3d</fix>
</trkpt>
<trkpt lat="40.071005" lon="-105.2299623">
  <ele>1582.99</ele>
  <time>2026-08-28T17:49:50Z</time>
  <course>101.56</course>
  <speed>0.9749358953285082</speed>
  <fix>3d</fix>
</trkpt>
<trkpt lat="40.0710052" lon="-105.2299637">
  <ele>1583.0</ele>
  <time>2026-08-28T17:49:50Z</time>
  <course>100.36</course>
  <speed>0.99</speed>
  <fix>3d</fix>
</trkpt>
<trkpt lat="40.0710049" lon="-105.2299612">
  <ele>1582.99</ele>
  <time>2026-08-28T17:49:50Z</time>
  <course>101.51</course>
  <speed>0.9749358953285082</speed>
  <fix>3d</fix>
</trkpt>
<trkpt lat="40.0710052" lon="-105.2299637">
  <ele>1583.0</ele>
  <time>2026-08-28T17:49:50Z</time>
  <course>100.36</course>
  <speed>0.99</speed>
  <fix>3d</fix>
</trkpt>
<trkpt lat="40.0710047" lon="-105.22996">
  <ele>1582.99</ele>
  <time>2026-08-28T17:49:50Z</time>
  <course>101.45</course>
  <speed>0.9749358953285082</speed>
  <fix>3d</fix>
</trkpt>
<trkpt lat="40.0710052" lon="-105.2299637">
  <ele>1583.0</ele>
  <time>2026-08-28T17:49:50Z</time>
  <course>100.36</course>
  <speed>0.99</speed>
  <fix>3d</fix>
</trkpt>
<trkpt lat="40.0710046" lon="-105.2299589">
  <ele>1583.0</ele>
  <time>2026-08-28T17:49:50Z</time>
  <course>101.4</course>
  <speed>0.9749358953285082</speed>
  <fix>3d</fix>
</trkpt>
<trkpt lat="40.0710049" lon="-105.2299614">
  <ele>1583.0</ele>
  <time>2026-08-28T17:49:50Z</time>
  <course>100.24</course>
  <speed>0.99</speed>
  <fix>3d</fix>
</trkpt>
<trkpt lat="40.0710044" lon="-105.2299577">
  <ele>1583.0</ele>
  <time>2026-08-28T17:49:50Z</time>
  <course>101.35</course>
  <speed>0.965090669315583</speed>
  <fix>3d</fix>
</trkpt>
<trkpt lat="40.0710049" lon="-105.2299614">
  <ele>1583.0</ele>
  <time>2026-08-28T17:49:50Z</time>
  <course>100.24</course>
  <speed>0.99</speed>
  <fix>3d</fix>
</trkpt>
<trkpt lat="40.0710042" lon="-105.2299566">
  <ele>1583.0</ele>
  <time>2026-08-28T17:49:50Z</time>
  <course>101.31</course>
  <speed>0.965090669315583</speed>
  <fix>3d</fix>
</trkpt>
<trkpt lat="40.0710045" lon="-105.2299591">
  <ele>1583.0</ele>
  <time>2026-08-28T17:49:50Z</time>
  <course>100.13</course>
  <speed>0.99</speed>
  <fix>3d</fix>
</trkpt>
<trkpt lat="40.0710041" lon="-105.2299555">
  <ele>1583.01</ele>
  <time>2026-08-28T17:49:50Z</time>
  <course>101.27</course>
  <speed>0.965090669315583</speed>
  <fix>3d</fix>
</trkpt>
<trkpt lat="40.0710045" lon="-105.2299591">
  <ele>1583.0</ele>
  <time>2026-08-28T17:49:50Z</time>
  <course>100.13</course>
  <speed>0.99</speed>
  <fix>3d</fix>
</trkpt>
<trkpt lat="40.0710039" lon="-105.2299544">
  <ele>1583.01</ele>
  <time>2026-08-28T17:49:50Z</time>
  <course>101.23</course>
  <speed>0.965090669315583</speed>
  <fix>3d</fix>
</trkpt>
<trkpt lat="40.0710042" lon="-105.2299568">
  <ele>1583.0</ele>
  <time>2026-08-28T17:49:50Z</time>
  <course>100.04</course>
  <speed>0.98</speed>
  <fix>3d</fix>
</trkpt>
<trkpt lat="40.0710038" lon="-105.2299532">
  <ele>1583.01</ele>
  <time>2026-08-28T17:49:50Z</time>
  <course>101.19</course>
  <speed>0.965090669315583</speed>
  <fix>3d</fix>
</trkpt>
<trkpt lat="40.0710039" lon="-105.2299545">
  <ele>1583.0</ele>
  <time>2026-08-28T17:49:50Z</time>
  <course>99.96</course>
  <speed>0.98</speed>
  <fix>3d</fix>
</trkpt>
<trkpt lat="40.0710036" lon="-105.2299521">
  <ele>1583.01</ele>
  <time>2026-08-28T17:49:50Z</time>
  <course>101.15</course>
  <speed>0.965090669315583</speed>
  <fix>3d</fix>
</trkpt>
<trkpt lat="40.0710039" lon="-105.2299545">
  <ele>1583.0</ele>
  <time>2026-08-28T17:49:50Z</time>
  <course>99.96</course>
  <speed>0.98</speed>
  <fix>3d</fix>
</trkpt>
<trkpt lat="40.0710035" lon="-105.229951">
  <ele>1583.01</ele>
  <time>2026-08-28T17:49:50Z</time>
  <course>101.11</course>
  <speed>0.965090669315583</speed>
  <fix>3d</fix>
</trkpt>
<trkpt lat="40.0710036" lon="-105.2299523">
  <ele>1583.0</ele>
  <time>2026-08-28T17:49:50Z</time>
  <course>99.88</course>
  <speed>0.98</speed>
  <fix>3d</fix>
</trkpt>
<trkpt lat="40.0710033" lon="-105.2299498">
  <ele>1583.01</ele>
  <time>2026-08-28T17:49:50Z</time>
  <course>101.06</course>
  <speed>0.965090669315583</speed>
  <fix>3d</fix>
</trkpt>
<trkpt lat="40.0710036" lon="-105.2299523">
  <ele>1583.0</ele>
  <time>2026-08-28T17:49:50Z</time>
  <course>99.88</course>
  <speed>0.98</speed>
  <fix>3d</fix>
</trkpt>
<trkpt lat="40.0710031" lon="-105.2299487">
  <ele>1583.02</ele>
  <time>2026-08-28T17:49:50Z</time>
  <course>101.02</course>
  <speed>0.965090669315583</speed>
  <fix>3d</fix>
</trkpt>
<trkpt lat="40.0710033" lon="-105.22995">
  <ele>1583.0</ele>
  <time>2026-08-28T17:49:50Z</time>
  <course>99.8</course>
  <speed>0.98</speed>
  <fix>3d</fix>
</trkpt>
<trkpt lat="40.071003" lon="-105.2299475">
  <ele>1583.02</ele>
  <time>2026-08-28T17:49:50Z</time>
  <course>100.99</course>
  <speed>0.965090669315583</speed>
  <fix>3d</fix>
</trkpt>
<trkpt lat="40.0710033" lon="-105.22995">
  <ele>1583.0</ele>
  <time>2026-08-28T17:49:50Z</time>
  <course>99.8</course>
  <speed>0.98</speed>
  <fix>3d</fix>
</trkpt>
<trkpt lat="40.0710028" lon="-105.2299464">
  <ele>1583.02</ele>
  <time>2026-08-28T17:49:50Z</time>
  <course>100.96</course>
  <speed>0.965090669315583</speed>
  <fix>3d</fix>
</trkpt>
<trkpt lat="40.071003" lon="-105.2299477">
  <ele>1583.0</ele>
  <time>2026-08-28T17:49:50Z</time>
  <course>99.73</course>
  <speed>0.98</speed>
  <fix>3d</fix>
</trkpt>
<trkpt lat="40.0710027" lon="-105.2299452">
  <ele>1583.01</ele>
  <time>2026-08-28T17:49:50Z</time>
  <course>100.93</course>
  <speed>0.965090669315583</speed>
  <fix>3d</fix>
</trkpt>
<trkpt lat="40.071003" lon="-105.2299477">
  <ele>1583.0</ele>
  <time>2026-08-28T17:49:50Z</time>
  <course>99.73</course>
  <speed>0.98</speed>
  <fix>3d</fix>
</trkpt>
<trkpt lat="40.0710025" lon="-105.2299441">
  <ele>1583.01</ele>
  <time>2026-08-28T17:49:50Z</time>
  <course>100.9</course>
  <speed>0.965090669315583</speed>
  <fix>3d</fix>
</trkpt>
<trkpt lat="40.0710027" lon="-105.2299454">
  <ele>1583.0</ele>
  <time>2026-08-28T17:49:50Z</time>
  <course>99.67</course>
  <speed>0.98</speed>
  <fix>3d</fix>
</trkpt>
<trkpt lat="40.0710024" lon="-105.229943">
  <ele>1583.01</ele>
  <time>2026-08-28T17:49:50Z</time>
  <course>100.87</course>
  <speed>0.965090669315583</speed>
  <fix>3d</fix>
</trkpt>
<trkpt lat="40.0710027" lon="-105.2299454">
  <ele>1583.0</ele>
  <time>2026-08-28T17:49:50Z</time>
  <course>99.67</course>
  <speed>0.98</speed>
  <fix>3d</fix>
</trkpt>
<trkpt lat="40.0710022" lon="-105.2299418">
  <ele>1583.01</ele>
  <time>2026-08-28T17:49:50Z</time>
  <course>100.84</course>
  <speed>0.965090669315583</speed>
  <fix>3d</fix>
</trkpt>
<trkpt lat="40.0710024" lon="-105.2299431">
  <ele>1583.0</ele>
  <time>2026-08-28T17:49:50Z</time>
  <course>99.62</course>
  <speed>0.98</speed>
  <fix>3d</fix>
</trkpt>
<trkpt lat="40.0710021" lon="-105.2299407">
  <ele>1583.01</ele>
  <time>2026-08-28T17:49:50Z</time>
  <course>100.81</course>
  <speed>0.965090669315583</speed>
  <fix>3d</fix>
</trkpt>
<trkpt lat="40.0710024" lon="-105.2299431">
  <ele>1583.0</ele>
  <time>2026-08-28T17:49:50Z</time>
  <course>99.62</course>
  <speed>0.98</speed>
  <fix>3d</fix>
</trkpt>
<trkpt lat="40.0710019" lon="-105.2299395">
  <ele>1583.01</ele>
  <time>2026-08-28T17:49:50Z</time>
  <course>100.78</course>
  <speed>0.965090669315583</speed>
  <fix>3d</fix>
</trkpt>
<trkpt lat="40.0710021" lon="-105.2299408">
  <ele>1583.0</ele>
  <time>2026-08-28T17:49:50Z</time>
  <course>99.56</course>
  <speed>0.99</speed>
  <fix>3d</fix>
</trkpt>
<trkpt lat="40.0710018" lon="-105.2299384">
  <ele>1583.01</ele>
  <time>2026-08-28T17:49:50Z</time>
  <course>100.77</course>
  <speed>0.965090669315583</speed>
  <fix>3d</fix>
</trkpt>
<trkpt lat="40.0710021" lon="-105.2299408">
  <ele>1583.0</ele>
  <time>2026-08-28T17:49:50Z</time>
  <course>99.56</course>
  <speed>0.99</speed>
  <fix>3d</fix>
</trkpt>
<trkpt lat="40.0710016" lon="-105.2299372">
  <ele>1583.01</ele>
  <time>2026-08-28T17:49:50Z</time>
  <course>100.75</course>
  <speed>0.965090669315583</speed>
  <fix>3d</fix>
</trkpt>
<trkpt lat="40.0710021" lon="-105.2299408">
  <ele>1583.0</ele>
  <time>2026-08-28T17:49:50Z</time>
  <course>99.56</course>
  <speed>0.99</speed>
  <fix>3d</fix>
</trkpt>
<trkpt lat="40.0710015" lon="-105.2299361">
  <ele>1583.01</ele>
  <time>2026-08-28T17:49:50Z</time>
  <course>100.74</course>
  <speed>0.965090669315583</speed>
  <fix>3d</fix>
</trkpt>
<trkpt lat="40.0710018" lon="-105.2299385">
  <ele>1583.0</ele>
  <time>2026-08-28T17:49:50Z</time>
  <course>99.52</course>
  <speed>0.99</speed>
  <fix>3d</fix>
</trkpt>
<trkpt lat="40.0710013" lon="-105.2299349">
  <ele>1583.01</ele>
  <time>2026-08-28T17:49:50Z</time>
  <course>100.72</course>
  <speed>0.965090669315583</speed>
  <fix>3d</fix>
</trkpt>
<trkpt lat="40.0710018" lon="-105.2299385">
  <ele>1583.0</ele>
  <time>2026-08-28T17:49:50Z</time>
  <course>99.52</course>
  <speed>0.99</speed>
  <fix>3d</fix>
</trkpt>
<trkpt lat="40.0710012" lon="-105.2299338">
  <ele>1583.01</ele>
  <time>2026-08-28T17:49:50Z</time>
  <course>100.71</course>
  <speed>0.965090669315583</speed>
  <fix>3d</fix>
</trkpt>
<trkpt lat="40.0710015" lon="-105.2299362">
  <ele>1583.0</ele>
  <time>2026-08-28T17:49:50Z</time>
  <course>99.49</course>
  <speed>0.99</speed>
  <fix>3d</fix>
</trkpt>
<trkpt lat="40.071001" lon="-105.2299327">
  <ele>1583.01</ele>
  <time>2026-08-28T17:49:50Z</time>
  <course>100.69</course>
  <speed>0.965090669315583</speed>
  <fix>3d</fix>
</trkpt>
<trkpt lat="40.0710015" lon="-105.2299362">
  <ele>1583.0</ele>
  <time>2026-08-28T17:49:50Z</time>
  <course>99.49</course>
  <speed>0.99</speed>
  <fix>3d</fix>
</trkpt>
<trkpt lat="40.0710009" lon="-105.2299315">
  <ele>1583.0</ele>
  <time>2026-08-28T17:49:50Z</time>
  <course>100.68</course>
  <speed>0.965090669315583</speed>
  <fix>3d</fix>
</trkpt>
<trkpt lat="40.0710012" lon="-105.2299339">
  <ele>1583.0</ele>
  <time>2026-08-28T17:49:50Z</time>
  <course>99.47</course>
  <speed>0.99</speed>
  <fix>3d</fix>
</trkpt>
<trkpt lat="40.0710007" lon="-105.2299304">
  <ele>1583.0</ele>
  <time>2026-08-28T17:49:50Z</time>
  <course>100.66</course>
  <speed>0.965090669315583</speed>
  <fix>3d</fix>
</trkpt>
<trkpt lat="40.0710012" lon="-105.2299339">
  <ele>1583.0</ele>
  <time>2026-08-28T17:49:50Z</time>
  <course>99.47</course>
  <speed>0.99</speed>
  <fix>3d</fix>
</trkpt>
<trkpt lat="40.0710006" lon="-105.2299293">
  <ele>1583.0</ele>
  <time>2026-08-28T17:49:50Z</time>
  <course>100.65</course>
  <speed>0.965090669315583</speed>
  <fix>3d</fix>
</trkpt>
<trkpt lat="40.0710009" lon="-105.2299316">
  <ele>1583.0</ele>
  <time>2026-08-28T17:49:50Z</time>
  <course>99.44</course>
  <speed>0.99</speed>
  <fix>3d</fix>
</trkpt>
<trkpt lat="40.0710004" lon="-105.2299281">
  <ele>1583.0</ele>
  <time>2026-08-28T17:49:50Z</time>
  <course>100.92</course>
  <speed>0.965090669315583</speed>
  <fix>3d</fix>
</trkpt>
<trkpt lat="40.0710007" lon="-105.2299293">
  <ele>1583.0</ele>
  <time>2026-08-28T17:49:50Z</time>
  <course>99.56</course>
  <speed>0.99</speed>
  <fix>3d</fix>
</trkpt>
<trkpt lat="40.0710003" lon="-105.229927">
  <ele>1583.01</ele>
  <time>2026-08-28T17:49:50Z</time>
  <course>101.76</course>
  <speed>0.9590099061010788</speed>
  <fix>3d</fix>
</trkpt>
<trkpt lat="40.0710007" lon="-105.2299293">
  <ele>1583.0</ele>
  <time>2026-08-28T17:49:50Z</time>
  <course>99.56</course>
  <speed>0.99</speed>
  <fix>3d</fix>
</trkpt>
<trkpt lat="40.0710001" lon="-105.2299258">
  <ele>1583.0</ele>
  <time>2026-08-28T17:49:50Z</time>
  <course>103.14</course>
  <speed>0.9534149149242422</speed>
  <fix>3d</fix>
</trkpt>
<trkpt lat="40.0710004" lon="-105.229927">
  <ele>1583.0</ele>
  <time>2026-08-28T17:49:50Z</time>
  <course>100.81</course>
  <speed>0.99</speed>
  <fix>3d</fix>
</trkpt>
<trkpt lat="40.0709999" lon="-105.2299247">
  <ele>1583.0</ele>
  <time>2026-08-28T17:49:50Z</time>
  <course>105.14</course>
  <speed>0.950789145920377</speed>
  <fix>3d</fix>
</trkpt>
<trkpt lat="40.0710004" lon="-105.229927">
  <ele>1583.0</ele>
  <time>2026-08-28T17:49:50Z</time>
  <course>100.81</course>
  <speed>0.99</speed>
  <fix>3d</fix>
</trkpt>
<trkpt lat="40.0709996" lon="-105.2299236">
  <ele>1583.0</ele>
  <time>2026-08-28T17:49:50Z</time>
  <course>107.77</course>
  <speed>0.9330058949438638</speed>
  <fix>3d</fix>
</trkpt>
<trkpt lat="40.071" lon="-105.2299247">
  <ele>1583.0</ele>
  <time>2026-08-28T17:49:50Z</time>
  <course>104.23</course>
  <speed>0.98</speed>
  <fix>3d</fix>
</trkpt>
<trkpt lat="40.0709994" lon="-105.2299225">
  <ele>1583.0</ele>
  <time>2026-08-28T17:49:50Z</time>
  <course>111.07</course>
  <speed>0.9211405973031478</speed>
  <fix>3d</fix>
</trkpt>
<trkpt lat="40.071" lon="-105.2299247">
  <ele>1583.0</ele>
  <time>2026-08-28T17:49:50Z</time>
  <course>104.23</course>
  <speed>0.98</speed>
  <fix>3d</fix>
</trkpt>
<trkpt lat="40.0709991" lon="-105.2299215">
  <ele>1582.99</ele>
  <time>2026-08-28T17:49:50Z</time>
  <course>115.12</course>
  <speed>0.8947066558375433</speed>
  <fix>3d</fix>
</trkpt>
<trkpt lat="40.0709995" lon="-105.2299226">
  <ele>1583.0</ele>
  <time>2026-08-28T17:49:50Z</time>
  <course>110.16</course>
  <speed>0.94</speed>
  <fix>3d</fix>
</trkpt>
<trkpt lat="40.0709987" lon="-105.2299206">
  <ele>1582.99</ele>
  <time>2026-08-28T17:49:50Z</time>
  <course>119.85</course>
  <speed>0.8558621384311844</speed>
  <fix>3d</fix>
</trkpt>
<trkpt lat="40.0709995" lon="-105.2299226">
  <ele>1583.0</ele>
  <time>2026-08-28T17:49:50Z</time>
  <course>110.16</course>
  <speed>0.94</speed>
  <fix>3d</fix>
</trkpt>
<trkpt lat="40.0709983" lon="-105.2299197">
  <ele>1582.99</ele>
  <time>2026-08-28T17:49:50Z</time>
  <course>125.24</course>
  <speed>0.8160882305241266</speed>
  <fix>3d</fix>
</trkpt>
<trkpt lat="40.0709988" lon="-105.2299206">
  <ele>1583.0</ele>
  <time>2026-08-28T17:49:50Z</time>
  <course>118.78</course>
  <speed>0.89</speed>
  <fix>3d</fix>
</trkpt>
<trkpt lat="40.0709978" lon="-105.2299189">
  <ele>1582.99</ele>
  <time>2026-08-28T17:49:50Z</time>
  <course>130.59</course>
  <speed>0.7864477096412705</speed>
  <fix>3d</fix>
</trkpt>
<trkpt lat="40.0709988" lon="-105.2299206">
  <ele>1583.0</ele>
  <time>2026-08-28T17:49:50Z</time>
  <course>118.78</course>
  <speed>0.89</speed>
  <fix>3d</fix>
</trkpt>
<trkpt lat="40.0709973" lon="-105.2299183">
  <ele>1583.0</ele>
  <time>2026-08-28T17:49:50Z</time>
  <course>135.71</course>
  <speed>0.750066663703967</speed>
  <fix>3d</fix>
</trkpt>
<trkpt lat="40.0709979" lon="-105.229919">
  <ele>1583.0</ele>
  <time>2026-08-28T17:49:50Z</time>
  <course>129.05</course>
  <speed>0.82</speed>
  <fix>3d</fix>
</trkpt>
<trkpt lat="40.0709968" lon="-105.2299177">
  <ele>1583.0</ele>
  <time>2026-08-28T17:49:50Z</time>
  <course>140.63</course>
  <speed>0.7280109889280518</speed>
  <fix>3d</fix>
</trkpt>
<trkpt lat="40.0709979" lon="-105.229919">
  <ele>1583.0</ele>
  <time>2026-08-28T17:49:50Z</time>
  <course>129.05</course>
  <speed>0.82</speed>
  <fix>3d</fix>
</trkpt>
<trkpt lat="40.0709963" lon="-105.2299172">
  <ele>1583.0</ele>
  <time>2026-08-28T17:49:50Z</time>
  <course>145.42</course>
  <speed>0.7102112361825881</speed>
  <fix>3d</fix>
</trkpt>
<trkpt lat="40.0709979" lon="-105.229919">
  <ele>1583.0</ele>
  <time>2026-08-28T17:49:50Z</time>
  <course>129.05</course>
  <speed>0.82</speed>
  <fix>3d</fix>
</trkpt>
<trkpt lat="40.0709957" lon="-105.2299167">
  <ele>1583.0</ele>
  <time>2026-08-28T17:49:50Z</time>
  <course>150.14</course>
  <speed>0.7066116330771806</speed>
  <fix>3d</fix>
</trkpt>
<trkpt lat="40.070997" lon="-105.2299176">
  <ele>1583.0</ele>
  <time>2026-08-28T17:49:50Z</time>
  <course>139.27</course>
  <speed>0.76</speed>
  <fix>3d</fix>
</trkpt>
<trkpt lat="40.0709951" lon="-105.2299164">
  <ele>1583.0</ele>
  <time>2026-08-28T17:49:50Z</time>
  <course>154.87</course>
  <speed>0.722357252334328</speed>
  <fix>3d</fix>
</trkpt>
<trkpt lat="40.070997" lon="-105.2299176">
  <ele>1583.0</ele>
  <time>2026-08-28T17:49:50Z</time>
  <course>139.27</course>
  <speed>0.76</speed>
  <fix>3d</fix>
</trkpt>
<trkpt lat="40.0709945" lon="-105.229916">
  <ele>1583.0</ele>
  <time>2026-08-28T17:49:50Z</time>
  <course>159.36</course>
  <speed>0.7337574531137656</speed>
  <fix>3d</fix>
</trkpt>
<trkpt lat="40.0709959" lon="-105.2299166">
  <ele>1583.0</ele>
  <time>2026-08-28T17:49:50Z</time>
  <course>149.02</course>
  <speed>0.74</speed>
  <fix>3d</fix>
</trkpt>
<trkpt lat="40.0709939" lon="-105.2299158">
  <ele>1583.0</ele>
  <time>2026-08-28T17:49:50Z</time>
  <course>163.44</course>
  <speed>0.7690253571892152</speed>
  <fix>3d</fix>
</trkpt>
<trkpt lat="40.0709959" lon="-105.2299166">
  <ele>1583.0</ele>
  <time>2026-08-28T17:49:50Z</time>
  <course>149.02</course>
  <speed>0.74</speed>
  <fix>3d</fix>
</trkpt>
<trkpt lat="40.0709932" lon="-105.2299156">
  <ele>1583.0</ele>
  <time>2026-08-28T17:49:50Z</time>
  <course>167.06</course>
  <speed>0.8006247560499239</speed>
  <fix>3d</fix>
</trkpt>
<trkpt lat="40.0709946" lon="-105.2299158">
  <ele>1583.0</ele>
  <time>2026-08-28T17:49:50Z</time>
  <course>158.15</course>
  <speed>0.76</speed>
  <fix>3d</fix>
</trkpt>
<trkpt lat="40.0709924" lon="-105.2299154">
  <ele>1583.0</ele>
  <time>2026-08-28T17:49:50Z</time>
  <course>170.14</course>
  <speed>0.8348652585896721</speed>
  <fix>3d</fix>
</trkpt>
<trkpt lat="40.0709946" lon="-105.2299158">
  <ele>1583.0</ele>
  <time>2026-08-28T17:49:50Z</time>
  <course>158.15</course>
  <speed>0.76</speed>
  <fix>3d</fix>
</trkpt>
<trkpt lat="40.0709917" lon="-105.2299153">
  <ele>1583.0</ele>
  <time>2026-08-28T17:49:50Z</time>
  <course>172.64</course>
  <speed>0.8620904824900922</speed>
  <fix>3d</fix>
</trkpt>
<trkpt lat="40.0709933" lon="-105.2299152">
  <ele>1583.0</ele>
  <time>2026-08-28T17:49:50Z</time>
  <course>165.79</course>
  <speed>0.81</speed>
  <fix>3d</fix>
</trkpt>
<trkpt lat="40.0709909" lon="-105.2299152">
  <ele>1583.0</ele>
  <time>2026-08-28T17:49:50Z</time>
  <course>174.57</course>
  <speed>0.8905054744357274</speed>
  <fix>3d</fix>
</trkpt>
<trkpt lat="40.0709918" lon="-105.2299149">
  <ele>1583.0</ele>
  <time>2026-08-28T17:49:50Z</time>
  <course>171.3</course>
  <speed>0.87</speed>
  <fix>3d</fix>
</trkpt>
<trkpt lat="40.0709901" lon="-105.2299151">
  <ele>1583.0</ele>
  <time>2026-08-28T17:49:50Z</time>
  <course>176.3</course>
  <speed>0.92</speed>
  <fix>3d</fix>
</trkpt>
<trkpt lat="40.0709918" lon="-105.2299149">
  <ele>1583.0</ele>
  <time>2026-08-28T17:49:50Z</time>
  <course>171.3</course>
  <speed>0.87</speed>
  <fix>3d</fix>
</trkpt>
<trkpt lat="40.0709892" lon="-105.229915">
  <ele>1583.0</ele>
  <time>2026-08-28T17:49:50Z</time>
  <course>177.96</course>
  <speed>0.9400531899844816</speed>
  <fix>3d</fix>
</trkpt>
<trkpt lat="40.0709902" lon="-105.2299147">
  <ele>1583.0</ele>
  <time>2026-08-28T17:49:50Z</time>
  <course>175.19</course>
  <speed>0.93</speed>
  <fix>3d</fix>
</trkpt>
<trkpt lat="40.0709883" lon="-105.229915">
  <ele>1583.0</ele>
  <time>2026-08-28T17:49:50Z</time>
  <course>179.55</course>
  <speed>0.97082439194738</speed>
  <fix>3d</fix>
</trkpt>
<trkpt lat="40.0709902" lon="-105.2299147">
  <ele>1583.0</ele>
  <time>2026-08-28T17:49:50Z</time>
  <course>175.19</course>
  <speed>0.93</speed>
  <fix>3d</fix>
</trkpt>
<trkpt lat="40.0709874" lon="-105.229915">
  <ele>1583.0</ele>
  <time>2026-08-28T17:49:50Z</time>
  <course>181.06</course>
  <speed>0.9824968193332739</speed>
  <fix>3d</fix>
</trkpt>
<trkpt lat="40.0709885" lon="-105.2299145">
  <ele>1583.0</ele>
  <time>2026-08-28T17:49:50Z</time>
  <course>178.44</course>
  <speed>0.97</speed>
  <fix>3d</fix>
</trkpt>
<trkpt lat="40.0709865" lon="-105.2299151">
  <ele>1583.0</ele>
  <time>2026-08-28T17:49:50Z</time>
  <course>182.47</course>
  <speed>1.004041831797859</speed>
  <fix>3d</fix>
</trkpt>
<trkpt lat="40.0709885" lon="-105.2299145">
  <ele>1583.0</ele>
  <time>2026-08-28T17:49:50Z</time>
  <course>178.44</course>
  <speed>0.97</speed>
  <fix>3d</fix>
</trkpt>
<trkpt lat="40.0709856" lon="-105.2299152">
  <ele>1583.0</ele>
  <time>2026-08-28T17:49:50Z</time>
  <course>183.79</course>
  <speed>1.0171037311896953</speed>
  <fix>3d</fix>
</trkpt>
<trkpt lat="40.0709866" lon="-105.2299145">
  <ele>1583.0</ele>
  <time>2026-08-28T17:49:50Z</time>
  <course>181.35</course>
  <speed>1.0</speed>
  <fix>3d</fix>
</trkpt>
<trkpt lat="40.0709847" lon="-105.2299151">
  <ele>1583.0</ele>
  <time>2026-08-28T17:49:50Z</time>
  <course>185.02</course>
  <speed>1.0295630140987</speed>
  <fix>3d</fix>
</trkpt>
<trkpt lat="40.0709866" lon="-105.2299145">
  <ele>1583.0</ele>
  <time>2026-08-28T17:49:50Z</time>
  <course>181.35</course>
  <speed>1.0</speed>
  <fix>3d</fix>
</trkpt>
<trkpt lat="40.0709837" lon="-105.2299153">
  <ele>1583.01</ele>
  <time>2026-08-28T17:49:50Z</time>
  <course>186.16</course>
  <speed>1.0423531071570709</speed>
  <fix>3d</fix>
</trkpt>
<trkpt lat="40.0709849" lon="-105.2299146">
  <ele>1583.0</ele>
  <time>2026-08-28T17:49:50Z</time>
  <course>183.9</course>
  <speed>1.03</speed>
  <fix>3d</fix>
</trkpt>
<trkpt lat="40.0709828" lon="-105.2299154">
  <ele>1583.01</ele>
  <time>2026-08-28T17:49:50Z</time>
  <course>187.22</course>
  <speed>1.045609869884557</speed>
  <fix>3d</fix>
</trkpt>
<trkpt lat="40.0709849" lon="-105.2299146">
  <ele>1583.0</ele>
  <time>2026-08-28T17:49:50Z</time>
  <course>183.9</course>
  <speed>1.03</speed>
  <fix>3d</fix>
</trkpt>
<trkpt lat="40.0709818" lon="-105.2299156">
  <ele>1583.01</ele>
  <time>2026-08-28T17:49:50Z</time>
  <course>188.21</course>
  <speed>1.0572133181151286</speed>
  <fix>3d</fix>
</trkpt>
<trkpt lat="40.070983" lon="-105.2299147">
  <ele>1583.0</ele>
  <time>2026-08-28T17:49:50Z</time>
  <course>186.11</course>
  <speed>1.04</speed>
  <fix>3d</fix>
</trkpt>
<trkpt lat="40.0709809" lon="-105.2299157">
  <ele>1583.02</ele>
  <time>2026-08-28T17:49:50Z</time>
  <course>189.13</course>
  <speed>1.0609901036296239</speed>
  <fix>3d</fix>
</trkpt>
<trkpt lat="40.070983" lon="-105.2299147">
  <ele>1583.0</ele>
  <time>2026-08-28T17:49:50Z</time>
  <course>186.11</course>
  <speed>1.04</speed>
  <fix>3d</fix>
</trkpt>
<trkpt lat="40.0709799" lon="-105.2299159">
  <ele>1583.02</ele>
  <time>2026-08-28T17:49:50Z</time>
  <course>190.0</course>
  <speed>1.0532331175955303</speed>
  <fix>3d</fix>
</trkpt>
<trkpt lat="40.0709811" lon="-105.2299151">
  <ele>1583.0</ele>
  <time>2026-08-28T17:49:50Z</time>
  <course>188.04</course>
  <speed>1.05</speed>
  <fix>3d</fix>
</trkpt>
<trkpt lat="40.070979" lon="-105.2299161">
  <ele>1583.02</ele>
  <time>2026-08-28T17:49:50Z</time>
  <course>190.81</course>
  <speed>1.0575916035975323</speed>
  <fix>3d</fix>
</trkpt>
<trkpt lat="40.0709811" lon="-105.2299151">
  <ele>1583.0</ele>
  <time>2026-08-28T17:49:50Z</time>
  <course>188.04</course>
  <speed>1.05</speed>
  <fix>3d</fix>
</trkpt>
<trkpt lat="40.0709781" lon="-105.2299163">
  <ele>1583.02</ele>
  <time>2026-08-28T17:49:50Z</time>
  <course>191.57</course>
  <speed>1.0599056561788884</speed>
  <fix>3d</fix>
</trkpt>
<trkpt lat="40.0709811" lon="-105.2299151">
  <ele>1583.0</ele>
  <time>2026-08-28T17:49:50Z</time>
  <course>188.04</course>
  <speed>1.05</speed>
  <fix>3d</fix>
</trkpt>
<trkpt lat="40.0709771" lon="-105.2299166">
  <ele>1583.02</ele>
  <time>2026-08-28T17:49:50Z</time>
  <course>192.28</course>
  <speed>1.0526157893552612</speed>
  <fix>3d</fix>
</trkpt>
<trkpt lat="40.0709792" lon="-105.2299155">
  <ele>1583.0</ele>
  <time>2026-08-28T17:49:50Z</time>
  <course>189.73</course>
  <speed>1.05</speed>
  <fix>3d</fix>
</trkpt>
<trkpt lat="40.0709762" lon="-105.2299168">
  <ele>1583.02</ele>
  <time>2026-08-28T17:49:50Z</time>
  <course>192.95</course>
  <speed>1.04546640309481</speed>
  <fix>3d</fix>
</trkpt>
<trkpt lat="40.0709792" lon="-105.2299155">
  <ele>1583.0</ele>
  <time>2026-08-28T17:49:50Z</time>
  <course>189.73</course>
  <speed>1.05</speed>
  <fix>3d</fix>
</trkpt>
<trkpt lat="40.0709753" lon="-105.229917">
  <ele>1583.02</ele>
  <time>2026-08-28T17:49:50Z</time>
  <course>193.57</course>
  <speed>1.04546640309481</speed>
  <fix>3d</fix>
</trkpt>
<trkpt lat="40.0709774" lon="-105.2299159">
  <ele>1583.0</ele>
  <time>2026-08-28T17:49:50Z</time>
  <course>191.22</course>
  <speed>1.05</speed>
  <fix>3d</fix>
</trkpt>
<trkpt lat="40.0709744" lon="-105.2299173">
  <ele>1583.02</ele>
  <time>2026-08-28T17:49:50Z</time>
  <course>194.16</course>
  <speed>1.0384603988597736</speed>
  <fix>3d</fix>
</trkpt>
<trkpt lat="40.0709774" lon="-105.2299159">
  <ele>1583.0</ele>
  <time>2026-08-28T17:49:50Z</time>
  <course>191.22</course>
  <speed>1.05</speed>
  <fix>3d</fix>
</trkpt>
<trkpt lat="40.0709735" lon="-105.2299176">
  <ele>1583.02</ele>
  <time>2026-08-28T17:49:50Z</time>
  <course>194.71</course>
  <speed>1.0316006979447037</speed>
  <fix>3d</fix>
</trkpt>
<trkpt lat="40.0709756" lon="-105.2299164">
  <ele>1583.0</ele>
  <time>2026-08-28T17:49:50Z</time>
  <course>192.52</course>
  <speed>1.04</speed>
  <fix>3d</fix>
</trkpt>
<trkpt lat="40.0709726" lon="-105.2299178">
  <ele>1583.01</ele>
  <time>2026-08-28T17:49:50Z</time>
  <course>195.24</course>
  <speed>1.0316006979447037</speed>
  <fix>3d</fix>
</trkpt>
<trkpt lat="40.0709738" lon="-105.229917">
  <ele>1583.0</ele>
  <time>2026-08-28T17:49:50Z</time>
  <course>193.66</course>
  <speed>1.03</speed>
  <fix>3d</fix>
</trkpt>
<trkpt lat="40.0709717" lon="-105.2299181">
  <ele>1583.01</ele>
  <time>2026-08-28T17:49:50Z</time>
  <course>195.72</course>
  <speed>1.0248902380255165</speed>
  <fix>3d</fix>
</trkpt>
<trkpt lat="40.0709738" lon="-105.229917">
  <ele>1583.0</ele>
  <time>2026-08-28T17:49:50Z</time>
  <course>193.66</course>
  <speed>1.03</speed>
  <fix>3d</fix>
</trkpt>
<trkpt lat="40.0709709" lon="-105.2299184">
  <ele>1583.0</ele>
  <time>2026-08-28T17:49:50Z</time>
  <course>196.18</course>
  <speed>1.015332457867865</speed>
  <fix>3d</fix>
</trkpt>
<trkpt lat="40.070972" lon="-105.2299175">
  <ele>1583.0</ele>
  <time>2026-08-28T17:49:50Z</time>
  <course>194.67</course>
  <speed>1.02</speed>
  <fix>3d</fix>
</trkpt>
<trkpt lat="40.07097" lon="-105.2299187">
  <ele>1583.0</ele>
  <time>2026-08-28T17:49:50Z</time>
  <course>196.6</course>
  <speed>1.0183319694480775</speed>
  <fix>3d</fix>
</trkpt>
<trkpt lat="40.070972" lon="-105.2299175">
  <ele>1583.0</ele>
  <time>2026-08-28T17:49:50Z</time>
  <course>194.67</course>
  <speed>1.02</speed>
  <fix>3d</fix>
</trkpt>
<trkpt lat="40.0709691" lon="-105.229919">
  <ele>1583.0</ele>
  <time>2026-08-28T17:49:50Z</time>
  <course>197.0</course>
  <speed>1.0088111815399352</speed>
  <fix>3d</fix>
</trkpt>
<trkpt lat="40.0709702" lon="-105.2299181">
  <ele>1583.0</ele>
  <time>2026-08-28T17:49:50Z</time>
  <course>195.56</course>
  <speed>1.02</speed>
  <fix>3d</fix>
</trkpt>
<trkpt lat="40.0709682" lon="-105.2299193">
  <ele>1583.0</ele>
  <time>2026-08-28T17:49:50Z</time>
  <course>197.37</course>
  <speed>1.0088111815399352</speed>
  <fix>3d</fix>
</trkpt>
<trkpt lat="40.0709702" lon="-105.2299181">
  <ele>1583.0</ele>
  <time>2026-08-28T17:49:50Z</time>
  <course>195.56</course>
  <speed>1.02</speed>
  <fix>3d</fix>
</trkpt>
<trkpt lat="40.0709674" lon="-105.2299196">
  <ele>1583.0</ele>
  <time>2026-08-28T17:49:50Z</time>
  <course>197.72</course>
  <speed>1.0024470060806208</speed>
  <fix>3d</fix>
</trkpt>
<trkpt lat="40.0709684" lon="-105.2299188">
  <ele>1583.0</ele>
  <time>2026-08-28T17:49:50Z</time>
  <course>196.33</course>
  <speed>1.01</speed>
  <fix>3d</fix>
</trkpt>
<trkpt lat="40.0709665" lon="-105.22992">
  <ele>1583.01</ele>
  <time>2026-08-28T17:49:50Z</time>
  <course>198.05</course>
  <speed>1.0024470060806208</speed>
  <fix>3d</fix>
</trkpt>
<trkpt lat="40.0709684" lon="-105.2299188">
  <ele>1583.0</ele>
  <time>2026-08-28T17:49:50Z</time>
  <course>196.33</course>
  <speed>1.01</speed>
  <fix>3d</fix>
</trkpt>
<trkpt lat="40.0709656" lon="-105.2299203">
  <ele>1583.01</ele>
  <time>2026-08-28T17:49:50Z</time>
  <course>198.35</course>
  <speed>0.9929753269845127</speed>
  <fix>3d</fix>
</trkpt>
<trkpt lat="40.0709667" lon="-105.2299195">
  <ele>1583.0</ele>
  <time>2026-08-28T17:49:50Z</time>
  <course>197.0</course>
  <speed>1.01</speed>
  <fix>3d</fix>
</trkpt>
<trkpt lat="40.0709648" lon="-105.2299206">
  <ele>1583.01</ele>
  <time>2026-08-28T17:49:50Z</time>
  <course>198.63</course>
  <speed>0.9929753269845127</speed>
  <fix>3d</fix>
</trkpt>
<trkpt lat="40.0709667" lon="-105.2299195">
  <ele>1583.0</ele>
  <time>2026-08-28T17:49:50Z</time>
  <course>197.0</course>
  <speed>1.01</speed>
  <fix>3d</fix>
</trkpt>
<trkpt lat="40.0709639" lon="-105.229921">
  <ele>1583.02</ele>
  <time>2026-08-28T17:49:50Z</time>
  <course>198.88</course>
  <speed>0.9929753269845127</speed>
  <fix>3d</fix>
</trkpt>
<trkpt lat="40.0709649" lon="-105.2299202">
  <ele>1583.0</ele>
  <time>2026-08-28T17:49:50Z</time>
  <course>197.58</course>
  <speed>1.0</speed>
  <fix>3d</fix>
</trkpt>
<trkpt lat="40.0709631" lon="-105.2299213">
  <ele>1583.02</ele>
  <time>2026-08-28T17:49:50Z</time>
  <course>199.12</course>
  <speed>0.9868130522039117</speed>
  <fix>3d</fix>
</trkpt>
<trkpt lat="40.0709649" lon="-105.2299202">
  <ele>1583.0</ele>
  <time>2026-08-28T17:49:50Z</time>
  <course>197.58</course>
  <speed>1.0</speed>
  <fix>3d</fix>
</trkpt>
<trkpt lat="40.0709622" lon="-105.2299217">
  <ele>1583.02</ele>
  <time>2026-08-28T17:49:50Z</time>
  <course>199.34</course>
  <speed>0.9868130522039117</speed>
  <fix>3d</fix>
</trkpt>
<trkpt lat="40.0709632" lon="-105.2299209">
  <ele>1583.0</ele>
  <time>2026-08-28T17:49:50Z</time>
  <course>198.08</course>
  <speed>1.0</speed>
  <fix>3d</fix>
</trkpt>
<trkpt lat="40.0709613" lon="-105.229922">
  <ele>1583.02</ele>
  <time>2026-08-28T17:49:50Z</time>
  <course>199.54</course>
  <speed>0.9868130522039117</speed>
  <fix>3d</fix>
</trkpt>
<trkpt lat="40.0709632" lon="-105.2299209">
  <ele>1583.0</ele>
  <time>2026-08-28T17:49:50Z</time>
  <course>198.08</course>
  <speed>1.0</speed>
  <fix>3d</fix>
</trkpt>
<trkpt lat="40.0709605" lon="-105.2299224">
  <ele>1583.02</ele>
  <time>2026-08-28T17:49:50Z</time>
  <course>199.72</course>
  <speed>0.9868130522039117</speed>
  <fix>3d</fix>
</trkpt>
<trkpt lat="40.0709632" lon="-105.2299209">
  <ele>1583.0</ele>
  <time>2026-08-28T17:49:50Z</time>
  <course>198.08</course>
  <speed>1.0</speed>
  <fix>3d</fix>
</trkpt>
<trkpt lat="40.0709596" lon="-105.2299227">
  <ele>1583.02</ele>
  <time>2026-08-28T17:49:50Z</time>
  <course>199.88</course>
  <speed>0.9868130522039117</speed>
  <fix>3d</fix>
</trkpt>
<trkpt lat="40.0709615" lon="-105.2299217">
  <ele>1583.0</ele>
  <time>2026-08-28T17:49:50Z</time>
  <course>198.5</course>
  <speed>0.99</speed>
  <fix>3d</fix>
</trkpt>
<trkpt lat="40.0709588" lon="-105.2299231">
  <ele>1583.02</ele>
  <time>2026-08-28T17:49:50Z</time>
  <course>200.03</course>
  <speed>0.9868130522039117</speed>
  <fix>3d</fix>
</trkpt>
<trkpt lat="40.0709615" lon="-105.2299217">
  <ele>1583.0</ele>
  <time>2026-08-28T17:49:50Z</time>
  <course>198.5</course>
  <speed>0.99</speed>
  <fix>3d</fix>
</trkpt>
<trkpt lat="40.070958" lon="-105.2299235">
  <ele>1583.02</ele>
  <time>2026-08-28T17:49:50Z</time>
  <course>200.16</course>
  <speed>0.9773944955850733</speed>
  <fix>3d</fix>
</trkpt>
<trkpt lat="40.0709598" lon="-105.2299224">
  <ele>1583.0</ele>
  <time>2026-08-28T17:49:50Z</time>
  <course>198.84</course>
  <speed>0.99</speed>
  <fix>3d</fix>
</trkpt>
<trkpt lat="40.0709571" lon="-105.2299238">
  <ele>1583.03</ele>
  <time>2026-08-28T17:49:50Z</time>
  <course>200.27</course>
  <speed>0.9773944955850733</speed>
  <fix>3d</fix>
</trkpt>
<trkpt lat="40.0709598" lon="-105.2299224">
  <ele>1583.0</ele>
  <time>2026-08-28T17:49:50Z</time>
  <course>198.84</course>
  <speed>0.99</speed>
  <fix>3d</fix>
</trkpt>
<trkpt lat="40.0709563" lon="-105.2299242">
  <ele>1583.03</ele>
  <time>2026-08-28T17:49:50Z</time>
  <course>200.37</course>
  <speed>0.9808159868191383</speed>
  <fix>3d</fix>
</trkpt>
<trkpt lat="40.0709581" lon="-105.2299232">
  <ele>1583.0</ele>
  <time>2026-08-28T17:49:50Z</time>
  <course>199.11</course>
  <speed>0.99</speed>
  <fix>3d</fix>
</trkpt>
<trkpt lat="40.0709555" lon="-105.2299246">
  <ele>1583.03</ele>
  <time>2026-08-28T17:49:50Z</time>
  <course>200.46</course>
  <speed>0.9808159868191383</speed>
  <fix>3d</fix>
</trkpt>
<trkpt lat="40.0709581" lon="-105.2299232">
  <ele>1583.0</ele>
  <time>2026-08-28T17:49:50Z</time>
  <course>199.11</course>
  <speed>0.99</speed>
  <fix>3d</fix>
</trkpt>
<trkpt lat="40.0709546" lon="-105.2299249">
  <ele>1583.03</ele>
  <time>2026-08-28T17:49:50Z</time>
  <course>200.53</course>
  <speed>0.9808159868191383</speed>
  <fix>3d</fix>
</trkpt>
<trkpt lat="40.0709564" lon="-105.229924">
  <ele>1583.0</ele>
  <time>2026-08-28T17:49:50Z</time>
  <course>199.33</course>
  <speed>0.99</speed>
  <fix>3d</fix>
</trkpt>
<trkpt lat="40.0709538" lon="-105.2299253">
  <ele>1583.04</ele>
  <time>2026-08-28T17:49:50Z</time>
  <course>200.59</course>
  <speed>0.9808159868191383</speed>
  <fix>3d</fix>
</trkpt>
<trkpt lat="40.0709547" lon="-105.2299247">
  <ele>1583.0</ele>
  <time>2026-08-28T17:49:50Z</time>
  <course>199.48</course>
  <speed>1.0</speed>
  <fix>3d</fix>
</trkpt>
<trkpt lat="40.0709529" lon="-105.2299257">
  <ele>1583.04</ele>
  <time>2026-08-28T17:49:50Z</time>
  <course>200.64</course>
  <speed>0.9902019995940222</speed>
  <fix>3d</fix>
</trkpt>
<trkpt lat="40.0709547" lon="-105.2299247">
  <ele>1583.0</ele>
  <time>2026-08-28T17:49:50Z</time>
  <course>199.48</course>
  <speed>1.0</speed>
  <fix>3d</fix>
</trkpt>
<trkpt lat="40.0709521" lon="-105.2299261">
  <ele>1583.05</ele>
  <time>2026-08-28T17:49:50Z</time>
  <course>200.68</course>
  <speed>0.9902019995940222</speed>
  <fix>3d</fix>
</trkpt>
<trkpt lat="40.070953" lon="-105.2299256">
  <ele>1583.0</ele>
  <time>2026-08-28T17:49:50Z</time>
  <course>199.59</course>
  <speed>1.0</speed>
  <fix>3d</fix>
</trkpt>
<trkpt lat="40.0709512" lon="-105.2299265">
  <ele>1583.05</ele>
  <time>2026-08-28T17:49:50Z</time>
  <course>200.71</course>
  <speed>0.9902019995940222</speed>
  <fix>3d</fix>
</trkpt>
<trkpt lat="40.070953" lon="-105.2299256">
  <ele>1583.0</ele>
  <time>2026-08-28T17:49:50Z</time>
  <course>199.59</course>
  <speed>1.0</speed>
  <fix>3d</fix>
</trkpt>
<trkpt lat="40.0709504" lon="-105.2299269">
  <ele>1583.05</ele>
  <time>2026-08-28T17:49:50Z</time>
  <course>200.72</course>
  <speed>0.9902019995940222</speed>
  <fix>3d</fix>
</trkpt>
<trkpt lat="40.0709513" lon="-105.2299263">
  <ele>1583.0</ele>
  <time>2026-08-28T17:49:50Z</time>
  <course>199.65</course>
  <speed>1.0</speed>
  <fix>3d</fix>
</trkpt>
<trkpt lat="40.0709495" lon="-105.2299273">
  <ele>1583.05</ele>
  <time>2026-08-28T17:49:50Z</time>
  <course>200.73</course>
  <speed>0.9902019995940222</speed>
  <fix>3d</fix>
</trkpt>
<trkpt lat="40.0709513" lon="-105.2299263">
  <ele>1583.0</ele>
  <time>2026-08-28T17:49:50Z</time>
  <course>199.65</course>
  <speed>1.0</speed>
  <fix>3d</fix>
</trkpt>
<trkpt lat="40.0709486" lon="-105.2299277">
  <ele>1583.05</ele>
  <time>2026-08-28T17:49:50Z</time>
  <course>200.73</course>
  <speed>0.9902019995940222</speed>
  <fix>3d</fix>
</trkpt>
<trkpt lat="40.0709496" lon="-105.2299271">
  <ele>1583.0</ele>
  <time>2026-08-28T17:49:50Z</time>
  <course>199.68</course>
  <speed>1.01</speed>
  <fix>3d</fix>
</trkpt>
<trkpt lat="40.0709478" lon="-105.2299281">
  <ele>1583.05</ele>
  <time>2026-08-28T17:49:50Z</time>
  <course>200.73</course>
  <speed>0.9902019995940222</speed>
  <fix>3d</fix>
</trkpt>
<trkpt lat="40.0709496" lon="-105.2299271">
  <ele>1583.0</ele>
  <time>2026-08-28T17:49:50Z</time>
  <course>199.68</course>
  <speed>1.01</speed>
  <fix>3d</fix>
</trkpt>
<trkpt lat="40.0709469" lon="-105.2299285">
  <ele>1583.05</ele>
  <time>2026-08-28T17:49:50Z</time>
  <course>200.72</course>
  <speed>0.9902019995940222</speed>
  <fix>3d</fix>
</trkpt>
<trkpt lat="40.0709479" lon="-105.2299279">
  <ele>1583.0</ele>
  <time>2026-08-28T17:49:50Z</time>
  <course>199.67</course>
  <speed>1.01</speed>
  <fix>3d</fix>
</trkpt>
<trkpt lat="40.0709461" lon="-105.2299289">
  <ele>1583.05</ele>
  <time>2026-08-28T17:49:50Z</time>
  <course>200.69</course>
  <speed>0.9902019995940222</speed>
  <fix>3d</fix>
</trkpt>
<trkpt lat="40.0709479" lon="-105.2299279">
  <ele>1583.0</ele>
  <time>2026-08-28T17:49:50Z</time>
  <course>199.67</course>
  <speed>1.01</speed>
  <fix>3d</fix>
</trkpt>
<trkpt lat="40.0709452" lon="-105.2299293">
  <ele>1583.05</ele>
  <time>2026-08-28T17:49:50Z</time>
  <course>200.67</course>
  <speed>0.9902019995940222</speed>
  <fix>3d</fix>
</trkpt>
<trkpt lat="40.0709462" lon="-105.2299286">
  <ele>1583.0</ele>
  <time>2026-08-28T17:49:50Z</time>
  <course>199.63</course>
  <speed>1.01</speed>
  <fix>3d</fix>
</trkpt>
<trkpt lat="40.0709443" lon="-105.2299297">
  <ele>1583.05</ele>
  <time>2026-08-28T17:49:50Z</time>
  <course>200.63</course>
  <speed>0.9902019995940222</speed>
  <fix>3d</fix>
</trkpt>
<trkpt lat="40.0709462" lon="-105.2299286">
  <ele>1583.0</ele>
  <time>2026-08-28T17:49:50Z</time>
  <course>199.63</course>
  <speed>1.01</speed>
  <fix>3d</fix>
</trkpt>
<trkpt lat="40.0709435" lon="-105.22993">
  <ele>1583.05</ele>
  <time>2026-08-28T17:49:50Z</time>
  <course>200.59</course>
  <speed>0.9902019995940222</speed>
  <fix>3d</fix>
</trkpt>
<trkpt lat="40.0709445" lon="-105.2299295">
  <ele>1583.0</ele>
  <time>2026-08-28T17:49:50Z</time>
  <course>199.57</course>
  <speed>1.01</speed>
  <fix>3d</fix>
</trkpt>
<trkpt lat="40.0709426" lon="-105.2299304">
  <ele>1583.05</ele>
  <time>2026-08-28T17:49:50Z</time>
  <course>200.54</course>
  <speed>0.9902019995940222</speed>
  <fix>3d</fix>
</trkpt>
<trkpt lat="40.0709445" lon="-105.2299295">
  <ele>1583.0</ele>
  <time>2026-08-28T17:49:50Z</time>
  <course>199.57</course>
  <speed>1.01</speed>
  <fix>3d</fix>
</trkpt>
<trkpt lat="40.0709418" lon="-105.2299308">
  <ele>1583.05</ele>
  <time>2026-08-28T17:49:50Z</time>
  <course>200.48</course>
  <speed>0.9995999199679839</speed>
  <fix>3d</fix>
</trkpt>
<trkpt lat="40.0709445" lon="-105.2299295">
  <ele>1583.0</ele>
  <time>2026-08-28T17:49:50Z</time>
  <course>199.57</course>
  <speed>1.01</speed>
  <fix>3d</fix>
</trkpt>
<trkpt lat="40.0709409" lon="-105.2299312">
  <ele>1583.05</ele>
  <time>2026-08-28T17:49:50Z</time>
  <course>200.42</course>
  <speed>0.9962429422585637</speed>
  <fix>3d</fix>
</trkpt>
<trkpt lat="40.0709428" lon="-105.2299303">
  <ele>1583.0</ele>
  <time>2026-08-28T17:49:50Z</time>
  <course>199.47</course>
  <speed>1.01</speed>
  <fix>3d</fix>
</trkpt>
<trkpt lat="40.0709401" lon="-105.2299316">
  <ele>1583.05</ele>
  <time>2026-08-28T17:49:50Z</time>
  <course>200.36</course>
  <speed>0.9962429422585637</speed>
  <fix>3d</fix>
</trkpt>
<trkpt lat="40.0709428" lon="-105.2299303">
  <ele>1583.0</ele>
  <time>2026-08-28T17:49:50Z</time>
  <course>199.47</course>
  <speed>1.01</speed>
  <fix>3d</fix>
</trkpt>
<trkpt lat="40.0709392" lon="-105.229932">
  <ele>1583.04</ele>
  <time>2026-08-28T17:49:50Z</time>
  <course>200.29</course>
  <speed>0.9962429422585637</speed>
  <fix>3d</fix>
</trkpt>
<trkpt lat="40.070941" lon="-105.229931">
  <ele>1583.0</ele>
  <time>2026-08-28T17:49:50Z</time>
  <course>199.36</course>
  <speed>1.01</speed>
  <fix>3d</fix>
</trkpt>
<trkpt lat="40.0709384" lon="-105.2299324">
  <ele>1583.04</ele>
  <time>2026-08-28T17:49:50Z</time>
  <course>200.21</course>
  <speed>0.9962429422585637</speed>
  <fix>3d</fix>
</trkpt>
<trkpt lat="40.070941" lon="-105.229931">
  <ele>1583.0</ele>
  <time>2026-08-28T17:49:50Z</time>
  <course>199.36</course>
  <speed>1.01</speed>
  <fix>3d</fix>
</trkpt>
<trkpt lat="40.0709375" lon="-105.2299328">
  <ele>1583.04</ele>
  <time>2026-08-28T17:49:50Z</time>
  <course>200.13</course>
  <speed>0.9962429422585637</speed>
  <fix>3d</fix>
</trkpt>
<trkpt lat="40.0709393" lon="-105.2299319">
  <ele>1583.0</ele>
  <time>2026-08-28T17:49:50Z</time>
  <course>199.22</course>
  <speed>1.01</speed>
  <fix>3d</fix>
</trkpt>
<trkpt lat="40.0709366" lon="-105.2299331">
  <ele>1583.04</ele>
  <time>2026-08-28T17:49:50Z</time>
  <course>200.05</course>
  <speed>0.9962429422585637</speed>
  <fix>3d</fix>
</trkpt>
<trkpt lat="40.0709376" lon="-105.2299327">
  <ele>1583.0</ele>
  <time>2026-08-28T17:49:50Z</time>
  <course>199.06</course>
  <speed>1.01</speed>
  <fix>3d</fix>
</trkpt>
<trkpt lat="40.0709358" lon="-105.2299335">
  <ele>1583.04</ele>
  <time>2026-08-28T17:49:50Z</time>
  <course>199.97</course>
  <speed>0.9962429422585637</speed>
  <fix>3d</fix>
</trkpt>
<trkpt lat="40.0709376" lon="-105.2299327">
  <ele>1583.0</ele>
  <time>2026-08-28T17:49:50Z</time>
  <course>199.06</course>
  <speed>1.01</speed>
  <fix>3d</fix>
</trkpt>
<trkpt lat="40.0709349" lon="-105.2299339">
  <ele>1583.04</ele>
  <time>2026-08-28T17:49:50Z</time>
  <course>199.88</course>
  <speed>0.9962429422585637</speed>
  <fix>3d</fix>
</trkpt>
<trkpt lat="40.0709358" lon="-105.2299334">
  <ele>1583.0</ele>
  <time>2026-08-28T17:49:50Z</time>
  <course>198.89</course>
  <speed>1.01</speed>
  <fix>3d</fix>
</trkpt>
<trkpt lat="40.0709341" lon="-105.2299343">
  <ele>1583.04</ele>
  <time>2026-08-28T17:49:50Z</time>
  <course>199.78</course>
  <speed>0.9929753269845127</speed>
  <fix>3d</fix>
</trkpt>
<trkpt lat="40.0709358" lon="-105.2299334">
  <ele>1583.0</ele>
  <time>2026-08-28T17:49:50Z</time>
  <course>198.89</course>
  <speed>1.01</speed>
  <fix>3d</fix>
</trkpt>
<trkpt lat="40.0709332" lon="-105.2299347">
  <ele>1583.04</ele>
  <time>2026-08-28T17:49:50Z</time>
  <course>199.69</course>
  <speed>0.9929753269845127</speed>
  <fix>3d</fix>
</trkpt>
<trkpt lat="40.0709341" lon="-105.2299342">
  <ele>1583.0</ele>
  <time>2026-08-28T17:49:50Z</time>
  <course>198.71</course>
  <speed>1.01</speed>
  <fix>3d</fix>
</trkpt>
<trkpt lat="40.0709323" lon="-105.2299351">
  <ele>1583.04</ele>
  <time>2026-08-28T17:49:50Z</time>
  <course>199.59</course>
  <speed>0.9929753269845127</speed>
  <fix>3d</fix>
</trkpt>
<trkpt lat="40.0709341" lon="-105.2299342">
  <ele>1583.0</ele>
  <time>2026-08-28T17:49:50Z</time>
  <course>198.71</course>
  <speed>1.01</speed>
  <fix>3d</fix>
</trkpt>
<trkpt lat="40.0709314" lon="-105.2299354">
  <ele>1583.04</ele>
  <time>2026-08-28T17:49:50Z</time>
  <course>199.5</course>
  <speed>0.9929753269845127</speed>
  <fix>3d</fix>
</trkpt>
<trkpt lat="40.0709324" lon="-105.229935">
  <ele>1583.0</ele>
  <time>2026-08-28T17:49:50Z</time>
  <course>198.52</course>
  <speed>1.01</speed>
  <fix>3d</fix>
</trkpt>
<trkpt lat="40.0709306" lon="-105.2299358">
  <ele>1583.04</ele>
  <time>2026-08-28T17:49:50Z</time>
  <course>199.4</course>
  <speed>0.9929753269845127</speed>
  <fix>3d</fix>
</trkpt>
<trkpt lat="40.0709324" lon="-105.229935">
  <ele>1583.0</ele>
  <time>2026-08-28T17:49:50Z</time>
  <course>198.52</course>
  <speed>1.01</speed>
  <fix>3d</fix>
</trkpt>
<trkpt lat="40.0709297" lon="-105.2299362">
  <ele>1583.04</ele>
  <time>2026-08-28T17:49:50Z</time>
  <course>199.3</course>
  <speed>0.9929753269845127</speed>
  <fix>3d</fix>
</trkpt>
<trkpt lat="40.0709307" lon="-105.2299357">
  <ele>1583.0</ele>
  <time>2026-08-28T17:49:50Z</time>
  <course>198.33</course>
  <speed>1.01</speed>
  <fix>3d</fix>
</trkpt>
<trkpt lat="40.0709288" lon="-105.2299366">
  <ele>1583.05</ele>
  <time>2026-08-28T17:49:50Z</time>
  <course>199.2</course>
  <speed>0.9929753269845127</speed>
  <fix>3d</fix>
</trkpt>
<trkpt lat="40.0709307" lon="-105.2299357">
  <ele>1583.0</ele>
  <time>2026-08-28T17:49:50Z</time>
  <course>198.33</course>
  <speed>1.01</speed>
  <fix>3d</fix>
</trkpt>
<trkpt lat="40.070928" lon="-105.229937">
  <ele>1583.05</ele>
  <time>2026-08-28T17:49:50Z</time>
  <course>199.09</course>
  <speed>0.9929753269845127</speed>
  <fix>3d</fix>
</trkpt>
<trkpt lat="40.0709289" lon="-105.2299364">
  <ele>1583.0</ele>
  <time>2026-08-28T17:49:50Z</time>
  <course>198.12</course>
  <speed>1.01</speed>
  <fix>3d</fix>
</trkpt>
<trkpt lat="40.0709271" lon="-105.2299373">
  <ele>1583.05</ele>
  <time>2026-08-28T17:49:50Z</time>
  <course>198.99</course>
  <speed>0.9897979591815695</speed>
  <fix>3d</fix>
</trkpt>
<trkpt lat="40.0709289" lon="-105.2299364">
  <ele>1583.0</ele>
  <time>2026-08-28T17:49:50Z</time>
  <course>198.12</course>
  <speed>1.01</speed>
  <fix>3d</fix>
</trkpt>
<trkpt lat="40.0709262" lon="-105.2299377">
  <ele>1583.05</ele>
  <time>2026-08-28T17:49:50Z</time>
  <course>198.88</course>
  <speed>0.9897979591815695</speed>
  <fix>3d</fix>
</trkpt>
<trkpt lat="40.0709272" lon="-105.2299372">
  <ele>1583.0</ele>
  <time>2026-08-28T17:49:50Z</time>
  <course>197.91</course>
  <speed>1.01</speed>
  <fix>3d</fix>
</trkpt>
<trkpt lat="40.0709253" lon="-105.2299381">
  <ele>1583.04</ele>
  <time>2026-08-28T17:49:50Z</time>
  <course>198.79</course>
  <speed>0.9897979591815695</speed>
  <fix>3d</fix>
</trkpt>
<trkpt lat="40.0709272" lon="-105.2299372">
  <ele>1583.0</ele>
  <time>2026-08-28T17:49:50Z</time>
  <course>197.91</course>
  <speed>1.01</speed>
  <fix>3d</fix>
</trkpt>
<trkpt lat="40.0709245" lon="-105.2299384">
  <ele>1583.04</ele>
  <time>2026-08-28T17:49:50Z</time>
  <course>198.68</course>
  <speed>0.9897979591815695</speed>
  <fix>3d</fix>
</trkpt>
<trkpt lat="40.0709272" lon="-105.2299372">
  <ele>1583.0</ele>
  <time>2026-08-28T17:49:50Z</time>
  <course>197.91</course>
  <speed>1.01</speed>
  <fix>3d</fix>
</trkpt>
<trkpt lat="40.0709236" lon="-105.2299388">
  <ele>1583.04</ele>
  <time>2026-08-28T17:49:50Z</time>
  <course>198.58</course>
  <speed>0.9897979591815695</speed>
  <fix>3d</fix>
</trkpt>
<trkpt lat="40.0709255" lon="-105.2299379">
  <ele>1583.0</ele>
  <time>2026-08-28T17:49:50Z</time>
  <course>197.7</course>
  <speed>1.01</speed>
  <fix>3d</fix>
</trkpt>
<trkpt lat="40.0709227" lon="-105.2299391">
  <ele>1583.04</ele>
  <time>2026-08-28T17:49:50Z</time>
  <course>198.47</course>
  <speed>0.9992997548283498</speed>
  <fix>3d</fix>
</trkpt>
<trkpt lat="40.0709255" lon="-105.2299379">
  <ele>1583.0</ele>
  <time>2026-08-28T17:49:50Z</time>
  <course>197.7</course>
  <speed>1.01</speed>
  <fix>3d</fix>
</trkpt>
<trkpt lat="40.0709219" lon="-105.2299395">
  <ele>1583.03</ele>
  <time>2026-08-28T17:49:50Z</time>
  <course>198.37</course>
  <speed>0.9962429422585637</speed>
  <fix>3d</fix>
</trkpt>
<trkpt lat="40.0709237" lon="-105.2299386">
  <ele>1583.0</ele>
  <time>2026-08-28T17:49:50Z</time>
  <course>197.49</course>
  <speed>1.01</speed>
  <fix>3d</fix>
</trkpt>
<trkpt lat="40.070921" lon="-105.2299398">
  <ele>1583.03</ele>
  <time>2026-08-28T17:49:50Z</time>
  <course>198.27</course>
  <speed>0.9962429422585637</speed>
  <fix>3d</fix>
</trkpt>
<trkpt lat="40.0709237" lon="-105.2299386">
  <ele>1583.0</ele>
  <time>2026-08-28T17:49:50Z</time>
  <course>197.49</course>
  <speed>1.01</speed>
  <fix>3d</fix>
</trkpt>
<trkpt lat="40.0709202" lon="-105.2299402">
  <ele>1583.02</ele>
  <time>2026-08-28T17:49:50Z</time>
  <course>198.18</course>
  <speed>0.9962429422585637</speed>
  <fix>3d</fix>
</trkpt>
<trkpt lat="40.070922" lon="-105.2299394">
  <ele>1583.0</ele>
  <time>2026-08-28T17:49:50Z</time>
  <course>197.29</course>
  <speed>1.01</speed>
  <fix>3d</fix>
</trkpt>
<trkpt lat="40.0709193" lon="-105.2299405">
  <ele>1583.02</ele>
  <time>2026-08-28T17:49:50Z</time>
  <course>198.08</course>
  <speed>0.9962429422585637</speed>
  <fix>3d</fix>
</trkpt>
<trkpt lat="40.070922" lon="-105.2299394">
  <ele>1583.0</ele>
  <time>2026-08-28T17:49:50Z</time>
  <course>197.29</course>
  <speed>1.01</speed>
  <fix>3d</fix>
</trkpt>
<trkpt lat="40.0709184" lon="-105.2299409">
  <ele>1583.02</ele>
  <time>2026-08-28T17:49:50Z</time>
  <course>197.98</course>
  <speed>0.9962429422585637</speed>
  <fix>3d</fix>
</trkpt>
<trkpt lat="40.0709203" lon="-105.2299401">
  <ele>1583.0</ele>
  <time>2026-08-28T17:49:50Z</time>
  <course>197.09</course>
  <speed>1.01</speed>
  <fix>3d</fix>
</trkpt>
<trkpt lat="40.0709176" lon="-105.2299412">
  <ele>1583.02</ele>
  <time>2026-08-28T17:49:50Z</time>
  <course>197.88</course>
  <speed>0.9962429422585637</speed>
  <fix>3d</fix>
</trkpt>
<trkpt lat="40.0709185" lon="-105.2299408">
  <ele>1583.0</ele>
  <time>2026-08-28T17:49:50Z</time>
  <course>196.9</course>
  <speed>1.01</speed>
  <fix>3d</fix>
</trkpt>
<trkpt lat="40.0709167" lon="-105.2299416">
  <ele>1583.02</ele>
  <time>2026-08-28T17:49:50Z</time>
  <course>197.79</course>
  <speed>0.9962429422585637</speed>
  <fix>3d</fix>
</trkpt>
<trkpt lat="40.0709185" lon="-105.2299408">
  <ele>1583.0</ele>
  <time>2026-08-28T17:49:50Z</time>
  <course>196.9</course>
  <speed>1.01</speed>
  <fix>3d</fix>
</trkpt>
<trkpt lat="40.0709158" lon="-105.2299419">
  <ele>1583.02</ele>
  <time>2026-08-28T17:49:50Z</time>
  <course>197.69</course>
  <speed>0.9962429422585637</speed>
  <fix>3d</fix>
</trkpt>
<trkpt lat="40.0709167" lon="-105.2299415">
  <ele>1583.0</ele>
  <time>2026-08-28T17:49:50Z</time>
  <course>196.71</course>
  <speed>1.01</speed>
  <fix>3d</fix>
</trkpt>
<trkpt lat="40.0709149" lon="-105.2299423">
  <ele>1583.02</ele>
  <time>2026-08-28T17:49:50Z</time>
  <course>197.6</course>
  <speed>0.9932774033471213</speed>
  <fix>3d</fix>
</trkpt>
<trkpt lat="40.0709167" lon="-105.2299415">
  <ele>1583.0</ele>
  <time>2026-08-28T17:49:50Z</time>
  <course>196.71</course>
  <speed>1.01</speed>
  <fix>3d</fix>
</trkpt>
<trkpt lat="40.0709141" lon="-105.2299426">
  <ele>1583.01</ele>
  <time>2026-08-28T17:49:50Z</time>
  <course>197.5</course>
  <speed>0.9932774033471213</speed>
  <fix>3d</fix>
</trkpt>
<trkpt lat="40.070915" lon="-105.2299421">
  <ele>1583.0</ele>
  <time>2026-08-28T17:49:50Z</time>
  <course>196.51</course>
  <speed>1.01</speed>
  <fix>3d</fix>
</trkpt>
<trkpt lat="40.0709132" lon="-105.229943">
  <ele>1583.01</ele>
  <time>2026-08-28T17:49:50Z</time>
  <course>197.4</course>
  <speed>0.9932774033471213</speed>
  <fix>3d</fix>
</trkpt>
<trkpt lat="40.070915" lon="-105.2299421">
  <ele>1583.0</ele>
  <time>2026-08-28T17:49:50Z</time>
  <course>196.51</course>
  <speed>1.01</speed>
  <fix>3d</fix>
</trkpt>
<trkpt lat="40.0709123" lon="-105.2299433">
  <ele>1583.01</ele>
  <time>2026-08-28T17:49:50Z</time>
  <course>197.31</course>
  <speed>0.9932774033471213</speed>
  <fix>3d</fix>
</trkpt>
<trkpt lat="40.0709133" lon="-105.2299428">
  <ele>1583.0</ele>
  <time>2026-08-28T17:49:50Z</time>
  <course>196.32</course>
  <speed>1.01</speed>
  <fix>3d</fix>
</trkpt>
<trkpt lat="40.0709114" lon="-105.2299436">
  <ele>1583.01</ele>
  <time>2026-08-28T17:49:50Z</time>
  <course>197.21</course>
  <speed>0.9932774033471213</speed>
  <fix>3d</fix>
</trkpt>
<trkpt lat="40.0709133" lon="-105.2299428">
  <ele>1583.0</ele>
  <time>2026-08-28T17:49:50Z</time>
  <course>196.32</course>
  <speed>1.01</speed>
  <fix>3d</fix>
</trkpt>
<trkpt lat="40.0709105" lon="-105.229944">
  <ele>1583.01</ele>
  <time>2026-08-28T17:49:50Z</time>
  <course>197.12</course>
  <speed>0.9932774033471213</speed>
  <fix>3d</fix>
</trkpt>
<trkpt lat="40.0709114" lon="-105.2299435">
  <ele>1583.0</ele>
  <time>2026-08-28T17:49:50Z</time>
  <course>196.13</course>
  <speed>1.01</speed>
  <fix>3d</fix>
</trkpt>
<trkpt lat="40.0709096" lon="-105.2299443">
  <ele>1583.0</ele>
  <time>2026-08-28T17:49:50Z</time>
  <course>197.03</course>
  <speed>0.9932774033471213</speed>
  <fix>3d</fix>
</trkpt>
<trkpt lat="40.0709114" lon="-105.2299435">
  <ele>1583.0</ele>
  <time>2026-08-28T17:49:50Z</time>
  <course>196.13</course>
  <speed>1.01</speed>
  <fix>3d</fix>
</trkpt>
<trkpt lat="40.0709088" lon="-105.2299446">
  <ele>1583.0</ele>
  <time>2026-08-28T17:49:50Z</time>
  <course>196.95</course>
  <speed>0.9904039579888603</speed>
  <fix>3d</fix>
</trkpt>
<trkpt lat="40.0709097" lon="-105.2299442">
  <ele>1583.0</ele>
  <time>2026-08-28T17:49:50Z</time>
  <course>195.95</course>
  <speed>1.01</speed>
  <fix>3d</fix>
</trkpt>
<trkpt lat="40.0709079" lon="-105.229945">
  <ele>1583.0</ele>
  <time>2026-08-28T17:49:50Z</time>
  <course>196.69</course>
  <speed>0.9904039579888603</speed>
  <fix>3d</fix>
</trkpt>
<trkpt lat="40.0709097" lon="-105.2299442">
  <ele>1583.0</ele>
  <time>2026-08-28T17:49:50Z</time>
  <course>195.95</course>
  <speed>1.01</speed>
  <fix>3d</fix>
</trkpt>
<trkpt lat="40.070907" lon="-105.2299453">
  <ele>1582.99</ele>
  <time>2026-08-28T17:49:50Z</time>
  <course>195.95</course>
  <speed>0.9972462083156798</speed>
  <fix>3d</fix>
</trkpt>
<trkpt lat="40.070908" lon="-105.2299448">
  <ele>1583.0</ele>
  <time>2026-08-28T17:49:50Z</time>
  <course>195.36</course>
  <speed>1.01</speed>
  <fix>3d</fix>
</trkpt>
<trkpt lat="40.0709061" lon="-105.2299456">
  <ele>1582.99</ele>
  <time>2026-08-28T17:49:50Z</time>
  <course>194.74</course>
  <speed>0.9920181449953424</speed>
  <fix>3d</fix>
</trkpt>
<trkpt lat="40.070908" lon="-105.2299448">
  <ele>1583.0</ele>
  <time>2026-08-28T17:49:50Z</time>
  <course>195.36</course>
  <speed>1.01</speed>
  <fix>3d</fix>
</trkpt>
<trkpt lat="40.0709052" lon="-105.2299459">
  <ele>1582.99</ele>
  <time>2026-08-28T17:49:50Z</time>
  <course>193.04</course>
  <speed>0.9848857801796105</speed>
  <fix>3d</fix>
</trkpt>
<trkpt lat="40.070908" lon="-105.2299448">
  <ele>1583.0</ele>
  <time>2026-08-28T17:49:50Z</time>
  <course>195.36</course>
  <speed>1.01</speed>
  <fix>3d</fix>
</trkpt>
<trkpt lat="40.0709043" lon="-105.2299461">
  <ele>1582.99</ele>
  <time>2026-08-28T17:49:50Z</time>
  <course>190.82</course>
  <speed>0.9865596788841515</speed>
  <fix>3d</fix>
</trkpt>
<trkpt lat="40.0709061" lon="-105.2299454">
  <ele>1583.0</ele>
  <time>2026-08-28T17:49:50Z</time>
  <course>193.4</course>
  <speed>1.01</speed>
  <fix>3d</fix>
</trkpt>
<trkpt lat="40.0709034" lon="-105.2299462">
  <ele>1582.99</ele>
  <time>2026-08-28T17:49:50Z</time>
  <course>188.08</course>
  <speed>0.9687620966986684</speed>
  <fix>3d</fix>
</trkpt>
<trkpt lat="40.0709061" lon="-105.2299454">
  <ele>1583.0</ele>
  <time>2026-08-28T17:49:50Z</time>
  <course>193.4</course>
  <speed>1.01</speed>
  <fix>3d</fix>
</trkpt>
<trkpt lat="40.0709026" lon="-105.2299463">
  <ele>1582.99</ele>
  <time>2026-08-28T17:49:50Z</time>
  <course>184.78</course>
  <speed>0.9525754563287887</speed>
  <fix>3d</fix>
</trkpt>
<trkpt lat="40.0709044" lon="-105.2299458">
  <ele>1583.0</ele>
  <time>2026-08-28T17:49:50Z</time>
  <course>189.47</course>
  <speed>1.0</speed>
  <fix>3d</fix>
</trkpt>
<trkpt lat="40.0709017" lon="-105.2299464">
  <ele>1582.99</ele>
  <time>2026-08-28T17:49:50Z</time>
  <course>180.91</course>
  <speed>0.94</speed>
  <fix>3d</fix>
</trkpt>
<trkpt lat="40.0709044" lon="-105.2299458">
  <ele>1583.0</ele>
  <time>2026-08-28T17:49:50Z</time>
  <course>189.47</course>
  <speed>1.0</speed>
  <fix>3d</fix>
</trkpt>
<trkpt lat="40.0709008" lon="-105.2299463">
  <ele>1582.98</ele>
  <time>2026-08-28T17:49:50Z</time>
  <course>176.47</course>
  <speed>0.9219544457292888</speed>
  <fix>3d</fix>
</trkpt>
<trkpt lat="40.0709027" lon="-105.2299462">
  <ele>1583.0</ele>
  <time>2026-08-28T17:49:50Z</time>
  <course>183.43</course>
  <speed>0.97</speed>
  <fix>3d</fix>
</trkpt>
<trkpt lat="40.0709" lon="-105.2299462">
  <ele>1582.98</ele>
  <time>2026-08-28T17:49:50Z</time>
  <course>171.47</course>
  <speed>0.8910667763978185</speed>
  <fix>3d</fix>
</trkpt>
<trkpt lat="40.0709009" lon="-105.2299462">
  <ele>1583.0</ele>
  <time>2026-08-28T17:49:50Z</time>
  <course>175.18</course>
  <speed>0.93</speed>
  <fix>3d</fix>
</trkpt>
<trkpt lat="40.0708992" lon="-105.2299459">
  <ele>1582.98</ele>
  <time>2026-08-28T17:49:50Z</time>
  <course>166.37</course>
  <speed>0.8658521813797087</speed>
  <fix>3d</fix>
</trkpt>
<trkpt lat="40.0709009" lon="-105.2299462">
  <ele>1583.0</ele>
  <time>2026-08-28T17:49:50Z</time>
  <course>175.18</course>
  <speed>0.93</speed>
  <fix>3d</fix>
</trkpt>
<trkpt lat="40.0708985" lon="-105.2299456">
  <ele>1582.98</ele>
  <time>2026-08-28T17:49:50Z</time>
  <course>161.56</course>
  <speed>0.8475848040166837</speed>
  <fix>3d</fix>
</trkpt>
<trkpt lat="40.0708993" lon="-105.2299458">
  <ele>1583.0</ele>
  <time>2026-08-28T17:49:50Z</time>
  <course>165.53</course>
  <speed>0.89</speed>
  <fix>3d</fix>
</trkpt>
<trkpt lat="40.0708977" lon="-105.2299453">
  <ele>1582.98</ele>
  <time>2026-08-28T17:49:50Z</time>
  <course>157.22</course>
  <speed>0.8417244204607586</speed>
  <fix>3d</fix>
</trkpt>
<trkpt lat="40.0708993" lon="-105.2299458">
  <ele>1583.0</ele>
  <time>2026-08-28T17:49:50Z</time>
  <course>165.53</course>
  <speed>0.89</speed>
  <fix>3d</fix>
</trkpt>
<trkpt lat="40.0708971" lon="-105.2299448">
  <ele>1582.98</ele>
  <time>2026-08-28T17:49:50Z</time>
  <course>153.28</course>
  <speed>0.8276472678623424</speed>
  <fix>3d</fix>
</trkpt>
<trkpt lat="40.0708978" lon="-105.2299452">
  <ele>1583.0</ele>
  <time>2026-08-28T17:49:50Z</time>
  <course>156.36</course>
  <speed>0.86</speed>
  <fix>3d</fix>
</trkpt>
<trkpt lat="40.0708964" lon="-105.2299443">
  <ele>1582.98</ele>
  <time>2026-08-28T17:49:50Z</time>
  <course>149.79</course>
  <speed>0.8215229759416348</speed>
  <fix>3d</fix>
</trkpt>
<trkpt lat="40.0708978" lon="-105.2299452">
  <ele>1583.0</ele>
  <time>2026-08-28T17:49:50Z</time>
  <course>156.36</course>
  <speed>0.86</speed>
  <fix>3d</fix>
</trkpt>
<trkpt lat="40.0708958" lon="-105.2299437">
  <ele>1582.98</ele>
  <time>2026-08-28T17:49:50Z</time>
  <course>146.74</course>
  <speed>0.8266196223173026</speed>
  <fix>3d</fix>
</trkpt>
<trkpt lat="40.0708964" lon="-105.2299443">
  <ele>1583.0</ele>
  <time>2026-08-28T17:49:50Z</time>
  <course>148.88</course>
  <speed>0.85</speed>
  <fix>3d</fix>
</trkpt>
<trkpt lat="40.0708951" lon="-105.2299431">
  <ele>1582.98</ele>
  <time>2026-08-28T17:49:50Z</time>
  <course>144.13</course>
  <speed>0.8340863264674706</speed>
  <fix>3d</fix>
</trkpt>
<trkpt lat="40.0708964" lon="-105.2299443">
  <ele>1583.0</ele>
  <time>2026-08-28T17:49:50Z</time>
  <course>148.88</course>
  <speed>0.85</speed>
  <fix>3d</fix>
</trkpt>
<trkpt lat="40.0708945" lon="-105.2299425">
  <ele>1582.98</ele>
  <time>2026-08-28T17:49:50Z</time>
  <course>142.0</course>
  <speed>0.8450443775329198</speed>
  <fix>3d</fix>
</trkpt>
<trkpt lat="40.0708951" lon="-105.2299432">
  <ele>1583.0</ele>
  <time>2026-08-28T17:49:50Z</time>
  <course>143.22</course>
  <speed>0.86</speed>
  <fix>3d</fix>
</trkpt>
<trkpt lat="40.0708939" lon="-105.2299418">
  <ele>1582.98</ele>
  <time>2026-08-28T17:49:50Z</time>
  <course>140.34</course>
  <speed>0.8645229898620395</speed>
  <fix>3d</fix>
</trkpt>
<trkpt lat="40.0708951" lon="-105.2299432">
  <ele>1583.0</ele>
  <time>2026-08-28T17:49:50Z</time>
  <course>143.22</course>
  <speed>0.86</speed>
  <fix>3d</fix>
</trkpt>
<trkpt lat="40.0708933" lon="-105.2299411">
  <ele>1582.98</ele>
  <time>2026-08-28T17:49:50Z</time>
  <course>139.16</course>
  <speed>0.8778382538941898</speed>
  <fix>3d</fix>
</trkpt>
<trkpt lat="40.0708939" lon="-105.2299419">
  <ele>1583.0</ele>
  <time>2026-08-28T17:49:50Z</time>
  <course>139.44</course>
  <speed>0.88</speed>
  <fix>3d</fix>
</trkpt>
<trkpt lat="40.0708927" lon="-105.2299404">
  <ele>1582.98</ele>
  <time>2026-08-28T17:49:50Z</time>
  <course>138.35</course>
  <speed>0.891403387922662</speed>
  <fix>3d</fix>
</trkpt>
<trkpt lat="40.0708939" lon="-105.2299419">
  <ele>1583.0</ele>
  <time>2026-08-28T17:49:50Z</time>
  <course>139.44</course>
  <speed>0.88</speed>
  <fix>3d</fix>
</trkpt>
<trkpt lat="40.0708921" lon="-105.2299396">
  <ele>1582.98</ele>
  <time>2026-08-28T17:49:50Z</time>
  <course>137.59</course>
  <speed>0.9052071586106685</speed>
  <fix>3d</fix>
</trkpt>
<trkpt lat="40.0708927" lon="-105.2299405">
  <ele>1583.0</ele>
  <time>2026-08-28T17:49:50Z</time>
  <course>137.24</course>
  <speed>0.91</speed>
  <fix>3d</fix>
</trkpt>
<trkpt lat="40.0708915" lon="-105.2299388">
  <ele>1582.98</ele>
  <time>2026-08-28T17:49:50Z</time>
  <course>136.87</course>
  <speed>0.9263368717696602</speed>
  <fix>3d</fix>
</trkpt>
<trkpt lat="40.0708927" lon="-105.2299405">
  <ele>1583.0</ele>
  <time>2026-08-28T17:49:50Z</time>
  <course>137.24</course>
  <speed>0.91</speed>
  <fix>3d</fix>
</trkpt>
<trkpt lat="40.0708909" lon="-105.2299381">
  <ele>1582.98</ele>
  <time>2026-08-28T17:49:50Z</time>
  <course>136.19</course>
  <speed>0.9404786015641186</speed>
  <fix>3d</fix>
</trkpt>
<trkpt lat="40.0708927" lon="-105.2299405">
  <ele>1583.0</ele>
  <time>2026-08-28T17:49:50Z</time>
  <course>137.24</course>
  <speed>0.91</speed>
  <fix>3d</fix>
</trkpt>
<trkpt lat="40.0708903" lon="-105.2299373">
  <ele>1582.98</ele>
  <time>2026-08-28T17:49:50Z</time>
  <course>135.54</course>
  <speed>0.9476286192385708</speed>
  <fix>3d</fix>
</trkpt>
<trkpt lat="40.0708915" lon="-105.229939">
  <ele>1583.0</ele>
  <time>2026-08-28T17:49:50Z</time>
  <course>135.75</course>
  <speed>0.94</speed>
  <fix>3d</fix>
</trkpt>
<trkpt lat="40.0708896" lon="-105.2299364">
  <ele>1582.98</ele>
  <time>2026-08-28T17:49:50Z</time>
  <course>134.93</course>
  <speed>0.9620810776644555</speed>
  <fix>3d</fix>
</trkpt>
<trkpt lat="40.0708915" lon="-105.229939">
  <ele>1583.0</ele>
  <time>2026-08-28T17:49:50Z</time>
  <course>135.75</course>
  <speed>0.94</speed>
  <fix>3d</fix>
</trkpt>
<trkpt lat="40.070889" lon="-105.2299356">
  <ele>1582.98</ele>
  <time>2026-08-28T17:49:50Z</time>
  <course>134.36</course>
  <speed>0.9693812459502195</speed>
  <fix>3d</fix>
</trkpt>
<trkpt lat="40.0708902" lon="-105.2299374">
  <ele>1583.0</ele>
  <time>2026-08-28T17:49:50Z</time>
  <course>134.42</course>
  <speed>0.97</speed>
  <fix>3d</fix>
</trkpt>
<trkpt lat="40.0708884" lon="-105.2299348">
  <ele>1582.98</ele>
  <time>2026-08-28T17:49:50Z</time>
  <course>133.82</course>
  <speed>0.9767292357659824</speed>
  <fix>3d</fix>
</trkpt>
<trkpt lat="40.0708902" lon="-105.2299374">
  <ele>1583.0</ele>
  <time>2026-08-28T17:49:50Z</time>
  <course>134.42</course>
  <speed>0.97</speed>
  <fix>3d</fix>
</trkpt>
<trkpt lat="40.0708878" lon="-105.2299339">
  <ele>1582.98</ele>
  <time>2026-08-28T17:49:50Z</time>
  <course>133.31</course>
  <speed>0.9841239759298622</speed>
  <fix>3d</fix>
</trkpt>
<trkpt lat="40.070889" lon="-105.2299357">
  <ele>1583.0</ele>
  <time>2026-08-28T17:49:50Z</time>
  <course>133.24</course>
  <speed>0.99</speed>
  <fix>3d</fix>
</trkpt>
<trkpt lat="40.0708872" lon="-105.229933">
  <ele>1582.97</ele>
  <time>2026-08-28T17:49:50Z</time>
  <course>132.84</course>
  <speed>0.9915644204992432</speed>
  <fix>3d</fix>
</trkpt>
<trkpt lat="40.0708878" lon="-105.2299339">
  <ele>1583.0</ele>
  <time>2026-08-28T17:49:50Z</time>
  <course>132.2</course>
  <speed>1.01</speed>
  <fix>3d</fix>
</trkpt>
<trkpt lat="40.0708866" lon="-105.2299321">
  <ele>1582.97</ele>
  <time>2026-08-28T17:49:50Z</time>
  <course>132.4</course>
  <speed>0.9924716620639604</speed>
  <fix>3d</fix>
</trkpt>
<trkpt lat="40.0708878" lon="-105.2299339">
  <ele>1583.0</ele>
  <time>2026-08-28T17:49:50Z</time>
  <course>132.2</course>
  <speed>1.01</speed>
  <fix>3d</fix>
</trkpt>
<trkpt lat="40.070886" lon="-105.2299312">
  <ele>1582.97</ele>
  <time>2026-08-28T17:49:50Z</time>
  <course>131.99</course>
  <speed>1.0000499987500624</speed>
  <fix>3d</fix>
</trkpt>
<trkpt lat="40.0708866" lon="-105.2299321">
  <ele>1583.0</ele>
  <time>2026-08-28T17:49:50Z</time>
  <course>131.29</course>
  <speed>1.02</speed>
  <fix>3d</fix>
</trkpt>
<trkpt lat="40.0708854" lon="-105.2299303">
  <ele>1582.97</ele>
  <time>2026-08-28T17:49:50Z</time>
  <course>131.62</course>
  <speed>1.0000499987500624</speed>
  <fix>3d</fix>
</trkpt>
<trkpt lat="40.0708866" lon="-105.2299321">
  <ele>1583.0</ele>
  <time>2026-08-28T17:49:50Z</time>
  <course>131.29</course>
  <speed>1.02</speed>
  <fix>3d</fix>
</trkpt>
<trkpt lat="40.0708848" lon="-105.2299293">
  <ele>1582.97</ele>
  <time>2026-08-28T17:49:50Z</time>
  <course>131.27</course>
  <speed>1.007670581092849</speed>
  <fix>3d</fix>
</trkpt>
<trkpt lat="40.0708853" lon="-105.2299303">
  <ele>1583.0</ele>
  <time>2026-08-28T17:49:50Z</time>
  <course>130.5</course>
  <speed>1.03</speed>
  <fix>3d</fix>
</trkpt>
<trkpt lat="40.0708842" lon="-105.2299284">
  <ele>1582.97</ele>
  <time>2026-08-28T17:49:50Z</time>
  <course>130.95</course>
  <speed>1.0012492197250393</speed>
  <fix>3d</fix>
</trkpt>
<trkpt lat="40.0708853" lon="-105.2299303">
  <ele>1583.0</ele>
  <time>2026-08-28T17:49:50Z</time>
  <course>130.5</course>
  <speed>1.03</speed>
  <fix>3d</fix>
</trkpt>
<trkpt lat="40.0708836" lon="-105.2299275">
  <ele>1582.97</ele>
  <time>2026-08-28T17:49:50Z</time>
  <course>130.65</course>
  <speed>1.0089598604503551</speed>
  <fix>3d</fix>
</trkpt>
<trkpt lat="40.0708841" lon="-105.2299285">
  <ele>1583.0</ele>
  <time>2026-08-28T17:49:50Z</time>
  <course>129.83</course>
  <speed>1.03</speed>
  <fix>3d</fix>
</trkpt>
<trkpt lat="40.070883" lon="-105.2299265">
  <ele>1582.97</ele>
  <time>2026-08-28T17:49:50Z</time>
  <course>130.38</course>
  <speed>1.0089598604503551</speed>
  <fix>3d</fix>
</trkpt>
<trkpt lat="40.0708841" lon="-105.2299285">
  <ele>1583.0</ele>
  <time>2026-08-28T17:49:50Z</time>
  <course>129.83</course>
  <speed>1.03</speed>
  <fix>3d</fix>
</trkpt>
<trkpt lat="40.0708824" lon="-105.2299256">
  <ele>1582.97</ele>
  <time>2026-08-28T17:49:50Z</time>
  <course>130.12</course>
  <speed>1.002646498024104</speed>
  <fix>3d</fix>
</trkpt>
<trkpt lat="40.070883" lon="-105.2299266">
  <ele>1583.0</ele>
  <time>2026-08-28T17:49:50Z</time>
  <course>129.26</course>
  <speed>1.03</speed>
  <fix>3d</fix>
</trkpt>
<trkpt lat="40.0708818" lon="-105.2299246">
  <ele>1582.98</ele>
  <time>2026-08-28T17:49:50Z</time>
  <course>129.88</course>
  <speed>1.002646498024104</speed>
  <fix>3d</fix>
</trkpt>
<trkpt lat="40.070883" lon="-105.2299266">
  <ele>1583.0</ele>
  <time>2026-08-28T17:49:50Z</time>
  <course>129.26</course>
  <speed>1.03</speed>
  <fix>3d</fix>
</trkpt>
<trkpt lat="40.0708812" lon="-105.2299237">
  <ele>1582.98</ele>
  <time>2026-08-28T17:49:50Z</time>
  <course>129.66</course>
  <speed>0.996393496566492</speed>
  <fix>3d</fix>
</trkpt>
<trkpt lat="40.0708818" lon="-105.2299247">
  <ele>1583.0</ele>
  <time>2026-08-28T17:49:50Z</time>
  <course>128.76</course>
  <speed>1.03</speed>
  <fix>3d</fix>
</trkpt>
<trkpt lat="40.0708806" lon="-105.2299227">
  <ele>1582.98</ele>
  <time>2026-08-28T17:49:50Z</time>
  <course>129.46</course>
  <speed>0.996393496566492</speed>
  <fix>3d</fix>
</trkpt>
<trkpt lat="40.0708818" lon="-105.2299247">
  <ele>1583.0</ele>
  <time>2026-08-28T17:49:50Z</time>
  <course>128.76</course>
  <speed>1.03</speed>
  <fix>3d</fix>
</trkpt>
<trkpt lat="40.07088" lon="-105.2299218">
  <ele>1582.99</ele>
  <time>2026-08-28T17:49:50Z</time>
  <course>129.28</course>
  <speed>0.996393496566492</speed>
  <fix>3d</fix>
</trkpt>
<trkpt lat="40.0708807" lon="-105.2299228">
  <ele>1583.0</ele>
  <time>2026-08-28T17:49:50Z</time>
  <course>128.34</course>
  <speed>1.02</speed>
  <fix>3d</fix>
</trkpt>
<trkpt lat="40.0708795" lon="-105.2299208">
  <ele>1582.99</ele>
  <time>2026-08-28T17:49:50Z</time>
  <course>129.11</course>
  <speed>0.9902019995940222</speed>
  <fix>3d</fix>
</trkpt>
<trkpt lat="40.0708807" lon="-105.2299228">
  <ele>1583.0</ele>
  <time>2026-08-28T17:49:50Z</time>
  <course>128.34</course>
  <speed>1.02</speed>
  <fix>3d</fix>
</trkpt>
<trkpt lat="40.0708789" lon="-105.2299199">
  <ele>1583.0</ele>
  <time>2026-08-28T17:49:50Z</time>
  <course>128.95</course>
  <speed>0.9902019995940222</speed>
  <fix>3d</fix>
</trkpt>
<trkpt lat="40.0708807" lon="-105.2299228">
  <ele>1583.0</ele>
  <time>2026-08-28T17:49:50Z</time>
  <course>128.34</course>
  <speed>1.02</speed>
  <fix>3d</fix>
</trkpt>
<trkpt lat="40.0708783" lon="-105.2299189">
  <ele>1583.0</ele>
  <time>2026-08-28T17:49:50Z</time>
  <course>128.81</course>
  <speed>0.9840731680114035</speed>
  <fix>3d</fix>
</trkpt>
<trkpt lat="40.0708796" lon="-105.2299209">
  <ele>1583.0</ele>
  <time>2026-08-28T17:49:50Z</time>
  <course>127.99</course>
  <speed>1.02</speed>
  <fix>3d</fix>
</trkpt>
<trkpt lat="40.0708778" lon="-105.229918">
  <ele>1583.0</ele>
  <time>2026-08-28T17:49:50Z</time>
  <course>128.68</course>
  <speed>0.9840731680114035</speed>
  <fix>3d</fix>
</trkpt>
<trkpt lat="40.0708796" lon="-105.2299209">
  <ele>1583.0</ele>
  <time>2026-08-28T17:49:50Z</time>
  <course>127.99</course>
  <speed>1.02</speed>
  <fix>3d</fix>
</trkpt>
<trkpt lat="40.0708772" lon="-105.2299171">
  <ele>1583.0</ele>
  <time>2026-08-28T17:49:50Z</time>
  <course>128.56</course>
  <speed>0.9761659694949419</speed>
  <fix>3d</fix>
</trkpt>
<trkpt lat="40.0708784" lon="-105.229919">
  <ele>1583.0</ele>
  <time>2026-08-28T17:49:50Z</time>
  <course>127.69</course>
  <speed>1.01</speed>
  <fix>3d</fix>
</trkpt>
<trkpt lat="40.0708767" lon="-105.2299161">
  <ele>1583.0</ele>
  <time>2026-08-28T17:49:50Z</time>
  <course>128.46</course>
  <speed>0.970051545022222</speed>
  <fix>3d</fix>
</trkpt>
<trkpt lat="40.0708784" lon="-105.229919">
  <ele>1583.0</ele>
  <time>2026-08-28T17:49:50Z</time>
  <course>127.69</course>
  <speed>1.01</speed>
  <fix>3d</fix>
</trkpt>
<trkpt lat="40.0708762" lon="-105.2299152">
  <ele>1583.0</ele>
  <time>2026-08-28T17:49:50Z</time>
  <course>128.36</course>
  <speed>0.970051545022222</speed>
  <fix>3d</fix>
</trkpt>
<trkpt lat="40.0708773" lon="-105.2299171">
  <ele>1583.0</ele>
  <time>2026-08-28T17:49:50Z</time>
  <course>127.45</course>
  <speed>1.01</speed>
  <fix>3d</fix>
</trkpt>
<trkpt lat="40.0708756" lon="-105.2299143">
  <ele>1583.0</ele>
  <time>2026-08-28T17:49:50Z</time>
  <course>128.27</course>
  <speed>0.970051545022222</speed>
  <fix>3d</fix>
</trkpt>
<trkpt lat="40.0708773" lon="-105.2299171">
  <ele>1583.0</ele>
  <time>2026-08-28T17:49:50Z</time>
  <course>127.45</course>
  <speed>1.01</speed>
  <fix>3d</fix>
</trkpt>
<trkpt lat="40.0708751" lon="-105.2299133">
  <ele>1583.0</ele>
  <time>2026-08-28T17:49:50Z</time>
  <course>128.19</course>
  <speed>0.970051545022222</speed>
  <fix>3d</fix>
</trkpt>
<trkpt lat="40.0708762" lon="-105.2299152">
  <ele>1583.0</ele>
  <time>2026-08-28T17:49:50Z</time>
  <course>127.25</course>
  <speed>1.0</speed>
  <fix>3d</fix>
</trkpt>
<trkpt lat="40.0708746" lon="-105.2299124">
  <ele>1583.0</ele>
  <time>2026-08-28T17:49:50Z</time>
  <course>128.12</course>
  <speed>0.9640020746865642</speed>
  <fix>3d</fix>
</trkpt>
<trkpt lat="40.0708751" lon="-105.2299133">
  <ele>1583.0</ele>
  <time>2026-08-28T17:49:50Z</time>
  <course>127.08</course>
  <speed>1.0</speed>
  <fix>3d</fix>
</trkpt>
<trkpt lat="40.070874" lon="-105.2299115">
  <ele>1582.99</ele>
  <time>2026-08-28T17:49:50Z</time>
  <course>128.05</course>
  <speed>0.9640020746865642</speed>
  <fix>3d</fix>
</trkpt>
<trkpt lat="40.0708751" lon="-105.2299133">
  <ele>1583.0</ele>
  <time>2026-08-28T17:49:50Z</time>
  <course>127.08</course>
  <speed>1.0</speed>
  <fix>3d</fix>
</trkpt>
<trkpt lat="40.0708735" lon="-105.2299106">
  <ele>1582.99</ele>
  <time>2026-08-28T17:49:50Z</time>
  <course>128.0</course>
  <speed>0.9640020746865642</speed>
  <fix>3d</fix>
</trkpt>
<trkpt lat="40.070874" lon="-105.2299114">
  <ele>1583.0</ele>
  <time>2026-08-28T17:49:50Z</time>
  <course>126.95</course>
  <speed>1.0</speed>
  <fix>3d</fix>
</trkpt>
<trkpt lat="40.0708729" lon="-105.2299096">
  <ele>1582.99</ele>
  <time>2026-08-28T17:49:50Z</time>
  <course>127.94</course>
  <speed>0.9640020746865642</speed>
  <fix>3d</fix>
</trkpt>
<trkpt lat="40.070874" lon="-105.2299114">
  <ele>1583.0</ele>
  <time>2026-08-28T17:49:50Z</time>
  <course>126.95</course>
  <speed>1.0</speed>
  <fix>3d</fix>
</trkpt>
<trkpt lat="40.0708724" lon="-105.2299087">
  <ele>1582.99</ele>
  <time>2026-08-28T17:49:50Z</time>
  <course>127.9</course>
  <speed>0.9640020746865642</speed>
  <fix>3d</fix>
</trkpt>
<trkpt lat="40.070873" lon="-105.2299096">
  <ele>1583.0</ele>
  <time>2026-08-28T17:49:50Z</time>
  <course>126.84</course>
  <speed>1.0</speed>
  <fix>3d</fix>
</trkpt>
<trkpt lat="40.0708718" lon="-105.2299077">
  <ele>1582.99</ele>
  <time>2026-08-28T17:49:50Z</time>
  <course>127.86</course>
  <speed>0.9640020746865642</speed>
  <fix>3d</fix>
</trkpt>
<trkpt lat="40.070873" lon="-105.2299096">
  <ele>1583.0</ele>
  <time>2026-08-28T17:49:50Z</time>
  <course>126.84</course>
  <speed>1.0</speed>
  <fix>3d</fix>
</trkpt>
<trkpt lat="40.0708713" lon="-105.2299068">
  <ele>1582.99</ele>
  <time>2026-08-28T17:49:50Z</time>
  <course>127.82</course>
  <speed>0.9640020746865642</speed>
  <fix>3d</fix>
</trkpt>
<trkpt lat="40.0708719" lon="-105.2299077">
  <ele>1583.0</ele>
  <time>2026-08-28T17:49:50Z</time>
  <course>126.75</course>
  <speed>1.0</speed>
  <fix>3d</fix>
</trkpt>
<trkpt lat="40.0708708" lon="-105.2299058">
  <ele>1583.0</ele>
  <time>2026-08-28T17:49:50Z</time>
  <course>127.79</course>
  <speed>0.9640020746865642</speed>
  <fix>3d</fix>
</trkpt>
<trkpt lat="40.0708719" lon="-105.2299077">
  <ele>1583.0</ele>
  <time>2026-08-28T17:49:50Z</time>
  <course>126.75</course>
  <speed>1.0</speed>
  <fix>3d</fix>
</trkpt>
<trkpt lat="40.0708702" lon="-105.2299049">
  <ele>1583.0</ele>
  <time>2026-08-28T17:49:50Z</time>
  <course>127.76</course>
  <speed>0.9640020746865642</speed>
  <fix>3d</fix>
</trkpt>
<trkpt lat="40.0708708" lon="-105.2299058">
  <ele>1583.0</ele>
  <time>2026-08-28T17:49:50Z</time>
  <course>126.69</course>
  <speed>1.0</speed>
  <fix>3d</fix>
</trkpt>
<trkpt lat="40.0708697" lon="-105.2299039">
  <ele>1583.0</ele>
  <time>2026-08-28T17:49:50Z</time>
  <course>127.74</course>
  <speed>0.9640020746865642</speed>
  <fix>3d</fix>
</trkpt>
<trkpt lat="40.0708708" lon="-105.2299058">
  <ele>1583.0</ele>
  <time>2026-08-28T17:49:50Z</time>
  <course>126.69</course>
  <speed>1.0</speed>
  <fix>3d</fix>
</trkpt>
<trkpt lat="40.0708691" lon="-105.229903">
  <ele>1583.0</ele>
  <time>2026-08-28T17:49:50Z</time>
  <course>127.72</course>
  <speed>0.9640020746865642</speed>
  <fix>3d</fix>
</trkpt>
<trkpt lat="40.0708697" lon="-105.2299039">
  <ele>1583.0</ele>
  <time>2026-08-28T17:49:50Z</time>
  <course>126.64</course>
  <speed>1.0</speed>
  <fix>3d</fix>
</trkpt>
<trkpt lat="40.0708686" lon="-105.229902">
  <ele>1583.0</ele>
  <time>2026-08-28T17:49:50Z</time>
  <course>127.7</course>
  <speed>0.9640020746865642</speed>
  <fix>3d</fix>
</trkpt>
<trkpt lat="40.0708697" lon="-105.2299039">
  <ele>1583.0</ele>
  <time>2026-08-28T17:49:50Z</time>
  <course>126.64</course>
  <speed>1.0</speed>
  <fix>3d</fix>
</trkpt>
<trkpt lat="40.0708681" lon="-105.2299011">
  <ele>1583.0</ele>
  <time>2026-08-28T17:49:50Z</time>
  <course>127.69</course>
  <speed>0.9640020746865642</speed>
  <fix>3d</fix>
</trkpt>
<trkpt lat="40.0708687" lon="-105.229902">
  <ele>1583.0</ele>
  <time>2026-08-28T17:49:50Z</time>
  <course>126.61</course>
  <speed>1.0</speed>
  <fix>3d</fix>
</trkpt>
<trkpt lat="40.0708675" lon="-105.2299001">
  <ele>1583.0</ele>
  <time>2026-08-28T17:49:50Z</time>
  <course>127.67</course>
  <speed>0.9640020746865642</speed>
  <fix>3d</fix>
</trkpt>
<trkpt lat="40.0708687" lon="-105.229902">
  <ele>1583.0</ele>
  <time>2026-08-28T17:49:50Z</time>
  <course>126.61</course>
  <speed>1.0</speed>
  <fix>3d</fix>
</trkpt>
<trkpt lat="40.070867" lon="-105.2298992">
  <ele>1583.0</ele>
  <time>2026-08-28T17:49:50Z</time>
  <course>127.67</course>
  <speed>0.9640020746865642</speed>
  <fix>3d</fix>
</trkpt>
<trkpt lat="40.0708687" lon="-105.229902">
  <ele>1583.0</ele>
  <time>2026-08-28T17:49:50Z</time>
  <course>126.61</course>
  <speed>1.0</speed>
  <fix>3d</fix>
</trkpt>
<trkpt lat="40.0708664" lon="-105.2298983">
  <ele>1583.0</ele>
  <time>2026-08-28T17:49:50Z</time>
  <course>127.66</course>
  <speed>0.9640020746865642</speed>
  <fix>3d</fix>
</trkpt>
<trkpt lat="40.0708676" lon="-105.2299002">
  <ele>1583.0</ele>
  <time>2026-08-28T17:49:50Z</time>
  <course>126.59</course>
  <speed>1.0</speed>
  <fix>3d</fix>
</trkpt>
<trkpt lat="40.0708659" lon="-105.2298973">
  <ele>1583.0</ele>
  <time>2026-08-28T17:49:50Z</time>
  <course>127.66</course>
  <speed>0.9640020746865642</speed>
  <fix>3d</fix>
</trkpt>
<trkpt lat="40.0708676" lon="-105.2299002">
  <ele>1583.0</ele>
  <time>2026-08-28T17:49:50Z</time>
  <course>126.59</course>
  <speed>1.0</speed>
  <fix>3d</fix>
</trkpt>
<trkpt lat="40.0708654" lon="-105.2298964">
  <ele>1583.01</ele>
  <time>2026-08-28T17:49:50Z</time>
  <course>127.66</course>
  <speed>0.9640020746865642</speed>
  <fix>3d</fix>
</trkpt>
<trkpt lat="40.0708665" lon="-105.2298983">
  <ele>1583.0</ele>
  <time>2026-08-28T17:49:50Z</time>
  <course>126.58</course>
  <speed>1.0</speed>
  <fix>3d</fix>
</trkpt>
<trkpt lat="40.0708648" lon="-105.2298955">
  <ele>1583.01</ele>
  <time>2026-08-28T17:49:50Z</time>
  <course>127.66</course>
  <speed>0.9640020746865642</speed>
  <fix>3d</fix>
</trkpt>
<trkpt lat="40.0708665" lon="-105.2298983">
  <ele>1583.0</ele>
  <time>2026-08-28T17:49:50Z</time>
  <course>126.58</course>
  <speed>1.0</speed>
  <fix>3d</fix>
</trkpt>
<trkpt lat="40.0708643" lon="-105.2298946">
  <ele>1583.0</ele>
  <time>2026-08-28T17:49:50Z</time>
  <course>127.66</course>
  <speed>0.9560334722173696</speed>
  <fix>3d</fix>
</trkpt>
<trkpt lat="40.0708654" lon="-105.2298964">
  <ele>1583.0</ele>
  <time>2026-08-28T17:49:50Z</time>
  <course>126.58</course>
  <speed>1.0</speed>
  <fix>3d</fix>
</trkpt>
<trkpt lat="40.0708638" lon="-105.2298936">
  <ele>1583.0</ele>
  <time>2026-08-28T17:49:50Z</time>
  <course>127.65</course>
  <speed>0.9560334722173696</speed>
  <fix>3d</fix>
</trkpt>
<trkpt lat="40.0708644" lon="-105.2298945">
  <ele>1583.0</ele>
  <time>2026-08-28T17:49:50Z</time>
  <course>126.58</course>
  <speed>1.0</speed>
  <fix>3d</fix>
</trkpt>
<trkpt lat="40.0708632" lon="-105.2298927">
  <ele>1583.0</ele>
  <time>2026-08-28T17:49:50Z</time>
  <course>127.65</course>
  <speed>0.9621330469326995</speed>
  <fix>3d</fix>
</trkpt>
<trkpt lat="40.0708644" lon="-105.2298945">
  <ele>1583.0</ele>
  <time>2026-08-28T17:49:50Z</time>
  <course>126.58</course>
  <speed>1.0</speed>
  <fix>3d</fix>
</trkpt>
<trkpt lat="40.0708627" lon="-105.2298917">
  <ele>1583.0</ele>
  <time>2026-08-28T17:49:50Z</time>
  <course>127.65</course>
  <speed>0.9621330469326995</speed>
  <fix>3d</fix>
</trkpt>
<trkpt lat="40.0708633" lon="-105.2298926">
  <ele>1583.0</ele>
  <time>2026-08-28T17:49:50Z</time>
  <course>126.58</course>
  <speed>1.0</speed>
  <fix>3d</fix>
</trkpt>
<trkpt lat="40.0708622" lon="-105.2298908">
  <ele>1583.0</ele>
  <time>2026-08-28T17:49:50Z</time>
  <course>127.65</course>
  <speed>0.9621330469326995</speed>
  <fix>3d</fix>
</trkpt>
<trkpt lat="40.0708633" lon="-105.2298926">
  <ele>1583.0</ele>
  <time>2026-08-28T17:49:50Z</time>
  <course>126.58</course>
  <speed>1.0</speed>
  <fix>3d</fix>
</trkpt>
<trkpt lat="40.0708616" lon="-105.2298899">
  <ele>1583.0</ele>
  <time>2026-08-28T17:49:50Z</time>
  <course>127.64</course>
  <speed>0.9621330469326995</speed>
  <fix>3d</fix>
</trkpt>
<trkpt lat="40.0708622" lon="-105.2298907">
  <ele>1583.0</ele>
  <time>2026-08-28T17:49:50Z</time>
  <course>126.58</course>
  <speed>1.0</speed>
  <fix>3d</fix>
</trkpt>
<trkpt lat="40.0708611" lon="-105.2298889">
  <ele>1583.0</ele>
  <time>2026-08-28T17:49:50Z</time>
  <course>127.64</course>
  <speed>0.9621330469326995</speed>
  <fix>3d</fix>
</trkpt>
<trkpt lat="40.0708622" lon="-105.2298907">
  <ele>1583.0</ele>
  <time>2026-08-28T17:49:50Z</time>
  <course>126.58</course>
  <speed>1.0</speed>
  <fix>3d</fix>
</trkpt>
<trkpt lat="40.0708605" lon="-105.229888">
  <ele>1582.99</ele>
  <time>2026-08-28T17:49:50Z</time>
  <course>127.64</course>
  <speed>0.9621330469326995</speed>
  <fix>3d</fix>
</trkpt>
<trkpt lat="40.0708611" lon="-105.2298888">
  <ele>1583.0</ele>
  <time>2026-08-28T17:49:50Z</time>
  <course>126.58</course>
  <speed>1.0</speed>
  <fix>3d</fix>
</trkpt>
<trkpt lat="40.07086" lon="-105.229887">
  <ele>1582.99</ele>
  <time>2026-08-28T17:49:50Z</time>
  <course>127.65</course>
  <speed>0.9621330469326995</speed>
  <fix>3d</fix>
</trkpt>
<trkpt lat="40.0708611" lon="-105.2298888">
  <ele>1583.0</ele>
  <time>2026-08-28T17:49:50Z</time>
  <course>126.58</course>
  <speed>1.0</speed>
  <fix>3d</fix>
</trkpt>
<trkpt lat="40.0708595" lon="-105.2298861">
  <ele>1582.99</ele>
  <time>2026-08-28T17:49:50Z</time>
  <course>127.66</course>
  <speed>0.9621330469326995</speed>
  <fix>3d</fix>
</trkpt>
<trkpt lat="40.0708601" lon="-105.2298869">
  <ele>1583.0</ele>
  <time>2026-08-28T17:49:50Z</time>
  <course>126.6</course>
  <speed>1.0</speed>
  <fix>3d</fix>
</trkpt>
<trkpt lat="40.0708589" lon="-105.2298851">
  <ele>1582.99</ele>
  <time>2026-08-28T17:49:50Z</time>
  <course>127.67</course>
  <speed>0.9621330469326995</speed>
  <fix>3d</fix>
</trkpt>
<trkpt lat="40.0708601" lon="-105.2298869">
  <ele>1583.0</ele>
  <time>2026-08-28T17:49:50Z</time>
  <course>126.6</course>
  <speed>1.0</speed>
  <fix>3d</fix>
</trkpt>
<trkpt lat="40.0708584" lon="-105.2298842">
  <ele>1582.98</ele>
  <time>2026-08-28T17:49:50Z</time>
  <course>127.68</course>
  <speed>0.9621330469326995</speed>
  <fix>3d</fix>
</trkpt>
<trkpt lat="40.070859" lon="-105.2298851">
  <ele>1583.0</ele>
  <time>2026-08-28T17:49:50Z</time>
  <course>126.62</course>
  <speed>1.0</speed>
  <fix>3d</fix>
</trkpt>
<trkpt lat="40.0708578" lon="-105.2298832">
  <ele>1582.98</ele>
  <time>2026-08-28T17:49:50Z</time>
  <course>127.69</course>
  <speed>0.9621330469326995</speed>
  <fix>3d</fix>
</trkpt>
<trkpt lat="40.070859" lon="-105.2298851">
  <ele>1583.0</ele>
  <time>2026-08-28T17:49:50Z</time>
  <course>126.62</course>
  <speed>1.0</speed>
  <fix>3d</fix>
</trkpt>
<trkpt lat="40.0708573" lon="-105.2298823">
  <ele>1582.99</ele>
  <time>2026-08-28T17:49:50Z</time>
  <course>127.7</course>
  <speed>0.9621330469326995</speed>
  <fix>3d</fix>
</trkpt>
<trkpt lat="40.0708579" lon="-105.2298832">
  <ele>1583.0</ele>
  <time>2026-08-28T17:49:50Z</time>
  <course>126.65</course>
  <speed>1.0</speed>
  <fix>3d</fix>
</trkpt>
<trkpt lat="40.0708567" lon="-105.2298813">
  <ele>1582.99</ele>
  <time>2026-08-28T17:49:50Z</time>
  <course>127.71</course>
  <speed>0.9621330469326995</speed>
  <fix>3d</fix>
</trkpt>
<trkpt lat="40.0708579" lon="-105.2298832">
  <ele>1583.0</ele>
  <time>2026-08-28T17:49:50Z</time>
  <course>126.65</course>
  <speed>1.0</speed>
  <fix>3d</fix>
</trkpt>
<trkpt lat="40.0708562" lon="-105.2298804">
  <ele>1582.99</ele>
  <time>2026-08-28T17:49:50Z</time>
  <course>127.72</course>
  <speed>0.9621330469326995</speed>
  <fix>3d</fix>
</trkpt>
<trkpt lat="40.0708579" lon="-105.2298832">
  <ele>1583.0</ele>
  <time>2026-08-28T17:49:50Z</time>
  <course>126.65</course>
  <speed>1.0</speed>
  <fix>3d</fix>
</trkpt>
<trkpt lat="40.0708557" lon="-105.2298795">
  <ele>1582.99</ele>
  <time>2026-08-28T17:49:50Z</time>
  <course>127.74</course>
  <speed>0.9621330469326995</speed>
  <fix>3d</fix>
</trkpt>
<trkpt lat="40.0708568" lon="-105.2298813">
  <ele>1583.0</ele>
  <time>2026-08-28T17:49:50Z</time>
  <course>126.68</course>
  <speed>1.0</speed>
  <fix>3d</fix>
</trkpt>
<trkpt lat="40.0708551" lon="-105.2298785">
  <ele>1582.99</ele>
  <time>2026-08-28T17:49:50Z</time>
  <course>127.75</course>
  <speed>0.9621330469326995</speed>
  <fix>3d</fix>
</trkpt>
<trkpt lat="40.0708568" lon="-105.2298813">
  <ele>1583.0</ele>
  <time>2026-08-28T17:49:50Z</time>
  <course>126.68</course>
  <speed>1.0</speed>
  <fix>3d</fix>
</trkpt>
<trkpt lat="40.0708546" lon="-105.2298776">
  <ele>1582.99</ele>
  <time>2026-08-28T17:49:50Z</time>
  <course>127.77</course>
  <speed>0.9621330469326995</speed>
  <fix>3d</fix>
</trkpt>
<trkpt lat="40.0708558" lon="-105.2298794">
  <ele>1583.0</ele>
  <time>2026-08-28T17:49:50Z</time>
  <course>126.71</course>
  <speed>1.0</speed>
  <fix>3d</fix>
</trkpt>
<trkpt lat="40.070854" lon="-105.2298767">
  <ele>1582.99</ele>
  <time>2026-08-28T17:49:50Z</time>
  <course>127.79</course>
  <speed>0.9621330469326995</speed>
  <fix>3d</fix>
</trkpt>
<trkpt lat="40.0708558" lon="-105.2298794">
  <ele>1583.0</ele>
  <time>2026-08-28T17:49:50Z</time>
  <course>126.71</course>
  <speed>1.0</speed>
  <fix>3d</fix>
</trkpt>
<trkpt lat="40.0708535" lon="-105.2298757">
  <ele>1582.99</ele>
  <time>2026-08-28T17:49:50Z</time>
  <course>127.81</course>
  <speed>0.9621330469326995</speed>
  <fix>3d</fix>
</trkpt>
<trkpt lat="40.0708547" lon="-105.2298775">
  <ele>1583.0</ele>
  <time>2026-08-28T17:49:50Z</time>
  <course>126.74</course>
  <speed>1.0</speed>
  <fix>3d</fix>
</trkpt>
<trkpt lat="40.070853" lon="-105.2298748">
  <ele>1582.99</ele>
  <time>2026-08-28T17:49:50Z</time>
  <course>127.84</course>
  <speed>0.9621330469326995</speed>
  <fix>3d</fix>
</trkpt>
<trkpt lat="40.0708547" lon="-105.2298775">
  <ele>1583.0</ele>
  <time>2026-08-28T17:49:50Z</time>
  <course>126.74</course>
  <speed>1.0</speed>
  <fix>3d</fix>
</trkpt>
<trkpt lat="40.0708524" lon="-105.2298739">
  <ele>1582.98</ele>
  <time>2026-08-28T17:49:50Z</time>
  <course>127.86</course>
  <speed>0.9621330469326995</speed>
  <fix>3d</fix>
</trkpt>
<trkpt lat="40.0708536" lon="-105.2298756">
  <ele>1583.0</ele>
  <time>2026-08-28T17:49:50Z</time>
  <course>126.79</course>
  <speed>1.0</speed>
  <fix>3d</fix>
</trkpt>
<trkpt lat="40.0708519" lon="-105.229873">
  <ele>1582.98</ele>
  <time>2026-08-28T17:49:50Z</time>
  <course>127.89</course>
  <speed>0.9621330469326995</speed>
  <fix>3d</fix>
</trkpt>
<trkpt lat="40.0708525" lon="-105.2298738">
  <ele>1583.0</ele>
  <time>2026-08-28T17:49:50Z</time>
  <course>126.84</course>
  <speed>1.0</speed>
  <fix>3d</fix>
</trkpt>
<trkpt lat="40.0708514" lon="-105.229872">
  <ele>1582.99</ele>
  <time>2026-08-28T17:49:50Z</time>
  <course>127.91</course>
  <speed>0.9682974749528164</speed>
  <fix>3d</fix>
</trkpt>
<trkpt lat="40.0708525" lon="-105.2298738">
  <ele>1583.0</ele>
  <time>2026-08-28T17:49:50Z</time>
  <course>126.84</course>
  <speed>1.0</speed>
  <fix>3d</fix>
</trkpt>
<trkpt lat="40.0708508" lon="-105.2298711">
  <ele>1582.99</ele>
  <time>2026-08-28T17:49:50Z</time>
  <course>127.94</course>
  <speed>0.9682974749528164</speed>
  <fix>3d</fix>
</trkpt>
<trkpt lat="40.0708515" lon="-105.2298719">
  <ele>1583.0</ele>
  <time>2026-08-28T17:49:50Z</time>
  <course>126.9</course>
  <speed>1.0</speed>
  <fix>3d</fix>
</trkpt>
<trkpt lat="40.0708503" lon="-105.2298701">
  <ele>1582.99</ele>
  <time>2026-08-28T17:49:50Z</time>
  <course>127.96</course>
  <speed>0.9682974749528164</speed>
  <fix>3d</fix>
</trkpt>
<trkpt lat="40.0708515" lon="-105.2298719">
  <ele>1583.0</ele>
  <time>2026-08-28T17:49:50Z</time>
  <course>126.9</course>
  <speed>1.0</speed>
  <fix>3d</fix>
</trkpt>
<trkpt lat="40.0708497" lon="-105.2298692">
  <ele>1582.99</ele>
  <time>2026-08-28T17:49:50Z</time>
  <course>127.99</course>
  <speed>0.9682974749528164</speed>
  <fix>3d</fix>
</trkpt>
<trkpt lat="40.0708504" lon="-105.22987">
  <ele>1583.0</ele>
  <time>2026-08-28T17:49:50Z</time>
  <course>126.95</course>
  <speed>1.0</speed>
  <fix>3d</fix>
</trkpt>
<trkpt lat="40.0708492" lon="-105.2298683">
  <ele>1582.99</ele>
  <time>2026-08-28T17:49:50Z</time>
  <course>128.01</course>
  <speed>0.9682974749528164</speed>
  <fix>3d</fix>
</trkpt>
<trkpt lat="40.0708504" lon="-105.22987">
  <ele>1583.0</ele>
  <time>2026-08-28T17:49:50Z</time>
  <course>126.95</course>
  <speed>1.0</speed>
  <fix>3d</fix>
</trkpt>
<trkpt lat="40.0708486" lon="-105.2298673">
  <ele>1582.99</ele>
  <time>2026-08-28T17:49:50Z</time>
  <course>128.04</course>
  <speed>0.9682974749528164</speed>
  <fix>3d</fix>
</trkpt>
<trkpt lat="40.0708493" lon="-105.2298681">
  <ele>1583.0</ele>
  <time>2026-08-28T17:49:50Z</time>
  <course>127.0</course>
  <speed>1.0</speed>
  <fix>3d</fix>
</trkpt>
<trkpt lat="40.0708481" lon="-105.2298664">
  <ele>1582.99</ele>
  <time>2026-08-28T17:49:50Z</time>
  <course>128.07</course>
  <speed>0.9682974749528164</speed>
  <fix>3d</fix>
</trkpt>
<trkpt lat="40.0708493" lon="-105.2298681">
  <ele>1583.0</ele>
  <time>2026-08-28T17:49:50Z</time>
  <course>127.0</course>
  <speed>1.0</speed>
  <fix>3d</fix>
</trkpt>
<trkpt lat="40.0708476" lon="-105.2298654">
  <ele>1582.99</ele>
  <time>2026-08-28T17:49:50Z</time>
  <course>128.13</course>
  <speed>0.9682974749528164</speed>
  <fix>3d</fix>
</trkpt>
<trkpt lat="40.0708482" lon="-105.2298663">
  <ele>1583.0</ele>
  <time>2026-08-28T17:49:50Z</time>
  <course>127.08</course>
  <speed>1.0</speed>
  <fix>3d</fix>
</trkpt>
<trkpt lat="40.070847" lon="-105.2298645">
  <ele>1582.99</ele>
  <time>2026-08-28T17:49:50Z</time>
  <course>128.34</course>
  <speed>0.9682974749528164</speed>
  <fix>3d</fix>
</trkpt>
<trkpt lat="40.0708482" lon="-105.2298663">
  <ele>1583.0</ele>
  <time>2026-08-28T17:49:50Z</time>
  <course>127.08</course>
  <speed>1.0</speed>
  <fix>3d</fix>
</trkpt>
<trkpt lat="40.0708465" lon="-105.2298635">
  <ele>1582.98</ele>
  <time>2026-08-28T17:49:50Z</time>
  <course>128.7</course>
  <speed>0.9667471230885561</speed>
  <fix>3d</fix>
</trkpt>
<trkpt lat="40.0708471" lon="-105.2298644">
  <ele>1583.0</ele>
  <time>2026-08-28T17:49:50Z</time>
  <course>127.42</course>
  <speed>1.0</speed>
  <fix>3d</fix>
</trkpt>
<trkpt lat="40.0708459" lon="-105.2298626">
  <ele>1582.98</ele>
  <time>2026-08-28T17:49:51Z</time>
  <course>129.21</course>
  <speed>0.9730878685915265</speed>
  <fix>3d</fix>
</trkpt>
<trkpt lat="40.0708471" lon="-105.2298644">
  <ele>1583.0</ele>
  <time>2026-08-28T17:49:51Z</time>
  <course>127.42</course>
  <speed>1.0</speed>
  <fix>3d</fix>
</trkpt>
<trkpt lat="40.0708453" lon="-105.2298617">
  <ele>1582.98</ele>
  <time>2026-08-28T17:49:51Z</time>
  <course>129.87</course>
  <speed>0.9654014708917736</speed>
  <fix>3d</fix>
</trkpt>
<trkpt lat="40.070846" lon="-105.2298625">
  <ele>1583.0</ele>
  <time>2026-08-28T17:49:51Z</time>
  <course>128.29</course>
  <speed>1.0</speed>
  <fix>3d</fix>
</trkpt>
<trkpt lat="40.0708447" lon="-105.2298608">
  <ele>1582.98</ele>
  <time>2026-08-28T17:49:51Z</time>
  <course>130.68</course>
  <speed>0.97082439194738</speed>
  <fix>3d</fix>
</trkpt>
<trkpt lat="40.070846" lon="-105.2298625">
  <ele>1583.0</ele>
  <time>2026-08-28T17:49:51Z</time>
  <course>128.29</course>
  <speed>1.0</speed>
  <fix>3d</fix>
</trkpt>
<trkpt lat="40.0708442" lon="-105.2298599">
  <ele>1582.98</ele>
  <time>2026-08-28T17:49:51Z</time>
  <course>131.64</course>
  <speed>0.97</speed>
  <fix>3d</fix>
</trkpt>
<trkpt lat="40.070846" lon="-105.2298625">
  <ele>1583.0</ele>
  <time>2026-08-28T17:49:51Z</time>
  <course>128.29</course>
  <speed>1.0</speed>
  <fix>3d</fix>
</trkpt>
<trkpt lat="40.0708436" lon="-105.229859">
  <ele>1582.98</ele>
  <time>2026-08-28T17:49:51Z</time>
  <course>132.76</course>
  <speed>0.9693812459502195</speed>
  <fix>3d</fix>
</trkpt>
<trkpt lat="40.0708449" lon="-105.2298608">
  <ele>1583.0</ele>
  <time>2026-08-28T17:49:51Z</time>
  <course>129.77</course>
  <speed>1.0</speed>
  <fix>3d</fix>
</trkpt>
<trkpt lat="40.070843" lon="-105.2298582">
  <ele>1582.99</ele>
  <time>2026-08-28T17:49:51Z</time>
  <course>134.03</course>
  <speed>0.9687620966986684</speed>
  <fix>3d</fix>
</trkpt>
<trkpt lat="40.0708449" lon="-105.2298608">
  <ele>1583.0</ele>
  <time>2026-08-28T17:49:51Z</time>
  <course>129.77</course>
  <speed>1.0</speed>
  <fix>3d</fix>
</trkpt>
<trkpt lat="40.0708423" lon="-105.2298573">
  <ele>1582.99</ele>
  <time>2026-08-28T17:49:51Z</time>
  <course>135.45</course>
  <speed>0.9689685237405805</speed>
  <fix>3d</fix>
</trkpt>
<trkpt lat="40.0708438" lon="-105.229859">
  <ele>1583.0</ele>
  <time>2026-08-28T17:49:51Z</time>
  <course>131.86</course>
  <speed>0.99</speed>
  <fix>3d</fix>
</trkpt>
<trkpt lat="40.0708417" lon="-105.2298565">
  <ele>1582.99</ele>
  <time>2026-08-28T17:49:51Z</time>
  <course>136.94</course>
  <speed>0.9626006440887103</speed>
  <fix>3d</fix>
</trkpt>
<trkpt lat="40.0708438" lon="-105.229859">
  <ele>1583.0</ele>
  <time>2026-08-28T17:49:51Z</time>
  <course>131.86</course>
  <speed>0.99</speed>
  <fix>3d</fix>
</trkpt>
<trkpt lat="40.0708411" lon="-105.2298557">
  <ele>1583.0</ele>
  <time>2026-08-28T17:49:51Z</time>
  <course>138.35</course>
  <speed>0.97082439194738</speed>
  <fix>3d</fix>
</trkpt>
<trkpt lat="40.0708425" lon="-105.2298572">
  <ele>1583.0</ele>
  <time>2026-08-28T17:49:51Z</time>
  <course>134.52</course>
  <speed>0.99</speed>
  <fix>3d</fix>
</trkpt>
<trkpt lat="40.0708404" lon="-105.229855">
  <ele>1583.0</ele>
  <time>2026-08-28T17:49:51Z</time>
  <course>139.62</course>
  <speed>0.9730878685915265</speed>
  <fix>3d</fix>
</trkpt>
<trkpt lat="40.0708412" lon="-105.2298555">
  <ele>1583.0</ele>
  <time>2026-08-28T17:49:51Z</time>
  <course>137.31</course>
  <speed>0.99</speed>
  <fix>3d</fix>
</trkpt>
<trkpt lat="40.0708397" lon="-105.2298542">
  <ele>1583.0</ele>
  <time>2026-08-28T17:49:51Z</time>
  <course>140.74</course>
  <speed>0.9682974749528164</speed>
  <fix>3d</fix>
</trkpt>
<trkpt lat="40.0708412" lon="-105.2298555">
  <ele>1583.0</ele>
  <time>2026-08-28T17:49:51Z</time>
  <course>137.31</course>
  <speed>0.99</speed>
  <fix>3d</fix>
</trkpt>
<trkpt lat="40.070839" lon="-105.2298534">
  <ele>1583.0</ele>
  <time>2026-08-28T17:49:51Z</time>
  <course>141.72</course>
  <speed>0.970051545022222</speed>
  <fix>3d</fix>
</trkpt>
<trkpt lat="40.0708398" lon="-105.229854">
  <ele>1583.0</ele>
  <time>2026-08-28T17:49:51Z</time>
  <course>139.7</course>
  <speed>0.99</speed>
  <fix>3d</fix>
</trkpt>
<trkpt lat="40.0708383" lon="-105.2298527">
  <ele>1583.0</ele>
  <time>2026-08-28T17:49:51Z</time>
  <course>142.54</course>
  <speed>0.9720082304178294</speed>
  <fix>3d</fix>
</trkpt>
<trkpt lat="40.0708398" lon="-105.229854">
  <ele>1583.0</ele>
  <time>2026-08-28T17:49:51Z</time>
  <course>139.7</course>
  <speed>0.99</speed>
  <fix>3d</fix>
</trkpt>
<trkpt lat="40.0708376" lon="-105.229852">
  <ele>1582.99</ele>
  <time>2026-08-28T17:49:51Z</time>
  <course>143.23</course>
  <speed>0.9741663102366043</speed>
  <fix>3d</fix>
</trkpt>
<trkpt lat="40.0708384" lon="-105.2298526">
  <ele>1583.0</ele>
  <time>2026-08-28T17:49:51Z</time>
  <course>141.51</course>
  <speed>0.99</speed>
  <fix>3d</fix>
</trkpt>
<trkpt lat="40.0708369" lon="-105.2298513">
  <ele>1582.99</ele>
  <time>2026-08-28T17:49:51Z</time>
  <course>143.77</course>
  <speed>0.9683491106000975</speed>
  <fix>3d</fix>
</trkpt>
<trkpt lat="40.0708384" lon="-105.2298526">
  <ele>1583.0</ele>
  <time>2026-08-28T17:49:51Z</time>
  <course>141.51</course>
  <speed>0.99</speed>
  <fix>3d</fix>
</trkpt>
<trkpt lat="40.0708362" lon="-105.2298506">
  <ele>1582.99</ele>
  <time>2026-08-28T17:49:51Z</time>
  <course>144.15</course>
  <speed>0.9765244492586962</speed>
  <fix>3d</fix>
</trkpt>
<trkpt lat="40.0708371" lon="-105.2298511">
  <ele>1583.0</ele>
  <time>2026-08-28T17:49:51Z</time>
  <course>142.73</course>
  <speed>1.0</speed>
  <fix>3d</fix>
</trkpt>
<trkpt lat="40.0708354" lon="-105.2298499">
  <ele>1582.98</ele>
  <time>2026-08-28T17:49:51Z</time>
  <course>144.39</course>
  <speed>0.97082439194738</speed>
  <fix>3d</fix>
</trkpt>
<trkpt lat="40.0708371" lon="-105.2298511">
  <ele>1583.0</ele>
  <time>2026-08-28T17:49:51Z</time>
  <course>142.73</course>
  <speed>1.0</speed>
  <fix>3d</fix>
</trkpt>
<trkpt lat="40.0708347" lon="-105.2298492">
  <ele>1582.98</ele>
  <time>2026-08-28T17:49:51Z</time>
  <course>144.49</course>
  <speed>0.97082439194738</speed>
  <fix>3d</fix>
</trkpt>
<trkpt lat="40.0708356" lon="-105.2298496">
  <ele>1583.0</ele>
  <time>2026-08-28T17:49:51Z</time>
  <course>143.37</course>
  <speed>1.0</speed>
  <fix>3d</fix>
</trkpt>
<trkpt lat="40.070834" lon="-105.2298485">
  <ele>1582.98</ele>
  <time>2026-08-28T17:49:51Z</time>
  <course>144.57</course>
  <speed>0.97082439194738</speed>
  <fix>3d</fix>
</trkpt>
<trkpt lat="40.0708356" lon="-105.2298496">
  <ele>1583.0</ele>
  <time>2026-08-28T17:49:51Z</time>
  <course>143.37</course>
  <speed>1.0</speed>
  <fix>3d</fix>
</trkpt>
<trkpt lat="40.0708332" lon="-105.2298478">
  <ele>1582.98</ele>
  <time>2026-08-28T17:49:51Z</time>
  <course>144.66</course>
  <speed>0.97082439194738</speed>
  <fix>3d</fix>
</trkpt>
<trkpt lat="40.0708342" lon="-105.2298483">
  <ele>1583.0</ele>
  <time>2026-08-28T17:49:51Z</time>
  <course>143.62</course>
  <speed>1.0</speed>
  <fix>3d</fix>
</trkpt>
<trkpt lat="40.0708325" lon="-105.2298471">
  <ele>1582.97</ele>
  <time>2026-08-28T17:49:51Z</time>
  <course>144.74</course>
  <speed>0.97082439194738</speed>
  <fix>3d</fix>
</trkpt>
<trkpt lat="40.0708342" lon="-105.2298483">
  <ele>1583.0</ele>
  <time>2026-08-28T17:49:51Z</time>
  <course>143.62</course>
  <speed>1.0</speed>
  <fix>3d</fix>
</trkpt>
<trkpt lat="40.0708318" lon="-105.2298464">
  <ele>1582.97</ele>
  <time>2026-08-28T17:49:51Z</time>
  <course>144.82</course>
  <speed>0.97082439194738</speed>
  <fix>3d</fix>
</trkpt>
<trkpt lat="40.0708328" lon="-105.2298469">
  <ele>1583.0</ele>
  <time>2026-08-28T17:49:51Z</time>
  <course>143.79</course>
  <speed>1.0</speed>
  <fix>3d</fix>
</trkpt>
<trkpt lat="40.0708311" lon="-105.2298457">
  <ele>1582.97</ele>
  <time>2026-08-28T17:49:51Z</time>
  <course>144.9</course>
  <speed>0.979081201943945</speed>
  <fix>3d</fix>
</trkpt>
<trkpt lat="40.0708328" lon="-105.2298469">
  <ele>1583.0</ele>
  <time>2026-08-28T17:49:51Z</time>
  <course>143.79</course>
  <speed>1.0</speed>
  <fix>3d</fix>
</trkpt>
<trkpt lat="40.0708303" lon="-105.229845">
  <ele>1582.97</ele>
  <time>2026-08-28T17:49:51Z</time>
  <course>144.97</course>
  <speed>0.97082439194738</speed>
  <fix>3d</fix>
</trkpt>
<trkpt lat="40.0708328" lon="-105.2298469">
  <ele>1583.0</ele>
  <time>2026-08-28T17:49:51Z</time>
  <course>143.79</course>
  <speed>1.0</speed>
  <fix>3d</fix>
</trkpt>
<trkpt lat="40.0708296" lon="-105.2298443">
  <ele>1582.97</ele>
  <time>2026-08-28T17:49:51Z</time>
  <course>145.04</course>
  <speed>0.97082439194738</speed>
  <fix>3d</fix>
</trkpt>
<trkpt lat="40.0708313" lon="-105.2298455">
  <ele>1583.0</ele>
  <time>2026-08-28T17:49:51Z</time>
  <course>143.95</course>
  <speed>0.99</speed>
  <fix>3d</fix>
</trkpt>
<trkpt lat="40.0708289" lon="-105.2298436">
  <ele>1582.97</ele>
  <time>2026-08-28T17:49:51Z</time>
  <course>145.11</course>
  <speed>0.97082439194738</speed>
  <fix>3d</fix>
</trkpt>
<trkpt lat="40.0708313" lon="-105.2298455">
  <ele>1583.0</ele>
  <time>2026-08-28T17:49:51Z</time>
  <course>143.95</course>
  <speed>0.99</speed>
  <fix>3d</fix>
</trkpt>
<trkpt lat="40.0708282" lon="-105.2298429">
  <ele>1582.97</ele>
  <time>2026-08-28T17:49:51Z</time>
  <course>145.17</course>
  <speed>0.9651942809610924</speed>
  <fix>3d</fix>
</trkpt>
<trkpt lat="40.0708299" lon="-105.2298442">
  <ele>1583.0</ele>
  <time>2026-08-28T17:49:51Z</time>
  <course>144.1</course>
  <speed>0.99</speed>
  <fix>3d</fix>
</trkpt>
<trkpt lat="40.0708275" lon="-105.2298423">
  <ele>1582.98</ele>
  <time>2026-08-28T17:49:51Z</time>
  <course>145.24</course>
  <speed>0.9651942809610924</speed>
  <fix>3d</fix>
</trkpt>
<trkpt lat="40.0708299" lon="-105.2298442">
  <ele>1583.0</ele>
  <time>2026-08-28T17:49:51Z</time>
  <course>144.1</course>
  <speed>0.99</speed>
  <fix>3d</fix>
</trkpt>
<trkpt lat="40.0708267" lon="-105.2298416">
  <ele>1582.98</ele>
  <time>2026-08-28T17:49:51Z</time>
  <course>145.3</course>
  <speed>0.9651942809610924</speed>
  <fix>3d</fix>
</trkpt>
<trkpt lat="40.0708284" lon="-105.2298428">
  <ele>1583.0</ele>
  <time>2026-08-28T17:49:51Z</time>
  <course>144.24</course>
  <speed>0.99</speed>
  <fix>3d</fix>
</trkpt>
<trkpt lat="40.070826" lon="-105.2298409">
  <ele>1582.98</ele>
  <time>2026-08-28T17:49:51Z</time>
  <course>145.37</course>
  <speed>0.973498844375277</speed>
  <fix>3d</fix>
</trkpt>
<trkpt lat="40.0708269" lon="-105.2298414">
  <ele>1583.0</ele>
  <time>2026-08-28T17:49:51Z</time>
  <course>144.37</course>
  <speed>0.99</speed>
  <fix>3d</fix>
</trkpt>
<trkpt lat="40.0708253" lon="-105.2298402">
  <ele>1582.99</ele>
  <time>2026-08-28T17:49:51Z</time>
  <course>145.44</course>
  <speed>0.973498844375277</speed>
  <fix>3d</fix>
</trkpt>
<trkpt lat="40.0708269" lon="-105.2298414">
  <ele>1583.0</ele>
  <time>2026-08-28T17:49:51Z</time>
  <course>144.37</course>
  <speed>0.99</speed>
  <fix>3d</fix>
</trkpt>
<trkpt lat="40.0708246" lon="-105.2298396">
  <ele>1582.99</ele>
  <time>2026-08-28T17:49:51Z</time>
  <course>145.49</course>
  <speed>0.973498844375277</speed>
  <fix>3d</fix>
</trkpt>
<trkpt lat="40.0708255" lon="-105.22984">
  <ele>1583.0</ele>
  <time>2026-08-28T17:49:51Z</time>
  <course>144.5</course>
  <speed>0.99</speed>
  <fix>3d</fix>
</trkpt>
<trkpt lat="40.0708238" lon="-105.2298389">
  <ele>1583.0</ele>
  <time>2026-08-28T17:49:51Z</time>
  <course>145.55</course>
  <speed>0.973498844375277</speed>
  <fix>3d</fix>
</trkpt>
<trkpt lat="40.0708255" lon="-105.22984">
  <ele>1583.0</ele>
  <time>2026-08-28T17:49:51Z</time>
  <course>144.5</course>
  <speed>0.99</speed>
  <fix>3d</fix>
</trkpt>
<trkpt lat="40.0708231" lon="-105.2298382">
  <ele>1583.0</ele>
  <time>2026-08-28T17:49:51Z</time>
  <course>145.6</course>
  <speed>0.973498844375277</speed>
  <fix>3d</fix>
</trkpt>
<trkpt lat="40.070824" lon="-105.2298387">
  <ele>1583.0</ele>
  <time>2026-08-28T17:49:51Z</time>
  <course>144.62</course>
  <speed>0.99</speed>
  <fix>3d</fix>
</trkpt>
<trkpt lat="40.0708224" lon="-105.2298375">
  <ele>1583.01</ele>
  <time>2026-08-28T17:49:51Z</time>
  <course>145.66</course>
  <speed>0.973498844375277</speed>
  <fix>3d</fix>
</trkpt>
<trkpt lat="40.070824" lon="-105.2298387">
  <ele>1583.0</ele>
  <time>2026-08-28T17:49:51Z</time>
  <course>144.62</course>
  <speed>0.99</speed>
  <fix>3d</fix>
</trkpt>
<trkpt lat="40.0708216" lon="-105.2298368">
  <ele>1583.01</ele>
  <time>2026-08-28T17:49:51Z</time>
  <course>145.71</course>
  <speed>0.973498844375277</speed>
  <fix>3d</fix>
</trkpt>
<trkpt lat="40.0708226" lon="-105.2298373">
  <ele>1583.0</ele>
  <time>2026-08-28T17:49:51Z</time>
  <course>144.73</course>
  <speed>0.99</speed>
  <fix>3d</fix>
</trkpt>
<trkpt lat="40.0708209" lon="-105.2298361">
  <ele>1583.01</ele>
  <time>2026-08-28T17:49:51Z</time>
  <course>145.76</course>
  <speed>0.973498844375277</speed>
  <fix>3d</fix>
</trkpt>
<trkpt lat="40.0708226" lon="-105.2298373">
  <ele>1583.0</ele>
  <time>2026-08-28T17:49:51Z</time>
  <course>144.73</course>
  <speed>0.99</speed>
  <fix>3d</fix>
</trkpt>
<trkpt lat="40.0708202" lon="-105.2298355">
  <ele>1583.0</ele>
  <time>2026-08-28T17:49:51Z</time>
  <course>145.81</course>
  <speed>0.973498844375277</speed>
  <fix>3d</fix>
</trkpt>
<trkpt lat="40.0708211" lon="-105.229836">
  <ele>1583.0</ele>
  <time>2026-08-28T17:49:51Z</time>
  <course>144.84</course>
  <speed>0.99</speed>
  <fix>3d</fix>
</trkpt>
<trkpt lat="40.0708194" lon="-105.2298348">
  <ele>1583.01</ele>
  <time>2026-08-28T17:49:51Z</time>
  <course>145.87</course>
  <speed>0.973498844375277</speed>
  <fix>3d</fix>
</trkpt>
<trkpt lat="40.0708211" lon="-105.229836">
  <ele>1583.0</ele>
  <time>2026-08-28T17:49:51Z</time>
  <course>144.84</course>
  <speed>0.99</speed>
  <fix>3d</fix>
</trkpt>
<trkpt lat="40.0708187" lon="-105.2298341">
  <ele>1583.01</ele>
  <time>2026-08-28T17:49:51Z</time>
  <course>145.92</course>
  <speed>0.973498844375277</speed>
  <fix>3d</fix>
</trkpt>
<trkpt lat="40.0708196" lon="-105.2298347">
  <ele>1583.0</ele>
  <time>2026-08-28T17:49:51Z</time>
  <course>144.95</course>
  <speed>0.99</speed>
  <fix>3d</fix>
</trkpt>
<trkpt lat="40.070818" lon="-105.2298334">
  <ele>1583.01</ele>
  <time>2026-08-28T17:49:51Z</time>
  <course>145.96</course>
  <speed>0.973498844375277</speed>
  <fix>3d</fix>
</trkpt>
<trkpt lat="40.0708196" lon="-105.2298347">
  <ele>1583.0</ele>
  <time>2026-08-28T17:49:51Z</time>
  <course>144.95</course>
  <speed>0.99</speed>
  <fix>3d</fix>
</trkpt>
<trkpt lat="40.0708172" lon="-105.2298328">
  <ele>1583.02</ele>
  <time>2026-08-28T17:49:51Z</time>
  <course>146.0</course>
  <speed>0.973498844375277</speed>
  <fix>3d</fix>
</trkpt>
<trkpt lat="40.0708182" lon="-105.2298333">
  <ele>1583.0</ele>
  <time>2026-08-28T17:49:51Z</time>
  <course>145.04</course>
  <speed>0.99</speed>
  <fix>3d</fix>
</trkpt>
<trkpt lat="40.0708165" lon="-105.2298321">
  <ele>1583.02</ele>
  <time>2026-08-28T17:49:51Z</time>
  <course>146.04</course>
  <speed>0.973498844375277</speed>
  <fix>3d</fix>
</trkpt>
<trkpt lat="40.0708182" lon="-105.2298333">
  <ele>1583.0</ele>
  <time>2026-08-28T17:49:51Z</time>
  <course>145.04</course>
  <speed>0.99</speed>
  <fix>3d</fix>
</trkpt>
<trkpt lat="40.0708158" lon="-105.2298314">
  <ele>1583.02</ele>
  <time>2026-08-28T17:49:51Z</time>
  <course>146.08</course>
  <speed>0.973498844375277</speed>
  <fix>3d</fix>
</trkpt>
<trkpt lat="40.0708182" lon="-105.2298333">
  <ele>1583.0</ele>
  <time>2026-08-28T17:49:51Z</time>
  <course>145.04</course>
  <speed>0.99</speed>
  <fix>3d</fix>
</trkpt>
<trkpt lat="40.070815" lon="-105.2298307">
  <ele>1583.02</ele>
  <time>2026-08-28T17:49:51Z</time>
  <course>146.12</course>
  <speed>0.973498844375277</speed>
  <fix>3d</fix>
</trkpt>
<trkpt lat="40.0708167" lon="-105.2298319">
  <ele>1583.0</ele>
  <time>2026-08-28T17:49:51Z</time>
  <course>145.13</course>
  <speed>0.99</speed>
  <fix>3d</fix>
</trkpt>
<trkpt lat="40.0708143" lon="-105.2298301">
  <ele>1583.02</ele>
  <time>2026-08-28T17:49:51Z</time>
  <course>146.16</course>
  <speed>0.9679876032264049</speed>
  <fix>3d</fix>
</trkpt>
<trkpt lat="40.0708167" lon="-105.2298319">
  <ele>1583.0</ele>
  <time>2026-08-28T17:49:51Z</time>
  <course>145.13</course>
  <speed>0.99</speed>
  <fix>3d</fix>
</trkpt>
<trkpt lat="40.0708136" lon="-105.2298294">
  <ele>1583.02</ele>
  <time>2026-08-28T17:49:51Z</time>
  <course>146.2</course>
  <speed>0.9679876032264049</speed>
  <fix>3d</fix>
</trkpt>
<trkpt lat="40.0708152" lon="-105.2298306">
  <ele>1583.0</ele>
  <time>2026-08-28T17:49:51Z</time>
  <course>145.21</course>
  <speed>0.99</speed>
  <fix>3d</fix>
</trkpt>
<trkpt lat="40.0708129" lon="-105.2298288">
  <ele>1583.02</ele>
  <time>2026-08-28T17:49:51Z</time>
  <course>146.23</course>
  <speed>0.9679876032264049</speed>
  <fix>3d</fix>
</trkpt>
<trkpt lat="40.0708152" lon="-105.2298306">
  <ele>1583.0</ele>
  <time>2026-08-28T17:49:51Z</time>
  <course>145.21</course>
  <speed>0.99</speed>
  <fix>3d</fix>
</trkpt>
<trkpt lat="40.0708121" lon="-105.2298281">
  <ele>1583.01</ele>
  <time>2026-08-28T17:49:51Z</time>
  <course>146.26</course>
  <speed>0.9679876032264049</speed>
  <fix>3d</fix>
</trkpt>
<trkpt lat="40.0708137" lon="-105.2298293">
  <ele>1583.0</ele>
  <time>2026-08-28T17:49:51Z</time>
  <course>145.28</course>
  <speed>0.99</speed>
  <fix>3d</fix>
</trkpt>
<trkpt lat="40.0708114" lon="-105.2298274">
  <ele>1583.01</ele>
  <time>2026-08-28T17:49:51Z</time>
  <course>146.28</course>
  <speed>0.9679876032264049</speed>
  <fix>3d</fix>
</trkpt>
<trkpt lat="40.0708137" lon="-105.2298293">
  <ele>1583.0</ele>
  <time>2026-08-28T17:49:51Z</time>
  <course>145.28</course>
  <speed>0.99</speed>
  <fix>3d</fix>
</trkpt>
<trkpt lat="40.0708107" lon="-105.2298268">
  <ele>1583.01</ele>
  <time>2026-08-28T17:49:51Z</time>
  <course>146.31</course>
  <speed>0.9679876032264049</speed>
  <fix>3d</fix>
</trkpt>
<trkpt lat="40.0708123" lon="-105.229828">
  <ele>1583.0</ele>
  <time>2026-08-28T17:49:51Z</time>
  <course>145.35</course>
  <speed>0.99</speed>
  <fix>3d</fix>
</trkpt>
<trkpt lat="40.0708099" lon="-105.2298261">
  <ele>1583.0</ele>
  <time>2026-08-28T17:49:51Z</time>
  <course>146.34</course>
  <speed>0.9679876032264049</speed>
  <fix>3d</fix>
</trkpt>
<trkpt lat="40.0708108" lon="-105.2298266">
  <ele>1583.0</ele>
  <time>2026-08-28T17:49:51Z</time>
  <course>145.4</course>
  <speed>0.99</speed>
  <fix>3d</fix>
</trkpt>
<trkpt lat="40.0708092" lon="-105.2298254">
  <ele>1583.0</ele>
  <time>2026-08-28T17:49:51Z</time>
  <course>146.36</course>
  <speed>0.9679876032264049</speed>
  <fix>3d</fix>
</trkpt>
<trkpt lat="40.0708108" lon="-105.2298266">
  <ele>1583.0</ele>
  <time>2026-08-28T17:49:51Z</time>
  <course>145.4</course>
  <speed>0.99</speed>
  <fix>3d</fix>
</trkpt>
<trkpt lat="40.0708085" lon="-105.2298248">
  <ele>1583.0</ele>
  <time>2026-08-28T17:49:51Z</time>
  <course>146.39</course>
  <speed>0.9679876032264049</speed>
  <fix>3d</fix>
</trkpt>
<trkpt lat="40.0708093" lon="-105.2298253">
  <ele>1583.0</ele>
  <time>2026-08-28T17:49:51Z</time>
  <course>145.46</course>
  <speed>0.99</speed>
  <fix>3d</fix>
</trkpt>
<trkpt lat="40.0708077" lon="-105.2298241">
  <ele>1582.99</ele>
  <time>2026-08-28T17:49:51Z</time>
  <course>146.4</course>
  <speed>0.9679876032264049</speed>
  <fix>3d</fix>
</trkpt>
<trkpt lat="40.0708093" lon="-105.2298253">
  <ele>1583.0</ele>
  <time>2026-08-28T17:49:51Z</time>
  <course>145.46</course>
  <speed>0.99</speed>
  <fix>3d</fix>
</trkpt>
<trkpt lat="40.070807" lon="-105.2298235">
  <ele>1582.99</ele>
  <time>2026-08-28T17:49:51Z</time>
  <course>146.38</course>
  <speed>0.9679876032264049</speed>
  <fix>3d</fix>
</trkpt>
<trkpt lat="40.0708079" lon="-105.229824">
  <ele>1583.0</ele>
  <time>2026-08-28T17:49:51Z</time>
  <course>145.48</course>
  <speed>0.99</speed>
  <fix>3d</fix>
</trkpt>
<trkpt lat="40.0708062" lon="-105.2298228">
  <ele>1582.99</ele>
  <time>2026-08-28T17:49:51Z</time>
  <course>146.32</course>
  <speed>0.9679876032264049</speed>
  <fix>3d</fix>
</trkpt>
<trkpt lat="40.0708079" lon="-105.229824">
  <ele>1583.0</ele>
  <time>2026-08-28T17:49:51Z</time>
  <course>145.48</course>
  <speed>0.99</speed>
  <fix>3d</fix>
</trkpt>
<trkpt lat="40.0708055" lon="-105.2298221">
  <ele>1582.99</ele>
  <time>2026-08-28T17:49:51Z</time>
  <course>146.22</course>
  <speed>0.973498844375277</speed>
  <fix>3d</fix>
</trkpt>
<trkpt lat="40.0708064" lon="-105.2298227">
  <ele>1583.0</ele>
  <time>2026-08-28T17:49:51Z</time>
  <course>145.39</course>
  <speed>0.99</speed>
  <fix>3d</fix>
</trkpt>
<trkpt lat="40.0708048" lon="-105.2298214">
  <ele>1582.99</ele>
  <time>2026-08-28T17:49:51Z</time>
  <course>146.08</course>
  <speed>0.973498844375277</speed>
  <fix>3d</fix>
</trkpt>
<trkpt lat="40.0708064" lon="-105.2298227">
  <ele>1583.0</ele>
  <time>2026-08-28T17:49:51Z</time>
  <course>145.39</course>
  <speed>0.99</speed>
  <fix>3d</fix>
</trkpt>
<trkpt lat="40.070804" lon="-105.2298208">
  <ele>1583.0</ele>
  <time>2026-08-28T17:49:51Z</time>
  <course>145.89</course>
  <speed>0.973498844375277</speed>
  <fix>3d</fix>
</trkpt>
<trkpt lat="40.0708049" lon="-105.2298213">
  <ele>1583.0</ele>
  <time>2026-08-28T17:49:51Z</time>
  <course>145.15</course>
  <speed>0.99</speed>
  <fix>3d</fix>
</trkpt>
<trkpt lat="40.0708033" lon="-105.2298201">
  <ele>1583.0</ele>
  <time>2026-08-28T17:49:51Z</time>
  <course>145.67</course>
  <speed>0.979081201943945</speed>
  <fix>3d</fix>
</trkpt>
<trkpt lat="40.0708049" lon="-105.2298213">
  <ele>1583.0</ele>
  <time>2026-08-28T17:49:51Z</time>
  <course>145.15</course>
  <speed>0.99</speed>
  <fix>3d</fix>
</trkpt>
<trkpt lat="40.0708025" lon="-105.2298194">
  <ele>1583.0</ele>
  <time>2026-08-28T17:49:51Z</time>
  <course>145.4</course>
  <speed>0.97082439194738</speed>
  <fix>3d</fix>
</trkpt>
<trkpt lat="40.0708034" lon="-105.2298199">
  <ele>1583.0</ele>
  <time>2026-08-28T17:49:51Z</time>
  <course>144.74</course>
  <speed>0.99</speed>
  <fix>3d</fix>
</trkpt>
<trkpt lat="40.0708018" lon="-105.2298187">
  <ele>1583.01</ele>
  <time>2026-08-28T17:49:51Z</time>
  <course>145.1</course>
  <speed>0.97082439194738</speed>
  <fix>3d</fix>
</trkpt>
<trkpt lat="40.0708034" lon="-105.2298199">
  <ele>1583.0</ele>
  <time>2026-08-28T17:49:51Z</time>
  <course>144.74</course>
  <speed>0.99</speed>
  <fix>3d</fix>
</trkpt>
<trkpt lat="40.0708011" lon="-105.229818">
  <ele>1583.01</ele>
  <time>2026-08-28T17:49:51Z</time>
  <course>144.75</course>
  <speed>0.9765244492586962</speed>
  <fix>3d</fix>
</trkpt>
<trkpt lat="40.070802" lon="-105.2298186">
  <ele>1583.0</ele>
  <time>2026-08-28T17:49:51Z</time>
  <course>144.17</course>
  <speed>0.99</speed>
  <fix>3d</fix>
</trkpt>
<trkpt lat="40.0708004" lon="-105.2298173">
  <ele>1583.01</ele>
  <time>2026-08-28T17:49:51Z</time>
  <course>144.4</course>
  <speed>0.9683491106000975</speed>
  <fix>3d</fix>
</trkpt>
<trkpt lat="40.070802" lon="-105.2298186">
  <ele>1583.0</ele>
  <time>2026-08-28T17:49:51Z</time>
  <course>144.17</course>
  <speed>0.99</speed>
  <fix>3d</fix>
</trkpt>
<trkpt lat="40.0707996" lon="-105.2298166">
  <ele>1583.01</ele>
  <time>2026-08-28T17:49:51Z</time>
  <course>144.07</course>
  <speed>0.9741663102366043</speed>
  <fix>3d</fix>
</trkpt>
<trkpt lat="40.070802" lon="-105.2298186">
  <ele>1583.0</ele>
  <time>2026-08-28T17:49:51Z</time>
  <course>144.17</course>
  <speed>0.99</speed>
  <fix>3d</fix>
</trkpt>
<trkpt lat="40.0707989" lon="-105.2298159">
  <ele>1583.01</ele>
  <time>2026-08-28T17:49:51Z</time>
  <course>143.79</course>
  <speed>0.9741663102366043</speed>
  <fix>3d</fix>
</trkpt>
<trkpt lat="40.0708005" lon="-105.2298172">
  <ele>1583.0</ele>
  <time>2026-08-28T17:49:51Z</time>
  <course>143.51</course>
  <speed>0.99</speed>
  <fix>3d</fix>
</trkpt>
<trkpt lat="40.0707982" lon="-105.2298152">
  <ele>1583.01</ele>
  <time>2026-08-28T17:49:51Z</time>
  <course>143.53</course>
  <speed>0.9720082304178294</speed>
  <fix>3d</fix>
</trkpt>
<trkpt lat="40.0708005" lon="-105.2298172">
  <ele>1583.0</ele>
  <time>2026-08-28T17:49:51Z</time>
  <course>143.51</course>
  <speed>0.99</speed>
  <fix>3d</fix>
</trkpt>
<trkpt lat="40.0707975" lon="-105.2298145">
  <ele>1583.01</ele>
  <time>2026-08-28T17:49:51Z</time>
  <course>143.31</course>
  <speed>0.9720082304178294</speed>
  <fix>3d</fix>
</trkpt>
<trkpt lat="40.0707991" lon="-105.2298158">
  <ele>1583.0</ele>
  <time>2026-08-28T17:49:51Z</time>
  <course>142.9</course>
  <speed>0.99</speed>
  <fix>3d</fix>
</trkpt>
<trkpt lat="40.0707968" lon="-105.2298138">
  <ele>1583.01</ele>
  <time>2026-08-28T17:49:51Z</time>
  <course>143.13</course>
  <speed>0.9720082304178294</speed>
  <fix>3d</fix>
</trkpt>
<trkpt lat="40.0707991" lon="-105.2298158">
  <ele>1583.0</ele>
  <time>2026-08-28T17:49:51Z</time>
  <course>142.9</course>
  <speed>0.99</speed>
  <fix>3d</fix>
</trkpt>
<trkpt lat="40.0707961" lon="-105.2298131">
  <ele>1583.01</ele>
  <time>2026-08-28T17:49:51Z</time>
  <course>142.98</course>
  <speed>0.9720082304178294</speed>
  <fix>3d</fix>
</trkpt>
<trkpt lat="40.0707977" lon="-105.2298144">
  <ele>1583.0</ele>
  <time>2026-08-28T17:49:51Z</time>
  <course>142.43</course>
  <speed>0.99</speed>
  <fix>3d</fix>
</trkpt>
<trkpt lat="40.0707954" lon="-105.2298123">
  <ele>1583.0</ele>
  <time>2026-08-28T17:49:51Z</time>
  <course>142.87</course>
  <speed>0.9640020746865642</speed>
  <fix>3d</fix>
</trkpt>
<trkpt lat="40.0707963" lon="-105.2298129">
  <ele>1583.0</ele>
  <time>2026-08-28T17:49:51Z</time>
  <course>142.1</course>
  <speed>0.99</speed>
  <fix>3d</fix>
</trkpt>
<trkpt lat="40.0707947" lon="-105.2298116">
  <ele>1583.01</ele>
  <time>2026-08-28T17:49:51Z</time>
  <course>142.8</course>
  <speed>0.970051545022222</speed>
  <fix>3d</fix>
</trkpt>
<trkpt lat="40.0707963" lon="-105.2298129">
  <ele>1583.0</ele>
  <time>2026-08-28T17:49:51Z</time>
  <course>142.1</course>
  <speed>0.99</speed>
  <fix>3d</fix>
</trkpt>
<trkpt lat="40.070794" lon="-105.2298109">
  <ele>1583.01</ele>
  <time>2026-08-28T17:49:51Z</time>
  <course>142.77</course>
  <speed>0.970051545022222</speed>
  <fix>3d</fix>
</trkpt>
<trkpt lat="40.0707948" lon="-105.2298115">
  <ele>1583.0</ele>
  <time>2026-08-28T17:49:51Z</time>
  <course>141.92</course>
  <speed>0.99</speed>
  <fix>3d</fix>
</trkpt>
<trkpt lat="40.0707933" lon="-105.2298102">
  <ele>1583.01</ele>
  <time>2026-08-28T17:49:51Z</time>
  <course>142.76</course>
  <speed>0.970051545022222</speed>
  <fix>3d</fix>
</trkpt>
<trkpt lat="40.0707948" lon="-105.2298115">
  <ele>1583.0</ele>
  <time>2026-08-28T17:49:51Z</time>
  <course>141.92</course>
  <speed>0.99</speed>
  <fix>3d</fix>
</trkpt>
<trkpt lat="40.0707926" lon="-105.2298094">
  <ele>1583.01</ele>
  <time>2026-08-28T17:49:51Z</time>
  <course>142.75</course>
  <speed>0.970051545022222</speed>
  <fix>3d</fix>
</trkpt>
<trkpt lat="40.0707935" lon="-105.2298101">
  <ele>1583.0</ele>
  <time>2026-08-28T17:49:51Z</time>
  <course>141.86</course>
  <speed>0.99</speed>
  <fix>3d</fix>
</trkpt>
<trkpt lat="40.0707919" lon="-105.2298087">
  <ele>1583.01</ele>
  <time>2026-08-28T17:49:51Z</time>
  <course>142.72</course>
  <speed>0.970051545022222</speed>
  <fix>3d</fix>
</trkpt>
<trkpt lat="40.0707935" lon="-105.2298101">
  <ele>1583.0</ele>
  <time>2026-08-28T17:49:51Z</time>
  <course>141.86</course>
  <speed>0.99</speed>
  <fix>3d</fix>
</trkpt>
<trkpt lat="40.0707912" lon="-105.229808">
  <ele>1583.01</ele>
  <time>2026-08-28T17:49:51Z</time>
  <course>142.68</course>
  <speed>0.978008179924892</speed>
  <fix>3d</fix>
</trkpt>
<trkpt lat="40.0707921" lon="-105.2298086">
  <ele>1583.0</ele>
  <time>2026-08-28T17:49:51Z</time>
  <course>141.81</course>
  <speed>0.99</speed>
  <fix>3d</fix>
</trkpt>
<trkpt lat="40.0707905" lon="-105.2298072">
  <ele>1583.0</ele>
  <time>2026-08-28T17:49:51Z</time>
  <course>142.63</course>
  <speed>0.9840731680114035</speed>
  <fix>3d</fix>
</trkpt>
<trkpt lat="40.0707921" lon="-105.2298086">
  <ele>1583.0</ele>
  <time>2026-08-28T17:49:51Z</time>
  <course>141.81</course>
  <speed>0.99</speed>
  <fix>3d</fix>
</trkpt>
<trkpt lat="40.0707898" lon="-105.2298065">
  <ele>1583.01</ele>
  <time>2026-08-28T17:49:51Z</time>
  <course>142.57</course>
  <speed>0.9920181449953424</speed>
  <fix>3d</fix>
</trkpt>
<trkpt lat="40.0707906" lon="-105.2298072">
  <ele>1583.0</ele>
  <time>2026-08-28T17:49:51Z</time>
  <course>141.72</course>
  <speed>1.01</speed>
  <fix>3d</fix>
</trkpt>
<trkpt lat="40.070789" lon="-105.2298057">
  <ele>1583.0</ele>
  <time>2026-08-28T17:49:51Z</time>
  <course>142.5</course>
  <speed>1.0200490184299968</speed>
  <fix>3d</fix>
</trkpt>
<trkpt lat="40.0707906" lon="-105.2298072">
  <ele>1583.0</ele>
  <time>2026-08-28T17:49:51Z</time>
  <course>141.72</course>
  <speed>1.01</speed>
  <fix>3d</fix>
</trkpt>
<trkpt lat="40.0707883" lon="-105.229805">
  <ele>1583.0</ele>
  <time>2026-08-28T17:49:51Z</time>
  <course>142.43</course>
  <speed>1.0480935072788113</speed>
  <fix>3d</fix>
</trkpt>
<trkpt lat="40.0707892" lon="-105.2298057">
  <ele>1583.0</ele>
  <time>2026-08-28T17:49:51Z</time>
  <course>141.6</course>
  <speed>1.04</speed>
  <fix>3d</fix>
</trkpt>
<trkpt lat="40.0707875" lon="-105.2298042">
  <ele>1583.0</ele>
  <time>2026-08-28T17:49:51Z</time>
  <course>142.36</course>
  <speed>1.0840664186294122</speed>
  <fix>3d</fix>
</trkpt>
<trkpt lat="40.0707892" lon="-105.2298057">
  <ele>1583.0</ele>
  <time>2026-08-28T17:49:51Z</time>
  <course>141.6</course>
  <speed>1.04</speed>
  <fix>3d</fix>
</trkpt>
<trkpt lat="40.0707867" lon="-105.2298033">
  <ele>1583.0</ele>
  <time>2026-08-28T17:49:51Z</time>
  <course>142.29</course>
  <speed>1.1261438629233833</speed>
  <fix>3d</fix>
</trkpt>
<trkpt lat="40.0707876" lon="-105.2298041">
  <ele>1583.0</ele>
  <time>2026-08-28T17:49:51Z</time>
  <course>141.46</course>
  <speed>1.11</speed>
  <fix>3d</fix>
</trkpt>
<trkpt lat="40.0707859" lon="-105.2298024">
  <ele>1583.0</ele>
  <time>2026-08-28T17:49:51Z</time>
  <course>142.23</course>
  <speed>1.1901680553602503</speed>
  <fix>3d</fix>
</trkpt>
<trkpt lat="40.0707876" lon="-105.2298041">
  <ele>1583.0</ele>
  <time>2026-08-28T17:49:51Z</time>
  <course>141.46</course>
  <speed>1.11</speed>
  <fix>3d</fix>
</trkpt>
<trkpt lat="40.070785" lon="-105.2298015">
  <ele>1582.99</ele>
  <time>2026-08-28T17:49:51Z</time>
  <course>142.16</course>
  <speed>1.2621014222319853</speed>
  <fix>3d</fix>
</trkpt>
<trkpt lat="40.0707876" lon="-105.2298041">
  <ele>1583.0</ele>
  <time>2026-08-28T17:49:51Z</time>
  <course>141.46</course>
  <speed>1.11</speed>
  <fix>3d</fix>
</trkpt>
<trkpt lat="40.070784" lon="-105.2298006">
  <ele>1582.99</ele>
  <time>2026-08-28T17:49:51Z</time>
  <course>142.1</course>
  <speed>1.3401492454200763</speed>
  <fix>3d</fix>
</trkpt>
<trkpt lat="40.070786" lon="-105.2298025">
  <ele>1583.0</ele>
  <time>2026-08-28T17:49:51Z</time>
  <course>141.32</course>
  <speed>1.22</speed>
  <fix>3d</fix>
</trkpt>
<trkpt lat="40.0707831" lon="-105.2297995">
  <ele>1582.99</ele>
  <time>2026-08-28T17:49:51Z</time>
  <course>142.04</course>
  <speed>1.4322360140703068</speed>
  <fix>3d</fix>
</trkpt>
<trkpt lat="40.070786" lon="-105.2298025">
  <ele>1583.0</ele>
  <time>2026-08-28T17:49:51Z</time>
  <course>141.32</course>
  <speed>1.22</speed>
  <fix>3d</fix>
</trkpt>
<trkpt lat="40.070782" lon="-105.2297984">
  <ele>1582.99</ele>
  <time>2026-08-28T17:49:51Z</time>
  <course>142.0</course>
  <speed>1.5322206107476821</speed>
  <fix>3d</fix>
</trkpt>
<trkpt lat="40.0707842" lon="-105.2298005">
  <ele>1583.0</ele>
  <time>2026-08-28T17:49:51Z</time>
  <course>141.2</course>
  <speed>1.37</speed>
  <fix>3d</fix>
</trkpt>
<trkpt lat="40.0707809" lon="-105.2297972">
  <ele>1582.99</ele>
  <time>2026-08-28T17:49:51Z</time>
  <course>141.96</course>
  <speed>1.63835283135227</speed>
  <fix>3d</fix>
</trkpt>
<trkpt lat="40.0707842" lon="-105.2298005">
  <ele>1583.0</ele>
  <time>2026-08-28T17:49:51Z</time>
  <course>141.2</course>
  <speed>1.37</speed>
  <fix>3d</fix>
</trkpt>
<trkpt lat="40.0707797" lon="-105.229796">
  <ele>1583.0</ele>
  <time>2026-08-28T17:49:51Z</time>
  <course>141.91</course>
  <speed>1.752369823981228</speed>
  <fix>3d</fix>
</trkpt>
<trkpt lat="40.0707821" lon="-105.2297983">
  <ele>1583.0</ele>
  <time>2026-08-28T17:49:51Z</time>
  <course>141.1</course>
  <speed>1.55</speed>
  <fix>3d</fix>
</trkpt>
<trkpt lat="40.0707784" lon="-105.2297946">
  <ele>1583.0</ele>
  <time>2026-08-28T17:49:51Z</time>
  <course>141.89</course>
  <speed>1.8663868837944613</speed>
  <fix>3d</fix>
</trkpt>
<trkpt lat="40.0707821" lon="-105.2297983">
  <ele>1583.0</ele>
  <time>2026-08-28T17:49:51Z</time>
  <course>141.1</course>
  <speed>1.55</speed>
  <fix>3d</fix>
</trkpt>
<trkpt lat="40.070777" lon="-105.2297932">
  <ele>1583.0</ele>
  <time>2026-08-28T17:49:51Z</time>
  <course>141.86</course>
  <speed>1.9804039991880444</speed>
  <fix>3d</fix>
</trkpt>
<trkpt lat="40.0707798" lon="-105.2297959">
  <ele>1583.0</ele>
  <time>2026-08-28T17:49:51Z</time>
  <course>141.02</course>
  <speed>1.77</speed>
  <fix>3d</fix>
</trkpt>
<trkpt lat="40.0707755" lon="-105.2297917">
  <ele>1583.0</ele>
  <time>2026-08-28T17:49:51Z</time>
  <course>141.83</course>
  <speed>2.1005951537600005</speed>
  <fix>3d</fix>
</trkpt>
<trkpt lat="40.0707771" lon="-105.2297931">
  <ele>1583.0</ele>
  <time>2026-08-28T17:49:51Z</time>
  <course>140.96</course>
  <speed>2.0</speed>
  <fix>3d</fix>
</trkpt>
<trkpt lat="40.070774" lon="-105.22979">
  <ele>1583.0</ele>
  <time>2026-08-28T17:49:51Z</time>
  <course>141.82</course>
  <speed>2.2146105752479373</speed>
  <fix>3d</fix>
</trkpt>
<trkpt lat="40.0707771" lon="-105.2297931">
  <ele>1583.0</ele>
  <time>2026-08-28T17:49:51Z</time>
  <course>140.96</course>
  <speed>2.0</speed>
  <fix>3d</fix>
</trkpt>
<trkpt lat="40.0707724" lon="-105.2297883">
  <ele>1583.0</ele>
  <time>2026-08-28T17:49:51Z</time>
  <course>141.82</course>
  <speed>2.328626204439004</speed>
  <fix>3d</fix>
</trkpt>
<trkpt lat="40.0707742" lon="-105.22979">
  <ele>1583.0</ele>
  <time>2026-08-28T17:49:51Z</time>
  <course>140.94</course>
  <speed>2.22</speed>
  <fix>3d</fix>
</trkpt>
<trkpt lat="40.0707706" lon="-105.2297865">
  <ele>1583.0</ele>
  <time>2026-08-28T17:49:51Z</time>
  <course>141.81</course>
  <speed>2.4286004199950226</speed>
  <fix>3d</fix>
</trkpt>
<trkpt lat="40.0707742" lon="-105.22979">
  <ele>1583.0</ele>
  <time>2026-08-28T17:49:51Z</time>
  <course>140.94</course>
  <speed>2.22</speed>
  <fix>3d</fix>
</trkpt>
<trkpt lat="40.0707689" lon="-105.2297847">
  <ele>1583.01</ele>
  <time>2026-08-28T17:49:51Z</time>
  <course>141.81</course>
  <speed>2.5285766747322493</speed>
  <fix>3d</fix>
</trkpt>
<trkpt lat="40.0707709" lon="-105.2297865">
  <ele>1583.0</ele>
  <time>2026-08-28T17:49:51Z</time>
  <course>140.93</course>
  <speed>2.44</speed>
  <fix>3d</fix>
</trkpt>
<trkpt lat="40.070767" lon="-105.2297827">
  <ele>1583.01</ele>
  <time>2026-08-28T17:49:51Z</time>
  <course>141.81</course>
  <speed>2.61283371074395</speed>
  <fix>3d</fix>
</trkpt>
<trkpt lat="40.0707709" lon="-105.2297865">
  <ele>1583.0</ele>
  <time>2026-08-28T17:49:51Z</time>
  <course>140.93</course>
  <speed>2.44</speed>
  <fix>3d</fix>
</trkpt>
<trkpt lat="40.0707651" lon="-105.2297807">
  <ele>1583.01</ele>
  <time>2026-08-28T17:49:51Z</time>
  <course>141.8</course>
  <speed>2.6909106265351888</speed>
  <fix>3d</fix>
</trkpt>
<trkpt lat="40.0707674" lon="-105.2297828">
  <ele>1583.0</ele>
  <time>2026-08-28T17:49:51Z</time>
  <course>140.93</course>
  <speed>2.61</speed>
  <fix>3d</fix>
</trkpt>
<trkpt lat="40.0707631" lon="-105.2297786">
  <ele>1583.01</ele>
  <time>2026-08-28T17:49:51Z</time>
  <course>141.8</course>
  <speed>2.754941015702514</speed>
  <fix>3d</fix>
</trkpt>
<trkpt lat="40.0707674" lon="-105.2297828">
  <ele>1583.0</ele>
  <time>2026-08-28T17:49:51Z</time>
  <course>140.93</course>
  <speed>2.61</speed>
  <fix>3d</fix>
</trkpt>
<trkpt lat="40.0707612" lon="-105.2297766">
  <ele>1583.01</ele>
  <time>2026-08-28T17:49:51Z</time>
  <course>141.79</course>
  <speed>2.804924241401183</speed>
  <fix>3d</fix>
</trkpt>
<trkpt lat="40.0707637" lon="-105.2297788">
  <ele>1583.0</ele>
  <time>2026-08-28T17:49:51Z</time>
  <course>140.93</course>
  <speed>2.74</speed>
  <fix>3d</fix>
</trkpt>
<trkpt lat="40.0707591" lon="-105.2297744">
  <ele>1583.01</ele>
  <time>2026-08-28T17:49:51Z</time>
  <course>141.78</course>
  <speed>2.8408625450732385</speed>
  <fix>3d</fix>
</trkpt>
<trkpt lat="40.0707637" lon="-105.2297788">
  <ele>1583.0</ele>
  <time>2026-08-28T17:49:51Z</time>
  <course>140.93</course>
  <speed>2.74</speed>
  <fix>3d</fix>
</trkpt>
<trkpt lat="40.0707571" lon="-105.2297723">
  <ele>1583.01</ele>
  <time>2026-08-28T17:49:51Z</time>
  <course>141.78</course>
  <speed>2.8549080545614776</speed>
  <fix>3d</fix>
</trkpt>
<trkpt lat="40.0707598" lon="-105.2297746">
  <ele>1583.0</ele>
  <time>2026-08-28T17:49:51Z</time>
  <course>140.93</course>
  <speed>2.82</speed>
  <fix>3d</fix>
</trkpt>
<trkpt lat="40.0707551" lon="-105.2297701">
  <ele>1583.01</ele>
  <time>2026-08-28T17:49:51Z</time>
  <course>141.77</course>
  <speed>2.86895451340728</speed>
  <fix>3d</fix>
</trkpt>
<trkpt lat="40.0707598" lon="-105.2297746">
  <ele>1583.0</ele>
  <time>2026-08-28T17:49:51Z</time>
  <course>140.93</course>
  <speed>2.82</speed>
  <fix>3d</fix>
</trkpt>
<trkpt lat="40.0707531" lon="-105.229768">
  <ele>1583.01</ele>
  <time>2026-08-28T17:49:51Z</time>
  <course>141.77</course>
  <speed>2.86895451340728</speed>
  <fix>3d</fix>
</trkpt>
<trkpt lat="40.0707558" lon="-105.2297705">
  <ele>1583.0</ele>
  <time>2026-08-28T17:49:51Z</time>
  <course>140.93</course>
  <speed>2.86</speed>
  <fix>3d</fix>
</trkpt>
<trkpt lat="40.070751" lon="-105.2297658">
  <ele>1583.01</ele>
  <time>2026-08-28T17:49:51Z</time>
  <course>141.76</course>
  <speed>2.8611186623417075</speed>
  <fix>3d</fix>
</trkpt>
<trkpt lat="40.0707558" lon="-105.2297705">
  <ele>1583.0</ele>
  <time>2026-08-28T17:49:51Z</time>
  <course>140.93</course>
  <speed>2.86</speed>
  <fix>3d</fix>
</trkpt>
<trkpt lat="40.070749" lon="-105.2297637">
  <ele>1583.01</ele>
  <time>2026-08-28T17:49:51Z</time>
  <course>141.68</course>
  <speed>2.8470686679460333</speed>
  <fix>3d</fix>
</trkpt>
<trkpt lat="40.0707558" lon="-105.2297705">
  <ele>1583.0</ele>
  <time>2026-08-28T17:49:51Z</time>
  <course>140.93</course>
  <speed>2.86</speed>
  <fix>3d</fix>
</trkpt>
<trkpt lat="40.0707471" lon="-105.2297616">
  <ele>1583.01</ele>
  <time>2026-08-28T17:49:51Z</time>
  <course>141.37</course>
  <speed>2.8236324123369885</speed>
  <fix>3d</fix>
</trkpt>
<trkpt lat="40.0707519" lon="-105.2297662">
  <ele>1583.0</ele>
  <time>2026-08-28T17:49:51Z</time>
  <course>140.89</course>
  <speed>2.85</speed>
  <fix>3d</fix>
</trkpt>
<trkpt lat="40.0707451" lon="-105.2297595">
  <ele>1583.01</ele>
  <time>2026-08-28T17:49:51Z</time>
  <course>140.84</course>
  <speed>2.792579452764057</speed>
  <fix>3d</fix>
</trkpt>
<trkpt lat="40.0707519" lon="-105.2297662">
  <ele>1583.0</ele>
  <time>2026-08-28T17:49:51Z</time>
  <course>140.89</course>
  <speed>2.85</speed>
  <fix>3d</fix>
</trkpt>
<trkpt lat="40.0707433" lon="-105.2297574">
  <ele>1583.01</ele>
  <time>2026-08-28T17:49:51Z</time>
  <course>140.07</course>
  <speed>2.746434051638597</speed>
  <fix>3d</fix>
</trkpt>
<trkpt lat="40.0707479" lon="-105.2297619">
  <ele>1583.0</ele>
  <time>2026-08-28T17:49:51Z</time>
  <course>140.44</course>
  <speed>2.81</speed>
  <fix>3d</fix>
</trkpt>
<trkpt lat="40.0707414" lon="-105.2297553">
  <ele>1583.02</ele>
  <time>2026-08-28T17:49:51Z</time>
  <course>139.06</course>
  <speed>2.6998703672583986</speed>
  <fix>3d</fix>
</trkpt>
<trkpt lat="40.0707479" lon="-105.2297619">
  <ele>1583.0</ele>
  <time>2026-08-28T17:49:51Z</time>
  <course>140.44</course>
  <speed>2.81</speed>
  <fix>3d</fix>
</trkpt>
<trkpt lat="40.0707397" lon="-105.2297532">
  <ele>1583.02</ele>
  <time>2026-08-28T17:49:51Z</time>
  <course>137.76</course>
  <speed>2.646998299961675</speed>
  <fix>3d</fix>
</trkpt>
<trkpt lat="40.0707441" lon="-105.2297577">
  <ele>1583.0</ele>
  <time>2026-08-28T17:49:51Z</time>
  <course>139.14</course>
  <speed>2.74</speed>
  <fix>3d</fix>
</trkpt>
<trkpt lat="40.070738" lon="-105.229751">
  <ele>1583.02</ele>
  <time>2026-08-28T17:49:51Z</time>
  <course>136.14</course>
  <speed>2.5811818998280613</speed>
  <fix>3d</fix>
</trkpt>
<trkpt lat="40.0707405" lon="-105.2297536">
  <ele>1583.0</ele>
  <time>2026-08-28T17:49:51Z</time>
  <course>136.82</course>
  <speed>2.64</speed>
  <fix>3d</fix>
</trkpt>
<trkpt lat="40.0707365" lon="-105.2297489">
  <ele>1583.01</ele>
  <time>2026-08-28T17:49:51Z</time>
  <course>134.17</course>
  <speed>2.5179356624028344</speed>
  <fix>3d</fix>
</trkpt>
<trkpt lat="40.0707405" lon="-105.2297536">
  <ele>1583.0</ele>
  <time>2026-08-28T17:49:51Z</time>
  <course>136.82</course>
  <speed>2.64</speed>
  <fix>3d</fix>
</trkpt>
<trkpt lat="40.070735" lon="-105.2297467">
  <ele>1583.01</ele>
  <time>2026-08-28T17:49:51Z</time>
  <course>131.82</course>
  <speed>2.4374166652421168</speed>
  <fix>3d</fix>
</trkpt>
<trkpt lat="40.0707372" lon="-105.2297493">
  <ele>1583.0</ele>
  <time>2026-08-28T17:49:51Z</time>
  <course>133.24</course>
  <speed>2.51</speed>
  <fix>3d</fix>
</trkpt>
<trkpt lat="40.0707336" lon="-105.2297445">
  <ele>1583.01</ele>
  <time>2026-08-28T17:49:51Z</time>
  <course>129.02</course>
  <speed>2.356713813766958</speed>
  <fix>3d</fix>
</trkpt>
<trkpt lat="40.0707372" lon="-105.2297493">
  <ele>1583.0</ele>
  <time>2026-08-28T17:49:51Z</time>
  <course>133.24</course>
  <speed>2.51</speed>
  <fix>3d</fix>
</trkpt>
<trkpt lat="40.0707324" lon="-105.2297423">
  <ele>1583.01</ele>
  <time>2026-08-28T17:49:51Z</time>
  <course>125.83</course>
  <speed>2.2750164834567683</speed>
  <fix>3d</fix>
</trkpt>
<trkpt lat="40.0707343" lon="-105.229745">
  <ele>1583.0</ele>
  <time>2026-08-28T17:49:51Z</time>
  <course>128.12</course>
  <speed>2.35</speed>
  <fix>3d</fix>
</trkpt>
<trkpt lat="40.0707314" lon="-105.2297401">
  <ele>1583.0</ele>
  <time>2026-08-28T17:49:51Z</time>
  <course>122.43</course>
  <speed>2.1730393461693236</speed>
  <fix>3d</fix>
</trkpt>
<trkpt lat="40.0707343" lon="-105.229745">
  <ele>1583.0</ele>
  <time>2026-08-28T17:49:51Z</time>
  <course>128.12</course>
  <speed>2.35</speed>
  <fix>3d</fix>
</trkpt>
<trkpt lat="40.0707304" lon="-105.2297379">
  <ele>1583.0</ele>
  <time>2026-08-28T17:49:51Z</time>
  <course>118.82</course>
  <speed>2.0847062143141417</speed>
  <fix>3d</fix>
</trkpt>
<trkpt lat="40.0707319" lon="-105.2297406">
  <ele>1583.0</ele>
  <time>2026-08-28T17:49:51Z</time>
  <course>121.64</course>
  <speed>2.18</speed>
  <fix>3d</fix>
</trkpt>
<trkpt lat="40.0707297" lon="-105.2297357">
  <ele>1583.0</ele>
  <time>2026-08-28T17:49:51Z</time>
  <course>114.99</course>
  <speed>2.00124960961895</speed>
  <fix>3d</fix>
</trkpt>
<trkpt lat="40.0707319" lon="-105.2297406">
  <ele>1583.0</ele>
  <time>2026-08-28T17:49:51Z</time>
  <course>121.64</course>
  <speed>2.18</speed>
  <fix>3d</fix>
</trkpt>
<trkpt lat="40.070729" lon="-105.2297335">
  <ele>1583.0</ele>
  <time>2026-08-28T17:49:51Z</time>
  <course>111.04</course>
  <speed>1.9137659209004638</speed>
  <fix>3d</fix>
</trkpt>
<trkpt lat="40.0707302" lon="-105.2297363">
  <ele>1583.0</ele>
  <time>2026-08-28T17:49:51Z</time>
  <course>114.29</course>
  <speed>2.0</speed>
  <fix>3d</fix>
</trkpt>
<trkpt lat="40.0707286" lon="-105.2297314">
  <ele>1583.0</ele>
  <time>2026-08-28T17:49:51Z</time>
  <course>106.96</course>
  <speed>1.8269373278796401</speed>
  <fix>3d</fix>
</trkpt>
<trkpt lat="40.0707302" lon="-105.2297363">
  <ele>1583.0</ele>
  <time>2026-08-28T17:49:51Z</time>
  <course>114.29</course>
  <speed>2.0</speed>
  <fix>3d</fix>
</trkpt>
<trkpt lat="40.0707282" lon="-105.2297293">
  <ele>1583.0</ele>
  <time>2026-08-28T17:49:51Z</time>
  <course>102.8</course>
  <speed>1.7532826355154492</speed>
  <fix>3d</fix>
</trkpt>
<trkpt lat="40.070729" lon="-105.229732">
  <ele>1583.0</ele>
  <time>2026-08-28T17:49:51Z</time>
  <course>106.3</course>
  <speed>1.84</speed>
  <fix>3d</fix>
</trkpt>
<trkpt lat="40.070728" lon="-105.2297273">
  <ele>1583.01</ele>
  <time>2026-08-28T17:49:51Z</time>
  <course>98.61</course>
  <speed>1.691862878604528</speed>
  <fix>3d</fix>
</trkpt>
<trkpt lat="40.070729" lon="-105.229732">
  <ele>1583.0</ele>
  <time>2026-08-28T17:49:51Z</time>
  <course>106.3</course>
  <speed>1.84</speed>
  <fix>3d</fix>
</trkpt>
<trkpt lat="40.0707279" lon="-105.2297254">
  <ele>1583.01</ele>
  <time>2026-08-28T17:49:51Z</time>
  <course>94.43</course>
  <speed>1.6414932226482082</speed>
  <fix>3d</fix>
</trkpt>
<trkpt lat="40.0707283" lon="-105.229728">
  <ele>1583.0</ele>
  <time>2026-08-28T17:49:51Z</time>
  <course>97.96</course>
  <speed>1.7</speed>
  <fix>3d</fix>
</trkpt>
<trkpt lat="40.0707279" lon="-105.2297234">
  <ele>1583.01</ele>
  <time>2026-08-28T17:49:51Z</time>
  <course>90.32</course>
  <speed>1.6004999218994045</speed>
  <fix>3d</fix>
</trkpt>
<trkpt lat="40.0707283" lon="-105.229728">
  <ele>1583.0</ele>
  <time>2026-08-28T17:49:51Z</time>
  <course>97.96</course>
  <speed>1.7</speed>
  <fix>3d</fix>
</trkpt>
<trkpt lat="40.070728" lon="-105.2297216">
  <ele>1583.01</ele>
  <time>2026-08-28T17:49:51Z</time>
  <course>86.3</course>
  <speed>1.5771493271088823</speed>
  <fix>3d</fix>
</trkpt>
<trkpt lat="40.0707283" lon="-105.229728">
  <ele>1583.0</ele>
  <time>2026-08-28T17:49:51Z</time>
  <course>97.96</course>
  <speed>1.7</speed>
  <fix>3d</fix>
</trkpt>
<trkpt lat="40.0707283" lon="-105.2297198">
  <ele>1583.01</ele>
  <time>2026-08-28T17:49:51Z</time>
  <course>82.42</course>
  <speed>1.5716551784663197</speed>
  <fix>3d</fix>
</trkpt>
<trkpt lat="40.0707282" lon="-105.2297241">
  <ele>1583.0</ele>
  <time>2026-08-28T17:49:51Z</time>
  <course>89.64</course>
  <speed>1.61</speed>
  <fix>3d</fix>
</trkpt>
<trkpt lat="40.0707286" lon="-105.229718">
  <ele>1583.01</ele>
  <time>2026-08-28T17:49:51Z</time>
  <course>78.71</course>
  <speed>1.5717824276915684</speed>
  <fix>3d</fix>
</trkpt>
<trkpt lat="40.0707282" lon="-105.2297241">
  <ele>1583.0</ele>
  <time>2026-08-28T17:49:51Z</time>
  <course>89.64</course>
  <speed>1.61</speed>
  <fix>3d</fix>
</trkpt>
<trkpt lat="40.070729" lon="-105.2297162">
  <ele>1583.01</ele>
  <time>2026-08-28T17:49:51Z</time>
  <course>75.19</course>
  <speed>1.5880806024884253</speed>
  <fix>3d</fix>
</trkpt>
<trkpt lat="40.0707283" lon="-105.2297204">
  <ele>1583.0</ele>
  <time>2026-08-28T17:49:51Z</time>
  <course>81.69</course>
  <speed>1.57</speed>
  <fix>3d</fix>
</trkpt>
<trkpt lat="40.0707293" lon="-105.2297144">
  <ele>1583.01</ele>
  <time>2026-08-28T17:49:51Z</time>
  <course>71.86</course>
  <speed>1.6198765385053269</speed>
  <fix>3d</fix>
</trkpt>
<trkpt lat="40.0707283" lon="-105.2297204">
  <ele>1583.0</ele>
  <time>2026-08-28T17:49:51Z</time>
  <course>81.69</course>
  <speed>1.57</speed>
  <fix>3d</fix>
</trkpt>
<trkpt lat="40.0707299" lon="-105.2297126">
  <ele>1583.02</ele>
  <time>2026-08-28T17:49:51Z</time>
  <course>68.74</course>
  <speed>1.666283289239858</speed>
  <fix>3d</fix>
</trkpt>
<trkpt lat="40.0707289" lon="-105.2297168">
  <ele>1583.0</ele>
  <time>2026-08-28T17:49:51Z</time>
  <course>74.41</course>
  <speed>1.59</speed>
  <fix>3d</fix>
</trkpt>
<trkpt lat="40.0707305" lon="-105.2297108">
  <ele>1583.02</ele>
  <time>2026-08-28T17:49:51Z</time>
  <course>65.99</course>
  <speed>1.7262966141425407</speed>
  <fix>3d</fix>
</trkpt>
<trkpt lat="40.0707289" lon="-105.2297168">
  <ele>1583.0</ele>
  <time>2026-08-28T17:49:51Z</time>
  <course>74.41</course>
  <speed>1.59</speed>
  <fix>3d</fix>
</trkpt>
<trkpt lat="40.0707313" lon="-105.229709">
  <ele>1583.01</ele>
  <time>2026-08-28T17:49:51Z</time>
  <course>63.61</course>
  <speed>1.8076780686836913</speed>
  <fix>3d</fix>
</trkpt>
<trkpt lat="40.0707298" lon="-105.2297131">
  <ele>1583.0</ele>
  <time>2026-08-28T17:49:51Z</time>
  <course>68.01</course>
  <speed>1.67</speed>
  <fix>3d</fix>
</trkpt>
<trkpt lat="40.0707321" lon="-105.2297071">
  <ele>1583.02</ele>
  <time>2026-08-28T17:49:51Z</time>
  <course>61.62</course>
  <speed>1.8866372200293304</speed>
  <fix>3d</fix>
</trkpt>
<trkpt lat="40.0707311" lon="-105.2297095">
  <ele>1583.0</ele>
  <time>2026-08-28T17:49:51Z</time>
  <course>62.89</course>
  <speed>1.8</speed>
  <fix>3d</fix>
</trkpt>
<trkpt lat="40.070733" lon="-105.2297051">
  <ele>1583.02</ele>
  <time>2026-08-28T17:49:51Z</time>
  <course>59.97</course>
  <speed>1.981136037731887</speed>
  <fix>3d</fix>
</trkpt>
<trkpt lat="40.0707311" lon="-105.2297095">
  <ele>1583.0</ele>
  <time>2026-08-28T17:49:51Z</time>
  <course>62.89</course>
  <speed>1.8</speed>
  <fix>3d</fix>
</trkpt>
<trkpt lat="40.070734" lon="-105.2297031">
  <ele>1583.02</ele>
  <time>2026-08-28T17:49:51Z</time>
  <course>58.63</course>
  <speed>2.0885641000457706</speed>
  <fix>3d</fix>
</trkpt>
<trkpt lat="40.0707328" lon="-105.2297055">
  <ele>1583.0</ele>
  <time>2026-08-28T17:49:51Z</time>
  <course>59.23</course>
  <speed>1.98</speed>
  <fix>3d</fix>
</trkpt>
<trkpt lat="40.0707351" lon="-105.229701">
  <ele>1583.02</ele>
  <time>2026-08-28T17:49:51Z</time>
  <course>57.56</course>
  <speed>2.202271554554524</speed>
  <fix>3d</fix>
</trkpt>
<trkpt lat="40.0707328" lon="-105.2297055">
  <ele>1583.0</ele>
  <time>2026-08-28T17:49:51Z</time>
  <course>59.23</course>
  <speed>1.98</speed>
  <fix>3d</fix>
</trkpt>
<trkpt lat="40.0707362" lon="-105.2296988">
  <ele>1583.02</ele>
  <time>2026-08-28T17:49:51Z</time>
  <course>56.74</course>
  <speed>2.3192455669894034</speed>
  <fix>3d</fix>
</trkpt>
<trkpt lat="40.0707347" lon="-105.2297014">
  <ele>1583.0</ele>
  <time>2026-08-28T17:49:51Z</time>
  <course>56.8</course>
  <speed>2.2</speed>
  <fix>3d</fix>
</trkpt>
<trkpt lat="40.0707375" lon="-105.2296964">
  <ele>1583.02</ele>
  <time>2026-08-28T17:49:51Z</time>
  <course>56.15</course>
  <speed>2.44468811916776</speed>
  <fix>3d</fix>
</trkpt>
<trkpt lat="40.0707347" lon="-105.2297014">
  <ele>1583.0</ele>
  <time>2026-08-28T17:49:51Z</time>
  <course>56.8</course>
  <speed>2.2</speed>
  <fix>3d</fix>
</trkpt>
<trkpt lat="40.0707388" lon="-105.229694">
  <ele>1583.01</ele>
  <time>2026-08-28T17:49:51Z</time>
  <course>55.75</course>
  <speed>2.578410362994999</speed>
  <fix>3d</fix>
</trkpt>
<trkpt lat="40.0707371" lon="-105.2296969">
  <ele>1583.0</ele>
  <time>2026-08-28T17:49:51Z</time>
  <course>55.36</course>
  <speed>2.43</speed>
  <fix>3d</fix>
</trkpt>
<trkpt lat="40.0707402" lon="-105.2296914">
  <ele>1583.01</ele>
  <time>2026-08-28T17:49:51Z</time>
  <course>55.55</course>
  <speed>2.706325922722539</speed>
  <fix>3d</fix>
</trkpt>
<trkpt lat="40.0707371" lon="-105.2296969">
  <ele>1583.0</ele>
  <time>2026-08-28T17:49:51Z</time>
  <course>55.36</course>
  <speed>2.43</speed>
  <fix>3d</fix>
</trkpt>
<trkpt lat="40.0707417" lon="-105.2296887">
  <ele>1583.01</ele>
  <time>2026-08-28T17:49:51Z</time>
  <course>55.5</course>
  <speed>2.8364766877236978</speed>
  <fix>3d</fix>
</trkpt>
<trkpt lat="40.0707398" lon="-105.229692">
  <ele>1583.0</ele>
  <time>2026-08-28T17:49:51Z</time>
  <course>54.74</course>
  <speed>2.69</speed>
  <fix>3d</fix>
</trkpt>
<trkpt lat="40.0707432" lon="-105.2296859">
  <ele>1583.01</ele>
  <time>2026-08-28T17:49:51Z</time>
  <course>55.48</course>
  <speed>2.96438863848855</speed>
  <fix>3d</fix>
</trkpt>
<trkpt lat="40.0707398" lon="-105.229692">
  <ele>1583.0</ele>
  <time>2026-08-28T17:49:51Z</time>
  <course>54.74</course>
  <speed>2.69</speed>
  <fix>3d</fix>
</trkpt>
<trkpt lat="40.0707448" lon="-105.229683">
  <ele>1583.0</ele>
  <time>2026-08-28T17:49:51Z</time>
  <course>55.49</course>
  <speed>3.0945435850864986</speed>
  <fix>3d</fix>
</trkpt>
<trkpt lat="40.0707426" lon="-105.2296865">
  <ele>1583.0</ele>
  <time>2026-08-28T17:49:51Z</time>
  <course>54.6</course>
  <speed>2.95</speed>
  <fix>3d</fix>
</trkpt>
<trkpt lat="40.0707465" lon="-105.2296799">
  <ele>1583.0</ele>
  <time>2026-08-28T17:49:51Z</time>
  <course>55.5</course>
  <speed>3.224717041850339</speed>
  <fix>3d</fix>
</trkpt>
<trkpt lat="40.0707426" lon="-105.2296865">
  <ele>1583.0</ele>
  <time>2026-08-28T17:49:51Z</time>
  <course>54.6</course>
  <speed>2.95</speed>
  <fix>3d</fix>
</trkpt>
<trkpt lat="40.0707482" lon="-105.2296767">
  <ele>1583.0</ele>
  <time>2026-08-28T17:49:51Z</time>
  <course>55.51</course>
  <speed>3.352610922848042</speed>
  <fix>3d</fix>
</trkpt>
<trkpt lat="40.0707426" lon="-105.2296865">
  <ele>1583.0</ele>
  <time>2026-08-28T17:49:51Z</time>
  <course>54.6</course>
  <speed>2.95</speed>
  <fix>3d</fix>
</trkpt>
<trkpt lat="40.07075" lon="-105.2296734">
  <ele>1583.0</ele>
  <time>2026-08-28T17:49:51Z</time>
  <course>55.52</course>
  <speed>3.482786240928375</speed>
  <fix>3d</fix>
</trkpt>
<trkpt lat="40.0707459" lon="-105.2296806">
  <ele>1583.0</ele>
  <time>2026-08-28T17:49:51Z</time>
  <course>54.59</course>
  <speed>3.2</speed>
  <fix>3d</fix>
</trkpt>
<trkpt lat="40.0707518" lon="-105.22967">
  <ele>1583.0</ele>
  <time>2026-08-28T17:49:51Z</time>
  <course>55.52</course>
  <speed>3.5990276464623054</speed>
  <fix>3d</fix>
</trkpt>
<trkpt lat="40.0707459" lon="-105.2296806">
  <ele>1583.0</ele>
  <time>2026-08-28T17:49:51Z</time>
  <course>54.59</course>
  <speed>3.2</speed>
  <fix>3d</fix>
</trkpt>
<trkpt lat="40.0707537" lon="-105.2296665">
  <ele>1583.0</ele>
  <time>2026-08-28T17:49:51Z</time>
  <course>55.52</course>
  <speed>3.7210885504110216</speed>
  <fix>3d</fix>
</trkpt>
<trkpt lat="40.0707493" lon="-105.2296743">
  <ele>1583.0</ele>
  <time>2026-08-28T17:49:51Z</time>
  <course>54.59</course>
  <speed>3.46</speed>
  <fix>3d</fix>
</trkpt>
<trkpt lat="40.0707557" lon="-105.2296629">
  <ele>1583.0</ele>
  <time>2026-08-28T17:49:51Z</time>
  <course>55.52</course>
  <speed>3.829203572546124</speed>
  <fix>3d</fix>
</trkpt>
<trkpt lat="40.0707493" lon="-105.2296743">
  <ele>1583.0</ele>
  <time>2026-08-28T17:49:51Z</time>
  <course>54.59</course>
  <speed>3.46</speed>
  <fix>3d</fix>
</trkpt>
<trkpt lat="40.0707577" lon="-105.2296592">
  <ele>1582.99</ele>
  <time>2026-08-28T17:49:51Z</time>
  <course>55.52</course>
  <speed>3.9431205916126886</speed>
  <fix>3d</fix>
</trkpt>
<trkpt lat="40.0707531" lon="-105.2296674">
  <ele>1583.0</ele>
  <time>2026-08-28T17:49:51Z</time>
  <course>54.59</course>
  <speed>3.7</speed>
  <fix>3d</fix>
</trkpt>
<trkpt lat="40.0707597" lon="-105.2296554">
  <ele>1582.99</ele>
  <time>2026-08-28T17:49:51Z</time>
  <course>55.52</course>
  <speed>4.037288694160971</speed>
  <fix>3d</fix>
</trkpt>
<trkpt lat="40.0707531" lon="-105.2296674">
  <ele>1583.0</ele>
  <time>2026-08-28T17:49:51Z</time>
  <course>54.59</course>
  <speed>3.7</speed>
  <fix>3d</fix>
</trkpt>
<trkpt lat="40.0707618" lon="-105.2296515">
  <ele>1582.99</ele>
  <time>2026-08-28T17:49:51Z</time>
  <course>55.52</course>
  <speed>4.131464631338383</speed>
  <fix>3d</fix>
</trkpt>
<trkpt lat="40.070757" lon="-105.2296601">
  <ele>1583.0</ele>
  <time>2026-08-28T17:49:51Z</time>
  <course>54.59</course>
  <speed>3.92</speed>
  <fix>3d</fix>
</trkpt>
<trkpt lat="40.070764" lon="-105.2296475">
  <ele>1582.99</ele>
  <time>2026-08-28T17:49:51Z</time>
  <course>55.52</course>
  <speed>4.209334864322391</speed>
  <fix>3d</fix>
</trkpt>
<trkpt lat="40.0707612" lon="-105.2296524">
  <ele>1583.0</ele>
  <time>2026-08-28T17:49:51Z</time>
  <course>54.59</course>
  <speed>4.11</speed>
  <fix>3d</fix>
</trkpt>
<trkpt lat="40.0707662" lon="-105.2296434">
  <ele>1582.99</ele>
  <time>2026-08-28T17:49:51Z</time>
  <course>55.53</course>
  <speed>4.281413318052813</speed>
  <fix>3d</fix>
</trkpt>
<trkpt lat="40.0707612" lon="-105.2296524">
  <ele>1583.0</ele>
  <time>2026-08-28T17:49:51Z</time>
  <course>54.59</course>
  <speed>4.11</speed>
  <fix>3d</fix>
</trkpt>
<trkpt lat="40.0707684" lon="-105.2296393">
  <ele>1582.99</ele>
  <time>2026-08-28T17:49:51Z</time>
  <course>55.53</course>
  <speed>4.339550667983956</speed>
  <fix>3d</fix>
</trkpt>
<trkpt lat="40.0707656" lon="-105.2296444">
  <ele>1583.0</ele>
  <time>2026-08-28T17:49:51Z</time>
  <course>54.59</course>
  <speed>4.27</speed>
  <fix>3d</fix>
</trkpt>
<trkpt lat="40.0707707" lon="-105.229635">
  <ele>1582.99</ele>
  <time>2026-08-28T17:49:51Z</time>
  <course>55.53</course>
  <speed>4.38953300477397</speed>
  <fix>3d</fix>
</trkpt>
<trkpt lat="40.0707656" lon="-105.2296444">
  <ele>1583.0</ele>
  <time>2026-08-28T17:49:51Z</time>
  <course>54.59</course>
  <speed>4.27</speed>
  <fix>3d</fix>
</trkpt>
<trkpt lat="40.070773" lon="-105.2296308">
  <ele>1582.99</ele>
  <time>2026-08-28T17:49:51Z</time>
  <course>55.54</course>
  <speed>4.425573409175358</speed>
  <fix>3d</fix>
</trkpt>
<trkpt lat="40.0707701" lon="-105.229636">
  <ele>1583.0</ele>
  <time>2026-08-28T17:49:51Z</time>
  <course>54.59</course>
  <speed>4.37</speed>
  <fix>3d</fix>
</trkpt>
<trkpt lat="40.0707754" lon="-105.2296265">
  <ele>1583.0</ele>
  <time>2026-08-28T17:49:51Z</time>
  <course>55.54</course>
  <speed>4.447673549171522</speed>
  <fix>3d</fix>
</trkpt>
<trkpt lat="40.0707701" lon="-105.229636">
  <ele>1583.0</ele>
  <time>2026-08-28T17:49:51Z</time>
  <course>54.59</course>
  <speed>4.37</speed>
  <fix>3d</fix>
</trkpt>
<trkpt lat="40.0707777" lon="-105.2296222">
  <ele>1583.0</ele>
  <time>2026-08-28T17:49:51Z</time>
  <course>55.55</course>
  <speed>4.461614057714987</speed>
  <fix>3d</fix>
</trkpt>
<trkpt lat="40.0707747" lon="-105.2296277">
  <ele>1583.0</ele>
  <time>2026-08-28T17:49:51Z</time>
  <course>54.59</course>
  <speed>4.43</speed>
  <fix>3d</fix>
</trkpt>
<trkpt lat="40.07078" lon="-105.2296178">
  <ele>1583.0</ele>
  <time>2026-08-28T17:49:51Z</time>
  <course>55.55</course>
  <speed>4.447673549171522</speed>
  <fix>3d</fix>
</trkpt>
<trkpt lat="40.0707747" lon="-105.2296277">
  <ele>1583.0</ele>
  <time>2026-08-28T17:49:51Z</time>
  <course>54.59</course>
  <speed>4.43</speed>
  <fix>3d</fix>
</trkpt>
<trkpt lat="40.0707824" lon="-105.2296135">
  <ele>1583.0</ele>
  <time>2026-08-28T17:49:51Z</time>
  <course>55.55</course>
  <speed>4.433734317705561</speed>
  <fix>3d</fix>
</trkpt>
<trkpt lat="40.0707793" lon="-105.2296192">
  <ele>1583.0</ele>
  <time>2026-08-28T17:49:51Z</time>
  <course>54.59</course>
  <speed>4.43</speed>
  <fix>3d</fix>
</trkpt>
<trkpt lat="40.0707847" lon="-105.2296093">
  <ele>1582.99</ele>
  <time>2026-08-28T17:49:51Z</time>
  <course>55.55</course>
  <speed>4.40347589978644</speed>
  <fix>3d</fix>
</trkpt>
<trkpt lat="40.0707793" lon="-105.2296192">
  <ele>1583.0</ele>
  <time>2026-08-28T17:49:51Z</time>
  <course>54.59</course>
  <speed>4.43</speed>
  <fix>3d</fix>
</trkpt>
<trkpt lat="40.070787" lon="-105.2296051">
  <ele>1582.99</ele>
  <time>2026-08-28T17:49:51Z</time>
  <course>55.56</course>
  <speed>4.361651063530874</speed>
  <fix>3d</fix>
</trkpt>
<trkpt lat="40.0707839" lon="-105.2296107">
  <ele>1583.0</ele>
  <time>2026-08-28T17:49:51Z</time>
  <course>54.59</course>
  <speed>4.39</speed>
  <fix>3d</fix>
</trkpt>
<trkpt lat="40.0707892" lon="-105.2296009">
  <ele>1582.99</ele>
  <time>2026-08-28T17:49:51Z</time>
  <course>55.56</course>
  <speed>4.303510195177886</speed>
  <fix>3d</fix>
</trkpt>
<trkpt lat="40.0707839" lon="-105.2296107">
  <ele>1583.0</ele>
  <time>2026-08-28T17:49:51Z</time>
  <course>54.59</course>
  <speed>4.39</speed>
  <fix>3d</fix>
</trkpt>
<trkpt lat="40.0707915" lon="-105.2295968">
  <ele>1582.99</ele>
  <time>2026-08-28T17:49:51Z</time>
  <course>55.58</course>
  <speed>4.231430018327138</speed>
  <fix>3d</fix>
</trkpt>
<trkpt lat="40.0707884" lon="-105.2296023">
  <ele>1583.0</ele>
  <time>2026-08-28T17:49:51Z</time>
  <course>54.6</course>
  <speed>4.29</speed>
  <fix>3d</fix>
</trkpt>
<trkpt lat="40.0707936" lon="-105.2295928">
  <ele>1582.99</ele>
  <time>2026-08-28T17:49:51Z</time>
  <course>55.64</course>
  <speed>4.15356473405676</speed>
  <fix>3d</fix>
</trkpt>
<trkpt lat="40.0707884" lon="-105.2296023">
  <ele>1583.0</ele>
  <time>2026-08-28T17:49:51Z</time>
  <course>54.6</course>
  <speed>4.29</speed>
  <fix>3d</fix>
</trkpt>
<trkpt lat="40.0707958" lon="-105.2295888">
  <ele>1582.99</ele>
  <time>2026-08-28T17:49:51Z</time>
  <course>55.7</course>
  <speed>4.075708527360611</speed>
  <fix>3d</fix>
</trkpt>
<trkpt lat="40.0707884" lon="-105.2296023">
  <ele>1583.0</ele>
  <time>2026-08-28T17:49:51Z</time>
  <course>54.6</course>
  <speed>4.29</speed>
  <fix>3d</fix>
</trkpt>
<trkpt lat="40.0707979" lon="-105.229585">
  <ele>1582.99</ele>
  <time>2026-08-28T17:49:51Z</time>
  <course>55.76</course>
  <speed>3.9815198103236913</speed>
  <fix>3d</fix>
</trkpt>
<trkpt lat="40.0707928" lon="-105.2295943">
  <ele>1583.0</ele>
  <time>2026-08-28T17:49:51Z</time>
  <course>54.67</course>
  <speed>4.15</speed>
  <fix>3d</fix>
</trkpt>
<trkpt lat="40.0707999" lon="-105.2295812">
  <ele>1582.98</ele>
  <time>2026-08-28T17:49:51Z</time>
  <course>55.83</course>
  <speed>3.889730067755345</speed>
  <fix>3d</fix>
</trkpt>
<trkpt lat="40.0707928" lon="-105.2295943">
  <ele>1583.0</ele>
  <time>2026-08-28T17:49:51Z</time>
  <course>54.67</course>
  <speed>4.15</speed>
  <fix>3d</fix>
</trkpt>
<trkpt lat="40.0708018" lon="-105.2295776">
  <ele>1582.98</ele>
  <time>2026-08-28T17:49:51Z</time>
  <course>55.94</course>
  <speed>3.789775718957522</speed>
  <fix>3d</fix>
</trkpt>
<trkpt lat="40.070797" lon="-105.2295865">
  <ele>1583.0</ele>
  <time>2026-08-28T17:49:51Z</time>
  <course>54.79</course>
  <speed>3.98</speed>
  <fix>3d</fix>
</trkpt>
<trkpt lat="40.0708037" lon="-105.2295741">
  <ele>1582.99</ele>
  <time>2026-08-28T17:49:51Z</time>
  <course>56.04</course>
  <speed>3.6980129799664034</speed>
  <fix>3d</fix>
</trkpt>
<trkpt lat="40.070797" lon="-105.2295865">
  <ele>1583.0</ele>
  <time>2026-08-28T17:49:51Z</time>
  <course>54.79</course>
  <speed>3.98</speed>
  <fix>3d</fix>
</trkpt>
<trkpt lat="40.0708056" lon="-105.2295706">
  <ele>1582.99</ele>
  <time>2026-08-28T17:49:51Z</time>
  <course>56.15</course>
  <speed>3.6119939091864484</speed>
  <fix>3d</fix>
</trkpt>
<trkpt lat="40.0708011" lon="-105.229579">
  <ele>1583.0</ele>
  <time>2026-08-28T17:49:51Z</time>
  <course>54.95</course>
  <speed>3.8</speed>
  <fix>3d</fix>
</trkpt>
<trkpt lat="40.0708074" lon="-105.2295672">
  <ele>1582.99</ele>
  <time>2026-08-28T17:49:51Z</time>
  <course>56.28</course>
  <speed>3.534176000144871</speed>
  <fix>3d</fix>
</trkpt>
<trkpt lat="40.0708049" lon="-105.2295719">
  <ele>1583.0</ele>
  <time>2026-08-28T17:49:51Z</time>
  <course>55.18</course>
  <speed>3.63</speed>
  <fix>3d</fix>
</trkpt>
<trkpt lat="40.0708092" lon="-105.2295638">
  <ele>1583.0</ele>
  <time>2026-08-28T17:49:51Z</time>
  <course>56.41</course>
  <speed>3.456370929168338</speed>
  <fix>3d</fix>
</trkpt>
<trkpt lat="40.0708049" lon="-105.2295719">
  <ele>1583.0</ele>
  <time>2026-08-28T17:49:51Z</time>
  <course>55.18</course>
  <speed>3.63</speed>
  <fix>3d</fix>
</trkpt>
<trkpt lat="40.0708109" lon="-105.2295605">
  <ele>1583.0</ele>
  <time>2026-08-28T17:49:51Z</time>
  <course>56.55</course>
  <speed>3.400720511891561</speed>
  <fix>3d</fix>
</trkpt>
<trkpt lat="40.0708086" lon="-105.2295649">
  <ele>1583.0</ele>
  <time>2026-08-28T17:49:51Z</time>
  <course>55.43</course>
  <speed>3.49</speed>
  <fix>3d</fix>
</trkpt>
<trkpt lat="40.0708126" lon="-105.2295573">
  <ele>1582.99</ele>
  <time>2026-08-28T17:49:51Z</time>
  <course>56.67</course>
  <speed>3.345100895339332</speed>
  <fix>3d</fix>
</trkpt>
<trkpt lat="40.0708086" lon="-105.2295649">
  <ele>1583.0</ele>
  <time>2026-08-28T17:49:51Z</time>
  <course>55.43</course>
  <speed>3.49</speed>
  <fix>3d</fix>
</trkpt>
<trkpt lat="40.0708143" lon="-105.2295541">
  <ele>1583.0</ele>
  <time>2026-08-28T17:49:51Z</time>
  <course>56.79</course>
  <speed>3.303407331831786</speed>
  <fix>3d</fix>
</trkpt>
<trkpt lat="40.0708121" lon="-105.2295583">
  <ele>1583.0</ele>
  <time>2026-08-28T17:49:51Z</time>
  <course>55.68</course>
  <speed>3.39</speed>
  <fix>3d</fix>
</trkpt>
<trkpt lat="40.070816" lon="-105.2295509">
  <ele>1582.99</ele>
  <time>2026-08-28T17:49:51Z</time>
  <course>56.92</course>
  <speed>3.2756220783234444</speed>
  <fix>3d</fix>
</trkpt>
<trkpt lat="40.0708121" lon="-105.2295583">
  <ele>1583.0</ele>
  <time>2026-08-28T17:49:51Z</time>
  <course>55.68</course>
  <speed>3.39</speed>
  <fix>3d</fix>
</trkpt>
<trkpt lat="40.0708176" lon="-105.2295477">
  <ele>1582.99</ele>
  <time>2026-08-28T17:49:51Z</time>
  <course>57.04</course>
  <speed>3.2561326754295496</speed>
  <fix>3d</fix>
</trkpt>
<trkpt lat="40.0708154" lon="-105.2295518">
  <ele>1583.0</ele>
  <time>2026-08-28T17:49:51Z</time>
  <course>55.93</course>
  <speed>3.32</speed>
  <fix>3d</fix>
</trkpt>
<trkpt lat="40.0708193" lon="-105.2295444">
  <ele>1582.99</ele>
  <time>2026-08-28T17:49:51Z</time>
  <course>57.14</course>
  <speed>3.2422523035692334</speed>
  <fix>3d</fix>
</trkpt>
<trkpt lat="40.0708154" lon="-105.2295518">
  <ele>1583.0</ele>
  <time>2026-08-28T17:49:51Z</time>
  <course>55.93</course>
  <speed>3.32</speed>
  <fix>3d</fix>
</trkpt>
<trkpt lat="40.0708209" lon="-105.2295413">
  <ele>1582.99</ele>
  <time>2026-08-28T17:49:51Z</time>
  <course>57.25</course>
  <speed>3.236680398185771</speed>
  <fix>3d</fix>
</trkpt>
<trkpt lat="40.0708188" lon="-105.2295454">
  <ele>1583.0</ele>
  <time>2026-08-28T17:49:51Z</time>
  <course>56.17</course>
  <speed>3.28</speed>
  <fix>3d</fix>
</trkpt>
<trkpt lat="40.0708225" lon="-105.2295381">
  <ele>1583.0</ele>
  <time>2026-08-28T17:49:51Z</time>
  <course>57.35</course>
  <speed>3.2311298333555087</speed>
  <fix>3d</fix>
</trkpt>
<trkpt lat="40.0708188" lon="-105.2295454">
  <ele>1583.0</ele>
  <time>2026-08-28T17:49:51Z</time>
  <course>56.17</course>
  <speed>3.28</speed>
  <fix>3d</fix>
</trkpt>
<trkpt lat="40.0708241" lon="-105.2295349">
  <ele>1583.0</ele>
  <time>2026-08-28T17:49:51Z</time>
  <course>57.45</course>
  <speed>3.2394598315151244</speed>
  <fix>3d</fix>
</trkpt>
<trkpt lat="40.070822" lon="-105.2295389">
  <ele>1583.0</ele>
  <time>2026-08-28T17:49:51Z</time>
  <course>56.38</course>
  <speed>3.28</speed>
  <fix>3d</fix>
</trkpt>
<trkpt lat="40.0708258" lon="-105.2295316">
  <ele>1583.0</ele>
  <time>2026-08-28T17:49:51Z</time>
  <course>57.54</course>
  <speed>3.247799254880141</speed>
  <fix>3d</fix>
</trkpt>
<trkpt lat="40.070822" lon="-105.2295389">
  <ele>1583.0</ele>
  <time>2026-08-28T17:49:51Z</time>
  <course>56.38</course>
  <speed>3.28</speed>
  <fix>3d</fix>
</trkpt>
<trkpt lat="40.0708274" lon="-105.2295284">
  <ele>1583.01</ele>
  <time>2026-08-28T17:49:51Z</time>
  <course>57.63</course>
  <speed>3.2645060882161028</speed>
  <fix>3d</fix>
</trkpt>
<trkpt lat="40.0708253" lon="-105.2295325">
  <ele>1583.0</ele>
  <time>2026-08-28T17:49:51Z</time>
  <course>56.58</course>
  <speed>3.29</speed>
  <fix>3d</fix>
</trkpt>
<trkpt lat="40.070829" lon="-105.2295251">
  <ele>1583.01</ele>
  <time>2026-08-28T17:49:51Z</time>
  <course>57.72</course>
  <speed>3.286715685908959</speed>
  <fix>3d</fix>
</trkpt>
<trkpt lat="40.0708253" lon="-105.2295325">
  <ele>1583.0</ele>
  <time>2026-08-28T17:49:51Z</time>
  <course>56.58</course>
  <speed>3.29</speed>
  <fix>3d</fix>
</trkpt>
<trkpt lat="40.0708306" lon="-105.2295219">
  <ele>1583.01</ele>
  <time>2026-08-28T17:49:51Z</time>
  <course>57.8</course>
  <speed>3.3034678748248787</speed>
  <fix>3d</fix>
</trkpt>
<trkpt lat="40.0708253" lon="-105.2295325">
  <ele>1583.0</ele>
  <time>2026-08-28T17:49:51Z</time>
  <course>56.58</course>
  <speed>3.29</speed>
  <fix>3d</fix>
</trkpt>
<trkpt lat="40.0708323" lon="-105.2295186">
  <ele>1583.01</ele>
  <time>2026-08-28T17:49:51Z</time>
  <course>57.89</course>
  <speed>3.325687898766209</speed>
  <fix>3d</fix>
</trkpt>
<trkpt lat="40.0708286" lon="-105.229526">
  <ele>1583.0</ele>
  <time>2026-08-28T17:49:51Z</time>
  <course>56.77</course>
  <speed>3.33</speed>
  <fix>3d</fix>
</trkpt>
<trkpt lat="40.0708339" lon="-105.2295153">
  <ele>1583.01</ele>
  <time>2026-08-28T17:49:51Z</time>
  <course>57.98</course>
  <speed>3.3424841061701405</speed>
  <fix>3d</fix>
</trkpt>
<trkpt lat="40.0708286" lon="-105.229526">
  <ele>1583.0</ele>
  <time>2026-08-28T17:49:51Z</time>
  <course>56.77</course>
  <speed>3.33</speed>
  <fix>3d</fix>
</trkpt>
<trkpt lat="40.0708355" lon="-105.2295119">
  <ele>1583.01</ele>
  <time>2026-08-28T17:49:51Z</time>
  <course>58.07</course>
  <speed>3.3647139551528</speed>
  <fix>3d</fix>
</trkpt>
<trkpt lat="40.0708319" lon="-105.2295194">
  <ele>1583.0</ele>
  <time>2026-08-28T17:49:51Z</time>
  <course>56.95</course>
  <speed>3.37</speed>
  <fix>3d</fix>
</trkpt>
<trkpt lat="40.0708372" lon="-105.2295086">
  <ele>1583.01</ele>
  <time>2026-08-28T17:49:51Z</time>
  <course>58.17</course>
  <speed>3.395364487061735</speed>
  <fix>3d</fix>
</trkpt>
<trkpt lat="40.0708319" lon="-105.2295194">
  <ele>1583.0</ele>
  <time>2026-08-28T17:49:51Z</time>
  <course>56.95</course>
  <speed>3.37</speed>
  <fix>3d</fix>
</trkpt>
<trkpt lat="40.0708388" lon="-105.2295052">
  <ele>1583.02</ele>
  <time>2026-08-28T17:49:51Z</time>
  <course>58.26</course>
  <speed>3.412228011138763</speed>
  <fix>3d</fix>
</trkpt>
<trkpt lat="40.0708352" lon="-105.2295127">
  <ele>1583.0</ele>
  <time>2026-08-28T17:49:51Z</time>
  <course>57.13</course>
  <speed>3.41</speed>
  <fix>3d</fix>
</trkpt>
<trkpt lat="40.0708405" lon="-105.2295018">
  <ele>1583.02</ele>
  <time>2026-08-28T17:49:51Z</time>
  <course>58.35</course>
  <speed>3.434472302989209</speed>
  <fix>3d</fix>
</trkpt>
<trkpt lat="40.0708352" lon="-105.2295127">
  <ele>1583.0</ele>
  <time>2026-08-28T17:49:51Z</time>
  <course>57.13</course>
  <speed>3.41</speed>
  <fix>3d</fix>
</trkpt>
<trkpt lat="40.0708422" lon="-105.2294984">
  <ele>1583.02</ele>
  <time>2026-08-28T17:49:51Z</time>
  <course>58.45</course>
  <speed>3.451376536977674</speed>
  <fix>3d</fix>
</trkpt>
<trkpt lat="40.0708386" lon="-105.2295059">
  <ele>1583.0</ele>
  <time>2026-08-28T17:49:51Z</time>
  <course>57.32</course>
  <speed>3.46</speed>
  <fix>3d</fix>
</trkpt>
<trkpt lat="40.0708439" lon="-105.2294949">
  <ele>1583.02</ele>
  <time>2026-08-28T17:49:51Z</time>
  <course>58.54</course>
  <speed>3.4736292260401083</speed>
  <fix>3d</fix>
</trkpt>
<trkpt lat="40.0708419" lon="-105.229499">
  <ele>1583.0</ele>
  <time>2026-08-28T17:49:51Z</time>
  <course>57.51</course>
  <speed>3.51</speed>
  <fix>3d</fix>
</trkpt>
<trkpt lat="40.0708455" lon="-105.2294914">
  <ele>1583.02</ele>
  <time>2026-08-28T17:49:51Z</time>
  <course>58.63</course>
  <speed>3.490573018860944</speed>
  <fix>3d</fix>
</trkpt>
<trkpt lat="40.0708419" lon="-105.229499">
  <ele>1583.0</ele>
  <time>2026-08-28T17:49:51Z</time>
  <course>57.51</course>
  <speed>3.51</speed>
  <fix>3d</fix>
</trkpt>
<trkpt lat="40.0708472" lon="-105.2294879">
  <ele>1583.02</ele>
  <time>2026-08-28T17:49:51Z</time>
  <course>58.73</course>
  <speed>3.512833614050059</speed>
  <fix>3d</fix>
</trkpt>
<trkpt lat="40.0708453" lon="-105.229492">
  <ele>1583.0</ele>
  <time>2026-08-28T17:49:51Z</time>
  <course>57.7</course>
  <speed>3.55</speed>
  <fix>3d</fix>
</trkpt>
<trkpt lat="40.0708489" lon="-105.2294843">
  <ele>1583.03</ele>
  <time>2026-08-28T17:49:51Z</time>
  <course>58.82</course>
  <speed>3.5298158592198545</speed>
  <fix>3d</fix>
</trkpt>
<trkpt lat="40.0708453" lon="-105.229492">
  <ele>1583.0</ele>
  <time>2026-08-28T17:49:51Z</time>
  <course>57.7</course>
  <speed>3.55</speed>
  <fix>3d</fix>
</trkpt>
<trkpt lat="40.0708506" lon="-105.2294807">
  <ele>1583.03</ele>
  <time>2026-08-28T17:49:51Z</time>
  <course>58.91</course>
  <speed>3.5468295701936396</speed>
  <fix>3d</fix>
</trkpt>
<trkpt lat="40.0708488" lon="-105.2294849">
  <ele>1583.0</ele>
  <time>2026-08-28T17:49:51Z</time>
  <course>57.89</course>
  <speed>3.58</speed>
  <fix>3d</fix>
</trkpt>
<trkpt lat="40.0708524" lon="-105.2294771">
  <ele>1583.03</ele>
  <time>2026-08-28T17:49:51Z</time>
  <course>59.0</course>
  <speed>3.5553480842246654</speed>
  <fix>3d</fix>
</trkpt>
<trkpt lat="40.0708488" lon="-105.2294849">
  <ele>1583.0</ele>
  <time>2026-08-28T17:49:51Z</time>
  <course>57.89</course>
  <speed>3.58</speed>
  <fix>3d</fix>
</trkpt>
<trkpt lat="40.0708541" lon="-105.2294734">
  <ele>1583.03</ele>
  <time>2026-08-28T17:49:51Z</time>
  <course>59.1</course>
  <speed>3.563874296324156</speed>
  <fix>3d</fix>
</trkpt>
<trkpt lat="40.0708522" lon="-105.2294778">
  <ele>1583.0</ele>
  <time>2026-08-28T17:49:51Z</time>
  <course>58.09</course>
  <speed>3.6</speed>
  <fix>3d</fix>
</trkpt>
<trkpt lat="40.0708558" lon="-105.2294697">
  <ele>1583.03</ele>
  <time>2026-08-28T17:49:51Z</time>
  <course>59.19</course>
  <speed>3.572408151373524</speed>
  <fix>3d</fix>
</trkpt>
<trkpt lat="40.0708522" lon="-105.2294778">
  <ele>1583.0</ele>
  <time>2026-08-28T17:49:51Z</time>
  <course>58.09</course>
  <speed>3.6</speed>
  <fix>3d</fix>
</trkpt>
<trkpt lat="40.0708575" lon="-105.2294661">
  <ele>1583.03</ele>
  <time>2026-08-28T17:49:51Z</time>
  <course>59.24</course>
  <speed>3.5809495947304257</speed>
  <fix>3d</fix>
</trkpt>
<trkpt lat="40.0708556" lon="-105.2294706">
  <ele>1583.0</ele>
  <time>2026-08-28T17:49:51Z</time>
  <course>58.26</course>
  <speed>3.62</speed>
  <fix>3d</fix>
</trkpt>
<trkpt lat="40.0708593" lon="-105.2294624">
  <ele>1583.03</ele>
  <time>2026-08-28T17:49:51Z</time>
  <course>59.29</course>
  <speed>3.5809495947304257</speed>
  <fix>3d</fix>
</trkpt>
<trkpt lat="40.0708556" lon="-105.2294706">
  <ele>1583.0</ele>
  <time>2026-08-28T17:49:51Z</time>
  <course>58.26</course>
  <speed>3.62</speed>
  <fix>3d</fix>
</trkpt>
<trkpt lat="40.070861" lon="-105.2294588">
  <ele>1583.03</ele>
  <time>2026-08-28T17:49:51Z</time>
  <course>59.33</course>
  <speed>3.5757656522764467</speed>
  <fix>3d</fix>
</trkpt>
<trkpt lat="40.070859" lon="-105.2294633">
  <ele>1583.0</ele>
  <time>2026-08-28T17:49:51Z</time>
  <course>58.38</course>
  <speed>3.62</speed>
  <fix>3d</fix>
</trkpt>
<trkpt lat="40.0708627" lon="-105.2294551">
  <ele>1583.03</ele>
  <time>2026-08-28T17:49:51Z</time>
  <course>59.38</course>
  <speed>3.5757656522764467</speed>
  <fix>3d</fix>
</trkpt>
<trkpt lat="40.070859" lon="-105.2294633">
  <ele>1583.0</ele>
  <time>2026-08-28T17:49:51Z</time>
  <course>58.38</course>
  <speed>3.62</speed>
  <fix>3d</fix>
</trkpt>
<trkpt lat="40.0708644" lon="-105.2294515">
  <ele>1583.03</ele>
  <time>2026-08-28T17:49:51Z</time>
  <course>59.43</course>
  <speed>3.5757656522764467</speed>
  <fix>3d</fix>
</trkpt>
<trkpt lat="40.0708623" lon="-105.229456">
  <ele>1583.0</ele>
  <time>2026-08-28T17:49:51Z</time>
  <course>58.48</course>
  <speed>3.62</speed>
  <fix>3d</fix>
</trkpt>
<trkpt lat="40.0708661" lon="-105.2294478">
  <ele>1583.03</ele>
  <time>2026-08-28T17:49:51Z</time>
  <course>59.48</course>
  <speed>3.570602190107434</speed>
  <fix>3d</fix>
</trkpt>
<trkpt lat="40.0708623" lon="-105.229456">
  <ele>1583.0</ele>
  <time>2026-08-28T17:49:51Z</time>
  <course>58.48</course>
  <speed>3.62</speed>
  <fix>3d</fix>
</trkpt>
<trkpt lat="40.0708678" lon="-105.2294442">
  <ele>1583.03</ele>
  <time>2026-08-28T17:49:51Z</time>
  <course>59.48</course>
  <speed>3.570602190107434</speed>
  <fix>3d</fix>
</trkpt>
<trkpt lat="40.0708623" lon="-105.229456">
  <ele>1583.0</ele>
  <time>2026-08-28T17:49:51Z</time>
  <course>58.48</course>
  <speed>3.62</speed>
  <fix>3d</fix>
</trkpt>
<trkpt lat="40.0708694" lon="-105.2294406">
  <ele>1583.03</ele>
  <time>2026-08-28T17:49:51Z</time>
  <course>59.51</course>
  <speed>3.5568806558556334</speed>
  <fix>3d</fix>
</trkpt>
<trkpt lat="40.0708658" lon="-105.2294488">
  <ele>1583.0</ele>
  <time>2026-08-28T17:49:51Z</time>
  <course>58.56</course>
  <speed>3.61</speed>
  <fix>3d</fix>
</trkpt>
<trkpt lat="40.0708711" lon="-105.229437">
  <ele>1583.03</ele>
  <time>2026-08-28T17:49:51Z</time>
  <course>59.56</course>
  <speed>3.543162429243119</speed>
  <fix>3d</fix>
</trkpt>
<trkpt lat="40.0708658" lon="-105.2294488">
  <ele>1583.0</ele>
  <time>2026-08-28T17:49:51Z</time>
  <course>58.56</course>
  <speed>3.61</speed>
  <fix>3d</fix>
</trkpt>
<trkpt lat="40.0708728" lon="-105.2294334">
  <ele>1583.03</ele>
  <time>2026-08-28T17:49:51Z</time>
  <course>59.61</course>
  <speed>3.543162429243119</speed>
  <fix>3d</fix>
</trkpt>
<trkpt lat="40.0708692" lon="-105.2294416">
  <ele>1583.0</ele>
  <time>2026-08-28T17:49:51Z</time>
  <course>58.62</course>
  <speed>3.59</speed>
  <fix>3d</fix>
</trkpt>
<trkpt lat="40.0708744" lon="-105.2294299">
  <ele>1583.03</ele>
  <time>2026-08-28T17:49:51Z</time>
  <course>59.66</course>
  <speed>3.5294475488382036</speed>
  <fix>3d</fix>
</trkpt>
<trkpt lat="40.0708692" lon="-105.2294416">
  <ele>1583.0</ele>
  <time>2026-08-28T17:49:51Z</time>
  <course>58.62</course>
  <speed>3.59</speed>
  <fix>3d</fix>
</trkpt>
<trkpt lat="40.070876" lon="-105.2294263">
  <ele>1583.03</ele>
  <time>2026-08-28T17:49:51Z</time>
  <course>59.73</course>
  <speed>3.52432972350772</speed>
  <fix>3d</fix>
</trkpt>
<trkpt lat="40.0708725" lon="-105.2294344">
  <ele>1583.0</ele>
  <time>2026-08-28T17:49:51Z</time>
  <course>58.72</course>
  <speed>3.58</speed>
  <fix>3d</fix>
</trkpt>
<trkpt lat="40.0708777" lon="-105.2294227">
  <ele>1583.03</ele>
  <time>2026-08-28T17:49:51Z</time>
  <course>59.83</course>
  <speed>3.52432972350772</speed>
  <fix>3d</fix>
</trkpt>
<trkpt lat="40.0708759" lon="-105.2294272">
  <ele>1583.0</ele>
  <time>2026-08-28T17:49:51Z</time>
  <course>58.85</course>
  <speed>3.57</speed>
  <fix>3d</fix>
</trkpt>
<trkpt lat="40.0708793" lon="-105.2294192">
  <ele>1583.03</ele>
  <time>2026-08-28T17:49:51Z</time>
  <course>59.93</course>
  <speed>3.5192328709535547</speed>
  <fix>3d</fix>
</trkpt>
<trkpt lat="40.0708759" lon="-105.2294272">
  <ele>1583.0</ele>
  <time>2026-08-28T17:49:51Z</time>
  <course>58.85</course>
  <speed>3.57</speed>
  <fix>3d</fix>
</trkpt>
<trkpt lat="40.070881" lon="-105.2294156">
  <ele>1583.03</ele>
  <time>2026-08-28T17:49:51Z</time>
  <course>60.03</course>
  <speed>3.514157082431006</speed>
  <fix>3d</fix>
</trkpt>
<trkpt lat="40.0708791" lon="-105.2294201">
  <ele>1583.0</ele>
  <time>2026-08-28T17:49:51Z</time>
  <course>59.03</course>
  <speed>3.56</speed>
  <fix>3d</fix>
</trkpt>
<trkpt lat="40.0708826" lon="-105.229412">
  <ele>1583.03</ele>
  <time>2026-08-28T17:49:51Z</time>
  <course>60.15</course>
  <speed>3.5091024493451313</speed>
  <fix>3d</fix>
</trkpt>
<trkpt lat="40.0708791" lon="-105.2294201">
  <ele>1583.0</ele>
  <time>2026-08-28T17:49:51Z</time>
  <course>59.03</course>
  <speed>3.56</speed>
  <fix>3d</fix>
</trkpt>
<trkpt lat="40.0708842" lon="-105.2294084">
  <ele>1583.02</ele>
  <time>2026-08-28T17:49:51Z</time>
  <course>60.29</course>
  <speed>3.5091024493451313</speed>
  <fix>3d</fix>
</trkpt>
<trkpt lat="40.0708824" lon="-105.2294129">
  <ele>1583.0</ele>
  <time>2026-08-28T17:49:51Z</time>
  <course>59.26</course>
  <speed>3.55</speed>
  <fix>3d</fix>
</trkpt>
<trkpt lat="40.0708859" lon="-105.2294048">
  <ele>1583.02</ele>
  <time>2026-08-28T17:49:51Z</time>
  <course>60.43</course>
  <speed>3.512719744016024</speed>
  <fix>3d</fix>
</trkpt>
<trkpt lat="40.0708824" lon="-105.2294129">
  <ele>1583.0</ele>
  <time>2026-08-28T17:49:51Z</time>
  <course>59.26</course>
  <speed>3.55</speed>
  <fix>3d</fix>
</trkpt>
<trkpt lat="40.0708875" lon="-105.2294012">
  <ele>1583.01</ele>
  <time>2026-08-28T17:49:51Z</time>
  <course>60.58</course>
  <speed>3.507720057245162</speed>
  <fix>3d</fix>
</trkpt>
<trkpt lat="40.0708857" lon="-105.2294057">
  <ele>1583.0</ele>
  <time>2026-08-28T17:49:51Z</time>
  <course>59.54</course>
  <speed>3.55</speed>
  <fix>3d</fix>
</trkpt>
<trkpt lat="40.0708891" lon="-105.2293975">
  <ele>1583.01</ele>
  <time>2026-08-28T17:49:51Z</time>
  <course>60.72</course>
  <speed>3.5114242124813115</speed>
  <fix>3d</fix>
</trkpt>
<trkpt lat="40.0708857" lon="-105.2294057">
  <ele>1583.0</ele>
  <time>2026-08-28T17:49:51Z</time>
  <course>59.54</course>
  <speed>3.55</speed>
  <fix>3d</fix>
</trkpt>
<trkpt lat="40.0708907" lon="-105.2293939">
  <ele>1583.01</ele>
  <time>2026-08-28T17:49:51Z</time>
  <course>60.87</course>
  <speed>3.5064797161825987</speed>
  <fix>3d</fix>
</trkpt>
<trkpt lat="40.0708889" lon="-105.2293985">
  <ele>1583.0</ele>
  <time>2026-08-28T17:49:51Z</time>
  <course>59.83</course>
  <speed>3.54</speed>
  <fix>3d</fix>
</trkpt>
<trkpt lat="40.0708923" lon="-105.2293903">
  <ele>1583.0</ele>
  <time>2026-08-28T17:49:51Z</time>
  <course>61.01</course>
  <speed>3.5064797161825987</speed>
  <fix>3d</fix>
</trkpt>
<trkpt lat="40.0708889" lon="-105.2293985">
  <ele>1583.0</ele>
  <time>2026-08-28T17:49:51Z</time>
  <course>59.83</course>
  <speed>3.54</speed>
  <fix>3d</fix>
</trkpt>
<trkpt lat="40.0708939" lon="-105.2293867">
  <ele>1583.0</ele>
  <time>2026-08-28T17:49:51Z</time>
  <course>61.15</course>
  <speed>3.510270644836378</speed>
  <fix>3d</fix>
</trkpt>
<trkpt lat="40.070892" lon="-105.2293912">
  <ele>1583.0</ele>
  <time>2026-08-28T17:49:51Z</time>
  <course>60.11</course>
  <speed>3.54</speed>
  <fix>3d</fix>
</trkpt>
<trkpt lat="40.0708955" lon="-105.229383">
  <ele>1583.0</ele>
  <time>2026-08-28T17:49:51Z</time>
  <course>61.3</course>
  <speed>3.5053815769470806</speed>
  <fix>3d</fix>
</trkpt>
<trkpt lat="40.070892" lon="-105.2293912">
  <ele>1583.0</ele>
  <time>2026-08-28T17:49:51Z</time>
  <course>60.11</course>
  <speed>3.54</speed>
  <fix>3d</fix>
</trkpt>
<trkpt lat="40.070897" lon="-105.2293794">
  <ele>1583.01</ele>
  <time>2026-08-28T17:49:51Z</time>
  <course>61.44</course>
  <speed>3.509259181080816</speed>
  <fix>3d</fix>
</trkpt>
<trkpt lat="40.0708953" lon="-105.229384">
  <ele>1583.0</ele>
  <time>2026-08-28T17:49:51Z</time>
  <course>60.4</course>
  <speed>3.54</speed>
  <fix>3d</fix>
</trkpt>
<trkpt lat="40.0708986" lon="-105.2293757">
  <ele>1583.01</ele>
  <time>2026-08-28T17:49:51Z</time>
  <course>61.58</course>
  <speed>3.504425773218774</speed>
  <fix>3d</fix>
</trkpt>
<trkpt lat="40.0708953" lon="-105.229384">
  <ele>1583.0</ele>
  <time>2026-08-28T17:49:51Z</time>
  <course>60.4</course>
  <speed>3.54</speed>
  <fix>3d</fix>
</trkpt>
<trkpt lat="40.0709002" lon="-105.2293721">
  <ele>1583.0</ele>
  <time>2026-08-28T17:49:51Z</time>
  <course>61.73</course>
  <speed>3.5131894341182344</speed>
  <fix>3d</fix>
</trkpt>
<trkpt lat="40.0708953" lon="-105.229384">
  <ele>1583.0</ele>
  <time>2026-08-28T17:49:51Z</time>
  <course>60.4</course>
  <speed>3.54</speed>
  <fix>3d</fix>
</trkpt>
<trkpt lat="40.0709017" lon="-105.2293684">
  <ele>1583.0</ele>
  <time>2026-08-28T17:49:51Z</time>
  <course>61.87</course>
  <speed>3.508389944119667</speed>
  <fix>3d</fix>
</trkpt>
<trkpt lat="40.0708984" lon="-105.2293768">
  <ele>1583.0</ele>
  <time>2026-08-28T17:49:51Z</time>
  <course>60.69</course>
  <speed>3.54</speed>
  <fix>3d</fix>
</trkpt>
<trkpt lat="40.0709032" lon="-105.2293648">
  <ele>1583.0</ele>
  <time>2026-08-28T17:49:51Z</time>
  <course>62.02</course>
  <speed>3.5124065823876367</speed>
  <fix>3d</fix>
</trkpt>
<trkpt lat="40.0708984" lon="-105.2293768">
  <ele>1583.0</ele>
  <time>2026-08-28T17:49:51Z</time>
  <course>60.69</course>
  <speed>3.54</speed>
  <fix>3d</fix>
</trkpt>
<trkpt lat="40.0709048" lon="-105.2293612">
  <ele>1583.0</ele>
  <time>2026-08-28T17:49:51Z</time>
  <course>62.16</course>
  <speed>3.5076630396889605</speed>
  <fix>3d</fix>
</trkpt>
<trkpt lat="40.0709015" lon="-105.2293695">
  <ele>1583.0</ele>
  <time>2026-08-28T17:49:51Z</time>
  <course>60.98</course>
  <speed>3.54</speed>
  <fix>3d</fix>
</trkpt>
<trkpt lat="40.0709063" lon="-105.2293576">
  <ele>1583.0</ele>
  <time>2026-08-28T17:49:51Z</time>
  <course>62.31</course>
  <speed>3.5076630396889605</speed>
  <fix>3d</fix>
</trkpt>
<trkpt lat="40.0709015" lon="-105.2293695">
  <ele>1583.0</ele>
  <time>2026-08-28T17:49:51Z</time>
  <course>60.98</course>
  <speed>3.54</speed>
  <fix>3d</fix>
</trkpt>
<trkpt lat="40.0709078" lon="-105.229354">
  <ele>1583.01</ele>
  <time>2026-08-28T17:49:51Z</time>
  <course>62.45</course>
  <speed>3.5117659375305754</speed>
  <fix>3d</fix>
</trkpt>
<trkpt lat="40.0709045" lon="-105.2293622">
  <ele>1583.0</ele>
  <time>2026-08-28T17:49:51Z</time>
  <course>61.27</course>
  <speed>3.54</speed>
  <fix>3d</fix>
</trkpt>
<trkpt lat="40.0709093" lon="-105.2293503">
  <ele>1583.01</ele>
  <time>2026-08-28T17:49:51Z</time>
  <course>62.6</course>
  <speed>3.5070785562915465</speed>
  <fix>3d</fix>
</trkpt>
<trkpt lat="40.0709045" lon="-105.2293622">
  <ele>1583.0</ele>
  <time>2026-08-28T17:49:51Z</time>
  <course>61.27</course>
  <speed>3.54</speed>
  <fix>3d</fix>
</trkpt>
<trkpt lat="40.0709108" lon="-105.2293467">
  <ele>1583.01</ele>
  <time>2026-08-28T17:49:51Z</time>
  <course>62.75</course>
  <speed>3.5112675773856936</speed>
  <fix>3d</fix>
</trkpt>
<trkpt lat="40.0709076" lon="-105.2293549">
  <ele>1583.0</ele>
  <time>2026-08-28T17:49:51Z</time>
  <course>61.56</course>
  <speed>3.54</speed>
  <fix>3d</fix>
</trkpt>
<trkpt lat="40.0709123" lon="-105.229343">
  <ele>1583.02</ele>
  <time>2026-08-28T17:49:51Z</time>
  <course>62.89</course>
  <speed>3.5112675773856936</speed>
  <fix>3d</fix>
</trkpt>
<trkpt lat="40.0709107" lon="-105.2293476">
  <ele>1583.0</ele>
  <time>2026-08-28T17:49:51Z</time>
  <course>61.85</course>
  <speed>3.55</speed>
  <fix>3d</fix>
</trkpt>
<trkpt lat="40.0709138" lon="-105.2293393">
  <ele>1583.01</ele>
  <time>2026-08-28T17:49:51Z</time>
  <course>63.04</course>
  <speed>3.5155084980696603</speed>
  <fix>3d</fix>
</trkpt>
<trkpt lat="40.0709107" lon="-105.2293476">
  <ele>1583.0</ele>
  <time>2026-08-28T17:49:51Z</time>
  <course>61.85</course>
  <speed>3.55</speed>
  <fix>3d</fix>
</trkpt>
<trkpt lat="40.0709152" lon="-105.2293357">
  <ele>1583.01</ele>
  <time>2026-08-28T17:49:51Z</time>
  <course>63.18</course>
  <speed>3.5198011307458836</speed>
  <fix>3d</fix>
</trkpt>
<trkpt lat="40.0709137" lon="-105.2293402">
  <ele>1583.0</ele>
  <time>2026-08-28T17:49:51Z</time>
  <course>62.13</course>
  <speed>3.55</speed>
  <fix>3d</fix>
</trkpt>
<trkpt lat="40.0709167" lon="-105.229332">
  <ele>1583.01</ele>
  <time>2026-08-28T17:49:51Z</time>
  <course>63.32</course>
  <speed>3.5198011307458836</speed>
  <fix>3d</fix>
</trkpt>
<trkpt lat="40.0709137" lon="-105.2293402">
  <ele>1583.0</ele>
  <time>2026-08-28T17:49:51Z</time>
  <course>62.13</course>
  <speed>3.55</speed>
  <fix>3d</fix>
</trkpt>
<trkpt lat="40.0709182" lon="-105.2293282">
  <ele>1583.01</ele>
  <time>2026-08-28T17:49:51Z</time>
  <course>63.47</course>
  <speed>3.5241452864489005</speed>
  <fix>3d</fix>
</trkpt>
<trkpt lat="40.0709166" lon="-105.2293329">
  <ele>1583.0</ele>
  <time>2026-08-28T17:49:51Z</time>
  <course>62.42</course>
  <speed>3.55</speed>
  <fix>3d</fix>
</trkpt>
<trkpt lat="40.0709197" lon="-105.2293245">
  <ele>1583.01</ele>
  <time>2026-08-28T17:49:51Z</time>
  <course>63.61</course>
  <speed>3.5330581653859023</speed>
  <fix>3d</fix>
</trkpt>
<trkpt lat="40.0709166" lon="-105.2293329">
  <ele>1583.0</ele>
  <time>2026-08-28T17:49:51Z</time>
  <course>62.42</course>
  <speed>3.55</speed>
  <fix>3d</fix>
</trkpt>
<trkpt lat="40.0709212" lon="-105.2293207">
  <ele>1583.01</ele>
  <time>2026-08-28T17:49:51Z</time>
  <course>63.76</course>
  <speed>3.5285407748813107</speed>
  <fix>3d</fix>
</trkpt>
<trkpt lat="40.0709195" lon="-105.2293254">
  <ele>1583.0</ele>
  <time>2026-08-28T17:49:51Z</time>
  <course>62.71</course>
  <speed>3.56</speed>
  <fix>3d</fix>
</trkpt>
<trkpt lat="40.0709226" lon="-105.229317">
  <ele>1583.01</ele>
  <time>2026-08-28T17:49:51Z</time>
  <course>63.9</course>
  <speed>3.532987404449668</speed>
  <fix>3d</fix>
</trkpt>
<trkpt lat="40.0709195" lon="-105.2293254">
  <ele>1583.0</ele>
  <time>2026-08-28T17:49:51Z</time>
  <course>62.71</course>
  <speed>3.56</speed>
  <fix>3d</fix>
</trkpt>
<trkpt lat="40.0709241" lon="-105.2293132">
  <ele>1583.01</ele>
  <time>2026-08-28T17:49:51Z</time>
  <course>64.05</course>
  <speed>3.528526604689272</speed>
  <fix>3d</fix>
</trkpt>
<trkpt lat="40.0709224" lon="-105.229318">
  <ele>1583.0</ele>
  <time>2026-08-28T17:49:51Z</time>
  <course>63.0</course>
  <speed>3.56</speed>
  <fix>3d</fix>
</trkpt>
<trkpt lat="40.0709256" lon="-105.2293094">
  <ele>1583.02</ele>
  <time>2026-08-28T17:49:51Z</time>
  <course>64.19</course>
  <speed>3.5374849823002785</speed>
  <fix>3d</fix>
</trkpt>
<trkpt lat="40.0709224" lon="-105.229318">
  <ele>1583.0</ele>
  <time>2026-08-28T17:49:51Z</time>
  <course>63.0</course>
  <speed>3.56</speed>
  <fix>3d</fix>
</trkpt>
<trkpt lat="40.070927" lon="-105.2293057">
  <ele>1583.02</ele>
  <time>2026-08-28T17:49:51Z</time>
  <course>64.34</course>
  <speed>3.542033314354906</speed>
  <fix>3d</fix>
</trkpt>
<trkpt lat="40.0709253" lon="-105.2293105">
  <ele>1583.0</ele>
  <time>2026-08-28T17:49:51Z</time>
  <course>63.29</course>
  <speed>3.56</speed>
  <fix>3d</fix>
</trkpt>
<trkpt lat="40.0709284" lon="-105.2293019">
  <ele>1583.02</ele>
  <time>2026-08-28T17:49:51Z</time>
  <course>64.46</course>
  <speed>3.5376404565755406</speed>
  <fix>3d</fix>
</trkpt>
<trkpt lat="40.0709253" lon="-105.2293105">
  <ele>1583.0</ele>
  <time>2026-08-28T17:49:51Z</time>
  <course>63.29</course>
  <speed>3.56</speed>
  <fix>3d</fix>
</trkpt>
<trkpt lat="40.0709298" lon="-105.2292981">
  <ele>1583.02</ele>
  <time>2026-08-28T17:49:51Z</time>
  <course>64.56</course>
  <speed>3.546632205346362</speed>
  <fix>3d</fix>
</trkpt>
<trkpt lat="40.0709282" lon="-105.229303">
  <ele>1583.0</ele>
  <time>2026-08-28T17:49:51Z</time>
  <course>63.55</course>
  <speed>3.57</speed>
  <fix>3d</fix>
</trkpt>
<trkpt lat="40.0709313" lon="-105.2292943">
  <ele>1583.02</ele>
  <time>2026-08-28T17:49:51Z</time>
  <course>64.66</course>
  <speed>3.5646318182948433</speed>
  <fix>3d</fix>
</trkpt>
<trkpt lat="40.0709282" lon="-105.229303">
  <ele>1583.0</ele>
  <time>2026-08-28T17:49:51Z</time>
  <course>63.55</course>
  <speed>3.57</speed>
  <fix>3d</fix>
</trkpt>
<trkpt lat="40.0709327" lon="-105.2292905">
  <ele>1583.02</ele>
  <time>2026-08-28T17:49:51Z</time>
  <course>64.73</course>
  <speed>3.5869903819218694</speed>
  <fix>3d</fix>
</trkpt>
<trkpt lat="40.0709282" lon="-105.229303">
  <ele>1583.0</ele>
  <time>2026-08-28T17:49:51Z</time>
  <course>63.55</course>
  <speed>3.57</speed>
  <fix>3d</fix>
</trkpt>
<trkpt lat="40.0709341" lon="-105.2292867">
  <ele>1583.02</ele>
  <time>2026-08-28T17:49:51Z</time>
  <course>64.78</course>
  <speed>3.609348971767623</speed>
  <fix>3d</fix>
</trkpt>
<trkpt lat="40.070931" lon="-105.2292954">
  <ele>1583.0</ele>
  <time>2026-08-28T17:49:51Z</time>
  <course>63.74</course>
  <speed>3.59</speed>
  <fix>3d</fix>
</trkpt>
<trkpt lat="40.0709356" lon="-105.2292829">
  <ele>1583.02</ele>
  <time>2026-08-28T17:49:51Z</time>
  <course>64.83</course>
  <speed>3.6407142156450565</speed>
  <fix>3d</fix>
</trkpt>
<trkpt lat="40.070931" lon="-105.2292954">
  <ele>1583.0</ele>
  <time>2026-08-28T17:49:51Z</time>
  <course>63.74</course>
  <speed>3.59</speed>
  <fix>3d</fix>
</trkpt>
<trkpt lat="40.070937" lon="-105.229279">
  <ele>1583.02</ele>
  <time>2026-08-28T17:49:51Z</time>
  <course>64.84</course>
  <speed>3.6944417710934356</speed>
  <fix>3d</fix>
</trkpt>
<trkpt lat="40.0709339" lon="-105.2292879">
  <ele>1583.0</ele>
  <time>2026-08-28T17:49:51Z</time>
  <course>63.88</course>
  <speed>3.63</speed>
  <fix>3d</fix>
</trkpt>
<trkpt lat="40.0709385" lon="-105.2292751">
  <ele>1583.02</ele>
  <time>2026-08-28T17:49:51Z</time>
  <course>64.84</course>
  <speed>3.7391576591526596</speed>
  <fix>3d</fix>
</trkpt>
<trkpt lat="40.0709339" lon="-105.2292879">
  <ele>1583.0</ele>
  <time>2026-08-28T17:49:51Z</time>
  <course>63.88</course>
  <speed>3.63</speed>
  <fix>3d</fix>
</trkpt>
<trkpt lat="40.07094" lon="-105.2292711">
  <ele>1583.02</ele>
  <time>2026-08-28T17:49:51Z</time>
  <course>64.84</course>
  <speed>3.806231732304275</speed>
  <fix>3d</fix>
</trkpt>
<trkpt lat="40.0709368" lon="-105.2292801">
  <ele>1583.0</ele>
  <time>2026-08-28T17:49:51Z</time>
  <course>63.93</course>
  <speed>3.72</speed>
  <fix>3d</fix>
</trkpt>
<trkpt lat="40.0709415" lon="-105.229267">
  <ele>1583.02</ele>
  <time>2026-08-28T17:49:51Z</time>
  <course>64.84</course>
  <speed>3.8733060813728626</speed>
  <fix>3d</fix>
</trkpt>
<trkpt lat="40.0709399" lon="-105.2292722">
  <ele>1583.0</ele>
  <time>2026-08-28T17:49:51Z</time>
  <course>63.93</course>
  <speed>3.83</speed>
  <fix>3d</fix>
</trkpt>
<trkpt lat="40.070943" lon="-105.2292629">
  <ele>1583.02</ele>
  <time>2026-08-28T17:49:51Z</time>
  <course>64.84</course>
  <speed>3.9493923583255186</speed>
  <fix>3d</fix>
</trkpt>
<trkpt lat="40.0709399" lon="-105.2292722">
  <ele>1583.0</ele>
  <time>2026-08-28T17:49:51Z</time>
  <course>63.93</course>
  <speed>3.83</speed>
  <fix>3d</fix>
</trkpt>
<trkpt lat="40.0709446" lon="-105.2292586">
  <ele>1583.02</ele>
  <time>2026-08-28T17:49:51Z</time>
  <course>64.84</course>
  <speed>4.025481337678762</speed>
  <fix>3d</fix>
</trkpt>
<trkpt lat="40.0709429" lon="-105.229264">
  <ele>1583.0</ele>
  <time>2026-08-28T17:49:51Z</time>
  <course>63.93</course>
  <speed>3.97</speed>
  <fix>3d</fix>
</trkpt>
<trkpt lat="40.0709462" lon="-105.2292543">
  <ele>1583.02</ele>
  <time>2026-08-28T17:49:51Z</time>
  <course>64.84</course>
  <speed>4.105898196497327</speed>
  <fix>3d</fix>
</trkpt>
<trkpt lat="40.0709429" lon="-105.229264">
  <ele>1583.0</ele>
  <time>2026-08-28T17:49:51Z</time>
  <course>63.93</course>
  <speed>3.97</speed>
  <fix>3d</fix>
</trkpt>
<trkpt lat="40.0709479" lon="-105.2292499">
  <ele>1583.02</ele>
  <time>2026-08-28T17:49:51Z</time>
  <course>64.84</course>
  <speed>4.172972561616</speed>
  <fix>3d</fix>
</trkpt>
<trkpt lat="40.0709461" lon="-105.2292554">
  <ele>1583.0</ele>
  <time>2026-08-28T17:49:51Z</time>
  <course>63.93</course>
  <speed>4.12</speed>
  <fix>3d</fix>
</trkpt>
<trkpt lat="40.0709496" lon="-105.2292454">
  <ele>1583.02</ele>
  <time>2026-08-28T17:49:51Z</time>
  <course>64.84</course>
  <speed>4.240047169548943</speed>
  <fix>3d</fix>
</trkpt>
<trkpt lat="40.0709461" lon="-105.2292554">
  <ele>1583.0</ele>
  <time>2026-08-28T17:49:51Z</time>
  <course>63.93</course>
  <speed>4.12</speed>
  <fix>3d</fix>
</trkpt>
<trkpt lat="40.0709513" lon="-105.2292408">
  <ele>1583.02</ele>
  <time>2026-08-28T17:49:51Z</time>
  <course>64.84</course>
  <speed>4.302789792681023</speed>
  <fix>3d</fix>
</trkpt>
<trkpt lat="40.0709494" lon="-105.2292466">
  <ele>1583.0</ele>
  <time>2026-08-28T17:49:51Z</time>
  <course>63.93</course>
  <speed>4.25</speed>
  <fix>3d</fix>
</trkpt>
<trkpt lat="40.070953" lon="-105.2292361">
  <ele>1583.02</ele>
  <time>2026-08-28T17:49:51Z</time>
  <course>64.84</course>
  <speed>4.34750503162446</speed>
  <fix>3d</fix>
</trkpt>
<trkpt lat="40.0709494" lon="-105.2292466">
  <ele>1583.0</ele>
  <time>2026-08-28T17:49:51Z</time>
  <course>63.93</course>
  <speed>4.25</speed>
  <fix>3d</fix>
</trkpt>
<trkpt lat="40.0709548" lon="-105.2292315">
  <ele>1583.02</ele>
  <time>2026-08-28T17:49:51Z</time>
  <course>64.84</course>
  <speed>4.392220395198765</speed>
  <fix>3d</fix>
</trkpt>
<trkpt lat="40.0709528" lon="-105.2292375">
  <ele>1583.0</ele>
  <time>2026-08-28T17:49:51Z</time>
  <course>63.93</course>
  <speed>4.36</speed>
  <fix>3d</fix>
</trkpt>
<trkpt lat="40.0709566" lon="-105.2292267">
  <ele>1583.02</ele>
  <time>2026-08-28T17:49:51Z</time>
  <course>64.83</course>
  <speed>4.427922763554035</speed>
  <fix>3d</fix>
</trkpt>
<trkpt lat="40.0709528" lon="-105.2292375">
  <ele>1583.0</ele>
  <time>2026-08-28T17:49:51Z</time>
  <course>63.93</course>
  <speed>4.36</speed>
  <fix>3d</fix>
</trkpt>
<trkpt lat="40.0709583" lon="-105.229222">
  <ele>1583.02</ele>
  <time>2026-08-28T17:49:51Z</time>
  <course>64.86</course>
  <speed>4.436935879635855</speed>
  <fix>3d</fix>
</trkpt>
<trkpt lat="40.0709563" lon="-105.2292282">
  <ele>1583.0</ele>
  <time>2026-08-28T17:49:51Z</time>
  <course>63.95</course>
  <speed>4.42</speed>
  <fix>3d</fix>
</trkpt>
<trkpt lat="40.0709601" lon="-105.2292173">
  <ele>1583.02</ele>
  <time>2026-08-28T17:49:51Z</time>
  <course>64.89</course>
  <speed>4.445953216128123</speed>
  <fix>3d</fix>
</trkpt>
<trkpt lat="40.0709563" lon="-105.2292282">
  <ele>1583.0</ele>
  <time>2026-08-28T17:49:51Z</time>
  <course>63.95</course>
  <speed>4.42</speed>
  <fix>3d</fix>
</trkpt>
<trkpt lat="40.0709619" lon="-105.2292125">
  <ele>1583.02</ele>
  <time>2026-08-28T17:49:51Z</time>
  <course>64.89</course>
  <speed>4.436935879635855</speed>
  <fix>3d</fix>
</trkpt>
<trkpt lat="40.0709598" lon="-105.2292187">
  <ele>1583.0</ele>
  <time>2026-08-28T17:49:51Z</time>
  <course>63.98</course>
  <speed>4.44</speed>
  <fix>3d</fix>
</trkpt>
<trkpt lat="40.0709636" lon="-105.2292078">
  <ele>1583.02</ele>
  <time>2026-08-28T17:49:51Z</time>
  <course>64.87</course>
  <speed>4.414578122539004</speed>
  <fix>3d</fix>
</trkpt>
<trkpt lat="40.0709598" lon="-105.2292187">
  <ele>1583.0</ele>
  <time>2026-08-28T17:49:51Z</time>
  <course>63.98</course>
  <speed>4.44</speed>
  <fix>3d</fix>
</trkpt>
<trkpt lat="40.0709654" lon="-105.2292031">
  <ele>1583.02</ele>
  <time>2026-08-28T17:49:51Z</time>
  <course>64.7</course>
  <speed>4.378549988295212</speed>
  <fix>3d</fix>
</trkpt>
<trkpt lat="40.0709598" lon="-105.2292187">
  <ele>1583.0</ele>
  <time>2026-08-28T17:49:51Z</time>
  <course>63.98</course>
  <speed>4.44</speed>
  <fix>3d</fix>
</trkpt>
<trkpt lat="40.0709671" lon="-105.2291986">
  <ele>1583.02</ele>
  <time>2026-08-28T17:49:51Z</time>
  <course>64.39</course>
  <speed>4.3246387132337425</speed>
  <fix>3d</fix>
</trkpt>
<trkpt lat="40.0709633" lon="-105.2292094">
  <ele>1583.0</ele>
  <time>2026-08-28T17:49:51Z</time>
  <course>63.9</course>
  <speed>4.41</speed>
  <fix>3d</fix>
</trkpt>
<trkpt lat="40.0709688" lon="-105.2291941">
  <ele>1583.02</ele>
  <time>2026-08-28T17:49:51Z</time>
  <course>63.93</course>
  <speed>4.2530106983171345</speed>
  <fix>3d</fix>
</trkpt>
<trkpt lat="40.0709633" lon="-105.2292094">
  <ele>1583.0</ele>
  <time>2026-08-28T17:49:51Z</time>
  <course>63.9</course>
  <speed>4.41</speed>
  <fix>3d</fix>
</trkpt>
<trkpt lat="40.0709706" lon="-105.2291897">
  <ele>1583.02</ele>
  <time>2026-08-28T17:49:51Z</time>
  <course>63.27</course>
  <speed>4.163904417731032</speed>
  <fix>3d</fix>
</trkpt>
<trkpt lat="40.0709668" lon="-105.2292002">
  <ele>1583.0</ele>
  <time>2026-08-28T17:49:51Z</time>
  <course>63.42</course>
  <speed>4.31</speed>
  <fix>3d</fix>
</trkpt>
<trkpt lat="40.0709723" lon="-105.2291855">
  <ele>1583.02</ele>
  <time>2026-08-28T17:49:51Z</time>
  <course>62.42</course>
  <speed>4.062363843872186</speed>
  <fix>3d</fix>
</trkpt>
<trkpt lat="40.0709668" lon="-105.2292002">
  <ele>1583.0</ele>
  <time>2026-08-28T17:49:51Z</time>
  <course>63.42</course>
  <speed>4.31</speed>
  <fix>3d</fix>
</trkpt>
<trkpt lat="40.0709741" lon="-105.2291814">
  <ele>1583.02</ele>
  <time>2026-08-28T17:49:51Z</time>
  <course>61.38</course>
  <speed>3.9580424454520444</speed>
  <fix>3d</fix>
</trkpt>
<trkpt lat="40.0709703" lon="-105.2291913">
  <ele>1583.0</ele>
  <time>2026-08-28T17:49:51Z</time>
  <course>62.29</course>
  <speed>4.16</speed>
  <fix>3d</fix>
</trkpt>
<trkpt lat="40.0709758" lon="-105.2291775">
  <ele>1583.02</ele>
  <time>2026-08-28T17:49:51Z</time>
  <course>60.08</course>
  <speed>3.838176650442238</speed>
  <fix>3d</fix>
</trkpt>
<trkpt lat="40.0709737" lon="-105.2291829">
  <ele>1583.0</ele>
  <time>2026-08-28T17:49:51Z</time>
  <course>60.39</course>
  <speed>3.96</speed>
  <fix>3d</fix>
</trkpt>
<trkpt lat="40.0709776" lon="-105.2291738">
  <ele>1583.02</ele>
  <time>2026-08-28T17:49:51Z</time>
  <course>58.54</course>
  <speed>3.7121422386541174</speed>
  <fix>3d</fix>
</trkpt>
<trkpt lat="40.0709737" lon="-105.2291829">
  <ele>1583.0</ele>
  <time>2026-08-28T17:49:51Z</time>
  <course>60.39</course>
  <speed>3.96</speed>
  <fix>3d</fix>
</trkpt>
<trkpt lat="40.0709794" lon="-105.2291702">
  <ele>1583.02</ele>
  <time>2026-08-28T17:49:51Z</time>
  <course>56.73</course>
  <speed>3.5779463383343244</speed>
  <fix>3d</fix>
</trkpt>
<trkpt lat="40.0709772" lon="-105.2291751">
  <ele>1583.0</ele>
  <time>2026-08-28T17:49:51Z</time>
  <course>57.57</course>
  <speed>3.72</speed>
  <fix>3d</fix>
</trkpt>
<trkpt lat="40.0709813" lon="-105.2291669">
  <ele>1583.02</ele>
  <time>2026-08-28T17:49:51Z</time>
  <course>54.76</course>
  <speed>3.442281220353735</speed>
  <fix>3d</fix>
</trkpt>
<trkpt lat="40.0709772" lon="-105.2291751">
  <ele>1583.0</ele>
  <time>2026-08-28T17:49:51Z</time>
  <course>57.57</course>
  <speed>3.72</speed>
  <fix>3d</fix>
</trkpt>
<trkpt lat="40.0709831" lon="-105.2291637">
  <ele>1583.02</ele>
  <time>2026-08-28T17:49:51Z</time>
  <course>52.64</course>
  <speed>3.30311973746033</speed>
  <fix>3d</fix>
</trkpt>
<trkpt lat="40.0709809" lon="-105.2291682">
  <ele>1583.0</ele>
  <time>2026-08-28T17:49:51Z</time>
  <course>53.86</course>
  <speed>3.46</speed>
  <fix>3d</fix>
</trkpt>
<trkpt lat="40.070985" lon="-105.2291608">
  <ele>1583.01</ele>
  <time>2026-08-28T17:49:51Z</time>
  <course>50.36</course>
  <speed>3.1693690223765363</speed>
  <fix>3d</fix>
</trkpt>
<trkpt lat="40.0709809" lon="-105.2291682">
  <ele>1583.0</ele>
  <time>2026-08-28T17:49:51Z</time>
  <course>53.86</course>
  <speed>3.46</speed>
  <fix>3d</fix>
</trkpt>
<trkpt lat="40.0709869" lon="-105.2291582">
  <ele>1583.01</ele>
  <time>2026-08-28T17:49:51Z</time>
  <course>47.92</course>
  <speed>3.0207449412355225</speed>
  <fix>3d</fix>
</trkpt>
<trkpt lat="40.0709846" lon="-105.2291621">
  <ele>1583.0</ele>
  <time>2026-08-28T17:49:51Z</time>
  <course>49.47</course>
  <speed>3.18</speed>
  <fix>3d</fix>
</trkpt>
<trkpt lat="40.0709888" lon="-105.2291557">
  <ele>1583.01</ele>
  <time>2026-08-28T17:49:51Z</time>
  <course>45.31</course>
  <speed>2.878350221915325</speed>
  <fix>3d</fix>
</trkpt>
<trkpt lat="40.0709846" lon="-105.2291621">
  <ele>1583.0</ele>
  <time>2026-08-28T17:49:51Z</time>
  <course>49.47</course>
  <speed>3.18</speed>
  <fix>3d</fix>
</trkpt>
<trkpt lat="40.0709907" lon="-105.2291535">
  <ele>1583.01</ele>
  <time>2026-08-28T17:49:51Z</time>
  <course>42.52</course>
  <speed>2.7431551177430706</speed>
  <fix>3d</fix>
</trkpt>
<trkpt lat="40.0709883" lon="-105.2291568">
  <ele>1583.0</ele>
  <time>2026-08-28T17:49:51Z</time>
  <course>44.45</course>
  <speed>2.9</speed>
  <fix>3d</fix>
</trkpt>
<trkpt lat="40.0709926" lon="-105.2291515">
  <ele>1583.01</ele>
  <time>2026-08-28T17:49:51Z</time>
  <course>39.61</course>
  <speed>2.6145171638373306</speed>
  <fix>3d</fix>
</trkpt>
<trkpt lat="40.0709883" lon="-105.2291568">
  <ele>1583.0</ele>
  <time>2026-08-28T17:49:51Z</time>
  <course>44.45</course>
  <speed>2.9</speed>
  <fix>3d</fix>
</trkpt>
<trkpt lat="40.0709944" lon="-105.2291498">
  <ele>1583.01</ele>
  <time>2026-08-28T17:49:51Z</time>
  <course>36.57</course>
  <speed>2.4855582873873625</speed>
  <fix>3d</fix>
</trkpt>
<trkpt lat="40.070992" lon="-105.2291525">
  <ele>1583.0</ele>
  <time>2026-08-28T17:49:51Z</time>
  <course>38.79</course>
  <speed>2.63</speed>
  <fix>3d</fix>
</trkpt>
<trkpt lat="40.0709963" lon="-105.2291483">
  <ele>1583.01</ele>
  <time>2026-08-28T17:49:51Z</time>
  <course>33.41</course>
  <speed>2.383988255004626</speed>
  <fix>3d</fix>
</trkpt>
<trkpt lat="40.070992" lon="-105.2291525">
  <ele>1583.0</ele>
  <time>2026-08-28T17:49:51Z</time>
  <course>38.79</course>
  <speed>2.63</speed>
  <fix>3d</fix>
</trkpt>
<trkpt lat="40.0709981" lon="-105.2291469">
  <ele>1583.02</ele>
  <time>2026-08-28T17:49:51Z</time>
  <course>30.15</course>
  <speed>2.2817756243767704</speed>
  <fix>3d</fix>
</trkpt>
<trkpt lat="40.0709957" lon="-105.2291492">
  <ele>1583.0</ele>
  <time>2026-08-28T17:49:51Z</time>
  <course>32.61</course>
  <speed>2.39</speed>
  <fix>3d</fix>
</trkpt>
<trkpt lat="40.0709999" lon="-105.2291458">
  <ele>1583.01</ele>
  <time>2026-08-28T17:49:51Z</time>
  <course>26.81</course>
  <speed>2.1923731434224423</speed>
  <fix>3d</fix>
</trkpt>
<trkpt lat="40.0709957" lon="-105.2291492">
  <ele>1583.0</ele>
  <time>2026-08-28T17:49:51Z</time>
  <course>32.61</course>
  <speed>2.39</speed>
  <fix>3d</fix>
</trkpt>
<trkpt lat="40.0710017" lon="-105.2291448">
  <ele>1583.01</ele>
  <time>2026-08-28T17:49:51Z</time>
  <course>23.4</course>
  <speed>2.1244528707410764</speed>
  <fix>3d</fix>
</trkpt>
<trkpt lat="40.0709957" lon="-105.2291492">
  <ele>1583.0</ele>
  <time>2026-08-28T17:49:51Z</time>
  <course>32.61</course>
  <speed>2.39</speed>
  <fix>3d</fix>
</trkpt>
<trkpt lat="40.0710035" lon="-105.2291441">
  <ele>1583.01</ele>
  <time>2026-08-28T17:49:51Z</time>
  <course>19.96</course>
  <speed>2.065260274154326</speed>
  <fix>3d</fix>
</trkpt>
<trkpt lat="40.0709993" lon="-105.2291465">
  <ele>1583.0</ele>
  <time>2026-08-28T17:49:51Z</time>
  <course>25.99</course>
  <speed>2.21</speed>
  <fix>3d</fix>
</trkpt>
<trkpt lat="40.0710052" lon="-105.2291434">
  <ele>1583.01</ele>
  <time>2026-08-28T17:49:51Z</time>
  <course>16.51</course>
  <speed>2.020321756552654</speed>
  <fix>3d</fix>
</trkpt>
<trkpt lat="40.0709993" lon="-105.2291465">
  <ele>1583.0</ele>
  <time>2026-08-28T17:49:51Z</time>
  <course>25.99</course>
  <speed>2.21</speed>
  <fix>3d</fix>
</trkpt>
<trkpt lat="40.071007" lon="-105.2291429">
  <ele>1583.01</ele>
  <time>2026-08-28T17:49:51Z</time>
  <course>13.08</course>
  <speed>1.992786993132984</speed>
  <fix>3d</fix>
</trkpt>
<trkpt lat="40.0710028" lon="-105.2291445">
  <ele>1583.0</ele>
  <time>2026-08-28T17:49:51Z</time>
  <course>19.12</course>
  <speed>2.08</speed>
  <fix>3d</fix>
</trkpt>
<trkpt lat="40.0710087" lon="-105.2291426">
  <ele>1583.01</ele>
  <time>2026-08-28T17:49:51Z</time>
  <course>9.7</course>
  <speed>1.9845654436173175</speed>
  <fix>3d</fix>
</trkpt>
<trkpt lat="40.0710028" lon="-105.2291445">
  <ele>1583.0</ele>
  <time>2026-08-28T17:49:51Z</time>
  <course>19.12</course>
  <speed>2.08</speed>
  <fix>3d</fix>
</trkpt>
<trkpt lat="40.0710105" lon="-105.2291424">
  <ele>1583.01</ele>
  <time>2026-08-28T17:49:51Z</time>
  <course>6.39</course>
  <speed>1.9942417105255823</speed>
  <fix>3d</fix>
</trkpt>
<trkpt lat="40.0710064" lon="-105.2291432">
  <ele>1583.0</ele>
  <time>2026-08-28T17:49:51Z</time>
  <course>12.22</course>
  <speed>2.01</speed>
  <fix>3d</fix>
</trkpt>
<trkpt lat="40.0710123" lon="-105.2291423">
  <ele>1583.01</ele>
  <time>2026-08-28T17:49:51Z</time>
  <course>3.16</course>
  <speed>2.010099500024812</speed>
  <fix>3d</fix>
</trkpt>
<trkpt lat="40.0710064" lon="-105.2291432">
  <ele>1583.0</ele>
  <time>2026-08-28T17:49:51Z</time>
  <course>12.22</course>
  <speed>2.01</speed>
  <fix>3d</fix>
</trkpt>
<trkpt lat="40.0710141" lon="-105.2291424">
  <ele>1583.0</ele>
  <time>2026-08-28T17:49:51Z</time>
  <course>0.01</course>
  <speed>2.051974658712919</speed>
  <fix>3d</fix>
</trkpt>
<trkpt lat="40.07101" lon="-105.2291425">
  <ele>1583.0</ele>
  <time>2026-08-28T17:49:51Z</time>
  <course>5.5</course>
  <speed>2.0</speed>
  <fix>3d</fix>
</trkpt>
<trkpt lat="40.0710159" lon="-105.2291425">
  <ele>1583.0</ele>
  <time>2026-08-28T17:49:51Z</time>
  <course>357.02</course>
  <speed>2.0995475703112803</speed>
  <fix>3d</fix>
</trkpt>
<trkpt lat="40.0710136" lon="-105.2291423">
  <ele>1583.0</ele>
  <time>2026-08-28T17:49:51Z</time>
  <course>359.12</course>
  <speed>2.05</speed>
  <fix>3d</fix>
</trkpt>
<trkpt lat="40.0710178" lon="-105.2291428">
  <ele>1583.0</ele>
  <time>2026-08-28T17:49:51Z</time>
  <course>354.14</course>
  <speed>2.1623366990364845</speed>
  <fix>3d</fix>
</trkpt>
<trkpt lat="40.0710136" lon="-105.2291423">
  <ele>1583.0</ele>
  <time>2026-08-28T17:49:51Z</time>
  <course>359.12</course>
  <speed>2.05</speed>
  <fix>3d</fix>
</trkpt>
<trkpt lat="40.0710198" lon="-105.2291432">
  <ele>1583.0</ele>
  <time>2026-08-28T17:49:51Z</time>
  <course>351.42</course>
  <speed>2.229910312097776</speed>
  <fix>3d</fix>
</trkpt>
<trkpt lat="40.0710174" lon="-105.2291427">
  <ele>1583.0</ele>
  <time>2026-08-28T17:49:51Z</time>
  <course>353.21</course>
  <speed>2.15</speed>
  <fix>3d</fix>
</trkpt>
<trkpt lat="40.0710218" lon="-105.2291437">
  <ele>1583.0</ele>
  <time>2026-08-28T17:49:51Z</time>
  <course>348.8</course>
  <speed>2.3138928237928393</speed>
  <fix>3d</fix>
</trkpt>
<trkpt lat="40.0710174" lon="-105.2291427">
  <ele>1583.0</ele>
  <time>2026-08-28T17:49:51Z</time>
  <course>353.21</course>
  <speed>2.15</speed>
  <fix>3d</fix>
</trkpt>
<trkpt lat="40.0710239" lon="-105.2291444">
  <ele>1583.0</ele>
  <time>2026-08-28T17:49:51Z</time>
  <course>346.31</course>
  <speed>2.4120530674095875</speed>
  <fix>3d</fix>
</trkpt>
<trkpt lat="40.0710213" lon="-105.2291435">
  <ele>1583.0</ele>
  <time>2026-08-28T17:49:51Z</time>
  <course>347.82</course>
  <speed>2.3</speed>
  <fix>3d</fix>
</trkpt>
<trkpt lat="40.071026" lon="-105.2291453">
  <ele>1583.0</ele>
  <time>2026-08-28T17:49:51Z</time>
  <course>343.95</course>
  <speed>2.504555848848254</speed>
  <fix>3d</fix>
</trkpt>
<trkpt lat="40.0710213" lon="-105.2291435">
  <ele>1583.0</ele>
  <time>2026-08-28T17:49:51Z</time>
  <course>347.82</course>
  <speed>2.3</speed>
  <fix>3d</fix>
</trkpt>
<trkpt lat="40.0710282" lon="-105.2291463">
  <ele>1583.0</ele>
  <time>2026-08-28T17:49:51Z</time>
  <course>341.7</course>
  <speed>2.613541658363226</speed>
  <fix>3d</fix>
</trkpt>
<trkpt lat="40.0710254" lon="-105.2291449">
  <ele>1583.0</ele>
  <time>2026-08-28T17:49:51Z</time>
  <course>342.96</course>
  <speed>2.49</speed>
  <fix>3d</fix>
</trkpt>
<trkpt lat="40.0710305" lon="-105.2291474">
  <ele>1583.01</ele>
  <time>2026-08-28T17:49:52Z</time>
  <course>339.59</course>
  <speed>2.735415873317986</speed>
  <fix>3d</fix>
</trkpt>
<trkpt lat="40.0710254" lon="-105.2291449">
  <ele>1583.0</ele>
  <time>2026-08-28T17:49:52Z</time>
  <course>342.96</course>
  <speed>2.49</speed>
  <fix>3d</fix>
</trkpt>
<trkpt lat="40.0710328" lon="-105.2291487">
  <ele>1583.01</ele>
  <time>2026-08-28T17:49:52Z</time>
  <course>337.57</course>
  <speed>2.85112258592997</speed>
  <fix>3d</fix>
</trkpt>
<trkpt lat="40.0710299" lon="-105.2291469">
  <ele>1583.0</ele>
  <time>2026-08-28T17:49:52Z</time>
  <course>338.59</course>
  <speed>2.7</speed>
  <fix>3d</fix>
</trkpt>
<trkpt lat="40.0710352" lon="-105.2291502">
  <ele>1583.01</ele>
  <time>2026-08-28T17:49:52Z</time>
  <course>335.71</course>
  <speed>2.9740544715926105</speed>
  <fix>3d</fix>
</trkpt>
<trkpt lat="40.0710299" lon="-105.2291469">
  <ele>1583.0</ele>
  <time>2026-08-28T17:49:52Z</time>
  <course>338.59</course>
  <speed>2.7</speed>
  <fix>3d</fix>
</trkpt>
<trkpt lat="40.0710377" lon="-105.2291518">
  <ele>1583.01</ele>
  <time>2026-08-28T17:49:52Z</time>
  <course>334.08</course>
  <speed>3.0953513532392405</speed>
  <fix>3d</fix>
</trkpt>
<trkpt lat="40.0710345" lon="-105.2291495">
  <ele>1583.0</ele>
  <time>2026-08-28T17:49:52Z</time>
  <course>334.78</course>
  <speed>2.94</speed>
  <fix>3d</fix>
</trkpt>
<trkpt lat="40.0710402" lon="-105.2291535">
  <ele>1583.01</ele>
  <time>2026-08-28T17:49:52Z</time>
  <course>332.68</course>
  <speed>3.2227317604789887</speed>
  <fix>3d</fix>
</trkpt>
<trkpt lat="40.0710345" lon="-105.2291495">
  <ele>1583.0</ele>
  <time>2026-08-28T17:49:52Z</time>
  <course>334.78</course>
  <speed>2.94</speed>
  <fix>3d</fix>
</trkpt>
<trkpt lat="40.0710428" lon="-105.2291554">
  <ele>1583.01</ele>
  <time>2026-08-28T17:49:52Z</time>
  <course>331.49</course>
  <speed>3.342828143952363</speed>
  <fix>3d</fix>
</trkpt>
<trkpt lat="40.0710394" lon="-105.2291528">
  <ele>1583.0</ele>
  <time>2026-08-28T17:49:52Z</time>
  <course>331.75</course>
  <speed>3.18</speed>
  <fix>3d</fix>
</trkpt>
<trkpt lat="40.0710454" lon="-105.2291574">
  <ele>1583.01</ele>
  <time>2026-08-28T17:49:52Z</time>
  <course>330.48</course>
  <speed>3.453983207834109</speed>
  <fix>3d</fix>
</trkpt>
<trkpt lat="40.0710394" lon="-105.2291528">
  <ele>1583.0</ele>
  <time>2026-08-28T17:49:52Z</time>
  <course>331.75</course>
  <speed>3.18</speed>
  <fix>3d</fix>
</trkpt>
<trkpt lat="40.0710481" lon="-105.2291596">
  <ele>1583.01</ele>
  <time>2026-08-28T17:49:52Z</time>
  <course>329.64</course>
  <speed>3.5796228851654193</speed>
  <fix>3d</fix>
</trkpt>
<trkpt lat="40.0710394" lon="-105.2291528">
  <ele>1583.0</ele>
  <time>2026-08-28T17:49:52Z</time>
  <course>331.75</course>
  <speed>3.18</speed>
  <fix>3d</fix>
</trkpt>
<trkpt lat="40.0710509" lon="-105.2291618">
  <ele>1583.02</ele>
  <time>2026-08-28T17:49:52Z</time>
  <course>328.95</course>
  <speed>3.678369203872825</speed>
  <fix>3d</fix>
</trkpt>
<trkpt lat="40.0710446" lon="-105.2291566">
  <ele>1583.0</ele>
  <time>2026-08-28T17:49:52Z</time>
  <course>329.53</course>
  <speed>3.42</speed>
  <fix>3d</fix>
</trkpt>
<trkpt lat="40.0710537" lon="-105.2291642">
  <ele>1583.02</ele>
  <time>2026-08-28T17:49:52Z</time>
  <course>328.42</course>
  <speed>3.7667094392851697</speed>
  <fix>3d</fix>
</trkpt>
<trkpt lat="40.0710446" lon="-105.2291566">
  <ele>1583.0</ele>
  <time>2026-08-28T17:49:52Z</time>
  <course>329.53</course>
  <speed>3.42</speed>
  <fix>3d</fix>
</trkpt>
<trkpt lat="40.0710566" lon="-105.2291666">
  <ele>1583.02</ele>
  <time>2026-08-28T17:49:52Z</time>
  <course>328.03</course>
  <speed>3.855230213618896</speed>
  <fix>3d</fix>
</trkpt>
<trkpt lat="40.07105" lon="-105.2291609">
  <ele>1583.0</ele>
  <time>2026-08-28T17:49:52Z</time>
  <course>328.0</course>
  <speed>3.63</speed>
  <fix>3d</fix>
</trkpt>
<trkpt lat="40.0710595" lon="-105.2291691">
  <ele>1583.03</ele>
  <time>2026-08-28T17:49:52Z</time>
  <course>327.78</course>
  <speed>3.9328488402174826</speed>
  <fix>3d</fix>
</trkpt>
<trkpt lat="40.07105" lon="-105.2291609">
  <ele>1583.0</ele>
  <time>2026-08-28T17:49:52Z</time>
  <course>328.0</course>
  <speed>3.63</speed>
  <fix>3d</fix>
</trkpt>
<trkpt lat="40.0710624" lon="-105.2291716">
  <ele>1583.03</ele>
  <time>2026-08-28T17:49:52Z</time>
  <course>327.66</course>
  <speed>3.9882953752198445</speed>
  <fix>3d</fix>
</trkpt>
<trkpt lat="40.0710557" lon="-105.2291656">
  <ele>1583.0</ele>
  <time>2026-08-28T17:49:52Z</time>
  <course>327.08</course>
  <speed>3.82</speed>
  <fix>3d</fix>
</trkpt>
<trkpt lat="40.0710654" lon="-105.2291742">
  <ele>1583.03</ele>
  <time>2026-08-28T17:49:52Z</time>
  <course>327.65</course>
  <speed>4.032679010285842</speed>
  <fix>3d</fix>
</trkpt>
<trkpt lat="40.0710616" lon="-105.2291706">
  <ele>1583.0</ele>
  <time>2026-08-28T17:49:52Z</time>
  <course>326.71</course>
  <speed>3.95</speed>
  <fix>3d</fix>
</trkpt>
<trkpt lat="40.0710684" lon="-105.2291768">
  <ele>1583.03</ele>
  <time>2026-08-28T17:49:52Z</time>
  <course>327.64</course>
  <speed>4.068734446974882</speed>
  <fix>3d</fix>
</trkpt>
<trkpt lat="40.0710616" lon="-105.2291706">
  <ele>1583.0</ele>
  <time>2026-08-28T17:49:52Z</time>
  <course>326.71</course>
  <speed>3.95</speed>
  <fix>3d</fix>
</trkpt>
<trkpt lat="40.0710715" lon="-105.2291794">
  <ele>1583.03</ele>
  <time>2026-08-28T17:49:52Z</time>
  <course>327.64</course>
  <speed>4.090928989850593</speed>
  <fix>3d</fix>
</trkpt>
<trkpt lat="40.0710676" lon="-105.2291757">
  <ele>1583.0</ele>
  <time>2026-08-28T17:49:52Z</time>
  <course>326.63</course>
  <speed>4.04</speed>
  <fix>3d</fix>
</trkpt>
<trkpt lat="40.0710746" lon="-105.229182">
  <ele>1583.03</ele>
  <time>2026-08-28T17:49:52Z</time>
  <course>327.59</course>
  <speed>4.104789885000205</speed>
  <fix>3d</fix>
</trkpt>
<trkpt lat="40.0710676" lon="-105.2291757">
  <ele>1583.0</ele>
  <time>2026-08-28T17:49:52Z</time>
  <course>326.63</course>
  <speed>4.04</speed>
  <fix>3d</fix>
</trkpt>
<trkpt lat="40.0710777" lon="-105.2291847">
  <ele>1583.03</ele>
  <time>2026-08-28T17:49:52Z</time>
  <course>327.54</course>
  <speed>4.096461888019953</speed>
  <fix>3d</fix>
</trkpt>
<trkpt lat="40.0710737" lon="-105.229181">
  <ele>1583.0</ele>
  <time>2026-08-28T17:49:52Z</time>
  <course>326.57</course>
  <speed>4.08</speed>
  <fix>3d</fix>
</trkpt>
<trkpt lat="40.0710807" lon="-105.2291873">
  <ele>1583.03</ele>
  <time>2026-08-28T17:49:52Z</time>
  <course>327.49</course>
  <speed>4.08814138698749</speed>
  <fix>3d</fix>
</trkpt>
<trkpt lat="40.0710737" lon="-105.229181">
  <ele>1583.0</ele>
  <time>2026-08-28T17:49:52Z</time>
  <course>326.57</course>
  <speed>4.08</speed>
  <fix>3d</fix>
</trkpt>
<trkpt lat="40.0710838" lon="-105.22919">
  <ele>1583.03</ele>
  <time>2026-08-28T17:49:52Z</time>
  <course>327.44</course>
  <speed>4.065956222095855</speed>
  <fix>3d</fix>
</trkpt>
<trkpt lat="40.0710798" lon="-105.2291863">
  <ele>1583.0</ele>
  <time>2026-08-28T17:49:52Z</time>
  <course>326.46</course>
  <speed>4.06</speed>
  <fix>3d</fix>
</trkpt>
<trkpt lat="40.0710869" lon="-105.2291926">
  <ele>1583.03</ele>
  <time>2026-08-28T17:49:52Z</time>
  <course>327.39</course>
  <speed>4.029900743194552</speed>
  <fix>3d</fix>
</trkpt>
<trkpt lat="40.0710798" lon="-105.2291863">
  <ele>1583.0</ele>
  <time>2026-08-28T17:49:52Z</time>
  <course>326.46</course>
  <speed>4.06</speed>
  <fix>3d</fix>
</trkpt>
<trkpt lat="40.0710899" lon="-105.2291953">
  <ele>1583.03</ele>
  <time>2026-08-28T17:49:52Z</time>
  <course>327.33</course>
  <speed>3.999412456849131</speed>
  <fix>3d</fix>
</trkpt>
<trkpt lat="40.0710859" lon="-105.2291915">
  <ele>1583.0</ele>
  <time>2026-08-28T17:49:52Z</time>
  <course>326.34</course>
  <speed>4.02</speed>
  <fix>3d</fix>
</trkpt>
<trkpt lat="40.0710929" lon="-105.2291978">
  <ele>1583.03</ele>
  <time>2026-08-28T17:49:52Z</time>
  <course>327.23</course>
  <speed>3.9550600501130195</speed>
  <fix>3d</fix>
</trkpt>
<trkpt lat="40.0710859" lon="-105.2291915">
  <ele>1583.0</ele>
  <time>2026-08-28T17:49:52Z</time>
  <course>326.34</course>
  <speed>4.02</speed>
  <fix>3d</fix>
</trkpt>
<trkpt lat="40.0710958" lon="-105.2292004">
  <ele>1583.03</ele>
  <time>2026-08-28T17:49:52Z</time>
  <course>327.13</course>
  <speed>3.902435137193186</speed>
  <fix>3d</fix>
</trkpt>
<trkpt lat="40.0710918" lon="-105.2291968">
  <ele>1583.0</ele>
  <time>2026-08-28T17:49:52Z</time>
  <course>326.18</course>
  <speed>3.94</speed>
  <fix>3d</fix>
</trkpt>
<trkpt lat="40.0710987" lon="-105.229203">
  <ele>1583.03</ele>
  <time>2026-08-28T17:49:52Z</time>
  <course>327.03</course>
  <speed>3.858108344772085</speed>
  <fix>3d</fix>
</trkpt>
<trkpt lat="40.0710918" lon="-105.2291968">
  <ele>1583.0</ele>
  <time>2026-08-28T17:49:52Z</time>
  <course>326.18</course>
  <speed>3.94</speed>
  <fix>3d</fix>
</trkpt>
<trkpt lat="40.0711015" lon="-105.2292055">
  <ele>1583.03</ele>
  <time>2026-08-28T17:49:52Z</time>
  <course>326.93</course>
  <speed>3.7998947353841266</speed>
  <fix>3d</fix>
</trkpt>
<trkpt lat="40.0710976" lon="-105.2292018">
  <ele>1583.0</ele>
  <time>2026-08-28T17:49:52Z</time>
  <course>325.97</course>
  <speed>3.85</speed>
  <fix>3d</fix>
</trkpt>
<trkpt lat="40.0711043" lon="-105.229208">
  <ele>1583.03</ele>
  <time>2026-08-28T17:49:52Z</time>
  <course>326.81</course>
  <speed>3.755582511408849</speed>
  <fix>3d</fix>
</trkpt>
<trkpt lat="40.0710976" lon="-105.2292018">
  <ele>1583.0</ele>
  <time>2026-08-28T17:49:52Z</time>
  <course>325.97</course>
  <speed>3.85</speed>
  <fix>3d</fix>
</trkpt>
<trkpt lat="40.0711071" lon="-105.2292104">
  <ele>1583.03</ele>
  <time>2026-08-28T17:49:52Z</time>
  <course>326.69</course>
  <speed>3.7030392922571047</speed>
  <fix>3d</fix>
</trkpt>
<trkpt lat="40.0710976" lon="-105.2292018">
  <ele>1583.0</ele>
  <time>2026-08-28T17:49:52Z</time>
  <course>325.97</course>
  <speed>3.85</speed>
  <fix>3d</fix>
</trkpt>
<trkpt lat="40.0711098" lon="-105.2292128">
  <ele>1583.03</ele>
  <time>2026-08-28T17:49:52Z</time>
  <course>326.57</course>
  <speed>3.6587566193995467</speed>
  <fix>3d</fix>
</trkpt>
<trkpt lat="40.0711033" lon="-105.2292069">
  <ele>1583.0</ele>
  <time>2026-08-28T17:49:52Z</time>
  <course>325.74</course>
  <speed>3.75</speed>
  <fix>3d</fix>
</trkpt>
<trkpt lat="40.0711125" lon="-105.2292152">
  <ele>1583.03</ele>
  <time>2026-08-28T17:49:52Z</time>
  <course>326.45</course>
  <speed>3.614484748895754</speed>
  <fix>3d</fix>
</trkpt>
<trkpt lat="40.0711033" lon="-105.2292069">
  <ele>1583.0</ele>
  <time>2026-08-28T17:49:52Z</time>
  <course>325.74</course>
  <speed>3.75</speed>
  <fix>3d</fix>
</trkpt>
<trkpt lat="40.0711151" lon="-105.2292176">
  <ele>1583.03</ele>
  <time>2026-08-28T17:49:52Z</time>
  <course>326.31</course>
  <speed>3.5759474269066094</speed>
  <fix>3d</fix>
</trkpt>
<trkpt lat="40.0711088" lon="-105.2292118">
  <ele>1583.0</ele>
  <time>2026-08-28T17:49:52Z</time>
  <course>325.49</course>
  <speed>3.67</speed>
  <fix>3d</fix>
</trkpt>
<trkpt lat="40.0711177" lon="-105.22922">
  <ele>1583.04</ele>
  <time>2026-08-28T17:49:52Z</time>
  <course>326.19</course>
  <speed>3.5456452163181806</speed>
  <fix>3d</fix>
</trkpt>
<trkpt lat="40.0711088" lon="-105.2292118">
  <ele>1583.0</ele>
  <time>2026-08-28T17:49:52Z</time>
  <course>325.49</course>
  <speed>3.67</speed>
  <fix>3d</fix>
</trkpt>
<trkpt lat="40.0711202" lon="-105.2292223">
  <ele>1583.04</ele>
  <time>2026-08-28T17:49:52Z</time>
  <course>326.04</course>
  <speed>3.515366268257121</speed>
  <fix>3d</fix>
</trkpt>
<trkpt lat="40.0711141" lon="-105.2292167">
  <ele>1583.0</ele>
  <time>2026-08-28T17:49:52Z</time>
  <course>325.23</course>
  <speed>3.6</speed>
  <fix>3d</fix>
</trkpt>
<trkpt lat="40.0711228" lon="-105.2292247">
  <ele>1583.04</ele>
  <time>2026-08-28T17:49:52Z</time>
  <course>325.92</course>
  <speed>3.493264948440069</speed>
  <fix>3d</fix>
</trkpt>
<trkpt lat="40.0711141" lon="-105.2292167">
  <ele>1583.0</ele>
  <time>2026-08-28T17:49:52Z</time>
  <course>325.23</course>
  <speed>3.6</speed>
  <fix>3d</fix>
</trkpt>
<trkpt lat="40.0711253" lon="-105.229227">
  <ele>1583.04</ele>
  <time>2026-08-28T17:49:52Z</time>
  <course>325.79</course>
  <speed>3.4711669507530174</speed>
  <fix>3d</fix>
</trkpt>
<trkpt lat="40.0711194" lon="-105.2292215">
  <ele>1583.0</ele>
  <time>2026-08-28T17:49:52Z</time>
  <course>324.97</course>
  <speed>3.54</speed>
  <fix>3d</fix>
</trkpt>
<trkpt lat="40.0711279" lon="-105.2292294">
  <ele>1583.04</ele>
  <time>2026-08-28T17:49:52Z</time>
  <course>325.65</course>
  <speed>3.4548806057518107</speed>
  <fix>3d</fix>
</trkpt>
<trkpt lat="40.0711246" lon="-105.2292262">
  <ele>1583.0</ele>
  <time>2026-08-28T17:49:52Z</time>
  <course>324.7</course>
  <speed>3.51</speed>
  <fix>3d</fix>
</trkpt>
<trkpt lat="40.0711304" lon="-105.2292317">
  <ele>1583.04</ele>
  <time>2026-08-28T17:49:52Z</time>
  <course>325.53</course>
  <speed>3.4467520943636196</speed>
  <fix>3d</fix>
</trkpt>
<trkpt lat="40.0711246" lon="-105.2292262">
  <ele>1583.0</ele>
  <time>2026-08-28T17:49:52Z</time>
  <course>324.7</course>
  <speed>3.51</speed>
  <fix>3d</fix>
</trkpt>
<trkpt lat="40.0711329" lon="-105.2292341">
  <ele>1583.04</ele>
  <time>2026-08-28T17:49:52Z</time>
  <course>325.39</course>
  <speed>3.4386334494970527</speed>
  <fix>3d</fix>
</trkpt>
<trkpt lat="40.0711297" lon="-105.229231">
  <ele>1583.0</ele>
  <time>2026-08-28T17:49:52Z</time>
  <course>324.43</course>
  <speed>3.49</speed>
  <fix>3d</fix>
</trkpt>
<trkpt lat="40.0711354" lon="-105.2292364">
  <ele>1583.03</ele>
  <time>2026-08-28T17:49:52Z</time>
  <course>325.26</course>
  <speed>3.444488350974641</speed>
  <fix>3d</fix>
</trkpt>
<trkpt lat="40.0711297" lon="-105.229231">
  <ele>1583.0</ele>
  <time>2026-08-28T17:49:52Z</time>
  <course>324.43</course>
  <speed>3.49</speed>
  <fix>3d</fix>
</trkpt>
<trkpt lat="40.0711379" lon="-105.2292388">
  <ele>1583.03</ele>
  <time>2026-08-28T17:49:52Z</time>
  <course>325.13</course>
  <speed>3.450362299817223</speed>
  <fix>3d</fix>
</trkpt>
<trkpt lat="40.0711348" lon="-105.2292358">
  <ele>1583.0</ele>
  <time>2026-08-28T17:49:52Z</time>
  <course>324.17</course>
  <speed>3.49</speed>
  <fix>3d</fix>
</trkpt>
<trkpt lat="40.0711405" lon="-105.2292412">
  <ele>1583.03</ele>
  <time>2026-08-28T17:49:52Z</time>
  <course>324.99</course>
  <speed>3.450362299817223</speed>
  <fix>3d</fix>
</trkpt>
<trkpt lat="40.0711348" lon="-105.2292358">
  <ele>1583.0</ele>
  <time>2026-08-28T17:49:52Z</time>
  <course>324.17</course>
  <speed>3.49</speed>
  <fix>3d</fix>
</trkpt>
<trkpt lat="40.071143" lon="-105.2292437">
  <ele>1583.03</ele>
  <time>2026-08-28T17:49:52Z</time>
  <course>324.87</course>
  <speed>3.456255198911099</speed>
  <fix>3d</fix>
</trkpt>
<trkpt lat="40.0711399" lon="-105.2292406">
  <ele>1583.0</ele>
  <time>2026-08-28T17:49:52Z</time>
  <course>323.92</course>
  <speed>3.49</speed>
  <fix>3d</fix>
</trkpt>
<trkpt lat="40.0711456" lon="-105.2292461">
  <ele>1583.02</ele>
  <time>2026-08-28T17:49:52Z</time>
  <course>324.74</course>
  <speed>3.4621669514915077</speed>
  <fix>3d</fix>
</trkpt>
<trkpt lat="40.0711399" lon="-105.2292406">
  <ele>1583.0</ele>
  <time>2026-08-28T17:49:52Z</time>
  <course>323.92</course>
  <speed>3.49</speed>
  <fix>3d</fix>
</trkpt>
<trkpt lat="40.0711481" lon="-105.2292486">
  <ele>1583.02</ele>
  <time>2026-08-28T17:49:52Z</time>
  <course>324.62</course>
  <speed>3.476147292621531</speed>
  <fix>3d</fix>
</trkpt>
<trkpt lat="40.071145" lon="-105.2292455">
  <ele>1583.0</ele>
  <time>2026-08-28T17:49:52Z</time>
  <course>323.66</course>
  <speed>3.51</speed>
  <fix>3d</fix>
</trkpt>
<trkpt lat="40.0711507" lon="-105.229251">
  <ele>1583.02</ele>
  <time>2026-08-28T17:49:52Z</time>
  <course>324.48</course>
  <speed>3.488036697054662</speed>
  <fix>3d</fix>
</trkpt>
<trkpt lat="40.071145" lon="-105.2292455">
  <ele>1583.0</ele>
  <time>2026-08-28T17:49:52Z</time>
  <course>323.66</course>
  <speed>3.51</speed>
  <fix>3d</fix>
</trkpt>
<trkpt lat="40.0711533" lon="-105.2292535">
  <ele>1583.02</ele>
  <time>2026-08-28T17:49:52Z</time>
  <course>324.34</course>
  <speed>3.50202798389733</speed>
  <fix>3d</fix>
</trkpt>
<trkpt lat="40.0711501" lon="-105.2292504">
  <ele>1583.0</ele>
  <time>2026-08-28T17:49:52Z</time>
  <course>323.41</course>
  <speed>3.53</speed>
  <fix>3d</fix>
</trkpt>
<trkpt lat="40.0711558" lon="-105.229256">
  <ele>1583.01</ele>
  <time>2026-08-28T17:49:52Z</time>
  <course>324.22</course>
  <speed>3.508005131125096</speed>
  <fix>3d</fix>
</trkpt>
<trkpt lat="40.0711501" lon="-105.2292504">
  <ele>1583.0</ele>
  <time>2026-08-28T17:49:52Z</time>
  <course>323.41</course>
  <speed>3.53</speed>
  <fix>3d</fix>
</trkpt>
<trkpt lat="40.0711584" lon="-105.2292585">
  <ele>1583.01</ele>
  <time>2026-08-28T17:49:52Z</time>
  <course>324.1</course>
  <speed>3.522002271435951</speed>
  <fix>3d</fix>
</trkpt>
<trkpt lat="40.0711552" lon="-105.2292554">
  <ele>1583.0</ele>
  <time>2026-08-28T17:49:52Z</time>
  <course>323.15</course>
  <speed>3.55</speed>
  <fix>3d</fix>
</trkpt>
<trkpt lat="40.071161" lon="-105.229261">
  <ele>1583.01</ele>
  <time>2026-08-28T17:49:52Z</time>
  <course>323.96</course>
  <speed>3.534020373455705</speed>
  <fix>3d</fix>
</trkpt>
<trkpt lat="40.0711552" lon="-105.2292554">
  <ele>1583.0</ele>
  <time>2026-08-28T17:49:52Z</time>
  <course>323.15</course>
  <speed>3.55</speed>
  <fix>3d</fix>
</trkpt>
<trkpt lat="40.0711635" lon="-105.2292636">
  <ele>1583.02</ele>
  <time>2026-08-28T17:49:52Z</time>
  <course>323.84</course>
  <speed>3.548027621087525</speed>
  <fix>3d</fix>
</trkpt>
<trkpt lat="40.0711552" lon="-105.2292554">
  <ele>1583.0</ele>
  <time>2026-08-28T17:49:52Z</time>
  <course>323.15</course>
  <speed>3.55</speed>
  <fix>3d</fix>
</trkpt>
<trkpt lat="40.0711661" lon="-105.2292661">
  <ele>1583.02</ele>
  <time>2026-08-28T17:49:52Z</time>
  <course>323.72</course>
  <speed>3.5540680916380882</speed>
  <fix>3d</fix>
</trkpt>
<trkpt lat="40.0711603" lon="-105.2292604">
  <ele>1583.0</ele>
  <time>2026-08-28T17:49:52Z</time>
  <course>322.9</course>
  <speed>3.57</speed>
  <fix>3d</fix>
</trkpt>
<trkpt lat="40.0711686" lon="-105.2292687">
  <ele>1583.02</ele>
  <time>2026-08-28T17:49:52Z</time>
  <course>323.59</course>
  <speed>3.560126402250347</speed>
  <fix>3d</fix>
</trkpt>
<trkpt lat="40.0711603" lon="-105.2292604">
  <ele>1583.0</ele>
  <time>2026-08-28T17:49:52Z</time>
  <course>322.9</course>
  <speed>3.57</speed>
  <fix>3d</fix>
</trkpt>
<trkpt lat="40.0711712" lon="-105.2292712">
  <ele>1583.02</ele>
  <time>2026-08-28T17:49:52Z</time>
  <course>323.49</course>
  <speed>3.566202462003525</speed>
  <fix>3d</fix>
</trkpt>
<trkpt lat="40.0711654" lon="-105.2292655">
  <ele>1583.0</ele>
  <time>2026-08-28T17:49:52Z</time>
  <course>322.65</course>
  <speed>3.59</speed>
  <fix>3d</fix>
</trkpt>
<trkpt lat="40.0711737" lon="-105.2292738">
  <ele>1583.02</ele>
  <time>2026-08-28T17:49:52Z</time>
  <course>323.4</course>
  <speed>3.566202462003525</speed>
  <fix>3d</fix>
</trkpt>
<trkpt lat="40.0711654" lon="-105.2292655">
  <ele>1583.0</ele>
  <time>2026-08-28T17:49:52Z</time>
  <course>322.65</course>
  <speed>3.59</speed>
  <fix>3d</fix>
</trkpt>
<trkpt lat="40.0711763" lon="-105.2292763">
  <ele>1583.02</ele>
  <time>2026-08-28T17:49:52Z</time>
  <course>323.3</course>
  <speed>3.572296180329957</speed>
  <fix>3d</fix>
</trkpt>
<trkpt lat="40.0711706" lon="-105.2292707">
  <ele>1583.0</ele>
  <time>2026-08-28T17:49:52Z</time>
  <course>322.43</course>
  <speed>3.61</speed>
  <fix>3d</fix>
</trkpt>
<trkpt lat="40.0711789" lon="-105.2292789">
  <ele>1583.02</ele>
  <time>2026-08-28T17:49:52Z</time>
  <course>323.21</course>
  <speed>3.5863212349146862</speed>
  <fix>3d</fix>
</trkpt>
<trkpt lat="40.0711757" lon="-105.2292758">
  <ele>1583.0</ele>
  <time>2026-08-28T17:49:52Z</time>
  <course>322.24</course>
  <speed>3.62</speed>
  <fix>3d</fix>
</trkpt>
<trkpt lat="40.0711814" lon="-105.2292815">
  <ele>1583.02</ele>
  <time>2026-08-28T17:49:52Z</time>
  <course>323.16</course>
  <speed>3.5863212349146862</speed>
  <fix>3d</fix>
</trkpt>
<trkpt lat="40.0711757" lon="-105.2292758">
  <ele>1583.0</ele>
  <time>2026-08-28T17:49:52Z</time>
  <course>322.24</course>
  <speed>3.62</speed>
  <fix>3d</fix>
</trkpt>
<trkpt lat="40.071184" lon="-105.2292842">
  <ele>1583.02</ele>
  <time>2026-08-28T17:49:52Z</time>
  <course>323.11</course>
  <speed>3.592436499090833</speed>
  <fix>3d</fix>
</trkpt>
<trkpt lat="40.0711809" lon="-105.2292811">
  <ele>1583.0</ele>
  <time>2026-08-28T17:49:52Z</time>
  <course>322.09</course>
  <speed>3.63</speed>
  <fix>3d</fix>
</trkpt>
<trkpt lat="40.0711866" lon="-105.2292868">
  <ele>1583.01</ele>
  <time>2026-08-28T17:49:52Z</time>
  <course>323.06</course>
  <speed>3.592436499090833</speed>
  <fix>3d</fix>
</trkpt>
<trkpt lat="40.0711809" lon="-105.2292811">
  <ele>1583.0</ele>
  <time>2026-08-28T17:49:52Z</time>
  <course>322.09</course>
  <speed>3.63</speed>
  <fix>3d</fix>
</trkpt>
<trkpt lat="40.0711892" lon="-105.2292894">
  <ele>1583.01</ele>
  <time>2026-08-28T17:49:52Z</time>
  <course>323.02</course>
  <speed>3.592436499090833</speed>
  <fix>3d</fix>
</trkpt>
<trkpt lat="40.0711861" lon="-105.2292863">
  <ele>1583.0</ele>
  <time>2026-08-28T17:49:52Z</time>
  <course>322.0</course>
  <speed>3.64</speed>
  <fix>3d</fix>
</trkpt>
<trkpt lat="40.0711918" lon="-105.2292921">
  <ele>1583.01</ele>
  <time>2026-08-28T17:49:52Z</time>
  <course>323.02</course>
  <speed>3.6064664146502183</speed>
  <fix>3d</fix>
</trkpt>
<trkpt lat="40.0711861" lon="-105.2292863">
  <ele>1583.0</ele>
  <time>2026-08-28T17:49:52Z</time>
  <course>322.0</course>
  <speed>3.64</speed>
  <fix>3d</fix>
</trkpt>
<trkpt lat="40.0711944" lon="-105.2292947">
  <ele>1583.01</ele>
  <time>2026-08-28T17:49:52Z</time>
  <course>323.01</course>
  <speed>3.6064664146502183</speed>
  <fix>3d</fix>
</trkpt>
<trkpt lat="40.0711912" lon="-105.2292916">
  <ele>1583.0</ele>
  <time>2026-08-28T17:49:52Z</time>
  <course>321.95</course>
  <speed>3.64</speed>
  <fix>3d</fix>
</trkpt>
<trkpt lat="40.071197" lon="-105.2292974">
  <ele>1583.01</ele>
  <time>2026-08-28T17:49:52Z</time>
  <course>323.01</course>
  <speed>3.6064664146502183</speed>
  <fix>3d</fix>
</trkpt>
<trkpt lat="40.0711912" lon="-105.2292916">
  <ele>1583.0</ele>
  <time>2026-08-28T17:49:52Z</time>
  <course>321.95</course>
  <speed>3.64</speed>
  <fix>3d</fix>
</trkpt>
<trkpt lat="40.0711996" lon="-105.2293">
  <ele>1583.0</ele>
  <time>2026-08-28T17:49:52Z</time>
  <course>323.01</course>
  <speed>3.6064664146502183</speed>
  <fix>3d</fix>
</trkpt>
<trkpt lat="40.0711964" lon="-105.2292969">
  <ele>1583.0</ele>
  <time>2026-08-28T17:49:52Z</time>
  <course>321.95</course>
  <speed>3.64</speed>
  <fix>3d</fix>
</trkpt>
<trkpt lat="40.0712022" lon="-105.2293027">
  <ele>1583.0</ele>
  <time>2026-08-28T17:49:52Z</time>
  <course>323.01</course>
  <speed>3.600347205478938</speed>
  <fix>3d</fix>
</trkpt>
<trkpt lat="40.0711964" lon="-105.2292969">
  <ele>1583.0</ele>
  <time>2026-08-28T17:49:52Z</time>
  <course>321.95</course>
  <speed>3.64</speed>
  <fix>3d</fix>
</trkpt>
<trkpt lat="40.0712048" lon="-105.2293053">
  <ele>1583.0</ele>
  <time>2026-08-28T17:49:52Z</time>
  <course>323.01</course>
  <speed>3.600347205478938</speed>
  <fix>3d</fix>
</trkpt>
<trkpt lat="40.0712015" lon="-105.2293021">
  <ele>1583.0</ele>
  <time>2026-08-28T17:49:52Z</time>
  <course>321.95</course>
  <speed>3.64</speed>
  <fix>3d</fix>
</trkpt>
<trkpt lat="40.0712074" lon="-105.2293079">
  <ele>1583.0</ele>
  <time>2026-08-28T17:49:52Z</time>
  <course>323.01</course>
  <speed>3.600347205478938</speed>
  <fix>3d</fix>
</trkpt>
<trkpt lat="40.0712015" lon="-105.2293021">
  <ele>1583.0</ele>
  <time>2026-08-28T17:49:52Z</time>
  <course>321.95</course>
  <speed>3.64</speed>
  <fix>3d</fix>
</trkpt>
<trkpt lat="40.07121" lon="-105.2293106">
  <ele>1583.0</ele>
  <time>2026-08-28T17:49:52Z</time>
  <course>323.03</course>
  <speed>3.600347205478938</speed>
  <fix>3d</fix>
</trkpt>
<trkpt lat="40.0712067" lon="-105.2293074">
  <ele>1583.0</ele>
  <time>2026-08-28T17:49:52Z</time>
  <course>321.96</course>
  <speed>3.64</speed>
  <fix>3d</fix>
</trkpt>
<trkpt lat="40.0712126" lon="-105.2293132">
  <ele>1583.0</ele>
  <time>2026-08-28T17:49:52Z</time>
  <course>323.08</course>
  <speed>3.600347205478938</speed>
  <fix>3d</fix>
</trkpt>
<trkpt lat="40.0712067" lon="-105.2293074">
  <ele>1583.0</ele>
  <time>2026-08-28T17:49:52Z</time>
  <course>321.96</course>
  <speed>3.64</speed>
  <fix>3d</fix>
</trkpt>
<trkpt lat="40.0712152" lon="-105.2293158">
  <ele>1583.0</ele>
  <time>2026-08-28T17:49:52Z</time>
  <course>323.13</course>
  <speed>3.5942454006369684</speed>
  <fix>3d</fix>
</trkpt>
<trkpt lat="40.0712067" lon="-105.2293074">
  <ele>1583.0</ele>
  <time>2026-08-28T17:49:52Z</time>
  <course>321.96</course>
  <speed>3.64</speed>
  <fix>3d</fix>
</trkpt>
<trkpt lat="40.0712177" lon="-105.2293184">
  <ele>1583.0</ele>
  <time>2026-08-28T17:49:52Z</time>
  <course>323.18</course>
  <speed>3.5942454006369684</speed>
  <fix>3d</fix>
</trkpt>
<trkpt lat="40.0712118" lon="-105.2293127">
  <ele>1583.0</ele>
  <time>2026-08-28T17:49:52Z</time>
  <course>322.02</course>
  <speed>3.63</speed>
  <fix>3d</fix>
</trkpt>
<trkpt lat="40.0712203" lon="-105.229321">
  <ele>1583.0</ele>
  <time>2026-08-28T17:49:52Z</time>
  <course>323.27</course>
  <speed>3.5881610889144873</speed>
  <fix>3d</fix>
</trkpt>
<trkpt lat="40.0712118" lon="-105.2293127">
  <ele>1583.0</ele>
  <time>2026-08-28T17:49:52Z</time>
  <course>322.02</course>
  <speed>3.63</speed>
  <fix>3d</fix>
</trkpt>
<trkpt lat="40.0712228" lon="-105.2293236">
  <ele>1583.0</ele>
  <time>2026-08-28T17:49:52Z</time>
  <course>323.37</course>
  <speed>3.5881610889144873</speed>
  <fix>3d</fix>
</trkpt>
<trkpt lat="40.071217" lon="-105.2293179">
  <ele>1583.0</ele>
  <time>2026-08-28T17:49:52Z</time>
  <course>322.14</course>
  <speed>3.63</speed>
  <fix>3d</fix>
</trkpt>
<trkpt lat="40.0712254" lon="-105.2293262">
  <ele>1583.0</ele>
  <time>2026-08-28T17:49:52Z</time>
  <course>323.47</course>
  <speed>3.5820943594495107</speed>
  <fix>3d</fix>
</trkpt>
<trkpt lat="40.071217" lon="-105.2293179">
  <ele>1583.0</ele>
  <time>2026-08-28T17:49:52Z</time>
  <course>322.14</course>
  <speed>3.63</speed>
  <fix>3d</fix>
</trkpt>
<trkpt lat="40.071228" lon="-105.2293288">
  <ele>1583.0</ele>
  <time>2026-08-28T17:49:52Z</time>
  <course>323.57</course>
  <speed>3.5840200892294116</speed>
  <fix>3d</fix>
</trkpt>
<trkpt lat="40.0712221" lon="-105.2293232">
  <ele>1583.0</ele>
  <time>2026-08-28T17:49:52Z</time>
  <course>322.31</course>
  <speed>3.63</speed>
  <fix>3d</fix>
</trkpt>
<trkpt lat="40.0712305" lon="-105.2293313">
  <ele>1582.99</ele>
  <time>2026-08-28T17:49:52Z</time>
  <course>323.67</course>
  <speed>3.578002235885271</speed>
  <fix>3d</fix>
</trkpt>
<trkpt lat="40.0712221" lon="-105.2293232">
  <ele>1583.0</ele>
  <time>2026-08-28T17:49:52Z</time>
  <course>322.31</course>
  <speed>3.63</speed>
  <fix>3d</fix>
</trkpt>
<trkpt lat="40.0712331" lon="-105.2293339">
  <ele>1582.99</ele>
  <time>2026-08-28T17:49:52Z</time>
  <course>323.77</course>
  <speed>3.578002235885271</speed>
  <fix>3d</fix>
</trkpt>
<trkpt lat="40.0712273" lon="-105.2293284">
  <ele>1583.0</ele>
  <time>2026-08-28T17:49:52Z</time>
  <course>322.51</course>
  <speed>3.62</speed>
  <fix>3d</fix>
</trkpt>
<trkpt lat="40.0712357" lon="-105.2293364">
  <ele>1582.99</ele>
  <time>2026-08-28T17:49:52Z</time>
  <course>323.87</course>
  <speed>3.5720022396409554</speed>
  <fix>3d</fix>
</trkpt>
<trkpt lat="40.0712324" lon="-105.2293335">
  <ele>1583.0</ele>
  <time>2026-08-28T17:49:52Z</time>
  <course>322.7</course>
  <speed>3.62</speed>
  <fix>3d</fix>
</trkpt>
<trkpt lat="40.0712383" lon="-105.229339">
  <ele>1582.99</ele>
  <time>2026-08-28T17:49:52Z</time>
  <course>323.97</course>
  <speed>3.580013966453204</speed>
  <fix>3d</fix>
</trkpt>
<trkpt lat="40.0712324" lon="-105.2293335">
  <ele>1583.0</ele>
  <time>2026-08-28T17:49:52Z</time>
  <course>322.7</course>
  <speed>3.62</speed>
  <fix>3d</fix>
</trkpt>
<trkpt lat="40.0712408" lon="-105.2293415">
  <ele>1582.99</ele>
  <time>2026-08-28T17:49:52Z</time>
  <course>324.07</course>
  <speed>3.574045327076868</speed>
  <fix>3d</fix>
</trkpt>
<trkpt lat="40.0712377" lon="-105.2293387">
  <ele>1583.0</ele>
  <time>2026-08-28T17:49:52Z</time>
  <course>322.9</course>
  <speed>3.62</speed>
  <fix>3d</fix>
</trkpt>
<trkpt lat="40.0712435" lon="-105.2293441">
  <ele>1582.99</ele>
  <time>2026-08-28T17:49:52Z</time>
  <course>324.16</course>
  <speed>3.5820804011077136</speed>
  <fix>3d</fix>
</trkpt>
<trkpt lat="40.0712377" lon="-105.2293387">
  <ele>1583.0</ele>
  <time>2026-08-28T17:49:52Z</time>
  <course>322.9</course>
  <speed>3.62</speed>
  <fix>3d</fix>
</trkpt>
<trkpt lat="40.0712461" lon="-105.2293467">
  <ele>1582.99</ele>
  <time>2026-08-28T17:49:52Z</time>
  <course>324.26</course>
  <speed>3.5820804011077136</speed>
  <fix>3d</fix>
</trkpt>
<trkpt lat="40.0712429" lon="-105.2293438">
  <ele>1583.0</ele>
  <time>2026-08-28T17:49:52Z</time>
  <course>323.1</course>
  <speed>3.62</speed>
  <fix>3d</fix>
</trkpt>
<trkpt lat="40.0712487" lon="-105.2293492">
  <ele>1582.99</ele>
  <time>2026-08-28T17:49:52Z</time>
  <course>324.38</course>
  <speed>3.5842014452315594</speed>
  <fix>3d</fix>
</trkpt>
<trkpt lat="40.0712429" lon="-105.2293438">
  <ele>1583.0</ele>
  <time>2026-08-28T17:49:52Z</time>
  <course>323.1</course>
  <speed>3.62</speed>
  <fix>3d</fix>
</trkpt>
<trkpt lat="40.0712514" lon="-105.2293518">
  <ele>1582.99</ele>
  <time>2026-08-28T17:49:52Z</time>
  <course>324.48</course>
  <speed>3.592269477642233</speed>
  <fix>3d</fix>
</trkpt>
<trkpt lat="40.0712481" lon="-105.2293489">
  <ele>1583.0</ele>
  <time>2026-08-28T17:49:52Z</time>
  <course>323.3</course>
  <speed>3.63</speed>
  <fix>3d</fix>
</trkpt>
<trkpt lat="40.071254" lon="-105.2293544">
  <ele>1582.99</ele>
  <time>2026-08-28T17:49:52Z</time>
  <course>324.59</course>
  <speed>3.586377001933846</speed>
  <fix>3d</fix>
</trkpt>
<trkpt lat="40.0712481" lon="-105.2293489">
  <ele>1583.0</ele>
  <time>2026-08-28T17:49:52Z</time>
  <course>323.3</course>
  <speed>3.63</speed>
  <fix>3d</fix>
</trkpt>
<trkpt lat="40.0712566" lon="-105.2293569">
  <ele>1582.99</ele>
  <time>2026-08-28T17:49:52Z</time>
  <course>324.71</course>
  <speed>3.594467971758825</speed>
  <fix>3d</fix>
</trkpt>
<trkpt lat="40.0712534" lon="-105.229354">
  <ele>1583.0</ele>
  <time>2026-08-28T17:49:52Z</time>
  <course>323.53</course>
  <speed>3.62</speed>
  <fix>3d</fix>
</trkpt>
<trkpt lat="40.0712593" lon="-105.2293594">
  <ele>1582.99</ele>
  <time>2026-08-28T17:49:52Z</time>
  <course>324.84</course>
  <speed>3.588606972071475</speed>
  <fix>3d</fix>
</trkpt>
<trkpt lat="40.0712534" lon="-105.229354">
  <ele>1583.0</ele>
  <time>2026-08-28T17:49:52Z</time>
  <course>323.53</course>
  <speed>3.62</speed>
  <fix>3d</fix>
</trkpt>
<trkpt lat="40.0712619" lon="-105.2293619">
  <ele>1582.99</ele>
  <time>2026-08-28T17:49:52Z</time>
  <course>324.97</course>
  <speed>3.590891254271006</speed>
  <fix>3d</fix>
</trkpt>
<trkpt lat="40.0712586" lon="-105.229359">
  <ele>1583.0</ele>
  <time>2026-08-28T17:49:52Z</time>
  <course>323.78</course>
  <speed>3.62</speed>
  <fix>3d</fix>
</trkpt>
<trkpt lat="40.0712646" lon="-105.2293645">
  <ele>1582.99</ele>
  <time>2026-08-28T17:49:52Z</time>
  <course>325.09</course>
  <speed>3.590891254271006</speed>
  <fix>3d</fix>
</trkpt>
<trkpt lat="40.0712586" lon="-105.229359">
  <ele>1583.0</ele>
  <time>2026-08-28T17:49:52Z</time>
  <course>323.78</course>
  <speed>3.62</speed>
  <fix>3d</fix>
</trkpt>
<trkpt lat="40.0712673" lon="-105.229367">
  <ele>1582.99</ele>
  <time>2026-08-28T17:49:52Z</time>
  <course>325.21</course>
  <speed>3.585080194361069</speed>
  <fix>3d</fix>
</trkpt>
<trkpt lat="40.0712586" lon="-105.229359">
  <ele>1583.0</ele>
  <time>2026-08-28T17:49:52Z</time>
  <course>323.78</course>
  <speed>3.62</speed>
  <fix>3d</fix>
</trkpt>
<trkpt lat="40.0712699" lon="-105.2293695">
  <ele>1582.99</ele>
  <time>2026-08-28T17:49:52Z</time>
  <course>325.33</course>
  <speed>3.5874503480884585</speed>
  <fix>3d</fix>
</trkpt>
<trkpt lat="40.0712639" lon="-105.2293641">
  <ele>1583.0</ele>
  <time>2026-08-28T17:49:52Z</time>
  <course>324.03</course>
  <speed>3.62</speed>
  <fix>3d</fix>
</trkpt>
<trkpt lat="40.0712725" lon="-105.2293719">
  <ele>1582.98</ele>
  <time>2026-08-28T17:49:52Z</time>
  <course>325.45</course>
  <speed>3.5874503480884585</speed>
  <fix>3d</fix>
</trkpt>
<trkpt lat="40.0712639" lon="-105.2293641">
  <ele>1583.0</ele>
  <time>2026-08-28T17:49:52Z</time>
  <course>324.03</course>
  <speed>3.62</speed>
  <fix>3d</fix>
</trkpt>
<trkpt lat="40.0712752" lon="-105.2293744">
  <ele>1582.98</ele>
  <time>2026-08-28T17:49:52Z</time>
  <course>325.58</course>
  <speed>3.581689545451978</speed>
  <fix>3d</fix>
</trkpt>
<trkpt lat="40.0712692" lon="-105.229369">
  <ele>1583.0</ele>
  <time>2026-08-28T17:49:52Z</time>
  <course>324.27</course>
  <speed>3.62</speed>
  <fix>3d</fix>
</trkpt>
<trkpt lat="40.0712778" lon="-105.2293768">
  <ele>1582.98</ele>
  <time>2026-08-28T17:49:52Z</time>
  <course>325.71</course>
  <speed>3.5841456443621262</speed>
  <fix>3d</fix>
</trkpt>
<trkpt lat="40.0712692" lon="-105.229369">
  <ele>1583.0</ele>
  <time>2026-08-28T17:49:52Z</time>
  <course>324.27</course>
  <speed>3.62</speed>
  <fix>3d</fix>
</trkpt>
<trkpt lat="40.0712804" lon="-105.2293792">
  <ele>1582.98</ele>
  <time>2026-08-28T17:49:52Z</time>
  <course>325.84</course>
  <speed>3.5784354122996267</speed>
  <fix>3d</fix>
</trkpt>
<trkpt lat="40.0712744" lon="-105.229374">
  <ele>1583.0</ele>
  <time>2026-08-28T17:49:52Z</time>
  <course>324.51</course>
  <speed>3.62</speed>
  <fix>3d</fix>
</trkpt>
<trkpt lat="40.0712831" lon="-105.2293817">
  <ele>1582.98</ele>
  <time>2026-08-28T17:49:52Z</time>
  <course>325.96</course>
  <speed>3.586655824023264</speed>
  <fix>3d</fix>
</trkpt>
<trkpt lat="40.0712744" lon="-105.229374">
  <ele>1583.0</ele>
  <time>2026-08-28T17:49:52Z</time>
  <course>324.51</course>
  <speed>3.62</speed>
  <fix>3d</fix>
</trkpt>
<trkpt lat="40.0712857" lon="-105.2293841">
  <ele>1582.98</ele>
  <time>2026-08-28T17:49:52Z</time>
  <course>326.08</course>
  <speed>3.5809775201751823</speed>
  <fix>3d</fix>
</trkpt>
<trkpt lat="40.0712797" lon="-105.2293789">
  <ele>1583.0</ele>
  <time>2026-08-28T17:49:52Z</time>
  <course>324.76</course>
  <speed>3.61</speed>
  <fix>3d</fix>
</trkpt>
<trkpt lat="40.0712884" lon="-105.2293865">
  <ele>1582.97</ele>
  <time>2026-08-28T17:49:52Z</time>
  <course>326.2</course>
  <speed>3.5809775201751823</speed>
  <fix>3d</fix>
</trkpt>
<trkpt lat="40.0712851" lon="-105.2293838">
  <ele>1583.0</ele>
  <time>2026-08-28T17:49:52Z</time>
  <course>325.0</course>
  <speed>3.62</speed>
  <fix>3d</fix>
</trkpt>
<trkpt lat="40.071291" lon="-105.2293889">
  <ele>1582.97</ele>
  <time>2026-08-28T17:49:52Z</time>
  <course>326.32</course>
  <speed>3.5835736353534027</speed>
  <fix>3d</fix>
</trkpt>
<trkpt lat="40.0712851" lon="-105.2293838">
  <ele>1583.0</ele>
  <time>2026-08-28T17:49:52Z</time>
  <course>325.0</course>
  <speed>3.62</speed>
  <fix>3d</fix>
</trkpt>
<trkpt lat="40.0712937" lon="-105.2293913">
  <ele>1582.97</ele>
  <time>2026-08-28T17:49:52Z</time>
  <course>326.42</course>
  <speed>3.5835736353534027</speed>
  <fix>3d</fix>
</trkpt>
<trkpt lat="40.0712904" lon="-105.2293887">
  <ele>1583.0</ele>
  <time>2026-08-28T17:49:52Z</time>
  <course>325.24</course>
  <speed>3.62</speed>
  <fix>3d</fix>
</trkpt>
<trkpt lat="40.0712964" lon="-105.2293938">
  <ele>1582.97</ele>
  <time>2026-08-28T17:49:52Z</time>
  <course>326.52</course>
  <speed>3.586223640544466</speed>
  <fix>3d</fix>
</trkpt>
<trkpt lat="40.0712904" lon="-105.2293887">
  <ele>1583.0</ele>
  <time>2026-08-28T17:49:52Z</time>
  <course>325.24</course>
  <speed>3.62</speed>
  <fix>3d</fix>
</trkpt>
<trkpt lat="40.0712991" lon="-105.2293962">
  <ele>1582.97</ele>
  <time>2026-08-28T17:49:52Z</time>
  <course>326.62</course>
  <speed>3.594509702309899</speed>
  <fix>3d</fix>
</trkpt>
<trkpt lat="40.0712958" lon="-105.2293935">
  <ele>1583.0</ele>
  <time>2026-08-28T17:49:52Z</time>
  <course>325.45</course>
  <speed>3.62</speed>
  <fix>3d</fix>
</trkpt>
<trkpt lat="40.0713018" lon="-105.2293986">
  <ele>1582.97</ele>
  <time>2026-08-28T17:49:52Z</time>
  <course>326.71</course>
  <speed>3.6028044631925282</speed>
  <fix>3d</fix>
</trkpt>
<trkpt lat="40.0712958" lon="-105.2293935">
  <ele>1583.0</ele>
  <time>2026-08-28T17:49:52Z</time>
  <course>325.45</course>
  <speed>3.62</speed>
  <fix>3d</fix>
</trkpt>
<trkpt lat="40.0713045" lon="-105.229401">
  <ele>1582.97</ele>
  <time>2026-08-28T17:49:52Z</time>
  <course>326.78</course>
  <speed>3.624982758579687</speed>
  <fix>3d</fix>
</trkpt>
<trkpt lat="40.0713011" lon="-105.2293983">
  <ele>1583.0</ele>
  <time>2026-08-28T17:49:52Z</time>
  <course>325.63</course>
  <speed>3.64</speed>
  <fix>3d</fix>
</trkpt>
<trkpt lat="40.0713073" lon="-105.2294035">
  <ele>1582.97</ele>
  <time>2026-08-28T17:49:52Z</time>
  <course>326.83</course>
  <speed>3.6388597115030414</speed>
  <fix>3d</fix>
</trkpt>
<trkpt lat="40.0713011" lon="-105.2293983">
  <ele>1583.0</ele>
  <time>2026-08-28T17:49:52Z</time>
  <course>325.63</course>
  <speed>3.64</speed>
  <fix>3d</fix>
</trkpt>
<trkpt lat="40.0713101" lon="-105.2294059">
  <ele>1582.98</ele>
  <time>2026-08-28T17:49:52Z</time>
  <course>326.88</course>
  <speed>3.6693459907727424</speed>
  <fix>3d</fix>
</trkpt>
<trkpt lat="40.0713066" lon="-105.2294031">
  <ele>1583.0</ele>
  <time>2026-08-28T17:49:52Z</time>
  <course>325.76</course>
  <speed>3.67</speed>
  <fix>3d</fix>
</trkpt>
<trkpt lat="40.0713128" lon="-105.2294084">
  <ele>1582.98</ele>
  <time>2026-08-28T17:49:52Z</time>
  <course>326.93</course>
  <speed>3.6915308477649216</speed>
  <fix>3d</fix>
</trkpt>
<trkpt lat="40.0713066" lon="-105.2294031">
  <ele>1583.0</ele>
  <time>2026-08-28T17:49:52Z</time>
  <course>325.76</course>
  <speed>3.67</speed>
  <fix>3d</fix>
</trkpt>
<trkpt lat="40.0713156" lon="-105.2294109">
  <ele>1582.98</ele>
  <time>2026-08-28T17:49:52Z</time>
  <course>326.97</course>
  <speed>3.722042450053465</speed>
  <fix>3d</fix>
</trkpt>
<trkpt lat="40.071312" lon="-105.229408">
  <ele>1583.0</ele>
  <time>2026-08-28T17:49:52Z</time>
  <course>325.86</course>
  <speed>3.71</speed>
  <fix>3d</fix>
</trkpt>
<trkpt lat="40.0713185" lon="-105.2294134">
  <ele>1582.98</ele>
  <time>2026-08-28T17:49:52Z</time>
  <course>326.97</course>
  <speed>3.749773326482549</speed>
  <fix>3d</fix>
</trkpt>
<trkpt lat="40.071312" lon="-105.229408">
  <ele>1583.0</ele>
  <time>2026-08-28T17:49:52Z</time>
  <course>325.86</course>
  <speed>3.71</speed>
  <fix>3d</fix>
</trkpt>
<trkpt lat="40.0713213" lon="-105.2294159">
  <ele>1582.98</ele>
  <time>2026-08-28T17:49:52Z</time>
  <course>326.97</course>
  <speed>3.785828839237189</speed>
  <fix>3d</fix>
</trkpt>
<trkpt lat="40.0713176" lon="-105.2294129">
  <ele>1583.0</ele>
  <time>2026-08-28T17:49:52Z</time>
  <course>325.9</course>
  <speed>3.77</speed>
  <fix>3d</fix>
</trkpt>
<trkpt lat="40.0713242" lon="-105.2294184">
  <ele>1582.98</ele>
  <time>2026-08-28T17:49:52Z</time>
  <course>326.98</course>
  <speed>3.821884351991829</speed>
  <fix>3d</fix>
</trkpt>
<trkpt lat="40.0713176" lon="-105.2294129">
  <ele>1583.0</ele>
  <time>2026-08-28T17:49:52Z</time>
  <course>325.9</course>
  <speed>3.77</speed>
  <fix>3d</fix>
</trkpt>
<trkpt lat="40.0713271" lon="-105.229421">
  <ele>1582.98</ele>
  <time>2026-08-28T17:49:52Z</time>
  <course>327.0</course>
  <speed>3.857939864746468</speed>
  <fix>3d</fix>
</trkpt>
<trkpt lat="40.0713176" lon="-105.2294129">
  <ele>1583.0</ele>
  <time>2026-08-28T17:49:52Z</time>
  <course>325.9</course>
  <speed>3.77</speed>
  <fix>3d</fix>
</trkpt>
<trkpt lat="40.07133" lon="-105.2294235">
  <ele>1582.98</ele>
  <time>2026-08-28T17:49:52Z</time>
  <course>327.02</course>
  <speed>3.8884572776359523</speed>
  <fix>3d</fix>
</trkpt>
<trkpt lat="40.0713233" lon="-105.229418">
  <ele>1583.0</ele>
  <time>2026-08-28T17:49:52Z</time>
  <course>325.92</course>
  <speed>3.84</speed>
  <fix>3d</fix>
</trkpt>
<trkpt lat="40.0713329" lon="-105.2294261">
  <ele>1582.98</ele>
  <time>2026-08-28T17:49:52Z</time>
  <course>327.04</course>
  <speed>3.9161843674679058</speed>
  <fix>3d</fix>
</trkpt>
<trkpt lat="40.0713233" lon="-105.229418">
  <ele>1583.0</ele>
  <time>2026-08-28T17:49:52Z</time>
  <course>325.92</course>
  <speed>3.84</speed>
  <fix>3d</fix>
</trkpt>
<trkpt lat="40.0713358" lon="-105.2294287">
  <ele>1582.99</ele>
  <time>2026-08-28T17:49:52Z</time>
  <course>327.06</course>
  <speed>3.9383752995365997</speed>
  <fix>3d</fix>
</trkpt>
<trkpt lat="40.0713291" lon="-105.2294231">
  <ele>1583.0</ele>
  <time>2026-08-28T17:49:52Z</time>
  <course>325.95</course>
  <speed>3.9</speed>
  <fix>3d</fix>
</trkpt>
<trkpt lat="40.0713388" lon="-105.2294313">
  <ele>1582.99</ele>
  <time>2026-08-28T17:49:52Z</time>
  <course>327.1</course>
  <speed>3.9550474080597313</speed>
  <fix>3d</fix>
</trkpt>
<trkpt lat="40.0713291" lon="-105.2294231">
  <ele>1583.0</ele>
  <time>2026-08-28T17:49:52Z</time>
  <course>325.95</course>
  <speed>3.9</speed>
  <fix>3d</fix>
</trkpt>
<trkpt lat="40.0713417" lon="-105.2294339">
  <ele>1582.99</ele>
  <time>2026-08-28T17:49:52Z</time>
  <course>327.1</course>
  <speed>3.9605681410625926</speed>
  <fix>3d</fix>
</trkpt>
<trkpt lat="40.0713349" lon="-105.2294283">
  <ele>1583.0</ele>
  <time>2026-08-28T17:49:52Z</time>
  <course>326.0</course>
  <speed>3.95</speed>
  <fix>3d</fix>
</trkpt>
<trkpt lat="40.0713447" lon="-105.2294365">
  <ele>1583.0</ele>
  <time>2026-08-28T17:49:52Z</time>
  <course>327.08</course>
  <speed>3.9605681410625926</speed>
  <fix>3d</fix>
</trkpt>
<trkpt lat="40.0713408" lon="-105.2294335">
  <ele>1583.0</ele>
  <time>2026-08-28T17:49:52Z</time>
  <course>326.02</course>
  <speed>3.97</speed>
  <fix>3d</fix>
</trkpt>
<trkpt lat="40.0713476" lon="-105.2294391">
  <ele>1583.0</ele>
  <time>2026-08-28T17:49:52Z</time>
  <course>326.93</course>
  <speed>3.9439193703725737</speed>
  <fix>3d</fix>
</trkpt>
<trkpt lat="40.0713408" lon="-105.2294335">
  <ele>1583.0</ele>
  <time>2026-08-28T17:49:52Z</time>
  <course>326.02</course>
  <speed>3.97</speed>
  <fix>3d</fix>
</trkpt>
<trkpt lat="40.0713506" lon="-105.2294417">
  <ele>1583.0</ele>
  <time>2026-08-28T17:49:52Z</time>
  <course>326.65</course>
  <speed>3.924601890638081</speed>
  <fix>3d</fix>
</trkpt>
<trkpt lat="40.0713467" lon="-105.2294387">
  <ele>1583.0</ele>
  <time>2026-08-28T17:49:52Z</time>
  <course>325.79</course>
  <speed>3.96</speed>
  <fix>3d</fix>
</trkpt>
<trkpt lat="40.0713535" lon="-105.2294443">
  <ele>1583.0</ele>
  <time>2026-08-28T17:49:52Z</time>
  <course>326.24</course>
  <speed>3.88329756778952</speed>
  <fix>3d</fix>
</trkpt>
<trkpt lat="40.0713467" lon="-105.2294387">
  <ele>1583.0</ele>
  <time>2026-08-28T17:49:52Z</time>
  <course>325.79</course>
  <speed>3.96</speed>
  <fix>3d</fix>
</trkpt>
<trkpt lat="40.0713563" lon="-105.229447">
  <ele>1583.0</ele>
  <time>2026-08-28T17:49:52Z</time>
  <course>325.66</course>
  <speed>3.8258201735052837</speed>
  <fix>3d</fix>
</trkpt>
<trkpt lat="40.0713526" lon="-105.2294439">
  <ele>1583.0</ele>
  <time>2026-08-28T17:49:52Z</time>
  <course>325.09</course>
  <speed>3.89</speed>
  <fix>3d</fix>
</trkpt>
<trkpt lat="40.0713591" lon="-105.2294496">
  <ele>1583.0</ele>
  <time>2026-08-28T17:49:52Z</time>
  <course>324.92</course>
  <speed>3.7606515392947535</speed>
  <fix>3d</fix>
</trkpt>
<trkpt lat="40.0713526" lon="-105.2294439">
  <ele>1583.0</ele>
  <time>2026-08-28T17:49:52Z</time>
  <course>325.09</course>
  <speed>3.89</speed>
  <fix>3d</fix>
</trkpt>
<trkpt lat="40.0713618" lon="-105.2294523">
  <ele>1582.99</ele>
  <time>2026-08-28T17:49:52Z</time>
  <course>323.96</course>
  <speed>3.672002178648591</speed>
  <fix>3d</fix>
</trkpt>
<trkpt lat="40.0713582" lon="-105.2294491">
  <ele>1583.0</ele>
  <time>2026-08-28T17:49:52Z</time>
  <course>323.75</course>
  <speed>3.77</speed>
  <fix>3d</fix>
</trkpt>
<trkpt lat="40.0713644" lon="-105.2294549">
  <ele>1582.99</ele>
  <time>2026-08-28T17:49:52Z</time>
  <course>322.76</course>
  <speed>3.5828061627724157</speed>
  <fix>3d</fix>
</trkpt>
<trkpt lat="40.0713582" lon="-105.2294491">
  <ele>1583.0</ele>
  <time>2026-08-28T17:49:52Z</time>
  <course>323.75</course>
  <speed>3.77</speed>
  <fix>3d</fix>
</trkpt>
<trkpt lat="40.0713669" lon="-105.2294576">
  <ele>1582.99</ele>
  <time>2026-08-28T17:49:52Z</time>
  <course>321.34</course>
  <speed>3.473686802231888</speed>
  <fix>3d</fix>
</trkpt>
<trkpt lat="40.0713634" lon="-105.2294544">
  <ele>1583.0</ele>
  <time>2026-08-28T17:49:52Z</time>
  <course>321.61</course>
  <speed>3.59</speed>
  <fix>3d</fix>
</trkpt>
<trkpt lat="40.0713692" lon="-105.2294602">
  <ele>1582.99</ele>
  <time>2026-08-28T17:49:52Z</time>
  <course>319.64</course>
  <speed>3.3659025535508302</speed>
  <fix>3d</fix>
</trkpt>
<trkpt lat="40.0713634" lon="-105.2294544">
  <ele>1583.0</ele>
  <time>2026-08-28T17:49:52Z</time>
  <course>321.61</course>
  <speed>3.59</speed>
  <fix>3d</fix>
</trkpt>
<trkpt lat="40.0713714" lon="-105.2294629">
  <ele>1582.98</ele>
  <time>2026-08-28T17:49:52Z</time>
  <course>317.75</course>
  <speed>3.240061727807049</speed>
  <fix>3d</fix>
</trkpt>
<trkpt lat="40.0713683" lon="-105.2294596">
  <ele>1583.0</ele>
  <time>2026-08-28T17:49:52Z</time>
  <course>318.54</course>
  <speed>3.37</speed>
  <fix>3d</fix>
</trkpt>
<trkpt lat="40.0713734" lon="-105.2294655">
  <ele>1582.98</ele>
  <time>2026-08-28T17:49:52Z</time>
  <course>315.66</course>
  <speed>3.118413057951111</speed>
  <fix>3d</fix>
</trkpt>
<trkpt lat="40.0713683" lon="-105.2294596">
  <ele>1583.0</ele>
  <time>2026-08-28T17:49:52Z</time>
  <course>318.54</course>
  <speed>3.37</speed>
  <fix>3d</fix>
</trkpt>
<trkpt lat="40.0713753" lon="-105.2294682">
  <ele>1582.98</ele>
  <time>2026-08-28T17:49:52Z</time>
  <course>313.36</course>
  <speed>2.980620740718282</speed>
  <fix>3d</fix>
</trkpt>
<trkpt lat="40.0713725" lon="-105.2294649">
  <ele>1583.0</ele>
  <time>2026-08-28T17:49:52Z</time>
  <course>314.57</course>
  <speed>3.12</speed>
  <fix>3d</fix>
</trkpt>
<trkpt lat="40.071377" lon="-105.2294708">
  <ele>1582.98</ele>
  <time>2026-08-28T17:49:52Z</time>
  <course>310.81</course>
  <speed>2.8488769717206113</speed>
  <fix>3d</fix>
</trkpt>
<trkpt lat="40.0713725" lon="-105.2294649">
  <ele>1583.0</ele>
  <time>2026-08-28T17:49:52Z</time>
  <course>314.57</course>
  <speed>3.12</speed>
  <fix>3d</fix>
</trkpt>
<trkpt lat="40.0713785" lon="-105.2294734">
  <ele>1582.98</ele>
  <time>2026-08-28T17:49:52Z</time>
  <course>307.97</course>
  <speed>2.716026509443529</speed>
  <fix>3d</fix>
</trkpt>
<trkpt lat="40.0713725" lon="-105.2294649">
  <ele>1583.0</ele>
  <time>2026-08-28T17:49:52Z</time>
  <course>314.57</course>
  <speed>3.12</speed>
  <fix>3d</fix>
</trkpt>
<trkpt lat="40.0713798" lon="-105.229476">
  <ele>1582.98</ele>
  <time>2026-08-28T17:49:52Z</time>
  <course>304.81</course>
  <speed>2.5849564793241684</speed>
  <fix>3d</fix>
</trkpt>
<trkpt lat="40.0713761" lon="-105.2294701">
  <ele>1583.0</ele>
  <time>2026-08-28T17:49:52Z</time>
  <course>309.7</course>
  <speed>2.86</speed>
  <fix>3d</fix>
</trkpt>
<trkpt lat="40.071381" lon="-105.2294785">
  <ele>1582.98</ele>
  <time>2026-08-28T17:49:52Z</time>
  <course>301.28</course>
  <speed>2.449693858423946</speed>
  <fix>3d</fix>
</trkpt>
<trkpt lat="40.0713761" lon="-105.2294701">
  <ele>1583.0</ele>
  <time>2026-08-28T17:49:52Z</time>
  <course>309.7</course>
  <speed>2.86</speed>
  <fix>3d</fix>
</trkpt>
<trkpt lat="40.0713819" lon="-105.2294809">
  <ele>1582.99</ele>
  <time>2026-08-28T17:49:52Z</time>
  <course>297.35</course>
  <speed>2.3169160537231384</speed>
  <fix>3d</fix>
</trkpt>
<trkpt lat="40.0713791" lon="-105.2294752">
  <ele>1583.0</ele>
  <time>2026-08-28T17:49:52Z</time>
  <course>303.69</course>
  <speed>2.58</speed>
  <fix>3d</fix>
</trkpt>
<trkpt lat="40.0713827" lon="-105.2294834">
  <ele>1582.99</ele>
  <time>2026-08-28T17:49:52Z</time>
  <course>292.98</course>
  <speed>2.174695380967183</speed>
  <fix>3d</fix>
</trkpt>
<trkpt lat="40.0713791" lon="-105.2294752">
  <ele>1583.0</ele>
  <time>2026-08-28T17:49:52Z</time>
  <course>303.69</course>
  <speed>2.58</speed>
  <fix>3d</fix>
</trkpt>
<trkpt lat="40.0713832" lon="-105.2294857">
  <ele>1583.0</ele>
  <time>2026-08-28T17:49:52Z</time>
  <course>288.12</course>
  <speed>2.0480478510034867</speed>
  <fix>3d</fix>
</trkpt>
<trkpt lat="40.0713813" lon="-105.2294802">
  <ele>1583.0</ele>
  <time>2026-08-28T17:49:52Z</time>
  <course>296.25</course>
  <speed>2.31</speed>
  <fix>3d</fix>
</trkpt>
<trkpt lat="40.0713836" lon="-105.2294879">
  <ele>1583.0</ele>
  <time>2026-08-28T17:49:52Z</time>
  <course>282.73</course>
  <speed>1.9123022773609823</speed>
  <fix>3d</fix>
</trkpt>
<trkpt lat="40.0713813" lon="-105.2294802">
  <ele>1583.0</ele>
  <time>2026-08-28T17:49:52Z</time>
  <course>296.25</course>
  <speed>2.31</speed>
  <fix>3d</fix>
</trkpt>
<trkpt lat="40.0713838" lon="-105.2294901">
  <ele>1583.0</ele>
  <time>2026-08-28T17:49:52Z</time>
  <course>276.76</course>
  <speed>1.7847408775505762</speed>
  <fix>3d</fix>
</trkpt>
<trkpt lat="40.0713827" lon="-105.2294848">
  <ele>1583.0</ele>
  <time>2026-08-28T17:49:52Z</time>
  <course>287.05</course>
  <speed>2.04</speed>
  <fix>3d</fix>
</trkpt>
<trkpt lat="40.0713838" lon="-105.2294921">
  <ele>1583.0</ele>
  <time>2026-08-28T17:49:52Z</time>
  <course>270.32</course>
  <speed>1.6610839834276894</speed>
  <fix>3d</fix>
</trkpt>
<trkpt lat="40.0713834" lon="-105.2294893">
  <ele>1583.0</ele>
  <time>2026-08-28T17:49:52Z</time>
  <course>275.85</course>
  <speed>1.78</speed>
  <fix>3d</fix>
</trkpt>
<trkpt lat="40.0713836" lon="-105.2294939">
  <ele>1583.0</ele>
  <time>2026-08-28T17:49:52Z</time>
  <course>263.52</course>
  <speed>1.54042202009709</speed>
  <fix>3d</fix>
</trkpt>
<trkpt lat="40.0713834" lon="-105.2294893">
  <ele>1583.0</ele>
  <time>2026-08-28T17:49:52Z</time>
  <course>275.85</course>
  <speed>1.78</speed>
  <fix>3d</fix>
</trkpt>
<trkpt lat="40.0713833" lon="-105.2294956">
  <ele>1583.0</ele>
  <time>2026-08-28T17:49:52Z</time>
  <course>256.57</course>
  <speed>1.4272000560538105</speed>
  <fix>3d</fix>
</trkpt>
<trkpt lat="40.0713834" lon="-105.2294932">
  <ele>1583.0</ele>
  <time>2026-08-28T17:49:52Z</time>
  <course>262.86</course>
  <speed>1.53</speed>
  <fix>3d</fix>
</trkpt>
<trkpt lat="40.0713828" lon="-105.229497">
  <ele>1583.0</ele>
  <time>2026-08-28T17:49:52Z</time>
  <course>249.37</course>
  <speed>1.3209844813622906</speed>
  <fix>3d</fix>
</trkpt>
<trkpt lat="40.0713834" lon="-105.2294932">
  <ele>1583.0</ele>
  <time>2026-08-28T17:49:52Z</time>
  <course>262.86</course>
  <speed>1.53</speed>
  <fix>3d</fix>
</trkpt>
<trkpt lat="40.0713822" lon="-105.2294983">
  <ele>1583.0</ele>
  <time>2026-08-28T17:49:52Z</time>
  <course>242.28</course>
  <speed>1.2296747537458836</speed>
  <fix>3d</fix>
</trkpt>
<trkpt lat="40.0713829" lon="-105.2294963">
  <ele>1583.0</ele>
  <time>2026-08-28T17:49:52Z</time>
  <course>248.83</course>
  <speed>1.3</speed>
  <fix>3d</fix>
</trkpt>
<trkpt lat="40.0713817" lon="-105.2294995">
  <ele>1583.0</ele>
  <time>2026-08-28T17:49:52Z</time>
  <course>235.51</course>
  <speed>1.1542096863222038</speed>
  <fix>3d</fix>
</trkpt>
<trkpt lat="40.0713829" lon="-105.2294963">
  <ele>1583.0</ele>
  <time>2026-08-28T17:49:52Z</time>
  <course>248.83</course>
  <speed>1.3</speed>
  <fix>3d</fix>
</trkpt>
<trkpt lat="40.071381" lon="-105.2295004">
  <ele>1583.0</ele>
  <time>2026-08-28T17:49:52Z</time>
  <course>229.15</course>
  <speed>1.103086578651014</speed>
  <fix>3d</fix>
</trkpt>
<trkpt lat="40.0713819" lon="-105.2294989">
  <ele>1583.0</ele>
  <time>2026-08-28T17:49:52Z</time>
  <course>234.98</course>
  <speed>1.13</speed>
  <fix>3d</fix>
</trkpt>
<trkpt lat="40.0713803" lon="-105.2295012">
  <ele>1582.99</ele>
  <time>2026-08-28T17:49:52Z</time>
  <course>223.37</course>
  <speed>1.0729864864013898</speed>
  <fix>3d</fix>
</trkpt>
<trkpt lat="40.0713819" lon="-105.2294989">
  <ele>1583.0</ele>
  <time>2026-08-28T17:49:52Z</time>
  <course>234.98</course>
  <speed>1.13</speed>
  <fix>3d</fix>
</trkpt>
<trkpt lat="40.0713795" lon="-105.229502">
  <ele>1582.99</ele>
  <time>2026-08-28T17:49:52Z</time>
  <course>218.12</course>
  <speed>1.065082156455548</speed>
  <fix>3d</fix>
</trkpt>
<trkpt lat="40.0713806" lon="-105.2295008">
  <ele>1583.0</ele>
  <time>2026-08-28T17:49:52Z</time>
  <course>222.68</course>
  <speed>1.05</speed>
  <fix>3d</fix>
</trkpt>
<trkpt lat="40.0713787" lon="-105.2295026">
  <ele>1582.99</ele>
  <time>2026-08-28T17:49:52Z</time>
  <course>213.46</course>
  <speed>1.0791200118615167</speed>
  <fix>3d</fix>
</trkpt>
<trkpt lat="40.0713806" lon="-105.2295008">
  <ele>1583.0</ele>
  <time>2026-08-28T17:49:52Z</time>
  <course>222.68</course>
  <speed>1.05</speed>
  <fix>3d</fix>
</trkpt>
<trkpt lat="40.0713778" lon="-105.2295032">
  <ele>1582.99</ele>
  <time>2026-08-28T17:49:52Z</time>
  <course>209.4</course>
  <speed>1.1225862995778988</speed>
  <fix>3d</fix>
</trkpt>
<trkpt lat="40.0713791" lon="-105.2295023">
  <ele>1583.0</ele>
  <time>2026-08-28T17:49:52Z</time>
  <course>212.6</course>
  <speed>1.05</speed>
  <fix>3d</fix>
</trkpt>
<trkpt lat="40.0713769" lon="-105.2295037">
  <ele>1582.99</ele>
  <time>2026-08-28T17:49:52Z</time>
  <course>205.9</course>
  <speed>1.1792370414806346</speed>
  <fix>3d</fix>
</trkpt>
<trkpt lat="40.0713791" lon="-105.2295023">
  <ele>1583.0</ele>
  <time>2026-08-28T17:49:52Z</time>
  <course>212.6</course>
  <speed>1.05</speed>
  <fix>3d</fix>
</trkpt>
<trkpt lat="40.0713759" lon="-105.2295042">
  <ele>1582.99</ele>
  <time>2026-08-28T17:49:52Z</time>
  <course>202.92</course>
  <speed>1.2653062870309306</speed>
  <fix>3d</fix>
</trkpt>
<trkpt lat="40.0713774" lon="-105.2295035">
  <ele>1583.0</ele>
  <time>2026-08-28T17:49:52Z</time>
  <course>204.9</course>
  <speed>1.15</speed>
  <fix>3d</fix>
</trkpt>
<trkpt lat="40.0713748" lon="-105.2295047">
  <ele>1582.99</ele>
  <time>2026-08-28T17:49:52Z</time>
  <course>200.41</course>
  <speed>1.3631214179228497</speed>
  <fix>3d</fix>
</trkpt>
<trkpt lat="40.0713774" lon="-105.2295035">
  <ele>1583.0</ele>
  <time>2026-08-28T17:49:52Z</time>
  <course>204.9</course>
  <speed>1.15</speed>
  <fix>3d</fix>
</trkpt>
<trkpt lat="40.0713736" lon="-105.2295052">
  <ele>1582.99</ele>
  <time>2026-08-28T17:49:52Z</time>
  <course>198.35</course>
  <speed>1.4848905683584903</speed>
  <fix>3d</fix>
</trkpt>
<trkpt lat="40.0713774" lon="-105.2295035">
  <ele>1583.0</ele>
  <time>2026-08-28T17:49:52Z</time>
  <course>204.9</course>
  <speed>1.15</speed>
  <fix>3d</fix>
</trkpt>
<trkpt lat="40.0713722" lon="-105.2295057">
  <ele>1582.99</ele>
  <time>2026-08-28T17:49:52Z</time>
  <course>196.67</course>
  <speed>1.6080111939908874</speed>
  <fix>3d</fix>
</trkpt>
<trkpt lat="40.0713753" lon="-105.2295046">
  <ele>1583.0</ele>
  <time>2026-08-28T17:49:52Z</time>
  <course>199.38</course>
  <speed>1.33</speed>
  <fix>3d</fix>
</trkpt>
<trkpt lat="40.0713708" lon="-105.2295062">
  <ele>1582.99</ele>
  <time>2026-08-28T17:49:52Z</time>
  <course>195.34</course>
  <speed>1.756160584912439</speed>
  <fix>3d</fix>
</trkpt>
<trkpt lat="40.0713753" lon="-105.2295046">
  <ele>1583.0</ele>
  <time>2026-08-28T17:49:52Z</time>
  <course>199.38</course>
  <speed>1.33</speed>
  <fix>3d</fix>
</trkpt>
<trkpt lat="40.0713692" lon="-105.2295066">
  <ele>1582.99</ele>
  <time>2026-08-28T17:49:52Z</time>
  <course>194.33</course>
  <speed>1.902524638473836</speed>
  <fix>3d</fix>
</trkpt>
<trkpt lat="40.0713728" lon="-105.2295056">
  <ele>1583.0</ele>
  <time>2026-08-28T17:49:52Z</time>
  <course>195.65</course>
  <speed>1.58</speed>
  <fix>3d</fix>
</trkpt>
<trkpt lat="40.0713675" lon="-105.2295071">
  <ele>1582.99</ele>
  <time>2026-08-28T17:49:52Z</time>
  <course>193.61</course>
  <speed>2.053411795037712</speed>
  <fix>3d</fix>
</trkpt>
<trkpt lat="40.0713728" lon="-105.2295056">
  <ele>1583.0</ele>
  <time>2026-08-28T17:49:52Z</time>
  <course>195.65</course>
  <speed>1.58</speed>
  <fix>3d</fix>
</trkpt>
<trkpt lat="40.0713656" lon="-105.2295076">
  <ele>1582.99</ele>
  <time>2026-08-28T17:49:52Z</time>
  <course>193.14</course>
  <speed>2.2141589825484527</speed>
  <fix>3d</fix>
</trkpt>
<trkpt lat="40.0713698" lon="-105.2295067">
  <ele>1583.0</ele>
  <time>2026-08-28T17:49:52Z</time>
  <course>193.33</course>
  <speed>1.87</speed>
  <fix>3d</fix>
</trkpt>
<trkpt lat="40.0713636" lon="-105.2295082">
  <ele>1583.0</ele>
  <time>2026-08-28T17:49:52Z</time>
  <course>192.9</course>
  <speed>2.374973684064731</speed>
  <fix>3d</fix>
</trkpt>
<trkpt lat="40.0713662" lon="-105.2295077">
  <ele>1583.0</ele>
  <time>2026-08-28T17:49:52Z</time>
  <course>192.16</course>
  <speed>2.18</speed>
  <fix>3d</fix>
</trkpt>
<trkpt lat="40.0713615" lon="-105.2295088">
  <ele>1583.0</ele>
  <time>2026-08-28T17:49:52Z</time>
  <course>192.85</course>
  <speed>2.539704707244525</speed>
  <fix>3d</fix>
</trkpt>
<trkpt lat="40.0713662" lon="-105.2295077">
  <ele>1583.0</ele>
  <time>2026-08-28T17:49:52Z</time>
  <course>192.16</course>
  <speed>2.18</speed>
  <fix>3d</fix>
</trkpt>
<trkpt lat="40.0713592" lon="-105.2295094">
  <ele>1583.0</ele>
  <time>2026-08-28T17:49:52Z</time>
  <course>192.9</course>
  <speed>2.7044592805217094</speed>
  <fix>3d</fix>
</trkpt>
<trkpt lat="40.0713621" lon="-105.2295088">
  <ele>1583.0</ele>
  <time>2026-08-28T17:49:52Z</time>
  <course>191.83</course>
  <speed>2.51</speed>
  <fix>3d</fix>
</trkpt>
<trkpt lat="40.0713567" lon="-105.2295101">
  <ele>1583.0</ele>
  <time>2026-08-28T17:49:52Z</time>
  <course>193.03</course>
  <speed>2.8594405047141653</speed>
  <fix>3d</fix>
</trkpt>
<trkpt lat="40.0713621" lon="-105.2295088">
  <ele>1583.0</ele>
  <time>2026-08-28T17:49:52Z</time>
  <course>191.83</course>
  <speed>2.51</speed>
  <fix>3d</fix>
</trkpt>
<trkpt lat="40.0713541" lon="-105.2295108">
  <ele>1583.0</ele>
  <time>2026-08-28T17:49:52Z</time>
  <course>193.21</course>
  <speed>3.0263013729633736</speed>
  <fix>3d</fix>
</trkpt>
<trkpt lat="40.0713574" lon="-105.2295101">
  <ele>1583.0</ele>
  <time>2026-08-28T17:49:52Z</time>
  <course>191.98</course>
  <speed>2.83</speed>
  <fix>3d</fix>
</trkpt>
<trkpt lat="40.0713514" lon="-105.2295116">
  <ele>1583.0</ele>
  <time>2026-08-28T17:49:52Z</time>
  <course>193.43</course>
  <speed>3.1813519138881823</speed>
  <fix>3d</fix>
</trkpt>
<trkpt lat="40.0713574" lon="-105.2295101">
  <ele>1583.0</ele>
  <time>2026-08-28T17:49:52Z</time>
  <course>191.98</course>
  <speed>2.83</speed>
  <fix>3d</fix>
</trkpt>
<trkpt lat="40.0713485" lon="-105.2295125">
  <ele>1583.0</ele>
  <time>2026-08-28T17:49:52Z</time>
  <course>193.65</course>
  <speed>3.328798582071315</speed>
  <fix>3d</fix>
</trkpt>
<trkpt lat="40.0713521" lon="-105.2295116">
  <ele>1583.0</ele>
  <time>2026-08-28T17:49:52Z</time>
  <course>192.35</course>
  <speed>3.15</speed>
  <fix>3d</fix>
</trkpt>
<trkpt lat="40.0713454" lon="-105.2295134">
  <ele>1583.0</ele>
  <time>2026-08-28T17:49:52Z</time>
  <course>193.92</course>
  <speed>3.476348659153739</speed>
  <fix>3d</fix>
</trkpt>
<trkpt lat="40.0713521" lon="-105.2295116">
  <ele>1583.0</ele>
  <time>2026-08-28T17:49:52Z</time>
  <course>192.35</course>
  <speed>3.15</speed>
  <fix>3d</fix>
</trkpt>
<trkpt lat="40.0713423" lon="-105.2295144">
  <ele>1583.0</ele>
  <time>2026-08-28T17:49:52Z</time>
  <course>194.19</course>
  <speed>3.604511062543712</speed>
  <fix>3d</fix>
</trkpt>
<trkpt lat="40.0713463" lon="-105.2295132">
  <ele>1583.0</ele>
  <time>2026-08-28T17:49:52Z</time>
  <course>192.82</course>
  <speed>3.43</speed>
  <fix>3d</fix>
</trkpt>
<trkpt lat="40.0713391" lon="-105.2295154">
  <ele>1583.0</ele>
  <time>2026-08-28T17:49:52Z</time>
  <course>194.49</course>
  <speed>3.7012970699472367</speed>
  <fix>3d</fix>
</trkpt>
<trkpt lat="40.0713463" lon="-105.2295132">
  <ele>1583.0</ele>
  <time>2026-08-28T17:49:52Z</time>
  <course>192.82</course>
  <speed>3.43</speed>
  <fix>3d</fix>
</trkpt>
<trkpt lat="40.0713358" lon="-105.2295164">
  <ele>1583.0</ele>
  <time>2026-08-28T17:49:52Z</time>
  <course>194.79</course>
  <speed>3.7884561499375966</speed>
  <fix>3d</fix>
</trkpt>
<trkpt lat="40.0713401" lon="-105.2295152">
  <ele>1583.0</ele>
  <time>2026-08-28T17:49:52Z</time>
  <course>193.38</course>
  <speed>3.66</speed>
  <fix>3d</fix>
</trkpt>
<trkpt lat="40.0713324" lon="-105.2295175">
  <ele>1583.01</ele>
  <time>2026-08-28T17:49:52Z</time>
  <course>195.1</course>
  <speed>3.8563194888390666</speed>
  <fix>3d</fix>
</trkpt>
<trkpt lat="40.0713401" lon="-105.2295152">
  <ele>1583.0</ele>
  <time>2026-08-28T17:49:52Z</time>
  <course>193.38</course>
  <speed>3.66</speed>
  <fix>3d</fix>
</trkpt>
<trkpt lat="40.071329" lon="-105.2295187">
  <ele>1583.01</ele>
  <time>2026-08-28T17:49:52Z</time>
  <course>195.41</course>
  <speed>3.9146519640959143</speed>
  <fix>3d</fix>
</trkpt>
<trkpt lat="40.0713336" lon="-105.2295173">
  <ele>1583.0</ele>
  <time>2026-08-28T17:49:52Z</time>
  <course>193.98</course>
  <speed>3.82</speed>
  <fix>3d</fix>
</trkpt>
<trkpt lat="40.0713256" lon="-105.2295199">
  <ele>1583.0</ele>
  <time>2026-08-28T17:49:52Z</time>
  <course>195.68</course>
  <speed>3.9390481083632376</speed>
  <fix>3d</fix>
</trkpt>
<trkpt lat="40.0713336" lon="-105.2295173">
  <ele>1583.0</ele>
  <time>2026-08-28T17:49:52Z</time>
  <course>193.98</course>
  <speed>3.82</speed>
  <fix>3d</fix>
</trkpt>
<trkpt lat="40.0713221" lon="-105.2295211">
  <ele>1583.0</ele>
  <time>2026-08-28T17:49:52Z</time>
  <course>195.95</course>
  <speed>3.944172917101886</speed>
  <fix>3d</fix>
</trkpt>
<trkpt lat="40.0713336" lon="-105.2295173">
  <ele>1583.0</ele>
  <time>2026-08-28T17:49:52Z</time>
  <course>193.98</course>
  <speed>3.82</speed>
  <fix>3d</fix>
</trkpt>
<trkpt lat="40.0713188" lon="-105.2295223">
  <ele>1583.0</ele>
  <time>2026-08-28T17:49:52Z</time>
  <course>196.16</course>
  <speed>3.927467377331096</speed>
  <fix>3d</fix>
</trkpt>
<trkpt lat="40.0713269" lon="-105.2295195">
  <ele>1583.0</ele>
  <time>2026-08-28T17:49:52Z</time>
  <course>194.55</course>
  <speed>3.9</speed>
  <fix>3d</fix>
</trkpt>
<trkpt lat="40.0713154" lon="-105.2295235">
  <ele>1583.01</ele>
  <time>2026-08-28T17:49:52Z</time>
  <course>196.37</course>
  <speed>3.888881587294733</speed>
  <fix>3d</fix>
</trkpt>
<trkpt lat="40.0713269" lon="-105.2295195">
  <ele>1583.0</ele>
  <time>2026-08-28T17:49:52Z</time>
  <course>194.55</course>
  <speed>3.9</speed>
  <fix>3d</fix>
</trkpt>
<trkpt lat="40.0713121" lon="-105.2295247">
  <ele>1583.01</ele>
  <time>2026-08-28T17:49:52Z</time>
  <course>196.55</course>
  <speed>3.840690042166902</speed>
  <fix>3d</fix>
</trkpt>
<trkpt lat="40.07132" lon="-105.2295219">
  <ele>1583.0</ele>
  <time>2026-08-28T17:49:52Z</time>
  <course>195.03</course>
  <speed>3.89</speed>
  <fix>3d</fix>
</trkpt>
<trkpt lat="40.0713088" lon="-105.2295259">
  <ele>1583.02</ele>
  <time>2026-08-28T17:49:52Z</time>
  <course>196.71</course>
  <speed>3.77058350921976</speed>
  <fix>3d</fix>
</trkpt>
<trkpt lat="40.07132" lon="-105.2295219">
  <ele>1583.0</ele>
  <time>2026-08-28T17:49:52Z</time>
  <course>195.03</course>
  <speed>3.89</speed>
  <fix>3d</fix>
</trkpt>
<trkpt lat="40.0713057" lon="-105.229527">
  <ele>1583.02</ele>
  <time>2026-08-28T17:49:52Z</time>
  <course>196.82</course>
  <speed>3.6785323160195293</speed>
  <fix>3d</fix>
</trkpt>
<trkpt lat="40.0713133" lon="-105.2295243">
  <ele>1583.0</ele>
  <time>2026-08-28T17:49:52Z</time>
  <course>195.4</course>
  <speed>3.81</speed>
  <fix>3d</fix>
</trkpt>
<trkpt lat="40.0713026" lon="-105.2295282">
  <ele>1583.02</ele>
  <time>2026-08-28T17:49:52Z</time>
  <course>196.9</course>
  <speed>3.576870140220357</speed>
  <fix>3d</fix>
</trkpt>
<trkpt lat="40.0713133" lon="-105.2295243">
  <ele>1583.0</ele>
  <time>2026-08-28T17:49:52Z</time>
  <course>195.4</course>
  <speed>3.81</speed>
  <fix>3d</fix>
</trkpt>
<trkpt lat="40.0712996" lon="-105.2295293">
  <ele>1583.03</ele>
  <time>2026-08-28T17:49:52Z</time>
  <course>196.95</course>
  <speed>3.453244850861288</speed>
  <fix>3d</fix>
</trkpt>
<trkpt lat="40.0713068" lon="-105.2295266">
  <ele>1583.0</ele>
  <time>2026-08-28T17:49:52Z</time>
  <course>195.66</course>
  <speed>3.66</speed>
  <fix>3d</fix>
</trkpt>
<trkpt lat="40.0712967" lon="-105.2295304">
  <ele>1583.03</ele>
  <time>2026-08-28T17:49:52Z</time>
  <course>197.0</course>
  <speed>3.326875410952445</speed>
  <fix>3d</fix>
</trkpt>
<trkpt lat="40.0713006" lon="-105.2295288">
  <ele>1583.0</ele>
  <time>2026-08-28T17:49:52Z</time>
  <course>195.8</course>
  <speed>3.45</speed>
  <fix>3d</fix>
</trkpt>
<trkpt lat="40.0712939" lon="-105.2295314">
  <ele>1583.03</ele>
  <time>2026-08-28T17:49:52Z</time>
  <course>197.05</course>
  <speed>3.181273329973393</speed>
  <fix>3d</fix>
</trkpt>
<trkpt lat="40.0713006" lon="-105.2295288">
  <ele>1583.0</ele>
  <time>2026-08-28T17:49:52Z</time>
  <course>195.8</course>
  <speed>3.45</speed>
  <fix>3d</fix>
</trkpt>
<trkpt lat="40.0712913" lon="-105.2295324">
  <ele>1583.03</ele>
  <time>2026-08-28T17:49:52Z</time>
  <course>197.12</course>
  <speed>3.0452914474644297</speed>
  <fix>3d</fix>
</trkpt>
<trkpt lat="40.0712949" lon="-105.229531">
  <ele>1583.0</ele>
  <time>2026-08-28T17:49:52Z</time>
  <course>195.91</course>
  <speed>3.2</speed>
  <fix>3d</fix>
</trkpt>
<trkpt lat="40.0712887" lon="-105.2295333">
  <ele>1583.03</ele>
  <time>2026-08-28T17:49:52Z</time>
  <course>197.21</course>
  <speed>2.890069203323685</speed>
  <fix>3d</fix>
</trkpt>
<trkpt lat="40.0712949" lon="-105.229531">
  <ele>1583.0</ele>
  <time>2026-08-28T17:49:52Z</time>
  <course>195.91</course>
  <speed>3.2</speed>
  <fix>3d</fix>
</trkpt>
<trkpt lat="40.0712863" lon="-105.2295342">
  <ele>1583.03</ele>
  <time>2026-08-28T17:49:52Z</time>
  <course>197.29</course>
  <speed>2.734849173172078</speed>
  <fix>3d</fix>
</trkpt>
<trkpt lat="40.0712896" lon="-105.229533">
  <ele>1583.0</ele>
  <time>2026-08-28T17:49:52Z</time>
  <course>196.04</course>
  <speed>2.91</speed>
  <fix>3d</fix>
</trkpt>
<trkpt lat="40.071284" lon="-105.2295351">
  <ele>1583.02</ele>
  <time>2026-08-28T17:49:52Z</time>
  <course>197.4</course>
  <speed>2.579631756666055</speed>
  <fix>3d</fix>
</trkpt>
<trkpt lat="40.0712896" lon="-105.229533">
  <ele>1583.0</ele>
  <time>2026-08-28T17:49:52Z</time>
  <course>196.04</course>
  <speed>2.91</speed>
  <fix>3d</fix>
</trkpt>
<trkpt lat="40.0712818" lon="-105.2295359">
  <ele>1583.02</ele>
  <time>2026-08-28T17:49:52Z</time>
  <course>197.5</course>
  <speed>2.4244174558025273</speed>
  <fix>3d</fix>
</trkpt>
<trkpt lat="40.0712849" lon="-105.2295348">
  <ele>1583.0</ele>
  <time>2026-08-28T17:49:52Z</time>
  <course>196.22</course>
  <speed>2.61</speed>
  <fix>3d</fix>
</trkpt>
<trkpt lat="40.0712798" lon="-105.2295367">
  <ele>1583.02</ele>
  <time>2026-08-28T17:49:52Z</time>
  <course>197.63</course>
  <speed>2.269206909913682</speed>
  <fix>3d</fix>
</trkpt>
<trkpt lat="40.0712849" lon="-105.2295348">
  <ele>1583.0</ele>
  <time>2026-08-28T17:49:52Z</time>
  <course>196.22</course>
  <speed>2.61</speed>
  <fix>3d</fix>
</trkpt>
<trkpt lat="40.0712779" lon="-105.2295374">
  <ele>1583.03</ele>
  <time>2026-08-28T17:49:52Z</time>
  <course>197.27</course>
  <speed>2.108506580497201</speed>
  <fix>3d</fix>
</trkpt>
<trkpt lat="40.0712807" lon="-105.2295364">
  <ele>1583.0</ele>
  <time>2026-08-28T17:49:52Z</time>
  <course>196.22</course>
  <speed>2.31</speed>
  <fix>3d</fix>
</trkpt>
<trkpt lat="40.0712762" lon="-105.229538">
  <ele>1583.03</ele>
  <time>2026-08-28T17:49:52Z</time>
  <course>195.9</course>
  <speed>1.9596938536414306</speed>
  <fix>3d</fix>
</trkpt>
<trkpt lat="40.0712807" lon="-105.2295364">
  <ele>1583.0</ele>
  <time>2026-08-28T17:49:52Z</time>
  <course>196.22</course>
  <speed>2.31</speed>
  <fix>3d</fix>
</trkpt>
<trkpt lat="40.0712746" lon="-105.2295385">
  <ele>1583.03</ele>
  <time>2026-08-28T17:49:52Z</time>
  <course>194.34</course>
  <speed>1.8124568960391858</speed>
  <fix>3d</fix>
</trkpt>
<trkpt lat="40.0712769" lon="-105.2295378">
  <ele>1583.0</ele>
  <time>2026-08-28T17:49:52Z</time>
  <course>194.72</course>
  <speed>2.0</speed>
  <fix>3d</fix>
</trkpt>
<trkpt lat="40.071273" lon="-105.2295389">
  <ele>1583.03</ele>
  <time>2026-08-28T17:49:52Z</time>
  <course>192.52</course>
  <speed>1.667213243709394</speed>
  <fix>3d</fix>
</trkpt>
<trkpt lat="40.0712769" lon="-105.2295378">
  <ele>1583.0</ele>
  <time>2026-08-28T17:49:52Z</time>
  <course>194.72</course>
  <speed>2.0</speed>
  <fix>3d</fix>
</trkpt>
<trkpt lat="40.0712716" lon="-105.2295392">
  <ele>1583.04</ele>
  <time>2026-08-28T17:49:52Z</time>
  <course>190.4</course>
  <speed>1.5245327152934436</speed>
  <fix>3d</fix>
</trkpt>
<trkpt lat="40.0712736" lon="-105.2295388">
  <ele>1583.0</ele>
  <time>2026-08-28T17:49:52Z</time>
  <course>191.33</course>
  <speed>1.71</speed>
  <fix>3d</fix>
</trkpt>
<trkpt lat="40.0712703" lon="-105.2295394">
  <ele>1583.04</ele>
  <time>2026-08-28T17:49:52Z</time>
  <course>187.95</course>
  <speed>1.3861096637712327</speed>
  <fix>3d</fix>
</trkpt>
<trkpt lat="40.0712736" lon="-105.2295388">
  <ele>1583.0</ele>
  <time>2026-08-28T17:49:52Z</time>
  <course>191.33</course>
  <speed>1.71</speed>
  <fix>3d</fix>
</trkpt>
<trkpt lat="40.0712692" lon="-105.2295395">
  <ele>1583.04</ele>
  <time>2026-08-28T17:49:52Z</time>
  <course>185.12</course>
  <speed>1.2509996003196804</speed>
  <fix>3d</fix>
</trkpt>
<trkpt lat="40.0712736" lon="-105.2295388">
  <ele>1583.0</ele>
  <time>2026-08-28T17:49:52Z</time>
  <course>191.33</course>
  <speed>1.71</speed>
  <fix>3d</fix>
</trkpt>
<trkpt lat="40.0712681" lon="-105.2295395">
  <ele>1583.04</ele>
  <time>2026-08-28T17:49:52Z</time>
  <course>181.87</course>
  <speed>1.1201785571952356</speed>
  <fix>3d</fix>
</trkpt>
<trkpt lat="40.0712709" lon="-105.2295393">
  <ele>1583.0</ele>
  <time>2026-08-28T17:49:52Z</time>
  <course>186.78</course>
  <speed>1.44</speed>
  <fix>3d</fix>
</trkpt>
<trkpt lat="40.0712672" lon="-105.2295395">
  <ele>1583.05</ele>
  <time>2026-08-28T17:49:52Z</time>
  <course>178.14</course>
  <speed>0.9940824915468535</speed>
  <fix>3d</fix>
</trkpt>
<trkpt lat="40.0712709" lon="-105.2295393">
  <ele>1583.0</ele>
  <time>2026-08-28T17:49:52Z</time>
  <course>186.78</course>
  <speed>1.44</speed>
  <fix>3d</fix>
</trkpt>
<trkpt lat="40.0712663" lon="-105.2295394">
  <ele>1583.05</ele>
  <time>2026-08-28T17:49:52Z</time>
  <course>174.1</course>
  <speed>0.8729833904490967</speed>
  <fix>3d</fix>
</trkpt>
<trkpt lat="40.0712685" lon="-105.2295396">
  <ele>1583.0</ele>
  <time>2026-08-28T17:49:52Z</time>
  <course>180.76</course>
  <speed>1.18</speed>
  <fix>3d</fix>
</trkpt>
<trkpt lat="40.0712656" lon="-105.2295392">
  <ele>1583.05</ele>
  <time>2026-08-28T17:49:52Z</time>
  <course>170.29</course>
  <speed>0.7640026177965623</speed>
  <fix>3d</fix>
</trkpt>
<trkpt lat="40.0712685" lon="-105.2295396">
  <ele>1583.0</ele>
  <time>2026-08-28T17:49:52Z</time>
  <course>180.76</course>
  <speed>1.18</speed>
  <fix>3d</fix>
</trkpt>
<trkpt lat="40.071265" lon="-105.229539">
  <ele>1583.05</ele>
  <time>2026-08-28T17:49:52Z</time>
  <course>166.81</course>
  <speed>0.6451356446515725</speed>
  <fix>3d</fix>
</trkpt>
<trkpt lat="40.0712666" lon="-105.2295394">
  <ele>1583.0</ele>
  <time>2026-08-28T17:49:52Z</time>
  <course>173.47</course>
  <speed>0.93</speed>
  <fix>3d</fix>
</trkpt>
<trkpt lat="40.0712645" lon="-105.2295387">
  <ele>1583.05</ele>
  <time>2026-08-28T17:49:52Z</time>
  <course>163.76</course>
  <speed>0.5371219600798314</speed>
  <fix>3d</fix>
</trkpt>
<trkpt lat="40.0712652" lon="-105.2295392">
  <ele>1583.0</ele>
  <time>2026-08-28T17:49:52Z</time>
  <course>166.32</course>
  <speed>0.7</speed>
  <fix>3d</fix>
</trkpt>
<trkpt lat="40.0712641" lon="-105.2295385">
  <ele>1583.05</ele>
  <time>2026-08-28T17:49:52Z</time>
  <course>161.11</course>
  <speed>0.42941821107167777</speed>
  <fix>3d</fix>
</trkpt>
<trkpt lat="40.0712652" lon="-105.2295392">
  <ele>1583.0</ele>
  <time>2026-08-28T17:49:52Z</time>
  <course>166.32</course>
  <speed>0.7</speed>
  <fix>3d</fix>
</trkpt>
<trkpt lat="40.0712638" lon="-105.2295383">
  <ele>1583.05</ele>
  <time>2026-08-28T17:49:52Z</time>
  <course>158.86</course>
  <speed>0.3466987164671943</speed>
  <fix>3d</fix>
</trkpt>
<trkpt lat="40.0712641" lon="-105.2295389">
  <ele>1583.0</ele>
  <time>2026-08-28T17:49:52Z</time>
  <course>160.58</course>
  <speed>0.5</speed>
  <fix>3d</fix>
</trkpt>
<trkpt lat="40.0712636" lon="-105.2295381">
  <ele>1583.05</ele>
  <time>2026-08-28T17:49:52Z</time>
  <course>156.92</course>
  <speed>0.28600699292150183</speed>
  <fix>3d</fix>
</trkpt>
<trkpt lat="40.0712641" lon="-105.2295389">
  <ele>1583.0</ele>
  <time>2026-08-28T17:49:52Z</time>
  <course>160.58</course>
  <speed>0.5</speed>
  <fix>3d</fix>
</trkpt>
<trkpt lat="40.0712633" lon="-105.229538">
  <ele>1583.05</ele>
  <time>2026-08-28T17:49:52Z</time>
  <course>155.15</course>
  <speed>0.26248809496813374</speed>
  <fix>3d</fix>
</trkpt>
<trkpt lat="40.0712634" lon="-105.2295384">
  <ele>1583.0</ele>
  <time>2026-08-28T17:49:52Z</time>
  <course>156.05</course>
  <speed>0.36</speed>
  <fix>3d</fix>
</trkpt>
<trkpt lat="40.0712631" lon="-105.2295378">
  <ele>1583.05</ele>
  <time>2026-08-28T17:49:52Z</time>
  <course>153.46</course>
  <speed>0.25495097567963926</speed>
  <fix>3d</fix>
</trkpt>
<trkpt lat="40.0712634" lon="-105.2295384">
  <ele>1583.0</ele>
  <time>2026-08-28T17:49:52Z</time>
  <course>156.05</course>
  <speed>0.36</speed>
  <fix>3d</fix>
</trkpt>
<trkpt lat="40.0712629" lon="-105.2295376">
  <ele>1583.05</ele>
  <time>2026-08-28T17:49:52Z</time>
  <course>151.73</course>
  <speed>0.261725046566048</speed>
  <fix>3d</fix>
</trkpt>
<trkpt lat="40.0712629" lon="-105.2295381">
  <ele>1583.0</ele>
  <time>2026-08-28T17:49:52Z</time>
  <course>152.25</course>
  <speed>0.31</speed>
  <fix>3d</fix>
</trkpt>
<trkpt lat="40.0712627" lon="-105.2295374">
  <ele>1583.05</ele>
  <time>2026-08-28T17:49:52Z</time>
  <course>149.85</course>
  <speed>0.2973213749463701</speed>
  <fix>3d</fix>
</trkpt>
<trkpt lat="40.0712629" lon="-105.2295381">
  <ele>1583.0</ele>
  <time>2026-08-28T17:49:52Z</time>
  <course>152.25</course>
  <speed>0.31</speed>
  <fix>3d</fix>
</trkpt>
<trkpt lat="40.0712625" lon="-105.2295372">
  <ele>1583.05</ele>
  <time>2026-08-28T17:49:52Z</time>
  <course>147.83</course>
  <speed>0.34655446902326914</speed>
  <fix>3d</fix>
</trkpt>
<trkpt lat="40.0712623" lon="-105.2295377">
  <ele>1583.0</ele>
  <time>2026-08-28T17:49:52Z</time>
  <course>148.38</course>
  <speed>0.36</speed>
  <fix>3d</fix>
</trkpt>
<trkpt lat="40.0712621" lon="-105.2295369">
  <ele>1583.04</ele>
  <time>2026-08-28T17:49:52Z</time>
  <course>145.66</course>
  <speed>0.41036569057366384</speed>
  <fix>3d</fix>
</trkpt>
<trkpt lat="40.0712623" lon="-105.2295377">
  <ele>1583.0</ele>
  <time>2026-08-28T17:49:52Z</time>
  <course>148.38</course>
  <speed>0.36</speed>
  <fix>3d</fix>
</trkpt>
<trkpt lat="40.0712618" lon="-105.2295366">
  <ele>1583.04</ele>
  <time>2026-08-28T17:49:52Z</time>
  <course>143.34</course>
  <speed>0.5020956084253276</speed>
  <fix>3d</fix>
</trkpt>
<trkpt lat="40.0712617" lon="-105.2295372">
  <ele>1583.0</ele>
  <time>2026-08-28T17:49:52Z</time>
  <course>144.08</course>
  <speed>0.48</speed>
  <fix>3d</fix>
</trkpt>
<trkpt lat="40.0712614" lon="-105.2295361">
  <ele>1583.04</ele>
  <time>2026-08-28T17:49:52Z</time>
  <course>140.88</course>
  <speed>0.5939696961966999</speed>
  <fix>3d</fix>
</trkpt>
<trkpt lat="40.0712617" lon="-105.2295372">
  <ele>1583.0</ele>
  <time>2026-08-28T17:49:52Z</time>
  <course>144.08</course>
  <speed>0.48</speed>
  <fix>3d</fix>
</trkpt>
<trkpt lat="40.0712609" lon="-105.2295356">
  <ele>1583.03</ele>
  <time>2026-08-28T17:49:52Z</time>
  <course>138.33</course>
  <speed>0.6935416353759881</speed>
  <fix>3d</fix>
</trkpt>
<trkpt lat="40.0712609" lon="-105.2295364">
  <ele>1583.0</ele>
  <time>2026-08-28T17:49:52Z</time>
  <course>139.31</course>
  <speed>0.65</speed>
  <fix>3d</fix>
</trkpt>
<trkpt lat="40.0712604" lon="-105.229535">
  <ele>1583.03</ele>
  <time>2026-08-28T17:49:52Z</time>
  <course>135.76</course>
  <speed>0.808084154033477</speed>
  <fix>3d</fix>
</trkpt>
<trkpt lat="40.0712609" lon="-105.2295364">
  <ele>1583.0</ele>
  <time>2026-08-28T17:49:52Z</time>
  <course>139.31</course>
  <speed>0.65</speed>
  <fix>3d</fix>
</trkpt>
<trkpt lat="40.0712598" lon="-105.2295342">
  <ele>1583.03</ele>
  <time>2026-08-28T17:49:52Z</time>
  <course>133.22</course>
  <speed>0.9167878707749137</speed>
  <fix>3d</fix>
</trkpt>
<trkpt lat="40.0712609" lon="-105.2295364">
  <ele>1583.0</ele>
  <time>2026-08-28T17:49:52Z</time>
  <course>139.31</course>
  <speed>0.65</speed>
  <fix>3d</fix>
</trkpt>
<trkpt lat="40.0712592" lon="-105.2295333">
  <ele>1583.03</ele>
  <time>2026-08-28T17:49:52Z</time>
  <course>130.8</course>
  <speed>1.0420172743289815</speed>
  <fix>3d</fix>
</trkpt>
<trkpt lat="40.0712599" lon="-105.2295351">
  <ele>1583.0</ele>
  <time>2026-08-28T17:49:52Z</time>
  <course>134.27</course>
  <speed>0.86</speed>
  <fix>3d</fix>
</trkpt>
<trkpt lat="40.0712585" lon="-105.2295322">
  <ele>1583.04</ele>
  <time>2026-08-28T17:49:52Z</time>
  <course>128.7</course>
  <speed>1.1543396380615194</speed>
  <fix>3d</fix>
</trkpt>
<trkpt lat="40.0712599" lon="-105.2295351">
  <ele>1583.0</ele>
  <time>2026-08-28T17:49:52Z</time>
  <course>134.27</course>
  <speed>0.86</speed>
  <fix>3d</fix>
</trkpt>
<trkpt lat="40.0712578" lon="-105.229531">
  <ele>1583.04</ele>
  <time>2026-08-28T17:49:52Z</time>
  <course>126.92</course>
  <speed>1.2675172582651488</speed>
  <fix>3d</fix>
</trkpt>
<trkpt lat="40.0712587" lon="-105.2295334">
  <ele>1583.0</ele>
  <time>2026-08-28T17:49:52Z</time>
  <course>129.53</course>
  <speed>1.08</speed>
  <fix>3d</fix>
</trkpt>
<trkpt lat="40.0712571" lon="-105.2295297">
  <ele>1583.04</ele>
  <time>2026-08-28T17:49:52Z</time>
  <course>125.4</course>
  <speed>1.3813399291991817</speed>
  <fix>3d</fix>
</trkpt>
<trkpt lat="40.0712587" lon="-105.2295334">
  <ele>1583.0</ele>
  <time>2026-08-28T17:49:52Z</time>
  <course>129.53</course>
  <speed>1.08</speed>
  <fix>3d</fix>
</trkpt>
<trkpt lat="40.0712564" lon="-105.2295283">
  <ele>1583.04</ele>
  <time>2026-08-28T17:49:52Z</time>
  <course>124.1</course>
  <speed>1.4818906842274162</speed>
  <fix>3d</fix>
</trkpt>
<trkpt lat="40.0712575" lon="-105.2295312">
  <ele>1583.0</ele>
  <time>2026-08-28T17:49:52Z</time>
  <course>125.72</course>
  <speed>1.31</speed>
  <fix>3d</fix>
</trkpt>
<trkpt lat="40.0712556" lon="-105.2295267">
  <ele>1583.04</ele>
  <time>2026-08-28T17:49:52Z</time>
  <course>123.02</course>
  <speed>1.5829403020960708</speed>
  <fix>3d</fix>
</trkpt>
<trkpt lat="40.071256" lon="-105.2295284">
  <ele>1583.0</ele>
  <time>2026-08-28T17:49:52Z</time>
  <course>122.94</course>
  <speed>1.52</speed>
  <fix>3d</fix>
</trkpt>
<trkpt lat="40.0712548" lon="-105.229525">
  <ele>1583.04</ele>
  <time>2026-08-28T17:49:52Z</time>
  <course>122.16</course>
  <speed>1.680773631397161</speed>
  <fix>3d</fix>
</trkpt>
<trkpt lat="40.071256" lon="-105.2295284">
  <ele>1583.0</ele>
  <time>2026-08-28T17:49:52Z</time>
  <course>122.94</course>
  <speed>1.52</speed>
  <fix>3d</fix>
</trkpt>
<trkpt lat="40.0712539" lon="-105.2295232">
  <ele>1583.04</ele>
  <time>2026-08-28T17:49:52Z</time>
  <course>121.48</course>
  <speed>1.7736967046256809</speed>
  <fix>3d</fix>
</trkpt>
<trkpt lat="40.0712544" lon="-105.2295252">
  <ele>1583.0</ele>
  <time>2026-08-28T17:49:52Z</time>
  <course>121.01</course>
  <speed>1.72</speed>
  <fix>3d</fix>
</trkpt>
<trkpt lat="40.0712531" lon="-105.2295213">
  <ele>1583.03</ele>
  <time>2026-08-28T17:49:52Z</time>
  <course>120.96</course>
  <speed>1.8580904176062045</speed>
  <fix>3d</fix>
</trkpt>
<trkpt lat="40.0712544" lon="-105.2295252">
  <ele>1583.0</ele>
  <time>2026-08-28T17:49:52Z</time>
  <course>121.01</course>
  <speed>1.72</speed>
  <fix>3d</fix>
</trkpt>
<trkpt lat="40.0712522" lon="-105.2295193">
  <ele>1583.03</ele>
  <time>2026-08-28T17:49:52Z</time>
  <course>120.57</course>
  <speed>1.9425756098540927</speed>
  <fix>3d</fix>
</trkpt>
<trkpt lat="40.0712528" lon="-105.2295215">
  <ele>1583.0</ele>
  <time>2026-08-28T17:49:52Z</time>
  <course>119.8</course>
  <speed>1.89</speed>
  <fix>3d</fix>
</trkpt>
<trkpt lat="40.0712513" lon="-105.2295172">
  <ele>1583.03</ele>
  <time>2026-08-28T17:49:52Z</time>
  <course>120.31</course>
  <speed>2.0183656754909403</speed>
  <fix>3d</fix>
</trkpt>
<trkpt lat="40.0712528" lon="-105.2295215">
  <ele>1583.0</ele>
  <time>2026-08-28T17:49:52Z</time>
  <course>119.8</course>
  <speed>1.89</speed>
  <fix>3d</fix>
</trkpt>
<trkpt lat="40.0712503" lon="-105.229515">
  <ele>1583.03</ele>
  <time>2026-08-28T17:49:52Z</time>
  <course>120.17</course>
  <speed>2.0902152999152985</speed>
  <fix>3d</fix>
</trkpt>
<trkpt lat="40.0712511" lon="-105.2295174">
  <ele>1583.0</ele>
  <time>2026-08-28T17:49:52Z</time>
  <course>119.14</course>
  <speed>2.05</speed>
  <fix>3d</fix>
</trkpt>
<trkpt lat="40.0712493" lon="-105.2295128">
  <ele>1583.02</ele>
  <time>2026-08-28T17:49:52Z</time>
  <course>120.14</course>
  <speed>2.1572436116489024</speed>
  <fix>3d</fix>
</trkpt>
<trkpt lat="40.0712511" lon="-105.2295174">
  <ele>1583.0</ele>
  <time>2026-08-28T17:49:52Z</time>
  <course>119.14</course>
  <speed>2.05</speed>
  <fix>3d</fix>
</trkpt>
<trkpt lat="40.0712483" lon="-105.2295105">
  <ele>1583.02</ele>
  <time>2026-08-28T17:49:52Z</time>
  <course>120.16</course>
  <speed>2.229102958591191</speed>
  <fix>3d</fix>
</trkpt>
<trkpt lat="40.0712492" lon="-105.2295131">
  <ele>1583.0</ele>
  <time>2026-08-28T17:49:52Z</time>
  <course>118.94</course>
  <speed>2.19</speed>
  <fix>3d</fix>
</trkpt>
<trkpt lat="40.0712473" lon="-105.2295081">
  <ele>1583.02</ele>
  <time>2026-08-28T17:49:52Z</time>
  <course>120.29</course>
  <speed>2.287378412069153</speed>
  <fix>3d</fix>
</trkpt>
<trkpt lat="40.0712492" lon="-105.2295131">
  <ele>1583.0</ele>
  <time>2026-08-28T17:49:52Z</time>
  <course>118.94</course>
  <speed>2.19</speed>
  <fix>3d</fix>
</trkpt>
<trkpt lat="40.0712462" lon="-105.2295057">
  <ele>1583.02</ele>
  <time>2026-08-28T17:49:52Z</time>
  <course>120.49</course>
  <speed>2.341815535006974</speed>
  <fix>3d</fix>
</trkpt>
<trkpt lat="40.0712472" lon="-105.2295085">
  <ele>1583.0</ele>
  <time>2026-08-28T17:49:52Z</time>
  <course>119.09</course>
  <speed>2.31</speed>
  <fix>3d</fix>
</trkpt>
<trkpt lat="40.0712451" lon="-105.2295032">
  <ele>1583.02</ele>
  <time>2026-08-28T17:49:52Z</time>
  <course>120.76</course>
  <speed>2.3827085428142487</speed>
  <fix>3d</fix>
</trkpt>
<trkpt lat="40.0712472" lon="-105.2295085">
  <ele>1583.0</ele>
  <time>2026-08-28T17:49:52Z</time>
  <course>119.09</course>
  <speed>2.31</speed>
  <fix>3d</fix>
</trkpt>
<trkpt lat="40.071244" lon="-105.2295007">
  <ele>1583.02</ele>
  <time>2026-08-28T17:49:52Z</time>
  <course>121.1</course>
  <speed>2.437314095474771</speed>
  <fix>3d</fix>
</trkpt>
<trkpt lat="40.0712452" lon="-105.2295036">
  <ele>1583.0</ele>
  <time>2026-08-28T17:49:52Z</time>
  <course>119.55</course>
  <speed>2.41</speed>
  <fix>3d</fix>
</trkpt>
<trkpt lat="40.0712429" lon="-105.2294981">
  <ele>1583.02</ele>
  <time>2026-08-28T17:49:52Z</time>
  <course>121.49</course>
  <speed>2.474772716836841</speed>
  <fix>3d</fix>
</trkpt>
<trkpt lat="40.0712452" lon="-105.2295036">
  <ele>1583.0</ele>
  <time>2026-08-28T17:49:52Z</time>
  <course>119.55</course>
  <speed>2.41</speed>
  <fix>3d</fix>
</trkpt>
<trkpt lat="40.0712417" lon="-105.2294956">
  <ele>1583.02</ele>
  <time>2026-08-28T17:49:52Z</time>
  <course>121.96</course>
  <speed>2.5210315349078836</speed>
  <fix>3d</fix>
</trkpt>
<trkpt lat="40.0712452" lon="-105.2295036">
  <ele>1583.0</ele>
  <time>2026-08-28T17:49:52Z</time>
  <course>119.55</course>
  <speed>2.41</speed>
  <fix>3d</fix>
</trkpt>
<trkpt lat="40.0712405" lon="-105.229493">
  <ele>1583.02</ele>
  <time>2026-08-28T17:49:52Z</time>
  <course>122.46</course>
  <speed>2.5503921267130667</speed>
  <fix>3d</fix>
</trkpt>
<trkpt lat="40.071243" lon="-105.2294986">
  <ele>1583.0</ele>
  <time>2026-08-28T17:49:52Z</time>
  <course>120.29</course>
  <speed>2.5</speed>
  <fix>3d</fix>
</trkpt>
<trkpt lat="40.0712392" lon="-105.2294904">
  <ele>1583.02</ele>
  <time>2026-08-28T17:49:52Z</time>
  <course>123.02</course>
  <speed>2.5885324027332555</speed>
  <fix>3d</fix>
</trkpt>
<trkpt lat="40.071243" lon="-105.2294986">
  <ele>1583.0</ele>
  <time>2026-08-28T17:49:52Z</time>
  <course>120.29</course>
  <speed>2.5</speed>
  <fix>3d</fix>
</trkpt>
<trkpt lat="40.071238" lon="-105.2294878">
  <ele>1583.02</ele>
  <time>2026-08-28T17:49:52Z</time>
  <course>123.63</course>
  <speed>2.618472837361503</speed>
  <fix>3d</fix>
</trkpt>
<trkpt lat="40.0712407" lon="-105.2294934">
  <ele>1583.0</ele>
  <time>2026-08-28T17:49:52Z</time>
  <course>121.25</course>
  <speed>2.58</speed>
  <fix>3d</fix>
</trkpt>
<trkpt lat="40.0712367" lon="-105.2294852">
  <ele>1583.02</ele>
  <time>2026-08-28T17:49:52Z</time>
  <course>124.28</course>
  <speed>2.6487166703896436</speed>
  <fix>3d</fix>
</trkpt>
<trkpt lat="40.0712407" lon="-105.2294934">
  <ele>1583.0</ele>
  <time>2026-08-28T17:49:52Z</time>
  <course>121.25</course>
  <speed>2.58</speed>
  <fix>3d</fix>
</trkpt>
<trkpt lat="40.0712353" lon="-105.2294825">
  <ele>1583.02</ele>
  <time>2026-08-28T17:49:52Z</time>
  <course>124.97</course>
  <speed>2.6848649872945196</speed>
  <fix>3d</fix>
</trkpt>
<trkpt lat="40.0712381" lon="-105.2294883">
  <ele>1583.0</ele>
  <time>2026-08-28T17:49:52Z</time>
  <course>122.41</course>
  <speed>2.65</speed>
  <fix>3d</fix>
</trkpt>
<trkpt lat="40.0712339" lon="-105.2294799">
  <ele>1583.02</ele>
  <time>2026-08-28T17:49:52Z</time>
  <course>125.69</course>
  <speed>2.7133005731028033</speed>
  <fix>3d</fix>
</trkpt>
<trkpt lat="40.0712381" lon="-105.2294883">
  <ele>1583.0</ele>
  <time>2026-08-28T17:49:52Z</time>
  <course>122.41</course>
  <speed>2.65</speed>
  <fix>3d</fix>
</trkpt>
<trkpt lat="40.0712325" lon="-105.2294773">
  <ele>1583.01</ele>
  <time>2026-08-28T17:49:52Z</time>
  <course>126.45</course>
  <speed>2.750454507895013</speed>
  <fix>3d</fix>
</trkpt>
<trkpt lat="40.0712355" lon="-105.229483">
  <ele>1583.0</ele>
  <time>2026-08-28T17:49:52Z</time>
  <course>123.75</course>
  <speed>2.71</speed>
  <fix>3d</fix>
</trkpt>
<trkpt lat="40.071231" lon="-105.2294746">
  <ele>1583.01</ele>
  <time>2026-08-28T17:49:52Z</time>
  <course>127.24</course>
  <speed>2.780017985553331</speed>
  <fix>3d</fix>
</trkpt>
<trkpt lat="40.0712327" lon="-105.2294776">
  <ele>1583.0</ele>
  <time>2026-08-28T17:49:52Z</time>
  <course>125.23</course>
  <speed>2.78</speed>
  <fix>3d</fix>
</trkpt>
<trkpt lat="40.0712295" lon="-105.2294719">
  <ele>1583.01</ele>
  <time>2026-08-28T17:49:52Z</time>
  <course>128.06</course>
  <speed>2.8101601377857457</speed>
  <fix>3d</fix>
</trkpt>
<trkpt lat="40.0712327" lon="-105.2294776">
  <ele>1583.0</ele>
  <time>2026-08-28T17:49:52Z</time>
  <course>125.23</course>
  <speed>2.78</speed>
  <fix>3d</fix>
</trkpt>
<trkpt lat="40.0712279" lon="-105.2294693">
  <ele>1583.01</ele>
  <time>2026-08-28T17:49:52Z</time>
  <course>128.9</course>
  <speed>2.8549080545614776</speed>
  <fix>3d</fix>
</trkpt>
<trkpt lat="40.0712298" lon="-105.2294723">
  <ele>1583.0</ele>
  <time>2026-08-28T17:49:52Z</time>
  <course>126.84</course>
  <speed>2.85</speed>
  <fix>3d</fix>
</trkpt>
<trkpt lat="40.0712262" lon="-105.2294666">
  <ele>1583.01</ele>
  <time>2026-08-28T17:49:52Z</time>
  <course>129.77</course>
  <speed>2.892490276561012</speed>
  <fix>3d</fix>
</trkpt>
<trkpt lat="40.0712298" lon="-105.2294723">
  <ele>1583.0</ele>
  <time>2026-08-28T17:49:52Z</time>
  <course>126.84</course>
  <speed>2.85</speed>
  <fix>3d</fix>
</trkpt>
<trkpt lat="40.0712246" lon="-105.2294639">
  <ele>1583.02</ele>
  <time>2026-08-28T17:49:52Z</time>
  <course>130.67</course>
  <speed>2.930818998164165</speed>
  <fix>3d</fix>
</trkpt>
<trkpt lat="40.0712266" lon="-105.229467">
  <ele>1583.0</ele>
  <time>2026-08-28T17:49:52Z</time>
  <course>128.56</course>
  <speed>2.92</speed>
  <fix>3d</fix>
</trkpt>
<trkpt lat="40.0712228" lon="-105.2294612">
  <ele>1583.02</ele>
  <time>2026-08-28T17:49:52Z</time>
  <course>131.6</course>
  <speed>2.962330163908135</speed>
  <fix>3d</fix>
</trkpt>
<trkpt lat="40.0712266" lon="-105.229467">
  <ele>1583.0</ele>
  <time>2026-08-28T17:49:52Z</time>
  <course>128.56</course>
  <speed>2.92</speed>
  <fix>3d</fix>
</trkpt>
<trkpt lat="40.071221" lon="-105.2294585">
  <ele>1583.02</ele>
  <time>2026-08-28T17:49:52Z</time>
  <course>132.54</course>
  <speed>3.008870219866586</speed>
  <fix>3d</fix>
</trkpt>
<trkpt lat="40.0712232" lon="-105.2294615">
  <ele>1583.0</ele>
  <time>2026-08-28T17:49:52Z</time>
  <course>130.39</course>
  <speed>3.0</speed>
  <fix>3d</fix>
</trkpt>
<trkpt lat="40.0712191" lon="-105.2294558">
  <ele>1583.02</ele>
  <time>2026-08-28T17:49:52Z</time>
  <course>133.49</course>
  <speed>3.042170277943035</speed>
  <fix>3d</fix>
</trkpt>
<trkpt lat="40.0712232" lon="-105.2294615">
  <ele>1583.0</ele>
  <time>2026-08-28T17:49:52Z</time>
  <course>130.39</course>
  <speed>3.0</speed>
  <fix>3d</fix>
</trkpt>
<trkpt lat="40.0712172" lon="-105.2294531">
  <ele>1583.02</ele>
  <time>2026-08-28T17:49:52Z</time>
  <course>134.46</course>
  <speed>3.0904530412222737</speed>
  <fix>3d</fix>
</trkpt>
<trkpt lat="40.0712196" lon="-105.2294562">
  <ele>1583.0</ele>
  <time>2026-08-28T17:49:52Z</time>
  <course>132.28</course>
  <speed>3.08</speed>
  <fix>3d</fix>
</trkpt>
<trkpt lat="40.0712152" lon="-105.2294505">
  <ele>1583.02</ele>
  <time>2026-08-28T17:49:52Z</time>
  <course>135.47</course>
  <speed>3.132491021535417</speed>
  <fix>3d</fix>
</trkpt>
<trkpt lat="40.0712196" lon="-105.2294562">
  <ele>1583.0</ele>
  <time>2026-08-28T17:49:52Z</time>
  <course>132.28</course>
  <speed>3.08</speed>
  <fix>3d</fix>
</trkpt>
<trkpt lat="40.0712131" lon="-105.2294478">
  <ele>1583.02</ele>
  <time>2026-08-28T17:49:52Z</time>
  <course>136.49</course>
  <speed>3.1755471969410247</speed>
  <fix>3d</fix>
</trkpt>
<trkpt lat="40.0712158" lon="-105.2294508">
  <ele>1583.0</ele>
  <time>2026-08-28T17:49:52Z</time>
  <course>134.27</course>
  <speed>3.16</speed>
  <fix>3d</fix>
</trkpt>
<trkpt lat="40.071211" lon="-105.2294452">
  <ele>1583.02</ele>
  <time>2026-08-28T17:49:52Z</time>
  <course>137.54</course>
  <speed>3.226918034285965</speed>
  <fix>3d</fix>
</trkpt>
<trkpt lat="40.0712158" lon="-105.2294508">
  <ele>1583.0</ele>
  <time>2026-08-28T17:49:52Z</time>
  <course>134.27</course>
  <speed>3.16</speed>
  <fix>3d</fix>
</trkpt>
<trkpt lat="40.0712089" lon="-105.2294425">
  <ele>1583.02</ele>
  <time>2026-08-28T17:49:52Z</time>
  <course>138.6</course>
  <speed>3.265348373451139</speed>
  <fix>3d</fix>
</trkpt>
<trkpt lat="40.0712116" lon="-105.2294455">
  <ele>1583.0</ele>
  <time>2026-08-28T17:49:52Z</time>
  <course>136.35</course>
  <speed>3.25</speed>
  <fix>3d</fix>
</trkpt>
<trkpt lat="40.0712066" lon="-105.2294399">
  <ele>1583.02</ele>
  <time>2026-08-28T17:49:52Z</time>
  <course>139.68</course>
  <speed>3.3190360046254392</speed>
  <fix>3d</fix>
</trkpt>
<trkpt lat="40.0712116" lon="-105.2294455">
  <ele>1583.0</ele>
  <time>2026-08-28T17:49:52Z</time>
  <course>136.35</course>
  <speed>3.25</speed>
  <fix>3d</fix>
</trkpt>
<trkpt lat="40.0712043" lon="-105.2294373">
  <ele>1583.02</ele>
  <time>2026-08-28T17:49:52Z</time>
  <course>140.77</course>
  <speed>3.3674322561857126</speed>
  <fix>3d</fix>
</trkpt>
<trkpt lat="40.0712116" lon="-105.2294455">
  <ele>1583.0</ele>
  <time>2026-08-28T17:49:52Z</time>
  <course>136.35</course>
  <speed>3.25</speed>
  <fix>3d</fix>
</trkpt>
<trkpt lat="40.0712019" lon="-105.2294348">
  <ele>1583.02</ele>
  <time>2026-08-28T17:49:52Z</time>
  <course>141.87</course>
  <speed>3.417133301467767</speed>
  <fix>3d</fix>
</trkpt>
<trkpt lat="40.0712073" lon="-105.2294403">
  <ele>1583.0</ele>
  <time>2026-08-28T17:49:52Z</time>
  <course>138.5</course>
  <speed>3.34</speed>
  <fix>3d</fix>
</trkpt>
<trkpt lat="40.0711995" lon="-105.2294323">
  <ele>1583.02</ele>
  <time>2026-08-28T17:49:52Z</time>
  <course>143.0</course>
  <speed>3.4540700629836683</speed>
  <fix>3d</fix>
</trkpt>
<trkpt lat="40.0712073" lon="-105.2294403">
  <ele>1583.0</ele>
  <time>2026-08-28T17:49:52Z</time>
  <course>138.5</course>
  <speed>3.34</speed>
  <fix>3d</fix>
</trkpt>
<trkpt lat="40.071197" lon="-105.2294298">
  <ele>1583.02</ele>
  <time>2026-08-28T17:49:52Z</time>
  <course>144.13</course>
  <speed>3.5003571246374277</speed>
  <fix>3d</fix>
</trkpt>
<trkpt lat="40.0712026" lon="-105.2294351">
  <ele>1583.0</ele>
  <time>2026-08-28T17:49:52Z</time>
  <course>140.71</course>
  <speed>3.43</speed>
  <fix>3d</fix>
</trkpt>
<trkpt lat="40.0711944" lon="-105.2294273">
  <ele>1583.02</ele>
  <time>2026-08-28T17:49:52Z</time>
  <course>145.28</course>
  <speed>3.5563042614489553</speed>
  <fix>3d</fix>
</trkpt>
<trkpt lat="40.0712026" lon="-105.2294351">
  <ele>1583.0</ele>
  <time>2026-08-28T17:49:52Z</time>
  <course>140.71</course>
  <speed>3.43</speed>
  <fix>3d</fix>
</trkpt>
<trkpt lat="40.0711918" lon="-105.2294249">
  <ele>1583.02</ele>
  <time>2026-08-28T17:49:52Z</time>
  <course>146.43</course>
  <speed>3.605551275463989</speed>
  <fix>3d</fix>
</trkpt>
<trkpt lat="40.0711977" lon="-105.2294301">
  <ele>1583.0</ele>
  <time>2026-08-28T17:49:52Z</time>
  <course>142.98</course>
  <speed>3.53</speed>
  <fix>3d</fix>
</trkpt>
<trkpt lat="40.071189" lon="-105.2294225">
  <ele>1583.02</ele>
  <time>2026-08-28T17:49:52Z</time>
  <course>147.59</course>
  <speed>3.6561318356973946</speed>
  <fix>3d</fix>
</trkpt>
<trkpt lat="40.0711924" lon="-105.2294252">
  <ele>1583.0</ele>
  <time>2026-08-28T17:49:52Z</time>
  <course>145.28</course>
  <speed>3.63</speed>
  <fix>3d</fix>
</trkpt>
<trkpt lat="40.0711862" lon="-105.2294202">
  <ele>1583.02</ele>
  <time>2026-08-28T17:49:52Z</time>
  <course>148.77</course>
  <speed>3.7113070473891003</speed>
  <fix>3d</fix>
</trkpt>
<trkpt lat="40.0711924" lon="-105.2294252">
  <ele>1583.0</ele>
  <time>2026-08-28T17:49:52Z</time>
  <course>145.28</course>
  <speed>3.63</speed>
  <fix>3d</fix>
</trkpt>
<trkpt lat="40.0711833" lon="-105.2294179">
  <ele>1583.02</ele>
  <time>2026-08-28T17:49:52Z</time>
  <course>149.94</course>
  <speed>3.7596010426639683</speed>
  <fix>3d</fix>
</trkpt>
<trkpt lat="40.0711869" lon="-105.2294204">
  <ele>1583.0</ele>
  <time>2026-08-28T17:49:52Z</time>
  <course>147.62</course>
  <speed>3.74</speed>
  <fix>3d</fix>
</trkpt>
<trkpt lat="40.0711803" lon="-105.2294156">
  <ele>1583.02</ele>
  <time>2026-08-28T17:49:52Z</time>
  <course>151.11</course>
  <speed>3.8181278134708903</speed>
  <fix>3d</fix>
</trkpt>
<trkpt lat="40.0711869" lon="-105.2294204">
  <ele>1583.0</ele>
  <time>2026-08-28T17:49:52Z</time>
  <course>147.62</course>
  <speed>3.74</speed>
  <fix>3d</fix>
</trkpt>
<trkpt lat="40.0711773" lon="-105.2294134">
  <ele>1583.02</ele>
  <time>2026-08-28T17:49:52Z</time>
  <course>152.32</course>
  <speed>3.8647638996451</speed>
  <fix>3d</fix>
</trkpt>
<trkpt lat="40.0711811" lon="-105.2294158">
  <ele>1583.0</ele>
  <time>2026-08-28T17:49:52Z</time>
  <course>150.01</course>
  <speed>3.84</speed>
  <fix>3d</fix>
</trkpt>
<trkpt lat="40.0711741" lon="-105.2294113">
  <ele>1583.02</ele>
  <time>2026-08-28T17:49:52Z</time>
  <course>153.54</course>
  <speed>3.9220657822122256</speed>
  <fix>3d</fix>
</trkpt>
<trkpt lat="40.0711811" lon="-105.2294158">
  <ele>1583.0</ele>
  <time>2026-08-28T17:49:52Z</time>
  <course>150.01</course>
  <speed>3.84</speed>
  <fix>3d</fix>
</trkpt>
<trkpt lat="40.0711709" lon="-105.2294092">
  <ele>1583.02</ele>
  <time>2026-08-28T17:49:52Z</time>
  <course>154.77</course>
  <speed>3.981205847478877</speed>
  <fix>3d</fix>
</trkpt>
<trkpt lat="40.071175" lon="-105.2294114">
  <ele>1583.0</ele>
  <time>2026-08-28T17:49:52Z</time>
  <course>152.44</course>
  <speed>3.94</speed>
  <fix>3d</fix>
</trkpt>
<trkpt lat="40.0711676" lon="-105.2294071">
  <ele>1583.02</ele>
  <time>2026-08-28T17:49:52Z</time>
  <course>156.03</course>
  <speed>4.028895630318561</speed>
  <fix>3d</fix>
</trkpt>
<trkpt lat="40.071175" lon="-105.2294114">
  <ele>1583.0</ele>
  <time>2026-08-28T17:49:52Z</time>
  <course>152.44</course>
  <speed>3.94</speed>
  <fix>3d</fix>
</trkpt>
<trkpt lat="40.0711642" lon="-105.2294051">
  <ele>1583.02</ele>
  <time>2026-08-28T17:49:52Z</time>
  <course>157.29</course>
  <speed>4.087701065391157</speed>
  <fix>3d</fix>
</trkpt>
<trkpt lat="40.0711685" lon="-105.2294072">
  <ele>1583.0</ele>
  <time>2026-08-28T17:49:52Z</time>
  <course>154.94</course>
  <speed>4.05</speed>
  <fix>3d</fix>
</trkpt>
<trkpt lat="40.0711607" lon="-105.2294032">
  <ele>1583.02</ele>
  <time>2026-08-28T17:49:52Z</time>
  <course>158.57</course>
  <speed>4.135528986719836</speed>
  <fix>3d</fix>
</trkpt>
<trkpt lat="40.0711685" lon="-105.2294072">
  <ele>1583.0</ele>
  <time>2026-08-28T17:49:52Z</time>
  <course>154.94</course>
  <speed>4.05</speed>
  <fix>3d</fix>
</trkpt>
<trkpt lat="40.0711572" lon="-105.2294014">
  <ele>1583.02</ele>
  <time>2026-08-28T17:49:52Z</time>
  <course>159.87</course>
  <speed>4.185510721524913</speed>
  <fix>3d</fix>
</trkpt>
<trkpt lat="40.0711618" lon="-105.2294033">
  <ele>1583.0</ele>
  <time>2026-08-28T17:49:52Z</time>
  <course>157.5</course>
  <speed>4.15</speed>
  <fix>3d</fix>
</trkpt>
<trkpt lat="40.0711536" lon="-105.2293997">
  <ele>1583.02</ele>
  <time>2026-08-28T17:49:52Z</time>
  <course>161.18</course>
  <speed>4.237570058417913</speed>
  <fix>3d</fix>
</trkpt>
<trkpt lat="40.0711618" lon="-105.2294033">
  <ele>1583.0</ele>
  <time>2026-08-28T17:49:52Z</time>
  <course>157.5</course>
  <speed>4.15</speed>
  <fix>3d</fix>
</trkpt>
<trkpt lat="40.0711499" lon="-105.2293981">
  <ele>1583.02</ele>
  <time>2026-08-28T17:49:52Z</time>
  <course>162.51</course>
  <speed>4.288612829342373</speed>
  <fix>3d</fix>
</trkpt>
<trkpt lat="40.0711548" lon="-105.2293998">
  <ele>1583.0</ele>
  <time>2026-08-28T17:49:52Z</time>
  <course>160.12</course>
  <speed>4.25</speed>
  <fix>3d</fix>
</trkpt>
<trkpt lat="40.0711462" lon="-105.2293965">
  <ele>1583.02</ele>
  <time>2026-08-28T17:49:52Z</time>
  <course>163.85</course>
  <speed>4.342004145553065</speed>
  <fix>3d</fix>
</trkpt>
<trkpt lat="40.0711548" lon="-105.2293998">
  <ele>1583.0</ele>
  <time>2026-08-28T17:49:52Z</time>
  <course>160.12</course>
  <speed>4.25</speed>
  <fix>3d</fix>
</trkpt>
<trkpt lat="40.0711424" lon="-105.2293951">
  <ele>1583.01</ele>
  <time>2026-08-28T17:49:52Z</time>
  <course>165.21</course>
  <speed>4.395099543810129</speed>
  <fix>3d</fix>
</trkpt>
<trkpt lat="40.0711548" lon="-105.2293998">
  <ele>1583.0</ele>
  <time>2026-08-28T17:49:52Z</time>
  <course>160.12</course>
  <speed>4.25</speed>
  <fix>3d</fix>
</trkpt>
<trkpt lat="40.0711385" lon="-105.2293938">
  <ele>1583.01</ele>
  <time>2026-08-28T17:49:52Z</time>
  <course>166.59</course>
  <speed>4.441092208004693</speed>
  <fix>3d</fix>
</trkpt>
<trkpt lat="40.0711474" lon="-105.2293966">
  <ele>1583.0</ele>
  <time>2026-08-28T17:49:52Z</time>
  <course>162.81</course>
  <speed>4.35</speed>
  <fix>3d</fix>
</trkpt>
<trkpt lat="40.0711346" lon="-105.2293926">
  <ele>1583.01</ele>
  <time>2026-08-28T17:49:52Z</time>
  <course>167.98</course>
  <speed>4.489509995534034</speed>
  <fix>3d</fix>
</trkpt>
<trkpt lat="40.0711474" lon="-105.2293966">
  <ele>1583.0</ele>
  <time>2026-08-28T17:49:52Z</time>
  <course>162.81</course>
  <speed>4.35</speed>
  <fix>3d</fix>
</trkpt>
<trkpt lat="40.0711307" lon="-105.2293915">
  <ele>1583.01</ele>
  <time>2026-08-28T17:49:52Z</time>
  <course>169.39</course>
  <speed>4.538413819827364</speed>
  <fix>3d</fix>
</trkpt>
<trkpt lat="40.0711398" lon="-105.2293938">
  <ele>1583.0</ele>
  <time>2026-08-28T17:49:52Z</time>
  <course>165.56</course>
  <speed>4.45</speed>
  <fix>3d</fix>
</trkpt>
<trkpt lat="40.0711267" lon="-105.2293905">
  <ele>1583.0</ele>
  <time>2026-08-28T17:49:52Z</time>
  <course>170.81</course>
  <speed>4.588442001376938</speed>
  <fix>3d</fix>
</trkpt>
<trkpt lat="40.0711398" lon="-105.2293938">
  <ele>1583.0</ele>
  <time>2026-08-28T17:49:52Z</time>
  <course>165.56</course>
  <speed>4.45</speed>
  <fix>3d</fix>
</trkpt>
<trkpt lat="40.0711226" lon="-105.2293897">
  <ele>1583.0</ele>
  <time>2026-08-28T17:49:52Z</time>
  <course>172.23</course>
  <speed>4.64294087836578</speed>
  <fix>3d</fix>
</trkpt>
<trkpt lat="40.0711319" lon="-105.2293914">
  <ele>1583.0</ele>
  <time>2026-08-28T17:49:52Z</time>
  <course>168.37</course>
  <speed>4.55</speed>
  <fix>3d</fix>
</trkpt>
<trkpt lat="40.0711184" lon="-105.229389">
  <ele>1583.0</ele>
  <time>2026-08-28T17:49:52Z</time>
  <course>173.66</course>
  <speed>4.688923117305294</speed>
  <fix>3d</fix>
</trkpt>
<trkpt lat="40.0711319" lon="-105.2293914">
  <ele>1583.0</ele>
  <time>2026-08-28T17:49:52Z</time>
  <course>168.37</course>
  <speed>4.55</speed>
  <fix>3d</fix>
</trkpt>
<trkpt lat="40.0711142" lon="-105.2293884">
  <ele>1583.0</ele>
  <time>2026-08-28T17:49:52Z</time>
  <course>175.1</course>
  <speed>4.737773738793359</speed>
  <fix>3d</fix>
</trkpt>
<trkpt lat="40.0711237" lon="-105.2293894">
  <ele>1583.0</ele>
  <time>2026-08-28T17:49:52Z</time>
  <course>171.22</course>
  <speed>4.65</speed>
  <fix>3d</fix>
</trkpt>
<trkpt lat="40.07111" lon="-105.2293879">
  <ele>1583.0</ele>
  <time>2026-08-28T17:49:52Z</time>
  <course>176.53</course>
  <speed>4.788788990966297</speed>
  <fix>3d</fix>
</trkpt>
<trkpt lat="40.0711153" lon="-105.229388">
  <ele>1583.0</ele>
  <time>2026-08-28T17:49:52Z</time>
  <course>174.08</course>
  <speed>4.76</speed>
  <fix>3d</fix>
</trkpt>
<trkpt lat="40.0711056" lon="-105.2293876">
  <ele>1583.0</ele>
  <time>2026-08-28T17:49:52Z</time>
  <course>177.96</course>
  <speed>4.84298461694852</speed>
  <fix>3d</fix>
</trkpt>
<trkpt lat="40.0711153" lon="-105.229388">
  <ele>1583.0</ele>
  <time>2026-08-28T17:49:52Z</time>
  <course>174.08</course>
  <speed>4.76</speed>
  <fix>3d</fix>
</trkpt>
<trkpt lat="40.0711013" lon="-105.2293874">
  <ele>1582.99</ele>
  <time>2026-08-28T17:49:52Z</time>
  <course>179.4</course>
  <speed>4.900255095400647</speed>
  <fix>3d</fix>
</trkpt>
<trkpt lat="40.0711067" lon="-105.2293871">
  <ele>1583.0</ele>
  <time>2026-08-28T17:49:52Z</time>
  <course>176.96</course>
  <speed>4.86</speed>
  <fix>3d</fix>
</trkpt>
<trkpt lat="40.0710968" lon="-105.2293873">
  <ele>1582.99</ele>
  <time>2026-08-28T17:49:52Z</time>
  <course>180.88</course>
  <speed>4.9503636230079096</speed>
  <fix>3d</fix>
</trkpt>
<trkpt lat="40.0711067" lon="-105.2293871">
  <ele>1583.0</ele>
  <time>2026-08-28T17:49:52Z</time>
  <course>176.96</course>
  <speed>4.86</speed>
  <fix>3d</fix>
</trkpt>
<trkpt lat="40.0710923" lon="-105.2293874">
  <ele>1582.99</ele>
  <time>2026-08-28T17:49:52Z</time>
  <course>182.36</course>
  <speed>5.0039984012787215</speed>
  <fix>3d</fix>
</trkpt>
<trkpt lat="40.0710979" lon="-105.2293868">
  <ele>1583.0</ele>
  <time>2026-08-28T17:49:52Z</time>
  <course>179.9</course>
  <speed>4.97</speed>
  <fix>3d</fix>
</trkpt>
<trkpt lat="40.0710877" lon="-105.2293876">
  <ele>1582.99</ele>
  <time>2026-08-28T17:49:52Z</time>
  <course>183.85</course>
  <speed>5.050792017099893</speed>
  <fix>3d</fix>
</trkpt>
<trkpt lat="40.0710979" lon="-105.2293868">
  <ele>1583.0</ele>
  <time>2026-08-28T17:49:52Z</time>
  <course>179.9</course>
  <speed>4.97</speed>
  <fix>3d</fix>
</trkpt>
<trkpt lat="40.0710831" lon="-105.229388">
  <ele>1582.99</ele>
  <time>2026-08-28T17:49:52Z</time>
  <course>185.38</course>
  <speed>5.081781183797665</speed>
  <fix>3d</fix>
</trkpt>
<trkpt lat="40.0710889" lon="-105.2293871">
  <ele>1583.0</ele>
  <time>2026-08-28T17:49:52Z</time>
  <course>182.88</course>
  <speed>5.05</speed>
  <fix>3d</fix>
</trkpt>
<trkpt lat="40.0710785" lon="-105.2293886">
  <ele>1582.99</ele>
  <time>2026-08-28T17:49:52Z</time>
  <course>186.88</course>
  <speed>5.115310352266029</speed>
  <fix>3d</fix>
</trkpt>
<trkpt lat="40.0710889" lon="-105.2293871">
  <ele>1583.0</ele>
  <time>2026-08-28T17:49:52Z</time>
  <course>182.88</course>
  <speed>5.05</speed>
  <fix>3d</fix>
</trkpt>
<trkpt lat="40.0710738" lon="-105.2293893">
  <ele>1582.99</ele>
  <time>2026-08-28T17:49:52Z</time>
  <course>188.38</course>
  <speed>5.1336147109030295</speed>
  <fix>3d</fix>
</trkpt>
<trkpt lat="40.0710798" lon="-105.229388">
  <ele>1583.0</ele>
  <time>2026-08-28T17:49:52Z</time>
  <course>185.9</course>
  <speed>5.11</speed>
  <fix>3d</fix>
</trkpt>
<trkpt lat="40.0710692" lon="-105.2293902">
  <ele>1582.98</ele>
  <time>2026-08-28T17:49:52Z</time>
  <course>189.85</course>
  <speed>5.14410342042226</speed>
  <fix>3d</fix>
</trkpt>
<trkpt lat="40.0710798" lon="-105.229388">
  <ele>1583.0</ele>
  <time>2026-08-28T17:49:52Z</time>
  <course>185.9</course>
  <speed>5.11</speed>
  <fix>3d</fix>
</trkpt>
<trkpt lat="40.0710646" lon="-105.2293913">
  <ele>1582.99</ele>
  <time>2026-08-28T17:49:52Z</time>
  <course>191.34</course>
  <speed>5.148057886232439</speed>
  <fix>3d</fix>
</trkpt>
<trkpt lat="40.0710706" lon="-105.2293895">
  <ele>1583.0</ele>
  <time>2026-08-28T17:49:52Z</time>
  <course>188.89</course>
  <speed>5.14</speed>
  <fix>3d</fix>
</trkpt>
<trkpt lat="40.0710601" lon="-105.2293925">
  <ele>1582.99</ele>
  <time>2026-08-28T17:49:52Z</time>
  <course>192.85</course>
  <speed>5.155366136367038</speed>
  <fix>3d</fix>
</trkpt>
<trkpt lat="40.0710706" lon="-105.2293895">
  <ele>1583.0</ele>
  <time>2026-08-28T17:49:52Z</time>
  <course>188.89</course>
  <speed>5.14</speed>
  <fix>3d</fix>
</trkpt>
<trkpt lat="40.0710555" lon="-105.2293939">
  <ele>1582.99</ele>
  <time>2026-08-28T17:49:52Z</time>
  <course>194.33</course>
  <speed>5.14662025022247</speed>
  <fix>3d</fix>
</trkpt>
<trkpt lat="40.0710615" lon="-105.2293917">
  <ele>1583.0</ele>
  <time>2026-08-28T17:49:52Z</time>
  <course>191.87</course>
  <speed>5.15</speed>
  <fix>3d</fix>
</trkpt>
<trkpt lat="40.071051" lon="-105.2293954">
  <ele>1582.99</ele>
  <time>2026-08-28T17:49:52Z</time>
  <course>195.86</course>
  <speed>5.141458936916641</speed>
  <fix>3d</fix>
</trkpt>
<trkpt lat="40.0710615" lon="-105.2293917">
  <ele>1583.0</ele>
  <time>2026-08-28T17:49:52Z</time>
  <course>191.87</course>
  <speed>5.15</speed>
  <fix>3d</fix>
</trkpt>
<trkpt lat="40.0710466" lon="-105.2293971">
  <ele>1582.99</ele>
  <time>2026-08-28T17:49:52Z</time>
  <course>197.36</course>
  <speed>5.130341119262929</speed>
  <fix>3d</fix>
</trkpt>
<trkpt lat="40.0710615" lon="-105.2293917">
  <ele>1583.0</ele>
  <time>2026-08-28T17:49:52Z</time>
  <course>191.87</course>
  <speed>5.15</speed>
  <fix>3d</fix>
</trkpt>
<trkpt lat="40.0710422" lon="-105.2293989">
  <ele>1582.99</ele>
  <time>2026-08-28T17:49:52Z</time>
  <course>198.89</course>
  <speed>5.110303317808054</speed>
  <fix>3d</fix>
</trkpt>
<trkpt lat="40.0710525" lon="-105.2293945">
  <ele>1583.0</ele>
  <time>2026-08-28T17:49:52Z</time>
  <course>194.89</course>
  <speed>5.14</speed>
  <fix>3d</fix>
</trkpt>
<trkpt lat="40.0710379" lon="-105.2294008">
  <ele>1582.99</ele>
  <time>2026-08-28T17:49:52Z</time>
  <course>200.42</course>
  <speed>5.093721625687843</speed>
  <fix>3d</fix>
</trkpt>
<trkpt lat="40.0710525" lon="-105.2293945">
  <ele>1583.0</ele>
  <time>2026-08-28T17:49:52Z</time>
  <course>194.89</course>
  <speed>5.14</speed>
  <fix>3d</fix>
</trkpt>
<trkpt lat="40.0710337" lon="-105.2294029">
  <ele>1582.99</ele>
  <time>2026-08-28T17:49:52Z</time>
  <course>201.94</course>
  <speed>5.071341045522377</speed>
  <fix>3d</fix>
</trkpt>
<trkpt lat="40.0710437" lon="-105.2293979">
  <ele>1583.0</ele>
  <time>2026-08-28T17:49:52Z</time>
  <course>197.94</course>
  <speed>5.11</speed>
  <fix>3d</fix>
</trkpt>
<trkpt lat="40.0710295" lon="-105.2294051">
  <ele>1582.99</ele>
  <time>2026-08-28T17:49:52Z</time>
  <course>203.46</course>
  <speed>5.061867244406949</speed>
  <fix>3d</fix>
</trkpt>
<trkpt lat="40.0710437" lon="-105.2293979">
  <ele>1583.0</ele>
  <time>2026-08-28T17:49:52Z</time>
  <course>197.94</course>
  <speed>5.11</speed>
  <fix>3d</fix>
</trkpt>
<trkpt lat="40.0710254" lon="-105.2294075">
  <ele>1582.99</ele>
  <time>2026-08-28T17:49:52Z</time>
  <course>204.97</course>
  <speed>5.033587190066345</speed>
  <fix>3d</fix>
</trkpt>
<trkpt lat="40.071035" lon="-105.2294019">
  <ele>1583.0</ele>
  <time>2026-08-28T17:49:52Z</time>
  <course>200.98</course>
  <speed>5.08</speed>
  <fix>3d</fix>
</trkpt>
<trkpt lat="40.0710213" lon="-105.22941">
  <ele>1583.0</ele>
  <time>2026-08-28T17:49:52Z</time>
  <course>206.49</course>
  <speed>5.017808286493217</speed>
  <fix>3d</fix>
</trkpt>
<trkpt lat="40.0710266" lon="-105.2294065">
  <ele>1583.0</ele>
  <time>2026-08-28T17:49:52Z</time>
  <course>204.01</course>
  <speed>5.05</speed>
  <fix>3d</fix>
</trkpt>
<trkpt lat="40.0710173" lon="-105.2294126">
  <ele>1583.0</ele>
  <time>2026-08-28T17:49:52Z</time>
  <course>207.99</course>
  <speed>5.005377108670235</speed>
  <fix>3d</fix>
</trkpt>
<trkpt lat="40.0710266" lon="-105.2294065">
  <ele>1583.0</ele>
  <time>2026-08-28T17:49:52Z</time>
  <course>204.01</course>
  <speed>5.05</speed>
  <fix>3d</fix>
</trkpt>
<trkpt lat="40.0710133" lon="-105.2294154">
  <ele>1583.01</ele>
  <time>2026-08-28T17:49:52Z</time>
  <course>209.49</course>
  <speed>4.9875946106314615</speed>
  <fix>3d</fix>
</trkpt>
<trkpt lat="40.0710184" lon="-105.2294115">
  <ele>1583.0</ele>
  <time>2026-08-28T17:49:52Z</time>
  <course>207.02</course>
  <speed>5.02</speed>
  <fix>3d</fix>
</trkpt>
<trkpt lat="40.0710095" lon="-105.2294183">
  <ele>1583.01</ele>
  <time>2026-08-28T17:49:52Z</time>
  <course>210.97</course>
  <speed>4.976946855251722</speed>
  <fix>3d</fix>
</trkpt>
<trkpt lat="40.0710184" lon="-105.2294115">
  <ele>1583.0</ele>
  <time>2026-08-28T17:49:52Z</time>
  <course>207.02</course>
  <speed>5.02</speed>
  <fix>3d</fix>
</trkpt>
<trkpt lat="40.0710056" lon="-105.2294213">
  <ele>1583.01</ele>
  <time>2026-08-28T17:49:53Z</time>
  <course>212.46</course>
  <speed>4.9661353183335635</speed>
  <fix>3d</fix>
</trkpt>
<trkpt lat="40.0710105" lon="-105.2294171">
  <ele>1583.0</ele>
  <time>2026-08-28T17:49:53Z</time>
  <course>210.01</course>
  <speed>5.0</speed>
  <fix>3d</fix>
</trkpt>
<trkpt lat="40.0710018" lon="-105.2294245">
  <ele>1583.02</ele>
  <time>2026-08-28T17:49:53Z</time>
  <course>213.94</course>
  <speed>4.961794030388606</speed>
  <fix>3d</fix>
</trkpt>
<trkpt lat="40.0710105" lon="-105.2294171">
  <ele>1583.0</ele>
  <time>2026-08-28T17:49:53Z</time>
  <course>210.01</course>
  <speed>5.0</speed>
  <fix>3d</fix>
</trkpt>
<trkpt lat="40.0709981" lon="-105.2294278">
  <ele>1583.02</ele>
  <time>2026-08-28T17:49:53Z</time>
  <course>215.43</course>
  <speed>4.95803388451511</speed>
  <fix>3d</fix>
</trkpt>
<trkpt lat="40.0710029" lon="-105.2294232">
  <ele>1583.0</ele>
  <time>2026-08-28T17:49:53Z</time>
  <course>212.99</course>
  <speed>4.98</speed>
  <fix>3d</fix>
</trkpt>
<trkpt lat="40.0709945" lon="-105.2294312">
  <ele>1583.02</ele>
  <time>2026-08-28T17:49:53Z</time>
  <course>216.92</course>
  <speed>4.952019789944301</speed>
  <fix>3d</fix>
</trkpt>
<trkpt lat="40.0710029" lon="-105.2294232">
  <ele>1583.0</ele>
  <time>2026-08-28T17:49:53Z</time>
  <course>212.99</course>
  <speed>4.98</speed>
  <fix>3d</fix>
</trkpt>
<trkpt lat="40.0709909" lon="-105.2294347">
  <ele>1583.01</ele>
  <time>2026-08-28T17:49:53Z</time>
  <course>218.38</course>
  <speed>4.949313083651104</speed>
  <fix>3d</fix>
</trkpt>
<trkpt lat="40.0709955" lon="-105.2294299">
  <ele>1583.0</ele>
  <time>2026-08-28T17:49:53Z</time>
  <course>215.95</course>
  <speed>4.97</speed>
  <fix>3d</fix>
</trkpt>
<trkpt lat="40.0709874" lon="-105.2294384">
  <ele>1583.01</ele>
  <time>2026-08-28T17:49:53Z</time>
  <course>219.85</course>
  <speed>4.943541240851542</speed>
  <fix>3d</fix>
</trkpt>
<trkpt lat="40.0709955" lon="-105.2294299">
  <ele>1583.0</ele>
  <time>2026-08-28T17:49:53Z</time>
  <course>215.95</course>
  <speed>4.97</speed>
  <fix>3d</fix>
</trkpt>
<trkpt lat="40.070984" lon="-105.2294421">
  <ele>1583.0</ele>
  <time>2026-08-28T17:49:53Z</time>
  <course>221.31</course>
  <speed>4.939726713088488</speed>
  <fix>3d</fix>
</trkpt>
<trkpt lat="40.0709884" lon="-105.229437">
  <ele>1583.0</ele>
  <time>2026-08-28T17:49:53Z</time>
  <course>218.89</course>
  <speed>4.96</speed>
  <fix>3d</fix>
</trkpt>
<trkpt lat="40.0709806" lon="-105.229446">
  <ele>1583.0</ele>
  <time>2026-08-28T17:49:53Z</time>
  <course>222.75</course>
  <speed>4.940161940665508</speed>
  <fix>3d</fix>
</trkpt>
<trkpt lat="40.0709884" lon="-105.229437">
  <ele>1583.0</ele>
  <time>2026-08-28T17:49:53Z</time>
  <course>218.89</course>
  <speed>4.96</speed>
  <fix>3d</fix>
</trkpt>
<trkpt lat="40.0709774" lon="-105.22945">
  <ele>1583.0</ele>
  <time>2026-08-28T17:49:53Z</time>
  <course>224.18</course>
  <speed>4.9435311266340785</speed>
  <fix>3d</fix>
</trkpt>
<trkpt lat="40.0709816" lon="-105.2294445">
  <ele>1583.0</ele>
  <time>2026-08-28T17:49:53Z</time>
  <course>221.79</course>
  <speed>4.96</speed>
  <fix>3d</fix>
</trkpt>
<trkpt lat="40.0709742" lon="-105.2294541">
  <ele>1582.99</ele>
  <time>2026-08-28T17:49:53Z</time>
  <course>225.63</course>
  <speed>4.942802848587024</speed>
  <fix>3d</fix>
</trkpt>
<trkpt lat="40.0709816" lon="-105.2294445">
  <ele>1583.0</ele>
  <time>2026-08-28T17:49:53Z</time>
  <course>221.79</course>
  <speed>4.96</speed>
  <fix>3d</fix>
</trkpt>
<trkpt lat="40.0709711" lon="-105.2294583">
  <ele>1582.99</ele>
  <time>2026-08-28T17:49:53Z</time>
  <course>227.07</course>
  <speed>4.945351352533002</speed>
  <fix>3d</fix>
</trkpt>
<trkpt lat="40.0709816" lon="-105.2294445">
  <ele>1583.0</ele>
  <time>2026-08-28T17:49:53Z</time>
  <course>221.79</course>
  <speed>4.96</speed>
  <fix>3d</fix>
</trkpt>
<trkpt lat="40.0709681" lon="-105.2294625">
  <ele>1582.99</ele>
  <time>2026-08-28T17:49:53Z</time>
  <course>228.49</course>
  <speed>4.951171578525632</speed>
  <fix>3d</fix>
</trkpt>
<trkpt lat="40.0709751" lon="-105.2294526">
  <ele>1583.0</ele>
  <time>2026-08-28T17:49:53Z</time>
  <course>224.68</course>
  <speed>4.96</speed>
  <fix>3d</fix>
</trkpt>
<trkpt lat="40.0709651" lon="-105.2294669">
  <ele>1582.99</ele>
  <time>2026-08-28T17:49:53Z</time>
  <course>229.94</course>
  <speed>4.952615470637712</speed>
  <fix>3d</fix>
</trkpt>
<trkpt lat="40.0709751" lon="-105.2294526">
  <ele>1583.0</ele>
  <time>2026-08-28T17:49:53Z</time>
  <course>224.68</course>
  <speed>4.96</speed>
  <fix>3d</fix>
</trkpt>
<trkpt lat="40.0709623" lon="-105.2294713">
  <ele>1582.99</ele>
  <time>2026-08-28T17:49:53Z</time>
  <course>231.36</course>
  <speed>4.956984970725653</speed>
  <fix>3d</fix>
</trkpt>
<trkpt lat="40.0709689" lon="-105.229461">
  <ele>1583.0</ele>
  <time>2026-08-28T17:49:53Z</time>
  <course>227.57</course>
  <speed>4.97</speed>
  <fix>3d</fix>
</trkpt>
<trkpt lat="40.0709595" lon="-105.2294759">
  <ele>1582.99</ele>
  <time>2026-08-28T17:49:53Z</time>
  <course>232.8</course>
  <speed>4.95819523617213</speed>
  <fix>3d</fix>
</trkpt>
<trkpt lat="40.0709689" lon="-105.229461">
  <ele>1583.0</ele>
  <time>2026-08-28T17:49:53Z</time>
  <course>227.57</course>
  <speed>4.97</speed>
  <fix>3d</fix>
</trkpt>
<trkpt lat="40.0709569" lon="-105.2294805">
  <ele>1582.99</ele>
  <time>2026-08-28T17:49:53Z</time>
  <course>234.22</course>
  <speed>4.960493927019768</speed>
  <fix>3d</fix>
</trkpt>
<trkpt lat="40.070963" lon="-105.2294698">
  <ele>1583.0</ele>
  <time>2026-08-28T17:49:53Z</time>
  <course>230.42</course>
  <speed>4.98</speed>
  <fix>3d</fix>
</trkpt>
<trkpt lat="40.0709543" lon="-105.2294852">
  <ele>1582.99</ele>
  <time>2026-08-28T17:49:53Z</time>
  <course>235.68</course>
  <speed>4.967947262199952</speed>
  <fix>3d</fix>
</trkpt>
<trkpt lat="40.0709575" lon="-105.229479">
  <ele>1583.0</ele>
  <time>2026-08-28T17:49:53Z</time>
  <course>233.28</course>
  <speed>4.99</speed>
  <fix>3d</fix>
</trkpt>
<trkpt lat="40.0709518" lon="-105.2294901">
  <ele>1582.98</ele>
  <time>2026-08-28T17:49:53Z</time>
  <course>237.1</course>
  <speed>4.970311861442902</speed>
  <fix>3d</fix>
</trkpt>
<trkpt lat="40.0709575" lon="-105.229479">
  <ele>1583.0</ele>
  <time>2026-08-28T17:49:53Z</time>
  <course>233.28</course>
  <speed>4.99</speed>
  <fix>3d</fix>
</trkpt>
<trkpt lat="40.0709494" lon="-105.229495">
  <ele>1582.98</ele>
  <time>2026-08-28T17:49:53Z</time>
  <course>238.53</course>
  <speed>4.970412457734267</speed>
  <fix>3d</fix>
</trkpt>
<trkpt lat="40.0709523" lon="-105.2294886">
  <ele>1583.0</ele>
  <time>2026-08-28T17:49:53Z</time>
  <course>236.13</course>
  <speed>5.0</speed>
  <fix>3d</fix>
</trkpt>
<trkpt lat="40.070947" lon="-105.2295">
  <ele>1582.99</ele>
  <time>2026-08-28T17:49:53Z</time>
  <course>239.94</course>
  <speed>4.97896575605818</speed>
  <fix>3d</fix>
</trkpt>
<trkpt lat="40.0709523" lon="-105.2294886">
  <ele>1583.0</ele>
  <time>2026-08-28T17:49:53Z</time>
  <course>236.13</course>
  <speed>5.0</speed>
  <fix>3d</fix>
</trkpt>
<trkpt lat="40.0709448" lon="-105.2295051">
  <ele>1582.98</ele>
  <time>2026-08-28T17:49:53Z</time>
  <course>241.37</course>
  <speed>4.990490957811666</speed>
  <fix>3d</fix>
</trkpt>
<trkpt lat="40.0709475" lon="-105.2294985">
  <ele>1583.0</ele>
  <time>2026-08-28T17:49:53Z</time>
  <course>238.98</course>
  <speed>5.01</speed>
  <fix>3d</fix>
</trkpt>
<trkpt lat="40.0709426" lon="-105.2295103">
  <ele>1582.98</ele>
  <time>2026-08-28T17:49:53Z</time>
  <course>242.79</course>
  <speed>4.991482745637813</speed>
  <fix>3d</fix>
</trkpt>
<trkpt lat="40.0709475" lon="-105.2294985">
  <ele>1583.0</ele>
  <time>2026-08-28T17:49:53Z</time>
  <course>238.98</course>
  <speed>5.01</speed>
  <fix>3d</fix>
</trkpt>
<trkpt lat="40.0709406" lon="-105.2295156">
  <ele>1582.98</ele>
  <time>2026-08-28T17:49:53Z</time>
  <course>244.22</course>
  <speed>4.995618079877604</speed>
  <fix>3d</fix>
</trkpt>
<trkpt lat="40.070943" lon="-105.2295087">
  <ele>1583.0</ele>
  <time>2026-08-28T17:49:53Z</time>
  <course>241.84</course>
  <speed>5.02</speed>
  <fix>3d</fix>
</trkpt>
<trkpt lat="40.0709386" lon="-105.2295209">
  <ele>1582.98</ele>
  <time>2026-08-28T17:49:53Z</time>
  <course>245.65</course>
  <speed>5.0028891652724035</speed>
  <fix>3d</fix>
</trkpt>
<trkpt lat="40.070943" lon="-105.2295087">
  <ele>1583.0</ele>
  <time>2026-08-28T17:49:53Z</time>
  <course>241.84</course>
  <speed>5.02</speed>
  <fix>3d</fix>
</trkpt>
<trkpt lat="40.0709368" lon="-105.2295264">
  <ele>1582.98</ele>
  <time>2026-08-28T17:49:53Z</time>
  <course>247.1</course>
  <speed>5.000159997440082</speed>
  <fix>3d</fix>
</trkpt>
<trkpt lat="40.070939" lon="-105.2295193">
  <ele>1583.0</ele>
  <time>2026-08-28T17:49:53Z</time>
  <course>244.71</course>
  <speed>5.03</speed>
  <fix>3d</fix>
</trkpt>
<trkpt lat="40.070935" lon="-105.2295319">
  <ele>1582.98</ele>
  <time>2026-08-28T17:49:53Z</time>
  <course>248.53</course>
  <speed>5.004497976820453</speed>
  <fix>3d</fix>
</trkpt>
<trkpt lat="40.070939" lon="-105.2295193">
  <ele>1583.0</ele>
  <time>2026-08-28T17:49:53Z</time>
  <course>244.71</course>
  <speed>5.03</speed>
  <fix>3d</fix>
</trkpt>
<trkpt lat="40.0709334" lon="-105.2295374">
  <ele>1582.98</ele>
  <time>2026-08-28T17:49:53Z</time>
  <course>249.96</course>
  <speed>5.008283138960895</speed>
  <fix>3d</fix>
</trkpt>
<trkpt lat="40.0709353" lon="-105.2295301">
  <ele>1583.0</ele>
  <time>2026-08-28T17:49:53Z</time>
  <course>247.57</course>
  <speed>5.03</speed>
  <fix>3d</fix>
</trkpt>
<trkpt lat="40.0709318" lon="-105.229543">
  <ele>1582.98</ele>
  <time>2026-08-28T17:49:53Z</time>
  <course>251.39</course>
  <speed>5.005966440159183</speed>
  <fix>3d</fix>
</trkpt>
<trkpt lat="40.0709353" lon="-105.2295301">
  <ele>1583.0</ele>
  <time>2026-08-28T17:49:53Z</time>
  <course>247.57</course>
  <speed>5.03</speed>
  <fix>3d</fix>
</trkpt>
<trkpt lat="40.0709304" lon="-105.2295486">
  <ele>1582.98</ele>
  <time>2026-08-28T17:49:53Z</time>
  <course>252.83</course>
  <speed>5.006845314167395</speed>
  <fix>3d</fix>
</trkpt>
<trkpt lat="40.070932" lon="-105.2295411">
  <ele>1583.0</ele>
  <time>2026-08-28T17:49:53Z</time>
  <course>250.44</course>
  <speed>5.03</speed>
  <fix>3d</fix>
</trkpt>
<trkpt lat="40.0709291" lon="-105.2295543">
  <ele>1582.99</ele>
  <time>2026-08-28T17:49:53Z</time>
  <course>254.26</course>
  <speed>5.0109180795538855</speed>
  <fix>3d</fix>
</trkpt>
<trkpt lat="40.070932" lon="-105.2295411">
  <ele>1583.0</ele>
  <time>2026-08-28T17:49:53Z</time>
  <course>250.44</course>
  <speed>5.03</speed>
  <fix>3d</fix>
</trkpt>
<trkpt lat="40.0709278" lon="-105.22956">
  <ele>1582.99</ele>
  <time>2026-08-28T17:49:53Z</time>
  <course>255.69</course>
  <speed>5.008492787256461</speed>
  <fix>3d</fix>
</trkpt>
<trkpt lat="40.070932" lon="-105.2295411">
  <ele>1583.0</ele>
  <time>2026-08-28T17:49:53Z</time>
  <course>250.44</course>
  <speed>5.03</speed>
  <fix>3d</fix>
</trkpt>
<trkpt lat="40.0709267" lon="-105.2295657">
  <ele>1582.99</ele>
  <time>2026-08-28T17:49:53Z</time>
  <course>257.13</course>
  <speed>5.0091216794963165</speed>
  <fix>3d</fix>
</trkpt>
<trkpt lat="40.0709292" lon="-105.2295523">
  <ele>1583.0</ele>
  <time>2026-08-28T17:49:53Z</time>
  <course>253.31</course>
  <speed>5.03</speed>
  <fix>3d</fix>
</trkpt>
<trkpt lat="40.0709258" lon="-105.2295714">
  <ele>1582.99</ele>
  <time>2026-08-28T17:49:53Z</time>
  <course>258.56</course>
  <speed>5.003009094535008</speed>
  <fix>3d</fix>
</trkpt>
<trkpt lat="40.0709292" lon="-105.2295523">
  <ele>1583.0</ele>
  <time>2026-08-28T17:49:53Z</time>
  <course>253.31</course>
  <speed>5.03</speed>
  <fix>3d</fix>
</trkpt>
<trkpt lat="40.0709249" lon="-105.2295771">
  <ele>1583.0</ele>
  <time>2026-08-28T17:49:53Z</time>
  <course>260.0</course>
  <speed>4.999849997749933</speed>
  <fix>3d</fix>
</trkpt>
<trkpt lat="40.0709269" lon="-105.2295638">
  <ele>1583.0</ele>
  <time>2026-08-28T17:49:53Z</time>
  <course>256.18</course>
  <speed>5.03</speed>
  <fix>3d</fix>
</trkpt>
<trkpt lat="40.0709241" lon="-105.2295829">
  <ele>1583.0</ele>
  <time>2026-08-28T17:49:53Z</time>
  <course>261.44</course>
  <speed>4.998119646427044</speed>
  <fix>3d</fix>
</trkpt>
<trkpt lat="40.0709269" lon="-105.2295638">
  <ele>1583.0</ele>
  <time>2026-08-28T17:49:53Z</time>
  <course>256.18</course>
  <speed>5.03</speed>
  <fix>3d</fix>
</trkpt>
<trkpt lat="40.0709235" lon="-105.2295886">
  <ele>1583.0</ele>
  <time>2026-08-28T17:49:53Z</time>
  <course>262.87</course>
  <speed>4.991202259977049</speed>
  <fix>3d</fix>
</trkpt>
<trkpt lat="40.070925" lon="-105.2295753">
  <ele>1583.0</ele>
  <time>2026-08-28T17:49:53Z</time>
  <course>259.04</course>
  <speed>5.02</speed>
  <fix>3d</fix>
</trkpt>
<trkpt lat="40.0709229" lon="-105.2295944">
  <ele>1583.0</ele>
  <time>2026-08-28T17:49:53Z</time>
  <course>264.31</course>
  <speed>4.997129175836863</speed>
  <fix>3d</fix>
</trkpt>
<trkpt lat="40.070925" lon="-105.2295753">
  <ele>1583.0</ele>
  <time>2026-08-28T17:49:53Z</time>
  <course>259.04</course>
  <speed>5.02</speed>
  <fix>3d</fix>
</trkpt>
<trkpt lat="40.0709225" lon="-105.2296003">
  <ele>1583.0</ele>
  <time>2026-08-28T17:49:53Z</time>
  <course>265.76</course>
  <speed>4.995247741604014</speed>
  <fix>3d</fix>
</trkpt>
<trkpt lat="40.0709235" lon="-105.2295869">
  <ele>1583.0</ele>
  <time>2026-08-28T17:49:53Z</time>
  <course>261.91</course>
  <speed>5.02</speed>
  <fix>3d</fix>
</trkpt>
<trkpt lat="40.0709222" lon="-105.2296061">
  <ele>1583.0</ele>
  <time>2026-08-28T17:49:53Z</time>
  <course>267.19</course>
  <speed>4.987313906302671</speed>
  <fix>3d</fix>
</trkpt>
<trkpt lat="40.0709224" lon="-105.2295987">
  <ele>1583.0</ele>
  <time>2026-08-28T17:49:53Z</time>
  <course>264.77</course>
  <speed>5.02</speed>
  <fix>3d</fix>
</trkpt>
<trkpt lat="40.070922" lon="-105.229612">
  <ele>1583.0</ele>
  <time>2026-08-28T17:49:53Z</time>
  <course>268.62</course>
  <speed>4.991963541533532</speed>
  <fix>3d</fix>
</trkpt>
<trkpt lat="40.0709224" lon="-105.2295987">
  <ele>1583.0</ele>
  <time>2026-08-28T17:49:53Z</time>
  <course>264.77</course>
  <speed>5.02</speed>
  <fix>3d</fix>
</trkpt>
<trkpt lat="40.0709219" lon="-105.2296178">
  <ele>1583.0</ele>
  <time>2026-08-28T17:49:53Z</time>
  <course>270.04</course>
  <speed>4.990040079999358</speed>
  <fix>3d</fix>
</trkpt>
<trkpt lat="40.0709219" lon="-105.2296105">
  <ele>1583.0</ele>
  <time>2026-08-28T17:49:53Z</time>
  <course>267.63</course>
  <speed>5.02</speed>
  <fix>3d</fix>
</trkpt>
<trkpt lat="40.0709219" lon="-105.2296237">
  <ele>1583.0</ele>
  <time>2026-08-28T17:49:53Z</time>
  <course>271.47</course>
  <speed>4.991001903425804</speed>
  <fix>3d</fix>
</trkpt>
<trkpt lat="40.0709219" lon="-105.2296105">
  <ele>1583.0</ele>
  <time>2026-08-28T17:49:53Z</time>
  <course>267.63</course>
  <speed>5.02</speed>
  <fix>3d</fix>
</trkpt>
<trkpt lat="40.070922" lon="-105.2296296">
  <ele>1583.01</ele>
  <time>2026-08-28T17:49:53Z</time>
  <course>272.9</course>
  <speed>4.9948473450146595</speed>
  <fix>3d</fix>
</trkpt>
<trkpt lat="40.0709217" lon="-105.2296222">
  <ele>1583.0</ele>
  <time>2026-08-28T17:49:53Z</time>
  <course>270.49</course>
  <speed>5.02</speed>
  <fix>3d</fix>
</trkpt>
<trkpt lat="40.0709223" lon="-105.2296356">
  <ele>1583.01</ele>
  <time>2026-08-28T17:49:53Z</time>
  <course>274.33</course>
  <speed>5.002259489470734</speed>
  <fix>3d</fix>
</trkpt>
<trkpt lat="40.0709217" lon="-105.2296222">
  <ele>1583.0</ele>
  <time>2026-08-28T17:49:53Z</time>
  <course>270.49</course>
  <speed>5.02</speed>
  <fix>3d</fix>
</trkpt>
<trkpt lat="40.0709226" lon="-105.2296415">
  <ele>1583.01</ele>
  <time>2026-08-28T17:49:53Z</time>
  <course>275.77</course>
  <speed>5.002129546503169</speed>
  <fix>3d</fix>
</trkpt>
<trkpt lat="40.0709219" lon="-105.2296341">
  <ele>1583.0</ele>
  <time>2026-08-28T17:49:53Z</time>
  <course>273.36</course>
  <speed>5.02</speed>
  <fix>3d</fix>
</trkpt>
<trkpt lat="40.070923" lon="-105.2296474">
  <ele>1583.01</ele>
  <time>2026-08-28T17:49:53Z</time>
  <course>277.2</course>
  <speed>4.996158524306449</speed>
  <fix>3d</fix>
</trkpt>
<trkpt lat="40.0709219" lon="-105.2296341">
  <ele>1583.0</ele>
  <time>2026-08-28T17:49:53Z</time>
  <course>273.36</course>
  <speed>5.02</speed>
  <fix>3d</fix>
</trkpt>
<trkpt lat="40.0709236" lon="-105.2296533">
  <ele>1583.01</ele>
  <time>2026-08-28T17:49:53Z</time>
  <course>278.63</course>
  <speed>5.002089563372491</speed>
  <fix>3d</fix>
</trkpt>
<trkpt lat="40.0709226" lon="-105.2296458">
  <ele>1583.0</ele>
  <time>2026-08-28T17:49:53Z</time>
  <course>276.22</course>
  <speed>5.02</speed>
  <fix>3d</fix>
</trkpt>
<trkpt lat="40.0709243" lon="-105.2296592">
  <ele>1583.01</ele>
  <time>2026-08-28T17:49:53Z</time>
  <course>280.06</course>
  <speed>5.001049889773146</speed>
  <fix>3d</fix>
</trkpt>
<trkpt lat="40.0709226" lon="-105.2296458">
  <ele>1583.0</ele>
  <time>2026-08-28T17:49:53Z</time>
  <course>276.22</course>
  <speed>5.02</speed>
  <fix>3d</fix>
</trkpt>
<trkpt lat="40.0709251" lon="-105.229665">
  <ele>1583.01</ele>
  <time>2026-08-28T17:49:53Z</time>
  <course>281.49</course>
  <speed>5.004897601350102</speed>
  <fix>3d</fix>
</trkpt>
<trkpt lat="40.0709238" lon="-105.2296575">
  <ele>1583.0</ele>
  <time>2026-08-28T17:49:53Z</time>
  <course>279.08</course>
  <speed>5.02</speed>
  <fix>3d</fix>
</trkpt>
<trkpt lat="40.070926" lon="-105.2296708">
  <ele>1583.01</ele>
  <time>2026-08-28T17:49:53Z</time>
  <course>282.92</course>
  <speed>5.000249993750312</speed>
  <fix>3d</fix>
</trkpt>
<trkpt lat="40.0709238" lon="-105.2296575">
  <ele>1583.0</ele>
  <time>2026-08-28T17:49:53Z</time>
  <course>279.08</course>
  <speed>5.02</speed>
  <fix>3d</fix>
</trkpt>
<trkpt lat="40.070927" lon="-105.2296766">
  <ele>1583.01</ele>
  <time>2026-08-28T17:49:53Z</time>
  <course>284.35</course>
  <speed>4.998659820391862</speed>
  <fix>3d</fix>
</trkpt>
<trkpt lat="40.0709255" lon="-105.2296691">
  <ele>1583.0</ele>
  <time>2026-08-28T17:49:53Z</time>
  <course>281.94</course>
  <speed>5.02</speed>
  <fix>3d</fix>
</trkpt>
<trkpt lat="40.0709281" lon="-105.2296823">
  <ele>1583.01</ele>
  <time>2026-08-28T17:49:53Z</time>
  <course>285.78</course>
  <speed>5.000129998310044</speed>
  <fix>3d</fix>
</trkpt>
<trkpt lat="40.0709255" lon="-105.2296691">
  <ele>1583.0</ele>
  <time>2026-08-28T17:49:53Z</time>
  <course>281.94</course>
  <speed>5.02</speed>
  <fix>3d</fix>
</trkpt>
<trkpt lat="40.0709294" lon="-105.229688">
  <ele>1583.01</ele>
  <time>2026-08-28T17:49:53Z</time>
  <course>287.2</course>
  <speed>5.004657830461539</speed>
  <fix>3d</fix>
</trkpt>
<trkpt lat="40.0709255" lon="-105.2296691">
  <ele>1583.0</ele>
  <time>2026-08-28T17:49:53Z</time>
  <course>281.94</course>
  <speed>5.02</speed>
  <fix>3d</fix>
</trkpt>
<trkpt lat="40.0709307" lon="-105.2296936">
  <ele>1583.01</ele>
  <time>2026-08-28T17:49:53Z</time>
  <course>288.64</course>
  <speed>5.002739249651135</speed>
  <fix>3d</fix>
</trkpt>
<trkpt lat="40.0709276" lon="-105.2296806">
  <ele>1583.0</ele>
  <time>2026-08-28T17:49:53Z</time>
  <course>284.81</course>
  <speed>5.01</speed>
  <fix>3d</fix>
</trkpt>
<trkpt lat="40.0709321" lon="-105.2296992">
  <ele>1583.01</ele>
  <time>2026-08-28T17:49:53Z</time>
  <course>290.07</course>
  <speed>4.991232312766057</speed>
  <fix>3d</fix>
</trkpt>
<trkpt lat="40.0709276" lon="-105.2296806">
  <ele>1583.0</ele>
  <time>2026-08-28T17:49:53Z</time>
  <course>284.81</course>
  <speed>5.01</speed>
  <fix>3d</fix>
</trkpt>
<trkpt lat="40.0709337" lon="-105.2297046">
  <ele>1583.01</ele>
  <time>2026-08-28T17:49:53Z</time>
  <course>291.5</course>
  <speed>4.995558026887487</speed>
  <fix>3d</fix>
</trkpt>
<trkpt lat="40.0709301" lon="-105.2296919">
  <ele>1583.0</ele>
  <time>2026-08-28T17:49:53Z</time>
  <course>287.67</course>
  <speed>5.01</speed>
  <fix>3d</fix>
</trkpt>
<trkpt lat="40.0709353" lon="-105.2297101">
  <ele>1583.0</ele>
  <time>2026-08-28T17:49:53Z</time>
  <course>292.93</course>
  <speed>4.99001002003002</speed>
  <fix>3d</fix>
</trkpt>
<trkpt lat="40.0709301" lon="-105.2296919">
  <ele>1583.0</ele>
  <time>2026-08-28T17:49:53Z</time>
  <course>287.67</course>
  <speed>5.01</speed>
  <fix>3d</fix>
</trkpt>
<trkpt lat="40.0709371" lon="-105.2297154">
  <ele>1583.0</ele>
  <time>2026-08-28T17:49:53Z</time>
  <course>294.37</course>
  <speed>4.98738408386601</speed>
  <fix>3d</fix>
</trkpt>
<trkpt lat="40.0709331" lon="-105.229703">
  <ele>1583.0</ele>
  <time>2026-08-28T17:49:53Z</time>
  <course>290.53</course>
  <speed>5.01</speed>
  <fix>3d</fix>
</trkpt>
<trkpt lat="40.0709389" lon="-105.2297208">
  <ele>1583.0</ele>
  <time>2026-08-28T17:49:53Z</time>
  <course>295.81</course>
  <speed>4.982930864461196</speed>
  <fix>3d</fix>
</trkpt>
<trkpt lat="40.0709365" lon="-105.2297139">
  <ele>1583.0</ele>
  <time>2026-08-28T17:49:53Z</time>
  <course>293.38</course>
  <speed>5.01</speed>
  <fix>3d</fix>
</trkpt>
<trkpt lat="40.0709409" lon="-105.229726">
  <ele>1583.0</ele>
  <time>2026-08-28T17:49:53Z</time>
  <course>297.24</course>
  <speed>4.9864817256257945</speed>
  <fix>3d</fix>
</trkpt>
<trkpt lat="40.0709365" lon="-105.2297139">
  <ele>1583.0</ele>
  <time>2026-08-28T17:49:53Z</time>
  <course>293.38</course>
  <speed>5.01</speed>
  <fix>3d</fix>
</trkpt>
<trkpt lat="40.0709429" lon="-105.2297312">
  <ele>1582.99</ele>
  <time>2026-08-28T17:49:53Z</time>
  <course>298.67</course>
  <speed>4.984144861458182</speed>
  <fix>3d</fix>
</trkpt>
<trkpt lat="40.0709402" lon="-105.2297246">
  <ele>1583.0</ele>
  <time>2026-08-28T17:49:53Z</time>
  <course>296.24</course>
  <speed>5.01</speed>
  <fix>3d</fix>
</trkpt>
<trkpt lat="40.0709451" lon="-105.2297364">
  <ele>1582.99</ele>
  <time>2026-08-28T17:49:53Z</time>
  <course>300.08</course>
  <speed>4.984957371934088</speed>
  <fix>3d</fix>
</trkpt>
<trkpt lat="40.0709402" lon="-105.2297246">
  <ele>1583.0</ele>
  <time>2026-08-28T17:49:53Z</time>
  <course>296.24</course>
  <speed>5.01</speed>
  <fix>3d</fix>
</trkpt>
<trkpt lat="40.0709474" lon="-105.2297415">
  <ele>1582.99</ele>
  <time>2026-08-28T17:49:53Z</time>
  <course>301.51</course>
  <speed>4.988917718303239</speed>
  <fix>3d</fix>
</trkpt>
<trkpt lat="40.0709444" lon="-105.229735">
  <ele>1583.0</ele>
  <time>2026-08-28T17:49:53Z</time>
  <course>299.1</course>
  <speed>5.01</speed>
  <fix>3d</fix>
</trkpt>
<trkpt lat="40.0709497" lon="-105.2297465">
  <ele>1582.99</ele>
  <time>2026-08-28T17:49:53Z</time>
  <course>302.94</course>
  <speed>4.9906412413636785</speed>
  <fix>3d</fix>
</trkpt>
<trkpt lat="40.0709444" lon="-105.229735">
  <ele>1583.0</ele>
  <time>2026-08-28T17:49:53Z</time>
  <course>299.1</course>
  <speed>5.01</speed>
  <fix>3d</fix>
</trkpt>
<trkpt lat="40.0709522" lon="-105.2297514">
  <ele>1582.99</ele>
  <time>2026-08-28T17:49:53Z</time>
  <course>304.37</course>
  <speed>4.992364169409118</speed>
  <fix>3d</fix>
</trkpt>
<trkpt lat="40.070949" lon="-105.2297452">
  <ele>1583.0</ele>
  <time>2026-08-28T17:49:53Z</time>
  <course>301.96</course>
  <speed>5.02</speed>
  <fix>3d</fix>
</trkpt>
<trkpt lat="40.0709548" lon="-105.2297564">
  <ele>1582.99</ele>
  <time>2026-08-28T17:49:53Z</time>
  <course>305.79</course>
  <speed>4.991693099540475</speed>
  <fix>3d</fix>
</trkpt>
<trkpt lat="40.070949" lon="-105.2297452">
  <ele>1583.0</ele>
  <time>2026-08-28T17:49:53Z</time>
  <course>301.96</course>
  <speed>5.02</speed>
  <fix>3d</fix>
</trkpt>
<trkpt lat="40.0709575" lon="-105.2297612">
  <ele>1582.99</ele>
  <time>2026-08-28T17:49:53Z</time>
  <course>307.19</course>
  <speed>4.9940064076851165</speed>
  <fix>3d</fix>
</trkpt>
<trkpt lat="40.070954" lon="-105.229755">
  <ele>1583.0</ele>
  <time>2026-08-28T17:49:53Z</time>
  <course>304.79</course>
  <speed>5.02</speed>
  <fix>3d</fix>
</trkpt>
<trkpt lat="40.0709602" lon="-105.2297659">
  <ele>1582.99</ele>
  <time>2026-08-28T17:49:53Z</time>
  <course>308.59</course>
  <speed>4.999299950993139</speed>
  <fix>3d</fix>
</trkpt>
<trkpt lat="40.070954" lon="-105.229755">
  <ele>1583.0</ele>
  <time>2026-08-28T17:49:53Z</time>
  <course>304.79</course>
  <speed>5.02</speed>
  <fix>3d</fix>
</trkpt>
<trkpt lat="40.0709631" lon="-105.2297705">
  <ele>1582.99</ele>
  <time>2026-08-28T17:49:53Z</time>
  <course>310.01</course>
  <speed>4.993485756463114</speed>
  <fix>3d</fix>
</trkpt>
<trkpt lat="40.0709593" lon="-105.2297645">
  <ele>1583.0</ele>
  <time>2026-08-28T17:49:53Z</time>
  <course>307.61</course>
  <speed>5.01</speed>
  <fix>3d</fix>
</trkpt>
<trkpt lat="40.070966" lon="-105.229775">
  <ele>1582.99</ele>
  <time>2026-08-28T17:49:53Z</time>
  <course>311.42</course>
  <speed>4.997129175836863</speed>
  <fix>3d</fix>
</trkpt>
<trkpt lat="40.0709593" lon="-105.2297645">
  <ele>1583.0</ele>
  <time>2026-08-28T17:49:53Z</time>
  <course>307.61</course>
  <speed>5.01</speed>
  <fix>3d</fix>
</trkpt>
<trkpt lat="40.070969" lon="-105.2297794">
  <ele>1582.99</ele>
  <time>2026-08-28T17:49:53Z</time>
  <course>312.81</course>
  <speed>4.997299270606074</speed>
  <fix>3d</fix>
</trkpt>
<trkpt lat="40.070965" lon="-105.2297737">
  <ele>1583.0</ele>
  <time>2026-08-28T17:49:53Z</time>
  <course>310.42</course>
  <speed>5.01</speed>
  <fix>3d</fix>
</trkpt>
<trkpt lat="40.0709721" lon="-105.2297837">
  <ele>1582.99</ele>
  <time>2026-08-28T17:49:53Z</time>
  <course>314.24</course>
  <speed>4.993155315028765</speed>
  <fix>3d</fix>
</trkpt>
<trkpt lat="40.070965" lon="-105.2297737">
  <ele>1583.0</ele>
  <time>2026-08-28T17:49:53Z</time>
  <course>310.42</course>
  <speed>5.01</speed>
  <fix>3d</fix>
</trkpt>
<trkpt lat="40.0709752" lon="-105.229788">
  <ele>1582.99</ele>
  <time>2026-08-28T17:49:53Z</time>
  <course>315.64</course>
  <speed>4.999289949582841</speed>
  <fix>3d</fix>
</trkpt>
<trkpt lat="40.070965" lon="-105.2297737">
  <ele>1583.0</ele>
  <time>2026-08-28T17:49:53Z</time>
  <course>310.42</course>
  <speed>5.01</speed>
  <fix>3d</fix>
</trkpt>
<trkpt lat="40.0709784" lon="-105.2297921">
  <ele>1582.99</ele>
  <time>2026-08-28T17:49:53Z</time>
  <course>317.04</course>
  <speed>4.9941766088115065</speed>
  <fix>3d</fix>
</trkpt>
<trkpt lat="40.070971" lon="-105.2297825">
  <ele>1583.0</ele>
  <time>2026-08-28T17:49:53Z</time>
  <course>313.24</course>
  <speed>5.01</speed>
  <fix>3d</fix>
</trkpt>
<trkpt lat="40.0709817" lon="-105.229796">
  <ele>1582.99</ele>
  <time>2026-08-28T17:49:53Z</time>
  <course>318.47</course>
  <speed>4.9852783272351004</speed>
  <fix>3d</fix>
</trkpt>
<trkpt lat="40.070971" lon="-105.2297825">
  <ele>1583.0</ele>
  <time>2026-08-28T17:49:53Z</time>
  <course>313.24</course>
  <speed>5.01</speed>
  <fix>3d</fix>
</trkpt>
<trkpt lat="40.0709851" lon="-105.2297999">
  <ele>1583.0</ele>
  <time>2026-08-28T17:49:53Z</time>
  <course>319.87</course>
  <speed>4.986150820021392</speed>
  <fix>3d</fix>
</trkpt>
<trkpt lat="40.0709773" lon="-105.2297908">
  <ele>1583.0</ele>
  <time>2026-08-28T17:49:53Z</time>
  <course>316.07</course>
  <speed>5.01</speed>
  <fix>3d</fix>
</trkpt>
<trkpt lat="40.0709885" lon="-105.2298036">
  <ele>1583.0</ele>
  <time>2026-08-28T17:49:53Z</time>
  <course>321.31</course>
  <speed>4.98992985922648</speed>
  <fix>3d</fix>
</trkpt>
<trkpt lat="40.0709773" lon="-105.2297908">
  <ele>1583.0</ele>
  <time>2026-08-28T17:49:53Z</time>
  <course>316.07</course>
  <speed>5.01</speed>
  <fix>3d</fix>
</trkpt>
<trkpt lat="40.0709919" lon="-105.2298072">
  <ele>1583.0</ele>
  <time>2026-08-28T17:49:53Z</time>
  <course>322.71</course>
  <speed>4.982579653151568</speed>
  <fix>3d</fix>
</trkpt>
<trkpt lat="40.0709839" lon="-105.2297988">
  <ele>1583.0</ele>
  <time>2026-08-28T17:49:53Z</time>
  <course>318.9</course>
  <speed>5.01</speed>
  <fix>3d</fix>
</trkpt>
<trkpt lat="40.0709955" lon="-105.2298108">
  <ele>1583.01</ele>
  <time>2026-08-28T17:49:53Z</time>
  <course>324.14</course>
  <speed>4.98627115187291</speed>
  <fix>3d</fix>
</trkpt>
<trkpt lat="40.0709839" lon="-105.2297988">
  <ele>1583.0</ele>
  <time>2026-08-28T17:49:53Z</time>
  <course>318.9</course>
  <speed>5.01</speed>
  <fix>3d</fix>
</trkpt>
<trkpt lat="40.0709991" lon="-105.2298142">
  <ele>1583.01</ele>
  <time>2026-08-28T17:49:53Z</time>
  <course>325.56</course>
  <speed>4.985037612696618</speed>
  <fix>3d</fix>
</trkpt>
<trkpt lat="40.0709909" lon="-105.2298063">
  <ele>1583.0</ele>
  <time>2026-08-28T17:49:53Z</time>
  <course>321.73</course>
  <speed>5.01</speed>
  <fix>3d</fix>
</trkpt>
<trkpt lat="40.0710028" lon="-105.2298175">
  <ele>1583.01</ele>
  <time>2026-08-28T17:49:53Z</time>
  <course>326.99</course>
  <speed>4.986792556343205</speed>
  <fix>3d</fix>
</trkpt>
<trkpt lat="40.0709981" lon="-105.2298134">
  <ele>1583.0</ele>
  <time>2026-08-28T17:49:53Z</time>
  <course>324.56</course>
  <speed>5.01</speed>
  <fix>3d</fix>
</trkpt>
<trkpt lat="40.0710066" lon="-105.2298207">
  <ele>1583.01</ele>
  <time>2026-08-28T17:49:53Z</time>
  <course>328.39</course>
  <speed>4.977750495956984</speed>
  <fix>3d</fix>
</trkpt>
<trkpt lat="40.0709981" lon="-105.2298134">
  <ele>1583.0</ele>
  <time>2026-08-28T17:49:53Z</time>
  <course>324.56</course>
  <speed>5.01</speed>
  <fix>3d</fix>
</trkpt>
<trkpt lat="40.0710104" lon="-105.2298237">
  <ele>1583.01</ele>
  <time>2026-08-28T17:49:53Z</time>
  <course>329.81</course>
  <speed>4.985549117198627</speed>
  <fix>3d</fix>
</trkpt>
<trkpt lat="40.0710056" lon="-105.2298199">
  <ele>1583.0</ele>
  <time>2026-08-28T17:49:53Z</time>
  <course>327.39</course>
  <speed>5.02</speed>
  <fix>3d</fix>
</trkpt>
<trkpt lat="40.0710143" lon="-105.2298267">
  <ele>1583.01</ele>
  <time>2026-08-28T17:49:53Z</time>
  <course>331.21</course>
  <speed>4.9827101059563965</speed>
  <fix>3d</fix>
</trkpt>
<trkpt lat="40.0710056" lon="-105.2298199">
  <ele>1583.0</ele>
  <time>2026-08-28T17:49:53Z</time>
  <course>327.39</course>
  <speed>5.02</speed>
  <fix>3d</fix>
</trkpt>
<trkpt lat="40.0710183" lon="-105.2298295">
  <ele>1583.01</ele>
  <time>2026-08-28T17:49:53Z</time>
  <course>332.61</course>
  <speed>4.987684833667821</speed>
  <fix>3d</fix>
</trkpt>
<trkpt lat="40.0710133" lon="-105.229826">
  <ele>1583.0</ele>
  <time>2026-08-28T17:49:53Z</time>
  <course>330.21</course>
  <speed>5.02</speed>
  <fix>3d</fix>
</trkpt>
<trkpt lat="40.0710223" lon="-105.2298322">
  <ele>1583.01</ele>
  <time>2026-08-28T17:49:53Z</time>
  <course>334.03</course>
  <speed>4.990921758553224</speed>
  <fix>3d</fix>
</trkpt>
<trkpt lat="40.0710133" lon="-105.229826">
  <ele>1583.0</ele>
  <time>2026-08-28T17:49:53Z</time>
  <course>330.21</course>
  <speed>5.02</speed>
  <fix>3d</fix>
</trkpt>
<trkpt lat="40.0710264" lon="-105.2298348">
  <ele>1583.02</ele>
  <time>2026-08-28T17:49:53Z</time>
  <course>335.44</course>
  <speed>4.997299270606074</speed>
  <fix>3d</fix>
</trkpt>
<trkpt lat="40.0710212" lon="-105.2298317">
  <ele>1583.0</ele>
  <time>2026-08-28T17:49:53Z</time>
  <course>333.02</course>
  <speed>5.02</speed>
  <fix>3d</fix>
</trkpt>
<trkpt lat="40.0710306" lon="-105.2298373">
  <ele>1583.02</ele>
  <time>2026-08-28T17:49:53Z</time>
  <course>336.83</course>
  <speed>4.9976394427769595</speed>
  <fix>3d</fix>
</trkpt>
<trkpt lat="40.0710212" lon="-105.2298317">
  <ele>1583.0</ele>
  <time>2026-08-28T17:49:53Z</time>
  <course>333.02</course>
  <speed>5.02</speed>
  <fix>3d</fix>
</trkpt>
<trkpt lat="40.0710347" lon="-105.2298396">
  <ele>1583.02</ele>
  <time>2026-08-28T17:49:53Z</time>
  <course>338.24</course>
  <speed>4.997129175836863</speed>
  <fix>3d</fix>
</trkpt>
<trkpt lat="40.0710294" lon="-105.2298368">
  <ele>1583.0</ele>
  <time>2026-08-28T17:49:53Z</time>
  <course>335.83</course>
  <speed>5.02</speed>
  <fix>3d</fix>
</trkpt>
<trkpt lat="40.071039" lon="-105.2298418">
  <ele>1583.02</ele>
  <time>2026-08-28T17:49:53Z</time>
  <course>339.64</course>
  <speed>5.003528754788964</speed>
  <fix>3d</fix>
</trkpt>
<trkpt lat="40.0710294" lon="-105.2298368">
  <ele>1583.0</ele>
  <time>2026-08-28T17:49:53Z</time>
  <course>335.83</course>
  <speed>5.02</speed>
  <fix>3d</fix>
</trkpt>
<trkpt lat="40.0710432" lon="-105.2298438">
  <ele>1583.02</ele>
  <time>2026-08-28T17:49:53Z</time>
  <course>341.05</course>
  <speed>5.003398844785412</speed>
  <fix>3d</fix>
</trkpt>
<trkpt lat="40.0710377" lon="-105.2298413">
  <ele>1583.0</ele>
  <time>2026-08-28T17:49:53Z</time>
  <course>338.64</course>
  <speed>5.02</speed>
  <fix>3d</fix>
</trkpt>
<trkpt lat="40.0710475" lon="-105.2298457">
  <ele>1583.02</ele>
  <time>2026-08-28T17:49:53Z</time>
  <course>342.46</course>
  <speed>5.002919147857579</speed>
  <fix>3d</fix>
</trkpt>
<trkpt lat="40.0710377" lon="-105.2298413">
  <ele>1583.0</ele>
  <time>2026-08-28T17:49:53Z</time>
  <course>338.64</course>
  <speed>5.02</speed>
  <fix>3d</fix>
</trkpt>
<trkpt lat="40.0710518" lon="-105.2298475">
  <ele>1583.02</ele>
  <time>2026-08-28T17:49:53Z</time>
  <course>343.88</course>
  <speed>5.005636822623072</speed>
  <fix>3d</fix>
</trkpt>
<trkpt lat="40.0710462" lon="-105.2298453">
  <ele>1583.0</ele>
  <time>2026-08-28T17:49:53Z</time>
  <course>341.46</course>
  <speed>5.02</speed>
  <fix>3d</fix>
</trkpt>
<trkpt lat="40.0710562" lon="-105.2298491">
  <ele>1583.03</ele>
  <time>2026-08-28T17:49:53Z</time>
  <course>345.28</course>
  <speed>5.0018896429249615</speed>
  <fix>3d</fix>
</trkpt>
<trkpt lat="40.0710462" lon="-105.2298453">
  <ele>1583.0</ele>
  <time>2026-08-28T17:49:53Z</time>
  <course>341.46</course>
  <speed>5.02</speed>
  <fix>3d</fix>
</trkpt>
<trkpt lat="40.0710606" lon="-105.2298506">
  <ele>1583.03</ele>
  <time>2026-08-28T17:49:53Z</time>
  <course>346.71</course>
  <speed>5.00119985603455</speed>
  <fix>3d</fix>
</trkpt>
<trkpt lat="40.0710462" lon="-105.2298453">
  <ele>1583.0</ele>
  <time>2026-08-28T17:49:53Z</time>
  <course>341.46</course>
  <speed>5.02</speed>
  <fix>3d</fix>
</trkpt>
<trkpt lat="40.071065" lon="-105.2298519">
  <ele>1583.03</ele>
  <time>2026-08-28T17:49:53Z</time>
  <course>348.12</course>
  <speed>5.003568726419174</speed>
  <fix>3d</fix>
</trkpt>
<trkpt lat="40.0710548" lon="-105.2298487">
  <ele>1583.0</ele>
  <time>2026-08-28T17:49:53Z</time>
  <course>344.3</course>
  <speed>5.02</speed>
  <fix>3d</fix>
</trkpt>
<trkpt lat="40.0710694" lon="-105.2298531">
  <ele>1583.04</ele>
  <time>2026-08-28T17:49:53Z</time>
  <course>349.55</course>
  <speed>4.999169931098562</speed>
  <fix>3d</fix>
</trkpt>
<trkpt lat="40.0710548" lon="-105.2298487">
  <ele>1583.0</ele>
  <time>2026-08-28T17:49:53Z</time>
  <course>344.3</course>
  <speed>5.02</speed>
  <fix>3d</fix>
</trkpt>
<trkpt lat="40.0710738" lon="-105.2298542">
  <ele>1583.04</ele>
  <time>2026-08-28T17:49:53Z</time>
  <course>350.98</course>
  <speed>4.9960984778124615</speed>
  <fix>3d</fix>
</trkpt>
<trkpt lat="40.0710636" lon="-105.2298516">
  <ele>1583.0</ele>
  <time>2026-08-28T17:49:53Z</time>
  <course>347.14</course>
  <speed>5.02</speed>
  <fix>3d</fix>
</trkpt>
<trkpt lat="40.0710782" lon="-105.2298551">
  <ele>1583.04</ele>
  <time>2026-08-28T17:49:53Z</time>
  <course>352.41</course>
  <speed>4.987955492985077</speed>
  <fix>3d</fix>
</trkpt>
<trkpt lat="40.0710636" lon="-105.2298516">
  <ele>1583.0</ele>
  <time>2026-08-28T17:49:53Z</time>
  <course>347.14</course>
  <speed>5.02</speed>
  <fix>3d</fix>
</trkpt>
<trkpt lat="40.0710826" lon="-105.2298558">
  <ele>1583.04</ele>
  <time>2026-08-28T17:49:53Z</time>
  <course>353.85</course>
  <speed>4.992644589794071</speed>
  <fix>3d</fix>
</trkpt>
<trkpt lat="40.0710724" lon="-105.229854">
  <ele>1583.0</ele>
  <time>2026-08-28T17:49:53Z</time>
  <course>349.99</course>
  <speed>5.01</speed>
  <fix>3d</fix>
</trkpt>
<trkpt lat="40.0710871" lon="-105.2298564">
  <ele>1583.04</ele>
  <time>2026-08-28T17:49:53Z</time>
  <course>355.28</course>
  <speed>4.989438846203047</speed>
  <fix>3d</fix>
</trkpt>
<trkpt lat="40.0710813" lon="-105.2298558">
  <ele>1583.0</ele>
  <time>2026-08-28T17:49:53Z</time>
  <course>352.84</course>
  <speed>5.02</speed>
  <fix>3d</fix>
</trkpt>
<trkpt lat="40.0710915" lon="-105.2298569">
  <ele>1583.04</ele>
  <time>2026-08-28T17:49:53Z</time>
  <course>356.71</course>
  <speed>4.990270533748646</speed>
  <fix>3d</fix>
</trkpt>
<trkpt lat="40.0710813" lon="-105.2298558">
  <ele>1583.0</ele>
  <time>2026-08-28T17:49:53Z</time>
  <course>352.84</course>
  <speed>5.02</speed>
  <fix>3d</fix>
</trkpt>
<trkpt lat="40.071096" lon="-105.2298572">
  <ele>1583.04</ele>
  <time>2026-08-28T17:49:53Z</time>
  <course>358.12</course>
  <speed>4.9940064076851165</speed>
  <fix>3d</fix>
</trkpt>
<trkpt lat="40.0710902" lon="-105.229857">
  <ele>1583.0</ele>
  <time>2026-08-28T17:49:53Z</time>
  <course>355.68</course>
  <speed>5.02</speed>
  <fix>3d</fix>
</trkpt>
<trkpt lat="40.0711005" lon="-105.2298574">
  <ele>1583.04</ele>
  <time>2026-08-28T17:49:53Z</time>
  <course>359.53</course>
  <speed>4.990490957811666</speed>
  <fix>3d</fix>
</trkpt>
<trkpt lat="40.0710902" lon="-105.229857">
  <ele>1583.0</ele>
  <time>2026-08-28T17:49:53Z</time>
  <course>355.68</course>
  <speed>5.02</speed>
  <fix>3d</fix>
</trkpt>
<trkpt lat="40.071105" lon="-105.2298574">
  <ele>1583.04</ele>
  <time>2026-08-28T17:49:53Z</time>
  <course>0.95</course>
  <speed>4.990160318065944</speed>
  <fix>3d</fix>
</trkpt>
<trkpt lat="40.0710993" lon="-105.2298575">
  <ele>1583.0</ele>
  <time>2026-08-28T17:49:53Z</time>
  <course>358.53</course>
  <speed>5.02</speed>
  <fix>3d</fix>
</trkpt>
<trkpt lat="40.0711096" lon="-105.2298573">
  <ele>1583.04</ele>
  <time>2026-08-28T17:49:53Z</time>
  <course>2.36</course>
  <speed>4.992894951829049</speed>
  <fix>3d</fix>
</trkpt>
<trkpt lat="40.0710993" lon="-105.2298575">
  <ele>1583.0</ele>
  <time>2026-08-28T17:49:53Z</time>
  <course>358.53</course>
  <speed>5.02</speed>
  <fix>3d</fix>
</trkpt>
<trkpt lat="40.0711141" lon="-105.2298571">
  <ele>1583.03</ele>
  <time>2026-08-28T17:49:53Z</time>
  <course>3.76</course>
  <speed>4.998419750281083</speed>
  <fix>3d</fix>
</trkpt>
<trkpt lat="40.0711083" lon="-105.2298576">
  <ele>1583.0</ele>
  <time>2026-08-28T17:49:53Z</time>
  <course>1.36</course>
  <speed>5.02</speed>
  <fix>3d</fix>
</trkpt>
<trkpt lat="40.0711186" lon="-105.2298566">
  <ele>1583.03</ele>
  <time>2026-08-28T17:49:53Z</time>
  <course>5.2</course>
  <speed>4.99684900712439</speed>
  <fix>3d</fix>
</trkpt>
<trkpt lat="40.0711083" lon="-105.2298576">
  <ele>1583.0</ele>
  <time>2026-08-28T17:49:53Z</time>
  <course>1.36</course>
  <speed>5.02</speed>
  <fix>3d</fix>
</trkpt>
<trkpt lat="40.0711232" lon="-105.2298561">
  <ele>1583.02</ele>
  <time>2026-08-28T17:49:53Z</time>
  <course>6.62</course>
  <speed>4.999249943741561</speed>
  <fix>3d</fix>
</trkpt>
<trkpt lat="40.0711173" lon="-105.229857">
  <ele>1583.0</ele>
  <time>2026-08-28T17:49:53Z</time>
  <course>4.2</course>
  <speed>5.02</speed>
  <fix>3d</fix>
</trkpt>
<trkpt lat="40.0711277" lon="-105.2298554">
  <ele>1583.02</ele>
  <time>2026-08-28T17:49:53Z</time>
  <course>8.05</course>
  <speed>4.993806163639114</speed>
  <fix>3d</fix>
</trkpt>
<trkpt lat="40.0711173" lon="-105.229857">
  <ele>1583.0</ele>
  <time>2026-08-28T17:49:53Z</time>
  <course>4.2</course>
  <speed>5.02</speed>
  <fix>3d</fix>
</trkpt>
<trkpt lat="40.0711321" lon="-105.2298546">
  <ele>1583.02</ele>
  <time>2026-08-28T17:49:53Z</time>
  <course>9.46</course>
  <speed>5.00119985603455</speed>
  <fix>3d</fix>
</trkpt>
<trkpt lat="40.0711263" lon="-105.2298558">
  <ele>1583.0</ele>
  <time>2026-08-28T17:49:53Z</time>
  <course>7.04</course>
  <speed>5.02</speed>
  <fix>3d</fix>
</trkpt>
<trkpt lat="40.0711366" lon="-105.2298537">
  <ele>1583.02</ele>
  <time>2026-08-28T17:49:53Z</time>
  <course>10.89</course>
  <speed>4.99361592435782</speed>
  <fix>3d</fix>
</trkpt>
<trkpt lat="40.0711263" lon="-105.2298558">
  <ele>1583.0</ele>
  <time>2026-08-28T17:49:53Z</time>
  <course>7.04</course>
  <speed>5.02</speed>
  <fix>3d</fix>
</trkpt>
<trkpt lat="40.071141" lon="-105.2298525">
  <ele>1583.02</ele>
  <time>2026-08-28T17:49:53Z</time>
  <course>12.32</course>
  <speed>4.997299270606074</speed>
  <fix>3d</fix>
</trkpt>
<trkpt lat="40.0711352" lon="-105.2298541">
  <ele>1583.0</ele>
  <time>2026-08-28T17:49:53Z</time>
  <course>9.89</course>
  <speed>5.01</speed>
  <fix>3d</fix>
</trkpt>
<trkpt lat="40.0711455" lon="-105.2298512">
  <ele>1583.02</ele>
  <time>2026-08-28T17:49:53Z</time>
  <course>13.75</course>
  <speed>4.994206643702281</speed>
  <fix>3d</fix>
</trkpt>
<trkpt lat="40.0711352" lon="-105.2298541">
  <ele>1583.0</ele>
  <time>2026-08-28T17:49:53Z</time>
  <course>9.89</course>
  <speed>5.01</speed>
  <fix>3d</fix>
</trkpt>
<trkpt lat="40.0711498" lon="-105.2298498">
  <ele>1583.02</ele>
  <time>2026-08-28T17:49:53Z</time>
  <course>15.18</course>
  <speed>4.9941766088115065</speed>
  <fix>3d</fix>
</trkpt>
<trkpt lat="40.0711352" lon="-105.2298541">
  <ele>1583.0</ele>
  <time>2026-08-28T17:49:53Z</time>
  <course>9.89</course>
  <speed>5.01</speed>
  <fix>3d</fix>
</trkpt>
<trkpt lat="40.0711542" lon="-105.2298483">
  <ele>1583.03</ele>
  <time>2026-08-28T17:49:53Z</time>
  <course>16.61</course>
  <speed>4.997209221155344</speed>
  <fix>3d</fix>
</trkpt>
<trkpt lat="40.0711441" lon="-105.2298519">
  <ele>1583.0</ele>
  <time>2026-08-28T17:49:53Z</time>
  <course>12.76</course>
  <speed>5.01</speed>
  <fix>3d</fix>
</trkpt>
<trkpt lat="40.0711585" lon="-105.2298466">
  <ele>1583.03</ele>
  <time>2026-08-28T17:49:53Z</time>
  <course>18.04</course>
  <speed>4.993766113866368</speed>
  <fix>3d</fix>
</trkpt>
<trkpt lat="40.0711441" lon="-105.2298519">
  <ele>1583.0</ele>
  <time>2026-08-28T17:49:53Z</time>
  <course>12.76</course>
  <speed>5.01</speed>
  <fix>3d</fix>
</trkpt>
<trkpt lat="40.0711627" lon="-105.2298448">
  <ele>1583.03</ele>
  <time>2026-08-28T17:49:53Z</time>
  <course>19.47</course>
  <speed>4.993525808484422</speed>
  <fix>3d</fix>
</trkpt>
<trkpt lat="40.0711528" lon="-105.229849">
  <ele>1583.0</ele>
  <time>2026-08-28T17:49:53Z</time>
  <course>15.62</course>
  <speed>5.01</speed>
  <fix>3d</fix>
</trkpt>
<trkpt lat="40.0711669" lon="-105.2298428">
  <ele>1583.04</ele>
  <time>2026-08-28T17:49:53Z</time>
  <course>20.9</course>
  <speed>4.983623179976592</speed>
  <fix>3d</fix>
</trkpt>
<trkpt lat="40.0711528" lon="-105.229849">
  <ele>1583.0</ele>
  <time>2026-08-28T17:49:53Z</time>
  <course>15.62</course>
  <speed>5.01</speed>
  <fix>3d</fix>
</trkpt>
<trkpt lat="40.071171" lon="-105.2298408">
  <ele>1583.04</ele>
  <time>2026-08-28T17:49:53Z</time>
  <course>22.34</course>
  <speed>4.989639265518099</speed>
  <fix>3d</fix>
</trkpt>
<trkpt lat="40.0711614" lon="-105.2298455">
  <ele>1583.0</ele>
  <time>2026-08-28T17:49:53Z</time>
  <course>18.48</course>
  <speed>5.01</speed>
  <fix>3d</fix>
</trkpt>
<trkpt lat="40.0711752" lon="-105.2298385">
  <ele>1583.05</ele>
  <time>2026-08-28T17:49:53Z</time>
  <course>23.77</course>
  <speed>4.9857095783850065</speed>
  <fix>3d</fix>
</trkpt>
<trkpt lat="40.0711614" lon="-105.2298455">
  <ele>1583.0</ele>
  <time>2026-08-28T17:49:53Z</time>
  <course>18.48</course>
  <speed>5.01</speed>
  <fix>3d</fix>
</trkpt>
<trkpt lat="40.0711793" lon="-105.2298362">
  <ele>1583.05</ele>
  <time>2026-08-28T17:49:53Z</time>
  <course>25.21</course>
  <speed>4.98888765157124</speed>
  <fix>3d</fix>
</trkpt>
<trkpt lat="40.0711699" lon="-105.2298415">
  <ele>1583.0</ele>
  <time>2026-08-28T17:49:53Z</time>
  <course>21.33</course>
  <speed>5.01</speed>
  <fix>3d</fix>
</trkpt>
<trkpt lat="40.0711833" lon="-105.2298337">
  <ele>1583.05</ele>
  <time>2026-08-28T17:49:53Z</time>
  <course>26.64</course>
  <speed>4.982057807773812</speed>
  <fix>3d</fix>
</trkpt>
<trkpt lat="40.0711782" lon="-105.2298369">
  <ele>1583.0</ele>
  <time>2026-08-28T17:49:53Z</time>
  <course>24.19</course>
  <speed>5.01</speed>
  <fix>3d</fix>
</trkpt>
<trkpt lat="40.0711873" lon="-105.229831">
  <ele>1583.05</ele>
  <time>2026-08-28T17:49:53Z</time>
  <course>28.07</course>
  <speed>4.987233702163956</speed>
  <fix>3d</fix>
</trkpt>
<trkpt lat="40.0711782" lon="-105.2298369">
  <ele>1583.0</ele>
  <time>2026-08-28T17:49:53Z</time>
  <course>24.19</course>
  <speed>5.01</speed>
  <fix>3d</fix>
</trkpt>
<trkpt lat="40.0711912" lon="-105.2298283">
  <ele>1583.05</ele>
  <time>2026-08-28T17:49:53Z</time>
  <course>29.49</course>
  <speed>4.986581995716104</speed>
  <fix>3d</fix>
</trkpt>
<trkpt lat="40.0711863" lon="-105.2298318">
  <ele>1583.0</ele>
  <time>2026-08-28T17:49:53Z</time>
  <course>27.05</course>
  <speed>5.02</speed>
  <fix>3d</fix>
</trkpt>
<trkpt lat="40.0711952" lon="-105.2298254">
  <ele>1583.05</ele>
  <time>2026-08-28T17:49:53Z</time>
  <course>30.92</course>
  <speed>4.989078071147013</speed>
  <fix>3d</fix>
</trkpt>
<trkpt lat="40.0711863" lon="-105.2298318">
  <ele>1583.0</ele>
  <time>2026-08-28T17:49:53Z</time>
  <course>27.05</course>
  <speed>5.02</speed>
  <fix>3d</fix>
</trkpt>
<trkpt lat="40.071199" lon="-105.2298223">
  <ele>1583.05</ele>
  <time>2026-08-28T17:49:53Z</time>
  <course>32.35</course>
  <speed>4.986231041578399</speed>
  <fix>3d</fix>
</trkpt>
<trkpt lat="40.0711943" lon="-105.2298262">
  <ele>1583.0</ele>
  <time>2026-08-28T17:49:53Z</time>
  <course>29.91</course>
  <speed>5.02</speed>
  <fix>3d</fix>
</trkpt>
<trkpt lat="40.0712029" lon="-105.2298191">
  <ele>1583.05</ele>
  <time>2026-08-28T17:49:53Z</time>
  <course>33.77</course>
  <speed>4.989639265518099</speed>
  <fix>3d</fix>
</trkpt>
<trkpt lat="40.0711943" lon="-105.2298262">
  <ele>1583.0</ele>
  <time>2026-08-28T17:49:53Z</time>
  <course>29.91</course>
  <speed>5.02</speed>
  <fix>3d</fix>
</trkpt>
<trkpt lat="40.0712067" lon="-105.2298158">
  <ele>1583.05</ele>
  <time>2026-08-28T17:49:53Z</time>
  <course>35.21</course>
  <speed>4.993245437588663</speed>
  <fix>3d</fix>
</trkpt>
<trkpt lat="40.071202" lon="-105.2298201">
  <ele>1583.0</ele>
  <time>2026-08-28T17:49:53Z</time>
  <course>32.77</course>
  <speed>5.02</speed>
  <fix>3d</fix>
</trkpt>
<trkpt lat="40.0712104" lon="-105.2298124">
  <ele>1583.05</ele>
  <time>2026-08-28T17:49:53Z</time>
  <course>36.64</course>
  <speed>4.994336792808431</speed>
  <fix>3d</fix>
</trkpt>
<trkpt lat="40.071202" lon="-105.2298201">
  <ele>1583.0</ele>
  <time>2026-08-28T17:49:53Z</time>
  <course>32.77</course>
  <speed>5.02</speed>
  <fix>3d</fix>
</trkpt>
<trkpt lat="40.071214" lon="-105.2298088">
  <ele>1583.04</ele>
  <time>2026-08-28T17:49:53Z</time>
  <course>38.07</course>
  <speed>4.998409747109574</speed>
  <fix>3d</fix>
</trkpt>
<trkpt lat="40.0712094" lon="-105.2298135">
  <ele>1583.0</ele>
  <time>2026-08-28T17:49:53Z</time>
  <course>35.63</course>
  <speed>5.02</speed>
  <fix>3d</fix>
</trkpt>
<trkpt lat="40.0712176" lon="-105.2298051">
  <ele>1583.04</ele>
  <time>2026-08-28T17:49:53Z</time>
  <course>39.5</course>
  <speed>4.9976894661433295</speed>
  <fix>3d</fix>
</trkpt>
<trkpt lat="40.0712094" lon="-105.2298135">
  <ele>1583.0</ele>
  <time>2026-08-28T17:49:53Z</time>
  <course>35.63</course>
  <speed>5.02</speed>
  <fix>3d</fix>
</trkpt>
<trkpt lat="40.0712211" lon="-105.2298014">
  <ele>1583.04</ele>
  <time>2026-08-28T17:49:53Z</time>
  <course>40.93</course>
  <speed>5.000249993750312</speed>
  <fix>3d</fix>
</trkpt>
<trkpt lat="40.0712166" lon="-105.2298064">
  <ele>1583.0</ele>
  <time>2026-08-28T17:49:53Z</time>
  <course>38.5</course>
  <speed>5.02</speed>
  <fix>3d</fix>
</trkpt>
<trkpt lat="40.0712245" lon="-105.2297975">
  <ele>1583.04</ele>
  <time>2026-08-28T17:49:53Z</time>
  <course>42.36</course>
  <speed>5.006086295700465</speed>
  <fix>3d</fix>
</trkpt>
<trkpt lat="40.0712166" lon="-105.2298064">
  <ele>1583.0</ele>
  <time>2026-08-28T17:49:53Z</time>
  <course>38.5</course>
  <speed>5.02</speed>
  <fix>3d</fix>
</trkpt>
<trkpt lat="40.0712278" lon="-105.2297935">
  <ele>1583.04</ele>
  <time>2026-08-28T17:49:53Z</time>
  <course>43.8</course>
  <speed>5.001049889773146</speed>
  <fix>3d</fix>
</trkpt>
<trkpt lat="40.0712166" lon="-105.2298064">
  <ele>1583.0</ele>
  <time>2026-08-28T17:49:53Z</time>
  <course>38.5</course>
  <speed>5.02</speed>
  <fix>3d</fix>
</trkpt>
<trkpt lat="40.0712311" lon="-105.2297894">
  <ele>1583.04</ele>
  <time>2026-08-28T17:49:53Z</time>
  <course>45.23</course>
  <speed>5.006335985528739</speed>
  <fix>3d</fix>
</trkpt>
<trkpt lat="40.0712235" lon="-105.2297988">
  <ele>1583.0</ele>
  <time>2026-08-28T17:49:53Z</time>
  <course>41.36</course>
  <speed>5.02</speed>
  <fix>3d</fix>
</trkpt>
<trkpt lat="40.0712342" lon="-105.2297852">
  <ele>1583.04</ele>
  <time>2026-08-28T17:49:53Z</time>
  <course>46.66</course>
  <speed>4.993455717236311</speed>
  <fix>3d</fix>
</trkpt>
<trkpt lat="40.0712235" lon="-105.2297988">
  <ele>1583.0</ele>
  <time>2026-08-28T17:49:53Z</time>
  <course>41.36</course>
  <speed>5.02</speed>
  <fix>3d</fix>
</trkpt>
<trkpt lat="40.0712373" lon="-105.229781">
  <ele>1583.04</ele>
  <time>2026-08-28T17:49:53Z</time>
  <course>48.1</course>
  <speed>4.99795958367012</speed>
  <fix>3d</fix>
</trkpt>
<trkpt lat="40.0712302" lon="-105.2297907">
  <ele>1583.0</ele>
  <time>2026-08-28T17:49:53Z</time>
  <course>44.23</course>
  <speed>5.02</speed>
  <fix>3d</fix>
</trkpt>
<trkpt lat="40.0712403" lon="-105.2297766">
  <ele>1583.04</ele>
  <time>2026-08-28T17:49:53Z</time>
  <course>49.53</course>
  <speed>4.998129650179155</speed>
  <fix>3d</fix>
</trkpt>
<trkpt lat="40.0712302" lon="-105.2297907">
  <ele>1583.0</ele>
  <time>2026-08-28T17:49:53Z</time>
  <course>44.23</course>
  <speed>5.02</speed>
  <fix>3d</fix>
</trkpt>
<trkpt lat="40.0712431" lon="-105.2297722">
  <ele>1583.04</ele>
  <time>2026-08-28T17:49:53Z</time>
  <course>50.97</course>
  <speed>4.9948473450146595</speed>
  <fix>3d</fix>
</trkpt>
<trkpt lat="40.0712365" lon="-105.2297823">
  <ele>1583.0</ele>
  <time>2026-08-28T17:49:53Z</time>
  <course>47.1</course>
  <speed>5.02</speed>
  <fix>3d</fix>
</trkpt>
<trkpt lat="40.071246" lon="-105.2297676">
  <ele>1583.04</ele>
  <time>2026-08-28T17:49:53Z</time>
  <course>52.4</course>
  <speed>4.986963003672676</speed>
  <fix>3d</fix>
</trkpt>
<trkpt lat="40.0712365" lon="-105.2297823">
  <ele>1583.0</ele>
  <time>2026-08-28T17:49:53Z</time>
  <course>47.1</course>
  <speed>5.02</speed>
  <fix>3d</fix>
</trkpt>
<trkpt lat="40.0712487" lon="-105.2297629">
  <ele>1583.05</ele>
  <time>2026-08-28T17:49:53Z</time>
  <course>53.85</course>
  <speed>4.990090179545857</speed>
  <fix>3d</fix>
</trkpt>
<trkpt lat="40.0712424" lon="-105.2297734">
  <ele>1583.0</ele>
  <time>2026-08-28T17:49:53Z</time>
  <course>49.96</course>
  <speed>5.02</speed>
  <fix>3d</fix>
</trkpt>
<trkpt lat="40.0712513" lon="-105.2297582">
  <ele>1583.05</ele>
  <time>2026-08-28T17:49:53Z</time>
  <course>55.28</course>
  <speed>4.98831634923047</speed>
  <fix>3d</fix>
</trkpt>
<trkpt lat="40.0712481" lon="-105.2297643">
  <ele>1583.0</ele>
  <time>2026-08-28T17:49:53Z</time>
  <course>52.82</course>
  <speed>5.02</speed>
  <fix>3d</fix>
</trkpt>
<trkpt lat="40.0712539" lon="-105.2297534">
  <ele>1583.04</ele>
  <time>2026-08-28T17:49:53Z</time>
  <course>56.71</course>
  <speed>4.989529035891064</speed>
  <fix>3d</fix>
</trkpt>
<trkpt lat="40.0712481" lon="-105.2297643">
  <ele>1583.0</ele>
  <time>2026-08-28T17:49:53Z</time>
  <course>52.82</course>
  <speed>5.02</speed>
  <fix>3d</fix>
</trkpt>
<trkpt lat="40.0712563" lon="-105.2297485">
  <ele>1583.04</ele>
  <time>2026-08-28T17:49:53Z</time>
  <course>58.13</course>
  <speed>4.988386512691253</speed>
  <fix>3d</fix>
</trkpt>
<trkpt lat="40.0712534" lon="-105.2297547">
  <ele>1583.0</ele>
  <time>2026-08-28T17:49:53Z</time>
  <course>55.68</course>
  <speed>5.02</speed>
  <fix>3d</fix>
</trkpt>
<trkpt lat="40.0712587" lon="-105.2297434">
  <ele>1583.05</ele>
  <time>2026-08-28T17:49:53Z</time>
  <course>59.56</course>
  <speed>4.995768209194658</speed>
  <fix>3d</fix>
</trkpt>
<trkpt lat="40.0712534" lon="-105.2297547">
  <ele>1583.0</ele>
  <time>2026-08-28T17:49:53Z</time>
  <course>55.68</course>
  <speed>5.02</speed>
  <fix>3d</fix>
</trkpt>
<trkpt lat="40.071261" lon="-105.2297383">
  <ele>1583.04</ele>
  <time>2026-08-28T17:49:53Z</time>
  <course>60.99</course>
  <speed>4.992494366546646</speed>
  <fix>3d</fix>
</trkpt>
<trkpt lat="40.0712583" lon="-105.2297447">
  <ele>1583.0</ele>
  <time>2026-08-28T17:49:53Z</time>
  <course>58.55</course>
  <speed>5.03</speed>
  <fix>3d</fix>
</trkpt>
<trkpt lat="40.0712632" lon="-105.2297331">
  <ele>1583.04</ele>
  <time>2026-08-28T17:49:53Z</time>
  <course>62.42</course>
  <speed>4.992364169409118</speed>
  <fix>3d</fix>
</trkpt>
<trkpt lat="40.0712583" lon="-105.2297447">
  <ele>1583.0</ele>
  <time>2026-08-28T17:49:53Z</time>
  <course>58.55</course>
  <speed>5.03</speed>
  <fix>3d</fix>
</trkpt>
<trkpt lat="40.0712653" lon="-105.2297279">
  <ele>1583.04</ele>
  <time>2026-08-28T17:49:53Z</time>
  <course>63.85</course>
  <speed>4.995377863585497</speed>
  <fix>3d</fix>
</trkpt>
<trkpt lat="40.0712628" lon="-105.2297346">
  <ele>1583.0</ele>
  <time>2026-08-28T17:49:53Z</time>
  <course>61.41</course>
  <speed>5.03</speed>
  <fix>3d</fix>
</trkpt>
<trkpt lat="40.0712673" lon="-105.2297225">
  <ele>1583.04</ele>
  <time>2026-08-28T17:49:53Z</time>
  <course>65.29</course>
  <speed>5.001529765981604</speed>
  <fix>3d</fix>
</trkpt>
<trkpt lat="40.0712628" lon="-105.2297346">
  <ele>1583.0</ele>
  <time>2026-08-28T17:49:53Z</time>
  <course>61.41</course>
  <speed>5.03</speed>
  <fix>3d</fix>
</trkpt>
<trkpt lat="40.0712692" lon="-105.2297171">
  <ele>1583.03</ele>
  <time>2026-08-28T17:49:53Z</time>
  <course>66.72</course>
  <speed>4.9976394427769595</speed>
  <fix>3d</fix>
</trkpt>
<trkpt lat="40.0712669" lon="-105.229724">
  <ele>1583.0</ele>
  <time>2026-08-28T17:49:53Z</time>
  <course>64.28</course>
  <speed>5.02</speed>
  <fix>3d</fix>
</trkpt>
<trkpt lat="40.071271" lon="-105.2297116">
  <ele>1583.03</ele>
  <time>2026-08-28T17:49:53Z</time>
  <course>68.15</course>
  <speed>5.000899919014577</speed>
  <fix>3d</fix>
</trkpt>
<trkpt lat="40.0712669" lon="-105.229724">
  <ele>1583.0</ele>
  <time>2026-08-28T17:49:53Z</time>
  <course>64.28</course>
  <speed>5.02</speed>
  <fix>3d</fix>
</trkpt>
<trkpt lat="40.0712726" lon="-105.2297061">
  <ele>1583.03</ele>
  <time>2026-08-28T17:49:53Z</time>
  <course>69.58</course>
  <speed>5.003528754788964</speed>
  <fix>3d</fix>
</trkpt>
<trkpt lat="40.0712706" lon="-105.2297132">
  <ele>1583.0</ele>
  <time>2026-08-28T17:49:53Z</time>
  <course>67.14</course>
  <speed>5.02</speed>
  <fix>3d</fix>
</trkpt>
<trkpt lat="40.0712742" lon="-105.2297005">
  <ele>1583.03</ele>
  <time>2026-08-28T17:49:53Z</time>
  <course>71.01</course>
  <speed>5.000089999190014</speed>
  <fix>3d</fix>
</trkpt>
<trkpt lat="40.0712706" lon="-105.2297132">
  <ele>1583.0</ele>
  <time>2026-08-28T17:49:53Z</time>
  <course>67.14</course>
  <speed>5.02</speed>
  <fix>3d</fix>
</trkpt>
<trkpt lat="40.0712757" lon="-105.2296949">
  <ele>1583.03</ele>
  <time>2026-08-28T17:49:53Z</time>
  <course>72.44</course>
  <speed>4.999849997749933</speed>
  <fix>3d</fix>
</trkpt>
<trkpt lat="40.0712739" lon="-105.2297023">
  <ele>1583.0</ele>
  <time>2026-08-28T17:49:53Z</time>
  <course>70.0</course>
  <speed>5.02</speed>
  <fix>3d</fix>
</trkpt>
<trkpt lat="40.071277" lon="-105.2296893">
  <ele>1583.02</ele>
  <time>2026-08-28T17:49:53Z</time>
  <course>73.87</course>
  <speed>4.993215396916099</speed>
  <fix>3d</fix>
</trkpt>
<trkpt lat="40.0712739" lon="-105.2297023">
  <ele>1583.0</ele>
  <time>2026-08-28T17:49:53Z</time>
  <course>70.0</course>
  <speed>5.02</speed>
  <fix>3d</fix>
</trkpt>
<trkpt lat="40.0712783" lon="-105.2296836">
  <ele>1583.02</ele>
  <time>2026-08-28T17:49:53Z</time>
  <course>75.3</course>
  <speed>4.989639265518099</speed>
  <fix>3d</fix>
</trkpt>
<trkpt lat="40.0712739" lon="-105.2297023">
  <ele>1583.0</ele>
  <time>2026-08-28T17:49:53Z</time>
  <course>70.0</course>
  <speed>5.02</speed>
  <fix>3d</fix>
</trkpt>
<trkpt lat="40.0712794" lon="-105.2296779">
  <ele>1583.02</ele>
  <time>2026-08-28T17:49:53Z</time>
  <course>76.72</course>
  <speed>4.989128180353758</speed>
  <fix>3d</fix>
</trkpt>
<trkpt lat="40.0712768" lon="-105.2296911">
  <ele>1583.0</ele>
  <time>2026-08-28T17:49:53Z</time>
  <course>72.87</course>
  <speed>5.01</speed>
  <fix>3d</fix>
</trkpt>
<trkpt lat="40.0712804" lon="-105.2296722">
  <ele>1583.02</ele>
  <time>2026-08-28T17:49:53Z</time>
  <course>78.15</course>
  <speed>4.9819072652950895</speed>
  <fix>3d</fix>
</trkpt>
<trkpt lat="40.0712768" lon="-105.2296911">
  <ele>1583.0</ele>
  <time>2026-08-28T17:49:53Z</time>
  <course>72.87</course>
  <speed>5.01</speed>
  <fix>3d</fix>
</trkpt>
<trkpt lat="40.0712813" lon="-105.2296665">
  <ele>1583.01</ele>
  <time>2026-08-28T17:49:53Z</time>
  <course>79.58</course>
  <speed>4.9776500479644</speed>
  <fix>3d</fix>
</trkpt>
<trkpt lat="40.0712793" lon="-105.2296798">
  <ele>1583.0</ele>
  <time>2026-08-28T17:49:53Z</time>
  <course>75.73</course>
  <speed>5.01</speed>
  <fix>3d</fix>
</trkpt>
<trkpt lat="40.0712821" lon="-105.2296608">
  <ele>1583.01</ele>
  <time>2026-08-28T17:49:53Z</time>
  <course>81.01</course>
  <speed>4.976364134586616</speed>
  <fix>3d</fix>
</trkpt>
<trkpt lat="40.0712793" lon="-105.2296798">
  <ele>1583.0</ele>
  <time>2026-08-28T17:49:53Z</time>
  <course>75.73</course>
  <speed>5.01</speed>
  <fix>3d</fix>
</trkpt>
<trkpt lat="40.0712828" lon="-105.2296551">
  <ele>1583.01</ele>
  <time>2026-08-28T17:49:53Z</time>
  <course>82.44</course>
  <speed>4.976675597223512</speed>
  <fix>3d</fix>
</trkpt>
<trkpt lat="40.0712812" lon="-105.2296683">
  <ele>1583.0</ele>
  <time>2026-08-28T17:49:53Z</time>
  <course>78.58</course>
  <speed>5.0</speed>
  <fix>3d</fix>
</trkpt>
<trkpt lat="40.0712834" lon="-105.2296493">
  <ele>1583.01</ele>
  <time>2026-08-28T17:49:53Z</time>
  <course>83.9</course>
  <speed>4.971639568593041</speed>
  <fix>3d</fix>
</trkpt>
<trkpt lat="40.0712828" lon="-105.2296567">
  <ele>1583.0</ele>
  <time>2026-08-28T17:49:53Z</time>
  <course>81.44</course>
  <speed>5.0</speed>
  <fix>3d</fix>
</trkpt>
<trkpt lat="40.0712838" lon="-105.2296434">
  <ele>1583.01</ele>
  <time>2026-08-28T17:49:53Z</time>
  <course>85.33</course>
  <speed>4.968641665485649</speed>
  <fix>3d</fix>
</trkpt>
<trkpt lat="40.0712828" lon="-105.2296567">
  <ele>1583.0</ele>
  <time>2026-08-28T17:49:53Z</time>
  <course>81.44</course>
  <speed>5.0</speed>
  <fix>3d</fix>
</trkpt>
<trkpt lat="40.0712842" lon="-105.2296376">
  <ele>1583.01</ele>
  <time>2026-08-28T17:49:53Z</time>
  <course>86.77</course>
  <speed>4.969678057983233</speed>
  <fix>3d</fix>
</trkpt>
<trkpt lat="40.0712839" lon="-105.2296451">
  <ele>1583.0</ele>
  <time>2026-08-28T17:49:53Z</time>
  <course>84.31</course>
  <speed>5.0</speed>
  <fix>3d</fix>
</trkpt>
<trkpt lat="40.0712844" lon="-105.2296318">
  <ele>1583.01</ele>
  <time>2026-08-28T17:49:53Z</time>
  <course>88.21</course>
  <speed>4.973258489159798</speed>
  <fix>3d</fix>
</trkpt>
<trkpt lat="40.0712839" lon="-105.2296451">
  <ele>1583.0</ele>
  <time>2026-08-28T17:49:53Z</time>
  <course>84.31</course>
  <speed>5.0</speed>
  <fix>3d</fix>
</trkpt>
<trkpt lat="40.0712846" lon="-105.2296259">
  <ele>1583.01</ele>
  <time>2026-08-28T17:49:53Z</time>
  <course>89.66</course>
  <speed>4.980361432667312</speed>
  <fix>3d</fix>
</trkpt>
<trkpt lat="40.0712846" lon="-105.2296334">
  <ele>1583.0</ele>
  <time>2026-08-28T17:49:53Z</time>
  <course>87.2</course>
  <speed>5.0</speed>
  <fix>3d</fix>
</trkpt>
<trkpt lat="40.0712846" lon="-105.22962">
  <ele>1583.0</ele>
  <time>2026-08-28T17:49:53Z</time>
  <course>91.08</course>
  <speed>4.980361432667312</speed>
  <fix>3d</fix>
</trkpt>
<trkpt lat="40.0712846" lon="-105.2296334">
  <ele>1583.0</ele>
  <time>2026-08-28T17:49:53Z</time>
  <course>87.2</course>
  <speed>5.0</speed>
  <fix>3d</fix>
</trkpt>
<trkpt lat="40.0712845" lon="-105.2296141">
  <ele>1583.0</ele>
  <time>2026-08-28T17:49:53Z</time>
  <course>92.53</course>
  <speed>4.983623179976592</speed>
  <fix>3d</fix>
</trkpt>
<trkpt lat="40.0712848" lon="-105.2296216">
  <ele>1583.0</ele>
  <time>2026-08-28T17:49:53Z</time>
  <course>90.09</course>
  <speed>5.0</speed>
  <fix>3d</fix>
</trkpt>
<trkpt lat="40.0712843" lon="-105.2296081">
  <ele>1583.0</ele>
  <time>2026-08-28T17:49:53Z</time>
  <course>94.0</course>
  <speed>4.979658622837514</speed>
  <fix>3d</fix>
</trkpt>
<trkpt lat="40.0712848" lon="-105.2296216">
  <ele>1583.0</ele>
  <time>2026-08-28T17:49:53Z</time>
  <course>90.09</course>
  <speed>5.0</speed>
  <fix>3d</fix>
</trkpt>
<trkpt lat="40.071284" lon="-105.2296023">
  <ele>1583.0</ele>
  <time>2026-08-28T17:49:53Z</time>
  <course>95.43</course>
  <speed>4.979477884276624</speed>
  <fix>3d</fix>
</trkpt>
<trkpt lat="40.0712846" lon="-105.2296098">
  <ele>1583.0</ele>
  <time>2026-08-28T17:49:53Z</time>
  <course>92.97</course>
  <speed>5.0</speed>
  <fix>3d</fix>
</trkpt>
<trkpt lat="40.0712836" lon="-105.2295964">
  <ele>1583.0</ele>
  <time>2026-08-28T17:49:53Z</time>
  <course>96.87</course>
  <speed>4.981576055828115</speed>
  <fix>3d</fix>
</trkpt>
<trkpt lat="40.0712846" lon="-105.2296098">
  <ele>1583.0</ele>
  <time>2026-08-28T17:49:53Z</time>
  <course>92.97</course>
  <speed>5.0</speed>
  <fix>3d</fix>
</trkpt>
<trkpt lat="40.071283" lon="-105.2295905">
  <ele>1583.0</ele>
  <time>2026-08-28T17:49:53Z</time>
  <course>98.32</course>
  <speed>4.987955492985077</speed>
  <fix>3d</fix>
</trkpt>
<trkpt lat="40.071284" lon="-105.2295981">
  <ele>1583.0</ele>
  <time>2026-08-28T17:49:53Z</time>
  <course>95.86</course>
  <speed>5.0</speed>
  <fix>3d</fix>
</trkpt>
<trkpt lat="40.0712824" lon="-105.2295847">
  <ele>1583.01</ele>
  <time>2026-08-28T17:49:53Z</time>
  <course>99.77</course>
  <speed>4.986231041578399</speed>
  <fix>3d</fix>
</trkpt>
<trkpt lat="40.071284" lon="-105.2295981">
  <ele>1583.0</ele>
  <time>2026-08-28T17:49:53Z</time>
  <course>95.86</course>
  <speed>5.0</speed>
  <fix>3d</fix>
</trkpt>
<trkpt lat="40.0712816" lon="-105.2295789">
  <ele>1583.01</ele>
  <time>2026-08-28T17:49:53Z</time>
  <course>101.23</course>
  <speed>4.989348654884723</speed>
  <fix>3d</fix>
</trkpt>
<trkpt lat="40.0712828" lon="-105.2295865">
  <ele>1583.0</ele>
  <time>2026-08-28T17:49:53Z</time>
  <course>98.76</course>
  <speed>5.0</speed>
  <fix>3d</fix>
</trkpt>
<trkpt lat="40.0712807" lon="-105.2295731">
  <ele>1583.01</ele>
  <time>2026-08-28T17:49:53Z</time>
  <course>102.66</course>
  <speed>4.984024478270547</speed>
  <fix>3d</fix>
</trkpt>
<trkpt lat="40.0712828" lon="-105.2295865">
  <ele>1583.0</ele>
  <time>2026-08-28T17:49:53Z</time>
  <course>98.76</course>
  <speed>5.0</speed>
  <fix>3d</fix>
</trkpt>
<trkpt lat="40.0712797" lon="-105.2295673">
  <ele>1583.0</ele>
  <time>2026-08-28T17:49:53Z</time>
  <course>104.13</course>
  <speed>4.9817667548772295</speed>
  <fix>3d</fix>
</trkpt>
<trkpt lat="40.0712828" lon="-105.2295865">
  <ele>1583.0</ele>
  <time>2026-08-28T17:49:53Z</time>
  <course>98.76</course>
  <speed>5.0</speed>
  <fix>3d</fix>
</trkpt>
<trkpt lat="40.0712786" lon="-105.2295617">
  <ele>1583.0</ele>
  <time>2026-08-28T17:49:53Z</time>
  <course>105.57</course>
  <speed>4.982579653151568</speed>
  <fix>3d</fix>
</trkpt>
<trkpt lat="40.0712812" lon="-105.2295749">
  <ele>1583.0</ele>
  <time>2026-08-28T17:49:53Z</time>
  <course>101.67</course>
  <speed>5.0</speed>
  <fix>3d</fix>
</trkpt>
<trkpt lat="40.0712774" lon="-105.2295561">
  <ele>1583.0</ele>
  <time>2026-08-28T17:49:53Z</time>
  <course>107.02</course>
  <speed>4.979738948981161</speed>
  <fix>3d</fix>
</trkpt>
<trkpt lat="40.0712812" lon="-105.2295749">
  <ele>1583.0</ele>
  <time>2026-08-28T17:49:53Z</time>
  <course>101.67</course>
  <speed>5.0</speed>
  <fix>3d</fix>
</trkpt>
<trkpt lat="40.0712761" lon="-105.2295505">
  <ele>1583.0</ele>
  <time>2026-08-28T17:49:53Z</time>
  <course>108.49</course>
  <speed>4.977489326959929</speed>
  <fix>3d</fix>
</trkpt>
<trkpt lat="40.0712792" lon="-105.2295635">
  <ele>1583.0</ele>
  <time>2026-08-28T17:49:53Z</time>
  <course>104.57</course>
  <speed>5.0</speed>
  <fix>3d</fix>
</trkpt>
<trkpt lat="40.0712747" lon="-105.229545">
  <ele>1583.0</ele>
  <time>2026-08-28T17:49:53Z</time>
  <course>109.95</course>
  <speed>4.975108039027896</speed>
  <fix>3d</fix>
</trkpt>
<trkpt lat="40.0712792" lon="-105.2295635">
  <ele>1583.0</ele>
  <time>2026-08-28T17:49:53Z</time>
  <course>104.57</course>
  <speed>5.0</speed>
  <fix>3d</fix>
</trkpt>
<trkpt lat="40.0712732" lon="-105.2295395">
  <ele>1583.0</ele>
  <time>2026-08-28T17:49:53Z</time>
  <course>111.26</course>
  <speed>4.975479876353637</speed>
  <fix>3d</fix>
</trkpt>
<trkpt lat="40.0712767" lon="-105.2295522">
  <ele>1583.0</ele>
  <time>2026-08-28T17:49:53Z</time>
  <course>107.48</course>
  <speed>5.0</speed>
  <fix>3d</fix>
</trkpt>
<trkpt lat="40.0712716" lon="-105.2295341">
  <ele>1582.99</ele>
  <time>2026-08-28T17:49:53Z</time>
  <course>111.54</course>
  <speed>4.960372969848135</speed>
  <fix>3d</fix>
</trkpt>
<trkpt lat="40.0712767" lon="-105.2295522">
  <ele>1583.0</ele>
  <time>2026-08-28T17:49:53Z</time>
  <course>107.48</course>
  <speed>5.0</speed>
  <fix>3d</fix>
</trkpt>
<trkpt lat="40.0712701" lon="-105.2295287">
  <ele>1582.99</ele>
  <time>2026-08-28T17:49:53Z</time>
  <course>111.58</course>
  <speed>4.9287828112019705</speed>
  <fix>3d</fix>
</trkpt>
<trkpt lat="40.0712738" lon="-105.229541">
  <ele>1583.0</ele>
  <time>2026-08-28T17:49:53Z</time>
  <course>109.72</course>
  <speed>4.99</speed>
  <fix>3d</fix>
</trkpt>
<trkpt lat="40.0712685" lon="-105.2295233">
  <ele>1582.99</ele>
  <time>2026-08-28T17:49:53Z</time>
  <course>111.69</course>
  <speed>4.8821511652139575</speed>
  <fix>3d</fix>
</trkpt>
<trkpt lat="40.0712707" lon="-105.2295301">
  <ele>1583.0</ele>
  <time>2026-08-28T17:49:53Z</time>
  <course>110.57</course>
  <speed>4.95</speed>
  <fix>3d</fix>
</trkpt>
<trkpt lat="40.0712669" lon="-105.229518">
  <ele>1583.0</ele>
  <time>2026-08-28T17:49:53Z</time>
  <course>111.76</course>
  <speed>4.828301978956992</speed>
  <fix>3d</fix>
</trkpt>
<trkpt lat="40.0712707" lon="-105.2295301">
  <ele>1583.0</ele>
  <time>2026-08-28T17:49:53Z</time>
  <course>110.57</course>
  <speed>4.95</speed>
  <fix>3d</fix>
</trkpt>
<trkpt lat="40.0712654" lon="-105.2295128">
  <ele>1583.0</ele>
  <time>2026-08-28T17:49:53Z</time>
  <course>111.83</course>
  <speed>4.755817490190304</speed>
  <fix>3d</fix>
</trkpt>
<trkpt lat="40.0712676" lon="-105.2295193">
  <ele>1583.0</ele>
  <time>2026-08-28T17:49:53Z</time>
  <course>110.71</course>
  <speed>4.85</speed>
  <fix>3d</fix>
</trkpt>
<trkpt lat="40.0712639" lon="-105.2295075">
  <ele>1583.0</ele>
  <time>2026-08-28T17:49:53Z</time>
  <course>111.89</course>
  <speed>4.679700845139569</speed>
  <fix>3d</fix>
</trkpt>
<trkpt lat="40.0712676" lon="-105.2295193">
  <ele>1583.0</ele>
  <time>2026-08-28T17:49:53Z</time>
  <course>110.71</course>
  <speed>4.85</speed>
  <fix>3d</fix>
</trkpt>
<trkpt lat="40.0712624" lon="-105.2295024">
  <ele>1583.0</ele>
  <time>2026-08-28T17:49:53Z</time>
  <course>111.96</course>
  <speed>4.584953652982765</speed>
  <fix>3d</fix>
</trkpt>
<trkpt lat="40.0712645" lon="-105.2295088">
  <ele>1583.0</ele>
  <time>2026-08-28T17:49:53Z</time>
  <course>110.84</course>
  <speed>4.7</speed>
  <fix>3d</fix>
</trkpt>
<trkpt lat="40.0712609" lon="-105.2294974">
  <ele>1583.0</ele>
  <time>2026-08-28T17:49:53Z</time>
  <course>112.02</course>
  <speed>4.486568844896955</speed>
  <fix>3d</fix>
</trkpt>
<trkpt lat="40.0712645" lon="-105.2295088">
  <ele>1583.0</ele>
  <time>2026-08-28T17:49:53Z</time>
  <course>110.84</course>
  <speed>4.7</speed>
  <fix>3d</fix>
</trkpt>
<trkpt lat="40.0712595" lon="-105.2294925">
  <ele>1583.0</ele>
  <time>2026-08-28T17:49:53Z</time>
  <course>112.11</course>
  <speed>4.382510695936748</speed>
  <fix>3d</fix>
</trkpt>
<trkpt lat="40.0712616" lon="-105.2294987">
  <ele>1583.0</ele>
  <time>2026-08-28T17:49:53Z</time>
  <course>110.98</course>
  <speed>4.51</speed>
  <fix>3d</fix>
</trkpt>
<trkpt lat="40.0712581" lon="-105.2294877">
  <ele>1583.01</ele>
  <time>2026-08-28T17:49:53Z</time>
  <course>112.18</course>
  <speed>4.265501142890481</speed>
  <fix>3d</fix>
</trkpt>
<trkpt lat="40.0712616" lon="-105.2294987">
  <ele>1583.0</ele>
  <time>2026-08-28T17:49:53Z</time>
  <course>110.98</course>
  <speed>4.51</speed>
  <fix>3d</fix>
</trkpt>
<trkpt lat="40.0712567" lon="-105.2294831">
  <ele>1583.01</ele>
  <time>2026-08-28T17:49:53Z</time>
  <course>112.3</course>
  <speed>4.148493702538308</speed>
  <fix>3d</fix>
</trkpt>
<trkpt lat="40.0712587" lon="-105.2294891">
  <ele>1583.0</ele>
  <time>2026-08-28T17:49:53Z</time>
  <course>111.14</course>
  <speed>4.28</speed>
  <fix>3d</fix>
</trkpt>
<trkpt lat="40.0712554" lon="-105.2294786">
  <ele>1583.01</ele>
  <time>2026-08-28T17:49:53Z</time>
  <course>112.41</course>
  <speed>4.022188459035703</speed>
  <fix>3d</fix>
</trkpt>
<trkpt lat="40.0712587" lon="-105.2294891">
  <ele>1583.0</ele>
  <time>2026-08-28T17:49:53Z</time>
  <course>111.14</course>
  <speed>4.28</speed>
  <fix>3d</fix>
</trkpt>
<trkpt lat="40.0712541" lon="-105.2294742">
  <ele>1583.01</ele>
  <time>2026-08-28T17:49:53Z</time>
  <course>112.52</course>
  <speed>3.892210169042777</speed>
  <fix>3d</fix>
</trkpt>
<trkpt lat="40.0712561" lon="-105.22948">
  <ele>1583.0</ele>
  <time>2026-08-28T17:49:53Z</time>
  <course>111.34</course>
  <speed>4.04</speed>
  <fix>3d</fix>
</trkpt>
<trkpt lat="40.0712529" lon="-105.22947">
  <ele>1583.01</ele>
  <time>2026-08-28T17:49:53Z</time>
  <course>112.63</course>
  <speed>3.7566208219622057</speed>
  <fix>3d</fix>
</trkpt>
<trkpt lat="40.0712561" lon="-105.22948">
  <ele>1583.0</ele>
  <time>2026-08-28T17:49:53Z</time>
  <course>111.34</course>
  <speed>4.04</speed>
  <fix>3d</fix>
</trkpt>
<trkpt lat="40.0712516" lon="-105.229466">
  <ele>1583.01</ele>
  <time>2026-08-28T17:49:53Z</time>
  <course>112.73</course>
  <speed>3.6266375611577177</speed>
  <fix>3d</fix>
</trkpt>
<trkpt lat="40.0712535" lon="-105.2294714">
  <ele>1583.0</ele>
  <time>2026-08-28T17:49:53Z</time>
  <course>111.55</course>
  <speed>3.78</speed>
  <fix>3d</fix>
</trkpt>
<trkpt lat="40.0712505" lon="-105.2294621">
  <ele>1583.01</ele>
  <time>2026-08-28T17:49:53Z</time>
  <course>112.83</course>
  <speed>3.5003571246374277</speed>
  <fix>3d</fix>
</trkpt>
<trkpt lat="40.0712535" lon="-105.2294714">
  <ele>1583.0</ele>
  <time>2026-08-28T17:49:53Z</time>
  <course>111.55</course>
  <speed>3.78</speed>
  <fix>3d</fix>
</trkpt>
<trkpt lat="40.0712493" lon="-105.2294583">
  <ele>1583.01</ele>
  <time>2026-08-28T17:49:53Z</time>
  <course>112.92</course>
  <speed>3.361086133975147</speed>
  <fix>3d</fix>
</trkpt>
<trkpt lat="40.0712535" lon="-105.2294714">
  <ele>1583.0</ele>
  <time>2026-08-28T17:49:53Z</time>
  <course>111.55</course>
  <speed>3.78</speed>
  <fix>3d</fix>
</trkpt>
<trkpt lat="40.0712483" lon="-105.2294547">
  <ele>1583.01</ele>
  <time>2026-08-28T17:49:53Z</time>
  <course>113.02</course>
  <speed>3.2310988842807022</speed>
  <fix>3d</fix>
</trkpt>
<trkpt lat="40.0712511" lon="-105.2294634">
  <ele>1583.0</ele>
  <time>2026-08-28T17:49:53Z</time>
  <course>111.75</course>
  <speed>3.52</speed>
  <fix>3d</fix>
</trkpt>
<trkpt lat="40.0712472" lon="-105.2294513">
  <ele>1583.0</ele>
  <time>2026-08-28T17:49:53Z</time>
  <course>113.16</course>
  <speed>3.104834939252005</speed>
  <fix>3d</fix>
</trkpt>
<trkpt lat="40.0712511" lon="-105.2294634">
  <ele>1583.0</ele>
  <time>2026-08-28T17:49:53Z</time>
  <course>111.75</course>
  <speed>3.52</speed>
  <fix>3d</fix>
</trkpt>
<trkpt lat="40.0712462" lon="-105.229448">
  <ele>1583.01</ele>
  <time>2026-08-28T17:49:53Z</time>
  <course>113.28</course>
  <speed>2.965569085352759</speed>
  <fix>3d</fix>
</trkpt>
<trkpt lat="40.0712488" lon="-105.229456">
  <ele>1583.0</ele>
  <time>2026-08-28T17:49:53Z</time>
  <course>111.96</course>
  <speed>3.26</speed>
  <fix>3d</fix>
</trkpt>
<trkpt lat="40.0712453" lon="-105.2294449">
  <ele>1583.01</ele>
  <time>2026-08-28T17:49:53Z</time>
  <course>113.4</course>
  <speed>2.8485961454723623</speed>
  <fix>3d</fix>
</trkpt>
<trkpt lat="40.0712488" lon="-105.229456">
  <ele>1583.0</ele>
  <time>2026-08-28T17:49:53Z</time>
  <course>111.96</course>
  <speed>3.26</speed>
  <fix>3d</fix>
</trkpt>
<trkpt lat="40.0712444" lon="-105.2294419">
  <ele>1583.01</ele>
  <time>2026-08-28T17:49:53Z</time>
  <course>113.53</course>
  <speed>2.72237029075767</speed>
  <fix>3d</fix>
</trkpt>
<trkpt lat="40.0712467" lon="-105.2294492">
  <ele>1583.0</ele>
  <time>2026-08-28T17:49:53Z</time>
  <course>112.2</course>
  <speed>3.0</speed>
  <fix>3d</fix>
</trkpt>
<trkpt lat="40.0712435" lon="-105.229439">
  <ele>1583.01</ele>
  <time>2026-08-28T17:49:53Z</time>
  <course>113.68</course>
  <speed>2.5923734298900687</speed>
  <fix>3d</fix>
</trkpt>
<trkpt lat="40.0712447" lon="-105.229443">
  <ele>1583.0</ele>
  <time>2026-08-28T17:49:53Z</time>
  <course>112.46</course>
  <speed>2.76</speed>
  <fix>3d</fix>
</trkpt>
<trkpt lat="40.0712426" lon="-105.2294363">
  <ele>1583.01</ele>
  <time>2026-08-28T17:49:53Z</time>
  <course>113.82</course>
  <speed>2.4754191564258368</speed>
  <fix>3d</fix>
</trkpt>
<trkpt lat="40.0712447" lon="-105.229443">
  <ele>1583.0</ele>
  <time>2026-08-28T17:49:53Z</time>
  <course>112.46</course>
  <speed>2.76</speed>
  <fix>3d</fix>
</trkpt>
<trkpt lat="40.0712418" lon="-105.2294337">
  <ele>1583.01</ele>
  <time>2026-08-28T17:49:53Z</time>
  <course>113.98</course>
  <speed>2.358474082961269</speed>
  <fix>3d</fix>
</trkpt>
<trkpt lat="40.0712429" lon="-105.2294372">
  <ele>1583.0</ele>
  <time>2026-08-28T17:49:53Z</time>
  <course>112.74</course>
  <speed>2.52</speed>
  <fix>3d</fix>
</trkpt>
<trkpt lat="40.071241" lon="-105.2294312">
  <ele>1583.01</ele>
  <time>2026-08-28T17:49:53Z</time>
  <course>114.13</course>
  <speed>2.241539649437413</speed>
  <fix>3d</fix>
</trkpt>
<trkpt lat="40.0712429" lon="-105.2294372">
  <ele>1583.0</ele>
  <time>2026-08-28T17:49:53Z</time>
  <course>112.74</course>
  <speed>2.52</speed>
  <fix>3d</fix>
</trkpt>
<trkpt lat="40.0712402" lon="-105.2294288">
  <ele>1583.01</ele>
  <time>2026-08-28T17:49:53Z</time>
  <course>114.3</course>
  <speed>2.133846292496252</speed>
  <fix>3d</fix>
</trkpt>
<trkpt lat="40.0712412" lon="-105.229432">
  <ele>1583.0</ele>
  <time>2026-08-28T17:49:53Z</time>
  <course>113.05</course>
  <speed>2.29</speed>
  <fix>3d</fix>
</trkpt>
<trkpt lat="40.0712395" lon="-105.2294266">
  <ele>1583.01</ele>
  <time>2026-08-28T17:49:53Z</time>
  <course>114.48</course>
  <speed>2.0300246303924494</speed>
  <fix>3d</fix>
</trkpt>
<trkpt lat="40.0712412" lon="-105.229432">
  <ele>1583.0</ele>
  <time>2026-08-28T17:49:53Z</time>
  <course>113.05</course>
  <speed>2.29</speed>
  <fix>3d</fix>
</trkpt>
<trkpt lat="40.0712388" lon="-105.2294244">
  <ele>1583.01</ele>
  <time>2026-08-28T17:49:53Z</time>
  <course>114.67</course>
  <speed>1.9223423212320951</speed>
  <fix>3d</fix>
</trkpt>
<trkpt lat="40.0712396" lon="-105.2294273">
  <ele>1583.0</ele>
  <time>2026-08-28T17:49:53Z</time>
  <course>113.4</course>
  <speed>2.08</speed>
  <fix>3d</fix>
</trkpt>
<trkpt lat="40.0712381" lon="-105.2294224">
  <ele>1583.0</ele>
  <time>2026-08-28T17:49:53Z</time>
  <course>114.88</course>
  <speed>1.8185983613761452</speed>
  <fix>3d</fix>
</trkpt>
<trkpt lat="40.0712396" lon="-105.2294273">
  <ele>1583.0</ele>
  <time>2026-08-28T17:49:53Z</time>
  <course>113.4</course>
  <speed>2.08</speed>
  <fix>3d</fix>
</trkpt>
<trkpt lat="40.0712375" lon="-105.2294205">
  <ele>1583.0</ele>
  <time>2026-08-28T17:49:53Z</time>
  <course>115.1</course>
  <speed>1.7201162751395618</speed>
  <fix>3d</fix>
</trkpt>
<trkpt lat="40.0712382" lon="-105.229423">
  <ele>1583.0</ele>
  <time>2026-08-28T17:49:53Z</time>
  <course>113.8</course>
  <speed>1.87</speed>
  <fix>3d</fix>
</trkpt>
<trkpt lat="40.0712369" lon="-105.2294187">
  <ele>1583.0</ele>
  <time>2026-08-28T17:49:53Z</time>
  <course>115.35</course>
  <speed>1.6164467204334327</speed>
  <fix>3d</fix>
</trkpt>
<trkpt lat="40.0712382" lon="-105.229423">
  <ele>1583.0</ele>
  <time>2026-08-28T17:49:53Z</time>
  <course>113.8</course>
  <speed>1.87</speed>
  <fix>3d</fix>
</trkpt>
<trkpt lat="40.0712363" lon="-105.229417">
  <ele>1583.0</ele>
  <time>2026-08-28T17:49:53Z</time>
  <course>115.61</course>
  <speed>1.5179591562357664</speed>
  <fix>3d</fix>
</trkpt>
<trkpt lat="40.0712369" lon="-105.2294192">
  <ele>1583.0</ele>
  <time>2026-08-28T17:49:53Z</time>
  <course>114.27</course>
  <speed>1.67</speed>
  <fix>3d</fix>
</trkpt>
<trkpt lat="40.0712357" lon="-105.2294154">
  <ele>1583.0</ele>
  <time>2026-08-28T17:49:53Z</time>
  <course>115.9</course>
  <speed>1.4235167719419397</speed>
  <fix>3d</fix>
</trkpt>
<trkpt lat="40.0712369" lon="-105.2294192">
  <ele>1583.0</ele>
  <time>2026-08-28T17:49:53Z</time>
  <course>114.27</course>
  <speed>1.67</speed>
  <fix>3d</fix>
</trkpt>
<trkpt lat="40.0712352" lon="-105.2294139">
  <ele>1583.0</ele>
  <time>2026-08-28T17:49:53Z</time>
  <course>116.22</course>
  <speed>1.3200378782444084</speed>
  <fix>3d</fix>
</trkpt>
<trkpt lat="40.0712357" lon="-105.2294158">
  <ele>1583.0</ele>
  <time>2026-08-28T17:49:53Z</time>
  <course>114.82</course>
  <speed>1.47</speed>
  <fix>3d</fix>
</trkpt>
<trkpt lat="40.0712347" lon="-105.2294125">
  <ele>1583.0</ele>
  <time>2026-08-28T17:49:53Z</time>
  <course>116.58</course>
  <speed>1.2215563842901398</speed>
  <fix>3d</fix>
</trkpt>
<trkpt lat="40.0712357" lon="-105.2294158">
  <ele>1583.0</ele>
  <time>2026-08-28T17:49:53Z</time>
  <course>114.82</course>
  <speed>1.47</speed>
  <fix>3d</fix>
</trkpt>
<trkpt lat="40.0712342" lon="-105.2294113">
  <ele>1583.0</ele>
  <time>2026-08-28T17:49:53Z</time>
  <course>117.0</course>
  <speed>1.127297653683356</speed>
  <fix>3d</fix>
</trkpt>
<trkpt lat="40.0712357" lon="-105.2294158">
  <ele>1583.0</ele>
  <time>2026-08-28T17:49:53Z</time>
  <course>114.82</course>
  <speed>1.47</speed>
  <fix>3d</fix>
</trkpt>
<trkpt lat="40.0712338" lon="-105.2294101">
  <ele>1583.01</ele>
  <time>2026-08-28T17:49:53Z</time>
  <course>117.49</course>
  <speed>1.0331505214633538</speed>
  <fix>3d</fix>
</trkpt>
<trkpt lat="40.0712347" lon="-105.2294129">
  <ele>1583.0</ele>
  <time>2026-08-28T17:49:53Z</time>
  <course>115.51</course>
  <speed>1.28</speed>
  <fix>3d</fix>
</trkpt>
<trkpt lat="40.0712334" lon="-105.229409">
  <ele>1583.0</ele>
  <time>2026-08-28T17:49:53Z</time>
  <course>118.05</course>
  <speed>0.9347192091746055</speed>
  <fix>3d</fix>
</trkpt>
<trkpt lat="40.0712347" lon="-105.2294129">
  <ele>1583.0</ele>
  <time>2026-08-28T17:49:53Z</time>
  <course>115.51</course>
  <speed>1.28</speed>
  <fix>3d</fix>
</trkpt>
<trkpt lat="40.071233" lon="-105.2294081">
  <ele>1583.0</ele>
  <time>2026-08-28T17:49:53Z</time>
  <course>118.68</course>
  <speed>0.8407734534343958</speed>
  <fix>3d</fix>
</trkpt>
<trkpt lat="40.0712337" lon="-105.2294104">
  <ele>1583.0</ele>
  <time>2026-08-28T17:49:53Z</time>
  <course>116.41</course>
  <speed>1.09</speed>
  <fix>3d</fix>
</trkpt>
<trkpt lat="40.0712327" lon="-105.2294073">
  <ele>1583.0</ele>
  <time>2026-08-28T17:49:53Z</time>
  <course>119.3</course>
  <speed>0.7424284477308234</speed>
  <fix>3d</fix>
</trkpt>
<trkpt lat="40.0712337" lon="-105.2294104">
  <ele>1583.0</ele>
  <time>2026-08-28T17:49:53Z</time>
  <course>116.41</course>
  <speed>1.09</speed>
  <fix>3d</fix>
</trkpt>
<trkpt lat="40.0712323" lon="-105.2294065">
  <ele>1583.0</ele>
  <time>2026-08-28T17:49:53Z</time>
  <course>119.91</course>
  <speed>0.6488451279003334</speed>
  <fix>3d</fix>
</trkpt>
<trkpt lat="40.0712329" lon="-105.2294083">
  <ele>1583.0</ele>
  <time>2026-08-28T17:49:53Z</time>
  <course>117.54</course>
  <speed>0.9</speed>
  <fix>3d</fix>
</trkpt>
<trkpt lat="40.0712321" lon="-105.2294059">
  <ele>1583.0</ele>
  <time>2026-08-28T17:49:53Z</time>
  <course>120.5</course>
  <speed>0.5594640292279746</speed>
  <fix>3d</fix>
</trkpt>
<trkpt lat="40.0712329" lon="-105.2294083">
  <ele>1583.0</ele>
  <time>2026-08-28T17:49:53Z</time>
  <course>117.54</course>
  <speed>0.9</speed>
  <fix>3d</fix>
</trkpt>
<trkpt lat="40.0712318" lon="-105.2294054">
  <ele>1583.0</ele>
  <time>2026-08-28T17:49:53Z</time>
  <course>121.06</course>
  <speed>0.45650848842053304</speed>
  <fix>3d</fix>
</trkpt>
<trkpt lat="40.0712322" lon="-105.2294066">
  <ele>1583.0</ele>
  <time>2026-08-28T17:49:53Z</time>
  <course>118.75</course>
  <speed>0.71</speed>
  <fix>3d</fix>
</trkpt>
<trkpt lat="40.0712316" lon="-105.2294049">
  <ele>1583.0</ele>
  <time>2026-08-28T17:49:53Z</time>
  <course>121.55</course>
  <speed>0.3671511950137164</speed>
  <fix>3d</fix>
</trkpt>
<trkpt lat="40.0712317" lon="-105.2294053">
  <ele>1583.0</ele>
  <time>2026-08-28T17:49:53Z</time>
  <course>119.85</course>
  <speed>0.52</speed>
  <fix>3d</fix>
</trkpt>
<trkpt lat="40.0712314" lon="-105.2294046">
  <ele>1583.0</ele>
  <time>2026-08-28T17:49:53Z</time>
  <course>121.99</course>
  <speed>0.291547594742265</speed>
  <fix>3d</fix>
</trkpt>
<trkpt lat="40.0712317" lon="-105.2294053">
  <ele>1583.0</ele>
  <time>2026-08-28T17:49:53Z</time>
  <course>119.85</course>
  <speed>0.52</speed>
  <fix>3d</fix>
</trkpt>
<trkpt lat="40.0712313" lon="-105.2294043">
  <ele>1583.0</ele>
  <time>2026-08-28T17:49:53Z</time>
  <course>122.36</course>
  <speed>0.22472205054244232</speed>
  <fix>3d</fix>
</trkpt>
<trkpt lat="40.0712313" lon="-105.2294045">
  <ele>1583.0</ele>
  <time>2026-08-28T17:49:53Z</time>
  <course>120.79</course>
  <speed>0.36</speed>
  <fix>3d</fix>
</trkpt>
<trkpt lat="40.0712312" lon="-105.2294041">
  <ele>1583.01</ele>
  <time>2026-08-28T17:49:53Z</time>
  <course>122.68</course>
  <speed>0.18027756377319945</speed>
  <fix>3d</fix>
</trkpt>
<trkpt lat="40.0712313" lon="-105.2294045">
  <ele>1583.0</ele>
  <time>2026-08-28T17:49:53Z</time>
  <course>120.79</course>
  <speed>0.36</speed>
  <fix>3d</fix>
</trkpt>
<trkpt lat="40.0712311" lon="-105.2294039">
  <ele>1583.01</ele>
  <time>2026-08-28T17:49:53Z</time>
  <course>122.97</course>
  <speed>0.14422205101855956</speed>
  <fix>3d</fix>
</trkpt>
<trkpt lat="40.071231" lon="-105.2294039">
  <ele>1583.0</ele>
  <time>2026-08-28T17:49:53Z</time>
  <course>121.52</course>
  <speed>0.25</speed>
  <fix>3d</fix>
</trkpt>
<trkpt lat="40.071231" lon="-105.2294037">
  <ele>1583.01</ele>
  <time>2026-08-28T17:49:53Z</time>
  <course>123.23</course>
  <speed>0.12206555615733702</speed>
  <fix>3d</fix>
</trkpt>
<trkpt lat="40.071231" lon="-105.2294039">
  <ele>1583.0</ele>
  <time>2026-08-28T17:49:53Z</time>
  <course>121.52</course>
  <speed>0.25</speed>
  <fix>3d</fix>
</trkpt>
<trkpt lat="40.0712309" lon="-105.2294036">
  <ele>1583.01</ele>
  <time>2026-08-28T17:49:53Z</time>
  <course>123.47</course>
  <speed>0.11401754250991379</speed>
  <fix>3d</fix>
</trkpt>
<trkpt lat="40.0712308" lon="-105.2294034">
  <ele>1583.0</ele>
  <time>2026-08-28T17:49:53Z</time>
  <course>122.09</course>
  <speed>0.19</speed>
  <fix>3d</fix>
</trkpt>
<trkpt lat="40.0712308" lon="-105.2294034">
  <ele>1583.01</ele>
  <time>2026-08-28T17:49:53Z</time>
  <course>123.71</course>
  <speed>0.11401754250991379</speed>
  <fix>3d</fix>
</trkpt>
<trkpt lat="40.0712308" lon="-105.2294034">
  <ele>1583.0</ele>
  <time>2026-08-28T17:49:53Z</time>
  <course>122.09</course>
  <speed>0.19</speed>
  <fix>3d</fix>
</trkpt>
<trkpt lat="40.0712307" lon="-105.2294033">
  <ele>1583.01</ele>
  <time>2026-08-28T17:49:53Z</time>
  <course>123.95</course>
  <speed>0.12041594578792296</speed>
  <fix>3d</fix>
</trkpt>
<trkpt lat="40.0712307" lon="-105.2294031">
  <ele>1583.0</ele>
  <time>2026-08-28T17:49:53Z</time>
  <course>122.6</course>
  <speed>0.17</speed>
  <fix>3d</fix>
</trkpt>
<trkpt lat="40.0712306" lon="-105.2294031">
  <ele>1583.02</ele>
  <time>2026-08-28T17:49:53Z</time>
  <course>124.22</course>
  <speed>0.1345362404707371</speed>
  <fix>3d</fix>
</trkpt>
<trkpt lat="40.0712307" lon="-105.2294031">
  <ele>1583.0</ele>
  <time>2026-08-28T17:49:53Z</time>
  <course>122.6</course>
  <speed>0.17</speed>
  <fix>3d</fix>
</trkpt>
<trkpt lat="40.0712305" lon="-105.2294029">
  <ele>1583.02</ele>
  <time>2026-08-28T17:49:53Z</time>
  <course>124.51</course>
  <speed>0.16278820596099705</speed>
  <fix>3d</fix>
</trkpt>
<trkpt lat="40.0712305" lon="-105.2294027">
  <ele>1583.0</ele>
  <time>2026-08-28T17:49:53Z</time>
  <course>123.13</course>
  <speed>0.19</speed>
  <fix>3d</fix>
</trkpt>
<trkpt lat="40.0712304" lon="-105.2294027">
  <ele>1583.02</ele>
  <time>2026-08-28T17:49:53Z</time>
  <course>124.84</course>
  <speed>0.18439088914585774</speed>
  <fix>3d</fix>
</trkpt>
<trkpt lat="40.0712305" lon="-105.2294027">
  <ele>1583.0</ele>
  <time>2026-08-28T17:49:53Z</time>
  <course>123.13</course>
  <speed>0.19</speed>
  <fix>3d</fix>
</trkpt>
<trkpt lat="40.0712303" lon="-105.2294025">
  <ele>1583.02</ele>
  <time>2026-08-28T17:49:53Z</time>
  <course>125.22</course>
  <speed>0.2193171219946131</speed>
  <fix>3d</fix>
</trkpt>
<trkpt lat="40.0712302" lon="-105.2294023">
  <ele>1583.0</ele>
  <time>2026-08-28T17:49:53Z</time>
  <course>123.77</course>
  <speed>0.24</speed>
  <fix>3d</fix>
</trkpt>
<trkpt lat="40.0712301" lon="-105.2294022">
  <ele>1583.02</ele>
  <time>2026-08-28T17:49:53Z</time>
  <course>125.65</course>
  <speed>0.25495097567963926</speed>
  <fix>3d</fix>
</trkpt>
<trkpt lat="40.0712302" lon="-105.2294023">
  <ele>1583.0</ele>
  <time>2026-08-28T17:49:53Z</time>
  <course>123.77</course>
  <speed>0.24</speed>
  <fix>3d</fix>
</trkpt>
<trkpt lat="40.0712299" lon="-105.2294019">
  <ele>1583.01</ele>
  <time>2026-08-28T17:49:53Z</time>
  <course>126.15</course>
  <speed>0.2906888370749727</speed>
  <fix>3d</fix>
</trkpt>
<trkpt lat="40.0712302" lon="-105.2294023">
  <ele>1583.0</ele>
  <time>2026-08-28T17:49:53Z</time>
  <course>123.77</course>
  <speed>0.24</speed>
  <fix>3d</fix>
</trkpt>
<trkpt lat="40.0712297" lon="-105.2294016">
  <ele>1583.01</ele>
  <time>2026-08-28T17:49:53Z</time>
  <course>126.72</course>
  <speed>0.3255764119219941</speed>
  <fix>3d</fix>
</trkpt>
<trkpt lat="40.07123" lon="-105.2294018">
  <ele>1583.0</ele>
  <time>2026-08-28T17:49:53Z</time>
  <course>124.6</course>
  <speed>0.3</speed>
  <fix>3d</fix>
</trkpt>
<trkpt lat="40.0712295" lon="-105.2294012">
  <ele>1583.01</ele>
  <time>2026-08-28T17:49:53Z</time>
  <course>127.37</course>
  <speed>0.36796738985948196</speed>
  <fix>3d</fix>
</trkpt>
<trkpt lat="40.07123" lon="-105.2294018">
  <ele>1583.0</ele>
  <time>2026-08-28T17:49:53Z</time>
  <course>124.6</course>
  <speed>0.3</speed>
  <fix>3d</fix>
</trkpt>
<trkpt lat="40.0712292" lon="-105.2294008">
  <ele>1583.01</ele>
  <time>2026-08-28T17:49:53Z</time>
  <course>128.12</course>
  <speed>0.41036569057366384</speed>
  <fix>3d</fix>
</trkpt>
<trkpt lat="40.0712295" lon="-105.2294011">
  <ele>1583.0</ele>
  <time>2026-08-28T17:49:53Z</time>
  <course>125.68</course>
  <speed>0.37</speed>
  <fix>3d</fix>
</trkpt>
<trkpt lat="40.071229" lon="-105.2294004">
  <ele>1583.01</ele>
  <time>2026-08-28T17:49:53Z</time>
  <course>128.98</course>
  <speed>0.44553338819890925</speed>
  <fix>3d</fix>
</trkpt>
<trkpt lat="40.0712295" lon="-105.2294011">
  <ele>1583.0</ele>
  <time>2026-08-28T17:49:53Z</time>
  <course>125.68</course>
  <speed>0.37</speed>
  <fix>3d</fix>
</trkpt>
<trkpt lat="40.0712286" lon="-105.2293999">
  <ele>1583.01</ele>
  <time>2026-08-28T17:49:53Z</time>
  <course>129.96</course>
  <speed>0.4808326112068523</speed>
  <fix>3d</fix>
</trkpt>
<trkpt lat="40.0712292" lon="-105.2294003">
  <ele>1583.0</ele>
  <time>2026-08-28T17:49:53Z</time>
  <course>127.1</course>
  <speed>0.44</speed>
  <fix>3d</fix>
</trkpt>
<trkpt lat="40.0712283" lon="-105.2293995">
  <ele>1583.01</ele>
  <time>2026-08-28T17:49:53Z</time>
  <course>131.08</course>
  <speed>0.5162363799656123</speed>
  <fix>3d</fix>
</trkpt>
<trkpt lat="40.0712286" lon="-105.2293994">
  <ele>1583.0</ele>
  <time>2026-08-28T17:49:53Z</time>
  <course>128.95</course>
  <speed>0.51</speed>
  <fix>3d</fix>
</trkpt>
<trkpt lat="40.071228" lon="-105.2293989">
  <ele>1583.01</ele>
  <time>2026-08-28T17:49:53Z</time>
  <course>132.35</course>
  <speed>0.5590169943749475</speed>
  <fix>3d</fix>
</trkpt>
<trkpt lat="40.0712286" lon="-105.2293994">
  <ele>1583.0</ele>
  <time>2026-08-28T17:49:53Z</time>
  <course>128.95</course>
  <speed>0.51</speed>
  <fix>3d</fix>
</trkpt>
<trkpt lat="40.0712276" lon="-105.2293984">
  <ele>1583.01</ele>
  <time>2026-08-28T17:49:53Z</time>
  <course>133.8</course>
  <speed>0.5946427498927402</speed>
  <fix>3d</fix>
</trkpt>
<trkpt lat="40.071228" lon="-105.2293985">
  <ele>1583.0</ele>
  <time>2026-08-28T17:49:53Z</time>
  <course>131.36</course>
  <speed>0.58</speed>
  <fix>3d</fix>
</trkpt>
<trkpt lat="40.0712272" lon="-105.2293979">
  <ele>1583.01</ele>
  <time>2026-08-28T17:49:53Z</time>
  <course>135.44</course>
  <speed>0.6248199740725323</speed>
  <fix>3d</fix>
</trkpt>
<trkpt lat="40.071228" lon="-105.2293985">
  <ele>1583.0</ele>
  <time>2026-08-28T17:49:53Z</time>
  <course>131.36</course>
  <speed>0.58</speed>
  <fix>3d</fix>
</trkpt>
<trkpt lat="40.0712267" lon="-105.2293973">
  <ele>1583.01</ele>
  <time>2026-08-28T17:49:53Z</time>
  <course>137.33</course>
  <speed>0.6543699259593154</speed>
  <fix>3d</fix>
</trkpt>
<trkpt lat="40.0712273" lon="-105.2293974">
  <ele>1583.0</ele>
  <time>2026-08-28T17:49:53Z</time>
  <course>134.5</course>
  <speed>0.64</speed>
  <fix>3d</fix>
</trkpt>
<trkpt lat="40.0712262" lon="-105.2293968">
  <ele>1583.01</ele>
  <time>2026-08-28T17:49:53Z</time>
  <course>139.47</course>
  <speed>0.6860029154456998</speed>
  <fix>3d</fix>
</trkpt>
<trkpt lat="40.0712273" lon="-105.2293974">
  <ele>1583.0</ele>
  <time>2026-08-28T17:49:53Z</time>
  <course>134.5</course>
  <speed>0.64</speed>
  <fix>3d</fix>
</trkpt>
<trkpt lat="40.0712257" lon="-105.2293962">
  <ele>1583.01</ele>
  <time>2026-08-28T17:49:53Z</time>
  <course>141.91</course>
  <speed>0.7128113354878693</speed>
  <fix>3d</fix>
</trkpt>
<trkpt lat="40.0712264" lon="-105.2293963">
  <ele>1583.0</ele>
  <time>2026-08-28T17:49:53Z</time>
  <course>138.58</course>
  <speed>0.69</speed>
  <fix>3d</fix>
</trkpt>
<trkpt lat="40.0712252" lon="-105.2293957">
  <ele>1583.02</ele>
  <time>2026-08-28T17:49:53Z</time>
  <course>144.71</course>
  <speed>0.7409453421137081</speed>
  <fix>3d</fix>
</trkpt>
<trkpt lat="40.0712264" lon="-105.2293963">
  <ele>1583.0</ele>
  <time>2026-08-28T17:49:53Z</time>
  <course>138.58</course>
  <speed>0.69</speed>
  <fix>3d</fix>
</trkpt>
<trkpt lat="40.0712246" lon="-105.2293952">
  <ele>1583.02</ele>
  <time>2026-08-28T17:49:53Z</time>
  <course>147.86</course>
  <speed>0.7605918747922567</speed>
  <fix>3d</fix>
</trkpt>
<trkpt lat="40.0712254" lon="-105.2293952">
  <ele>1583.0</ele>
  <time>2026-08-28T17:49:53Z</time>
  <course>143.84</course>
  <speed>0.74</speed>
  <fix>3d</fix>
</trkpt>
<trkpt lat="40.071224" lon="-105.2293947">
  <ele>1583.02</ele>
  <time>2026-08-28T17:49:53Z</time>
  <course>151.43</course>
  <speed>0.7920227269466451</speed>
  <fix>3d</fix>
</trkpt>
<trkpt lat="40.0712254" lon="-105.2293952">
  <ele>1583.0</ele>
  <time>2026-08-28T17:49:53Z</time>
  <course>143.84</course>
  <speed>0.74</speed>
  <fix>3d</fix>
</trkpt>
<trkpt lat="40.0712233" lon="-105.2293943">
  <ele>1583.02</ele>
  <time>2026-08-28T17:49:53Z</time>
  <course>155.44</course>
  <speed>0.8134494452638098</speed>
  <fix>3d</fix>
</trkpt>
<trkpt lat="40.0712243" lon="-105.2293943">
  <ele>1583.0</ele>
  <time>2026-08-28T17:49:53Z</time>
  <course>150.61</course>
  <speed>0.77</speed>
  <fix>3d</fix>
</trkpt>
<trkpt lat="40.0712226" lon="-105.2293939">
  <ele>1583.02</ele>
  <time>2026-08-28T17:49:53Z</time>
  <course>159.92</course>
  <speed>0.835224520712844</speed>
  <fix>3d</fix>
</trkpt>
<trkpt lat="40.0712243" lon="-105.2293943">
  <ele>1583.0</ele>
  <time>2026-08-28T17:49:53Z</time>
  <course>150.61</course>
  <speed>0.77</speed>
  <fix>3d</fix>
</trkpt>
<trkpt lat="40.0712219" lon="-105.2293936">
  <ele>1583.01</ele>
  <time>2026-08-28T17:49:53Z</time>
  <course>164.92</course>
  <speed>0.8492938243034621</speed>
  <fix>3d</fix>
</trkpt>
<trkpt lat="40.0712229" lon="-105.2293935">
  <ele>1583.0</ele>
  <time>2026-08-28T17:49:53Z</time>
  <course>159.15</course>
  <speed>0.81</speed>
  <fix>3d</fix>
</trkpt>
<trkpt lat="40.0712212" lon="-105.2293933">
  <ele>1583.01</ele>
  <time>2026-08-28T17:49:53Z</time>
  <course>170.22</course>
  <speed>0.8657944328765345</speed>
  <fix>3d</fix>
</trkpt>
<trkpt lat="40.0712229" lon="-105.2293935">
  <ele>1583.0</ele>
  <time>2026-08-28T17:49:53Z</time>
  <course>159.15</course>
  <speed>0.81</speed>
  <fix>3d</fix>
</trkpt>
<trkpt lat="40.0712204" lon="-105.2293932">
  <ele>1583.01</ele>
  <time>2026-08-28T17:49:53Z</time>
  <course>175.61</course>
  <speed>0.8805112151472007</speed>
  <fix>3d</fix>
</trkpt>
<trkpt lat="40.0712229" lon="-105.2293935">
  <ele>1583.0</ele>
  <time>2026-08-28T17:49:53Z</time>
  <course>159.15</course>
  <speed>0.81</speed>
  <fix>3d</fix>
</trkpt>
<trkpt lat="40.0712196" lon="-105.2293932">
  <ele>1583.01</ele>
  <time>2026-08-28T17:49:53Z</time>
  <course>181.07</course>
  <speed>0.8908984229416954</speed>
  <fix>3d</fix>
</trkpt>
<trkpt lat="40.0712215" lon="-105.2293929">
  <ele>1583.0</ele>
  <time>2026-08-28T17:49:53Z</time>
  <course>169.26</course>
  <speed>0.83</speed>
  <fix>3d</fix>
</trkpt>
<trkpt lat="40.0712188" lon="-105.2293932">
  <ele>1583.01</ele>
  <time>2026-08-28T17:49:53Z</time>
  <course>186.57</course>
  <speed>0.9093404203047393</speed>
  <fix>3d</fix>
</trkpt>
<trkpt lat="40.0712215" lon="-105.2293929">
  <ele>1583.0</ele>
  <time>2026-08-28T17:49:53Z</time>
  <course>169.26</course>
  <speed>0.83</speed>
  <fix>3d</fix>
</trkpt>
<trkpt lat="40.071218" lon="-105.2293933">
  <ele>1583.01</ele>
  <time>2026-08-28T17:49:53Z</time>
  <course>192.13</course>
  <speed>0.9144397191723465</speed>
  <fix>3d</fix>
</trkpt>
<trkpt lat="40.07122" lon="-105.2293928">
  <ele>1583.0</ele>
  <time>2026-08-28T17:49:53Z</time>
  <course>180.1</course>
  <speed>0.85</speed>
  <fix>3d</fix>
</trkpt>
<trkpt lat="40.0712173" lon="-105.2293936">
  <ele>1583.01</ele>
  <time>2026-08-28T17:49:53Z</time>
  <course>197.73</course>
  <speed>0.91706052144883</speed>
  <fix>3d</fix>
</trkpt>
<trkpt lat="40.07122" lon="-105.2293928">
  <ele>1583.0</ele>
  <time>2026-08-28T17:49:53Z</time>
  <course>180.1</course>
  <speed>0.85</speed>
  <fix>3d</fix>
</trkpt>
<trkpt lat="40.0712165" lon="-105.2293939">
  <ele>1583.01</ele>
  <time>2026-08-28T17:49:53Z</time>
  <course>203.37</course>
  <speed>0.9219544457292888</speed>
  <fix>3d</fix>
</trkpt>
<trkpt lat="40.0712185" lon="-105.2293929">
  <ele>1583.0</ele>
  <time>2026-08-28T17:49:53Z</time>
  <course>191.16</course>
  <speed>0.87</speed>
  <fix>3d</fix>
</trkpt>
<trkpt lat="40.0712158" lon="-105.2293944">
  <ele>1583.0</ele>
  <time>2026-08-28T17:49:53Z</time>
  <course>209.08</course>
  <speed>0.9315041599477696</speed>
  <fix>3d</fix>
</trkpt>
<trkpt lat="40.0712169" lon="-105.2293934">
  <ele>1583.0</ele>
  <time>2026-08-28T17:49:53Z</time>
  <course>202.39</course>
  <speed>0.88</speed>
  <fix>3d</fix>
</trkpt>
<trkpt lat="40.0712151" lon="-105.2293949">
  <ele>1583.0</ele>
  <time>2026-08-28T17:49:53Z</time>
  <course>214.77</course>
  <speed>0.9265527507918802</speed>
  <fix>3d</fix>
</trkpt>
<trkpt lat="40.0712169" lon="-105.2293934">
  <ele>1583.0</ele>
  <time>2026-08-28T17:49:53Z</time>
  <course>202.39</course>
  <speed>0.88</speed>
  <fix>3d</fix>
</trkpt>
<trkpt lat="40.0712145" lon="-105.2293956">
  <ele>1583.0</ele>
  <time>2026-08-28T17:49:53Z</time>
  <course>220.49</course>
  <speed>0.929569792968769</speed>
  <fix>3d</fix>
</trkpt>
<trkpt lat="40.0712155" lon="-105.2293944">
  <ele>1583.0</ele>
  <time>2026-08-28T17:49:53Z</time>
  <course>213.75</course>
  <speed>0.89</speed>
  <fix>3d</fix>
</trkpt>
<trkpt lat="40.0712139" lon="-105.2293963">
  <ele>1582.99</ele>
  <time>2026-08-28T17:49:53Z</time>
  <course>226.16</course>
  <speed>0.9334880824091971</speed>
  <fix>3d</fix>
</trkpt>
<trkpt lat="40.0712155" lon="-105.2293944">
  <ele>1583.0</ele>
  <time>2026-08-28T17:49:53Z</time>
  <course>213.75</course>
  <speed>0.89</speed>
  <fix>3d</fix>
</trkpt>
<trkpt lat="40.0712134" lon="-105.2293971">
  <ele>1582.99</ele>
  <time>2026-08-28T17:49:53Z</time>
  <course>231.89</course>
  <speed>0.9323625904121208</speed>
  <fix>3d</fix>
</trkpt>
<trkpt lat="40.0712143" lon="-105.2293958">
  <ele>1583.0</ele>
  <time>2026-08-28T17:49:53Z</time>
  <course>225.18</course>
  <speed>0.89</speed>
  <fix>3d</fix>
</trkpt>
<trkpt lat="40.0712129" lon="-105.2293979">
  <ele>1583.0</ele>
  <time>2026-08-28T17:49:53Z</time>
  <course>237.63</course>
  <speed>0.9264987857520376</speed>
  <fix>3d</fix>
</trkpt>
<trkpt lat="40.0712143" lon="-105.2293958">
  <ele>1583.0</ele>
  <time>2026-08-28T17:49:53Z</time>
  <course>225.18</course>
  <speed>0.89</speed>
  <fix>3d</fix>
</trkpt>
<trkpt lat="40.0712125" lon="-105.2293988">
  <ele>1583.0</ele>
  <time>2026-08-28T17:49:53Z</time>
  <course>243.36</course>
  <speed>0.9213034245024816</speed>
  <fix>3d</fix>
</trkpt>
<trkpt lat="40.0712133" lon="-105.2293974">
  <ele>1583.0</ele>
  <time>2026-08-28T17:49:53Z</time>
  <course>236.64</course>
  <speed>0.89</speed>
  <fix>3d</fix>
</trkpt>
<trkpt lat="40.0712122" lon="-105.2293998">
  <ele>1583.0</ele>
  <time>2026-08-28T17:49:53Z</time>
  <course>249.09</course>
  <speed>0.9154780172128657</speed>
  <fix>3d</fix>
</trkpt>
<trkpt lat="40.0712133" lon="-105.2293974">
  <ele>1583.0</ele>
  <time>2026-08-28T17:49:53Z</time>
  <course>236.64</course>
  <speed>0.89</speed>
  <fix>3d</fix>
</trkpt>
<trkpt lat="40.071212" lon="-105.2294008">
  <ele>1583.0</ele>
  <time>2026-08-28T17:49:53Z</time>
  <course>254.87</course>
  <speed>0.9148223871331527</speed>
  <fix>3d</fix>
</trkpt>
<trkpt lat="40.0712125" lon="-105.2293993">
  <ele>1583.0</ele>
  <time>2026-08-28T17:49:53Z</time>
  <course>248.12</course>
  <speed>0.89</speed>
  <fix>3d</fix>
</trkpt>
<trkpt lat="40.0712118" lon="-105.2294018">
  <ele>1583.0</ele>
  <time>2026-08-28T17:49:53Z</time>
  <course>260.63</course>
  <speed>0.9141115905621152</speed>
  <fix>3d</fix>
</trkpt>
<trkpt lat="40.0712125" lon="-105.2293993">
  <ele>1583.0</ele>
  <time>2026-08-28T17:49:53Z</time>
  <course>248.12</course>
  <speed>0.89</speed>
  <fix>3d</fix>
</trkpt>
<trkpt lat="40.0712117" lon="-105.2294029">
  <ele>1583.0</ele>
  <time>2026-08-28T17:49:53Z</time>
  <course>266.41</course>
  <speed>0.9226592003551474</speed>
  <fix>3d</fix>
</trkpt>
<trkpt lat="40.0712121" lon="-105.2294013">
  <ele>1583.0</ele>
  <time>2026-08-28T17:49:53Z</time>
  <course>259.66</course>
  <speed>0.9</speed>
  <fix>3d</fix>
</trkpt>
<trkpt lat="40.0712118" lon="-105.229404">
  <ele>1582.99</ele>
  <time>2026-08-28T17:49:53Z</time>
  <course>272.07</course>
  <speed>0.9300537618869137</speed>
  <fix>3d</fix>
</trkpt>
<trkpt lat="40.0712121" lon="-105.2294013">
  <ele>1583.0</ele>
  <time>2026-08-28T17:49:53Z</time>
  <course>259.66</course>
  <speed>0.9</speed>
  <fix>3d</fix>
</trkpt>
<trkpt lat="40.0712118" lon="-105.2294051">
  <ele>1582.99</ele>
  <time>2026-08-28T17:49:53Z</time>
  <course>277.18</course>
  <speed>0.9442986815621421</speed>
  <fix>3d</fix>
</trkpt>
<trkpt lat="40.0712119" lon="-105.2294034">
  <ele>1583.0</ele>
  <time>2026-08-28T17:49:53Z</time>
  <course>270.87</course>
  <speed>0.92</speed>
  <fix>3d</fix>
</trkpt>
<trkpt lat="40.071212" lon="-105.2294061">
  <ele>1583.0</ele>
  <time>2026-08-28T17:49:53Z</time>
  <course>281.65</course>
  <speed>0.95524865872714</speed>
  <fix>3d</fix>
</trkpt>
<trkpt lat="40.0712119" lon="-105.2294034">
  <ele>1583.0</ele>
  <time>2026-08-28T17:49:53Z</time>
  <course>270.87</course>
  <speed>0.92</speed>
  <fix>3d</fix>
</trkpt>
<trkpt lat="40.0712122" lon="-105.2294072">
  <ele>1583.0</ele>
  <time>2026-08-28T17:49:53Z</time>
  <course>285.5</course>
  <speed>0.9798469268207153</speed>
  <fix>3d</fix>
</trkpt>
<trkpt lat="40.0712119" lon="-105.2294034">
  <ele>1583.0</ele>
  <time>2026-08-28T17:49:53Z</time>
  <course>270.87</course>
  <speed>0.92</speed>
  <fix>3d</fix>
</trkpt>
<trkpt lat="40.0712125" lon="-105.2294083">
  <ele>1583.0</ele>
  <time>2026-08-28T17:49:53Z</time>
  <course>288.78</course>
  <speed>1.0057832768544126</speed>
  <fix>3d</fix>
</trkpt>
<trkpt lat="40.071212" lon="-105.2294057">
  <ele>1583.0</ele>
  <time>2026-08-28T17:49:53Z</time>
  <course>280.45</course>
  <speed>0.95</speed>
  <fix>3d</fix>
</trkpt>
<trkpt lat="40.0712127" lon="-105.2294095">
  <ele>1583.0</ele>
  <time>2026-08-28T17:49:53Z</time>
  <course>291.5</course>
  <speed>1.044030650891055</speed>
  <fix>3d</fix>
</trkpt>
<trkpt lat="40.071212" lon="-105.2294057">
  <ele>1583.0</ele>
  <time>2026-08-28T17:49:53Z</time>
  <course>280.45</course>
  <speed>0.95</speed>
  <fix>3d</fix>
</trkpt>
<trkpt lat="40.0712131" lon="-105.2294106">
  <ele>1583.0</ele>
  <time>2026-08-28T17:49:53Z</time>
  <course>293.74</course>
  <speed>1.0846197490365</speed>
  <fix>3d</fix>
</trkpt>
<trkpt lat="40.0712125" lon="-105.2294078">
  <ele>1583.0</ele>
  <time>2026-08-28T17:49:53Z</time>
  <course>287.62</course>
  <speed>1.01</speed>
  <fix>3d</fix>
</trkpt>
<trkpt lat="40.0712135" lon="-105.2294118">
  <ele>1582.99</ele>
  <time>2026-08-28T17:49:53Z</time>
  <course>295.56</course>
  <speed>1.12307613277106</speed>
  <fix>3d</fix>
</trkpt>
<trkpt lat="40.0712125" lon="-105.2294078">
  <ele>1583.0</ele>
  <time>2026-08-28T17:49:53Z</time>
  <course>287.62</course>
  <speed>1.01</speed>
  <fix>3d</fix>
</trkpt>
<trkpt lat="40.0712139" lon="-105.229413">
  <ele>1582.99</ele>
  <time>2026-08-28T17:49:53Z</time>
  <course>297.02</course>
  <speed>1.1806777714516352</speed>
  <fix>3d</fix>
</trkpt>
<trkpt lat="40.0712131" lon="-105.2294101">
  <ele>1583.0</ele>
  <time>2026-08-28T17:49:53Z</time>
  <course>292.63</course>
  <speed>1.09</speed>
  <fix>3d</fix>
</trkpt>
<trkpt lat="40.0712144" lon="-105.2294142">
  <ele>1582.99</ele>
  <time>2026-08-28T17:49:53Z</time>
  <course>298.2</course>
  <speed>1.2389108119634762</speed>
  <fix>3d</fix>
</trkpt>
<trkpt lat="40.0712131" lon="-105.2294101">
  <ele>1583.0</ele>
  <time>2026-08-28T17:49:53Z</time>
  <course>292.63</course>
  <speed>1.09</speed>
  <fix>3d</fix>
</trkpt>
<trkpt lat="40.071215" lon="-105.2294155">
  <ele>1582.99</ele>
  <time>2026-08-28T17:49:53Z</time>
  <course>299.14</course>
  <speed>1.2929423807734048</speed>
  <fix>3d</fix>
</trkpt>
<trkpt lat="40.071214" lon="-105.2294126">
  <ele>1583.0</ele>
  <time>2026-08-28T17:49:53Z</time>
  <course>295.95</course>
  <speed>1.19</speed>
  <fix>3d</fix>
</trkpt>
<trkpt lat="40.0712156" lon="-105.2294169">
  <ele>1582.99</ele>
  <time>2026-08-28T17:49:53Z</time>
  <course>299.87</course>
  <speed>1.3607718398026907</speed>
  <fix>3d</fix>
</trkpt>
<trkpt lat="40.071215" lon="-105.2294152">
  <ele>1583.0</ele>
  <time>2026-08-28T17:49:53Z</time>
  <course>298.08</course>
  <speed>1.31</speed>
  <fix>3d</fix>
</trkpt>
<trkpt lat="40.0712162" lon="-105.2294184">
  <ele>1583.0</ele>
  <time>2026-08-28T17:49:53Z</time>
  <course>300.43</course>
  <speed>1.4375673897247392</speed>
  <fix>3d</fix>
</trkpt>
<trkpt lat="40.071215" lon="-105.2294152">
  <ele>1583.0</ele>
  <time>2026-08-28T17:49:53Z</time>
  <course>298.08</course>
  <speed>1.31</speed>
  <fix>3d</fix>
</trkpt>
<trkpt lat="40.0712169" lon="-105.2294199">
  <ele>1583.0</ele>
  <time>2026-08-28T17:49:53Z</time>
  <course>300.86</course>
  <speed>1.5144966160411186</speed>
  <fix>3d</fix>
</trkpt>
<trkpt lat="40.0712162" lon="-105.2294181">
  <ele>1583.0</ele>
  <time>2026-08-28T17:49:53Z</time>
  <course>299.39</course>
  <speed>1.45</speed>
  <fix>3d</fix>
</trkpt>
<trkpt lat="40.0712176" lon="-105.2294215">
  <ele>1583.0</ele>
  <time>2026-08-28T17:49:53Z</time>
  <course>301.16</course>
  <speed>1.5915401345866211</speed>
  <fix>3d</fix>
</trkpt>
<trkpt lat="40.0712162" lon="-105.2294181">
  <ele>1583.0</ele>
  <time>2026-08-28T17:49:53Z</time>
  <course>299.39</course>
  <speed>1.45</speed>
  <fix>3d</fix>
</trkpt>
<trkpt lat="40.0712184" lon="-105.2294231">
  <ele>1583.0</ele>
  <time>2026-08-28T17:49:53Z</time>
  <course>301.37</course>
  <speed>1.6772596698186004</speed>
  <fix>3d</fix>
</trkpt>
<trkpt lat="40.0712176" lon="-105.2294212">
  <ele>1583.0</ele>
  <time>2026-08-28T17:49:53Z</time>
  <course>300.12</course>
  <speed>1.6</speed>
  <fix>3d</fix>
</trkpt>
<trkpt lat="40.0712192" lon="-105.2294249">
  <ele>1583.0</ele>
  <time>2026-08-28T17:49:53Z</time>
  <course>301.51</course>
  <speed>1.7664653973401234</speed>
  <fix>3d</fix>
</trkpt>
<trkpt lat="40.0712176" lon="-105.2294212">
  <ele>1583.0</ele>
  <time>2026-08-28T17:49:53Z</time>
  <course>300.12</course>
  <speed>1.6</speed>
  <fix>3d</fix>
</trkpt>
<trkpt lat="40.0712201" lon="-105.2294268">
  <ele>1583.01</ele>
  <time>2026-08-28T17:49:53Z</time>
  <course>301.58</course>
  <speed>1.8521878954360975</speed>
  <fix>3d</fix>
</trkpt>
<trkpt lat="40.071219" lon="-105.2294246">
  <ele>1583.0</ele>
  <time>2026-08-28T17:49:53Z</time>
  <course>300.47</course>
  <speed>1.77</speed>
  <fix>3d</fix>
</trkpt>
<trkpt lat="40.071221" lon="-105.2294288">
  <ele>1583.01</ele>
  <time>2026-08-28T17:49:53Z</time>
  <course>301.59</course>
  <speed>1.9465096968677036</speed>
  <fix>3d</fix>
</trkpt>
<trkpt lat="40.071219" lon="-105.2294246">
  <ele>1583.0</ele>
  <time>2026-08-28T17:49:53Z</time>
  <course>300.47</course>
  <speed>1.77</speed>
  <fix>3d</fix>
</trkpt>
<trkpt lat="40.0712219" lon="-105.2294308">
  <ele>1583.01</ele>
  <time>2026-08-28T17:49:53Z</time>
  <course>301.58</course>
  <speed>2.040833163195855</speed>
  <fix>3d</fix>
</trkpt>
<trkpt lat="40.0712207" lon="-105.2294284">
  <ele>1583.0</ele>
  <time>2026-08-28T17:49:53Z</time>
  <course>300.57</course>
  <speed>1.95</speed>
  <fix>3d</fix>
</trkpt>
<trkpt lat="40.0712229" lon="-105.229433">
  <ele>1583.01</ele>
  <time>2026-08-28T17:49:53Z</time>
  <course>301.53</course>
  <speed>2.1437350582569668</speed>
  <fix>3d</fix>
</trkpt>
<trkpt lat="40.0712207" lon="-105.2294284">
  <ele>1583.0</ele>
  <time>2026-08-28T17:49:53Z</time>
  <course>300.57</course>
  <speed>1.95</speed>
  <fix>3d</fix>
</trkpt>
<trkpt lat="40.0712239" lon="-105.2294352">
  <ele>1583.01</ele>
  <time>2026-08-28T17:49:53Z</time>
  <course>301.44</course>
  <speed>2.2380571931923456</speed>
  <fix>3d</fix>
</trkpt>
<trkpt lat="40.0712226" lon="-105.2294326">
  <ele>1583.0</ele>
  <time>2026-08-28T17:49:53Z</time>
  <course>300.5</course>
  <speed>2.14</speed>
  <fix>3d</fix>
</trkpt>
<trkpt lat="40.071225" lon="-105.2294376">
  <ele>1583.01</ele>
  <time>2026-08-28T17:49:53Z</time>
  <course>301.33</course>
  <speed>2.335851022646778</speed>
  <fix>3d</fix>
</trkpt>
<trkpt lat="40.0712226" lon="-105.2294326">
  <ele>1583.0</ele>
  <time>2026-08-28T17:49:53Z</time>
  <course>300.5</course>
  <speed>2.14</speed>
  <fix>3d</fix>
</trkpt>
<trkpt lat="40.0712261" lon="-105.22944">
  <ele>1583.01</ele>
  <time>2026-08-28T17:49:53Z</time>
  <course>301.2</course>
  <speed>2.438770181874463</speed>
  <fix>3d</fix>
</trkpt>
<trkpt lat="40.0712247" lon="-105.2294371">
  <ele>1583.0</ele>
  <time>2026-08-28T17:49:53Z</time>
  <course>300.31</course>
  <speed>2.33</speed>
  <fix>3d</fix>
</trkpt>
<trkpt lat="40.0712272" lon="-105.2294426">
  <ele>1583.01</ele>
  <time>2026-08-28T17:49:53Z</time>
  <course>301.07</course>
  <speed>2.541692349597016</speed>
  <fix>3d</fix>
</trkpt>
<trkpt lat="40.0712247" lon="-105.2294371">
  <ele>1583.0</ele>
  <time>2026-08-28T17:49:53Z</time>
  <course>300.31</course>
  <speed>2.33</speed>
  <fix>3d</fix>
</trkpt>
<trkpt lat="40.0712284" lon="-105.2294453">
  <ele>1583.01</ele>
  <time>2026-08-28T17:49:53Z</time>
  <course>300.9</course>
  <speed>2.6395643579954626</speed>
  <fix>3d</fix>
</trkpt>
<trkpt lat="40.0712247" lon="-105.2294371">
  <ele>1583.0</ele>
  <time>2026-08-28T17:49:53Z</time>
  <course>300.31</course>
  <speed>2.33</speed>
  <fix>3d</fix>
</trkpt>
<trkpt lat="40.0712296" lon="-105.229448">
  <ele>1583.01</ele>
  <time>2026-08-28T17:49:53Z</time>
  <course>300.71</course>
  <speed>2.737480593538519</speed>
  <fix>3d</fix>
</trkpt>
<trkpt lat="40.0712269" lon="-105.2294421">
  <ele>1583.0</ele>
  <time>2026-08-28T17:49:53Z</time>
  <course>300.03</course>
  <speed>2.53</speed>
  <fix>3d</fix>
</trkpt>
<trkpt lat="40.0712309" lon="-105.2294509">
  <ele>1583.01</ele>
  <time>2026-08-28T17:49:53Z</time>
  <course>300.53</course>
  <speed>2.8404225037835484</speed>
  <fix>3d</fix>
</trkpt>
<trkpt lat="40.0712269" lon="-105.2294421">
  <ele>1583.0</ele>
  <time>2026-08-28T17:49:53Z</time>
  <course>300.03</course>
  <speed>2.53</speed>
  <fix>3d</fix>
</trkpt>
<trkpt lat="40.0712321" lon="-105.2294539">
  <ele>1583.01</ele>
  <time>2026-08-28T17:49:53Z</time>
  <course>300.34</course>
  <speed>2.938383909566617</speed>
  <fix>3d</fix>
</trkpt>
<trkpt lat="40.0712293" lon="-105.2294474">
  <ele>1583.0</ele>
  <time>2026-08-28T17:49:53Z</time>
  <course>299.69</course>
  <speed>2.73</speed>
  <fix>3d</fix>
</trkpt>
<trkpt lat="40.0712335" lon="-105.2294569">
  <ele>1583.0</ele>
  <time>2026-08-28T17:49:53Z</time>
  <course>300.15</course>
  <speed>3.0363794229311987</speed>
  <fix>3d</fix>
</trkpt>
<trkpt lat="40.0712293" lon="-105.2294474">
  <ele>1583.0</ele>
  <time>2026-08-28T17:49:53Z</time>
  <course>299.69</course>
  <speed>2.73</speed>
  <fix>3d</fix>
</trkpt>
<trkpt lat="40.0712348" lon="-105.2294601">
  <ele>1583.0</ele>
  <time>2026-08-28T17:49:54Z</time>
  <course>299.97</course>
  <speed>3.134405844813336</speed>
  <fix>3d</fix>
</trkpt>
<trkpt lat="40.0712318" lon="-105.2294532">
  <ele>1583.0</ele>
  <time>2026-08-28T17:49:54Z</time>
  <course>299.32</course>
  <speed>2.93</speed>
  <fix>3d</fix>
</trkpt>
<trkpt lat="40.0712362" lon="-105.2294634">
  <ele>1583.0</ele>
  <time>2026-08-28T17:49:54Z</time>
  <course>299.79</course>
  <speed>3.2411880537852165</speed>
  <fix>3d</fix>
</trkpt>
<trkpt lat="40.0712344" lon="-105.2294594">
  <ele>1583.0</ele>
  <time>2026-08-28T17:49:54Z</time>
  <course>298.95</course>
  <speed>3.13</speed>
  <fix>3d</fix>
</trkpt>
<trkpt lat="40.0712377" lon="-105.2294668">
  <ele>1582.99</ele>
  <time>2026-08-28T17:49:54Z</time>
  <course>299.61</course>
  <speed>3.339281359813815</speed>
  <fix>3d</fix>
</trkpt>
<trkpt lat="40.0712344" lon="-105.2294594">
  <ele>1583.0</ele>
  <time>2026-08-28T17:49:54Z</time>
  <course>298.95</course>
  <speed>3.13</speed>
  <fix>3d</fix>
</trkpt>
<trkpt lat="40.0712391" lon="-105.2294703">
  <ele>1582.99</ele>
  <time>2026-08-28T17:49:54Z</time>
  <course>299.43</course>
  <speed>3.437397271192261</speed>
  <fix>3d</fix>
</trkpt>
<trkpt lat="40.0712372" lon="-105.2294661">
  <ele>1583.0</ele>
  <time>2026-08-28T17:49:54Z</time>
  <course>298.6</course>
  <speed>3.33</speed>
  <fix>3d</fix>
</trkpt>
<trkpt lat="40.0712406" lon="-105.2294739">
  <ele>1582.99</ele>
  <time>2026-08-28T17:49:54Z</time>
  <course>299.24</course>
  <speed>3.5395197414338573</speed>
  <fix>3d</fix>
</trkpt>
<trkpt lat="40.0712372" lon="-105.2294661">
  <ele>1583.0</ele>
  <time>2026-08-28T17:49:54Z</time>
  <course>298.6</course>
  <speed>3.33</speed>
  <fix>3d</fix>
</trkpt>
<trkpt lat="40.0712422" lon="-105.2294777">
  <ele>1582.99</ele>
  <time>2026-08-28T17:49:54Z</time>
  <course>299.05</course>
  <speed>3.637705320665763</speed>
  <fix>3d</fix>
</trkpt>
<trkpt lat="40.0712402" lon="-105.2294732">
  <ele>1583.0</ele>
  <time>2026-08-28T17:49:54Z</time>
  <course>298.22</course>
  <speed>3.52</speed>
  <fix>3d</fix>
</trkpt>
<trkpt lat="40.0712437" lon="-105.2294816">
  <ele>1582.99</ele>
  <time>2026-08-28T17:49:54Z</time>
  <course>298.85</course>
  <speed>3.735906851087163</speed>
  <fix>3d</fix>
</trkpt>
<trkpt lat="40.0712402" lon="-105.2294732">
  <ele>1583.0</ele>
  <time>2026-08-28T17:49:54Z</time>
  <course>298.22</course>
  <speed>3.52</speed>
  <fix>3d</fix>
</trkpt>
<trkpt lat="40.0712453" lon="-105.2294855">
  <ele>1582.99</ele>
  <time>2026-08-28T17:49:54Z</time>
  <course>298.66</course>
  <speed>3.8382417849843695</speed>
  <fix>3d</fix>
</trkpt>
<trkpt lat="40.0712432" lon="-105.2294807">
  <ele>1583.0</ele>
  <time>2026-08-28T17:49:54Z</time>
  <course>297.84</course>
  <speed>3.72</speed>
  <fix>3d</fix>
</trkpt>
<trkpt lat="40.071247" lon="-105.2294897">
  <ele>1582.99</ele>
  <time>2026-08-28T17:49:54Z</time>
  <course>298.5</course>
  <speed>3.936495903719449</speed>
  <fix>3d</fix>
</trkpt>
<trkpt lat="40.0712432" lon="-105.2294807">
  <ele>1583.0</ele>
  <time>2026-08-28T17:49:54Z</time>
  <course>297.84</course>
  <speed>3.72</speed>
  <fix>3d</fix>
</trkpt>
<trkpt lat="40.0712487" lon="-105.2294939">
  <ele>1582.99</ele>
  <time>2026-08-28T17:49:54Z</time>
  <course>298.34</course>
  <speed>4.0301116609840975</speed>
  <fix>3d</fix>
</trkpt>
<trkpt lat="40.0712464" lon="-105.2294886">
  <ele>1583.0</ele>
  <time>2026-08-28T17:49:54Z</time>
  <course>297.49</course>
  <speed>3.91</speed>
  <fix>3d</fix>
</trkpt>
<trkpt lat="40.0712504" lon="-105.2294982">
  <ele>1582.99</ele>
  <time>2026-08-28T17:49:54Z</time>
  <course>298.18</course>
  <speed>4.128401627748928</speed>
  <fix>3d</fix>
</trkpt>
<trkpt lat="40.0712464" lon="-105.2294886">
  <ele>1583.0</ele>
  <time>2026-08-28T17:49:54Z</time>
  <course>297.49</course>
  <speed>3.91</speed>
  <fix>3d</fix>
</trkpt>
<trkpt lat="40.0712521" lon="-105.2295026">
  <ele>1582.99</ele>
  <time>2026-08-28T17:49:54Z</time>
  <course>298.01</course>
  <speed>4.222096635559163</speed>
  <fix>3d</fix>
</trkpt>
<trkpt lat="40.0712497" lon="-105.229497">
  <ele>1583.0</ele>
  <time>2026-08-28T17:49:54Z</time>
  <course>297.16</course>
  <speed>4.1</speed>
  <fix>3d</fix>
</trkpt>
<trkpt lat="40.0712539" lon="-105.2295071">
  <ele>1582.99</ele>
  <time>2026-08-28T17:49:54Z</time>
  <course>297.83</course>
  <speed>4.324742766916895</speed>
  <fix>3d</fix>
</trkpt>
<trkpt lat="40.0712497" lon="-105.229497">
  <ele>1583.0</ele>
  <time>2026-08-28T17:49:54Z</time>
  <course>297.16</course>
  <speed>4.1</speed>
  <fix>3d</fix>
</trkpt>
<trkpt lat="40.0712556" lon="-105.2295117">
  <ele>1582.99</ele>
  <time>2026-08-28T17:49:54Z</time>
  <course>297.65</course>
  <speed>4.423087157178796</speed>
  <fix>3d</fix>
</trkpt>
<trkpt lat="40.0712532" lon="-105.2295058">
  <ele>1583.0</ele>
  <time>2026-08-28T17:49:54Z</time>
  <course>296.82</course>
  <speed>4.29</speed>
  <fix>3d</fix>
</trkpt>
<trkpt lat="40.0712574" lon="-105.2295165">
  <ele>1582.99</ele>
  <time>2026-08-28T17:49:54Z</time>
  <course>297.51</course>
  <speed>4.516912662427734</speed>
  <fix>3d</fix>
</trkpt>
<trkpt lat="40.0712532" lon="-105.2295058">
  <ele>1583.0</ele>
  <time>2026-08-28T17:49:54Z</time>
  <course>296.82</course>
  <speed>4.29</speed>
  <fix>3d</fix>
</trkpt>
<trkpt lat="40.0712593" lon="-105.2295213">
  <ele>1582.99</ele>
  <time>2026-08-28T17:49:54Z</time>
  <course>297.36</course>
  <speed>4.610780844932885</speed>
  <fix>3d</fix>
</trkpt>
<trkpt lat="40.0712532" lon="-105.2295058">
  <ele>1583.0</ele>
  <time>2026-08-28T17:49:54Z</time>
  <course>296.82</course>
  <speed>4.29</speed>
  <fix>3d</fix>
</trkpt>
<trkpt lat="40.0712611" lon="-105.2295262">
  <ele>1582.99</ele>
  <time>2026-08-28T17:49:54Z</time>
  <course>297.23</course>
  <speed>4.695742752749558</speed>
  <fix>3d</fix>
</trkpt>
<trkpt lat="40.0712567" lon="-105.229515">
  <ele>1583.0</ele>
  <time>2026-08-28T17:49:54Z</time>
  <course>296.5</course>
  <speed>4.48</speed>
  <fix>3d</fix>
</trkpt>
<trkpt lat="40.071263" lon="-105.2295311">
  <ele>1582.99</ele>
  <time>2026-08-28T17:49:54Z</time>
  <course>297.1</course>
  <speed>4.789676398254897</speed>
  <fix>3d</fix>
</trkpt>
<trkpt lat="40.0712567" lon="-105.229515">
  <ele>1583.0</ele>
  <time>2026-08-28T17:49:54Z</time>
  <course>296.5</course>
  <speed>4.48</speed>
  <fix>3d</fix>
</trkpt>
<trkpt lat="40.0712649" lon="-105.2295362">
  <ele>1582.99</ele>
  <time>2026-08-28T17:49:54Z</time>
  <course>296.97</course>
  <speed>4.874679476642542</speed>
  <fix>3d</fix>
</trkpt>
<trkpt lat="40.0712604" lon="-105.2295246">
  <ele>1583.0</ele>
  <time>2026-08-28T17:49:54Z</time>
  <course>296.23</course>
  <speed>4.67</speed>
  <fix>3d</fix>
</trkpt>
<trkpt lat="40.0712668" lon="-105.2295414">
  <ele>1582.99</ele>
  <time>2026-08-28T17:49:54Z</time>
  <course>296.86</course>
  <speed>4.959697571425097</speed>
  <fix>3d</fix>
</trkpt>
<trkpt lat="40.0712604" lon="-105.2295246">
  <ele>1583.0</ele>
  <time>2026-08-28T17:49:54Z</time>
  <course>296.23</course>
  <speed>4.67</speed>
  <fix>3d</fix>
</trkpt>
<trkpt lat="40.0712688" lon="-105.2295466">
  <ele>1582.99</ele>
  <time>2026-08-28T17:49:54Z</time>
  <course>296.79</course>
  <speed>5.044729923395305</speed>
  <fix>3d</fix>
</trkpt>
<trkpt lat="40.0712642" lon="-105.2295347">
  <ele>1583.0</ele>
  <time>2026-08-28T17:49:54Z</time>
  <course>295.99</course>
  <speed>4.85</speed>
  <fix>3d</fix>
</trkpt>
<trkpt lat="40.0712708" lon="-105.2295519">
  <ele>1583.0</ele>
  <time>2026-08-28T17:49:54Z</time>
  <course>296.71</course>
  <speed>5.111809855618654</speed>
  <fix>3d</fix>
</trkpt>
<trkpt lat="40.0712642" lon="-105.2295347">
  <ele>1583.0</ele>
  <time>2026-08-28T17:49:54Z</time>
  <course>295.99</course>
  <speed>4.85</speed>
  <fix>3d</fix>
</trkpt>
<trkpt lat="40.0712728" lon="-105.2295574">
  <ele>1583.0</ele>
  <time>2026-08-28T17:49:54Z</time>
  <course>296.64</course>
  <speed>5.174495144456124</speed>
  <fix>3d</fix>
</trkpt>
<trkpt lat="40.071268" lon="-105.2295451">
  <ele>1583.0</ele>
  <time>2026-08-28T17:49:54Z</time>
  <course>295.8</course>
  <speed>5.02</speed>
  <fix>3d</fix>
</trkpt>
<trkpt lat="40.0712748" lon="-105.2295628">
  <ele>1583.0</ele>
  <time>2026-08-28T17:49:54Z</time>
  <course>296.57</course>
  <speed>5.223830012548265</speed>
  <fix>3d</fix>
</trkpt>
<trkpt lat="40.0712719" lon="-105.2295559">
  <ele>1583.0</ele>
  <time>2026-08-28T17:49:54Z</time>
  <course>295.66</course>
  <speed>5.15</speed>
  <fix>3d</fix>
</trkpt>
<trkpt lat="40.0712768" lon="-105.2295684">
  <ele>1583.0</ele>
  <time>2026-08-28T17:49:54Z</time>
  <course>296.49</course>
  <speed>5.277546778570513</speed>
  <fix>3d</fix>
</trkpt>
<trkpt lat="40.0712719" lon="-105.2295559">
  <ele>1583.0</ele>
  <time>2026-08-28T17:49:54Z</time>
  <course>295.66</course>
  <speed>5.15</speed>
  <fix>3d</fix>
</trkpt>
<trkpt lat="40.0712788" lon="-105.229574">
  <ele>1583.0</ele>
  <time>2026-08-28T17:49:54Z</time>
  <course>296.42</course>
  <speed>5.304564072569961</speed>
  <fix>3d</fix>
</trkpt>
<trkpt lat="40.071276" lon="-105.229567">
  <ele>1583.0</ele>
  <time>2026-08-28T17:49:54Z</time>
  <course>295.52</course>
  <speed>5.26</speed>
  <fix>3d</fix>
</trkpt>
<trkpt lat="40.0712809" lon="-105.2295797">
  <ele>1583.0</ele>
  <time>2026-08-28T17:49:54Z</time>
  <course>296.35</course>
  <speed>5.335934782210143</speed>
  <fix>3d</fix>
</trkpt>
<trkpt lat="40.071276" lon="-105.229567">
  <ele>1583.0</ele>
  <time>2026-08-28T17:49:54Z</time>
  <course>295.52</course>
  <speed>5.26</speed>
  <fix>3d</fix>
</trkpt>
<trkpt lat="40.0712829" lon="-105.2295853">
  <ele>1583.01</ele>
  <time>2026-08-28T17:49:54Z</time>
  <course>296.27</course>
  <speed>5.344950888455384</speed>
  <fix>3d</fix>
</trkpt>
<trkpt lat="40.0712801" lon="-105.2295782">
  <ele>1583.0</ele>
  <time>2026-08-28T17:49:54Z</time>
  <course>295.38</course>
  <speed>5.31</speed>
  <fix>3d</fix>
</trkpt>
<trkpt lat="40.071285" lon="-105.2295911">
  <ele>1583.01</ele>
  <time>2026-08-28T17:49:54Z</time>
  <course>296.2</course>
  <speed>5.349663540821983</speed>
  <fix>3d</fix>
</trkpt>
<trkpt lat="40.0712801" lon="-105.2295782">
  <ele>1583.0</ele>
  <time>2026-08-28T17:49:54Z</time>
  <course>295.38</course>
  <speed>5.31</speed>
  <fix>3d</fix>
</trkpt>
<trkpt lat="40.0712871" lon="-105.2295968">
  <ele>1583.01</ele>
  <time>2026-08-28T17:49:54Z</time>
  <course>296.13</course>
  <speed>5.336337695461186</speed>
  <fix>3d</fix>
</trkpt>
<trkpt lat="40.0712842" lon="-105.2295895">
  <ele>1583.0</ele>
  <time>2026-08-28T17:49:54Z</time>
  <course>295.23</course>
  <speed>5.33</speed>
  <fix>3d</fix>
</trkpt>
<trkpt lat="40.0712891" lon="-105.2296025">
  <ele>1583.01</ele>
  <time>2026-08-28T17:49:54Z</time>
  <course>296.07</course>
  <speed>5.332054013229798</speed>
  <fix>3d</fix>
</trkpt>
<trkpt lat="40.0712842" lon="-105.2295895">
  <ele>1583.0</ele>
  <time>2026-08-28T17:49:54Z</time>
  <course>295.23</course>
  <speed>5.33</speed>
  <fix>3d</fix>
</trkpt>
<trkpt lat="40.0712911" lon="-105.2296082">
  <ele>1583.01</ele>
  <time>2026-08-28T17:49:54Z</time>
  <course>296.01</course>
  <speed>5.305431179461289</speed>
  <fix>3d</fix>
</trkpt>
<trkpt lat="40.0712883" lon="-105.2296008">
  <ele>1583.0</ele>
  <time>2026-08-28T17:49:54Z</time>
  <course>295.1</course>
  <speed>5.31</speed>
  <fix>3d</fix>
</trkpt>
<trkpt lat="40.0712931" lon="-105.2296139">
  <ele>1583.01</ele>
  <time>2026-08-28T17:49:54Z</time>
  <course>295.95</course>
  <speed>5.278825626974242</speed>
  <fix>3d</fix>
</trkpt>
<trkpt lat="40.0712883" lon="-105.2296008">
  <ele>1583.0</ele>
  <time>2026-08-28T17:49:54Z</time>
  <course>295.1</course>
  <speed>5.31</speed>
  <fix>3d</fix>
</trkpt>
<trkpt lat="40.0712951" lon="-105.2296195">
  <ele>1583.01</ele>
  <time>2026-08-28T17:49:54Z</time>
  <course>295.91</course>
  <speed>5.2474184128960015</speed>
  <fix>3d</fix>
</trkpt>
<trkpt lat="40.0712922" lon="-105.2296121">
  <ele>1583.0</ele>
  <time>2026-08-28T17:49:54Z</time>
  <course>295.0</course>
  <speed>5.27</speed>
  <fix>3d</fix>
</trkpt>
<trkpt lat="40.0712971" lon="-105.2296251">
  <ele>1583.01</ele>
  <time>2026-08-28T17:49:54Z</time>
  <course>295.86</course>
  <speed>5.220823689802213</speed>
  <fix>3d</fix>
</trkpt>
<trkpt lat="40.0712922" lon="-105.2296121">
  <ele>1583.0</ele>
  <time>2026-08-28T17:49:54Z</time>
  <course>295.0</course>
  <speed>5.27</speed>
  <fix>3d</fix>
</trkpt>
<trkpt lat="40.0712991" lon="-105.2296307">
  <ele>1583.01</ele>
  <time>2026-08-28T17:49:54Z</time>
  <course>295.81</course>
  <speed>5.185180806876458</speed>
  <fix>3d</fix>
</trkpt>
<trkpt lat="40.0712963" lon="-105.2296232">
  <ele>1583.0</ele>
  <time>2026-08-28T17:49:54Z</time>
  <course>294.9</course>
  <speed>5.21</speed>
  <fix>3d</fix>
</trkpt>
<trkpt lat="40.071301" lon="-105.2296362">
  <ele>1583.01</ele>
  <time>2026-08-28T17:49:54Z</time>
  <course>295.77</course>
  <speed>5.149543669103118</speed>
  <fix>3d</fix>
</trkpt>
<trkpt lat="40.0712963" lon="-105.2296232">
  <ele>1583.0</ele>
  <time>2026-08-28T17:49:54Z</time>
  <course>294.9</course>
  <speed>5.21</speed>
  <fix>3d</fix>
</trkpt>
<trkpt lat="40.071303" lon="-105.2296417">
  <ele>1583.01</ele>
  <time>2026-08-28T17:49:54Z</time>
  <course>295.72</course>
  <speed>5.1139123965903055</speed>
  <fix>3d</fix>
</trkpt>
<trkpt lat="40.0712963" lon="-105.2296232">
  <ele>1583.0</ele>
  <time>2026-08-28T17:49:54Z</time>
  <course>294.9</course>
  <speed>5.21</speed>
  <fix>3d</fix>
</trkpt>
<trkpt lat="40.0713048" lon="-105.2296471">
  <ele>1583.01</ele>
  <time>2026-08-28T17:49:54Z</time>
  <course>295.67</course>
  <speed>5.078287112796991</speed>
  <fix>3d</fix>
</trkpt>
<trkpt lat="40.0713002" lon="-105.2296343">
  <ele>1583.0</ele>
  <time>2026-08-28T17:49:54Z</time>
  <course>294.81</course>
  <speed>5.14</speed>
  <fix>3d</fix>
</trkpt>
<trkpt lat="40.0713067" lon="-105.2296525">
  <ele>1583.01</ele>
  <time>2026-08-28T17:49:54Z</time>
  <course>295.63</course>
  <speed>5.042667944649935</speed>
  <fix>3d</fix>
</trkpt>
<trkpt lat="40.0713002" lon="-105.2296343">
  <ele>1583.0</ele>
  <time>2026-08-28T17:49:54Z</time>
  <course>294.81</course>
  <speed>5.14</speed>
  <fix>3d</fix>
</trkpt>
<trkpt lat="40.0713086" lon="-105.2296578">
  <ele>1583.01</ele>
  <time>2026-08-28T17:49:54Z</time>
  <course>295.59</course>
  <speed>5.007055022665519</speed>
  <fix>3d</fix>
</trkpt>
<trkpt lat="40.0713041" lon="-105.2296451">
  <ele>1583.0</ele>
  <time>2026-08-28T17:49:54Z</time>
  <course>294.72</course>
  <speed>5.07</speed>
  <fix>3d</fix>
</trkpt>
<trkpt lat="40.0713104" lon="-105.229663">
  <ele>1583.01</ele>
  <time>2026-08-28T17:49:54Z</time>
  <course>295.53</course>
  <speed>4.971448481076718</speed>
  <fix>3d</fix>
</trkpt>
<trkpt lat="40.0713041" lon="-105.2296451">
  <ele>1583.0</ele>
  <time>2026-08-28T17:49:54Z</time>
  <course>294.72</course>
  <speed>5.07</speed>
  <fix>3d</fix>
</trkpt>
<trkpt lat="40.0713122" lon="-105.2296683">
  <ele>1583.01</ele>
  <time>2026-08-28T17:49:54Z</time>
  <course>295.49</course>
  <speed>4.949100928451551</speed>
  <fix>3d</fix>
</trkpt>
<trkpt lat="40.0713078" lon="-105.2296559">
  <ele>1583.0</ele>
  <time>2026-08-28T17:49:54Z</time>
  <course>294.62</course>
  <speed>5.01</speed>
  <fix>3d</fix>
</trkpt>
<trkpt lat="40.0713141" lon="-105.2296735">
  <ele>1583.0</ele>
  <time>2026-08-28T17:49:54Z</time>
  <course>295.44</course>
  <speed>4.922600938528331</speed>
  <fix>3d</fix>
</trkpt>
<trkpt lat="40.0713115" lon="-105.2296666">
  <ele>1583.0</ele>
  <time>2026-08-28T17:49:54Z</time>
  <course>294.52</course>
  <speed>4.96</speed>
  <fix>3d</fix>
</trkpt>
<trkpt lat="40.0713159" lon="-105.2296788">
  <ele>1583.0</ele>
  <time>2026-08-28T17:49:54Z</time>
  <course>295.41</course>
  <speed>4.900255095400647</speed>
  <fix>3d</fix>
</trkpt>
<trkpt lat="40.0713115" lon="-105.2296666">
  <ele>1583.0</ele>
  <time>2026-08-28T17:49:54Z</time>
  <course>294.52</course>
  <speed>4.96</speed>
  <fix>3d</fix>
</trkpt>
<trkpt lat="40.0713177" lon="-105.229684">
  <ele>1583.0</ele>
  <time>2026-08-28T17:49:54Z</time>
  <course>295.4</course>
  <speed>4.8870134028872885</speed>
  <fix>3d</fix>
</trkpt>
<trkpt lat="40.0713152" lon="-105.2296771">
  <ele>1583.0</ele>
  <time>2026-08-28T17:49:54Z</time>
  <course>294.46</course>
  <speed>4.92</speed>
  <fix>3d</fix>
</trkpt>
<trkpt lat="40.0713195" lon="-105.2296892">
  <ele>1583.0</ele>
  <time>2026-08-28T17:49:54Z</time>
  <course>295.4</course>
  <speed>4.868808889245911</speed>
  <fix>3d</fix>
</trkpt>
<trkpt lat="40.0713152" lon="-105.2296771">
  <ele>1583.0</ele>
  <time>2026-08-28T17:49:54Z</time>
  <course>294.46</course>
  <speed>4.92</speed>
  <fix>3d</fix>
</trkpt>
<trkpt lat="40.0713213" lon="-105.2296944">
  <ele>1583.0</ele>
  <time>2026-08-28T17:49:54Z</time>
  <course>295.41</course>
  <speed>4.846462627525359</speed>
  <fix>3d</fix>
</trkpt>
<trkpt lat="40.0713189" lon="-105.2296876">
  <ele>1583.0</ele>
  <time>2026-08-28T17:49:54Z</time>
  <course>294.44</course>
  <speed>4.89</speed>
  <fix>3d</fix>
</trkpt>
<trkpt lat="40.0713231" lon="-105.2296996">
  <ele>1583.0</ele>
  <time>2026-08-28T17:49:54Z</time>
  <course>295.41</course>
  <speed>4.824116499422459</speed>
  <fix>3d</fix>
</trkpt>
<trkpt lat="40.0713189" lon="-105.2296876">
  <ele>1583.0</ele>
  <time>2026-08-28T17:49:54Z</time>
  <course>294.44</course>
  <speed>4.89</speed>
  <fix>3d</fix>
</trkpt>
<trkpt lat="40.0713249" lon="-105.2297048">
  <ele>1582.99</ele>
  <time>2026-08-28T17:49:54Z</time>
  <course>295.41</course>
  <speed>4.801770506802673</speed>
  <fix>3d</fix>
</trkpt>
<trkpt lat="40.0713225" lon="-105.229698">
  <ele>1583.0</ele>
  <time>2026-08-28T17:49:54Z</time>
  <course>294.44</course>
  <speed>4.85</speed>
  <fix>3d</fix>
</trkpt>
<trkpt lat="40.0713267" lon="-105.22971">
  <ele>1583.0</ele>
  <time>2026-08-28T17:49:54Z</time>
  <course>295.41</course>
  <speed>4.766182959140364</speed>
  <fix>3d</fix>
</trkpt>
<trkpt lat="40.0713225" lon="-105.229698">
  <ele>1583.0</ele>
  <time>2026-08-28T17:49:54Z</time>
  <course>294.44</course>
  <speed>4.85</speed>
  <fix>3d</fix>
</trkpt>
<trkpt lat="40.0713285" lon="-105.2297151">
  <ele>1583.0</ele>
  <time>2026-08-28T17:49:54Z</time>
  <course>295.41</course>
  <speed>4.7256322328340366</speed>
  <fix>3d</fix>
</trkpt>
<trkpt lat="40.0713261" lon="-105.2297083">
  <ele>1583.0</ele>
  <time>2026-08-28T17:49:54Z</time>
  <course>294.44</course>
  <speed>4.79</speed>
  <fix>3d</fix>
</trkpt>
<trkpt lat="40.0713302" lon="-105.2297201">
  <ele>1583.0</ele>
  <time>2026-08-28T17:49:54Z</time>
  <course>295.42</course>
  <speed>4.667697505194611</speed>
  <fix>3d</fix>
</trkpt>
<trkpt lat="40.0713261" lon="-105.2297083">
  <ele>1583.0</ele>
  <time>2026-08-28T17:49:54Z</time>
  <course>294.44</course>
  <speed>4.79</speed>
  <fix>3d</fix>
</trkpt>
<trkpt lat="40.071332" lon="-105.2297251">
  <ele>1583.0</ele>
  <time>2026-08-28T17:49:54Z</time>
  <course>295.42</course>
  <speed>4.613902903182944</speed>
  <fix>3d</fix>
</trkpt>
<trkpt lat="40.0713296" lon="-105.2297185">
  <ele>1583.0</ele>
  <time>2026-08-28T17:49:54Z</time>
  <course>294.44</course>
  <speed>4.69</speed>
  <fix>3d</fix>
</trkpt>
<trkpt lat="40.0713337" lon="-105.22973">
  <ele>1583.01</ele>
  <time>2026-08-28T17:49:54Z</time>
  <course>295.42</course>
  <speed>4.537763766438266</speed>
  <fix>3d</fix>
</trkpt>
<trkpt lat="40.0713296" lon="-105.2297185">
  <ele>1583.0</ele>
  <time>2026-08-28T17:49:54Z</time>
  <course>294.44</course>
  <speed>4.69</speed>
  <fix>3d</fix>
</trkpt>
<trkpt lat="40.0713353" lon="-105.2297349">
  <ele>1583.01</ele>
  <time>2026-08-28T17:49:54Z</time>
  <course>295.42</course>
  <speed>4.457488081868531</speed>
  <fix>3d</fix>
</trkpt>
<trkpt lat="40.071333" lon="-105.2297284">
  <ele>1583.0</ele>
  <time>2026-08-28T17:49:54Z</time>
  <course>294.44</course>
  <speed>4.56</speed>
  <fix>3d</fix>
</trkpt>
<trkpt lat="40.071337" lon="-105.2297396">
  <ele>1583.01</ele>
  <time>2026-08-28T17:49:54Z</time>
  <course>295.43</course>
  <speed>4.36314107037579</speed>
  <fix>3d</fix>
</trkpt>
<trkpt lat="40.071333" lon="-105.2297284">
  <ele>1583.0</ele>
  <time>2026-08-28T17:49:54Z</time>
  <course>294.44</course>
  <speed>4.56</speed>
  <fix>3d</fix>
</trkpt>
<trkpt lat="40.0713386" lon="-105.2297442">
  <ele>1583.01</ele>
  <time>2026-08-28T17:49:54Z</time>
  <course>295.43</course>
  <speed>4.260516400625633</speed>
  <fix>3d</fix>
</trkpt>
<trkpt lat="40.071333" lon="-105.2297284">
  <ele>1583.0</ele>
  <time>2026-08-28T17:49:54Z</time>
  <course>294.44</course>
  <speed>4.56</speed>
  <fix>3d</fix>
</trkpt>
<trkpt lat="40.0713401" lon="-105.2297487">
  <ele>1583.01</ele>
  <time>2026-08-28T17:49:54Z</time>
  <course>295.43</course>
  <speed>4.162030754331352</speed>
  <fix>3d</fix>
</trkpt>
<trkpt lat="40.0713364" lon="-105.229738">
  <ele>1583.0</ele>
  <time>2026-08-28T17:49:54Z</time>
  <course>294.44</course>
  <speed>4.39</speed>
  <fix>3d</fix>
</trkpt>
<trkpt lat="40.0713417" lon="-105.2297531">
  <ele>1583.01</ele>
  <time>2026-08-28T17:49:54Z</time>
  <course>295.43</course>
  <speed>4.050308630215727</speed>
  <fix>3d</fix>
</trkpt>
<trkpt lat="40.0713364" lon="-105.229738">
  <ele>1583.0</ele>
  <time>2026-08-28T17:49:54Z</time>
  <course>294.44</course>
  <speed>4.39</speed>
  <fix>3d</fix>
</trkpt>
<trkpt lat="40.0713431" lon="-105.2297573">
  <ele>1583.0</ele>
  <time>2026-08-28T17:49:54Z</time>
  <course>295.43</course>
  <speed>3.929478336878828</speed>
  <fix>3d</fix>
</trkpt>
<trkpt lat="40.0713396" lon="-105.2297472">
  <ele>1583.0</ele>
  <time>2026-08-28T17:49:54Z</time>
  <course>294.44</course>
  <speed>4.19</speed>
  <fix>3d</fix>
</trkpt>
<trkpt lat="40.0713445" lon="-105.2297614">
  <ele>1583.0</ele>
  <time>2026-08-28T17:49:54Z</time>
  <course>295.43</course>
  <speed>3.808648054100037</speed>
  <fix>3d</fix>
</trkpt>
<trkpt lat="40.0713396" lon="-105.2297472">
  <ele>1583.0</ele>
  <time>2026-08-28T17:49:54Z</time>
  <course>294.44</course>
  <speed>4.19</speed>
  <fix>3d</fix>
</trkpt>
<trkpt lat="40.0713459" lon="-105.2297654">
  <ele>1583.0</ele>
  <time>2026-08-28T17:49:54Z</time>
  <course>295.44</course>
  <speed>3.687817782917155</speed>
  <fix>3d</fix>
</trkpt>
<trkpt lat="40.0713427" lon="-105.2297559">
  <ele>1583.0</ele>
  <time>2026-08-28T17:49:54Z</time>
  <course>294.44</course>
  <speed>3.97</speed>
  <fix>3d</fix>
</trkpt>
<trkpt lat="40.0713473" lon="-105.2297693">
  <ele>1583.0</ele>
  <time>2026-08-28T17:49:54Z</time>
  <course>295.44</course>
  <speed>3.566987524508601</speed>
  <fix>3d</fix>
</trkpt>
<trkpt lat="40.0713455" lon="-105.2297642">
  <ele>1583.0</ele>
  <time>2026-08-28T17:49:54Z</time>
  <course>294.44</course>
  <speed>3.74</speed>
  <fix>3d</fix>
</trkpt>
<trkpt lat="40.0713486" lon="-105.229773">
  <ele>1583.0</ele>
  <time>2026-08-28T17:49:54Z</time>
  <course>295.44</course>
  <speed>3.4370481521212355</speed>
  <fix>3d</fix>
</trkpt>
<trkpt lat="40.0713455" lon="-105.2297642">
  <ele>1583.0</ele>
  <time>2026-08-28T17:49:54Z</time>
  <course>294.44</course>
  <speed>3.74</speed>
  <fix>3d</fix>
</trkpt>
<trkpt lat="40.0713498" lon="-105.2297767">
  <ele>1583.0</ele>
  <time>2026-08-28T17:49:54Z</time>
  <course>295.44</course>
  <speed>3.312099032335839</speed>
  <fix>3d</fix>
</trkpt>
<trkpt lat="40.0713481" lon="-105.2297719">
  <ele>1583.0</ele>
  <time>2026-08-28T17:49:54Z</time>
  <course>294.44</course>
  <speed>3.5</speed>
  <fix>3d</fix>
</trkpt>
<trkpt lat="40.071351" lon="-105.2297801">
  <ele>1583.0</ele>
  <time>2026-08-28T17:49:54Z</time>
  <course>295.44</course>
  <speed>3.191269339933563</speed>
  <fix>3d</fix>
</trkpt>
<trkpt lat="40.0713481" lon="-105.2297719">
  <ele>1583.0</ele>
  <time>2026-08-28T17:49:54Z</time>
  <course>294.44</course>
  <speed>3.5</speed>
  <fix>3d</fix>
</trkpt>
<trkpt lat="40.0713522" lon="-105.2297835">
  <ele>1583.0</ele>
  <time>2026-08-28T17:49:54Z</time>
  <course>295.44</course>
  <speed>3.0704397079245833</speed>
  <fix>3d</fix>
</trkpt>
<trkpt lat="40.0713507" lon="-105.2297792">
  <ele>1583.0</ele>
  <time>2026-08-28T17:49:54Z</time>
  <course>294.44</course>
  <speed>3.25</speed>
  <fix>3d</fix>
</trkpt>
<trkpt lat="40.0713533" lon="-105.2297867">
  <ele>1583.0</ele>
  <time>2026-08-28T17:49:54Z</time>
  <course>295.45</course>
  <speed>2.9496101437308626</speed>
  <fix>3d</fix>
</trkpt>
<trkpt lat="40.0713507" lon="-105.2297792">
  <ele>1583.0</ele>
  <time>2026-08-28T17:49:54Z</time>
  <course>294.44</course>
  <speed>3.25</speed>
  <fix>3d</fix>
</trkpt>
<trkpt lat="40.0713544" lon="-105.2297899">
  <ele>1583.0</ele>
  <time>2026-08-28T17:49:54Z</time>
  <course>295.45</course>
  <speed>2.828780656042458</speed>
  <fix>3d</fix>
</trkpt>
<trkpt lat="40.071353" lon="-105.2297859">
  <ele>1583.0</ele>
  <time>2026-08-28T17:49:54Z</time>
  <course>294.44</course>
  <speed>3.01</speed>
  <fix>3d</fix>
</trkpt>
<trkpt lat="40.0713554" lon="-105.2297929">
  <ele>1583.0</ele>
  <time>2026-08-28T17:49:54Z</time>
  <course>295.45</course>
  <speed>2.7079512551004314</speed>
  <fix>3d</fix>
</trkpt>
<trkpt lat="40.071353" lon="-105.2297859">
  <ele>1583.0</ele>
  <time>2026-08-28T17:49:54Z</time>
  <course>294.44</course>
  <speed>3.01</speed>
  <fix>3d</fix>
</trkpt>
<trkpt lat="40.0713564" lon="-105.2297957">
  <ele>1583.0</ele>
  <time>2026-08-28T17:49:54Z</time>
  <course>295.46</course>
  <speed>2.587121953059036</speed>
  <fix>3d</fix>
</trkpt>
<trkpt lat="40.0713552" lon="-105.2297921">
  <ele>1583.0</ele>
  <time>2026-08-28T17:49:54Z</time>
  <course>294.44</course>
  <speed>2.78</speed>
  <fix>3d</fix>
</trkpt>
<trkpt lat="40.0713574" lon="-105.2297985">
  <ele>1583.0</ele>
  <time>2026-08-28T17:49:54Z</time>
  <course>295.49</course>
  <speed>2.466292764454374</speed>
  <fix>3d</fix>
</trkpt>
<trkpt lat="40.0713552" lon="-105.2297921">
  <ele>1583.0</ele>
  <time>2026-08-28T17:49:54Z</time>
  <course>294.44</course>
  <speed>2.78</speed>
  <fix>3d</fix>
</trkpt>
<trkpt lat="40.0713583" lon="-105.2298011">
  <ele>1583.0</ele>
  <time>2026-08-28T17:49:54Z</time>
  <course>295.53</course>
  <speed>2.3586860749154392</speed>
  <fix>3d</fix>
</trkpt>
<trkpt lat="40.0713572" lon="-105.2297978">
  <ele>1583.0</ele>
  <time>2026-08-28T17:49:54Z</time>
  <course>294.48</course>
  <speed>2.54</speed>
  <fix>3d</fix>
</trkpt>
<trkpt lat="40.0713591" lon="-105.2298036">
  <ele>1583.01</ele>
  <time>2026-08-28T17:49:54Z</time>
  <course>295.56</course>
  <speed>2.2378561169118982</speed>
  <fix>3d</fix>
</trkpt>
<trkpt lat="40.0713572" lon="-105.2297978">
  <ele>1583.0</ele>
  <time>2026-08-28T17:49:54Z</time>
  <course>294.48</course>
  <speed>2.54</speed>
  <fix>3d</fix>
</trkpt>
<trkpt lat="40.07136" lon="-105.229806">
  <ele>1583.01</ele>
  <time>2026-08-28T17:49:54Z</time>
  <course>295.59</course>
  <speed>2.1302582003128165</speed>
  <fix>3d</fix>
</trkpt>
<trkpt lat="40.071359" lon="-105.229803">
  <ele>1583.0</ele>
  <time>2026-08-28T17:49:54Z</time>
  <course>294.54</course>
  <speed>2.32</speed>
  <fix>3d</fix>
</trkpt>
<trkpt lat="40.0713608" lon="-105.2298082">
  <ele>1583.01</ele>
  <time>2026-08-28T17:49:54Z</time>
  <course>295.62</course>
  <speed>2.022671500763285</speed>
  <fix>3d</fix>
</trkpt>
<trkpt lat="40.071359" lon="-105.229803">
  <ele>1583.0</ele>
  <time>2026-08-28T17:49:54Z</time>
  <course>294.54</course>
  <speed>2.32</speed>
  <fix>3d</fix>
</trkpt>
<trkpt lat="40.0713615" lon="-105.2298104">
  <ele>1583.01</ele>
  <time>2026-08-28T17:49:54Z</time>
  <course>295.67</course>
  <speed>1.9200520826269272</speed>
  <fix>3d</fix>
</trkpt>
<trkpt lat="40.071359" lon="-105.229803">
  <ele>1583.0</ele>
  <time>2026-08-28T17:49:54Z</time>
  <course>294.54</course>
  <speed>2.32</speed>
  <fix>3d</fix>
</trkpt>
<trkpt lat="40.0713622" lon="-105.2298124">
  <ele>1583.02</ele>
  <time>2026-08-28T17:49:54Z</time>
  <course>295.72</course>
  <speed>1.8124568960391858</speed>
  <fix>3d</fix>
</trkpt>
<trkpt lat="40.0713607" lon="-105.2298077">
  <ele>1583.0</ele>
  <time>2026-08-28T17:49:54Z</time>
  <course>294.61</course>
  <speed>2.1</speed>
  <fix>3d</fix>
</trkpt>
<trkpt lat="40.0713629" lon="-105.2298143">
  <ele>1583.02</ele>
  <time>2026-08-28T17:49:54Z</time>
  <course>295.77</course>
  <speed>1.7048753620133055</speed>
  <fix>3d</fix>
</trkpt>
<trkpt lat="40.0713607" lon="-105.2298077">
  <ele>1583.0</ele>
  <time>2026-08-28T17:49:54Z</time>
  <course>294.61</course>
  <speed>2.1</speed>
  <fix>3d</fix>
</trkpt>
<trkpt lat="40.0713635" lon="-105.2298161">
  <ele>1583.02</ele>
  <time>2026-08-28T17:49:54Z</time>
  <course>295.84</course>
  <speed>1.6063934760823702</speed>
  <fix>3d</fix>
</trkpt>
<trkpt lat="40.0713621" lon="-105.229812">
  <ele>1583.0</ele>
  <time>2026-08-28T17:49:54Z</time>
  <course>294.7</course>
  <speed>1.89</speed>
  <fix>3d</fix>
</trkpt>
<trkpt lat="40.0713641" lon="-105.2298178">
  <ele>1583.02</ele>
  <time>2026-08-28T17:49:54Z</time>
  <course>295.9</course>
  <speed>1.5079124643028852</speed>
  <fix>3d</fix>
</trkpt>
<trkpt lat="40.0713621" lon="-105.229812">
  <ele>1583.0</ele>
  <time>2026-08-28T17:49:54Z</time>
  <course>294.7</course>
  <speed>1.89</speed>
  <fix>3d</fix>
</trkpt>
<trkpt lat="40.0713647" lon="-105.2298193">
  <ele>1583.02</ele>
  <time>2026-08-28T17:49:54Z</time>
  <course>295.98</course>
  <speed>1.4003570973148243</speed>
  <fix>3d</fix>
</trkpt>
<trkpt lat="40.0713635" lon="-105.2298157">
  <ele>1583.0</ele>
  <time>2026-08-28T17:49:54Z</time>
  <course>294.82</course>
  <speed>1.69</speed>
  <fix>3d</fix>
</trkpt>
<trkpt lat="40.0713652" lon="-105.2298208">
  <ele>1583.02</ele>
  <time>2026-08-28T17:49:54Z</time>
  <course>296.07</course>
  <speed>1.3018832512940628</speed>
  <fix>3d</fix>
</trkpt>
<trkpt lat="40.0713635" lon="-105.2298157">
  <ele>1583.0</ele>
  <time>2026-08-28T17:49:54Z</time>
  <course>294.82</course>
  <speed>1.69</speed>
  <fix>3d</fix>
</trkpt>
<trkpt lat="40.0713657" lon="-105.2298222">
  <ele>1583.02</ele>
  <time>2026-08-28T17:49:54Z</time>
  <course>296.18</course>
  <speed>1.2034118164618461</speed>
  <fix>3d</fix>
</trkpt>
<trkpt lat="40.0713647" lon="-105.2298192">
  <ele>1583.0</ele>
  <time>2026-08-28T17:49:54Z</time>
  <course>294.96</course>
  <speed>1.49</speed>
  <fix>3d</fix>
</trkpt>
<trkpt lat="40.0713662" lon="-105.2298234">
  <ele>1583.02</ele>
  <time>2026-08-28T17:49:54Z</time>
  <course>296.3</course>
  <speed>1.104943437466371</speed>
  <fix>3d</fix>
</trkpt>
<trkpt lat="40.0713657" lon="-105.2298221">
  <ele>1583.0</ele>
  <time>2026-08-28T17:49:54Z</time>
  <course>295.16</course>
  <speed>1.29</speed>
  <fix>3d</fix>
</trkpt>
<trkpt lat="40.0713666" lon="-105.2298246">
  <ele>1583.02</ele>
  <time>2026-08-28T17:49:54Z</time>
  <course>296.44</course>
  <speed>1.0107917688624102</speed>
  <fix>3d</fix>
</trkpt>
<trkpt lat="40.0713657" lon="-105.2298221">
  <ele>1583.0</ele>
  <time>2026-08-28T17:49:54Z</time>
  <course>295.16</course>
  <speed>1.29</speed>
  <fix>3d</fix>
</trkpt>
<trkpt lat="40.071367" lon="-105.2298256">
  <ele>1583.03</ele>
  <time>2026-08-28T17:49:54Z</time>
  <course>296.61</course>
  <speed>0.9123595782365634</speed>
  <fix>3d</fix>
</trkpt>
<trkpt lat="40.0713667" lon="-105.2298247">
  <ele>1583.0</ele>
  <time>2026-08-28T17:49:54Z</time>
  <course>295.42</course>
  <speed>1.09</speed>
  <fix>3d</fix>
</trkpt>
<trkpt lat="40.0713674" lon="-105.2298266">
  <ele>1583.03</ele>
  <time>2026-08-28T17:49:54Z</time>
  <course>296.79</course>
  <speed>0.8139410298049853</speed>
  <fix>3d</fix>
</trkpt>
<trkpt lat="40.0713667" lon="-105.2298247">
  <ele>1583.0</ele>
  <time>2026-08-28T17:49:54Z</time>
  <course>295.42</course>
  <speed>1.09</speed>
  <fix>3d</fix>
</trkpt>
<trkpt lat="40.0713677" lon="-105.2298275">
  <ele>1583.03</ele>
  <time>2026-08-28T17:49:54Z</time>
  <course>296.96</course>
  <speed>0.7244998274671982</speed>
  <fix>3d</fix>
</trkpt>
<trkpt lat="40.0713674" lon="-105.2298268">
  <ele>1583.0</ele>
  <time>2026-08-28T17:49:54Z</time>
  <course>295.74</course>
  <speed>0.9</speed>
  <fix>3d</fix>
</trkpt>
<trkpt lat="40.071368" lon="-105.2298283">
  <ele>1583.03</ele>
  <time>2026-08-28T17:49:54Z</time>
  <course>297.14</course>
  <speed>0.6260990336999411</speed>
  <fix>3d</fix>
</trkpt>
<trkpt lat="40.0713674" lon="-105.2298268">
  <ele>1583.0</ele>
  <time>2026-08-28T17:49:54Z</time>
  <course>295.74</course>
  <speed>0.9</speed>
  <fix>3d</fix>
</trkpt>
<trkpt lat="40.0713682" lon="-105.2298289">
  <ele>1583.03</ele>
  <time>2026-08-28T17:49:54Z</time>
  <course>297.31</course>
  <speed>0.5366563145999496</speed>
  <fix>3d</fix>
</trkpt>
<trkpt lat="40.0713681" lon="-105.2298285">
  <ele>1583.0</ele>
  <time>2026-08-28T17:49:54Z</time>
  <course>296.08</course>
  <speed>0.71</speed>
  <fix>3d</fix>
</trkpt>
<trkpt lat="40.0713685" lon="-105.2298295">
  <ele>1583.03</ele>
  <time>2026-08-28T17:49:54Z</time>
  <course>297.48</course>
  <speed>0.442944691807002</speed>
  <fix>3d</fix>
</trkpt>
<trkpt lat="40.0713681" lon="-105.2298285">
  <ele>1583.0</ele>
  <time>2026-08-28T17:49:54Z</time>
  <course>296.08</course>
  <speed>0.71</speed>
  <fix>3d</fix>
</trkpt>
<trkpt lat="40.0713686" lon="-105.22983">
  <ele>1583.03</ele>
  <time>2026-08-28T17:49:54Z</time>
  <course>297.64</course>
  <speed>0.3535533905932738</speed>
  <fix>3d</fix>
</trkpt>
<trkpt lat="40.0713686" lon="-105.2298298">
  <ele>1583.0</ele>
  <time>2026-08-28T17:49:54Z</time>
  <course>296.41</course>
  <speed>0.53</speed>
  <fix>3d</fix>
</trkpt>
<trkpt lat="40.0713688" lon="-105.2298303">
  <ele>1583.03</ele>
  <time>2026-08-28T17:49:54Z</time>
  <course>297.78</course>
  <speed>0.25553864678361277</speed>
  <fix>3d</fix>
</trkpt>
<trkpt lat="40.0713686" lon="-105.2298298">
  <ele>1583.0</ele>
  <time>2026-08-28T17:49:54Z</time>
  <course>296.41</course>
  <speed>0.53</speed>
  <fix>3d</fix>
</trkpt>
<trkpt lat="40.0713689" lon="-105.2298306">
  <ele>1583.03</ele>
  <time>2026-08-28T17:49:54Z</time>
  <course>297.88</course>
  <speed>0.1664331697709324</speed>
  <fix>3d</fix>
</trkpt>
<trkpt lat="40.0713689" lon="-105.2298307">
  <ele>1583.0</ele>
  <time>2026-08-28T17:49:54Z</time>
  <course>296.68</course>
  <speed>0.34</speed>
  <fix>3d</fix>
</trkpt>
<trkpt lat="40.071369" lon="-105.2298308">
  <ele>1583.03</ele>
  <time>2026-08-28T17:49:54Z</time>
  <course>297.94</course>
  <speed>0.07810249675906654</speed>
  <fix>3d</fix>
</trkpt>
<trkpt lat="40.0713689" lon="-105.2298307">
  <ele>1583.0</ele>
  <time>2026-08-28T17:49:54Z</time>
  <course>296.68</course>
  <speed>0.34</speed>
  <fix>3d</fix>
</trkpt>
<trkpt lat="40.071369" lon="-105.2298309">
  <ele>1583.03</ele>
  <time>2026-08-28T17:49:54Z</time>
  <course>297.98</course>
  <speed>0.01</speed>
  <fix>3d</fix>
</trkpt>
<trkpt lat="40.0713692" lon="-105.2298313">
  <ele>1583.0</ele>
  <time>2026-08-28T17:49:54Z</time>
  <course>296.84</course>
  <speed>0.16</speed>
  <fix>3d</fix>
</trkpt>
<trkpt lat="40.0713691" lon="-105.2298309">
  <ele>1583.03</ele>
  <time>2026-08-28T17:49:54Z</time>
  <course>297.98</course>
  <speed>0.07071067811865475</speed>
  <fix>3d</fix>
</trkpt>
<trkpt lat="40.0713692" lon="-105.2298313">
  <ele>1583.0</ele>
  <time>2026-08-28T17:49:54Z</time>
  <course>296.84</course>
  <speed>0.16</speed>
  <fix>3d</fix>
</trkpt>
<trkpt lat="40.071369" lon="-105.2298308">
  <ele>1583.02</ele>
  <time>2026-08-28T17:49:54Z</time>
  <course>297.99</course>
  <speed>0.13601470508735444</speed>
  <fix>3d</fix>
</trkpt>
<trkpt lat="40.0713692" lon="-105.2298313">
  <ele>1583.0</ele>
  <time>2026-08-28T17:49:54Z</time>
  <course>296.84</course>
  <speed>0.16</speed>
  <fix>3d</fix>
</trkpt>
<trkpt lat="40.071369" lon="-105.2298307">
  <ele>1583.02</ele>
  <time>2026-08-28T17:49:54Z</time>
  <course>298.01</course>
  <speed>0.19313207915827968</speed>
  <fix>3d</fix>
</trkpt>
<trkpt lat="40.0713693" lon="-105.2298314">
  <ele>1583.0</ele>
  <time>2026-08-28T17:49:54Z</time>
  <course>296.53</course>
  <speed>0.01</speed>
  <fix>3d</fix>
</trkpt>
<trkpt lat="40.0713689" lon="-105.2298305">
  <ele>1583.02</ele>
  <time>2026-08-28T17:49:54Z</time>
  <course>298.03</course>
  <speed>0.24698178070456936</speed>
  <fix>3d</fix>
</trkpt>
<trkpt lat="40.0713693" lon="-105.2298314">
  <ele>1583.0</ele>
  <time>2026-08-28T17:49:54Z</time>
  <course>296.53</course>
  <speed>0.01</speed>
  <fix>3d</fix>
</trkpt>
<trkpt lat="40.0713689" lon="-105.2298304">
  <ele>1583.02</ele>
  <time>2026-08-28T17:49:54Z</time>
  <course>298.05</course>
  <speed>0.2785677655436824</speed>
  <fix>3d</fix>
</trkpt>
<trkpt lat="40.0713692" lon="-105.2298313">
  <ele>1583.0</ele>
  <time>2026-08-28T17:49:54Z</time>
  <course>117.01</course>
  <speed>0.11</speed>
  <fix>3d</fix>
</trkpt>
<trkpt lat="40.0713688" lon="-105.2298301">
  <ele>1583.02</ele>
  <time>2026-08-28T17:49:54Z</time>
  <course>298.06</course>
  <speed>0.3101612483854165</speed>
  <fix>3d</fix>
</trkpt>
<trkpt lat="40.0713692" lon="-105.2298313">
  <ele>1583.0</ele>
  <time>2026-08-28T17:49:54Z</time>
  <course>117.01</course>
  <speed>0.11</speed>
  <fix>3d</fix>
</trkpt>
<trkpt lat="40.0713688" lon="-105.2298298">
  <ele>1583.02</ele>
  <time>2026-08-28T17:49:54Z</time>
  <course>298.07</course>
  <speed>0.3231098884280702</speed>
  <fix>3d</fix>
</trkpt>
<trkpt lat="40.0713691" lon="-105.229831">
  <ele>1583.0</ele>
  <time>2026-08-28T17:49:54Z</time>
  <course>117.02</course>
  <speed>0.2</speed>
  <fix>3d</fix>
</trkpt>
<trkpt lat="40.0713687" lon="-105.2298295">
  <ele>1583.02</ele>
  <time>2026-08-28T17:49:54Z</time>
  <course>298.07</course>
  <speed>0.33241540277189324</speed>
  <fix>3d</fix>
</trkpt>
<trkpt lat="40.0713689" lon="-105.2298306">
  <ele>1583.0</ele>
  <time>2026-08-28T17:49:54Z</time>
  <course>117.03</course>
  <speed>0.25</speed>
  <fix>3d</fix>
</trkpt>
<trkpt lat="40.0713686" lon="-105.2298292">
  <ele>1583.02</ele>
  <time>2026-08-28T17:49:54Z</time>
  <course>298.06</course>
  <speed>0.33241540277189324</speed>
  <fix>3d</fix>
</trkpt>
<trkpt lat="40.0713689" lon="-105.2298306">
  <ele>1583.0</ele>
  <time>2026-08-28T17:49:54Z</time>
  <course>117.03</course>
  <speed>0.25</speed>
  <fix>3d</fix>
</trkpt>
<trkpt lat="40.0713685" lon="-105.2298289">
  <ele>1583.01</ele>
  <time>2026-08-28T17:49:54Z</time>
  <course>298.04</course>
  <speed>0.3289376840679705</speed>
  <fix>3d</fix>
</trkpt>
<trkpt lat="40.0713688" lon="-105.22983">
  <ele>1583.0</ele>
  <time>2026-08-28T17:49:54Z</time>
  <course>117.02</course>
  <speed>0.26</speed>
  <fix>3d</fix>
</trkpt>
<trkpt lat="40.0713684" lon="-105.2298287">
  <ele>1583.01</ele>
  <time>2026-08-28T17:49:54Z</time>
  <course>298.01</course>
  <speed>0.31622776601683794</speed>
  <fix>3d</fix>
</trkpt>
<trkpt lat="40.0713688" lon="-105.22983">
  <ele>1583.0</ele>
  <time>2026-08-28T17:49:54Z</time>
  <course>117.02</course>
  <speed>0.26</speed>
  <fix>3d</fix>
</trkpt>
<trkpt lat="40.0713683" lon="-105.2298284">
  <ele>1583.01</ele>
  <time>2026-08-28T17:49:54Z</time>
  <course>297.98</course>
  <speed>0.29410882339705485</speed>
  <fix>3d</fix>
</trkpt>
<trkpt lat="40.0713686" lon="-105.2298294">
  <ele>1583.0</ele>
  <time>2026-08-28T17:49:54Z</time>
  <course>116.97</course>
  <speed>0.25</speed>
  <fix>3d</fix>
</trkpt>
<trkpt lat="40.0713683" lon="-105.2298282">
  <ele>1583.01</ele>
  <time>2026-08-28T17:49:54Z</time>
  <course>297.94</course>
  <speed>0.2816025568065745</speed>
  <fix>3d</fix>
</trkpt>
<trkpt lat="40.0713686" lon="-105.2298294">
  <ele>1583.0</ele>
  <time>2026-08-28T17:49:54Z</time>
  <course>116.97</course>
  <speed>0.25</speed>
  <fix>3d</fix>
</trkpt>
<trkpt lat="40.0713682" lon="-105.2298279">
  <ele>1583.01</ele>
  <time>2026-08-28T17:49:54Z</time>
  <course>297.9</course>
  <speed>0.2596150997149434</speed>
  <fix>3d</fix>
</trkpt>
<trkpt lat="40.0713684" lon="-105.229829">
  <ele>1583.0</ele>
  <time>2026-08-28T17:49:54Z</time>
  <course>116.91</course>
  <speed>0.22</speed>
  <fix>3d</fix>
</trkpt>
<trkpt lat="40.0713682" lon="-105.2298277">
  <ele>1583.01</ele>
  <time>2026-08-28T17:49:54Z</time>
  <course>297.85</course>
  <speed>0.23769728648009425</speed>
  <fix>3d</fix>
</trkpt>
<trkpt lat="40.0713684" lon="-105.229829">
  <ele>1583.0</ele>
  <time>2026-08-28T17:49:54Z</time>
  <course>116.91</course>
  <speed>0.22</speed>
  <fix>3d</fix>
</trkpt>
<trkpt lat="40.0713681" lon="-105.2298276">
  <ele>1583.01</ele>
  <time>2026-08-28T17:49:54Z</time>
  <course>297.83</course>
  <speed>0.2039607805437114</speed>
  <fix>3d</fix>
</trkpt>
<trkpt lat="40.0713681" lon="-105.2298285">
  <ele>1583.0</ele>
  <time>2026-08-28T17:49:54Z</time>
  <course>116.84</course>
  <speed>0.18</speed>
  <fix>3d</fix>
</trkpt>
<trkpt lat="40.0713681" lon="-105.2298274">
  <ele>1583.01</ele>
  <time>2026-08-28T17:49:54Z</time>
  <course>297.83</course>
  <speed>0.1824828759089466</speed>
  <fix>3d</fix>
</trkpt>
<trkpt lat="40.0713681" lon="-105.2298285">
  <ele>1583.0</ele>
  <time>2026-08-28T17:49:54Z</time>
  <course>116.84</course>
  <speed>0.18</speed>
  <fix>3d</fix>
</trkpt>
<trkpt lat="40.0713681" lon="-105.2298273">
  <ele>1583.01</ele>
  <time>2026-08-28T17:49:54Z</time>
  <course>297.83</course>
  <speed>0.16124515496597097</speed>
  <fix>3d</fix>
</trkpt>
<trkpt lat="40.071368" lon="-105.2298282">
  <ele>1583.0</ele>
  <time>2026-08-28T17:49:54Z</time>
  <course>116.81</course>
  <speed>0.13</speed>
  <fix>3d</fix>
</trkpt>
<trkpt lat="40.071368" lon="-105.2298272">
  <ele>1583.01</ele>
  <time>2026-08-28T17:49:54Z</time>
  <course>297.82</course>
  <speed>0.15033296378372907</speed>
  <fix>3d</fix>
</trkpt>
<trkpt lat="40.071368" lon="-105.2298282">
  <ele>1583.0</ele>
  <time>2026-08-28T17:49:54Z</time>
  <course>116.81</course>
  <speed>0.13</speed>
  <fix>3d</fix>
</trkpt>
<trkpt lat="40.071368" lon="-105.2298271">
  <ele>1583.01</ele>
  <time>2026-08-28T17:49:54Z</time>
  <course>297.82</course>
  <speed>0.15033296378372907</speed>
  <fix>3d</fix>
</trkpt>
<trkpt lat="40.0713679" lon="-105.229828">
  <ele>1583.0</ele>
  <time>2026-08-28T17:49:54Z</time>
  <course>116.82</course>
  <speed>0.11</speed>
  <fix>3d</fix>
</trkpt>
<trkpt lat="40.071368" lon="-105.229827">
  <ele>1583.01</ele>
  <time>2026-08-28T17:49:54Z</time>
  <course>297.82</course>
  <speed>0.14</speed>
  <fix>3d</fix>
</trkpt>
<trkpt lat="40.0713679" lon="-105.229828">
  <ele>1583.0</ele>
  <time>2026-08-28T17:49:54Z</time>
  <course>116.82</course>
  <speed>0.11</speed>
  <fix>3d</fix>
</trkpt>
<trkpt lat="40.071368" lon="-105.2298269">
  <ele>1583.01</ele>
  <time>2026-08-28T17:49:54Z</time>
  <course>297.81</course>
  <speed>0.13</speed>
  <fix>3d</fix>
</trkpt>
<trkpt lat="40.0713679" lon="-105.229828">
  <ele>1583.0</ele>
  <time>2026-08-28T17:49:54Z</time>
  <course>116.82</course>
  <speed>0.11</speed>
  <fix>3d</fix>
</trkpt>
<trkpt lat="40.0713679" lon="-105.2298268">
  <ele>1583.01</ele>
  <time>2026-08-28T17:49:54Z</time>
  <course>297.81</course>
  <speed>0.13</speed>
  <fix>3d</fix>
</trkpt>
<trkpt lat="40.0713678" lon="-105.2298277">
  <ele>1583.0</ele>
  <time>2026-08-28T17:49:54Z</time>
  <course>116.82</course>
  <speed>0.1</speed>
  <fix>3d</fix>
</trkpt>
<trkpt lat="40.0713679" lon="-105.2298268">
  <ele>1583.01</ele>
  <time>2026-08-28T17:49:54Z</time>
  <course>297.8</course>
  <speed>0.12</speed>
  <fix>3d</fix>
</trkpt>
<trkpt lat="40.0713678" lon="-105.2298277">
  <ele>1583.0</ele>
  <time>2026-08-28T17:49:54Z</time>
  <course>116.82</course>
  <speed>0.1</speed>
  <fix>3d</fix>
</trkpt>
<trkpt lat="40.0713679" lon="-105.2298267">
  <ele>1583.01</ele>
  <time>2026-08-28T17:49:54Z</time>
  <course>297.8</course>
  <speed>0.12</speed>
  <fix>3d</fix>
</trkpt>
<trkpt lat="40.0713678" lon="-105.2298275">
  <ele>1583.0</ele>
  <time>2026-08-28T17:49:54Z</time>
  <course>116.83</course>
  <speed>0.09</speed>
  <fix>3d</fix>
</trkpt>
<trkpt lat="40.0713679" lon="-105.2298266">
  <ele>1583.01</ele>
  <time>2026-08-28T17:49:54Z</time>
  <course>297.79</course>
  <speed>0.11</speed>
  <fix>3d</fix>
</trkpt>
<trkpt lat="40.0713678" lon="-105.2298275">
  <ele>1583.0</ele>
  <time>2026-08-28T17:49:54Z</time>
  <course>116.83</course>
  <speed>0.09</speed>
  <fix>3d</fix>
</trkpt>
<trkpt lat="40.0713679" lon="-105.2298266">
  <ele>1583.01</ele>
  <time>2026-08-28T17:49:54Z</time>
  <course>297.79</course>
  <speed>0.11</speed>
  <fix>3d</fix>
</trkpt>
<trkpt lat="40.0713677" lon="-105.2298274">
  <ele>1583.0</ele>
  <time>2026-08-28T17:49:54Z</time>
  <course>116.83</course>
  <speed>0.08</speed>
  <fix>3d</fix>
</trkpt>
<trkpt lat="40.0713679" lon="-105.2298265">
  <ele>1583.01</ele>
  <time>2026-08-28T17:49:54Z</time>
  <course>297.78</course>
  <speed>0.1004987562112089</speed>
  <fix>3d</fix>
</trkpt>
<trkpt lat="40.0713677" lon="-105.2298274">
  <ele>1583.0</ele>
  <time>2026-08-28T17:49:54Z</time>
  <course>116.83</course>
  <speed>0.08</speed>
  <fix>3d</fix>
</trkpt>
<trkpt lat="40.0713678" lon="-105.2298265">
  <ele>1583.01</ele>
  <time>2026-08-28T17:49:54Z</time>
  <course>297.77</course>
  <speed>0.1004987562112089</speed>
  <fix>3d</fix>
</trkpt>
<trkpt lat="40.0713676" lon="-105.2298271">
  <ele>1583.0</ele>
  <time>2026-08-28T17:49:54Z</time>
  <course>116.84</course>
  <speed>0.07</speed>
  <fix>3d</fix>
</trkpt>
<trkpt lat="40.0713678" lon="-105.2298264">
  <ele>1583.01</ele>
  <time>2026-08-28T17:49:54Z</time>
  <course>297.77</course>
  <speed>0.09055385138137417</speed>
  <fix>3d</fix>
</trkpt>
<trkpt lat="40.0713675" lon="-105.229827">
  <ele>1583.0</ele>
  <time>2026-08-28T17:49:54Z</time>
  <course>116.84</course>
  <speed>0.06</speed>
  <fix>3d</fix>
</trkpt>
<trkpt lat="40.0713678" lon="-105.2298264">
  <ele>1583.01</ele>
  <time>2026-08-28T17:49:54Z</time>
  <course>297.76</course>
  <speed>0.09055385138137417</speed>
  <fix>3d</fix>
</trkpt>
<trkpt lat="40.0713675" lon="-105.229827">
  <ele>1583.0</ele>
  <time>2026-08-28T17:49:54Z</time>
  <course>116.84</course>
  <speed>0.06</speed>
  <fix>3d</fix>
</trkpt>
<trkpt lat="40.0713678" lon="-105.2298263">
  <ele>1583.01</ele>
  <time>2026-08-28T17:49:54Z</time>
  <course>297.75</course>
  <speed>0.08062257748298549</speed>
  <fix>3d</fix>
</trkpt>
<trkpt lat="40.0713675" lon="-105.2298269">
  <ele>1583.0</ele>
  <time>2026-08-28T17:49:54Z</time>
  <course>116.85</course>
  <speed>0.06</speed>
  <fix>3d</fix>
</trkpt>
<trkpt lat="40.0713678" lon="-105.2298263">
  <ele>1583.01</ele>
  <time>2026-08-28T17:49:54Z</time>
  <course>297.75</course>
  <speed>0.08062257748298549</speed>
  <fix>3d</fix>
</trkpt>
<trkpt lat="40.0713675" lon="-105.2298269">
  <ele>1583.0</ele>
  <time>2026-08-28T17:49:54Z</time>
  <course>116.85</course>
  <speed>0.06</speed>
  <fix>3d</fix>
</trkpt>
<trkpt lat="40.0713678" lon="-105.2298263">
  <ele>1583.01</ele>
  <time>2026-08-28T17:49:54Z</time>
  <course>297.74</course>
  <speed>0.07280109889280519</speed>
  <fix>3d</fix>
</trkpt>
<trkpt lat="40.0713675" lon="-105.2298267">
  <ele>1583.0</ele>
  <time>2026-08-28T17:49:54Z</time>
  <course>116.86</course>
  <speed>0.05</speed>
  <fix>3d</fix>
</trkpt>
<trkpt lat="40.0713677" lon="-105.2298262">
  <ele>1583.0</ele>
  <time>2026-08-28T17:49:54Z</time>
  <course>297.73</course>
  <speed>0.07280109889280519</speed>
  <fix>3d</fix>
</trkpt>
<trkpt lat="40.0713675" lon="-105.2298267">
  <ele>1583.0</ele>
  <time>2026-08-28T17:49:54Z</time>
  <course>116.86</course>
  <speed>0.05</speed>
  <fix>3d</fix>
</trkpt>
<trkpt lat="40.0713677" lon="-105.2298262">
  <ele>1583.0</ele>
  <time>2026-08-28T17:49:54Z</time>
  <course>297.73</course>
  <speed>0.07280109889280519</speed>
  <fix>3d</fix>
</trkpt>
<trkpt lat="40.0713674" lon="-105.2298266">
  <ele>1583.0</ele>
  <time>2026-08-28T17:49:54Z</time>
  <course>116.86</course>
  <speed>0.05</speed>
  <fix>3d</fix>
</trkpt>
<trkpt lat="40.0713677" lon="-105.2298262">
  <ele>1583.0</ele>
  <time>2026-08-28T17:49:54Z</time>
  <course>297.72</course>
  <speed>0.0632455532033676</speed>
  <fix>3d</fix>
</trkpt>
<trkpt lat="40.0713674" lon="-105.2298266">
  <ele>1583.0</ele>
  <time>2026-08-28T17:49:54Z</time>
  <course>116.86</course>
  <speed>0.05</speed>
  <fix>3d</fix>
</trkpt>
<trkpt lat="40.0713677" lon="-105.2298261">
  <ele>1583.0</ele>
  <time>2026-08-28T17:49:54Z</time>
  <course>297.71</course>
  <speed>0.0632455532033676</speed>
  <fix>3d</fix>
</trkpt>
<trkpt lat="40.0713674" lon="-105.2298265">
  <ele>1583.0</ele>
  <time>2026-08-28T17:49:54Z</time>
  <course>116.87</course>
  <speed>0.04</speed>
  <fix>3d</fix>
</trkpt>
<trkpt lat="40.0713676" lon="-105.2298261">
  <ele>1583.0</ele>
  <time>2026-08-28T17:49:54Z</time>
  <course>297.7</course>
  <speed>0.0632455532033676</speed>
  <fix>3d</fix>
</trkpt>
<trkpt lat="40.0713674" lon="-105.2298265">
  <ele>1583.0</ele>
  <time>2026-08-28T17:49:54Z</time>
  <course>116.87</course>
  <speed>0.04</speed>
  <fix>3d</fix>
</trkpt>
<trkpt lat="40.0713676" lon="-105.2298261">
  <ele>1583.0</ele>
  <time>2026-08-28T17:49:54Z</time>
  <course>297.7</course>
  <speed>0.0632455532033676</speed>
  <fix>3d</fix>
</trkpt>
<trkpt lat="40.0713674" lon="-105.2298265">
  <ele>1583.0</ele>
  <time>2026-08-28T17:49:54Z</time>
  <course>116.88</course>
  <speed>0.04</speed>
  <fix>3d</fix>
</trkpt>
<trkpt lat="40.0713676" lon="-105.229826">
  <ele>1583.0</ele>
  <time>2026-08-28T17:49:54Z</time>
  <course>297.69</course>
  <speed>0.053851648071345036</speed>
  <fix>3d</fix>
</trkpt>
<trkpt lat="40.0713674" lon="-105.2298265">
  <ele>1583.0</ele>
  <time>2026-08-28T17:49:54Z</time>
  <course>116.88</course>
  <speed>0.04</speed>
  <fix>3d</fix>
</trkpt>
<trkpt lat="40.0713676" lon="-105.229826">
  <ele>1583.0</ele>
  <time>2026-08-28T17:49:54Z</time>
  <course>297.69</course>
  <speed>0.053851648071345036</speed>
  <fix>3d</fix>
</trkpt>
<trkpt lat="40.0713673" lon="-105.2298264">
  <ele>1583.0</ele>
  <time>2026-08-28T17:49:54Z</time>
  <course>116.89</course>
  <speed>0.03</speed>
  <fix>3d</fix>
</trkpt>
<trkpt lat="40.0713676" lon="-105.229826">
  <ele>1583.0</ele>
  <time>2026-08-28T17:49:54Z</time>
  <course>297.68</course>
  <speed>0.053851648071345036</speed>
  <fix>3d</fix>
</trkpt>
<trkpt lat="40.0713673" lon="-105.2298264">
  <ele>1583.0</ele>
  <time>2026-08-28T17:49:54Z</time>
  <course>116.89</course>
  <speed>0.03</speed>
  <fix>3d</fix>
</trkpt>
<trkpt lat="40.0713676" lon="-105.229826">
  <ele>1583.0</ele>
  <time>2026-08-28T17:49:54Z</time>
  <course>297.67</course>
  <speed>0.053851648071345036</speed>
  <fix>3d</fix>
</trkpt>
<trkpt lat="40.0713673" lon="-105.2298264">
  <ele>1583.0</ele>
  <time>2026-08-28T17:49:54Z</time>
  <course>116.89</course>
  <speed>0.03</speed>
  <fix>3d</fix>
</trkpt>
<trkpt lat="40.0713676" lon="-105.229826">
  <ele>1583.0</ele>
  <time>2026-08-28T17:49:54Z</time>
  <course>297.67</course>
  <speed>0.044721359549995794</speed>
  <fix>3d</fix>
</trkpt>
<trkpt lat="40.0713673" lon="-105.2298263">
  <ele>1583.0</ele>
  <time>2026-08-28T17:49:54Z</time>
  <course>116.9</course>
  <speed>0.03</speed>
  <fix>3d</fix>
</trkpt>
<trkpt lat="40.0713676" lon="-105.2298259">
  <ele>1582.99</ele>
  <time>2026-08-28T17:49:54Z</time>
  <course>297.66</course>
  <speed>0.044721359549995794</speed>
  <fix>3d</fix>
</trkpt>
<trkpt lat="40.0713673" lon="-105.2298263">
  <ele>1583.0</ele>
  <time>2026-08-28T17:49:54Z</time>
  <course>116.9</course>
  <speed>0.03</speed>
  <fix>3d</fix>
</trkpt>
<trkpt lat="40.0713675" lon="-105.2298259">
  <ele>1582.98</ele>
  <time>2026-08-28T17:49:54Z</time>
  <course>297.64</course>
  <speed>0.03605551275463989</speed>
  <fix>3d</fix>
</trkpt>
<trkpt lat="40.0713672" lon="-105.2298261">
  <ele>1583.0</ele>
  <time>2026-08-28T17:49:54Z</time>
  <course>116.95</course>
  <speed>0.02</speed>
  <fix>3d</fix>
</trkpt>
<trkpt lat="40.0713675" lon="-105.2298258">
  <ele>1582.98</ele>
  <time>2026-08-28T17:49:54Z</time>
  <course>297.62</course>
  <speed>0.03605551275463989</speed>
  <fix>3d</fix>
</trkpt>
<trkpt lat="40.0713672" lon="-105.2298261">
  <ele>1583.0</ele>
  <time>2026-08-28T17:49:54Z</time>
  <course>116.97</course>
  <speed>0.02</speed>
  <fix>3d</fix>
</trkpt>
<trkpt lat="40.0713675" lon="-105.2298258">
  <ele>1582.98</ele>
  <time>2026-08-28T17:49:54Z</time>
  <course>297.62</course>
  <speed>0.03605551275463989</speed>
  <fix>3d</fix>
</trkpt>
<trkpt lat="40.0713672" lon="-105.229826">
  <ele>1583.0</ele>
  <time>2026-08-28T17:49:54Z</time>
  <course>116.99</course>
  <speed>0.02</speed>
  <fix>3d</fix>
</trkpt>
<trkpt lat="40.0713675" lon="-105.2298258">
  <ele>1582.99</ele>
  <time>2026-08-28T17:49:54Z</time>
  <course>297.61</course>
  <speed>0.03605551275463989</speed>
  <fix>3d</fix>
</trkpt>
<trkpt lat="40.0713672" lon="-105.229826">
  <ele>1583.0</ele>
  <time>2026-08-28T17:49:54Z</time>
  <course>116.99</course>
  <speed>0.02</speed>
  <fix>3d</fix>
</trkpt>
<trkpt lat="40.0713675" lon="-105.2298258">
  <ele>1583.0</ele>
  <time>2026-08-28T17:49:54Z</time>
  <course>297.61</course>
  <speed>0.03605551275463989</speed>
  <fix>3d</fix>
</trkpt>
<trkpt lat="40.0713672" lon="-105.2298259">
  <ele>1583.0</ele>
  <time>2026-08-28T17:49:54Z</time>
  <course>117.01</course>
  <speed>0.01</speed>
  <fix>3d</fix>
</trkpt>
<trkpt lat="40.0713675" lon="-105.2298258">
  <ele>1583.01</ele>
  <time>2026-08-28T17:49:54Z</time>
  <course>297.61</course>
  <speed>0.0282842712474619</speed>
  <fix>3d</fix>
</trkpt>
<trkpt lat="40.0713672" lon="-105.2298259">
  <ele>1583.0</ele>
  <time>2026-08-28T17:49:54Z</time>
  <course>117.01</course>
  <speed>0.01</speed>
  <fix>3d</fix>
</trkpt>
<trkpt lat="40.0713674" lon="-105.2298258">
  <ele>1583.02</ele>
  <time>2026-08-28T17:49:54Z</time>
  <course>297.6</course>
  <speed>0.0282842712474619</speed>
  <fix>3d</fix>
</trkpt>
<trkpt lat="40.0713672" lon="-105.2298259">
  <ele>1583.0</ele>
  <time>2026-08-28T17:49:54Z</time>
  <course>117.03</course>
  <speed>0.01</speed>
  <fix>3d</fix>
</trkpt>
<trkpt lat="40.0713674" lon="-105.2298258">
  <ele>1583.03</ele>
  <time>2026-08-28T17:49:54Z</time>
  <course>297.6</course>
  <speed>0.0282842712474619</speed>
  <fix>3d</fix>
</trkpt>
<trkpt lat="40.0713672" lon="-105.2298259">
  <ele>1583.0</ele>
  <time>2026-08-28T17:49:54Z</time>
  <course>117.06</course>
  <speed>0.01</speed>
  <fix>3d</fix>
</trkpt>
<trkpt lat="40.0713674" lon="-105.2298257">
  <ele>1583.04</ele>
  <time>2026-08-28T17:49:54Z</time>
  <course>297.59</course>
  <speed>0.0282842712474619</speed>
  <fix>3d</fix>
</trkpt>
<trkpt lat="40.0713672" lon="-105.2298259">
  <ele>1583.0</ele>
  <time>2026-08-28T17:49:54Z</time>
  <course>117.06</course>
  <speed>0.01</speed>
  <fix>3d</fix>
</trkpt>
<trkpt lat="40.0713674" lon="-105.2298257">
  <ele>1583.04</ele>
  <time>2026-08-28T17:49:54Z</time>
  <course>297.59</course>
  <speed>0.0282842712474619</speed>
  <fix>3d</fix>
</trkpt>
<trkpt lat="40.0713672" lon="-105.2298259">
  <ele>1583.0</ele>
  <time>2026-08-28T17:49:54Z</time>
  <course>117.09</course>
  <speed>0.01</speed>
  <fix>3d</fix>
</trkpt>
<trkpt lat="40.0713674" lon="-105.2298257">
  <ele>1583.05</ele>
  <time>2026-08-28T17:49:54Z</time>
  <course>297.59</course>
  <speed>0.0282842712474619</speed>
  <fix>3d</fix>
</trkpt>
<trkpt lat="40.0713672" lon="-105.2298259">
  <ele>1583.0</ele>
  <time>2026-08-28T17:49:54Z</time>
  <course>117.09</course>
  <speed>0.01</speed>
  <fix>3d</fix>
</trkpt>
<trkpt lat="40.0713674" lon="-105.2298257">
  <ele>1583.05</ele>
  <time>2026-08-28T17:49:54Z</time>
  <course>297.59</course>
  <speed>0.0282842712474619</speed>
  <fix>3d</fix>
</trkpt>
<trkpt lat="40.0713672" lon="-105.2298259">
  <ele>1583.0</ele>
  <time>2026-08-28T17:49:54Z</time>
  <course>117.12</course>
  <speed>0.01</speed>
  <fix>3d</fix>
</trkpt>
<trkpt lat="40.0713674" lon="-105.2298257">
  <ele>1583.05</ele>
  <time>2026-08-28T17:49:54Z</time>
  <course>297.58</course>
  <speed>0.0282842712474619</speed>
  <fix>3d</fix>
</trkpt>
<trkpt lat="40.0713672" lon="-105.2298259">
  <ele>1583.0</ele>
  <time>2026-08-28T17:49:54Z</time>
  <course>117.12</course>
  <speed>0.01</speed>
  <fix>3d</fix>
</trkpt>
<trkpt lat="40.0713674" lon="-105.2298257">
  <ele>1583.05</ele>
  <time>2026-08-28T17:49:54Z</time>
  <course>297.58</course>
  <speed>0.0282842712474619</speed>
  <fix>3d</fix>
</trkpt>
<trkpt lat="40.0713671" lon="-105.2298259">
  <ele>1583.0</ele>
  <time>2026-08-28T17:49:54Z</time>
  <course>117.16</course>
  <speed>0.01</speed>
  <fix>3d</fix>
</trkpt>
<trkpt lat="40.0713674" lon="-105.2298257">
  <ele>1583.05</ele>
  <time>2026-08-28T17:49:54Z</time>
  <course>297.58</course>
  <speed>0.0282842712474619</speed>
  <fix>3d</fix>
</trkpt>
<trkpt lat="40.0713671" lon="-105.2298259">
  <ele>1583.0</ele>
  <time>2026-08-28T17:49:54Z</time>
  <course>117.16</course>
  <speed>0.01</speed>
  <fix>3d</fix>
</trkpt>
<trkpt lat="40.0713674" lon="-105.2298257">
  <ele>1583.05</ele>
  <time>2026-08-28T17:49:54Z</time>
  <course>297.58</course>
  <speed>0.0282842712474619</speed>
  <fix>3d</fix>
</trkpt>
<trkpt lat="40.071367" lon="-105.2298258">
  <ele>1583.0</ele>
  <time>2026-08-28T17:49:54Z</time>
  <course>117.19</course>
  <speed>0.01</speed>
  <fix>3d</fix>
</trkpt>
<trkpt lat="40.0713673" lon="-105.2298257">
  <ele>1583.05</ele>
  <time>2026-08-28T17:49:54Z</time>
  <course>297.58</course>
  <speed>0.022360679774997897</speed>
  <fix>3d</fix>
</trkpt>
<trkpt lat="40.071367" lon="-105.2298258">
  <ele>1583.0</ele>
  <time>2026-08-28T17:49:54Z</time>
  <course>117.19</course>
  <speed>0.01</speed>
  <fix>3d</fix>
</trkpt>
<trkpt lat="40.0713673" lon="-105.2298257">
  <ele>1583.05</ele>
  <time>2026-08-28T17:49:54Z</time>
  <course>297.57</course>
  <speed>0.022360679774997897</speed>
  <fix>3d</fix>
</trkpt>
<trkpt lat="40.071367" lon="-105.2298258">
  <ele>1583.0</ele>
  <time>2026-08-28T17:49:54Z</time>
  <course>117.24</course>
  <speed>0.0</speed>
  <fix>3d</fix>
</trkpt>
<trkpt lat="40.0713673" lon="-105.2298257">
  <ele>1583.05</ele>
  <time>2026-08-28T17:49:54Z</time>
  <course>297.57</course>
  <speed>0.022360679774997897</speed>
  <fix>3d</fix>
</trkpt>
<trkpt lat="40.071367" lon="-105.2298258">
  <ele>1583.0</ele>
  <time>2026-08-28T17:49:54Z</time>
  <course>117.24</course>
  <speed>0.0</speed>
  <fix>3d</fix>
</trkpt>
<trkpt lat="40.0713673" lon="-105.2298257">
  <ele>1583.05</ele>
  <time>2026-08-28T17:49:54Z</time>
  <course>297.57</course>
  <speed>0.022360679774997897</speed>
  <fix>3d</fix>
</trkpt>
<trkpt lat="40.071367" lon="-105.2298258">
  <ele>1583.0</ele>
  <time>2026-08-28T17:49:54Z</time>
  <course>117.29</course>
  <speed>0.0</speed>
  <fix>3d</fix>
</trkpt>
<trkpt lat="40.0713673" lon="-105.2298257">
  <ele>1583.05</ele>
  <time>2026-08-28T17:49:54Z</time>
  <course>297.57</course>
  <speed>0.022360679774997897</speed>
  <fix>3d</fix>
</trkpt>
<trkpt lat="40.071367" lon="-105.2298258">
  <ele>1583.0</ele>
  <time>2026-08-28T17:49:54Z</time>
  <course>117.29</course>
  <speed>0.0</speed>
  <fix>3d</fix>
</trkpt>
<trkpt lat="40.0713673" lon="-105.2298257">
  <ele>1583.05</ele>
  <time>2026-08-28T17:49:54Z</time>
  <course>297.57</course>
  <speed>0.022360679774997897</speed>
  <fix>3d</fix>
</trkpt>
<trkpt lat="40.071367" lon="-105.2298258">
  <ele>1583.0</ele>
  <time>2026-08-28T17:49:54Z</time>
  <course>117.34</course>
  <speed>0.0</speed>
  <fix>3d</fix>
</trkpt>
<trkpt lat="40.0713673" lon="-105.2298257">
  <ele>1583.05</ele>
  <time>2026-08-28T17:49:54Z</time>
  <course>297.56</course>
  <speed>0.022360679774997897</speed>
  <fix>3d</fix>
</trkpt>
<trkpt lat="40.071367" lon="-105.2298258">
  <ele>1583.0</ele>
  <time>2026-08-28T17:49:54Z</time>
  <course>117.34</course>
  <speed>0.0</speed>
  <fix>3d</fix>
</trkpt>
<trkpt lat="40.0713673" lon="-105.2298257">
  <ele>1583.06</ele>
  <time>2026-08-28T17:49:54Z</time>
  <course>297.56</course>
  <speed>0.022360679774997897</speed>
  <fix>3d</fix>
</trkpt>
<trkpt lat="40.071367" lon="-105.2298258">
  <ele>1583.0</ele>
  <time>2026-08-28T17:49:54Z</time>
  <course>117.4</course>
  <speed>0.0</speed>
  <fix>3d</fix>
</trkpt>
<trkpt lat="40.0713673" lon="-105.2298257">
  <ele>1583.06</ele>
  <time>2026-08-28T17:49:54Z</time>
  <course>297.56</course>
  <speed>0.01414213562373095</speed>
  <fix>3d</fix>
</trkpt>
<trkpt lat="40.071367" lon="-105.2298258">
  <ele>1583.0</ele>
  <time>2026-08-28T17:49:54Z</time>
  <course>117.4</course>
  <speed>0.0</speed>
  <fix>3d</fix>
</trkpt>
<trkpt lat="40.0713673" lon="-105.2298256">
  <ele>1583.06</ele>
  <time>2026-08-28T17:49:54Z</time>
  <course>297.56</course>
  <speed>0.022360679774997897</speed>
  <fix>3d</fix>
</trkpt>
<trkpt lat="40.071367" lon="-105.2298258">
  <ele>1583.0</ele>
  <time>2026-08-28T17:49:54Z</time>
  <course>117.46</course>
  <speed>0.0</speed>
  <fix>3d</fix>
</trkpt>
<trkpt lat="40.0713672" lon="-105.2298256">
  <ele>1583.07</ele>
  <time>2026-08-28T17:49:54Z</time>
  <course>297.56</course>
  <speed>0.01414213562373095</speed>
  <fix>3d</fix>
</trkpt>
<trkpt lat="40.071367" lon="-105.2298258">
  <ele>1583.0</ele>
  <time>2026-08-28T17:49:54Z</time>
  <course>117.46</course>
  <speed>0.0</speed>
  <fix>3d</fix>
</trkpt>
<trkpt lat="40.0713672" lon="-105.2298256">
  <ele>1583.07</ele>
  <time>2026-08-28T17:49:54Z</time>
  <course>297.56</course>
  <speed>0.01414213562373095</speed>
  <fix>3d</fix>
</trkpt>
<trkpt lat="40.071367" lon="-105.2298258">
  <ele>1583.0</ele>
  <time>2026-08-28T17:49:54Z</time>
  <course>117.54</course>
  <speed>0.0</speed>
  <fix>3d</fix>
</trkpt>
<trkpt lat="40.0713672" lon="-105.2298256">
  <ele>1583.08</ele>
  <time>2026-08-28T17:49:54Z</time>
  <course>297.56</course>
  <speed>0.01414213562373095</speed>
  <fix>3d</fix>
</trkpt>
<trkpt lat="40.071367" lon="-105.2298258">
  <ele>1583.0</ele>
  <time>2026-08-28T17:49:54Z</time>
  <course>117.54</course>
  <speed>0.0</speed>
  <fix>3d</fix>
</trkpt>
<trkpt lat="40.0713672" lon="-105.2298256">
  <ele>1583.08</ele>
  <time>2026-08-28T17:49:54Z</time>
  <course>297.56</course>
  <speed>0.01414213562373095</speed>
  <fix>3d</fix>
</trkpt>
<trkpt lat="40.071367" lon="-105.2298257">
  <ele>1583.0</ele>
  <time>2026-08-28T17:49:54Z</time>
  <course>117.62</course>
  <speed>0.0</speed>
  <fix>3d</fix>
</trkpt>
<trkpt lat="40.0713672" lon="-105.2298256">
  <ele>1583.08</ele>
  <time>2026-08-28T17:49:54Z</time>
  <course>297.56</course>
  <speed>0.01414213562373095</speed>
  <fix>3d</fix>
</trkpt>
<trkpt lat="40.071367" lon="-105.2298257">
  <ele>1583.0</ele>
  <time>2026-08-28T17:49:54Z</time>
  <course>117.62</course>
  <speed>0.0</speed>
  <fix>3d</fix>
</trkpt>
<trkpt lat="40.0713672" lon="-105.2298256">
  <ele>1583.08</ele>
  <time>2026-08-28T17:49:54Z</time>
  <course>297.56</course>
  <speed>0.022360679774997897</speed>
  <fix>3d</fix>
</trkpt>
<trkpt lat="40.071367" lon="-105.2298256">
  <ele>1583.0</ele>
  <time>2026-08-28T17:49:54Z</time>
  <course>117.7</course>
  <speed>0.0</speed>
  <fix>3d</fix>
</trkpt>
<trkpt lat="40.0713672" lon="-105.2298256">
  <ele>1583.08</ele>
  <time>2026-08-28T17:49:54Z</time>
  <course>297.56</course>
  <speed>0.022360679774997897</speed>
  <fix>3d</fix>
</trkpt>
<trkpt lat="40.071367" lon="-105.2298256">
  <ele>1583.0</ele>
  <time>2026-08-28T17:49:54Z</time>
  <course>117.7</course>
  <speed>0.0</speed>
  <fix>3d</fix>
</trkpt>
<trkpt lat="40.0713672" lon="-105.2298256">
  <ele>1583.08</ele>
  <time>2026-08-28T17:49:54Z</time>
  <course>297.56</course>
  <speed>0.022360679774997897</speed>
  <fix>3d</fix>
</trkpt>
<trkpt lat="40.071367" lon="-105.2298256">
  <ele>1583.0</ele>
  <time>2026-08-28T17:49:54Z</time>
  <course>117.8</course>
  <speed>0.0</speed>
  <fix>3d</fix>
</trkpt>
<trkpt lat="40.0713672" lon="-105.2298255">
  <ele>1583.06</ele>
  <time>2026-08-28T17:49:54Z</time>
  <course>297.56</course>
  <speed>0.022360679774997897</speed>
  <fix>3d</fix>
</trkpt>
<trkpt lat="40.071367" lon="-105.2298256">
  <ele>1583.0</ele>
  <time>2026-08-28T17:49:54Z</time>
  <course>118.03</course>
  <speed>0.0</speed>
  <fix>3d</fix>
</trkpt>
<trkpt lat="40.0713671" lon="-105.2298255">
  <ele>1583.05</ele>
  <time>2026-08-28T17:49:54Z</time>
  <course>297.56</course>
  <speed>0.022360679774997897</speed>
  <fix>3d</fix>
</trkpt>
<trkpt lat="40.071367" lon="-105.2298256">
  <ele>1583.0</ele>
  <time>2026-08-28T17:49:54Z</time>
  <course>118.16</course>
  <speed>0.0</speed>
  <fix>3d</fix>
</trkpt>
<trkpt lat="40.0713671" lon="-105.2298255">
  <ele>1583.05</ele>
  <time>2026-08-28T17:49:54Z</time>
  <course>297.57</course>
  <speed>0.022360679774997897</speed>
  <fix>3d</fix>
</trkpt>
<trkpt lat="40.071367" lon="-105.2298256">
  <ele>1583.0</ele>
  <time>2026-08-28T17:49:54Z</time>
  <course>118.3</course>
  <speed>0.0</speed>
  <fix>3d</fix>
</trkpt>
<trkpt lat="40.0713671" lon="-105.2298255">
  <ele>1583.05</ele>
  <time>2026-08-28T17:49:54Z</time>
  <course>297.57</course>
  <speed>0.022360679774997897</speed>
  <fix>3d</fix>
</trkpt>
<trkpt lat="40.071367" lon="-105.2298256">
  <ele>1583.0</ele>
  <time>2026-08-28T17:49:54Z</time>
  <course>118.3</course>
  <speed>0.0</speed>
  <fix>3d</fix>
</trkpt>
<trkpt lat="40.0713671" lon="-105.2298255">
  <ele>1583.05</ele>
  <time>2026-08-28T17:49:54Z</time>
  <course>297.57</course>
  <speed>0.022360679774997897</speed>
  <fix>3d</fix>
</trkpt>
<trkpt lat="40.071367" lon="-105.2298256">
  <ele>1583.0</ele>
  <time>2026-08-28T17:49:54Z</time>
  <course>118.46</course>
  <speed>0.0</speed>
  <fix>3d</fix>
</trkpt>
<trkpt lat="40.0713671" lon="-105.2298255">
  <ele>1583.05</ele>
  <time>2026-08-28T17:49:54Z</time>
  <course>297.57</course>
  <speed>0.022360679774997897</speed>
  <fix>3d</fix>
</trkpt>
<trkpt lat="40.071367" lon="-105.2298256">
  <ele>1583.0</ele>
  <time>2026-08-28T17:49:54Z</time>
  <course>118.46</course>
  <speed>0.0</speed>
  <fix>3d</fix>
</trkpt>
<trkpt lat="40.0713671" lon="-105.2298255">
  <ele>1583.05</ele>
  <time>2026-08-28T17:49:54Z</time>
  <course>297.57</course>
  <speed>0.022360679774997897</speed>
  <fix>3d</fix>
</trkpt>
<trkpt lat="40.071367" lon="-105.2298256">
  <ele>1583.0</ele>
  <time>2026-08-28T17:49:54Z</time>
  <course>118.64</course>
  <speed>0.0</speed>
  <fix>3d</fix>
</trkpt>
<trkpt lat="40.0713671" lon="-105.2298254">
  <ele>1583.05</ele>
  <time>2026-08-28T17:49:54Z</time>
  <course>297.57</course>
  <speed>0.022360679774997897</speed>
  <fix>3d</fix>
</trkpt>
<trkpt lat="40.071367" lon="-105.2298256">
  <ele>1583.0</ele>
  <time>2026-08-28T17:49:54Z</time>
  <course>118.84</course>
  <speed>0.0</speed>
  <fix>3d</fix>
</trkpt>
<trkpt lat="40.0713671" lon="-105.2298254">
  <ele>1583.05</ele>
  <time>2026-08-28T17:49:54Z</time>
  <course>297.57</course>
  <speed>0.022360679774997897</speed>
  <fix>3d</fix>
</trkpt>
<trkpt lat="40.071367" lon="-105.2298256">
  <ele>1583.0</ele>
  <time>2026-08-28T17:49:54Z</time>
  <course>118.84</course>
  <speed>0.0</speed>
  <fix>3d</fix>
</trkpt>
<trkpt lat="40.0713671" lon="-105.2298254">
  <ele>1583.06</ele>
  <time>2026-08-28T17:49:54Z</time>
  <course>297.57</course>
  <speed>0.022360679774997897</speed>
  <fix>3d</fix>
</trkpt>
<trkpt lat="40.071367" lon="-105.2298256">
  <ele>1583.0</ele>
  <time>2026-08-28T17:49:54Z</time>
  <course>119.05</course>
  <speed>0.0</speed>
  <fix>3d</fix>
</trkpt>
<trkpt lat="40.0713671" lon="-105.2298254">
  <ele>1583.06</ele>
  <time>2026-08-28T17:49:54Z</time>
  <course>297.57</course>
  <speed>0.022360679774997897</speed>
  <fix>3d</fix>
</trkpt>
<trkpt lat="40.071367" lon="-105.2298256">
  <ele>1583.0</ele>
  <time>2026-08-28T17:49:54Z</time>
  <course>119.05</course>
  <speed>0.0</speed>
  <fix>3d</fix>
</trkpt>
<trkpt lat="40.0713671" lon="-105.2298254">
  <ele>1583.06</ele>
  <time>2026-08-28T17:49:54Z</time>
  <course>297.57</course>
  <speed>0.022360679774997897</speed>
  <fix>3d</fix>
</trkpt>
<trkpt lat="40.071367" lon="-105.2298256">
  <ele>1583.0</ele>
  <time>2026-08-28T17:49:54Z</time>
  <course>119.29</course>
  <speed>0.0</speed>
  <fix>3d</fix>
</trkpt>
<trkpt lat="40.0713671" lon="-105.2298254">
  <ele>1583.07</ele>
  <time>2026-08-28T17:49:54Z</time>
  <course>297.57</course>
  <speed>0.022360679774997897</speed>
  <fix>3d</fix>
</trkpt>
<trkpt lat="40.071367" lon="-105.2298256">
  <ele>1583.0</ele>
  <time>2026-08-28T17:49:54Z</time>
  <course>119.29</course>
  <speed>0.0</speed>
  <fix>3d</fix>
</trkpt>
<trkpt lat="40.0713671" lon="-105.2298254">
  <ele>1583.07</ele>
  <time>2026-08-28T17:49:54Z</time>
  <course>297.58</course>
  <speed>0.022360679774997897</speed>
  <fix>3d</fix>
</trkpt>
<trkpt lat="40.071367" lon="-105.2298256">
  <ele>1583.0</ele>
  <time>2026-08-28T17:49:54Z</time>
  <course>119.56</course>
  <speed>0.0</speed>
  <fix>3d</fix>
</trkpt>
<trkpt lat="40.0713671" lon="-105.2298254">
  <ele>1583.08</ele>
  <time>2026-08-28T17:49:54Z</time>
  <course>297.58</course>
  <speed>0.022360679774997897</speed>
  <fix>3d</fix>
</trkpt>
<trkpt lat="40.071367" lon="-105.2298256">
  <ele>1583.0</ele>
  <time>2026-08-28T17:49:54Z</time>
  <course>119.56</course>
  <speed>0.0</speed>
  <fix>3d</fix>
</trkpt>
<trkpt lat="40.0713671" lon="-105.2298254">
  <ele>1583.08</ele>
  <time>2026-08-28T17:49:54Z</time>
  <course>297.58</course>
  <speed>0.022360679774997897</speed>
  <fix>3d</fix>
</trkpt>
<trkpt lat="40.071367" lon="-105.2298256">
  <ele>1583.0</ele>
  <time>2026-08-28T17:49:54Z</time>
  <course>119.85</course>
  <speed>0.0</speed>
  <fix>3d</fix>
</trkpt>
<trkpt lat="40.0713671" lon="-105.2298254">
  <ele>1583.09</ele>
  <time>2026-08-28T17:49:54Z</time>
  <course>297.58</course>
  <speed>0.022360679774997897</speed>
  <fix>3d</fix>
</trkpt>
<trkpt lat="40.071367" lon="-105.2298256">
  <ele>1583.0</ele>
  <time>2026-08-28T17:49:54Z</time>
  <course>119.85</course>
  <speed>0.0</speed>
  <fix>3d</fix>
</trkpt>
<trkpt lat="40.0713671" lon="-105.2298254">
  <ele>1583.09</ele>
  <time>2026-08-28T17:49:54Z</time>
  <course>297.58</course>
  <speed>0.022360679774997897</speed>
  <fix>3d</fix>
</trkpt>
<trkpt lat="40.071367" lon="-105.2298256">
  <ele>1583.0</ele>
  <time>2026-08-28T17:49:54Z</time>
  <course>120.17</course>
  <speed>0.0</speed>
  <fix>3d</fix>
</trkpt>
<trkpt lat="40.0713671" lon="-105.2298254">
  <ele>1583.09</ele>
  <time>2026-08-28T17:49:54Z</time>
  <course>297.58</course>
  <speed>0.022360679774997897</speed>
  <fix>3d</fix>
</trkpt>
<trkpt lat="40.071367" lon="-105.2298256">
  <ele>1583.0</ele>
  <time>2026-08-28T17:49:54Z</time>
  <course>120.17</course>
  <speed>0.0</speed>
  <fix>3d</fix>
</trkpt>
<trkpt lat="40.0713671" lon="-105.2298254">
  <ele>1583.09</ele>
  <time>2026-08-28T17:49:54Z</time>
  <course>297.58</course>
  <speed>0.022360679774997897</speed>
  <fix>3d</fix>
</trkpt>
<trkpt lat="40.071367" lon="-105.2298256">
  <ele>1583.0</ele>
  <time>2026-08-28T17:49:54Z</time>
  <course>120.53</course>
  <speed>0.0</speed>
  <fix>3d</fix>
</trkpt>
<trkpt lat="40.0713671" lon="-105.2298254">
  <ele>1583.09</ele>
  <time>2026-08-28T17:49:54Z</time>
  <course>297.58</course>
  <speed>0.022360679774997897</speed>
  <fix>3d</fix>
</trkpt>
<trkpt lat="40.071367" lon="-105.2298256">
  <ele>1583.0</ele>
  <time>2026-08-28T17:49:54Z</time>
  <course>120.53</course>
  <speed>0.0</speed>
  <fix>3d</fix>
</trkpt>
<trkpt lat="40.0713671" lon="-105.2298254">
  <ele>1583.09</ele>
  <time>2026-08-28T17:49:54Z</time>
  <course>297.58</course>
  <speed>0.022360679774997897</speed>
  <fix>3d</fix>
</trkpt>
<trkpt lat="40.071367" lon="-105.2298256">
  <ele>1583.0</ele>
  <time>2026-08-28T17:49:54Z</time>
  <course>120.92</course>
  <speed>0.0</speed>
  <fix>3d</fix>
</trkpt>
<trkpt lat="40.0713671" lon="-105.2298254">
  <ele>1583.09</ele>
  <time>2026-08-28T17:49:54Z</time>
  <course>297.58</course>
  <speed>0.022360679774997897</speed>
  <fix>3d</fix>
</trkpt>
<trkpt lat="40.071367" lon="-105.2298256">
  <ele>1583.0</ele>
  <time>2026-08-28T17:49:54Z</time>
  <course>120.92</course>
  <speed>0.0</speed>
  <fix>3d</fix>
</trkpt>
<trkpt lat="40.0713671" lon="-105.2298254">
  <ele>1583.1</ele>
  <time>2026-08-28T17:49:54Z</time>
  <course>297.59</course>
  <speed>0.022360679774997897</speed>
  <fix>3d</fix>
</trkpt>
<trkpt lat="40.071367" lon="-105.2298256">
  <ele>1583.0</ele>
  <time>2026-08-28T17:49:54Z</time>
  <course>121.35</course>
  <speed>0.0</speed>
  <fix>3d</fix>
</trkpt>
<trkpt lat="40.0713671" lon="-105.2298254">
  <ele>1583.1</ele>
  <time>2026-08-28T17:49:54Z</time>
  <course>297.59</course>
  <speed>0.022360679774997897</speed>
  <fix>3d</fix>
</trkpt>
<trkpt lat="40.071367" lon="-105.2298256">
  <ele>1583.0</ele>
  <time>2026-08-28T17:49:54Z</time>
  <course>121.35</course>
  <speed>0.0</speed>
  <fix>3d</fix>
</trkpt>
<trkpt lat="40.0713671" lon="-105.2298254">
  <ele>1583.1</ele>
  <time>2026-08-28T17:49:54Z</time>
  <course>297.59</course>
  <speed>0.022360679774997897</speed>
  <fix>3d</fix>
</trkpt>
<trkpt lat="40.071367" lon="-105.2298256">
  <ele>1583.0</ele>
  <time>2026-08-28T17:49:54Z</time>
  <course>121.83</course>
  <speed>0.0</speed>
  <fix>3d</fix>
</trkpt>
<trkpt lat="40.0713671" lon="-105.2298254">
  <ele>1583.1</ele>
  <time>2026-08-28T17:49:54Z</time>
  <course>297.59</course>
  <speed>0.022360679774997897</speed>
  <fix>3d</fix>
</trkpt>
<trkpt lat="40.071367" lon="-105.2298256">
  <ele>1583.0</ele>
  <time>2026-08-28T17:49:54Z</time>
  <course>121.83</course>
  <speed>0.0</speed>
  <fix>3d</fix>
</trkpt>
<trkpt lat="40.0713671" lon="-105.2298254">
  <ele>1583.1</ele>
  <time>2026-08-28T17:49:54Z</time>
  <course>297.59</course>
  <speed>0.022360679774997897</speed>
  <fix>3d</fix>
</trkpt>
<trkpt lat="40.071367" lon="-105.2298256">
  <ele>1583.0</ele>
  <time>2026-08-28T17:49:54Z</time>
  <course>122.36</course>
  <speed>0.0</speed>
  <fix>3d</fix>
</trkpt>
<trkpt lat="40.0713671" lon="-105.2298254">
  <ele>1583.1</ele>
  <time>2026-08-28T17:49:54Z</time>
  <course>297.59</course>
  <speed>0.022360679774997897</speed>
  <fix>3d</fix>
</trkpt>
<trkpt lat="40.071367" lon="-105.2298256">
  <ele>1583.0</ele>
  <time>2026-08-28T17:49:54Z</time>
  <course>122.36</course>
  <speed>0.0</speed>
  <fix>3d</fix>
</trkpt>
<trkpt lat="40.0713671" lon="-105.2298254">
  <ele>1583.1</ele>
  <time>2026-08-28T17:49:54Z</time>
  <course>297.59</course>
  <speed>0.022360679774997897</speed>
  <fix>3d</fix>
</trkpt>
<trkpt lat="40.071367" lon="-105.2298256">
  <ele>1583.0</ele>
  <time>2026-08-28T17:49:54Z</time>
  <course>122.94</course>
  <speed>0.0</speed>
  <fix>3d</fix>
</trkpt>
<trkpt lat="40.0713671" lon="-105.2298254">
  <ele>1583.09</ele>
  <time>2026-08-28T17:49:54Z</time>
  <course>297.59</course>
  <speed>0.022360679774997897</speed>
  <fix>3d</fix>
</trkpt>
<trkpt lat="40.071367" lon="-105.2298256">
  <ele>1583.0</ele>
  <time>2026-08-28T17:49:54Z</time>
  <course>122.94</course>
  <speed>0.0</speed>
  <fix>3d</fix>
</trkpt>
<trkpt lat="40.0713671" lon="-105.2298254">
  <ele>1583.09</ele>
  <time>2026-08-28T17:49:54Z</time>
  <course>297.6</course>
  <speed>0.022360679774997897</speed>
  <fix>3d</fix>
</trkpt>
<trkpt lat="40.071367" lon="-105.2298256">
  <ele>1583.0</ele>
  <time>2026-08-28T17:49:54Z</time>
  <course>123.58</course>
  <speed>0.0</speed>
  <fix>3d</fix>
</trkpt>
<trkpt lat="40.0713671" lon="-105.2298254">
  <ele>1583.08</ele>
  <time>2026-08-28T17:49:54Z</time>
  <course>297.6</course>
  <speed>0.022360679774997897</speed>
  <fix>3d</fix>
</trkpt>
<trkpt lat="40.071367" lon="-105.2298256">
  <ele>1583.0</ele>
  <time>2026-08-28T17:49:54Z</time>
  <course>123.58</course>
  <speed>0.0</speed>
  <fix>3d</fix>
</trkpt>
<trkpt lat="40.0713671" lon="-105.2298254">
  <ele>1583.07</ele>
  <time>2026-08-28T17:49:54Z</time>
  <course>297.6</course>
  <speed>0.022360679774997897</speed>
  <fix>3d</fix>
</trkpt>
<trkpt lat="40.071367" lon="-105.2298256">
  <ele>1583.0</ele>
  <time>2026-08-28T17:49:54Z</time>
  <course>124.29</course>
  <speed>0.0</speed>
  <fix>3d</fix>
</trkpt>
<trkpt lat="40.0713671" lon="-105.2298254">
  <ele>1583.07</ele>
  <time>2026-08-28T17:49:54Z</time>
  <course>297.6</course>
  <speed>0.022360679774997897</speed>
  <fix>3d</fix>
</trkpt>
<trkpt lat="40.071367" lon="-105.2298256">
  <ele>1583.0</ele>
  <time>2026-08-28T17:49:54Z</time>
  <course>124.29</course>
  <speed>0.0</speed>
  <fix>3d</fix>
</trkpt>
<trkpt lat="40.0713671" lon="-105.2298254">
  <ele>1583.06</ele>
  <time>2026-08-28T17:49:54Z</time>
  <course>297.6</course>
  <speed>0.022360679774997897</speed>
  <fix>3d</fix>
</trkpt>
<trkpt lat="40.071367" lon="-105.2298256">
  <ele>1583.0</ele>
  <time>2026-08-28T17:49:54Z</time>
  <course>125.08</course>
  <speed>0.0</speed>
  <fix>3d</fix>
</trkpt>
<trkpt lat="40.0713671" lon="-105.2298254">
  <ele>1583.05</ele>
  <time>2026-08-28T17:49:54Z</time>
  <course>297.6</course>
  <speed>0.022360679774997897</speed>
  <fix>3d</fix>
</trkpt>
<trkpt lat="40.071367" lon="-105.2298256">
  <ele>1583.0</ele>
  <time>2026-08-28T17:49:54Z</time>
  <course>125.08</course>
  <speed>0.0</speed>
  <fix>3d</fix>
</trkpt>
<trkpt lat="40.0713671" lon="-105.2298254">
  <ele>1583.04</ele>
  <time>2026-08-28T17:49:54Z</time>
  <course>297.6</course>
  <speed>0.022360679774997897</speed>
  <fix>3d</fix>
</trkpt>
<trkpt lat="40.071367" lon="-105.2298256">
  <ele>1583.0</ele>
  <time>2026-08-28T17:49:54Z</time>
  <course>125.93</course>
  <speed>0.0</speed>
  <fix>3d</fix>
</trkpt>
<trkpt lat="40.0713671" lon="-105.2298254">
  <ele>1583.04</ele>
  <time>2026-08-28T17:49:54Z</time>
  <course>297.6</course>
  <speed>0.022360679774997897</speed>
  <fix>3d</fix>
</trkpt>
<trkpt lat="40.071367" lon="-105.2298256">
  <ele>1583.0</ele>
  <time>2026-08-28T17:49:54Z</time>
  <course>125.93</course>
  <speed>0.0</speed>
  <fix>3d</fix>
</trkpt>
<trkpt lat="40.0713671" lon="-105.2298254">
  <ele>1583.03</ele>
  <time>2026-08-28T17:49:54Z</time>
  <course>297.6</course>
  <speed>0.022360679774997897</speed>
  <fix>3d</fix>
</trkpt>
<trkpt lat="40.071367" lon="-105.2298256">
  <ele>1583.0</ele>
  <time>2026-08-28T17:49:54Z</time>
  <course>126.88</course>
  <speed>0.0</speed>
  <fix>3d</fix>
</trkpt>
<trkpt lat="40.0713671" lon="-105.2298254">
  <ele>1583.03</ele>
  <time>2026-08-28T17:49:54Z</time>
  <course>297.61</course>
  <speed>0.022360679774997897</speed>
  <fix>3d</fix>
</trkpt>
<trkpt lat="40.071367" lon="-105.2298256">
  <ele>1583.0</ele>
  <time>2026-08-28T17:49:54Z</time>
  <course>126.88</course>
  <speed>0.0</speed>
  <fix>3d</fix>
</trkpt>
<trkpt lat="40.0713671" lon="-105.2298254">
  <ele>1583.03</ele>
  <time>2026-08-28T17:49:54Z</time>
  <course>297.61</course>
  <speed>0.022360679774997897</speed>
  <fix>3d</fix>
</trkpt>
<trkpt lat="40.071367" lon="-105.2298256">
  <ele>1583.0</ele>
  <time>2026-08-28T17:49:54Z</time>
  <course>127.91</course>
  <speed>0.0</speed>
  <fix>3d</fix>
</trkpt>
<trkpt lat="40.0713671" lon="-105.2298254">
  <ele>1583.03</ele>
  <time>2026-08-28T17:49:54Z</time>
  <course>297.61</course>
  <speed>0.022360679774997897</speed>
  <fix>3d</fix>
</trkpt>
<trkpt lat="40.071367" lon="-105.2298256">
  <ele>1583.0</ele>
  <time>2026-08-28T17:49:54Z</time>
  <course>127.91</course>
  <speed>0.0</speed>
  <fix>3d</fix>
</trkpt>
<trkpt lat="40.0713671" lon="-105.2298254">
  <ele>1583.03</ele>
  <time>2026-08-28T17:49:54Z</time>
  <course>297.61</course>
  <speed>0.022360679774997897</speed>
  <fix>3d</fix>
</trkpt>
<trkpt lat="40.071367" lon="-105.2298256">
  <ele>1583.0</ele>
  <time>2026-08-28T17:49:54Z</time>
  <course>129.05</course>
  <speed>0.0</speed>
  <fix>3d</fix>
</trkpt>
<trkpt lat="40.0713671" lon="-105.2298254">
  <ele>1583.04</ele>
  <time>2026-08-28T17:49:54Z</time>
  <course>297.61</course>
  <speed>0.022360679774997897</speed>
  <fix>3d</fix>
</trkpt>
<trkpt lat="40.071367" lon="-105.2298256">
  <ele>1583.0</ele>
  <time>2026-08-28T17:49:54Z</time>
  <course>129.05</course>
  <speed>0.0</speed>
  <fix>3d</fix>
</trkpt>
<trkpt lat="40.0713671" lon="-105.2298254">
  <ele>1583.04</ele>
  <time>2026-08-28T17:49:54Z</time>
  <course>297.61</course>
  <speed>0.022360679774997897</speed>
  <fix>3d</fix>
</trkpt>
<trkpt lat="40.071367" lon="-105.2298256">
  <ele>1583.0</ele>
  <time>2026-08-28T17:49:54Z</time>
  <course>130.3</course>
  <speed>0.0</speed>
  <fix>3d</fix>
</trkpt>
<trkpt lat="40.0713671" lon="-105.2298254">
  <ele>1583.04</ele>
  <time>2026-08-28T17:49:54Z</time>
  <course>297.61</course>
  <speed>0.022360679774997897</speed>
  <fix>3d</fix>
</trkpt>
<trkpt lat="40.071367" lon="-105.2298256">
  <ele>1583.0</ele>
  <time>2026-08-28T17:49:54Z</time>
  <course>130.3</course>
  <speed>0.0</speed>
  <fix>3d</fix>
</trkpt>
<trkpt lat="40.0713671" lon="-105.2298254">
  <ele>1583.04</ele>
  <time>2026-08-28T17:49:54Z</time>
  <course>297.61</course>
  <speed>0.022360679774997897</speed>
  <fix>3d</fix>
</trkpt>
<trkpt lat="40.071367" lon="-105.2298256">
  <ele>1583.0</ele>
  <time>2026-08-28T17:49:54Z</time>
  <course>131.66</course>
  <speed>0.0</speed>
  <fix>3d</fix>
</trkpt>
<trkpt lat="40.0713671" lon="-105.2298254">
  <ele>1583.04</ele>
  <time>2026-08-28T17:49:54Z</time>
  <course>297.61</course>
  <speed>0.022360679774997897</speed>
  <fix>3d</fix>
</trkpt>
<trkpt lat="40.071367" lon="-105.2298256">
  <ele>1583.0</ele>
  <time>2026-08-28T17:49:54Z</time>
  <course>131.66</course>
  <speed>0.0</speed>
  <fix>3d</fix>
</trkpt>
<trkpt lat="40.0713671" lon="-105.2298254">
  <ele>1583.04</ele>
  <time>2026-08-28T17:49:54Z</time>
  <course>297.62</course>
  <speed>0.022360679774997897</speed>
  <fix>3d</fix>
</trkpt>
<trkpt lat="40.071367" lon="-105.2298256">
  <ele>1583.0</ele>
  <time>2026-08-28T17:49:54Z</time>
  <course>133.14</course>
  <speed>0.0</speed>
  <fix>3d</fix>
</trkpt>
<trkpt lat="40.0713671" lon="-105.2298254">
  <ele>1583.05</ele>
  <time>2026-08-28T17:49:54Z</time>
  <course>297.62</course>
  <speed>0.022360679774997897</speed>
  <fix>3d</fix>
</trkpt>
<trkpt lat="40.071367" lon="-105.2298256">
  <ele>1583.0</ele>
  <time>2026-08-28T17:49:54Z</time>
  <course>133.14</course>
  <speed>0.0</speed>
  <fix>3d</fix>
</trkpt>
<trkpt lat="40.0713671" lon="-105.2298254">
  <ele>1583.05</ele>
  <time>2026-08-28T17:49:54Z</time>
  <course>297.62</course>
  <speed>0.022360679774997897</speed>
  <fix>3d</fix>
</trkpt>
<trkpt lat="40.071367" lon="-105.2298256">
  <ele>1583.0</ele>
  <time>2026-08-28T17:49:54Z</time>
  <course>134.76</course>
  <speed>0.0</speed>
  <fix>3d</fix>
</trkpt>
<trkpt lat="40.0713671" lon="-105.2298254">
  <ele>1583.05</ele>
  <time>2026-08-28T17:49:54Z</time>
  <course>297.62</course>
  <speed>0.022360679774997897</speed>
  <fix>3d</fix>
</trkpt>
<trkpt lat="40.071367" lon="-105.2298256">
  <ele>1583.0</ele>
  <time>2026-08-28T17:49:54Z</time>
  <course>134.76</course>
  <speed>0.0</speed>
  <fix>3d</fix>
</trkpt>
<trkpt lat="40.0713671" lon="-105.2298254">
  <ele>1583.06</ele>
  <time>2026-08-28T17:49:54Z</time>
  <course>297.62</course>
  <speed>0.022360679774997897</speed>
  <fix>3d</fix>
</trkpt>
<trkpt lat="40.071367" lon="-105.2298256">
  <ele>1583.0</ele>
  <time>2026-08-28T17:49:54Z</time>
  <course>136.51</course>
  <speed>0.0</speed>
  <fix>3d</fix>
</trkpt>
<trkpt lat="40.0713671" lon="-105.2298254">
  <ele>1583.06</ele>
  <time>2026-08-28T17:49:54Z</time>
  <course>297.62</course>
  <speed>0.022360679774997897</speed>
  <fix>3d</fix>
</trkpt>
<trkpt lat="40.071367" lon="-105.2298256">
  <ele>1583.0</ele>
  <time>2026-08-28T17:49:54Z</time>
  <course>136.51</course>
  <speed>0.0</speed>
  <fix>3d</fix>
</trkpt>
<trkpt lat="40.0713671" lon="-105.2298254">
  <ele>1583.07</ele>
  <time>2026-08-28T17:49:54Z</time>
  <course>297.62</course>
  <speed>0.022360679774997897</speed>
  <fix>3d</fix>
</trkpt>
<trkpt lat="40.071367" lon="-105.2298256">
  <ele>1583.0</ele>
  <time>2026-08-28T17:49:54Z</time>
  <course>138.4</course>
  <speed>0.0</speed>
  <fix>3d</fix>
</trkpt>
<trkpt lat="40.0713671" lon="-105.2298254">
  <ele>1583.07</ele>
  <time>2026-08-28T17:49:54Z</time>
  <course>297.62</course>
  <speed>0.022360679774997897</speed>
  <fix>3d</fix>
</trkpt>
<trkpt lat="40.071367" lon="-105.2298256">
  <ele>1583.0</ele>
  <time>2026-08-28T17:49:54Z</time>
  <course>138.4</course>
  <speed>0.0</speed>
  <fix>3d</fix>
</trkpt>
<trkpt lat="40.0713671" lon="-105.2298254">
  <ele>1583.08</ele>
  <time>2026-08-28T17:49:54Z</time>
  <course>297.62</course>
  <speed>0.022360679774997897</speed>
  <fix>3d</fix>
</trkpt>
<trkpt lat="40.071367" lon="-105.2298256">
  <ele>1583.0</ele>
  <time>2026-08-28T17:49:54Z</time>
  <course>140.44</course>
  <speed>0.0</speed>
  <fix>3d</fix>
</trkpt>
<trkpt lat="40.0713671" lon="-105.2298254">
  <ele>1583.09</ele>
  <time>2026-08-28T17:49:54Z</time>
  <course>297.63</course>
  <speed>0.022360679774997897</speed>
  <fix>3d</fix>
</trkpt>
<trkpt lat="40.071367" lon="-105.2298256">
  <ele>1583.0</ele>
  <time>2026-08-28T17:49:54Z</time>
  <course>140.44</course>
  <speed>0.0</speed>
  <fix>3d</fix>
</trkpt>
<trkpt lat="40.0713671" lon="-105.2298254">
  <ele>1583.09</ele>
  <time>2026-08-28T17:49:54Z</time>
  <course>297.63</course>
  <speed>0.022360679774997897</speed>
  <fix>3d</fix>
</trkpt>
<trkpt lat="40.071367" lon="-105.2298256">
  <ele>1583.0</ele>
  <time>2026-08-28T17:49:54Z</time>
  <course>142.62</course>
  <speed>0.0</speed>
  <fix>3d</fix>
</trkpt>
<trkpt lat="40.0713671" lon="-105.2298254">
  <ele>1583.08</ele>
  <time>2026-08-28T17:49:54Z</time>
  <course>297.63</course>
  <speed>0.022360679774997897</speed>
  <fix>3d</fix>
</trkpt>
<trkpt lat="40.071367" lon="-105.2298256">
  <ele>1583.0</ele>
  <time>2026-08-28T17:49:54Z</time>
  <course>142.62</course>
  <speed>0.0</speed>
  <fix>3d</fix>
</trkpt>
<trkpt lat="40.0713671" lon="-105.2298254">
  <ele>1583.08</ele>
  <time>2026-08-28T17:49:54Z</time>
  <course>297.63</course>
  <speed>0.022360679774997897</speed>
  <fix>3d</fix>
</trkpt>
<trkpt lat="40.071367" lon="-105.2298256">
  <ele>1583.0</ele>
  <time>2026-08-28T17:49:54Z</time>
  <course>144.93</course>
  <speed>0.0</speed>
  <fix>3d</fix>
</trkpt>
<trkpt lat="40.0713671" lon="-105.2298254">
  <ele>1583.07</ele>
  <time>2026-08-28T17:49:54Z</time>
  <course>297.63</course>
  <speed>0.022360679774997897</speed>
  <fix>3d</fix>
</trkpt>
<trkpt lat="40.071367" lon="-105.2298256">
  <ele>1583.0</ele>
  <time>2026-08-28T17:49:54Z</time>
  <course>144.93</course>
  <speed>0.0</speed>
  <fix>3d</fix>
</trkpt>
<trkpt lat="40.0713671" lon="-105.2298254">
  <ele>1583.06</ele>
  <time>2026-08-28T17:49:54Z</time>
  <course>297.63</course>
  <speed>0.022360679774997897</speed>
  <fix>3d</fix>
</trkpt>
<trkpt lat="40.071367" lon="-105.2298256">
  <ele>1583.0</ele>
  <time>2026-08-28T17:49:54Z</time>
  <course>147.38</course>
  <speed>0.0</speed>
  <fix>3d</fix>
</trkpt>
<trkpt lat="40.0713671" lon="-105.2298254">
  <ele>1583.05</ele>
  <time>2026-08-28T17:49:54Z</time>
  <course>297.63</course>
  <speed>0.022360679774997897</speed>
  <fix>3d</fix>
</trkpt>
<trkpt lat="40.071367" lon="-105.2298256">
  <ele>1583.0</ele>
  <time>2026-08-28T17:49:54Z</time>
  <course>147.38</course>
  <speed>0.0</speed>
  <fix>3d</fix>
</trkpt>
<trkpt lat="40.0713671" lon="-105.2298254">
  <ele>1583.04</ele>
  <time>2026-08-28T17:49:54Z</time>
  <course>297.63</course>
  <speed>0.022360679774997897</speed>
  <fix>3d</fix>
</trkpt>
<trkpt lat="40.071367" lon="-105.2298256">
  <ele>1583.0</ele>
  <time>2026-08-28T17:49:54Z</time>
  <course>149.95</course>
  <speed>0.0</speed>
  <fix>3d</fix>
</trkpt>
<trkpt lat="40.0713671" lon="-105.2298254">
  <ele>1583.04</ele>
  <time>2026-08-28T17:49:54Z</time>
  <course>297.63</course>
  <speed>0.022360679774997897</speed>
  <fix>3d</fix>
</trkpt>
<trkpt lat="40.071367" lon="-105.2298256">
  <ele>1583.0</ele>
  <time>2026-08-28T17:49:54Z</time>
  <course>149.95</course>
  <speed>0.0</speed>
  <fix>3d</fix>
</trkpt>
<trkpt lat="40.0713671" lon="-105.2298254">
  <ele>1583.03</ele>
  <time>2026-08-28T17:49:54Z</time>
  <course>297.64</course>
  <speed>0.022360679774997897</speed>
  <fix>3d</fix>
</trkpt>
<trkpt lat="40.071367" lon="-105.2298256">
  <ele>1583.0</ele>
  <time>2026-08-28T17:49:54Z</time>
  <course>152.62</course>
  <speed>0.0</speed>
  <fix>3d</fix>
</trkpt>
<trkpt lat="40.0713671" lon="-105.2298254">
  <ele>1583.02</ele>
  <time>2026-08-28T17:49:54Z</time>
  <course>297.64</course>
  <speed>0.022360679774997897</speed>
  <fix>3d</fix>
</trkpt>
<trkpt lat="40.071367" lon="-105.2298256">
  <ele>1583.0</ele>
  <time>2026-08-28T17:49:54Z</time>
  <course>152.62</course>
  <speed>0.0</speed>
  <fix>3d</fix>
</trkpt>
<trkpt lat="40.0713671" lon="-105.2298254">
  <ele>1583.02</ele>
  <time>2026-08-28T17:49:54Z</time>
  <course>297.64</course>
  <speed>0.022360679774997897</speed>
  <fix>3d</fix>
</trkpt>
<trkpt lat="40.071367" lon="-105.2298256">
  <ele>1583.0</ele>
  <time>2026-08-28T17:49:54Z</time>
  <course>155.38</course>
  <speed>0.0</speed>
  <fix>3d</fix>
</trkpt>
<trkpt lat="40.0713671" lon="-105.2298254">
  <ele>1583.02</ele>
  <time>2026-08-28T17:49:54Z</time>
  <course>297.64</course>
  <speed>0.022360679774997897</speed>
  <fix>3d</fix>
</trkpt>
<trkpt lat="40.071367" lon="-105.2298256">
  <ele>1583.0</ele>
  <time>2026-08-28T17:49:54Z</time>
  <course>155.38</course>
  <speed>0.0</speed>
  <fix>3d</fix>
</trkpt>
<trkpt lat="40.0713671" lon="-105.2298254">
  <ele>1583.01</ele>
  <time>2026-08-28T17:49:54Z</time>
  <course>297.64</course>
  <speed>0.022360679774997897</speed>
  <fix>3d</fix>
</trkpt>
<trkpt lat="40.071367" lon="-105.2298256">
  <ele>1583.0</ele>
  <time>2026-08-28T17:49:54Z</time>
  <course>158.2</course>
  <speed>0.0</speed>
  <fix>3d</fix>
</trkpt>
<trkpt lat="40.0713671" lon="-105.2298254">
  <ele>1583.01</ele>
  <time>2026-08-28T17:49:54Z</time>
  <course>297.64</course>
  <speed>0.022360679774997897</speed>
  <fix>3d</fix>
</trkpt>
<trkpt lat="40.071367" lon="-105.2298256">
  <ele>1583.0</ele>
  <time>2026-08-28T17:49:54Z</time>
  <course>158.2</course>
  <speed>0.0</speed>
  <fix>3d</fix>
</trkpt>
<trkpt lat="40.0713671" lon="-105.2298254">
  <ele>1583.02</ele>
  <time>2026-08-28T17:49:54Z</time>
  <course>297.64</course>
  <speed>0.022360679774997897</speed>
  <fix>3d</fix>
</trkpt>
<trkpt lat="40.071367" lon="-105.2298256">
  <ele>1583.0</ele>
  <time>2026-08-28T17:49:54Z</time>
  <course>161.05</course>
  <speed>0.0</speed>
  <fix>3d</fix>
</trkpt>
<trkpt lat="40.0713671" lon="-105.2298254">
  <ele>1583.02</ele>
  <time>2026-08-28T17:49:55Z</time>
  <course>297.65</course>
  <speed>0.022360679774997897</speed>
  <fix>3d</fix>
</trkpt>
<trkpt lat="40.071367" lon="-105.2298256">
  <ele>1583.0</ele>
  <time>2026-08-28T17:49:55Z</time>
  <course>166.77</course>
  <speed>0.0</speed>
  <fix>3d</fix>
</trkpt>
<trkpt lat="40.0713671" lon="-105.2298254">
  <ele>1583.02</ele>
  <time>2026-08-28T17:49:55Z</time>
  <course>297.65</course>
  <speed>0.022360679774997897</speed>
  <fix>3d</fix>
</trkpt>
<trkpt lat="40.071367" lon="-105.2298256">
  <ele>1583.0</ele>
  <time>2026-08-28T17:49:55Z</time>
  <course>169.56</course>
  <speed>0.0</speed>
  <fix>3d</fix>
</trkpt>
<trkpt lat="40.0713671" lon="-105.2298254">
  <ele>1583.01</ele>
  <time>2026-08-28T17:49:55Z</time>
  <course>297.65</course>
  <speed>0.022360679774997897</speed>
  <fix>3d</fix>
</trkpt>
<trkpt lat="40.071367" lon="-105.2298256">
  <ele>1583.0</ele>
  <time>2026-08-28T17:49:55Z</time>
  <course>169.56</course>
  <speed>0.0</speed>
  <fix>3d</fix>
</trkpt>
<trkpt lat="40.0713671" lon="-105.2298254">
  <ele>1583.0</ele>
  <time>2026-08-28T17:49:55Z</time>
  <course>297.65</course>
  <speed>0.022360679774997897</speed>
  <fix>3d</fix>
</trkpt>
<trkpt lat="40.0713669" lon="-105.2298256">
  <ele>1583.0</ele>
  <time>2026-08-28T17:49:55Z</time>
  <course>172.28</course>
  <speed>0.0</speed>
  <fix>3d</fix>
</trkpt>
<trkpt lat="40.0713671" lon="-105.2298254">
  <ele>1582.99</ele>
  <time>2026-08-28T17:49:55Z</time>
  <course>297.65</course>
  <speed>0.022360679774997897</speed>
  <fix>3d</fix>
</trkpt>
<trkpt lat="40.0713669" lon="-105.2298256">
  <ele>1583.0</ele>
  <time>2026-08-28T17:49:55Z</time>
  <course>174.9</course>
  <speed>0.0</speed>
  <fix>3d</fix>
</trkpt>
<trkpt lat="40.0713671" lon="-105.2298254">
  <ele>1582.98</ele>
  <time>2026-08-28T17:49:55Z</time>
  <course>297.65</course>
  <speed>0.022360679774997897</speed>
  <fix>3d</fix>
</trkpt>
<trkpt lat="40.0713669" lon="-105.2298256">
  <ele>1583.0</ele>
  <time>2026-08-28T17:49:55Z</time>
  <course>174.9</course>
  <speed>0.0</speed>
  <fix>3d</fix>
</trkpt>
<trkpt lat="40.0713671" lon="-105.2298254">
  <ele>1582.96</ele>
  <time>2026-08-28T17:49:55Z</time>
  <course>297.65</course>
  <speed>0.02</speed>
  <fix>3d</fix>
</trkpt>
<trkpt lat="40.0713669" lon="-105.2298256">
  <ele>1583.0</ele>
  <time>2026-08-28T17:49:55Z</time>
  <course>177.41</course>
  <speed>0.0</speed>
  <fix>3d</fix>
</trkpt>
<trkpt lat="40.0713671" lon="-105.2298254">
  <ele>1582.96</ele>
  <time>2026-08-28T17:49:55Z</time>
  <course>297.66</course>
  <speed>0.02</speed>
  <fix>3d</fix>
</trkpt>
<trkpt lat="40.0713669" lon="-105.2298256">
  <ele>1583.0</ele>
  <time>2026-08-28T17:49:55Z</time>
  <course>179.8</course>
  <speed>0.0</speed>
  <fix>3d</fix>
</trkpt>
<trkpt lat="40.0713671" lon="-105.2298254">
  <ele>1582.95</ele>
  <time>2026-08-28T17:49:55Z</time>
  <course>297.66</course>
  <speed>0.02</speed>
  <fix>3d</fix>
</trkpt>
<trkpt lat="40.0713669" lon="-105.2298256">
  <ele>1583.0</ele>
  <time>2026-08-28T17:49:55Z</time>
  <course>179.8</course>
  <speed>0.0</speed>
  <fix>3d</fix>
</trkpt>
<trkpt lat="40.0713671" lon="-105.2298254">
  <ele>1582.94</ele>
  <time>2026-08-28T17:49:55Z</time>
  <course>297.66</course>
  <speed>0.02</speed>
  <fix>3d</fix>
</trkpt>
<trkpt lat="40.0713669" lon="-105.2298256">
  <ele>1583.0</ele>
  <time>2026-08-28T17:49:55Z</time>
  <course>182.04</course>
  <speed>0.0</speed>
  <fix>3d</fix>
</trkpt>
<trkpt lat="40.0713671" lon="-105.2298254">
  <ele>1582.94</ele>
  <time>2026-08-28T17:49:55Z</time>
  <course>297.66</course>
  <speed>0.02</speed>
  <fix>3d</fix>
</trkpt>
<trkpt lat="40.0713669" lon="-105.2298256">
  <ele>1583.0</ele>
  <time>2026-08-28T17:49:55Z</time>
  <course>182.04</course>
  <speed>0.0</speed>
  <fix>3d</fix>
</trkpt>
<trkpt lat="40.0713671" lon="-105.2298254">
  <ele>1582.93</ele>
  <time>2026-08-28T17:49:55Z</time>
  <course>297.66</course>
  <speed>0.02</speed>
  <fix>3d</fix>
</trkpt>
<trkpt lat="40.0713669" lon="-105.2298256">
  <ele>1583.0</ele>
  <time>2026-08-28T17:49:55Z</time>
  <course>184.15</course>
  <speed>0.0</speed>
  <fix>3d</fix>
</trkpt>
<trkpt lat="40.0713671" lon="-105.2298254">
  <ele>1582.93</ele>
  <time>2026-08-28T17:49:55Z</time>
  <course>297.66</course>
  <speed>0.02</speed>
  <fix>3d</fix>
</trkpt>
<trkpt lat="40.0713669" lon="-105.2298256">
  <ele>1583.0</ele>
  <time>2026-08-28T17:49:55Z</time>
  <course>184.15</course>
  <speed>0.0</speed>
  <fix>3d</fix>
</trkpt>
<trkpt lat="40.0713671" lon="-105.2298254">
  <ele>1582.92</ele>
  <time>2026-08-28T17:49:55Z</time>
  <course>297.66</course>
  <speed>0.02</speed>
  <fix>3d</fix>
</trkpt>
<trkpt lat="40.0713669" lon="-105.2298256">
  <ele>1583.0</ele>
  <time>2026-08-28T17:49:55Z</time>
  <course>186.11</course>
  <speed>0.0</speed>
  <fix>3d</fix>
</trkpt>
<trkpt lat="40.0713671" lon="-105.2298254">
  <ele>1582.91</ele>
  <time>2026-08-28T17:49:55Z</time>
  <course>297.66</course>
  <speed>0.02</speed>
  <fix>3d</fix>
</trkpt>
<trkpt lat="40.0713669" lon="-105.2298256">
  <ele>1583.0</ele>
  <time>2026-08-28T17:49:55Z</time>
  <course>186.11</course>
  <speed>0.0</speed>
  <fix>3d</fix>
</trkpt>
<trkpt lat="40.0713671" lon="-105.2298254">
  <ele>1582.91</ele>
  <time>2026-08-28T17:49:55Z</time>
  <course>297.66</course>
  <speed>0.02</speed>
  <fix>3d</fix>
</trkpt>
<trkpt lat="40.0713669" lon="-105.2298256">
  <ele>1583.0</ele>
  <time>2026-08-28T17:49:55Z</time>
  <course>187.93</course>
  <speed>0.0</speed>
  <fix>3d</fix>
</trkpt>
<trkpt lat="40.0713671" lon="-105.2298254">
  <ele>1582.9</ele>
  <time>2026-08-28T17:49:55Z</time>
  <course>297.66</course>
  <speed>0.02</speed>
  <fix>3d</fix>
</trkpt>
<trkpt lat="40.0713669" lon="-105.2298256">
  <ele>1583.0</ele>
  <time>2026-08-28T17:49:55Z</time>
  <course>187.93</course>
  <speed>0.0</speed>
  <fix>3d</fix>
</trkpt>
<trkpt lat="40.071367" lon="-105.2298254">
  <ele>1582.89</ele>
  <time>2026-08-28T17:49:55Z</time>
  <course>297.66</course>
  <speed>0.02</speed>
  <fix>3d</fix>
</trkpt>
<trkpt lat="40.0713669" lon="-105.2298256">
  <ele>1583.0</ele>
  <time>2026-08-28T17:49:55Z</time>
  <course>187.93</course>
  <speed>0.0</speed>
  <fix>3d</fix>
</trkpt>
<trkpt lat="40.071367" lon="-105.2298254">
  <ele>1582.89</ele>
  <time>2026-08-28T17:49:55Z</time>
  <course>297.67</course>
  <speed>0.02</speed>
  <fix>3d</fix>
</trkpt>
<trkpt lat="40.0713669" lon="-105.2298256">
  <ele>1583.0</ele>
  <time>2026-08-28T17:49:55Z</time>
  <course>189.62</course>
  <speed>0.0</speed>
  <fix>3d</fix>
</trkpt>
<trkpt lat="40.071367" lon="-105.2298254">
  <ele>1582.89</ele>
  <time>2026-08-28T17:49:55Z</time>
  <course>297.67</course>
  <speed>0.02</speed>
  <fix>3d</fix>
</trkpt>
<trkpt lat="40.0713669" lon="-105.2298256">
  <ele>1583.0</ele>
  <time>2026-08-28T17:49:55Z</time>
  <course>189.62</course>
  <speed>0.0</speed>
  <fix>3d</fix>
</trkpt>
<trkpt lat="40.071367" lon="-105.2298254">
  <ele>1582.89</ele>
  <time>2026-08-28T17:49:55Z</time>
  <course>297.67</course>
  <speed>0.02</speed>
  <fix>3d</fix>
</trkpt>
<trkpt lat="40.0713669" lon="-105.2298256">
  <ele>1583.0</ele>
  <time>2026-08-28T17:49:55Z</time>
  <course>191.17</course>
  <speed>0.0</speed>
  <fix>3d</fix>
</trkpt>
<trkpt lat="40.071367" lon="-105.2298254">
  <ele>1582.89</ele>
  <time>2026-08-28T17:49:55Z</time>
  <course>297.67</course>
  <speed>0.02</speed>
  <fix>3d</fix>
</trkpt>
<trkpt lat="40.0713669" lon="-105.2298256">
  <ele>1583.0</ele>
  <time>2026-08-28T17:49:55Z</time>
  <course>191.17</course>
  <speed>0.0</speed>
  <fix>3d</fix>
</trkpt>
<trkpt lat="40.071367" lon="-105.2298254">
  <ele>1582.89</ele>
  <time>2026-08-28T17:49:55Z</time>
  <course>297.67</course>
  <speed>0.02</speed>
  <fix>3d</fix>
</trkpt>
<trkpt lat="40.0713669" lon="-105.2298256">
  <ele>1583.0</ele>
  <time>2026-08-28T17:49:55Z</time>
  <course>192.59</course>
  <speed>0.0</speed>
  <fix>3d</fix>
</trkpt>
<trkpt lat="40.071367" lon="-105.2298254">
  <ele>1582.89</ele>
  <time>2026-08-28T17:49:55Z</time>
  <course>297.67</course>
  <speed>0.02</speed>
  <fix>3d</fix>
</trkpt>
<trkpt lat="40.0713669" lon="-105.2298256">
  <ele>1583.0</ele>
  <time>2026-08-28T17:49:55Z</time>
  <course>193.9</course>
  <speed>0.0</speed>
  <fix>3d</fix>
</trkpt>
<trkpt lat="40.071367" lon="-105.2298254">
  <ele>1582.89</ele>
  <time>2026-08-28T17:49:55Z</time>
  <course>297.67</course>
  <speed>0.02</speed>
  <fix>3d</fix>
</trkpt>
<trkpt lat="40.0713669" lon="-105.2298256">
  <ele>1583.0</ele>
  <time>2026-08-28T17:49:55Z</time>
  <course>193.9</course>
  <speed>0.0</speed>
  <fix>3d</fix>
</trkpt>
<trkpt lat="40.071367" lon="-105.2298254">
  <ele>1582.89</ele>
  <time>2026-08-28T17:49:55Z</time>
  <course>297.67</course>
  <speed>0.02</speed>
  <fix>3d</fix>
</trkpt>
<trkpt lat="40.0713669" lon="-105.2298256">
  <ele>1583.0</ele>
  <time>2026-08-28T17:49:55Z</time>
  <course>195.09</course>
  <speed>0.0</speed>
  <fix>3d</fix>
</trkpt>
<trkpt lat="40.071367" lon="-105.2298254">
  <ele>1582.89</ele>
  <time>2026-08-28T17:49:55Z</time>
  <course>297.67</course>
  <speed>0.02</speed>
  <fix>3d</fix>
</trkpt>
<trkpt lat="40.0713669" lon="-105.2298256">
  <ele>1583.0</ele>
  <time>2026-08-28T17:49:55Z</time>
  <course>195.09</course>
  <speed>0.0</speed>
  <fix>3d</fix>
</trkpt>
<trkpt lat="40.071367" lon="-105.2298254">
  <ele>1582.89</ele>
  <time>2026-08-28T17:49:55Z</time>
  <course>297.67</course>
  <speed>0.02</speed>
  <fix>3d</fix>
</trkpt>
<trkpt lat="40.0713669" lon="-105.2298256">
  <ele>1583.0</ele>
  <time>2026-08-28T17:49:55Z</time>
  <course>196.17</course>
  <speed>0.0</speed>
  <fix>3d</fix>
</trkpt>
<trkpt lat="40.071367" lon="-105.2298254">
  <ele>1582.89</ele>
  <time>2026-08-28T17:49:55Z</time>
  <course>297.67</course>
  <speed>0.02</speed>
  <fix>3d</fix>
</trkpt>
<trkpt lat="40.0713669" lon="-105.2298256">
  <ele>1583.0</ele>
  <time>2026-08-28T17:49:55Z</time>
  <course>196.17</course>
  <speed>0.0</speed>
  <fix>3d</fix>
</trkpt>
<trkpt lat="40.071367" lon="-105.2298254">
  <ele>1582.89</ele>
  <time>2026-08-28T17:49:55Z</time>
  <course>297.67</course>
  <speed>0.02</speed>
  <fix>3d</fix>
</trkpt>
<trkpt lat="40.0713669" lon="-105.2298256">
  <ele>1583.0</ele>
  <time>2026-08-28T17:49:55Z</time>
  <course>197.16</course>
  <speed>0.0</speed>
  <fix>3d</fix>
</trkpt>
<trkpt lat="40.071367" lon="-105.2298254">
  <ele>1582.9</ele>
  <time>2026-08-28T17:49:55Z</time>
  <course>297.68</course>
  <speed>0.02</speed>
  <fix>3d</fix>
</trkpt>
<trkpt lat="40.0713669" lon="-105.2298256">
  <ele>1583.0</ele>
  <time>2026-08-28T17:49:55Z</time>
  <course>197.16</course>
  <speed>0.0</speed>
  <fix>3d</fix>
</trkpt>
<trkpt lat="40.071367" lon="-105.2298254">
  <ele>1582.9</ele>
  <time>2026-08-28T17:49:55Z</time>
  <course>297.68</course>
  <speed>0.02</speed>
  <fix>3d</fix>
</trkpt>
<trkpt lat="40.0713669" lon="-105.2298256">
  <ele>1583.0</ele>
  <time>2026-08-28T17:49:55Z</time>
  <course>198.06</course>
  <speed>0.0</speed>
  <fix>3d</fix>
</trkpt>
<trkpt lat="40.071367" lon="-105.2298254">
  <ele>1582.9</ele>
  <time>2026-08-28T17:49:55Z</time>
  <course>297.68</course>
  <speed>0.02</speed>
  <fix>3d</fix>
</trkpt>
<trkpt lat="40.0713669" lon="-105.2298256">
  <ele>1583.0</ele>
  <time>2026-08-28T17:49:55Z</time>
  <course>198.06</course>
  <speed>0.0</speed>
  <fix>3d</fix>
</trkpt>
<trkpt lat="40.071367" lon="-105.2298254">
  <ele>1582.89</ele>
  <time>2026-08-28T17:49:55Z</time>
  <course>297.68</course>
  <speed>0.02</speed>
  <fix>3d</fix>
</trkpt>
<trkpt lat="40.0713669" lon="-105.2298256">
  <ele>1583.0</ele>
  <time>2026-08-28T17:49:55Z</time>
  <course>198.88</course>
  <speed>0.0</speed>
  <fix>3d</fix>
</trkpt>
<trkpt lat="40.071367" lon="-105.2298254">
  <ele>1582.89</ele>
  <time>2026-08-28T17:49:55Z</time>
  <course>297.68</course>
  <speed>0.02</speed>
  <fix>3d</fix>
</trkpt>
<trkpt lat="40.0713669" lon="-105.2298256">
  <ele>1583.0</ele>
  <time>2026-08-28T17:49:55Z</time>
  <course>198.88</course>
  <speed>0.0</speed>
  <fix>3d</fix>
</trkpt>
<trkpt lat="40.071367" lon="-105.2298254">
  <ele>1582.89</ele>
  <time>2026-08-28T17:49:55Z</time>
  <course>297.68</course>
  <speed>0.02</speed>
  <fix>3d</fix>
</trkpt>
<trkpt lat="40.0713669" lon="-105.2298256">
  <ele>1583.0</ele>
  <time>2026-08-28T17:49:55Z</time>
  <course>199.62</course>
  <speed>0.0</speed>
  <fix>3d</fix>
</trkpt>
<trkpt lat="40.071367" lon="-105.2298254">
  <ele>1582.88</ele>
  <time>2026-08-28T17:49:55Z</time>
  <course>297.68</course>
  <speed>0.02</speed>
  <fix>3d</fix>
</trkpt>
<trkpt lat="40.0713669" lon="-105.2298256">
  <ele>1583.0</ele>
  <time>2026-08-28T17:49:55Z</time>
  <course>199.62</course>
  <speed>0.0</speed>
  <fix>3d</fix>
</trkpt>
<trkpt lat="40.071367" lon="-105.2298254">
  <ele>1582.88</ele>
  <time>2026-08-28T17:49:55Z</time>
  <course>297.68</course>
  <speed>0.02</speed>
  <fix>3d</fix>
</trkpt>
<trkpt lat="40.0713669" lon="-105.2298256">
  <ele>1583.0</ele>
  <time>2026-08-28T17:49:55Z</time>
  <course>199.62</course>
  <speed>0.0</speed>
  <fix>3d</fix>
</trkpt>
<trkpt lat="40.071367" lon="-105.2298254">
  <ele>1582.88</ele>
  <time>2026-08-28T17:49:55Z</time>
  <course>297.68</course>
  <speed>0.02</speed>
  <fix>3d</fix>
</trkpt>
<trkpt lat="40.0713669" lon="-105.2298256">
  <ele>1583.0</ele>
  <time>2026-08-28T17:49:55Z</time>
  <course>200.3</course>
  <speed>0.0</speed>
  <fix>3d</fix>
</trkpt>
<trkpt lat="40.071367" lon="-105.2298254">
  <ele>1582.88</ele>
  <time>2026-08-28T17:49:55Z</time>
  <course>297.68</course>
  <speed>0.02</speed>
  <fix>3d</fix>
</trkpt>
<trkpt lat="40.0713669" lon="-105.2298256">
  <ele>1583.0</ele>
  <time>2026-08-28T17:49:55Z</time>
  <course>200.3</course>
  <speed>0.0</speed>
  <fix>3d</fix>
</trkpt>
<trkpt lat="40.071367" lon="-105.2298254">
  <ele>1582.87</ele>
  <time>2026-08-28T17:49:55Z</time>
  <course>297.68</course>
  <speed>0.02</speed>
  <fix>3d</fix>
</trkpt>
<trkpt lat="40.0713669" lon="-105.2298256">
  <ele>1583.0</ele>
  <time>2026-08-28T17:49:55Z</time>
  <course>200.91</course>
  <speed>0.0</speed>
  <fix>3d</fix>
</trkpt>
<trkpt lat="40.071367" lon="-105.2298254">
  <ele>1582.87</ele>
  <time>2026-08-28T17:49:55Z</time>
  <course>297.68</course>
  <speed>0.02</speed>
  <fix>3d</fix>
</trkpt>
<trkpt lat="40.0713669" lon="-105.2298256">
  <ele>1583.0</ele>
  <time>2026-08-28T17:49:55Z</time>
  <course>200.91</course>
  <speed>0.0</speed>
  <fix>3d</fix>
</trkpt>
<trkpt lat="40.071367" lon="-105.2298254">
  <ele>1582.87</ele>
  <time>2026-08-28T17:49:55Z</time>
  <course>297.68</course>
  <speed>0.02</speed>
  <fix>3d</fix>
</trkpt>
<trkpt lat="40.0713669" lon="-105.2298256">
  <ele>1583.0</ele>
  <time>2026-08-28T17:49:55Z</time>
  <course>201.47</course>
  <speed>0.0</speed>
  <fix>3d</fix>
</trkpt>
<trkpt lat="40.071367" lon="-105.2298254">
  <ele>1582.87</ele>
  <time>2026-08-28T17:49:55Z</time>
  <course>297.68</course>
  <speed>0.02</speed>
  <fix>3d</fix>
</trkpt>
<trkpt lat="40.0713669" lon="-105.2298256">
  <ele>1583.0</ele>
  <time>2026-08-28T17:49:55Z</time>
  <course>201.97</course>
  <speed>0.0</speed>
  <fix>3d</fix>
</trkpt>
<trkpt lat="40.071367" lon="-105.2298254">
  <ele>1582.87</ele>
  <time>2026-08-28T17:49:55Z</time>
  <course>297.69</course>
  <speed>0.02</speed>
  <fix>3d</fix>
</trkpt>
<trkpt lat="40.0713669" lon="-105.2298256">
  <ele>1583.0</ele>
  <time>2026-08-28T17:49:55Z</time>
  <course>201.97</course>
  <speed>0.0</speed>
  <fix>3d</fix>
</trkpt>
<trkpt lat="40.071367" lon="-105.2298254">
  <ele>1582.86</ele>
  <time>2026-08-28T17:49:55Z</time>
  <course>297.69</course>
  <speed>0.02</speed>
  <fix>3d</fix>
</trkpt>
<trkpt lat="40.0713669" lon="-105.2298256">
  <ele>1583.0</ele>
  <time>2026-08-28T17:49:55Z</time>
  <course>202.43</course>
  <speed>0.0</speed>
  <fix>3d</fix>
</trkpt>
<trkpt lat="40.071367" lon="-105.2298254">
  <ele>1582.86</ele>
  <time>2026-08-28T17:49:55Z</time>
  <course>297.69</course>
  <speed>0.02</speed>
  <fix>3d</fix>
</trkpt>
<trkpt lat="40.0713669" lon="-105.2298256">
  <ele>1583.0</ele>
  <time>2026-08-28T17:49:55Z</time>
  <course>202.43</course>
  <speed>0.0</speed>
  <fix>3d</fix>
</trkpt>
<trkpt lat="40.071367" lon="-105.2298254">
  <ele>1582.86</ele>
  <time>2026-08-28T17:49:55Z</time>
  <course>297.69</course>
  <speed>0.02</speed>
  <fix>3d</fix>
</trkpt>
<trkpt lat="40.0713669" lon="-105.2298256">
  <ele>1583.0</ele>
  <time>2026-08-28T17:49:55Z</time>
  <course>202.84</course>
  <speed>0.0</speed>
  <fix>3d</fix>
</trkpt>
<trkpt lat="40.071367" lon="-105.2298254">
  <ele>1582.85</ele>
  <time>2026-08-28T17:49:55Z</time>
  <course>297.69</course>
  <speed>0.02</speed>
  <fix>3d</fix>
</trkpt>
<trkpt lat="40.0713669" lon="-105.2298256">
  <ele>1583.0</ele>
  <time>2026-08-28T17:49:55Z</time>
  <course>202.84</course>
  <speed>0.0</speed>
  <fix>3d</fix>
</trkpt>
<trkpt lat="40.071367" lon="-105.2298254">
  <ele>1582.85</ele>
  <time>2026-08-28T17:49:55Z</time>
  <course>297.69</course>
  <speed>0.02</speed>
  <fix>3d</fix>
</trkpt>
<trkpt lat="40.0713669" lon="-105.2298256">
  <ele>1583.0</ele>
  <time>2026-08-28T17:49:55Z</time>
  <course>203.21</course>
  <speed>0.0</speed>
  <fix>3d</fix>
</trkpt>
<trkpt lat="40.071367" lon="-105.2298254">
  <ele>1582.85</ele>
  <time>2026-08-28T17:49:55Z</time>
  <course>297.69</course>
  <speed>0.02</speed>
  <fix>3d</fix>
</trkpt>
<trkpt lat="40.0713669" lon="-105.2298256">
  <ele>1583.0</ele>
  <time>2026-08-28T17:49:55Z</time>
  <course>203.21</course>
  <speed>0.0</speed>
  <fix>3d</fix>
</trkpt>
<trkpt lat="40.071367" lon="-105.2298254">
  <ele>1582.86</ele>
  <time>2026-08-28T17:49:55Z</time>
  <course>297.69</course>
  <speed>0.02</speed>
  <fix>3d</fix>
</trkpt>
<trkpt lat="40.0713669" lon="-105.2298256">
  <ele>1583.0</ele>
  <time>2026-08-28T17:49:55Z</time>
  <course>203.55</course>
  <speed>0.0</speed>
  <fix>3d</fix>
</trkpt>
<trkpt lat="40.071367" lon="-105.2298254">
  <ele>1582.86</ele>
  <time>2026-08-28T17:49:55Z</time>
  <course>297.69</course>
  <speed>0.02</speed>
  <fix>3d</fix>
</trkpt>
<trkpt lat="40.0713669" lon="-105.2298256">
  <ele>1583.0</ele>
  <time>2026-08-28T17:49:55Z</time>
  <course>203.55</course>
  <speed>0.0</speed>
  <fix>3d</fix>
</trkpt>
<trkpt lat="40.071367" lon="-105.2298254">
  <ele>1582.87</ele>
  <time>2026-08-28T17:49:55Z</time>
  <course>297.69</course>
  <speed>0.022360679774997897</speed>
  <fix>3d</fix>
</trkpt>
<trkpt lat="40.0713669" lon="-105.2298256">
  <ele>1583.0</ele>
  <time>2026-08-28T17:49:55Z</time>
  <course>203.86</course>
  <speed>0.0</speed>
  <fix>3d</fix>
</trkpt>
<trkpt lat="40.071367" lon="-105.2298254">
  <ele>1582.88</ele>
  <time>2026-08-28T17:49:55Z</time>
  <course>297.69</course>
  <speed>0.022360679774997897</speed>
  <fix>3d</fix>
</trkpt>
<trkpt lat="40.0713669" lon="-105.2298256">
  <ele>1583.0</ele>
  <time>2026-08-28T17:49:55Z</time>
  <course>203.86</course>
  <speed>0.0</speed>
  <fix>3d</fix>
</trkpt>
<trkpt lat="40.071367" lon="-105.2298254">
  <ele>1582.88</ele>
  <time>2026-08-28T17:49:55Z</time>
  <course>297.69</course>
  <speed>0.022360679774997897</speed>
  <fix>3d</fix>
</trkpt>
<trkpt lat="40.0713669" lon="-105.2298256">
  <ele>1583.0</ele>
  <time>2026-08-28T17:49:55Z</time>
  <course>204.14</course>
  <speed>0.0</speed>
  <fix>3d</fix>
</trkpt>
<trkpt lat="40.071367" lon="-105.2298254">
  <ele>1582.89</ele>
  <time>2026-08-28T17:49:55Z</time>
  <course>297.69</course>
  <speed>0.022360679774997897</speed>
  <fix>3d</fix>
</trkpt>
<trkpt lat="40.0713669" lon="-105.2298256">
  <ele>1583.0</ele>
  <time>2026-08-28T17:49:55Z</time>
  <course>204.14</course>
  <speed>0.0</speed>
  <fix>3d</fix>
</trkpt>
<trkpt lat="40.071367" lon="-105.2298254">
  <ele>1582.9</ele>
  <time>2026-08-28T17:49:55Z</time>
  <course>297.69</course>
  <speed>0.022360679774997897</speed>
  <fix>3d</fix>
</trkpt>
<trkpt lat="40.0713669" lon="-105.2298256">
  <ele>1583.0</ele>
  <time>2026-08-28T17:49:55Z</time>
  <course>204.14</course>
  <speed>0.0</speed>
  <fix>3d</fix>
</trkpt>
<trkpt lat="40.071367" lon="-105.2298254">
  <ele>1582.9</ele>
  <time>2026-08-28T17:49:55Z</time>
  <course>297.7</course>
  <speed>0.022360679774997897</speed>
  <fix>3d</fix>
</trkpt>
<trkpt lat="40.0713669" lon="-105.2298256">
  <ele>1583.0</ele>
  <time>2026-08-28T17:49:55Z</time>
  <course>204.39</course>
  <speed>0.0</speed>
  <fix>3d</fix>
</trkpt>
<trkpt lat="40.071367" lon="-105.2298254">
  <ele>1582.91</ele>
  <time>2026-08-28T17:49:55Z</time>
  <course>297.7</course>
  <speed>0.022360679774997897</speed>
  <fix>3d</fix>
</trkpt>
<trkpt lat="40.0713669" lon="-105.2298256">
  <ele>1583.0</ele>
  <time>2026-08-28T17:49:55Z</time>
  <course>204.39</course>
  <speed>0.0</speed>
  <fix>3d</fix>
</trkpt>
<trkpt lat="40.071367" lon="-105.2298254">
  <ele>1582.91</ele>
  <time>2026-08-28T17:49:55Z</time>
  <course>297.7</course>
  <speed>0.022360679774997897</speed>
  <fix>3d</fix>
</trkpt>
<trkpt lat="40.0713669" lon="-105.2298256">
  <ele>1583.0</ele>
  <time>2026-08-28T17:49:55Z</time>
  <course>204.61</course>
  <speed>0.0</speed>
  <fix>3d</fix>
</trkpt>
<trkpt lat="40.071367" lon="-105.2298254">
  <ele>1582.91</ele>
  <time>2026-08-28T17:49:55Z</time>
  <course>297.7</course>
  <speed>0.022360679774997897</speed>
  <fix>3d</fix>
</trkpt>
<trkpt lat="40.0713669" lon="-105.2298256">
  <ele>1583.0</ele>
  <time>2026-08-28T17:49:55Z</time>
  <course>204.61</course>
  <speed>0.0</speed>
  <fix>3d</fix>
</trkpt>
<trkpt lat="40.071367" lon="-105.2298254">
  <ele>1582.92</ele>
  <time>2026-08-28T17:49:55Z</time>
  <course>297.7</course>
  <speed>0.022360679774997897</speed>
  <fix>3d</fix>
</trkpt>
<trkpt lat="40.0713669" lon="-105.2298256">
  <ele>1583.0</ele>
  <time>2026-08-28T17:49:55Z</time>
  <course>204.82</course>
  <speed>0.0</speed>
  <fix>3d</fix>
</trkpt>
<trkpt lat="40.071367" lon="-105.2298254">
  <ele>1582.92</ele>
  <time>2026-08-28T17:49:55Z</time>
  <course>297.7</course>
  <speed>0.022360679774997897</speed>
  <fix>3d</fix>
</trkpt>
<trkpt lat="40.0713669" lon="-105.2298256">
  <ele>1583.0</ele>
  <time>2026-08-28T17:49:55Z</time>
  <course>204.82</course>
  <speed>0.0</speed>
  <fix>3d</fix>
</trkpt>
<trkpt lat="40.071367" lon="-105.2298254">
  <ele>1582.93</ele>
  <time>2026-08-28T17:49:55Z</time>
  <course>297.7</course>
  <speed>0.022360679774997897</speed>
  <fix>3d</fix>
</trkpt>
<trkpt lat="40.0713669" lon="-105.2298256">
  <ele>1583.0</ele>
  <time>2026-08-28T17:49:55Z</time>
  <course>205.01</course>
  <speed>0.0</speed>
  <fix>3d</fix>
</trkpt>
<trkpt lat="40.071367" lon="-105.2298254">
  <ele>1582.94</ele>
  <time>2026-08-28T17:49:55Z</time>
  <course>297.7</course>
  <speed>0.022360679774997897</speed>
  <fix>3d</fix>
</trkpt>
<trkpt lat="40.0713669" lon="-105.2298256">
  <ele>1583.0</ele>
  <time>2026-08-28T17:49:55Z</time>
  <course>205.18</course>
  <speed>0.0</speed>
  <fix>3d</fix>
</trkpt>
<trkpt lat="40.071367" lon="-105.2298254">
  <ele>1582.94</ele>
  <time>2026-08-28T17:49:55Z</time>
  <course>297.7</course>
  <speed>0.022360679774997897</speed>
  <fix>3d</fix>
</trkpt>
<trkpt lat="40.0713669" lon="-105.2298256">
  <ele>1583.0</ele>
  <time>2026-08-28T17:49:55Z</time>
  <course>205.18</course>
  <speed>0.0</speed>
  <fix>3d</fix>
</trkpt>
<trkpt lat="40.071367" lon="-105.2298254">
  <ele>1582.95</ele>
  <time>2026-08-28T17:49:55Z</time>
  <course>297.7</course>
  <speed>0.022360679774997897</speed>
  <fix>3d</fix>
</trkpt>
<trkpt lat="40.0713669" lon="-105.2298256">
  <ele>1583.0</ele>
  <time>2026-08-28T17:49:55Z</time>
  <course>205.33</course>
  <speed>0.0</speed>
  <fix>3d</fix>
</trkpt>
<trkpt lat="40.071367" lon="-105.2298254">
  <ele>1582.95</ele>
  <time>2026-08-28T17:49:55Z</time>
  <course>297.7</course>
  <speed>0.022360679774997897</speed>
  <fix>3d</fix>
</trkpt>
<trkpt lat="40.0713669" lon="-105.2298256">
  <ele>1583.0</ele>
  <time>2026-08-28T17:49:55Z</time>
  <course>205.33</course>
  <speed>0.0</speed>
  <fix>3d</fix>
</trkpt>
<trkpt lat="40.071367" lon="-105.2298254">
  <ele>1582.96</ele>
  <time>2026-08-28T17:49:55Z</time>
  <course>297.7</course>
  <speed>0.022360679774997897</speed>
  <fix>3d</fix>
</trkpt>
<trkpt lat="40.0713669" lon="-105.2298256">
  <ele>1583.0</ele>
  <time>2026-08-28T17:49:55Z</time>
  <course>205.47</course>
  <speed>0.0</speed>
  <fix>3d</fix>
</trkpt>
<trkpt lat="40.071367" lon="-105.2298254">
  <ele>1582.96</ele>
  <time>2026-08-28T17:49:55Z</time>
  <course>297.7</course>
  <speed>0.022360679774997897</speed>
  <fix>3d</fix>
</trkpt>
<trkpt lat="40.0713669" lon="-105.2298256">
  <ele>1583.0</ele>
  <time>2026-08-28T17:49:55Z</time>
  <course>205.47</course>
  <speed>0.0</speed>
  <fix>3d</fix>
</trkpt>
<trkpt lat="40.071367" lon="-105.2298254">
  <ele>1582.96</ele>
  <time>2026-08-28T17:49:55Z</time>
  <course>297.7</course>
  <speed>0.022360679774997897</speed>
  <fix>3d</fix>
</trkpt>
<trkpt lat="40.0713669" lon="-105.2298256">
  <ele>1583.0</ele>
  <time>2026-08-28T17:49:55Z</time>
  <course>205.59</course>
  <speed>0.0</speed>
  <fix>3d</fix>
</trkpt>
<trkpt lat="40.071367" lon="-105.2298254">
  <ele>1582.97</ele>
  <time>2026-08-28T17:49:55Z</time>
  <course>297.7</course>
  <speed>0.022360679774997897</speed>
  <fix>3d</fix>
</trkpt>
<trkpt lat="40.0713669" lon="-105.2298256">
  <ele>1583.0</ele>
  <time>2026-08-28T17:49:55Z</time>
  <course>205.59</course>
  <speed>0.0</speed>
  <fix>3d</fix>
</trkpt>
<trkpt lat="40.071367" lon="-105.2298254">
  <ele>1582.97</ele>
  <time>2026-08-28T17:49:55Z</time>
  <course>297.71</course>
  <speed>0.022360679774997897</speed>
  <fix>3d</fix>
</trkpt>
<trkpt lat="40.0713669" lon="-105.2298256">
  <ele>1583.0</ele>
  <time>2026-08-28T17:49:55Z</time>
  <course>205.7</course>
  <speed>0.0</speed>
  <fix>3d</fix>
</trkpt>
<trkpt lat="40.071367" lon="-105.2298254">
  <ele>1582.98</ele>
  <time>2026-08-28T17:49:55Z</time>
  <course>297.71</course>
  <speed>0.022360679774997897</speed>
  <fix>3d</fix>
</trkpt>
<trkpt lat="40.0713669" lon="-105.2298256">
  <ele>1583.0</ele>
  <time>2026-08-28T17:49:55Z</time>
  <course>205.7</course>
  <speed>0.0</speed>
  <fix>3d</fix>
</trkpt>
<trkpt lat="40.071367" lon="-105.2298254">
  <ele>1582.98</ele>
  <time>2026-08-28T17:49:55Z</time>
  <course>297.71</course>
  <speed>0.022360679774997897</speed>
  <fix>3d</fix>
</trkpt>
<trkpt lat="40.0713669" lon="-105.2298256">
  <ele>1583.0</ele>
  <time>2026-08-28T17:49:55Z</time>
  <course>205.81</course>
  <speed>0.0</speed>
  <fix>3d</fix>
</trkpt>
<trkpt lat="40.071367" lon="-105.2298254">
  <ele>1582.98</ele>
  <time>2026-08-28T17:49:55Z</time>
  <course>297.71</course>
  <speed>0.022360679774997897</speed>
  <fix>3d</fix>
</trkpt>
<trkpt lat="40.0713669" lon="-105.2298256">
  <ele>1583.0</ele>
  <time>2026-08-28T17:49:55Z</time>
  <course>205.81</course>
  <speed>0.0</speed>
  <fix>3d</fix>
</trkpt>
<trkpt lat="40.071367" lon="-105.2298254">
  <ele>1582.98</ele>
  <time>2026-08-28T17:49:55Z</time>
  <course>297.71</course>
  <speed>0.022360679774997897</speed>
  <fix>3d</fix>
</trkpt>
<trkpt lat="40.0713669" lon="-105.2298256">
  <ele>1583.0</ele>
  <time>2026-08-28T17:49:55Z</time>
  <course>205.9</course>
  <speed>0.0</speed>
  <fix>3d</fix>
</trkpt>
<trkpt lat="40.071367" lon="-105.2298254">
  <ele>1582.98</ele>
  <time>2026-08-28T17:49:55Z</time>
  <course>297.71</course>
  <speed>0.022360679774997897</speed>
  <fix>3d</fix>
</trkpt>
<trkpt lat="40.0713669" lon="-105.2298256">
  <ele>1583.0</ele>
  <time>2026-08-28T17:49:55Z</time>
  <course>205.9</course>
  <speed>0.0</speed>
  <fix>3d</fix>
</trkpt>
<trkpt lat="40.071367" lon="-105.2298254">
  <ele>1582.99</ele>
  <time>2026-08-28T17:49:55Z</time>
  <course>297.71</course>
  <speed>0.022360679774997897</speed>
  <fix>3d</fix>
</trkpt>
<trkpt lat="40.0713669" lon="-105.2298256">
  <ele>1583.0</ele>
  <time>2026-08-28T17:49:55Z</time>
  <course>205.9</course>
  <speed>0.0</speed>
  <fix>3d</fix>
</trkpt>
<trkpt lat="40.071367" lon="-105.2298254">
  <ele>1582.99</ele>
  <time>2026-08-28T17:49:55Z</time>
  <course>297.71</course>
  <speed>0.022360679774997897</speed>
  <fix>3d</fix>
</trkpt>
<trkpt lat="40.0713669" lon="-105.2298256">
  <ele>1583.0</ele>
  <time>2026-08-28T17:49:55Z</time>
  <course>205.98</course>
  <speed>0.0</speed>
  <fix>3d</fix>
</trkpt>
<trkpt lat="40.071367" lon="-105.2298254">
  <ele>1582.99</ele>
  <time>2026-08-28T17:49:55Z</time>
  <course>297.71</course>
  <speed>0.022360679774997897</speed>
  <fix>3d</fix>
</trkpt>
<trkpt lat="40.0713669" lon="-105.2298256">
  <ele>1583.0</ele>
  <time>2026-08-28T17:49:55Z</time>
  <course>205.98</course>
  <speed>0.0</speed>
  <fix>3d</fix>
</trkpt>
<trkpt lat="40.071367" lon="-105.2298254">
  <ele>1582.99</ele>
  <time>2026-08-28T17:49:55Z</time>
  <course>297.71</course>
  <speed>0.022360679774997897</speed>
  <fix>3d</fix>
</trkpt>
<trkpt lat="40.0713669" lon="-105.2298256">
  <ele>1583.0</ele>
  <time>2026-08-28T17:49:55Z</time>
  <course>206.06</course>
  <speed>0.0</speed>
  <fix>3d</fix>
</trkpt>
<trkpt lat="40.071367" lon="-105.2298254">
  <ele>1583.0</ele>
  <time>2026-08-28T17:49:55Z</time>
  <course>297.71</course>
  <speed>0.022360679774997897</speed>
  <fix>3d</fix>
</trkpt>
<trkpt lat="40.0713669" lon="-105.2298256">
  <ele>1583.0</ele>
  <time>2026-08-28T17:49:55Z</time>
  <course>206.06</course>
  <speed>0.0</speed>
  <fix>3d</fix>
</trkpt>
<trkpt lat="40.071367" lon="-105.2298254">
  <ele>1583.0</ele>
  <time>2026-08-28T17:49:55Z</time>
  <course>297.71</course>
  <speed>0.022360679774997897</speed>
  <fix>3d</fix>
</trkpt>
<trkpt lat="40.0713669" lon="-105.2298256">
  <ele>1583.0</ele>
  <time>2026-08-28T17:49:55Z</time>
  <course>206.13</course>
  <speed>0.0</speed>
  <fix>3d</fix>
</trkpt>
<trkpt lat="40.071367" lon="-105.2298254">
  <ele>1583.0</ele>
  <time>2026-08-28T17:49:55Z</time>
  <course>297.71</course>
  <speed>0.022360679774997897</speed>
  <fix>3d</fix>
</trkpt>
<trkpt lat="40.0713669" lon="-105.2298256">
  <ele>1583.0</ele>
  <time>2026-08-28T17:49:55Z</time>
  <course>206.19</course>
  <speed>0.0</speed>
  <fix>3d</fix>
</trkpt>
<trkpt lat="40.071367" lon="-105.2298254">
  <ele>1583.0</ele>
  <time>2026-08-28T17:49:55Z</time>
  <course>297.71</course>
  <speed>0.022360679774997897</speed>
  <fix>3d</fix>
</trkpt>
<trkpt lat="40.0713669" lon="-105.2298256">
  <ele>1583.0</ele>
  <time>2026-08-28T17:49:55Z</time>
  <course>206.19</course>
  <speed>0.0</speed>
  <fix>3d</fix>
</trkpt>
<trkpt lat="40.071367" lon="-105.2298254">
  <ele>1583.01</ele>
  <time>2026-08-28T17:49:55Z</time>
  <course>297.71</course>
  <speed>0.022360679774997897</speed>
  <fix>3d</fix>
</trkpt>
<trkpt lat="40.0713669" lon="-105.2298256">
  <ele>1583.0</ele>
  <time>2026-08-28T17:49:55Z</time>
  <course>206.25</course>
  <speed>0.0</speed>
  <fix>3d</fix>
</trkpt>
<trkpt lat="40.071367" lon="-105.2298254">
  <ele>1583.01</ele>
  <time>2026-08-28T17:49:55Z</time>
  <course>297.71</course>
  <speed>0.022360679774997897</speed>
  <fix>3d</fix>
</trkpt>
<trkpt lat="40.0713669" lon="-105.2298256">
  <ele>1583.0</ele>
  <time>2026-08-28T17:49:55Z</time>
  <course>206.25</course>
  <speed>0.0</speed>
  <fix>3d</fix>
</trkpt>
<trkpt lat="40.071367" lon="-105.2298254">
  <ele>1583.01</ele>
  <time>2026-08-28T17:49:55Z</time>
  <course>297.71</course>
  <speed>0.022360679774997897</speed>
  <fix>3d</fix>
</trkpt>
<trkpt lat="40.0713669" lon="-105.2298256">
  <ele>1583.0</ele>
  <time>2026-08-28T17:49:55Z</time>
  <course>206.3</course>
  <speed>0.0</speed>
  <fix>3d</fix>
</trkpt>
<trkpt lat="40.071367" lon="-105.2298254">
  <ele>1583.01</ele>
  <time>2026-08-28T17:49:55Z</time>
  <course>297.72</course>
  <speed>0.02</speed>
  <fix>3d</fix>
</trkpt>
<trkpt lat="40.0713669" lon="-105.2298256">
  <ele>1583.0</ele>
  <time>2026-08-28T17:49:55Z</time>
  <course>206.3</course>
  <speed>0.0</speed>
  <fix>3d</fix>
</trkpt>
<trkpt lat="40.071367" lon="-105.2298254">
  <ele>1583.02</ele>
  <time>2026-08-28T17:49:55Z</time>
  <course>297.72</course>
  <speed>0.022360679774997897</speed>
  <fix>3d</fix>
</trkpt>
<trkpt lat="40.0713669" lon="-105.2298256">
  <ele>1583.0</ele>
  <time>2026-08-28T17:49:55Z</time>
  <course>206.34</course>
  <speed>0.0</speed>
  <fix>3d</fix>
</trkpt>
<trkpt lat="40.071367" lon="-105.2298254">
  <ele>1583.02</ele>
  <time>2026-08-28T17:49:55Z</time>
  <course>297.72</course>
  <speed>0.02</speed>
  <fix>3d</fix>
</trkpt>
<trkpt lat="40.0713669" lon="-105.2298256">
  <ele>1583.0</ele>
  <time>2026-08-28T17:49:55Z</time>
  <course>206.34</course>
  <speed>0.0</speed>
  <fix>3d</fix>
</trkpt>
<trkpt lat="40.071367" lon="-105.2298254">
  <ele>1583.02</ele>
  <time>2026-08-28T17:49:55Z</time>
  <course>297.72</course>
  <speed>0.022360679774997897</speed>
  <fix>3d</fix>
</trkpt>
<trkpt lat="40.0713669" lon="-105.2298256">
  <ele>1583.0</ele>
  <time>2026-08-28T17:49:55Z</time>
  <course>206.38</course>
  <speed>0.0</speed>
  <fix>3d</fix>
</trkpt>
<trkpt lat="40.071367" lon="-105.2298254">
  <ele>1583.02</ele>
  <time>2026-08-28T17:49:55Z</time>
  <course>297.72</course>
  <speed>0.02</speed>
  <fix>3d</fix>
</trkpt>
<trkpt lat="40.0713669" lon="-105.2298256">
  <ele>1583.0</ele>
  <time>2026-08-28T17:49:55Z</time>
  <course>206.38</course>
  <speed>0.0</speed>
  <fix>3d</fix>
</trkpt>
<trkpt lat="40.071367" lon="-105.2298254">
  <ele>1583.03</ele>
  <time>2026-08-28T17:49:55Z</time>
  <course>297.72</course>
  <speed>0.022360679774997897</speed>
  <fix>3d</fix>
</trkpt>
<trkpt lat="40.0713669" lon="-105.2298256">
  <ele>1583.0</ele>
  <time>2026-08-28T17:49:55Z</time>
  <course>206.42</course>
  <speed>0.0</speed>
  <fix>3d</fix>
</trkpt>
<trkpt lat="40.071367" lon="-105.2298254">
  <ele>1583.04</ele>
  <time>2026-08-28T17:49:55Z</time>
  <course>297.72</course>
  <speed>0.02</speed>
  <fix>3d</fix>
</trkpt>
<trkpt lat="40.0713669" lon="-105.2298256">
  <ele>1583.0</ele>
  <time>2026-08-28T17:49:55Z</time>
  <course>206.42</course>
  <speed>0.0</speed>
  <fix>3d</fix>
</trkpt>
<trkpt lat="40.071367" lon="-105.2298254">
  <ele>1583.05</ele>
  <time>2026-08-28T17:49:55Z</time>
  <course>297.72</course>
  <speed>0.02</speed>
  <fix>3d</fix>
</trkpt>
<trkpt lat="40.0713669" lon="-105.2298256">
  <ele>1583.0</ele>
  <time>2026-08-28T17:49:55Z</time>
  <course>206.46</course>
  <speed>0.0</speed>
  <fix>3d</fix>
</trkpt>
<trkpt lat="40.071367" lon="-105.2298254">
  <ele>1583.06</ele>
  <time>2026-08-28T17:49:55Z</time>
  <course>297.72</course>
  <speed>0.02</speed>
  <fix>3d</fix>
</trkpt>
<trkpt lat="40.0713669" lon="-105.2298256">
  <ele>1583.0</ele>
  <time>2026-08-28T17:49:55Z</time>
  <course>206.46</course>
  <speed>0.0</speed>
  <fix>3d</fix>
</trkpt>
<trkpt lat="40.071367" lon="-105.2298254">
  <ele>1583.06</ele>
  <time>2026-08-28T17:49:55Z</time>
  <course>297.72</course>
  <speed>0.02</speed>
  <fix>3d</fix>
</trkpt>
<trkpt lat="40.0713669" lon="-105.2298256">
  <ele>1583.0</ele>
  <time>2026-08-28T17:49:55Z</time>
  <course>206.46</course>
  <speed>0.0</speed>
  <fix>3d</fix>
</trkpt>
<trkpt lat="40.071367" lon="-105.2298254">
  <ele>1583.06</ele>
  <time>2026-08-28T17:49:55Z</time>
  <course>297.72</course>
  <speed>0.02</speed>
  <fix>3d</fix>
</trkpt>
<trkpt lat="40.0713669" lon="-105.2298256">
  <ele>1583.0</ele>
  <time>2026-08-28T17:49:55Z</time>
  <course>206.49</course>
  <speed>0.0</speed>
  <fix>3d</fix>
</trkpt>
<trkpt lat="40.071367" lon="-105.2298254">
  <ele>1583.07</ele>
  <time>2026-08-28T17:49:55Z</time>
  <course>297.72</course>
  <speed>0.02</speed>
  <fix>3d</fix>
</trkpt>
<trkpt lat="40.0713669" lon="-105.2298256">
  <ele>1583.0</ele>
  <time>2026-08-28T17:49:55Z</time>
  <course>206.49</course>
  <speed>0.0</speed>
  <fix>3d</fix>
</trkpt>
<trkpt lat="40.071367" lon="-105.2298254">
  <ele>1583.07</ele>
  <time>2026-08-28T17:49:55Z</time>
  <course>297.72</course>
  <speed>0.02</speed>
  <fix>3d</fix>
</trkpt>
<trkpt lat="40.0713669" lon="-105.2298256">
  <ele>1583.0</ele>
  <time>2026-08-28T17:49:55Z</time>
  <course>206.51</course>
  <speed>0.0</speed>
  <fix>3d</fix>
</trkpt>
<trkpt lat="40.071367" lon="-105.2298254">
  <ele>1583.07</ele>
  <time>2026-08-28T17:49:55Z</time>
  <course>297.72</course>
  <speed>0.02</speed>
  <fix>3d</fix>
</trkpt>
<trkpt lat="40.0713669" lon="-105.2298256">
  <ele>1583.0</ele>
  <time>2026-08-28T17:49:55Z</time>
  <course>206.51</course>
  <speed>0.0</speed>
  <fix>3d</fix>
</trkpt>
<trkpt lat="40.071367" lon="-105.2298254">
  <ele>1583.06</ele>
  <time>2026-08-28T17:49:55Z</time>
  <course>297.72</course>
  <speed>0.02</speed>
  <fix>3d</fix>
</trkpt>
<trkpt lat="40.0713669" lon="-105.2298256">
  <ele>1583.0</ele>
  <time>2026-08-28T17:49:55Z</time>
  <course>206.54</course>
  <speed>0.0</speed>
  <fix>3d</fix>
</trkpt>
<trkpt lat="40.071367" lon="-105.2298254">
  <ele>1583.06</ele>
  <time>2026-08-28T17:49:55Z</time>
  <course>297.72</course>
  <speed>0.02</speed>
  <fix>3d</fix>
</trkpt>
<trkpt lat="40.0713669" lon="-105.2298256">
  <ele>1583.0</ele>
  <time>2026-08-28T17:49:55Z</time>
  <course>206.54</course>
  <speed>0.0</speed>
  <fix>3d</fix>
</trkpt>
<trkpt lat="40.071367" lon="-105.2298254">
  <ele>1583.05</ele>
  <time>2026-08-28T17:49:55Z</time>
  <course>297.72</course>
  <speed>0.02</speed>
  <fix>3d</fix>
</trkpt>
<trkpt lat="40.0713669" lon="-105.2298256">
  <ele>1583.0</ele>
  <time>2026-08-28T17:49:55Z</time>
  <course>206.56</course>
  <speed>0.0</speed>
  <fix>3d</fix>
</trkpt>
<trkpt lat="40.071367" lon="-105.2298254">
  <ele>1583.05</ele>
  <time>2026-08-28T17:49:55Z</time>
  <course>297.72</course>
  <speed>0.02</speed>
  <fix>3d</fix>
</trkpt>
<trkpt lat="40.0713669" lon="-105.2298256">
  <ele>1583.0</ele>
  <time>2026-08-28T17:49:55Z</time>
  <course>206.58</course>
  <speed>0.0</speed>
  <fix>3d</fix>
</trkpt>
<trkpt lat="40.071367" lon="-105.2298254">
  <ele>1583.05</ele>
  <time>2026-08-28T17:49:55Z</time>
  <course>297.72</course>
  <speed>0.02</speed>
  <fix>3d</fix>
</trkpt>
<trkpt lat="40.0713669" lon="-105.2298256">
  <ele>1583.0</ele>
  <time>2026-08-28T17:49:55Z</time>
  <course>206.58</course>
  <speed>0.0</speed>
  <fix>3d</fix>
</trkpt>
<trkpt lat="40.071367" lon="-105.2298254">
  <ele>1583.05</ele>
  <time>2026-08-28T17:49:55Z</time>
  <course>297.73</course>
  <speed>0.02</speed>
  <fix>3d</fix>
</trkpt>
<trkpt lat="40.0713669" lon="-105.2298256">
  <ele>1583.0</ele>
  <time>2026-08-28T17:49:55Z</time>
  <course>206.6</course>
  <speed>0.0</speed>
  <fix>3d</fix>
</trkpt>
<trkpt lat="40.071367" lon="-105.2298254">
  <ele>1583.04</ele>
  <time>2026-08-28T17:49:55Z</time>
  <course>297.73</course>
  <speed>0.02</speed>
  <fix>3d</fix>
</trkpt>
<trkpt lat="40.0713669" lon="-105.2298256">
  <ele>1583.0</ele>
  <time>2026-08-28T17:49:55Z</time>
  <course>206.6</course>
  <speed>0.0</speed>
  <fix>3d</fix>
</trkpt>
<trkpt lat="40.071367" lon="-105.2298254">
  <ele>1583.04</ele>
  <time>2026-08-28T17:49:55Z</time>
  <course>297.73</course>
  <speed>0.02</speed>
  <fix>3d</fix>
</trkpt>
<trkpt lat="40.0713669" lon="-105.2298256">
  <ele>1583.0</ele>
  <time>2026-08-28T17:49:55Z</time>
  <course>206.62</course>
  <speed>0.0</speed>
  <fix>3d</fix>
</trkpt>
<trkpt lat="40.071367" lon="-105.2298254">
  <ele>1583.03</ele>
  <time>2026-08-28T17:49:55Z</time>
  <course>297.73</course>
  <speed>0.02</speed>
  <fix>3d</fix>
</trkpt>
<trkpt lat="40.0713669" lon="-105.2298256">
  <ele>1583.0</ele>
  <time>2026-08-28T17:49:55Z</time>
  <course>206.62</course>
  <speed>0.0</speed>
  <fix>3d</fix>
</trkpt>
<trkpt lat="40.071367" lon="-105.2298254">
  <ele>1583.02</ele>
  <time>2026-08-28T17:49:55Z</time>
  <course>297.73</course>
  <speed>0.02</speed>
  <fix>3d</fix>
</trkpt>
<trkpt lat="40.0713669" lon="-105.2298256">
  <ele>1583.0</ele>
  <time>2026-08-28T17:49:55Z</time>
  <course>206.63</course>
  <speed>0.0</speed>
  <fix>3d</fix>
</trkpt>
<trkpt lat="40.071367" lon="-105.2298254">
  <ele>1583.02</ele>
  <time>2026-08-28T17:49:55Z</time>
  <course>297.73</course>
  <speed>0.02</speed>
  <fix>3d</fix>
</trkpt>
<trkpt lat="40.0713669" lon="-105.2298256">
  <ele>1583.0</ele>
  <time>2026-08-28T17:49:55Z</time>
  <course>206.63</course>
  <speed>0.0</speed>
  <fix>3d</fix>
</trkpt>
<trkpt lat="40.071367" lon="-105.2298254">
  <ele>1583.01</ele>
  <time>2026-08-28T17:49:55Z</time>
  <course>297.73</course>
  <speed>0.02</speed>
  <fix>3d</fix>
</trkpt>
<trkpt lat="40.0713669" lon="-105.2298256">
  <ele>1583.0</ele>
  <time>2026-08-28T17:49:55Z</time>
  <course>206.65</course>
  <speed>0.0</speed>
  <fix>3d</fix>
</trkpt>
<trkpt lat="40.071367" lon="-105.2298254">
  <ele>1583.01</ele>
  <time>2026-08-28T17:49:55Z</time>
  <course>297.73</course>
  <speed>0.02</speed>
  <fix>3d</fix>
</trkpt>
<trkpt lat="40.0713669" lon="-105.2298256">
  <ele>1583.0</ele>
  <time>2026-08-28T17:49:55Z</time>
  <course>206.65</course>
  <speed>0.0</speed>
  <fix>3d</fix>
</trkpt>
<trkpt lat="40.071367" lon="-105.2298254">
  <ele>1583.0</ele>
  <time>2026-08-28T17:49:55Z</time>
  <course>297.73</course>
  <speed>0.02</speed>
  <fix>3d</fix>
</trkpt>
<trkpt lat="40.0713669" lon="-105.2298256">
  <ele>1583.0</ele>
  <time>2026-08-28T17:49:55Z</time>
  <course>206.66</course>
  <speed>0.0</speed>
  <fix>3d</fix>
</trkpt>
<trkpt lat="40.071367" lon="-105.2298254">
  <ele>1582.99</ele>
  <time>2026-08-28T17:49:55Z</time>
  <course>297.73</course>
  <speed>0.02</speed>
  <fix>3d</fix>
</trkpt>
<trkpt lat="40.0713669" lon="-105.2298256">
  <ele>1583.0</ele>
  <time>2026-08-28T17:49:55Z</time>
  <course>206.66</course>
  <speed>0.0</speed>
  <fix>3d</fix>
</trkpt>
<trkpt lat="40.071367" lon="-105.2298254">
  <ele>1582.99</ele>
  <time>2026-08-28T17:49:55Z</time>
  <course>297.73</course>
  <speed>0.02</speed>
  <fix>3d</fix>
</trkpt>
<trkpt lat="40.0713669" lon="-105.2298256">
  <ele>1583.0</ele>
  <time>2026-08-28T17:49:55Z</time>
  <course>206.67</course>
  <speed>0.0</speed>
  <fix>3d</fix>
</trkpt>
<trkpt lat="40.071367" lon="-105.2298254">
  <ele>1582.99</ele>
  <time>2026-08-28T17:49:55Z</time>
  <course>297.73</course>
  <speed>0.02</speed>
  <fix>3d</fix>
</trkpt>
<trkpt lat="40.0713669" lon="-105.2298256">
  <ele>1583.0</ele>
  <time>2026-08-28T17:49:55Z</time>
  <course>206.67</course>
  <speed>0.0</speed>
  <fix>3d</fix>
</trkpt>
<trkpt lat="40.071367" lon="-105.2298254">
  <ele>1582.99</ele>
  <time>2026-08-28T17:49:55Z</time>
  <course>297.73</course>
  <speed>0.02</speed>
  <fix>3d</fix>
</trkpt>
<trkpt lat="40.0713669" lon="-105.2298256">
  <ele>1583.0</ele>
  <time>2026-08-28T17:49:55Z</time>
  <course>206.67</course>
  <speed>0.0</speed>
  <fix>3d</fix>
</trkpt>
<trkpt lat="40.071367" lon="-105.2298254">
  <ele>1583.0</ele>
  <time>2026-08-28T17:49:55Z</time>
  <course>297.73</course>
  <speed>0.02</speed>
  <fix>3d</fix>
</trkpt>
<trkpt lat="40.0713669" lon="-105.2298256">
  <ele>1583.0</ele>
  <time>2026-08-28T17:49:55Z</time>
  <course>206.68</course>
  <speed>0.0</speed>
  <fix>3d</fix>
</trkpt>
<trkpt lat="40.071367" lon="-105.2298254">
  <ele>1583.0</ele>
  <time>2026-08-28T17:49:55Z</time>
  <course>297.73</course>
  <speed>0.02</speed>
  <fix>3d</fix>
</trkpt>
<trkpt lat="40.0713669" lon="-105.2298256">
  <ele>1583.0</ele>
  <time>2026-08-28T17:49:55Z</time>
  <course>206.68</course>
  <speed>0.0</speed>
  <fix>3d</fix>
</trkpt>
<trkpt lat="40.071367" lon="-105.2298254">
  <ele>1583.01</ele>
  <time>2026-08-28T17:49:55Z</time>
  <course>297.73</course>
  <speed>0.02</speed>
  <fix>3d</fix>
</trkpt>
<trkpt lat="40.0713669" lon="-105.2298256">
  <ele>1583.0</ele>
  <time>2026-08-28T17:49:55Z</time>
  <course>206.69</course>
  <speed>0.0</speed>
  <fix>3d</fix>
</trkpt>
<trkpt lat="40.071367" lon="-105.2298254">
  <ele>1583.01</ele>
  <time>2026-08-28T17:49:55Z</time>
  <course>297.73</course>
  <speed>0.02</speed>
  <fix>3d</fix>
</trkpt>
<trkpt lat="40.0713669" lon="-105.2298256">
  <ele>1583.0</ele>
  <time>2026-08-28T17:49:55Z</time>
  <course>206.69</course>
  <speed>0.0</speed>
  <fix>3d</fix>
</trkpt>
<trkpt lat="40.071367" lon="-105.2298254">
  <ele>1583.02</ele>
  <time>2026-08-28T17:49:55Z</time>
  <course>297.73</course>
  <speed>0.02</speed>
  <fix>3d</fix>
</trkpt>
<trkpt lat="40.0713669" lon="-105.2298256">
  <ele>1583.0</ele>
  <time>2026-08-28T17:49:55Z</time>
  <course>206.7</course>
  <speed>0.0</speed>
  <fix>3d</fix>
</trkpt>
<trkpt lat="40.071367" lon="-105.2298254">
  <ele>1583.02</ele>
  <time>2026-08-28T17:49:55Z</time>
  <course>297.73</course>
  <speed>0.02</speed>
  <fix>3d</fix>
</trkpt>
<trkpt lat="40.0713669" lon="-105.2298256">
  <ele>1583.0</ele>
  <time>2026-08-28T17:49:55Z</time>
  <course>206.71</course>
  <speed>0.0</speed>
  <fix>3d</fix>
</trkpt>
<trkpt lat="40.071367" lon="-105.2298254">
  <ele>1583.03</ele>
  <time>2026-08-28T17:49:55Z</time>
  <course>297.73</course>
  <speed>0.02</speed>
  <fix>3d</fix>
</trkpt>
<trkpt lat="40.0713669" lon="-105.2298256">
  <ele>1583.0</ele>
  <time>2026-08-28T17:49:55Z</time>
  <course>206.71</course>
  <speed>0.0</speed>
  <fix>3d</fix>
</trkpt>
<trkpt lat="40.071367" lon="-105.2298254">
  <ele>1583.03</ele>
  <time>2026-08-28T17:49:55Z</time>
  <course>297.73</course>
  <speed>0.02</speed>
  <fix>3d</fix>
</trkpt>
<trkpt lat="40.0713669" lon="-105.2298256">
  <ele>1583.0</ele>
  <time>2026-08-28T17:49:55Z</time>
  <course>206.71</course>
  <speed>0.0</speed>
  <fix>3d</fix>
</trkpt>
<trkpt lat="40.071367" lon="-105.2298254">
  <ele>1583.03</ele>
  <time>2026-08-28T17:49:55Z</time>
  <course>297.74</course>
  <speed>0.02</speed>
  <fix>3d</fix>
</trkpt>
<trkpt lat="40.0713669" lon="-105.2298256">
  <ele>1583.0</ele>
  <time>2026-08-28T17:49:55Z</time>
  <course>206.71</course>
  <speed>0.0</speed>
  <fix>3d</fix>
</trkpt>
<trkpt lat="40.071367" lon="-105.2298254">
  <ele>1583.03</ele>
  <time>2026-08-28T17:49:55Z</time>
  <course>297.74</course>
  <speed>0.02</speed>
  <fix>3d</fix>
</trkpt>
<trkpt lat="40.0713669" lon="-105.2298256">
  <ele>1583.0</ele>
  <time>2026-08-28T17:49:55Z</time>
  <course>206.72</course>
  <speed>0.0</speed>
  <fix>3d</fix>
</trkpt>
<trkpt lat="40.071367" lon="-105.2298254">
  <ele>1583.02</ele>
  <time>2026-08-28T17:49:55Z</time>
  <course>297.74</course>
  <speed>0.02</speed>
  <fix>3d</fix>
</trkpt>
<trkpt lat="40.0713669" lon="-105.2298256">
  <ele>1583.0</ele>
  <time>2026-08-28T17:49:55Z</time>
  <course>206.72</course>
  <speed>0.0</speed>
  <fix>3d</fix>
</trkpt>
<trkpt lat="40.071367" lon="-105.2298254">
  <ele>1583.01</ele>
  <time>2026-08-28T17:49:55Z</time>
  <course>297.74</course>
  <speed>0.02</speed>
  <fix>3d</fix>
</trkpt>
<trkpt lat="40.0713669" lon="-105.2298256">
  <ele>1583.0</ele>
  <time>2026-08-28T17:49:55Z</time>
  <course>206.73</course>
  <speed>0.0</speed>
  <fix>3d</fix>
</trkpt>
<trkpt lat="40.071367" lon="-105.2298254">
  <ele>1583.01</ele>
  <time>2026-08-28T17:49:55Z</time>
  <course>297.74</course>
  <speed>0.02</speed>
  <fix>3d</fix>
</trkpt>
<trkpt lat="40.0713669" lon="-105.2298256">
  <ele>1583.0</ele>
  <time>2026-08-28T17:49:55Z</time>
  <course>206.73</course>
  <speed>0.0</speed>
  <fix>3d</fix>
</trkpt>
<trkpt lat="40.071367" lon="-105.2298254">
  <ele>1583.0</ele>
  <time>2026-08-28T17:49:55Z</time>
  <course>297.74</course>
  <speed>0.02</speed>
  <fix>3d</fix>
</trkpt>
<trkpt lat="40.0713669" lon="-105.2298256">
  <ele>1583.0</ele>
  <time>2026-08-28T17:49:55Z</time>
  <course>206.73</course>
  <speed>0.0</speed>
  <fix>3d</fix>
</trkpt>
<trkpt lat="40.071367" lon="-105.2298254">
  <ele>1583.0</ele>
  <time>2026-08-28T17:49:55Z</time>
  <course>297.74</course>
  <speed>0.02</speed>
  <fix>3d</fix>
</trkpt>
<trkpt lat="40.0713669" lon="-105.2298256">
  <ele>1583.0</ele>
  <time>2026-08-28T17:49:55Z</time>
  <course>206.73</course>
  <speed>0.0</speed>
  <fix>3d</fix>
</trkpt>
<trkpt lat="40.071367" lon="-105.2298254">
  <ele>1582.99</ele>
  <time>2026-08-28T17:49:55Z</time>
  <course>297.74</course>
  <speed>0.02</speed>
  <fix>3d</fix>
</trkpt>
<trkpt lat="40.0713669" lon="-105.2298256">
  <ele>1583.0</ele>
  <time>2026-08-28T17:49:55Z</time>
  <course>206.74</course>
  <speed>0.0</speed>
  <fix>3d</fix>
</trkpt>
<trkpt lat="40.071367" lon="-105.2298254">
  <ele>1582.98</ele>
  <time>2026-08-28T17:49:55Z</time>
  <course>297.74</course>
  <speed>0.02</speed>
  <fix>3d</fix>
</trkpt>
<trkpt lat="40.0713669" lon="-105.2298256">
  <ele>1583.0</ele>
  <time>2026-08-28T17:49:55Z</time>
  <course>206.74</course>
  <speed>0.0</speed>
  <fix>3d</fix>
</trkpt>
<trkpt lat="40.071367" lon="-105.2298254">
  <ele>1582.98</ele>
  <time>2026-08-28T17:49:55Z</time>
  <course>297.74</course>
  <speed>0.02</speed>
  <fix>3d</fix>
</trkpt>
<trkpt lat="40.0713669" lon="-105.2298256">
  <ele>1583.0</ele>
  <time>2026-08-28T17:49:55Z</time>
  <course>206.74</course>
  <speed>0.0</speed>
  <fix>3d</fix>
</trkpt>
<trkpt lat="40.071367" lon="-105.2298254">
  <ele>1582.98</ele>
  <time>2026-08-28T17:49:55Z</time>
  <course>297.74</course>
  <speed>0.02</speed>
  <fix>3d</fix>
</trkpt>
<trkpt lat="40.0713669" lon="-105.2298256">
  <ele>1583.0</ele>
  <time>2026-08-28T17:49:55Z</time>
  <course>206.74</course>
  <speed>0.0</speed>
  <fix>3d</fix>
</trkpt>
<trkpt lat="40.071367" lon="-105.2298254">
  <ele>1582.98</ele>
  <time>2026-08-28T17:49:55Z</time>
  <course>297.74</course>
  <speed>0.02</speed>
  <fix>3d</fix>
</trkpt>
<trkpt lat="40.0713669" lon="-105.2298256">
  <ele>1583.0</ele>
  <time>2026-08-28T17:49:55Z</time>
  <course>206.74</course>
  <speed>0.0</speed>
  <fix>3d</fix>
</trkpt>
<trkpt lat="40.071367" lon="-105.2298254">
  <ele>1582.98</ele>
  <time>2026-08-28T17:49:55Z</time>
  <course>297.74</course>
  <speed>0.02</speed>
  <fix>3d</fix>
</trkpt>
<trkpt lat="40.0713669" lon="-105.2298256">
  <ele>1583.0</ele>
  <time>2026-08-28T17:49:55Z</time>
  <course>206.74</course>
  <speed>0.0</speed>
  <fix>3d</fix>
</trkpt>
<trkpt lat="40.071367" lon="-105.2298254">
  <ele>1582.98</ele>
  <time>2026-08-28T17:49:55Z</time>
  <course>297.74</course>
  <speed>0.02</speed>
  <fix>3d</fix>
</trkpt>
<trkpt lat="40.0713669" lon="-105.2298256">
  <ele>1583.0</ele>
  <time>2026-08-28T17:49:55Z</time>
  <course>206.74</course>
  <speed>0.0</speed>
  <fix>3d</fix>
</trkpt>
<trkpt lat="40.071367" lon="-105.2298254">
  <ele>1582.98</ele>
  <time>2026-08-28T17:49:55Z</time>
  <course>297.74</course>
  <speed>0.02</speed>
  <fix>3d</fix>
</trkpt>
<trkpt lat="40.0713669" lon="-105.2298256">
  <ele>1583.0</ele>
  <time>2026-08-28T17:49:55Z</time>
  <course>206.75</course>
  <speed>0.0</speed>
  <fix>3d</fix>
</trkpt>
<trkpt lat="40.071367" lon="-105.2298254">
  <ele>1582.99</ele>
  <time>2026-08-28T17:49:55Z</time>
  <course>297.74</course>
  <speed>0.02</speed>
  <fix>3d</fix>
</trkpt>
<trkpt lat="40.0713669" lon="-105.2298256">
  <ele>1583.0</ele>
  <time>2026-08-28T17:49:55Z</time>
  <course>206.75</course>
  <speed>0.0</speed>
  <fix>3d</fix>
</trkpt>
<trkpt lat="40.071367" lon="-105.2298254">
  <ele>1583.0</ele>
  <time>2026-08-28T17:49:55Z</time>
  <course>297.74</course>
  <speed>0.02</speed>
  <fix>3d</fix>
</trkpt>
<trkpt lat="40.0713669" lon="-105.2298256">
  <ele>1583.0</ele>
  <time>2026-08-28T17:49:55Z</time>
  <course>206.75</course>
  <speed>0.0</speed>
  <fix>3d</fix>
</trkpt>
<trkpt lat="40.071367" lon="-105.2298254">
  <ele>1583.0</ele>
  <time>2026-08-28T17:49:55Z</time>
  <course>297.74</course>
  <speed>0.02</speed>
  <fix>3d</fix>
</trkpt>
<trkpt lat="40.0713669" lon="-105.2298256">
  <ele>1583.0</ele>
  <time>2026-08-28T17:49:55Z</time>
  <course>206.75</course>
  <speed>0.0</speed>
  <fix>3d</fix>
</trkpt>
<trkpt lat="40.071367" lon="-105.2298254">
  <ele>1583.01</ele>
  <time>2026-08-28T17:49:55Z</time>
  <course>297.74</course>
  <speed>0.02</speed>
  <fix>3d</fix>
</trkpt>
<trkpt lat="40.0713669" lon="-105.2298256">
  <ele>1583.0</ele>
  <time>2026-08-28T17:49:55Z</time>
  <course>206.75</course>
  <speed>0.0</speed>
  <fix>3d</fix>
</trkpt>
<trkpt lat="40.071367" lon="-105.2298254">
  <ele>1583.02</ele>
  <time>2026-08-28T17:49:55Z</time>
  <course>297.74</course>
  <speed>0.02</speed>
  <fix>3d</fix>
</trkpt>
<trkpt lat="40.0713669" lon="-105.2298256">
  <ele>1583.0</ele>
  <time>2026-08-28T17:49:55Z</time>
  <course>206.75</course>
  <speed>0.0</speed>
  <fix>3d</fix>
</trkpt>
<trkpt lat="40.071367" lon="-105.2298254">
  <ele>1583.02</ele>
  <time>2026-08-28T17:49:55Z</time>
  <course>297.74</course>
  <speed>0.02</speed>
  <fix>3d</fix>
</trkpt>
<trkpt lat="40.0713669" lon="-105.2298256">
  <ele>1583.0</ele>
  <time>2026-08-28T17:49:55Z</time>
  <course>206.75</course>
  <speed>0.0</speed>
  <fix>3d</fix>
</trkpt>
<trkpt lat="40.071367" lon="-105.2298254">
  <ele>1583.03</ele>
  <time>2026-08-28T17:49:55Z</time>
  <course>297.74</course>
  <speed>0.02</speed>
  <fix>3d</fix>
</trkpt>
<trkpt lat="40.0713669" lon="-105.2298256">
  <ele>1583.0</ele>
  <time>2026-08-28T17:49:55Z</time>
  <course>206.76</course>
  <speed>0.0</speed>
  <fix>3d</fix>
</trkpt>
<trkpt lat="40.071367" lon="-105.2298254">
  <ele>1583.03</ele>
  <time>2026-08-28T17:49:55Z</time>
  <course>297.74</course>
  <speed>0.02</speed>
  <fix>3d</fix>
</trkpt>
<trkpt lat="40.0713669" lon="-105.2298256">
  <ele>1583.0</ele>
  <time>2026-08-28T17:49:55Z</time>
  <course>206.76</course>
  <speed>0.0</speed>
  <fix>3d</fix>
</trkpt>
<trkpt lat="40.071367" lon="-105.2298254">
  <ele>1583.03</ele>
  <time>2026-08-28T17:49:56Z</time>
  <course>297.74</course>
  <speed>0.02</speed>
  <fix>3d</fix>
</trkpt>
<trkpt lat="40.0713669" lon="-105.2298256">
  <ele>1583.0</ele>
  <time>2026-08-28T17:49:56Z</time>
  <course>206.76</course>
  <speed>0.0</speed>
  <fix>3d</fix>
</trkpt>
<trkpt lat="40.071367" lon="-105.2298254">
  <ele>1583.04</ele>
  <time>2026-08-28T17:49:56Z</time>
  <course>297.74</course>
  <speed>0.02</speed>
  <fix>3d</fix>
</trkpt>
<trkpt lat="40.0713669" lon="-105.2298256">
  <ele>1583.0</ele>
  <time>2026-08-28T17:49:56Z</time>
  <course>206.76</course>
  <speed>0.0</speed>
  <fix>3d</fix>
</trkpt>
<trkpt lat="40.071367" lon="-105.2298254">
  <ele>1583.04</ele>
  <time>2026-08-28T17:49:56Z</time>
  <course>297.75</course>
  <speed>0.02</speed>
  <fix>3d</fix>
</trkpt>
<trkpt lat="40.0713669" lon="-105.2298256">
  <ele>1583.0</ele>
  <time>2026-08-28T17:49:56Z</time>
  <course>206.76</course>
  <speed>0.0</speed>
  <fix>3d</fix>
</trkpt>
<trkpt lat="40.071367" lon="-105.2298254">
  <ele>1583.04</ele>
  <time>2026-08-28T17:49:56Z</time>
  <course>297.75</course>
  <speed>0.02</speed>
  <fix>3d</fix>
</trkpt>
<trkpt lat="40.0713669" lon="-105.2298256">
  <ele>1583.0</ele>
  <time>2026-08-28T17:49:56Z</time>
  <course>206.76</course>
  <speed>0.0</speed>
  <fix>3d</fix>
</trkpt>
<trkpt lat="40.071367" lon="-105.2298254">
  <ele>1583.04</ele>
  <time>2026-08-28T17:49:56Z</time>
  <course>297.75</course>
  <speed>0.02</speed>
  <fix>3d</fix>
</trkpt>
<trkpt lat="40.0713669" lon="-105.2298256">
  <ele>1583.0</ele>
  <time>2026-08-28T17:49:56Z</time>
  <course>206.76</course>
  <speed>0.0</speed>
  <fix>3d</fix>
</trkpt>
<trkpt lat="40.071367" lon="-105.2298254">
  <ele>1583.05</ele>
  <time>2026-08-28T17:49:56Z</time>
  <course>297.75</course>
  <speed>0.02</speed>
  <fix>3d</fix>
</trkpt>
<trkpt lat="40.0713669" lon="-105.2298256">
  <ele>1583.0</ele>
  <time>2026-08-28T17:49:56Z</time>
  <course>206.76</course>
  <speed>0.0</speed>
  <fix>3d</fix>
</trkpt>
<trkpt lat="40.071367" lon="-105.2298254">
  <ele>1583.05</ele>
  <time>2026-08-28T17:49:56Z</time>
  <course>297.75</course>
  <speed>0.02</speed>
  <fix>3d</fix>
</trkpt>
<trkpt lat="40.0713669" lon="-105.2298256">
  <ele>1583.0</ele>
  <time>2026-08-28T17:49:56Z</time>
  <course>206.76</course>
  <speed>0.0</speed>
  <fix>3d</fix>
</trkpt>
<trkpt lat="40.071367" lon="-105.2298254">
  <ele>1583.05</ele>
  <time>2026-08-28T17:49:56Z</time>
  <course>297.75</course>
  <speed>0.02</speed>
  <fix>3d</fix>
</trkpt>
<trkpt lat="40.0713669" lon="-105.2298256">
  <ele>1583.0</ele>
  <time>2026-08-28T17:49:56Z</time>
  <course>206.76</course>
  <speed>0.0</speed>
  <fix>3d</fix>
</trkpt>
<trkpt lat="40.071367" lon="-105.2298254">
  <ele>1583.05</ele>
  <time>2026-08-28T17:49:56Z</time>
  <course>297.75</course>
  <speed>0.02</speed>
  <fix>3d</fix>
</trkpt>
<trkpt lat="40.0713669" lon="-105.2298256">
  <ele>1583.0</ele>
  <time>2026-08-28T17:49:56Z</time>
  <course>206.76</course>
  <speed>0.0</speed>
  <fix>3d</fix>
</trkpt>
<trkpt lat="40.071367" lon="-105.2298254">
  <ele>1583.05</ele>
  <time>2026-08-28T17:49:56Z</time>
  <course>297.75</course>
  <speed>0.02</speed>
  <fix>3d</fix>
</trkpt>
<trkpt lat="40.0713669" lon="-105.2298256">
  <ele>1583.0</ele>
  <time>2026-08-28T17:49:56Z</time>
  <course>206.77</course>
  <speed>0.0</speed>
  <fix>3d</fix>
</trkpt>
<trkpt lat="40.071367" lon="-105.2298254">
  <ele>1583.05</ele>
  <time>2026-08-28T17:49:56Z</time>
  <course>297.75</course>
  <speed>0.02</speed>
  <fix>3d</fix>
</trkpt>
<trkpt lat="40.0713669" lon="-105.2298256">
  <ele>1583.0</ele>
  <time>2026-08-28T17:49:56Z</time>
  <course>206.77</course>
  <speed>0.0</speed>
  <fix>3d</fix>
</trkpt>
<trkpt lat="40.071367" lon="-105.2298254">
  <ele>1583.05</ele>
  <time>2026-08-28T17:49:56Z</time>
  <course>297.75</course>
  <speed>0.02</speed>
  <fix>3d</fix>
</trkpt>
<trkpt lat="40.0713669" lon="-105.2298256">
  <ele>1583.0</ele>
  <time>2026-08-28T17:49:56Z</time>
  <course>206.77</course>
  <speed>0.0</speed>
  <fix>3d</fix>
</trkpt>
<trkpt lat="40.071367" lon="-105.2298254">
  <ele>1583.05</ele>
  <time>2026-08-28T17:49:56Z</time>
  <course>297.75</course>
  <speed>0.02</speed>
  <fix>3d</fix>
</trkpt>
<trkpt lat="40.0713669" lon="-105.2298256">
  <ele>1583.0</ele>
  <time>2026-08-28T17:49:56Z</time>
  <course>206.77</course>
  <speed>0.0</speed>
  <fix>3d</fix>
</trkpt>
<trkpt lat="40.071367" lon="-105.2298254">
  <ele>1583.05</ele>
  <time>2026-08-28T17:49:56Z</time>
  <course>297.75</course>
  <speed>0.02</speed>
  <fix>3d</fix>
</trkpt>
<trkpt lat="40.0713669" lon="-105.2298256">
  <ele>1583.0</ele>
  <time>2026-08-28T17:49:56Z</time>
  <course>206.77</course>
  <speed>0.0</speed>
  <fix>3d</fix>
</trkpt>
<trkpt lat="40.071367" lon="-105.2298254">
  <ele>1583.05</ele>
  <time>2026-08-28T17:49:56Z</time>
  <course>297.75</course>
  <speed>0.02</speed>
  <fix>3d</fix>
</trkpt>
<trkpt lat="40.0713669" lon="-105.2298256">
  <ele>1583.0</ele>
  <time>2026-08-28T17:49:56Z</time>
  <course>206.77</course>
  <speed>0.0</speed>
  <fix>3d</fix>
</trkpt>
<trkpt lat="40.071367" lon="-105.2298254">
  <ele>1583.04</ele>
  <time>2026-08-28T17:49:56Z</time>
  <course>297.75</course>
  <speed>0.02</speed>
  <fix>3d</fix>
</trkpt>
<trkpt lat="40.0713669" lon="-105.2298256">
  <ele>1583.0</ele>
  <time>2026-08-28T17:49:56Z</time>
  <course>206.77</course>
  <speed>0.0</speed>
  <fix>3d</fix>
</trkpt>
<trkpt lat="40.071367" lon="-105.2298254">
  <ele>1583.04</ele>
  <time>2026-08-28T17:49:56Z</time>
  <course>297.75</course>
  <speed>0.02</speed>
  <fix>3d</fix>
</trkpt>
<trkpt lat="40.0713669" lon="-105.2298256">
  <ele>1583.0</ele>
  <time>2026-08-28T17:49:56Z</time>
  <course>206.77</course>
  <speed>0.0</speed>
  <fix>3d</fix>
</trkpt>
<trkpt lat="40.071367" lon="-105.2298254">
  <ele>1583.05</ele>
  <time>2026-08-28T17:49:56Z</time>
  <course>297.75</course>
  <speed>0.02</speed>
  <fix>3d</fix>
</trkpt>
<trkpt lat="40.0713669" lon="-105.2298256">
  <ele>1583.0</ele>
  <time>2026-08-28T17:49:56Z</time>
  <course>206.77</course>
  <speed>0.0</speed>
  <fix>3d</fix>
</trkpt>
<trkpt lat="40.071367" lon="-105.2298254">
  <ele>1583.05</ele>
  <time>2026-08-28T17:49:56Z</time>
  <course>297.75</course>
  <speed>0.02</speed>
  <fix>3d</fix>
</trkpt>
<trkpt lat="40.0713669" lon="-105.2298256">
  <ele>1583.0</ele>
  <time>2026-08-28T17:49:56Z</time>
  <course>206.77</course>
  <speed>0.0</speed>
  <fix>3d</fix>
</trkpt>
<trkpt lat="40.071367" lon="-105.2298254">
  <ele>1583.05</ele>
  <time>2026-08-28T17:49:56Z</time>
  <course>297.75</course>
  <speed>0.02</speed>
  <fix>3d</fix>
</trkpt>
<trkpt lat="40.0713669" lon="-105.2298256">
  <ele>1583.0</ele>
  <time>2026-08-28T17:49:56Z</time>
  <course>206.77</course>
  <speed>0.0</speed>
  <fix>3d</fix>
</trkpt>
<trkpt lat="40.071367" lon="-105.2298254">
  <ele>1583.05</ele>
  <time>2026-08-28T17:49:56Z</time>
  <course>297.75</course>
  <speed>0.02</speed>
  <fix>3d</fix>
</trkpt>
<trkpt lat="40.0713669" lon="-105.2298256">
  <ele>1583.0</ele>
  <time>2026-08-28T17:49:56Z</time>
  <course>206.77</course>
  <speed>0.0</speed>
  <fix>3d</fix>
</trkpt>
<trkpt lat="40.071367" lon="-105.2298254">
  <ele>1583.06</ele>
  <time>2026-08-28T17:49:56Z</time>
  <course>297.75</course>
  <speed>0.02</speed>
  <fix>3d</fix>
</trkpt>
<trkpt lat="40.0713669" lon="-105.2298256">
  <ele>1583.0</ele>
  <time>2026-08-28T17:49:56Z</time>
  <course>206.77</course>
  <speed>0.0</speed>
  <fix>3d</fix>
</trkpt>
<trkpt lat="40.071367" lon="-105.2298254">
  <ele>1583.06</ele>
  <time>2026-08-28T17:49:56Z</time>
  <course>297.75</course>
  <speed>0.02</speed>
  <fix>3d</fix>
</trkpt>
<trkpt lat="40.0713669" lon="-105.2298256">
  <ele>1583.0</ele>
  <time>2026-08-28T17:49:56Z</time>
  <course>206.77</course>
  <speed>0.0</speed>
  <fix>3d</fix>
</trkpt>
<trkpt lat="40.071367" lon="-105.2298254">
  <ele>1583.06</ele>
  <time>2026-08-28T17:49:56Z</time>
  <course>297.75</course>
  <speed>0.02</speed>
  <fix>3d</fix>
</trkpt>
<trkpt lat="40.0713669" lon="-105.2298256">
  <ele>1583.0</ele>
  <time>2026-08-28T17:49:56Z</time>
  <course>206.77</course>
  <speed>0.0</speed>
  <fix>3d</fix>
</trkpt>
<trkpt lat="40.071367" lon="-105.2298254">
  <ele>1583.06</ele>
  <time>2026-08-28T17:49:56Z</time>
  <course>297.75</course>
  <speed>0.02</speed>
  <fix>3d</fix>
</trkpt>
<trkpt lat="40.0713669" lon="-105.2298256">
  <ele>1583.0</ele>
  <time>2026-08-28T17:49:56Z</time>
  <course>206.77</course>
  <speed>0.0</speed>
  <fix>3d</fix>
</trkpt>
<trkpt lat="40.071367" lon="-105.2298254">
  <ele>1583.06</ele>
  <time>2026-08-28T17:49:56Z</time>
  <course>297.75</course>
  <speed>0.02</speed>
  <fix>3d</fix>
</trkpt>
<trkpt lat="40.0713669" lon="-105.2298256">
  <ele>1583.0</ele>
  <time>2026-08-28T17:49:56Z</time>
  <course>206.77</course>
  <speed>0.0</speed>
  <fix>3d</fix>
</trkpt>
<trkpt lat="40.071367" lon="-105.2298254">
  <ele>1583.07</ele>
  <time>2026-08-28T17:49:56Z</time>
  <course>297.75</course>
  <speed>0.02</speed>
  <fix>3d</fix>
</trkpt>
<trkpt lat="40.0713669" lon="-105.2298256">
  <ele>1583.0</ele>
  <time>2026-08-28T17:49:56Z</time>
  <course>206.77</course>
  <speed>0.0</speed>
  <fix>3d</fix>
</trkpt>
<trkpt lat="40.071367" lon="-105.2298254">
  <ele>1583.07</ele>
  <time>2026-08-28T17:49:56Z</time>
  <course>297.75</course>
  <speed>0.02</speed>
  <fix>3d</fix>
</trkpt>
<trkpt lat="40.0713669" lon="-105.2298256">
  <ele>1583.0</ele>
  <time>2026-08-28T17:49:56Z</time>
  <course>206.77</course>
  <speed>0.0</speed>
  <fix>3d</fix>
</trkpt>
<trkpt lat="40.071367" lon="-105.2298254">
  <ele>1583.08</ele>
  <time>2026-08-28T17:49:56Z</time>
  <course>297.75</course>
  <speed>0.02</speed>
  <fix>3d</fix>
</trkpt>
<trkpt lat="40.0713669" lon="-105.2298256">
  <ele>1583.0</ele>
  <time>2026-08-28T17:49:56Z</time>
  <course>206.77</course>
  <speed>0.0</speed>
  <fix>3d</fix>
</trkpt>
<trkpt lat="40.071367" lon="-105.2298254">
  <ele>1583.09</ele>
  <time>2026-08-28T17:49:56Z</time>
  <course>297.75</course>
  <speed>0.02</speed>
  <fix>3d</fix>
</trkpt>
<trkpt lat="40.0713669" lon="-105.2298256">
  <ele>1583.0</ele>
  <time>2026-08-28T17:49:56Z</time>
  <course>206.77</course>
  <speed>0.0</speed>
  <fix>3d</fix>
</trkpt>
<trkpt lat="40.071367" lon="-105.2298254">
  <ele>1583.09</ele>
  <time>2026-08-28T17:49:56Z</time>
  <course>297.75</course>
  <speed>0.02</speed>
  <fix>3d</fix>
</trkpt>
<trkpt lat="40.0713669" lon="-105.2298256">
  <ele>1583.0</ele>
  <time>2026-08-28T17:49:56Z</time>
  <course>206.77</course>
  <speed>0.0</speed>
  <fix>3d</fix>
</trkpt>
<trkpt lat="40.071367" lon="-105.2298254">
  <ele>1583.1</ele>
  <time>2026-08-28T17:49:56Z</time>
  <course>297.75</course>
  <speed>0.02</speed>
  <fix>3d</fix>
</trkpt>
<trkpt lat="40.0713669" lon="-105.2298256">
  <ele>1583.0</ele>
  <time>2026-08-28T17:49:56Z</time>
  <course>206.77</course>
  <speed>0.0</speed>
  <fix>3d</fix>
</trkpt>
<trkpt lat="40.071367" lon="-105.2298254">
  <ele>1583.1</ele>
  <time>2026-08-28T17:49:56Z</time>
  <course>297.75</course>
  <speed>0.02</speed>
  <fix>3d</fix>
</trkpt>
<trkpt lat="40.0713669" lon="-105.2298256">
  <ele>1583.0</ele>
  <time>2026-08-28T17:49:56Z</time>
  <course>206.77</course>
  <speed>0.0</speed>
  <fix>3d</fix>
</trkpt>
<trkpt lat="40.071367" lon="-105.2298254">
  <ele>1583.11</ele>
  <time>2026-08-28T17:49:56Z</time>
  <course>297.76</course>
  <speed>0.02</speed>
  <fix>3d</fix>
</trkpt>
<trkpt lat="40.0713669" lon="-105.2298256">
  <ele>1583.0</ele>
  <time>2026-08-28T17:49:56Z</time>
  <course>206.77</course>
  <speed>0.0</speed>
  <fix>3d</fix>
</trkpt>
<trkpt lat="40.071367" lon="-105.2298254">
  <ele>1583.11</ele>
  <time>2026-08-28T17:49:56Z</time>
  <course>297.76</course>
  <speed>0.02</speed>
  <fix>3d</fix>
</trkpt>
<trkpt lat="40.0713669" lon="-105.2298256">
  <ele>1583.0</ele>
  <time>2026-08-28T17:49:56Z</time>
  <course>206.77</course>
  <speed>0.0</speed>
  <fix>3d</fix>
</trkpt>
<trkpt lat="40.071367" lon="-105.2298254">
  <ele>1583.12</ele>
  <time>2026-08-28T17:49:56Z</time>
  <course>297.76</course>
  <speed>0.02</speed>
  <fix>3d</fix>
</trkpt>
<trkpt lat="40.0713669" lon="-105.2298256">
  <ele>1583.0</ele>
  <time>2026-08-28T17:49:56Z</time>
  <course>206.77</course>
  <speed>0.0</speed>
  <fix>3d</fix>
</trkpt>
<trkpt lat="40.071367" lon="-105.2298254">
  <ele>1583.12</ele>
  <time>2026-08-28T17:49:56Z</time>
  <course>297.76</course>
  <speed>0.02</speed>
  <fix>3d</fix>
</trkpt>
<trkpt lat="40.0713669" lon="-105.2298256">
  <ele>1583.0</ele>
  <time>2026-08-28T17:49:56Z</time>
  <course>206.78</course>
  <speed>0.0</speed>
  <fix>3d</fix>
</trkpt>
<trkpt lat="40.071367" lon="-105.2298254">
  <ele>1583.12</ele>
  <time>2026-08-28T17:49:56Z</time>
  <course>297.76</course>
  <speed>0.02</speed>
  <fix>3d</fix>
</trkpt>
<trkpt lat="40.0713669" lon="-105.2298256">
  <ele>1583.0</ele>
  <time>2026-08-28T17:49:56Z</time>
  <course>206.78</course>
  <speed>0.0</speed>
  <fix>3d</fix>
</trkpt>
<trkpt lat="40.071367" lon="-105.2298254">
  <ele>1583.12</ele>
  <time>2026-08-28T17:49:56Z</time>
  <course>297.76</course>
  <speed>0.02</speed>
  <fix>3d</fix>
</trkpt>
<trkpt lat="40.0713669" lon="-105.2298256">
  <ele>1583.0</ele>
  <time>2026-08-28T17:49:56Z</time>
  <course>206.78</course>
  <speed>0.0</speed>
  <fix>3d</fix>
</trkpt>
<trkpt lat="40.071367" lon="-105.2298254">
  <ele>1583.12</ele>
  <time>2026-08-28T17:49:56Z</time>
  <course>297.76</course>
  <speed>0.02</speed>
  <fix>3d</fix>
</trkpt>
<trkpt lat="40.0713669" lon="-105.2298256">
  <ele>1583.0</ele>
  <time>2026-08-28T17:49:56Z</time>
  <course>206.78</course>
  <speed>0.0</speed>
  <fix>3d</fix>
</trkpt>
<trkpt lat="40.071367" lon="-105.2298254">
  <ele>1583.12</ele>
  <time>2026-08-28T17:49:56Z</time>
  <course>297.76</course>
  <speed>0.02</speed>
  <fix>3d</fix>
</trkpt>
<trkpt lat="40.0713669" lon="-105.2298256">
  <ele>1583.0</ele>
  <time>2026-08-28T17:49:56Z</time>
  <course>206.78</course>
  <speed>0.0</speed>
  <fix>3d</fix>
</trkpt>
<trkpt lat="40.071367" lon="-105.2298254">
  <ele>1583.12</ele>
  <time>2026-08-28T17:49:56Z</time>
  <course>297.76</course>
  <speed>0.02</speed>
  <fix>3d</fix>
</trkpt>
<trkpt lat="40.0713669" lon="-105.2298256">
  <ele>1583.0</ele>
  <time>2026-08-28T17:49:56Z</time>
  <course>206.78</course>
  <speed>0.0</speed>
  <fix>3d</fix>
</trkpt>
<trkpt lat="40.071367" lon="-105.2298254">
  <ele>1583.12</ele>
  <time>2026-08-28T17:49:56Z</time>
  <course>297.76</course>
  <speed>0.02</speed>
  <fix>3d</fix>
</trkpt>
<trkpt lat="40.0713669" lon="-105.2298256">
  <ele>1583.0</ele>
  <time>2026-08-28T17:49:56Z</time>
  <course>206.78</course>
  <speed>0.0</speed>
  <fix>3d</fix>
</trkpt>
<trkpt lat="40.071367" lon="-105.2298254">
  <ele>1583.12</ele>
  <time>2026-08-28T17:49:56Z</time>
  <course>297.76</course>
  <speed>0.02</speed>
  <fix>3d</fix>
</trkpt>
<trkpt lat="40.0713669" lon="-105.2298256">
  <ele>1583.0</ele>
  <time>2026-08-28T17:49:56Z</time>
  <course>206.78</course>
  <speed>0.0</speed>
  <fix>3d</fix>
</trkpt>
<trkpt lat="40.071367" lon="-105.2298254">
  <ele>1583.12</ele>
  <time>2026-08-28T17:49:56Z</time>
  <course>297.76</course>
  <speed>0.02</speed>
  <fix>3d</fix>
</trkpt>
<trkpt lat="40.0713669" lon="-105.2298256">
  <ele>1583.0</ele>
  <time>2026-08-28T17:49:56Z</time>
  <course>206.78</course>
  <speed>0.0</speed>
  <fix>3d</fix>
</trkpt>
<trkpt lat="40.071367" lon="-105.2298254">
  <ele>1583.12</ele>
  <time>2026-08-28T17:49:56Z</time>
  <course>297.76</course>
  <speed>0.02</speed>
  <fix>3d</fix>
</trkpt>
<trkpt lat="40.0713669" lon="-105.2298256">
  <ele>1583.0</ele>
  <time>2026-08-28T17:49:56Z</time>
  <course>206.78</course>
  <speed>0.0</speed>
  <fix>3d</fix>
</trkpt>
<trkpt lat="40.071367" lon="-105.2298254">
  <ele>1583.12</ele>
  <time>2026-08-28T17:49:56Z</time>
  <course>297.76</course>
  <speed>0.02</speed>
  <fix>3d</fix>
</trkpt>
<trkpt lat="40.0713669" lon="-105.2298256">
  <ele>1583.0</ele>
  <time>2026-08-28T17:49:56Z</time>
  <course>206.78</course>
  <speed>0.0</speed>
  <fix>3d</fix>
</trkpt>
<trkpt lat="40.071367" lon="-105.2298254">
  <ele>1583.12</ele>
  <time>2026-08-28T17:49:56Z</time>
  <course>297.76</course>
  <speed>0.02</speed>
  <fix>3d</fix>
</trkpt>
<trkpt lat="40.0713669" lon="-105.2298256">
  <ele>1583.0</ele>
  <time>2026-08-28T17:49:56Z</time>
  <course>206.78</course>
  <speed>0.0</speed>
  <fix>3d</fix>
</trkpt>
<trkpt lat="40.071367" lon="-105.2298254">
  <ele>1583.11</ele>
  <time>2026-08-28T17:49:56Z</time>
  <course>297.76</course>
  <speed>0.02</speed>
  <fix>3d</fix>
</trkpt>
<trkpt lat="40.0713669" lon="-105.2298256">
  <ele>1583.0</ele>
  <time>2026-08-28T17:49:56Z</time>
  <course>206.78</course>
  <speed>0.0</speed>
  <fix>3d</fix>
</trkpt>
<trkpt lat="40.071367" lon="-105.2298254">
  <ele>1583.1</ele>
  <time>2026-08-28T17:49:56Z</time>
  <course>297.76</course>
  <speed>0.02</speed>
  <fix>3d</fix>
</trkpt>
<trkpt lat="40.0713669" lon="-105.2298256">
  <ele>1583.0</ele>
  <time>2026-08-28T17:49:56Z</time>
  <course>206.78</course>
  <speed>0.0</speed>
  <fix>3d</fix>
</trkpt>
<trkpt lat="40.071367" lon="-105.2298254">
  <ele>1583.1</ele>
  <time>2026-08-28T17:49:56Z</time>
  <course>297.76</course>
  <speed>0.02</speed>
  <fix>3d</fix>
</trkpt>
<trkpt lat="40.0713669" lon="-105.2298256">
  <ele>1583.0</ele>
  <time>2026-08-28T17:49:56Z</time>
  <course>206.78</course>
  <speed>0.0</speed>
  <fix>3d</fix>
</trkpt>
<trkpt lat="40.071367" lon="-105.2298254">
  <ele>1583.09</ele>
  <time>2026-08-28T17:49:56Z</time>
  <course>297.76</course>
  <speed>0.02</speed>
  <fix>3d</fix>
</trkpt>
<trkpt lat="40.0713669" lon="-105.2298256">
  <ele>1583.0</ele>
  <time>2026-08-28T17:49:56Z</time>
  <course>206.78</course>
  <speed>0.0</speed>
  <fix>3d</fix>
</trkpt>
<trkpt lat="40.071367" lon="-105.2298254">
  <ele>1583.08</ele>
  <time>2026-08-28T17:49:56Z</time>
  <course>297.76</course>
  <speed>0.02</speed>
  <fix>3d</fix>
</trkpt>
<trkpt lat="40.0713669" lon="-105.2298256">
  <ele>1583.0</ele>
  <time>2026-08-28T17:49:56Z</time>
  <course>206.78</course>
  <speed>0.0</speed>
  <fix>3d</fix>
</trkpt>
<trkpt lat="40.071367" lon="-105.2298254">
  <ele>1583.07</ele>
  <time>2026-08-28T17:49:56Z</time>
  <course>297.76</course>
  <speed>0.02</speed>
  <fix>3d</fix>
</trkpt>
<trkpt lat="40.0713669" lon="-105.2298256">
  <ele>1583.0</ele>
  <time>2026-08-28T17:49:56Z</time>
  <course>206.78</course>
  <speed>0.0</speed>
  <fix>3d</fix>
</trkpt>
<trkpt lat="40.071367" lon="-105.2298254">
  <ele>1583.07</ele>
  <time>2026-08-28T17:49:56Z</time>
  <course>297.76</course>
  <speed>0.02</speed>
  <fix>3d</fix>
</trkpt>
<trkpt lat="40.0713669" lon="-105.2298256">
  <ele>1583.0</ele>
  <time>2026-08-28T17:49:56Z</time>
  <course>206.78</course>
  <speed>0.0</speed>
  <fix>3d</fix>
</trkpt>
<trkpt lat="40.071367" lon="-105.2298254">
  <ele>1583.06</ele>
  <time>2026-08-28T17:49:56Z</time>
  <course>297.76</course>
  <speed>0.02</speed>
  <fix>3d</fix>
</trkpt>
<trkpt lat="40.0713669" lon="-105.2298256">
  <ele>1583.0</ele>
  <time>2026-08-28T17:49:56Z</time>
  <course>206.78</course>
  <speed>0.0</speed>
  <fix>3d</fix>
</trkpt>
<trkpt lat="40.071367" lon="-105.2298254">
  <ele>1583.05</ele>
  <time>2026-08-28T17:49:56Z</time>
  <course>297.76</course>
  <speed>0.02</speed>
  <fix>3d</fix>
</trkpt>
<trkpt lat="40.0713669" lon="-105.2298256">
  <ele>1583.0</ele>
  <time>2026-08-28T17:49:56Z</time>
  <course>206.78</course>
  <speed>0.0</speed>
  <fix>3d</fix>
</trkpt>
<trkpt lat="40.071367" lon="-105.2298254">
  <ele>1583.05</ele>
  <time>2026-08-28T17:49:56Z</time>
  <course>297.76</course>
  <speed>0.02</speed>
  <fix>3d</fix>
</trkpt>
<trkpt lat="40.0713669" lon="-105.2298256">
  <ele>1583.0</ele>
  <time>2026-08-28T17:49:56Z</time>
  <course>206.78</course>
  <speed>0.0</speed>
  <fix>3d</fix>
</trkpt>
<trkpt lat="40.071367" lon="-105.2298254">
  <ele>1583.05</ele>
  <time>2026-08-28T17:49:56Z</time>
  <course>297.76</course>
  <speed>0.02</speed>
  <fix>3d</fix>
</trkpt>
<trkpt lat="40.0713669" lon="-105.2298256">
  <ele>1583.0</ele>
  <time>2026-08-28T17:49:56Z</time>
  <course>206.78</course>
  <speed>0.0</speed>
  <fix>3d</fix>
</trkpt>
<trkpt lat="40.071367" lon="-105.2298254">
  <ele>1583.05</ele>
  <time>2026-08-28T17:49:56Z</time>
  <course>297.76</course>
  <speed>0.02</speed>
  <fix>3d</fix>
</trkpt>
<trkpt lat="40.0713669" lon="-105.2298256">
  <ele>1583.0</ele>
  <time>2026-08-28T17:49:56Z</time>
  <course>206.78</course>
  <speed>0.0</speed>
  <fix>3d</fix>
</trkpt>
<trkpt lat="40.071367" lon="-105.2298254">
  <ele>1583.05</ele>
  <time>2026-08-28T17:49:56Z</time>
  <course>297.76</course>
  <speed>0.02</speed>
  <fix>3d</fix>
</trkpt>
<trkpt lat="40.0713669" lon="-105.2298256">
  <ele>1583.0</ele>
  <time>2026-08-28T17:49:56Z</time>
  <course>206.78</course>
  <speed>0.0</speed>
  <fix>3d</fix>
</trkpt>
<trkpt lat="40.071367" lon="-105.2298254">
  <ele>1583.05</ele>
  <time>2026-08-28T17:49:56Z</time>
  <course>297.76</course>
  <speed>0.02</speed>
  <fix>3d</fix>
</trkpt>
<trkpt lat="40.0713669" lon="-105.2298256">
  <ele>1583.0</ele>
  <time>2026-08-28T17:49:56Z</time>
  <course>206.78</course>
  <speed>0.0</speed>
  <fix>3d</fix>
</trkpt>
<trkpt lat="40.071367" lon="-105.2298254">
  <ele>1583.05</ele>
  <time>2026-08-28T17:49:56Z</time>
  <course>297.76</course>
  <speed>0.02</speed>
  <fix>3d</fix>
</trkpt>
<trkpt lat="40.0713669" lon="-105.2298256">
  <ele>1583.0</ele>
  <time>2026-08-28T17:49:56Z</time>
  <course>206.78</course>
  <speed>0.0</speed>
  <fix>3d</fix>
</trkpt>
<trkpt lat="40.071367" lon="-105.2298254">
  <ele>1583.05</ele>
  <time>2026-08-28T17:49:56Z</time>
  <course>297.76</course>
  <speed>0.02</speed>
  <fix>3d</fix>
</trkpt>
<trkpt lat="40.0713669" lon="-105.2298256">
  <ele>1583.0</ele>
  <time>2026-08-28T17:49:56Z</time>
  <course>206.78</course>
  <speed>0.0</speed>
  <fix>3d</fix>
</trkpt>
<trkpt lat="40.071367" lon="-105.2298254">
  <ele>1583.06</ele>
  <time>2026-08-28T17:49:56Z</time>
  <course>297.76</course>
  <speed>0.02</speed>
  <fix>3d</fix>
</trkpt>
<trkpt lat="40.0713669" lon="-105.2298256">
  <ele>1583.0</ele>
  <time>2026-08-28T17:49:56Z</time>
  <course>206.78</course>
  <speed>0.0</speed>
  <fix>3d</fix>
</trkpt>
<trkpt lat="40.071367" lon="-105.2298254">
  <ele>1583.06</ele>
  <time>2026-08-28T17:49:56Z</time>
  <course>297.76</course>
  <speed>0.02</speed>
  <fix>3d</fix>
</trkpt>
<trkpt lat="40.0713669" lon="-105.2298256">
  <ele>1583.0</ele>
  <time>2026-08-28T17:49:56Z</time>
  <course>206.78</course>
  <speed>0.0</speed>
  <fix>3d</fix>
</trkpt>
<trkpt lat="40.071367" lon="-105.2298254">
  <ele>1583.06</ele>
  <time>2026-08-28T17:49:56Z</time>
  <course>297.76</course>
  <speed>0.02</speed>
  <fix>3d</fix>
</trkpt>
<trkpt lat="40.0713669" lon="-105.2298256">
  <ele>1583.0</ele>
  <time>2026-08-28T17:49:56Z</time>
  <course>206.78</course>
  <speed>0.0</speed>
  <fix>3d</fix>
</trkpt>
<trkpt lat="40.071367" lon="-105.2298254">
  <ele>1583.06</ele>
  <time>2026-08-28T17:49:56Z</time>
  <course>297.76</course>
  <speed>0.02</speed>
  <fix>3d</fix>
</trkpt>
<trkpt lat="40.0713669" lon="-105.2298256">
  <ele>1583.0</ele>
  <time>2026-08-28T17:49:56Z</time>
  <course>206.78</course>
  <speed>0.0</speed>
  <fix>3d</fix>
</trkpt>
<trkpt lat="40.071367" lon="-105.2298254">
  <ele>1583.06</ele>
  <time>2026-08-28T17:49:56Z</time>
  <course>297.76</course>
  <speed>0.02</speed>
  <fix>3d</fix>
</trkpt>
<trkpt lat="40.0713669" lon="-105.2298256">
  <ele>1583.0</ele>
  <time>2026-08-28T17:49:56Z</time>
  <course>206.78</course>
  <speed>0.0</speed>
  <fix>3d</fix>
</trkpt>
<trkpt lat="40.071367" lon="-105.2298254">
  <ele>1583.06</ele>
  <time>2026-08-28T17:49:56Z</time>
  <course>297.76</course>
  <speed>0.02</speed>
  <fix>3d</fix>
</trkpt>
<trkpt lat="40.0713669" lon="-105.2298256">
  <ele>1583.0</ele>
  <time>2026-08-28T17:49:56Z</time>
  <course>206.78</course>
  <speed>0.0</speed>
  <fix>3d</fix>
</trkpt>
<trkpt lat="40.071367" lon="-105.2298254">
  <ele>1583.05</ele>
  <time>2026-08-28T17:49:56Z</time>
  <course>297.76</course>
  <speed>0.02</speed>
  <fix>3d</fix>
</trkpt>
<trkpt lat="40.0713669" lon="-105.2298256">
  <ele>1583.0</ele>
  <time>2026-08-28T17:49:56Z</time>
  <course>206.78</course>
  <speed>0.0</speed>
  <fix>3d</fix>
</trkpt>
<trkpt lat="40.071367" lon="-105.2298254">
  <ele>1583.05</ele>
  <time>2026-08-28T17:49:56Z</time>
  <course>297.76</course>
  <speed>0.02</speed>
  <fix>3d</fix>
</trkpt>
<trkpt lat="40.0713669" lon="-105.2298256">
  <ele>1583.0</ele>
  <time>2026-08-28T17:49:56Z</time>
  <course>206.78</course>
  <speed>0.0</speed>
  <fix>3d</fix>
</trkpt>
<trkpt lat="40.071367" lon="-105.2298254">
  <ele>1583.05</ele>
  <time>2026-08-28T17:49:56Z</time>
  <course>297.76</course>
  <speed>0.02</speed>
  <fix>3d</fix>
</trkpt>
<trkpt lat="40.0713669" lon="-105.2298256">
  <ele>1583.0</ele>
  <time>2026-08-28T17:49:56Z</time>
  <course>206.78</course>
  <speed>0.0</speed>
  <fix>3d</fix>
</trkpt>
<trkpt lat="40.071367" lon="-105.2298254">
  <ele>1583.05</ele>
  <time>2026-08-28T17:49:56Z</time>
  <course>297.76</course>
  <speed>0.02</speed>
  <fix>3d</fix>
</trkpt>
<trkpt lat="40.0713669" lon="-105.2298256">
  <ele>1583.0</ele>
  <time>2026-08-28T17:49:56Z</time>
  <course>206.78</course>
  <speed>0.0</speed>
  <fix>3d</fix>
</trkpt>
<trkpt lat="40.071367" lon="-105.2298254">
  <ele>1583.05</ele>
  <time>2026-08-28T17:49:56Z</time>
  <course>297.76</course>
  <speed>0.02</speed>
  <fix>3d</fix>
</trkpt>
<trkpt lat="40.0713669" lon="-105.2298256">
  <ele>1583.0</ele>
  <time>2026-08-28T17:49:56Z</time>
  <course>206.78</course>
  <speed>0.0</speed>
  <fix>3d</fix>
</trkpt>
<trkpt lat="40.071367" lon="-105.2298254">
  <ele>1583.04</ele>
  <time>2026-08-28T17:49:56Z</time>
  <course>297.76</course>
  <speed>0.02</speed>
  <fix>3d</fix>
</trkpt>
<trkpt lat="40.0713669" lon="-105.2298256">
  <ele>1583.0</ele>
  <time>2026-08-28T17:49:56Z</time>
  <course>206.78</course>
  <speed>0.0</speed>
  <fix>3d</fix>
</trkpt>
<trkpt lat="40.071367" lon="-105.2298254">
  <ele>1583.04</ele>
  <time>2026-08-28T17:49:56Z</time>
  <course>297.77</course>
  <speed>0.02</speed>
  <fix>3d</fix>
</trkpt>
<trkpt lat="40.0713669" lon="-105.2298256">
  <ele>1583.0</ele>
  <time>2026-08-28T17:49:56Z</time>
  <course>206.78</course>
  <speed>0.0</speed>
  <fix>3d</fix>
</trkpt>
<trkpt lat="40.071367" lon="-105.2298254">
  <ele>1583.04</ele>
  <time>2026-08-28T17:49:56Z</time>
  <course>297.77</course>
  <speed>0.02</speed>
  <fix>3d</fix>
</trkpt>
<trkpt lat="40.0713669" lon="-105.2298256">
  <ele>1583.0</ele>
  <time>2026-08-28T17:49:56Z</time>
  <course>206.78</course>
  <speed>0.0</speed>
  <fix>3d</fix>
</trkpt>
<trkpt lat="40.071367" lon="-105.2298254">
  <ele>1583.04</ele>
  <time>2026-08-28T17:49:56Z</time>
  <course>297.77</course>
  <speed>0.02</speed>
  <fix>3d</fix>
</trkpt>
<trkpt lat="40.0713669" lon="-105.2298256">
  <ele>1583.0</ele>
  <time>2026-08-28T17:49:56Z</time>
  <course>206.78</course>
  <speed>0.0</speed>
  <fix>3d</fix>
</trkpt>
<trkpt lat="40.071367" lon="-105.2298254">
  <ele>1583.04</ele>
  <time>2026-08-28T17:49:56Z</time>
  <course>297.77</course>
  <speed>0.02</speed>
  <fix>3d</fix>
</trkpt>
<trkpt lat="40.0713669" lon="-105.2298256">
  <ele>1583.0</ele>
  <time>2026-08-28T17:49:56Z</time>
  <course>206.78</course>
  <speed>0.0</speed>
  <fix>3d</fix>
</trkpt>
<trkpt lat="40.071367" lon="-105.2298254">
  <ele>1583.04</ele>
  <time>2026-08-28T17:49:56Z</time>
  <course>297.77</course>
  <speed>0.02</speed>
  <fix>3d</fix>
</trkpt>
<trkpt lat="40.0713669" lon="-105.2298256">
  <ele>1583.0</ele>
  <time>2026-08-28T17:49:56Z</time>
  <course>206.78</course>
  <speed>0.0</speed>
  <fix>3d</fix>
</trkpt>
<trkpt lat="40.071367" lon="-105.2298254">
  <ele>1583.04</ele>
  <time>2026-08-28T17:49:56Z</time>
  <course>297.77</course>
  <speed>0.02</speed>
  <fix>3d</fix>
</trkpt>
<trkpt lat="40.0713669" lon="-105.2298256">
  <ele>1583.0</ele>
  <time>2026-08-28T17:49:56Z</time>
  <course>206.78</course>
  <speed>0.0</speed>
  <fix>3d</fix>
</trkpt>
<trkpt lat="40.071367" lon="-105.2298254">
  <ele>1583.03</ele>
  <time>2026-08-28T17:49:56Z</time>
  <course>297.77</course>
  <speed>0.02</speed>
  <fix>3d</fix>
</trkpt>
<trkpt lat="40.0713669" lon="-105.2298256">
  <ele>1583.0</ele>
  <time>2026-08-28T17:49:56Z</time>
  <course>206.78</course>
  <speed>0.0</speed>
  <fix>3d</fix>
</trkpt>
<trkpt lat="40.071367" lon="-105.2298254">
  <ele>1583.03</ele>
  <time>2026-08-28T17:49:56Z</time>
  <course>297.77</course>
  <speed>0.02</speed>
  <fix>3d</fix>
</trkpt>
<trkpt lat="40.0713669" lon="-105.2298256">
  <ele>1583.0</ele>
  <time>2026-08-28T17:49:56Z</time>
  <course>206.78</course>
  <speed>0.0</speed>
  <fix>3d</fix>
</trkpt>
<trkpt lat="40.071367" lon="-105.2298254">
  <ele>1583.03</ele>
  <time>2026-08-28T17:49:56Z</time>
  <course>297.77</course>
  <speed>0.02</speed>
  <fix>3d</fix>
</trkpt>
<trkpt lat="40.0713669" lon="-105.2298256">
  <ele>1583.0</ele>
  <time>2026-08-28T17:49:56Z</time>
  <course>206.78</course>
  <speed>0.0</speed>
  <fix>3d</fix>
</trkpt>
<trkpt lat="40.071367" lon="-105.2298254">
  <ele>1583.03</ele>
  <time>2026-08-28T17:49:56Z</time>
  <course>297.77</course>
  <speed>0.02</speed>
  <fix>3d</fix>
</trkpt>
<trkpt lat="40.0713669" lon="-105.2298256">
  <ele>1583.0</ele>
  <time>2026-08-28T17:49:56Z</time>
  <course>206.78</course>
  <speed>0.0</speed>
  <fix>3d</fix>
</trkpt>
<trkpt lat="40.071367" lon="-105.2298254">
  <ele>1583.04</ele>
  <time>2026-08-28T17:49:56Z</time>
  <course>297.77</course>
  <speed>0.02</speed>
  <fix>3d</fix>
</trkpt>
<trkpt lat="40.0713669" lon="-105.2298256">
  <ele>1583.0</ele>
  <time>2026-08-28T17:49:56Z</time>
  <course>206.78</course>
  <speed>0.0</speed>
  <fix>3d</fix>
</trkpt>
<trkpt lat="40.071367" lon="-105.2298254">
  <ele>1583.04</ele>
  <time>2026-08-28T17:49:56Z</time>
  <course>297.77</course>
  <speed>0.02</speed>
  <fix>3d</fix>
</trkpt>
<trkpt lat="40.0713669" lon="-105.2298256">
  <ele>1583.0</ele>
  <time>2026-08-28T17:49:56Z</time>
  <course>206.78</course>
  <speed>0.0</speed>
  <fix>3d</fix>
</trkpt>
<trkpt lat="40.071367" lon="-105.2298254">
  <ele>1583.05</ele>
  <time>2026-08-28T17:49:56Z</time>
  <course>297.77</course>
  <speed>0.02</speed>
  <fix>3d</fix>
</trkpt>
<trkpt lat="40.0713669" lon="-105.2298256">
  <ele>1583.0</ele>
  <time>2026-08-28T17:49:56Z</time>
  <course>206.78</course>
  <speed>0.0</speed>
  <fix>3d</fix>
</trkpt>
<trkpt lat="40.071367" lon="-105.2298254">
  <ele>1583.05</ele>
  <time>2026-08-28T17:49:56Z</time>
  <course>297.77</course>
  <speed>0.02</speed>
  <fix>3d</fix>
</trkpt>
<trkpt lat="40.0713669" lon="-105.2298256">
  <ele>1583.0</ele>
  <time>2026-08-28T17:49:56Z</time>
  <course>206.78</course>
  <speed>0.0</speed>
  <fix>3d</fix>
</trkpt>
<trkpt lat="40.071367" lon="-105.2298254">
  <ele>1583.06</ele>
  <time>2026-08-28T17:49:56Z</time>
  <course>297.77</course>
  <speed>0.02</speed>
  <fix>3d</fix>
</trkpt>
<trkpt lat="40.0713669" lon="-105.2298256">
  <ele>1583.0</ele>
  <time>2026-08-28T17:49:56Z</time>
  <course>206.78</course>
  <speed>0.0</speed>
  <fix>3d</fix>
</trkpt>
<trkpt lat="40.071367" lon="-105.2298254">
  <ele>1583.06</ele>
  <time>2026-08-28T17:49:56Z</time>
  <course>297.77</course>
  <speed>0.02</speed>
  <fix>3d</fix>
</trkpt>
<trkpt lat="40.0713669" lon="-105.2298256">
  <ele>1583.0</ele>
  <time>2026-08-28T17:49:56Z</time>
  <course>206.78</course>
  <speed>0.0</speed>
  <fix>3d</fix>
</trkpt>
<trkpt lat="40.071367" lon="-105.2298254">
  <ele>1583.06</ele>
  <time>2026-08-28T17:49:56Z</time>
  <course>297.77</course>
  <speed>0.02</speed>
  <fix>3d</fix>
</trkpt>
<trkpt lat="40.0713669" lon="-105.2298256">
  <ele>1583.0</ele>
  <time>2026-08-28T17:49:56Z</time>
  <course>206.78</course>
  <speed>0.0</speed>
  <fix>3d</fix>
</trkpt>
<trkpt lat="40.071367" lon="-105.2298254">
  <ele>1583.06</ele>
  <time>2026-08-28T17:49:56Z</time>
  <course>297.77</course>
  <speed>0.02</speed>
  <fix>3d</fix>
</trkpt>
<trkpt lat="40.0713669" lon="-105.2298256">
  <ele>1583.0</ele>
  <time>2026-08-28T17:49:56Z</time>
  <course>206.78</course>
  <speed>0.0</speed>
  <fix>3d</fix>
</trkpt>
<trkpt lat="40.071367" lon="-105.2298254">
  <ele>1583.06</ele>
  <time>2026-08-28T17:49:56Z</time>
  <course>297.77</course>
  <speed>0.02</speed>
  <fix>3d</fix>
</trkpt>
<trkpt lat="40.0713669" lon="-105.2298256">
  <ele>1583.0</ele>
  <time>2026-08-28T17:49:56Z</time>
  <course>206.78</course>
  <speed>0.0</speed>
  <fix>3d</fix>
</trkpt>
<trkpt lat="40.071367" lon="-105.2298254">
  <ele>1583.06</ele>
  <time>2026-08-28T17:49:56Z</time>
  <course>297.77</course>
  <speed>0.02</speed>
  <fix>3d</fix>
</trkpt>
<trkpt lat="40.0713669" lon="-105.2298256">
  <ele>1583.0</ele>
  <time>2026-08-28T17:49:56Z</time>
  <course>206.78</course>
  <speed>0.0</speed>
  <fix>3d</fix>
</trkpt>
<trkpt lat="40.071367" lon="-105.2298254">
  <ele>1583.06</ele>
  <time>2026-08-28T17:49:56Z</time>
  <course>297.77</course>
  <speed>0.02</speed>
  <fix>3d</fix>
</trkpt>
<trkpt lat="40.0713669" lon="-105.2298256">
  <ele>1583.0</ele>
  <time>2026-08-28T17:49:56Z</time>
  <course>206.78</course>
  <speed>0.0</speed>
  <fix>3d</fix>
</trkpt>
<trkpt lat="40.071367" lon="-105.2298254">
  <ele>1583.06</ele>
  <time>2026-08-28T17:49:56Z</time>
  <course>297.77</course>
  <speed>0.02</speed>
  <fix>3d</fix>
</trkpt>
<trkpt lat="40.0713669" lon="-105.2298256">
  <ele>1583.0</ele>
  <time>2026-08-28T17:49:56Z</time>
  <course>206.78</course>
  <speed>0.0</speed>
  <fix>3d</fix>
</trkpt>
<trkpt lat="40.071367" lon="-105.2298254">
  <ele>1583.05</ele>
  <time>2026-08-28T17:49:56Z</time>
  <course>297.77</course>
  <speed>0.02</speed>
  <fix>3d</fix>
</trkpt>
<trkpt lat="40.0713669" lon="-105.2298256">
  <ele>1583.0</ele>
  <time>2026-08-28T17:49:56Z</time>
  <course>206.78</course>
  <speed>0.0</speed>
  <fix>3d</fix>
</trkpt>
<trkpt lat="40.071367" lon="-105.2298254">
  <ele>1583.05</ele>
  <time>2026-08-28T17:49:56Z</time>
  <course>297.77</course>
  <speed>0.02</speed>
  <fix>3d</fix>
</trkpt>
<trkpt lat="40.0713669" lon="-105.2298256">
  <ele>1583.0</ele>
  <time>2026-08-28T17:49:56Z</time>
  <course>206.78</course>
  <speed>0.0</speed>
  <fix>3d</fix>
</trkpt>
<trkpt lat="40.071367" lon="-105.2298254">
  <ele>1583.05</ele>
  <time>2026-08-28T17:49:56Z</time>
  <course>297.77</course>
  <speed>0.02</speed>
  <fix>3d</fix>
</trkpt>
<trkpt lat="40.0713669" lon="-105.2298256">
  <ele>1583.0</ele>
  <time>2026-08-28T17:49:56Z</time>
  <course>206.78</course>
  <speed>0.0</speed>
  <fix>3d</fix>
</trkpt>
<trkpt lat="40.071367" lon="-105.2298254">
  <ele>1583.05</ele>
  <time>2026-08-28T17:49:56Z</time>
  <course>297.77</course>
  <speed>0.02</speed>
  <fix>3d</fix>
</trkpt>
<trkpt lat="40.0713669" lon="-105.2298256">
  <ele>1583.0</ele>
  <time>2026-08-28T17:49:56Z</time>
  <course>206.78</course>
  <speed>0.0</speed>
  <fix>3d</fix>
</trkpt>
<trkpt lat="40.071367" lon="-105.2298254">
  <ele>1583.05</ele>
  <time>2026-08-28T17:49:56Z</time>
  <course>297.77</course>
  <speed>0.02</speed>
  <fix>3d</fix>
</trkpt>
<trkpt lat="40.0713669" lon="-105.2298256">
  <ele>1583.0</ele>
  <time>2026-08-28T17:49:56Z</time>
  <course>206.78</course>
  <speed>0.0</speed>
  <fix>3d</fix>
</trkpt>
<trkpt lat="40.071367" lon="-105.2298254">
  <ele>1583.05</ele>
  <time>2026-08-28T17:49:56Z</time>
  <course>297.77</course>
  <speed>0.02</speed>
  <fix>3d</fix>
</trkpt>
<trkpt lat="40.0713669" lon="-105.2298256">
  <ele>1583.0</ele>
  <time>2026-08-28T17:49:56Z</time>
  <course>206.78</course>
  <speed>0.0</speed>
  <fix>3d</fix>
</trkpt>
<trkpt lat="40.071367" lon="-105.2298254">
  <ele>1583.06</ele>
  <time>2026-08-28T17:49:56Z</time>
  <course>297.77</course>
  <speed>0.02</speed>
  <fix>3d</fix>
</trkpt>
<trkpt lat="40.0713669" lon="-105.2298256">
  <ele>1583.0</ele>
  <time>2026-08-28T17:49:56Z</time>
  <course>206.78</course>
  <speed>0.0</speed>
  <fix>3d</fix>
</trkpt>
<trkpt lat="40.071367" lon="-105.2298254">
  <ele>1583.06</ele>
  <time>2026-08-28T17:49:56Z</time>
  <course>297.77</course>
  <speed>0.02</speed>
  <fix>3d</fix>
</trkpt>
<trkpt lat="40.0713669" lon="-105.2298256">
  <ele>1583.0</ele>
  <time>2026-08-28T17:49:56Z</time>
  <course>206.78</course>
  <speed>0.0</speed>
  <fix>3d</fix>
</trkpt>
<trkpt lat="40.071367" lon="-105.2298254">
  <ele>1583.06</ele>
  <time>2026-08-28T17:49:56Z</time>
  <course>297.77</course>
  <speed>0.02</speed>
  <fix>3d</fix>
</trkpt>
<trkpt lat="40.0713669" lon="-105.2298256">
  <ele>1583.0</ele>
  <time>2026-08-28T17:49:56Z</time>
  <course>206.78</course>
  <speed>0.0</speed>
  <fix>3d</fix>
</trkpt>
<trkpt lat="40.071367" lon="-105.2298254">
  <ele>1583.06</ele>
  <time>2026-08-28T17:49:56Z</time>
  <course>297.77</course>
  <speed>0.02</speed>
  <fix>3d</fix>
</trkpt>
<trkpt lat="40.0713669" lon="-105.2298256">
  <ele>1583.0</ele>
  <time>2026-08-28T17:49:56Z</time>
  <course>206.78</course>
  <speed>0.0</speed>
  <fix>3d</fix>
</trkpt>
<trkpt lat="40.071367" lon="-105.2298254">
  <ele>1583.06</ele>
  <time>2026-08-28T17:49:56Z</time>
  <course>297.77</course>
  <speed>0.02</speed>
  <fix>3d</fix>
</trkpt>
<trkpt lat="40.0713669" lon="-105.2298256">
  <ele>1583.0</ele>
  <time>2026-08-28T17:49:56Z</time>
  <course>206.78</course>
  <speed>0.0</speed>
  <fix>3d</fix>
</trkpt>
<trkpt lat="40.071367" lon="-105.2298254">
  <ele>1583.06</ele>
  <time>2026-08-28T17:49:56Z</time>
  <course>297.77</course>
  <speed>0.02</speed>
  <fix>3d</fix>
</trkpt>
<trkpt lat="40.0713669" lon="-105.2298256">
  <ele>1583.0</ele>
  <time>2026-08-28T17:49:56Z</time>
  <course>206.78</course>
  <speed>0.0</speed>
  <fix>3d</fix>
</trkpt>
<trkpt lat="40.071367" lon="-105.2298254">
  <ele>1583.05</ele>
  <time>2026-08-28T17:49:56Z</time>
  <course>297.77</course>
  <speed>0.02</speed>
  <fix>3d</fix>
</trkpt>
<trkpt lat="40.0713669" lon="-105.2298256">
  <ele>1583.0</ele>
  <time>2026-08-28T17:49:56Z</time>
  <course>206.78</course>
  <speed>0.0</speed>
  <fix>3d</fix>
</trkpt>
<trkpt lat="40.071367" lon="-105.2298254">
  <ele>1583.05</ele>
  <time>2026-08-28T17:49:56Z</time>
  <course>297.77</course>
  <speed>0.02</speed>
  <fix>3d</fix>
</trkpt>
<trkpt lat="40.0713669" lon="-105.2298256">
  <ele>1583.0</ele>
  <time>2026-08-28T17:49:56Z</time>
  <course>206.78</course>
  <speed>0.0</speed>
  <fix>3d</fix>
</trkpt>
<trkpt lat="40.071367" lon="-105.2298254">
  <ele>1583.04</ele>
  <time>2026-08-28T17:49:56Z</time>
  <course>297.77</course>
  <speed>0.02</speed>
  <fix>3d</fix>
</trkpt>
<trkpt lat="40.0713669" lon="-105.2298256">
  <ele>1583.0</ele>
  <time>2026-08-28T17:49:56Z</time>
  <course>206.78</course>
  <speed>0.0</speed>
  <fix>3d</fix>
</trkpt>
<trkpt lat="40.071367" lon="-105.2298254">
  <ele>1583.04</ele>
  <time>2026-08-28T17:49:56Z</time>
  <course>297.77</course>
  <speed>0.02</speed>
  <fix>3d</fix>
</trkpt>
<trkpt lat="40.0713669" lon="-105.2298256">
  <ele>1583.0</ele>
  <time>2026-08-28T17:49:56Z</time>
  <course>206.78</course>
  <speed>0.0</speed>
  <fix>3d</fix>
</trkpt>
<trkpt lat="40.071367" lon="-105.2298254">
  <ele>1583.04</ele>
  <time>2026-08-28T17:49:56Z</time>
  <course>297.77</course>
  <speed>0.02</speed>
  <fix>3d</fix>
</trkpt>
<trkpt lat="40.0713669" lon="-105.2298256">
  <ele>1583.0</ele>
  <time>2026-08-28T17:49:56Z</time>
  <course>206.78</course>
  <speed>0.0</speed>
  <fix>3d</fix>
</trkpt>
<trkpt lat="40.071367" lon="-105.2298254">
  <ele>1583.03</ele>
  <time>2026-08-28T17:49:56Z</time>
  <course>297.77</course>
  <speed>0.02</speed>
  <fix>3d</fix>
</trkpt>
<trkpt lat="40.0713669" lon="-105.2298256">
  <ele>1583.0</ele>
  <time>2026-08-28T17:49:56Z</time>
  <course>206.78</course>
  <speed>0.0</speed>
  <fix>3d</fix>
</trkpt>
<trkpt lat="40.071367" lon="-105.2298254">
  <ele>1583.03</ele>
  <time>2026-08-28T17:49:56Z</time>
  <course>297.77</course>
  <speed>0.02</speed>
  <fix>3d</fix>
</trkpt>
<trkpt lat="40.0713669" lon="-105.2298256">
  <ele>1583.0</ele>
  <time>2026-08-28T17:49:56Z</time>
  <course>206.78</course>
  <speed>0.0</speed>
  <fix>3d</fix>
</trkpt>
<trkpt lat="40.071367" lon="-105.2298254">
  <ele>1583.02</ele>
  <time>2026-08-28T17:49:56Z</time>
  <course>297.77</course>
  <speed>0.02</speed>
  <fix>3d</fix>
</trkpt>
<trkpt lat="40.0713669" lon="-105.2298256">
  <ele>1583.0</ele>
  <time>2026-08-28T17:49:56Z</time>
  <course>206.78</course>
  <speed>0.0</speed>
  <fix>3d</fix>
</trkpt>
<trkpt lat="40.071367" lon="-105.2298254">
  <ele>1583.01</ele>
  <time>2026-08-28T17:49:56Z</time>
  <course>297.77</course>
  <speed>0.02</speed>
  <fix>3d</fix>
</trkpt>
<trkpt lat="40.0713669" lon="-105.2298256">
  <ele>1583.0</ele>
  <time>2026-08-28T17:49:56Z</time>
  <course>206.78</course>
  <speed>0.0</speed>
  <fix>3d</fix>
</trkpt>
<trkpt lat="40.071367" lon="-105.2298254">
  <ele>1583.0</ele>
  <time>2026-08-28T17:49:56Z</time>
  <course>297.77</course>
  <speed>0.02</speed>
  <fix>3d</fix>
</trkpt>
<trkpt lat="40.0713669" lon="-105.2298256">
  <ele>1583.0</ele>
  <time>2026-08-28T17:49:56Z</time>
  <course>206.78</course>
  <speed>0.0</speed>
  <fix>3d</fix>
</trkpt>
<trkpt lat="40.071367" lon="-105.2298254">
  <ele>1582.99</ele>
  <time>2026-08-28T17:49:56Z</time>
  <course>297.77</course>
  <speed>0.02</speed>
  <fix>3d</fix>
</trkpt>
<trkpt lat="40.0713669" lon="-105.2298256">
  <ele>1583.0</ele>
  <time>2026-08-28T17:49:56Z</time>
  <course>206.78</course>
  <speed>0.0</speed>
  <fix>3d</fix>
</trkpt>
<trkpt lat="40.071367" lon="-105.2298254">
  <ele>1582.98</ele>
  <time>2026-08-28T17:49:56Z</time>
  <course>297.77</course>
  <speed>0.02</speed>
  <fix>3d</fix>
</trkpt>
<trkpt lat="40.0713669" lon="-105.2298256">
  <ele>1583.0</ele>
  <time>2026-08-28T17:49:56Z</time>
  <course>206.78</course>
  <speed>0.0</speed>
  <fix>3d</fix>
</trkpt>
<trkpt lat="40.071367" lon="-105.2298254">
  <ele>1582.97</ele>
  <time>2026-08-28T17:49:56Z</time>
  <course>297.77</course>
  <speed>0.02</speed>
  <fix>3d</fix>
</trkpt>
<trkpt lat="40.0713669" lon="-105.2298256">
  <ele>1583.0</ele>
  <time>2026-08-28T17:49:56Z</time>
  <course>206.78</course>
  <speed>0.0</speed>
  <fix>3d</fix>
</trkpt>
<trkpt lat="40.071367" lon="-105.2298254">
  <ele>1582.96</ele>
  <time>2026-08-28T17:49:56Z</time>
  <course>297.77</course>
  <speed>0.02</speed>
  <fix>3d</fix>
</trkpt>
<trkpt lat="40.0713669" lon="-105.2298256">
  <ele>1583.0</ele>
  <time>2026-08-28T17:49:56Z</time>
  <course>206.78</course>
  <speed>0.0</speed>
  <fix>3d</fix>
</trkpt>
<trkpt lat="40.071367" lon="-105.2298254">
  <ele>1582.96</ele>
  <time>2026-08-28T17:49:56Z</time>
  <course>297.77</course>
  <speed>0.02</speed>
  <fix>3d</fix>
</trkpt>
<trkpt lat="40.0713669" lon="-105.2298256">
  <ele>1583.0</ele>
  <time>2026-08-28T17:49:56Z</time>
  <course>206.78</course>
  <speed>0.0</speed>
  <fix>3d</fix>
</trkpt>
<trkpt lat="40.071367" lon="-105.2298254">
  <ele>1582.95</ele>
  <time>2026-08-28T17:49:56Z</time>
  <course>297.77</course>
  <speed>0.02</speed>
  <fix>3d</fix>
</trkpt>
<trkpt lat="40.0713669" lon="-105.2298256">
  <ele>1583.0</ele>
  <time>2026-08-28T17:49:56Z</time>
  <course>206.78</course>
  <speed>0.0</speed>
  <fix>3d</fix>
</trkpt>
<trkpt lat="40.071367" lon="-105.2298254">
  <ele>1582.94</ele>
  <time>2026-08-28T17:49:56Z</time>
  <course>297.77</course>
  <speed>0.02</speed>
  <fix>3d</fix>
</trkpt>
<trkpt lat="40.0713669" lon="-105.2298256">
  <ele>1583.0</ele>
  <time>2026-08-28T17:49:56Z</time>
  <course>206.78</course>
  <speed>0.0</speed>
  <fix>3d</fix>
</trkpt>
<trkpt lat="40.071367" lon="-105.2298254">
  <ele>1582.94</ele>
  <time>2026-08-28T17:49:56Z</time>
  <course>297.77</course>
  <speed>0.02</speed>
  <fix>3d</fix>
</trkpt>
<trkpt lat="40.0713669" lon="-105.2298256">
  <ele>1583.0</ele>
  <time>2026-08-28T17:49:56Z</time>
  <course>206.78</course>
  <speed>0.0</speed>
  <fix>3d</fix>
</trkpt>
<trkpt lat="40.071367" lon="-105.2298254">
  <ele>1582.94</ele>
  <time>2026-08-28T17:49:56Z</time>
  <course>297.77</course>
  <speed>0.02</speed>
  <fix>3d</fix>
</trkpt>
<trkpt lat="40.0713669" lon="-105.2298256">
  <ele>1583.0</ele>
  <time>2026-08-28T17:49:56Z</time>
  <course>206.78</course>
  <speed>0.0</speed>
  <fix>3d</fix>
</trkpt>
<trkpt lat="40.071367" lon="-105.2298254">
  <ele>1582.94</ele>
  <time>2026-08-28T17:49:56Z</time>
  <course>297.77</course>
  <speed>0.02</speed>
  <fix>3d</fix>
</trkpt>
<trkpt lat="40.0713669" lon="-105.2298256">
  <ele>1583.0</ele>
  <time>2026-08-28T17:49:56Z</time>
  <course>206.78</course>
  <speed>0.0</speed>
  <fix>3d</fix>
</trkpt>
<trkpt lat="40.071367" lon="-105.2298254">
  <ele>1582.93</ele>
  <time>2026-08-28T17:49:56Z</time>
  <course>297.77</course>
  <speed>0.02</speed>
  <fix>3d</fix>
</trkpt>
<trkpt lat="40.0713669" lon="-105.2298256">
  <ele>1583.0</ele>
  <time>2026-08-28T17:49:56Z</time>
  <course>206.78</course>
  <speed>0.0</speed>
  <fix>3d</fix>
</trkpt>
<trkpt lat="40.071367" lon="-105.2298254">
  <ele>1582.93</ele>
  <time>2026-08-28T17:49:56Z</time>
  <course>297.77</course>
  <speed>0.02</speed>
  <fix>3d</fix>
</trkpt>
<trkpt lat="40.0713669" lon="-105.2298256">
  <ele>1583.0</ele>
  <time>2026-08-28T17:49:56Z</time>
  <course>206.78</course>
  <speed>0.0</speed>
  <fix>3d</fix>
</trkpt>
<trkpt lat="40.071367" lon="-105.2298254">
  <ele>1582.93</ele>
  <time>2026-08-28T17:49:56Z</time>
  <course>297.77</course>
  <speed>0.02</speed>
  <fix>3d</fix>
</trkpt>
<trkpt lat="40.0713669" lon="-105.2298256">
  <ele>1583.0</ele>
  <time>2026-08-28T17:49:56Z</time>
  <course>206.78</course>
  <speed>0.0</speed>
  <fix>3d</fix>
</trkpt>
<trkpt lat="40.071367" lon="-105.2298254">
  <ele>1582.92</ele>
  <time>2026-08-28T17:49:56Z</time>
  <course>297.77</course>
  <speed>0.02</speed>
  <fix>3d</fix>
</trkpt>
<trkpt lat="40.0713669" lon="-105.2298256">
  <ele>1583.0</ele>
  <time>2026-08-28T17:49:56Z</time>
  <course>206.78</course>
  <speed>0.0</speed>
  <fix>3d</fix>
</trkpt>
<trkpt lat="40.071367" lon="-105.2298254">
  <ele>1582.92</ele>
  <time>2026-08-28T17:49:56Z</time>
  <course>297.77</course>
  <speed>0.02</speed>
  <fix>3d</fix>
</trkpt>
<trkpt lat="40.0713669" lon="-105.2298256">
  <ele>1583.0</ele>
  <time>2026-08-28T17:49:56Z</time>
  <course>206.78</course>
  <speed>0.0</speed>
  <fix>3d</fix>
</trkpt>
<trkpt lat="40.071367" lon="-105.2298254">
  <ele>1582.92</ele>
  <time>2026-08-28T17:49:56Z</time>
  <course>297.77</course>
  <speed>0.02</speed>
  <fix>3d</fix>
</trkpt>
<trkpt lat="40.0713669" lon="-105.2298256">
  <ele>1583.0</ele>
  <time>2026-08-28T17:49:56Z</time>
  <course>206.78</course>
  <speed>0.0</speed>
  <fix>3d</fix>
</trkpt>
<trkpt lat="40.071367" lon="-105.2298254">
  <ele>1582.92</ele>
  <time>2026-08-28T17:49:56Z</time>
  <course>297.77</course>
  <speed>0.02</speed>
  <fix>3d</fix>
</trkpt>
<trkpt lat="40.0713669" lon="-105.2298256">
  <ele>1583.0</ele>
  <time>2026-08-28T17:49:56Z</time>
  <course>206.78</course>
  <speed>0.0</speed>
  <fix>3d</fix>
</trkpt>
<trkpt lat="40.071367" lon="-105.2298254">
  <ele>1582.93</ele>
  <time>2026-08-28T17:49:56Z</time>
  <course>297.77</course>
  <speed>0.02</speed>
  <fix>3d</fix>
</trkpt>
<trkpt lat="40.0713669" lon="-105.2298256">
  <ele>1583.0</ele>
  <time>2026-08-28T17:49:56Z</time>
  <course>206.78</course>
  <speed>0.0</speed>
  <fix>3d</fix>
</trkpt>
<trkpt lat="40.071367" lon="-105.2298254">
  <ele>1582.94</ele>
  <time>2026-08-28T17:49:56Z</time>
  <course>297.77</course>
  <speed>0.02</speed>
  <fix>3d</fix>
</trkpt>
<trkpt lat="40.0713669" lon="-105.2298256">
  <ele>1583.0</ele>
  <time>2026-08-28T17:49:56Z</time>
  <course>206.78</course>
  <speed>0.0</speed>
  <fix>3d</fix>
</trkpt>
<trkpt lat="40.071367" lon="-105.2298254">
  <ele>1582.94</ele>
  <time>2026-08-28T17:49:56Z</time>
  <course>297.78</course>
  <speed>0.02</speed>
  <fix>3d</fix>
</trkpt>
<trkpt lat="40.0713669" lon="-105.2298256">
  <ele>1583.0</ele>
  <time>2026-08-28T17:49:56Z</time>
  <course>206.78</course>
  <speed>0.0</speed>
  <fix>3d</fix>
</trkpt>
<trkpt lat="40.071367" lon="-105.2298254">
  <ele>1582.95</ele>
  <time>2026-08-28T17:49:56Z</time>
  <course>297.78</course>
  <speed>0.02</speed>
  <fix>3d</fix>
</trkpt>
<trkpt lat="40.0713669" lon="-105.2298256">
  <ele>1583.0</ele>
  <time>2026-08-28T17:49:56Z</time>
  <course>206.78</course>
  <speed>0.0</speed>
  <fix>3d</fix>
</trkpt>
<trkpt lat="40.071367" lon="-105.2298254">
  <ele>1582.96</ele>
  <time>2026-08-28T17:49:56Z</time>
  <course>297.78</course>
  <speed>0.02</speed>
  <fix>3d</fix>
</trkpt>
<trkpt lat="40.0713669" lon="-105.2298256">
  <ele>1583.0</ele>
  <time>2026-08-28T17:49:56Z</time>
  <course>206.78</course>
  <speed>0.0</speed>
  <fix>3d</fix>
</trkpt>
<trkpt lat="40.071367" lon="-105.2298254">
  <ele>1582.96</ele>
  <time>2026-08-28T17:49:56Z</time>
  <course>297.78</course>
  <speed>0.02</speed>
  <fix>3d</fix>
</trkpt>
<trkpt lat="40.0713669" lon="-105.2298256">
  <ele>1583.0</ele>
  <time>2026-08-28T17:49:56Z</time>
  <course>206.78</course>
  <speed>0.0</speed>
  <fix>3d</fix>
</trkpt>
<trkpt lat="40.071367" lon="-105.2298254">
  <ele>1582.97</ele>
  <time>2026-08-28T17:49:56Z</time>
  <course>297.78</course>
  <speed>0.02</speed>
  <fix>3d</fix>
</trkpt>
<trkpt lat="40.0713669" lon="-105.2298256">
  <ele>1583.0</ele>
  <time>2026-08-28T17:49:56Z</time>
  <course>206.78</course>
  <speed>0.0</speed>
  <fix>3d</fix>
</trkpt>
<trkpt lat="40.071367" lon="-105.2298254">
  <ele>1582.97</ele>
  <time>2026-08-28T17:49:56Z</time>
  <course>297.78</course>
  <speed>0.02</speed>
  <fix>3d</fix>
</trkpt>
<trkpt lat="40.0713669" lon="-105.2298256">
  <ele>1583.0</ele>
  <time>2026-08-28T17:49:56Z</time>
  <course>206.78</course>
  <speed>0.0</speed>
  <fix>3d</fix>
</trkpt>
<trkpt lat="40.071367" lon="-105.2298254">
  <ele>1582.98</ele>
  <time>2026-08-28T17:49:56Z</time>
  <course>297.78</course>
  <speed>0.02</speed>
  <fix>3d</fix>
</trkpt>
<trkpt lat="40.0713669" lon="-105.2298256">
  <ele>1583.0</ele>
  <time>2026-08-28T17:49:56Z</time>
  <course>206.78</course>
  <speed>0.0</speed>
  <fix>3d</fix>
</trkpt>
<trkpt lat="40.071367" lon="-105.2298254">
  <ele>1582.99</ele>
  <time>2026-08-28T17:49:56Z</time>
  <course>297.78</course>
  <speed>0.02</speed>
  <fix>3d</fix>
</trkpt>
<trkpt lat="40.0713669" lon="-105.2298256">
  <ele>1583.0</ele>
  <time>2026-08-28T17:49:56Z</time>
  <course>206.78</course>
  <speed>0.0</speed>
  <fix>3d</fix>
</trkpt>
<trkpt lat="40.071367" lon="-105.2298254">
  <ele>1582.99</ele>
  <time>2026-08-28T17:49:56Z</time>
  <course>297.78</course>
  <speed>0.02</speed>
  <fix>3d</fix>
</trkpt>
<trkpt lat="40.0713669" lon="-105.2298256">
  <ele>1583.0</ele>
  <time>2026-08-28T17:49:56Z</time>
  <course>206.78</course>
  <speed>0.0</speed>
  <fix>3d</fix>
</trkpt>
<trkpt lat="40.071367" lon="-105.2298254">
  <ele>1582.99</ele>
  <time>2026-08-28T17:49:56Z</time>
  <course>297.78</course>
  <speed>0.02</speed>
  <fix>3d</fix>
</trkpt>
<trkpt lat="40.0713669" lon="-105.2298256">
  <ele>1583.0</ele>
  <time>2026-08-28T17:49:56Z</time>
  <course>206.78</course>
  <speed>0.0</speed>
  <fix>3d</fix>
</trkpt>
<trkpt lat="40.071367" lon="-105.2298254">
  <ele>1582.99</ele>
  <time>2026-08-28T17:49:56Z</time>
  <course>297.78</course>
  <speed>0.02</speed>
  <fix>3d</fix>
</trkpt>
<trkpt lat="40.0713669" lon="-105.2298256">
  <ele>1583.0</ele>
  <time>2026-08-28T17:49:56Z</time>
  <course>206.78</course>
  <speed>0.0</speed>
  <fix>3d</fix>
</trkpt>
<trkpt lat="40.071367" lon="-105.2298254">
  <ele>1582.99</ele>
  <time>2026-08-28T17:49:56Z</time>
  <course>297.78</course>
  <speed>0.02</speed>
  <fix>3d</fix>
</trkpt>
<trkpt lat="40.0713669" lon="-105.2298256">
  <ele>1583.0</ele>
  <time>2026-08-28T17:49:56Z</time>
  <course>206.78</course>
  <speed>0.0</speed>
  <fix>3d</fix>
</trkpt>
<trkpt lat="40.071367" lon="-105.2298254">
  <ele>1582.99</ele>
  <time>2026-08-28T17:49:56Z</time>
  <course>297.78</course>
  <speed>0.02</speed>
  <fix>3d</fix>
</trkpt>
<trkpt lat="40.0713669" lon="-105.2298256">
  <ele>1583.0</ele>
  <time>2026-08-28T17:49:56Z</time>
  <course>206.78</course>
  <speed>0.0</speed>
  <fix>3d</fix>
</trkpt>
<trkpt lat="40.071367" lon="-105.2298254">
  <ele>1582.99</ele>
  <time>2026-08-28T17:49:56Z</time>
  <course>297.78</course>
  <speed>0.02</speed>
  <fix>3d</fix>
</trkpt>
<trkpt lat="40.0713669" lon="-105.2298256">
  <ele>1583.0</ele>
  <time>2026-08-28T17:49:56Z</time>
  <course>206.78</course>
  <speed>0.0</speed>
  <fix>3d</fix>
</trkpt>
<trkpt lat="40.071367" lon="-105.2298254">
  <ele>1582.99</ele>
  <time>2026-08-28T17:49:56Z</time>
  <course>297.78</course>
  <speed>0.02</speed>
  <fix>3d</fix>
</trkpt>
<trkpt lat="40.0713669" lon="-105.2298256">
  <ele>1583.0</ele>
  <time>2026-08-28T17:49:56Z</time>
  <course>206.78</course>
  <speed>0.0</speed>
  <fix>3d</fix>
</trkpt>
<trkpt lat="40.071367" lon="-105.2298254">
  <ele>1582.99</ele>
  <time>2026-08-28T17:49:56Z</time>
  <course>297.78</course>
  <speed>0.02</speed>
  <fix>3d</fix>
</trkpt>
<trkpt lat="40.0713669" lon="-105.2298256">
  <ele>1583.0</ele>
  <time>2026-08-28T17:49:56Z</time>
  <course>206.78</course>
  <speed>0.0</speed>
  <fix>3d</fix>
</trkpt>
<trkpt lat="40.071367" lon="-105.2298254">
  <ele>1583.0</ele>
  <time>2026-08-28T17:49:56Z</time>
  <course>297.78</course>
  <speed>0.02</speed>
  <fix>3d</fix>
</trkpt>
<trkpt lat="40.0713669" lon="-105.2298256">
  <ele>1583.0</ele>
  <time>2026-08-28T17:49:56Z</time>
  <course>206.78</course>
  <speed>0.0</speed>
  <fix>3d</fix>
</trkpt>
<trkpt lat="40.071367" lon="-105.2298254">
  <ele>1583.0</ele>
  <time>2026-08-28T17:49:56Z</time>
  <course>297.78</course>
  <speed>0.02</speed>
  <fix>3d</fix>
</trkpt>
<trkpt lat="40.0713669" lon="-105.2298256">
  <ele>1583.0</ele>
  <time>2026-08-28T17:49:56Z</time>
  <course>206.78</course>
  <speed>0.0</speed>
  <fix>3d</fix>
</trkpt>
<trkpt lat="40.071367" lon="-105.2298254">
  <ele>1583.0</ele>
  <time>2026-08-28T17:49:56Z</time>
  <course>297.78</course>
  <speed>0.02</speed>
  <fix>3d</fix>
</trkpt>
<trkpt lat="40.0713669" lon="-105.2298256">
  <ele>1583.0</ele>
  <time>2026-08-28T17:49:56Z</time>
  <course>206.78</course>
  <speed>0.0</speed>
  <fix>3d</fix>
</trkpt>
<trkpt lat="40.071367" lon="-105.2298254">
  <ele>1583.0</ele>
  <time>2026-08-28T17:49:56Z</time>
  <course>297.78</course>
  <speed>0.02</speed>
  <fix>3d</fix>
</trkpt>
<trkpt lat="40.0713669" lon="-105.2298256">
  <ele>1583.0</ele>
  <time>2026-08-28T17:49:56Z</time>
  <course>206.78</course>
  <speed>0.0</speed>
  <fix>3d</fix>
</trkpt>
<trkpt lat="40.071367" lon="-105.2298254">
  <ele>1583.0</ele>
  <time>2026-08-28T17:49:56Z</time>
  <course>297.78</course>
  <speed>0.02</speed>
  <fix>3d</fix>
</trkpt>
<trkpt lat="40.0713669" lon="-105.2298256">
  <ele>1583.0</ele>
  <time>2026-08-28T17:49:56Z</time>
  <course>206.78</course>
  <speed>0.0</speed>
  <fix>3d</fix>
</trkpt>
<trkpt lat="40.071367" lon="-105.2298254">
  <ele>1583.0</ele>
  <time>2026-08-28T17:49:56Z</time>
  <course>297.78</course>
  <speed>0.02</speed>
  <fix>3d</fix>
</trkpt>
<trkpt lat="40.0713669" lon="-105.2298256">
  <ele>1583.0</ele>
  <time>2026-08-28T17:49:56Z</time>
  <course>206.78</course>
  <speed>0.0</speed>
  <fix>3d</fix>
</trkpt>
<trkpt lat="40.071367" lon="-105.2298254">
  <ele>1583.0</ele>
  <time>2026-08-28T17:49:56Z</time>
  <course>297.78</course>
  <speed>0.02</speed>
  <fix>3d</fix>
</trkpt>
<trkpt lat="40.0713669" lon="-105.2298256">
  <ele>1583.0</ele>
  <time>2026-08-28T17:49:56Z</time>
  <course>206.78</course>
  <speed>0.0</speed>
  <fix>3d</fix>
</trkpt>
<trkpt lat="40.071367" lon="-105.2298254">
  <ele>1583.0</ele>
  <time>2026-08-28T17:49:56Z</time>
  <course>297.78</course>
  <speed>0.02</speed>
  <fix>3d</fix>
</trkpt>
<trkpt lat="40.0713669" lon="-105.2298256">
  <ele>1583.0</ele>
  <time>2026-08-28T17:49:56Z</time>
  <course>206.78</course>
  <speed>0.0</speed>
  <fix>3d</fix>
</trkpt>
<trkpt lat="40.071367" lon="-105.2298254">
  <ele>1582.99</ele>
  <time>2026-08-28T17:49:56Z</time>
  <course>297.78</course>
  <speed>0.02</speed>
  <fix>3d</fix>
</trkpt>
<trkpt lat="40.0713669" lon="-105.2298256">
  <ele>1583.0</ele>
  <time>2026-08-28T17:49:56Z</time>
  <course>206.78</course>
  <speed>0.0</speed>
  <fix>3d</fix>
</trkpt>
<trkpt lat="40.071367" lon="-105.2298254">
  <ele>1582.99</ele>
  <time>2026-08-28T17:49:56Z</time>
  <course>297.78</course>
  <speed>0.02</speed>
  <fix>3d</fix>
</trkpt>
<trkpt lat="40.0713669" lon="-105.2298256">
  <ele>1583.0</ele>
  <time>2026-08-28T17:49:56Z</time>
  <course>206.78</course>
  <speed>0.0</speed>
  <fix>3d</fix>
</trkpt>
<trkpt lat="40.071367" lon="-105.2298254">
  <ele>1582.99</ele>
  <time>2026-08-28T17:49:56Z</time>
  <course>297.78</course>
  <speed>0.02</speed>
  <fix>3d</fix>
</trkpt>
<trkpt lat="40.0713669" lon="-105.2298256">
  <ele>1583.0</ele>
  <time>2026-08-28T17:49:56Z</time>
  <course>206.78</course>
  <speed>0.0</speed>
  <fix>3d</fix>
</trkpt>
<trkpt lat="40.071367" lon="-105.2298254">
  <ele>1582.98</ele>
  <time>2026-08-28T17:49:56Z</time>
  <course>297.78</course>
  <speed>0.02</speed>
  <fix>3d</fix>
</trkpt>
<trkpt lat="40.0713669" lon="-105.2298256">
  <ele>1583.0</ele>
  <time>2026-08-28T17:49:56Z</time>
  <course>206.78</course>
  <speed>0.0</speed>
  <fix>3d</fix>
</trkpt>
<trkpt lat="40.071367" lon="-105.2298254">
  <ele>1582.98</ele>
  <time>2026-08-28T17:49:56Z</time>
  <course>297.78</course>
  <speed>0.02</speed>
  <fix>3d</fix>
</trkpt>
<trkpt lat="40.0713669" lon="-105.2298256">
  <ele>1583.0</ele>
  <time>2026-08-28T17:49:56Z</time>
  <course>206.78</course>
  <speed>0.0</speed>
  <fix>3d</fix>
</trkpt>
<trkpt lat="40.071367" lon="-105.2298254">
  <ele>1582.98</ele>
  <time>2026-08-28T17:49:56Z</time>
  <course>297.78</course>
  <speed>0.02</speed>
  <fix>3d</fix>
</trkpt>
<trkpt lat="40.0713669" lon="-105.2298256">
  <ele>1583.0</ele>
  <time>2026-08-28T17:49:56Z</time>
  <course>206.78</course>
  <speed>0.0</speed>
  <fix>3d</fix>
</trkpt>
<trkpt lat="40.071367" lon="-105.2298254">
  <ele>1582.98</ele>
  <time>2026-08-28T17:49:56Z</time>
  <course>297.78</course>
  <speed>0.02</speed>
  <fix>3d</fix>
</trkpt>
<trkpt lat="40.0713669" lon="-105.2298256">
  <ele>1583.0</ele>
  <time>2026-08-28T17:49:56Z</time>
  <course>206.78</course>
  <speed>0.0</speed>
  <fix>3d</fix>
</trkpt>
<trkpt lat="40.071367" lon="-105.2298254">
  <ele>1582.99</ele>
  <time>2026-08-28T17:49:56Z</time>
  <course>297.78</course>
  <speed>0.02</speed>
  <fix>3d</fix>
</trkpt>
<trkpt lat="40.0713669" lon="-105.2298256">
  <ele>1583.0</ele>
  <time>2026-08-28T17:49:56Z</time>
  <course>206.78</course>
  <speed>0.0</speed>
  <fix>3d</fix>
</trkpt>
<trkpt lat="40.071367" lon="-105.2298254">
  <ele>1582.99</ele>
  <time>2026-08-28T17:49:56Z</time>
  <course>297.78</course>
  <speed>0.02</speed>
  <fix>3d</fix>
</trkpt>
<trkpt lat="40.0713669" lon="-105.2298256">
  <ele>1583.0</ele>
  <time>2026-08-28T17:49:56Z</time>
  <course>206.78</course>
  <speed>0.0</speed>
  <fix>3d</fix>
</trkpt>
<trkpt lat="40.071367" lon="-105.2298254">
  <ele>1583.0</ele>
  <time>2026-08-28T17:49:56Z</time>
  <course>297.78</course>
  <speed>0.02</speed>
  <fix>3d</fix>
</trkpt>
<trkpt lat="40.0713669" lon="-105.2298256">
  <ele>1583.0</ele>
  <time>2026-08-28T17:49:56Z</time>
  <course>206.78</course>
  <speed>0.0</speed>
  <fix>3d</fix>
</trkpt>
<trkpt lat="40.071367" lon="-105.2298254">
  <ele>1583.0</ele>
  <time>2026-08-28T17:49:56Z</time>
  <course>297.78</course>
  <speed>0.02</speed>
  <fix>3d</fix>
</trkpt>
<trkpt lat="40.0713669" lon="-105.2298256">
  <ele>1583.0</ele>
  <time>2026-08-28T17:49:56Z</time>
  <course>206.78</course>
  <speed>0.0</speed>
  <fix>3d</fix>
</trkpt>
<trkpt lat="40.071367" lon="-105.2298254">
  <ele>1583.01</ele>
  <time>2026-08-28T17:49:56Z</time>
  <course>297.78</course>
  <speed>0.02</speed>
  <fix>3d</fix>
</trkpt>
<trkpt lat="40.0713669" lon="-105.2298256">
  <ele>1583.0</ele>
  <time>2026-08-28T17:49:56Z</time>
  <course>206.78</course>
  <speed>0.0</speed>
  <fix>3d</fix>
</trkpt>
<trkpt lat="40.071367" lon="-105.2298254">
  <ele>1583.02</ele>
  <time>2026-08-28T17:49:56Z</time>
  <course>297.78</course>
  <speed>0.02</speed>
  <fix>3d</fix>
</trkpt>
<trkpt lat="40.0713669" lon="-105.2298256">
  <ele>1583.0</ele>
  <time>2026-08-28T17:49:56Z</time>
  <course>206.78</course>
  <speed>0.0</speed>
  <fix>3d</fix>
</trkpt>
<trkpt lat="40.071367" lon="-105.2298254">
  <ele>1583.02</ele>
  <time>2026-08-28T17:49:56Z</time>
  <course>297.78</course>
  <speed>0.02</speed>
  <fix>3d</fix>
</trkpt>
<trkpt lat="40.0713669" lon="-105.2298256">
  <ele>1583.0</ele>
  <time>2026-08-28T17:49:56Z</time>
  <course>206.78</course>
  <speed>0.0</speed>
  <fix>3d</fix>
</trkpt>
<trkpt lat="40.071367" lon="-105.2298254">
  <ele>1583.03</ele>
  <time>2026-08-28T17:49:56Z</time>
  <course>297.78</course>
  <speed>0.02</speed>
  <fix>3d</fix>
</trkpt>
<trkpt lat="40.0713669" lon="-105.2298256">
  <ele>1583.0</ele>
  <time>2026-08-28T17:49:56Z</time>
  <course>206.78</course>
  <speed>0.0</speed>
  <fix>3d</fix>
</trkpt>
<trkpt lat="40.071367" lon="-105.2298254">
  <ele>1583.03</ele>
  <time>2026-08-28T17:49:56Z</time>
  <course>297.78</course>
  <speed>0.02</speed>
  <fix>3d</fix>
</trkpt>
<trkpt lat="40.0713669" lon="-105.2298256">
  <ele>1583.0</ele>
  <time>2026-08-28T17:49:56Z</time>
  <course>206.78</course>
  <speed>0.0</speed>
  <fix>3d</fix>
</trkpt>
<trkpt lat="40.071367" lon="-105.2298254">
  <ele>1583.03</ele>
  <time>2026-08-28T17:49:56Z</time>
  <course>297.78</course>
  <speed>0.02</speed>
  <fix>3d</fix>
</trkpt>
<trkpt lat="40.0713669" lon="-105.2298256">
  <ele>1583.0</ele>
  <time>2026-08-28T17:49:56Z</time>
  <course>206.78</course>
  <speed>0.0</speed>
  <fix>3d</fix>
</trkpt>
<trkpt lat="40.071367" lon="-105.2298254">
  <ele>1583.03</ele>
  <time>2026-08-28T17:49:56Z</time>
  <course>297.78</course>
  <speed>0.02</speed>
  <fix>3d</fix>
</trkpt>
<trkpt lat="40.0713669" lon="-105.2298256">
  <ele>1583.0</ele>
  <time>2026-08-28T17:49:56Z</time>
  <course>206.78</course>
  <speed>0.0</speed>
  <fix>3d</fix>
</trkpt>
<trkpt lat="40.071367" lon="-105.2298254">
  <ele>1583.03</ele>
  <time>2026-08-28T17:49:56Z</time>
  <course>297.78</course>
  <speed>0.02</speed>
  <fix>3d</fix>
</trkpt>
<trkpt lat="40.0713669" lon="-105.2298256">
  <ele>1583.0</ele>
  <time>2026-08-28T17:49:56Z</time>
  <course>206.78</course>
  <speed>0.0</speed>
  <fix>3d</fix>
</trkpt>
<trkpt lat="40.071367" lon="-105.2298254">
  <ele>1583.02</ele>
  <time>2026-08-28T17:49:56Z</time>
  <course>297.78</course>
  <speed>0.02</speed>
  <fix>3d</fix>
</trkpt>
<trkpt lat="40.0713669" lon="-105.2298256">
  <ele>1583.0</ele>
  <time>2026-08-28T17:49:56Z</time>
  <course>206.78</course>
  <speed>0.0</speed>
  <fix>3d</fix>
</trkpt>
<trkpt lat="40.071367" lon="-105.2298254">
  <ele>1583.02</ele>
  <time>2026-08-28T17:49:56Z</time>
  <course>297.78</course>
  <speed>0.02</speed>
  <fix>3d</fix>
</trkpt>
<trkpt lat="40.0713669" lon="-105.2298256">
  <ele>1583.0</ele>
  <time>2026-08-28T17:49:56Z</time>
  <course>206.78</course>
  <speed>0.0</speed>
  <fix>3d</fix>
</trkpt>
<trkpt lat="40.071367" lon="-105.2298254">
  <ele>1583.02</ele>
  <time>2026-08-28T17:49:56Z</time>
  <course>297.78</course>
  <speed>0.02</speed>
  <fix>3d</fix>
</trkpt>
<trkpt lat="40.0713669" lon="-105.2298256">
  <ele>1583.0</ele>
  <time>2026-08-28T17:49:56Z</time>
  <course>206.78</course>
  <speed>0.0</speed>
  <fix>3d</fix>
</trkpt>
<trkpt lat="40.071367" lon="-105.2298254">
  <ele>1583.02</ele>
  <time>2026-08-28T17:49:56Z</time>
  <course>297.78</course>
  <speed>0.02</speed>
  <fix>3d</fix>
</trkpt>
<trkpt lat="40.0713669" lon="-105.2298256">
  <ele>1583.0</ele>
  <time>2026-08-28T17:49:56Z</time>
  <course>206.78</course>
  <speed>0.0</speed>
  <fix>3d</fix>
</trkpt>
<trkpt lat="40.071367" lon="-105.2298254">
  <ele>1583.01</ele>
  <time>2026-08-28T17:49:56Z</time>
  <course>297.78</course>
  <speed>0.02</speed>
  <fix>3d</fix>
</trkpt>
<trkpt lat="40.0713669" lon="-105.2298256">
  <ele>1583.0</ele>
  <time>2026-08-28T17:49:56Z</time>
  <course>206.78</course>
  <speed>0.0</speed>
  <fix>3d</fix>
</trkpt>
<trkpt lat="40.071367" lon="-105.2298254">
  <ele>1583.01</ele>
  <time>2026-08-28T17:49:56Z</time>
  <course>297.78</course>
  <speed>0.02</speed>
  <fix>3d</fix>
</trkpt>
<trkpt lat="40.0713669" lon="-105.2298256">
  <ele>1583.0</ele>
  <time>2026-08-28T17:49:56Z</time>
  <course>206.78</course>
  <speed>0.0</speed>
  <fix>3d</fix>
</trkpt>
<trkpt lat="40.071367" lon="-105.2298254">
  <ele>1583.01</ele>
  <time>2026-08-28T17:49:56Z</time>
  <course>297.78</course>
  <speed>0.02</speed>
  <fix>3d</fix>
</trkpt>
<trkpt lat="40.0713669" lon="-105.2298256">
  <ele>1583.0</ele>
  <time>2026-08-28T17:49:56Z</time>
  <course>206.78</course>
  <speed>0.0</speed>
  <fix>3d</fix>
</trkpt>
<trkpt lat="40.071367" lon="-105.2298254">
  <ele>1583.01</ele>
  <time>2026-08-28T17:49:56Z</time>
  <course>297.78</course>
  <speed>0.02</speed>
  <fix>3d</fix>
</trkpt>
<trkpt lat="40.0713669" lon="-105.2298256">
  <ele>1583.0</ele>
  <time>2026-08-28T17:49:56Z</time>
  <course>206.78</course>
  <speed>0.0</speed>
  <fix>3d</fix>
</trkpt>
<trkpt lat="40.071367" lon="-105.2298254">
  <ele>1583.01</ele>
  <time>2026-08-28T17:49:56Z</time>
  <course>297.78</course>
  <speed>0.02</speed>
  <fix>3d</fix>
</trkpt>
<trkpt lat="40.0713669" lon="-105.2298256">
  <ele>1583.0</ele>
  <time>2026-08-28T17:49:56Z</time>
  <course>206.78</course>
  <speed>0.0</speed>
  <fix>3d</fix>
</trkpt>
<trkpt lat="40.071367" lon="-105.2298254">
  <ele>1583.02</ele>
  <time>2026-08-28T17:49:56Z</time>
  <course>297.78</course>
  <speed>0.02</speed>
  <fix>3d</fix>
</trkpt>
<trkpt lat="40.0713669" lon="-105.2298256">
  <ele>1583.0</ele>
  <time>2026-08-28T17:49:56Z</time>
  <course>206.78</course>
  <speed>0.0</speed>
  <fix>3d</fix>
</trkpt>
<trkpt lat="40.071367" lon="-105.2298254">
  <ele>1583.02</ele>
  <time>2026-08-28T17:49:57Z</time>
  <course>297.78</course>
  <speed>0.02</speed>
  <fix>3d</fix>
</trkpt>
<trkpt lat="40.0713669" lon="-105.2298256">
  <ele>1583.0</ele>
  <time>2026-08-28T17:49:57Z</time>
  <course>206.78</course>
  <speed>0.0</speed>
  <fix>3d</fix>
</trkpt>
<trkpt lat="40.071367" lon="-105.2298254">
  <ele>1583.02</ele>
  <time>2026-08-28T17:49:57Z</time>
  <course>297.78</course>
  <speed>0.02</speed>
  <fix>3d</fix>
</trkpt>
<trkpt lat="40.0713669" lon="-105.2298256">
  <ele>1583.0</ele>
  <time>2026-08-28T17:49:57Z</time>
  <course>206.78</course>
  <speed>0.0</speed>
  <fix>3d</fix>
</trkpt>
<trkpt lat="40.071367" lon="-105.2298254">
  <ele>1583.03</ele>
  <time>2026-08-28T17:49:57Z</time>
  <course>297.78</course>
  <speed>0.02</speed>
  <fix>3d</fix>
</trkpt>
<trkpt lat="40.0713669" lon="-105.2298256">
  <ele>1583.0</ele>
  <time>2026-08-28T17:49:57Z</time>
  <course>206.78</course>
  <speed>0.0</speed>
  <fix>3d</fix>
</trkpt>
<trkpt lat="40.071367" lon="-105.2298254">
  <ele>1583.03</ele>
  <time>2026-08-28T17:49:57Z</time>
  <course>297.78</course>
  <speed>0.02</speed>
  <fix>3d</fix>
</trkpt>
<trkpt lat="40.0713669" lon="-105.2298256">
  <ele>1583.0</ele>
  <time>2026-08-28T17:49:57Z</time>
  <course>206.78</course>
  <speed>0.0</speed>
  <fix>3d</fix>
</trkpt>
<trkpt lat="40.071367" lon="-105.2298254">
  <ele>1583.04</ele>
  <time>2026-08-28T17:49:57Z</time>
  <course>297.78</course>
  <speed>0.02</speed>
  <fix>3d</fix>
</trkpt>
<trkpt lat="40.0713669" lon="-105.2298256">
  <ele>1583.0</ele>
  <time>2026-08-28T17:49:57Z</time>
  <course>206.78</course>
  <speed>0.0</speed>
  <fix>3d</fix>
</trkpt>
<trkpt lat="40.071367" lon="-105.2298254">
  <ele>1583.04</ele>
  <time>2026-08-28T17:49:57Z</time>
  <course>297.78</course>
  <speed>0.02</speed>
  <fix>3d</fix>
</trkpt>
<trkpt lat="40.0713669" lon="-105.2298256">
  <ele>1583.0</ele>
  <time>2026-08-28T17:49:57Z</time>
  <course>206.78</course>
  <speed>0.0</speed>
  <fix>3d</fix>
</trkpt>
<trkpt lat="40.071367" lon="-105.2298254">
  <ele>1583.05</ele>
  <time>2026-08-28T17:49:57Z</time>
  <course>297.78</course>
  <speed>0.02</speed>
  <fix>3d</fix>
</trkpt>
<trkpt lat="40.0713669" lon="-105.2298256">
  <ele>1583.0</ele>
  <time>2026-08-28T17:49:57Z</time>
  <course>206.78</course>
  <speed>0.0</speed>
  <fix>3d</fix>
</trkpt>
<trkpt lat="40.071367" lon="-105.2298254">
  <ele>1583.05</ele>
  <time>2026-08-28T17:49:57Z</time>
  <course>297.78</course>
  <speed>0.02</speed>
  <fix>3d</fix>
</trkpt>
<trkpt lat="40.0713669" lon="-105.2298256">
  <ele>1583.0</ele>
  <time>2026-08-28T17:49:57Z</time>
  <course>206.78</course>
  <speed>0.0</speed>
  <fix>3d</fix>
</trkpt>
<trkpt lat="40.071367" lon="-105.2298254">
  <ele>1583.06</ele>
  <time>2026-08-28T17:49:57Z</time>
  <course>297.78</course>
  <speed>0.02</speed>
  <fix>3d</fix>
</trkpt>
<trkpt lat="40.0713669" lon="-105.2298256">
  <ele>1583.0</ele>
  <time>2026-08-28T17:49:57Z</time>
  <course>206.78</course>
  <speed>0.0</speed>
  <fix>3d</fix>
</trkpt>
<trkpt lat="40.071367" lon="-105.2298254">
  <ele>1583.06</ele>
  <time>2026-08-28T17:49:57Z</time>
  <course>297.78</course>
  <speed>0.02</speed>
  <fix>3d</fix>
</trkpt>
<trkpt lat="40.0713669" lon="-105.2298256">
  <ele>1583.0</ele>
  <time>2026-08-28T17:49:57Z</time>
  <course>206.78</course>
  <speed>0.0</speed>
  <fix>3d</fix>
</trkpt>
<trkpt lat="40.071367" lon="-105.2298254">
  <ele>1583.06</ele>
  <time>2026-08-28T17:49:57Z</time>
  <course>297.78</course>
  <speed>0.02</speed>
  <fix>3d</fix>
</trkpt>
<trkpt lat="40.0713669" lon="-105.2298256">
  <ele>1583.0</ele>
  <time>2026-08-28T17:49:57Z</time>
  <course>206.78</course>
  <speed>0.0</speed>
  <fix>3d</fix>
</trkpt>
<trkpt lat="40.071367" lon="-105.2298254">
  <ele>1583.06</ele>
  <time>2026-08-28T17:49:57Z</time>
  <course>297.78</course>
  <speed>0.02</speed>
  <fix>3d</fix>
</trkpt>
<trkpt lat="40.0713669" lon="-105.2298256">
  <ele>1583.0</ele>
  <time>2026-08-28T17:49:57Z</time>
  <course>206.78</course>
  <speed>0.0</speed>
  <fix>3d</fix>
</trkpt>
<trkpt lat="40.071367" lon="-105.2298254">
  <ele>1583.07</ele>
  <time>2026-08-28T17:49:57Z</time>
  <course>297.78</course>
  <speed>0.02</speed>
  <fix>3d</fix>
</trkpt>
<trkpt lat="40.0713669" lon="-105.2298256">
  <ele>1583.0</ele>
  <time>2026-08-28T17:49:57Z</time>
  <course>206.78</course>
  <speed>0.0</speed>
  <fix>3d</fix>
</trkpt>
<trkpt lat="40.071367" lon="-105.2298254">
  <ele>1583.07</ele>
  <time>2026-08-28T17:49:57Z</time>
  <course>297.78</course>
  <speed>0.02</speed>
  <fix>3d</fix>
</trkpt>
<trkpt lat="40.0713669" lon="-105.2298256">
  <ele>1583.0</ele>
  <time>2026-08-28T17:49:57Z</time>
  <course>206.78</course>
  <speed>0.0</speed>
  <fix>3d</fix>
</trkpt>
<trkpt lat="40.071367" lon="-105.2298254">
  <ele>1583.07</ele>
  <time>2026-08-28T17:49:57Z</time>
  <course>297.78</course>
  <speed>0.02</speed>
  <fix>3d</fix>
</trkpt>
<trkpt lat="40.0713669" lon="-105.2298256">
  <ele>1583.0</ele>
  <time>2026-08-28T17:49:57Z</time>
  <course>206.78</course>
  <speed>0.0</speed>
  <fix>3d</fix>
</trkpt>
<trkpt lat="40.071367" lon="-105.2298254">
  <ele>1583.07</ele>
  <time>2026-08-28T17:49:57Z</time>
  <course>297.79</course>
  <speed>0.02</speed>
  <fix>3d</fix>
</trkpt>
<trkpt lat="40.0713669" lon="-105.2298256">
  <ele>1583.0</ele>
  <time>2026-08-28T17:49:57Z</time>
  <course>206.78</course>
  <speed>0.0</speed>
  <fix>3d</fix>
</trkpt>
<trkpt lat="40.071367" lon="-105.2298254">
  <ele>1583.06</ele>
  <time>2026-08-28T17:49:57Z</time>
  <course>297.79</course>
  <speed>0.02</speed>
  <fix>3d</fix>
</trkpt>
<trkpt lat="40.0713669" lon="-105.2298256">
  <ele>1583.0</ele>
  <time>2026-08-28T17:49:57Z</time>
  <course>206.78</course>
  <speed>0.0</speed>
  <fix>3d</fix>
</trkpt>
<trkpt lat="40.071367" lon="-105.2298254">
  <ele>1583.06</ele>
  <time>2026-08-28T17:49:57Z</time>
  <course>297.79</course>
  <speed>0.02</speed>
  <fix>3d</fix>
</trkpt>
<trkpt lat="40.0713669" lon="-105.2298256">
  <ele>1583.0</ele>
  <time>2026-08-28T17:49:57Z</time>
  <course>206.78</course>
  <speed>0.0</speed>
  <fix>3d</fix>
</trkpt>
<trkpt lat="40.071367" lon="-105.2298254">
  <ele>1583.06</ele>
  <time>2026-08-28T17:49:57Z</time>
  <course>297.79</course>
  <speed>0.02</speed>
  <fix>3d</fix>
</trkpt>
<trkpt lat="40.0713669" lon="-105.2298256">
  <ele>1583.0</ele>
  <time>2026-08-28T17:49:57Z</time>
  <course>206.78</course>
  <speed>0.0</speed>
  <fix>3d</fix>
</trkpt>
<trkpt lat="40.071367" lon="-105.2298254">
  <ele>1583.06</ele>
  <time>2026-08-28T17:49:57Z</time>
  <course>297.79</course>
  <speed>0.02</speed>
  <fix>3d</fix>
</trkpt>
<trkpt lat="40.0713669" lon="-105.2298256">
  <ele>1583.0</ele>
  <time>2026-08-28T17:49:57Z</time>
  <course>206.78</course>
  <speed>0.0</speed>
  <fix>3d</fix>
</trkpt>
<trkpt lat="40.071367" lon="-105.2298254">
  <ele>1583.06</ele>
  <time>2026-08-28T17:49:57Z</time>
  <course>297.79</course>
  <speed>0.02</speed>
  <fix>3d</fix>
</trkpt>
<trkpt lat="40.0713669" lon="-105.2298256">
  <ele>1583.0</ele>
  <time>2026-08-28T17:49:57Z</time>
  <course>206.78</course>
  <speed>0.0</speed>
  <fix>3d</fix>
</trkpt>
<trkpt lat="40.071367" lon="-105.2298254">
  <ele>1583.05</ele>
  <time>2026-08-28T17:49:57Z</time>
  <course>297.79</course>
  <speed>0.02</speed>
  <fix>3d</fix>
</trkpt>
<trkpt lat="40.0713669" lon="-105.2298256">
  <ele>1583.0</ele>
  <time>2026-08-28T17:49:57Z</time>
  <course>206.78</course>
  <speed>0.0</speed>
  <fix>3d</fix>
</trkpt>
<trkpt lat="40.071367" lon="-105.2298254">
  <ele>1583.05</ele>
  <time>2026-08-28T17:49:57Z</time>
  <course>297.79</course>
  <speed>0.02</speed>
  <fix>3d</fix>
</trkpt>
<trkpt lat="40.0713669" lon="-105.2298256">
  <ele>1583.0</ele>
  <time>2026-08-28T17:49:57Z</time>
  <course>206.78</course>
  <speed>0.0</speed>
  <fix>3d</fix>
</trkpt>
<trkpt lat="40.071367" lon="-105.2298254">
  <ele>1583.05</ele>
  <time>2026-08-28T17:49:57Z</time>
  <course>297.79</course>
  <speed>0.02</speed>
  <fix>3d</fix>
</trkpt>
<trkpt lat="40.0713669" lon="-105.2298256">
  <ele>1583.0</ele>
  <time>2026-08-28T17:49:57Z</time>
  <course>206.78</course>
  <speed>0.0</speed>
  <fix>3d</fix>
</trkpt>
<trkpt lat="40.071367" lon="-105.2298254">
  <ele>1583.04</ele>
  <time>2026-08-28T17:49:57Z</time>
  <course>297.79</course>
  <speed>0.02</speed>
  <fix>3d</fix>
</trkpt>
<trkpt lat="40.0713669" lon="-105.2298256">
  <ele>1583.0</ele>
  <time>2026-08-28T17:49:57Z</time>
  <course>206.78</course>
  <speed>0.0</speed>
  <fix>3d</fix>
</trkpt>
<trkpt lat="40.071367" lon="-105.2298254">
  <ele>1583.04</ele>
  <time>2026-08-28T17:49:57Z</time>
  <course>297.79</course>
  <speed>0.02</speed>
  <fix>3d</fix>
</trkpt>
<trkpt lat="40.0713669" lon="-105.2298256">
  <ele>1583.0</ele>
  <time>2026-08-28T17:49:57Z</time>
  <course>206.78</course>
  <speed>0.0</speed>
  <fix>3d</fix>
</trkpt>
<trkpt lat="39.655741" lon="-104.1383097">
  <ele>1566.58</ele>
  <time>2026-08-28T17:49:59Z</time>
  <course>0.0</course>
  <speed>0.0</speed>
  <fix>3d</fix>
</trkpt>
<trkpt lat="40.0713749" lon="-105.229789">
  <ele>1583.0</ele>
  <time>2026-08-28T17:49:59Z</time>
  <course>0.0</course>
  <speed>0.0</speed>
  <fix>3d</fix>
</trkpt>
<trkpt lat="40.0713749" lon="-105.229789">
  <ele>1583.0</ele>
  <time>2026-08-28T17:49:59Z</time>
  <course>238.36</course>
  <speed>0.0</speed>
  <fix>3d</fix>
</trkpt>
<trkpt lat="40.0713749" lon="-105.229789">
  <ele>1583.0</ele>
  <time>2026-08-28T17:49:59Z</time>
  <course>0.0</course>
  <speed>0.0</speed>
  <fix>3d</fix>
</trkpt>
<trkpt lat="40.0713749" lon="-105.229789">
  <ele>1583.0</ele>
  <time>2026-08-28T17:49:59Z</time>
  <course>238.44</course>
  <speed>0.0</speed>
  <fix>3d</fix>
</trkpt>
<trkpt lat="40.0713749" lon="-105.229789">
  <ele>1583.0</ele>
  <time>2026-08-28T17:49:59Z</time>
  <course>0.0</course>
  <speed>0.0</speed>
  <fix>3d</fix>
</trkpt>
<trkpt lat="40.0713749" lon="-105.229789">
  <ele>1583.0</ele>
  <time>2026-08-28T17:49:59Z</time>
  <course>238.64</course>
  <speed>0.0</speed>
  <fix>3d</fix>
</trkpt>
<trkpt lat="40.0713749" lon="-105.229789">
  <ele>1583.0</ele>
  <time>2026-08-28T17:49:59Z</time>
  <course>0.0</course>
  <speed>0.0</speed>
  <fix>3d</fix>
</trkpt>
<trkpt lat="40.0713749" lon="-105.229789">
  <ele>1583.0</ele>
  <time>2026-08-28T17:49:59Z</time>
  <course>238.93</course>
  <speed>0.0</speed>
  <fix>3d</fix>
</trkpt>
<trkpt lat="40.0713749" lon="-105.229789">
  <ele>1583.0</ele>
  <time>2026-08-28T17:49:59Z</time>
  <course>0.0</course>
  <speed>0.0</speed>
  <fix>3d</fix>
</trkpt>
<trkpt lat="40.0713749" lon="-105.229789">
  <ele>1583.0</ele>
  <time>2026-08-28T17:49:59Z</time>
  <course>239.26</course>
  <speed>0.0</speed>
  <fix>3d</fix>
</trkpt>
<trkpt lat="40.0713749" lon="-105.229789">
  <ele>1583.0</ele>
  <time>2026-08-28T17:49:59Z</time>
  <course>0.0</course>
  <speed>0.0</speed>
  <fix>3d</fix>
</trkpt>
<trkpt lat="40.0713749" lon="-105.229789">
  <ele>1583.0</ele>
  <time>2026-08-28T17:49:59Z</time>
  <course>239.61</course>
  <speed>0.0</speed>
  <fix>3d</fix>
</trkpt>
<trkpt lat="40.0713749" lon="-105.229789">
  <ele>1583.0</ele>
  <time>2026-08-28T17:49:59Z</time>
  <course>0.0</course>
  <speed>0.0</speed>
  <fix>3d</fix>
</trkpt>
<trkpt lat="40.0713749" lon="-105.229789">
  <ele>1583.0</ele>
  <time>2026-08-28T17:49:59Z</time>
  <course>239.96</course>
  <speed>0.0</speed>
  <fix>3d</fix>
</trkpt>
<trkpt lat="40.0713749" lon="-105.229789">
  <ele>1583.0</ele>
  <time>2026-08-28T17:49:59Z</time>
  <course>0.0</course>
  <speed>0.0</speed>
  <fix>3d</fix>
</trkpt>
<trkpt lat="40.0713749" lon="-105.229789">
  <ele>1583.0</ele>
  <time>2026-08-28T17:49:59Z</time>
  <course>240.29</course>
  <speed>0.0</speed>
  <fix>3d</fix>
</trkpt>
<trkpt lat="40.0713749" lon="-105.229789">
  <ele>1583.0</ele>
  <time>2026-08-28T17:49:59Z</time>
  <course>0.0</course>
  <speed>0.0</speed>
  <fix>3d</fix>
</trkpt>
<trkpt lat="40.0713749" lon="-105.229789">
  <ele>1583.0</ele>
  <time>2026-08-28T17:49:59Z</time>
  <course>240.61</course>
  <speed>0.0</speed>
  <fix>3d</fix>
</trkpt>
<trkpt lat="40.0713749" lon="-105.229789">
  <ele>1583.0</ele>
  <time>2026-08-28T17:49:59Z</time>
  <course>0.0</course>
  <speed>0.0</speed>
  <fix>3d</fix>
</trkpt>
<trkpt lat="40.0713749" lon="-105.229789">
  <ele>1583.0</ele>
  <time>2026-08-28T17:49:59Z</time>
  <course>240.92</course>
  <speed>0.0</speed>
  <fix>3d</fix>
</trkpt>
<trkpt lat="40.0713749" lon="-105.229789">
  <ele>1583.0</ele>
  <time>2026-08-28T17:49:59Z</time>
  <course>0.0</course>
  <speed>0.0</speed>
  <fix>3d</fix>
</trkpt>
<trkpt lat="40.0713749" lon="-105.229789">
  <ele>1583.0</ele>
  <time>2026-08-28T17:49:59Z</time>
  <course>241.21</course>
  <speed>0.0</speed>
  <fix>3d</fix>
</trkpt>
<trkpt lat="40.0713749" lon="-105.229789">
  <ele>1583.0</ele>
  <time>2026-08-28T17:49:59Z</time>
  <course>0.0</course>
  <speed>0.0</speed>
  <fix>3d</fix>
</trkpt>
<trkpt lat="40.0713749" lon="-105.229789">
  <ele>1583.0</ele>
  <time>2026-08-28T17:49:59Z</time>
  <course>241.49</course>
  <speed>0.0</speed>
  <fix>3d</fix>
</trkpt>
<trkpt lat="40.0713749" lon="-105.229789">
  <ele>1583.0</ele>
  <time>2026-08-28T17:49:59Z</time>
  <course>0.0</course>
  <speed>0.0</speed>
  <fix>3d</fix>
</trkpt>
<trkpt lat="40.0713749" lon="-105.229789">
  <ele>1583.0</ele>
  <time>2026-08-28T17:49:59Z</time>
  <course>241.77</course>
  <speed>0.0</speed>
  <fix>3d</fix>
</trkpt>
<trkpt lat="40.0713749" lon="-105.229789">
  <ele>1583.0</ele>
  <time>2026-08-28T17:49:59Z</time>
  <course>0.0</course>
  <speed>0.0</speed>
  <fix>3d</fix>
</trkpt>
<trkpt lat="40.0713749" lon="-105.229789">
  <ele>1583.0</ele>
  <time>2026-08-28T17:49:59Z</time>
  <course>242.03</course>
  <speed>0.0</speed>
  <fix>3d</fix>
</trkpt>
<trkpt lat="40.0713749" lon="-105.229789">
  <ele>1583.0</ele>
  <time>2026-08-28T17:49:59Z</time>
  <course>0.0</course>
  <speed>0.0</speed>
  <fix>3d</fix>
</trkpt>
<trkpt lat="40.0713749" lon="-105.229789">
  <ele>1583.0</ele>
  <time>2026-08-28T17:49:59Z</time>
  <course>242.29</course>
  <speed>0.0</speed>
  <fix>3d</fix>
</trkpt>
<trkpt lat="40.0713749" lon="-105.229789">
  <ele>1583.0</ele>
  <time>2026-08-28T17:49:59Z</time>
  <course>0.0</course>
  <speed>0.0</speed>
  <fix>3d</fix>
</trkpt>
<trkpt lat="40.0713749" lon="-105.229789">
  <ele>1583.0</ele>
  <time>2026-08-28T17:49:59Z</time>
  <course>242.54</course>
  <speed>0.0</speed>
  <fix>3d</fix>
</trkpt>
<trkpt lat="40.0713749" lon="-105.229789">
  <ele>1583.0</ele>
  <time>2026-08-28T17:49:59Z</time>
  <course>0.0</course>
  <speed>0.0</speed>
  <fix>3d</fix>
</trkpt>
<trkpt lat="40.0713749" lon="-105.229789">
  <ele>1583.0</ele>
  <time>2026-08-28T17:49:59Z</time>
  <course>242.79</course>
  <speed>0.0</speed>
  <fix>3d</fix>
</trkpt>
<trkpt lat="40.0713749" lon="-105.229789">
  <ele>1583.0</ele>
  <time>2026-08-28T17:49:59Z</time>
  <course>0.0</course>
  <speed>0.0</speed>
  <fix>3d</fix>
</trkpt>
<trkpt lat="40.0713749" lon="-105.229789">
  <ele>1583.0</ele>
  <time>2026-08-28T17:49:59Z</time>
  <course>243.02</course>
  <speed>0.0</speed>
  <fix>3d</fix>
</trkpt>
<trkpt lat="40.0713749" lon="-105.229789">
  <ele>1583.0</ele>
  <time>2026-08-28T17:49:59Z</time>
  <course>0.0</course>
  <speed>0.0</speed>
  <fix>3d</fix>
</trkpt>
<trkpt lat="40.0713749" lon="-105.229789">
  <ele>1583.0</ele>
  <time>2026-08-28T17:49:59Z</time>
  <course>243.25</course>
  <speed>0.0</speed>
  <fix>3d</fix>
</trkpt>
<trkpt lat="40.0713749" lon="-105.229789">
  <ele>1583.0</ele>
  <time>2026-08-28T17:49:59Z</time>
  <course>0.0</course>
  <speed>0.0</speed>
  <fix>3d</fix>
</trkpt>
<trkpt lat="40.0713749" lon="-105.229789">
  <ele>1583.0</ele>
  <time>2026-08-28T17:49:59Z</time>
  <course>243.47</course>
  <speed>0.0</speed>
  <fix>3d</fix>
</trkpt>
<trkpt lat="40.0713749" lon="-105.229789">
  <ele>1583.0</ele>
  <time>2026-08-28T17:49:59Z</time>
  <course>0.0</course>
  <speed>0.0</speed>
  <fix>3d</fix>
</trkpt>
<trkpt lat="40.0713749" lon="-105.229789">
  <ele>1583.0</ele>
  <time>2026-08-28T17:49:59Z</time>
  <course>243.68</course>
  <speed>0.0</speed>
  <fix>3d</fix>
</trkpt>
<trkpt lat="40.0713749" lon="-105.229789">
  <ele>1583.0</ele>
  <time>2026-08-28T17:49:59Z</time>
  <course>0.0</course>
  <speed>0.0</speed>
  <fix>3d</fix>
</trkpt>
<trkpt lat="40.0713749" lon="-105.229789">
  <ele>1583.0</ele>
  <time>2026-08-28T17:49:59Z</time>
  <course>243.89</course>
  <speed>0.0</speed>
  <fix>3d</fix>
</trkpt>
<trkpt lat="40.0713749" lon="-105.229789">
  <ele>1583.0</ele>
  <time>2026-08-28T17:49:59Z</time>
  <course>0.0</course>
  <speed>0.0</speed>
  <fix>3d</fix>
</trkpt>
<trkpt lat="40.0713749" lon="-105.229789">
  <ele>1583.0</ele>
  <time>2026-08-28T17:49:59Z</time>
  <course>244.09</course>
  <speed>0.0</speed>
  <fix>3d</fix>
</trkpt>
<trkpt lat="40.0713749" lon="-105.229789">
  <ele>1583.0</ele>
  <time>2026-08-28T17:49:59Z</time>
  <course>0.0</course>
  <speed>0.0</speed>
  <fix>3d</fix>
</trkpt>
<trkpt lat="40.0713749" lon="-105.229789">
  <ele>1583.0</ele>
  <time>2026-08-28T17:49:59Z</time>
  <course>244.28</course>
  <speed>0.0</speed>
  <fix>3d</fix>
</trkpt>
<trkpt lat="40.0713749" lon="-105.229789">
  <ele>1583.0</ele>
  <time>2026-08-28T17:49:59Z</time>
  <course>0.0</course>
  <speed>0.0</speed>
  <fix>3d</fix>
</trkpt>
<trkpt lat="40.0713749" lon="-105.229789">
  <ele>1583.0</ele>
  <time>2026-08-28T17:49:59Z</time>
  <course>244.46</course>
  <speed>0.0</speed>
  <fix>3d</fix>
</trkpt>
<trkpt lat="40.0713749" lon="-105.229789">
  <ele>1583.0</ele>
  <time>2026-08-28T17:49:59Z</time>
  <course>0.0</course>
  <speed>0.0</speed>
  <fix>3d</fix>
</trkpt>
<trkpt lat="39.655741" lon="-104.1383097">
  <ele>1566.58</ele>
  <time>2026-08-28T17:50:05Z</time>
  <course>0.0</course>
  <speed>0.0</speed>
  <fix>3d</fix>
</trkpt>
<trkpt lat="40.0713749" lon="-105.229789">
  <ele>1583.0</ele>
  <time>2026-08-28T17:50:05Z</time>
  <course>0.0</course>
  <speed>0.0</speed>
  <fix>3d</fix>
</trkpt>
<trkpt lat="40.0713749" lon="-105.229789">
  <ele>1583.0</ele>
  <time>2026-08-28T17:50:05Z</time>
  <course>238.36</course>
  <speed>0.0</speed>
  <fix>3d</fix>
</trkpt>
<trkpt lat="40.0713749" lon="-105.229789">
  <ele>1583.0</ele>
  <time>2026-08-28T17:50:05Z</time>
  <course>0.0</course>
  <speed>0.0</speed>
  <fix>3d</fix>
</trkpt>
<trkpt lat="40.0713749" lon="-105.229789">
  <ele>1583.0</ele>
  <time>2026-08-28T17:50:05Z</time>
  <course>238.44</course>
  <speed>0.0</speed>
  <fix>3d</fix>
</trkpt>
<trkpt lat="40.0713749" lon="-105.229789">
  <ele>1583.0</ele>
  <time>2026-08-28T17:50:05Z</time>
  <course>0.0</course>
  <speed>0.0</speed>
  <fix>3d</fix>
</trkpt>
<trkpt lat="40.0713749" lon="-105.229789">
  <ele>1583.0</ele>
  <time>2026-08-28T17:50:05Z</time>
  <course>238.64</course>
  <speed>0.0</speed>
  <fix>3d</fix>
</trkpt>
<trkpt lat="40.0713749" lon="-105.229789">
  <ele>1583.0</ele>
  <time>2026-08-28T17:50:05Z</time>
  <course>0.0</course>
  <speed>0.0</speed>
  <fix>3d</fix>
</trkpt>
<trkpt lat="40.0713749" lon="-105.229789">
  <ele>1583.0</ele>
  <time>2026-08-28T17:50:05Z</time>
  <course>238.93</course>
  <speed>0.0</speed>
  <fix>3d</fix>
</trkpt>
<trkpt lat="40.0713749" lon="-105.229789">
  <ele>1583.0</ele>
  <time>2026-08-28T17:50:05Z</time>
  <course>0.0</course>
  <speed>0.0</speed>
  <fix>3d</fix>
</trkpt>
<trkpt lat="40.0713749" lon="-105.229789">
  <ele>1583.0</ele>
  <time>2026-08-28T17:50:05Z</time>
  <course>239.26</course>
  <speed>0.0</speed>
  <fix>3d</fix>
</trkpt>
<trkpt lat="40.0713749" lon="-105.229789">
  <ele>1583.0</ele>
  <time>2026-08-28T17:50:05Z</time>
  <course>0.0</course>
  <speed>0.0</speed>
  <fix>3d</fix>
</trkpt>
<trkpt lat="40.0713749" lon="-105.229789">
  <ele>1583.0</ele>
  <time>2026-08-28T17:50:05Z</time>
  <course>239.61</course>
  <speed>0.0</speed>
  <fix>3d</fix>
</trkpt>
<trkpt lat="40.0713749" lon="-105.229789">
  <ele>1583.0</ele>
  <time>2026-08-28T17:50:05Z</time>
  <course>0.0</course>
  <speed>0.0</speed>
  <fix>3d</fix>
</trkpt>
<trkpt lat="40.0713749" lon="-105.229789">
  <ele>1583.0</ele>
  <time>2026-08-28T17:50:05Z</time>
  <course>239.96</course>
  <speed>0.0</speed>
  <fix>3d</fix>
</trkpt>
<trkpt lat="40.0713749" lon="-105.229789">
  <ele>1583.0</ele>
  <time>2026-08-28T17:50:05Z</time>
  <course>0.0</course>
  <speed>0.0</speed>
  <fix>3d</fix>
</trkpt>
<trkpt lat="40.0713749" lon="-105.229789">
  <ele>1583.0</ele>
  <time>2026-08-28T17:50:05Z</time>
  <course>240.29</course>
  <speed>0.0</speed>
  <fix>3d</fix>
</trkpt>
<trkpt lat="40.0713749" lon="-105.229789">
  <ele>1583.0</ele>
  <time>2026-08-28T17:50:05Z</time>
  <course>0.0</course>
  <speed>0.0</speed>
  <fix>3d</fix>
</trkpt>
<trkpt lat="40.0713749" lon="-105.229789">
  <ele>1583.0</ele>
  <time>2026-08-28T17:50:05Z</time>
  <course>240.61</course>
  <speed>0.0</speed>
  <fix>3d</fix>
</trkpt>
<trkpt lat="40.0713749" lon="-105.229789">
  <ele>1583.0</ele>
  <time>2026-08-28T17:50:05Z</time>
  <course>0.0</course>
  <speed>0.0</speed>
  <fix>3d</fix>
</trkpt>
<trkpt lat="40.0713749" lon="-105.229789">
  <ele>1583.0</ele>
  <time>2026-08-28T17:50:05Z</time>
  <course>240.92</course>
  <speed>0.0</speed>
  <fix>3d</fix>
</trkpt>
<trkpt lat="40.0713749" lon="-105.229789">
  <ele>1583.0</ele>
  <time>2026-08-28T17:50:05Z</time>
  <course>0.0</course>
  <speed>0.0</speed>
  <fix>3d</fix>
</trkpt>
<trkpt lat="40.0713749" lon="-105.229789">
  <ele>1583.0</ele>
  <time>2026-08-28T17:50:05Z</time>
  <course>241.21</course>
  <speed>0.0</speed>
  <fix>3d</fix>
</trkpt>
<trkpt lat="40.0713749" lon="-105.229789">
  <ele>1583.0</ele>
  <time>2026-08-28T17:50:05Z</time>
  <course>0.0</course>
  <speed>0.0</speed>
  <fix>3d</fix>
</trkpt>
<trkpt lat="40.0713749" lon="-105.229789">
  <ele>1583.0</ele>
  <time>2026-08-28T17:50:05Z</time>
  <course>241.49</course>
  <speed>0.0</speed>
  <fix>3d</fix>
</trkpt>
<trkpt lat="40.0713749" lon="-105.229789">
  <ele>1583.0</ele>
  <time>2026-08-28T17:50:05Z</time>
  <course>0.0</course>
  <speed>0.0</speed>
  <fix>3d</fix>
</trkpt>
<trkpt lat="40.0713749" lon="-105.229789">
  <ele>1583.0</ele>
  <time>2026-08-28T17:50:05Z</time>
  <course>241.77</course>
  <speed>0.0</speed>
  <fix>3d</fix>
</trkpt>
<trkpt lat="40.0713749" lon="-105.229789">
  <ele>1583.0</ele>
  <time>2026-08-28T17:50:05Z</time>
  <course>0.0</course>
  <speed>0.0</speed>
  <fix>3d</fix>
</trkpt>
<trkpt lat="40.0713749" lon="-105.229789">
  <ele>1583.0</ele>
  <time>2026-08-28T17:50:05Z</time>
  <course>242.03</course>
  <speed>0.0</speed>
  <fix>3d</fix>
</trkpt>
<trkpt lat="40.0713749" lon="-105.229789">
  <ele>1583.0</ele>
  <time>2026-08-28T17:50:05Z</time>
  <course>0.0</course>
  <speed>0.0</speed>
  <fix>3d</fix>
</trkpt>
<trkpt lat="40.0713749" lon="-105.229789">
  <ele>1583.0</ele>
  <time>2026-08-28T17:50:05Z</time>
  <course>242.29</course>
  <speed>0.0</speed>
  <fix>3d</fix>
</trkpt>
<trkpt lat="40.0713749" lon="-105.229789">
  <ele>1583.0</ele>
  <time>2026-08-28T17:50:05Z</time>
  <course>0.0</course>
  <speed>0.0</speed>
  <fix>3d</fix>
</trkpt>
<trkpt lat="40.0713749" lon="-105.229789">
  <ele>1583.0</ele>
  <time>2026-08-28T17:50:05Z</time>
  <course>242.54</course>
  <speed>0.0</speed>
  <fix>3d</fix>
</trkpt>
<trkpt lat="40.0713749" lon="-105.229789">
  <ele>1583.0</ele>
  <time>2026-08-28T17:50:05Z</time>
  <course>0.0</course>
  <speed>0.0</speed>
  <fix>3d</fix>
</trkpt>
<trkpt lat="40.0713749" lon="-105.229789">
  <ele>1583.0</ele>
  <time>2026-08-28T17:50:05Z</time>
  <course>242.79</course>
  <speed>0.0</speed>
  <fix>3d</fix>
</trkpt>
<trkpt lat="40.0713749" lon="-105.229789">
  <ele>1583.0</ele>
  <time>2026-08-28T17:50:05Z</time>
  <course>0.0</course>
  <speed>0.0</speed>
  <fix>3d</fix>
</trkpt>
<trkpt lat="40.0713749" lon="-105.229789">
  <ele>1583.0</ele>
  <time>2026-08-28T17:50:05Z</time>
  <course>243.02</course>
  <speed>0.0</speed>
  <fix>3d</fix>
</trkpt>
<trkpt lat="40.0713749" lon="-105.229789">
  <ele>1583.0</ele>
  <time>2026-08-28T17:50:05Z</time>
  <course>0.0</course>
  <speed>0.0</speed>
  <fix>3d</fix>
</trkpt>
<trkpt lat="40.0713749" lon="-105.229789">
  <ele>1583.0</ele>
  <time>2026-08-28T17:50:05Z</time>
  <course>243.25</course>
  <speed>0.0</speed>
  <fix>3d</fix>
</trkpt>
<trkpt lat="40.0713749" lon="-105.229789">
  <ele>1583.0</ele>
  <time>2026-08-28T17:50:05Z</time>
  <course>0.0</course>
  <speed>0.0</speed>
  <fix>3d</fix>
</trkpt>
<trkpt lat="40.0713749" lon="-105.229789">
  <ele>1583.0</ele>
  <time>2026-08-28T17:50:05Z</time>
  <course>243.47</course>
  <speed>0.0</speed>
  <fix>3d</fix>
</trkpt>
<trkpt lat="40.0713749" lon="-105.229789">
  <ele>1583.0</ele>
  <time>2026-08-28T17:50:05Z</time>
  <course>0.0</course>
  <speed>0.0</speed>
  <fix>3d</fix>
</trkpt>
<trkpt lat="40.0713749" lon="-105.229789">
  <ele>1583.0</ele>
  <time>2026-08-28T17:50:05Z</time>
  <course>243.68</course>
  <speed>0.0</speed>
  <fix>3d</fix>
</trkpt>
<trkpt lat="40.0713749" lon="-105.229789">
  <ele>1583.0</ele>
  <time>2026-08-28T17:50:05Z</time>
  <course>0.0</course>
  <speed>0.0</speed>
  <fix>3d</fix>
</trkpt>
<trkpt lat="40.0713749" lon="-105.229789">
  <ele>1583.0</ele>
  <time>2026-08-28T17:50:05Z</time>
  <course>243.89</course>
  <speed>0.0</speed>
  <fix>3d</fix>
</trkpt>
<trkpt lat="40.0713749" lon="-105.229789">
  <ele>1583.0</ele>
  <time>2026-08-28T17:50:05Z</time>
  <course>0.0</course>
  <speed>0.0</speed>
  <fix>3d</fix>
</trkpt>
<trkpt lat="40.0713749" lon="-105.229789">
  <ele>1583.0</ele>
  <time>2026-08-28T17:50:05Z</time>
  <course>244.09</course>
  <speed>0.0</speed>
  <fix>3d</fix>
</trkpt>
<trkpt lat="40.0713749" lon="-105.229789">
  <ele>1583.0</ele>
  <time>2026-08-28T17:50:05Z</time>
  <course>0.0</course>
  <speed>0.0</speed>
  <fix>3d</fix>
</trkpt>
<trkpt lat="40.0713749" lon="-105.229789">
  <ele>1583.0</ele>
  <time>2026-08-28T17:50:05Z</time>
  <course>244.28</course>
  <speed>0.0</speed>
  <fix>3d</fix>
</trkpt>
<trkpt lat="40.0713749" lon="-105.229789">
  <ele>1583.0</ele>
  <time>2026-08-28T17:50:05Z</time>
  <course>0.0</course>
  <speed>0.0</speed>
  <fix>3d</fix>
</trkpt>
<trkpt lat="40.0713749" lon="-105.229789">
  <ele>1583.0</ele>
  <time>2026-08-28T17:50:05Z</time>
  <course>244.46</course>
  <speed>0.0</speed>
  <fix>3d</fix>
</trkpt>
<trkpt lat="40.0713749" lon="-105.229789">
  <ele>1583.0</ele>
  <time>2026-08-28T17:50:05Z</time>
  <course>0.0</course>
  <speed>0.0</speed>
  <fix>3d</fix>
</trkpt>
<trkpt lat="39.655741" lon="-104.1383097">
  <ele>1566.58</ele>
  <time>2026-08-28T17:50:08Z</time>
  <course>0.0</course>
  <speed>0.0</speed>
  <fix>3d</fix>
</trkpt>
<trkpt lat="40.0713749" lon="-105.229789">
  <ele>1583.0</ele>
  <time>2026-08-28T17:50:08Z</time>
  <course>0.0</course>
  <speed>0.0</speed>
  <fix>3d</fix>
</trkpt>
<trkpt lat="40.0713749" lon="-105.229789">
  <ele>1583.0</ele>
  <time>2026-08-28T17:50:08Z</time>
  <course>238.36</course>
  <speed>0.0</speed>
  <fix>3d</fix>
</trkpt>
<trkpt lat="40.0713749" lon="-105.229789">
  <ele>1583.0</ele>
  <time>2026-08-28T17:50:08Z</time>
  <course>0.0</course>
  <speed>0.0</speed>
  <fix>3d</fix>
</trkpt>
<trkpt lat="40.0713749" lon="-105.229789">
  <ele>1583.0</ele>
  <time>2026-08-28T17:50:08Z</time>
  <course>238.44</course>
  <speed>0.0</speed>
  <fix>3d</fix>
</trkpt>
<trkpt lat="40.0713749" lon="-105.229789">
  <ele>1583.0</ele>
  <time>2026-08-28T17:50:08Z</time>
  <course>0.0</course>
  <speed>0.0</speed>
  <fix>3d</fix>
</trkpt>
<trkpt lat="40.0713749" lon="-105.229789">
  <ele>1583.0</ele>
  <time>2026-08-28T17:50:08Z</time>
  <course>239.61</course>
  <speed>0.0</speed>
  <fix>3d</fix>
</trkpt>
<trkpt lat="40.0713749" lon="-105.229789">
  <ele>1583.0</ele>
  <time>2026-08-28T17:50:08Z</time>
  <course>0.0</course>
  <speed>0.0</speed>
  <fix>3d</fix>
</trkpt>
<trkpt lat="40.0713749" lon="-105.229789">
  <ele>1583.0</ele>
  <time>2026-08-28T17:50:08Z</time>
  <course>240.61</course>
  <speed>0.0</speed>
  <fix>3d</fix>
</trkpt>
<trkpt lat="40.0713749" lon="-105.229789">
  <ele>1583.0</ele>
  <time>2026-08-28T17:50:08Z</time>
  <course>0.0</course>
  <speed>0.0</speed>
  <fix>3d</fix>
</trkpt>
<trkpt lat="40.0713749" lon="-105.229789">
  <ele>1583.0</ele>
  <time>2026-08-28T17:50:08Z</time>
  <course>240.92</course>
  <speed>0.0</speed>
  <fix>3d</fix>
</trkpt>
<trkpt lat="40.0713749" lon="-105.229789">
  <ele>1583.0</ele>
  <time>2026-08-28T17:50:08Z</time>
  <course>0.0</course>
  <speed>0.0</speed>
  <fix>3d</fix>
</trkpt>
<trkpt lat="40.0713749" lon="-105.229789">
  <ele>1583.0</ele>
  <time>2026-08-28T17:50:08Z</time>
  <course>241.21</course>
  <speed>0.0</speed>
  <fix>3d</fix>
</trkpt>
<trkpt lat="40.0713749" lon="-105.229789">
  <ele>1583.0</ele>
  <time>2026-08-28T17:50:08Z</time>
  <course>0.0</course>
  <speed>0.0</speed>
  <fix>3d</fix>
</trkpt>
<trkpt lat="40.0713749" lon="-105.229789">
  <ele>1583.0</ele>
  <time>2026-08-28T17:50:08Z</time>
  <course>241.49</course>
  <speed>0.0</speed>
  <fix>3d</fix>
</trkpt>
<trkpt lat="40.0713749" lon="-105.229789">
  <ele>1583.0</ele>
  <time>2026-08-28T17:50:08Z</time>
  <course>0.0</course>
  <speed>0.0</speed>
  <fix>3d</fix>
</trkpt>
<trkpt lat="40.0713749" lon="-105.229789">
  <ele>1583.0</ele>
  <time>2026-08-28T17:50:08Z</time>
  <course>241.77</course>
  <speed>0.0</speed>
  <fix>3d</fix>
</trkpt>
<trkpt lat="40.0713749" lon="-105.229789">
  <ele>1583.0</ele>
  <time>2026-08-28T17:50:08Z</time>
  <course>0.0</course>
  <speed>0.0</speed>
  <fix>3d</fix>
</trkpt>
<trkpt lat="40.0713749" lon="-105.229789">
  <ele>1583.0</ele>
  <time>2026-08-28T17:50:08Z</time>
  <course>242.29</course>
  <speed>0.0</speed>
  <fix>3d</fix>
</trkpt>
<trkpt lat="40.0713749" lon="-105.229789">
  <ele>1583.0</ele>
  <time>2026-08-28T17:50:08Z</time>
  <course>0.0</course>
  <speed>0.0</speed>
  <fix>3d</fix>
</trkpt>
<trkpt lat="40.0713749" lon="-105.229789">
  <ele>1583.0</ele>
  <time>2026-08-28T17:50:08Z</time>
  <course>242.54</course>
  <speed>0.0</speed>
  <fix>3d</fix>
</trkpt>
<trkpt lat="40.0713749" lon="-105.229789">
  <ele>1583.0</ele>
  <time>2026-08-28T17:50:08Z</time>
  <course>0.0</course>
  <speed>0.0</speed>
  <fix>3d</fix>
</trkpt>
<trkpt lat="40.0713749" lon="-105.229789">
  <ele>1583.0</ele>
  <time>2026-08-28T17:50:08Z</time>
  <course>242.79</course>
  <speed>0.0</speed>
  <fix>3d</fix>
</trkpt>
<trkpt lat="40.0713749" lon="-105.229789">
  <ele>1583.0</ele>
  <time>2026-08-28T17:50:08Z</time>
  <course>0.0</course>
  <speed>0.0</speed>
  <fix>3d</fix>
</trkpt>
<trkpt lat="40.0713749" lon="-105.229789">
  <ele>1583.0</ele>
  <time>2026-08-28T17:50:08Z</time>
  <course>243.02</course>
  <speed>0.0</speed>
  <fix>3d</fix>
</trkpt>
<trkpt lat="40.0713749" lon="-105.229789">
  <ele>1583.0</ele>
  <time>2026-08-28T17:50:08Z</time>
  <course>0.0</course>
  <speed>0.0</speed>
  <fix>3d</fix>
</trkpt>
<trkpt lat="40.0713749" lon="-105.229789">
  <ele>1583.0</ele>
  <time>2026-08-28T17:50:08Z</time>
  <course>243.29</course>
  <speed>0.0</speed>
  <fix>3d</fix>
</trkpt>
<trkpt lat="40.0713749" lon="-105.229789">
  <ele>1583.0</ele>
  <time>2026-08-28T17:50:08Z</time>
  <course>0.0</course>
  <speed>0.0</speed>
  <fix>3d</fix>
</trkpt>
<trkpt lat="40.0713749" lon="-105.229789">
  <ele>1583.0</ele>
  <time>2026-08-28T17:50:08Z</time>
  <course>243.51</course>
  <speed>0.0</speed>
  <fix>3d</fix>
</trkpt>
<trkpt lat="40.0713749" lon="-105.229789">
  <ele>1583.0</ele>
  <time>2026-08-28T17:50:08Z</time>
  <course>0.0</course>
  <speed>0.0</speed>
  <fix>3d</fix>
</trkpt>
<trkpt lat="40.0713749" lon="-105.229789">
  <ele>1583.0</ele>
  <time>2026-08-28T17:50:08Z</time>
  <course>243.72</course>
  <speed>0.0</speed>
  <fix>3d</fix>
</trkpt>
<trkpt lat="40.0713749" lon="-105.229789">
  <ele>1583.0</ele>
  <time>2026-08-28T17:50:08Z</time>
  <course>0.0</course>
  <speed>0.0</speed>
  <fix>3d</fix>
</trkpt>
<trkpt lat="40.0713749" lon="-105.229789">
  <ele>1583.0</ele>
  <time>2026-08-28T17:50:08Z</time>
  <course>243.93</course>
  <speed>0.0</speed>
  <fix>3d</fix>
</trkpt>
<trkpt lat="40.0713749" lon="-105.229789">
  <ele>1583.0</ele>
  <time>2026-08-28T17:50:08Z</time>
  <course>0.0</course>
  <speed>0.0</speed>
  <fix>3d</fix>
</trkpt>
<trkpt lat="40.0713749" lon="-105.229789">
  <ele>1583.0</ele>
  <time>2026-08-28T17:50:08Z</time>
  <course>244.12</course>
  <speed>0.0</speed>
  <fix>3d</fix>
</trkpt>
<trkpt lat="40.0713749" lon="-105.229789">
  <ele>1583.0</ele>
  <time>2026-08-28T17:50:08Z</time>
  <course>0.0</course>
  <speed>0.0</speed>
  <fix>3d</fix>
</trkpt>
<trkpt lat="40.0713749" lon="-105.229789">
  <ele>1583.0</ele>
  <time>2026-08-28T17:50:08Z</time>
  <course>244.31</course>
  <speed>0.0</speed>
  <fix>3d</fix>
</trkpt>
<trkpt lat="40.0713749" lon="-105.229789">
  <ele>1583.0</ele>
  <time>2026-08-28T17:50:08Z</time>
  <course>0.0</course>
  <speed>0.0</speed>
  <fix>3d</fix>
</trkpt>
<trkpt lat="40.0713749" lon="-105.229789">
  <ele>1583.0</ele>
  <time>2026-08-28T17:50:08Z</time>
  <course>244.5</course>
  <speed>0.0</speed>
  <fix>3d</fix>
</trkpt>
<trkpt lat="40.0713749" lon="-105.229789">
  <ele>1583.0</ele>
  <time>2026-08-28T17:50:08Z</time>
  <course>0.0</course>
  <speed>0.0</speed>
  <fix>3d</fix>
</trkpt>
<trkpt lat="40.0713749" lon="-105.229789">
  <ele>1583.0</ele>
  <time>2026-08-28T17:50:08Z</time>
  <course>244.67</course>
  <speed>0.0</speed>
  <fix>3d</fix>
</trkpt>
<trkpt lat="40.0713749" lon="-105.229789">
  <ele>1583.0</ele>
  <time>2026-08-28T17:50:08Z</time>
  <course>0.0</course>
  <speed>0.0</speed>
  <fix>3d</fix>
</trkpt>
<trkpt lat="40.0713749" lon="-105.229789">
  <ele>1583.0</ele>
  <time>2026-08-28T17:50:08Z</time>
  <course>244.84</course>
  <speed>0.0</speed>
  <fix>3d</fix>
</trkpt>
<trkpt lat="40.0713749" lon="-105.229789">
  <ele>1583.0</ele>
  <time>2026-08-28T17:50:08Z</time>
  <course>0.0</course>
  <speed>0.0</speed>
  <fix>3d</fix>
</trkpt>
<trkpt lat="40.0713749" lon="-105.229789">
  <ele>1583.0</ele>
  <time>2026-08-28T17:50:08Z</time>
  <course>245.01</course>
  <speed>0.0</speed>
  <fix>3d</fix>
</trkpt>
<trkpt lat="40.0713749" lon="-105.229789">
  <ele>1583.0</ele>
  <time>2026-08-28T17:50:08Z</time>
  <course>0.0</course>
  <speed>0.0</speed>
  <fix>3d</fix>
</trkpt>
<trkpt lat="40.0713749" lon="-105.229789">
  <ele>1583.0</ele>
  <time>2026-08-28T17:50:08Z</time>
  <course>245.16</course>
  <speed>0.0</speed>
  <fix>3d</fix>
</trkpt>
<trkpt lat="40.0713749" lon="-105.229789">
  <ele>1583.0</ele>
  <time>2026-08-28T17:50:08Z</time>
  <course>0.0</course>
  <speed>0.0</speed>
  <fix>3d</fix>
</trkpt>
<trkpt lat="40.0713749" lon="-105.229789">
  <ele>1583.0</ele>
  <time>2026-08-28T17:50:08Z</time>
  <course>245.29</course>
  <speed>0.0</speed>
  <fix>3d</fix>
</trkpt>
<trkpt lat="40.0713749" lon="-105.229789">
  <ele>1583.0</ele>
  <time>2026-08-28T17:50:08Z</time>
  <course>0.0</course>
  <speed>0.0</speed>
  <fix>3d</fix>
</trkpt>
<trkpt lat="40.0713749" lon="-105.229789">
  <ele>1583.0</ele>
  <time>2026-08-28T17:50:08Z</time>
  <course>245.43</course>
  <speed>0.0</speed>
  <fix>3d</fix>
</trkpt>
<trkpt lat="40.0713749" lon="-105.229789">
  <ele>1583.0</ele>
  <time>2026-08-28T17:50:08Z</time>
  <course>0.0</course>
  <speed>0.0</speed>
  <fix>3d</fix>
</trkpt>
<trkpt lat="40.0713749" lon="-105.229789">
  <ele>1583.0</ele>
  <time>2026-08-28T17:50:08Z</time>
  <course>245.57</course>
  <speed>0.0</speed>
  <fix>3d</fix>
</trkpt>
<trkpt lat="40.0713749" lon="-105.229789">
  <ele>1583.0</ele>
  <time>2026-08-28T17:50:08Z</time>
  <course>0.0</course>
  <speed>0.0</speed>
  <fix>3d</fix>
</trkpt>
<trkpt lat="40.0713749" lon="-105.229789">
  <ele>1583.0</ele>
  <time>2026-08-28T17:50:08Z</time>
  <course>245.71</course>
  <speed>0.0</speed>
  <fix>3d</fix>
</trkpt>
<trkpt lat="40.0713749" lon="-105.229789">
  <ele>1583.0</ele>
  <time>2026-08-28T17:50:08Z</time>
  <course>0.0</course>
  <speed>0.0</speed>
  <fix>3d</fix>
</trkpt>
<trkpt lat="40.0713749" lon="-105.229789">
  <ele>1583.0</ele>
  <time>2026-08-28T17:50:08Z</time>
  <course>245.84</course>
  <speed>0.0</speed>
  <fix>3d</fix>
</trkpt>
<trkpt lat="40.0713749" lon="-105.229789">
  <ele>1583.0</ele>
  <time>2026-08-28T17:50:08Z</time>
  <course>0.0</course>
  <speed>0.0</speed>
  <fix>3d</fix>
</trkpt>
<trkpt lat="40.0713749" lon="-105.229789">
  <ele>1583.0</ele>
  <time>2026-08-28T17:50:08Z</time>
  <course>245.96</course>
  <speed>0.0</speed>
  <fix>3d</fix>
</trkpt>
<trkpt lat="40.0713749" lon="-105.229789">
  <ele>1583.0</ele>
  <time>2026-08-28T17:50:08Z</time>
  <course>0.0</course>
  <speed>0.0</speed>
  <fix>3d</fix>
</trkpt>
<trkpt lat="39.655741" lon="-104.1383097">
  <ele>1566.58</ele>
  <time>2026-08-28T17:50:08Z</time>
  <course>0.0</course>
  <speed>0.0</speed>
  <fix>3d</fix>
</trkpt>
<trkpt lat="40.0713749" lon="-105.229789">
  <ele>1583.0</ele>
  <time>2026-08-28T17:50:08Z</time>
  <course>0.0</course>
  <speed>0.0</speed>
  <fix>3d</fix>
</trkpt>
<trkpt lat="40.0713749" lon="-105.229789">
  <ele>1583.0</ele>
  <time>2026-08-28T17:50:08Z</time>
  <course>238.36</course>
  <speed>0.0</speed>
  <fix>3d</fix>
</trkpt>
<trkpt lat="40.0713749" lon="-105.229789">
  <ele>1583.0</ele>
  <time>2026-08-28T17:50:08Z</time>
  <course>0.0</course>
  <speed>0.0</speed>
  <fix>3d</fix>
</trkpt>
<trkpt lat="40.0713749" lon="-105.229789">
  <ele>1583.0</ele>
  <time>2026-08-28T17:50:08Z</time>
  <course>238.44</course>
  <speed>0.0</speed>
  <fix>3d</fix>
</trkpt>
<trkpt lat="40.0713749" lon="-105.229789">
  <ele>1583.0</ele>
  <time>2026-08-28T17:50:08Z</time>
  <course>0.0</course>
  <speed>0.0</speed>
  <fix>3d</fix>
</trkpt>
<trkpt lat="40.0713749" lon="-105.229789">
  <ele>1583.0</ele>
  <time>2026-08-28T17:50:08Z</time>
  <course>238.64</course>
  <speed>0.0</speed>
  <fix>3d</fix>
</trkpt>
<trkpt lat="40.0713749" lon="-105.229789">
  <ele>1583.0</ele>
  <time>2026-08-28T17:50:08Z</time>
  <course>0.0</course>
  <speed>0.0</speed>
  <fix>3d</fix>
</trkpt>
<trkpt lat="40.0713749" lon="-105.229789">
  <ele>1583.0</ele>
  <time>2026-08-28T17:50:08Z</time>
  <course>238.93</course>
  <speed>0.0</speed>
  <fix>3d</fix>
</trkpt>
<trkpt lat="40.0713749" lon="-105.229789">
  <ele>1583.0</ele>
  <time>2026-08-28T17:50:08Z</time>
  <course>0.0</course>
  <speed>0.0</speed>
  <fix>3d</fix>
</trkpt>
<trkpt lat="40.0713749" lon="-105.229789">
  <ele>1583.0</ele>
  <time>2026-08-28T17:50:08Z</time>
  <course>239.26</course>
  <speed>0.0</speed>
  <fix>3d</fix>
</trkpt>
<trkpt lat="40.0713749" lon="-105.229789">
  <ele>1583.0</ele>
  <time>2026-08-28T17:50:08Z</time>
  <course>0.0</course>
  <speed>0.0</speed>
  <fix>3d</fix>
</trkpt>
<trkpt lat="40.0713749" lon="-105.229789">
  <ele>1583.0</ele>
  <time>2026-08-28T17:50:08Z</time>
  <course>239.61</course>
  <speed>0.0</speed>
  <fix>3d</fix>
</trkpt>
<trkpt lat="40.0713749" lon="-105.229789">
  <ele>1583.0</ele>
  <time>2026-08-28T17:50:08Z</time>
  <course>0.0</course>
  <speed>0.0</speed>
  <fix>3d</fix>
</trkpt>
<trkpt lat="40.0713749" lon="-105.229789">
  <ele>1583.0</ele>
  <time>2026-08-28T17:50:08Z</time>
  <course>239.96</course>
  <speed>0.0</speed>
  <fix>3d</fix>
</trkpt>
<trkpt lat="40.0713749" lon="-105.229789">
  <ele>1583.0</ele>
  <time>2026-08-28T17:50:08Z</time>
  <course>0.0</course>
  <speed>0.0</speed>
  <fix>3d</fix>
</trkpt>
<trkpt lat="40.0713749" lon="-105.229789">
  <ele>1583.0</ele>
  <time>2026-08-28T17:50:08Z</time>
  <course>240.29</course>
  <speed>0.0</speed>
  <fix>3d</fix>
</trkpt>
<trkpt lat="40.0713749" lon="-105.229789">
  <ele>1583.0</ele>
  <time>2026-08-28T17:50:08Z</time>
  <course>0.0</course>
  <speed>0.0</speed>
  <fix>3d</fix>
</trkpt>
<trkpt lat="40.0713749" lon="-105.229789">
  <ele>1583.0</ele>
  <time>2026-08-28T17:50:08Z</time>
  <course>240.61</course>
  <speed>0.0</speed>
  <fix>3d</fix>
</trkpt>
<trkpt lat="40.0713749" lon="-105.229789">
  <ele>1583.0</ele>
  <time>2026-08-28T17:50:08Z</time>
  <course>0.0</course>
  <speed>0.0</speed>
  <fix>3d</fix>
</trkpt>
<trkpt lat="40.0713749" lon="-105.229789">
  <ele>1583.0</ele>
  <time>2026-08-28T17:50:08Z</time>
  <course>240.92</course>
  <speed>0.0</speed>
  <fix>3d</fix>
</trkpt>
<trkpt lat="40.0713749" lon="-105.229789">
  <ele>1583.0</ele>
  <time>2026-08-28T17:50:08Z</time>
  <course>0.0</course>
  <speed>0.0</speed>
  <fix>3d</fix>
</trkpt>
<trkpt lat="40.0713749" lon="-105.229789">
  <ele>1583.0</ele>
  <time>2026-08-28T17:50:08Z</time>
  <course>241.21</course>
  <speed>0.0</speed>
  <fix>3d</fix>
</trkpt>
<trkpt lat="40.0713749" lon="-105.229789">
  <ele>1583.0</ele>
  <time>2026-08-28T17:50:08Z</time>
  <course>0.0</course>
  <speed>0.0</speed>
  <fix>3d</fix>
</trkpt>
<trkpt lat="40.0713749" lon="-105.229789">
  <ele>1583.0</ele>
  <time>2026-08-28T17:50:08Z</time>
  <course>241.49</course>
  <speed>0.0</speed>
  <fix>3d</fix>
</trkpt>
<trkpt lat="40.0713749" lon="-105.229789">
  <ele>1583.0</ele>
  <time>2026-08-28T17:50:08Z</time>
  <course>0.0</course>
  <speed>0.0</speed>
  <fix>3d</fix>
</trkpt>
<trkpt lat="40.0713749" lon="-105.229789">
  <ele>1583.0</ele>
  <time>2026-08-28T17:50:08Z</time>
  <course>241.77</course>
  <speed>0.0</speed>
  <fix>3d</fix>
</trkpt>
<trkpt lat="40.0713749" lon="-105.229789">
  <ele>1583.0</ele>
  <time>2026-08-28T17:50:08Z</time>
  <course>0.0</course>
  <speed>0.0</speed>
  <fix>3d</fix>
</trkpt>
<trkpt lat="40.0713749" lon="-105.229789">
  <ele>1583.0</ele>
  <time>2026-08-28T17:50:08Z</time>
  <course>242.03</course>
  <speed>0.0</speed>
  <fix>3d</fix>
</trkpt>
<trkpt lat="40.0713749" lon="-105.229789">
  <ele>1583.0</ele>
  <time>2026-08-28T17:50:08Z</time>
  <course>0.0</course>
  <speed>0.0</speed>
  <fix>3d</fix>
</trkpt>
<trkpt lat="40.0713749" lon="-105.229789">
  <ele>1583.0</ele>
  <time>2026-08-28T17:50:08Z</time>
  <course>242.29</course>
  <speed>0.0</speed>
  <fix>3d</fix>
</trkpt>
<trkpt lat="40.0713749" lon="-105.229789">
  <ele>1583.0</ele>
  <time>2026-08-28T17:50:08Z</time>
  <course>0.0</course>
  <speed>0.0</speed>
  <fix>3d</fix>
</trkpt>
<trkpt lat="40.0713749" lon="-105.229789">
  <ele>1583.0</ele>
  <time>2026-08-28T17:50:08Z</time>
  <course>242.54</course>
  <speed>0.0</speed>
  <fix>3d</fix>
</trkpt>
<trkpt lat="40.0713749" lon="-105.229789">
  <ele>1583.0</ele>
  <time>2026-08-28T17:50:08Z</time>
  <course>0.0</course>
  <speed>0.0</speed>
  <fix>3d</fix>
</trkpt>
<trkpt lat="40.0713749" lon="-105.229789">
  <ele>1583.0</ele>
  <time>2026-08-28T17:50:08Z</time>
  <course>242.79</course>
  <speed>0.0</speed>
  <fix>3d</fix>
</trkpt>
<trkpt lat="40.0713749" lon="-105.229789">
  <ele>1583.0</ele>
  <time>2026-08-28T17:50:08Z</time>
  <course>0.0</course>
  <speed>0.0</speed>
  <fix>3d</fix>
</trkpt>
<trkpt lat="40.0713749" lon="-105.229789">
  <ele>1583.0</ele>
  <time>2026-08-28T17:50:08Z</time>
  <course>243.02</course>
  <speed>0.0</speed>
  <fix>3d</fix>
</trkpt>
<trkpt lat="40.0713749" lon="-105.229789">
  <ele>1583.0</ele>
  <time>2026-08-28T17:50:08Z</time>
  <course>0.0</course>
  <speed>0.0</speed>
  <fix>3d</fix>
</trkpt>
<trkpt lat="40.0713749" lon="-105.229789">
  <ele>1583.0</ele>
  <time>2026-08-28T17:50:08Z</time>
  <course>243.25</course>
  <speed>0.0</speed>
  <fix>3d</fix>
</trkpt>
<trkpt lat="40.0713749" lon="-105.229789">
  <ele>1583.0</ele>
  <time>2026-08-28T17:50:08Z</time>
  <course>0.0</course>
  <speed>0.0</speed>
  <fix>3d</fix>
</trkpt>
<trkpt lat="40.0713749" lon="-105.229789">
  <ele>1583.0</ele>
  <time>2026-08-28T17:50:08Z</time>
  <course>243.47</course>
  <speed>0.0</speed>
  <fix>3d</fix>
</trkpt>
<trkpt lat="40.0713749" lon="-105.229789">
  <ele>1583.0</ele>
  <time>2026-08-28T17:50:08Z</time>
  <course>0.0</course>
  <speed>0.0</speed>
  <fix>3d</fix>
</trkpt>
<trkpt lat="40.0713749" lon="-105.229789">
  <ele>1583.0</ele>
  <time>2026-08-28T17:50:08Z</time>
  <course>243.68</course>
  <speed>0.0</speed>
  <fix>3d</fix>
</trkpt>
<trkpt lat="40.0713749" lon="-105.229789">
  <ele>1583.0</ele>
  <time>2026-08-28T17:50:08Z</time>
  <course>0.0</course>
  <speed>0.0</speed>
  <fix>3d</fix>
</trkpt>
<trkpt lat="40.0713749" lon="-105.229789">
  <ele>1583.0</ele>
  <time>2026-08-28T17:50:08Z</time>
  <course>243.89</course>
  <speed>0.0</speed>
  <fix>3d</fix>
</trkpt>
<trkpt lat="40.0713749" lon="-105.229789">
  <ele>1583.0</ele>
  <time>2026-08-28T17:50:08Z</time>
  <course>0.0</course>
  <speed>0.0</speed>
  <fix>3d</fix>
</trkpt>
<trkpt lat="40.0713749" lon="-105.229789">
  <ele>1583.0</ele>
  <time>2026-08-28T17:50:08Z</time>
  <course>244.09</course>
  <speed>0.0</speed>
  <fix>3d</fix>
</trkpt>
<trkpt lat="40.0713749" lon="-105.229789">
  <ele>1583.0</ele>
  <time>2026-08-28T17:50:08Z</time>
  <course>0.0</course>
  <speed>0.0</speed>
  <fix>3d</fix>
</trkpt>
<trkpt lat="40.0713749" lon="-105.229789">
  <ele>1583.0</ele>
  <time>2026-08-28T17:50:08Z</time>
  <course>244.28</course>
  <speed>0.0</speed>
  <fix>3d</fix>
</trkpt>
<trkpt lat="40.0713749" lon="-105.229789">
  <ele>1583.0</ele>
  <time>2026-08-28T17:50:08Z</time>
  <course>0.0</course>
  <speed>0.0</speed>
  <fix>3d</fix>
</trkpt>
<trkpt lat="40.0713749" lon="-105.229789">
  <ele>1583.0</ele>
  <time>2026-08-28T17:50:08Z</time>
  <course>244.46</course>
  <speed>0.0</speed>
  <fix>3d</fix>
</trkpt>
<trkpt lat="40.0713749" lon="-105.229789">
  <ele>1583.0</ele>
  <time>2026-08-28T17:50:08Z</time>
  <course>0.0</course>
  <speed>0.0</speed>
  <fix>3d</fix>
</trkpt>
<trkpt lat="40.0713749" lon="-105.229789">
  <ele>1583.0</ele>
  <time>2026-08-28T17:50:08Z</time>
  <course>244.64</course>
  <speed>0.0</speed>
  <fix>3d</fix>
</trkpt>
<trkpt lat="40.0713749" lon="-105.229789">
  <ele>1583.0</ele>
  <time>2026-08-28T17:50:08Z</time>
  <course>0.0</course>
  <speed>0.0</speed>
  <fix>3d</fix>
</trkpt>
<trkpt lat="40.0713749" lon="-105.229789">
  <ele>1583.0</ele>
  <time>2026-08-28T17:50:08Z</time>
  <course>244.81</course>
  <speed>0.0</speed>
  <fix>3d</fix>
</trkpt>
<trkpt lat="40.0713749" lon="-105.229789">
  <ele>1583.0</ele>
  <time>2026-08-28T17:50:08Z</time>
  <course>0.0</course>
  <speed>0.0</speed>
  <fix>3d</fix>
</trkpt>
<trkpt lat="40.0713749" lon="-105.229789">
  <ele>1583.0</ele>
  <time>2026-08-28T17:50:08Z</time>
  <course>244.97</course>
  <speed>0.0</speed>
  <fix>3d</fix>
</trkpt>
<trkpt lat="40.0713749" lon="-105.229789">
  <ele>1583.0</ele>
  <time>2026-08-28T17:50:08Z</time>
  <course>0.0</course>
  <speed>0.0</speed>
  <fix>3d</fix>
</trkpt>
<trkpt lat="40.0713749" lon="-105.229789">
  <ele>1583.0</ele>
  <time>2026-08-28T17:50:08Z</time>
  <course>245.13</course>
  <speed>0.0</speed>
  <fix>3d</fix>
</trkpt>
<trkpt lat="40.0713749" lon="-105.229789">
  <ele>1583.0</ele>
  <time>2026-08-28T17:50:08Z</time>
  <course>0.0</course>
  <speed>0.0</speed>
  <fix>3d</fix>
</trkpt>
<trkpt lat="40.0713749" lon="-105.229789">
  <ele>1583.0</ele>
  <time>2026-08-28T17:50:08Z</time>
  <course>245.29</course>
  <speed>0.0</speed>
  <fix>3d</fix>
</trkpt>
<trkpt lat="40.0713749" lon="-105.229789">
  <ele>1583.0</ele>
  <time>2026-08-28T17:50:08Z</time>
  <course>0.0</course>
  <speed>0.0</speed>
  <fix>3d</fix>
</trkpt>
<trkpt lat="40.0713749" lon="-105.229789">
  <ele>1583.0</ele>
  <time>2026-08-28T17:50:08Z</time>
  <course>245.43</course>
  <speed>0.0</speed>
  <fix>3d</fix>
</trkpt>
<trkpt lat="40.0713749" lon="-105.229789">
  <ele>1583.0</ele>
  <time>2026-08-28T17:50:08Z</time>
  <course>0.0</course>
  <speed>0.0</speed>
  <fix>3d</fix>
</trkpt>
<trkpt lat="40.0713749" lon="-105.229789">
  <ele>1583.0</ele>
  <time>2026-08-28T17:50:08Z</time>
  <course>245.57</course>
  <speed>0.0</speed>
  <fix>3d</fix>
</trkpt>
<trkpt lat="40.0713749" lon="-105.229789">
  <ele>1583.0</ele>
  <time>2026-08-28T17:50:08Z</time>
  <course>0.0</course>
  <speed>0.0</speed>
  <fix>3d</fix>
</trkpt>
<trkpt lat="40.0713749" lon="-105.229789">
  <ele>1583.0</ele>
  <time>2026-08-28T17:50:08Z</time>
  <course>245.71</course>
  <speed>0.0</speed>
  <fix>3d</fix>
</trkpt>
<trkpt lat="40.0713749" lon="-105.229789">
  <ele>1583.0</ele>
  <time>2026-08-28T17:50:08Z</time>
  <course>0.0</course>
  <speed>0.0</speed>
  <fix>3d</fix>
</trkpt>
<trkpt lat="40.0713749" lon="-105.229789">
  <ele>1583.0</ele>
  <time>2026-08-28T17:50:08Z</time>
  <course>245.84</course>
  <speed>0.0</speed>
  <fix>3d</fix>
</trkpt>
<trkpt lat="40.0713749" lon="-105.229789">
  <ele>1583.0</ele>
  <time>2026-08-28T17:50:08Z</time>
  <course>0.0</course>
  <speed>0.0</speed>
  <fix>3d</fix>
</trkpt>
<trkpt lat="40.0713749" lon="-105.229789">
  <ele>1583.0</ele>
  <time>2026-08-28T17:50:08Z</time>
  <course>245.96</course>
  <speed>0.0</speed>
  <fix>3d</fix>
</trkpt>
<trkpt lat="40.0713749" lon="-105.229789">
  <ele>1583.0</ele>
  <time>2026-08-28T17:50:08Z</time>
  <course>0.0</course>
  <speed>0.0</speed>
  <fix>3d</fix>
</trkpt>
<trkpt lat="40.0713749" lon="-105.229789">
  <ele>1583.0</ele>
  <time>2026-08-28T17:50:08Z</time>
  <course>246.08</course>
  <speed>0.0</speed>
  <fix>3d</fix>
</trkpt>
<trkpt lat="40.0713749" lon="-105.229789">
  <ele>1583.0</ele>
  <time>2026-08-28T17:50:08Z</time>
  <course>0.0</course>
  <speed>0.0</speed>
  <fix>3d</fix>
</trkpt>
<trkpt lat="40.0713749" lon="-105.229789">
  <ele>1583.0</ele>
  <time>2026-08-28T17:50:08Z</time>
  <course>246.19</course>
  <speed>0.0</speed>
  <fix>3d</fix>
</trkpt>
<trkpt lat="40.0713749" lon="-105.229789">
  <ele>1583.0</ele>
  <time>2026-08-28T17:50:08Z</time>
  <course>0.0</course>
  <speed>0.0</speed>
  <fix>3d</fix>
</trkpt>
<trkpt lat="40.0713749" lon="-105.229789">
  <ele>1583.0</ele>
  <time>2026-08-28T17:50:08Z</time>
  <course>246.3</course>
  <speed>0.0</speed>
  <fix>3d</fix>
</trkpt>
<trkpt lat="40.0713749" lon="-105.229789">
  <ele>1583.0</ele>
  <time>2026-08-28T17:50:08Z</time>
  <course>0.0</course>
  <speed>0.0</speed>
  <fix>3d</fix>
</trkpt>
<trkpt lat="40.0713749" lon="-105.229789">
  <ele>1583.0</ele>
  <time>2026-08-28T17:50:08Z</time>
  <course>246.41</course>
  <speed>0.0</speed>
  <fix>3d</fix>
</trkpt>
<trkpt lat="40.0713749" lon="-105.229789">
  <ele>1583.0</ele>
  <time>2026-08-28T17:50:08Z</time>
  <course>0.0</course>
  <speed>0.0</speed>
  <fix>3d</fix>
</trkpt>
<trkpt lat="40.0713749" lon="-105.229789">
  <ele>1583.0</ele>
  <time>2026-08-28T17:50:09Z</time>
  <course>246.51</course>
  <speed>0.0</speed>
  <fix>3d</fix>
</trkpt>
<trkpt lat="40.0713749" lon="-105.229789">
  <ele>1583.0</ele>
  <time>2026-08-28T17:50:09Z</time>
  <course>0.0</course>
  <speed>0.0</speed>
  <fix>3d</fix>
</trkpt>
<trkpt lat="40.0713749" lon="-105.229789">
  <ele>1583.0</ele>
  <time>2026-08-28T17:50:09Z</time>
  <course>246.6</course>
  <speed>0.0</speed>
  <fix>3d</fix>
</trkpt>
<trkpt lat="40.0713749" lon="-105.229789">
  <ele>1583.0</ele>
  <time>2026-08-28T17:50:09Z</time>
  <course>0.0</course>
  <speed>0.0</speed>
  <fix>3d</fix>
</trkpt>
<trkpt lat="40.0713749" lon="-105.229789">
  <ele>1583.0</ele>
  <time>2026-08-28T17:50:09Z</time>
  <course>246.7</course>
  <speed>0.0</speed>
  <fix>3d</fix>
</trkpt>
<trkpt lat="40.0713749" lon="-105.229789">
  <ele>1583.0</ele>
  <time>2026-08-28T17:50:09Z</time>
  <course>0.0</course>
  <speed>0.0</speed>
  <fix>3d</fix>
</trkpt>
<trkpt lat="40.0713749" lon="-105.229789">
  <ele>1583.0</ele>
  <time>2026-08-28T17:50:09Z</time>
  <course>246.78</course>
  <speed>0.0</speed>
  <fix>3d</fix>
</trkpt>
<trkpt lat="40.0713749" lon="-105.229789">
  <ele>1583.0</ele>
  <time>2026-08-28T17:50:09Z</time>
  <course>0.0</course>
  <speed>0.0</speed>
  <fix>3d</fix>
</trkpt>
<trkpt lat="40.0713749" lon="-105.229789">
  <ele>1583.0</ele>
  <time>2026-08-28T17:50:09Z</time>
  <course>246.87</course>
  <speed>0.0</speed>
  <fix>3d</fix>
</trkpt>
<trkpt lat="40.0713749" lon="-105.229789">
  <ele>1583.0</ele>
  <time>2026-08-28T17:50:09Z</time>
  <course>0.0</course>
  <speed>0.0</speed>
  <fix>3d</fix>
</trkpt>
<trkpt lat="40.0713749" lon="-105.229789">
  <ele>1583.0</ele>
  <time>2026-08-28T17:50:09Z</time>
  <course>246.95</course>
  <speed>0.0</speed>
  <fix>3d</fix>
</trkpt>
<trkpt lat="40.0713749" lon="-105.229789">
  <ele>1583.0</ele>
  <time>2026-08-28T17:50:09Z</time>
  <course>0.0</course>
  <speed>0.0</speed>
  <fix>3d</fix>
</trkpt>
<trkpt lat="40.0713749" lon="-105.229789">
  <ele>1583.0</ele>
  <time>2026-08-28T17:50:09Z</time>
  <course>247.02</course>
  <speed>0.0</speed>
  <fix>3d</fix>
</trkpt>
<trkpt lat="40.0713749" lon="-105.229789">
  <ele>1583.0</ele>
  <time>2026-08-28T17:50:09Z</time>
  <course>0.0</course>
  <speed>0.0</speed>
  <fix>3d</fix>
</trkpt>
<trkpt lat="40.0713749" lon="-105.229789">
  <ele>1583.0</ele>
  <time>2026-08-28T17:50:09Z</time>
  <course>247.1</course>
  <speed>0.0</speed>
  <fix>3d</fix>
</trkpt>
<trkpt lat="40.0713749" lon="-105.229789">
  <ele>1583.0</ele>
  <time>2026-08-28T17:50:09Z</time>
  <course>0.0</course>
  <speed>0.0</speed>
  <fix>3d</fix>
</trkpt>
<trkpt lat="40.0713749" lon="-105.229789">
  <ele>1583.0</ele>
  <time>2026-08-28T17:50:09Z</time>
  <course>247.17</course>
  <speed>0.0</speed>
  <fix>3d</fix>
</trkpt>
<trkpt lat="40.0713749" lon="-105.229789">
  <ele>1583.0</ele>
  <time>2026-08-28T17:50:09Z</time>
  <course>0.0</course>
  <speed>0.0</speed>
  <fix>3d</fix>
</trkpt>
<trkpt lat="40.0713749" lon="-105.229789">
  <ele>1583.0</ele>
  <time>2026-08-28T17:50:09Z</time>
  <course>247.24</course>
  <speed>0.0</speed>
  <fix>3d</fix>
</trkpt>
<trkpt lat="40.0713749" lon="-105.229789">
  <ele>1583.0</ele>
  <time>2026-08-28T17:50:09Z</time>
  <course>0.0</course>
  <speed>0.0</speed>
  <fix>3d</fix>
</trkpt>
<trkpt lat="40.0713749" lon="-105.229789">
  <ele>1583.0</ele>
  <time>2026-08-28T17:50:09Z</time>
  <course>247.3</course>
  <speed>0.0</speed>
  <fix>3d</fix>
</trkpt>
<trkpt lat="40.0713749" lon="-105.229789">
  <ele>1583.0</ele>
  <time>2026-08-28T17:50:09Z</time>
  <course>0.0</course>
  <speed>0.0</speed>
  <fix>3d</fix>
</trkpt>
<trkpt lat="40.0713749" lon="-105.229789">
  <ele>1583.0</ele>
  <time>2026-08-28T17:50:09Z</time>
  <course>247.36</course>
  <speed>0.0</speed>
  <fix>3d</fix>
</trkpt>
<trkpt lat="40.0713749" lon="-105.229789">
  <ele>1583.0</ele>
  <time>2026-08-28T17:50:09Z</time>
  <course>0.0</course>
  <speed>0.0</speed>
  <fix>3d</fix>
</trkpt>
<trkpt lat="40.0713749" lon="-105.229789">
  <ele>1583.0</ele>
  <time>2026-08-28T17:50:09Z</time>
  <course>247.42</course>
  <speed>0.0</speed>
  <fix>3d</fix>
</trkpt>
<trkpt lat="40.0713749" lon="-105.229789">
  <ele>1583.0</ele>
  <time>2026-08-28T17:50:09Z</time>
  <course>0.0</course>
  <speed>0.0</speed>
  <fix>3d</fix>
</trkpt>
<trkpt lat="40.0713749" lon="-105.229789">
  <ele>1583.0</ele>
  <time>2026-08-28T17:50:09Z</time>
  <course>247.47</course>
  <speed>0.0</speed>
  <fix>3d</fix>
</trkpt>
<trkpt lat="40.0713749" lon="-105.229789">
  <ele>1583.0</ele>
  <time>2026-08-28T17:50:09Z</time>
  <course>0.0</course>
  <speed>0.0</speed>
  <fix>3d</fix>
</trkpt>
<trkpt lat="40.0713749" lon="-105.229789">
  <ele>1583.0</ele>
  <time>2026-08-28T17:50:09Z</time>
  <course>247.53</course>
  <speed>0.0</speed>
  <fix>3d</fix>
</trkpt>
<trkpt lat="40.0713749" lon="-105.229789">
  <ele>1583.0</ele>
  <time>2026-08-28T17:50:09Z</time>
  <course>0.0</course>
  <speed>0.0</speed>
  <fix>3d</fix>
</trkpt>
<trkpt lat="40.0713749" lon="-105.229789">
  <ele>1583.0</ele>
  <time>2026-08-28T17:50:09Z</time>
  <course>247.58</course>
  <speed>0.0</speed>
  <fix>3d</fix>
</trkpt>
<trkpt lat="40.0713749" lon="-105.229789">
  <ele>1583.0</ele>
  <time>2026-08-28T17:50:09Z</time>
  <course>0.0</course>
  <speed>0.0</speed>
  <fix>3d</fix>
</trkpt>
<trkpt lat="40.0713749" lon="-105.229789">
  <ele>1583.0</ele>
  <time>2026-08-28T17:50:09Z</time>
  <course>247.63</course>
  <speed>0.0</speed>
  <fix>3d</fix>
</trkpt>
<trkpt lat="40.0713749" lon="-105.229789">
  <ele>1583.0</ele>
  <time>2026-08-28T17:50:09Z</time>
  <course>0.0</course>
  <speed>0.0</speed>
  <fix>3d</fix>
</trkpt>
<trkpt lat="40.0713749" lon="-105.229789">
  <ele>1583.0</ele>
  <time>2026-08-28T17:50:09Z</time>
  <course>247.67</course>
  <speed>0.0</speed>
  <fix>3d</fix>
</trkpt>
<trkpt lat="40.0713749" lon="-105.229789">
  <ele>1583.0</ele>
  <time>2026-08-28T17:50:09Z</time>
  <course>0.0</course>
  <speed>0.0</speed>
  <fix>3d</fix>
</trkpt>
<trkpt lat="40.0713749" lon="-105.229789">
  <ele>1583.0</ele>
  <time>2026-08-28T17:50:09Z</time>
  <course>247.72</course>
  <speed>0.0</speed>
  <fix>3d</fix>
</trkpt>
<trkpt lat="40.0713749" lon="-105.229789">
  <ele>1583.0</ele>
  <time>2026-08-28T17:50:09Z</time>
  <course>0.0</course>
  <speed>0.0</speed>
  <fix>3d</fix>
</trkpt>
<trkpt lat="40.0713749" lon="-105.229789">
  <ele>1583.0</ele>
  <time>2026-08-28T17:50:09Z</time>
  <course>247.76</course>
  <speed>0.0</speed>
  <fix>3d</fix>
</trkpt>
<trkpt lat="40.0713749" lon="-105.229789">
  <ele>1583.0</ele>
  <time>2026-08-28T17:50:09Z</time>
  <course>0.0</course>
  <speed>0.0</speed>
  <fix>3d</fix>
</trkpt>
<trkpt lat="40.0713749" lon="-105.229789">
  <ele>1583.0</ele>
  <time>2026-08-28T17:50:09Z</time>
  <course>247.8</course>
  <speed>0.0</speed>
  <fix>3d</fix>
</trkpt>
<trkpt lat="40.0713749" lon="-105.229789">
  <ele>1583.0</ele>
  <time>2026-08-28T17:50:09Z</time>
  <course>0.0</course>
  <speed>0.0</speed>
  <fix>3d</fix>
</trkpt>
<trkpt lat="40.0713749" lon="-105.229789">
  <ele>1583.0</ele>
  <time>2026-08-28T17:50:09Z</time>
  <course>247.83</course>
  <speed>0.0</speed>
  <fix>3d</fix>
</trkpt>
<trkpt lat="40.0713749" lon="-105.229789">
  <ele>1583.0</ele>
  <time>2026-08-28T17:50:09Z</time>
  <course>0.0</course>
  <speed>0.0</speed>
  <fix>3d</fix>
</trkpt>
<trkpt lat="40.0713749" lon="-105.229789">
  <ele>1583.0</ele>
  <time>2026-08-28T17:50:09Z</time>
  <course>247.87</course>
  <speed>0.0</speed>
  <fix>3d</fix>
</trkpt>
<trkpt lat="40.0713749" lon="-105.229789">
  <ele>1583.0</ele>
  <time>2026-08-28T17:50:09Z</time>
  <course>0.0</course>
  <speed>0.0</speed>
  <fix>3d</fix>
</trkpt>
<trkpt lat="40.0713749" lon="-105.229789">
  <ele>1583.0</ele>
  <time>2026-08-28T17:50:09Z</time>
  <course>247.9</course>
  <speed>0.0</speed>
  <fix>3d</fix>
</trkpt>
<trkpt lat="40.0713749" lon="-105.229789">
  <ele>1583.0</ele>
  <time>2026-08-28T17:50:09Z</time>
  <course>0.0</course>
  <speed>0.0</speed>
  <fix>3d</fix>
</trkpt>
<trkpt lat="40.0713749" lon="-105.229789">
  <ele>1583.0</ele>
  <time>2026-08-28T17:50:09Z</time>
  <course>247.94</course>
  <speed>0.0</speed>
  <fix>3d</fix>
</trkpt>
<trkpt lat="40.0713749" lon="-105.229789">
  <ele>1583.0</ele>
  <time>2026-08-28T17:50:09Z</time>
  <course>0.0</course>
  <speed>0.0</speed>
  <fix>3d</fix>
</trkpt>
<trkpt lat="40.0713749" lon="-105.229789">
  <ele>1583.0</ele>
  <time>2026-08-28T17:50:09Z</time>
  <course>247.97</course>
  <speed>0.0</speed>
  <fix>3d</fix>
</trkpt>
<trkpt lat="40.0713749" lon="-105.229789">
  <ele>1583.0</ele>
  <time>2026-08-28T17:50:09Z</time>
  <course>0.0</course>
  <speed>0.0</speed>
  <fix>3d</fix>
</trkpt>
<trkpt lat="40.0713749" lon="-105.229789">
  <ele>1583.0</ele>
  <time>2026-08-28T17:50:09Z</time>
  <course>248.0</course>
  <speed>0.0</speed>
  <fix>3d</fix>
</trkpt>
<trkpt lat="40.0713749" lon="-105.229789">
  <ele>1583.0</ele>
  <time>2026-08-28T17:50:09Z</time>
  <course>0.0</course>
  <speed>0.0</speed>
  <fix>3d</fix>
</trkpt>
<trkpt lat="40.0713749" lon="-105.229789">
  <ele>1583.0</ele>
  <time>2026-08-28T17:50:09Z</time>
  <course>248.02</course>
  <speed>0.0</speed>
  <fix>3d</fix>
</trkpt>
<trkpt lat="40.0713749" lon="-105.229789">
  <ele>1583.0</ele>
  <time>2026-08-28T17:50:09Z</time>
  <course>0.0</course>
  <speed>0.0</speed>
  <fix>3d</fix>
</trkpt>
<trkpt lat="40.0713749" lon="-105.229789">
  <ele>1583.0</ele>
  <time>2026-08-28T17:50:09Z</time>
  <course>248.05</course>
  <speed>0.0</speed>
  <fix>3d</fix>
</trkpt>
<trkpt lat="40.0713749" lon="-105.229789">
  <ele>1583.0</ele>
  <time>2026-08-28T17:50:09Z</time>
  <course>0.0</course>
  <speed>0.0</speed>
  <fix>3d</fix>
</trkpt>
<trkpt lat="40.0713749" lon="-105.229789">
  <ele>1583.0</ele>
  <time>2026-08-28T17:50:09Z</time>
  <course>248.08</course>
  <speed>0.0</speed>
  <fix>3d</fix>
</trkpt>
<trkpt lat="40.0713749" lon="-105.229789">
  <ele>1583.0</ele>
  <time>2026-08-28T17:50:09Z</time>
  <course>0.0</course>
  <speed>0.0</speed>
  <fix>3d</fix>
</trkpt>
<trkpt lat="40.0713749" lon="-105.229789">
  <ele>1583.0</ele>
  <time>2026-08-28T17:50:09Z</time>
  <course>248.1</course>
  <speed>0.0</speed>
  <fix>3d</fix>
</trkpt>
<trkpt lat="40.0713749" lon="-105.229789">
  <ele>1583.0</ele>
  <time>2026-08-28T17:50:09Z</time>
  <course>0.0</course>
  <speed>0.0</speed>
  <fix>3d</fix>
</trkpt>
<trkpt lat="40.0713749" lon="-105.229789">
  <ele>1583.0</ele>
  <time>2026-08-28T17:50:09Z</time>
  <course>248.12</course>
  <speed>0.0</speed>
  <fix>3d</fix>
</trkpt>
<trkpt lat="40.0713749" lon="-105.229789">
  <ele>1583.0</ele>
  <time>2026-08-28T17:50:09Z</time>
  <course>0.0</course>
  <speed>0.0</speed>
  <fix>3d</fix>
</trkpt>
<trkpt lat="40.0713749" lon="-105.229789">
  <ele>1583.0</ele>
  <time>2026-08-28T17:50:09Z</time>
  <course>248.14</course>
  <speed>0.0</speed>
  <fix>3d</fix>
</trkpt>
<trkpt lat="40.0713749" lon="-105.229789">
  <ele>1583.0</ele>
  <time>2026-08-28T17:50:09Z</time>
  <course>0.0</course>
  <speed>0.0</speed>
  <fix>3d</fix>
</trkpt>
<trkpt lat="40.0713749" lon="-105.229789">
  <ele>1583.0</ele>
  <time>2026-08-28T17:50:09Z</time>
  <course>248.16</course>
  <speed>0.0</speed>
  <fix>3d</fix>
</trkpt>
<trkpt lat="40.0713749" lon="-105.229789">
  <ele>1583.0</ele>
  <time>2026-08-28T17:50:09Z</time>
  <course>0.0</course>
  <speed>0.0</speed>
  <fix>3d</fix>
</trkpt>
<trkpt lat="40.0713749" lon="-105.229789">
  <ele>1583.0</ele>
  <time>2026-08-28T17:50:09Z</time>
  <course>248.18</course>
  <speed>0.0</speed>
  <fix>3d</fix>
</trkpt>
<trkpt lat="40.0713749" lon="-105.229789">
  <ele>1583.0</ele>
  <time>2026-08-28T17:50:09Z</time>
  <course>0.0</course>
  <speed>0.0</speed>
  <fix>3d</fix>
</trkpt>
<trkpt lat="40.0713749" lon="-105.229789">
  <ele>1583.0</ele>
  <time>2026-08-28T17:50:09Z</time>
  <course>248.2</course>
  <speed>0.0</speed>
  <fix>3d</fix>
</trkpt>
<trkpt lat="40.0713749" lon="-105.229789">
  <ele>1583.0</ele>
  <time>2026-08-28T17:50:09Z</time>
  <course>0.0</course>
  <speed>0.0</speed>
  <fix>3d</fix>
</trkpt>
<trkpt lat="40.0713749" lon="-105.229789">
  <ele>1583.0</ele>
  <time>2026-08-28T17:50:09Z</time>
  <course>248.22</course>
  <speed>0.0</speed>
  <fix>3d</fix>
</trkpt>
<trkpt lat="40.0713749" lon="-105.229789">
  <ele>1583.0</ele>
  <time>2026-08-28T17:50:09Z</time>
  <course>0.0</course>
  <speed>0.0</speed>
  <fix>3d</fix>
</trkpt>
<trkpt lat="40.0713749" lon="-105.229789">
  <ele>1583.0</ele>
  <time>2026-08-28T17:50:09Z</time>
  <course>248.23</course>
  <speed>0.0</speed>
  <fix>3d</fix>
</trkpt>
<trkpt lat="40.0713749" lon="-105.229789">
  <ele>1583.0</ele>
  <time>2026-08-28T17:50:09Z</time>
  <course>0.0</course>
  <speed>0.0</speed>
  <fix>3d</fix>
</trkpt>
<trkpt lat="40.0713749" lon="-105.229789">
  <ele>1583.0</ele>
  <time>2026-08-28T17:50:09Z</time>
  <course>248.25</course>
  <speed>0.0</speed>
  <fix>3d</fix>
</trkpt>
<trkpt lat="40.0713749" lon="-105.229789">
  <ele>1583.0</ele>
  <time>2026-08-28T17:50:09Z</time>
  <course>0.0</course>
  <speed>0.0</speed>
  <fix>3d</fix>
</trkpt>
<trkpt lat="40.0713749" lon="-105.229789">
  <ele>1583.0</ele>
  <time>2026-08-28T17:50:09Z</time>
  <course>248.26</course>
  <speed>0.0</speed>
  <fix>3d</fix>
</trkpt>
<trkpt lat="40.0713749" lon="-105.229789">
  <ele>1583.0</ele>
  <time>2026-08-28T17:50:09Z</time>
  <course>0.0</course>
  <speed>0.0</speed>
  <fix>3d</fix>
</trkpt>
<trkpt lat="40.0713749" lon="-105.229789">
  <ele>1583.0</ele>
  <time>2026-08-28T17:50:09Z</time>
  <course>248.28</course>
  <speed>0.0</speed>
  <fix>3d</fix>
</trkpt>
<trkpt lat="40.0713749" lon="-105.229789">
  <ele>1583.0</ele>
  <time>2026-08-28T17:50:09Z</time>
  <course>0.0</course>
  <speed>0.0</speed>
  <fix>3d</fix>
</trkpt>
<trkpt lat="40.0713749" lon="-105.229789">
  <ele>1583.0</ele>
  <time>2026-08-28T17:50:09Z</time>
  <course>248.29</course>
  <speed>0.0</speed>
  <fix>3d</fix>
</trkpt>
<trkpt lat="40.0713749" lon="-105.229789">
  <ele>1583.0</ele>
  <time>2026-08-28T17:50:09Z</time>
  <course>0.0</course>
  <speed>0.0</speed>
  <fix>3d</fix>
</trkpt>
<trkpt lat="40.0713749" lon="-105.229789">
  <ele>1583.0</ele>
  <time>2026-08-28T17:50:09Z</time>
  <course>248.3</course>
  <speed>0.0</speed>
  <fix>3d</fix>
</trkpt>
<trkpt lat="40.0713749" lon="-105.229789">
  <ele>1583.0</ele>
  <time>2026-08-28T17:50:09Z</time>
  <course>0.0</course>
  <speed>0.0</speed>
  <fix>3d</fix>
</trkpt>
<trkpt lat="40.0713749" lon="-105.229789">
  <ele>1583.0</ele>
  <time>2026-08-28T17:50:09Z</time>
  <course>248.31</course>
  <speed>0.0</speed>
  <fix>3d</fix>
</trkpt>
<trkpt lat="40.0713749" lon="-105.229789">
  <ele>1583.0</ele>
  <time>2026-08-28T17:50:09Z</time>
  <course>0.0</course>
  <speed>0.0</speed>
  <fix>3d</fix>
</trkpt>
<trkpt lat="40.0713749" lon="-105.229789">
  <ele>1583.0</ele>
  <time>2026-08-28T17:50:09Z</time>
  <course>248.32</course>
  <speed>0.0</speed>
  <fix>3d</fix>
</trkpt>
<trkpt lat="40.0713749" lon="-105.229789">
  <ele>1583.0</ele>
  <time>2026-08-28T17:50:09Z</time>
  <course>0.0</course>
  <speed>0.0</speed>
  <fix>3d</fix>
</trkpt>
<trkpt lat="40.0713749" lon="-105.229789">
  <ele>1583.0</ele>
  <time>2026-08-28T17:50:09Z</time>
  <course>248.33</course>
  <speed>0.0</speed>
  <fix>3d</fix>
</trkpt>
<trkpt lat="40.0713749" lon="-105.229789">
  <ele>1583.0</ele>
  <time>2026-08-28T17:50:09Z</time>
  <course>0.0</course>
  <speed>0.0</speed>
  <fix>3d</fix>
</trkpt>
<trkpt lat="40.0713749" lon="-105.229789">
  <ele>1583.0</ele>
  <time>2026-08-28T17:50:09Z</time>
  <course>248.34</course>
  <speed>0.0</speed>
  <fix>3d</fix>
</trkpt>
<trkpt lat="40.0713749" lon="-105.229789">
  <ele>1583.0</ele>
  <time>2026-08-28T17:50:09Z</time>
  <course>0.0</course>
  <speed>0.0</speed>
  <fix>3d</fix>
</trkpt>
<trkpt lat="40.0713749" lon="-105.229789">
  <ele>1583.0</ele>
  <time>2026-08-28T17:50:09Z</time>
  <course>248.35</course>
  <speed>0.0</speed>
  <fix>3d</fix>
</trkpt>
<trkpt lat="40.0713749" lon="-105.229789">
  <ele>1583.0</ele>
  <time>2026-08-28T17:50:09Z</time>
  <course>0.0</course>
  <speed>0.0</speed>
  <fix>3d</fix>
</trkpt>
<trkpt lat="40.0713749" lon="-105.229789">
  <ele>1583.0</ele>
  <time>2026-08-28T17:50:09Z</time>
  <course>248.35</course>
  <speed>0.0</speed>
  <fix>3d</fix>
</trkpt>
<trkpt lat="40.0713749" lon="-105.229789">
  <ele>1583.0</ele>
  <time>2026-08-28T17:50:09Z</time>
  <course>0.0</course>
  <speed>0.0</speed>
  <fix>3d</fix>
</trkpt>
<trkpt lat="40.0713749" lon="-105.229789">
  <ele>1583.0</ele>
  <time>2026-08-28T17:50:09Z</time>
  <course>248.36</course>
  <speed>0.0</speed>
  <fix>3d</fix>
</trkpt>
<trkpt lat="40.0713749" lon="-105.229789">
  <ele>1583.0</ele>
  <time>2026-08-28T17:50:09Z</time>
  <course>0.0</course>
  <speed>0.0</speed>
  <fix>3d</fix>
</trkpt>
<trkpt lat="40.0713749" lon="-105.229789">
  <ele>1583.0</ele>
  <time>2026-08-28T17:50:09Z</time>
  <course>248.37</course>
  <speed>0.0</speed>
  <fix>3d</fix>
</trkpt>
<trkpt lat="40.0713749" lon="-105.229789">
  <ele>1583.0</ele>
  <time>2026-08-28T17:50:09Z</time>
  <course>0.0</course>
  <speed>0.0</speed>
  <fix>3d</fix>
</trkpt>
<trkpt lat="40.0713749" lon="-105.229789">
  <ele>1583.0</ele>
  <time>2026-08-28T17:50:09Z</time>
  <course>248.37</course>
  <speed>0.0</speed>
  <fix>3d</fix>
</trkpt>
<trkpt lat="40.0713749" lon="-105.229789">
  <ele>1583.0</ele>
  <time>2026-08-28T17:50:09Z</time>
  <course>0.0</course>
  <speed>0.0</speed>
  <fix>3d</fix>
</trkpt>
<trkpt lat="40.0713749" lon="-105.229789">
  <ele>1583.0</ele>
  <time>2026-08-28T17:50:09Z</time>
  <course>248.38</course>
  <speed>0.0</speed>
  <fix>3d</fix>
</trkpt>
<trkpt lat="40.0713749" lon="-105.229789">
  <ele>1583.0</ele>
  <time>2026-08-28T17:50:09Z</time>
  <course>0.0</course>
  <speed>0.0</speed>
  <fix>3d</fix>
</trkpt>
<trkpt lat="40.0713749" lon="-105.229789">
  <ele>1583.0</ele>
  <time>2026-08-28T17:50:09Z</time>
  <course>248.38</course>
  <speed>0.0</speed>
  <fix>3d</fix>
</trkpt>
<trkpt lat="40.0713749" lon="-105.229789">
  <ele>1583.0</ele>
  <time>2026-08-28T17:50:09Z</time>
  <course>0.0</course>
  <speed>0.0</speed>
  <fix>3d</fix>
</trkpt>
<trkpt lat="40.0713749" lon="-105.229789">
  <ele>1583.0</ele>
  <time>2026-08-28T17:50:09Z</time>
  <course>248.39</course>
  <speed>0.0</speed>
  <fix>3d</fix>
</trkpt>
<trkpt lat="40.0713749" lon="-105.229789">
  <ele>1583.0</ele>
  <time>2026-08-28T17:50:09Z</time>
  <course>0.0</course>
  <speed>0.0</speed>
  <fix>3d</fix>
</trkpt>
<trkpt lat="40.0713749" lon="-105.229789">
  <ele>1583.0</ele>
  <time>2026-08-28T17:50:09Z</time>
  <course>248.39</course>
  <speed>0.0</speed>
  <fix>3d</fix>
</trkpt>
<trkpt lat="40.0713749" lon="-105.229789">
  <ele>1583.0</ele>
  <time>2026-08-28T17:50:09Z</time>
  <course>0.0</course>
  <speed>0.0</speed>
  <fix>3d</fix>
</trkpt>
<trkpt lat="40.0713749" lon="-105.229789">
  <ele>1583.0</ele>
  <time>2026-08-28T17:50:09Z</time>
  <course>248.4</course>
  <speed>0.0</speed>
  <fix>3d</fix>
</trkpt>
<trkpt lat="40.0713749" lon="-105.229789">
  <ele>1583.0</ele>
  <time>2026-08-28T17:50:09Z</time>
  <course>0.0</course>
  <speed>0.0</speed>
  <fix>3d</fix>
</trkpt>
<trkpt lat="40.0713749" lon="-105.229789">
  <ele>1583.0</ele>
  <time>2026-08-28T17:50:09Z</time>
  <course>248.4</course>
  <speed>0.0</speed>
  <fix>3d</fix>
</trkpt>
<trkpt lat="40.0713749" lon="-105.229789">
  <ele>1583.0</ele>
  <time>2026-08-28T17:50:09Z</time>
  <course>0.0</course>
  <speed>0.0</speed>
  <fix>3d</fix>
</trkpt>
<trkpt lat="40.0713749" lon="-105.229789">
  <ele>1583.0</ele>
  <time>2026-08-28T17:50:09Z</time>
  <course>248.4</course>
  <speed>0.0</speed>
  <fix>3d</fix>
</trkpt>
<trkpt lat="40.0713749" lon="-105.229789">
  <ele>1583.0</ele>
  <time>2026-08-28T17:50:09Z</time>
  <course>0.0</course>
  <speed>0.0</speed>
  <fix>3d</fix>
</trkpt>
<trkpt lat="40.0713749" lon="-105.229789">
  <ele>1583.0</ele>
  <time>2026-08-28T17:50:09Z</time>
  <course>248.4</course>
  <speed>0.0</speed>
  <fix>3d</fix>
</trkpt>
<trkpt lat="40.0713749" lon="-105.229789">
  <ele>1583.0</ele>
  <time>2026-08-28T17:50:09Z</time>
  <course>0.0</course>
  <speed>0.0</speed>
  <fix>3d</fix>
</trkpt>
<trkpt lat="40.0713749" lon="-105.229789">
  <ele>1583.0</ele>
  <time>2026-08-28T17:50:09Z</time>
  <course>248.41</course>
  <speed>0.0</speed>
  <fix>3d</fix>
</trkpt>
<trkpt lat="40.0713749" lon="-105.229789">
  <ele>1583.0</ele>
  <time>2026-08-28T17:50:09Z</time>
  <course>0.0</course>
  <speed>0.0</speed>
  <fix>3d</fix>
</trkpt>
<trkpt lat="40.0713749" lon="-105.229789">
  <ele>1583.0</ele>
  <time>2026-08-28T17:50:09Z</time>
  <course>248.41</course>
  <speed>0.0</speed>
  <fix>3d</fix>
</trkpt>
<trkpt lat="40.0713749" lon="-105.229789">
  <ele>1583.0</ele>
  <time>2026-08-28T17:50:09Z</time>
  <course>0.0</course>
  <speed>0.0</speed>
  <fix>3d</fix>
</trkpt>
<trkpt lat="40.0713749" lon="-105.229789">
  <ele>1583.0</ele>
  <time>2026-08-28T17:50:09Z</time>
  <course>248.41</course>
  <speed>0.0</speed>
  <fix>3d</fix>
</trkpt>
<trkpt lat="40.0713749" lon="-105.229789">
  <ele>1583.0</ele>
  <time>2026-08-28T17:50:09Z</time>
  <course>0.0</course>
  <speed>0.0</speed>
  <fix>3d</fix>
</trkpt>
<trkpt lat="40.0713749" lon="-105.229789">
  <ele>1583.0</ele>
  <time>2026-08-28T17:50:09Z</time>
  <course>248.41</course>
  <speed>0.0</speed>
  <fix>3d</fix>
</trkpt>
<trkpt lat="40.0713749" lon="-105.229789">
  <ele>1583.0</ele>
  <time>2026-08-28T17:50:09Z</time>
  <course>0.0</course>
  <speed>0.0</speed>
  <fix>3d</fix>
</trkpt>
<trkpt lat="40.0713749" lon="-105.229789">
  <ele>1583.0</ele>
  <time>2026-08-28T17:50:09Z</time>
  <course>248.41</course>
  <speed>0.0</speed>
  <fix>3d</fix>
</trkpt>
<trkpt lat="40.0713749" lon="-105.229789">
  <ele>1583.0</ele>
  <time>2026-08-28T17:50:09Z</time>
  <course>0.0</course>
  <speed>0.0</speed>
  <fix>3d</fix>
</trkpt>
<trkpt lat="40.0713749" lon="-105.229789">
  <ele>1583.0</ele>
  <time>2026-08-28T17:50:09Z</time>
  <course>248.41</course>
  <speed>0.0</speed>
  <fix>3d</fix>
</trkpt>
<trkpt lat="40.0713749" lon="-105.229789">
  <ele>1583.0</ele>
  <time>2026-08-28T17:50:09Z</time>
  <course>0.0</course>
  <speed>0.0</speed>
  <fix>3d</fix>
</trkpt>
<trkpt lat="40.0713749" lon="-105.229789">
  <ele>1583.0</ele>
  <time>2026-08-28T17:50:09Z</time>
  <course>248.41</course>
  <speed>0.0</speed>
  <fix>3d</fix>
</trkpt>
<trkpt lat="40.0713749" lon="-105.229789">
  <ele>1583.0</ele>
  <time>2026-08-28T17:50:09Z</time>
  <course>0.0</course>
  <speed>0.0</speed>
  <fix>3d</fix>
</trkpt>
<trkpt lat="40.0713749" lon="-105.229789">
  <ele>1583.0</ele>
  <time>2026-08-28T17:50:09Z</time>
  <course>248.41</course>
  <speed>0.0</speed>
  <fix>3d</fix>
</trkpt>
<trkpt lat="40.0713749" lon="-105.229789">
  <ele>1583.0</ele>
  <time>2026-08-28T17:50:09Z</time>
  <course>0.0</course>
  <speed>0.0</speed>
  <fix>3d</fix>
</trkpt>
<trkpt lat="40.0713749" lon="-105.229789">
  <ele>1583.0</ele>
  <time>2026-08-28T17:50:09Z</time>
  <course>248.41</course>
  <speed>0.0</speed>
  <fix>3d</fix>
</trkpt>
<trkpt lat="40.0713749" lon="-105.229789">
  <ele>1583.0</ele>
  <time>2026-08-28T17:50:09Z</time>
  <course>0.0</course>
  <speed>0.0</speed>
  <fix>3d</fix>
</trkpt>
<trkpt lat="40.0713749" lon="-105.229789">
  <ele>1583.0</ele>
  <time>2026-08-28T17:50:09Z</time>
  <course>248.41</course>
  <speed>0.0</speed>
  <fix>3d</fix>
</trkpt>
<trkpt lat="40.0713749" lon="-105.229789">
  <ele>1583.0</ele>
  <time>2026-08-28T17:50:09Z</time>
  <course>0.0</course>
  <speed>0.0</speed>
  <fix>3d</fix>
</trkpt>
<trkpt lat="40.0713749" lon="-105.229789">
  <ele>1583.0</ele>
  <time>2026-08-28T17:50:09Z</time>
  <course>248.41</course>
  <speed>0.0</speed>
  <fix>3d</fix>
</trkpt>
<trkpt lat="40.0713749" lon="-105.229789">
  <ele>1583.0</ele>
  <time>2026-08-28T17:50:09Z</time>
  <course>0.0</course>
  <speed>0.0</speed>
  <fix>3d</fix>
</trkpt>
<trkpt lat="40.0713749" lon="-105.229789">
  <ele>1583.0</ele>
  <time>2026-08-28T17:50:09Z</time>
  <course>248.41</course>
  <speed>0.0</speed>
  <fix>3d</fix>
</trkpt>
<trkpt lat="40.0713749" lon="-105.229789">
  <ele>1583.0</ele>
  <time>2026-08-28T17:50:09Z</time>
  <course>0.0</course>
  <speed>0.0</speed>
  <fix>3d</fix>
</trkpt>
<trkpt lat="40.0713749" lon="-105.229789">
  <ele>1583.0</ele>
  <time>2026-08-28T17:50:09Z</time>
  <course>248.41</course>
  <speed>0.0</speed>
  <fix>3d</fix>
</trkpt>
<trkpt lat="40.0713749" lon="-105.229789">
  <ele>1583.0</ele>
  <time>2026-08-28T17:50:09Z</time>
  <course>0.0</course>
  <speed>0.0</speed>
  <fix>3d</fix>
</trkpt>
<trkpt lat="40.0713749" lon="-105.229789">
  <ele>1583.0</ele>
  <time>2026-08-28T17:50:09Z</time>
  <course>248.41</course>
  <speed>0.0</speed>
  <fix>3d</fix>
</trkpt>
<trkpt lat="40.0713749" lon="-105.229789">
  <ele>1583.0</ele>
  <time>2026-08-28T17:50:09Z</time>
  <course>0.0</course>
  <speed>0.0</speed>
  <fix>3d</fix>
</trkpt>
<trkpt lat="40.0713749" lon="-105.229789">
  <ele>1583.0</ele>
  <time>2026-08-28T17:50:09Z</time>
  <course>248.41</course>
  <speed>0.0</speed>
  <fix>3d</fix>
</trkpt>
<trkpt lat="40.0713749" lon="-105.229789">
  <ele>1583.0</ele>
  <time>2026-08-28T17:50:09Z</time>
  <course>0.0</course>
  <speed>0.0</speed>
  <fix>3d</fix>
</trkpt>
<trkpt lat="40.0713749" lon="-105.229789">
  <ele>1583.0</ele>
  <time>2026-08-28T17:50:09Z</time>
  <course>248.41</course>
  <speed>0.0</speed>
  <fix>3d</fix>
</trkpt>
<trkpt lat="40.0713749" lon="-105.229789">
  <ele>1583.0</ele>
  <time>2026-08-28T17:50:09Z</time>
  <course>0.0</course>
  <speed>0.0</speed>
  <fix>3d</fix>
</trkpt>
<trkpt lat="40.0713749" lon="-105.229789">
  <ele>1583.0</ele>
  <time>2026-08-28T17:50:09Z</time>
  <course>248.4</course>
  <speed>0.0</speed>
  <fix>3d</fix>
</trkpt>
<trkpt lat="40.0713749" lon="-105.229789">
  <ele>1583.0</ele>
  <time>2026-08-28T17:50:09Z</time>
  <course>0.0</course>
  <speed>0.0</speed>
  <fix>3d</fix>
</trkpt>
<trkpt lat="40.0713749" lon="-105.229789">
  <ele>1583.0</ele>
  <time>2026-08-28T17:50:09Z</time>
  <course>248.4</course>
  <speed>0.01</speed>
  <fix>3d</fix>
</trkpt>
<trkpt lat="40.0713749" lon="-105.229789">
  <ele>1583.0</ele>
  <time>2026-08-28T17:50:09Z</time>
  <course>0.0</course>
  <speed>0.0</speed>
  <fix>3d</fix>
</trkpt>
<trkpt lat="40.0713749" lon="-105.229789">
  <ele>1583.0</ele>
  <time>2026-08-28T17:50:09Z</time>
  <course>248.4</course>
  <speed>0.01</speed>
  <fix>3d</fix>
</trkpt>
<trkpt lat="40.0713749" lon="-105.229789">
  <ele>1583.0</ele>
  <time>2026-08-28T17:50:09Z</time>
  <course>0.0</course>
  <speed>0.0</speed>
  <fix>3d</fix>
</trkpt>
<trkpt lat="40.0713749" lon="-105.229789">
  <ele>1583.0</ele>
  <time>2026-08-28T17:50:09Z</time>
  <course>248.4</course>
  <speed>0.01</speed>
  <fix>3d</fix>
</trkpt>
<trkpt lat="40.0713749" lon="-105.229789">
  <ele>1583.0</ele>
  <time>2026-08-28T17:50:09Z</time>
  <course>0.0</course>
  <speed>0.0</speed>
  <fix>3d</fix>
</trkpt>
<trkpt lat="40.0713749" lon="-105.229789">
  <ele>1583.0</ele>
  <time>2026-08-28T17:50:09Z</time>
  <course>248.4</course>
  <speed>0.01</speed>
  <fix>3d</fix>
</trkpt>
<trkpt lat="40.0713749" lon="-105.229789">
  <ele>1583.0</ele>
  <time>2026-08-28T17:50:09Z</time>
  <course>0.0</course>
  <speed>0.0</speed>
  <fix>3d</fix>
</trkpt>
<trkpt lat="40.0713749" lon="-105.229789">
  <ele>1583.0</ele>
  <time>2026-08-28T17:50:09Z</time>
  <course>248.39</course>
  <speed>0.01</speed>
  <fix>3d</fix>
</trkpt>
<trkpt lat="40.0713749" lon="-105.229789">
  <ele>1583.0</ele>
  <time>2026-08-28T17:50:09Z</time>
  <course>0.0</course>
  <speed>0.0</speed>
  <fix>3d</fix>
</trkpt>
<trkpt lat="40.0713749" lon="-105.229789">
  <ele>1583.0</ele>
  <time>2026-08-28T17:50:09Z</time>
  <course>248.39</course>
  <speed>0.01</speed>
  <fix>3d</fix>
</trkpt>
<trkpt lat="40.0713749" lon="-105.229789">
  <ele>1583.0</ele>
  <time>2026-08-28T17:50:09Z</time>
  <course>0.0</course>
  <speed>0.0</speed>
  <fix>3d</fix>
</trkpt>
<trkpt lat="40.0713749" lon="-105.229789">
  <ele>1583.0</ele>
  <time>2026-08-28T17:50:09Z</time>
  <course>248.39</course>
  <speed>0.01</speed>
  <fix>3d</fix>
</trkpt>
<trkpt lat="40.0713749" lon="-105.229789">
  <ele>1583.0</ele>
  <time>2026-08-28T17:50:09Z</time>
  <course>0.0</course>
  <speed>0.0</speed>
  <fix>3d</fix>
</trkpt>
<trkpt lat="40.0713749" lon="-105.229789">
  <ele>1583.0</ele>
  <time>2026-08-28T17:50:09Z</time>
  <course>248.38</course>
  <speed>0.01</speed>
  <fix>3d</fix>
</trkpt>
<trkpt lat="40.0713749" lon="-105.229789">
  <ele>1583.0</ele>
  <time>2026-08-28T17:50:09Z</time>
  <course>0.0</course>
  <speed>0.0</speed>
  <fix>3d</fix>
</trkpt>
<trkpt lat="40.0713749" lon="-105.229789">
  <ele>1583.0</ele>
  <time>2026-08-28T17:50:09Z</time>
  <course>248.38</course>
  <speed>0.01</speed>
  <fix>3d</fix>
</trkpt>
<trkpt lat="40.0713749" lon="-105.229789">
  <ele>1583.0</ele>
  <time>2026-08-28T17:50:09Z</time>
  <course>0.0</course>
  <speed>0.0</speed>
  <fix>3d</fix>
</trkpt>
<trkpt lat="40.0713749" lon="-105.229789">
  <ele>1583.0</ele>
  <time>2026-08-28T17:50:09Z</time>
  <course>248.38</course>
  <speed>0.01</speed>
  <fix>3d</fix>
</trkpt>
<trkpt lat="40.0713749" lon="-105.229789">
  <ele>1583.0</ele>
  <time>2026-08-28T17:50:09Z</time>
  <course>0.0</course>
  <speed>0.0</speed>
  <fix>3d</fix>
</trkpt>
<trkpt lat="40.0713749" lon="-105.229789">
  <ele>1583.0</ele>
  <time>2026-08-28T17:50:09Z</time>
  <course>248.37</course>
  <speed>0.01</speed>
  <fix>3d</fix>
</trkpt>
<trkpt lat="40.0713749" lon="-105.229789">
  <ele>1583.0</ele>
  <time>2026-08-28T17:50:09Z</time>
  <course>0.0</course>
  <speed>0.0</speed>
  <fix>3d</fix>
</trkpt>
<trkpt lat="40.0713749" lon="-105.229789">
  <ele>1583.0</ele>
  <time>2026-08-28T17:50:09Z</time>
  <course>248.37</course>
  <speed>0.01</speed>
  <fix>3d</fix>
</trkpt>
<trkpt lat="40.0713749" lon="-105.229789">
  <ele>1583.0</ele>
  <time>2026-08-28T17:50:09Z</time>
  <course>0.0</course>
  <speed>0.0</speed>
  <fix>3d</fix>
</trkpt>
<trkpt lat="40.0713749" lon="-105.229789">
  <ele>1583.0</ele>
  <time>2026-08-28T17:50:09Z</time>
  <course>248.37</course>
  <speed>0.01</speed>
  <fix>3d</fix>
</trkpt>
<trkpt lat="40.0713749" lon="-105.229789">
  <ele>1583.0</ele>
  <time>2026-08-28T17:50:09Z</time>
  <course>0.0</course>
  <speed>0.0</speed>
  <fix>3d</fix>
</trkpt>
<trkpt lat="40.0713749" lon="-105.229789">
  <ele>1583.0</ele>
  <time>2026-08-28T17:50:09Z</time>
  <course>248.36</course>
  <speed>0.01</speed>
  <fix>3d</fix>
</trkpt>
<trkpt lat="40.0713749" lon="-105.229789">
  <ele>1583.0</ele>
  <time>2026-08-28T17:50:09Z</time>
  <course>0.0</course>
  <speed>0.0</speed>
  <fix>3d</fix>
</trkpt>
<trkpt lat="40.0713749" lon="-105.229789">
  <ele>1583.0</ele>
  <time>2026-08-28T17:50:09Z</time>
  <course>248.36</course>
  <speed>0.01</speed>
  <fix>3d</fix>
</trkpt>
<trkpt lat="40.0713749" lon="-105.229789">
  <ele>1583.0</ele>
  <time>2026-08-28T17:50:09Z</time>
  <course>0.0</course>
  <speed>0.0</speed>
  <fix>3d</fix>
</trkpt>
<trkpt lat="40.0713749" lon="-105.229789">
  <ele>1583.0</ele>
  <time>2026-08-28T17:50:09Z</time>
  <course>248.36</course>
  <speed>0.01</speed>
  <fix>3d</fix>
</trkpt>
<trkpt lat="40.0713749" lon="-105.229789">
  <ele>1583.0</ele>
  <time>2026-08-28T17:50:09Z</time>
  <course>0.0</course>
  <speed>0.0</speed>
  <fix>3d</fix>
</trkpt>
<trkpt lat="40.0713749" lon="-105.229789">
  <ele>1583.0</ele>
  <time>2026-08-28T17:50:09Z</time>
  <course>248.35</course>
  <speed>0.01</speed>
  <fix>3d</fix>
</trkpt>
<trkpt lat="40.0713749" lon="-105.229789">
  <ele>1583.0</ele>
  <time>2026-08-28T17:50:09Z</time>
  <course>0.0</course>
  <speed>0.0</speed>
  <fix>3d</fix>
</trkpt>
<trkpt lat="40.0713749" lon="-105.229789">
  <ele>1583.0</ele>
  <time>2026-08-28T17:50:09Z</time>
  <course>248.35</course>
  <speed>0.01</speed>
  <fix>3d</fix>
</trkpt>
<trkpt lat="40.0713749" lon="-105.229789">
  <ele>1583.0</ele>
  <time>2026-08-28T17:50:09Z</time>
  <course>0.0</course>
  <speed>0.0</speed>
  <fix>3d</fix>
</trkpt>
<trkpt lat="40.0713749" lon="-105.229789">
  <ele>1583.0</ele>
  <time>2026-08-28T17:50:09Z</time>
  <course>248.35</course>
  <speed>0.01</speed>
  <fix>3d</fix>
</trkpt>
<trkpt lat="40.0713749" lon="-105.229789">
  <ele>1583.0</ele>
  <time>2026-08-28T17:50:09Z</time>
  <course>0.0</course>
  <speed>0.0</speed>
  <fix>3d</fix>
</trkpt>
<trkpt lat="40.0713749" lon="-105.229789">
  <ele>1583.0</ele>
  <time>2026-08-28T17:50:09Z</time>
  <course>248.34</course>
  <speed>0.01</speed>
  <fix>3d</fix>
</trkpt>
<trkpt lat="40.0713749" lon="-105.229789">
  <ele>1583.0</ele>
  <time>2026-08-28T17:50:09Z</time>
  <course>0.0</course>
  <speed>0.0</speed>
  <fix>3d</fix>
</trkpt>
<trkpt lat="40.0713749" lon="-105.229789">
  <ele>1583.0</ele>
  <time>2026-08-28T17:50:09Z</time>
  <course>248.34</course>
  <speed>0.01</speed>
  <fix>3d</fix>
</trkpt>
<trkpt lat="40.0713749" lon="-105.229789">
  <ele>1583.0</ele>
  <time>2026-08-28T17:50:09Z</time>
  <course>0.0</course>
  <speed>0.0</speed>
  <fix>3d</fix>
</trkpt>
<trkpt lat="40.0713749" lon="-105.229789">
  <ele>1583.0</ele>
  <time>2026-08-28T17:50:09Z</time>
  <course>248.33</course>
  <speed>0.01</speed>
  <fix>3d</fix>
</trkpt>
<trkpt lat="40.0713749" lon="-105.229789">
  <ele>1583.0</ele>
  <time>2026-08-28T17:50:09Z</time>
  <course>0.0</course>
  <speed>0.0</speed>
  <fix>3d</fix>
</trkpt>
<trkpt lat="40.0713749" lon="-105.229789">
  <ele>1583.0</ele>
  <time>2026-08-28T17:50:09Z</time>
  <course>248.33</course>
  <speed>0.01</speed>
  <fix>3d</fix>
</trkpt>
<trkpt lat="40.0713749" lon="-105.229789">
  <ele>1583.0</ele>
  <time>2026-08-28T17:50:09Z</time>
  <course>0.0</course>
  <speed>0.0</speed>
  <fix>3d</fix>
</trkpt>
<trkpt lat="40.0713749" lon="-105.229789">
  <ele>1583.0</ele>
  <time>2026-08-28T17:50:09Z</time>
  <course>248.32</course>
  <speed>0.01</speed>
  <fix>3d</fix>
</trkpt>
<trkpt lat="40.0713749" lon="-105.229789">
  <ele>1583.0</ele>
  <time>2026-08-28T17:50:09Z</time>
  <course>0.0</course>
  <speed>0.0</speed>
  <fix>3d</fix>
</trkpt>
<trkpt lat="40.0713749" lon="-105.229789">
  <ele>1583.0</ele>
  <time>2026-08-28T17:50:09Z</time>
  <course>248.32</course>
  <speed>0.01</speed>
  <fix>3d</fix>
</trkpt>
<trkpt lat="40.0713749" lon="-105.229789">
  <ele>1583.0</ele>
  <time>2026-08-28T17:50:09Z</time>
  <course>0.0</course>
  <speed>0.0</speed>
  <fix>3d</fix>
</trkpt>
<trkpt lat="40.0713749" lon="-105.229789">
  <ele>1583.0</ele>
  <time>2026-08-28T17:50:09Z</time>
  <course>248.32</course>
  <speed>0.01</speed>
  <fix>3d</fix>
</trkpt>
<trkpt lat="40.0713749" lon="-105.229789">
  <ele>1583.0</ele>
  <time>2026-08-28T17:50:09Z</time>
  <course>0.0</course>
  <speed>0.0</speed>
  <fix>3d</fix>
</trkpt>
<trkpt lat="40.0713749" lon="-105.229789">
  <ele>1583.0</ele>
  <time>2026-08-28T17:50:09Z</time>
  <course>248.31</course>
  <speed>0.01</speed>
  <fix>3d</fix>
</trkpt>
<trkpt lat="40.0713749" lon="-105.229789">
  <ele>1583.0</ele>
  <time>2026-08-28T17:50:09Z</time>
  <course>0.0</course>
  <speed>0.0</speed>
  <fix>3d</fix>
</trkpt>
<trkpt lat="40.0713749" lon="-105.229789">
  <ele>1583.0</ele>
  <time>2026-08-28T17:50:09Z</time>
  <course>248.31</course>
  <speed>0.01</speed>
  <fix>3d</fix>
</trkpt>
<trkpt lat="40.0713749" lon="-105.229789">
  <ele>1583.0</ele>
  <time>2026-08-28T17:50:09Z</time>
  <course>0.0</course>
  <speed>0.0</speed>
  <fix>3d</fix>
</trkpt>
<trkpt lat="40.0713749" lon="-105.229789">
  <ele>1583.0</ele>
  <time>2026-08-28T17:50:09Z</time>
  <course>248.3</course>
  <speed>0.01</speed>
  <fix>3d</fix>
</trkpt>
<trkpt lat="40.0713749" lon="-105.229789">
  <ele>1583.0</ele>
  <time>2026-08-28T17:50:09Z</time>
  <course>0.0</course>
  <speed>0.0</speed>
  <fix>3d</fix>
</trkpt>
<trkpt lat="40.0713749" lon="-105.229789">
  <ele>1583.0</ele>
  <time>2026-08-28T17:50:09Z</time>
  <course>248.3</course>
  <speed>0.01</speed>
  <fix>3d</fix>
</trkpt>
<trkpt lat="40.0713749" lon="-105.229789">
  <ele>1583.0</ele>
  <time>2026-08-28T17:50:09Z</time>
  <course>0.0</course>
  <speed>0.0</speed>
  <fix>3d</fix>
</trkpt>
<trkpt lat="40.0713749" lon="-105.229789">
  <ele>1583.0</ele>
  <time>2026-08-28T17:50:09Z</time>
  <course>248.29</course>
  <speed>0.01</speed>
  <fix>3d</fix>
</trkpt>
<trkpt lat="40.0713749" lon="-105.229789">
  <ele>1583.0</ele>
  <time>2026-08-28T17:50:09Z</time>
  <course>0.0</course>
  <speed>0.0</speed>
  <fix>3d</fix>
</trkpt>
<trkpt lat="40.0713749" lon="-105.229789">
  <ele>1583.0</ele>
  <time>2026-08-28T17:50:09Z</time>
  <course>248.29</course>
  <speed>0.01</speed>
  <fix>3d</fix>
</trkpt>
<trkpt lat="40.0713749" lon="-105.229789">
  <ele>1583.0</ele>
  <time>2026-08-28T17:50:09Z</time>
  <course>0.0</course>
  <speed>0.0</speed>
  <fix>3d</fix>
</trkpt>
<trkpt lat="40.0713749" lon="-105.229789">
  <ele>1583.0</ele>
  <time>2026-08-28T17:50:09Z</time>
  <course>248.28</course>
  <speed>0.01</speed>
  <fix>3d</fix>
</trkpt>
<trkpt lat="40.0713749" lon="-105.229789">
  <ele>1583.0</ele>
  <time>2026-08-28T17:50:09Z</time>
  <course>0.0</course>
  <speed>0.0</speed>
  <fix>3d</fix>
</trkpt>
<trkpt lat="40.0713749" lon="-105.229789">
  <ele>1583.0</ele>
  <time>2026-08-28T17:50:09Z</time>
  <course>248.28</course>
  <speed>0.01</speed>
  <fix>3d</fix>
</trkpt>
<trkpt lat="40.0713749" lon="-105.229789">
  <ele>1583.0</ele>
  <time>2026-08-28T17:50:09Z</time>
  <course>0.0</course>
  <speed>0.0</speed>
  <fix>3d</fix>
</trkpt>
<trkpt lat="40.0713749" lon="-105.229789">
  <ele>1583.0</ele>
  <time>2026-08-28T17:50:09Z</time>
  <course>248.27</course>
  <speed>0.01</speed>
  <fix>3d</fix>
</trkpt>
<trkpt lat="40.0713749" lon="-105.229789">
  <ele>1583.0</ele>
  <time>2026-08-28T17:50:09Z</time>
  <course>0.0</course>
  <speed>0.0</speed>
  <fix>3d</fix>
</trkpt>
<trkpt lat="40.0713749" lon="-105.229789">
  <ele>1583.0</ele>
  <time>2026-08-28T17:50:09Z</time>
  <course>248.27</course>
  <speed>0.01</speed>
  <fix>3d</fix>
</trkpt>
<trkpt lat="40.0713749" lon="-105.229789">
  <ele>1583.0</ele>
  <time>2026-08-28T17:50:09Z</time>
  <course>0.0</course>
  <speed>0.0</speed>
  <fix>3d</fix>
</trkpt>
<trkpt lat="40.0713749" lon="-105.229789">
  <ele>1583.0</ele>
  <time>2026-08-28T17:50:09Z</time>
  <course>248.26</course>
  <speed>0.01</speed>
  <fix>3d</fix>
</trkpt>
<trkpt lat="40.0713749" lon="-105.229789">
  <ele>1583.0</ele>
  <time>2026-08-28T17:50:09Z</time>
  <course>0.0</course>
  <speed>0.0</speed>
  <fix>3d</fix>
</trkpt>
<trkpt lat="40.0713749" lon="-105.229789">
  <ele>1583.0</ele>
  <time>2026-08-28T17:50:09Z</time>
  <course>248.26</course>
  <speed>0.01</speed>
  <fix>3d</fix>
</trkpt>
<trkpt lat="40.0713749" lon="-105.229789">
  <ele>1583.0</ele>
  <time>2026-08-28T17:50:09Z</time>
  <course>0.0</course>
  <speed>0.0</speed>
  <fix>3d</fix>
</trkpt>
<trkpt lat="40.0713749" lon="-105.229789">
  <ele>1583.0</ele>
  <time>2026-08-28T17:50:09Z</time>
  <course>248.26</course>
  <speed>0.01</speed>
  <fix>3d</fix>
</trkpt>
<trkpt lat="40.0713749" lon="-105.229789">
  <ele>1583.0</ele>
  <time>2026-08-28T17:50:09Z</time>
  <course>0.0</course>
  <speed>0.0</speed>
  <fix>3d</fix>
</trkpt>
<trkpt lat="40.0713749" lon="-105.229789">
  <ele>1583.0</ele>
  <time>2026-08-28T17:50:09Z</time>
  <course>248.25</course>
  <speed>0.01</speed>
  <fix>3d</fix>
</trkpt>
<trkpt lat="40.0713749" lon="-105.229789">
  <ele>1583.0</ele>
  <time>2026-08-28T17:50:09Z</time>
  <course>0.0</course>
  <speed>0.0</speed>
  <fix>3d</fix>
</trkpt>
<trkpt lat="40.0713749" lon="-105.229789">
  <ele>1583.0</ele>
  <time>2026-08-28T17:50:09Z</time>
  <course>248.25</course>
  <speed>0.01</speed>
  <fix>3d</fix>
</trkpt>
<trkpt lat="40.0713749" lon="-105.229789">
  <ele>1583.0</ele>
  <time>2026-08-28T17:50:09Z</time>
  <course>0.0</course>
  <speed>0.0</speed>
  <fix>3d</fix>
</trkpt>
<trkpt lat="40.0713749" lon="-105.229789">
  <ele>1583.0</ele>
  <time>2026-08-28T17:50:09Z</time>
  <course>248.24</course>
  <speed>0.01</speed>
  <fix>3d</fix>
</trkpt>
<trkpt lat="40.0713749" lon="-105.229789">
  <ele>1583.0</ele>
  <time>2026-08-28T17:50:09Z</time>
  <course>0.0</course>
  <speed>0.0</speed>
  <fix>3d</fix>
</trkpt>
<trkpt lat="40.0713749" lon="-105.229789">
  <ele>1583.0</ele>
  <time>2026-08-28T17:50:09Z</time>
  <course>248.24</course>
  <speed>0.01</speed>
  <fix>3d</fix>
</trkpt>
<trkpt lat="40.0713749" lon="-105.229789">
  <ele>1583.0</ele>
  <time>2026-08-28T17:50:09Z</time>
  <course>0.0</course>
  <speed>0.0</speed>
  <fix>3d</fix>
</trkpt>
<trkpt lat="40.0713749" lon="-105.229789">
  <ele>1583.0</ele>
  <time>2026-08-28T17:50:09Z</time>
  <course>248.23</course>
  <speed>0.01</speed>
  <fix>3d</fix>
</trkpt>
<trkpt lat="40.0713749" lon="-105.229789">
  <ele>1583.0</ele>
  <time>2026-08-28T17:50:09Z</time>
  <course>0.0</course>
  <speed>0.0</speed>
  <fix>3d</fix>
</trkpt>
<trkpt lat="40.0713749" lon="-105.229789">
  <ele>1583.0</ele>
  <time>2026-08-28T17:50:09Z</time>
  <course>248.23</course>
  <speed>0.01</speed>
  <fix>3d</fix>
</trkpt>
<trkpt lat="40.0713749" lon="-105.229789">
  <ele>1583.0</ele>
  <time>2026-08-28T17:50:09Z</time>
  <course>0.0</course>
  <speed>0.0</speed>
  <fix>3d</fix>
</trkpt>
<trkpt lat="40.0713749" lon="-105.229789">
  <ele>1583.0</ele>
  <time>2026-08-28T17:50:09Z</time>
  <course>248.22</course>
  <speed>0.01</speed>
  <fix>3d</fix>
</trkpt>
<trkpt lat="40.0713749" lon="-105.229789">
  <ele>1583.0</ele>
  <time>2026-08-28T17:50:09Z</time>
  <course>0.0</course>
  <speed>0.0</speed>
  <fix>3d</fix>
</trkpt>
<trkpt lat="40.0713749" lon="-105.229789">
  <ele>1583.0</ele>
  <time>2026-08-28T17:50:09Z</time>
  <course>248.22</course>
  <speed>0.01</speed>
  <fix>3d</fix>
</trkpt>
<trkpt lat="40.0713749" lon="-105.229789">
  <ele>1583.0</ele>
  <time>2026-08-28T17:50:09Z</time>
  <course>0.0</course>
  <speed>0.0</speed>
  <fix>3d</fix>
</trkpt>
<trkpt lat="40.0713749" lon="-105.229789">
  <ele>1583.0</ele>
  <time>2026-08-28T17:50:09Z</time>
  <course>248.21</course>
  <speed>0.01</speed>
  <fix>3d</fix>
</trkpt>
<trkpt lat="40.0713749" lon="-105.229789">
  <ele>1583.0</ele>
  <time>2026-08-28T17:50:09Z</time>
  <course>0.0</course>
  <speed>0.0</speed>
  <fix>3d</fix>
</trkpt>
<trkpt lat="40.0713749" lon="-105.229789">
  <ele>1583.0</ele>
  <time>2026-08-28T17:50:09Z</time>
  <course>248.21</course>
  <speed>0.01</speed>
  <fix>3d</fix>
</trkpt>
<trkpt lat="40.0713749" lon="-105.229789">
  <ele>1583.0</ele>
  <time>2026-08-28T17:50:09Z</time>
  <course>0.0</course>
  <speed>0.0</speed>
  <fix>3d</fix>
</trkpt>
<trkpt lat="40.0713749" lon="-105.229789">
  <ele>1583.0</ele>
  <time>2026-08-28T17:50:09Z</time>
  <course>248.2</course>
  <speed>0.01</speed>
  <fix>3d</fix>
</trkpt>
<trkpt lat="40.0713749" lon="-105.229789">
  <ele>1583.0</ele>
  <time>2026-08-28T17:50:09Z</time>
  <course>0.0</course>
  <speed>0.0</speed>
  <fix>3d</fix>
</trkpt>
<trkpt lat="40.0713749" lon="-105.229789">
  <ele>1583.0</ele>
  <time>2026-08-28T17:50:09Z</time>
  <course>248.2</course>
  <speed>0.01</speed>
  <fix>3d</fix>
</trkpt>
<trkpt lat="40.0713749" lon="-105.229789">
  <ele>1583.0</ele>
  <time>2026-08-28T17:50:09Z</time>
  <course>0.0</course>
  <speed>0.0</speed>
  <fix>3d</fix>
</trkpt>
<trkpt lat="40.0713749" lon="-105.229789">
  <ele>1583.0</ele>
  <time>2026-08-28T17:50:09Z</time>
  <course>248.19</course>
  <speed>0.01</speed>
  <fix>3d</fix>
</trkpt>
<trkpt lat="40.0713749" lon="-105.229789">
  <ele>1583.0</ele>
  <time>2026-08-28T17:50:09Z</time>
  <course>0.0</course>
  <speed>0.0</speed>
  <fix>3d</fix>
</trkpt>
<trkpt lat="40.0713749" lon="-105.229789">
  <ele>1583.0</ele>
  <time>2026-08-28T17:50:09Z</time>
  <course>248.19</course>
  <speed>0.01</speed>
  <fix>3d</fix>
</trkpt>
<trkpt lat="40.0713749" lon="-105.229789">
  <ele>1583.0</ele>
  <time>2026-08-28T17:50:09Z</time>
  <course>0.0</course>
  <speed>0.0</speed>
  <fix>3d</fix>
</trkpt>
<trkpt lat="40.0713749" lon="-105.229789">
  <ele>1583.0</ele>
  <time>2026-08-28T17:50:09Z</time>
  <course>248.18</course>
  <speed>0.01</speed>
  <fix>3d</fix>
</trkpt>
<trkpt lat="40.0713749" lon="-105.229789">
  <ele>1583.0</ele>
  <time>2026-08-28T17:50:09Z</time>
  <course>0.0</course>
  <speed>0.0</speed>
  <fix>3d</fix>
</trkpt>
<trkpt lat="40.0713749" lon="-105.229789">
  <ele>1583.0</ele>
  <time>2026-08-28T17:50:09Z</time>
  <course>248.18</course>
  <speed>0.01</speed>
  <fix>3d</fix>
</trkpt>
<trkpt lat="40.0713749" lon="-105.229789">
  <ele>1583.0</ele>
  <time>2026-08-28T17:50:09Z</time>
  <course>0.0</course>
  <speed>0.0</speed>
  <fix>3d</fix>
</trkpt>
<trkpt lat="40.0713749" lon="-105.229789">
  <ele>1583.0</ele>
  <time>2026-08-28T17:50:09Z</time>
  <course>248.17</course>
  <speed>0.022360679774997897</speed>
  <fix>3d</fix>
</trkpt>
<trkpt lat="40.0713749" lon="-105.229789">
  <ele>1583.0</ele>
  <time>2026-08-28T17:50:09Z</time>
  <course>0.0</course>
  <speed>0.0</speed>
  <fix>3d</fix>
</trkpt>
<trkpt lat="40.0713749" lon="-105.229789">
  <ele>1583.0</ele>
  <time>2026-08-28T17:50:09Z</time>
  <course>248.17</course>
  <speed>0.022360679774997897</speed>
  <fix>3d</fix>
</trkpt>
<trkpt lat="40.0713749" lon="-105.229789">
  <ele>1583.0</ele>
  <time>2026-08-28T17:50:09Z</time>
  <course>0.0</course>
  <speed>0.0</speed>
  <fix>3d</fix>
</trkpt>
<trkpt lat="40.0713749" lon="-105.229789">
  <ele>1583.0</ele>
  <time>2026-08-28T17:50:09Z</time>
  <course>248.16</course>
  <speed>0.022360679774997897</speed>
  <fix>3d</fix>
</trkpt>
<trkpt lat="40.0713749" lon="-105.229789">
  <ele>1583.0</ele>
  <time>2026-08-28T17:50:09Z</time>
  <course>0.0</course>
  <speed>0.0</speed>
  <fix>3d</fix>
</trkpt>
<trkpt lat="40.0713749" lon="-105.229789">
  <ele>1583.0</ele>
  <time>2026-08-28T17:50:09Z</time>
  <course>248.16</course>
  <speed>0.022360679774997897</speed>
  <fix>3d</fix>
</trkpt>
<trkpt lat="40.0713749" lon="-105.229789">
  <ele>1583.0</ele>
  <time>2026-08-28T17:50:09Z</time>
  <course>0.0</course>
  <speed>0.0</speed>
  <fix>3d</fix>
</trkpt>
<trkpt lat="40.0713749" lon="-105.229789">
  <ele>1583.0</ele>
  <time>2026-08-28T17:50:09Z</time>
  <course>248.15</course>
  <speed>0.022360679774997897</speed>
  <fix>3d</fix>
</trkpt>
<trkpt lat="40.0713749" lon="-105.229789">
  <ele>1583.0</ele>
  <time>2026-08-28T17:50:09Z</time>
  <course>0.0</course>
  <speed>0.0</speed>
  <fix>3d</fix>
</trkpt>
<trkpt lat="40.0713749" lon="-105.229789">
  <ele>1583.0</ele>
  <time>2026-08-28T17:50:09Z</time>
  <course>248.15</course>
  <speed>0.022360679774997897</speed>
  <fix>3d</fix>
</trkpt>
<trkpt lat="40.0713749" lon="-105.229789">
  <ele>1583.0</ele>
  <time>2026-08-28T17:50:09Z</time>
  <course>0.0</course>
  <speed>0.0</speed>
  <fix>3d</fix>
</trkpt>
<trkpt lat="40.0713749" lon="-105.229789">
  <ele>1583.0</ele>
  <time>2026-08-28T17:50:09Z</time>
  <course>248.14</course>
  <speed>0.022360679774997897</speed>
  <fix>3d</fix>
</trkpt>
<trkpt lat="40.0713749" lon="-105.229789">
  <ele>1583.0</ele>
  <time>2026-08-28T17:50:09Z</time>
  <course>0.0</course>
  <speed>0.0</speed>
  <fix>3d</fix>
</trkpt>
<trkpt lat="40.0713749" lon="-105.229789">
  <ele>1583.0</ele>
  <time>2026-08-28T17:50:09Z</time>
  <course>248.14</course>
  <speed>0.022360679774997897</speed>
  <fix>3d</fix>
</trkpt>
<trkpt lat="40.0713749" lon="-105.229789">
  <ele>1583.0</ele>
  <time>2026-08-28T17:50:09Z</time>
  <course>0.0</course>
  <speed>0.0</speed>
  <fix>3d</fix>
</trkpt>
<trkpt lat="40.0713749" lon="-105.229789">
  <ele>1583.0</ele>
  <time>2026-08-28T17:50:09Z</time>
  <course>248.13</course>
  <speed>0.022360679774997897</speed>
  <fix>3d</fix>
</trkpt>
<trkpt lat="40.0713749" lon="-105.229789">
  <ele>1583.0</ele>
  <time>2026-08-28T17:50:09Z</time>
  <course>0.0</course>
  <speed>0.0</speed>
  <fix>3d</fix>
</trkpt>
<trkpt lat="40.0713749" lon="-105.229789">
  <ele>1583.0</ele>
  <time>2026-08-28T17:50:09Z</time>
  <course>248.13</course>
  <speed>0.022360679774997897</speed>
  <fix>3d</fix>
</trkpt>
<trkpt lat="40.0713749" lon="-105.229789">
  <ele>1583.0</ele>
  <time>2026-08-28T17:50:09Z</time>
  <course>0.0</course>
  <speed>0.0</speed>
  <fix>3d</fix>
</trkpt>
<trkpt lat="40.0713749" lon="-105.229789">
  <ele>1583.0</ele>
  <time>2026-08-28T17:50:09Z</time>
  <course>248.12</course>
  <speed>0.022360679774997897</speed>
  <fix>3d</fix>
</trkpt>
<trkpt lat="40.0713749" lon="-105.229789">
  <ele>1583.0</ele>
  <time>2026-08-28T17:50:09Z</time>
  <course>0.0</course>
  <speed>0.0</speed>
  <fix>3d</fix>
</trkpt>
<trkpt lat="40.0713749" lon="-105.229789">
  <ele>1583.0</ele>
  <time>2026-08-28T17:50:09Z</time>
  <course>248.12</course>
  <speed>0.022360679774997897</speed>
  <fix>3d</fix>
</trkpt>
<trkpt lat="40.0713749" lon="-105.229789">
  <ele>1583.0</ele>
  <time>2026-08-28T17:50:09Z</time>
  <course>0.0</course>
  <speed>0.0</speed>
  <fix>3d</fix>
</trkpt>
<trkpt lat="40.0713749" lon="-105.229789">
  <ele>1583.0</ele>
  <time>2026-08-28T17:50:09Z</time>
  <course>248.11</course>
  <speed>0.022360679774997897</speed>
  <fix>3d</fix>
</trkpt>
<trkpt lat="40.0713749" lon="-105.229789">
  <ele>1583.0</ele>
  <time>2026-08-28T17:50:09Z</time>
  <course>0.0</course>
  <speed>0.0</speed>
  <fix>3d</fix>
</trkpt>
<trkpt lat="40.0713749" lon="-105.229789">
  <ele>1583.0</ele>
  <time>2026-08-28T17:50:09Z</time>
  <course>248.11</course>
  <speed>0.022360679774997897</speed>
  <fix>3d</fix>
</trkpt>
<trkpt lat="40.0713749" lon="-105.229789">
  <ele>1583.0</ele>
  <time>2026-08-28T17:50:09Z</time>
  <course>0.0</course>
  <speed>0.0</speed>
  <fix>3d</fix>
</trkpt>
<trkpt lat="40.0713749" lon="-105.229789">
  <ele>1583.0</ele>
  <time>2026-08-28T17:50:09Z</time>
  <course>248.1</course>
  <speed>0.022360679774997897</speed>
  <fix>3d</fix>
</trkpt>
<trkpt lat="40.0713749" lon="-105.229789">
  <ele>1583.0</ele>
  <time>2026-08-28T17:50:09Z</time>
  <course>0.0</course>
  <speed>0.0</speed>
  <fix>3d</fix>
</trkpt>
<trkpt lat="40.0713749" lon="-105.229789">
  <ele>1583.0</ele>
  <time>2026-08-28T17:50:09Z</time>
  <course>248.1</course>
  <speed>0.022360679774997897</speed>
  <fix>3d</fix>
</trkpt>
<trkpt lat="40.0713749" lon="-105.229789">
  <ele>1583.0</ele>
  <time>2026-08-28T17:50:09Z</time>
  <course>0.0</course>
  <speed>0.0</speed>
  <fix>3d</fix>
</trkpt>
<trkpt lat="40.0713749" lon="-105.229789">
  <ele>1583.0</ele>
  <time>2026-08-28T17:50:09Z</time>
  <course>248.09</course>
  <speed>0.022360679774997897</speed>
  <fix>3d</fix>
</trkpt>
<trkpt lat="40.0713749" lon="-105.229789">
  <ele>1583.0</ele>
  <time>2026-08-28T17:50:09Z</time>
  <course>0.0</course>
  <speed>0.0</speed>
  <fix>3d</fix>
</trkpt>
<trkpt lat="40.0713749" lon="-105.229789">
  <ele>1583.0</ele>
  <time>2026-08-28T17:50:09Z</time>
  <course>248.09</course>
  <speed>0.022360679774997897</speed>
  <fix>3d</fix>
</trkpt>
<trkpt lat="40.0713749" lon="-105.229789">
  <ele>1583.0</ele>
  <time>2026-08-28T17:50:09Z</time>
  <course>0.0</course>
  <speed>0.0</speed>
  <fix>3d</fix>
</trkpt>
<trkpt lat="40.0713749" lon="-105.229789">
  <ele>1583.0</ele>
  <time>2026-08-28T17:50:09Z</time>
  <course>248.08</course>
  <speed>0.022360679774997897</speed>
  <fix>3d</fix>
</trkpt>
<trkpt lat="40.0713749" lon="-105.229789">
  <ele>1583.0</ele>
  <time>2026-08-28T17:50:09Z</time>
  <course>0.0</course>
  <speed>0.0</speed>
  <fix>3d</fix>
</trkpt>
<trkpt lat="40.0713749" lon="-105.229789">
  <ele>1583.0</ele>
  <time>2026-08-28T17:50:09Z</time>
  <course>248.08</course>
  <speed>0.022360679774997897</speed>
  <fix>3d</fix>
</trkpt>
<trkpt lat="40.0713749" lon="-105.229789">
  <ele>1583.0</ele>
  <time>2026-08-28T17:50:09Z</time>
  <course>0.0</course>
  <speed>0.0</speed>
  <fix>3d</fix>
</trkpt>
<trkpt lat="40.0713749" lon="-105.229789">
  <ele>1583.0</ele>
  <time>2026-08-28T17:50:09Z</time>
  <course>248.07</course>
  <speed>0.022360679774997897</speed>
  <fix>3d</fix>
</trkpt>
<trkpt lat="40.0713749" lon="-105.229789">
  <ele>1583.0</ele>
  <time>2026-08-28T17:50:09Z</time>
  <course>0.0</course>
  <speed>0.0</speed>
  <fix>3d</fix>
</trkpt>
<trkpt lat="40.0713749" lon="-105.229789">
  <ele>1583.0</ele>
  <time>2026-08-28T17:50:09Z</time>
  <course>248.07</course>
  <speed>0.022360679774997897</speed>
  <fix>3d</fix>
</trkpt>
<trkpt lat="40.0713749" lon="-105.229789">
  <ele>1583.0</ele>
  <time>2026-08-28T17:50:09Z</time>
  <course>0.0</course>
  <speed>0.0</speed>
  <fix>3d</fix>
</trkpt>
<trkpt lat="40.0713749" lon="-105.229789">
  <ele>1583.0</ele>
  <time>2026-08-28T17:50:09Z</time>
  <course>248.06</course>
  <speed>0.022360679774997897</speed>
  <fix>3d</fix>
</trkpt>
<trkpt lat="40.0713749" lon="-105.229789">
  <ele>1583.0</ele>
  <time>2026-08-28T17:50:09Z</time>
  <course>0.0</course>
  <speed>0.0</speed>
  <fix>3d</fix>
</trkpt>
<trkpt lat="40.0713749" lon="-105.229789">
  <ele>1583.0</ele>
  <time>2026-08-28T17:50:09Z</time>
  <course>248.06</course>
  <speed>0.022360679774997897</speed>
  <fix>3d</fix>
</trkpt>
<trkpt lat="40.0713749" lon="-105.229789">
  <ele>1583.0</ele>
  <time>2026-08-28T17:50:09Z</time>
  <course>0.0</course>
  <speed>0.0</speed>
  <fix>3d</fix>
</trkpt>
<trkpt lat="40.0713749" lon="-105.229789">
  <ele>1583.0</ele>
  <time>2026-08-28T17:50:09Z</time>
  <course>248.05</course>
  <speed>0.022360679774997897</speed>
  <fix>3d</fix>
</trkpt>
<trkpt lat="40.0713749" lon="-105.229789">
  <ele>1583.0</ele>
  <time>2026-08-28T17:50:09Z</time>
  <course>0.0</course>
  <speed>0.0</speed>
  <fix>3d</fix>
</trkpt>
<trkpt lat="40.0713749" lon="-105.229789">
  <ele>1583.0</ele>
  <time>2026-08-28T17:50:09Z</time>
  <course>248.05</course>
  <speed>0.022360679774997897</speed>
  <fix>3d</fix>
</trkpt>
<trkpt lat="40.0713749" lon="-105.229789">
  <ele>1583.0</ele>
  <time>2026-08-28T17:50:09Z</time>
  <course>0.0</course>
  <speed>0.0</speed>
  <fix>3d</fix>
</trkpt>
<trkpt lat="40.0713749" lon="-105.229789">
  <ele>1583.0</ele>
  <time>2026-08-28T17:50:09Z</time>
  <course>248.05</course>
  <speed>0.022360679774997897</speed>
  <fix>3d</fix>
</trkpt>
<trkpt lat="40.0713749" lon="-105.229789">
  <ele>1583.0</ele>
  <time>2026-08-28T17:50:09Z</time>
  <course>0.0</course>
  <speed>0.0</speed>
  <fix>3d</fix>
</trkpt>
<trkpt lat="40.0713749" lon="-105.229789">
  <ele>1583.0</ele>
  <time>2026-08-28T17:50:09Z</time>
  <course>248.04</course>
  <speed>0.022360679774997897</speed>
  <fix>3d</fix>
</trkpt>
<trkpt lat="40.0713749" lon="-105.229789">
  <ele>1583.0</ele>
  <time>2026-08-28T17:50:09Z</time>
  <course>0.0</course>
  <speed>0.0</speed>
  <fix>3d</fix>
</trkpt>
<trkpt lat="40.0713749" lon="-105.229789">
  <ele>1583.0</ele>
  <time>2026-08-28T17:50:09Z</time>
  <course>248.04</course>
  <speed>0.022360679774997897</speed>
  <fix>3d</fix>
</trkpt>
<trkpt lat="40.0713749" lon="-105.229789">
  <ele>1583.0</ele>
  <time>2026-08-28T17:50:09Z</time>
  <course>0.0</course>
  <speed>0.0</speed>
  <fix>3d</fix>
</trkpt>
<trkpt lat="40.0713749" lon="-105.229789">
  <ele>1583.0</ele>
  <time>2026-08-28T17:50:09Z</time>
  <course>248.03</course>
  <speed>0.022360679774997897</speed>
  <fix>3d</fix>
</trkpt>
<trkpt lat="40.0713749" lon="-105.229789">
  <ele>1583.0</ele>
  <time>2026-08-28T17:50:09Z</time>
  <course>0.0</course>
  <speed>0.0</speed>
  <fix>3d</fix>
</trkpt>
<trkpt lat="40.0713749" lon="-105.229789">
  <ele>1583.0</ele>
  <time>2026-08-28T17:50:09Z</time>
  <course>248.03</course>
  <speed>0.022360679774997897</speed>
  <fix>3d</fix>
</trkpt>
<trkpt lat="40.0713749" lon="-105.229789">
  <ele>1583.0</ele>
  <time>2026-08-28T17:50:09Z</time>
  <course>0.0</course>
  <speed>0.0</speed>
  <fix>3d</fix>
</trkpt>
<trkpt lat="40.0713749" lon="-105.229789">
  <ele>1583.0</ele>
  <time>2026-08-28T17:50:09Z</time>
  <course>248.02</course>
  <speed>0.022360679774997897</speed>
  <fix>3d</fix>
</trkpt>
<trkpt lat="40.0713749" lon="-105.229789">
  <ele>1583.0</ele>
  <time>2026-08-28T17:50:09Z</time>
  <course>0.0</course>
  <speed>0.0</speed>
  <fix>3d</fix>
</trkpt>
<trkpt lat="40.0713749" lon="-105.229789">
  <ele>1583.0</ele>
  <time>2026-08-28T17:50:09Z</time>
  <course>248.02</course>
  <speed>0.022360679774997897</speed>
  <fix>3d</fix>
</trkpt>
<trkpt lat="40.0713749" lon="-105.229789">
  <ele>1583.0</ele>
  <time>2026-08-28T17:50:09Z</time>
  <course>0.0</course>
  <speed>0.0</speed>
  <fix>3d</fix>
</trkpt>
<trkpt lat="40.0713749" lon="-105.229789">
  <ele>1583.0</ele>
  <time>2026-08-28T17:50:09Z</time>
  <course>248.01</course>
  <speed>0.022360679774997897</speed>
  <fix>3d</fix>
</trkpt>
<trkpt lat="40.0713749" lon="-105.229789">
  <ele>1583.0</ele>
  <time>2026-08-28T17:50:09Z</time>
  <course>0.0</course>
  <speed>0.0</speed>
  <fix>3d</fix>
</trkpt>
<trkpt lat="40.0713749" lon="-105.229789">
  <ele>1583.0</ele>
  <time>2026-08-28T17:50:09Z</time>
  <course>248.01</course>
  <speed>0.022360679774997897</speed>
  <fix>3d</fix>
</trkpt>
<trkpt lat="40.0713749" lon="-105.229789">
  <ele>1583.0</ele>
  <time>2026-08-28T17:50:09Z</time>
  <course>0.0</course>
  <speed>0.0</speed>
  <fix>3d</fix>
</trkpt>
<trkpt lat="40.0713749" lon="-105.229789">
  <ele>1583.0</ele>
  <time>2026-08-28T17:50:09Z</time>
  <course>248.0</course>
  <speed>0.022360679774997897</speed>
  <fix>3d</fix>
</trkpt>
<trkpt lat="40.0713749" lon="-105.229789">
  <ele>1583.0</ele>
  <time>2026-08-28T17:50:09Z</time>
  <course>0.0</course>
  <speed>0.0</speed>
  <fix>3d</fix>
</trkpt>
<trkpt lat="40.0713749" lon="-105.229789">
  <ele>1583.0</ele>
  <time>2026-08-28T17:50:09Z</time>
  <course>248.0</course>
  <speed>0.022360679774997897</speed>
  <fix>3d</fix>
</trkpt>
<trkpt lat="40.0713749" lon="-105.229789">
  <ele>1583.0</ele>
  <time>2026-08-28T17:50:09Z</time>
  <course>0.0</course>
  <speed>0.0</speed>
  <fix>3d</fix>
</trkpt>
<trkpt lat="40.0713749" lon="-105.229789">
  <ele>1583.0</ele>
  <time>2026-08-28T17:50:09Z</time>
  <course>247.99</course>
  <speed>0.022360679774997897</speed>
  <fix>3d</fix>
</trkpt>
<trkpt lat="40.0713749" lon="-105.229789">
  <ele>1583.0</ele>
  <time>2026-08-28T17:50:09Z</time>
  <course>0.0</course>
  <speed>0.0</speed>
  <fix>3d</fix>
</trkpt>
<trkpt lat="40.0713749" lon="-105.229789">
  <ele>1583.0</ele>
  <time>2026-08-28T17:50:09Z</time>
  <course>247.99</course>
  <speed>0.022360679774997897</speed>
  <fix>3d</fix>
</trkpt>
<trkpt lat="40.0713749" lon="-105.229789">
  <ele>1583.0</ele>
  <time>2026-08-28T17:50:09Z</time>
  <course>0.0</course>
  <speed>0.0</speed>
  <fix>3d</fix>
</trkpt>
<trkpt lat="40.0713749" lon="-105.229789">
  <ele>1583.0</ele>
  <time>2026-08-28T17:50:09Z</time>
  <course>247.99</course>
  <speed>0.022360679774997897</speed>
  <fix>3d</fix>
</trkpt>
<trkpt lat="40.0713749" lon="-105.229789">
  <ele>1583.0</ele>
  <time>2026-08-28T17:50:09Z</time>
  <course>0.0</course>
  <speed>0.0</speed>
  <fix>3d</fix>
</trkpt>
<trkpt lat="40.0713749" lon="-105.229789">
  <ele>1583.0</ele>
  <time>2026-08-28T17:50:09Z</time>
  <course>247.98</course>
  <speed>0.022360679774997897</speed>
  <fix>3d</fix>
</trkpt>
<trkpt lat="40.0713749" lon="-105.229789">
  <ele>1583.0</ele>
  <time>2026-08-28T17:50:09Z</time>
  <course>0.0</course>
  <speed>0.0</speed>
  <fix>3d</fix>
</trkpt>
<trkpt lat="40.0713749" lon="-105.229789">
  <ele>1583.0</ele>
  <time>2026-08-28T17:50:09Z</time>
  <course>247.98</course>
  <speed>0.022360679774997897</speed>
  <fix>3d</fix>
</trkpt>
<trkpt lat="40.0713749" lon="-105.229789">
  <ele>1583.0</ele>
  <time>2026-08-28T17:50:09Z</time>
  <course>0.0</course>
  <speed>0.0</speed>
  <fix>3d</fix>
</trkpt>
<trkpt lat="40.0713749" lon="-105.229789">
  <ele>1583.0</ele>
  <time>2026-08-28T17:50:09Z</time>
  <course>247.97</course>
  <speed>0.022360679774997897</speed>
  <fix>3d</fix>
</trkpt>
<trkpt lat="40.0713749" lon="-105.229789">
  <ele>1583.0</ele>
  <time>2026-08-28T17:50:09Z</time>
  <course>0.0</course>
  <speed>0.0</speed>
  <fix>3d</fix>
</trkpt>
<trkpt lat="40.0713749" lon="-105.229789">
  <ele>1583.0</ele>
  <time>2026-08-28T17:50:09Z</time>
  <course>247.97</course>
  <speed>0.022360679774997897</speed>
  <fix>3d</fix>
</trkpt>
<trkpt lat="40.0713749" lon="-105.229789">
  <ele>1583.0</ele>
  <time>2026-08-28T17:50:09Z</time>
  <course>0.0</course>
  <speed>0.0</speed>
  <fix>3d</fix>
</trkpt>
<trkpt lat="40.0713749" lon="-105.229789">
  <ele>1583.0</ele>
  <time>2026-08-28T17:50:09Z</time>
  <course>247.96</course>
  <speed>0.022360679774997897</speed>
  <fix>3d</fix>
</trkpt>
<trkpt lat="40.0713749" lon="-105.229789">
  <ele>1583.0</ele>
  <time>2026-08-28T17:50:09Z</time>
  <course>0.0</course>
  <speed>0.0</speed>
  <fix>3d</fix>
</trkpt>
<trkpt lat="40.0713749" lon="-105.229789">
  <ele>1583.0</ele>
  <time>2026-08-28T17:50:09Z</time>
  <course>247.96</course>
  <speed>0.022360679774997897</speed>
  <fix>3d</fix>
</trkpt>
<trkpt lat="40.0713749" lon="-105.229789">
  <ele>1583.0</ele>
  <time>2026-08-28T17:50:09Z</time>
  <course>0.0</course>
  <speed>0.0</speed>
  <fix>3d</fix>
</trkpt>
<trkpt lat="40.0713749" lon="-105.229789">
  <ele>1583.0</ele>
  <time>2026-08-28T17:50:09Z</time>
  <course>247.95</course>
  <speed>0.022360679774997897</speed>
  <fix>3d</fix>
</trkpt>
<trkpt lat="40.0713749" lon="-105.229789">
  <ele>1583.0</ele>
  <time>2026-08-28T17:50:09Z</time>
  <course>0.0</course>
  <speed>0.0</speed>
  <fix>3d</fix>
</trkpt>
<trkpt lat="40.0713749" lon="-105.229789">
  <ele>1583.0</ele>
  <time>2026-08-28T17:50:09Z</time>
  <course>247.95</course>
  <speed>0.022360679774997897</speed>
  <fix>3d</fix>
</trkpt>
<trkpt lat="40.0713749" lon="-105.229789">
  <ele>1583.0</ele>
  <time>2026-08-28T17:50:09Z</time>
  <course>0.0</course>
  <speed>0.0</speed>
  <fix>3d</fix>
</trkpt>
<trkpt lat="40.0713749" lon="-105.229789">
  <ele>1583.0</ele>
  <time>2026-08-28T17:50:09Z</time>
  <course>247.95</course>
  <speed>0.022360679774997897</speed>
  <fix>3d</fix>
</trkpt>
<trkpt lat="40.0713749" lon="-105.229789">
  <ele>1583.0</ele>
  <time>2026-08-28T17:50:09Z</time>
  <course>0.0</course>
  <speed>0.0</speed>
  <fix>3d</fix>
</trkpt>
<trkpt lat="40.0713749" lon="-105.229789">
  <ele>1583.0</ele>
  <time>2026-08-28T17:50:09Z</time>
  <course>247.94</course>
  <speed>0.022360679774997897</speed>
  <fix>3d</fix>
</trkpt>
<trkpt lat="40.0713749" lon="-105.229789">
  <ele>1583.0</ele>
  <time>2026-08-28T17:50:09Z</time>
  <course>0.0</course>
  <speed>0.0</speed>
  <fix>3d</fix>
</trkpt>
<trkpt lat="40.0713749" lon="-105.229789">
  <ele>1583.0</ele>
  <time>2026-08-28T17:50:09Z</time>
  <course>247.94</course>
  <speed>0.022360679774997897</speed>
  <fix>3d</fix>
</trkpt>
<trkpt lat="40.0713749" lon="-105.229789">
  <ele>1583.0</ele>
  <time>2026-08-28T17:50:09Z</time>
  <course>0.0</course>
  <speed>0.0</speed>
  <fix>3d</fix>
</trkpt>
<trkpt lat="40.0713749" lon="-105.229789">
  <ele>1583.0</ele>
  <time>2026-08-28T17:50:09Z</time>
  <course>247.93</course>
  <speed>0.022360679774997897</speed>
  <fix>3d</fix>
</trkpt>
<trkpt lat="40.0713749" lon="-105.229789">
  <ele>1583.0</ele>
  <time>2026-08-28T17:50:09Z</time>
  <course>0.0</course>
  <speed>0.0</speed>
  <fix>3d</fix>
</trkpt>
<trkpt lat="40.0713749" lon="-105.229789">
  <ele>1583.0</ele>
  <time>2026-08-28T17:50:09Z</time>
  <course>247.93</course>
  <speed>0.022360679774997897</speed>
  <fix>3d</fix>
</trkpt>
<trkpt lat="40.0713749" lon="-105.229789">
  <ele>1583.0</ele>
  <time>2026-08-28T17:50:09Z</time>
  <course>0.0</course>
  <speed>0.0</speed>
  <fix>3d</fix>
</trkpt>
<trkpt lat="40.0713749" lon="-105.229789">
  <ele>1583.0</ele>
  <time>2026-08-28T17:50:09Z</time>
  <course>247.92</course>
  <speed>0.022360679774997897</speed>
  <fix>3d</fix>
</trkpt>
<trkpt lat="40.0713749" lon="-105.229789">
  <ele>1583.0</ele>
  <time>2026-08-28T17:50:09Z</time>
  <course>0.0</course>
  <speed>0.0</speed>
  <fix>3d</fix>
</trkpt>
<trkpt lat="40.0713749" lon="-105.229789">
  <ele>1583.0</ele>
  <time>2026-08-28T17:50:09Z</time>
  <course>247.92</course>
  <speed>0.022360679774997897</speed>
  <fix>3d</fix>
</trkpt>
<trkpt lat="40.0713749" lon="-105.229789">
  <ele>1583.0</ele>
  <time>2026-08-28T17:50:09Z</time>
  <course>0.0</course>
  <speed>0.0</speed>
  <fix>3d</fix>
</trkpt>
<trkpt lat="40.0713749" lon="-105.229789">
  <ele>1583.0</ele>
  <time>2026-08-28T17:50:09Z</time>
  <course>247.92</course>
  <speed>0.022360679774997897</speed>
  <fix>3d</fix>
</trkpt>
<trkpt lat="40.0713749" lon="-105.229789">
  <ele>1583.0</ele>
  <time>2026-08-28T17:50:09Z</time>
  <course>0.0</course>
  <speed>0.0</speed>
  <fix>3d</fix>
</trkpt>
<trkpt lat="40.0713749" lon="-105.229789">
  <ele>1583.0</ele>
  <time>2026-08-28T17:50:09Z</time>
  <course>247.91</course>
  <speed>0.022360679774997897</speed>
  <fix>3d</fix>
</trkpt>
<trkpt lat="40.0713749" lon="-105.229789">
  <ele>1583.0</ele>
  <time>2026-08-28T17:50:09Z</time>
  <course>0.0</course>
  <speed>0.0</speed>
  <fix>3d</fix>
</trkpt>
<trkpt lat="40.0713749" lon="-105.229789">
  <ele>1583.0</ele>
  <time>2026-08-28T17:50:09Z</time>
  <course>247.91</course>
  <speed>0.022360679774997897</speed>
  <fix>3d</fix>
</trkpt>
<trkpt lat="40.0713749" lon="-105.229789">
  <ele>1583.0</ele>
  <time>2026-08-28T17:50:09Z</time>
  <course>0.0</course>
  <speed>0.0</speed>
  <fix>3d</fix>
</trkpt>
<trkpt lat="40.0713749" lon="-105.229789">
  <ele>1583.0</ele>
  <time>2026-08-28T17:50:09Z</time>
  <course>247.9</course>
  <speed>0.022360679774997897</speed>
  <fix>3d</fix>
</trkpt>
<trkpt lat="40.0713749" lon="-105.229789">
  <ele>1583.0</ele>
  <time>2026-08-28T17:50:09Z</time>
  <course>0.0</course>
  <speed>0.0</speed>
  <fix>3d</fix>
</trkpt>
<trkpt lat="40.0713749" lon="-105.229789">
  <ele>1583.0</ele>
  <time>2026-08-28T17:50:09Z</time>
  <course>247.9</course>
  <speed>0.022360679774997897</speed>
  <fix>3d</fix>
</trkpt>
<trkpt lat="40.0713749" lon="-105.229789">
  <ele>1583.0</ele>
  <time>2026-08-28T17:50:09Z</time>
  <course>0.0</course>
  <speed>0.0</speed>
  <fix>3d</fix>
</trkpt>
<trkpt lat="40.0713749" lon="-105.229789">
  <ele>1583.0</ele>
  <time>2026-08-28T17:50:09Z</time>
  <course>247.89</course>
  <speed>0.022360679774997897</speed>
  <fix>3d</fix>
</trkpt>
<trkpt lat="40.0713749" lon="-105.229789">
  <ele>1583.0</ele>
  <time>2026-08-28T17:50:09Z</time>
  <course>0.0</course>
  <speed>0.0</speed>
  <fix>3d</fix>
</trkpt>
<trkpt lat="40.0713749" lon="-105.229789">
  <ele>1583.0</ele>
  <time>2026-08-28T17:50:09Z</time>
  <course>247.89</course>
  <speed>0.022360679774997897</speed>
  <fix>3d</fix>
</trkpt>
<trkpt lat="40.0713749" lon="-105.229789">
  <ele>1583.0</ele>
  <time>2026-08-28T17:50:09Z</time>
  <course>0.0</course>
  <speed>0.0</speed>
  <fix>3d</fix>
</trkpt>
<trkpt lat="40.0713749" lon="-105.229789">
  <ele>1583.0</ele>
  <time>2026-08-28T17:50:09Z</time>
  <course>247.89</course>
  <speed>0.022360679774997897</speed>
  <fix>3d</fix>
</trkpt>
<trkpt lat="40.0713749" lon="-105.229789">
  <ele>1583.0</ele>
  <time>2026-08-28T17:50:09Z</time>
  <course>0.0</course>
  <speed>0.0</speed>
  <fix>3d</fix>
</trkpt>
<trkpt lat="40.0713749" lon="-105.229789">
  <ele>1583.0</ele>
  <time>2026-08-28T17:50:09Z</time>
  <course>247.88</course>
  <speed>0.0316227766016838</speed>
  <fix>3d</fix>
</trkpt>
<trkpt lat="40.0713749" lon="-105.229789">
  <ele>1583.0</ele>
  <time>2026-08-28T17:50:09Z</time>
  <course>0.0</course>
  <speed>0.0</speed>
  <fix>3d</fix>
</trkpt>
<trkpt lat="40.0713749" lon="-105.229789">
  <ele>1583.0</ele>
  <time>2026-08-28T17:50:09Z</time>
  <course>247.88</course>
  <speed>0.0316227766016838</speed>
  <fix>3d</fix>
</trkpt>
<trkpt lat="40.0713749" lon="-105.229789">
  <ele>1583.0</ele>
  <time>2026-08-28T17:50:09Z</time>
  <course>0.0</course>
  <speed>0.0</speed>
  <fix>3d</fix>
</trkpt>
<trkpt lat="40.0713749" lon="-105.229789">
  <ele>1583.0</ele>
  <time>2026-08-28T17:50:09Z</time>
  <course>247.87</course>
  <speed>0.0316227766016838</speed>
  <fix>3d</fix>
</trkpt>
<trkpt lat="40.0713749" lon="-105.229789">
  <ele>1583.0</ele>
  <time>2026-08-28T17:50:09Z</time>
  <course>0.0</course>
  <speed>0.0</speed>
  <fix>3d</fix>
</trkpt>
<trkpt lat="40.0713749" lon="-105.229789">
  <ele>1583.0</ele>
  <time>2026-08-28T17:50:09Z</time>
  <course>247.87</course>
  <speed>0.0316227766016838</speed>
  <fix>3d</fix>
</trkpt>
<trkpt lat="40.0713749" lon="-105.229789">
  <ele>1583.0</ele>
  <time>2026-08-28T17:50:09Z</time>
  <course>0.0</course>
  <speed>0.0</speed>
  <fix>3d</fix>
</trkpt>
<trkpt lat="40.0713749" lon="-105.229789">
  <ele>1583.0</ele>
  <time>2026-08-28T17:50:09Z</time>
  <course>247.87</course>
  <speed>0.0316227766016838</speed>
  <fix>3d</fix>
</trkpt>
<trkpt lat="40.0713749" lon="-105.229789">
  <ele>1583.0</ele>
  <time>2026-08-28T17:50:09Z</time>
  <course>0.0</course>
  <speed>0.0</speed>
  <fix>3d</fix>
</trkpt>
<trkpt lat="40.0713749" lon="-105.229789">
  <ele>1583.0</ele>
  <time>2026-08-28T17:50:09Z</time>
  <course>247.86</course>
  <speed>0.0316227766016838</speed>
  <fix>3d</fix>
</trkpt>
<trkpt lat="40.0713749" lon="-105.229789">
  <ele>1583.0</ele>
  <time>2026-08-28T17:50:09Z</time>
  <course>0.0</course>
  <speed>0.0</speed>
  <fix>3d</fix>
</trkpt>
<trkpt lat="40.0713749" lon="-105.229789">
  <ele>1583.0</ele>
  <time>2026-08-28T17:50:09Z</time>
  <course>247.86</course>
  <speed>0.0316227766016838</speed>
  <fix>3d</fix>
</trkpt>
<trkpt lat="40.0713749" lon="-105.229789">
  <ele>1583.0</ele>
  <time>2026-08-28T17:50:09Z</time>
  <course>0.0</course>
  <speed>0.0</speed>
  <fix>3d</fix>
</trkpt>
<trkpt lat="40.0713749" lon="-105.229789">
  <ele>1583.0</ele>
  <time>2026-08-28T17:50:09Z</time>
  <course>247.85</course>
  <speed>0.0316227766016838</speed>
  <fix>3d</fix>
</trkpt>
<trkpt lat="40.0713749" lon="-105.229789">
  <ele>1583.0</ele>
  <time>2026-08-28T17:50:09Z</time>
  <course>0.0</course>
  <speed>0.0</speed>
  <fix>3d</fix>
</trkpt>
<trkpt lat="40.0713749" lon="-105.229789">
  <ele>1583.0</ele>
  <time>2026-08-28T17:50:09Z</time>
  <course>247.85</course>
  <speed>0.0316227766016838</speed>
  <fix>3d</fix>
</trkpt>
<trkpt lat="40.0713749" lon="-105.229789">
  <ele>1583.0</ele>
  <time>2026-08-28T17:50:09Z</time>
  <course>0.0</course>
  <speed>0.0</speed>
  <fix>3d</fix>
</trkpt>
<trkpt lat="40.0713749" lon="-105.229789">
  <ele>1583.0</ele>
  <time>2026-08-28T17:50:09Z</time>
  <course>247.85</course>
  <speed>0.0316227766016838</speed>
  <fix>3d</fix>
</trkpt>
<trkpt lat="40.0713749" lon="-105.229789">
  <ele>1583.0</ele>
  <time>2026-08-28T17:50:09Z</time>
  <course>0.0</course>
  <speed>0.0</speed>
  <fix>3d</fix>
</trkpt>
<trkpt lat="40.0713749" lon="-105.229789">
  <ele>1583.0</ele>
  <time>2026-08-28T17:50:09Z</time>
  <course>247.84</course>
  <speed>0.0316227766016838</speed>
  <fix>3d</fix>
</trkpt>
<trkpt lat="40.0713749" lon="-105.229789">
  <ele>1583.0</ele>
  <time>2026-08-28T17:50:09Z</time>
  <course>0.0</course>
  <speed>0.0</speed>
  <fix>3d</fix>
</trkpt>
<trkpt lat="40.0713749" lon="-105.229789">
  <ele>1583.0</ele>
  <time>2026-08-28T17:50:09Z</time>
  <course>247.84</course>
  <speed>0.0316227766016838</speed>
  <fix>3d</fix>
</trkpt>
<trkpt lat="40.0713749" lon="-105.229789">
  <ele>1583.0</ele>
  <time>2026-08-28T17:50:09Z</time>
  <course>0.0</course>
  <speed>0.0</speed>
  <fix>3d</fix>
</trkpt>
<trkpt lat="40.0713749" lon="-105.229789">
  <ele>1583.0</ele>
  <time>2026-08-28T17:50:09Z</time>
  <course>247.83</course>
  <speed>0.0316227766016838</speed>
  <fix>3d</fix>
</trkpt>
<trkpt lat="40.0713749" lon="-105.229789">
  <ele>1583.0</ele>
  <time>2026-08-28T17:50:09Z</time>
  <course>0.0</course>
  <speed>0.0</speed>
  <fix>3d</fix>
</trkpt>
<trkpt lat="40.0713749" lon="-105.229789">
  <ele>1583.0</ele>
  <time>2026-08-28T17:50:09Z</time>
  <course>247.83</course>
  <speed>0.0316227766016838</speed>
  <fix>3d</fix>
</trkpt>
<trkpt lat="40.0713749" lon="-105.229789">
  <ele>1583.0</ele>
  <time>2026-08-28T17:50:09Z</time>
  <course>0.0</course>
  <speed>0.0</speed>
  <fix>3d</fix>
</trkpt>
<trkpt lat="40.0713749" lon="-105.229789">
  <ele>1583.0</ele>
  <time>2026-08-28T17:50:09Z</time>
  <course>247.83</course>
  <speed>0.0316227766016838</speed>
  <fix>3d</fix>
</trkpt>
<trkpt lat="40.0713749" lon="-105.229789">
  <ele>1583.0</ele>
  <time>2026-08-28T17:50:09Z</time>
  <course>0.0</course>
  <speed>0.0</speed>
  <fix>3d</fix>
</trkpt>
<trkpt lat="40.0713749" lon="-105.229789">
  <ele>1583.0</ele>
  <time>2026-08-28T17:50:09Z</time>
  <course>247.82</course>
  <speed>0.0316227766016838</speed>
  <fix>3d</fix>
</trkpt>
<trkpt lat="40.0713749" lon="-105.229789">
  <ele>1583.0</ele>
  <time>2026-08-28T17:50:09Z</time>
  <course>0.0</course>
  <speed>0.0</speed>
  <fix>3d</fix>
</trkpt>
<trkpt lat="40.0713749" lon="-105.229789">
  <ele>1583.0</ele>
  <time>2026-08-28T17:50:09Z</time>
  <course>247.82</course>
  <speed>0.0316227766016838</speed>
  <fix>3d</fix>
</trkpt>
<trkpt lat="40.0713749" lon="-105.229789">
  <ele>1583.0</ele>
  <time>2026-08-28T17:50:09Z</time>
  <course>0.0</course>
  <speed>0.0</speed>
  <fix>3d</fix>
</trkpt>
<trkpt lat="40.0713749" lon="-105.229789">
  <ele>1583.0</ele>
  <time>2026-08-28T17:50:09Z</time>
  <course>247.82</course>
  <speed>0.0316227766016838</speed>
  <fix>3d</fix>
</trkpt>
<trkpt lat="40.0713749" lon="-105.229789">
  <ele>1583.0</ele>
  <time>2026-08-28T17:50:09Z</time>
  <course>0.0</course>
  <speed>0.0</speed>
  <fix>3d</fix>
</trkpt>
<trkpt lat="40.0713749" lon="-105.229789">
  <ele>1583.0</ele>
  <time>2026-08-28T17:50:09Z</time>
  <course>247.81</course>
  <speed>0.0316227766016838</speed>
  <fix>3d</fix>
</trkpt>
<trkpt lat="40.0713749" lon="-105.229789">
  <ele>1583.0</ele>
  <time>2026-08-28T17:50:09Z</time>
  <course>0.0</course>
  <speed>0.0</speed>
  <fix>3d</fix>
</trkpt>
<trkpt lat="40.0713749" lon="-105.229789">
  <ele>1583.0</ele>
  <time>2026-08-28T17:50:09Z</time>
  <course>247.81</course>
  <speed>0.0316227766016838</speed>
  <fix>3d</fix>
</trkpt>
<trkpt lat="40.0713749" lon="-105.229789">
  <ele>1583.0</ele>
  <time>2026-08-28T17:50:09Z</time>
  <course>0.0</course>
  <speed>0.0</speed>
  <fix>3d</fix>
</trkpt>
<trkpt lat="40.0713749" lon="-105.229789">
  <ele>1583.0</ele>
  <time>2026-08-28T17:50:09Z</time>
  <course>247.8</course>
  <speed>0.0316227766016838</speed>
  <fix>3d</fix>
</trkpt>
<trkpt lat="40.0713749" lon="-105.229789">
  <ele>1583.0</ele>
  <time>2026-08-28T17:50:09Z</time>
  <course>0.0</course>
  <speed>0.0</speed>
  <fix>3d</fix>
</trkpt>
<trkpt lat="40.0713749" lon="-105.229789">
  <ele>1583.0</ele>
  <time>2026-08-28T17:50:09Z</time>
  <course>247.8</course>
  <speed>0.0316227766016838</speed>
  <fix>3d</fix>
</trkpt>
<trkpt lat="40.0713749" lon="-105.229789">
  <ele>1583.0</ele>
  <time>2026-08-28T17:50:09Z</time>
  <course>0.0</course>
  <speed>0.0</speed>
  <fix>3d</fix>
</trkpt>
<trkpt lat="40.0713749" lon="-105.229789">
  <ele>1583.0</ele>
  <time>2026-08-28T17:50:09Z</time>
  <course>247.8</course>
  <speed>0.0316227766016838</speed>
  <fix>3d</fix>
</trkpt>
<trkpt lat="40.0713749" lon="-105.229789">
  <ele>1583.0</ele>
  <time>2026-08-28T17:50:09Z</time>
  <course>0.0</course>
  <speed>0.0</speed>
  <fix>3d</fix>
</trkpt>
<trkpt lat="40.0713749" lon="-105.229789">
  <ele>1583.0</ele>
  <time>2026-08-28T17:50:09Z</time>
  <course>247.79</course>
  <speed>0.0316227766016838</speed>
  <fix>3d</fix>
</trkpt>
<trkpt lat="40.0713749" lon="-105.229789">
  <ele>1583.0</ele>
  <time>2026-08-28T17:50:09Z</time>
  <course>0.0</course>
  <speed>0.0</speed>
  <fix>3d</fix>
</trkpt>
<trkpt lat="40.0713749" lon="-105.229789">
  <ele>1583.0</ele>
  <time>2026-08-28T17:50:09Z</time>
  <course>247.79</course>
  <speed>0.0316227766016838</speed>
  <fix>3d</fix>
</trkpt>
<trkpt lat="40.0713749" lon="-105.229789">
  <ele>1583.0</ele>
  <time>2026-08-28T17:50:09Z</time>
  <course>0.0</course>
  <speed>0.0</speed>
  <fix>3d</fix>
</trkpt>
<trkpt lat="40.0713749" lon="-105.229789">
  <ele>1583.0</ele>
  <time>2026-08-28T17:50:09Z</time>
  <course>247.79</course>
  <speed>0.0316227766016838</speed>
  <fix>3d</fix>
</trkpt>
<trkpt lat="40.0713749" lon="-105.229789">
  <ele>1583.0</ele>
  <time>2026-08-28T17:50:09Z</time>
  <course>0.0</course>
  <speed>0.0</speed>
  <fix>3d</fix>
</trkpt>
<trkpt lat="40.0713749" lon="-105.229789">
  <ele>1583.0</ele>
  <time>2026-08-28T17:50:09Z</time>
  <course>247.78</course>
  <speed>0.0316227766016838</speed>
  <fix>3d</fix>
</trkpt>
<trkpt lat="40.0713749" lon="-105.229789">
  <ele>1583.0</ele>
  <time>2026-08-28T17:50:09Z</time>
  <course>0.0</course>
  <speed>0.0</speed>
  <fix>3d</fix>
</trkpt>
<trkpt lat="40.0713749" lon="-105.229789">
  <ele>1583.0</ele>
  <time>2026-08-28T17:50:09Z</time>
  <course>247.78</course>
  <speed>0.0316227766016838</speed>
  <fix>3d</fix>
</trkpt>
<trkpt lat="40.0713749" lon="-105.229789">
  <ele>1583.0</ele>
  <time>2026-08-28T17:50:09Z</time>
  <course>0.0</course>
  <speed>0.0</speed>
  <fix>3d</fix>
</trkpt>
<trkpt lat="40.0713749" lon="-105.229789">
  <ele>1583.0</ele>
  <time>2026-08-28T17:50:09Z</time>
  <course>247.78</course>
  <speed>0.0316227766016838</speed>
  <fix>3d</fix>
</trkpt>
<trkpt lat="40.0713749" lon="-105.229789">
  <ele>1583.0</ele>
  <time>2026-08-28T17:50:09Z</time>
  <course>0.0</course>
  <speed>0.0</speed>
  <fix>3d</fix>
</trkpt>
<trkpt lat="40.0713749" lon="-105.229789">
  <ele>1583.0</ele>
  <time>2026-08-28T17:50:09Z</time>
  <course>247.77</course>
  <speed>0.0316227766016838</speed>
  <fix>3d</fix>
</trkpt>
<trkpt lat="40.0713749" lon="-105.229789">
  <ele>1583.0</ele>
  <time>2026-08-28T17:50:09Z</time>
  <course>0.0</course>
  <speed>0.0</speed>
  <fix>3d</fix>
</trkpt>
<trkpt lat="40.0713749" lon="-105.229789">
  <ele>1583.0</ele>
  <time>2026-08-28T17:50:09Z</time>
  <course>247.77</course>
  <speed>0.0316227766016838</speed>
  <fix>3d</fix>
</trkpt>
<trkpt lat="40.0713749" lon="-105.229789">
  <ele>1583.0</ele>
  <time>2026-08-28T17:50:09Z</time>
  <course>0.0</course>
  <speed>0.0</speed>
  <fix>3d</fix>
</trkpt>
<trkpt lat="40.0713749" lon="-105.229789">
  <ele>1583.0</ele>
  <time>2026-08-28T17:50:09Z</time>
  <course>247.76</course>
  <speed>0.0316227766016838</speed>
  <fix>3d</fix>
</trkpt>
<trkpt lat="40.0713749" lon="-105.229789">
  <ele>1583.0</ele>
  <time>2026-08-28T17:50:09Z</time>
  <course>0.0</course>
  <speed>0.0</speed>
  <fix>3d</fix>
</trkpt>
<trkpt lat="40.0713749" lon="-105.229789">
  <ele>1583.0</ele>
  <time>2026-08-28T17:50:09Z</time>
  <course>247.76</course>
  <speed>0.0316227766016838</speed>
  <fix>3d</fix>
</trkpt>
<trkpt lat="40.0713749" lon="-105.229789">
  <ele>1583.0</ele>
  <time>2026-08-28T17:50:09Z</time>
  <course>0.0</course>
  <speed>0.0</speed>
  <fix>3d</fix>
</trkpt>
<trkpt lat="40.0713749" lon="-105.229789">
  <ele>1583.0</ele>
  <time>2026-08-28T17:50:09Z</time>
  <course>247.76</course>
  <speed>0.0316227766016838</speed>
  <fix>3d</fix>
</trkpt>
<trkpt lat="40.0713749" lon="-105.229789">
  <ele>1583.0</ele>
  <time>2026-08-28T17:50:09Z</time>
  <course>0.0</course>
  <speed>0.0</speed>
  <fix>3d</fix>
</trkpt>
<trkpt lat="40.0713749" lon="-105.229789">
  <ele>1583.0</ele>
  <time>2026-08-28T17:50:09Z</time>
  <course>247.75</course>
  <speed>0.0316227766016838</speed>
  <fix>3d</fix>
</trkpt>
<trkpt lat="40.0713749" lon="-105.229789">
  <ele>1583.0</ele>
  <time>2026-08-28T17:50:09Z</time>
  <course>0.0</course>
  <speed>0.0</speed>
  <fix>3d</fix>
</trkpt>
<trkpt lat="40.0713749" lon="-105.229789">
  <ele>1583.0</ele>
  <time>2026-08-28T17:50:09Z</time>
  <course>247.75</course>
  <speed>0.0316227766016838</speed>
  <fix>3d</fix>
</trkpt>
<trkpt lat="40.0713749" lon="-105.229789">
  <ele>1583.0</ele>
  <time>2026-08-28T17:50:09Z</time>
  <course>0.0</course>
  <speed>0.0</speed>
  <fix>3d</fix>
</trkpt>
<trkpt lat="40.0713749" lon="-105.229789">
  <ele>1583.0</ele>
  <time>2026-08-28T17:50:09Z</time>
  <course>247.75</course>
  <speed>0.0316227766016838</speed>
  <fix>3d</fix>
</trkpt>
<trkpt lat="40.0713749" lon="-105.229789">
  <ele>1583.0</ele>
  <time>2026-08-28T17:50:09Z</time>
  <course>0.0</course>
  <speed>0.0</speed>
  <fix>3d</fix>
</trkpt>
<trkpt lat="40.0713749" lon="-105.229789">
  <ele>1583.0</ele>
  <time>2026-08-28T17:50:09Z</time>
  <course>247.74</course>
  <speed>0.0316227766016838</speed>
  <fix>3d</fix>
</trkpt>
<trkpt lat="40.0713749" lon="-105.229789">
  <ele>1583.0</ele>
  <time>2026-08-28T17:50:09Z</time>
  <course>0.0</course>
  <speed>0.0</speed>
  <fix>3d</fix>
</trkpt>
<trkpt lat="40.0713749" lon="-105.229789">
  <ele>1583.0</ele>
  <time>2026-08-28T17:50:09Z</time>
  <course>247.74</course>
  <speed>0.0316227766016838</speed>
  <fix>3d</fix>
</trkpt>
<trkpt lat="40.0713749" lon="-105.229789">
  <ele>1583.0</ele>
  <time>2026-08-28T17:50:09Z</time>
  <course>0.0</course>
  <speed>0.0</speed>
  <fix>3d</fix>
</trkpt>
<trkpt lat="40.0713749" lon="-105.229789">
  <ele>1583.0</ele>
  <time>2026-08-28T17:50:09Z</time>
  <course>247.74</course>
  <speed>0.0316227766016838</speed>
  <fix>3d</fix>
</trkpt>
<trkpt lat="40.0713749" lon="-105.229789">
  <ele>1583.0</ele>
  <time>2026-08-28T17:50:09Z</time>
  <course>0.0</course>
  <speed>0.0</speed>
  <fix>3d</fix>
</trkpt>
<trkpt lat="40.0713749" lon="-105.229789">
  <ele>1583.0</ele>
  <time>2026-08-28T17:50:09Z</time>
  <course>247.73</course>
  <speed>0.0316227766016838</speed>
  <fix>3d</fix>
</trkpt>
<trkpt lat="40.0713749" lon="-105.229789">
  <ele>1583.0</ele>
  <time>2026-08-28T17:50:09Z</time>
  <course>0.0</course>
  <speed>0.0</speed>
  <fix>3d</fix>
</trkpt>
<trkpt lat="40.0713749" lon="-105.229789">
  <ele>1583.0</ele>
  <time>2026-08-28T17:50:09Z</time>
  <course>247.73</course>
  <speed>0.0316227766016838</speed>
  <fix>3d</fix>
</trkpt>
<trkpt lat="40.0713749" lon="-105.229789">
  <ele>1583.0</ele>
  <time>2026-08-28T17:50:09Z</time>
  <course>0.0</course>
  <speed>0.0</speed>
  <fix>3d</fix>
</trkpt>
<trkpt lat="40.0713749" lon="-105.229789">
  <ele>1583.0</ele>
  <time>2026-08-28T17:50:09Z</time>
  <course>247.73</course>
  <speed>0.0316227766016838</speed>
  <fix>3d</fix>
</trkpt>
<trkpt lat="40.0713749" lon="-105.229789">
  <ele>1583.0</ele>
  <time>2026-08-28T17:50:09Z</time>
  <course>0.0</course>
  <speed>0.0</speed>
  <fix>3d</fix>
</trkpt>
<trkpt lat="40.0713749" lon="-105.229789">
  <ele>1583.0</ele>
  <time>2026-08-28T17:50:09Z</time>
  <course>247.72</course>
  <speed>0.0316227766016838</speed>
  <fix>3d</fix>
</trkpt>
<trkpt lat="40.0713749" lon="-105.229789">
  <ele>1583.0</ele>
  <time>2026-08-28T17:50:09Z</time>
  <course>0.0</course>
  <speed>0.0</speed>
  <fix>3d</fix>
</trkpt>
<trkpt lat="40.0713749" lon="-105.229789">
  <ele>1583.0</ele>
  <time>2026-08-28T17:50:09Z</time>
  <course>247.72</course>
  <speed>0.0316227766016838</speed>
  <fix>3d</fix>
</trkpt>
<trkpt lat="40.0713749" lon="-105.229789">
  <ele>1583.0</ele>
  <time>2026-08-28T17:50:09Z</time>
  <course>0.0</course>
  <speed>0.0</speed>
  <fix>3d</fix>
</trkpt>
<trkpt lat="40.0713749" lon="-105.229789">
  <ele>1583.0</ele>
  <time>2026-08-28T17:50:09Z</time>
  <course>247.72</course>
  <speed>0.0316227766016838</speed>
  <fix>3d</fix>
</trkpt>
<trkpt lat="40.0713749" lon="-105.229789">
  <ele>1583.0</ele>
  <time>2026-08-28T17:50:09Z</time>
  <course>0.0</course>
  <speed>0.0</speed>
  <fix>3d</fix>
</trkpt>
<trkpt lat="40.0713749" lon="-105.229789">
  <ele>1583.0</ele>
  <time>2026-08-28T17:50:09Z</time>
  <course>247.71</course>
  <speed>0.0316227766016838</speed>
  <fix>3d</fix>
</trkpt>
<trkpt lat="40.0713749" lon="-105.229789">
  <ele>1583.0</ele>
  <time>2026-08-28T17:50:09Z</time>
  <course>0.0</course>
  <speed>0.0</speed>
  <fix>3d</fix>
</trkpt>
<trkpt lat="40.0713749" lon="-105.229789">
  <ele>1583.0</ele>
  <time>2026-08-28T17:50:09Z</time>
  <course>247.71</course>
  <speed>0.0316227766016838</speed>
  <fix>3d</fix>
</trkpt>
<trkpt lat="40.0713749" lon="-105.229789">
  <ele>1583.0</ele>
  <time>2026-08-28T17:50:09Z</time>
  <course>0.0</course>
  <speed>0.0</speed>
  <fix>3d</fix>
</trkpt>
<trkpt lat="40.0713749" lon="-105.229789">
  <ele>1583.0</ele>
  <time>2026-08-28T17:50:09Z</time>
  <course>247.71</course>
  <speed>0.0316227766016838</speed>
  <fix>3d</fix>
</trkpt>
<trkpt lat="40.0713749" lon="-105.229789">
  <ele>1583.0</ele>
  <time>2026-08-28T17:50:09Z</time>
  <course>0.0</course>
  <speed>0.0</speed>
  <fix>3d</fix>
</trkpt>
<trkpt lat="40.0713749" lon="-105.229789">
  <ele>1583.0</ele>
  <time>2026-08-28T17:50:09Z</time>
  <course>247.7</course>
  <speed>0.0316227766016838</speed>
  <fix>3d</fix>
</trkpt>
<trkpt lat="40.0713749" lon="-105.229789">
  <ele>1583.0</ele>
  <time>2026-08-28T17:50:09Z</time>
  <course>0.0</course>
  <speed>0.0</speed>
  <fix>3d</fix>
</trkpt>
<trkpt lat="40.0713749" lon="-105.229789">
  <ele>1583.0</ele>
  <time>2026-08-28T17:50:09Z</time>
  <course>247.7</course>
  <speed>0.0316227766016838</speed>
  <fix>3d</fix>
</trkpt>
<trkpt lat="40.0713749" lon="-105.229789">
  <ele>1583.0</ele>
  <time>2026-08-28T17:50:09Z</time>
  <course>0.0</course>
  <speed>0.0</speed>
  <fix>3d</fix>
</trkpt>
<trkpt lat="40.0713749" lon="-105.229789">
  <ele>1583.0</ele>
  <time>2026-08-28T17:50:09Z</time>
  <course>247.7</course>
  <speed>0.0316227766016838</speed>
  <fix>3d</fix>
</trkpt>
<trkpt lat="40.0713749" lon="-105.229789">
  <ele>1583.0</ele>
  <time>2026-08-28T17:50:09Z</time>
  <course>0.0</course>
  <speed>0.0</speed>
  <fix>3d</fix>
</trkpt>
<trkpt lat="40.0713749" lon="-105.229789">
  <ele>1583.0</ele>
  <time>2026-08-28T17:50:09Z</time>
  <course>247.69</course>
  <speed>0.0316227766016838</speed>
  <fix>3d</fix>
</trkpt>
<trkpt lat="40.0713749" lon="-105.229789">
  <ele>1583.0</ele>
  <time>2026-08-28T17:50:09Z</time>
  <course>0.0</course>
  <speed>0.0</speed>
  <fix>3d</fix>
</trkpt>
<trkpt lat="40.0713749" lon="-105.229789">
  <ele>1583.0</ele>
  <time>2026-08-28T17:50:09Z</time>
  <course>247.69</course>
  <speed>0.0316227766016838</speed>
  <fix>3d</fix>
</trkpt>
<trkpt lat="40.0713749" lon="-105.229789">
  <ele>1583.0</ele>
  <time>2026-08-28T17:50:09Z</time>
  <course>0.0</course>
  <speed>0.0</speed>
  <fix>3d</fix>
</trkpt>
<trkpt lat="40.0713749" lon="-105.229789">
  <ele>1583.0</ele>
  <time>2026-08-28T17:50:09Z</time>
  <course>247.69</course>
  <speed>0.0316227766016838</speed>
  <fix>3d</fix>
</trkpt>
<trkpt lat="40.0713749" lon="-105.229789">
  <ele>1583.0</ele>
  <time>2026-08-28T17:50:09Z</time>
  <course>0.0</course>
  <speed>0.0</speed>
  <fix>3d</fix>
</trkpt>
<trkpt lat="40.0713749" lon="-105.229789">
  <ele>1583.0</ele>
  <time>2026-08-28T17:50:09Z</time>
  <course>247.68</course>
  <speed>0.0316227766016838</speed>
  <fix>3d</fix>
</trkpt>
<trkpt lat="40.0713749" lon="-105.229789">
  <ele>1583.0</ele>
  <time>2026-08-28T17:50:09Z</time>
  <course>0.0</course>
  <speed>0.0</speed>
  <fix>3d</fix>
</trkpt>
<trkpt lat="40.0713749" lon="-105.229789">
  <ele>1583.0</ele>
  <time>2026-08-28T17:50:09Z</time>
  <course>247.68</course>
  <speed>0.0316227766016838</speed>
  <fix>3d</fix>
</trkpt>
<trkpt lat="40.0713749" lon="-105.229789">
  <ele>1583.0</ele>
  <time>2026-08-28T17:50:09Z</time>
  <course>0.0</course>
  <speed>0.0</speed>
  <fix>3d</fix>
</trkpt>
<trkpt lat="40.0713749" lon="-105.229789">
  <ele>1583.0</ele>
  <time>2026-08-28T17:50:09Z</time>
  <course>247.68</course>
  <speed>0.0316227766016838</speed>
  <fix>3d</fix>
</trkpt>
<trkpt lat="40.0713749" lon="-105.229789">
  <ele>1583.0</ele>
  <time>2026-08-28T17:50:09Z</time>
  <course>0.0</course>
  <speed>0.0</speed>
  <fix>3d</fix>
</trkpt>
<trkpt lat="40.0713749" lon="-105.229789">
  <ele>1583.0</ele>
  <time>2026-08-28T17:50:09Z</time>
  <course>247.67</course>
  <speed>0.0316227766016838</speed>
  <fix>3d</fix>
</trkpt>
<trkpt lat="40.0713749" lon="-105.229789">
  <ele>1583.0</ele>
  <time>2026-08-28T17:50:09Z</time>
  <course>0.0</course>
  <speed>0.0</speed>
  <fix>3d</fix>
</trkpt>
<trkpt lat="40.0713749" lon="-105.229789">
  <ele>1583.0</ele>
  <time>2026-08-28T17:50:09Z</time>
  <course>247.67</course>
  <speed>0.0316227766016838</speed>
  <fix>3d</fix>
</trkpt>
<trkpt lat="40.0713749" lon="-105.229789">
  <ele>1583.0</ele>
  <time>2026-08-28T17:50:09Z</time>
  <course>0.0</course>
  <speed>0.0</speed>
  <fix>3d</fix>
</trkpt>
<trkpt lat="40.0713749" lon="-105.229789">
  <ele>1583.0</ele>
  <time>2026-08-28T17:50:09Z</time>
  <course>247.67</course>
  <speed>0.0316227766016838</speed>
  <fix>3d</fix>
</trkpt>
<trkpt lat="40.0713749" lon="-105.229789">
  <ele>1583.0</ele>
  <time>2026-08-28T17:50:09Z</time>
  <course>0.0</course>
  <speed>0.0</speed>
  <fix>3d</fix>
</trkpt>
<trkpt lat="40.0713749" lon="-105.229789">
  <ele>1583.0</ele>
  <time>2026-08-28T17:50:09Z</time>
  <course>247.66</course>
  <speed>0.0316227766016838</speed>
  <fix>3d</fix>
</trkpt>
<trkpt lat="40.0713749" lon="-105.229789">
  <ele>1583.0</ele>
  <time>2026-08-28T17:50:09Z</time>
  <course>0.0</course>
  <speed>0.0</speed>
  <fix>3d</fix>
</trkpt>
<trkpt lat="40.0713749" lon="-105.229789">
  <ele>1583.0</ele>
  <time>2026-08-28T17:50:09Z</time>
  <course>247.66</course>
  <speed>0.0316227766016838</speed>
  <fix>3d</fix>
</trkpt>
<trkpt lat="40.0713749" lon="-105.229789">
  <ele>1583.0</ele>
  <time>2026-08-28T17:50:09Z</time>
  <course>0.0</course>
  <speed>0.0</speed>
  <fix>3d</fix>
</trkpt>
<trkpt lat="40.0713749" lon="-105.229789">
  <ele>1583.0</ele>
  <time>2026-08-28T17:50:09Z</time>
  <course>247.66</course>
  <speed>0.0316227766016838</speed>
  <fix>3d</fix>
</trkpt>
<trkpt lat="40.0713749" lon="-105.229789">
  <ele>1583.0</ele>
  <time>2026-08-28T17:50:09Z</time>
  <course>0.0</course>
  <speed>0.0</speed>
  <fix>3d</fix>
</trkpt>
<trkpt lat="40.0713749" lon="-105.229789">
  <ele>1583.0</ele>
  <time>2026-08-28T17:50:09Z</time>
  <course>247.65</course>
  <speed>0.0316227766016838</speed>
  <fix>3d</fix>
</trkpt>
<trkpt lat="40.0713749" lon="-105.229789">
  <ele>1583.0</ele>
  <time>2026-08-28T17:50:09Z</time>
  <course>0.0</course>
  <speed>0.0</speed>
  <fix>3d</fix>
</trkpt>
<trkpt lat="40.0713749" lon="-105.229789">
  <ele>1583.0</ele>
  <time>2026-08-28T17:50:09Z</time>
  <course>247.65</course>
  <speed>0.0316227766016838</speed>
  <fix>3d</fix>
</trkpt>
<trkpt lat="40.0713749" lon="-105.229789">
  <ele>1583.0</ele>
  <time>2026-08-28T17:50:09Z</time>
  <course>0.0</course>
  <speed>0.0</speed>
  <fix>3d</fix>
</trkpt>
<trkpt lat="40.0713749" lon="-105.229789">
  <ele>1583.0</ele>
  <time>2026-08-28T17:50:09Z</time>
  <course>247.65</course>
  <speed>0.0316227766016838</speed>
  <fix>3d</fix>
</trkpt>
<trkpt lat="40.0713749" lon="-105.229789">
  <ele>1583.0</ele>
  <time>2026-08-28T17:50:09Z</time>
  <course>0.0</course>
  <speed>0.0</speed>
  <fix>3d</fix>
</trkpt>
<trkpt lat="40.0713749" lon="-105.229789">
  <ele>1583.0</ele>
  <time>2026-08-28T17:50:09Z</time>
  <course>247.64</course>
  <speed>0.0316227766016838</speed>
  <fix>3d</fix>
</trkpt>
<trkpt lat="40.0713749" lon="-105.229789">
  <ele>1583.0</ele>
  <time>2026-08-28T17:50:09Z</time>
  <course>0.0</course>
  <speed>0.0</speed>
  <fix>3d</fix>
</trkpt>
<trkpt lat="40.0713749" lon="-105.229789">
  <ele>1583.0</ele>
  <time>2026-08-28T17:50:09Z</time>
  <course>247.64</course>
  <speed>0.0316227766016838</speed>
  <fix>3d</fix>
</trkpt>
<trkpt lat="40.0713749" lon="-105.229789">
  <ele>1583.0</ele>
  <time>2026-08-28T17:50:09Z</time>
  <course>0.0</course>
  <speed>0.0</speed>
  <fix>3d</fix>
</trkpt>
<trkpt lat="40.0713749" lon="-105.229789">
  <ele>1583.0</ele>
  <time>2026-08-28T17:50:09Z</time>
  <course>247.64</course>
  <speed>0.0316227766016838</speed>
  <fix>3d</fix>
</trkpt>
<trkpt lat="40.0713749" lon="-105.229789">
  <ele>1583.0</ele>
  <time>2026-08-28T17:50:09Z</time>
  <course>0.0</course>
  <speed>0.0</speed>
  <fix>3d</fix>
</trkpt>
<trkpt lat="40.0713749" lon="-105.229789">
  <ele>1583.0</ele>
  <time>2026-08-28T17:50:09Z</time>
  <course>247.64</course>
  <speed>0.0316227766016838</speed>
  <fix>3d</fix>
</trkpt>
<trkpt lat="40.0713749" lon="-105.229789">
  <ele>1583.0</ele>
  <time>2026-08-28T17:50:09Z</time>
  <course>0.0</course>
  <speed>0.0</speed>
  <fix>3d</fix>
</trkpt>
<trkpt lat="40.0713749" lon="-105.229789">
  <ele>1583.0</ele>
  <time>2026-08-28T17:50:09Z</time>
  <course>247.63</course>
  <speed>0.0316227766016838</speed>
  <fix>3d</fix>
</trkpt>
<trkpt lat="40.0713749" lon="-105.229789">
  <ele>1583.0</ele>
  <time>2026-08-28T17:50:09Z</time>
  <course>0.0</course>
  <speed>0.0</speed>
  <fix>3d</fix>
</trkpt>
<trkpt lat="40.0713749" lon="-105.229789">
  <ele>1583.0</ele>
  <time>2026-08-28T17:50:09Z</time>
  <course>247.63</course>
  <speed>0.0316227766016838</speed>
  <fix>3d</fix>
</trkpt>
<trkpt lat="40.0713749" lon="-105.229789">
  <ele>1583.0</ele>
  <time>2026-08-28T17:50:09Z</time>
  <course>0.0</course>
  <speed>0.0</speed>
  <fix>3d</fix>
</trkpt>
<trkpt lat="40.0713749" lon="-105.229789">
  <ele>1583.0</ele>
  <time>2026-08-28T17:50:09Z</time>
  <course>247.63</course>
  <speed>0.0316227766016838</speed>
  <fix>3d</fix>
</trkpt>
<trkpt lat="40.0713749" lon="-105.229789">
  <ele>1583.0</ele>
  <time>2026-08-28T17:50:09Z</time>
  <course>0.0</course>
  <speed>0.0</speed>
  <fix>3d</fix>
</trkpt>
<trkpt lat="40.0713749" lon="-105.229789">
  <ele>1583.0</ele>
  <time>2026-08-28T17:50:09Z</time>
  <course>247.62</course>
  <speed>0.0316227766016838</speed>
  <fix>3d</fix>
</trkpt>
<trkpt lat="40.0713749" lon="-105.229789">
  <ele>1583.0</ele>
  <time>2026-08-28T17:50:09Z</time>
  <course>0.0</course>
  <speed>0.0</speed>
  <fix>3d</fix>
</trkpt>
<trkpt lat="40.0713749" lon="-105.229789">
  <ele>1583.0</ele>
  <time>2026-08-28T17:50:09Z</time>
  <course>247.62</course>
  <speed>0.0316227766016838</speed>
  <fix>3d</fix>
</trkpt>
<trkpt lat="40.0713749" lon="-105.229789">
  <ele>1583.0</ele>
  <time>2026-08-28T17:50:09Z</time>
  <course>0.0</course>
  <speed>0.0</speed>
  <fix>3d</fix>
</trkpt>
<trkpt lat="40.0713749" lon="-105.229789">
  <ele>1583.0</ele>
  <time>2026-08-28T17:50:09Z</time>
  <course>247.62</course>
  <speed>0.0316227766016838</speed>
  <fix>3d</fix>
</trkpt>
<trkpt lat="40.0713749" lon="-105.229789">
  <ele>1583.0</ele>
  <time>2026-08-28T17:50:09Z</time>
  <course>0.0</course>
  <speed>0.0</speed>
  <fix>3d</fix>
</trkpt>
<trkpt lat="40.0713749" lon="-105.229789">
  <ele>1583.0</ele>
  <time>2026-08-28T17:50:09Z</time>
  <course>247.62</course>
  <speed>0.0316227766016838</speed>
  <fix>3d</fix>
</trkpt>
<trkpt lat="40.0713749" lon="-105.229789">
  <ele>1583.0</ele>
  <time>2026-08-28T17:50:09Z</time>
  <course>0.0</course>
  <speed>0.0</speed>
  <fix>3d</fix>
</trkpt>
<trkpt lat="40.0713749" lon="-105.229789">
  <ele>1583.0</ele>
  <time>2026-08-28T17:50:09Z</time>
  <course>247.61</course>
  <speed>0.0316227766016838</speed>
  <fix>3d</fix>
</trkpt>
<trkpt lat="40.0713749" lon="-105.229789">
  <ele>1583.0</ele>
  <time>2026-08-28T17:50:09Z</time>
  <course>0.0</course>
  <speed>0.0</speed>
  <fix>3d</fix>
</trkpt>
<trkpt lat="40.0713749" lon="-105.229789">
  <ele>1583.0</ele>
  <time>2026-08-28T17:50:09Z</time>
  <course>247.61</course>
  <speed>0.0316227766016838</speed>
  <fix>3d</fix>
</trkpt>
<trkpt lat="40.0713749" lon="-105.229789">
  <ele>1583.0</ele>
  <time>2026-08-28T17:50:09Z</time>
  <course>0.0</course>
  <speed>0.0</speed>
  <fix>3d</fix>
</trkpt>
<trkpt lat="40.0713749" lon="-105.229789">
  <ele>1583.0</ele>
  <time>2026-08-28T17:50:09Z</time>
  <course>247.61</course>
  <speed>0.0316227766016838</speed>
  <fix>3d</fix>
</trkpt>
<trkpt lat="40.0713749" lon="-105.229789">
  <ele>1583.0</ele>
  <time>2026-08-28T17:50:09Z</time>
  <course>0.0</course>
  <speed>0.0</speed>
  <fix>3d</fix>
</trkpt>
<trkpt lat="40.0713749" lon="-105.229789">
  <ele>1583.0</ele>
  <time>2026-08-28T17:50:09Z</time>
  <course>247.6</course>
  <speed>0.0316227766016838</speed>
  <fix>3d</fix>
</trkpt>
<trkpt lat="40.0713749" lon="-105.229789">
  <ele>1583.0</ele>
  <time>2026-08-28T17:50:09Z</time>
  <course>0.0</course>
  <speed>0.0</speed>
  <fix>3d</fix>
</trkpt>
<trkpt lat="40.0713749" lon="-105.229789">
  <ele>1583.0</ele>
  <time>2026-08-28T17:50:09Z</time>
  <course>247.6</course>
  <speed>0.0316227766016838</speed>
  <fix>3d</fix>
</trkpt>
<trkpt lat="40.0713749" lon="-105.229789">
  <ele>1583.0</ele>
  <time>2026-08-28T17:50:09Z</time>
  <course>0.0</course>
  <speed>0.0</speed>
  <fix>3d</fix>
</trkpt>
<trkpt lat="40.0713749" lon="-105.229789">
  <ele>1583.0</ele>
  <time>2026-08-28T17:50:09Z</time>
  <course>247.6</course>
  <speed>0.0316227766016838</speed>
  <fix>3d</fix>
</trkpt>
<trkpt lat="40.0713749" lon="-105.229789">
  <ele>1583.0</ele>
  <time>2026-08-28T17:50:09Z</time>
  <course>0.0</course>
  <speed>0.0</speed>
  <fix>3d</fix>
</trkpt>
<trkpt lat="40.0713749" lon="-105.229789">
  <ele>1583.0</ele>
  <time>2026-08-28T17:50:09Z</time>
  <course>247.6</course>
  <speed>0.0316227766016838</speed>
  <fix>3d</fix>
</trkpt>
<trkpt lat="40.0713749" lon="-105.229789">
  <ele>1583.0</ele>
  <time>2026-08-28T17:50:09Z</time>
  <course>0.0</course>
  <speed>0.0</speed>
  <fix>3d</fix>
</trkpt>
<trkpt lat="40.0713749" lon="-105.229789">
  <ele>1583.0</ele>
  <time>2026-08-28T17:50:09Z</time>
  <course>247.59</course>
  <speed>0.0316227766016838</speed>
  <fix>3d</fix>
</trkpt>
<trkpt lat="40.0713749" lon="-105.229789">
  <ele>1583.0</ele>
  <time>2026-08-28T17:50:09Z</time>
  <course>0.0</course>
  <speed>0.0</speed>
  <fix>3d</fix>
</trkpt>
<trkpt lat="40.0713749" lon="-105.229789">
  <ele>1582.92</ele>
  <time>2026-08-28T17:50:09Z</time>
  <course>247.59</course>
  <speed>0.0</speed>
  <fix>3d</fix>
</trkpt>
<trkpt lat="40.0713749" lon="-105.229789">
  <ele>1583.0</ele>
  <time>2026-08-28T17:50:09Z</time>
  <course>0.0</course>
  <speed>0.0</speed>
  <fix>3d</fix>
</trkpt>
<trkpt lat="40.0713749" lon="-105.229789">
  <ele>1582.92</ele>
  <time>2026-08-28T17:50:09Z</time>
  <course>247.59</course>
  <speed>0.0</speed>
  <fix>3d</fix>
</trkpt>
<trkpt lat="40.0713749" lon="-105.229789">
  <ele>1583.0</ele>
  <time>2026-08-28T17:50:09Z</time>
  <course>0.0</course>
  <speed>0.0</speed>
  <fix>3d</fix>
</trkpt>
<trkpt lat="40.0713749" lon="-105.229789">
  <ele>1582.91</ele>
  <time>2026-08-28T17:50:09Z</time>
  <course>247.58</course>
  <speed>0.0</speed>
  <fix>3d</fix>
</trkpt>
<trkpt lat="40.0713749" lon="-105.229789">
  <ele>1583.0</ele>
  <time>2026-08-28T17:50:09Z</time>
  <course>0.0</course>
  <speed>0.0</speed>
  <fix>3d</fix>
</trkpt>
<trkpt lat="40.0713749" lon="-105.229789">
  <ele>1582.91</ele>
  <time>2026-08-28T17:50:09Z</time>
  <course>247.58</course>
  <speed>0.0</speed>
  <fix>3d</fix>
</trkpt>
<trkpt lat="40.0713749" lon="-105.229789">
  <ele>1583.0</ele>
  <time>2026-08-28T17:50:09Z</time>
  <course>0.0</course>
  <speed>0.0</speed>
  <fix>3d</fix>
</trkpt>
<trkpt lat="40.0713749" lon="-105.229789">
  <ele>1582.9</ele>
  <time>2026-08-28T17:50:09Z</time>
  <course>247.58</course>
  <speed>0.0</speed>
  <fix>3d</fix>
</trkpt>
<trkpt lat="40.0713749" lon="-105.229789">
  <ele>1583.0</ele>
  <time>2026-08-28T17:50:09Z</time>
  <course>0.0</course>
  <speed>0.0</speed>
  <fix>3d</fix>
</trkpt>
<trkpt lat="40.0713749" lon="-105.229789">
  <ele>1582.9</ele>
  <time>2026-08-28T17:50:09Z</time>
  <course>247.58</course>
  <speed>0.0</speed>
  <fix>3d</fix>
</trkpt>
<trkpt lat="40.0713749" lon="-105.229789">
  <ele>1583.0</ele>
  <time>2026-08-28T17:50:09Z</time>
  <course>0.0</course>
  <speed>0.0</speed>
  <fix>3d</fix>
</trkpt>
<trkpt lat="40.0713749" lon="-105.229789">
  <ele>1582.9</ele>
  <time>2026-08-28T17:50:09Z</time>
  <course>247.57</course>
  <speed>0.0</speed>
  <fix>3d</fix>
</trkpt>
<trkpt lat="40.0713749" lon="-105.229789">
  <ele>1583.0</ele>
  <time>2026-08-28T17:50:09Z</time>
  <course>0.0</course>
  <speed>0.0</speed>
  <fix>3d</fix>
</trkpt>
<trkpt lat="40.0713749" lon="-105.229789">
  <ele>1582.9</ele>
  <time>2026-08-28T17:50:09Z</time>
  <course>247.57</course>
  <speed>0.0</speed>
  <fix>3d</fix>
</trkpt>
<trkpt lat="40.0713749" lon="-105.229789">
  <ele>1583.0</ele>
  <time>2026-08-28T17:50:09Z</time>
  <course>0.0</course>
  <speed>0.0</speed>
  <fix>3d</fix>
</trkpt>
<trkpt lat="40.0713749" lon="-105.229789">
  <ele>1582.9</ele>
  <time>2026-08-28T17:50:09Z</time>
  <course>247.57</course>
  <speed>0.0</speed>
  <fix>3d</fix>
</trkpt>
<trkpt lat="40.0713749" lon="-105.229789">
  <ele>1583.0</ele>
  <time>2026-08-28T17:50:09Z</time>
  <course>0.0</course>
  <speed>0.0</speed>
  <fix>3d</fix>
</trkpt>
<trkpt lat="40.0713749" lon="-105.229789">
  <ele>1582.9</ele>
  <time>2026-08-28T17:50:09Z</time>
  <course>247.57</course>
  <speed>0.01</speed>
  <fix>3d</fix>
</trkpt>
<trkpt lat="40.0713749" lon="-105.229789">
  <ele>1583.0</ele>
  <time>2026-08-28T17:50:09Z</time>
  <course>0.0</course>
  <speed>0.0</speed>
  <fix>3d</fix>
</trkpt>
<trkpt lat="40.0713749" lon="-105.229789">
  <ele>1582.9</ele>
  <time>2026-08-28T17:50:09Z</time>
  <course>247.56</course>
  <speed>0.01</speed>
  <fix>3d</fix>
</trkpt>
<trkpt lat="40.0713749" lon="-105.229789">
  <ele>1583.0</ele>
  <time>2026-08-28T17:50:09Z</time>
  <course>0.0</course>
  <speed>0.0</speed>
  <fix>3d</fix>
</trkpt>
<trkpt lat="40.0713749" lon="-105.229789">
  <ele>1582.91</ele>
  <time>2026-08-28T17:50:09Z</time>
  <course>247.56</course>
  <speed>0.01</speed>
  <fix>3d</fix>
</trkpt>
<trkpt lat="40.0713749" lon="-105.229789">
  <ele>1583.0</ele>
  <time>2026-08-28T17:50:09Z</time>
  <course>0.0</course>
  <speed>0.0</speed>
  <fix>3d</fix>
</trkpt>
<trkpt lat="40.0713749" lon="-105.229789">
  <ele>1582.91</ele>
  <time>2026-08-28T17:50:09Z</time>
  <course>247.56</course>
  <speed>0.01</speed>
  <fix>3d</fix>
</trkpt>
<trkpt lat="40.0713749" lon="-105.229789">
  <ele>1583.0</ele>
  <time>2026-08-28T17:50:09Z</time>
  <course>0.0</course>
  <speed>0.0</speed>
  <fix>3d</fix>
</trkpt>
<trkpt lat="40.0713749" lon="-105.229789">
  <ele>1582.92</ele>
  <time>2026-08-28T17:50:09Z</time>
  <course>247.56</course>
  <speed>0.01</speed>
  <fix>3d</fix>
</trkpt>
<trkpt lat="40.0713749" lon="-105.229789">
  <ele>1583.0</ele>
  <time>2026-08-28T17:50:09Z</time>
  <course>0.0</course>
  <speed>0.0</speed>
  <fix>3d</fix>
</trkpt>
<trkpt lat="40.0713749" lon="-105.229789">
  <ele>1582.92</ele>
  <time>2026-08-28T17:50:09Z</time>
  <course>247.55</course>
  <speed>0.01</speed>
  <fix>3d</fix>
</trkpt>
<trkpt lat="40.0713749" lon="-105.229789">
  <ele>1583.0</ele>
  <time>2026-08-28T17:50:09Z</time>
  <course>0.0</course>
  <speed>0.0</speed>
  <fix>3d</fix>
</trkpt>
<trkpt lat="40.0713749" lon="-105.229789">
  <ele>1582.92</ele>
  <time>2026-08-28T17:50:09Z</time>
  <course>247.55</course>
  <speed>0.01</speed>
  <fix>3d</fix>
</trkpt>
<trkpt lat="40.0713749" lon="-105.229789">
  <ele>1583.0</ele>
  <time>2026-08-28T17:50:09Z</time>
  <course>0.0</course>
  <speed>0.0</speed>
  <fix>3d</fix>
</trkpt>
<trkpt lat="40.0713749" lon="-105.229789">
  <ele>1582.93</ele>
  <time>2026-08-28T17:50:09Z</time>
  <course>247.55</course>
  <speed>0.01</speed>
  <fix>3d</fix>
</trkpt>
<trkpt lat="40.0713749" lon="-105.229789">
  <ele>1583.0</ele>
  <time>2026-08-28T17:50:09Z</time>
  <course>0.0</course>
  <speed>0.0</speed>
  <fix>3d</fix>
</trkpt>
<trkpt lat="40.0713749" lon="-105.229789">
  <ele>1582.93</ele>
  <time>2026-08-28T17:50:09Z</time>
  <course>247.55</course>
  <speed>0.01</speed>
  <fix>3d</fix>
</trkpt>
<trkpt lat="40.0713749" lon="-105.229789">
  <ele>1583.0</ele>
  <time>2026-08-28T17:50:09Z</time>
  <course>0.0</course>
  <speed>0.0</speed>
  <fix>3d</fix>
</trkpt>
<trkpt lat="40.0713749" lon="-105.229789">
  <ele>1582.93</ele>
  <time>2026-08-28T17:50:09Z</time>
  <course>247.54</course>
  <speed>0.01</speed>
  <fix>3d</fix>
</trkpt>
<trkpt lat="40.0713749" lon="-105.229789">
  <ele>1583.0</ele>
  <time>2026-08-28T17:50:09Z</time>
  <course>0.0</course>
  <speed>0.0</speed>
  <fix>3d</fix>
</trkpt>
<trkpt lat="40.0713749" lon="-105.229789">
  <ele>1582.93</ele>
  <time>2026-08-28T17:50:09Z</time>
  <course>247.54</course>
  <speed>0.02</speed>
  <fix>3d</fix>
</trkpt>
<trkpt lat="40.0713749" lon="-105.229789">
  <ele>1583.0</ele>
  <time>2026-08-28T17:50:09Z</time>
  <course>0.0</course>
  <speed>0.0</speed>
  <fix>3d</fix>
</trkpt>
<trkpt lat="40.0713749" lon="-105.229789">
  <ele>1582.94</ele>
  <time>2026-08-28T17:50:09Z</time>
  <course>247.54</course>
  <speed>0.02</speed>
  <fix>3d</fix>
</trkpt>
<trkpt lat="40.0713749" lon="-105.229789">
  <ele>1583.0</ele>
  <time>2026-08-28T17:50:09Z</time>
  <course>0.0</course>
  <speed>0.0</speed>
  <fix>3d</fix>
</trkpt>
<trkpt lat="40.0713749" lon="-105.229789">
  <ele>1582.94</ele>
  <time>2026-08-28T17:50:09Z</time>
  <course>247.54</course>
  <speed>0.02</speed>
  <fix>3d</fix>
</trkpt>
<trkpt lat="40.0713749" lon="-105.229789">
  <ele>1583.0</ele>
  <time>2026-08-28T17:50:09Z</time>
  <course>0.0</course>
  <speed>0.0</speed>
  <fix>3d</fix>
</trkpt>
<trkpt lat="40.0713749" lon="-105.229789">
  <ele>1582.94</ele>
  <time>2026-08-28T17:50:09Z</time>
  <course>247.53</course>
  <speed>0.02</speed>
  <fix>3d</fix>
</trkpt>
<trkpt lat="40.0713749" lon="-105.229789">
  <ele>1583.0</ele>
  <time>2026-08-28T17:50:09Z</time>
  <course>0.0</course>
  <speed>0.0</speed>
  <fix>3d</fix>
</trkpt>
<trkpt lat="40.0713749" lon="-105.229789">
  <ele>1582.95</ele>
  <time>2026-08-28T17:50:09Z</time>
  <course>247.53</course>
  <speed>0.15524174696260024</speed>
  <fix>3d</fix>
</trkpt>
<trkpt lat="40.0713749" lon="-105.229789">
  <ele>1583.0</ele>
  <time>2026-08-28T17:50:09Z</time>
  <course>246.0</course>
  <speed>0.08</speed>
  <fix>3d</fix>
</trkpt>
<trkpt lat="40.0713749" lon="-105.2297894">
  <ele>1582.95</ele>
  <time>2026-08-28T17:50:09Z</time>
  <course>247.53</course>
  <speed>0.3827531841800928</speed>
  <fix>3d</fix>
</trkpt>
<trkpt lat="40.0713749" lon="-105.229789">
  <ele>1583.0</ele>
  <time>2026-08-28T17:50:09Z</time>
  <course>246.0</course>
  <speed>0.08</speed>
  <fix>3d</fix>
</trkpt>
<trkpt lat="40.0713747" lon="-105.22979">
  <ele>1582.95</ele>
  <time>2026-08-28T17:50:09Z</time>
  <course>247.53</course>
  <speed>0.696419413859206</speed>
  <fix>3d</fix>
</trkpt>
<trkpt lat="40.0713748" lon="-105.2297895">
  <ele>1583.0</ele>
  <time>2026-08-28T17:50:09Z</time>
  <course>246.0</course>
  <speed>0.44</speed>
  <fix>3d</fix>
</trkpt>
<trkpt lat="40.0713744" lon="-105.229791">
  <ele>1582.96</ele>
  <time>2026-08-28T17:50:09Z</time>
  <course>247.52</course>
  <speed>1.0231813133555558</speed>
  <fix>3d</fix>
</trkpt>
<trkpt lat="40.0713748" lon="-105.2297895">
  <ele>1583.0</ele>
  <time>2026-08-28T17:50:09Z</time>
  <course>246.0</course>
  <speed>0.44</speed>
  <fix>3d</fix>
</trkpt>
<trkpt lat="40.0713739" lon="-105.2297924">
  <ele>1582.96</ele>
  <time>2026-08-28T17:50:10Z</time>
  <course>247.52</course>
  <speed>1.3333041663476493</speed>
  <fix>3d</fix>
</trkpt>
<trkpt lat="40.0713743" lon="-105.2297911">
  <ele>1583.0</ele>
  <time>2026-08-28T17:50:10Z</time>
  <course>246.0</course>
  <speed>1.01</speed>
  <fix>3d</fix>
</trkpt>
<trkpt lat="40.0713734" lon="-105.2297941">
  <ele>1582.96</ele>
  <time>2026-08-28T17:50:10Z</time>
  <course>247.51</course>
  <speed>1.6378339354159202</speed>
  <fix>3d</fix>
</trkpt>
<trkpt lat="40.0713743" lon="-105.2297911">
  <ele>1583.0</ele>
  <time>2026-08-28T17:50:10Z</time>
  <course>246.0</course>
  <speed>1.01</speed>
  <fix>3d</fix>
</trkpt>
<trkpt lat="40.0713727" lon="-105.2297961">
  <ele>1582.96</ele>
  <time>2026-08-28T17:50:10Z</time>
  <course>247.5</course>
  <speed>1.9201041638411183</speed>
  <fix>3d</fix>
</trkpt>
<trkpt lat="40.0713734" lon="-105.2297938">
  <ele>1583.0</ele>
  <time>2026-08-28T17:50:10Z</time>
  <course>246.0</course>
  <speed>1.6</speed>
  <fix>3d</fix>
</trkpt>
<trkpt lat="40.071372" lon="-105.2297984">
  <ele>1582.96</ele>
  <time>2026-08-28T17:50:10Z</time>
  <course>247.49</course>
  <speed>2.1931256233968908</speed>
  <fix>3d</fix>
</trkpt>
<trkpt lat="40.0713734" lon="-105.2297938">
  <ele>1583.0</ele>
  <time>2026-08-28T17:50:10Z</time>
  <course>246.0</course>
  <speed>1.6</speed>
  <fix>3d</fix>
</trkpt>
<trkpt lat="40.0713711" lon="-105.229801">
  <ele>1582.96</ele>
  <time>2026-08-28T17:50:10Z</time>
  <course>247.47</course>
  <speed>2.4438698819699876</speed>
  <fix>3d</fix>
</trkpt>
<trkpt lat="40.0713719" lon="-105.2297979">
  <ele>1583.0</ele>
  <time>2026-08-28T17:50:10Z</time>
  <course>246.0</course>
  <speed>2.13</speed>
  <fix>3d</fix>
</trkpt>
<trkpt lat="40.0713702" lon="-105.2298039">
  <ele>1582.96</ele>
  <time>2026-08-28T17:50:10Z</time>
  <course>247.45</course>
  <speed>2.685386378158644</speed>
  <fix>3d</fix>
</trkpt>
<trkpt lat="40.0713719" lon="-105.2297979">
  <ele>1583.0</ele>
  <time>2026-08-28T17:50:10Z</time>
  <course>246.0</course>
  <speed>2.13</speed>
  <fix>3d</fix>
</trkpt>
<trkpt lat="40.0713691" lon="-105.229807">
  <ele>1582.95</ele>
  <time>2026-08-28T17:50:10Z</time>
  <course>247.43</course>
  <speed>2.9269267158574364</speed>
  <fix>3d</fix>
</trkpt>
<trkpt lat="40.0713702" lon="-105.229803">
  <ele>1583.0</ele>
  <time>2026-08-28T17:50:10Z</time>
  <course>246.0</course>
  <speed>2.61</speed>
  <fix>3d</fix>
</trkpt>
<trkpt lat="40.071368" lon="-105.2298103">
  <ele>1582.96</ele>
  <time>2026-08-28T17:50:10Z</time>
  <course>247.4</course>
  <speed>3.146172277546161</speed>
  <fix>3d</fix>
</trkpt>
<trkpt lat="40.0713702" lon="-105.229803">
  <ele>1583.0</ele>
  <time>2026-08-28T17:50:10Z</time>
  <course>246.0</course>
  <speed>2.61</speed>
  <fix>3d</fix>
</trkpt>
<trkpt lat="40.0713668" lon="-105.2298138">
  <ele>1582.96</ele>
  <time>2026-08-28T17:50:10Z</time>
  <course>247.38</course>
  <speed>3.3523275496287654</speed>
  <fix>3d</fix>
</trkpt>
<trkpt lat="40.0713702" lon="-105.229803">
  <ele>1583.0</ele>
  <time>2026-08-28T17:50:10Z</time>
  <course>246.0</course>
  <speed>2.61</speed>
  <fix>3d</fix>
</trkpt>
<trkpt lat="40.0713656" lon="-105.2298175">
  <ele>1582.96</ele>
  <time>2026-08-28T17:50:10Z</time>
  <course>247.36</course>
  <speed>3.5400564967243104</speed>
  <fix>3d</fix>
</trkpt>
<trkpt lat="40.0713681" lon="-105.2298091">
  <ele>1583.0</ele>
  <time>2026-08-28T17:50:10Z</time>
  <course>246.0</course>
  <speed>3.05</speed>
  <fix>3d</fix>
</trkpt>
<trkpt lat="40.0713643" lon="-105.2298214">
  <ele>1582.95</ele>
  <time>2026-08-28T17:50:10Z</time>
  <course>247.34</course>
  <speed>3.7278009603518263</speed>
  <fix>3d</fix>
</trkpt>
<trkpt lat="40.0713681" lon="-105.2298091">
  <ele>1583.0</ele>
  <time>2026-08-28T17:50:10Z</time>
  <course>246.0</course>
  <speed>3.05</speed>
  <fix>3d</fix>
</trkpt>
<trkpt lat="40.0713629" lon="-105.2298254">
  <ele>1582.95</ele>
  <time>2026-08-28T17:50:10Z</time>
  <course>247.32</course>
  <speed>3.893237727136631</speed>
  <fix>3d</fix>
</trkpt>
<trkpt lat="40.0713657" lon="-105.229816">
  <ele>1583.0</ele>
  <time>2026-08-28T17:50:10Z</time>
  <course>246.0</course>
  <speed>3.45</speed>
  <fix>3d</fix>
</trkpt>
<trkpt lat="40.0713614" lon="-105.2298297">
  <ele>1582.95</ele>
  <time>2026-08-28T17:50:10Z</time>
  <course>247.3</course>
  <speed>4.058682052095237</speed>
  <fix>3d</fix>
</trkpt>
<trkpt lat="40.0713657" lon="-105.229816">
  <ele>1583.0</ele>
  <time>2026-08-28T17:50:10Z</time>
  <course>246.0</course>
  <speed>3.45</speed>
  <fix>3d</fix>
</trkpt>
<trkpt lat="40.0713599" lon="-105.229834">
  <ele>1582.95</ele>
  <time>2026-08-28T17:50:10Z</time>
  <course>247.29</course>
  <speed>4.214949584514624</speed>
  <fix>3d</fix>
</trkpt>
<trkpt lat="40.0713631" lon="-105.2298239">
  <ele>1583.0</ele>
  <time>2026-08-28T17:50:10Z</time>
  <course>246.0</course>
  <speed>3.8</speed>
  <fix>3d</fix>
</trkpt>
<trkpt lat="40.0713584" lon="-105.2298385">
  <ele>1582.95</ele>
  <time>2026-08-28T17:50:10Z</time>
  <course>247.27</course>
  <speed>4.358084441586693</speed>
  <fix>3d</fix>
</trkpt>
<trkpt lat="40.0713631" lon="-105.2298239">
  <ele>1583.0</ele>
  <time>2026-08-28T17:50:10Z</time>
  <course>246.0</course>
  <speed>3.8</speed>
  <fix>3d</fix>
</trkpt>
<trkpt lat="40.0713568" lon="-105.2298432">
  <ele>1582.95</ele>
  <time>2026-08-28T17:50:10Z</time>
  <course>247.26</course>
  <speed>4.501222056286492</speed>
  <fix>3d</fix>
</trkpt>
<trkpt lat="40.0713602" lon="-105.2298324">
  <ele>1583.0</ele>
  <time>2026-08-28T17:50:10Z</time>
  <course>246.0</course>
  <speed>4.13</speed>
  <fix>3d</fix>
</trkpt>
<trkpt lat="40.0713551" lon="-105.2298481">
  <ele>1582.96</ele>
  <time>2026-08-28T17:50:10Z</time>
  <course>247.25</course>
  <speed>4.635191473930715</speed>
  <fix>3d</fix>
</trkpt>
<trkpt lat="40.0713571" lon="-105.2298416">
  <ele>1583.0</ele>
  <time>2026-08-28T17:50:10Z</time>
  <course>246.0</course>
  <speed>4.42</speed>
  <fix>3d</fix>
</trkpt>
<trkpt lat="40.0713534" lon="-105.2298531">
  <ele>1582.96</ele>
  <time>2026-08-28T17:50:10Z</time>
  <course>247.23</course>
  <speed>4.756006728338386</speed>
  <fix>3d</fix>
</trkpt>
<trkpt lat="40.0713571" lon="-105.2298416">
  <ele>1583.0</ele>
  <time>2026-08-28T17:50:10Z</time>
  <course>246.0</course>
  <speed>4.42</speed>
  <fix>3d</fix>
</trkpt>
<trkpt lat="40.0713516" lon="-105.2298582">
  <ele>1582.97</ele>
  <time>2026-08-28T17:50:10Z</time>
  <course>247.22</course>
  <speed>4.8768227361674725</speed>
  <fix>3d</fix>
</trkpt>
<trkpt lat="40.0713538" lon="-105.2298514">
  <ele>1583.0</ele>
  <time>2026-08-28T17:50:10Z</time>
  <course>246.0</course>
  <speed>4.68</speed>
  <fix>3d</fix>
</trkpt>
<trkpt lat="40.0713498" lon="-105.2298635">
  <ele>1582.98</ele>
  <time>2026-08-28T17:50:10Z</time>
  <course>247.21</course>
  <speed>4.9976394427769595</speed>
  <fix>3d</fix>
</trkpt>
<trkpt lat="40.0713538" lon="-105.2298514">
  <ele>1583.0</ele>
  <time>2026-08-28T17:50:10Z</time>
  <course>246.0</course>
  <speed>4.68</speed>
  <fix>3d</fix>
</trkpt>
<trkpt lat="40.071348" lon="-105.2298689">
  <ele>1582.98</ele>
  <time>2026-08-28T17:50:10Z</time>
  <course>247.21</course>
  <speed>5.10929545045107</speed>
  <fix>3d</fix>
</trkpt>
<trkpt lat="40.0713503" lon="-105.2298616">
  <ele>1583.0</ele>
  <time>2026-08-28T17:50:10Z</time>
  <course>246.0</course>
  <speed>4.92</speed>
  <fix>3d</fix>
</trkpt>
<trkpt lat="40.0713461" lon="-105.2298744">
  <ele>1582.98</ele>
  <time>2026-08-28T17:50:10Z</time>
  <course>247.2</course>
  <speed>5.2209577665405416</speed>
  <fix>3d</fix>
</trkpt>
<trkpt lat="40.0713503" lon="-105.2298616">
  <ele>1583.0</ele>
  <time>2026-08-28T17:50:10Z</time>
  <course>246.0</course>
  <speed>4.92</speed>
  <fix>3d</fix>
</trkpt>
<trkpt lat="40.0713441" lon="-105.2298801">
  <ele>1582.99</ele>
  <time>2026-08-28T17:50:10Z</time>
  <course>247.2</course>
  <speed>5.319445459820036</speed>
  <fix>3d</fix>
</trkpt>
<trkpt lat="40.0713466" lon="-105.2298725">
  <ele>1583.0</ele>
  <time>2026-08-28T17:50:10Z</time>
  <course>246.0</course>
  <speed>5.14</speed>
  <fix>3d</fix>
</trkpt>
<trkpt lat="40.0713422" lon="-105.2298859">
  <ele>1582.99</ele>
  <time>2026-08-28T17:50:10Z</time>
  <course>247.19</course>
  <speed>5.395600059307584</speed>
  <fix>3d</fix>
</trkpt>
<trkpt lat="40.0713466" lon="-105.2298725">
  <ele>1583.0</ele>
  <time>2026-08-28T17:50:10Z</time>
  <course>246.0</course>
  <speed>5.14</speed>
  <fix>3d</fix>
</trkpt>
<trkpt lat="40.0713402" lon="-105.2298917">
  <ele>1582.98</ele>
  <time>2026-08-28T17:50:10Z</time>
  <course>247.19</course>
  <speed>5.3996296169274425</speed>
  <fix>3d</fix>
</trkpt>
<trkpt lat="40.0713427" lon="-105.2298836">
  <ele>1583.0</ele>
  <time>2026-08-28T17:50:10Z</time>
  <course>246.0</course>
  <speed>5.28</speed>
  <fix>3d</fix>
</trkpt>
<trkpt lat="40.0713382" lon="-105.2298974">
  <ele>1582.98</ele>
  <time>2026-08-28T17:50:10Z</time>
  <course>247.18</course>
  <speed>5.291993953133356</speed>
  <fix>3d</fix>
</trkpt>
<trkpt lat="40.0713427" lon="-105.2298836">
  <ele>1583.0</ele>
  <time>2026-08-28T17:50:10Z</time>
  <course>246.0</course>
  <speed>5.28</speed>
  <fix>3d</fix>
</trkpt>
<trkpt lat="40.0713363" lon="-105.2299029">
  <ele>1582.98</ele>
  <time>2026-08-28T17:50:10Z</time>
  <course>247.18</course>
  <speed>5.0858725898315615</speed>
  <fix>3d</fix>
</trkpt>
<trkpt lat="40.0713389" lon="-105.2298949">
  <ele>1583.0</ele>
  <time>2026-08-28T17:50:10Z</time>
  <course>246.0</course>
  <speed>5.17</speed>
  <fix>3d</fix>
</trkpt>
<trkpt lat="40.0713345" lon="-105.2299082">
  <ele>1582.98</ele>
  <time>2026-08-28T17:50:10Z</time>
  <course>247.18</course>
  <speed>4.839142486019605</speed>
  <fix>3d</fix>
</trkpt>
<trkpt lat="40.0713389" lon="-105.2298949">
  <ele>1583.0</ele>
  <time>2026-08-28T17:50:10Z</time>
  <course>246.0</course>
  <speed>5.17</speed>
  <fix>3d</fix>
</trkpt>
<trkpt lat="40.0713328" lon="-105.2299131">
  <ele>1582.98</ele>
  <time>2026-08-28T17:50:10Z</time>
  <course>247.18</course>
  <speed>4.601564951187802</speed>
  <fix>3d</fix>
</trkpt>
<trkpt lat="40.0713352" lon="-105.2299056">
  <ele>1583.0</ele>
  <time>2026-08-28T17:50:10Z</time>
  <course>246.0</course>
  <speed>4.78</speed>
  <fix>3d</fix>
</trkpt>
<trkpt lat="40.0713312" lon="-105.2299178">
  <ele>1582.98</ele>
  <time>2026-08-28T17:50:10Z</time>
  <course>247.18</course>
  <speed>4.364000458295118</speed>
  <fix>3d</fix>
</trkpt>
<trkpt lat="40.0713352" lon="-105.2299056">
  <ele>1583.0</ele>
  <time>2026-08-28T17:50:10Z</time>
  <course>246.0</course>
  <speed>4.78</speed>
  <fix>3d</fix>
</trkpt>
<trkpt lat="40.0713296" lon="-105.2299223">
  <ele>1582.99</ele>
  <time>2026-08-28T17:50:10Z</time>
  <course>247.18</course>
  <speed>4.1487950057818</speed>
  <fix>3d</fix>
</trkpt>
<trkpt lat="40.0713352" lon="-105.2299056">
  <ele>1583.0</ele>
  <time>2026-08-28T17:50:10Z</time>
  <course>246.0</course>
  <speed>4.78</speed>
  <fix>3d</fix>
</trkpt>
<trkpt lat="40.0713281" lon="-105.2299265">
  <ele>1582.99</ele>
  <time>2026-08-28T17:50:10Z</time>
  <course>247.18</course>
  <speed>3.9427148007432646</speed>
  <fix>3d</fix>
</trkpt>
<trkpt lat="40.0713319" lon="-105.2299154">
  <ele>1583.0</ele>
  <time>2026-08-28T17:50:10Z</time>
  <course>246.0</course>
  <speed>4.32</speed>
  <fix>3d</fix>
</trkpt>
<trkpt lat="40.0713268" lon="-105.2299304">
  <ele>1582.99</ele>
  <time>2026-08-28T17:50:10Z</time>
  <course>247.17</course>
  <speed>3.736642878306676</speed>
  <fix>3d</fix>
</trkpt>
<trkpt lat="40.0713319" lon="-105.2299154">
  <ele>1583.0</ele>
  <time>2026-08-28T17:50:10Z</time>
  <course>246.0</course>
  <speed>4.32</speed>
  <fix>3d</fix>
</trkpt>
<trkpt lat="40.0713254" lon="-105.2299342">
  <ele>1582.99</ele>
  <time>2026-08-28T17:50:10Z</time>
  <course>247.17</course>
  <speed>3.5438397254954968</speed>
  <fix>3d</fix>
</trkpt>
<trkpt lat="40.0713289" lon="-105.2299242">
  <ele>1583.0</ele>
  <time>2026-08-28T17:50:10Z</time>
  <course>246.0</course>
  <speed>3.91</speed>
  <fix>3d</fix>
</trkpt>
<trkpt lat="40.0713242" lon="-105.2299377">
  <ele>1582.99</ele>
  <time>2026-08-28T17:50:10Z</time>
  <course>247.16</course>
  <speed>3.3692283983131808</speed>
  <fix>3d</fix>
</trkpt>
<trkpt lat="40.0713289" lon="-105.2299242">
  <ele>1583.0</ele>
  <time>2026-08-28T17:50:10Z</time>
  <course>246.0</course>
  <speed>3.91</speed>
  <fix>3d</fix>
</trkpt>
<trkpt lat="40.071323" lon="-105.2299411">
  <ele>1582.99</ele>
  <time>2026-08-28T17:50:10Z</time>
  <course>247.15</course>
  <speed>3.1946204782415077</speed>
  <fix>3d</fix>
</trkpt>
<trkpt lat="40.0713262" lon="-105.2299323">
  <ele>1583.0</ele>
  <time>2026-08-28T17:50:10Z</time>
  <course>246.0</course>
  <speed>3.54</speed>
  <fix>3d</fix>
</trkpt>
<trkpt lat="40.0713219" lon="-105.2299443">
  <ele>1582.98</ele>
  <time>2026-08-28T17:50:10Z</time>
  <course>247.14</course>
  <speed>3.0290922732726386</speed>
  <fix>3d</fix>
</trkpt>
<trkpt lat="40.0713237" lon="-105.2299395">
  <ele>1583.0</ele>
  <time>2026-08-28T17:50:10Z</time>
  <course>245.99</course>
  <speed>3.2</speed>
  <fix>3d</fix>
</trkpt>
<trkpt lat="40.0713208" lon="-105.2299474">
  <ele>1582.98</ele>
  <time>2026-08-28T17:50:10Z</time>
  <course>247.13</course>
  <speed>2.8677691678376065</speed>
  <fix>3d</fix>
</trkpt>
<trkpt lat="40.0713237" lon="-105.2299395">
  <ele>1583.0</ele>
  <time>2026-08-28T17:50:10Z</time>
  <course>245.99</course>
  <speed>3.2</speed>
  <fix>3d</fix>
</trkpt>
<trkpt lat="40.0713198" lon="-105.2299503">
  <ele>1582.98</ele>
  <time>2026-08-28T17:50:10Z</time>
  <course>247.11</course>
  <speed>2.7245917125323564</speed>
  <fix>3d</fix>
</trkpt>
<trkpt lat="40.0713215" lon="-105.229946">
  <ele>1583.0</ele>
  <time>2026-08-28T17:50:10Z</time>
  <course>245.99</course>
  <speed>2.9</speed>
  <fix>3d</fix>
</trkpt>
<trkpt lat="40.0713189" lon="-105.2299531">
  <ele>1582.99</ele>
  <time>2026-08-28T17:50:10Z</time>
  <course>247.09</course>
  <speed>2.5814143410154053</speed>
  <fix>3d</fix>
</trkpt>
<trkpt lat="40.0713215" lon="-105.229946">
  <ele>1583.0</ele>
  <time>2026-08-28T17:50:10Z</time>
  <course>245.99</course>
  <speed>2.9</speed>
  <fix>3d</fix>
</trkpt>
<trkpt lat="40.071318" lon="-105.2299557">
  <ele>1582.99</ele>
  <time>2026-08-28T17:50:10Z</time>
  <course>247.08</course>
  <speed>2.4515301344262523</speed>
  <fix>3d</fix>
</trkpt>
<trkpt lat="40.0713195" lon="-105.2299519">
  <ele>1583.0</ele>
  <time>2026-08-28T17:50:10Z</time>
  <course>245.99</course>
  <speed>2.62</speed>
  <fix>3d</fix>
</trkpt>
<trkpt lat="40.0713171" lon="-105.2299582">
  <ele>1582.99</ele>
  <time>2026-08-28T17:50:10Z</time>
  <course>247.06</course>
  <speed>2.321658889673502</speed>
  <fix>3d</fix>
</trkpt>
<trkpt lat="40.0713195" lon="-105.2299519">
  <ele>1583.0</ele>
  <time>2026-08-28T17:50:10Z</time>
  <course>245.99</course>
  <speed>2.62</speed>
  <fix>3d</fix>
</trkpt>
<trkpt lat="40.0713163" lon="-105.2299606">
  <ele>1583.0</ele>
  <time>2026-08-28T17:50:10Z</time>
  <course>247.05</course>
  <speed>2.209886874932742</speed>
  <fix>3d</fix>
</trkpt>
<trkpt lat="40.0713176" lon="-105.2299573">
  <ele>1583.0</ele>
  <time>2026-08-28T17:50:10Z</time>
  <course>245.99</course>
  <speed>2.37</speed>
  <fix>3d</fix>
</trkpt>
<trkpt lat="40.0713155" lon="-105.2299629">
  <ele>1583.0</ele>
  <time>2026-08-28T17:50:10Z</time>
  <course>247.03</course>
  <speed>2.0890667772955465</speed>
  <fix>3d</fix>
</trkpt>
<trkpt lat="40.0713176" lon="-105.2299573">
  <ele>1583.0</ele>
  <time>2026-08-28T17:50:10Z</time>
  <course>245.99</course>
  <speed>2.37</speed>
  <fix>3d</fix>
</trkpt>
<trkpt lat="40.0713148" lon="-105.2299651">
  <ele>1583.0</ele>
  <time>2026-08-28T17:50:10Z</time>
  <course>247.02</course>
  <speed>1.9772961336127677</speed>
  <fix>3d</fix>
</trkpt>
<trkpt lat="40.071316" lon="-105.2299621">
  <ele>1583.0</ele>
  <time>2026-08-28T17:50:10Z</time>
  <course>245.99</course>
  <speed>2.14</speed>
  <fix>3d</fix>
</trkpt>
<trkpt lat="40.0713141" lon="-105.2299671">
  <ele>1583.0</ele>
  <time>2026-08-28T17:50:10Z</time>
  <course>247.0</course>
  <speed>1.8788294228055935</speed>
  <fix>3d</fix>
</trkpt>
<trkpt lat="40.071316" lon="-105.2299621">
  <ele>1583.0</ele>
  <time>2026-08-28T17:50:10Z</time>
  <course>245.99</course>
  <speed>2.14</speed>
  <fix>3d</fix>
</trkpt>
<trkpt lat="40.0713134" lon="-105.2299691">
  <ele>1583.0</ele>
  <time>2026-08-28T17:50:10Z</time>
  <course>246.99</course>
  <speed>1.7803651310896873</speed>
  <fix>3d</fix>
</trkpt>
<trkpt lat="40.0713145" lon="-105.2299665">
  <ele>1583.0</ele>
  <time>2026-08-28T17:50:10Z</time>
  <course>245.99</course>
  <speed>1.94</speed>
  <fix>3d</fix>
</trkpt>
<trkpt lat="40.0713128" lon="-105.229971">
  <ele>1583.0</ele>
  <time>2026-08-28T17:50:10Z</time>
  <course>246.97</course>
  <speed>1.6909464805250343</speed>
  <fix>3d</fix>
</trkpt>
<trkpt lat="40.0713145" lon="-105.2299665">
  <ele>1583.0</ele>
  <time>2026-08-28T17:50:10Z</time>
  <course>245.99</course>
  <speed>1.94</speed>
  <fix>3d</fix>
</trkpt>
<trkpt lat="40.0713122" lon="-105.2299727">
  <ele>1583.01</ele>
  <time>2026-08-28T17:50:10Z</time>
  <course>246.96</course>
  <speed>1.6015305179733543</speed>
  <fix>3d</fix>
</trkpt>
<trkpt lat="40.0713132" lon="-105.2299704">
  <ele>1583.0</ele>
  <time>2026-08-28T17:50:10Z</time>
  <course>245.99</course>
  <speed>1.75</speed>
  <fix>3d</fix>
</trkpt>
<trkpt lat="40.0713116" lon="-105.2299744">
  <ele>1583.0</ele>
  <time>2026-08-28T17:50:10Z</time>
  <course>246.95</course>
  <speed>1.5568236894394945</speed>
  <fix>3d</fix>
</trkpt>
<trkpt lat="40.0713132" lon="-105.2299704">
  <ele>1583.0</ele>
  <time>2026-08-28T17:50:10Z</time>
  <course>245.99</course>
  <speed>1.75</speed>
  <fix>3d</fix>
</trkpt>
<trkpt lat="40.071311" lon="-105.2299761">
  <ele>1583.0</ele>
  <time>2026-08-28T17:50:10Z</time>
  <course>246.95</course>
  <speed>1.6105899540230593</speed>
  <fix>3d</fix>
</trkpt>
<trkpt lat="40.0713132" lon="-105.2299704">
  <ele>1583.0</ele>
  <time>2026-08-28T17:50:10Z</time>
  <course>245.99</course>
  <speed>1.75</speed>
  <fix>3d</fix>
</trkpt>
<trkpt lat="40.0713104" lon="-105.229978">
  <ele>1583.01</ele>
  <time>2026-08-28T17:50:10Z</time>
  <course>246.94</course>
  <speed>1.7586642658563347</speed>
  <fix>3d</fix>
</trkpt>
<trkpt lat="40.0713119" lon="-105.2299741">
  <ele>1583.0</ele>
  <time>2026-08-28T17:50:10Z</time>
  <course>245.99</course>
  <speed>1.67</speed>
  <fix>3d</fix>
</trkpt>
<trkpt lat="40.0713097" lon="-105.22998">
  <ele>1583.0</ele>
  <time>2026-08-28T17:50:10Z</time>
  <course>246.94</course>
  <speed>1.9961963831246663</speed>
  <fix>3d</fix>
</trkpt>
<trkpt lat="40.0713119" lon="-105.2299741">
  <ele>1583.0</ele>
  <time>2026-08-28T17:50:10Z</time>
  <course>245.99</course>
  <speed>1.67</speed>
  <fix>3d</fix>
</trkpt>
<trkpt lat="40.071309" lon="-105.2299824">
  <ele>1583.0</ele>
  <time>2026-08-28T17:50:10Z</time>
  <course>246.93</course>
  <speed>2.2469757453074566</speed>
  <fix>3d</fix>
</trkpt>
<trkpt lat="40.0713106" lon="-105.2299779">
  <ele>1583.0</ele>
  <time>2026-08-28T17:50:10Z</time>
  <course>245.99</course>
  <speed>1.88</speed>
  <fix>3d</fix>
</trkpt>
<trkpt lat="40.0713081" lon="-105.229985">
  <ele>1583.0</ele>
  <time>2026-08-28T17:50:10Z</time>
  <course>246.93</course>
  <speed>2.484552273549502</speed>
  <fix>3d</fix>
</trkpt>
<trkpt lat="40.0713106" lon="-105.2299779">
  <ele>1583.0</ele>
  <time>2026-08-28T17:50:10Z</time>
  <course>245.99</course>
  <speed>1.88</speed>
  <fix>3d</fix>
</trkpt>
<trkpt lat="40.0713071" lon="-105.2299878">
  <ele>1583.01</ele>
  <time>2026-08-28T17:50:10Z</time>
  <course>246.94</course>
  <speed>2.7130057132265684</speed>
  <fix>3d</fix>
</trkpt>
<trkpt lat="40.0713091" lon="-105.2299823">
  <ele>1583.0</ele>
  <time>2026-08-28T17:50:10Z</time>
  <course>245.99</course>
  <speed>2.32</speed>
  <fix>3d</fix>
</trkpt>
<trkpt lat="40.0713061" lon="-105.229991">
  <ele>1583.01</ele>
  <time>2026-08-28T17:50:10Z</time>
  <course>246.94</course>
  <speed>2.928275943281302</speed>
  <fix>3d</fix>
</trkpt>
<trkpt lat="40.0713091" lon="-105.2299823">
  <ele>1583.0</ele>
  <time>2026-08-28T17:50:10Z</time>
  <course>245.99</course>
  <speed>2.32</speed>
  <fix>3d</fix>
</trkpt>
<trkpt lat="40.071305" lon="-105.2299943">
  <ele>1583.01</ele>
  <time>2026-08-28T17:50:10Z</time>
  <course>246.94</course>
  <speed>3.143564855383137</speed>
  <fix>3d</fix>
</trkpt>
<trkpt lat="40.0713072" lon="-105.2299879">
  <ele>1583.0</ele>
  <time>2026-08-28T17:50:10Z</time>
  <course>245.99</course>
  <speed>2.78</speed>
  <fix>3d</fix>
</trkpt>
<trkpt lat="40.0713038" lon="-105.2299979">
  <ele>1583.01</ele>
  <time>2026-08-28T17:50:10Z</time>
  <course>246.95</course>
  <speed>3.340538878684096</speed>
  <fix>3d</fix>
</trkpt>
<trkpt lat="40.071305" lon="-105.2299943">
  <ele>1583.0</ele>
  <time>2026-08-28T17:50:10Z</time>
  <course>245.99</course>
  <speed>3.2</speed>
  <fix>3d</fix>
</trkpt>
<trkpt lat="40.0713025" lon="-105.2300017">
  <ele>1583.01</ele>
  <time>2026-08-28T17:50:10Z</time>
  <course>246.96</course>
  <speed>3.5243439105739953</speed>
  <fix>3d</fix>
</trkpt>
<trkpt lat="40.071305" lon="-105.2299943">
  <ele>1583.0</ele>
  <time>2026-08-28T17:50:10Z</time>
  <course>245.99</course>
  <speed>3.2</speed>
  <fix>3d</fix>
</trkpt>
<trkpt lat="40.0713012" lon="-105.2300057">
  <ele>1583.0</ele>
  <time>2026-08-28T17:50:10Z</time>
  <course>246.96</course>
  <speed>3.7081531791445723</speed>
  <fix>3d</fix>
</trkpt>
<trkpt lat="40.0713025" lon="-105.2300016">
  <ele>1583.0</ele>
  <time>2026-08-28T17:50:10Z</time>
  <course>246.0</course>
  <speed>3.58</speed>
  <fix>3d</fix>
</trkpt>
<trkpt lat="40.0712998" lon="-105.23001">
  <ele>1583.0</ele>
  <time>2026-08-28T17:50:10Z</time>
  <course>246.97</course>
  <speed>3.882795384771131</speed>
  <fix>3d</fix>
</trkpt>
<trkpt lat="40.0713025" lon="-105.2300016">
  <ele>1583.0</ele>
  <time>2026-08-28T17:50:10Z</time>
  <course>246.0</course>
  <speed>3.58</speed>
  <fix>3d</fix>
</trkpt>
<trkpt lat="40.0712983" lon="-105.2300143">
  <ele>1583.0</ele>
  <time>2026-08-28T17:50:10Z</time>
  <course>246.98</course>
  <speed>4.044279911183201</speed>
  <fix>3d</fix>
</trkpt>
<trkpt lat="40.0712998" lon="-105.2300096">
  <ele>1583.0</ele>
  <time>2026-08-28T17:50:10Z</time>
  <course>245.99</course>
  <speed>3.93</speed>
  <fix>3d</fix>
</trkpt>
<trkpt lat="40.0712968" lon="-105.2300189">
  <ele>1583.01</ele>
  <time>2026-08-28T17:50:10Z</time>
  <course>246.98</course>
  <speed>4.196593856927305</speed>
  <fix>3d</fix>
</trkpt>
<trkpt lat="40.0712998" lon="-105.2300096">
  <ele>1583.0</ele>
  <time>2026-08-28T17:50:10Z</time>
  <course>245.99</course>
  <speed>3.93</speed>
  <fix>3d</fix>
</trkpt>
<trkpt lat="40.0712952" lon="-105.2300237">
  <ele>1583.01</ele>
  <time>2026-08-28T17:50:10Z</time>
  <course>246.99</course>
  <speed>4.348907908889311</speed>
  <fix>3d</fix>
</trkpt>
<trkpt lat="40.0712968" lon="-105.2300184">
  <ele>1583.0</ele>
  <time>2026-08-28T17:50:10Z</time>
  <course>245.99</course>
  <speed>4.24</speed>
  <fix>3d</fix>
</trkpt>
<trkpt lat="40.0712935" lon="-105.2300286">
  <ele>1583.01</ele>
  <time>2026-08-28T17:50:10Z</time>
  <course>246.99</course>
  <speed>4.492048530459127</speed>
  <fix>3d</fix>
</trkpt>
<trkpt lat="40.0712968" lon="-105.2300184">
  <ele>1583.0</ele>
  <time>2026-08-28T17:50:10Z</time>
  <course>245.99</course>
  <speed>4.24</speed>
  <fix>3d</fix>
</trkpt>
<trkpt lat="40.0712918" lon="-105.2300336">
  <ele>1583.01</ele>
  <time>2026-08-28T17:50:10Z</time>
  <course>246.99</course>
  <speed>4.6312093453006415</speed>
  <fix>3d</fix>
</trkpt>
<trkpt lat="40.0712936" lon="-105.2300278">
  <ele>1583.0</ele>
  <time>2026-08-28T17:50:10Z</time>
  <course>246.0</course>
  <speed>4.52</speed>
  <fix>3d</fix>
</trkpt>
<trkpt lat="40.0712901" lon="-105.2300388">
  <ele>1583.01</ele>
  <time>2026-08-28T17:50:10Z</time>
  <course>246.99</course>
  <speed>4.7611973284038545</speed>
  <fix>3d</fix>
</trkpt>
<trkpt lat="40.0712936" lon="-105.2300278">
  <ele>1583.0</ele>
  <time>2026-08-28T17:50:10Z</time>
  <course>246.0</course>
  <speed>4.52</speed>
  <fix>3d</fix>
</trkpt>
<trkpt lat="40.0712883" lon="-105.2300441">
  <ele>1583.01</ele>
  <time>2026-08-28T17:50:10Z</time>
  <course>246.99</course>
  <speed>4.8820077836890015</speed>
  <fix>3d</fix>
</trkpt>
<trkpt lat="40.0712902" lon="-105.2300378">
  <ele>1583.0</ele>
  <time>2026-08-28T17:50:10Z</time>
  <course>245.99</course>
  <speed>4.77</speed>
  <fix>3d</fix>
</trkpt>
<trkpt lat="40.0712865" lon="-105.2300496">
  <ele>1583.01</ele>
  <time>2026-08-28T17:50:10Z</time>
  <course>246.99</course>
  <speed>4.998849867719573</speed>
  <fix>3d</fix>
</trkpt>
<trkpt lat="40.0712902" lon="-105.2300378">
  <ele>1583.0</ele>
  <time>2026-08-28T17:50:10Z</time>
  <course>245.99</course>
  <speed>4.77</speed>
  <fix>3d</fix>
</trkpt>
<trkpt lat="40.0712846" lon="-105.2300551">
  <ele>1583.01</ele>
  <time>2026-08-28T17:50:10Z</time>
  <course>246.99</course>
  <speed>5.110479429564315</speed>
  <fix>3d</fix>
</trkpt>
<trkpt lat="40.0712866" lon="-105.2300483">
  <ele>1583.0</ele>
  <time>2026-08-28T17:50:10Z</time>
  <course>245.99</course>
  <speed>5.0</speed>
  <fix>3d</fix>
</trkpt>
<trkpt lat="40.0712827" lon="-105.2300608">
  <ele>1583.01</ele>
  <time>2026-08-28T17:50:10Z</time>
  <course>246.99</course>
  <speed>5.218141431582705</speed>
  <fix>3d</fix>
</trkpt>
<trkpt lat="40.0712866" lon="-105.2300483">
  <ele>1583.0</ele>
  <time>2026-08-28T17:50:10Z</time>
  <course>245.99</course>
  <speed>5.0</speed>
  <fix>3d</fix>
</trkpt>
<trkpt lat="40.0712808" lon="-105.2300665">
  <ele>1583.01</ele>
  <time>2026-08-28T17:50:10Z</time>
  <course>246.99</course>
  <speed>5.316624869219193</speed>
  <fix>3d</fix>
</trkpt>
<trkpt lat="40.0712866" lon="-105.2300483">
  <ele>1583.0</ele>
  <time>2026-08-28T17:50:10Z</time>
  <course>245.99</course>
  <speed>5.0</speed>
  <fix>3d</fix>
</trkpt>
<trkpt lat="40.0712788" lon="-105.2300723">
  <ele>1583.02</ele>
  <time>2026-08-28T17:50:10Z</time>
  <course>246.98</course>
  <speed>5.4059319270593855</speed>
  <fix>3d</fix>
</trkpt>
<trkpt lat="40.0712829" lon="-105.2300592">
  <ele>1583.0</ele>
  <time>2026-08-28T17:50:10Z</time>
  <course>245.99</course>
  <speed>5.21</speed>
  <fix>3d</fix>
</trkpt>
<trkpt lat="40.0712768" lon="-105.2300782">
  <ele>1583.02</ele>
  <time>2026-08-28T17:50:10Z</time>
  <course>246.98</course>
  <speed>5.491265792146652</speed>
  <fix>3d</fix>
</trkpt>
<trkpt lat="40.0712829" lon="-105.2300592">
  <ele>1583.0</ele>
  <time>2026-08-28T17:50:10Z</time>
  <course>245.99</course>
  <speed>5.21</speed>
  <fix>3d</fix>
</trkpt>
<trkpt lat="40.0712748" lon="-105.2300841">
  <ele>1583.02</ele>
  <time>2026-08-28T17:50:10Z</time>
  <course>246.98</course>
  <speed>5.580573447236405</speed>
  <fix>3d</fix>
</trkpt>
<trkpt lat="40.071279" lon="-105.2300707">
  <ele>1583.0</ele>
  <time>2026-08-28T17:50:10Z</time>
  <course>246.0</course>
  <speed>5.4</speed>
  <fix>3d</fix>
</trkpt>
<trkpt lat="40.0712728" lon="-105.2300902">
  <ele>1583.02</ele>
  <time>2026-08-28T17:50:10Z</time>
  <course>246.97</course>
  <speed>5.656730504452196</speed>
  <fix>3d</fix>
</trkpt>
<trkpt lat="40.071279" lon="-105.2300707">
  <ele>1583.0</ele>
  <time>2026-08-28T17:50:10Z</time>
  <course>246.0</course>
  <speed>5.4</speed>
  <fix>3d</fix>
</trkpt>
<trkpt lat="40.0712707" lon="-105.2300963">
  <ele>1583.02</ele>
  <time>2026-08-28T17:50:10Z</time>
  <course>246.97</course>
  <speed>5.732887579571049</speed>
  <fix>3d</fix>
</trkpt>
<trkpt lat="40.071275" lon="-105.2300825">
  <ele>1583.0</ele>
  <time>2026-08-28T17:50:10Z</time>
  <course>246.0</course>
  <speed>5.57</speed>
  <fix>3d</fix>
</trkpt>
<trkpt lat="40.0712686" lon="-105.2301025">
  <ele>1583.02</ele>
  <time>2026-08-28T17:50:10Z</time>
  <course>246.96</course>
  <speed>5.799870688213661</speed>
  <fix>3d</fix>
</trkpt>
<trkpt lat="40.0712709" lon="-105.2300946">
  <ele>1583.0</ele>
  <time>2026-08-28T17:50:10Z</time>
  <course>246.0</course>
  <speed>5.73</speed>
  <fix>3d</fix>
</trkpt>
<trkpt lat="40.0712664" lon="-105.2301088">
  <ele>1583.02</ele>
  <time>2026-08-28T17:50:10Z</time>
  <course>246.95</course>
  <speed>5.866856057549052</speed>
  <fix>3d</fix>
</trkpt>
<trkpt lat="40.0712709" lon="-105.2300946">
  <ele>1583.0</ele>
  <time>2026-08-28T17:50:10Z</time>
  <course>246.0</course>
  <speed>5.73</speed>
  <fix>3d</fix>
</trkpt>
<trkpt lat="40.0712643" lon="-105.2301152">
  <ele>1583.02</ele>
  <time>2026-08-28T17:50:10Z</time>
  <course>246.95</course>
  <speed>5.933843611016388</speed>
  <fix>3d</fix>
</trkpt>
<trkpt lat="40.0712666" lon="-105.2301071">
  <ele>1583.0</ele>
  <time>2026-08-28T17:50:10Z</time>
  <course>246.0</course>
  <speed>5.87</speed>
  <fix>3d</fix>
</trkpt>
<trkpt lat="40.0712621" lon="-105.2301216">
  <ele>1583.03</ele>
  <time>2026-08-28T17:50:10Z</time>
  <course>246.94</course>
  <speed>5.996840834973028</speed>
  <fix>3d</fix>
</trkpt>
<trkpt lat="40.0712666" lon="-105.2301071">
  <ele>1583.0</ele>
  <time>2026-08-28T17:50:10Z</time>
  <course>246.0</course>
  <speed>5.87</speed>
  <fix>3d</fix>
</trkpt>
<trkpt lat="40.0712599" lon="-105.2301281">
  <ele>1583.03</ele>
  <time>2026-08-28T17:50:10Z</time>
  <course>246.94</course>
  <speed>6.063827174318212</speed>
  <fix>3d</fix>
</trkpt>
<trkpt lat="40.0712623" lon="-105.2301198">
  <ele>1583.0</ele>
  <time>2026-08-28T17:50:10Z</time>
  <course>246.0</course>
  <speed>5.99</speed>
  <fix>3d</fix>
</trkpt>
<trkpt lat="40.0712576" lon="-105.2301348">
  <ele>1583.03</ele>
  <time>2026-08-28T17:50:10Z</time>
  <course>246.93</course>
  <speed>6.117654779406893</speed>
  <fix>3d</fix>
</trkpt>
<trkpt lat="40.0712623" lon="-105.2301198">
  <ele>1583.0</ele>
  <time>2026-08-28T17:50:10Z</time>
  <course>246.0</course>
  <speed>5.99</speed>
  <fix>3d</fix>
</trkpt>
<trkpt lat="40.0712553" lon="-105.2301414">
  <ele>1583.03</ele>
  <time>2026-08-28T17:50:10Z</time>
  <course>246.93</course>
  <speed>6.175475690179664</speed>
  <fix>3d</fix>
</trkpt>
<trkpt lat="40.0712578" lon="-105.2301327">
  <ele>1583.0</ele>
  <time>2026-08-28T17:50:10Z</time>
  <course>246.0</course>
  <speed>6.11</speed>
  <fix>3d</fix>
</trkpt>
<trkpt lat="40.071253" lon="-105.2301482">
  <ele>1583.03</ele>
  <time>2026-08-28T17:50:10Z</time>
  <course>246.92</course>
  <speed>6.229301726517989</speed>
  <fix>3d</fix>
</trkpt>
<trkpt lat="40.0712578" lon="-105.2301327">
  <ele>1583.0</ele>
  <time>2026-08-28T17:50:10Z</time>
  <course>246.0</course>
  <speed>6.11</speed>
  <fix>3d</fix>
</trkpt>
<trkpt lat="40.0712507" lon="-105.2301549">
  <ele>1583.03</ele>
  <time>2026-08-28T17:50:10Z</time>
  <course>246.92</course>
  <speed>6.273962065553154</speed>
  <fix>3d</fix>
</trkpt>
<trkpt lat="40.0712533" lon="-105.2301459">
  <ele>1583.0</ele>
  <time>2026-08-28T17:50:10Z</time>
  <course>246.0</course>
  <speed>6.21</speed>
  <fix>3d</fix>
</trkpt>
<trkpt lat="40.0712484" lon="-105.2301618">
  <ele>1583.03</ele>
  <time>2026-08-28T17:50:10Z</time>
  <course>246.91</course>
  <speed>6.327787923121318</speed>
  <fix>3d</fix>
</trkpt>
<trkpt lat="40.0712533" lon="-105.2301459">
  <ele>1583.0</ele>
  <time>2026-08-28T17:50:10Z</time>
  <course>246.0</course>
  <speed>6.21</speed>
  <fix>3d</fix>
</trkpt>
<trkpt lat="40.071246" lon="-105.2301686">
  <ele>1583.03</ele>
  <time>2026-08-28T17:50:10Z</time>
  <course>246.9</course>
  <speed>6.372448509011273</speed>
  <fix>3d</fix>
</trkpt>
<trkpt lat="40.0712488" lon="-105.2301594">
  <ele>1583.0</ele>
  <time>2026-08-28T17:50:10Z</time>
  <course>246.0</course>
  <speed>6.3</speed>
  <fix>3d</fix>
</trkpt>
<trkpt lat="40.0712437" lon="-105.2301755">
  <ele>1583.03</ele>
  <time>2026-08-28T17:50:10Z</time>
  <course>246.9</course>
  <speed>6.417109941398854</speed>
  <fix>3d</fix>
</trkpt>
<trkpt lat="40.0712488" lon="-105.2301594">
  <ele>1583.0</ele>
  <time>2026-08-28T17:50:10Z</time>
  <course>246.0</course>
  <speed>6.3</speed>
  <fix>3d</fix>
</trkpt>
<trkpt lat="40.0712413" lon="-105.2301825">
  <ele>1583.03</ele>
  <time>2026-08-28T17:50:10Z</time>
  <course>246.9</course>
  <speed>6.452611874272309</speed>
  <fix>3d</fix>
</trkpt>
<trkpt lat="40.0712441" lon="-105.230173">
  <ele>1583.0</ele>
  <time>2026-08-28T17:50:10Z</time>
  <course>246.0</course>
  <speed>6.39</speed>
  <fix>3d</fix>
</trkpt>
<trkpt lat="40.0712389" lon="-105.2301894">
  <ele>1583.03</ele>
  <time>2026-08-28T17:50:10Z</time>
  <course>246.89</course>
  <speed>6.497276352441844</speed>
  <fix>3d</fix>
</trkpt>
<trkpt lat="40.0712441" lon="-105.230173">
  <ele>1583.0</ele>
  <time>2026-08-28T17:50:10Z</time>
  <course>246.0</course>
  <speed>6.39</speed>
  <fix>3d</fix>
</trkpt>
<trkpt lat="40.0712365" lon="-105.2301964">
  <ele>1583.03</ele>
  <time>2026-08-28T17:50:10Z</time>
  <course>246.89</course>
  <speed>6.52876711179071</speed>
  <fix>3d</fix>
</trkpt>
<trkpt lat="40.0712441" lon="-105.230173">
  <ele>1583.0</ele>
  <time>2026-08-28T17:50:10Z</time>
  <course>246.0</course>
  <speed>6.39</speed>
  <fix>3d</fix>
</trkpt>
<trkpt lat="40.0712341" lon="-105.2302034">
  <ele>1583.03</ele>
  <time>2026-08-28T17:50:10Z</time>
  <course>246.89</course>
  <speed>6.564274521986416</speed>
  <fix>3d</fix>
</trkpt>
<trkpt lat="40.0712394" lon="-105.2301868">
  <ele>1583.0</ele>
  <time>2026-08-28T17:50:10Z</time>
  <course>246.0</course>
  <speed>6.47</speed>
  <fix>3d</fix>
</trkpt>
<trkpt lat="40.0712317" lon="-105.2302104">
  <ele>1583.04</ele>
  <time>2026-08-28T17:50:10Z</time>
  <course>246.89</course>
  <speed>6.586607624566686</speed>
  <fix>3d</fix>
</trkpt>
<trkpt lat="40.0712394" lon="-105.2301868">
  <ele>1583.0</ele>
  <time>2026-08-28T17:50:10Z</time>
  <course>246.0</course>
  <speed>6.47</speed>
  <fix>3d</fix>
</trkpt>
<trkpt lat="40.0712293" lon="-105.2302174">
  <ele>1583.04</ele>
  <time>2026-08-28T17:50:10Z</time>
  <course>246.89</course>
  <speed>6.618096403045214</speed>
  <fix>3d</fix>
</trkpt>
<trkpt lat="40.0712347" lon="-105.2302008">
  <ele>1583.0</ele>
  <time>2026-08-28T17:50:10Z</time>
  <course>246.0</course>
  <speed>6.54</speed>
  <fix>3d</fix>
</trkpt>
<trkpt lat="40.0712269" lon="-105.2302245">
  <ele>1583.04</ele>
  <time>2026-08-28T17:50:10Z</time>
  <course>246.89</course>
  <speed>6.6404292029958425</speed>
  <fix>3d</fix>
</trkpt>
<trkpt lat="40.0712347" lon="-105.2302008">
  <ele>1583.0</ele>
  <time>2026-08-28T17:50:10Z</time>
  <course>246.0</course>
  <speed>6.54</speed>
  <fix>3d</fix>
</trkpt>
<trkpt lat="40.0712245" lon="-105.2302315">
  <ele>1583.04</ele>
  <time>2026-08-28T17:50:10Z</time>
  <course>246.89</course>
  <speed>6.662762189962958</speed>
  <fix>3d</fix>
</trkpt>
<trkpt lat="40.0712299" lon="-105.2302149">
  <ele>1583.0</ele>
  <time>2026-08-28T17:50:10Z</time>
  <course>246.0</course>
  <speed>6.6</speed>
  <fix>3d</fix>
</trkpt>
<trkpt lat="40.0712221" lon="-105.2302387">
  <ele>1583.04</ele>
  <time>2026-08-28T17:50:10Z</time>
  <course>246.89</course>
  <speed>6.685095362072257</speed>
  <fix>3d</fix>
</trkpt>
<trkpt lat="40.071225" lon="-105.2302291">
  <ele>1583.0</ele>
  <time>2026-08-28T17:50:10Z</time>
  <course>246.0</course>
  <speed>6.65</speed>
  <fix>3d</fix>
</trkpt>
<trkpt lat="40.0712196" lon="-105.2302459">
  <ele>1583.05</ele>
  <time>2026-08-28T17:50:10Z</time>
  <course>246.89</course>
  <speed>6.707428717474379</speed>
  <fix>3d</fix>
</trkpt>
<trkpt lat="40.071225" lon="-105.2302291">
  <ele>1583.0</ele>
  <time>2026-08-28T17:50:10Z</time>
  <course>246.0</course>
  <speed>6.65</speed>
  <fix>3d</fix>
</trkpt>
<trkpt lat="40.0712172" lon="-105.2302531">
  <ele>1583.05</ele>
  <time>2026-08-28T17:50:10Z</time>
  <course>246.89</course>
  <speed>6.729762254344503</speed>
  <fix>3d</fix>
</trkpt>
<trkpt lat="40.0712201" lon="-105.2302435">
  <ele>1583.0</ele>
  <time>2026-08-28T17:50:10Z</time>
  <course>246.0</course>
  <speed>6.71</speed>
  <fix>3d</fix>
</trkpt>
<trkpt lat="40.0712147" lon="-105.2302603">
  <ele>1583.05</ele>
  <time>2026-08-28T17:50:10Z</time>
  <course>246.89</course>
  <speed>6.75209597088193</speed>
  <fix>3d</fix>
</trkpt>
<trkpt lat="40.0712201" lon="-105.2302435">
  <ele>1583.0</ele>
  <time>2026-08-28T17:50:10Z</time>
  <course>246.0</course>
  <speed>6.71</speed>
  <fix>3d</fix>
</trkpt>
<trkpt lat="40.0712122" lon="-105.2302675">
  <ele>1583.05</ele>
  <time>2026-08-28T17:50:10Z</time>
  <course>246.89</course>
  <speed>6.7744298653097</speed>
  <fix>3d</fix>
</trkpt>
<trkpt lat="40.0712152" lon="-105.2302579">
  <ele>1583.0</ele>
  <time>2026-08-28T17:50:10Z</time>
  <course>246.0</course>
  <speed>6.75</speed>
  <fix>3d</fix>
</trkpt>
<trkpt lat="40.0712097" lon="-105.2302749">
  <ele>1583.06</ele>
  <time>2026-08-28T17:50:10Z</time>
  <course>246.89</course>
  <speed>6.796763935874189</speed>
  <fix>3d</fix>
</trkpt>
<trkpt lat="40.0712152" lon="-105.2302579">
  <ele>1583.0</ele>
  <time>2026-08-28T17:50:10Z</time>
  <course>246.0</course>
  <speed>6.75</speed>
  <fix>3d</fix>
</trkpt>
<trkpt lat="40.0712072" lon="-105.2302822">
  <ele>1583.06</ele>
  <time>2026-08-28T17:50:10Z</time>
  <course>246.89</course>
  <speed>6.819098180844737</speed>
  <fix>3d</fix>
</trkpt>
<trkpt lat="40.0712103" lon="-105.2302724">
  <ele>1583.0</ele>
  <time>2026-08-28T17:50:10Z</time>
  <course>246.0</course>
  <speed>6.79</speed>
  <fix>3d</fix>
</trkpt>
<trkpt lat="40.0712047" lon="-105.2302896">
  <ele>1583.06</ele>
  <time>2026-08-28T17:50:10Z</time>
  <course>246.9</course>
  <speed>6.841432598513268</speed>
  <fix>3d</fix>
</trkpt>
<trkpt lat="40.0712103" lon="-105.2302724">
  <ele>1583.0</ele>
  <time>2026-08-28T17:50:10Z</time>
  <course>246.0</course>
  <speed>6.79</speed>
  <fix>3d</fix>
</trkpt>
<trkpt lat="40.0712022" lon="-105.230297">
  <ele>1583.06</ele>
  <time>2026-08-28T17:50:10Z</time>
  <course>246.9</course>
  <speed>6.854618880725609</speed>
  <fix>3d</fix>
</trkpt>
<trkpt lat="40.0712052" lon="-105.2302871">
  <ele>1583.0</ele>
  <time>2026-08-28T17:50:10Z</time>
  <course>246.0</course>
  <speed>6.83</speed>
  <fix>3d</fix>
</trkpt>
<trkpt lat="40.0711996" lon="-105.2303044">
  <ele>1583.06</ele>
  <time>2026-08-28T17:50:10Z</time>
  <course>246.9</course>
  <speed>6.876954267697292</speed>
  <fix>3d</fix>
</trkpt>
<trkpt lat="40.0712052" lon="-105.2302871">
  <ele>1583.0</ele>
  <time>2026-08-28T17:50:10Z</time>
  <course>246.0</course>
  <speed>6.83</speed>
  <fix>3d</fix>
</trkpt>
<trkpt lat="40.0711971" lon="-105.2303118">
  <ele>1583.06</ele>
  <time>2026-08-28T17:50:10Z</time>
  <course>246.9</course>
  <speed>6.886101945222711</speed>
  <fix>3d</fix>
</trkpt>
<trkpt lat="40.0712003" lon="-105.2303017">
  <ele>1583.0</ele>
  <time>2026-08-28T17:50:10Z</time>
  <course>246.0</course>
  <speed>6.87</speed>
  <fix>3d</fix>
</trkpt>
<trkpt lat="40.0711945" lon="-105.2303193">
  <ele>1583.06</ele>
  <time>2026-08-28T17:50:10Z</time>
  <course>246.91</course>
  <speed>6.908436870957135</speed>
  <fix>3d</fix>
</trkpt>
<trkpt lat="40.0712003" lon="-105.2303017">
  <ele>1583.0</ele>
  <time>2026-08-28T17:50:10Z</time>
  <course>246.0</course>
  <speed>6.87</speed>
  <fix>3d</fix>
</trkpt>
<trkpt lat="40.071192" lon="-105.2303267">
  <ele>1583.06</ele>
  <time>2026-08-28T17:50:10Z</time>
  <course>246.91</course>
  <speed>6.921625531621889</speed>
  <fix>3d</fix>
</trkpt>
<trkpt lat="40.0711953" lon="-105.2303165">
  <ele>1583.0</ele>
  <time>2026-08-28T17:50:10Z</time>
  <course>246.0</course>
  <speed>6.9</speed>
  <fix>3d</fix>
</trkpt>
<trkpt lat="40.0711895" lon="-105.2303341">
  <ele>1583.06</ele>
  <time>2026-08-28T17:50:10Z</time>
  <course>246.91</course>
  <speed>6.9307719627758635</speed>
  <fix>3d</fix>
</trkpt>
<trkpt lat="40.0711953" lon="-105.2303165">
  <ele>1583.0</ele>
  <time>2026-08-28T17:50:10Z</time>
  <course>246.0</course>
  <speed>6.9</speed>
  <fix>3d</fix>
</trkpt>
<trkpt lat="40.0711869" lon="-105.2303416">
  <ele>1583.06</ele>
  <time>2026-08-28T17:50:10Z</time>
  <course>246.92</course>
  <speed>6.943961405422701</speed>
  <fix>3d</fix>
</trkpt>
<trkpt lat="40.0711953" lon="-105.2303165">
  <ele>1583.0</ele>
  <time>2026-08-28T17:50:10Z</time>
  <course>246.0</course>
  <speed>6.9</speed>
  <fix>3d</fix>
</trkpt>
<trkpt lat="40.0711844" lon="-105.230349">
  <ele>1583.06</ele>
  <time>2026-08-28T17:50:10Z</time>
  <course>246.92</course>
  <speed>6.953107219078388</speed>
  <fix>3d</fix>
</trkpt>
<trkpt lat="40.0711902" lon="-105.2303314">
  <ele>1583.0</ele>
  <time>2026-08-28T17:50:10Z</time>
  <course>246.0</course>
  <speed>6.93</speed>
  <fix>3d</fix>
</trkpt>
<trkpt lat="40.0711818" lon="-105.2303565">
  <ele>1583.06</ele>
  <time>2026-08-28T17:50:10Z</time>
  <course>246.93</course>
  <speed>6.966297438381454</speed>
  <fix>3d</fix>
</trkpt>
<trkpt lat="40.0711902" lon="-105.2303314">
  <ele>1583.0</ele>
  <time>2026-08-28T17:50:10Z</time>
  <course>246.0</course>
  <speed>6.93</speed>
  <fix>3d</fix>
</trkpt>
<trkpt lat="40.0711793" lon="-105.2303639">
  <ele>1583.05</ele>
  <time>2026-08-28T17:50:10Z</time>
  <course>246.93</course>
  <speed>6.975442638284685</speed>
  <fix>3d</fix>
</trkpt>
<trkpt lat="40.0711851" lon="-105.2303463">
  <ele>1583.0</ele>
  <time>2026-08-28T17:50:10Z</time>
  <course>246.0</course>
  <speed>6.95</speed>
  <fix>3d</fix>
</trkpt>
<trkpt lat="40.0711768" lon="-105.2303713">
  <ele>1583.05</ele>
  <time>2026-08-28T17:50:10Z</time>
  <course>246.93</course>
  <speed>6.975442638284685</speed>
  <fix>3d</fix>
</trkpt>
<trkpt lat="40.0711851" lon="-105.2303463">
  <ele>1583.0</ele>
  <time>2026-08-28T17:50:10Z</time>
  <course>246.0</course>
  <speed>6.95</speed>
  <fix>3d</fix>
</trkpt>
<trkpt lat="40.0711743" lon="-105.2303787">
  <ele>1583.05</ele>
  <time>2026-08-28T17:50:10Z</time>
  <course>246.94</course>
  <speed>6.988633628972118</speed>
  <fix>3d</fix>
</trkpt>
<trkpt lat="40.07118" lon="-105.2303613">
  <ele>1583.0</ele>
  <time>2026-08-28T17:50:10Z</time>
  <course>246.0</course>
  <speed>6.98</speed>
  <fix>3d</fix>
</trkpt>
<trkpt lat="40.0711717" lon="-105.2303861">
  <ele>1583.05</ele>
  <time>2026-08-28T17:50:10Z</time>
  <course>246.94</course>
  <speed>6.988633628972118</speed>
  <fix>3d</fix>
</trkpt>
<trkpt lat="40.07118" lon="-105.2303613">
  <ele>1583.0</ele>
  <time>2026-08-28T17:50:10Z</time>
  <course>246.0</course>
  <speed>6.98</speed>
  <fix>3d</fix>
</trkpt>
<trkpt lat="40.0711692" lon="-105.2303936">
  <ele>1583.05</ele>
  <time>2026-08-28T17:50:10Z</time>
  <course>246.95</course>
  <speed>6.99777821883489</speed>
  <fix>3d</fix>
</trkpt>
<trkpt lat="40.0711749" lon="-105.2303762">
  <ele>1583.0</ele>
  <time>2026-08-28T17:50:10Z</time>
  <course>246.0</course>
  <speed>7.0</speed>
  <fix>3d</fix>
</trkpt>
<trkpt lat="40.0711666" lon="-105.230401">
  <ele>1583.05</ele>
  <time>2026-08-28T17:50:10Z</time>
  <course>246.95</course>
  <speed>6.99777821883489</speed>
  <fix>3d</fix>
</trkpt>
<trkpt lat="40.0711698" lon="-105.2303912">
  <ele>1583.0</ele>
  <time>2026-08-28T17:50:10Z</time>
  <course>246.0</course>
  <speed>7.02</speed>
  <fix>3d</fix>
</trkpt>
<trkpt lat="40.0711641" lon="-105.2304086">
  <ele>1583.05</ele>
  <time>2026-08-28T17:50:10Z</time>
  <course>246.96</course>
  <speed>7.0109699756881</speed>
  <fix>3d</fix>
</trkpt>
<trkpt lat="40.0711698" lon="-105.2303912">
  <ele>1583.0</ele>
  <time>2026-08-28T17:50:10Z</time>
  <course>246.0</course>
  <speed>7.02</speed>
  <fix>3d</fix>
</trkpt>
<trkpt lat="40.0711615" lon="-105.230416">
  <ele>1583.05</ele>
  <time>2026-08-28T17:50:10Z</time>
  <course>246.96</course>
  <speed>7.0109699756881</speed>
  <fix>3d</fix>
</trkpt>
<trkpt lat="40.0711647" lon="-105.2304063">
  <ele>1583.0</ele>
  <time>2026-08-28T17:50:10Z</time>
  <course>246.0</course>
  <speed>7.03</speed>
  <fix>3d</fix>
</trkpt>
<trkpt lat="40.0711589" lon="-105.2304236">
  <ele>1583.05</ele>
  <time>2026-08-28T17:50:10Z</time>
  <course>246.97</course>
  <speed>7.020113959188982</speed>
  <fix>3d</fix>
</trkpt>
<trkpt lat="40.0711647" lon="-105.2304063">
  <ele>1583.0</ele>
  <time>2026-08-28T17:50:10Z</time>
  <course>246.0</course>
  <speed>7.03</speed>
  <fix>3d</fix>
</trkpt>
<trkpt lat="40.0711563" lon="-105.2304312">
  <ele>1583.05</ele>
  <time>2026-08-28T17:50:10Z</time>
  <course>246.97</course>
  <speed>7.033306477041932</speed>
  <fix>3d</fix>
</trkpt>
<trkpt lat="40.0711595" lon="-105.2304214">
  <ele>1583.0</ele>
  <time>2026-08-28T17:50:10Z</time>
  <course>246.0</course>
  <speed>7.05</speed>
  <fix>3d</fix>
</trkpt>
<trkpt lat="40.0711537" lon="-105.2304388">
  <ele>1583.05</ele>
  <time>2026-08-28T17:50:10Z</time>
  <course>246.98</course>
  <speed>7.042449857826465</speed>
  <fix>3d</fix>
</trkpt>
<trkpt lat="40.0711595" lon="-105.2304214">
  <ele>1583.0</ele>
  <time>2026-08-28T17:50:10Z</time>
  <course>246.0</course>
  <speed>7.05</speed>
  <fix>3d</fix>
</trkpt>
<trkpt lat="40.0711511" lon="-105.2304464">
  <ele>1583.05</ele>
  <time>2026-08-28T17:50:10Z</time>
  <course>246.98</course>
  <speed>7.042449857826465</speed>
  <fix>3d</fix>
</trkpt>
<trkpt lat="40.0711544" lon="-105.2304365">
  <ele>1583.0</ele>
  <time>2026-08-28T17:50:10Z</time>
  <course>246.0</course>
  <speed>7.06</speed>
  <fix>3d</fix>
</trkpt>
<trkpt lat="40.0711485" lon="-105.2304541">
  <ele>1583.04</ele>
  <time>2026-08-28T17:50:10Z</time>
  <course>246.99</course>
  <speed>7.055643131564974</speed>
  <fix>3d</fix>
</trkpt>
<trkpt lat="40.0711544" lon="-105.2304365">
  <ele>1583.0</ele>
  <time>2026-08-28T17:50:10Z</time>
  <course>246.0</course>
  <speed>7.06</speed>
  <fix>3d</fix>
</trkpt>
<trkpt lat="40.0711459" lon="-105.2304617">
  <ele>1583.04</ele>
  <time>2026-08-28T17:50:10Z</time>
  <course>246.99</course>
  <speed>7.064785913246062</speed>
  <fix>3d</fix>
</trkpt>
<trkpt lat="40.0711491" lon="-105.2304518">
  <ele>1583.0</ele>
  <time>2026-08-28T17:50:10Z</time>
  <course>246.0</course>
  <speed>7.07</speed>
  <fix>3d</fix>
</trkpt>
<trkpt lat="40.0711433" lon="-105.2304694">
  <ele>1583.04</ele>
  <time>2026-08-28T17:50:10Z</time>
  <course>247.0</course>
  <speed>7.064785913246062</speed>
  <fix>3d</fix>
</trkpt>
<trkpt lat="40.0711491" lon="-105.2304518">
  <ele>1583.0</ele>
  <time>2026-08-28T17:50:10Z</time>
  <course>246.0</course>
  <speed>7.07</speed>
  <fix>3d</fix>
</trkpt>
<trkpt lat="40.0711407" lon="-105.230477">
  <ele>1583.04</ele>
  <time>2026-08-28T17:50:10Z</time>
  <course>247.0</course>
  <speed>7.077979937807114</speed>
  <fix>3d</fix>
</trkpt>
<trkpt lat="40.071144" lon="-105.230467">
  <ele>1583.0</ele>
  <time>2026-08-28T17:50:10Z</time>
  <course>246.0</course>
  <speed>7.09</speed>
  <fix>3d</fix>
</trkpt>
<trkpt lat="40.0711381" lon="-105.2304847">
  <ele>1583.03</ele>
  <time>2026-08-28T17:50:10Z</time>
  <course>247.01</course>
  <speed>7.077979937807114</speed>
  <fix>3d</fix>
</trkpt>
<trkpt lat="40.071144" lon="-105.230467">
  <ele>1583.0</ele>
  <time>2026-08-28T17:50:10Z</time>
  <course>246.0</course>
  <speed>7.09</speed>
  <fix>3d</fix>
</trkpt>
<trkpt lat="40.0711355" lon="-105.2304923">
  <ele>1583.03</ele>
  <time>2026-08-28T17:50:10Z</time>
  <course>247.01</course>
  <speed>7.087122123965411</speed>
  <fix>3d</fix>
</trkpt>
<trkpt lat="40.0711388" lon="-105.2304822">
  <ele>1583.0</ele>
  <time>2026-08-28T17:50:10Z</time>
  <course>246.0</course>
  <speed>7.1</speed>
  <fix>3d</fix>
</trkpt>
<trkpt lat="40.0711329" lon="-105.2305">
  <ele>1583.03</ele>
  <time>2026-08-28T17:50:10Z</time>
  <course>247.02</course>
  <speed>7.087122123965411</speed>
  <fix>3d</fix>
</trkpt>
<trkpt lat="40.0711388" lon="-105.2304822">
  <ele>1583.0</ele>
  <time>2026-08-28T17:50:10Z</time>
  <course>246.0</course>
  <speed>7.1</speed>
  <fix>3d</fix>
</trkpt>
<trkpt lat="40.0711303" lon="-105.2305076">
  <ele>1583.03</ele>
  <time>2026-08-28T17:50:10Z</time>
  <course>247.02</course>
  <speed>7.100316894336478</speed>
  <fix>3d</fix>
</trkpt>
<trkpt lat="40.0711388" lon="-105.2304822">
  <ele>1583.0</ele>
  <time>2026-08-28T17:50:10Z</time>
  <course>246.0</course>
  <speed>7.1</speed>
  <fix>3d</fix>
</trkpt>
<trkpt lat="40.0711277" lon="-105.2305152">
  <ele>1583.02</ele>
  <time>2026-08-28T17:50:10Z</time>
  <course>247.03</course>
  <speed>7.100316894336478</speed>
  <fix>3d</fix>
</trkpt>
<trkpt lat="40.0711337" lon="-105.2304974">
  <ele>1583.0</ele>
  <time>2026-08-28T17:50:10Z</time>
  <course>246.0</course>
  <speed>7.11</speed>
  <fix>3d</fix>
</trkpt>
<trkpt lat="40.0711251" lon="-105.2305228">
  <ele>1583.02</ele>
  <time>2026-08-28T17:50:10Z</time>
  <course>247.03</course>
  <speed>7.100316894336478</speed>
  <fix>3d</fix>
</trkpt>
<trkpt lat="40.0711337" lon="-105.2304974">
  <ele>1583.0</ele>
  <time>2026-08-28T17:50:10Z</time>
  <course>246.0</course>
  <speed>7.11</speed>
  <fix>3d</fix>
</trkpt>
<trkpt lat="40.0711225" lon="-105.2305304">
  <ele>1583.02</ele>
  <time>2026-08-28T17:50:10Z</time>
  <course>247.04</course>
  <speed>7.100316894336478</speed>
  <fix>3d</fix>
</trkpt>
<trkpt lat="40.0711285" lon="-105.2305127">
  <ele>1583.0</ele>
  <time>2026-08-28T17:50:10Z</time>
  <course>246.0</course>
  <speed>7.11</speed>
  <fix>3d</fix>
</trkpt>
<trkpt lat="40.0711199" lon="-105.230538">
  <ele>1583.01</ele>
  <time>2026-08-28T17:50:10Z</time>
  <course>247.04</course>
  <speed>7.100316894336478</speed>
  <fix>3d</fix>
</trkpt>
<trkpt lat="40.0711285" lon="-105.2305127">
  <ele>1583.0</ele>
  <time>2026-08-28T17:50:10Z</time>
  <course>246.0</course>
  <speed>7.11</speed>
  <fix>3d</fix>
</trkpt>
<trkpt lat="40.0711174" lon="-105.2305455">
  <ele>1583.01</ele>
  <time>2026-08-28T17:50:10Z</time>
  <course>247.05</course>
  <speed>7.100316894336478</speed>
  <fix>3d</fix>
</trkpt>
<trkpt lat="40.0711232" lon="-105.2305279">
  <ele>1583.0</ele>
  <time>2026-08-28T17:50:10Z</time>
  <course>246.0</course>
  <speed>7.12</speed>
  <fix>3d</fix>
</trkpt>
<trkpt lat="40.0711148" lon="-105.2305532">
  <ele>1583.01</ele>
  <time>2026-08-28T17:50:10Z</time>
  <course>247.05</course>
  <speed>7.100316894336478</speed>
  <fix>3d</fix>
</trkpt>
<trkpt lat="40.071118" lon="-105.2305432">
  <ele>1583.0</ele>
  <time>2026-08-28T17:50:10Z</time>
  <course>246.0</course>
  <speed>7.13</speed>
  <fix>3d</fix>
</trkpt>
<trkpt lat="40.0711122" lon="-105.2305608">
  <ele>1583.01</ele>
  <time>2026-08-28T17:50:10Z</time>
  <course>247.06</course>
  <speed>7.100316894336478</speed>
  <fix>3d</fix>
</trkpt>
<trkpt lat="40.071118" lon="-105.2305432">
  <ele>1583.0</ele>
  <time>2026-08-28T17:50:10Z</time>
  <course>246.0</course>
  <speed>7.13</speed>
  <fix>3d</fix>
</trkpt>
<trkpt lat="40.0711096" lon="-105.2305684">
  <ele>1583.0</ele>
  <time>2026-08-28T17:50:10Z</time>
  <course>247.06</course>
  <speed>7.109458488520768</speed>
  <fix>3d</fix>
</trkpt>
<trkpt lat="40.0711127" lon="-105.2305585">
  <ele>1583.0</ele>
  <time>2026-08-28T17:50:10Z</time>
  <course>246.0</course>
  <speed>7.14</speed>
  <fix>3d</fix>
</trkpt>
<trkpt lat="40.071107" lon="-105.230576">
  <ele>1583.0</ele>
  <time>2026-08-28T17:50:10Z</time>
  <course>247.07</course>
  <speed>7.109458488520768</speed>
  <fix>3d</fix>
</trkpt>
<trkpt lat="40.0711127" lon="-105.2305585">
  <ele>1583.0</ele>
  <time>2026-08-28T17:50:10Z</time>
  <course>246.0</course>
  <speed>7.14</speed>
  <fix>3d</fix>
</trkpt>
<trkpt lat="40.0711043" lon="-105.2305837">
  <ele>1582.99</ele>
  <time>2026-08-28T17:50:10Z</time>
  <course>247.07</course>
  <speed>7.109458488520768</speed>
  <fix>3d</fix>
</trkpt>
<trkpt lat="40.0711076" lon="-105.2305739">
  <ele>1583.0</ele>
  <time>2026-08-28T17:50:10Z</time>
  <course>246.0</course>
  <speed>7.14</speed>
  <fix>3d</fix>
</trkpt>
<trkpt lat="40.0711017" lon="-105.2305914">
  <ele>1582.99</ele>
  <time>2026-08-28T17:50:10Z</time>
  <course>247.08</course>
  <speed>7.118602390919161</speed>
  <fix>3d</fix>
</trkpt>
<trkpt lat="40.0711076" lon="-105.2305739">
  <ele>1583.0</ele>
  <time>2026-08-28T17:50:10Z</time>
  <course>246.0</course>
  <speed>7.14</speed>
  <fix>3d</fix>
</trkpt>
<trkpt lat="40.0710991" lon="-105.2305991">
  <ele>1582.99</ele>
  <time>2026-08-28T17:50:10Z</time>
  <course>247.08</course>
  <speed>7.118602390919161</speed>
  <fix>3d</fix>
</trkpt>
<trkpt lat="40.0711024" lon="-105.2305892">
  <ele>1583.0</ele>
  <time>2026-08-28T17:50:10Z</time>
  <course>246.0</course>
  <speed>7.15</speed>
  <fix>3d</fix>
</trkpt>
<trkpt lat="40.0710964" lon="-105.2306069">
  <ele>1582.99</ele>
  <time>2026-08-28T17:50:10Z</time>
  <course>247.08</course>
  <speed>7.122653999739142</speed>
  <fix>3d</fix>
</trkpt>
<trkpt lat="40.0711024" lon="-105.2305892">
  <ele>1583.0</ele>
  <time>2026-08-28T17:50:10Z</time>
  <course>246.0</course>
  <speed>7.15</speed>
  <fix>3d</fix>
</trkpt>
<trkpt lat="40.0710938" lon="-105.2306146">
  <ele>1582.99</ele>
  <time>2026-08-28T17:50:10Z</time>
  <course>247.09</course>
  <speed>7.131795005466716</speed>
  <fix>3d</fix>
</trkpt>
<trkpt lat="40.0710971" lon="-105.2306045">
  <ele>1583.0</ele>
  <time>2026-08-28T17:50:10Z</time>
  <course>246.0</course>
  <speed>7.15</speed>
  <fix>3d</fix>
</trkpt>
<trkpt lat="40.0710912" lon="-105.2306223">
  <ele>1583.0</ele>
  <time>2026-08-28T17:50:10Z</time>
  <course>247.09</course>
  <speed>7.131795005466716</speed>
  <fix>3d</fix>
</trkpt>
<trkpt lat="40.0710971" lon="-105.2306045">
  <ele>1583.0</ele>
  <time>2026-08-28T17:50:10Z</time>
  <course>246.0</course>
  <speed>7.15</speed>
  <fix>3d</fix>
</trkpt>
<trkpt lat="40.0710886" lon="-105.23063">
  <ele>1583.0</ele>
  <time>2026-08-28T17:50:10Z</time>
  <course>247.1</course>
  <speed>7.131795005466716</speed>
  <fix>3d</fix>
</trkpt>
<trkpt lat="40.0710919" lon="-105.2306198">
  <ele>1583.0</ele>
  <time>2026-08-28T17:50:10Z</time>
  <course>246.0</course>
  <speed>7.15</speed>
  <fix>3d</fix>
</trkpt>
<trkpt lat="40.0710859" lon="-105.2306378">
  <ele>1583.0</ele>
  <time>2026-08-28T17:50:10Z</time>
  <course>247.1</course>
  <speed>7.140938313695196</speed>
  <fix>3d</fix>
</trkpt>
<trkpt lat="40.0710919" lon="-105.2306198">
  <ele>1583.0</ele>
  <time>2026-08-28T17:50:10Z</time>
  <course>246.0</course>
  <speed>7.15</speed>
  <fix>3d</fix>
</trkpt>
<trkpt lat="40.0710833" lon="-105.2306455">
  <ele>1583.0</ele>
  <time>2026-08-28T17:50:10Z</time>
  <course>247.11</course>
  <speed>7.140938313695196</speed>
  <fix>3d</fix>
</trkpt>
<trkpt lat="40.0710866" lon="-105.2306352">
  <ele>1583.0</ele>
  <time>2026-08-28T17:50:10Z</time>
  <course>246.0</course>
  <speed>7.16</speed>
  <fix>3d</fix>
</trkpt>
<trkpt lat="40.0710807" lon="-105.2306532">
  <ele>1583.0</ele>
  <time>2026-08-28T17:50:10Z</time>
  <course>247.11</course>
  <speed>7.140938313695196</speed>
  <fix>3d</fix>
</trkpt>
<trkpt lat="40.0710866" lon="-105.2306352">
  <ele>1583.0</ele>
  <time>2026-08-28T17:50:10Z</time>
  <course>246.0</course>
  <speed>7.16</speed>
  <fix>3d</fix>
</trkpt>
<trkpt lat="40.071078" lon="-105.2306609">
  <ele>1583.0</ele>
  <time>2026-08-28T17:50:10Z</time>
  <course>247.11</course>
  <speed>7.140938313695196</speed>
  <fix>3d</fix>
</trkpt>
<trkpt lat="40.0710866" lon="-105.2306352">
  <ele>1583.0</ele>
  <time>2026-08-28T17:50:10Z</time>
  <course>246.0</course>
  <speed>7.16</speed>
  <fix>3d</fix>
</trkpt>
<trkpt lat="40.0710754" lon="-105.2306685">
  <ele>1583.0</ele>
  <time>2026-08-28T17:50:10Z</time>
  <course>247.12</course>
  <speed>7.140938313695196</speed>
  <fix>3d</fix>
</trkpt>
<trkpt lat="40.0710814" lon="-105.2306506">
  <ele>1583.0</ele>
  <time>2026-08-28T17:50:10Z</time>
  <course>246.0</course>
  <speed>7.16</speed>
  <fix>3d</fix>
</trkpt>
<trkpt lat="40.0710728" lon="-105.2306762">
  <ele>1583.0</ele>
  <time>2026-08-28T17:50:10Z</time>
  <course>247.12</course>
  <speed>7.140938313695196</speed>
  <fix>3d</fix>
</trkpt>
<trkpt lat="40.0710814" lon="-105.2306506">
  <ele>1583.0</ele>
  <time>2026-08-28T17:50:10Z</time>
  <course>246.0</course>
  <speed>7.16</speed>
  <fix>3d</fix>
</trkpt>
<trkpt lat="40.0710702" lon="-105.2306838">
  <ele>1582.99</ele>
  <time>2026-08-28T17:50:10Z</time>
  <course>247.13</course>
  <speed>7.140938313695196</speed>
  <fix>3d</fix>
</trkpt>
<trkpt lat="40.0710761" lon="-105.230666">
  <ele>1583.0</ele>
  <time>2026-08-28T17:50:10Z</time>
  <course>246.0</course>
  <speed>7.17</speed>
  <fix>3d</fix>
</trkpt>
<trkpt lat="40.0710676" lon="-105.2306914">
  <ele>1583.0</ele>
  <time>2026-08-28T17:50:10Z</time>
  <course>247.13</course>
  <speed>7.140938313695196</speed>
  <fix>3d</fix>
</trkpt>
<trkpt lat="40.0710761" lon="-105.230666">
  <ele>1583.0</ele>
  <time>2026-08-28T17:50:10Z</time>
  <course>246.0</course>
  <speed>7.17</speed>
  <fix>3d</fix>
</trkpt>
<trkpt lat="40.071065" lon="-105.230699">
  <ele>1583.0</ele>
  <time>2026-08-28T17:50:10Z</time>
  <course>247.13</course>
  <speed>7.140938313695196</speed>
  <fix>3d</fix>
</trkpt>
<trkpt lat="40.071071" lon="-105.2306814">
  <ele>1583.0</ele>
  <time>2026-08-28T17:50:10Z</time>
  <course>246.0</course>
  <speed>7.17</speed>
  <fix>3d</fix>
</trkpt>
<trkpt lat="40.0710624" lon="-105.2307066">
  <ele>1583.0</ele>
  <time>2026-08-28T17:50:10Z</time>
  <course>247.14</course>
  <speed>7.140938313695196</speed>
  <fix>3d</fix>
</trkpt>
<trkpt lat="40.071071" lon="-105.2306814">
  <ele>1583.0</ele>
  <time>2026-08-28T17:50:10Z</time>
  <course>246.0</course>
  <speed>7.17</speed>
  <fix>3d</fix>
</trkpt>
<trkpt lat="40.0710598" lon="-105.2307143">
  <ele>1583.0</ele>
  <time>2026-08-28T17:50:10Z</time>
  <course>247.14</course>
  <speed>7.131795005466716</speed>
  <fix>3d</fix>
</trkpt>
<trkpt lat="40.0710657" lon="-105.2306968">
  <ele>1583.0</ele>
  <time>2026-08-28T17:50:10Z</time>
  <course>246.0</course>
  <speed>7.17</speed>
  <fix>3d</fix>
</trkpt>
<trkpt lat="40.0710572" lon="-105.2307219">
  <ele>1583.0</ele>
  <time>2026-08-28T17:50:10Z</time>
  <course>247.14</course>
  <speed>7.131795005466716</speed>
  <fix>3d</fix>
</trkpt>
<trkpt lat="40.0710605" lon="-105.2307122">
  <ele>1583.0</ele>
  <time>2026-08-28T17:50:10Z</time>
  <course>246.0</course>
  <speed>7.17</speed>
  <fix>3d</fix>
</trkpt>
<trkpt lat="40.0710546" lon="-105.2307296">
  <ele>1583.0</ele>
  <time>2026-08-28T17:50:10Z</time>
  <course>247.15</course>
  <speed>7.131795005466716</speed>
  <fix>3d</fix>
</trkpt>
<trkpt lat="40.0710605" lon="-105.2307122">
  <ele>1583.0</ele>
  <time>2026-08-28T17:50:10Z</time>
  <course>246.0</course>
  <speed>7.17</speed>
  <fix>3d</fix>
</trkpt>
<trkpt lat="40.071052" lon="-105.2307372">
  <ele>1583.0</ele>
  <time>2026-08-28T17:50:10Z</time>
  <course>247.15</course>
  <speed>7.140938313695196</speed>
  <fix>3d</fix>
</trkpt>
<trkpt lat="40.0710552" lon="-105.2307276">
  <ele>1583.0</ele>
  <time>2026-08-28T17:50:10Z</time>
  <course>246.0</course>
  <speed>7.18</speed>
  <fix>3d</fix>
</trkpt>
<trkpt lat="40.0710494" lon="-105.230745">
  <ele>1583.0</ele>
  <time>2026-08-28T17:50:10Z</time>
  <course>247.15</course>
  <speed>7.140938313695196</speed>
  <fix>3d</fix>
</trkpt>
<trkpt lat="40.0710552" lon="-105.2307276">
  <ele>1583.0</ele>
  <time>2026-08-28T17:50:10Z</time>
  <course>246.0</course>
  <speed>7.18</speed>
  <fix>3d</fix>
</trkpt>
<trkpt lat="40.0710468" lon="-105.2307527">
  <ele>1583.0</ele>
  <time>2026-08-28T17:50:10Z</time>
  <course>247.16</course>
  <speed>7.140938313695196</speed>
  <fix>3d</fix>
</trkpt>
<trkpt lat="40.07105" lon="-105.2307429">
  <ele>1583.0</ele>
  <time>2026-08-28T17:50:10Z</time>
  <course>246.0</course>
  <speed>7.18</speed>
  <fix>3d</fix>
</trkpt>
<trkpt lat="40.0710441" lon="-105.2307604">
  <ele>1583.01</ele>
  <time>2026-08-28T17:50:10Z</time>
  <course>247.16</course>
  <speed>7.140938313695196</speed>
  <fix>3d</fix>
</trkpt>
<trkpt lat="40.07105" lon="-105.2307429">
  <ele>1583.0</ele>
  <time>2026-08-28T17:50:10Z</time>
  <course>246.0</course>
  <speed>7.18</speed>
  <fix>3d</fix>
</trkpt>
<trkpt lat="40.0710415" lon="-105.2307682">
  <ele>1583.01</ele>
  <time>2026-08-28T17:50:10Z</time>
  <course>247.16</course>
  <speed>7.150083915591481</speed>
  <fix>3d</fix>
</trkpt>
<trkpt lat="40.0710447" lon="-105.2307584">
  <ele>1583.0</ele>
  <time>2026-08-28T17:50:10Z</time>
  <course>246.0</course>
  <speed>7.18</speed>
  <fix>3d</fix>
</trkpt>
<trkpt lat="40.0710388" lon="-105.230776">
  <ele>1583.01</ele>
  <time>2026-08-28T17:50:10Z</time>
  <course>247.17</course>
  <speed>7.150083915591481</speed>
  <fix>3d</fix>
</trkpt>
<trkpt lat="40.0710447" lon="-105.2307584">
  <ele>1583.0</ele>
  <time>2026-08-28T17:50:10Z</time>
  <course>246.0</course>
  <speed>7.18</speed>
  <fix>3d</fix>
</trkpt>
<trkpt lat="40.0710362" lon="-105.2307838">
  <ele>1583.01</ele>
  <time>2026-08-28T17:50:10Z</time>
  <course>247.17</course>
  <speed>7.150083915591481</speed>
  <fix>3d</fix>
</trkpt>
<trkpt lat="40.0710395" lon="-105.2307738">
  <ele>1583.0</ele>
  <time>2026-08-28T17:50:10Z</time>
  <course>246.0</course>
  <speed>7.18</speed>
  <fix>3d</fix>
</trkpt>
<trkpt lat="40.0710336" lon="-105.2307915">
  <ele>1583.01</ele>
  <time>2026-08-28T17:50:10Z</time>
  <course>247.17</course>
  <speed>7.163274390947201</speed>
  <fix>3d</fix>
</trkpt>
<trkpt lat="40.0710395" lon="-105.2307738">
  <ele>1583.0</ele>
  <time>2026-08-28T17:50:10Z</time>
  <course>246.0</course>
  <speed>7.18</speed>
  <fix>3d</fix>
</trkpt>
<trkpt lat="40.0710309" lon="-105.2307993">
  <ele>1583.01</ele>
  <time>2026-08-28T17:50:10Z</time>
  <course>247.18</course>
  <speed>7.163274390947201</speed>
  <fix>3d</fix>
</trkpt>
<trkpt lat="40.0710342" lon="-105.2307892">
  <ele>1583.0</ele>
  <time>2026-08-28T17:50:10Z</time>
  <course>246.0</course>
  <speed>7.18</speed>
  <fix>3d</fix>
</trkpt>
<trkpt lat="40.0710283" lon="-105.230807">
  <ele>1583.02</ele>
  <time>2026-08-28T17:50:10Z</time>
  <course>247.18</course>
  <speed>7.163274390947201</speed>
  <fix>3d</fix>
</trkpt>
<trkpt lat="40.0710342" lon="-105.2307892">
  <ele>1583.0</ele>
  <time>2026-08-28T17:50:10Z</time>
  <course>246.0</course>
  <speed>7.18</speed>
  <fix>3d</fix>
</trkpt>
<trkpt lat="40.0710257" lon="-105.2308148">
  <ele>1583.02</ele>
  <time>2026-08-28T17:50:10Z</time>
  <course>247.18</course>
  <speed>7.163274390947201</speed>
  <fix>3d</fix>
</trkpt>
<trkpt lat="40.0710289" lon="-105.2308046">
  <ele>1583.0</ele>
  <time>2026-08-28T17:50:10Z</time>
  <course>246.0</course>
  <speed>7.18</speed>
  <fix>3d</fix>
</trkpt>
<trkpt lat="40.071023" lon="-105.2308225">
  <ele>1583.03</ele>
  <time>2026-08-28T17:50:10Z</time>
  <course>247.18</course>
  <speed>7.163274390947201</speed>
  <fix>3d</fix>
</trkpt>
<trkpt lat="40.0710289" lon="-105.2308046">
  <ele>1583.0</ele>
  <time>2026-08-28T17:50:10Z</time>
  <course>246.0</course>
  <speed>7.18</speed>
  <fix>3d</fix>
</trkpt>
<trkpt lat="40.0710204" lon="-105.2308303">
  <ele>1583.03</ele>
  <time>2026-08-28T17:50:10Z</time>
  <course>247.19</course>
  <speed>7.172419396549535</speed>
  <fix>3d</fix>
</trkpt>
<trkpt lat="40.0710289" lon="-105.2308046">
  <ele>1583.0</ele>
  <time>2026-08-28T17:50:10Z</time>
  <course>246.0</course>
  <speed>7.18</speed>
  <fix>3d</fix>
</trkpt>
<trkpt lat="40.0710177" lon="-105.230838">
  <ele>1583.03</ele>
  <time>2026-08-28T17:50:10Z</time>
  <course>247.19</course>
  <speed>7.172419396549535</speed>
  <fix>3d</fix>
</trkpt>
<trkpt lat="40.0710237" lon="-105.23082">
  <ele>1583.0</ele>
  <time>2026-08-28T17:50:10Z</time>
  <course>246.0</course>
  <speed>7.18</speed>
  <fix>3d</fix>
</trkpt>
<trkpt lat="40.0710151" lon="-105.2308457">
  <ele>1583.03</ele>
  <time>2026-08-28T17:50:10Z</time>
  <course>247.19</course>
  <speed>7.163274390947201</speed>
  <fix>3d</fix>
</trkpt>
<trkpt lat="40.0710237" lon="-105.23082">
  <ele>1583.0</ele>
  <time>2026-08-28T17:50:10Z</time>
  <course>246.0</course>
  <speed>7.18</speed>
  <fix>3d</fix>
</trkpt>
<trkpt lat="40.0710125" lon="-105.2308533">
  <ele>1583.03</ele>
  <time>2026-08-28T17:50:10Z</time>
  <course>247.19</course>
  <speed>7.163274390947201</speed>
  <fix>3d</fix>
</trkpt>
<trkpt lat="40.0710184" lon="-105.2308355">
  <ele>1583.0</ele>
  <time>2026-08-28T17:50:10Z</time>
  <course>246.0</course>
  <speed>7.19</speed>
  <fix>3d</fix>
</trkpt>
<trkpt lat="40.0710099" lon="-105.2308609">
  <ele>1583.03</ele>
  <time>2026-08-28T17:50:10Z</time>
  <course>247.2</course>
  <speed>7.163274390947201</speed>
  <fix>3d</fix>
</trkpt>
<trkpt lat="40.0710184" lon="-105.2308355">
  <ele>1583.0</ele>
  <time>2026-08-28T17:50:10Z</time>
  <course>246.0</course>
  <speed>7.19</speed>
  <fix>3d</fix>
</trkpt>
<trkpt lat="40.0710073" lon="-105.2308686">
  <ele>1583.03</ele>
  <time>2026-08-28T17:50:10Z</time>
  <course>247.2</course>
  <speed>7.163274390947201</speed>
  <fix>3d</fix>
</trkpt>
<trkpt lat="40.0710132" lon="-105.2308508">
  <ele>1583.0</ele>
  <time>2026-08-28T17:50:10Z</time>
  <course>246.0</course>
  <speed>7.19</speed>
  <fix>3d</fix>
</trkpt>
<trkpt lat="40.0710047" lon="-105.2308763">
  <ele>1583.03</ele>
  <time>2026-08-28T17:50:10Z</time>
  <course>247.2</course>
  <speed>7.159231802365391</speed>
  <fix>3d</fix>
</trkpt>
<trkpt lat="40.0710079" lon="-105.2308663">
  <ele>1583.0</ele>
  <time>2026-08-28T17:50:10Z</time>
  <course>246.0</course>
  <speed>7.19</speed>
  <fix>3d</fix>
</trkpt>
<trkpt lat="40.0710021" lon="-105.230884">
  <ele>1583.02</ele>
  <time>2026-08-28T17:50:10Z</time>
  <course>247.2</course>
  <speed>7.159231802365391</speed>
  <fix>3d</fix>
</trkpt>
<trkpt lat="40.0710079" lon="-105.2308663">
  <ele>1583.0</ele>
  <time>2026-08-28T17:50:10Z</time>
  <course>246.0</course>
  <speed>7.19</speed>
  <fix>3d</fix>
</trkpt>
<trkpt lat="40.0709995" lon="-105.2308917">
  <ele>1583.02</ele>
  <time>2026-08-28T17:50:10Z</time>
  <course>247.21</course>
  <speed>7.159231802365391</speed>
  <fix>3d</fix>
</trkpt>
<trkpt lat="40.0710026" lon="-105.2308817">
  <ele>1583.0</ele>
  <time>2026-08-28T17:50:10Z</time>
  <course>246.0</course>
  <speed>7.19</speed>
  <fix>3d</fix>
</trkpt>
<trkpt lat="40.0709968" lon="-105.2308993">
  <ele>1583.02</ele>
  <time>2026-08-28T17:50:10Z</time>
  <course>247.21</course>
  <speed>7.163274390947201</speed>
  <fix>3d</fix>
</trkpt>
<trkpt lat="40.0710026" lon="-105.2308817">
  <ele>1583.0</ele>
  <time>2026-08-28T17:50:10Z</time>
  <course>246.0</course>
  <speed>7.19</speed>
  <fix>3d</fix>
</trkpt>
<trkpt lat="40.0709942" lon="-105.2309071">
  <ele>1583.01</ele>
  <time>2026-08-28T17:50:10Z</time>
  <course>247.21</course>
  <speed>7.163274390947201</speed>
  <fix>3d</fix>
</trkpt>
<trkpt lat="40.0709974" lon="-105.2308971">
  <ele>1583.0</ele>
  <time>2026-08-28T17:50:10Z</time>
  <course>246.0</course>
  <speed>7.19</speed>
  <fix>3d</fix>
</trkpt>
<trkpt lat="40.0709916" lon="-105.2309148">
  <ele>1583.01</ele>
  <time>2026-08-28T17:50:10Z</time>
  <course>247.21</course>
  <speed>7.163274390947201</speed>
  <fix>3d</fix>
</trkpt>
<trkpt lat="40.0709974" lon="-105.2308971">
  <ele>1583.0</ele>
  <time>2026-08-28T17:50:10Z</time>
  <course>246.0</course>
  <speed>7.19</speed>
  <fix>3d</fix>
</trkpt>
<trkpt lat="40.0709889" lon="-105.2309226">
  <ele>1583.01</ele>
  <time>2026-08-28T17:50:10Z</time>
  <course>247.22</course>
  <speed>7.163274390947201</speed>
  <fix>3d</fix>
</trkpt>
<trkpt lat="40.0709922" lon="-105.2309126">
  <ele>1583.0</ele>
  <time>2026-08-28T17:50:10Z</time>
  <course>246.0</course>
  <speed>7.19</speed>
  <fix>3d</fix>
</trkpt>
<trkpt lat="40.0709862" lon="-105.2309304">
  <ele>1583.01</ele>
  <time>2026-08-28T17:50:10Z</time>
  <course>247.22</course>
  <speed>7.172419396549535</speed>
  <fix>3d</fix>
</trkpt>
<trkpt lat="40.0709922" lon="-105.2309126">
  <ele>1583.0</ele>
  <time>2026-08-28T17:50:10Z</time>
  <course>246.0</course>
  <speed>7.19</speed>
  <fix>3d</fix>
</trkpt>
<trkpt lat="40.0709836" lon="-105.2309381">
  <ele>1583.01</ele>
  <time>2026-08-28T17:50:10Z</time>
  <course>247.22</course>
  <speed>7.172419396549535</speed>
  <fix>3d</fix>
</trkpt>
<trkpt lat="40.0709869" lon="-105.2309279">
  <ele>1583.0</ele>
  <time>2026-08-28T17:50:10Z</time>
  <course>246.0</course>
  <speed>7.19</speed>
  <fix>3d</fix>
</trkpt>
<trkpt lat="40.070981" lon="-105.2309459">
  <ele>1583.01</ele>
  <time>2026-08-28T17:50:10Z</time>
  <course>247.22</course>
  <speed>7.172419396549535</speed>
  <fix>3d</fix>
</trkpt>
<trkpt lat="40.0709869" lon="-105.2309279">
  <ele>1583.0</ele>
  <time>2026-08-28T17:50:10Z</time>
  <course>246.0</course>
  <speed>7.19</speed>
  <fix>3d</fix>
</trkpt>
<trkpt lat="40.0709783" lon="-105.2309537">
  <ele>1583.01</ele>
  <time>2026-08-28T17:50:10Z</time>
  <course>247.22</course>
  <speed>7.172419396549535</speed>
  <fix>3d</fix>
</trkpt>
<trkpt lat="40.0709817" lon="-105.2309434">
  <ele>1583.0</ele>
  <time>2026-08-28T17:50:10Z</time>
  <course>246.0</course>
  <speed>7.19</speed>
  <fix>3d</fix>
</trkpt>
<trkpt lat="40.0709757" lon="-105.2309614">
  <ele>1583.01</ele>
  <time>2026-08-28T17:50:10Z</time>
  <course>247.22</course>
  <speed>7.172419396549535</speed>
  <fix>3d</fix>
</trkpt>
<trkpt lat="40.0709817" lon="-105.2309434">
  <ele>1583.0</ele>
  <time>2026-08-28T17:50:10Z</time>
  <course>246.0</course>
  <speed>7.19</speed>
  <fix>3d</fix>
</trkpt>
<trkpt lat="40.070973" lon="-105.2309692">
  <ele>1583.01</ele>
  <time>2026-08-28T17:50:10Z</time>
  <course>247.22</course>
  <speed>7.172419396549535</speed>
  <fix>3d</fix>
</trkpt>
<trkpt lat="40.0709764" lon="-105.2309588">
  <ele>1583.0</ele>
  <time>2026-08-28T17:50:10Z</time>
  <course>246.0</course>
  <speed>7.19</speed>
  <fix>3d</fix>
</trkpt>
<trkpt lat="40.0709704" lon="-105.2309769">
  <ele>1583.01</ele>
  <time>2026-08-28T17:50:10Z</time>
  <course>247.23</course>
  <speed>7.181566681442149</speed>
  <fix>3d</fix>
</trkpt>
<trkpt lat="40.0709764" lon="-105.2309588">
  <ele>1583.0</ele>
  <time>2026-08-28T17:50:10Z</time>
  <course>246.0</course>
  <speed>7.19</speed>
  <fix>3d</fix>
</trkpt>
<trkpt lat="40.0709678" lon="-105.2309847">
  <ele>1583.01</ele>
  <time>2026-08-28T17:50:10Z</time>
  <course>247.23</course>
  <speed>7.181566681442149</speed>
  <fix>3d</fix>
</trkpt>
<trkpt lat="40.0709764" lon="-105.2309588">
  <ele>1583.0</ele>
  <time>2026-08-28T17:50:10Z</time>
  <course>246.0</course>
  <speed>7.19</speed>
  <fix>3d</fix>
</trkpt>
<trkpt lat="40.0709652" lon="-105.2309923">
  <ele>1583.01</ele>
  <time>2026-08-28T17:50:10Z</time>
  <course>247.23</course>
  <speed>7.172419396549535</speed>
  <fix>3d</fix>
</trkpt>
<trkpt lat="40.0709711" lon="-105.2309743">
  <ele>1583.0</ele>
  <time>2026-08-28T17:50:10Z</time>
  <course>246.0</course>
  <speed>7.19</speed>
  <fix>3d</fix>
</trkpt>
<trkpt lat="40.0709625" lon="-105.231">
  <ele>1583.0</ele>
  <time>2026-08-28T17:50:10Z</time>
  <course>247.23</course>
  <speed>7.172419396549535</speed>
  <fix>3d</fix>
</trkpt>
<trkpt lat="40.0709711" lon="-105.2309743">
  <ele>1583.0</ele>
  <time>2026-08-28T17:50:10Z</time>
  <course>246.0</course>
  <speed>7.19</speed>
  <fix>3d</fix>
</trkpt>
<trkpt lat="40.0709599" lon="-105.2310077">
  <ele>1583.0</ele>
  <time>2026-08-28T17:50:10Z</time>
  <course>247.23</course>
  <speed>7.172419396549535</speed>
  <fix>3d</fix>
</trkpt>
<trkpt lat="40.0709659" lon="-105.2309898">
  <ele>1583.0</ele>
  <time>2026-08-28T17:50:10Z</time>
  <course>245.99</course>
  <speed>7.19</speed>
  <fix>3d</fix>
</trkpt>
<trkpt lat="40.0709573" lon="-105.2310153">
  <ele>1583.0</ele>
  <time>2026-08-28T17:50:10Z</time>
  <course>247.23</course>
  <speed>7.172419396549535</speed>
  <fix>3d</fix>
</trkpt>
<trkpt lat="40.0709659" lon="-105.2309898">
  <ele>1583.0</ele>
  <time>2026-08-28T17:50:10Z</time>
  <course>245.99</course>
  <speed>7.19</speed>
  <fix>3d</fix>
</trkpt>
<trkpt lat="40.0709547" lon="-105.2310229">
  <ele>1583.0</ele>
  <time>2026-08-28T17:50:10Z</time>
  <course>247.23</course>
  <speed>7.172419396549535</speed>
  <fix>3d</fix>
</trkpt>
<trkpt lat="40.0709606" lon="-105.2310052">
  <ele>1583.0</ele>
  <time>2026-08-28T17:50:10Z</time>
  <course>246.0</course>
  <speed>7.19</speed>
  <fix>3d</fix>
</trkpt>
<trkpt lat="40.0709521" lon="-105.2310306">
  <ele>1583.0</ele>
  <time>2026-08-28T17:50:10Z</time>
  <course>247.23</course>
  <speed>7.163274390947201</speed>
  <fix>3d</fix>
</trkpt>
<trkpt lat="40.0709554" lon="-105.2310206">
  <ele>1583.0</ele>
  <time>2026-08-28T17:50:10Z</time>
  <course>246.0</course>
  <speed>7.19</speed>
  <fix>3d</fix>
</trkpt>
<trkpt lat="40.0709495" lon="-105.2310384">
  <ele>1582.99</ele>
  <time>2026-08-28T17:50:10Z</time>
  <course>247.24</course>
  <speed>7.163274390947201</speed>
  <fix>3d</fix>
</trkpt>
<trkpt lat="40.0709554" lon="-105.2310206">
  <ele>1583.0</ele>
  <time>2026-08-28T17:50:10Z</time>
  <course>246.0</course>
  <speed>7.19</speed>
  <fix>3d</fix>
</trkpt>
<trkpt lat="40.0709469" lon="-105.2310461">
  <ele>1582.99</ele>
  <time>2026-08-28T17:50:10Z</time>
  <course>247.24</course>
  <speed>7.163274390947201</speed>
  <fix>3d</fix>
</trkpt>
<trkpt lat="40.0709501" lon="-105.2310361">
  <ele>1583.0</ele>
  <time>2026-08-28T17:50:10Z</time>
  <course>246.0</course>
  <speed>7.19</speed>
  <fix>3d</fix>
</trkpt>
<trkpt lat="40.0709442" lon="-105.2310538">
  <ele>1582.99</ele>
  <time>2026-08-28T17:50:10Z</time>
  <course>247.24</course>
  <speed>7.163274390947201</speed>
  <fix>3d</fix>
</trkpt>
<trkpt lat="40.0709501" lon="-105.2310361">
  <ele>1583.0</ele>
  <time>2026-08-28T17:50:10Z</time>
  <course>246.0</course>
  <speed>7.19</speed>
  <fix>3d</fix>
</trkpt>
<trkpt lat="40.0709416" lon="-105.2310615">
  <ele>1582.98</ele>
  <time>2026-08-28T17:50:10Z</time>
  <course>247.24</course>
  <speed>7.172419396549535</speed>
  <fix>3d</fix>
</trkpt>
<trkpt lat="40.0709449" lon="-105.2310514">
  <ele>1583.0</ele>
  <time>2026-08-28T17:50:10Z</time>
  <course>245.99</course>
  <speed>7.19</speed>
  <fix>3d</fix>
</trkpt>
<trkpt lat="40.070939" lon="-105.2310692">
  <ele>1582.98</ele>
  <time>2026-08-28T17:50:10Z</time>
  <course>247.24</course>
  <speed>7.172419396549535</speed>
  <fix>3d</fix>
</trkpt>
<trkpt lat="40.0709449" lon="-105.2310514">
  <ele>1583.0</ele>
  <time>2026-08-28T17:50:10Z</time>
  <course>245.99</course>
  <speed>7.19</speed>
  <fix>3d</fix>
</trkpt>
<trkpt lat="40.0709364" lon="-105.231077">
  <ele>1582.98</ele>
  <time>2026-08-28T17:50:10Z</time>
  <course>247.24</course>
  <speed>7.172419396549535</speed>
  <fix>3d</fix>
</trkpt>
<trkpt lat="40.0709396" lon="-105.2310669">
  <ele>1583.0</ele>
  <time>2026-08-28T17:50:10Z</time>
  <course>245.99</course>
  <speed>7.19</speed>
  <fix>3d</fix>
</trkpt>
<trkpt lat="40.0709337" lon="-105.2310847">
  <ele>1582.98</ele>
  <time>2026-08-28T17:50:10Z</time>
  <course>247.24</course>
  <speed>7.172419396549535</speed>
  <fix>3d</fix>
</trkpt>
<trkpt lat="40.0709396" lon="-105.2310669">
  <ele>1583.0</ele>
  <time>2026-08-28T17:50:10Z</time>
  <course>245.99</course>
  <speed>7.19</speed>
  <fix>3d</fix>
</trkpt>
<trkpt lat="40.0709311" lon="-105.2310925">
  <ele>1582.98</ele>
  <time>2026-08-28T17:50:10Z</time>
  <course>247.24</course>
  <speed>7.172419396549535</speed>
  <fix>3d</fix>
</trkpt>
<trkpt lat="40.0709343" lon="-105.2310823">
  <ele>1583.0</ele>
  <time>2026-08-28T17:50:10Z</time>
  <course>245.99</course>
  <speed>7.19</speed>
  <fix>3d</fix>
</trkpt>
<trkpt lat="40.0709284" lon="-105.2311003">
  <ele>1582.98</ele>
  <time>2026-08-28T17:50:10Z</time>
  <course>247.24</course>
  <speed>7.172419396549535</speed>
  <fix>3d</fix>
</trkpt>
<trkpt lat="40.0709343" lon="-105.2310823">
  <ele>1583.0</ele>
  <time>2026-08-28T17:50:10Z</time>
  <course>245.99</course>
  <speed>7.19</speed>
  <fix>3d</fix>
</trkpt>
<trkpt lat="40.0709258" lon="-105.2311081">
  <ele>1582.98</ele>
  <time>2026-08-28T17:50:10Z</time>
  <course>247.24</course>
  <speed>7.181566681442149</speed>
  <fix>3d</fix>
</trkpt>
<trkpt lat="40.0709291" lon="-105.2310977">
  <ele>1583.0</ele>
  <time>2026-08-28T17:50:10Z</time>
  <course>246.0</course>
  <speed>7.19</speed>
  <fix>3d</fix>
</trkpt>
<trkpt lat="40.0709231" lon="-105.2311158">
  <ele>1582.97</ele>
  <time>2026-08-28T17:50:10Z</time>
  <course>247.24</course>
  <speed>7.181566681442149</speed>
  <fix>3d</fix>
</trkpt>
<trkpt lat="40.0709291" lon="-105.2310977">
  <ele>1583.0</ele>
  <time>2026-08-28T17:50:10Z</time>
  <course>246.0</course>
  <speed>7.19</speed>
  <fix>3d</fix>
</trkpt>
<trkpt lat="40.0709205" lon="-105.2311236">
  <ele>1582.98</ele>
  <time>2026-08-28T17:50:10Z</time>
  <course>247.24</course>
  <speed>7.181566681442149</speed>
  <fix>3d</fix>
</trkpt>
<trkpt lat="40.0709238" lon="-105.2311132">
  <ele>1583.0</ele>
  <time>2026-08-28T17:50:10Z</time>
  <course>246.0</course>
  <speed>7.19</speed>
  <fix>3d</fix>
</trkpt>
<trkpt lat="40.0709178" lon="-105.2311313">
  <ele>1582.98</ele>
  <time>2026-08-28T17:50:10Z</time>
  <course>247.24</course>
  <speed>7.181566681442149</speed>
  <fix>3d</fix>
</trkpt>
<trkpt lat="40.0709238" lon="-105.2311132">
  <ele>1583.0</ele>
  <time>2026-08-28T17:50:10Z</time>
  <course>246.0</course>
  <speed>7.19</speed>
  <fix>3d</fix>
</trkpt>
<trkpt lat="40.0709152" lon="-105.2311391">
  <ele>1582.98</ele>
  <time>2026-08-28T17:50:10Z</time>
  <course>247.25</course>
  <speed>7.181566681442149</speed>
  <fix>3d</fix>
</trkpt>
<trkpt lat="40.0709238" lon="-105.2311132">
  <ele>1583.0</ele>
  <time>2026-08-28T17:50:10Z</time>
  <course>246.0</course>
  <speed>7.19</speed>
  <fix>3d</fix>
</trkpt>
<trkpt lat="40.0709126" lon="-105.2311467">
  <ele>1582.98</ele>
  <time>2026-08-28T17:50:10Z</time>
  <course>247.25</course>
  <speed>7.181566681442149</speed>
  <fix>3d</fix>
</trkpt>
<trkpt lat="40.0709185" lon="-105.2311287">
  <ele>1583.0</ele>
  <time>2026-08-28T17:50:10Z</time>
  <course>245.99</course>
  <speed>7.19</speed>
  <fix>3d</fix>
</trkpt>
<trkpt lat="40.07091" lon="-105.2311544">
  <ele>1582.98</ele>
  <time>2026-08-28T17:50:10Z</time>
  <course>247.25</course>
  <speed>7.181566681442149</speed>
  <fix>3d</fix>
</trkpt>
<trkpt lat="40.0709185" lon="-105.2311287">
  <ele>1583.0</ele>
  <time>2026-08-28T17:50:10Z</time>
  <course>245.99</course>
  <speed>7.19</speed>
  <fix>3d</fix>
</trkpt>
<trkpt lat="40.0709074" lon="-105.2311621">
  <ele>1582.99</ele>
  <time>2026-08-28T17:50:10Z</time>
  <course>247.25</course>
  <speed>7.172419396549535</speed>
  <fix>3d</fix>
</trkpt>
<trkpt lat="40.0709133" lon="-105.2311441">
  <ele>1583.0</ele>
  <time>2026-08-28T17:50:10Z</time>
  <course>245.99</course>
  <speed>7.19</speed>
  <fix>3d</fix>
</trkpt>
<trkpt lat="40.0709048" lon="-105.2311697">
  <ele>1582.99</ele>
  <time>2026-08-28T17:50:10Z</time>
  <course>247.25</course>
  <speed>7.172419396549535</speed>
  <fix>3d</fix>
</trkpt>
<trkpt lat="40.0709133" lon="-105.2311441">
  <ele>1583.0</ele>
  <time>2026-08-28T17:50:10Z</time>
  <course>245.99</course>
  <speed>7.19</speed>
  <fix>3d</fix>
</trkpt>
<trkpt lat="40.0709021" lon="-105.2311773">
  <ele>1583.0</ele>
  <time>2026-08-28T17:50:10Z</time>
  <course>247.25</course>
  <speed>7.172419396549535</speed>
  <fix>3d</fix>
</trkpt>
<trkpt lat="40.070908" lon="-105.2311596">
  <ele>1583.0</ele>
  <time>2026-08-28T17:50:10Z</time>
  <course>245.99</course>
  <speed>7.19</speed>
  <fix>3d</fix>
</trkpt>
<trkpt lat="40.0708995" lon="-105.231185">
  <ele>1583.0</ele>
  <time>2026-08-28T17:50:10Z</time>
  <course>247.25</course>
  <speed>7.172419396549535</speed>
  <fix>3d</fix>
</trkpt>
<trkpt lat="40.070908" lon="-105.2311596">
  <ele>1583.0</ele>
  <time>2026-08-28T17:50:10Z</time>
  <course>245.99</course>
  <speed>7.19</speed>
  <fix>3d</fix>
</trkpt>
<trkpt lat="40.0708969" lon="-105.2311927">
  <ele>1583.0</ele>
  <time>2026-08-28T17:50:10Z</time>
  <course>247.25</course>
  <speed>7.159231802365391</speed>
  <fix>3d</fix>
</trkpt>
<trkpt lat="40.0709028" lon="-105.231175">
  <ele>1583.0</ele>
  <time>2026-08-28T17:50:10Z</time>
  <course>245.99</course>
  <speed>7.19</speed>
  <fix>3d</fix>
</trkpt>
<trkpt lat="40.0708943" lon="-105.2312003">
  <ele>1583.0</ele>
  <time>2026-08-28T17:50:10Z</time>
  <course>247.25</course>
  <speed>7.159231802365391</speed>
  <fix>3d</fix>
</trkpt>
<trkpt lat="40.0708975" lon="-105.2311905">
  <ele>1583.0</ele>
  <time>2026-08-28T17:50:10Z</time>
  <course>245.99</course>
  <speed>7.19</speed>
  <fix>3d</fix>
</trkpt>
<trkpt lat="40.0708917" lon="-105.231208">
  <ele>1583.0</ele>
  <time>2026-08-28T17:50:10Z</time>
  <course>247.25</course>
  <speed>7.159231802365391</speed>
  <fix>3d</fix>
</trkpt>
<trkpt lat="40.0708975" lon="-105.2311905">
  <ele>1583.0</ele>
  <time>2026-08-28T17:50:10Z</time>
  <course>245.99</course>
  <speed>7.19</speed>
  <fix>3d</fix>
</trkpt>
<trkpt lat="40.0708891" lon="-105.2312157">
  <ele>1583.0</ele>
  <time>2026-08-28T17:50:10Z</time>
  <course>247.25</course>
  <speed>7.159231802365391</speed>
  <fix>3d</fix>
</trkpt>
<trkpt lat="40.0708922" lon="-105.2312058">
  <ele>1583.0</ele>
  <time>2026-08-28T17:50:10Z</time>
  <course>245.99</course>
  <speed>7.19</speed>
  <fix>3d</fix>
</trkpt>
<trkpt lat="40.0708865" lon="-105.2312234">
  <ele>1583.0</ele>
  <time>2026-08-28T17:50:10Z</time>
  <course>247.25</course>
  <speed>7.159231802365391</speed>
  <fix>3d</fix>
</trkpt>
<trkpt lat="40.0708922" lon="-105.2312058">
  <ele>1583.0</ele>
  <time>2026-08-28T17:50:10Z</time>
  <course>245.99</course>
  <speed>7.19</speed>
  <fix>3d</fix>
</trkpt>
<trkpt lat="40.0708838" lon="-105.2312312">
  <ele>1583.0</ele>
  <time>2026-08-28T17:50:10Z</time>
  <course>247.25</course>
  <speed>7.159231802365391</speed>
  <fix>3d</fix>
</trkpt>
<trkpt lat="40.070887" lon="-105.2312213">
  <ele>1583.0</ele>
  <time>2026-08-28T17:50:10Z</time>
  <course>245.99</course>
  <speed>7.19</speed>
  <fix>3d</fix>
</trkpt>
<trkpt lat="40.0708812" lon="-105.2312389">
  <ele>1583.0</ele>
  <time>2026-08-28T17:50:10Z</time>
  <course>247.25</course>
  <speed>7.172419396549535</speed>
  <fix>3d</fix>
</trkpt>
<trkpt lat="40.070887" lon="-105.2312213">
  <ele>1583.0</ele>
  <time>2026-08-28T17:50:10Z</time>
  <course>245.99</course>
  <speed>7.19</speed>
  <fix>3d</fix>
</trkpt>
<trkpt lat="40.0708785" lon="-105.2312467">
  <ele>1583.01</ele>
  <time>2026-08-28T17:50:10Z</time>
  <course>247.25</course>
  <speed>7.172419396549535</speed>
  <fix>3d</fix>
</trkpt>
<trkpt lat="40.0708817" lon="-105.2312367">
  <ele>1583.0</ele>
  <time>2026-08-28T17:50:10Z</time>
  <course>245.99</course>
  <speed>7.19</speed>
  <fix>3d</fix>
</trkpt>
<trkpt lat="40.0708759" lon="-105.2312545">
  <ele>1583.01</ele>
  <time>2026-08-28T17:50:10Z</time>
  <course>247.25</course>
  <speed>7.172419396549535</speed>
  <fix>3d</fix>
</trkpt>
<trkpt lat="40.0708817" lon="-105.2312367">
  <ele>1583.0</ele>
  <time>2026-08-28T17:50:10Z</time>
  <course>245.99</course>
  <speed>7.19</speed>
  <fix>3d</fix>
</trkpt>
<trkpt lat="40.0708732" lon="-105.2312623">
  <ele>1583.01</ele>
  <time>2026-08-28T17:50:10Z</time>
  <course>247.25</course>
  <speed>7.172419396549535</speed>
  <fix>3d</fix>
</trkpt>
<trkpt lat="40.0708765" lon="-105.2312522">
  <ele>1583.0</ele>
  <time>2026-08-28T17:50:10Z</time>
  <course>245.99</course>
  <speed>7.19</speed>
  <fix>3d</fix>
</trkpt>
<trkpt lat="40.0708706" lon="-105.2312701">
  <ele>1583.01</ele>
  <time>2026-08-28T17:50:10Z</time>
  <course>247.25</course>
  <speed>7.172419396549535</speed>
  <fix>3d</fix>
</trkpt>
<trkpt lat="40.0708765" lon="-105.2312522">
  <ele>1583.0</ele>
  <time>2026-08-28T17:50:10Z</time>
  <course>245.99</course>
  <speed>7.19</speed>
  <fix>3d</fix>
</trkpt>
<trkpt lat="40.0708679" lon="-105.2312778">
  <ele>1583.01</ele>
  <time>2026-08-28T17:50:10Z</time>
  <course>247.25</course>
  <speed>7.181566681442149</speed>
  <fix>3d</fix>
</trkpt>
<trkpt lat="40.0708712" lon="-105.2312676">
  <ele>1583.0</ele>
  <time>2026-08-28T17:50:10Z</time>
  <course>245.99</course>
  <speed>7.19</speed>
  <fix>3d</fix>
</trkpt>
<trkpt lat="40.0708653" lon="-105.2312856">
  <ele>1583.01</ele>
  <time>2026-08-28T17:50:10Z</time>
  <course>247.25</course>
  <speed>7.181566681442149</speed>
  <fix>3d</fix>
</trkpt>
<trkpt lat="40.0708712" lon="-105.2312676">
  <ele>1583.0</ele>
  <time>2026-08-28T17:50:10Z</time>
  <course>245.99</course>
  <speed>7.19</speed>
  <fix>3d</fix>
</trkpt>
<trkpt lat="40.0708626" lon="-105.2312933">
  <ele>1583.01</ele>
  <time>2026-08-28T17:50:10Z</time>
  <course>247.25</course>
  <speed>7.181566681442149</speed>
  <fix>3d</fix>
</trkpt>
<trkpt lat="40.0708659" lon="-105.2312831">
  <ele>1583.0</ele>
  <time>2026-08-28T17:50:10Z</time>
  <course>245.99</course>
  <speed>7.19</speed>
  <fix>3d</fix>
</trkpt>
<trkpt lat="40.07086" lon="-105.2313011">
  <ele>1583.01</ele>
  <time>2026-08-28T17:50:10Z</time>
  <course>247.25</course>
  <speed>7.181566681442149</speed>
  <fix>3d</fix>
</trkpt>
<trkpt lat="40.0708659" lon="-105.2312831">
  <ele>1583.0</ele>
  <time>2026-08-28T17:50:10Z</time>
  <course>245.99</course>
  <speed>7.19</speed>
  <fix>3d</fix>
</trkpt>
<trkpt lat="40.0708573" lon="-105.2313089">
  <ele>1583.02</ele>
  <time>2026-08-28T17:50:10Z</time>
  <course>247.25</course>
  <speed>7.181566681442149</speed>
  <fix>3d</fix>
</trkpt>
<trkpt lat="40.0708659" lon="-105.2312831">
  <ele>1583.0</ele>
  <time>2026-08-28T17:50:10Z</time>
  <course>245.99</course>
  <speed>7.19</speed>
  <fix>3d</fix>
</trkpt>
<trkpt lat="40.0708547" lon="-105.2313166">
  <ele>1583.02</ele>
  <time>2026-08-28T17:50:10Z</time>
  <course>247.25</course>
  <speed>7.181566681442149</speed>
  <fix>3d</fix>
</trkpt>
<trkpt lat="40.0708607" lon="-105.2312985">
  <ele>1583.0</ele>
  <time>2026-08-28T17:50:10Z</time>
  <course>245.99</course>
  <speed>7.19</speed>
  <fix>3d</fix>
</trkpt>
<trkpt lat="40.0708521" lon="-105.2313242">
  <ele>1583.02</ele>
  <time>2026-08-28T17:50:10Z</time>
  <course>247.25</course>
  <speed>7.181566681442149</speed>
  <fix>3d</fix>
</trkpt>
<trkpt lat="40.0708607" lon="-105.2312985">
  <ele>1583.0</ele>
  <time>2026-08-28T17:50:10Z</time>
  <course>245.99</course>
  <speed>7.19</speed>
  <fix>3d</fix>
</trkpt>
<trkpt lat="40.0708495" lon="-105.2313319">
  <ele>1583.02</ele>
  <time>2026-08-28T17:50:10Z</time>
  <course>247.25</course>
  <speed>7.181566681442149</speed>
  <fix>3d</fix>
</trkpt>
<trkpt lat="40.0708554" lon="-105.231314">
  <ele>1583.0</ele>
  <time>2026-08-28T17:50:10Z</time>
  <course>245.99</course>
  <speed>7.19</speed>
  <fix>3d</fix>
</trkpt>
<trkpt lat="40.0708469" lon="-105.2313395">
  <ele>1583.02</ele>
  <time>2026-08-28T17:50:10Z</time>
  <course>247.25</course>
  <speed>7.172419396549535</speed>
  <fix>3d</fix>
</trkpt>
<trkpt lat="40.0708554" lon="-105.231314">
  <ele>1583.0</ele>
  <time>2026-08-28T17:50:10Z</time>
  <course>245.99</course>
  <speed>7.19</speed>
  <fix>3d</fix>
</trkpt>
<trkpt lat="40.0708443" lon="-105.2313472">
  <ele>1583.02</ele>
  <time>2026-08-28T17:50:10Z</time>
  <course>247.25</course>
  <speed>7.172419396549535</speed>
  <fix>3d</fix>
</trkpt>
<trkpt lat="40.0708501" lon="-105.2313294">
  <ele>1583.0</ele>
  <time>2026-08-28T17:50:10Z</time>
  <course>245.99</course>
  <speed>7.19</speed>
  <fix>3d</fix>
</trkpt>
<trkpt lat="40.0708417" lon="-105.2313549">
  <ele>1583.02</ele>
  <time>2026-08-28T17:50:10Z</time>
  <course>247.25</course>
  <speed>7.172419396549535</speed>
  <fix>3d</fix>
</trkpt>
<trkpt lat="40.0708449" lon="-105.2313449">
  <ele>1583.0</ele>
  <time>2026-08-28T17:50:10Z</time>
  <course>245.99</course>
  <speed>7.19</speed>
  <fix>3d</fix>
</trkpt>
<trkpt lat="40.070839" lon="-105.2313626">
  <ele>1583.02</ele>
  <time>2026-08-28T17:50:10Z</time>
  <course>247.25</course>
  <speed>7.172419396549535</speed>
  <fix>3d</fix>
</trkpt>
<trkpt lat="40.0708449" lon="-105.2313449">
  <ele>1583.0</ele>
  <time>2026-08-28T17:50:10Z</time>
  <course>245.99</course>
  <speed>7.19</speed>
  <fix>3d</fix>
</trkpt>
<trkpt lat="40.0708364" lon="-105.2313703">
  <ele>1583.01</ele>
  <time>2026-08-28T17:50:10Z</time>
  <course>247.25</course>
  <speed>7.172419396549535</speed>
  <fix>3d</fix>
</trkpt>
<trkpt lat="40.0708396" lon="-105.2313602">
  <ele>1583.0</ele>
  <time>2026-08-28T17:50:10Z</time>
  <course>245.99</course>
  <speed>7.19</speed>
  <fix>3d</fix>
</trkpt>
<trkpt lat="40.0708338" lon="-105.231378">
  <ele>1583.01</ele>
  <time>2026-08-28T17:50:10Z</time>
  <course>247.25</course>
  <speed>7.172419396549535</speed>
  <fix>3d</fix>
</trkpt>
<trkpt lat="40.0708396" lon="-105.2313602">
  <ele>1583.0</ele>
  <time>2026-08-28T17:50:10Z</time>
  <course>245.99</course>
  <speed>7.19</speed>
  <fix>3d</fix>
</trkpt>
<trkpt lat="40.0708312" lon="-105.2313857">
  <ele>1583.01</ele>
  <time>2026-08-28T17:50:10Z</time>
  <course>247.25</course>
  <speed>7.172419396549535</speed>
  <fix>3d</fix>
</trkpt>
<trkpt lat="40.0708343" lon="-105.2313757">
  <ele>1583.0</ele>
  <time>2026-08-28T17:50:10Z</time>
  <course>245.99</course>
  <speed>7.19</speed>
  <fix>3d</fix>
</trkpt>
<trkpt lat="40.0708285" lon="-105.2313935">
  <ele>1583.01</ele>
  <time>2026-08-28T17:50:10Z</time>
  <course>247.25</course>
  <speed>7.172419396549535</speed>
  <fix>3d</fix>
</trkpt>
<trkpt lat="40.0708343" lon="-105.2313757">
  <ele>1583.0</ele>
  <time>2026-08-28T17:50:10Z</time>
  <course>245.99</course>
  <speed>7.19</speed>
  <fix>3d</fix>
</trkpt>
<trkpt lat="40.0708259" lon="-105.2314012">
  <ele>1583.0</ele>
  <time>2026-08-28T17:50:10Z</time>
  <course>247.25</course>
  <speed>7.172419396549535</speed>
  <fix>3d</fix>
</trkpt>
<trkpt lat="40.0708291" lon="-105.2313911">
  <ele>1583.0</ele>
  <time>2026-08-28T17:50:10Z</time>
  <course>245.99</course>
  <speed>7.19</speed>
  <fix>3d</fix>
</trkpt>
<trkpt lat="40.0708232" lon="-105.231409">
  <ele>1583.0</ele>
  <time>2026-08-28T17:50:10Z</time>
  <course>247.25</course>
  <speed>7.172419396549535</speed>
  <fix>3d</fix>
</trkpt>
<trkpt lat="40.0708291" lon="-105.2313911">
  <ele>1583.0</ele>
  <time>2026-08-28T17:50:10Z</time>
  <course>245.99</course>
  <speed>7.19</speed>
  <fix>3d</fix>
</trkpt>
<trkpt lat="40.0708205" lon="-105.2314168">
  <ele>1583.0</ele>
  <time>2026-08-28T17:50:10Z</time>
  <course>247.25</course>
  <speed>7.172419396549535</speed>
  <fix>3d</fix>
</trkpt>
<trkpt lat="40.0708238" lon="-105.2314066">
  <ele>1583.0</ele>
  <time>2026-08-28T17:50:10Z</time>
  <course>245.99</course>
  <speed>7.19</speed>
  <fix>3d</fix>
</trkpt>
<trkpt lat="40.0708179" lon="-105.2314246">
  <ele>1583.0</ele>
  <time>2026-08-28T17:50:10Z</time>
  <course>247.25</course>
  <speed>7.181566681442149</speed>
  <fix>3d</fix>
</trkpt>
<trkpt lat="40.0708238" lon="-105.2314066">
  <ele>1583.0</ele>
  <time>2026-08-28T17:50:10Z</time>
  <course>245.99</course>
  <speed>7.19</speed>
  <fix>3d</fix>
</trkpt>
<trkpt lat="40.0708152" lon="-105.2314323">
  <ele>1582.99</ele>
  <time>2026-08-28T17:50:10Z</time>
  <course>247.25</course>
  <speed>7.181566681442149</speed>
  <fix>3d</fix>
</trkpt>
<trkpt lat="40.0708186" lon="-105.2314221">
  <ele>1583.0</ele>
  <time>2026-08-28T17:50:10Z</time>
  <course>245.99</course>
  <speed>7.19</speed>
  <fix>3d</fix>
</trkpt>
<trkpt lat="40.0708126" lon="-105.2314401">
  <ele>1582.99</ele>
  <time>2026-08-28T17:50:10Z</time>
  <course>247.25</course>
  <speed>7.181566681442149</speed>
  <fix>3d</fix>
</trkpt>
<trkpt lat="40.0708186" lon="-105.2314221">
  <ele>1583.0</ele>
  <time>2026-08-28T17:50:10Z</time>
  <course>245.99</course>
  <speed>7.19</speed>
  <fix>3d</fix>
</trkpt>
<trkpt lat="40.07081" lon="-105.2314478">
  <ele>1582.99</ele>
  <time>2026-08-28T17:50:10Z</time>
  <course>247.25</course>
  <speed>7.181566681442149</speed>
  <fix>3d</fix>
</trkpt>
<trkpt lat="40.0708133" lon="-105.2314375">
  <ele>1583.0</ele>
  <time>2026-08-28T17:50:10Z</time>
  <course>245.99</course>
  <speed>7.19</speed>
  <fix>3d</fix>
</trkpt>
<trkpt lat="40.0708073" lon="-105.2314556">
  <ele>1582.99</ele>
  <time>2026-08-28T17:50:10Z</time>
  <course>247.25</course>
  <speed>7.181566681442149</speed>
  <fix>3d</fix>
</trkpt>
<trkpt lat="40.0708133" lon="-105.2314375">
  <ele>1583.0</ele>
  <time>2026-08-28T17:50:10Z</time>
  <course>245.99</course>
  <speed>7.19</speed>
  <fix>3d</fix>
</trkpt>
<trkpt lat="40.0708047" lon="-105.2314633">
  <ele>1582.99</ele>
  <time>2026-08-28T17:50:10Z</time>
  <course>247.25</course>
  <speed>7.181566681442149</speed>
  <fix>3d</fix>
</trkpt>
<trkpt lat="40.0708133" lon="-105.2314375">
  <ele>1583.0</ele>
  <time>2026-08-28T17:50:10Z</time>
  <course>245.99</course>
  <speed>7.19</speed>
  <fix>3d</fix>
</trkpt>
<trkpt lat="40.0708021" lon="-105.231471">
  <ele>1582.99</ele>
  <time>2026-08-28T17:50:10Z</time>
  <course>247.25</course>
  <speed>7.181566681442149</speed>
  <fix>3d</fix>
</trkpt>
<trkpt lat="40.070808" lon="-105.2314529">
  <ele>1583.0</ele>
  <time>2026-08-28T17:50:10Z</time>
  <course>245.99</course>
  <speed>7.19</speed>
  <fix>3d</fix>
</trkpt>
<trkpt lat="40.0707994" lon="-105.2314787">
  <ele>1582.99</ele>
  <time>2026-08-28T17:50:10Z</time>
  <course>247.25</course>
  <speed>7.181566681442149</speed>
  <fix>3d</fix>
</trkpt>
<trkpt lat="40.070808" lon="-105.2314529">
  <ele>1583.0</ele>
  <time>2026-08-28T17:50:10Z</time>
  <course>245.99</course>
  <speed>7.19</speed>
  <fix>3d</fix>
</trkpt>
<trkpt lat="40.0707968" lon="-105.2314864">
  <ele>1582.99</ele>
  <time>2026-08-28T17:50:10Z</time>
  <course>247.25</course>
  <speed>7.181566681442149</speed>
  <fix>3d</fix>
</trkpt>
<trkpt lat="40.0708028" lon="-105.2314684">
  <ele>1583.0</ele>
  <time>2026-08-28T17:50:10Z</time>
  <course>245.99</course>
  <speed>7.19</speed>
  <fix>3d</fix>
</trkpt>
<trkpt lat="40.0707942" lon="-105.231494">
  <ele>1582.99</ele>
  <time>2026-08-28T17:50:10Z</time>
  <course>247.25</course>
  <speed>7.172419396549535</speed>
  <fix>3d</fix>
</trkpt>
<trkpt lat="40.0708028" lon="-105.2314684">
  <ele>1583.0</ele>
  <time>2026-08-28T17:50:10Z</time>
  <course>245.99</course>
  <speed>7.19</speed>
  <fix>3d</fix>
</trkpt>
<trkpt lat="40.0707916" lon="-105.2315016">
  <ele>1582.99</ele>
  <time>2026-08-28T17:50:10Z</time>
  <course>247.25</course>
  <speed>7.172419396549535</speed>
  <fix>3d</fix>
</trkpt>
<trkpt lat="40.0707975" lon="-105.2314839">
  <ele>1583.0</ele>
  <time>2026-08-28T17:50:10Z</time>
  <course>245.99</course>
  <speed>7.19</speed>
  <fix>3d</fix>
</trkpt>
<trkpt lat="40.070789" lon="-105.2315093">
  <ele>1582.99</ele>
  <time>2026-08-28T17:50:10Z</time>
  <course>247.25</course>
  <speed>7.172419396549535</speed>
  <fix>3d</fix>
</trkpt>
<trkpt lat="40.0707975" lon="-105.2314839">
  <ele>1583.0</ele>
  <time>2026-08-28T17:50:10Z</time>
  <course>245.99</course>
  <speed>7.19</speed>
  <fix>3d</fix>
</trkpt>
<trkpt lat="40.0707864" lon="-105.231517">
  <ele>1582.99</ele>
  <time>2026-08-28T17:50:10Z</time>
  <course>247.25</course>
  <speed>7.163274390947201</speed>
  <fix>3d</fix>
</trkpt>
<trkpt lat="40.0707922" lon="-105.2314993">
  <ele>1583.0</ele>
  <time>2026-08-28T17:50:10Z</time>
  <course>245.99</course>
  <speed>7.19</speed>
  <fix>3d</fix>
</trkpt>
<trkpt lat="40.0707838" lon="-105.2315246">
  <ele>1582.99</ele>
  <time>2026-08-28T17:50:10Z</time>
  <course>247.25</course>
  <speed>7.163274390947201</speed>
  <fix>3d</fix>
</trkpt>
<trkpt lat="40.070787" lon="-105.2315147">
  <ele>1583.0</ele>
  <time>2026-08-28T17:50:10Z</time>
  <course>245.99</course>
  <speed>7.19</speed>
  <fix>3d</fix>
</trkpt>
<trkpt lat="40.0707812" lon="-105.2315323">
  <ele>1583.0</ele>
  <time>2026-08-28T17:50:10Z</time>
  <course>247.25</course>
  <speed>7.163274390947201</speed>
  <fix>3d</fix>
</trkpt>
<trkpt lat="40.070787" lon="-105.2315147">
  <ele>1583.0</ele>
  <time>2026-08-28T17:50:10Z</time>
  <course>245.99</course>
  <speed>7.19</speed>
  <fix>3d</fix>
</trkpt>
<trkpt lat="40.0707786" lon="-105.23154">
  <ele>1583.0</ele>
  <time>2026-08-28T17:50:10Z</time>
  <course>247.25</course>
  <speed>7.163274390947201</speed>
  <fix>3d</fix>
</trkpt>
<trkpt lat="40.0707818" lon="-105.2315302">
  <ele>1583.0</ele>
  <time>2026-08-28T17:50:10Z</time>
  <course>245.99</course>
  <speed>7.19</speed>
  <fix>3d</fix>
</trkpt>
<trkpt lat="40.0707759" lon="-105.2315477">
  <ele>1582.99</ele>
  <time>2026-08-28T17:50:10Z</time>
  <course>247.25</course>
  <speed>7.163274390947201</speed>
  <fix>3d</fix>
</trkpt>
<trkpt lat="40.0707818" lon="-105.2315302">
  <ele>1583.0</ele>
  <time>2026-08-28T17:50:10Z</time>
  <course>245.99</course>
  <speed>7.19</speed>
  <fix>3d</fix>
</trkpt>
<trkpt lat="40.0707733" lon="-105.2315555">
  <ele>1582.99</ele>
  <time>2026-08-28T17:50:10Z</time>
  <course>247.25</course>
  <speed>7.163274390947201</speed>
  <fix>3d</fix>
</trkpt>
<trkpt lat="40.0707765" lon="-105.2315456">
  <ele>1583.0</ele>
  <time>2026-08-28T17:50:10Z</time>
  <course>245.99</course>
  <speed>7.19</speed>
  <fix>3d</fix>
</trkpt>
<trkpt lat="40.0707706" lon="-105.2315632">
  <ele>1582.99</ele>
  <time>2026-08-28T17:50:10Z</time>
  <course>247.25</course>
  <speed>7.172419396549535</speed>
  <fix>3d</fix>
</trkpt>
<trkpt lat="40.0707765" lon="-105.2315456">
  <ele>1583.0</ele>
  <time>2026-08-28T17:50:10Z</time>
  <course>245.99</course>
  <speed>7.19</speed>
  <fix>3d</fix>
</trkpt>
<trkpt lat="40.070768" lon="-105.231571">
  <ele>1582.99</ele>
  <time>2026-08-28T17:50:10Z</time>
  <course>247.25</course>
  <speed>7.172419396549535</speed>
  <fix>3d</fix>
</trkpt>
<trkpt lat="40.0707712" lon="-105.231561">
  <ele>1583.0</ele>
  <time>2026-08-28T17:50:10Z</time>
  <course>245.99</course>
  <speed>7.19</speed>
  <fix>3d</fix>
</trkpt>
<trkpt lat="40.0707653" lon="-105.2315788">
  <ele>1582.99</ele>
  <time>2026-08-28T17:50:10Z</time>
  <course>247.25</course>
  <speed>7.172419396549535</speed>
  <fix>3d</fix>
</trkpt>
<trkpt lat="40.0707712" lon="-105.231561">
  <ele>1583.0</ele>
  <time>2026-08-28T17:50:10Z</time>
  <course>245.99</course>
  <speed>7.19</speed>
  <fix>3d</fix>
</trkpt>
<trkpt lat="40.0707627" lon="-105.2315866">
  <ele>1582.99</ele>
  <time>2026-08-28T17:50:10Z</time>
  <course>247.25</course>
  <speed>7.172419396549535</speed>
  <fix>3d</fix>
</trkpt>
<trkpt lat="40.070766" lon="-105.2315764">
  <ele>1583.0</ele>
  <time>2026-08-28T17:50:10Z</time>
  <course>245.99</course>
  <speed>7.19</speed>
  <fix>3d</fix>
</trkpt>
<trkpt lat="40.07076" lon="-105.2315944">
  <ele>1582.99</ele>
  <time>2026-08-28T17:50:10Z</time>
  <course>247.24</course>
  <speed>7.172419396549535</speed>
  <fix>3d</fix>
</trkpt>
<trkpt lat="40.070766" lon="-105.2315764">
  <ele>1583.0</ele>
  <time>2026-08-28T17:50:10Z</time>
  <course>245.99</course>
  <speed>7.19</speed>
  <fix>3d</fix>
</trkpt>
<trkpt lat="40.0707574" lon="-105.2316021">
  <ele>1582.99</ele>
  <time>2026-08-28T17:50:10Z</time>
  <course>247.24</course>
  <speed>7.181566681442149</speed>
  <fix>3d</fix>
</trkpt>
<trkpt lat="40.0707607" lon="-105.2315919">
  <ele>1583.0</ele>
  <time>2026-08-28T17:50:10Z</time>
  <course>245.99</course>
  <speed>7.19</speed>
  <fix>3d</fix>
</trkpt>
<trkpt lat="40.0707548" lon="-105.2316099">
  <ele>1582.99</ele>
  <time>2026-08-28T17:50:10Z</time>
  <course>247.24</course>
  <speed>7.181566681442149</speed>
  <fix>3d</fix>
</trkpt>
<trkpt lat="40.0707607" lon="-105.2315919">
  <ele>1583.0</ele>
  <time>2026-08-28T17:50:10Z</time>
  <course>245.99</course>
  <speed>7.19</speed>
  <fix>3d</fix>
</trkpt>
<trkpt lat="40.0707521" lon="-105.2316176">
  <ele>1582.99</ele>
  <time>2026-08-28T17:50:10Z</time>
  <course>247.24</course>
  <speed>7.181566681442149</speed>
  <fix>3d</fix>
</trkpt>
<trkpt lat="40.0707555" lon="-105.2316073">
  <ele>1583.0</ele>
  <time>2026-08-28T17:50:10Z</time>
  <course>245.99</course>
  <speed>7.19</speed>
  <fix>3d</fix>
</trkpt>
<trkpt lat="40.0707495" lon="-105.2316254">
  <ele>1582.99</ele>
  <time>2026-08-28T17:50:10Z</time>
  <course>247.24</course>
  <speed>7.181566681442149</speed>
  <fix>3d</fix>
</trkpt>
<trkpt lat="40.0707555" lon="-105.2316073">
  <ele>1583.0</ele>
  <time>2026-08-28T17:50:10Z</time>
  <course>245.99</course>
  <speed>7.19</speed>
  <fix>3d</fix>
</trkpt>
<trkpt lat="40.0707468" lon="-105.2316331">
  <ele>1582.99</ele>
  <time>2026-08-28T17:50:10Z</time>
  <course>247.24</course>
  <speed>7.181566681442149</speed>
  <fix>3d</fix>
</trkpt>
<trkpt lat="40.0707555" lon="-105.2316073">
  <ele>1583.0</ele>
  <time>2026-08-28T17:50:10Z</time>
  <course>245.99</course>
  <speed>7.19</speed>
  <fix>3d</fix>
</trkpt>
<trkpt lat="40.0707442" lon="-105.2316408">
  <ele>1583.0</ele>
  <time>2026-08-28T17:50:10Z</time>
  <course>247.24</course>
  <speed>7.181566681442149</speed>
  <fix>3d</fix>
</trkpt>
<trkpt lat="40.0707502" lon="-105.2316228">
  <ele>1583.0</ele>
  <time>2026-08-28T17:50:10Z</time>
  <course>245.99</course>
  <speed>7.19</speed>
  <fix>3d</fix>
</trkpt>
<trkpt lat="40.0707416" lon="-105.2316485">
  <ele>1583.0</ele>
  <time>2026-08-28T17:50:10Z</time>
  <course>247.24</course>
  <speed>7.181566681442149</speed>
  <fix>3d</fix>
</trkpt>
<trkpt lat="40.0707502" lon="-105.2316228">
  <ele>1583.0</ele>
  <time>2026-08-28T17:50:10Z</time>
  <course>245.99</course>
  <speed>7.19</speed>
  <fix>3d</fix>
</trkpt>
<trkpt lat="40.070739" lon="-105.2316562">
  <ele>1583.0</ele>
  <time>2026-08-28T17:50:10Z</time>
  <course>247.24</course>
  <speed>7.181566681442149</speed>
  <fix>3d</fix>
</trkpt>
<trkpt lat="40.0707449" lon="-105.2316382">
  <ele>1583.0</ele>
  <time>2026-08-28T17:50:10Z</time>
  <course>245.99</course>
  <speed>7.19</speed>
  <fix>3d</fix>
</trkpt>
<trkpt lat="40.0707364" lon="-105.2316638">
  <ele>1583.01</ele>
  <time>2026-08-28T17:50:10Z</time>
  <course>247.24</course>
  <speed>7.172419396549535</speed>
  <fix>3d</fix>
</trkpt>
<trkpt lat="40.0707449" lon="-105.2316382">
  <ele>1583.0</ele>
  <time>2026-08-28T17:50:10Z</time>
  <course>245.99</course>
  <speed>7.19</speed>
  <fix>3d</fix>
</trkpt>
<trkpt lat="40.0707338" lon="-105.2316715">
  <ele>1583.01</ele>
  <time>2026-08-28T17:50:10Z</time>
  <course>247.24</course>
  <speed>7.172419396549535</speed>
  <fix>3d</fix>
</trkpt>
<trkpt lat="40.0707397" lon="-105.2316537">
  <ele>1583.0</ele>
  <time>2026-08-28T17:50:10Z</time>
  <course>245.99</course>
  <speed>7.19</speed>
  <fix>3d</fix>
</trkpt>
<trkpt lat="40.0707312" lon="-105.2316792">
  <ele>1583.01</ele>
  <time>2026-08-28T17:50:10Z</time>
  <course>247.24</course>
  <speed>7.172419396549535</speed>
  <fix>3d</fix>
</trkpt>
<trkpt lat="40.0707344" lon="-105.2316691">
  <ele>1583.0</ele>
  <time>2026-08-28T17:50:10Z</time>
  <course>245.99</course>
  <speed>7.19</speed>
  <fix>3d</fix>
</trkpt>
<trkpt lat="40.0707285" lon="-105.2316869">
  <ele>1583.01</ele>
  <time>2026-08-28T17:50:10Z</time>
  <course>247.24</course>
  <speed>7.172419396549535</speed>
  <fix>3d</fix>
</trkpt>
<trkpt lat="40.0707344" lon="-105.2316691">
  <ele>1583.0</ele>
  <time>2026-08-28T17:50:10Z</time>
  <course>245.99</course>
  <speed>7.19</speed>
  <fix>3d</fix>
</trkpt>
<trkpt lat="40.0707259" lon="-105.2316946">
  <ele>1583.01</ele>
  <time>2026-08-28T17:50:10Z</time>
  <course>247.24</course>
  <speed>7.172419396549535</speed>
  <fix>3d</fix>
</trkpt>
<trkpt lat="40.0707292" lon="-105.2316846">
  <ele>1583.0</ele>
  <time>2026-08-28T17:50:10Z</time>
  <course>245.99</course>
  <speed>7.19</speed>
  <fix>3d</fix>
</trkpt>
<trkpt lat="40.0707233" lon="-105.2317022">
  <ele>1583.02</ele>
  <time>2026-08-28T17:50:10Z</time>
  <course>247.24</course>
  <speed>7.172419396549535</speed>
  <fix>3d</fix>
</trkpt>
<trkpt lat="40.0707292" lon="-105.2316846">
  <ele>1583.0</ele>
  <time>2026-08-28T17:50:10Z</time>
  <course>245.99</course>
  <speed>7.19</speed>
  <fix>3d</fix>
</trkpt>
<trkpt lat="40.0707207" lon="-105.23171">
  <ele>1583.02</ele>
  <time>2026-08-28T17:50:10Z</time>
  <course>247.24</course>
  <speed>7.172419396549535</speed>
  <fix>3d</fix>
</trkpt>
<trkpt lat="40.0707239" lon="-105.2316999">
  <ele>1583.0</ele>
  <time>2026-08-28T17:50:10Z</time>
  <course>245.99</course>
  <speed>7.19</speed>
  <fix>3d</fix>
</trkpt>
<trkpt lat="40.070718" lon="-105.2317177">
  <ele>1583.02</ele>
  <time>2026-08-28T17:50:10Z</time>
  <course>247.24</course>
  <speed>7.172419396549535</speed>
  <fix>3d</fix>
</trkpt>
<trkpt lat="40.0707239" lon="-105.2316999">
  <ele>1583.0</ele>
  <time>2026-08-28T17:50:10Z</time>
  <course>245.99</course>
  <speed>7.19</speed>
  <fix>3d</fix>
</trkpt>
<trkpt lat="40.0707154" lon="-105.2317255">
  <ele>1583.02</ele>
  <time>2026-08-28T17:50:10Z</time>
  <course>247.24</course>
  <speed>7.172419396549535</speed>
  <fix>3d</fix>
</trkpt>
<trkpt lat="40.0707186" lon="-105.2317154">
  <ele>1583.0</ele>
  <time>2026-08-28T17:50:10Z</time>
  <course>245.99</course>
  <speed>7.19</speed>
  <fix>3d</fix>
</trkpt>
<trkpt lat="40.0707127" lon="-105.2317333">
  <ele>1583.01</ele>
  <time>2026-08-28T17:50:10Z</time>
  <course>247.24</course>
  <speed>7.172419396549535</speed>
  <fix>3d</fix>
</trkpt>
<trkpt lat="40.0707186" lon="-105.2317154">
  <ele>1583.0</ele>
  <time>2026-08-28T17:50:10Z</time>
  <course>245.99</course>
  <speed>7.19</speed>
  <fix>3d</fix>
</trkpt>
<trkpt lat="40.0707101" lon="-105.2317411">
  <ele>1583.01</ele>
  <time>2026-08-28T17:50:10Z</time>
  <course>247.24</course>
  <speed>7.172419396549535</speed>
  <fix>3d</fix>
</trkpt>
<trkpt lat="40.0707134" lon="-105.2317309">
  <ele>1583.0</ele>
  <time>2026-08-28T17:50:10Z</time>
  <course>245.99</course>
  <speed>7.19</speed>
  <fix>3d</fix>
</trkpt>
<trkpt lat="40.0707074" lon="-105.2317488">
  <ele>1583.01</ele>
  <time>2026-08-28T17:50:10Z</time>
  <course>247.24</course>
  <speed>7.181566681442149</speed>
  <fix>3d</fix>
</trkpt>
<trkpt lat="40.0707134" lon="-105.2317309">
  <ele>1583.0</ele>
  <time>2026-08-28T17:50:10Z</time>
  <course>245.99</course>
  <speed>7.19</speed>
  <fix>3d</fix>
</trkpt>
<trkpt lat="40.0707048" lon="-105.2317566">
  <ele>1583.01</ele>
  <time>2026-08-28T17:50:10Z</time>
  <course>247.24</course>
  <speed>7.181566681442149</speed>
  <fix>3d</fix>
</trkpt>
<trkpt lat="40.0707081" lon="-105.2317463">
  <ele>1583.0</ele>
  <time>2026-08-28T17:50:10Z</time>
  <course>245.99</course>
  <speed>7.19</speed>
  <fix>3d</fix>
</trkpt>
<trkpt lat="40.0707022" lon="-105.2317643">
  <ele>1583.01</ele>
  <time>2026-08-28T17:50:10Z</time>
  <course>247.23</course>
  <speed>7.181566681442149</speed>
  <fix>3d</fix>
</trkpt>
<trkpt lat="40.0707081" lon="-105.2317463">
  <ele>1583.0</ele>
  <time>2026-08-28T17:50:10Z</time>
  <course>245.99</course>
  <speed>7.19</speed>
  <fix>3d</fix>
</trkpt>
<trkpt lat="40.0706995" lon="-105.2317721">
  <ele>1583.01</ele>
  <time>2026-08-28T17:50:10Z</time>
  <course>247.23</course>
  <speed>7.181566681442149</speed>
  <fix>3d</fix>
</trkpt>
<trkpt lat="40.0707029" lon="-105.2317617">
  <ele>1583.0</ele>
  <time>2026-08-28T17:50:10Z</time>
  <course>245.99</course>
  <speed>7.19</speed>
  <fix>3d</fix>
</trkpt>
<trkpt lat="40.0706969" lon="-105.2317799">
  <ele>1583.01</ele>
  <time>2026-08-28T17:50:10Z</time>
  <course>247.23</course>
  <speed>7.181566681442149</speed>
  <fix>3d</fix>
</trkpt>
<trkpt lat="40.0707029" lon="-105.2317617">
  <ele>1583.0</ele>
  <time>2026-08-28T17:50:10Z</time>
  <course>245.99</course>
  <speed>7.19</speed>
  <fix>3d</fix>
</trkpt>
<trkpt lat="40.0706942" lon="-105.2317876">
  <ele>1583.01</ele>
  <time>2026-08-28T17:50:10Z</time>
  <course>247.23</course>
  <speed>7.181566681442149</speed>
  <fix>3d</fix>
</trkpt>
<trkpt lat="40.0707029" lon="-105.2317617">
  <ele>1583.0</ele>
  <time>2026-08-28T17:50:10Z</time>
  <course>245.99</course>
  <speed>7.19</speed>
  <fix>3d</fix>
</trkpt>
<trkpt lat="40.0706916" lon="-105.2317953">
  <ele>1583.01</ele>
  <time>2026-08-28T17:50:10Z</time>
  <course>247.23</course>
  <speed>7.181566681442149</speed>
  <fix>3d</fix>
</trkpt>
<trkpt lat="40.0706976" lon="-105.2317772">
  <ele>1583.0</ele>
  <time>2026-08-28T17:50:10Z</time>
  <course>245.99</course>
  <speed>7.19</speed>
  <fix>3d</fix>
</trkpt>
<trkpt lat="40.070689" lon="-105.231803">
  <ele>1583.02</ele>
  <time>2026-08-28T17:50:10Z</time>
  <course>247.23</course>
  <speed>7.181566681442149</speed>
  <fix>3d</fix>
</trkpt>
<trkpt lat="40.0706976" lon="-105.2317772">
  <ele>1583.0</ele>
  <time>2026-08-28T17:50:10Z</time>
  <course>245.99</course>
  <speed>7.19</speed>
  <fix>3d</fix>
</trkpt>
<trkpt lat="40.0706864" lon="-105.2318106">
  <ele>1583.01</ele>
  <time>2026-08-28T17:50:10Z</time>
  <course>247.23</course>
  <speed>7.172419396549535</speed>
  <fix>3d</fix>
</trkpt>
<trkpt lat="40.0706923" lon="-105.2317927">
  <ele>1583.0</ele>
  <time>2026-08-28T17:50:10Z</time>
  <course>245.99</course>
  <speed>7.19</speed>
  <fix>3d</fix>
</trkpt>
<trkpt lat="40.0706838" lon="-105.2318183">
  <ele>1583.01</ele>
  <time>2026-08-28T17:50:10Z</time>
  <course>247.23</course>
  <speed>7.172419396549535</speed>
  <fix>3d</fix>
</trkpt>
<trkpt lat="40.0706923" lon="-105.2317927">
  <ele>1583.0</ele>
  <time>2026-08-28T17:50:10Z</time>
  <course>245.99</course>
  <speed>7.19</speed>
  <fix>3d</fix>
</trkpt>
<trkpt lat="40.0706812" lon="-105.2318259">
  <ele>1583.01</ele>
  <time>2026-08-28T17:50:10Z</time>
  <course>247.23</course>
  <speed>7.172419396549535</speed>
  <fix>3d</fix>
</trkpt>
<trkpt lat="40.0706871" lon="-105.2318081">
  <ele>1583.0</ele>
  <time>2026-08-28T17:50:10Z</time>
  <course>245.99</course>
  <speed>7.19</speed>
  <fix>3d</fix>
</trkpt>
<trkpt lat="40.0706786" lon="-105.2318335">
  <ele>1583.0</ele>
  <time>2026-08-28T17:50:10Z</time>
  <course>247.23</course>
  <speed>7.172419396549535</speed>
  <fix>3d</fix>
</trkpt>
<trkpt lat="40.0706871" lon="-105.2318081">
  <ele>1583.0</ele>
  <time>2026-08-28T17:50:10Z</time>
  <course>245.99</course>
  <speed>7.19</speed>
  <fix>3d</fix>
</trkpt>
<trkpt lat="40.070676" lon="-105.2318412">
  <ele>1583.0</ele>
  <time>2026-08-28T17:50:11Z</time>
  <course>247.23</course>
  <speed>7.159231802365391</speed>
  <fix>3d</fix>
</trkpt>
<trkpt lat="40.0706818" lon="-105.2318236">
  <ele>1583.0</ele>
  <time>2026-08-28T17:50:11Z</time>
  <course>245.99</course>
  <speed>7.19</speed>
  <fix>3d</fix>
</trkpt>
<trkpt lat="40.0706734" lon="-105.2318489">
  <ele>1583.0</ele>
  <time>2026-08-28T17:50:11Z</time>
  <course>247.23</course>
  <speed>7.159231802365391</speed>
  <fix>3d</fix>
</trkpt>
<trkpt lat="40.0706765" lon="-105.2318389">
  <ele>1583.0</ele>
  <time>2026-08-28T17:50:11Z</time>
  <course>245.99</course>
  <speed>7.19</speed>
  <fix>3d</fix>
</trkpt>
<trkpt lat="40.0706707" lon="-105.2318566">
  <ele>1583.01</ele>
  <time>2026-08-28T17:50:11Z</time>
  <course>247.23</course>
  <speed>7.159231802365391</speed>
  <fix>3d</fix>
</trkpt>
<trkpt lat="40.0706765" lon="-105.2318389">
  <ele>1583.0</ele>
  <time>2026-08-28T17:50:11Z</time>
  <course>245.99</course>
  <speed>7.19</speed>
  <fix>3d</fix>
</trkpt>
<trkpt lat="40.0706681" lon="-105.2318642">
  <ele>1583.01</ele>
  <time>2026-08-28T17:50:11Z</time>
  <course>247.23</course>
  <speed>7.159231802365391</speed>
  <fix>3d</fix>
</trkpt>
<trkpt lat="40.0706713" lon="-105.2318544">
  <ele>1583.0</ele>
  <time>2026-08-28T17:50:11Z</time>
  <course>245.99</course>
  <speed>7.19</speed>
  <fix>3d</fix>
</trkpt>
<trkpt lat="40.0706655" lon="-105.231872">
  <ele>1583.0</ele>
  <time>2026-08-28T17:50:11Z</time>
  <course>247.23</course>
  <speed>7.159231802365391</speed>
  <fix>3d</fix>
</trkpt>
<trkpt lat="40.0706713" lon="-105.2318544">
  <ele>1583.0</ele>
  <time>2026-08-28T17:50:11Z</time>
  <course>245.99</course>
  <speed>7.19</speed>
  <fix>3d</fix>
</trkpt>
<trkpt lat="40.0706629" lon="-105.2318797">
  <ele>1583.0</ele>
  <time>2026-08-28T17:50:11Z</time>
  <course>247.23</course>
  <speed>7.159231802365391</speed>
  <fix>3d</fix>
</trkpt>
<trkpt lat="40.070666" lon="-105.2318698">
  <ele>1583.0</ele>
  <time>2026-08-28T17:50:11Z</time>
  <course>245.99</course>
  <speed>7.19</speed>
  <fix>3d</fix>
</trkpt>
<trkpt lat="40.0706602" lon="-105.2318875">
  <ele>1583.0</ele>
  <time>2026-08-28T17:50:11Z</time>
  <course>247.23</course>
  <speed>7.172419396549535</speed>
  <fix>3d</fix>
</trkpt>
<trkpt lat="40.070666" lon="-105.2318698">
  <ele>1583.0</ele>
  <time>2026-08-28T17:50:11Z</time>
  <course>245.99</course>
  <speed>7.19</speed>
  <fix>3d</fix>
</trkpt>
<trkpt lat="40.0706576" lon="-105.2318953">
  <ele>1582.99</ele>
  <time>2026-08-28T17:50:11Z</time>
  <course>247.23</course>
  <speed>7.172419396549535</speed>
  <fix>3d</fix>
</trkpt>
<trkpt lat="40.0706608" lon="-105.2318852">
  <ele>1583.0</ele>
  <time>2026-08-28T17:50:11Z</time>
  <course>245.99</course>
  <speed>7.19</speed>
  <fix>3d</fix>
</trkpt>
<trkpt lat="40.0706549" lon="-105.231903">
  <ele>1582.99</ele>
  <time>2026-08-28T17:50:11Z</time>
  <course>247.23</course>
  <speed>7.172419396549535</speed>
  <fix>3d</fix>
</trkpt>
<trkpt lat="40.0706608" lon="-105.2318852">
  <ele>1583.0</ele>
  <time>2026-08-28T17:50:11Z</time>
  <course>245.99</course>
  <speed>7.19</speed>
  <fix>3d</fix>
</trkpt>
<trkpt lat="40.0706523" lon="-105.2319108">
  <ele>1582.99</ele>
  <time>2026-08-28T17:50:11Z</time>
  <course>247.22</course>
  <speed>7.172419396549535</speed>
  <fix>3d</fix>
</trkpt>
<trkpt lat="40.0706555" lon="-105.2319007">
  <ele>1583.0</ele>
  <time>2026-08-28T17:50:11Z</time>
  <course>245.99</course>
  <speed>7.19</speed>
  <fix>3d</fix>
</trkpt>
<trkpt lat="40.0706496" lon="-105.2319186">
  <ele>1582.99</ele>
  <time>2026-08-28T17:50:11Z</time>
  <course>247.22</course>
  <speed>7.172419396549535</speed>
  <fix>3d</fix>
</trkpt>
<trkpt lat="40.0706555" lon="-105.2319007">
  <ele>1583.0</ele>
  <time>2026-08-28T17:50:11Z</time>
  <course>245.99</course>
  <speed>7.19</speed>
  <fix>3d</fix>
</trkpt>
<trkpt lat="40.070647" lon="-105.2319263">
  <ele>1583.0</ele>
  <time>2026-08-28T17:50:11Z</time>
  <course>247.22</course>
  <speed>7.172419396549535</speed>
  <fix>3d</fix>
</trkpt>
<trkpt lat="40.0706502" lon="-105.2319162">
  <ele>1583.0</ele>
  <time>2026-08-28T17:50:11Z</time>
  <course>245.99</course>
  <speed>7.19</speed>
  <fix>3d</fix>
</trkpt>
<trkpt lat="40.0706443" lon="-105.2319341">
  <ele>1583.0</ele>
  <time>2026-08-28T17:50:11Z</time>
  <course>247.22</course>
  <speed>7.181566681442149</speed>
  <fix>3d</fix>
</trkpt>
<trkpt lat="40.0706502" lon="-105.2319162">
  <ele>1583.0</ele>
  <time>2026-08-28T17:50:11Z</time>
  <course>245.99</course>
  <speed>7.19</speed>
  <fix>3d</fix>
</trkpt>
<trkpt lat="40.0706417" lon="-105.2319419">
  <ele>1583.0</ele>
  <time>2026-08-28T17:50:11Z</time>
  <course>247.22</course>
  <speed>7.181566681442149</speed>
  <fix>3d</fix>
</trkpt>
<trkpt lat="40.0706502" lon="-105.2319162">
  <ele>1583.0</ele>
  <time>2026-08-28T17:50:11Z</time>
  <course>245.99</course>
  <speed>7.19</speed>
  <fix>3d</fix>
</trkpt>
<trkpt lat="40.070639" lon="-105.2319496">
  <ele>1583.0</ele>
  <time>2026-08-28T17:50:11Z</time>
  <course>247.22</course>
  <speed>7.181566681442149</speed>
  <fix>3d</fix>
</trkpt>
<trkpt lat="40.070645" lon="-105.2319316">
  <ele>1583.0</ele>
  <time>2026-08-28T17:50:11Z</time>
  <course>245.99</course>
  <speed>7.19</speed>
  <fix>3d</fix>
</trkpt>
<trkpt lat="40.0706364" lon="-105.2319572">
  <ele>1583.0</ele>
  <time>2026-08-28T17:50:11Z</time>
  <course>247.22</course>
  <speed>7.172419396549535</speed>
  <fix>3d</fix>
</trkpt>
<trkpt lat="40.070645" lon="-105.2319316">
  <ele>1583.0</ele>
  <time>2026-08-28T17:50:11Z</time>
  <course>245.99</course>
  <speed>7.19</speed>
  <fix>3d</fix>
</trkpt>
<trkpt lat="40.0706338" lon="-105.2319649">
  <ele>1583.0</ele>
  <time>2026-08-28T17:50:11Z</time>
  <course>247.22</course>
  <speed>7.172419396549535</speed>
  <fix>3d</fix>
</trkpt>
<trkpt lat="40.0706397" lon="-105.2319471">
  <ele>1583.0</ele>
  <time>2026-08-28T17:50:11Z</time>
  <course>245.99</course>
  <speed>7.19</speed>
  <fix>3d</fix>
</trkpt>
<trkpt lat="40.0706312" lon="-105.2319726">
  <ele>1583.0</ele>
  <time>2026-08-28T17:50:11Z</time>
  <course>247.22</course>
  <speed>7.172419396549535</speed>
  <fix>3d</fix>
</trkpt>
<trkpt lat="40.0706397" lon="-105.2319471">
  <ele>1583.0</ele>
  <time>2026-08-28T17:50:11Z</time>
  <course>245.99</course>
  <speed>7.19</speed>
  <fix>3d</fix>
</trkpt>
<trkpt lat="40.0706286" lon="-105.2319802">
  <ele>1583.0</ele>
  <time>2026-08-28T17:50:11Z</time>
  <course>247.22</course>
  <speed>7.172419396549535</speed>
  <fix>3d</fix>
</trkpt>
<trkpt lat="40.0706345" lon="-105.2319625">
  <ele>1583.0</ele>
  <time>2026-08-28T17:50:11Z</time>
  <course>245.99</course>
  <speed>7.19</speed>
  <fix>3d</fix>
</trkpt>
<trkpt lat="40.070626" lon="-105.2319879">
  <ele>1583.0</ele>
  <time>2026-08-28T17:50:11Z</time>
  <course>247.22</course>
  <speed>7.172419396549535</speed>
  <fix>3d</fix>
</trkpt>
<trkpt lat="40.0706345" lon="-105.2319625">
  <ele>1583.0</ele>
  <time>2026-08-28T17:50:11Z</time>
  <course>245.99</course>
  <speed>7.19</speed>
  <fix>3d</fix>
</trkpt>
<trkpt lat="40.0706234" lon="-105.2319956">
  <ele>1583.0</ele>
  <time>2026-08-28T17:50:11Z</time>
  <course>247.22</course>
  <speed>7.163274390947201</speed>
  <fix>3d</fix>
</trkpt>
<trkpt lat="40.0706292" lon="-105.231978">
  <ele>1583.0</ele>
  <time>2026-08-28T17:50:11Z</time>
  <course>245.99</course>
  <speed>7.19</speed>
  <fix>3d</fix>
</trkpt>
<trkpt lat="40.0706208" lon="-105.2320032">
  <ele>1583.0</ele>
  <time>2026-08-28T17:50:11Z</time>
  <course>247.22</course>
  <speed>7.159231802365391</speed>
  <fix>3d</fix>
</trkpt>
<trkpt lat="40.0706239" lon="-105.2319933">
  <ele>1583.0</ele>
  <time>2026-08-28T17:50:11Z</time>
  <course>245.99</course>
  <speed>7.19</speed>
  <fix>3d</fix>
</trkpt>
<trkpt lat="40.0706181" lon="-105.2320109">
  <ele>1583.0</ele>
  <time>2026-08-28T17:50:11Z</time>
  <course>247.22</course>
  <speed>7.159231802365391</speed>
  <fix>3d</fix>
</trkpt>
<trkpt lat="40.0706239" lon="-105.2319933">
  <ele>1583.0</ele>
  <time>2026-08-28T17:50:11Z</time>
  <course>245.99</course>
  <speed>7.19</speed>
  <fix>3d</fix>
</trkpt>
<trkpt lat="40.0706155" lon="-105.2320186">
  <ele>1583.0</ele>
  <time>2026-08-28T17:50:11Z</time>
  <course>247.22</course>
  <speed>7.159231802365391</speed>
  <fix>3d</fix>
</trkpt>
<trkpt lat="40.0706187" lon="-105.2320088">
  <ele>1583.0</ele>
  <time>2026-08-28T17:50:11Z</time>
  <course>245.99</course>
  <speed>7.19</speed>
  <fix>3d</fix>
</trkpt>
<trkpt lat="40.0706129" lon="-105.2320263">
  <ele>1583.0</ele>
  <time>2026-08-28T17:50:11Z</time>
  <course>247.22</course>
  <speed>7.163274390947201</speed>
  <fix>3d</fix>
</trkpt>
<trkpt lat="40.0706187" lon="-105.2320088">
  <ele>1583.0</ele>
  <time>2026-08-28T17:50:11Z</time>
  <course>245.99</course>
  <speed>7.19</speed>
  <fix>3d</fix>
</trkpt>
<trkpt lat="40.0706103" lon="-105.2320341">
  <ele>1583.0</ele>
  <time>2026-08-28T17:50:11Z</time>
  <course>247.22</course>
  <speed>7.163274390947201</speed>
  <fix>3d</fix>
</trkpt>
<trkpt lat="40.0706134" lon="-105.2320242">
  <ele>1583.0</ele>
  <time>2026-08-28T17:50:11Z</time>
  <course>245.99</course>
  <speed>7.19</speed>
  <fix>3d</fix>
</trkpt>
<trkpt lat="40.0706076" lon="-105.2320418">
  <ele>1583.0</ele>
  <time>2026-08-28T17:50:11Z</time>
  <course>247.22</course>
  <speed>7.172419396549535</speed>
  <fix>3d</fix>
</trkpt>
<trkpt lat="40.0706134" lon="-105.2320242">
  <ele>1583.0</ele>
  <time>2026-08-28T17:50:11Z</time>
  <course>245.99</course>
  <speed>7.19</speed>
  <fix>3d</fix>
</trkpt>
<trkpt lat="40.070605" lon="-105.2320496">
  <ele>1583.0</ele>
  <time>2026-08-28T17:50:11Z</time>
  <course>247.21</course>
  <speed>7.172419396549535</speed>
  <fix>3d</fix>
</trkpt>
<trkpt lat="40.0706081" lon="-105.2320397">
  <ele>1583.0</ele>
  <time>2026-08-28T17:50:11Z</time>
  <course>245.99</course>
  <speed>7.19</speed>
  <fix>3d</fix>
</trkpt>
<trkpt lat="40.0706023" lon="-105.2320574">
  <ele>1583.01</ele>
  <time>2026-08-28T17:50:11Z</time>
  <course>247.21</course>
  <speed>7.172419396549535</speed>
  <fix>3d</fix>
</trkpt>
<trkpt lat="40.0706081" lon="-105.2320397">
  <ele>1583.0</ele>
  <time>2026-08-28T17:50:11Z</time>
  <course>245.99</course>
  <speed>7.19</speed>
  <fix>3d</fix>
</trkpt>
<trkpt lat="40.0705996" lon="-105.2320652">
  <ele>1583.01</ele>
  <time>2026-08-28T17:50:11Z</time>
  <course>247.21</course>
  <speed>7.172419396549535</speed>
  <fix>3d</fix>
</trkpt>
<trkpt lat="40.0706029" lon="-105.2320551">
  <ele>1583.0</ele>
  <time>2026-08-28T17:50:11Z</time>
  <course>245.99</course>
  <speed>7.19</speed>
  <fix>3d</fix>
</trkpt>
<trkpt lat="40.070597" lon="-105.232073">
  <ele>1583.01</ele>
  <time>2026-08-28T17:50:11Z</time>
  <course>247.21</course>
  <speed>7.172419396549535</speed>
  <fix>3d</fix>
</trkpt>
<trkpt lat="40.0706029" lon="-105.2320551">
  <ele>1583.0</ele>
  <time>2026-08-28T17:50:11Z</time>
  <course>245.99</course>
  <speed>7.19</speed>
  <fix>3d</fix>
</trkpt>
<trkpt lat="40.0705943" lon="-105.2320807">
  <ele>1583.01</ele>
  <time>2026-08-28T17:50:11Z</time>
  <course>247.21</course>
  <speed>7.181566681442149</speed>
  <fix>3d</fix>
</trkpt>
<trkpt lat="40.0705976" lon="-105.2320705">
  <ele>1583.0</ele>
  <time>2026-08-28T17:50:11Z</time>
  <course>245.99</course>
  <speed>7.19</speed>
  <fix>3d</fix>
</trkpt>
<trkpt lat="40.0705917" lon="-105.2320885">
  <ele>1583.02</ele>
  <time>2026-08-28T17:50:11Z</time>
  <course>247.21</course>
  <speed>7.181566681442149</speed>
  <fix>3d</fix>
</trkpt>
<trkpt lat="40.0705976" lon="-105.2320705">
  <ele>1583.0</ele>
  <time>2026-08-28T17:50:11Z</time>
  <course>245.99</course>
  <speed>7.19</speed>
  <fix>3d</fix>
</trkpt>
<trkpt lat="40.0705891" lon="-105.2320963">
  <ele>1583.02</ele>
  <time>2026-08-28T17:50:11Z</time>
  <course>247.21</course>
  <speed>7.181566681442149</speed>
  <fix>3d</fix>
</trkpt>
<trkpt lat="40.0705923" lon="-105.232086">
  <ele>1583.0</ele>
  <time>2026-08-28T17:50:11Z</time>
  <course>245.99</course>
  <speed>7.19</speed>
  <fix>3d</fix>
</trkpt>
<trkpt lat="40.0705864" lon="-105.232104">
  <ele>1583.03</ele>
  <time>2026-08-28T17:50:11Z</time>
  <course>247.21</course>
  <speed>7.181566681442149</speed>
  <fix>3d</fix>
</trkpt>
<trkpt lat="40.0705923" lon="-105.232086">
  <ele>1583.0</ele>
  <time>2026-08-28T17:50:11Z</time>
  <course>245.99</course>
  <speed>7.19</speed>
  <fix>3d</fix>
</trkpt>
<trkpt lat="40.0705838" lon="-105.2321118">
  <ele>1583.03</ele>
  <time>2026-08-28T17:50:11Z</time>
  <course>247.21</course>
  <speed>7.185610621234636</speed>
  <fix>3d</fix>
</trkpt>
<trkpt lat="40.0705923" lon="-105.232086">
  <ele>1583.0</ele>
  <time>2026-08-28T17:50:11Z</time>
  <course>245.99</course>
  <speed>7.19</speed>
  <fix>3d</fix>
</trkpt>
<trkpt lat="40.0705811" lon="-105.2321195">
  <ele>1583.03</ele>
  <time>2026-08-28T17:50:11Z</time>
  <course>247.21</course>
  <speed>7.181566681442149</speed>
  <fix>3d</fix>
</trkpt>
<trkpt lat="40.0705871" lon="-105.2321015">
  <ele>1583.0</ele>
  <time>2026-08-28T17:50:11Z</time>
  <course>245.99</course>
  <speed>7.19</speed>
  <fix>3d</fix>
</trkpt>
<trkpt lat="40.0705785" lon="-105.2321272">
  <ele>1583.02</ele>
  <time>2026-08-28T17:50:11Z</time>
  <course>247.21</course>
  <speed>7.181566681442149</speed>
  <fix>3d</fix>
</trkpt>
<trkpt lat="40.0705871" lon="-105.2321015">
  <ele>1583.0</ele>
  <time>2026-08-28T17:50:11Z</time>
  <course>245.99</course>
  <speed>7.19</speed>
  <fix>3d</fix>
</trkpt>
<trkpt lat="40.0705759" lon="-105.2321348">
  <ele>1583.02</ele>
  <time>2026-08-28T17:50:11Z</time>
  <course>247.21</course>
  <speed>7.181566681442149</speed>
  <fix>3d</fix>
</trkpt>
<trkpt lat="40.0705818" lon="-105.2321169">
  <ele>1583.0</ele>
  <time>2026-08-28T17:50:11Z</time>
  <course>245.99</course>
  <speed>7.19</speed>
  <fix>3d</fix>
</trkpt>
<trkpt lat="40.0705733" lon="-105.2321425">
  <ele>1583.02</ele>
  <time>2026-08-28T17:50:11Z</time>
  <course>247.21</course>
  <speed>7.172419396549535</speed>
  <fix>3d</fix>
</trkpt>
<trkpt lat="40.0705818" lon="-105.2321169">
  <ele>1583.0</ele>
  <time>2026-08-28T17:50:11Z</time>
  <course>245.99</course>
  <speed>7.19</speed>
  <fix>3d</fix>
</trkpt>
<trkpt lat="40.0705707" lon="-105.2321501">
  <ele>1583.02</ele>
  <time>2026-08-28T17:50:11Z</time>
  <course>247.21</course>
  <speed>7.172419396549535</speed>
  <fix>3d</fix>
</trkpt>
<trkpt lat="40.0705765" lon="-105.2321324">
  <ele>1583.0</ele>
  <time>2026-08-28T17:50:11Z</time>
  <course>245.99</course>
  <speed>7.19</speed>
  <fix>3d</fix>
</trkpt>
<trkpt lat="40.0705681" lon="-105.2321578">
  <ele>1583.01</ele>
  <time>2026-08-28T17:50:11Z</time>
  <course>247.2</course>
  <speed>7.172419396549535</speed>
  <fix>3d</fix>
</trkpt>
<trkpt lat="40.0705713" lon="-105.2321478">
  <ele>1583.0</ele>
  <time>2026-08-28T17:50:11Z</time>
  <course>245.99</course>
  <speed>7.19</speed>
  <fix>3d</fix>
</trkpt>
<trkpt lat="40.0705654" lon="-105.2321655">
  <ele>1583.01</ele>
  <time>2026-08-28T17:50:11Z</time>
  <course>247.2</course>
  <speed>7.172419396549535</speed>
  <fix>3d</fix>
</trkpt>
<trkpt lat="40.0705713" lon="-105.2321478">
  <ele>1583.0</ele>
  <time>2026-08-28T17:50:11Z</time>
  <course>245.99</course>
  <speed>7.19</speed>
  <fix>3d</fix>
</trkpt>
<trkpt lat="40.0705628" lon="-105.2321732">
  <ele>1583.0</ele>
  <time>2026-08-28T17:50:11Z</time>
  <course>247.2</course>
  <speed>7.172419396549535</speed>
  <fix>3d</fix>
</trkpt>
<trkpt lat="40.070566" lon="-105.2321633">
  <ele>1583.0</ele>
  <time>2026-08-28T17:50:11Z</time>
  <course>245.99</course>
  <speed>7.19</speed>
  <fix>3d</fix>
</trkpt>
<trkpt lat="40.0705602" lon="-105.2321809">
  <ele>1583.0</ele>
  <time>2026-08-28T17:50:11Z</time>
  <course>247.2</course>
  <speed>7.172419396549535</speed>
  <fix>3d</fix>
</trkpt>
<trkpt lat="40.070566" lon="-105.2321633">
  <ele>1583.0</ele>
  <time>2026-08-28T17:50:11Z</time>
  <course>245.99</course>
  <speed>7.19</speed>
  <fix>3d</fix>
</trkpt>
<trkpt lat="40.0705575" lon="-105.2321887">
  <ele>1583.0</ele>
  <time>2026-08-28T17:50:11Z</time>
  <course>247.2</course>
  <speed>7.172419396549535</speed>
  <fix>3d</fix>
</trkpt>
<trkpt lat="40.0705608" lon="-105.2321786">
  <ele>1583.0</ele>
  <time>2026-08-28T17:50:11Z</time>
  <course>245.99</course>
  <speed>7.19</speed>
  <fix>3d</fix>
</trkpt>
<trkpt lat="40.0705549" lon="-105.2321964">
  <ele>1583.0</ele>
  <time>2026-08-28T17:50:11Z</time>
  <course>247.2</course>
  <speed>7.172419396549535</speed>
  <fix>3d</fix>
</trkpt>
<trkpt lat="40.0705608" lon="-105.2321786">
  <ele>1583.0</ele>
  <time>2026-08-28T17:50:11Z</time>
  <course>245.99</course>
  <speed>7.19</speed>
  <fix>3d</fix>
</trkpt>
<trkpt lat="40.0705523" lon="-105.2322042">
  <ele>1583.01</ele>
  <time>2026-08-28T17:50:11Z</time>
  <course>247.2</course>
  <speed>7.172419396549535</speed>
  <fix>3d</fix>
</trkpt>
<trkpt lat="40.0705555" lon="-105.2321941">
  <ele>1583.0</ele>
  <time>2026-08-28T17:50:11Z</time>
  <course>245.99</course>
  <speed>7.19</speed>
  <fix>3d</fix>
</trkpt>
<trkpt lat="40.0705496" lon="-105.232212">
  <ele>1583.01</ele>
  <time>2026-08-28T17:50:11Z</time>
  <course>247.2</course>
  <speed>7.181566681442149</speed>
  <fix>3d</fix>
</trkpt>
<trkpt lat="40.0705555" lon="-105.2321941">
  <ele>1583.0</ele>
  <time>2026-08-28T17:50:11Z</time>
  <course>245.99</course>
  <speed>7.19</speed>
  <fix>3d</fix>
</trkpt>
<trkpt lat="40.0705469" lon="-105.2322198">
  <ele>1583.01</ele>
  <time>2026-08-28T17:50:11Z</time>
  <course>247.2</course>
  <speed>7.181566681442149</speed>
  <fix>3d</fix>
</trkpt>
<trkpt lat="40.0705502" lon="-105.2322096">
  <ele>1583.0</ele>
  <time>2026-08-28T17:50:11Z</time>
  <course>245.99</course>
  <speed>7.19</speed>
  <fix>3d</fix>
</trkpt>
<trkpt lat="40.0705443" lon="-105.2322275">
  <ele>1583.01</ele>
  <time>2026-08-28T17:50:11Z</time>
  <course>247.2</course>
  <speed>7.181566681442149</speed>
  <fix>3d</fix>
</trkpt>
<trkpt lat="40.0705502" lon="-105.2322096">
  <ele>1583.0</ele>
  <time>2026-08-28T17:50:11Z</time>
  <course>245.99</course>
  <speed>7.19</speed>
  <fix>3d</fix>
</trkpt>
<trkpt lat="40.0705417" lon="-105.2322353">
  <ele>1583.02</ele>
  <time>2026-08-28T17:50:11Z</time>
  <course>247.2</course>
  <speed>7.181566681442149</speed>
  <fix>3d</fix>
</trkpt>
<trkpt lat="40.070545" lon="-105.232225">
  <ele>1583.0</ele>
  <time>2026-08-28T17:50:11Z</time>
  <course>245.99</course>
  <speed>7.19</speed>
  <fix>3d</fix>
</trkpt>
<trkpt lat="40.070539" lon="-105.2322431">
  <ele>1583.02</ele>
  <time>2026-08-28T17:50:11Z</time>
  <course>247.2</course>
  <speed>7.185610621234636</speed>
  <fix>3d</fix>
</trkpt>
<trkpt lat="40.070545" lon="-105.232225">
  <ele>1583.0</ele>
  <time>2026-08-28T17:50:11Z</time>
  <course>245.99</course>
  <speed>7.19</speed>
  <fix>3d</fix>
</trkpt>
<trkpt lat="40.0705364" lon="-105.2322508">
  <ele>1583.02</ele>
  <time>2026-08-28T17:50:11Z</time>
  <course>247.2</course>
  <speed>7.185610621234636</speed>
  <fix>3d</fix>
</trkpt>
<trkpt lat="40.0705398" lon="-105.2322404">
  <ele>1583.0</ele>
  <time>2026-08-28T17:50:11Z</time>
  <course>245.99</course>
  <speed>7.19</speed>
  <fix>3d</fix>
</trkpt>
<trkpt lat="40.0705337" lon="-105.2322586">
  <ele>1583.02</ele>
  <time>2026-08-28T17:50:11Z</time>
  <course>247.2</course>
  <speed>7.185610621234636</speed>
  <fix>3d</fix>
</trkpt>
<trkpt lat="40.0705398" lon="-105.2322404">
  <ele>1583.0</ele>
  <time>2026-08-28T17:50:11Z</time>
  <course>245.99</course>
  <speed>7.19</speed>
  <fix>3d</fix>
</trkpt>
<trkpt lat="40.0705311" lon="-105.2322663">
  <ele>1583.02</ele>
  <time>2026-08-28T17:50:11Z</time>
  <course>247.2</course>
  <speed>7.185610621234636</speed>
  <fix>3d</fix>
</trkpt>
<trkpt lat="40.0705398" lon="-105.2322404">
  <ele>1583.0</ele>
  <time>2026-08-28T17:50:11Z</time>
  <course>245.99</course>
  <speed>7.19</speed>
  <fix>3d</fix>
</trkpt>
<trkpt lat="40.0705285" lon="-105.232274">
  <ele>1583.02</ele>
  <time>2026-08-28T17:50:11Z</time>
  <course>247.19</course>
  <speed>7.181566681442149</speed>
  <fix>3d</fix>
</trkpt>
<trkpt lat="40.0705345" lon="-105.2322559">
  <ele>1583.0</ele>
  <time>2026-08-28T17:50:11Z</time>
  <course>245.99</course>
  <speed>7.19</speed>
  <fix>3d</fix>
</trkpt>
<trkpt lat="40.0705259" lon="-105.2322817">
  <ele>1583.02</ele>
  <time>2026-08-28T17:50:11Z</time>
  <course>247.19</course>
  <speed>7.181566681442149</speed>
  <fix>3d</fix>
</trkpt>
<trkpt lat="40.0705345" lon="-105.2322559">
  <ele>1583.0</ele>
  <time>2026-08-28T17:50:11Z</time>
  <course>245.99</course>
  <speed>7.19</speed>
  <fix>3d</fix>
</trkpt>
<trkpt lat="40.0705233" lon="-105.2322893">
  <ele>1583.03</ele>
  <time>2026-08-28T17:50:11Z</time>
  <course>247.19</course>
  <speed>7.181566681442149</speed>
  <fix>3d</fix>
</trkpt>
<trkpt lat="40.0705292" lon="-105.2322714">
  <ele>1583.0</ele>
  <time>2026-08-28T17:50:11Z</time>
  <course>245.99</course>
  <speed>7.19</speed>
  <fix>3d</fix>
</trkpt>
<trkpt lat="40.0705207" lon="-105.232297">
  <ele>1583.03</ele>
  <time>2026-08-28T17:50:11Z</time>
  <course>247.19</course>
  <speed>7.172419396549535</speed>
  <fix>3d</fix>
</trkpt>
<trkpt lat="40.0705292" lon="-105.2322714">
  <ele>1583.0</ele>
  <time>2026-08-28T17:50:11Z</time>
  <course>245.99</course>
  <speed>7.19</speed>
  <fix>3d</fix>
</trkpt>
<trkpt lat="40.0705181" lon="-105.2323046">
  <ele>1583.03</ele>
  <time>2026-08-28T17:50:11Z</time>
  <course>247.19</course>
  <speed>7.172419396549535</speed>
  <fix>3d</fix>
</trkpt>
<trkpt lat="40.070524" lon="-105.2322868">
  <ele>1583.0</ele>
  <time>2026-08-28T17:50:11Z</time>
  <course>245.99</course>
  <speed>7.19</speed>
  <fix>3d</fix>
</trkpt>
<trkpt lat="40.0705155" lon="-105.2323123">
  <ele>1583.03</ele>
  <time>2026-08-28T17:50:11Z</time>
  <course>247.19</course>
  <speed>7.172419396549535</speed>
  <fix>3d</fix>
</trkpt>
<trkpt lat="40.070524" lon="-105.2322868">
  <ele>1583.0</ele>
  <time>2026-08-28T17:50:11Z</time>
  <course>245.99</course>
  <speed>7.19</speed>
  <fix>3d</fix>
</trkpt>
<trkpt lat="40.0705128" lon="-105.2323199">
  <ele>1583.03</ele>
  <time>2026-08-28T17:50:11Z</time>
  <course>247.19</course>
  <speed>7.172419396549535</speed>
  <fix>3d</fix>
</trkpt>
<trkpt lat="40.0705187" lon="-105.2323022">
  <ele>1583.0</ele>
  <time>2026-08-28T17:50:11Z</time>
  <course>245.99</course>
  <speed>7.19</speed>
  <fix>3d</fix>
</trkpt>
<trkpt lat="40.0705102" lon="-105.2323276">
  <ele>1583.04</ele>
  <time>2026-08-28T17:50:11Z</time>
  <course>247.19</course>
  <speed>7.159231802365391</speed>
  <fix>3d</fix>
</trkpt>
<trkpt lat="40.0705134" lon="-105.2323177">
  <ele>1583.0</ele>
  <time>2026-08-28T17:50:11Z</time>
  <course>245.99</course>
  <speed>7.19</speed>
  <fix>3d</fix>
</trkpt>
<trkpt lat="40.0705076" lon="-105.2323353">
  <ele>1583.04</ele>
  <time>2026-08-28T17:50:11Z</time>
  <course>247.19</course>
  <speed>7.159231802365391</speed>
  <fix>3d</fix>
</trkpt>
<trkpt lat="40.0705134" lon="-105.2323177">
  <ele>1583.0</ele>
  <time>2026-08-28T17:50:11Z</time>
  <course>245.99</course>
  <speed>7.19</speed>
  <fix>3d</fix>
</trkpt>
<trkpt lat="40.070505" lon="-105.2323429">
  <ele>1583.05</ele>
  <time>2026-08-28T17:50:11Z</time>
  <course>247.19</course>
  <speed>7.159231802365391</speed>
  <fix>3d</fix>
</trkpt>
<trkpt lat="40.0705082" lon="-105.232333">
  <ele>1583.0</ele>
  <time>2026-08-28T17:50:11Z</time>
  <course>245.99</course>
  <speed>7.19</speed>
  <fix>3d</fix>
</trkpt>
<trkpt lat="40.0705024" lon="-105.2323507">
  <ele>1583.05</ele>
  <time>2026-08-28T17:50:11Z</time>
  <course>247.19</course>
  <speed>7.163274390947201</speed>
  <fix>3d</fix>
</trkpt>
<trkpt lat="40.0705082" lon="-105.232333">
  <ele>1583.0</ele>
  <time>2026-08-28T17:50:11Z</time>
  <course>245.99</course>
  <speed>7.19</speed>
  <fix>3d</fix>
</trkpt>
<trkpt lat="40.0704997" lon="-105.2323584">
  <ele>1583.05</ele>
  <time>2026-08-28T17:50:11Z</time>
  <course>247.19</course>
  <speed>7.163274390947201</speed>
  <fix>3d</fix>
</trkpt>
<trkpt lat="40.0705029" lon="-105.2323485">
  <ele>1583.0</ele>
  <time>2026-08-28T17:50:11Z</time>
  <course>245.99</course>
  <speed>7.19</speed>
  <fix>3d</fix>
</trkpt>
<trkpt lat="40.0704971" lon="-105.2323662">
  <ele>1583.05</ele>
  <time>2026-08-28T17:50:11Z</time>
  <course>247.19</course>
  <speed>7.172419396549535</speed>
  <fix>3d</fix>
</trkpt>
<trkpt lat="40.0705029" lon="-105.2323485">
  <ele>1583.0</ele>
  <time>2026-08-28T17:50:11Z</time>
  <course>245.99</course>
  <speed>7.19</speed>
  <fix>3d</fix>
</trkpt>
<trkpt lat="40.0704944" lon="-105.232374">
  <ele>1583.05</ele>
  <time>2026-08-28T17:50:11Z</time>
  <course>247.19</course>
  <speed>7.172419396549535</speed>
  <fix>3d</fix>
</trkpt>
<trkpt lat="40.0704977" lon="-105.2323639">
  <ele>1583.0</ele>
  <time>2026-08-28T17:50:11Z</time>
  <course>245.99</course>
  <speed>7.19</speed>
  <fix>3d</fix>
</trkpt>
<trkpt lat="40.0704918" lon="-105.2323818">
  <ele>1583.05</ele>
  <time>2026-08-28T17:50:11Z</time>
  <course>247.19</course>
  <speed>7.172419396549535</speed>
  <fix>3d</fix>
</trkpt>
<trkpt lat="40.0704977" lon="-105.2323639">
  <ele>1583.0</ele>
  <time>2026-08-28T17:50:11Z</time>
  <course>245.99</course>
  <speed>7.19</speed>
  <fix>3d</fix>
</trkpt>
<trkpt lat="40.0704891" lon="-105.2323895">
  <ele>1583.05</ele>
  <time>2026-08-28T17:50:11Z</time>
  <course>247.18</course>
  <speed>7.172419396549535</speed>
  <fix>3d</fix>
</trkpt>
<trkpt lat="40.0704924" lon="-105.2323794">
  <ele>1583.0</ele>
  <time>2026-08-28T17:50:11Z</time>
  <course>245.99</course>
  <speed>7.19</speed>
  <fix>3d</fix>
</trkpt>
<trkpt lat="40.0704865" lon="-105.2323973">
  <ele>1583.05</ele>
  <time>2026-08-28T17:50:11Z</time>
  <course>247.18</course>
  <speed>7.172419396549535</speed>
  <fix>3d</fix>
</trkpt>
<trkpt lat="40.0704924" lon="-105.2323794">
  <ele>1583.0</ele>
  <time>2026-08-28T17:50:11Z</time>
  <course>245.99</course>
  <speed>7.19</speed>
  <fix>3d</fix>
</trkpt>
<trkpt lat="40.0704839" lon="-105.232405">
  <ele>1583.05</ele>
  <time>2026-08-28T17:50:11Z</time>
  <course>247.18</course>
  <speed>7.181566681442149</speed>
  <fix>3d</fix>
</trkpt>
<trkpt lat="40.0704872" lon="-105.2323948">
  <ele>1583.0</ele>
  <time>2026-08-28T17:50:11Z</time>
  <course>245.99</course>
  <speed>7.19</speed>
  <fix>3d</fix>
</trkpt>
<trkpt lat="40.0704812" lon="-105.2324128">
  <ele>1583.05</ele>
  <time>2026-08-28T17:50:11Z</time>
  <course>247.18</course>
  <speed>7.181566681442149</speed>
  <fix>3d</fix>
</trkpt>
<trkpt lat="40.0704872" lon="-105.2323948">
  <ele>1583.0</ele>
  <time>2026-08-28T17:50:11Z</time>
  <course>245.99</course>
  <speed>7.19</speed>
  <fix>3d</fix>
</trkpt>
<trkpt lat="40.0704786" lon="-105.2324206">
  <ele>1583.05</ele>
  <time>2026-08-28T17:50:11Z</time>
  <course>247.18</course>
  <speed>7.181566681442149</speed>
  <fix>3d</fix>
</trkpt>
<trkpt lat="40.0704819" lon="-105.2324103">
  <ele>1583.0</ele>
  <time>2026-08-28T17:50:11Z</time>
  <course>245.99</course>
  <speed>7.19</speed>
  <fix>3d</fix>
</trkpt>
<trkpt lat="40.0704759" lon="-105.2324283">
  <ele>1583.05</ele>
  <time>2026-08-28T17:50:11Z</time>
  <course>247.18</course>
  <speed>7.181566681442149</speed>
  <fix>3d</fix>
</trkpt>
<trkpt lat="40.0704819" lon="-105.2324103">
  <ele>1583.0</ele>
  <time>2026-08-28T17:50:11Z</time>
  <course>245.99</course>
  <speed>7.19</speed>
  <fix>3d</fix>
</trkpt>
<trkpt lat="40.0704733" lon="-105.2324361">
  <ele>1583.05</ele>
  <time>2026-08-28T17:50:11Z</time>
  <course>247.18</course>
  <speed>7.181566681442149</speed>
  <fix>3d</fix>
</trkpt>
<trkpt lat="40.0704819" lon="-105.2324103">
  <ele>1583.0</ele>
  <time>2026-08-28T17:50:11Z</time>
  <course>245.99</course>
  <speed>7.19</speed>
  <fix>3d</fix>
</trkpt>
<trkpt lat="40.0704707" lon="-105.2324438">
  <ele>1583.05</ele>
  <time>2026-08-28T17:50:11Z</time>
  <course>247.18</course>
  <speed>7.181566681442149</speed>
  <fix>3d</fix>
</trkpt>
<trkpt lat="40.0704766" lon="-105.2324257">
  <ele>1583.0</ele>
  <time>2026-08-28T17:50:11Z</time>
  <course>245.99</course>
  <speed>7.19</speed>
  <fix>3d</fix>
</trkpt>
<trkpt lat="40.0704681" lon="-105.2324514">
  <ele>1583.05</ele>
  <time>2026-08-28T17:50:11Z</time>
  <course>247.18</course>
  <speed>7.181566681442149</speed>
  <fix>3d</fix>
</trkpt>
<trkpt lat="40.0704766" lon="-105.2324257">
  <ele>1583.0</ele>
  <time>2026-08-28T17:50:11Z</time>
  <course>245.99</course>
  <speed>7.19</speed>
  <fix>3d</fix>
</trkpt>
<trkpt lat="40.0704654" lon="-105.2324591">
  <ele>1583.04</ele>
  <time>2026-08-28T17:50:11Z</time>
  <course>247.18</course>
  <speed>7.172419396549535</speed>
  <fix>3d</fix>
</trkpt>
<trkpt lat="40.0704714" lon="-105.2324412">
  <ele>1583.0</ele>
  <time>2026-08-28T17:50:11Z</time>
  <course>245.99</course>
  <speed>7.19</speed>
  <fix>3d</fix>
</trkpt>
<trkpt lat="40.0704628" lon="-105.2324668">
  <ele>1583.04</ele>
  <time>2026-08-28T17:50:11Z</time>
  <course>247.18</course>
  <speed>7.172419396549535</speed>
  <fix>3d</fix>
</trkpt>
<trkpt lat="40.0704714" lon="-105.2324412">
  <ele>1583.0</ele>
  <time>2026-08-28T17:50:11Z</time>
  <course>245.99</course>
  <speed>7.19</speed>
  <fix>3d</fix>
</trkpt>
<trkpt lat="40.0704602" lon="-105.2324744">
  <ele>1583.04</ele>
  <time>2026-08-28T17:50:11Z</time>
  <course>247.18</course>
  <speed>7.172419396549535</speed>
  <fix>3d</fix>
</trkpt>
<trkpt lat="40.0704661" lon="-105.2324567">
  <ele>1583.0</ele>
  <time>2026-08-28T17:50:11Z</time>
  <course>245.99</course>
  <speed>7.19</speed>
  <fix>3d</fix>
</trkpt>
<trkpt lat="40.0704576" lon="-105.2324821">
  <ele>1583.04</ele>
  <time>2026-08-28T17:50:11Z</time>
  <course>247.18</course>
  <speed>7.172419396549535</speed>
  <fix>3d</fix>
</trkpt>
<trkpt lat="40.0704608" lon="-105.2324721">
  <ele>1583.0</ele>
  <time>2026-08-28T17:50:11Z</time>
  <course>245.99</course>
  <speed>7.19</speed>
  <fix>3d</fix>
</trkpt>
<trkpt lat="40.070455" lon="-105.2324898">
  <ele>1583.04</ele>
  <time>2026-08-28T17:50:11Z</time>
  <course>247.18</course>
  <speed>7.172419396549535</speed>
  <fix>3d</fix>
</trkpt>
<trkpt lat="40.0704608" lon="-105.2324721">
  <ele>1583.0</ele>
  <time>2026-08-28T17:50:11Z</time>
  <course>245.99</course>
  <speed>7.19</speed>
  <fix>3d</fix>
</trkpt>
<trkpt lat="40.0704524" lon="-105.2324975">
  <ele>1583.04</ele>
  <time>2026-08-28T17:50:11Z</time>
  <course>247.18</course>
  <speed>7.172419396549535</speed>
  <fix>3d</fix>
</trkpt>
<trkpt lat="40.0704556" lon="-105.2324875">
  <ele>1583.0</ele>
  <time>2026-08-28T17:50:11Z</time>
  <course>245.99</course>
  <speed>7.19</speed>
  <fix>3d</fix>
</trkpt>
<trkpt lat="40.0704497" lon="-105.2325052">
  <ele>1583.04</ele>
  <time>2026-08-28T17:50:11Z</time>
  <course>247.17</course>
  <speed>7.172419396549535</speed>
  <fix>3d</fix>
</trkpt>
<trkpt lat="40.0704556" lon="-105.2324875">
  <ele>1583.0</ele>
  <time>2026-08-28T17:50:11Z</time>
  <course>245.99</course>
  <speed>7.19</speed>
  <fix>3d</fix>
</trkpt>
<trkpt lat="40.0704471" lon="-105.2325129">
  <ele>1583.04</ele>
  <time>2026-08-28T17:50:11Z</time>
  <course>247.17</course>
  <speed>7.172419396549535</speed>
  <fix>3d</fix>
</trkpt>
<trkpt lat="40.0704503" lon="-105.232503">
  <ele>1583.0</ele>
  <time>2026-08-28T17:50:11Z</time>
  <course>245.99</course>
  <speed>7.19</speed>
  <fix>3d</fix>
</trkpt>
<trkpt lat="40.0704445" lon="-105.2325207">
  <ele>1583.04</ele>
  <time>2026-08-28T17:50:11Z</time>
  <course>247.17</course>
  <speed>7.172419396549535</speed>
  <fix>3d</fix>
</trkpt>
<trkpt lat="40.0704503" lon="-105.232503">
  <ele>1583.0</ele>
  <time>2026-08-28T17:50:11Z</time>
  <course>245.99</course>
  <speed>7.19</speed>
  <fix>3d</fix>
</trkpt>
<trkpt lat="40.0704418" lon="-105.2325284">
  <ele>1583.04</ele>
  <time>2026-08-28T17:50:11Z</time>
  <course>247.17</course>
  <speed>7.172419396549535</speed>
  <fix>3d</fix>
</trkpt>
<trkpt lat="40.0704451" lon="-105.2325184">
  <ele>1583.0</ele>
  <time>2026-08-28T17:50:11Z</time>
  <course>245.99</course>
  <speed>7.19</speed>
  <fix>3d</fix>
</trkpt>
<trkpt lat="40.0704392" lon="-105.2325363">
  <ele>1583.04</ele>
  <time>2026-08-28T17:50:11Z</time>
  <course>247.17</course>
  <speed>7.172419396549535</speed>
  <fix>3d</fix>
</trkpt>
<trkpt lat="40.0704451" lon="-105.2325184">
  <ele>1583.0</ele>
  <time>2026-08-28T17:50:11Z</time>
  <course>245.99</course>
  <speed>7.19</speed>
  <fix>3d</fix>
</trkpt>
<trkpt lat="40.0704365" lon="-105.232544">
  <ele>1583.04</ele>
  <time>2026-08-28T17:50:11Z</time>
  <course>247.17</course>
  <speed>7.181566681442149</speed>
  <fix>3d</fix>
</trkpt>
<trkpt lat="40.0704398" lon="-105.2325338">
  <ele>1583.0</ele>
  <time>2026-08-28T17:50:11Z</time>
  <course>245.99</course>
  <speed>7.19</speed>
  <fix>3d</fix>
</trkpt>
<trkpt lat="40.0704339" lon="-105.2325518">
  <ele>1583.05</ele>
  <time>2026-08-28T17:50:11Z</time>
  <course>247.17</course>
  <speed>7.181566681442149</speed>
  <fix>3d</fix>
</trkpt>
<trkpt lat="40.0704398" lon="-105.2325338">
  <ele>1583.0</ele>
  <time>2026-08-28T17:50:11Z</time>
  <course>245.99</course>
  <speed>7.19</speed>
  <fix>3d</fix>
</trkpt>
<trkpt lat="40.0704312" lon="-105.2325596">
  <ele>1583.05</ele>
  <time>2026-08-28T17:50:11Z</time>
  <course>247.17</course>
  <speed>7.181566681442149</speed>
  <fix>3d</fix>
</trkpt>
<trkpt lat="40.0704345" lon="-105.2325492">
  <ele>1583.0</ele>
  <time>2026-08-28T17:50:11Z</time>
  <course>245.99</course>
  <speed>7.19</speed>
  <fix>3d</fix>
</trkpt>
<trkpt lat="40.0704286" lon="-105.2325673">
  <ele>1583.05</ele>
  <time>2026-08-28T17:50:11Z</time>
  <course>247.17</course>
  <speed>7.181566681442149</speed>
  <fix>3d</fix>
</trkpt>
<trkpt lat="40.0704345" lon="-105.2325492">
  <ele>1583.0</ele>
  <time>2026-08-28T17:50:11Z</time>
  <course>245.99</course>
  <speed>7.19</speed>
  <fix>3d</fix>
</trkpt>
<trkpt lat="40.0704259" lon="-105.2325751">
  <ele>1583.05</ele>
  <time>2026-08-28T17:50:11Z</time>
  <course>247.17</course>
  <speed>7.181566681442149</speed>
  <fix>3d</fix>
</trkpt>
<trkpt lat="40.0704293" lon="-105.2325647">
  <ele>1583.0</ele>
  <time>2026-08-28T17:50:11Z</time>
  <course>245.99</course>
  <speed>7.19</speed>
  <fix>3d</fix>
</trkpt>
<trkpt lat="40.0704233" lon="-105.2325828">
  <ele>1583.04</ele>
  <time>2026-08-28T17:50:11Z</time>
  <course>247.17</course>
  <speed>7.181566681442149</speed>
  <fix>3d</fix>
</trkpt>
<trkpt lat="40.0704293" lon="-105.2325647">
  <ele>1583.0</ele>
  <time>2026-08-28T17:50:11Z</time>
  <course>245.99</course>
  <speed>7.19</speed>
  <fix>3d</fix>
</trkpt>
<trkpt lat="40.0704207" lon="-105.2325906">
  <ele>1583.04</ele>
  <time>2026-08-28T17:50:11Z</time>
  <course>247.17</course>
  <speed>7.181566681442149</speed>
  <fix>3d</fix>
</trkpt>
<trkpt lat="40.0704293" lon="-105.2325647">
  <ele>1583.0</ele>
  <time>2026-08-28T17:50:11Z</time>
  <course>245.99</course>
  <speed>7.19</speed>
  <fix>3d</fix>
</trkpt>
<trkpt lat="40.070418" lon="-105.2325983">
  <ele>1583.04</ele>
  <time>2026-08-28T17:50:11Z</time>
  <course>247.17</course>
  <speed>7.181566681442149</speed>
  <fix>3d</fix>
</trkpt>
<trkpt lat="40.070424" lon="-105.2325801">
  <ele>1583.0</ele>
  <time>2026-08-28T17:50:11Z</time>
  <course>245.99</course>
  <speed>7.19</speed>
  <fix>3d</fix>
</trkpt>
<trkpt lat="40.0704154" lon="-105.2326059">
  <ele>1583.04</ele>
  <time>2026-08-28T17:50:11Z</time>
  <course>247.16</course>
  <speed>7.181566681442149</speed>
  <fix>3d</fix>
</trkpt>
<trkpt lat="40.070424" lon="-105.2325801">
  <ele>1583.0</ele>
  <time>2026-08-28T17:50:11Z</time>
  <course>245.99</course>
  <speed>7.19</speed>
  <fix>3d</fix>
</trkpt>
<trkpt lat="40.0704128" lon="-105.2326136">
  <ele>1583.03</ele>
  <time>2026-08-28T17:50:11Z</time>
  <course>247.16</course>
  <speed>7.172419396549535</speed>
  <fix>3d</fix>
</trkpt>
<trkpt lat="40.0704187" lon="-105.2325956">
  <ele>1583.0</ele>
  <time>2026-08-28T17:50:11Z</time>
  <course>245.99</course>
  <speed>7.19</speed>
  <fix>3d</fix>
</trkpt>
<trkpt lat="40.0704102" lon="-105.2326212">
  <ele>1583.03</ele>
  <time>2026-08-28T17:50:11Z</time>
  <course>247.16</course>
  <speed>7.172419396549535</speed>
  <fix>3d</fix>
</trkpt>
<trkpt lat="40.0704187" lon="-105.2325956">
  <ele>1583.0</ele>
  <time>2026-08-28T17:50:11Z</time>
  <course>245.99</course>
  <speed>7.19</speed>
  <fix>3d</fix>
</trkpt>
<trkpt lat="40.0704076" lon="-105.2326289">
  <ele>1583.02</ele>
  <time>2026-08-28T17:50:11Z</time>
  <course>247.16</course>
  <speed>7.172419396549535</speed>
  <fix>3d</fix>
</trkpt>
<trkpt lat="40.0704135" lon="-105.2326111">
  <ele>1583.0</ele>
  <time>2026-08-28T17:50:11Z</time>
  <course>245.99</course>
  <speed>7.19</speed>
  <fix>3d</fix>
</trkpt>
<trkpt lat="40.070405" lon="-105.2326365">
  <ele>1583.02</ele>
  <time>2026-08-28T17:50:11Z</time>
  <course>247.16</course>
  <speed>7.172419396549535</speed>
  <fix>3d</fix>
</trkpt>
<trkpt lat="40.0704135" lon="-105.2326111">
  <ele>1583.0</ele>
  <time>2026-08-28T17:50:11Z</time>
  <course>245.99</course>
  <speed>7.19</speed>
  <fix>3d</fix>
</trkpt>
<trkpt lat="40.0704024" lon="-105.2326442">
  <ele>1583.02</ele>
  <time>2026-08-28T17:50:11Z</time>
  <course>247.16</course>
  <speed>7.159231802365391</speed>
  <fix>3d</fix>
</trkpt>
<trkpt lat="40.0704082" lon="-105.2326265">
  <ele>1583.0</ele>
  <time>2026-08-28T17:50:11Z</time>
  <course>245.99</course>
  <speed>7.19</speed>
  <fix>3d</fix>
</trkpt>
<trkpt lat="40.0703998" lon="-105.2326518">
  <ele>1583.02</ele>
  <time>2026-08-28T17:50:11Z</time>
  <course>247.16</course>
  <speed>7.159231802365391</speed>
  <fix>3d</fix>
</trkpt>
<trkpt lat="40.070403" lon="-105.2326419">
  <ele>1583.0</ele>
  <time>2026-08-28T17:50:11Z</time>
  <course>245.99</course>
  <speed>7.19</speed>
  <fix>3d</fix>
</trkpt>
<trkpt lat="40.0703972" lon="-105.2326595">
  <ele>1583.02</ele>
  <time>2026-08-28T17:50:11Z</time>
  <course>247.16</course>
  <speed>7.159231802365391</speed>
  <fix>3d</fix>
</trkpt>
<trkpt lat="40.070403" lon="-105.2326419">
  <ele>1583.0</ele>
  <time>2026-08-28T17:50:11Z</time>
  <course>245.99</course>
  <speed>7.19</speed>
  <fix>3d</fix>
</trkpt>
<trkpt lat="40.0703946" lon="-105.2326672">
  <ele>1583.02</ele>
  <time>2026-08-28T17:50:11Z</time>
  <course>247.16</course>
  <speed>7.159231802365391</speed>
  <fix>3d</fix>
</trkpt>
<trkpt lat="40.0703977" lon="-105.2326573">
  <ele>1583.0</ele>
  <time>2026-08-28T17:50:11Z</time>
  <course>245.99</course>
  <speed>7.19</speed>
  <fix>3d</fix>
</trkpt>
<trkpt lat="40.0703919" lon="-105.2326749">
  <ele>1583.02</ele>
  <time>2026-08-28T17:50:11Z</time>
  <course>247.16</course>
  <speed>7.159231802365391</speed>
  <fix>3d</fix>
</trkpt>
<trkpt lat="40.0703977" lon="-105.2326573">
  <ele>1583.0</ele>
  <time>2026-08-28T17:50:11Z</time>
  <course>245.99</course>
  <speed>7.19</speed>
  <fix>3d</fix>
</trkpt>
<trkpt lat="40.0703893" lon="-105.2326826">
  <ele>1583.02</ele>
  <time>2026-08-28T17:50:11Z</time>
  <course>247.16</course>
  <speed>7.159231802365391</speed>
  <fix>3d</fix>
</trkpt>
<trkpt lat="40.0703924" lon="-105.2326727">
  <ele>1583.0</ele>
  <time>2026-08-28T17:50:11Z</time>
  <course>245.99</course>
  <speed>7.19</speed>
  <fix>3d</fix>
</trkpt>
<trkpt lat="40.0703866" lon="-105.2326904">
  <ele>1583.01</ele>
  <time>2026-08-28T17:50:11Z</time>
  <course>247.16</course>
  <speed>7.163274390947201</speed>
  <fix>3d</fix>
</trkpt>
<trkpt lat="40.0703924" lon="-105.2326727">
  <ele>1583.0</ele>
  <time>2026-08-28T17:50:11Z</time>
  <course>245.99</course>
  <speed>7.19</speed>
  <fix>3d</fix>
</trkpt>
<trkpt lat="40.070384" lon="-105.2326982">
  <ele>1583.01</ele>
  <time>2026-08-28T17:50:11Z</time>
  <course>247.16</course>
  <speed>7.172419396549535</speed>
  <fix>3d</fix>
</trkpt>
<trkpt lat="40.0703872" lon="-105.2326882">
  <ele>1583.0</ele>
  <time>2026-08-28T17:50:11Z</time>
  <course>245.99</course>
  <speed>7.19</speed>
  <fix>3d</fix>
</trkpt>
<trkpt lat="40.0703813" lon="-105.232706">
  <ele>1583.01</ele>
  <time>2026-08-28T17:50:11Z</time>
  <course>247.16</course>
  <speed>7.172419396549535</speed>
  <fix>3d</fix>
</trkpt>
<trkpt lat="40.0703872" lon="-105.2326882">
  <ele>1583.0</ele>
  <time>2026-08-28T17:50:11Z</time>
  <course>245.99</course>
  <speed>7.19</speed>
  <fix>3d</fix>
</trkpt>
<trkpt lat="40.0703787" lon="-105.2327137">
  <ele>1583.01</ele>
  <time>2026-08-28T17:50:11Z</time>
  <course>247.16</course>
  <speed>7.172419396549535</speed>
  <fix>3d</fix>
</trkpt>
<trkpt lat="40.0703819" lon="-105.2327037">
  <ele>1583.0</ele>
  <time>2026-08-28T17:50:11Z</time>
  <course>245.99</course>
  <speed>7.19</speed>
  <fix>3d</fix>
</trkpt>
<trkpt lat="40.070376" lon="-105.2327215">
  <ele>1583.01</ele>
  <time>2026-08-28T17:50:11Z</time>
  <course>247.16</course>
  <speed>7.172419396549535</speed>
  <fix>3d</fix>
</trkpt>
<trkpt lat="40.0703819" lon="-105.2327037">
  <ele>1583.0</ele>
  <time>2026-08-28T17:50:11Z</time>
  <course>245.99</course>
  <speed>7.19</speed>
  <fix>3d</fix>
</trkpt>
<trkpt lat="40.0703734" lon="-105.2327293">
  <ele>1583.0</ele>
  <time>2026-08-28T17:50:11Z</time>
  <course>247.16</course>
  <speed>7.172419396549535</speed>
  <fix>3d</fix>
</trkpt>
<trkpt lat="40.0703767" lon="-105.2327191">
  <ele>1583.0</ele>
  <time>2026-08-28T17:50:11Z</time>
  <course>245.99</course>
  <speed>7.19</speed>
  <fix>3d</fix>
</trkpt>
<trkpt lat="40.0703707" lon="-105.232737">
  <ele>1583.0</ele>
  <time>2026-08-28T17:50:11Z</time>
  <course>247.16</course>
  <speed>7.181566681442149</speed>
  <fix>3d</fix>
</trkpt>
<trkpt lat="40.0703767" lon="-105.2327191">
  <ele>1583.0</ele>
  <time>2026-08-28T17:50:11Z</time>
  <course>245.99</course>
  <speed>7.19</speed>
  <fix>3d</fix>
</trkpt>
<trkpt lat="40.0703681" lon="-105.2327448">
  <ele>1583.0</ele>
  <time>2026-08-28T17:50:11Z</time>
  <course>247.15</course>
  <speed>7.181566681442149</speed>
  <fix>3d</fix>
</trkpt>
<trkpt lat="40.0703714" lon="-105.2327345">
  <ele>1583.0</ele>
  <time>2026-08-28T17:50:11Z</time>
  <course>245.99</course>
  <speed>7.19</speed>
  <fix>3d</fix>
</trkpt>
<trkpt lat="40.0703654" lon="-105.2327526">
  <ele>1582.99</ele>
  <time>2026-08-28T17:50:11Z</time>
  <course>247.15</course>
  <speed>7.181566681442149</speed>
  <fix>3d</fix>
</trkpt>
<trkpt lat="40.0703714" lon="-105.2327345">
  <ele>1583.0</ele>
  <time>2026-08-28T17:50:11Z</time>
  <course>245.99</course>
  <speed>7.19</speed>
  <fix>3d</fix>
</trkpt>
<trkpt lat="40.0703628" lon="-105.2327603">
  <ele>1582.99</ele>
  <time>2026-08-28T17:50:11Z</time>
  <course>247.15</course>
  <speed>7.181566681442149</speed>
  <fix>3d</fix>
</trkpt>
<trkpt lat="40.0703714" lon="-105.2327345">
  <ele>1583.0</ele>
  <time>2026-08-28T17:50:11Z</time>
  <course>245.99</course>
  <speed>7.19</speed>
  <fix>3d</fix>
</trkpt>
<trkpt lat="40.0703602" lon="-105.232768">
  <ele>1582.99</ele>
  <time>2026-08-28T17:50:11Z</time>
  <course>247.15</course>
  <speed>7.181566681442149</speed>
  <fix>3d</fix>
</trkpt>
<trkpt lat="40.0703661" lon="-105.23275">
  <ele>1583.0</ele>
  <time>2026-08-28T17:50:11Z</time>
  <course>245.99</course>
  <speed>7.19</speed>
  <fix>3d</fix>
</trkpt>
<trkpt lat="40.0703576" lon="-105.2327757">
  <ele>1582.99</ele>
  <time>2026-08-28T17:50:11Z</time>
  <course>247.15</course>
  <speed>7.181566681442149</speed>
  <fix>3d</fix>
</trkpt>
<trkpt lat="40.0703661" lon="-105.23275">
  <ele>1583.0</ele>
  <time>2026-08-28T17:50:11Z</time>
  <course>245.99</course>
  <speed>7.19</speed>
  <fix>3d</fix>
</trkpt>
<trkpt lat="40.070355" lon="-105.2327833">
  <ele>1582.99</ele>
  <time>2026-08-28T17:50:11Z</time>
  <course>247.15</course>
  <speed>7.172419396549535</speed>
  <fix>3d</fix>
</trkpt>
<trkpt lat="40.0703609" lon="-105.2327655">
  <ele>1583.0</ele>
  <time>2026-08-28T17:50:11Z</time>
  <course>245.99</course>
  <speed>7.19</speed>
  <fix>3d</fix>
</trkpt>
<trkpt lat="40.0703524" lon="-105.232791">
  <ele>1582.99</ele>
  <time>2026-08-28T17:50:11Z</time>
  <course>247.15</course>
  <speed>7.172419396549535</speed>
  <fix>3d</fix>
</trkpt>
<trkpt lat="40.0703609" lon="-105.2327655">
  <ele>1583.0</ele>
  <time>2026-08-28T17:50:11Z</time>
  <course>245.99</course>
  <speed>7.19</speed>
  <fix>3d</fix>
</trkpt>
<trkpt lat="40.0703497" lon="-105.2327986">
  <ele>1582.99</ele>
  <time>2026-08-28T17:50:11Z</time>
  <course>247.15</course>
  <speed>7.172419396549535</speed>
  <fix>3d</fix>
</trkpt>
<trkpt lat="40.0703556" lon="-105.2327809">
  <ele>1583.0</ele>
  <time>2026-08-28T17:50:11Z</time>
  <course>245.99</course>
  <speed>7.19</speed>
  <fix>3d</fix>
</trkpt>
<trkpt lat="40.0703471" lon="-105.2328063">
  <ele>1582.98</ele>
  <time>2026-08-28T17:50:11Z</time>
  <course>247.15</course>
  <speed>7.172419396549535</speed>
  <fix>3d</fix>
</trkpt>
<trkpt lat="40.0703503" lon="-105.2327963">
  <ele>1583.0</ele>
  <time>2026-08-28T17:50:11Z</time>
  <course>245.99</course>
  <speed>7.19</speed>
  <fix>3d</fix>
</trkpt>
<trkpt lat="40.0703445" lon="-105.2328141">
  <ele>1582.98</ele>
  <time>2026-08-28T17:50:11Z</time>
  <course>247.15</course>
  <speed>7.172419396549535</speed>
  <fix>3d</fix>
</trkpt>
<trkpt lat="40.0703503" lon="-105.2327963">
  <ele>1583.0</ele>
  <time>2026-08-28T17:50:11Z</time>
  <course>245.99</course>
  <speed>7.19</speed>
  <fix>3d</fix>
</trkpt>
<trkpt lat="40.0703419" lon="-105.2328218">
  <ele>1582.98</ele>
  <time>2026-08-28T17:50:11Z</time>
  <course>247.15</course>
  <speed>7.163274390947201</speed>
  <fix>3d</fix>
</trkpt>
<trkpt lat="40.0703451" lon="-105.2328117">
  <ele>1583.0</ele>
  <time>2026-08-28T17:50:11Z</time>
  <course>245.99</course>
  <speed>7.19</speed>
  <fix>3d</fix>
</trkpt>
<trkpt lat="40.0703393" lon="-105.2328294">
  <ele>1582.98</ele>
  <time>2026-08-28T17:50:11Z</time>
  <course>247.15</course>
  <speed>7.172419396549535</speed>
  <fix>3d</fix>
</trkpt>
<trkpt lat="40.0703451" lon="-105.2328117">
  <ele>1583.0</ele>
  <time>2026-08-28T17:50:11Z</time>
  <course>245.99</course>
  <speed>7.19</speed>
  <fix>3d</fix>
</trkpt>
<trkpt lat="40.0703366" lon="-105.2328372">
  <ele>1582.98</ele>
  <time>2026-08-28T17:50:11Z</time>
  <course>247.15</course>
  <speed>7.172419396549535</speed>
  <fix>3d</fix>
</trkpt>
<trkpt lat="40.0703398" lon="-105.2328272">
  <ele>1583.0</ele>
  <time>2026-08-28T17:50:11Z</time>
  <course>245.99</course>
  <speed>7.19</speed>
  <fix>3d</fix>
</trkpt>
<trkpt lat="40.070334" lon="-105.2328449">
  <ele>1582.98</ele>
  <time>2026-08-28T17:50:11Z</time>
  <course>247.15</course>
  <speed>7.172419396549535</speed>
  <fix>3d</fix>
</trkpt>
<trkpt lat="40.0703398" lon="-105.2328272">
  <ele>1583.0</ele>
  <time>2026-08-28T17:50:11Z</time>
  <course>245.99</course>
  <speed>7.19</speed>
  <fix>3d</fix>
</trkpt>
<trkpt lat="40.0703313" lon="-105.2328527">
  <ele>1582.98</ele>
  <time>2026-08-28T17:50:11Z</time>
  <course>247.15</course>
  <speed>7.172419396549535</speed>
  <fix>3d</fix>
</trkpt>
<trkpt lat="40.0703345" lon="-105.2328426">
  <ele>1583.0</ele>
  <time>2026-08-28T17:50:11Z</time>
  <course>245.99</course>
  <speed>7.19</speed>
  <fix>3d</fix>
</trkpt>
<trkpt lat="40.0703287" lon="-105.2328605">
  <ele>1582.98</ele>
  <time>2026-08-28T17:50:11Z</time>
  <course>247.15</course>
  <speed>7.172419396549535</speed>
  <fix>3d</fix>
</trkpt>
<trkpt lat="40.0703345" lon="-105.2328426">
  <ele>1583.0</ele>
  <time>2026-08-28T17:50:11Z</time>
  <course>245.99</course>
  <speed>7.19</speed>
  <fix>3d</fix>
</trkpt>
<trkpt lat="40.070326" lon="-105.2328683">
  <ele>1582.98</ele>
  <time>2026-08-28T17:50:11Z</time>
  <course>247.14</course>
  <speed>7.172419396549535</speed>
  <fix>3d</fix>
</trkpt>
<trkpt lat="40.0703293" lon="-105.232858">
  <ele>1583.0</ele>
  <time>2026-08-28T17:50:11Z</time>
  <course>245.99</course>
  <speed>7.19</speed>
  <fix>3d</fix>
</trkpt>
<trkpt lat="40.0703234" lon="-105.232876">
  <ele>1582.98</ele>
  <time>2026-08-28T17:50:11Z</time>
  <course>247.14</course>
  <speed>7.181566681442149</speed>
  <fix>3d</fix>
</trkpt>
<trkpt lat="40.0703293" lon="-105.232858">
  <ele>1583.0</ele>
  <time>2026-08-28T17:50:11Z</time>
  <course>245.99</course>
  <speed>7.19</speed>
  <fix>3d</fix>
</trkpt>
<trkpt lat="40.0703207" lon="-105.2328838">
  <ele>1582.98</ele>
  <time>2026-08-28T17:50:11Z</time>
  <course>247.14</course>
  <speed>7.181566681442149</speed>
  <fix>3d</fix>
</trkpt>
<trkpt lat="40.070324" lon="-105.2328735">
  <ele>1583.0</ele>
  <time>2026-08-28T17:50:11Z</time>
  <course>245.99</course>
  <speed>7.19</speed>
  <fix>3d</fix>
</trkpt>
<trkpt lat="40.0703181" lon="-105.2328915">
  <ele>1582.98</ele>
  <time>2026-08-28T17:50:11Z</time>
  <course>247.14</course>
  <speed>7.181566681442149</speed>
  <fix>3d</fix>
</trkpt>
<trkpt lat="40.070324" lon="-105.2328735">
  <ele>1583.0</ele>
  <time>2026-08-28T17:50:11Z</time>
  <course>245.99</course>
  <speed>7.19</speed>
  <fix>3d</fix>
</trkpt>
<trkpt lat="40.0703154" lon="-105.2328993">
  <ele>1582.98</ele>
  <time>2026-08-28T17:50:11Z</time>
  <course>247.14</course>
  <speed>7.181566681442149</speed>
  <fix>3d</fix>
</trkpt>
<trkpt lat="40.0703188" lon="-105.232889">
  <ele>1583.0</ele>
  <time>2026-08-28T17:50:11Z</time>
  <course>245.99</course>
  <speed>7.19</speed>
  <fix>3d</fix>
</trkpt>
<trkpt lat="40.0703128" lon="-105.232907">
  <ele>1582.98</ele>
  <time>2026-08-28T17:50:11Z</time>
  <course>247.14</course>
  <speed>7.181566681442149</speed>
  <fix>3d</fix>
</trkpt>
<trkpt lat="40.0703188" lon="-105.232889">
  <ele>1583.0</ele>
  <time>2026-08-28T17:50:11Z</time>
  <course>245.99</course>
  <speed>7.19</speed>
  <fix>3d</fix>
</trkpt>
<trkpt lat="40.0703101" lon="-105.2329148">
  <ele>1582.98</ele>
  <time>2026-08-28T17:50:11Z</time>
  <course>247.14</course>
  <speed>7.181566681442149</speed>
  <fix>3d</fix>
</trkpt>
<trkpt lat="40.0703188" lon="-105.232889">
  <ele>1583.0</ele>
  <time>2026-08-28T17:50:11Z</time>
  <course>245.99</course>
  <speed>7.19</speed>
  <fix>3d</fix>
</trkpt>
<trkpt lat="40.0703075" lon="-105.2329225">
  <ele>1582.98</ele>
  <time>2026-08-28T17:50:11Z</time>
  <course>247.14</course>
  <speed>7.181566681442149</speed>
  <fix>3d</fix>
</trkpt>
<trkpt lat="40.0703135" lon="-105.2329044">
  <ele>1583.0</ele>
  <time>2026-08-28T17:50:11Z</time>
  <course>245.99</course>
  <speed>7.19</speed>
  <fix>3d</fix>
</trkpt>
<trkpt lat="40.0703049" lon="-105.2329302">
  <ele>1582.98</ele>
  <time>2026-08-28T17:50:11Z</time>
  <course>247.14</course>
  <speed>7.181566681442149</speed>
  <fix>3d</fix>
</trkpt>
<trkpt lat="40.0703135" lon="-105.2329044">
  <ele>1583.0</ele>
  <time>2026-08-28T17:50:11Z</time>
  <course>245.99</course>
  <speed>7.19</speed>
  <fix>3d</fix>
</trkpt>
<trkpt lat="40.0703023" lon="-105.2329378">
  <ele>1582.98</ele>
  <time>2026-08-28T17:50:11Z</time>
  <course>247.14</course>
  <speed>7.172419396549535</speed>
  <fix>3d</fix>
</trkpt>
<trkpt lat="40.0703082" lon="-105.2329199">
  <ele>1583.0</ele>
  <time>2026-08-28T17:50:11Z</time>
  <course>245.99</course>
  <speed>7.19</speed>
  <fix>3d</fix>
</trkpt>
<trkpt lat="40.0702997" lon="-105.2329455">
  <ele>1582.98</ele>
  <time>2026-08-28T17:50:11Z</time>
  <course>247.14</course>
  <speed>7.172419396549535</speed>
  <fix>3d</fix>
</trkpt>
<trkpt lat="40.0703082" lon="-105.2329199">
  <ele>1583.0</ele>
  <time>2026-08-28T17:50:11Z</time>
  <course>245.99</course>
  <speed>7.19</speed>
  <fix>3d</fix>
</trkpt>
<trkpt lat="40.0702971" lon="-105.2329531">
  <ele>1582.98</ele>
  <time>2026-08-28T17:50:11Z</time>
  <course>247.14</course>
  <speed>7.172419396549535</speed>
  <fix>3d</fix>
</trkpt>
<trkpt lat="40.070303" lon="-105.2329353">
  <ele>1583.0</ele>
  <time>2026-08-28T17:50:11Z</time>
  <course>245.99</course>
  <speed>7.19</speed>
  <fix>3d</fix>
</trkpt>
<trkpt lat="40.0702945" lon="-105.2329608">
  <ele>1582.97</ele>
  <time>2026-08-28T17:50:11Z</time>
  <course>247.14</course>
  <speed>7.172419396549535</speed>
  <fix>3d</fix>
</trkpt>
<trkpt lat="40.0702977" lon="-105.2329508">
  <ele>1583.0</ele>
  <time>2026-08-28T17:50:11Z</time>
  <course>245.99</course>
  <speed>7.19</speed>
  <fix>3d</fix>
</trkpt>
<trkpt lat="40.0702918" lon="-105.2329685">
  <ele>1582.97</ele>
  <time>2026-08-28T17:50:11Z</time>
  <course>247.14</course>
  <speed>7.172419396549535</speed>
  <fix>3d</fix>
</trkpt>
<trkpt lat="40.0702977" lon="-105.2329508">
  <ele>1583.0</ele>
  <time>2026-08-28T17:50:11Z</time>
  <course>245.99</course>
  <speed>7.19</speed>
  <fix>3d</fix>
</trkpt>
<trkpt lat="40.0702892" lon="-105.2329762">
  <ele>1582.97</ele>
  <time>2026-08-28T17:50:11Z</time>
  <course>247.14</course>
  <speed>7.172419396549535</speed>
  <fix>3d</fix>
</trkpt>
<trkpt lat="40.0702924" lon="-105.2329661">
  <ele>1583.0</ele>
  <time>2026-08-28T17:50:11Z</time>
  <course>245.99</course>
  <speed>7.19</speed>
  <fix>3d</fix>
</trkpt>
<trkpt lat="40.0702866" lon="-105.2329839">
  <ele>1582.97</ele>
  <time>2026-08-28T17:50:11Z</time>
  <course>247.14</course>
  <speed>7.172419396549535</speed>
  <fix>3d</fix>
</trkpt>
<trkpt lat="40.0702924" lon="-105.2329661">
  <ele>1583.0</ele>
  <time>2026-08-28T17:50:11Z</time>
  <course>245.99</course>
  <speed>7.19</speed>
  <fix>3d</fix>
</trkpt>
<trkpt lat="40.070284" lon="-105.2329916">
  <ele>1582.97</ele>
  <time>2026-08-28T17:50:11Z</time>
  <course>247.13</course>
  <speed>7.172419396549535</speed>
  <fix>3d</fix>
</trkpt>
<trkpt lat="40.0702872" lon="-105.2329816">
  <ele>1583.0</ele>
  <time>2026-08-28T17:50:11Z</time>
  <course>245.99</course>
  <speed>7.19</speed>
  <fix>3d</fix>
</trkpt>
<trkpt lat="40.0702813" lon="-105.2329994">
  <ele>1582.97</ele>
  <time>2026-08-28T17:50:11Z</time>
  <course>247.13</course>
  <speed>7.172419396549535</speed>
  <fix>3d</fix>
</trkpt>
<trkpt lat="40.0702872" lon="-105.2329816">
  <ele>1583.0</ele>
  <time>2026-08-28T17:50:11Z</time>
  <course>245.99</course>
  <speed>7.19</speed>
  <fix>3d</fix>
</trkpt>
<trkpt lat="40.0702787" lon="-105.2330071">
  <ele>1582.97</ele>
  <time>2026-08-28T17:50:11Z</time>
  <course>247.13</course>
  <speed>7.172419396549535</speed>
  <fix>3d</fix>
</trkpt>
<trkpt lat="40.070282" lon="-105.232997">
  <ele>1583.0</ele>
  <time>2026-08-28T17:50:11Z</time>
  <course>245.99</course>
  <speed>7.19</speed>
  <fix>3d</fix>
</trkpt>
<trkpt lat="40.070276" lon="-105.2330149">
  <ele>1582.97</ele>
  <time>2026-08-28T17:50:11Z</time>
  <course>247.13</course>
  <speed>7.172419396549535</speed>
  <fix>3d</fix>
</trkpt>
<trkpt lat="40.070282" lon="-105.232997">
  <ele>1583.0</ele>
  <time>2026-08-28T17:50:11Z</time>
  <course>245.99</course>
  <speed>7.19</speed>
  <fix>3d</fix>
</trkpt>
<trkpt lat="40.0702734" lon="-105.2330227">
  <ele>1582.97</ele>
  <time>2026-08-28T17:50:11Z</time>
  <course>247.13</course>
  <speed>7.172419396549535</speed>
  <fix>3d</fix>
</trkpt>
<trkpt lat="40.0702767" lon="-105.2330125">
  <ele>1583.0</ele>
  <time>2026-08-28T17:50:11Z</time>
  <course>245.99</course>
  <speed>7.19</speed>
  <fix>3d</fix>
</trkpt>
<trkpt lat="40.0702707" lon="-105.2330304">
  <ele>1582.98</ele>
  <time>2026-08-28T17:50:11Z</time>
  <course>247.13</course>
  <speed>7.172419396549535</speed>
  <fix>3d</fix>
</trkpt>
<trkpt lat="40.0702767" lon="-105.2330125">
  <ele>1583.0</ele>
  <time>2026-08-28T17:50:11Z</time>
  <course>245.99</course>
  <speed>7.19</speed>
  <fix>3d</fix>
</trkpt>
<trkpt lat="40.0702681" lon="-105.2330382">
  <ele>1582.98</ele>
  <time>2026-08-28T17:50:11Z</time>
  <course>247.13</course>
  <speed>7.181566681442149</speed>
  <fix>3d</fix>
</trkpt>
<trkpt lat="40.0702714" lon="-105.2330279">
  <ele>1583.0</ele>
  <time>2026-08-28T17:50:11Z</time>
  <course>245.99</course>
  <speed>7.19</speed>
  <fix>3d</fix>
</trkpt>
<trkpt lat="40.0702655" lon="-105.233046">
  <ele>1582.98</ele>
  <time>2026-08-28T17:50:11Z</time>
  <course>247.13</course>
  <speed>7.181566681442149</speed>
  <fix>3d</fix>
</trkpt>
<trkpt lat="40.0702714" lon="-105.2330279">
  <ele>1583.0</ele>
  <time>2026-08-28T17:50:11Z</time>
  <course>245.99</course>
  <speed>7.19</speed>
  <fix>3d</fix>
</trkpt>
<trkpt lat="40.0702628" lon="-105.2330537">
  <ele>1582.99</ele>
  <time>2026-08-28T17:50:11Z</time>
  <course>247.13</course>
  <speed>7.181566681442149</speed>
  <fix>3d</fix>
</trkpt>
<trkpt lat="40.0702662" lon="-105.2330434">
  <ele>1583.0</ele>
  <time>2026-08-28T17:50:11Z</time>
  <course>245.99</course>
  <speed>7.19</speed>
  <fix>3d</fix>
</trkpt>
<trkpt lat="40.0702602" lon="-105.2330615">
  <ele>1582.99</ele>
  <time>2026-08-28T17:50:11Z</time>
  <course>247.13</course>
  <speed>7.181566681442149</speed>
  <fix>3d</fix>
</trkpt>
<trkpt lat="40.0702662" lon="-105.2330434">
  <ele>1583.0</ele>
  <time>2026-08-28T17:50:11Z</time>
  <course>245.99</course>
  <speed>7.19</speed>
  <fix>3d</fix>
</trkpt>
<trkpt lat="40.0702575" lon="-105.2330692">
  <ele>1583.0</ele>
  <time>2026-08-28T17:50:11Z</time>
  <course>247.13</course>
  <speed>7.181566681442149</speed>
  <fix>3d</fix>
</trkpt>
<trkpt lat="40.0702662" lon="-105.2330434">
  <ele>1583.0</ele>
  <time>2026-08-28T17:50:11Z</time>
  <course>245.99</course>
  <speed>7.19</speed>
  <fix>3d</fix>
</trkpt>
<trkpt lat="40.0702549" lon="-105.2330769">
  <ele>1583.0</ele>
  <time>2026-08-28T17:50:11Z</time>
  <course>247.13</course>
  <speed>7.181566681442149</speed>
  <fix>3d</fix>
</trkpt>
<trkpt lat="40.0702609" lon="-105.2330588">
  <ele>1583.0</ele>
  <time>2026-08-28T17:50:11Z</time>
  <course>245.99</course>
  <speed>7.19</speed>
  <fix>3d</fix>
</trkpt>
<trkpt lat="40.0702523" lon="-105.2330846">
  <ele>1583.0</ele>
  <time>2026-08-28T17:50:11Z</time>
  <course>247.13</course>
  <speed>7.181566681442149</speed>
  <fix>3d</fix>
</trkpt>
<trkpt lat="40.0702609" lon="-105.2330588">
  <ele>1583.0</ele>
  <time>2026-08-28T17:50:11Z</time>
  <course>245.99</course>
  <speed>7.19</speed>
  <fix>3d</fix>
</trkpt>
<trkpt lat="40.0702497" lon="-105.2330922">
  <ele>1583.0</ele>
  <time>2026-08-28T17:50:11Z</time>
  <course>247.13</course>
  <speed>7.172419396549535</speed>
  <fix>3d</fix>
</trkpt>
<trkpt lat="40.0702557" lon="-105.2330743">
  <ele>1583.0</ele>
  <time>2026-08-28T17:50:11Z</time>
  <course>245.99</course>
  <speed>7.19</speed>
  <fix>3d</fix>
</trkpt>
<trkpt lat="40.0702471" lon="-105.2330999">
  <ele>1583.0</ele>
  <time>2026-08-28T17:50:11Z</time>
  <course>247.13</course>
  <speed>7.172419396549535</speed>
  <fix>3d</fix>
</trkpt>
<trkpt lat="40.0702557" lon="-105.2330743">
  <ele>1583.0</ele>
  <time>2026-08-28T17:50:11Z</time>
  <course>245.99</course>
  <speed>7.19</speed>
  <fix>3d</fix>
</trkpt>
<trkpt lat="40.0702445" lon="-105.2331075">
  <ele>1583.0</ele>
  <time>2026-08-28T17:50:11Z</time>
  <course>247.13</course>
  <speed>7.172419396549535</speed>
  <fix>3d</fix>
</trkpt>
<trkpt lat="40.0702504" lon="-105.2330897">
  <ele>1583.0</ele>
  <time>2026-08-28T17:50:11Z</time>
  <course>245.99</course>
  <speed>7.19</speed>
  <fix>3d</fix>
</trkpt>
<trkpt lat="40.0702419" lon="-105.2331151">
  <ele>1583.0</ele>
  <time>2026-08-28T17:50:11Z</time>
  <course>247.13</course>
  <speed>7.159231802365391</speed>
  <fix>3d</fix>
</trkpt>
<trkpt lat="40.0702504" lon="-105.2330897">
  <ele>1583.0</ele>
  <time>2026-08-28T17:50:11Z</time>
  <course>245.99</course>
  <speed>7.19</speed>
  <fix>3d</fix>
</trkpt>
<trkpt lat="40.0702393" lon="-105.2331228">
  <ele>1583.0</ele>
  <time>2026-08-28T17:50:11Z</time>
  <course>247.12</course>
  <speed>7.159231802365391</speed>
  <fix>3d</fix>
</trkpt>
<trkpt lat="40.0702451" lon="-105.2331052">
  <ele>1583.0</ele>
  <time>2026-08-28T17:50:11Z</time>
  <course>245.99</course>
  <speed>7.19</speed>
  <fix>3d</fix>
</trkpt>
<trkpt lat="40.0702367" lon="-105.2331305">
  <ele>1583.0</ele>
  <time>2026-08-28T17:50:11Z</time>
  <course>247.12</course>
  <speed>7.159231802365391</speed>
  <fix>3d</fix>
</trkpt>
<trkpt lat="40.0702399" lon="-105.2331205">
  <ele>1583.0</ele>
  <time>2026-08-28T17:50:11Z</time>
  <course>245.99</course>
  <speed>7.19</speed>
  <fix>3d</fix>
</trkpt>
<trkpt lat="40.0702341" lon="-105.2331382">
  <ele>1582.99</ele>
  <time>2026-08-28T17:50:11Z</time>
  <course>247.12</course>
  <speed>7.159231802365391</speed>
  <fix>3d</fix>
</trkpt>
<trkpt lat="40.0702399" lon="-105.2331205">
  <ele>1583.0</ele>
  <time>2026-08-28T17:50:11Z</time>
  <course>245.99</course>
  <speed>7.19</speed>
  <fix>3d</fix>
</trkpt>
<trkpt lat="40.0702315" lon="-105.2331458">
  <ele>1582.99</ele>
  <time>2026-08-28T17:50:11Z</time>
  <course>247.12</course>
  <speed>7.159231802365391</speed>
  <fix>3d</fix>
</trkpt>
<trkpt lat="40.0702346" lon="-105.233136">
  <ele>1583.0</ele>
  <time>2026-08-28T17:50:11Z</time>
  <course>245.99</course>
  <speed>7.19</speed>
  <fix>3d</fix>
</trkpt>
<trkpt lat="40.0702288" lon="-105.2331536">
  <ele>1582.99</ele>
  <time>2026-08-28T17:50:11Z</time>
  <course>247.12</course>
  <speed>7.159231802365391</speed>
  <fix>3d</fix>
</trkpt>
<trkpt lat="40.0702346" lon="-105.233136">
  <ele>1583.0</ele>
  <time>2026-08-28T17:50:11Z</time>
  <course>245.99</course>
  <speed>7.19</speed>
  <fix>3d</fix>
</trkpt>
<trkpt lat="40.0702262" lon="-105.2331613">
  <ele>1582.99</ele>
  <time>2026-08-28T17:50:11Z</time>
  <course>247.12</course>
  <speed>7.159231802365391</speed>
  <fix>3d</fix>
</trkpt>
<trkpt lat="40.0702294" lon="-105.2331514">
  <ele>1583.0</ele>
  <time>2026-08-28T17:50:11Z</time>
  <course>245.99</course>
  <speed>7.19</speed>
  <fix>3d</fix>
</trkpt>
<trkpt lat="40.0702235" lon="-105.2331691">
  <ele>1583.0</ele>
  <time>2026-08-28T17:50:11Z</time>
  <course>247.12</course>
  <speed>7.159231802365391</speed>
  <fix>3d</fix>
</trkpt>
<trkpt lat="40.0702294" lon="-105.2331514">
  <ele>1583.0</ele>
  <time>2026-08-28T17:50:11Z</time>
  <course>245.99</course>
  <speed>7.19</speed>
  <fix>3d</fix>
</trkpt>
<trkpt lat="40.0702209" lon="-105.2331769">
  <ele>1583.0</ele>
  <time>2026-08-28T17:50:11Z</time>
  <course>247.12</course>
  <speed>7.172419396549535</speed>
  <fix>3d</fix>
</trkpt>
<trkpt lat="40.0702241" lon="-105.2331669">
  <ele>1583.0</ele>
  <time>2026-08-28T17:50:11Z</time>
  <course>245.99</course>
  <speed>7.19</speed>
  <fix>3d</fix>
</trkpt>
<trkpt lat="40.0702182" lon="-105.2331847">
  <ele>1583.0</ele>
  <time>2026-08-28T17:50:11Z</time>
  <course>247.12</course>
  <speed>7.172419396549535</speed>
  <fix>3d</fix>
</trkpt>
<trkpt lat="40.0702241" lon="-105.2331669">
  <ele>1583.0</ele>
  <time>2026-08-28T17:50:11Z</time>
  <course>245.99</course>
  <speed>7.19</speed>
  <fix>3d</fix>
</trkpt>
<trkpt lat="40.0702156" lon="-105.2331924">
  <ele>1583.0</ele>
  <time>2026-08-28T17:50:11Z</time>
  <course>247.12</course>
  <speed>7.172419396549535</speed>
  <fix>3d</fix>
</trkpt>
<trkpt lat="40.0702188" lon="-105.2331824">
  <ele>1583.0</ele>
  <time>2026-08-28T17:50:11Z</time>
  <course>245.99</course>
  <speed>7.19</speed>
  <fix>3d</fix>
</trkpt>
<trkpt lat="40.0702129" lon="-105.2332002">
  <ele>1583.0</ele>
  <time>2026-08-28T17:50:11Z</time>
  <course>247.12</course>
  <speed>7.172419396549535</speed>
  <fix>3d</fix>
</trkpt>
<trkpt lat="40.0702188" lon="-105.2331824">
  <ele>1583.0</ele>
  <time>2026-08-28T17:50:11Z</time>
  <course>245.99</course>
  <speed>7.19</speed>
  <fix>3d</fix>
</trkpt>
<trkpt lat="40.0702103" lon="-105.233208">
  <ele>1583.0</ele>
  <time>2026-08-28T17:50:11Z</time>
  <course>247.12</course>
  <speed>7.172419396549535</speed>
  <fix>3d</fix>
</trkpt>
<trkpt lat="40.0702136" lon="-105.2331978">
  <ele>1583.0</ele>
  <time>2026-08-28T17:50:11Z</time>
  <course>245.99</course>
  <speed>7.19</speed>
  <fix>3d</fix>
</trkpt>
<trkpt lat="40.0702077" lon="-105.2332157">
  <ele>1583.0</ele>
  <time>2026-08-28T17:50:11Z</time>
  <course>247.12</course>
  <speed>7.181566681442149</speed>
  <fix>3d</fix>
</trkpt>
<trkpt lat="40.0702136" lon="-105.2331978">
  <ele>1583.0</ele>
  <time>2026-08-28T17:50:11Z</time>
  <course>245.99</course>
  <speed>7.19</speed>
  <fix>3d</fix>
</trkpt>
<trkpt lat="40.070205" lon="-105.2332235">
  <ele>1583.0</ele>
  <time>2026-08-28T17:50:11Z</time>
  <course>247.12</course>
  <speed>7.181566681442149</speed>
  <fix>3d</fix>
</trkpt>
<trkpt lat="40.0702083" lon="-105.2332132">
  <ele>1583.0</ele>
  <time>2026-08-28T17:50:11Z</time>
  <course>245.99</course>
  <speed>7.19</speed>
  <fix>3d</fix>
</trkpt>
<trkpt lat="40.0702024" lon="-105.2332312">
  <ele>1583.0</ele>
  <time>2026-08-28T17:50:11Z</time>
  <course>247.12</course>
  <speed>7.181566681442149</speed>
  <fix>3d</fix>
</trkpt>
<trkpt lat="40.0702083" lon="-105.2332132">
  <ele>1583.0</ele>
  <time>2026-08-28T17:50:11Z</time>
  <course>245.99</course>
  <speed>7.19</speed>
  <fix>3d</fix>
</trkpt>
<trkpt lat="40.0701997" lon="-105.233239">
  <ele>1583.0</ele>
  <time>2026-08-28T17:50:11Z</time>
  <course>247.12</course>
  <speed>7.181566681442149</speed>
  <fix>3d</fix>
</trkpt>
<trkpt lat="40.0702083" lon="-105.2332132">
  <ele>1583.0</ele>
  <time>2026-08-28T17:50:11Z</time>
  <course>245.99</course>
  <speed>7.19</speed>
  <fix>3d</fix>
</trkpt>
<trkpt lat="40.0701971" lon="-105.2332467">
  <ele>1583.01</ele>
  <time>2026-08-28T17:50:11Z</time>
  <course>247.12</course>
  <speed>7.181566681442149</speed>
  <fix>3d</fix>
</trkpt>
<trkpt lat="40.070203" lon="-105.2332287">
  <ele>1583.0</ele>
  <time>2026-08-28T17:50:11Z</time>
  <course>245.99</course>
  <speed>7.19</speed>
  <fix>3d</fix>
</trkpt>
<trkpt lat="40.0701945" lon="-105.2332544">
  <ele>1583.01</ele>
  <time>2026-08-28T17:50:11Z</time>
  <course>247.12</course>
  <speed>7.181566681442149</speed>
  <fix>3d</fix>
</trkpt>
<trkpt lat="40.070203" lon="-105.2332287">
  <ele>1583.0</ele>
  <time>2026-08-28T17:50:11Z</time>
  <course>245.99</course>
  <speed>7.19</speed>
  <fix>3d</fix>
</trkpt>
<trkpt lat="40.0701919" lon="-105.233262">
  <ele>1583.01</ele>
  <time>2026-08-28T17:50:11Z</time>
  <course>247.11</course>
  <speed>7.172419396549535</speed>
  <fix>3d</fix>
</trkpt>
<trkpt lat="40.0701978" lon="-105.2332442">
  <ele>1583.0</ele>
  <time>2026-08-28T17:50:11Z</time>
  <course>245.99</course>
  <speed>7.19</speed>
  <fix>3d</fix>
</trkpt>
<trkpt lat="40.0701893" lon="-105.2332697">
  <ele>1583.01</ele>
  <time>2026-08-28T17:50:11Z</time>
  <course>247.11</course>
  <speed>7.172419396549535</speed>
  <fix>3d</fix>
</trkpt>
<trkpt lat="40.0701978" lon="-105.2332442">
  <ele>1583.0</ele>
  <time>2026-08-28T17:50:11Z</time>
  <course>245.99</course>
  <speed>7.19</speed>
  <fix>3d</fix>
</trkpt>
<trkpt lat="40.0701867" lon="-105.2332773">
  <ele>1583.01</ele>
  <time>2026-08-28T17:50:11Z</time>
  <course>247.11</course>
  <speed>7.172419396549535</speed>
  <fix>3d</fix>
</trkpt>
<trkpt lat="40.0701925" lon="-105.2332596">
  <ele>1583.0</ele>
  <time>2026-08-28T17:50:11Z</time>
  <course>245.99</course>
  <speed>7.19</speed>
  <fix>3d</fix>
</trkpt>
<trkpt lat="40.070184" lon="-105.233285">
  <ele>1583.0</ele>
  <time>2026-08-28T17:50:11Z</time>
  <course>247.11</course>
  <speed>7.172419396549535</speed>
  <fix>3d</fix>
</trkpt>
<trkpt lat="40.0701873" lon="-105.233275">
  <ele>1583.0</ele>
  <time>2026-08-28T17:50:11Z</time>
  <course>245.99</course>
  <speed>7.19</speed>
  <fix>3d</fix>
</trkpt>
<trkpt lat="40.0701814" lon="-105.2332927">
  <ele>1583.0</ele>
  <time>2026-08-28T17:50:11Z</time>
  <course>247.11</course>
  <speed>7.172419396549535</speed>
  <fix>3d</fix>
</trkpt>
<trkpt lat="40.0701873" lon="-105.233275">
  <ele>1583.0</ele>
  <time>2026-08-28T17:50:11Z</time>
  <course>245.99</course>
  <speed>7.19</speed>
  <fix>3d</fix>
</trkpt>
<trkpt lat="40.0701788" lon="-105.2333005">
  <ele>1583.0</ele>
  <time>2026-08-28T17:50:11Z</time>
  <course>247.11</course>
  <speed>7.172419396549535</speed>
  <fix>3d</fix>
</trkpt>
<trkpt lat="40.070182" lon="-105.2332905">
  <ele>1583.0</ele>
  <time>2026-08-28T17:50:11Z</time>
  <course>245.99</course>
  <speed>7.19</speed>
  <fix>3d</fix>
</trkpt>
<trkpt lat="40.0701762" lon="-105.2333081">
  <ele>1583.0</ele>
  <time>2026-08-28T17:50:11Z</time>
  <course>247.11</course>
  <speed>7.172419396549535</speed>
  <fix>3d</fix>
</trkpt>
<trkpt lat="40.070182" lon="-105.2332905">
  <ele>1583.0</ele>
  <time>2026-08-28T17:50:11Z</time>
  <course>245.99</course>
  <speed>7.19</speed>
  <fix>3d</fix>
</trkpt>
<trkpt lat="40.0701735" lon="-105.2333159">
  <ele>1583.0</ele>
  <time>2026-08-28T17:50:11Z</time>
  <course>247.11</course>
  <speed>7.172419396549535</speed>
  <fix>3d</fix>
</trkpt>
<trkpt lat="40.0701768" lon="-105.2333058">
  <ele>1583.0</ele>
  <time>2026-08-28T17:50:11Z</time>
  <course>245.99</course>
  <speed>7.19</speed>
  <fix>3d</fix>
</trkpt>
<trkpt lat="40.0701709" lon="-105.2333236">
  <ele>1583.0</ele>
  <time>2026-08-28T17:50:11Z</time>
  <course>247.11</course>
  <speed>7.172419396549535</speed>
  <fix>3d</fix>
</trkpt>
<trkpt lat="40.0701768" lon="-105.2333058">
  <ele>1583.0</ele>
  <time>2026-08-28T17:50:11Z</time>
  <course>245.99</course>
  <speed>7.19</speed>
  <fix>3d</fix>
</trkpt>
<trkpt lat="40.0701683" lon="-105.2333314">
  <ele>1582.99</ele>
  <time>2026-08-28T17:50:11Z</time>
  <course>247.11</course>
  <speed>7.172419396549535</speed>
  <fix>3d</fix>
</trkpt>
<trkpt lat="40.0701715" lon="-105.2333213">
  <ele>1583.0</ele>
  <time>2026-08-28T17:50:11Z</time>
  <course>245.99</course>
  <speed>7.19</speed>
  <fix>3d</fix>
</trkpt>
<trkpt lat="40.0701656" lon="-105.2333392">
  <ele>1582.99</ele>
  <time>2026-08-28T17:50:11Z</time>
  <course>247.11</course>
  <speed>7.172419396549535</speed>
  <fix>3d</fix>
</trkpt>
<trkpt lat="40.0701715" lon="-105.2333213">
  <ele>1583.0</ele>
  <time>2026-08-28T17:50:11Z</time>
  <course>245.99</course>
  <speed>7.19</speed>
  <fix>3d</fix>
</trkpt>
<trkpt lat="40.070163" lon="-105.233347">
  <ele>1582.99</ele>
  <time>2026-08-28T17:50:11Z</time>
  <course>247.11</course>
  <speed>7.172419396549535</speed>
  <fix>3d</fix>
</trkpt>
<trkpt lat="40.0701662" lon="-105.2333367">
  <ele>1583.0</ele>
  <time>2026-08-28T17:50:11Z</time>
  <course>245.99</course>
  <speed>7.19</speed>
  <fix>3d</fix>
</trkpt>
<trkpt lat="40.0701603" lon="-105.2333547">
  <ele>1582.99</ele>
  <time>2026-08-28T17:50:11Z</time>
  <course>247.11</course>
  <speed>7.181566681442149</speed>
  <fix>3d</fix>
</trkpt>
<trkpt lat="40.0701662" lon="-105.2333367">
  <ele>1583.0</ele>
  <time>2026-08-28T17:50:11Z</time>
  <course>245.99</course>
  <speed>7.19</speed>
  <fix>3d</fix>
</trkpt>
<trkpt lat="40.0701577" lon="-105.2333625">
  <ele>1582.98</ele>
  <time>2026-08-28T17:50:11Z</time>
  <course>247.11</course>
  <speed>7.181566681442149</speed>
  <fix>3d</fix>
</trkpt>
<trkpt lat="40.070161" lon="-105.2333522">
  <ele>1583.0</ele>
  <time>2026-08-28T17:50:11Z</time>
  <course>245.99</course>
  <speed>7.19</speed>
  <fix>3d</fix>
</trkpt>
<trkpt lat="40.070155" lon="-105.2333702">
  <ele>1582.98</ele>
  <time>2026-08-28T17:50:11Z</time>
  <course>247.11</course>
  <speed>7.181566681442149</speed>
  <fix>3d</fix>
</trkpt>
<trkpt lat="40.070161" lon="-105.2333522">
  <ele>1583.0</ele>
  <time>2026-08-28T17:50:11Z</time>
  <course>245.99</course>
  <speed>7.19</speed>
  <fix>3d</fix>
</trkpt>
<trkpt lat="40.0701524" lon="-105.233378">
  <ele>1582.99</ele>
  <time>2026-08-28T17:50:11Z</time>
  <course>247.11</course>
  <speed>7.181566681442149</speed>
  <fix>3d</fix>
</trkpt>
<trkpt lat="40.0701557" lon="-105.2333676">
  <ele>1583.0</ele>
  <time>2026-08-28T17:50:11Z</time>
  <course>245.99</course>
  <speed>7.19</speed>
  <fix>3d</fix>
</trkpt>
<trkpt lat="40.0701497" lon="-105.2333857">
  <ele>1582.99</ele>
  <time>2026-08-28T17:50:11Z</time>
  <course>247.11</course>
  <speed>7.181566681442149</speed>
  <fix>3d</fix>
</trkpt>
<trkpt lat="40.0701557" lon="-105.2333676">
  <ele>1583.0</ele>
  <time>2026-08-28T17:50:11Z</time>
  <course>245.99</course>
  <speed>7.19</speed>
  <fix>3d</fix>
</trkpt>
<trkpt lat="40.0701471" lon="-105.2333935">
  <ele>1582.99</ele>
  <time>2026-08-28T17:50:11Z</time>
  <course>247.11</course>
  <speed>7.181566681442149</speed>
  <fix>3d</fix>
</trkpt>
<trkpt lat="40.0701557" lon="-105.2333676">
  <ele>1583.0</ele>
  <time>2026-08-28T17:50:11Z</time>
  <course>245.99</course>
  <speed>7.19</speed>
  <fix>3d</fix>
</trkpt>
<trkpt lat="40.0701445" lon="-105.2334012">
  <ele>1582.99</ele>
  <time>2026-08-28T17:50:11Z</time>
  <course>247.11</course>
  <speed>7.181566681442149</speed>
  <fix>3d</fix>
</trkpt>
<trkpt lat="40.0701504" lon="-105.2333831">
  <ele>1583.0</ele>
  <time>2026-08-28T17:50:11Z</time>
  <course>245.99</course>
  <speed>7.19</speed>
  <fix>3d</fix>
</trkpt>
<trkpt lat="40.0701419" lon="-105.2334089">
  <ele>1582.99</ele>
  <time>2026-08-28T17:50:11Z</time>
  <course>247.1</course>
  <speed>7.181566681442149</speed>
  <fix>3d</fix>
</trkpt>
<trkpt lat="40.0701504" lon="-105.2333831">
  <ele>1583.0</ele>
  <time>2026-08-28T17:50:11Z</time>
  <course>245.99</course>
  <speed>7.19</speed>
  <fix>3d</fix>
</trkpt>
<trkpt lat="40.0701393" lon="-105.2334165">
  <ele>1582.99</ele>
  <time>2026-08-28T17:50:11Z</time>
  <course>247.1</course>
  <speed>7.172419396549535</speed>
  <fix>3d</fix>
</trkpt>
<trkpt lat="40.0701452" lon="-105.2333985">
  <ele>1583.0</ele>
  <time>2026-08-28T17:50:11Z</time>
  <course>245.99</course>
  <speed>7.19</speed>
  <fix>3d</fix>
</trkpt>
<trkpt lat="40.0701366" lon="-105.2334241">
  <ele>1582.99</ele>
  <time>2026-08-28T17:50:11Z</time>
  <course>247.1</course>
  <speed>7.172419396549535</speed>
  <fix>3d</fix>
</trkpt>
<trkpt lat="40.0701452" lon="-105.2333985">
  <ele>1583.0</ele>
  <time>2026-08-28T17:50:11Z</time>
  <course>245.99</course>
  <speed>7.19</speed>
  <fix>3d</fix>
</trkpt>
<trkpt lat="40.070134" lon="-105.2334318">
  <ele>1582.99</ele>
  <time>2026-08-28T17:50:11Z</time>
  <course>247.1</course>
  <speed>7.172419396549535</speed>
  <fix>3d</fix>
</trkpt>
<trkpt lat="40.0701399" lon="-105.233414">
  <ele>1583.0</ele>
  <time>2026-08-28T17:50:11Z</time>
  <course>245.99</course>
  <speed>7.19</speed>
  <fix>3d</fix>
</trkpt>
<trkpt lat="40.0701314" lon="-105.2334394">
  <ele>1582.99</ele>
  <time>2026-08-28T17:50:11Z</time>
  <course>247.1</course>
  <speed>7.172419396549535</speed>
  <fix>3d</fix>
</trkpt>
<trkpt lat="40.0701399" lon="-105.233414">
  <ele>1583.0</ele>
  <time>2026-08-28T17:50:11Z</time>
  <course>245.99</course>
  <speed>7.19</speed>
  <fix>3d</fix>
</trkpt>
<trkpt lat="40.0701288" lon="-105.2334471">
  <ele>1582.98</ele>
  <time>2026-08-28T17:50:11Z</time>
  <course>247.1</course>
  <speed>7.159231802365391</speed>
  <fix>3d</fix>
</trkpt>
<trkpt lat="40.0701346" lon="-105.2334294">
  <ele>1583.0</ele>
  <time>2026-08-28T17:50:11Z</time>
  <course>245.99</course>
  <speed>7.19</speed>
  <fix>3d</fix>
</trkpt>
<trkpt lat="40.0701262" lon="-105.2334547">
  <ele>1582.99</ele>
  <time>2026-08-28T17:50:11Z</time>
  <course>247.1</course>
  <speed>7.159231802365391</speed>
  <fix>3d</fix>
</trkpt>
<trkpt lat="40.0701294" lon="-105.2334449">
  <ele>1583.0</ele>
  <time>2026-08-28T17:50:11Z</time>
  <course>245.99</course>
  <speed>7.19</speed>
  <fix>3d</fix>
</trkpt>
<trkpt lat="40.0701236" lon="-105.2334624">
  <ele>1582.99</ele>
  <time>2026-08-28T17:50:11Z</time>
  <course>247.1</course>
  <speed>7.159231802365391</speed>
  <fix>3d</fix>
</trkpt>
<trkpt lat="40.0701294" lon="-105.2334449">
  <ele>1583.0</ele>
  <time>2026-08-28T17:50:11Z</time>
  <course>245.99</course>
  <speed>7.19</speed>
  <fix>3d</fix>
</trkpt>
<trkpt lat="40.070121" lon="-105.2334701">
  <ele>1582.99</ele>
  <time>2026-08-28T17:50:11Z</time>
  <course>247.1</course>
  <speed>7.159231802365391</speed>
  <fix>3d</fix>
</trkpt>
<trkpt lat="40.0701241" lon="-105.2334602">
  <ele>1583.0</ele>
  <time>2026-08-28T17:50:11Z</time>
  <course>245.99</course>
  <speed>7.19</speed>
  <fix>3d</fix>
</trkpt>
<trkpt lat="40.0701183" lon="-105.2334778">
  <ele>1582.99</ele>
  <time>2026-08-28T17:50:11Z</time>
  <course>247.1</course>
  <speed>7.159231802365391</speed>
  <fix>3d</fix>
</trkpt>
<trkpt lat="40.0701241" lon="-105.2334602">
  <ele>1583.0</ele>
  <time>2026-08-28T17:50:11Z</time>
  <course>245.99</course>
  <speed>7.19</speed>
  <fix>3d</fix>
</trkpt>
<trkpt lat="40.0701157" lon="-105.2334856">
  <ele>1582.99</ele>
  <time>2026-08-28T17:50:11Z</time>
  <course>247.1</course>
  <speed>7.163274390947201</speed>
  <fix>3d</fix>
</trkpt>
<trkpt lat="40.0701189" lon="-105.2334757">
  <ele>1583.0</ele>
  <time>2026-08-28T17:50:11Z</time>
  <course>245.99</course>
  <speed>7.19</speed>
  <fix>3d</fix>
</trkpt>
<trkpt lat="40.0701131" lon="-105.2334933">
  <ele>1582.99</ele>
  <time>2026-08-28T17:50:11Z</time>
  <course>247.1</course>
  <speed>7.163274390947201</speed>
  <fix>3d</fix>
</trkpt>
<trkpt lat="40.0701189" lon="-105.2334757">
  <ele>1583.0</ele>
  <time>2026-08-28T17:50:11Z</time>
  <course>245.99</course>
  <speed>7.19</speed>
  <fix>3d</fix>
</trkpt>
<trkpt lat="40.0701104" lon="-105.2335011">
  <ele>1582.99</ele>
  <time>2026-08-28T17:50:11Z</time>
  <course>247.1</course>
  <speed>7.172419396549535</speed>
  <fix>3d</fix>
</trkpt>
<trkpt lat="40.0701136" lon="-105.2334912">
  <ele>1583.0</ele>
  <time>2026-08-28T17:50:11Z</time>
  <course>245.99</course>
  <speed>7.19</speed>
  <fix>3d</fix>
</trkpt>
<trkpt lat="40.0701077" lon="-105.2335089">
  <ele>1582.99</ele>
  <time>2026-08-28T17:50:11Z</time>
  <course>247.1</course>
  <speed>7.172419396549535</speed>
  <fix>3d</fix>
</trkpt>
<trkpt lat="40.0701136" lon="-105.2334912">
  <ele>1583.0</ele>
  <time>2026-08-28T17:50:11Z</time>
  <course>245.99</course>
  <speed>7.19</speed>
  <fix>3d</fix>
</trkpt>
<trkpt lat="40.0701051" lon="-105.2335167">
  <ele>1582.99</ele>
  <time>2026-08-28T17:50:11Z</time>
  <course>247.1</course>
  <speed>7.172419396549535</speed>
  <fix>3d</fix>
</trkpt>
<trkpt lat="40.0701083" lon="-105.2335066">
  <ele>1583.0</ele>
  <time>2026-08-28T17:50:11Z</time>
  <course>245.99</course>
  <speed>7.19</speed>
  <fix>3d</fix>
</trkpt>
<trkpt lat="40.0701024" lon="-105.2335245">
  <ele>1582.99</ele>
  <time>2026-08-28T17:50:11Z</time>
  <course>247.1</course>
  <speed>7.172419396549535</speed>
  <fix>3d</fix>
</trkpt>
<trkpt lat="40.0701083" lon="-105.2335066">
  <ele>1583.0</ele>
  <time>2026-08-28T17:50:11Z</time>
  <course>245.99</course>
  <speed>7.19</speed>
  <fix>3d</fix>
</trkpt>
<trkpt lat="40.0700998" lon="-105.2335322">
  <ele>1582.98</ele>
  <time>2026-08-28T17:50:11Z</time>
  <course>247.1</course>
  <speed>7.172419396549535</speed>
  <fix>3d</fix>
</trkpt>
<trkpt lat="40.0701031" lon="-105.233522">
  <ele>1583.0</ele>
  <time>2026-08-28T17:50:11Z</time>
  <course>245.99</course>
  <speed>7.19</speed>
  <fix>3d</fix>
</trkpt>
<trkpt lat="40.0700972" lon="-105.23354">
  <ele>1582.98</ele>
  <time>2026-08-28T17:50:11Z</time>
  <course>247.1</course>
  <speed>7.181566681442149</speed>
  <fix>3d</fix>
</trkpt>
<trkpt lat="40.0701031" lon="-105.233522">
  <ele>1583.0</ele>
  <time>2026-08-28T17:50:11Z</time>
  <course>245.99</course>
  <speed>7.19</speed>
  <fix>3d</fix>
</trkpt>
<trkpt lat="40.0700945" lon="-105.2335477">
  <ele>1582.98</ele>
  <time>2026-08-28T17:50:11Z</time>
  <course>247.1</course>
  <speed>7.181566681442149</speed>
  <fix>3d</fix>
</trkpt>
<trkpt lat="40.0700978" lon="-105.2335375">
  <ele>1583.0</ele>
  <time>2026-08-28T17:50:11Z</time>
  <course>245.99</course>
  <speed>7.19</speed>
  <fix>3d</fix>
</trkpt>
<trkpt lat="40.0700919" lon="-105.2335555">
  <ele>1582.98</ele>
  <time>2026-08-28T17:50:11Z</time>
  <course>247.1</course>
  <speed>7.181566681442149</speed>
  <fix>3d</fix>
</trkpt>
<trkpt lat="40.0700978" lon="-105.2335375">
  <ele>1583.0</ele>
  <time>2026-08-28T17:50:11Z</time>
  <course>245.99</course>
  <speed>7.19</speed>
  <fix>3d</fix>
</trkpt>
<trkpt lat="40.0700892" lon="-105.2335633">
  <ele>1582.98</ele>
  <time>2026-08-28T17:50:11Z</time>
  <course>247.1</course>
  <speed>7.181566681442149</speed>
  <fix>3d</fix>
</trkpt>
<trkpt lat="40.0700978" lon="-105.2335375">
  <ele>1583.0</ele>
  <time>2026-08-28T17:50:11Z</time>
  <course>245.99</course>
  <speed>7.19</speed>
  <fix>3d</fix>
</trkpt>
<trkpt lat="40.0700866" lon="-105.233571">
  <ele>1582.98</ele>
  <time>2026-08-28T17:50:11Z</time>
  <course>247.1</course>
  <speed>7.181566681442149</speed>
  <fix>3d</fix>
</trkpt>
<trkpt lat="40.0700925" lon="-105.2335529">
  <ele>1583.0</ele>
  <time>2026-08-28T17:50:11Z</time>
  <course>245.99</course>
  <speed>7.19</speed>
  <fix>3d</fix>
</trkpt>
<trkpt lat="40.070084" lon="-105.2335786">
  <ele>1582.99</ele>
  <time>2026-08-28T17:50:11Z</time>
  <course>247.09</course>
  <speed>7.181566681442149</speed>
  <fix>3d</fix>
</trkpt>
<trkpt lat="40.0700925" lon="-105.2335529">
  <ele>1583.0</ele>
  <time>2026-08-28T17:50:11Z</time>
  <course>245.99</course>
  <speed>7.19</speed>
  <fix>3d</fix>
</trkpt>
<trkpt lat="40.0700814" lon="-105.2335863">
  <ele>1582.99</ele>
  <time>2026-08-28T17:50:11Z</time>
  <course>247.09</course>
  <speed>7.172419396549535</speed>
  <fix>3d</fix>
</trkpt>
<trkpt lat="40.0700873" lon="-105.2335684">
  <ele>1583.0</ele>
  <time>2026-08-28T17:50:11Z</time>
  <course>245.99</course>
  <speed>7.19</speed>
  <fix>3d</fix>
</trkpt>
<trkpt lat="40.0700788" lon="-105.2335939">
  <ele>1582.99</ele>
  <time>2026-08-28T17:50:11Z</time>
  <course>247.09</course>
  <speed>7.172419396549535</speed>
  <fix>3d</fix>
</trkpt>
<trkpt lat="40.0700873" lon="-105.2335684">
  <ele>1583.0</ele>
  <time>2026-08-28T17:50:11Z</time>
  <course>245.99</course>
  <speed>7.19</speed>
  <fix>3d</fix>
</trkpt>
<trkpt lat="40.0700762" lon="-105.2336016">
  <ele>1583.0</ele>
  <time>2026-08-28T17:50:11Z</time>
  <course>247.09</course>
  <speed>7.172419396549535</speed>
  <fix>3d</fix>
</trkpt>
<trkpt lat="40.070082" lon="-105.2335839">
  <ele>1583.0</ele>
  <time>2026-08-28T17:50:11Z</time>
  <course>245.99</course>
  <speed>7.19</speed>
  <fix>3d</fix>
</trkpt>
<trkpt lat="40.0700735" lon="-105.2336093">
  <ele>1583.0</ele>
  <time>2026-08-28T17:50:11Z</time>
  <course>247.09</course>
  <speed>7.172419396549535</speed>
  <fix>3d</fix>
</trkpt>
<trkpt lat="40.0700767" lon="-105.2335993">
  <ele>1583.0</ele>
  <time>2026-08-28T17:50:11Z</time>
  <course>245.99</course>
  <speed>7.19</speed>
  <fix>3d</fix>
</trkpt>
<trkpt lat="40.0700709" lon="-105.233617">
  <ele>1583.0</ele>
  <time>2026-08-28T17:50:11Z</time>
  <course>247.09</course>
  <speed>7.172419396549535</speed>
  <fix>3d</fix>
</trkpt>
<trkpt lat="40.0700767" lon="-105.2335993">
  <ele>1583.0</ele>
  <time>2026-08-28T17:50:11Z</time>
  <course>245.99</course>
  <speed>7.19</speed>
  <fix>3d</fix>
</trkpt>
<trkpt lat="40.0700683" lon="-105.2336247">
  <ele>1583.0</ele>
  <time>2026-08-28T17:50:11Z</time>
  <course>247.09</course>
  <speed>7.172419396549535</speed>
  <fix>3d</fix>
</trkpt>
<trkpt lat="40.0700715" lon="-105.2336147">
  <ele>1583.0</ele>
  <time>2026-08-28T17:50:11Z</time>
  <course>245.99</course>
  <speed>7.19</speed>
  <fix>3d</fix>
</trkpt>
<trkpt lat="40.0700657" lon="-105.2336324">
  <ele>1583.0</ele>
  <time>2026-08-28T17:50:11Z</time>
  <course>247.09</course>
  <speed>7.172419396549535</speed>
  <fix>3d</fix>
</trkpt>
<trkpt lat="40.0700715" lon="-105.2336147">
  <ele>1583.0</ele>
  <time>2026-08-28T17:50:11Z</time>
  <course>245.99</course>
  <speed>7.19</speed>
  <fix>3d</fix>
</trkpt>
<trkpt lat="40.070063" lon="-105.2336401">
  <ele>1582.99</ele>
  <time>2026-08-28T17:50:11Z</time>
  <course>247.09</course>
  <speed>7.172419396549535</speed>
  <fix>3d</fix>
</trkpt>
<trkpt lat="40.0700662" lon="-105.2336301">
  <ele>1583.0</ele>
  <time>2026-08-28T17:50:11Z</time>
  <course>245.99</course>
  <speed>7.19</speed>
  <fix>3d</fix>
</trkpt>
<trkpt lat="40.0700604" lon="-105.2336479">
  <ele>1582.99</ele>
  <time>2026-08-28T17:50:11Z</time>
  <course>247.09</course>
  <speed>7.172419396549535</speed>
  <fix>3d</fix>
</trkpt>
<trkpt lat="40.0700662" lon="-105.2336301">
  <ele>1583.0</ele>
  <time>2026-08-28T17:50:11Z</time>
  <course>245.99</course>
  <speed>7.19</speed>
  <fix>3d</fix>
</trkpt>
<trkpt lat="40.0700577" lon="-105.2336556">
  <ele>1582.99</ele>
  <time>2026-08-28T17:50:11Z</time>
  <course>247.09</course>
  <speed>7.172419396549535</speed>
  <fix>3d</fix>
</trkpt>
<trkpt lat="40.070061" lon="-105.2336455">
  <ele>1583.0</ele>
  <time>2026-08-28T17:50:11Z</time>
  <course>245.99</course>
  <speed>7.19</speed>
  <fix>3d</fix>
</trkpt>
<trkpt lat="40.0700551" lon="-105.2336635">
  <ele>1582.98</ele>
  <time>2026-08-28T17:50:11Z</time>
  <course>247.09</course>
  <speed>7.172419396549535</speed>
  <fix>3d</fix>
</trkpt>
<trkpt lat="40.070061" lon="-105.2336455">
  <ele>1583.0</ele>
  <time>2026-08-28T17:50:11Z</time>
  <course>245.99</course>
  <speed>7.19</speed>
  <fix>3d</fix>
</trkpt>
<trkpt lat="40.0700524" lon="-105.2336712">
  <ele>1582.98</ele>
  <time>2026-08-28T17:50:11Z</time>
  <course>247.09</course>
  <speed>7.172419396549535</speed>
  <fix>3d</fix>
</trkpt>
<trkpt lat="40.0700558" lon="-105.233661">
  <ele>1583.0</ele>
  <time>2026-08-28T17:50:11Z</time>
  <course>245.99</course>
  <speed>7.19</speed>
  <fix>3d</fix>
</trkpt>
<trkpt lat="40.0700498" lon="-105.233679">
  <ele>1582.98</ele>
  <time>2026-08-28T17:50:11Z</time>
  <course>247.09</course>
  <speed>7.181566681442149</speed>
  <fix>3d</fix>
</trkpt>
<trkpt lat="40.0700558" lon="-105.233661">
  <ele>1583.0</ele>
  <time>2026-08-28T17:50:11Z</time>
  <course>245.99</course>
  <speed>7.19</speed>
  <fix>3d</fix>
</trkpt>
<trkpt lat="40.0700471" lon="-105.2336867">
  <ele>1582.98</ele>
  <time>2026-08-28T17:50:11Z</time>
  <course>247.09</course>
  <speed>7.181566681442149</speed>
  <fix>3d</fix>
</trkpt>
<trkpt lat="40.0700505" lon="-105.2336765">
  <ele>1583.0</ele>
  <time>2026-08-28T17:50:11Z</time>
  <course>245.99</course>
  <speed>7.19</speed>
  <fix>3d</fix>
</trkpt>
<trkpt lat="40.0700445" lon="-105.2336945">
  <ele>1582.97</ele>
  <time>2026-08-28T17:50:11Z</time>
  <course>247.09</course>
  <speed>7.181566681442149</speed>
  <fix>3d</fix>
</trkpt>
<trkpt lat="40.0700505" lon="-105.2336765">
  <ele>1583.0</ele>
  <time>2026-08-28T17:50:11Z</time>
  <course>245.99</course>
  <speed>7.19</speed>
  <fix>3d</fix>
</trkpt>
<trkpt lat="40.0700419" lon="-105.2337022">
  <ele>1582.97</ele>
  <time>2026-08-28T17:50:11Z</time>
  <course>247.09</course>
  <speed>7.181566681442149</speed>
  <fix>3d</fix>
</trkpt>
<trkpt lat="40.0700452" lon="-105.2336919">
  <ele>1583.0</ele>
  <time>2026-08-28T17:50:11Z</time>
  <course>245.99</course>
  <speed>7.19</speed>
  <fix>3d</fix>
</trkpt>
<trkpt lat="40.0700392" lon="-105.23371">
  <ele>1582.97</ele>
  <time>2026-08-28T17:50:11Z</time>
  <course>247.09</course>
  <speed>7.181566681442149</speed>
  <fix>3d</fix>
</trkpt>
<trkpt lat="40.0700452" lon="-105.2336919">
  <ele>1583.0</ele>
  <time>2026-08-28T17:50:11Z</time>
  <course>245.99</course>
  <speed>7.19</speed>
  <fix>3d</fix>
</trkpt>
<trkpt lat="40.0700366" lon="-105.2337178">
  <ele>1582.97</ele>
  <time>2026-08-28T17:50:11Z</time>
  <course>247.09</course>
  <speed>7.181566681442149</speed>
  <fix>3d</fix>
</trkpt>
<trkpt lat="40.0700452" lon="-105.2336919">
  <ele>1583.0</ele>
  <time>2026-08-28T17:50:11Z</time>
  <course>245.99</course>
  <speed>7.19</speed>
  <fix>3d</fix>
</trkpt>
<trkpt lat="40.070034" lon="-105.2337254">
  <ele>1582.97</ele>
  <time>2026-08-28T17:50:11Z</time>
  <course>247.09</course>
  <speed>7.181566681442149</speed>
  <fix>3d</fix>
</trkpt>
<trkpt lat="40.07004" lon="-105.2337073">
  <ele>1583.0</ele>
  <time>2026-08-28T17:50:11Z</time>
  <course>245.99</course>
  <speed>7.19</speed>
  <fix>3d</fix>
</trkpt>
<trkpt lat="40.0700314" lon="-105.2337331">
  <ele>1582.97</ele>
  <time>2026-08-28T17:50:11Z</time>
  <course>247.09</course>
  <speed>7.181566681442149</speed>
  <fix>3d</fix>
</trkpt>
<trkpt lat="40.07004" lon="-105.2337073">
  <ele>1583.0</ele>
  <time>2026-08-28T17:50:11Z</time>
  <course>245.99</course>
  <speed>7.19</speed>
  <fix>3d</fix>
</trkpt>
<trkpt lat="40.0700288" lon="-105.2337408">
  <ele>1582.97</ele>
  <time>2026-08-28T17:50:11Z</time>
  <course>247.09</course>
  <speed>7.172419396549535</speed>
  <fix>3d</fix>
</trkpt>
<trkpt lat="40.0700347" lon="-105.2337228">
  <ele>1583.0</ele>
  <time>2026-08-28T17:50:11Z</time>
  <course>245.99</course>
  <speed>7.19</speed>
  <fix>3d</fix>
</trkpt>
<trkpt lat="40.0700262" lon="-105.2337484">
  <ele>1582.98</ele>
  <time>2026-08-28T17:50:11Z</time>
  <course>247.08</course>
  <speed>7.172419396549535</speed>
  <fix>3d</fix>
</trkpt>
<trkpt lat="40.0700347" lon="-105.2337228">
  <ele>1583.0</ele>
  <time>2026-08-28T17:50:11Z</time>
  <course>245.99</course>
  <speed>7.19</speed>
  <fix>3d</fix>
</trkpt>
<trkpt lat="40.0700236" lon="-105.233756">
  <ele>1582.98</ele>
  <time>2026-08-28T17:50:11Z</time>
  <course>247.08</course>
  <speed>7.172419396549535</speed>
  <fix>3d</fix>
</trkpt>
<trkpt lat="40.0700294" lon="-105.2337383">
  <ele>1583.0</ele>
  <time>2026-08-28T17:50:11Z</time>
  <course>245.99</course>
  <speed>7.19</speed>
  <fix>3d</fix>
</trkpt>
<trkpt lat="40.0700209" lon="-105.2337637">
  <ele>1582.99</ele>
  <time>2026-08-28T17:50:11Z</time>
  <course>247.08</course>
  <speed>7.172419396549535</speed>
  <fix>3d</fix>
</trkpt>
<trkpt lat="40.0700242" lon="-105.2337537">
  <ele>1583.0</ele>
  <time>2026-08-28T17:50:11Z</time>
  <course>245.99</course>
  <speed>7.19</speed>
  <fix>3d</fix>
</trkpt>
<trkpt lat="40.0700183" lon="-105.2337714">
  <ele>1582.99</ele>
  <time>2026-08-28T17:50:11Z</time>
  <course>247.08</course>
  <speed>7.172419396549535</speed>
  <fix>3d</fix>
</trkpt>
<trkpt lat="40.0700242" lon="-105.2337537">
  <ele>1583.0</ele>
  <time>2026-08-28T17:50:11Z</time>
  <course>245.99</course>
  <speed>7.19</speed>
  <fix>3d</fix>
</trkpt>
<trkpt lat="40.0700157" lon="-105.2337791">
  <ele>1582.99</ele>
  <time>2026-08-28T17:50:11Z</time>
  <course>247.08</course>
  <speed>7.172419396549535</speed>
  <fix>3d</fix>
</trkpt>
<trkpt lat="40.0700189" lon="-105.2337691">
  <ele>1583.0</ele>
  <time>2026-08-28T17:50:11Z</time>
  <course>245.99</course>
  <speed>7.19</speed>
  <fix>3d</fix>
</trkpt>
<trkpt lat="40.070013" lon="-105.2337869">
  <ele>1583.0</ele>
  <time>2026-08-28T17:50:11Z</time>
  <course>247.08</course>
  <speed>7.172419396549535</speed>
  <fix>3d</fix>
</trkpt>
<trkpt lat="40.0700189" lon="-105.2337691">
  <ele>1583.0</ele>
  <time>2026-08-28T17:50:11Z</time>
  <course>245.99</course>
  <speed>7.19</speed>
  <fix>3d</fix>
</trkpt>
<trkpt lat="40.0700104" lon="-105.2337946">
  <ele>1583.0</ele>
  <time>2026-08-28T17:50:11Z</time>
  <course>247.08</course>
  <speed>7.172419396549535</speed>
  <fix>3d</fix>
</trkpt>
<trkpt lat="40.0700136" lon="-105.2337845">
  <ele>1583.0</ele>
  <time>2026-08-28T17:50:11Z</time>
  <course>245.99</course>
  <speed>7.19</speed>
  <fix>3d</fix>
</trkpt>
<trkpt lat="40.0700078" lon="-105.2338023">
  <ele>1583.01</ele>
  <time>2026-08-28T17:50:11Z</time>
  <course>247.08</course>
  <speed>7.172419396549535</speed>
  <fix>3d</fix>
</trkpt>
<trkpt lat="40.0700136" lon="-105.2337845">
  <ele>1583.0</ele>
  <time>2026-08-28T17:50:11Z</time>
  <course>245.99</course>
  <speed>7.19</speed>
  <fix>3d</fix>
</trkpt>
<trkpt lat="40.0700052" lon="-105.23381">
  <ele>1583.01</ele>
  <time>2026-08-28T17:50:11Z</time>
  <course>247.08</course>
  <speed>7.172419396549535</speed>
  <fix>3d</fix>
</trkpt>
<trkpt lat="40.0700084" lon="-105.2338">
  <ele>1583.0</ele>
  <time>2026-08-28T17:50:11Z</time>
  <course>245.99</course>
  <speed>7.19</speed>
  <fix>3d</fix>
</trkpt>
<trkpt lat="40.0700025" lon="-105.2338178">
  <ele>1583.01</ele>
  <time>2026-08-28T17:50:11Z</time>
  <course>247.08</course>
  <speed>7.172419396549535</speed>
  <fix>3d</fix>
</trkpt>
<trkpt lat="40.0700084" lon="-105.2338">
  <ele>1583.0</ele>
  <time>2026-08-28T17:50:11Z</time>
  <course>245.99</course>
  <speed>7.19</speed>
  <fix>3d</fix>
</trkpt>
<trkpt lat="40.0699998" lon="-105.2338256">
  <ele>1583.0</ele>
  <time>2026-08-28T17:50:11Z</time>
  <course>247.08</course>
  <speed>7.172419396549535</speed>
  <fix>3d</fix>
</trkpt>
<trkpt lat="40.0700031" lon="-105.2338154">
  <ele>1583.0</ele>
  <time>2026-08-28T17:50:11Z</time>
  <course>245.99</course>
  <speed>7.19</speed>
  <fix>3d</fix>
</trkpt>
<trkpt lat="40.0699972" lon="-105.2338334">
  <ele>1583.01</ele>
  <time>2026-08-28T17:50:11Z</time>
  <course>247.08</course>
  <speed>7.172419396549535</speed>
  <fix>3d</fix>
</trkpt>
<trkpt lat="40.0700031" lon="-105.2338154">
  <ele>1583.0</ele>
  <time>2026-08-28T17:50:11Z</time>
  <course>245.99</course>
  <speed>7.19</speed>
  <fix>3d</fix>
</trkpt>
<trkpt lat="40.0699946" lon="-105.2338411">
  <ele>1583.01</ele>
  <time>2026-08-28T17:50:11Z</time>
  <course>247.08</course>
  <speed>7.181566681442149</speed>
  <fix>3d</fix>
</trkpt>
<trkpt lat="40.0699979" lon="-105.2338308">
  <ele>1583.0</ele>
  <time>2026-08-28T17:50:11Z</time>
  <course>245.99</course>
  <speed>7.19</speed>
  <fix>3d</fix>
</trkpt>
<trkpt lat="40.0699919" lon="-105.2338489">
  <ele>1583.01</ele>
  <time>2026-08-28T17:50:11Z</time>
  <course>247.08</course>
  <speed>7.181566681442149</speed>
  <fix>3d</fix>
</trkpt>
<trkpt lat="40.0699979" lon="-105.2338308">
  <ele>1583.0</ele>
  <time>2026-08-28T17:50:11Z</time>
  <course>245.99</course>
  <speed>7.19</speed>
  <fix>3d</fix>
</trkpt>
<trkpt lat="40.0699893" lon="-105.2338567">
  <ele>1583.02</ele>
  <time>2026-08-28T17:50:11Z</time>
  <course>247.08</course>
  <speed>7.181566681442149</speed>
  <fix>3d</fix>
</trkpt>
<trkpt lat="40.0699926" lon="-105.2338463">
  <ele>1583.0</ele>
  <time>2026-08-28T17:50:11Z</time>
  <course>245.99</course>
  <speed>7.19</speed>
  <fix>3d</fix>
</trkpt>
<trkpt lat="40.0699866" lon="-105.2338644">
  <ele>1583.02</ele>
  <time>2026-08-28T17:50:11Z</time>
  <course>247.08</course>
  <speed>7.181566681442149</speed>
  <fix>3d</fix>
</trkpt>
<trkpt lat="40.0699926" lon="-105.2338463">
  <ele>1583.0</ele>
  <time>2026-08-28T17:50:11Z</time>
  <course>245.99</course>
  <speed>7.19</speed>
  <fix>3d</fix>
</trkpt>
<trkpt lat="40.069984" lon="-105.2338722">
  <ele>1583.02</ele>
  <time>2026-08-28T17:50:11Z</time>
  <course>247.08</course>
  <speed>7.181566681442149</speed>
  <fix>3d</fix>
</trkpt>
<trkpt lat="40.0699926" lon="-105.2338463">
  <ele>1583.0</ele>
  <time>2026-08-28T17:50:11Z</time>
  <course>245.99</course>
  <speed>7.19</speed>
  <fix>3d</fix>
</trkpt>
<trkpt lat="40.0699814" lon="-105.2338798">
  <ele>1583.02</ele>
  <time>2026-08-28T17:50:11Z</time>
  <course>247.08</course>
  <speed>7.181566681442149</speed>
  <fix>3d</fix>
</trkpt>
<trkpt lat="40.0699873" lon="-105.2338617">
  <ele>1583.0</ele>
  <time>2026-08-28T17:50:11Z</time>
  <course>245.99</course>
  <speed>7.19</speed>
  <fix>3d</fix>
</trkpt>
<trkpt lat="40.0699788" lon="-105.2338875">
  <ele>1583.02</ele>
  <time>2026-08-28T17:50:11Z</time>
  <course>247.08</course>
  <speed>7.181566681442149</speed>
  <fix>3d</fix>
</trkpt>
<trkpt lat="40.0699873" lon="-105.2338617">
  <ele>1583.0</ele>
  <time>2026-08-28T17:50:11Z</time>
  <course>245.99</course>
  <speed>7.19</speed>
  <fix>3d</fix>
</trkpt>
<trkpt lat="40.0699761" lon="-105.2338952">
  <ele>1583.02</ele>
  <time>2026-08-28T17:50:11Z</time>
  <course>247.08</course>
  <speed>7.172419396549535</speed>
  <fix>3d</fix>
</trkpt>
<trkpt lat="40.0699821" lon="-105.2338772">
  <ele>1583.0</ele>
  <time>2026-08-28T17:50:11Z</time>
  <course>245.99</course>
  <speed>7.19</speed>
  <fix>3d</fix>
</trkpt>
<trkpt lat="40.0699735" lon="-105.2339028">
  <ele>1583.02</ele>
  <time>2026-08-28T17:50:11Z</time>
  <course>247.08</course>
  <speed>7.172419396549535</speed>
  <fix>3d</fix>
</trkpt>
<trkpt lat="40.0699821" lon="-105.2338772">
  <ele>1583.0</ele>
  <time>2026-08-28T17:50:11Z</time>
  <course>245.99</course>
  <speed>7.19</speed>
  <fix>3d</fix>
</trkpt>
<trkpt lat="40.0699709" lon="-105.2339104">
  <ele>1583.01</ele>
  <time>2026-08-28T17:50:11Z</time>
  <course>247.08</course>
  <speed>7.172419396549535</speed>
  <fix>3d</fix>
</trkpt>
<trkpt lat="40.0699768" lon="-105.2338927">
  <ele>1583.0</ele>
  <time>2026-08-28T17:50:11Z</time>
  <course>245.99</course>
  <speed>7.19</speed>
  <fix>3d</fix>
</trkpt>
<trkpt lat="40.0699683" lon="-105.2339181">
  <ele>1583.01</ele>
  <time>2026-08-28T17:50:11Z</time>
  <course>247.08</course>
  <speed>7.159231802365391</speed>
  <fix>3d</fix>
</trkpt>
<trkpt lat="40.0699768" lon="-105.2338927">
  <ele>1583.0</ele>
  <time>2026-08-28T17:50:11Z</time>
  <course>245.99</course>
  <speed>7.19</speed>
  <fix>3d</fix>
</trkpt>
<trkpt lat="40.0699657" lon="-105.2339258">
  <ele>1583.01</ele>
  <time>2026-08-28T17:50:11Z</time>
  <course>247.08</course>
  <speed>7.159231802365391</speed>
  <fix>3d</fix>
</trkpt>
<trkpt lat="40.0699716" lon="-105.2339081">
  <ele>1583.0</ele>
  <time>2026-08-28T17:50:11Z</time>
  <course>245.99</course>
  <speed>7.19</speed>
  <fix>3d</fix>
</trkpt>
<trkpt lat="40.0699631" lon="-105.2339334">
  <ele>1583.0</ele>
  <time>2026-08-28T17:50:11Z</time>
  <course>247.08</course>
  <speed>7.159231802365391</speed>
  <fix>3d</fix>
</trkpt>
<trkpt lat="40.0699663" lon="-105.2339236">
  <ele>1583.0</ele>
  <time>2026-08-28T17:50:11Z</time>
  <course>245.99</course>
  <speed>7.19</speed>
  <fix>3d</fix>
</trkpt>
<trkpt lat="40.0699605" lon="-105.2339411">
  <ele>1583.0</ele>
  <time>2026-08-28T17:50:11Z</time>
  <course>247.08</course>
  <speed>7.159231802365391</speed>
  <fix>3d</fix>
</trkpt>
<trkpt lat="40.0699663" lon="-105.2339236">
  <ele>1583.0</ele>
  <time>2026-08-28T17:50:11Z</time>
  <course>245.99</course>
  <speed>7.19</speed>
  <fix>3d</fix>
</trkpt>
<trkpt lat="40.0699579" lon="-105.2339488">
  <ele>1583.0</ele>
  <time>2026-08-28T17:50:11Z</time>
  <course>247.08</course>
  <speed>7.159231802365391</speed>
  <fix>3d</fix>
</trkpt>
<trkpt lat="40.069961" lon="-105.2339389">
  <ele>1583.0</ele>
  <time>2026-08-28T17:50:11Z</time>
  <course>245.99</course>
  <speed>7.19</speed>
  <fix>3d</fix>
</trkpt>
<trkpt lat="40.0699553" lon="-105.2339565">
  <ele>1582.99</ele>
  <time>2026-08-28T17:50:11Z</time>
  <course>247.08</course>
  <speed>7.159231802365391</speed>
  <fix>3d</fix>
</trkpt>
<trkpt lat="40.069961" lon="-105.2339389">
  <ele>1583.0</ele>
  <time>2026-08-28T17:50:11Z</time>
  <course>245.99</course>
  <speed>7.19</speed>
  <fix>3d</fix>
</trkpt>
<trkpt lat="40.0699526" lon="-105.2339642">
  <ele>1582.99</ele>
  <time>2026-08-28T17:50:11Z</time>
  <course>247.07</course>
  <speed>7.159231802365391</speed>
  <fix>3d</fix>
</trkpt>
<trkpt lat="40.0699558" lon="-105.2339544">
  <ele>1583.0</ele>
  <time>2026-08-28T17:50:11Z</time>
  <course>245.99</course>
  <speed>7.19</speed>
  <fix>3d</fix>
</trkpt>
<trkpt lat="40.06995" lon="-105.233972">
  <ele>1582.99</ele>
  <time>2026-08-28T17:50:11Z</time>
  <course>247.07</course>
  <speed>7.159231802365391</speed>
  <fix>3d</fix>
</trkpt>
<trkpt lat="40.0699558" lon="-105.2339544">
  <ele>1583.0</ele>
  <time>2026-08-28T17:50:11Z</time>
  <course>245.99</course>
  <speed>7.19</speed>
  <fix>3d</fix>
</trkpt>
<trkpt lat="40.0699473" lon="-105.2339798">
  <ele>1582.99</ele>
  <time>2026-08-28T17:50:11Z</time>
  <course>247.07</course>
  <speed>7.172419396549535</speed>
  <fix>3d</fix>
</trkpt>
<trkpt lat="40.0699505" lon="-105.2339698">
  <ele>1583.0</ele>
  <time>2026-08-28T17:50:11Z</time>
  <course>245.99</course>
  <speed>7.19</speed>
  <fix>3d</fix>
</trkpt>
<trkpt lat="40.0699447" lon="-105.2339876">
  <ele>1582.99</ele>
  <time>2026-08-28T17:50:11Z</time>
  <course>247.07</course>
  <speed>7.172419396549535</speed>
  <fix>3d</fix>
</trkpt>
<trkpt lat="40.0699505" lon="-105.2339698">
  <ele>1583.0</ele>
  <time>2026-08-28T17:50:11Z</time>
  <course>245.99</course>
  <speed>7.19</speed>
  <fix>3d</fix>
</trkpt>
<trkpt lat="40.069942" lon="-105.2339954">
  <ele>1583.0</ele>
  <time>2026-08-28T17:50:11Z</time>
  <course>247.07</course>
  <speed>7.172419396549535</speed>
  <fix>3d</fix>
</trkpt>
<trkpt lat="40.0699453" lon="-105.2339853">
  <ele>1583.0</ele>
  <time>2026-08-28T17:50:11Z</time>
  <course>245.99</course>
  <speed>7.19</speed>
  <fix>3d</fix>
</trkpt>
<trkpt lat="40.0699394" lon="-105.2340031">
  <ele>1583.0</ele>
  <time>2026-08-28T17:50:11Z</time>
  <course>247.07</course>
  <speed>7.172419396549535</speed>
  <fix>3d</fix>
</trkpt>
<trkpt lat="40.0699453" lon="-105.2339853">
  <ele>1583.0</ele>
  <time>2026-08-28T17:50:11Z</time>
  <course>245.99</course>
  <speed>7.19</speed>
  <fix>3d</fix>
</trkpt>
<trkpt lat="40.0699367" lon="-105.2340109">
  <ele>1583.0</ele>
  <time>2026-08-28T17:50:11Z</time>
  <course>247.07</course>
  <speed>7.172419396549535</speed>
  <fix>3d</fix>
</trkpt>
<trkpt lat="40.06994" lon="-105.2340007">
  <ele>1583.0</ele>
  <time>2026-08-28T17:50:11Z</time>
  <course>245.99</course>
  <speed>7.19</speed>
  <fix>3d</fix>
</trkpt>
<trkpt lat="40.0699341" lon="-105.2340187">
  <ele>1583.01</ele>
  <time>2026-08-28T17:50:11Z</time>
  <course>247.07</course>
  <speed>7.181566681442149</speed>
  <fix>3d</fix>
</trkpt>
<trkpt lat="40.06994" lon="-105.2340007">
  <ele>1583.0</ele>
  <time>2026-08-28T17:50:11Z</time>
  <course>245.99</course>
  <speed>7.19</speed>
  <fix>3d</fix>
</trkpt>
<trkpt lat="40.0699314" lon="-105.2340264">
  <ele>1583.01</ele>
  <time>2026-08-28T17:50:11Z</time>
  <course>247.07</course>
  <speed>7.181566681442149</speed>
  <fix>3d</fix>
</trkpt>
<trkpt lat="40.0699348" lon="-105.2340162">
  <ele>1583.0</ele>
  <time>2026-08-28T17:50:11Z</time>
  <course>245.99</course>
  <speed>7.19</speed>
  <fix>3d</fix>
</trkpt>
<trkpt lat="40.0699288" lon="-105.2340342">
  <ele>1583.01</ele>
  <time>2026-08-28T17:50:11Z</time>
  <course>247.07</course>
  <speed>7.181566681442149</speed>
  <fix>3d</fix>
</trkpt>
<trkpt lat="40.0699348" lon="-105.2340162">
  <ele>1583.0</ele>
  <time>2026-08-28T17:50:11Z</time>
  <course>245.99</course>
  <speed>7.19</speed>
  <fix>3d</fix>
</trkpt>
<trkpt lat="40.0699262" lon="-105.2340419">
  <ele>1583.01</ele>
  <time>2026-08-28T17:50:11Z</time>
  <course>247.07</course>
  <speed>7.181566681442149</speed>
  <fix>3d</fix>
</trkpt>
<trkpt lat="40.0699348" lon="-105.2340162">
  <ele>1583.0</ele>
  <time>2026-08-28T17:50:11Z</time>
  <course>245.99</course>
  <speed>7.19</speed>
  <fix>3d</fix>
</trkpt>
<trkpt lat="40.0699235" lon="-105.2340496">
  <ele>1583.01</ele>
  <time>2026-08-28T17:50:11Z</time>
  <course>247.07</course>
  <speed>7.181566681442149</speed>
  <fix>3d</fix>
</trkpt>
<trkpt lat="40.0699295" lon="-105.2340316">
  <ele>1583.0</ele>
  <time>2026-08-28T17:50:11Z</time>
  <course>245.99</course>
  <speed>7.19</speed>
  <fix>3d</fix>
</trkpt>
<trkpt lat="40.0699209" lon="-105.2340573">
  <ele>1583.01</ele>
  <time>2026-08-28T17:50:11Z</time>
  <course>247.07</course>
  <speed>7.181566681442149</speed>
  <fix>3d</fix>
</trkpt>
<trkpt lat="40.0699295" lon="-105.2340316">
  <ele>1583.0</ele>
  <time>2026-08-28T17:50:11Z</time>
  <course>245.99</course>
  <speed>7.19</speed>
  <fix>3d</fix>
</trkpt>
<trkpt lat="40.0699183" lon="-105.234065">
  <ele>1583.01</ele>
  <time>2026-08-28T17:50:11Z</time>
  <course>247.07</course>
  <speed>7.172419396549535</speed>
  <fix>3d</fix>
</trkpt>
<trkpt lat="40.0699242" lon="-105.2340471">
  <ele>1583.0</ele>
  <time>2026-08-28T17:50:11Z</time>
  <course>245.99</course>
  <speed>7.19</speed>
  <fix>3d</fix>
</trkpt>
<trkpt lat="40.0699157" lon="-105.2340726">
  <ele>1583.01</ele>
  <time>2026-08-28T17:50:11Z</time>
  <course>247.07</course>
  <speed>7.172419396549535</speed>
  <fix>3d</fix>
</trkpt>
<trkpt lat="40.0699242" lon="-105.2340471">
  <ele>1583.0</ele>
  <time>2026-08-28T17:50:11Z</time>
  <course>245.99</course>
  <speed>7.19</speed>
  <fix>3d</fix>
</trkpt>
<trkpt lat="40.0699131" lon="-105.2340803">
  <ele>1583.01</ele>
  <time>2026-08-28T17:50:11Z</time>
  <course>247.07</course>
  <speed>7.172419396549535</speed>
  <fix>3d</fix>
</trkpt>
<trkpt lat="40.069919" lon="-105.2340625">
  <ele>1583.0</ele>
  <time>2026-08-28T17:50:11Z</time>
  <course>245.99</course>
  <speed>7.19</speed>
  <fix>3d</fix>
</trkpt>
<trkpt lat="40.0699105" lon="-105.234088">
  <ele>1583.01</ele>
  <time>2026-08-28T17:50:11Z</time>
  <course>247.07</course>
  <speed>7.168381965269429</speed>
  <fix>3d</fix>
</trkpt>
<trkpt lat="40.0699137" lon="-105.234078">
  <ele>1583.0</ele>
  <time>2026-08-28T17:50:11Z</time>
  <course>245.99</course>
  <speed>7.19</speed>
  <fix>3d</fix>
</trkpt>
<trkpt lat="40.0699079" lon="-105.2340957">
  <ele>1583.01</ele>
  <time>2026-08-28T17:50:11Z</time>
  <course>247.07</course>
  <speed>7.168381965269429</speed>
  <fix>3d</fix>
</trkpt>
<trkpt lat="40.0699137" lon="-105.234078">
  <ele>1583.0</ele>
  <time>2026-08-28T17:50:11Z</time>
  <course>245.99</course>
  <speed>7.19</speed>
  <fix>3d</fix>
</trkpt>
<trkpt lat="40.0699052" lon="-105.2341034">
  <ele>1583.01</ele>
  <time>2026-08-28T17:50:11Z</time>
  <course>247.07</course>
  <speed>7.168381965269429</speed>
  <fix>3d</fix>
</trkpt>
<trkpt lat="40.0699084" lon="-105.2340933">
  <ele>1583.0</ele>
  <time>2026-08-28T17:50:11Z</time>
  <course>245.99</course>
  <speed>7.19</speed>
  <fix>3d</fix>
</trkpt>
<trkpt lat="40.0699026" lon="-105.2341111">
  <ele>1583.01</ele>
  <time>2026-08-28T17:50:11Z</time>
  <course>247.07</course>
  <speed>7.172419396549535</speed>
  <fix>3d</fix>
</trkpt>
<trkpt lat="40.0699084" lon="-105.2340933">
  <ele>1583.0</ele>
  <time>2026-08-28T17:50:11Z</time>
  <course>245.99</course>
  <speed>7.19</speed>
  <fix>3d</fix>
</trkpt>
<trkpt lat="40.0699" lon="-105.2341188">
  <ele>1583.01</ele>
  <time>2026-08-28T17:50:11Z</time>
  <course>247.07</course>
  <speed>7.172419396549535</speed>
  <fix>3d</fix>
</trkpt>
<trkpt lat="40.0699032" lon="-105.2341088">
  <ele>1583.0</ele>
  <time>2026-08-28T17:50:11Z</time>
  <course>245.99</course>
  <speed>7.19</speed>
  <fix>3d</fix>
</trkpt>
<trkpt lat="40.0698973" lon="-105.2341265">
  <ele>1583.01</ele>
  <time>2026-08-28T17:50:11Z</time>
  <course>247.07</course>
  <speed>7.172419396549535</speed>
  <fix>3d</fix>
</trkpt>
<trkpt lat="40.0699032" lon="-105.2341088">
  <ele>1583.0</ele>
  <time>2026-08-28T17:50:11Z</time>
  <course>245.99</course>
  <speed>7.19</speed>
  <fix>3d</fix>
</trkpt>
<trkpt lat="40.0698947" lon="-105.2341343">
  <ele>1583.01</ele>
  <time>2026-08-28T17:50:11Z</time>
  <course>247.07</course>
  <speed>7.172419396549535</speed>
  <fix>3d</fix>
</trkpt>
<trkpt lat="40.0698979" lon="-105.2341242">
  <ele>1583.0</ele>
  <time>2026-08-28T17:50:11Z</time>
  <course>245.99</course>
  <speed>7.19</speed>
  <fix>3d</fix>
</trkpt>
<trkpt lat="40.069892" lon="-105.2341421">
  <ele>1583.0</ele>
  <time>2026-08-28T17:50:11Z</time>
  <course>247.07</course>
  <speed>7.172419396549535</speed>
  <fix>3d</fix>
</trkpt>
<trkpt lat="40.0698979" lon="-105.2341242">
  <ele>1583.0</ele>
  <time>2026-08-28T17:50:11Z</time>
  <course>245.99</course>
  <speed>7.19</speed>
  <fix>3d</fix>
</trkpt>
<trkpt lat="40.0698894" lon="-105.2341499">
  <ele>1583.01</ele>
  <time>2026-08-28T17:50:11Z</time>
  <course>247.07</course>
  <speed>7.172419396549535</speed>
  <fix>3d</fix>
</trkpt>
<trkpt lat="40.0698926" lon="-105.2341396">
  <ele>1583.0</ele>
  <time>2026-08-28T17:50:11Z</time>
  <course>245.99</course>
  <speed>7.19</speed>
  <fix>3d</fix>
</trkpt>
<trkpt lat="40.0698867" lon="-105.2341576">
  <ele>1583.0</ele>
  <time>2026-08-28T17:50:11Z</time>
  <course>247.07</course>
  <speed>7.172419396549535</speed>
  <fix>3d</fix>
</trkpt>
<trkpt lat="40.0698926" lon="-105.2341396">
  <ele>1583.0</ele>
  <time>2026-08-28T17:50:11Z</time>
  <course>245.99</course>
  <speed>7.19</speed>
  <fix>3d</fix>
</trkpt>
<trkpt lat="40.0698841" lon="-105.2341654">
  <ele>1583.0</ele>
  <time>2026-08-28T17:50:11Z</time>
  <course>247.07</course>
  <speed>7.181566681442149</speed>
  <fix>3d</fix>
</trkpt>
<trkpt lat="40.0698874" lon="-105.2341551">
  <ele>1583.0</ele>
  <time>2026-08-28T17:50:11Z</time>
  <course>245.99</course>
  <speed>7.19</speed>
  <fix>3d</fix>
</trkpt>
<trkpt lat="40.0698814" lon="-105.2341731">
  <ele>1583.0</ele>
  <time>2026-08-28T17:50:11Z</time>
  <course>247.07</course>
  <speed>7.181566681442149</speed>
  <fix>3d</fix>
</trkpt>
<trkpt lat="40.0698874" lon="-105.2341551">
  <ele>1583.0</ele>
  <time>2026-08-28T17:50:11Z</time>
  <course>245.99</course>
  <speed>7.19</speed>
  <fix>3d</fix>
</trkpt>
<trkpt lat="40.0698788" lon="-105.2341809">
  <ele>1583.0</ele>
  <time>2026-08-28T17:50:11Z</time>
  <course>247.07</course>
  <speed>7.181566681442149</speed>
  <fix>3d</fix>
</trkpt>
<trkpt lat="40.0698821" lon="-105.2341706">
  <ele>1583.0</ele>
  <time>2026-08-28T17:50:11Z</time>
  <course>245.99</course>
  <speed>7.19</speed>
  <fix>3d</fix>
</trkpt>
<trkpt lat="40.0698762" lon="-105.2341887">
  <ele>1583.0</ele>
  <time>2026-08-28T17:50:11Z</time>
  <course>247.07</course>
  <speed>7.181566681442149</speed>
  <fix>3d</fix>
</trkpt>
<trkpt lat="40.0698821" lon="-105.2341706">
  <ele>1583.0</ele>
  <time>2026-08-28T17:50:11Z</time>
  <course>245.99</course>
  <speed>7.19</speed>
  <fix>3d</fix>
</trkpt>
<trkpt lat="40.0698735" lon="-105.2341964">
  <ele>1582.99</ele>
  <time>2026-08-28T17:50:11Z</time>
  <course>247.06</course>
  <speed>7.181566681442149</speed>
  <fix>3d</fix>
</trkpt>
<trkpt lat="40.0698821" lon="-105.2341706">
  <ele>1583.0</ele>
  <time>2026-08-28T17:50:11Z</time>
  <course>245.99</course>
  <speed>7.19</speed>
  <fix>3d</fix>
</trkpt>
<trkpt lat="40.0698709" lon="-105.2342041">
  <ele>1582.99</ele>
  <time>2026-08-28T17:50:11Z</time>
  <course>247.06</course>
  <speed>7.181566681442149</speed>
  <fix>3d</fix>
</trkpt>
<trkpt lat="40.0698769" lon="-105.234186">
  <ele>1583.0</ele>
  <time>2026-08-28T17:50:11Z</time>
  <course>245.99</course>
  <speed>7.19</speed>
  <fix>3d</fix>
</trkpt>
<trkpt lat="40.0698683" lon="-105.2342118">
  <ele>1582.99</ele>
  <time>2026-08-28T17:50:11Z</time>
  <course>247.06</course>
  <speed>7.181566681442149</speed>
  <fix>3d</fix>
</trkpt>
<trkpt lat="40.0698769" lon="-105.234186">
  <ele>1583.0</ele>
  <time>2026-08-28T17:50:11Z</time>
  <course>245.99</course>
  <speed>7.19</speed>
  <fix>3d</fix>
</trkpt>
<trkpt lat="40.0698657" lon="-105.2342194">
  <ele>1582.99</ele>
  <time>2026-08-28T17:50:12Z</time>
  <course>247.06</course>
  <speed>7.172419396549535</speed>
  <fix>3d</fix>
</trkpt>
<trkpt lat="40.0698716" lon="-105.2342015">
  <ele>1583.0</ele>
  <time>2026-08-28T17:50:12Z</time>
  <course>245.99</course>
  <speed>7.19</speed>
  <fix>3d</fix>
</trkpt>
<trkpt lat="40.0698631" lon="-105.2342271">
  <ele>1582.99</ele>
  <time>2026-08-28T17:50:12Z</time>
  <course>247.06</course>
  <speed>7.172419396549535</speed>
  <fix>3d</fix>
</trkpt>
<trkpt lat="40.0698716" lon="-105.2342015">
  <ele>1583.0</ele>
  <time>2026-08-28T17:50:12Z</time>
  <course>245.99</course>
  <speed>7.19</speed>
  <fix>3d</fix>
</trkpt>
<trkpt lat="40.0698605" lon="-105.2342347">
  <ele>1583.0</ele>
  <time>2026-08-28T17:50:12Z</time>
  <course>247.06</course>
  <speed>7.172419396549535</speed>
  <fix>3d</fix>
</trkpt>
<trkpt lat="40.0698663" lon="-105.2342169">
  <ele>1583.0</ele>
  <time>2026-08-28T17:50:12Z</time>
  <course>245.99</course>
  <speed>7.19</speed>
  <fix>3d</fix>
</trkpt>
<trkpt lat="40.0698579" lon="-105.2342423">
  <ele>1583.0</ele>
  <time>2026-08-28T17:50:12Z</time>
  <course>247.06</course>
  <speed>7.172419396549535</speed>
  <fix>3d</fix>
</trkpt>
<trkpt lat="40.0698663" lon="-105.2342169">
  <ele>1583.0</ele>
  <time>2026-08-28T17:50:12Z</time>
  <course>245.99</course>
  <speed>7.19</speed>
  <fix>3d</fix>
</trkpt>
<trkpt lat="40.0698552" lon="-105.23425">
  <ele>1583.0</ele>
  <time>2026-08-28T17:50:12Z</time>
  <course>247.06</course>
  <speed>7.159231802365391</speed>
  <fix>3d</fix>
</trkpt>
<trkpt lat="40.0698611" lon="-105.2342324">
  <ele>1583.0</ele>
  <time>2026-08-28T17:50:12Z</time>
  <course>245.99</course>
  <speed>7.19</speed>
  <fix>3d</fix>
</trkpt>
<trkpt lat="40.0698526" lon="-105.2342577">
  <ele>1583.0</ele>
  <time>2026-08-28T17:50:12Z</time>
  <course>247.06</course>
  <speed>7.159231802365391</speed>
  <fix>3d</fix>
</trkpt>
<trkpt lat="40.0698558" lon="-105.2342477">
  <ele>1583.0</ele>
  <time>2026-08-28T17:50:12Z</time>
  <course>245.99</course>
  <speed>7.19</speed>
  <fix>3d</fix>
</trkpt>
<trkpt lat="40.06985" lon="-105.2342654">
  <ele>1583.0</ele>
  <time>2026-08-28T17:50:12Z</time>
  <course>247.06</course>
  <speed>7.159231802365391</speed>
  <fix>3d</fix>
</trkpt>
<trkpt lat="40.0698558" lon="-105.2342477">
  <ele>1583.0</ele>
  <time>2026-08-28T17:50:12Z</time>
  <course>245.99</course>
  <speed>7.19</speed>
  <fix>3d</fix>
</trkpt>
<trkpt lat="40.0698474" lon="-105.234273">
  <ele>1583.0</ele>
  <time>2026-08-28T17:50:12Z</time>
  <course>247.06</course>
  <speed>7.159231802365391</speed>
  <fix>3d</fix>
</trkpt>
<trkpt lat="40.0698505" lon="-105.2342632">
  <ele>1583.0</ele>
  <time>2026-08-28T17:50:12Z</time>
  <course>245.99</course>
  <speed>7.19</speed>
  <fix>3d</fix>
</trkpt>
<trkpt lat="40.0698448" lon="-105.2342808">
  <ele>1583.0</ele>
  <time>2026-08-28T17:50:12Z</time>
  <course>247.06</course>
  <speed>7.159231802365391</speed>
  <fix>3d</fix>
</trkpt>
<trkpt lat="40.0698505" lon="-105.2342632">
  <ele>1583.0</ele>
  <time>2026-08-28T17:50:12Z</time>
  <course>245.99</course>
  <speed>7.19</speed>
  <fix>3d</fix>
</trkpt>
<trkpt lat="40.0698421" lon="-105.2342885">
  <ele>1583.01</ele>
  <time>2026-08-28T17:50:12Z</time>
  <course>247.06</course>
  <speed>7.159231802365391</speed>
  <fix>3d</fix>
</trkpt>
<trkpt lat="40.0698453" lon="-105.2342787">
  <ele>1583.0</ele>
  <time>2026-08-28T17:50:12Z</time>
  <course>245.99</course>
  <speed>7.19</speed>
  <fix>3d</fix>
</trkpt>
<trkpt lat="40.0698395" lon="-105.2342963">
  <ele>1583.01</ele>
  <time>2026-08-28T17:50:12Z</time>
  <course>247.06</course>
  <speed>7.172419396549535</speed>
  <fix>3d</fix>
</trkpt>
<trkpt lat="40.0698453" lon="-105.2342787">
  <ele>1583.0</ele>
  <time>2026-08-28T17:50:12Z</time>
  <course>245.99</course>
  <speed>7.19</speed>
  <fix>3d</fix>
</trkpt>
<trkpt lat="40.0698368" lon="-105.2343041">
  <ele>1583.01</ele>
  <time>2026-08-28T17:50:12Z</time>
  <course>247.06</course>
  <speed>7.172419396549535</speed>
  <fix>3d</fix>
</trkpt>
<trkpt lat="40.06984" lon="-105.2342941">
  <ele>1583.0</ele>
  <time>2026-08-28T17:50:12Z</time>
  <course>245.99</course>
  <speed>7.19</speed>
  <fix>3d</fix>
</trkpt>
<trkpt lat="40.0698342" lon="-105.2343119">
  <ele>1583.01</ele>
  <time>2026-08-28T17:50:12Z</time>
  <course>247.06</course>
  <speed>7.172419396549535</speed>
  <fix>3d</fix>
</trkpt>
<trkpt lat="40.06984" lon="-105.2342941">
  <ele>1583.0</ele>
  <time>2026-08-28T17:50:12Z</time>
  <course>245.99</course>
  <speed>7.19</speed>
  <fix>3d</fix>
</trkpt>
<trkpt lat="40.0698315" lon="-105.2343196">
  <ele>1583.01</ele>
  <time>2026-08-28T17:50:12Z</time>
  <course>247.06</course>
  <speed>7.172419396549535</speed>
  <fix>3d</fix>
</trkpt>
<trkpt lat="40.0698347" lon="-105.2343095">
  <ele>1583.0</ele>
  <time>2026-08-28T17:50:12Z</time>
  <course>245.99</course>
  <speed>7.19</speed>
  <fix>3d</fix>
</trkpt>
<trkpt lat="40.0698289" lon="-105.2343274">
  <ele>1583.01</ele>
  <time>2026-08-28T17:50:12Z</time>
  <course>247.06</course>
  <speed>7.172419396549535</speed>
  <fix>3d</fix>
</trkpt>
<trkpt lat="40.0698347" lon="-105.2343095">
  <ele>1583.0</ele>
  <time>2026-08-28T17:50:12Z</time>
  <course>245.99</course>
  <speed>7.19</speed>
  <fix>3d</fix>
</trkpt>
<trkpt lat="40.0698262" lon="-105.2343352">
  <ele>1583.01</ele>
  <time>2026-08-28T17:50:12Z</time>
  <course>247.06</course>
  <speed>7.172419396549535</speed>
  <fix>3d</fix>
</trkpt>
<trkpt lat="40.0698295" lon="-105.234325">
  <ele>1583.0</ele>
  <time>2026-08-28T17:50:12Z</time>
  <course>245.99</course>
  <speed>7.19</speed>
  <fix>3d</fix>
</trkpt>
<trkpt lat="40.0698236" lon="-105.2343429">
  <ele>1583.01</ele>
  <time>2026-08-28T17:50:12Z</time>
  <course>247.06</course>
  <speed>7.181566681442149</speed>
  <fix>3d</fix>
</trkpt>
<trkpt lat="40.0698295" lon="-105.234325">
  <ele>1583.0</ele>
  <time>2026-08-28T17:50:12Z</time>
  <course>245.99</course>
  <speed>7.19</speed>
  <fix>3d</fix>
</trkpt>
<trkpt lat="40.0698209" lon="-105.2343507">
  <ele>1583.01</ele>
  <time>2026-08-28T17:50:12Z</time>
  <course>247.06</course>
  <speed>7.181566681442149</speed>
  <fix>3d</fix>
</trkpt>
<trkpt lat="40.0698242" lon="-105.2343404">
  <ele>1583.0</ele>
  <time>2026-08-28T17:50:12Z</time>
  <course>245.99</course>
  <speed>7.19</speed>
  <fix>3d</fix>
</trkpt>
<trkpt lat="40.0698183" lon="-105.2343584">
  <ele>1583.01</ele>
  <time>2026-08-28T17:50:12Z</time>
  <course>247.06</course>
  <speed>7.181566681442149</speed>
  <fix>3d</fix>
</trkpt>
<trkpt lat="40.0698242" lon="-105.2343404">
  <ele>1583.0</ele>
  <time>2026-08-28T17:50:12Z</time>
  <course>245.99</course>
  <speed>7.19</speed>
  <fix>3d</fix>
</trkpt>
<trkpt lat="40.0698156" lon="-105.2343662">
  <ele>1583.01</ele>
  <time>2026-08-28T17:50:12Z</time>
  <course>247.06</course>
  <speed>7.181566681442149</speed>
  <fix>3d</fix>
</trkpt>
<trkpt lat="40.0698242" lon="-105.2343404">
  <ele>1583.0</ele>
  <time>2026-08-28T17:50:12Z</time>
  <course>245.99</course>
  <speed>7.19</speed>
  <fix>3d</fix>
</trkpt>
<trkpt lat="40.069813" lon="-105.2343739">
  <ele>1583.01</ele>
  <time>2026-08-28T17:50:12Z</time>
  <course>247.06</course>
  <speed>7.181566681442149</speed>
  <fix>3d</fix>
</trkpt>
<trkpt lat="40.069819" lon="-105.2343559">
  <ele>1583.0</ele>
  <time>2026-08-28T17:50:12Z</time>
  <course>245.99</course>
  <speed>7.19</speed>
  <fix>3d</fix>
</trkpt>
<trkpt lat="40.0698104" lon="-105.2343816">
  <ele>1583.01</ele>
  <time>2026-08-28T17:50:12Z</time>
  <course>247.06</course>
  <speed>7.181566681442149</speed>
  <fix>3d</fix>
</trkpt>
<trkpt lat="40.069819" lon="-105.2343559">
  <ele>1583.0</ele>
  <time>2026-08-28T17:50:12Z</time>
  <course>245.99</course>
  <speed>7.19</speed>
  <fix>3d</fix>
</trkpt>
<trkpt lat="40.0698078" lon="-105.2343892">
  <ele>1583.01</ele>
  <time>2026-08-28T17:50:12Z</time>
  <course>247.06</course>
  <speed>7.172419396549535</speed>
  <fix>3d</fix>
</trkpt>
<trkpt lat="40.0698137" lon="-105.2343713">
  <ele>1583.0</ele>
  <time>2026-08-28T17:50:12Z</time>
  <course>245.99</course>
  <speed>7.19</speed>
  <fix>3d</fix>
</trkpt>
<trkpt lat="40.0698052" lon="-105.2343969">
  <ele>1583.02</ele>
  <time>2026-08-28T17:50:12Z</time>
  <course>247.06</course>
  <speed>7.172419396549535</speed>
  <fix>3d</fix>
</trkpt>
<trkpt lat="40.0698137" lon="-105.2343713">
  <ele>1583.0</ele>
  <time>2026-08-28T17:50:12Z</time>
  <course>245.99</course>
  <speed>7.19</speed>
  <fix>3d</fix>
</trkpt>
<trkpt lat="40.0698026" lon="-105.2344045">
  <ele>1583.02</ele>
  <time>2026-08-28T17:50:12Z</time>
  <course>247.06</course>
  <speed>7.172419396549535</speed>
  <fix>3d</fix>
</trkpt>
<trkpt lat="40.0698084" lon="-105.2343868">
  <ele>1583.0</ele>
  <time>2026-08-28T17:50:12Z</time>
  <course>245.99</course>
  <speed>7.19</speed>
  <fix>3d</fix>
</trkpt>
<trkpt lat="40.0698" lon="-105.2344122">
  <ele>1583.02</ele>
  <time>2026-08-28T17:50:12Z</time>
  <course>247.06</course>
  <speed>7.172419396549535</speed>
  <fix>3d</fix>
</trkpt>
<trkpt lat="40.0698032" lon="-105.2344022">
  <ele>1583.0</ele>
  <time>2026-08-28T17:50:12Z</time>
  <course>245.99</course>
  <speed>7.19</speed>
  <fix>3d</fix>
</trkpt>
<trkpt lat="40.0697973" lon="-105.2344199">
  <ele>1583.01</ele>
  <time>2026-08-28T17:50:12Z</time>
  <course>247.06</course>
  <speed>7.172419396549535</speed>
  <fix>3d</fix>
</trkpt>
<trkpt lat="40.0698032" lon="-105.2344022">
  <ele>1583.0</ele>
  <time>2026-08-28T17:50:12Z</time>
  <course>245.99</course>
  <speed>7.19</speed>
  <fix>3d</fix>
</trkpt>
<trkpt lat="40.0697947" lon="-105.2344276">
  <ele>1583.01</ele>
  <time>2026-08-28T17:50:12Z</time>
  <course>247.06</course>
  <speed>7.172419396549535</speed>
  <fix>3d</fix>
</trkpt>
<trkpt lat="40.069798" lon="-105.2344177">
  <ele>1583.0</ele>
  <time>2026-08-28T17:50:12Z</time>
  <course>245.99</course>
  <speed>7.19</speed>
  <fix>3d</fix>
</trkpt>
<trkpt lat="40.0697921" lon="-105.2344353">
  <ele>1583.01</ele>
  <time>2026-08-28T17:50:12Z</time>
  <course>247.06</course>
  <speed>7.172419396549535</speed>
  <fix>3d</fix>
</trkpt>
<trkpt lat="40.069798" lon="-105.2344177">
  <ele>1583.0</ele>
  <time>2026-08-28T17:50:12Z</time>
  <course>245.99</course>
  <speed>7.19</speed>
  <fix>3d</fix>
</trkpt>
<trkpt lat="40.0697895" lon="-105.2344431">
  <ele>1583.01</ele>
  <time>2026-08-28T17:50:12Z</time>
  <course>247.06</course>
  <speed>7.172419396549535</speed>
  <fix>3d</fix>
</trkpt>
<trkpt lat="40.0697927" lon="-105.234433">
  <ele>1583.0</ele>
  <time>2026-08-28T17:50:12Z</time>
  <course>245.99</course>
  <speed>7.19</speed>
  <fix>3d</fix>
</trkpt>
<trkpt lat="40.0697868" lon="-105.2344508">
  <ele>1583.0</ele>
  <time>2026-08-28T17:50:12Z</time>
  <course>247.06</course>
  <speed>7.172419396549535</speed>
  <fix>3d</fix>
</trkpt>
<trkpt lat="40.0697927" lon="-105.234433">
  <ele>1583.0</ele>
  <time>2026-08-28T17:50:12Z</time>
  <course>245.99</course>
  <speed>7.19</speed>
  <fix>3d</fix>
</trkpt>
<trkpt lat="40.0697842" lon="-105.2344586">
  <ele>1583.0</ele>
  <time>2026-08-28T17:50:12Z</time>
  <course>247.06</course>
  <speed>7.172419396549535</speed>
  <fix>3d</fix>
</trkpt>
<trkpt lat="40.0697874" lon="-105.2344485">
  <ele>1583.0</ele>
  <time>2026-08-28T17:50:12Z</time>
  <course>245.99</course>
  <speed>7.19</speed>
  <fix>3d</fix>
</trkpt>
<trkpt lat="40.0697815" lon="-105.2344664">
  <ele>1583.0</ele>
  <time>2026-08-28T17:50:12Z</time>
  <course>247.06</course>
  <speed>7.172419396549535</speed>
  <fix>3d</fix>
</trkpt>
<trkpt lat="40.0697874" lon="-105.2344485">
  <ele>1583.0</ele>
  <time>2026-08-28T17:50:12Z</time>
  <course>245.99</course>
  <speed>7.19</speed>
  <fix>3d</fix>
</trkpt>
<trkpt lat="40.0697789" lon="-105.2344742">
  <ele>1583.0</ele>
  <time>2026-08-28T17:50:12Z</time>
  <course>247.06</course>
  <speed>7.172419396549535</speed>
  <fix>3d</fix>
</trkpt>
<trkpt lat="40.0697822" lon="-105.234464">
  <ele>1583.0</ele>
  <time>2026-08-28T17:50:12Z</time>
  <course>245.99</course>
  <speed>7.19</speed>
  <fix>3d</fix>
</trkpt>
<trkpt lat="40.0697762" lon="-105.2344819">
  <ele>1583.0</ele>
  <time>2026-08-28T17:50:12Z</time>
  <course>247.05</course>
  <speed>7.181566681442149</speed>
  <fix>3d</fix>
</trkpt>
<trkpt lat="40.0697822" lon="-105.234464">
  <ele>1583.0</ele>
  <time>2026-08-28T17:50:12Z</time>
  <course>245.99</course>
  <speed>7.19</speed>
  <fix>3d</fix>
</trkpt>
<trkpt lat="40.0697736" lon="-105.2344897">
  <ele>1583.0</ele>
  <time>2026-08-28T17:50:12Z</time>
  <course>247.05</course>
  <speed>7.181566681442149</speed>
  <fix>3d</fix>
</trkpt>
<trkpt lat="40.0697769" lon="-105.2344794">
  <ele>1583.0</ele>
  <time>2026-08-28T17:50:12Z</time>
  <course>245.99</course>
  <speed>7.19</speed>
  <fix>3d</fix>
</trkpt>
<trkpt lat="40.0697709" lon="-105.2344974">
  <ele>1583.01</ele>
  <time>2026-08-28T17:50:12Z</time>
  <course>247.05</course>
  <speed>7.181566681442149</speed>
  <fix>3d</fix>
</trkpt>
<trkpt lat="40.0697769" lon="-105.2344794">
  <ele>1583.0</ele>
  <time>2026-08-28T17:50:12Z</time>
  <course>245.99</course>
  <speed>7.19</speed>
  <fix>3d</fix>
</trkpt>
<trkpt lat="40.0697683" lon="-105.2345052">
  <ele>1583.01</ele>
  <time>2026-08-28T17:50:12Z</time>
  <course>247.05</course>
  <speed>7.181566681442149</speed>
  <fix>3d</fix>
</trkpt>
<trkpt lat="40.0697716" lon="-105.2344948">
  <ele>1583.0</ele>
  <time>2026-08-28T17:50:12Z</time>
  <course>245.99</course>
  <speed>7.19</speed>
  <fix>3d</fix>
</trkpt>
<trkpt lat="40.0697657" lon="-105.234513">
  <ele>1583.01</ele>
  <time>2026-08-28T17:50:12Z</time>
  <course>247.05</course>
  <speed>7.181566681442149</speed>
  <fix>3d</fix>
</trkpt>
<trkpt lat="40.0697716" lon="-105.2344948">
  <ele>1583.0</ele>
  <time>2026-08-28T17:50:12Z</time>
  <course>245.99</course>
  <speed>7.19</speed>
  <fix>3d</fix>
</trkpt>
<trkpt lat="40.069763" lon="-105.2345207">
  <ele>1583.01</ele>
  <time>2026-08-28T17:50:12Z</time>
  <course>247.05</course>
  <speed>7.181566681442149</speed>
  <fix>3d</fix>
</trkpt>
<trkpt lat="40.0697716" lon="-105.2344948">
  <ele>1583.0</ele>
  <time>2026-08-28T17:50:12Z</time>
  <course>245.99</course>
  <speed>7.19</speed>
  <fix>3d</fix>
</trkpt>
<trkpt lat="40.0697604" lon="-105.2345284">
  <ele>1583.01</ele>
  <time>2026-08-28T17:50:12Z</time>
  <course>247.05</course>
  <speed>7.181566681442149</speed>
  <fix>3d</fix>
</trkpt>
<trkpt lat="40.0697664" lon="-105.2345103">
  <ele>1583.0</ele>
  <time>2026-08-28T17:50:12Z</time>
  <course>245.99</course>
  <speed>7.19</speed>
  <fix>3d</fix>
</trkpt>
<trkpt lat="40.0697578" lon="-105.2345361">
  <ele>1583.01</ele>
  <time>2026-08-28T17:50:12Z</time>
  <course>247.05</course>
  <speed>7.181566681442149</speed>
  <fix>3d</fix>
</trkpt>
<trkpt lat="40.0697664" lon="-105.2345103">
  <ele>1583.0</ele>
  <time>2026-08-28T17:50:12Z</time>
  <course>245.99</course>
  <speed>7.19</speed>
  <fix>3d</fix>
</trkpt>
<trkpt lat="40.0697552" lon="-105.2345437">
  <ele>1583.02</ele>
  <time>2026-08-28T17:50:12Z</time>
  <course>247.05</course>
  <speed>7.181566681442149</speed>
  <fix>3d</fix>
</trkpt>
<trkpt lat="40.0697611" lon="-105.2345258">
  <ele>1583.0</ele>
  <time>2026-08-28T17:50:12Z</time>
  <course>245.99</course>
  <speed>7.19</speed>
  <fix>3d</fix>
</trkpt>
<trkpt lat="40.0697526" lon="-105.2345514">
  <ele>1583.02</ele>
  <time>2026-08-28T17:50:12Z</time>
  <course>247.05</course>
  <speed>7.172419396549535</speed>
  <fix>3d</fix>
</trkpt>
<trkpt lat="40.0697611" lon="-105.2345258">
  <ele>1583.0</ele>
  <time>2026-08-28T17:50:12Z</time>
  <course>245.99</course>
  <speed>7.19</speed>
  <fix>3d</fix>
</trkpt>
<trkpt lat="40.06975" lon="-105.234559">
  <ele>1583.02</ele>
  <time>2026-08-28T17:50:12Z</time>
  <course>247.05</course>
  <speed>7.172419396549535</speed>
  <fix>3d</fix>
</trkpt>
<trkpt lat="40.0697558" lon="-105.2345412">
  <ele>1583.0</ele>
  <time>2026-08-28T17:50:12Z</time>
  <course>245.99</course>
  <speed>7.19</speed>
  <fix>3d</fix>
</trkpt>
<trkpt lat="40.0697474" lon="-105.2345666">
  <ele>1583.02</ele>
  <time>2026-08-28T17:50:12Z</time>
  <course>247.05</course>
  <speed>7.172419396549535</speed>
  <fix>3d</fix>
</trkpt>
<trkpt lat="40.0697558" lon="-105.2345412">
  <ele>1583.0</ele>
  <time>2026-08-28T17:50:12Z</time>
  <course>245.99</course>
  <speed>7.19</speed>
  <fix>3d</fix>
</trkpt>
<trkpt lat="40.0697447" lon="-105.2345743">
  <ele>1583.02</ele>
  <time>2026-08-28T17:50:12Z</time>
  <course>247.05</course>
  <speed>7.159231802365391</speed>
  <fix>3d</fix>
</trkpt>
<trkpt lat="40.0697506" lon="-105.2345566">
  <ele>1583.0</ele>
  <time>2026-08-28T17:50:12Z</time>
  <course>245.99</course>
  <speed>7.19</speed>
  <fix>3d</fix>
</trkpt>
<trkpt lat="40.0697421" lon="-105.234582">
  <ele>1583.02</ele>
  <time>2026-08-28T17:50:12Z</time>
  <course>247.05</course>
  <speed>7.159231802365391</speed>
  <fix>3d</fix>
</trkpt>
<trkpt lat="40.0697453" lon="-105.2345721">
  <ele>1583.0</ele>
  <time>2026-08-28T17:50:12Z</time>
  <course>245.99</course>
  <speed>7.19</speed>
  <fix>3d</fix>
</trkpt>
<trkpt lat="40.0697395" lon="-105.2345897">
  <ele>1583.02</ele>
  <time>2026-08-28T17:50:12Z</time>
  <course>247.05</course>
  <speed>7.159231802365391</speed>
  <fix>3d</fix>
</trkpt>
<trkpt lat="40.0697453" lon="-105.2345721">
  <ele>1583.0</ele>
  <time>2026-08-28T17:50:12Z</time>
  <course>245.99</course>
  <speed>7.19</speed>
  <fix>3d</fix>
</trkpt>
<trkpt lat="40.0697369" lon="-105.2345973">
  <ele>1583.02</ele>
  <time>2026-08-28T17:50:12Z</time>
  <course>247.05</course>
  <speed>7.159231802365391</speed>
  <fix>3d</fix>
</trkpt>
<trkpt lat="40.0697401" lon="-105.2345875">
  <ele>1583.0</ele>
  <time>2026-08-28T17:50:12Z</time>
  <course>245.99</course>
  <speed>7.19</speed>
  <fix>3d</fix>
</trkpt>
<trkpt lat="40.0697343" lon="-105.2346051">
  <ele>1583.02</ele>
  <time>2026-08-28T17:50:12Z</time>
  <course>247.05</course>
  <speed>7.159231802365391</speed>
  <fix>3d</fix>
</trkpt>
<trkpt lat="40.0697401" lon="-105.2345875">
  <ele>1583.0</ele>
  <time>2026-08-28T17:50:12Z</time>
  <course>245.99</course>
  <speed>7.19</speed>
  <fix>3d</fix>
</trkpt>
<trkpt lat="40.0697316" lon="-105.2346128">
  <ele>1583.02</ele>
  <time>2026-08-28T17:50:12Z</time>
  <course>247.05</course>
  <speed>7.159231802365391</speed>
  <fix>3d</fix>
</trkpt>
<trkpt lat="40.0697348" lon="-105.2346029">
  <ele>1583.0</ele>
  <time>2026-08-28T17:50:12Z</time>
  <course>245.99</course>
  <speed>7.19</speed>
  <fix>3d</fix>
</trkpt>
<trkpt lat="40.069729" lon="-105.2346206">
  <ele>1583.02</ele>
  <time>2026-08-28T17:50:12Z</time>
  <course>247.05</course>
  <speed>7.172419396549535</speed>
  <fix>3d</fix>
</trkpt>
<trkpt lat="40.0697348" lon="-105.2346029">
  <ele>1583.0</ele>
  <time>2026-08-28T17:50:12Z</time>
  <course>245.99</course>
  <speed>7.19</speed>
  <fix>3d</fix>
</trkpt>
<trkpt lat="40.0697263" lon="-105.2346284">
  <ele>1583.01</ele>
  <time>2026-08-28T17:50:12Z</time>
  <course>247.05</course>
  <speed>7.172419396549535</speed>
  <fix>3d</fix>
</trkpt>
<trkpt lat="40.0697296" lon="-105.2346183">
  <ele>1583.0</ele>
  <time>2026-08-28T17:50:12Z</time>
  <course>245.99</course>
  <speed>7.19</speed>
  <fix>3d</fix>
</trkpt>
<trkpt lat="40.0697237" lon="-105.2346361">
  <ele>1583.01</ele>
  <time>2026-08-28T17:50:12Z</time>
  <course>247.05</course>
  <speed>7.096266624077762</speed>
  <fix>3d</fix>
</trkpt>
<trkpt lat="40.0697296" lon="-105.2346183">
  <ele>1583.0</ele>
  <time>2026-08-28T17:50:12Z</time>
  <course>245.99</course>
  <speed>7.19</speed>
  <fix>3d</fix>
</trkpt>
<trkpt lat="40.0697211" lon="-105.2346436">
  <ele>1583.01</ele>
  <time>2026-08-28T17:50:12Z</time>
  <course>247.05</course>
  <speed>6.746984511617024</speed>
  <fix>3d</fix>
</trkpt>
<trkpt lat="40.0697244" lon="-105.2346336">
  <ele>1583.0</ele>
  <time>2026-08-28T17:50:12Z</time>
  <course>245.99</course>
  <speed>6.98</speed>
  <fix>3d</fix>
</trkpt>
<trkpt lat="40.0697187" lon="-105.2346507">
  <ele>1583.01</ele>
  <time>2026-08-28T17:50:12Z</time>
  <course>247.05</course>
  <speed>6.420038940691871</speed>
  <fix>3d</fix>
</trkpt>
<trkpt lat="40.0697244" lon="-105.2346336">
  <ele>1583.0</ele>
  <time>2026-08-28T17:50:12Z</time>
  <course>245.99</course>
  <speed>6.98</speed>
  <fix>3d</fix>
</trkpt>
<trkpt lat="40.0697164" lon="-105.2346574">
  <ele>1583.01</ele>
  <time>2026-08-28T17:50:12Z</time>
  <course>247.05</course>
  <speed>6.106291837113584</speed>
  <fix>3d</fix>
</trkpt>
<trkpt lat="40.0697194" lon="-105.2346482">
  <ele>1583.0</ele>
  <time>2026-08-28T17:50:12Z</time>
  <course>245.99</course>
  <speed>6.45</speed>
  <fix>3d</fix>
</trkpt>
<trkpt lat="40.0697142" lon="-105.2346638">
  <ele>1583.0</ele>
  <time>2026-08-28T17:50:12Z</time>
  <course>247.05</course>
  <speed>5.801689409129034</speed>
  <fix>3d</fix>
</trkpt>
<trkpt lat="40.0697194" lon="-105.2346482">
  <ele>1583.0</ele>
  <time>2026-08-28T17:50:12Z</time>
  <course>245.99</course>
  <speed>6.45</speed>
  <fix>3d</fix>
</trkpt>
<trkpt lat="40.0697121" lon="-105.2346698">
  <ele>1583.0</ele>
  <time>2026-08-28T17:50:12Z</time>
  <course>247.05</course>
  <speed>5.51029944739848</speed>
  <fix>3d</fix>
</trkpt>
<trkpt lat="40.0697194" lon="-105.2346482">
  <ele>1583.0</ele>
  <time>2026-08-28T17:50:12Z</time>
  <course>245.99</course>
  <speed>6.45</speed>
  <fix>3d</fix>
</trkpt>
<trkpt lat="40.0697102" lon="-105.2346755">
  <ele>1583.0</ele>
  <time>2026-08-28T17:50:12Z</time>
  <course>247.05</course>
  <speed>5.237174810907118</speed>
  <fix>3d</fix>
</trkpt>
<trkpt lat="40.0697149" lon="-105.2346613">
  <ele>1583.0</ele>
  <time>2026-08-28T17:50:12Z</time>
  <course>245.99</course>
  <speed>5.84</speed>
  <fix>3d</fix>
</trkpt>
<trkpt lat="40.0697083" lon="-105.2346809">
  <ele>1583.0</ele>
  <time>2026-08-28T17:50:12Z</time>
  <course>247.05</course>
  <speed>4.977268327104738</speed>
  <fix>3d</fix>
</trkpt>
<trkpt lat="40.0697149" lon="-105.2346613">
  <ele>1583.0</ele>
  <time>2026-08-28T17:50:12Z</time>
  <course>245.99</course>
  <speed>5.84</speed>
  <fix>3d</fix>
</trkpt>
<trkpt lat="40.0697065" lon="-105.234686">
  <ele>1583.0</ele>
  <time>2026-08-28T17:50:12Z</time>
  <course>247.05</course>
  <speed>4.726489183315667</speed>
  <fix>3d</fix>
</trkpt>
<trkpt lat="40.0697108" lon="-105.2346733">
  <ele>1583.0</ele>
  <time>2026-08-28T17:50:12Z</time>
  <course>245.99</course>
  <speed>5.28</speed>
  <fix>3d</fix>
</trkpt>
<trkpt lat="40.0697049" lon="-105.2346909">
  <ele>1583.0</ele>
  <time>2026-08-28T17:50:12Z</time>
  <course>247.05</course>
  <speed>4.484829985629333</speed>
  <fix>3d</fix>
</trkpt>
<trkpt lat="40.0697108" lon="-105.2346733">
  <ele>1583.0</ele>
  <time>2026-08-28T17:50:12Z</time>
  <course>245.99</course>
  <speed>5.28</speed>
  <fix>3d</fix>
</trkpt>
<trkpt lat="40.0697033" lon="-105.2346955">
  <ele>1583.0</ele>
  <time>2026-08-28T17:50:12Z</time>
  <course>247.04</course>
  <speed>4.256395188419421</speed>
  <fix>3d</fix>
</trkpt>
<trkpt lat="40.0697072" lon="-105.2346841">
  <ele>1583.0</ele>
  <time>2026-08-28T17:50:12Z</time>
  <course>245.99</course>
  <speed>4.78</speed>
  <fix>3d</fix>
</trkpt>
<trkpt lat="40.0697018" lon="-105.2346999">
  <ele>1583.0</ele>
  <time>2026-08-28T17:50:12Z</time>
  <course>247.04</course>
  <speed>4.04120031673759</speed>
  <fix>3d</fix>
</trkpt>
<trkpt lat="40.0697072" lon="-105.2346841">
  <ele>1583.0</ele>
  <time>2026-08-28T17:50:12Z</time>
  <course>245.99</course>
  <speed>4.78</speed>
  <fix>3d</fix>
</trkpt>
<trkpt lat="40.0697003" lon="-105.2347041">
  <ele>1583.0</ele>
  <time>2026-08-28T17:50:12Z</time>
  <course>247.04</course>
  <speed>3.8309920386239384</speed>
  <fix>3d</fix>
</trkpt>
<trkpt lat="40.0697038" lon="-105.2346938">
  <ele>1583.0</ele>
  <time>2026-08-28T17:50:12Z</time>
  <course>245.99</course>
  <speed>4.32</speed>
  <fix>3d</fix>
</trkpt>
<trkpt lat="40.0696989" lon="-105.234708">
  <ele>1583.0</ele>
  <time>2026-08-28T17:50:12Z</time>
  <course>247.03</course>
  <speed>3.638158875035558</speed>
  <fix>3d</fix>
</trkpt>
<trkpt lat="40.0697008" lon="-105.2347026">
  <ele>1583.0</ele>
  <time>2026-08-28T17:50:12Z</time>
  <course>245.99</course>
  <speed>3.91</speed>
  <fix>3d</fix>
</trkpt>
<trkpt lat="40.0696976" lon="-105.2347118">
  <ele>1583.01</ele>
  <time>2026-08-28T17:50:12Z</time>
  <course>247.03</course>
  <speed>3.45028984289726</speed>
  <fix>3d</fix>
</trkpt>
<trkpt lat="40.0697008" lon="-105.2347026">
  <ele>1583.0</ele>
  <time>2026-08-28T17:50:12Z</time>
  <course>245.99</course>
  <speed>3.91</speed>
  <fix>3d</fix>
</trkpt>
<trkpt lat="40.0696964" lon="-105.2347153">
  <ele>1583.01</ele>
  <time>2026-08-28T17:50:12Z</time>
  <course>247.02</course>
  <speed>3.2756678708318403</speed>
  <fix>3d</fix>
</trkpt>
<trkpt lat="40.0696981" lon="-105.2347106">
  <ele>1583.0</ele>
  <time>2026-08-28T17:50:12Z</time>
  <course>245.99</course>
  <speed>3.54</speed>
  <fix>3d</fix>
</trkpt>
<trkpt lat="40.0696952" lon="-105.2347188">
  <ele>1583.02</ele>
  <time>2026-08-28T17:50:12Z</time>
  <course>247.01</course>
  <speed>3.1101446911679203</speed>
  <fix>3d</fix>
</trkpt>
<trkpt lat="40.0696981" lon="-105.2347106">
  <ele>1583.0</ele>
  <time>2026-08-28T17:50:12Z</time>
  <course>245.99</course>
  <speed>3.54</speed>
  <fix>3d</fix>
</trkpt>
<trkpt lat="40.0696941" lon="-105.234722">
  <ele>1583.02</ele>
  <time>2026-08-28T17:50:12Z</time>
  <course>247.01</course>
  <speed>2.9578708558691336</speed>
  <fix>3d</fix>
</trkpt>
<trkpt lat="40.0696956" lon="-105.2347178">
  <ele>1583.0</ele>
  <time>2026-08-28T17:50:12Z</time>
  <course>245.99</course>
  <speed>3.2</speed>
  <fix>3d</fix>
</trkpt>
<trkpt lat="40.069693" lon="-105.2347251">
  <ele>1583.03</ele>
  <time>2026-08-28T17:50:12Z</time>
  <course>247.0</course>
  <speed>2.8056015397771654</speed>
  <fix>3d</fix>
</trkpt>
<trkpt lat="40.0696956" lon="-105.2347178">
  <ele>1583.0</ele>
  <time>2026-08-28T17:50:12Z</time>
  <course>245.99</course>
  <speed>3.2</speed>
  <fix>3d</fix>
</trkpt>
<trkpt lat="40.069692" lon="-105.2347281">
  <ele>1583.03</ele>
  <time>2026-08-28T17:50:12Z</time>
  <course>247.0</course>
  <speed>2.662423707827137</speed>
  <fix>3d</fix>
</trkpt>
<trkpt lat="40.0696934" lon="-105.2347243">
  <ele>1583.0</ele>
  <time>2026-08-28T17:50:12Z</time>
  <course>245.99</course>
  <speed>2.9</speed>
  <fix>3d</fix>
</trkpt>
<trkpt lat="40.069691" lon="-105.2347309">
  <ele>1583.04</ele>
  <time>2026-08-28T17:50:12Z</time>
  <course>246.99</course>
  <speed>2.5283393759541064</speed>
  <fix>3d</fix>
</trkpt>
<trkpt lat="40.0696934" lon="-105.2347243">
  <ele>1583.0</ele>
  <time>2026-08-28T17:50:12Z</time>
  <course>245.99</course>
  <speed>2.9</speed>
  <fix>3d</fix>
</trkpt>
<trkpt lat="40.0696901" lon="-105.2347336">
  <ele>1583.04</ele>
  <time>2026-08-28T17:50:12Z</time>
  <course>246.99</course>
  <speed>2.3984161440417298</speed>
  <fix>3d</fix>
</trkpt>
<trkpt lat="40.0696914" lon="-105.2347303">
  <ele>1583.0</ele>
  <time>2026-08-28T17:50:12Z</time>
  <course>245.99</course>
  <speed>2.62</speed>
  <fix>3d</fix>
</trkpt>
<trkpt lat="40.0696893" lon="-105.2347362">
  <ele>1583.04</ele>
  <time>2026-08-28T17:50:12Z</time>
  <course>246.98</course>
  <speed>2.27343352662883</speed>
  <fix>3d</fix>
</trkpt>
<trkpt lat="40.0696914" lon="-105.2347303">
  <ele>1583.0</ele>
  <time>2026-08-28T17:50:12Z</time>
  <course>245.99</course>
  <speed>2.62</speed>
  <fix>3d</fix>
</trkpt>
<trkpt lat="40.0696884" lon="-105.2347386">
  <ele>1583.03</ele>
  <time>2026-08-28T17:50:12Z</time>
  <course>246.98</course>
  <speed>2.165848563496534</speed>
  <fix>3d</fix>
</trkpt>
<trkpt lat="40.0696896" lon="-105.2347357">
  <ele>1583.0</ele>
  <time>2026-08-28T17:50:12Z</time>
  <course>245.99</course>
  <speed>2.37</speed>
  <fix>3d</fix>
</trkpt>
<trkpt lat="40.0696877" lon="-105.2347409">
  <ele>1583.03</ele>
  <time>2026-08-28T17:50:12Z</time>
  <course>246.97</course>
  <speed>2.0541178155110775</speed>
  <fix>3d</fix>
</trkpt>
<trkpt lat="40.0696896" lon="-105.2347357">
  <ele>1583.0</ele>
  <time>2026-08-28T17:50:12Z</time>
  <course>245.99</course>
  <speed>2.37</speed>
  <fix>3d</fix>
</trkpt>
<trkpt lat="40.0696869" lon="-105.2347431">
  <ele>1583.03</ele>
  <time>2026-08-28T17:50:12Z</time>
  <course>246.97</course>
  <speed>1.9423954283306992</speed>
  <fix>3d</fix>
</trkpt>
<trkpt lat="40.069688" lon="-105.2347406">
  <ele>1583.0</ele>
  <time>2026-08-28T17:50:12Z</time>
  <course>245.99</course>
  <speed>2.14</speed>
  <fix>3d</fix>
</trkpt>
<trkpt lat="40.0696862" lon="-105.2347452">
  <ele>1583.02</ele>
  <time>2026-08-28T17:50:12Z</time>
  <course>246.97</course>
  <speed>1.8439088914585775</speed>
  <fix>3d</fix>
</trkpt>
<trkpt lat="40.069688" lon="-105.2347406">
  <ele>1583.0</ele>
  <time>2026-08-28T17:50:12Z</time>
  <course>245.99</course>
  <speed>2.14</speed>
  <fix>3d</fix>
</trkpt>
<trkpt lat="40.0696856" lon="-105.2347472">
  <ele>1583.02</ele>
  <time>2026-08-28T17:50:12Z</time>
  <course>246.96</course>
  <speed>1.7545369759569047</speed>
  <fix>3d</fix>
</trkpt>
<trkpt lat="40.069688" lon="-105.2347406">
  <ele>1583.0</ele>
  <time>2026-08-28T17:50:12Z</time>
  <course>245.99</course>
  <speed>2.14</speed>
  <fix>3d</fix>
</trkpt>
<trkpt lat="40.0696849" lon="-105.2347491">
  <ele>1583.01</ele>
  <time>2026-08-28T17:50:12Z</time>
  <course>246.96</course>
  <speed>1.665172663719892</speed>
  <fix>3d</fix>
</trkpt>
<trkpt lat="40.0696864" lon="-105.2347449">
  <ele>1583.0</ele>
  <time>2026-08-28T17:50:12Z</time>
  <course>245.99</course>
  <speed>1.94</speed>
  <fix>3d</fix>
</trkpt>
<trkpt lat="39.655741" lon="-104.1383097">
  <ele>1566.58</ele>
  <time>2026-08-28T17:50:12Z</time>
  <course>0.0</course>
  <speed>0.0</speed>
  <fix>3d</fix>
</trkpt>
<trkpt lat="40.0713749" lon="-105.229789">
  <ele>1583.0</ele>
  <time>2026-08-28T17:50:12Z</time>
  <course>0.0</course>
  <speed>0.0</speed>
  <fix>3d</fix>
</trkpt>
<trkpt lat="40.0713749" lon="-105.229789">
  <ele>1583.0</ele>
  <time>2026-08-28T17:50:12Z</time>
  <course>238.36</course>
  <speed>0.0</speed>
  <fix>3d</fix>
</trkpt>
<trkpt lat="40.0713749" lon="-105.229789">
  <ele>1583.0</ele>
  <time>2026-08-28T17:50:12Z</time>
  <course>0.0</course>
  <speed>0.0</speed>
  <fix>3d</fix>
</trkpt>
<trkpt lat="40.0713749" lon="-105.229789">
  <ele>1583.0</ele>
  <time>2026-08-28T17:50:12Z</time>
  <course>238.44</course>
  <speed>0.0</speed>
  <fix>3d</fix>
</trkpt>
<trkpt lat="40.0713749" lon="-105.229789">
  <ele>1583.0</ele>
  <time>2026-08-28T17:50:12Z</time>
  <course>0.0</course>
  <speed>0.0</speed>
  <fix>3d</fix>
</trkpt>
<trkpt lat="40.0713749" lon="-105.229789">
  <ele>1583.0</ele>
  <time>2026-08-28T17:50:12Z</time>
  <course>238.64</course>
  <speed>0.0</speed>
  <fix>3d</fix>
</trkpt>
<trkpt lat="40.0713749" lon="-105.229789">
  <ele>1583.0</ele>
  <time>2026-08-28T17:50:12Z</time>
  <course>0.0</course>
  <speed>0.0</speed>
  <fix>3d</fix>
</trkpt>
<trkpt lat="40.0713749" lon="-105.229789">
  <ele>1583.0</ele>
  <time>2026-08-28T17:50:12Z</time>
  <course>238.93</course>
  <speed>0.0</speed>
  <fix>3d</fix>
</trkpt>
<trkpt lat="40.0713749" lon="-105.229789">
  <ele>1583.0</ele>
  <time>2026-08-28T17:50:12Z</time>
  <course>0.0</course>
  <speed>0.0</speed>
  <fix>3d</fix>
</trkpt>
<trkpt lat="40.0713749" lon="-105.229789">
  <ele>1583.0</ele>
  <time>2026-08-28T17:50:12Z</time>
  <course>239.26</course>
  <speed>0.0</speed>
  <fix>3d</fix>
</trkpt>
<trkpt lat="40.0713749" lon="-105.229789">
  <ele>1583.0</ele>
  <time>2026-08-28T17:50:12Z</time>
  <course>0.0</course>
  <speed>0.0</speed>
  <fix>3d</fix>
</trkpt>
<trkpt lat="40.0713749" lon="-105.229789">
  <ele>1583.0</ele>
  <time>2026-08-28T17:50:12Z</time>
  <course>239.61</course>
  <speed>0.0</speed>
  <fix>3d</fix>
</trkpt>
<trkpt lat="40.0713749" lon="-105.229789">
  <ele>1583.0</ele>
  <time>2026-08-28T17:50:12Z</time>
  <course>0.0</course>
  <speed>0.0</speed>
  <fix>3d</fix>
</trkpt>
<trkpt lat="40.0713749" lon="-105.229789">
  <ele>1583.0</ele>
  <time>2026-08-28T17:50:12Z</time>
  <course>239.96</course>
  <speed>0.0</speed>
  <fix>3d</fix>
</trkpt>
<trkpt lat="40.0713749" lon="-105.229789">
  <ele>1583.0</ele>
  <time>2026-08-28T17:50:12Z</time>
  <course>0.0</course>
  <speed>0.0</speed>
  <fix>3d</fix>
</trkpt>
<trkpt lat="40.0713749" lon="-105.229789">
  <ele>1583.0</ele>
  <time>2026-08-28T17:50:12Z</time>
  <course>240.29</course>
  <speed>0.0</speed>
  <fix>3d</fix>
</trkpt>
<trkpt lat="40.0713749" lon="-105.229789">
  <ele>1583.0</ele>
  <time>2026-08-28T17:50:12Z</time>
  <course>0.0</course>
  <speed>0.0</speed>
  <fix>3d</fix>
</trkpt>
<trkpt lat="40.0713749" lon="-105.229789">
  <ele>1583.0</ele>
  <time>2026-08-28T17:50:12Z</time>
  <course>240.61</course>
  <speed>0.0</speed>
  <fix>3d</fix>
</trkpt>
<trkpt lat="40.0713749" lon="-105.229789">
  <ele>1583.0</ele>
  <time>2026-08-28T17:50:12Z</time>
  <course>0.0</course>
  <speed>0.0</speed>
  <fix>3d</fix>
</trkpt>
<trkpt lat="40.0713749" lon="-105.229789">
  <ele>1583.0</ele>
  <time>2026-08-28T17:50:12Z</time>
  <course>240.92</course>
  <speed>0.0</speed>
  <fix>3d</fix>
</trkpt>
<trkpt lat="40.0713749" lon="-105.229789">
  <ele>1583.0</ele>
  <time>2026-08-28T17:50:12Z</time>
  <course>0.0</course>
  <speed>0.0</speed>
  <fix>3d</fix>
</trkpt>
<trkpt lat="40.0713749" lon="-105.229789">
  <ele>1583.0</ele>
  <time>2026-08-28T17:50:12Z</time>
  <course>241.21</course>
  <speed>0.0</speed>
  <fix>3d</fix>
</trkpt>
<trkpt lat="40.0713749" lon="-105.229789">
  <ele>1583.0</ele>
  <time>2026-08-28T17:50:12Z</time>
  <course>0.0</course>
  <speed>0.0</speed>
  <fix>3d</fix>
</trkpt>
<trkpt lat="40.0713749" lon="-105.229789">
  <ele>1583.0</ele>
  <time>2026-08-28T17:50:12Z</time>
  <course>241.49</course>
  <speed>0.0</speed>
  <fix>3d</fix>
</trkpt>
<trkpt lat="40.0713749" lon="-105.229789">
  <ele>1583.0</ele>
  <time>2026-08-28T17:50:12Z</time>
  <course>0.0</course>
  <speed>0.0</speed>
  <fix>3d</fix>
</trkpt>
<trkpt lat="40.0713749" lon="-105.229789">
  <ele>1583.0</ele>
  <time>2026-08-28T17:50:12Z</time>
  <course>241.77</course>
  <speed>0.0</speed>
  <fix>3d</fix>
</trkpt>
<trkpt lat="40.0713749" lon="-105.229789">
  <ele>1583.0</ele>
  <time>2026-08-28T17:50:12Z</time>
  <course>0.0</course>
  <speed>0.0</speed>
  <fix>3d</fix>
</trkpt>
<trkpt lat="40.0713749" lon="-105.229789">
  <ele>1583.0</ele>
  <time>2026-08-28T17:50:12Z</time>
  <course>242.03</course>
  <speed>0.0</speed>
  <fix>3d</fix>
</trkpt>
<trkpt lat="40.0713749" lon="-105.229789">
  <ele>1583.0</ele>
  <time>2026-08-28T17:50:12Z</time>
  <course>0.0</course>
  <speed>0.0</speed>
  <fix>3d</fix>
</trkpt>
<trkpt lat="40.0713749" lon="-105.229789">
  <ele>1583.0</ele>
  <time>2026-08-28T17:50:12Z</time>
  <course>242.29</course>
  <speed>0.0</speed>
  <fix>3d</fix>
</trkpt>
<trkpt lat="40.0713749" lon="-105.229789">
  <ele>1583.0</ele>
  <time>2026-08-28T17:50:12Z</time>
  <course>0.0</course>
  <speed>0.0</speed>
  <fix>3d</fix>
</trkpt>
<trkpt lat="40.0713749" lon="-105.229789">
  <ele>1583.0</ele>
  <time>2026-08-28T17:50:12Z</time>
  <course>242.54</course>
  <speed>0.0</speed>
  <fix>3d</fix>
</trkpt>
<trkpt lat="40.0713749" lon="-105.229789">
  <ele>1583.0</ele>
  <time>2026-08-28T17:50:12Z</time>
  <course>0.0</course>
  <speed>0.0</speed>
  <fix>3d</fix>
</trkpt>
<trkpt lat="40.0713749" lon="-105.229789">
  <ele>1583.0</ele>
  <time>2026-08-28T17:50:12Z</time>
  <course>242.79</course>
  <speed>0.0</speed>
  <fix>3d</fix>
</trkpt>
<trkpt lat="40.0713749" lon="-105.229789">
  <ele>1583.0</ele>
  <time>2026-08-28T17:50:12Z</time>
  <course>0.0</course>
  <speed>0.0</speed>
  <fix>3d</fix>
</trkpt>
<trkpt lat="40.0713749" lon="-105.229789">
  <ele>1583.0</ele>
  <time>2026-08-28T17:50:12Z</time>
  <course>243.02</course>
  <speed>0.0</speed>
  <fix>3d</fix>
</trkpt>
<trkpt lat="40.0713749" lon="-105.229789">
  <ele>1583.0</ele>
  <time>2026-08-28T17:50:12Z</time>
  <course>0.0</course>
  <speed>0.0</speed>
  <fix>3d</fix>
</trkpt>
<trkpt lat="40.0713749" lon="-105.229789">
  <ele>1583.0</ele>
  <time>2026-08-28T17:50:12Z</time>
  <course>243.25</course>
  <speed>0.0</speed>
  <fix>3d</fix>
</trkpt>
<trkpt lat="40.0713749" lon="-105.229789">
  <ele>1583.0</ele>
  <time>2026-08-28T17:50:12Z</time>
  <course>0.0</course>
  <speed>0.0</speed>
  <fix>3d</fix>
</trkpt>
<trkpt lat="40.0713749" lon="-105.229789">
  <ele>1583.0</ele>
  <time>2026-08-28T17:50:12Z</time>
  <course>243.47</course>
  <speed>0.0</speed>
  <fix>3d</fix>
</trkpt>
<trkpt lat="40.0713749" lon="-105.229789">
  <ele>1583.0</ele>
  <time>2026-08-28T17:50:12Z</time>
  <course>0.0</course>
  <speed>0.0</speed>
  <fix>3d</fix>
</trkpt>
<trkpt lat="40.0713749" lon="-105.229789">
  <ele>1583.0</ele>
  <time>2026-08-28T17:50:12Z</time>
  <course>243.68</course>
  <speed>0.0</speed>
  <fix>3d</fix>
</trkpt>
<trkpt lat="40.0713749" lon="-105.229789">
  <ele>1583.0</ele>
  <time>2026-08-28T17:50:12Z</time>
  <course>0.0</course>
  <speed>0.0</speed>
  <fix>3d</fix>
</trkpt>
<trkpt lat="40.0713749" lon="-105.229789">
  <ele>1583.0</ele>
  <time>2026-08-28T17:50:12Z</time>
  <course>243.89</course>
  <speed>0.0</speed>
  <fix>3d</fix>
</trkpt>
<trkpt lat="40.0713749" lon="-105.229789">
  <ele>1583.0</ele>
  <time>2026-08-28T17:50:12Z</time>
  <course>0.0</course>
  <speed>0.0</speed>
  <fix>3d</fix>
</trkpt>
<trkpt lat="40.0713749" lon="-105.229789">
  <ele>1583.0</ele>
  <time>2026-08-28T17:50:12Z</time>
  <course>244.09</course>
  <speed>0.0</speed>
  <fix>3d</fix>
</trkpt>
<trkpt lat="40.0713749" lon="-105.229789">
  <ele>1583.0</ele>
  <time>2026-08-28T17:50:12Z</time>
  <course>0.0</course>
  <speed>0.0</speed>
  <fix>3d</fix>
</trkpt>
<trkpt lat="40.0713749" lon="-105.229789">
  <ele>1583.0</ele>
  <time>2026-08-28T17:50:12Z</time>
  <course>244.28</course>
  <speed>0.0</speed>
  <fix>3d</fix>
</trkpt>
<trkpt lat="40.0713749" lon="-105.229789">
  <ele>1583.0</ele>
  <time>2026-08-28T17:50:12Z</time>
  <course>0.0</course>
  <speed>0.0</speed>
  <fix>3d</fix>
</trkpt>
<trkpt lat="40.0713749" lon="-105.229789">
  <ele>1583.0</ele>
  <time>2026-08-28T17:50:12Z</time>
  <course>244.46</course>
  <speed>0.0</speed>
  <fix>3d</fix>
</trkpt>
<trkpt lat="40.0713749" lon="-105.229789">
  <ele>1583.0</ele>
  <time>2026-08-28T17:50:12Z</time>
  <course>0.0</course>
  <speed>0.0</speed>
  <fix>3d</fix>
</trkpt>
<trkpt lat="40.0713749" lon="-105.229789">
  <ele>1583.0</ele>
  <time>2026-08-28T17:50:12Z</time>
  <course>244.64</course>
  <speed>0.0</speed>
  <fix>3d</fix>
</trkpt>
<trkpt lat="40.0713749" lon="-105.229789">
  <ele>1583.0</ele>
  <time>2026-08-28T17:50:12Z</time>
  <course>0.0</course>
  <speed>0.0</speed>
  <fix>3d</fix>
</trkpt>
<trkpt lat="40.0713749" lon="-105.229789">
  <ele>1583.0</ele>
  <time>2026-08-28T17:50:12Z</time>
  <course>244.81</course>
  <speed>0.0</speed>
  <fix>3d</fix>
</trkpt>
<trkpt lat="40.0713749" lon="-105.229789">
  <ele>1583.0</ele>
  <time>2026-08-28T17:50:12Z</time>
  <course>0.0</course>
  <speed>0.0</speed>
  <fix>3d</fix>
</trkpt>
<trkpt lat="40.0713749" lon="-105.229789">
  <ele>1583.0</ele>
  <time>2026-08-28T17:50:12Z</time>
  <course>244.97</course>
  <speed>0.0</speed>
  <fix>3d</fix>
</trkpt>
<trkpt lat="40.0713749" lon="-105.229789">
  <ele>1583.0</ele>
  <time>2026-08-28T17:50:12Z</time>
  <course>0.0</course>
  <speed>0.0</speed>
  <fix>3d</fix>
</trkpt>
<trkpt lat="40.0713749" lon="-105.229789">
  <ele>1583.0</ele>
  <time>2026-08-28T17:50:12Z</time>
  <course>245.13</course>
  <speed>0.0</speed>
  <fix>3d</fix>
</trkpt>
<trkpt lat="40.0713749" lon="-105.229789">
  <ele>1583.0</ele>
  <time>2026-08-28T17:50:12Z</time>
  <course>0.0</course>
  <speed>0.0</speed>
  <fix>3d</fix>
</trkpt>
<trkpt lat="40.0713749" lon="-105.229789">
  <ele>1583.0</ele>
  <time>2026-08-28T17:50:12Z</time>
  <course>245.29</course>
  <speed>0.0</speed>
  <fix>3d</fix>
</trkpt>
<trkpt lat="40.0713749" lon="-105.229789">
  <ele>1583.0</ele>
  <time>2026-08-28T17:50:12Z</time>
  <course>0.0</course>
  <speed>0.0</speed>
  <fix>3d</fix>
</trkpt>
<trkpt lat="40.0713749" lon="-105.229789">
  <ele>1583.0</ele>
  <time>2026-08-28T17:50:12Z</time>
  <course>245.43</course>
  <speed>0.0</speed>
  <fix>3d</fix>
</trkpt>
<trkpt lat="40.0713749" lon="-105.229789">
  <ele>1583.0</ele>
  <time>2026-08-28T17:50:12Z</time>
  <course>0.0</course>
  <speed>0.0</speed>
  <fix>3d</fix>
</trkpt>
<trkpt lat="40.0713749" lon="-105.229789">
  <ele>1583.0</ele>
  <time>2026-08-28T17:50:12Z</time>
  <course>245.57</course>
  <speed>0.0</speed>
  <fix>3d</fix>
</trkpt>
<trkpt lat="40.0713749" lon="-105.229789">
  <ele>1583.0</ele>
  <time>2026-08-28T17:50:12Z</time>
  <course>0.0</course>
  <speed>0.0</speed>
  <fix>3d</fix>
</trkpt>
<trkpt lat="40.0713749" lon="-105.229789">
  <ele>1583.0</ele>
  <time>2026-08-28T17:50:12Z</time>
  <course>245.71</course>
  <speed>0.0</speed>
  <fix>3d</fix>
</trkpt>
<trkpt lat="40.0713749" lon="-105.229789">
  <ele>1583.0</ele>
  <time>2026-08-28T17:50:12Z</time>
  <course>0.0</course>
  <speed>0.0</speed>
  <fix>3d</fix>
</trkpt>
<trkpt lat="40.0713749" lon="-105.229789">
  <ele>1583.0</ele>
  <time>2026-08-28T17:50:12Z</time>
  <course>245.84</course>
  <speed>0.0</speed>
  <fix>3d</fix>
</trkpt>
<trkpt lat="40.0713749" lon="-105.229789">
  <ele>1583.0</ele>
  <time>2026-08-28T17:50:12Z</time>
  <course>0.0</course>
  <speed>0.0</speed>
  <fix>3d</fix>
</trkpt>
<trkpt lat="40.0713749" lon="-105.229789">
  <ele>1583.0</ele>
  <time>2026-08-28T17:50:12Z</time>
  <course>245.96</course>
  <speed>0.0</speed>
  <fix>3d</fix>
</trkpt>
<trkpt lat="40.0713749" lon="-105.229789">
  <ele>1583.0</ele>
  <time>2026-08-28T17:50:12Z</time>
  <course>0.0</course>
  <speed>0.0</speed>
  <fix>3d</fix>
</trkpt>
<trkpt lat="40.0713749" lon="-105.229789">
  <ele>1583.0</ele>
  <time>2026-08-28T17:50:12Z</time>
  <course>246.08</course>
  <speed>0.0</speed>
  <fix>3d</fix>
</trkpt>
<trkpt lat="40.0713749" lon="-105.229789">
  <ele>1583.0</ele>
  <time>2026-08-28T17:50:12Z</time>
  <course>0.0</course>
  <speed>0.0</speed>
  <fix>3d</fix>
</trkpt>
<trkpt lat="40.0713749" lon="-105.229789">
  <ele>1583.0</ele>
  <time>2026-08-28T17:50:12Z</time>
  <course>246.19</course>
  <speed>0.0</speed>
  <fix>3d</fix>
</trkpt>
<trkpt lat="40.0713749" lon="-105.229789">
  <ele>1583.0</ele>
  <time>2026-08-28T17:50:12Z</time>
  <course>0.0</course>
  <speed>0.0</speed>
  <fix>3d</fix>
</trkpt>
<trkpt lat="40.0713749" lon="-105.229789">
  <ele>1583.0</ele>
  <time>2026-08-28T17:50:12Z</time>
  <course>246.3</course>
  <speed>0.0</speed>
  <fix>3d</fix>
</trkpt>
<trkpt lat="40.0713749" lon="-105.229789">
  <ele>1583.0</ele>
  <time>2026-08-28T17:50:12Z</time>
  <course>0.0</course>
  <speed>0.0</speed>
  <fix>3d</fix>
</trkpt>
<trkpt lat="40.0713749" lon="-105.229789">
  <ele>1583.0</ele>
  <time>2026-08-28T17:50:12Z</time>
  <course>246.41</course>
  <speed>0.0</speed>
  <fix>3d</fix>
</trkpt>
<trkpt lat="40.0713749" lon="-105.229789">
  <ele>1583.0</ele>
  <time>2026-08-28T17:50:12Z</time>
  <course>0.0</course>
  <speed>0.0</speed>
  <fix>3d</fix>
</trkpt>
<trkpt lat="40.0713749" lon="-105.229789">
  <ele>1583.0</ele>
  <time>2026-08-28T17:50:12Z</time>
  <course>246.51</course>
  <speed>0.0</speed>
  <fix>3d</fix>
</trkpt>
<trkpt lat="40.0713749" lon="-105.229789">
  <ele>1583.0</ele>
  <time>2026-08-28T17:50:12Z</time>
  <course>0.0</course>
  <speed>0.0</speed>
  <fix>3d</fix>
</trkpt>
<trkpt lat="40.0713749" lon="-105.229789">
  <ele>1583.0</ele>
  <time>2026-08-28T17:50:12Z</time>
  <course>246.6</course>
  <speed>0.0</speed>
  <fix>3d</fix>
</trkpt>
<trkpt lat="40.0713749" lon="-105.229789">
  <ele>1583.0</ele>
  <time>2026-08-28T17:50:12Z</time>
  <course>0.0</course>
  <speed>0.0</speed>
  <fix>3d</fix>
</trkpt>
<trkpt lat="40.0713749" lon="-105.229789">
  <ele>1583.0</ele>
  <time>2026-08-28T17:50:12Z</time>
  <course>246.7</course>
  <speed>0.0</speed>
  <fix>3d</fix>
</trkpt>
<trkpt lat="40.0713749" lon="-105.229789">
  <ele>1583.0</ele>
  <time>2026-08-28T17:50:12Z</time>
  <course>0.0</course>
  <speed>0.0</speed>
  <fix>3d</fix>
</trkpt>
<trkpt lat="40.0713749" lon="-105.229789">
  <ele>1583.0</ele>
  <time>2026-08-28T17:50:12Z</time>
  <course>246.78</course>
  <speed>0.0</speed>
  <fix>3d</fix>
</trkpt>
<trkpt lat="40.0713749" lon="-105.229789">
  <ele>1583.0</ele>
  <time>2026-08-28T17:50:12Z</time>
  <course>0.0</course>
  <speed>0.0</speed>
  <fix>3d</fix>
</trkpt>
<trkpt lat="40.0713749" lon="-105.229789">
  <ele>1583.0</ele>
  <time>2026-08-28T17:50:12Z</time>
  <course>246.87</course>
  <speed>0.0</speed>
  <fix>3d</fix>
</trkpt>
<trkpt lat="40.0713749" lon="-105.229789">
  <ele>1583.0</ele>
  <time>2026-08-28T17:50:12Z</time>
  <course>0.0</course>
  <speed>0.0</speed>
  <fix>3d</fix>
</trkpt>
<trkpt lat="40.0713749" lon="-105.229789">
  <ele>1583.0</ele>
  <time>2026-08-28T17:50:12Z</time>
  <course>246.95</course>
  <speed>0.0</speed>
  <fix>3d</fix>
</trkpt>
<trkpt lat="40.0713749" lon="-105.229789">
  <ele>1583.0</ele>
  <time>2026-08-28T17:50:12Z</time>
  <course>0.0</course>
  <speed>0.0</speed>
  <fix>3d</fix>
</trkpt>
<trkpt lat="40.0713749" lon="-105.229789">
  <ele>1583.0</ele>
  <time>2026-08-28T17:50:12Z</time>
  <course>247.02</course>
  <speed>0.0</speed>
  <fix>3d</fix>
</trkpt>
<trkpt lat="40.0713749" lon="-105.229789">
  <ele>1583.0</ele>
  <time>2026-08-28T17:50:12Z</time>
  <course>0.0</course>
  <speed>0.0</speed>
  <fix>3d</fix>
</trkpt>
<trkpt lat="40.0713749" lon="-105.229789">
  <ele>1583.0</ele>
  <time>2026-08-28T17:50:12Z</time>
  <course>247.1</course>
  <speed>0.0</speed>
  <fix>3d</fix>
</trkpt>
<trkpt lat="40.0713749" lon="-105.229789">
  <ele>1583.0</ele>
  <time>2026-08-28T17:50:12Z</time>
  <course>0.0</course>
  <speed>0.0</speed>
  <fix>3d</fix>
</trkpt>
<trkpt lat="40.0713749" lon="-105.229789">
  <ele>1583.0</ele>
  <time>2026-08-28T17:50:12Z</time>
  <course>247.17</course>
  <speed>0.0</speed>
  <fix>3d</fix>
</trkpt>
<trkpt lat="40.0713749" lon="-105.229789">
  <ele>1583.0</ele>
  <time>2026-08-28T17:50:12Z</time>
  <course>0.0</course>
  <speed>0.0</speed>
  <fix>3d</fix>
</trkpt>
<trkpt lat="40.0713749" lon="-105.229789">
  <ele>1583.0</ele>
  <time>2026-08-28T17:50:12Z</time>
  <course>247.24</course>
  <speed>0.0</speed>
  <fix>3d</fix>
</trkpt>
<trkpt lat="40.0713749" lon="-105.229789">
  <ele>1583.0</ele>
  <time>2026-08-28T17:50:12Z</time>
  <course>0.0</course>
  <speed>0.0</speed>
  <fix>3d</fix>
</trkpt>
<trkpt lat="40.0713749" lon="-105.229789">
  <ele>1583.0</ele>
  <time>2026-08-28T17:50:12Z</time>
  <course>247.3</course>
  <speed>0.0</speed>
  <fix>3d</fix>
</trkpt>
<trkpt lat="40.0713749" lon="-105.229789">
  <ele>1583.0</ele>
  <time>2026-08-28T17:50:12Z</time>
  <course>0.0</course>
  <speed>0.0</speed>
  <fix>3d</fix>
</trkpt>
<trkpt lat="40.0713749" lon="-105.229789">
  <ele>1583.0</ele>
  <time>2026-08-28T17:50:12Z</time>
  <course>247.36</course>
  <speed>0.0</speed>
  <fix>3d</fix>
</trkpt>
<trkpt lat="40.0713749" lon="-105.229789">
  <ele>1583.0</ele>
  <time>2026-08-28T17:50:12Z</time>
  <course>0.0</course>
  <speed>0.0</speed>
  <fix>3d</fix>
</trkpt>
<trkpt lat="40.0713749" lon="-105.229789">
  <ele>1583.0</ele>
  <time>2026-08-28T17:50:12Z</time>
  <course>247.42</course>
  <speed>0.0</speed>
  <fix>3d</fix>
</trkpt>
<trkpt lat="40.0713749" lon="-105.229789">
  <ele>1583.0</ele>
  <time>2026-08-28T17:50:12Z</time>
  <course>0.0</course>
  <speed>0.0</speed>
  <fix>3d</fix>
</trkpt>
<trkpt lat="40.0713749" lon="-105.229789">
  <ele>1583.0</ele>
  <time>2026-08-28T17:50:12Z</time>
  <course>247.47</course>
  <speed>0.0</speed>
  <fix>3d</fix>
</trkpt>
<trkpt lat="40.0713749" lon="-105.229789">
  <ele>1583.0</ele>
  <time>2026-08-28T17:50:12Z</time>
  <course>0.0</course>
  <speed>0.0</speed>
  <fix>3d</fix>
</trkpt>
<trkpt lat="40.0713749" lon="-105.229789">
  <ele>1583.0</ele>
  <time>2026-08-28T17:50:12Z</time>
  <course>247.53</course>
  <speed>0.0</speed>
  <fix>3d</fix>
</trkpt>
<trkpt lat="40.0713749" lon="-105.229789">
  <ele>1583.0</ele>
  <time>2026-08-28T17:50:12Z</time>
  <course>0.0</course>
  <speed>0.0</speed>
  <fix>3d</fix>
</trkpt>
<trkpt lat="40.0713749" lon="-105.229789">
  <ele>1583.0</ele>
  <time>2026-08-28T17:50:12Z</time>
  <course>247.58</course>
  <speed>0.0</speed>
  <fix>3d</fix>
</trkpt>
<trkpt lat="40.0713749" lon="-105.229789">
  <ele>1583.0</ele>
  <time>2026-08-28T17:50:12Z</time>
  <course>0.0</course>
  <speed>0.0</speed>
  <fix>3d</fix>
</trkpt>
<trkpt lat="40.0713749" lon="-105.229789">
  <ele>1583.0</ele>
  <time>2026-08-28T17:50:12Z</time>
  <course>247.63</course>
  <speed>0.0</speed>
  <fix>3d</fix>
</trkpt>
<trkpt lat="40.0713749" lon="-105.229789">
  <ele>1583.0</ele>
  <time>2026-08-28T17:50:12Z</time>
  <course>0.0</course>
  <speed>0.0</speed>
  <fix>3d</fix>
</trkpt>
<trkpt lat="40.0713749" lon="-105.229789">
  <ele>1583.0</ele>
  <time>2026-08-28T17:50:12Z</time>
  <course>247.67</course>
  <speed>0.0</speed>
  <fix>3d</fix>
</trkpt>
<trkpt lat="40.0713749" lon="-105.229789">
  <ele>1583.0</ele>
  <time>2026-08-28T17:50:12Z</time>
  <course>0.0</course>
  <speed>0.0</speed>
  <fix>3d</fix>
</trkpt>
<trkpt lat="40.0713749" lon="-105.229789">
  <ele>1583.0</ele>
  <time>2026-08-28T17:50:12Z</time>
  <course>247.72</course>
  <speed>0.0</speed>
  <fix>3d</fix>
</trkpt>
<trkpt lat="40.0713749" lon="-105.229789">
  <ele>1583.0</ele>
  <time>2026-08-28T17:50:12Z</time>
  <course>0.0</course>
  <speed>0.0</speed>
  <fix>3d</fix>
</trkpt>
<trkpt lat="40.0713749" lon="-105.229789">
  <ele>1583.0</ele>
  <time>2026-08-28T17:50:12Z</time>
  <course>247.76</course>
  <speed>0.0</speed>
  <fix>3d</fix>
</trkpt>
<trkpt lat="40.0713749" lon="-105.229789">
  <ele>1583.0</ele>
  <time>2026-08-28T17:50:12Z</time>
  <course>0.0</course>
  <speed>0.0</speed>
  <fix>3d</fix>
</trkpt>
<trkpt lat="40.0713749" lon="-105.229789">
  <ele>1583.0</ele>
  <time>2026-08-28T17:50:12Z</time>
  <course>247.8</course>
  <speed>0.0</speed>
  <fix>3d</fix>
</trkpt>
<trkpt lat="40.0713749" lon="-105.229789">
  <ele>1583.0</ele>
  <time>2026-08-28T17:50:12Z</time>
  <course>0.0</course>
  <speed>0.0</speed>
  <fix>3d</fix>
</trkpt>
<trkpt lat="40.0713749" lon="-105.229789">
  <ele>1583.0</ele>
  <time>2026-08-28T17:50:12Z</time>
  <course>247.83</course>
  <speed>0.0</speed>
  <fix>3d</fix>
</trkpt>
<trkpt lat="40.0713749" lon="-105.229789">
  <ele>1583.0</ele>
  <time>2026-08-28T17:50:12Z</time>
  <course>0.0</course>
  <speed>0.0</speed>
  <fix>3d</fix>
</trkpt>
<trkpt lat="40.0713749" lon="-105.229789">
  <ele>1583.0</ele>
  <time>2026-08-28T17:50:12Z</time>
  <course>247.87</course>
  <speed>0.0</speed>
  <fix>3d</fix>
</trkpt>
<trkpt lat="40.0713749" lon="-105.229789">
  <ele>1583.0</ele>
  <time>2026-08-28T17:50:12Z</time>
  <course>0.0</course>
  <speed>0.0</speed>
  <fix>3d</fix>
</trkpt>
<trkpt lat="40.0713749" lon="-105.229789">
  <ele>1583.0</ele>
  <time>2026-08-28T17:50:12Z</time>
  <course>247.9</course>
  <speed>0.0</speed>
  <fix>3d</fix>
</trkpt>
<trkpt lat="40.0713749" lon="-105.229789">
  <ele>1583.0</ele>
  <time>2026-08-28T17:50:12Z</time>
  <course>0.0</course>
  <speed>0.0</speed>
  <fix>3d</fix>
</trkpt>
<trkpt lat="40.0713749" lon="-105.229789">
  <ele>1583.0</ele>
  <time>2026-08-28T17:50:12Z</time>
  <course>247.94</course>
  <speed>0.0</speed>
  <fix>3d</fix>
</trkpt>
<trkpt lat="40.0713749" lon="-105.229789">
  <ele>1583.0</ele>
  <time>2026-08-28T17:50:12Z</time>
  <course>0.0</course>
  <speed>0.0</speed>
  <fix>3d</fix>
</trkpt>
<trkpt lat="40.0713749" lon="-105.229789">
  <ele>1583.0</ele>
  <time>2026-08-28T17:50:12Z</time>
  <course>247.97</course>
  <speed>0.0</speed>
  <fix>3d</fix>
</trkpt>
<trkpt lat="40.0713749" lon="-105.229789">
  <ele>1583.0</ele>
  <time>2026-08-28T17:50:12Z</time>
  <course>0.0</course>
  <speed>0.0</speed>
  <fix>3d</fix>
</trkpt>
<trkpt lat="40.0713749" lon="-105.229789">
  <ele>1583.0</ele>
  <time>2026-08-28T17:50:12Z</time>
  <course>248.0</course>
  <speed>0.0</speed>
  <fix>3d</fix>
</trkpt>
<trkpt lat="40.0713749" lon="-105.229789">
  <ele>1583.0</ele>
  <time>2026-08-28T17:50:12Z</time>
  <course>0.0</course>
  <speed>0.0</speed>
  <fix>3d</fix>
</trkpt>
<trkpt lat="40.0713749" lon="-105.229789">
  <ele>1583.0</ele>
  <time>2026-08-28T17:50:12Z</time>
  <course>248.02</course>
  <speed>0.0</speed>
  <fix>3d</fix>
</trkpt>
<trkpt lat="40.0713749" lon="-105.229789">
  <ele>1583.0</ele>
  <time>2026-08-28T17:50:12Z</time>
  <course>0.0</course>
  <speed>0.0</speed>
  <fix>3d</fix>
</trkpt>
<trkpt lat="40.0713749" lon="-105.229789">
  <ele>1583.0</ele>
  <time>2026-08-28T17:50:12Z</time>
  <course>248.05</course>
  <speed>0.0</speed>
  <fix>3d</fix>
</trkpt>
<trkpt lat="40.0713749" lon="-105.229789">
  <ele>1583.0</ele>
  <time>2026-08-28T17:50:12Z</time>
  <course>0.0</course>
  <speed>0.0</speed>
  <fix>3d</fix>
</trkpt>
<trkpt lat="40.0713749" lon="-105.229789">
  <ele>1583.0</ele>
  <time>2026-08-28T17:50:12Z</time>
  <course>248.08</course>
  <speed>0.0</speed>
  <fix>3d</fix>
</trkpt>
<trkpt lat="40.0713749" lon="-105.229789">
  <ele>1583.0</ele>
  <time>2026-08-28T17:50:12Z</time>
  <course>0.0</course>
  <speed>0.0</speed>
  <fix>3d</fix>
</trkpt>
<trkpt lat="40.0713749" lon="-105.229789">
  <ele>1583.0</ele>
  <time>2026-08-28T17:50:12Z</time>
  <course>248.1</course>
  <speed>0.0</speed>
  <fix>3d</fix>
</trkpt>
<trkpt lat="40.0713749" lon="-105.229789">
  <ele>1583.0</ele>
  <time>2026-08-28T17:50:12Z</time>
  <course>0.0</course>
  <speed>0.0</speed>
  <fix>3d</fix>
</trkpt>
<trkpt lat="40.0713749" lon="-105.229789">
  <ele>1583.0</ele>
  <time>2026-08-28T17:50:12Z</time>
  <course>248.12</course>
  <speed>0.0</speed>
  <fix>3d</fix>
</trkpt>
<trkpt lat="40.0713749" lon="-105.229789">
  <ele>1583.0</ele>
  <time>2026-08-28T17:50:12Z</time>
  <course>0.0</course>
  <speed>0.0</speed>
  <fix>3d</fix>
</trkpt>
<trkpt lat="40.0713749" lon="-105.229789">
  <ele>1583.0</ele>
  <time>2026-08-28T17:50:12Z</time>
  <course>248.14</course>
  <speed>0.0</speed>
  <fix>3d</fix>
</trkpt>
<trkpt lat="40.0713749" lon="-105.229789">
  <ele>1583.0</ele>
  <time>2026-08-28T17:50:12Z</time>
  <course>0.0</course>
  <speed>0.0</speed>
  <fix>3d</fix>
</trkpt>
<trkpt lat="40.0713749" lon="-105.229789">
  <ele>1583.0</ele>
  <time>2026-08-28T17:50:12Z</time>
  <course>248.16</course>
  <speed>0.0</speed>
  <fix>3d</fix>
</trkpt>
<trkpt lat="40.0713749" lon="-105.229789">
  <ele>1583.0</ele>
  <time>2026-08-28T17:50:12Z</time>
  <course>0.0</course>
  <speed>0.0</speed>
  <fix>3d</fix>
</trkpt>
<trkpt lat="40.0713749" lon="-105.229789">
  <ele>1583.0</ele>
  <time>2026-08-28T17:50:12Z</time>
  <course>248.18</course>
  <speed>0.0</speed>
  <fix>3d</fix>
</trkpt>
<trkpt lat="40.0713749" lon="-105.229789">
  <ele>1583.0</ele>
  <time>2026-08-28T17:50:12Z</time>
  <course>0.0</course>
  <speed>0.0</speed>
  <fix>3d</fix>
</trkpt>
<trkpt lat="40.0713749" lon="-105.229789">
  <ele>1583.0</ele>
  <time>2026-08-28T17:50:12Z</time>
  <course>248.2</course>
  <speed>0.0</speed>
  <fix>3d</fix>
</trkpt>
<trkpt lat="40.0713749" lon="-105.229789">
  <ele>1583.0</ele>
  <time>2026-08-28T17:50:12Z</time>
  <course>0.0</course>
  <speed>0.0</speed>
  <fix>3d</fix>
</trkpt>
<trkpt lat="40.0713749" lon="-105.229789">
  <ele>1583.0</ele>
  <time>2026-08-28T17:50:12Z</time>
  <course>248.22</course>
  <speed>0.0</speed>
  <fix>3d</fix>
</trkpt>
<trkpt lat="40.0713749" lon="-105.229789">
  <ele>1583.0</ele>
  <time>2026-08-28T17:50:12Z</time>
  <course>0.0</course>
  <speed>0.0</speed>
  <fix>3d</fix>
</trkpt>
<trkpt lat="40.0713749" lon="-105.229789">
  <ele>1583.0</ele>
  <time>2026-08-28T17:50:12Z</time>
  <course>248.23</course>
  <speed>0.0</speed>
  <fix>3d</fix>
</trkpt>
<trkpt lat="40.0713749" lon="-105.229789">
  <ele>1583.0</ele>
  <time>2026-08-28T17:50:12Z</time>
  <course>0.0</course>
  <speed>0.0</speed>
  <fix>3d</fix>
</trkpt>
<trkpt lat="40.0713749" lon="-105.229789">
  <ele>1583.0</ele>
  <time>2026-08-28T17:50:12Z</time>
  <course>248.25</course>
  <speed>0.0</speed>
  <fix>3d</fix>
</trkpt>
<trkpt lat="40.0713749" lon="-105.229789">
  <ele>1583.0</ele>
  <time>2026-08-28T17:50:12Z</time>
  <course>0.0</course>
  <speed>0.0</speed>
  <fix>3d</fix>
</trkpt>
<trkpt lat="40.0713749" lon="-105.229789">
  <ele>1583.0</ele>
  <time>2026-08-28T17:50:12Z</time>
  <course>248.26</course>
  <speed>0.0</speed>
  <fix>3d</fix>
</trkpt>
<trkpt lat="40.0713749" lon="-105.229789">
  <ele>1583.0</ele>
  <time>2026-08-28T17:50:12Z</time>
  <course>0.0</course>
  <speed>0.0</speed>
  <fix>3d</fix>
</trkpt>
<trkpt lat="40.0713749" lon="-105.229789">
  <ele>1583.0</ele>
  <time>2026-08-28T17:50:12Z</time>
  <course>248.28</course>
  <speed>0.0</speed>
  <fix>3d</fix>
</trkpt>
<trkpt lat="40.0713749" lon="-105.229789">
  <ele>1583.0</ele>
  <time>2026-08-28T17:50:12Z</time>
  <course>0.0</course>
  <speed>0.0</speed>
  <fix>3d</fix>
</trkpt>
<trkpt lat="40.0713749" lon="-105.229789">
  <ele>1583.0</ele>
  <time>2026-08-28T17:50:12Z</time>
  <course>248.29</course>
  <speed>0.0</speed>
  <fix>3d</fix>
</trkpt>
<trkpt lat="40.0713749" lon="-105.229789">
  <ele>1583.0</ele>
  <time>2026-08-28T17:50:12Z</time>
  <course>0.0</course>
  <speed>0.0</speed>
  <fix>3d</fix>
</trkpt>
<trkpt lat="40.0713749" lon="-105.229789">
  <ele>1583.0</ele>
  <time>2026-08-28T17:50:12Z</time>
  <course>248.3</course>
  <speed>0.0</speed>
  <fix>3d</fix>
</trkpt>
<trkpt lat="40.0713749" lon="-105.229789">
  <ele>1583.0</ele>
  <time>2026-08-28T17:50:12Z</time>
  <course>0.0</course>
  <speed>0.0</speed>
  <fix>3d</fix>
</trkpt>
<trkpt lat="40.0713749" lon="-105.229789">
  <ele>1583.0</ele>
  <time>2026-08-28T17:50:12Z</time>
  <course>248.31</course>
  <speed>0.0</speed>
  <fix>3d</fix>
</trkpt>
<trkpt lat="40.0713749" lon="-105.229789">
  <ele>1583.0</ele>
  <time>2026-08-28T17:50:12Z</time>
  <course>0.0</course>
  <speed>0.0</speed>
  <fix>3d</fix>
</trkpt>
<trkpt lat="40.0713749" lon="-105.229789">
  <ele>1583.0</ele>
  <time>2026-08-28T17:50:12Z</time>
  <course>248.32</course>
  <speed>0.0</speed>
  <fix>3d</fix>
</trkpt>
<trkpt lat="40.0713749" lon="-105.229789">
  <ele>1583.0</ele>
  <time>2026-08-28T17:50:12Z</time>
  <course>0.0</course>
  <speed>0.0</speed>
  <fix>3d</fix>
</trkpt>
<trkpt lat="40.0713749" lon="-105.229789">
  <ele>1583.0</ele>
  <time>2026-08-28T17:50:12Z</time>
  <course>248.33</course>
  <speed>0.0</speed>
  <fix>3d</fix>
</trkpt>
<trkpt lat="40.0713749" lon="-105.229789">
  <ele>1583.0</ele>
  <time>2026-08-28T17:50:12Z</time>
  <course>0.0</course>
  <speed>0.0</speed>
  <fix>3d</fix>
</trkpt>
<trkpt lat="40.0713749" lon="-105.229789">
  <ele>1583.0</ele>
  <time>2026-08-28T17:50:12Z</time>
  <course>248.34</course>
  <speed>0.0</speed>
  <fix>3d</fix>
</trkpt>
<trkpt lat="40.0713749" lon="-105.229789">
  <ele>1583.0</ele>
  <time>2026-08-28T17:50:12Z</time>
  <course>0.0</course>
  <speed>0.0</speed>
  <fix>3d</fix>
</trkpt>
<trkpt lat="40.0713749" lon="-105.229789">
  <ele>1583.0</ele>
  <time>2026-08-28T17:50:12Z</time>
  <course>248.35</course>
  <speed>0.0</speed>
  <fix>3d</fix>
</trkpt>
<trkpt lat="40.0713749" lon="-105.229789">
  <ele>1583.0</ele>
  <time>2026-08-28T17:50:12Z</time>
  <course>0.0</course>
  <speed>0.0</speed>
  <fix>3d</fix>
</trkpt>
<trkpt lat="40.0713749" lon="-105.229789">
  <ele>1583.0</ele>
  <time>2026-08-28T17:50:12Z</time>
  <course>248.35</course>
  <speed>0.0</speed>
  <fix>3d</fix>
</trkpt>
<trkpt lat="40.0713749" lon="-105.229789">
  <ele>1583.0</ele>
  <time>2026-08-28T17:50:12Z</time>
  <course>0.0</course>
  <speed>0.0</speed>
  <fix>3d</fix>
</trkpt>
<trkpt lat="40.0713749" lon="-105.229789">
  <ele>1583.0</ele>
  <time>2026-08-28T17:50:12Z</time>
  <course>248.36</course>
  <speed>0.0</speed>
  <fix>3d</fix>
</trkpt>
<trkpt lat="40.0713749" lon="-105.229789">
  <ele>1583.0</ele>
  <time>2026-08-28T17:50:12Z</time>
  <course>0.0</course>
  <speed>0.0</speed>
  <fix>3d</fix>
</trkpt>
<trkpt lat="40.0713749" lon="-105.229789">
  <ele>1583.0</ele>
  <time>2026-08-28T17:50:12Z</time>
  <course>248.37</course>
  <speed>0.0</speed>
  <fix>3d</fix>
</trkpt>
<trkpt lat="40.0713749" lon="-105.229789">
  <ele>1583.0</ele>
  <time>2026-08-28T17:50:12Z</time>
  <course>0.0</course>
  <speed>0.0</speed>
  <fix>3d</fix>
</trkpt>
<trkpt lat="40.0713749" lon="-105.229789">
  <ele>1583.0</ele>
  <time>2026-08-28T17:50:12Z</time>
  <course>248.37</course>
  <speed>0.0</speed>
  <fix>3d</fix>
</trkpt>
<trkpt lat="40.0713749" lon="-105.229789">
  <ele>1583.0</ele>
  <time>2026-08-28T17:50:12Z</time>
  <course>0.0</course>
  <speed>0.0</speed>
  <fix>3d</fix>
</trkpt>
<trkpt lat="40.0713749" lon="-105.229789">
  <ele>1583.0</ele>
  <time>2026-08-28T17:50:12Z</time>
  <course>248.38</course>
  <speed>0.0</speed>
  <fix>3d</fix>
</trkpt>
<trkpt lat="40.0713749" lon="-105.229789">
  <ele>1583.0</ele>
  <time>2026-08-28T17:50:12Z</time>
  <course>0.0</course>
  <speed>0.0</speed>
  <fix>3d</fix>
</trkpt>
<trkpt lat="40.0713749" lon="-105.229789">
  <ele>1583.0</ele>
  <time>2026-08-28T17:50:12Z</time>
  <course>248.38</course>
  <speed>0.0</speed>
  <fix>3d</fix>
</trkpt>
<trkpt lat="40.0713749" lon="-105.229789">
  <ele>1583.0</ele>
  <time>2026-08-28T17:50:12Z</time>
  <course>0.0</course>
  <speed>0.0</speed>
  <fix>3d</fix>
</trkpt>
<trkpt lat="40.0713749" lon="-105.229789">
  <ele>1583.0</ele>
  <time>2026-08-28T17:50:12Z</time>
  <course>248.39</course>
  <speed>0.0</speed>
  <fix>3d</fix>
</trkpt>
<trkpt lat="40.0713749" lon="-105.229789">
  <ele>1583.0</ele>
  <time>2026-08-28T17:50:12Z</time>
  <course>0.0</course>
  <speed>0.0</speed>
  <fix>3d</fix>
</trkpt>
<trkpt lat="40.0713749" lon="-105.229789">
  <ele>1583.0</ele>
  <time>2026-08-28T17:50:12Z</time>
  <course>248.39</course>
  <speed>0.0</speed>
  <fix>3d</fix>
</trkpt>
<trkpt lat="40.0713749" lon="-105.229789">
  <ele>1583.0</ele>
  <time>2026-08-28T17:50:12Z</time>
  <course>0.0</course>
  <speed>0.0</speed>
  <fix>3d</fix>
</trkpt>
<trkpt lat="40.0713749" lon="-105.229789">
  <ele>1583.0</ele>
  <time>2026-08-28T17:50:12Z</time>
  <course>248.4</course>
  <speed>0.0</speed>
  <fix>3d</fix>
</trkpt>
<trkpt lat="40.0713749" lon="-105.229789">
  <ele>1583.0</ele>
  <time>2026-08-28T17:50:12Z</time>
  <course>0.0</course>
  <speed>0.0</speed>
  <fix>3d</fix>
</trkpt>
<trkpt lat="40.0713749" lon="-105.229789">
  <ele>1583.0</ele>
  <time>2026-08-28T17:50:12Z</time>
  <course>248.4</course>
  <speed>0.0</speed>
  <fix>3d</fix>
</trkpt>
<trkpt lat="40.0713749" lon="-105.229789">
  <ele>1583.0</ele>
  <time>2026-08-28T17:50:12Z</time>
  <course>0.0</course>
  <speed>0.0</speed>
  <fix>3d</fix>
</trkpt>
<trkpt lat="40.0713749" lon="-105.229789">
  <ele>1583.0</ele>
  <time>2026-08-28T17:50:12Z</time>
  <course>248.4</course>
  <speed>0.0</speed>
  <fix>3d</fix>
</trkpt>
<trkpt lat="40.0713749" lon="-105.229789">
  <ele>1583.0</ele>
  <time>2026-08-28T17:50:12Z</time>
  <course>0.0</course>
  <speed>0.0</speed>
  <fix>3d</fix>
</trkpt>
<trkpt lat="40.0713749" lon="-105.229789">
  <ele>1583.0</ele>
  <time>2026-08-28T17:50:12Z</time>
  <course>248.4</course>
  <speed>0.0</speed>
  <fix>3d</fix>
</trkpt>
<trkpt lat="40.0713749" lon="-105.229789">
  <ele>1583.0</ele>
  <time>2026-08-28T17:50:12Z</time>
  <course>0.0</course>
  <speed>0.0</speed>
  <fix>3d</fix>
</trkpt>
<trkpt lat="40.0713749" lon="-105.229789">
  <ele>1583.0</ele>
  <time>2026-08-28T17:50:12Z</time>
  <course>248.41</course>
  <speed>0.0</speed>
  <fix>3d</fix>
</trkpt>
<trkpt lat="40.0713749" lon="-105.229789">
  <ele>1583.0</ele>
  <time>2026-08-28T17:50:12Z</time>
  <course>0.0</course>
  <speed>0.0</speed>
  <fix>3d</fix>
</trkpt>
<trkpt lat="40.0713749" lon="-105.229789">
  <ele>1583.0</ele>
  <time>2026-08-28T17:50:12Z</time>
  <course>248.41</course>
  <speed>0.0</speed>
  <fix>3d</fix>
</trkpt>
<trkpt lat="40.0713749" lon="-105.229789">
  <ele>1583.0</ele>
  <time>2026-08-28T17:50:12Z</time>
  <course>0.0</course>
  <speed>0.0</speed>
  <fix>3d</fix>
</trkpt>
<trkpt lat="40.0713749" lon="-105.229789">
  <ele>1583.0</ele>
  <time>2026-08-28T17:50:12Z</time>
  <course>248.41</course>
  <speed>0.0</speed>
  <fix>3d</fix>
</trkpt>
<trkpt lat="40.0713749" lon="-105.229789">
  <ele>1583.0</ele>
  <time>2026-08-28T17:50:12Z</time>
  <course>0.0</course>
  <speed>0.0</speed>
  <fix>3d</fix>
</trkpt>
<trkpt lat="40.0713749" lon="-105.229789">
  <ele>1583.0</ele>
  <time>2026-08-28T17:50:12Z</time>
  <course>248.41</course>
  <speed>0.0</speed>
  <fix>3d</fix>
</trkpt>
<trkpt lat="40.0713749" lon="-105.229789">
  <ele>1583.0</ele>
  <time>2026-08-28T17:50:12Z</time>
  <course>0.0</course>
  <speed>0.0</speed>
  <fix>3d</fix>
</trkpt>
<trkpt lat="40.0713749" lon="-105.229789">
  <ele>1583.0</ele>
  <time>2026-08-28T17:50:12Z</time>
  <course>248.41</course>
  <speed>0.0</speed>
  <fix>3d</fix>
</trkpt>
<trkpt lat="40.0713749" lon="-105.229789">
  <ele>1583.0</ele>
  <time>2026-08-28T17:50:12Z</time>
  <course>0.0</course>
  <speed>0.0</speed>
  <fix>3d</fix>
</trkpt>
<trkpt lat="40.0713749" lon="-105.229789">
  <ele>1583.0</ele>
  <time>2026-08-28T17:50:12Z</time>
  <course>248.41</course>
  <speed>0.0</speed>
  <fix>3d</fix>
</trkpt>
<trkpt lat="40.0713749" lon="-105.229789">
  <ele>1583.0</ele>
  <time>2026-08-28T17:50:12Z</time>
  <course>0.0</course>
  <speed>0.0</speed>
  <fix>3d</fix>
</trkpt>
<trkpt lat="40.0713749" lon="-105.229789">
  <ele>1583.0</ele>
  <time>2026-08-28T17:50:12Z</time>
  <course>248.41</course>
  <speed>0.0</speed>
  <fix>3d</fix>
</trkpt>
<trkpt lat="40.0713749" lon="-105.229789">
  <ele>1583.0</ele>
  <time>2026-08-28T17:50:12Z</time>
  <course>0.0</course>
  <speed>0.0</speed>
  <fix>3d</fix>
</trkpt>
<trkpt lat="40.0713749" lon="-105.229789">
  <ele>1583.0</ele>
  <time>2026-08-28T17:50:12Z</time>
  <course>248.41</course>
  <speed>0.0</speed>
  <fix>3d</fix>
</trkpt>
<trkpt lat="40.0713749" lon="-105.229789">
  <ele>1583.0</ele>
  <time>2026-08-28T17:50:12Z</time>
  <course>0.0</course>
  <speed>0.0</speed>
  <fix>3d</fix>
</trkpt>
<trkpt lat="40.0713749" lon="-105.229789">
  <ele>1583.0</ele>
  <time>2026-08-28T17:50:12Z</time>
  <course>248.41</course>
  <speed>0.0</speed>
  <fix>3d</fix>
</trkpt>
<trkpt lat="40.0713749" lon="-105.229789">
  <ele>1583.0</ele>
  <time>2026-08-28T17:50:12Z</time>
  <course>0.0</course>
  <speed>0.0</speed>
  <fix>3d</fix>
</trkpt>
<trkpt lat="40.0713749" lon="-105.229789">
  <ele>1583.0</ele>
  <time>2026-08-28T17:50:12Z</time>
  <course>248.41</course>
  <speed>0.0</speed>
  <fix>3d</fix>
</trkpt>
<trkpt lat="40.0713749" lon="-105.229789">
  <ele>1583.0</ele>
  <time>2026-08-28T17:50:12Z</time>
  <course>0.0</course>
  <speed>0.0</speed>
  <fix>3d</fix>
</trkpt>
<trkpt lat="40.0713749" lon="-105.229789">
  <ele>1583.0</ele>
  <time>2026-08-28T17:50:12Z</time>
  <course>248.41</course>
  <speed>0.0</speed>
  <fix>3d</fix>
</trkpt>
<trkpt lat="40.0713749" lon="-105.229789">
  <ele>1583.0</ele>
  <time>2026-08-28T17:50:12Z</time>
  <course>0.0</course>
  <speed>0.0</speed>
  <fix>3d</fix>
</trkpt>
<trkpt lat="40.0713749" lon="-105.229789">
  <ele>1583.0</ele>
  <time>2026-08-28T17:50:12Z</time>
  <course>248.41</course>
  <speed>0.0</speed>
  <fix>3d</fix>
</trkpt>
<trkpt lat="40.0713749" lon="-105.229789">
  <ele>1583.0</ele>
  <time>2026-08-28T17:50:12Z</time>
  <course>0.0</course>
  <speed>0.0</speed>
  <fix>3d</fix>
</trkpt>
<trkpt lat="40.0713749" lon="-105.229789">
  <ele>1583.0</ele>
  <time>2026-08-28T17:50:12Z</time>
  <course>248.41</course>
  <speed>0.0</speed>
  <fix>3d</fix>
</trkpt>
<trkpt lat="40.0713749" lon="-105.229789">
  <ele>1583.0</ele>
  <time>2026-08-28T17:50:12Z</time>
  <course>0.0</course>
  <speed>0.0</speed>
  <fix>3d</fix>
</trkpt>
<trkpt lat="40.0713749" lon="-105.229789">
  <ele>1583.0</ele>
  <time>2026-08-28T17:50:12Z</time>
  <course>248.41</course>
  <speed>0.0</speed>
  <fix>3d</fix>
</trkpt>
<trkpt lat="40.0713749" lon="-105.229789">
  <ele>1583.0</ele>
  <time>2026-08-28T17:50:12Z</time>
  <course>0.0</course>
  <speed>0.0</speed>
  <fix>3d</fix>
</trkpt>
<trkpt lat="40.0713749" lon="-105.229789">
  <ele>1583.0</ele>
  <time>2026-08-28T17:50:12Z</time>
  <course>248.41</course>
  <speed>0.0</speed>
  <fix>3d</fix>
</trkpt>
<trkpt lat="40.0713749" lon="-105.229789">
  <ele>1583.0</ele>
  <time>2026-08-28T17:50:12Z</time>
  <course>0.0</course>
  <speed>0.0</speed>
  <fix>3d</fix>
</trkpt>
<trkpt lat="40.0713749" lon="-105.229789">
  <ele>1583.0</ele>
  <time>2026-08-28T17:50:12Z</time>
  <course>248.41</course>
  <speed>0.0</speed>
  <fix>3d</fix>
</trkpt>
<trkpt lat="40.0713749" lon="-105.229789">
  <ele>1583.0</ele>
  <time>2026-08-28T17:50:12Z</time>
  <course>0.0</course>
  <speed>0.0</speed>
  <fix>3d</fix>
</trkpt>
<trkpt lat="40.0713749" lon="-105.229789">
  <ele>1583.0</ele>
  <time>2026-08-28T17:50:12Z</time>
  <course>248.4</course>
  <speed>0.0</speed>
  <fix>3d</fix>
</trkpt>
<trkpt lat="40.0713749" lon="-105.229789">
  <ele>1583.0</ele>
  <time>2026-08-28T17:50:12Z</time>
  <course>0.0</course>
  <speed>0.0</speed>
  <fix>3d</fix>
</trkpt>
<trkpt lat="40.0713749" lon="-105.229789">
  <ele>1583.0</ele>
  <time>2026-08-28T17:50:12Z</time>
  <course>248.4</course>
  <speed>0.01</speed>
  <fix>3d</fix>
</trkpt>
<trkpt lat="40.0713749" lon="-105.229789">
  <ele>1583.0</ele>
  <time>2026-08-28T17:50:12Z</time>
  <course>0.0</course>
  <speed>0.0</speed>
  <fix>3d</fix>
</trkpt>
<trkpt lat="40.0713749" lon="-105.229789">
  <ele>1583.0</ele>
  <time>2026-08-28T17:50:12Z</time>
  <course>248.4</course>
  <speed>0.01</speed>
  <fix>3d</fix>
</trkpt>
<trkpt lat="40.0713749" lon="-105.229789">
  <ele>1583.0</ele>
  <time>2026-08-28T17:50:12Z</time>
  <course>0.0</course>
  <speed>0.0</speed>
  <fix>3d</fix>
</trkpt>
<trkpt lat="40.0713749" lon="-105.229789">
  <ele>1583.0</ele>
  <time>2026-08-28T17:50:13Z</time>
  <course>248.4</course>
  <speed>0.01</speed>
  <fix>3d</fix>
</trkpt>
<trkpt lat="40.0713749" lon="-105.229789">
  <ele>1583.0</ele>
  <time>2026-08-28T17:50:13Z</time>
  <course>0.0</course>
  <speed>0.0</speed>
  <fix>3d</fix>
</trkpt>
<trkpt lat="40.0713749" lon="-105.229789">
  <ele>1583.0</ele>
  <time>2026-08-28T17:50:13Z</time>
  <course>248.4</course>
  <speed>0.01</speed>
  <fix>3d</fix>
</trkpt>
<trkpt lat="40.0713749" lon="-105.229789">
  <ele>1583.0</ele>
  <time>2026-08-28T17:50:13Z</time>
  <course>0.0</course>
  <speed>0.0</speed>
  <fix>3d</fix>
</trkpt>
<trkpt lat="40.0713749" lon="-105.229789">
  <ele>1583.0</ele>
  <time>2026-08-28T17:50:13Z</time>
  <course>248.39</course>
  <speed>0.01</speed>
  <fix>3d</fix>
</trkpt>
<trkpt lat="40.0713749" lon="-105.229789">
  <ele>1583.0</ele>
  <time>2026-08-28T17:50:13Z</time>
  <course>0.0</course>
  <speed>0.0</speed>
  <fix>3d</fix>
</trkpt>
<trkpt lat="40.0713749" lon="-105.229789">
  <ele>1583.0</ele>
  <time>2026-08-28T17:50:13Z</time>
  <course>248.39</course>
  <speed>0.01</speed>
  <fix>3d</fix>
</trkpt>
<trkpt lat="40.0713749" lon="-105.229789">
  <ele>1583.0</ele>
  <time>2026-08-28T17:50:13Z</time>
  <course>0.0</course>
  <speed>0.0</speed>
  <fix>3d</fix>
</trkpt>
<trkpt lat="40.0713749" lon="-105.229789">
  <ele>1583.0</ele>
  <time>2026-08-28T17:50:13Z</time>
  <course>248.39</course>
  <speed>0.01</speed>
  <fix>3d</fix>
</trkpt>
<trkpt lat="40.0713749" lon="-105.229789">
  <ele>1583.0</ele>
  <time>2026-08-28T17:50:13Z</time>
  <course>0.0</course>
  <speed>0.0</speed>
  <fix>3d</fix>
</trkpt>
<trkpt lat="40.0713749" lon="-105.229789">
  <ele>1583.0</ele>
  <time>2026-08-28T17:50:13Z</time>
  <course>248.38</course>
  <speed>0.01</speed>
  <fix>3d</fix>
</trkpt>
<trkpt lat="40.0713749" lon="-105.229789">
  <ele>1583.0</ele>
  <time>2026-08-28T17:50:13Z</time>
  <course>0.0</course>
  <speed>0.0</speed>
  <fix>3d</fix>
</trkpt>
<trkpt lat="40.0713749" lon="-105.229789">
  <ele>1583.0</ele>
  <time>2026-08-28T17:50:13Z</time>
  <course>248.38</course>
  <speed>0.01</speed>
  <fix>3d</fix>
</trkpt>
<trkpt lat="40.0713749" lon="-105.229789">
  <ele>1583.0</ele>
  <time>2026-08-28T17:50:13Z</time>
  <course>0.0</course>
  <speed>0.0</speed>
  <fix>3d</fix>
</trkpt>
<trkpt lat="40.0713749" lon="-105.229789">
  <ele>1583.0</ele>
  <time>2026-08-28T17:50:13Z</time>
  <course>248.38</course>
  <speed>0.01</speed>
  <fix>3d</fix>
</trkpt>
<trkpt lat="40.0713749" lon="-105.229789">
  <ele>1583.0</ele>
  <time>2026-08-28T17:50:13Z</time>
  <course>0.0</course>
  <speed>0.0</speed>
  <fix>3d</fix>
</trkpt>
<trkpt lat="40.0713749" lon="-105.229789">
  <ele>1583.0</ele>
  <time>2026-08-28T17:50:13Z</time>
  <course>248.37</course>
  <speed>0.01</speed>
  <fix>3d</fix>
</trkpt>
<trkpt lat="40.0713749" lon="-105.229789">
  <ele>1583.0</ele>
  <time>2026-08-28T17:50:13Z</time>
  <course>0.0</course>
  <speed>0.0</speed>
  <fix>3d</fix>
</trkpt>
<trkpt lat="40.0713749" lon="-105.229789">
  <ele>1583.0</ele>
  <time>2026-08-28T17:50:13Z</time>
  <course>248.37</course>
  <speed>0.01</speed>
  <fix>3d</fix>
</trkpt>
<trkpt lat="40.0713749" lon="-105.229789">
  <ele>1583.0</ele>
  <time>2026-08-28T17:50:13Z</time>
  <course>0.0</course>
  <speed>0.0</speed>
  <fix>3d</fix>
</trkpt>
<trkpt lat="40.0713749" lon="-105.229789">
  <ele>1583.0</ele>
  <time>2026-08-28T17:50:13Z</time>
  <course>248.37</course>
  <speed>0.01</speed>
  <fix>3d</fix>
</trkpt>
<trkpt lat="40.0713749" lon="-105.229789">
  <ele>1583.0</ele>
  <time>2026-08-28T17:50:13Z</time>
  <course>0.0</course>
  <speed>0.0</speed>
  <fix>3d</fix>
</trkpt>
<trkpt lat="40.0713749" lon="-105.229789">
  <ele>1583.0</ele>
  <time>2026-08-28T17:50:13Z</time>
  <course>248.36</course>
  <speed>0.01</speed>
  <fix>3d</fix>
</trkpt>
<trkpt lat="40.0713749" lon="-105.229789">
  <ele>1583.0</ele>
  <time>2026-08-28T17:50:13Z</time>
  <course>0.0</course>
  <speed>0.0</speed>
  <fix>3d</fix>
</trkpt>
<trkpt lat="40.0713749" lon="-105.229789">
  <ele>1583.0</ele>
  <time>2026-08-28T17:50:13Z</time>
  <course>248.36</course>
  <speed>0.01</speed>
  <fix>3d</fix>
</trkpt>
<trkpt lat="40.0713749" lon="-105.229789">
  <ele>1583.0</ele>
  <time>2026-08-28T17:50:13Z</time>
  <course>0.0</course>
  <speed>0.0</speed>
  <fix>3d</fix>
</trkpt>
<trkpt lat="40.0713749" lon="-105.229789">
  <ele>1583.0</ele>
  <time>2026-08-28T17:50:13Z</time>
  <course>248.36</course>
  <speed>0.01</speed>
  <fix>3d</fix>
</trkpt>
<trkpt lat="40.0713749" lon="-105.229789">
  <ele>1583.0</ele>
  <time>2026-08-28T17:50:13Z</time>
  <course>0.0</course>
  <speed>0.0</speed>
  <fix>3d</fix>
</trkpt>
<trkpt lat="40.0713749" lon="-105.229789">
  <ele>1583.0</ele>
  <time>2026-08-28T17:50:13Z</time>
  <course>248.35</course>
  <speed>0.01</speed>
  <fix>3d</fix>
</trkpt>
<trkpt lat="40.0713749" lon="-105.229789">
  <ele>1583.0</ele>
  <time>2026-08-28T17:50:13Z</time>
  <course>0.0</course>
  <speed>0.0</speed>
  <fix>3d</fix>
</trkpt>
<trkpt lat="40.0713749" lon="-105.229789">
  <ele>1583.0</ele>
  <time>2026-08-28T17:50:13Z</time>
  <course>248.35</course>
  <speed>0.01</speed>
  <fix>3d</fix>
</trkpt>
<trkpt lat="40.0713749" lon="-105.229789">
  <ele>1583.0</ele>
  <time>2026-08-28T17:50:13Z</time>
  <course>0.0</course>
  <speed>0.0</speed>
  <fix>3d</fix>
</trkpt>
<trkpt lat="40.0713749" lon="-105.229789">
  <ele>1583.0</ele>
  <time>2026-08-28T17:50:13Z</time>
  <course>248.35</course>
  <speed>0.01</speed>
  <fix>3d</fix>
</trkpt>
<trkpt lat="40.0713749" lon="-105.229789">
  <ele>1583.0</ele>
  <time>2026-08-28T17:50:13Z</time>
  <course>0.0</course>
  <speed>0.0</speed>
  <fix>3d</fix>
</trkpt>
<trkpt lat="40.0713749" lon="-105.229789">
  <ele>1583.0</ele>
  <time>2026-08-28T17:50:13Z</time>
  <course>248.34</course>
  <speed>0.01</speed>
  <fix>3d</fix>
</trkpt>
<trkpt lat="40.0713749" lon="-105.229789">
  <ele>1583.0</ele>
  <time>2026-08-28T17:50:13Z</time>
  <course>0.0</course>
  <speed>0.0</speed>
  <fix>3d</fix>
</trkpt>
<trkpt lat="40.0713749" lon="-105.229789">
  <ele>1583.0</ele>
  <time>2026-08-28T17:50:13Z</time>
  <course>248.34</course>
  <speed>0.01</speed>
  <fix>3d</fix>
</trkpt>
<trkpt lat="40.0713749" lon="-105.229789">
  <ele>1583.0</ele>
  <time>2026-08-28T17:50:13Z</time>
  <course>0.0</course>
  <speed>0.0</speed>
  <fix>3d</fix>
</trkpt>
<trkpt lat="40.0713749" lon="-105.229789">
  <ele>1583.0</ele>
  <time>2026-08-28T17:50:13Z</time>
  <course>248.33</course>
  <speed>0.01</speed>
  <fix>3d</fix>
</trkpt>
<trkpt lat="40.0713749" lon="-105.229789">
  <ele>1583.0</ele>
  <time>2026-08-28T17:50:13Z</time>
  <course>0.0</course>
  <speed>0.0</speed>
  <fix>3d</fix>
</trkpt>
<trkpt lat="40.0713749" lon="-105.229789">
  <ele>1583.0</ele>
  <time>2026-08-28T17:50:13Z</time>
  <course>248.33</course>
  <speed>0.01</speed>
  <fix>3d</fix>
</trkpt>
<trkpt lat="40.0713749" lon="-105.229789">
  <ele>1583.0</ele>
  <time>2026-08-28T17:50:13Z</time>
  <course>0.0</course>
  <speed>0.0</speed>
  <fix>3d</fix>
</trkpt>
<trkpt lat="40.0713749" lon="-105.229789">
  <ele>1583.0</ele>
  <time>2026-08-28T17:50:13Z</time>
  <course>248.32</course>
  <speed>0.01</speed>
  <fix>3d</fix>
</trkpt>
<trkpt lat="40.0713749" lon="-105.229789">
  <ele>1583.0</ele>
  <time>2026-08-28T17:50:13Z</time>
  <course>0.0</course>
  <speed>0.0</speed>
  <fix>3d</fix>
</trkpt>
<trkpt lat="40.0713749" lon="-105.229789">
  <ele>1583.0</ele>
  <time>2026-08-28T17:50:13Z</time>
  <course>248.32</course>
  <speed>0.01</speed>
  <fix>3d</fix>
</trkpt>
<trkpt lat="40.0713749" lon="-105.229789">
  <ele>1583.0</ele>
  <time>2026-08-28T17:50:13Z</time>
  <course>0.0</course>
  <speed>0.0</speed>
  <fix>3d</fix>
</trkpt>
<trkpt lat="40.0713749" lon="-105.229789">
  <ele>1583.0</ele>
  <time>2026-08-28T17:50:13Z</time>
  <course>248.32</course>
  <speed>0.01</speed>
  <fix>3d</fix>
</trkpt>
<trkpt lat="40.0713749" lon="-105.229789">
  <ele>1583.0</ele>
  <time>2026-08-28T17:50:13Z</time>
  <course>0.0</course>
  <speed>0.0</speed>
  <fix>3d</fix>
</trkpt>
<trkpt lat="40.0713749" lon="-105.229789">
  <ele>1583.0</ele>
  <time>2026-08-28T17:50:13Z</time>
  <course>248.31</course>
  <speed>0.01</speed>
  <fix>3d</fix>
</trkpt>
<trkpt lat="40.0713749" lon="-105.229789">
  <ele>1583.0</ele>
  <time>2026-08-28T17:50:13Z</time>
  <course>0.0</course>
  <speed>0.0</speed>
  <fix>3d</fix>
</trkpt>
<trkpt lat="40.0713749" lon="-105.229789">
  <ele>1583.0</ele>
  <time>2026-08-28T17:50:13Z</time>
  <course>248.31</course>
  <speed>0.01</speed>
  <fix>3d</fix>
</trkpt>
<trkpt lat="40.0713749" lon="-105.229789">
  <ele>1583.0</ele>
  <time>2026-08-28T17:50:13Z</time>
  <course>0.0</course>
  <speed>0.0</speed>
  <fix>3d</fix>
</trkpt>
<trkpt lat="40.0713749" lon="-105.229789">
  <ele>1583.0</ele>
  <time>2026-08-28T17:50:13Z</time>
  <course>248.3</course>
  <speed>0.01</speed>
  <fix>3d</fix>
</trkpt>
<trkpt lat="40.0713749" lon="-105.229789">
  <ele>1583.0</ele>
  <time>2026-08-28T17:50:13Z</time>
  <course>0.0</course>
  <speed>0.0</speed>
  <fix>3d</fix>
</trkpt>
<trkpt lat="40.0713749" lon="-105.229789">
  <ele>1583.0</ele>
  <time>2026-08-28T17:50:13Z</time>
  <course>248.3</course>
  <speed>0.01</speed>
  <fix>3d</fix>
</trkpt>
<trkpt lat="40.0713749" lon="-105.229789">
  <ele>1583.0</ele>
  <time>2026-08-28T17:50:13Z</time>
  <course>0.0</course>
  <speed>0.0</speed>
  <fix>3d</fix>
</trkpt>
<trkpt lat="40.0713749" lon="-105.229789">
  <ele>1583.0</ele>
  <time>2026-08-28T17:50:13Z</time>
  <course>248.29</course>
  <speed>0.01</speed>
  <fix>3d</fix>
</trkpt>
<trkpt lat="40.0713749" lon="-105.229789">
  <ele>1583.0</ele>
  <time>2026-08-28T17:50:13Z</time>
  <course>0.0</course>
  <speed>0.0</speed>
  <fix>3d</fix>
</trkpt>
<trkpt lat="40.0713749" lon="-105.229789">
  <ele>1583.0</ele>
  <time>2026-08-28T17:50:13Z</time>
  <course>248.29</course>
  <speed>0.01</speed>
  <fix>3d</fix>
</trkpt>
<trkpt lat="40.0713749" lon="-105.229789">
  <ele>1583.0</ele>
  <time>2026-08-28T17:50:13Z</time>
  <course>0.0</course>
  <speed>0.0</speed>
  <fix>3d</fix>
</trkpt>
<trkpt lat="40.0713749" lon="-105.229789">
  <ele>1583.0</ele>
  <time>2026-08-28T17:50:13Z</time>
  <course>248.28</course>
  <speed>0.01</speed>
  <fix>3d</fix>
</trkpt>
<trkpt lat="40.0713749" lon="-105.229789">
  <ele>1583.0</ele>
  <time>2026-08-28T17:50:13Z</time>
  <course>0.0</course>
  <speed>0.0</speed>
  <fix>3d</fix>
</trkpt>
<trkpt lat="40.0713749" lon="-105.229789">
  <ele>1583.0</ele>
  <time>2026-08-28T17:50:13Z</time>
  <course>248.28</course>
  <speed>0.01</speed>
  <fix>3d</fix>
</trkpt>
<trkpt lat="40.0713749" lon="-105.229789">
  <ele>1583.0</ele>
  <time>2026-08-28T17:50:13Z</time>
  <course>0.0</course>
  <speed>0.0</speed>
  <fix>3d</fix>
</trkpt>
<trkpt lat="40.0713749" lon="-105.229789">
  <ele>1583.0</ele>
  <time>2026-08-28T17:50:13Z</time>
  <course>248.27</course>
  <speed>0.01</speed>
  <fix>3d</fix>
</trkpt>
<trkpt lat="40.0713749" lon="-105.229789">
  <ele>1583.0</ele>
  <time>2026-08-28T17:50:13Z</time>
  <course>0.0</course>
  <speed>0.0</speed>
  <fix>3d</fix>
</trkpt>
<trkpt lat="40.0713749" lon="-105.229789">
  <ele>1583.0</ele>
  <time>2026-08-28T17:50:13Z</time>
  <course>248.27</course>
  <speed>0.01</speed>
  <fix>3d</fix>
</trkpt>
<trkpt lat="40.0713749" lon="-105.229789">
  <ele>1583.0</ele>
  <time>2026-08-28T17:50:13Z</time>
  <course>0.0</course>
  <speed>0.0</speed>
  <fix>3d</fix>
</trkpt>
<trkpt lat="40.0713749" lon="-105.229789">
  <ele>1583.0</ele>
  <time>2026-08-28T17:50:13Z</time>
  <course>248.26</course>
  <speed>0.01</speed>
  <fix>3d</fix>
</trkpt>
<trkpt lat="40.0713749" lon="-105.229789">
  <ele>1583.0</ele>
  <time>2026-08-28T17:50:13Z</time>
  <course>0.0</course>
  <speed>0.0</speed>
  <fix>3d</fix>
</trkpt>
<trkpt lat="40.0713749" lon="-105.229789">
  <ele>1583.0</ele>
  <time>2026-08-28T17:50:13Z</time>
  <course>248.26</course>
  <speed>0.01</speed>
  <fix>3d</fix>
</trkpt>
<trkpt lat="40.0713749" lon="-105.229789">
  <ele>1583.0</ele>
  <time>2026-08-28T17:50:13Z</time>
  <course>0.0</course>
  <speed>0.0</speed>
  <fix>3d</fix>
</trkpt>
<trkpt lat="40.0713749" lon="-105.229789">
  <ele>1583.0</ele>
  <time>2026-08-28T17:50:13Z</time>
  <course>248.26</course>
  <speed>0.01</speed>
  <fix>3d</fix>
</trkpt>
<trkpt lat="40.0713749" lon="-105.229789">
  <ele>1583.0</ele>
  <time>2026-08-28T17:50:13Z</time>
  <course>0.0</course>
  <speed>0.0</speed>
  <fix>3d</fix>
</trkpt>
<trkpt lat="40.0713749" lon="-105.229789">
  <ele>1583.0</ele>
  <time>2026-08-28T17:50:13Z</time>
  <course>248.25</course>
  <speed>0.01</speed>
  <fix>3d</fix>
</trkpt>
<trkpt lat="40.0713749" lon="-105.229789">
  <ele>1583.0</ele>
  <time>2026-08-28T17:50:13Z</time>
  <course>0.0</course>
  <speed>0.0</speed>
  <fix>3d</fix>
</trkpt>
<trkpt lat="40.0713749" lon="-105.229789">
  <ele>1583.0</ele>
  <time>2026-08-28T17:50:13Z</time>
  <course>248.25</course>
  <speed>0.01</speed>
  <fix>3d</fix>
</trkpt>
<trkpt lat="40.0713749" lon="-105.229789">
  <ele>1583.0</ele>
  <time>2026-08-28T17:50:13Z</time>
  <course>0.0</course>
  <speed>0.0</speed>
  <fix>3d</fix>
</trkpt>
<trkpt lat="40.0713749" lon="-105.229789">
  <ele>1583.0</ele>
  <time>2026-08-28T17:50:13Z</time>
  <course>248.24</course>
  <speed>0.01</speed>
  <fix>3d</fix>
</trkpt>
<trkpt lat="40.0713749" lon="-105.229789">
  <ele>1583.0</ele>
  <time>2026-08-28T17:50:13Z</time>
  <course>0.0</course>
  <speed>0.0</speed>
  <fix>3d</fix>
</trkpt>
<trkpt lat="40.0713749" lon="-105.229789">
  <ele>1583.0</ele>
  <time>2026-08-28T17:50:13Z</time>
  <course>248.24</course>
  <speed>0.01</speed>
  <fix>3d</fix>
</trkpt>
<trkpt lat="40.0713749" lon="-105.229789">
  <ele>1583.0</ele>
  <time>2026-08-28T17:50:13Z</time>
  <course>0.0</course>
  <speed>0.0</speed>
  <fix>3d</fix>
</trkpt>
<trkpt lat="40.0713749" lon="-105.229789">
  <ele>1583.0</ele>
  <time>2026-08-28T17:50:13Z</time>
  <course>248.23</course>
  <speed>0.01</speed>
  <fix>3d</fix>
</trkpt>
<trkpt lat="40.0713749" lon="-105.229789">
  <ele>1583.0</ele>
  <time>2026-08-28T17:50:13Z</time>
  <course>0.0</course>
  <speed>0.0</speed>
  <fix>3d</fix>
</trkpt>
<trkpt lat="40.0713749" lon="-105.229789">
  <ele>1583.0</ele>
  <time>2026-08-28T17:50:13Z</time>
  <course>248.23</course>
  <speed>0.01</speed>
  <fix>3d</fix>
</trkpt>
<trkpt lat="40.0713749" lon="-105.229789">
  <ele>1583.0</ele>
  <time>2026-08-28T17:50:13Z</time>
  <course>0.0</course>
  <speed>0.0</speed>
  <fix>3d</fix>
</trkpt>
<trkpt lat="40.0713749" lon="-105.229789">
  <ele>1583.0</ele>
  <time>2026-08-28T17:50:13Z</time>
  <course>248.22</course>
  <speed>0.01</speed>
  <fix>3d</fix>
</trkpt>
<trkpt lat="40.0713749" lon="-105.229789">
  <ele>1583.0</ele>
  <time>2026-08-28T17:50:13Z</time>
  <course>0.0</course>
  <speed>0.0</speed>
  <fix>3d</fix>
</trkpt>
<trkpt lat="40.0713749" lon="-105.229789">
  <ele>1583.0</ele>
  <time>2026-08-28T17:50:13Z</time>
  <course>248.22</course>
  <speed>0.01</speed>
  <fix>3d</fix>
</trkpt>
<trkpt lat="40.0713749" lon="-105.229789">
  <ele>1583.0</ele>
  <time>2026-08-28T17:50:13Z</time>
  <course>0.0</course>
  <speed>0.0</speed>
  <fix>3d</fix>
</trkpt>
<trkpt lat="40.0713749" lon="-105.229789">
  <ele>1583.0</ele>
  <time>2026-08-28T17:50:13Z</time>
  <course>248.21</course>
  <speed>0.01</speed>
  <fix>3d</fix>
</trkpt>
<trkpt lat="40.0713749" lon="-105.229789">
  <ele>1583.0</ele>
  <time>2026-08-28T17:50:13Z</time>
  <course>0.0</course>
  <speed>0.0</speed>
  <fix>3d</fix>
</trkpt>
<trkpt lat="40.0713749" lon="-105.229789">
  <ele>1583.0</ele>
  <time>2026-08-28T17:50:13Z</time>
  <course>248.21</course>
  <speed>0.01</speed>
  <fix>3d</fix>
</trkpt>
<trkpt lat="40.0713749" lon="-105.229789">
  <ele>1583.0</ele>
  <time>2026-08-28T17:50:13Z</time>
  <course>0.0</course>
  <speed>0.0</speed>
  <fix>3d</fix>
</trkpt>
<trkpt lat="40.0713749" lon="-105.229789">
  <ele>1583.0</ele>
  <time>2026-08-28T17:50:13Z</time>
  <course>248.2</course>
  <speed>0.01</speed>
  <fix>3d</fix>
</trkpt>
<trkpt lat="40.0713749" lon="-105.229789">
  <ele>1583.0</ele>
  <time>2026-08-28T17:50:13Z</time>
  <course>0.0</course>
  <speed>0.0</speed>
  <fix>3d</fix>
</trkpt>
<trkpt lat="40.0713749" lon="-105.229789">
  <ele>1583.0</ele>
  <time>2026-08-28T17:50:13Z</time>
  <course>248.2</course>
  <speed>0.01</speed>
  <fix>3d</fix>
</trkpt>
<trkpt lat="40.0713749" lon="-105.229789">
  <ele>1583.0</ele>
  <time>2026-08-28T17:50:13Z</time>
  <course>0.0</course>
  <speed>0.0</speed>
  <fix>3d</fix>
</trkpt>
<trkpt lat="40.0713749" lon="-105.229789">
  <ele>1583.0</ele>
  <time>2026-08-28T17:50:13Z</time>
  <course>248.19</course>
  <speed>0.01</speed>
  <fix>3d</fix>
</trkpt>
<trkpt lat="40.0713749" lon="-105.229789">
  <ele>1583.0</ele>
  <time>2026-08-28T17:50:13Z</time>
  <course>0.0</course>
  <speed>0.0</speed>
  <fix>3d</fix>
</trkpt>
<trkpt lat="40.0713749" lon="-105.229789">
  <ele>1583.0</ele>
  <time>2026-08-28T17:50:13Z</time>
  <course>248.19</course>
  <speed>0.01</speed>
  <fix>3d</fix>
</trkpt>
<trkpt lat="40.0713749" lon="-105.229789">
  <ele>1583.0</ele>
  <time>2026-08-28T17:50:13Z</time>
  <course>0.0</course>
  <speed>0.0</speed>
  <fix>3d</fix>
</trkpt>
<trkpt lat="40.0713749" lon="-105.229789">
  <ele>1583.0</ele>
  <time>2026-08-28T17:50:13Z</time>
  <course>248.18</course>
  <speed>0.01</speed>
  <fix>3d</fix>
</trkpt>
<trkpt lat="40.0713749" lon="-105.229789">
  <ele>1583.0</ele>
  <time>2026-08-28T17:50:13Z</time>
  <course>0.0</course>
  <speed>0.0</speed>
  <fix>3d</fix>
</trkpt>
<trkpt lat="40.0713749" lon="-105.229789">
  <ele>1583.0</ele>
  <time>2026-08-28T17:50:13Z</time>
  <course>248.18</course>
  <speed>0.01</speed>
  <fix>3d</fix>
</trkpt>
<trkpt lat="40.0713749" lon="-105.229789">
  <ele>1583.0</ele>
  <time>2026-08-28T17:50:13Z</time>
  <course>0.0</course>
  <speed>0.0</speed>
  <fix>3d</fix>
</trkpt>
<trkpt lat="40.0713749" lon="-105.229789">
  <ele>1583.0</ele>
  <time>2026-08-28T17:50:13Z</time>
  <course>248.17</course>
  <speed>0.022360679774997897</speed>
  <fix>3d</fix>
</trkpt>
<trkpt lat="40.0713749" lon="-105.229789">
  <ele>1583.0</ele>
  <time>2026-08-28T17:50:13Z</time>
  <course>0.0</course>
  <speed>0.0</speed>
  <fix>3d</fix>
</trkpt>
<trkpt lat="40.0713749" lon="-105.229789">
  <ele>1583.0</ele>
  <time>2026-08-28T17:50:13Z</time>
  <course>248.17</course>
  <speed>0.022360679774997897</speed>
  <fix>3d</fix>
</trkpt>
<trkpt lat="40.0713749" lon="-105.229789">
  <ele>1583.0</ele>
  <time>2026-08-28T17:50:13Z</time>
  <course>0.0</course>
  <speed>0.0</speed>
  <fix>3d</fix>
</trkpt>
<trkpt lat="40.0713749" lon="-105.229789">
  <ele>1583.0</ele>
  <time>2026-08-28T17:50:13Z</time>
  <course>248.16</course>
  <speed>0.022360679774997897</speed>
  <fix>3d</fix>
</trkpt>
<trkpt lat="40.0713749" lon="-105.229789">
  <ele>1583.0</ele>
  <time>2026-08-28T17:50:13Z</time>
  <course>0.0</course>
  <speed>0.0</speed>
  <fix>3d</fix>
</trkpt>
<trkpt lat="40.0713749" lon="-105.229789">
  <ele>1583.0</ele>
  <time>2026-08-28T17:50:13Z</time>
  <course>248.16</course>
  <speed>0.022360679774997897</speed>
  <fix>3d</fix>
</trkpt>
<trkpt lat="40.0713749" lon="-105.229789">
  <ele>1583.0</ele>
  <time>2026-08-28T17:50:13Z</time>
  <course>0.0</course>
  <speed>0.0</speed>
  <fix>3d</fix>
</trkpt>
<trkpt lat="40.0713749" lon="-105.229789">
  <ele>1583.0</ele>
  <time>2026-08-28T17:50:13Z</time>
  <course>248.15</course>
  <speed>0.022360679774997897</speed>
  <fix>3d</fix>
</trkpt>
<trkpt lat="40.0713749" lon="-105.229789">
  <ele>1583.0</ele>
  <time>2026-08-28T17:50:13Z</time>
  <course>0.0</course>
  <speed>0.0</speed>
  <fix>3d</fix>
</trkpt>
<trkpt lat="40.0713749" lon="-105.229789">
  <ele>1583.0</ele>
  <time>2026-08-28T17:50:13Z</time>
  <course>248.15</course>
  <speed>0.022360679774997897</speed>
  <fix>3d</fix>
</trkpt>
<trkpt lat="40.0713749" lon="-105.229789">
  <ele>1583.0</ele>
  <time>2026-08-28T17:50:13Z</time>
  <course>0.0</course>
  <speed>0.0</speed>
  <fix>3d</fix>
</trkpt>
<trkpt lat="40.0713749" lon="-105.229789">
  <ele>1583.0</ele>
  <time>2026-08-28T17:50:13Z</time>
  <course>248.14</course>
  <speed>0.022360679774997897</speed>
  <fix>3d</fix>
</trkpt>
<trkpt lat="40.0713749" lon="-105.229789">
  <ele>1583.0</ele>
  <time>2026-08-28T17:50:13Z</time>
  <course>0.0</course>
  <speed>0.0</speed>
  <fix>3d</fix>
</trkpt>
<trkpt lat="40.0713749" lon="-105.229789">
  <ele>1583.0</ele>
  <time>2026-08-28T17:50:13Z</time>
  <course>248.14</course>
  <speed>0.022360679774997897</speed>
  <fix>3d</fix>
</trkpt>
<trkpt lat="40.0713749" lon="-105.229789">
  <ele>1583.0</ele>
  <time>2026-08-28T17:50:13Z</time>
  <course>0.0</course>
  <speed>0.0</speed>
  <fix>3d</fix>
</trkpt>
<trkpt lat="40.0713749" lon="-105.229789">
  <ele>1583.0</ele>
  <time>2026-08-28T17:50:13Z</time>
  <course>248.13</course>
  <speed>0.022360679774997897</speed>
  <fix>3d</fix>
</trkpt>
<trkpt lat="40.0713749" lon="-105.229789">
  <ele>1583.0</ele>
  <time>2026-08-28T17:50:13Z</time>
  <course>0.0</course>
  <speed>0.0</speed>
  <fix>3d</fix>
</trkpt>
<trkpt lat="40.0713749" lon="-105.229789">
  <ele>1583.0</ele>
  <time>2026-08-28T17:50:13Z</time>
  <course>248.13</course>
  <speed>0.022360679774997897</speed>
  <fix>3d</fix>
</trkpt>
<trkpt lat="40.0713749" lon="-105.229789">
  <ele>1583.0</ele>
  <time>2026-08-28T17:50:13Z</time>
  <course>0.0</course>
  <speed>0.0</speed>
  <fix>3d</fix>
</trkpt>
<trkpt lat="40.0713749" lon="-105.229789">
  <ele>1583.0</ele>
  <time>2026-08-28T17:50:13Z</time>
  <course>248.12</course>
  <speed>0.022360679774997897</speed>
  <fix>3d</fix>
</trkpt>
<trkpt lat="40.0713749" lon="-105.229789">
  <ele>1583.0</ele>
  <time>2026-08-28T17:50:13Z</time>
  <course>0.0</course>
  <speed>0.0</speed>
  <fix>3d</fix>
</trkpt>
<trkpt lat="40.0713749" lon="-105.229789">
  <ele>1583.0</ele>
  <time>2026-08-28T17:50:13Z</time>
  <course>248.12</course>
  <speed>0.022360679774997897</speed>
  <fix>3d</fix>
</trkpt>
<trkpt lat="40.0713749" lon="-105.229789">
  <ele>1583.0</ele>
  <time>2026-08-28T17:50:13Z</time>
  <course>0.0</course>
  <speed>0.0</speed>
  <fix>3d</fix>
</trkpt>
<trkpt lat="40.0713749" lon="-105.229789">
  <ele>1583.0</ele>
  <time>2026-08-28T17:50:13Z</time>
  <course>248.11</course>
  <speed>0.022360679774997897</speed>
  <fix>3d</fix>
</trkpt>
<trkpt lat="40.0713749" lon="-105.229789">
  <ele>1583.0</ele>
  <time>2026-08-28T17:50:13Z</time>
  <course>0.0</course>
  <speed>0.0</speed>
  <fix>3d</fix>
</trkpt>
<trkpt lat="40.0713749" lon="-105.229789">
  <ele>1583.0</ele>
  <time>2026-08-28T17:50:13Z</time>
  <course>248.11</course>
  <speed>0.022360679774997897</speed>
  <fix>3d</fix>
</trkpt>
<trkpt lat="40.0713749" lon="-105.229789">
  <ele>1583.0</ele>
  <time>2026-08-28T17:50:13Z</time>
  <course>0.0</course>
  <speed>0.0</speed>
  <fix>3d</fix>
</trkpt>
<trkpt lat="40.0713749" lon="-105.229789">
  <ele>1583.0</ele>
  <time>2026-08-28T17:50:13Z</time>
  <course>248.1</course>
  <speed>0.022360679774997897</speed>
  <fix>3d</fix>
</trkpt>
<trkpt lat="40.0713749" lon="-105.229789">
  <ele>1583.0</ele>
  <time>2026-08-28T17:50:13Z</time>
  <course>0.0</course>
  <speed>0.0</speed>
  <fix>3d</fix>
</trkpt>
<trkpt lat="40.0713749" lon="-105.229789">
  <ele>1583.0</ele>
  <time>2026-08-28T17:50:13Z</time>
  <course>248.1</course>
  <speed>0.022360679774997897</speed>
  <fix>3d</fix>
</trkpt>
<trkpt lat="40.0713749" lon="-105.229789">
  <ele>1583.0</ele>
  <time>2026-08-28T17:50:13Z</time>
  <course>0.0</course>
  <speed>0.0</speed>
  <fix>3d</fix>
</trkpt>
<trkpt lat="40.0713749" lon="-105.229789">
  <ele>1583.0</ele>
  <time>2026-08-28T17:50:13Z</time>
  <course>248.09</course>
  <speed>0.022360679774997897</speed>
  <fix>3d</fix>
</trkpt>
<trkpt lat="40.0713749" lon="-105.229789">
  <ele>1583.0</ele>
  <time>2026-08-28T17:50:13Z</time>
  <course>0.0</course>
  <speed>0.0</speed>
  <fix>3d</fix>
</trkpt>
<trkpt lat="40.0713749" lon="-105.229789">
  <ele>1583.0</ele>
  <time>2026-08-28T17:50:13Z</time>
  <course>248.09</course>
  <speed>0.022360679774997897</speed>
  <fix>3d</fix>
</trkpt>
<trkpt lat="40.0713749" lon="-105.229789">
  <ele>1583.0</ele>
  <time>2026-08-28T17:50:13Z</time>
  <course>0.0</course>
  <speed>0.0</speed>
  <fix>3d</fix>
</trkpt>
<trkpt lat="40.0713749" lon="-105.229789">
  <ele>1583.0</ele>
  <time>2026-08-28T17:50:13Z</time>
  <course>248.08</course>
  <speed>0.022360679774997897</speed>
  <fix>3d</fix>
</trkpt>
<trkpt lat="40.0713749" lon="-105.229789">
  <ele>1583.0</ele>
  <time>2026-08-28T17:50:13Z</time>
  <course>0.0</course>
  <speed>0.0</speed>
  <fix>3d</fix>
</trkpt>
<trkpt lat="40.0713749" lon="-105.229789">
  <ele>1583.0</ele>
  <time>2026-08-28T17:50:13Z</time>
  <course>248.08</course>
  <speed>0.022360679774997897</speed>
  <fix>3d</fix>
</trkpt>
<trkpt lat="40.0713749" lon="-105.229789">
  <ele>1583.0</ele>
  <time>2026-08-28T17:50:13Z</time>
  <course>0.0</course>
  <speed>0.0</speed>
  <fix>3d</fix>
</trkpt>
<trkpt lat="40.0713749" lon="-105.229789">
  <ele>1583.0</ele>
  <time>2026-08-28T17:50:13Z</time>
  <course>248.07</course>
  <speed>0.022360679774997897</speed>
  <fix>3d</fix>
</trkpt>
<trkpt lat="40.0713749" lon="-105.229789">
  <ele>1583.0</ele>
  <time>2026-08-28T17:50:13Z</time>
  <course>0.0</course>
  <speed>0.0</speed>
  <fix>3d</fix>
</trkpt>
<trkpt lat="40.0713749" lon="-105.229789">
  <ele>1583.0</ele>
  <time>2026-08-28T17:50:13Z</time>
  <course>248.07</course>
  <speed>0.022360679774997897</speed>
  <fix>3d</fix>
</trkpt>
<trkpt lat="40.0713749" lon="-105.229789">
  <ele>1583.0</ele>
  <time>2026-08-28T17:50:13Z</time>
  <course>0.0</course>
  <speed>0.0</speed>
  <fix>3d</fix>
</trkpt>
<trkpt lat="40.0713749" lon="-105.229789">
  <ele>1583.0</ele>
  <time>2026-08-28T17:50:13Z</time>
  <course>248.06</course>
  <speed>0.022360679774997897</speed>
  <fix>3d</fix>
</trkpt>
<trkpt lat="40.0713749" lon="-105.229789">
  <ele>1583.0</ele>
  <time>2026-08-28T17:50:13Z</time>
  <course>0.0</course>
  <speed>0.0</speed>
  <fix>3d</fix>
</trkpt>
<trkpt lat="40.0713749" lon="-105.229789">
  <ele>1583.0</ele>
  <time>2026-08-28T17:50:13Z</time>
  <course>248.06</course>
  <speed>0.022360679774997897</speed>
  <fix>3d</fix>
</trkpt>
<trkpt lat="40.0713749" lon="-105.229789">
  <ele>1583.0</ele>
  <time>2026-08-28T17:50:13Z</time>
  <course>0.0</course>
  <speed>0.0</speed>
  <fix>3d</fix>
</trkpt>
<trkpt lat="40.0713749" lon="-105.229789">
  <ele>1583.0</ele>
  <time>2026-08-28T17:50:13Z</time>
  <course>248.05</course>
  <speed>0.022360679774997897</speed>
  <fix>3d</fix>
</trkpt>
<trkpt lat="40.0713749" lon="-105.229789">
  <ele>1583.0</ele>
  <time>2026-08-28T17:50:13Z</time>
  <course>0.0</course>
  <speed>0.0</speed>
  <fix>3d</fix>
</trkpt>
<trkpt lat="40.0713749" lon="-105.229789">
  <ele>1583.0</ele>
  <time>2026-08-28T17:50:13Z</time>
  <course>248.05</course>
  <speed>0.022360679774997897</speed>
  <fix>3d</fix>
</trkpt>
<trkpt lat="40.0713749" lon="-105.229789">
  <ele>1583.0</ele>
  <time>2026-08-28T17:50:13Z</time>
  <course>0.0</course>
  <speed>0.0</speed>
  <fix>3d</fix>
</trkpt>
<trkpt lat="40.0713749" lon="-105.229789">
  <ele>1583.0</ele>
  <time>2026-08-28T17:50:13Z</time>
  <course>248.05</course>
  <speed>0.022360679774997897</speed>
  <fix>3d</fix>
</trkpt>
<trkpt lat="40.0713749" lon="-105.229789">
  <ele>1583.0</ele>
  <time>2026-08-28T17:50:13Z</time>
  <course>0.0</course>
  <speed>0.0</speed>
  <fix>3d</fix>
</trkpt>
<trkpt lat="40.0713749" lon="-105.229789">
  <ele>1583.0</ele>
  <time>2026-08-28T17:50:13Z</time>
  <course>248.04</course>
  <speed>0.022360679774997897</speed>
  <fix>3d</fix>
</trkpt>
<trkpt lat="40.0713749" lon="-105.229789">
  <ele>1583.0</ele>
  <time>2026-08-28T17:50:13Z</time>
  <course>0.0</course>
  <speed>0.0</speed>
  <fix>3d</fix>
</trkpt>
<trkpt lat="40.0713749" lon="-105.229789">
  <ele>1583.0</ele>
  <time>2026-08-28T17:50:13Z</time>
  <course>248.04</course>
  <speed>0.022360679774997897</speed>
  <fix>3d</fix>
</trkpt>
<trkpt lat="40.0713749" lon="-105.229789">
  <ele>1583.0</ele>
  <time>2026-08-28T17:50:13Z</time>
  <course>0.0</course>
  <speed>0.0</speed>
  <fix>3d</fix>
</trkpt>
<trkpt lat="40.0713749" lon="-105.229789">
  <ele>1583.0</ele>
  <time>2026-08-28T17:50:13Z</time>
  <course>248.03</course>
  <speed>0.022360679774997897</speed>
  <fix>3d</fix>
</trkpt>
<trkpt lat="40.0713749" lon="-105.229789">
  <ele>1583.0</ele>
  <time>2026-08-28T17:50:13Z</time>
  <course>0.0</course>
  <speed>0.0</speed>
  <fix>3d</fix>
</trkpt>
<trkpt lat="40.0713749" lon="-105.229789">
  <ele>1583.0</ele>
  <time>2026-08-28T17:50:13Z</time>
  <course>248.03</course>
  <speed>0.022360679774997897</speed>
  <fix>3d</fix>
</trkpt>
<trkpt lat="40.0713749" lon="-105.229789">
  <ele>1583.0</ele>
  <time>2026-08-28T17:50:13Z</time>
  <course>0.0</course>
  <speed>0.0</speed>
  <fix>3d</fix>
</trkpt>
<trkpt lat="40.0713749" lon="-105.229789">
  <ele>1583.0</ele>
  <time>2026-08-28T17:50:13Z</time>
  <course>248.02</course>
  <speed>0.022360679774997897</speed>
  <fix>3d</fix>
</trkpt>
<trkpt lat="40.0713749" lon="-105.229789">
  <ele>1583.0</ele>
  <time>2026-08-28T17:50:13Z</time>
  <course>0.0</course>
  <speed>0.0</speed>
  <fix>3d</fix>
</trkpt>
<trkpt lat="40.0713749" lon="-105.229789">
  <ele>1583.0</ele>
  <time>2026-08-28T17:50:13Z</time>
  <course>248.02</course>
  <speed>0.022360679774997897</speed>
  <fix>3d</fix>
</trkpt>
<trkpt lat="40.0713749" lon="-105.229789">
  <ele>1583.0</ele>
  <time>2026-08-28T17:50:13Z</time>
  <course>0.0</course>
  <speed>0.0</speed>
  <fix>3d</fix>
</trkpt>
<trkpt lat="40.0713749" lon="-105.229789">
  <ele>1583.0</ele>
  <time>2026-08-28T17:50:13Z</time>
  <course>248.01</course>
  <speed>0.022360679774997897</speed>
  <fix>3d</fix>
</trkpt>
<trkpt lat="40.0713749" lon="-105.229789">
  <ele>1583.0</ele>
  <time>2026-08-28T17:50:13Z</time>
  <course>0.0</course>
  <speed>0.0</speed>
  <fix>3d</fix>
</trkpt>
<trkpt lat="40.0713749" lon="-105.229789">
  <ele>1583.0</ele>
  <time>2026-08-28T17:50:13Z</time>
  <course>248.01</course>
  <speed>0.022360679774997897</speed>
  <fix>3d</fix>
</trkpt>
<trkpt lat="40.0713749" lon="-105.229789">
  <ele>1583.0</ele>
  <time>2026-08-28T17:50:13Z</time>
  <course>0.0</course>
  <speed>0.0</speed>
  <fix>3d</fix>
</trkpt>
<trkpt lat="40.0713749" lon="-105.229789">
  <ele>1583.0</ele>
  <time>2026-08-28T17:50:13Z</time>
  <course>248.0</course>
  <speed>0.022360679774997897</speed>
  <fix>3d</fix>
</trkpt>
<trkpt lat="40.0713749" lon="-105.229789">
  <ele>1583.0</ele>
  <time>2026-08-28T17:50:13Z</time>
  <course>0.0</course>
  <speed>0.0</speed>
  <fix>3d</fix>
</trkpt>
<trkpt lat="40.0713749" lon="-105.229789">
  <ele>1583.0</ele>
  <time>2026-08-28T17:50:13Z</time>
  <course>248.0</course>
  <speed>0.022360679774997897</speed>
  <fix>3d</fix>
</trkpt>
<trkpt lat="40.0713749" lon="-105.229789">
  <ele>1583.0</ele>
  <time>2026-08-28T17:50:13Z</time>
  <course>0.0</course>
  <speed>0.0</speed>
  <fix>3d</fix>
</trkpt>
<trkpt lat="40.0713749" lon="-105.229789">
  <ele>1583.0</ele>
  <time>2026-08-28T17:50:13Z</time>
  <course>247.99</course>
  <speed>0.022360679774997897</speed>
  <fix>3d</fix>
</trkpt>
<trkpt lat="40.0713749" lon="-105.229789">
  <ele>1583.0</ele>
  <time>2026-08-28T17:50:13Z</time>
  <course>0.0</course>
  <speed>0.0</speed>
  <fix>3d</fix>
</trkpt>
<trkpt lat="40.0713749" lon="-105.229789">
  <ele>1583.0</ele>
  <time>2026-08-28T17:50:13Z</time>
  <course>247.99</course>
  <speed>0.022360679774997897</speed>
  <fix>3d</fix>
</trkpt>
<trkpt lat="40.0713749" lon="-105.229789">
  <ele>1583.0</ele>
  <time>2026-08-28T17:50:13Z</time>
  <course>0.0</course>
  <speed>0.0</speed>
  <fix>3d</fix>
</trkpt>
<trkpt lat="40.0713749" lon="-105.229789">
  <ele>1583.0</ele>
  <time>2026-08-28T17:50:13Z</time>
  <course>247.99</course>
  <speed>0.022360679774997897</speed>
  <fix>3d</fix>
</trkpt>
<trkpt lat="40.0713749" lon="-105.229789">
  <ele>1583.0</ele>
  <time>2026-08-28T17:50:13Z</time>
  <course>0.0</course>
  <speed>0.0</speed>
  <fix>3d</fix>
</trkpt>
<trkpt lat="40.0713749" lon="-105.229789">
  <ele>1583.0</ele>
  <time>2026-08-28T17:50:13Z</time>
  <course>247.98</course>
  <speed>0.022360679774997897</speed>
  <fix>3d</fix>
</trkpt>
<trkpt lat="40.0713749" lon="-105.229789">
  <ele>1583.0</ele>
  <time>2026-08-28T17:50:13Z</time>
  <course>0.0</course>
  <speed>0.0</speed>
  <fix>3d</fix>
</trkpt>
<trkpt lat="40.0713749" lon="-105.229789">
  <ele>1583.0</ele>
  <time>2026-08-28T17:50:13Z</time>
  <course>247.98</course>
  <speed>0.022360679774997897</speed>
  <fix>3d</fix>
</trkpt>
<trkpt lat="40.0713749" lon="-105.229789">
  <ele>1583.0</ele>
  <time>2026-08-28T17:50:13Z</time>
  <course>0.0</course>
  <speed>0.0</speed>
  <fix>3d</fix>
</trkpt>
<trkpt lat="40.0713749" lon="-105.229789">
  <ele>1583.0</ele>
  <time>2026-08-28T17:50:13Z</time>
  <course>247.97</course>
  <speed>0.022360679774997897</speed>
  <fix>3d</fix>
</trkpt>
<trkpt lat="40.0713749" lon="-105.229789">
  <ele>1583.0</ele>
  <time>2026-08-28T17:50:13Z</time>
  <course>0.0</course>
  <speed>0.0</speed>
  <fix>3d</fix>
</trkpt>
<trkpt lat="40.0713749" lon="-105.229789">
  <ele>1583.0</ele>
  <time>2026-08-28T17:50:13Z</time>
  <course>247.97</course>
  <speed>0.022360679774997897</speed>
  <fix>3d</fix>
</trkpt>
<trkpt lat="40.0713749" lon="-105.229789">
  <ele>1583.0</ele>
  <time>2026-08-28T17:50:13Z</time>
  <course>0.0</course>
  <speed>0.0</speed>
  <fix>3d</fix>
</trkpt>
<trkpt lat="40.0713749" lon="-105.229789">
  <ele>1583.0</ele>
  <time>2026-08-28T17:50:13Z</time>
  <course>247.96</course>
  <speed>0.022360679774997897</speed>
  <fix>3d</fix>
</trkpt>
<trkpt lat="40.0713749" lon="-105.229789">
  <ele>1583.0</ele>
  <time>2026-08-28T17:50:13Z</time>
  <course>0.0</course>
  <speed>0.0</speed>
  <fix>3d</fix>
</trkpt>
<trkpt lat="40.0713749" lon="-105.229789">
  <ele>1583.0</ele>
  <time>2026-08-28T17:50:13Z</time>
  <course>247.96</course>
  <speed>0.022360679774997897</speed>
  <fix>3d</fix>
</trkpt>
<trkpt lat="40.0713749" lon="-105.229789">
  <ele>1583.0</ele>
  <time>2026-08-28T17:50:13Z</time>
  <course>0.0</course>
  <speed>0.0</speed>
  <fix>3d</fix>
</trkpt>
<trkpt lat="40.0713749" lon="-105.229789">
  <ele>1583.0</ele>
  <time>2026-08-28T17:50:13Z</time>
  <course>247.95</course>
  <speed>0.022360679774997897</speed>
  <fix>3d</fix>
</trkpt>
<trkpt lat="40.0713749" lon="-105.229789">
  <ele>1583.0</ele>
  <time>2026-08-28T17:50:13Z</time>
  <course>0.0</course>
  <speed>0.0</speed>
  <fix>3d</fix>
</trkpt>
<trkpt lat="40.0713749" lon="-105.229789">
  <ele>1583.0</ele>
  <time>2026-08-28T17:50:13Z</time>
  <course>247.95</course>
  <speed>0.022360679774997897</speed>
  <fix>3d</fix>
</trkpt>
<trkpt lat="40.0713749" lon="-105.229789">
  <ele>1583.0</ele>
  <time>2026-08-28T17:50:13Z</time>
  <course>0.0</course>
  <speed>0.0</speed>
  <fix>3d</fix>
</trkpt>
<trkpt lat="40.0713749" lon="-105.229789">
  <ele>1583.0</ele>
  <time>2026-08-28T17:50:13Z</time>
  <course>247.95</course>
  <speed>0.022360679774997897</speed>
  <fix>3d</fix>
</trkpt>
<trkpt lat="40.0713749" lon="-105.229789">
  <ele>1583.0</ele>
  <time>2026-08-28T17:50:13Z</time>
  <course>0.0</course>
  <speed>0.0</speed>
  <fix>3d</fix>
</trkpt>
<trkpt lat="40.0713749" lon="-105.229789">
  <ele>1583.0</ele>
  <time>2026-08-28T17:50:13Z</time>
  <course>247.94</course>
  <speed>0.022360679774997897</speed>
  <fix>3d</fix>
</trkpt>
<trkpt lat="40.0713749" lon="-105.229789">
  <ele>1583.0</ele>
  <time>2026-08-28T17:50:13Z</time>
  <course>0.0</course>
  <speed>0.0</speed>
  <fix>3d</fix>
</trkpt>
<trkpt lat="40.0713749" lon="-105.229789">
  <ele>1583.0</ele>
  <time>2026-08-28T17:50:13Z</time>
  <course>247.94</course>
  <speed>0.022360679774997897</speed>
  <fix>3d</fix>
</trkpt>
<trkpt lat="40.0713749" lon="-105.229789">
  <ele>1583.0</ele>
  <time>2026-08-28T17:50:13Z</time>
  <course>0.0</course>
  <speed>0.0</speed>
  <fix>3d</fix>
</trkpt>
<trkpt lat="40.0713749" lon="-105.229789">
  <ele>1583.0</ele>
  <time>2026-08-28T17:50:13Z</time>
  <course>247.93</course>
  <speed>0.022360679774997897</speed>
  <fix>3d</fix>
</trkpt>
<trkpt lat="40.0713749" lon="-105.229789">
  <ele>1583.0</ele>
  <time>2026-08-28T17:50:13Z</time>
  <course>0.0</course>
  <speed>0.0</speed>
  <fix>3d</fix>
</trkpt>
<trkpt lat="40.0713749" lon="-105.229789">
  <ele>1583.0</ele>
  <time>2026-08-28T17:50:13Z</time>
  <course>247.93</course>
  <speed>0.022360679774997897</speed>
  <fix>3d</fix>
</trkpt>
<trkpt lat="40.0713749" lon="-105.229789">
  <ele>1583.0</ele>
  <time>2026-08-28T17:50:13Z</time>
  <course>0.0</course>
  <speed>0.0</speed>
  <fix>3d</fix>
</trkpt>
<trkpt lat="40.0713749" lon="-105.229789">
  <ele>1583.0</ele>
  <time>2026-08-28T17:50:13Z</time>
  <course>247.92</course>
  <speed>0.022360679774997897</speed>
  <fix>3d</fix>
</trkpt>
<trkpt lat="40.0713749" lon="-105.229789">
  <ele>1583.0</ele>
  <time>2026-08-28T17:50:13Z</time>
  <course>0.0</course>
  <speed>0.0</speed>
  <fix>3d</fix>
</trkpt>
<trkpt lat="40.0713749" lon="-105.229789">
  <ele>1583.0</ele>
  <time>2026-08-28T17:50:13Z</time>
  <course>247.92</course>
  <speed>0.022360679774997897</speed>
  <fix>3d</fix>
</trkpt>
<trkpt lat="40.0713749" lon="-105.229789">
  <ele>1583.0</ele>
  <time>2026-08-28T17:50:13Z</time>
  <course>0.0</course>
  <speed>0.0</speed>
  <fix>3d</fix>
</trkpt>
<trkpt lat="40.0713749" lon="-105.229789">
  <ele>1583.0</ele>
  <time>2026-08-28T17:50:13Z</time>
  <course>247.92</course>
  <speed>0.022360679774997897</speed>
  <fix>3d</fix>
</trkpt>
<trkpt lat="40.0713749" lon="-105.229789">
  <ele>1583.0</ele>
  <time>2026-08-28T17:50:13Z</time>
  <course>0.0</course>
  <speed>0.0</speed>
  <fix>3d</fix>
</trkpt>
<trkpt lat="40.0713749" lon="-105.229789">
  <ele>1583.0</ele>
  <time>2026-08-28T17:50:13Z</time>
  <course>247.91</course>
  <speed>0.022360679774997897</speed>
  <fix>3d</fix>
</trkpt>
<trkpt lat="40.0713749" lon="-105.229789">
  <ele>1583.0</ele>
  <time>2026-08-28T17:50:13Z</time>
  <course>0.0</course>
  <speed>0.0</speed>
  <fix>3d</fix>
</trkpt>
<trkpt lat="40.0713749" lon="-105.229789">
  <ele>1583.0</ele>
  <time>2026-08-28T17:50:13Z</time>
  <course>247.91</course>
  <speed>0.022360679774997897</speed>
  <fix>3d</fix>
</trkpt>
<trkpt lat="40.0713749" lon="-105.229789">
  <ele>1583.0</ele>
  <time>2026-08-28T17:50:13Z</time>
  <course>0.0</course>
  <speed>0.0</speed>
  <fix>3d</fix>
</trkpt>
<trkpt lat="40.0713749" lon="-105.229789">
  <ele>1583.0</ele>
  <time>2026-08-28T17:50:13Z</time>
  <course>247.9</course>
  <speed>0.022360679774997897</speed>
  <fix>3d</fix>
</trkpt>
<trkpt lat="40.0713749" lon="-105.229789">
  <ele>1583.0</ele>
  <time>2026-08-28T17:50:13Z</time>
  <course>0.0</course>
  <speed>0.0</speed>
  <fix>3d</fix>
</trkpt>
<trkpt lat="40.0713749" lon="-105.229789">
  <ele>1583.0</ele>
  <time>2026-08-28T17:50:13Z</time>
  <course>247.9</course>
  <speed>0.022360679774997897</speed>
  <fix>3d</fix>
</trkpt>
<trkpt lat="40.0713749" lon="-105.229789">
  <ele>1583.0</ele>
  <time>2026-08-28T17:50:13Z</time>
  <course>0.0</course>
  <speed>0.0</speed>
  <fix>3d</fix>
</trkpt>
<trkpt lat="40.0713749" lon="-105.229789">
  <ele>1583.0</ele>
  <time>2026-08-28T17:50:13Z</time>
  <course>247.89</course>
  <speed>0.022360679774997897</speed>
  <fix>3d</fix>
</trkpt>
<trkpt lat="40.0713749" lon="-105.229789">
  <ele>1583.0</ele>
  <time>2026-08-28T17:50:13Z</time>
  <course>0.0</course>
  <speed>0.0</speed>
  <fix>3d</fix>
</trkpt>
<trkpt lat="40.0713749" lon="-105.229789">
  <ele>1583.0</ele>
  <time>2026-08-28T17:50:13Z</time>
  <course>247.89</course>
  <speed>0.022360679774997897</speed>
  <fix>3d</fix>
</trkpt>
<trkpt lat="40.0713749" lon="-105.229789">
  <ele>1583.0</ele>
  <time>2026-08-28T17:50:13Z</time>
  <course>0.0</course>
  <speed>0.0</speed>
  <fix>3d</fix>
</trkpt>
<trkpt lat="40.0713749" lon="-105.229789">
  <ele>1583.0</ele>
  <time>2026-08-28T17:50:13Z</time>
  <course>247.89</course>
  <speed>0.022360679774997897</speed>
  <fix>3d</fix>
</trkpt>
<trkpt lat="40.0713749" lon="-105.229789">
  <ele>1583.0</ele>
  <time>2026-08-28T17:50:13Z</time>
  <course>0.0</course>
  <speed>0.0</speed>
  <fix>3d</fix>
</trkpt>
<trkpt lat="40.0713749" lon="-105.229789">
  <ele>1583.0</ele>
  <time>2026-08-28T17:50:13Z</time>
  <course>247.88</course>
  <speed>0.0316227766016838</speed>
  <fix>3d</fix>
</trkpt>
<trkpt lat="40.0713749" lon="-105.229789">
  <ele>1583.0</ele>
  <time>2026-08-28T17:50:13Z</time>
  <course>0.0</course>
  <speed>0.0</speed>
  <fix>3d</fix>
</trkpt>
<trkpt lat="40.0713749" lon="-105.229789">
  <ele>1583.0</ele>
  <time>2026-08-28T17:50:13Z</time>
  <course>247.88</course>
  <speed>0.0316227766016838</speed>
  <fix>3d</fix>
</trkpt>
<trkpt lat="40.0713749" lon="-105.229789">
  <ele>1583.0</ele>
  <time>2026-08-28T17:50:13Z</time>
  <course>0.0</course>
  <speed>0.0</speed>
  <fix>3d</fix>
</trkpt>
<trkpt lat="40.0713749" lon="-105.229789">
  <ele>1583.0</ele>
  <time>2026-08-28T17:50:13Z</time>
  <course>247.87</course>
  <speed>0.0316227766016838</speed>
  <fix>3d</fix>
</trkpt>
<trkpt lat="40.0713749" lon="-105.229789">
  <ele>1583.0</ele>
  <time>2026-08-28T17:50:13Z</time>
  <course>0.0</course>
  <speed>0.0</speed>
  <fix>3d</fix>
</trkpt>
<trkpt lat="40.0713749" lon="-105.229789">
  <ele>1583.0</ele>
  <time>2026-08-28T17:50:13Z</time>
  <course>247.87</course>
  <speed>0.0316227766016838</speed>
  <fix>3d</fix>
</trkpt>
<trkpt lat="40.0713749" lon="-105.229789">
  <ele>1583.0</ele>
  <time>2026-08-28T17:50:13Z</time>
  <course>0.0</course>
  <speed>0.0</speed>
  <fix>3d</fix>
</trkpt>
<trkpt lat="40.0713749" lon="-105.229789">
  <ele>1583.0</ele>
  <time>2026-08-28T17:50:13Z</time>
  <course>247.87</course>
  <speed>0.0316227766016838</speed>
  <fix>3d</fix>
</trkpt>
<trkpt lat="40.0713749" lon="-105.229789">
  <ele>1583.0</ele>
  <time>2026-08-28T17:50:13Z</time>
  <course>0.0</course>
  <speed>0.0</speed>
  <fix>3d</fix>
</trkpt>
<trkpt lat="40.0713749" lon="-105.229789">
  <ele>1583.0</ele>
  <time>2026-08-28T17:50:13Z</time>
  <course>247.86</course>
  <speed>0.0316227766016838</speed>
  <fix>3d</fix>
</trkpt>
<trkpt lat="40.0713749" lon="-105.229789">
  <ele>1583.0</ele>
  <time>2026-08-28T17:50:13Z</time>
  <course>0.0</course>
  <speed>0.0</speed>
  <fix>3d</fix>
</trkpt>
<trkpt lat="40.0713749" lon="-105.229789">
  <ele>1583.0</ele>
  <time>2026-08-28T17:50:13Z</time>
  <course>247.86</course>
  <speed>0.0316227766016838</speed>
  <fix>3d</fix>
</trkpt>
<trkpt lat="40.0713749" lon="-105.229789">
  <ele>1583.0</ele>
  <time>2026-08-28T17:50:13Z</time>
  <course>0.0</course>
  <speed>0.0</speed>
  <fix>3d</fix>
</trkpt>
<trkpt lat="40.0713749" lon="-105.229789">
  <ele>1583.0</ele>
  <time>2026-08-28T17:50:13Z</time>
  <course>247.85</course>
  <speed>0.0316227766016838</speed>
  <fix>3d</fix>
</trkpt>
<trkpt lat="40.0713749" lon="-105.229789">
  <ele>1583.0</ele>
  <time>2026-08-28T17:50:13Z</time>
  <course>0.0</course>
  <speed>0.0</speed>
  <fix>3d</fix>
</trkpt>
<trkpt lat="40.0713749" lon="-105.229789">
  <ele>1583.0</ele>
  <time>2026-08-28T17:50:13Z</time>
  <course>247.85</course>
  <speed>0.0316227766016838</speed>
  <fix>3d</fix>
</trkpt>
<trkpt lat="40.0713749" lon="-105.229789">
  <ele>1583.0</ele>
  <time>2026-08-28T17:50:13Z</time>
  <course>0.0</course>
  <speed>0.0</speed>
  <fix>3d</fix>
</trkpt>
<trkpt lat="40.0713749" lon="-105.229789">
  <ele>1583.0</ele>
  <time>2026-08-28T17:50:13Z</time>
  <course>247.85</course>
  <speed>0.0316227766016838</speed>
  <fix>3d</fix>
</trkpt>
<trkpt lat="40.0713749" lon="-105.229789">
  <ele>1583.0</ele>
  <time>2026-08-28T17:50:13Z</time>
  <course>0.0</course>
  <speed>0.0</speed>
  <fix>3d</fix>
</trkpt>
<trkpt lat="40.0713749" lon="-105.229789">
  <ele>1583.0</ele>
  <time>2026-08-28T17:50:13Z</time>
  <course>247.84</course>
  <speed>0.0316227766016838</speed>
  <fix>3d</fix>
</trkpt>
<trkpt lat="40.0713749" lon="-105.229789">
  <ele>1583.0</ele>
  <time>2026-08-28T17:50:13Z</time>
  <course>0.0</course>
  <speed>0.0</speed>
  <fix>3d</fix>
</trkpt>
<trkpt lat="40.0713749" lon="-105.229789">
  <ele>1583.0</ele>
  <time>2026-08-28T17:50:13Z</time>
  <course>247.84</course>
  <speed>0.0316227766016838</speed>
  <fix>3d</fix>
</trkpt>
<trkpt lat="40.0713749" lon="-105.229789">
  <ele>1583.0</ele>
  <time>2026-08-28T17:50:13Z</time>
  <course>0.0</course>
  <speed>0.0</speed>
  <fix>3d</fix>
</trkpt>
<trkpt lat="40.0713749" lon="-105.229789">
  <ele>1583.0</ele>
  <time>2026-08-28T17:50:13Z</time>
  <course>247.83</course>
  <speed>0.0316227766016838</speed>
  <fix>3d</fix>
</trkpt>
<trkpt lat="40.0713749" lon="-105.229789">
  <ele>1583.0</ele>
  <time>2026-08-28T17:50:13Z</time>
  <course>0.0</course>
  <speed>0.0</speed>
  <fix>3d</fix>
</trkpt>
<trkpt lat="40.0713749" lon="-105.229789">
  <ele>1583.0</ele>
  <time>2026-08-28T17:50:13Z</time>
  <course>247.83</course>
  <speed>0.0316227766016838</speed>
  <fix>3d</fix>
</trkpt>
<trkpt lat="40.0713749" lon="-105.229789">
  <ele>1583.0</ele>
  <time>2026-08-28T17:50:13Z</time>
  <course>0.0</course>
  <speed>0.0</speed>
  <fix>3d</fix>
</trkpt>
<trkpt lat="40.0713749" lon="-105.229789">
  <ele>1583.0</ele>
  <time>2026-08-28T17:50:13Z</time>
  <course>247.83</course>
  <speed>0.0316227766016838</speed>
  <fix>3d</fix>
</trkpt>
<trkpt lat="40.0713749" lon="-105.229789">
  <ele>1583.0</ele>
  <time>2026-08-28T17:50:13Z</time>
  <course>0.0</course>
  <speed>0.0</speed>
  <fix>3d</fix>
</trkpt>
<trkpt lat="40.0713749" lon="-105.229789">
  <ele>1583.0</ele>
  <time>2026-08-28T17:50:13Z</time>
  <course>247.82</course>
  <speed>0.0316227766016838</speed>
  <fix>3d</fix>
</trkpt>
<trkpt lat="40.0713749" lon="-105.229789">
  <ele>1583.0</ele>
  <time>2026-08-28T17:50:13Z</time>
  <course>0.0</course>
  <speed>0.0</speed>
  <fix>3d</fix>
</trkpt>
<trkpt lat="40.0713749" lon="-105.229789">
  <ele>1583.0</ele>
  <time>2026-08-28T17:50:13Z</time>
  <course>247.82</course>
  <speed>0.0316227766016838</speed>
  <fix>3d</fix>
</trkpt>
<trkpt lat="40.0713749" lon="-105.229789">
  <ele>1583.0</ele>
  <time>2026-08-28T17:50:13Z</time>
  <course>0.0</course>
  <speed>0.0</speed>
  <fix>3d</fix>
</trkpt>
<trkpt lat="40.0713749" lon="-105.229789">
  <ele>1583.0</ele>
  <time>2026-08-28T17:50:13Z</time>
  <course>247.82</course>
  <speed>0.0316227766016838</speed>
  <fix>3d</fix>
</trkpt>
<trkpt lat="40.0713749" lon="-105.229789">
  <ele>1583.0</ele>
  <time>2026-08-28T17:50:13Z</time>
  <course>0.0</course>
  <speed>0.0</speed>
  <fix>3d</fix>
</trkpt>
<trkpt lat="40.0713749" lon="-105.229789">
  <ele>1583.0</ele>
  <time>2026-08-28T17:50:13Z</time>
  <course>247.81</course>
  <speed>0.0316227766016838</speed>
  <fix>3d</fix>
</trkpt>
<trkpt lat="40.0713749" lon="-105.229789">
  <ele>1583.0</ele>
  <time>2026-08-28T17:50:13Z</time>
  <course>0.0</course>
  <speed>0.0</speed>
  <fix>3d</fix>
</trkpt>
<trkpt lat="40.0713749" lon="-105.229789">
  <ele>1583.0</ele>
  <time>2026-08-28T17:50:13Z</time>
  <course>247.81</course>
  <speed>0.0316227766016838</speed>
  <fix>3d</fix>
</trkpt>
<trkpt lat="40.0713749" lon="-105.229789">
  <ele>1583.0</ele>
  <time>2026-08-28T17:50:13Z</time>
  <course>0.0</course>
  <speed>0.0</speed>
  <fix>3d</fix>
</trkpt>
<trkpt lat="40.0713749" lon="-105.229789">
  <ele>1583.0</ele>
  <time>2026-08-28T17:50:13Z</time>
  <course>247.8</course>
  <speed>0.0316227766016838</speed>
  <fix>3d</fix>
</trkpt>
<trkpt lat="40.0713749" lon="-105.229789">
  <ele>1583.0</ele>
  <time>2026-08-28T17:50:13Z</time>
  <course>0.0</course>
  <speed>0.0</speed>
  <fix>3d</fix>
</trkpt>
<trkpt lat="40.0713749" lon="-105.229789">
  <ele>1583.0</ele>
  <time>2026-08-28T17:50:13Z</time>
  <course>247.8</course>
  <speed>0.0316227766016838</speed>
  <fix>3d</fix>
</trkpt>
<trkpt lat="40.0713749" lon="-105.229789">
  <ele>1583.0</ele>
  <time>2026-08-28T17:50:13Z</time>
  <course>0.0</course>
  <speed>0.0</speed>
  <fix>3d</fix>
</trkpt>
<trkpt lat="40.0713749" lon="-105.229789">
  <ele>1583.0</ele>
  <time>2026-08-28T17:50:13Z</time>
  <course>247.8</course>
  <speed>0.0316227766016838</speed>
  <fix>3d</fix>
</trkpt>
<trkpt lat="40.0713749" lon="-105.229789">
  <ele>1583.0</ele>
  <time>2026-08-28T17:50:13Z</time>
  <course>0.0</course>
  <speed>0.0</speed>
  <fix>3d</fix>
</trkpt>
<trkpt lat="40.0713749" lon="-105.229789">
  <ele>1583.0</ele>
  <time>2026-08-28T17:50:13Z</time>
  <course>247.79</course>
  <speed>0.0316227766016838</speed>
  <fix>3d</fix>
</trkpt>
<trkpt lat="40.0713749" lon="-105.229789">
  <ele>1583.0</ele>
  <time>2026-08-28T17:50:13Z</time>
  <course>0.0</course>
  <speed>0.0</speed>
  <fix>3d</fix>
</trkpt>
<trkpt lat="40.0713749" lon="-105.229789">
  <ele>1583.0</ele>
  <time>2026-08-28T17:50:13Z</time>
  <course>247.79</course>
  <speed>0.0316227766016838</speed>
  <fix>3d</fix>
</trkpt>
<trkpt lat="40.0713749" lon="-105.229789">
  <ele>1583.0</ele>
  <time>2026-08-28T17:50:13Z</time>
  <course>0.0</course>
  <speed>0.0</speed>
  <fix>3d</fix>
</trkpt>
<trkpt lat="40.0713749" lon="-105.229789">
  <ele>1583.0</ele>
  <time>2026-08-28T17:50:13Z</time>
  <course>247.79</course>
  <speed>0.0316227766016838</speed>
  <fix>3d</fix>
</trkpt>
<trkpt lat="40.0713749" lon="-105.229789">
  <ele>1583.0</ele>
  <time>2026-08-28T17:50:13Z</time>
  <course>0.0</course>
  <speed>0.0</speed>
  <fix>3d</fix>
</trkpt>
<trkpt lat="40.0713749" lon="-105.229789">
  <ele>1583.0</ele>
  <time>2026-08-28T17:50:13Z</time>
  <course>247.78</course>
  <speed>0.0316227766016838</speed>
  <fix>3d</fix>
</trkpt>
<trkpt lat="40.0713749" lon="-105.229789">
  <ele>1583.0</ele>
  <time>2026-08-28T17:50:13Z</time>
  <course>0.0</course>
  <speed>0.0</speed>
  <fix>3d</fix>
</trkpt>
<trkpt lat="40.0713749" lon="-105.229789">
  <ele>1583.0</ele>
  <time>2026-08-28T17:50:13Z</time>
  <course>247.78</course>
  <speed>0.0316227766016838</speed>
  <fix>3d</fix>
</trkpt>
<trkpt lat="40.0713749" lon="-105.229789">
  <ele>1583.0</ele>
  <time>2026-08-28T17:50:13Z</time>
  <course>0.0</course>
  <speed>0.0</speed>
  <fix>3d</fix>
</trkpt>
<trkpt lat="40.0713749" lon="-105.229789">
  <ele>1583.0</ele>
  <time>2026-08-28T17:50:13Z</time>
  <course>247.78</course>
  <speed>0.0316227766016838</speed>
  <fix>3d</fix>
</trkpt>
<trkpt lat="40.0713749" lon="-105.229789">
  <ele>1583.0</ele>
  <time>2026-08-28T17:50:13Z</time>
  <course>0.0</course>
  <speed>0.0</speed>
  <fix>3d</fix>
</trkpt>
<trkpt lat="40.0713749" lon="-105.229789">
  <ele>1583.0</ele>
  <time>2026-08-28T17:50:13Z</time>
  <course>247.77</course>
  <speed>0.0316227766016838</speed>
  <fix>3d</fix>
</trkpt>
<trkpt lat="40.0713749" lon="-105.229789">
  <ele>1583.0</ele>
  <time>2026-08-28T17:50:13Z</time>
  <course>0.0</course>
  <speed>0.0</speed>
  <fix>3d</fix>
</trkpt>
<trkpt lat="40.0713749" lon="-105.229789">
  <ele>1583.0</ele>
  <time>2026-08-28T17:50:13Z</time>
  <course>247.77</course>
  <speed>0.0316227766016838</speed>
  <fix>3d</fix>
</trkpt>
<trkpt lat="40.0713749" lon="-105.229789">
  <ele>1583.0</ele>
  <time>2026-08-28T17:50:13Z</time>
  <course>0.0</course>
  <speed>0.0</speed>
  <fix>3d</fix>
</trkpt>
<trkpt lat="40.0713749" lon="-105.229789">
  <ele>1583.0</ele>
  <time>2026-08-28T17:50:13Z</time>
  <course>247.76</course>
  <speed>0.0316227766016838</speed>
  <fix>3d</fix>
</trkpt>
<trkpt lat="40.0713749" lon="-105.229789">
  <ele>1583.0</ele>
  <time>2026-08-28T17:50:13Z</time>
  <course>0.0</course>
  <speed>0.0</speed>
  <fix>3d</fix>
</trkpt>
<trkpt lat="40.0713749" lon="-105.229789">
  <ele>1583.0</ele>
  <time>2026-08-28T17:50:13Z</time>
  <course>247.76</course>
  <speed>0.0316227766016838</speed>
  <fix>3d</fix>
</trkpt>
<trkpt lat="40.0713749" lon="-105.229789">
  <ele>1583.0</ele>
  <time>2026-08-28T17:50:13Z</time>
  <course>0.0</course>
  <speed>0.0</speed>
  <fix>3d</fix>
</trkpt>
<trkpt lat="40.0713749" lon="-105.229789">
  <ele>1583.0</ele>
  <time>2026-08-28T17:50:13Z</time>
  <course>247.76</course>
  <speed>0.0316227766016838</speed>
  <fix>3d</fix>
</trkpt>
<trkpt lat="40.0713749" lon="-105.229789">
  <ele>1583.0</ele>
  <time>2026-08-28T17:50:13Z</time>
  <course>0.0</course>
  <speed>0.0</speed>
  <fix>3d</fix>
</trkpt>
<trkpt lat="40.0713749" lon="-105.229789">
  <ele>1583.0</ele>
  <time>2026-08-28T17:50:13Z</time>
  <course>247.75</course>
  <speed>0.0316227766016838</speed>
  <fix>3d</fix>
</trkpt>
<trkpt lat="40.0713749" lon="-105.229789">
  <ele>1583.0</ele>
  <time>2026-08-28T17:50:13Z</time>
  <course>0.0</course>
  <speed>0.0</speed>
  <fix>3d</fix>
</trkpt>
<trkpt lat="40.0713749" lon="-105.229789">
  <ele>1583.0</ele>
  <time>2026-08-28T17:50:13Z</time>
  <course>247.75</course>
  <speed>0.0316227766016838</speed>
  <fix>3d</fix>
</trkpt>
<trkpt lat="40.0713749" lon="-105.229789">
  <ele>1583.0</ele>
  <time>2026-08-28T17:50:13Z</time>
  <course>0.0</course>
  <speed>0.0</speed>
  <fix>3d</fix>
</trkpt>
<trkpt lat="40.0713749" lon="-105.229789">
  <ele>1583.0</ele>
  <time>2026-08-28T17:50:13Z</time>
  <course>247.75</course>
  <speed>0.0316227766016838</speed>
  <fix>3d</fix>
</trkpt>
<trkpt lat="40.0713749" lon="-105.229789">
  <ele>1583.0</ele>
  <time>2026-08-28T17:50:13Z</time>
  <course>0.0</course>
  <speed>0.0</speed>
  <fix>3d</fix>
</trkpt>
<trkpt lat="40.0713749" lon="-105.229789">
  <ele>1583.0</ele>
  <time>2026-08-28T17:50:13Z</time>
  <course>247.74</course>
  <speed>0.0316227766016838</speed>
  <fix>3d</fix>
</trkpt>
<trkpt lat="40.0713749" lon="-105.229789">
  <ele>1583.0</ele>
  <time>2026-08-28T17:50:13Z</time>
  <course>0.0</course>
  <speed>0.0</speed>
  <fix>3d</fix>
</trkpt>
<trkpt lat="40.0713749" lon="-105.229789">
  <ele>1583.0</ele>
  <time>2026-08-28T17:50:13Z</time>
  <course>247.74</course>
  <speed>0.0316227766016838</speed>
  <fix>3d</fix>
</trkpt>
<trkpt lat="40.0713749" lon="-105.229789">
  <ele>1583.0</ele>
  <time>2026-08-28T17:50:13Z</time>
  <course>0.0</course>
  <speed>0.0</speed>
  <fix>3d</fix>
</trkpt>
<trkpt lat="40.0713749" lon="-105.229789">
  <ele>1583.0</ele>
  <time>2026-08-28T17:50:13Z</time>
  <course>247.74</course>
  <speed>0.0316227766016838</speed>
  <fix>3d</fix>
</trkpt>
<trkpt lat="40.0713749" lon="-105.229789">
  <ele>1583.0</ele>
  <time>2026-08-28T17:50:13Z</time>
  <course>0.0</course>
  <speed>0.0</speed>
  <fix>3d</fix>
</trkpt>
<trkpt lat="40.0713749" lon="-105.229789">
  <ele>1583.0</ele>
  <time>2026-08-28T17:50:13Z</time>
  <course>247.73</course>
  <speed>0.0316227766016838</speed>
  <fix>3d</fix>
</trkpt>
<trkpt lat="40.0713749" lon="-105.229789">
  <ele>1583.0</ele>
  <time>2026-08-28T17:50:13Z</time>
  <course>0.0</course>
  <speed>0.0</speed>
  <fix>3d</fix>
</trkpt>
<trkpt lat="40.0713749" lon="-105.229789">
  <ele>1583.0</ele>
  <time>2026-08-28T17:50:13Z</time>
  <course>247.73</course>
  <speed>0.0316227766016838</speed>
  <fix>3d</fix>
</trkpt>
<trkpt lat="40.0713749" lon="-105.229789">
  <ele>1583.0</ele>
  <time>2026-08-28T17:50:13Z</time>
  <course>0.0</course>
  <speed>0.0</speed>
  <fix>3d</fix>
</trkpt>
<trkpt lat="40.0713749" lon="-105.229789">
  <ele>1583.0</ele>
  <time>2026-08-28T17:50:13Z</time>
  <course>247.73</course>
  <speed>0.0316227766016838</speed>
  <fix>3d</fix>
</trkpt>
<trkpt lat="40.0713749" lon="-105.229789">
  <ele>1583.0</ele>
  <time>2026-08-28T17:50:13Z</time>
  <course>0.0</course>
  <speed>0.0</speed>
  <fix>3d</fix>
</trkpt>
<trkpt lat="40.0713749" lon="-105.229789">
  <ele>1583.0</ele>
  <time>2026-08-28T17:50:13Z</time>
  <course>247.72</course>
  <speed>0.0316227766016838</speed>
  <fix>3d</fix>
</trkpt>
<trkpt lat="40.0713749" lon="-105.229789">
  <ele>1583.0</ele>
  <time>2026-08-28T17:50:13Z</time>
  <course>0.0</course>
  <speed>0.0</speed>
  <fix>3d</fix>
</trkpt>
<trkpt lat="40.0713749" lon="-105.229789">
  <ele>1583.0</ele>
  <time>2026-08-28T17:50:13Z</time>
  <course>247.72</course>
  <speed>0.0316227766016838</speed>
  <fix>3d</fix>
</trkpt>
<trkpt lat="40.0713749" lon="-105.229789">
  <ele>1583.0</ele>
  <time>2026-08-28T17:50:13Z</time>
  <course>0.0</course>
  <speed>0.0</speed>
  <fix>3d</fix>
</trkpt>
<trkpt lat="40.0713749" lon="-105.229789">
  <ele>1583.0</ele>
  <time>2026-08-28T17:50:13Z</time>
  <course>247.72</course>
  <speed>0.0316227766016838</speed>
  <fix>3d</fix>
</trkpt>
<trkpt lat="40.0713749" lon="-105.229789">
  <ele>1583.0</ele>
  <time>2026-08-28T17:50:13Z</time>
  <course>0.0</course>
  <speed>0.0</speed>
  <fix>3d</fix>
</trkpt>
<trkpt lat="40.0713749" lon="-105.229789">
  <ele>1583.0</ele>
  <time>2026-08-28T17:50:13Z</time>
  <course>247.71</course>
  <speed>0.0316227766016838</speed>
  <fix>3d</fix>
</trkpt>
<trkpt lat="40.0713749" lon="-105.229789">
  <ele>1583.0</ele>
  <time>2026-08-28T17:50:13Z</time>
  <course>0.0</course>
  <speed>0.0</speed>
  <fix>3d</fix>
</trkpt>
<trkpt lat="40.0713749" lon="-105.229789">
  <ele>1583.0</ele>
  <time>2026-08-28T17:50:13Z</time>
  <course>247.71</course>
  <speed>0.0316227766016838</speed>
  <fix>3d</fix>
</trkpt>
<trkpt lat="40.0713749" lon="-105.229789">
  <ele>1583.0</ele>
  <time>2026-08-28T17:50:13Z</time>
  <course>0.0</course>
  <speed>0.0</speed>
  <fix>3d</fix>
</trkpt>
<trkpt lat="40.0713749" lon="-105.229789">
  <ele>1583.0</ele>
  <time>2026-08-28T17:50:13Z</time>
  <course>247.71</course>
  <speed>0.0316227766016838</speed>
  <fix>3d</fix>
</trkpt>
<trkpt lat="40.0713749" lon="-105.229789">
  <ele>1583.0</ele>
  <time>2026-08-28T17:50:13Z</time>
  <course>0.0</course>
  <speed>0.0</speed>
  <fix>3d</fix>
</trkpt>
<trkpt lat="40.0713749" lon="-105.229789">
  <ele>1583.0</ele>
  <time>2026-08-28T17:50:13Z</time>
  <course>247.7</course>
  <speed>0.0316227766016838</speed>
  <fix>3d</fix>
</trkpt>
<trkpt lat="40.0713749" lon="-105.229789">
  <ele>1583.0</ele>
  <time>2026-08-28T17:50:13Z</time>
  <course>0.0</course>
  <speed>0.0</speed>
  <fix>3d</fix>
</trkpt>
<trkpt lat="40.0713749" lon="-105.229789">
  <ele>1583.0</ele>
  <time>2026-08-28T17:50:13Z</time>
  <course>247.7</course>
  <speed>0.0316227766016838</speed>
  <fix>3d</fix>
</trkpt>
<trkpt lat="40.0713749" lon="-105.229789">
  <ele>1583.0</ele>
  <time>2026-08-28T17:50:13Z</time>
  <course>0.0</course>
  <speed>0.0</speed>
  <fix>3d</fix>
</trkpt>
<trkpt lat="40.0713749" lon="-105.229789">
  <ele>1583.0</ele>
  <time>2026-08-28T17:50:13Z</time>
  <course>247.7</course>
  <speed>0.0316227766016838</speed>
  <fix>3d</fix>
</trkpt>
<trkpt lat="40.0713749" lon="-105.229789">
  <ele>1583.0</ele>
  <time>2026-08-28T17:50:13Z</time>
  <course>0.0</course>
  <speed>0.0</speed>
  <fix>3d</fix>
</trkpt>
<trkpt lat="40.0713749" lon="-105.229789">
  <ele>1583.0</ele>
  <time>2026-08-28T17:50:13Z</time>
  <course>247.69</course>
  <speed>0.0316227766016838</speed>
  <fix>3d</fix>
</trkpt>
<trkpt lat="40.0713749" lon="-105.229789">
  <ele>1583.0</ele>
  <time>2026-08-28T17:50:13Z</time>
  <course>0.0</course>
  <speed>0.0</speed>
  <fix>3d</fix>
</trkpt>
<trkpt lat="40.0713749" lon="-105.229789">
  <ele>1583.0</ele>
  <time>2026-08-28T17:50:13Z</time>
  <course>247.69</course>
  <speed>0.0316227766016838</speed>
  <fix>3d</fix>
</trkpt>
<trkpt lat="40.0713749" lon="-105.229789">
  <ele>1583.0</ele>
  <time>2026-08-28T17:50:13Z</time>
  <course>0.0</course>
  <speed>0.0</speed>
  <fix>3d</fix>
</trkpt>
<trkpt lat="40.0713749" lon="-105.229789">
  <ele>1583.0</ele>
  <time>2026-08-28T17:50:13Z</time>
  <course>247.69</course>
  <speed>0.0316227766016838</speed>
  <fix>3d</fix>
</trkpt>
<trkpt lat="40.0713749" lon="-105.229789">
  <ele>1583.0</ele>
  <time>2026-08-28T17:50:13Z</time>
  <course>0.0</course>
  <speed>0.0</speed>
  <fix>3d</fix>
</trkpt>
<trkpt lat="40.0713749" lon="-105.229789">
  <ele>1583.0</ele>
  <time>2026-08-28T17:50:13Z</time>
  <course>247.68</course>
  <speed>0.0316227766016838</speed>
  <fix>3d</fix>
</trkpt>
<trkpt lat="40.0713749" lon="-105.229789">
  <ele>1583.0</ele>
  <time>2026-08-28T17:50:13Z</time>
  <course>0.0</course>
  <speed>0.0</speed>
  <fix>3d</fix>
</trkpt>
<trkpt lat="40.0713749" lon="-105.229789">
  <ele>1583.0</ele>
  <time>2026-08-28T17:50:13Z</time>
  <course>247.68</course>
  <speed>0.0316227766016838</speed>
  <fix>3d</fix>
</trkpt>
<trkpt lat="40.0713749" lon="-105.229789">
  <ele>1583.0</ele>
  <time>2026-08-28T17:50:13Z</time>
  <course>0.0</course>
  <speed>0.0</speed>
  <fix>3d</fix>
</trkpt>
<trkpt lat="40.0713749" lon="-105.229789">
  <ele>1583.0</ele>
  <time>2026-08-28T17:50:13Z</time>
  <course>247.68</course>
  <speed>0.0316227766016838</speed>
  <fix>3d</fix>
</trkpt>
<trkpt lat="40.0713749" lon="-105.229789">
  <ele>1583.0</ele>
  <time>2026-08-28T17:50:13Z</time>
  <course>0.0</course>
  <speed>0.0</speed>
  <fix>3d</fix>
</trkpt>
<trkpt lat="40.0713749" lon="-105.229789">
  <ele>1583.0</ele>
  <time>2026-08-28T17:50:13Z</time>
  <course>247.67</course>
  <speed>0.0316227766016838</speed>
  <fix>3d</fix>
</trkpt>
<trkpt lat="40.0713749" lon="-105.229789">
  <ele>1583.0</ele>
  <time>2026-08-28T17:50:13Z</time>
  <course>0.0</course>
  <speed>0.0</speed>
  <fix>3d</fix>
</trkpt>
<trkpt lat="40.0713749" lon="-105.229789">
  <ele>1583.0</ele>
  <time>2026-08-28T17:50:13Z</time>
  <course>247.67</course>
  <speed>0.0316227766016838</speed>
  <fix>3d</fix>
</trkpt>
<trkpt lat="40.0713749" lon="-105.229789">
  <ele>1583.0</ele>
  <time>2026-08-28T17:50:13Z</time>
  <course>0.0</course>
  <speed>0.0</speed>
  <fix>3d</fix>
</trkpt>
<trkpt lat="40.0713749" lon="-105.229789">
  <ele>1583.0</ele>
  <time>2026-08-28T17:50:13Z</time>
  <course>247.67</course>
  <speed>0.0316227766016838</speed>
  <fix>3d</fix>
</trkpt>
<trkpt lat="40.0713749" lon="-105.229789">
  <ele>1583.0</ele>
  <time>2026-08-28T17:50:13Z</time>
  <course>0.0</course>
  <speed>0.0</speed>
  <fix>3d</fix>
</trkpt>
<trkpt lat="40.0713749" lon="-105.229789">
  <ele>1583.0</ele>
  <time>2026-08-28T17:50:13Z</time>
  <course>247.66</course>
  <speed>0.0316227766016838</speed>
  <fix>3d</fix>
</trkpt>
<trkpt lat="40.0713749" lon="-105.229789">
  <ele>1583.0</ele>
  <time>2026-08-28T17:50:13Z</time>
  <course>0.0</course>
  <speed>0.0</speed>
  <fix>3d</fix>
</trkpt>
<trkpt lat="40.0713749" lon="-105.229789">
  <ele>1583.0</ele>
  <time>2026-08-28T17:50:13Z</time>
  <course>247.66</course>
  <speed>0.0316227766016838</speed>
  <fix>3d</fix>
</trkpt>
<trkpt lat="40.0713749" lon="-105.229789">
  <ele>1583.0</ele>
  <time>2026-08-28T17:50:13Z</time>
  <course>0.0</course>
  <speed>0.0</speed>
  <fix>3d</fix>
</trkpt>
<trkpt lat="40.0713749" lon="-105.229789">
  <ele>1583.0</ele>
  <time>2026-08-28T17:50:13Z</time>
  <course>247.66</course>
  <speed>0.0316227766016838</speed>
  <fix>3d</fix>
</trkpt>
<trkpt lat="40.0713749" lon="-105.229789">
  <ele>1583.0</ele>
  <time>2026-08-28T17:50:13Z</time>
  <course>0.0</course>
  <speed>0.0</speed>
  <fix>3d</fix>
</trkpt>
<trkpt lat="40.0713749" lon="-105.229789">
  <ele>1583.0</ele>
  <time>2026-08-28T17:50:13Z</time>
  <course>247.65</course>
  <speed>0.0316227766016838</speed>
  <fix>3d</fix>
</trkpt>
<trkpt lat="40.0713749" lon="-105.229789">
  <ele>1583.0</ele>
  <time>2026-08-28T17:50:13Z</time>
  <course>0.0</course>
  <speed>0.0</speed>
  <fix>3d</fix>
</trkpt>
<trkpt lat="40.0713749" lon="-105.229789">
  <ele>1583.0</ele>
  <time>2026-08-28T17:50:13Z</time>
  <course>247.65</course>
  <speed>0.0316227766016838</speed>
  <fix>3d</fix>
</trkpt>
<trkpt lat="40.0713749" lon="-105.229789">
  <ele>1583.0</ele>
  <time>2026-08-28T17:50:13Z</time>
  <course>0.0</course>
  <speed>0.0</speed>
  <fix>3d</fix>
</trkpt>
<trkpt lat="40.0713749" lon="-105.229789">
  <ele>1583.0</ele>
  <time>2026-08-28T17:50:13Z</time>
  <course>247.65</course>
  <speed>0.0316227766016838</speed>
  <fix>3d</fix>
</trkpt>
<trkpt lat="40.0713749" lon="-105.229789">
  <ele>1583.0</ele>
  <time>2026-08-28T17:50:13Z</time>
  <course>0.0</course>
  <speed>0.0</speed>
  <fix>3d</fix>
</trkpt>
<trkpt lat="40.0713749" lon="-105.229789">
  <ele>1583.0</ele>
  <time>2026-08-28T17:50:13Z</time>
  <course>247.64</course>
  <speed>0.0316227766016838</speed>
  <fix>3d</fix>
</trkpt>
<trkpt lat="40.0713749" lon="-105.229789">
  <ele>1583.0</ele>
  <time>2026-08-28T17:50:13Z</time>
  <course>0.0</course>
  <speed>0.0</speed>
  <fix>3d</fix>
</trkpt>
<trkpt lat="40.0713749" lon="-105.229789">
  <ele>1583.0</ele>
  <time>2026-08-28T17:50:13Z</time>
  <course>247.64</course>
  <speed>0.0316227766016838</speed>
  <fix>3d</fix>
</trkpt>
<trkpt lat="40.0713749" lon="-105.229789">
  <ele>1583.0</ele>
  <time>2026-08-28T17:50:13Z</time>
  <course>0.0</course>
  <speed>0.0</speed>
  <fix>3d</fix>
</trkpt>
<trkpt lat="40.0713749" lon="-105.229789">
  <ele>1583.0</ele>
  <time>2026-08-28T17:50:13Z</time>
  <course>247.64</course>
  <speed>0.0316227766016838</speed>
  <fix>3d</fix>
</trkpt>
<trkpt lat="40.0713749" lon="-105.229789">
  <ele>1583.0</ele>
  <time>2026-08-28T17:50:13Z</time>
  <course>0.0</course>
  <speed>0.0</speed>
  <fix>3d</fix>
</trkpt>
<trkpt lat="40.0713749" lon="-105.229789">
  <ele>1583.0</ele>
  <time>2026-08-28T17:50:13Z</time>
  <course>247.64</course>
  <speed>0.0316227766016838</speed>
  <fix>3d</fix>
</trkpt>
<trkpt lat="40.0713749" lon="-105.229789">
  <ele>1583.0</ele>
  <time>2026-08-28T17:50:13Z</time>
  <course>0.0</course>
  <speed>0.0</speed>
  <fix>3d</fix>
</trkpt>
<trkpt lat="40.0713749" lon="-105.229789">
  <ele>1583.0</ele>
  <time>2026-08-28T17:50:13Z</time>
  <course>247.63</course>
  <speed>0.0316227766016838</speed>
  <fix>3d</fix>
</trkpt>
<trkpt lat="40.0713749" lon="-105.229789">
  <ele>1583.0</ele>
  <time>2026-08-28T17:50:13Z</time>
  <course>0.0</course>
  <speed>0.0</speed>
  <fix>3d</fix>
</trkpt>
<trkpt lat="40.0713749" lon="-105.229789">
  <ele>1583.0</ele>
  <time>2026-08-28T17:50:13Z</time>
  <course>247.63</course>
  <speed>0.0316227766016838</speed>
  <fix>3d</fix>
</trkpt>
<trkpt lat="40.0713749" lon="-105.229789">
  <ele>1583.0</ele>
  <time>2026-08-28T17:50:13Z</time>
  <course>0.0</course>
  <speed>0.0</speed>
  <fix>3d</fix>
</trkpt>
<trkpt lat="40.0713749" lon="-105.229789">
  <ele>1583.0</ele>
  <time>2026-08-28T17:50:13Z</time>
  <course>247.63</course>
  <speed>0.0316227766016838</speed>
  <fix>3d</fix>
</trkpt>
<trkpt lat="40.0713749" lon="-105.229789">
  <ele>1583.0</ele>
  <time>2026-08-28T17:50:13Z</time>
  <course>0.0</course>
  <speed>0.0</speed>
  <fix>3d</fix>
</trkpt>
<trkpt lat="40.0713749" lon="-105.229789">
  <ele>1583.0</ele>
  <time>2026-08-28T17:50:13Z</time>
  <course>247.62</course>
  <speed>0.0316227766016838</speed>
  <fix>3d</fix>
</trkpt>
<trkpt lat="40.0713749" lon="-105.229789">
  <ele>1583.0</ele>
  <time>2026-08-28T17:50:13Z</time>
  <course>0.0</course>
  <speed>0.0</speed>
  <fix>3d</fix>
</trkpt>
<trkpt lat="40.0713749" lon="-105.229789">
  <ele>1583.0</ele>
  <time>2026-08-28T17:50:13Z</time>
  <course>247.62</course>
  <speed>0.0316227766016838</speed>
  <fix>3d</fix>
</trkpt>
<trkpt lat="40.0713749" lon="-105.229789">
  <ele>1583.0</ele>
  <time>2026-08-28T17:50:13Z</time>
  <course>0.0</course>
  <speed>0.0</speed>
  <fix>3d</fix>
</trkpt>
<trkpt lat="40.0713749" lon="-105.229789">
  <ele>1583.0</ele>
  <time>2026-08-28T17:50:13Z</time>
  <course>247.62</course>
  <speed>0.0316227766016838</speed>
  <fix>3d</fix>
</trkpt>
<trkpt lat="40.0713749" lon="-105.229789">
  <ele>1583.0</ele>
  <time>2026-08-28T17:50:13Z</time>
  <course>0.0</course>
  <speed>0.0</speed>
  <fix>3d</fix>
</trkpt>
<trkpt lat="40.0713749" lon="-105.229789">
  <ele>1583.0</ele>
  <time>2026-08-28T17:50:13Z</time>
  <course>247.62</course>
  <speed>0.0316227766016838</speed>
  <fix>3d</fix>
</trkpt>
<trkpt lat="40.0713749" lon="-105.229789">
  <ele>1583.0</ele>
  <time>2026-08-28T17:50:13Z</time>
  <course>0.0</course>
  <speed>0.0</speed>
  <fix>3d</fix>
</trkpt>
<trkpt lat="40.0713749" lon="-105.229789">
  <ele>1583.0</ele>
  <time>2026-08-28T17:50:13Z</time>
  <course>247.61</course>
  <speed>0.0316227766016838</speed>
  <fix>3d</fix>
</trkpt>
<trkpt lat="40.0713749" lon="-105.229789">
  <ele>1583.0</ele>
  <time>2026-08-28T17:50:13Z</time>
  <course>0.0</course>
  <speed>0.0</speed>
  <fix>3d</fix>
</trkpt>
<trkpt lat="40.0713749" lon="-105.229789">
  <ele>1583.0</ele>
  <time>2026-08-28T17:50:13Z</time>
  <course>247.61</course>
  <speed>0.0316227766016838</speed>
  <fix>3d</fix>
</trkpt>
<trkpt lat="40.0713749" lon="-105.229789">
  <ele>1583.0</ele>
  <time>2026-08-28T17:50:13Z</time>
  <course>0.0</course>
  <speed>0.0</speed>
  <fix>3d</fix>
</trkpt>
<trkpt lat="40.0713749" lon="-105.229789">
  <ele>1583.0</ele>
  <time>2026-08-28T17:50:13Z</time>
  <course>247.61</course>
  <speed>0.0316227766016838</speed>
  <fix>3d</fix>
</trkpt>
<trkpt lat="40.0713749" lon="-105.229789">
  <ele>1583.0</ele>
  <time>2026-08-28T17:50:13Z</time>
  <course>0.0</course>
  <speed>0.0</speed>
  <fix>3d</fix>
</trkpt>
<trkpt lat="40.0713749" lon="-105.229789">
  <ele>1583.0</ele>
  <time>2026-08-28T17:50:13Z</time>
  <course>247.6</course>
  <speed>0.0316227766016838</speed>
  <fix>3d</fix>
</trkpt>
<trkpt lat="40.0713749" lon="-105.229789">
  <ele>1583.0</ele>
  <time>2026-08-28T17:50:13Z</time>
  <course>0.0</course>
  <speed>0.0</speed>
  <fix>3d</fix>
</trkpt>
<trkpt lat="40.0713749" lon="-105.229789">
  <ele>1583.0</ele>
  <time>2026-08-28T17:50:13Z</time>
  <course>247.6</course>
  <speed>0.0316227766016838</speed>
  <fix>3d</fix>
</trkpt>
<trkpt lat="40.0713749" lon="-105.229789">
  <ele>1583.0</ele>
  <time>2026-08-28T17:50:13Z</time>
  <course>0.0</course>
  <speed>0.0</speed>
  <fix>3d</fix>
</trkpt>
<trkpt lat="40.0713749" lon="-105.229789">
  <ele>1583.0</ele>
  <time>2026-08-28T17:50:13Z</time>
  <course>247.6</course>
  <speed>0.0316227766016838</speed>
  <fix>3d</fix>
</trkpt>
<trkpt lat="40.0713749" lon="-105.229789">
  <ele>1583.0</ele>
  <time>2026-08-28T17:50:13Z</time>
  <course>0.0</course>
  <speed>0.0</speed>
  <fix>3d</fix>
</trkpt>
<trkpt lat="40.0713749" lon="-105.229789">
  <ele>1583.0</ele>
  <time>2026-08-28T17:50:13Z</time>
  <course>247.6</course>
  <speed>0.0316227766016838</speed>
  <fix>3d</fix>
</trkpt>
<trkpt lat="40.0713749" lon="-105.229789">
  <ele>1583.0</ele>
  <time>2026-08-28T17:50:13Z</time>
  <course>0.0</course>
  <speed>0.0</speed>
  <fix>3d</fix>
</trkpt>
<trkpt lat="40.0713749" lon="-105.229789">
  <ele>1583.0</ele>
  <time>2026-08-28T17:50:13Z</time>
  <course>247.59</course>
  <speed>0.0316227766016838</speed>
  <fix>3d</fix>
</trkpt>
<trkpt lat="40.0713749" lon="-105.229789">
  <ele>1583.0</ele>
  <time>2026-08-28T17:50:13Z</time>
  <course>0.0</course>
  <speed>0.0</speed>
  <fix>3d</fix>
</trkpt>
<trkpt lat="40.0713749" lon="-105.229789">
  <ele>1582.92</ele>
  <time>2026-08-28T17:50:13Z</time>
  <course>247.59</course>
  <speed>0.0</speed>
  <fix>3d</fix>
</trkpt>
<trkpt lat="40.0713749" lon="-105.229789">
  <ele>1583.0</ele>
  <time>2026-08-28T17:50:13Z</time>
  <course>0.0</course>
  <speed>0.0</speed>
  <fix>3d</fix>
</trkpt>
<trkpt lat="40.0713749" lon="-105.229789">
  <ele>1582.92</ele>
  <time>2026-08-28T17:50:13Z</time>
  <course>247.59</course>
  <speed>0.0</speed>
  <fix>3d</fix>
</trkpt>
<trkpt lat="40.0713749" lon="-105.229789">
  <ele>1583.0</ele>
  <time>2026-08-28T17:50:13Z</time>
  <course>0.0</course>
  <speed>0.0</speed>
  <fix>3d</fix>
</trkpt>
<trkpt lat="40.0713749" lon="-105.229789">
  <ele>1582.91</ele>
  <time>2026-08-28T17:50:13Z</time>
  <course>247.58</course>
  <speed>0.0</speed>
  <fix>3d</fix>
</trkpt>
<trkpt lat="40.0713749" lon="-105.229789">
  <ele>1583.0</ele>
  <time>2026-08-28T17:50:13Z</time>
  <course>0.0</course>
  <speed>0.0</speed>
  <fix>3d</fix>
</trkpt>
<trkpt lat="40.0713749" lon="-105.229789">
  <ele>1582.91</ele>
  <time>2026-08-28T17:50:13Z</time>
  <course>247.58</course>
  <speed>0.0</speed>
  <fix>3d</fix>
</trkpt>
<trkpt lat="40.0713749" lon="-105.229789">
  <ele>1583.0</ele>
  <time>2026-08-28T17:50:13Z</time>
  <course>0.0</course>
  <speed>0.0</speed>
  <fix>3d</fix>
</trkpt>
<trkpt lat="40.0713749" lon="-105.229789">
  <ele>1582.9</ele>
  <time>2026-08-28T17:50:13Z</time>
  <course>247.58</course>
  <speed>0.0</speed>
  <fix>3d</fix>
</trkpt>
<trkpt lat="40.0713749" lon="-105.229789">
  <ele>1583.0</ele>
  <time>2026-08-28T17:50:13Z</time>
  <course>0.0</course>
  <speed>0.0</speed>
  <fix>3d</fix>
</trkpt>
<trkpt lat="40.0713749" lon="-105.229789">
  <ele>1582.9</ele>
  <time>2026-08-28T17:50:13Z</time>
  <course>247.58</course>
  <speed>0.0</speed>
  <fix>3d</fix>
</trkpt>
<trkpt lat="40.0713749" lon="-105.229789">
  <ele>1583.0</ele>
  <time>2026-08-28T17:50:13Z</time>
  <course>0.0</course>
  <speed>0.0</speed>
  <fix>3d</fix>
</trkpt>
<trkpt lat="40.0713749" lon="-105.229789">
  <ele>1582.9</ele>
  <time>2026-08-28T17:50:13Z</time>
  <course>247.57</course>
  <speed>0.0</speed>
  <fix>3d</fix>
</trkpt>
<trkpt lat="40.0713749" lon="-105.229789">
  <ele>1583.0</ele>
  <time>2026-08-28T17:50:13Z</time>
  <course>0.0</course>
  <speed>0.0</speed>
  <fix>3d</fix>
</trkpt>
<trkpt lat="40.0713749" lon="-105.229789">
  <ele>1582.9</ele>
  <time>2026-08-28T17:50:13Z</time>
  <course>247.57</course>
  <speed>0.0</speed>
  <fix>3d</fix>
</trkpt>
<trkpt lat="40.0713749" lon="-105.229789">
  <ele>1583.0</ele>
  <time>2026-08-28T17:50:13Z</time>
  <course>0.0</course>
  <speed>0.0</speed>
  <fix>3d</fix>
</trkpt>
<trkpt lat="40.0713749" lon="-105.229789">
  <ele>1582.9</ele>
  <time>2026-08-28T17:50:13Z</time>
  <course>247.57</course>
  <speed>0.0</speed>
  <fix>3d</fix>
</trkpt>
<trkpt lat="40.0713749" lon="-105.229789">
  <ele>1583.0</ele>
  <time>2026-08-28T17:50:13Z</time>
  <course>0.0</course>
  <speed>0.0</speed>
  <fix>3d</fix>
</trkpt>
<trkpt lat="40.0713749" lon="-105.229789">
  <ele>1582.9</ele>
  <time>2026-08-28T17:50:13Z</time>
  <course>247.57</course>
  <speed>0.01</speed>
  <fix>3d</fix>
</trkpt>
<trkpt lat="40.0713749" lon="-105.229789">
  <ele>1583.0</ele>
  <time>2026-08-28T17:50:13Z</time>
  <course>0.0</course>
  <speed>0.0</speed>
  <fix>3d</fix>
</trkpt>
<trkpt lat="40.0713749" lon="-105.229789">
  <ele>1582.9</ele>
  <time>2026-08-28T17:50:13Z</time>
  <course>247.56</course>
  <speed>0.01</speed>
  <fix>3d</fix>
</trkpt>
<trkpt lat="40.0713749" lon="-105.229789">
  <ele>1583.0</ele>
  <time>2026-08-28T17:50:13Z</time>
  <course>0.0</course>
  <speed>0.0</speed>
  <fix>3d</fix>
</trkpt>
<trkpt lat="40.0713749" lon="-105.229789">
  <ele>1582.91</ele>
  <time>2026-08-28T17:50:13Z</time>
  <course>247.56</course>
  <speed>0.01</speed>
  <fix>3d</fix>
</trkpt>
<trkpt lat="40.0713749" lon="-105.229789">
  <ele>1583.0</ele>
  <time>2026-08-28T17:50:13Z</time>
  <course>0.0</course>
  <speed>0.0</speed>
  <fix>3d</fix>
</trkpt>
<trkpt lat="40.0713749" lon="-105.229789">
  <ele>1582.91</ele>
  <time>2026-08-28T17:50:13Z</time>
  <course>247.56</course>
  <speed>0.01</speed>
  <fix>3d</fix>
</trkpt>
<trkpt lat="40.0713749" lon="-105.229789">
  <ele>1583.0</ele>
  <time>2026-08-28T17:50:13Z</time>
  <course>0.0</course>
  <speed>0.0</speed>
  <fix>3d</fix>
</trkpt>
<trkpt lat="40.0713749" lon="-105.229789">
  <ele>1582.92</ele>
  <time>2026-08-28T17:50:13Z</time>
  <course>247.56</course>
  <speed>0.01</speed>
  <fix>3d</fix>
</trkpt>
<trkpt lat="40.0713749" lon="-105.229789">
  <ele>1583.0</ele>
  <time>2026-08-28T17:50:13Z</time>
  <course>0.0</course>
  <speed>0.0</speed>
  <fix>3d</fix>
</trkpt>
<trkpt lat="40.0713749" lon="-105.229789">
  <ele>1582.92</ele>
  <time>2026-08-28T17:50:13Z</time>
  <course>247.55</course>
  <speed>0.01</speed>
  <fix>3d</fix>
</trkpt>
<trkpt lat="40.0713749" lon="-105.229789">
  <ele>1583.0</ele>
  <time>2026-08-28T17:50:13Z</time>
  <course>0.0</course>
  <speed>0.0</speed>
  <fix>3d</fix>
</trkpt>
<trkpt lat="40.0713749" lon="-105.229789">
  <ele>1582.92</ele>
  <time>2026-08-28T17:50:13Z</time>
  <course>247.55</course>
  <speed>0.01</speed>
  <fix>3d</fix>
</trkpt>
<trkpt lat="40.0713749" lon="-105.229789">
  <ele>1583.0</ele>
  <time>2026-08-28T17:50:13Z</time>
  <course>0.0</course>
  <speed>0.0</speed>
  <fix>3d</fix>
</trkpt>
<trkpt lat="40.0713749" lon="-105.229789">
  <ele>1582.93</ele>
  <time>2026-08-28T17:50:13Z</time>
  <course>247.55</course>
  <speed>0.01</speed>
  <fix>3d</fix>
</trkpt>
<trkpt lat="40.0713749" lon="-105.229789">
  <ele>1583.0</ele>
  <time>2026-08-28T17:50:13Z</time>
  <course>0.0</course>
  <speed>0.0</speed>
  <fix>3d</fix>
</trkpt>
<trkpt lat="40.0713749" lon="-105.229789">
  <ele>1582.93</ele>
  <time>2026-08-28T17:50:13Z</time>
  <course>247.55</course>
  <speed>0.01</speed>
  <fix>3d</fix>
</trkpt>
<trkpt lat="40.0713749" lon="-105.229789">
  <ele>1583.0</ele>
  <time>2026-08-28T17:50:13Z</time>
  <course>0.0</course>
  <speed>0.0</speed>
  <fix>3d</fix>
</trkpt>
<trkpt lat="40.0713749" lon="-105.229789">
  <ele>1582.93</ele>
  <time>2026-08-28T17:50:13Z</time>
  <course>247.54</course>
  <speed>0.01</speed>
  <fix>3d</fix>
</trkpt>
<trkpt lat="40.0713749" lon="-105.229789">
  <ele>1583.0</ele>
  <time>2026-08-28T17:50:13Z</time>
  <course>0.0</course>
  <speed>0.0</speed>
  <fix>3d</fix>
</trkpt>
<trkpt lat="40.0713749" lon="-105.229789">
  <ele>1582.93</ele>
  <time>2026-08-28T17:50:13Z</time>
  <course>247.54</course>
  <speed>0.02</speed>
  <fix>3d</fix>
</trkpt>
<trkpt lat="40.0713749" lon="-105.229789">
  <ele>1583.0</ele>
  <time>2026-08-28T17:50:13Z</time>
  <course>0.0</course>
  <speed>0.0</speed>
  <fix>3d</fix>
</trkpt>
<trkpt lat="40.0713749" lon="-105.229789">
  <ele>1582.94</ele>
  <time>2026-08-28T17:50:13Z</time>
  <course>247.54</course>
  <speed>0.02</speed>
  <fix>3d</fix>
</trkpt>
<trkpt lat="40.0713749" lon="-105.229789">
  <ele>1583.0</ele>
  <time>2026-08-28T17:50:13Z</time>
  <course>0.0</course>
  <speed>0.0</speed>
  <fix>3d</fix>
</trkpt>
<trkpt lat="40.0713749" lon="-105.229789">
  <ele>1582.94</ele>
  <time>2026-08-28T17:50:13Z</time>
  <course>247.54</course>
  <speed>0.02</speed>
  <fix>3d</fix>
</trkpt>
<trkpt lat="40.0713749" lon="-105.229789">
  <ele>1583.0</ele>
  <time>2026-08-28T17:50:13Z</time>
  <course>0.0</course>
  <speed>0.0</speed>
  <fix>3d</fix>
</trkpt>
<trkpt lat="40.0713749" lon="-105.229789">
  <ele>1582.94</ele>
  <time>2026-08-28T17:50:13Z</time>
  <course>247.53</course>
  <speed>0.01414213562373095</speed>
  <fix>3d</fix>
</trkpt>
<trkpt lat="40.0713749" lon="-105.229789">
  <ele>1583.0</ele>
  <time>2026-08-28T17:50:13Z</time>
  <course>0.0</course>
  <speed>0.0</speed>
  <fix>3d</fix>
</trkpt>
<trkpt lat="40.0713749" lon="-105.229789">
  <ele>1582.95</ele>
  <time>2026-08-28T17:50:13Z</time>
  <course>247.53</course>
  <speed>0.12369316876852982</speed>
  <fix>3d</fix>
</trkpt>
<trkpt lat="40.0713749" lon="-105.229789">
  <ele>1583.0</ele>
  <time>2026-08-28T17:50:13Z</time>
  <course>246.0</course>
  <speed>0.06</speed>
  <fix>3d</fix>
</trkpt>
<trkpt lat="40.0713749" lon="-105.2297893">
  <ele>1582.95</ele>
  <time>2026-08-28T17:50:13Z</time>
  <course>247.53</course>
  <speed>0.3289376840679705</speed>
  <fix>3d</fix>
</trkpt>
<trkpt lat="40.0713749" lon="-105.229789">
  <ele>1583.0</ele>
  <time>2026-08-28T17:50:13Z</time>
  <course>246.0</course>
  <speed>0.06</speed>
  <fix>3d</fix>
</trkpt>
<trkpt lat="40.0713748" lon="-105.2297898">
  <ele>1582.95</ele>
  <time>2026-08-28T17:50:13Z</time>
  <course>247.53</course>
  <speed>0.6296824596572467</speed>
  <fix>3d</fix>
</trkpt>
<trkpt lat="40.0713748" lon="-105.2297893">
  <ele>1583.0</ele>
  <time>2026-08-28T17:50:13Z</time>
  <course>246.0</course>
  <speed>0.39</speed>
  <fix>3d</fix>
</trkpt>
<trkpt lat="40.0713744" lon="-105.2297908">
  <ele>1582.96</ele>
  <time>2026-08-28T17:50:13Z</time>
  <course>247.52</course>
  <speed>0.9563472172804185</speed>
  <fix>3d</fix>
</trkpt>
<trkpt lat="40.0713748" lon="-105.2297893">
  <ele>1583.0</ele>
  <time>2026-08-28T17:50:13Z</time>
  <course>246.0</course>
  <speed>0.39</speed>
  <fix>3d</fix>
</trkpt>
<trkpt lat="40.071374" lon="-105.229792">
  <ele>1582.96</ele>
  <time>2026-08-28T17:50:13Z</time>
  <course>247.52</course>
  <speed>1.2701574705523722</speed>
  <fix>3d</fix>
</trkpt>
<trkpt lat="40.0713744" lon="-105.2297908">
  <ele>1583.0</ele>
  <time>2026-08-28T17:50:13Z</time>
  <course>246.0</course>
  <speed>0.95</speed>
  <fix>3d</fix>
</trkpt>
<trkpt lat="40.0713735" lon="-105.2297937">
  <ele>1582.96</ele>
  <time>2026-08-28T17:50:13Z</time>
  <course>247.51</course>
  <speed>1.6601204775557707</speed>
  <fix>3d</fix>
</trkpt>
<trkpt lat="40.0713744" lon="-105.2297908">
  <ele>1583.0</ele>
  <time>2026-08-28T17:50:13Z</time>
  <course>246.0</course>
  <speed>0.95</speed>
  <fix>3d</fix>
</trkpt>
<trkpt lat="40.0713728" lon="-105.2297959">
  <ele>1582.96</ele>
  <time>2026-08-28T17:50:13Z</time>
  <course>247.5</course>
  <speed>2.1077238908357994</speed>
  <fix>3d</fix>
</trkpt>
<trkpt lat="40.0713734" lon="-105.2297936">
  <ele>1583.0</ele>
  <time>2026-08-28T17:50:13Z</time>
  <course>246.0</course>
  <speed>1.67</speed>
  <fix>3d</fix>
</trkpt>
<trkpt lat="40.0713719" lon="-105.2297985">
  <ele>1582.96</ele>
  <time>2026-08-28T17:50:13Z</time>
  <course>247.49</course>
  <speed>2.4977189593707294</speed>
  <fix>3d</fix>
</trkpt>
<trkpt lat="40.0713734" lon="-105.2297936">
  <ele>1583.0</ele>
  <time>2026-08-28T17:50:13Z</time>
  <course>246.0</course>
  <speed>1.67</speed>
  <fix>3d</fix>
</trkpt>
<trkpt lat="40.071371" lon="-105.2298015">
  <ele>1582.96</ele>
  <time>2026-08-28T17:50:13Z</time>
  <course>247.47</course>
  <speed>2.761539425755135</speed>
  <fix>3d</fix>
</trkpt>
<trkpt lat="40.0713719" lon="-105.2297979">
  <ele>1583.0</ele>
  <time>2026-08-28T17:50:13Z</time>
  <course>246.0</course>
  <speed>2.38</speed>
  <fix>3d</fix>
</trkpt>
<trkpt lat="40.0713699" lon="-105.2298047">
  <ele>1582.96</ele>
  <time>2026-08-28T17:50:13Z</time>
  <course>247.45</course>
  <speed>2.99</speed>
  <fix>3d</fix>
</trkpt>
<trkpt lat="40.0713719" lon="-105.2297979">
  <ele>1583.0</ele>
  <time>2026-08-28T17:50:13Z</time>
  <course>246.0</course>
  <speed>2.38</speed>
  <fix>3d</fix>
</trkpt>
<trkpt lat="40.0713688" lon="-105.2298079">
  <ele>1582.95</ele>
  <time>2026-08-28T17:50:13Z</time>
  <course>247.42</course>
  <speed>2.86</speed>
  <fix>3d</fix>
</trkpt>
<trkpt lat="40.07137" lon="-105.2298036">
  <ele>1583.0</ele>
  <time>2026-08-28T17:50:13Z</time>
  <course>246.0</course>
  <speed>2.73</speed>
  <fix>3d</fix>
</trkpt>
<trkpt lat="40.0713678" lon="-105.2298109">
  <ele>1582.96</ele>
  <time>2026-08-28T17:50:13Z</time>
  <course>247.39</course>
  <speed>2.7246467660964786</speed>
  <fix>3d</fix>
</trkpt>
<trkpt lat="40.07137" lon="-105.2298036">
  <ele>1583.0</ele>
  <time>2026-08-28T17:50:13Z</time>
  <course>246.0</course>
  <speed>2.73</speed>
  <fix>3d</fix>
</trkpt>
<trkpt lat="40.0713668" lon="-105.2298137">
  <ele>1582.96</ele>
  <time>2026-08-28T17:50:13Z</time>
  <course>247.37</course>
  <speed>2.5946483384073455</speed>
  <fix>3d</fix>
</trkpt>
<trkpt lat="40.07137" lon="-105.2298036">
  <ele>1583.0</ele>
  <time>2026-08-28T17:50:13Z</time>
  <course>246.0</course>
  <speed>2.73</speed>
  <fix>3d</fix>
</trkpt>
<trkpt lat="40.0713659" lon="-105.2298164">
  <ele>1582.96</ele>
  <time>2026-08-28T17:50:13Z</time>
  <course>247.35</course>
  <speed>2.4685623346393344</speed>
  <fix>3d</fix>
</trkpt>
<trkpt lat="40.071368" lon="-105.2298095">
  <ele>1583.0</ele>
  <time>2026-08-28T17:50:13Z</time>
  <course>246.0</course>
  <speed>2.64</speed>
  <fix>3d</fix>
</trkpt>
<trkpt lat="40.0713651" lon="-105.2298189">
  <ele>1582.96</ele>
  <time>2026-08-28T17:50:13Z</time>
  <course>247.34</course>
  <speed>2.351701511671921</speed>
  <fix>3d</fix>
</trkpt>
<trkpt lat="40.071368" lon="-105.2298095">
  <ele>1583.0</ele>
  <time>2026-08-28T17:50:13Z</time>
  <course>246.0</course>
  <speed>2.64</speed>
  <fix>3d</fix>
</trkpt>
<trkpt lat="40.0713642" lon="-105.2298212">
  <ele>1582.96</ele>
  <time>2026-08-28T17:50:13Z</time>
  <course>247.33</course>
  <speed>2.2348601745970598</speed>
  <fix>3d</fix>
</trkpt>
<trkpt lat="40.0713662" lon="-105.2298149">
  <ele>1583.0</ele>
  <time>2026-08-28T17:50:13Z</time>
  <course>246.0</course>
  <speed>2.39</speed>
  <fix>3d</fix>
</trkpt>
<trkpt lat="40.0713635" lon="-105.2298234">
  <ele>1582.96</ele>
  <time>2026-08-28T17:50:13Z</time>
  <course>247.32</course>
  <speed>2.1272047386182646</speed>
  <fix>3d</fix>
</trkpt>
<trkpt lat="40.0713662" lon="-105.2298149">
  <ele>1583.0</ele>
  <time>2026-08-28T17:50:13Z</time>
  <course>246.0</course>
  <speed>2.39</speed>
  <fix>3d</fix>
</trkpt>
<trkpt lat="40.0713627" lon="-105.2298255">
  <ele>1582.96</ele>
  <time>2026-08-28T17:50:13Z</time>
  <course>247.32</course>
  <speed>2.0195544062985773</speed>
  <fix>3d</fix>
</trkpt>
<trkpt lat="40.0713645" lon="-105.2298198">
  <ele>1583.0</ele>
  <time>2026-08-28T17:50:13Z</time>
  <course>246.0</course>
  <speed>2.16</speed>
  <fix>3d</fix>
</trkpt>
<trkpt lat="40.071362" lon="-105.2298275">
  <ele>1582.97</ele>
  <time>2026-08-28T17:50:13Z</time>
  <course>247.31</course>
  <speed>1.9119100397246729</speed>
  <fix>3d</fix>
</trkpt>
<trkpt lat="40.0713645" lon="-105.2298198">
  <ele>1583.0</ele>
  <time>2026-08-28T17:50:13Z</time>
  <course>246.0</course>
  <speed>2.16</speed>
  <fix>3d</fix>
</trkpt>
<trkpt lat="40.0713613" lon="-105.2298294">
  <ele>1582.97</ele>
  <time>2026-08-28T17:50:13Z</time>
  <course>247.31</course>
  <speed>1.817470770053813</speed>
  <fix>3d</fix>
</trkpt>
<trkpt lat="40.071363" lon="-105.2298242">
  <ele>1583.0</ele>
  <time>2026-08-28T17:50:13Z</time>
  <course>246.0</course>
  <speed>1.95</speed>
  <fix>3d</fix>
</trkpt>
<trkpt lat="40.0713607" lon="-105.2298312">
  <ele>1582.98</ele>
  <time>2026-08-28T17:50:13Z</time>
  <course>247.31</course>
  <speed>1.7281203661782358</speed>
  <fix>3d</fix>
</trkpt>
<trkpt lat="40.0713616" lon="-105.2298282">
  <ele>1583.0</ele>
  <time>2026-08-28T17:50:13Z</time>
  <course>246.0</course>
  <speed>1.77</speed>
  <fix>3d</fix>
</trkpt>
<trkpt lat="40.0713601" lon="-105.2298329">
  <ele>1582.99</ele>
  <time>2026-08-28T17:50:13Z</time>
  <course>247.31</course>
  <speed>1.6428329190760695</speed>
  <fix>3d</fix>
</trkpt>
<trkpt lat="40.0713616" lon="-105.2298282">
  <ele>1583.0</ele>
  <time>2026-08-28T17:50:13Z</time>
  <course>246.0</course>
  <speed>1.77</speed>
  <fix>3d</fix>
</trkpt>
<trkpt lat="40.0713595" lon="-105.2298345">
  <ele>1583.0</ele>
  <time>2026-08-28T17:50:13Z</time>
  <course>247.31</course>
  <speed>1.5666843970627906</speed>
  <fix>3d</fix>
</trkpt>
<trkpt lat="40.0713604" lon="-105.2298318">
  <ele>1583.0</ele>
  <time>2026-08-28T17:50:13Z</time>
  <course>246.0</course>
  <speed>1.6</speed>
  <fix>3d</fix>
</trkpt>
<trkpt lat="40.071359" lon="-105.2298361">
  <ele>1583.01</ele>
  <time>2026-08-28T17:50:13Z</time>
  <course>247.31</course>
  <speed>1.4814182393908886</speed>
  <fix>3d</fix>
</trkpt>
<trkpt lat="40.0713604" lon="-105.2298318">
  <ele>1583.0</ele>
  <time>2026-08-28T17:50:13Z</time>
  <course>246.0</course>
  <speed>1.6</speed>
  <fix>3d</fix>
</trkpt>
<trkpt lat="40.0713585" lon="-105.2298376">
  <ele>1583.02</ele>
  <time>2026-08-28T17:50:13Z</time>
  <course>247.31</course>
  <speed>1.414390328021229</speed>
  <fix>3d</fix>
</trkpt>
<trkpt lat="40.0713593" lon="-105.2298351">
  <ele>1583.0</ele>
  <time>2026-08-28T17:50:13Z</time>
  <course>246.0</course>
  <speed>1.45</speed>
  <fix>3d</fix>
</trkpt>
<trkpt lat="40.071358" lon="-105.229839">
  <ele>1583.02</ele>
  <time>2026-08-28T17:50:13Z</time>
  <course>247.31</course>
  <speed>1.3423859355639869</speed>
  <fix>3d</fix>
</trkpt>
<trkpt lat="40.0713593" lon="-105.2298351">
  <ele>1583.0</ele>
  <time>2026-08-28T17:50:13Z</time>
  <course>246.0</course>
  <speed>1.45</speed>
  <fix>3d</fix>
</trkpt>
<trkpt lat="40.0713575" lon="-105.2298403">
  <ele>1583.02</ele>
  <time>2026-08-28T17:50:13Z</time>
  <course>247.31</course>
  <speed>1.27534309109353</speed>
  <fix>3d</fix>
</trkpt>
<trkpt lat="40.0713583" lon="-105.2298381">
  <ele>1583.0</ele>
  <time>2026-08-28T17:50:13Z</time>
  <course>246.0</course>
  <speed>1.31</speed>
  <fix>3d</fix>
</trkpt>
<trkpt lat="40.0713571" lon="-105.2298416">
  <ele>1583.02</ele>
  <time>2026-08-28T17:50:13Z</time>
  <course>247.31</course>
  <speed>1.2083045973594573</speed>
  <fix>3d</fix>
</trkpt>
<trkpt lat="40.0713583" lon="-105.2298381">
  <ele>1583.0</ele>
  <time>2026-08-28T17:50:13Z</time>
  <course>246.0</course>
  <speed>1.31</speed>
  <fix>3d</fix>
</trkpt>
<trkpt lat="40.0713566" lon="-105.2298428">
  <ele>1583.01</ele>
  <time>2026-08-28T17:50:13Z</time>
  <course>247.31</course>
  <speed>1.1545128842936314</speed>
  <fix>3d</fix>
</trkpt>
<trkpt lat="40.0713573" lon="-105.2298407">
  <ele>1583.0</ele>
  <time>2026-08-28T17:50:13Z</time>
  <course>246.0</course>
  <speed>1.18</speed>
  <fix>3d</fix>
</trkpt>
<trkpt lat="40.0713562" lon="-105.2298439">
  <ele>1583.01</ele>
  <time>2026-08-28T17:50:13Z</time>
  <course>247.31</course>
  <speed>1.0916501271011696</speed>
  <fix>3d</fix>
</trkpt>
<trkpt lat="40.0713573" lon="-105.2298407">
  <ele>1583.0</ele>
  <time>2026-08-28T17:50:13Z</time>
  <course>246.0</course>
  <speed>1.18</speed>
  <fix>3d</fix>
</trkpt>
<trkpt lat="40.0713559" lon="-105.229845">
  <ele>1583.0</ele>
  <time>2026-08-28T17:50:13Z</time>
  <course>247.31</course>
  <speed>1.0378824596263296</speed>
  <fix>3d</fix>
</trkpt>
<trkpt lat="40.0713566" lon="-105.2298431">
  <ele>1583.0</ele>
  <time>2026-08-28T17:50:13Z</time>
  <course>246.0</course>
  <speed>1.07</speed>
  <fix>3d</fix>
</trkpt>
<trkpt lat="40.0713555" lon="-105.229846">
  <ele>1583.0</ele>
  <time>2026-08-28T17:50:13Z</time>
  <course>247.31</course>
  <speed>0.9798979538707079</speed>
  <fix>3d</fix>
</trkpt>
<trkpt lat="40.0713566" lon="-105.2298431">
  <ele>1583.0</ele>
  <time>2026-08-28T17:50:13Z</time>
  <course>246.0</course>
  <speed>1.07</speed>
  <fix>3d</fix>
</trkpt>
<trkpt lat="40.0713552" lon="-105.229847">
  <ele>1583.0</ele>
  <time>2026-08-28T17:50:13Z</time>
  <course>247.31</course>
  <speed>0.935200513259055</speed>
  <fix>3d</fix>
</trkpt>
<trkpt lat="40.0713558" lon="-105.2298453">
  <ele>1583.0</ele>
  <time>2026-08-28T17:50:13Z</time>
  <course>246.0</course>
  <speed>0.97</speed>
  <fix>3d</fix>
</trkpt>
<trkpt lat="40.0713548" lon="-105.2298479">
  <ele>1582.99</ele>
  <time>2026-08-28T17:50:13Z</time>
  <course>247.31</course>
  <speed>0.8814193099768123</speed>
  <fix>3d</fix>
</trkpt>
<trkpt lat="40.0713558" lon="-105.2298453">
  <ele>1583.0</ele>
  <time>2026-08-28T17:50:13Z</time>
  <course>246.0</course>
  <speed>0.97</speed>
  <fix>3d</fix>
</trkpt>
<trkpt lat="40.0713545" lon="-105.2298488">
  <ele>1582.99</ele>
  <time>2026-08-28T17:50:13Z</time>
  <course>247.31</course>
  <speed>0.8409518416651456</speed>
  <fix>3d</fix>
</trkpt>
<trkpt lat="40.0713558" lon="-105.2298453">
  <ele>1583.0</ele>
  <time>2026-08-28T17:50:13Z</time>
  <course>246.0</course>
  <speed>0.97</speed>
  <fix>3d</fix>
</trkpt>
<trkpt lat="40.0713543" lon="-105.2298497">
  <ele>1583.0</ele>
  <time>2026-08-28T17:50:13Z</time>
  <course>247.31</course>
  <speed>0.7962411694957753</speed>
  <fix>3d</fix>
</trkpt>
<trkpt lat="40.0713551" lon="-105.2298473">
  <ele>1583.0</ele>
  <time>2026-08-28T17:50:13Z</time>
  <course>246.0</course>
  <speed>0.87</speed>
  <fix>3d</fix>
</trkpt>
<trkpt lat="40.071354" lon="-105.2298504">
  <ele>1583.0</ele>
  <time>2026-08-28T17:50:13Z</time>
  <course>247.31</course>
  <speed>0.7515317691222374</speed>
  <fix>3d</fix>
</trkpt>
<trkpt lat="40.0713551" lon="-105.2298473">
  <ele>1583.0</ele>
  <time>2026-08-28T17:50:13Z</time>
  <course>246.0</course>
  <speed>0.87</speed>
  <fix>3d</fix>
</trkpt>
<trkpt lat="40.0713537" lon="-105.2298512">
  <ele>1583.0</ele>
  <time>2026-08-28T17:50:13Z</time>
  <course>247.31</course>
  <speed>0.7158910531638176</speed>
  <fix>3d</fix>
</trkpt>
<trkpt lat="40.0713545" lon="-105.2298491">
  <ele>1583.0</ele>
  <time>2026-08-28T17:50:13Z</time>
  <course>246.0</course>
  <speed>0.79</speed>
  <fix>3d</fix>
</trkpt>
<trkpt lat="40.0713535" lon="-105.2298519">
  <ele>1583.0</ele>
  <time>2026-08-28T17:50:13Z</time>
  <course>247.31</course>
  <speed>0.6754257916307312</speed>
  <fix>3d</fix>
</trkpt>
<trkpt lat="40.0713545" lon="-105.2298491">
  <ele>1583.0</ele>
  <time>2026-08-28T17:50:13Z</time>
  <course>246.0</course>
  <speed>0.79</speed>
  <fix>3d</fix>
</trkpt>
<trkpt lat="40.0713526" lon="-105.2298544">
  <ele>1583.0</ele>
  <time>2026-08-28T17:50:13Z</time>
  <course>247.31</course>
  <speed>0.5412947441089743</speed>
  <fix>3d</fix>
</trkpt>
<trkpt lat="40.071353" lon="-105.2298535">
  <ele>1583.0</ele>
  <time>2026-08-28T17:50:13Z</time>
  <course>246.0</course>
  <speed>0.58</speed>
  <fix>3d</fix>
</trkpt>
<trkpt lat="40.0713523" lon="-105.2298555">
  <ele>1583.01</ele>
  <time>2026-08-28T17:50:14Z</time>
  <course>247.32</course>
  <speed>0.4833218389437829</speed>
  <fix>3d</fix>
</trkpt>
<trkpt lat="40.0713526" lon="-105.2298547">
  <ele>1583.0</ele>
  <time>2026-08-28T17:50:14Z</time>
  <course>246.0</course>
  <speed>0.53</speed>
  <fix>3d</fix>
</trkpt>
<trkpt lat="40.0713521" lon="-105.229856">
  <ele>1583.01</ele>
  <time>2026-08-28T17:50:14Z</time>
  <course>247.32</course>
  <speed>0.4609772228646444</speed>
  <fix>3d</fix>
</trkpt>
<trkpt lat="40.0713526" lon="-105.2298547">
  <ele>1583.0</ele>
  <time>2026-08-28T17:50:14Z</time>
  <course>246.0</course>
  <speed>0.53</speed>
  <fix>3d</fix>
</trkpt>
<trkpt lat="40.0713519" lon="-105.2298565">
  <ele>1583.01</ele>
  <time>2026-08-28T17:50:14Z</time>
  <course>247.32</course>
  <speed>0.4386342439892262</speed>
  <fix>3d</fix>
</trkpt>
<trkpt lat="40.0713522" lon="-105.2298558">
  <ele>1583.0</ele>
  <time>2026-08-28T17:50:14Z</time>
  <course>246.0</course>
  <speed>0.48</speed>
  <fix>3d</fix>
</trkpt>
<trkpt lat="40.0713518" lon="-105.2298569">
  <ele>1583.02</ele>
  <time>2026-08-28T17:50:14Z</time>
  <course>247.32</course>
  <speed>0.416293165929973</speed>
  <fix>3d</fix>
</trkpt>
<trkpt lat="40.0713522" lon="-105.2298558">
  <ele>1583.0</ele>
  <time>2026-08-28T17:50:14Z</time>
  <course>246.0</course>
  <speed>0.48</speed>
  <fix>3d</fix>
</trkpt>
<trkpt lat="40.0713516" lon="-105.2298573">
  <ele>1583.01</ele>
  <time>2026-08-28T17:50:14Z</time>
  <course>247.32</course>
  <speed>0.39395431207184417</speed>
  <fix>3d</fix>
</trkpt>
<trkpt lat="40.0713519" lon="-105.2298568">
  <ele>1583.0</ele>
  <time>2026-08-28T17:50:14Z</time>
  <course>246.0</course>
  <speed>0.43</speed>
  <fix>3d</fix>
</trkpt>
<trkpt lat="40.0713515" lon="-105.2298578">
  <ele>1583.01</ele>
  <time>2026-08-28T17:50:14Z</time>
  <course>247.32</course>
  <speed>0.3716180835212409</speed>
  <fix>3d</fix>
</trkpt>
<trkpt lat="40.0713519" lon="-105.2298568">
  <ele>1583.0</ele>
  <time>2026-08-28T17:50:14Z</time>
  <course>246.0</course>
  <speed>0.43</speed>
  <fix>3d</fix>
</trkpt>
<trkpt lat="40.0713514" lon="-105.2298582">
  <ele>1583.01</ele>
  <time>2026-08-28T17:50:14Z</time>
  <course>247.33</course>
  <speed>0.340147027033899</speed>
  <fix>3d</fix>
</trkpt>
<trkpt lat="40.0713516" lon="-105.2298577">
  <ele>1583.0</ele>
  <time>2026-08-28T17:50:14Z</time>
  <course>246.0</course>
  <speed>0.39</speed>
  <fix>3d</fix>
</trkpt>
<trkpt lat="40.0713512" lon="-105.2298586">
  <ele>1583.02</ele>
  <time>2026-08-28T17:50:14Z</time>
  <course>247.33</course>
  <speed>0.32695565448543634</speed>
  <fix>3d</fix>
</trkpt>
<trkpt lat="40.0713516" lon="-105.2298577">
  <ele>1583.0</ele>
  <time>2026-08-28T17:50:14Z</time>
  <course>246.0</course>
  <speed>0.39</speed>
  <fix>3d</fix>
</trkpt>
<trkpt lat="40.0713511" lon="-105.2298589">
  <ele>1583.01</ele>
  <time>2026-08-28T17:50:14Z</time>
  <course>247.33</course>
  <speed>0.30463092423455634</speed>
  <fix>3d</fix>
</trkpt>
<trkpt lat="40.0713513" lon="-105.2298585">
  <ele>1583.0</ele>
  <time>2026-08-28T17:50:14Z</time>
  <course>246.0</course>
  <speed>0.35</speed>
  <fix>3d</fix>
</trkpt>
<trkpt lat="40.071351" lon="-105.2298593">
  <ele>1583.01</ele>
  <time>2026-08-28T17:50:14Z</time>
  <course>247.33</course>
  <speed>0.291547594742265</speed>
  <fix>3d</fix>
</trkpt>
<trkpt lat="40.0713513" lon="-105.2298585">
  <ele>1583.0</ele>
  <time>2026-08-28T17:50:14Z</time>
  <course>246.0</course>
  <speed>0.35</speed>
  <fix>3d</fix>
</trkpt>
<trkpt lat="40.0713509" lon="-105.2298596">
  <ele>1583.01</ele>
  <time>2026-08-28T17:50:14Z</time>
  <course>247.34</course>
  <speed>0.27313000567495327</speed>
  <fix>3d</fix>
</trkpt>
<trkpt lat="40.0713511" lon="-105.2298592">
  <ele>1583.0</ele>
  <time>2026-08-28T17:50:14Z</time>
  <course>246.0</course>
  <speed>0.32</speed>
  <fix>3d</fix>
</trkpt>
<trkpt lat="40.0713508" lon="-105.2298599">
  <ele>1583.01</ele>
  <time>2026-08-28T17:50:14Z</time>
  <course>247.34</course>
  <speed>0.26</speed>
  <fix>3d</fix>
</trkpt>
<trkpt lat="40.0713511" lon="-105.2298592">
  <ele>1583.0</ele>
  <time>2026-08-28T17:50:14Z</time>
  <course>246.0</course>
  <speed>0.32</speed>
  <fix>3d</fix>
</trkpt>
<trkpt lat="40.0713508" lon="-105.2298602">
  <ele>1583.01</ele>
  <time>2026-08-28T17:50:14Z</time>
  <course>247.34</course>
  <speed>0.23769728648009425</speed>
  <fix>3d</fix>
</trkpt>
<trkpt lat="40.0713509" lon="-105.2298599">
  <ele>1583.0</ele>
  <time>2026-08-28T17:50:14Z</time>
  <course>246.0</course>
  <speed>0.29</speed>
  <fix>3d</fix>
</trkpt>
<trkpt lat="40.0713507" lon="-105.2298605">
  <ele>1583.01</ele>
  <time>2026-08-28T17:50:14Z</time>
  <course>247.35</course>
  <speed>0.22472205054244232</speed>
  <fix>3d</fix>
</trkpt>
<trkpt lat="40.0713509" lon="-105.2298599">
  <ele>1583.0</ele>
  <time>2026-08-28T17:50:14Z</time>
  <course>246.0</course>
  <speed>0.29</speed>
  <fix>3d</fix>
</trkpt>
<trkpt lat="40.0713506" lon="-105.2298607">
  <ele>1583.01</ele>
  <time>2026-08-28T17:50:14Z</time>
  <course>247.35</course>
  <speed>0.21540659228538014</speed>
  <fix>3d</fix>
</trkpt>
<trkpt lat="40.0713506" lon="-105.2298605">
  <ele>1583.0</ele>
  <time>2026-08-28T17:50:14Z</time>
  <course>246.0</course>
  <speed>0.26</speed>
  <fix>3d</fix>
</trkpt>
<trkpt lat="40.0713505" lon="-105.229861">
  <ele>1583.02</ele>
  <time>2026-08-28T17:50:14Z</time>
  <course>247.35</course>
  <speed>0.20248456731316586</speed>
  <fix>3d</fix>
</trkpt>
<trkpt lat="40.0713506" lon="-105.2298605">
  <ele>1583.0</ele>
  <time>2026-08-28T17:50:14Z</time>
  <course>246.0</course>
  <speed>0.26</speed>
  <fix>3d</fix>
</trkpt>
<trkpt lat="40.0713505" lon="-105.2298612">
  <ele>1583.02</ele>
  <time>2026-08-28T17:50:14Z</time>
  <course>247.35</course>
  <speed>0.19313207915827968</speed>
  <fix>3d</fix>
</trkpt>
<trkpt lat="40.0713504" lon="-105.229861">
  <ele>1583.0</ele>
  <time>2026-08-28T17:50:14Z</time>
  <course>246.0</course>
  <speed>0.23</speed>
  <fix>3d</fix>
</trkpt>
<trkpt lat="40.0713504" lon="-105.2298614">
  <ele>1583.02</ele>
  <time>2026-08-28T17:50:14Z</time>
  <course>247.36</course>
  <speed>0.18027756377319945</speed>
  <fix>3d</fix>
</trkpt>
<trkpt lat="40.0713504" lon="-105.229861">
  <ele>1583.0</ele>
  <time>2026-08-28T17:50:14Z</time>
  <course>246.0</course>
  <speed>0.23</speed>
  <fix>3d</fix>
</trkpt>
<trkpt lat="40.0713503" lon="-105.2298616">
  <ele>1583.02</ele>
  <time>2026-08-28T17:50:14Z</time>
  <course>247.36</course>
  <speed>0.1708800749063506</speed>
  <fix>3d</fix>
</trkpt>
<trkpt lat="40.0713503" lon="-105.2298615">
  <ele>1583.0</ele>
  <time>2026-08-28T17:50:14Z</time>
  <course>246.0</course>
  <speed>0.21</speed>
  <fix>3d</fix>
</trkpt>
<trkpt lat="40.0713503" lon="-105.2298618">
  <ele>1583.02</ele>
  <time>2026-08-28T17:50:14Z</time>
  <course>247.36</course>
  <speed>0.15811388300841897</speed>
  <fix>3d</fix>
</trkpt>
<trkpt lat="40.0713503" lon="-105.2298615">
  <ele>1583.0</ele>
  <time>2026-08-28T17:50:14Z</time>
  <course>246.0</course>
  <speed>0.21</speed>
  <fix>3d</fix>
</trkpt>
<trkpt lat="40.0713502" lon="-105.229862">
  <ele>1583.02</ele>
  <time>2026-08-28T17:50:14Z</time>
  <course>247.37</course>
  <speed>0.14866068747318506</speed>
  <fix>3d</fix>
</trkpt>
<trkpt lat="40.0713501" lon="-105.229862">
  <ele>1583.0</ele>
  <time>2026-08-28T17:50:14Z</time>
  <course>246.0</course>
  <speed>0.19</speed>
  <fix>3d</fix>
</trkpt>
<trkpt lat="40.0713501" lon="-105.2298622">
  <ele>1583.02</ele>
  <time>2026-08-28T17:50:14Z</time>
  <course>247.37</course>
  <speed>0.14560219778561037</speed>
  <fix>3d</fix>
</trkpt>
<trkpt lat="40.0713501" lon="-105.229862">
  <ele>1583.0</ele>
  <time>2026-08-28T17:50:14Z</time>
  <course>246.0</course>
  <speed>0.19</speed>
  <fix>3d</fix>
</trkpt>
<trkpt lat="40.0713501" lon="-105.2298624">
  <ele>1583.03</ele>
  <time>2026-08-28T17:50:14Z</time>
  <course>247.37</course>
  <speed>0.13601470508735444</speed>
  <fix>3d</fix>
</trkpt>
<trkpt lat="40.07135" lon="-105.2298624">
  <ele>1583.0</ele>
  <time>2026-08-28T17:50:14Z</time>
  <course>246.0</course>
  <speed>0.17</speed>
  <fix>3d</fix>
</trkpt>
<trkpt lat="40.07135" lon="-105.2298626">
  <ele>1583.03</ele>
  <time>2026-08-28T17:50:14Z</time>
  <course>247.37</course>
  <speed>0.12369316876852982</speed>
  <fix>3d</fix>
</trkpt>
<trkpt lat="40.07135" lon="-105.2298624">
  <ele>1583.0</ele>
  <time>2026-08-28T17:50:14Z</time>
  <course>246.0</course>
  <speed>0.17</speed>
  <fix>3d</fix>
</trkpt>
<trkpt lat="40.07135" lon="-105.2298627">
  <ele>1583.03</ele>
  <time>2026-08-28T17:50:14Z</time>
  <course>247.38</course>
  <speed>0.11401754250991379</speed>
  <fix>3d</fix>
</trkpt>
<trkpt lat="40.0713499" lon="-105.2298627">
  <ele>1583.0</ele>
  <time>2026-08-28T17:50:14Z</time>
  <course>246.0</course>
  <speed>0.16</speed>
  <fix>3d</fix>
</trkpt>
<trkpt lat="40.0713499" lon="-105.2298629">
  <ele>1583.03</ele>
  <time>2026-08-28T17:50:14Z</time>
  <course>247.38</course>
  <speed>0.11401754250991379</speed>
  <fix>3d</fix>
</trkpt>
<trkpt lat="40.0713499" lon="-105.2298627">
  <ele>1583.0</ele>
  <time>2026-08-28T17:50:14Z</time>
  <course>246.0</course>
  <speed>0.16</speed>
  <fix>3d</fix>
</trkpt>
<trkpt lat="40.0713499" lon="-105.2298631">
  <ele>1583.04</ele>
  <time>2026-08-28T17:50:14Z</time>
  <course>247.38</course>
  <speed>0.1019803902718557</speed>
  <fix>3d</fix>
</trkpt>
<trkpt lat="40.0713497" lon="-105.229863">
  <ele>1583.0</ele>
  <time>2026-08-28T17:50:14Z</time>
  <course>246.0</course>
  <speed>0.14</speed>
  <fix>3d</fix>
</trkpt>
<trkpt lat="40.0713498" lon="-105.2298632">
  <ele>1583.04</ele>
  <time>2026-08-28T17:50:14Z</time>
  <course>247.38</course>
  <speed>0.09219544457292887</speed>
  <fix>3d</fix>
</trkpt>
<trkpt lat="40.0713497" lon="-105.229863">
  <ele>1583.0</ele>
  <time>2026-08-28T17:50:14Z</time>
  <course>246.0</course>
  <speed>0.14</speed>
  <fix>3d</fix>
</trkpt>
<trkpt lat="40.0713498" lon="-105.2298633">
  <ele>1583.05</ele>
  <time>2026-08-28T17:50:14Z</time>
  <course>247.23</course>
  <speed>0.09219544457292887</speed>
  <fix>3d</fix>
</trkpt>
<trkpt lat="40.0713496" lon="-105.2298634">
  <ele>1583.0</ele>
  <time>2026-08-28T17:50:14Z</time>
  <course>246.0</course>
  <speed>0.13</speed>
  <fix>3d</fix>
</trkpt>
<trkpt lat="40.0713498" lon="-105.2298635">
  <ele>1583.05</ele>
  <time>2026-08-28T17:50:14Z</time>
  <course>246.47</course>
  <speed>0.08062257748298549</speed>
  <fix>3d</fix>
</trkpt>
<trkpt lat="40.0713496" lon="-105.2298634">
  <ele>1583.0</ele>
  <time>2026-08-28T17:50:14Z</time>
  <course>246.0</course>
  <speed>0.13</speed>
  <fix>3d</fix>
</trkpt>
<trkpt lat="40.0713497" lon="-105.2298636">
  <ele>1583.05</ele>
  <time>2026-08-28T17:50:14Z</time>
  <course>245.74</course>
  <speed>0.08062257748298549</speed>
  <fix>3d</fix>
</trkpt>
<trkpt lat="40.0713495" lon="-105.2298636">
  <ele>1583.0</ele>
  <time>2026-08-28T17:50:14Z</time>
  <course>245.28</course>
  <speed>0.11</speed>
  <fix>3d</fix>
</trkpt>
<trkpt lat="40.0713497" lon="-105.2298637">
  <ele>1583.05</ele>
  <time>2026-08-28T17:50:14Z</time>
  <course>245.04</course>
  <speed>0.07071067811865475</speed>
  <fix>3d</fix>
</trkpt>
<trkpt lat="40.0713495" lon="-105.2298636">
  <ele>1583.0</ele>
  <time>2026-08-28T17:50:14Z</time>
  <course>245.28</course>
  <speed>0.11</speed>
  <fix>3d</fix>
</trkpt>
<trkpt lat="40.0713496" lon="-105.2298638">
  <ele>1583.05</ele>
  <time>2026-08-28T17:50:14Z</time>
  <course>244.38</course>
  <speed>0.07071067811865475</speed>
  <fix>3d</fix>
</trkpt>
<trkpt lat="40.0713494" lon="-105.2298639">
  <ele>1583.0</ele>
  <time>2026-08-28T17:50:14Z</time>
  <course>243.83</course>
  <speed>0.1</speed>
  <fix>3d</fix>
</trkpt>
<trkpt lat="40.0713496" lon="-105.2298639">
  <ele>1583.06</ele>
  <time>2026-08-28T17:50:14Z</time>
  <course>243.76</course>
  <speed>0.06082762530298219</speed>
  <fix>3d</fix>
</trkpt>
<trkpt lat="40.0713494" lon="-105.2298639">
  <ele>1583.0</ele>
  <time>2026-08-28T17:50:14Z</time>
  <course>243.83</course>
  <speed>0.1</speed>
  <fix>3d</fix>
</trkpt>
<trkpt lat="40.0713496" lon="-105.229864">
  <ele>1583.06</ele>
  <time>2026-08-28T17:50:14Z</time>
  <course>243.16</course>
  <speed>0.06082762530298219</speed>
  <fix>3d</fix>
</trkpt>
<trkpt lat="40.0713494" lon="-105.229864">
  <ele>1583.0</ele>
  <time>2026-08-28T17:50:14Z</time>
  <course>242.52</course>
  <speed>0.09</speed>
  <fix>3d</fix>
</trkpt>
<trkpt lat="40.0713495" lon="-105.2298641">
  <ele>1583.06</ele>
  <time>2026-08-28T17:50:14Z</time>
  <course>242.59</course>
  <speed>0.05099019513592785</speed>
  <fix>3d</fix>
</trkpt>
<trkpt lat="40.0713494" lon="-105.229864">
  <ele>1583.0</ele>
  <time>2026-08-28T17:50:14Z</time>
  <course>242.52</course>
  <speed>0.09</speed>
  <fix>3d</fix>
</trkpt>
<trkpt lat="40.0713495" lon="-105.2298642">
  <ele>1583.05</ele>
  <time>2026-08-28T17:50:14Z</time>
  <course>242.05</course>
  <speed>0.05</speed>
  <fix>3d</fix>
</trkpt>
<trkpt lat="40.0713493" lon="-105.2298643">
  <ele>1583.0</ele>
  <time>2026-08-28T17:50:14Z</time>
  <course>241.33</course>
  <speed>0.08</speed>
  <fix>3d</fix>
</trkpt>
<trkpt lat="40.0713495" lon="-105.2298642">
  <ele>1583.05</ele>
  <time>2026-08-28T17:50:14Z</time>
  <course>241.54</course>
  <speed>0.04</speed>
  <fix>3d</fix>
</trkpt>
<trkpt lat="40.0713493" lon="-105.2298643">
  <ele>1583.0</ele>
  <time>2026-08-28T17:50:14Z</time>
  <course>241.33</course>
  <speed>0.08</speed>
  <fix>3d</fix>
</trkpt>
<trkpt lat="40.0713494" lon="-105.2298643">
  <ele>1583.05</ele>
  <time>2026-08-28T17:50:14Z</time>
  <course>241.14</course>
  <speed>0.04</speed>
  <fix>3d</fix>
</trkpt>
<trkpt lat="40.0713492" lon="-105.2298644">
  <ele>1583.0</ele>
  <time>2026-08-28T17:50:14Z</time>
  <course>240.26</course>
  <speed>0.07</speed>
  <fix>3d</fix>
</trkpt>
<trkpt lat="40.0713494" lon="-105.2298644">
  <ele>1583.05</ele>
  <time>2026-08-28T17:50:14Z</time>
  <course>240.67</course>
  <speed>0.04</speed>
  <fix>3d</fix>
</trkpt>
<trkpt lat="40.0713492" lon="-105.2298644">
  <ele>1583.0</ele>
  <time>2026-08-28T17:50:14Z</time>
  <course>240.26</course>
  <speed>0.07</speed>
  <fix>3d</fix>
</trkpt>
<trkpt lat="40.0713494" lon="-105.2298644">
  <ele>1583.05</ele>
  <time>2026-08-28T17:50:14Z</time>
  <course>240.23</course>
  <speed>0.03</speed>
  <fix>3d</fix>
</trkpt>
<trkpt lat="40.0713492" lon="-105.2298646">
  <ele>1583.0</ele>
  <time>2026-08-28T17:50:14Z</time>
  <course>239.3</course>
  <speed>0.07</speed>
  <fix>3d</fix>
</trkpt>
<trkpt lat="40.0713493" lon="-105.2298645">
  <ele>1583.05</ele>
  <time>2026-08-28T17:50:14Z</time>
  <course>239.81</course>
  <speed>0.03</speed>
  <fix>3d</fix>
</trkpt>
<trkpt lat="40.0713492" lon="-105.2298646">
  <ele>1583.0</ele>
  <time>2026-08-28T17:50:14Z</time>
  <course>239.3</course>
  <speed>0.07</speed>
  <fix>3d</fix>
</trkpt>
<trkpt lat="40.0713493" lon="-105.2298646">
  <ele>1583.05</ele>
  <time>2026-08-28T17:50:14Z</time>
  <course>239.4</course>
  <speed>0.03</speed>
  <fix>3d</fix>
</trkpt>
<trkpt lat="40.0713491" lon="-105.2298647">
  <ele>1583.0</ele>
  <time>2026-08-28T17:50:14Z</time>
  <course>238.42</course>
  <speed>0.06</speed>
  <fix>3d</fix>
</trkpt>
<trkpt lat="40.0713493" lon="-105.2298646">
  <ele>1583.04</ele>
  <time>2026-08-28T17:50:14Z</time>
  <course>239.02</course>
  <speed>0.02</speed>
  <fix>3d</fix>
</trkpt>
<trkpt lat="40.0713491" lon="-105.2298647">
  <ele>1583.0</ele>
  <time>2026-08-28T17:50:14Z</time>
  <course>238.42</course>
  <speed>0.06</speed>
  <fix>3d</fix>
</trkpt>
<trkpt lat="40.0713493" lon="-105.2298647">
  <ele>1583.04</ele>
  <time>2026-08-28T17:50:14Z</time>
  <course>238.65</course>
  <speed>0.02</speed>
  <fix>3d</fix>
</trkpt>
<trkpt lat="40.071349" lon="-105.2298649">
  <ele>1583.0</ele>
  <time>2026-08-28T17:50:14Z</time>
  <course>237.63</course>
  <speed>0.05</speed>
  <fix>3d</fix>
</trkpt>
<trkpt lat="40.0713492" lon="-105.2298647">
  <ele>1583.04</ele>
  <time>2026-08-28T17:50:14Z</time>
  <course>238.3</course>
  <speed>0.02</speed>
  <fix>3d</fix>
</trkpt>
<trkpt lat="40.071349" lon="-105.2298649">
  <ele>1583.0</ele>
  <time>2026-08-28T17:50:14Z</time>
  <course>237.63</course>
  <speed>0.05</speed>
  <fix>3d</fix>
</trkpt>
<trkpt lat="40.0713492" lon="-105.2298648">
  <ele>1583.03</ele>
  <time>2026-08-28T17:50:14Z</time>
  <course>237.97</course>
  <speed>0.02</speed>
  <fix>3d</fix>
</trkpt>
<trkpt lat="40.071349" lon="-105.229865">
  <ele>1583.0</ele>
  <time>2026-08-28T17:50:14Z</time>
  <course>236.91</course>
  <speed>0.05</speed>
  <fix>3d</fix>
</trkpt>
<trkpt lat="40.0713492" lon="-105.2298648">
  <ele>1583.03</ele>
  <time>2026-08-28T17:50:14Z</time>
  <course>237.59</course>
  <speed>0.01</speed>
  <fix>3d</fix>
</trkpt>
<trkpt lat="40.071349" lon="-105.229865">
  <ele>1583.0</ele>
  <time>2026-08-28T17:50:14Z</time>
  <course>236.91</course>
  <speed>0.05</speed>
  <fix>3d</fix>
</trkpt>
<trkpt lat="40.0713492" lon="-105.2298649">
  <ele>1583.02</ele>
  <time>2026-08-28T17:50:14Z</time>
  <course>237.3</course>
  <speed>0.01</speed>
  <fix>3d</fix>
</trkpt>
<trkpt lat="40.0713489" lon="-105.2298651">
  <ele>1583.0</ele>
  <time>2026-08-28T17:50:14Z</time>
  <course>236.26</course>
  <speed>0.04</speed>
  <fix>3d</fix>
</trkpt>
<trkpt lat="40.0713492" lon="-105.2298649">
  <ele>1583.02</ele>
  <time>2026-08-28T17:50:14Z</time>
  <course>237.02</course>
  <speed>0.01</speed>
  <fix>3d</fix>
</trkpt>
<trkpt lat="40.0713489" lon="-105.2298651">
  <ele>1583.0</ele>
  <time>2026-08-28T17:50:14Z</time>
  <course>236.26</course>
  <speed>0.04</speed>
  <fix>3d</fix>
</trkpt>
<trkpt lat="40.0713491" lon="-105.229865">
  <ele>1583.02</ele>
  <time>2026-08-28T17:50:14Z</time>
  <course>236.75</course>
  <speed>0.01</speed>
  <fix>3d</fix>
</trkpt>
<trkpt lat="40.0713488" lon="-105.2298651">
  <ele>1583.0</ele>
  <time>2026-08-28T17:50:14Z</time>
  <course>235.67</course>
  <speed>0.04</speed>
  <fix>3d</fix>
</trkpt>
<trkpt lat="40.0713491" lon="-105.229865">
  <ele>1583.02</ele>
  <time>2026-08-28T17:50:14Z</time>
  <course>236.49</course>
  <speed>0.0</speed>
  <fix>3d</fix>
</trkpt>
<trkpt lat="40.0713488" lon="-105.2298651">
  <ele>1583.0</ele>
  <time>2026-08-28T17:50:14Z</time>
  <course>235.67</course>
  <speed>0.04</speed>
  <fix>3d</fix>
</trkpt>
<trkpt lat="40.0713491" lon="-105.229865">
  <ele>1583.02</ele>
  <time>2026-08-28T17:50:14Z</time>
  <course>236.25</course>
  <speed>0.01</speed>
  <fix>3d</fix>
</trkpt>
<trkpt lat="40.0713488" lon="-105.2298652">
  <ele>1583.0</ele>
  <time>2026-08-28T17:50:14Z</time>
  <course>235.14</course>
  <speed>0.03</speed>
  <fix>3d</fix>
</trkpt>
<trkpt lat="40.071349" lon="-105.2298651">
  <ele>1583.01</ele>
  <time>2026-08-28T17:50:14Z</time>
  <course>236.02</course>
  <speed>0.01</speed>
  <fix>3d</fix>
</trkpt>
<trkpt lat="40.0713488" lon="-105.2298652">
  <ele>1583.0</ele>
  <time>2026-08-28T17:50:14Z</time>
  <course>235.14</course>
  <speed>0.03</speed>
  <fix>3d</fix>
</trkpt>
<trkpt lat="40.071349" lon="-105.2298651">
  <ele>1583.01</ele>
  <time>2026-08-28T17:50:14Z</time>
  <course>235.8</course>
  <speed>0.01</speed>
  <fix>3d</fix>
</trkpt>
<trkpt lat="40.0713488" lon="-105.2298653">
  <ele>1583.0</ele>
  <time>2026-08-28T17:50:14Z</time>
  <course>234.66</course>
  <speed>0.03</speed>
  <fix>3d</fix>
</trkpt>
<trkpt lat="40.071349" lon="-105.2298651">
  <ele>1583.01</ele>
  <time>2026-08-28T17:50:14Z</time>
  <course>235.59</course>
  <speed>0.01</speed>
  <fix>3d</fix>
</trkpt>
<trkpt lat="40.0713488" lon="-105.2298653">
  <ele>1583.0</ele>
  <time>2026-08-28T17:50:14Z</time>
  <course>234.66</course>
  <speed>0.03</speed>
  <fix>3d</fix>
</trkpt>
<trkpt lat="40.071349" lon="-105.2298651">
  <ele>1583.01</ele>
  <time>2026-08-28T17:50:14Z</time>
  <course>235.39</course>
  <speed>0.01</speed>
  <fix>3d</fix>
</trkpt>
<trkpt lat="40.0713487" lon="-105.2298654">
  <ele>1583.0</ele>
  <time>2026-08-28T17:50:14Z</time>
  <course>234.22</course>
  <speed>0.03</speed>
  <fix>3d</fix>
</trkpt>
<trkpt lat="40.071349" lon="-105.2298652">
  <ele>1583.01</ele>
  <time>2026-08-28T17:50:14Z</time>
  <course>235.2</course>
  <speed>0.01</speed>
  <fix>3d</fix>
</trkpt>
<trkpt lat="40.0713487" lon="-105.2298654">
  <ele>1583.0</ele>
  <time>2026-08-28T17:50:14Z</time>
  <course>234.22</course>
  <speed>0.03</speed>
  <fix>3d</fix>
</trkpt>
<trkpt lat="40.071349" lon="-105.2298652">
  <ele>1583.01</ele>
  <time>2026-08-28T17:50:14Z</time>
  <course>235.05</course>
  <speed>0.01</speed>
  <fix>3d</fix>
</trkpt>
<trkpt lat="40.0713487" lon="-105.2298654">
  <ele>1583.0</ele>
  <time>2026-08-28T17:50:14Z</time>
  <course>233.83</course>
  <speed>0.02</speed>
  <fix>3d</fix>
</trkpt>
<trkpt lat="40.071349" lon="-105.2298652">
  <ele>1583.01</ele>
  <time>2026-08-28T17:50:14Z</time>
  <course>234.88</course>
  <speed>0.01</speed>
  <fix>3d</fix>
</trkpt>
<trkpt lat="40.0713487" lon="-105.2298654">
  <ele>1583.0</ele>
  <time>2026-08-28T17:50:14Z</time>
  <course>233.83</course>
  <speed>0.02</speed>
  <fix>3d</fix>
</trkpt>
<trkpt lat="40.071349" lon="-105.2298652">
  <ele>1583.01</ele>
  <time>2026-08-28T17:50:14Z</time>
  <course>234.72</course>
  <speed>0.01</speed>
  <fix>3d</fix>
</trkpt>
<trkpt lat="40.0713487" lon="-105.2298655">
  <ele>1583.0</ele>
  <time>2026-08-28T17:50:14Z</time>
  <course>233.47</course>
  <speed>0.02</speed>
  <fix>3d</fix>
</trkpt>
<trkpt lat="40.0713489" lon="-105.2298653">
  <ele>1583.01</ele>
  <time>2026-08-28T17:50:14Z</time>
  <course>234.56</course>
  <speed>0.01</speed>
  <fix>3d</fix>
</trkpt>
<trkpt lat="40.0713487" lon="-105.2298655">
  <ele>1583.0</ele>
  <time>2026-08-28T17:50:14Z</time>
  <course>233.47</course>
  <speed>0.02</speed>
  <fix>3d</fix>
</trkpt>
<trkpt lat="40.0713489" lon="-105.2298653">
  <ele>1583.0</ele>
  <time>2026-08-28T17:50:14Z</time>
  <course>234.41</course>
  <speed>0.01</speed>
  <fix>3d</fix>
</trkpt>
<trkpt lat="40.0713487" lon="-105.2298656">
  <ele>1583.0</ele>
  <time>2026-08-28T17:50:14Z</time>
  <course>233.15</course>
  <speed>0.02</speed>
  <fix>3d</fix>
</trkpt>
<trkpt lat="40.0713489" lon="-105.2298653">
  <ele>1583.0</ele>
  <time>2026-08-28T17:50:14Z</time>
  <course>234.27</course>
  <speed>0.01</speed>
  <fix>3d</fix>
</trkpt>
<trkpt lat="40.0713487" lon="-105.2298656">
  <ele>1583.0</ele>
  <time>2026-08-28T17:50:14Z</time>
  <course>233.15</course>
  <speed>0.02</speed>
  <fix>3d</fix>
</trkpt>
<trkpt lat="40.0713489" lon="-105.2298653">
  <ele>1583.0</ele>
  <time>2026-08-28T17:50:14Z</time>
  <course>234.14</course>
  <speed>0.01</speed>
  <fix>3d</fix>
</trkpt>
<trkpt lat="40.0713487" lon="-105.2298656">
  <ele>1583.0</ele>
  <time>2026-08-28T17:50:14Z</time>
  <course>232.86</course>
  <speed>0.02</speed>
  <fix>3d</fix>
</trkpt>
<trkpt lat="40.0713489" lon="-105.2298653">
  <ele>1583.0</ele>
  <time>2026-08-28T17:50:14Z</time>
  <course>234.01</course>
  <speed>0.01</speed>
  <fix>3d</fix>
</trkpt>
<trkpt lat="40.0713487" lon="-105.2298656">
  <ele>1583.0</ele>
  <time>2026-08-28T17:50:14Z</time>
  <course>232.86</course>
  <speed>0.02</speed>
  <fix>3d</fix>
</trkpt>
<trkpt lat="40.0713489" lon="-105.2298653">
  <ele>1582.99</ele>
  <time>2026-08-28T17:50:14Z</time>
  <course>233.89</course>
  <speed>0.01</speed>
  <fix>3d</fix>
</trkpt>
<trkpt lat="40.0713487" lon="-105.2298656">
  <ele>1583.0</ele>
  <time>2026-08-28T17:50:14Z</time>
  <course>232.6</course>
  <speed>0.01</speed>
  <fix>3d</fix>
</trkpt>
<trkpt lat="40.0713489" lon="-105.2298654">
  <ele>1582.98</ele>
  <time>2026-08-28T17:50:14Z</time>
  <course>233.77</course>
  <speed>0.01414213562373095</speed>
  <fix>3d</fix>
</trkpt>
<trkpt lat="40.0713487" lon="-105.2298656">
  <ele>1583.0</ele>
  <time>2026-08-28T17:50:14Z</time>
  <course>232.6</course>
  <speed>0.01</speed>
  <fix>3d</fix>
</trkpt>
<trkpt lat="40.0713489" lon="-105.2298654">
  <ele>1582.98</ele>
  <time>2026-08-28T17:50:14Z</time>
  <course>233.64</course>
  <speed>0.022360679774997897</speed>
  <fix>3d</fix>
</trkpt>
<trkpt lat="40.0713486" lon="-105.2298656">
  <ele>1583.0</ele>
  <time>2026-08-28T17:50:14Z</time>
  <course>232.36</course>
  <speed>0.01</speed>
  <fix>3d</fix>
</trkpt>
<trkpt lat="40.0713489" lon="-105.2298654">
  <ele>1582.97</ele>
  <time>2026-08-28T17:50:14Z</time>
  <course>233.53</course>
  <speed>0.022360679774997897</speed>
  <fix>3d</fix>
</trkpt>
<trkpt lat="40.0713486" lon="-105.2298656">
  <ele>1583.0</ele>
  <time>2026-08-28T17:50:14Z</time>
  <course>232.36</course>
  <speed>0.01</speed>
  <fix>3d</fix>
</trkpt>
<trkpt lat="40.0713489" lon="-105.2298654">
  <ele>1582.97</ele>
  <time>2026-08-28T17:50:14Z</time>
  <course>233.44</course>
  <speed>0.022360679774997897</speed>
  <fix>3d</fix>
</trkpt>
<trkpt lat="40.0713486" lon="-105.2298656">
  <ele>1583.0</ele>
  <time>2026-08-28T17:50:14Z</time>
  <course>232.14</course>
  <speed>0.01</speed>
  <fix>3d</fix>
</trkpt>
<trkpt lat="40.0713489" lon="-105.2298654">
  <ele>1582.96</ele>
  <time>2026-08-28T17:50:14Z</time>
  <course>233.34</course>
  <speed>0.022360679774997897</speed>
  <fix>3d</fix>
</trkpt>
<trkpt lat="40.0713486" lon="-105.2298656">
  <ele>1583.0</ele>
  <time>2026-08-28T17:50:14Z</time>
  <course>232.14</course>
  <speed>0.01</speed>
  <fix>3d</fix>
</trkpt>
<trkpt lat="40.0713489" lon="-105.2298654">
  <ele>1582.96</ele>
  <time>2026-08-28T17:50:14Z</time>
  <course>233.25</course>
  <speed>0.022360679774997897</speed>
  <fix>3d</fix>
</trkpt>
<trkpt lat="40.0713486" lon="-105.2298657">
  <ele>1583.0</ele>
  <time>2026-08-28T17:50:14Z</time>
  <course>231.95</course>
  <speed>0.01</speed>
  <fix>3d</fix>
</trkpt>
<trkpt lat="40.0713488" lon="-105.2298655">
  <ele>1582.95</ele>
  <time>2026-08-28T17:50:14Z</time>
  <course>233.17</course>
  <speed>0.022360679774997897</speed>
  <fix>3d</fix>
</trkpt>
<trkpt lat="40.0713486" lon="-105.2298657">
  <ele>1583.0</ele>
  <time>2026-08-28T17:50:14Z</time>
  <course>231.95</course>
  <speed>0.01</speed>
  <fix>3d</fix>
</trkpt>
<trkpt lat="40.0713488" lon="-105.2298655">
  <ele>1582.95</ele>
  <time>2026-08-28T17:50:14Z</time>
  <course>233.09</course>
  <speed>0.022360679774997897</speed>
  <fix>3d</fix>
</trkpt>
<trkpt lat="40.0713486" lon="-105.2298658">
  <ele>1583.0</ele>
  <time>2026-08-28T17:50:14Z</time>
  <course>231.77</course>
  <speed>0.01</speed>
  <fix>3d</fix>
</trkpt>
<trkpt lat="40.0713488" lon="-105.2298655">
  <ele>1582.94</ele>
  <time>2026-08-28T17:50:14Z</time>
  <course>233.01</course>
  <speed>0.022360679774997897</speed>
  <fix>3d</fix>
</trkpt>
<trkpt lat="40.0713486" lon="-105.2298658">
  <ele>1583.0</ele>
  <time>2026-08-28T17:50:14Z</time>
  <course>231.77</course>
  <speed>0.01</speed>
  <fix>3d</fix>
</trkpt>
<trkpt lat="40.0713488" lon="-105.2298655">
  <ele>1582.93</ele>
  <time>2026-08-28T17:50:14Z</time>
  <course>232.94</course>
  <speed>0.022360679774997897</speed>
  <fix>3d</fix>
</trkpt>
<trkpt lat="40.0713486" lon="-105.2298658">
  <ele>1583.0</ele>
  <time>2026-08-28T17:50:14Z</time>
  <course>231.61</course>
  <speed>0.01</speed>
  <fix>3d</fix>
</trkpt>
<trkpt lat="40.0713488" lon="-105.2298655">
  <ele>1582.93</ele>
  <time>2026-08-28T17:50:14Z</time>
  <course>232.87</course>
  <speed>0.022360679774997897</speed>
  <fix>3d</fix>
</trkpt>
<trkpt lat="40.0713486" lon="-105.2298658">
  <ele>1583.0</ele>
  <time>2026-08-28T17:50:14Z</time>
  <course>231.61</course>
  <speed>0.01</speed>
  <fix>3d</fix>
</trkpt>
<trkpt lat="40.0713488" lon="-105.2298655">
  <ele>1582.92</ele>
  <time>2026-08-28T17:50:14Z</time>
  <course>232.8</course>
  <speed>0.022360679774997897</speed>
  <fix>3d</fix>
</trkpt>
<trkpt lat="40.0713486" lon="-105.2298658">
  <ele>1583.0</ele>
  <time>2026-08-28T17:50:14Z</time>
  <course>231.47</course>
  <speed>0.01</speed>
  <fix>3d</fix>
</trkpt>
<trkpt lat="40.0713488" lon="-105.2298655">
  <ele>1582.92</ele>
  <time>2026-08-28T17:50:14Z</time>
  <course>232.75</course>
  <speed>0.022360679774997897</speed>
  <fix>3d</fix>
</trkpt>
<trkpt lat="40.0713486" lon="-105.2298658">
  <ele>1583.0</ele>
  <time>2026-08-28T17:50:14Z</time>
  <course>231.47</course>
  <speed>0.01</speed>
  <fix>3d</fix>
</trkpt>
<trkpt lat="40.0713488" lon="-105.2298655">
  <ele>1582.92</ele>
  <time>2026-08-28T17:50:14Z</time>
  <course>232.69</course>
  <speed>0.022360679774997897</speed>
  <fix>3d</fix>
</trkpt>
<trkpt lat="40.0713486" lon="-105.2298658">
  <ele>1583.0</ele>
  <time>2026-08-28T17:50:14Z</time>
  <course>231.34</course>
  <speed>0.0</speed>
  <fix>3d</fix>
</trkpt>
<trkpt lat="40.0713488" lon="-105.2298655">
  <ele>1582.92</ele>
  <time>2026-08-28T17:50:14Z</time>
  <course>232.63</course>
  <speed>0.022360679774997897</speed>
  <fix>3d</fix>
</trkpt>
<trkpt lat="40.0713486" lon="-105.2298658">
  <ele>1583.0</ele>
  <time>2026-08-28T17:50:14Z</time>
  <course>231.34</course>
  <speed>0.0</speed>
  <fix>3d</fix>
</trkpt>
<trkpt lat="40.0713488" lon="-105.2298655">
  <ele>1582.92</ele>
  <time>2026-08-28T17:50:14Z</time>
  <course>232.58</course>
  <speed>0.022360679774997897</speed>
  <fix>3d</fix>
</trkpt>
<trkpt lat="40.0713485" lon="-105.2298658">
  <ele>1583.0</ele>
  <time>2026-08-28T17:50:14Z</time>
  <course>231.22</course>
  <speed>0.0</speed>
  <fix>3d</fix>
</trkpt>
<trkpt lat="40.0713488" lon="-105.2298656">
  <ele>1582.92</ele>
  <time>2026-08-28T17:50:14Z</time>
  <course>232.52</course>
  <speed>0.022360679774997897</speed>
  <fix>3d</fix>
</trkpt>
<trkpt lat="40.0713485" lon="-105.2298658">
  <ele>1583.0</ele>
  <time>2026-08-28T17:50:14Z</time>
  <course>231.22</course>
  <speed>0.0</speed>
  <fix>3d</fix>
</trkpt>
<trkpt lat="40.0713488" lon="-105.2298656">
  <ele>1582.92</ele>
  <time>2026-08-28T17:50:14Z</time>
  <course>232.47</course>
  <speed>0.022360679774997897</speed>
  <fix>3d</fix>
</trkpt>
<trkpt lat="40.0713485" lon="-105.2298658">
  <ele>1583.0</ele>
  <time>2026-08-28T17:50:14Z</time>
  <course>231.12</course>
  <speed>0.0</speed>
  <fix>3d</fix>
</trkpt>
<trkpt lat="40.0713488" lon="-105.2298656">
  <ele>1582.91</ele>
  <time>2026-08-28T17:50:14Z</time>
  <course>232.43</course>
  <speed>0.022360679774997897</speed>
  <fix>3d</fix>
</trkpt>
<trkpt lat="40.0713485" lon="-105.2298658">
  <ele>1583.0</ele>
  <time>2026-08-28T17:50:14Z</time>
  <course>231.12</course>
  <speed>0.0</speed>
  <fix>3d</fix>
</trkpt>
<trkpt lat="40.0713488" lon="-105.2298656">
  <ele>1582.91</ele>
  <time>2026-08-28T17:50:14Z</time>
  <course>232.38</course>
  <speed>0.022360679774997897</speed>
  <fix>3d</fix>
</trkpt>
<trkpt lat="40.0713485" lon="-105.2298658">
  <ele>1583.0</ele>
  <time>2026-08-28T17:50:14Z</time>
  <course>231.02</course>
  <speed>0.0</speed>
  <fix>3d</fix>
</trkpt>
<trkpt lat="40.0713488" lon="-105.2298656">
  <ele>1582.91</ele>
  <time>2026-08-28T17:50:14Z</time>
  <course>232.34</course>
  <speed>0.022360679774997897</speed>
  <fix>3d</fix>
</trkpt>
<trkpt lat="40.0713485" lon="-105.2298658">
  <ele>1583.0</ele>
  <time>2026-08-28T17:50:14Z</time>
  <course>231.02</course>
  <speed>0.0</speed>
  <fix>3d</fix>
</trkpt>
<trkpt lat="40.0713488" lon="-105.2298656">
  <ele>1582.91</ele>
  <time>2026-08-28T17:50:14Z</time>
  <course>232.3</course>
  <speed>0.022360679774997897</speed>
  <fix>3d</fix>
</trkpt>
<trkpt lat="40.0713485" lon="-105.2298658">
  <ele>1583.0</ele>
  <time>2026-08-28T17:50:14Z</time>
  <course>230.94</course>
  <speed>0.0</speed>
  <fix>3d</fix>
</trkpt>
<trkpt lat="40.0713488" lon="-105.2298656">
  <ele>1582.9</ele>
  <time>2026-08-28T17:50:14Z</time>
  <course>232.25</course>
  <speed>0.022360679774997897</speed>
  <fix>3d</fix>
</trkpt>
<trkpt lat="40.0713485" lon="-105.2298658">
  <ele>1583.0</ele>
  <time>2026-08-28T17:50:14Z</time>
  <course>230.94</course>
  <speed>0.0</speed>
  <fix>3d</fix>
</trkpt>
<trkpt lat="40.0713488" lon="-105.2298656">
  <ele>1582.91</ele>
  <time>2026-08-28T17:50:14Z</time>
  <course>232.21</course>
  <speed>0.022360679774997897</speed>
  <fix>3d</fix>
</trkpt>
<trkpt lat="40.0713485" lon="-105.2298658">
  <ele>1583.0</ele>
  <time>2026-08-28T17:50:14Z</time>
  <course>230.86</course>
  <speed>0.0</speed>
  <fix>3d</fix>
</trkpt>
<trkpt lat="40.0713488" lon="-105.2298656">
  <ele>1582.91</ele>
  <time>2026-08-28T17:50:14Z</time>
  <course>232.18</course>
  <speed>0.022360679774997897</speed>
  <fix>3d</fix>
</trkpt>
<trkpt lat="40.0713485" lon="-105.2298658">
  <ele>1583.0</ele>
  <time>2026-08-28T17:50:14Z</time>
  <course>230.86</course>
  <speed>0.0</speed>
  <fix>3d</fix>
</trkpt>
<trkpt lat="40.0713488" lon="-105.2298656">
  <ele>1582.91</ele>
  <time>2026-08-28T17:50:14Z</time>
  <course>232.15</course>
  <speed>0.022360679774997897</speed>
  <fix>3d</fix>
</trkpt>
<trkpt lat="40.0713485" lon="-105.2298658">
  <ele>1583.0</ele>
  <time>2026-08-28T17:50:14Z</time>
  <course>230.79</course>
  <speed>0.0</speed>
  <fix>3d</fix>
</trkpt>
<trkpt lat="40.0713487" lon="-105.2298656">
  <ele>1582.92</ele>
  <time>2026-08-28T17:50:14Z</time>
  <course>232.11</course>
  <speed>0.022360679774997897</speed>
  <fix>3d</fix>
</trkpt>
<trkpt lat="40.0713485" lon="-105.2298658">
  <ele>1583.0</ele>
  <time>2026-08-28T17:50:14Z</time>
  <course>230.79</course>
  <speed>0.0</speed>
  <fix>3d</fix>
</trkpt>
<trkpt lat="40.0713487" lon="-105.2298656">
  <ele>1582.93</ele>
  <time>2026-08-28T17:50:14Z</time>
  <course>232.08</course>
  <speed>0.0316227766016838</speed>
  <fix>3d</fix>
</trkpt>
<trkpt lat="40.0713485" lon="-105.2298658">
  <ele>1583.0</ele>
  <time>2026-08-28T17:50:14Z</time>
  <course>230.73</course>
  <speed>0.0</speed>
  <fix>3d</fix>
</trkpt>
<trkpt lat="40.0713487" lon="-105.2298656">
  <ele>1582.93</ele>
  <time>2026-08-28T17:50:14Z</time>
  <course>232.06</course>
  <speed>0.0316227766016838</speed>
  <fix>3d</fix>
</trkpt>
<trkpt lat="40.0713485" lon="-105.2298658">
  <ele>1583.0</ele>
  <time>2026-08-28T17:50:14Z</time>
  <course>230.73</course>
  <speed>0.0</speed>
  <fix>3d</fix>
</trkpt>
<trkpt lat="40.0713487" lon="-105.2298656">
  <ele>1582.94</ele>
  <time>2026-08-28T17:50:14Z</time>
  <course>232.03</course>
  <speed>0.0316227766016838</speed>
  <fix>3d</fix>
</trkpt>
<trkpt lat="40.0713485" lon="-105.2298658">
  <ele>1583.0</ele>
  <time>2026-08-28T17:50:14Z</time>
  <course>230.67</course>
  <speed>0.0</speed>
  <fix>3d</fix>
</trkpt>
<trkpt lat="40.0713487" lon="-105.2298656">
  <ele>1582.95</ele>
  <time>2026-08-28T17:50:14Z</time>
  <course>232.0</course>
  <speed>0.0316227766016838</speed>
  <fix>3d</fix>
</trkpt>
<trkpt lat="40.0713485" lon="-105.2298658">
  <ele>1583.0</ele>
  <time>2026-08-28T17:50:14Z</time>
  <course>230.67</course>
  <speed>0.0</speed>
  <fix>3d</fix>
</trkpt>
<trkpt lat="40.0713487" lon="-105.2298656">
  <ele>1582.95</ele>
  <time>2026-08-28T17:50:14Z</time>
  <course>231.98</course>
  <speed>0.0316227766016838</speed>
  <fix>3d</fix>
</trkpt>
<trkpt lat="40.0713485" lon="-105.2298659">
  <ele>1583.0</ele>
  <time>2026-08-28T17:50:14Z</time>
  <course>230.62</course>
  <speed>0.0</speed>
  <fix>3d</fix>
</trkpt>
<trkpt lat="40.0713487" lon="-105.2298656">
  <ele>1582.96</ele>
  <time>2026-08-28T17:50:14Z</time>
  <course>231.96</course>
  <speed>0.0316227766016838</speed>
  <fix>3d</fix>
</trkpt>
<trkpt lat="40.0713485" lon="-105.2298659">
  <ele>1583.0</ele>
  <time>2026-08-28T17:50:14Z</time>
  <course>230.62</course>
  <speed>0.0</speed>
  <fix>3d</fix>
</trkpt>
<trkpt lat="40.0713487" lon="-105.2298656">
  <ele>1582.96</ele>
  <time>2026-08-28T17:50:14Z</time>
  <course>231.94</course>
  <speed>0.0316227766016838</speed>
  <fix>3d</fix>
</trkpt>
<trkpt lat="40.0713485" lon="-105.229866">
  <ele>1583.0</ele>
  <time>2026-08-28T17:50:14Z</time>
  <course>230.58</course>
  <speed>0.0</speed>
  <fix>3d</fix>
</trkpt>
<trkpt lat="40.0713487" lon="-105.2298656">
  <ele>1582.97</ele>
  <time>2026-08-28T17:50:14Z</time>
  <course>231.92</course>
  <speed>0.0316227766016838</speed>
  <fix>3d</fix>
</trkpt>
<trkpt lat="40.0713485" lon="-105.229866">
  <ele>1583.0</ele>
  <time>2026-08-28T17:50:14Z</time>
  <course>230.58</course>
  <speed>0.0</speed>
  <fix>3d</fix>
</trkpt>
<trkpt lat="40.0713487" lon="-105.2298656">
  <ele>1582.97</ele>
  <time>2026-08-28T17:50:14Z</time>
  <course>231.9</course>
  <speed>0.0316227766016838</speed>
  <fix>3d</fix>
</trkpt>
<trkpt lat="40.0713485" lon="-105.229866">
  <ele>1583.0</ele>
  <time>2026-08-28T17:50:14Z</time>
  <course>230.54</course>
  <speed>0.0</speed>
  <fix>3d</fix>
</trkpt>
<trkpt lat="40.0713487" lon="-105.2298657">
  <ele>1582.97</ele>
  <time>2026-08-28T17:50:14Z</time>
  <course>231.88</course>
  <speed>0.0316227766016838</speed>
  <fix>3d</fix>
</trkpt>
<trkpt lat="40.0713485" lon="-105.229866">
  <ele>1583.0</ele>
  <time>2026-08-28T17:50:14Z</time>
  <course>230.54</course>
  <speed>0.0</speed>
  <fix>3d</fix>
</trkpt>
<trkpt lat="40.0713487" lon="-105.2298657">
  <ele>1582.98</ele>
  <time>2026-08-28T17:50:14Z</time>
  <course>231.86</course>
  <speed>0.0316227766016838</speed>
  <fix>3d</fix>
</trkpt>
<trkpt lat="40.0713485" lon="-105.229866">
  <ele>1583.0</ele>
  <time>2026-08-28T17:50:14Z</time>
  <course>230.5</course>
  <speed>0.0</speed>
  <fix>3d</fix>
</trkpt>
<trkpt lat="40.0713487" lon="-105.2298657">
  <ele>1582.98</ele>
  <time>2026-08-28T17:50:14Z</time>
  <course>231.84</course>
  <speed>0.0316227766016838</speed>
  <fix>3d</fix>
</trkpt>
<trkpt lat="40.0713485" lon="-105.229866">
  <ele>1583.0</ele>
  <time>2026-08-28T17:50:14Z</time>
  <course>230.5</course>
  <speed>0.0</speed>
  <fix>3d</fix>
</trkpt>
<trkpt lat="40.0713487" lon="-105.2298657">
  <ele>1582.99</ele>
  <time>2026-08-28T17:50:14Z</time>
  <course>231.82</course>
  <speed>0.0316227766016838</speed>
  <fix>3d</fix>
</trkpt>
<trkpt lat="40.0713485" lon="-105.229866">
  <ele>1583.0</ele>
  <time>2026-08-28T17:50:14Z</time>
  <course>230.47</course>
  <speed>0.0</speed>
  <fix>3d</fix>
</trkpt>
<trkpt lat="40.0713487" lon="-105.2298657">
  <ele>1582.99</ele>
  <time>2026-08-28T17:50:14Z</time>
  <course>231.81</course>
  <speed>0.0316227766016838</speed>
  <fix>3d</fix>
</trkpt>
<trkpt lat="40.0713485" lon="-105.229866">
  <ele>1583.0</ele>
  <time>2026-08-28T17:50:14Z</time>
  <course>230.47</course>
  <speed>0.0</speed>
  <fix>3d</fix>
</trkpt>
<trkpt lat="40.0713487" lon="-105.2298657">
  <ele>1583.0</ele>
  <time>2026-08-28T17:50:14Z</time>
  <course>231.79</course>
  <speed>0.0316227766016838</speed>
  <fix>3d</fix>
</trkpt>
<trkpt lat="40.0713485" lon="-105.229866">
  <ele>1583.0</ele>
  <time>2026-08-28T17:50:14Z</time>
  <course>230.45</course>
  <speed>0.0</speed>
  <fix>3d</fix>
</trkpt>
<trkpt lat="40.0713487" lon="-105.2298657">
  <ele>1583.0</ele>
  <time>2026-08-28T17:50:14Z</time>
  <course>231.78</course>
  <speed>0.0316227766016838</speed>
  <fix>3d</fix>
</trkpt>
<trkpt lat="40.0713485" lon="-105.229866">
  <ele>1583.0</ele>
  <time>2026-08-28T17:50:14Z</time>
  <course>230.45</course>
  <speed>0.0</speed>
  <fix>3d</fix>
</trkpt>
<trkpt lat="40.0713487" lon="-105.2298657">
  <ele>1583.01</ele>
  <time>2026-08-28T17:50:14Z</time>
  <course>231.76</course>
  <speed>0.03</speed>
  <fix>3d</fix>
</trkpt>
<trkpt lat="40.0713485" lon="-105.229866">
  <ele>1583.0</ele>
  <time>2026-08-28T17:50:14Z</time>
  <course>230.42</course>
  <speed>0.0</speed>
  <fix>3d</fix>
</trkpt>
<trkpt lat="40.0713487" lon="-105.2298658">
  <ele>1583.01</ele>
  <time>2026-08-28T17:50:14Z</time>
  <course>231.75</course>
  <speed>0.03</speed>
  <fix>3d</fix>
</trkpt>
<trkpt lat="40.0713485" lon="-105.229866">
  <ele>1583.0</ele>
  <time>2026-08-28T17:50:14Z</time>
  <course>230.42</course>
  <speed>0.0</speed>
  <fix>3d</fix>
</trkpt>
<trkpt lat="40.0713487" lon="-105.2298658">
  <ele>1583.0</ele>
  <time>2026-08-28T17:50:14Z</time>
  <course>231.74</course>
  <speed>0.03</speed>
  <fix>3d</fix>
</trkpt>
<trkpt lat="40.0713485" lon="-105.229866">
  <ele>1583.0</ele>
  <time>2026-08-28T17:50:14Z</time>
  <course>230.4</course>
  <speed>0.0</speed>
  <fix>3d</fix>
</trkpt>
<trkpt lat="40.0713487" lon="-105.2298658">
  <ele>1583.0</ele>
  <time>2026-08-28T17:50:14Z</time>
  <course>231.72</course>
  <speed>0.03</speed>
  <fix>3d</fix>
</trkpt>
<trkpt lat="40.0713485" lon="-105.229866">
  <ele>1583.0</ele>
  <time>2026-08-28T17:50:14Z</time>
  <course>230.4</course>
  <speed>0.0</speed>
  <fix>3d</fix>
</trkpt>
<trkpt lat="40.0713487" lon="-105.2298658">
  <ele>1582.99</ele>
  <time>2026-08-28T17:50:14Z</time>
  <course>231.71</course>
  <speed>0.03</speed>
  <fix>3d</fix>
</trkpt>
<trkpt lat="40.0713485" lon="-105.229866">
  <ele>1583.0</ele>
  <time>2026-08-28T17:50:14Z</time>
  <course>230.39</course>
  <speed>0.0</speed>
  <fix>3d</fix>
</trkpt>
<trkpt lat="40.0713487" lon="-105.2298658">
  <ele>1582.98</ele>
  <time>2026-08-28T17:50:14Z</time>
  <course>231.7</course>
  <speed>0.03</speed>
  <fix>3d</fix>
</trkpt>
<trkpt lat="40.0713485" lon="-105.229866">
  <ele>1583.0</ele>
  <time>2026-08-28T17:50:14Z</time>
  <course>230.39</course>
  <speed>0.0</speed>
  <fix>3d</fix>
</trkpt>
<trkpt lat="40.0713487" lon="-105.2298658">
  <ele>1582.98</ele>
  <time>2026-08-28T17:50:14Z</time>
  <course>231.69</course>
  <speed>0.03</speed>
  <fix>3d</fix>
</trkpt>
<trkpt lat="40.0713485" lon="-105.229866">
  <ele>1583.0</ele>
  <time>2026-08-28T17:50:14Z</time>
  <course>230.37</course>
  <speed>0.0</speed>
  <fix>3d</fix>
</trkpt>
<trkpt lat="40.0713487" lon="-105.2298658">
  <ele>1582.97</ele>
  <time>2026-08-28T17:50:14Z</time>
  <course>231.68</course>
  <speed>0.03</speed>
  <fix>3d</fix>
</trkpt>
<trkpt lat="40.0713485" lon="-105.229866">
  <ele>1583.0</ele>
  <time>2026-08-28T17:50:14Z</time>
  <course>230.37</course>
  <speed>0.0</speed>
  <fix>3d</fix>
</trkpt>
<trkpt lat="40.0713487" lon="-105.2298658">
  <ele>1582.96</ele>
  <time>2026-08-28T17:50:14Z</time>
  <course>231.67</course>
  <speed>0.03</speed>
  <fix>3d</fix>
</trkpt>
<trkpt lat="40.0713485" lon="-105.229866">
  <ele>1583.0</ele>
  <time>2026-08-28T17:50:14Z</time>
  <course>230.36</course>
  <speed>0.0</speed>
  <fix>3d</fix>
</trkpt>
<trkpt lat="40.0713487" lon="-105.2298658">
  <ele>1582.96</ele>
  <time>2026-08-28T17:50:14Z</time>
  <course>231.67</course>
  <speed>0.03</speed>
  <fix>3d</fix>
</trkpt>
<trkpt lat="40.0713485" lon="-105.229866">
  <ele>1583.0</ele>
  <time>2026-08-28T17:50:14Z</time>
  <course>230.36</course>
  <speed>0.0</speed>
  <fix>3d</fix>
</trkpt>
<trkpt lat="40.0713487" lon="-105.2298658">
  <ele>1582.96</ele>
  <time>2026-08-28T17:50:14Z</time>
  <course>231.66</course>
  <speed>0.03</speed>
  <fix>3d</fix>
</trkpt>
<trkpt lat="40.0713485" lon="-105.229866">
  <ele>1583.0</ele>
  <time>2026-08-28T17:50:14Z</time>
  <course>230.36</course>
  <speed>0.0</speed>
  <fix>3d</fix>
</trkpt>
<trkpt lat="40.0713487" lon="-105.2298658">
  <ele>1582.96</ele>
  <time>2026-08-28T17:50:14Z</time>
  <course>231.65</course>
  <speed>0.03</speed>
  <fix>3d</fix>
</trkpt>
<trkpt lat="40.0713485" lon="-105.229866">
  <ele>1583.0</ele>
  <time>2026-08-28T17:50:14Z</time>
  <course>230.36</course>
  <speed>0.0</speed>
  <fix>3d</fix>
</trkpt>
<trkpt lat="40.0713487" lon="-105.2298658">
  <ele>1582.97</ele>
  <time>2026-08-28T17:50:15Z</time>
  <course>231.64</course>
  <speed>0.03</speed>
  <fix>3d</fix>
</trkpt>
<trkpt lat="40.0713485" lon="-105.229866">
  <ele>1583.0</ele>
  <time>2026-08-28T17:50:15Z</time>
  <course>230.35</course>
  <speed>0.0</speed>
  <fix>3d</fix>
</trkpt>
<trkpt lat="40.0713487" lon="-105.2298659">
  <ele>1582.97</ele>
  <time>2026-08-28T17:50:15Z</time>
  <course>231.64</course>
  <speed>0.03</speed>
  <fix>3d</fix>
</trkpt>
<trkpt lat="40.0713485" lon="-105.229866">
  <ele>1583.0</ele>
  <time>2026-08-28T17:50:15Z</time>
  <course>230.35</course>
  <speed>0.0</speed>
  <fix>3d</fix>
</trkpt>
<trkpt lat="40.0713487" lon="-105.2298659">
  <ele>1582.98</ele>
  <time>2026-08-28T17:50:15Z</time>
  <course>231.63</course>
  <speed>0.03</speed>
  <fix>3d</fix>
</trkpt>
<trkpt lat="40.0713485" lon="-105.229866">
  <ele>1583.0</ele>
  <time>2026-08-28T17:50:15Z</time>
  <course>230.35</course>
  <speed>0.0</speed>
  <fix>3d</fix>
</trkpt>
<trkpt lat="40.0713487" lon="-105.2298659">
  <ele>1582.98</ele>
  <time>2026-08-28T17:50:15Z</time>
  <course>231.62</course>
  <speed>0.03</speed>
  <fix>3d</fix>
</trkpt>
<trkpt lat="40.0713485" lon="-105.229866">
  <ele>1583.0</ele>
  <time>2026-08-28T17:50:15Z</time>
  <course>230.35</course>
  <speed>0.0</speed>
  <fix>3d</fix>
</trkpt>
<trkpt lat="40.0713487" lon="-105.2298659">
  <ele>1582.99</ele>
  <time>2026-08-28T17:50:15Z</time>
  <course>231.62</course>
  <speed>0.03</speed>
  <fix>3d</fix>
</trkpt>
<trkpt lat="40.0713485" lon="-105.229866">
  <ele>1583.0</ele>
  <time>2026-08-28T17:50:15Z</time>
  <course>230.35</course>
  <speed>0.0</speed>
  <fix>3d</fix>
</trkpt>
<trkpt lat="40.0713487" lon="-105.2298659">
  <ele>1583.0</ele>
  <time>2026-08-28T17:50:15Z</time>
  <course>231.61</course>
  <speed>0.03</speed>
  <fix>3d</fix>
</trkpt>
<trkpt lat="40.0713485" lon="-105.229866">
  <ele>1583.0</ele>
  <time>2026-08-28T17:50:15Z</time>
  <course>230.35</course>
  <speed>0.0</speed>
  <fix>3d</fix>
</trkpt>
<trkpt lat="40.0713487" lon="-105.2298659">
  <ele>1583.0</ele>
  <time>2026-08-28T17:50:15Z</time>
  <course>231.6</course>
  <speed>0.03</speed>
  <fix>3d</fix>
</trkpt>
<trkpt lat="40.0713485" lon="-105.229866">
  <ele>1583.0</ele>
  <time>2026-08-28T17:50:15Z</time>
  <course>230.35</course>
  <speed>0.0</speed>
  <fix>3d</fix>
</trkpt>
<trkpt lat="40.0713487" lon="-105.2298659">
  <ele>1583.01</ele>
  <time>2026-08-28T17:50:15Z</time>
  <course>231.6</course>
  <speed>0.03</speed>
  <fix>3d</fix>
</trkpt>
<trkpt lat="40.0713485" lon="-105.229866">
  <ele>1583.0</ele>
  <time>2026-08-28T17:50:15Z</time>
  <course>230.35</course>
  <speed>0.0</speed>
  <fix>3d</fix>
</trkpt>
<trkpt lat="40.0713487" lon="-105.2298659">
  <ele>1583.02</ele>
  <time>2026-08-28T17:50:15Z</time>
  <course>231.59</course>
  <speed>0.03</speed>
  <fix>3d</fix>
</trkpt>
<trkpt lat="40.0713485" lon="-105.229866">
  <ele>1583.0</ele>
  <time>2026-08-28T17:50:15Z</time>
  <course>230.36</course>
  <speed>0.0</speed>
  <fix>3d</fix>
</trkpt>
<trkpt lat="40.0713487" lon="-105.2298659">
  <ele>1583.02</ele>
  <time>2026-08-28T17:50:15Z</time>
  <course>231.59</course>
  <speed>0.03</speed>
  <fix>3d</fix>
</trkpt>
<trkpt lat="40.0713485" lon="-105.229866">
  <ele>1583.0</ele>
  <time>2026-08-28T17:50:15Z</time>
  <course>230.36</course>
  <speed>0.0</speed>
  <fix>3d</fix>
</trkpt>
<trkpt lat="40.0713487" lon="-105.2298659">
  <ele>1583.03</ele>
  <time>2026-08-28T17:50:15Z</time>
  <course>231.58</course>
  <speed>0.03</speed>
  <fix>3d</fix>
</trkpt>
<trkpt lat="40.0713485" lon="-105.229866">
  <ele>1583.0</ele>
  <time>2026-08-28T17:50:15Z</time>
  <course>230.37</course>
  <speed>0.0</speed>
  <fix>3d</fix>
</trkpt>
<trkpt lat="40.0713487" lon="-105.2298659">
  <ele>1583.03</ele>
  <time>2026-08-28T17:50:15Z</time>
  <course>231.58</course>
  <speed>0.03</speed>
  <fix>3d</fix>
</trkpt>
<trkpt lat="40.0713485" lon="-105.229866">
  <ele>1583.0</ele>
  <time>2026-08-28T17:50:15Z</time>
  <course>230.37</course>
  <speed>0.0</speed>
  <fix>3d</fix>
</trkpt>
<trkpt lat="40.0713487" lon="-105.2298659">
  <ele>1583.03</ele>
  <time>2026-08-28T17:50:15Z</time>
  <course>231.57</course>
  <speed>0.03</speed>
  <fix>3d</fix>
</trkpt>
<trkpt lat="40.0713485" lon="-105.229866">
  <ele>1583.0</ele>
  <time>2026-08-28T17:50:15Z</time>
  <course>230.38</course>
  <speed>0.0</speed>
  <fix>3d</fix>
</trkpt>
<trkpt lat="40.0713487" lon="-105.2298659">
  <ele>1583.04</ele>
  <time>2026-08-28T17:50:15Z</time>
  <course>231.57</course>
  <speed>0.03</speed>
  <fix>3d</fix>
</trkpt>
<trkpt lat="40.0713485" lon="-105.229866">
  <ele>1583.0</ele>
  <time>2026-08-28T17:50:15Z</time>
  <course>230.38</course>
  <speed>0.0</speed>
  <fix>3d</fix>
</trkpt>
<trkpt lat="40.0713487" lon="-105.2298659">
  <ele>1583.04</ele>
  <time>2026-08-28T17:50:15Z</time>
  <course>231.57</course>
  <speed>0.03</speed>
  <fix>3d</fix>
</trkpt>
<trkpt lat="40.0713485" lon="-105.229866">
  <ele>1583.0</ele>
  <time>2026-08-28T17:50:15Z</time>
  <course>230.4</course>
  <speed>0.0</speed>
  <fix>3d</fix>
</trkpt>
<trkpt lat="40.0713487" lon="-105.2298659">
  <ele>1583.04</ele>
  <time>2026-08-28T17:50:15Z</time>
  <course>231.56</course>
  <speed>0.03</speed>
  <fix>3d</fix>
</trkpt>
<trkpt lat="40.0713485" lon="-105.229866">
  <ele>1583.0</ele>
  <time>2026-08-28T17:50:15Z</time>
  <course>230.4</course>
  <speed>0.0</speed>
  <fix>3d</fix>
</trkpt>
<trkpt lat="40.0713487" lon="-105.2298659">
  <ele>1583.04</ele>
  <time>2026-08-28T17:50:15Z</time>
  <course>231.56</course>
  <speed>0.03</speed>
  <fix>3d</fix>
</trkpt>
<trkpt lat="40.0713485" lon="-105.229866">
  <ele>1583.0</ele>
  <time>2026-08-28T17:50:15Z</time>
  <course>230.41</course>
  <speed>0.0</speed>
  <fix>3d</fix>
</trkpt>
<trkpt lat="40.0713487" lon="-105.2298659">
  <ele>1583.04</ele>
  <time>2026-08-28T17:50:15Z</time>
  <course>231.56</course>
  <speed>0.03</speed>
  <fix>3d</fix>
</trkpt>
<trkpt lat="40.0713485" lon="-105.229866">
  <ele>1583.0</ele>
  <time>2026-08-28T17:50:15Z</time>
  <course>230.41</course>
  <speed>0.0</speed>
  <fix>3d</fix>
</trkpt>
<trkpt lat="40.0713487" lon="-105.2298659">
  <ele>1583.04</ele>
  <time>2026-08-28T17:50:15Z</time>
  <course>231.55</course>
  <speed>0.03</speed>
  <fix>3d</fix>
</trkpt>
<trkpt lat="40.0713485" lon="-105.229866">
  <ele>1583.0</ele>
  <time>2026-08-28T17:50:15Z</time>
  <course>230.44</course>
  <speed>0.0</speed>
  <fix>3d</fix>
</trkpt>
<trkpt lat="40.0713487" lon="-105.2298659">
  <ele>1583.03</ele>
  <time>2026-08-28T17:50:15Z</time>
  <course>231.55</course>
  <speed>0.03</speed>
  <fix>3d</fix>
</trkpt>
<trkpt lat="40.0713485" lon="-105.229866">
  <ele>1583.0</ele>
  <time>2026-08-28T17:50:15Z</time>
  <course>230.44</course>
  <speed>0.0</speed>
  <fix>3d</fix>
</trkpt>
<trkpt lat="40.0713487" lon="-105.2298659">
  <ele>1583.03</ele>
  <time>2026-08-28T17:50:15Z</time>
  <course>231.55</course>
  <speed>0.03</speed>
  <fix>3d</fix>
</trkpt>
<trkpt lat="40.0713485" lon="-105.229866">
  <ele>1583.0</ele>
  <time>2026-08-28T17:50:15Z</time>
  <course>230.46</course>
  <speed>0.0</speed>
  <fix>3d</fix>
</trkpt>
<trkpt lat="40.0713487" lon="-105.2298659">
  <ele>1583.02</ele>
  <time>2026-08-28T17:50:15Z</time>
  <course>231.54</course>
  <speed>0.03</speed>
  <fix>3d</fix>
</trkpt>
<trkpt lat="40.0713485" lon="-105.229866">
  <ele>1583.0</ele>
  <time>2026-08-28T17:50:15Z</time>
  <course>230.46</course>
  <speed>0.0</speed>
  <fix>3d</fix>
</trkpt>
<trkpt lat="40.0713487" lon="-105.2298659">
  <ele>1583.02</ele>
  <time>2026-08-28T17:50:15Z</time>
  <course>231.54</course>
  <speed>0.03</speed>
  <fix>3d</fix>
</trkpt>
<trkpt lat="40.0713485" lon="-105.229866">
  <ele>1583.0</ele>
  <time>2026-08-28T17:50:15Z</time>
  <course>230.49</course>
  <speed>0.0</speed>
  <fix>3d</fix>
</trkpt>
<trkpt lat="40.0713487" lon="-105.2298659">
  <ele>1583.01</ele>
  <time>2026-08-28T17:50:15Z</time>
  <course>231.54</course>
  <speed>0.03</speed>
  <fix>3d</fix>
</trkpt>
<trkpt lat="40.0713485" lon="-105.229866">
  <ele>1583.0</ele>
  <time>2026-08-28T17:50:15Z</time>
  <course>230.49</course>
  <speed>0.0</speed>
  <fix>3d</fix>
</trkpt>
<trkpt lat="40.0713487" lon="-105.2298659">
  <ele>1583.01</ele>
  <time>2026-08-28T17:50:15Z</time>
  <course>231.54</course>
  <speed>0.03</speed>
  <fix>3d</fix>
</trkpt>
<trkpt lat="40.0713485" lon="-105.229866">
  <ele>1583.0</ele>
  <time>2026-08-28T17:50:15Z</time>
  <course>230.52</course>
  <speed>0.0</speed>
  <fix>3d</fix>
</trkpt>
<trkpt lat="40.0713487" lon="-105.2298659">
  <ele>1583.01</ele>
  <time>2026-08-28T17:50:15Z</time>
  <course>231.53</course>
  <speed>0.03</speed>
  <fix>3d</fix>
</trkpt>
<trkpt lat="40.0713485" lon="-105.229866">
  <ele>1583.0</ele>
  <time>2026-08-28T17:50:15Z</time>
  <course>230.52</course>
  <speed>0.0</speed>
  <fix>3d</fix>
</trkpt>
<trkpt lat="40.0713487" lon="-105.2298659">
  <ele>1583.0</ele>
  <time>2026-08-28T17:50:15Z</time>
  <course>231.53</course>
  <speed>0.03</speed>
  <fix>3d</fix>
</trkpt>
<trkpt lat="40.0713485" lon="-105.229866">
  <ele>1583.0</ele>
  <time>2026-08-28T17:50:15Z</time>
  <course>230.56</course>
  <speed>0.0</speed>
  <fix>3d</fix>
</trkpt>
<trkpt lat="40.0713487" lon="-105.2298659">
  <ele>1583.0</ele>
  <time>2026-08-28T17:50:15Z</time>
  <course>231.53</course>
  <speed>0.03</speed>
  <fix>3d</fix>
</trkpt>
<trkpt lat="40.0713485" lon="-105.229866">
  <ele>1583.0</ele>
  <time>2026-08-28T17:50:15Z</time>
  <course>230.56</course>
  <speed>0.0</speed>
  <fix>3d</fix>
</trkpt>
<trkpt lat="40.0713487" lon="-105.2298659">
  <ele>1583.0</ele>
  <time>2026-08-28T17:50:15Z</time>
  <course>231.53</course>
  <speed>0.03</speed>
  <fix>3d</fix>
</trkpt>
<trkpt lat="40.0713485" lon="-105.229866">
  <ele>1583.0</ele>
  <time>2026-08-28T17:50:15Z</time>
  <course>230.6</course>
  <speed>0.0</speed>
  <fix>3d</fix>
</trkpt>
<trkpt lat="40.0713487" lon="-105.2298659">
  <ele>1583.0</ele>
  <time>2026-08-28T17:50:15Z</time>
  <course>231.53</course>
  <speed>0.03</speed>
  <fix>3d</fix>
</trkpt>
<trkpt lat="40.0713485" lon="-105.229866">
  <ele>1583.0</ele>
  <time>2026-08-28T17:50:15Z</time>
  <course>230.6</course>
  <speed>0.0</speed>
  <fix>3d</fix>
</trkpt>
<trkpt lat="40.0713487" lon="-105.2298659">
  <ele>1583.0</ele>
  <time>2026-08-28T17:50:15Z</time>
  <course>231.52</course>
  <speed>0.03</speed>
  <fix>3d</fix>
</trkpt>
<trkpt lat="40.0713485" lon="-105.229866">
  <ele>1583.0</ele>
  <time>2026-08-28T17:50:15Z</time>
  <course>230.65</course>
  <speed>0.0</speed>
  <fix>3d</fix>
</trkpt>
<trkpt lat="40.0713487" lon="-105.2298659">
  <ele>1583.0</ele>
  <time>2026-08-28T17:50:15Z</time>
  <course>231.52</course>
  <speed>0.03</speed>
  <fix>3d</fix>
</trkpt>
<trkpt lat="40.0713485" lon="-105.229866">
  <ele>1583.0</ele>
  <time>2026-08-28T17:50:15Z</time>
  <course>230.65</course>
  <speed>0.0</speed>
  <fix>3d</fix>
</trkpt>
<trkpt lat="40.0713487" lon="-105.2298659">
  <ele>1582.99</ele>
  <time>2026-08-28T17:50:15Z</time>
  <course>231.52</course>
  <speed>0.03</speed>
  <fix>3d</fix>
</trkpt>
<trkpt lat="40.0713485" lon="-105.229866">
  <ele>1583.0</ele>
  <time>2026-08-28T17:50:15Z</time>
  <course>230.7</course>
  <speed>0.0</speed>
  <fix>3d</fix>
</trkpt>
<trkpt lat="40.0713487" lon="-105.2298659">
  <ele>1582.99</ele>
  <time>2026-08-28T17:50:15Z</time>
  <course>231.52</course>
  <speed>0.03</speed>
  <fix>3d</fix>
</trkpt>
<trkpt lat="40.0713485" lon="-105.229866">
  <ele>1583.0</ele>
  <time>2026-08-28T17:50:15Z</time>
  <course>230.7</course>
  <speed>0.0</speed>
  <fix>3d</fix>
</trkpt>
<trkpt lat="40.0713487" lon="-105.2298659">
  <ele>1582.99</ele>
  <time>2026-08-28T17:50:15Z</time>
  <course>231.52</course>
  <speed>0.03</speed>
  <fix>3d</fix>
</trkpt>
<trkpt lat="40.0713485" lon="-105.229866">
  <ele>1583.0</ele>
  <time>2026-08-28T17:50:15Z</time>
  <course>230.76</course>
  <speed>0.0</speed>
  <fix>3d</fix>
</trkpt>
<trkpt lat="40.0713487" lon="-105.2298659">
  <ele>1582.99</ele>
  <time>2026-08-28T17:50:15Z</time>
  <course>231.52</course>
  <speed>0.03</speed>
  <fix>3d</fix>
</trkpt>
<trkpt lat="40.0713485" lon="-105.229866">
  <ele>1583.0</ele>
  <time>2026-08-28T17:50:15Z</time>
  <course>230.76</course>
  <speed>0.0</speed>
  <fix>3d</fix>
</trkpt>
<trkpt lat="40.0713487" lon="-105.2298659">
  <ele>1582.98</ele>
  <time>2026-08-28T17:50:15Z</time>
  <course>231.51</course>
  <speed>0.03</speed>
  <fix>3d</fix>
</trkpt>
<trkpt lat="40.0713485" lon="-105.229866">
  <ele>1583.0</ele>
  <time>2026-08-28T17:50:15Z</time>
  <course>230.83</course>
  <speed>0.0</speed>
  <fix>3d</fix>
</trkpt>
<trkpt lat="40.0713487" lon="-105.2298659">
  <ele>1582.98</ele>
  <time>2026-08-28T17:50:15Z</time>
  <course>231.51</course>
  <speed>0.03</speed>
  <fix>3d</fix>
</trkpt>
<trkpt lat="40.0713485" lon="-105.229866">
  <ele>1583.0</ele>
  <time>2026-08-28T17:50:15Z</time>
  <course>230.83</course>
  <speed>0.0</speed>
  <fix>3d</fix>
</trkpt>
<trkpt lat="40.0713487" lon="-105.2298659">
  <ele>1582.98</ele>
  <time>2026-08-28T17:50:15Z</time>
  <course>231.51</course>
  <speed>0.03</speed>
  <fix>3d</fix>
</trkpt>
<trkpt lat="40.0713485" lon="-105.229866">
  <ele>1583.0</ele>
  <time>2026-08-28T17:50:15Z</time>
  <course>230.9</course>
  <speed>0.0</speed>
  <fix>3d</fix>
</trkpt>
<trkpt lat="40.0713487" lon="-105.2298659">
  <ele>1582.98</ele>
  <time>2026-08-28T17:50:15Z</time>
  <course>231.51</course>
  <speed>0.03</speed>
  <fix>3d</fix>
</trkpt>
<trkpt lat="40.0713485" lon="-105.229866">
  <ele>1583.0</ele>
  <time>2026-08-28T17:50:15Z</time>
  <course>230.9</course>
  <speed>0.0</speed>
  <fix>3d</fix>
</trkpt>
<trkpt lat="40.0713487" lon="-105.2298659">
  <ele>1582.98</ele>
  <time>2026-08-28T17:50:15Z</time>
  <course>231.51</course>
  <speed>0.03</speed>
  <fix>3d</fix>
</trkpt>
<trkpt lat="40.0713485" lon="-105.229866">
  <ele>1583.0</ele>
  <time>2026-08-28T17:50:15Z</time>
  <course>230.98</course>
  <speed>0.0</speed>
  <fix>3d</fix>
</trkpt>
<trkpt lat="40.0713487" lon="-105.2298659">
  <ele>1582.98</ele>
  <time>2026-08-28T17:50:15Z</time>
  <course>231.51</course>
  <speed>0.03</speed>
  <fix>3d</fix>
</trkpt>
<trkpt lat="40.0713485" lon="-105.229866">
  <ele>1583.0</ele>
  <time>2026-08-28T17:50:15Z</time>
  <course>230.98</course>
  <speed>0.0</speed>
  <fix>3d</fix>
</trkpt>
<trkpt lat="40.0713487" lon="-105.2298659">
  <ele>1582.98</ele>
  <time>2026-08-28T17:50:15Z</time>
  <course>231.51</course>
  <speed>0.03</speed>
  <fix>3d</fix>
</trkpt>
<trkpt lat="40.0713485" lon="-105.229866">
  <ele>1583.0</ele>
  <time>2026-08-28T17:50:15Z</time>
  <course>231.07</course>
  <speed>0.0</speed>
  <fix>3d</fix>
</trkpt>
<trkpt lat="40.0713487" lon="-105.2298659">
  <ele>1582.98</ele>
  <time>2026-08-28T17:50:15Z</time>
  <course>231.51</course>
  <speed>0.03</speed>
  <fix>3d</fix>
</trkpt>
<trkpt lat="40.0713485" lon="-105.229866">
  <ele>1583.0</ele>
  <time>2026-08-28T17:50:15Z</time>
  <course>231.07</course>
  <speed>0.0</speed>
  <fix>3d</fix>
</trkpt>
<trkpt lat="40.0713487" lon="-105.2298659">
  <ele>1582.98</ele>
  <time>2026-08-28T17:50:15Z</time>
  <course>231.51</course>
  <speed>0.03</speed>
  <fix>3d</fix>
</trkpt>
<trkpt lat="40.0713485" lon="-105.229866">
  <ele>1583.0</ele>
  <time>2026-08-28T17:50:15Z</time>
  <course>231.18</course>
  <speed>0.0</speed>
  <fix>3d</fix>
</trkpt>
<trkpt lat="40.0713487" lon="-105.2298659">
  <ele>1582.98</ele>
  <time>2026-08-28T17:50:15Z</time>
  <course>231.5</course>
  <speed>0.03</speed>
  <fix>3d</fix>
</trkpt>
<trkpt lat="40.0713485" lon="-105.229866">
  <ele>1583.0</ele>
  <time>2026-08-28T17:50:15Z</time>
  <course>231.18</course>
  <speed>0.0</speed>
  <fix>3d</fix>
</trkpt>
<trkpt lat="40.0713487" lon="-105.2298659">
  <ele>1582.99</ele>
  <time>2026-08-28T17:50:15Z</time>
  <course>231.5</course>
  <speed>0.03</speed>
  <fix>3d</fix>
</trkpt>
<trkpt lat="40.0713485" lon="-105.229866">
  <ele>1583.0</ele>
  <time>2026-08-28T17:50:15Z</time>
  <course>231.29</course>
  <speed>0.0</speed>
  <fix>3d</fix>
</trkpt>
<trkpt lat="40.0713487" lon="-105.2298659">
  <ele>1582.99</ele>
  <time>2026-08-28T17:50:15Z</time>
  <course>231.5</course>
  <speed>0.03</speed>
  <fix>3d</fix>
</trkpt>
<trkpt lat="40.0713485" lon="-105.229866">
  <ele>1583.0</ele>
  <time>2026-08-28T17:50:15Z</time>
  <course>231.29</course>
  <speed>0.0</speed>
  <fix>3d</fix>
</trkpt>
<trkpt lat="40.0713487" lon="-105.2298659">
  <ele>1582.99</ele>
  <time>2026-08-28T17:50:15Z</time>
  <course>231.5</course>
  <speed>0.03</speed>
  <fix>3d</fix>
</trkpt>
<trkpt lat="40.0713485" lon="-105.229866">
  <ele>1583.0</ele>
  <time>2026-08-28T17:50:15Z</time>
  <course>231.41</course>
  <speed>0.0</speed>
  <fix>3d</fix>
</trkpt>
<trkpt lat="40.0713487" lon="-105.2298659">
  <ele>1582.99</ele>
  <time>2026-08-28T17:50:15Z</time>
  <course>231.5</course>
  <speed>0.03</speed>
  <fix>3d</fix>
</trkpt>
<trkpt lat="40.0713485" lon="-105.229866">
  <ele>1583.0</ele>
  <time>2026-08-28T17:50:15Z</time>
  <course>231.41</course>
  <speed>0.0</speed>
  <fix>3d</fix>
</trkpt>
<trkpt lat="40.0713487" lon="-105.2298659">
  <ele>1583.0</ele>
  <time>2026-08-28T17:50:15Z</time>
  <course>231.5</course>
  <speed>0.03</speed>
  <fix>3d</fix>
</trkpt>
<trkpt lat="40.0713485" lon="-105.229866">
  <ele>1583.0</ele>
  <time>2026-08-28T17:50:15Z</time>
  <course>231.55</course>
  <speed>0.0</speed>
  <fix>3d</fix>
</trkpt>
<trkpt lat="40.0713487" lon="-105.2298659">
  <ele>1583.0</ele>
  <time>2026-08-28T17:50:15Z</time>
  <course>231.5</course>
  <speed>0.03</speed>
  <fix>3d</fix>
</trkpt>
<trkpt lat="40.0713485" lon="-105.229866">
  <ele>1583.0</ele>
  <time>2026-08-28T17:50:15Z</time>
  <course>231.55</course>
  <speed>0.0</speed>
  <fix>3d</fix>
</trkpt>
<trkpt lat="40.0713487" lon="-105.2298659">
  <ele>1583.0</ele>
  <time>2026-08-28T17:50:15Z</time>
  <course>231.5</course>
  <speed>0.03</speed>
  <fix>3d</fix>
</trkpt>
<trkpt lat="40.0713485" lon="-105.229866">
  <ele>1583.0</ele>
  <time>2026-08-28T17:50:15Z</time>
  <course>231.7</course>
  <speed>0.0</speed>
  <fix>3d</fix>
</trkpt>
<trkpt lat="40.0713487" lon="-105.2298659">
  <ele>1583.01</ele>
  <time>2026-08-28T17:50:15Z</time>
  <course>231.5</course>
  <speed>0.03</speed>
  <fix>3d</fix>
</trkpt>
<trkpt lat="40.0713485" lon="-105.229866">
  <ele>1583.0</ele>
  <time>2026-08-28T17:50:15Z</time>
  <course>231.7</course>
  <speed>0.0</speed>
  <fix>3d</fix>
</trkpt>
<trkpt lat="40.0713487" lon="-105.2298659">
  <ele>1583.01</ele>
  <time>2026-08-28T17:50:15Z</time>
  <course>231.5</course>
  <speed>0.03</speed>
  <fix>3d</fix>
</trkpt>
<trkpt lat="40.0713485" lon="-105.229866">
  <ele>1583.0</ele>
  <time>2026-08-28T17:50:15Z</time>
  <course>231.87</course>
  <speed>0.0</speed>
  <fix>3d</fix>
</trkpt>
<trkpt lat="40.0713487" lon="-105.2298659">
  <ele>1583.02</ele>
  <time>2026-08-28T17:50:15Z</time>
  <course>231.5</course>
  <speed>0.03</speed>
  <fix>3d</fix>
</trkpt>
<trkpt lat="40.0713485" lon="-105.229866">
  <ele>1583.0</ele>
  <time>2026-08-28T17:50:15Z</time>
  <course>231.87</course>
  <speed>0.0</speed>
  <fix>3d</fix>
</trkpt>
<trkpt lat="40.0713487" lon="-105.2298659">
  <ele>1583.03</ele>
  <time>2026-08-28T17:50:15Z</time>
  <course>231.49</course>
  <speed>0.03</speed>
  <fix>3d</fix>
</trkpt>
<trkpt lat="40.0713485" lon="-105.229866">
  <ele>1583.0</ele>
  <time>2026-08-28T17:50:15Z</time>
  <course>232.05</course>
  <speed>0.0</speed>
  <fix>3d</fix>
</trkpt>
<trkpt lat="40.0713487" lon="-105.2298659">
  <ele>1583.03</ele>
  <time>2026-08-28T17:50:15Z</time>
  <course>231.49</course>
  <speed>0.03</speed>
  <fix>3d</fix>
</trkpt>
<trkpt lat="40.0713485" lon="-105.229866">
  <ele>1583.0</ele>
  <time>2026-08-28T17:50:15Z</time>
  <course>232.05</course>
  <speed>0.0</speed>
  <fix>3d</fix>
</trkpt>
<trkpt lat="40.0713487" lon="-105.2298659">
  <ele>1583.04</ele>
  <time>2026-08-28T17:50:15Z</time>
  <course>231.49</course>
  <speed>0.03</speed>
  <fix>3d</fix>
</trkpt>
<trkpt lat="40.0713485" lon="-105.229866">
  <ele>1583.0</ele>
  <time>2026-08-28T17:50:15Z</time>
  <course>232.26</course>
  <speed>0.0</speed>
  <fix>3d</fix>
</trkpt>
<trkpt lat="40.0713487" lon="-105.2298659">
  <ele>1583.04</ele>
  <time>2026-08-28T17:50:15Z</time>
  <course>231.49</course>
  <speed>0.03</speed>
  <fix>3d</fix>
</trkpt>
<trkpt lat="40.0713485" lon="-105.229866">
  <ele>1583.0</ele>
  <time>2026-08-28T17:50:15Z</time>
  <course>232.26</course>
  <speed>0.0</speed>
  <fix>3d</fix>
</trkpt>
<trkpt lat="40.0713487" lon="-105.2298659">
  <ele>1583.04</ele>
  <time>2026-08-28T17:50:15Z</time>
  <course>231.49</course>
  <speed>0.03</speed>
  <fix>3d</fix>
</trkpt>
<trkpt lat="40.0713485" lon="-105.229866">
  <ele>1583.0</ele>
  <time>2026-08-28T17:50:15Z</time>
  <course>232.49</course>
  <speed>0.0</speed>
  <fix>3d</fix>
</trkpt>
<trkpt lat="40.0713487" lon="-105.2298659">
  <ele>1583.03</ele>
  <time>2026-08-28T17:50:15Z</time>
  <course>231.49</course>
  <speed>0.03</speed>
  <fix>3d</fix>
</trkpt>
<trkpt lat="40.0713485" lon="-105.229866">
  <ele>1583.0</ele>
  <time>2026-08-28T17:50:15Z</time>
  <course>232.49</course>
  <speed>0.0</speed>
  <fix>3d</fix>
</trkpt>
<trkpt lat="40.0713487" lon="-105.2298659">
  <ele>1583.03</ele>
  <time>2026-08-28T17:50:15Z</time>
  <course>231.49</course>
  <speed>0.03</speed>
  <fix>3d</fix>
</trkpt>
<trkpt lat="40.0713485" lon="-105.229866">
  <ele>1583.0</ele>
  <time>2026-08-28T17:50:15Z</time>
  <course>232.74</course>
  <speed>0.0</speed>
  <fix>3d</fix>
</trkpt>
<trkpt lat="40.0713487" lon="-105.2298659">
  <ele>1583.03</ele>
  <time>2026-08-28T17:50:15Z</time>
  <course>231.49</course>
  <speed>0.03</speed>
  <fix>3d</fix>
</trkpt>
<trkpt lat="40.0713485" lon="-105.229866">
  <ele>1583.0</ele>
  <time>2026-08-28T17:50:15Z</time>
  <course>232.74</course>
  <speed>0.0</speed>
  <fix>3d</fix>
</trkpt>
<trkpt lat="40.0713487" lon="-105.2298659">
  <ele>1583.03</ele>
  <time>2026-08-28T17:50:15Z</time>
  <course>231.49</course>
  <speed>0.03</speed>
  <fix>3d</fix>
</trkpt>
<trkpt lat="40.0713485" lon="-105.229866">
  <ele>1583.0</ele>
  <time>2026-08-28T17:50:15Z</time>
  <course>233.02</course>
  <speed>0.0</speed>
  <fix>3d</fix>
</trkpt>
<trkpt lat="40.0713487" lon="-105.2298659">
  <ele>1583.02</ele>
  <time>2026-08-28T17:50:15Z</time>
  <course>231.49</course>
  <speed>0.03</speed>
  <fix>3d</fix>
</trkpt>
<trkpt lat="40.0713485" lon="-105.229866">
  <ele>1583.0</ele>
  <time>2026-08-28T17:50:15Z</time>
  <course>233.02</course>
  <speed>0.0</speed>
  <fix>3d</fix>
</trkpt>
<trkpt lat="40.0713487" lon="-105.2298659">
  <ele>1583.02</ele>
  <time>2026-08-28T17:50:15Z</time>
  <course>231.49</course>
  <speed>0.03</speed>
  <fix>3d</fix>
</trkpt>
<trkpt lat="40.0713485" lon="-105.229866">
  <ele>1583.0</ele>
  <time>2026-08-28T17:50:15Z</time>
  <course>233.32</course>
  <speed>0.0</speed>
  <fix>3d</fix>
</trkpt>
<trkpt lat="40.0713487" lon="-105.2298659">
  <ele>1583.02</ele>
  <time>2026-08-28T17:50:15Z</time>
  <course>231.49</course>
  <speed>0.03</speed>
  <fix>3d</fix>
</trkpt>
<trkpt lat="40.0713485" lon="-105.229866">
  <ele>1583.0</ele>
  <time>2026-08-28T17:50:15Z</time>
  <course>233.32</course>
  <speed>0.0</speed>
  <fix>3d</fix>
</trkpt>
<trkpt lat="40.0713487" lon="-105.2298659">
  <ele>1583.01</ele>
  <time>2026-08-28T17:50:15Z</time>
  <course>231.49</course>
  <speed>0.03</speed>
  <fix>3d</fix>
</trkpt>
<trkpt lat="40.0713485" lon="-105.229866">
  <ele>1583.0</ele>
  <time>2026-08-28T17:50:15Z</time>
  <course>233.66</course>
  <speed>0.0</speed>
  <fix>3d</fix>
</trkpt>
<trkpt lat="40.0713487" lon="-105.2298659">
  <ele>1583.01</ele>
  <time>2026-08-28T17:50:15Z</time>
  <course>231.49</course>
  <speed>0.03</speed>
  <fix>3d</fix>
</trkpt>
<trkpt lat="40.0713485" lon="-105.229866">
  <ele>1583.0</ele>
  <time>2026-08-28T17:50:15Z</time>
  <course>233.66</course>
  <speed>0.0</speed>
  <fix>3d</fix>
</trkpt>
<trkpt lat="40.0713487" lon="-105.2298659">
  <ele>1583.0</ele>
  <time>2026-08-28T17:50:15Z</time>
  <course>231.49</course>
  <speed>0.03</speed>
  <fix>3d</fix>
</trkpt>
<trkpt lat="40.0713485" lon="-105.229866">
  <ele>1583.0</ele>
  <time>2026-08-28T17:50:15Z</time>
  <course>234.04</course>
  <speed>0.0</speed>
  <fix>3d</fix>
</trkpt>
<trkpt lat="40.0713487" lon="-105.2298659">
  <ele>1582.99</ele>
  <time>2026-08-28T17:50:15Z</time>
  <course>231.49</course>
  <speed>0.03</speed>
  <fix>3d</fix>
</trkpt>
<trkpt lat="40.0713485" lon="-105.229866">
  <ele>1583.0</ele>
  <time>2026-08-28T17:50:15Z</time>
  <course>234.04</course>
  <speed>0.0</speed>
  <fix>3d</fix>
</trkpt>
<trkpt lat="40.0713487" lon="-105.2298659">
  <ele>1582.98</ele>
  <time>2026-08-28T17:50:15Z</time>
  <course>231.49</course>
  <speed>0.03</speed>
  <fix>3d</fix>
</trkpt>
<trkpt lat="40.0713485" lon="-105.229866">
  <ele>1583.0</ele>
  <time>2026-08-28T17:50:15Z</time>
  <course>234.45</course>
  <speed>0.0</speed>
  <fix>3d</fix>
</trkpt>
<trkpt lat="40.0713487" lon="-105.2298659">
  <ele>1582.98</ele>
  <time>2026-08-28T17:50:15Z</time>
  <course>231.49</course>
  <speed>0.03</speed>
  <fix>3d</fix>
</trkpt>
<trkpt lat="40.0713485" lon="-105.229866">
  <ele>1583.0</ele>
  <time>2026-08-28T17:50:15Z</time>
  <course>234.45</course>
  <speed>0.0</speed>
  <fix>3d</fix>
</trkpt>
<trkpt lat="40.0713487" lon="-105.2298659">
  <ele>1582.97</ele>
  <time>2026-08-28T17:50:15Z</time>
  <course>231.49</course>
  <speed>0.03</speed>
  <fix>3d</fix>
</trkpt>
<trkpt lat="40.0713485" lon="-105.229866">
  <ele>1583.0</ele>
  <time>2026-08-28T17:50:15Z</time>
  <course>234.91</course>
  <speed>0.0</speed>
  <fix>3d</fix>
</trkpt>
<trkpt lat="40.0713487" lon="-105.2298659">
  <ele>1582.97</ele>
  <time>2026-08-28T17:50:15Z</time>
  <course>231.49</course>
  <speed>0.03</speed>
  <fix>3d</fix>
</trkpt>
<trkpt lat="40.0713485" lon="-105.229866">
  <ele>1583.0</ele>
  <time>2026-08-28T17:50:15Z</time>
  <course>234.91</course>
  <speed>0.0</speed>
  <fix>3d</fix>
</trkpt>
<trkpt lat="40.0713487" lon="-105.2298659">
  <ele>1582.97</ele>
  <time>2026-08-28T17:50:15Z</time>
  <course>231.49</course>
  <speed>0.03</speed>
  <fix>3d</fix>
</trkpt>
<trkpt lat="40.0713485" lon="-105.229866">
  <ele>1583.0</ele>
  <time>2026-08-28T17:50:15Z</time>
  <course>235.42</course>
  <speed>0.0</speed>
  <fix>3d</fix>
</trkpt>
<trkpt lat="40.0713487" lon="-105.2298659">
  <ele>1582.96</ele>
  <time>2026-08-28T17:50:15Z</time>
  <course>231.49</course>
  <speed>0.03</speed>
  <fix>3d</fix>
</trkpt>
<trkpt lat="40.0713485" lon="-105.229866">
  <ele>1583.0</ele>
  <time>2026-08-28T17:50:15Z</time>
  <course>235.42</course>
  <speed>0.0</speed>
  <fix>3d</fix>
</trkpt>
<trkpt lat="40.0713487" lon="-105.2298659">
  <ele>1582.96</ele>
  <time>2026-08-28T17:50:15Z</time>
  <course>231.49</course>
  <speed>0.03</speed>
  <fix>3d</fix>
</trkpt>
<trkpt lat="40.0713485" lon="-105.229866">
  <ele>1583.0</ele>
  <time>2026-08-28T17:50:15Z</time>
  <course>235.97</course>
  <speed>0.0</speed>
  <fix>3d</fix>
</trkpt>
<trkpt lat="40.0713487" lon="-105.2298659">
  <ele>1582.97</ele>
  <time>2026-08-28T17:50:15Z</time>
  <course>231.49</course>
  <speed>0.03</speed>
  <fix>3d</fix>
</trkpt>
<trkpt lat="40.0713485" lon="-105.229866">
  <ele>1583.0</ele>
  <time>2026-08-28T17:50:15Z</time>
  <course>235.97</course>
  <speed>0.0</speed>
  <fix>3d</fix>
</trkpt>
<trkpt lat="40.0713487" lon="-105.2298659">
  <ele>1582.97</ele>
  <time>2026-08-28T17:50:15Z</time>
  <course>231.49</course>
  <speed>0.03</speed>
  <fix>3d</fix>
</trkpt>
<trkpt lat="40.0713485" lon="-105.229866">
  <ele>1583.0</ele>
  <time>2026-08-28T17:50:15Z</time>
  <course>236.59</course>
  <speed>0.0</speed>
  <fix>3d</fix>
</trkpt>
<trkpt lat="40.0713487" lon="-105.2298659">
  <ele>1582.97</ele>
  <time>2026-08-28T17:50:15Z</time>
  <course>231.49</course>
  <speed>0.03</speed>
  <fix>3d</fix>
</trkpt>
<trkpt lat="40.0713485" lon="-105.229866">
  <ele>1583.0</ele>
  <time>2026-08-28T17:50:15Z</time>
  <course>236.59</course>
  <speed>0.0</speed>
  <fix>3d</fix>
</trkpt>
<trkpt lat="40.0713487" lon="-105.2298659">
  <ele>1582.97</ele>
  <time>2026-08-28T17:50:15Z</time>
  <course>231.49</course>
  <speed>0.03</speed>
  <fix>3d</fix>
</trkpt>
<trkpt lat="40.0713485" lon="-105.229866">
  <ele>1583.0</ele>
  <time>2026-08-28T17:50:15Z</time>
  <course>237.26</course>
  <speed>0.0</speed>
  <fix>3d</fix>
</trkpt>
<trkpt lat="40.0713487" lon="-105.2298659">
  <ele>1582.98</ele>
  <time>2026-08-28T17:50:15Z</time>
  <course>231.48</course>
  <speed>0.03</speed>
  <fix>3d</fix>
</trkpt>
<trkpt lat="40.0713485" lon="-105.229866">
  <ele>1583.0</ele>
  <time>2026-08-28T17:50:15Z</time>
  <course>237.26</course>
  <speed>0.0</speed>
  <fix>3d</fix>
</trkpt>
<trkpt lat="40.0713487" lon="-105.2298659">
  <ele>1582.98</ele>
  <time>2026-08-28T17:50:15Z</time>
  <course>231.48</course>
  <speed>0.03</speed>
  <fix>3d</fix>
</trkpt>
<trkpt lat="40.0713485" lon="-105.229866">
  <ele>1583.0</ele>
  <time>2026-08-28T17:50:15Z</time>
  <course>238.01</course>
  <speed>0.0</speed>
  <fix>3d</fix>
</trkpt>
<trkpt lat="40.0713487" lon="-105.2298659">
  <ele>1582.99</ele>
  <time>2026-08-28T17:50:15Z</time>
  <course>231.48</course>
  <speed>0.03</speed>
  <fix>3d</fix>
</trkpt>
<trkpt lat="40.0713485" lon="-105.229866">
  <ele>1583.0</ele>
  <time>2026-08-28T17:50:15Z</time>
  <course>238.01</course>
  <speed>0.0</speed>
  <fix>3d</fix>
</trkpt>
<trkpt lat="40.0713487" lon="-105.2298659">
  <ele>1582.99</ele>
  <time>2026-08-28T17:50:15Z</time>
  <course>231.48</course>
  <speed>0.03</speed>
  <fix>3d</fix>
</trkpt>
<trkpt lat="40.0713485" lon="-105.229866">
  <ele>1583.0</ele>
  <time>2026-08-28T17:50:15Z</time>
  <course>238.83</course>
  <speed>0.0</speed>
  <fix>3d</fix>
</trkpt>
<trkpt lat="40.0713487" lon="-105.2298659">
  <ele>1583.0</ele>
  <time>2026-08-28T17:50:15Z</time>
  <course>231.48</course>
  <speed>0.03</speed>
  <fix>3d</fix>
</trkpt>
<trkpt lat="40.0713485" lon="-105.229866">
  <ele>1583.0</ele>
  <time>2026-08-28T17:50:15Z</time>
  <course>238.83</course>
  <speed>0.0</speed>
  <fix>3d</fix>
</trkpt>
<trkpt lat="40.0713487" lon="-105.2298659">
  <ele>1583.0</ele>
  <time>2026-08-28T17:50:15Z</time>
  <course>231.48</course>
  <speed>0.03</speed>
  <fix>3d</fix>
</trkpt>
<trkpt lat="40.0713485" lon="-105.229866">
  <ele>1583.0</ele>
  <time>2026-08-28T17:50:15Z</time>
  <course>239.73</course>
  <speed>0.0</speed>
  <fix>3d</fix>
</trkpt>
<trkpt lat="40.0713487" lon="-105.2298659">
  <ele>1583.01</ele>
  <time>2026-08-28T17:50:15Z</time>
  <course>231.48</course>
  <speed>0.03</speed>
  <fix>3d</fix>
</trkpt>
<trkpt lat="40.0713485" lon="-105.229866">
  <ele>1583.0</ele>
  <time>2026-08-28T17:50:15Z</time>
  <course>239.73</course>
  <speed>0.0</speed>
  <fix>3d</fix>
</trkpt>
<trkpt lat="40.0713487" lon="-105.2298659">
  <ele>1583.01</ele>
  <time>2026-08-28T17:50:15Z</time>
  <course>231.48</course>
  <speed>0.03</speed>
  <fix>3d</fix>
</trkpt>
<trkpt lat="40.0713485" lon="-105.229866">
  <ele>1583.0</ele>
  <time>2026-08-28T17:50:15Z</time>
  <course>240.73</course>
  <speed>0.0</speed>
  <fix>3d</fix>
</trkpt>
<trkpt lat="40.0713487" lon="-105.2298659">
  <ele>1583.01</ele>
  <time>2026-08-28T17:50:15Z</time>
  <course>231.48</course>
  <speed>0.03</speed>
  <fix>3d</fix>
</trkpt>
<trkpt lat="40.0713485" lon="-105.229866">
  <ele>1583.0</ele>
  <time>2026-08-28T17:50:15Z</time>
  <course>240.73</course>
  <speed>0.0</speed>
  <fix>3d</fix>
</trkpt>
<trkpt lat="40.0713487" lon="-105.2298659">
  <ele>1583.01</ele>
  <time>2026-08-28T17:50:15Z</time>
  <course>231.48</course>
  <speed>0.03</speed>
  <fix>3d</fix>
</trkpt>
<trkpt lat="40.0713485" lon="-105.229866">
  <ele>1583.0</ele>
  <time>2026-08-28T17:50:15Z</time>
  <course>241.82</course>
  <speed>0.0</speed>
  <fix>3d</fix>
</trkpt>
<trkpt lat="40.0713487" lon="-105.2298659">
  <ele>1583.02</ele>
  <time>2026-08-28T17:50:15Z</time>
  <course>231.48</course>
  <speed>0.03</speed>
  <fix>3d</fix>
</trkpt>
<trkpt lat="40.0713485" lon="-105.229866">
  <ele>1583.0</ele>
  <time>2026-08-28T17:50:15Z</time>
  <course>241.82</course>
  <speed>0.0</speed>
  <fix>3d</fix>
</trkpt>
<trkpt lat="40.0713487" lon="-105.2298659">
  <ele>1583.02</ele>
  <time>2026-08-28T17:50:15Z</time>
  <course>231.48</course>
  <speed>0.03</speed>
  <fix>3d</fix>
</trkpt>
<trkpt lat="40.0713485" lon="-105.229866">
  <ele>1583.0</ele>
  <time>2026-08-28T17:50:15Z</time>
  <course>243.01</course>
  <speed>0.0</speed>
  <fix>3d</fix>
</trkpt>
<trkpt lat="40.0713487" lon="-105.2298659">
  <ele>1583.02</ele>
  <time>2026-08-28T17:50:15Z</time>
  <course>231.48</course>
  <speed>0.03</speed>
  <fix>3d</fix>
</trkpt>
<trkpt lat="40.0713485" lon="-105.229866">
  <ele>1583.0</ele>
  <time>2026-08-28T17:50:15Z</time>
  <course>243.01</course>
  <speed>0.0</speed>
  <fix>3d</fix>
</trkpt>
<trkpt lat="40.0713487" lon="-105.2298659">
  <ele>1583.03</ele>
  <time>2026-08-28T17:50:15Z</time>
  <course>231.48</course>
  <speed>0.03</speed>
  <fix>3d</fix>
</trkpt>
<trkpt lat="40.0713485" lon="-105.229866">
  <ele>1583.0</ele>
  <time>2026-08-28T17:50:15Z</time>
  <course>244.32</course>
  <speed>0.0</speed>
  <fix>3d</fix>
</trkpt>
<trkpt lat="40.0713487" lon="-105.2298659">
  <ele>1583.03</ele>
  <time>2026-08-28T17:50:15Z</time>
  <course>231.48</course>
  <speed>0.03</speed>
  <fix>3d</fix>
</trkpt>
<trkpt lat="40.0713485" lon="-105.229866">
  <ele>1583.0</ele>
  <time>2026-08-28T17:50:15Z</time>
  <course>244.32</course>
  <speed>0.0</speed>
  <fix>3d</fix>
</trkpt>
<trkpt lat="40.0713487" lon="-105.2298659">
  <ele>1583.03</ele>
  <time>2026-08-28T17:50:15Z</time>
  <course>231.48</course>
  <speed>0.03</speed>
  <fix>3d</fix>
</trkpt>
<trkpt lat="40.0713485" lon="-105.229866">
  <ele>1583.0</ele>
  <time>2026-08-28T17:50:15Z</time>
  <course>245.75</course>
  <speed>0.0</speed>
  <fix>3d</fix>
</trkpt>
<trkpt lat="40.0713487" lon="-105.2298659">
  <ele>1583.03</ele>
  <time>2026-08-28T17:50:15Z</time>
  <course>231.48</course>
  <speed>0.03</speed>
  <fix>3d</fix>
</trkpt>
<trkpt lat="40.0713485" lon="-105.229866">
  <ele>1583.0</ele>
  <time>2026-08-28T17:50:15Z</time>
  <course>245.75</course>
  <speed>0.0</speed>
  <fix>3d</fix>
</trkpt>
<trkpt lat="40.0713487" lon="-105.2298659">
  <ele>1583.03</ele>
  <time>2026-08-28T17:50:16Z</time>
  <course>231.48</course>
  <speed>0.03</speed>
  <fix>3d</fix>
</trkpt>
<trkpt lat="40.0713485" lon="-105.229866">
  <ele>1583.0</ele>
  <time>2026-08-28T17:50:16Z</time>
  <course>247.3</course>
  <speed>0.0</speed>
  <fix>3d</fix>
</trkpt>
<trkpt lat="40.0713487" lon="-105.2298659">
  <ele>1583.03</ele>
  <time>2026-08-28T17:50:16Z</time>
  <course>231.48</course>
  <speed>0.03</speed>
  <fix>3d</fix>
</trkpt>
<trkpt lat="40.0713485" lon="-105.229866">
  <ele>1583.0</ele>
  <time>2026-08-28T17:50:16Z</time>
  <course>247.3</course>
  <speed>0.0</speed>
  <fix>3d</fix>
</trkpt>
<trkpt lat="40.0713487" lon="-105.2298659">
  <ele>1583.03</ele>
  <time>2026-08-28T17:50:16Z</time>
  <course>231.48</course>
  <speed>0.03</speed>
  <fix>3d</fix>
</trkpt>
<trkpt lat="40.0713485" lon="-105.229866">
  <ele>1583.0</ele>
  <time>2026-08-28T17:50:16Z</time>
  <course>248.99</course>
  <speed>0.0</speed>
  <fix>3d</fix>
</trkpt>
<trkpt lat="40.0713487" lon="-105.2298659">
  <ele>1583.03</ele>
  <time>2026-08-28T17:50:16Z</time>
  <course>231.48</course>
  <speed>0.03</speed>
  <fix>3d</fix>
</trkpt>
<trkpt lat="40.0713485" lon="-105.229866">
  <ele>1583.0</ele>
  <time>2026-08-28T17:50:16Z</time>
  <course>248.99</course>
  <speed>0.0</speed>
  <fix>3d</fix>
</trkpt>
<trkpt lat="40.0713487" lon="-105.2298659">
  <ele>1583.03</ele>
  <time>2026-08-28T17:50:16Z</time>
  <course>231.48</course>
  <speed>0.03</speed>
  <fix>3d</fix>
</trkpt>
<trkpt lat="40.0713485" lon="-105.229866">
  <ele>1583.0</ele>
  <time>2026-08-28T17:50:16Z</time>
  <course>250.81</course>
  <speed>0.0</speed>
  <fix>3d</fix>
</trkpt>
<trkpt lat="40.0713487" lon="-105.2298659">
  <ele>1583.03</ele>
  <time>2026-08-28T17:50:16Z</time>
  <course>231.48</course>
  <speed>0.03</speed>
  <fix>3d</fix>
</trkpt>
<trkpt lat="40.0713485" lon="-105.229866">
  <ele>1583.0</ele>
  <time>2026-08-28T17:50:16Z</time>
  <course>250.81</course>
  <speed>0.0</speed>
  <fix>3d</fix>
</trkpt>
<trkpt lat="40.0713487" lon="-105.2298659">
  <ele>1583.03</ele>
  <time>2026-08-28T17:50:16Z</time>
  <course>231.48</course>
  <speed>0.03</speed>
  <fix>3d</fix>
</trkpt>
<trkpt lat="40.0713485" lon="-105.229866">
  <ele>1583.0</ele>
  <time>2026-08-28T17:50:16Z</time>
  <course>252.78</course>
  <speed>0.0</speed>
  <fix>3d</fix>
</trkpt>
<trkpt lat="40.0713487" lon="-105.2298659">
  <ele>1583.02</ele>
  <time>2026-08-28T17:50:16Z</time>
  <course>231.48</course>
  <speed>0.03</speed>
  <fix>3d</fix>
</trkpt>
<trkpt lat="40.0713485" lon="-105.229866">
  <ele>1583.0</ele>
  <time>2026-08-28T17:50:16Z</time>
  <course>252.78</course>
  <speed>0.0</speed>
  <fix>3d</fix>
</trkpt>
<trkpt lat="40.0713487" lon="-105.2298659">
  <ele>1583.02</ele>
  <time>2026-08-28T17:50:16Z</time>
  <course>231.48</course>
  <speed>0.03</speed>
  <fix>3d</fix>
</trkpt>
<trkpt lat="40.0713485" lon="-105.229866">
  <ele>1583.0</ele>
  <time>2026-08-28T17:50:16Z</time>
  <course>254.89</course>
  <speed>0.0</speed>
  <fix>3d</fix>
</trkpt>
<trkpt lat="40.0713487" lon="-105.2298659">
  <ele>1583.02</ele>
  <time>2026-08-28T17:50:16Z</time>
  <course>231.48</course>
  <speed>0.03</speed>
  <fix>3d</fix>
</trkpt>
<trkpt lat="40.0713485" lon="-105.229866">
  <ele>1583.0</ele>
  <time>2026-08-28T17:50:16Z</time>
  <course>254.89</course>
  <speed>0.0</speed>
  <fix>3d</fix>
</trkpt>
<trkpt lat="40.0713487" lon="-105.2298659">
  <ele>1583.02</ele>
  <time>2026-08-28T17:50:16Z</time>
  <course>231.48</course>
  <speed>0.03</speed>
  <fix>3d</fix>
</trkpt>
<trkpt lat="40.0713485" lon="-105.229866">
  <ele>1583.0</ele>
  <time>2026-08-28T17:50:16Z</time>
  <course>257.14</course>
  <speed>0.0</speed>
  <fix>3d</fix>
</trkpt>
<trkpt lat="40.0713487" lon="-105.2298659">
  <ele>1583.02</ele>
  <time>2026-08-28T17:50:16Z</time>
  <course>231.47</course>
  <speed>0.03</speed>
  <fix>3d</fix>
</trkpt>
<trkpt lat="40.0713485" lon="-105.229866">
  <ele>1583.0</ele>
  <time>2026-08-28T17:50:16Z</time>
  <course>257.14</course>
  <speed>0.0</speed>
  <fix>3d</fix>
</trkpt>
<trkpt lat="40.0713487" lon="-105.2298659">
  <ele>1583.02</ele>
  <time>2026-08-28T17:50:16Z</time>
  <course>231.47</course>
  <speed>0.03</speed>
  <fix>3d</fix>
</trkpt>
<trkpt lat="40.0713485" lon="-105.229866">
  <ele>1583.0</ele>
  <time>2026-08-28T17:50:16Z</time>
  <course>259.53</course>
  <speed>0.0</speed>
  <fix>3d</fix>
</trkpt>
<trkpt lat="40.0713487" lon="-105.2298659">
  <ele>1583.02</ele>
  <time>2026-08-28T17:50:16Z</time>
  <course>231.47</course>
  <speed>0.03</speed>
  <fix>3d</fix>
</trkpt>
<trkpt lat="40.0713485" lon="-105.229866">
  <ele>1583.0</ele>
  <time>2026-08-28T17:50:16Z</time>
  <course>259.53</course>
  <speed>0.0</speed>
  <fix>3d</fix>
</trkpt>
<trkpt lat="40.0713487" lon="-105.2298659">
  <ele>1583.03</ele>
  <time>2026-08-28T17:50:16Z</time>
  <course>231.47</course>
  <speed>0.03</speed>
  <fix>3d</fix>
</trkpt>
<trkpt lat="40.0713485" lon="-105.229866">
  <ele>1583.0</ele>
  <time>2026-08-28T17:50:16Z</time>
  <course>262.04</course>
  <speed>0.0</speed>
  <fix>3d</fix>
</trkpt>
<trkpt lat="40.0713487" lon="-105.2298659">
  <ele>1583.03</ele>
  <time>2026-08-28T17:50:16Z</time>
  <course>231.47</course>
  <speed>0.03</speed>
  <fix>3d</fix>
</trkpt>
<trkpt lat="40.0713485" lon="-105.229866">
  <ele>1583.0</ele>
  <time>2026-08-28T17:50:16Z</time>
  <course>262.04</course>
  <speed>0.0</speed>
  <fix>3d</fix>
</trkpt>
<trkpt lat="40.0713487" lon="-105.2298659">
  <ele>1583.03</ele>
  <time>2026-08-28T17:50:16Z</time>
  <course>231.47</course>
  <speed>0.03</speed>
  <fix>3d</fix>
</trkpt>
<trkpt lat="40.0713485" lon="-105.229866">
  <ele>1583.0</ele>
  <time>2026-08-28T17:50:16Z</time>
  <course>264.67</course>
  <speed>0.0</speed>
  <fix>3d</fix>
</trkpt>
<trkpt lat="40.0713487" lon="-105.2298659">
  <ele>1583.04</ele>
  <time>2026-08-28T17:50:16Z</time>
  <course>231.47</course>
  <speed>0.03</speed>
  <fix>3d</fix>
</trkpt>
<trkpt lat="40.0713485" lon="-105.229866">
  <ele>1583.0</ele>
  <time>2026-08-28T17:50:16Z</time>
  <course>264.67</course>
  <speed>0.0</speed>
  <fix>3d</fix>
</trkpt>
<trkpt lat="40.0713487" lon="-105.2298659">
  <ele>1583.04</ele>
  <time>2026-08-28T17:50:16Z</time>
  <course>231.47</course>
  <speed>0.03</speed>
  <fix>3d</fix>
</trkpt>
<trkpt lat="40.0713485" lon="-105.229866">
  <ele>1583.0</ele>
  <time>2026-08-28T17:50:16Z</time>
  <course>267.4</course>
  <speed>0.0</speed>
  <fix>3d</fix>
</trkpt>
<trkpt lat="40.0713487" lon="-105.2298659">
  <ele>1583.04</ele>
  <time>2026-08-28T17:50:16Z</time>
  <course>231.47</course>
  <speed>0.03</speed>
  <fix>3d</fix>
</trkpt>
<trkpt lat="40.0713485" lon="-105.229866">
  <ele>1583.0</ele>
  <time>2026-08-28T17:50:16Z</time>
  <course>267.4</course>
  <speed>0.0</speed>
  <fix>3d</fix>
</trkpt>
<trkpt lat="40.0713487" lon="-105.2298659">
  <ele>1583.04</ele>
  <time>2026-08-28T17:50:16Z</time>
  <course>231.47</course>
  <speed>0.03</speed>
  <fix>3d</fix>
</trkpt>
<trkpt lat="40.0713485" lon="-105.229866">
  <ele>1583.0</ele>
  <time>2026-08-28T17:50:16Z</time>
  <course>270.2</course>
  <speed>0.0</speed>
  <fix>3d</fix>
</trkpt>
<trkpt lat="40.0713487" lon="-105.2298659">
  <ele>1583.04</ele>
  <time>2026-08-28T17:50:16Z</time>
  <course>231.47</course>
  <speed>0.03</speed>
  <fix>3d</fix>
</trkpt>
<trkpt lat="40.0713485" lon="-105.229866">
  <ele>1583.0</ele>
  <time>2026-08-28T17:50:16Z</time>
  <course>270.2</course>
  <speed>0.0</speed>
  <fix>3d</fix>
</trkpt>
<trkpt lat="40.0713487" lon="-105.2298659">
  <ele>1583.04</ele>
  <time>2026-08-28T17:50:16Z</time>
  <course>231.47</course>
  <speed>0.03</speed>
  <fix>3d</fix>
</trkpt>
<trkpt lat="40.0713485" lon="-105.229866">
  <ele>1583.0</ele>
  <time>2026-08-28T17:50:16Z</time>
  <course>273.04</course>
  <speed>0.0</speed>
  <fix>3d</fix>
</trkpt>
<trkpt lat="40.0713487" lon="-105.2298659">
  <ele>1583.04</ele>
  <time>2026-08-28T17:50:16Z</time>
  <course>231.47</course>
  <speed>0.03</speed>
  <fix>3d</fix>
</trkpt>
<trkpt lat="40.0713485" lon="-105.229866">
  <ele>1583.0</ele>
  <time>2026-08-28T17:50:16Z</time>
  <course>273.04</course>
  <speed>0.0</speed>
  <fix>3d</fix>
</trkpt>
<trkpt lat="40.0713487" lon="-105.2298659">
  <ele>1583.03</ele>
  <time>2026-08-28T17:50:16Z</time>
  <course>231.47</course>
  <speed>0.03</speed>
  <fix>3d</fix>
</trkpt>
<trkpt lat="40.0713485" lon="-105.229866">
  <ele>1583.0</ele>
  <time>2026-08-28T17:50:16Z</time>
  <course>275.9</course>
  <speed>0.0</speed>
  <fix>3d</fix>
</trkpt>
<trkpt lat="40.0713487" lon="-105.2298659">
  <ele>1583.03</ele>
  <time>2026-08-28T17:50:16Z</time>
  <course>231.47</course>
  <speed>0.03</speed>
  <fix>3d</fix>
</trkpt>
<trkpt lat="40.0713485" lon="-105.229866">
  <ele>1583.0</ele>
  <time>2026-08-28T17:50:16Z</time>
  <course>275.9</course>
  <speed>0.0</speed>
  <fix>3d</fix>
</trkpt>
<trkpt lat="40.0713487" lon="-105.2298659">
  <ele>1583.03</ele>
  <time>2026-08-28T17:50:16Z</time>
  <course>231.47</course>
  <speed>0.03</speed>
  <fix>3d</fix>
</trkpt>
<trkpt lat="40.0713485" lon="-105.229866">
  <ele>1583.0</ele>
  <time>2026-08-28T17:50:16Z</time>
  <course>278.75</course>
  <speed>0.0</speed>
  <fix>3d</fix>
</trkpt>
<trkpt lat="40.0713487" lon="-105.2298659">
  <ele>1583.02</ele>
  <time>2026-08-28T17:50:16Z</time>
  <course>231.47</course>
  <speed>0.03</speed>
  <fix>3d</fix>
</trkpt>
<trkpt lat="40.0713485" lon="-105.229866">
  <ele>1583.0</ele>
  <time>2026-08-28T17:50:16Z</time>
  <course>278.75</course>
  <speed>0.0</speed>
  <fix>3d</fix>
</trkpt>
<trkpt lat="40.0713487" lon="-105.2298659">
  <ele>1583.02</ele>
  <time>2026-08-28T17:50:16Z</time>
  <course>231.47</course>
  <speed>0.03</speed>
  <fix>3d</fix>
</trkpt>
<trkpt lat="40.0713485" lon="-105.229866">
  <ele>1583.0</ele>
  <time>2026-08-28T17:50:16Z</time>
  <course>281.57</course>
  <speed>0.0</speed>
  <fix>3d</fix>
</trkpt>
<trkpt lat="40.0713487" lon="-105.2298659">
  <ele>1583.02</ele>
  <time>2026-08-28T17:50:16Z</time>
  <course>231.47</course>
  <speed>0.03</speed>
  <fix>3d</fix>
</trkpt>
<trkpt lat="40.0713485" lon="-105.229866">
  <ele>1583.0</ele>
  <time>2026-08-28T17:50:16Z</time>
  <course>281.57</course>
  <speed>0.0</speed>
  <fix>3d</fix>
</trkpt>
<trkpt lat="40.0713487" lon="-105.2298659">
  <ele>1583.02</ele>
  <time>2026-08-28T17:50:16Z</time>
  <course>231.47</course>
  <speed>0.03</speed>
  <fix>3d</fix>
</trkpt>
<trkpt lat="40.0713485" lon="-105.229866">
  <ele>1583.0</ele>
  <time>2026-08-28T17:50:16Z</time>
  <course>284.33</course>
  <speed>0.0</speed>
  <fix>3d</fix>
</trkpt>
<trkpt lat="40.0713487" lon="-105.2298659">
  <ele>1583.02</ele>
  <time>2026-08-28T17:50:16Z</time>
  <course>231.47</course>
  <speed>0.03</speed>
  <fix>3d</fix>
</trkpt>
<trkpt lat="40.0713485" lon="-105.229866">
  <ele>1583.0</ele>
  <time>2026-08-28T17:50:16Z</time>
  <course>284.33</course>
  <speed>0.0</speed>
  <fix>3d</fix>
</trkpt>
<trkpt lat="40.0713487" lon="-105.2298659">
  <ele>1583.02</ele>
  <time>2026-08-28T17:50:16Z</time>
  <course>231.47</course>
  <speed>0.03</speed>
  <fix>3d</fix>
</trkpt>
<trkpt lat="40.0713485" lon="-105.229866">
  <ele>1583.0</ele>
  <time>2026-08-28T17:50:16Z</time>
  <course>287.0</course>
  <speed>0.0</speed>
  <fix>3d</fix>
</trkpt>
<trkpt lat="40.0713487" lon="-105.2298659">
  <ele>1583.03</ele>
  <time>2026-08-28T17:50:16Z</time>
  <course>231.47</course>
  <speed>0.03</speed>
  <fix>3d</fix>
</trkpt>
<trkpt lat="40.0713485" lon="-105.229866">
  <ele>1583.0</ele>
  <time>2026-08-28T17:50:16Z</time>
  <course>287.0</course>
  <speed>0.0</speed>
  <fix>3d</fix>
</trkpt>
<trkpt lat="40.0713487" lon="-105.2298659">
  <ele>1583.03</ele>
  <time>2026-08-28T17:50:16Z</time>
  <course>231.47</course>
  <speed>0.03</speed>
  <fix>3d</fix>
</trkpt>
<trkpt lat="40.0713485" lon="-105.229866">
  <ele>1583.0</ele>
  <time>2026-08-28T17:50:16Z</time>
  <course>289.56</course>
  <speed>0.0</speed>
  <fix>3d</fix>
</trkpt>
<trkpt lat="40.0713487" lon="-105.2298659">
  <ele>1583.03</ele>
  <time>2026-08-28T17:50:16Z</time>
  <course>231.47</course>
  <speed>0.03</speed>
  <fix>3d</fix>
</trkpt>
<trkpt lat="40.0713485" lon="-105.229866">
  <ele>1583.0</ele>
  <time>2026-08-28T17:50:16Z</time>
  <course>289.56</course>
  <speed>0.0</speed>
  <fix>3d</fix>
</trkpt>
<trkpt lat="40.0713487" lon="-105.2298659">
  <ele>1583.03</ele>
  <time>2026-08-28T17:50:16Z</time>
  <course>231.47</course>
  <speed>0.03</speed>
  <fix>3d</fix>
</trkpt>
<trkpt lat="40.0713485" lon="-105.229866">
  <ele>1583.0</ele>
  <time>2026-08-28T17:50:16Z</time>
  <course>292.01</course>
  <speed>0.0</speed>
  <fix>3d</fix>
</trkpt>
<trkpt lat="40.0713487" lon="-105.2298659">
  <ele>1583.03</ele>
  <time>2026-08-28T17:50:16Z</time>
  <course>231.46</course>
  <speed>0.03</speed>
  <fix>3d</fix>
</trkpt>
<trkpt lat="40.0713485" lon="-105.229866">
  <ele>1583.0</ele>
  <time>2026-08-28T17:50:16Z</time>
  <course>292.01</course>
  <speed>0.0</speed>
  <fix>3d</fix>
</trkpt>
<trkpt lat="40.0713487" lon="-105.2298659">
  <ele>1583.03</ele>
  <time>2026-08-28T17:50:16Z</time>
  <course>231.46</course>
  <speed>0.03</speed>
  <fix>3d</fix>
</trkpt>
<trkpt lat="40.0713485" lon="-105.229866">
  <ele>1583.0</ele>
  <time>2026-08-28T17:50:16Z</time>
  <course>294.32</course>
  <speed>0.0</speed>
  <fix>3d</fix>
</trkpt>
<trkpt lat="40.0713487" lon="-105.2298659">
  <ele>1583.03</ele>
  <time>2026-08-28T17:50:16Z</time>
  <course>231.46</course>
  <speed>0.03</speed>
  <fix>3d</fix>
</trkpt>
<trkpt lat="40.0713485" lon="-105.229866">
  <ele>1583.0</ele>
  <time>2026-08-28T17:50:16Z</time>
  <course>294.32</course>
  <speed>0.0</speed>
  <fix>3d</fix>
</trkpt>
<trkpt lat="40.0713487" lon="-105.2298659">
  <ele>1583.03</ele>
  <time>2026-08-28T17:50:16Z</time>
  <course>231.46</course>
  <speed>0.03</speed>
  <fix>3d</fix>
</trkpt>
<trkpt lat="40.0713485" lon="-105.229866">
  <ele>1583.0</ele>
  <time>2026-08-28T17:50:16Z</time>
  <course>296.5</course>
  <speed>0.0</speed>
  <fix>3d</fix>
</trkpt>
<trkpt lat="40.0713487" lon="-105.2298659">
  <ele>1583.02</ele>
  <time>2026-08-28T17:50:16Z</time>
  <course>231.46</course>
  <speed>0.03</speed>
  <fix>3d</fix>
</trkpt>
<trkpt lat="40.0713485" lon="-105.229866">
  <ele>1583.0</ele>
  <time>2026-08-28T17:50:16Z</time>
  <course>296.5</course>
  <speed>0.0</speed>
  <fix>3d</fix>
</trkpt>
<trkpt lat="40.0713487" lon="-105.2298659">
  <ele>1583.01</ele>
  <time>2026-08-28T17:50:16Z</time>
  <course>231.46</course>
  <speed>0.03</speed>
  <fix>3d</fix>
</trkpt>
<trkpt lat="40.0713485" lon="-105.229866">
  <ele>1583.0</ele>
  <time>2026-08-28T17:50:16Z</time>
  <course>298.53</course>
  <speed>0.0</speed>
  <fix>3d</fix>
</trkpt>
<trkpt lat="40.0713487" lon="-105.2298659">
  <ele>1583.01</ele>
  <time>2026-08-28T17:50:16Z</time>
  <course>231.46</course>
  <speed>0.03</speed>
  <fix>3d</fix>
</trkpt>
<trkpt lat="40.0713485" lon="-105.229866">
  <ele>1583.0</ele>
  <time>2026-08-28T17:50:16Z</time>
  <course>298.53</course>
  <speed>0.0</speed>
  <fix>3d</fix>
</trkpt>
<trkpt lat="40.0713487" lon="-105.2298659">
  <ele>1583.0</ele>
  <time>2026-08-28T17:50:16Z</time>
  <course>231.46</course>
  <speed>0.03</speed>
  <fix>3d</fix>
</trkpt>
<trkpt lat="40.0713485" lon="-105.229866">
  <ele>1583.0</ele>
  <time>2026-08-28T17:50:16Z</time>
  <course>300.41</course>
  <speed>0.0</speed>
  <fix>3d</fix>
</trkpt>
<trkpt lat="40.0713487" lon="-105.2298659">
  <ele>1582.99</ele>
  <time>2026-08-28T17:50:16Z</time>
  <course>231.46</course>
  <speed>0.03</speed>
  <fix>3d</fix>
</trkpt>
<trkpt lat="40.0713485" lon="-105.229866">
  <ele>1583.0</ele>
  <time>2026-08-28T17:50:16Z</time>
  <course>300.41</course>
  <speed>0.0</speed>
  <fix>3d</fix>
</trkpt>
<trkpt lat="40.0713487" lon="-105.2298659">
  <ele>1582.99</ele>
  <time>2026-08-28T17:50:16Z</time>
  <course>231.46</course>
  <speed>0.03</speed>
  <fix>3d</fix>
</trkpt>
<trkpt lat="40.0713485" lon="-105.229866">
  <ele>1583.0</ele>
  <time>2026-08-28T17:50:16Z</time>
  <course>302.16</course>
  <speed>0.0</speed>
  <fix>3d</fix>
</trkpt>
<trkpt lat="40.0713487" lon="-105.2298659">
  <ele>1582.99</ele>
  <time>2026-08-28T17:50:16Z</time>
  <course>231.46</course>
  <speed>0.03</speed>
  <fix>3d</fix>
</trkpt>
<trkpt lat="40.0713485" lon="-105.229866">
  <ele>1583.0</ele>
  <time>2026-08-28T17:50:16Z</time>
  <course>302.16</course>
  <speed>0.0</speed>
  <fix>3d</fix>
</trkpt>
<trkpt lat="40.0713487" lon="-105.2298659">
  <ele>1582.98</ele>
  <time>2026-08-28T17:50:16Z</time>
  <course>231.46</course>
  <speed>0.03</speed>
  <fix>3d</fix>
</trkpt>
<trkpt lat="40.0713485" lon="-105.229866">
  <ele>1583.0</ele>
  <time>2026-08-28T17:50:16Z</time>
  <course>303.77</course>
  <speed>0.0</speed>
  <fix>3d</fix>
</trkpt>
<trkpt lat="40.0713487" lon="-105.2298659">
  <ele>1582.98</ele>
  <time>2026-08-28T17:50:16Z</time>
  <course>231.46</course>
  <speed>0.03</speed>
  <fix>3d</fix>
</trkpt>
<trkpt lat="40.0713485" lon="-105.229866">
  <ele>1583.0</ele>
  <time>2026-08-28T17:50:16Z</time>
  <course>303.77</course>
  <speed>0.0</speed>
  <fix>3d</fix>
</trkpt>
<trkpt lat="40.0713487" lon="-105.2298659">
  <ele>1582.97</ele>
  <time>2026-08-28T17:50:16Z</time>
  <course>231.46</course>
  <speed>0.03</speed>
  <fix>3d</fix>
</trkpt>
<trkpt lat="40.0713485" lon="-105.229866">
  <ele>1583.0</ele>
  <time>2026-08-28T17:50:16Z</time>
  <course>305.25</course>
  <speed>0.0</speed>
  <fix>3d</fix>
</trkpt>
<trkpt lat="40.0713487" lon="-105.2298659">
  <ele>1582.97</ele>
  <time>2026-08-28T17:50:16Z</time>
  <course>231.46</course>
  <speed>0.03</speed>
  <fix>3d</fix>
</trkpt>
<trkpt lat="40.0713485" lon="-105.229866">
  <ele>1583.0</ele>
  <time>2026-08-28T17:50:16Z</time>
  <course>305.25</course>
  <speed>0.0</speed>
  <fix>3d</fix>
</trkpt>
<trkpt lat="40.0713487" lon="-105.2298659">
  <ele>1582.96</ele>
  <time>2026-08-28T17:50:16Z</time>
  <course>231.46</course>
  <speed>0.03</speed>
  <fix>3d</fix>
</trkpt>
<trkpt lat="40.0713485" lon="-105.229866">
  <ele>1583.0</ele>
  <time>2026-08-28T17:50:16Z</time>
  <course>306.61</course>
  <speed>0.0</speed>
  <fix>3d</fix>
</trkpt>
<trkpt lat="40.0713487" lon="-105.2298659">
  <ele>1582.96</ele>
  <time>2026-08-28T17:50:16Z</time>
  <course>231.46</course>
  <speed>0.03</speed>
  <fix>3d</fix>
</trkpt>
<trkpt lat="40.0713485" lon="-105.229866">
  <ele>1583.0</ele>
  <time>2026-08-28T17:50:16Z</time>
  <course>306.61</course>
  <speed>0.0</speed>
  <fix>3d</fix>
</trkpt>
<trkpt lat="40.0713487" lon="-105.2298659">
  <ele>1582.96</ele>
  <time>2026-08-28T17:50:16Z</time>
  <course>231.46</course>
  <speed>0.03</speed>
  <fix>3d</fix>
</trkpt>
<trkpt lat="40.0713485" lon="-105.229866">
  <ele>1583.0</ele>
  <time>2026-08-28T17:50:16Z</time>
  <course>307.85</course>
  <speed>0.0</speed>
  <fix>3d</fix>
</trkpt>
<trkpt lat="40.0713487" lon="-105.2298659">
  <ele>1582.96</ele>
  <time>2026-08-28T17:50:16Z</time>
  <course>231.46</course>
  <speed>0.03</speed>
  <fix>3d</fix>
</trkpt>
<trkpt lat="40.0713485" lon="-105.229866">
  <ele>1583.0</ele>
  <time>2026-08-28T17:50:16Z</time>
  <course>307.85</course>
  <speed>0.0</speed>
  <fix>3d</fix>
</trkpt>
<trkpt lat="40.0713487" lon="-105.2298659">
  <ele>1582.96</ele>
  <time>2026-08-28T17:50:16Z</time>
  <course>231.46</course>
  <speed>0.03</speed>
  <fix>3d</fix>
</trkpt>
<trkpt lat="40.0713485" lon="-105.229866">
  <ele>1583.0</ele>
  <time>2026-08-28T17:50:16Z</time>
  <course>308.99</course>
  <speed>0.0</speed>
  <fix>3d</fix>
</trkpt>
<trkpt lat="40.0713487" lon="-105.2298659">
  <ele>1582.96</ele>
  <time>2026-08-28T17:50:16Z</time>
  <course>231.46</course>
  <speed>0.03</speed>
  <fix>3d</fix>
</trkpt>
<trkpt lat="40.0713485" lon="-105.229866">
  <ele>1583.0</ele>
  <time>2026-08-28T17:50:16Z</time>
  <course>308.99</course>
  <speed>0.0</speed>
  <fix>3d</fix>
</trkpt>
<trkpt lat="40.0713487" lon="-105.2298659">
  <ele>1582.96</ele>
  <time>2026-08-28T17:50:16Z</time>
  <course>231.46</course>
  <speed>0.03</speed>
  <fix>3d</fix>
</trkpt>
<trkpt lat="40.0713485" lon="-105.229866">
  <ele>1583.0</ele>
  <time>2026-08-28T17:50:16Z</time>
  <course>310.02</course>
  <speed>0.0</speed>
  <fix>3d</fix>
</trkpt>
<trkpt lat="40.0713487" lon="-105.2298659">
  <ele>1582.97</ele>
  <time>2026-08-28T17:50:16Z</time>
  <course>231.46</course>
  <speed>0.03</speed>
  <fix>3d</fix>
</trkpt>
<trkpt lat="40.0713485" lon="-105.229866">
  <ele>1583.0</ele>
  <time>2026-08-28T17:50:16Z</time>
  <course>310.02</course>
  <speed>0.0</speed>
  <fix>3d</fix>
</trkpt>
<trkpt lat="40.0713487" lon="-105.2298659">
  <ele>1582.97</ele>
  <time>2026-08-28T17:50:16Z</time>
  <course>231.46</course>
  <speed>0.03</speed>
  <fix>3d</fix>
</trkpt>
<trkpt lat="40.0713485" lon="-105.229866">
  <ele>1583.0</ele>
  <time>2026-08-28T17:50:16Z</time>
  <course>310.96</course>
  <speed>0.0</speed>
  <fix>3d</fix>
</trkpt>
<trkpt lat="40.0713487" lon="-105.2298659">
  <ele>1582.98</ele>
  <time>2026-08-28T17:50:16Z</time>
  <course>231.45</course>
  <speed>0.03</speed>
  <fix>3d</fix>
</trkpt>
<trkpt lat="40.0713485" lon="-105.229866">
  <ele>1583.0</ele>
  <time>2026-08-28T17:50:16Z</time>
  <course>310.96</course>
  <speed>0.0</speed>
  <fix>3d</fix>
</trkpt>
<trkpt lat="40.0713487" lon="-105.2298659">
  <ele>1582.99</ele>
  <time>2026-08-28T17:50:16Z</time>
  <course>231.45</course>
  <speed>0.03</speed>
  <fix>3d</fix>
</trkpt>
<trkpt lat="40.0713485" lon="-105.229866">
  <ele>1583.0</ele>
  <time>2026-08-28T17:50:16Z</time>
  <course>311.82</course>
  <speed>0.0</speed>
  <fix>3d</fix>
</trkpt>
<trkpt lat="40.0713487" lon="-105.2298659">
  <ele>1582.99</ele>
  <time>2026-08-28T17:50:16Z</time>
  <course>231.45</course>
  <speed>0.03</speed>
  <fix>3d</fix>
</trkpt>
<trkpt lat="40.0713485" lon="-105.229866">
  <ele>1583.0</ele>
  <time>2026-08-28T17:50:16Z</time>
  <course>311.82</course>
  <speed>0.0</speed>
  <fix>3d</fix>
</trkpt>
<trkpt lat="40.0713487" lon="-105.2298659">
  <ele>1583.0</ele>
  <time>2026-08-28T17:50:16Z</time>
  <course>231.45</course>
  <speed>0.03</speed>
  <fix>3d</fix>
</trkpt>
<trkpt lat="40.0713485" lon="-105.229866">
  <ele>1583.0</ele>
  <time>2026-08-28T17:50:16Z</time>
  <course>312.6</course>
  <speed>0.0</speed>
  <fix>3d</fix>
</trkpt>
<trkpt lat="40.0713487" lon="-105.2298659">
  <ele>1583.0</ele>
  <time>2026-08-28T17:50:16Z</time>
  <course>231.45</course>
  <speed>0.03</speed>
  <fix>3d</fix>
</trkpt>
<trkpt lat="40.0713485" lon="-105.229866">
  <ele>1583.0</ele>
  <time>2026-08-28T17:50:16Z</time>
  <course>312.6</course>
  <speed>0.0</speed>
  <fix>3d</fix>
</trkpt>
<trkpt lat="40.0713487" lon="-105.2298659">
  <ele>1583.01</ele>
  <time>2026-08-28T17:50:16Z</time>
  <course>231.45</course>
  <speed>0.03</speed>
  <fix>3d</fix>
</trkpt>
<trkpt lat="40.0713485" lon="-105.229866">
  <ele>1583.0</ele>
  <time>2026-08-28T17:50:16Z</time>
  <course>313.3</course>
  <speed>0.0</speed>
  <fix>3d</fix>
</trkpt>
<trkpt lat="40.0713487" lon="-105.2298659">
  <ele>1583.01</ele>
  <time>2026-08-28T17:50:16Z</time>
  <course>231.45</course>
  <speed>0.03</speed>
  <fix>3d</fix>
</trkpt>
<trkpt lat="40.0713485" lon="-105.229866">
  <ele>1583.0</ele>
  <time>2026-08-28T17:50:16Z</time>
  <course>313.3</course>
  <speed>0.0</speed>
  <fix>3d</fix>
</trkpt>
<trkpt lat="40.0713487" lon="-105.2298659">
  <ele>1583.02</ele>
  <time>2026-08-28T17:50:16Z</time>
  <course>231.45</course>
  <speed>0.03</speed>
  <fix>3d</fix>
</trkpt>
<trkpt lat="40.0713485" lon="-105.229866">
  <ele>1583.0</ele>
  <time>2026-08-28T17:50:16Z</time>
  <course>313.94</course>
  <speed>0.0</speed>
  <fix>3d</fix>
</trkpt>
<trkpt lat="40.0713487" lon="-105.2298659">
  <ele>1583.02</ele>
  <time>2026-08-28T17:50:16Z</time>
  <course>231.45</course>
  <speed>0.03</speed>
  <fix>3d</fix>
</trkpt>
<trkpt lat="40.0713485" lon="-105.229866">
  <ele>1583.0</ele>
  <time>2026-08-28T17:50:16Z</time>
  <course>313.94</course>
  <speed>0.0</speed>
  <fix>3d</fix>
</trkpt>
<trkpt lat="40.0713487" lon="-105.2298659">
  <ele>1583.01</ele>
  <time>2026-08-28T17:50:16Z</time>
  <course>231.45</course>
  <speed>0.03</speed>
  <fix>3d</fix>
</trkpt>
<trkpt lat="40.0713485" lon="-105.229866">
  <ele>1583.0</ele>
  <time>2026-08-28T17:50:16Z</time>
  <course>314.52</course>
  <speed>0.0</speed>
  <fix>3d</fix>
</trkpt>
<trkpt lat="40.0713487" lon="-105.2298659">
  <ele>1583.01</ele>
  <time>2026-08-28T17:50:16Z</time>
  <course>231.45</course>
  <speed>0.03</speed>
  <fix>3d</fix>
</trkpt>
<trkpt lat="40.0713485" lon="-105.229866">
  <ele>1583.0</ele>
  <time>2026-08-28T17:50:16Z</time>
  <course>314.52</course>
  <speed>0.0</speed>
  <fix>3d</fix>
</trkpt>
<trkpt lat="40.0713487" lon="-105.2298659">
  <ele>1583.0</ele>
  <time>2026-08-28T17:50:16Z</time>
  <course>231.45</course>
  <speed>0.03</speed>
  <fix>3d</fix>
</trkpt>
<trkpt lat="40.0713485" lon="-105.229866">
  <ele>1583.0</ele>
  <time>2026-08-28T17:50:16Z</time>
  <course>315.05</course>
  <speed>0.0</speed>
  <fix>3d</fix>
</trkpt>
<trkpt lat="40.0713487" lon="-105.2298659">
  <ele>1583.0</ele>
  <time>2026-08-28T17:50:16Z</time>
  <course>231.45</course>
  <speed>0.03</speed>
  <fix>3d</fix>
</trkpt>
<trkpt lat="40.0713485" lon="-105.229866">
  <ele>1583.0</ele>
  <time>2026-08-28T17:50:16Z</time>
  <course>315.05</course>
  <speed>0.0</speed>
  <fix>3d</fix>
</trkpt>
<trkpt lat="40.0713487" lon="-105.2298659">
  <ele>1582.99</ele>
  <time>2026-08-28T17:50:16Z</time>
  <course>231.45</course>
  <speed>0.03</speed>
  <fix>3d</fix>
</trkpt>
<trkpt lat="40.0713485" lon="-105.229866">
  <ele>1583.0</ele>
  <time>2026-08-28T17:50:16Z</time>
  <course>315.53</course>
  <speed>0.0</speed>
  <fix>3d</fix>
</trkpt>
<trkpt lat="40.0713487" lon="-105.2298659">
  <ele>1582.99</ele>
  <time>2026-08-28T17:50:16Z</time>
  <course>231.45</course>
  <speed>0.03</speed>
  <fix>3d</fix>
</trkpt>
<trkpt lat="40.0713485" lon="-105.229866">
  <ele>1583.0</ele>
  <time>2026-08-28T17:50:16Z</time>
  <course>315.53</course>
  <speed>0.0</speed>
  <fix>3d</fix>
</trkpt>
<trkpt lat="40.0713487" lon="-105.2298659">
  <ele>1582.99</ele>
  <time>2026-08-28T17:50:16Z</time>
  <course>231.45</course>
  <speed>0.03</speed>
  <fix>3d</fix>
</trkpt>
<trkpt lat="40.0713485" lon="-105.229866">
  <ele>1583.0</ele>
  <time>2026-08-28T17:50:16Z</time>
  <course>315.96</course>
  <speed>0.0</speed>
  <fix>3d</fix>
</trkpt>
<trkpt lat="40.0713487" lon="-105.2298659">
  <ele>1582.98</ele>
  <time>2026-08-28T17:50:16Z</time>
  <course>231.45</course>
  <speed>0.03</speed>
  <fix>3d</fix>
</trkpt>
<trkpt lat="40.0713485" lon="-105.229866">
  <ele>1583.0</ele>
  <time>2026-08-28T17:50:16Z</time>
  <course>315.96</course>
  <speed>0.0</speed>
  <fix>3d</fix>
</trkpt>
<trkpt lat="40.0713487" lon="-105.2298659">
  <ele>1582.98</ele>
  <time>2026-08-28T17:50:16Z</time>
  <course>231.45</course>
  <speed>0.03</speed>
  <fix>3d</fix>
</trkpt>
<trkpt lat="40.0713485" lon="-105.229866">
  <ele>1583.0</ele>
  <time>2026-08-28T17:50:16Z</time>
  <course>316.35</course>
  <speed>0.0</speed>
  <fix>3d</fix>
</trkpt>
<trkpt lat="40.0713487" lon="-105.2298659">
  <ele>1582.98</ele>
  <time>2026-08-28T17:50:16Z</time>
  <course>231.45</course>
  <speed>0.03</speed>
  <fix>3d</fix>
</trkpt>
<trkpt lat="40.0713485" lon="-105.229866">
  <ele>1583.0</ele>
  <time>2026-08-28T17:50:16Z</time>
  <course>316.35</course>
  <speed>0.0</speed>
  <fix>3d</fix>
</trkpt>
<trkpt lat="40.0713487" lon="-105.2298659">
  <ele>1582.97</ele>
  <time>2026-08-28T17:50:16Z</time>
  <course>231.45</course>
  <speed>0.03</speed>
  <fix>3d</fix>
</trkpt>
<trkpt lat="40.0713485" lon="-105.229866">
  <ele>1583.0</ele>
  <time>2026-08-28T17:50:16Z</time>
  <course>316.71</course>
  <speed>0.0</speed>
  <fix>3d</fix>
</trkpt>
<trkpt lat="40.0713487" lon="-105.2298659">
  <ele>1582.96</ele>
  <time>2026-08-28T17:50:16Z</time>
  <course>231.45</course>
  <speed>0.03</speed>
  <fix>3d</fix>
</trkpt>
<trkpt lat="40.0713485" lon="-105.229866">
  <ele>1583.0</ele>
  <time>2026-08-28T17:50:16Z</time>
  <course>316.71</course>
  <speed>0.0</speed>
  <fix>3d</fix>
</trkpt>
<trkpt lat="40.0713487" lon="-105.2298659">
  <ele>1582.96</ele>
  <time>2026-08-28T17:50:16Z</time>
  <course>231.45</course>
  <speed>0.03</speed>
  <fix>3d</fix>
</trkpt>
<trkpt lat="40.0713485" lon="-105.229866">
  <ele>1583.0</ele>
  <time>2026-08-28T17:50:16Z</time>
  <course>317.03</course>
  <speed>0.0</speed>
  <fix>3d</fix>
</trkpt>
<trkpt lat="40.0713487" lon="-105.2298659">
  <ele>1582.95</ele>
  <time>2026-08-28T17:50:16Z</time>
  <course>231.45</course>
  <speed>0.03</speed>
  <fix>3d</fix>
</trkpt>
<trkpt lat="40.0713485" lon="-105.229866">
  <ele>1583.0</ele>
  <time>2026-08-28T17:50:16Z</time>
  <course>317.03</course>
  <speed>0.0</speed>
  <fix>3d</fix>
</trkpt>
<trkpt lat="40.0713487" lon="-105.2298659">
  <ele>1582.94</ele>
  <time>2026-08-28T17:50:16Z</time>
  <course>231.45</course>
  <speed>0.03</speed>
  <fix>3d</fix>
</trkpt>
<trkpt lat="40.0713485" lon="-105.229866">
  <ele>1583.0</ele>
  <time>2026-08-28T17:50:16Z</time>
  <course>317.32</course>
  <speed>0.0</speed>
  <fix>3d</fix>
</trkpt>
<trkpt lat="40.0713487" lon="-105.2298659">
  <ele>1582.93</ele>
  <time>2026-08-28T17:50:16Z</time>
  <course>231.45</course>
  <speed>0.03</speed>
  <fix>3d</fix>
</trkpt>
<trkpt lat="40.0713485" lon="-105.229866">
  <ele>1583.0</ele>
  <time>2026-08-28T17:50:16Z</time>
  <course>317.32</course>
  <speed>0.0</speed>
  <fix>3d</fix>
</trkpt>
<trkpt lat="40.0713487" lon="-105.2298659">
  <ele>1582.92</ele>
  <time>2026-08-28T17:50:16Z</time>
  <course>231.45</course>
  <speed>0.03</speed>
  <fix>3d</fix>
</trkpt>
<trkpt lat="40.0713485" lon="-105.229866">
  <ele>1583.0</ele>
  <time>2026-08-28T17:50:16Z</time>
  <course>317.58</course>
  <speed>0.0</speed>
  <fix>3d</fix>
</trkpt>
<trkpt lat="40.0713487" lon="-105.2298659">
  <ele>1582.92</ele>
  <time>2026-08-28T17:50:16Z</time>
  <course>231.45</course>
  <speed>0.03</speed>
  <fix>3d</fix>
</trkpt>
<trkpt lat="40.0713485" lon="-105.229866">
  <ele>1583.0</ele>
  <time>2026-08-28T17:50:16Z</time>
  <course>317.58</course>
  <speed>0.0</speed>
  <fix>3d</fix>
</trkpt>
<trkpt lat="40.0713487" lon="-105.2298659">
  <ele>1582.91</ele>
  <time>2026-08-28T17:50:16Z</time>
  <course>231.45</course>
  <speed>0.03</speed>
  <fix>3d</fix>
</trkpt>
<trkpt lat="40.0713485" lon="-105.229866">
  <ele>1583.0</ele>
  <time>2026-08-28T17:50:16Z</time>
  <course>317.82</course>
  <speed>0.0</speed>
  <fix>3d</fix>
</trkpt>
<trkpt lat="40.0713487" lon="-105.2298659">
  <ele>1582.91</ele>
  <time>2026-08-28T17:50:16Z</time>
  <course>231.44</course>
  <speed>0.03</speed>
  <fix>3d</fix>
</trkpt>
<trkpt lat="40.0713485" lon="-105.229866">
  <ele>1583.0</ele>
  <time>2026-08-28T17:50:16Z</time>
  <course>317.82</course>
  <speed>0.0</speed>
  <fix>3d</fix>
</trkpt>
<trkpt lat="40.0713487" lon="-105.2298659">
  <ele>1582.91</ele>
  <time>2026-08-28T17:50:16Z</time>
  <course>231.44</course>
  <speed>0.03</speed>
  <fix>3d</fix>
</trkpt>
<trkpt lat="40.0713485" lon="-105.229866">
  <ele>1583.0</ele>
  <time>2026-08-28T17:50:16Z</time>
  <course>318.03</course>
  <speed>0.0</speed>
  <fix>3d</fix>
</trkpt>
<trkpt lat="40.0713487" lon="-105.2298659">
  <ele>1582.92</ele>
  <time>2026-08-28T17:50:16Z</time>
  <course>231.44</course>
  <speed>0.02</speed>
  <fix>3d</fix>
</trkpt>
<trkpt lat="40.0713485" lon="-105.229866">
  <ele>1583.0</ele>
  <time>2026-08-28T17:50:16Z</time>
  <course>318.03</course>
  <speed>0.0</speed>
  <fix>3d</fix>
</trkpt>
<trkpt lat="40.0713487" lon="-105.2298659">
  <ele>1582.93</ele>
  <time>2026-08-28T17:50:16Z</time>
  <course>231.44</course>
  <speed>0.03</speed>
  <fix>3d</fix>
</trkpt>
<trkpt lat="40.0713485" lon="-105.229866">
  <ele>1583.0</ele>
  <time>2026-08-28T17:50:16Z</time>
  <course>318.23</course>
  <speed>0.0</speed>
  <fix>3d</fix>
</trkpt>
<trkpt lat="40.0713487" lon="-105.2298659">
  <ele>1582.94</ele>
  <time>2026-08-28T17:50:16Z</time>
  <course>231.44</course>
  <speed>0.02</speed>
  <fix>3d</fix>
</trkpt>
<trkpt lat="40.0713485" lon="-105.229866">
  <ele>1583.0</ele>
  <time>2026-08-28T17:50:16Z</time>
  <course>318.23</course>
  <speed>0.0</speed>
  <fix>3d</fix>
</trkpt>
<trkpt lat="40.0713487" lon="-105.2298659">
  <ele>1582.95</ele>
  <time>2026-08-28T17:50:16Z</time>
  <course>231.44</course>
  <speed>0.03</speed>
  <fix>3d</fix>
</trkpt>
<trkpt lat="40.0713485" lon="-105.229866">
  <ele>1583.0</ele>
  <time>2026-08-28T17:50:16Z</time>
  <course>318.41</course>
  <speed>0.0</speed>
  <fix>3d</fix>
</trkpt>
<trkpt lat="40.0713487" lon="-105.2298659">
  <ele>1582.96</ele>
  <time>2026-08-28T17:50:16Z</time>
  <course>231.44</course>
  <speed>0.02</speed>
  <fix>3d</fix>
</trkpt>
<trkpt lat="40.0713485" lon="-105.229866">
  <ele>1583.0</ele>
  <time>2026-08-28T17:50:16Z</time>
  <course>318.41</course>
  <speed>0.0</speed>
  <fix>3d</fix>
</trkpt>
<trkpt lat="40.0713487" lon="-105.2298659">
  <ele>1582.98</ele>
  <time>2026-08-28T17:50:16Z</time>
  <course>231.44</course>
  <speed>0.03</speed>
  <fix>3d</fix>
</trkpt>
<trkpt lat="40.0713485" lon="-105.229866">
  <ele>1583.0</ele>
  <time>2026-08-28T17:50:16Z</time>
  <course>318.57</course>
  <speed>0.0</speed>
  <fix>3d</fix>
</trkpt>
<trkpt lat="40.0713487" lon="-105.2298659">
  <ele>1582.98</ele>
  <time>2026-08-28T17:50:16Z</time>
  <course>231.44</course>
  <speed>0.02</speed>
  <fix>3d</fix>
</trkpt>
<trkpt lat="40.0713485" lon="-105.229866">
  <ele>1583.0</ele>
  <time>2026-08-28T17:50:16Z</time>
  <course>318.57</course>
  <speed>0.0</speed>
  <fix>3d</fix>
</trkpt>
<trkpt lat="40.0713487" lon="-105.2298659">
  <ele>1582.99</ele>
  <time>2026-08-28T17:50:16Z</time>
  <course>231.44</course>
  <speed>0.03</speed>
  <fix>3d</fix>
</trkpt>
<trkpt lat="40.0713485" lon="-105.229866">
  <ele>1583.0</ele>
  <time>2026-08-28T17:50:16Z</time>
  <course>318.71</course>
  <speed>0.0</speed>
  <fix>3d</fix>
</trkpt>
<trkpt lat="40.0713487" lon="-105.2298659">
  <ele>1582.99</ele>
  <time>2026-08-28T17:50:16Z</time>
  <course>231.44</course>
  <speed>0.03</speed>
  <fix>3d</fix>
</trkpt>
<trkpt lat="40.0713485" lon="-105.229866">
  <ele>1583.0</ele>
  <time>2026-08-28T17:50:16Z</time>
  <course>318.71</course>
  <speed>0.0</speed>
  <fix>3d</fix>
</trkpt>
<trkpt lat="40.0713487" lon="-105.2298659">
  <ele>1583.0</ele>
  <time>2026-08-28T17:50:16Z</time>
  <course>231.44</course>
  <speed>0.03</speed>
  <fix>3d</fix>
</trkpt>
<trkpt lat="40.0713485" lon="-105.229866">
  <ele>1583.0</ele>
  <time>2026-08-28T17:50:16Z</time>
  <course>318.84</course>
  <speed>0.0</speed>
  <fix>3d</fix>
</trkpt>
<trkpt lat="40.0713487" lon="-105.2298659">
  <ele>1583.0</ele>
  <time>2026-08-28T17:50:17Z</time>
  <course>231.44</course>
  <speed>0.03</speed>
  <fix>3d</fix>
</trkpt>
<trkpt lat="40.0713485" lon="-105.229866">
  <ele>1583.0</ele>
  <time>2026-08-28T17:50:17Z</time>
  <course>318.84</course>
  <speed>0.0</speed>
  <fix>3d</fix>
</trkpt>
<trkpt lat="40.0713487" lon="-105.2298659">
  <ele>1583.01</ele>
  <time>2026-08-28T17:50:17Z</time>
  <course>231.44</course>
  <speed>0.03</speed>
  <fix>3d</fix>
</trkpt>
<trkpt lat="40.0713485" lon="-105.229866">
  <ele>1583.0</ele>
  <time>2026-08-28T17:50:17Z</time>
  <course>318.96</course>
  <speed>0.0</speed>
  <fix>3d</fix>
</trkpt>
<trkpt lat="40.0713487" lon="-105.2298659">
  <ele>1583.01</ele>
  <time>2026-08-28T17:50:17Z</time>
  <course>231.44</course>
  <speed>0.03</speed>
  <fix>3d</fix>
</trkpt>
<trkpt lat="40.0713485" lon="-105.229866">
  <ele>1583.0</ele>
  <time>2026-08-28T17:50:17Z</time>
  <course>318.96</course>
  <speed>0.0</speed>
  <fix>3d</fix>
</trkpt>
<trkpt lat="40.0713487" lon="-105.2298659">
  <ele>1583.01</ele>
  <time>2026-08-28T17:50:17Z</time>
  <course>231.44</course>
  <speed>0.03</speed>
  <fix>3d</fix>
</trkpt>
<trkpt lat="40.0713485" lon="-105.229866">
  <ele>1583.0</ele>
  <time>2026-08-28T17:50:17Z</time>
  <course>319.07</course>
  <speed>0.0</speed>
  <fix>3d</fix>
</trkpt>
<trkpt lat="40.0713487" lon="-105.2298659">
  <ele>1583.01</ele>
  <time>2026-08-28T17:50:17Z</time>
  <course>231.44</course>
  <speed>0.03</speed>
  <fix>3d</fix>
</trkpt>
<trkpt lat="40.0713485" lon="-105.229866">
  <ele>1583.0</ele>
  <time>2026-08-28T17:50:17Z</time>
  <course>319.07</course>
  <speed>0.0</speed>
  <fix>3d</fix>
</trkpt>
<trkpt lat="40.0713487" lon="-105.2298659">
  <ele>1583.02</ele>
  <time>2026-08-28T17:50:17Z</time>
  <course>231.44</course>
  <speed>0.03</speed>
  <fix>3d</fix>
</trkpt>
<trkpt lat="40.0713485" lon="-105.229866">
  <ele>1583.0</ele>
  <time>2026-08-28T17:50:17Z</time>
  <course>319.16</course>
  <speed>0.0</speed>
  <fix>3d</fix>
</trkpt>
<trkpt lat="40.0713487" lon="-105.2298659">
  <ele>1583.02</ele>
  <time>2026-08-28T17:50:17Z</time>
  <course>231.44</course>
  <speed>0.02</speed>
  <fix>3d</fix>
</trkpt>
<trkpt lat="40.0713485" lon="-105.229866">
  <ele>1583.0</ele>
  <time>2026-08-28T17:50:17Z</time>
  <course>319.16</course>
  <speed>0.0</speed>
  <fix>3d</fix>
</trkpt>
<trkpt lat="40.0713487" lon="-105.2298659">
  <ele>1583.02</ele>
  <time>2026-08-28T17:50:17Z</time>
  <course>231.44</course>
  <speed>0.03</speed>
  <fix>3d</fix>
</trkpt>
<trkpt lat="40.0713485" lon="-105.229866">
  <ele>1583.0</ele>
  <time>2026-08-28T17:50:17Z</time>
  <course>319.25</course>
  <speed>0.0</speed>
  <fix>3d</fix>
</trkpt>
<trkpt lat="40.0713487" lon="-105.2298659">
  <ele>1583.02</ele>
  <time>2026-08-28T17:50:17Z</time>
  <course>231.44</course>
  <speed>0.02</speed>
  <fix>3d</fix>
</trkpt>
<trkpt lat="40.0713485" lon="-105.229866">
  <ele>1583.0</ele>
  <time>2026-08-28T17:50:17Z</time>
  <course>319.25</course>
  <speed>0.0</speed>
  <fix>3d</fix>
</trkpt>
<trkpt lat="40.0713487" lon="-105.2298659">
  <ele>1583.02</ele>
  <time>2026-08-28T17:50:17Z</time>
  <course>231.44</course>
  <speed>0.02</speed>
  <fix>3d</fix>
</trkpt>
<trkpt lat="40.0713485" lon="-105.229866">
  <ele>1583.0</ele>
  <time>2026-08-28T17:50:17Z</time>
  <course>319.33</course>
  <speed>0.0</speed>
  <fix>3d</fix>
</trkpt>
<trkpt lat="40.0713487" lon="-105.2298659">
  <ele>1583.02</ele>
  <time>2026-08-28T17:50:17Z</time>
  <course>231.44</course>
  <speed>0.02</speed>
  <fix>3d</fix>
</trkpt>
<trkpt lat="40.0713485" lon="-105.229866">
  <ele>1583.0</ele>
  <time>2026-08-28T17:50:17Z</time>
  <course>319.33</course>
  <speed>0.0</speed>
  <fix>3d</fix>
</trkpt>
<trkpt lat="40.0713487" lon="-105.2298659">
  <ele>1583.01</ele>
  <time>2026-08-28T17:50:17Z</time>
  <course>231.44</course>
  <speed>0.02</speed>
  <fix>3d</fix>
</trkpt>
<trkpt lat="40.0713485" lon="-105.229866">
  <ele>1583.0</ele>
  <time>2026-08-28T17:50:17Z</time>
  <course>319.4</course>
  <speed>0.0</speed>
  <fix>3d</fix>
</trkpt>
<trkpt lat="40.0713487" lon="-105.2298659">
  <ele>1583.01</ele>
  <time>2026-08-28T17:50:17Z</time>
  <course>231.44</course>
  <speed>0.02</speed>
  <fix>3d</fix>
</trkpt>
<trkpt lat="40.0713485" lon="-105.229866">
  <ele>1583.0</ele>
  <time>2026-08-28T17:50:17Z</time>
  <course>319.4</course>
  <speed>0.0</speed>
  <fix>3d</fix>
</trkpt>
<trkpt lat="40.0713487" lon="-105.2298659">
  <ele>1583.01</ele>
  <time>2026-08-28T17:50:17Z</time>
  <course>231.44</course>
  <speed>0.02</speed>
  <fix>3d</fix>
</trkpt>
<trkpt lat="40.0713485" lon="-105.229866">
  <ele>1583.0</ele>
  <time>2026-08-28T17:50:17Z</time>
  <course>319.47</course>
  <speed>0.0</speed>
  <fix>3d</fix>
</trkpt>
<trkpt lat="40.0713487" lon="-105.2298659">
  <ele>1583.0</ele>
  <time>2026-08-28T17:50:17Z</time>
  <course>231.44</course>
  <speed>0.02</speed>
  <fix>3d</fix>
</trkpt>
<trkpt lat="40.0713485" lon="-105.229866">
  <ele>1583.0</ele>
  <time>2026-08-28T17:50:17Z</time>
  <course>319.47</course>
  <speed>0.0</speed>
  <fix>3d</fix>
</trkpt>
<trkpt lat="40.0713487" lon="-105.2298659">
  <ele>1583.0</ele>
  <time>2026-08-28T17:50:17Z</time>
  <course>231.43</course>
  <speed>0.02</speed>
  <fix>3d</fix>
</trkpt>
<trkpt lat="40.0713485" lon="-105.229866">
  <ele>1583.0</ele>
  <time>2026-08-28T17:50:17Z</time>
  <course>319.53</course>
  <speed>0.0</speed>
  <fix>3d</fix>
</trkpt>
<trkpt lat="40.0713487" lon="-105.2298659">
  <ele>1582.99</ele>
  <time>2026-08-28T17:50:17Z</time>
  <course>231.43</course>
  <speed>0.02</speed>
  <fix>3d</fix>
</trkpt>
<trkpt lat="40.0713485" lon="-105.229866">
  <ele>1583.0</ele>
  <time>2026-08-28T17:50:17Z</time>
  <course>319.53</course>
  <speed>0.0</speed>
  <fix>3d</fix>
</trkpt>
<trkpt lat="40.0713487" lon="-105.2298659">
  <ele>1582.99</ele>
  <time>2026-08-28T17:50:17Z</time>
  <course>231.43</course>
  <speed>0.02</speed>
  <fix>3d</fix>
</trkpt>
<trkpt lat="40.0713485" lon="-105.229866">
  <ele>1583.0</ele>
  <time>2026-08-28T17:50:17Z</time>
  <course>319.58</course>
  <speed>0.0</speed>
  <fix>3d</fix>
</trkpt>
<trkpt lat="40.0713487" lon="-105.2298659">
  <ele>1582.98</ele>
  <time>2026-08-28T17:50:17Z</time>
  <course>231.43</course>
  <speed>0.02</speed>
  <fix>3d</fix>
</trkpt>
<trkpt lat="40.0713485" lon="-105.229866">
  <ele>1583.0</ele>
  <time>2026-08-28T17:50:17Z</time>
  <course>319.58</course>
  <speed>0.0</speed>
  <fix>3d</fix>
</trkpt>
<trkpt lat="40.0713487" lon="-105.2298659">
  <ele>1582.98</ele>
  <time>2026-08-28T17:50:17Z</time>
  <course>231.43</course>
  <speed>0.02</speed>
  <fix>3d</fix>
</trkpt>
<trkpt lat="40.0713485" lon="-105.229866">
  <ele>1583.0</ele>
  <time>2026-08-28T17:50:17Z</time>
  <course>319.63</course>
  <speed>0.0</speed>
  <fix>3d</fix>
</trkpt>
<trkpt lat="40.0713487" lon="-105.2298659">
  <ele>1582.97</ele>
  <time>2026-08-28T17:50:17Z</time>
  <course>231.43</course>
  <speed>0.02</speed>
  <fix>3d</fix>
</trkpt>
<trkpt lat="40.0713485" lon="-105.229866">
  <ele>1583.0</ele>
  <time>2026-08-28T17:50:17Z</time>
  <course>319.63</course>
  <speed>0.0</speed>
  <fix>3d</fix>
</trkpt>
<trkpt lat="40.0713487" lon="-105.2298659">
  <ele>1582.97</ele>
  <time>2026-08-28T17:50:17Z</time>
  <course>231.43</course>
  <speed>0.03</speed>
  <fix>3d</fix>
</trkpt>
<trkpt lat="40.0713485" lon="-105.229866">
  <ele>1583.0</ele>
  <time>2026-08-28T17:50:17Z</time>
  <course>319.67</course>
  <speed>0.0</speed>
  <fix>3d</fix>
</trkpt>
<trkpt lat="40.0713487" lon="-105.2298659">
  <ele>1582.97</ele>
  <time>2026-08-28T17:50:17Z</time>
  <course>231.43</course>
  <speed>0.02</speed>
  <fix>3d</fix>
</trkpt>
<trkpt lat="40.0713485" lon="-105.229866">
  <ele>1583.0</ele>
  <time>2026-08-28T17:50:17Z</time>
  <course>319.67</course>
  <speed>0.0</speed>
  <fix>3d</fix>
</trkpt>
<trkpt lat="40.0713487" lon="-105.2298659">
  <ele>1582.96</ele>
  <time>2026-08-28T17:50:17Z</time>
  <course>231.43</course>
  <speed>0.03</speed>
  <fix>3d</fix>
</trkpt>
<trkpt lat="40.0713485" lon="-105.229866">
  <ele>1583.0</ele>
  <time>2026-08-28T17:50:17Z</time>
  <course>319.71</course>
  <speed>0.0</speed>
  <fix>3d</fix>
</trkpt>
<trkpt lat="40.0713487" lon="-105.2298659">
  <ele>1582.96</ele>
  <time>2026-08-28T17:50:17Z</time>
  <course>231.43</course>
  <speed>0.02</speed>
  <fix>3d</fix>
</trkpt>
<trkpt lat="40.0713485" lon="-105.229866">
  <ele>1583.0</ele>
  <time>2026-08-28T17:50:17Z</time>
  <course>319.71</course>
  <speed>0.0</speed>
  <fix>3d</fix>
</trkpt>
<trkpt lat="40.0713487" lon="-105.2298659">
  <ele>1582.95</ele>
  <time>2026-08-28T17:50:17Z</time>
  <course>231.43</course>
  <speed>0.03</speed>
  <fix>3d</fix>
</trkpt>
<trkpt lat="40.0713485" lon="-105.229866">
  <ele>1583.0</ele>
  <time>2026-08-28T17:50:17Z</time>
  <course>319.75</course>
  <speed>0.0</speed>
  <fix>3d</fix>
</trkpt>
<trkpt lat="40.0713487" lon="-105.2298659">
  <ele>1582.95</ele>
  <time>2026-08-28T17:50:17Z</time>
  <course>231.43</course>
  <speed>0.02</speed>
  <fix>3d</fix>
</trkpt>
<trkpt lat="40.0713485" lon="-105.229866">
  <ele>1583.0</ele>
  <time>2026-08-28T17:50:17Z</time>
  <course>319.75</course>
  <speed>0.0</speed>
  <fix>3d</fix>
</trkpt>
<trkpt lat="40.0713487" lon="-105.2298659">
  <ele>1582.95</ele>
  <time>2026-08-28T17:50:17Z</time>
  <course>231.43</course>
  <speed>0.02</speed>
  <fix>3d</fix>
</trkpt>
<trkpt lat="40.0713485" lon="-105.229866">
  <ele>1583.0</ele>
  <time>2026-08-28T17:50:17Z</time>
  <course>319.78</course>
  <speed>0.0</speed>
  <fix>3d</fix>
</trkpt>
<trkpt lat="40.0713487" lon="-105.2298659">
  <ele>1582.95</ele>
  <time>2026-08-28T17:50:17Z</time>
  <course>231.43</course>
  <speed>0.02</speed>
  <fix>3d</fix>
</trkpt>
<trkpt lat="40.0713485" lon="-105.229866">
  <ele>1583.0</ele>
  <time>2026-08-28T17:50:17Z</time>
  <course>319.78</course>
  <speed>0.0</speed>
  <fix>3d</fix>
</trkpt>
<trkpt lat="40.0713487" lon="-105.2298659">
  <ele>1582.95</ele>
  <time>2026-08-28T17:50:17Z</time>
  <course>231.43</course>
  <speed>0.02</speed>
  <fix>3d</fix>
</trkpt>
<trkpt lat="40.0713485" lon="-105.229866">
  <ele>1583.0</ele>
  <time>2026-08-28T17:50:17Z</time>
  <course>319.81</course>
  <speed>0.0</speed>
  <fix>3d</fix>
</trkpt>
<trkpt lat="40.0713487" lon="-105.2298659">
  <ele>1582.95</ele>
  <time>2026-08-28T17:50:17Z</time>
  <course>231.43</course>
  <speed>0.02</speed>
  <fix>3d</fix>
</trkpt>
<trkpt lat="40.0713485" lon="-105.229866">
  <ele>1583.0</ele>
  <time>2026-08-28T17:50:17Z</time>
  <course>319.81</course>
  <speed>0.0</speed>
  <fix>3d</fix>
</trkpt>
<trkpt lat="40.0713487" lon="-105.2298659">
  <ele>1582.95</ele>
  <time>2026-08-28T17:50:17Z</time>
  <course>231.43</course>
  <speed>0.02</speed>
  <fix>3d</fix>
</trkpt>
<trkpt lat="40.0713485" lon="-105.229866">
  <ele>1583.0</ele>
  <time>2026-08-28T17:50:17Z</time>
  <course>319.84</course>
  <speed>0.0</speed>
  <fix>3d</fix>
</trkpt>
<trkpt lat="40.0713487" lon="-105.2298659">
  <ele>1582.97</ele>
  <time>2026-08-28T17:50:17Z</time>
  <course>231.43</course>
  <speed>0.02</speed>
  <fix>3d</fix>
</trkpt>
<trkpt lat="40.0713485" lon="-105.229866">
  <ele>1583.0</ele>
  <time>2026-08-28T17:50:17Z</time>
  <course>319.88</course>
  <speed>0.0</speed>
  <fix>3d</fix>
</trkpt>
<trkpt lat="40.0713487" lon="-105.2298659">
  <ele>1582.98</ele>
  <time>2026-08-28T17:50:17Z</time>
  <course>231.43</course>
  <speed>0.02</speed>
  <fix>3d</fix>
</trkpt>
<trkpt lat="40.0713485" lon="-105.229866">
  <ele>1583.0</ele>
  <time>2026-08-28T17:50:17Z</time>
  <course>319.9</course>
  <speed>0.0</speed>
  <fix>3d</fix>
</trkpt>
<trkpt lat="40.0713487" lon="-105.2298659">
  <ele>1582.97</ele>
  <time>2026-08-28T17:50:17Z</time>
  <course>231.43</course>
  <speed>0.02</speed>
  <fix>3d</fix>
</trkpt>
<trkpt lat="40.0713485" lon="-105.229866">
  <ele>1583.0</ele>
  <time>2026-08-28T17:50:17Z</time>
  <course>319.92</course>
  <speed>0.0</speed>
  <fix>3d</fix>
</trkpt>
<trkpt lat="40.0713487" lon="-105.2298659">
  <ele>1582.97</ele>
  <time>2026-08-28T17:50:17Z</time>
  <course>231.43</course>
  <speed>0.02</speed>
  <fix>3d</fix>
</trkpt>
<trkpt lat="40.0713485" lon="-105.229866">
  <ele>1583.0</ele>
  <time>2026-08-28T17:50:17Z</time>
  <course>319.92</course>
  <speed>0.0</speed>
  <fix>3d</fix>
</trkpt>
<trkpt lat="40.0713487" lon="-105.2298659">
  <ele>1582.97</ele>
  <time>2026-08-28T17:50:17Z</time>
  <course>231.43</course>
  <speed>0.02</speed>
  <fix>3d</fix>
</trkpt>
<trkpt lat="40.0713485" lon="-105.229866">
  <ele>1583.0</ele>
  <time>2026-08-28T17:50:17Z</time>
  <course>319.92</course>
  <speed>0.0</speed>
  <fix>3d</fix>
</trkpt>
<trkpt lat="40.0713487" lon="-105.2298659">
  <ele>1582.96</ele>
  <time>2026-08-28T17:50:17Z</time>
  <course>231.43</course>
  <speed>0.02</speed>
  <fix>3d</fix>
</trkpt>
<trkpt lat="40.0713485" lon="-105.229866">
  <ele>1583.0</ele>
  <time>2026-08-28T17:50:17Z</time>
  <course>319.93</course>
  <speed>0.0</speed>
  <fix>3d</fix>
</trkpt>
<trkpt lat="40.0713487" lon="-105.2298659">
  <ele>1582.95</ele>
  <time>2026-08-28T17:50:17Z</time>
  <course>231.42</course>
  <speed>0.02</speed>
  <fix>3d</fix>
</trkpt>
<trkpt lat="40.0713485" lon="-105.229866">
  <ele>1583.0</ele>
  <time>2026-08-28T17:50:17Z</time>
  <course>319.95</course>
  <speed>0.0</speed>
  <fix>3d</fix>
</trkpt>
<trkpt lat="40.0713487" lon="-105.2298659">
  <ele>1582.94</ele>
  <time>2026-08-28T17:50:17Z</time>
  <course>231.42</course>
  <speed>0.02</speed>
  <fix>3d</fix>
</trkpt>
<trkpt lat="40.0713485" lon="-105.229866">
  <ele>1583.0</ele>
  <time>2026-08-28T17:50:17Z</time>
  <course>319.95</course>
  <speed>0.0</speed>
  <fix>3d</fix>
</trkpt>
<trkpt lat="40.0713487" lon="-105.2298659">
  <ele>1582.94</ele>
  <time>2026-08-28T17:50:17Z</time>
  <course>231.42</course>
  <speed>0.02</speed>
  <fix>3d</fix>
</trkpt>
<trkpt lat="40.0713485" lon="-105.229866">
  <ele>1583.0</ele>
  <time>2026-08-28T17:50:17Z</time>
  <course>319.96</course>
  <speed>0.0</speed>
  <fix>3d</fix>
</trkpt>
<trkpt lat="40.0713487" lon="-105.2298659">
  <ele>1582.94</ele>
  <time>2026-08-28T17:50:17Z</time>
  <course>231.42</course>
  <speed>0.02</speed>
  <fix>3d</fix>
</trkpt>
<trkpt lat="40.0713485" lon="-105.229866">
  <ele>1583.0</ele>
  <time>2026-08-28T17:50:17Z</time>
  <course>319.96</course>
  <speed>0.0</speed>
  <fix>3d</fix>
</trkpt>
<trkpt lat="40.0713487" lon="-105.2298659">
  <ele>1582.94</ele>
  <time>2026-08-28T17:50:17Z</time>
  <course>231.42</course>
  <speed>0.02</speed>
  <fix>3d</fix>
</trkpt>
<trkpt lat="40.0713485" lon="-105.229866">
  <ele>1583.0</ele>
  <time>2026-08-28T17:50:17Z</time>
  <course>319.97</course>
  <speed>0.0</speed>
  <fix>3d</fix>
</trkpt>
<trkpt lat="40.0713487" lon="-105.2298659">
  <ele>1582.94</ele>
  <time>2026-08-28T17:50:17Z</time>
  <course>231.42</course>
  <speed>0.02</speed>
  <fix>3d</fix>
</trkpt>
<trkpt lat="40.0713485" lon="-105.229866">
  <ele>1583.0</ele>
  <time>2026-08-28T17:50:17Z</time>
  <course>319.98</course>
  <speed>0.0</speed>
  <fix>3d</fix>
</trkpt>
<trkpt lat="40.0713487" lon="-105.2298659">
  <ele>1582.95</ele>
  <time>2026-08-28T17:50:17Z</time>
  <course>231.42</course>
  <speed>0.02</speed>
  <fix>3d</fix>
</trkpt>
<trkpt lat="40.0713485" lon="-105.229866">
  <ele>1583.0</ele>
  <time>2026-08-28T17:50:17Z</time>
  <course>319.98</course>
  <speed>0.0</speed>
  <fix>3d</fix>
</trkpt>
<trkpt lat="40.0713487" lon="-105.2298659">
  <ele>1582.96</ele>
  <time>2026-08-28T17:50:17Z</time>
  <course>231.42</course>
  <speed>0.02</speed>
  <fix>3d</fix>
</trkpt>
<trkpt lat="40.0713485" lon="-105.229866">
  <ele>1583.0</ele>
  <time>2026-08-28T17:50:17Z</time>
  <course>319.99</course>
  <speed>0.0</speed>
  <fix>3d</fix>
</trkpt>
<trkpt lat="40.0713487" lon="-105.2298659">
  <ele>1582.96</ele>
  <time>2026-08-28T17:50:17Z</time>
  <course>231.42</course>
  <speed>0.02</speed>
  <fix>3d</fix>
</trkpt>
<trkpt lat="40.0713485" lon="-105.229866">
  <ele>1583.0</ele>
  <time>2026-08-28T17:50:17Z</time>
  <course>319.99</course>
  <speed>0.0</speed>
  <fix>3d</fix>
</trkpt>
<trkpt lat="40.0713487" lon="-105.2298659">
  <ele>1582.97</ele>
  <time>2026-08-28T17:50:17Z</time>
  <course>231.42</course>
  <speed>0.02</speed>
  <fix>3d</fix>
</trkpt>
<trkpt lat="40.0713485" lon="-105.229866">
  <ele>1583.0</ele>
  <time>2026-08-28T17:50:17Z</time>
  <course>320.0</course>
  <speed>0.0</speed>
  <fix>3d</fix>
</trkpt>
<trkpt lat="40.0713487" lon="-105.2298659">
  <ele>1582.98</ele>
  <time>2026-08-28T17:50:17Z</time>
  <course>231.42</course>
  <speed>0.02</speed>
  <fix>3d</fix>
</trkpt>
<trkpt lat="40.0713485" lon="-105.229866">
  <ele>1583.0</ele>
  <time>2026-08-28T17:50:17Z</time>
  <course>320.0</course>
  <speed>0.0</speed>
  <fix>3d</fix>
</trkpt>
<trkpt lat="40.0713487" lon="-105.2298659">
  <ele>1582.98</ele>
  <time>2026-08-28T17:50:17Z</time>
  <course>231.42</course>
  <speed>0.02</speed>
  <fix>3d</fix>
</trkpt>
<trkpt lat="40.0713485" lon="-105.229866">
  <ele>1583.0</ele>
  <time>2026-08-28T17:50:17Z</time>
  <course>320.01</course>
  <speed>0.0</speed>
  <fix>3d</fix>
</trkpt>
<trkpt lat="40.0713487" lon="-105.2298659">
  <ele>1582.99</ele>
  <time>2026-08-28T17:50:17Z</time>
  <course>231.42</course>
  <speed>0.02</speed>
  <fix>3d</fix>
</trkpt>
<trkpt lat="40.0713485" lon="-105.229866">
  <ele>1583.0</ele>
  <time>2026-08-28T17:50:17Z</time>
  <course>320.01</course>
  <speed>0.0</speed>
  <fix>3d</fix>
</trkpt>
<trkpt lat="40.0713487" lon="-105.2298659">
  <ele>1582.99</ele>
  <time>2026-08-28T17:50:17Z</time>
  <course>231.42</course>
  <speed>0.02</speed>
  <fix>3d</fix>
</trkpt>
<trkpt lat="40.0713485" lon="-105.229866">
  <ele>1583.0</ele>
  <time>2026-08-28T17:50:17Z</time>
  <course>320.02</course>
  <speed>0.0</speed>
  <fix>3d</fix>
</trkpt>
<trkpt lat="40.0713487" lon="-105.2298659">
  <ele>1582.99</ele>
  <time>2026-08-28T17:50:17Z</time>
  <course>231.42</course>
  <speed>0.02</speed>
  <fix>3d</fix>
</trkpt>
<trkpt lat="40.0713485" lon="-105.229866">
  <ele>1583.0</ele>
  <time>2026-08-28T17:50:17Z</time>
  <course>320.02</course>
  <speed>0.0</speed>
  <fix>3d</fix>
</trkpt>
<trkpt lat="40.0713487" lon="-105.2298659">
  <ele>1583.0</ele>
  <time>2026-08-28T17:50:17Z</time>
  <course>231.42</course>
  <speed>0.02</speed>
  <fix>3d</fix>
</trkpt>
<trkpt lat="40.0713485" lon="-105.229866">
  <ele>1583.0</ele>
  <time>2026-08-28T17:50:17Z</time>
  <course>320.02</course>
  <speed>0.0</speed>
  <fix>3d</fix>
</trkpt>
<trkpt lat="40.0713487" lon="-105.2298659">
  <ele>1583.0</ele>
  <time>2026-08-28T17:50:17Z</time>
  <course>231.42</course>
  <speed>0.02</speed>
  <fix>3d</fix>
</trkpt>
<trkpt lat="40.0713485" lon="-105.229866">
  <ele>1583.0</ele>
  <time>2026-08-28T17:50:17Z</time>
  <course>320.02</course>
  <speed>0.0</speed>
  <fix>3d</fix>
</trkpt>
<trkpt lat="40.0713487" lon="-105.2298659">
  <ele>1583.0</ele>
  <time>2026-08-28T17:50:17Z</time>
  <course>231.42</course>
  <speed>0.02</speed>
  <fix>3d</fix>
</trkpt>
<trkpt lat="40.0713485" lon="-105.229866">
  <ele>1583.0</ele>
  <time>2026-08-28T17:50:17Z</time>
  <course>320.03</course>
  <speed>0.0</speed>
  <fix>3d</fix>
</trkpt>
<trkpt lat="40.0713487" lon="-105.2298659">
  <ele>1583.0</ele>
  <time>2026-08-28T17:50:17Z</time>
  <course>231.42</course>
  <speed>0.02</speed>
  <fix>3d</fix>
</trkpt>
<trkpt lat="40.0713485" lon="-105.229866">
  <ele>1583.0</ele>
  <time>2026-08-28T17:50:17Z</time>
  <course>320.03</course>
  <speed>0.0</speed>
  <fix>3d</fix>
</trkpt>
<trkpt lat="40.0713487" lon="-105.2298659">
  <ele>1583.0</ele>
  <time>2026-08-28T17:50:17Z</time>
  <course>231.42</course>
  <speed>0.02</speed>
  <fix>3d</fix>
</trkpt>
<trkpt lat="40.0713485" lon="-105.229866">
  <ele>1583.0</ele>
  <time>2026-08-28T17:50:17Z</time>
  <course>320.03</course>
  <speed>0.0</speed>
  <fix>3d</fix>
</trkpt>
<trkpt lat="40.0713487" lon="-105.2298659">
  <ele>1583.0</ele>
  <time>2026-08-28T17:50:17Z</time>
  <course>231.42</course>
  <speed>0.02</speed>
  <fix>3d</fix>
</trkpt>
<trkpt lat="40.0713485" lon="-105.229866">
  <ele>1583.0</ele>
  <time>2026-08-28T17:50:17Z</time>
  <course>320.04</course>
  <speed>0.0</speed>
  <fix>3d</fix>
</trkpt>
<trkpt lat="39.655741" lon="-104.1383097">
  <ele>1566.58</ele>
  <time>2026-08-28T17:50:17Z</time>
  <course>0.0</course>
  <speed>0.0</speed>
  <fix>3d</fix>
</trkpt>
<trkpt lat="40.0713749" lon="-105.229789">
  <ele>1583.0</ele>
  <time>2026-08-28T17:50:17Z</time>
  <course>0.0</course>
  <speed>0.0</speed>
  <fix>3d</fix>
</trkpt>
<trkpt lat="40.0713749" lon="-105.229789">
  <ele>1583.0</ele>
  <time>2026-08-28T17:50:17Z</time>
  <course>238.36</course>
  <speed>0.0</speed>
  <fix>3d</fix>
</trkpt>
<trkpt lat="40.0713749" lon="-105.229789">
  <ele>1583.0</ele>
  <time>2026-08-28T17:50:17Z</time>
  <course>0.0</course>
  <speed>0.0</speed>
  <fix>3d</fix>
</trkpt>
<trkpt lat="40.0713749" lon="-105.229789">
  <ele>1583.0</ele>
  <time>2026-08-28T17:50:17Z</time>
  <course>238.44</course>
  <speed>0.0</speed>
  <fix>3d</fix>
</trkpt>
<trkpt lat="40.0713749" lon="-105.229789">
  <ele>1583.0</ele>
  <time>2026-08-28T17:50:17Z</time>
  <course>0.0</course>
  <speed>0.0</speed>
  <fix>3d</fix>
</trkpt>
<trkpt lat="40.0713749" lon="-105.229789">
  <ele>1583.0</ele>
  <time>2026-08-28T17:50:17Z</time>
  <course>238.64</course>
  <speed>0.0</speed>
  <fix>3d</fix>
</trkpt>
<trkpt lat="40.0713749" lon="-105.229789">
  <ele>1583.0</ele>
  <time>2026-08-28T17:50:17Z</time>
  <course>0.0</course>
  <speed>0.0</speed>
  <fix>3d</fix>
</trkpt>
<trkpt lat="40.0713749" lon="-105.229789">
  <ele>1583.0</ele>
  <time>2026-08-28T17:50:17Z</time>
  <course>238.93</course>
  <speed>0.0</speed>
  <fix>3d</fix>
</trkpt>
<trkpt lat="40.0713749" lon="-105.229789">
  <ele>1583.0</ele>
  <time>2026-08-28T17:50:17Z</time>
  <course>0.0</course>
  <speed>0.0</speed>
  <fix>3d</fix>
</trkpt>
<trkpt lat="40.0713749" lon="-105.229789">
  <ele>1583.0</ele>
  <time>2026-08-28T17:50:17Z</time>
  <course>239.26</course>
  <speed>0.0</speed>
  <fix>3d</fix>
</trkpt>
<trkpt lat="40.0713749" lon="-105.229789">
  <ele>1583.0</ele>
  <time>2026-08-28T17:50:17Z</time>
  <course>0.0</course>
  <speed>0.0</speed>
  <fix>3d</fix>
</trkpt>
<trkpt lat="40.0713749" lon="-105.229789">
  <ele>1583.0</ele>
  <time>2026-08-28T17:50:17Z</time>
  <course>239.61</course>
  <speed>0.0</speed>
  <fix>3d</fix>
</trkpt>
<trkpt lat="40.0713749" lon="-105.229789">
  <ele>1583.0</ele>
  <time>2026-08-28T17:50:17Z</time>
  <course>0.0</course>
  <speed>0.0</speed>
  <fix>3d</fix>
</trkpt>
<trkpt lat="40.0713749" lon="-105.229789">
  <ele>1583.0</ele>
  <time>2026-08-28T17:50:17Z</time>
  <course>239.96</course>
  <speed>0.0</speed>
  <fix>3d</fix>
</trkpt>
<trkpt lat="40.0713749" lon="-105.229789">
  <ele>1583.0</ele>
  <time>2026-08-28T17:50:17Z</time>
  <course>0.0</course>
  <speed>0.0</speed>
  <fix>3d</fix>
</trkpt>
<trkpt lat="40.0713749" lon="-105.229789">
  <ele>1583.0</ele>
  <time>2026-08-28T17:50:17Z</time>
  <course>240.29</course>
  <speed>0.0</speed>
  <fix>3d</fix>
</trkpt>
<trkpt lat="40.0713749" lon="-105.229789">
  <ele>1583.0</ele>
  <time>2026-08-28T17:50:17Z</time>
  <course>0.0</course>
  <speed>0.0</speed>
  <fix>3d</fix>
</trkpt>
<trkpt lat="40.0713749" lon="-105.229789">
  <ele>1583.0</ele>
  <time>2026-08-28T17:50:17Z</time>
  <course>240.61</course>
  <speed>0.0</speed>
  <fix>3d</fix>
</trkpt>
<trkpt lat="40.0713749" lon="-105.229789">
  <ele>1583.0</ele>
  <time>2026-08-28T17:50:17Z</time>
  <course>0.0</course>
  <speed>0.0</speed>
  <fix>3d</fix>
</trkpt>
<trkpt lat="40.0713749" lon="-105.229789">
  <ele>1583.0</ele>
  <time>2026-08-28T17:50:17Z</time>
  <course>240.92</course>
  <speed>0.0</speed>
  <fix>3d</fix>
</trkpt>
<trkpt lat="40.0713749" lon="-105.229789">
  <ele>1583.0</ele>
  <time>2026-08-28T17:50:17Z</time>
  <course>0.0</course>
  <speed>0.0</speed>
  <fix>3d</fix>
</trkpt>
<trkpt lat="40.0713749" lon="-105.229789">
  <ele>1583.0</ele>
  <time>2026-08-28T17:50:17Z</time>
  <course>241.21</course>
  <speed>0.0</speed>
  <fix>3d</fix>
</trkpt>
<trkpt lat="40.0713749" lon="-105.229789">
  <ele>1583.0</ele>
  <time>2026-08-28T17:50:17Z</time>
  <course>0.0</course>
  <speed>0.0</speed>
  <fix>3d</fix>
</trkpt>
<trkpt lat="40.0713749" lon="-105.229789">
  <ele>1583.0</ele>
  <time>2026-08-28T17:50:17Z</time>
  <course>241.49</course>
  <speed>0.0</speed>
  <fix>3d</fix>
</trkpt>
<trkpt lat="40.0713749" lon="-105.229789">
  <ele>1583.0</ele>
  <time>2026-08-28T17:50:17Z</time>
  <course>0.0</course>
  <speed>0.0</speed>
  <fix>3d</fix>
</trkpt>
<trkpt lat="40.0713749" lon="-105.229789">
  <ele>1583.0</ele>
  <time>2026-08-28T17:50:17Z</time>
  <course>241.77</course>
  <speed>0.0</speed>
  <fix>3d</fix>
</trkpt>
<trkpt lat="40.0713749" lon="-105.229789">
  <ele>1583.0</ele>
  <time>2026-08-28T17:50:17Z</time>
  <course>0.0</course>
  <speed>0.0</speed>
  <fix>3d</fix>
</trkpt>
<trkpt lat="40.0713749" lon="-105.229789">
  <ele>1583.0</ele>
  <time>2026-08-28T17:50:17Z</time>
  <course>242.03</course>
  <speed>0.0</speed>
  <fix>3d</fix>
</trkpt>
<trkpt lat="40.0713749" lon="-105.229789">
  <ele>1583.0</ele>
  <time>2026-08-28T17:50:17Z</time>
  <course>0.0</course>
  <speed>0.0</speed>
  <fix>3d</fix>
</trkpt>
<trkpt lat="40.0713749" lon="-105.229789">
  <ele>1583.0</ele>
  <time>2026-08-28T17:50:17Z</time>
  <course>242.29</course>
  <speed>0.0</speed>
  <fix>3d</fix>
</trkpt>
<trkpt lat="40.0713749" lon="-105.229789">
  <ele>1583.0</ele>
  <time>2026-08-28T17:50:17Z</time>
  <course>0.0</course>
  <speed>0.0</speed>
  <fix>3d</fix>
</trkpt>
<trkpt lat="40.0713749" lon="-105.229789">
  <ele>1583.0</ele>
  <time>2026-08-28T17:50:17Z</time>
  <course>242.54</course>
  <speed>0.0</speed>
  <fix>3d</fix>
</trkpt>
<trkpt lat="40.0713749" lon="-105.229789">
  <ele>1583.0</ele>
  <time>2026-08-28T17:50:17Z</time>
  <course>0.0</course>
  <speed>0.0</speed>
  <fix>3d</fix>
</trkpt>
<trkpt lat="40.0713749" lon="-105.229789">
  <ele>1583.0</ele>
  <time>2026-08-28T17:50:17Z</time>
  <course>242.79</course>
  <speed>0.0</speed>
  <fix>3d</fix>
</trkpt>
<trkpt lat="40.0713749" lon="-105.229789">
  <ele>1583.0</ele>
  <time>2026-08-28T17:50:17Z</time>
  <course>0.0</course>
  <speed>0.0</speed>
  <fix>3d</fix>
</trkpt>
<trkpt lat="40.0713749" lon="-105.229789">
  <ele>1583.0</ele>
  <time>2026-08-28T17:50:17Z</time>
  <course>243.02</course>
  <speed>0.0</speed>
  <fix>3d</fix>
</trkpt>
<trkpt lat="40.0713749" lon="-105.229789">
  <ele>1583.0</ele>
  <time>2026-08-28T17:50:17Z</time>
  <course>0.0</course>
  <speed>0.0</speed>
  <fix>3d</fix>
</trkpt>
<trkpt lat="40.0713749" lon="-105.229789">
  <ele>1583.0</ele>
  <time>2026-08-28T17:50:17Z</time>
  <course>243.25</course>
  <speed>0.0</speed>
  <fix>3d</fix>
</trkpt>
<trkpt lat="40.0713749" lon="-105.229789">
  <ele>1583.0</ele>
  <time>2026-08-28T17:50:17Z</time>
  <course>0.0</course>
  <speed>0.0</speed>
  <fix>3d</fix>
</trkpt>
<trkpt lat="40.0713749" lon="-105.229789">
  <ele>1583.0</ele>
  <time>2026-08-28T17:50:17Z</time>
  <course>243.47</course>
  <speed>0.0</speed>
  <fix>3d</fix>
</trkpt>
<trkpt lat="40.0713749" lon="-105.229789">
  <ele>1583.0</ele>
  <time>2026-08-28T17:50:17Z</time>
  <course>0.0</course>
  <speed>0.0</speed>
  <fix>3d</fix>
</trkpt>
<trkpt lat="40.0713749" lon="-105.229789">
  <ele>1583.0</ele>
  <time>2026-08-28T17:50:17Z</time>
  <course>243.68</course>
  <speed>0.0</speed>
  <fix>3d</fix>
</trkpt>
<trkpt lat="40.0713749" lon="-105.229789">
  <ele>1583.0</ele>
  <time>2026-08-28T17:50:17Z</time>
  <course>0.0</course>
  <speed>0.0</speed>
  <fix>3d</fix>
</trkpt>
<trkpt lat="40.0713749" lon="-105.229789">
  <ele>1583.0</ele>
  <time>2026-08-28T17:50:17Z</time>
  <course>243.89</course>
  <speed>0.0</speed>
  <fix>3d</fix>
</trkpt>
<trkpt lat="40.0713749" lon="-105.229789">
  <ele>1583.0</ele>
  <time>2026-08-28T17:50:17Z</time>
  <course>0.0</course>
  <speed>0.0</speed>
  <fix>3d</fix>
</trkpt>
<trkpt lat="40.0713749" lon="-105.229789">
  <ele>1583.0</ele>
  <time>2026-08-28T17:50:17Z</time>
  <course>244.09</course>
  <speed>0.0</speed>
  <fix>3d</fix>
</trkpt>
<trkpt lat="40.0713749" lon="-105.229789">
  <ele>1583.0</ele>
  <time>2026-08-28T17:50:17Z</time>
  <course>0.0</course>
  <speed>0.0</speed>
  <fix>3d</fix>
</trkpt>
<trkpt lat="40.0713749" lon="-105.229789">
  <ele>1583.0</ele>
  <time>2026-08-28T17:50:17Z</time>
  <course>244.28</course>
  <speed>0.0</speed>
  <fix>3d</fix>
</trkpt>
<trkpt lat="40.0713749" lon="-105.229789">
  <ele>1583.0</ele>
  <time>2026-08-28T17:50:17Z</time>
  <course>0.0</course>
  <speed>0.0</speed>
  <fix>3d</fix>
</trkpt>
<trkpt lat="40.0713749" lon="-105.229789">
  <ele>1583.0</ele>
  <time>2026-08-28T17:50:17Z</time>
  <course>244.46</course>
  <speed>0.0</speed>
  <fix>3d</fix>
</trkpt>
<trkpt lat="40.0713749" lon="-105.229789">
  <ele>1583.0</ele>
  <time>2026-08-28T17:50:17Z</time>
  <course>0.0</course>
  <speed>0.0</speed>
  <fix>3d</fix>
</trkpt>
<trkpt lat="40.0713749" lon="-105.229789">
  <ele>1583.0</ele>
  <time>2026-08-28T17:50:17Z</time>
  <course>244.64</course>
  <speed>0.0</speed>
  <fix>3d</fix>
</trkpt>
<trkpt lat="40.0713749" lon="-105.229789">
  <ele>1583.0</ele>
  <time>2026-08-28T17:50:17Z</time>
  <course>0.0</course>
  <speed>0.0</speed>
  <fix>3d</fix>
</trkpt>
<trkpt lat="40.0713749" lon="-105.229789">
  <ele>1583.0</ele>
  <time>2026-08-28T17:50:17Z</time>
  <course>244.81</course>
  <speed>0.0</speed>
  <fix>3d</fix>
</trkpt>
<trkpt lat="40.0713749" lon="-105.229789">
  <ele>1583.0</ele>
  <time>2026-08-28T17:50:17Z</time>
  <course>0.0</course>
  <speed>0.0</speed>
  <fix>3d</fix>
</trkpt>
<trkpt lat="40.0713749" lon="-105.229789">
  <ele>1583.0</ele>
  <time>2026-08-28T17:50:17Z</time>
  <course>244.97</course>
  <speed>0.0</speed>
  <fix>3d</fix>
</trkpt>
<trkpt lat="40.0713749" lon="-105.229789">
  <ele>1583.0</ele>
  <time>2026-08-28T17:50:17Z</time>
  <course>0.0</course>
  <speed>0.0</speed>
  <fix>3d</fix>
</trkpt>
<trkpt lat="40.0713749" lon="-105.229789">
  <ele>1583.0</ele>
  <time>2026-08-28T17:50:17Z</time>
  <course>245.13</course>
  <speed>0.0</speed>
  <fix>3d</fix>
</trkpt>
<trkpt lat="40.0713749" lon="-105.229789">
  <ele>1583.0</ele>
  <time>2026-08-28T17:50:17Z</time>
  <course>0.0</course>
  <speed>0.0</speed>
  <fix>3d</fix>
</trkpt>
<trkpt lat="40.0713749" lon="-105.229789">
  <ele>1583.0</ele>
  <time>2026-08-28T17:50:17Z</time>
  <course>245.29</course>
  <speed>0.0</speed>
  <fix>3d</fix>
</trkpt>
<trkpt lat="40.0713749" lon="-105.229789">
  <ele>1583.0</ele>
  <time>2026-08-28T17:50:17Z</time>
  <course>0.0</course>
  <speed>0.0</speed>
  <fix>3d</fix>
</trkpt>
<trkpt lat="40.0713749" lon="-105.229789">
  <ele>1583.0</ele>
  <time>2026-08-28T17:50:17Z</time>
  <course>245.43</course>
  <speed>0.0</speed>
  <fix>3d</fix>
</trkpt>
<trkpt lat="40.0713749" lon="-105.229789">
  <ele>1583.0</ele>
  <time>2026-08-28T17:50:17Z</time>
  <course>0.0</course>
  <speed>0.0</speed>
  <fix>3d</fix>
</trkpt>
<trkpt lat="40.0713749" lon="-105.229789">
  <ele>1583.0</ele>
  <time>2026-08-28T17:50:17Z</time>
  <course>245.57</course>
  <speed>0.0</speed>
  <fix>3d</fix>
</trkpt>
<trkpt lat="40.0713749" lon="-105.229789">
  <ele>1583.0</ele>
  <time>2026-08-28T17:50:17Z</time>
  <course>0.0</course>
  <speed>0.0</speed>
  <fix>3d</fix>
</trkpt>
<trkpt lat="40.0713749" lon="-105.229789">
  <ele>1583.0</ele>
  <time>2026-08-28T17:50:17Z</time>
  <course>245.71</course>
  <speed>0.0</speed>
  <fix>3d</fix>
</trkpt>
<trkpt lat="40.0713749" lon="-105.229789">
  <ele>1583.0</ele>
  <time>2026-08-28T17:50:17Z</time>
  <course>0.0</course>
  <speed>0.0</speed>
  <fix>3d</fix>
</trkpt>
<trkpt lat="40.0713749" lon="-105.229789">
  <ele>1583.0</ele>
  <time>2026-08-28T17:50:17Z</time>
  <course>245.84</course>
  <speed>0.0</speed>
  <fix>3d</fix>
</trkpt>
<trkpt lat="40.0713749" lon="-105.229789">
  <ele>1583.0</ele>
  <time>2026-08-28T17:50:17Z</time>
  <course>0.0</course>
  <speed>0.0</speed>
  <fix>3d</fix>
</trkpt>
<trkpt lat="40.0713749" lon="-105.229789">
  <ele>1583.0</ele>
  <time>2026-08-28T17:50:17Z</time>
  <course>245.96</course>
  <speed>0.0</speed>
  <fix>3d</fix>
</trkpt>
<trkpt lat="40.0713749" lon="-105.229789">
  <ele>1583.0</ele>
  <time>2026-08-28T17:50:17Z</time>
  <course>0.0</course>
  <speed>0.0</speed>
  <fix>3d</fix>
</trkpt>
<trkpt lat="40.0713749" lon="-105.229789">
  <ele>1583.0</ele>
  <time>2026-08-28T17:50:17Z</time>
  <course>246.08</course>
  <speed>0.0</speed>
  <fix>3d</fix>
</trkpt>
<trkpt lat="40.0713749" lon="-105.229789">
  <ele>1583.0</ele>
  <time>2026-08-28T17:50:17Z</time>
  <course>0.0</course>
  <speed>0.0</speed>
  <fix>3d</fix>
</trkpt>
<trkpt lat="40.0713749" lon="-105.229789">
  <ele>1583.0</ele>
  <time>2026-08-28T17:50:17Z</time>
  <course>246.19</course>
  <speed>0.0</speed>
  <fix>3d</fix>
</trkpt>
<trkpt lat="40.0713749" lon="-105.229789">
  <ele>1583.0</ele>
  <time>2026-08-28T17:50:17Z</time>
  <course>0.0</course>
  <speed>0.0</speed>
  <fix>3d</fix>
</trkpt>
<trkpt lat="40.0713749" lon="-105.229789">
  <ele>1583.0</ele>
  <time>2026-08-28T17:50:17Z</time>
  <course>246.3</course>
  <speed>0.0</speed>
  <fix>3d</fix>
</trkpt>
<trkpt lat="40.0713749" lon="-105.229789">
  <ele>1583.0</ele>
  <time>2026-08-28T17:50:17Z</time>
  <course>0.0</course>
  <speed>0.0</speed>
  <fix>3d</fix>
</trkpt>
<trkpt lat="40.0713749" lon="-105.229789">
  <ele>1583.0</ele>
  <time>2026-08-28T17:50:17Z</time>
  <course>246.41</course>
  <speed>0.0</speed>
  <fix>3d</fix>
</trkpt>
<trkpt lat="40.0713749" lon="-105.229789">
  <ele>1583.0</ele>
  <time>2026-08-28T17:50:17Z</time>
  <course>0.0</course>
  <speed>0.0</speed>
  <fix>3d</fix>
</trkpt>
<trkpt lat="40.0713749" lon="-105.229789">
  <ele>1583.0</ele>
  <time>2026-08-28T17:50:17Z</time>
  <course>246.51</course>
  <speed>0.0</speed>
  <fix>3d</fix>
</trkpt>
<trkpt lat="40.0713749" lon="-105.229789">
  <ele>1583.0</ele>
  <time>2026-08-28T17:50:17Z</time>
  <course>0.0</course>
  <speed>0.0</speed>
  <fix>3d</fix>
</trkpt>
<trkpt lat="40.0713749" lon="-105.229789">
  <ele>1583.0</ele>
  <time>2026-08-28T17:50:17Z</time>
  <course>246.6</course>
  <speed>0.0</speed>
  <fix>3d</fix>
</trkpt>
<trkpt lat="40.0713749" lon="-105.229789">
  <ele>1583.0</ele>
  <time>2026-08-28T17:50:17Z</time>
  <course>0.0</course>
  <speed>0.0</speed>
  <fix>3d</fix>
</trkpt>
<trkpt lat="40.0713749" lon="-105.229789">
  <ele>1583.0</ele>
  <time>2026-08-28T17:50:17Z</time>
  <course>246.7</course>
  <speed>0.0</speed>
  <fix>3d</fix>
</trkpt>
<trkpt lat="40.0713749" lon="-105.229789">
  <ele>1583.0</ele>
  <time>2026-08-28T17:50:17Z</time>
  <course>0.0</course>
  <speed>0.0</speed>
  <fix>3d</fix>
</trkpt>
<trkpt lat="40.0713749" lon="-105.229789">
  <ele>1583.0</ele>
  <time>2026-08-28T17:50:17Z</time>
  <course>246.78</course>
  <speed>0.0</speed>
  <fix>3d</fix>
</trkpt>
<trkpt lat="40.0713749" lon="-105.229789">
  <ele>1583.0</ele>
  <time>2026-08-28T17:50:17Z</time>
  <course>0.0</course>
  <speed>0.0</speed>
  <fix>3d</fix>
</trkpt>
<trkpt lat="40.0713749" lon="-105.229789">
  <ele>1583.0</ele>
  <time>2026-08-28T17:50:17Z</time>
  <course>246.87</course>
  <speed>0.0</speed>
  <fix>3d</fix>
</trkpt>
<trkpt lat="40.0713749" lon="-105.229789">
  <ele>1583.0</ele>
  <time>2026-08-28T17:50:17Z</time>
  <course>0.0</course>
  <speed>0.0</speed>
  <fix>3d</fix>
</trkpt>
<trkpt lat="40.0713749" lon="-105.229789">
  <ele>1583.0</ele>
  <time>2026-08-28T17:50:17Z</time>
  <course>246.95</course>
  <speed>0.0</speed>
  <fix>3d</fix>
</trkpt>
<trkpt lat="40.0713749" lon="-105.229789">
  <ele>1583.0</ele>
  <time>2026-08-28T17:50:17Z</time>
  <course>0.0</course>
  <speed>0.0</speed>
  <fix>3d</fix>
</trkpt>
<trkpt lat="40.0713749" lon="-105.229789">
  <ele>1583.0</ele>
  <time>2026-08-28T17:50:17Z</time>
  <course>247.02</course>
  <speed>0.0</speed>
  <fix>3d</fix>
</trkpt>
<trkpt lat="40.0713749" lon="-105.229789">
  <ele>1583.0</ele>
  <time>2026-08-28T17:50:17Z</time>
  <course>0.0</course>
  <speed>0.0</speed>
  <fix>3d</fix>
</trkpt>
<trkpt lat="40.0713749" lon="-105.229789">
  <ele>1583.0</ele>
  <time>2026-08-28T17:50:17Z</time>
  <course>247.1</course>
  <speed>0.0</speed>
  <fix>3d</fix>
</trkpt>
<trkpt lat="40.0713749" lon="-105.229789">
  <ele>1583.0</ele>
  <time>2026-08-28T17:50:17Z</time>
  <course>0.0</course>
  <speed>0.0</speed>
  <fix>3d</fix>
</trkpt>
<trkpt lat="40.0713749" lon="-105.229789">
  <ele>1583.0</ele>
  <time>2026-08-28T17:50:17Z</time>
  <course>247.17</course>
  <speed>0.0</speed>
  <fix>3d</fix>
</trkpt>
<trkpt lat="40.0713749" lon="-105.229789">
  <ele>1583.0</ele>
  <time>2026-08-28T17:50:17Z</time>
  <course>0.0</course>
  <speed>0.0</speed>
  <fix>3d</fix>
</trkpt>
<trkpt lat="40.0713749" lon="-105.229789">
  <ele>1583.0</ele>
  <time>2026-08-28T17:50:17Z</time>
  <course>247.24</course>
  <speed>0.0</speed>
  <fix>3d</fix>
</trkpt>
<trkpt lat="40.0713749" lon="-105.229789">
  <ele>1583.0</ele>
  <time>2026-08-28T17:50:17Z</time>
  <course>0.0</course>
  <speed>0.0</speed>
  <fix>3d</fix>
</trkpt>
<trkpt lat="40.0713749" lon="-105.229789">
  <ele>1583.0</ele>
  <time>2026-08-28T17:50:17Z</time>
  <course>247.3</course>
  <speed>0.0</speed>
  <fix>3d</fix>
</trkpt>
<trkpt lat="40.0713749" lon="-105.229789">
  <ele>1583.0</ele>
  <time>2026-08-28T17:50:17Z</time>
  <course>0.0</course>
  <speed>0.0</speed>
  <fix>3d</fix>
</trkpt>
<trkpt lat="40.0713749" lon="-105.229789">
  <ele>1583.0</ele>
  <time>2026-08-28T17:50:17Z</time>
  <course>247.36</course>
  <speed>0.0</speed>
  <fix>3d</fix>
</trkpt>
<trkpt lat="40.0713749" lon="-105.229789">
  <ele>1583.0</ele>
  <time>2026-08-28T17:50:17Z</time>
  <course>0.0</course>
  <speed>0.0</speed>
  <fix>3d</fix>
</trkpt>
<trkpt lat="40.0713749" lon="-105.229789">
  <ele>1583.0</ele>
  <time>2026-08-28T17:50:17Z</time>
  <course>247.42</course>
  <speed>0.0</speed>
  <fix>3d</fix>
</trkpt>
<trkpt lat="40.0713749" lon="-105.229789">
  <ele>1583.0</ele>
  <time>2026-08-28T17:50:17Z</time>
  <course>0.0</course>
  <speed>0.0</speed>
  <fix>3d</fix>
</trkpt>
<trkpt lat="40.0713749" lon="-105.229789">
  <ele>1583.0</ele>
  <time>2026-08-28T17:50:17Z</time>
  <course>247.47</course>
  <speed>0.0</speed>
  <fix>3d</fix>
</trkpt>
<trkpt lat="40.0713749" lon="-105.229789">
  <ele>1583.0</ele>
  <time>2026-08-28T17:50:17Z</time>
  <course>0.0</course>
  <speed>0.0</speed>
  <fix>3d</fix>
</trkpt>
<trkpt lat="40.0713749" lon="-105.229789">
  <ele>1583.0</ele>
  <time>2026-08-28T17:50:17Z</time>
  <course>247.53</course>
  <speed>0.0</speed>
  <fix>3d</fix>
</trkpt>
<trkpt lat="40.0713749" lon="-105.229789">
  <ele>1583.0</ele>
  <time>2026-08-28T17:50:17Z</time>
  <course>0.0</course>
  <speed>0.0</speed>
  <fix>3d</fix>
</trkpt>
<trkpt lat="40.0713749" lon="-105.229789">
  <ele>1583.0</ele>
  <time>2026-08-28T17:50:17Z</time>
  <course>247.58</course>
  <speed>0.0</speed>
  <fix>3d</fix>
</trkpt>
<trkpt lat="40.0713749" lon="-105.229789">
  <ele>1583.0</ele>
  <time>2026-08-28T17:50:17Z</time>
  <course>0.0</course>
  <speed>0.0</speed>
  <fix>3d</fix>
</trkpt>
<trkpt lat="40.0713749" lon="-105.229789">
  <ele>1583.0</ele>
  <time>2026-08-28T17:50:17Z</time>
  <course>247.63</course>
  <speed>0.0</speed>
  <fix>3d</fix>
</trkpt>
<trkpt lat="40.0713749" lon="-105.229789">
  <ele>1583.0</ele>
  <time>2026-08-28T17:50:17Z</time>
  <course>0.0</course>
  <speed>0.0</speed>
  <fix>3d</fix>
</trkpt>
<trkpt lat="40.0713749" lon="-105.229789">
  <ele>1583.0</ele>
  <time>2026-08-28T17:50:17Z</time>
  <course>247.67</course>
  <speed>0.0</speed>
  <fix>3d</fix>
</trkpt>
<trkpt lat="40.0713749" lon="-105.229789">
  <ele>1583.0</ele>
  <time>2026-08-28T17:50:17Z</time>
  <course>0.0</course>
  <speed>0.0</speed>
  <fix>3d</fix>
</trkpt>
<trkpt lat="40.0713749" lon="-105.229789">
  <ele>1583.0</ele>
  <time>2026-08-28T17:50:17Z</time>
  <course>247.72</course>
  <speed>0.0</speed>
  <fix>3d</fix>
</trkpt>
<trkpt lat="40.0713749" lon="-105.229789">
  <ele>1583.0</ele>
  <time>2026-08-28T17:50:17Z</time>
  <course>0.0</course>
  <speed>0.0</speed>
  <fix>3d</fix>
</trkpt>
<trkpt lat="40.0713749" lon="-105.229789">
  <ele>1583.0</ele>
  <time>2026-08-28T17:50:17Z</time>
  <course>247.76</course>
  <speed>0.0</speed>
  <fix>3d</fix>
</trkpt>
<trkpt lat="40.0713749" lon="-105.229789">
  <ele>1583.0</ele>
  <time>2026-08-28T17:50:17Z</time>
  <course>0.0</course>
  <speed>0.0</speed>
  <fix>3d</fix>
</trkpt>
<trkpt lat="40.0713749" lon="-105.229789">
  <ele>1583.0</ele>
  <time>2026-08-28T17:50:17Z</time>
  <course>247.8</course>
  <speed>0.0</speed>
  <fix>3d</fix>
</trkpt>
<trkpt lat="40.0713749" lon="-105.229789">
  <ele>1583.0</ele>
  <time>2026-08-28T17:50:17Z</time>
  <course>0.0</course>
  <speed>0.0</speed>
  <fix>3d</fix>
</trkpt>
<trkpt lat="40.0713749" lon="-105.229789">
  <ele>1583.0</ele>
  <time>2026-08-28T17:50:17Z</time>
  <course>247.83</course>
  <speed>0.0</speed>
  <fix>3d</fix>
</trkpt>
<trkpt lat="40.0713749" lon="-105.229789">
  <ele>1583.0</ele>
  <time>2026-08-28T17:50:17Z</time>
  <course>0.0</course>
  <speed>0.0</speed>
  <fix>3d</fix>
</trkpt>
<trkpt lat="40.0713749" lon="-105.229789">
  <ele>1583.0</ele>
  <time>2026-08-28T17:50:17Z</time>
  <course>247.87</course>
  <speed>0.0</speed>
  <fix>3d</fix>
</trkpt>
<trkpt lat="40.0713749" lon="-105.229789">
  <ele>1583.0</ele>
  <time>2026-08-28T17:50:17Z</time>
  <course>0.0</course>
  <speed>0.0</speed>
  <fix>3d</fix>
</trkpt>
<trkpt lat="40.0713749" lon="-105.229789">
  <ele>1583.0</ele>
  <time>2026-08-28T17:50:17Z</time>
  <course>247.9</course>
  <speed>0.0</speed>
  <fix>3d</fix>
</trkpt>
<trkpt lat="40.0713749" lon="-105.229789">
  <ele>1583.0</ele>
  <time>2026-08-28T17:50:17Z</time>
  <course>0.0</course>
  <speed>0.0</speed>
  <fix>3d</fix>
</trkpt>
<trkpt lat="40.0713749" lon="-105.229789">
  <ele>1583.0</ele>
  <time>2026-08-28T17:50:18Z</time>
  <course>247.94</course>
  <speed>0.0</speed>
  <fix>3d</fix>
</trkpt>
<trkpt lat="40.0713749" lon="-105.229789">
  <ele>1583.0</ele>
  <time>2026-08-28T17:50:18Z</time>
  <course>0.0</course>
  <speed>0.0</speed>
  <fix>3d</fix>
</trkpt>
<trkpt lat="40.0713749" lon="-105.229789">
  <ele>1583.0</ele>
  <time>2026-08-28T17:50:18Z</time>
  <course>247.97</course>
  <speed>0.0</speed>
  <fix>3d</fix>
</trkpt>
<trkpt lat="40.0713749" lon="-105.229789">
  <ele>1583.0</ele>
  <time>2026-08-28T17:50:18Z</time>
  <course>0.0</course>
  <speed>0.0</speed>
  <fix>3d</fix>
</trkpt>
<trkpt lat="40.0713749" lon="-105.229789">
  <ele>1583.0</ele>
  <time>2026-08-28T17:50:18Z</time>
  <course>248.0</course>
  <speed>0.0</speed>
  <fix>3d</fix>
</trkpt>
<trkpt lat="40.0713749" lon="-105.229789">
  <ele>1583.0</ele>
  <time>2026-08-28T17:50:18Z</time>
  <course>0.0</course>
  <speed>0.0</speed>
  <fix>3d</fix>
</trkpt>
<trkpt lat="40.0713749" lon="-105.229789">
  <ele>1583.0</ele>
  <time>2026-08-28T17:50:18Z</time>
  <course>248.02</course>
  <speed>0.0</speed>
  <fix>3d</fix>
</trkpt>
<trkpt lat="40.0713749" lon="-105.229789">
  <ele>1583.0</ele>
  <time>2026-08-28T17:50:18Z</time>
  <course>0.0</course>
  <speed>0.0</speed>
  <fix>3d</fix>
</trkpt>
<trkpt lat="40.0713749" lon="-105.229789">
  <ele>1583.0</ele>
  <time>2026-08-28T17:50:18Z</time>
  <course>248.05</course>
  <speed>0.0</speed>
  <fix>3d</fix>
</trkpt>
<trkpt lat="40.0713749" lon="-105.229789">
  <ele>1583.0</ele>
  <time>2026-08-28T17:50:18Z</time>
  <course>0.0</course>
  <speed>0.0</speed>
  <fix>3d</fix>
</trkpt>
<trkpt lat="40.0713749" lon="-105.229789">
  <ele>1583.0</ele>
  <time>2026-08-28T17:50:18Z</time>
  <course>248.08</course>
  <speed>0.0</speed>
  <fix>3d</fix>
</trkpt>
<trkpt lat="40.0713749" lon="-105.229789">
  <ele>1583.0</ele>
  <time>2026-08-28T17:50:18Z</time>
  <course>0.0</course>
  <speed>0.0</speed>
  <fix>3d</fix>
</trkpt>
<trkpt lat="40.0713749" lon="-105.229789">
  <ele>1583.0</ele>
  <time>2026-08-28T17:50:18Z</time>
  <course>248.1</course>
  <speed>0.0</speed>
  <fix>3d</fix>
</trkpt>
<trkpt lat="40.0713749" lon="-105.229789">
  <ele>1583.0</ele>
  <time>2026-08-28T17:50:18Z</time>
  <course>0.0</course>
  <speed>0.0</speed>
  <fix>3d</fix>
</trkpt>
<trkpt lat="40.0713749" lon="-105.229789">
  <ele>1583.0</ele>
  <time>2026-08-28T17:50:18Z</time>
  <course>248.12</course>
  <speed>0.0</speed>
  <fix>3d</fix>
</trkpt>
<trkpt lat="40.0713749" lon="-105.229789">
  <ele>1583.0</ele>
  <time>2026-08-28T17:50:18Z</time>
  <course>0.0</course>
  <speed>0.0</speed>
  <fix>3d</fix>
</trkpt>
<trkpt lat="40.0713749" lon="-105.229789">
  <ele>1583.0</ele>
  <time>2026-08-28T17:50:18Z</time>
  <course>248.14</course>
  <speed>0.0</speed>
  <fix>3d</fix>
</trkpt>
<trkpt lat="40.0713749" lon="-105.229789">
  <ele>1583.0</ele>
  <time>2026-08-28T17:50:18Z</time>
  <course>0.0</course>
  <speed>0.0</speed>
  <fix>3d</fix>
</trkpt>
<trkpt lat="40.0713749" lon="-105.229789">
  <ele>1583.0</ele>
  <time>2026-08-28T17:50:18Z</time>
  <course>248.16</course>
  <speed>0.0</speed>
  <fix>3d</fix>
</trkpt>
<trkpt lat="40.0713749" lon="-105.229789">
  <ele>1583.0</ele>
  <time>2026-08-28T17:50:18Z</time>
  <course>0.0</course>
  <speed>0.0</speed>
  <fix>3d</fix>
</trkpt>
<trkpt lat="40.0713749" lon="-105.229789">
  <ele>1583.0</ele>
  <time>2026-08-28T17:50:18Z</time>
  <course>248.18</course>
  <speed>0.0</speed>
  <fix>3d</fix>
</trkpt>
<trkpt lat="40.0713749" lon="-105.229789">
  <ele>1583.0</ele>
  <time>2026-08-28T17:50:18Z</time>
  <course>0.0</course>
  <speed>0.0</speed>
  <fix>3d</fix>
</trkpt>
<trkpt lat="40.0713749" lon="-105.229789">
  <ele>1583.0</ele>
  <time>2026-08-28T17:50:18Z</time>
  <course>248.2</course>
  <speed>0.0</speed>
  <fix>3d</fix>
</trkpt>
<trkpt lat="40.0713749" lon="-105.229789">
  <ele>1583.0</ele>
  <time>2026-08-28T17:50:18Z</time>
  <course>0.0</course>
  <speed>0.0</speed>
  <fix>3d</fix>
</trkpt>
<trkpt lat="40.0713749" lon="-105.229789">
  <ele>1583.0</ele>
  <time>2026-08-28T17:50:18Z</time>
  <course>248.22</course>
  <speed>0.0</speed>
  <fix>3d</fix>
</trkpt>
<trkpt lat="40.0713749" lon="-105.229789">
  <ele>1583.0</ele>
  <time>2026-08-28T17:50:18Z</time>
  <course>0.0</course>
  <speed>0.0</speed>
  <fix>3d</fix>
</trkpt>
<trkpt lat="40.0713749" lon="-105.229789">
  <ele>1583.0</ele>
  <time>2026-08-28T17:50:18Z</time>
  <course>248.23</course>
  <speed>0.0</speed>
  <fix>3d</fix>
</trkpt>
<trkpt lat="40.0713749" lon="-105.229789">
  <ele>1583.0</ele>
  <time>2026-08-28T17:50:18Z</time>
  <course>0.0</course>
  <speed>0.0</speed>
  <fix>3d</fix>
</trkpt>
<trkpt lat="40.0713749" lon="-105.229789">
  <ele>1583.0</ele>
  <time>2026-08-28T17:50:18Z</time>
  <course>248.25</course>
  <speed>0.0</speed>
  <fix>3d</fix>
</trkpt>
<trkpt lat="40.0713749" lon="-105.229789">
  <ele>1583.0</ele>
  <time>2026-08-28T17:50:18Z</time>
  <course>0.0</course>
  <speed>0.0</speed>
  <fix>3d</fix>
</trkpt>
<trkpt lat="40.0713749" lon="-105.229789">
  <ele>1583.0</ele>
  <time>2026-08-28T17:50:18Z</time>
  <course>248.26</course>
  <speed>0.0</speed>
  <fix>3d</fix>
</trkpt>
<trkpt lat="40.0713749" lon="-105.229789">
  <ele>1583.0</ele>
  <time>2026-08-28T17:50:18Z</time>
  <course>0.0</course>
  <speed>0.0</speed>
  <fix>3d</fix>
</trkpt>
<trkpt lat="40.0713749" lon="-105.229789">
  <ele>1583.0</ele>
  <time>2026-08-28T17:50:18Z</time>
  <course>248.28</course>
  <speed>0.0</speed>
  <fix>3d</fix>
</trkpt>
<trkpt lat="40.0713749" lon="-105.229789">
  <ele>1583.0</ele>
  <time>2026-08-28T17:50:18Z</time>
  <course>0.0</course>
  <speed>0.0</speed>
  <fix>3d</fix>
</trkpt>
<trkpt lat="40.0713749" lon="-105.229789">
  <ele>1583.0</ele>
  <time>2026-08-28T17:50:18Z</time>
  <course>248.29</course>
  <speed>0.0</speed>
  <fix>3d</fix>
</trkpt>
<trkpt lat="40.0713749" lon="-105.229789">
  <ele>1583.0</ele>
  <time>2026-08-28T17:50:18Z</time>
  <course>0.0</course>
  <speed>0.0</speed>
  <fix>3d</fix>
</trkpt>
<trkpt lat="40.0713749" lon="-105.229789">
  <ele>1583.0</ele>
  <time>2026-08-28T17:50:18Z</time>
  <course>248.3</course>
  <speed>0.0</speed>
  <fix>3d</fix>
</trkpt>
<trkpt lat="40.0713749" lon="-105.229789">
  <ele>1583.0</ele>
  <time>2026-08-28T17:50:18Z</time>
  <course>0.0</course>
  <speed>0.0</speed>
  <fix>3d</fix>
</trkpt>
<trkpt lat="40.0713749" lon="-105.229789">
  <ele>1583.0</ele>
  <time>2026-08-28T17:50:18Z</time>
  <course>248.31</course>
  <speed>0.0</speed>
  <fix>3d</fix>
</trkpt>
<trkpt lat="40.0713749" lon="-105.229789">
  <ele>1583.0</ele>
  <time>2026-08-28T17:50:18Z</time>
  <course>0.0</course>
  <speed>0.0</speed>
  <fix>3d</fix>
</trkpt>
<trkpt lat="40.0713749" lon="-105.229789">
  <ele>1583.0</ele>
  <time>2026-08-28T17:50:18Z</time>
  <course>248.32</course>
  <speed>0.0</speed>
  <fix>3d</fix>
</trkpt>
<trkpt lat="40.0713749" lon="-105.229789">
  <ele>1583.0</ele>
  <time>2026-08-28T17:50:18Z</time>
  <course>0.0</course>
  <speed>0.0</speed>
  <fix>3d</fix>
</trkpt>
<trkpt lat="40.0713749" lon="-105.229789">
  <ele>1583.0</ele>
  <time>2026-08-28T17:50:18Z</time>
  <course>248.33</course>
  <speed>0.0</speed>
  <fix>3d</fix>
</trkpt>
<trkpt lat="40.0713749" lon="-105.229789">
  <ele>1583.0</ele>
  <time>2026-08-28T17:50:18Z</time>
  <course>0.0</course>
  <speed>0.0</speed>
  <fix>3d</fix>
</trkpt>
<trkpt lat="40.0713749" lon="-105.229789">
  <ele>1583.0</ele>
  <time>2026-08-28T17:50:18Z</time>
  <course>248.34</course>
  <speed>0.0</speed>
  <fix>3d</fix>
</trkpt>
<trkpt lat="40.0713749" lon="-105.229789">
  <ele>1583.0</ele>
  <time>2026-08-28T17:50:18Z</time>
  <course>0.0</course>
  <speed>0.0</speed>
  <fix>3d</fix>
</trkpt>
<trkpt lat="40.0713749" lon="-105.229789">
  <ele>1583.0</ele>
  <time>2026-08-28T17:50:18Z</time>
  <course>248.35</course>
  <speed>0.0</speed>
  <fix>3d</fix>
</trkpt>
<trkpt lat="40.0713749" lon="-105.229789">
  <ele>1583.0</ele>
  <time>2026-08-28T17:50:18Z</time>
  <course>0.0</course>
  <speed>0.0</speed>
  <fix>3d</fix>
</trkpt>
<trkpt lat="40.0713749" lon="-105.229789">
  <ele>1583.0</ele>
  <time>2026-08-28T17:50:18Z</time>
  <course>248.35</course>
  <speed>0.0</speed>
  <fix>3d</fix>
</trkpt>
<trkpt lat="40.0713749" lon="-105.229789">
  <ele>1583.0</ele>
  <time>2026-08-28T17:50:18Z</time>
  <course>0.0</course>
  <speed>0.0</speed>
  <fix>3d</fix>
</trkpt>
<trkpt lat="40.0713749" lon="-105.229789">
  <ele>1583.0</ele>
  <time>2026-08-28T17:50:18Z</time>
  <course>248.36</course>
  <speed>0.0</speed>
  <fix>3d</fix>
</trkpt>
<trkpt lat="40.0713749" lon="-105.229789">
  <ele>1583.0</ele>
  <time>2026-08-28T17:50:18Z</time>
  <course>0.0</course>
  <speed>0.0</speed>
  <fix>3d</fix>
</trkpt>
<trkpt lat="40.0713749" lon="-105.229789">
  <ele>1583.0</ele>
  <time>2026-08-28T17:50:18Z</time>
  <course>248.37</course>
  <speed>0.0</speed>
  <fix>3d</fix>
</trkpt>
<trkpt lat="40.0713749" lon="-105.229789">
  <ele>1583.0</ele>
  <time>2026-08-28T17:50:18Z</time>
  <course>0.0</course>
  <speed>0.0</speed>
  <fix>3d</fix>
</trkpt>
<trkpt lat="40.0713749" lon="-105.229789">
  <ele>1583.0</ele>
  <time>2026-08-28T17:50:18Z</time>
  <course>248.37</course>
  <speed>0.0</speed>
  <fix>3d</fix>
</trkpt>
<trkpt lat="40.0713749" lon="-105.229789">
  <ele>1583.0</ele>
  <time>2026-08-28T17:50:18Z</time>
  <course>0.0</course>
  <speed>0.0</speed>
  <fix>3d</fix>
</trkpt>
<trkpt lat="40.0713749" lon="-105.229789">
  <ele>1583.0</ele>
  <time>2026-08-28T17:50:18Z</time>
  <course>248.38</course>
  <speed>0.0</speed>
  <fix>3d</fix>
</trkpt>
<trkpt lat="40.0713749" lon="-105.229789">
  <ele>1583.0</ele>
  <time>2026-08-28T17:50:18Z</time>
  <course>0.0</course>
  <speed>0.0</speed>
  <fix>3d</fix>
</trkpt>
<trkpt lat="40.0713749" lon="-105.229789">
  <ele>1583.0</ele>
  <time>2026-08-28T17:50:18Z</time>
  <course>248.38</course>
  <speed>0.0</speed>
  <fix>3d</fix>
</trkpt>
<trkpt lat="40.0713749" lon="-105.229789">
  <ele>1583.0</ele>
  <time>2026-08-28T17:50:18Z</time>
  <course>0.0</course>
  <speed>0.0</speed>
  <fix>3d</fix>
</trkpt>
<trkpt lat="40.0713749" lon="-105.229789">
  <ele>1583.0</ele>
  <time>2026-08-28T17:50:18Z</time>
  <course>248.39</course>
  <speed>0.0</speed>
  <fix>3d</fix>
</trkpt>
<trkpt lat="40.0713749" lon="-105.229789">
  <ele>1583.0</ele>
  <time>2026-08-28T17:50:18Z</time>
  <course>0.0</course>
  <speed>0.0</speed>
  <fix>3d</fix>
</trkpt>
<trkpt lat="40.0713749" lon="-105.229789">
  <ele>1583.0</ele>
  <time>2026-08-28T17:50:18Z</time>
  <course>248.39</course>
  <speed>0.0</speed>
  <fix>3d</fix>
</trkpt>
<trkpt lat="40.0713749" lon="-105.229789">
  <ele>1583.0</ele>
  <time>2026-08-28T17:50:18Z</time>
  <course>0.0</course>
  <speed>0.0</speed>
  <fix>3d</fix>
</trkpt>
<trkpt lat="40.0713749" lon="-105.229789">
  <ele>1583.0</ele>
  <time>2026-08-28T17:50:18Z</time>
  <course>248.4</course>
  <speed>0.0</speed>
  <fix>3d</fix>
</trkpt>
<trkpt lat="40.0713749" lon="-105.229789">
  <ele>1583.0</ele>
  <time>2026-08-28T17:50:18Z</time>
  <course>0.0</course>
  <speed>0.0</speed>
  <fix>3d</fix>
</trkpt>
<trkpt lat="40.0713749" lon="-105.229789">
  <ele>1583.0</ele>
  <time>2026-08-28T17:50:18Z</time>
  <course>248.4</course>
  <speed>0.0</speed>
  <fix>3d</fix>
</trkpt>
<trkpt lat="40.0713749" lon="-105.229789">
  <ele>1583.0</ele>
  <time>2026-08-28T17:50:18Z</time>
  <course>0.0</course>
  <speed>0.0</speed>
  <fix>3d</fix>
</trkpt>
<trkpt lat="40.0713749" lon="-105.229789">
  <ele>1583.0</ele>
  <time>2026-08-28T17:50:18Z</time>
  <course>248.4</course>
  <speed>0.0</speed>
  <fix>3d</fix>
</trkpt>
<trkpt lat="40.0713749" lon="-105.229789">
  <ele>1583.0</ele>
  <time>2026-08-28T17:50:18Z</time>
  <course>0.0</course>
  <speed>0.0</speed>
  <fix>3d</fix>
</trkpt>
<trkpt lat="40.0713749" lon="-105.229789">
  <ele>1583.0</ele>
  <time>2026-08-28T17:50:18Z</time>
  <course>248.4</course>
  <speed>0.0</speed>
  <fix>3d</fix>
</trkpt>
<trkpt lat="40.0713749" lon="-105.229789">
  <ele>1583.0</ele>
  <time>2026-08-28T17:50:18Z</time>
  <course>0.0</course>
  <speed>0.0</speed>
  <fix>3d</fix>
</trkpt>
<trkpt lat="40.0713749" lon="-105.229789">
  <ele>1583.0</ele>
  <time>2026-08-28T17:50:18Z</time>
  <course>248.41</course>
  <speed>0.0</speed>
  <fix>3d</fix>
</trkpt>
<trkpt lat="40.0713749" lon="-105.229789">
  <ele>1583.0</ele>
  <time>2026-08-28T17:50:18Z</time>
  <course>0.0</course>
  <speed>0.0</speed>
  <fix>3d</fix>
</trkpt>
<trkpt lat="40.0713749" lon="-105.229789">
  <ele>1583.0</ele>
  <time>2026-08-28T17:50:18Z</time>
  <course>248.41</course>
  <speed>0.0</speed>
  <fix>3d</fix>
</trkpt>
<trkpt lat="40.0713749" lon="-105.229789">
  <ele>1583.0</ele>
  <time>2026-08-28T17:50:18Z</time>
  <course>0.0</course>
  <speed>0.0</speed>
  <fix>3d</fix>
</trkpt>
<trkpt lat="40.0713749" lon="-105.229789">
  <ele>1583.0</ele>
  <time>2026-08-28T17:50:18Z</time>
  <course>248.41</course>
  <speed>0.0</speed>
  <fix>3d</fix>
</trkpt>
<trkpt lat="40.0713749" lon="-105.229789">
  <ele>1583.0</ele>
  <time>2026-08-28T17:50:18Z</time>
  <course>0.0</course>
  <speed>0.0</speed>
  <fix>3d</fix>
</trkpt>
<trkpt lat="40.0713749" lon="-105.229789">
  <ele>1583.0</ele>
  <time>2026-08-28T17:50:18Z</time>
  <course>248.41</course>
  <speed>0.0</speed>
  <fix>3d</fix>
</trkpt>
<trkpt lat="40.0713749" lon="-105.229789">
  <ele>1583.0</ele>
  <time>2026-08-28T17:50:18Z</time>
  <course>0.0</course>
  <speed>0.0</speed>
  <fix>3d</fix>
</trkpt>
<trkpt lat="40.0713749" lon="-105.229789">
  <ele>1583.0</ele>
  <time>2026-08-28T17:50:18Z</time>
  <course>248.41</course>
  <speed>0.0</speed>
  <fix>3d</fix>
</trkpt>
<trkpt lat="40.0713749" lon="-105.229789">
  <ele>1583.0</ele>
  <time>2026-08-28T17:50:18Z</time>
  <course>0.0</course>
  <speed>0.0</speed>
  <fix>3d</fix>
</trkpt>
<trkpt lat="40.0713749" lon="-105.229789">
  <ele>1583.0</ele>
  <time>2026-08-28T17:50:18Z</time>
  <course>248.41</course>
  <speed>0.0</speed>
  <fix>3d</fix>
</trkpt>
<trkpt lat="40.0713749" lon="-105.229789">
  <ele>1583.0</ele>
  <time>2026-08-28T17:50:18Z</time>
  <course>0.0</course>
  <speed>0.0</speed>
  <fix>3d</fix>
</trkpt>
<trkpt lat="40.0713749" lon="-105.229789">
  <ele>1583.0</ele>
  <time>2026-08-28T17:50:18Z</time>
  <course>248.41</course>
  <speed>0.0</speed>
  <fix>3d</fix>
</trkpt>
<trkpt lat="40.0713749" lon="-105.229789">
  <ele>1583.0</ele>
  <time>2026-08-28T17:50:18Z</time>
  <course>0.0</course>
  <speed>0.0</speed>
  <fix>3d</fix>
</trkpt>
<trkpt lat="40.0713749" lon="-105.229789">
  <ele>1583.0</ele>
  <time>2026-08-28T17:50:18Z</time>
  <course>248.41</course>
  <speed>0.0</speed>
  <fix>3d</fix>
</trkpt>
<trkpt lat="40.0713749" lon="-105.229789">
  <ele>1583.0</ele>
  <time>2026-08-28T17:50:18Z</time>
  <course>0.0</course>
  <speed>0.0</speed>
  <fix>3d</fix>
</trkpt>
<trkpt lat="40.0713749" lon="-105.229789">
  <ele>1583.0</ele>
  <time>2026-08-28T17:50:18Z</time>
  <course>248.41</course>
  <speed>0.0</speed>
  <fix>3d</fix>
</trkpt>
<trkpt lat="40.0713749" lon="-105.229789">
  <ele>1583.0</ele>
  <time>2026-08-28T17:50:18Z</time>
  <course>0.0</course>
  <speed>0.0</speed>
  <fix>3d</fix>
</trkpt>
<trkpt lat="40.0713749" lon="-105.229789">
  <ele>1583.0</ele>
  <time>2026-08-28T17:50:18Z</time>
  <course>248.41</course>
  <speed>0.0</speed>
  <fix>3d</fix>
</trkpt>
<trkpt lat="40.0713749" lon="-105.229789">
  <ele>1583.0</ele>
  <time>2026-08-28T17:50:18Z</time>
  <course>0.0</course>
  <speed>0.0</speed>
  <fix>3d</fix>
</trkpt>
<trkpt lat="40.0713749" lon="-105.229789">
  <ele>1583.0</ele>
  <time>2026-08-28T17:50:18Z</time>
  <course>248.41</course>
  <speed>0.0</speed>
  <fix>3d</fix>
</trkpt>
<trkpt lat="40.0713749" lon="-105.229789">
  <ele>1583.0</ele>
  <time>2026-08-28T17:50:18Z</time>
  <course>0.0</course>
  <speed>0.0</speed>
  <fix>3d</fix>
</trkpt>
<trkpt lat="40.0713749" lon="-105.229789">
  <ele>1583.0</ele>
  <time>2026-08-28T17:50:18Z</time>
  <course>248.41</course>
  <speed>0.0</speed>
  <fix>3d</fix>
</trkpt>
<trkpt lat="40.0713749" lon="-105.229789">
  <ele>1583.0</ele>
  <time>2026-08-28T17:50:18Z</time>
  <course>0.0</course>
  <speed>0.0</speed>
  <fix>3d</fix>
</trkpt>
<trkpt lat="40.0713749" lon="-105.229789">
  <ele>1583.0</ele>
  <time>2026-08-28T17:50:18Z</time>
  <course>248.41</course>
  <speed>0.0</speed>
  <fix>3d</fix>
</trkpt>
<trkpt lat="40.0713749" lon="-105.229789">
  <ele>1583.0</ele>
  <time>2026-08-28T17:50:18Z</time>
  <course>0.0</course>
  <speed>0.0</speed>
  <fix>3d</fix>
</trkpt>
<trkpt lat="40.0713749" lon="-105.229789">
  <ele>1583.0</ele>
  <time>2026-08-28T17:50:18Z</time>
  <course>248.41</course>
  <speed>0.0</speed>
  <fix>3d</fix>
</trkpt>
<trkpt lat="40.0713749" lon="-105.229789">
  <ele>1583.0</ele>
  <time>2026-08-28T17:50:18Z</time>
  <course>0.0</course>
  <speed>0.0</speed>
  <fix>3d</fix>
</trkpt>
<trkpt lat="40.0713749" lon="-105.229789">
  <ele>1583.0</ele>
  <time>2026-08-28T17:50:18Z</time>
  <course>248.41</course>
  <speed>0.0</speed>
  <fix>3d</fix>
</trkpt>
<trkpt lat="40.0713749" lon="-105.229789">
  <ele>1583.0</ele>
  <time>2026-08-28T17:50:18Z</time>
  <course>0.0</course>
  <speed>0.0</speed>
  <fix>3d</fix>
</trkpt>
<trkpt lat="40.0713749" lon="-105.229789">
  <ele>1583.0</ele>
  <time>2026-08-28T17:50:18Z</time>
  <course>248.41</course>
  <speed>0.0</speed>
  <fix>3d</fix>
</trkpt>
<trkpt lat="40.0713749" lon="-105.229789">
  <ele>1583.0</ele>
  <time>2026-08-28T17:50:18Z</time>
  <course>0.0</course>
  <speed>0.0</speed>
  <fix>3d</fix>
</trkpt>
<trkpt lat="40.0713749" lon="-105.229789">
  <ele>1583.0</ele>
  <time>2026-08-28T17:50:18Z</time>
  <course>248.4</course>
  <speed>0.0</speed>
  <fix>3d</fix>
</trkpt>
<trkpt lat="40.0713749" lon="-105.229789">
  <ele>1583.0</ele>
  <time>2026-08-28T17:50:18Z</time>
  <course>0.0</course>
  <speed>0.0</speed>
  <fix>3d</fix>
</trkpt>
<trkpt lat="40.0713749" lon="-105.229789">
  <ele>1583.0</ele>
  <time>2026-08-28T17:50:18Z</time>
  <course>248.4</course>
  <speed>0.01</speed>
  <fix>3d</fix>
</trkpt>
<trkpt lat="40.0713749" lon="-105.229789">
  <ele>1583.0</ele>
  <time>2026-08-28T17:50:18Z</time>
  <course>0.0</course>
  <speed>0.0</speed>
  <fix>3d</fix>
</trkpt>
<trkpt lat="40.0713749" lon="-105.229789">
  <ele>1583.0</ele>
  <time>2026-08-28T17:50:18Z</time>
  <course>248.4</course>
  <speed>0.01</speed>
  <fix>3d</fix>
</trkpt>
<trkpt lat="40.0713749" lon="-105.229789">
  <ele>1583.0</ele>
  <time>2026-08-28T17:50:18Z</time>
  <course>0.0</course>
  <speed>0.0</speed>
  <fix>3d</fix>
</trkpt>
<trkpt lat="40.0713749" lon="-105.229789">
  <ele>1583.0</ele>
  <time>2026-08-28T17:50:18Z</time>
  <course>248.4</course>
  <speed>0.01</speed>
  <fix>3d</fix>
</trkpt>
<trkpt lat="40.0713749" lon="-105.229789">
  <ele>1583.0</ele>
  <time>2026-08-28T17:50:18Z</time>
  <course>0.0</course>
  <speed>0.0</speed>
  <fix>3d</fix>
</trkpt>
<trkpt lat="40.0713749" lon="-105.229789">
  <ele>1583.0</ele>
  <time>2026-08-28T17:50:18Z</time>
  <course>248.4</course>
  <speed>0.01</speed>
  <fix>3d</fix>
</trkpt>
<trkpt lat="40.0713749" lon="-105.229789">
  <ele>1583.0</ele>
  <time>2026-08-28T17:50:18Z</time>
  <course>0.0</course>
  <speed>0.0</speed>
  <fix>3d</fix>
</trkpt>
<trkpt lat="40.0713749" lon="-105.229789">
  <ele>1583.0</ele>
  <time>2026-08-28T17:50:18Z</time>
  <course>248.39</course>
  <speed>0.01</speed>
  <fix>3d</fix>
</trkpt>
<trkpt lat="40.0713749" lon="-105.229789">
  <ele>1583.0</ele>
  <time>2026-08-28T17:50:18Z</time>
  <course>0.0</course>
  <speed>0.0</speed>
  <fix>3d</fix>
</trkpt>
<trkpt lat="40.0713749" lon="-105.229789">
  <ele>1583.0</ele>
  <time>2026-08-28T17:50:18Z</time>
  <course>248.39</course>
  <speed>0.01</speed>
  <fix>3d</fix>
</trkpt>
<trkpt lat="40.0713749" lon="-105.229789">
  <ele>1583.0</ele>
  <time>2026-08-28T17:50:18Z</time>
  <course>0.0</course>
  <speed>0.0</speed>
  <fix>3d</fix>
</trkpt>
<trkpt lat="40.0713749" lon="-105.229789">
  <ele>1583.0</ele>
  <time>2026-08-28T17:50:18Z</time>
  <course>248.39</course>
  <speed>0.01</speed>
  <fix>3d</fix>
</trkpt>
<trkpt lat="40.0713749" lon="-105.229789">
  <ele>1583.0</ele>
  <time>2026-08-28T17:50:18Z</time>
  <course>0.0</course>
  <speed>0.0</speed>
  <fix>3d</fix>
</trkpt>
<trkpt lat="40.0713749" lon="-105.229789">
  <ele>1583.0</ele>
  <time>2026-08-28T17:50:18Z</time>
  <course>248.38</course>
  <speed>0.01</speed>
  <fix>3d</fix>
</trkpt>
<trkpt lat="40.0713749" lon="-105.229789">
  <ele>1583.0</ele>
  <time>2026-08-28T17:50:18Z</time>
  <course>0.0</course>
  <speed>0.0</speed>
  <fix>3d</fix>
</trkpt>
<trkpt lat="40.0713749" lon="-105.229789">
  <ele>1583.0</ele>
  <time>2026-08-28T17:50:18Z</time>
  <course>248.38</course>
  <speed>0.01</speed>
  <fix>3d</fix>
</trkpt>
<trkpt lat="40.0713749" lon="-105.229789">
  <ele>1583.0</ele>
  <time>2026-08-28T17:50:18Z</time>
  <course>0.0</course>
  <speed>0.0</speed>
  <fix>3d</fix>
</trkpt>
<trkpt lat="40.0713749" lon="-105.229789">
  <ele>1583.0</ele>
  <time>2026-08-28T17:50:18Z</time>
  <course>248.38</course>
  <speed>0.01</speed>
  <fix>3d</fix>
</trkpt>
<trkpt lat="40.0713749" lon="-105.229789">
  <ele>1583.0</ele>
  <time>2026-08-28T17:50:18Z</time>
  <course>0.0</course>
  <speed>0.0</speed>
  <fix>3d</fix>
</trkpt>
<trkpt lat="40.0713749" lon="-105.229789">
  <ele>1583.0</ele>
  <time>2026-08-28T17:50:18Z</time>
  <course>248.37</course>
  <speed>0.01</speed>
  <fix>3d</fix>
</trkpt>
<trkpt lat="40.0713749" lon="-105.229789">
  <ele>1583.0</ele>
  <time>2026-08-28T17:50:18Z</time>
  <course>0.0</course>
  <speed>0.0</speed>
  <fix>3d</fix>
</trkpt>
<trkpt lat="40.0713749" lon="-105.229789">
  <ele>1583.0</ele>
  <time>2026-08-28T17:50:18Z</time>
  <course>248.37</course>
  <speed>0.01</speed>
  <fix>3d</fix>
</trkpt>
<trkpt lat="40.0713749" lon="-105.229789">
  <ele>1583.0</ele>
  <time>2026-08-28T17:50:18Z</time>
  <course>0.0</course>
  <speed>0.0</speed>
  <fix>3d</fix>
</trkpt>
<trkpt lat="40.0713749" lon="-105.229789">
  <ele>1583.0</ele>
  <time>2026-08-28T17:50:18Z</time>
  <course>248.37</course>
  <speed>0.01</speed>
  <fix>3d</fix>
</trkpt>
<trkpt lat="40.0713749" lon="-105.229789">
  <ele>1583.0</ele>
  <time>2026-08-28T17:50:18Z</time>
  <course>0.0</course>
  <speed>0.0</speed>
  <fix>3d</fix>
</trkpt>
<trkpt lat="40.0713749" lon="-105.229789">
  <ele>1583.0</ele>
  <time>2026-08-28T17:50:18Z</time>
  <course>248.36</course>
  <speed>0.01</speed>
  <fix>3d</fix>
</trkpt>
<trkpt lat="40.0713749" lon="-105.229789">
  <ele>1583.0</ele>
  <time>2026-08-28T17:50:18Z</time>
  <course>0.0</course>
  <speed>0.0</speed>
  <fix>3d</fix>
</trkpt>
<trkpt lat="40.0713749" lon="-105.229789">
  <ele>1583.0</ele>
  <time>2026-08-28T17:50:18Z</time>
  <course>248.36</course>
  <speed>0.01</speed>
  <fix>3d</fix>
</trkpt>
<trkpt lat="40.0713749" lon="-105.229789">
  <ele>1583.0</ele>
  <time>2026-08-28T17:50:18Z</time>
  <course>0.0</course>
  <speed>0.0</speed>
  <fix>3d</fix>
</trkpt>
<trkpt lat="40.0713749" lon="-105.229789">
  <ele>1583.0</ele>
  <time>2026-08-28T17:50:18Z</time>
  <course>248.36</course>
  <speed>0.01</speed>
  <fix>3d</fix>
</trkpt>
<trkpt lat="40.0713749" lon="-105.229789">
  <ele>1583.0</ele>
  <time>2026-08-28T17:50:18Z</time>
  <course>0.0</course>
  <speed>0.0</speed>
  <fix>3d</fix>
</trkpt>
<trkpt lat="40.0713749" lon="-105.229789">
  <ele>1583.0</ele>
  <time>2026-08-28T17:50:18Z</time>
  <course>248.35</course>
  <speed>0.01</speed>
  <fix>3d</fix>
</trkpt>
<trkpt lat="40.0713749" lon="-105.229789">
  <ele>1583.0</ele>
  <time>2026-08-28T17:50:18Z</time>
  <course>0.0</course>
  <speed>0.0</speed>
  <fix>3d</fix>
</trkpt>
<trkpt lat="40.0713749" lon="-105.229789">
  <ele>1583.0</ele>
  <time>2026-08-28T17:50:18Z</time>
  <course>248.35</course>
  <speed>0.01</speed>
  <fix>3d</fix>
</trkpt>
<trkpt lat="40.0713749" lon="-105.229789">
  <ele>1583.0</ele>
  <time>2026-08-28T17:50:18Z</time>
  <course>0.0</course>
  <speed>0.0</speed>
  <fix>3d</fix>
</trkpt>
<trkpt lat="40.0713749" lon="-105.229789">
  <ele>1583.0</ele>
  <time>2026-08-28T17:50:18Z</time>
  <course>248.35</course>
  <speed>0.01</speed>
  <fix>3d</fix>
</trkpt>
<trkpt lat="40.0713749" lon="-105.229789">
  <ele>1583.0</ele>
  <time>2026-08-28T17:50:18Z</time>
  <course>0.0</course>
  <speed>0.0</speed>
  <fix>3d</fix>
</trkpt>
<trkpt lat="40.0713749" lon="-105.229789">
  <ele>1583.0</ele>
  <time>2026-08-28T17:50:18Z</time>
  <course>248.34</course>
  <speed>0.01</speed>
  <fix>3d</fix>
</trkpt>
<trkpt lat="40.0713749" lon="-105.229789">
  <ele>1583.0</ele>
  <time>2026-08-28T17:50:18Z</time>
  <course>0.0</course>
  <speed>0.0</speed>
  <fix>3d</fix>
</trkpt>
<trkpt lat="40.0713749" lon="-105.229789">
  <ele>1583.0</ele>
  <time>2026-08-28T17:50:18Z</time>
  <course>248.34</course>
  <speed>0.01</speed>
  <fix>3d</fix>
</trkpt>
<trkpt lat="40.0713749" lon="-105.229789">
  <ele>1583.0</ele>
  <time>2026-08-28T17:50:18Z</time>
  <course>0.0</course>
  <speed>0.0</speed>
  <fix>3d</fix>
</trkpt>
<trkpt lat="40.0713749" lon="-105.229789">
  <ele>1583.0</ele>
  <time>2026-08-28T17:50:18Z</time>
  <course>248.33</course>
  <speed>0.01</speed>
  <fix>3d</fix>
</trkpt>
<trkpt lat="40.0713749" lon="-105.229789">
  <ele>1583.0</ele>
  <time>2026-08-28T17:50:18Z</time>
  <course>0.0</course>
  <speed>0.0</speed>
  <fix>3d</fix>
</trkpt>
<trkpt lat="40.0713749" lon="-105.229789">
  <ele>1583.0</ele>
  <time>2026-08-28T17:50:18Z</time>
  <course>248.33</course>
  <speed>0.01</speed>
  <fix>3d</fix>
</trkpt>
<trkpt lat="40.0713749" lon="-105.229789">
  <ele>1583.0</ele>
  <time>2026-08-28T17:50:18Z</time>
  <course>0.0</course>
  <speed>0.0</speed>
  <fix>3d</fix>
</trkpt>
<trkpt lat="40.0713749" lon="-105.229789">
  <ele>1583.0</ele>
  <time>2026-08-28T17:50:18Z</time>
  <course>248.32</course>
  <speed>0.01</speed>
  <fix>3d</fix>
</trkpt>
<trkpt lat="40.0713749" lon="-105.229789">
  <ele>1583.0</ele>
  <time>2026-08-28T17:50:18Z</time>
  <course>0.0</course>
  <speed>0.0</speed>
  <fix>3d</fix>
</trkpt>
<trkpt lat="40.0713749" lon="-105.229789">
  <ele>1583.0</ele>
  <time>2026-08-28T17:50:18Z</time>
  <course>248.32</course>
  <speed>0.01</speed>
  <fix>3d</fix>
</trkpt>
<trkpt lat="40.0713749" lon="-105.229789">
  <ele>1583.0</ele>
  <time>2026-08-28T17:50:18Z</time>
  <course>0.0</course>
  <speed>0.0</speed>
  <fix>3d</fix>
</trkpt>
<trkpt lat="40.0713749" lon="-105.229789">
  <ele>1583.0</ele>
  <time>2026-08-28T17:50:18Z</time>
  <course>248.32</course>
  <speed>0.01</speed>
  <fix>3d</fix>
</trkpt>
<trkpt lat="40.0713749" lon="-105.229789">
  <ele>1583.0</ele>
  <time>2026-08-28T17:50:18Z</time>
  <course>0.0</course>
  <speed>0.0</speed>
  <fix>3d</fix>
</trkpt>
<trkpt lat="40.0713749" lon="-105.229789">
  <ele>1583.0</ele>
  <time>2026-08-28T17:50:18Z</time>
  <course>248.31</course>
  <speed>0.01</speed>
  <fix>3d</fix>
</trkpt>
<trkpt lat="40.0713749" lon="-105.229789">
  <ele>1583.0</ele>
  <time>2026-08-28T17:50:18Z</time>
  <course>0.0</course>
  <speed>0.0</speed>
  <fix>3d</fix>
</trkpt>
<trkpt lat="40.0713749" lon="-105.229789">
  <ele>1583.0</ele>
  <time>2026-08-28T17:50:18Z</time>
  <course>248.31</course>
  <speed>0.01</speed>
  <fix>3d</fix>
</trkpt>
<trkpt lat="40.0713749" lon="-105.229789">
  <ele>1583.0</ele>
  <time>2026-08-28T17:50:18Z</time>
  <course>0.0</course>
  <speed>0.0</speed>
  <fix>3d</fix>
</trkpt>
<trkpt lat="40.0713749" lon="-105.229789">
  <ele>1583.0</ele>
  <time>2026-08-28T17:50:18Z</time>
  <course>248.3</course>
  <speed>0.01</speed>
  <fix>3d</fix>
</trkpt>
<trkpt lat="40.0713749" lon="-105.229789">
  <ele>1583.0</ele>
  <time>2026-08-28T17:50:18Z</time>
  <course>0.0</course>
  <speed>0.0</speed>
  <fix>3d</fix>
</trkpt>
<trkpt lat="40.0713749" lon="-105.229789">
  <ele>1583.0</ele>
  <time>2026-08-28T17:50:18Z</time>
  <course>248.3</course>
  <speed>0.01</speed>
  <fix>3d</fix>
</trkpt>
<trkpt lat="40.0713749" lon="-105.229789">
  <ele>1583.0</ele>
  <time>2026-08-28T17:50:18Z</time>
  <course>0.0</course>
  <speed>0.0</speed>
  <fix>3d</fix>
</trkpt>
<trkpt lat="40.0713749" lon="-105.229789">
  <ele>1583.0</ele>
  <time>2026-08-28T17:50:18Z</time>
  <course>248.29</course>
  <speed>0.01</speed>
  <fix>3d</fix>
</trkpt>
<trkpt lat="40.0713749" lon="-105.229789">
  <ele>1583.0</ele>
  <time>2026-08-28T17:50:18Z</time>
  <course>0.0</course>
  <speed>0.0</speed>
  <fix>3d</fix>
</trkpt>
<trkpt lat="40.0713749" lon="-105.229789">
  <ele>1583.0</ele>
  <time>2026-08-28T17:50:18Z</time>
  <course>248.29</course>
  <speed>0.01</speed>
  <fix>3d</fix>
</trkpt>
<trkpt lat="40.0713749" lon="-105.229789">
  <ele>1583.0</ele>
  <time>2026-08-28T17:50:18Z</time>
  <course>0.0</course>
  <speed>0.0</speed>
  <fix>3d</fix>
</trkpt>
<trkpt lat="40.0713749" lon="-105.229789">
  <ele>1583.0</ele>
  <time>2026-08-28T17:50:18Z</time>
  <course>248.28</course>
  <speed>0.01</speed>
  <fix>3d</fix>
</trkpt>
<trkpt lat="40.0713749" lon="-105.229789">
  <ele>1583.0</ele>
  <time>2026-08-28T17:50:18Z</time>
  <course>0.0</course>
  <speed>0.0</speed>
  <fix>3d</fix>
</trkpt>
<trkpt lat="40.0713749" lon="-105.229789">
  <ele>1583.0</ele>
  <time>2026-08-28T17:50:18Z</time>
  <course>248.28</course>
  <speed>0.01</speed>
  <fix>3d</fix>
</trkpt>
<trkpt lat="40.0713749" lon="-105.229789">
  <ele>1583.0</ele>
  <time>2026-08-28T17:50:18Z</time>
  <course>0.0</course>
  <speed>0.0</speed>
  <fix>3d</fix>
</trkpt>
<trkpt lat="40.0713749" lon="-105.229789">
  <ele>1583.0</ele>
  <time>2026-08-28T17:50:18Z</time>
  <course>248.27</course>
  <speed>0.01</speed>
  <fix>3d</fix>
</trkpt>
<trkpt lat="40.0713749" lon="-105.229789">
  <ele>1583.0</ele>
  <time>2026-08-28T17:50:18Z</time>
  <course>0.0</course>
  <speed>0.0</speed>
  <fix>3d</fix>
</trkpt>
<trkpt lat="40.0713749" lon="-105.229789">
  <ele>1583.0</ele>
  <time>2026-08-28T17:50:18Z</time>
  <course>248.27</course>
  <speed>0.01</speed>
  <fix>3d</fix>
</trkpt>
<trkpt lat="40.0713749" lon="-105.229789">
  <ele>1583.0</ele>
  <time>2026-08-28T17:50:18Z</time>
  <course>0.0</course>
  <speed>0.0</speed>
  <fix>3d</fix>
</trkpt>
<trkpt lat="40.0713749" lon="-105.229789">
  <ele>1583.0</ele>
  <time>2026-08-28T17:50:18Z</time>
  <course>248.26</course>
  <speed>0.01</speed>
  <fix>3d</fix>
</trkpt>
<trkpt lat="40.0713749" lon="-105.229789">
  <ele>1583.0</ele>
  <time>2026-08-28T17:50:18Z</time>
  <course>0.0</course>
  <speed>0.0</speed>
  <fix>3d</fix>
</trkpt>
<trkpt lat="40.0713749" lon="-105.229789">
  <ele>1583.0</ele>
  <time>2026-08-28T17:50:18Z</time>
  <course>248.26</course>
  <speed>0.01</speed>
  <fix>3d</fix>
</trkpt>
<trkpt lat="40.0713749" lon="-105.229789">
  <ele>1583.0</ele>
  <time>2026-08-28T17:50:18Z</time>
  <course>0.0</course>
  <speed>0.0</speed>
  <fix>3d</fix>
</trkpt>
<trkpt lat="40.0713749" lon="-105.229789">
  <ele>1583.0</ele>
  <time>2026-08-28T17:50:18Z</time>
  <course>248.26</course>
  <speed>0.01</speed>
  <fix>3d</fix>
</trkpt>
<trkpt lat="40.0713749" lon="-105.229789">
  <ele>1583.0</ele>
  <time>2026-08-28T17:50:18Z</time>
  <course>0.0</course>
  <speed>0.0</speed>
  <fix>3d</fix>
</trkpt>
<trkpt lat="40.0713749" lon="-105.229789">
  <ele>1583.0</ele>
  <time>2026-08-28T17:50:18Z</time>
  <course>248.25</course>
  <speed>0.01</speed>
  <fix>3d</fix>
</trkpt>
<trkpt lat="40.0713749" lon="-105.229789">
  <ele>1583.0</ele>
  <time>2026-08-28T17:50:18Z</time>
  <course>0.0</course>
  <speed>0.0</speed>
  <fix>3d</fix>
</trkpt>
<trkpt lat="40.0713749" lon="-105.229789">
  <ele>1583.0</ele>
  <time>2026-08-28T17:50:18Z</time>
  <course>248.25</course>
  <speed>0.01</speed>
  <fix>3d</fix>
</trkpt>
<trkpt lat="40.0713749" lon="-105.229789">
  <ele>1583.0</ele>
  <time>2026-08-28T17:50:18Z</time>
  <course>0.0</course>
  <speed>0.0</speed>
  <fix>3d</fix>
</trkpt>
<trkpt lat="40.0713749" lon="-105.229789">
  <ele>1583.0</ele>
  <time>2026-08-28T17:50:18Z</time>
  <course>248.24</course>
  <speed>0.01</speed>
  <fix>3d</fix>
</trkpt>
<trkpt lat="40.0713749" lon="-105.229789">
  <ele>1583.0</ele>
  <time>2026-08-28T17:50:18Z</time>
  <course>0.0</course>
  <speed>0.0</speed>
  <fix>3d</fix>
</trkpt>
<trkpt lat="40.0713749" lon="-105.229789">
  <ele>1583.0</ele>
  <time>2026-08-28T17:50:18Z</time>
  <course>248.24</course>
  <speed>0.01</speed>
  <fix>3d</fix>
</trkpt>
<trkpt lat="40.0713749" lon="-105.229789">
  <ele>1583.0</ele>
  <time>2026-08-28T17:50:18Z</time>
  <course>0.0</course>
  <speed>0.0</speed>
  <fix>3d</fix>
</trkpt>
<trkpt lat="40.0713749" lon="-105.229789">
  <ele>1583.0</ele>
  <time>2026-08-28T17:50:18Z</time>
  <course>248.23</course>
  <speed>0.01</speed>
  <fix>3d</fix>
</trkpt>
<trkpt lat="40.0713749" lon="-105.229789">
  <ele>1583.0</ele>
  <time>2026-08-28T17:50:18Z</time>
  <course>0.0</course>
  <speed>0.0</speed>
  <fix>3d</fix>
</trkpt>
<trkpt lat="40.0713749" lon="-105.229789">
  <ele>1583.0</ele>
  <time>2026-08-28T17:50:18Z</time>
  <course>248.23</course>
  <speed>0.01</speed>
  <fix>3d</fix>
</trkpt>
<trkpt lat="40.0713749" lon="-105.229789">
  <ele>1583.0</ele>
  <time>2026-08-28T17:50:18Z</time>
  <course>0.0</course>
  <speed>0.0</speed>
  <fix>3d</fix>
</trkpt>
<trkpt lat="40.0713749" lon="-105.229789">
  <ele>1583.0</ele>
  <time>2026-08-28T17:50:18Z</time>
  <course>248.22</course>
  <speed>0.01</speed>
  <fix>3d</fix>
</trkpt>
<trkpt lat="40.0713749" lon="-105.229789">
  <ele>1583.0</ele>
  <time>2026-08-28T17:50:18Z</time>
  <course>0.0</course>
  <speed>0.0</speed>
  <fix>3d</fix>
</trkpt>
<trkpt lat="40.0713749" lon="-105.229789">
  <ele>1583.0</ele>
  <time>2026-08-28T17:50:18Z</time>
  <course>248.22</course>
  <speed>0.01</speed>
  <fix>3d</fix>
</trkpt>
<trkpt lat="40.0713749" lon="-105.229789">
  <ele>1583.0</ele>
  <time>2026-08-28T17:50:18Z</time>
  <course>0.0</course>
  <speed>0.0</speed>
  <fix>3d</fix>
</trkpt>
<trkpt lat="40.0713749" lon="-105.229789">
  <ele>1583.0</ele>
  <time>2026-08-28T17:50:18Z</time>
  <course>248.21</course>
  <speed>0.01</speed>
  <fix>3d</fix>
</trkpt>
<trkpt lat="40.0713749" lon="-105.229789">
  <ele>1583.0</ele>
  <time>2026-08-28T17:50:18Z</time>
  <course>0.0</course>
  <speed>0.0</speed>
  <fix>3d</fix>
</trkpt>
<trkpt lat="40.0713749" lon="-105.229789">
  <ele>1583.0</ele>
  <time>2026-08-28T17:50:18Z</time>
  <course>248.21</course>
  <speed>0.01</speed>
  <fix>3d</fix>
</trkpt>
<trkpt lat="40.0713749" lon="-105.229789">
  <ele>1583.0</ele>
  <time>2026-08-28T17:50:18Z</time>
  <course>0.0</course>
  <speed>0.0</speed>
  <fix>3d</fix>
</trkpt>
<trkpt lat="40.0713749" lon="-105.229789">
  <ele>1583.0</ele>
  <time>2026-08-28T17:50:18Z</time>
  <course>248.2</course>
  <speed>0.01</speed>
  <fix>3d</fix>
</trkpt>
<trkpt lat="40.0713749" lon="-105.229789">
  <ele>1583.0</ele>
  <time>2026-08-28T17:50:18Z</time>
  <course>0.0</course>
  <speed>0.0</speed>
  <fix>3d</fix>
</trkpt>
<trkpt lat="40.0713749" lon="-105.229789">
  <ele>1583.0</ele>
  <time>2026-08-28T17:50:18Z</time>
  <course>248.2</course>
  <speed>0.01</speed>
  <fix>3d</fix>
</trkpt>
<trkpt lat="40.0713749" lon="-105.229789">
  <ele>1583.0</ele>
  <time>2026-08-28T17:50:18Z</time>
  <course>0.0</course>
  <speed>0.0</speed>
  <fix>3d</fix>
</trkpt>
<trkpt lat="40.0713749" lon="-105.229789">
  <ele>1583.0</ele>
  <time>2026-08-28T17:50:18Z</time>
  <course>248.19</course>
  <speed>0.01</speed>
  <fix>3d</fix>
</trkpt>
<trkpt lat="40.0713749" lon="-105.229789">
  <ele>1583.0</ele>
  <time>2026-08-28T17:50:18Z</time>
  <course>0.0</course>
  <speed>0.0</speed>
  <fix>3d</fix>
</trkpt>
<trkpt lat="40.0713749" lon="-105.229789">
  <ele>1583.0</ele>
  <time>2026-08-28T17:50:18Z</time>
  <course>248.19</course>
  <speed>0.01</speed>
  <fix>3d</fix>
</trkpt>
<trkpt lat="40.0713749" lon="-105.229789">
  <ele>1583.0</ele>
  <time>2026-08-28T17:50:18Z</time>
  <course>0.0</course>
  <speed>0.0</speed>
  <fix>3d</fix>
</trkpt>
<trkpt lat="40.0713749" lon="-105.229789">
  <ele>1583.0</ele>
  <time>2026-08-28T17:50:18Z</time>
  <course>248.18</course>
  <speed>0.01</speed>
  <fix>3d</fix>
</trkpt>
<trkpt lat="40.0713749" lon="-105.229789">
  <ele>1583.0</ele>
  <time>2026-08-28T17:50:18Z</time>
  <course>0.0</course>
  <speed>0.0</speed>
  <fix>3d</fix>
</trkpt>
<trkpt lat="40.0713749" lon="-105.229789">
  <ele>1583.0</ele>
  <time>2026-08-28T17:50:18Z</time>
  <course>248.18</course>
  <speed>0.01</speed>
  <fix>3d</fix>
</trkpt>
<trkpt lat="40.0713749" lon="-105.229789">
  <ele>1583.0</ele>
  <time>2026-08-28T17:50:18Z</time>
  <course>0.0</course>
  <speed>0.0</speed>
  <fix>3d</fix>
</trkpt>
<trkpt lat="40.0713749" lon="-105.229789">
  <ele>1583.0</ele>
  <time>2026-08-28T17:50:18Z</time>
  <course>248.17</course>
  <speed>0.022360679774997897</speed>
  <fix>3d</fix>
</trkpt>
<trkpt lat="40.0713749" lon="-105.229789">
  <ele>1583.0</ele>
  <time>2026-08-28T17:50:18Z</time>
  <course>0.0</course>
  <speed>0.0</speed>
  <fix>3d</fix>
</trkpt>
<trkpt lat="40.0713749" lon="-105.229789">
  <ele>1583.0</ele>
  <time>2026-08-28T17:50:18Z</time>
  <course>248.17</course>
  <speed>0.022360679774997897</speed>
  <fix>3d</fix>
</trkpt>
<trkpt lat="40.0713749" lon="-105.229789">
  <ele>1583.0</ele>
  <time>2026-08-28T17:50:18Z</time>
  <course>0.0</course>
  <speed>0.0</speed>
  <fix>3d</fix>
</trkpt>
<trkpt lat="40.0713749" lon="-105.229789">
  <ele>1583.0</ele>
  <time>2026-08-28T17:50:18Z</time>
  <course>248.16</course>
  <speed>0.022360679774997897</speed>
  <fix>3d</fix>
</trkpt>
<trkpt lat="40.0713749" lon="-105.229789">
  <ele>1583.0</ele>
  <time>2026-08-28T17:50:18Z</time>
  <course>0.0</course>
  <speed>0.0</speed>
  <fix>3d</fix>
</trkpt>
<trkpt lat="40.0713749" lon="-105.229789">
  <ele>1583.0</ele>
  <time>2026-08-28T17:50:18Z</time>
  <course>248.16</course>
  <speed>0.022360679774997897</speed>
  <fix>3d</fix>
</trkpt>
<trkpt lat="40.0713749" lon="-105.229789">
  <ele>1583.0</ele>
  <time>2026-08-28T17:50:18Z</time>
  <course>0.0</course>
  <speed>0.0</speed>
  <fix>3d</fix>
</trkpt>
<trkpt lat="40.0713749" lon="-105.229789">
  <ele>1583.0</ele>
  <time>2026-08-28T17:50:18Z</time>
  <course>248.15</course>
  <speed>0.022360679774997897</speed>
  <fix>3d</fix>
</trkpt>
<trkpt lat="40.0713749" lon="-105.229789">
  <ele>1583.0</ele>
  <time>2026-08-28T17:50:18Z</time>
  <course>0.0</course>
  <speed>0.0</speed>
  <fix>3d</fix>
</trkpt>
<trkpt lat="40.0713749" lon="-105.229789">
  <ele>1583.0</ele>
  <time>2026-08-28T17:50:18Z</time>
  <course>248.15</course>
  <speed>0.022360679774997897</speed>
  <fix>3d</fix>
</trkpt>
<trkpt lat="40.0713749" lon="-105.229789">
  <ele>1583.0</ele>
  <time>2026-08-28T17:50:18Z</time>
  <course>0.0</course>
  <speed>0.0</speed>
  <fix>3d</fix>
</trkpt>
<trkpt lat="40.0713749" lon="-105.229789">
  <ele>1583.0</ele>
  <time>2026-08-28T17:50:18Z</time>
  <course>248.14</course>
  <speed>0.022360679774997897</speed>
  <fix>3d</fix>
</trkpt>
<trkpt lat="40.0713749" lon="-105.229789">
  <ele>1583.0</ele>
  <time>2026-08-28T17:50:18Z</time>
  <course>0.0</course>
  <speed>0.0</speed>
  <fix>3d</fix>
</trkpt>
<trkpt lat="40.0713749" lon="-105.229789">
  <ele>1583.0</ele>
  <time>2026-08-28T17:50:18Z</time>
  <course>248.14</course>
  <speed>0.022360679774997897</speed>
  <fix>3d</fix>
</trkpt>
<trkpt lat="40.0713749" lon="-105.229789">
  <ele>1583.0</ele>
  <time>2026-08-28T17:50:18Z</time>
  <course>0.0</course>
  <speed>0.0</speed>
  <fix>3d</fix>
</trkpt>
<trkpt lat="40.0713749" lon="-105.229789">
  <ele>1583.0</ele>
  <time>2026-08-28T17:50:18Z</time>
  <course>248.13</course>
  <speed>0.022360679774997897</speed>
  <fix>3d</fix>
</trkpt>
<trkpt lat="40.0713749" lon="-105.229789">
  <ele>1583.0</ele>
  <time>2026-08-28T17:50:18Z</time>
  <course>0.0</course>
  <speed>0.0</speed>
  <fix>3d</fix>
</trkpt>
<trkpt lat="40.0713749" lon="-105.229789">
  <ele>1583.0</ele>
  <time>2026-08-28T17:50:18Z</time>
  <course>248.13</course>
  <speed>0.022360679774997897</speed>
  <fix>3d</fix>
</trkpt>
<trkpt lat="40.0713749" lon="-105.229789">
  <ele>1583.0</ele>
  <time>2026-08-28T17:50:18Z</time>
  <course>0.0</course>
  <speed>0.0</speed>
  <fix>3d</fix>
</trkpt>
<trkpt lat="40.0713749" lon="-105.229789">
  <ele>1583.0</ele>
  <time>2026-08-28T17:50:18Z</time>
  <course>248.12</course>
  <speed>0.022360679774997897</speed>
  <fix>3d</fix>
</trkpt>
<trkpt lat="40.0713749" lon="-105.229789">
  <ele>1583.0</ele>
  <time>2026-08-28T17:50:18Z</time>
  <course>0.0</course>
  <speed>0.0</speed>
  <fix>3d</fix>
</trkpt>
<trkpt lat="40.0713749" lon="-105.229789">
  <ele>1583.0</ele>
  <time>2026-08-28T17:50:18Z</time>
  <course>248.12</course>
  <speed>0.022360679774997897</speed>
  <fix>3d</fix>
</trkpt>
<trkpt lat="40.0713749" lon="-105.229789">
  <ele>1583.0</ele>
  <time>2026-08-28T17:50:18Z</time>
  <course>0.0</course>
  <speed>0.0</speed>
  <fix>3d</fix>
</trkpt>
<trkpt lat="40.0713749" lon="-105.229789">
  <ele>1583.0</ele>
  <time>2026-08-28T17:50:18Z</time>
  <course>248.11</course>
  <speed>0.022360679774997897</speed>
  <fix>3d</fix>
</trkpt>
<trkpt lat="40.0713749" lon="-105.229789">
  <ele>1583.0</ele>
  <time>2026-08-28T17:50:18Z</time>
  <course>0.0</course>
  <speed>0.0</speed>
  <fix>3d</fix>
</trkpt>
<trkpt lat="40.0713749" lon="-105.229789">
  <ele>1583.0</ele>
  <time>2026-08-28T17:50:18Z</time>
  <course>248.11</course>
  <speed>0.022360679774997897</speed>
  <fix>3d</fix>
</trkpt>
<trkpt lat="40.0713749" lon="-105.229789">
  <ele>1583.0</ele>
  <time>2026-08-28T17:50:18Z</time>
  <course>0.0</course>
  <speed>0.0</speed>
  <fix>3d</fix>
</trkpt>
<trkpt lat="40.0713749" lon="-105.229789">
  <ele>1583.0</ele>
  <time>2026-08-28T17:50:18Z</time>
  <course>248.1</course>
  <speed>0.022360679774997897</speed>
  <fix>3d</fix>
</trkpt>
<trkpt lat="40.0713749" lon="-105.229789">
  <ele>1583.0</ele>
  <time>2026-08-28T17:50:18Z</time>
  <course>0.0</course>
  <speed>0.0</speed>
  <fix>3d</fix>
</trkpt>
<trkpt lat="40.0713749" lon="-105.229789">
  <ele>1583.0</ele>
  <time>2026-08-28T17:50:18Z</time>
  <course>248.1</course>
  <speed>0.022360679774997897</speed>
  <fix>3d</fix>
</trkpt>
<trkpt lat="40.0713749" lon="-105.229789">
  <ele>1583.0</ele>
  <time>2026-08-28T17:50:18Z</time>
  <course>0.0</course>
  <speed>0.0</speed>
  <fix>3d</fix>
</trkpt>
<trkpt lat="40.0713749" lon="-105.229789">
  <ele>1583.0</ele>
  <time>2026-08-28T17:50:18Z</time>
  <course>248.09</course>
  <speed>0.022360679774997897</speed>
  <fix>3d</fix>
</trkpt>
<trkpt lat="40.0713749" lon="-105.229789">
  <ele>1583.0</ele>
  <time>2026-08-28T17:50:18Z</time>
  <course>0.0</course>
  <speed>0.0</speed>
  <fix>3d</fix>
</trkpt>
<trkpt lat="40.0713749" lon="-105.229789">
  <ele>1583.0</ele>
  <time>2026-08-28T17:50:18Z</time>
  <course>248.09</course>
  <speed>0.022360679774997897</speed>
  <fix>3d</fix>
</trkpt>
<trkpt lat="40.0713749" lon="-105.229789">
  <ele>1583.0</ele>
  <time>2026-08-28T17:50:18Z</time>
  <course>0.0</course>
  <speed>0.0</speed>
  <fix>3d</fix>
</trkpt>
<trkpt lat="40.0713749" lon="-105.229789">
  <ele>1583.0</ele>
  <time>2026-08-28T17:50:18Z</time>
  <course>248.08</course>
  <speed>0.022360679774997897</speed>
  <fix>3d</fix>
</trkpt>
<trkpt lat="40.0713749" lon="-105.229789">
  <ele>1583.0</ele>
  <time>2026-08-28T17:50:18Z</time>
  <course>0.0</course>
  <speed>0.0</speed>
  <fix>3d</fix>
</trkpt>
<trkpt lat="40.0713749" lon="-105.229789">
  <ele>1583.0</ele>
  <time>2026-08-28T17:50:18Z</time>
  <course>248.08</course>
  <speed>0.022360679774997897</speed>
  <fix>3d</fix>
</trkpt>
<trkpt lat="40.0713749" lon="-105.229789">
  <ele>1583.0</ele>
  <time>2026-08-28T17:50:18Z</time>
  <course>0.0</course>
  <speed>0.0</speed>
  <fix>3d</fix>
</trkpt>
<trkpt lat="40.0713749" lon="-105.229789">
  <ele>1583.0</ele>
  <time>2026-08-28T17:50:18Z</time>
  <course>248.07</course>
  <speed>0.022360679774997897</speed>
  <fix>3d</fix>
</trkpt>
<trkpt lat="40.0713749" lon="-105.229789">
  <ele>1583.0</ele>
  <time>2026-08-28T17:50:18Z</time>
  <course>0.0</course>
  <speed>0.0</speed>
  <fix>3d</fix>
</trkpt>
<trkpt lat="40.0713749" lon="-105.229789">
  <ele>1583.0</ele>
  <time>2026-08-28T17:50:18Z</time>
  <course>248.07</course>
  <speed>0.022360679774997897</speed>
  <fix>3d</fix>
</trkpt>
<trkpt lat="40.0713749" lon="-105.229789">
  <ele>1583.0</ele>
  <time>2026-08-28T17:50:18Z</time>
  <course>0.0</course>
  <speed>0.0</speed>
  <fix>3d</fix>
</trkpt>
<trkpt lat="40.0713749" lon="-105.229789">
  <ele>1583.0</ele>
  <time>2026-08-28T17:50:18Z</time>
  <course>248.06</course>
  <speed>0.022360679774997897</speed>
  <fix>3d</fix>
</trkpt>
<trkpt lat="40.0713749" lon="-105.229789">
  <ele>1583.0</ele>
  <time>2026-08-28T17:50:18Z</time>
  <course>0.0</course>
  <speed>0.0</speed>
  <fix>3d</fix>
</trkpt>
<trkpt lat="40.0713749" lon="-105.229789">
  <ele>1583.0</ele>
  <time>2026-08-28T17:50:18Z</time>
  <course>248.06</course>
  <speed>0.022360679774997897</speed>
  <fix>3d</fix>
</trkpt>
<trkpt lat="40.0713749" lon="-105.229789">
  <ele>1583.0</ele>
  <time>2026-08-28T17:50:18Z</time>
  <course>0.0</course>
  <speed>0.0</speed>
  <fix>3d</fix>
</trkpt>
<trkpt lat="40.0713749" lon="-105.229789">
  <ele>1583.0</ele>
  <time>2026-08-28T17:50:18Z</time>
  <course>248.05</course>
  <speed>0.022360679774997897</speed>
  <fix>3d</fix>
</trkpt>
<trkpt lat="40.0713749" lon="-105.229789">
  <ele>1583.0</ele>
  <time>2026-08-28T17:50:18Z</time>
  <course>0.0</course>
  <speed>0.0</speed>
  <fix>3d</fix>
</trkpt>
<trkpt lat="40.0713749" lon="-105.229789">
  <ele>1583.0</ele>
  <time>2026-08-28T17:50:18Z</time>
  <course>248.05</course>
  <speed>0.022360679774997897</speed>
  <fix>3d</fix>
</trkpt>
<trkpt lat="40.0713749" lon="-105.229789">
  <ele>1583.0</ele>
  <time>2026-08-28T17:50:18Z</time>
  <course>0.0</course>
  <speed>0.0</speed>
  <fix>3d</fix>
</trkpt>
<trkpt lat="40.0713749" lon="-105.229789">
  <ele>1583.0</ele>
  <time>2026-08-28T17:50:18Z</time>
  <course>248.05</course>
  <speed>0.022360679774997897</speed>
  <fix>3d</fix>
</trkpt>
<trkpt lat="40.0713749" lon="-105.229789">
  <ele>1583.0</ele>
  <time>2026-08-28T17:50:18Z</time>
  <course>0.0</course>
  <speed>0.0</speed>
  <fix>3d</fix>
</trkpt>
<trkpt lat="40.0713749" lon="-105.229789">
  <ele>1583.0</ele>
  <time>2026-08-28T17:50:18Z</time>
  <course>248.04</course>
  <speed>0.022360679774997897</speed>
  <fix>3d</fix>
</trkpt>
<trkpt lat="40.0713749" lon="-105.229789">
  <ele>1583.0</ele>
  <time>2026-08-28T17:50:18Z</time>
  <course>0.0</course>
  <speed>0.0</speed>
  <fix>3d</fix>
</trkpt>
<trkpt lat="40.0713749" lon="-105.229789">
  <ele>1583.0</ele>
  <time>2026-08-28T17:50:18Z</time>
  <course>248.04</course>
  <speed>0.022360679774997897</speed>
  <fix>3d</fix>
</trkpt>
<trkpt lat="40.0713749" lon="-105.229789">
  <ele>1583.0</ele>
  <time>2026-08-28T17:50:18Z</time>
  <course>0.0</course>
  <speed>0.0</speed>
  <fix>3d</fix>
</trkpt>
<trkpt lat="40.0713749" lon="-105.229789">
  <ele>1583.0</ele>
  <time>2026-08-28T17:50:18Z</time>
  <course>248.03</course>
  <speed>0.022360679774997897</speed>
  <fix>3d</fix>
</trkpt>
<trkpt lat="40.0713749" lon="-105.229789">
  <ele>1583.0</ele>
  <time>2026-08-28T17:50:18Z</time>
  <course>0.0</course>
  <speed>0.0</speed>
  <fix>3d</fix>
</trkpt>
<trkpt lat="40.0713749" lon="-105.229789">
  <ele>1583.0</ele>
  <time>2026-08-28T17:50:18Z</time>
  <course>248.03</course>
  <speed>0.022360679774997897</speed>
  <fix>3d</fix>
</trkpt>
<trkpt lat="40.0713749" lon="-105.229789">
  <ele>1583.0</ele>
  <time>2026-08-28T17:50:18Z</time>
  <course>0.0</course>
  <speed>0.0</speed>
  <fix>3d</fix>
</trkpt>
<trkpt lat="40.0713749" lon="-105.229789">
  <ele>1583.0</ele>
  <time>2026-08-28T17:50:18Z</time>
  <course>248.02</course>
  <speed>0.022360679774997897</speed>
  <fix>3d</fix>
</trkpt>
<trkpt lat="40.0713749" lon="-105.229789">
  <ele>1583.0</ele>
  <time>2026-08-28T17:50:18Z</time>
  <course>0.0</course>
  <speed>0.0</speed>
  <fix>3d</fix>
</trkpt>
<trkpt lat="40.0713749" lon="-105.229789">
  <ele>1583.0</ele>
  <time>2026-08-28T17:50:18Z</time>
  <course>248.02</course>
  <speed>0.022360679774997897</speed>
  <fix>3d</fix>
</trkpt>
<trkpt lat="40.0713749" lon="-105.229789">
  <ele>1583.0</ele>
  <time>2026-08-28T17:50:18Z</time>
  <course>0.0</course>
  <speed>0.0</speed>
  <fix>3d</fix>
</trkpt>
<trkpt lat="40.0713749" lon="-105.229789">
  <ele>1583.0</ele>
  <time>2026-08-28T17:50:18Z</time>
  <course>248.01</course>
  <speed>0.022360679774997897</speed>
  <fix>3d</fix>
</trkpt>
<trkpt lat="40.0713749" lon="-105.229789">
  <ele>1583.0</ele>
  <time>2026-08-28T17:50:18Z</time>
  <course>0.0</course>
  <speed>0.0</speed>
  <fix>3d</fix>
</trkpt>
<trkpt lat="40.0713749" lon="-105.229789">
  <ele>1583.0</ele>
  <time>2026-08-28T17:50:18Z</time>
  <course>248.01</course>
  <speed>0.022360679774997897</speed>
  <fix>3d</fix>
</trkpt>
<trkpt lat="40.0713749" lon="-105.229789">
  <ele>1583.0</ele>
  <time>2026-08-28T17:50:18Z</time>
  <course>0.0</course>
  <speed>0.0</speed>
  <fix>3d</fix>
</trkpt>
<trkpt lat="40.0713749" lon="-105.229789">
  <ele>1583.0</ele>
  <time>2026-08-28T17:50:18Z</time>
  <course>248.0</course>
  <speed>0.022360679774997897</speed>
  <fix>3d</fix>
</trkpt>
<trkpt lat="40.0713749" lon="-105.229789">
  <ele>1583.0</ele>
  <time>2026-08-28T17:50:18Z</time>
  <course>0.0</course>
  <speed>0.0</speed>
  <fix>3d</fix>
</trkpt>
<trkpt lat="40.0713749" lon="-105.229789">
  <ele>1583.0</ele>
  <time>2026-08-28T17:50:18Z</time>
  <course>248.0</course>
  <speed>0.022360679774997897</speed>
  <fix>3d</fix>
</trkpt>
<trkpt lat="40.0713749" lon="-105.229789">
  <ele>1583.0</ele>
  <time>2026-08-28T17:50:18Z</time>
  <course>0.0</course>
  <speed>0.0</speed>
  <fix>3d</fix>
</trkpt>
<trkpt lat="40.0713749" lon="-105.229789">
  <ele>1583.0</ele>
  <time>2026-08-28T17:50:18Z</time>
  <course>247.99</course>
  <speed>0.022360679774997897</speed>
  <fix>3d</fix>
</trkpt>
<trkpt lat="40.0713749" lon="-105.229789">
  <ele>1583.0</ele>
  <time>2026-08-28T17:50:18Z</time>
  <course>0.0</course>
  <speed>0.0</speed>
  <fix>3d</fix>
</trkpt>
<trkpt lat="40.0713749" lon="-105.229789">
  <ele>1583.0</ele>
  <time>2026-08-28T17:50:18Z</time>
  <course>247.99</course>
  <speed>0.022360679774997897</speed>
  <fix>3d</fix>
</trkpt>
<trkpt lat="40.0713749" lon="-105.229789">
  <ele>1583.0</ele>
  <time>2026-08-28T17:50:18Z</time>
  <course>0.0</course>
  <speed>0.0</speed>
  <fix>3d</fix>
</trkpt>
<trkpt lat="40.0713749" lon="-105.229789">
  <ele>1583.0</ele>
  <time>2026-08-28T17:50:18Z</time>
  <course>247.99</course>
  <speed>0.022360679774997897</speed>
  <fix>3d</fix>
</trkpt>
<trkpt lat="40.0713749" lon="-105.229789">
  <ele>1583.0</ele>
  <time>2026-08-28T17:50:18Z</time>
  <course>0.0</course>
  <speed>0.0</speed>
  <fix>3d</fix>
</trkpt>
<trkpt lat="40.0713749" lon="-105.229789">
  <ele>1583.0</ele>
  <time>2026-08-28T17:50:18Z</time>
  <course>247.98</course>
  <speed>0.022360679774997897</speed>
  <fix>3d</fix>
</trkpt>
<trkpt lat="40.0713749" lon="-105.229789">
  <ele>1583.0</ele>
  <time>2026-08-28T17:50:18Z</time>
  <course>0.0</course>
  <speed>0.0</speed>
  <fix>3d</fix>
</trkpt>
<trkpt lat="40.0713749" lon="-105.229789">
  <ele>1583.0</ele>
  <time>2026-08-28T17:50:18Z</time>
  <course>247.98</course>
  <speed>0.022360679774997897</speed>
  <fix>3d</fix>
</trkpt>
<trkpt lat="40.0713749" lon="-105.229789">
  <ele>1583.0</ele>
  <time>2026-08-28T17:50:18Z</time>
  <course>0.0</course>
  <speed>0.0</speed>
  <fix>3d</fix>
</trkpt>
<trkpt lat="40.0713749" lon="-105.229789">
  <ele>1583.0</ele>
  <time>2026-08-28T17:50:18Z</time>
  <course>247.97</course>
  <speed>0.022360679774997897</speed>
  <fix>3d</fix>
</trkpt>
<trkpt lat="40.0713749" lon="-105.229789">
  <ele>1583.0</ele>
  <time>2026-08-28T17:50:18Z</time>
  <course>0.0</course>
  <speed>0.0</speed>
  <fix>3d</fix>
</trkpt>
<trkpt lat="40.0713749" lon="-105.229789">
  <ele>1583.0</ele>
  <time>2026-08-28T17:50:18Z</time>
  <course>247.97</course>
  <speed>0.022360679774997897</speed>
  <fix>3d</fix>
</trkpt>
<trkpt lat="40.0713749" lon="-105.229789">
  <ele>1583.0</ele>
  <time>2026-08-28T17:50:18Z</time>
  <course>0.0</course>
  <speed>0.0</speed>
  <fix>3d</fix>
</trkpt>
<trkpt lat="40.0713749" lon="-105.229789">
  <ele>1583.0</ele>
  <time>2026-08-28T17:50:18Z</time>
  <course>247.96</course>
  <speed>0.022360679774997897</speed>
  <fix>3d</fix>
</trkpt>
<trkpt lat="40.0713749" lon="-105.229789">
  <ele>1583.0</ele>
  <time>2026-08-28T17:50:18Z</time>
  <course>0.0</course>
  <speed>0.0</speed>
  <fix>3d</fix>
</trkpt>
<trkpt lat="40.0713749" lon="-105.229789">
  <ele>1583.0</ele>
  <time>2026-08-28T17:50:18Z</time>
  <course>247.96</course>
  <speed>0.022360679774997897</speed>
  <fix>3d</fix>
</trkpt>
<trkpt lat="40.0713749" lon="-105.229789">
  <ele>1583.0</ele>
  <time>2026-08-28T17:50:18Z</time>
  <course>0.0</course>
  <speed>0.0</speed>
  <fix>3d</fix>
</trkpt>
<trkpt lat="40.0713749" lon="-105.229789">
  <ele>1583.0</ele>
  <time>2026-08-28T17:50:18Z</time>
  <course>247.95</course>
  <speed>0.022360679774997897</speed>
  <fix>3d</fix>
</trkpt>
<trkpt lat="40.0713749" lon="-105.229789">
  <ele>1583.0</ele>
  <time>2026-08-28T17:50:18Z</time>
  <course>0.0</course>
  <speed>0.0</speed>
  <fix>3d</fix>
</trkpt>
<trkpt lat="40.0713749" lon="-105.229789">
  <ele>1583.0</ele>
  <time>2026-08-28T17:50:18Z</time>
  <course>247.95</course>
  <speed>0.022360679774997897</speed>
  <fix>3d</fix>
</trkpt>
<trkpt lat="40.0713749" lon="-105.229789">
  <ele>1583.0</ele>
  <time>2026-08-28T17:50:18Z</time>
  <course>0.0</course>
  <speed>0.0</speed>
  <fix>3d</fix>
</trkpt>
<trkpt lat="40.0713749" lon="-105.229789">
  <ele>1583.0</ele>
  <time>2026-08-28T17:50:18Z</time>
  <course>247.95</course>
  <speed>0.022360679774997897</speed>
  <fix>3d</fix>
</trkpt>
<trkpt lat="40.0713749" lon="-105.229789">
  <ele>1583.0</ele>
  <time>2026-08-28T17:50:18Z</time>
  <course>0.0</course>
  <speed>0.0</speed>
  <fix>3d</fix>
</trkpt>
<trkpt lat="40.0713749" lon="-105.229789">
  <ele>1583.0</ele>
  <time>2026-08-28T17:50:18Z</time>
  <course>247.94</course>
  <speed>0.022360679774997897</speed>
  <fix>3d</fix>
</trkpt>
<trkpt lat="40.0713749" lon="-105.229789">
  <ele>1583.0</ele>
  <time>2026-08-28T17:50:18Z</time>
  <course>0.0</course>
  <speed>0.0</speed>
  <fix>3d</fix>
</trkpt>
<trkpt lat="40.0713749" lon="-105.229789">
  <ele>1583.0</ele>
  <time>2026-08-28T17:50:18Z</time>
  <course>247.94</course>
  <speed>0.022360679774997897</speed>
  <fix>3d</fix>
</trkpt>
<trkpt lat="40.0713749" lon="-105.229789">
  <ele>1583.0</ele>
  <time>2026-08-28T17:50:18Z</time>
  <course>0.0</course>
  <speed>0.0</speed>
  <fix>3d</fix>
</trkpt>
<trkpt lat="40.0713749" lon="-105.229789">
  <ele>1583.0</ele>
  <time>2026-08-28T17:50:18Z</time>
  <course>247.93</course>
  <speed>0.022360679774997897</speed>
  <fix>3d</fix>
</trkpt>
<trkpt lat="40.0713749" lon="-105.229789">
  <ele>1583.0</ele>
  <time>2026-08-28T17:50:18Z</time>
  <course>0.0</course>
  <speed>0.0</speed>
  <fix>3d</fix>
</trkpt>
<trkpt lat="40.0713749" lon="-105.229789">
  <ele>1583.0</ele>
  <time>2026-08-28T17:50:18Z</time>
  <course>247.93</course>
  <speed>0.022360679774997897</speed>
  <fix>3d</fix>
</trkpt>
<trkpt lat="40.0713749" lon="-105.229789">
  <ele>1583.0</ele>
  <time>2026-08-28T17:50:18Z</time>
  <course>0.0</course>
  <speed>0.0</speed>
  <fix>3d</fix>
</trkpt>
<trkpt lat="40.0713749" lon="-105.229789">
  <ele>1583.0</ele>
  <time>2026-08-28T17:50:18Z</time>
  <course>247.92</course>
  <speed>0.022360679774997897</speed>
  <fix>3d</fix>
</trkpt>
<trkpt lat="40.0713749" lon="-105.229789">
  <ele>1583.0</ele>
  <time>2026-08-28T17:50:18Z</time>
  <course>0.0</course>
  <speed>0.0</speed>
  <fix>3d</fix>
</trkpt>
<trkpt lat="40.0713749" lon="-105.229789">
  <ele>1583.0</ele>
  <time>2026-08-28T17:50:18Z</time>
  <course>247.92</course>
  <speed>0.022360679774997897</speed>
  <fix>3d</fix>
</trkpt>
<trkpt lat="40.0713749" lon="-105.229789">
  <ele>1583.0</ele>
  <time>2026-08-28T17:50:18Z</time>
  <course>0.0</course>
  <speed>0.0</speed>
  <fix>3d</fix>
</trkpt>
<trkpt lat="40.0713749" lon="-105.229789">
  <ele>1583.0</ele>
  <time>2026-08-28T17:50:18Z</time>
  <course>247.92</course>
  <speed>0.022360679774997897</speed>
  <fix>3d</fix>
</trkpt>
<trkpt lat="40.0713749" lon="-105.229789">
  <ele>1583.0</ele>
  <time>2026-08-28T17:50:18Z</time>
  <course>0.0</course>
  <speed>0.0</speed>
  <fix>3d</fix>
</trkpt>
<trkpt lat="40.0713749" lon="-105.229789">
  <ele>1583.0</ele>
  <time>2026-08-28T17:50:18Z</time>
  <course>247.91</course>
  <speed>0.022360679774997897</speed>
  <fix>3d</fix>
</trkpt>
<trkpt lat="40.0713749" lon="-105.229789">
  <ele>1583.0</ele>
  <time>2026-08-28T17:50:18Z</time>
  <course>0.0</course>
  <speed>0.0</speed>
  <fix>3d</fix>
</trkpt>
<trkpt lat="40.0713749" lon="-105.229789">
  <ele>1583.0</ele>
  <time>2026-08-28T17:50:18Z</time>
  <course>247.91</course>
  <speed>0.022360679774997897</speed>
  <fix>3d</fix>
</trkpt>
<trkpt lat="40.0713749" lon="-105.229789">
  <ele>1583.0</ele>
  <time>2026-08-28T17:50:18Z</time>
  <course>0.0</course>
  <speed>0.0</speed>
  <fix>3d</fix>
</trkpt>
<trkpt lat="40.0713749" lon="-105.229789">
  <ele>1583.0</ele>
  <time>2026-08-28T17:50:18Z</time>
  <course>247.9</course>
  <speed>0.022360679774997897</speed>
  <fix>3d</fix>
</trkpt>
<trkpt lat="40.0713749" lon="-105.229789">
  <ele>1583.0</ele>
  <time>2026-08-28T17:50:18Z</time>
  <course>0.0</course>
  <speed>0.0</speed>
  <fix>3d</fix>
</trkpt>
<trkpt lat="40.0713749" lon="-105.229789">
  <ele>1583.0</ele>
  <time>2026-08-28T17:50:18Z</time>
  <course>247.9</course>
  <speed>0.022360679774997897</speed>
  <fix>3d</fix>
</trkpt>
<trkpt lat="40.0713749" lon="-105.229789">
  <ele>1583.0</ele>
  <time>2026-08-28T17:50:18Z</time>
  <course>0.0</course>
  <speed>0.0</speed>
  <fix>3d</fix>
</trkpt>
<trkpt lat="40.0713749" lon="-105.229789">
  <ele>1583.0</ele>
  <time>2026-08-28T17:50:18Z</time>
  <course>247.89</course>
  <speed>0.022360679774997897</speed>
  <fix>3d</fix>
</trkpt>
<trkpt lat="40.0713749" lon="-105.229789">
  <ele>1583.0</ele>
  <time>2026-08-28T17:50:18Z</time>
  <course>0.0</course>
  <speed>0.0</speed>
  <fix>3d</fix>
</trkpt>
<trkpt lat="40.0713749" lon="-105.229789">
  <ele>1583.0</ele>
  <time>2026-08-28T17:50:18Z</time>
  <course>247.89</course>
  <speed>0.022360679774997897</speed>
  <fix>3d</fix>
</trkpt>
<trkpt lat="40.0713749" lon="-105.229789">
  <ele>1583.0</ele>
  <time>2026-08-28T17:50:18Z</time>
  <course>0.0</course>
  <speed>0.0</speed>
  <fix>3d</fix>
</trkpt>
<trkpt lat="40.0713749" lon="-105.229789">
  <ele>1583.0</ele>
  <time>2026-08-28T17:50:18Z</time>
  <course>247.89</course>
  <speed>0.022360679774997897</speed>
  <fix>3d</fix>
</trkpt>
<trkpt lat="40.0713749" lon="-105.229789">
  <ele>1583.0</ele>
  <time>2026-08-28T17:50:18Z</time>
  <course>0.0</course>
  <speed>0.0</speed>
  <fix>3d</fix>
</trkpt>
<trkpt lat="40.0713749" lon="-105.229789">
  <ele>1583.0</ele>
  <time>2026-08-28T17:50:18Z</time>
  <course>247.88</course>
  <speed>0.0316227766016838</speed>
  <fix>3d</fix>
</trkpt>
<trkpt lat="40.0713749" lon="-105.229789">
  <ele>1583.0</ele>
  <time>2026-08-28T17:50:18Z</time>
  <course>0.0</course>
  <speed>0.0</speed>
  <fix>3d</fix>
</trkpt>
<trkpt lat="40.0713749" lon="-105.229789">
  <ele>1583.0</ele>
  <time>2026-08-28T17:50:18Z</time>
  <course>247.88</course>
  <speed>0.0316227766016838</speed>
  <fix>3d</fix>
</trkpt>
<trkpt lat="40.0713749" lon="-105.229789">
  <ele>1583.0</ele>
  <time>2026-08-28T17:50:18Z</time>
  <course>0.0</course>
  <speed>0.0</speed>
  <fix>3d</fix>
</trkpt>
<trkpt lat="40.0713749" lon="-105.229789">
  <ele>1583.0</ele>
  <time>2026-08-28T17:50:18Z</time>
  <course>247.87</course>
  <speed>0.0316227766016838</speed>
  <fix>3d</fix>
</trkpt>
<trkpt lat="40.0713749" lon="-105.229789">
  <ele>1583.0</ele>
  <time>2026-08-28T17:50:18Z</time>
  <course>0.0</course>
  <speed>0.0</speed>
  <fix>3d</fix>
</trkpt>
<trkpt lat="40.0713749" lon="-105.229789">
  <ele>1583.0</ele>
  <time>2026-08-28T17:50:18Z</time>
  <course>247.87</course>
  <speed>0.0316227766016838</speed>
  <fix>3d</fix>
</trkpt>
<trkpt lat="40.0713749" lon="-105.229789">
  <ele>1583.0</ele>
  <time>2026-08-28T17:50:18Z</time>
  <course>0.0</course>
  <speed>0.0</speed>
  <fix>3d</fix>
</trkpt>
<trkpt lat="40.0713749" lon="-105.229789">
  <ele>1583.0</ele>
  <time>2026-08-28T17:50:18Z</time>
  <course>247.87</course>
  <speed>0.0316227766016838</speed>
  <fix>3d</fix>
</trkpt>
<trkpt lat="40.0713749" lon="-105.229789">
  <ele>1583.0</ele>
  <time>2026-08-28T17:50:18Z</time>
  <course>0.0</course>
  <speed>0.0</speed>
  <fix>3d</fix>
</trkpt>
<trkpt lat="40.0713749" lon="-105.229789">
  <ele>1583.0</ele>
  <time>2026-08-28T17:50:18Z</time>
  <course>247.86</course>
  <speed>0.0316227766016838</speed>
  <fix>3d</fix>
</trkpt>
<trkpt lat="40.0713749" lon="-105.229789">
  <ele>1583.0</ele>
  <time>2026-08-28T17:50:18Z</time>
  <course>0.0</course>
  <speed>0.0</speed>
  <fix>3d</fix>
</trkpt>
<trkpt lat="40.0713749" lon="-105.229789">
  <ele>1583.0</ele>
  <time>2026-08-28T17:50:18Z</time>
  <course>247.86</course>
  <speed>0.0316227766016838</speed>
  <fix>3d</fix>
</trkpt>
<trkpt lat="40.0713749" lon="-105.229789">
  <ele>1583.0</ele>
  <time>2026-08-28T17:50:18Z</time>
  <course>0.0</course>
  <speed>0.0</speed>
  <fix>3d</fix>
</trkpt>
<trkpt lat="40.0713749" lon="-105.229789">
  <ele>1583.0</ele>
  <time>2026-08-28T17:50:18Z</time>
  <course>247.85</course>
  <speed>0.0316227766016838</speed>
  <fix>3d</fix>
</trkpt>
<trkpt lat="40.0713749" lon="-105.229789">
  <ele>1583.0</ele>
  <time>2026-08-28T17:50:18Z</time>
  <course>0.0</course>
  <speed>0.0</speed>
  <fix>3d</fix>
</trkpt>
<trkpt lat="40.0713749" lon="-105.229789">
  <ele>1583.0</ele>
  <time>2026-08-28T17:50:18Z</time>
  <course>247.85</course>
  <speed>0.0316227766016838</speed>
  <fix>3d</fix>
</trkpt>
<trkpt lat="40.0713749" lon="-105.229789">
  <ele>1583.0</ele>
  <time>2026-08-28T17:50:18Z</time>
  <course>0.0</course>
  <speed>0.0</speed>
  <fix>3d</fix>
</trkpt>
<trkpt lat="40.0713749" lon="-105.229789">
  <ele>1583.0</ele>
  <time>2026-08-28T17:50:18Z</time>
  <course>247.85</course>
  <speed>0.0316227766016838</speed>
  <fix>3d</fix>
</trkpt>
<trkpt lat="40.0713749" lon="-105.229789">
  <ele>1583.0</ele>
  <time>2026-08-28T17:50:18Z</time>
  <course>0.0</course>
  <speed>0.0</speed>
  <fix>3d</fix>
</trkpt>
<trkpt lat="40.0713749" lon="-105.229789">
  <ele>1583.0</ele>
  <time>2026-08-28T17:50:18Z</time>
  <course>247.84</course>
  <speed>0.0316227766016838</speed>
  <fix>3d</fix>
</trkpt>
<trkpt lat="40.0713749" lon="-105.229789">
  <ele>1583.0</ele>
  <time>2026-08-28T17:50:18Z</time>
  <course>0.0</course>
  <speed>0.0</speed>
  <fix>3d</fix>
</trkpt>
<trkpt lat="40.0713749" lon="-105.229789">
  <ele>1583.0</ele>
  <time>2026-08-28T17:50:18Z</time>
  <course>247.84</course>
  <speed>0.0316227766016838</speed>
  <fix>3d</fix>
</trkpt>
<trkpt lat="40.0713749" lon="-105.229789">
  <ele>1583.0</ele>
  <time>2026-08-28T17:50:18Z</time>
  <course>0.0</course>
  <speed>0.0</speed>
  <fix>3d</fix>
</trkpt>
<trkpt lat="40.0713749" lon="-105.229789">
  <ele>1583.0</ele>
  <time>2026-08-28T17:50:18Z</time>
  <course>247.83</course>
  <speed>0.0316227766016838</speed>
  <fix>3d</fix>
</trkpt>
<trkpt lat="40.0713749" lon="-105.229789">
  <ele>1583.0</ele>
  <time>2026-08-28T17:50:18Z</time>
  <course>0.0</course>
  <speed>0.0</speed>
  <fix>3d</fix>
</trkpt>
<trkpt lat="40.0713749" lon="-105.229789">
  <ele>1583.0</ele>
  <time>2026-08-28T17:50:18Z</time>
  <course>247.83</course>
  <speed>0.0316227766016838</speed>
  <fix>3d</fix>
</trkpt>
<trkpt lat="40.0713749" lon="-105.229789">
  <ele>1583.0</ele>
  <time>2026-08-28T17:50:18Z</time>
  <course>0.0</course>
  <speed>0.0</speed>
  <fix>3d</fix>
</trkpt>
<trkpt lat="40.0713749" lon="-105.229789">
  <ele>1583.0</ele>
  <time>2026-08-28T17:50:18Z</time>
  <course>247.83</course>
  <speed>0.0316227766016838</speed>
  <fix>3d</fix>
</trkpt>
<trkpt lat="40.0713749" lon="-105.229789">
  <ele>1583.0</ele>
  <time>2026-08-28T17:50:18Z</time>
  <course>0.0</course>
  <speed>0.0</speed>
  <fix>3d</fix>
</trkpt>
<trkpt lat="40.0713749" lon="-105.229789">
  <ele>1583.0</ele>
  <time>2026-08-28T17:50:18Z</time>
  <course>247.82</course>
  <speed>0.0316227766016838</speed>
  <fix>3d</fix>
</trkpt>
<trkpt lat="40.0713749" lon="-105.229789">
  <ele>1583.0</ele>
  <time>2026-08-28T17:50:18Z</time>
  <course>0.0</course>
  <speed>0.0</speed>
  <fix>3d</fix>
</trkpt>
<trkpt lat="40.0713749" lon="-105.229789">
  <ele>1583.0</ele>
  <time>2026-08-28T17:50:18Z</time>
  <course>247.82</course>
  <speed>0.0316227766016838</speed>
  <fix>3d</fix>
</trkpt>
<trkpt lat="40.0713749" lon="-105.229789">
  <ele>1583.0</ele>
  <time>2026-08-28T17:50:18Z</time>
  <course>0.0</course>
  <speed>0.0</speed>
  <fix>3d</fix>
</trkpt>
<trkpt lat="40.0713749" lon="-105.229789">
  <ele>1583.0</ele>
  <time>2026-08-28T17:50:18Z</time>
  <course>247.82</course>
  <speed>0.0316227766016838</speed>
  <fix>3d</fix>
</trkpt>
<trkpt lat="40.0713749" lon="-105.229789">
  <ele>1583.0</ele>
  <time>2026-08-28T17:50:18Z</time>
  <course>0.0</course>
  <speed>0.0</speed>
  <fix>3d</fix>
</trkpt>
<trkpt lat="40.0713749" lon="-105.229789">
  <ele>1583.0</ele>
  <time>2026-08-28T17:50:18Z</time>
  <course>247.81</course>
  <speed>0.0316227766016838</speed>
  <fix>3d</fix>
</trkpt>
<trkpt lat="40.0713749" lon="-105.229789">
  <ele>1583.0</ele>
  <time>2026-08-28T17:50:18Z</time>
  <course>0.0</course>
  <speed>0.0</speed>
  <fix>3d</fix>
</trkpt>
<trkpt lat="40.0713749" lon="-105.229789">
  <ele>1583.0</ele>
  <time>2026-08-28T17:50:18Z</time>
  <course>247.81</course>
  <speed>0.0316227766016838</speed>
  <fix>3d</fix>
</trkpt>
<trkpt lat="40.0713749" lon="-105.229789">
  <ele>1583.0</ele>
  <time>2026-08-28T17:50:18Z</time>
  <course>0.0</course>
  <speed>0.0</speed>
  <fix>3d</fix>
</trkpt>
<trkpt lat="40.0713749" lon="-105.229789">
  <ele>1583.0</ele>
  <time>2026-08-28T17:50:18Z</time>
  <course>247.8</course>
  <speed>0.0316227766016838</speed>
  <fix>3d</fix>
</trkpt>
<trkpt lat="40.0713749" lon="-105.229789">
  <ele>1583.0</ele>
  <time>2026-08-28T17:50:18Z</time>
  <course>0.0</course>
  <speed>0.0</speed>
  <fix>3d</fix>
</trkpt>
<trkpt lat="40.0713749" lon="-105.229789">
  <ele>1583.0</ele>
  <time>2026-08-28T17:50:18Z</time>
  <course>247.8</course>
  <speed>0.0316227766016838</speed>
  <fix>3d</fix>
</trkpt>
<trkpt lat="40.0713749" lon="-105.229789">
  <ele>1583.0</ele>
  <time>2026-08-28T17:50:18Z</time>
  <course>0.0</course>
  <speed>0.0</speed>
  <fix>3d</fix>
</trkpt>
<trkpt lat="40.0713749" lon="-105.229789">
  <ele>1583.0</ele>
  <time>2026-08-28T17:50:18Z</time>
  <course>247.8</course>
  <speed>0.0316227766016838</speed>
  <fix>3d</fix>
</trkpt>
<trkpt lat="40.0713749" lon="-105.229789">
  <ele>1583.0</ele>
  <time>2026-08-28T17:50:18Z</time>
  <course>0.0</course>
  <speed>0.0</speed>
  <fix>3d</fix>
</trkpt>
<trkpt lat="40.0713749" lon="-105.229789">
  <ele>1583.0</ele>
  <time>2026-08-28T17:50:18Z</time>
  <course>247.79</course>
  <speed>0.0316227766016838</speed>
  <fix>3d</fix>
</trkpt>
<trkpt lat="40.0713749" lon="-105.229789">
  <ele>1583.0</ele>
  <time>2026-08-28T17:50:18Z</time>
  <course>0.0</course>
  <speed>0.0</speed>
  <fix>3d</fix>
</trkpt>
<trkpt lat="40.0713749" lon="-105.229789">
  <ele>1583.0</ele>
  <time>2026-08-28T17:50:18Z</time>
  <course>247.79</course>
  <speed>0.0316227766016838</speed>
  <fix>3d</fix>
</trkpt>
<trkpt lat="40.0713749" lon="-105.229789">
  <ele>1583.0</ele>
  <time>2026-08-28T17:50:18Z</time>
  <course>0.0</course>
  <speed>0.0</speed>
  <fix>3d</fix>
</trkpt>
<trkpt lat="40.0713749" lon="-105.229789">
  <ele>1583.0</ele>
  <time>2026-08-28T17:50:18Z</time>
  <course>247.79</course>
  <speed>0.0316227766016838</speed>
  <fix>3d</fix>
</trkpt>
<trkpt lat="40.0713749" lon="-105.229789">
  <ele>1583.0</ele>
  <time>2026-08-28T17:50:18Z</time>
  <course>0.0</course>
  <speed>0.0</speed>
  <fix>3d</fix>
</trkpt>
<trkpt lat="40.0713749" lon="-105.229789">
  <ele>1583.0</ele>
  <time>2026-08-28T17:50:18Z</time>
  <course>247.78</course>
  <speed>0.0316227766016838</speed>
  <fix>3d</fix>
</trkpt>
<trkpt lat="40.0713749" lon="-105.229789">
  <ele>1583.0</ele>
  <time>2026-08-28T17:50:18Z</time>
  <course>0.0</course>
  <speed>0.0</speed>
  <fix>3d</fix>
</trkpt>
<trkpt lat="40.0713749" lon="-105.229789">
  <ele>1583.0</ele>
  <time>2026-08-28T17:50:18Z</time>
  <course>247.78</course>
  <speed>0.0316227766016838</speed>
  <fix>3d</fix>
</trkpt>
<trkpt lat="40.0713749" lon="-105.229789">
  <ele>1583.0</ele>
  <time>2026-08-28T17:50:18Z</time>
  <course>0.0</course>
  <speed>0.0</speed>
  <fix>3d</fix>
</trkpt>
<trkpt lat="40.0713749" lon="-105.229789">
  <ele>1583.0</ele>
  <time>2026-08-28T17:50:18Z</time>
  <course>247.78</course>
  <speed>0.0316227766016838</speed>
  <fix>3d</fix>
</trkpt>
<trkpt lat="40.0713749" lon="-105.229789">
  <ele>1583.0</ele>
  <time>2026-08-28T17:50:18Z</time>
  <course>0.0</course>
  <speed>0.0</speed>
  <fix>3d</fix>
</trkpt>
<trkpt lat="40.0713749" lon="-105.229789">
  <ele>1583.0</ele>
  <time>2026-08-28T17:50:18Z</time>
  <course>247.77</course>
  <speed>0.0316227766016838</speed>
  <fix>3d</fix>
</trkpt>
<trkpt lat="40.0713749" lon="-105.229789">
  <ele>1583.0</ele>
  <time>2026-08-28T17:50:18Z</time>
  <course>0.0</course>
  <speed>0.0</speed>
  <fix>3d</fix>
</trkpt>
<trkpt lat="40.0713749" lon="-105.229789">
  <ele>1583.0</ele>
  <time>2026-08-28T17:50:18Z</time>
  <course>247.77</course>
  <speed>0.0316227766016838</speed>
  <fix>3d</fix>
</trkpt>
<trkpt lat="40.0713749" lon="-105.229789">
  <ele>1583.0</ele>
  <time>2026-08-28T17:50:18Z</time>
  <course>0.0</course>
  <speed>0.0</speed>
  <fix>3d</fix>
</trkpt>
<trkpt lat="39.655741" lon="-104.1383097">
  <ele>1566.58</ele>
  <time>2026-08-28T17:50:19Z</time>
  <course>0.0</course>
  <speed>0.0</speed>
  <fix>3d</fix>
</trkpt>
<trkpt lat="40.0713749" lon="-105.229789">
  <ele>1583.0</ele>
  <time>2026-08-28T17:50:19Z</time>
  <course>0.0</course>
  <speed>0.0</speed>
  <fix>3d</fix>
</trkpt>
<trkpt lat="40.0713749" lon="-105.229789">
  <ele>1583.0</ele>
  <time>2026-08-28T17:50:19Z</time>
  <course>238.36</course>
  <speed>0.0</speed>
  <fix>3d</fix>
</trkpt>
<trkpt lat="40.0713749" lon="-105.229789">
  <ele>1583.0</ele>
  <time>2026-08-28T17:50:19Z</time>
  <course>0.0</course>
  <speed>0.0</speed>
  <fix>3d</fix>
</trkpt>
<trkpt lat="40.0713749" lon="-105.229789">
  <ele>1583.0</ele>
  <time>2026-08-28T17:50:19Z</time>
  <course>238.44</course>
  <speed>0.0</speed>
  <fix>3d</fix>
</trkpt>
<trkpt lat="40.0713749" lon="-105.229789">
  <ele>1583.0</ele>
  <time>2026-08-28T17:50:19Z</time>
  <course>0.0</course>
  <speed>0.0</speed>
  <fix>3d</fix>
</trkpt>
<trkpt lat="40.0713749" lon="-105.229789">
  <ele>1583.0</ele>
  <time>2026-08-28T17:50:19Z</time>
  <course>238.64</course>
  <speed>0.0</speed>
  <fix>3d</fix>
</trkpt>
<trkpt lat="40.0713749" lon="-105.229789">
  <ele>1583.0</ele>
  <time>2026-08-28T17:50:19Z</time>
  <course>0.0</course>
  <speed>0.0</speed>
  <fix>3d</fix>
</trkpt>
<trkpt lat="40.0713749" lon="-105.229789">
  <ele>1583.0</ele>
  <time>2026-08-28T17:50:19Z</time>
  <course>238.93</course>
  <speed>0.0</speed>
  <fix>3d</fix>
</trkpt>
<trkpt lat="40.0713749" lon="-105.229789">
  <ele>1583.0</ele>
  <time>2026-08-28T17:50:19Z</time>
  <course>0.0</course>
  <speed>0.0</speed>
  <fix>3d</fix>
</trkpt>
<trkpt lat="40.0713749" lon="-105.229789">
  <ele>1583.0</ele>
  <time>2026-08-28T17:50:19Z</time>
  <course>239.26</course>
  <speed>0.0</speed>
  <fix>3d</fix>
</trkpt>
<trkpt lat="40.0713749" lon="-105.229789">
  <ele>1583.0</ele>
  <time>2026-08-28T17:50:19Z</time>
  <course>0.0</course>
  <speed>0.0</speed>
  <fix>3d</fix>
</trkpt>
<trkpt lat="40.0713749" lon="-105.229789">
  <ele>1583.0</ele>
  <time>2026-08-28T17:50:19Z</time>
  <course>239.61</course>
  <speed>0.0</speed>
  <fix>3d</fix>
</trkpt>
<trkpt lat="40.0713749" lon="-105.229789">
  <ele>1583.0</ele>
  <time>2026-08-28T17:50:19Z</time>
  <course>0.0</course>
  <speed>0.0</speed>
  <fix>3d</fix>
</trkpt>
<trkpt lat="40.0713749" lon="-105.229789">
  <ele>1583.0</ele>
  <time>2026-08-28T17:50:19Z</time>
  <course>239.96</course>
  <speed>0.0</speed>
  <fix>3d</fix>
</trkpt>
<trkpt lat="40.0713749" lon="-105.229789">
  <ele>1583.0</ele>
  <time>2026-08-28T17:50:19Z</time>
  <course>0.0</course>
  <speed>0.0</speed>
  <fix>3d</fix>
</trkpt>
<trkpt lat="40.0713749" lon="-105.229789">
  <ele>1583.0</ele>
  <time>2026-08-28T17:50:19Z</time>
  <course>240.29</course>
  <speed>0.0</speed>
  <fix>3d</fix>
</trkpt>
<trkpt lat="40.0713749" lon="-105.229789">
  <ele>1583.0</ele>
  <time>2026-08-28T17:50:19Z</time>
  <course>0.0</course>
  <speed>0.0</speed>
  <fix>3d</fix>
</trkpt>
<trkpt lat="40.0713749" lon="-105.229789">
  <ele>1583.0</ele>
  <time>2026-08-28T17:50:19Z</time>
  <course>240.61</course>
  <speed>0.0</speed>
  <fix>3d</fix>
</trkpt>
<trkpt lat="40.0713749" lon="-105.229789">
  <ele>1583.0</ele>
  <time>2026-08-28T17:50:19Z</time>
  <course>0.0</course>
  <speed>0.0</speed>
  <fix>3d</fix>
</trkpt>
<trkpt lat="40.0713749" lon="-105.229789">
  <ele>1583.0</ele>
  <time>2026-08-28T17:50:19Z</time>
  <course>240.92</course>
  <speed>0.0</speed>
  <fix>3d</fix>
</trkpt>
<trkpt lat="40.0713749" lon="-105.229789">
  <ele>1583.0</ele>
  <time>2026-08-28T17:50:19Z</time>
  <course>0.0</course>
  <speed>0.0</speed>
  <fix>3d</fix>
</trkpt>
<trkpt lat="40.0713749" lon="-105.229789">
  <ele>1583.0</ele>
  <time>2026-08-28T17:50:19Z</time>
  <course>241.21</course>
  <speed>0.0</speed>
  <fix>3d</fix>
</trkpt>
<trkpt lat="40.0713749" lon="-105.229789">
  <ele>1583.0</ele>
  <time>2026-08-28T17:50:19Z</time>
  <course>0.0</course>
  <speed>0.0</speed>
  <fix>3d</fix>
</trkpt>
<trkpt lat="40.0713749" lon="-105.229789">
  <ele>1583.0</ele>
  <time>2026-08-28T17:50:19Z</time>
  <course>241.49</course>
  <speed>0.0</speed>
  <fix>3d</fix>
</trkpt>
<trkpt lat="40.0713749" lon="-105.229789">
  <ele>1583.0</ele>
  <time>2026-08-28T17:50:19Z</time>
  <course>0.0</course>
  <speed>0.0</speed>
  <fix>3d</fix>
</trkpt>
<trkpt lat="40.0713749" lon="-105.229789">
  <ele>1583.0</ele>
  <time>2026-08-28T17:50:19Z</time>
  <course>241.77</course>
  <speed>0.0</speed>
  <fix>3d</fix>
</trkpt>
<trkpt lat="40.0713749" lon="-105.229789">
  <ele>1583.0</ele>
  <time>2026-08-28T17:50:19Z</time>
  <course>0.0</course>
  <speed>0.0</speed>
  <fix>3d</fix>
</trkpt>
<trkpt lat="40.0713749" lon="-105.229789">
  <ele>1583.0</ele>
  <time>2026-08-28T17:50:19Z</time>
  <course>242.03</course>
  <speed>0.0</speed>
  <fix>3d</fix>
</trkpt>
<trkpt lat="40.0713749" lon="-105.229789">
  <ele>1583.0</ele>
  <time>2026-08-28T17:50:19Z</time>
  <course>0.0</course>
  <speed>0.0</speed>
  <fix>3d</fix>
</trkpt>
<trkpt lat="40.0713749" lon="-105.229789">
  <ele>1583.0</ele>
  <time>2026-08-28T17:50:19Z</time>
  <course>242.29</course>
  <speed>0.0</speed>
  <fix>3d</fix>
</trkpt>
<trkpt lat="40.0713749" lon="-105.229789">
  <ele>1583.0</ele>
  <time>2026-08-28T17:50:19Z</time>
  <course>0.0</course>
  <speed>0.0</speed>
  <fix>3d</fix>
</trkpt>
<trkpt lat="40.0713749" lon="-105.229789">
  <ele>1583.0</ele>
  <time>2026-08-28T17:50:19Z</time>
  <course>242.54</course>
  <speed>0.0</speed>
  <fix>3d</fix>
</trkpt>
<trkpt lat="40.0713749" lon="-105.229789">
  <ele>1583.0</ele>
  <time>2026-08-28T17:50:19Z</time>
  <course>0.0</course>
  <speed>0.0</speed>
  <fix>3d</fix>
</trkpt>
<trkpt lat="40.0713749" lon="-105.229789">
  <ele>1583.0</ele>
  <time>2026-08-28T17:50:19Z</time>
  <course>242.79</course>
  <speed>0.0</speed>
  <fix>3d</fix>
</trkpt>
<trkpt lat="40.0713749" lon="-105.229789">
  <ele>1583.0</ele>
  <time>2026-08-28T17:50:19Z</time>
  <course>0.0</course>
  <speed>0.0</speed>
  <fix>3d</fix>
</trkpt>
<trkpt lat="40.0713749" lon="-105.229789">
  <ele>1583.0</ele>
  <time>2026-08-28T17:50:19Z</time>
  <course>243.02</course>
  <speed>0.0</speed>
  <fix>3d</fix>
</trkpt>
<trkpt lat="40.0713749" lon="-105.229789">
  <ele>1583.0</ele>
  <time>2026-08-28T17:50:19Z</time>
  <course>0.0</course>
  <speed>0.0</speed>
  <fix>3d</fix>
</trkpt>
<trkpt lat="40.0713749" lon="-105.229789">
  <ele>1583.0</ele>
  <time>2026-08-28T17:50:19Z</time>
  <course>243.25</course>
  <speed>0.0</speed>
  <fix>3d</fix>
</trkpt>
<trkpt lat="40.0713749" lon="-105.229789">
  <ele>1583.0</ele>
  <time>2026-08-28T17:50:19Z</time>
  <course>0.0</course>
  <speed>0.0</speed>
  <fix>3d</fix>
</trkpt>
<trkpt lat="40.0713749" lon="-105.229789">
  <ele>1583.0</ele>
  <time>2026-08-28T17:50:19Z</time>
  <course>243.47</course>
  <speed>0.0</speed>
  <fix>3d</fix>
</trkpt>
<trkpt lat="40.0713749" lon="-105.229789">
  <ele>1583.0</ele>
  <time>2026-08-28T17:50:19Z</time>
  <course>0.0</course>
  <speed>0.0</speed>
  <fix>3d</fix>
</trkpt>
<trkpt lat="40.0713749" lon="-105.229789">
  <ele>1583.0</ele>
  <time>2026-08-28T17:50:19Z</time>
  <course>243.68</course>
  <speed>0.0</speed>
  <fix>3d</fix>
</trkpt>
<trkpt lat="40.0713749" lon="-105.229789">
  <ele>1583.0</ele>
  <time>2026-08-28T17:50:19Z</time>
  <course>0.0</course>
  <speed>0.0</speed>
  <fix>3d</fix>
</trkpt>
<trkpt lat="40.0713749" lon="-105.229789">
  <ele>1583.0</ele>
  <time>2026-08-28T17:50:19Z</time>
  <course>243.89</course>
  <speed>0.0</speed>
  <fix>3d</fix>
</trkpt>
<trkpt lat="40.0713749" lon="-105.229789">
  <ele>1583.0</ele>
  <time>2026-08-28T17:50:19Z</time>
  <course>0.0</course>
  <speed>0.0</speed>
  <fix>3d</fix>
</trkpt>
<trkpt lat="40.0713749" lon="-105.229789">
  <ele>1583.0</ele>
  <time>2026-08-28T17:50:19Z</time>
  <course>244.09</course>
  <speed>0.0</speed>
  <fix>3d</fix>
</trkpt>
<trkpt lat="40.0713749" lon="-105.229789">
  <ele>1583.0</ele>
  <time>2026-08-28T17:50:19Z</time>
  <course>0.0</course>
  <speed>0.0</speed>
  <fix>3d</fix>
</trkpt>
<trkpt lat="40.0713749" lon="-105.229789">
  <ele>1583.0</ele>
  <time>2026-08-28T17:50:19Z</time>
  <course>244.28</course>
  <speed>0.0</speed>
  <fix>3d</fix>
</trkpt>
<trkpt lat="40.0713749" lon="-105.229789">
  <ele>1583.0</ele>
  <time>2026-08-28T17:50:19Z</time>
  <course>0.0</course>
  <speed>0.0</speed>
  <fix>3d</fix>
</trkpt>
<trkpt lat="40.0713749" lon="-105.229789">
  <ele>1583.0</ele>
  <time>2026-08-28T17:50:19Z</time>
  <course>244.46</course>
  <speed>0.0</speed>
  <fix>3d</fix>
</trkpt>
<trkpt lat="40.0713749" lon="-105.229789">
  <ele>1583.0</ele>
  <time>2026-08-28T17:50:19Z</time>
  <course>0.0</course>
  <speed>0.0</speed>
  <fix>3d</fix>
</trkpt>
<trkpt lat="40.0713749" lon="-105.229789">
  <ele>1583.0</ele>
  <time>2026-08-28T17:50:19Z</time>
  <course>244.64</course>
  <speed>0.0</speed>
  <fix>3d</fix>
</trkpt>
<trkpt lat="40.0713749" lon="-105.229789">
  <ele>1583.0</ele>
  <time>2026-08-28T17:50:19Z</time>
  <course>0.0</course>
  <speed>0.0</speed>
  <fix>3d</fix>
</trkpt>
<trkpt lat="40.0713749" lon="-105.229789">
  <ele>1583.0</ele>
  <time>2026-08-28T17:50:19Z</time>
  <course>244.81</course>
  <speed>0.0</speed>
  <fix>3d</fix>
</trkpt>
<trkpt lat="40.0713749" lon="-105.229789">
  <ele>1583.0</ele>
  <time>2026-08-28T17:50:19Z</time>
  <course>0.0</course>
  <speed>0.0</speed>
  <fix>3d</fix>
</trkpt>
<trkpt lat="40.0713749" lon="-105.229789">
  <ele>1583.0</ele>
  <time>2026-08-28T17:50:19Z</time>
  <course>244.97</course>
  <speed>0.0</speed>
  <fix>3d</fix>
</trkpt>
<trkpt lat="40.0713749" lon="-105.229789">
  <ele>1583.0</ele>
  <time>2026-08-28T17:50:19Z</time>
  <course>0.0</course>
  <speed>0.0</speed>
  <fix>3d</fix>
</trkpt>
<trkpt lat="40.0713749" lon="-105.229789">
  <ele>1583.0</ele>
  <time>2026-08-28T17:50:19Z</time>
  <course>245.13</course>
  <speed>0.0</speed>
  <fix>3d</fix>
</trkpt>
<trkpt lat="40.0713749" lon="-105.229789">
  <ele>1583.0</ele>
  <time>2026-08-28T17:50:19Z</time>
  <course>0.0</course>
  <speed>0.0</speed>
  <fix>3d</fix>
</trkpt>
<trkpt lat="40.0713749" lon="-105.229789">
  <ele>1583.0</ele>
  <time>2026-08-28T17:50:19Z</time>
  <course>245.29</course>
  <speed>0.0</speed>
  <fix>3d</fix>
</trkpt>
<trkpt lat="40.0713749" lon="-105.229789">
  <ele>1583.0</ele>
  <time>2026-08-28T17:50:19Z</time>
  <course>0.0</course>
  <speed>0.0</speed>
  <fix>3d</fix>
</trkpt>
<trkpt lat="40.0713749" lon="-105.229789">
  <ele>1583.0</ele>
  <time>2026-08-28T17:50:19Z</time>
  <course>245.43</course>
  <speed>0.0</speed>
  <fix>3d</fix>
</trkpt>
<trkpt lat="40.0713749" lon="-105.229789">
  <ele>1583.0</ele>
  <time>2026-08-28T17:50:19Z</time>
  <course>0.0</course>
  <speed>0.0</speed>
  <fix>3d</fix>
</trkpt>
<trkpt lat="40.0713749" lon="-105.229789">
  <ele>1583.0</ele>
  <time>2026-08-28T17:50:19Z</time>
  <course>245.57</course>
  <speed>0.0</speed>
  <fix>3d</fix>
</trkpt>
<trkpt lat="40.0713749" lon="-105.229789">
  <ele>1583.0</ele>
  <time>2026-08-28T17:50:19Z</time>
  <course>0.0</course>
  <speed>0.0</speed>
  <fix>3d</fix>
</trkpt>
<trkpt lat="40.0713749" lon="-105.229789">
  <ele>1583.0</ele>
  <time>2026-08-28T17:50:19Z</time>
  <course>245.71</course>
  <speed>0.0</speed>
  <fix>3d</fix>
</trkpt>
<trkpt lat="40.0713749" lon="-105.229789">
  <ele>1583.0</ele>
  <time>2026-08-28T17:50:19Z</time>
  <course>0.0</course>
  <speed>0.0</speed>
  <fix>3d</fix>
</trkpt>
<trkpt lat="40.0713749" lon="-105.229789">
  <ele>1583.0</ele>
  <time>2026-08-28T17:50:19Z</time>
  <course>245.84</course>
  <speed>0.0</speed>
  <fix>3d</fix>
</trkpt>
<trkpt lat="40.0713749" lon="-105.229789">
  <ele>1583.0</ele>
  <time>2026-08-28T17:50:19Z</time>
  <course>0.0</course>
  <speed>0.0</speed>
  <fix>3d</fix>
</trkpt>
<trkpt lat="40.0713749" lon="-105.229789">
  <ele>1583.0</ele>
  <time>2026-08-28T17:50:19Z</time>
  <course>245.96</course>
  <speed>0.0</speed>
  <fix>3d</fix>
</trkpt>
<trkpt lat="40.0713749" lon="-105.229789">
  <ele>1583.0</ele>
  <time>2026-08-28T17:50:19Z</time>
  <course>0.0</course>
  <speed>0.0</speed>
  <fix>3d</fix>
</trkpt>
<trkpt lat="40.0713749" lon="-105.229789">
  <ele>1583.0</ele>
  <time>2026-08-28T17:50:19Z</time>
  <course>246.08</course>
  <speed>0.0</speed>
  <fix>3d</fix>
</trkpt>
<trkpt lat="40.0713749" lon="-105.229789">
  <ele>1583.0</ele>
  <time>2026-08-28T17:50:19Z</time>
  <course>0.0</course>
  <speed>0.0</speed>
  <fix>3d</fix>
</trkpt>
<trkpt lat="40.0713749" lon="-105.229789">
  <ele>1583.0</ele>
  <time>2026-08-28T17:50:19Z</time>
  <course>246.19</course>
  <speed>0.0</speed>
  <fix>3d</fix>
</trkpt>
<trkpt lat="40.0713749" lon="-105.229789">
  <ele>1583.0</ele>
  <time>2026-08-28T17:50:19Z</time>
  <course>0.0</course>
  <speed>0.0</speed>
  <fix>3d</fix>
</trkpt>
<trkpt lat="40.0713749" lon="-105.229789">
  <ele>1583.0</ele>
  <time>2026-08-28T17:50:19Z</time>
  <course>246.3</course>
  <speed>0.0</speed>
  <fix>3d</fix>
</trkpt>
<trkpt lat="40.0713749" lon="-105.229789">
  <ele>1583.0</ele>
  <time>2026-08-28T17:50:19Z</time>
  <course>0.0</course>
  <speed>0.0</speed>
  <fix>3d</fix>
</trkpt>
<trkpt lat="40.0713749" lon="-105.229789">
  <ele>1583.0</ele>
  <time>2026-08-28T17:50:19Z</time>
  <course>246.41</course>
  <speed>0.0</speed>
  <fix>3d</fix>
</trkpt>
<trkpt lat="40.0713749" lon="-105.229789">
  <ele>1583.0</ele>
  <time>2026-08-28T17:50:19Z</time>
  <course>0.0</course>
  <speed>0.0</speed>
  <fix>3d</fix>
</trkpt>
<trkpt lat="40.0713749" lon="-105.229789">
  <ele>1583.0</ele>
  <time>2026-08-28T17:50:19Z</time>
  <course>246.51</course>
  <speed>0.0</speed>
  <fix>3d</fix>
</trkpt>
<trkpt lat="40.0713749" lon="-105.229789">
  <ele>1583.0</ele>
  <time>2026-08-28T17:50:19Z</time>
  <course>0.0</course>
  <speed>0.0</speed>
  <fix>3d</fix>
</trkpt>
<trkpt lat="40.0713749" lon="-105.229789">
  <ele>1583.0</ele>
  <time>2026-08-28T17:50:19Z</time>
  <course>246.6</course>
  <speed>0.0</speed>
  <fix>3d</fix>
</trkpt>
<trkpt lat="40.0713749" lon="-105.229789">
  <ele>1583.0</ele>
  <time>2026-08-28T17:50:19Z</time>
  <course>0.0</course>
  <speed>0.0</speed>
  <fix>3d</fix>
</trkpt>
<trkpt lat="40.0713749" lon="-105.229789">
  <ele>1583.0</ele>
  <time>2026-08-28T17:50:19Z</time>
  <course>246.7</course>
  <speed>0.0</speed>
  <fix>3d</fix>
</trkpt>
<trkpt lat="40.0713749" lon="-105.229789">
  <ele>1583.0</ele>
  <time>2026-08-28T17:50:19Z</time>
  <course>0.0</course>
  <speed>0.0</speed>
  <fix>3d</fix>
</trkpt>
<trkpt lat="40.0713749" lon="-105.229789">
  <ele>1583.0</ele>
  <time>2026-08-28T17:50:19Z</time>
  <course>246.78</course>
  <speed>0.0</speed>
  <fix>3d</fix>
</trkpt>
<trkpt lat="40.0713749" lon="-105.229789">
  <ele>1583.0</ele>
  <time>2026-08-28T17:50:19Z</time>
  <course>0.0</course>
  <speed>0.0</speed>
  <fix>3d</fix>
</trkpt>
<trkpt lat="40.0713749" lon="-105.229789">
  <ele>1583.0</ele>
  <time>2026-08-28T17:50:19Z</time>
  <course>246.87</course>
  <speed>0.0</speed>
  <fix>3d</fix>
</trkpt>
<trkpt lat="40.0713749" lon="-105.229789">
  <ele>1583.0</ele>
  <time>2026-08-28T17:50:19Z</time>
  <course>0.0</course>
  <speed>0.0</speed>
  <fix>3d</fix>
</trkpt>
<trkpt lat="40.0713749" lon="-105.229789">
  <ele>1583.0</ele>
  <time>2026-08-28T17:50:19Z</time>
  <course>246.95</course>
  <speed>0.0</speed>
  <fix>3d</fix>
</trkpt>
<trkpt lat="40.0713749" lon="-105.229789">
  <ele>1583.0</ele>
  <time>2026-08-28T17:50:19Z</time>
  <course>0.0</course>
  <speed>0.0</speed>
  <fix>3d</fix>
</trkpt>
<trkpt lat="40.0713749" lon="-105.229789">
  <ele>1583.0</ele>
  <time>2026-08-28T17:50:19Z</time>
  <course>247.02</course>
  <speed>0.0</speed>
  <fix>3d</fix>
</trkpt>
<trkpt lat="40.0713749" lon="-105.229789">
  <ele>1583.0</ele>
  <time>2026-08-28T17:50:19Z</time>
  <course>0.0</course>
  <speed>0.0</speed>
  <fix>3d</fix>
</trkpt>
<trkpt lat="40.0713749" lon="-105.229789">
  <ele>1583.0</ele>
  <time>2026-08-28T17:50:19Z</time>
  <course>247.1</course>
  <speed>0.0</speed>
  <fix>3d</fix>
</trkpt>
<trkpt lat="40.0713749" lon="-105.229789">
  <ele>1583.0</ele>
  <time>2026-08-28T17:50:19Z</time>
  <course>0.0</course>
  <speed>0.0</speed>
  <fix>3d</fix>
</trkpt>
<trkpt lat="40.0713749" lon="-105.229789">
  <ele>1583.0</ele>
  <time>2026-08-28T17:50:19Z</time>
  <course>247.17</course>
  <speed>0.0</speed>
  <fix>3d</fix>
</trkpt>
<trkpt lat="40.0713749" lon="-105.229789">
  <ele>1583.0</ele>
  <time>2026-08-28T17:50:19Z</time>
  <course>0.0</course>
  <speed>0.0</speed>
  <fix>3d</fix>
</trkpt>
<trkpt lat="40.0713749" lon="-105.229789">
  <ele>1583.0</ele>
  <time>2026-08-28T17:50:19Z</time>
  <course>247.24</course>
  <speed>0.0</speed>
  <fix>3d</fix>
</trkpt>
<trkpt lat="40.0713749" lon="-105.229789">
  <ele>1583.0</ele>
  <time>2026-08-28T17:50:19Z</time>
  <course>0.0</course>
  <speed>0.0</speed>
  <fix>3d</fix>
</trkpt>
<trkpt lat="40.0713749" lon="-105.229789">
  <ele>1583.0</ele>
  <time>2026-08-28T17:50:19Z</time>
  <course>247.3</course>
  <speed>0.0</speed>
  <fix>3d</fix>
</trkpt>
<trkpt lat="40.0713749" lon="-105.229789">
  <ele>1583.0</ele>
  <time>2026-08-28T17:50:19Z</time>
  <course>0.0</course>
  <speed>0.0</speed>
  <fix>3d</fix>
</trkpt>
<trkpt lat="40.0713749" lon="-105.229789">
  <ele>1583.0</ele>
  <time>2026-08-28T17:50:19Z</time>
  <course>247.36</course>
  <speed>0.0</speed>
  <fix>3d</fix>
</trkpt>
<trkpt lat="40.0713749" lon="-105.229789">
  <ele>1583.0</ele>
  <time>2026-08-28T17:50:19Z</time>
  <course>0.0</course>
  <speed>0.0</speed>
  <fix>3d</fix>
</trkpt>
<trkpt lat="40.0713749" lon="-105.229789">
  <ele>1583.0</ele>
  <time>2026-08-28T17:50:19Z</time>
  <course>247.42</course>
  <speed>0.0</speed>
  <fix>3d</fix>
</trkpt>
<trkpt lat="40.0713749" lon="-105.229789">
  <ele>1583.0</ele>
  <time>2026-08-28T17:50:19Z</time>
  <course>0.0</course>
  <speed>0.0</speed>
  <fix>3d</fix>
</trkpt>
<trkpt lat="40.0713749" lon="-105.229789">
  <ele>1583.0</ele>
  <time>2026-08-28T17:50:19Z</time>
  <course>247.47</course>
  <speed>0.0</speed>
  <fix>3d</fix>
</trkpt>
<trkpt lat="40.0713749" lon="-105.229789">
  <ele>1583.0</ele>
  <time>2026-08-28T17:50:19Z</time>
  <course>0.0</course>
  <speed>0.0</speed>
  <fix>3d</fix>
</trkpt>
<trkpt lat="40.0713749" lon="-105.229789">
  <ele>1583.0</ele>
  <time>2026-08-28T17:50:19Z</time>
  <course>247.53</course>
  <speed>0.0</speed>
  <fix>3d</fix>
</trkpt>
<trkpt lat="40.0713749" lon="-105.229789">
  <ele>1583.0</ele>
  <time>2026-08-28T17:50:19Z</time>
  <course>0.0</course>
  <speed>0.0</speed>
  <fix>3d</fix>
</trkpt>
<trkpt lat="40.0713749" lon="-105.229789">
  <ele>1583.0</ele>
  <time>2026-08-28T17:50:19Z</time>
  <course>247.58</course>
  <speed>0.0</speed>
  <fix>3d</fix>
</trkpt>
<trkpt lat="40.0713749" lon="-105.229789">
  <ele>1583.0</ele>
  <time>2026-08-28T17:50:19Z</time>
  <course>0.0</course>
  <speed>0.0</speed>
  <fix>3d</fix>
</trkpt>
<trkpt lat="40.0713749" lon="-105.229789">
  <ele>1583.0</ele>
  <time>2026-08-28T17:50:19Z</time>
  <course>247.63</course>
  <speed>0.0</speed>
  <fix>3d</fix>
</trkpt>
<trkpt lat="40.0713749" lon="-105.229789">
  <ele>1583.0</ele>
  <time>2026-08-28T17:50:19Z</time>
  <course>0.0</course>
  <speed>0.0</speed>
  <fix>3d</fix>
</trkpt>
<trkpt lat="40.0713749" lon="-105.229789">
  <ele>1583.0</ele>
  <time>2026-08-28T17:50:19Z</time>
  <course>247.67</course>
  <speed>0.0</speed>
  <fix>3d</fix>
</trkpt>
<trkpt lat="40.0713749" lon="-105.229789">
  <ele>1583.0</ele>
  <time>2026-08-28T17:50:19Z</time>
  <course>0.0</course>
  <speed>0.0</speed>
  <fix>3d</fix>
</trkpt>
<trkpt lat="40.0713749" lon="-105.229789">
  <ele>1583.0</ele>
  <time>2026-08-28T17:50:19Z</time>
  <course>247.72</course>
  <speed>0.0</speed>
  <fix>3d</fix>
</trkpt>
<trkpt lat="40.0713749" lon="-105.229789">
  <ele>1583.0</ele>
  <time>2026-08-28T17:50:19Z</time>
  <course>0.0</course>
  <speed>0.0</speed>
  <fix>3d</fix>
</trkpt>
<trkpt lat="40.0713749" lon="-105.229789">
  <ele>1583.0</ele>
  <time>2026-08-28T17:50:19Z</time>
  <course>247.76</course>
  <speed>0.0</speed>
  <fix>3d</fix>
</trkpt>
<trkpt lat="40.0713749" lon="-105.229789">
  <ele>1583.0</ele>
  <time>2026-08-28T17:50:19Z</time>
  <course>0.0</course>
  <speed>0.0</speed>
  <fix>3d</fix>
</trkpt>
<trkpt lat="40.0713749" lon="-105.229789">
  <ele>1583.0</ele>
  <time>2026-08-28T17:50:19Z</time>
  <course>247.8</course>
  <speed>0.0</speed>
  <fix>3d</fix>
</trkpt>
<trkpt lat="40.0713749" lon="-105.229789">
  <ele>1583.0</ele>
  <time>2026-08-28T17:50:19Z</time>
  <course>0.0</course>
  <speed>0.0</speed>
  <fix>3d</fix>
</trkpt>
<trkpt lat="40.0713749" lon="-105.229789">
  <ele>1583.0</ele>
  <time>2026-08-28T17:50:19Z</time>
  <course>247.83</course>
  <speed>0.0</speed>
  <fix>3d</fix>
</trkpt>
<trkpt lat="40.0713749" lon="-105.229789">
  <ele>1583.0</ele>
  <time>2026-08-28T17:50:19Z</time>
  <course>0.0</course>
  <speed>0.0</speed>
  <fix>3d</fix>
</trkpt>
<trkpt lat="40.0713749" lon="-105.229789">
  <ele>1583.0</ele>
  <time>2026-08-28T17:50:19Z</time>
  <course>247.87</course>
  <speed>0.0</speed>
  <fix>3d</fix>
</trkpt>
<trkpt lat="40.0713749" lon="-105.229789">
  <ele>1583.0</ele>
  <time>2026-08-28T17:50:19Z</time>
  <course>0.0</course>
  <speed>0.0</speed>
  <fix>3d</fix>
</trkpt>
<trkpt lat="40.0713749" lon="-105.229789">
  <ele>1583.0</ele>
  <time>2026-08-28T17:50:19Z</time>
  <course>247.9</course>
  <speed>0.0</speed>
  <fix>3d</fix>
</trkpt>
<trkpt lat="40.0713749" lon="-105.229789">
  <ele>1583.0</ele>
  <time>2026-08-28T17:50:19Z</time>
  <course>0.0</course>
  <speed>0.0</speed>
  <fix>3d</fix>
</trkpt>
<trkpt lat="40.0713749" lon="-105.229789">
  <ele>1583.0</ele>
  <time>2026-08-28T17:50:19Z</time>
  <course>247.94</course>
  <speed>0.0</speed>
  <fix>3d</fix>
</trkpt>
<trkpt lat="40.0713749" lon="-105.229789">
  <ele>1583.0</ele>
  <time>2026-08-28T17:50:19Z</time>
  <course>0.0</course>
  <speed>0.0</speed>
  <fix>3d</fix>
</trkpt>
<trkpt lat="40.0713749" lon="-105.229789">
  <ele>1583.0</ele>
  <time>2026-08-28T17:50:19Z</time>
  <course>247.97</course>
  <speed>0.0</speed>
  <fix>3d</fix>
</trkpt>
<trkpt lat="40.0713749" lon="-105.229789">
  <ele>1583.0</ele>
  <time>2026-08-28T17:50:19Z</time>
  <course>0.0</course>
  <speed>0.0</speed>
  <fix>3d</fix>
</trkpt>
<trkpt lat="40.0713749" lon="-105.229789">
  <ele>1583.0</ele>
  <time>2026-08-28T17:50:19Z</time>
  <course>248.0</course>
  <speed>0.0</speed>
  <fix>3d</fix>
</trkpt>
<trkpt lat="40.0713749" lon="-105.229789">
  <ele>1583.0</ele>
  <time>2026-08-28T17:50:19Z</time>
  <course>0.0</course>
  <speed>0.0</speed>
  <fix>3d</fix>
</trkpt>
<trkpt lat="40.0713749" lon="-105.229789">
  <ele>1583.0</ele>
  <time>2026-08-28T17:50:19Z</time>
  <course>248.02</course>
  <speed>0.0</speed>
  <fix>3d</fix>
</trkpt>
<trkpt lat="40.0713749" lon="-105.229789">
  <ele>1583.0</ele>
  <time>2026-08-28T17:50:19Z</time>
  <course>0.0</course>
  <speed>0.0</speed>
  <fix>3d</fix>
</trkpt>
<trkpt lat="40.0713749" lon="-105.229789">
  <ele>1583.0</ele>
  <time>2026-08-28T17:50:19Z</time>
  <course>248.05</course>
  <speed>0.0</speed>
  <fix>3d</fix>
</trkpt>
<trkpt lat="40.0713749" lon="-105.229789">
  <ele>1583.0</ele>
  <time>2026-08-28T17:50:19Z</time>
  <course>0.0</course>
  <speed>0.0</speed>
  <fix>3d</fix>
</trkpt>
<trkpt lat="40.0713749" lon="-105.229789">
  <ele>1583.0</ele>
  <time>2026-08-28T17:50:19Z</time>
  <course>248.08</course>
  <speed>0.0</speed>
  <fix>3d</fix>
</trkpt>
<trkpt lat="40.0713749" lon="-105.229789">
  <ele>1583.0</ele>
  <time>2026-08-28T17:50:19Z</time>
  <course>0.0</course>
  <speed>0.0</speed>
  <fix>3d</fix>
</trkpt>
<trkpt lat="40.0713749" lon="-105.229789">
  <ele>1583.0</ele>
  <time>2026-08-28T17:50:19Z</time>
  <course>248.1</course>
  <speed>0.0</speed>
  <fix>3d</fix>
</trkpt>
<trkpt lat="40.0713749" lon="-105.229789">
  <ele>1583.0</ele>
  <time>2026-08-28T17:50:19Z</time>
  <course>0.0</course>
  <speed>0.0</speed>
  <fix>3d</fix>
</trkpt>
<trkpt lat="40.0713749" lon="-105.229789">
  <ele>1583.0</ele>
  <time>2026-08-28T17:50:19Z</time>
  <course>248.12</course>
  <speed>0.0</speed>
  <fix>3d</fix>
</trkpt>
<trkpt lat="40.0713749" lon="-105.229789">
  <ele>1583.0</ele>
  <time>2026-08-28T17:50:19Z</time>
  <course>0.0</course>
  <speed>0.0</speed>
  <fix>3d</fix>
</trkpt>
<trkpt lat="40.0713749" lon="-105.229789">
  <ele>1583.0</ele>
  <time>2026-08-28T17:50:19Z</time>
  <course>248.14</course>
  <speed>0.0</speed>
  <fix>3d</fix>
</trkpt>
<trkpt lat="40.0713749" lon="-105.229789">
  <ele>1583.0</ele>
  <time>2026-08-28T17:50:19Z</time>
  <course>0.0</course>
  <speed>0.0</speed>
  <fix>3d</fix>
</trkpt>
<trkpt lat="40.0713749" lon="-105.229789">
  <ele>1583.0</ele>
  <time>2026-08-28T17:50:19Z</time>
  <course>248.16</course>
  <speed>0.0</speed>
  <fix>3d</fix>
</trkpt>
<trkpt lat="40.0713749" lon="-105.229789">
  <ele>1583.0</ele>
  <time>2026-08-28T17:50:19Z</time>
  <course>0.0</course>
  <speed>0.0</speed>
  <fix>3d</fix>
</trkpt>
<trkpt lat="40.0713749" lon="-105.229789">
  <ele>1583.0</ele>
  <time>2026-08-28T17:50:19Z</time>
  <course>248.18</course>
  <speed>0.0</speed>
  <fix>3d</fix>
</trkpt>
<trkpt lat="40.0713749" lon="-105.229789">
  <ele>1583.0</ele>
  <time>2026-08-28T17:50:19Z</time>
  <course>0.0</course>
  <speed>0.0</speed>
  <fix>3d</fix>
</trkpt>
<trkpt lat="40.0713749" lon="-105.229789">
  <ele>1583.0</ele>
  <time>2026-08-28T17:50:19Z</time>
  <course>248.2</course>
  <speed>0.0</speed>
  <fix>3d</fix>
</trkpt>
<trkpt lat="40.0713749" lon="-105.229789">
  <ele>1583.0</ele>
  <time>2026-08-28T17:50:19Z</time>
  <course>0.0</course>
  <speed>0.0</speed>
  <fix>3d</fix>
</trkpt>
<trkpt lat="40.0713749" lon="-105.229789">
  <ele>1583.0</ele>
  <time>2026-08-28T17:50:19Z</time>
  <course>248.22</course>
  <speed>0.0</speed>
  <fix>3d</fix>
</trkpt>
<trkpt lat="40.0713749" lon="-105.229789">
  <ele>1583.0</ele>
  <time>2026-08-28T17:50:19Z</time>
  <course>0.0</course>
  <speed>0.0</speed>
  <fix>3d</fix>
</trkpt>
<trkpt lat="40.0713749" lon="-105.229789">
  <ele>1583.0</ele>
  <time>2026-08-28T17:50:19Z</time>
  <course>248.23</course>
  <speed>0.0</speed>
  <fix>3d</fix>
</trkpt>
<trkpt lat="40.0713749" lon="-105.229789">
  <ele>1583.0</ele>
  <time>2026-08-28T17:50:19Z</time>
  <course>0.0</course>
  <speed>0.0</speed>
  <fix>3d</fix>
</trkpt>
<trkpt lat="40.0713749" lon="-105.229789">
  <ele>1583.0</ele>
  <time>2026-08-28T17:50:19Z</time>
  <course>248.25</course>
  <speed>0.0</speed>
  <fix>3d</fix>
</trkpt>
<trkpt lat="40.0713749" lon="-105.229789">
  <ele>1583.0</ele>
  <time>2026-08-28T17:50:19Z</time>
  <course>0.0</course>
  <speed>0.0</speed>
  <fix>3d</fix>
</trkpt>
<trkpt lat="40.0713749" lon="-105.229789">
  <ele>1583.0</ele>
  <time>2026-08-28T17:50:19Z</time>
  <course>248.26</course>
  <speed>0.0</speed>
  <fix>3d</fix>
</trkpt>
<trkpt lat="40.0713749" lon="-105.229789">
  <ele>1583.0</ele>
  <time>2026-08-28T17:50:19Z</time>
  <course>0.0</course>
  <speed>0.0</speed>
  <fix>3d</fix>
</trkpt>
<trkpt lat="40.0713749" lon="-105.229789">
  <ele>1583.0</ele>
  <time>2026-08-28T17:50:19Z</time>
  <course>248.28</course>
  <speed>0.0</speed>
  <fix>3d</fix>
</trkpt>
<trkpt lat="40.0713749" lon="-105.229789">
  <ele>1583.0</ele>
  <time>2026-08-28T17:50:19Z</time>
  <course>0.0</course>
  <speed>0.0</speed>
  <fix>3d</fix>
</trkpt>
<trkpt lat="40.0713749" lon="-105.229789">
  <ele>1583.0</ele>
  <time>2026-08-28T17:50:19Z</time>
  <course>248.29</course>
  <speed>0.0</speed>
  <fix>3d</fix>
</trkpt>
<trkpt lat="40.0713749" lon="-105.229789">
  <ele>1583.0</ele>
  <time>2026-08-28T17:50:19Z</time>
  <course>0.0</course>
  <speed>0.0</speed>
  <fix>3d</fix>
</trkpt>
<trkpt lat="40.0713749" lon="-105.229789">
  <ele>1583.0</ele>
  <time>2026-08-28T17:50:19Z</time>
  <course>248.3</course>
  <speed>0.0</speed>
  <fix>3d</fix>
</trkpt>
<trkpt lat="40.0713749" lon="-105.229789">
  <ele>1583.0</ele>
  <time>2026-08-28T17:50:19Z</time>
  <course>0.0</course>
  <speed>0.0</speed>
  <fix>3d</fix>
</trkpt>
<trkpt lat="40.0713749" lon="-105.229789">
  <ele>1583.0</ele>
  <time>2026-08-28T17:50:19Z</time>
  <course>248.31</course>
  <speed>0.0</speed>
  <fix>3d</fix>
</trkpt>
<trkpt lat="40.0713749" lon="-105.229789">
  <ele>1583.0</ele>
  <time>2026-08-28T17:50:19Z</time>
  <course>0.0</course>
  <speed>0.0</speed>
  <fix>3d</fix>
</trkpt>
<trkpt lat="40.0713749" lon="-105.229789">
  <ele>1583.0</ele>
  <time>2026-08-28T17:50:19Z</time>
  <course>248.32</course>
  <speed>0.0</speed>
  <fix>3d</fix>
</trkpt>
<trkpt lat="40.0713749" lon="-105.229789">
  <ele>1583.0</ele>
  <time>2026-08-28T17:50:19Z</time>
  <course>0.0</course>
  <speed>0.0</speed>
  <fix>3d</fix>
</trkpt>
<trkpt lat="40.0713749" lon="-105.229789">
  <ele>1583.0</ele>
  <time>2026-08-28T17:50:19Z</time>
  <course>248.33</course>
  <speed>0.0</speed>
  <fix>3d</fix>
</trkpt>
<trkpt lat="40.0713749" lon="-105.229789">
  <ele>1583.0</ele>
  <time>2026-08-28T17:50:19Z</time>
  <course>0.0</course>
  <speed>0.0</speed>
  <fix>3d</fix>
</trkpt>
<trkpt lat="40.0713749" lon="-105.229789">
  <ele>1583.0</ele>
  <time>2026-08-28T17:50:19Z</time>
  <course>248.34</course>
  <speed>0.0</speed>
  <fix>3d</fix>
</trkpt>
<trkpt lat="40.0713749" lon="-105.229789">
  <ele>1583.0</ele>
  <time>2026-08-28T17:50:19Z</time>
  <course>0.0</course>
  <speed>0.0</speed>
  <fix>3d</fix>
</trkpt>
<trkpt lat="40.0713749" lon="-105.229789">
  <ele>1583.0</ele>
  <time>2026-08-28T17:50:19Z</time>
  <course>248.35</course>
  <speed>0.0</speed>
  <fix>3d</fix>
</trkpt>
<trkpt lat="40.0713749" lon="-105.229789">
  <ele>1583.0</ele>
  <time>2026-08-28T17:50:19Z</time>
  <course>0.0</course>
  <speed>0.0</speed>
  <fix>3d</fix>
</trkpt>
<trkpt lat="40.0713749" lon="-105.229789">
  <ele>1583.0</ele>
  <time>2026-08-28T17:50:19Z</time>
  <course>248.35</course>
  <speed>0.0</speed>
  <fix>3d</fix>
</trkpt>
<trkpt lat="40.0713749" lon="-105.229789">
  <ele>1583.0</ele>
  <time>2026-08-28T17:50:19Z</time>
  <course>0.0</course>
  <speed>0.0</speed>
  <fix>3d</fix>
</trkpt>
<trkpt lat="40.0713749" lon="-105.229789">
  <ele>1583.0</ele>
  <time>2026-08-28T17:50:19Z</time>
  <course>248.36</course>
  <speed>0.0</speed>
  <fix>3d</fix>
</trkpt>
<trkpt lat="40.0713749" lon="-105.229789">
  <ele>1583.0</ele>
  <time>2026-08-28T17:50:19Z</time>
  <course>0.0</course>
  <speed>0.0</speed>
  <fix>3d</fix>
</trkpt>
<trkpt lat="40.0713749" lon="-105.229789">
  <ele>1583.0</ele>
  <time>2026-08-28T17:50:19Z</time>
  <course>248.37</course>
  <speed>0.0</speed>
  <fix>3d</fix>
</trkpt>
<trkpt lat="40.0713749" lon="-105.229789">
  <ele>1583.0</ele>
  <time>2026-08-28T17:50:19Z</time>
  <course>0.0</course>
  <speed>0.0</speed>
  <fix>3d</fix>
</trkpt>
<trkpt lat="40.0713749" lon="-105.229789">
  <ele>1583.0</ele>
  <time>2026-08-28T17:50:19Z</time>
  <course>248.37</course>
  <speed>0.0</speed>
  <fix>3d</fix>
</trkpt>
<trkpt lat="40.0713749" lon="-105.229789">
  <ele>1583.0</ele>
  <time>2026-08-28T17:50:19Z</time>
  <course>0.0</course>
  <speed>0.0</speed>
  <fix>3d</fix>
</trkpt>
<trkpt lat="40.0713749" lon="-105.229789">
  <ele>1583.0</ele>
  <time>2026-08-28T17:50:19Z</time>
  <course>248.38</course>
  <speed>0.0</speed>
  <fix>3d</fix>
</trkpt>
<trkpt lat="40.0713749" lon="-105.229789">
  <ele>1583.0</ele>
  <time>2026-08-28T17:50:19Z</time>
  <course>0.0</course>
  <speed>0.0</speed>
  <fix>3d</fix>
</trkpt>
<trkpt lat="40.0713749" lon="-105.229789">
  <ele>1583.0</ele>
  <time>2026-08-28T17:50:19Z</time>
  <course>248.38</course>
  <speed>0.0</speed>
  <fix>3d</fix>
</trkpt>
<trkpt lat="40.0713749" lon="-105.229789">
  <ele>1583.0</ele>
  <time>2026-08-28T17:50:19Z</time>
  <course>0.0</course>
  <speed>0.0</speed>
  <fix>3d</fix>
</trkpt>
<trkpt lat="40.0713749" lon="-105.229789">
  <ele>1583.0</ele>
  <time>2026-08-28T17:50:19Z</time>
  <course>248.39</course>
  <speed>0.0</speed>
  <fix>3d</fix>
</trkpt>
<trkpt lat="40.0713749" lon="-105.229789">
  <ele>1583.0</ele>
  <time>2026-08-28T17:50:19Z</time>
  <course>0.0</course>
  <speed>0.0</speed>
  <fix>3d</fix>
</trkpt>
<trkpt lat="40.0713749" lon="-105.229789">
  <ele>1583.0</ele>
  <time>2026-08-28T17:50:19Z</time>
  <course>248.39</course>
  <speed>0.0</speed>
  <fix>3d</fix>
</trkpt>
<trkpt lat="40.0713749" lon="-105.229789">
  <ele>1583.0</ele>
  <time>2026-08-28T17:50:19Z</time>
  <course>0.0</course>
  <speed>0.0</speed>
  <fix>3d</fix>
</trkpt>
<trkpt lat="40.0713749" lon="-105.229789">
  <ele>1583.0</ele>
  <time>2026-08-28T17:50:19Z</time>
  <course>248.4</course>
  <speed>0.0</speed>
  <fix>3d</fix>
</trkpt>
<trkpt lat="40.0713749" lon="-105.229789">
  <ele>1583.0</ele>
  <time>2026-08-28T17:50:19Z</time>
  <course>0.0</course>
  <speed>0.0</speed>
  <fix>3d</fix>
</trkpt>
<trkpt lat="40.0713749" lon="-105.229789">
  <ele>1583.0</ele>
  <time>2026-08-28T17:50:19Z</time>
  <course>248.4</course>
  <speed>0.0</speed>
  <fix>3d</fix>
</trkpt>
<trkpt lat="40.0713749" lon="-105.229789">
  <ele>1583.0</ele>
  <time>2026-08-28T17:50:19Z</time>
  <course>0.0</course>
  <speed>0.0</speed>
  <fix>3d</fix>
</trkpt>
<trkpt lat="40.0713749" lon="-105.229789">
  <ele>1583.0</ele>
  <time>2026-08-28T17:50:19Z</time>
  <course>248.4</course>
  <speed>0.0</speed>
  <fix>3d</fix>
</trkpt>
<trkpt lat="40.0713749" lon="-105.229789">
  <ele>1583.0</ele>
  <time>2026-08-28T17:50:19Z</time>
  <course>0.0</course>
  <speed>0.0</speed>
  <fix>3d</fix>
</trkpt>
<trkpt lat="40.0713749" lon="-105.229789">
  <ele>1583.0</ele>
  <time>2026-08-28T17:50:19Z</time>
  <course>248.4</course>
  <speed>0.0</speed>
  <fix>3d</fix>
</trkpt>
<trkpt lat="40.0713749" lon="-105.229789">
  <ele>1583.0</ele>
  <time>2026-08-28T17:50:19Z</time>
  <course>0.0</course>
  <speed>0.0</speed>
  <fix>3d</fix>
</trkpt>
<trkpt lat="40.0713749" lon="-105.229789">
  <ele>1583.0</ele>
  <time>2026-08-28T17:50:19Z</time>
  <course>248.41</course>
  <speed>0.0</speed>
  <fix>3d</fix>
</trkpt>
<trkpt lat="40.0713749" lon="-105.229789">
  <ele>1583.0</ele>
  <time>2026-08-28T17:50:19Z</time>
  <course>0.0</course>
  <speed>0.0</speed>
  <fix>3d</fix>
</trkpt>
<trkpt lat="40.0713749" lon="-105.229789">
  <ele>1583.0</ele>
  <time>2026-08-28T17:50:19Z</time>
  <course>248.41</course>
  <speed>0.0</speed>
  <fix>3d</fix>
</trkpt>
<trkpt lat="40.0713749" lon="-105.229789">
  <ele>1583.0</ele>
  <time>2026-08-28T17:50:19Z</time>
  <course>0.0</course>
  <speed>0.0</speed>
  <fix>3d</fix>
</trkpt>
<trkpt lat="40.0713749" lon="-105.229789">
  <ele>1583.0</ele>
  <time>2026-08-28T17:50:19Z</time>
  <course>248.41</course>
  <speed>0.0</speed>
  <fix>3d</fix>
</trkpt>
<trkpt lat="40.0713749" lon="-105.229789">
  <ele>1583.0</ele>
  <time>2026-08-28T17:50:19Z</time>
  <course>0.0</course>
  <speed>0.0</speed>
  <fix>3d</fix>
</trkpt>
<trkpt lat="40.0713749" lon="-105.229789">
  <ele>1583.0</ele>
  <time>2026-08-28T17:50:19Z</time>
  <course>248.41</course>
  <speed>0.0</speed>
  <fix>3d</fix>
</trkpt>
<trkpt lat="40.0713749" lon="-105.229789">
  <ele>1583.0</ele>
  <time>2026-08-28T17:50:19Z</time>
  <course>0.0</course>
  <speed>0.0</speed>
  <fix>3d</fix>
</trkpt>
<trkpt lat="40.0713749" lon="-105.229789">
  <ele>1583.0</ele>
  <time>2026-08-28T17:50:19Z</time>
  <course>248.41</course>
  <speed>0.0</speed>
  <fix>3d</fix>
</trkpt>
<trkpt lat="40.0713749" lon="-105.229789">
  <ele>1583.0</ele>
  <time>2026-08-28T17:50:19Z</time>
  <course>0.0</course>
  <speed>0.0</speed>
  <fix>3d</fix>
</trkpt>
<trkpt lat="40.0713749" lon="-105.229789">
  <ele>1583.0</ele>
  <time>2026-08-28T17:50:19Z</time>
  <course>248.41</course>
  <speed>0.0</speed>
  <fix>3d</fix>
</trkpt>
<trkpt lat="40.0713749" lon="-105.229789">
  <ele>1583.0</ele>
  <time>2026-08-28T17:50:19Z</time>
  <course>0.0</course>
  <speed>0.0</speed>
  <fix>3d</fix>
</trkpt>
<trkpt lat="40.0713749" lon="-105.229789">
  <ele>1583.0</ele>
  <time>2026-08-28T17:50:19Z</time>
  <course>248.41</course>
  <speed>0.0</speed>
  <fix>3d</fix>
</trkpt>
<trkpt lat="40.0713749" lon="-105.229789">
  <ele>1583.0</ele>
  <time>2026-08-28T17:50:19Z</time>
  <course>0.0</course>
  <speed>0.0</speed>
  <fix>3d</fix>
</trkpt>
<trkpt lat="40.0713749" lon="-105.229789">
  <ele>1583.0</ele>
  <time>2026-08-28T17:50:19Z</time>
  <course>248.41</course>
  <speed>0.0</speed>
  <fix>3d</fix>
</trkpt>
<trkpt lat="40.0713749" lon="-105.229789">
  <ele>1583.0</ele>
  <time>2026-08-28T17:50:19Z</time>
  <course>0.0</course>
  <speed>0.0</speed>
  <fix>3d</fix>
</trkpt>
<trkpt lat="40.0713749" lon="-105.229789">
  <ele>1583.0</ele>
  <time>2026-08-28T17:50:19Z</time>
  <course>248.41</course>
  <speed>0.0</speed>
  <fix>3d</fix>
</trkpt>
<trkpt lat="40.0713749" lon="-105.229789">
  <ele>1583.0</ele>
  <time>2026-08-28T17:50:19Z</time>
  <course>0.0</course>
  <speed>0.0</speed>
  <fix>3d</fix>
</trkpt>
<trkpt lat="40.0713749" lon="-105.229789">
  <ele>1583.0</ele>
  <time>2026-08-28T17:50:19Z</time>
  <course>248.41</course>
  <speed>0.0</speed>
  <fix>3d</fix>
</trkpt>
<trkpt lat="40.0713749" lon="-105.229789">
  <ele>1583.0</ele>
  <time>2026-08-28T17:50:19Z</time>
  <course>0.0</course>
  <speed>0.0</speed>
  <fix>3d</fix>
</trkpt>
<trkpt lat="40.0713749" lon="-105.229789">
  <ele>1583.0</ele>
  <time>2026-08-28T17:50:19Z</time>
  <course>248.41</course>
  <speed>0.0</speed>
  <fix>3d</fix>
</trkpt>
<trkpt lat="40.0713749" lon="-105.229789">
  <ele>1583.0</ele>
  <time>2026-08-28T17:50:19Z</time>
  <course>0.0</course>
  <speed>0.0</speed>
  <fix>3d</fix>
</trkpt>
<trkpt lat="40.0713749" lon="-105.229789">
  <ele>1583.0</ele>
  <time>2026-08-28T17:50:19Z</time>
  <course>248.41</course>
  <speed>0.0</speed>
  <fix>3d</fix>
</trkpt>
<trkpt lat="40.0713749" lon="-105.229789">
  <ele>1583.0</ele>
  <time>2026-08-28T17:50:19Z</time>
  <course>0.0</course>
  <speed>0.0</speed>
  <fix>3d</fix>
</trkpt>
<trkpt lat="40.0713749" lon="-105.229789">
  <ele>1583.0</ele>
  <time>2026-08-28T17:50:19Z</time>
  <course>248.41</course>
  <speed>0.0</speed>
  <fix>3d</fix>
</trkpt>
<trkpt lat="40.0713749" lon="-105.229789">
  <ele>1583.0</ele>
  <time>2026-08-28T17:50:19Z</time>
  <course>0.0</course>
  <speed>0.0</speed>
  <fix>3d</fix>
</trkpt>
<trkpt lat="40.0713749" lon="-105.229789">
  <ele>1583.0</ele>
  <time>2026-08-28T17:50:19Z</time>
  <course>248.41</course>
  <speed>0.0</speed>
  <fix>3d</fix>
</trkpt>
<trkpt lat="40.0713749" lon="-105.229789">
  <ele>1583.0</ele>
  <time>2026-08-28T17:50:19Z</time>
  <course>0.0</course>
  <speed>0.0</speed>
  <fix>3d</fix>
</trkpt>
<trkpt lat="40.0713749" lon="-105.229789">
  <ele>1583.0</ele>
  <time>2026-08-28T17:50:19Z</time>
  <course>248.41</course>
  <speed>0.0</speed>
  <fix>3d</fix>
</trkpt>
<trkpt lat="40.0713749" lon="-105.229789">
  <ele>1583.0</ele>
  <time>2026-08-28T17:50:19Z</time>
  <course>0.0</course>
  <speed>0.0</speed>
  <fix>3d</fix>
</trkpt>
<trkpt lat="40.0713749" lon="-105.229789">
  <ele>1583.0</ele>
  <time>2026-08-28T17:50:19Z</time>
  <course>248.41</course>
  <speed>0.0</speed>
  <fix>3d</fix>
</trkpt>
<trkpt lat="40.0713749" lon="-105.229789">
  <ele>1583.0</ele>
  <time>2026-08-28T17:50:19Z</time>
  <course>0.0</course>
  <speed>0.0</speed>
  <fix>3d</fix>
</trkpt>
<trkpt lat="40.0713749" lon="-105.229789">
  <ele>1583.0</ele>
  <time>2026-08-28T17:50:19Z</time>
  <course>248.4</course>
  <speed>0.0</speed>
  <fix>3d</fix>
</trkpt>
<trkpt lat="40.0713749" lon="-105.229789">
  <ele>1583.0</ele>
  <time>2026-08-28T17:50:19Z</time>
  <course>0.0</course>
  <speed>0.0</speed>
  <fix>3d</fix>
</trkpt>
<trkpt lat="40.0713749" lon="-105.229789">
  <ele>1583.0</ele>
  <time>2026-08-28T17:50:19Z</time>
  <course>248.4</course>
  <speed>0.01</speed>
  <fix>3d</fix>
</trkpt>
<trkpt lat="40.0713749" lon="-105.229789">
  <ele>1583.0</ele>
  <time>2026-08-28T17:50:19Z</time>
  <course>0.0</course>
  <speed>0.0</speed>
  <fix>3d</fix>
</trkpt>
<trkpt lat="40.0713749" lon="-105.229789">
  <ele>1583.0</ele>
  <time>2026-08-28T17:50:19Z</time>
  <course>248.4</course>
  <speed>0.01</speed>
  <fix>3d</fix>
</trkpt>
<trkpt lat="40.0713749" lon="-105.229789">
  <ele>1583.0</ele>
  <time>2026-08-28T17:50:19Z</time>
  <course>0.0</course>
  <speed>0.0</speed>
  <fix>3d</fix>
</trkpt>
<trkpt lat="40.0713749" lon="-105.229789">
  <ele>1583.0</ele>
  <time>2026-08-28T17:50:19Z</time>
  <course>248.4</course>
  <speed>0.01</speed>
  <fix>3d</fix>
</trkpt>
<trkpt lat="40.0713749" lon="-105.229789">
  <ele>1583.0</ele>
  <time>2026-08-28T17:50:19Z</time>
  <course>0.0</course>
  <speed>0.0</speed>
  <fix>3d</fix>
</trkpt>
<trkpt lat="40.0713749" lon="-105.229789">
  <ele>1583.0</ele>
  <time>2026-08-28T17:50:19Z</time>
  <course>248.4</course>
  <speed>0.01</speed>
  <fix>3d</fix>
</trkpt>
<trkpt lat="40.0713749" lon="-105.229789">
  <ele>1583.0</ele>
  <time>2026-08-28T17:50:19Z</time>
  <course>0.0</course>
  <speed>0.0</speed>
  <fix>3d</fix>
</trkpt>
<trkpt lat="40.0713749" lon="-105.229789">
  <ele>1583.0</ele>
  <time>2026-08-28T17:50:19Z</time>
  <course>248.39</course>
  <speed>0.01</speed>
  <fix>3d</fix>
</trkpt>
<trkpt lat="40.0713749" lon="-105.229789">
  <ele>1583.0</ele>
  <time>2026-08-28T17:50:19Z</time>
  <course>0.0</course>
  <speed>0.0</speed>
  <fix>3d</fix>
</trkpt>
<trkpt lat="40.0713749" lon="-105.229789">
  <ele>1583.0</ele>
  <time>2026-08-28T17:50:19Z</time>
  <course>248.39</course>
  <speed>0.01</speed>
  <fix>3d</fix>
</trkpt>
<trkpt lat="40.0713749" lon="-105.229789">
  <ele>1583.0</ele>
  <time>2026-08-28T17:50:19Z</time>
  <course>0.0</course>
  <speed>0.0</speed>
  <fix>3d</fix>
</trkpt>
<trkpt lat="40.0713749" lon="-105.229789">
  <ele>1583.0</ele>
  <time>2026-08-28T17:50:19Z</time>
  <course>248.39</course>
  <speed>0.01</speed>
  <fix>3d</fix>
</trkpt>
<trkpt lat="40.0713749" lon="-105.229789">
  <ele>1583.0</ele>
  <time>2026-08-28T17:50:19Z</time>
  <course>0.0</course>
  <speed>0.0</speed>
  <fix>3d</fix>
</trkpt>
<trkpt lat="40.0713749" lon="-105.229789">
  <ele>1583.0</ele>
  <time>2026-08-28T17:50:19Z</time>
  <course>248.38</course>
  <speed>0.01</speed>
  <fix>3d</fix>
</trkpt>
<trkpt lat="40.0713749" lon="-105.229789">
  <ele>1583.0</ele>
  <time>2026-08-28T17:50:19Z</time>
  <course>0.0</course>
  <speed>0.0</speed>
  <fix>3d</fix>
</trkpt>
<trkpt lat="40.0713749" lon="-105.229789">
  <ele>1583.0</ele>
  <time>2026-08-28T17:50:19Z</time>
  <course>248.38</course>
  <speed>0.01</speed>
  <fix>3d</fix>
</trkpt>
<trkpt lat="40.0713749" lon="-105.229789">
  <ele>1583.0</ele>
  <time>2026-08-28T17:50:19Z</time>
  <course>0.0</course>
  <speed>0.0</speed>
  <fix>3d</fix>
</trkpt>
<trkpt lat="40.0713749" lon="-105.229789">
  <ele>1583.0</ele>
  <time>2026-08-28T17:50:19Z</time>
  <course>248.38</course>
  <speed>0.01</speed>
  <fix>3d</fix>
</trkpt>
<trkpt lat="40.0713749" lon="-105.229789">
  <ele>1583.0</ele>
  <time>2026-08-28T17:50:19Z</time>
  <course>0.0</course>
  <speed>0.0</speed>
  <fix>3d</fix>
</trkpt>
<trkpt lat="40.0713749" lon="-105.229789">
  <ele>1583.0</ele>
  <time>2026-08-28T17:50:19Z</time>
  <course>248.37</course>
  <speed>0.01</speed>
  <fix>3d</fix>
</trkpt>
<trkpt lat="40.0713749" lon="-105.229789">
  <ele>1583.0</ele>
  <time>2026-08-28T17:50:19Z</time>
  <course>0.0</course>
  <speed>0.0</speed>
  <fix>3d</fix>
</trkpt>
<trkpt lat="40.0713749" lon="-105.229789">
  <ele>1583.0</ele>
  <time>2026-08-28T17:50:19Z</time>
  <course>248.37</course>
  <speed>0.01</speed>
  <fix>3d</fix>
</trkpt>
<trkpt lat="40.0713749" lon="-105.229789">
  <ele>1583.0</ele>
  <time>2026-08-28T17:50:19Z</time>
  <course>0.0</course>
  <speed>0.0</speed>
  <fix>3d</fix>
</trkpt>
<trkpt lat="40.0713749" lon="-105.229789">
  <ele>1583.0</ele>
  <time>2026-08-28T17:50:19Z</time>
  <course>248.37</course>
  <speed>0.01</speed>
  <fix>3d</fix>
</trkpt>
<trkpt lat="40.0713749" lon="-105.229789">
  <ele>1583.0</ele>
  <time>2026-08-28T17:50:19Z</time>
  <course>0.0</course>
  <speed>0.0</speed>
  <fix>3d</fix>
</trkpt>
<trkpt lat="40.0713749" lon="-105.229789">
  <ele>1583.0</ele>
  <time>2026-08-28T17:50:19Z</time>
  <course>248.36</course>
  <speed>0.01</speed>
  <fix>3d</fix>
</trkpt>
<trkpt lat="40.0713749" lon="-105.229789">
  <ele>1583.0</ele>
  <time>2026-08-28T17:50:19Z</time>
  <course>0.0</course>
  <speed>0.0</speed>
  <fix>3d</fix>
</trkpt>
<trkpt lat="40.0713749" lon="-105.229789">
  <ele>1583.0</ele>
  <time>2026-08-28T17:50:19Z</time>
  <course>248.36</course>
  <speed>0.01</speed>
  <fix>3d</fix>
</trkpt>
<trkpt lat="40.0713749" lon="-105.229789">
  <ele>1583.0</ele>
  <time>2026-08-28T17:50:19Z</time>
  <course>0.0</course>
  <speed>0.0</speed>
  <fix>3d</fix>
</trkpt>
<trkpt lat="40.0713749" lon="-105.229789">
  <ele>1583.0</ele>
  <time>2026-08-28T17:50:19Z</time>
  <course>248.36</course>
  <speed>0.01</speed>
  <fix>3d</fix>
</trkpt>
<trkpt lat="40.0713749" lon="-105.229789">
  <ele>1583.0</ele>
  <time>2026-08-28T17:50:19Z</time>
  <course>0.0</course>
  <speed>0.0</speed>
  <fix>3d</fix>
</trkpt>
<trkpt lat="40.0713749" lon="-105.229789">
  <ele>1583.0</ele>
  <time>2026-08-28T17:50:19Z</time>
  <course>248.35</course>
  <speed>0.01</speed>
  <fix>3d</fix>
</trkpt>
<trkpt lat="40.0713749" lon="-105.229789">
  <ele>1583.0</ele>
  <time>2026-08-28T17:50:19Z</time>
  <course>0.0</course>
  <speed>0.0</speed>
  <fix>3d</fix>
</trkpt>
<trkpt lat="40.0713749" lon="-105.229789">
  <ele>1583.0</ele>
  <time>2026-08-28T17:50:19Z</time>
  <course>248.35</course>
  <speed>0.01</speed>
  <fix>3d</fix>
</trkpt>
<trkpt lat="40.0713749" lon="-105.229789">
  <ele>1583.0</ele>
  <time>2026-08-28T17:50:19Z</time>
  <course>0.0</course>
  <speed>0.0</speed>
  <fix>3d</fix>
</trkpt>
<trkpt lat="40.0713749" lon="-105.229789">
  <ele>1583.0</ele>
  <time>2026-08-28T17:50:19Z</time>
  <course>248.35</course>
  <speed>0.01</speed>
  <fix>3d</fix>
</trkpt>
<trkpt lat="40.0713749" lon="-105.229789">
  <ele>1583.0</ele>
  <time>2026-08-28T17:50:19Z</time>
  <course>0.0</course>
  <speed>0.0</speed>
  <fix>3d</fix>
</trkpt>
<trkpt lat="40.0713749" lon="-105.229789">
  <ele>1583.0</ele>
  <time>2026-08-28T17:50:19Z</time>
  <course>248.34</course>
  <speed>0.01</speed>
  <fix>3d</fix>
</trkpt>
<trkpt lat="40.0713749" lon="-105.229789">
  <ele>1583.0</ele>
  <time>2026-08-28T17:50:19Z</time>
  <course>0.0</course>
  <speed>0.0</speed>
  <fix>3d</fix>
</trkpt>
<trkpt lat="40.0713749" lon="-105.229789">
  <ele>1583.0</ele>
  <time>2026-08-28T17:50:19Z</time>
  <course>248.34</course>
  <speed>0.01</speed>
  <fix>3d</fix>
</trkpt>
<trkpt lat="40.0713749" lon="-105.229789">
  <ele>1583.0</ele>
  <time>2026-08-28T17:50:19Z</time>
  <course>0.0</course>
  <speed>0.0</speed>
  <fix>3d</fix>
</trkpt>
<trkpt lat="40.0713749" lon="-105.229789">
  <ele>1583.0</ele>
  <time>2026-08-28T17:50:19Z</time>
  <course>248.33</course>
  <speed>0.01</speed>
  <fix>3d</fix>
</trkpt>
<trkpt lat="40.0713749" lon="-105.229789">
  <ele>1583.0</ele>
  <time>2026-08-28T17:50:19Z</time>
  <course>0.0</course>
  <speed>0.0</speed>
  <fix>3d</fix>
</trkpt>
<trkpt lat="40.0713749" lon="-105.229789">
  <ele>1583.0</ele>
  <time>2026-08-28T17:50:19Z</time>
  <course>248.33</course>
  <speed>0.01</speed>
  <fix>3d</fix>
</trkpt>
<trkpt lat="40.0713749" lon="-105.229789">
  <ele>1583.0</ele>
  <time>2026-08-28T17:50:19Z</time>
  <course>0.0</course>
  <speed>0.0</speed>
  <fix>3d</fix>
</trkpt>
<trkpt lat="40.0713749" lon="-105.229789">
  <ele>1583.0</ele>
  <time>2026-08-28T17:50:19Z</time>
  <course>248.32</course>
  <speed>0.01</speed>
  <fix>3d</fix>
</trkpt>
<trkpt lat="40.0713749" lon="-105.229789">
  <ele>1583.0</ele>
  <time>2026-08-28T17:50:19Z</time>
  <course>0.0</course>
  <speed>0.0</speed>
  <fix>3d</fix>
</trkpt>
<trkpt lat="40.0713749" lon="-105.229789">
  <ele>1583.0</ele>
  <time>2026-08-28T17:50:19Z</time>
  <course>248.32</course>
  <speed>0.01</speed>
  <fix>3d</fix>
</trkpt>
<trkpt lat="40.0713749" lon="-105.229789">
  <ele>1583.0</ele>
  <time>2026-08-28T17:50:19Z</time>
  <course>0.0</course>
  <speed>0.0</speed>
  <fix>3d</fix>
</trkpt>
<trkpt lat="40.0713749" lon="-105.229789">
  <ele>1583.0</ele>
  <time>2026-08-28T17:50:19Z</time>
  <course>248.32</course>
  <speed>0.01</speed>
  <fix>3d</fix>
</trkpt>
<trkpt lat="40.0713749" lon="-105.229789">
  <ele>1583.0</ele>
  <time>2026-08-28T17:50:19Z</time>
  <course>0.0</course>
  <speed>0.0</speed>
  <fix>3d</fix>
</trkpt>
<trkpt lat="40.0713749" lon="-105.229789">
  <ele>1583.0</ele>
  <time>2026-08-28T17:50:19Z</time>
  <course>248.31</course>
  <speed>0.01</speed>
  <fix>3d</fix>
</trkpt>
<trkpt lat="40.0713749" lon="-105.229789">
  <ele>1583.0</ele>
  <time>2026-08-28T17:50:19Z</time>
  <course>0.0</course>
  <speed>0.0</speed>
  <fix>3d</fix>
</trkpt>
<trkpt lat="40.0713749" lon="-105.229789">
  <ele>1583.0</ele>
  <time>2026-08-28T17:50:19Z</time>
  <course>248.31</course>
  <speed>0.01</speed>
  <fix>3d</fix>
</trkpt>
<trkpt lat="40.0713749" lon="-105.229789">
  <ele>1583.0</ele>
  <time>2026-08-28T17:50:19Z</time>
  <course>0.0</course>
  <speed>0.0</speed>
  <fix>3d</fix>
</trkpt>
<trkpt lat="40.0713749" lon="-105.229789">
  <ele>1583.0</ele>
  <time>2026-08-28T17:50:19Z</time>
  <course>248.3</course>
  <speed>0.01</speed>
  <fix>3d</fix>
</trkpt>
<trkpt lat="40.0713749" lon="-105.229789">
  <ele>1583.0</ele>
  <time>2026-08-28T17:50:19Z</time>
  <course>0.0</course>
  <speed>0.0</speed>
  <fix>3d</fix>
</trkpt>
<trkpt lat="40.0713749" lon="-105.229789">
  <ele>1583.0</ele>
  <time>2026-08-28T17:50:19Z</time>
  <course>248.3</course>
  <speed>0.01</speed>
  <fix>3d</fix>
</trkpt>
<trkpt lat="40.0713749" lon="-105.229789">
  <ele>1583.0</ele>
  <time>2026-08-28T17:50:19Z</time>
  <course>0.0</course>
  <speed>0.0</speed>
  <fix>3d</fix>
</trkpt>
<trkpt lat="40.0713749" lon="-105.229789">
  <ele>1583.0</ele>
  <time>2026-08-28T17:50:19Z</time>
  <course>248.29</course>
  <speed>0.01</speed>
  <fix>3d</fix>
</trkpt>
<trkpt lat="40.0713749" lon="-105.229789">
  <ele>1583.0</ele>
  <time>2026-08-28T17:50:19Z</time>
  <course>0.0</course>
  <speed>0.0</speed>
  <fix>3d</fix>
</trkpt>
<trkpt lat="40.0713749" lon="-105.229789">
  <ele>1583.0</ele>
  <time>2026-08-28T17:50:19Z</time>
  <course>248.29</course>
  <speed>0.01</speed>
  <fix>3d</fix>
</trkpt>
<trkpt lat="40.0713749" lon="-105.229789">
  <ele>1583.0</ele>
  <time>2026-08-28T17:50:19Z</time>
  <course>0.0</course>
  <speed>0.0</speed>
  <fix>3d</fix>
</trkpt>
<trkpt lat="40.0713749" lon="-105.229789">
  <ele>1583.0</ele>
  <time>2026-08-28T17:50:19Z</time>
  <course>248.28</course>
  <speed>0.01</speed>
  <fix>3d</fix>
</trkpt>
<trkpt lat="40.0713749" lon="-105.229789">
  <ele>1583.0</ele>
  <time>2026-08-28T17:50:19Z</time>
  <course>0.0</course>
  <speed>0.0</speed>
  <fix>3d</fix>
</trkpt>
<trkpt lat="40.0713749" lon="-105.229789">
  <ele>1583.0</ele>
  <time>2026-08-28T17:50:19Z</time>
  <course>248.28</course>
  <speed>0.01</speed>
  <fix>3d</fix>
</trkpt>
<trkpt lat="40.0713749" lon="-105.229789">
  <ele>1583.0</ele>
  <time>2026-08-28T17:50:19Z</time>
  <course>0.0</course>
  <speed>0.0</speed>
  <fix>3d</fix>
</trkpt>
<trkpt lat="40.0713749" lon="-105.229789">
  <ele>1583.0</ele>
  <time>2026-08-28T17:50:19Z</time>
  <course>248.27</course>
  <speed>0.01</speed>
  <fix>3d</fix>
</trkpt>
<trkpt lat="40.0713749" lon="-105.229789">
  <ele>1583.0</ele>
  <time>2026-08-28T17:50:19Z</time>
  <course>0.0</course>
  <speed>0.0</speed>
  <fix>3d</fix>
</trkpt>
<trkpt lat="40.0713749" lon="-105.229789">
  <ele>1583.0</ele>
  <time>2026-08-28T17:50:19Z</time>
  <course>248.27</course>
  <speed>0.01</speed>
  <fix>3d</fix>
</trkpt>
<trkpt lat="40.0713749" lon="-105.229789">
  <ele>1583.0</ele>
  <time>2026-08-28T17:50:19Z</time>
  <course>0.0</course>
  <speed>0.0</speed>
  <fix>3d</fix>
</trkpt>
<trkpt lat="40.0713749" lon="-105.229789">
  <ele>1583.0</ele>
  <time>2026-08-28T17:50:19Z</time>
  <course>248.26</course>
  <speed>0.01</speed>
  <fix>3d</fix>
</trkpt>
<trkpt lat="40.0713749" lon="-105.229789">
  <ele>1583.0</ele>
  <time>2026-08-28T17:50:19Z</time>
  <course>0.0</course>
  <speed>0.0</speed>
  <fix>3d</fix>
</trkpt>
<trkpt lat="40.0713749" lon="-105.229789">
  <ele>1583.0</ele>
  <time>2026-08-28T17:50:19Z</time>
  <course>248.26</course>
  <speed>0.01</speed>
  <fix>3d</fix>
</trkpt>
<trkpt lat="40.0713749" lon="-105.229789">
  <ele>1583.0</ele>
  <time>2026-08-28T17:50:19Z</time>
  <course>0.0</course>
  <speed>0.0</speed>
  <fix>3d</fix>
</trkpt>
<trkpt lat="40.0713749" lon="-105.229789">
  <ele>1583.0</ele>
  <time>2026-08-28T17:50:19Z</time>
  <course>248.26</course>
  <speed>0.01</speed>
  <fix>3d</fix>
</trkpt>
<trkpt lat="40.0713749" lon="-105.229789">
  <ele>1583.0</ele>
  <time>2026-08-28T17:50:19Z</time>
  <course>0.0</course>
  <speed>0.0</speed>
  <fix>3d</fix>
</trkpt>
<trkpt lat="40.0713749" lon="-105.229789">
  <ele>1583.0</ele>
  <time>2026-08-28T17:50:19Z</time>
  <course>248.25</course>
  <speed>0.01</speed>
  <fix>3d</fix>
</trkpt>
<trkpt lat="40.0713749" lon="-105.229789">
  <ele>1583.0</ele>
  <time>2026-08-28T17:50:19Z</time>
  <course>0.0</course>
  <speed>0.0</speed>
  <fix>3d</fix>
</trkpt>
<trkpt lat="40.0713749" lon="-105.229789">
  <ele>1583.0</ele>
  <time>2026-08-28T17:50:19Z</time>
  <course>248.25</course>
  <speed>0.01</speed>
  <fix>3d</fix>
</trkpt>
<trkpt lat="40.0713749" lon="-105.229789">
  <ele>1583.0</ele>
  <time>2026-08-28T17:50:19Z</time>
  <course>0.0</course>
  <speed>0.0</speed>
  <fix>3d</fix>
</trkpt>
<trkpt lat="40.0713749" lon="-105.229789">
  <ele>1583.0</ele>
  <time>2026-08-28T17:50:19Z</time>
  <course>248.24</course>
  <speed>0.01</speed>
  <fix>3d</fix>
</trkpt>
<trkpt lat="40.0713749" lon="-105.229789">
  <ele>1583.0</ele>
  <time>2026-08-28T17:50:19Z</time>
  <course>0.0</course>
  <speed>0.0</speed>
  <fix>3d</fix>
</trkpt>
<trkpt lat="40.0713749" lon="-105.229789">
  <ele>1583.0</ele>
  <time>2026-08-28T17:50:19Z</time>
  <course>248.24</course>
  <speed>0.01</speed>
  <fix>3d</fix>
</trkpt>
<trkpt lat="40.0713749" lon="-105.229789">
  <ele>1583.0</ele>
  <time>2026-08-28T17:50:19Z</time>
  <course>0.0</course>
  <speed>0.0</speed>
  <fix>3d</fix>
</trkpt>
<trkpt lat="40.0713749" lon="-105.229789">
  <ele>1583.0</ele>
  <time>2026-08-28T17:50:19Z</time>
  <course>248.23</course>
  <speed>0.01</speed>
  <fix>3d</fix>
</trkpt>
<trkpt lat="40.0713749" lon="-105.229789">
  <ele>1583.0</ele>
  <time>2026-08-28T17:50:19Z</time>
  <course>0.0</course>
  <speed>0.0</speed>
  <fix>3d</fix>
</trkpt>
<trkpt lat="40.0713749" lon="-105.229789">
  <ele>1583.0</ele>
  <time>2026-08-28T17:50:19Z</time>
  <course>248.23</course>
  <speed>0.01</speed>
  <fix>3d</fix>
</trkpt>
<trkpt lat="40.0713749" lon="-105.229789">
  <ele>1583.0</ele>
  <time>2026-08-28T17:50:19Z</time>
  <course>0.0</course>
  <speed>0.0</speed>
  <fix>3d</fix>
</trkpt>
<trkpt lat="40.0713749" lon="-105.229789">
  <ele>1583.0</ele>
  <time>2026-08-28T17:50:19Z</time>
  <course>248.22</course>
  <speed>0.01</speed>
  <fix>3d</fix>
</trkpt>
<trkpt lat="40.0713749" lon="-105.229789">
  <ele>1583.0</ele>
  <time>2026-08-28T17:50:19Z</time>
  <course>0.0</course>
  <speed>0.0</speed>
  <fix>3d</fix>
</trkpt>
<trkpt lat="40.0713749" lon="-105.229789">
  <ele>1583.0</ele>
  <time>2026-08-28T17:50:19Z</time>
  <course>248.22</course>
  <speed>0.01</speed>
  <fix>3d</fix>
</trkpt>
<trkpt lat="40.0713749" lon="-105.229789">
  <ele>1583.0</ele>
  <time>2026-08-28T17:50:19Z</time>
  <course>0.0</course>
  <speed>0.0</speed>
  <fix>3d</fix>
</trkpt>
<trkpt lat="40.0713749" lon="-105.229789">
  <ele>1583.0</ele>
  <time>2026-08-28T17:50:19Z</time>
  <course>248.21</course>
  <speed>0.01</speed>
  <fix>3d</fix>
</trkpt>
<trkpt lat="40.0713749" lon="-105.229789">
  <ele>1583.0</ele>
  <time>2026-08-28T17:50:19Z</time>
  <course>0.0</course>
  <speed>0.0</speed>
  <fix>3d</fix>
</trkpt>
<trkpt lat="40.0713749" lon="-105.229789">
  <ele>1583.0</ele>
  <time>2026-08-28T17:50:19Z</time>
  <course>248.21</course>
  <speed>0.01</speed>
  <fix>3d</fix>
</trkpt>
<trkpt lat="40.0713749" lon="-105.229789">
  <ele>1583.0</ele>
  <time>2026-08-28T17:50:19Z</time>
  <course>0.0</course>
  <speed>0.0</speed>
  <fix>3d</fix>
</trkpt>
<trkpt lat="40.0713749" lon="-105.229789">
  <ele>1583.0</ele>
  <time>2026-08-28T17:50:19Z</time>
  <course>248.2</course>
  <speed>0.01</speed>
  <fix>3d</fix>
</trkpt>
<trkpt lat="40.0713749" lon="-105.229789">
  <ele>1583.0</ele>
  <time>2026-08-28T17:50:19Z</time>
  <course>0.0</course>
  <speed>0.0</speed>
  <fix>3d</fix>
</trkpt>
<trkpt lat="40.0713749" lon="-105.229789">
  <ele>1583.0</ele>
  <time>2026-08-28T17:50:19Z</time>
  <course>248.2</course>
  <speed>0.01</speed>
  <fix>3d</fix>
</trkpt>
<trkpt lat="40.0713749" lon="-105.229789">
  <ele>1583.0</ele>
  <time>2026-08-28T17:50:19Z</time>
  <course>0.0</course>
  <speed>0.0</speed>
  <fix>3d</fix>
</trkpt>
<trkpt lat="40.0713749" lon="-105.229789">
  <ele>1583.0</ele>
  <time>2026-08-28T17:50:19Z</time>
  <course>248.19</course>
  <speed>0.01</speed>
  <fix>3d</fix>
</trkpt>
<trkpt lat="40.0713749" lon="-105.229789">
  <ele>1583.0</ele>
  <time>2026-08-28T17:50:19Z</time>
  <course>0.0</course>
  <speed>0.0</speed>
  <fix>3d</fix>
</trkpt>
<trkpt lat="40.0713749" lon="-105.229789">
  <ele>1583.0</ele>
  <time>2026-08-28T17:50:19Z</time>
  <course>248.19</course>
  <speed>0.01</speed>
  <fix>3d</fix>
</trkpt>
<trkpt lat="40.0713749" lon="-105.229789">
  <ele>1583.0</ele>
  <time>2026-08-28T17:50:19Z</time>
  <course>0.0</course>
  <speed>0.0</speed>
  <fix>3d</fix>
</trkpt>
<trkpt lat="40.0713749" lon="-105.229789">
  <ele>1583.0</ele>
  <time>2026-08-28T17:50:19Z</time>
  <course>248.18</course>
  <speed>0.01</speed>
  <fix>3d</fix>
</trkpt>
<trkpt lat="40.0713749" lon="-105.229789">
  <ele>1583.0</ele>
  <time>2026-08-28T17:50:19Z</time>
  <course>0.0</course>
  <speed>0.0</speed>
  <fix>3d</fix>
</trkpt>
<trkpt lat="40.0713749" lon="-105.229789">
  <ele>1583.0</ele>
  <time>2026-08-28T17:50:19Z</time>
  <course>248.18</course>
  <speed>0.01</speed>
  <fix>3d</fix>
</trkpt>
<trkpt lat="40.0713749" lon="-105.229789">
  <ele>1583.0</ele>
  <time>2026-08-28T17:50:19Z</time>
  <course>0.0</course>
  <speed>0.0</speed>
  <fix>3d</fix>
</trkpt>
<trkpt lat="40.0713749" lon="-105.229789">
  <ele>1583.0</ele>
  <time>2026-08-28T17:50:19Z</time>
  <course>248.17</course>
  <speed>0.022360679774997897</speed>
  <fix>3d</fix>
</trkpt>
<trkpt lat="40.0713749" lon="-105.229789">
  <ele>1583.0</ele>
  <time>2026-08-28T17:50:19Z</time>
  <course>0.0</course>
  <speed>0.0</speed>
  <fix>3d</fix>
</trkpt>
<trkpt lat="40.0713749" lon="-105.229789">
  <ele>1583.0</ele>
  <time>2026-08-28T17:50:19Z</time>
  <course>248.17</course>
  <speed>0.022360679774997897</speed>
  <fix>3d</fix>
</trkpt>
<trkpt lat="40.0713749" lon="-105.229789">
  <ele>1583.0</ele>
  <time>2026-08-28T17:50:19Z</time>
  <course>0.0</course>
  <speed>0.0</speed>
  <fix>3d</fix>
</trkpt>
<trkpt lat="40.0713749" lon="-105.229789">
  <ele>1583.0</ele>
  <time>2026-08-28T17:50:19Z</time>
  <course>248.16</course>
  <speed>0.022360679774997897</speed>
  <fix>3d</fix>
</trkpt>
<trkpt lat="40.0713749" lon="-105.229789">
  <ele>1583.0</ele>
  <time>2026-08-28T17:50:19Z</time>
  <course>0.0</course>
  <speed>0.0</speed>
  <fix>3d</fix>
</trkpt>
<trkpt lat="40.0713749" lon="-105.229789">
  <ele>1583.0</ele>
  <time>2026-08-28T17:50:19Z</time>
  <course>248.16</course>
  <speed>0.022360679774997897</speed>
  <fix>3d</fix>
</trkpt>
<trkpt lat="40.0713749" lon="-105.229789">
  <ele>1583.0</ele>
  <time>2026-08-28T17:50:19Z</time>
  <course>0.0</course>
  <speed>0.0</speed>
  <fix>3d</fix>
</trkpt>
<trkpt lat="40.0713749" lon="-105.229789">
  <ele>1583.0</ele>
  <time>2026-08-28T17:50:19Z</time>
  <course>248.15</course>
  <speed>0.022360679774997897</speed>
  <fix>3d</fix>
</trkpt>
<trkpt lat="40.0713749" lon="-105.229789">
  <ele>1583.0</ele>
  <time>2026-08-28T17:50:19Z</time>
  <course>0.0</course>
  <speed>0.0</speed>
  <fix>3d</fix>
</trkpt>
<trkpt lat="40.0713749" lon="-105.229789">
  <ele>1583.0</ele>
  <time>2026-08-28T17:50:19Z</time>
  <course>248.15</course>
  <speed>0.022360679774997897</speed>
  <fix>3d</fix>
</trkpt>
<trkpt lat="40.0713749" lon="-105.229789">
  <ele>1583.0</ele>
  <time>2026-08-28T17:50:19Z</time>
  <course>0.0</course>
  <speed>0.0</speed>
  <fix>3d</fix>
</trkpt>
<trkpt lat="40.0713749" lon="-105.229789">
  <ele>1583.0</ele>
  <time>2026-08-28T17:50:19Z</time>
  <course>248.14</course>
  <speed>0.022360679774997897</speed>
  <fix>3d</fix>
</trkpt>
<trkpt lat="40.0713749" lon="-105.229789">
  <ele>1583.0</ele>
  <time>2026-08-28T17:50:19Z</time>
  <course>0.0</course>
  <speed>0.0</speed>
  <fix>3d</fix>
</trkpt>
<trkpt lat="40.0713749" lon="-105.229789">
  <ele>1583.0</ele>
  <time>2026-08-28T17:50:19Z</time>
  <course>248.14</course>
  <speed>0.022360679774997897</speed>
  <fix>3d</fix>
</trkpt>
<trkpt lat="40.0713749" lon="-105.229789">
  <ele>1583.0</ele>
  <time>2026-08-28T17:50:19Z</time>
  <course>0.0</course>
  <speed>0.0</speed>
  <fix>3d</fix>
</trkpt>
<trkpt lat="40.0713749" lon="-105.229789">
  <ele>1583.0</ele>
  <time>2026-08-28T17:50:19Z</time>
  <course>248.13</course>
  <speed>0.022360679774997897</speed>
  <fix>3d</fix>
</trkpt>
<trkpt lat="40.0713749" lon="-105.229789">
  <ele>1583.0</ele>
  <time>2026-08-28T17:50:19Z</time>
  <course>0.0</course>
  <speed>0.0</speed>
  <fix>3d</fix>
</trkpt>
<trkpt lat="40.0713749" lon="-105.229789">
  <ele>1583.0</ele>
  <time>2026-08-28T17:50:19Z</time>
  <course>248.13</course>
  <speed>0.022360679774997897</speed>
  <fix>3d</fix>
</trkpt>
<trkpt lat="40.0713749" lon="-105.229789">
  <ele>1583.0</ele>
  <time>2026-08-28T17:50:19Z</time>
  <course>0.0</course>
  <speed>0.0</speed>
  <fix>3d</fix>
</trkpt>
<trkpt lat="40.0713749" lon="-105.229789">
  <ele>1583.0</ele>
  <time>2026-08-28T17:50:19Z</time>
  <course>248.12</course>
  <speed>0.022360679774997897</speed>
  <fix>3d</fix>
</trkpt>
<trkpt lat="40.0713749" lon="-105.229789">
  <ele>1583.0</ele>
  <time>2026-08-28T17:50:19Z</time>
  <course>0.0</course>
  <speed>0.0</speed>
  <fix>3d</fix>
</trkpt>
<trkpt lat="40.0713749" lon="-105.229789">
  <ele>1583.0</ele>
  <time>2026-08-28T17:50:19Z</time>
  <course>248.12</course>
  <speed>0.022360679774997897</speed>
  <fix>3d</fix>
</trkpt>
<trkpt lat="40.0713749" lon="-105.229789">
  <ele>1583.0</ele>
  <time>2026-08-28T17:50:19Z</time>
  <course>0.0</course>
  <speed>0.0</speed>
  <fix>3d</fix>
</trkpt>
<trkpt lat="40.0713749" lon="-105.229789">
  <ele>1583.0</ele>
  <time>2026-08-28T17:50:19Z</time>
  <course>248.11</course>
  <speed>0.022360679774997897</speed>
  <fix>3d</fix>
</trkpt>
<trkpt lat="40.0713749" lon="-105.229789">
  <ele>1583.0</ele>
  <time>2026-08-28T17:50:19Z</time>
  <course>0.0</course>
  <speed>0.0</speed>
  <fix>3d</fix>
</trkpt>
<trkpt lat="40.0713749" lon="-105.229789">
  <ele>1583.0</ele>
  <time>2026-08-28T17:50:19Z</time>
  <course>248.11</course>
  <speed>0.022360679774997897</speed>
  <fix>3d</fix>
</trkpt>
<trkpt lat="40.0713749" lon="-105.229789">
  <ele>1583.0</ele>
  <time>2026-08-28T17:50:19Z</time>
  <course>0.0</course>
  <speed>0.0</speed>
  <fix>3d</fix>
</trkpt>
<trkpt lat="40.0713749" lon="-105.229789">
  <ele>1583.0</ele>
  <time>2026-08-28T17:50:19Z</time>
  <course>248.1</course>
  <speed>0.022360679774997897</speed>
  <fix>3d</fix>
</trkpt>
<trkpt lat="40.0713749" lon="-105.229789">
  <ele>1583.0</ele>
  <time>2026-08-28T17:50:19Z</time>
  <course>0.0</course>
  <speed>0.0</speed>
  <fix>3d</fix>
</trkpt>
<trkpt lat="40.0713749" lon="-105.229789">
  <ele>1583.0</ele>
  <time>2026-08-28T17:50:19Z</time>
  <course>248.1</course>
  <speed>0.022360679774997897</speed>
  <fix>3d</fix>
</trkpt>
<trkpt lat="40.0713749" lon="-105.229789">
  <ele>1583.0</ele>
  <time>2026-08-28T17:50:19Z</time>
  <course>0.0</course>
  <speed>0.0</speed>
  <fix>3d</fix>
</trkpt>
<trkpt lat="40.0713749" lon="-105.229789">
  <ele>1583.0</ele>
  <time>2026-08-28T17:50:19Z</time>
  <course>248.09</course>
  <speed>0.022360679774997897</speed>
  <fix>3d</fix>
</trkpt>
<trkpt lat="40.0713749" lon="-105.229789">
  <ele>1583.0</ele>
  <time>2026-08-28T17:50:19Z</time>
  <course>0.0</course>
  <speed>0.0</speed>
  <fix>3d</fix>
</trkpt>
<trkpt lat="40.0713749" lon="-105.229789">
  <ele>1583.0</ele>
  <time>2026-08-28T17:50:19Z</time>
  <course>248.09</course>
  <speed>0.022360679774997897</speed>
  <fix>3d</fix>
</trkpt>
<trkpt lat="40.0713749" lon="-105.229789">
  <ele>1583.0</ele>
  <time>2026-08-28T17:50:19Z</time>
  <course>0.0</course>
  <speed>0.0</speed>
  <fix>3d</fix>
</trkpt>
<trkpt lat="40.0713749" lon="-105.229789">
  <ele>1583.0</ele>
  <time>2026-08-28T17:50:19Z</time>
  <course>248.08</course>
  <speed>0.022360679774997897</speed>
  <fix>3d</fix>
</trkpt>
<trkpt lat="40.0713749" lon="-105.229789">
  <ele>1583.0</ele>
  <time>2026-08-28T17:50:19Z</time>
  <course>0.0</course>
  <speed>0.0</speed>
  <fix>3d</fix>
</trkpt>
<trkpt lat="40.0713749" lon="-105.229789">
  <ele>1583.0</ele>
  <time>2026-08-28T17:50:20Z</time>
  <course>248.08</course>
  <speed>0.022360679774997897</speed>
  <fix>3d</fix>
</trkpt>
<trkpt lat="40.0713749" lon="-105.229789">
  <ele>1583.0</ele>
  <time>2026-08-28T17:50:20Z</time>
  <course>0.0</course>
  <speed>0.0</speed>
  <fix>3d</fix>
</trkpt>
<trkpt lat="40.0713749" lon="-105.229789">
  <ele>1583.0</ele>
  <time>2026-08-28T17:50:20Z</time>
  <course>248.07</course>
  <speed>0.022360679774997897</speed>
  <fix>3d</fix>
</trkpt>
<trkpt lat="40.0713749" lon="-105.229789">
  <ele>1583.0</ele>
  <time>2026-08-28T17:50:20Z</time>
  <course>0.0</course>
  <speed>0.0</speed>
  <fix>3d</fix>
</trkpt>
<trkpt lat="40.0713749" lon="-105.229789">
  <ele>1583.0</ele>
  <time>2026-08-28T17:50:20Z</time>
  <course>248.07</course>
  <speed>0.022360679774997897</speed>
  <fix>3d</fix>
</trkpt>
<trkpt lat="40.0713749" lon="-105.229789">
  <ele>1583.0</ele>
  <time>2026-08-28T17:50:20Z</time>
  <course>0.0</course>
  <speed>0.0</speed>
  <fix>3d</fix>
</trkpt>
<trkpt lat="40.0713749" lon="-105.229789">
  <ele>1583.0</ele>
  <time>2026-08-28T17:50:20Z</time>
  <course>248.06</course>
  <speed>0.022360679774997897</speed>
  <fix>3d</fix>
</trkpt>
<trkpt lat="40.0713749" lon="-105.229789">
  <ele>1583.0</ele>
  <time>2026-08-28T17:50:20Z</time>
  <course>0.0</course>
  <speed>0.0</speed>
  <fix>3d</fix>
</trkpt>
<trkpt lat="40.0713749" lon="-105.229789">
  <ele>1583.0</ele>
  <time>2026-08-28T17:50:20Z</time>
  <course>248.06</course>
  <speed>0.022360679774997897</speed>
  <fix>3d</fix>
</trkpt>
<trkpt lat="40.0713749" lon="-105.229789">
  <ele>1583.0</ele>
  <time>2026-08-28T17:50:20Z</time>
  <course>0.0</course>
  <speed>0.0</speed>
  <fix>3d</fix>
</trkpt>
<trkpt lat="40.0713749" lon="-105.229789">
  <ele>1583.0</ele>
  <time>2026-08-28T17:50:20Z</time>
  <course>248.05</course>
  <speed>0.022360679774997897</speed>
  <fix>3d</fix>
</trkpt>
<trkpt lat="40.0713749" lon="-105.229789">
  <ele>1583.0</ele>
  <time>2026-08-28T17:50:20Z</time>
  <course>0.0</course>
  <speed>0.0</speed>
  <fix>3d</fix>
</trkpt>
<trkpt lat="40.0713749" lon="-105.229789">
  <ele>1583.0</ele>
  <time>2026-08-28T17:50:20Z</time>
  <course>248.05</course>
  <speed>0.022360679774997897</speed>
  <fix>3d</fix>
</trkpt>
<trkpt lat="40.0713749" lon="-105.229789">
  <ele>1583.0</ele>
  <time>2026-08-28T17:50:20Z</time>
  <course>0.0</course>
  <speed>0.0</speed>
  <fix>3d</fix>
</trkpt>
<trkpt lat="40.0713749" lon="-105.229789">
  <ele>1583.0</ele>
  <time>2026-08-28T17:50:20Z</time>
  <course>248.05</course>
  <speed>0.022360679774997897</speed>
  <fix>3d</fix>
</trkpt>
<trkpt lat="40.0713749" lon="-105.229789">
  <ele>1583.0</ele>
  <time>2026-08-28T17:50:20Z</time>
  <course>0.0</course>
  <speed>0.0</speed>
  <fix>3d</fix>
</trkpt>
<trkpt lat="40.0713749" lon="-105.229789">
  <ele>1583.0</ele>
  <time>2026-08-28T17:50:20Z</time>
  <course>248.04</course>
  <speed>0.022360679774997897</speed>
  <fix>3d</fix>
</trkpt>
<trkpt lat="40.0713749" lon="-105.229789">
  <ele>1583.0</ele>
  <time>2026-08-28T17:50:20Z</time>
  <course>0.0</course>
  <speed>0.0</speed>
  <fix>3d</fix>
</trkpt>
<trkpt lat="40.0713749" lon="-105.229789">
  <ele>1583.0</ele>
  <time>2026-08-28T17:50:20Z</time>
  <course>248.04</course>
  <speed>0.022360679774997897</speed>
  <fix>3d</fix>
</trkpt>
<trkpt lat="40.0713749" lon="-105.229789">
  <ele>1583.0</ele>
  <time>2026-08-28T17:50:20Z</time>
  <course>0.0</course>
  <speed>0.0</speed>
  <fix>3d</fix>
</trkpt>
<trkpt lat="40.0713749" lon="-105.229789">
  <ele>1583.0</ele>
  <time>2026-08-28T17:50:20Z</time>
  <course>248.03</course>
  <speed>0.022360679774997897</speed>
  <fix>3d</fix>
</trkpt>
<trkpt lat="40.0713749" lon="-105.229789">
  <ele>1583.0</ele>
  <time>2026-08-28T17:50:20Z</time>
  <course>0.0</course>
  <speed>0.0</speed>
  <fix>3d</fix>
</trkpt>
<trkpt lat="40.0713749" lon="-105.229789">
  <ele>1583.0</ele>
  <time>2026-08-28T17:50:20Z</time>
  <course>248.03</course>
  <speed>0.022360679774997897</speed>
  <fix>3d</fix>
</trkpt>
<trkpt lat="40.0713749" lon="-105.229789">
  <ele>1583.0</ele>
  <time>2026-08-28T17:50:20Z</time>
  <course>0.0</course>
  <speed>0.0</speed>
  <fix>3d</fix>
</trkpt>
<trkpt lat="40.0713749" lon="-105.229789">
  <ele>1583.0</ele>
  <time>2026-08-28T17:50:20Z</time>
  <course>248.02</course>
  <speed>0.022360679774997897</speed>
  <fix>3d</fix>
</trkpt>
<trkpt lat="40.0713749" lon="-105.229789">
  <ele>1583.0</ele>
  <time>2026-08-28T17:50:20Z</time>
  <course>0.0</course>
  <speed>0.0</speed>
  <fix>3d</fix>
</trkpt>
<trkpt lat="40.0713749" lon="-105.229789">
  <ele>1583.0</ele>
  <time>2026-08-28T17:50:20Z</time>
  <course>248.02</course>
  <speed>0.022360679774997897</speed>
  <fix>3d</fix>
</trkpt>
<trkpt lat="40.0713749" lon="-105.229789">
  <ele>1583.0</ele>
  <time>2026-08-28T17:50:20Z</time>
  <course>0.0</course>
  <speed>0.0</speed>
  <fix>3d</fix>
</trkpt>
<trkpt lat="40.0713749" lon="-105.229789">
  <ele>1583.0</ele>
  <time>2026-08-28T17:50:20Z</time>
  <course>248.01</course>
  <speed>0.022360679774997897</speed>
  <fix>3d</fix>
</trkpt>
<trkpt lat="40.0713749" lon="-105.229789">
  <ele>1583.0</ele>
  <time>2026-08-28T17:50:20Z</time>
  <course>0.0</course>
  <speed>0.0</speed>
  <fix>3d</fix>
</trkpt>
<trkpt lat="40.0713749" lon="-105.229789">
  <ele>1583.0</ele>
  <time>2026-08-28T17:50:20Z</time>
  <course>248.01</course>
  <speed>0.022360679774997897</speed>
  <fix>3d</fix>
</trkpt>
<trkpt lat="40.0713749" lon="-105.229789">
  <ele>1583.0</ele>
  <time>2026-08-28T17:50:20Z</time>
  <course>0.0</course>
  <speed>0.0</speed>
  <fix>3d</fix>
</trkpt>
<trkpt lat="40.0713749" lon="-105.229789">
  <ele>1583.0</ele>
  <time>2026-08-28T17:50:20Z</time>
  <course>248.0</course>
  <speed>0.022360679774997897</speed>
  <fix>3d</fix>
</trkpt>
<trkpt lat="40.0713749" lon="-105.229789">
  <ele>1583.0</ele>
  <time>2026-08-28T17:50:20Z</time>
  <course>0.0</course>
  <speed>0.0</speed>
  <fix>3d</fix>
</trkpt>
<trkpt lat="40.0713749" lon="-105.229789">
  <ele>1583.0</ele>
  <time>2026-08-28T17:50:20Z</time>
  <course>248.0</course>
  <speed>0.022360679774997897</speed>
  <fix>3d</fix>
</trkpt>
<trkpt lat="40.0713749" lon="-105.229789">
  <ele>1583.0</ele>
  <time>2026-08-28T17:50:20Z</time>
  <course>0.0</course>
  <speed>0.0</speed>
  <fix>3d</fix>
</trkpt>
<trkpt lat="40.0713749" lon="-105.229789">
  <ele>1583.0</ele>
  <time>2026-08-28T17:50:20Z</time>
  <course>247.99</course>
  <speed>0.022360679774997897</speed>
  <fix>3d</fix>
</trkpt>
<trkpt lat="40.0713749" lon="-105.229789">
  <ele>1583.0</ele>
  <time>2026-08-28T17:50:20Z</time>
  <course>0.0</course>
  <speed>0.0</speed>
  <fix>3d</fix>
</trkpt>
<trkpt lat="40.0713749" lon="-105.229789">
  <ele>1583.0</ele>
  <time>2026-08-28T17:50:20Z</time>
  <course>247.99</course>
  <speed>0.022360679774997897</speed>
  <fix>3d</fix>
</trkpt>
<trkpt lat="40.0713749" lon="-105.229789">
  <ele>1583.0</ele>
  <time>2026-08-28T17:50:20Z</time>
  <course>0.0</course>
  <speed>0.0</speed>
  <fix>3d</fix>
</trkpt>
<trkpt lat="40.0713749" lon="-105.229789">
  <ele>1583.0</ele>
  <time>2026-08-28T17:50:20Z</time>
  <course>247.99</course>
  <speed>0.022360679774997897</speed>
  <fix>3d</fix>
</trkpt>
<trkpt lat="40.0713749" lon="-105.229789">
  <ele>1583.0</ele>
  <time>2026-08-28T17:50:20Z</time>
  <course>0.0</course>
  <speed>0.0</speed>
  <fix>3d</fix>
</trkpt>
<trkpt lat="40.0713749" lon="-105.229789">
  <ele>1583.0</ele>
  <time>2026-08-28T17:50:20Z</time>
  <course>247.98</course>
  <speed>0.022360679774997897</speed>
  <fix>3d</fix>
</trkpt>
<trkpt lat="40.0713749" lon="-105.229789">
  <ele>1583.0</ele>
  <time>2026-08-28T17:50:20Z</time>
  <course>0.0</course>
  <speed>0.0</speed>
  <fix>3d</fix>
</trkpt>
<trkpt lat="40.0713749" lon="-105.229789">
  <ele>1583.0</ele>
  <time>2026-08-28T17:50:20Z</time>
  <course>247.98</course>
  <speed>0.022360679774997897</speed>
  <fix>3d</fix>
</trkpt>
<trkpt lat="40.0713749" lon="-105.229789">
  <ele>1583.0</ele>
  <time>2026-08-28T17:50:20Z</time>
  <course>0.0</course>
  <speed>0.0</speed>
  <fix>3d</fix>
</trkpt>
<trkpt lat="40.0713749" lon="-105.229789">
  <ele>1583.0</ele>
  <time>2026-08-28T17:50:20Z</time>
  <course>247.97</course>
  <speed>0.022360679774997897</speed>
  <fix>3d</fix>
</trkpt>
<trkpt lat="40.0713749" lon="-105.229789">
  <ele>1583.0</ele>
  <time>2026-08-28T17:50:20Z</time>
  <course>0.0</course>
  <speed>0.0</speed>
  <fix>3d</fix>
</trkpt>
<trkpt lat="40.0713749" lon="-105.229789">
  <ele>1583.0</ele>
  <time>2026-08-28T17:50:20Z</time>
  <course>247.97</course>
  <speed>0.022360679774997897</speed>
  <fix>3d</fix>
</trkpt>
<trkpt lat="40.0713749" lon="-105.229789">
  <ele>1583.0</ele>
  <time>2026-08-28T17:50:20Z</time>
  <course>0.0</course>
  <speed>0.0</speed>
  <fix>3d</fix>
</trkpt>
<trkpt lat="40.0713749" lon="-105.229789">
  <ele>1583.0</ele>
  <time>2026-08-28T17:50:20Z</time>
  <course>247.96</course>
  <speed>0.022360679774997897</speed>
  <fix>3d</fix>
</trkpt>
<trkpt lat="40.0713749" lon="-105.229789">
  <ele>1583.0</ele>
  <time>2026-08-28T17:50:20Z</time>
  <course>0.0</course>
  <speed>0.0</speed>
  <fix>3d</fix>
</trkpt>
<trkpt lat="40.0713749" lon="-105.229789">
  <ele>1583.0</ele>
  <time>2026-08-28T17:50:20Z</time>
  <course>247.96</course>
  <speed>0.022360679774997897</speed>
  <fix>3d</fix>
</trkpt>
<trkpt lat="40.0713749" lon="-105.229789">
  <ele>1583.0</ele>
  <time>2026-08-28T17:50:20Z</time>
  <course>0.0</course>
  <speed>0.0</speed>
  <fix>3d</fix>
</trkpt>
<trkpt lat="40.0713749" lon="-105.229789">
  <ele>1583.0</ele>
  <time>2026-08-28T17:50:20Z</time>
  <course>247.95</course>
  <speed>0.022360679774997897</speed>
  <fix>3d</fix>
</trkpt>
<trkpt lat="40.0713749" lon="-105.229789">
  <ele>1583.0</ele>
  <time>2026-08-28T17:50:20Z</time>
  <course>0.0</course>
  <speed>0.0</speed>
  <fix>3d</fix>
</trkpt>
<trkpt lat="40.0713749" lon="-105.229789">
  <ele>1583.0</ele>
  <time>2026-08-28T17:50:20Z</time>
  <course>247.95</course>
  <speed>0.022360679774997897</speed>
  <fix>3d</fix>
</trkpt>
<trkpt lat="40.0713749" lon="-105.229789">
  <ele>1583.0</ele>
  <time>2026-08-28T17:50:20Z</time>
  <course>0.0</course>
  <speed>0.0</speed>
  <fix>3d</fix>
</trkpt>
<trkpt lat="40.0713749" lon="-105.229789">
  <ele>1583.0</ele>
  <time>2026-08-28T17:50:20Z</time>
  <course>247.95</course>
  <speed>0.022360679774997897</speed>
  <fix>3d</fix>
</trkpt>
<trkpt lat="40.0713749" lon="-105.229789">
  <ele>1583.0</ele>
  <time>2026-08-28T17:50:20Z</time>
  <course>0.0</course>
  <speed>0.0</speed>
  <fix>3d</fix>
</trkpt>
<trkpt lat="40.0713749" lon="-105.229789">
  <ele>1583.0</ele>
  <time>2026-08-28T17:50:20Z</time>
  <course>247.94</course>
  <speed>0.022360679774997897</speed>
  <fix>3d</fix>
</trkpt>
<trkpt lat="40.0713749" lon="-105.229789">
  <ele>1583.0</ele>
  <time>2026-08-28T17:50:20Z</time>
  <course>0.0</course>
  <speed>0.0</speed>
  <fix>3d</fix>
</trkpt>
<trkpt lat="40.0713749" lon="-105.229789">
  <ele>1583.0</ele>
  <time>2026-08-28T17:50:20Z</time>
  <course>247.94</course>
  <speed>0.022360679774997897</speed>
  <fix>3d</fix>
</trkpt>
<trkpt lat="40.0713749" lon="-105.229789">
  <ele>1583.0</ele>
  <time>2026-08-28T17:50:20Z</time>
  <course>0.0</course>
  <speed>0.0</speed>
  <fix>3d</fix>
</trkpt>
<trkpt lat="40.0713749" lon="-105.229789">
  <ele>1583.0</ele>
  <time>2026-08-28T17:50:20Z</time>
  <course>247.93</course>
  <speed>0.022360679774997897</speed>
  <fix>3d</fix>
</trkpt>
<trkpt lat="40.0713749" lon="-105.229789">
  <ele>1583.0</ele>
  <time>2026-08-28T17:50:20Z</time>
  <course>0.0</course>
  <speed>0.0</speed>
  <fix>3d</fix>
</trkpt>
<trkpt lat="40.0713749" lon="-105.229789">
  <ele>1583.0</ele>
  <time>2026-08-28T17:50:20Z</time>
  <course>247.93</course>
  <speed>0.022360679774997897</speed>
  <fix>3d</fix>
</trkpt>
<trkpt lat="40.0713749" lon="-105.229789">
  <ele>1583.0</ele>
  <time>2026-08-28T17:50:20Z</time>
  <course>0.0</course>
  <speed>0.0</speed>
  <fix>3d</fix>
</trkpt>
<trkpt lat="40.0713749" lon="-105.229789">
  <ele>1583.0</ele>
  <time>2026-08-28T17:50:20Z</time>
  <course>247.92</course>
  <speed>0.022360679774997897</speed>
  <fix>3d</fix>
</trkpt>
<trkpt lat="40.0713749" lon="-105.229789">
  <ele>1583.0</ele>
  <time>2026-08-28T17:50:20Z</time>
  <course>0.0</course>
  <speed>0.0</speed>
  <fix>3d</fix>
</trkpt>
<trkpt lat="40.0713749" lon="-105.229789">
  <ele>1583.0</ele>
  <time>2026-08-28T17:50:20Z</time>
  <course>247.92</course>
  <speed>0.022360679774997897</speed>
  <fix>3d</fix>
</trkpt>
<trkpt lat="40.0713749" lon="-105.229789">
  <ele>1583.0</ele>
  <time>2026-08-28T17:50:20Z</time>
  <course>0.0</course>
  <speed>0.0</speed>
  <fix>3d</fix>
</trkpt>
<trkpt lat="40.0713749" lon="-105.229789">
  <ele>1583.0</ele>
  <time>2026-08-28T17:50:20Z</time>
  <course>247.92</course>
  <speed>0.022360679774997897</speed>
  <fix>3d</fix>
</trkpt>
<trkpt lat="40.0713749" lon="-105.229789">
  <ele>1583.0</ele>
  <time>2026-08-28T17:50:20Z</time>
  <course>0.0</course>
  <speed>0.0</speed>
  <fix>3d</fix>
</trkpt>
<trkpt lat="40.0713749" lon="-105.229789">
  <ele>1583.0</ele>
  <time>2026-08-28T17:50:20Z</time>
  <course>247.91</course>
  <speed>0.022360679774997897</speed>
  <fix>3d</fix>
</trkpt>
<trkpt lat="40.0713749" lon="-105.229789">
  <ele>1583.0</ele>
  <time>2026-08-28T17:50:20Z</time>
  <course>0.0</course>
  <speed>0.0</speed>
  <fix>3d</fix>
</trkpt>
<trkpt lat="40.0713749" lon="-105.229789">
  <ele>1583.0</ele>
  <time>2026-08-28T17:50:20Z</time>
  <course>247.91</course>
  <speed>0.022360679774997897</speed>
  <fix>3d</fix>
</trkpt>
<trkpt lat="40.0713749" lon="-105.229789">
  <ele>1583.0</ele>
  <time>2026-08-28T17:50:20Z</time>
  <course>0.0</course>
  <speed>0.0</speed>
  <fix>3d</fix>
</trkpt>
<trkpt lat="40.0713749" lon="-105.229789">
  <ele>1583.0</ele>
  <time>2026-08-28T17:50:20Z</time>
  <course>247.9</course>
  <speed>0.022360679774997897</speed>
  <fix>3d</fix>
</trkpt>
<trkpt lat="40.0713749" lon="-105.229789">
  <ele>1583.0</ele>
  <time>2026-08-28T17:50:20Z</time>
  <course>0.0</course>
  <speed>0.0</speed>
  <fix>3d</fix>
</trkpt>
<trkpt lat="40.0713749" lon="-105.229789">
  <ele>1583.0</ele>
  <time>2026-08-28T17:50:20Z</time>
  <course>247.9</course>
  <speed>0.022360679774997897</speed>
  <fix>3d</fix>
</trkpt>
<trkpt lat="40.0713749" lon="-105.229789">
  <ele>1583.0</ele>
  <time>2026-08-28T17:50:20Z</time>
  <course>0.0</course>
  <speed>0.0</speed>
  <fix>3d</fix>
</trkpt>
<trkpt lat="40.0713749" lon="-105.229789">
  <ele>1583.0</ele>
  <time>2026-08-28T17:50:20Z</time>
  <course>247.89</course>
  <speed>0.022360679774997897</speed>
  <fix>3d</fix>
</trkpt>
<trkpt lat="40.0713749" lon="-105.229789">
  <ele>1583.0</ele>
  <time>2026-08-28T17:50:20Z</time>
  <course>0.0</course>
  <speed>0.0</speed>
  <fix>3d</fix>
</trkpt>
<trkpt lat="40.0713749" lon="-105.229789">
  <ele>1583.0</ele>
  <time>2026-08-28T17:50:20Z</time>
  <course>247.89</course>
  <speed>0.022360679774997897</speed>
  <fix>3d</fix>
</trkpt>
<trkpt lat="40.0713749" lon="-105.229789">
  <ele>1583.0</ele>
  <time>2026-08-28T17:50:20Z</time>
  <course>0.0</course>
  <speed>0.0</speed>
  <fix>3d</fix>
</trkpt>
<trkpt lat="40.0713749" lon="-105.229789">
  <ele>1583.0</ele>
  <time>2026-08-28T17:50:20Z</time>
  <course>247.89</course>
  <speed>0.022360679774997897</speed>
  <fix>3d</fix>
</trkpt>
<trkpt lat="40.0713749" lon="-105.229789">
  <ele>1583.0</ele>
  <time>2026-08-28T17:50:20Z</time>
  <course>0.0</course>
  <speed>0.0</speed>
  <fix>3d</fix>
</trkpt>
<trkpt lat="40.0713749" lon="-105.229789">
  <ele>1583.0</ele>
  <time>2026-08-28T17:50:20Z</time>
  <course>247.88</course>
  <speed>0.0316227766016838</speed>
  <fix>3d</fix>
</trkpt>
<trkpt lat="40.0713749" lon="-105.229789">
  <ele>1583.0</ele>
  <time>2026-08-28T17:50:20Z</time>
  <course>0.0</course>
  <speed>0.0</speed>
  <fix>3d</fix>
</trkpt>
<trkpt lat="40.0713749" lon="-105.229789">
  <ele>1583.0</ele>
  <time>2026-08-28T17:50:20Z</time>
  <course>247.88</course>
  <speed>0.0316227766016838</speed>
  <fix>3d</fix>
</trkpt>
<trkpt lat="40.0713749" lon="-105.229789">
  <ele>1583.0</ele>
  <time>2026-08-28T17:50:20Z</time>
  <course>0.0</course>
  <speed>0.0</speed>
  <fix>3d</fix>
</trkpt>
<trkpt lat="40.0713749" lon="-105.229789">
  <ele>1583.0</ele>
  <time>2026-08-28T17:50:20Z</time>
  <course>247.87</course>
  <speed>0.0316227766016838</speed>
  <fix>3d</fix>
</trkpt>
<trkpt lat="40.0713749" lon="-105.229789">
  <ele>1583.0</ele>
  <time>2026-08-28T17:50:20Z</time>
  <course>0.0</course>
  <speed>0.0</speed>
  <fix>3d</fix>
</trkpt>
<trkpt lat="40.0713749" lon="-105.229789">
  <ele>1583.0</ele>
  <time>2026-08-28T17:50:20Z</time>
  <course>247.87</course>
  <speed>0.0316227766016838</speed>
  <fix>3d</fix>
</trkpt>
<trkpt lat="40.0713749" lon="-105.229789">
  <ele>1583.0</ele>
  <time>2026-08-28T17:50:20Z</time>
  <course>0.0</course>
  <speed>0.0</speed>
  <fix>3d</fix>
</trkpt>
<trkpt lat="40.0713749" lon="-105.229789">
  <ele>1583.0</ele>
  <time>2026-08-28T17:50:20Z</time>
  <course>247.87</course>
  <speed>0.0316227766016838</speed>
  <fix>3d</fix>
</trkpt>
<trkpt lat="40.0713749" lon="-105.229789">
  <ele>1583.0</ele>
  <time>2026-08-28T17:50:20Z</time>
  <course>0.0</course>
  <speed>0.0</speed>
  <fix>3d</fix>
</trkpt>
<trkpt lat="40.0713749" lon="-105.229789">
  <ele>1583.0</ele>
  <time>2026-08-28T17:50:20Z</time>
  <course>247.86</course>
  <speed>0.0316227766016838</speed>
  <fix>3d</fix>
</trkpt>
<trkpt lat="40.0713749" lon="-105.229789">
  <ele>1583.0</ele>
  <time>2026-08-28T17:50:20Z</time>
  <course>0.0</course>
  <speed>0.0</speed>
  <fix>3d</fix>
</trkpt>
<trkpt lat="40.0713749" lon="-105.229789">
  <ele>1583.0</ele>
  <time>2026-08-28T17:50:20Z</time>
  <course>247.86</course>
  <speed>0.0316227766016838</speed>
  <fix>3d</fix>
</trkpt>
<trkpt lat="40.0713749" lon="-105.229789">
  <ele>1583.0</ele>
  <time>2026-08-28T17:50:20Z</time>
  <course>0.0</course>
  <speed>0.0</speed>
  <fix>3d</fix>
</trkpt>
<trkpt lat="40.0713749" lon="-105.229789">
  <ele>1583.0</ele>
  <time>2026-08-28T17:50:20Z</time>
  <course>247.85</course>
  <speed>0.0316227766016838</speed>
  <fix>3d</fix>
</trkpt>
<trkpt lat="40.0713749" lon="-105.229789">
  <ele>1583.0</ele>
  <time>2026-08-28T17:50:20Z</time>
  <course>0.0</course>
  <speed>0.0</speed>
  <fix>3d</fix>
</trkpt>
<trkpt lat="40.0713749" lon="-105.229789">
  <ele>1583.0</ele>
  <time>2026-08-28T17:50:20Z</time>
  <course>247.85</course>
  <speed>0.0316227766016838</speed>
  <fix>3d</fix>
</trkpt>
<trkpt lat="40.0713749" lon="-105.229789">
  <ele>1583.0</ele>
  <time>2026-08-28T17:50:20Z</time>
  <course>0.0</course>
  <speed>0.0</speed>
  <fix>3d</fix>
</trkpt>
<trkpt lat="40.0713749" lon="-105.229789">
  <ele>1583.0</ele>
  <time>2026-08-28T17:50:20Z</time>
  <course>247.85</course>
  <speed>0.0316227766016838</speed>
  <fix>3d</fix>
</trkpt>
<trkpt lat="40.0713749" lon="-105.229789">
  <ele>1583.0</ele>
  <time>2026-08-28T17:50:20Z</time>
  <course>0.0</course>
  <speed>0.0</speed>
  <fix>3d</fix>
</trkpt>
<trkpt lat="40.0713749" lon="-105.229789">
  <ele>1583.0</ele>
  <time>2026-08-28T17:50:20Z</time>
  <course>247.84</course>
  <speed>0.0316227766016838</speed>
  <fix>3d</fix>
</trkpt>
<trkpt lat="40.0713749" lon="-105.229789">
  <ele>1583.0</ele>
  <time>2026-08-28T17:50:20Z</time>
  <course>0.0</course>
  <speed>0.0</speed>
  <fix>3d</fix>
</trkpt>
<trkpt lat="40.0713749" lon="-105.229789">
  <ele>1583.0</ele>
  <time>2026-08-28T17:50:20Z</time>
  <course>247.84</course>
  <speed>0.0316227766016838</speed>
  <fix>3d</fix>
</trkpt>
<trkpt lat="40.0713749" lon="-105.229789">
  <ele>1583.0</ele>
  <time>2026-08-28T17:50:20Z</time>
  <course>0.0</course>
  <speed>0.0</speed>
  <fix>3d</fix>
</trkpt>
<trkpt lat="40.0713749" lon="-105.229789">
  <ele>1583.0</ele>
  <time>2026-08-28T17:50:20Z</time>
  <course>247.83</course>
  <speed>0.0316227766016838</speed>
  <fix>3d</fix>
</trkpt>
<trkpt lat="40.0713749" lon="-105.229789">
  <ele>1583.0</ele>
  <time>2026-08-28T17:50:20Z</time>
  <course>0.0</course>
  <speed>0.0</speed>
  <fix>3d</fix>
</trkpt>
<trkpt lat="40.0713749" lon="-105.229789">
  <ele>1583.0</ele>
  <time>2026-08-28T17:50:20Z</time>
  <course>247.83</course>
  <speed>0.0316227766016838</speed>
  <fix>3d</fix>
</trkpt>
<trkpt lat="40.0713749" lon="-105.229789">
  <ele>1583.0</ele>
  <time>2026-08-28T17:50:20Z</time>
  <course>0.0</course>
  <speed>0.0</speed>
  <fix>3d</fix>
</trkpt>
<trkpt lat="40.0713749" lon="-105.229789">
  <ele>1583.0</ele>
  <time>2026-08-28T17:50:20Z</time>
  <course>247.83</course>
  <speed>0.0316227766016838</speed>
  <fix>3d</fix>
</trkpt>
<trkpt lat="40.0713749" lon="-105.229789">
  <ele>1583.0</ele>
  <time>2026-08-28T17:50:20Z</time>
  <course>0.0</course>
  <speed>0.0</speed>
  <fix>3d</fix>
</trkpt>
<trkpt lat="40.0713749" lon="-105.229789">
  <ele>1583.0</ele>
  <time>2026-08-28T17:50:20Z</time>
  <course>247.82</course>
  <speed>0.0316227766016838</speed>
  <fix>3d</fix>
</trkpt>
<trkpt lat="40.0713749" lon="-105.229789">
  <ele>1583.0</ele>
  <time>2026-08-28T17:50:20Z</time>
  <course>0.0</course>
  <speed>0.0</speed>
  <fix>3d</fix>
</trkpt>
<trkpt lat="40.0713749" lon="-105.229789">
  <ele>1583.0</ele>
  <time>2026-08-28T17:50:20Z</time>
  <course>247.82</course>
  <speed>0.0316227766016838</speed>
  <fix>3d</fix>
</trkpt>
<trkpt lat="40.0713749" lon="-105.229789">
  <ele>1583.0</ele>
  <time>2026-08-28T17:50:20Z</time>
  <course>0.0</course>
  <speed>0.0</speed>
  <fix>3d</fix>
</trkpt>
<trkpt lat="40.0713749" lon="-105.229789">
  <ele>1583.0</ele>
  <time>2026-08-28T17:50:20Z</time>
  <course>247.82</course>
  <speed>0.0316227766016838</speed>
  <fix>3d</fix>
</trkpt>
<trkpt lat="40.0713749" lon="-105.229789">
  <ele>1583.0</ele>
  <time>2026-08-28T17:50:20Z</time>
  <course>0.0</course>
  <speed>0.0</speed>
  <fix>3d</fix>
</trkpt>
<trkpt lat="40.0713749" lon="-105.229789">
  <ele>1583.0</ele>
  <time>2026-08-28T17:50:20Z</time>
  <course>247.81</course>
  <speed>0.0316227766016838</speed>
  <fix>3d</fix>
</trkpt>
<trkpt lat="40.0713749" lon="-105.229789">
  <ele>1583.0</ele>
  <time>2026-08-28T17:50:20Z</time>
  <course>0.0</course>
  <speed>0.0</speed>
  <fix>3d</fix>
</trkpt>
<trkpt lat="40.0713749" lon="-105.229789">
  <ele>1583.0</ele>
  <time>2026-08-28T17:50:20Z</time>
  <course>247.81</course>
  <speed>0.0316227766016838</speed>
  <fix>3d</fix>
</trkpt>
<trkpt lat="40.0713749" lon="-105.229789">
  <ele>1583.0</ele>
  <time>2026-08-28T17:50:20Z</time>
  <course>0.0</course>
  <speed>0.0</speed>
  <fix>3d</fix>
</trkpt>
<trkpt lat="40.0713749" lon="-105.229789">
  <ele>1583.0</ele>
  <time>2026-08-28T17:50:20Z</time>
  <course>247.8</course>
  <speed>0.0316227766016838</speed>
  <fix>3d</fix>
</trkpt>
<trkpt lat="40.0713749" lon="-105.229789">
  <ele>1583.0</ele>
  <time>2026-08-28T17:50:20Z</time>
  <course>0.0</course>
  <speed>0.0</speed>
  <fix>3d</fix>
</trkpt>
<trkpt lat="40.0713749" lon="-105.229789">
  <ele>1583.0</ele>
  <time>2026-08-28T17:50:20Z</time>
  <course>247.8</course>
  <speed>0.0316227766016838</speed>
  <fix>3d</fix>
</trkpt>
<trkpt lat="40.0713749" lon="-105.229789">
  <ele>1583.0</ele>
  <time>2026-08-28T17:50:20Z</time>
  <course>0.0</course>
  <speed>0.0</speed>
  <fix>3d</fix>
</trkpt>
<trkpt lat="40.0713749" lon="-105.229789">
  <ele>1583.0</ele>
  <time>2026-08-28T17:50:20Z</time>
  <course>247.8</course>
  <speed>0.0316227766016838</speed>
  <fix>3d</fix>
</trkpt>
<trkpt lat="40.0713749" lon="-105.229789">
  <ele>1583.0</ele>
  <time>2026-08-28T17:50:20Z</time>
  <course>0.0</course>
  <speed>0.0</speed>
  <fix>3d</fix>
</trkpt>
<trkpt lat="40.0713749" lon="-105.229789">
  <ele>1583.0</ele>
  <time>2026-08-28T17:50:20Z</time>
  <course>247.79</course>
  <speed>0.0316227766016838</speed>
  <fix>3d</fix>
</trkpt>
<trkpt lat="40.0713749" lon="-105.229789">
  <ele>1583.0</ele>
  <time>2026-08-28T17:50:20Z</time>
  <course>0.0</course>
  <speed>0.0</speed>
  <fix>3d</fix>
</trkpt>
<trkpt lat="40.0713749" lon="-105.229789">
  <ele>1583.0</ele>
  <time>2026-08-28T17:50:20Z</time>
  <course>247.79</course>
  <speed>0.0316227766016838</speed>
  <fix>3d</fix>
</trkpt>
<trkpt lat="40.0713749" lon="-105.229789">
  <ele>1583.0</ele>
  <time>2026-08-28T17:50:20Z</time>
  <course>0.0</course>
  <speed>0.0</speed>
  <fix>3d</fix>
</trkpt>
<trkpt lat="40.0713749" lon="-105.229789">
  <ele>1583.0</ele>
  <time>2026-08-28T17:50:20Z</time>
  <course>247.79</course>
  <speed>0.0316227766016838</speed>
  <fix>3d</fix>
</trkpt>
<trkpt lat="40.0713749" lon="-105.229789">
  <ele>1583.0</ele>
  <time>2026-08-28T17:50:20Z</time>
  <course>0.0</course>
  <speed>0.0</speed>
  <fix>3d</fix>
</trkpt>
<trkpt lat="40.0713749" lon="-105.229789">
  <ele>1583.0</ele>
  <time>2026-08-28T17:50:20Z</time>
  <course>247.78</course>
  <speed>0.0316227766016838</speed>
  <fix>3d</fix>
</trkpt>
<trkpt lat="40.0713749" lon="-105.229789">
  <ele>1583.0</ele>
  <time>2026-08-28T17:50:20Z</time>
  <course>0.0</course>
  <speed>0.0</speed>
  <fix>3d</fix>
</trkpt>
<trkpt lat="40.0713749" lon="-105.229789">
  <ele>1583.0</ele>
  <time>2026-08-28T17:50:20Z</time>
  <course>247.78</course>
  <speed>0.0316227766016838</speed>
  <fix>3d</fix>
</trkpt>
<trkpt lat="40.0713749" lon="-105.229789">
  <ele>1583.0</ele>
  <time>2026-08-28T17:50:20Z</time>
  <course>0.0</course>
  <speed>0.0</speed>
  <fix>3d</fix>
</trkpt>
<trkpt lat="40.0713749" lon="-105.229789">
  <ele>1583.0</ele>
  <time>2026-08-28T17:50:20Z</time>
  <course>247.78</course>
  <speed>0.0316227766016838</speed>
  <fix>3d</fix>
</trkpt>
<trkpt lat="40.0713749" lon="-105.229789">
  <ele>1583.0</ele>
  <time>2026-08-28T17:50:20Z</time>
  <course>0.0</course>
  <speed>0.0</speed>
  <fix>3d</fix>
</trkpt>
<trkpt lat="40.0713749" lon="-105.229789">
  <ele>1583.0</ele>
  <time>2026-08-28T17:50:20Z</time>
  <course>247.77</course>
  <speed>0.0316227766016838</speed>
  <fix>3d</fix>
</trkpt>
<trkpt lat="40.0713749" lon="-105.229789">
  <ele>1583.0</ele>
  <time>2026-08-28T17:50:20Z</time>
  <course>0.0</course>
  <speed>0.0</speed>
  <fix>3d</fix>
</trkpt>
<trkpt lat="40.0713749" lon="-105.229789">
  <ele>1583.0</ele>
  <time>2026-08-28T17:50:20Z</time>
  <course>247.77</course>
  <speed>0.0316227766016838</speed>
  <fix>3d</fix>
</trkpt>
<trkpt lat="40.0713749" lon="-105.229789">
  <ele>1583.0</ele>
  <time>2026-08-28T17:50:20Z</time>
  <course>0.0</course>
  <speed>0.0</speed>
  <fix>3d</fix>
</trkpt>
<trkpt lat="40.0713749" lon="-105.229789">
  <ele>1583.0</ele>
  <time>2026-08-28T17:50:20Z</time>
  <course>247.76</course>
  <speed>0.0316227766016838</speed>
  <fix>3d</fix>
</trkpt>
<trkpt lat="40.0713749" lon="-105.229789">
  <ele>1583.0</ele>
  <time>2026-08-28T17:50:20Z</time>
  <course>0.0</course>
  <speed>0.0</speed>
  <fix>3d</fix>
</trkpt>
<trkpt lat="40.0713749" lon="-105.229789">
  <ele>1583.0</ele>
  <time>2026-08-28T17:50:20Z</time>
  <course>247.76</course>
  <speed>0.0316227766016838</speed>
  <fix>3d</fix>
</trkpt>
<trkpt lat="40.0713749" lon="-105.229789">
  <ele>1583.0</ele>
  <time>2026-08-28T17:50:20Z</time>
  <course>0.0</course>
  <speed>0.0</speed>
  <fix>3d</fix>
</trkpt>
<trkpt lat="40.0713749" lon="-105.229789">
  <ele>1583.0</ele>
  <time>2026-08-28T17:50:20Z</time>
  <course>247.76</course>
  <speed>0.0316227766016838</speed>
  <fix>3d</fix>
</trkpt>
<trkpt lat="40.0713749" lon="-105.229789">
  <ele>1583.0</ele>
  <time>2026-08-28T17:50:20Z</time>
  <course>0.0</course>
  <speed>0.0</speed>
  <fix>3d</fix>
</trkpt>
<trkpt lat="40.0713749" lon="-105.229789">
  <ele>1583.0</ele>
  <time>2026-08-28T17:50:20Z</time>
  <course>247.75</course>
  <speed>0.0316227766016838</speed>
  <fix>3d</fix>
</trkpt>
<trkpt lat="40.0713749" lon="-105.229789">
  <ele>1583.0</ele>
  <time>2026-08-28T17:50:20Z</time>
  <course>0.0</course>
  <speed>0.0</speed>
  <fix>3d</fix>
</trkpt>
<trkpt lat="40.0713749" lon="-105.229789">
  <ele>1583.0</ele>
  <time>2026-08-28T17:50:20Z</time>
  <course>247.75</course>
  <speed>0.0316227766016838</speed>
  <fix>3d</fix>
</trkpt>
<trkpt lat="40.0713749" lon="-105.229789">
  <ele>1583.0</ele>
  <time>2026-08-28T17:50:20Z</time>
  <course>0.0</course>
  <speed>0.0</speed>
  <fix>3d</fix>
</trkpt>
<trkpt lat="40.0713749" lon="-105.229789">
  <ele>1583.0</ele>
  <time>2026-08-28T17:50:20Z</time>
  <course>247.75</course>
  <speed>0.0316227766016838</speed>
  <fix>3d</fix>
</trkpt>
<trkpt lat="40.0713749" lon="-105.229789">
  <ele>1583.0</ele>
  <time>2026-08-28T17:50:20Z</time>
  <course>0.0</course>
  <speed>0.0</speed>
  <fix>3d</fix>
</trkpt>
<trkpt lat="40.0713749" lon="-105.229789">
  <ele>1583.0</ele>
  <time>2026-08-28T17:50:20Z</time>
  <course>247.74</course>
  <speed>0.0316227766016838</speed>
  <fix>3d</fix>
</trkpt>
<trkpt lat="40.0713749" lon="-105.229789">
  <ele>1583.0</ele>
  <time>2026-08-28T17:50:20Z</time>
  <course>0.0</course>
  <speed>0.0</speed>
  <fix>3d</fix>
</trkpt>
<trkpt lat="40.0713749" lon="-105.229789">
  <ele>1583.0</ele>
  <time>2026-08-28T17:50:20Z</time>
  <course>247.74</course>
  <speed>0.0316227766016838</speed>
  <fix>3d</fix>
</trkpt>
<trkpt lat="40.0713749" lon="-105.229789">
  <ele>1583.0</ele>
  <time>2026-08-28T17:50:20Z</time>
  <course>0.0</course>
  <speed>0.0</speed>
  <fix>3d</fix>
</trkpt>
<trkpt lat="40.0713749" lon="-105.229789">
  <ele>1583.0</ele>
  <time>2026-08-28T17:50:20Z</time>
  <course>247.74</course>
  <speed>0.0316227766016838</speed>
  <fix>3d</fix>
</trkpt>
<trkpt lat="40.0713749" lon="-105.229789">
  <ele>1583.0</ele>
  <time>2026-08-28T17:50:20Z</time>
  <course>0.0</course>
  <speed>0.0</speed>
  <fix>3d</fix>
</trkpt>
<trkpt lat="40.0713749" lon="-105.229789">
  <ele>1583.0</ele>
  <time>2026-08-28T17:50:20Z</time>
  <course>247.73</course>
  <speed>0.0316227766016838</speed>
  <fix>3d</fix>
</trkpt>
<trkpt lat="40.0713749" lon="-105.229789">
  <ele>1583.0</ele>
  <time>2026-08-28T17:50:20Z</time>
  <course>0.0</course>
  <speed>0.0</speed>
  <fix>3d</fix>
</trkpt>
<trkpt lat="40.0713749" lon="-105.229789">
  <ele>1583.0</ele>
  <time>2026-08-28T17:50:20Z</time>
  <course>247.73</course>
  <speed>0.0316227766016838</speed>
  <fix>3d</fix>
</trkpt>
<trkpt lat="40.0713749" lon="-105.229789">
  <ele>1583.0</ele>
  <time>2026-08-28T17:50:20Z</time>
  <course>0.0</course>
  <speed>0.0</speed>
  <fix>3d</fix>
</trkpt>
<trkpt lat="40.0713749" lon="-105.229789">
  <ele>1583.0</ele>
  <time>2026-08-28T17:50:20Z</time>
  <course>247.73</course>
  <speed>0.0316227766016838</speed>
  <fix>3d</fix>
</trkpt>
<trkpt lat="40.0713749" lon="-105.229789">
  <ele>1583.0</ele>
  <time>2026-08-28T17:50:20Z</time>
  <course>0.0</course>
  <speed>0.0</speed>
  <fix>3d</fix>
</trkpt>
<trkpt lat="40.0713749" lon="-105.229789">
  <ele>1583.0</ele>
  <time>2026-08-28T17:50:20Z</time>
  <course>247.72</course>
  <speed>0.0316227766016838</speed>
  <fix>3d</fix>
</trkpt>
<trkpt lat="40.0713749" lon="-105.229789">
  <ele>1583.0</ele>
  <time>2026-08-28T17:50:20Z</time>
  <course>0.0</course>
  <speed>0.0</speed>
  <fix>3d</fix>
</trkpt>
<trkpt lat="40.0713749" lon="-105.229789">
  <ele>1583.0</ele>
  <time>2026-08-28T17:50:20Z</time>
  <course>247.72</course>
  <speed>0.0316227766016838</speed>
  <fix>3d</fix>
</trkpt>
<trkpt lat="40.0713749" lon="-105.229789">
  <ele>1583.0</ele>
  <time>2026-08-28T17:50:20Z</time>
  <course>0.0</course>
  <speed>0.0</speed>
  <fix>3d</fix>
</trkpt>
<trkpt lat="40.0713749" lon="-105.229789">
  <ele>1583.0</ele>
  <time>2026-08-28T17:50:20Z</time>
  <course>247.72</course>
  <speed>0.0316227766016838</speed>
  <fix>3d</fix>
</trkpt>
<trkpt lat="40.0713749" lon="-105.229789">
  <ele>1583.0</ele>
  <time>2026-08-28T17:50:20Z</time>
  <course>0.0</course>
  <speed>0.0</speed>
  <fix>3d</fix>
</trkpt>
<trkpt lat="40.0713749" lon="-105.229789">
  <ele>1583.0</ele>
  <time>2026-08-28T17:50:20Z</time>
  <course>247.71</course>
  <speed>0.0316227766016838</speed>
  <fix>3d</fix>
</trkpt>
<trkpt lat="40.0713749" lon="-105.229789">
  <ele>1583.0</ele>
  <time>2026-08-28T17:50:20Z</time>
  <course>0.0</course>
  <speed>0.0</speed>
  <fix>3d</fix>
</trkpt>
<trkpt lat="40.0713749" lon="-105.229789">
  <ele>1583.0</ele>
  <time>2026-08-28T17:50:20Z</time>
  <course>247.71</course>
  <speed>0.0316227766016838</speed>
  <fix>3d</fix>
</trkpt>
<trkpt lat="40.0713749" lon="-105.229789">
  <ele>1583.0</ele>
  <time>2026-08-28T17:50:20Z</time>
  <course>0.0</course>
  <speed>0.0</speed>
  <fix>3d</fix>
</trkpt>
<trkpt lat="40.0713749" lon="-105.229789">
  <ele>1583.0</ele>
  <time>2026-08-28T17:50:20Z</time>
  <course>247.71</course>
  <speed>0.0316227766016838</speed>
  <fix>3d</fix>
</trkpt>
<trkpt lat="40.0713749" lon="-105.229789">
  <ele>1583.0</ele>
  <time>2026-08-28T17:50:20Z</time>
  <course>0.0</course>
  <speed>0.0</speed>
  <fix>3d</fix>
</trkpt>
<trkpt lat="40.0713749" lon="-105.229789">
  <ele>1583.0</ele>
  <time>2026-08-28T17:50:20Z</time>
  <course>247.7</course>
  <speed>0.0316227766016838</speed>
  <fix>3d</fix>
</trkpt>
<trkpt lat="40.0713749" lon="-105.229789">
  <ele>1583.0</ele>
  <time>2026-08-28T17:50:20Z</time>
  <course>0.0</course>
  <speed>0.0</speed>
  <fix>3d</fix>
</trkpt>
<trkpt lat="40.0713749" lon="-105.229789">
  <ele>1583.0</ele>
  <time>2026-08-28T17:50:20Z</time>
  <course>247.7</course>
  <speed>0.0316227766016838</speed>
  <fix>3d</fix>
</trkpt>
<trkpt lat="40.0713749" lon="-105.229789">
  <ele>1583.0</ele>
  <time>2026-08-28T17:50:20Z</time>
  <course>0.0</course>
  <speed>0.0</speed>
  <fix>3d</fix>
</trkpt>
<trkpt lat="40.0713749" lon="-105.229789">
  <ele>1583.0</ele>
  <time>2026-08-28T17:50:20Z</time>
  <course>247.7</course>
  <speed>0.0316227766016838</speed>
  <fix>3d</fix>
</trkpt>
<trkpt lat="40.0713749" lon="-105.229789">
  <ele>1583.0</ele>
  <time>2026-08-28T17:50:20Z</time>
  <course>0.0</course>
  <speed>0.0</speed>
  <fix>3d</fix>
</trkpt>
<trkpt lat="40.0713749" lon="-105.229789">
  <ele>1583.0</ele>
  <time>2026-08-28T17:50:20Z</time>
  <course>247.69</course>
  <speed>0.0316227766016838</speed>
  <fix>3d</fix>
</trkpt>
<trkpt lat="40.0713749" lon="-105.229789">
  <ele>1583.0</ele>
  <time>2026-08-28T17:50:20Z</time>
  <course>0.0</course>
  <speed>0.0</speed>
  <fix>3d</fix>
</trkpt>
<trkpt lat="40.0713749" lon="-105.229789">
  <ele>1583.0</ele>
  <time>2026-08-28T17:50:20Z</time>
  <course>247.69</course>
  <speed>0.0316227766016838</speed>
  <fix>3d</fix>
</trkpt>
<trkpt lat="40.0713749" lon="-105.229789">
  <ele>1583.0</ele>
  <time>2026-08-28T17:50:20Z</time>
  <course>0.0</course>
  <speed>0.0</speed>
  <fix>3d</fix>
</trkpt>
<trkpt lat="40.0713749" lon="-105.229789">
  <ele>1583.0</ele>
  <time>2026-08-28T17:50:20Z</time>
  <course>247.69</course>
  <speed>0.0316227766016838</speed>
  <fix>3d</fix>
</trkpt>
<trkpt lat="40.0713749" lon="-105.229789">
  <ele>1583.0</ele>
  <time>2026-08-28T17:50:20Z</time>
  <course>0.0</course>
  <speed>0.0</speed>
  <fix>3d</fix>
</trkpt>
<trkpt lat="40.0713749" lon="-105.229789">
  <ele>1583.0</ele>
  <time>2026-08-28T17:50:20Z</time>
  <course>247.68</course>
  <speed>0.0316227766016838</speed>
  <fix>3d</fix>
</trkpt>
<trkpt lat="40.0713749" lon="-105.229789">
  <ele>1583.0</ele>
  <time>2026-08-28T17:50:20Z</time>
  <course>0.0</course>
  <speed>0.0</speed>
  <fix>3d</fix>
</trkpt>
<trkpt lat="40.0713749" lon="-105.229789">
  <ele>1583.0</ele>
  <time>2026-08-28T17:50:20Z</time>
  <course>247.68</course>
  <speed>0.0316227766016838</speed>
  <fix>3d</fix>
</trkpt>
<trkpt lat="40.0713749" lon="-105.229789">
  <ele>1583.0</ele>
  <time>2026-08-28T17:50:20Z</time>
  <course>0.0</course>
  <speed>0.0</speed>
  <fix>3d</fix>
</trkpt>
<trkpt lat="40.0713749" lon="-105.229789">
  <ele>1583.0</ele>
  <time>2026-08-28T17:50:20Z</time>
  <course>247.68</course>
  <speed>0.0316227766016838</speed>
  <fix>3d</fix>
</trkpt>
<trkpt lat="40.0713749" lon="-105.229789">
  <ele>1583.0</ele>
  <time>2026-08-28T17:50:20Z</time>
  <course>0.0</course>
  <speed>0.0</speed>
  <fix>3d</fix>
</trkpt>
<trkpt lat="40.0713749" lon="-105.229789">
  <ele>1583.0</ele>
  <time>2026-08-28T17:50:20Z</time>
  <course>247.67</course>
  <speed>0.0316227766016838</speed>
  <fix>3d</fix>
</trkpt>
<trkpt lat="40.0713749" lon="-105.229789">
  <ele>1583.0</ele>
  <time>2026-08-28T17:50:20Z</time>
  <course>0.0</course>
  <speed>0.0</speed>
  <fix>3d</fix>
</trkpt>
<trkpt lat="40.0713749" lon="-105.229789">
  <ele>1583.0</ele>
  <time>2026-08-28T17:50:20Z</time>
  <course>247.67</course>
  <speed>0.0316227766016838</speed>
  <fix>3d</fix>
</trkpt>
<trkpt lat="40.0713749" lon="-105.229789">
  <ele>1583.0</ele>
  <time>2026-08-28T17:50:20Z</time>
  <course>0.0</course>
  <speed>0.0</speed>
  <fix>3d</fix>
</trkpt>
<trkpt lat="40.0713749" lon="-105.229789">
  <ele>1583.0</ele>
  <time>2026-08-28T17:50:20Z</time>
  <course>247.67</course>
  <speed>0.0316227766016838</speed>
  <fix>3d</fix>
</trkpt>
<trkpt lat="40.0713749" lon="-105.229789">
  <ele>1583.0</ele>
  <time>2026-08-28T17:50:20Z</time>
  <course>0.0</course>
  <speed>0.0</speed>
  <fix>3d</fix>
</trkpt>
<trkpt lat="40.0713749" lon="-105.229789">
  <ele>1583.0</ele>
  <time>2026-08-28T17:50:20Z</time>
  <course>247.66</course>
  <speed>0.0316227766016838</speed>
  <fix>3d</fix>
</trkpt>
<trkpt lat="40.0713749" lon="-105.229789">
  <ele>1583.0</ele>
  <time>2026-08-28T17:50:20Z</time>
  <course>0.0</course>
  <speed>0.0</speed>
  <fix>3d</fix>
</trkpt>
<trkpt lat="40.0713749" lon="-105.229789">
  <ele>1583.0</ele>
  <time>2026-08-28T17:50:20Z</time>
  <course>247.66</course>
  <speed>0.0316227766016838</speed>
  <fix>3d</fix>
</trkpt>
<trkpt lat="40.0713749" lon="-105.229789">
  <ele>1583.0</ele>
  <time>2026-08-28T17:50:20Z</time>
  <course>0.0</course>
  <speed>0.0</speed>
  <fix>3d</fix>
</trkpt>
<trkpt lat="40.0713749" lon="-105.229789">
  <ele>1583.0</ele>
  <time>2026-08-28T17:50:20Z</time>
  <course>247.66</course>
  <speed>0.0316227766016838</speed>
  <fix>3d</fix>
</trkpt>
<trkpt lat="40.0713749" lon="-105.229789">
  <ele>1583.0</ele>
  <time>2026-08-28T17:50:20Z</time>
  <course>0.0</course>
  <speed>0.0</speed>
  <fix>3d</fix>
</trkpt>
<trkpt lat="40.0713749" lon="-105.229789">
  <ele>1583.0</ele>
  <time>2026-08-28T17:50:20Z</time>
  <course>247.65</course>
  <speed>0.0316227766016838</speed>
  <fix>3d</fix>
</trkpt>
<trkpt lat="40.0713749" lon="-105.229789">
  <ele>1583.0</ele>
  <time>2026-08-28T17:50:20Z</time>
  <course>0.0</course>
  <speed>0.0</speed>
  <fix>3d</fix>
</trkpt>
<trkpt lat="40.0713749" lon="-105.229789">
  <ele>1583.0</ele>
  <time>2026-08-28T17:50:20Z</time>
  <course>247.65</course>
  <speed>0.0316227766016838</speed>
  <fix>3d</fix>
</trkpt>
<trkpt lat="40.0713749" lon="-105.229789">
  <ele>1583.0</ele>
  <time>2026-08-28T17:50:20Z</time>
  <course>0.0</course>
  <speed>0.0</speed>
  <fix>3d</fix>
</trkpt>
<trkpt lat="40.0713749" lon="-105.229789">
  <ele>1583.0</ele>
  <time>2026-08-28T17:50:20Z</time>
  <course>247.65</course>
  <speed>0.0316227766016838</speed>
  <fix>3d</fix>
</trkpt>
<trkpt lat="40.0713749" lon="-105.229789">
  <ele>1583.0</ele>
  <time>2026-08-28T17:50:20Z</time>
  <course>0.0</course>
  <speed>0.0</speed>
  <fix>3d</fix>
</trkpt>
<trkpt lat="40.0713749" lon="-105.229789">
  <ele>1583.0</ele>
  <time>2026-08-28T17:50:20Z</time>
  <course>247.64</course>
  <speed>0.0316227766016838</speed>
  <fix>3d</fix>
</trkpt>
<trkpt lat="40.0713749" lon="-105.229789">
  <ele>1583.0</ele>
  <time>2026-08-28T17:50:20Z</time>
  <course>0.0</course>
  <speed>0.0</speed>
  <fix>3d</fix>
</trkpt>
<trkpt lat="40.0713749" lon="-105.229789">
  <ele>1583.0</ele>
  <time>2026-08-28T17:50:20Z</time>
  <course>247.64</course>
  <speed>0.0316227766016838</speed>
  <fix>3d</fix>
</trkpt>
<trkpt lat="40.0713749" lon="-105.229789">
  <ele>1583.0</ele>
  <time>2026-08-28T17:50:20Z</time>
  <course>0.0</course>
  <speed>0.0</speed>
  <fix>3d</fix>
</trkpt>
<trkpt lat="40.0713749" lon="-105.229789">
  <ele>1583.0</ele>
  <time>2026-08-28T17:50:20Z</time>
  <course>247.64</course>
  <speed>0.0316227766016838</speed>
  <fix>3d</fix>
</trkpt>
<trkpt lat="40.0713749" lon="-105.229789">
  <ele>1583.0</ele>
  <time>2026-08-28T17:50:20Z</time>
  <course>0.0</course>
  <speed>0.0</speed>
  <fix>3d</fix>
</trkpt>
<trkpt lat="40.0713749" lon="-105.229789">
  <ele>1583.0</ele>
  <time>2026-08-28T17:50:20Z</time>
  <course>247.64</course>
  <speed>0.0316227766016838</speed>
  <fix>3d</fix>
</trkpt>
<trkpt lat="40.0713749" lon="-105.229789">
  <ele>1583.0</ele>
  <time>2026-08-28T17:50:20Z</time>
  <course>0.0</course>
  <speed>0.0</speed>
  <fix>3d</fix>
</trkpt>
<trkpt lat="40.0713749" lon="-105.229789">
  <ele>1583.0</ele>
  <time>2026-08-28T17:50:20Z</time>
  <course>247.63</course>
  <speed>0.0316227766016838</speed>
  <fix>3d</fix>
</trkpt>
<trkpt lat="40.0713749" lon="-105.229789">
  <ele>1583.0</ele>
  <time>2026-08-28T17:50:20Z</time>
  <course>0.0</course>
  <speed>0.0</speed>
  <fix>3d</fix>
</trkpt>
<trkpt lat="40.0713749" lon="-105.229789">
  <ele>1583.0</ele>
  <time>2026-08-28T17:50:20Z</time>
  <course>247.63</course>
  <speed>0.0316227766016838</speed>
  <fix>3d</fix>
</trkpt>
<trkpt lat="40.0713749" lon="-105.229789">
  <ele>1583.0</ele>
  <time>2026-08-28T17:50:20Z</time>
  <course>0.0</course>
  <speed>0.0</speed>
  <fix>3d</fix>
</trkpt>
<trkpt lat="40.0713749" lon="-105.229789">
  <ele>1583.0</ele>
  <time>2026-08-28T17:50:20Z</time>
  <course>247.63</course>
  <speed>0.0316227766016838</speed>
  <fix>3d</fix>
</trkpt>
<trkpt lat="40.0713749" lon="-105.229789">
  <ele>1583.0</ele>
  <time>2026-08-28T17:50:20Z</time>
  <course>0.0</course>
  <speed>0.0</speed>
  <fix>3d</fix>
</trkpt>
<trkpt lat="40.0713749" lon="-105.229789">
  <ele>1583.0</ele>
  <time>2026-08-28T17:50:20Z</time>
  <course>247.62</course>
  <speed>0.0316227766016838</speed>
  <fix>3d</fix>
</trkpt>
<trkpt lat="40.0713749" lon="-105.229789">
  <ele>1583.0</ele>
  <time>2026-08-28T17:50:20Z</time>
  <course>0.0</course>
  <speed>0.0</speed>
  <fix>3d</fix>
</trkpt>
<trkpt lat="40.0713749" lon="-105.229789">
  <ele>1583.0</ele>
  <time>2026-08-28T17:50:20Z</time>
  <course>247.62</course>
  <speed>0.0316227766016838</speed>
  <fix>3d</fix>
</trkpt>
<trkpt lat="40.0713749" lon="-105.229789">
  <ele>1583.0</ele>
  <time>2026-08-28T17:50:20Z</time>
  <course>0.0</course>
  <speed>0.0</speed>
  <fix>3d</fix>
</trkpt>
<trkpt lat="40.0713749" lon="-105.229789">
  <ele>1583.0</ele>
  <time>2026-08-28T17:50:20Z</time>
  <course>247.62</course>
  <speed>0.0316227766016838</speed>
  <fix>3d</fix>
</trkpt>
<trkpt lat="40.0713749" lon="-105.229789">
  <ele>1583.0</ele>
  <time>2026-08-28T17:50:20Z</time>
  <course>0.0</course>
  <speed>0.0</speed>
  <fix>3d</fix>
</trkpt>
<trkpt lat="40.0713749" lon="-105.229789">
  <ele>1583.0</ele>
  <time>2026-08-28T17:50:20Z</time>
  <course>247.62</course>
  <speed>0.0316227766016838</speed>
  <fix>3d</fix>
</trkpt>
<trkpt lat="40.0713749" lon="-105.229789">
  <ele>1583.0</ele>
  <time>2026-08-28T17:50:20Z</time>
  <course>0.0</course>
  <speed>0.0</speed>
  <fix>3d</fix>
</trkpt>
<trkpt lat="40.0713749" lon="-105.229789">
  <ele>1583.0</ele>
  <time>2026-08-28T17:50:20Z</time>
  <course>247.61</course>
  <speed>0.0316227766016838</speed>
  <fix>3d</fix>
</trkpt>
<trkpt lat="40.0713749" lon="-105.229789">
  <ele>1583.0</ele>
  <time>2026-08-28T17:50:20Z</time>
  <course>0.0</course>
  <speed>0.0</speed>
  <fix>3d</fix>
</trkpt>
<trkpt lat="40.0713749" lon="-105.229789">
  <ele>1583.0</ele>
  <time>2026-08-28T17:50:20Z</time>
  <course>247.61</course>
  <speed>0.0316227766016838</speed>
  <fix>3d</fix>
</trkpt>
<trkpt lat="40.0713749" lon="-105.229789">
  <ele>1583.0</ele>
  <time>2026-08-28T17:50:20Z</time>
  <course>0.0</course>
  <speed>0.0</speed>
  <fix>3d</fix>
</trkpt>
<trkpt lat="40.0713749" lon="-105.229789">
  <ele>1583.0</ele>
  <time>2026-08-28T17:50:20Z</time>
  <course>247.61</course>
  <speed>0.0316227766016838</speed>
  <fix>3d</fix>
</trkpt>
<trkpt lat="40.0713749" lon="-105.229789">
  <ele>1583.0</ele>
  <time>2026-08-28T17:50:20Z</time>
  <course>0.0</course>
  <speed>0.0</speed>
  <fix>3d</fix>
</trkpt>
<trkpt lat="40.0713749" lon="-105.229789">
  <ele>1583.0</ele>
  <time>2026-08-28T17:50:20Z</time>
  <course>247.6</course>
  <speed>0.0316227766016838</speed>
  <fix>3d</fix>
</trkpt>
<trkpt lat="40.0713749" lon="-105.229789">
  <ele>1583.0</ele>
  <time>2026-08-28T17:50:20Z</time>
  <course>0.0</course>
  <speed>0.0</speed>
  <fix>3d</fix>
</trkpt>
<trkpt lat="40.0713749" lon="-105.229789">
  <ele>1583.0</ele>
  <time>2026-08-28T17:50:20Z</time>
  <course>247.6</course>
  <speed>0.0316227766016838</speed>
  <fix>3d</fix>
</trkpt>
<trkpt lat="40.0713749" lon="-105.229789">
  <ele>1583.0</ele>
  <time>2026-08-28T17:50:20Z</time>
  <course>0.0</course>
  <speed>0.0</speed>
  <fix>3d</fix>
</trkpt>
<trkpt lat="40.0713749" lon="-105.229789">
  <ele>1583.0</ele>
  <time>2026-08-28T17:50:20Z</time>
  <course>247.6</course>
  <speed>0.0316227766016838</speed>
  <fix>3d</fix>
</trkpt>
<trkpt lat="40.0713749" lon="-105.229789">
  <ele>1583.0</ele>
  <time>2026-08-28T17:50:20Z</time>
  <course>0.0</course>
  <speed>0.0</speed>
  <fix>3d</fix>
</trkpt>
<trkpt lat="40.0713749" lon="-105.229789">
  <ele>1583.0</ele>
  <time>2026-08-28T17:50:20Z</time>
  <course>247.6</course>
  <speed>0.0316227766016838</speed>
  <fix>3d</fix>
</trkpt>
<trkpt lat="40.0713749" lon="-105.229789">
  <ele>1583.0</ele>
  <time>2026-08-28T17:50:20Z</time>
  <course>0.0</course>
  <speed>0.0</speed>
  <fix>3d</fix>
</trkpt>
<trkpt lat="40.0713749" lon="-105.229789">
  <ele>1583.0</ele>
  <time>2026-08-28T17:50:20Z</time>
  <course>247.59</course>
  <speed>0.0316227766016838</speed>
  <fix>3d</fix>
</trkpt>
<trkpt lat="40.0713749" lon="-105.229789">
  <ele>1583.0</ele>
  <time>2026-08-28T17:50:20Z</time>
  <course>0.0</course>
  <speed>0.0</speed>
  <fix>3d</fix>
</trkpt>
<trkpt lat="40.0713749" lon="-105.229789">
  <ele>1582.92</ele>
  <time>2026-08-28T17:50:20Z</time>
  <course>247.59</course>
  <speed>0.0</speed>
  <fix>3d</fix>
</trkpt>
<trkpt lat="40.0713749" lon="-105.229789">
  <ele>1583.0</ele>
  <time>2026-08-28T17:50:20Z</time>
  <course>0.0</course>
  <speed>0.0</speed>
  <fix>3d</fix>
</trkpt>
<trkpt lat="40.0713749" lon="-105.229789">
  <ele>1582.92</ele>
  <time>2026-08-28T17:50:20Z</time>
  <course>247.59</course>
  <speed>0.0</speed>
  <fix>3d</fix>
</trkpt>
<trkpt lat="40.0713749" lon="-105.229789">
  <ele>1583.0</ele>
  <time>2026-08-28T17:50:20Z</time>
  <course>0.0</course>
  <speed>0.0</speed>
  <fix>3d</fix>
</trkpt>
<trkpt lat="40.0713749" lon="-105.229789">
  <ele>1582.91</ele>
  <time>2026-08-28T17:50:20Z</time>
  <course>247.58</course>
  <speed>0.0</speed>
  <fix>3d</fix>
</trkpt>
<trkpt lat="40.0713749" lon="-105.229789">
  <ele>1583.0</ele>
  <time>2026-08-28T17:50:20Z</time>
  <course>0.0</course>
  <speed>0.0</speed>
  <fix>3d</fix>
</trkpt>
<trkpt lat="40.0713749" lon="-105.229789">
  <ele>1582.91</ele>
  <time>2026-08-28T17:50:20Z</time>
  <course>247.58</course>
  <speed>0.0</speed>
  <fix>3d</fix>
</trkpt>
<trkpt lat="40.0713749" lon="-105.229789">
  <ele>1583.0</ele>
  <time>2026-08-28T17:50:20Z</time>
  <course>0.0</course>
  <speed>0.0</speed>
  <fix>3d</fix>
</trkpt>
<trkpt lat="40.0713749" lon="-105.229789">
  <ele>1582.9</ele>
  <time>2026-08-28T17:50:20Z</time>
  <course>247.58</course>
  <speed>0.0</speed>
  <fix>3d</fix>
</trkpt>
<trkpt lat="40.0713749" lon="-105.229789">
  <ele>1583.0</ele>
  <time>2026-08-28T17:50:20Z</time>
  <course>0.0</course>
  <speed>0.0</speed>
  <fix>3d</fix>
</trkpt>
<trkpt lat="40.0713749" lon="-105.229789">
  <ele>1582.9</ele>
  <time>2026-08-28T17:50:20Z</time>
  <course>247.58</course>
  <speed>0.0</speed>
  <fix>3d</fix>
</trkpt>
<trkpt lat="40.0713749" lon="-105.229789">
  <ele>1583.0</ele>
  <time>2026-08-28T17:50:20Z</time>
  <course>0.0</course>
  <speed>0.0</speed>
  <fix>3d</fix>
</trkpt>
<trkpt lat="40.0713749" lon="-105.229789">
  <ele>1582.9</ele>
  <time>2026-08-28T17:50:20Z</time>
  <course>247.57</course>
  <speed>0.0</speed>
  <fix>3d</fix>
</trkpt>
<trkpt lat="40.0713749" lon="-105.229789">
  <ele>1583.0</ele>
  <time>2026-08-28T17:50:20Z</time>
  <course>0.0</course>
  <speed>0.0</speed>
  <fix>3d</fix>
</trkpt>
<trkpt lat="40.0713749" lon="-105.229789">
  <ele>1582.9</ele>
  <time>2026-08-28T17:50:20Z</time>
  <course>247.57</course>
  <speed>0.0</speed>
  <fix>3d</fix>
</trkpt>
<trkpt lat="40.0713749" lon="-105.229789">
  <ele>1583.0</ele>
  <time>2026-08-28T17:50:20Z</time>
  <course>0.0</course>
  <speed>0.0</speed>
  <fix>3d</fix>
</trkpt>
<trkpt lat="40.0713749" lon="-105.229789">
  <ele>1582.9</ele>
  <time>2026-08-28T17:50:20Z</time>
  <course>247.57</course>
  <speed>0.0</speed>
  <fix>3d</fix>
</trkpt>
<trkpt lat="40.0713749" lon="-105.229789">
  <ele>1583.0</ele>
  <time>2026-08-28T17:50:20Z</time>
  <course>0.0</course>
  <speed>0.0</speed>
  <fix>3d</fix>
</trkpt>
<trkpt lat="40.0713749" lon="-105.229789">
  <ele>1582.9</ele>
  <time>2026-08-28T17:50:20Z</time>
  <course>247.57</course>
  <speed>0.01</speed>
  <fix>3d</fix>
</trkpt>
<trkpt lat="40.0713749" lon="-105.229789">
  <ele>1583.0</ele>
  <time>2026-08-28T17:50:20Z</time>
  <course>0.0</course>
  <speed>0.0</speed>
  <fix>3d</fix>
</trkpt>
<trkpt lat="40.0713749" lon="-105.229789">
  <ele>1582.9</ele>
  <time>2026-08-28T17:50:20Z</time>
  <course>247.56</course>
  <speed>0.01</speed>
  <fix>3d</fix>
</trkpt>
<trkpt lat="40.0713749" lon="-105.229789">
  <ele>1583.0</ele>
  <time>2026-08-28T17:50:20Z</time>
  <course>0.0</course>
  <speed>0.0</speed>
  <fix>3d</fix>
</trkpt>
<trkpt lat="40.0713749" lon="-105.229789">
  <ele>1582.91</ele>
  <time>2026-08-28T17:50:20Z</time>
  <course>247.56</course>
  <speed>0.01</speed>
  <fix>3d</fix>
</trkpt>
<trkpt lat="40.0713749" lon="-105.229789">
  <ele>1583.0</ele>
  <time>2026-08-28T17:50:20Z</time>
  <course>0.0</course>
  <speed>0.0</speed>
  <fix>3d</fix>
</trkpt>
<trkpt lat="40.0713749" lon="-105.229789">
  <ele>1582.91</ele>
  <time>2026-08-28T17:50:20Z</time>
  <course>247.56</course>
  <speed>0.03</speed>
  <fix>3d</fix>
</trkpt>
<trkpt lat="40.0713749" lon="-105.229789">
  <ele>1583.0</ele>
  <time>2026-08-28T17:50:20Z</time>
  <course>0.0</course>
  <speed>0.0</speed>
  <fix>3d</fix>
</trkpt>
<trkpt lat="40.0713749" lon="-105.2297891">
  <ele>1582.92</ele>
  <time>2026-08-28T17:50:20Z</time>
  <course>247.56</course>
  <speed>0.15811388300841897</speed>
  <fix>3d</fix>
</trkpt>
<trkpt lat="40.0713749" lon="-105.229789">
  <ele>1583.0</ele>
  <time>2026-08-28T17:50:20Z</time>
  <course>246.0</course>
  <speed>0.08</speed>
  <fix>3d</fix>
</trkpt>
<trkpt lat="40.0713748" lon="-105.2297894">
  <ele>1582.92</ele>
  <time>2026-08-28T17:50:20Z</time>
  <course>247.55</course>
  <speed>0.3827531841800928</speed>
  <fix>3d</fix>
</trkpt>
<trkpt lat="40.0713749" lon="-105.229789">
  <ele>1583.0</ele>
  <time>2026-08-28T17:50:20Z</time>
  <course>246.0</course>
  <speed>0.08</speed>
  <fix>3d</fix>
</trkpt>
<trkpt lat="40.0713746" lon="-105.22979">
  <ele>1582.92</ele>
  <time>2026-08-28T17:50:20Z</time>
  <course>247.55</course>
  <speed>0.696419413859206</speed>
  <fix>3d</fix>
</trkpt>
<trkpt lat="40.0713749" lon="-105.229789">
  <ele>1583.0</ele>
  <time>2026-08-28T17:50:20Z</time>
  <course>246.0</course>
  <speed>0.08</speed>
  <fix>3d</fix>
</trkpt>
<trkpt lat="40.0713743" lon="-105.229791">
  <ele>1582.93</ele>
  <time>2026-08-28T17:50:20Z</time>
  <course>247.55</course>
  <speed>1.0195096860746347</speed>
  <fix>3d</fix>
</trkpt>
<trkpt lat="40.0713748" lon="-105.2297895">
  <ele>1583.0</ele>
  <time>2026-08-28T17:50:20Z</time>
  <course>246.0</course>
  <speed>0.44</speed>
  <fix>3d</fix>
</trkpt>
<trkpt lat="40.0713739" lon="-105.2297923">
  <ele>1582.93</ele>
  <time>2026-08-28T17:50:20Z</time>
  <course>247.54</course>
  <speed>1.3240090634130872</speed>
  <fix>3d</fix>
</trkpt>
<trkpt lat="40.0713748" lon="-105.2297895">
  <ele>1583.0</ele>
  <time>2026-08-28T17:50:20Z</time>
  <course>246.0</course>
  <speed>0.44</speed>
  <fix>3d</fix>
</trkpt>
<trkpt lat="40.0713734" lon="-105.229794">
  <ele>1582.93</ele>
  <time>2026-08-28T17:50:20Z</time>
  <course>247.54</course>
  <speed>1.6155494421403511</speed>
  <fix>3d</fix>
</trkpt>
<trkpt lat="40.0713743" lon="-105.2297911">
  <ele>1583.0</ele>
  <time>2026-08-28T17:50:20Z</time>
  <course>246.0</course>
  <speed>1.02</speed>
  <fix>3d</fix>
</trkpt>
<trkpt lat="40.0713728" lon="-105.2297959">
  <ele>1582.93</ele>
  <time>2026-08-28T17:50:20Z</time>
  <course>247.53</course>
  <speed>1.8885444130334874</speed>
  <fix>3d</fix>
</trkpt>
<trkpt lat="40.0713743" lon="-105.2297911">
  <ele>1583.0</ele>
  <time>2026-08-28T17:50:20Z</time>
  <course>246.0</course>
  <speed>1.02</speed>
  <fix>3d</fix>
</trkpt>
<trkpt lat="40.071372" lon="-105.2297982">
  <ele>1582.94</ele>
  <time>2026-08-28T17:50:20Z</time>
  <course>247.51</course>
  <speed>2.1615735009478625</speed>
  <fix>3d</fix>
</trkpt>
<trkpt lat="40.0713734" lon="-105.2297938">
  <ele>1583.0</ele>
  <time>2026-08-28T17:50:20Z</time>
  <course>246.0</course>
  <speed>1.6</speed>
  <fix>3d</fix>
</trkpt>
<trkpt lat="40.0713712" lon="-105.2298007">
  <ele>1582.94</ele>
  <time>2026-08-28T17:50:20Z</time>
  <course>247.49</course>
  <speed>2.4123225323326896</speed>
  <fix>3d</fix>
</trkpt>
<trkpt lat="40.0713719" lon="-105.2297979">
  <ele>1583.0</ele>
  <time>2026-08-28T17:50:20Z</time>
  <course>246.0</course>
  <speed>2.14</speed>
  <fix>3d</fix>
</trkpt>
<trkpt lat="40.0713703" lon="-105.2298035">
  <ele>1582.94</ele>
  <time>2026-08-28T17:50:20Z</time>
  <course>247.47</course>
  <speed>2.650018867857359</speed>
  <fix>3d</fix>
</trkpt>
<trkpt lat="40.0713719" lon="-105.2297979">
  <ele>1583.0</ele>
  <time>2026-08-28T17:50:20Z</time>
  <course>246.0</course>
  <speed>2.14</speed>
  <fix>3d</fix>
</trkpt>
<trkpt lat="40.0713693" lon="-105.2298066">
  <ele>1582.95</ele>
  <time>2026-08-28T17:50:20Z</time>
  <course>247.45</course>
  <speed>2.8823081028925412</speed>
  <fix>3d</fix>
</trkpt>
<trkpt lat="40.0713702" lon="-105.229803">
  <ele>1583.0</ele>
  <time>2026-08-28T17:50:20Z</time>
  <course>246.0</course>
  <speed>2.62</speed>
  <fix>3d</fix>
</trkpt>
<trkpt lat="40.0713682" lon="-105.2298099">
  <ele>1582.95</ele>
  <time>2026-08-28T17:50:20Z</time>
  <course>247.42</course>
  <speed>3.101548000595831</speed>
  <fix>3d</fix>
</trkpt>
<trkpt lat="40.0713702" lon="-105.229803">
  <ele>1583.0</ele>
  <time>2026-08-28T17:50:20Z</time>
  <course>246.0</course>
  <speed>2.62</speed>
  <fix>3d</fix>
</trkpt>
<trkpt lat="40.071367" lon="-105.2298134">
  <ele>1582.96</ele>
  <time>2026-08-28T17:50:20Z</time>
  <course>247.39</course>
  <speed>3.3077031305726337</speed>
  <fix>3d</fix>
</trkpt>
<trkpt lat="40.0713681" lon="-105.2298091">
  <ele>1583.0</ele>
  <time>2026-08-28T17:50:20Z</time>
  <course>246.0</course>
  <speed>3.05</speed>
  <fix>3d</fix>
</trkpt>
<trkpt lat="40.0713657" lon="-105.2298172">
  <ele>1582.96</ele>
  <time>2026-08-28T17:50:20Z</time>
  <course>247.37</course>
  <speed>3.5085324567402822</speed>
  <fix>3d</fix>
</trkpt>
<trkpt lat="40.0713681" lon="-105.2298091">
  <ele>1583.0</ele>
  <time>2026-08-28T17:50:20Z</time>
  <course>246.0</course>
  <speed>3.05</speed>
  <fix>3d</fix>
</trkpt>
<trkpt lat="40.0713644" lon="-105.2298211">
  <ele>1582.96</ele>
  <time>2026-08-28T17:50:20Z</time>
  <course>247.34</course>
  <speed>3.7054824247323044</speed>
  <fix>3d</fix>
</trkpt>
<trkpt lat="40.0713657" lon="-105.229816">
  <ele>1583.0</ele>
  <time>2026-08-28T17:50:20Z</time>
  <course>246.0</course>
  <speed>3.45</speed>
  <fix>3d</fix>
</trkpt>
<trkpt lat="40.0713629" lon="-105.2298253">
  <ele>1582.96</ele>
  <time>2026-08-28T17:50:20Z</time>
  <course>247.32</course>
  <speed>3.884044283990593</speed>
  <fix>3d</fix>
</trkpt>
<trkpt lat="40.0713657" lon="-105.229816">
  <ele>1583.0</ele>
  <time>2026-08-28T17:50:20Z</time>
  <course>246.0</course>
  <speed>3.45</speed>
  <fix>3d</fix>
</trkpt>
<trkpt lat="40.0713615" lon="-105.2298296">
  <ele>1582.96</ele>
  <time>2026-08-28T17:50:20Z</time>
  <course>247.3</course>
  <speed>4.049493795525559</speed>
  <fix>3d</fix>
</trkpt>
<trkpt lat="40.0713631" lon="-105.2298239">
  <ele>1583.0</ele>
  <time>2026-08-28T17:50:20Z</time>
  <course>246.0</course>
  <speed>3.8</speed>
  <fix>3d</fix>
</trkpt>
<trkpt lat="40.0713599" lon="-105.229834">
  <ele>1582.96</ele>
  <time>2026-08-28T17:50:20Z</time>
  <course>247.28</course>
  <speed>4.214949584514624</speed>
  <fix>3d</fix>
</trkpt>
<trkpt lat="40.0713631" lon="-105.2298239">
  <ele>1583.0</ele>
  <time>2026-08-28T17:50:20Z</time>
  <course>246.0</course>
  <speed>3.8</speed>
  <fix>3d</fix>
</trkpt>
<trkpt lat="40.0713583" lon="-105.2298387">
  <ele>1582.96</ele>
  <time>2026-08-28T17:50:20Z</time>
  <course>247.26</course>
  <speed>4.367264590106718</speed>
  <fix>3d</fix>
</trkpt>
<trkpt lat="40.0713602" lon="-105.2298324">
  <ele>1583.0</ele>
  <time>2026-08-28T17:50:20Z</time>
  <course>246.0</course>
  <speed>4.13</speed>
  <fix>3d</fix>
</trkpt>
<trkpt lat="40.0713567" lon="-105.2298435">
  <ele>1582.96</ele>
  <time>2026-08-28T17:50:20Z</time>
  <course>247.25</course>
  <speed>4.514377033434402</speed>
  <fix>3d</fix>
</trkpt>
<trkpt lat="40.0713602" lon="-105.2298324">
  <ele>1583.0</ele>
  <time>2026-08-28T17:50:20Z</time>
  <course>246.0</course>
  <speed>4.13</speed>
  <fix>3d</fix>
</trkpt>
<trkpt lat="40.071355" lon="-105.2298484">
  <ele>1582.96</ele>
  <time>2026-08-28T17:50:20Z</time>
  <course>247.24</course>
  <speed>4.644362173646668</speed>
  <fix>3d</fix>
</trkpt>
<trkpt lat="40.0713571" lon="-105.2298416">
  <ele>1583.0</ele>
  <time>2026-08-28T17:50:20Z</time>
  <course>246.0</course>
  <speed>4.42</speed>
  <fix>3d</fix>
</trkpt>
<trkpt lat="40.0713533" lon="-105.2298534">
  <ele>1582.96</ele>
  <time>2026-08-28T17:50:20Z</time>
  <course>247.23</course>
  <speed>4.778336530634903</speed>
  <fix>3d</fix>
</trkpt>
<trkpt lat="40.0713571" lon="-105.2298416">
  <ele>1583.0</ele>
  <time>2026-08-28T17:50:20Z</time>
  <course>246.0</course>
  <speed>4.42</speed>
  <fix>3d</fix>
</trkpt>
<trkpt lat="40.0713515" lon="-105.2298586">
  <ele>1582.96</ele>
  <time>2026-08-28T17:50:20Z</time>
  <course>247.22</course>
  <speed>4.899152988017419</speed>
  <fix>3d</fix>
</trkpt>
<trkpt lat="40.0713571" lon="-105.2298416">
  <ele>1583.0</ele>
  <time>2026-08-28T17:50:20Z</time>
  <course>246.0</course>
  <speed>4.42</speed>
  <fix>3d</fix>
</trkpt>
<trkpt lat="40.0713497" lon="-105.2298639">
  <ele>1582.96</ele>
  <time>2026-08-28T17:50:20Z</time>
  <course>247.22</course>
  <speed>5.010808318026145</speed>
  <fix>3d</fix>
</trkpt>
<trkpt lat="40.0713538" lon="-105.2298514">
  <ele>1583.0</ele>
  <time>2026-08-28T17:50:20Z</time>
  <course>246.0</course>
  <speed>4.68</speed>
  <fix>3d</fix>
</trkpt>
<trkpt lat="40.0713479" lon="-105.2298692">
  <ele>1582.96</ele>
  <time>2026-08-28T17:50:20Z</time>
  <course>247.21</course>
  <speed>5.122470107282228</speed>
  <fix>3d</fix>
</trkpt>
<trkpt lat="40.0713538" lon="-105.2298514">
  <ele>1583.0</ele>
  <time>2026-08-28T17:50:20Z</time>
  <course>246.0</course>
  <speed>4.68</speed>
  <fix>3d</fix>
</trkpt>
<trkpt lat="40.071346" lon="-105.2298747">
  <ele>1582.96</ele>
  <time>2026-08-28T17:50:20Z</time>
  <course>247.21</course>
  <speed>5.2118039103557985</speed>
  <fix>3d</fix>
</trkpt>
<trkpt lat="40.0713503" lon="-105.2298617">
  <ele>1583.0</ele>
  <time>2026-08-28T17:50:20Z</time>
  <course>246.0</course>
  <speed>4.92</speed>
  <fix>3d</fix>
</trkpt>
<trkpt lat="40.0713441" lon="-105.2298802">
  <ele>1582.95</ele>
  <time>2026-08-28T17:50:20Z</time>
  <course>247.21</course>
  <speed>5.310291894048763</speed>
  <fix>3d</fix>
</trkpt>
<trkpt lat="40.0713503" lon="-105.2298617">
  <ele>1583.0</ele>
  <time>2026-08-28T17:50:20Z</time>
  <course>246.0</course>
  <speed>4.92</speed>
  <fix>3d</fix>
</trkpt>
<trkpt lat="40.0713422" lon="-105.2298858">
  <ele>1582.95</ele>
  <time>2026-08-28T17:50:20Z</time>
  <course>247.21</course>
  <speed>5.386445952573923</speed>
  <fix>3d</fix>
</trkpt>
<trkpt lat="40.0713466" lon="-105.2298725">
  <ele>1583.0</ele>
  <time>2026-08-28T17:50:20Z</time>
  <course>246.0</course>
  <speed>5.14</speed>
  <fix>3d</fix>
</trkpt>
<trkpt lat="40.0713402" lon="-105.2298915">
  <ele>1582.95</ele>
  <time>2026-08-28T17:50:20Z</time>
  <course>247.21</course>
  <speed>5.368146793820005</speed>
  <fix>3d</fix>
</trkpt>
<trkpt lat="40.0713466" lon="-105.2298725">
  <ele>1583.0</ele>
  <time>2026-08-28T17:50:20Z</time>
  <course>246.0</course>
  <speed>5.14</speed>
  <fix>3d</fix>
</trkpt>
<trkpt lat="40.0713383" lon="-105.2298971">
  <ele>1582.96</ele>
  <time>2026-08-28T17:50:20Z</time>
  <course>247.21</course>
  <speed>5.260513282941124</speed>
  <fix>3d</fix>
</trkpt>
<trkpt lat="40.0713427" lon="-105.2298837">
  <ele>1583.0</ele>
  <time>2026-08-28T17:50:20Z</time>
  <course>246.0</course>
  <speed>5.28</speed>
  <fix>3d</fix>
</trkpt>
<trkpt lat="40.0713364" lon="-105.2299025">
  <ele>1582.96</ele>
  <time>2026-08-28T17:50:20Z</time>
  <course>247.21</course>
  <speed>5.058458263146984</speed>
  <fix>3d</fix>
</trkpt>
<trkpt lat="40.0713389" lon="-105.229895">
  <ele>1583.0</ele>
  <time>2026-08-28T17:50:20Z</time>
  <course>246.0</course>
  <speed>5.17</speed>
  <fix>3d</fix>
</trkpt>
<trkpt lat="40.0713347" lon="-105.2299077">
  <ele>1582.97</ele>
  <time>2026-08-28T17:50:20Z</time>
  <course>247.2</course>
  <speed>4.798541445064323</speed>
  <fix>3d</fix>
</trkpt>
<trkpt lat="40.0713389" lon="-105.229895">
  <ele>1583.0</ele>
  <time>2026-08-28T17:50:20Z</time>
  <course>246.0</course>
  <speed>5.17</speed>
  <fix>3d</fix>
</trkpt>
<trkpt lat="40.071333" lon="-105.2299126">
  <ele>1582.97</ele>
  <time>2026-08-28T17:50:20Z</time>
  <course>247.2</course>
  <speed>4.560975772792484</speed>
  <fix>3d</fix>
</trkpt>
<trkpt lat="40.0713352" lon="-105.2299056">
  <ele>1583.0</ele>
  <time>2026-08-28T17:50:20Z</time>
  <course>246.0</course>
  <speed>4.78</speed>
  <fix>3d</fix>
</trkpt>
<trkpt lat="40.0713313" lon="-105.2299172">
  <ele>1582.98</ele>
  <time>2026-08-28T17:50:20Z</time>
  <course>247.2</course>
  <speed>4.323424568556736</speed>
  <fix>3d</fix>
</trkpt>
<trkpt lat="40.0713352" lon="-105.2299056">
  <ele>1583.0</ele>
  <time>2026-08-28T17:50:20Z</time>
  <course>246.0</course>
  <speed>4.78</speed>
  <fix>3d</fix>
</trkpt>
<trkpt lat="40.0713298" lon="-105.2299217">
  <ele>1582.98</ele>
  <time>2026-08-28T17:50:20Z</time>
  <course>247.2</course>
  <speed>4.108235631022155</speed>
  <fix>3d</fix>
</trkpt>
<trkpt lat="40.0713319" lon="-105.2299154">
  <ele>1583.0</ele>
  <time>2026-08-28T17:50:20Z</time>
  <course>246.0</course>
  <speed>4.32</speed>
  <fix>3d</fix>
</trkpt>
<trkpt lat="40.0713283" lon="-105.2299259">
  <ele>1582.99</ele>
  <time>2026-08-28T17:50:20Z</time>
  <course>247.2</course>
  <speed>3.902166065148945</speed>
  <fix>3d</fix>
</trkpt>
<trkpt lat="40.0713319" lon="-105.2299154">
  <ele>1583.0</ele>
  <time>2026-08-28T17:50:20Z</time>
  <course>246.0</course>
  <speed>4.32</speed>
  <fix>3d</fix>
</trkpt>
<trkpt lat="40.0713269" lon="-105.2299299">
  <ele>1582.99</ele>
  <time>2026-08-28T17:50:20Z</time>
  <course>247.19</course>
  <speed>3.6961060590843444</speed>
  <fix>3d</fix>
</trkpt>
<trkpt lat="40.0713289" lon="-105.2299242">
  <ele>1583.0</ele>
  <time>2026-08-28T17:50:20Z</time>
  <course>246.0</course>
  <speed>3.91</speed>
  <fix>3d</fix>
</trkpt>
<trkpt lat="40.0713256" lon="-105.2299337">
  <ele>1582.99</ele>
  <time>2026-08-28T17:50:20Z</time>
  <course>247.18</course>
  <speed>3.5124065823876367</speed>
  <fix>3d</fix>
</trkpt>
<trkpt lat="40.0713289" lon="-105.2299242">
  <ele>1583.0</ele>
  <time>2026-08-28T17:50:20Z</time>
  <course>246.0</course>
  <speed>3.91</speed>
  <fix>3d</fix>
</trkpt>
<trkpt lat="40.0713243" lon="-105.2299373">
  <ele>1582.98</ele>
  <time>2026-08-28T17:50:20Z</time>
  <course>247.17</course>
  <speed>3.3377986757741995</speed>
  <fix>3d</fix>
</trkpt>
<trkpt lat="40.0713262" lon="-105.2299323">
  <ele>1583.0</ele>
  <time>2026-08-28T17:50:20Z</time>
  <course>246.0</course>
  <speed>3.54</speed>
  <fix>3d</fix>
</trkpt>
<trkpt lat="40.0713231" lon="-105.2299408">
  <ele>1582.98</ele>
  <time>2026-08-28T17:50:20Z</time>
  <course>247.16</course>
  <speed>3.163194587754601</speed>
  <fix>3d</fix>
</trkpt>
<trkpt lat="40.0713262" lon="-105.2299323">
  <ele>1583.0</ele>
  <time>2026-08-28T17:50:20Z</time>
  <course>246.0</course>
  <speed>3.54</speed>
  <fix>3d</fix>
</trkpt>
<trkpt lat="40.071322" lon="-105.229944">
  <ele>1582.98</ele>
  <time>2026-08-28T17:50:20Z</time>
  <course>247.15</course>
  <speed>3.0018827425467505</speed>
  <fix>3d</fix>
</trkpt>
<trkpt lat="40.0713237" lon="-105.2299395">
  <ele>1583.0</ele>
  <time>2026-08-28T17:50:20Z</time>
  <course>245.99</course>
  <speed>3.2</speed>
  <fix>3d</fix>
</trkpt>
<trkpt lat="40.0713209" lon="-105.2299471">
  <ele>1582.98</ele>
  <time>2026-08-28T17:50:20Z</time>
  <course>247.13</course>
  <speed>2.84541736833105</speed>
  <fix>3d</fix>
</trkpt>
<trkpt lat="40.0713237" lon="-105.2299395">
  <ele>1583.0</ele>
  <time>2026-08-28T17:50:20Z</time>
  <course>245.99</course>
  <speed>3.2</speed>
  <fix>3d</fix>
</trkpt>
<trkpt lat="40.0713199" lon="-105.2299501">
  <ele>1582.98</ele>
  <time>2026-08-28T17:50:20Z</time>
  <course>247.11</course>
  <speed>2.7064737205448717</speed>
  <fix>3d</fix>
</trkpt>
<trkpt lat="40.0713215" lon="-105.229946">
  <ele>1583.0</ele>
  <time>2026-08-28T17:50:20Z</time>
  <course>245.99</course>
  <speed>2.9</speed>
  <fix>3d</fix>
</trkpt>
<trkpt lat="40.0713189" lon="-105.2299529">
  <ele>1582.98</ele>
  <time>2026-08-28T17:50:20Z</time>
  <course>247.09</course>
  <speed>2.563298656028985</speed>
  <fix>3d</fix>
</trkpt>
<trkpt lat="40.0713215" lon="-105.229946">
  <ele>1583.0</ele>
  <time>2026-08-28T17:50:20Z</time>
  <course>245.99</course>
  <speed>2.9</speed>
  <fix>3d</fix>
</trkpt>
<trkpt lat="40.071318" lon="-105.2299555">
  <ele>1582.98</ele>
  <time>2026-08-28T17:50:20Z</time>
  <course>247.07</course>
  <speed>2.429176815301842</speed>
  <fix>3d</fix>
</trkpt>
<trkpt lat="40.0713215" lon="-105.229946">
  <ele>1583.0</ele>
  <time>2026-08-28T17:50:20Z</time>
  <course>245.99</course>
  <speed>2.9</speed>
  <fix>3d</fix>
</trkpt>
<trkpt lat="40.0713171" lon="-105.2299581">
  <ele>1582.98</ele>
  <time>2026-08-28T17:50:20Z</time>
  <course>247.06</course>
  <speed>2.2993042425916586</speed>
  <fix>3d</fix>
</trkpt>
<trkpt lat="40.0713195" lon="-105.229952">
  <ele>1583.0</ele>
  <time>2026-08-28T17:50:20Z</time>
  <course>245.99</course>
  <speed>2.62</speed>
  <fix>3d</fix>
</trkpt>
<trkpt lat="40.0713163" lon="-105.2299604">
  <ele>1582.99</ele>
  <time>2026-08-28T17:50:20Z</time>
  <course>247.04</course>
  <speed>2.1875328568960968</speed>
  <fix>3d</fix>
</trkpt>
<trkpt lat="40.0713195" lon="-105.229952">
  <ele>1583.0</ele>
  <time>2026-08-28T17:50:20Z</time>
  <course>245.99</course>
  <speed>2.62</speed>
  <fix>3d</fix>
</trkpt>
<trkpt lat="40.0713156" lon="-105.2299627">
  <ele>1582.98</ele>
  <time>2026-08-28T17:50:20Z</time>
  <course>247.03</course>
  <speed>2.0667123650861527</speed>
  <fix>3d</fix>
</trkpt>
<trkpt lat="40.0713176" lon="-105.2299573">
  <ele>1583.0</ele>
  <time>2026-08-28T17:50:20Z</time>
  <course>245.99</course>
  <speed>2.37</speed>
  <fix>3d</fix>
</trkpt>
<trkpt lat="40.0713148" lon="-105.2299649">
  <ele>1582.98</ele>
  <time>2026-08-28T17:50:20Z</time>
  <course>247.01</course>
  <speed>1.9592090240706836</speed>
  <fix>3d</fix>
</trkpt>
<trkpt lat="40.0713176" lon="-105.2299573">
  <ele>1583.0</ele>
  <time>2026-08-28T17:50:20Z</time>
  <course>245.99</course>
  <speed>2.37</speed>
  <fix>3d</fix>
</trkpt>
<trkpt lat="40.0713141" lon="-105.2299669">
  <ele>1582.98</ele>
  <time>2026-08-28T17:50:20Z</time>
  <course>247.0</course>
  <speed>1.8564751546950473</speed>
  <fix>3d</fix>
</trkpt>
<trkpt lat="40.0713159" lon="-105.2299621">
  <ele>1583.0</ele>
  <time>2026-08-28T17:50:20Z</time>
  <course>245.99</course>
  <speed>2.14</speed>
  <fix>3d</fix>
</trkpt>
<trkpt lat="40.0713135" lon="-105.2299689">
  <ele>1582.98</ele>
  <time>2026-08-28T17:50:20Z</time>
  <course>246.99</course>
  <speed>1.7580102388780332</speed>
  <fix>3d</fix>
</trkpt>
<trkpt lat="40.0713145" lon="-105.2299665">
  <ele>1583.0</ele>
  <time>2026-08-28T17:50:20Z</time>
  <course>245.99</course>
  <speed>1.94</speed>
  <fix>3d</fix>
</trkpt>
<trkpt lat="40.0713128" lon="-105.2299707">
  <ele>1582.98</ele>
  <time>2026-08-28T17:50:20Z</time>
  <course>246.98</course>
  <speed>1.6685922210054798</speed>
  <fix>3d</fix>
</trkpt>
<trkpt lat="40.0713145" lon="-105.2299665">
  <ele>1583.0</ele>
  <time>2026-08-28T17:50:20Z</time>
  <course>245.99</course>
  <speed>1.94</speed>
  <fix>3d</fix>
</trkpt>
<trkpt lat="40.0713122" lon="-105.2299725">
  <ele>1582.98</ele>
  <time>2026-08-28T17:50:20Z</time>
  <course>246.97</course>
  <speed>1.6552945357246849</speed>
  <fix>3d</fix>
</trkpt>
<trkpt lat="40.0713131" lon="-105.2299705">
  <ele>1583.0</ele>
  <time>2026-08-28T17:50:20Z</time>
  <course>245.99</course>
  <speed>1.79</speed>
  <fix>3d</fix>
</trkpt>
<trkpt lat="40.0713116" lon="-105.2299744">
  <ele>1582.98</ele>
  <time>2026-08-28T17:50:20Z</time>
  <course>246.96</course>
  <speed>1.7537673733993344</speed>
  <fix>3d</fix>
</trkpt>
<trkpt lat="40.0713131" lon="-105.2299705">
  <ele>1583.0</ele>
  <time>2026-08-28T17:50:20Z</time>
  <course>245.99</course>
  <speed>1.79</speed>
  <fix>3d</fix>
</trkpt>
<trkpt lat="40.0713109" lon="-105.2299764">
  <ele>1582.98</ele>
  <time>2026-08-28T17:50:20Z</time>
  <course>246.95</course>
  <speed>1.937446773462435</speed>
  <fix>3d</fix>
</trkpt>
<trkpt lat="40.0713118" lon="-105.2299744">
  <ele>1583.0</ele>
  <time>2026-08-28T17:50:20Z</time>
  <course>245.99</course>
  <speed>1.89</speed>
  <fix>3d</fix>
</trkpt>
<trkpt lat="40.0713102" lon="-105.2299787">
  <ele>1582.99</ele>
  <time>2026-08-28T17:50:20Z</time>
  <course>246.95</course>
  <speed>2.1840558600914948</speed>
  <fix>3d</fix>
</trkpt>
<trkpt lat="40.0713118" lon="-105.2299744">
  <ele>1583.0</ele>
  <time>2026-08-28T17:50:20Z</time>
  <course>245.99</course>
  <speed>1.89</speed>
  <fix>3d</fix>
</trkpt>
<trkpt lat="40.0713093" lon="-105.2299813">
  <ele>1582.99</ele>
  <time>2026-08-28T17:50:20Z</time>
  <course>246.94</course>
  <speed>2.430740627874558</speed>
  <fix>3d</fix>
</trkpt>
<trkpt lat="40.0713103" lon="-105.2299788">
  <ele>1583.0</ele>
  <time>2026-08-28T17:50:20Z</time>
  <course>245.99</course>
  <speed>2.27</speed>
  <fix>3d</fix>
</trkpt>
<trkpt lat="40.0713083" lon="-105.2299842">
  <ele>1582.99</ele>
  <time>2026-08-28T17:50:20Z</time>
  <course>246.95</course>
  <speed>2.668332812825267</speed>
  <fix>3d</fix>
</trkpt>
<trkpt lat="40.0713103" lon="-105.2299788">
  <ele>1583.0</ele>
  <time>2026-08-28T17:50:20Z</time>
  <course>245.99</course>
  <speed>2.27</speed>
  <fix>3d</fix>
</trkpt>
<trkpt lat="40.0713073" lon="-105.2299873">
  <ele>1582.99</ele>
  <time>2026-08-28T17:50:20Z</time>
  <course>246.95</course>
  <speed>2.8876461001999534</speed>
  <fix>3d</fix>
</trkpt>
<trkpt lat="40.0713085" lon="-105.2299842">
  <ele>1583.0</ele>
  <time>2026-08-28T17:50:20Z</time>
  <course>245.99</course>
  <speed>2.73</speed>
  <fix>3d</fix>
</trkpt>
<trkpt lat="40.0713062" lon="-105.2299907">
  <ele>1583.0</ele>
  <time>2026-08-28T17:50:20Z</time>
  <course>246.95</course>
  <speed>3.10291798151353</speed>
  <fix>3d</fix>
</trkpt>
<trkpt lat="40.0713085" lon="-105.2299842">
  <ele>1583.0</ele>
  <time>2026-08-28T17:50:20Z</time>
  <course>245.99</course>
  <speed>2.73</speed>
  <fix>3d</fix>
</trkpt>
<trkpt lat="40.071305" lon="-105.2299943">
  <ele>1583.0</ele>
  <time>2026-08-28T17:50:20Z</time>
  <course>246.96</course>
  <speed>3.2998939376895127</speed>
  <fix>3d</fix>
</trkpt>
<trkpt lat="40.0713063" lon="-105.2299905">
  <ele>1583.0</ele>
  <time>2026-08-28T17:50:20Z</time>
  <course>246.0</course>
  <speed>3.16</speed>
  <fix>3d</fix>
</trkpt>
<trkpt lat="40.0713037" lon="-105.2299981">
  <ele>1583.0</ele>
  <time>2026-08-28T17:50:20Z</time>
  <course>246.96</course>
  <speed>3.492849839314596</speed>
  <fix>3d</fix>
</trkpt>
<trkpt lat="40.0713063" lon="-105.2299905">
  <ele>1583.0</ele>
  <time>2026-08-28T17:50:20Z</time>
  <course>246.0</course>
  <speed>3.16</speed>
  <fix>3d</fix>
</trkpt>
<trkpt lat="40.0713024" lon="-105.2300021">
  <ele>1583.0</ele>
  <time>2026-08-28T17:50:20Z</time>
  <course>246.97</course>
  <speed>3.6766560894377927</speed>
  <fix>3d</fix>
</trkpt>
<trkpt lat="40.0713038" lon="-105.2299977">
  <ele>1583.0</ele>
  <time>2026-08-28T17:50:20Z</time>
  <course>246.0</course>
  <speed>3.54</speed>
  <fix>3d</fix>
</trkpt>
<trkpt lat="40.071301" lon="-105.2300063">
  <ele>1583.0</ele>
  <time>2026-08-28T17:50:20Z</time>
  <course>246.97</course>
  <speed>3.851298482330342</speed>
  <fix>3d</fix>
</trkpt>
<trkpt lat="40.0713038" lon="-105.2299977">
  <ele>1583.0</ele>
  <time>2026-08-28T17:50:20Z</time>
  <course>246.0</course>
  <speed>3.54</speed>
  <fix>3d</fix>
</trkpt>
<trkpt lat="40.0712995" lon="-105.2300107">
  <ele>1583.01</ele>
  <time>2026-08-28T17:50:20Z</time>
  <course>246.98</course>
  <speed>4.021952262272639</speed>
  <fix>3d</fix>
</trkpt>
<trkpt lat="40.0713038" lon="-105.2299977">
  <ele>1583.0</ele>
  <time>2026-08-28T17:50:20Z</time>
  <course>246.0</course>
  <speed>3.54</speed>
  <fix>3d</fix>
</trkpt>
<trkpt lat="40.071298" lon="-105.2300152">
  <ele>1583.01</ele>
  <time>2026-08-28T17:50:20Z</time>
  <course>246.99</course>
  <speed>4.174266402614956</speed>
  <fix>3d</fix>
</trkpt>
<trkpt lat="40.0713011" lon="-105.2300057">
  <ele>1583.0</ele>
  <time>2026-08-28T17:50:20Z</time>
  <course>246.0</course>
  <speed>3.89</speed>
  <fix>3d</fix>
</trkpt>
<trkpt lat="40.0712965" lon="-105.2300198">
  <ele>1583.01</ele>
  <time>2026-08-28T17:50:20Z</time>
  <course>246.99</course>
  <speed>4.326580636021938</speed>
  <fix>3d</fix>
</trkpt>
<trkpt lat="40.0713011" lon="-105.2300057">
  <ele>1583.0</ele>
  <time>2026-08-28T17:50:20Z</time>
  <course>246.0</course>
  <speed>3.89</speed>
  <fix>3d</fix>
</trkpt>
<trkpt lat="40.0712949" lon="-105.2300246">
  <ele>1583.01</ele>
  <time>2026-08-28T17:50:20Z</time>
  <course>246.99</course>
  <speed>4.4697203491941195</speed>
  <fix>3d</fix>
</trkpt>
<trkpt lat="40.0712982" lon="-105.2300145">
  <ele>1583.0</ele>
  <time>2026-08-28T17:50:20Z</time>
  <course>246.0</course>
  <speed>4.21</speed>
  <fix>3d</fix>
</trkpt>
<trkpt lat="40.0712932" lon="-105.2300295">
  <ele>1583.01</ele>
  <time>2026-08-28T17:50:20Z</time>
  <course>247.0</course>
  <speed>4.599706512376632</speed>
  <fix>3d</fix>
</trkpt>
<trkpt lat="40.0712982" lon="-105.2300145">
  <ele>1583.0</ele>
  <time>2026-08-28T17:50:20Z</time>
  <course>246.0</course>
  <speed>4.21</speed>
  <fix>3d</fix>
</trkpt>
<trkpt lat="40.0712915" lon="-105.2300346">
  <ele>1583.01</ele>
  <time>2026-08-28T17:50:20Z</time>
  <course>247.0</course>
  <speed>4.720519039258289</speed>
  <fix>3d</fix>
</trkpt>
<trkpt lat="40.071295" lon="-105.2300238">
  <ele>1583.0</ele>
  <time>2026-08-28T17:50:20Z</time>
  <course>246.0</course>
  <speed>4.49</speed>
  <fix>3d</fix>
</trkpt>
<trkpt lat="40.0712898" lon="-105.2300398">
  <ele>1583.01</ele>
  <time>2026-08-28T17:50:20Z</time>
  <course>247.0</course>
  <speed>4.850505128334574</speed>
  <fix>3d</fix>
</trkpt>
<trkpt lat="40.071295" lon="-105.2300238">
  <ele>1583.0</ele>
  <time>2026-08-28T17:50:20Z</time>
  <course>246.0</course>
  <speed>4.49</speed>
  <fix>3d</fix>
</trkpt>
<trkpt lat="40.071288" lon="-105.2300451">
  <ele>1583.01</ele>
  <time>2026-08-28T17:50:20Z</time>
  <course>247.0</course>
  <speed>4.9581649831364025</speed>
  <fix>3d</fix>
</trkpt>
<trkpt lat="40.0712916" lon="-105.2300338">
  <ele>1583.0</ele>
  <time>2026-08-28T17:50:20Z</time>
  <course>246.0</course>
  <speed>4.75</speed>
  <fix>3d</fix>
</trkpt>
<trkpt lat="40.0712861" lon="-105.2300506">
  <ele>1583.01</ele>
  <time>2026-08-28T17:50:20Z</time>
  <course>247.0</course>
  <speed>5.065826684757385</speed>
  <fix>3d</fix>
</trkpt>
<trkpt lat="40.071288" lon="-105.2300442">
  <ele>1583.0</ele>
  <time>2026-08-28T17:50:20Z</time>
  <course>246.0</course>
  <speed>4.98</speed>
  <fix>3d</fix>
</trkpt>
<trkpt lat="40.0712842" lon="-105.2300562">
  <ele>1583.01</ele>
  <time>2026-08-28T17:50:20Z</time>
  <course>246.99</course>
  <speed>5.1774607675964095</speed>
  <fix>3d</fix>
</trkpt>
<trkpt lat="40.071288" lon="-105.2300442">
  <ele>1583.0</ele>
  <time>2026-08-28T17:50:20Z</time>
  <course>246.0</course>
  <speed>4.98</speed>
  <fix>3d</fix>
</trkpt>
<trkpt lat="40.0712823" lon="-105.2300618">
  <ele>1583.01</ele>
  <time>2026-08-28T17:50:20Z</time>
  <course>246.99</course>
  <speed>5.275945412909425</speed>
  <fix>3d</fix>
</trkpt>
<trkpt lat="40.0712843" lon="-105.2300551">
  <ele>1583.0</ele>
  <time>2026-08-28T17:50:20Z</time>
  <course>246.0</course>
  <speed>5.19</speed>
  <fix>3d</fix>
</trkpt>
<trkpt lat="40.0712804" lon="-105.2300677">
  <ele>1583.01</ele>
  <time>2026-08-28T17:50:20Z</time>
  <course>246.99</course>
  <speed>5.374430202356339</speed>
  <fix>3d</fix>
</trkpt>
<trkpt lat="40.0712843" lon="-105.2300551">
  <ele>1583.0</ele>
  <time>2026-08-28T17:50:20Z</time>
  <course>246.0</course>
  <speed>5.19</speed>
  <fix>3d</fix>
</trkpt>
<trkpt lat="40.0712784" lon="-105.2300736">
  <ele>1583.01</ele>
  <time>2026-08-28T17:50:20Z</time>
  <course>246.98</course>
  <speed>5.4597618995703465</speed>
  <fix>3d</fix>
</trkpt>
<trkpt lat="40.0712805" lon="-105.2300664">
  <ele>1583.0</ele>
  <time>2026-08-28T17:50:20Z</time>
  <course>246.0</course>
  <speed>5.38</speed>
  <fix>3d</fix>
</trkpt>
<trkpt lat="40.0712763" lon="-105.2300796">
  <ele>1583.01</ele>
  <time>2026-08-28T17:50:20Z</time>
  <course>246.98</course>
  <speed>5.549071994487005</speed>
  <fix>3d</fix>
</trkpt>
<trkpt lat="40.0712805" lon="-105.2300664">
  <ele>1583.0</ele>
  <time>2026-08-28T17:50:20Z</time>
  <course>246.0</course>
  <speed>5.38</speed>
  <fix>3d</fix>
</trkpt>
<trkpt lat="40.0712742" lon="-105.2300858">
  <ele>1583.01</ele>
  <time>2026-08-28T17:50:20Z</time>
  <course>246.98</course>
  <speed>5.634403251454407</speed>
  <fix>3d</fix>
</trkpt>
<trkpt lat="40.0712764" lon="-105.2300782">
  <ele>1583.0</ele>
  <time>2026-08-28T17:50:20Z</time>
  <course>246.0</course>
  <speed>5.55</speed>
  <fix>3d</fix>
</trkpt>
<trkpt lat="40.0712721" lon="-105.230092">
  <ele>1583.01</ele>
  <time>2026-08-28T17:50:20Z</time>
  <course>246.97</course>
  <speed>5.647556993957653</speed>
  <fix>3d</fix>
</trkpt>
<trkpt lat="40.0712764" lon="-105.2300782">
  <ele>1583.0</ele>
  <time>2026-08-28T17:50:20Z</time>
  <course>246.0</course>
  <speed>5.55</speed>
  <fix>3d</fix>
</trkpt>
<trkpt lat="40.0712701" lon="-105.230098">
  <ele>1583.01</ele>
  <time>2026-08-28T17:50:20Z</time>
  <course>246.97</course>
  <speed>5.374430202356339</speed>
  <fix>3d</fix>
</trkpt>
<trkpt lat="40.0712724" lon="-105.2300901">
  <ele>1583.0</ele>
  <time>2026-08-28T17:50:20Z</time>
  <course>246.0</course>
  <speed>5.5</speed>
  <fix>3d</fix>
</trkpt>
<trkpt lat="40.0712682" lon="-105.2301036">
  <ele>1583.01</ele>
  <time>2026-08-28T17:50:20Z</time>
  <course>246.96</course>
  <speed>5.105291372683835</speed>
  <fix>3d</fix>
</trkpt>
<trkpt lat="40.0712724" lon="-105.2300901">
  <ele>1583.0</ele>
  <time>2026-08-28T17:50:20Z</time>
  <course>246.0</course>
  <speed>5.5</speed>
  <fix>3d</fix>
</trkpt>
<trkpt lat="40.0712663" lon="-105.230109">
  <ele>1583.01</ele>
  <time>2026-08-28T17:50:20Z</time>
  <course>246.96</course>
  <speed>4.8584977101980815</speed>
  <fix>3d</fix>
</trkpt>
<trkpt lat="40.0712685" lon="-105.2301016">
  <ele>1583.0</ele>
  <time>2026-08-28T17:50:20Z</time>
  <course>246.0</course>
  <speed>5.11</speed>
  <fix>3d</fix>
</trkpt>
<trkpt lat="40.0712646" lon="-105.2301141">
  <ele>1583.01</ele>
  <time>2026-08-28T17:50:20Z</time>
  <course>246.96</course>
  <speed>4.616860405080491</speed>
  <fix>3d</fix>
</trkpt>
<trkpt lat="40.0712685" lon="-105.2301016">
  <ele>1583.0</ele>
  <time>2026-08-28T17:50:20Z</time>
  <course>246.0</course>
  <speed>5.11</speed>
  <fix>3d</fix>
</trkpt>
<trkpt lat="40.0712629" lon="-105.2301189">
  <ele>1583.01</ele>
  <time>2026-08-28T17:50:20Z</time>
  <course>246.96</course>
  <speed>4.392413914921953</speed>
  <fix>3d</fix>
</trkpt>
<trkpt lat="40.0712649" lon="-105.230112">
  <ele>1583.0</ele>
  <time>2026-08-28T17:50:20Z</time>
  <course>246.0</course>
  <speed>4.62</speed>
  <fix>3d</fix>
</trkpt>
<trkpt lat="40.0712613" lon="-105.2301235">
  <ele>1583.01</ele>
  <time>2026-08-28T17:50:20Z</time>
  <course>246.96</course>
  <speed>4.173104360065778</speed>
  <fix>3d</fix>
</trkpt>
<trkpt lat="40.0712649" lon="-105.230112">
  <ele>1583.0</ele>
  <time>2026-08-28T17:50:20Z</time>
  <course>246.0</course>
  <speed>4.62</speed>
  <fix>3d</fix>
</trkpt>
<trkpt lat="40.0712598" lon="-105.2301278">
  <ele>1583.02</ele>
  <time>2026-08-28T17:50:20Z</time>
  <course>246.96</course>
  <speed>3.966976178400874</speed>
  <fix>3d</fix>
</trkpt>
<trkpt lat="40.0712649" lon="-105.230112">
  <ele>1583.0</ele>
  <time>2026-08-28T17:50:20Z</time>
  <course>246.0</course>
  <speed>4.62</speed>
  <fix>3d</fix>
</trkpt>
<trkpt lat="40.0712584" lon="-105.2301319">
  <ele>1583.02</ele>
  <time>2026-08-28T17:50:20Z</time>
  <course>246.96</course>
  <speed>3.760850967533811</speed>
  <fix>3d</fix>
</trkpt>
<trkpt lat="40.0712617" lon="-105.2301215">
  <ele>1583.0</ele>
  <time>2026-08-28T17:50:20Z</time>
  <course>246.0</course>
  <speed>4.18</speed>
  <fix>3d</fix>
</trkpt>
<trkpt lat="40.0712571" lon="-105.2301357">
  <ele>1583.02</ele>
  <time>2026-08-28T17:50:20Z</time>
  <course>246.97</course>
  <speed>3.5770658366879413</speed>
  <fix>3d</fix>
</trkpt>
<trkpt lat="40.0712617" lon="-105.2301215">
  <ele>1583.0</ele>
  <time>2026-08-28T17:50:20Z</time>
  <course>246.0</course>
  <speed>4.18</speed>
  <fix>3d</fix>
</trkpt>
<trkpt lat="40.0712558" lon="-105.2301394">
  <ele>1583.02</ele>
  <time>2026-08-28T17:50:20Z</time>
  <course>246.97</course>
  <speed>3.393287491504367</speed>
  <fix>3d</fix>
</trkpt>
<trkpt lat="40.0712587" lon="-105.23013">
  <ele>1583.0</ele>
  <time>2026-08-28T17:50:20Z</time>
  <course>246.0</course>
  <speed>3.78</speed>
  <fix>3d</fix>
</trkpt>
<trkpt lat="40.0712546" lon="-105.2301429">
  <ele>1583.02</ele>
  <time>2026-08-28T17:50:20Z</time>
  <course>246.97</course>
  <speed>3.2186487848163865</speed>
  <fix>3d</fix>
</trkpt>
<trkpt lat="40.0712587" lon="-105.23013">
  <ele>1583.0</ele>
  <time>2026-08-28T17:50:20Z</time>
  <course>246.0</course>
  <speed>3.78</speed>
  <fix>3d</fix>
</trkpt>
<trkpt lat="40.0712535" lon="-105.2301461">
  <ele>1583.02</ele>
  <time>2026-08-28T17:50:20Z</time>
  <course>246.98</course>
  <speed>3.0572209602840292</speed>
  <fix>3d</fix>
</trkpt>
<trkpt lat="40.0712561" lon="-105.2301378">
  <ele>1583.0</ele>
  <time>2026-08-28T17:50:20Z</time>
  <course>246.0</course>
  <speed>3.42</speed>
  <fix>3d</fix>
</trkpt>
<trkpt lat="40.0712524" lon="-105.2301493">
  <ele>1583.02</ele>
  <time>2026-08-28T17:50:20Z</time>
  <course>246.98</course>
  <speed>2.8958073140317886</speed>
  <fix>3d</fix>
</trkpt>
<trkpt lat="40.0712537" lon="-105.2301448">
  <ele>1583.0</ele>
  <time>2026-08-28T17:50:20Z</time>
  <course>246.0</course>
  <speed>3.1</speed>
  <fix>3d</fix>
</trkpt>
<trkpt lat="40.0712513" lon="-105.2301523">
  <ele>1583.02</ele>
  <time>2026-08-28T17:50:20Z</time>
  <course>246.99</course>
  <speed>2.752635101134911</speed>
  <fix>3d</fix>
</trkpt>
<trkpt lat="40.0712537" lon="-105.2301448">
  <ele>1583.0</ele>
  <time>2026-08-28T17:50:20Z</time>
  <course>246.0</course>
  <speed>3.1</speed>
  <fix>3d</fix>
</trkpt>
<trkpt lat="40.0712503" lon="-105.2301551">
  <ele>1583.02</ele>
  <time>2026-08-28T17:50:20Z</time>
  <course>246.99</course>
  <speed>2.6094635464018268</speed>
  <fix>3d</fix>
</trkpt>
<trkpt lat="40.0712516" lon="-105.2301511">
  <ele>1583.0</ele>
  <time>2026-08-28T17:50:20Z</time>
  <course>246.0</course>
  <speed>2.8</speed>
  <fix>3d</fix>
</trkpt>
<trkpt lat="40.0712494" lon="-105.2301578">
  <ele>1583.02</ele>
  <time>2026-08-28T17:50:20Z</time>
  <course>246.99</course>
  <speed>2.479516081819192</speed>
  <fix>3d</fix>
</trkpt>
<trkpt lat="40.0712516" lon="-105.2301511">
  <ele>1583.0</ele>
  <time>2026-08-28T17:50:20Z</time>
  <course>246.0</course>
  <speed>2.8</speed>
  <fix>3d</fix>
</trkpt>
<trkpt lat="40.0712485" lon="-105.2301604">
  <ele>1583.02</ele>
  <time>2026-08-28T17:50:20Z</time>
  <course>247.0</course>
  <speed>2.3495744295510197</speed>
  <fix>3d</fix>
</trkpt>
<trkpt lat="40.0712496" lon="-105.2301568">
  <ele>1583.0</ele>
  <time>2026-08-28T17:50:20Z</time>
  <course>246.0</course>
  <speed>2.53</speed>
  <fix>3d</fix>
</trkpt>
<trkpt lat="40.0712476" lon="-105.2301628">
  <ele>1583.02</ele>
  <time>2026-08-28T17:50:20Z</time>
  <course>247.0</course>
  <speed>2.2287440409342656</speed>
  <fix>3d</fix>
</trkpt>
<trkpt lat="40.0712496" lon="-105.2301568">
  <ele>1583.0</ele>
  <time>2026-08-28T17:50:20Z</time>
  <course>246.0</course>
  <speed>2.53</speed>
  <fix>3d</fix>
</trkpt>
<trkpt lat="40.0712468" lon="-105.2301651">
  <ele>1583.01</ele>
  <time>2026-08-28T17:50:20Z</time>
  <course>247.0</course>
  <speed>2.121155345560527</speed>
  <fix>3d</fix>
</trkpt>
<trkpt lat="40.0712479" lon="-105.230162">
  <ele>1583.0</ele>
  <time>2026-08-28T17:50:20Z</time>
  <course>246.0</course>
  <speed>2.29</speed>
  <fix>3d</fix>
</trkpt>
<trkpt lat="40.071246" lon="-105.2301674">
  <ele>1583.01</ele>
  <time>2026-08-28T17:50:20Z</time>
  <course>247.0</course>
  <speed>2.0094277792446285</speed>
  <fix>3d</fix>
</trkpt>
<trkpt lat="40.0712479" lon="-105.230162">
  <ele>1583.0</ele>
  <time>2026-08-28T17:50:20Z</time>
  <course>246.0</course>
  <speed>2.29</speed>
  <fix>3d</fix>
</trkpt>
<trkpt lat="40.0712453" lon="-105.2301695">
  <ele>1583.01</ele>
  <time>2026-08-28T17:50:20Z</time>
  <course>247.0</course>
  <speed>1.9018412131405713</speed>
  <fix>3d</fix>
</trkpt>
<trkpt lat="40.0712463" lon="-105.2301667">
  <ele>1583.0</ele>
  <time>2026-08-28T17:50:20Z</time>
  <course>246.0</course>
  <speed>2.07</speed>
  <fix>3d</fix>
</trkpt>
<trkpt lat="40.0712446" lon="-105.2301715">
  <ele>1583.0</ele>
  <time>2026-08-28T17:50:20Z</time>
  <course>247.01</course>
  <speed>1.8033579788827288</speed>
  <fix>3d</fix>
</trkpt>
<trkpt lat="40.0712463" lon="-105.2301667">
  <ele>1583.0</ele>
  <time>2026-08-28T17:50:20Z</time>
  <course>246.0</course>
  <speed>2.07</speed>
  <fix>3d</fix>
</trkpt>
<trkpt lat="40.071244" lon="-105.2301734">
  <ele>1583.0</ele>
  <time>2026-08-28T17:50:20Z</time>
  <course>247.01</course>
  <speed>1.7139719951037709</speed>
  <fix>3d</fix>
</trkpt>
<trkpt lat="40.0712448" lon="-105.2301709">
  <ele>1583.0</ele>
  <time>2026-08-28T17:50:20Z</time>
  <course>246.0</course>
  <speed>1.88</speed>
  <fix>3d</fix>
</trkpt>
<trkpt lat="40.0712433" lon="-105.2301752">
  <ele>1583.0</ele>
  <time>2026-08-28T17:50:20Z</time>
  <course>247.01</course>
  <speed>1.6245922565370057</speed>
  <fix>3d</fix>
</trkpt>
<trkpt lat="40.0712448" lon="-105.2301709">
  <ele>1583.0</ele>
  <time>2026-08-28T17:50:20Z</time>
  <course>246.0</course>
  <speed>1.88</speed>
  <fix>3d</fix>
</trkpt>
<trkpt lat="40.0712427" lon="-105.2301769">
  <ele>1582.99</ele>
  <time>2026-08-28T17:50:20Z</time>
  <course>247.01</course>
  <speed>1.5393505123915086</speed>
  <fix>3d</fix>
</trkpt>
<trkpt lat="40.0712435" lon="-105.2301747">
  <ele>1583.0</ele>
  <time>2026-08-28T17:50:20Z</time>
  <course>246.0</course>
  <speed>1.7</speed>
  <fix>3d</fix>
</trkpt>
<trkpt lat="40.0712422" lon="-105.2301786">
  <ele>1582.99</ele>
  <time>2026-08-28T17:50:20Z</time>
  <course>247.01</course>
  <speed>1.4632156368765337</speed>
  <fix>3d</fix>
</trkpt>
<trkpt lat="40.0712435" lon="-105.2301747">
  <ele>1583.0</ele>
  <time>2026-08-28T17:50:20Z</time>
  <course>246.0</course>
  <speed>1.7</speed>
  <fix>3d</fix>
</trkpt>
<trkpt lat="40.0712416" lon="-105.2301801">
  <ele>1582.99</ele>
  <time>2026-08-28T17:50:20Z</time>
  <course>247.02</course>
  <speed>1.3870832707519762</speed>
  <fix>3d</fix>
</trkpt>
<trkpt lat="40.0712435" lon="-105.2301747">
  <ele>1583.0</ele>
  <time>2026-08-28T17:50:20Z</time>
  <course>246.0</course>
  <speed>1.7</speed>
  <fix>3d</fix>
</trkpt>
<trkpt lat="40.0712411" lon="-105.2301816">
  <ele>1582.99</ele>
  <time>2026-08-28T17:50:20Z</time>
  <course>247.02</course>
  <speed>1.3200378782444084</speed>
  <fix>3d</fix>
</trkpt>
<trkpt lat="40.0712423" lon="-105.2301782">
  <ele>1583.0</ele>
  <time>2026-08-28T17:50:20Z</time>
  <course>246.0</course>
  <speed>1.53</speed>
  <fix>3d</fix>
</trkpt>
<trkpt lat="40.0712406" lon="-105.230183">
  <ele>1582.99</ele>
  <time>2026-08-28T17:50:20Z</time>
  <course>247.02</course>
  <speed>1.2439051410778879</speed>
  <fix>3d</fix>
</trkpt>
<trkpt lat="40.0712423" lon="-105.2301782">
  <ele>1583.0</ele>
  <time>2026-08-28T17:50:20Z</time>
  <course>246.0</course>
  <speed>1.53</speed>
  <fix>3d</fix>
</trkpt>
<trkpt lat="40.0712402" lon="-105.2301843">
  <ele>1582.99</ele>
  <time>2026-08-28T17:50:20Z</time>
  <course>247.03</course>
  <speed>1.1859595271340417</speed>
  <fix>3d</fix>
</trkpt>
<trkpt lat="40.0712412" lon="-105.2301813">
  <ele>1583.0</ele>
  <time>2026-08-28T17:50:20Z</time>
  <course>246.0</course>
  <speed>1.39</speed>
  <fix>3d</fix>
</trkpt>
<trkpt lat="40.0712398" lon="-105.2301856">
  <ele>1582.99</ele>
  <time>2026-08-28T17:50:20Z</time>
  <course>247.03</course>
  <speed>1.1189280584559491</speed>
  <fix>3d</fix>
</trkpt>
<trkpt lat="40.0712412" lon="-105.2301813">
  <ele>1583.0</ele>
  <time>2026-08-28T17:50:20Z</time>
  <course>246.0</course>
  <speed>1.39</speed>
  <fix>3d</fix>
</trkpt>
<trkpt lat="40.0712393" lon="-105.2301868">
  <ele>1582.99</ele>
  <time>2026-08-28T17:50:20Z</time>
  <course>247.03</course>
  <speed>1.0651291001564083</speed>
  <fix>3d</fix>
</trkpt>
<trkpt lat="40.0712403" lon="-105.2301842">
  <ele>1583.0</ele>
  <time>2026-08-28T17:50:20Z</time>
  <course>246.0</course>
  <speed>1.26</speed>
  <fix>3d</fix>
</trkpt>
<trkpt lat="39.655741" lon="-104.1383097">
  <ele>1566.58</ele>
  <time>2026-08-28T17:50:21Z</time>
  <course>0.0</course>
  <speed>0.0</speed>
  <fix>3d</fix>
</trkpt>
<trkpt lat="40.0713749" lon="-105.229789">
  <ele>1583.0</ele>
  <time>2026-08-28T17:50:21Z</time>
  <course>0.0</course>
  <speed>0.0</speed>
  <fix>3d</fix>
</trkpt>
<trkpt lat="40.0713749" lon="-105.229789">
  <ele>1583.0</ele>
  <time>2026-08-28T17:50:21Z</time>
  <course>238.36</course>
  <speed>0.0</speed>
  <fix>3d</fix>
</trkpt>
<trkpt lat="40.0713749" lon="-105.229789">
  <ele>1583.0</ele>
  <time>2026-08-28T17:50:21Z</time>
  <course>0.0</course>
  <speed>0.0</speed>
  <fix>3d</fix>
</trkpt>
<trkpt lat="40.0713749" lon="-105.229789">
  <ele>1583.0</ele>
  <time>2026-08-28T17:50:21Z</time>
  <course>238.44</course>
  <speed>0.0</speed>
  <fix>3d</fix>
</trkpt>
<trkpt lat="40.0713749" lon="-105.229789">
  <ele>1583.0</ele>
  <time>2026-08-28T17:50:21Z</time>
  <course>0.0</course>
  <speed>0.0</speed>
  <fix>3d</fix>
</trkpt>
<trkpt lat="40.0713749" lon="-105.229789">
  <ele>1583.0</ele>
  <time>2026-08-28T17:50:21Z</time>
  <course>238.64</course>
  <speed>0.0</speed>
  <fix>3d</fix>
</trkpt>
<trkpt lat="40.0713749" lon="-105.229789">
  <ele>1583.0</ele>
  <time>2026-08-28T17:50:21Z</time>
  <course>0.0</course>
  <speed>0.0</speed>
  <fix>3d</fix>
</trkpt>
<trkpt lat="40.0713749" lon="-105.229789">
  <ele>1583.0</ele>
  <time>2026-08-28T17:50:21Z</time>
  <course>238.93</course>
  <speed>0.0</speed>
  <fix>3d</fix>
</trkpt>
<trkpt lat="40.0713749" lon="-105.229789">
  <ele>1583.0</ele>
  <time>2026-08-28T17:50:21Z</time>
  <course>0.0</course>
  <speed>0.0</speed>
  <fix>3d</fix>
</trkpt>
<trkpt lat="40.0713749" lon="-105.229789">
  <ele>1583.0</ele>
  <time>2026-08-28T17:50:21Z</time>
  <course>239.26</course>
  <speed>0.0</speed>
  <fix>3d</fix>
</trkpt>
<trkpt lat="40.0713749" lon="-105.229789">
  <ele>1583.0</ele>
  <time>2026-08-28T17:50:21Z</time>
  <course>0.0</course>
  <speed>0.0</speed>
  <fix>3d</fix>
</trkpt>
<trkpt lat="40.0713749" lon="-105.229789">
  <ele>1583.0</ele>
  <time>2026-08-28T17:50:21Z</time>
  <course>239.61</course>
  <speed>0.0</speed>
  <fix>3d</fix>
</trkpt>
<trkpt lat="40.0713749" lon="-105.229789">
  <ele>1583.0</ele>
  <time>2026-08-28T17:50:21Z</time>
  <course>0.0</course>
  <speed>0.0</speed>
  <fix>3d</fix>
</trkpt>
<trkpt lat="40.0713749" lon="-105.229789">
  <ele>1583.0</ele>
  <time>2026-08-28T17:50:21Z</time>
  <course>239.96</course>
  <speed>0.0</speed>
  <fix>3d</fix>
</trkpt>
<trkpt lat="40.0713749" lon="-105.229789">
  <ele>1583.0</ele>
  <time>2026-08-28T17:50:21Z</time>
  <course>0.0</course>
  <speed>0.0</speed>
  <fix>3d</fix>
</trkpt>
<trkpt lat="40.0713749" lon="-105.229789">
  <ele>1583.0</ele>
  <time>2026-08-28T17:50:21Z</time>
  <course>240.29</course>
  <speed>0.0</speed>
  <fix>3d</fix>
</trkpt>
<trkpt lat="40.0713749" lon="-105.229789">
  <ele>1583.0</ele>
  <time>2026-08-28T17:50:21Z</time>
  <course>0.0</course>
  <speed>0.0</speed>
  <fix>3d</fix>
</trkpt>
<trkpt lat="40.0713749" lon="-105.229789">
  <ele>1583.0</ele>
  <time>2026-08-28T17:50:21Z</time>
  <course>240.61</course>
  <speed>0.0</speed>
  <fix>3d</fix>
</trkpt>
<trkpt lat="40.0713749" lon="-105.229789">
  <ele>1583.0</ele>
  <time>2026-08-28T17:50:21Z</time>
  <course>0.0</course>
  <speed>0.0</speed>
  <fix>3d</fix>
</trkpt>
<trkpt lat="40.0713749" lon="-105.229789">
  <ele>1583.0</ele>
  <time>2026-08-28T17:50:21Z</time>
  <course>240.92</course>
  <speed>0.0</speed>
  <fix>3d</fix>
</trkpt>
<trkpt lat="40.0713749" lon="-105.229789">
  <ele>1583.0</ele>
  <time>2026-08-28T17:50:21Z</time>
  <course>0.0</course>
  <speed>0.0</speed>
  <fix>3d</fix>
</trkpt>
<trkpt lat="40.0713749" lon="-105.229789">
  <ele>1583.0</ele>
  <time>2026-08-28T17:50:21Z</time>
  <course>241.21</course>
  <speed>0.0</speed>
  <fix>3d</fix>
</trkpt>
<trkpt lat="40.0713749" lon="-105.229789">
  <ele>1583.0</ele>
  <time>2026-08-28T17:50:21Z</time>
  <course>0.0</course>
  <speed>0.0</speed>
  <fix>3d</fix>
</trkpt>
<trkpt lat="40.0713749" lon="-105.229789">
  <ele>1583.0</ele>
  <time>2026-08-28T17:50:21Z</time>
  <course>241.49</course>
  <speed>0.0</speed>
  <fix>3d</fix>
</trkpt>
<trkpt lat="40.0713749" lon="-105.229789">
  <ele>1583.0</ele>
  <time>2026-08-28T17:50:21Z</time>
  <course>0.0</course>
  <speed>0.0</speed>
  <fix>3d</fix>
</trkpt>
<trkpt lat="40.0713749" lon="-105.229789">
  <ele>1583.0</ele>
  <time>2026-08-28T17:50:21Z</time>
  <course>241.77</course>
  <speed>0.0</speed>
  <fix>3d</fix>
</trkpt>
<trkpt lat="40.0713749" lon="-105.229789">
  <ele>1583.0</ele>
  <time>2026-08-28T17:50:21Z</time>
  <course>0.0</course>
  <speed>0.0</speed>
  <fix>3d</fix>
</trkpt>
<trkpt lat="40.0713749" lon="-105.229789">
  <ele>1583.0</ele>
  <time>2026-08-28T17:50:21Z</time>
  <course>242.03</course>
  <speed>0.0</speed>
  <fix>3d</fix>
</trkpt>
<trkpt lat="40.0713749" lon="-105.229789">
  <ele>1583.0</ele>
  <time>2026-08-28T17:50:21Z</time>
  <course>0.0</course>
  <speed>0.0</speed>
  <fix>3d</fix>
</trkpt>
<trkpt lat="40.0713749" lon="-105.229789">
  <ele>1583.0</ele>
  <time>2026-08-28T17:50:21Z</time>
  <course>242.29</course>
  <speed>0.0</speed>
  <fix>3d</fix>
</trkpt>
<trkpt lat="40.0713749" lon="-105.229789">
  <ele>1583.0</ele>
  <time>2026-08-28T17:50:21Z</time>
  <course>0.0</course>
  <speed>0.0</speed>
  <fix>3d</fix>
</trkpt>
<trkpt lat="40.0713749" lon="-105.229789">
  <ele>1583.0</ele>
  <time>2026-08-28T17:50:21Z</time>
  <course>242.54</course>
  <speed>0.0</speed>
  <fix>3d</fix>
</trkpt>
<trkpt lat="40.0713749" lon="-105.229789">
  <ele>1583.0</ele>
  <time>2026-08-28T17:50:21Z</time>
  <course>0.0</course>
  <speed>0.0</speed>
  <fix>3d</fix>
</trkpt>
<trkpt lat="40.0713749" lon="-105.229789">
  <ele>1583.0</ele>
  <time>2026-08-28T17:50:21Z</time>
  <course>242.79</course>
  <speed>0.0</speed>
  <fix>3d</fix>
</trkpt>
<trkpt lat="40.0713749" lon="-105.229789">
  <ele>1583.0</ele>
  <time>2026-08-28T17:50:21Z</time>
  <course>0.0</course>
  <speed>0.0</speed>
  <fix>3d</fix>
</trkpt>
<trkpt lat="40.0713749" lon="-105.229789">
  <ele>1583.0</ele>
  <time>2026-08-28T17:50:21Z</time>
  <course>243.02</course>
  <speed>0.0</speed>
  <fix>3d</fix>
</trkpt>
<trkpt lat="40.0713749" lon="-105.229789">
  <ele>1583.0</ele>
  <time>2026-08-28T17:50:21Z</time>
  <course>0.0</course>
  <speed>0.0</speed>
  <fix>3d</fix>
</trkpt>
<trkpt lat="40.0713749" lon="-105.229789">
  <ele>1583.0</ele>
  <time>2026-08-28T17:50:21Z</time>
  <course>243.25</course>
  <speed>0.0</speed>
  <fix>3d</fix>
</trkpt>
<trkpt lat="40.0713749" lon="-105.229789">
  <ele>1583.0</ele>
  <time>2026-08-28T17:50:21Z</time>
  <course>0.0</course>
  <speed>0.0</speed>
  <fix>3d</fix>
</trkpt>
<trkpt lat="40.0713749" lon="-105.229789">
  <ele>1583.0</ele>
  <time>2026-08-28T17:50:21Z</time>
  <course>243.47</course>
  <speed>0.0</speed>
  <fix>3d</fix>
</trkpt>
<trkpt lat="40.0713749" lon="-105.229789">
  <ele>1583.0</ele>
  <time>2026-08-28T17:50:21Z</time>
  <course>0.0</course>
  <speed>0.0</speed>
  <fix>3d</fix>
</trkpt>
<trkpt lat="40.0713749" lon="-105.229789">
  <ele>1583.0</ele>
  <time>2026-08-28T17:50:21Z</time>
  <course>243.68</course>
  <speed>0.0</speed>
  <fix>3d</fix>
</trkpt>
<trkpt lat="40.0713749" lon="-105.229789">
  <ele>1583.0</ele>
  <time>2026-08-28T17:50:21Z</time>
  <course>0.0</course>
  <speed>0.0</speed>
  <fix>3d</fix>
</trkpt>
<trkpt lat="40.0713749" lon="-105.229789">
  <ele>1583.0</ele>
  <time>2026-08-28T17:50:21Z</time>
  <course>243.89</course>
  <speed>0.0</speed>
  <fix>3d</fix>
</trkpt>
<trkpt lat="40.0713749" lon="-105.229789">
  <ele>1583.0</ele>
  <time>2026-08-28T17:50:21Z</time>
  <course>0.0</course>
  <speed>0.0</speed>
  <fix>3d</fix>
</trkpt>
<trkpt lat="40.0713749" lon="-105.229789">
  <ele>1583.0</ele>
  <time>2026-08-28T17:50:21Z</time>
  <course>244.09</course>
  <speed>0.0</speed>
  <fix>3d</fix>
</trkpt>
<trkpt lat="40.0713749" lon="-105.229789">
  <ele>1583.0</ele>
  <time>2026-08-28T17:50:21Z</time>
  <course>0.0</course>
  <speed>0.0</speed>
  <fix>3d</fix>
</trkpt>
<trkpt lat="40.0713749" lon="-105.229789">
  <ele>1583.0</ele>
  <time>2026-08-28T17:50:21Z</time>
  <course>244.28</course>
  <speed>0.0</speed>
  <fix>3d</fix>
</trkpt>
<trkpt lat="40.0713749" lon="-105.229789">
  <ele>1583.0</ele>
  <time>2026-08-28T17:50:21Z</time>
  <course>0.0</course>
  <speed>0.0</speed>
  <fix>3d</fix>
</trkpt>
<trkpt lat="40.0713749" lon="-105.229789">
  <ele>1583.0</ele>
  <time>2026-08-28T17:50:21Z</time>
  <course>244.46</course>
  <speed>0.0</speed>
  <fix>3d</fix>
</trkpt>
<trkpt lat="40.0713749" lon="-105.229789">
  <ele>1583.0</ele>
  <time>2026-08-28T17:50:21Z</time>
  <course>0.0</course>
  <speed>0.0</speed>
  <fix>3d</fix>
</trkpt>
<trkpt lat="40.0713749" lon="-105.229789">
  <ele>1583.0</ele>
  <time>2026-08-28T17:50:21Z</time>
  <course>244.64</course>
  <speed>0.0</speed>
  <fix>3d</fix>
</trkpt>
<trkpt lat="40.0713749" lon="-105.229789">
  <ele>1583.0</ele>
  <time>2026-08-28T17:50:21Z</time>
  <course>0.0</course>
  <speed>0.0</speed>
  <fix>3d</fix>
</trkpt>
<trkpt lat="40.0713749" lon="-105.229789">
  <ele>1583.0</ele>
  <time>2026-08-28T17:50:21Z</time>
  <course>244.81</course>
  <speed>0.0</speed>
  <fix>3d</fix>
</trkpt>
<trkpt lat="40.0713749" lon="-105.229789">
  <ele>1583.0</ele>
  <time>2026-08-28T17:50:21Z</time>
  <course>0.0</course>
  <speed>0.0</speed>
  <fix>3d</fix>
</trkpt>
<trkpt lat="40.0713749" lon="-105.229789">
  <ele>1583.0</ele>
  <time>2026-08-28T17:50:21Z</time>
  <course>244.97</course>
  <speed>0.0</speed>
  <fix>3d</fix>
</trkpt>
<trkpt lat="40.0713749" lon="-105.229789">
  <ele>1583.0</ele>
  <time>2026-08-28T17:50:21Z</time>
  <course>0.0</course>
  <speed>0.0</speed>
  <fix>3d</fix>
</trkpt>
<trkpt lat="40.0713749" lon="-105.229789">
  <ele>1583.0</ele>
  <time>2026-08-28T17:50:21Z</time>
  <course>245.13</course>
  <speed>0.0</speed>
  <fix>3d</fix>
</trkpt>
<trkpt lat="40.0713749" lon="-105.229789">
  <ele>1583.0</ele>
  <time>2026-08-28T17:50:21Z</time>
  <course>0.0</course>
  <speed>0.0</speed>
  <fix>3d</fix>
</trkpt>
<trkpt lat="40.0713749" lon="-105.229789">
  <ele>1583.0</ele>
  <time>2026-08-28T17:50:21Z</time>
  <course>245.29</course>
  <speed>0.0</speed>
  <fix>3d</fix>
</trkpt>
<trkpt lat="40.0713749" lon="-105.229789">
  <ele>1583.0</ele>
  <time>2026-08-28T17:50:21Z</time>
  <course>0.0</course>
  <speed>0.0</speed>
  <fix>3d</fix>
</trkpt>
<trkpt lat="40.0713749" lon="-105.229789">
  <ele>1583.0</ele>
  <time>2026-08-28T17:50:21Z</time>
  <course>245.43</course>
  <speed>0.0</speed>
  <fix>3d</fix>
</trkpt>
<trkpt lat="40.0713749" lon="-105.229789">
  <ele>1583.0</ele>
  <time>2026-08-28T17:50:21Z</time>
  <course>0.0</course>
  <speed>0.0</speed>
  <fix>3d</fix>
</trkpt>
<trkpt lat="40.0713749" lon="-105.229789">
  <ele>1583.0</ele>
  <time>2026-08-28T17:50:21Z</time>
  <course>245.57</course>
  <speed>0.0</speed>
  <fix>3d</fix>
</trkpt>
<trkpt lat="40.0713749" lon="-105.229789">
  <ele>1583.0</ele>
  <time>2026-08-28T17:50:21Z</time>
  <course>0.0</course>
  <speed>0.0</speed>
  <fix>3d</fix>
</trkpt>
<trkpt lat="40.0713749" lon="-105.229789">
  <ele>1583.0</ele>
  <time>2026-08-28T17:50:21Z</time>
  <course>245.71</course>
  <speed>0.0</speed>
  <fix>3d</fix>
</trkpt>
<trkpt lat="40.0713749" lon="-105.229789">
  <ele>1583.0</ele>
  <time>2026-08-28T17:50:21Z</time>
  <course>0.0</course>
  <speed>0.0</speed>
  <fix>3d</fix>
</trkpt>
<trkpt lat="40.0713749" lon="-105.229789">
  <ele>1583.0</ele>
  <time>2026-08-28T17:50:21Z</time>
  <course>245.84</course>
  <speed>0.0</speed>
  <fix>3d</fix>
</trkpt>
<trkpt lat="40.0713749" lon="-105.229789">
  <ele>1583.0</ele>
  <time>2026-08-28T17:50:21Z</time>
  <course>0.0</course>
  <speed>0.0</speed>
  <fix>3d</fix>
</trkpt>
<trkpt lat="40.0713749" lon="-105.229789">
  <ele>1583.0</ele>
  <time>2026-08-28T17:50:21Z</time>
  <course>245.96</course>
  <speed>0.0</speed>
  <fix>3d</fix>
</trkpt>
<trkpt lat="40.0713749" lon="-105.229789">
  <ele>1583.0</ele>
  <time>2026-08-28T17:50:21Z</time>
  <course>0.0</course>
  <speed>0.0</speed>
  <fix>3d</fix>
</trkpt>
<trkpt lat="40.0713749" lon="-105.229789">
  <ele>1583.0</ele>
  <time>2026-08-28T17:50:21Z</time>
  <course>246.08</course>
  <speed>0.0</speed>
  <fix>3d</fix>
</trkpt>
<trkpt lat="40.0713749" lon="-105.229789">
  <ele>1583.0</ele>
  <time>2026-08-28T17:50:21Z</time>
  <course>0.0</course>
  <speed>0.0</speed>
  <fix>3d</fix>
</trkpt>
<trkpt lat="40.0713749" lon="-105.229789">
  <ele>1583.0</ele>
  <time>2026-08-28T17:50:21Z</time>
  <course>246.19</course>
  <speed>0.0</speed>
  <fix>3d</fix>
</trkpt>
<trkpt lat="40.0713749" lon="-105.229789">
  <ele>1583.0</ele>
  <time>2026-08-28T17:50:21Z</time>
  <course>0.0</course>
  <speed>0.0</speed>
  <fix>3d</fix>
</trkpt>
<trkpt lat="40.0713749" lon="-105.229789">
  <ele>1583.0</ele>
  <time>2026-08-28T17:50:21Z</time>
  <course>246.3</course>
  <speed>0.0</speed>
  <fix>3d</fix>
</trkpt>
<trkpt lat="40.0713749" lon="-105.229789">
  <ele>1583.0</ele>
  <time>2026-08-28T17:50:21Z</time>
  <course>0.0</course>
  <speed>0.0</speed>
  <fix>3d</fix>
</trkpt>
<trkpt lat="40.0713749" lon="-105.229789">
  <ele>1583.0</ele>
  <time>2026-08-28T17:50:21Z</time>
  <course>246.41</course>
  <speed>0.0</speed>
  <fix>3d</fix>
</trkpt>
<trkpt lat="40.0713749" lon="-105.229789">
  <ele>1583.0</ele>
  <time>2026-08-28T17:50:21Z</time>
  <course>0.0</course>
  <speed>0.0</speed>
  <fix>3d</fix>
</trkpt>
<trkpt lat="40.0713749" lon="-105.229789">
  <ele>1583.0</ele>
  <time>2026-08-28T17:50:21Z</time>
  <course>246.51</course>
  <speed>0.0</speed>
  <fix>3d</fix>
</trkpt>
<trkpt lat="40.0713749" lon="-105.229789">
  <ele>1583.0</ele>
  <time>2026-08-28T17:50:21Z</time>
  <course>0.0</course>
  <speed>0.0</speed>
  <fix>3d</fix>
</trkpt>
<trkpt lat="40.0713749" lon="-105.229789">
  <ele>1583.0</ele>
  <time>2026-08-28T17:50:21Z</time>
  <course>246.6</course>
  <speed>0.0</speed>
  <fix>3d</fix>
</trkpt>
<trkpt lat="40.0713749" lon="-105.229789">
  <ele>1583.0</ele>
  <time>2026-08-28T17:50:21Z</time>
  <course>0.0</course>
  <speed>0.0</speed>
  <fix>3d</fix>
</trkpt>
<trkpt lat="40.0713749" lon="-105.229789">
  <ele>1583.0</ele>
  <time>2026-08-28T17:50:21Z</time>
  <course>246.7</course>
  <speed>0.0</speed>
  <fix>3d</fix>
</trkpt>
<trkpt lat="40.0713749" lon="-105.229789">
  <ele>1583.0</ele>
  <time>2026-08-28T17:50:21Z</time>
  <course>0.0</course>
  <speed>0.0</speed>
  <fix>3d</fix>
</trkpt>
<trkpt lat="40.0713749" lon="-105.229789">
  <ele>1583.0</ele>
  <time>2026-08-28T17:50:21Z</time>
  <course>246.78</course>
  <speed>0.0</speed>
  <fix>3d</fix>
</trkpt>
<trkpt lat="40.0713749" lon="-105.229789">
  <ele>1583.0</ele>
  <time>2026-08-28T17:50:21Z</time>
  <course>0.0</course>
  <speed>0.0</speed>
  <fix>3d</fix>
</trkpt>
<trkpt lat="40.0713749" lon="-105.229789">
  <ele>1583.0</ele>
  <time>2026-08-28T17:50:21Z</time>
  <course>246.87</course>
  <speed>0.0</speed>
  <fix>3d</fix>
</trkpt>
<trkpt lat="40.0713749" lon="-105.229789">
  <ele>1583.0</ele>
  <time>2026-08-28T17:50:21Z</time>
  <course>0.0</course>
  <speed>0.0</speed>
  <fix>3d</fix>
</trkpt>
<trkpt lat="40.0713749" lon="-105.229789">
  <ele>1583.0</ele>
  <time>2026-08-28T17:50:21Z</time>
  <course>246.95</course>
  <speed>0.0</speed>
  <fix>3d</fix>
</trkpt>
<trkpt lat="40.0713749" lon="-105.229789">
  <ele>1583.0</ele>
  <time>2026-08-28T17:50:21Z</time>
  <course>0.0</course>
  <speed>0.0</speed>
  <fix>3d</fix>
</trkpt>
<trkpt lat="40.0713749" lon="-105.229789">
  <ele>1583.0</ele>
  <time>2026-08-28T17:50:21Z</time>
  <course>247.02</course>
  <speed>0.0</speed>
  <fix>3d</fix>
</trkpt>
<trkpt lat="40.0713749" lon="-105.229789">
  <ele>1583.0</ele>
  <time>2026-08-28T17:50:21Z</time>
  <course>0.0</course>
  <speed>0.0</speed>
  <fix>3d</fix>
</trkpt>
<trkpt lat="40.0713749" lon="-105.229789">
  <ele>1583.0</ele>
  <time>2026-08-28T17:50:21Z</time>
  <course>247.1</course>
  <speed>0.0</speed>
  <fix>3d</fix>
</trkpt>
<trkpt lat="40.0713749" lon="-105.229789">
  <ele>1583.0</ele>
  <time>2026-08-28T17:50:21Z</time>
  <course>0.0</course>
  <speed>0.0</speed>
  <fix>3d</fix>
</trkpt>
<trkpt lat="40.0713749" lon="-105.229789">
  <ele>1583.0</ele>
  <time>2026-08-28T17:50:21Z</time>
  <course>247.17</course>
  <speed>0.0</speed>
  <fix>3d</fix>
</trkpt>
<trkpt lat="40.0713749" lon="-105.229789">
  <ele>1583.0</ele>
  <time>2026-08-28T17:50:21Z</time>
  <course>0.0</course>
  <speed>0.0</speed>
  <fix>3d</fix>
</trkpt>
<trkpt lat="40.0713749" lon="-105.229789">
  <ele>1583.0</ele>
  <time>2026-08-28T17:50:21Z</time>
  <course>247.24</course>
  <speed>0.0</speed>
  <fix>3d</fix>
</trkpt>
<trkpt lat="40.0713749" lon="-105.229789">
  <ele>1583.0</ele>
  <time>2026-08-28T17:50:21Z</time>
  <course>0.0</course>
  <speed>0.0</speed>
  <fix>3d</fix>
</trkpt>
<trkpt lat="40.0713749" lon="-105.229789">
  <ele>1583.0</ele>
  <time>2026-08-28T17:50:21Z</time>
  <course>247.3</course>
  <speed>0.0</speed>
  <fix>3d</fix>
</trkpt>
<trkpt lat="40.0713749" lon="-105.229789">
  <ele>1583.0</ele>
  <time>2026-08-28T17:50:21Z</time>
  <course>0.0</course>
  <speed>0.0</speed>
  <fix>3d</fix>
</trkpt>
<trkpt lat="40.0713749" lon="-105.229789">
  <ele>1583.0</ele>
  <time>2026-08-28T17:50:21Z</time>
  <course>247.36</course>
  <speed>0.0</speed>
  <fix>3d</fix>
</trkpt>
<trkpt lat="40.0713749" lon="-105.229789">
  <ele>1583.0</ele>
  <time>2026-08-28T17:50:21Z</time>
  <course>0.0</course>
  <speed>0.0</speed>
  <fix>3d</fix>
</trkpt>
<trkpt lat="40.0713749" lon="-105.229789">
  <ele>1583.0</ele>
  <time>2026-08-28T17:50:21Z</time>
  <course>247.42</course>
  <speed>0.0</speed>
  <fix>3d</fix>
</trkpt>
<trkpt lat="40.0713749" lon="-105.229789">
  <ele>1583.0</ele>
  <time>2026-08-28T17:50:21Z</time>
  <course>0.0</course>
  <speed>0.0</speed>
  <fix>3d</fix>
</trkpt>
<trkpt lat="40.0713749" lon="-105.229789">
  <ele>1583.0</ele>
  <time>2026-08-28T17:50:21Z</time>
  <course>247.47</course>
  <speed>0.0</speed>
  <fix>3d</fix>
</trkpt>
<trkpt lat="40.0713749" lon="-105.229789">
  <ele>1583.0</ele>
  <time>2026-08-28T17:50:21Z</time>
  <course>0.0</course>
  <speed>0.0</speed>
  <fix>3d</fix>
</trkpt>
<trkpt lat="40.0713749" lon="-105.229789">
  <ele>1583.0</ele>
  <time>2026-08-28T17:50:21Z</time>
  <course>247.53</course>
  <speed>0.0</speed>
  <fix>3d</fix>
</trkpt>
<trkpt lat="40.0713749" lon="-105.229789">
  <ele>1583.0</ele>
  <time>2026-08-28T17:50:21Z</time>
  <course>0.0</course>
  <speed>0.0</speed>
  <fix>3d</fix>
</trkpt>
<trkpt lat="40.0713749" lon="-105.229789">
  <ele>1583.0</ele>
  <time>2026-08-28T17:50:21Z</time>
  <course>247.58</course>
  <speed>0.0</speed>
  <fix>3d</fix>
</trkpt>
<trkpt lat="40.0713749" lon="-105.229789">
  <ele>1583.0</ele>
  <time>2026-08-28T17:50:21Z</time>
  <course>0.0</course>
  <speed>0.0</speed>
  <fix>3d</fix>
</trkpt>
<trkpt lat="40.0713749" lon="-105.229789">
  <ele>1583.0</ele>
  <time>2026-08-28T17:50:21Z</time>
  <course>247.63</course>
  <speed>0.0</speed>
  <fix>3d</fix>
</trkpt>
<trkpt lat="40.0713749" lon="-105.229789">
  <ele>1583.0</ele>
  <time>2026-08-28T17:50:21Z</time>
  <course>0.0</course>
  <speed>0.0</speed>
  <fix>3d</fix>
</trkpt>
<trkpt lat="40.0713749" lon="-105.229789">
  <ele>1583.0</ele>
  <time>2026-08-28T17:50:21Z</time>
  <course>247.67</course>
  <speed>0.0</speed>
  <fix>3d</fix>
</trkpt>
<trkpt lat="40.0713749" lon="-105.229789">
  <ele>1583.0</ele>
  <time>2026-08-28T17:50:21Z</time>
  <course>0.0</course>
  <speed>0.0</speed>
  <fix>3d</fix>
</trkpt>
<trkpt lat="40.0713749" lon="-105.229789">
  <ele>1583.0</ele>
  <time>2026-08-28T17:50:21Z</time>
  <course>247.72</course>
  <speed>0.0</speed>
  <fix>3d</fix>
</trkpt>
<trkpt lat="40.0713749" lon="-105.229789">
  <ele>1583.0</ele>
  <time>2026-08-28T17:50:21Z</time>
  <course>0.0</course>
  <speed>0.0</speed>
  <fix>3d</fix>
</trkpt>
<trkpt lat="40.0713749" lon="-105.229789">
  <ele>1583.0</ele>
  <time>2026-08-28T17:50:21Z</time>
  <course>247.76</course>
  <speed>0.0</speed>
  <fix>3d</fix>
</trkpt>
<trkpt lat="40.0713749" lon="-105.229789">
  <ele>1583.0</ele>
  <time>2026-08-28T17:50:21Z</time>
  <course>0.0</course>
  <speed>0.0</speed>
  <fix>3d</fix>
</trkpt>
<trkpt lat="40.0713749" lon="-105.229789">
  <ele>1583.0</ele>
  <time>2026-08-28T17:50:21Z</time>
  <course>247.8</course>
  <speed>0.0</speed>
  <fix>3d</fix>
</trkpt>
<trkpt lat="40.0713749" lon="-105.229789">
  <ele>1583.0</ele>
  <time>2026-08-28T17:50:21Z</time>
  <course>0.0</course>
  <speed>0.0</speed>
  <fix>3d</fix>
</trkpt>
<trkpt lat="40.0713749" lon="-105.229789">
  <ele>1583.0</ele>
  <time>2026-08-28T17:50:21Z</time>
  <course>247.83</course>
  <speed>0.0</speed>
  <fix>3d</fix>
</trkpt>
<trkpt lat="40.0713749" lon="-105.229789">
  <ele>1583.0</ele>
  <time>2026-08-28T17:50:21Z</time>
  <course>0.0</course>
  <speed>0.0</speed>
  <fix>3d</fix>
</trkpt>
<trkpt lat="40.0713749" lon="-105.229789">
  <ele>1583.0</ele>
  <time>2026-08-28T17:50:21Z</time>
  <course>247.87</course>
  <speed>0.0</speed>
  <fix>3d</fix>
</trkpt>
<trkpt lat="40.0713749" lon="-105.229789">
  <ele>1583.0</ele>
  <time>2026-08-28T17:50:21Z</time>
  <course>0.0</course>
  <speed>0.0</speed>
  <fix>3d</fix>
</trkpt>
<trkpt lat="40.0713749" lon="-105.229789">
  <ele>1583.0</ele>
  <time>2026-08-28T17:50:21Z</time>
  <course>247.9</course>
  <speed>0.0</speed>
  <fix>3d</fix>
</trkpt>
<trkpt lat="40.0713749" lon="-105.229789">
  <ele>1583.0</ele>
  <time>2026-08-28T17:50:21Z</time>
  <course>0.0</course>
  <speed>0.0</speed>
  <fix>3d</fix>
</trkpt>
<trkpt lat="40.0713749" lon="-105.229789">
  <ele>1583.0</ele>
  <time>2026-08-28T17:50:21Z</time>
  <course>247.94</course>
  <speed>0.0</speed>
  <fix>3d</fix>
</trkpt>
<trkpt lat="40.0713749" lon="-105.229789">
  <ele>1583.0</ele>
  <time>2026-08-28T17:50:21Z</time>
  <course>0.0</course>
  <speed>0.0</speed>
  <fix>3d</fix>
</trkpt>
<trkpt lat="40.0713749" lon="-105.229789">
  <ele>1583.0</ele>
  <time>2026-08-28T17:50:21Z</time>
  <course>247.97</course>
  <speed>0.0</speed>
  <fix>3d</fix>
</trkpt>
<trkpt lat="40.0713749" lon="-105.229789">
  <ele>1583.0</ele>
  <time>2026-08-28T17:50:21Z</time>
  <course>0.0</course>
  <speed>0.0</speed>
  <fix>3d</fix>
</trkpt>
<trkpt lat="40.0713749" lon="-105.229789">
  <ele>1583.0</ele>
  <time>2026-08-28T17:50:21Z</time>
  <course>248.0</course>
  <speed>0.0</speed>
  <fix>3d</fix>
</trkpt>
<trkpt lat="40.0713749" lon="-105.229789">
  <ele>1583.0</ele>
  <time>2026-08-28T17:50:21Z</time>
  <course>0.0</course>
  <speed>0.0</speed>
  <fix>3d</fix>
</trkpt>
<trkpt lat="40.0713749" lon="-105.229789">
  <ele>1583.0</ele>
  <time>2026-08-28T17:50:21Z</time>
  <course>248.02</course>
  <speed>0.0</speed>
  <fix>3d</fix>
</trkpt>
<trkpt lat="40.0713749" lon="-105.229789">
  <ele>1583.0</ele>
  <time>2026-08-28T17:50:21Z</time>
  <course>0.0</course>
  <speed>0.0</speed>
  <fix>3d</fix>
</trkpt>
<trkpt lat="40.0713749" lon="-105.229789">
  <ele>1583.0</ele>
  <time>2026-08-28T17:50:21Z</time>
  <course>248.05</course>
  <speed>0.0</speed>
  <fix>3d</fix>
</trkpt>
<trkpt lat="40.0713749" lon="-105.229789">
  <ele>1583.0</ele>
  <time>2026-08-28T17:50:21Z</time>
  <course>0.0</course>
  <speed>0.0</speed>
  <fix>3d</fix>
</trkpt>
<trkpt lat="40.0713749" lon="-105.229789">
  <ele>1583.0</ele>
  <time>2026-08-28T17:50:21Z</time>
  <course>248.08</course>
  <speed>0.0</speed>
  <fix>3d</fix>
</trkpt>
<trkpt lat="40.0713749" lon="-105.229789">
  <ele>1583.0</ele>
  <time>2026-08-28T17:50:21Z</time>
  <course>0.0</course>
  <speed>0.0</speed>
  <fix>3d</fix>
</trkpt>
<trkpt lat="40.0713749" lon="-105.229789">
  <ele>1583.0</ele>
  <time>2026-08-28T17:50:21Z</time>
  <course>248.1</course>
  <speed>0.0</speed>
  <fix>3d</fix>
</trkpt>
<trkpt lat="40.0713749" lon="-105.229789">
  <ele>1583.0</ele>
  <time>2026-08-28T17:50:21Z</time>
  <course>0.0</course>
  <speed>0.0</speed>
  <fix>3d</fix>
</trkpt>
<trkpt lat="40.0713749" lon="-105.229789">
  <ele>1583.0</ele>
  <time>2026-08-28T17:50:21Z</time>
  <course>248.12</course>
  <speed>0.0</speed>
  <fix>3d</fix>
</trkpt>
<trkpt lat="40.0713749" lon="-105.229789">
  <ele>1583.0</ele>
  <time>2026-08-28T17:50:21Z</time>
  <course>0.0</course>
  <speed>0.0</speed>
  <fix>3d</fix>
</trkpt>
<trkpt lat="40.0713749" lon="-105.229789">
  <ele>1583.0</ele>
  <time>2026-08-28T17:50:21Z</time>
  <course>248.14</course>
  <speed>0.0</speed>
  <fix>3d</fix>
</trkpt>
<trkpt lat="40.0713749" lon="-105.229789">
  <ele>1583.0</ele>
  <time>2026-08-28T17:50:21Z</time>
  <course>0.0</course>
  <speed>0.0</speed>
  <fix>3d</fix>
</trkpt>
<trkpt lat="40.0713749" lon="-105.229789">
  <ele>1583.0</ele>
  <time>2026-08-28T17:50:21Z</time>
  <course>248.16</course>
  <speed>0.0</speed>
  <fix>3d</fix>
</trkpt>
<trkpt lat="40.0713749" lon="-105.229789">
  <ele>1583.0</ele>
  <time>2026-08-28T17:50:21Z</time>
  <course>0.0</course>
  <speed>0.0</speed>
  <fix>3d</fix>
</trkpt>
<trkpt lat="40.0713749" lon="-105.229789">
  <ele>1583.0</ele>
  <time>2026-08-28T17:50:21Z</time>
  <course>248.18</course>
  <speed>0.0</speed>
  <fix>3d</fix>
</trkpt>
<trkpt lat="40.0713749" lon="-105.229789">
  <ele>1583.0</ele>
  <time>2026-08-28T17:50:21Z</time>
  <course>0.0</course>
  <speed>0.0</speed>
  <fix>3d</fix>
</trkpt>
<trkpt lat="40.0713749" lon="-105.229789">
  <ele>1583.0</ele>
  <time>2026-08-28T17:50:21Z</time>
  <course>248.2</course>
  <speed>0.0</speed>
  <fix>3d</fix>
</trkpt>
<trkpt lat="40.0713749" lon="-105.229789">
  <ele>1583.0</ele>
  <time>2026-08-28T17:50:21Z</time>
  <course>0.0</course>
  <speed>0.0</speed>
  <fix>3d</fix>
</trkpt>
<trkpt lat="40.0713749" lon="-105.229789">
  <ele>1583.0</ele>
  <time>2026-08-28T17:50:21Z</time>
  <course>248.22</course>
  <speed>0.0</speed>
  <fix>3d</fix>
</trkpt>
<trkpt lat="40.0713749" lon="-105.229789">
  <ele>1583.0</ele>
  <time>2026-08-28T17:50:21Z</time>
  <course>0.0</course>
  <speed>0.0</speed>
  <fix>3d</fix>
</trkpt>
<trkpt lat="40.0713749" lon="-105.229789">
  <ele>1583.0</ele>
  <time>2026-08-28T17:50:21Z</time>
  <course>248.23</course>
  <speed>0.0</speed>
  <fix>3d</fix>
</trkpt>
<trkpt lat="40.0713749" lon="-105.229789">
  <ele>1583.0</ele>
  <time>2026-08-28T17:50:21Z</time>
  <course>0.0</course>
  <speed>0.0</speed>
  <fix>3d</fix>
</trkpt>
<trkpt lat="40.0713749" lon="-105.229789">
  <ele>1583.0</ele>
  <time>2026-08-28T17:50:21Z</time>
  <course>248.25</course>
  <speed>0.0</speed>
  <fix>3d</fix>
</trkpt>
<trkpt lat="40.0713749" lon="-105.229789">
  <ele>1583.0</ele>
  <time>2026-08-28T17:50:21Z</time>
  <course>0.0</course>
  <speed>0.0</speed>
  <fix>3d</fix>
</trkpt>
<trkpt lat="40.0713749" lon="-105.229789">
  <ele>1583.0</ele>
  <time>2026-08-28T17:50:21Z</time>
  <course>248.26</course>
  <speed>0.0</speed>
  <fix>3d</fix>
</trkpt>
<trkpt lat="40.0713749" lon="-105.229789">
  <ele>1583.0</ele>
  <time>2026-08-28T17:50:21Z</time>
  <course>0.0</course>
  <speed>0.0</speed>
  <fix>3d</fix>
</trkpt>
<trkpt lat="40.0713749" lon="-105.229789">
  <ele>1583.0</ele>
  <time>2026-08-28T17:50:21Z</time>
  <course>248.28</course>
  <speed>0.0</speed>
  <fix>3d</fix>
</trkpt>
<trkpt lat="40.0713749" lon="-105.229789">
  <ele>1583.0</ele>
  <time>2026-08-28T17:50:21Z</time>
  <course>0.0</course>
  <speed>0.0</speed>
  <fix>3d</fix>
</trkpt>
<trkpt lat="40.0713749" lon="-105.229789">
  <ele>1583.0</ele>
  <time>2026-08-28T17:50:21Z</time>
  <course>248.29</course>
  <speed>0.0</speed>
  <fix>3d</fix>
</trkpt>
<trkpt lat="40.0713749" lon="-105.229789">
  <ele>1583.0</ele>
  <time>2026-08-28T17:50:21Z</time>
  <course>0.0</course>
  <speed>0.0</speed>
  <fix>3d</fix>
</trkpt>
<trkpt lat="40.0713749" lon="-105.229789">
  <ele>1583.0</ele>
  <time>2026-08-28T17:50:21Z</time>
  <course>248.3</course>
  <speed>0.0</speed>
  <fix>3d</fix>
</trkpt>
<trkpt lat="40.0713749" lon="-105.229789">
  <ele>1583.0</ele>
  <time>2026-08-28T17:50:21Z</time>
  <course>0.0</course>
  <speed>0.0</speed>
  <fix>3d</fix>
</trkpt>
<trkpt lat="40.0713749" lon="-105.229789">
  <ele>1583.0</ele>
  <time>2026-08-28T17:50:21Z</time>
  <course>248.31</course>
  <speed>0.0</speed>
  <fix>3d</fix>
</trkpt>
<trkpt lat="40.0713749" lon="-105.229789">
  <ele>1583.0</ele>
  <time>2026-08-28T17:50:21Z</time>
  <course>0.0</course>
  <speed>0.0</speed>
  <fix>3d</fix>
</trkpt>
<trkpt lat="40.0713749" lon="-105.229789">
  <ele>1583.0</ele>
  <time>2026-08-28T17:50:21Z</time>
  <course>248.32</course>
  <speed>0.0</speed>
  <fix>3d</fix>
</trkpt>
<trkpt lat="40.0713749" lon="-105.229789">
  <ele>1583.0</ele>
  <time>2026-08-28T17:50:21Z</time>
  <course>0.0</course>
  <speed>0.0</speed>
  <fix>3d</fix>
</trkpt>
<trkpt lat="40.0713749" lon="-105.229789">
  <ele>1583.0</ele>
  <time>2026-08-28T17:50:21Z</time>
  <course>248.33</course>
  <speed>0.0</speed>
  <fix>3d</fix>
</trkpt>
<trkpt lat="40.0713749" lon="-105.229789">
  <ele>1583.0</ele>
  <time>2026-08-28T17:50:21Z</time>
  <course>0.0</course>
  <speed>0.0</speed>
  <fix>3d</fix>
</trkpt>
<trkpt lat="40.0713749" lon="-105.229789">
  <ele>1583.0</ele>
  <time>2026-08-28T17:50:21Z</time>
  <course>248.34</course>
  <speed>0.0</speed>
  <fix>3d</fix>
</trkpt>
<trkpt lat="40.0713749" lon="-105.229789">
  <ele>1583.0</ele>
  <time>2026-08-28T17:50:21Z</time>
  <course>0.0</course>
  <speed>0.0</speed>
  <fix>3d</fix>
</trkpt>
<trkpt lat="40.0713749" lon="-105.229789">
  <ele>1583.0</ele>
  <time>2026-08-28T17:50:21Z</time>
  <course>248.35</course>
  <speed>0.0</speed>
  <fix>3d</fix>
</trkpt>
<trkpt lat="40.0713749" lon="-105.229789">
  <ele>1583.0</ele>
  <time>2026-08-28T17:50:21Z</time>
  <course>0.0</course>
  <speed>0.0</speed>
  <fix>3d</fix>
</trkpt>
<trkpt lat="40.0713749" lon="-105.229789">
  <ele>1583.0</ele>
  <time>2026-08-28T17:50:21Z</time>
  <course>248.35</course>
  <speed>0.0</speed>
  <fix>3d</fix>
</trkpt>
<trkpt lat="40.0713749" lon="-105.229789">
  <ele>1583.0</ele>
  <time>2026-08-28T17:50:21Z</time>
  <course>0.0</course>
  <speed>0.0</speed>
  <fix>3d</fix>
</trkpt>
<trkpt lat="40.0713749" lon="-105.229789">
  <ele>1583.0</ele>
  <time>2026-08-28T17:50:21Z</time>
  <course>248.36</course>
  <speed>0.0</speed>
  <fix>3d</fix>
</trkpt>
<trkpt lat="40.0713749" lon="-105.229789">
  <ele>1583.0</ele>
  <time>2026-08-28T17:50:21Z</time>
  <course>0.0</course>
  <speed>0.0</speed>
  <fix>3d</fix>
</trkpt>
<trkpt lat="40.0713749" lon="-105.229789">
  <ele>1583.0</ele>
  <time>2026-08-28T17:50:21Z</time>
  <course>248.37</course>
  <speed>0.0</speed>
  <fix>3d</fix>
</trkpt>
<trkpt lat="40.0713749" lon="-105.229789">
  <ele>1583.0</ele>
  <time>2026-08-28T17:50:21Z</time>
  <course>0.0</course>
  <speed>0.0</speed>
  <fix>3d</fix>
</trkpt>
<trkpt lat="40.0713749" lon="-105.229789">
  <ele>1583.0</ele>
  <time>2026-08-28T17:50:21Z</time>
  <course>248.37</course>
  <speed>0.0</speed>
  <fix>3d</fix>
</trkpt>
<trkpt lat="40.0713749" lon="-105.229789">
  <ele>1583.0</ele>
  <time>2026-08-28T17:50:21Z</time>
  <course>0.0</course>
  <speed>0.0</speed>
  <fix>3d</fix>
</trkpt>
<trkpt lat="40.0713749" lon="-105.229789">
  <ele>1583.0</ele>
  <time>2026-08-28T17:50:21Z</time>
  <course>248.38</course>
  <speed>0.0</speed>
  <fix>3d</fix>
</trkpt>
<trkpt lat="40.0713749" lon="-105.229789">
  <ele>1583.0</ele>
  <time>2026-08-28T17:50:21Z</time>
  <course>0.0</course>
  <speed>0.0</speed>
  <fix>3d</fix>
</trkpt>
<trkpt lat="40.0713749" lon="-105.229789">
  <ele>1583.0</ele>
  <time>2026-08-28T17:50:21Z</time>
  <course>248.38</course>
  <speed>0.0</speed>
  <fix>3d</fix>
</trkpt>
<trkpt lat="40.0713749" lon="-105.229789">
  <ele>1583.0</ele>
  <time>2026-08-28T17:50:21Z</time>
  <course>0.0</course>
  <speed>0.0</speed>
  <fix>3d</fix>
</trkpt>
<trkpt lat="40.0713749" lon="-105.229789">
  <ele>1583.0</ele>
  <time>2026-08-28T17:50:21Z</time>
  <course>248.39</course>
  <speed>0.0</speed>
  <fix>3d</fix>
</trkpt>
<trkpt lat="40.0713749" lon="-105.229789">
  <ele>1583.0</ele>
  <time>2026-08-28T17:50:21Z</time>
  <course>0.0</course>
  <speed>0.0</speed>
  <fix>3d</fix>
</trkpt>
<trkpt lat="40.0713749" lon="-105.229789">
  <ele>1583.0</ele>
  <time>2026-08-28T17:50:21Z</time>
  <course>248.39</course>
  <speed>0.0</speed>
  <fix>3d</fix>
</trkpt>
<trkpt lat="40.0713749" lon="-105.229789">
  <ele>1583.0</ele>
  <time>2026-08-28T17:50:21Z</time>
  <course>0.0</course>
  <speed>0.0</speed>
  <fix>3d</fix>
</trkpt>
<trkpt lat="40.0713749" lon="-105.229789">
  <ele>1583.0</ele>
  <time>2026-08-28T17:50:21Z</time>
  <course>248.4</course>
  <speed>0.0</speed>
  <fix>3d</fix>
</trkpt>
<trkpt lat="40.0713749" lon="-105.229789">
  <ele>1583.0</ele>
  <time>2026-08-28T17:50:21Z</time>
  <course>0.0</course>
  <speed>0.0</speed>
  <fix>3d</fix>
</trkpt>
<trkpt lat="40.0713749" lon="-105.229789">
  <ele>1583.0</ele>
  <time>2026-08-28T17:50:21Z</time>
  <course>248.4</course>
  <speed>0.0</speed>
  <fix>3d</fix>
</trkpt>
<trkpt lat="40.0713749" lon="-105.229789">
  <ele>1583.0</ele>
  <time>2026-08-28T17:50:21Z</time>
  <course>0.0</course>
  <speed>0.0</speed>
  <fix>3d</fix>
</trkpt>
<trkpt lat="40.0713749" lon="-105.229789">
  <ele>1583.0</ele>
  <time>2026-08-28T17:50:21Z</time>
  <course>248.4</course>
  <speed>0.0</speed>
  <fix>3d</fix>
</trkpt>
<trkpt lat="40.0713749" lon="-105.229789">
  <ele>1583.0</ele>
  <time>2026-08-28T17:50:21Z</time>
  <course>0.0</course>
  <speed>0.0</speed>
  <fix>3d</fix>
</trkpt>
<trkpt lat="40.0713749" lon="-105.229789">
  <ele>1583.0</ele>
  <time>2026-08-28T17:50:21Z</time>
  <course>248.4</course>
  <speed>0.0</speed>
  <fix>3d</fix>
</trkpt>
<trkpt lat="40.0713749" lon="-105.229789">
  <ele>1583.0</ele>
  <time>2026-08-28T17:50:21Z</time>
  <course>0.0</course>
  <speed>0.0</speed>
  <fix>3d</fix>
</trkpt>
<trkpt lat="40.0713749" lon="-105.229789">
  <ele>1583.0</ele>
  <time>2026-08-28T17:50:21Z</time>
  <course>248.41</course>
  <speed>0.0</speed>
  <fix>3d</fix>
</trkpt>
<trkpt lat="40.0713749" lon="-105.229789">
  <ele>1583.0</ele>
  <time>2026-08-28T17:50:21Z</time>
  <course>0.0</course>
  <speed>0.0</speed>
  <fix>3d</fix>
</trkpt>
<trkpt lat="40.0713749" lon="-105.229789">
  <ele>1583.0</ele>
  <time>2026-08-28T17:50:21Z</time>
  <course>248.41</course>
  <speed>0.0</speed>
  <fix>3d</fix>
</trkpt>
<trkpt lat="40.0713749" lon="-105.229789">
  <ele>1583.0</ele>
  <time>2026-08-28T17:50:21Z</time>
  <course>0.0</course>
  <speed>0.0</speed>
  <fix>3d</fix>
</trkpt>
<trkpt lat="40.0713749" lon="-105.229789">
  <ele>1583.0</ele>
  <time>2026-08-28T17:50:21Z</time>
  <course>248.41</course>
  <speed>0.0</speed>
  <fix>3d</fix>
</trkpt>
<trkpt lat="40.0713749" lon="-105.229789">
  <ele>1583.0</ele>
  <time>2026-08-28T17:50:21Z</time>
  <course>0.0</course>
  <speed>0.0</speed>
  <fix>3d</fix>
</trkpt>
<trkpt lat="40.0713749" lon="-105.229789">
  <ele>1583.0</ele>
  <time>2026-08-28T17:50:21Z</time>
  <course>248.41</course>
  <speed>0.0</speed>
  <fix>3d</fix>
</trkpt>
<trkpt lat="40.0713749" lon="-105.229789">
  <ele>1583.0</ele>
  <time>2026-08-28T17:50:21Z</time>
  <course>0.0</course>
  <speed>0.0</speed>
  <fix>3d</fix>
</trkpt>
<trkpt lat="40.0713749" lon="-105.229789">
  <ele>1583.0</ele>
  <time>2026-08-28T17:50:21Z</time>
  <course>248.41</course>
  <speed>0.0</speed>
  <fix>3d</fix>
</trkpt>
<trkpt lat="40.0713749" lon="-105.229789">
  <ele>1583.0</ele>
  <time>2026-08-28T17:50:21Z</time>
  <course>0.0</course>
  <speed>0.0</speed>
  <fix>3d</fix>
</trkpt>
<trkpt lat="40.0713749" lon="-105.229789">
  <ele>1583.0</ele>
  <time>2026-08-28T17:50:21Z</time>
  <course>248.41</course>
  <speed>0.0</speed>
  <fix>3d</fix>
</trkpt>
<trkpt lat="40.0713749" lon="-105.229789">
  <ele>1583.0</ele>
  <time>2026-08-28T17:50:21Z</time>
  <course>0.0</course>
  <speed>0.0</speed>
  <fix>3d</fix>
</trkpt>
<trkpt lat="40.0713749" lon="-105.229789">
  <ele>1583.0</ele>
  <time>2026-08-28T17:50:21Z</time>
  <course>248.41</course>
  <speed>0.0</speed>
  <fix>3d</fix>
</trkpt>
<trkpt lat="40.0713749" lon="-105.229789">
  <ele>1583.0</ele>
  <time>2026-08-28T17:50:21Z</time>
  <course>0.0</course>
  <speed>0.0</speed>
  <fix>3d</fix>
</trkpt>
<trkpt lat="40.0713749" lon="-105.229789">
  <ele>1583.0</ele>
  <time>2026-08-28T17:50:21Z</time>
  <course>248.41</course>
  <speed>0.0</speed>
  <fix>3d</fix>
</trkpt>
<trkpt lat="40.0713749" lon="-105.229789">
  <ele>1583.0</ele>
  <time>2026-08-28T17:50:21Z</time>
  <course>0.0</course>
  <speed>0.0</speed>
  <fix>3d</fix>
</trkpt>
<trkpt lat="40.0713749" lon="-105.229789">
  <ele>1583.0</ele>
  <time>2026-08-28T17:50:21Z</time>
  <course>248.41</course>
  <speed>0.0</speed>
  <fix>3d</fix>
</trkpt>
<trkpt lat="40.0713749" lon="-105.229789">
  <ele>1583.0</ele>
  <time>2026-08-28T17:50:21Z</time>
  <course>0.0</course>
  <speed>0.0</speed>
  <fix>3d</fix>
</trkpt>
<trkpt lat="40.0713749" lon="-105.229789">
  <ele>1583.0</ele>
  <time>2026-08-28T17:50:21Z</time>
  <course>248.41</course>
  <speed>0.0</speed>
  <fix>3d</fix>
</trkpt>
<trkpt lat="40.0713749" lon="-105.229789">
  <ele>1583.0</ele>
  <time>2026-08-28T17:50:21Z</time>
  <course>0.0</course>
  <speed>0.0</speed>
  <fix>3d</fix>
</trkpt>
<trkpt lat="40.0713749" lon="-105.229789">
  <ele>1583.0</ele>
  <time>2026-08-28T17:50:21Z</time>
  <course>248.41</course>
  <speed>0.0</speed>
  <fix>3d</fix>
</trkpt>
<trkpt lat="40.0713749" lon="-105.229789">
  <ele>1583.0</ele>
  <time>2026-08-28T17:50:21Z</time>
  <course>0.0</course>
  <speed>0.0</speed>
  <fix>3d</fix>
</trkpt>
<trkpt lat="40.0713749" lon="-105.229789">
  <ele>1583.0</ele>
  <time>2026-08-28T17:50:21Z</time>
  <course>248.41</course>
  <speed>0.0</speed>
  <fix>3d</fix>
</trkpt>
<trkpt lat="40.0713749" lon="-105.229789">
  <ele>1583.0</ele>
  <time>2026-08-28T17:50:21Z</time>
  <course>0.0</course>
  <speed>0.0</speed>
  <fix>3d</fix>
</trkpt>
<trkpt lat="40.0713749" lon="-105.229789">
  <ele>1583.0</ele>
  <time>2026-08-28T17:50:21Z</time>
  <course>248.41</course>
  <speed>0.0</speed>
  <fix>3d</fix>
</trkpt>
<trkpt lat="40.0713749" lon="-105.229789">
  <ele>1583.0</ele>
  <time>2026-08-28T17:50:21Z</time>
  <course>0.0</course>
  <speed>0.0</speed>
  <fix>3d</fix>
</trkpt>
<trkpt lat="40.0713749" lon="-105.229789">
  <ele>1583.0</ele>
  <time>2026-08-28T17:50:21Z</time>
  <course>248.41</course>
  <speed>0.0</speed>
  <fix>3d</fix>
</trkpt>
<trkpt lat="40.0713749" lon="-105.229789">
  <ele>1583.0</ele>
  <time>2026-08-28T17:50:21Z</time>
  <course>0.0</course>
  <speed>0.0</speed>
  <fix>3d</fix>
</trkpt>
<trkpt lat="40.0713749" lon="-105.229789">
  <ele>1583.0</ele>
  <time>2026-08-28T17:50:21Z</time>
  <course>248.41</course>
  <speed>0.0</speed>
  <fix>3d</fix>
</trkpt>
<trkpt lat="40.0713749" lon="-105.229789">
  <ele>1583.0</ele>
  <time>2026-08-28T17:50:21Z</time>
  <course>0.0</course>
  <speed>0.0</speed>
  <fix>3d</fix>
</trkpt>
<trkpt lat="40.0713749" lon="-105.229789">
  <ele>1583.0</ele>
  <time>2026-08-28T17:50:21Z</time>
  <course>248.41</course>
  <speed>0.0</speed>
  <fix>3d</fix>
</trkpt>
<trkpt lat="40.0713749" lon="-105.229789">
  <ele>1583.0</ele>
  <time>2026-08-28T17:50:21Z</time>
  <course>0.0</course>
  <speed>0.0</speed>
  <fix>3d</fix>
</trkpt>
<trkpt lat="40.0713749" lon="-105.229789">
  <ele>1583.0</ele>
  <time>2026-08-28T17:50:21Z</time>
  <course>248.4</course>
  <speed>0.0</speed>
  <fix>3d</fix>
</trkpt>
<trkpt lat="40.0713749" lon="-105.229789">
  <ele>1583.0</ele>
  <time>2026-08-28T17:50:21Z</time>
  <course>0.0</course>
  <speed>0.0</speed>
  <fix>3d</fix>
</trkpt>
<trkpt lat="40.0713749" lon="-105.229789">
  <ele>1583.0</ele>
  <time>2026-08-28T17:50:21Z</time>
  <course>248.4</course>
  <speed>0.01</speed>
  <fix>3d</fix>
</trkpt>
<trkpt lat="40.0713749" lon="-105.229789">
  <ele>1583.0</ele>
  <time>2026-08-28T17:50:21Z</time>
  <course>0.0</course>
  <speed>0.0</speed>
  <fix>3d</fix>
</trkpt>
<trkpt lat="40.0713749" lon="-105.229789">
  <ele>1583.0</ele>
  <time>2026-08-28T17:50:21Z</time>
  <course>248.4</course>
  <speed>0.01</speed>
  <fix>3d</fix>
</trkpt>
<trkpt lat="40.0713749" lon="-105.229789">
  <ele>1583.0</ele>
  <time>2026-08-28T17:50:21Z</time>
  <course>0.0</course>
  <speed>0.0</speed>
  <fix>3d</fix>
</trkpt>
<trkpt lat="40.0713749" lon="-105.229789">
  <ele>1583.0</ele>
  <time>2026-08-28T17:50:21Z</time>
  <course>248.4</course>
  <speed>0.01</speed>
  <fix>3d</fix>
</trkpt>
<trkpt lat="40.0713749" lon="-105.229789">
  <ele>1583.0</ele>
  <time>2026-08-28T17:50:21Z</time>
  <course>0.0</course>
  <speed>0.0</speed>
  <fix>3d</fix>
</trkpt>
<trkpt lat="40.0713749" lon="-105.229789">
  <ele>1583.0</ele>
  <time>2026-08-28T17:50:21Z</time>
  <course>248.4</course>
  <speed>0.01</speed>
  <fix>3d</fix>
</trkpt>
<trkpt lat="40.0713749" lon="-105.229789">
  <ele>1583.0</ele>
  <time>2026-08-28T17:50:21Z</time>
  <course>0.0</course>
  <speed>0.0</speed>
  <fix>3d</fix>
</trkpt>
<trkpt lat="40.0713749" lon="-105.229789">
  <ele>1583.0</ele>
  <time>2026-08-28T17:50:21Z</time>
  <course>248.39</course>
  <speed>0.01</speed>
  <fix>3d</fix>
</trkpt>
<trkpt lat="40.0713749" lon="-105.229789">
  <ele>1583.0</ele>
  <time>2026-08-28T17:50:21Z</time>
  <course>0.0</course>
  <speed>0.0</speed>
  <fix>3d</fix>
</trkpt>
<trkpt lat="40.0713749" lon="-105.229789">
  <ele>1583.0</ele>
  <time>2026-08-28T17:50:21Z</time>
  <course>248.39</course>
  <speed>0.01</speed>
  <fix>3d</fix>
</trkpt>
<trkpt lat="40.0713749" lon="-105.229789">
  <ele>1583.0</ele>
  <time>2026-08-28T17:50:21Z</time>
  <course>0.0</course>
  <speed>0.0</speed>
  <fix>3d</fix>
</trkpt>
<trkpt lat="40.0713749" lon="-105.229789">
  <ele>1583.0</ele>
  <time>2026-08-28T17:50:21Z</time>
  <course>248.39</course>
  <speed>0.01</speed>
  <fix>3d</fix>
</trkpt>
<trkpt lat="40.0713749" lon="-105.229789">
  <ele>1583.0</ele>
  <time>2026-08-28T17:50:21Z</time>
  <course>0.0</course>
  <speed>0.0</speed>
  <fix>3d</fix>
</trkpt>
<trkpt lat="40.0713749" lon="-105.229789">
  <ele>1583.0</ele>
  <time>2026-08-28T17:50:21Z</time>
  <course>248.38</course>
  <speed>0.01</speed>
  <fix>3d</fix>
</trkpt>
<trkpt lat="40.0713749" lon="-105.229789">
  <ele>1583.0</ele>
  <time>2026-08-28T17:50:21Z</time>
  <course>0.0</course>
  <speed>0.0</speed>
  <fix>3d</fix>
</trkpt>
<trkpt lat="40.0713749" lon="-105.229789">
  <ele>1583.0</ele>
  <time>2026-08-28T17:50:21Z</time>
  <course>248.38</course>
  <speed>0.01</speed>
  <fix>3d</fix>
</trkpt>
<trkpt lat="40.0713749" lon="-105.229789">
  <ele>1583.0</ele>
  <time>2026-08-28T17:50:21Z</time>
  <course>0.0</course>
  <speed>0.0</speed>
  <fix>3d</fix>
</trkpt>
<trkpt lat="40.0713749" lon="-105.229789">
  <ele>1583.0</ele>
  <time>2026-08-28T17:50:21Z</time>
  <course>248.38</course>
  <speed>0.01</speed>
  <fix>3d</fix>
</trkpt>
<trkpt lat="40.0713749" lon="-105.229789">
  <ele>1583.0</ele>
  <time>2026-08-28T17:50:21Z</time>
  <course>0.0</course>
  <speed>0.0</speed>
  <fix>3d</fix>
</trkpt>
<trkpt lat="40.0713749" lon="-105.229789">
  <ele>1583.0</ele>
  <time>2026-08-28T17:50:21Z</time>
  <course>248.37</course>
  <speed>0.01</speed>
  <fix>3d</fix>
</trkpt>
<trkpt lat="40.0713749" lon="-105.229789">
  <ele>1583.0</ele>
  <time>2026-08-28T17:50:21Z</time>
  <course>0.0</course>
  <speed>0.0</speed>
  <fix>3d</fix>
</trkpt>
<trkpt lat="40.0713749" lon="-105.229789">
  <ele>1583.0</ele>
  <time>2026-08-28T17:50:21Z</time>
  <course>248.37</course>
  <speed>0.01</speed>
  <fix>3d</fix>
</trkpt>
<trkpt lat="40.0713749" lon="-105.229789">
  <ele>1583.0</ele>
  <time>2026-08-28T17:50:21Z</time>
  <course>0.0</course>
  <speed>0.0</speed>
  <fix>3d</fix>
</trkpt>
<trkpt lat="40.0713749" lon="-105.229789">
  <ele>1583.0</ele>
  <time>2026-08-28T17:50:21Z</time>
  <course>248.37</course>
  <speed>0.01</speed>
  <fix>3d</fix>
</trkpt>
<trkpt lat="40.0713749" lon="-105.229789">
  <ele>1583.0</ele>
  <time>2026-08-28T17:50:21Z</time>
  <course>0.0</course>
  <speed>0.0</speed>
  <fix>3d</fix>
</trkpt>
<trkpt lat="40.0713749" lon="-105.229789">
  <ele>1583.0</ele>
  <time>2026-08-28T17:50:21Z</time>
  <course>248.36</course>
  <speed>0.01</speed>
  <fix>3d</fix>
</trkpt>
<trkpt lat="40.0713749" lon="-105.229789">
  <ele>1583.0</ele>
  <time>2026-08-28T17:50:21Z</time>
  <course>0.0</course>
  <speed>0.0</speed>
  <fix>3d</fix>
</trkpt>
<trkpt lat="40.0713749" lon="-105.229789">
  <ele>1583.0</ele>
  <time>2026-08-28T17:50:21Z</time>
  <course>248.36</course>
  <speed>0.01</speed>
  <fix>3d</fix>
</trkpt>
<trkpt lat="40.0713749" lon="-105.229789">
  <ele>1583.0</ele>
  <time>2026-08-28T17:50:21Z</time>
  <course>0.0</course>
  <speed>0.0</speed>
  <fix>3d</fix>
</trkpt>
<trkpt lat="40.0713749" lon="-105.229789">
  <ele>1583.0</ele>
  <time>2026-08-28T17:50:21Z</time>
  <course>248.36</course>
  <speed>0.01</speed>
  <fix>3d</fix>
</trkpt>
<trkpt lat="40.0713749" lon="-105.229789">
  <ele>1583.0</ele>
  <time>2026-08-28T17:50:21Z</time>
  <course>0.0</course>
  <speed>0.0</speed>
  <fix>3d</fix>
</trkpt>
<trkpt lat="40.0713749" lon="-105.229789">
  <ele>1583.0</ele>
  <time>2026-08-28T17:50:21Z</time>
  <course>248.35</course>
  <speed>0.01</speed>
  <fix>3d</fix>
</trkpt>
<trkpt lat="40.0713749" lon="-105.229789">
  <ele>1583.0</ele>
  <time>2026-08-28T17:50:21Z</time>
  <course>0.0</course>
  <speed>0.0</speed>
  <fix>3d</fix>
</trkpt>
<trkpt lat="40.0713749" lon="-105.229789">
  <ele>1583.0</ele>
  <time>2026-08-28T17:50:21Z</time>
  <course>248.35</course>
  <speed>0.01</speed>
  <fix>3d</fix>
</trkpt>
<trkpt lat="40.0713749" lon="-105.229789">
  <ele>1583.0</ele>
  <time>2026-08-28T17:50:21Z</time>
  <course>0.0</course>
  <speed>0.0</speed>
  <fix>3d</fix>
</trkpt>
<trkpt lat="40.0713749" lon="-105.229789">
  <ele>1583.0</ele>
  <time>2026-08-28T17:50:21Z</time>
  <course>248.35</course>
  <speed>0.01</speed>
  <fix>3d</fix>
</trkpt>
<trkpt lat="40.0713749" lon="-105.229789">
  <ele>1583.0</ele>
  <time>2026-08-28T17:50:21Z</time>
  <course>0.0</course>
  <speed>0.0</speed>
  <fix>3d</fix>
</trkpt>
<trkpt lat="40.0713749" lon="-105.229789">
  <ele>1583.0</ele>
  <time>2026-08-28T17:50:21Z</time>
  <course>248.34</course>
  <speed>0.01</speed>
  <fix>3d</fix>
</trkpt>
<trkpt lat="40.0713749" lon="-105.229789">
  <ele>1583.0</ele>
  <time>2026-08-28T17:50:21Z</time>
  <course>0.0</course>
  <speed>0.0</speed>
  <fix>3d</fix>
</trkpt>
<trkpt lat="40.0713749" lon="-105.229789">
  <ele>1583.0</ele>
  <time>2026-08-28T17:50:22Z</time>
  <course>248.34</course>
  <speed>0.01</speed>
  <fix>3d</fix>
</trkpt>
<trkpt lat="40.0713749" lon="-105.229789">
  <ele>1583.0</ele>
  <time>2026-08-28T17:50:22Z</time>
  <course>0.0</course>
  <speed>0.0</speed>
  <fix>3d</fix>
</trkpt>
<trkpt lat="40.0713749" lon="-105.229789">
  <ele>1583.0</ele>
  <time>2026-08-28T17:50:22Z</time>
  <course>248.33</course>
  <speed>0.01</speed>
  <fix>3d</fix>
</trkpt>
<trkpt lat="40.0713749" lon="-105.229789">
  <ele>1583.0</ele>
  <time>2026-08-28T17:50:22Z</time>
  <course>0.0</course>
  <speed>0.0</speed>
  <fix>3d</fix>
</trkpt>
<trkpt lat="40.0713749" lon="-105.229789">
  <ele>1583.0</ele>
  <time>2026-08-28T17:50:22Z</time>
  <course>248.33</course>
  <speed>0.01</speed>
  <fix>3d</fix>
</trkpt>
<trkpt lat="40.0713749" lon="-105.229789">
  <ele>1583.0</ele>
  <time>2026-08-28T17:50:22Z</time>
  <course>0.0</course>
  <speed>0.0</speed>
  <fix>3d</fix>
</trkpt>
<trkpt lat="40.0713749" lon="-105.229789">
  <ele>1583.0</ele>
  <time>2026-08-28T17:50:22Z</time>
  <course>248.32</course>
  <speed>0.01</speed>
  <fix>3d</fix>
</trkpt>
<trkpt lat="40.0713749" lon="-105.229789">
  <ele>1583.0</ele>
  <time>2026-08-28T17:50:22Z</time>
  <course>0.0</course>
  <speed>0.0</speed>
  <fix>3d</fix>
</trkpt>
<trkpt lat="40.0713749" lon="-105.229789">
  <ele>1583.0</ele>
  <time>2026-08-28T17:50:22Z</time>
  <course>248.32</course>
  <speed>0.01</speed>
  <fix>3d</fix>
</trkpt>
<trkpt lat="40.0713749" lon="-105.229789">
  <ele>1583.0</ele>
  <time>2026-08-28T17:50:22Z</time>
  <course>0.0</course>
  <speed>0.0</speed>
  <fix>3d</fix>
</trkpt>
<trkpt lat="40.0713749" lon="-105.229789">
  <ele>1583.0</ele>
  <time>2026-08-28T17:50:22Z</time>
  <course>248.32</course>
  <speed>0.01</speed>
  <fix>3d</fix>
</trkpt>
<trkpt lat="40.0713749" lon="-105.229789">
  <ele>1583.0</ele>
  <time>2026-08-28T17:50:22Z</time>
  <course>0.0</course>
  <speed>0.0</speed>
  <fix>3d</fix>
</trkpt>
<trkpt lat="40.0713749" lon="-105.229789">
  <ele>1583.0</ele>
  <time>2026-08-28T17:50:22Z</time>
  <course>248.31</course>
  <speed>0.01</speed>
  <fix>3d</fix>
</trkpt>
<trkpt lat="40.0713749" lon="-105.229789">
  <ele>1583.0</ele>
  <time>2026-08-28T17:50:22Z</time>
  <course>0.0</course>
  <speed>0.0</speed>
  <fix>3d</fix>
</trkpt>
<trkpt lat="40.0713749" lon="-105.229789">
  <ele>1583.0</ele>
  <time>2026-08-28T17:50:22Z</time>
  <course>248.31</course>
  <speed>0.01</speed>
  <fix>3d</fix>
</trkpt>
<trkpt lat="40.0713749" lon="-105.229789">
  <ele>1583.0</ele>
  <time>2026-08-28T17:50:22Z</time>
  <course>0.0</course>
  <speed>0.0</speed>
  <fix>3d</fix>
</trkpt>
<trkpt lat="40.0713749" lon="-105.229789">
  <ele>1583.0</ele>
  <time>2026-08-28T17:50:22Z</time>
  <course>248.3</course>
  <speed>0.01</speed>
  <fix>3d</fix>
</trkpt>
<trkpt lat="40.0713749" lon="-105.229789">
  <ele>1583.0</ele>
  <time>2026-08-28T17:50:22Z</time>
  <course>0.0</course>
  <speed>0.0</speed>
  <fix>3d</fix>
</trkpt>
<trkpt lat="40.0713749" lon="-105.229789">
  <ele>1583.0</ele>
  <time>2026-08-28T17:50:22Z</time>
  <course>248.3</course>
  <speed>0.01</speed>
  <fix>3d</fix>
</trkpt>
<trkpt lat="40.0713749" lon="-105.229789">
  <ele>1583.0</ele>
  <time>2026-08-28T17:50:22Z</time>
  <course>0.0</course>
  <speed>0.0</speed>
  <fix>3d</fix>
</trkpt>
<trkpt lat="40.0713749" lon="-105.229789">
  <ele>1583.0</ele>
  <time>2026-08-28T17:50:22Z</time>
  <course>248.29</course>
  <speed>0.01</speed>
  <fix>3d</fix>
</trkpt>
<trkpt lat="40.0713749" lon="-105.229789">
  <ele>1583.0</ele>
  <time>2026-08-28T17:50:22Z</time>
  <course>0.0</course>
  <speed>0.0</speed>
  <fix>3d</fix>
</trkpt>
<trkpt lat="40.0713749" lon="-105.229789">
  <ele>1583.0</ele>
  <time>2026-08-28T17:50:22Z</time>
  <course>248.29</course>
  <speed>0.01</speed>
  <fix>3d</fix>
</trkpt>
<trkpt lat="40.0713749" lon="-105.229789">
  <ele>1583.0</ele>
  <time>2026-08-28T17:50:22Z</time>
  <course>0.0</course>
  <speed>0.0</speed>
  <fix>3d</fix>
</trkpt>
<trkpt lat="40.0713749" lon="-105.229789">
  <ele>1583.0</ele>
  <time>2026-08-28T17:50:22Z</time>
  <course>248.28</course>
  <speed>0.01</speed>
  <fix>3d</fix>
</trkpt>
<trkpt lat="40.0713749" lon="-105.229789">
  <ele>1583.0</ele>
  <time>2026-08-28T17:50:22Z</time>
  <course>0.0</course>
  <speed>0.0</speed>
  <fix>3d</fix>
</trkpt>
<trkpt lat="40.0713749" lon="-105.229789">
  <ele>1583.0</ele>
  <time>2026-08-28T17:50:22Z</time>
  <course>248.28</course>
  <speed>0.01</speed>
  <fix>3d</fix>
</trkpt>
<trkpt lat="40.0713749" lon="-105.229789">
  <ele>1583.0</ele>
  <time>2026-08-28T17:50:22Z</time>
  <course>0.0</course>
  <speed>0.0</speed>
  <fix>3d</fix>
</trkpt>
<trkpt lat="40.0713749" lon="-105.229789">
  <ele>1583.0</ele>
  <time>2026-08-28T17:50:22Z</time>
  <course>248.27</course>
  <speed>0.01</speed>
  <fix>3d</fix>
</trkpt>
<trkpt lat="40.0713749" lon="-105.229789">
  <ele>1583.0</ele>
  <time>2026-08-28T17:50:22Z</time>
  <course>0.0</course>
  <speed>0.0</speed>
  <fix>3d</fix>
</trkpt>
<trkpt lat="40.0713749" lon="-105.229789">
  <ele>1583.0</ele>
  <time>2026-08-28T17:50:22Z</time>
  <course>248.27</course>
  <speed>0.01</speed>
  <fix>3d</fix>
</trkpt>
<trkpt lat="40.0713749" lon="-105.229789">
  <ele>1583.0</ele>
  <time>2026-08-28T17:50:22Z</time>
  <course>0.0</course>
  <speed>0.0</speed>
  <fix>3d</fix>
</trkpt>
<trkpt lat="40.0713749" lon="-105.229789">
  <ele>1583.0</ele>
  <time>2026-08-28T17:50:22Z</time>
  <course>248.26</course>
  <speed>0.01</speed>
  <fix>3d</fix>
</trkpt>
<trkpt lat="40.0713749" lon="-105.229789">
  <ele>1583.0</ele>
  <time>2026-08-28T17:50:22Z</time>
  <course>0.0</course>
  <speed>0.0</speed>
  <fix>3d</fix>
</trkpt>
<trkpt lat="40.0713749" lon="-105.229789">
  <ele>1583.0</ele>
  <time>2026-08-28T17:50:22Z</time>
  <course>248.26</course>
  <speed>0.01</speed>
  <fix>3d</fix>
</trkpt>
<trkpt lat="40.0713749" lon="-105.229789">
  <ele>1583.0</ele>
  <time>2026-08-28T17:50:22Z</time>
  <course>0.0</course>
  <speed>0.0</speed>
  <fix>3d</fix>
</trkpt>
<trkpt lat="40.0713749" lon="-105.229789">
  <ele>1583.0</ele>
  <time>2026-08-28T17:50:22Z</time>
  <course>248.26</course>
  <speed>0.01</speed>
  <fix>3d</fix>
</trkpt>
<trkpt lat="40.0713749" lon="-105.229789">
  <ele>1583.0</ele>
  <time>2026-08-28T17:50:22Z</time>
  <course>0.0</course>
  <speed>0.0</speed>
  <fix>3d</fix>
</trkpt>
<trkpt lat="40.0713749" lon="-105.229789">
  <ele>1583.0</ele>
  <time>2026-08-28T17:50:22Z</time>
  <course>248.25</course>
  <speed>0.01</speed>
  <fix>3d</fix>
</trkpt>
<trkpt lat="40.0713749" lon="-105.229789">
  <ele>1583.0</ele>
  <time>2026-08-28T17:50:22Z</time>
  <course>0.0</course>
  <speed>0.0</speed>
  <fix>3d</fix>
</trkpt>
<trkpt lat="40.0713749" lon="-105.229789">
  <ele>1583.0</ele>
  <time>2026-08-28T17:50:22Z</time>
  <course>248.25</course>
  <speed>0.01</speed>
  <fix>3d</fix>
</trkpt>
<trkpt lat="40.0713749" lon="-105.229789">
  <ele>1583.0</ele>
  <time>2026-08-28T17:50:22Z</time>
  <course>0.0</course>
  <speed>0.0</speed>
  <fix>3d</fix>
</trkpt>
<trkpt lat="40.0713749" lon="-105.229789">
  <ele>1583.0</ele>
  <time>2026-08-28T17:50:22Z</time>
  <course>248.24</course>
  <speed>0.01</speed>
  <fix>3d</fix>
</trkpt>
<trkpt lat="40.0713749" lon="-105.229789">
  <ele>1583.0</ele>
  <time>2026-08-28T17:50:22Z</time>
  <course>0.0</course>
  <speed>0.0</speed>
  <fix>3d</fix>
</trkpt>
<trkpt lat="40.0713749" lon="-105.229789">
  <ele>1583.0</ele>
  <time>2026-08-28T17:50:22Z</time>
  <course>248.24</course>
  <speed>0.01</speed>
  <fix>3d</fix>
</trkpt>
<trkpt lat="40.0713749" lon="-105.229789">
  <ele>1583.0</ele>
  <time>2026-08-28T17:50:22Z</time>
  <course>0.0</course>
  <speed>0.0</speed>
  <fix>3d</fix>
</trkpt>
<trkpt lat="40.0713749" lon="-105.229789">
  <ele>1583.0</ele>
  <time>2026-08-28T17:50:22Z</time>
  <course>248.23</course>
  <speed>0.01</speed>
  <fix>3d</fix>
</trkpt>
<trkpt lat="40.0713749" lon="-105.229789">
  <ele>1583.0</ele>
  <time>2026-08-28T17:50:22Z</time>
  <course>0.0</course>
  <speed>0.0</speed>
  <fix>3d</fix>
</trkpt>
<trkpt lat="40.0713749" lon="-105.229789">
  <ele>1583.0</ele>
  <time>2026-08-28T17:50:22Z</time>
  <course>248.23</course>
  <speed>0.01</speed>
  <fix>3d</fix>
</trkpt>
<trkpt lat="40.0713749" lon="-105.229789">
  <ele>1583.0</ele>
  <time>2026-08-28T17:50:22Z</time>
  <course>0.0</course>
  <speed>0.0</speed>
  <fix>3d</fix>
</trkpt>
<trkpt lat="40.0713749" lon="-105.229789">
  <ele>1583.0</ele>
  <time>2026-08-28T17:50:22Z</time>
  <course>248.22</course>
  <speed>0.01</speed>
  <fix>3d</fix>
</trkpt>
<trkpt lat="40.0713749" lon="-105.229789">
  <ele>1583.0</ele>
  <time>2026-08-28T17:50:22Z</time>
  <course>0.0</course>
  <speed>0.0</speed>
  <fix>3d</fix>
</trkpt>
<trkpt lat="40.0713749" lon="-105.229789">
  <ele>1583.0</ele>
  <time>2026-08-28T17:50:22Z</time>
  <course>248.22</course>
  <speed>0.01</speed>
  <fix>3d</fix>
</trkpt>
<trkpt lat="40.0713749" lon="-105.229789">
  <ele>1583.0</ele>
  <time>2026-08-28T17:50:22Z</time>
  <course>0.0</course>
  <speed>0.0</speed>
  <fix>3d</fix>
</trkpt>
<trkpt lat="40.0713749" lon="-105.229789">
  <ele>1583.0</ele>
  <time>2026-08-28T17:50:22Z</time>
  <course>248.21</course>
  <speed>0.01</speed>
  <fix>3d</fix>
</trkpt>
<trkpt lat="40.0713749" lon="-105.229789">
  <ele>1583.0</ele>
  <time>2026-08-28T17:50:22Z</time>
  <course>0.0</course>
  <speed>0.0</speed>
  <fix>3d</fix>
</trkpt>
<trkpt lat="40.0713749" lon="-105.229789">
  <ele>1583.0</ele>
  <time>2026-08-28T17:50:22Z</time>
  <course>248.21</course>
  <speed>0.01</speed>
  <fix>3d</fix>
</trkpt>
<trkpt lat="40.0713749" lon="-105.229789">
  <ele>1583.0</ele>
  <time>2026-08-28T17:50:22Z</time>
  <course>0.0</course>
  <speed>0.0</speed>
  <fix>3d</fix>
</trkpt>
<trkpt lat="40.0713749" lon="-105.229789">
  <ele>1583.0</ele>
  <time>2026-08-28T17:50:22Z</time>
  <course>248.2</course>
  <speed>0.01</speed>
  <fix>3d</fix>
</trkpt>
<trkpt lat="40.0713749" lon="-105.229789">
  <ele>1583.0</ele>
  <time>2026-08-28T17:50:22Z</time>
  <course>0.0</course>
  <speed>0.0</speed>
  <fix>3d</fix>
</trkpt>
<trkpt lat="40.0713749" lon="-105.229789">
  <ele>1583.0</ele>
  <time>2026-08-28T17:50:22Z</time>
  <course>248.2</course>
  <speed>0.01</speed>
  <fix>3d</fix>
</trkpt>
<trkpt lat="40.0713749" lon="-105.229789">
  <ele>1583.0</ele>
  <time>2026-08-28T17:50:22Z</time>
  <course>0.0</course>
  <speed>0.0</speed>
  <fix>3d</fix>
</trkpt>
<trkpt lat="40.0713749" lon="-105.229789">
  <ele>1583.0</ele>
  <time>2026-08-28T17:50:22Z</time>
  <course>248.19</course>
  <speed>0.01</speed>
  <fix>3d</fix>
</trkpt>
<trkpt lat="40.0713749" lon="-105.229789">
  <ele>1583.0</ele>
  <time>2026-08-28T17:50:22Z</time>
  <course>0.0</course>
  <speed>0.0</speed>
  <fix>3d</fix>
</trkpt>
<trkpt lat="40.0713749" lon="-105.229789">
  <ele>1583.0</ele>
  <time>2026-08-28T17:50:22Z</time>
  <course>248.19</course>
  <speed>0.01</speed>
  <fix>3d</fix>
</trkpt>
<trkpt lat="40.0713749" lon="-105.229789">
  <ele>1583.0</ele>
  <time>2026-08-28T17:50:22Z</time>
  <course>0.0</course>
  <speed>0.0</speed>
  <fix>3d</fix>
</trkpt>
<trkpt lat="40.0713749" lon="-105.229789">
  <ele>1583.0</ele>
  <time>2026-08-28T17:50:22Z</time>
  <course>248.18</course>
  <speed>0.01</speed>
  <fix>3d</fix>
</trkpt>
<trkpt lat="40.0713749" lon="-105.229789">
  <ele>1583.0</ele>
  <time>2026-08-28T17:50:22Z</time>
  <course>0.0</course>
  <speed>0.0</speed>
  <fix>3d</fix>
</trkpt>
<trkpt lat="40.0713749" lon="-105.229789">
  <ele>1583.0</ele>
  <time>2026-08-28T17:50:22Z</time>
  <course>248.18</course>
  <speed>0.01</speed>
  <fix>3d</fix>
</trkpt>
<trkpt lat="40.0713749" lon="-105.229789">
  <ele>1583.0</ele>
  <time>2026-08-28T17:50:22Z</time>
  <course>0.0</course>
  <speed>0.0</speed>
  <fix>3d</fix>
</trkpt>
<trkpt lat="40.0713749" lon="-105.229789">
  <ele>1583.0</ele>
  <time>2026-08-28T17:50:22Z</time>
  <course>248.17</course>
  <speed>0.022360679774997897</speed>
  <fix>3d</fix>
</trkpt>
<trkpt lat="40.0713749" lon="-105.229789">
  <ele>1583.0</ele>
  <time>2026-08-28T17:50:22Z</time>
  <course>0.0</course>
  <speed>0.0</speed>
  <fix>3d</fix>
</trkpt>
<trkpt lat="40.0713749" lon="-105.229789">
  <ele>1583.0</ele>
  <time>2026-08-28T17:50:22Z</time>
  <course>248.17</course>
  <speed>0.022360679774997897</speed>
  <fix>3d</fix>
</trkpt>
<trkpt lat="40.0713749" lon="-105.229789">
  <ele>1583.0</ele>
  <time>2026-08-28T17:50:22Z</time>
  <course>0.0</course>
  <speed>0.0</speed>
  <fix>3d</fix>
</trkpt>
<trkpt lat="40.0713749" lon="-105.229789">
  <ele>1583.0</ele>
  <time>2026-08-28T17:50:22Z</time>
  <course>248.16</course>
  <speed>0.022360679774997897</speed>
  <fix>3d</fix>
</trkpt>
<trkpt lat="40.0713749" lon="-105.229789">
  <ele>1583.0</ele>
  <time>2026-08-28T17:50:22Z</time>
  <course>0.0</course>
  <speed>0.0</speed>
  <fix>3d</fix>
</trkpt>
<trkpt lat="40.0713749" lon="-105.229789">
  <ele>1583.0</ele>
  <time>2026-08-28T17:50:22Z</time>
  <course>248.16</course>
  <speed>0.022360679774997897</speed>
  <fix>3d</fix>
</trkpt>
<trkpt lat="40.0713749" lon="-105.229789">
  <ele>1583.0</ele>
  <time>2026-08-28T17:50:22Z</time>
  <course>0.0</course>
  <speed>0.0</speed>
  <fix>3d</fix>
</trkpt>
<trkpt lat="40.0713749" lon="-105.229789">
  <ele>1583.0</ele>
  <time>2026-08-28T17:50:22Z</time>
  <course>248.15</course>
  <speed>0.022360679774997897</speed>
  <fix>3d</fix>
</trkpt>
<trkpt lat="40.0713749" lon="-105.229789">
  <ele>1583.0</ele>
  <time>2026-08-28T17:50:22Z</time>
  <course>0.0</course>
  <speed>0.0</speed>
  <fix>3d</fix>
</trkpt>
<trkpt lat="40.0713749" lon="-105.229789">
  <ele>1583.0</ele>
  <time>2026-08-28T17:50:22Z</time>
  <course>248.15</course>
  <speed>0.022360679774997897</speed>
  <fix>3d</fix>
</trkpt>
<trkpt lat="40.0713749" lon="-105.229789">
  <ele>1583.0</ele>
  <time>2026-08-28T17:50:22Z</time>
  <course>0.0</course>
  <speed>0.0</speed>
  <fix>3d</fix>
</trkpt>
<trkpt lat="40.0713749" lon="-105.229789">
  <ele>1583.0</ele>
  <time>2026-08-28T17:50:22Z</time>
  <course>248.14</course>
  <speed>0.022360679774997897</speed>
  <fix>3d</fix>
</trkpt>
<trkpt lat="40.0713749" lon="-105.229789">
  <ele>1583.0</ele>
  <time>2026-08-28T17:50:22Z</time>
  <course>0.0</course>
  <speed>0.0</speed>
  <fix>3d</fix>
</trkpt>
<trkpt lat="40.0713749" lon="-105.229789">
  <ele>1583.0</ele>
  <time>2026-08-28T17:50:22Z</time>
  <course>248.14</course>
  <speed>0.022360679774997897</speed>
  <fix>3d</fix>
</trkpt>
<trkpt lat="40.0713749" lon="-105.229789">
  <ele>1583.0</ele>
  <time>2026-08-28T17:50:22Z</time>
  <course>0.0</course>
  <speed>0.0</speed>
  <fix>3d</fix>
</trkpt>
<trkpt lat="40.0713749" lon="-105.229789">
  <ele>1583.0</ele>
  <time>2026-08-28T17:50:22Z</time>
  <course>248.13</course>
  <speed>0.022360679774997897</speed>
  <fix>3d</fix>
</trkpt>
<trkpt lat="40.0713749" lon="-105.229789">
  <ele>1583.0</ele>
  <time>2026-08-28T17:50:22Z</time>
  <course>0.0</course>
  <speed>0.0</speed>
  <fix>3d</fix>
</trkpt>
<trkpt lat="40.0713749" lon="-105.229789">
  <ele>1583.0</ele>
  <time>2026-08-28T17:50:22Z</time>
  <course>248.13</course>
  <speed>0.022360679774997897</speed>
  <fix>3d</fix>
</trkpt>
<trkpt lat="40.0713749" lon="-105.229789">
  <ele>1583.0</ele>
  <time>2026-08-28T17:50:22Z</time>
  <course>0.0</course>
  <speed>0.0</speed>
  <fix>3d</fix>
</trkpt>
<trkpt lat="40.0713749" lon="-105.229789">
  <ele>1583.0</ele>
  <time>2026-08-28T17:50:22Z</time>
  <course>248.12</course>
  <speed>0.022360679774997897</speed>
  <fix>3d</fix>
</trkpt>
<trkpt lat="40.0713749" lon="-105.229789">
  <ele>1583.0</ele>
  <time>2026-08-28T17:50:22Z</time>
  <course>0.0</course>
  <speed>0.0</speed>
  <fix>3d</fix>
</trkpt>
<trkpt lat="40.0713749" lon="-105.229789">
  <ele>1583.0</ele>
  <time>2026-08-28T17:50:22Z</time>
  <course>248.12</course>
  <speed>0.022360679774997897</speed>
  <fix>3d</fix>
</trkpt>
<trkpt lat="40.0713749" lon="-105.229789">
  <ele>1583.0</ele>
  <time>2026-08-28T17:50:22Z</time>
  <course>0.0</course>
  <speed>0.0</speed>
  <fix>3d</fix>
</trkpt>
<trkpt lat="40.0713749" lon="-105.229789">
  <ele>1583.0</ele>
  <time>2026-08-28T17:50:22Z</time>
  <course>248.11</course>
  <speed>0.022360679774997897</speed>
  <fix>3d</fix>
</trkpt>
<trkpt lat="40.0713749" lon="-105.229789">
  <ele>1583.0</ele>
  <time>2026-08-28T17:50:22Z</time>
  <course>0.0</course>
  <speed>0.0</speed>
  <fix>3d</fix>
</trkpt>
<trkpt lat="40.0713749" lon="-105.229789">
  <ele>1583.0</ele>
  <time>2026-08-28T17:50:22Z</time>
  <course>248.11</course>
  <speed>0.022360679774997897</speed>
  <fix>3d</fix>
</trkpt>
<trkpt lat="40.0713749" lon="-105.229789">
  <ele>1583.0</ele>
  <time>2026-08-28T17:50:22Z</time>
  <course>0.0</course>
  <speed>0.0</speed>
  <fix>3d</fix>
</trkpt>
<trkpt lat="40.0713749" lon="-105.229789">
  <ele>1583.0</ele>
  <time>2026-08-28T17:50:22Z</time>
  <course>248.1</course>
  <speed>0.022360679774997897</speed>
  <fix>3d</fix>
</trkpt>
<trkpt lat="40.0713749" lon="-105.229789">
  <ele>1583.0</ele>
  <time>2026-08-28T17:50:22Z</time>
  <course>0.0</course>
  <speed>0.0</speed>
  <fix>3d</fix>
</trkpt>
<trkpt lat="40.0713749" lon="-105.229789">
  <ele>1583.0</ele>
  <time>2026-08-28T17:50:22Z</time>
  <course>248.1</course>
  <speed>0.022360679774997897</speed>
  <fix>3d</fix>
</trkpt>
<trkpt lat="40.0713749" lon="-105.229789">
  <ele>1583.0</ele>
  <time>2026-08-28T17:50:22Z</time>
  <course>0.0</course>
  <speed>0.0</speed>
  <fix>3d</fix>
</trkpt>
<trkpt lat="40.0713749" lon="-105.229789">
  <ele>1583.0</ele>
  <time>2026-08-28T17:50:22Z</time>
  <course>248.09</course>
  <speed>0.022360679774997897</speed>
  <fix>3d</fix>
</trkpt>
<trkpt lat="40.0713749" lon="-105.229789">
  <ele>1583.0</ele>
  <time>2026-08-28T17:50:22Z</time>
  <course>0.0</course>
  <speed>0.0</speed>
  <fix>3d</fix>
</trkpt>
<trkpt lat="40.0713749" lon="-105.229789">
  <ele>1583.0</ele>
  <time>2026-08-28T17:50:22Z</time>
  <course>248.09</course>
  <speed>0.022360679774997897</speed>
  <fix>3d</fix>
</trkpt>
<trkpt lat="40.0713749" lon="-105.229789">
  <ele>1583.0</ele>
  <time>2026-08-28T17:50:22Z</time>
  <course>0.0</course>
  <speed>0.0</speed>
  <fix>3d</fix>
</trkpt>
<trkpt lat="40.0713749" lon="-105.229789">
  <ele>1583.0</ele>
  <time>2026-08-28T17:50:22Z</time>
  <course>248.08</course>
  <speed>0.022360679774997897</speed>
  <fix>3d</fix>
</trkpt>
<trkpt lat="40.0713749" lon="-105.229789">
  <ele>1583.0</ele>
  <time>2026-08-28T17:50:22Z</time>
  <course>0.0</course>
  <speed>0.0</speed>
  <fix>3d</fix>
</trkpt>
<trkpt lat="40.0713749" lon="-105.229789">
  <ele>1583.0</ele>
  <time>2026-08-28T17:50:22Z</time>
  <course>248.08</course>
  <speed>0.022360679774997897</speed>
  <fix>3d</fix>
</trkpt>
<trkpt lat="40.0713749" lon="-105.229789">
  <ele>1583.0</ele>
  <time>2026-08-28T17:50:22Z</time>
  <course>0.0</course>
  <speed>0.0</speed>
  <fix>3d</fix>
</trkpt>
<trkpt lat="40.0713749" lon="-105.229789">
  <ele>1583.0</ele>
  <time>2026-08-28T17:50:22Z</time>
  <course>248.07</course>
  <speed>0.022360679774997897</speed>
  <fix>3d</fix>
</trkpt>
<trkpt lat="40.0713749" lon="-105.229789">
  <ele>1583.0</ele>
  <time>2026-08-28T17:50:22Z</time>
  <course>0.0</course>
  <speed>0.0</speed>
  <fix>3d</fix>
</trkpt>
<trkpt lat="40.0713749" lon="-105.229789">
  <ele>1583.0</ele>
  <time>2026-08-28T17:50:22Z</time>
  <course>248.07</course>
  <speed>0.022360679774997897</speed>
  <fix>3d</fix>
</trkpt>
<trkpt lat="40.0713749" lon="-105.229789">
  <ele>1583.0</ele>
  <time>2026-08-28T17:50:22Z</time>
  <course>0.0</course>
  <speed>0.0</speed>
  <fix>3d</fix>
</trkpt>
<trkpt lat="40.0713749" lon="-105.229789">
  <ele>1583.0</ele>
  <time>2026-08-28T17:50:22Z</time>
  <course>248.06</course>
  <speed>0.022360679774997897</speed>
  <fix>3d</fix>
</trkpt>
<trkpt lat="40.0713749" lon="-105.229789">
  <ele>1583.0</ele>
  <time>2026-08-28T17:50:22Z</time>
  <course>0.0</course>
  <speed>0.0</speed>
  <fix>3d</fix>
</trkpt>
<trkpt lat="40.0713749" lon="-105.229789">
  <ele>1583.0</ele>
  <time>2026-08-28T17:50:22Z</time>
  <course>248.06</course>
  <speed>0.022360679774997897</speed>
  <fix>3d</fix>
</trkpt>
<trkpt lat="40.0713749" lon="-105.229789">
  <ele>1583.0</ele>
  <time>2026-08-28T17:50:22Z</time>
  <course>0.0</course>
  <speed>0.0</speed>
  <fix>3d</fix>
</trkpt>
<trkpt lat="40.0713749" lon="-105.229789">
  <ele>1583.0</ele>
  <time>2026-08-28T17:50:22Z</time>
  <course>248.05</course>
  <speed>0.022360679774997897</speed>
  <fix>3d</fix>
</trkpt>
<trkpt lat="40.0713749" lon="-105.229789">
  <ele>1583.0</ele>
  <time>2026-08-28T17:50:22Z</time>
  <course>0.0</course>
  <speed>0.0</speed>
  <fix>3d</fix>
</trkpt>
<trkpt lat="40.0713749" lon="-105.229789">
  <ele>1583.0</ele>
  <time>2026-08-28T17:50:22Z</time>
  <course>248.05</course>
  <speed>0.022360679774997897</speed>
  <fix>3d</fix>
</trkpt>
<trkpt lat="40.0713749" lon="-105.229789">
  <ele>1583.0</ele>
  <time>2026-08-28T17:50:22Z</time>
  <course>0.0</course>
  <speed>0.0</speed>
  <fix>3d</fix>
</trkpt>
<trkpt lat="40.0713749" lon="-105.229789">
  <ele>1583.0</ele>
  <time>2026-08-28T17:50:22Z</time>
  <course>248.05</course>
  <speed>0.022360679774997897</speed>
  <fix>3d</fix>
</trkpt>
<trkpt lat="40.0713749" lon="-105.229789">
  <ele>1583.0</ele>
  <time>2026-08-28T17:50:22Z</time>
  <course>0.0</course>
  <speed>0.0</speed>
  <fix>3d</fix>
</trkpt>
<trkpt lat="40.0713749" lon="-105.229789">
  <ele>1583.0</ele>
  <time>2026-08-28T17:50:22Z</time>
  <course>248.04</course>
  <speed>0.022360679774997897</speed>
  <fix>3d</fix>
</trkpt>
<trkpt lat="40.0713749" lon="-105.229789">
  <ele>1583.0</ele>
  <time>2026-08-28T17:50:22Z</time>
  <course>0.0</course>
  <speed>0.0</speed>
  <fix>3d</fix>
</trkpt>
<trkpt lat="40.0713749" lon="-105.229789">
  <ele>1583.0</ele>
  <time>2026-08-28T17:50:22Z</time>
  <course>248.04</course>
  <speed>0.022360679774997897</speed>
  <fix>3d</fix>
</trkpt>
<trkpt lat="40.0713749" lon="-105.229789">
  <ele>1583.0</ele>
  <time>2026-08-28T17:50:22Z</time>
  <course>0.0</course>
  <speed>0.0</speed>
  <fix>3d</fix>
</trkpt>
<trkpt lat="40.0713749" lon="-105.229789">
  <ele>1583.0</ele>
  <time>2026-08-28T17:50:22Z</time>
  <course>248.03</course>
  <speed>0.022360679774997897</speed>
  <fix>3d</fix>
</trkpt>
<trkpt lat="40.0713749" lon="-105.229789">
  <ele>1583.0</ele>
  <time>2026-08-28T17:50:22Z</time>
  <course>0.0</course>
  <speed>0.0</speed>
  <fix>3d</fix>
</trkpt>
<trkpt lat="40.0713749" lon="-105.229789">
  <ele>1583.0</ele>
  <time>2026-08-28T17:50:22Z</time>
  <course>248.03</course>
  <speed>0.022360679774997897</speed>
  <fix>3d</fix>
</trkpt>
<trkpt lat="40.0713749" lon="-105.229789">
  <ele>1583.0</ele>
  <time>2026-08-28T17:50:22Z</time>
  <course>0.0</course>
  <speed>0.0</speed>
  <fix>3d</fix>
</trkpt>
<trkpt lat="40.0713749" lon="-105.229789">
  <ele>1583.0</ele>
  <time>2026-08-28T17:50:22Z</time>
  <course>248.02</course>
  <speed>0.022360679774997897</speed>
  <fix>3d</fix>
</trkpt>
<trkpt lat="40.0713749" lon="-105.229789">
  <ele>1583.0</ele>
  <time>2026-08-28T17:50:22Z</time>
  <course>0.0</course>
  <speed>0.0</speed>
  <fix>3d</fix>
</trkpt>
<trkpt lat="40.0713749" lon="-105.229789">
  <ele>1583.0</ele>
  <time>2026-08-28T17:50:22Z</time>
  <course>248.02</course>
  <speed>0.022360679774997897</speed>
  <fix>3d</fix>
</trkpt>
<trkpt lat="40.0713749" lon="-105.229789">
  <ele>1583.0</ele>
  <time>2026-08-28T17:50:22Z</time>
  <course>0.0</course>
  <speed>0.0</speed>
  <fix>3d</fix>
</trkpt>
<trkpt lat="40.0713749" lon="-105.229789">
  <ele>1583.0</ele>
  <time>2026-08-28T17:50:22Z</time>
  <course>248.01</course>
  <speed>0.022360679774997897</speed>
  <fix>3d</fix>
</trkpt>
<trkpt lat="40.0713749" lon="-105.229789">
  <ele>1583.0</ele>
  <time>2026-08-28T17:50:22Z</time>
  <course>0.0</course>
  <speed>0.0</speed>
  <fix>3d</fix>
</trkpt>
<trkpt lat="40.0713749" lon="-105.229789">
  <ele>1583.0</ele>
  <time>2026-08-28T17:50:22Z</time>
  <course>248.01</course>
  <speed>0.022360679774997897</speed>
  <fix>3d</fix>
</trkpt>
<trkpt lat="40.0713749" lon="-105.229789">
  <ele>1583.0</ele>
  <time>2026-08-28T17:50:22Z</time>
  <course>0.0</course>
  <speed>0.0</speed>
  <fix>3d</fix>
</trkpt>
<trkpt lat="40.0713749" lon="-105.229789">
  <ele>1583.0</ele>
  <time>2026-08-28T17:50:22Z</time>
  <course>248.0</course>
  <speed>0.022360679774997897</speed>
  <fix>3d</fix>
</trkpt>
<trkpt lat="40.0713749" lon="-105.229789">
  <ele>1583.0</ele>
  <time>2026-08-28T17:50:22Z</time>
  <course>0.0</course>
  <speed>0.0</speed>
  <fix>3d</fix>
</trkpt>
<trkpt lat="40.0713749" lon="-105.229789">
  <ele>1583.0</ele>
  <time>2026-08-28T17:50:22Z</time>
  <course>248.0</course>
  <speed>0.022360679774997897</speed>
  <fix>3d</fix>
</trkpt>
<trkpt lat="40.0713749" lon="-105.229789">
  <ele>1583.0</ele>
  <time>2026-08-28T17:50:22Z</time>
  <course>0.0</course>
  <speed>0.0</speed>
  <fix>3d</fix>
</trkpt>
<trkpt lat="40.0713749" lon="-105.229789">
  <ele>1583.0</ele>
  <time>2026-08-28T17:50:22Z</time>
  <course>247.99</course>
  <speed>0.022360679774997897</speed>
  <fix>3d</fix>
</trkpt>
<trkpt lat="40.0713749" lon="-105.229789">
  <ele>1583.0</ele>
  <time>2026-08-28T17:50:22Z</time>
  <course>0.0</course>
  <speed>0.0</speed>
  <fix>3d</fix>
</trkpt>
<trkpt lat="40.0713749" lon="-105.229789">
  <ele>1583.0</ele>
  <time>2026-08-28T17:50:22Z</time>
  <course>247.99</course>
  <speed>0.022360679774997897</speed>
  <fix>3d</fix>
</trkpt>
<trkpt lat="40.0713749" lon="-105.229789">
  <ele>1583.0</ele>
  <time>2026-08-28T17:50:22Z</time>
  <course>0.0</course>
  <speed>0.0</speed>
  <fix>3d</fix>
</trkpt>
<trkpt lat="40.0713749" lon="-105.229789">
  <ele>1583.0</ele>
  <time>2026-08-28T17:50:22Z</time>
  <course>247.99</course>
  <speed>0.022360679774997897</speed>
  <fix>3d</fix>
</trkpt>
<trkpt lat="40.0713749" lon="-105.229789">
  <ele>1583.0</ele>
  <time>2026-08-28T17:50:22Z</time>
  <course>0.0</course>
  <speed>0.0</speed>
  <fix>3d</fix>
</trkpt>
<trkpt lat="40.0713749" lon="-105.229789">
  <ele>1583.0</ele>
  <time>2026-08-28T17:50:22Z</time>
  <course>247.98</course>
  <speed>0.022360679774997897</speed>
  <fix>3d</fix>
</trkpt>
<trkpt lat="40.0713749" lon="-105.229789">
  <ele>1583.0</ele>
  <time>2026-08-28T17:50:22Z</time>
  <course>0.0</course>
  <speed>0.0</speed>
  <fix>3d</fix>
</trkpt>
<trkpt lat="40.0713749" lon="-105.229789">
  <ele>1583.0</ele>
  <time>2026-08-28T17:50:22Z</time>
  <course>247.98</course>
  <speed>0.022360679774997897</speed>
  <fix>3d</fix>
</trkpt>
<trkpt lat="40.0713749" lon="-105.229789">
  <ele>1583.0</ele>
  <time>2026-08-28T17:50:22Z</time>
  <course>0.0</course>
  <speed>0.0</speed>
  <fix>3d</fix>
</trkpt>
<trkpt lat="40.0713749" lon="-105.229789">
  <ele>1583.0</ele>
  <time>2026-08-28T17:50:22Z</time>
  <course>247.97</course>
  <speed>0.022360679774997897</speed>
  <fix>3d</fix>
</trkpt>
<trkpt lat="40.0713749" lon="-105.229789">
  <ele>1583.0</ele>
  <time>2026-08-28T17:50:22Z</time>
  <course>0.0</course>
  <speed>0.0</speed>
  <fix>3d</fix>
</trkpt>
<trkpt lat="40.0713749" lon="-105.229789">
  <ele>1583.0</ele>
  <time>2026-08-28T17:50:22Z</time>
  <course>247.97</course>
  <speed>0.022360679774997897</speed>
  <fix>3d</fix>
</trkpt>
<trkpt lat="40.0713749" lon="-105.229789">
  <ele>1583.0</ele>
  <time>2026-08-28T17:50:22Z</time>
  <course>0.0</course>
  <speed>0.0</speed>
  <fix>3d</fix>
</trkpt>
<trkpt lat="40.0713749" lon="-105.229789">
  <ele>1583.0</ele>
  <time>2026-08-28T17:50:22Z</time>
  <course>247.96</course>
  <speed>0.022360679774997897</speed>
  <fix>3d</fix>
</trkpt>
<trkpt lat="40.0713749" lon="-105.229789">
  <ele>1583.0</ele>
  <time>2026-08-28T17:50:22Z</time>
  <course>0.0</course>
  <speed>0.0</speed>
  <fix>3d</fix>
</trkpt>
<trkpt lat="40.0713749" lon="-105.229789">
  <ele>1583.0</ele>
  <time>2026-08-28T17:50:22Z</time>
  <course>247.96</course>
  <speed>0.022360679774997897</speed>
  <fix>3d</fix>
</trkpt>
<trkpt lat="40.0713749" lon="-105.229789">
  <ele>1583.0</ele>
  <time>2026-08-28T17:50:22Z</time>
  <course>0.0</course>
  <speed>0.0</speed>
  <fix>3d</fix>
</trkpt>
<trkpt lat="40.0713749" lon="-105.229789">
  <ele>1583.0</ele>
  <time>2026-08-28T17:50:22Z</time>
  <course>247.95</course>
  <speed>0.022360679774997897</speed>
  <fix>3d</fix>
</trkpt>
<trkpt lat="40.0713749" lon="-105.229789">
  <ele>1583.0</ele>
  <time>2026-08-28T17:50:22Z</time>
  <course>0.0</course>
  <speed>0.0</speed>
  <fix>3d</fix>
</trkpt>
<trkpt lat="40.0713749" lon="-105.229789">
  <ele>1583.0</ele>
  <time>2026-08-28T17:50:22Z</time>
  <course>247.95</course>
  <speed>0.022360679774997897</speed>
  <fix>3d</fix>
</trkpt>
<trkpt lat="40.0713749" lon="-105.229789">
  <ele>1583.0</ele>
  <time>2026-08-28T17:50:22Z</time>
  <course>0.0</course>
  <speed>0.0</speed>
  <fix>3d</fix>
</trkpt>
<trkpt lat="40.0713749" lon="-105.229789">
  <ele>1583.0</ele>
  <time>2026-08-28T17:50:22Z</time>
  <course>247.95</course>
  <speed>0.022360679774997897</speed>
  <fix>3d</fix>
</trkpt>
<trkpt lat="40.0713749" lon="-105.229789">
  <ele>1583.0</ele>
  <time>2026-08-28T17:50:22Z</time>
  <course>0.0</course>
  <speed>0.0</speed>
  <fix>3d</fix>
</trkpt>
<trkpt lat="40.0713749" lon="-105.229789">
  <ele>1583.0</ele>
  <time>2026-08-28T17:50:22Z</time>
  <course>247.94</course>
  <speed>0.022360679774997897</speed>
  <fix>3d</fix>
</trkpt>
<trkpt lat="40.0713749" lon="-105.229789">
  <ele>1583.0</ele>
  <time>2026-08-28T17:50:22Z</time>
  <course>0.0</course>
  <speed>0.0</speed>
  <fix>3d</fix>
</trkpt>
<trkpt lat="40.0713749" lon="-105.229789">
  <ele>1583.0</ele>
  <time>2026-08-28T17:50:22Z</time>
  <course>247.94</course>
  <speed>0.022360679774997897</speed>
  <fix>3d</fix>
</trkpt>
<trkpt lat="40.0713749" lon="-105.229789">
  <ele>1583.0</ele>
  <time>2026-08-28T17:50:22Z</time>
  <course>0.0</course>
  <speed>0.0</speed>
  <fix>3d</fix>
</trkpt>
<trkpt lat="40.0713749" lon="-105.229789">
  <ele>1583.0</ele>
  <time>2026-08-28T17:50:22Z</time>
  <course>247.93</course>
  <speed>0.022360679774997897</speed>
  <fix>3d</fix>
</trkpt>
<trkpt lat="40.0713749" lon="-105.229789">
  <ele>1583.0</ele>
  <time>2026-08-28T17:50:22Z</time>
  <course>0.0</course>
  <speed>0.0</speed>
  <fix>3d</fix>
</trkpt>
<trkpt lat="40.0713749" lon="-105.229789">
  <ele>1583.0</ele>
  <time>2026-08-28T17:50:22Z</time>
  <course>247.93</course>
  <speed>0.022360679774997897</speed>
  <fix>3d</fix>
</trkpt>
<trkpt lat="40.0713749" lon="-105.229789">
  <ele>1583.0</ele>
  <time>2026-08-28T17:50:22Z</time>
  <course>0.0</course>
  <speed>0.0</speed>
  <fix>3d</fix>
</trkpt>
<trkpt lat="40.0713749" lon="-105.229789">
  <ele>1583.0</ele>
  <time>2026-08-28T17:50:22Z</time>
  <course>247.92</course>
  <speed>0.022360679774997897</speed>
  <fix>3d</fix>
</trkpt>
<trkpt lat="40.0713749" lon="-105.229789">
  <ele>1583.0</ele>
  <time>2026-08-28T17:50:22Z</time>
  <course>0.0</course>
  <speed>0.0</speed>
  <fix>3d</fix>
</trkpt>
<trkpt lat="40.0713749" lon="-105.229789">
  <ele>1583.0</ele>
  <time>2026-08-28T17:50:22Z</time>
  <course>247.92</course>
  <speed>0.022360679774997897</speed>
  <fix>3d</fix>
</trkpt>
<trkpt lat="40.0713749" lon="-105.229789">
  <ele>1583.0</ele>
  <time>2026-08-28T17:50:22Z</time>
  <course>0.0</course>
  <speed>0.0</speed>
  <fix>3d</fix>
</trkpt>
<trkpt lat="40.0713749" lon="-105.229789">
  <ele>1583.0</ele>
  <time>2026-08-28T17:50:22Z</time>
  <course>247.92</course>
  <speed>0.022360679774997897</speed>
  <fix>3d</fix>
</trkpt>
<trkpt lat="40.0713749" lon="-105.229789">
  <ele>1583.0</ele>
  <time>2026-08-28T17:50:22Z</time>
  <course>0.0</course>
  <speed>0.0</speed>
  <fix>3d</fix>
</trkpt>
<trkpt lat="40.0713749" lon="-105.229789">
  <ele>1583.0</ele>
  <time>2026-08-28T17:50:22Z</time>
  <course>247.91</course>
  <speed>0.022360679774997897</speed>
  <fix>3d</fix>
</trkpt>
<trkpt lat="40.0713749" lon="-105.229789">
  <ele>1583.0</ele>
  <time>2026-08-28T17:50:22Z</time>
  <course>0.0</course>
  <speed>0.0</speed>
  <fix>3d</fix>
</trkpt>
<trkpt lat="40.0713749" lon="-105.229789">
  <ele>1583.0</ele>
  <time>2026-08-28T17:50:22Z</time>
  <course>247.91</course>
  <speed>0.022360679774997897</speed>
  <fix>3d</fix>
</trkpt>
<trkpt lat="40.0713749" lon="-105.229789">
  <ele>1583.0</ele>
  <time>2026-08-28T17:50:22Z</time>
  <course>0.0</course>
  <speed>0.0</speed>
  <fix>3d</fix>
</trkpt>
<trkpt lat="40.0713749" lon="-105.229789">
  <ele>1583.0</ele>
  <time>2026-08-28T17:50:22Z</time>
  <course>247.9</course>
  <speed>0.022360679774997897</speed>
  <fix>3d</fix>
</trkpt>
<trkpt lat="40.0713749" lon="-105.229789">
  <ele>1583.0</ele>
  <time>2026-08-28T17:50:22Z</time>
  <course>0.0</course>
  <speed>0.0</speed>
  <fix>3d</fix>
</trkpt>
<trkpt lat="40.0713749" lon="-105.229789">
  <ele>1583.0</ele>
  <time>2026-08-28T17:50:22Z</time>
  <course>247.9</course>
  <speed>0.022360679774997897</speed>
  <fix>3d</fix>
</trkpt>
<trkpt lat="40.0713749" lon="-105.229789">
  <ele>1583.0</ele>
  <time>2026-08-28T17:50:22Z</time>
  <course>0.0</course>
  <speed>0.0</speed>
  <fix>3d</fix>
</trkpt>
<trkpt lat="40.0713749" lon="-105.229789">
  <ele>1583.0</ele>
  <time>2026-08-28T17:50:22Z</time>
  <course>247.89</course>
  <speed>0.022360679774997897</speed>
  <fix>3d</fix>
</trkpt>
<trkpt lat="40.0713749" lon="-105.229789">
  <ele>1583.0</ele>
  <time>2026-08-28T17:50:22Z</time>
  <course>0.0</course>
  <speed>0.0</speed>
  <fix>3d</fix>
</trkpt>
<trkpt lat="40.0713749" lon="-105.229789">
  <ele>1583.0</ele>
  <time>2026-08-28T17:50:22Z</time>
  <course>247.89</course>
  <speed>0.022360679774997897</speed>
  <fix>3d</fix>
</trkpt>
<trkpt lat="40.0713749" lon="-105.229789">
  <ele>1583.0</ele>
  <time>2026-08-28T17:50:22Z</time>
  <course>0.0</course>
  <speed>0.0</speed>
  <fix>3d</fix>
</trkpt>
<trkpt lat="40.0713749" lon="-105.229789">
  <ele>1583.0</ele>
  <time>2026-08-28T17:50:22Z</time>
  <course>247.89</course>
  <speed>0.022360679774997897</speed>
  <fix>3d</fix>
</trkpt>
<trkpt lat="40.0713749" lon="-105.229789">
  <ele>1583.0</ele>
  <time>2026-08-28T17:50:22Z</time>
  <course>0.0</course>
  <speed>0.0</speed>
  <fix>3d</fix>
</trkpt>
<trkpt lat="40.0713749" lon="-105.229789">
  <ele>1583.0</ele>
  <time>2026-08-28T17:50:22Z</time>
  <course>247.88</course>
  <speed>0.0316227766016838</speed>
  <fix>3d</fix>
</trkpt>
<trkpt lat="40.0713749" lon="-105.229789">
  <ele>1583.0</ele>
  <time>2026-08-28T17:50:22Z</time>
  <course>0.0</course>
  <speed>0.0</speed>
  <fix>3d</fix>
</trkpt>
<trkpt lat="40.0713749" lon="-105.229789">
  <ele>1583.0</ele>
  <time>2026-08-28T17:50:22Z</time>
  <course>247.88</course>
  <speed>0.0316227766016838</speed>
  <fix>3d</fix>
</trkpt>
<trkpt lat="40.0713749" lon="-105.229789">
  <ele>1583.0</ele>
  <time>2026-08-28T17:50:22Z</time>
  <course>0.0</course>
  <speed>0.0</speed>
  <fix>3d</fix>
</trkpt>
<trkpt lat="40.0713749" lon="-105.229789">
  <ele>1583.0</ele>
  <time>2026-08-28T17:50:22Z</time>
  <course>247.87</course>
  <speed>0.0316227766016838</speed>
  <fix>3d</fix>
</trkpt>
<trkpt lat="40.0713749" lon="-105.229789">
  <ele>1583.0</ele>
  <time>2026-08-28T17:50:22Z</time>
  <course>0.0</course>
  <speed>0.0</speed>
  <fix>3d</fix>
</trkpt>
<trkpt lat="40.0713749" lon="-105.229789">
  <ele>1583.0</ele>
  <time>2026-08-28T17:50:22Z</time>
  <course>247.87</course>
  <speed>0.0316227766016838</speed>
  <fix>3d</fix>
</trkpt>
<trkpt lat="40.0713749" lon="-105.229789">
  <ele>1583.0</ele>
  <time>2026-08-28T17:50:22Z</time>
  <course>0.0</course>
  <speed>0.0</speed>
  <fix>3d</fix>
</trkpt>
<trkpt lat="40.0713749" lon="-105.229789">
  <ele>1583.0</ele>
  <time>2026-08-28T17:50:22Z</time>
  <course>247.87</course>
  <speed>0.0316227766016838</speed>
  <fix>3d</fix>
</trkpt>
<trkpt lat="40.0713749" lon="-105.229789">
  <ele>1583.0</ele>
  <time>2026-08-28T17:50:22Z</time>
  <course>0.0</course>
  <speed>0.0</speed>
  <fix>3d</fix>
</trkpt>
<trkpt lat="40.0713749" lon="-105.229789">
  <ele>1583.0</ele>
  <time>2026-08-28T17:50:22Z</time>
  <course>247.86</course>
  <speed>0.0316227766016838</speed>
  <fix>3d</fix>
</trkpt>
<trkpt lat="40.0713749" lon="-105.229789">
  <ele>1583.0</ele>
  <time>2026-08-28T17:50:22Z</time>
  <course>0.0</course>
  <speed>0.0</speed>
  <fix>3d</fix>
</trkpt>
<trkpt lat="40.0713749" lon="-105.229789">
  <ele>1583.0</ele>
  <time>2026-08-28T17:50:22Z</time>
  <course>247.86</course>
  <speed>0.0316227766016838</speed>
  <fix>3d</fix>
</trkpt>
<trkpt lat="40.0713749" lon="-105.229789">
  <ele>1583.0</ele>
  <time>2026-08-28T17:50:22Z</time>
  <course>0.0</course>
  <speed>0.0</speed>
  <fix>3d</fix>
</trkpt>
<trkpt lat="40.0713749" lon="-105.229789">
  <ele>1583.0</ele>
  <time>2026-08-28T17:50:22Z</time>
  <course>247.85</course>
  <speed>0.0316227766016838</speed>
  <fix>3d</fix>
</trkpt>
<trkpt lat="40.0713749" lon="-105.229789">
  <ele>1583.0</ele>
  <time>2026-08-28T17:50:22Z</time>
  <course>0.0</course>
  <speed>0.0</speed>
  <fix>3d</fix>
</trkpt>
<trkpt lat="40.0713749" lon="-105.229789">
  <ele>1583.0</ele>
  <time>2026-08-28T17:50:22Z</time>
  <course>247.85</course>
  <speed>0.0316227766016838</speed>
  <fix>3d</fix>
</trkpt>
<trkpt lat="40.0713749" lon="-105.229789">
  <ele>1583.0</ele>
  <time>2026-08-28T17:50:22Z</time>
  <course>0.0</course>
  <speed>0.0</speed>
  <fix>3d</fix>
</trkpt>
<trkpt lat="40.0713749" lon="-105.229789">
  <ele>1583.0</ele>
  <time>2026-08-28T17:50:22Z</time>
  <course>247.85</course>
  <speed>0.0316227766016838</speed>
  <fix>3d</fix>
</trkpt>
<trkpt lat="40.0713749" lon="-105.229789">
  <ele>1583.0</ele>
  <time>2026-08-28T17:50:22Z</time>
  <course>0.0</course>
  <speed>0.0</speed>
  <fix>3d</fix>
</trkpt>
<trkpt lat="40.0713749" lon="-105.229789">
  <ele>1583.0</ele>
  <time>2026-08-28T17:50:22Z</time>
  <course>247.84</course>
  <speed>0.0316227766016838</speed>
  <fix>3d</fix>
</trkpt>
<trkpt lat="40.0713749" lon="-105.229789">
  <ele>1583.0</ele>
  <time>2026-08-28T17:50:22Z</time>
  <course>0.0</course>
  <speed>0.0</speed>
  <fix>3d</fix>
</trkpt>
<trkpt lat="40.0713749" lon="-105.229789">
  <ele>1583.0</ele>
  <time>2026-08-28T17:50:22Z</time>
  <course>247.84</course>
  <speed>0.0316227766016838</speed>
  <fix>3d</fix>
</trkpt>
<trkpt lat="40.0713749" lon="-105.229789">
  <ele>1583.0</ele>
  <time>2026-08-28T17:50:22Z</time>
  <course>0.0</course>
  <speed>0.0</speed>
  <fix>3d</fix>
</trkpt>
<trkpt lat="40.0713749" lon="-105.229789">
  <ele>1583.0</ele>
  <time>2026-08-28T17:50:22Z</time>
  <course>247.83</course>
  <speed>0.0316227766016838</speed>
  <fix>3d</fix>
</trkpt>
<trkpt lat="40.0713749" lon="-105.229789">
  <ele>1583.0</ele>
  <time>2026-08-28T17:50:22Z</time>
  <course>0.0</course>
  <speed>0.0</speed>
  <fix>3d</fix>
</trkpt>
<trkpt lat="40.0713749" lon="-105.229789">
  <ele>1583.0</ele>
  <time>2026-08-28T17:50:22Z</time>
  <course>247.83</course>
  <speed>0.0316227766016838</speed>
  <fix>3d</fix>
</trkpt>
<trkpt lat="40.0713749" lon="-105.229789">
  <ele>1583.0</ele>
  <time>2026-08-28T17:50:22Z</time>
  <course>0.0</course>
  <speed>0.0</speed>
  <fix>3d</fix>
</trkpt>
<trkpt lat="40.0713749" lon="-105.229789">
  <ele>1583.0</ele>
  <time>2026-08-28T17:50:22Z</time>
  <course>247.83</course>
  <speed>0.0316227766016838</speed>
  <fix>3d</fix>
</trkpt>
<trkpt lat="40.0713749" lon="-105.229789">
  <ele>1583.0</ele>
  <time>2026-08-28T17:50:22Z</time>
  <course>0.0</course>
  <speed>0.0</speed>
  <fix>3d</fix>
</trkpt>
<trkpt lat="40.0713749" lon="-105.229789">
  <ele>1583.0</ele>
  <time>2026-08-28T17:50:22Z</time>
  <course>247.82</course>
  <speed>0.0316227766016838</speed>
  <fix>3d</fix>
</trkpt>
<trkpt lat="40.0713749" lon="-105.229789">
  <ele>1583.0</ele>
  <time>2026-08-28T17:50:22Z</time>
  <course>0.0</course>
  <speed>0.0</speed>
  <fix>3d</fix>
</trkpt>
<trkpt lat="40.0713749" lon="-105.229789">
  <ele>1583.0</ele>
  <time>2026-08-28T17:50:22Z</time>
  <course>247.82</course>
  <speed>0.0316227766016838</speed>
  <fix>3d</fix>
</trkpt>
<trkpt lat="40.0713749" lon="-105.229789">
  <ele>1583.0</ele>
  <time>2026-08-28T17:50:22Z</time>
  <course>0.0</course>
  <speed>0.0</speed>
  <fix>3d</fix>
</trkpt>
<trkpt lat="40.0713749" lon="-105.229789">
  <ele>1583.0</ele>
  <time>2026-08-28T17:50:22Z</time>
  <course>247.82</course>
  <speed>0.0316227766016838</speed>
  <fix>3d</fix>
</trkpt>
<trkpt lat="40.0713749" lon="-105.229789">
  <ele>1583.0</ele>
  <time>2026-08-28T17:50:22Z</time>
  <course>0.0</course>
  <speed>0.0</speed>
  <fix>3d</fix>
</trkpt>
<trkpt lat="40.0713749" lon="-105.229789">
  <ele>1583.0</ele>
  <time>2026-08-28T17:50:22Z</time>
  <course>247.81</course>
  <speed>0.0316227766016838</speed>
  <fix>3d</fix>
</trkpt>
<trkpt lat="40.0713749" lon="-105.229789">
  <ele>1583.0</ele>
  <time>2026-08-28T17:50:22Z</time>
  <course>0.0</course>
  <speed>0.0</speed>
  <fix>3d</fix>
</trkpt>
<trkpt lat="40.0713749" lon="-105.229789">
  <ele>1583.0</ele>
  <time>2026-08-28T17:50:22Z</time>
  <course>247.81</course>
  <speed>0.0316227766016838</speed>
  <fix>3d</fix>
</trkpt>
<trkpt lat="40.0713749" lon="-105.229789">
  <ele>1583.0</ele>
  <time>2026-08-28T17:50:22Z</time>
  <course>0.0</course>
  <speed>0.0</speed>
  <fix>3d</fix>
</trkpt>
<trkpt lat="40.0713749" lon="-105.229789">
  <ele>1583.0</ele>
  <time>2026-08-28T17:50:22Z</time>
  <course>247.8</course>
  <speed>0.0316227766016838</speed>
  <fix>3d</fix>
</trkpt>
<trkpt lat="40.0713749" lon="-105.229789">
  <ele>1583.0</ele>
  <time>2026-08-28T17:50:22Z</time>
  <course>0.0</course>
  <speed>0.0</speed>
  <fix>3d</fix>
</trkpt>
<trkpt lat="40.0713749" lon="-105.229789">
  <ele>1583.0</ele>
  <time>2026-08-28T17:50:22Z</time>
  <course>247.8</course>
  <speed>0.0316227766016838</speed>
  <fix>3d</fix>
</trkpt>
<trkpt lat="40.0713749" lon="-105.229789">
  <ele>1583.0</ele>
  <time>2026-08-28T17:50:22Z</time>
  <course>0.0</course>
  <speed>0.0</speed>
  <fix>3d</fix>
</trkpt>
<trkpt lat="40.0713749" lon="-105.229789">
  <ele>1583.0</ele>
  <time>2026-08-28T17:50:22Z</time>
  <course>247.8</course>
  <speed>0.0316227766016838</speed>
  <fix>3d</fix>
</trkpt>
<trkpt lat="40.0713749" lon="-105.229789">
  <ele>1583.0</ele>
  <time>2026-08-28T17:50:22Z</time>
  <course>0.0</course>
  <speed>0.0</speed>
  <fix>3d</fix>
</trkpt>
<trkpt lat="40.0713749" lon="-105.229789">
  <ele>1583.0</ele>
  <time>2026-08-28T17:50:22Z</time>
  <course>247.79</course>
  <speed>0.0316227766016838</speed>
  <fix>3d</fix>
</trkpt>
<trkpt lat="40.0713749" lon="-105.229789">
  <ele>1583.0</ele>
  <time>2026-08-28T17:50:22Z</time>
  <course>0.0</course>
  <speed>0.0</speed>
  <fix>3d</fix>
</trkpt>
<trkpt lat="40.0713749" lon="-105.229789">
  <ele>1583.0</ele>
  <time>2026-08-28T17:50:22Z</time>
  <course>247.79</course>
  <speed>0.0316227766016838</speed>
  <fix>3d</fix>
</trkpt>
<trkpt lat="40.0713749" lon="-105.229789">
  <ele>1583.0</ele>
  <time>2026-08-28T17:50:22Z</time>
  <course>0.0</course>
  <speed>0.0</speed>
  <fix>3d</fix>
</trkpt>
<trkpt lat="40.0713749" lon="-105.229789">
  <ele>1583.0</ele>
  <time>2026-08-28T17:50:22Z</time>
  <course>247.79</course>
  <speed>0.0316227766016838</speed>
  <fix>3d</fix>
</trkpt>
<trkpt lat="40.0713749" lon="-105.229789">
  <ele>1583.0</ele>
  <time>2026-08-28T17:50:22Z</time>
  <course>0.0</course>
  <speed>0.0</speed>
  <fix>3d</fix>
</trkpt>
<trkpt lat="40.0713749" lon="-105.229789">
  <ele>1583.0</ele>
  <time>2026-08-28T17:50:22Z</time>
  <course>247.78</course>
  <speed>0.0316227766016838</speed>
  <fix>3d</fix>
</trkpt>
<trkpt lat="40.0713749" lon="-105.229789">
  <ele>1583.0</ele>
  <time>2026-08-28T17:50:22Z</time>
  <course>0.0</course>
  <speed>0.0</speed>
  <fix>3d</fix>
</trkpt>
<trkpt lat="40.0713749" lon="-105.229789">
  <ele>1583.0</ele>
  <time>2026-08-28T17:50:22Z</time>
  <course>247.78</course>
  <speed>0.0316227766016838</speed>
  <fix>3d</fix>
</trkpt>
<trkpt lat="40.0713749" lon="-105.229789">
  <ele>1583.0</ele>
  <time>2026-08-28T17:50:22Z</time>
  <course>0.0</course>
  <speed>0.0</speed>
  <fix>3d</fix>
</trkpt>
<trkpt lat="40.0713749" lon="-105.229789">
  <ele>1583.0</ele>
  <time>2026-08-28T17:50:22Z</time>
  <course>247.78</course>
  <speed>0.0316227766016838</speed>
  <fix>3d</fix>
</trkpt>
<trkpt lat="40.0713749" lon="-105.229789">
  <ele>1583.0</ele>
  <time>2026-08-28T17:50:22Z</time>
  <course>0.0</course>
  <speed>0.0</speed>
  <fix>3d</fix>
</trkpt>
<trkpt lat="40.0713749" lon="-105.229789">
  <ele>1583.0</ele>
  <time>2026-08-28T17:50:22Z</time>
  <course>247.77</course>
  <speed>0.0316227766016838</speed>
  <fix>3d</fix>
</trkpt>
<trkpt lat="40.0713749" lon="-105.229789">
  <ele>1583.0</ele>
  <time>2026-08-28T17:50:22Z</time>
  <course>0.0</course>
  <speed>0.0</speed>
  <fix>3d</fix>
</trkpt>
<trkpt lat="40.0713749" lon="-105.229789">
  <ele>1583.0</ele>
  <time>2026-08-28T17:50:22Z</time>
  <course>247.77</course>
  <speed>0.0316227766016838</speed>
  <fix>3d</fix>
</trkpt>
<trkpt lat="40.0713749" lon="-105.229789">
  <ele>1583.0</ele>
  <time>2026-08-28T17:50:22Z</time>
  <course>0.0</course>
  <speed>0.0</speed>
  <fix>3d</fix>
</trkpt>
<trkpt lat="40.0713749" lon="-105.229789">
  <ele>1583.0</ele>
  <time>2026-08-28T17:50:22Z</time>
  <course>247.76</course>
  <speed>0.0316227766016838</speed>
  <fix>3d</fix>
</trkpt>
<trkpt lat="40.0713749" lon="-105.229789">
  <ele>1583.0</ele>
  <time>2026-08-28T17:50:22Z</time>
  <course>0.0</course>
  <speed>0.0</speed>
  <fix>3d</fix>
</trkpt>
<trkpt lat="40.0713749" lon="-105.229789">
  <ele>1583.0</ele>
  <time>2026-08-28T17:50:22Z</time>
  <course>247.76</course>
  <speed>0.0316227766016838</speed>
  <fix>3d</fix>
</trkpt>
<trkpt lat="40.0713749" lon="-105.229789">
  <ele>1583.0</ele>
  <time>2026-08-28T17:50:22Z</time>
  <course>0.0</course>
  <speed>0.0</speed>
  <fix>3d</fix>
</trkpt>
<trkpt lat="40.0713749" lon="-105.229789">
  <ele>1583.0</ele>
  <time>2026-08-28T17:50:22Z</time>
  <course>247.76</course>
  <speed>0.0316227766016838</speed>
  <fix>3d</fix>
</trkpt>
<trkpt lat="40.0713749" lon="-105.229789">
  <ele>1583.0</ele>
  <time>2026-08-28T17:50:22Z</time>
  <course>0.0</course>
  <speed>0.0</speed>
  <fix>3d</fix>
</trkpt>
<trkpt lat="40.0713749" lon="-105.229789">
  <ele>1583.0</ele>
  <time>2026-08-28T17:50:22Z</time>
  <course>247.75</course>
  <speed>0.0316227766016838</speed>
  <fix>3d</fix>
</trkpt>
<trkpt lat="40.0713749" lon="-105.229789">
  <ele>1583.0</ele>
  <time>2026-08-28T17:50:22Z</time>
  <course>0.0</course>
  <speed>0.0</speed>
  <fix>3d</fix>
</trkpt>
<trkpt lat="40.0713749" lon="-105.229789">
  <ele>1583.0</ele>
  <time>2026-08-28T17:50:22Z</time>
  <course>247.75</course>
  <speed>0.0316227766016838</speed>
  <fix>3d</fix>
</trkpt>
<trkpt lat="40.0713749" lon="-105.229789">
  <ele>1583.0</ele>
  <time>2026-08-28T17:50:22Z</time>
  <course>0.0</course>
  <speed>0.0</speed>
  <fix>3d</fix>
</trkpt>
<trkpt lat="40.0713749" lon="-105.229789">
  <ele>1583.0</ele>
  <time>2026-08-28T17:50:22Z</time>
  <course>247.75</course>
  <speed>0.0316227766016838</speed>
  <fix>3d</fix>
</trkpt>
<trkpt lat="40.0713749" lon="-105.229789">
  <ele>1583.0</ele>
  <time>2026-08-28T17:50:22Z</time>
  <course>0.0</course>
  <speed>0.0</speed>
  <fix>3d</fix>
</trkpt>
<trkpt lat="40.0713749" lon="-105.229789">
  <ele>1583.0</ele>
  <time>2026-08-28T17:50:22Z</time>
  <course>247.74</course>
  <speed>0.0316227766016838</speed>
  <fix>3d</fix>
</trkpt>
<trkpt lat="40.0713749" lon="-105.229789">
  <ele>1583.0</ele>
  <time>2026-08-28T17:50:22Z</time>
  <course>0.0</course>
  <speed>0.0</speed>
  <fix>3d</fix>
</trkpt>
<trkpt lat="40.0713749" lon="-105.229789">
  <ele>1583.0</ele>
  <time>2026-08-28T17:50:22Z</time>
  <course>247.74</course>
  <speed>0.0316227766016838</speed>
  <fix>3d</fix>
</trkpt>
<trkpt lat="40.0713749" lon="-105.229789">
  <ele>1583.0</ele>
  <time>2026-08-28T17:50:22Z</time>
  <course>0.0</course>
  <speed>0.0</speed>
  <fix>3d</fix>
</trkpt>
<trkpt lat="40.0713749" lon="-105.229789">
  <ele>1583.0</ele>
  <time>2026-08-28T17:50:22Z</time>
  <course>247.74</course>
  <speed>0.0316227766016838</speed>
  <fix>3d</fix>
</trkpt>
<trkpt lat="40.0713749" lon="-105.229789">
  <ele>1583.0</ele>
  <time>2026-08-28T17:50:22Z</time>
  <course>0.0</course>
  <speed>0.0</speed>
  <fix>3d</fix>
</trkpt>
<trkpt lat="40.0713749" lon="-105.229789">
  <ele>1583.0</ele>
  <time>2026-08-28T17:50:22Z</time>
  <course>247.73</course>
  <speed>0.0316227766016838</speed>
  <fix>3d</fix>
</trkpt>
<trkpt lat="40.0713749" lon="-105.229789">
  <ele>1583.0</ele>
  <time>2026-08-28T17:50:22Z</time>
  <course>0.0</course>
  <speed>0.0</speed>
  <fix>3d</fix>
</trkpt>
<trkpt lat="40.0713749" lon="-105.229789">
  <ele>1583.0</ele>
  <time>2026-08-28T17:50:22Z</time>
  <course>247.73</course>
  <speed>0.0316227766016838</speed>
  <fix>3d</fix>
</trkpt>
<trkpt lat="40.0713749" lon="-105.229789">
  <ele>1583.0</ele>
  <time>2026-08-28T17:50:22Z</time>
  <course>0.0</course>
  <speed>0.0</speed>
  <fix>3d</fix>
</trkpt>
<trkpt lat="40.0713749" lon="-105.229789">
  <ele>1583.0</ele>
  <time>2026-08-28T17:50:22Z</time>
  <course>247.73</course>
  <speed>0.0316227766016838</speed>
  <fix>3d</fix>
</trkpt>
<trkpt lat="40.0713749" lon="-105.229789">
  <ele>1583.0</ele>
  <time>2026-08-28T17:50:22Z</time>
  <course>0.0</course>
  <speed>0.0</speed>
  <fix>3d</fix>
</trkpt>
<trkpt lat="40.0713749" lon="-105.229789">
  <ele>1583.0</ele>
  <time>2026-08-28T17:50:22Z</time>
  <course>247.72</course>
  <speed>0.0316227766016838</speed>
  <fix>3d</fix>
</trkpt>
<trkpt lat="40.0713749" lon="-105.229789">
  <ele>1583.0</ele>
  <time>2026-08-28T17:50:22Z</time>
  <course>0.0</course>
  <speed>0.0</speed>
  <fix>3d</fix>
</trkpt>
<trkpt lat="40.0713749" lon="-105.229789">
  <ele>1583.0</ele>
  <time>2026-08-28T17:50:22Z</time>
  <course>247.72</course>
  <speed>0.0316227766016838</speed>
  <fix>3d</fix>
</trkpt>
<trkpt lat="40.0713749" lon="-105.229789">
  <ele>1583.0</ele>
  <time>2026-08-28T17:50:22Z</time>
  <course>0.0</course>
  <speed>0.0</speed>
  <fix>3d</fix>
</trkpt>
<trkpt lat="40.0713749" lon="-105.229789">
  <ele>1583.0</ele>
  <time>2026-08-28T17:50:22Z</time>
  <course>247.72</course>
  <speed>0.0316227766016838</speed>
  <fix>3d</fix>
</trkpt>
<trkpt lat="40.0713749" lon="-105.229789">
  <ele>1583.0</ele>
  <time>2026-08-28T17:50:22Z</time>
  <course>0.0</course>
  <speed>0.0</speed>
  <fix>3d</fix>
</trkpt>
<trkpt lat="40.0713749" lon="-105.229789">
  <ele>1583.0</ele>
  <time>2026-08-28T17:50:22Z</time>
  <course>247.71</course>
  <speed>0.0316227766016838</speed>
  <fix>3d</fix>
</trkpt>
<trkpt lat="40.0713749" lon="-105.229789">
  <ele>1583.0</ele>
  <time>2026-08-28T17:50:22Z</time>
  <course>0.0</course>
  <speed>0.0</speed>
  <fix>3d</fix>
</trkpt>
<trkpt lat="40.0713749" lon="-105.229789">
  <ele>1583.0</ele>
  <time>2026-08-28T17:50:22Z</time>
  <course>247.71</course>
  <speed>0.0316227766016838</speed>
  <fix>3d</fix>
</trkpt>
<trkpt lat="40.0713749" lon="-105.229789">
  <ele>1583.0</ele>
  <time>2026-08-28T17:50:22Z</time>
  <course>0.0</course>
  <speed>0.0</speed>
  <fix>3d</fix>
</trkpt>
<trkpt lat="40.0713749" lon="-105.229789">
  <ele>1583.0</ele>
  <time>2026-08-28T17:50:22Z</time>
  <course>247.71</course>
  <speed>0.0316227766016838</speed>
  <fix>3d</fix>
</trkpt>
<trkpt lat="40.0713749" lon="-105.229789">
  <ele>1583.0</ele>
  <time>2026-08-28T17:50:22Z</time>
  <course>0.0</course>
  <speed>0.0</speed>
  <fix>3d</fix>
</trkpt>
<trkpt lat="40.0713749" lon="-105.229789">
  <ele>1583.0</ele>
  <time>2026-08-28T17:50:22Z</time>
  <course>247.7</course>
  <speed>0.0316227766016838</speed>
  <fix>3d</fix>
</trkpt>
<trkpt lat="40.0713749" lon="-105.229789">
  <ele>1583.0</ele>
  <time>2026-08-28T17:50:22Z</time>
  <course>0.0</course>
  <speed>0.0</speed>
  <fix>3d</fix>
</trkpt>
<trkpt lat="40.0713749" lon="-105.229789">
  <ele>1583.0</ele>
  <time>2026-08-28T17:50:22Z</time>
  <course>247.7</course>
  <speed>0.0316227766016838</speed>
  <fix>3d</fix>
</trkpt>
<trkpt lat="40.0713749" lon="-105.229789">
  <ele>1583.0</ele>
  <time>2026-08-28T17:50:22Z</time>
  <course>0.0</course>
  <speed>0.0</speed>
  <fix>3d</fix>
</trkpt>
<trkpt lat="40.0713749" lon="-105.229789">
  <ele>1583.0</ele>
  <time>2026-08-28T17:50:22Z</time>
  <course>247.7</course>
  <speed>0.0316227766016838</speed>
  <fix>3d</fix>
</trkpt>
<trkpt lat="40.0713749" lon="-105.229789">
  <ele>1583.0</ele>
  <time>2026-08-28T17:50:22Z</time>
  <course>0.0</course>
  <speed>0.0</speed>
  <fix>3d</fix>
</trkpt>
<trkpt lat="40.0713749" lon="-105.229789">
  <ele>1583.0</ele>
  <time>2026-08-28T17:50:22Z</time>
  <course>247.69</course>
  <speed>0.0316227766016838</speed>
  <fix>3d</fix>
</trkpt>
<trkpt lat="40.0713749" lon="-105.229789">
  <ele>1583.0</ele>
  <time>2026-08-28T17:50:22Z</time>
  <course>0.0</course>
  <speed>0.0</speed>
  <fix>3d</fix>
</trkpt>
<trkpt lat="40.0713749" lon="-105.229789">
  <ele>1583.0</ele>
  <time>2026-08-28T17:50:22Z</time>
  <course>247.69</course>
  <speed>0.0316227766016838</speed>
  <fix>3d</fix>
</trkpt>
<trkpt lat="40.0713749" lon="-105.229789">
  <ele>1583.0</ele>
  <time>2026-08-28T17:50:22Z</time>
  <course>0.0</course>
  <speed>0.0</speed>
  <fix>3d</fix>
</trkpt>
<trkpt lat="40.0713749" lon="-105.229789">
  <ele>1583.0</ele>
  <time>2026-08-28T17:50:22Z</time>
  <course>247.69</course>
  <speed>0.0316227766016838</speed>
  <fix>3d</fix>
</trkpt>
<trkpt lat="40.0713749" lon="-105.229789">
  <ele>1583.0</ele>
  <time>2026-08-28T17:50:22Z</time>
  <course>0.0</course>
  <speed>0.0</speed>
  <fix>3d</fix>
</trkpt>
<trkpt lat="40.0713749" lon="-105.229789">
  <ele>1583.0</ele>
  <time>2026-08-28T17:50:22Z</time>
  <course>247.68</course>
  <speed>0.0316227766016838</speed>
  <fix>3d</fix>
</trkpt>
<trkpt lat="40.0713749" lon="-105.229789">
  <ele>1583.0</ele>
  <time>2026-08-28T17:50:22Z</time>
  <course>0.0</course>
  <speed>0.0</speed>
  <fix>3d</fix>
</trkpt>
<trkpt lat="40.0713749" lon="-105.229789">
  <ele>1583.0</ele>
  <time>2026-08-28T17:50:22Z</time>
  <course>247.68</course>
  <speed>0.0316227766016838</speed>
  <fix>3d</fix>
</trkpt>
<trkpt lat="40.0713749" lon="-105.229789">
  <ele>1583.0</ele>
  <time>2026-08-28T17:50:22Z</time>
  <course>0.0</course>
  <speed>0.0</speed>
  <fix>3d</fix>
</trkpt>
<trkpt lat="40.0713749" lon="-105.229789">
  <ele>1583.0</ele>
  <time>2026-08-28T17:50:22Z</time>
  <course>247.68</course>
  <speed>0.0316227766016838</speed>
  <fix>3d</fix>
</trkpt>
<trkpt lat="40.0713749" lon="-105.229789">
  <ele>1583.0</ele>
  <time>2026-08-28T17:50:22Z</time>
  <course>0.0</course>
  <speed>0.0</speed>
  <fix>3d</fix>
</trkpt>
<trkpt lat="40.0713749" lon="-105.229789">
  <ele>1583.0</ele>
  <time>2026-08-28T17:50:22Z</time>
  <course>247.67</course>
  <speed>0.0316227766016838</speed>
  <fix>3d</fix>
</trkpt>
<trkpt lat="40.0713749" lon="-105.229789">
  <ele>1583.0</ele>
  <time>2026-08-28T17:50:22Z</time>
  <course>0.0</course>
  <speed>0.0</speed>
  <fix>3d</fix>
</trkpt>
<trkpt lat="40.0713749" lon="-105.229789">
  <ele>1583.0</ele>
  <time>2026-08-28T17:50:22Z</time>
  <course>247.67</course>
  <speed>0.0316227766016838</speed>
  <fix>3d</fix>
</trkpt>
<trkpt lat="40.0713749" lon="-105.229789">
  <ele>1583.0</ele>
  <time>2026-08-28T17:50:22Z</time>
  <course>0.0</course>
  <speed>0.0</speed>
  <fix>3d</fix>
</trkpt>
<trkpt lat="40.0713749" lon="-105.229789">
  <ele>1583.0</ele>
  <time>2026-08-28T17:50:22Z</time>
  <course>247.67</course>
  <speed>0.0316227766016838</speed>
  <fix>3d</fix>
</trkpt>
<trkpt lat="40.0713749" lon="-105.229789">
  <ele>1583.0</ele>
  <time>2026-08-28T17:50:22Z</time>
  <course>0.0</course>
  <speed>0.0</speed>
  <fix>3d</fix>
</trkpt>
<trkpt lat="40.0713749" lon="-105.229789">
  <ele>1583.0</ele>
  <time>2026-08-28T17:50:22Z</time>
  <course>247.66</course>
  <speed>0.0316227766016838</speed>
  <fix>3d</fix>
</trkpt>
<trkpt lat="40.0713749" lon="-105.229789">
  <ele>1583.0</ele>
  <time>2026-08-28T17:50:22Z</time>
  <course>0.0</course>
  <speed>0.0</speed>
  <fix>3d</fix>
</trkpt>
<trkpt lat="40.0713749" lon="-105.229789">
  <ele>1583.0</ele>
  <time>2026-08-28T17:50:22Z</time>
  <course>247.66</course>
  <speed>0.0316227766016838</speed>
  <fix>3d</fix>
</trkpt>
<trkpt lat="40.0713749" lon="-105.229789">
  <ele>1583.0</ele>
  <time>2026-08-28T17:50:22Z</time>
  <course>0.0</course>
  <speed>0.0</speed>
  <fix>3d</fix>
</trkpt>
<trkpt lat="40.0713749" lon="-105.229789">
  <ele>1583.0</ele>
  <time>2026-08-28T17:50:22Z</time>
  <course>247.66</course>
  <speed>0.0316227766016838</speed>
  <fix>3d</fix>
</trkpt>
<trkpt lat="40.0713749" lon="-105.229789">
  <ele>1583.0</ele>
  <time>2026-08-28T17:50:22Z</time>
  <course>0.0</course>
  <speed>0.0</speed>
  <fix>3d</fix>
</trkpt>
<trkpt lat="40.0713749" lon="-105.229789">
  <ele>1583.0</ele>
  <time>2026-08-28T17:50:22Z</time>
  <course>247.65</course>
  <speed>0.0316227766016838</speed>
  <fix>3d</fix>
</trkpt>
<trkpt lat="40.0713749" lon="-105.229789">
  <ele>1583.0</ele>
  <time>2026-08-28T17:50:22Z</time>
  <course>0.0</course>
  <speed>0.0</speed>
  <fix>3d</fix>
</trkpt>
<trkpt lat="40.0713749" lon="-105.229789">
  <ele>1583.0</ele>
  <time>2026-08-28T17:50:22Z</time>
  <course>247.65</course>
  <speed>0.0316227766016838</speed>
  <fix>3d</fix>
</trkpt>
<trkpt lat="40.0713749" lon="-105.229789">
  <ele>1583.0</ele>
  <time>2026-08-28T17:50:22Z</time>
  <course>0.0</course>
  <speed>0.0</speed>
  <fix>3d</fix>
</trkpt>
<trkpt lat="40.0713749" lon="-105.229789">
  <ele>1583.0</ele>
  <time>2026-08-28T17:50:22Z</time>
  <course>247.65</course>
  <speed>0.0316227766016838</speed>
  <fix>3d</fix>
</trkpt>
<trkpt lat="40.0713749" lon="-105.229789">
  <ele>1583.0</ele>
  <time>2026-08-28T17:50:22Z</time>
  <course>0.0</course>
  <speed>0.0</speed>
  <fix>3d</fix>
</trkpt>
<trkpt lat="40.0713749" lon="-105.229789">
  <ele>1583.0</ele>
  <time>2026-08-28T17:50:22Z</time>
  <course>247.64</course>
  <speed>0.0316227766016838</speed>
  <fix>3d</fix>
</trkpt>
<trkpt lat="40.0713749" lon="-105.229789">
  <ele>1583.0</ele>
  <time>2026-08-28T17:50:22Z</time>
  <course>0.0</course>
  <speed>0.0</speed>
  <fix>3d</fix>
</trkpt>
<trkpt lat="40.0713749" lon="-105.229789">
  <ele>1583.0</ele>
  <time>2026-08-28T17:50:22Z</time>
  <course>247.64</course>
  <speed>0.0316227766016838</speed>
  <fix>3d</fix>
</trkpt>
<trkpt lat="40.0713749" lon="-105.229789">
  <ele>1583.0</ele>
  <time>2026-08-28T17:50:22Z</time>
  <course>0.0</course>
  <speed>0.0</speed>
  <fix>3d</fix>
</trkpt>
<trkpt lat="40.0713749" lon="-105.229789">
  <ele>1583.0</ele>
  <time>2026-08-28T17:50:22Z</time>
  <course>247.64</course>
  <speed>0.0316227766016838</speed>
  <fix>3d</fix>
</trkpt>
<trkpt lat="40.0713749" lon="-105.229789">
  <ele>1583.0</ele>
  <time>2026-08-28T17:50:22Z</time>
  <course>0.0</course>
  <speed>0.0</speed>
  <fix>3d</fix>
</trkpt>
<trkpt lat="40.0713749" lon="-105.229789">
  <ele>1583.0</ele>
  <time>2026-08-28T17:50:22Z</time>
  <course>247.64</course>
  <speed>0.0316227766016838</speed>
  <fix>3d</fix>
</trkpt>
<trkpt lat="40.0713749" lon="-105.229789">
  <ele>1583.0</ele>
  <time>2026-08-28T17:50:22Z</time>
  <course>0.0</course>
  <speed>0.0</speed>
  <fix>3d</fix>
</trkpt>
<trkpt lat="40.0713749" lon="-105.229789">
  <ele>1583.0</ele>
  <time>2026-08-28T17:50:22Z</time>
  <course>247.63</course>
  <speed>0.0316227766016838</speed>
  <fix>3d</fix>
</trkpt>
<trkpt lat="40.0713749" lon="-105.229789">
  <ele>1583.0</ele>
  <time>2026-08-28T17:50:22Z</time>
  <course>0.0</course>
  <speed>0.0</speed>
  <fix>3d</fix>
</trkpt>
<trkpt lat="40.0713749" lon="-105.229789">
  <ele>1583.0</ele>
  <time>2026-08-28T17:50:22Z</time>
  <course>247.63</course>
  <speed>0.0316227766016838</speed>
  <fix>3d</fix>
</trkpt>
<trkpt lat="40.0713749" lon="-105.229789">
  <ele>1583.0</ele>
  <time>2026-08-28T17:50:22Z</time>
  <course>0.0</course>
  <speed>0.0</speed>
  <fix>3d</fix>
</trkpt>
<trkpt lat="40.0713749" lon="-105.229789">
  <ele>1583.0</ele>
  <time>2026-08-28T17:50:22Z</time>
  <course>247.63</course>
  <speed>0.0316227766016838</speed>
  <fix>3d</fix>
</trkpt>
<trkpt lat="40.0713749" lon="-105.229789">
  <ele>1583.0</ele>
  <time>2026-08-28T17:50:22Z</time>
  <course>0.0</course>
  <speed>0.0</speed>
  <fix>3d</fix>
</trkpt>
<trkpt lat="40.0713749" lon="-105.229789">
  <ele>1583.0</ele>
  <time>2026-08-28T17:50:22Z</time>
  <course>247.62</course>
  <speed>0.0316227766016838</speed>
  <fix>3d</fix>
</trkpt>
<trkpt lat="40.0713749" lon="-105.229789">
  <ele>1583.0</ele>
  <time>2026-08-28T17:50:22Z</time>
  <course>0.0</course>
  <speed>0.0</speed>
  <fix>3d</fix>
</trkpt>
<trkpt lat="40.0713749" lon="-105.229789">
  <ele>1583.0</ele>
  <time>2026-08-28T17:50:22Z</time>
  <course>247.62</course>
  <speed>0.0316227766016838</speed>
  <fix>3d</fix>
</trkpt>
<trkpt lat="40.0713749" lon="-105.229789">
  <ele>1583.0</ele>
  <time>2026-08-28T17:50:22Z</time>
  <course>0.0</course>
  <speed>0.0</speed>
  <fix>3d</fix>
</trkpt>
<trkpt lat="40.0713749" lon="-105.229789">
  <ele>1583.0</ele>
  <time>2026-08-28T17:50:22Z</time>
  <course>247.62</course>
  <speed>0.0316227766016838</speed>
  <fix>3d</fix>
</trkpt>
<trkpt lat="40.0713749" lon="-105.229789">
  <ele>1583.0</ele>
  <time>2026-08-28T17:50:22Z</time>
  <course>0.0</course>
  <speed>0.0</speed>
  <fix>3d</fix>
</trkpt>
<trkpt lat="40.0713749" lon="-105.229789">
  <ele>1583.0</ele>
  <time>2026-08-28T17:50:22Z</time>
  <course>247.62</course>
  <speed>0.0316227766016838</speed>
  <fix>3d</fix>
</trkpt>
<trkpt lat="40.0713749" lon="-105.229789">
  <ele>1583.0</ele>
  <time>2026-08-28T17:50:22Z</time>
  <course>0.0</course>
  <speed>0.0</speed>
  <fix>3d</fix>
</trkpt>
<trkpt lat="40.0713749" lon="-105.229789">
  <ele>1583.0</ele>
  <time>2026-08-28T17:50:22Z</time>
  <course>247.61</course>
  <speed>0.0316227766016838</speed>
  <fix>3d</fix>
</trkpt>
<trkpt lat="40.0713749" lon="-105.229789">
  <ele>1583.0</ele>
  <time>2026-08-28T17:50:22Z</time>
  <course>0.0</course>
  <speed>0.0</speed>
  <fix>3d</fix>
</trkpt>
<trkpt lat="40.0713749" lon="-105.229789">
  <ele>1583.0</ele>
  <time>2026-08-28T17:50:22Z</time>
  <course>247.61</course>
  <speed>0.0316227766016838</speed>
  <fix>3d</fix>
</trkpt>
<trkpt lat="40.0713749" lon="-105.229789">
  <ele>1583.0</ele>
  <time>2026-08-28T17:50:22Z</time>
  <course>0.0</course>
  <speed>0.0</speed>
  <fix>3d</fix>
</trkpt>
<trkpt lat="40.0713749" lon="-105.229789">
  <ele>1583.0</ele>
  <time>2026-08-28T17:50:22Z</time>
  <course>247.61</course>
  <speed>0.0316227766016838</speed>
  <fix>3d</fix>
</trkpt>
<trkpt lat="40.0713749" lon="-105.229789">
  <ele>1583.0</ele>
  <time>2026-08-28T17:50:22Z</time>
  <course>0.0</course>
  <speed>0.0</speed>
  <fix>3d</fix>
</trkpt>
<trkpt lat="40.0713749" lon="-105.229789">
  <ele>1583.0</ele>
  <time>2026-08-28T17:50:22Z</time>
  <course>247.6</course>
  <speed>0.0316227766016838</speed>
  <fix>3d</fix>
</trkpt>
<trkpt lat="40.0713749" lon="-105.229789">
  <ele>1583.0</ele>
  <time>2026-08-28T17:50:22Z</time>
  <course>0.0</course>
  <speed>0.0</speed>
  <fix>3d</fix>
</trkpt>
<trkpt lat="40.0713749" lon="-105.229789">
  <ele>1583.0</ele>
  <time>2026-08-28T17:50:22Z</time>
  <course>247.6</course>
  <speed>0.0316227766016838</speed>
  <fix>3d</fix>
</trkpt>
<trkpt lat="40.0713749" lon="-105.229789">
  <ele>1583.0</ele>
  <time>2026-08-28T17:50:22Z</time>
  <course>0.0</course>
  <speed>0.0</speed>
  <fix>3d</fix>
</trkpt>
<trkpt lat="40.0713749" lon="-105.229789">
  <ele>1583.0</ele>
  <time>2026-08-28T17:50:22Z</time>
  <course>247.6</course>
  <speed>0.0316227766016838</speed>
  <fix>3d</fix>
</trkpt>
<trkpt lat="40.0713749" lon="-105.229789">
  <ele>1583.0</ele>
  <time>2026-08-28T17:50:22Z</time>
  <course>0.0</course>
  <speed>0.0</speed>
  <fix>3d</fix>
</trkpt>
<trkpt lat="40.0713749" lon="-105.229789">
  <ele>1583.0</ele>
  <time>2026-08-28T17:50:22Z</time>
  <course>247.6</course>
  <speed>0.0316227766016838</speed>
  <fix>3d</fix>
</trkpt>
<trkpt lat="40.0713749" lon="-105.229789">
  <ele>1583.0</ele>
  <time>2026-08-28T17:50:22Z</time>
  <course>0.0</course>
  <speed>0.0</speed>
  <fix>3d</fix>
</trkpt>
<trkpt lat="40.0713749" lon="-105.229789">
  <ele>1583.0</ele>
  <time>2026-08-28T17:50:22Z</time>
  <course>247.59</course>
  <speed>0.0316227766016838</speed>
  <fix>3d</fix>
</trkpt>
<trkpt lat="40.0713749" lon="-105.229789">
  <ele>1583.0</ele>
  <time>2026-08-28T17:50:22Z</time>
  <course>0.0</course>
  <speed>0.0</speed>
  <fix>3d</fix>
</trkpt>
<trkpt lat="40.0713749" lon="-105.229789">
  <ele>1582.92</ele>
  <time>2026-08-28T17:50:22Z</time>
  <course>247.59</course>
  <speed>0.0</speed>
  <fix>3d</fix>
</trkpt>
<trkpt lat="40.0713749" lon="-105.229789">
  <ele>1583.0</ele>
  <time>2026-08-28T17:50:22Z</time>
  <course>0.0</course>
  <speed>0.0</speed>
  <fix>3d</fix>
</trkpt>
<trkpt lat="40.0713749" lon="-105.229789">
  <ele>1582.92</ele>
  <time>2026-08-28T17:50:22Z</time>
  <course>247.59</course>
  <speed>0.0</speed>
  <fix>3d</fix>
</trkpt>
<trkpt lat="40.0713749" lon="-105.229789">
  <ele>1583.0</ele>
  <time>2026-08-28T17:50:22Z</time>
  <course>0.0</course>
  <speed>0.0</speed>
  <fix>3d</fix>
</trkpt>
<trkpt lat="40.0713749" lon="-105.229789">
  <ele>1582.91</ele>
  <time>2026-08-28T17:50:22Z</time>
  <course>247.58</course>
  <speed>0.0</speed>
  <fix>3d</fix>
</trkpt>
<trkpt lat="40.0713749" lon="-105.229789">
  <ele>1583.0</ele>
  <time>2026-08-28T17:50:22Z</time>
  <course>0.0</course>
  <speed>0.0</speed>
  <fix>3d</fix>
</trkpt>
<trkpt lat="40.0713749" lon="-105.229789">
  <ele>1582.91</ele>
  <time>2026-08-28T17:50:22Z</time>
  <course>247.58</course>
  <speed>0.0</speed>
  <fix>3d</fix>
</trkpt>
<trkpt lat="40.0713749" lon="-105.229789">
  <ele>1583.0</ele>
  <time>2026-08-28T17:50:22Z</time>
  <course>0.0</course>
  <speed>0.0</speed>
  <fix>3d</fix>
</trkpt>
<trkpt lat="40.0713749" lon="-105.229789">
  <ele>1582.9</ele>
  <time>2026-08-28T17:50:22Z</time>
  <course>247.58</course>
  <speed>0.0</speed>
  <fix>3d</fix>
</trkpt>
<trkpt lat="40.0713749" lon="-105.229789">
  <ele>1583.0</ele>
  <time>2026-08-28T17:50:22Z</time>
  <course>0.0</course>
  <speed>0.0</speed>
  <fix>3d</fix>
</trkpt>
<trkpt lat="40.0713749" lon="-105.229789">
  <ele>1582.9</ele>
  <time>2026-08-28T17:50:22Z</time>
  <course>247.58</course>
  <speed>0.0</speed>
  <fix>3d</fix>
</trkpt>
<trkpt lat="40.0713749" lon="-105.229789">
  <ele>1583.0</ele>
  <time>2026-08-28T17:50:22Z</time>
  <course>0.0</course>
  <speed>0.0</speed>
  <fix>3d</fix>
</trkpt>
<trkpt lat="40.0713749" lon="-105.229789">
  <ele>1582.9</ele>
  <time>2026-08-28T17:50:22Z</time>
  <course>247.57</course>
  <speed>0.0</speed>
  <fix>3d</fix>
</trkpt>
<trkpt lat="40.0713749" lon="-105.229789">
  <ele>1583.0</ele>
  <time>2026-08-28T17:50:22Z</time>
  <course>0.0</course>
  <speed>0.0</speed>
  <fix>3d</fix>
</trkpt>
<trkpt lat="40.0713749" lon="-105.229789">
  <ele>1582.9</ele>
  <time>2026-08-28T17:50:22Z</time>
  <course>247.57</course>
  <speed>0.0</speed>
  <fix>3d</fix>
</trkpt>
<trkpt lat="40.0713749" lon="-105.229789">
  <ele>1583.0</ele>
  <time>2026-08-28T17:50:22Z</time>
  <course>0.0</course>
  <speed>0.0</speed>
  <fix>3d</fix>
</trkpt>
<trkpt lat="40.0713749" lon="-105.229789">
  <ele>1582.9</ele>
  <time>2026-08-28T17:50:22Z</time>
  <course>247.57</course>
  <speed>0.0</speed>
  <fix>3d</fix>
</trkpt>
<trkpt lat="40.0713749" lon="-105.229789">
  <ele>1583.0</ele>
  <time>2026-08-28T17:50:22Z</time>
  <course>0.0</course>
  <speed>0.0</speed>
  <fix>3d</fix>
</trkpt>
<trkpt lat="40.0713749" lon="-105.229789">
  <ele>1582.9</ele>
  <time>2026-08-28T17:50:22Z</time>
  <course>247.57</course>
  <speed>0.01</speed>
  <fix>3d</fix>
</trkpt>
<trkpt lat="40.0713749" lon="-105.229789">
  <ele>1583.0</ele>
  <time>2026-08-28T17:50:22Z</time>
  <course>0.0</course>
  <speed>0.0</speed>
  <fix>3d</fix>
</trkpt>
<trkpt lat="40.0713749" lon="-105.229789">
  <ele>1582.9</ele>
  <time>2026-08-28T17:50:22Z</time>
  <course>247.56</course>
  <speed>0.01</speed>
  <fix>3d</fix>
</trkpt>
<trkpt lat="40.0713749" lon="-105.229789">
  <ele>1583.0</ele>
  <time>2026-08-28T17:50:22Z</time>
  <course>0.0</course>
  <speed>0.0</speed>
  <fix>3d</fix>
</trkpt>
<trkpt lat="40.0713749" lon="-105.229789">
  <ele>1582.91</ele>
  <time>2026-08-28T17:50:22Z</time>
  <course>247.56</course>
  <speed>0.01</speed>
  <fix>3d</fix>
</trkpt>
<trkpt lat="40.0713749" lon="-105.229789">
  <ele>1583.0</ele>
  <time>2026-08-28T17:50:22Z</time>
  <course>0.0</course>
  <speed>0.0</speed>
  <fix>3d</fix>
</trkpt>
<trkpt lat="40.0713749" lon="-105.229789">
  <ele>1582.91</ele>
  <time>2026-08-28T17:50:22Z</time>
  <course>247.56</course>
  <speed>0.01</speed>
  <fix>3d</fix>
</trkpt>
<trkpt lat="40.0713749" lon="-105.229789">
  <ele>1583.0</ele>
  <time>2026-08-28T17:50:22Z</time>
  <course>0.0</course>
  <speed>0.0</speed>
  <fix>3d</fix>
</trkpt>
<trkpt lat="40.0713749" lon="-105.229789">
  <ele>1582.92</ele>
  <time>2026-08-28T17:50:22Z</time>
  <course>247.56</course>
  <speed>0.01</speed>
  <fix>3d</fix>
</trkpt>
<trkpt lat="40.0713749" lon="-105.229789">
  <ele>1583.0</ele>
  <time>2026-08-28T17:50:22Z</time>
  <course>0.0</course>
  <speed>0.0</speed>
  <fix>3d</fix>
</trkpt>
<trkpt lat="40.0713749" lon="-105.229789">
  <ele>1582.92</ele>
  <time>2026-08-28T17:50:22Z</time>
  <course>247.55</course>
  <speed>0.01</speed>
  <fix>3d</fix>
</trkpt>
<trkpt lat="40.0713749" lon="-105.229789">
  <ele>1583.0</ele>
  <time>2026-08-28T17:50:22Z</time>
  <course>0.0</course>
  <speed>0.0</speed>
  <fix>3d</fix>
</trkpt>
<trkpt lat="40.0713749" lon="-105.229789">
  <ele>1582.92</ele>
  <time>2026-08-28T17:50:22Z</time>
  <course>247.55</course>
  <speed>0.01</speed>
  <fix>3d</fix>
</trkpt>
<trkpt lat="40.0713749" lon="-105.229789">
  <ele>1583.0</ele>
  <time>2026-08-28T17:50:22Z</time>
  <course>0.0</course>
  <speed>0.0</speed>
  <fix>3d</fix>
</trkpt>
<trkpt lat="40.0713749" lon="-105.229789">
  <ele>1582.93</ele>
  <time>2026-08-28T17:50:22Z</time>
  <course>247.55</course>
  <speed>0.01</speed>
  <fix>3d</fix>
</trkpt>
<trkpt lat="40.0713749" lon="-105.229789">
  <ele>1583.0</ele>
  <time>2026-08-28T17:50:22Z</time>
  <course>0.0</course>
  <speed>0.0</speed>
  <fix>3d</fix>
</trkpt>
<trkpt lat="40.0713749" lon="-105.229789">
  <ele>1582.93</ele>
  <time>2026-08-28T17:50:22Z</time>
  <course>247.55</course>
  <speed>0.01</speed>
  <fix>3d</fix>
</trkpt>
<trkpt lat="40.0713749" lon="-105.229789">
  <ele>1583.0</ele>
  <time>2026-08-28T17:50:22Z</time>
  <course>0.0</course>
  <speed>0.0</speed>
  <fix>3d</fix>
</trkpt>
<trkpt lat="40.0713749" lon="-105.229789">
  <ele>1582.93</ele>
  <time>2026-08-28T17:50:22Z</time>
  <course>247.54</course>
  <speed>0.02</speed>
  <fix>3d</fix>
</trkpt>
<trkpt lat="40.0713749" lon="-105.229789">
  <ele>1583.0</ele>
  <time>2026-08-28T17:50:22Z</time>
  <course>0.0</course>
  <speed>0.0</speed>
  <fix>3d</fix>
</trkpt>
<trkpt lat="40.0713749" lon="-105.229789">
  <ele>1582.93</ele>
  <time>2026-08-28T17:50:22Z</time>
  <course>247.54</course>
  <speed>0.02</speed>
  <fix>3d</fix>
</trkpt>
<trkpt lat="40.0713749" lon="-105.229789">
  <ele>1583.0</ele>
  <time>2026-08-28T17:50:22Z</time>
  <course>0.0</course>
  <speed>0.0</speed>
  <fix>3d</fix>
</trkpt>
<trkpt lat="40.0713749" lon="-105.229789">
  <ele>1582.94</ele>
  <time>2026-08-28T17:50:22Z</time>
  <course>247.54</course>
  <speed>0.02</speed>
  <fix>3d</fix>
</trkpt>
<trkpt lat="40.0713749" lon="-105.229789">
  <ele>1583.0</ele>
  <time>2026-08-28T17:50:22Z</time>
  <course>0.0</course>
  <speed>0.0</speed>
  <fix>3d</fix>
</trkpt>
<trkpt lat="40.0713749" lon="-105.229789">
  <ele>1582.94</ele>
  <time>2026-08-28T17:50:22Z</time>
  <course>247.54</course>
  <speed>0.02</speed>
  <fix>3d</fix>
</trkpt>
<trkpt lat="40.0713749" lon="-105.229789">
  <ele>1583.0</ele>
  <time>2026-08-28T17:50:22Z</time>
  <course>0.0</course>
  <speed>0.0</speed>
  <fix>3d</fix>
</trkpt>
<trkpt lat="40.0713749" lon="-105.229789">
  <ele>1582.94</ele>
  <time>2026-08-28T17:50:22Z</time>
  <course>247.53</course>
  <speed>0.02</speed>
  <fix>3d</fix>
</trkpt>
<trkpt lat="40.0713749" lon="-105.229789">
  <ele>1583.0</ele>
  <time>2026-08-28T17:50:22Z</time>
  <course>0.0</course>
  <speed>0.0</speed>
  <fix>3d</fix>
</trkpt>
<trkpt lat="40.0713749" lon="-105.229789">
  <ele>1582.95</ele>
  <time>2026-08-28T17:50:22Z</time>
  <course>247.53</course>
  <speed>0.02</speed>
  <fix>3d</fix>
</trkpt>
<trkpt lat="40.0713749" lon="-105.229789">
  <ele>1583.0</ele>
  <time>2026-08-28T17:50:22Z</time>
  <course>0.0</course>
  <speed>0.0</speed>
  <fix>3d</fix>
</trkpt>
<trkpt lat="40.0713749" lon="-105.229789">
  <ele>1582.95</ele>
  <time>2026-08-28T17:50:22Z</time>
  <course>247.53</course>
  <speed>0.02</speed>
  <fix>3d</fix>
</trkpt>
<trkpt lat="40.0713749" lon="-105.229789">
  <ele>1583.0</ele>
  <time>2026-08-28T17:50:22Z</time>
  <course>0.0</course>
  <speed>0.0</speed>
  <fix>3d</fix>
</trkpt>
<trkpt lat="40.0713749" lon="-105.229789">
  <ele>1582.95</ele>
  <time>2026-08-28T17:50:22Z</time>
  <course>247.53</course>
  <speed>0.02</speed>
  <fix>3d</fix>
</trkpt>
<trkpt lat="40.0713749" lon="-105.229789">
  <ele>1583.0</ele>
  <time>2026-08-28T17:50:22Z</time>
  <course>0.0</course>
  <speed>0.0</speed>
  <fix>3d</fix>
</trkpt>
<trkpt lat="40.0713749" lon="-105.229789">
  <ele>1582.96</ele>
  <time>2026-08-28T17:50:22Z</time>
  <course>247.53</course>
  <speed>0.02</speed>
  <fix>3d</fix>
</trkpt>
<trkpt lat="40.0713749" lon="-105.229789">
  <ele>1583.0</ele>
  <time>2026-08-28T17:50:22Z</time>
  <course>0.0</course>
  <speed>0.0</speed>
  <fix>3d</fix>
</trkpt>
<trkpt lat="40.0713749" lon="-105.229789">
  <ele>1582.96</ele>
  <time>2026-08-28T17:50:22Z</time>
  <course>247.52</course>
  <speed>0.01</speed>
  <fix>3d</fix>
</trkpt>
<trkpt lat="40.0713749" lon="-105.229789">
  <ele>1583.0</ele>
  <time>2026-08-28T17:50:22Z</time>
  <course>0.0</course>
  <speed>0.0</speed>
  <fix>3d</fix>
</trkpt>
<trkpt lat="40.0713749" lon="-105.229789">
  <ele>1582.96</ele>
  <time>2026-08-28T17:50:22Z</time>
  <course>247.52</course>
  <speed>0.01</speed>
  <fix>3d</fix>
</trkpt>
<trkpt lat="40.0713749" lon="-105.229789">
  <ele>1583.0</ele>
  <time>2026-08-28T17:50:22Z</time>
  <course>0.0</course>
  <speed>0.0</speed>
  <fix>3d</fix>
</trkpt>
<trkpt lat="40.0713749" lon="-105.229789">
  <ele>1582.96</ele>
  <time>2026-08-28T17:50:22Z</time>
  <course>247.52</course>
  <speed>0.01</speed>
  <fix>3d</fix>
</trkpt>
<trkpt lat="40.0713749" lon="-105.229789">
  <ele>1583.0</ele>
  <time>2026-08-28T17:50:22Z</time>
  <course>0.0</course>
  <speed>0.0</speed>
  <fix>3d</fix>
</trkpt>
<trkpt lat="40.0713749" lon="-105.229789">
  <ele>1582.96</ele>
  <time>2026-08-28T17:50:22Z</time>
  <course>247.52</course>
  <speed>0.01</speed>
  <fix>3d</fix>
</trkpt>
<trkpt lat="40.0713749" lon="-105.229789">
  <ele>1583.0</ele>
  <time>2026-08-28T17:50:22Z</time>
  <course>0.0</course>
  <speed>0.0</speed>
  <fix>3d</fix>
</trkpt>
<trkpt lat="40.0713749" lon="-105.229789">
  <ele>1582.96</ele>
  <time>2026-08-28T17:50:22Z</time>
  <course>247.51</course>
  <speed>0.01</speed>
  <fix>3d</fix>
</trkpt>
<trkpt lat="40.0713749" lon="-105.229789">
  <ele>1583.0</ele>
  <time>2026-08-28T17:50:22Z</time>
  <course>0.0</course>
  <speed>0.0</speed>
  <fix>3d</fix>
</trkpt>
<trkpt lat="40.0713749" lon="-105.229789">
  <ele>1582.95</ele>
  <time>2026-08-28T17:50:22Z</time>
  <course>247.51</course>
  <speed>0.01</speed>
  <fix>3d</fix>
</trkpt>
<trkpt lat="40.0713749" lon="-105.229789">
  <ele>1583.0</ele>
  <time>2026-08-28T17:50:22Z</time>
  <course>0.0</course>
  <speed>0.0</speed>
  <fix>3d</fix>
</trkpt>
<trkpt lat="40.0713749" lon="-105.229789">
  <ele>1582.95</ele>
  <time>2026-08-28T17:50:22Z</time>
  <course>247.51</course>
  <speed>0.01</speed>
  <fix>3d</fix>
</trkpt>
<trkpt lat="40.0713749" lon="-105.229789">
  <ele>1583.0</ele>
  <time>2026-08-28T17:50:22Z</time>
  <course>0.0</course>
  <speed>0.0</speed>
  <fix>3d</fix>
</trkpt>
<trkpt lat="40.0713749" lon="-105.229789">
  <ele>1582.95</ele>
  <time>2026-08-28T17:50:22Z</time>
  <course>247.51</course>
  <speed>0.01</speed>
  <fix>3d</fix>
</trkpt>
<trkpt lat="40.0713749" lon="-105.229789">
  <ele>1583.0</ele>
  <time>2026-08-28T17:50:22Z</time>
  <course>0.0</course>
  <speed>0.0</speed>
  <fix>3d</fix>
</trkpt>
<trkpt lat="40.0713749" lon="-105.229789">
  <ele>1582.95</ele>
  <time>2026-08-28T17:50:22Z</time>
  <course>247.51</course>
  <speed>0.01</speed>
  <fix>3d</fix>
</trkpt>
<trkpt lat="40.0713749" lon="-105.229789">
  <ele>1583.0</ele>
  <time>2026-08-28T17:50:22Z</time>
  <course>0.0</course>
  <speed>0.0</speed>
  <fix>3d</fix>
</trkpt>
<trkpt lat="40.0713749" lon="-105.229789">
  <ele>1582.95</ele>
  <time>2026-08-28T17:50:22Z</time>
  <course>247.5</course>
  <speed>0.01</speed>
  <fix>3d</fix>
</trkpt>
<trkpt lat="40.0713749" lon="-105.229789">
  <ele>1583.0</ele>
  <time>2026-08-28T17:50:22Z</time>
  <course>0.0</course>
  <speed>0.0</speed>
  <fix>3d</fix>
</trkpt>
<trkpt lat="40.0713749" lon="-105.229789">
  <ele>1582.95</ele>
  <time>2026-08-28T17:50:22Z</time>
  <course>247.5</course>
  <speed>0.01</speed>
  <fix>3d</fix>
</trkpt>
<trkpt lat="40.0713749" lon="-105.229789">
  <ele>1583.0</ele>
  <time>2026-08-28T17:50:22Z</time>
  <course>0.0</course>
  <speed>0.0</speed>
  <fix>3d</fix>
</trkpt>
<trkpt lat="40.0713749" lon="-105.229789">
  <ele>1582.95</ele>
  <time>2026-08-28T17:50:22Z</time>
  <course>247.5</course>
  <speed>0.01</speed>
  <fix>3d</fix>
</trkpt>
<trkpt lat="40.0713749" lon="-105.229789">
  <ele>1583.0</ele>
  <time>2026-08-28T17:50:22Z</time>
  <course>0.0</course>
  <speed>0.0</speed>
  <fix>3d</fix>
</trkpt>
<trkpt lat="40.0713749" lon="-105.229789">
  <ele>1582.95</ele>
  <time>2026-08-28T17:50:22Z</time>
  <course>247.5</course>
  <speed>0.01</speed>
  <fix>3d</fix>
</trkpt>
<trkpt lat="40.0713749" lon="-105.229789">
  <ele>1583.0</ele>
  <time>2026-08-28T17:50:22Z</time>
  <course>0.0</course>
  <speed>0.0</speed>
  <fix>3d</fix>
</trkpt>
<trkpt lat="40.0713749" lon="-105.229789">
  <ele>1582.95</ele>
  <time>2026-08-28T17:50:22Z</time>
  <course>247.5</course>
  <speed>0.01</speed>
  <fix>3d</fix>
</trkpt>
<trkpt lat="40.0713749" lon="-105.229789">
  <ele>1583.0</ele>
  <time>2026-08-28T17:50:22Z</time>
  <course>0.0</course>
  <speed>0.0</speed>
  <fix>3d</fix>
</trkpt>
<trkpt lat="40.0713749" lon="-105.229789">
  <ele>1582.95</ele>
  <time>2026-08-28T17:50:22Z</time>
  <course>247.49</course>
  <speed>0.0</speed>
  <fix>3d</fix>
</trkpt>
<trkpt lat="40.0713749" lon="-105.229789">
  <ele>1583.0</ele>
  <time>2026-08-28T17:50:22Z</time>
  <course>0.0</course>
  <speed>0.0</speed>
  <fix>3d</fix>
</trkpt>
<trkpt lat="40.0713749" lon="-105.229789">
  <ele>1582.95</ele>
  <time>2026-08-28T17:50:22Z</time>
  <course>247.49</course>
  <speed>0.0</speed>
  <fix>3d</fix>
</trkpt>
<trkpt lat="40.0713749" lon="-105.229789">
  <ele>1583.0</ele>
  <time>2026-08-28T17:50:22Z</time>
  <course>0.0</course>
  <speed>0.0</speed>
  <fix>3d</fix>
</trkpt>
<trkpt lat="40.0713749" lon="-105.229789">
  <ele>1582.95</ele>
  <time>2026-08-28T17:50:22Z</time>
  <course>247.49</course>
  <speed>0.0</speed>
  <fix>3d</fix>
</trkpt>
<trkpt lat="40.0713749" lon="-105.229789">
  <ele>1583.0</ele>
  <time>2026-08-28T17:50:22Z</time>
  <course>0.0</course>
  <speed>0.0</speed>
  <fix>3d</fix>
</trkpt>
<trkpt lat="40.0713749" lon="-105.229789">
  <ele>1582.96</ele>
  <time>2026-08-28T17:50:22Z</time>
  <course>247.49</course>
  <speed>0.0</speed>
  <fix>3d</fix>
</trkpt>
<trkpt lat="40.0713749" lon="-105.229789">
  <ele>1583.0</ele>
  <time>2026-08-28T17:50:22Z</time>
  <course>0.0</course>
  <speed>0.0</speed>
  <fix>3d</fix>
</trkpt>
<trkpt lat="40.0713749" lon="-105.229789">
  <ele>1582.97</ele>
  <time>2026-08-28T17:50:22Z</time>
  <course>247.49</course>
  <speed>0.0</speed>
  <fix>3d</fix>
</trkpt>
<trkpt lat="40.0713749" lon="-105.229789">
  <ele>1583.0</ele>
  <time>2026-08-28T17:50:22Z</time>
  <course>0.0</course>
  <speed>0.0</speed>
  <fix>3d</fix>
</trkpt>
<trkpt lat="40.0713749" lon="-105.229789">
  <ele>1582.97</ele>
  <time>2026-08-28T17:50:22Z</time>
  <course>247.48</course>
  <speed>0.0</speed>
  <fix>3d</fix>
</trkpt>
<trkpt lat="40.0713749" lon="-105.229789">
  <ele>1583.0</ele>
  <time>2026-08-28T17:50:22Z</time>
  <course>0.0</course>
  <speed>0.0</speed>
  <fix>3d</fix>
</trkpt>
<trkpt lat="40.0713749" lon="-105.229789">
  <ele>1582.98</ele>
  <time>2026-08-28T17:50:22Z</time>
  <course>247.48</course>
  <speed>0.0</speed>
  <fix>3d</fix>
</trkpt>
<trkpt lat="40.0713749" lon="-105.229789">
  <ele>1583.0</ele>
  <time>2026-08-28T17:50:22Z</time>
  <course>0.0</course>
  <speed>0.0</speed>
  <fix>3d</fix>
</trkpt>
<trkpt lat="40.0713749" lon="-105.229789">
  <ele>1582.98</ele>
  <time>2026-08-28T17:50:22Z</time>
  <course>247.48</course>
  <speed>0.0</speed>
  <fix>3d</fix>
</trkpt>
<trkpt lat="40.0713749" lon="-105.229789">
  <ele>1583.0</ele>
  <time>2026-08-28T17:50:22Z</time>
  <course>0.0</course>
  <speed>0.0</speed>
  <fix>3d</fix>
</trkpt>
<trkpt lat="40.0713749" lon="-105.229789">
  <ele>1582.98</ele>
  <time>2026-08-28T17:50:22Z</time>
  <course>247.48</course>
  <speed>0.0</speed>
  <fix>3d</fix>
</trkpt>
<trkpt lat="40.0713749" lon="-105.229789">
  <ele>1583.0</ele>
  <time>2026-08-28T17:50:22Z</time>
  <course>0.0</course>
  <speed>0.0</speed>
  <fix>3d</fix>
</trkpt>
<trkpt lat="40.0713749" lon="-105.229789">
  <ele>1582.98</ele>
  <time>2026-08-28T17:50:22Z</time>
  <course>247.48</course>
  <speed>0.0</speed>
  <fix>3d</fix>
</trkpt>
<trkpt lat="40.0713749" lon="-105.229789">
  <ele>1583.0</ele>
  <time>2026-08-28T17:50:22Z</time>
  <course>0.0</course>
  <speed>0.0</speed>
  <fix>3d</fix>
</trkpt>
<trkpt lat="40.0713749" lon="-105.229789">
  <ele>1582.98</ele>
  <time>2026-08-28T17:50:22Z</time>
  <course>247.47</course>
  <speed>0.0</speed>
  <fix>3d</fix>
</trkpt>
<trkpt lat="40.0713749" lon="-105.229789">
  <ele>1583.0</ele>
  <time>2026-08-28T17:50:22Z</time>
  <course>246.0</course>
  <speed>0.0</speed>
  <fix>3d</fix>
</trkpt>
<trkpt lat="40.0713749" lon="-105.229789">
  <ele>1582.98</ele>
  <time>2026-08-28T17:50:22Z</time>
  <course>247.47</course>
  <speed>0.07280109889280519</speed>
  <fix>3d</fix>
</trkpt>
<trkpt lat="40.0713749" lon="-105.229789">
  <ele>1583.0</ele>
  <time>2026-08-28T17:50:22Z</time>
  <course>246.0</course>
  <speed>0.0</speed>
  <fix>3d</fix>
</trkpt>
<trkpt lat="40.0713749" lon="-105.2297891">
  <ele>1582.98</ele>
  <time>2026-08-28T17:50:22Z</time>
  <course>247.47</course>
  <speed>0.24351591323771843</speed>
  <fix>3d</fix>
</trkpt>
<trkpt lat="40.0713749" lon="-105.2297891">
  <ele>1583.0</ele>
  <time>2026-08-28T17:50:22Z</time>
  <course>246.0</course>
  <speed>0.12</speed>
  <fix>3d</fix>
</trkpt>
<trkpt lat="40.0713748" lon="-105.2297896">
  <ele>1582.98</ele>
  <time>2026-08-28T17:50:22Z</time>
  <course>247.47</course>
  <speed>0.5032891812864648</speed>
  <fix>3d</fix>
</trkpt>
<trkpt lat="40.0713749" lon="-105.2297891">
  <ele>1583.0</ele>
  <time>2026-08-28T17:50:22Z</time>
  <course>246.0</course>
  <speed>0.12</speed>
  <fix>3d</fix>
</trkpt>
<trkpt lat="40.0713745" lon="-105.2297904">
  <ele>1582.98</ele>
  <time>2026-08-28T17:50:22Z</time>
  <course>247.47</course>
  <speed>0.8300602387778854</speed>
  <fix>3d</fix>
</trkpt>
<trkpt lat="40.0713748" lon="-105.2297897">
  <ele>1583.0</ele>
  <time>2026-08-28T17:50:22Z</time>
  <course>246.0</course>
  <speed>0.54</speed>
  <fix>3d</fix>
</trkpt>
<trkpt lat="40.0713742" lon="-105.2297915">
  <ele>1582.98</ele>
  <time>2026-08-28T17:50:22Z</time>
  <course>247.46</course>
  <speed>1.1438968484964018</speed>
  <fix>3d</fix>
</trkpt>
<trkpt lat="40.0713748" lon="-105.2297897">
  <ele>1583.0</ele>
  <time>2026-08-28T17:50:22Z</time>
  <course>246.0</course>
  <speed>0.54</speed>
  <fix>3d</fix>
</trkpt>
<trkpt lat="40.0713737" lon="-105.229793">
  <ele>1582.98</ele>
  <time>2026-08-28T17:50:22Z</time>
  <course>247.46</course>
  <speed>1.448481963988506</speed>
  <fix>3d</fix>
</trkpt>
<trkpt lat="40.0713748" lon="-105.2297897">
  <ele>1583.0</ele>
  <time>2026-08-28T17:50:22Z</time>
  <course>246.0</course>
  <speed>0.54</speed>
  <fix>3d</fix>
</trkpt>
<trkpt lat="40.0713731" lon="-105.2297948">
  <ele>1582.98</ele>
  <time>2026-08-28T17:50:22Z</time>
  <course>247.45</course>
  <speed>1.7307801709055948</speed>
  <fix>3d</fix>
</trkpt>
<trkpt lat="40.0713741" lon="-105.2297915">
  <ele>1583.0</ele>
  <time>2026-08-28T17:50:22Z</time>
  <course>246.0</course>
  <speed>1.14</speed>
  <fix>3d</fix>
</trkpt>
<trkpt lat="40.0713725" lon="-105.2297969">
  <ele>1582.98</ele>
  <time>2026-08-28T17:50:22Z</time>
  <course>247.44</course>
  <speed>2.000024999843752</speed>
  <fix>3d</fix>
</trkpt>
<trkpt lat="40.0713741" lon="-105.2297915">
  <ele>1583.0</ele>
  <time>2026-08-28T17:50:22Z</time>
  <course>246.0</course>
  <speed>1.14</speed>
  <fix>3d</fix>
</trkpt>
<trkpt lat="40.0713717" lon="-105.2297992">
  <ele>1582.98</ele>
  <time>2026-08-28T17:50:22Z</time>
  <course>247.43</course>
  <speed>2.260022123785517</speed>
  <fix>3d</fix>
</trkpt>
<trkpt lat="40.0713731" lon="-105.2297946">
  <ele>1583.0</ele>
  <time>2026-08-28T17:50:22Z</time>
  <course>246.0</course>
  <speed>1.71</speed>
  <fix>3d</fix>
</trkpt>
<trkpt lat="40.0713709" lon="-105.2298018">
  <ele>1582.98</ele>
  <time>2026-08-28T17:50:22Z</time>
  <course>247.41</course>
  <speed>2.5015395259719564</speed>
  <fix>3d</fix>
</trkpt>
<trkpt lat="40.0713731" lon="-105.2297946">
  <ele>1583.0</ele>
  <time>2026-08-28T17:50:22Z</time>
  <course>246.0</course>
  <speed>1.71</speed>
  <fix>3d</fix>
</trkpt>
<trkpt lat="40.0713699" lon="-105.2298047">
  <ele>1582.98</ele>
  <time>2026-08-28T17:50:22Z</time>
  <course>247.39</course>
  <speed>2.7392334694216918</speed>
  <fix>3d</fix>
</trkpt>
<trkpt lat="40.0713717" lon="-105.2297988">
  <ele>1583.0</ele>
  <time>2026-08-28T17:50:22Z</time>
  <course>246.0</course>
  <speed>2.24</speed>
  <fix>3d</fix>
</trkpt>
<trkpt lat="40.0713689" lon="-105.2298078">
  <ele>1582.98</ele>
  <time>2026-08-28T17:50:22Z</time>
  <course>247.37</course>
  <speed>2.9584624384974028</speed>
  <fix>3d</fix>
</trkpt>
<trkpt lat="40.0713698" lon="-105.2298041">
  <ele>1583.0</ele>
  <time>2026-08-28T17:50:22Z</time>
  <course>246.0</course>
  <speed>2.71</speed>
  <fix>3d</fix>
</trkpt>
<trkpt lat="40.0713678" lon="-105.2298112">
  <ele>1582.98</ele>
  <time>2026-08-28T17:50:22Z</time>
  <course>247.33</course>
  <speed>3.173846247063648</speed>
  <fix>3d</fix>
</trkpt>
<trkpt lat="40.0713698" lon="-105.2298041">
  <ele>1583.0</ele>
  <time>2026-08-28T17:50:22Z</time>
  <course>246.0</course>
  <speed>2.71</speed>
  <fix>3d</fix>
</trkpt>
<trkpt lat="40.0713666" lon="-105.2298148">
  <ele>1582.98</ele>
  <time>2026-08-28T17:50:22Z</time>
  <course>247.3</course>
  <speed>3.370771425059848</speed>
  <fix>3d</fix>
</trkpt>
<trkpt lat="40.0713677" lon="-105.2298104">
  <ele>1583.0</ele>
  <time>2026-08-28T17:50:22Z</time>
  <course>246.0</course>
  <speed>3.13</speed>
  <fix>3d</fix>
</trkpt>
<trkpt lat="40.0713653" lon="-105.2298185">
  <ele>1582.98</ele>
  <time>2026-08-28T17:50:22Z</time>
  <course>247.27</course>
  <speed>3.5584828227771452</speed>
  <fix>3d</fix>
</trkpt>
<trkpt lat="40.0713677" lon="-105.2298104">
  <ele>1583.0</ele>
  <time>2026-08-28T17:50:22Z</time>
  <course>246.0</course>
  <speed>3.13</speed>
  <fix>3d</fix>
</trkpt>
<trkpt lat="40.0713639" lon="-105.2298225">
  <ele>1582.99</ele>
  <time>2026-08-28T17:50:22Z</time>
  <course>247.24</course>
  <speed>3.7462114195544274</speed>
  <fix>3d</fix>
</trkpt>
<trkpt lat="40.0713652" lon="-105.2298175">
  <ele>1583.0</ele>
  <time>2026-08-28T17:50:22Z</time>
  <course>246.0</course>
  <speed>3.52</speed>
  <fix>3d</fix>
</trkpt>
<trkpt lat="40.0713625" lon="-105.2298267">
  <ele>1582.99</ele>
  <time>2026-08-28T17:50:22Z</time>
  <course>247.2</course>
  <speed>3.9208417463600846</speed>
  <fix>3d</fix>
</trkpt>
<trkpt lat="40.0713652" lon="-105.2298175">
  <ele>1583.0</ele>
  <time>2026-08-28T17:50:22Z</time>
  <course>246.0</course>
  <speed>3.52</speed>
  <fix>3d</fix>
</trkpt>
<trkpt lat="40.071361" lon="-105.2298311">
  <ele>1583.0</ele>
  <time>2026-08-28T17:50:22Z</time>
  <course>247.17</course>
  <speed>4.086269692519083</speed>
  <fix>3d</fix>
</trkpt>
<trkpt lat="40.0713626" lon="-105.2298255">
  <ele>1583.0</ele>
  <time>2026-08-28T17:50:22Z</time>
  <course>246.0</course>
  <speed>3.87</speed>
  <fix>3d</fix>
</trkpt>
<trkpt lat="40.0713595" lon="-105.2298357">
  <ele>1583.0</ele>
  <time>2026-08-28T17:50:22Z</time>
  <course>247.14</course>
  <speed>4.251705540133277</speed>
  <fix>3d</fix>
</trkpt>
<trkpt lat="40.0713626" lon="-105.2298255">
  <ele>1583.0</ele>
  <time>2026-08-28T17:50:22Z</time>
  <course>246.0</course>
  <speed>3.87</speed>
  <fix>3d</fix>
</trkpt>
<trkpt lat="40.0713579" lon="-105.2298404">
  <ele>1583.0</ele>
  <time>2026-08-28T17:50:22Z</time>
  <course>247.11</course>
  <speed>4.394826503970322</speed>
  <fix>3d</fix>
</trkpt>
<trkpt lat="40.0713596" lon="-105.2298342">
  <ele>1583.0</ele>
  <time>2026-08-28T17:50:22Z</time>
  <course>246.0</course>
  <speed>4.19</speed>
  <fix>3d</fix>
</trkpt>
<trkpt lat="40.0713562" lon="-105.2298452">
  <ele>1583.0</ele>
  <time>2026-08-28T17:50:22Z</time>
  <course>247.08</course>
  <speed>4.537951079507138</speed>
  <fix>3d</fix>
</trkpt>
<trkpt lat="40.0713596" lon="-105.2298342">
  <ele>1583.0</ele>
  <time>2026-08-28T17:50:22Z</time>
  <course>246.0</course>
  <speed>4.19</speed>
  <fix>3d</fix>
</trkpt>
<trkpt lat="40.0713546" lon="-105.2298502">
  <ele>1583.01</ele>
  <time>2026-08-28T17:50:22Z</time>
  <course>247.05</course>
  <speed>4.6679438728416605</speed>
  <fix>3d</fix>
</trkpt>
<trkpt lat="40.0713564" lon="-105.2298435">
  <ele>1583.0</ele>
  <time>2026-08-28T17:50:22Z</time>
  <course>246.0</course>
  <speed>4.47</speed>
  <fix>3d</fix>
</trkpt>
<trkpt lat="40.0713528" lon="-105.2298553">
  <ele>1583.01</ele>
  <time>2026-08-28T17:50:22Z</time>
  <course>247.02</course>
  <speed>4.801885046520793</speed>
  <fix>3d</fix>
</trkpt>
<trkpt lat="40.0713564" lon="-105.2298435">
  <ele>1583.0</ele>
  <time>2026-08-28T17:50:22Z</time>
  <course>246.0</course>
  <speed>4.47</speed>
  <fix>3d</fix>
</trkpt>
<trkpt lat="40.071351" lon="-105.2298606">
  <ele>1583.01</ele>
  <time>2026-08-28T17:50:22Z</time>
  <course>247.0</course>
  <speed>4.922692352767944</speed>
  <fix>3d</fix>
</trkpt>
<trkpt lat="40.071353" lon="-105.2298534">
  <ele>1583.0</ele>
  <time>2026-08-28T17:50:22Z</time>
  <course>246.0</course>
  <speed>4.73</speed>
  <fix>3d</fix>
</trkpt>
<trkpt lat="40.0713492" lon="-105.2298659">
  <ele>1583.01</ele>
  <time>2026-08-28T17:50:22Z</time>
  <course>246.98</course>
  <speed>5.03432219866786</speed>
  <fix>3d</fix>
</trkpt>
<trkpt lat="40.071353" lon="-105.2298534">
  <ele>1583.0</ele>
  <time>2026-08-28T17:50:22Z</time>
  <course>246.0</course>
  <speed>4.73</speed>
  <fix>3d</fix>
</trkpt>
<trkpt lat="40.0713473" lon="-105.2298714">
  <ele>1583.01</ele>
  <time>2026-08-28T17:50:22Z</time>
  <course>246.96</course>
  <speed>5.145959580097768</speed>
  <fix>3d</fix>
</trkpt>
<trkpt lat="40.071353" lon="-105.2298534">
  <ele>1583.0</ele>
  <time>2026-08-28T17:50:22Z</time>
  <course>246.0</course>
  <speed>4.73</speed>
  <fix>3d</fix>
</trkpt>
<trkpt lat="40.0713454" lon="-105.2298769">
  <ele>1583.01</ele>
  <time>2026-08-28T17:50:22Z</time>
  <course>246.94</course>
  <speed>5.244444679849336</speed>
  <fix>3d</fix>
</trkpt>
<trkpt lat="40.0713495" lon="-105.2298638">
  <ele>1583.0</ele>
  <time>2026-08-28T17:50:22Z</time>
  <course>246.0</course>
  <speed>4.97</speed>
  <fix>3d</fix>
</trkpt>
<trkpt lat="40.0713435" lon="-105.2298826">
  <ele>1583.01</ele>
  <time>2026-08-28T17:50:22Z</time>
  <course>246.92</course>
  <speed>5.34292990783147</speed>
  <fix>3d</fix>
</trkpt>
<trkpt lat="40.0713495" lon="-105.2298638">
  <ele>1583.0</ele>
  <time>2026-08-28T17:50:22Z</time>
  <course>246.0</course>
  <speed>4.97</speed>
  <fix>3d</fix>
</trkpt>
<trkpt lat="40.0713415" lon="-105.2298883">
  <ele>1583.01</ele>
  <time>2026-08-28T17:50:22Z</time>
  <course>246.91</course>
  <speed>5.432246312530388</speed>
  <fix>3d</fix>
</trkpt>
<trkpt lat="40.0713457" lon="-105.2298747">
  <ele>1583.0</ele>
  <time>2026-08-28T17:50:22Z</time>
  <course>246.0</course>
  <speed>5.18</speed>
  <fix>3d</fix>
</trkpt>
<trkpt lat="40.0713395" lon="-105.2298941">
  <ele>1583.01</ele>
  <time>2026-08-28T17:50:22Z</time>
  <course>246.89</course>
  <speed>5.521566806622917</speed>
  <fix>3d</fix>
</trkpt>
<trkpt lat="40.0713457" lon="-105.2298747">
  <ele>1583.0</ele>
  <time>2026-08-28T17:50:22Z</time>
  <course>246.0</course>
  <speed>5.18</speed>
  <fix>3d</fix>
</trkpt>
<trkpt lat="40.0713375" lon="-105.2299">
  <ele>1583.02</ele>
  <time>2026-08-28T17:50:22Z</time>
  <course>246.88</course>
  <speed>5.597722751262338</speed>
  <fix>3d</fix>
</trkpt>
<trkpt lat="40.0713419" lon="-105.229886">
  <ele>1583.0</ele>
  <time>2026-08-28T17:50:22Z</time>
  <course>246.0</course>
  <speed>5.37</speed>
  <fix>3d</fix>
</trkpt>
<trkpt lat="40.0713355" lon="-105.2299059">
  <ele>1583.02</ele>
  <time>2026-08-28T17:50:22Z</time>
  <course>246.87</course>
  <speed>5.67387874385768</speed>
  <fix>3d</fix>
</trkpt>
<trkpt lat="40.0713419" lon="-105.229886">
  <ele>1583.0</ele>
  <time>2026-08-28T17:50:22Z</time>
  <course>246.0</course>
  <speed>5.37</speed>
  <fix>3d</fix>
</trkpt>
<trkpt lat="40.0713334" lon="-105.229912">
  <ele>1583.02</ele>
  <time>2026-08-28T17:50:22Z</time>
  <course>246.86</course>
  <speed>5.750034782503494</speed>
  <fix>3d</fix>
</trkpt>
<trkpt lat="40.0713379" lon="-105.2298977">
  <ele>1583.0</ele>
  <time>2026-08-28T17:50:22Z</time>
  <course>245.99</course>
  <speed>5.54</speed>
  <fix>3d</fix>
</trkpt>
<trkpt lat="40.0713313" lon="-105.2299181">
  <ele>1583.02</ele>
  <time>2026-08-28T17:50:22Z</time>
  <course>246.85</course>
  <speed>5.817026731931013</speed>
  <fix>3d</fix>
</trkpt>
<trkpt lat="40.0713338" lon="-105.2299098">
  <ele>1583.0</ele>
  <time>2026-08-28T17:50:22Z</time>
  <course>245.99</course>
  <speed>5.7</speed>
  <fix>3d</fix>
</trkpt>
<trkpt lat="40.0713291" lon="-105.2299244">
  <ele>1583.02</ele>
  <time>2026-08-28T17:50:22Z</time>
  <course>246.84</course>
  <speed>5.884020734157893</speed>
  <fix>3d</fix>
</trkpt>
<trkpt lat="40.0713338" lon="-105.2299098">
  <ele>1583.0</ele>
  <time>2026-08-28T17:50:22Z</time>
  <course>245.99</course>
  <speed>5.7</speed>
  <fix>3d</fix>
</trkpt>
<trkpt lat="40.071327" lon="-105.2299306">
  <ele>1583.02</ele>
  <time>2026-08-28T17:50:22Z</time>
  <course>246.83</course>
  <speed>5.951016719855524</speed>
  <fix>3d</fix>
</trkpt>
<trkpt lat="40.0713296" lon="-105.2299222">
  <ele>1583.0</ele>
  <time>2026-08-28T17:50:22Z</time>
  <course>245.99</course>
  <speed>5.84</speed>
  <fix>3d</fix>
</trkpt>
<trkpt lat="40.0713248" lon="-105.2299371">
  <ele>1583.02</ele>
  <time>2026-08-28T17:50:22Z</time>
  <course>246.83</course>
  <speed>6.018014622780506</speed>
  <fix>3d</fix>
</trkpt>
<trkpt lat="40.0713296" lon="-105.2299222">
  <ele>1583.0</ele>
  <time>2026-08-28T17:50:22Z</time>
  <course>245.99</course>
  <speed>5.84</speed>
  <fix>3d</fix>
</trkpt>
<trkpt lat="40.0713226" lon="-105.2299436">
  <ele>1583.02</ele>
  <time>2026-08-28T17:50:22Z</time>
  <course>246.82</course>
  <speed>6.0718366249430655</speed>
  <fix>3d</fix>
</trkpt>
<trkpt lat="40.0713253" lon="-105.2299348">
  <ele>1583.0</ele>
  <time>2026-08-28T17:50:22Z</time>
  <course>245.99</course>
  <speed>5.97</speed>
  <fix>3d</fix>
</trkpt>
<trkpt lat="40.0713203" lon="-105.2299501">
  <ele>1583.02</ele>
  <time>2026-08-28T17:50:22Z</time>
  <course>246.82</course>
  <speed>6.1296818840784875</speed>
  <fix>3d</fix>
</trkpt>
<trkpt lat="40.0713253" lon="-105.2299348">
  <ele>1583.0</ele>
  <time>2026-08-28T17:50:22Z</time>
  <course>245.99</course>
  <speed>5.97</speed>
  <fix>3d</fix>
</trkpt>
<trkpt lat="40.0713181" lon="-105.2299568">
  <ele>1583.02</ele>
  <time>2026-08-28T17:50:22Z</time>
  <course>246.81</course>
  <speed>6.183502243874422</speed>
  <fix>3d</fix>
</trkpt>
<trkpt lat="40.0713209" lon="-105.2299478">
  <ele>1583.0</ele>
  <time>2026-08-28T17:50:22Z</time>
  <course>246.0</course>
  <speed>6.09</speed>
  <fix>3d</fix>
</trkpt>
<trkpt lat="40.0713158" lon="-105.2299635">
  <ele>1583.02</ele>
  <time>2026-08-28T17:50:22Z</time>
  <course>246.81</course>
  <speed>6.237323143785321</speed>
  <fix>3d</fix>
</trkpt>
<trkpt lat="40.0713209" lon="-105.2299478">
  <ele>1583.0</ele>
  <time>2026-08-28T17:50:22Z</time>
  <course>246.0</course>
  <speed>6.09</speed>
  <fix>3d</fix>
</trkpt>
<trkpt lat="40.0713135" lon="-105.2299702">
  <ele>1583.02</ele>
  <time>2026-08-28T17:50:22Z</time>
  <course>246.81</course>
  <speed>6.281990130523925</speed>
  <fix>3d</fix>
</trkpt>
<trkpt lat="40.0713164" lon="-105.229961">
  <ele>1583.0</ele>
  <time>2026-08-28T17:50:22Z</time>
  <course>246.0</course>
  <speed>6.19</speed>
  <fix>3d</fix>
</trkpt>
<trkpt lat="40.0713112" lon="-105.229977">
  <ele>1583.02</ele>
  <time>2026-08-28T17:50:22Z</time>
  <course>246.81</course>
  <speed>6.326657885487408</speed>
  <fix>3d</fix>
</trkpt>
<trkpt lat="40.0713164" lon="-105.229961">
  <ele>1583.0</ele>
  <time>2026-08-28T17:50:22Z</time>
  <course>246.0</course>
  <speed>6.19</speed>
  <fix>3d</fix>
</trkpt>
<trkpt lat="40.0713089" lon="-105.2299838">
  <ele>1583.02</ele>
  <time>2026-08-28T17:50:22Z</time>
  <course>246.81</course>
  <speed>6.37132639251828</speed>
  <fix>3d</fix>
</trkpt>
<trkpt lat="40.0713118" lon="-105.2299744">
  <ele>1583.0</ele>
  <time>2026-08-28T17:50:22Z</time>
  <course>246.0</course>
  <speed>6.29</speed>
  <fix>3d</fix>
</trkpt>
<trkpt lat="40.0713065" lon="-105.2299907">
  <ele>1583.02</ele>
  <time>2026-08-28T17:50:22Z</time>
  <course>246.81</course>
  <speed>6.4159956359087404</speed>
  <fix>3d</fix>
</trkpt>
<trkpt lat="40.0713118" lon="-105.2299744">
  <ele>1583.0</ele>
  <time>2026-08-28T17:50:22Z</time>
  <course>246.0</course>
  <speed>6.29</speed>
  <fix>3d</fix>
</trkpt>
<trkpt lat="40.0713041" lon="-105.2299976">
  <ele>1583.02</ele>
  <time>2026-08-28T17:50:22Z</time>
  <course>246.81</course>
  <speed>6.447480127925949</speed>
  <fix>3d</fix>
</trkpt>
<trkpt lat="40.0713072" lon="-105.229988">
  <ele>1583.0</ele>
  <time>2026-08-28T17:50:22Z</time>
  <course>246.0</course>
  <speed>6.38</speed>
  <fix>3d</fix>
</trkpt>
<trkpt lat="40.0713018" lon="-105.2300045">
  <ele>1583.02</ele>
  <time>2026-08-28T17:50:22Z</time>
  <course>246.81</course>
  <speed>6.492149104880448</speed>
  <fix>3d</fix>
</trkpt>
<trkpt lat="40.0713072" lon="-105.229988">
  <ele>1583.0</ele>
  <time>2026-08-28T17:50:22Z</time>
  <course>246.0</course>
  <speed>6.38</speed>
  <fix>3d</fix>
</trkpt>
<trkpt lat="40.0712994" lon="-105.2300115">
  <ele>1583.03</ele>
  <time>2026-08-28T17:50:22Z</time>
  <course>246.81</course>
  <speed>6.523633956622644</speed>
  <fix>3d</fix>
</trkpt>
<trkpt lat="40.0713072" lon="-105.229988">
  <ele>1583.0</ele>
  <time>2026-08-28T17:50:22Z</time>
  <course>246.0</course>
  <speed>6.38</speed>
  <fix>3d</fix>
</trkpt>
<trkpt lat="40.071297" lon="-105.2300184">
  <ele>1583.03</ele>
  <time>2026-08-28T17:50:22Z</time>
  <course>246.82</course>
  <speed>6.559153908851354</speed>
  <fix>3d</fix>
</trkpt>
<trkpt lat="40.0713025" lon="-105.2300018">
  <ele>1583.0</ele>
  <time>2026-08-28T17:50:22Z</time>
  <course>246.0</course>
  <speed>6.45</speed>
  <fix>3d</fix>
</trkpt>
<trkpt lat="40.0712946" lon="-105.2300254">
  <ele>1583.03</ele>
  <time>2026-08-28T17:50:22Z</time>
  <course>246.82</course>
  <speed>6.5814891931841695</speed>
  <fix>3d</fix>
</trkpt>
<trkpt lat="40.0713025" lon="-105.2300018">
  <ele>1583.0</ele>
  <time>2026-08-28T17:50:22Z</time>
  <course>246.0</course>
  <speed>6.45</speed>
  <fix>3d</fix>
</trkpt>
<trkpt lat="40.0712923" lon="-105.2300324">
  <ele>1583.03</ele>
  <time>2026-08-28T17:50:22Z</time>
  <course>246.83</course>
  <speed>6.6038246493982555</speed>
  <fix>3d</fix>
</trkpt>
<trkpt lat="40.0712977" lon="-105.2300157">
  <ele>1583.0</ele>
  <time>2026-08-28T17:50:22Z</time>
  <course>246.0</course>
  <speed>6.52</speed>
  <fix>3d</fix>
</trkpt>
<trkpt lat="40.0712899" lon="-105.2300394">
  <ele>1583.03</ele>
  <time>2026-08-28T17:50:22Z</time>
  <course>246.83</course>
  <speed>6.6353070765413715</speed>
  <fix>3d</fix>
</trkpt>
<trkpt lat="40.0712977" lon="-105.2300157">
  <ele>1583.0</ele>
  <time>2026-08-28T17:50:22Z</time>
  <course>246.0</course>
  <speed>6.52</speed>
  <fix>3d</fix>
</trkpt>
<trkpt lat="40.0712875" lon="-105.2300465">
  <ele>1583.03</ele>
  <time>2026-08-28T17:50:22Z</time>
  <course>246.84</course>
  <speed>6.657642225292675</speed>
  <fix>3d</fix>
</trkpt>
<trkpt lat="40.071293" lon="-105.2300298">
  <ele>1583.0</ele>
  <time>2026-08-28T17:50:22Z</time>
  <course>246.0</course>
  <speed>6.59</speed>
  <fix>3d</fix>
</trkpt>
<trkpt lat="40.071285" lon="-105.2300536">
  <ele>1583.03</ele>
  <time>2026-08-28T17:50:22Z</time>
  <course>246.84</course>
  <speed>6.679977544872438</speed>
  <fix>3d</fix>
</trkpt>
<trkpt lat="40.0712881" lon="-105.230044">
  <ele>1583.0</ele>
  <time>2026-08-28T17:50:22Z</time>
  <course>246.0</course>
  <speed>6.65</speed>
  <fix>3d</fix>
</trkpt>
<trkpt lat="40.0712826" lon="-105.2300607">
  <ele>1583.04</ele>
  <time>2026-08-28T17:50:22Z</time>
  <course>246.85</course>
  <speed>6.702313033572812</speed>
  <fix>3d</fix>
</trkpt>
<trkpt lat="40.0712881" lon="-105.230044">
  <ele>1583.0</ele>
  <time>2026-08-28T17:50:22Z</time>
  <course>246.0</course>
  <speed>6.65</speed>
  <fix>3d</fix>
</trkpt>
<trkpt lat="40.0712801" lon="-105.2300679">
  <ele>1583.04</ele>
  <time>2026-08-28T17:50:22Z</time>
  <course>246.85</course>
  <speed>6.72464868970863</speed>
  <fix>3d</fix>
</trkpt>
<trkpt lat="40.0712832" lon="-105.2300583">
  <ele>1583.0</ele>
  <time>2026-08-28T17:50:22Z</time>
  <course>246.0</course>
  <speed>6.7</speed>
  <fix>3d</fix>
</trkpt>
<trkpt lat="40.0712777" lon="-105.2300751">
  <ele>1583.04</ele>
  <time>2026-08-28T17:50:22Z</time>
  <course>246.86</course>
  <speed>6.746984511617024</speed>
  <fix>3d</fix>
</trkpt>
<trkpt lat="40.0712832" lon="-105.2300583">
  <ele>1583.0</ele>
  <time>2026-08-28T17:50:22Z</time>
  <course>246.0</course>
  <speed>6.7</speed>
  <fix>3d</fix>
</trkpt>
<trkpt lat="40.0712752" lon="-105.2300824">
  <ele>1583.04</ele>
  <time>2026-08-28T17:50:22Z</time>
  <course>246.86</course>
  <speed>6.769320497657057</speed>
  <fix>3d</fix>
</trkpt>
<trkpt lat="40.0712783" lon="-105.2300727">
  <ele>1583.0</ele>
  <time>2026-08-28T17:50:22Z</time>
  <course>246.0</course>
  <speed>6.75</speed>
  <fix>3d</fix>
</trkpt>
<trkpt lat="40.0712727" lon="-105.2300897">
  <ele>1583.04</ele>
  <time>2026-08-28T17:50:22Z</time>
  <course>246.87</course>
  <speed>6.782514283066421</speed>
  <fix>3d</fix>
</trkpt>
<trkpt lat="40.0712783" lon="-105.2300727">
  <ele>1583.0</ele>
  <time>2026-08-28T17:50:22Z</time>
  <course>246.0</course>
  <speed>6.75</speed>
  <fix>3d</fix>
</trkpt>
<trkpt lat="40.0712702" lon="-105.230097">
  <ele>1583.04</ele>
  <time>2026-08-28T17:50:22Z</time>
  <course>246.88</course>
  <speed>6.800801423361809</speed>
  <fix>3d</fix>
</trkpt>
<trkpt lat="40.0712733" lon="-105.2300873">
  <ele>1583.0</ele>
  <time>2026-08-28T17:50:22Z</time>
  <course>246.0</course>
  <speed>6.79</speed>
  <fix>3d</fix>
</trkpt>
<trkpt lat="40.0712677" lon="-105.2301044">
  <ele>1583.04</ele>
  <time>2026-08-28T17:50:22Z</time>
  <course>246.88</course>
  <speed>6.82313710839816</speed>
  <fix>3d</fix>
</trkpt>
<trkpt lat="40.0712733" lon="-105.2300873">
  <ele>1583.0</ele>
  <time>2026-08-28T17:50:22Z</time>
  <course>246.0</course>
  <speed>6.79</speed>
  <fix>3d</fix>
</trkpt>
<trkpt lat="40.0712652" lon="-105.2301117">
  <ele>1583.04</ele>
  <time>2026-08-28T17:50:22Z</time>
  <course>246.89</course>
  <speed>6.8363294244791915</speed>
  <fix>3d</fix>
</trkpt>
<trkpt lat="40.0712683" lon="-105.2301018">
  <ele>1583.0</ele>
  <time>2026-08-28T17:50:22Z</time>
  <course>246.0</course>
  <speed>6.83</speed>
  <fix>3d</fix>
</trkpt>
<trkpt lat="40.0712626" lon="-105.2301191">
  <ele>1583.04</ele>
  <time>2026-08-28T17:50:22Z</time>
  <course>246.9</course>
  <speed>6.858666051062699</speed>
  <fix>3d</fix>
</trkpt>
<trkpt lat="40.0712683" lon="-105.2301018">
  <ele>1583.0</ele>
  <time>2026-08-28T17:50:22Z</time>
  <course>246.0</course>
  <speed>6.83</speed>
  <fix>3d</fix>
</trkpt>
<trkpt lat="40.0712601" lon="-105.2301265">
  <ele>1583.04</ele>
  <time>2026-08-28T17:50:22Z</time>
  <course>246.9</course>
  <speed>6.8678089664754065</speed>
  <fix>3d</fix>
</trkpt>
<trkpt lat="40.0712634" lon="-105.2301166">
  <ele>1583.0</ele>
  <time>2026-08-28T17:50:22Z</time>
  <course>246.0</course>
  <speed>6.86</speed>
  <fix>3d</fix>
</trkpt>
<trkpt lat="40.0712576" lon="-105.2301339">
  <ele>1583.04</ele>
  <time>2026-08-28T17:50:22Z</time>
  <course>246.91</course>
  <speed>6.890145136352354</speed>
  <fix>3d</fix>
</trkpt>
<trkpt lat="40.0712634" lon="-105.2301166">
  <ele>1583.0</ele>
  <time>2026-08-28T17:50:22Z</time>
  <course>246.0</course>
  <speed>6.86</speed>
  <fix>3d</fix>
</trkpt>
<trkpt lat="40.0712551" lon="-105.2301414">
  <ele>1583.04</ele>
  <time>2026-08-28T17:50:22Z</time>
  <course>246.92</course>
  <speed>6.903339771443964</speed>
  <fix>3d</fix>
</trkpt>
<trkpt lat="40.0712584" lon="-105.2301313">
  <ele>1583.0</ele>
  <time>2026-08-28T17:50:22Z</time>
  <course>246.0</course>
  <speed>6.89</speed>
  <fix>3d</fix>
</trkpt>
<trkpt lat="40.0712525" lon="-105.2301488">
  <ele>1583.05</ele>
  <time>2026-08-28T17:50:22Z</time>
  <course>246.93</course>
  <speed>6.912481464712943</speed>
  <fix>3d</fix>
</trkpt>
<trkpt lat="40.0712584" lon="-105.2301313">
  <ele>1583.0</ele>
  <time>2026-08-28T17:50:22Z</time>
  <course>246.0</course>
  <speed>6.89</speed>
  <fix>3d</fix>
</trkpt>
<trkpt lat="40.07125" lon="-105.2301563">
  <ele>1583.05</ele>
  <time>2026-08-28T17:50:22Z</time>
  <course>246.93</course>
  <speed>6.92567686222798</speed>
  <fix>3d</fix>
</trkpt>
<trkpt lat="40.0712584" lon="-105.2301313">
  <ele>1583.0</ele>
  <time>2026-08-28T17:50:22Z</time>
  <course>246.0</course>
  <speed>6.89</speed>
  <fix>3d</fix>
</trkpt>
<trkpt lat="40.0712475" lon="-105.2301637">
  <ele>1583.05</ele>
  <time>2026-08-28T17:50:22Z</time>
  <course>246.94</course>
  <speed>6.934817950025797</speed>
  <fix>3d</fix>
</trkpt>
<trkpt lat="40.0712533" lon="-105.2301461">
  <ele>1583.0</ele>
  <time>2026-08-28T17:50:22Z</time>
  <course>246.0</course>
  <speed>6.92</speed>
  <fix>3d</fix>
</trkpt>
<trkpt lat="40.0712449" lon="-105.2301711">
  <ele>1583.05</ele>
  <time>2026-08-28T17:50:22Z</time>
  <course>246.95</course>
  <speed>6.948014104764037</speed>
  <fix>3d</fix>
</trkpt>
<trkpt lat="40.0712533" lon="-105.2301461">
  <ele>1583.0</ele>
  <time>2026-08-28T17:50:22Z</time>
  <course>246.0</course>
  <speed>6.92</speed>
  <fix>3d</fix>
</trkpt>
<trkpt lat="40.0712424" lon="-105.2301785">
  <ele>1583.05</ele>
  <time>2026-08-28T17:50:22Z</time>
  <course>246.95</course>
  <speed>6.957154590779193</speed>
  <fix>3d</fix>
</trkpt>
<trkpt lat="40.0712482" lon="-105.2301611">
  <ele>1583.0</ele>
  <time>2026-08-28T17:50:23Z</time>
  <course>246.0</course>
  <speed>6.95</speed>
  <fix>3d</fix>
</trkpt>
<trkpt lat="40.0712399" lon="-105.2301859">
  <ele>1583.05</ele>
  <time>2026-08-28T17:50:23Z</time>
  <course>246.96</course>
  <speed>6.957154590779193</speed>
  <fix>3d</fix>
</trkpt>
<trkpt lat="40.0712482" lon="-105.2301611">
  <ele>1583.0</ele>
  <time>2026-08-28T17:50:23Z</time>
  <course>246.0</course>
  <speed>6.95</speed>
  <fix>3d</fix>
</trkpt>
<trkpt lat="40.0712374" lon="-105.2301933">
  <ele>1583.05</ele>
  <time>2026-08-28T17:50:23Z</time>
  <course>246.97</course>
  <speed>6.966297438381454</speed>
  <fix>3d</fix>
</trkpt>
<trkpt lat="40.0712431" lon="-105.230176">
  <ele>1583.0</ele>
  <time>2026-08-28T17:50:23Z</time>
  <course>246.0</course>
  <speed>6.97</speed>
  <fix>3d</fix>
</trkpt>
<trkpt lat="40.0712348" lon="-105.2302008">
  <ele>1583.05</ele>
  <time>2026-08-28T17:50:23Z</time>
  <course>246.98</course>
  <speed>6.970351497593217</speed>
  <fix>3d</fix>
</trkpt>
<trkpt lat="40.071238" lon="-105.2301909">
  <ele>1583.0</ele>
  <time>2026-08-28T17:50:23Z</time>
  <course>246.0</course>
  <speed>6.99</speed>
  <fix>3d</fix>
</trkpt>
<trkpt lat="40.0712322" lon="-105.2302082">
  <ele>1583.06</ele>
  <time>2026-08-28T17:50:23Z</time>
  <course>246.99</course>
  <speed>6.97949138548075</speed>
  <fix>3d</fix>
</trkpt>
<trkpt lat="40.071238" lon="-105.2301909">
  <ele>1583.0</ele>
  <time>2026-08-28T17:50:23Z</time>
  <course>246.0</course>
  <speed>6.99</speed>
  <fix>3d</fix>
</trkpt>
<trkpt lat="40.0712297" lon="-105.2302157">
  <ele>1583.06</ele>
  <time>2026-08-28T17:50:23Z</time>
  <course>246.99</course>
  <speed>6.97949138548075</speed>
  <fix>3d</fix>
</trkpt>
<trkpt lat="40.0712329" lon="-105.230206">
  <ele>1583.0</ele>
  <time>2026-08-28T17:50:23Z</time>
  <course>246.0</course>
  <speed>7.01</speed>
  <fix>3d</fix>
</trkpt>
<trkpt lat="40.0712271" lon="-105.2302232">
  <ele>1583.06</ele>
  <time>2026-08-28T17:50:23Z</time>
  <course>247.0</course>
  <speed>6.992689039275234</speed>
  <fix>3d</fix>
</trkpt>
<trkpt lat="40.0712329" lon="-105.230206">
  <ele>1583.0</ele>
  <time>2026-08-28T17:50:23Z</time>
  <course>246.0</course>
  <speed>7.01</speed>
  <fix>3d</fix>
</trkpt>
<trkpt lat="40.0712246" lon="-105.2302308">
  <ele>1583.06</ele>
  <time>2026-08-28T17:50:23Z</time>
  <course>247.01</course>
  <speed>7.001828332657121</speed>
  <fix>3d</fix>
</trkpt>
<trkpt lat="40.0712278" lon="-105.2302211">
  <ele>1583.0</ele>
  <time>2026-08-28T17:50:23Z</time>
  <course>246.0</course>
  <speed>7.03</speed>
  <fix>3d</fix>
</trkpt>
<trkpt lat="40.071222" lon="-105.2302383">
  <ele>1583.07</ele>
  <time>2026-08-28T17:50:23Z</time>
  <course>247.02</course>
  <speed>7.0109699756881</speed>
  <fix>3d</fix>
</trkpt>
<trkpt lat="40.0712278" lon="-105.2302211">
  <ele>1583.0</ele>
  <time>2026-08-28T17:50:23Z</time>
  <course>246.0</course>
  <speed>7.03</speed>
  <fix>3d</fix>
</trkpt>
<trkpt lat="40.0712194" lon="-105.2302459">
  <ele>1583.07</ele>
  <time>2026-08-28T17:50:23Z</time>
  <course>247.03</course>
  <speed>7.01502672838814</speed>
  <fix>3d</fix>
</trkpt>
<trkpt lat="40.0712226" lon="-105.2302362">
  <ele>1583.0</ele>
  <time>2026-08-28T17:50:23Z</time>
  <course>246.0</course>
  <speed>7.05</speed>
  <fix>3d</fix>
</trkpt>
<trkpt lat="40.0712168" lon="-105.2302535">
  <ele>1583.07</ele>
  <time>2026-08-28T17:50:23Z</time>
  <course>247.03</course>
  <speed>7.02416543085369</speed>
  <fix>3d</fix>
</trkpt>
<trkpt lat="40.0712226" lon="-105.2302362">
  <ele>1583.0</ele>
  <time>2026-08-28T17:50:23Z</time>
  <course>246.0</course>
  <speed>7.05</speed>
  <fix>3d</fix>
</trkpt>
<trkpt lat="40.0712142" lon="-105.2302612">
  <ele>1583.07</ele>
  <time>2026-08-28T17:50:23Z</time>
  <course>247.04</course>
  <speed>7.033306477041932</speed>
  <fix>3d</fix>
</trkpt>
<trkpt lat="40.0712175" lon="-105.2302513">
  <ele>1583.0</ele>
  <time>2026-08-28T17:50:23Z</time>
  <course>246.0</course>
  <speed>7.06</speed>
  <fix>3d</fix>
</trkpt>
<trkpt lat="40.0712116" lon="-105.2302688">
  <ele>1583.07</ele>
  <time>2026-08-28T17:50:23Z</time>
  <course>247.05</course>
  <speed>7.046502678634274</speed>
  <fix>3d</fix>
</trkpt>
<trkpt lat="40.0712175" lon="-105.2302513">
  <ele>1583.0</ele>
  <time>2026-08-28T17:50:23Z</time>
  <course>246.0</course>
  <speed>7.06</speed>
  <fix>3d</fix>
</trkpt>
<trkpt lat="40.071209" lon="-105.2302765">
  <ele>1583.07</ele>
  <time>2026-08-28T17:50:23Z</time>
  <course>247.05</course>
  <speed>7.046502678634274</speed>
  <fix>3d</fix>
</trkpt>
<trkpt lat="40.0712123" lon="-105.2302665">
  <ele>1583.0</ele>
  <time>2026-08-28T17:50:23Z</time>
  <course>246.0</course>
  <speed>7.07</speed>
  <fix>3d</fix>
</trkpt>
<trkpt lat="40.0712064" lon="-105.2302841">
  <ele>1583.07</ele>
  <time>2026-08-28T17:50:23Z</time>
  <course>247.06</course>
  <speed>7.055643131564974</speed>
  <fix>3d</fix>
</trkpt>
<trkpt lat="40.0712123" lon="-105.2302665">
  <ele>1583.0</ele>
  <time>2026-08-28T17:50:23Z</time>
  <course>246.0</course>
  <speed>7.07</speed>
  <fix>3d</fix>
</trkpt>
<trkpt lat="40.0712038" lon="-105.2302917">
  <ele>1583.07</ele>
  <time>2026-08-28T17:50:23Z</time>
  <course>247.07</course>
  <speed>7.055643131564974</speed>
  <fix>3d</fix>
</trkpt>
<trkpt lat="40.0712072" lon="-105.2302816">
  <ele>1583.0</ele>
  <time>2026-08-28T17:50:23Z</time>
  <course>246.0</course>
  <speed>7.08</speed>
  <fix>3d</fix>
</trkpt>
<trkpt lat="40.0712012" lon="-105.2302994">
  <ele>1583.06</ele>
  <time>2026-08-28T17:50:23Z</time>
  <course>247.08</course>
  <speed>7.064785913246062</speed>
  <fix>3d</fix>
</trkpt>
<trkpt lat="40.0712072" lon="-105.2302816">
  <ele>1583.0</ele>
  <time>2026-08-28T17:50:23Z</time>
  <course>246.0</course>
  <speed>7.08</speed>
  <fix>3d</fix>
</trkpt>
<trkpt lat="40.0711986" lon="-105.230307">
  <ele>1583.06</ele>
  <time>2026-08-28T17:50:23Z</time>
  <course>247.08</course>
  <speed>7.068840074580836</speed>
  <fix>3d</fix>
</trkpt>
<trkpt lat="40.0712072" lon="-105.2302816">
  <ele>1583.0</ele>
  <time>2026-08-28T17:50:23Z</time>
  <course>246.0</course>
  <speed>7.08</speed>
  <fix>3d</fix>
</trkpt>
<trkpt lat="40.071196" lon="-105.2303146">
  <ele>1583.06</ele>
  <time>2026-08-28T17:50:23Z</time>
  <course>247.09</course>
  <speed>7.077979937807114</speed>
  <fix>3d</fix>
</trkpt>
<trkpt lat="40.071202" lon="-105.2302969">
  <ele>1583.0</ele>
  <time>2026-08-28T17:50:23Z</time>
  <course>246.0</course>
  <speed>7.09</speed>
  <fix>3d</fix>
</trkpt>
<trkpt lat="40.0711934" lon="-105.2303222">
  <ele>1583.06</ele>
  <time>2026-08-28T17:50:23Z</time>
  <course>247.09</course>
  <speed>7.077979937807114</speed>
  <fix>3d</fix>
</trkpt>
<trkpt lat="40.071202" lon="-105.2302969">
  <ele>1583.0</ele>
  <time>2026-08-28T17:50:23Z</time>
  <course>246.0</course>
  <speed>7.09</speed>
  <fix>3d</fix>
</trkpt>
<trkpt lat="40.0711909" lon="-105.2303297">
  <ele>1583.06</ele>
  <time>2026-08-28T17:50:23Z</time>
  <course>247.1</course>
  <speed>7.077979937807114</speed>
  <fix>3d</fix>
</trkpt>
<trkpt lat="40.0711967" lon="-105.2303121">
  <ele>1583.0</ele>
  <time>2026-08-28T17:50:23Z</time>
  <course>246.0</course>
  <speed>7.1</speed>
  <fix>3d</fix>
</trkpt>
<trkpt lat="40.0711883" lon="-105.2303373">
  <ele>1583.06</ele>
  <time>2026-08-28T17:50:23Z</time>
  <course>247.11</course>
  <speed>7.077979937807114</speed>
  <fix>3d</fix>
</trkpt>
<trkpt lat="40.0711967" lon="-105.2303121">
  <ele>1583.0</ele>
  <time>2026-08-28T17:50:23Z</time>
  <course>246.0</course>
  <speed>7.1</speed>
  <fix>3d</fix>
</trkpt>
<trkpt lat="40.0711857" lon="-105.2303448">
  <ele>1583.05</ele>
  <time>2026-08-28T17:50:23Z</time>
  <course>247.11</course>
  <speed>7.077979937807114</speed>
  <fix>3d</fix>
</trkpt>
<trkpt lat="40.0711916" lon="-105.2303274">
  <ele>1583.0</ele>
  <time>2026-08-28T17:50:23Z</time>
  <course>246.0</course>
  <speed>7.11</speed>
  <fix>3d</fix>
</trkpt>
<trkpt lat="40.0711832" lon="-105.2303524">
  <ele>1583.05</ele>
  <time>2026-08-28T17:50:23Z</time>
  <course>247.12</course>
  <speed>7.077979937807114</speed>
  <fix>3d</fix>
</trkpt>
<trkpt lat="40.0711916" lon="-105.2303274">
  <ele>1583.0</ele>
  <time>2026-08-28T17:50:23Z</time>
  <course>246.0</course>
  <speed>7.11</speed>
  <fix>3d</fix>
</trkpt>
<trkpt lat="40.0711806" lon="-105.23036">
  <ele>1583.05</ele>
  <time>2026-08-28T17:50:23Z</time>
  <course>247.13</course>
  <speed>7.077979937807114</speed>
  <fix>3d</fix>
</trkpt>
<trkpt lat="40.0711864" lon="-105.2303427">
  <ele>1583.0</ele>
  <time>2026-08-28T17:50:23Z</time>
  <course>246.0</course>
  <speed>7.12</speed>
  <fix>3d</fix>
</trkpt>
<trkpt lat="40.071178" lon="-105.2303675">
  <ele>1583.05</ele>
  <time>2026-08-28T17:50:23Z</time>
  <course>247.13</course>
  <speed>7.077979937807114</speed>
  <fix>3d</fix>
</trkpt>
<trkpt lat="40.0711812" lon="-105.230358">
  <ele>1583.0</ele>
  <time>2026-08-28T17:50:23Z</time>
  <course>246.0</course>
  <speed>7.13</speed>
  <fix>3d</fix>
</trkpt>
<trkpt lat="40.0711754" lon="-105.2303752">
  <ele>1583.05</ele>
  <time>2026-08-28T17:50:23Z</time>
  <course>247.14</course>
  <speed>7.077979937807114</speed>
  <fix>3d</fix>
</trkpt>
<trkpt lat="40.0711812" lon="-105.230358">
  <ele>1583.0</ele>
  <time>2026-08-28T17:50:23Z</time>
  <course>246.0</course>
  <speed>7.13</speed>
  <fix>3d</fix>
</trkpt>
<trkpt lat="40.0711728" lon="-105.2303828">
  <ele>1583.05</ele>
  <time>2026-08-28T17:50:23Z</time>
  <course>247.14</course>
  <speed>7.087122123965411</speed>
  <fix>3d</fix>
</trkpt>
<trkpt lat="40.0711759" lon="-105.2303733">
  <ele>1583.0</ele>
  <time>2026-08-28T17:50:23Z</time>
  <course>246.0</course>
  <speed>7.13</speed>
  <fix>3d</fix>
</trkpt>
<trkpt lat="40.0711702" lon="-105.2303905">
  <ele>1583.05</ele>
  <time>2026-08-28T17:50:23Z</time>
  <course>247.15</course>
  <speed>7.087122123965411</speed>
  <fix>3d</fix>
</trkpt>
<trkpt lat="40.0711759" lon="-105.2303733">
  <ele>1583.0</ele>
  <time>2026-08-28T17:50:23Z</time>
  <course>246.0</course>
  <speed>7.13</speed>
  <fix>3d</fix>
</trkpt>
<trkpt lat="40.0711676" lon="-105.2303981">
  <ele>1583.05</ele>
  <time>2026-08-28T17:50:23Z</time>
  <course>247.16</course>
  <speed>7.087122123965411</speed>
  <fix>3d</fix>
</trkpt>
<trkpt lat="40.0711706" lon="-105.2303886">
  <ele>1583.0</ele>
  <time>2026-08-28T17:50:23Z</time>
  <course>246.0</course>
  <speed>7.14</speed>
  <fix>3d</fix>
</trkpt>
<trkpt lat="40.071165" lon="-105.2304059">
  <ele>1583.05</ele>
  <time>2026-08-28T17:50:23Z</time>
  <course>247.17</course>
  <speed>7.096266624077762</speed>
  <fix>3d</fix>
</trkpt>
<trkpt lat="40.0711706" lon="-105.2303886">
  <ele>1583.0</ele>
  <time>2026-08-28T17:50:23Z</time>
  <course>246.0</course>
  <speed>7.14</speed>
  <fix>3d</fix>
</trkpt>
<trkpt lat="40.0711623" lon="-105.2304136">
  <ele>1583.05</ele>
  <time>2026-08-28T17:50:23Z</time>
  <course>247.17</course>
  <speed>7.100316894336478</speed>
  <fix>3d</fix>
</trkpt>
<trkpt lat="40.0711655" lon="-105.2304039">
  <ele>1583.0</ele>
  <time>2026-08-28T17:50:23Z</time>
  <course>246.0</course>
  <speed>7.15</speed>
  <fix>3d</fix>
</trkpt>
<trkpt lat="40.0711597" lon="-105.2304214">
  <ele>1583.05</ele>
  <time>2026-08-28T17:50:23Z</time>
  <course>247.18</course>
  <speed>7.109458488520768</speed>
  <fix>3d</fix>
</trkpt>
<trkpt lat="40.0711655" lon="-105.2304039">
  <ele>1583.0</ele>
  <time>2026-08-28T17:50:23Z</time>
  <course>246.0</course>
  <speed>7.15</speed>
  <fix>3d</fix>
</trkpt>
<trkpt lat="40.071157" lon="-105.2304291">
  <ele>1583.04</ele>
  <time>2026-08-28T17:50:23Z</time>
  <course>247.19</course>
  <speed>7.109458488520768</speed>
  <fix>3d</fix>
</trkpt>
<trkpt lat="40.0711603" lon="-105.2304192">
  <ele>1583.0</ele>
  <time>2026-08-28T17:50:23Z</time>
  <course>246.0</course>
  <speed>7.15</speed>
  <fix>3d</fix>
</trkpt>
<trkpt lat="40.0711544" lon="-105.2304368">
  <ele>1583.04</ele>
  <time>2026-08-28T17:50:23Z</time>
  <course>247.19</course>
  <speed>7.118602390919161</speed>
  <fix>3d</fix>
</trkpt>
<trkpt lat="40.0711603" lon="-105.2304192">
  <ele>1583.0</ele>
  <time>2026-08-28T17:50:23Z</time>
  <course>246.0</course>
  <speed>7.15</speed>
  <fix>3d</fix>
</trkpt>
<trkpt lat="40.0711518" lon="-105.2304445">
  <ele>1583.04</ele>
  <time>2026-08-28T17:50:23Z</time>
  <course>247.2</course>
  <speed>7.118602390919161</speed>
  <fix>3d</fix>
</trkpt>
<trkpt lat="40.071155" lon="-105.2304346">
  <ele>1583.0</ele>
  <time>2026-08-28T17:50:23Z</time>
  <course>245.99</course>
  <speed>7.15</speed>
  <fix>3d</fix>
</trkpt>
<trkpt lat="40.0711491" lon="-105.2304523">
  <ele>1583.04</ele>
  <time>2026-08-28T17:50:23Z</time>
  <course>247.2</course>
  <speed>7.118602390919161</speed>
  <fix>3d</fix>
</trkpt>
<trkpt lat="40.071155" lon="-105.2304346">
  <ele>1583.0</ele>
  <time>2026-08-28T17:50:23Z</time>
  <course>245.99</course>
  <speed>7.15</speed>
  <fix>3d</fix>
</trkpt>
<trkpt lat="40.0711465" lon="-105.23046">
  <ele>1583.03</ele>
  <time>2026-08-28T17:50:23Z</time>
  <course>247.21</course>
  <speed>7.131795005466716</speed>
  <fix>3d</fix>
</trkpt>
<trkpt lat="40.0711498" lon="-105.2304499">
  <ele>1583.0</ele>
  <time>2026-08-28T17:50:23Z</time>
  <course>246.0</course>
  <speed>7.16</speed>
  <fix>3d</fix>
</trkpt>
<trkpt lat="40.0711439" lon="-105.2304677">
  <ele>1583.03</ele>
  <time>2026-08-28T17:50:23Z</time>
  <course>247.21</course>
  <speed>7.131795005466716</speed>
  <fix>3d</fix>
</trkpt>
<trkpt lat="40.0711498" lon="-105.2304499">
  <ele>1583.0</ele>
  <time>2026-08-28T17:50:23Z</time>
  <course>246.0</course>
  <speed>7.16</speed>
  <fix>3d</fix>
</trkpt>
<trkpt lat="40.0711413" lon="-105.2304754">
  <ele>1583.03</ele>
  <time>2026-08-28T17:50:23Z</time>
  <course>247.22</course>
  <speed>7.131795005466716</speed>
  <fix>3d</fix>
</trkpt>
<trkpt lat="40.0711498" lon="-105.2304499">
  <ele>1583.0</ele>
  <time>2026-08-28T17:50:23Z</time>
  <course>246.0</course>
  <speed>7.16</speed>
  <fix>3d</fix>
</trkpt>
<trkpt lat="40.0711386" lon="-105.2304831">
  <ele>1583.03</ele>
  <time>2026-08-28T17:50:23Z</time>
  <course>247.22</course>
  <speed>7.131795005466716</speed>
  <fix>3d</fix>
</trkpt>
<trkpt lat="40.0711445" lon="-105.2304654">
  <ele>1583.0</ele>
  <time>2026-08-28T17:50:23Z</time>
  <course>246.0</course>
  <speed>7.16</speed>
  <fix>3d</fix>
</trkpt>
<trkpt lat="40.071136" lon="-105.2304907">
  <ele>1583.02</ele>
  <time>2026-08-28T17:50:23Z</time>
  <course>247.23</course>
  <speed>7.131795005466716</speed>
  <fix>3d</fix>
</trkpt>
<trkpt lat="40.0711445" lon="-105.2304654">
  <ele>1583.0</ele>
  <time>2026-08-28T17:50:23Z</time>
  <course>246.0</course>
  <speed>7.16</speed>
  <fix>3d</fix>
</trkpt>
<trkpt lat="40.0711334" lon="-105.2304984">
  <ele>1583.02</ele>
  <time>2026-08-28T17:50:23Z</time>
  <course>247.23</course>
  <speed>7.131795005466716</speed>
  <fix>3d</fix>
</trkpt>
<trkpt lat="40.0711393" lon="-105.2304808">
  <ele>1583.0</ele>
  <time>2026-08-28T17:50:23Z</time>
  <course>245.99</course>
  <speed>7.16</speed>
  <fix>3d</fix>
</trkpt>
<trkpt lat="40.0711308" lon="-105.230506">
  <ele>1583.02</ele>
  <time>2026-08-28T17:50:23Z</time>
  <course>247.24</course>
  <speed>7.131795005466716</speed>
  <fix>3d</fix>
</trkpt>
<trkpt lat="40.0711393" lon="-105.2304808">
  <ele>1583.0</ele>
  <time>2026-08-28T17:50:23Z</time>
  <course>245.99</course>
  <speed>7.16</speed>
  <fix>3d</fix>
</trkpt>
<trkpt lat="40.0711282" lon="-105.2305136">
  <ele>1583.01</ele>
  <time>2026-08-28T17:50:23Z</time>
  <course>247.24</course>
  <speed>7.131795005466716</speed>
  <fix>3d</fix>
</trkpt>
<trkpt lat="40.071134" lon="-105.2304961">
  <ele>1583.0</ele>
  <time>2026-08-28T17:50:23Z</time>
  <course>245.99</course>
  <speed>7.17</speed>
  <fix>3d</fix>
</trkpt>
<trkpt lat="40.0711256" lon="-105.2305213">
  <ele>1583.01</ele>
  <time>2026-08-28T17:50:23Z</time>
  <course>247.25</course>
  <speed>7.127748592648312</speed>
  <fix>3d</fix>
</trkpt>
<trkpt lat="40.0711288" lon="-105.2305114">
  <ele>1583.0</ele>
  <time>2026-08-28T17:50:23Z</time>
  <course>245.99</course>
  <speed>7.17</speed>
  <fix>3d</fix>
</trkpt>
<trkpt lat="40.071123" lon="-105.230529">
  <ele>1583.01</ele>
  <time>2026-08-28T17:50:23Z</time>
  <course>247.25</course>
  <speed>7.131795005466716</speed>
  <fix>3d</fix>
</trkpt>
<trkpt lat="40.0711288" lon="-105.2305114">
  <ele>1583.0</ele>
  <time>2026-08-28T17:50:23Z</time>
  <course>245.99</course>
  <speed>7.17</speed>
  <fix>3d</fix>
</trkpt>
<trkpt lat="40.0711204" lon="-105.2305367">
  <ele>1583.0</ele>
  <time>2026-08-28T17:50:23Z</time>
  <course>247.26</course>
  <speed>7.131795005466716</speed>
  <fix>3d</fix>
</trkpt>
<trkpt lat="40.0711235" lon="-105.2305269">
  <ele>1583.0</ele>
  <time>2026-08-28T17:50:23Z</time>
  <course>246.0</course>
  <speed>7.17</speed>
  <fix>3d</fix>
</trkpt>
<trkpt lat="40.0711178" lon="-105.2305443">
  <ele>1583.0</ele>
  <time>2026-08-28T17:50:23Z</time>
  <course>247.26</course>
  <speed>7.131795005466716</speed>
  <fix>3d</fix>
</trkpt>
<trkpt lat="40.0711235" lon="-105.2305269">
  <ele>1583.0</ele>
  <time>2026-08-28T17:50:23Z</time>
  <course>246.0</course>
  <speed>7.17</speed>
  <fix>3d</fix>
</trkpt>
<trkpt lat="40.0711151" lon="-105.230552">
  <ele>1582.99</ele>
  <time>2026-08-28T17:50:23Z</time>
  <course>247.27</course>
  <speed>7.140938313695196</speed>
  <fix>3d</fix>
</trkpt>
<trkpt lat="40.0711184" lon="-105.2305423">
  <ele>1583.0</ele>
  <time>2026-08-28T17:50:23Z</time>
  <course>246.0</course>
  <speed>7.17</speed>
  <fix>3d</fix>
</trkpt>
<trkpt lat="40.0711125" lon="-105.2305598">
  <ele>1582.99</ele>
  <time>2026-08-28T17:50:23Z</time>
  <course>247.27</course>
  <speed>7.140938313695196</speed>
  <fix>3d</fix>
</trkpt>
<trkpt lat="40.0711184" lon="-105.2305423">
  <ele>1583.0</ele>
  <time>2026-08-28T17:50:23Z</time>
  <course>246.0</course>
  <speed>7.17</speed>
  <fix>3d</fix>
</trkpt>
<trkpt lat="40.0711099" lon="-105.2305675">
  <ele>1582.99</ele>
  <time>2026-08-28T17:50:23Z</time>
  <course>247.28</course>
  <speed>7.140938313695196</speed>
  <fix>3d</fix>
</trkpt>
<trkpt lat="40.0711131" lon="-105.2305576">
  <ele>1583.0</ele>
  <time>2026-08-28T17:50:23Z</time>
  <course>245.99</course>
  <speed>7.18</speed>
  <fix>3d</fix>
</trkpt>
<trkpt lat="40.0711072" lon="-105.2305753">
  <ele>1582.99</ele>
  <time>2026-08-28T17:50:23Z</time>
  <course>247.28</course>
  <speed>7.150083915591481</speed>
  <fix>3d</fix>
</trkpt>
<trkpt lat="40.0711131" lon="-105.2305576">
  <ele>1583.0</ele>
  <time>2026-08-28T17:50:23Z</time>
  <course>245.99</course>
  <speed>7.18</speed>
  <fix>3d</fix>
</trkpt>
<trkpt lat="40.0711046" lon="-105.2305831">
  <ele>1582.99</ele>
  <time>2026-08-28T17:50:23Z</time>
  <course>247.28</course>
  <speed>7.150083915591481</speed>
  <fix>3d</fix>
</trkpt>
<trkpt lat="40.0711079" lon="-105.230573">
  <ele>1583.0</ele>
  <time>2026-08-28T17:50:23Z</time>
  <course>246.0</course>
  <speed>7.18</speed>
  <fix>3d</fix>
</trkpt>
<trkpt lat="40.0711019" lon="-105.2305908">
  <ele>1583.0</ele>
  <time>2026-08-28T17:50:23Z</time>
  <course>247.29</course>
  <speed>7.150083915591481</speed>
  <fix>3d</fix>
</trkpt>
<trkpt lat="40.0711079" lon="-105.230573">
  <ele>1583.0</ele>
  <time>2026-08-28T17:50:23Z</time>
  <course>246.0</course>
  <speed>7.18</speed>
  <fix>3d</fix>
</trkpt>
<trkpt lat="40.0710993" lon="-105.2305986">
  <ele>1583.0</ele>
  <time>2026-08-28T17:50:23Z</time>
  <course>247.29</course>
  <speed>7.150083915591481</speed>
  <fix>3d</fix>
</trkpt>
<trkpt lat="40.0711026" lon="-105.2305885">
  <ele>1583.0</ele>
  <time>2026-08-28T17:50:23Z</time>
  <course>246.0</course>
  <speed>7.18</speed>
  <fix>3d</fix>
</trkpt>
<trkpt lat="40.0710967" lon="-105.2306063">
  <ele>1583.0</ele>
  <time>2026-08-28T17:50:23Z</time>
  <course>247.29</course>
  <speed>7.159231802365391</speed>
  <fix>3d</fix>
</trkpt>
<trkpt lat="40.0711026" lon="-105.2305885">
  <ele>1583.0</ele>
  <time>2026-08-28T17:50:23Z</time>
  <course>246.0</course>
  <speed>7.18</speed>
  <fix>3d</fix>
</trkpt>
<trkpt lat="40.071094" lon="-105.2306141">
  <ele>1583.0</ele>
  <time>2026-08-28T17:50:23Z</time>
  <course>247.3</course>
  <speed>7.159231802365391</speed>
  <fix>3d</fix>
</trkpt>
<trkpt lat="40.0710974" lon="-105.2306038">
  <ele>1583.0</ele>
  <time>2026-08-28T17:50:23Z</time>
  <course>246.0</course>
  <speed>7.18</speed>
  <fix>3d</fix>
</trkpt>
<trkpt lat="40.0710914" lon="-105.2306218">
  <ele>1583.0</ele>
  <time>2026-08-28T17:50:23Z</time>
  <course>247.3</course>
  <speed>7.163274390947201</speed>
  <fix>3d</fix>
</trkpt>
<trkpt lat="40.0710974" lon="-105.2306038">
  <ele>1583.0</ele>
  <time>2026-08-28T17:50:23Z</time>
  <course>246.0</course>
  <speed>7.18</speed>
  <fix>3d</fix>
</trkpt>
<trkpt lat="40.0710888" lon="-105.2306296">
  <ele>1583.0</ele>
  <time>2026-08-28T17:50:23Z</time>
  <course>247.3</course>
  <speed>7.163274390947201</speed>
  <fix>3d</fix>
</trkpt>
<trkpt lat="40.0710974" lon="-105.2306038">
  <ele>1583.0</ele>
  <time>2026-08-28T17:50:23Z</time>
  <course>246.0</course>
  <speed>7.18</speed>
  <fix>3d</fix>
</trkpt>
<trkpt lat="40.0710861" lon="-105.2306372">
  <ele>1583.0</ele>
  <time>2026-08-28T17:50:23Z</time>
  <course>247.3</course>
  <speed>7.159231802365391</speed>
  <fix>3d</fix>
</trkpt>
<trkpt lat="40.0710921" lon="-105.2306193">
  <ele>1583.0</ele>
  <time>2026-08-28T17:50:23Z</time>
  <course>246.0</course>
  <speed>7.18</speed>
  <fix>3d</fix>
</trkpt>
<trkpt lat="40.0710835" lon="-105.2306449">
  <ele>1582.99</ele>
  <time>2026-08-28T17:50:23Z</time>
  <course>247.31</course>
  <speed>7.159231802365391</speed>
  <fix>3d</fix>
</trkpt>
<trkpt lat="40.0710921" lon="-105.2306193">
  <ele>1583.0</ele>
  <time>2026-08-28T17:50:23Z</time>
  <course>246.0</course>
  <speed>7.18</speed>
  <fix>3d</fix>
</trkpt>
<trkpt lat="40.0710809" lon="-105.2306526">
  <ele>1582.99</ele>
  <time>2026-08-28T17:50:23Z</time>
  <course>247.31</course>
  <speed>7.159231802365391</speed>
  <fix>3d</fix>
</trkpt>
<trkpt lat="40.0710868" lon="-105.2306347">
  <ele>1583.0</ele>
  <time>2026-08-28T17:50:23Z</time>
  <course>245.99</course>
  <speed>7.18</speed>
  <fix>3d</fix>
</trkpt>
<trkpt lat="40.0710783" lon="-105.2306602">
  <ele>1582.99</ele>
  <time>2026-08-28T17:50:23Z</time>
  <course>247.31</course>
  <speed>7.159231802365391</speed>
  <fix>3d</fix>
</trkpt>
<trkpt lat="40.0710868" lon="-105.2306347">
  <ele>1583.0</ele>
  <time>2026-08-28T17:50:23Z</time>
  <course>245.99</course>
  <speed>7.18</speed>
  <fix>3d</fix>
</trkpt>
<trkpt lat="40.0710757" lon="-105.2306678">
  <ele>1582.99</ele>
  <time>2026-08-28T17:50:23Z</time>
  <course>247.32</course>
  <speed>7.150083915591481</speed>
  <fix>3d</fix>
</trkpt>
<trkpt lat="40.0710816" lon="-105.2306502">
  <ele>1583.0</ele>
  <time>2026-08-28T17:50:23Z</time>
  <course>245.99</course>
  <speed>7.18</speed>
  <fix>3d</fix>
</trkpt>
<trkpt lat="40.0710731" lon="-105.2306755">
  <ele>1583.0</ele>
  <time>2026-08-28T17:50:23Z</time>
  <course>247.32</course>
  <speed>7.150083915591481</speed>
  <fix>3d</fix>
</trkpt>
<trkpt lat="40.0710816" lon="-105.2306502">
  <ele>1583.0</ele>
  <time>2026-08-28T17:50:23Z</time>
  <course>245.99</course>
  <speed>7.18</speed>
  <fix>3d</fix>
</trkpt>
<trkpt lat="40.0710705" lon="-105.2306831">
  <ele>1583.0</ele>
  <time>2026-08-28T17:50:23Z</time>
  <course>247.32</course>
  <speed>7.150083915591481</speed>
  <fix>3d</fix>
</trkpt>
<trkpt lat="40.0710763" lon="-105.2306656">
  <ele>1583.0</ele>
  <time>2026-08-28T17:50:23Z</time>
  <course>246.0</course>
  <speed>7.19</speed>
  <fix>3d</fix>
</trkpt>
<trkpt lat="40.0710679" lon="-105.2306908">
  <ele>1583.0</ele>
  <time>2026-08-28T17:50:23Z</time>
  <course>247.32</course>
  <speed>7.150083915591481</speed>
  <fix>3d</fix>
</trkpt>
<trkpt lat="40.0710711" lon="-105.230681">
  <ele>1583.0</ele>
  <time>2026-08-28T17:50:23Z</time>
  <course>245.99</course>
  <speed>7.19</speed>
  <fix>3d</fix>
</trkpt>
<trkpt lat="40.0710653" lon="-105.2306985">
  <ele>1583.0</ele>
  <time>2026-08-28T17:50:23Z</time>
  <course>247.33</course>
  <speed>7.150083915591481</speed>
  <fix>3d</fix>
</trkpt>
<trkpt lat="40.0710711" lon="-105.230681">
  <ele>1583.0</ele>
  <time>2026-08-28T17:50:23Z</time>
  <course>245.99</course>
  <speed>7.19</speed>
  <fix>3d</fix>
</trkpt>
<trkpt lat="40.0710569" lon="-105.2307231">
  <ele>1583.0</ele>
  <time>2026-08-28T17:50:23Z</time>
  <course>247.33</course>
  <speed>7.150083915591481</speed>
  <fix>3d</fix>
</trkpt>
<trkpt lat="40.0710605" lon="-105.2307118">
  <ele>1583.0</ele>
  <time>2026-08-28T17:50:23Z</time>
  <course>245.99</course>
  <speed>7.19</speed>
  <fix>3d</fix>
</trkpt>
<trkpt lat="40.0710543" lon="-105.2307309">
  <ele>1583.0</ele>
  <time>2026-08-28T17:50:23Z</time>
  <course>247.34</course>
  <speed>7.159231802365391</speed>
  <fix>3d</fix>
</trkpt>
<trkpt lat="40.0710605" lon="-105.2307118">
  <ele>1583.0</ele>
  <time>2026-08-28T17:50:23Z</time>
  <course>245.99</course>
  <speed>7.19</speed>
  <fix>3d</fix>
</trkpt>
<trkpt lat="40.0710516" lon="-105.2307387">
  <ele>1583.0</ele>
  <time>2026-08-28T17:50:23Z</time>
  <course>247.34</course>
  <speed>7.159231802365391</speed>
  <fix>3d</fix>
</trkpt>
<trkpt lat="40.0710553" lon="-105.2307273">
  <ele>1583.0</ele>
  <time>2026-08-28T17:50:23Z</time>
  <course>245.99</course>
  <speed>7.19</speed>
  <fix>3d</fix>
</trkpt>
<trkpt lat="40.0710489" lon="-105.2307465">
  <ele>1583.01</ele>
  <time>2026-08-28T17:50:23Z</time>
  <course>247.34</course>
  <speed>7.159231802365391</speed>
  <fix>3d</fix>
</trkpt>
<trkpt lat="40.0710553" lon="-105.2307273">
  <ele>1583.0</ele>
  <time>2026-08-28T17:50:23Z</time>
  <course>245.99</course>
  <speed>7.19</speed>
  <fix>3d</fix>
</trkpt>
<trkpt lat="40.0710458" lon="-105.2307558">
  <ele>1583.01</ele>
  <time>2026-08-28T17:50:23Z</time>
  <course>247.34</course>
  <speed>7.159231802365391</speed>
  <fix>3d</fix>
</trkpt>
<trkpt lat="40.07105" lon="-105.2307426">
  <ele>1583.0</ele>
  <time>2026-08-28T17:50:23Z</time>
  <course>245.99</course>
  <speed>7.19</speed>
  <fix>3d</fix>
</trkpt>
<trkpt lat="40.0710431" lon="-105.2307636">
  <ele>1583.01</ele>
  <time>2026-08-28T17:50:23Z</time>
  <course>247.34</course>
  <speed>7.172419396549535</speed>
  <fix>3d</fix>
</trkpt>
<trkpt lat="40.07105" lon="-105.2307426">
  <ele>1583.0</ele>
  <time>2026-08-28T17:50:23Z</time>
  <course>245.99</course>
  <speed>7.19</speed>
  <fix>3d</fix>
</trkpt>
<trkpt lat="40.0710405" lon="-105.2307713">
  <ele>1583.01</ele>
  <time>2026-08-28T17:50:23Z</time>
  <course>247.34</course>
  <speed>7.172419396549535</speed>
  <fix>3d</fix>
</trkpt>
<trkpt lat="40.0710448" lon="-105.2307581">
  <ele>1583.0</ele>
  <time>2026-08-28T17:50:23Z</time>
  <course>245.99</course>
  <speed>7.19</speed>
  <fix>3d</fix>
</trkpt>
<trkpt lat="40.0710378" lon="-105.2307791">
  <ele>1583.02</ele>
  <time>2026-08-28T17:50:23Z</time>
  <course>247.35</course>
  <speed>7.172419396549535</speed>
  <fix>3d</fix>
</trkpt>
<trkpt lat="40.0710448" lon="-105.2307581">
  <ele>1583.0</ele>
  <time>2026-08-28T17:50:23Z</time>
  <course>245.99</course>
  <speed>7.19</speed>
  <fix>3d</fix>
</trkpt>
<trkpt lat="40.0710352" lon="-105.2307869">
  <ele>1583.02</ele>
  <time>2026-08-28T17:50:23Z</time>
  <course>247.35</course>
  <speed>7.172419396549535</speed>
  <fix>3d</fix>
</trkpt>
<trkpt lat="40.0710395" lon="-105.2307735">
  <ele>1583.0</ele>
  <time>2026-08-28T17:50:23Z</time>
  <course>245.99</course>
  <speed>7.19</speed>
  <fix>3d</fix>
</trkpt>
<trkpt lat="40.0710325" lon="-105.2307946">
  <ele>1583.03</ele>
  <time>2026-08-28T17:50:23Z</time>
  <course>247.35</course>
  <speed>7.172419396549535</speed>
  <fix>3d</fix>
</trkpt>
<trkpt lat="40.0710395" lon="-105.2307735">
  <ele>1583.0</ele>
  <time>2026-08-28T17:50:23Z</time>
  <course>245.99</course>
  <speed>7.19</speed>
  <fix>3d</fix>
</trkpt>
<trkpt lat="40.0710299" lon="-105.2308023">
  <ele>1583.03</ele>
  <time>2026-08-28T17:50:23Z</time>
  <course>247.35</course>
  <speed>7.172419396549535</speed>
  <fix>3d</fix>
</trkpt>
<trkpt lat="40.0710342" lon="-105.230789">
  <ele>1583.0</ele>
  <time>2026-08-28T17:50:23Z</time>
  <course>245.99</course>
  <speed>7.19</speed>
  <fix>3d</fix>
</trkpt>
<trkpt lat="40.0710273" lon="-105.23081">
  <ele>1583.03</ele>
  <time>2026-08-28T17:50:23Z</time>
  <course>247.35</course>
  <speed>7.203901720595582</speed>
  <fix>3d</fix>
</trkpt>
<trkpt lat="40.0710342" lon="-105.230789">
  <ele>1583.0</ele>
  <time>2026-08-28T17:50:23Z</time>
  <course>245.99</course>
  <speed>7.19</speed>
  <fix>3d</fix>
</trkpt>
<trkpt lat="40.0710246" lon="-105.2308178">
  <ele>1583.03</ele>
  <time>2026-08-28T17:50:23Z</time>
  <course>247.35</course>
  <speed>7.248572273213532</speed>
  <fix>3d</fix>
</trkpt>
<trkpt lat="40.071029" lon="-105.2308045">
  <ele>1583.0</ele>
  <time>2026-08-28T17:50:23Z</time>
  <course>245.99</course>
  <speed>7.22</speed>
  <fix>3d</fix>
</trkpt>
<trkpt lat="40.071022" lon="-105.2308255">
  <ele>1583.03</ele>
  <time>2026-08-28T17:50:23Z</time>
  <course>247.41</course>
  <speed>7.253688716784033</speed>
  <fix>3d</fix>
</trkpt>
<trkpt lat="40.071029" lon="-105.2308045">
  <ele>1583.0</ele>
  <time>2026-08-28T17:50:23Z</time>
  <course>245.99</course>
  <speed>7.22</speed>
  <fix>3d</fix>
</trkpt>
<trkpt lat="40.0710194" lon="-105.2308333">
  <ele>1583.03</ele>
  <time>2026-08-28T17:50:23Z</time>
  <course>247.51</course>
  <speed>7.249668957959391</speed>
  <fix>3d</fix>
</trkpt>
<trkpt lat="40.0710237" lon="-105.23082">
  <ele>1583.0</ele>
  <time>2026-08-28T17:50:23Z</time>
  <course>246.05</course>
  <speed>7.27</speed>
  <fix>3d</fix>
</trkpt>
<trkpt lat="40.0710173" lon="-105.2308395">
  <ele>1583.03</ele>
  <time>2026-08-28T17:50:23Z</time>
  <course>247.59</course>
  <speed>7.223330256882901</speed>
  <fix>3d</fix>
</trkpt>
<trkpt lat="40.0710237" lon="-105.23082">
  <ele>1583.0</ele>
  <time>2026-08-28T17:50:23Z</time>
  <course>246.05</course>
  <speed>7.27</speed>
  <fix>3d</fix>
</trkpt>
<trkpt lat="40.0710147" lon="-105.2308472">
  <ele>1583.02</ele>
  <time>2026-08-28T17:50:23Z</time>
  <course>247.69</course>
  <speed>7.174677693109287</speed>
  <fix>3d</fix>
</trkpt>
<trkpt lat="40.0710184" lon="-105.2308356">
  <ele>1583.0</ele>
  <time>2026-08-28T17:50:23Z</time>
  <course>246.21</course>
  <speed>7.24</speed>
  <fix>3d</fix>
</trkpt>
<trkpt lat="40.0710121" lon="-105.2308549">
  <ele>1583.02</ele>
  <time>2026-08-28T17:50:23Z</time>
  <course>247.79</course>
  <speed>7.103717336718853</speed>
  <fix>3d</fix>
</trkpt>
<trkpt lat="40.0710184" lon="-105.2308356">
  <ele>1583.0</ele>
  <time>2026-08-28T17:50:23Z</time>
  <course>246.21</course>
  <speed>7.24</speed>
  <fix>3d</fix>
</trkpt>
<trkpt lat="40.0710096" lon="-105.2308625">
  <ele>1583.02</ele>
  <time>2026-08-28T17:50:23Z</time>
  <course>247.96</course>
  <speed>7.019643865610277</speed>
  <fix>3d</fix>
</trkpt>
<trkpt lat="40.0710132" lon="-105.2308511">
  <ele>1583.0</ele>
  <time>2026-08-28T17:50:23Z</time>
  <course>246.44</course>
  <speed>7.14</speed>
  <fix>3d</fix>
</trkpt>
<trkpt lat="40.0710071" lon="-105.2308701">
  <ele>1583.01</ele>
  <time>2026-08-28T17:50:23Z</time>
  <course>248.15</course>
  <speed>6.913298778441447</speed>
  <fix>3d</fix>
</trkpt>
<trkpt lat="40.0710132" lon="-105.2308511">
  <ele>1583.0</ele>
  <time>2026-08-28T17:50:23Z</time>
  <course>246.44</course>
  <speed>7.14</speed>
  <fix>3d</fix>
</trkpt>
<trkpt lat="40.0710047" lon="-105.2308775">
  <ele>1583.01</ele>
  <time>2026-08-28T17:50:23Z</time>
  <course>248.34</course>
  <speed>6.807011091514394</speed>
  <fix>3d</fix>
</trkpt>
<trkpt lat="40.0710082" lon="-105.2308663">
  <ele>1583.0</ele>
  <time>2026-08-28T17:50:23Z</time>
  <course>246.75</course>
  <speed>6.96</speed>
  <fix>3d</fix>
</trkpt>
<trkpt lat="40.0710023" lon="-105.2308848">
  <ele>1583.01</ele>
  <time>2026-08-28T17:50:23Z</time>
  <course>248.52</course>
  <speed>6.678472879334017</speed>
  <fix>3d</fix>
</trkpt>
<trkpt lat="40.0710082" lon="-105.2308663">
  <ele>1583.0</ele>
  <time>2026-08-28T17:50:23Z</time>
  <course>246.75</course>
  <speed>6.96</speed>
  <fix>3d</fix>
</trkpt>
<trkpt lat="40.071" lon="-105.2308921">
  <ele>1583.01</ele>
  <time>2026-08-28T17:50:23Z</time>
  <course>248.71</course>
  <speed>6.550007633583338</speed>
  <fix>3d</fix>
</trkpt>
<trkpt lat="40.0710034" lon="-105.2308811">
  <ele>1583.0</ele>
  <time>2026-08-28T17:50:23Z</time>
  <course>247.12</course>
  <speed>6.73</speed>
  <fix>3d</fix>
</trkpt>
<trkpt lat="40.0709977" lon="-105.2308992">
  <ele>1583.01</ele>
  <time>2026-08-28T17:50:23Z</time>
  <course>248.97</course>
  <speed>6.408572383924519</speed>
  <fix>3d</fix>
</trkpt>
<trkpt lat="40.0710034" lon="-105.2308811">
  <ele>1583.0</ele>
  <time>2026-08-28T17:50:23Z</time>
  <course>247.12</course>
  <speed>6.73</speed>
  <fix>3d</fix>
</trkpt>
<trkpt lat="40.0709955" lon="-105.2309061">
  <ele>1583.01</ele>
  <time>2026-08-28T17:50:23Z</time>
  <course>249.23</course>
  <speed>6.271020650579935</speed>
  <fix>3d</fix>
</trkpt>
<trkpt lat="40.0709988" lon="-105.2308954">
  <ele>1583.0</ele>
  <time>2026-08-28T17:50:23Z</time>
  <course>247.55</course>
  <speed>6.47</speed>
  <fix>3d</fix>
</trkpt>
<trkpt lat="40.070993" lon="-105.2309142">
  <ele>1583.01</ele>
  <time>2026-08-28T17:50:23Z</time>
  <course>249.54</course>
  <speed>6.08523623206199</speed>
  <fix>3d</fix>
</trkpt>
<trkpt lat="40.0709988" lon="-105.2308954">
  <ele>1583.0</ele>
  <time>2026-08-28T17:50:23Z</time>
  <course>247.55</course>
  <speed>6.47</speed>
  <fix>3d</fix>
</trkpt>
<trkpt lat="40.070991" lon="-105.2309208">
  <ele>1583.01</ele>
  <time>2026-08-28T17:50:23Z</time>
  <course>249.79</course>
  <speed>5.934879948238212</speed>
  <fix>3d</fix>
</trkpt>
<trkpt lat="40.0709945" lon="-105.2309092">
  <ele>1583.0</ele>
  <time>2026-08-28T17:50:23Z</time>
  <course>248.06</course>
  <speed>6.18</speed>
  <fix>3d</fix>
</trkpt>
<trkpt lat="40.0709891" lon="-105.2309272">
  <ele>1583.01</ele>
  <time>2026-08-28T17:50:23Z</time>
  <course>250.07</course>
  <speed>5.784643463516139</speed>
  <fix>3d</fix>
</trkpt>
<trkpt lat="40.0709945" lon="-105.2309092">
  <ele>1583.0</ele>
  <time>2026-08-28T17:50:23Z</time>
  <course>248.06</course>
  <speed>6.18</speed>
  <fix>3d</fix>
</trkpt>
<trkpt lat="40.0709872" lon="-105.2309335">
  <ele>1583.01</ele>
  <time>2026-08-28T17:50:23Z</time>
  <course>250.39</course>
  <speed>5.634536360695527</speed>
  <fix>3d</fix>
</trkpt>
<trkpt lat="40.0709905" lon="-105.2309223">
  <ele>1583.0</ele>
  <time>2026-08-28T17:50:23Z</time>
  <course>248.6</course>
  <speed>5.88</speed>
  <fix>3d</fix>
</trkpt>
<trkpt lat="40.0709854" lon="-105.2309396">
  <ele>1583.0</ele>
  <time>2026-08-28T17:50:23Z</time>
  <course>250.69</course>
  <speed>5.475216890681136</speed>
  <fix>3d</fix>
</trkpt>
<trkpt lat="40.0709905" lon="-105.2309223">
  <ele>1583.0</ele>
  <time>2026-08-28T17:50:23Z</time>
  <course>248.6</course>
  <speed>5.88</speed>
  <fix>3d</fix>
</trkpt>
<trkpt lat="40.0709837" lon="-105.2309455">
  <ele>1583.0</ele>
  <time>2026-08-28T17:50:23Z</time>
  <course>250.99</course>
  <speed>5.325382615362018</speed>
  <fix>3d</fix>
</trkpt>
<trkpt lat="40.0709868" lon="-105.2309349">
  <ele>1583.0</ele>
  <time>2026-08-28T17:50:23Z</time>
  <course>249.19</course>
  <speed>5.58</speed>
  <fix>3d</fix>
</trkpt>
<trkpt lat="40.0709821" lon="-105.2309513">
  <ele>1583.0</ele>
  <time>2026-08-28T17:50:23Z</time>
  <course>251.3</course>
  <speed>5.175712511335999</speed>
  <fix>3d</fix>
</trkpt>
<trkpt lat="40.0709868" lon="-105.2309349">
  <ele>1583.0</ele>
  <time>2026-08-28T17:50:23Z</time>
  <course>249.19</course>
  <speed>5.58</speed>
  <fix>3d</fix>
</trkpt>
<trkpt lat="40.0709806" lon="-105.2309569">
  <ele>1583.0</ele>
  <time>2026-08-28T17:50:23Z</time>
  <course>251.65</course>
  <speed>5.039017761429305</speed>
  <fix>3d</fix>
</trkpt>
<trkpt lat="40.0709834" lon="-105.2309469">
  <ele>1583.0</ele>
  <time>2026-08-28T17:50:23Z</time>
  <course>249.81</course>
  <speed>5.29</speed>
  <fix>3d</fix>
</trkpt>
<trkpt lat="40.0709791" lon="-105.2309623">
  <ele>1583.0</ele>
  <time>2026-08-28T17:50:23Z</time>
  <course>251.99</course>
  <speed>4.899112164464088</speed>
  <fix>3d</fix>
</trkpt>
<trkpt lat="40.0709834" lon="-105.2309469">
  <ele>1583.0</ele>
  <time>2026-08-28T17:50:23Z</time>
  <course>249.81</course>
  <speed>5.29</speed>
  <fix>3d</fix>
</trkpt>
<trkpt lat="40.0709777" lon="-105.2309676">
  <ele>1582.99</ele>
  <time>2026-08-28T17:50:23Z</time>
  <course>252.32</course>
  <speed>4.7627303093918725</speed>
  <fix>3d</fix>
</trkpt>
<trkpt lat="40.0709802" lon="-105.2309583">
  <ele>1583.0</ele>
  <time>2026-08-28T17:50:23Z</time>
  <course>250.48</course>
  <speed>5.01</speed>
  <fix>3d</fix>
</trkpt>
<trkpt lat="40.0709763" lon="-105.2309728">
  <ele>1582.99</ele>
  <time>2026-08-28T17:50:23Z</time>
  <course>252.69</course>
  <speed>4.6264997568356145</speed>
  <fix>3d</fix>
</trkpt>
<trkpt lat="40.0709802" lon="-105.2309583">
  <ele>1583.0</ele>
  <time>2026-08-28T17:50:23Z</time>
  <course>250.48</course>
  <speed>5.01</speed>
  <fix>3d</fix>
</trkpt>
<trkpt lat="40.0709753" lon="-105.2309769">
  <ele>1582.99</ele>
  <time>2026-08-28T17:50:23Z</time>
  <course>253.0</course>
  <speed>4.522057054040783</speed>
  <fix>3d</fix>
</trkpt>
<trkpt lat="40.0709773" lon="-105.2309691">
  <ele>1583.0</ele>
  <time>2026-08-28T17:50:23Z</time>
  <course>251.18</course>
  <speed>4.75</speed>
  <fix>3d</fix>
</trkpt>
<trkpt lat="40.070974" lon="-105.2309818">
  <ele>1582.98</ele>
  <time>2026-08-28T17:50:23Z</time>
  <course>253.36</course>
  <speed>4.39878392285868</speed>
  <fix>3d</fix>
</trkpt>
<trkpt lat="40.0709773" lon="-105.2309691">
  <ele>1583.0</ele>
  <time>2026-08-28T17:50:23Z</time>
  <course>251.18</course>
  <speed>4.75</speed>
  <fix>3d</fix>
</trkpt>
<trkpt lat="40.0709728" lon="-105.2309867">
  <ele>1582.98</ele>
  <time>2026-08-28T17:50:23Z</time>
  <course>253.74</course>
  <speed>4.2821022874284544</speed>
  <fix>3d</fix>
</trkpt>
<trkpt lat="40.0709747" lon="-105.2309794">
  <ele>1583.0</ele>
  <time>2026-08-28T17:50:23Z</time>
  <course>251.92</course>
  <speed>4.5</speed>
  <fix>3d</fix>
</trkpt>
<trkpt lat="40.0709717" lon="-105.2309914">
  <ele>1582.98</ele>
  <time>2026-08-28T17:50:23Z</time>
  <course>254.14</course>
  <speed>4.168692840687594</speed>
  <fix>3d</fix>
</trkpt>
<trkpt lat="40.0709747" lon="-105.2309794">
  <ele>1583.0</ele>
  <time>2026-08-28T17:50:23Z</time>
  <course>251.92</course>
  <speed>4.5</speed>
  <fix>3d</fix>
</trkpt>
<trkpt lat="40.0709706" lon="-105.2309961">
  <ele>1582.97</ele>
  <time>2026-08-28T17:50:23Z</time>
  <course>254.54</course>
  <speed>4.065033825197522</speed>
  <fix>3d</fix>
</trkpt>
<trkpt lat="40.0709723" lon="-105.2309892">
  <ele>1583.0</ele>
  <time>2026-08-28T17:50:23Z</time>
  <course>252.7</course>
  <speed>4.27</speed>
  <fix>3d</fix>
</trkpt>
<trkpt lat="40.0709696" lon="-105.2310006">
  <ele>1582.97</ele>
  <time>2026-08-28T17:50:23Z</time>
  <course>254.94</course>
  <speed>3.9520247974930522</speed>
  <fix>3d</fix>
</trkpt>
<trkpt lat="40.0709723" lon="-105.2309892">
  <ele>1583.0</ele>
  <time>2026-08-28T17:50:23Z</time>
  <course>252.7</course>
  <speed>4.27</speed>
  <fix>3d</fix>
</trkpt>
<trkpt lat="40.0709686" lon="-105.2310051">
  <ele>1582.97</ele>
  <time>2026-08-28T17:50:23Z</time>
  <course>255.37</course>
  <speed>3.8488439822887077</speed>
  <fix>3d</fix>
</trkpt>
<trkpt lat="40.0709701" lon="-105.2309985">
  <ele>1583.0</ele>
  <time>2026-08-28T17:50:23Z</time>
  <course>253.52</course>
  <speed>4.05</speed>
  <fix>3d</fix>
</trkpt>
<trkpt lat="40.0709677" lon="-105.2310095">
  <ele>1582.97</ele>
  <time>2026-08-28T17:50:23Z</time>
  <course>255.78</course>
  <speed>3.7459444736941845</speed>
  <fix>3d</fix>
</trkpt>
<trkpt lat="40.0709701" lon="-105.2309985">
  <ele>1583.0</ele>
  <time>2026-08-28T17:50:23Z</time>
  <course>253.52</course>
  <speed>4.05</speed>
  <fix>3d</fix>
</trkpt>
<trkpt lat="40.0709668" lon="-105.2310137">
  <ele>1582.97</ele>
  <time>2026-08-28T17:50:23Z</time>
  <course>256.24</course>
  <speed>3.6459429507330476</speed>
  <fix>3d</fix>
</trkpt>
<trkpt lat="40.0709681" lon="-105.2310074">
  <ele>1583.0</ele>
  <time>2026-08-28T17:50:23Z</time>
  <course>254.37</course>
  <speed>3.84</speed>
  <fix>3d</fix>
</trkpt>
<trkpt lat="40.070966" lon="-105.2310179">
  <ele>1582.97</ele>
  <time>2026-08-28T17:50:23Z</time>
  <course>256.69</course>
  <speed>3.553266103178877</speed>
  <fix>3d</fix>
</trkpt>
<trkpt lat="40.0709681" lon="-105.2310074">
  <ele>1583.0</ele>
  <time>2026-08-28T17:50:23Z</time>
  <course>254.37</course>
  <speed>3.84</speed>
  <fix>3d</fix>
</trkpt>
<trkpt lat="40.070965" lon="-105.2310227">
  <ele>1582.96</ele>
  <time>2026-08-28T17:50:23Z</time>
  <course>257.26</course>
  <speed>3.4318799512803473</speed>
  <fix>3d</fix>
</trkpt>
<trkpt lat="40.0709664" lon="-105.2310159">
  <ele>1583.0</ele>
  <time>2026-08-28T17:50:23Z</time>
  <course>255.28</course>
  <speed>3.65</speed>
  <fix>3d</fix>
</trkpt>
<trkpt lat="40.0709643" lon="-105.2310266">
  <ele>1582.96</ele>
  <time>2026-08-28T17:50:23Z</time>
  <course>257.75</course>
  <speed>3.3422896343674346</speed>
  <fix>3d</fix>
</trkpt>
<trkpt lat="40.0709664" lon="-105.2310159">
  <ele>1583.0</ele>
  <time>2026-08-28T17:50:23Z</time>
  <course>255.28</course>
  <speed>3.65</speed>
  <fix>3d</fix>
</trkpt>
<trkpt lat="40.0709636" lon="-105.2310304">
  <ele>1582.96</ele>
  <time>2026-08-28T17:50:23Z</time>
  <course>258.25</course>
  <speed>3.2432237048961023</speed>
  <fix>3d</fix>
</trkpt>
<trkpt lat="40.0709648" lon="-105.231024">
  <ele>1583.0</ele>
  <time>2026-08-28T17:50:23Z</time>
  <course>256.23</course>
  <speed>3.45</speed>
  <fix>3d</fix>
</trkpt>
<trkpt lat="40.070963" lon="-105.2310341">
  <ele>1582.97</ele>
  <time>2026-08-28T17:50:23Z</time>
  <course>258.78</course>
  <speed>3.152031091217217</speed>
  <fix>3d</fix>
</trkpt>
<trkpt lat="40.0709648" lon="-105.231024">
  <ele>1583.0</ele>
  <time>2026-08-28T17:50:23Z</time>
  <course>256.23</course>
  <speed>3.45</speed>
  <fix>3d</fix>
</trkpt>
<trkpt lat="40.0709624" lon="-105.2310378">
  <ele>1582.97</ele>
  <time>2026-08-28T17:50:23Z</time>
  <course>259.33</course>
  <speed>3.0633968074671616</speed>
  <fix>3d</fix>
</trkpt>
<trkpt lat="40.0709634" lon="-105.2310317">
  <ele>1583.0</ele>
  <time>2026-08-28T17:50:23Z</time>
  <course>257.26</course>
  <speed>3.26</speed>
  <fix>3d</fix>
</trkpt>
<trkpt lat="40.0709619" lon="-105.2310412">
  <ele>1582.97</ele>
  <time>2026-08-28T17:50:23Z</time>
  <course>259.9</course>
  <speed>2.965299310356376</speed>
  <fix>3d</fix>
</trkpt>
<trkpt lat="40.0709634" lon="-105.2310317">
  <ele>1583.0</ele>
  <time>2026-08-28T17:50:23Z</time>
  <course>257.26</course>
  <speed>3.26</speed>
  <fix>3d</fix>
</trkpt>
<trkpt lat="40.0709614" lon="-105.2310446">
  <ele>1582.97</ele>
  <time>2026-08-28T17:50:23Z</time>
  <course>260.5</course>
  <speed>2.8773772780085687</speed>
  <fix>3d</fix>
</trkpt>
<trkpt lat="40.0709622" lon="-105.231039">
  <ele>1583.0</ele>
  <time>2026-08-28T17:50:23Z</time>
  <course>258.36</course>
  <speed>3.08</speed>
  <fix>3d</fix>
</trkpt>
<trkpt lat="40.0709609" lon="-105.2310479">
  <ele>1582.98</ele>
  <time>2026-08-28T17:50:23Z</time>
  <course>261.13</course>
  <speed>2.780017985553331</speed>
  <fix>3d</fix>
</trkpt>
<trkpt lat="40.0709622" lon="-105.231039">
  <ele>1583.0</ele>
  <time>2026-08-28T17:50:23Z</time>
  <course>258.36</course>
  <speed>3.08</speed>
  <fix>3d</fix>
</trkpt>
<trkpt lat="40.0709605" lon="-105.2310511">
  <ele>1582.98</ele>
  <time>2026-08-28T17:50:23Z</time>
  <course>261.79</course>
  <speed>2.684660127464927</speed>
  <fix>3d</fix>
</trkpt>
<trkpt lat="40.0709612" lon="-105.2310459">
  <ele>1583.0</ele>
  <time>2026-08-28T17:50:23Z</time>
  <course>259.57</course>
  <speed>2.89</speed>
  <fix>3d</fix>
</trkpt>
<trkpt lat="40.0709602" lon="-105.2310542">
  <ele>1582.98</ele>
  <time>2026-08-28T17:50:23Z</time>
  <course>262.49</course>
  <speed>2.5979414927977107</speed>
  <fix>3d</fix>
</trkpt>
<trkpt lat="40.0709612" lon="-105.2310459">
  <ele>1583.0</ele>
  <time>2026-08-28T17:50:23Z</time>
  <course>259.57</course>
  <speed>2.89</speed>
  <fix>3d</fix>
</trkpt>
<trkpt lat="40.0709598" lon="-105.2310572">
  <ele>1582.98</ele>
  <time>2026-08-28T17:50:23Z</time>
  <course>263.23</course>
  <speed>2.50185930859431</speed>
  <fix>3d</fix>
</trkpt>
<trkpt lat="40.0709604" lon="-105.2310524">
  <ele>1583.0</ele>
  <time>2026-08-28T17:50:23Z</time>
  <course>260.91</course>
  <speed>2.71</speed>
  <fix>3d</fix>
</trkpt>
<trkpt lat="40.0709596" lon="-105.2310595">
  <ele>1582.98</ele>
  <time>2026-08-28T17:50:23Z</time>
  <course>263.86</course>
  <speed>2.427385424690525</speed>
  <fix>3d</fix>
</trkpt>
<trkpt lat="40.0709604" lon="-105.2310524">
  <ele>1583.0</ele>
  <time>2026-08-28T17:50:23Z</time>
  <course>260.91</course>
  <speed>2.71</speed>
  <fix>3d</fix>
</trkpt>
<trkpt lat="40.0709594" lon="-105.2310623">
  <ele>1582.99</ele>
  <time>2026-08-28T17:50:23Z</time>
  <course>264.69</course>
  <speed>2.33238075793812</speed>
  <fix>3d</fix>
</trkpt>
<trkpt lat="40.0709597" lon="-105.2310585">
  <ele>1583.0</ele>
  <time>2026-08-28T17:50:23Z</time>
  <course>262.4</course>
  <speed>2.52</speed>
  <fix>3d</fix>
</trkpt>
<trkpt lat="40.0709592" lon="-105.2310651">
  <ele>1582.99</ele>
  <time>2026-08-28T17:50:23Z</time>
  <course>265.58</course>
  <speed>2.2380795338861397</speed>
  <fix>3d</fix>
</trkpt>
<trkpt lat="40.0709597" lon="-105.2310585">
  <ele>1583.0</ele>
  <time>2026-08-28T17:50:23Z</time>
  <course>262.4</course>
  <speed>2.52</speed>
  <fix>3d</fix>
</trkpt>
<trkpt lat="40.070959" lon="-105.2310676">
  <ele>1582.99</ele>
  <time>2026-08-28T17:50:23Z</time>
  <course>266.52</course>
  <speed>2.145250568115529</speed>
  <fix>3d</fix>
</trkpt>
<trkpt lat="40.0709592" lon="-105.2310641">
  <ele>1583.0</ele>
  <time>2026-08-28T17:50:23Z</time>
  <course>264.09</course>
  <speed>2.33</speed>
  <fix>3d</fix>
</trkpt>
<trkpt lat="40.0709589" lon="-105.2310702">
  <ele>1582.99</ele>
  <time>2026-08-28T17:50:23Z</time>
  <course>267.55</course>
  <speed>2.0524375751773793</speed>
  <fix>3d</fix>
</trkpt>
<trkpt lat="40.0709592" lon="-105.2310641">
  <ele>1583.0</ele>
  <time>2026-08-28T17:50:23Z</time>
  <course>264.09</course>
  <speed>2.33</speed>
  <fix>3d</fix>
</trkpt>
<trkpt lat="40.0709588" lon="-105.2310726">
  <ele>1582.99</ele>
  <time>2026-08-28T17:50:23Z</time>
  <course>268.67</course>
  <speed>1.9506409203131159</speed>
  <fix>3d</fix>
</trkpt>
<trkpt lat="40.0709588" lon="-105.2310694">
  <ele>1583.0</ele>
  <time>2026-08-28T17:50:23Z</time>
  <course>266.05</course>
  <speed>2.14</speed>
  <fix>3d</fix>
</trkpt>
<trkpt lat="40.0709588" lon="-105.2310749">
  <ele>1582.99</ele>
  <time>2026-08-28T17:50:23Z</time>
  <course>269.89</course>
  <speed>1.8600268815261785</speed>
  <fix>3d</fix>
</trkpt>
<trkpt lat="40.0709588" lon="-105.2310694">
  <ele>1583.0</ele>
  <time>2026-08-28T17:50:23Z</time>
  <course>266.05</course>
  <speed>2.14</speed>
  <fix>3d</fix>
</trkpt>
<trkpt lat="40.0709588" lon="-105.2310771">
  <ele>1582.99</ele>
  <time>2026-08-28T17:50:23Z</time>
  <course>271.25</course>
  <speed>1.7602556632489499</speed>
  <fix>3d</fix>
</trkpt>
<trkpt lat="40.0709586" lon="-105.2310742">
  <ele>1583.0</ele>
  <time>2026-08-28T17:50:23Z</time>
  <course>268.35</course>
  <speed>1.95</speed>
  <fix>3d</fix>
</trkpt>
<trkpt lat="40.0709588" lon="-105.2310792">
  <ele>1583.0</ele>
  <time>2026-08-28T17:50:23Z</time>
  <course>272.75</course>
  <speed>1.6714664220378463</speed>
  <fix>3d</fix>
</trkpt>
<trkpt lat="40.0709586" lon="-105.2310742">
  <ele>1583.0</ele>
  <time>2026-08-28T17:50:23Z</time>
  <course>268.35</course>
  <speed>1.95</speed>
  <fix>3d</fix>
</trkpt>
<trkpt lat="40.0709589" lon="-105.2310811">
  <ele>1583.0</ele>
  <time>2026-08-28T17:50:23Z</time>
  <course>274.42</course>
  <speed>1.5745793088949187</speed>
  <fix>3d</fix>
</trkpt>
<trkpt lat="40.0709586" lon="-105.2310785">
  <ele>1583.0</ele>
  <time>2026-08-28T17:50:23Z</time>
  <course>271.14</course>
  <speed>1.75</speed>
  <fix>3d</fix>
</trkpt>
<trkpt lat="40.070959" lon="-105.2310833">
  <ele>1582.99</ele>
  <time>2026-08-28T17:50:23Z</time>
  <course>276.7</course>
  <speed>1.459931505242626</speed>
  <fix>3d</fix>
</trkpt>
<trkpt lat="40.0709586" lon="-105.2310785">
  <ele>1583.0</ele>
  <time>2026-08-28T17:50:23Z</time>
  <course>271.14</course>
  <speed>1.75</speed>
  <fix>3d</fix>
</trkpt>
<trkpt lat="40.0709591" lon="-105.231085">
  <ele>1582.99</ele>
  <time>2026-08-28T17:50:23Z</time>
  <course>278.9</course>
  <speed>1.3579396157414365</speed>
  <fix>3d</fix>
</trkpt>
<trkpt lat="40.0709588" lon="-105.2310824">
  <ele>1583.0</ele>
  <time>2026-08-28T17:50:23Z</time>
  <course>274.61</course>
  <speed>1.55</speed>
  <fix>3d</fix>
</trkpt>
<trkpt lat="40.0709593" lon="-105.2310866">
  <ele>1583.0</ele>
  <time>2026-08-28T17:50:23Z</time>
  <course>281.43</course>
  <speed>1.257179382586272</speed>
  <fix>3d</fix>
</trkpt>
<trkpt lat="40.0709588" lon="-105.2310824">
  <ele>1583.0</ele>
  <time>2026-08-28T17:50:23Z</time>
  <course>274.61</course>
  <speed>1.55</speed>
  <fix>3d</fix>
</trkpt>
<trkpt lat="40.0709595" lon="-105.231088">
  <ele>1583.0</ele>
  <time>2026-08-28T17:50:23Z</time>
  <course>284.38</course>
  <speed>1.1594826432508596</speed>
  <fix>3d</fix>
</trkpt>
<trkpt lat="40.070959" lon="-105.2310858">
  <ele>1583.0</ele>
  <time>2026-08-28T17:50:23Z</time>
  <course>279.08</course>
  <speed>1.35</speed>
  <fix>3d</fix>
</trkpt>
<trkpt lat="40.0709598" lon="-105.2310893">
  <ele>1583.0</ele>
  <time>2026-08-28T17:50:23Z</time>
  <course>287.84</course>
  <speed>1.0562196741208714</speed>
  <fix>3d</fix>
</trkpt>
<trkpt lat="40.070959" lon="-105.2310858">
  <ele>1583.0</ele>
  <time>2026-08-28T17:50:23Z</time>
  <course>279.08</course>
  <speed>1.35</speed>
  <fix>3d</fix>
</trkpt>
<trkpt lat="40.0709601" lon="-105.2310904">
  <ele>1583.01</ele>
  <time>2026-08-28T17:50:23Z</time>
  <course>291.93</course>
  <speed>0.9585405573057407</speed>
  <fix>3d</fix>
</trkpt>
<trkpt lat="40.0709594" lon="-105.2310886">
  <ele>1583.0</ele>
  <time>2026-08-28T17:50:23Z</time>
  <course>285.09</course>
  <speed>1.14</speed>
  <fix>3d</fix>
</trkpt>
<trkpt lat="40.0709605" lon="-105.2310914">
  <ele>1583.01</ele>
  <time>2026-08-28T17:50:23Z</time>
  <course>296.2</course>
  <speed>0.8588364221433555</speed>
  <fix>3d</fix>
</trkpt>
<trkpt lat="40.0709594" lon="-105.2310886">
  <ele>1583.0</ele>
  <time>2026-08-28T17:50:23Z</time>
  <course>285.09</course>
  <speed>1.14</speed>
  <fix>3d</fix>
</trkpt>
<trkpt lat="40.0709608" lon="-105.2310923">
  <ele>1583.01</ele>
  <time>2026-08-28T17:50:23Z</time>
  <course>300.31</course>
  <speed>0.7600657866263946</speed>
  <fix>3d</fix>
</trkpt>
<trkpt lat="40.07096" lon="-105.231091">
  <ele>1583.0</ele>
  <time>2026-08-28T17:50:23Z</time>
  <course>292.73</course>
  <speed>0.94</speed>
  <fix>3d</fix>
</trkpt>
<trkpt lat="40.0709612" lon="-105.231093">
  <ele>1583.01</ele>
  <time>2026-08-28T17:50:23Z</time>
  <course>304.19</course>
  <speed>0.6640030120413611</speed>
  <fix>3d</fix>
</trkpt>
<trkpt lat="40.07096" lon="-105.231091">
  <ele>1583.0</ele>
  <time>2026-08-28T17:50:23Z</time>
  <course>292.73</course>
  <speed>0.94</speed>
  <fix>3d</fix>
</trkpt>
<trkpt lat="40.0709615" lon="-105.2310936">
  <ele>1583.01</ele>
  <time>2026-08-28T17:50:23Z</time>
  <course>307.76</course>
  <speed>0.5597320787662612</speed>
  <fix>3d</fix>
</trkpt>
<trkpt lat="40.0709607" lon="-105.2310928">
  <ele>1583.0</ele>
  <time>2026-08-28T17:50:23Z</time>
  <course>300.72</course>
  <speed>0.73</speed>
  <fix>3d</fix>
</trkpt>
<trkpt lat="40.0709618" lon="-105.231094">
  <ele>1583.01</ele>
  <time>2026-08-28T17:50:23Z</time>
  <course>310.97</course>
  <speed>0.4738143096192854</speed>
  <fix>3d</fix>
</trkpt>
<trkpt lat="40.0709607" lon="-105.2310928">
  <ele>1583.0</ele>
  <time>2026-08-28T17:50:23Z</time>
  <course>300.72</course>
  <speed>0.73</speed>
  <fix>3d</fix>
</trkpt>
<trkpt lat="40.070962" lon="-105.2310943">
  <ele>1583.01</ele>
  <time>2026-08-28T17:50:23Z</time>
  <course>313.32</course>
  <speed>0.41773197148410846</speed>
  <fix>3d</fix>
</trkpt>
<trkpt lat="40.0709614" lon="-105.231094">
  <ele>1583.0</ele>
  <time>2026-08-28T17:50:23Z</time>
  <course>307.75</course>
  <speed>0.54</speed>
  <fix>3d</fix>
</trkpt>
<trkpt lat="40.0709622" lon="-105.2310947">
  <ele>1583.01</ele>
  <time>2026-08-28T17:50:23Z</time>
  <course>315.91</course>
  <speed>0.35608987629529715</speed>
  <fix>3d</fix>
</trkpt>
<trkpt lat="40.0709614" lon="-105.231094">
  <ele>1583.0</ele>
  <time>2026-08-28T17:50:23Z</time>
  <course>307.75</course>
  <speed>0.54</speed>
  <fix>3d</fix>
</trkpt>
<trkpt lat="40.0709624" lon="-105.2310949">
  <ele>1583.0</ele>
  <time>2026-08-28T17:50:23Z</time>
  <course>318.17</course>
  <speed>0.31622776601683794</speed>
  <fix>3d</fix>
</trkpt>
<trkpt lat="40.0709619" lon="-105.2310948">
  <ele>1583.0</ele>
  <time>2026-08-28T17:50:23Z</time>
  <course>313.58</course>
  <speed>0.39</speed>
  <fix>3d</fix>
</trkpt>
<trkpt lat="40.0709626" lon="-105.2310952">
  <ele>1583.0</ele>
  <time>2026-08-28T17:50:23Z</time>
  <course>320.17</course>
  <speed>0.2968164415931166</speed>
  <fix>3d</fix>
</trkpt>
<trkpt lat="40.0709619" lon="-105.2310948">
  <ele>1583.0</ele>
  <time>2026-08-28T17:50:23Z</time>
  <course>313.58</course>
  <speed>0.39</speed>
  <fix>3d</fix>
</trkpt>
<trkpt lat="40.0709628" lon="-105.2310954">
  <ele>1583.0</ele>
  <time>2026-08-28T17:50:23Z</time>
  <course>322.05</course>
  <speed>0.2778488797889961</speed>
  <fix>3d</fix>
</trkpt>
<trkpt lat="40.0709624" lon="-105.2310954">
  <ele>1583.0</ele>
  <time>2026-08-28T17:50:23Z</time>
  <course>318.23</course>
  <speed>0.31</speed>
  <fix>3d</fix>
</trkpt>
<trkpt lat="40.070963" lon="-105.2310956">
  <ele>1583.0</ele>
  <time>2026-08-28T17:50:23Z</time>
  <course>323.85</course>
  <speed>0.2778488797889961</speed>
  <fix>3d</fix>
</trkpt>
<trkpt lat="40.0709624" lon="-105.2310954">
  <ele>1583.0</ele>
  <time>2026-08-28T17:50:23Z</time>
  <course>318.23</course>
  <speed>0.31</speed>
  <fix>3d</fix>
</trkpt>
<trkpt lat="40.0709632" lon="-105.2310958">
  <ele>1583.0</ele>
  <time>2026-08-28T17:50:23Z</time>
  <course>325.65</course>
  <speed>0.295296461204668</speed>
  <fix>3d</fix>
</trkpt>
<trkpt lat="40.0709628" lon="-105.2310959">
  <ele>1583.0</ele>
  <time>2026-08-28T17:50:23Z</time>
  <course>322.15</course>
  <speed>0.28</speed>
  <fix>3d</fix>
</trkpt>
<trkpt lat="40.0709635" lon="-105.231096">
  <ele>1582.99</ele>
  <time>2026-08-28T17:50:23Z</time>
  <course>327.54</course>
  <speed>0.31304951684997057</speed>
  <fix>3d</fix>
</trkpt>
<trkpt lat="40.0709628" lon="-105.2310959">
  <ele>1583.0</ele>
  <time>2026-08-28T17:50:23Z</time>
  <course>322.15</course>
  <speed>0.28</speed>
  <fix>3d</fix>
</trkpt>
<trkpt lat="40.0709637" lon="-105.2310962">
  <ele>1582.99</ele>
  <time>2026-08-28T17:50:23Z</time>
  <course>329.55</course>
  <speed>0.34438350715445126</speed>
  <fix>3d</fix>
</trkpt>
<trkpt lat="40.0709631" lon="-105.2310962">
  <ele>1583.0</ele>
  <time>2026-08-28T17:50:23Z</time>
  <course>326.0</course>
  <speed>0.3</speed>
  <fix>3d</fix>
</trkpt>
<trkpt lat="40.070964" lon="-105.2310964">
  <ele>1582.99</ele>
  <time>2026-08-28T17:50:23Z</time>
  <course>331.75</course>
  <speed>0.38483762809787714</speed>
  <fix>3d</fix>
</trkpt>
<trkpt lat="40.0709631" lon="-105.2310962">
  <ele>1583.0</ele>
  <time>2026-08-28T17:50:23Z</time>
  <course>326.0</course>
  <speed>0.3</speed>
  <fix>3d</fix>
</trkpt>
<trkpt lat="40.0709644" lon="-105.2310967">
  <ele>1582.99</ele>
  <time>2026-08-28T17:50:23Z</time>
  <course>334.71</course>
  <speed>0.4308131845707603</speed>
  <fix>3d</fix>
</trkpt>
<trkpt lat="40.0709636" lon="-105.2310967">
  <ele>1583.0</ele>
  <time>2026-08-28T17:50:23Z</time>
  <course>330.29</course>
  <speed>0.35</speed>
  <fix>3d</fix>
</trkpt>
<trkpt lat="40.0709647" lon="-105.231097">
  <ele>1582.99</ele>
  <time>2026-08-28T17:50:23Z</time>
  <course>337.49</course>
  <speed>0.49040799340956914</speed>
  <fix>3d</fix>
</trkpt>
<trkpt lat="40.0709636" lon="-105.2310967">
  <ele>1583.0</ele>
  <time>2026-08-28T17:50:23Z</time>
  <course>330.29</course>
  <speed>0.35</speed>
  <fix>3d</fix>
</trkpt>
<trkpt lat="40.0709651" lon="-105.2310972">
  <ele>1582.98</ele>
  <time>2026-08-28T17:50:23Z</time>
  <course>340.59</course>
  <speed>0.5440588203494178</speed>
  <fix>3d</fix>
</trkpt>
<trkpt lat="40.0709643" lon="-105.2310971">
  <ele>1583.0</ele>
  <time>2026-08-28T17:50:23Z</time>
  <course>335.46</course>
  <speed>0.44</speed>
  <fix>3d</fix>
</trkpt>
<trkpt lat="40.0709656" lon="-105.2310974">
  <ele>1582.98</ele>
  <time>2026-08-28T17:50:23Z</time>
  <course>344.04</course>
  <speed>0.5990826320300063</speed>
  <fix>3d</fix>
</trkpt>
<trkpt lat="40.0709643" lon="-105.2310971">
  <ele>1583.0</ele>
  <time>2026-08-28T17:50:23Z</time>
  <course>335.46</course>
  <speed>0.44</speed>
  <fix>3d</fix>
</trkpt>
<trkpt lat="40.0709662" lon="-105.2310976">
  <ele>1582.99</ele>
  <time>2026-08-28T17:50:23Z</time>
  <course>347.87</course>
  <speed>0.662872536767062</speed>
  <fix>3d</fix>
</trkpt>
<trkpt lat="40.0709651" lon="-105.2310975">
  <ele>1583.0</ele>
  <time>2026-08-28T17:50:23Z</time>
  <course>341.85</course>
  <speed>0.54</speed>
  <fix>3d</fix>
</trkpt>
<trkpt lat="40.0709667" lon="-105.2310978">
  <ele>1582.99</ele>
  <time>2026-08-28T17:50:23Z</time>
  <course>352.1</course>
  <speed>0.7368174807915459</speed>
  <fix>3d</fix>
</trkpt>
<trkpt lat="40.0709651" lon="-105.2310975">
  <ele>1583.0</ele>
  <time>2026-08-28T17:50:23Z</time>
  <course>341.85</course>
  <speed>0.54</speed>
  <fix>3d</fix>
</trkpt>
<trkpt lat="40.0709674" lon="-105.2310979">
  <ele>1582.98</ele>
  <time>2026-08-28T17:50:23Z</time>
  <course>356.74</course>
  <speed>0.8015609770940699</speed>
  <fix>3d</fix>
</trkpt>
<trkpt lat="40.0709662" lon="-105.2310978">
  <ele>1583.0</ele>
  <time>2026-08-28T17:50:23Z</time>
  <course>349.67</course>
  <speed>0.67</speed>
  <fix>3d</fix>
</trkpt>
<trkpt lat="40.0709681" lon="-105.2310979">
  <ele>1582.98</ele>
  <time>2026-08-28T17:50:23Z</time>
  <course>1.79</course>
  <speed>0.8700574693662483</speed>
  <fix>3d</fix>
</trkpt>
<trkpt lat="40.0709662" lon="-105.2310978">
  <ele>1583.0</ele>
  <time>2026-08-28T17:50:23Z</time>
  <course>349.67</course>
  <speed>0.67</speed>
  <fix>3d</fix>
</trkpt>
<trkpt lat="40.0709689" lon="-105.2310979">
  <ele>1582.99</ele>
  <time>2026-08-28T17:50:23Z</time>
  <course>7.29</course>
  <speed>0.9353608929178086</speed>
  <fix>3d</fix>
</trkpt>
<trkpt lat="40.0709675" lon="-105.231098">
  <ele>1583.0</ele>
  <time>2026-08-28T17:50:23Z</time>
  <course>359.09</course>
  <speed>0.8</speed>
  <fix>3d</fix>
</trkpt>
<trkpt lat="40.0709698" lon="-105.2310977">
  <ele>1582.99</ele>
  <time>2026-08-28T17:50:23Z</time>
  <course>13.23</course>
  <speed>1.0022474744293448</speed>
  <fix>3d</fix>
</trkpt>
<trkpt lat="40.0709675" lon="-105.231098">
  <ele>1583.0</ele>
  <time>2026-08-28T17:50:23Z</time>
  <course>359.09</course>
  <speed>0.8</speed>
  <fix>3d</fix>
</trkpt>
<trkpt lat="40.0709706" lon="-105.2310975">
  <ele>1582.99</ele>
  <time>2026-08-28T17:50:23Z</time>
  <course>19.63</course>
  <speed>1.0720541031123383</speed>
  <fix>3d</fix>
</trkpt>
<trkpt lat="40.0709691" lon="-105.2310979">
  <ele>1583.0</ele>
  <time>2026-08-28T17:50:23Z</time>
  <course>10.23</course>
  <speed>0.93</speed>
  <fix>3d</fix>
</trkpt>
<trkpt lat="40.0709714" lon="-105.2310971">
  <ele>1582.99</ele>
  <time>2026-08-28T17:50:23Z</time>
  <course>24.86</course>
  <speed>1.133181362359971</speed>
  <fix>3d</fix>
</trkpt>
<trkpt lat="40.0709691" lon="-105.2310979">
  <ele>1583.0</ele>
  <time>2026-08-28T17:50:23Z</time>
  <course>10.23</course>
  <speed>0.93</speed>
  <fix>3d</fix>
</trkpt>
<trkpt lat="40.0709723" lon="-105.2310965">
  <ele>1582.99</ele>
  <time>2026-08-28T17:50:23Z</time>
  <course>30.7</course>
  <speed>1.1995415791042843</speed>
  <fix>3d</fix>
</trkpt>
<trkpt lat="40.0709708" lon="-105.2310972">
  <ele>1583.0</ele>
  <time>2026-08-28T17:50:23Z</time>
  <course>22.46</course>
  <speed>1.08</speed>
  <fix>3d</fix>
</trkpt>
<trkpt lat="40.0709732" lon="-105.2310957">
  <ele>1583.0</ele>
  <time>2026-08-28T17:50:23Z</time>
  <course>35.88</course>
  <speed>1.2675172582651488</speed>
  <fix>3d</fix>
</trkpt>
<trkpt lat="40.0709708" lon="-105.2310972">
  <ele>1583.0</ele>
  <time>2026-08-28T17:50:23Z</time>
  <course>22.46</course>
  <speed>1.08</speed>
  <fix>3d</fix>
</trkpt>
<trkpt lat="40.0709741" lon="-105.2310947">
  <ele>1583.0</ele>
  <time>2026-08-28T17:50:23Z</time>
  <course>40.38</course>
  <speed>1.3368619973654723</speed>
  <fix>3d</fix>
</trkpt>
<trkpt lat="40.0709726" lon="-105.2310959">
  <ele>1583.0</ele>
  <time>2026-08-28T17:50:23Z</time>
  <course>33.59</course>
  <speed>1.23</speed>
  <fix>3d</fix>
</trkpt>
<trkpt lat="40.070975" lon="-105.2310936">
  <ele>1582.99</ele>
  <time>2026-08-28T17:50:23Z</time>
  <course>44.3</course>
  <speed>1.4153444810363305</speed>
  <fix>3d</fix>
</trkpt>
<trkpt lat="40.0709726" lon="-105.2310959">
  <ele>1583.0</ele>
  <time>2026-08-28T17:50:23Z</time>
  <course>33.59</course>
  <speed>1.23</speed>
  <fix>3d</fix>
</trkpt>
<trkpt lat="40.0709759" lon="-105.2310924">
  <ele>1582.99</ele>
  <time>2026-08-28T17:50:23Z</time>
  <course>47.65</course>
  <speed>1.4924141516348604</speed>
  <fix>3d</fix>
</trkpt>
<trkpt lat="40.0709744" lon="-105.2310941">
  <ele>1583.0</ele>
  <time>2026-08-28T17:50:23Z</time>
  <course>42.23</course>
  <speed>1.38</speed>
  <fix>3d</fix>
</trkpt>
<trkpt lat="40.0709768" lon="-105.231091">
  <ele>1582.99</ele>
  <time>2026-08-28T17:50:23Z</time>
  <course>50.48</course>
  <speed>1.5597435686676193</speed>
  <fix>3d</fix>
</trkpt>
<trkpt lat="40.0709744" lon="-105.2310941">
  <ele>1583.0</ele>
  <time>2026-08-28T17:50:23Z</time>
  <course>42.23</course>
  <speed>1.38</speed>
  <fix>3d</fix>
</trkpt>
<trkpt lat="40.0709777" lon="-105.2310895">
  <ele>1582.99</ele>
  <time>2026-08-28T17:50:23Z</time>
  <course>52.94</course>
  <speed>1.6367040050051813</speed>
  <fix>3d</fix>
</trkpt>
<trkpt lat="40.0709763" lon="-105.2310916">
  <ele>1583.0</ele>
  <time>2026-08-28T17:50:23Z</time>
  <course>48.63</course>
  <speed>1.53</speed>
  <fix>3d</fix>
</trkpt>
<trkpt lat="40.0709786" lon="-105.2310879">
  <ele>1582.99</ele>
  <time>2026-08-28T17:50:23Z</time>
  <course>55.04</course>
  <speed>1.6961426826773742</speed>
  <fix>3d</fix>
</trkpt>
<trkpt lat="40.0709763" lon="-105.2310916">
  <ele>1583.0</ele>
  <time>2026-08-28T17:50:23Z</time>
  <course>48.63</course>
  <speed>1.53</speed>
  <fix>3d</fix>
</trkpt>
<trkpt lat="40.0709797" lon="-105.2310859">
  <ele>1582.99</ele>
  <time>2026-08-28T17:50:23Z</time>
  <course>57.02</course>
  <speed>1.7696327302578916</speed>
  <fix>3d</fix>
</trkpt>
<trkpt lat="40.0709781" lon="-105.2310887">
  <ele>1583.0</ele>
  <time>2026-08-28T17:50:23Z</time>
  <course>53.27</course>
  <speed>1.67</speed>
  <fix>3d</fix>
</trkpt>
<trkpt lat="40.0709806" lon="-105.2310841">
  <ele>1582.99</ele>
  <time>2026-08-28T17:50:23Z</time>
  <course>58.31</course>
  <speed>1.8361917111238686</speed>
  <fix>3d</fix>
</trkpt>
<trkpt lat="40.0709781" lon="-105.2310887">
  <ele>1583.0</ele>
  <time>2026-08-28T17:50:23Z</time>
  <course>53.27</course>
  <speed>1.67</speed>
  <fix>3d</fix>
</trkpt>
<trkpt lat="40.0709815" lon="-105.2310822">
  <ele>1582.99</ele>
  <time>2026-08-28T17:50:23Z</time>
  <course>59.33</course>
  <speed>1.9090573590125572</speed>
  <fix>3d</fix>
</trkpt>
<trkpt lat="40.0709799" lon="-105.2310853">
  <ele>1583.0</ele>
  <time>2026-08-28T17:50:23Z</time>
  <course>56.48</course>
  <speed>1.8</speed>
  <fix>3d</fix>
</trkpt>
<trkpt lat="40.0709824" lon="-105.2310802">
  <ele>1582.99</ele>
  <time>2026-08-28T17:50:23Z</time>
  <course>60.13</course>
  <speed>1.996246477767713</speed>
  <fix>3d</fix>
</trkpt>
<trkpt lat="40.0709799" lon="-105.2310853">
  <ele>1583.0</ele>
  <time>2026-08-28T17:50:23Z</time>
  <course>56.48</course>
  <speed>1.8</speed>
  <fix>3d</fix>
</trkpt>
<trkpt lat="40.0709833" lon="-105.2310782">
  <ele>1582.99</ele>
  <time>2026-08-28T17:50:23Z</time>
  <course>60.74</course>
  <speed>2.075234926460135</speed>
  <fix>3d</fix>
</trkpt>
<trkpt lat="40.0709817" lon="-105.2310816">
  <ele>1583.0</ele>
  <time>2026-08-28T17:50:23Z</time>
  <course>58.51</course>
  <speed>1.94</speed>
  <fix>3d</fix>
</trkpt>
<trkpt lat="40.0709843" lon="-105.231076">
  <ele>1582.99</ele>
  <time>2026-08-28T17:50:23Z</time>
  <course>61.21</course>
  <speed>2.159467526961218</speed>
  <fix>3d</fix>
</trkpt>
<trkpt lat="40.0709817" lon="-105.2310816">
  <ele>1583.0</ele>
  <time>2026-08-28T17:50:23Z</time>
  <course>58.51</course>
  <speed>1.94</speed>
  <fix>3d</fix>
</trkpt>
<trkpt lat="40.0709853" lon="-105.2310737">
  <ele>1582.99</ele>
  <time>2026-08-28T17:50:23Z</time>
  <course>61.53</course>
  <speed>2.2437914341578185</speed>
  <fix>3d</fix>
</trkpt>
<trkpt lat="40.0709836" lon="-105.2310775">
  <ele>1583.0</ele>
  <time>2026-08-28T17:50:23Z</time>
  <course>59.73</course>
  <speed>2.11</speed>
  <fix>3d</fix>
</trkpt>
<trkpt lat="40.0709863" lon="-105.2310714">
  <ele>1583.0</ele>
  <time>2026-08-28T17:50:23Z</time>
  <course>61.76</course>
  <speed>2.3331095130747723</speed>
  <fix>3d</fix>
</trkpt>
<trkpt lat="40.0709836" lon="-105.2310775">
  <ele>1583.0</ele>
  <time>2026-08-28T17:50:23Z</time>
  <course>59.73</course>
  <speed>2.11</speed>
  <fix>3d</fix>
</trkpt>
<trkpt lat="40.0709873" lon="-105.2310689">
  <ele>1583.0</ele>
  <time>2026-08-28T17:50:23Z</time>
  <course>61.89</course>
  <speed>2.4311519903124115</speed>
  <fix>3d</fix>
</trkpt>
<trkpt lat="40.0709856" lon="-105.2310731">
  <ele>1583.0</ele>
  <time>2026-08-28T17:50:23Z</time>
  <course>60.39</course>
  <speed>2.28</speed>
  <fix>3d</fix>
</trkpt>
<trkpt lat="40.0709884" lon="-105.2310664">
  <ele>1583.0</ele>
  <time>2026-08-28T17:50:23Z</time>
  <course>61.95</course>
  <speed>2.5204959829366915</speed>
  <fix>3d</fix>
</trkpt>
<trkpt lat="40.0709856" lon="-105.2310731">
  <ele>1583.0</ele>
  <time>2026-08-28T17:50:23Z</time>
  <course>60.39</course>
  <speed>2.28</speed>
  <fix>3d</fix>
</trkpt>
<trkpt lat="40.0709895" lon="-105.2310638">
  <ele>1583.01</ele>
  <time>2026-08-28T17:50:23Z</time>
  <course>61.95</course>
  <speed>2.6147275192646746</speed>
  <fix>3d</fix>
</trkpt>
<trkpt lat="40.0709876" lon="-105.2310682">
  <ele>1583.0</ele>
  <time>2026-08-28T17:50:23Z</time>
  <course>60.65</course>
  <speed>2.47</speed>
  <fix>3d</fix>
</trkpt>
<trkpt lat="40.0709907" lon="-105.2310611">
  <ele>1583.01</ele>
  <time>2026-08-28T17:50:23Z</time>
  <course>61.91</course>
  <speed>2.712802978470792</speed>
  <fix>3d</fix>
</trkpt>
<trkpt lat="40.0709876" lon="-105.2310682">
  <ele>1583.0</ele>
  <time>2026-08-28T17:50:23Z</time>
  <course>60.65</course>
  <speed>2.47</speed>
  <fix>3d</fix>
</trkpt>
<trkpt lat="40.0709916" lon="-105.2310588">
  <ele>1583.01</ele>
  <time>2026-08-28T17:50:23Z</time>
  <course>61.85</course>
  <speed>2.789587783167972</speed>
  <fix>3d</fix>
</trkpt>
<trkpt lat="40.0709899" lon="-105.231063">
  <ele>1583.0</ele>
  <time>2026-08-28T17:50:23Z</time>
  <course>60.65</course>
  <speed>2.66</speed>
  <fix>3d</fix>
</trkpt>
<trkpt lat="40.0709929" lon="-105.2310559">
  <ele>1583.01</ele>
  <time>2026-08-28T17:50:23Z</time>
  <course>61.73</course>
  <speed>2.8925421345245774</speed>
  <fix>3d</fix>
</trkpt>
<trkpt lat="40.0709899" lon="-105.231063">
  <ele>1583.0</ele>
  <time>2026-08-28T17:50:23Z</time>
  <course>60.65</course>
  <speed>2.66</speed>
  <fix>3d</fix>
</trkpt>
<trkpt lat="40.0709942" lon="-105.2310529">
  <ele>1583.01</ele>
  <time>2026-08-28T17:50:23Z</time>
  <course>61.57</course>
  <speed>2.9917219122104246</speed>
  <fix>3d</fix>
</trkpt>
<trkpt lat="40.0709923" lon="-105.2310573">
  <ele>1583.0</ele>
  <time>2026-08-28T17:50:23Z</time>
  <course>60.47</course>
  <speed>2.86</speed>
  <fix>3d</fix>
</trkpt>
<trkpt lat="40.0709956" lon="-105.2310498">
  <ele>1583.01</ele>
  <time>2026-08-28T17:50:23Z</time>
  <course>61.4</course>
  <speed>3.0996290100591066</speed>
  <fix>3d</fix>
</trkpt>
<trkpt lat="40.0709923" lon="-105.2310573">
  <ele>1583.0</ele>
  <time>2026-08-28T17:50:23Z</time>
  <course>60.47</course>
  <speed>2.86</speed>
  <fix>3d</fix>
</trkpt>
<trkpt lat="40.070997" lon="-105.2310466">
  <ele>1583.02</ele>
  <time>2026-08-28T17:50:23Z</time>
  <course>61.18</course>
  <speed>3.198890432634416</speed>
  <fix>3d</fix>
</trkpt>
<trkpt lat="40.0709949" lon="-105.2310512">
  <ele>1583.0</ele>
  <time>2026-08-28T17:50:23Z</time>
  <course>60.15</course>
  <speed>3.06</speed>
  <fix>3d</fix>
</trkpt>
<trkpt lat="40.0709985" lon="-105.2310432">
  <ele>1583.02</ele>
  <time>2026-08-28T17:50:23Z</time>
  <course>60.97</course>
  <speed>3.306841393233126</speed>
  <fix>3d</fix>
</trkpt>
<trkpt lat="40.0709949" lon="-105.2310512">
  <ele>1583.0</ele>
  <time>2026-08-28T17:50:23Z</time>
  <course>60.15</course>
  <speed>3.06</speed>
  <fix>3d</fix>
</trkpt>
<trkpt lat="40.071" lon="-105.2310398">
  <ele>1583.01</ele>
  <time>2026-08-28T17:50:23Z</time>
  <course>60.74</course>
  <speed>3.4061708706405205</speed>
  <fix>3d</fix>
</trkpt>
<trkpt lat="40.0709978" lon="-105.2310449">
  <ele>1583.0</ele>
  <time>2026-08-28T17:50:23Z</time>
  <course>59.74</course>
  <speed>3.26</speed>
  <fix>3d</fix>
</trkpt>
<trkpt lat="40.0710016" lon="-105.2310362">
  <ele>1583.01</ele>
  <time>2026-08-28T17:50:23Z</time>
  <course>60.49</course>
  <speed>3.51062672467467</speed>
  <fix>3d</fix>
</trkpt>
<trkpt lat="40.0709978" lon="-105.2310449">
  <ele>1583.0</ele>
  <time>2026-08-28T17:50:23Z</time>
  <course>59.74</course>
  <speed>3.26</speed>
  <fix>3d</fix>
</trkpt>
<trkpt lat="40.0710033" lon="-105.2310326">
  <ele>1583.01</ele>
  <time>2026-08-28T17:50:23Z</time>
  <course>60.23</course>
  <speed>3.6151901748040864</speed>
  <fix>3d</fix>
</trkpt>
<trkpt lat="40.0710009" lon="-105.2310381">
  <ele>1583.0</ele>
  <time>2026-08-28T17:50:23Z</time>
  <course>59.26</course>
  <speed>3.46</speed>
  <fix>3d</fix>
</trkpt>
<trkpt lat="40.0710054" lon="-105.2310281">
  <ele>1583.01</ele>
  <time>2026-08-28T17:50:23Z</time>
  <course>59.91</course>
  <speed>3.7421384260874158</speed>
  <fix>3d</fix>
</trkpt>
<trkpt lat="40.0710009" lon="-105.2310381">
  <ele>1583.0</ele>
  <time>2026-08-28T17:50:23Z</time>
  <course>59.26</course>
  <speed>3.46</speed>
  <fix>3d</fix>
</trkpt>
<trkpt lat="40.0710071" lon="-105.2310243">
  <ele>1583.01</ele>
  <time>2026-08-28T17:50:23Z</time>
  <course>59.66</course>
  <speed>3.833131878764413</speed>
  <fix>3d</fix>
</trkpt>
<trkpt lat="40.0710042" lon="-105.2310309">
  <ele>1583.0</ele>
  <time>2026-08-28T17:50:23Z</time>
  <course>58.75</course>
  <speed>3.67</speed>
  <fix>3d</fix>
</trkpt>
<trkpt lat="40.071009" lon="-105.2310204">
  <ele>1583.01</ele>
  <time>2026-08-28T17:50:23Z</time>
  <course>59.4</course>
  <speed>3.937943625802685</speed>
  <fix>3d</fix>
</trkpt>
<trkpt lat="40.0710042" lon="-105.2310309">
  <ele>1583.0</ele>
  <time>2026-08-28T17:50:23Z</time>
  <course>58.75</course>
  <speed>3.67</speed>
  <fix>3d</fix>
</trkpt>
<trkpt lat="40.0710109" lon="-105.2310164">
  <ele>1583.01</ele>
  <time>2026-08-28T17:50:23Z</time>
  <course>59.13</course>
  <speed>4.042833164997042</speed>
  <fix>3d</fix>
</trkpt>
<trkpt lat="40.0710077" lon="-105.2310233">
  <ele>1583.0</ele>
  <time>2026-08-28T17:50:23Z</time>
  <course>58.23</course>
  <speed>3.87</speed>
  <fix>3d</fix>
</trkpt>
<trkpt lat="40.0710129" lon="-105.2310123">
  <ele>1583.01</ele>
  <time>2026-08-28T17:50:23Z</time>
  <course>58.85</course>
  <speed>4.139335695495111</speed>
  <fix>3d</fix>
</trkpt>
<trkpt lat="40.0710077" lon="-105.2310233">
  <ele>1583.0</ele>
  <time>2026-08-28T17:50:23Z</time>
  <course>58.23</course>
  <speed>3.87</speed>
  <fix>3d</fix>
</trkpt>
<trkpt lat="40.0710149" lon="-105.2310082">
  <ele>1583.01</ele>
  <time>2026-08-28T17:50:23Z</time>
  <course>58.57</course>
  <speed>4.244384525464204</speed>
  <fix>3d</fix>
</trkpt>
<trkpt lat="40.0710115" lon="-105.2310154">
  <ele>1583.0</ele>
  <time>2026-08-28T17:50:23Z</time>
  <course>57.69</course>
  <speed>4.07</speed>
  <fix>3d</fix>
</trkpt>
<trkpt lat="40.071017" lon="-105.2310039">
  <ele>1583.01</ele>
  <time>2026-08-28T17:50:23Z</time>
  <course>58.28</course>
  <speed>4.346504342572316</speed>
  <fix>3d</fix>
</trkpt>
<trkpt lat="40.0710115" lon="-105.2310154">
  <ele>1583.0</ele>
  <time>2026-08-28T17:50:23Z</time>
  <course>57.69</course>
  <speed>4.07</speed>
  <fix>3d</fix>
</trkpt>
<trkpt lat="40.0710192" lon="-105.2309997">
  <ele>1583.01</ele>
  <time>2026-08-28T17:50:23Z</time>
  <course>58.02</course>
  <speed>4.4433433358227</speed>
  <fix>3d</fix>
</trkpt>
<trkpt lat="40.0710155" lon="-105.2310071">
  <ele>1583.0</ele>
  <time>2026-08-28T17:50:23Z</time>
  <course>57.13</course>
  <speed>4.27</speed>
  <fix>3d</fix>
</trkpt>
<trkpt lat="40.0710214" lon="-105.2309953">
  <ele>1583.01</ele>
  <time>2026-08-28T17:50:23Z</time>
  <course>57.78</course>
  <speed>4.540275322048212</speed>
  <fix>3d</fix>
</trkpt>
<trkpt lat="40.0710155" lon="-105.2310071">
  <ele>1583.0</ele>
  <time>2026-08-28T17:50:23Z</time>
  <course>57.13</course>
  <speed>4.27</speed>
  <fix>3d</fix>
</trkpt>
<trkpt lat="40.0710236" lon="-105.2309908">
  <ele>1583.0</ele>
  <time>2026-08-28T17:50:23Z</time>
  <course>57.53</course>
  <speed>4.637294469839068</speed>
  <fix>3d</fix>
</trkpt>
<trkpt lat="40.0710198" lon="-105.2309985">
  <ele>1583.0</ele>
  <time>2026-08-28T17:50:23Z</time>
  <course>56.6</course>
  <speed>4.47</speed>
  <fix>3d</fix>
</trkpt>
<trkpt lat="40.0710259" lon="-105.2309863">
  <ele>1583.0</ele>
  <time>2026-08-28T17:50:23Z</time>
  <course>57.28</course>
  <speed>4.734395420748039</speed>
  <fix>3d</fix>
</trkpt>
<trkpt lat="40.0710198" lon="-105.2309985">
  <ele>1583.0</ele>
  <time>2026-08-28T17:50:23Z</time>
  <course>56.6</course>
  <speed>4.47</speed>
  <fix>3d</fix>
</trkpt>
<trkpt lat="40.0710279" lon="-105.2309826">
  <ele>1583.0</ele>
  <time>2026-08-28T17:50:23Z</time>
  <course>57.07</course>
  <speed>4.817686166615672</speed>
  <fix>3d</fix>
</trkpt>
<trkpt lat="40.0710244" lon="-105.2309896">
  <ele>1583.0</ele>
  <time>2026-08-28T17:50:23Z</time>
  <course>56.11</course>
  <speed>4.67</speed>
  <fix>3d</fix>
</trkpt>
<trkpt lat="40.0710303" lon="-105.2309779">
  <ele>1583.0</ele>
  <time>2026-08-28T17:50:23Z</time>
  <course>56.8</course>
  <speed>4.9149262456317695</speed>
  <fix>3d</fix>
</trkpt>
<trkpt lat="40.0710244" lon="-105.2309896">
  <ele>1583.0</ele>
  <time>2026-08-28T17:50:23Z</time>
  <course>56.11</course>
  <speed>4.67</speed>
  <fix>3d</fix>
</trkpt>
<trkpt lat="40.0710328" lon="-105.2309732">
  <ele>1583.0</ele>
  <time>2026-08-28T17:50:23Z</time>
  <course>56.56</course>
  <speed>5.017907930602155</speed>
  <fix>3d</fix>
</trkpt>
<trkpt lat="40.0710292" lon="-105.2309803">
  <ele>1583.0</ele>
  <time>2026-08-28T17:50:23Z</time>
  <course>55.6</course>
  <speed>4.87</speed>
  <fix>3d</fix>
</trkpt>
<trkpt lat="40.0710354" lon="-105.2309683">
  <ele>1583.0</ele>
  <time>2026-08-28T17:50:23Z</time>
  <course>56.36</course>
  <speed>5.115310352266029</speed>
  <fix>3d</fix>
</trkpt>
<trkpt lat="40.0710292" lon="-105.2309803">
  <ele>1583.0</ele>
  <time>2026-08-28T17:50:23Z</time>
  <course>55.6</course>
  <speed>4.87</speed>
  <fix>3d</fix>
</trkpt>
<trkpt lat="40.0710381" lon="-105.2309633">
  <ele>1583.0</ele>
  <time>2026-08-28T17:50:23Z</time>
  <course>56.15</course>
  <speed>5.2209673433186685</speed>
  <fix>3d</fix>
</trkpt>
<trkpt lat="40.0710342" lon="-105.2309707">
  <ele>1583.0</ele>
  <time>2026-08-28T17:50:23Z</time>
  <course>55.13</course>
  <speed>5.08</speed>
  <fix>3d</fix>
</trkpt>
<trkpt lat="40.0710408" lon="-105.2309582">
  <ele>1583.0</ele>
  <time>2026-08-28T17:50:23Z</time>
  <course>55.94</course>
  <speed>5.324227643517884</speed>
  <fix>3d</fix>
</trkpt>
<trkpt lat="40.0710342" lon="-105.2309707">
  <ele>1583.0</ele>
  <time>2026-08-28T17:50:23Z</time>
  <course>55.13</course>
  <speed>5.08</speed>
  <fix>3d</fix>
</trkpt>
<trkpt lat="40.0710437" lon="-105.2309531">
  <ele>1583.0</ele>
  <time>2026-08-28T17:50:23Z</time>
  <course>55.72</course>
  <speed>5.427605365167958</speed>
  <fix>3d</fix>
</trkpt>
<trkpt lat="40.0710396" lon="-105.2309607">
  <ele>1583.0</ele>
  <time>2026-08-28T17:50:23Z</time>
  <course>54.71</course>
  <speed>5.28</speed>
  <fix>3d</fix>
</trkpt>
<trkpt lat="40.0710466" lon="-105.2309478">
  <ele>1582.99</ele>
  <time>2026-08-28T17:50:23Z</time>
  <course>55.5</course>
  <speed>5.525260174869596</speed>
  <fix>3d</fix>
</trkpt>
<trkpt lat="40.0710396" lon="-105.2309607">
  <ele>1583.0</ele>
  <time>2026-08-28T17:50:23Z</time>
  <course>54.71</course>
  <speed>5.28</speed>
  <fix>3d</fix>
</trkpt>
<trkpt lat="40.0710495" lon="-105.2309424">
  <ele>1582.99</ele>
  <time>2026-08-28T17:50:23Z</time>
  <course>55.35</course>
  <speed>5.6310744978201095</speed>
  <fix>3d</fix>
</trkpt>
<trkpt lat="40.0710452" lon="-105.2309505">
  <ele>1583.0</ele>
  <time>2026-08-28T17:50:23Z</time>
  <course>54.3</course>
  <speed>5.49</speed>
  <fix>3d</fix>
</trkpt>
<trkpt lat="40.0710526" lon="-105.230937">
  <ele>1582.99</ele>
  <time>2026-08-28T17:50:23Z</time>
  <course>55.19</course>
  <speed>5.728804412789811</speed>
  <fix>3d</fix>
</trkpt>
<trkpt lat="40.0710452" lon="-105.2309505">
  <ele>1583.0</ele>
  <time>2026-08-28T17:50:23Z</time>
  <course>54.3</course>
  <speed>5.49</speed>
  <fix>3d</fix>
</trkpt>
<trkpt lat="40.0710563" lon="-105.2309303">
  <ele>1582.99</ele>
  <time>2026-08-28T17:50:23Z</time>
  <course>55.01</course>
  <speed>5.8405479195020735</speed>
  <fix>3d</fix>
</trkpt>
<trkpt lat="40.0710512" lon="-105.2309399">
  <ele>1583.0</ele>
  <time>2026-08-28T17:50:23Z</time>
  <course>53.96</course>
  <speed>5.68</speed>
  <fix>3d</fix>
</trkpt>
<trkpt lat="40.0710594" lon="-105.2309247">
  <ele>1582.99</ele>
  <time>2026-08-28T17:50:23Z</time>
  <course>54.85</course>
  <speed>5.922246195490357</speed>
  <fix>3d</fix>
</trkpt>
<trkpt lat="40.0710512" lon="-105.2309399">
  <ele>1583.0</ele>
  <time>2026-08-28T17:50:23Z</time>
  <course>53.96</course>
  <speed>5.68</speed>
  <fix>3d</fix>
</trkpt>
<trkpt lat="40.0710626" lon="-105.2309191">
  <ele>1582.99</ele>
  <time>2026-08-28T17:50:23Z</time>
  <course>54.7</course>
  <speed>6.0002083297165605</speed>
  <fix>3d</fix>
</trkpt>
<trkpt lat="40.0710573" lon="-105.2309289">
  <ele>1583.0</ele>
  <time>2026-08-28T17:50:23Z</time>
  <course>53.65</course>
  <speed>5.86</speed>
  <fix>3d</fix>
</trkpt>
<trkpt lat="40.0710659" lon="-105.2309134">
  <ele>1583.0</ele>
  <time>2026-08-28T17:50:23Z</time>
  <course>54.62</course>
  <speed>6.062095347320099</speed>
  <fix>3d</fix>
</trkpt>
<trkpt lat="40.0710573" lon="-105.2309289">
  <ele>1583.0</ele>
  <time>2026-08-28T17:50:23Z</time>
  <course>53.65</course>
  <speed>5.86</speed>
  <fix>3d</fix>
</trkpt>
<trkpt lat="40.0710692" lon="-105.2309076">
  <ele>1583.0</ele>
  <time>2026-08-28T17:50:23Z</time>
  <course>54.54</course>
  <speed>6.118055246563241</speed>
  <fix>3d</fix>
</trkpt>
<trkpt lat="40.0710636" lon="-105.2309176">
  <ele>1583.0</ele>
  <time>2026-08-28T17:50:23Z</time>
  <course>53.4</course>
  <speed>6.0</speed>
  <fix>3d</fix>
</trkpt>
<trkpt lat="40.0710725" lon="-105.2309019">
  <ele>1583.0</ele>
  <time>2026-08-28T17:50:23Z</time>
  <course>54.45</course>
  <speed>6.160032467446905</speed>
  <fix>3d</fix>
</trkpt>
<trkpt lat="40.0710636" lon="-105.2309176">
  <ele>1583.0</ele>
  <time>2026-08-28T17:50:23Z</time>
  <course>53.4</course>
  <speed>6.0</speed>
  <fix>3d</fix>
</trkpt>
<trkpt lat="40.0710758" lon="-105.2308961">
  <ele>1583.0</ele>
  <time>2026-08-28T17:50:23Z</time>
  <course>54.37</course>
  <speed>6.186000323310693</speed>
  <fix>3d</fix>
</trkpt>
<trkpt lat="40.0710701" lon="-105.2309062">
  <ele>1583.0</ele>
  <time>2026-08-28T17:50:23Z</time>
  <course>53.22</course>
  <speed>6.11</speed>
  <fix>3d</fix>
</trkpt>
<trkpt lat="40.0710791" lon="-105.2308903">
  <ele>1583.0</ele>
  <time>2026-08-28T17:50:23Z</time>
  <course>54.28</course>
  <speed>6.206005156298212</speed>
  <fix>3d</fix>
</trkpt>
<trkpt lat="40.0710701" lon="-105.2309062">
  <ele>1583.0</ele>
  <time>2026-08-28T17:50:23Z</time>
  <course>53.22</course>
  <speed>6.11</speed>
  <fix>3d</fix>
</trkpt>
<trkpt lat="40.0710824" lon="-105.2308846">
  <ele>1583.0</ele>
  <time>2026-08-28T17:50:23Z</time>
  <course>54.19</course>
  <speed>6.212020605245929</speed>
  <fix>3d</fix>
</trkpt>
<trkpt lat="40.0710768" lon="-105.2308946">
  <ele>1583.0</ele>
  <time>2026-08-28T17:50:23Z</time>
  <course>53.06</course>
  <speed>6.17</speed>
  <fix>3d</fix>
</trkpt>
<trkpt lat="40.0710858" lon="-105.2308788">
  <ele>1583.0</ele>
  <time>2026-08-28T17:50:23Z</time>
  <course>54.1</course>
  <speed>6.210072463345336</speed>
  <fix>3d</fix>
</trkpt>
<trkpt lat="40.0710768" lon="-105.2308946">
  <ele>1583.0</ele>
  <time>2026-08-28T17:50:23Z</time>
  <course>53.06</course>
  <speed>6.17</speed>
  <fix>3d</fix>
</trkpt>
<trkpt lat="40.0710891" lon="-105.2308731">
  <ele>1583.0</ele>
  <time>2026-08-28T17:50:23Z</time>
  <course>54.01</course>
  <speed>6.2021044815449535</speed>
  <fix>3d</fix>
</trkpt>
<trkpt lat="40.0710835" lon="-105.2308831">
  <ele>1583.0</ele>
  <time>2026-08-28T17:50:23Z</time>
  <course>52.89</course>
  <speed>6.19</speed>
  <fix>3d</fix>
</trkpt>
<trkpt lat="40.0710918" lon="-105.2308685">
  <ele>1583.0</ele>
  <time>2026-08-28T17:50:23Z</time>
  <course>53.94</course>
  <speed>6.1861862241610535</speed>
  <fix>3d</fix>
</trkpt>
<trkpt lat="40.0710835" lon="-105.2308831">
  <ele>1583.0</ele>
  <time>2026-08-28T17:50:23Z</time>
  <course>52.89</course>
  <speed>6.19</speed>
  <fix>3d</fix>
</trkpt>
<trkpt lat="40.0710952" lon="-105.2308628">
  <ele>1583.0</ele>
  <time>2026-08-28T17:50:23Z</time>
  <course>53.85</course>
  <speed>6.164219334189853</speed>
  <fix>3d</fix>
</trkpt>
<trkpt lat="40.0710902" lon="-105.2308714">
  <ele>1583.0</ele>
  <time>2026-08-28T17:50:23Z</time>
  <course>52.72</course>
  <speed>6.18</speed>
  <fix>3d</fix>
</trkpt>
<trkpt lat="40.0710985" lon="-105.230857">
  <ele>1583.0</ele>
  <time>2026-08-28T17:50:23Z</time>
  <course>53.77</course>
  <speed>6.148333107436518</speed>
  <fix>3d</fix>
</trkpt>
<trkpt lat="40.0710902" lon="-105.2308714">
  <ele>1583.0</ele>
  <time>2026-08-28T17:50:23Z</time>
  <course>52.72</course>
  <speed>6.18</speed>
  <fix>3d</fix>
</trkpt>
<trkpt lat="40.0711019" lon="-105.2308514">
  <ele>1583.0</ele>
  <time>2026-08-28T17:50:23Z</time>
  <course>53.69</course>
  <speed>6.118447515505874</speed>
  <fix>3d</fix>
</trkpt>
<trkpt lat="40.0710969" lon="-105.2308599">
  <ele>1583.0</ele>
  <time>2026-08-28T17:50:23Z</time>
  <course>52.56</course>
  <speed>6.15</speed>
  <fix>3d</fix>
</trkpt>
<trkpt lat="40.0711052" lon="-105.2308457">
  <ele>1583.0</ele>
  <time>2026-08-28T17:50:23Z</time>
  <course>53.61</course>
  <speed>6.088579473079086</speed>
  <fix>3d</fix>
</trkpt>
<trkpt lat="40.0710969" lon="-105.2308599">
  <ele>1583.0</ele>
  <time>2026-08-28T17:50:23Z</time>
  <course>52.56</course>
  <speed>6.15</speed>
  <fix>3d</fix>
</trkpt>
<trkpt lat="40.0711086" lon="-105.23084">
  <ele>1583.0</ele>
  <time>2026-08-28T17:50:23Z</time>
  <course>53.53</course>
  <speed>6.058729239700352</speed>
  <fix>3d</fix>
</trkpt>
<trkpt lat="40.0711036" lon="-105.2308486">
  <ele>1583.0</ele>
  <time>2026-08-28T17:50:23Z</time>
  <course>52.39</course>
  <speed>6.1</speed>
  <fix>3d</fix>
</trkpt>
<trkpt lat="40.071112" lon="-105.2308344">
  <ele>1583.0</ele>
  <time>2026-08-28T17:50:23Z</time>
  <course>53.45</course>
  <speed>6.028897079897782</speed>
  <fix>3d</fix>
</trkpt>
<trkpt lat="40.0711036" lon="-105.2308486">
  <ele>1583.0</ele>
  <time>2026-08-28T17:50:23Z</time>
  <course>52.39</course>
  <speed>6.1</speed>
  <fix>3d</fix>
</trkpt>
<trkpt lat="40.0711153" lon="-105.2308287">
  <ele>1583.0</ele>
  <time>2026-08-28T17:50:23Z</time>
  <course>53.36</course>
  <speed>5.999083263299485</speed>
  <fix>3d</fix>
</trkpt>
<trkpt lat="40.0711103" lon="-105.2308372">
  <ele>1583.0</ele>
  <time>2026-08-28T17:50:23Z</time>
  <course>52.23</course>
  <speed>6.04</speed>
  <fix>3d</fix>
</trkpt>
<trkpt lat="40.0711187" lon="-105.2308232">
  <ele>1583.01</ele>
  <time>2026-08-28T17:50:23Z</time>
  <course>53.28</course>
  <speed>5.969288064752781</speed>
  <fix>3d</fix>
</trkpt>
<trkpt lat="40.0711103" lon="-105.2308372">
  <ele>1583.0</ele>
  <time>2026-08-28T17:50:23Z</time>
  <course>52.23</course>
  <speed>6.04</speed>
  <fix>3d</fix>
</trkpt>
<trkpt lat="40.071122" lon="-105.2308176">
  <ele>1583.01</ele>
  <time>2026-08-28T17:50:23Z</time>
  <course>53.2</course>
  <speed>5.939511764446637</speed>
  <fix>3d</fix>
</trkpt>
<trkpt lat="40.071117" lon="-105.2308261">
  <ele>1583.0</ele>
  <time>2026-08-28T17:50:23Z</time>
  <course>52.06</course>
  <speed>5.98</speed>
  <fix>3d</fix>
</trkpt>
<trkpt lat="40.071126" lon="-105.230811">
  <ele>1583.01</ele>
  <time>2026-08-28T17:50:23Z</time>
  <course>53.11</course>
  <speed>5.9097546480374294</speed>
  <fix>3d</fix>
</trkpt>
<trkpt lat="40.071117" lon="-105.2308261">
  <ele>1583.0</ele>
  <time>2026-08-28T17:50:23Z</time>
  <course>52.06</course>
  <speed>5.98</speed>
  <fix>3d</fix>
</trkpt>
<trkpt lat="40.0711293" lon="-105.2308056">
  <ele>1583.02</ele>
  <time>2026-08-28T17:50:23Z</time>
  <course>53.03</course>
  <speed>5.880017006778127</speed>
  <fix>3d</fix>
</trkpt>
<trkpt lat="40.0711235" lon="-105.2308151">
  <ele>1583.0</ele>
  <time>2026-08-28T17:50:23Z</time>
  <course>51.9</course>
  <speed>5.93</speed>
  <fix>3d</fix>
</trkpt>
<trkpt lat="40.0711325" lon="-105.2308002">
  <ele>1583.02</ele>
  <time>2026-08-28T17:50:23Z</time>
  <course>52.95</course>
  <speed>5.858131101298434</speed>
  <fix>3d</fix>
</trkpt>
<trkpt lat="40.0711235" lon="-105.2308151">
  <ele>1583.0</ele>
  <time>2026-08-28T17:50:23Z</time>
  <course>51.9</course>
  <speed>5.93</speed>
  <fix>3d</fix>
</trkpt>
<trkpt lat="40.0711358" lon="-105.2307948">
  <ele>1583.02</ele>
  <time>2026-08-28T17:50:23Z</time>
  <course>52.87</course>
  <speed>5.842473791126495</speed>
  <fix>3d</fix>
</trkpt>
<trkpt lat="40.0711301" lon="-105.2308042">
  <ele>1583.0</ele>
  <time>2026-08-28T17:50:23Z</time>
  <course>51.74</course>
  <speed>5.88</speed>
  <fix>3d</fix>
</trkpt>
<trkpt lat="40.0711391" lon="-105.2307894">
  <ele>1583.03</ele>
  <time>2026-08-28T17:50:23Z</time>
  <course>52.79</course>
  <speed>5.8206013435039505</speed>
  <fix>3d</fix>
</trkpt>
<trkpt lat="40.0711301" lon="-105.2308042">
  <ele>1583.0</ele>
  <time>2026-08-28T17:50:23Z</time>
  <course>51.74</course>
  <speed>5.88</speed>
  <fix>3d</fix>
</trkpt>
<trkpt lat="40.0711424" lon="-105.230784">
  <ele>1583.03</ele>
  <time>2026-08-28T17:50:23Z</time>
  <course>52.71</course>
  <speed>5.804980620122689</speed>
  <fix>3d</fix>
</trkpt>
<trkpt lat="40.0711366" lon="-105.2307934">
  <ele>1583.0</ele>
  <time>2026-08-28T17:50:23Z</time>
  <course>51.58</course>
  <speed>5.84</speed>
  <fix>3d</fix>
</trkpt>
<trkpt lat="40.0711456" lon="-105.2307788">
  <ele>1583.02</ele>
  <time>2026-08-28T17:50:23Z</time>
  <course>52.62</course>
  <speed>5.789386841453937</speed>
  <fix>3d</fix>
</trkpt>
<trkpt lat="40.0711366" lon="-105.2307934">
  <ele>1583.0</ele>
  <time>2026-08-28T17:50:23Z</time>
  <course>51.58</course>
  <speed>5.84</speed>
  <fix>3d</fix>
</trkpt>
<trkpt lat="40.0711488" lon="-105.2307735">
  <ele>1583.02</ele>
  <time>2026-08-28T17:50:23Z</time>
  <course>52.54</course>
  <speed>5.775326830578508</speed>
  <fix>3d</fix>
</trkpt>
<trkpt lat="40.0711431" lon="-105.2307826">
  <ele>1583.0</ele>
  <time>2026-08-28T17:50:23Z</time>
  <course>51.42</course>
  <speed>5.82</speed>
  <fix>3d</fix>
</trkpt>
<trkpt lat="40.071152" lon="-105.2307682">
  <ele>1583.02</ele>
  <time>2026-08-28T17:50:23Z</time>
  <course>52.46</course>
  <speed>5.767538469745997</speed>
  <fix>3d</fix>
</trkpt>
<trkpt lat="40.0711431" lon="-105.2307826">
  <ele>1583.0</ele>
  <time>2026-08-28T17:50:23Z</time>
  <course>51.42</course>
  <speed>5.82</speed>
  <fix>3d</fix>
</trkpt>
<trkpt lat="40.0711553" lon="-105.230763">
  <ele>1583.02</ele>
  <time>2026-08-28T17:50:23Z</time>
  <course>52.38</course>
  <speed>5.766047172890628</speed>
  <fix>3d</fix>
</trkpt>
<trkpt lat="40.0711497" lon="-105.230772">
  <ele>1583.0</ele>
  <time>2026-08-28T17:50:23Z</time>
  <course>51.26</course>
  <speed>5.8</speed>
  <fix>3d</fix>
</trkpt>
<trkpt lat="40.0711585" lon="-105.2307578">
  <ele>1583.02</ele>
  <time>2026-08-28T17:50:23Z</time>
  <course>52.29</course>
  <speed>5.758280993491026</speed>
  <fix>3d</fix>
</trkpt>
<trkpt lat="40.0711497" lon="-105.230772">
  <ele>1583.0</ele>
  <time>2026-08-28T17:50:23Z</time>
  <course>51.26</course>
  <speed>5.8</speed>
  <fix>3d</fix>
</trkpt>
<trkpt lat="40.0711611" lon="-105.2307536">
  <ele>1583.01</ele>
  <time>2026-08-28T17:50:23Z</time>
  <course>52.23</course>
  <speed>5.764590184913407</speed>
  <fix>3d</fix>
</trkpt>
<trkpt lat="40.0711562" lon="-105.2307613">
  <ele>1583.0</ele>
  <time>2026-08-28T17:50:23Z</time>
  <course>51.11</course>
  <speed>5.8</speed>
  <fix>3d</fix>
</trkpt>
<trkpt lat="40.0711644" lon="-105.2307483">
  <ele>1583.01</ele>
  <time>2026-08-28T17:50:23Z</time>
  <course>52.15</course>
  <speed>5.764590184913407</speed>
  <fix>3d</fix>
</trkpt>
<trkpt lat="40.0711562" lon="-105.2307613">
  <ele>1583.0</ele>
  <time>2026-08-28T17:50:23Z</time>
  <course>51.11</course>
  <speed>5.8</speed>
  <fix>3d</fix>
</trkpt>
<trkpt lat="40.0711677" lon="-105.230743">
  <ele>1583.0</ele>
  <time>2026-08-28T17:50:23Z</time>
  <course>52.07</course>
  <speed>5.770909806954186</speed>
  <fix>3d</fix>
</trkpt>
<trkpt lat="40.0711627" lon="-105.2307508">
  <ele>1583.0</ele>
  <time>2026-08-28T17:50:23Z</time>
  <course>50.95</course>
  <speed>5.81</speed>
  <fix>3d</fix>
</trkpt>
<trkpt lat="40.0711709" lon="-105.2307377">
  <ele>1583.0</ele>
  <time>2026-08-28T17:50:23Z</time>
  <course>51.99</course>
  <speed>5.777239825383744</speed>
  <fix>3d</fix>
</trkpt>
<trkpt lat="40.0711627" lon="-105.2307508">
  <ele>1583.0</ele>
  <time>2026-08-28T17:50:23Z</time>
  <course>50.95</course>
  <speed>5.81</speed>
  <fix>3d</fix>
</trkpt>
<trkpt lat="40.0711743" lon="-105.2307324">
  <ele>1583.0</ele>
  <time>2026-08-28T17:50:23Z</time>
  <course>51.91</course>
  <speed>5.791312459192649</speed>
  <fix>3d</fix>
</trkpt>
<trkpt lat="40.0711694" lon="-105.2307402">
  <ele>1583.0</ele>
  <time>2026-08-28T17:50:23Z</time>
  <course>50.79</course>
  <speed>5.82</speed>
  <fix>3d</fix>
</trkpt>
<trkpt lat="40.0711776" lon="-105.2307271">
  <ele>1583.0</ele>
  <time>2026-08-28T17:50:23Z</time>
  <course>51.84</course>
  <speed>5.804007236384186</speed>
  <fix>3d</fix>
</trkpt>
<trkpt lat="40.0711694" lon="-105.2307402">
  <ele>1583.0</ele>
  <time>2026-08-28T17:50:23Z</time>
  <course>50.79</course>
  <speed>5.82</speed>
  <fix>3d</fix>
</trkpt>
<trkpt lat="40.0711809" lon="-105.2307218">
  <ele>1583.01</ele>
  <time>2026-08-28T17:50:23Z</time>
  <course>51.76</course>
  <speed>5.810370039851162</speed>
  <fix>3d</fix>
</trkpt>
<trkpt lat="40.071176" lon="-105.2307295">
  <ele>1583.0</ele>
  <time>2026-08-28T17:50:23Z</time>
  <course>50.63</course>
  <speed>5.84</speed>
  <fix>3d</fix>
</trkpt>
<trkpt lat="40.0711843" lon="-105.2307164">
  <ele>1583.01</ele>
  <time>2026-08-28T17:50:23Z</time>
  <course>51.68</course>
  <speed>5.824448471743913</speed>
  <fix>3d</fix>
</trkpt>
<trkpt lat="40.071176" lon="-105.2307295">
  <ele>1583.0</ele>
  <time>2026-08-28T17:50:23Z</time>
  <course>50.63</course>
  <speed>5.84</speed>
  <fix>3d</fix>
</trkpt>
<trkpt lat="40.0711877" lon="-105.2307111">
  <ele>1583.01</ele>
  <time>2026-08-28T17:50:23Z</time>
  <course>51.6</course>
  <speed>5.830823269487765</speed>
  <fix>3d</fix>
</trkpt>
<trkpt lat="40.0711827" lon="-105.2307189">
  <ele>1583.0</ele>
  <time>2026-08-28T17:50:23Z</time>
  <course>50.47</course>
  <speed>5.87</speed>
  <fix>3d</fix>
</trkpt>
<trkpt lat="40.0711911" lon="-105.2307057">
  <ele>1583.01</ele>
  <time>2026-08-28T17:50:23Z</time>
  <course>51.54</course>
  <speed>5.8512904559592664</speed>
  <fix>3d</fix>
</trkpt>
<trkpt lat="40.0711827" lon="-105.2307189">
  <ele>1583.0</ele>
  <time>2026-08-28T17:50:23Z</time>
  <course>50.47</course>
  <speed>5.87</speed>
  <fix>3d</fix>
</trkpt>
<trkpt lat="40.0711952" lon="-105.2306993">
  <ele>1583.02</ele>
  <time>2026-08-28T17:50:23Z</time>
  <course>51.48</course>
  <speed>5.8576872569299905</speed>
  <fix>3d</fix>
</trkpt>
<trkpt lat="40.0711895" lon="-105.2307083">
  <ele>1583.0</ele>
  <time>2026-08-28T17:50:23Z</time>
  <course>50.33</course>
  <speed>5.89</speed>
  <fix>3d</fix>
</trkpt>
<trkpt lat="40.0711986" lon="-105.230694">
  <ele>1583.02</ele>
  <time>2026-08-28T17:50:23Z</time>
  <course>51.43</course>
  <speed>5.871771453317985</speed>
  <fix>3d</fix>
</trkpt>
<trkpt lat="40.0711895" lon="-105.2307083">
  <ele>1583.0</ele>
  <time>2026-08-28T17:50:23Z</time>
  <course>50.33</course>
  <speed>5.89</speed>
  <fix>3d</fix>
</trkpt>
<trkpt lat="40.071202" lon="-105.2306886">
  <ele>1583.02</ele>
  <time>2026-08-28T17:50:23Z</time>
  <course>51.38</course>
  <speed>5.871771453317985</speed>
  <fix>3d</fix>
</trkpt>
<trkpt lat="40.0711962" lon="-105.2306976">
  <ele>1583.0</ele>
  <time>2026-08-28T17:50:23Z</time>
  <course>50.21</course>
  <speed>5.9</speed>
  <fix>3d</fix>
</trkpt>
<trkpt lat="40.0712054" lon="-105.2306833">
  <ele>1583.02</ele>
  <time>2026-08-28T17:50:23Z</time>
  <course>51.34</course>
  <speed>5.878179990439218</speed>
  <fix>3d</fix>
</trkpt>
<trkpt lat="40.0711962" lon="-105.2306976">
  <ele>1583.0</ele>
  <time>2026-08-28T17:50:23Z</time>
  <course>50.21</course>
  <speed>5.9</speed>
  <fix>3d</fix>
</trkpt>
<trkpt lat="40.0712088" lon="-105.2306779">
  <ele>1583.02</ele>
  <time>2026-08-28T17:50:23Z</time>
  <course>51.27</course>
  <speed>5.892266117547645</speed>
  <fix>3d</fix>
</trkpt>
<trkpt lat="40.071203" lon="-105.2306869">
  <ele>1583.0</ele>
  <time>2026-08-28T17:50:23Z</time>
  <course>50.11</course>
  <speed>5.92</speed>
  <fix>3d</fix>
</trkpt>
<trkpt lat="40.0712122" lon="-105.2306726">
  <ele>1583.02</ele>
  <time>2026-08-28T17:50:23Z</time>
  <course>51.26</course>
  <speed>5.892266117547645</speed>
  <fix>3d</fix>
</trkpt>
<trkpt lat="40.071203" lon="-105.2306869">
  <ele>1583.0</ele>
  <time>2026-08-28T17:50:23Z</time>
  <course>50.11</course>
  <speed>5.92</speed>
  <fix>3d</fix>
</trkpt>
<trkpt lat="40.0712156" lon="-105.2306673">
  <ele>1583.03</ele>
  <time>2026-08-28T17:50:23Z</time>
  <course>51.21</course>
  <speed>5.898686294421835</speed>
  <fix>3d</fix>
</trkpt>
<trkpt lat="40.0712099" lon="-105.2306763">
  <ele>1583.0</ele>
  <time>2026-08-28T17:50:23Z</time>
  <course>50.03</course>
  <speed>5.93</speed>
  <fix>3d</fix>
</trkpt>
<trkpt lat="40.071219" lon="-105.230662">
  <ele>1583.03</ele>
  <time>2026-08-28T17:50:23Z</time>
  <course>51.16</course>
  <speed>5.898686294421835</speed>
  <fix>3d</fix>
</trkpt>
<trkpt lat="40.0712099" lon="-105.2306763">
  <ele>1583.0</ele>
  <time>2026-08-28T17:50:23Z</time>
  <course>50.03</course>
  <speed>5.93</speed>
  <fix>3d</fix>
</trkpt>
<trkpt lat="40.0712224" lon="-105.2306567">
  <ele>1583.03</ele>
  <time>2026-08-28T17:50:23Z</time>
  <course>51.14</course>
  <speed>5.898686294421835</speed>
  <fix>3d</fix>
</trkpt>
<trkpt lat="40.0712167" lon="-105.2306656">
  <ele>1583.0</ele>
  <time>2026-08-28T17:50:23Z</time>
  <course>49.95</course>
  <speed>5.94</speed>
  <fix>3d</fix>
</trkpt>
<trkpt lat="40.0712258" lon="-105.2306514">
  <ele>1583.03</ele>
  <time>2026-08-28T17:50:23Z</time>
  <course>51.08</course>
  <speed>5.897465557339017</speed>
  <fix>3d</fix>
</trkpt>
<trkpt lat="40.0712167" lon="-105.2306656">
  <ele>1583.0</ele>
  <time>2026-08-28T17:50:23Z</time>
  <course>49.95</course>
  <speed>5.94</speed>
  <fix>3d</fix>
</trkpt>
<trkpt lat="40.0712292" lon="-105.2306461">
  <ele>1583.03</ele>
  <time>2026-08-28T17:50:23Z</time>
  <course>51.05</course>
  <speed>5.897465557339017</speed>
  <fix>3d</fix>
</trkpt>
<trkpt lat="40.0712236" lon="-105.2306549">
  <ele>1583.0</ele>
  <time>2026-08-28T17:50:23Z</time>
  <course>49.88</course>
  <speed>5.95</speed>
  <fix>3d</fix>
</trkpt>
<trkpt lat="40.071232" lon="-105.2306419">
  <ele>1583.03</ele>
  <time>2026-08-28T17:50:23Z</time>
  <course>51.03</course>
  <speed>5.897465557339017</speed>
  <fix>3d</fix>
</trkpt>
<trkpt lat="40.0712236" lon="-105.2306549">
  <ele>1583.0</ele>
  <time>2026-08-28T17:50:23Z</time>
  <course>49.88</course>
  <speed>5.95</speed>
  <fix>3d</fix>
</trkpt>
<trkpt lat="40.0712354" lon="-105.2306366">
  <ele>1583.04</ele>
  <time>2026-08-28T17:50:23Z</time>
  <course>50.98</course>
  <speed>5.903913956012571</speed>
  <fix>3d</fix>
</trkpt>
<trkpt lat="40.0712305" lon="-105.2306442">
  <ele>1583.0</ele>
  <time>2026-08-28T17:50:23Z</time>
  <course>49.8</course>
  <speed>5.96</speed>
  <fix>3d</fix>
</trkpt>
<trkpt lat="40.0712389" lon="-105.2306312">
  <ele>1583.04</ele>
  <time>2026-08-28T17:50:23Z</time>
  <course>50.95</course>
  <speed>5.903913956012571</speed>
  <fix>3d</fix>
</trkpt>
<trkpt lat="40.0712305" lon="-105.2306442">
  <ele>1583.0</ele>
  <time>2026-08-28T17:50:23Z</time>
  <course>49.8</course>
  <speed>5.96</speed>
  <fix>3d</fix>
</trkpt>
<trkpt lat="40.0712423" lon="-105.2306259">
  <ele>1583.05</ele>
  <time>2026-08-28T17:50:23Z</time>
  <course>50.93</course>
  <speed>5.911556478627266</speed>
  <fix>3d</fix>
</trkpt>
<trkpt lat="40.0712374" lon="-105.2306335">
  <ele>1583.0</ele>
  <time>2026-08-28T17:50:23Z</time>
  <course>49.73</course>
  <speed>5.97</speed>
  <fix>3d</fix>
</trkpt>
<trkpt lat="40.0712458" lon="-105.2306205">
  <ele>1583.05</ele>
  <time>2026-08-28T17:50:23Z</time>
  <course>50.88</course>
  <speed>5.918006421084722</speed>
  <fix>3d</fix>
</trkpt>
<trkpt lat="40.0712374" lon="-105.2306335">
  <ele>1583.0</ele>
  <time>2026-08-28T17:50:23Z</time>
  <course>49.73</course>
  <speed>5.97</speed>
  <fix>3d</fix>
</trkpt>
<trkpt lat="40.0712492" lon="-105.2306152">
  <ele>1583.05</ele>
  <time>2026-08-28T17:50:23Z</time>
  <course>50.87</course>
  <speed>5.918006421084722</speed>
  <fix>3d</fix>
</trkpt>
<trkpt lat="40.0712444" lon="-105.2306228">
  <ele>1583.0</ele>
  <time>2026-08-28T17:50:23Z</time>
  <course>49.68</course>
  <speed>5.97</speed>
  <fix>3d</fix>
</trkpt>
<trkpt lat="40.0712527" lon="-105.2306098">
  <ele>1583.05</ele>
  <time>2026-08-28T17:50:23Z</time>
  <course>50.85</course>
  <speed>5.9244662206818255</speed>
  <fix>3d</fix>
</trkpt>
<trkpt lat="40.0712444" lon="-105.2306228">
  <ele>1583.0</ele>
  <time>2026-08-28T17:50:23Z</time>
  <course>49.68</course>
  <speed>5.97</speed>
  <fix>3d</fix>
</trkpt>
<trkpt lat="40.0712563" lon="-105.2306044">
  <ele>1583.05</ele>
  <time>2026-08-28T17:50:23Z</time>
  <course>50.86</course>
  <speed>5.918006421084722</speed>
  <fix>3d</fix>
</trkpt>
<trkpt lat="40.0712513" lon="-105.2306121">
  <ele>1583.0</ele>
  <time>2026-08-28T17:50:23Z</time>
  <course>49.64</course>
  <speed>5.97</speed>
  <fix>3d</fix>
</trkpt>
<trkpt lat="40.0712598" lon="-105.230599">
  <ele>1583.05</ele>
  <time>2026-08-28T17:50:23Z</time>
  <course>50.86</course>
  <speed>5.910372238700368</speed>
  <fix>3d</fix>
</trkpt>
<trkpt lat="40.0712513" lon="-105.2306121">
  <ele>1583.0</ele>
  <time>2026-08-28T17:50:23Z</time>
  <course>49.64</course>
  <speed>5.97</speed>
  <fix>3d</fix>
</trkpt>
<trkpt lat="40.0712632" lon="-105.2305936">
  <ele>1583.05</ele>
  <time>2026-08-28T17:50:23Z</time>
  <course>50.86</course>
  <speed>5.8898217290508885</speed>
  <fix>3d</fix>
</trkpt>
<trkpt lat="40.0712583" lon="-105.2306014">
  <ele>1583.0</ele>
  <time>2026-08-28T17:50:23Z</time>
  <course>49.62</course>
  <speed>5.96</speed>
  <fix>3d</fix>
</trkpt>
<trkpt lat="40.0712674" lon="-105.2305872">
  <ele>1583.05</ele>
  <time>2026-08-28T17:50:23Z</time>
  <course>50.86</course>
  <speed>5.853998633412891</speed>
  <fix>3d</fix>
</trkpt>
<trkpt lat="40.0712583" lon="-105.2306014">
  <ele>1583.0</ele>
  <time>2026-08-28T17:50:23Z</time>
  <course>49.62</course>
  <speed>5.96</speed>
  <fix>3d</fix>
</trkpt>
<trkpt lat="40.0712708" lon="-105.2305819">
  <ele>1583.05</ele>
  <time>2026-08-28T17:50:23Z</time>
  <course>50.86</course>
  <speed>5.81817840908991</speed>
  <fix>3d</fix>
</trkpt>
<trkpt lat="40.0712652" lon="-105.2305909">
  <ele>1583.0</ele>
  <time>2026-08-28T17:50:23Z</time>
  <course>49.62</course>
  <speed>5.91</speed>
  <fix>3d</fix>
</trkpt>
<trkpt lat="40.0712743" lon="-105.2305767">
  <ele>1583.05</ele>
  <time>2026-08-28T17:50:23Z</time>
  <course>50.86</course>
  <speed>5.7682666373877</speed>
  <fix>3d</fix>
</trkpt>
<trkpt lat="40.0712652" lon="-105.2305909">
  <ele>1583.0</ele>
  <time>2026-08-28T17:50:23Z</time>
  <course>49.62</course>
  <speed>5.91</speed>
  <fix>3d</fix>
</trkpt>
<trkpt lat="40.0712776" lon="-105.2305715">
  <ele>1583.05</ele>
  <time>2026-08-28T17:50:23Z</time>
  <course>50.86</course>
  <speed>5.711891105404584</speed>
  <fix>3d</fix>
</trkpt>
<trkpt lat="40.0712721" lon="-105.2305803">
  <ele>1583.0</ele>
  <time>2026-08-28T17:50:23Z</time>
  <course>49.62</course>
  <speed>5.83</speed>
  <fix>3d</fix>
</trkpt>
<trkpt lat="40.071281" lon="-105.2305663">
  <ele>1583.05</ele>
  <time>2026-08-28T17:50:23Z</time>
  <course>50.86</course>
  <speed>5.633790908438118</speed>
  <fix>3d</fix>
</trkpt>
<trkpt lat="40.0712721" lon="-105.2305803">
  <ele>1583.0</ele>
  <time>2026-08-28T17:50:23Z</time>
  <course>49.62</course>
  <speed>5.83</speed>
  <fix>3d</fix>
</trkpt>
<trkpt lat="40.0712843" lon="-105.2305613">
  <ele>1583.05</ele>
  <time>2026-08-28T17:50:23Z</time>
  <course>50.86</course>
  <speed>5.548062724951836</speed>
  <fix>3d</fix>
</trkpt>
<trkpt lat="40.0712788" lon="-105.23057">
  <ele>1583.0</ele>
  <time>2026-08-28T17:50:23Z</time>
  <course>49.62</course>
  <speed>5.7</speed>
  <fix>3d</fix>
</trkpt>
<trkpt lat="40.0712875" lon="-105.2305564">
  <ele>1583.05</ele>
  <time>2026-08-28T17:50:23Z</time>
  <course>50.86</course>
  <speed>5.449403637096449</speed>
  <fix>3d</fix>
</trkpt>
<trkpt lat="40.0712788" lon="-105.23057">
  <ele>1583.0</ele>
  <time>2026-08-28T17:50:23Z</time>
  <course>49.62</course>
  <speed>5.7</speed>
  <fix>3d</fix>
</trkpt>
<trkpt lat="40.0712906" lon="-105.2305516">
  <ele>1583.05</ele>
  <time>2026-08-28T17:50:23Z</time>
  <course>50.86</course>
  <speed>5.349579422721004</speed>
  <fix>3d</fix>
</trkpt>
<trkpt lat="40.0712853" lon="-105.2305599">
  <ele>1583.0</ele>
  <time>2026-08-28T17:50:23Z</time>
  <course>49.62</course>
  <speed>5.53</speed>
  <fix>3d</fix>
</trkpt>
<trkpt lat="40.0712937" lon="-105.2305468">
  <ele>1583.04</ele>
  <time>2026-08-28T17:50:23Z</time>
  <course>50.87</course>
  <speed>5.235666146728608</speed>
  <fix>3d</fix>
</trkpt>
<trkpt lat="40.0712853" lon="-105.2305599">
  <ele>1583.0</ele>
  <time>2026-08-28T17:50:23Z</time>
  <course>49.62</course>
  <speed>5.53</speed>
  <fix>3d</fix>
</trkpt>
<trkpt lat="40.0712967" lon="-105.2305422">
  <ele>1583.04</ele>
  <time>2026-08-28T17:50:23Z</time>
  <course>50.87</course>
  <speed>5.115281028447997</speed>
  <fix>3d</fix>
</trkpt>
<trkpt lat="40.0712916" lon="-105.2305502">
  <ele>1583.0</ele>
  <time>2026-08-28T17:50:23Z</time>
  <course>49.62</course>
  <speed>5.32</speed>
  <fix>3d</fix>
</trkpt>
<trkpt lat="40.0712996" lon="-105.2305377">
  <ele>1583.04</ele>
  <time>2026-08-28T17:50:23Z</time>
  <course>50.87</course>
  <speed>4.9948973963435925</speed>
  <fix>3d</fix>
</trkpt>
<trkpt lat="40.0712916" lon="-105.2305502">
  <ele>1583.0</ele>
  <time>2026-08-28T17:50:23Z</time>
  <course>49.62</course>
  <speed>5.32</speed>
  <fix>3d</fix>
</trkpt>
<trkpt lat="40.0713019" lon="-105.2305342">
  <ele>1583.04</ele>
  <time>2026-08-28T17:50:23Z</time>
  <course>50.87</course>
  <speed>4.895079161770522</speed>
  <fix>3d</fix>
</trkpt>
<trkpt lat="40.0712977" lon="-105.2305409">
  <ele>1583.0</ele>
  <time>2026-08-28T17:50:23Z</time>
  <course>49.62</course>
  <speed>5.09</speed>
  <fix>3d</fix>
</trkpt>
<trkpt lat="40.0713048" lon="-105.2305299">
  <ele>1583.04</ele>
  <time>2026-08-28T17:50:23Z</time>
  <course>50.87</course>
  <speed>4.767074574621211</speed>
  <fix>3d</fix>
</trkpt>
<trkpt lat="40.0712977" lon="-105.2305409">
  <ele>1583.0</ele>
  <time>2026-08-28T17:50:23Z</time>
  <course>49.62</course>
  <speed>5.09</speed>
  <fix>3d</fix>
</trkpt>
<trkpt lat="40.0713075" lon="-105.2305256">
  <ele>1583.04</ele>
  <time>2026-08-28T17:50:23Z</time>
  <course>50.87</course>
  <speed>4.632591067642384</speed>
  <fix>3d</fix>
</trkpt>
<trkpt lat="40.0713035" lon="-105.230532">
  <ele>1583.0</ele>
  <time>2026-08-28T17:50:23Z</time>
  <course>49.62</course>
  <speed>4.85</speed>
  <fix>3d</fix>
</trkpt>
<trkpt lat="40.0713102" lon="-105.2305216">
  <ele>1583.04</ele>
  <time>2026-08-28T17:50:23Z</time>
  <course>50.87</course>
  <speed>4.5045865515050325</speed>
  <fix>3d</fix>
</trkpt>
<trkpt lat="40.0713035" lon="-105.230532">
  <ele>1583.0</ele>
  <time>2026-08-28T17:50:23Z</time>
  <course>49.62</course>
  <speed>4.85</speed>
  <fix>3d</fix>
</trkpt>
<trkpt lat="40.0713128" lon="-105.2305176">
  <ele>1583.04</ele>
  <time>2026-08-28T17:50:23Z</time>
  <course>50.87</course>
  <speed>4.376585427019561</speed>
  <fix>3d</fix>
</trkpt>
<trkpt lat="40.071309" lon="-105.2305235">
  <ele>1583.0</ele>
  <time>2026-08-28T17:50:23Z</time>
  <course>49.62</course>
  <speed>4.6</speed>
  <fix>3d</fix>
</trkpt>
<trkpt lat="40.0713153" lon="-105.2305137">
  <ele>1583.04</ele>
  <time>2026-08-28T17:50:23Z</time>
  <course>50.87</course>
  <speed>4.256195484232368</speed>
  <fix>3d</fix>
</trkpt>
<trkpt lat="40.071309" lon="-105.2305235">
  <ele>1583.0</ele>
  <time>2026-08-28T17:50:23Z</time>
  <course>49.62</course>
  <speed>4.6</speed>
  <fix>3d</fix>
</trkpt>
<trkpt lat="40.0713178" lon="-105.2305099">
  <ele>1583.04</ele>
  <time>2026-08-28T17:50:23Z</time>
  <course>50.87</course>
  <speed>4.128195731793734</speed>
  <fix>3d</fix>
</trkpt>
<trkpt lat="40.0713142" lon="-105.2305155">
  <ele>1583.0</ele>
  <time>2026-08-28T17:50:23Z</time>
  <course>49.62</course>
  <speed>4.34</speed>
  <fix>3d</fix>
</trkpt>
<trkpt lat="40.0713202" lon="-105.2305062">
  <ele>1583.04</ele>
  <time>2026-08-28T17:50:23Z</time>
  <course>50.87</course>
  <speed>3.993707550635124</speed>
  <fix>3d</fix>
</trkpt>
<trkpt lat="40.0713142" lon="-105.2305155">
  <ele>1583.0</ele>
  <time>2026-08-28T17:50:23Z</time>
  <course>49.62</course>
  <speed>4.34</speed>
  <fix>3d</fix>
</trkpt>
<trkpt lat="40.0713225" lon="-105.2305027">
  <ele>1583.04</ele>
  <time>2026-08-28T17:50:23Z</time>
  <course>50.87</course>
  <speed>3.865708214544911</speed>
  <fix>3d</fix>
</trkpt>
<trkpt lat="40.0713191" lon="-105.230508">
  <ele>1583.0</ele>
  <time>2026-08-28T17:50:23Z</time>
  <course>49.62</course>
  <speed>4.09</speed>
  <fix>3d</fix>
</trkpt>
<trkpt lat="40.0713252" lon="-105.2304985">
  <ele>1583.04</ele>
  <time>2026-08-28T17:50:23Z</time>
  <course>50.87</course>
  <speed>3.723613836046912</speed>
  <fix>3d</fix>
</trkpt>
<trkpt lat="40.0713191" lon="-105.230508">
  <ele>1583.0</ele>
  <time>2026-08-28T17:50:23Z</time>
  <course>49.62</course>
  <speed>4.09</speed>
  <fix>3d</fix>
</trkpt>
<trkpt lat="40.0713274" lon="-105.2304952">
  <ele>1583.05</ele>
  <time>2026-08-28T17:50:23Z</time>
  <course>50.87</course>
  <speed>3.6032207814676025</speed>
  <fix>3d</fix>
</trkpt>
<trkpt lat="40.0713237" lon="-105.2305009">
  <ele>1583.0</ele>
  <time>2026-08-28T17:50:23Z</time>
  <course>49.62</course>
  <speed>3.84</speed>
  <fix>3d</fix>
</trkpt>
<trkpt lat="40.0713295" lon="-105.230492">
  <ele>1583.05</ele>
  <time>2026-08-28T17:50:23Z</time>
  <course>50.87</course>
  <speed>3.4828293096274474</speed>
  <fix>3d</fix>
</trkpt>
<trkpt lat="40.0713237" lon="-105.2305009">
  <ele>1583.0</ele>
  <time>2026-08-28T17:50:23Z</time>
  <course>49.62</course>
  <speed>3.84</speed>
  <fix>3d</fix>
</trkpt>
<trkpt lat="40.0713315" lon="-105.230489">
  <ele>1583.04</ele>
  <time>2026-08-28T17:50:24Z</time>
  <course>50.86</course>
  <speed>3.368931581377099</speed>
  <fix>3d</fix>
</trkpt>
<trkpt lat="40.0713281" lon="-105.2304942">
  <ele>1583.0</ele>
  <time>2026-08-28T17:50:24Z</time>
  <course>49.62</course>
  <speed>3.6</speed>
  <fix>3d</fix>
</trkpt>
<trkpt lat="40.0713335" lon="-105.230486">
  <ele>1583.04</ele>
  <time>2026-08-28T17:50:24Z</time>
  <course>50.86</course>
  <speed>3.248538132760642</speed>
  <fix>3d</fix>
</trkpt>
<trkpt lat="40.0713281" lon="-105.2304942">
  <ele>1583.0</ele>
  <time>2026-08-28T17:50:24Z</time>
  <course>49.62</course>
  <speed>3.6</speed>
  <fix>3d</fix>
</trkpt>
<trkpt lat="40.0713353" lon="-105.2304831">
  <ele>1583.04</ele>
  <time>2026-08-28T17:50:24Z</time>
  <course>50.86</course>
  <speed>3.134645115479582</speed>
  <fix>3d</fix>
</trkpt>
<trkpt lat="40.0713321" lon="-105.230488">
  <ele>1583.0</ele>
  <time>2026-08-28T17:50:24Z</time>
  <course>49.62</course>
  <speed>3.37</speed>
  <fix>3d</fix>
</trkpt>
<trkpt lat="40.0713371" lon="-105.2304803">
  <ele>1583.04</ele>
  <time>2026-08-28T17:50:24Z</time>
  <course>50.86</course>
  <speed>3.0283493853913224</speed>
  <fix>3d</fix>
</trkpt>
<trkpt lat="40.0713321" lon="-105.230488">
  <ele>1583.0</ele>
  <time>2026-08-28T17:50:24Z</time>
  <course>49.62</course>
  <speed>3.37</speed>
  <fix>3d</fix>
</trkpt>
<trkpt lat="40.0713389" lon="-105.2304777">
  <ele>1583.03</ele>
  <time>2026-08-28T17:50:24Z</time>
  <course>50.94</course>
  <speed>2.91556169545424</speed>
  <fix>3d</fix>
</trkpt>
<trkpt lat="40.0713359" lon="-105.2304822">
  <ele>1583.0</ele>
  <time>2026-08-28T17:50:24Z</time>
  <course>49.63</course>
  <speed>3.14</speed>
  <fix>3d</fix>
</trkpt>
<trkpt lat="40.0713405" lon="-105.2304751">
  <ele>1583.03</ele>
  <time>2026-08-28T17:50:24Z</time>
  <course>51.22</course>
  <speed>2.8028021692584724</speed>
  <fix>3d</fix>
</trkpt>
<trkpt lat="40.0713359" lon="-105.2304822">
  <ele>1583.0</ele>
  <time>2026-08-28T17:50:24Z</time>
  <course>49.63</course>
  <speed>3.14</speed>
  <fix>3d</fix>
</trkpt>
<trkpt lat="40.0713421" lon="-105.2304726">
  <ele>1583.02</ele>
  <time>2026-08-28T17:50:24Z</time>
  <course>51.69</course>
  <speed>2.6990368652539742</speed>
  <fix>3d</fix>
</trkpt>
<trkpt lat="40.0713394" lon="-105.2304767">
  <ele>1583.0</ele>
  <time>2026-08-28T17:50:24Z</time>
  <course>49.93</course>
  <speed>2.93</speed>
  <fix>3d</fix>
</trkpt>
<trkpt lat="40.0713436" lon="-105.2304702">
  <ele>1583.02</ele>
  <time>2026-08-28T17:50:24Z</time>
  <course>52.38</course>
  <speed>2.595630944491146</speed>
  <fix>3d</fix>
</trkpt>
<trkpt lat="40.0713394" lon="-105.2304767">
  <ele>1583.0</ele>
  <time>2026-08-28T17:50:24Z</time>
  <course>49.93</course>
  <speed>2.93</speed>
  <fix>3d</fix>
</trkpt>
<trkpt lat="40.0713451" lon="-105.2304678">
  <ele>1583.01</ele>
  <time>2026-08-28T17:50:24Z</time>
  <course>53.31</course>
  <speed>2.5004999500099974</speed>
  <fix>3d</fix>
</trkpt>
<trkpt lat="40.0713427" lon="-105.2304715">
  <ele>1583.0</ele>
  <time>2026-08-28T17:50:24Z</time>
  <course>50.94</course>
  <speed>2.72</speed>
  <fix>3d</fix>
</trkpt>
<trkpt lat="40.0713461" lon="-105.230466">
  <ele>1583.01</ele>
  <time>2026-08-28T17:50:24Z</time>
  <course>54.23</course>
  <speed>2.4280032948906802</speed>
  <fix>3d</fix>
</trkpt>
<trkpt lat="40.0713427" lon="-105.2304715">
  <ele>1583.0</ele>
  <time>2026-08-28T17:50:24Z</time>
  <course>50.94</course>
  <speed>2.72</speed>
  <fix>3d</fix>
</trkpt>
<trkpt lat="40.0713474" lon="-105.2304637">
  <ele>1583.01</ele>
  <time>2026-08-28T17:50:24Z</time>
  <course>55.6</course>
  <speed>2.336578695443404</speed>
  <fix>3d</fix>
</trkpt>
<trkpt lat="40.0713456" lon="-105.2304667">
  <ele>1583.0</ele>
  <time>2026-08-28T17:50:24Z</time>
  <course>52.84</course>
  <speed>2.53</speed>
  <fix>3d</fix>
</trkpt>
<trkpt lat="40.0713486" lon="-105.2304614">
  <ele>1583.01</ele>
  <time>2026-08-28T17:50:24Z</time>
  <course>57.25</course>
  <speed>2.263183598385248</speed>
  <fix>3d</fix>
</trkpt>
<trkpt lat="40.0713456" lon="-105.2304667">
  <ele>1583.0</ele>
  <time>2026-08-28T17:50:24Z</time>
  <course>52.84</course>
  <speed>2.53</speed>
  <fix>3d</fix>
</trkpt>
<trkpt lat="40.0713497" lon="-105.2304592">
  <ele>1583.01</ele>
  <time>2026-08-28T17:50:24Z</time>
  <course>59.16</course>
  <speed>2.1868013169924696</speed>
  <fix>3d</fix>
</trkpt>
<trkpt lat="40.0713481" lon="-105.230462">
  <ele>1583.0</ele>
  <time>2026-08-28T17:50:24Z</time>
  <course>55.77</course>
  <speed>2.37</speed>
  <fix>3d</fix>
</trkpt>
<trkpt lat="40.0713507" lon="-105.2304569">
  <ele>1583.01</ele>
  <time>2026-08-28T17:50:24Z</time>
  <course>61.36</course>
  <speed>2.122286502807762</speed>
  <fix>3d</fix>
</trkpt>
<trkpt lat="40.0713481" lon="-105.230462">
  <ele>1583.0</ele>
  <time>2026-08-28T17:50:24Z</time>
  <course>55.77</course>
  <speed>2.37</speed>
  <fix>3d</fix>
</trkpt>
<trkpt lat="40.0713516" lon="-105.2304547">
  <ele>1583.01</ele>
  <time>2026-08-28T17:50:24Z</time>
  <course>63.73</course>
  <speed>2.061674077054858</speed>
  <fix>3d</fix>
</trkpt>
<trkpt lat="40.0713504" lon="-105.2304575">
  <ele>1583.0</ele>
  <time>2026-08-28T17:50:24Z</time>
  <course>59.76</course>
  <speed>2.22</speed>
  <fix>3d</fix>
</trkpt>
<trkpt lat="40.0713524" lon="-105.2304524">
  <ele>1583.01</ele>
  <time>2026-08-28T17:50:24Z</time>
  <course>66.16</course>
  <speed>2.0144478151592806</speed>
  <fix>3d</fix>
</trkpt>
<trkpt lat="40.0713504" lon="-105.2304575">
  <ele>1583.0</ele>
  <time>2026-08-28T17:50:24Z</time>
  <course>59.76</course>
  <speed>2.22</speed>
  <fix>3d</fix>
</trkpt>
<trkpt lat="40.0713531" lon="-105.2304502">
  <ele>1583.01</ele>
  <time>2026-08-28T17:50:24Z</time>
  <course>68.69</course>
  <speed>1.9758542456365549</speed>
  <fix>3d</fix>
</trkpt>
<trkpt lat="40.0713522" lon="-105.230453">
  <ele>1583.0</ele>
  <time>2026-08-28T17:50:24Z</time>
  <course>64.49</course>
  <speed>2.11</speed>
  <fix>3d</fix>
</trkpt>
<trkpt lat="40.0713537" lon="-105.2304479">
  <ele>1583.01</ele>
  <time>2026-08-28T17:50:24Z</time>
  <course>71.24</course>
  <speed>1.94164878389476</speed>
  <fix>3d</fix>
</trkpt>
<trkpt lat="40.0713522" lon="-105.230453">
  <ele>1583.0</ele>
  <time>2026-08-28T17:50:24Z</time>
  <course>64.49</course>
  <speed>2.11</speed>
  <fix>3d</fix>
</trkpt>
<trkpt lat="40.0713544" lon="-105.2304452">
  <ele>1583.0</ele>
  <time>2026-08-28T17:50:24Z</time>
  <course>74.37</course>
  <speed>1.91637678967368</speed>
  <fix>3d</fix>
</trkpt>
<trkpt lat="40.0713536" lon="-105.2304485">
  <ele>1583.0</ele>
  <time>2026-08-28T17:50:24Z</time>
  <course>69.54</course>
  <speed>2.03</speed>
  <fix>3d</fix>
</trkpt>
<trkpt lat="40.0713548" lon="-105.230443">
  <ele>1583.0</ele>
  <time>2026-08-28T17:50:24Z</time>
  <course>77.01</course>
  <speed>1.9046521992216847</speed>
  <fix>3d</fix>
</trkpt>
<trkpt lat="40.0713536" lon="-105.2304485">
  <ele>1583.0</ele>
  <time>2026-08-28T17:50:24Z</time>
  <course>69.54</course>
  <speed>2.03</speed>
  <fix>3d</fix>
</trkpt>
<trkpt lat="40.0713552" lon="-105.2304407">
  <ele>1582.99</ele>
  <time>2026-08-28T17:50:24Z</time>
  <course>79.66</course>
  <speed>1.895521036549054</speed>
  <fix>3d</fix>
</trkpt>
<trkpt lat="40.0713547" lon="-105.230444">
  <ele>1583.0</ele>
  <time>2026-08-28T17:50:24Z</time>
  <course>74.78</course>
  <speed>1.98</speed>
  <fix>3d</fix>
</trkpt>
<trkpt lat="40.0713554" lon="-105.2304384">
  <ele>1582.99</ele>
  <time>2026-08-28T17:50:24Z</time>
  <course>82.32</course>
  <speed>1.892828571212935</speed>
  <fix>3d</fix>
</trkpt>
<trkpt lat="40.0713547" lon="-105.230444">
  <ele>1583.0</ele>
  <time>2026-08-28T17:50:24Z</time>
  <course>74.78</course>
  <speed>1.98</speed>
  <fix>3d</fix>
</trkpt>
<trkpt lat="40.0713556" lon="-105.2304361">
  <ele>1582.99</ele>
  <time>2026-08-28T17:50:24Z</time>
  <course>84.97</course>
  <speed>1.9044421755464251</speed>
  <fix>3d</fix>
</trkpt>
<trkpt lat="40.0713556" lon="-105.2304395">
  <ele>1583.0</ele>
  <time>2026-08-28T17:50:24Z</time>
  <course>80.12</course>
  <speed>1.96</speed>
  <fix>3d</fix>
</trkpt>
<trkpt lat="40.0713557" lon="-105.2304338">
  <ele>1582.98</ele>
  <time>2026-08-28T17:50:24Z</time>
  <course>87.62</course>
  <speed>1.9102355875650523</speed>
  <fix>3d</fix>
</trkpt>
<trkpt lat="40.0713556" lon="-105.2304395">
  <ele>1583.0</ele>
  <time>2026-08-28T17:50:24Z</time>
  <course>80.12</course>
  <speed>1.96</speed>
  <fix>3d</fix>
</trkpt>
<trkpt lat="40.0713557" lon="-105.2304315">
  <ele>1582.98</ele>
  <time>2026-08-28T17:50:24Z</time>
  <course>90.23</course>
  <speed>1.9306475597581243</speed>
  <fix>3d</fix>
</trkpt>
<trkpt lat="40.071356" lon="-105.2304349">
  <ele>1583.0</ele>
  <time>2026-08-28T17:50:24Z</time>
  <course>85.46</course>
  <speed>1.97</speed>
  <fix>3d</fix>
</trkpt>
<trkpt lat="40.0713557" lon="-105.2304291">
  <ele>1582.98</ele>
  <time>2026-08-28T17:50:24Z</time>
  <course>92.82</course>
  <speed>1.955019181491578</speed>
  <fix>3d</fix>
</trkpt>
<trkpt lat="40.071356" lon="-105.2304349">
  <ele>1583.0</ele>
  <time>2026-08-28T17:50:24Z</time>
  <course>85.46</course>
  <speed>1.97</speed>
  <fix>3d</fix>
</trkpt>
<trkpt lat="40.0713556" lon="-105.2304268">
  <ele>1582.98</ele>
  <time>2026-08-28T17:50:24Z</time>
  <course>95.35</course>
  <speed>1.9833809518093088</speed>
  <fix>3d</fix>
</trkpt>
<trkpt lat="40.0713561" lon="-105.2304303">
  <ele>1583.0</ele>
  <time>2026-08-28T17:50:24Z</time>
  <course>90.71</course>
  <speed>1.99</speed>
  <fix>3d</fix>
</trkpt>
<trkpt lat="40.0713554" lon="-105.2304244">
  <ele>1582.98</ele>
  <time>2026-08-28T17:50:24Z</time>
  <course>97.85</course>
  <speed>2.025438224187546</speed>
  <fix>3d</fix>
</trkpt>
<trkpt lat="40.0713561" lon="-105.2304303">
  <ele>1583.0</ele>
  <time>2026-08-28T17:50:24Z</time>
  <course>90.71</course>
  <speed>1.99</speed>
  <fix>3d</fix>
</trkpt>
<trkpt lat="40.0713551" lon="-105.230422">
  <ele>1582.98</ele>
  <time>2026-08-28T17:50:24Z</time>
  <course>100.28</course>
  <speed>2.0632013958894073</speed>
  <fix>3d</fix>
</trkpt>
<trkpt lat="40.0713559" lon="-105.2304255">
  <ele>1583.0</ele>
  <time>2026-08-28T17:50:24Z</time>
  <course>95.8</course>
  <speed>2.04</speed>
  <fix>3d</fix>
</trkpt>
<trkpt lat="40.0713548" lon="-105.23042">
  <ele>1582.98</ele>
  <time>2026-08-28T17:50:24Z</time>
  <course>102.2</course>
  <speed>2.098022878807569</speed>
  <fix>3d</fix>
</trkpt>
<trkpt lat="40.0713559" lon="-105.2304255">
  <ele>1583.0</ele>
  <time>2026-08-28T17:50:24Z</time>
  <course>95.8</course>
  <speed>2.04</speed>
  <fix>3d</fix>
</trkpt>
<trkpt lat="40.0713544" lon="-105.2304175">
  <ele>1582.98</ele>
  <time>2026-08-28T17:50:24Z</time>
  <course>104.52</course>
  <speed>2.1428252378577213</speed>
  <fix>3d</fix>
</trkpt>
<trkpt lat="40.0713554" lon="-105.2304207">
  <ele>1583.0</ele>
  <time>2026-08-28T17:50:24Z</time>
  <course>100.67</course>
  <speed>2.11</speed>
  <fix>3d</fix>
</trkpt>
<trkpt lat="40.0713539" lon="-105.230415">
  <ele>1582.98</ele>
  <time>2026-08-28T17:50:24Z</time>
  <course>106.77</course>
  <speed>2.1978398485785995</speed>
  <fix>3d</fix>
</trkpt>
<trkpt lat="40.0713554" lon="-105.2304207">
  <ele>1583.0</ele>
  <time>2026-08-28T17:50:24Z</time>
  <course>100.67</course>
  <speed>2.11</speed>
  <fix>3d</fix>
</trkpt>
<trkpt lat="40.0713533" lon="-105.2304125">
  <ele>1582.97</ele>
  <time>2026-08-28T17:50:24Z</time>
  <course>108.89</course>
  <speed>2.258937803481982</speed>
  <fix>3d</fix>
</trkpt>
<trkpt lat="40.0713546" lon="-105.2304158">
  <ele>1583.0</ele>
  <time>2026-08-28T17:50:24Z</time>
  <course>105.27</course>
  <speed>2.2</speed>
  <fix>3d</fix>
</trkpt>
<trkpt lat="40.0713526" lon="-105.2304099">
  <ele>1582.97</ele>
  <time>2026-08-28T17:50:24Z</time>
  <course>110.78</course>
  <speed>2.3193533581582604</speed>
  <fix>3d</fix>
</trkpt>
<trkpt lat="40.0713546" lon="-105.2304158">
  <ele>1583.0</ele>
  <time>2026-08-28T17:50:24Z</time>
  <course>105.27</course>
  <speed>2.2</speed>
  <fix>3d</fix>
</trkpt>
<trkpt lat="40.0713518" lon="-105.2304073">
  <ele>1582.97</ele>
  <time>2026-08-28T17:50:24Z</time>
  <course>112.41</course>
  <speed>2.378003364169193</speed>
  <fix>3d</fix>
</trkpt>
<trkpt lat="40.0713534" lon="-105.2304107">
  <ele>1583.0</ele>
  <time>2026-08-28T17:50:24Z</time>
  <course>109.31</course>
  <speed>2.31</speed>
  <fix>3d</fix>
</trkpt>
<trkpt lat="40.071351" lon="-105.2304047">
  <ele>1582.97</ele>
  <time>2026-08-28T17:50:24Z</time>
  <course>113.81</course>
  <speed>2.447304639802736</speed>
  <fix>3d</fix>
</trkpt>
<trkpt lat="40.0713534" lon="-105.2304107">
  <ele>1583.0</ele>
  <time>2026-08-28T17:50:24Z</time>
  <course>109.31</course>
  <speed>2.31</speed>
  <fix>3d</fix>
</trkpt>
<trkpt lat="40.07135" lon="-105.230402">
  <ele>1582.97</ele>
  <time>2026-08-28T17:50:24Z</time>
  <course>115.0</course>
  <speed>2.504495957273639</speed>
  <fix>3d</fix>
</trkpt>
<trkpt lat="40.0713518" lon="-105.2304055">
  <ele>1583.0</ele>
  <time>2026-08-28T17:50:24Z</time>
  <course>112.47</course>
  <speed>2.42</speed>
  <fix>3d</fix>
</trkpt>
<trkpt lat="40.0713491" lon="-105.2303992">
  <ele>1582.97</ele>
  <time>2026-08-28T17:50:24Z</time>
  <course>116.01</course>
  <speed>2.567041098229633</speed>
  <fix>3d</fix>
</trkpt>
<trkpt lat="40.0713518" lon="-105.2304055">
  <ele>1583.0</ele>
  <time>2026-08-28T17:50:24Z</time>
  <course>112.47</course>
  <speed>2.42</speed>
  <fix>3d</fix>
</trkpt>
<trkpt lat="40.071348" lon="-105.2303964">
  <ele>1582.97</ele>
  <time>2026-08-28T17:50:24Z</time>
  <course>116.81</course>
  <speed>2.6300760445279905</speed>
  <fix>3d</fix>
</trkpt>
<trkpt lat="40.07135" lon="-105.2304001">
  <ele>1583.0</ele>
  <time>2026-08-28T17:50:24Z</time>
  <course>114.75</course>
  <speed>2.54</speed>
  <fix>3d</fix>
</trkpt>
<trkpt lat="40.0713467" lon="-105.230393">
  <ele>1582.97</ele>
  <time>2026-08-28T17:50:24Z</time>
  <course>117.55</course>
  <speed>2.6935664090569587</speed>
  <fix>3d</fix>
</trkpt>
<trkpt lat="40.07135" lon="-105.2304001">
  <ele>1583.0</ele>
  <time>2026-08-28T17:50:24Z</time>
  <course>114.75</course>
  <speed>2.54</speed>
  <fix>3d</fix>
</trkpt>
<trkpt lat="40.0713456" lon="-105.2303901">
  <ele>1582.97</ele>
  <time>2026-08-28T17:50:24Z</time>
  <course>117.96</course>
  <speed>2.7478173156161603</speed>
  <fix>3d</fix>
</trkpt>
<trkpt lat="40.071348" lon="-105.2303947">
  <ele>1583.0</ele>
  <time>2026-08-28T17:50:24Z</time>
  <course>116.28</course>
  <speed>2.65</speed>
  <fix>3d</fix>
</trkpt>
<trkpt lat="40.0713445" lon="-105.2303872">
  <ele>1582.97</ele>
  <time>2026-08-28T17:50:24Z</time>
  <course>118.21</course>
  <speed>2.7837384934652176</speed>
  <fix>3d</fix>
</trkpt>
<trkpt lat="40.071348" lon="-105.2303947">
  <ele>1583.0</ele>
  <time>2026-08-28T17:50:24Z</time>
  <course>116.28</course>
  <speed>2.65</speed>
  <fix>3d</fix>
</trkpt>
<trkpt lat="40.0713433" lon="-105.2303843">
  <ele>1582.97</ele>
  <time>2026-08-28T17:50:24Z</time>
  <course>118.29</course>
  <speed>2.8196631004430297</speed>
  <fix>3d</fix>
</trkpt>
<trkpt lat="40.0713459" lon="-105.230389">
  <ele>1583.0</ele>
  <time>2026-08-28T17:50:24Z</time>
  <course>117.1</course>
  <speed>2.74</speed>
  <fix>3d</fix>
</trkpt>
<trkpt lat="40.0713421" lon="-105.2303813">
  <ele>1582.97</ele>
  <time>2026-08-28T17:50:24Z</time>
  <course>118.35</course>
  <speed>2.8555910071296973</speed>
  <fix>3d</fix>
</trkpt>
<trkpt lat="40.0713459" lon="-105.230389">
  <ele>1583.0</ele>
  <time>2026-08-28T17:50:24Z</time>
  <course>117.1</course>
  <speed>2.74</speed>
  <fix>3d</fix>
</trkpt>
<trkpt lat="40.0713409" lon="-105.2303783">
  <ele>1582.97</ele>
  <time>2026-08-28T17:50:24Z</time>
  <course>118.42</course>
  <speed>2.877933286231632</speed>
  <fix>3d</fix>
</trkpt>
<trkpt lat="40.0713436" lon="-105.2303832">
  <ele>1583.0</ele>
  <time>2026-08-28T17:50:24Z</time>
  <course>117.4</course>
  <speed>2.8</speed>
  <fix>3d</fix>
</trkpt>
<trkpt lat="40.0713398" lon="-105.2303753">
  <ele>1582.97</ele>
  <time>2026-08-28T17:50:24Z</time>
  <course>118.48</course>
  <speed>2.886693610343848</speed>
  <fix>3d</fix>
</trkpt>
<trkpt lat="40.0713436" lon="-105.2303832">
  <ele>1583.0</ele>
  <time>2026-08-28T17:50:24Z</time>
  <course>117.4</course>
  <speed>2.8</speed>
  <fix>3d</fix>
</trkpt>
<trkpt lat="40.0713386" lon="-105.2303724">
  <ele>1582.98</ele>
  <time>2026-08-28T17:50:24Z</time>
  <course>118.55</course>
  <speed>2.886693610343848</speed>
  <fix>3d</fix>
</trkpt>
<trkpt lat="40.0713412" lon="-105.2303773">
  <ele>1583.0</ele>
  <time>2026-08-28T17:50:24Z</time>
  <course>117.55</course>
  <speed>2.84</speed>
  <fix>3d</fix>
</trkpt>
<trkpt lat="40.0713374" lon="-105.2303694">
  <ele>1582.98</ele>
  <time>2026-08-28T17:50:24Z</time>
  <course>118.62</course>
  <speed>2.877933286231632</speed>
  <fix>3d</fix>
</trkpt>
<trkpt lat="40.0713412" lon="-105.2303773">
  <ele>1583.0</ele>
  <time>2026-08-28T17:50:24Z</time>
  <course>117.55</course>
  <speed>2.84</speed>
  <fix>3d</fix>
</trkpt>
<trkpt lat="40.0713363" lon="-105.2303665">
  <ele>1582.97</ele>
  <time>2026-08-28T17:50:24Z</time>
  <course>118.69</course>
  <speed>2.8555910071296973</speed>
  <fix>3d</fix>
</trkpt>
<trkpt lat="40.0713389" lon="-105.2303714">
  <ele>1583.0</ele>
  <time>2026-08-28T17:50:24Z</time>
  <course>117.7</course>
  <speed>2.84</speed>
  <fix>3d</fix>
</trkpt>
<trkpt lat="40.0713351" lon="-105.2303635">
  <ele>1582.97</ele>
  <time>2026-08-28T17:50:24Z</time>
  <course>118.75</course>
  <speed>2.8284271247461903</speed>
  <fix>3d</fix>
</trkpt>
<trkpt lat="40.0713389" lon="-105.2303714">
  <ele>1583.0</ele>
  <time>2026-08-28T17:50:24Z</time>
  <course>117.7</course>
  <speed>2.84</speed>
  <fix>3d</fix>
</trkpt>
<trkpt lat="40.0713342" lon="-105.2303612">
  <ele>1582.97</ele>
  <time>2026-08-28T17:50:24Z</time>
  <course>118.84</course>
  <speed>2.797320146139873</speed>
  <fix>3d</fix>
</trkpt>
<trkpt lat="40.0713365" lon="-105.2303655">
  <ele>1583.0</ele>
  <time>2026-08-28T17:50:24Z</time>
  <course>117.86</course>
  <speed>2.8</speed>
  <fix>3d</fix>
</trkpt>
<trkpt lat="40.0713331" lon="-105.2303584">
  <ele>1582.97</ele>
  <time>2026-08-28T17:50:24Z</time>
  <course>118.94</course>
  <speed>2.7438841083398544</speed>
  <fix>3d</fix>
</trkpt>
<trkpt lat="40.0713365" lon="-105.2303655">
  <ele>1583.0</ele>
  <time>2026-08-28T17:50:24Z</time>
  <course>117.86</course>
  <speed>2.8</speed>
  <fix>3d</fix>
</trkpt>
<trkpt lat="40.0713319" lon="-105.2303556">
  <ele>1582.97</ele>
  <time>2026-08-28T17:50:24Z</time>
  <course>119.04</course>
  <speed>2.67686383665662</speed>
  <fix>3d</fix>
</trkpt>
<trkpt lat="40.0713341" lon="-105.2303598">
  <ele>1583.0</ele>
  <time>2026-08-28T17:50:24Z</time>
  <course>118.06</course>
  <speed>2.71</speed>
  <fix>3d</fix>
</trkpt>
<trkpt lat="40.0713309" lon="-105.2303529">
  <ele>1582.97</ele>
  <time>2026-08-28T17:50:24Z</time>
  <course>119.15</course>
  <speed>2.596247291765559</speed>
  <fix>3d</fix>
</trkpt>
<trkpt lat="40.0713341" lon="-105.2303598">
  <ele>1583.0</ele>
  <time>2026-08-28T17:50:24Z</time>
  <course>118.06</course>
  <speed>2.71</speed>
  <fix>3d</fix>
</trkpt>
<trkpt lat="40.0713298" lon="-105.2303502">
  <ele>1582.97</ele>
  <time>2026-08-28T17:50:24Z</time>
  <course>119.28</course>
  <speed>2.5068905041904004</speed>
  <fix>3d</fix>
</trkpt>
<trkpt lat="40.0713318" lon="-105.2303542">
  <ele>1583.0</ele>
  <time>2026-08-28T17:50:24Z</time>
  <course>118.3</course>
  <speed>2.58</speed>
  <fix>3d</fix>
</trkpt>
<trkpt lat="40.0713288" lon="-105.2303477">
  <ele>1582.97</ele>
  <time>2026-08-28T17:50:24Z</time>
  <course>119.41</course>
  <speed>2.403934275307875</speed>
  <fix>3d</fix>
</trkpt>
<trkpt lat="40.0713318" lon="-105.2303542">
  <ele>1583.0</ele>
  <time>2026-08-28T17:50:24Z</time>
  <course>118.3</course>
  <speed>2.58</speed>
  <fix>3d</fix>
</trkpt>
<trkpt lat="40.0713278" lon="-105.2303453">
  <ele>1582.97</ele>
  <time>2026-08-28T17:50:24Z</time>
  <course>119.56</course>
  <speed>2.3009780529157595</speed>
  <fix>3d</fix>
</trkpt>
<trkpt lat="40.0713298" lon="-105.2303491">
  <ele>1583.0</ele>
  <time>2026-08-28T17:50:24Z</time>
  <course>118.57</course>
  <speed>2.4</speed>
  <fix>3d</fix>
</trkpt>
<trkpt lat="40.0713268" lon="-105.230343">
  <ele>1582.97</ele>
  <time>2026-08-28T17:50:24Z</time>
  <course>119.72</course>
  <speed>2.180573319106698</speed>
  <fix>3d</fix>
</trkpt>
<trkpt lat="40.0713298" lon="-105.2303491">
  <ele>1583.0</ele>
  <time>2026-08-28T17:50:24Z</time>
  <course>118.57</course>
  <speed>2.4</speed>
  <fix>3d</fix>
</trkpt>
<trkpt lat="40.0713259" lon="-105.2303408">
  <ele>1582.97</ele>
  <time>2026-08-28T17:50:24Z</time>
  <course>119.89</course>
  <speed>2.055285868194495</speed>
  <fix>3d</fix>
</trkpt>
<trkpt lat="40.0713278" lon="-105.2303444">
  <ele>1583.0</ele>
  <time>2026-08-28T17:50:24Z</time>
  <course>118.88</course>
  <speed>2.18</speed>
  <fix>3d</fix>
</trkpt>
<trkpt lat="40.0713251" lon="-105.2303388">
  <ele>1582.98</ele>
  <time>2026-08-28T17:50:24Z</time>
  <course>120.09</course>
  <speed>1.93</speed>
  <fix>3d</fix>
</trkpt>
<trkpt lat="40.0713278" lon="-105.2303444">
  <ele>1583.0</ele>
  <time>2026-08-28T17:50:24Z</time>
  <course>118.88</course>
  <speed>2.18</speed>
  <fix>3d</fix>
</trkpt>
<trkpt lat="40.0713242" lon="-105.2303366">
  <ele>1582.98</ele>
  <time>2026-08-28T17:50:24Z</time>
  <course>120.35</course>
  <speed>1.7736967046256809</speed>
  <fix>3d</fix>
</trkpt>
<trkpt lat="40.071326" lon="-105.2303402">
  <ele>1583.0</ele>
  <time>2026-08-28T17:50:24Z</time>
  <course>119.26</course>
  <speed>1.94</speed>
  <fix>3d</fix>
</trkpt>
<trkpt lat="40.0713235" lon="-105.2303349">
  <ele>1582.98</ele>
  <time>2026-08-28T17:50:24Z</time>
  <course>120.59</course>
  <speed>1.6397560794215706</speed>
  <fix>3d</fix>
</trkpt>
<trkpt lat="40.071326" lon="-105.2303402">
  <ele>1583.0</ele>
  <time>2026-08-28T17:50:24Z</time>
  <course>119.26</course>
  <speed>1.94</speed>
  <fix>3d</fix>
</trkpt>
<trkpt lat="40.0713228" lon="-105.2303333">
  <ele>1582.99</ele>
  <time>2026-08-28T17:50:24Z</time>
  <course>120.87</course>
  <speed>1.5008331019803633</speed>
  <fix>3d</fix>
</trkpt>
<trkpt lat="40.0713244" lon="-105.2303364">
  <ele>1583.0</ele>
  <time>2026-08-28T17:50:24Z</time>
  <course>119.72</course>
  <speed>1.68</speed>
  <fix>3d</fix>
</trkpt>
<trkpt lat="40.0713222" lon="-105.2303319">
  <ele>1582.99</ele>
  <time>2026-08-28T17:50:24Z</time>
  <course>121.19</course>
  <speed>1.3583077707206124</speed>
  <fix>3d</fix>
</trkpt>
<trkpt lat="40.0713244" lon="-105.2303364">
  <ele>1583.0</ele>
  <time>2026-08-28T17:50:24Z</time>
  <course>119.72</course>
  <speed>1.68</speed>
  <fix>3d</fix>
</trkpt>
<trkpt lat="40.0713217" lon="-105.2303306">
  <ele>1583.0</ele>
  <time>2026-08-28T17:50:24Z</time>
  <course>121.55</course>
  <speed>1.2193850909372315</speed>
  <fix>3d</fix>
</trkpt>
<trkpt lat="40.071323" lon="-105.2303333">
  <ele>1583.0</ele>
  <time>2026-08-28T17:50:24Z</time>
  <course>120.29</course>
  <speed>1.41</speed>
  <fix>3d</fix>
</trkpt>
<trkpt lat="40.0713212" lon="-105.2303295">
  <ele>1583.0</ele>
  <time>2026-08-28T17:50:24Z</time>
  <course>121.98</course>
  <speed>1.0855873986004074</speed>
  <fix>3d</fix>
</trkpt>
<trkpt lat="40.071323" lon="-105.2303333">
  <ele>1583.0</ele>
  <time>2026-08-28T17:50:24Z</time>
  <course>120.29</course>
  <speed>1.41</speed>
  <fix>3d</fix>
</trkpt>
<trkpt lat="40.0713207" lon="-105.2303285">
  <ele>1583.01</ele>
  <time>2026-08-28T17:50:24Z</time>
  <course>122.45</course>
  <speed>0.9466784036831093</speed>
  <fix>3d</fix>
</trkpt>
<trkpt lat="40.0713218" lon="-105.2303307">
  <ele>1583.0</ele>
  <time>2026-08-28T17:50:24Z</time>
  <course>121.04</course>
  <speed>1.14</speed>
  <fix>3d</fix>
</trkpt>
<trkpt lat="40.0713204" lon="-105.2303277">
  <ele>1583.01</ele>
  <time>2026-08-28T17:50:24Z</time>
  <course>122.92</course>
  <speed>0.816333265278342</speed>
  <fix>3d</fix>
</trkpt>
<trkpt lat="40.0713218" lon="-105.2303307">
  <ele>1583.0</ele>
  <time>2026-08-28T17:50:24Z</time>
  <course>121.04</course>
  <speed>1.14</speed>
  <fix>3d</fix>
</trkpt>
<trkpt lat="40.07132" lon="-105.230327">
  <ele>1583.0</ele>
  <time>2026-08-28T17:50:24Z</time>
  <course>123.36</course>
  <speed>0.6826419266350405</speed>
  <fix>3d</fix>
</trkpt>
<trkpt lat="40.0713209" lon="-105.2303287">
  <ele>1583.0</ele>
  <time>2026-08-28T17:50:24Z</time>
  <course>121.93</course>
  <speed>0.88</speed>
  <fix>3d</fix>
</trkpt>
<trkpt lat="40.0713198" lon="-105.2303264">
  <ele>1583.0</ele>
  <time>2026-08-28T17:50:24Z</time>
  <course>123.78</course>
  <speed>0.552268050859363</speed>
  <fix>3d</fix>
</trkpt>
<trkpt lat="40.0713209" lon="-105.2303287">
  <ele>1583.0</ele>
  <time>2026-08-28T17:50:24Z</time>
  <course>121.93</course>
  <speed>0.88</speed>
  <fix>3d</fix>
</trkpt>
<trkpt lat="40.0713196" lon="-105.230326">
  <ele>1583.0</ele>
  <time>2026-08-28T17:50:24Z</time>
  <course>124.15</course>
  <speed>0.4304648650006177</speed>
  <fix>3d</fix>
</trkpt>
<trkpt lat="40.0713202" lon="-105.2303272">
  <ele>1583.0</ele>
  <time>2026-08-28T17:50:24Z</time>
  <course>122.8</course>
  <speed>0.62</speed>
  <fix>3d</fix>
</trkpt>
<trkpt lat="40.0713194" lon="-105.2303257">
  <ele>1583.0</ele>
  <time>2026-08-28T17:50:24Z</time>
  <course>124.41</course>
  <speed>0.327566787083184</speed>
  <fix>3d</fix>
</trkpt>
<trkpt lat="40.0713202" lon="-105.2303272">
  <ele>1583.0</ele>
  <time>2026-08-28T17:50:24Z</time>
  <course>122.8</course>
  <speed>0.62</speed>
  <fix>3d</fix>
</trkpt>
<trkpt lat="40.0713193" lon="-105.2303255">
  <ele>1583.0</ele>
  <time>2026-08-28T17:50:24Z</time>
  <course>124.65</course>
  <speed>0.20591260281974003</speed>
  <fix>3d</fix>
</trkpt>
<trkpt lat="40.0713197" lon="-105.2303262">
  <ele>1583.0</ele>
  <time>2026-08-28T17:50:24Z</time>
  <course>123.5</course>
  <speed>0.38</speed>
  <fix>3d</fix>
</trkpt>
<trkpt lat="40.0713193" lon="-105.2303253">
  <ele>1582.99</ele>
  <time>2026-08-28T17:50:24Z</time>
  <course>124.81</course>
  <speed>0.09848857801796104</speed>
  <fix>3d</fix>
</trkpt>
<trkpt lat="40.0713197" lon="-105.2303262">
  <ele>1583.0</ele>
  <time>2026-08-28T17:50:24Z</time>
  <course>123.5</course>
  <speed>0.38</speed>
  <fix>3d</fix>
</trkpt>
<trkpt lat="40.0713193" lon="-105.2303253">
  <ele>1582.99</ele>
  <time>2026-08-28T17:50:24Z</time>
  <course>124.87</course>
  <speed>0.01</speed>
  <fix>3d</fix>
</trkpt>
<trkpt lat="40.0713194" lon="-105.2303257">
  <ele>1583.0</ele>
  <time>2026-08-28T17:50:24Z</time>
  <course>123.94</course>
  <speed>0.15</speed>
  <fix>3d</fix>
</trkpt>
<trkpt lat="40.0713193" lon="-105.2303254">
  <ele>1582.99</ele>
  <time>2026-08-28T17:50:24Z</time>
  <course>124.89</course>
  <speed>0.1063014581273465</speed>
  <fix>3d</fix>
</trkpt>
<trkpt lat="40.0713194" lon="-105.2303257">
  <ele>1583.0</ele>
  <time>2026-08-28T17:50:24Z</time>
  <course>123.94</course>
  <speed>0.15</speed>
  <fix>3d</fix>
</trkpt>
<trkpt lat="40.0713194" lon="-105.2303256">
  <ele>1582.99</ele>
  <time>2026-08-28T17:50:24Z</time>
  <course>124.98</course>
  <speed>0.19209372712298545</speed>
  <fix>3d</fix>
</trkpt>
<trkpt lat="40.0713193" lon="-105.2303256">
  <ele>1583.0</ele>
  <time>2026-08-28T17:50:24Z</time>
  <course>304.28</course>
  <speed>0.04</speed>
  <fix>3d</fix>
</trkpt>
<trkpt lat="40.0713195" lon="-105.2303257">
  <ele>1583.0</ele>
  <time>2026-08-28T17:50:24Z</time>
  <course>125.12</course>
  <speed>0.2640075756488817</speed>
  <fix>3d</fix>
</trkpt>
<trkpt lat="40.0713193" lon="-105.2303256">
  <ele>1583.0</ele>
  <time>2026-08-28T17:50:24Z</time>
  <course>304.28</course>
  <speed>0.04</speed>
  <fix>3d</fix>
</trkpt>
<trkpt lat="40.0713197" lon="-105.2303261">
  <ele>1583.0</ele>
  <time>2026-08-28T17:50:24Z</time>
  <course>125.31</course>
  <speed>0.3280243893371345</speed>
  <fix>3d</fix>
</trkpt>
<trkpt lat="40.0713194" lon="-105.2303258">
  <ele>1583.0</ele>
  <time>2026-08-28T17:50:24Z</time>
  <course>304.46</course>
  <speed>0.21</speed>
  <fix>3d</fix>
</trkpt>
<trkpt lat="40.0713198" lon="-105.2303264">
  <ele>1583.0</ele>
  <time>2026-08-28T17:50:24Z</time>
  <course>125.52</course>
  <speed>0.3640054944640259</speed>
  <fix>3d</fix>
</trkpt>
<trkpt lat="40.0713194" lon="-105.2303258">
  <ele>1583.0</ele>
  <time>2026-08-28T17:50:24Z</time>
  <course>304.46</course>
  <speed>0.21</speed>
  <fix>3d</fix>
</trkpt>
<trkpt lat="40.07132" lon="-105.2303268">
  <ele>1583.0</ele>
  <time>2026-08-28T17:50:24Z</time>
  <course>125.73</course>
  <speed>0.39408120990476064</speed>
  <fix>3d</fix>
</trkpt>
<trkpt lat="40.0713196" lon="-105.2303263">
  <ele>1583.0</ele>
  <time>2026-08-28T17:50:24Z</time>
  <course>304.8</course>
  <speed>0.31</speed>
  <fix>3d</fix>
</trkpt>
<trkpt lat="40.0713203" lon="-105.2303272">
  <ele>1583.0</ele>
  <time>2026-08-28T17:50:24Z</time>
  <course>125.98</course>
  <speed>0.4080441152620633</speed>
  <fix>3d</fix>
</trkpt>
<trkpt lat="40.0713196" lon="-105.2303263">
  <ele>1583.0</ele>
  <time>2026-08-28T17:50:24Z</time>
  <course>304.8</course>
  <speed>0.31</speed>
  <fix>3d</fix>
</trkpt>
<trkpt lat="40.0713205" lon="-105.2303276">
  <ele>1583.0</ele>
  <time>2026-08-28T17:50:24Z</time>
  <course>126.18</course>
  <speed>0.4080441152620633</speed>
  <fix>3d</fix>
</trkpt>
<trkpt lat="40.07132" lon="-105.2303269">
  <ele>1583.0</ele>
  <time>2026-08-28T17:50:24Z</time>
  <course>305.2</course>
  <speed>0.35</speed>
  <fix>3d</fix>
</trkpt>
<trkpt lat="40.0713207" lon="-105.230328">
  <ele>1583.0</ele>
  <time>2026-08-28T17:50:24Z</time>
  <course>126.37</course>
  <speed>0.4</speed>
  <fix>3d</fix>
</trkpt>
<trkpt lat="40.07132" lon="-105.2303269">
  <ele>1583.0</ele>
  <time>2026-08-28T17:50:24Z</time>
  <course>305.2</course>
  <speed>0.35</speed>
  <fix>3d</fix>
</trkpt>
<trkpt lat="40.0713209" lon="-105.2303284">
  <ele>1583.0</ele>
  <time>2026-08-28T17:50:24Z</time>
  <course>126.37</course>
  <speed>0.3301514803843835</speed>
  <fix>3d</fix>
</trkpt>
<trkpt lat="40.0713204" lon="-105.2303276">
  <ele>1583.0</ele>
  <time>2026-08-28T17:50:24Z</time>
  <course>305.52</course>
  <speed>0.34</speed>
  <fix>3d</fix>
</trkpt>
<trkpt lat="40.071321" lon="-105.2303286">
  <ele>1583.0</ele>
  <time>2026-08-28T17:50:24Z</time>
  <course>126.38</course>
  <speed>0.16401219466856726</speed>
  <fix>3d</fix>
</trkpt>
<trkpt lat="40.0713204" lon="-105.2303276">
  <ele>1583.0</ele>
  <time>2026-08-28T17:50:24Z</time>
  <course>305.52</course>
  <speed>0.34</speed>
  <fix>3d</fix>
</trkpt>
<trkpt lat="40.071321" lon="-105.2303286">
  <ele>1583.0</ele>
  <time>2026-08-28T17:50:24Z</time>
  <course>126.38</course>
  <speed>0.07810249675906654</speed>
  <fix>3d</fix>
</trkpt>
<trkpt lat="40.0713207" lon="-105.2303281">
  <ele>1583.0</ele>
  <time>2026-08-28T17:50:24Z</time>
  <course>305.65</course>
  <speed>0.15</speed>
  <fix>3d</fix>
</trkpt>
<trkpt lat="40.0713208" lon="-105.2303283">
  <ele>1583.01</ele>
  <time>2026-08-28T17:50:24Z</time>
  <course>126.39</course>
  <speed>0.4</speed>
  <fix>3d</fix>
</trkpt>
<trkpt lat="40.0713207" lon="-105.2303281">
  <ele>1583.0</ele>
  <time>2026-08-28T17:50:24Z</time>
  <course>305.65</course>
  <speed>0.15</speed>
  <fix>3d</fix>
</trkpt>
<trkpt lat="40.0713205" lon="-105.2303277">
  <ele>1583.01</ele>
  <time>2026-08-28T17:50:24Z</time>
  <course>126.4</course>
  <speed>0.7360027173862879</speed>
  <fix>3d</fix>
</trkpt>
<trkpt lat="40.0713205" lon="-105.2303279">
  <ele>1583.0</ele>
  <time>2026-08-28T17:50:24Z</time>
  <course>125.66</course>
  <speed>0.33</speed>
  <fix>3d</fix>
</trkpt>
<trkpt lat="40.07132" lon="-105.2303269">
  <ele>1583.01</ele>
  <time>2026-08-28T17:50:24Z</time>
  <course>126.41</course>
  <speed>1.0580170130957252</speed>
  <fix>3d</fix>
</trkpt>
<trkpt lat="40.0713205" lon="-105.2303279">
  <ele>1583.0</ele>
  <time>2026-08-28T17:50:24Z</time>
  <course>125.66</course>
  <speed>0.33</speed>
  <fix>3d</fix>
</trkpt>
<trkpt lat="40.0713193" lon="-105.2303257">
  <ele>1583.01</ele>
  <time>2026-08-28T17:50:24Z</time>
  <course>126.42</course>
  <speed>1.3580132547217645</speed>
  <fix>3d</fix>
</trkpt>
<trkpt lat="40.0713199" lon="-105.2303268">
  <ele>1583.0</ele>
  <time>2026-08-28T17:50:24Z</time>
  <course>125.66</course>
  <speed>0.96</speed>
  <fix>3d</fix>
</trkpt>
<trkpt lat="40.0713185" lon="-105.2303242">
  <ele>1583.01</ele>
  <time>2026-08-28T17:50:24Z</time>
  <course>126.43</course>
  <speed>1.6440194646049662</speed>
  <fix>3d</fix>
</trkpt>
<trkpt lat="40.0713199" lon="-105.2303268">
  <ele>1583.0</ele>
  <time>2026-08-28T17:50:24Z</time>
  <course>125.66</course>
  <speed>0.96</speed>
  <fix>3d</fix>
</trkpt>
<trkpt lat="40.0713177" lon="-105.2303227">
  <ele>1583.0</ele>
  <time>2026-08-28T17:50:24Z</time>
  <course>126.44</course>
  <speed>1.8720042734993956</speed>
  <fix>3d</fix>
</trkpt>
<trkpt lat="40.0713187" lon="-105.2303244">
  <ele>1583.0</ele>
  <time>2026-08-28T17:50:24Z</time>
  <course>125.66</course>
  <speed>1.56</speed>
  <fix>3d</fix>
</trkpt>
<trkpt lat="40.0713165" lon="-105.2303207">
  <ele>1583.0</ele>
  <time>2026-08-28T17:50:24Z</time>
  <course>126.45</course>
  <speed>2.1360009363293826</speed>
  <fix>3d</fix>
</trkpt>
<trkpt lat="40.0713187" lon="-105.2303244">
  <ele>1583.0</ele>
  <time>2026-08-28T17:50:24Z</time>
  <course>125.66</course>
  <speed>1.56</speed>
  <fix>3d</fix>
</trkpt>
<trkpt lat="40.0713153" lon="-105.2303185">
  <ele>1583.0</ele>
  <time>2026-08-28T17:50:24Z</time>
  <course>126.46</course>
  <speed>2.38600083822282</speed>
  <fix>3d</fix>
</trkpt>
<trkpt lat="40.0713168" lon="-105.2303209">
  <ele>1583.0</ele>
  <time>2026-08-28T17:50:24Z</time>
  <course>125.66</course>
  <speed>2.09</speed>
  <fix>3d</fix>
</trkpt>
<trkpt lat="40.0713139" lon="-105.230316">
  <ele>1583.0</ele>
  <time>2026-08-28T17:50:24Z</time>
  <course>126.46</course>
  <speed>2.6220030511042505</speed>
  <fix>3d</fix>
</trkpt>
<trkpt lat="40.0713168" lon="-105.2303209">
  <ele>1583.0</ele>
  <time>2026-08-28T17:50:24Z</time>
  <course>125.66</course>
  <speed>2.09</speed>
  <fix>3d</fix>
</trkpt>
<trkpt lat="40.0713124" lon="-105.2303134">
  <ele>1583.0</ele>
  <time>2026-08-28T17:50:24Z</time>
  <course>126.47</course>
  <speed>2.8520343616443338</speed>
  <fix>3d</fix>
</trkpt>
<trkpt lat="40.0713143" lon="-105.2303164">
  <ele>1583.0</ele>
  <time>2026-08-28T17:50:24Z</time>
  <course>125.66</course>
  <speed>2.58</speed>
  <fix>3d</fix>
</trkpt>
<trkpt lat="40.0713108" lon="-105.2303104">
  <ele>1583.0</ele>
  <time>2026-08-28T17:50:24Z</time>
  <course>126.47</course>
  <speed>3.066023483276017</speed>
  <fix>3d</fix>
</trkpt>
<trkpt lat="40.0713143" lon="-105.2303164">
  <ele>1583.0</ele>
  <time>2026-08-28T17:50:24Z</time>
  <course>125.66</course>
  <speed>2.58</speed>
  <fix>3d</fix>
</trkpt>
<trkpt lat="40.071309" lon="-105.2303073">
  <ele>1583.0</ele>
  <time>2026-08-28T17:50:24Z</time>
  <course>126.47</course>
  <speed>3.2740494803835816</speed>
  <fix>3d</fix>
</trkpt>
<trkpt lat="40.0713113" lon="-105.2303111">
  <ele>1583.0</ele>
  <time>2026-08-28T17:50:24Z</time>
  <course>125.66</course>
  <speed>3.02</speed>
  <fix>3d</fix>
</trkpt>
<trkpt lat="40.0713072" lon="-105.230304">
  <ele>1582.99</ele>
  <time>2026-08-28T17:50:24Z</time>
  <course>126.47</course>
  <speed>3.4740466318113805</speed>
  <fix>3d</fix>
</trkpt>
<trkpt lat="40.0713113" lon="-105.2303111">
  <ele>1583.0</ele>
  <time>2026-08-28T17:50:24Z</time>
  <course>125.66</course>
  <speed>3.02</speed>
  <fix>3d</fix>
</trkpt>
<trkpt lat="40.0713052" lon="-105.2303005">
  <ele>1582.99</ele>
  <time>2026-08-28T17:50:24Z</time>
  <course>126.46</course>
  <speed>3.660054644400818</speed>
  <fix>3d</fix>
</trkpt>
<trkpt lat="40.071308" lon="-105.2303049">
  <ele>1583.0</ele>
  <time>2026-08-28T17:50:24Z</time>
  <course>125.66</course>
  <speed>3.42</speed>
  <fix>3d</fix>
</trkpt>
<trkpt lat="40.0713032" lon="-105.2302969">
  <ele>1582.99</ele>
  <time>2026-08-28T17:50:24Z</time>
  <course>126.45</course>
  <speed>3.838033350558591</speed>
  <fix>3d</fix>
</trkpt>
<trkpt lat="40.071308" lon="-105.2303049">
  <ele>1583.0</ele>
  <time>2026-08-28T17:50:24Z</time>
  <course>125.66</course>
  <speed>3.42</speed>
  <fix>3d</fix>
</trkpt>
<trkpt lat="40.0713006" lon="-105.2302923">
  <ele>1582.98</ele>
  <time>2026-08-28T17:50:24Z</time>
  <course>126.45</course>
  <speed>4.046059811718062</speed>
  <fix>3d</fix>
</trkpt>
<trkpt lat="40.0713042" lon="-105.2302981">
  <ele>1583.0</ele>
  <time>2026-08-28T17:50:24Z</time>
  <course>125.66</course>
  <speed>3.77</speed>
  <fix>3d</fix>
</trkpt>
<trkpt lat="40.0712984" lon="-105.2302883">
  <ele>1582.99</ele>
  <time>2026-08-28T17:50:24Z</time>
  <course>126.44</course>
  <speed>4.204093243494963</speed>
  <fix>3d</fix>
</trkpt>
<trkpt lat="40.0713042" lon="-105.2302981">
  <ele>1583.0</ele>
  <time>2026-08-28T17:50:24Z</time>
  <course>125.66</course>
  <speed>3.77</speed>
  <fix>3d</fix>
</trkpt>
<trkpt lat="40.0712961" lon="-105.2302841">
  <ele>1582.99</ele>
  <time>2026-08-28T17:50:24Z</time>
  <course>126.43</course>
  <speed>4.3540900312235165</speed>
  <fix>3d</fix>
</trkpt>
<trkpt lat="40.0713" lon="-105.2302905">
  <ele>1583.0</ele>
  <time>2026-08-28T17:50:24Z</time>
  <course>125.66</course>
  <speed>4.1</speed>
  <fix>3d</fix>
</trkpt>
<trkpt lat="40.0712938" lon="-105.2302799">
  <ele>1582.99</ele>
  <time>2026-08-28T17:50:24Z</time>
  <course>126.41</course>
  <speed>4.498144061721456</speed>
  <fix>3d</fix>
</trkpt>
<trkpt lat="40.0713" lon="-105.2302905">
  <ele>1583.0</ele>
  <time>2026-08-28T17:50:24Z</time>
  <course>125.66</course>
  <speed>4.1</speed>
  <fix>3d</fix>
</trkpt>
<trkpt lat="40.0712913" lon="-105.2302755">
  <ele>1582.99</ele>
  <time>2026-08-28T17:50:24Z</time>
  <course>126.4</course>
  <speed>4.634155802300998</speed>
  <fix>3d</fix>
</trkpt>
<trkpt lat="40.0712956" lon="-105.2302824">
  <ele>1583.0</ele>
  <time>2026-08-28T17:50:24Z</time>
  <course>125.66</course>
  <speed>4.4</speed>
  <fix>3d</fix>
</trkpt>
<trkpt lat="40.0712889" lon="-105.230271">
  <ele>1582.99</ele>
  <time>2026-08-28T17:50:24Z</time>
  <course>126.39</course>
  <speed>4.756185446342478</speed>
  <fix>3d</fix>
</trkpt>
<trkpt lat="40.0712956" lon="-105.2302824">
  <ele>1583.0</ele>
  <time>2026-08-28T17:50:24Z</time>
  <course>125.66</course>
  <speed>4.4</speed>
  <fix>3d</fix>
</trkpt>
<trkpt lat="40.0712863" lon="-105.2302664">
  <ele>1582.99</ele>
  <time>2026-08-28T17:50:24Z</time>
  <course>126.38</course>
  <speed>4.878216887347261</speed>
  <fix>3d</fix>
</trkpt>
<trkpt lat="40.0712908" lon="-105.2302737">
  <ele>1583.0</ele>
  <time>2026-08-28T17:50:24Z</time>
  <course>125.66</course>
  <speed>4.66</speed>
  <fix>3d</fix>
</trkpt>
<trkpt lat="40.0712837" lon="-105.2302617">
  <ele>1582.99</ele>
  <time>2026-08-28T17:50:24Z</time>
  <course>126.36</course>
  <speed>5.000249993750312</speed>
  <fix>3d</fix>
</trkpt>
<trkpt lat="40.0712908" lon="-105.2302737">
  <ele>1583.0</ele>
  <time>2026-08-28T17:50:24Z</time>
  <course>125.66</course>
  <speed>4.66</speed>
  <fix>3d</fix>
</trkpt>
<trkpt lat="40.0712811" lon="-105.2302569">
  <ele>1582.99</ele>
  <time>2026-08-28T17:50:24Z</time>
  <course>126.35</course>
  <speed>5.100245092149985</speed>
  <fix>3d</fix>
</trkpt>
<trkpt lat="40.0712858" lon="-105.2302646">
  <ele>1583.0</ele>
  <time>2026-08-28T17:50:24Z</time>
  <course>125.66</course>
  <speed>4.9</speed>
  <fix>3d</fix>
</trkpt>
<trkpt lat="40.0712784" lon="-105.230252">
  <ele>1582.99</ele>
  <time>2026-08-28T17:50:24Z</time>
  <course>126.33</course>
  <speed>5.208301066566716</speed>
  <fix>3d</fix>
</trkpt>
<trkpt lat="40.0712858" lon="-105.2302646">
  <ele>1583.0</ele>
  <time>2026-08-28T17:50:24Z</time>
  <course>125.66</course>
  <speed>4.9</speed>
  <fix>3d</fix>
</trkpt>
<trkpt lat="40.0712757" lon="-105.230247">
  <ele>1582.98</ele>
  <time>2026-08-28T17:50:24Z</time>
  <course>126.32</course>
  <speed>5.308295394945537</speed>
  <fix>3d</fix>
</trkpt>
<trkpt lat="40.0712805" lon="-105.230255">
  <ele>1583.0</ele>
  <time>2026-08-28T17:50:24Z</time>
  <course>125.66</course>
  <speed>5.12</speed>
  <fix>3d</fix>
</trkpt>
<trkpt lat="40.0712734" lon="-105.2302429">
  <ele>1582.98</ele>
  <time>2026-08-28T17:50:24Z</time>
  <course>126.3</course>
  <speed>5.380334562088124</speed>
  <fix>3d</fix>
</trkpt>
<trkpt lat="40.0712805" lon="-105.230255">
  <ele>1583.0</ele>
  <time>2026-08-28T17:50:24Z</time>
  <course>125.66</course>
  <speed>5.12</speed>
  <fix>3d</fix>
</trkpt>
<trkpt lat="40.0712706" lon="-105.2302378">
  <ele>1582.98</ele>
  <time>2026-08-28T17:50:24Z</time>
  <course>126.29</course>
  <speed>5.466351616937938</speed>
  <fix>3d</fix>
</trkpt>
<trkpt lat="40.071275" lon="-105.230245">
  <ele>1583.0</ele>
  <time>2026-08-28T17:50:24Z</time>
  <course>125.66</course>
  <speed>5.32</speed>
  <fix>3d</fix>
</trkpt>
<trkpt lat="40.0712677" lon="-105.2302325">
  <ele>1582.99</ele>
  <time>2026-08-28T17:50:24Z</time>
  <course>126.28</course>
  <speed>5.560440630022049</speed>
  <fix>3d</fix>
</trkpt>
<trkpt lat="40.071275" lon="-105.230245">
  <ele>1583.0</ele>
  <time>2026-08-28T17:50:24Z</time>
  <course>125.66</course>
  <speed>5.32</speed>
  <fix>3d</fix>
</trkpt>
<trkpt lat="40.0712648" lon="-105.2302272">
  <ele>1582.99</ele>
  <time>2026-08-28T17:50:24Z</time>
  <course>126.27</course>
  <speed>5.6324861295878925</speed>
  <fix>3d</fix>
</trkpt>
<trkpt lat="40.0712694" lon="-105.2302347">
  <ele>1583.0</ele>
  <time>2026-08-28T17:50:24Z</time>
  <course>125.66</course>
  <speed>5.5</speed>
  <fix>3d</fix>
</trkpt>
<trkpt lat="40.0712618" lon="-105.2302217">
  <ele>1582.99</ele>
  <time>2026-08-28T17:50:24Z</time>
  <course>126.26</course>
  <speed>5.718505049398837</speed>
  <fix>3d</fix>
</trkpt>
<trkpt lat="40.0712694" lon="-105.2302347">
  <ele>1583.0</ele>
  <time>2026-08-28T17:50:24Z</time>
  <course>125.66</course>
  <speed>5.5</speed>
  <fix>3d</fix>
</trkpt>
<trkpt lat="40.0712588" lon="-105.2302162">
  <ele>1582.99</ele>
  <time>2026-08-28T17:50:24Z</time>
  <course>126.25</course>
  <speed>5.79055265065434</speed>
  <fix>3d</fix>
</trkpt>
<trkpt lat="40.0712635" lon="-105.230224">
  <ele>1583.0</ele>
  <time>2026-08-28T17:50:24Z</time>
  <course>125.66</course>
  <speed>5.66</speed>
  <fix>3d</fix>
</trkpt>
<trkpt lat="40.0712557" lon="-105.2302106">
  <ele>1582.99</ele>
  <time>2026-08-28T17:50:24Z</time>
  <course>126.24</course>
  <speed>5.86260181148268</speed>
  <fix>3d</fix>
</trkpt>
<trkpt lat="40.0712635" lon="-105.230224">
  <ele>1583.0</ele>
  <time>2026-08-28T17:50:24Z</time>
  <course>125.66</course>
  <speed>5.66</speed>
  <fix>3d</fix>
</trkpt>
<trkpt lat="40.0712526" lon="-105.2302049">
  <ele>1582.99</ele>
  <time>2026-08-28T17:50:24Z</time>
  <course>126.24</course>
  <speed>5.9346524750822605</speed>
  <fix>3d</fix>
</trkpt>
<trkpt lat="40.0712575" lon="-105.2302132">
  <ele>1583.0</ele>
  <time>2026-08-28T17:50:24Z</time>
  <course>125.66</course>
  <speed>5.8</speed>
  <fix>3d</fix>
</trkpt>
<trkpt lat="40.0712495" lon="-105.2301991">
  <ele>1582.98</ele>
  <time>2026-08-28T17:50:24Z</time>
  <course>126.23</course>
  <speed>5.998616507162297</speed>
  <fix>3d</fix>
</trkpt>
<trkpt lat="40.0712575" lon="-105.2302132">
  <ele>1583.0</ele>
  <time>2026-08-28T17:50:24Z</time>
  <course>125.66</course>
  <speed>5.8</speed>
  <fix>3d</fix>
</trkpt>
<trkpt lat="40.0712456" lon="-105.2301922">
  <ele>1582.98</ele>
  <time>2026-08-28T17:50:24Z</time>
  <course>126.22</course>
  <speed>6.070667179149257</speed>
  <fix>3d</fix>
</trkpt>
<trkpt lat="40.0712513" lon="-105.2302019">
  <ele>1583.0</ele>
  <time>2026-08-28T17:50:24Z</time>
  <course>125.66</course>
  <speed>5.94</speed>
  <fix>3d</fix>
</trkpt>
<trkpt lat="40.0712424" lon="-105.2301863">
  <ele>1582.98</ele>
  <time>2026-08-28T17:50:24Z</time>
  <course>126.22</course>
  <speed>6.128751912094337</speed>
  <fix>3d</fix>
</trkpt>
<trkpt lat="40.0712513" lon="-105.2302019">
  <ele>1583.0</ele>
  <time>2026-08-28T17:50:24Z</time>
  <course>125.66</course>
  <speed>5.94</speed>
  <fix>3d</fix>
</trkpt>
<trkpt lat="40.0712392" lon="-105.2301804">
  <ele>1582.98</ele>
  <time>2026-08-28T17:50:24Z</time>
  <course>126.21</course>
  <speed>6.1787458274313245</speed>
  <fix>3d</fix>
</trkpt>
<trkpt lat="40.0712451" lon="-105.2301905">
  <ele>1583.0</ele>
  <time>2026-08-28T17:50:24Z</time>
  <course>125.66</course>
  <speed>6.06</speed>
  <fix>3d</fix>
</trkpt>
<trkpt lat="40.0712359" lon="-105.2301745">
  <ele>1582.98</ele>
  <time>2026-08-28T17:50:24Z</time>
  <course>126.21</course>
  <speed>6.23683413279526</speed>
  <fix>3d</fix>
</trkpt>
<trkpt lat="40.0712451" lon="-105.2301905">
  <ele>1583.0</ele>
  <time>2026-08-28T17:50:24Z</time>
  <course>125.66</course>
  <speed>6.06</speed>
  <fix>3d</fix>
</trkpt>
<trkpt lat="40.0712327" lon="-105.2301685">
  <ele>1582.98</ele>
  <time>2026-08-28T17:50:24Z</time>
  <course>126.2</course>
  <speed>6.286827498826415</speed>
  <fix>3d</fix>
</trkpt>
<trkpt lat="40.0712387" lon="-105.2301789">
  <ele>1583.0</ele>
  <time>2026-08-28T17:50:24Z</time>
  <course>125.66</course>
  <speed>6.17</speed>
  <fix>3d</fix>
</trkpt>
<trkpt lat="40.0712294" lon="-105.2301625">
  <ele>1582.98</ele>
  <time>2026-08-28T17:50:24Z</time>
  <course>126.2</course>
  <speed>6.336820969539852</speed>
  <fix>3d</fix>
</trkpt>
<trkpt lat="40.0712387" lon="-105.2301789">
  <ele>1583.0</ele>
  <time>2026-08-28T17:50:24Z</time>
  <course>125.66</course>
  <speed>6.17</speed>
  <fix>3d</fix>
</trkpt>
<trkpt lat="40.071226" lon="-105.2301564">
  <ele>1582.98</ele>
  <time>2026-08-28T17:50:24Z</time>
  <course>126.19</course>
  <speed>6.3728486566056155</speed>
  <fix>3d</fix>
</trkpt>
<trkpt lat="40.0712322" lon="-105.230167">
  <ele>1583.0</ele>
  <time>2026-08-28T17:50:24Z</time>
  <course>125.66</course>
  <speed>6.26</speed>
  <fix>3d</fix>
</trkpt>
<trkpt lat="40.0712227" lon="-105.2301504">
  <ele>1582.98</ele>
  <time>2026-08-28T17:50:24Z</time>
  <course>126.19</course>
  <speed>6.408876656638041</speed>
  <fix>3d</fix>
</trkpt>
<trkpt lat="40.0712322" lon="-105.230167">
  <ele>1583.0</ele>
  <time>2026-08-28T17:50:24Z</time>
  <course>125.66</course>
  <speed>6.26</speed>
  <fix>3d</fix>
</trkpt>
<trkpt lat="40.0712194" lon="-105.2301443">
  <ele>1582.99</ele>
  <time>2026-08-28T17:50:24Z</time>
  <course>126.19</course>
  <speed>6.444904964388536</speed>
  <fix>3d</fix>
</trkpt>
<trkpt lat="40.0712256" lon="-105.2301549">
  <ele>1583.0</ele>
  <time>2026-08-28T17:50:24Z</time>
  <course>125.66</course>
  <speed>6.35</speed>
  <fix>3d</fix>
</trkpt>
<trkpt lat="40.0712161" lon="-105.2301382">
  <ele>1582.99</ele>
  <time>2026-08-28T17:50:24Z</time>
  <course>126.18</course>
  <speed>6.480933574725173</speed>
  <fix>3d</fix>
</trkpt>
<trkpt lat="40.0712256" lon="-105.2301549">
  <ele>1583.0</ele>
  <time>2026-08-28T17:50:24Z</time>
  <course>125.66</course>
  <speed>6.35</speed>
  <fix>3d</fix>
</trkpt>
<trkpt lat="40.0712127" lon="-105.2301321">
  <ele>1582.99</ele>
  <time>2026-08-28T17:50:24Z</time>
  <course>126.18</course>
  <speed>6.516962482629465</speed>
  <fix>3d</fix>
</trkpt>
<trkpt lat="40.0712189" lon="-105.2301427">
  <ele>1583.0</ele>
  <time>2026-08-28T17:50:24Z</time>
  <course>125.66</course>
  <speed>6.43</speed>
  <fix>3d</fix>
</trkpt>
<trkpt lat="40.07121" lon="-105.2301271">
  <ele>1583.0</ele>
  <time>2026-08-28T17:50:24Z</time>
  <course>126.18</course>
  <speed>6.539028979902139</speed>
  <fix>3d</fix>
</trkpt>
<trkpt lat="40.0712189" lon="-105.2301427">
  <ele>1583.0</ele>
  <time>2026-08-28T17:50:24Z</time>
  <course>125.66</course>
  <speed>6.43</speed>
  <fix>3d</fix>
</trkpt>
<trkpt lat="40.0712066" lon="-105.2301209">
  <ele>1583.0</ele>
  <time>2026-08-28T17:50:24Z</time>
  <course>126.17</course>
  <speed>6.566955154407558</speed>
  <fix>3d</fix>
</trkpt>
<trkpt lat="40.071212" lon="-105.2301303">
  <ele>1583.0</ele>
  <time>2026-08-28T17:50:24Z</time>
  <course>125.66</course>
  <speed>6.5</speed>
  <fix>3d</fix>
</trkpt>
<trkpt lat="40.0712032" lon="-105.2301147">
  <ele>1583.0</ele>
  <time>2026-08-28T17:50:24Z</time>
  <course>126.17</course>
  <speed>6.597128163072171</speed>
  <fix>3d</fix>
</trkpt>
<trkpt lat="40.071212" lon="-105.2301303">
  <ele>1583.0</ele>
  <time>2026-08-28T17:50:24Z</time>
  <course>125.66</course>
  <speed>6.5</speed>
  <fix>3d</fix>
</trkpt>
<trkpt lat="40.0711997" lon="-105.2301084">
  <ele>1583.0</ele>
  <time>2026-08-28T17:50:24Z</time>
  <course>126.17</course>
  <speed>6.625050943200361</speed>
  <fix>3d</fix>
</trkpt>
<trkpt lat="40.0712052" lon="-105.2301179">
  <ele>1583.0</ele>
  <time>2026-08-28T17:50:24Z</time>
  <course>125.66</course>
  <speed>6.57</speed>
  <fix>3d</fix>
</trkpt>
<trkpt lat="40.0711963" lon="-105.2301021">
  <ele>1583.0</ele>
  <time>2026-08-28T17:50:24Z</time>
  <course>126.17</course>
  <speed>6.652976777353127</speed>
  <fix>3d</fix>
</trkpt>
<trkpt lat="40.0712052" lon="-105.2301179">
  <ele>1583.0</ele>
  <time>2026-08-28T17:50:24Z</time>
  <course>125.66</course>
  <speed>6.57</speed>
  <fix>3d</fix>
</trkpt>
<trkpt lat="40.0711928" lon="-105.2300957">
  <ele>1582.99</ele>
  <time>2026-08-28T17:50:24Z</time>
  <course>126.17</course>
  <speed>6.675043071022089</speed>
  <fix>3d</fix>
</trkpt>
<trkpt lat="40.0711983" lon="-105.2301052">
  <ele>1583.0</ele>
  <time>2026-08-28T17:50:24Z</time>
  <course>125.66</course>
  <speed>6.63</speed>
  <fix>3d</fix>
</trkpt>
<trkpt lat="40.0711893" lon="-105.2300893">
  <ele>1582.99</ele>
  <time>2026-08-28T17:50:24Z</time>
  <course>126.17</course>
  <speed>6.702969491203134</speed>
  <fix>3d</fix>
</trkpt>
<trkpt lat="40.0711983" lon="-105.2301052">
  <ele>1583.0</ele>
  <time>2026-08-28T17:50:24Z</time>
  <course>125.66</course>
  <speed>6.63</speed>
  <fix>3d</fix>
</trkpt>
<trkpt lat="40.0711858" lon="-105.2300829">
  <ele>1582.99</ele>
  <time>2026-08-28T17:50:24Z</time>
  <course>126.17</course>
  <speed>6.725035315892401</speed>
  <fix>3d</fix>
</trkpt>
<trkpt lat="40.0711913" lon="-105.2300925">
  <ele>1583.0</ele>
  <time>2026-08-28T17:50:24Z</time>
  <course>125.66</course>
  <speed>6.68</speed>
  <fix>3d</fix>
</trkpt>
<trkpt lat="40.0711822" lon="-105.2300764">
  <ele>1582.98</ele>
  <time>2026-08-28T17:50:24Z</time>
  <course>126.17</course>
  <speed>6.747103082064183</speed>
  <fix>3d</fix>
</trkpt>
<trkpt lat="40.0711913" lon="-105.2300925">
  <ele>1583.0</ele>
  <time>2026-08-28T17:50:24Z</time>
  <course>125.66</course>
  <speed>6.68</speed>
  <fix>3d</fix>
</trkpt>
<trkpt lat="40.0711786" lon="-105.2300699">
  <ele>1582.98</ele>
  <time>2026-08-28T17:50:24Z</time>
  <course>126.17</course>
  <speed>6.775027675220227</speed>
  <fix>3d</fix>
</trkpt>
<trkpt lat="40.0711843" lon="-105.2300798">
  <ele>1583.0</ele>
  <time>2026-08-28T17:50:24Z</time>
  <course>125.66</course>
  <speed>6.73</speed>
  <fix>3d</fix>
</trkpt>
<trkpt lat="40.0711744" lon="-105.2300621">
  <ele>1582.98</ele>
  <time>2026-08-28T17:50:24Z</time>
  <course>126.17</course>
  <speed>6.797094967704953</speed>
  <fix>3d</fix>
</trkpt>
<trkpt lat="40.0711843" lon="-105.2300798">
  <ele>1583.0</ele>
  <time>2026-08-28T17:50:24Z</time>
  <course>125.66</course>
  <speed>6.73</speed>
  <fix>3d</fix>
</trkpt>
<trkpt lat="40.0711708" lon="-105.2300556">
  <ele>1582.98</ele>
  <time>2026-08-28T17:50:24Z</time>
  <course>126.18</course>
  <speed>6.8191641716562295</speed>
  <fix>3d</fix>
</trkpt>
<trkpt lat="40.0711772" lon="-105.2300669">
  <ele>1583.0</ele>
  <time>2026-08-28T17:50:24Z</time>
  <course>125.66</course>
  <speed>6.78</speed>
  <fix>3d</fix>
</trkpt>
<trkpt lat="40.0711672" lon="-105.230049">
  <ele>1582.97</ele>
  <time>2026-08-28T17:50:24Z</time>
  <course>126.18</course>
  <speed>6.833125200082317</speed>
  <fix>3d</fix>
</trkpt>
<trkpt lat="40.0711772" lon="-105.2300669">
  <ele>1583.0</ele>
  <time>2026-08-28T17:50:24Z</time>
  <course>125.66</course>
  <speed>6.78</speed>
  <fix>3d</fix>
</trkpt>
<trkpt lat="40.0711636" lon="-105.2300425">
  <ele>1582.97</ele>
  <time>2026-08-28T17:50:24Z</time>
  <course>126.18</course>
  <speed>6.855195110279502</speed>
  <fix>3d</fix>
</trkpt>
<trkpt lat="40.0711701" lon="-105.230054">
  <ele>1583.0</ele>
  <time>2026-08-28T17:50:24Z</time>
  <course>125.66</course>
  <speed>6.82</speed>
  <fix>3d</fix>
</trkpt>
<trkpt lat="40.07116" lon="-105.2300359">
  <ele>1582.97</ele>
  <time>2026-08-28T17:50:24Z</time>
  <course>126.18</course>
  <speed>6.8691556977550015</speed>
  <fix>3d</fix>
</trkpt>
<trkpt lat="40.0711701" lon="-105.230054">
  <ele>1583.0</ele>
  <time>2026-08-28T17:50:24Z</time>
  <course>125.66</course>
  <speed>6.82</speed>
  <fix>3d</fix>
</trkpt>
<trkpt lat="40.0711564" lon="-105.2300294">
  <ele>1582.97</ele>
  <time>2026-08-28T17:50:24Z</time>
  <course>126.18</course>
  <speed>6.883117026464101</speed>
  <fix>3d</fix>
</trkpt>
<trkpt lat="40.071163" lon="-105.2300409">
  <ele>1583.0</ele>
  <time>2026-08-28T17:50:24Z</time>
  <course>125.66</course>
  <speed>6.85</speed>
  <fix>3d</fix>
</trkpt>
<trkpt lat="40.0711528" lon="-105.2300229">
  <ele>1582.97</ele>
  <time>2026-08-28T17:50:24Z</time>
  <course>126.19</course>
  <speed>6.891226305963257</speed>
  <fix>3d</fix>
</trkpt>
<trkpt lat="40.071163" lon="-105.2300409">
  <ele>1583.0</ele>
  <time>2026-08-28T17:50:24Z</time>
  <course>125.66</course>
  <speed>6.85</speed>
  <fix>3d</fix>
</trkpt>
<trkpt lat="40.0711493" lon="-105.2300163">
  <ele>1582.97</ele>
  <time>2026-08-28T17:50:24Z</time>
  <course>126.19</course>
  <speed>6.905186456570163</speed>
  <fix>3d</fix>
</trkpt>
<trkpt lat="40.0711557" lon="-105.2300277">
  <ele>1583.0</ele>
  <time>2026-08-28T17:50:24Z</time>
  <course>125.66</course>
  <speed>6.88</speed>
  <fix>3d</fix>
</trkpt>
<trkpt lat="40.0711457" lon="-105.2300098">
  <ele>1582.97</ele>
  <time>2026-08-28T17:50:24Z</time>
  <course>126.19</course>
  <speed>6.913298778441447</speed>
  <fix>3d</fix>
</trkpt>
<trkpt lat="40.0711557" lon="-105.2300277">
  <ele>1583.0</ele>
  <time>2026-08-28T17:50:24Z</time>
  <course>125.66</course>
  <speed>6.88</speed>
  <fix>3d</fix>
</trkpt>
<trkpt lat="40.0711421" lon="-105.2300033">
  <ele>1582.98</ele>
  <time>2026-08-28T17:50:24Z</time>
  <course>126.19</course>
  <speed>6.927257754696298</speed>
  <fix>3d</fix>
</trkpt>
<trkpt lat="40.0711485" lon="-105.2300146">
  <ele>1583.0</ele>
  <time>2026-08-28T17:50:24Z</time>
  <course>125.66</course>
  <speed>6.91</speed>
  <fix>3d</fix>
</trkpt>
<trkpt lat="40.0711385" lon="-105.2299967">
  <ele>1582.98</ele>
  <time>2026-08-28T17:50:24Z</time>
  <course>126.19</course>
  <speed>6.927257754696298</speed>
  <fix>3d</fix>
</trkpt>
<trkpt lat="40.0711485" lon="-105.2300146">
  <ele>1583.0</ele>
  <time>2026-08-28T17:50:24Z</time>
  <course>125.66</course>
  <speed>6.91</speed>
  <fix>3d</fix>
</trkpt>
<trkpt lat="40.0711356" lon="-105.2299914">
  <ele>1582.99</ele>
  <time>2026-08-28T17:50:24Z</time>
  <course>126.2</course>
  <speed>6.941217472461153</speed>
  <fix>3d</fix>
</trkpt>
<trkpt lat="40.0711412" lon="-105.2300013">
  <ele>1583.0</ele>
  <time>2026-08-28T17:50:24Z</time>
  <course>125.66</course>
  <speed>6.94</speed>
  <fix>3d</fix>
</trkpt>
<trkpt lat="40.071132" lon="-105.2299848">
  <ele>1582.99</ele>
  <time>2026-08-28T17:50:24Z</time>
  <course>126.2</course>
  <speed>6.949330903043832</speed>
  <fix>3d</fix>
</trkpt>
<trkpt lat="40.0711412" lon="-105.2300013">
  <ele>1583.0</ele>
  <time>2026-08-28T17:50:24Z</time>
  <course>125.66</course>
  <speed>6.94</speed>
  <fix>3d</fix>
</trkpt>
<trkpt lat="40.0711283" lon="-105.2299782">
  <ele>1583.0</ele>
  <time>2026-08-28T17:50:24Z</time>
  <course>126.2</course>
  <speed>6.955177927271163</speed>
  <fix>3d</fix>
</trkpt>
<trkpt lat="40.0711339" lon="-105.229988">
  <ele>1583.0</ele>
  <time>2026-08-28T17:50:24Z</time>
  <course>125.66</course>
  <speed>6.97</speed>
  <fix>3d</fix>
</trkpt>
<trkpt lat="40.0711247" lon="-105.2299715">
  <ele>1583.0</ele>
  <time>2026-08-28T17:50:24Z</time>
  <course>126.2</course>
  <speed>6.963289452550425</speed>
  <fix>3d</fix>
</trkpt>
<trkpt lat="40.0711339" lon="-105.229988">
  <ele>1583.0</ele>
  <time>2026-08-28T17:50:24Z</time>
  <course>125.66</course>
  <speed>6.97</speed>
  <fix>3d</fix>
</trkpt>
<trkpt lat="40.071121" lon="-105.2299649">
  <ele>1583.0</ele>
  <time>2026-08-28T17:50:24Z</time>
  <course>126.21</course>
  <speed>6.977248741445298</speed>
  <fix>3d</fix>
</trkpt>
<trkpt lat="40.0711266" lon="-105.2299747">
  <ele>1583.0</ele>
  <time>2026-08-28T17:50:24Z</time>
  <course>125.66</course>
  <speed>6.99</speed>
  <fix>3d</fix>
</trkpt>
<trkpt lat="40.0711174" lon="-105.2299581">
  <ele>1583.01</ele>
  <time>2026-08-28T17:50:24Z</time>
  <course>126.21</course>
  <speed>6.985363269007561</speed>
  <fix>3d</fix>
</trkpt>
<trkpt lat="40.0711266" lon="-105.2299747">
  <ele>1583.0</ele>
  <time>2026-08-28T17:50:24Z</time>
  <course>125.66</course>
  <speed>6.99</speed>
  <fix>3d</fix>
</trkpt>
<trkpt lat="40.0711137" lon="-105.2299514">
  <ele>1583.01</ele>
  <time>2026-08-28T17:50:24Z</time>
  <course>126.21</course>
  <speed>6.999321395678298</speed>
  <fix>3d</fix>
</trkpt>
<trkpt lat="40.0711193" lon="-105.2299614">
  <ele>1583.0</ele>
  <time>2026-08-28T17:50:24Z</time>
  <course>125.66</course>
  <speed>7.01</speed>
  <fix>3d</fix>
</trkpt>
<trkpt lat="40.07111" lon="-105.2299447">
  <ele>1583.01</ele>
  <time>2026-08-28T17:50:24Z</time>
  <course>126.22</course>
  <speed>6.999321395678298</speed>
  <fix>3d</fix>
</trkpt>
<trkpt lat="40.0711193" lon="-105.2299614">
  <ele>1583.0</ele>
  <time>2026-08-28T17:50:24Z</time>
  <course>125.66</course>
  <speed>7.01</speed>
  <fix>3d</fix>
</trkpt>
<trkpt lat="40.0711063" lon="-105.2299379">
  <ele>1583.01</ele>
  <time>2026-08-28T17:50:24Z</time>
  <course>126.22</course>
  <speed>7.013280259621741</speed>
  <fix>3d</fix>
</trkpt>
<trkpt lat="40.071112" lon="-105.229948">
  <ele>1583.0</ele>
  <time>2026-08-28T17:50:24Z</time>
  <course>125.66</course>
  <speed>7.02</speed>
  <fix>3d</fix>
</trkpt>
<trkpt lat="40.0711026" lon="-105.2299312">
  <ele>1583.01</ele>
  <time>2026-08-28T17:50:24Z</time>
  <course>126.22</course>
  <speed>7.021395872616783</speed>
  <fix>3d</fix>
</trkpt>
<trkpt lat="40.071112" lon="-105.229948">
  <ele>1583.0</ele>
  <time>2026-08-28T17:50:24Z</time>
  <course>125.66</course>
  <speed>7.02</speed>
  <fix>3d</fix>
</trkpt>
<trkpt lat="40.0710981" lon="-105.2299231">
  <ele>1583.01</ele>
  <time>2026-08-28T17:50:24Z</time>
  <course>126.23</course>
  <speed>7.02723985644435</speed>
  <fix>3d</fix>
</trkpt>
<trkpt lat="40.0711046" lon="-105.2299345">
  <ele>1583.0</ele>
  <time>2026-08-28T17:50:24Z</time>
  <course>125.66</course>
  <speed>7.04</speed>
  <fix>3d</fix>
</trkpt>
<trkpt lat="40.0710944" lon="-105.2299163">
  <ele>1583.01</ele>
  <time>2026-08-28T17:50:24Z</time>
  <course>126.23</course>
  <speed>7.0353535803113685</speed>
  <fix>3d</fix>
</trkpt>
<trkpt lat="40.0711046" lon="-105.2299345">
  <ele>1583.0</ele>
  <time>2026-08-28T17:50:24Z</time>
  <course>125.66</course>
  <speed>7.04</speed>
  <fix>3d</fix>
</trkpt>
<trkpt lat="40.0710907" lon="-105.2299095">
  <ele>1583.02</ele>
  <time>2026-08-28T17:50:24Z</time>
  <course>126.23</course>
  <speed>7.049312023169353</speed>
  <fix>3d</fix>
</trkpt>
<trkpt lat="40.0710971" lon="-105.2299211">
  <ele>1583.0</ele>
  <time>2026-08-28T17:50:24Z</time>
  <course>125.66</course>
  <speed>7.06</speed>
  <fix>3d</fix>
</trkpt>
<trkpt lat="40.071087" lon="-105.2299028">
  <ele>1583.02</ele>
  <time>2026-08-28T17:50:24Z</time>
  <course>126.24</course>
  <speed>7.049312023169353</speed>
  <fix>3d</fix>
</trkpt>
<trkpt lat="40.0710971" lon="-105.2299211">
  <ele>1583.0</ele>
  <time>2026-08-28T17:50:24Z</time>
  <course>125.66</course>
  <speed>7.06</speed>
  <fix>3d</fix>
</trkpt>
<trkpt lat="40.0710833" lon="-105.229896">
  <ele>1583.02</ele>
  <time>2026-08-28T17:50:24Z</time>
  <course>126.24</course>
  <speed>7.05742871023151</speed>
  <fix>3d</fix>
</trkpt>
<trkpt lat="40.0710897" lon="-105.2299076">
  <ele>1583.0</ele>
  <time>2026-08-28T17:50:24Z</time>
  <course>125.66</course>
  <speed>7.07</speed>
  <fix>3d</fix>
</trkpt>
<trkpt lat="40.0710796" lon="-105.2298893">
  <ele>1583.02</ele>
  <time>2026-08-28T17:50:24Z</time>
  <course>126.24</course>
  <speed>7.063271196832244</speed>
  <fix>3d</fix>
</trkpt>
<trkpt lat="40.0710897" lon="-105.2299076">
  <ele>1583.0</ele>
  <time>2026-08-28T17:50:24Z</time>
  <course>125.66</course>
  <speed>7.07</speed>
  <fix>3d</fix>
</trkpt>
<trkpt lat="40.0710759" lon="-105.2298826">
  <ele>1583.02</ele>
  <time>2026-08-28T17:50:24Z</time>
  <course>126.25</course>
  <speed>7.063271196832244</speed>
  <fix>3d</fix>
</trkpt>
<trkpt lat="40.0710823" lon="-105.2298941">
  <ele>1583.0</ele>
  <time>2026-08-28T17:50:24Z</time>
  <course>125.66</course>
  <speed>7.08</speed>
  <fix>3d</fix>
</trkpt>
<trkpt lat="40.0710722" lon="-105.2298759">
  <ele>1583.02</ele>
  <time>2026-08-28T17:50:24Z</time>
  <course>126.25</course>
  <speed>7.063271196832244</speed>
  <fix>3d</fix>
</trkpt>
<trkpt lat="40.0710823" lon="-105.2298941">
  <ele>1583.0</ele>
  <time>2026-08-28T17:50:24Z</time>
  <course>125.66</course>
  <speed>7.08</speed>
  <fix>3d</fix>
</trkpt>
<trkpt lat="40.0710685" lon="-105.2298692">
  <ele>1583.02</ele>
  <time>2026-08-28T17:50:24Z</time>
  <course>126.25</course>
  <speed>7.063271196832244</speed>
  <fix>3d</fix>
</trkpt>
<trkpt lat="40.0710749" lon="-105.2298806">
  <ele>1583.0</ele>
  <time>2026-08-28T17:50:24Z</time>
  <course>125.66</course>
  <speed>7.09</speed>
  <fix>3d</fix>
</trkpt>
<trkpt lat="40.0710648" lon="-105.2298625">
  <ele>1583.01</ele>
  <time>2026-08-28T17:50:24Z</time>
  <course>126.26</course>
  <speed>7.063271196832244</speed>
  <fix>3d</fix>
</trkpt>
<trkpt lat="40.0710749" lon="-105.2298806">
  <ele>1583.0</ele>
  <time>2026-08-28T17:50:24Z</time>
  <course>125.66</course>
  <speed>7.09</speed>
  <fix>3d</fix>
</trkpt>
<trkpt lat="40.0710612" lon="-105.2298558">
  <ele>1583.01</ele>
  <time>2026-08-28T17:50:24Z</time>
  <course>126.26</course>
  <speed>7.063271196832244</speed>
  <fix>3d</fix>
</trkpt>
<trkpt lat="40.0710675" lon="-105.2298671">
  <ele>1583.0</ele>
  <time>2026-08-28T17:50:24Z</time>
  <course>125.66</course>
  <speed>7.1</speed>
  <fix>3d</fix>
</trkpt>
<trkpt lat="40.0710582" lon="-105.2298504">
  <ele>1583.01</ele>
  <time>2026-08-28T17:50:24Z</time>
  <course>126.26</course>
  <speed>7.063271196832244</speed>
  <fix>3d</fix>
</trkpt>
<trkpt lat="40.0710675" lon="-105.2298671">
  <ele>1583.0</ele>
  <time>2026-08-28T17:50:24Z</time>
  <course>125.66</course>
  <speed>7.1</speed>
  <fix>3d</fix>
</trkpt>
<trkpt lat="40.0710545" lon="-105.2298437">
  <ele>1583.0</ele>
  <time>2026-08-28T17:50:24Z</time>
  <course>126.27</course>
  <speed>7.063271196832244</speed>
  <fix>3d</fix>
</trkpt>
<trkpt lat="40.07106" lon="-105.2298534">
  <ele>1583.0</ele>
  <time>2026-08-28T17:50:24Z</time>
  <course>125.66</course>
  <speed>7.11</speed>
  <fix>3d</fix>
</trkpt>
<trkpt lat="40.0710508" lon="-105.2298369">
  <ele>1583.0</ele>
  <time>2026-08-28T17:50:24Z</time>
  <course>126.27</course>
  <speed>7.071386002757875</speed>
  <fix>3d</fix>
</trkpt>
<trkpt lat="40.07106" lon="-105.2298534">
  <ele>1583.0</ele>
  <time>2026-08-28T17:50:24Z</time>
  <course>125.66</course>
  <speed>7.11</speed>
  <fix>3d</fix>
</trkpt>
<trkpt lat="40.0710471" lon="-105.2298302">
  <ele>1583.0</ele>
  <time>2026-08-28T17:50:24Z</time>
  <course>126.27</course>
  <speed>7.077231096975709</speed>
  <fix>3d</fix>
</trkpt>
<trkpt lat="40.0710526" lon="-105.2298399">
  <ele>1583.0</ele>
  <time>2026-08-28T17:50:24Z</time>
  <course>125.66</course>
  <speed>7.12</speed>
  <fix>3d</fix>
</trkpt>
<trkpt lat="40.0710433" lon="-105.2298233">
  <ele>1582.99</ele>
  <time>2026-08-28T17:50:24Z</time>
  <course>126.27</course>
  <speed>7.077231096975709</speed>
  <fix>3d</fix>
</trkpt>
<trkpt lat="40.0710526" lon="-105.2298399">
  <ele>1583.0</ele>
  <time>2026-08-28T17:50:24Z</time>
  <course>125.66</course>
  <speed>7.12</speed>
  <fix>3d</fix>
</trkpt>
<trkpt lat="40.0710396" lon="-105.2298165">
  <ele>1582.99</ele>
  <time>2026-08-28T17:50:24Z</time>
  <course>126.28</course>
  <speed>7.085344028344707</speed>
  <fix>3d</fix>
</trkpt>
<trkpt lat="40.0710451" lon="-105.2298264">
  <ele>1583.0</ele>
  <time>2026-08-28T17:50:24Z</time>
  <course>125.66</course>
  <speed>7.13</speed>
  <fix>3d</fix>
</trkpt>
<trkpt lat="40.0710358" lon="-105.2298097">
  <ele>1582.99</ele>
  <time>2026-08-28T17:50:24Z</time>
  <course>126.28</course>
  <speed>7.091191719309245</speed>
  <fix>3d</fix>
</trkpt>
<trkpt lat="40.0710451" lon="-105.2298264">
  <ele>1583.0</ele>
  <time>2026-08-28T17:50:24Z</time>
  <course>125.66</course>
  <speed>7.13</speed>
  <fix>3d</fix>
</trkpt>
<trkpt lat="40.0710321" lon="-105.2298028">
  <ele>1582.99</ele>
  <time>2026-08-28T17:50:24Z</time>
  <course>126.28</course>
  <speed>7.091191719309245</speed>
  <fix>3d</fix>
</trkpt>
<trkpt lat="40.0710376" lon="-105.2298127">
  <ele>1583.0</ele>
  <time>2026-08-28T17:50:24Z</time>
  <course>125.66</course>
  <speed>7.13</speed>
  <fix>3d</fix>
</trkpt>
<trkpt lat="40.0710283" lon="-105.2297959">
  <ele>1582.99</ele>
  <time>2026-08-28T17:50:24Z</time>
  <course>126.29</course>
  <speed>7.099302782668168</speed>
  <fix>3d</fix>
</trkpt>
<trkpt lat="40.0710376" lon="-105.2298127">
  <ele>1583.0</ele>
  <time>2026-08-28T17:50:24Z</time>
  <course>125.66</course>
  <speed>7.13</speed>
  <fix>3d</fix>
</trkpt>
<trkpt lat="40.0710245" lon="-105.2297891">
  <ele>1583.0</ele>
  <time>2026-08-28T17:50:24Z</time>
  <course>126.29</course>
  <speed>7.099302782668168</speed>
  <fix>3d</fix>
</trkpt>
<trkpt lat="40.0710301" lon="-105.2297991">
  <ele>1583.0</ele>
  <time>2026-08-28T17:50:24Z</time>
  <course>125.66</course>
  <speed>7.14</speed>
  <fix>3d</fix>
</trkpt>
<trkpt lat="40.07102" lon="-105.2297809">
  <ele>1583.0</ele>
  <time>2026-08-28T17:50:24Z</time>
  <course>126.29</course>
  <speed>7.113262261438138</speed>
  <fix>3d</fix>
</trkpt>
<trkpt lat="40.0710301" lon="-105.2297991">
  <ele>1583.0</ele>
  <time>2026-08-28T17:50:24Z</time>
  <course>125.66</course>
  <speed>7.14</speed>
  <fix>3d</fix>
</trkpt>
<trkpt lat="40.0710162" lon="-105.229774">
  <ele>1583.0</ele>
  <time>2026-08-28T17:50:24Z</time>
  <course>126.3</course>
  <speed>7.113262261438138</speed>
  <fix>3d</fix>
</trkpt>
<trkpt lat="40.0710227" lon="-105.2297854">
  <ele>1583.0</ele>
  <time>2026-08-28T17:50:24Z</time>
  <course>125.66</course>
  <speed>7.14</speed>
  <fix>3d</fix>
</trkpt>
<trkpt lat="40.0710125" lon="-105.2297671">
  <ele>1583.01</ele>
  <time>2026-08-28T17:50:24Z</time>
  <course>126.3</course>
  <speed>7.113262261438138</speed>
  <fix>3d</fix>
</trkpt>
<trkpt lat="40.0710227" lon="-105.2297854">
  <ele>1583.0</ele>
  <time>2026-08-28T17:50:24Z</time>
  <course>125.66</course>
  <speed>7.14</speed>
  <fix>3d</fix>
</trkpt>
<trkpt lat="40.0710087" lon="-105.2297603">
  <ele>1583.01</ele>
  <time>2026-08-28T17:50:24Z</time>
  <course>126.3</course>
  <speed>7.121376271480114</speed>
  <fix>3d</fix>
</trkpt>
<trkpt lat="40.0710152" lon="-105.2297719">
  <ele>1583.0</ele>
  <time>2026-08-28T17:50:24Z</time>
  <course>125.66</course>
  <speed>7.15</speed>
  <fix>3d</fix>
</trkpt>
<trkpt lat="40.0710049" lon="-105.2297534">
  <ele>1583.01</ele>
  <time>2026-08-28T17:50:24Z</time>
  <course>126.3</course>
  <speed>7.1272224603978795</speed>
  <fix>3d</fix>
</trkpt>
<trkpt lat="40.0710152" lon="-105.2297719">
  <ele>1583.0</ele>
  <time>2026-08-28T17:50:24Z</time>
  <course>125.66</course>
  <speed>7.15</speed>
  <fix>3d</fix>
</trkpt>
<trkpt lat="40.0710012" lon="-105.2297466">
  <ele>1583.01</ele>
  <time>2026-08-28T17:50:24Z</time>
  <course>126.31</course>
  <speed>7.1272224603978795</speed>
  <fix>3d</fix>
</trkpt>
<trkpt lat="40.0710077" lon="-105.2297582">
  <ele>1583.0</ele>
  <time>2026-08-28T17:50:24Z</time>
  <course>125.66</course>
  <speed>7.15</speed>
  <fix>3d</fix>
</trkpt>
<trkpt lat="40.0709974" lon="-105.2297398">
  <ele>1583.01</ele>
  <time>2026-08-28T17:50:24Z</time>
  <course>126.31</course>
  <speed>7.1272224603978795</speed>
  <fix>3d</fix>
</trkpt>
<trkpt lat="40.0710077" lon="-105.2297582">
  <ele>1583.0</ele>
  <time>2026-08-28T17:50:24Z</time>
  <course>125.66</course>
  <speed>7.15</speed>
  <fix>3d</fix>
</trkpt>
<trkpt lat="40.0709937" lon="-105.229733">
  <ele>1583.01</ele>
  <time>2026-08-28T17:50:24Z</time>
  <course>126.31</course>
  <speed>7.1272224603978795</speed>
  <fix>3d</fix>
</trkpt>
<trkpt lat="40.0710002" lon="-105.2297445">
  <ele>1583.0</ele>
  <time>2026-08-28T17:50:24Z</time>
  <course>125.66</course>
  <speed>7.16</speed>
  <fix>3d</fix>
</trkpt>
<trkpt lat="40.07099" lon="-105.2297263">
  <ele>1583.01</ele>
  <time>2026-08-28T17:50:24Z</time>
  <course>126.32</course>
  <speed>7.1272224603978795</speed>
  <fix>3d</fix>
</trkpt>
<trkpt lat="40.0710002" lon="-105.2297445">
  <ele>1583.0</ele>
  <time>2026-08-28T17:50:24Z</time>
  <course>125.66</course>
  <speed>7.16</speed>
  <fix>3d</fix>
</trkpt>
<trkpt lat="40.0709863" lon="-105.2297195">
  <ele>1583.01</ele>
  <time>2026-08-28T17:50:24Z</time>
  <course>126.32</course>
  <speed>7.1272224603978795</speed>
  <fix>3d</fix>
</trkpt>
<trkpt lat="40.0709927" lon="-105.2297308">
  <ele>1583.0</ele>
  <time>2026-08-28T17:50:24Z</time>
  <course>125.66</course>
  <speed>7.16</speed>
  <fix>3d</fix>
</trkpt>
<trkpt lat="40.0709826" lon="-105.2297127">
  <ele>1583.01</ele>
  <time>2026-08-28T17:50:24Z</time>
  <course>126.32</course>
  <speed>7.113262261438138</speed>
  <fix>3d</fix>
</trkpt>
<trkpt lat="40.0709927" lon="-105.2297308">
  <ele>1583.0</ele>
  <time>2026-08-28T17:50:24Z</time>
  <course>125.66</course>
  <speed>7.16</speed>
  <fix>3d</fix>
</trkpt>
<trkpt lat="40.0709796" lon="-105.2297073">
  <ele>1583.0</ele>
  <time>2026-08-28T17:50:24Z</time>
  <course>126.33</course>
  <speed>7.041200181787193</speed>
  <fix>3d</fix>
</trkpt>
<trkpt lat="40.0709852" lon="-105.2297172">
  <ele>1583.0</ele>
  <time>2026-08-28T17:50:24Z</time>
  <course>125.66</course>
  <speed>7.13</speed>
  <fix>3d</fix>
</trkpt>
<trkpt lat="40.0709759" lon="-105.2297006">
  <ele>1583.01</ele>
  <time>2026-08-28T17:50:24Z</time>
  <course>126.33</course>
  <speed>6.8691556977550015</speed>
  <fix>3d</fix>
</trkpt>
<trkpt lat="40.0709852" lon="-105.2297172">
  <ele>1583.0</ele>
  <time>2026-08-28T17:50:24Z</time>
  <course>125.66</course>
  <speed>7.13</speed>
  <fix>3d</fix>
</trkpt>
<trkpt lat="40.0709724" lon="-105.2296942">
  <ele>1583.01</ele>
  <time>2026-08-28T17:50:24Z</time>
  <course>126.33</course>
  <speed>6.597128163072171</speed>
  <fix>3d</fix>
</trkpt>
<trkpt lat="40.0709778" lon="-105.2297038">
  <ele>1583.0</ele>
  <time>2026-08-28T17:50:24Z</time>
  <course>125.66</course>
  <speed>6.91</speed>
  <fix>3d</fix>
</trkpt>
<trkpt lat="40.070969" lon="-105.229688">
  <ele>1583.01</ele>
  <time>2026-08-28T17:50:24Z</time>
  <course>126.34</course>
  <speed>6.269266304760071</speed>
  <fix>3d</fix>
</trkpt>
<trkpt lat="40.0709778" lon="-105.2297038">
  <ele>1583.0</ele>
  <time>2026-08-28T17:50:24Z</time>
  <course>125.66</course>
  <speed>6.91</speed>
  <fix>3d</fix>
</trkpt>
<trkpt lat="40.0709658" lon="-105.2296822">
  <ele>1583.01</ele>
  <time>2026-08-28T17:50:24Z</time>
  <course>126.34</course>
  <speed>5.9612079312837265</speed>
  <fix>3d</fix>
</trkpt>
<trkpt lat="40.0709708" lon="-105.2296911">
  <ele>1583.0</ele>
  <time>2026-08-28T17:50:24Z</time>
  <course>125.66</course>
  <speed>6.39</speed>
  <fix>3d</fix>
</trkpt>
<trkpt lat="40.0709628" lon="-105.2296766">
  <ele>1583.01</ele>
  <time>2026-08-28T17:50:24Z</time>
  <course>126.34</course>
  <speed>5.667106845648845</speed>
  <fix>3d</fix>
</trkpt>
<trkpt lat="40.0709708" lon="-105.2296911">
  <ele>1583.0</ele>
  <time>2026-08-28T17:50:24Z</time>
  <course>125.66</course>
  <speed>6.39</speed>
  <fix>3d</fix>
</trkpt>
<trkpt lat="40.0709599" lon="-105.2296713">
  <ele>1583.0</ele>
  <time>2026-08-28T17:50:24Z</time>
  <course>126.34</course>
  <speed>5.38924855615326</speed>
  <fix>3d</fix>
</trkpt>
<trkpt lat="40.0709644" lon="-105.2296794">
  <ele>1583.0</ele>
  <time>2026-08-28T17:50:24Z</time>
  <course>125.66</course>
  <speed>5.78</speed>
  <fix>3d</fix>
</trkpt>
<trkpt lat="40.0709571" lon="-105.2296662">
  <ele>1583.0</ele>
  <time>2026-08-28T17:50:24Z</time>
  <course>126.35</course>
  <speed>5.117225810925291</speed>
  <fix>3d</fix>
</trkpt>
<trkpt lat="40.0709644" lon="-105.2296794">
  <ele>1583.0</ele>
  <time>2026-08-28T17:50:24Z</time>
  <course>125.66</course>
  <speed>5.78</speed>
  <fix>3d</fix>
</trkpt>
<trkpt lat="40.0709545" lon="-105.2296615">
  <ele>1583.0</ele>
  <time>2026-08-28T17:50:24Z</time>
  <course>126.35</course>
  <speed>4.859156305368248</speed>
  <fix>3d</fix>
</trkpt>
<trkpt lat="40.0709587" lon="-105.229669">
  <ele>1583.0</ele>
  <time>2026-08-28T17:50:24Z</time>
  <course>125.66</course>
  <speed>5.23</speed>
  <fix>3d</fix>
</trkpt>
<trkpt lat="40.070952" lon="-105.2296569">
  <ele>1583.0</ele>
  <time>2026-08-28T17:50:24Z</time>
  <course>126.35</course>
  <speed>4.617358552246078</speed>
  <fix>3d</fix>
</trkpt>
<trkpt lat="40.0709587" lon="-105.229669">
  <ele>1583.0</ele>
  <time>2026-08-28T17:50:24Z</time>
  <course>125.66</course>
  <speed>5.23</speed>
  <fix>3d</fix>
</trkpt>
<trkpt lat="40.0709492" lon="-105.2296518">
  <ele>1583.0</ele>
  <time>2026-08-28T17:50:24Z</time>
  <course>126.35</course>
  <speed>4.337199557318063</speed>
  <fix>3d</fix>
</trkpt>
<trkpt lat="40.0709535" lon="-105.2296594">
  <ele>1583.0</ele>
  <time>2026-08-28T17:50:24Z</time>
  <course>125.66</course>
  <speed>4.73</speed>
  <fix>3d</fix>
</trkpt>
<trkpt lat="40.070947" lon="-105.2296477">
  <ele>1583.0</ele>
  <time>2026-08-28T17:50:24Z</time>
  <course>126.35</course>
  <speed>4.123311775745317</speed>
  <fix>3d</fix>
</trkpt>
<trkpt lat="40.0709535" lon="-105.2296594">
  <ele>1583.0</ele>
  <time>2026-08-28T17:50:24Z</time>
  <course>125.66</course>
  <speed>4.73</speed>
  <fix>3d</fix>
</trkpt>
<trkpt lat="40.0709449" lon="-105.2296439">
  <ele>1583.0</ele>
  <time>2026-08-28T17:50:24Z</time>
  <course>126.35</course>
  <speed>3.9152266856466946</speed>
  <fix>3d</fix>
</trkpt>
<trkpt lat="40.0709487" lon="-105.2296508">
  <ele>1583.0</ele>
  <time>2026-08-28T17:50:24Z</time>
  <course>125.66</course>
  <speed>4.28</speed>
  <fix>3d</fix>
</trkpt>
<trkpt lat="40.0709429" lon="-105.2296402">
  <ele>1583.0</ele>
  <time>2026-08-28T17:50:24Z</time>
  <course>126.35</course>
  <speed>3.7152927206345394</speed>
  <fix>3d</fix>
</trkpt>
<trkpt lat="40.0709487" lon="-105.2296508">
  <ele>1583.0</ele>
  <time>2026-08-28T17:50:24Z</time>
  <course>125.66</course>
  <speed>4.28</speed>
  <fix>3d</fix>
</trkpt>
<trkpt lat="40.0709411" lon="-105.2296368">
  <ele>1582.99</ele>
  <time>2026-08-28T17:50:24Z</time>
  <course>126.35</course>
  <speed>3.5211503802024704</speed>
  <fix>3d</fix>
</trkpt>
<trkpt lat="40.0709444" lon="-105.2296431">
  <ele>1583.0</ele>
  <time>2026-08-28T17:50:24Z</time>
  <course>125.66</course>
  <speed>3.87</speed>
  <fix>3d</fix>
</trkpt>
<trkpt lat="40.0709393" lon="-105.2296335">
  <ele>1582.99</ele>
  <time>2026-08-28T17:50:24Z</time>
  <course>126.35</course>
  <speed>3.3491043578843587</speed>
  <fix>3d</fix>
</trkpt>
<trkpt lat="40.0709444" lon="-105.2296431">
  <ele>1583.0</ele>
  <time>2026-08-28T17:50:24Z</time>
  <course>125.66</course>
  <speed>3.87</speed>
  <fix>3d</fix>
</trkpt>
<trkpt lat="40.0709376" lon="-105.2296304">
  <ele>1583.0</ele>
  <time>2026-08-28T17:50:24Z</time>
  <course>126.35</course>
  <speed>3.1770583878802103</speed>
  <fix>3d</fix>
</trkpt>
<trkpt lat="40.0709406" lon="-105.229636">
  <ele>1583.0</ele>
  <time>2026-08-28T17:50:24Z</time>
  <course>125.66</course>
  <speed>3.5</speed>
  <fix>3d</fix>
</trkpt>
<trkpt lat="40.070936" lon="-105.2296275">
  <ele>1583.0</ele>
  <time>2026-08-28T17:50:24Z</time>
  <course>126.35</course>
  <speed>3.0131710870775326</speed>
  <fix>3d</fix>
</trkpt>
<trkpt lat="40.0709406" lon="-105.229636">
  <ele>1583.0</ele>
  <time>2026-08-28T17:50:24Z</time>
  <course>125.66</course>
  <speed>3.5</speed>
  <fix>3d</fix>
</trkpt>
<trkpt lat="40.0709345" lon="-105.2296247">
  <ele>1583.0</ele>
  <time>2026-08-28T17:50:24Z</time>
  <course>126.35</course>
  <speed>2.8550656735003486</speed>
  <fix>3d</fix>
</trkpt>
<trkpt lat="40.0709371" lon="-105.2296296">
  <ele>1583.0</ele>
  <time>2026-08-28T17:50:24Z</time>
  <course>125.66</course>
  <speed>3.17</speed>
  <fix>3d</fix>
</trkpt>
<trkpt lat="40.070933" lon="-105.229622">
  <ele>1583.0</ele>
  <time>2026-08-28T17:50:24Z</time>
  <course>126.35</course>
  <speed>2.7109039082933206</speed>
  <fix>3d</fix>
</trkpt>
<trkpt lat="40.0709371" lon="-105.2296296">
  <ele>1583.0</ele>
  <time>2026-08-28T17:50:24Z</time>
  <course>125.66</course>
  <speed>3.17</speed>
  <fix>3d</fix>
</trkpt>
<trkpt lat="40.0709316" lon="-105.2296195">
  <ele>1583.01</ele>
  <time>2026-08-28T17:50:24Z</time>
  <course>126.36</course>
  <speed>2.57489805623446</speed>
  <fix>3d</fix>
</trkpt>
<trkpt lat="40.0709339" lon="-105.2296238">
  <ele>1583.0</ele>
  <time>2026-08-28T17:50:24Z</time>
  <course>125.66</course>
  <speed>2.87</speed>
  <fix>3d</fix>
</trkpt>
<trkpt lat="40.0709306" lon="-105.2296176">
  <ele>1583.01</ele>
  <time>2026-08-28T17:50:24Z</time>
  <course>126.36</course>
  <speed>2.466779276708802</speed>
  <fix>3d</fix>
</trkpt>
<trkpt lat="40.0709339" lon="-105.2296238">
  <ele>1583.0</ele>
  <time>2026-08-28T17:50:24Z</time>
  <course>125.66</course>
  <speed>2.87</speed>
  <fix>3d</fix>
</trkpt>
<trkpt lat="40.0709293" lon="-105.2296153">
  <ele>1583.01</ele>
  <time>2026-08-28T17:50:24Z</time>
  <course>126.36</course>
  <speed>2.3389313799254565</speed>
  <fix>3d</fix>
</trkpt>
<trkpt lat="40.070931" lon="-105.2296187">
  <ele>1583.0</ele>
  <time>2026-08-28T17:50:24Z</time>
  <course>125.66</course>
  <speed>2.6</speed>
  <fix>3d</fix>
</trkpt>
<trkpt lat="40.0709281" lon="-105.2296131">
  <ele>1583.0</ele>
  <time>2026-08-28T17:50:24Z</time>
  <course>126.36</course>
  <speed>2.2168671588527804</speed>
  <fix>3d</fix>
</trkpt>
<trkpt lat="40.070931" lon="-105.2296187">
  <ele>1583.0</ele>
  <time>2026-08-28T17:50:24Z</time>
  <course>125.66</course>
  <speed>2.6</speed>
  <fix>3d</fix>
</trkpt>
<trkpt lat="40.0709269" lon="-105.229611">
  <ele>1583.0</ele>
  <time>2026-08-28T17:50:24Z</time>
  <course>126.36</course>
  <speed>2.1005951537600005</speed>
  <fix>3d</fix>
</trkpt>
<trkpt lat="40.0709285" lon="-105.2296139">
  <ele>1583.0</ele>
  <time>2026-08-28T17:50:24Z</time>
  <course>125.66</course>
  <speed>2.35</speed>
  <fix>3d</fix>
</trkpt>
<trkpt lat="40.0709258" lon="-105.229609">
  <ele>1583.0</ele>
  <time>2026-08-28T17:50:24Z</time>
  <course>126.36</course>
  <speed>2.000624902374256</speed>
  <fix>3d</fix>
</trkpt>
<trkpt lat="40.0709285" lon="-105.2296139">
  <ele>1583.0</ele>
  <time>2026-08-28T17:50:24Z</time>
  <course>125.66</course>
  <speed>2.35</speed>
  <fix>3d</fix>
</trkpt>
<trkpt lat="40.0709248" lon="-105.2296071">
  <ele>1583.0</ele>
  <time>2026-08-28T17:50:24Z</time>
  <course>126.36</course>
  <speed>1.8925115587493777</speed>
  <fix>3d</fix>
</trkpt>
<trkpt lat="40.0709261" lon="-105.2296097">
  <ele>1583.0</ele>
  <time>2026-08-28T17:50:24Z</time>
  <course>125.66</course>
  <speed>2.12</speed>
  <fix>3d</fix>
</trkpt>
<trkpt lat="40.0709238" lon="-105.2296053">
  <ele>1582.99</ele>
  <time>2026-08-28T17:50:24Z</time>
  <course>126.36</course>
  <speed>1.7925400971805345</speed>
  <fix>3d</fix>
</trkpt>
<trkpt lat="40.0709261" lon="-105.2296097">
  <ele>1583.0</ele>
  <time>2026-08-28T17:50:24Z</time>
  <course>125.66</course>
  <speed>2.12</speed>
  <fix>3d</fix>
</trkpt>
<trkpt lat="40.0709228" lon="-105.2296035">
  <ele>1582.99</ele>
  <time>2026-08-28T17:50:24Z</time>
  <course>126.36</course>
  <speed>1.7065169205138284</speed>
  <fix>3d</fix>
</trkpt>
<trkpt lat="40.070924" lon="-105.2296058">
  <ele>1583.0</ele>
  <time>2026-08-28T17:50:24Z</time>
  <course>125.66</course>
  <speed>1.92</speed>
  <fix>3d</fix>
</trkpt>
<trkpt lat="39.655741" lon="-104.1383097">
  <ele>1566.58</ele>
  <time>2026-08-28T17:50:25Z</time>
  <course>0.0</course>
  <speed>0.0</speed>
  <fix>3d</fix>
</trkpt>
<trkpt lat="40.0713749" lon="-105.229789">
  <ele>1583.0</ele>
  <time>2026-08-28T17:50:25Z</time>
  <course>0.0</course>
  <speed>0.0</speed>
  <fix>3d</fix>
</trkpt>
<trkpt lat="40.0713749" lon="-105.229789">
  <ele>1583.0</ele>
  <time>2026-08-28T17:50:25Z</time>
  <course>238.36</course>
  <speed>0.0</speed>
  <fix>3d</fix>
</trkpt>
<trkpt lat="40.0713749" lon="-105.229789">
  <ele>1583.0</ele>
  <time>2026-08-28T17:50:25Z</time>
  <course>0.0</course>
  <speed>0.0</speed>
  <fix>3d</fix>
</trkpt>
<trkpt lat="40.0713749" lon="-105.229789">
  <ele>1583.0</ele>
  <time>2026-08-28T17:50:25Z</time>
  <course>238.44</course>
  <speed>0.0</speed>
  <fix>3d</fix>
</trkpt>
<trkpt lat="40.0713749" lon="-105.229789">
  <ele>1583.0</ele>
  <time>2026-08-28T17:50:25Z</time>
  <course>0.0</course>
  <speed>0.0</speed>
  <fix>3d</fix>
</trkpt>
<trkpt lat="40.0713749" lon="-105.229789">
  <ele>1583.0</ele>
  <time>2026-08-28T17:50:25Z</time>
  <course>238.64</course>
  <speed>0.0</speed>
  <fix>3d</fix>
</trkpt>
<trkpt lat="40.0713749" lon="-105.229789">
  <ele>1583.0</ele>
  <time>2026-08-28T17:50:25Z</time>
  <course>0.0</course>
  <speed>0.0</speed>
  <fix>3d</fix>
</trkpt>
<trkpt lat="40.0713749" lon="-105.229789">
  <ele>1583.0</ele>
  <time>2026-08-28T17:50:25Z</time>
  <course>238.93</course>
  <speed>0.0</speed>
  <fix>3d</fix>
</trkpt>
<trkpt lat="40.0713749" lon="-105.229789">
  <ele>1583.0</ele>
  <time>2026-08-28T17:50:25Z</time>
  <course>0.0</course>
  <speed>0.0</speed>
  <fix>3d</fix>
</trkpt>
<trkpt lat="40.0713749" lon="-105.229789">
  <ele>1583.0</ele>
  <time>2026-08-28T17:50:25Z</time>
  <course>239.26</course>
  <speed>0.0</speed>
  <fix>3d</fix>
</trkpt>
<trkpt lat="40.0713749" lon="-105.229789">
  <ele>1583.0</ele>
  <time>2026-08-28T17:50:25Z</time>
  <course>0.0</course>
  <speed>0.0</speed>
  <fix>3d</fix>
</trkpt>
<trkpt lat="40.0713749" lon="-105.229789">
  <ele>1583.0</ele>
  <time>2026-08-28T17:50:25Z</time>
  <course>239.61</course>
  <speed>0.0</speed>
  <fix>3d</fix>
</trkpt>
<trkpt lat="40.0713749" lon="-105.229789">
  <ele>1583.0</ele>
  <time>2026-08-28T17:50:25Z</time>
  <course>0.0</course>
  <speed>0.0</speed>
  <fix>3d</fix>
</trkpt>
<trkpt lat="40.0713749" lon="-105.229789">
  <ele>1583.0</ele>
  <time>2026-08-28T17:50:25Z</time>
  <course>239.96</course>
  <speed>0.0</speed>
  <fix>3d</fix>
</trkpt>
<trkpt lat="40.0713749" lon="-105.229789">
  <ele>1583.0</ele>
  <time>2026-08-28T17:50:25Z</time>
  <course>0.0</course>
  <speed>0.0</speed>
  <fix>3d</fix>
</trkpt>
<trkpt lat="40.0713749" lon="-105.229789">
  <ele>1583.0</ele>
  <time>2026-08-28T17:50:25Z</time>
  <course>240.29</course>
  <speed>0.0</speed>
  <fix>3d</fix>
</trkpt>
<trkpt lat="40.0713749" lon="-105.229789">
  <ele>1583.0</ele>
  <time>2026-08-28T17:50:25Z</time>
  <course>0.0</course>
  <speed>0.0</speed>
  <fix>3d</fix>
</trkpt>
<trkpt lat="40.0713749" lon="-105.229789">
  <ele>1583.0</ele>
  <time>2026-08-28T17:50:25Z</time>
  <course>240.61</course>
  <speed>0.0</speed>
  <fix>3d</fix>
</trkpt>
<trkpt lat="40.0713749" lon="-105.229789">
  <ele>1583.0</ele>
  <time>2026-08-28T17:50:25Z</time>
  <course>0.0</course>
  <speed>0.0</speed>
  <fix>3d</fix>
</trkpt>
<trkpt lat="40.0713749" lon="-105.229789">
  <ele>1583.0</ele>
  <time>2026-08-28T17:50:25Z</time>
  <course>240.92</course>
  <speed>0.0</speed>
  <fix>3d</fix>
</trkpt>
<trkpt lat="40.0713749" lon="-105.229789">
  <ele>1583.0</ele>
  <time>2026-08-28T17:50:25Z</time>
  <course>0.0</course>
  <speed>0.0</speed>
  <fix>3d</fix>
</trkpt>
<trkpt lat="40.0713749" lon="-105.229789">
  <ele>1583.0</ele>
  <time>2026-08-28T17:50:25Z</time>
  <course>241.21</course>
  <speed>0.0</speed>
  <fix>3d</fix>
</trkpt>
<trkpt lat="40.0713749" lon="-105.229789">
  <ele>1583.0</ele>
  <time>2026-08-28T17:50:25Z</time>
  <course>0.0</course>
  <speed>0.0</speed>
  <fix>3d</fix>
</trkpt>
<trkpt lat="40.0713749" lon="-105.229789">
  <ele>1583.0</ele>
  <time>2026-08-28T17:50:25Z</time>
  <course>241.49</course>
  <speed>0.0</speed>
  <fix>3d</fix>
</trkpt>
<trkpt lat="40.0713749" lon="-105.229789">
  <ele>1583.0</ele>
  <time>2026-08-28T17:50:25Z</time>
  <course>0.0</course>
  <speed>0.0</speed>
  <fix>3d</fix>
</trkpt>
<trkpt lat="40.0713749" lon="-105.229789">
  <ele>1583.0</ele>
  <time>2026-08-28T17:50:25Z</time>
  <course>241.77</course>
  <speed>0.0</speed>
  <fix>3d</fix>
</trkpt>
<trkpt lat="40.0713749" lon="-105.229789">
  <ele>1583.0</ele>
  <time>2026-08-28T17:50:25Z</time>
  <course>0.0</course>
  <speed>0.0</speed>
  <fix>3d</fix>
</trkpt>
<trkpt lat="40.0713749" lon="-105.229789">
  <ele>1583.0</ele>
  <time>2026-08-28T17:50:25Z</time>
  <course>242.03</course>
  <speed>0.0</speed>
  <fix>3d</fix>
</trkpt>
<trkpt lat="40.0713749" lon="-105.229789">
  <ele>1583.0</ele>
  <time>2026-08-28T17:50:25Z</time>
  <course>0.0</course>
  <speed>0.0</speed>
  <fix>3d</fix>
</trkpt>
<trkpt lat="40.0713749" lon="-105.229789">
  <ele>1583.0</ele>
  <time>2026-08-28T17:50:25Z</time>
  <course>242.29</course>
  <speed>0.0</speed>
  <fix>3d</fix>
</trkpt>
<trkpt lat="40.0713749" lon="-105.229789">
  <ele>1583.0</ele>
  <time>2026-08-28T17:50:25Z</time>
  <course>0.0</course>
  <speed>0.0</speed>
  <fix>3d</fix>
</trkpt>
<trkpt lat="40.0713749" lon="-105.229789">
  <ele>1583.0</ele>
  <time>2026-08-28T17:50:25Z</time>
  <course>242.54</course>
  <speed>0.0</speed>
  <fix>3d</fix>
</trkpt>
<trkpt lat="40.0713749" lon="-105.229789">
  <ele>1583.0</ele>
  <time>2026-08-28T17:50:25Z</time>
  <course>0.0</course>
  <speed>0.0</speed>
  <fix>3d</fix>
</trkpt>
<trkpt lat="40.0713749" lon="-105.229789">
  <ele>1583.0</ele>
  <time>2026-08-28T17:50:25Z</time>
  <course>242.79</course>
  <speed>0.0</speed>
  <fix>3d</fix>
</trkpt>
<trkpt lat="40.0713749" lon="-105.229789">
  <ele>1583.0</ele>
  <time>2026-08-28T17:50:25Z</time>
  <course>0.0</course>
  <speed>0.0</speed>
  <fix>3d</fix>
</trkpt>
<trkpt lat="40.0713749" lon="-105.229789">
  <ele>1583.0</ele>
  <time>2026-08-28T17:50:25Z</time>
  <course>243.02</course>
  <speed>0.0</speed>
  <fix>3d</fix>
</trkpt>
<trkpt lat="40.0713749" lon="-105.229789">
  <ele>1583.0</ele>
  <time>2026-08-28T17:50:25Z</time>
  <course>0.0</course>
  <speed>0.0</speed>
  <fix>3d</fix>
</trkpt>
<trkpt lat="40.0713749" lon="-105.229789">
  <ele>1583.0</ele>
  <time>2026-08-28T17:50:25Z</time>
  <course>243.25</course>
  <speed>0.0</speed>
  <fix>3d</fix>
</trkpt>
<trkpt lat="40.0713749" lon="-105.229789">
  <ele>1583.0</ele>
  <time>2026-08-28T17:50:25Z</time>
  <course>0.0</course>
  <speed>0.0</speed>
  <fix>3d</fix>
</trkpt>
<trkpt lat="40.0713749" lon="-105.229789">
  <ele>1583.0</ele>
  <time>2026-08-28T17:50:25Z</time>
  <course>243.47</course>
  <speed>0.0</speed>
  <fix>3d</fix>
</trkpt>
<trkpt lat="40.0713749" lon="-105.229789">
  <ele>1583.0</ele>
  <time>2026-08-28T17:50:25Z</time>
  <course>0.0</course>
  <speed>0.0</speed>
  <fix>3d</fix>
</trkpt>
<trkpt lat="40.0713749" lon="-105.229789">
  <ele>1583.0</ele>
  <time>2026-08-28T17:50:25Z</time>
  <course>243.68</course>
  <speed>0.0</speed>
  <fix>3d</fix>
</trkpt>
<trkpt lat="40.0713749" lon="-105.229789">
  <ele>1583.0</ele>
  <time>2026-08-28T17:50:25Z</time>
  <course>0.0</course>
  <speed>0.0</speed>
  <fix>3d</fix>
</trkpt>
<trkpt lat="40.0713749" lon="-105.229789">
  <ele>1583.0</ele>
  <time>2026-08-28T17:50:25Z</time>
  <course>243.89</course>
  <speed>0.0</speed>
  <fix>3d</fix>
</trkpt>
<trkpt lat="40.0713749" lon="-105.229789">
  <ele>1583.0</ele>
  <time>2026-08-28T17:50:25Z</time>
  <course>0.0</course>
  <speed>0.0</speed>
  <fix>3d</fix>
</trkpt>
<trkpt lat="40.0713749" lon="-105.229789">
  <ele>1583.0</ele>
  <time>2026-08-28T17:50:25Z</time>
  <course>244.09</course>
  <speed>0.0</speed>
  <fix>3d</fix>
</trkpt>
<trkpt lat="40.0713749" lon="-105.229789">
  <ele>1583.0</ele>
  <time>2026-08-28T17:50:25Z</time>
  <course>0.0</course>
  <speed>0.0</speed>
  <fix>3d</fix>
</trkpt>
<trkpt lat="40.0713749" lon="-105.229789">
  <ele>1583.0</ele>
  <time>2026-08-28T17:50:25Z</time>
  <course>244.28</course>
  <speed>0.0</speed>
  <fix>3d</fix>
</trkpt>
<trkpt lat="40.0713749" lon="-105.229789">
  <ele>1583.0</ele>
  <time>2026-08-28T17:50:25Z</time>
  <course>0.0</course>
  <speed>0.0</speed>
  <fix>3d</fix>
</trkpt>
<trkpt lat="40.0713749" lon="-105.229789">
  <ele>1583.0</ele>
  <time>2026-08-28T17:50:25Z</time>
  <course>244.46</course>
  <speed>0.0</speed>
  <fix>3d</fix>
</trkpt>
<trkpt lat="40.0713749" lon="-105.229789">
  <ele>1583.0</ele>
  <time>2026-08-28T17:50:25Z</time>
  <course>0.0</course>
  <speed>0.0</speed>
  <fix>3d</fix>
</trkpt>
<trkpt lat="40.0713749" lon="-105.229789">
  <ele>1583.0</ele>
  <time>2026-08-28T17:50:25Z</time>
  <course>244.64</course>
  <speed>0.0</speed>
  <fix>3d</fix>
</trkpt>
<trkpt lat="40.0713749" lon="-105.229789">
  <ele>1583.0</ele>
  <time>2026-08-28T17:50:25Z</time>
  <course>0.0</course>
  <speed>0.0</speed>
  <fix>3d</fix>
</trkpt>
<trkpt lat="40.0713749" lon="-105.229789">
  <ele>1583.0</ele>
  <time>2026-08-28T17:50:25Z</time>
  <course>244.81</course>
  <speed>0.0</speed>
  <fix>3d</fix>
</trkpt>
<trkpt lat="40.0713749" lon="-105.229789">
  <ele>1583.0</ele>
  <time>2026-08-28T17:50:25Z</time>
  <course>0.0</course>
  <speed>0.0</speed>
  <fix>3d</fix>
</trkpt>
<trkpt lat="40.0713749" lon="-105.229789">
  <ele>1583.0</ele>
  <time>2026-08-28T17:50:25Z</time>
  <course>244.97</course>
  <speed>0.0</speed>
  <fix>3d</fix>
</trkpt>
<trkpt lat="40.0713749" lon="-105.229789">
  <ele>1583.0</ele>
  <time>2026-08-28T17:50:25Z</time>
  <course>0.0</course>
  <speed>0.0</speed>
  <fix>3d</fix>
</trkpt>
<trkpt lat="40.0713749" lon="-105.229789">
  <ele>1583.0</ele>
  <time>2026-08-28T17:50:25Z</time>
  <course>245.13</course>
  <speed>0.0</speed>
  <fix>3d</fix>
</trkpt>
<trkpt lat="40.0713749" lon="-105.229789">
  <ele>1583.0</ele>
  <time>2026-08-28T17:50:25Z</time>
  <course>0.0</course>
  <speed>0.0</speed>
  <fix>3d</fix>
</trkpt>
<trkpt lat="40.0713749" lon="-105.229789">
  <ele>1583.0</ele>
  <time>2026-08-28T17:50:25Z</time>
  <course>245.29</course>
  <speed>0.0</speed>
  <fix>3d</fix>
</trkpt>
<trkpt lat="40.0713749" lon="-105.229789">
  <ele>1583.0</ele>
  <time>2026-08-28T17:50:25Z</time>
  <course>0.0</course>
  <speed>0.0</speed>
  <fix>3d</fix>
</trkpt>
<trkpt lat="40.0713749" lon="-105.229789">
  <ele>1583.0</ele>
  <time>2026-08-28T17:50:25Z</time>
  <course>245.43</course>
  <speed>0.0</speed>
  <fix>3d</fix>
</trkpt>
<trkpt lat="40.0713749" lon="-105.229789">
  <ele>1583.0</ele>
  <time>2026-08-28T17:50:25Z</time>
  <course>0.0</course>
  <speed>0.0</speed>
  <fix>3d</fix>
</trkpt>
<trkpt lat="40.0713749" lon="-105.229789">
  <ele>1583.0</ele>
  <time>2026-08-28T17:50:25Z</time>
  <course>245.57</course>
  <speed>0.0</speed>
  <fix>3d</fix>
</trkpt>
<trkpt lat="40.0713749" lon="-105.229789">
  <ele>1583.0</ele>
  <time>2026-08-28T17:50:25Z</time>
  <course>0.0</course>
  <speed>0.0</speed>
  <fix>3d</fix>
</trkpt>
<trkpt lat="40.0713749" lon="-105.229789">
  <ele>1583.0</ele>
  <time>2026-08-28T17:50:25Z</time>
  <course>245.71</course>
  <speed>0.0</speed>
  <fix>3d</fix>
</trkpt>
<trkpt lat="40.0713749" lon="-105.229789">
  <ele>1583.0</ele>
  <time>2026-08-28T17:50:25Z</time>
  <course>0.0</course>
  <speed>0.0</speed>
  <fix>3d</fix>
</trkpt>
<trkpt lat="40.0713749" lon="-105.229789">
  <ele>1583.0</ele>
  <time>2026-08-28T17:50:25Z</time>
  <course>245.84</course>
  <speed>0.0</speed>
  <fix>3d</fix>
</trkpt>
<trkpt lat="40.0713749" lon="-105.229789">
  <ele>1583.0</ele>
  <time>2026-08-28T17:50:25Z</time>
  <course>0.0</course>
  <speed>0.0</speed>
  <fix>3d</fix>
</trkpt>
<trkpt lat="40.0713749" lon="-105.229789">
  <ele>1583.0</ele>
  <time>2026-08-28T17:50:25Z</time>
  <course>245.96</course>
  <speed>0.0</speed>
  <fix>3d</fix>
</trkpt>
<trkpt lat="40.0713749" lon="-105.229789">
  <ele>1583.0</ele>
  <time>2026-08-28T17:50:25Z</time>
  <course>0.0</course>
  <speed>0.0</speed>
  <fix>3d</fix>
</trkpt>
<trkpt lat="40.0713749" lon="-105.229789">
  <ele>1583.0</ele>
  <time>2026-08-28T17:50:25Z</time>
  <course>246.08</course>
  <speed>0.0</speed>
  <fix>3d</fix>
</trkpt>
<trkpt lat="40.0713749" lon="-105.229789">
  <ele>1583.0</ele>
  <time>2026-08-28T17:50:25Z</time>
  <course>0.0</course>
  <speed>0.0</speed>
  <fix>3d</fix>
</trkpt>
<trkpt lat="40.0713749" lon="-105.229789">
  <ele>1583.0</ele>
  <time>2026-08-28T17:50:25Z</time>
  <course>246.19</course>
  <speed>0.0</speed>
  <fix>3d</fix>
</trkpt>
<trkpt lat="40.0713749" lon="-105.229789">
  <ele>1583.0</ele>
  <time>2026-08-28T17:50:25Z</time>
  <course>0.0</course>
  <speed>0.0</speed>
  <fix>3d</fix>
</trkpt>
<trkpt lat="40.0713749" lon="-105.229789">
  <ele>1583.0</ele>
  <time>2026-08-28T17:50:25Z</time>
  <course>246.3</course>
  <speed>0.0</speed>
  <fix>3d</fix>
</trkpt>
<trkpt lat="40.0713749" lon="-105.229789">
  <ele>1583.0</ele>
  <time>2026-08-28T17:50:25Z</time>
  <course>0.0</course>
  <speed>0.0</speed>
  <fix>3d</fix>
</trkpt>
<trkpt lat="40.0713749" lon="-105.229789">
  <ele>1583.0</ele>
  <time>2026-08-28T17:50:25Z</time>
  <course>246.41</course>
  <speed>0.0</speed>
  <fix>3d</fix>
</trkpt>
<trkpt lat="40.0713749" lon="-105.229789">
  <ele>1583.0</ele>
  <time>2026-08-28T17:50:25Z</time>
  <course>0.0</course>
  <speed>0.0</speed>
  <fix>3d</fix>
</trkpt>
<trkpt lat="40.0713749" lon="-105.229789">
  <ele>1583.0</ele>
  <time>2026-08-28T17:50:25Z</time>
  <course>246.51</course>
  <speed>0.0</speed>
  <fix>3d</fix>
</trkpt>
<trkpt lat="40.0713749" lon="-105.229789">
  <ele>1583.0</ele>
  <time>2026-08-28T17:50:25Z</time>
  <course>0.0</course>
  <speed>0.0</speed>
  <fix>3d</fix>
</trkpt>
<trkpt lat="40.0713749" lon="-105.229789">
  <ele>1583.0</ele>
  <time>2026-08-28T17:50:25Z</time>
  <course>246.6</course>
  <speed>0.0</speed>
  <fix>3d</fix>
</trkpt>
<trkpt lat="40.0713749" lon="-105.229789">
  <ele>1583.0</ele>
  <time>2026-08-28T17:50:25Z</time>
  <course>0.0</course>
  <speed>0.0</speed>
  <fix>3d</fix>
</trkpt>
<trkpt lat="40.0713749" lon="-105.229789">
  <ele>1583.0</ele>
  <time>2026-08-28T17:50:25Z</time>
  <course>246.7</course>
  <speed>0.0</speed>
  <fix>3d</fix>
</trkpt>
<trkpt lat="40.0713749" lon="-105.229789">
  <ele>1583.0</ele>
  <time>2026-08-28T17:50:25Z</time>
  <course>0.0</course>
  <speed>0.0</speed>
  <fix>3d</fix>
</trkpt>
<trkpt lat="40.0713749" lon="-105.229789">
  <ele>1583.0</ele>
  <time>2026-08-28T17:50:25Z</time>
  <course>246.78</course>
  <speed>0.0</speed>
  <fix>3d</fix>
</trkpt>
<trkpt lat="40.0713749" lon="-105.229789">
  <ele>1583.0</ele>
  <time>2026-08-28T17:50:25Z</time>
  <course>0.0</course>
  <speed>0.0</speed>
  <fix>3d</fix>
</trkpt>
<trkpt lat="40.0713749" lon="-105.229789">
  <ele>1583.0</ele>
  <time>2026-08-28T17:50:25Z</time>
  <course>246.87</course>
  <speed>0.0</speed>
  <fix>3d</fix>
</trkpt>
<trkpt lat="40.0713749" lon="-105.229789">
  <ele>1583.0</ele>
  <time>2026-08-28T17:50:25Z</time>
  <course>0.0</course>
  <speed>0.0</speed>
  <fix>3d</fix>
</trkpt>
<trkpt lat="40.0713749" lon="-105.229789">
  <ele>1583.0</ele>
  <time>2026-08-28T17:50:25Z</time>
  <course>246.95</course>
  <speed>0.0</speed>
  <fix>3d</fix>
</trkpt>
<trkpt lat="40.0713749" lon="-105.229789">
  <ele>1583.0</ele>
  <time>2026-08-28T17:50:25Z</time>
  <course>0.0</course>
  <speed>0.0</speed>
  <fix>3d</fix>
</trkpt>
<trkpt lat="40.0713749" lon="-105.229789">
  <ele>1583.0</ele>
  <time>2026-08-28T17:50:25Z</time>
  <course>247.02</course>
  <speed>0.0</speed>
  <fix>3d</fix>
</trkpt>
<trkpt lat="40.0713749" lon="-105.229789">
  <ele>1583.0</ele>
  <time>2026-08-28T17:50:25Z</time>
  <course>0.0</course>
  <speed>0.0</speed>
  <fix>3d</fix>
</trkpt>
<trkpt lat="40.0713749" lon="-105.229789">
  <ele>1583.0</ele>
  <time>2026-08-28T17:50:25Z</time>
  <course>247.1</course>
  <speed>0.0</speed>
  <fix>3d</fix>
</trkpt>
<trkpt lat="40.0713749" lon="-105.229789">
  <ele>1583.0</ele>
  <time>2026-08-28T17:50:25Z</time>
  <course>0.0</course>
  <speed>0.0</speed>
  <fix>3d</fix>
</trkpt>
<trkpt lat="40.0713749" lon="-105.229789">
  <ele>1583.0</ele>
  <time>2026-08-28T17:50:25Z</time>
  <course>247.17</course>
  <speed>0.0</speed>
  <fix>3d</fix>
</trkpt>
<trkpt lat="40.0713749" lon="-105.229789">
  <ele>1583.0</ele>
  <time>2026-08-28T17:50:25Z</time>
  <course>0.0</course>
  <speed>0.0</speed>
  <fix>3d</fix>
</trkpt>
<trkpt lat="40.0713749" lon="-105.229789">
  <ele>1583.0</ele>
  <time>2026-08-28T17:50:25Z</time>
  <course>247.24</course>
  <speed>0.0</speed>
  <fix>3d</fix>
</trkpt>
<trkpt lat="40.0713749" lon="-105.229789">
  <ele>1583.0</ele>
  <time>2026-08-28T17:50:25Z</time>
  <course>0.0</course>
  <speed>0.0</speed>
  <fix>3d</fix>
</trkpt>
<trkpt lat="40.0713749" lon="-105.229789">
  <ele>1583.0</ele>
  <time>2026-08-28T17:50:25Z</time>
  <course>247.3</course>
  <speed>0.0</speed>
  <fix>3d</fix>
</trkpt>
<trkpt lat="40.0713749" lon="-105.229789">
  <ele>1583.0</ele>
  <time>2026-08-28T17:50:25Z</time>
  <course>0.0</course>
  <speed>0.0</speed>
  <fix>3d</fix>
</trkpt>
<trkpt lat="40.0713749" lon="-105.229789">
  <ele>1583.0</ele>
  <time>2026-08-28T17:50:25Z</time>
  <course>247.36</course>
  <speed>0.0</speed>
  <fix>3d</fix>
</trkpt>
<trkpt lat="40.0713749" lon="-105.229789">
  <ele>1583.0</ele>
  <time>2026-08-28T17:50:25Z</time>
  <course>0.0</course>
  <speed>0.0</speed>
  <fix>3d</fix>
</trkpt>
<trkpt lat="40.0713749" lon="-105.229789">
  <ele>1583.0</ele>
  <time>2026-08-28T17:50:25Z</time>
  <course>247.42</course>
  <speed>0.0</speed>
  <fix>3d</fix>
</trkpt>
<trkpt lat="40.0713749" lon="-105.229789">
  <ele>1583.0</ele>
  <time>2026-08-28T17:50:25Z</time>
  <course>0.0</course>
  <speed>0.0</speed>
  <fix>3d</fix>
</trkpt>
<trkpt lat="40.0713749" lon="-105.229789">
  <ele>1583.0</ele>
  <time>2026-08-28T17:50:25Z</time>
  <course>247.47</course>
  <speed>0.0</speed>
  <fix>3d</fix>
</trkpt>
<trkpt lat="40.0713749" lon="-105.229789">
  <ele>1583.0</ele>
  <time>2026-08-28T17:50:25Z</time>
  <course>0.0</course>
  <speed>0.0</speed>
  <fix>3d</fix>
</trkpt>
<trkpt lat="40.0713749" lon="-105.229789">
  <ele>1583.0</ele>
  <time>2026-08-28T17:50:25Z</time>
  <course>247.53</course>
  <speed>0.0</speed>
  <fix>3d</fix>
</trkpt>
<trkpt lat="40.0713749" lon="-105.229789">
  <ele>1583.0</ele>
  <time>2026-08-28T17:50:25Z</time>
  <course>0.0</course>
  <speed>0.0</speed>
  <fix>3d</fix>
</trkpt>
<trkpt lat="40.0713749" lon="-105.229789">
  <ele>1583.0</ele>
  <time>2026-08-28T17:50:25Z</time>
  <course>247.58</course>
  <speed>0.0</speed>
  <fix>3d</fix>
</trkpt>
<trkpt lat="40.0713749" lon="-105.229789">
  <ele>1583.0</ele>
  <time>2026-08-28T17:50:25Z</time>
  <course>0.0</course>
  <speed>0.0</speed>
  <fix>3d</fix>
</trkpt>
<trkpt lat="40.0713749" lon="-105.229789">
  <ele>1583.0</ele>
  <time>2026-08-28T17:50:25Z</time>
  <course>247.63</course>
  <speed>0.0</speed>
  <fix>3d</fix>
</trkpt>
<trkpt lat="40.0713749" lon="-105.229789">
  <ele>1583.0</ele>
  <time>2026-08-28T17:50:25Z</time>
  <course>0.0</course>
  <speed>0.0</speed>
  <fix>3d</fix>
</trkpt>
<trkpt lat="40.0713749" lon="-105.229789">
  <ele>1583.0</ele>
  <time>2026-08-28T17:50:25Z</time>
  <course>247.67</course>
  <speed>0.0</speed>
  <fix>3d</fix>
</trkpt>
<trkpt lat="40.0713749" lon="-105.229789">
  <ele>1583.0</ele>
  <time>2026-08-28T17:50:25Z</time>
  <course>0.0</course>
  <speed>0.0</speed>
  <fix>3d</fix>
</trkpt>
<trkpt lat="40.0713749" lon="-105.229789">
  <ele>1583.0</ele>
  <time>2026-08-28T17:50:25Z</time>
  <course>247.72</course>
  <speed>0.0</speed>
  <fix>3d</fix>
</trkpt>
<trkpt lat="40.0713749" lon="-105.229789">
  <ele>1583.0</ele>
  <time>2026-08-28T17:50:25Z</time>
  <course>0.0</course>
  <speed>0.0</speed>
  <fix>3d</fix>
</trkpt>
<trkpt lat="40.0713749" lon="-105.229789">
  <ele>1583.0</ele>
  <time>2026-08-28T17:50:25Z</time>
  <course>247.76</course>
  <speed>0.0</speed>
  <fix>3d</fix>
</trkpt>
<trkpt lat="40.0713749" lon="-105.229789">
  <ele>1583.0</ele>
  <time>2026-08-28T17:50:25Z</time>
  <course>0.0</course>
  <speed>0.0</speed>
  <fix>3d</fix>
</trkpt>
<trkpt lat="40.0713749" lon="-105.229789">
  <ele>1583.0</ele>
  <time>2026-08-28T17:50:25Z</time>
  <course>247.8</course>
  <speed>0.0</speed>
  <fix>3d</fix>
</trkpt>
<trkpt lat="40.0713749" lon="-105.229789">
  <ele>1583.0</ele>
  <time>2026-08-28T17:50:25Z</time>
  <course>0.0</course>
  <speed>0.0</speed>
  <fix>3d</fix>
</trkpt>
<trkpt lat="40.0713749" lon="-105.229789">
  <ele>1583.0</ele>
  <time>2026-08-28T17:50:25Z</time>
  <course>247.83</course>
  <speed>0.0</speed>
  <fix>3d</fix>
</trkpt>
<trkpt lat="40.0713749" lon="-105.229789">
  <ele>1583.0</ele>
  <time>2026-08-28T17:50:25Z</time>
  <course>0.0</course>
  <speed>0.0</speed>
  <fix>3d</fix>
</trkpt>
<trkpt lat="40.0713749" lon="-105.229789">
  <ele>1583.0</ele>
  <time>2026-08-28T17:50:25Z</time>
  <course>247.87</course>
  <speed>0.0</speed>
  <fix>3d</fix>
</trkpt>
<trkpt lat="40.0713749" lon="-105.229789">
  <ele>1583.0</ele>
  <time>2026-08-28T17:50:25Z</time>
  <course>0.0</course>
  <speed>0.0</speed>
  <fix>3d</fix>
</trkpt>
<trkpt lat="40.0713749" lon="-105.229789">
  <ele>1583.0</ele>
  <time>2026-08-28T17:50:25Z</time>
  <course>247.9</course>
  <speed>0.0</speed>
  <fix>3d</fix>
</trkpt>
<trkpt lat="40.0713749" lon="-105.229789">
  <ele>1583.0</ele>
  <time>2026-08-28T17:50:25Z</time>
  <course>0.0</course>
  <speed>0.0</speed>
  <fix>3d</fix>
</trkpt>
<trkpt lat="40.0713749" lon="-105.229789">
  <ele>1583.0</ele>
  <time>2026-08-28T17:50:25Z</time>
  <course>247.94</course>
  <speed>0.0</speed>
  <fix>3d</fix>
</trkpt>
<trkpt lat="40.0713749" lon="-105.229789">
  <ele>1583.0</ele>
  <time>2026-08-28T17:50:25Z</time>
  <course>0.0</course>
  <speed>0.0</speed>
  <fix>3d</fix>
</trkpt>
<trkpt lat="40.0713749" lon="-105.229789">
  <ele>1583.0</ele>
  <time>2026-08-28T17:50:25Z</time>
  <course>247.97</course>
  <speed>0.0</speed>
  <fix>3d</fix>
</trkpt>
<trkpt lat="40.0713749" lon="-105.229789">
  <ele>1583.0</ele>
  <time>2026-08-28T17:50:25Z</time>
  <course>0.0</course>
  <speed>0.0</speed>
  <fix>3d</fix>
</trkpt>
<trkpt lat="40.0713749" lon="-105.229789">
  <ele>1583.0</ele>
  <time>2026-08-28T17:50:25Z</time>
  <course>248.0</course>
  <speed>0.0</speed>
  <fix>3d</fix>
</trkpt>
<trkpt lat="40.0713749" lon="-105.229789">
  <ele>1583.0</ele>
  <time>2026-08-28T17:50:25Z</time>
  <course>0.0</course>
  <speed>0.0</speed>
  <fix>3d</fix>
</trkpt>
<trkpt lat="40.0713749" lon="-105.229789">
  <ele>1583.0</ele>
  <time>2026-08-28T17:50:25Z</time>
  <course>248.02</course>
  <speed>0.0</speed>
  <fix>3d</fix>
</trkpt>
<trkpt lat="40.0713749" lon="-105.229789">
  <ele>1583.0</ele>
  <time>2026-08-28T17:50:25Z</time>
  <course>0.0</course>
  <speed>0.0</speed>
  <fix>3d</fix>
</trkpt>
<trkpt lat="40.0713749" lon="-105.229789">
  <ele>1583.0</ele>
  <time>2026-08-28T17:50:25Z</time>
  <course>248.05</course>
  <speed>0.0</speed>
  <fix>3d</fix>
</trkpt>
<trkpt lat="40.0713749" lon="-105.229789">
  <ele>1583.0</ele>
  <time>2026-08-28T17:50:25Z</time>
  <course>0.0</course>
  <speed>0.0</speed>
  <fix>3d</fix>
</trkpt>
<trkpt lat="40.0713749" lon="-105.229789">
  <ele>1583.0</ele>
  <time>2026-08-28T17:50:25Z</time>
  <course>248.08</course>
  <speed>0.0</speed>
  <fix>3d</fix>
</trkpt>
<trkpt lat="40.0713749" lon="-105.229789">
  <ele>1583.0</ele>
  <time>2026-08-28T17:50:25Z</time>
  <course>0.0</course>
  <speed>0.0</speed>
  <fix>3d</fix>
</trkpt>
<trkpt lat="40.0713749" lon="-105.229789">
  <ele>1583.0</ele>
  <time>2026-08-28T17:50:25Z</time>
  <course>248.1</course>
  <speed>0.0</speed>
  <fix>3d</fix>
</trkpt>
<trkpt lat="40.0713749" lon="-105.229789">
  <ele>1583.0</ele>
  <time>2026-08-28T17:50:25Z</time>
  <course>0.0</course>
  <speed>0.0</speed>
  <fix>3d</fix>
</trkpt>
<trkpt lat="40.0713749" lon="-105.229789">
  <ele>1583.0</ele>
  <time>2026-08-28T17:50:25Z</time>
  <course>248.12</course>
  <speed>0.0</speed>
  <fix>3d</fix>
</trkpt>
<trkpt lat="40.0713749" lon="-105.229789">
  <ele>1583.0</ele>
  <time>2026-08-28T17:50:25Z</time>
  <course>0.0</course>
  <speed>0.0</speed>
  <fix>3d</fix>
</trkpt>
<trkpt lat="40.0713749" lon="-105.229789">
  <ele>1583.0</ele>
  <time>2026-08-28T17:50:25Z</time>
  <course>248.14</course>
  <speed>0.0</speed>
  <fix>3d</fix>
</trkpt>
<trkpt lat="40.0713749" lon="-105.229789">
  <ele>1583.0</ele>
  <time>2026-08-28T17:50:25Z</time>
  <course>0.0</course>
  <speed>0.0</speed>
  <fix>3d</fix>
</trkpt>
<trkpt lat="40.0713749" lon="-105.229789">
  <ele>1583.0</ele>
  <time>2026-08-28T17:50:25Z</time>
  <course>248.16</course>
  <speed>0.0</speed>
  <fix>3d</fix>
</trkpt>
<trkpt lat="40.0713749" lon="-105.229789">
  <ele>1583.0</ele>
  <time>2026-08-28T17:50:25Z</time>
  <course>0.0</course>
  <speed>0.0</speed>
  <fix>3d</fix>
</trkpt>
<trkpt lat="40.0713749" lon="-105.229789">
  <ele>1583.0</ele>
  <time>2026-08-28T17:50:25Z</time>
  <course>248.18</course>
  <speed>0.0</speed>
  <fix>3d</fix>
</trkpt>
<trkpt lat="40.0713749" lon="-105.229789">
  <ele>1583.0</ele>
  <time>2026-08-28T17:50:25Z</time>
  <course>0.0</course>
  <speed>0.0</speed>
  <fix>3d</fix>
</trkpt>
<trkpt lat="40.0713749" lon="-105.229789">
  <ele>1583.0</ele>
  <time>2026-08-28T17:50:25Z</time>
  <course>248.2</course>
  <speed>0.0</speed>
  <fix>3d</fix>
</trkpt>
<trkpt lat="40.0713749" lon="-105.229789">
  <ele>1583.0</ele>
  <time>2026-08-28T17:50:25Z</time>
  <course>0.0</course>
  <speed>0.0</speed>
  <fix>3d</fix>
</trkpt>
<trkpt lat="40.0713749" lon="-105.229789">
  <ele>1583.0</ele>
  <time>2026-08-28T17:50:25Z</time>
  <course>248.22</course>
  <speed>0.0</speed>
  <fix>3d</fix>
</trkpt>
<trkpt lat="40.0713749" lon="-105.229789">
  <ele>1583.0</ele>
  <time>2026-08-28T17:50:25Z</time>
  <course>0.0</course>
  <speed>0.0</speed>
  <fix>3d</fix>
</trkpt>
<trkpt lat="40.0713749" lon="-105.229789">
  <ele>1583.0</ele>
  <time>2026-08-28T17:50:25Z</time>
  <course>248.23</course>
  <speed>0.0</speed>
  <fix>3d</fix>
</trkpt>
<trkpt lat="40.0713749" lon="-105.229789">
  <ele>1583.0</ele>
  <time>2026-08-28T17:50:25Z</time>
  <course>0.0</course>
  <speed>0.0</speed>
  <fix>3d</fix>
</trkpt>
<trkpt lat="40.0713749" lon="-105.229789">
  <ele>1583.0</ele>
  <time>2026-08-28T17:50:25Z</time>
  <course>248.25</course>
  <speed>0.0</speed>
  <fix>3d</fix>
</trkpt>
<trkpt lat="40.0713749" lon="-105.229789">
  <ele>1583.0</ele>
  <time>2026-08-28T17:50:25Z</time>
  <course>0.0</course>
  <speed>0.0</speed>
  <fix>3d</fix>
</trkpt>
<trkpt lat="40.0713749" lon="-105.229789">
  <ele>1583.0</ele>
  <time>2026-08-28T17:50:25Z</time>
  <course>248.26</course>
  <speed>0.0</speed>
  <fix>3d</fix>
</trkpt>
<trkpt lat="40.0713749" lon="-105.229789">
  <ele>1583.0</ele>
  <time>2026-08-28T17:50:25Z</time>
  <course>0.0</course>
  <speed>0.0</speed>
  <fix>3d</fix>
</trkpt>
<trkpt lat="40.0713749" lon="-105.229789">
  <ele>1583.0</ele>
  <time>2026-08-28T17:50:25Z</time>
  <course>248.28</course>
  <speed>0.0</speed>
  <fix>3d</fix>
</trkpt>
<trkpt lat="40.0713749" lon="-105.229789">
  <ele>1583.0</ele>
  <time>2026-08-28T17:50:25Z</time>
  <course>0.0</course>
  <speed>0.0</speed>
  <fix>3d</fix>
</trkpt>
<trkpt lat="40.0713749" lon="-105.229789">
  <ele>1583.0</ele>
  <time>2026-08-28T17:50:25Z</time>
  <course>248.29</course>
  <speed>0.0</speed>
  <fix>3d</fix>
</trkpt>
<trkpt lat="40.0713749" lon="-105.229789">
  <ele>1583.0</ele>
  <time>2026-08-28T17:50:25Z</time>
  <course>0.0</course>
  <speed>0.0</speed>
  <fix>3d</fix>
</trkpt>
<trkpt lat="40.0713749" lon="-105.229789">
  <ele>1583.0</ele>
  <time>2026-08-28T17:50:25Z</time>
  <course>248.3</course>
  <speed>0.0</speed>
  <fix>3d</fix>
</trkpt>
<trkpt lat="40.0713749" lon="-105.229789">
  <ele>1583.0</ele>
  <time>2026-08-28T17:50:25Z</time>
  <course>0.0</course>
  <speed>0.0</speed>
  <fix>3d</fix>
</trkpt>
<trkpt lat="40.0713749" lon="-105.229789">
  <ele>1583.0</ele>
  <time>2026-08-28T17:50:25Z</time>
  <course>248.31</course>
  <speed>0.0</speed>
  <fix>3d</fix>
</trkpt>
<trkpt lat="40.0713749" lon="-105.229789">
  <ele>1583.0</ele>
  <time>2026-08-28T17:50:25Z</time>
  <course>0.0</course>
  <speed>0.0</speed>
  <fix>3d</fix>
</trkpt>
<trkpt lat="40.0713749" lon="-105.229789">
  <ele>1583.0</ele>
  <time>2026-08-28T17:50:25Z</time>
  <course>248.32</course>
  <speed>0.0</speed>
  <fix>3d</fix>
</trkpt>
<trkpt lat="40.0713749" lon="-105.229789">
  <ele>1583.0</ele>
  <time>2026-08-28T17:50:25Z</time>
  <course>0.0</course>
  <speed>0.0</speed>
  <fix>3d</fix>
</trkpt>
<trkpt lat="40.0713749" lon="-105.229789">
  <ele>1583.0</ele>
  <time>2026-08-28T17:50:25Z</time>
  <course>248.33</course>
  <speed>0.0</speed>
  <fix>3d</fix>
</trkpt>
<trkpt lat="40.0713749" lon="-105.229789">
  <ele>1583.0</ele>
  <time>2026-08-28T17:50:25Z</time>
  <course>0.0</course>
  <speed>0.0</speed>
  <fix>3d</fix>
</trkpt>
<trkpt lat="40.0713749" lon="-105.229789">
  <ele>1583.0</ele>
  <time>2026-08-28T17:50:25Z</time>
  <course>248.34</course>
  <speed>0.0</speed>
  <fix>3d</fix>
</trkpt>
<trkpt lat="40.0713749" lon="-105.229789">
  <ele>1583.0</ele>
  <time>2026-08-28T17:50:25Z</time>
  <course>0.0</course>
  <speed>0.0</speed>
  <fix>3d</fix>
</trkpt>
<trkpt lat="40.0713749" lon="-105.229789">
  <ele>1583.0</ele>
  <time>2026-08-28T17:50:25Z</time>
  <course>248.35</course>
  <speed>0.0</speed>
  <fix>3d</fix>
</trkpt>
<trkpt lat="40.0713749" lon="-105.229789">
  <ele>1583.0</ele>
  <time>2026-08-28T17:50:25Z</time>
  <course>0.0</course>
  <speed>0.0</speed>
  <fix>3d</fix>
</trkpt>
<trkpt lat="40.0713749" lon="-105.229789">
  <ele>1583.0</ele>
  <time>2026-08-28T17:50:25Z</time>
  <course>248.35</course>
  <speed>0.0</speed>
  <fix>3d</fix>
</trkpt>
<trkpt lat="40.0713749" lon="-105.229789">
  <ele>1583.0</ele>
  <time>2026-08-28T17:50:25Z</time>
  <course>0.0</course>
  <speed>0.0</speed>
  <fix>3d</fix>
</trkpt>
<trkpt lat="40.0713749" lon="-105.229789">
  <ele>1583.0</ele>
  <time>2026-08-28T17:50:25Z</time>
  <course>248.36</course>
  <speed>0.0</speed>
  <fix>3d</fix>
</trkpt>
<trkpt lat="40.0713749" lon="-105.229789">
  <ele>1583.0</ele>
  <time>2026-08-28T17:50:25Z</time>
  <course>0.0</course>
  <speed>0.0</speed>
  <fix>3d</fix>
</trkpt>
<trkpt lat="40.0713749" lon="-105.229789">
  <ele>1583.0</ele>
  <time>2026-08-28T17:50:25Z</time>
  <course>248.37</course>
  <speed>0.0</speed>
  <fix>3d</fix>
</trkpt>
<trkpt lat="40.0713749" lon="-105.229789">
  <ele>1583.0</ele>
  <time>2026-08-28T17:50:25Z</time>
  <course>0.0</course>
  <speed>0.0</speed>
  <fix>3d</fix>
</trkpt>
<trkpt lat="40.0713749" lon="-105.229789">
  <ele>1583.0</ele>
  <time>2026-08-28T17:50:25Z</time>
  <course>248.37</course>
  <speed>0.0</speed>
  <fix>3d</fix>
</trkpt>
<trkpt lat="40.0713749" lon="-105.229789">
  <ele>1583.0</ele>
  <time>2026-08-28T17:50:25Z</time>
  <course>0.0</course>
  <speed>0.0</speed>
  <fix>3d</fix>
</trkpt>
<trkpt lat="40.0713749" lon="-105.229789">
  <ele>1583.0</ele>
  <time>2026-08-28T17:50:25Z</time>
  <course>248.38</course>
  <speed>0.0</speed>
  <fix>3d</fix>
</trkpt>
<trkpt lat="40.0713749" lon="-105.229789">
  <ele>1583.0</ele>
  <time>2026-08-28T17:50:25Z</time>
  <course>0.0</course>
  <speed>0.0</speed>
  <fix>3d</fix>
</trkpt>
<trkpt lat="40.0713749" lon="-105.229789">
  <ele>1583.0</ele>
  <time>2026-08-28T17:50:25Z</time>
  <course>248.38</course>
  <speed>0.0</speed>
  <fix>3d</fix>
</trkpt>
<trkpt lat="40.0713749" lon="-105.229789">
  <ele>1583.0</ele>
  <time>2026-08-28T17:50:25Z</time>
  <course>0.0</course>
  <speed>0.0</speed>
  <fix>3d</fix>
</trkpt>
<trkpt lat="40.0713749" lon="-105.229789">
  <ele>1583.0</ele>
  <time>2026-08-28T17:50:25Z</time>
  <course>248.39</course>
  <speed>0.0</speed>
  <fix>3d</fix>
</trkpt>
<trkpt lat="40.0713749" lon="-105.229789">
  <ele>1583.0</ele>
  <time>2026-08-28T17:50:25Z</time>
  <course>0.0</course>
  <speed>0.0</speed>
  <fix>3d</fix>
</trkpt>
<trkpt lat="40.0713749" lon="-105.229789">
  <ele>1583.0</ele>
  <time>2026-08-28T17:50:25Z</time>
  <course>248.39</course>
  <speed>0.0</speed>
  <fix>3d</fix>
</trkpt>
<trkpt lat="40.0713749" lon="-105.229789">
  <ele>1583.0</ele>
  <time>2026-08-28T17:50:25Z</time>
  <course>0.0</course>
  <speed>0.0</speed>
  <fix>3d</fix>
</trkpt>
<trkpt lat="40.0713749" lon="-105.229789">
  <ele>1583.0</ele>
  <time>2026-08-28T17:50:25Z</time>
  <course>248.4</course>
  <speed>0.0</speed>
  <fix>3d</fix>
</trkpt>
<trkpt lat="40.0713749" lon="-105.229789">
  <ele>1583.0</ele>
  <time>2026-08-28T17:50:25Z</time>
  <course>0.0</course>
  <speed>0.0</speed>
  <fix>3d</fix>
</trkpt>
<trkpt lat="40.0713749" lon="-105.229789">
  <ele>1583.0</ele>
  <time>2026-08-28T17:50:25Z</time>
  <course>248.4</course>
  <speed>0.0</speed>
  <fix>3d</fix>
</trkpt>
<trkpt lat="40.0713749" lon="-105.229789">
  <ele>1583.0</ele>
  <time>2026-08-28T17:50:25Z</time>
  <course>0.0</course>
  <speed>0.0</speed>
  <fix>3d</fix>
</trkpt>
<trkpt lat="40.0713749" lon="-105.229789">
  <ele>1583.0</ele>
  <time>2026-08-28T17:50:25Z</time>
  <course>248.4</course>
  <speed>0.0</speed>
  <fix>3d</fix>
</trkpt>
<trkpt lat="40.0713749" lon="-105.229789">
  <ele>1583.0</ele>
  <time>2026-08-28T17:50:25Z</time>
  <course>0.0</course>
  <speed>0.0</speed>
  <fix>3d</fix>
</trkpt>
<trkpt lat="40.0713749" lon="-105.229789">
  <ele>1583.0</ele>
  <time>2026-08-28T17:50:25Z</time>
  <course>248.4</course>
  <speed>0.0</speed>
  <fix>3d</fix>
</trkpt>
<trkpt lat="40.0713749" lon="-105.229789">
  <ele>1583.0</ele>
  <time>2026-08-28T17:50:25Z</time>
  <course>0.0</course>
  <speed>0.0</speed>
  <fix>3d</fix>
</trkpt>
<trkpt lat="40.0713749" lon="-105.229789">
  <ele>1583.0</ele>
  <time>2026-08-28T17:50:25Z</time>
  <course>248.41</course>
  <speed>0.0</speed>
  <fix>3d</fix>
</trkpt>
<trkpt lat="40.0713749" lon="-105.229789">
  <ele>1583.0</ele>
  <time>2026-08-28T17:50:25Z</time>
  <course>0.0</course>
  <speed>0.0</speed>
  <fix>3d</fix>
</trkpt>
<trkpt lat="40.0713749" lon="-105.229789">
  <ele>1583.0</ele>
  <time>2026-08-28T17:50:25Z</time>
  <course>248.41</course>
  <speed>0.0</speed>
  <fix>3d</fix>
</trkpt>
<trkpt lat="40.0713749" lon="-105.229789">
  <ele>1583.0</ele>
  <time>2026-08-28T17:50:25Z</time>
  <course>0.0</course>
  <speed>0.0</speed>
  <fix>3d</fix>
</trkpt>
<trkpt lat="40.0713749" lon="-105.229789">
  <ele>1583.0</ele>
  <time>2026-08-28T17:50:25Z</time>
  <course>248.41</course>
  <speed>0.0</speed>
  <fix>3d</fix>
</trkpt>
<trkpt lat="40.0713749" lon="-105.229789">
  <ele>1583.0</ele>
  <time>2026-08-28T17:50:25Z</time>
  <course>0.0</course>
  <speed>0.0</speed>
  <fix>3d</fix>
</trkpt>
<trkpt lat="40.0713749" lon="-105.229789">
  <ele>1583.0</ele>
  <time>2026-08-28T17:50:25Z</time>
  <course>248.41</course>
  <speed>0.0</speed>
  <fix>3d</fix>
</trkpt>
<trkpt lat="40.0713749" lon="-105.229789">
  <ele>1583.0</ele>
  <time>2026-08-28T17:50:25Z</time>
  <course>0.0</course>
  <speed>0.0</speed>
  <fix>3d</fix>
</trkpt>
<trkpt lat="40.0713749" lon="-105.229789">
  <ele>1583.0</ele>
  <time>2026-08-28T17:50:25Z</time>
  <course>248.41</course>
  <speed>0.0</speed>
  <fix>3d</fix>
</trkpt>
<trkpt lat="40.0713749" lon="-105.229789">
  <ele>1583.0</ele>
  <time>2026-08-28T17:50:25Z</time>
  <course>0.0</course>
  <speed>0.0</speed>
  <fix>3d</fix>
</trkpt>
<trkpt lat="40.0713749" lon="-105.229789">
  <ele>1583.0</ele>
  <time>2026-08-28T17:50:25Z</time>
  <course>248.41</course>
  <speed>0.0</speed>
  <fix>3d</fix>
</trkpt>
<trkpt lat="40.0713749" lon="-105.229789">
  <ele>1583.0</ele>
  <time>2026-08-28T17:50:25Z</time>
  <course>0.0</course>
  <speed>0.0</speed>
  <fix>3d</fix>
</trkpt>
<trkpt lat="40.0713749" lon="-105.229789">
  <ele>1583.0</ele>
  <time>2026-08-28T17:50:25Z</time>
  <course>248.41</course>
  <speed>0.0</speed>
  <fix>3d</fix>
</trkpt>
<trkpt lat="40.0713749" lon="-105.229789">
  <ele>1583.0</ele>
  <time>2026-08-28T17:50:25Z</time>
  <course>0.0</course>
  <speed>0.0</speed>
  <fix>3d</fix>
</trkpt>
<trkpt lat="40.0713749" lon="-105.229789">
  <ele>1583.0</ele>
  <time>2026-08-28T17:50:25Z</time>
  <course>248.41</course>
  <speed>0.0</speed>
  <fix>3d</fix>
</trkpt>
<trkpt lat="40.0713749" lon="-105.229789">
  <ele>1583.0</ele>
  <time>2026-08-28T17:50:25Z</time>
  <course>0.0</course>
  <speed>0.0</speed>
  <fix>3d</fix>
</trkpt>
<trkpt lat="40.0713749" lon="-105.229789">
  <ele>1583.0</ele>
  <time>2026-08-28T17:50:25Z</time>
  <course>248.41</course>
  <speed>0.0</speed>
  <fix>3d</fix>
</trkpt>
<trkpt lat="40.0713749" lon="-105.229789">
  <ele>1583.0</ele>
  <time>2026-08-28T17:50:25Z</time>
  <course>0.0</course>
  <speed>0.0</speed>
  <fix>3d</fix>
</trkpt>
<trkpt lat="40.0713749" lon="-105.229789">
  <ele>1583.0</ele>
  <time>2026-08-28T17:50:25Z</time>
  <course>248.41</course>
  <speed>0.0</speed>
  <fix>3d</fix>
</trkpt>
<trkpt lat="40.0713749" lon="-105.229789">
  <ele>1583.0</ele>
  <time>2026-08-28T17:50:25Z</time>
  <course>0.0</course>
  <speed>0.0</speed>
  <fix>3d</fix>
</trkpt>
<trkpt lat="40.0713749" lon="-105.229789">
  <ele>1583.0</ele>
  <time>2026-08-28T17:50:25Z</time>
  <course>248.41</course>
  <speed>0.0</speed>
  <fix>3d</fix>
</trkpt>
<trkpt lat="40.0713749" lon="-105.229789">
  <ele>1583.0</ele>
  <time>2026-08-28T17:50:25Z</time>
  <course>0.0</course>
  <speed>0.0</speed>
  <fix>3d</fix>
</trkpt>
<trkpt lat="40.0713749" lon="-105.229789">
  <ele>1583.0</ele>
  <time>2026-08-28T17:50:25Z</time>
  <course>248.41</course>
  <speed>0.0</speed>
  <fix>3d</fix>
</trkpt>
<trkpt lat="40.0713749" lon="-105.229789">
  <ele>1583.0</ele>
  <time>2026-08-28T17:50:25Z</time>
  <course>0.0</course>
  <speed>0.0</speed>
  <fix>3d</fix>
</trkpt>
<trkpt lat="40.0713749" lon="-105.229789">
  <ele>1583.0</ele>
  <time>2026-08-28T17:50:25Z</time>
  <course>248.41</course>
  <speed>0.0</speed>
  <fix>3d</fix>
</trkpt>
<trkpt lat="40.0713749" lon="-105.229789">
  <ele>1583.0</ele>
  <time>2026-08-28T17:50:25Z</time>
  <course>0.0</course>
  <speed>0.0</speed>
  <fix>3d</fix>
</trkpt>
<trkpt lat="40.0713749" lon="-105.229789">
  <ele>1583.0</ele>
  <time>2026-08-28T17:50:25Z</time>
  <course>248.41</course>
  <speed>0.0</speed>
  <fix>3d</fix>
</trkpt>
<trkpt lat="40.0713749" lon="-105.229789">
  <ele>1583.0</ele>
  <time>2026-08-28T17:50:25Z</time>
  <course>0.0</course>
  <speed>0.0</speed>
  <fix>3d</fix>
</trkpt>
<trkpt lat="40.0713749" lon="-105.229789">
  <ele>1583.0</ele>
  <time>2026-08-28T17:50:25Z</time>
  <course>248.41</course>
  <speed>0.0</speed>
  <fix>3d</fix>
</trkpt>
<trkpt lat="40.0713749" lon="-105.229789">
  <ele>1583.0</ele>
  <time>2026-08-28T17:50:25Z</time>
  <course>0.0</course>
  <speed>0.0</speed>
  <fix>3d</fix>
</trkpt>
<trkpt lat="40.0713749" lon="-105.229789">
  <ele>1583.0</ele>
  <time>2026-08-28T17:50:25Z</time>
  <course>248.41</course>
  <speed>0.0</speed>
  <fix>3d</fix>
</trkpt>
<trkpt lat="40.0713749" lon="-105.229789">
  <ele>1583.0</ele>
  <time>2026-08-28T17:50:25Z</time>
  <course>0.0</course>
  <speed>0.0</speed>
  <fix>3d</fix>
</trkpt>
<trkpt lat="40.0713749" lon="-105.229789">
  <ele>1583.0</ele>
  <time>2026-08-28T17:50:25Z</time>
  <course>248.4</course>
  <speed>0.0</speed>
  <fix>3d</fix>
</trkpt>
<trkpt lat="40.0713749" lon="-105.229789">
  <ele>1583.0</ele>
  <time>2026-08-28T17:50:25Z</time>
  <course>0.0</course>
  <speed>0.0</speed>
  <fix>3d</fix>
</trkpt>
<trkpt lat="40.0713749" lon="-105.229789">
  <ele>1583.0</ele>
  <time>2026-08-28T17:50:25Z</time>
  <course>248.4</course>
  <speed>0.01</speed>
  <fix>3d</fix>
</trkpt>
<trkpt lat="40.0713749" lon="-105.229789">
  <ele>1583.0</ele>
  <time>2026-08-28T17:50:25Z</time>
  <course>0.0</course>
  <speed>0.0</speed>
  <fix>3d</fix>
</trkpt>
<trkpt lat="40.0713749" lon="-105.229789">
  <ele>1583.0</ele>
  <time>2026-08-28T17:50:25Z</time>
  <course>248.4</course>
  <speed>0.01</speed>
  <fix>3d</fix>
</trkpt>
<trkpt lat="40.0713749" lon="-105.229789">
  <ele>1583.0</ele>
  <time>2026-08-28T17:50:25Z</time>
  <course>0.0</course>
  <speed>0.0</speed>
  <fix>3d</fix>
</trkpt>
<trkpt lat="40.0713749" lon="-105.229789">
  <ele>1583.0</ele>
  <time>2026-08-28T17:50:25Z</time>
  <course>248.4</course>
  <speed>0.01</speed>
  <fix>3d</fix>
</trkpt>
<trkpt lat="40.0713749" lon="-105.229789">
  <ele>1583.0</ele>
  <time>2026-08-28T17:50:25Z</time>
  <course>0.0</course>
  <speed>0.0</speed>
  <fix>3d</fix>
</trkpt>
<trkpt lat="40.0713749" lon="-105.229789">
  <ele>1583.0</ele>
  <time>2026-08-28T17:50:25Z</time>
  <course>248.4</course>
  <speed>0.01</speed>
  <fix>3d</fix>
</trkpt>
<trkpt lat="40.0713749" lon="-105.229789">
  <ele>1583.0</ele>
  <time>2026-08-28T17:50:25Z</time>
  <course>0.0</course>
  <speed>0.0</speed>
  <fix>3d</fix>
</trkpt>
<trkpt lat="40.0713749" lon="-105.229789">
  <ele>1583.0</ele>
  <time>2026-08-28T17:50:25Z</time>
  <course>248.39</course>
  <speed>0.01</speed>
  <fix>3d</fix>
</trkpt>
<trkpt lat="40.0713749" lon="-105.229789">
  <ele>1583.0</ele>
  <time>2026-08-28T17:50:25Z</time>
  <course>0.0</course>
  <speed>0.0</speed>
  <fix>3d</fix>
</trkpt>
<trkpt lat="40.0713749" lon="-105.229789">
  <ele>1583.0</ele>
  <time>2026-08-28T17:50:25Z</time>
  <course>248.39</course>
  <speed>0.01</speed>
  <fix>3d</fix>
</trkpt>
<trkpt lat="40.0713749" lon="-105.229789">
  <ele>1583.0</ele>
  <time>2026-08-28T17:50:25Z</time>
  <course>0.0</course>
  <speed>0.0</speed>
  <fix>3d</fix>
</trkpt>
<trkpt lat="40.0713749" lon="-105.229789">
  <ele>1583.0</ele>
  <time>2026-08-28T17:50:25Z</time>
  <course>248.39</course>
  <speed>0.01</speed>
  <fix>3d</fix>
</trkpt>
<trkpt lat="40.0713749" lon="-105.229789">
  <ele>1583.0</ele>
  <time>2026-08-28T17:50:25Z</time>
  <course>0.0</course>
  <speed>0.0</speed>
  <fix>3d</fix>
</trkpt>
<trkpt lat="40.0713749" lon="-105.229789">
  <ele>1583.0</ele>
  <time>2026-08-28T17:50:25Z</time>
  <course>248.38</course>
  <speed>0.01</speed>
  <fix>3d</fix>
</trkpt>
<trkpt lat="40.0713749" lon="-105.229789">
  <ele>1583.0</ele>
  <time>2026-08-28T17:50:25Z</time>
  <course>0.0</course>
  <speed>0.0</speed>
  <fix>3d</fix>
</trkpt>
<trkpt lat="40.0713749" lon="-105.229789">
  <ele>1583.0</ele>
  <time>2026-08-28T17:50:25Z</time>
  <course>248.38</course>
  <speed>0.01</speed>
  <fix>3d</fix>
</trkpt>
<trkpt lat="40.0713749" lon="-105.229789">
  <ele>1583.0</ele>
  <time>2026-08-28T17:50:25Z</time>
  <course>0.0</course>
  <speed>0.0</speed>
  <fix>3d</fix>
</trkpt>
<trkpt lat="40.0713749" lon="-105.229789">
  <ele>1583.0</ele>
  <time>2026-08-28T17:50:25Z</time>
  <course>248.38</course>
  <speed>0.01</speed>
  <fix>3d</fix>
</trkpt>
<trkpt lat="40.0713749" lon="-105.229789">
  <ele>1583.0</ele>
  <time>2026-08-28T17:50:25Z</time>
  <course>0.0</course>
  <speed>0.0</speed>
  <fix>3d</fix>
</trkpt>
<trkpt lat="40.0713749" lon="-105.229789">
  <ele>1583.0</ele>
  <time>2026-08-28T17:50:25Z</time>
  <course>248.37</course>
  <speed>0.01</speed>
  <fix>3d</fix>
</trkpt>
<trkpt lat="40.0713749" lon="-105.229789">
  <ele>1583.0</ele>
  <time>2026-08-28T17:50:25Z</time>
  <course>0.0</course>
  <speed>0.0</speed>
  <fix>3d</fix>
</trkpt>
<trkpt lat="40.0713749" lon="-105.229789">
  <ele>1583.0</ele>
  <time>2026-08-28T17:50:25Z</time>
  <course>248.37</course>
  <speed>0.01</speed>
  <fix>3d</fix>
</trkpt>
<trkpt lat="40.0713749" lon="-105.229789">
  <ele>1583.0</ele>
  <time>2026-08-28T17:50:25Z</time>
  <course>0.0</course>
  <speed>0.0</speed>
  <fix>3d</fix>
</trkpt>
<trkpt lat="40.0713749" lon="-105.229789">
  <ele>1583.0</ele>
  <time>2026-08-28T17:50:25Z</time>
  <course>248.37</course>
  <speed>0.01</speed>
  <fix>3d</fix>
</trkpt>
<trkpt lat="40.0713749" lon="-105.229789">
  <ele>1583.0</ele>
  <time>2026-08-28T17:50:25Z</time>
  <course>0.0</course>
  <speed>0.0</speed>
  <fix>3d</fix>
</trkpt>
<trkpt lat="40.0713749" lon="-105.229789">
  <ele>1583.0</ele>
  <time>2026-08-28T17:50:25Z</time>
  <course>248.36</course>
  <speed>0.01</speed>
  <fix>3d</fix>
</trkpt>
<trkpt lat="40.0713749" lon="-105.229789">
  <ele>1583.0</ele>
  <time>2026-08-28T17:50:25Z</time>
  <course>0.0</course>
  <speed>0.0</speed>
  <fix>3d</fix>
</trkpt>
<trkpt lat="40.0713749" lon="-105.229789">
  <ele>1583.0</ele>
  <time>2026-08-28T17:50:25Z</time>
  <course>248.36</course>
  <speed>0.01</speed>
  <fix>3d</fix>
</trkpt>
<trkpt lat="40.0713749" lon="-105.229789">
  <ele>1583.0</ele>
  <time>2026-08-28T17:50:25Z</time>
  <course>0.0</course>
  <speed>0.0</speed>
  <fix>3d</fix>
</trkpt>
<trkpt lat="40.0713749" lon="-105.229789">
  <ele>1583.0</ele>
  <time>2026-08-28T17:50:25Z</time>
  <course>248.36</course>
  <speed>0.01</speed>
  <fix>3d</fix>
</trkpt>
<trkpt lat="40.0713749" lon="-105.229789">
  <ele>1583.0</ele>
  <time>2026-08-28T17:50:25Z</time>
  <course>0.0</course>
  <speed>0.0</speed>
  <fix>3d</fix>
</trkpt>
<trkpt lat="40.0713749" lon="-105.229789">
  <ele>1583.0</ele>
  <time>2026-08-28T17:50:25Z</time>
  <course>248.35</course>
  <speed>0.01</speed>
  <fix>3d</fix>
</trkpt>
<trkpt lat="40.0713749" lon="-105.229789">
  <ele>1583.0</ele>
  <time>2026-08-28T17:50:25Z</time>
  <course>0.0</course>
  <speed>0.0</speed>
  <fix>3d</fix>
</trkpt>
<trkpt lat="40.0713749" lon="-105.229789">
  <ele>1583.0</ele>
  <time>2026-08-28T17:50:25Z</time>
  <course>248.35</course>
  <speed>0.01</speed>
  <fix>3d</fix>
</trkpt>
<trkpt lat="40.0713749" lon="-105.229789">
  <ele>1583.0</ele>
  <time>2026-08-28T17:50:25Z</time>
  <course>0.0</course>
  <speed>0.0</speed>
  <fix>3d</fix>
</trkpt>
<trkpt lat="40.0713749" lon="-105.229789">
  <ele>1583.0</ele>
  <time>2026-08-28T17:50:25Z</time>
  <course>248.35</course>
  <speed>0.01</speed>
  <fix>3d</fix>
</trkpt>
<trkpt lat="40.0713749" lon="-105.229789">
  <ele>1583.0</ele>
  <time>2026-08-28T17:50:25Z</time>
  <course>0.0</course>
  <speed>0.0</speed>
  <fix>3d</fix>
</trkpt>
<trkpt lat="40.0713749" lon="-105.229789">
  <ele>1583.0</ele>
  <time>2026-08-28T17:50:25Z</time>
  <course>248.34</course>
  <speed>0.01</speed>
  <fix>3d</fix>
</trkpt>
<trkpt lat="40.0713749" lon="-105.229789">
  <ele>1583.0</ele>
  <time>2026-08-28T17:50:25Z</time>
  <course>0.0</course>
  <speed>0.0</speed>
  <fix>3d</fix>
</trkpt>
<trkpt lat="40.0713749" lon="-105.229789">
  <ele>1583.0</ele>
  <time>2026-08-28T17:50:25Z</time>
  <course>248.34</course>
  <speed>0.01</speed>
  <fix>3d</fix>
</trkpt>
<trkpt lat="40.0713749" lon="-105.229789">
  <ele>1583.0</ele>
  <time>2026-08-28T17:50:25Z</time>
  <course>0.0</course>
  <speed>0.0</speed>
  <fix>3d</fix>
</trkpt>
<trkpt lat="40.0713749" lon="-105.229789">
  <ele>1583.0</ele>
  <time>2026-08-28T17:50:25Z</time>
  <course>248.33</course>
  <speed>0.01</speed>
  <fix>3d</fix>
</trkpt>
<trkpt lat="40.0713749" lon="-105.229789">
  <ele>1583.0</ele>
  <time>2026-08-28T17:50:25Z</time>
  <course>0.0</course>
  <speed>0.0</speed>
  <fix>3d</fix>
</trkpt>
<trkpt lat="40.0713749" lon="-105.229789">
  <ele>1583.0</ele>
  <time>2026-08-28T17:50:25Z</time>
  <course>248.33</course>
  <speed>0.01</speed>
  <fix>3d</fix>
</trkpt>
<trkpt lat="40.0713749" lon="-105.229789">
  <ele>1583.0</ele>
  <time>2026-08-28T17:50:25Z</time>
  <course>0.0</course>
  <speed>0.0</speed>
  <fix>3d</fix>
</trkpt>
<trkpt lat="40.0713749" lon="-105.229789">
  <ele>1583.0</ele>
  <time>2026-08-28T17:50:25Z</time>
  <course>248.32</course>
  <speed>0.01</speed>
  <fix>3d</fix>
</trkpt>
<trkpt lat="40.0713749" lon="-105.229789">
  <ele>1583.0</ele>
  <time>2026-08-28T17:50:25Z</time>
  <course>0.0</course>
  <speed>0.0</speed>
  <fix>3d</fix>
</trkpt>
<trkpt lat="40.0713749" lon="-105.229789">
  <ele>1583.0</ele>
  <time>2026-08-28T17:50:25Z</time>
  <course>248.32</course>
  <speed>0.01</speed>
  <fix>3d</fix>
</trkpt>
<trkpt lat="40.0713749" lon="-105.229789">
  <ele>1583.0</ele>
  <time>2026-08-28T17:50:25Z</time>
  <course>0.0</course>
  <speed>0.0</speed>
  <fix>3d</fix>
</trkpt>
<trkpt lat="40.0713749" lon="-105.229789">
  <ele>1583.0</ele>
  <time>2026-08-28T17:50:25Z</time>
  <course>248.32</course>
  <speed>0.01</speed>
  <fix>3d</fix>
</trkpt>
<trkpt lat="40.0713749" lon="-105.229789">
  <ele>1583.0</ele>
  <time>2026-08-28T17:50:25Z</time>
  <course>0.0</course>
  <speed>0.0</speed>
  <fix>3d</fix>
</trkpt>
<trkpt lat="40.0713749" lon="-105.229789">
  <ele>1583.0</ele>
  <time>2026-08-28T17:50:25Z</time>
  <course>248.31</course>
  <speed>0.01</speed>
  <fix>3d</fix>
</trkpt>
<trkpt lat="40.0713749" lon="-105.229789">
  <ele>1583.0</ele>
  <time>2026-08-28T17:50:25Z</time>
  <course>0.0</course>
  <speed>0.0</speed>
  <fix>3d</fix>
</trkpt>
<trkpt lat="40.0713749" lon="-105.229789">
  <ele>1583.0</ele>
  <time>2026-08-28T17:50:25Z</time>
  <course>248.31</course>
  <speed>0.01</speed>
  <fix>3d</fix>
</trkpt>
<trkpt lat="40.0713749" lon="-105.229789">
  <ele>1583.0</ele>
  <time>2026-08-28T17:50:25Z</time>
  <course>0.0</course>
  <speed>0.0</speed>
  <fix>3d</fix>
</trkpt>
<trkpt lat="40.0713749" lon="-105.229789">
  <ele>1583.0</ele>
  <time>2026-08-28T17:50:25Z</time>
  <course>248.3</course>
  <speed>0.01</speed>
  <fix>3d</fix>
</trkpt>
<trkpt lat="40.0713749" lon="-105.229789">
  <ele>1583.0</ele>
  <time>2026-08-28T17:50:25Z</time>
  <course>0.0</course>
  <speed>0.0</speed>
  <fix>3d</fix>
</trkpt>
<trkpt lat="40.0713749" lon="-105.229789">
  <ele>1583.0</ele>
  <time>2026-08-28T17:50:25Z</time>
  <course>248.3</course>
  <speed>0.01</speed>
  <fix>3d</fix>
</trkpt>
<trkpt lat="40.0713749" lon="-105.229789">
  <ele>1583.0</ele>
  <time>2026-08-28T17:50:25Z</time>
  <course>0.0</course>
  <speed>0.0</speed>
  <fix>3d</fix>
</trkpt>
<trkpt lat="40.0713749" lon="-105.229789">
  <ele>1583.0</ele>
  <time>2026-08-28T17:50:25Z</time>
  <course>248.29</course>
  <speed>0.01</speed>
  <fix>3d</fix>
</trkpt>
<trkpt lat="40.0713749" lon="-105.229789">
  <ele>1583.0</ele>
  <time>2026-08-28T17:50:25Z</time>
  <course>0.0</course>
  <speed>0.0</speed>
  <fix>3d</fix>
</trkpt>
<trkpt lat="40.0713749" lon="-105.229789">
  <ele>1583.0</ele>
  <time>2026-08-28T17:50:25Z</time>
  <course>248.29</course>
  <speed>0.01</speed>
  <fix>3d</fix>
</trkpt>
<trkpt lat="40.0713749" lon="-105.229789">
  <ele>1583.0</ele>
  <time>2026-08-28T17:50:25Z</time>
  <course>0.0</course>
  <speed>0.0</speed>
  <fix>3d</fix>
</trkpt>
<trkpt lat="40.0713749" lon="-105.229789">
  <ele>1583.0</ele>
  <time>2026-08-28T17:50:25Z</time>
  <course>248.28</course>
  <speed>0.01</speed>
  <fix>3d</fix>
</trkpt>
<trkpt lat="40.0713749" lon="-105.229789">
  <ele>1583.0</ele>
  <time>2026-08-28T17:50:25Z</time>
  <course>0.0</course>
  <speed>0.0</speed>
  <fix>3d</fix>
</trkpt>
<trkpt lat="40.0713749" lon="-105.229789">
  <ele>1583.0</ele>
  <time>2026-08-28T17:50:25Z</time>
  <course>248.28</course>
  <speed>0.01</speed>
  <fix>3d</fix>
</trkpt>
<trkpt lat="40.0713749" lon="-105.229789">
  <ele>1583.0</ele>
  <time>2026-08-28T17:50:25Z</time>
  <course>0.0</course>
  <speed>0.0</speed>
  <fix>3d</fix>
</trkpt>
<trkpt lat="40.0713749" lon="-105.229789">
  <ele>1583.0</ele>
  <time>2026-08-28T17:50:25Z</time>
  <course>248.27</course>
  <speed>0.01</speed>
  <fix>3d</fix>
</trkpt>
<trkpt lat="40.0713749" lon="-105.229789">
  <ele>1583.0</ele>
  <time>2026-08-28T17:50:25Z</time>
  <course>0.0</course>
  <speed>0.0</speed>
  <fix>3d</fix>
</trkpt>
<trkpt lat="40.0713749" lon="-105.229789">
  <ele>1583.0</ele>
  <time>2026-08-28T17:50:25Z</time>
  <course>248.27</course>
  <speed>0.01</speed>
  <fix>3d</fix>
</trkpt>
<trkpt lat="40.0713749" lon="-105.229789">
  <ele>1583.0</ele>
  <time>2026-08-28T17:50:25Z</time>
  <course>0.0</course>
  <speed>0.0</speed>
  <fix>3d</fix>
</trkpt>
<trkpt lat="40.0713749" lon="-105.229789">
  <ele>1583.0</ele>
  <time>2026-08-28T17:50:25Z</time>
  <course>248.26</course>
  <speed>0.01</speed>
  <fix>3d</fix>
</trkpt>
<trkpt lat="40.0713749" lon="-105.229789">
  <ele>1583.0</ele>
  <time>2026-08-28T17:50:25Z</time>
  <course>0.0</course>
  <speed>0.0</speed>
  <fix>3d</fix>
</trkpt>
<trkpt lat="40.0713749" lon="-105.229789">
  <ele>1583.0</ele>
  <time>2026-08-28T17:50:25Z</time>
  <course>248.26</course>
  <speed>0.01</speed>
  <fix>3d</fix>
</trkpt>
<trkpt lat="40.0713749" lon="-105.229789">
  <ele>1583.0</ele>
  <time>2026-08-28T17:50:25Z</time>
  <course>0.0</course>
  <speed>0.0</speed>
  <fix>3d</fix>
</trkpt>
<trkpt lat="40.0713749" lon="-105.229789">
  <ele>1583.0</ele>
  <time>2026-08-28T17:50:25Z</time>
  <course>248.26</course>
  <speed>0.01</speed>
  <fix>3d</fix>
</trkpt>
<trkpt lat="40.0713749" lon="-105.229789">
  <ele>1583.0</ele>
  <time>2026-08-28T17:50:25Z</time>
  <course>0.0</course>
  <speed>0.0</speed>
  <fix>3d</fix>
</trkpt>
<trkpt lat="40.0713749" lon="-105.229789">
  <ele>1583.0</ele>
  <time>2026-08-28T17:50:25Z</time>
  <course>248.25</course>
  <speed>0.01</speed>
  <fix>3d</fix>
</trkpt>
<trkpt lat="40.0713749" lon="-105.229789">
  <ele>1583.0</ele>
  <time>2026-08-28T17:50:25Z</time>
  <course>0.0</course>
  <speed>0.0</speed>
  <fix>3d</fix>
</trkpt>
<trkpt lat="40.0713749" lon="-105.229789">
  <ele>1583.0</ele>
  <time>2026-08-28T17:50:25Z</time>
  <course>248.25</course>
  <speed>0.01</speed>
  <fix>3d</fix>
</trkpt>
<trkpt lat="40.0713749" lon="-105.229789">
  <ele>1583.0</ele>
  <time>2026-08-28T17:50:25Z</time>
  <course>0.0</course>
  <speed>0.0</speed>
  <fix>3d</fix>
</trkpt>
<trkpt lat="40.0713749" lon="-105.229789">
  <ele>1583.0</ele>
  <time>2026-08-28T17:50:25Z</time>
  <course>248.24</course>
  <speed>0.01</speed>
  <fix>3d</fix>
</trkpt>
<trkpt lat="40.0713749" lon="-105.229789">
  <ele>1583.0</ele>
  <time>2026-08-28T17:50:25Z</time>
  <course>0.0</course>
  <speed>0.0</speed>
  <fix>3d</fix>
</trkpt>
<trkpt lat="40.0713749" lon="-105.229789">
  <ele>1583.0</ele>
  <time>2026-08-28T17:50:25Z</time>
  <course>248.24</course>
  <speed>0.01</speed>
  <fix>3d</fix>
</trkpt>
<trkpt lat="40.0713749" lon="-105.229789">
  <ele>1583.0</ele>
  <time>2026-08-28T17:50:25Z</time>
  <course>0.0</course>
  <speed>0.0</speed>
  <fix>3d</fix>
</trkpt>
<trkpt lat="40.0713749" lon="-105.229789">
  <ele>1583.0</ele>
  <time>2026-08-28T17:50:25Z</time>
  <course>248.23</course>
  <speed>0.01</speed>
  <fix>3d</fix>
</trkpt>
<trkpt lat="40.0713749" lon="-105.229789">
  <ele>1583.0</ele>
  <time>2026-08-28T17:50:25Z</time>
  <course>0.0</course>
  <speed>0.0</speed>
  <fix>3d</fix>
</trkpt>
<trkpt lat="40.0713749" lon="-105.229789">
  <ele>1583.0</ele>
  <time>2026-08-28T17:50:25Z</time>
  <course>248.23</course>
  <speed>0.01</speed>
  <fix>3d</fix>
</trkpt>
<trkpt lat="40.0713749" lon="-105.229789">
  <ele>1583.0</ele>
  <time>2026-08-28T17:50:25Z</time>
  <course>0.0</course>
  <speed>0.0</speed>
  <fix>3d</fix>
</trkpt>
<trkpt lat="40.0713749" lon="-105.229789">
  <ele>1583.0</ele>
  <time>2026-08-28T17:50:25Z</time>
  <course>248.22</course>
  <speed>0.01</speed>
  <fix>3d</fix>
</trkpt>
<trkpt lat="40.0713749" lon="-105.229789">
  <ele>1583.0</ele>
  <time>2026-08-28T17:50:25Z</time>
  <course>0.0</course>
  <speed>0.0</speed>
  <fix>3d</fix>
</trkpt>
<trkpt lat="40.0713749" lon="-105.229789">
  <ele>1583.0</ele>
  <time>2026-08-28T17:50:25Z</time>
  <course>248.22</course>
  <speed>0.01</speed>
  <fix>3d</fix>
</trkpt>
<trkpt lat="40.0713749" lon="-105.229789">
  <ele>1583.0</ele>
  <time>2026-08-28T17:50:25Z</time>
  <course>0.0</course>
  <speed>0.0</speed>
  <fix>3d</fix>
</trkpt>
<trkpt lat="40.0713749" lon="-105.229789">
  <ele>1583.0</ele>
  <time>2026-08-28T17:50:26Z</time>
  <course>248.21</course>
  <speed>0.01</speed>
  <fix>3d</fix>
</trkpt>
<trkpt lat="40.0713749" lon="-105.229789">
  <ele>1583.0</ele>
  <time>2026-08-28T17:50:26Z</time>
  <course>0.0</course>
  <speed>0.0</speed>
  <fix>3d</fix>
</trkpt>
<trkpt lat="40.0713749" lon="-105.229789">
  <ele>1583.0</ele>
  <time>2026-08-28T17:50:26Z</time>
  <course>248.21</course>
  <speed>0.01</speed>
  <fix>3d</fix>
</trkpt>
<trkpt lat="40.0713749" lon="-105.229789">
  <ele>1583.0</ele>
  <time>2026-08-28T17:50:26Z</time>
  <course>0.0</course>
  <speed>0.0</speed>
  <fix>3d</fix>
</trkpt>
<trkpt lat="40.0713749" lon="-105.229789">
  <ele>1583.0</ele>
  <time>2026-08-28T17:50:26Z</time>
  <course>248.2</course>
  <speed>0.01</speed>
  <fix>3d</fix>
</trkpt>
<trkpt lat="40.0713749" lon="-105.229789">
  <ele>1583.0</ele>
  <time>2026-08-28T17:50:26Z</time>
  <course>0.0</course>
  <speed>0.0</speed>
  <fix>3d</fix>
</trkpt>
<trkpt lat="40.0713749" lon="-105.229789">
  <ele>1583.0</ele>
  <time>2026-08-28T17:50:26Z</time>
  <course>248.2</course>
  <speed>0.01</speed>
  <fix>3d</fix>
</trkpt>
<trkpt lat="40.0713749" lon="-105.229789">
  <ele>1583.0</ele>
  <time>2026-08-28T17:50:26Z</time>
  <course>0.0</course>
  <speed>0.0</speed>
  <fix>3d</fix>
</trkpt>
<trkpt lat="40.0713749" lon="-105.229789">
  <ele>1583.0</ele>
  <time>2026-08-28T17:50:26Z</time>
  <course>248.19</course>
  <speed>0.01</speed>
  <fix>3d</fix>
</trkpt>
<trkpt lat="40.0713749" lon="-105.229789">
  <ele>1583.0</ele>
  <time>2026-08-28T17:50:26Z</time>
  <course>0.0</course>
  <speed>0.0</speed>
  <fix>3d</fix>
</trkpt>
<trkpt lat="40.0713749" lon="-105.229789">
  <ele>1583.0</ele>
  <time>2026-08-28T17:50:26Z</time>
  <course>248.19</course>
  <speed>0.01</speed>
  <fix>3d</fix>
</trkpt>
<trkpt lat="40.0713749" lon="-105.229789">
  <ele>1583.0</ele>
  <time>2026-08-28T17:50:26Z</time>
  <course>0.0</course>
  <speed>0.0</speed>
  <fix>3d</fix>
</trkpt>
<trkpt lat="40.0713749" lon="-105.229789">
  <ele>1583.0</ele>
  <time>2026-08-28T17:50:26Z</time>
  <course>248.18</course>
  <speed>0.01</speed>
  <fix>3d</fix>
</trkpt>
<trkpt lat="40.0713749" lon="-105.229789">
  <ele>1583.0</ele>
  <time>2026-08-28T17:50:26Z</time>
  <course>0.0</course>
  <speed>0.0</speed>
  <fix>3d</fix>
</trkpt>
<trkpt lat="40.0713749" lon="-105.229789">
  <ele>1583.0</ele>
  <time>2026-08-28T17:50:26Z</time>
  <course>248.18</course>
  <speed>0.01</speed>
  <fix>3d</fix>
</trkpt>
<trkpt lat="40.0713749" lon="-105.229789">
  <ele>1583.0</ele>
  <time>2026-08-28T17:50:26Z</time>
  <course>0.0</course>
  <speed>0.0</speed>
  <fix>3d</fix>
</trkpt>
<trkpt lat="40.0713749" lon="-105.229789">
  <ele>1583.0</ele>
  <time>2026-08-28T17:50:26Z</time>
  <course>248.17</course>
  <speed>0.022360679774997897</speed>
  <fix>3d</fix>
</trkpt>
<trkpt lat="40.0713749" lon="-105.229789">
  <ele>1583.0</ele>
  <time>2026-08-28T17:50:26Z</time>
  <course>0.0</course>
  <speed>0.0</speed>
  <fix>3d</fix>
</trkpt>
<trkpt lat="40.0713749" lon="-105.229789">
  <ele>1583.0</ele>
  <time>2026-08-28T17:50:26Z</time>
  <course>248.17</course>
  <speed>0.022360679774997897</speed>
  <fix>3d</fix>
</trkpt>
<trkpt lat="40.0713749" lon="-105.229789">
  <ele>1583.0</ele>
  <time>2026-08-28T17:50:26Z</time>
  <course>0.0</course>
  <speed>0.0</speed>
  <fix>3d</fix>
</trkpt>
<trkpt lat="40.0713749" lon="-105.229789">
  <ele>1583.0</ele>
  <time>2026-08-28T17:50:26Z</time>
  <course>248.16</course>
  <speed>0.022360679774997897</speed>
  <fix>3d</fix>
</trkpt>
<trkpt lat="40.0713749" lon="-105.229789">
  <ele>1583.0</ele>
  <time>2026-08-28T17:50:26Z</time>
  <course>0.0</course>
  <speed>0.0</speed>
  <fix>3d</fix>
</trkpt>
<trkpt lat="40.0713749" lon="-105.229789">
  <ele>1583.0</ele>
  <time>2026-08-28T17:50:26Z</time>
  <course>248.16</course>
  <speed>0.022360679774997897</speed>
  <fix>3d</fix>
</trkpt>
<trkpt lat="40.0713749" lon="-105.229789">
  <ele>1583.0</ele>
  <time>2026-08-28T17:50:26Z</time>
  <course>0.0</course>
  <speed>0.0</speed>
  <fix>3d</fix>
</trkpt>
<trkpt lat="40.0713749" lon="-105.229789">
  <ele>1583.0</ele>
  <time>2026-08-28T17:50:26Z</time>
  <course>248.15</course>
  <speed>0.022360679774997897</speed>
  <fix>3d</fix>
</trkpt>
<trkpt lat="40.0713749" lon="-105.229789">
  <ele>1583.0</ele>
  <time>2026-08-28T17:50:26Z</time>
  <course>0.0</course>
  <speed>0.0</speed>
  <fix>3d</fix>
</trkpt>
<trkpt lat="40.0713749" lon="-105.229789">
  <ele>1583.0</ele>
  <time>2026-08-28T17:50:26Z</time>
  <course>248.15</course>
  <speed>0.022360679774997897</speed>
  <fix>3d</fix>
</trkpt>
<trkpt lat="40.0713749" lon="-105.229789">
  <ele>1583.0</ele>
  <time>2026-08-28T17:50:26Z</time>
  <course>0.0</course>
  <speed>0.0</speed>
  <fix>3d</fix>
</trkpt>
<trkpt lat="40.0713749" lon="-105.229789">
  <ele>1583.0</ele>
  <time>2026-08-28T17:50:26Z</time>
  <course>248.14</course>
  <speed>0.022360679774997897</speed>
  <fix>3d</fix>
</trkpt>
<trkpt lat="40.0713749" lon="-105.229789">
  <ele>1583.0</ele>
  <time>2026-08-28T17:50:26Z</time>
  <course>0.0</course>
  <speed>0.0</speed>
  <fix>3d</fix>
</trkpt>
<trkpt lat="40.0713749" lon="-105.229789">
  <ele>1583.0</ele>
  <time>2026-08-28T17:50:26Z</time>
  <course>248.14</course>
  <speed>0.022360679774997897</speed>
  <fix>3d</fix>
</trkpt>
<trkpt lat="40.0713749" lon="-105.229789">
  <ele>1583.0</ele>
  <time>2026-08-28T17:50:26Z</time>
  <course>0.0</course>
  <speed>0.0</speed>
  <fix>3d</fix>
</trkpt>
<trkpt lat="40.0713749" lon="-105.229789">
  <ele>1583.0</ele>
  <time>2026-08-28T17:50:26Z</time>
  <course>248.13</course>
  <speed>0.022360679774997897</speed>
  <fix>3d</fix>
</trkpt>
<trkpt lat="40.0713749" lon="-105.229789">
  <ele>1583.0</ele>
  <time>2026-08-28T17:50:26Z</time>
  <course>0.0</course>
  <speed>0.0</speed>
  <fix>3d</fix>
</trkpt>
<trkpt lat="40.0713749" lon="-105.229789">
  <ele>1583.0</ele>
  <time>2026-08-28T17:50:26Z</time>
  <course>248.13</course>
  <speed>0.022360679774997897</speed>
  <fix>3d</fix>
</trkpt>
<trkpt lat="40.0713749" lon="-105.229789">
  <ele>1583.0</ele>
  <time>2026-08-28T17:50:26Z</time>
  <course>0.0</course>
  <speed>0.0</speed>
  <fix>3d</fix>
</trkpt>
<trkpt lat="40.0713749" lon="-105.229789">
  <ele>1583.0</ele>
  <time>2026-08-28T17:50:26Z</time>
  <course>248.12</course>
  <speed>0.022360679774997897</speed>
  <fix>3d</fix>
</trkpt>
<trkpt lat="40.0713749" lon="-105.229789">
  <ele>1583.0</ele>
  <time>2026-08-28T17:50:26Z</time>
  <course>0.0</course>
  <speed>0.0</speed>
  <fix>3d</fix>
</trkpt>
<trkpt lat="40.0713749" lon="-105.229789">
  <ele>1583.0</ele>
  <time>2026-08-28T17:50:26Z</time>
  <course>248.12</course>
  <speed>0.022360679774997897</speed>
  <fix>3d</fix>
</trkpt>
<trkpt lat="40.0713749" lon="-105.229789">
  <ele>1583.0</ele>
  <time>2026-08-28T17:50:26Z</time>
  <course>0.0</course>
  <speed>0.0</speed>
  <fix>3d</fix>
</trkpt>
<trkpt lat="40.0713749" lon="-105.229789">
  <ele>1583.0</ele>
  <time>2026-08-28T17:50:26Z</time>
  <course>248.11</course>
  <speed>0.022360679774997897</speed>
  <fix>3d</fix>
</trkpt>
<trkpt lat="40.0713749" lon="-105.229789">
  <ele>1583.0</ele>
  <time>2026-08-28T17:50:26Z</time>
  <course>0.0</course>
  <speed>0.0</speed>
  <fix>3d</fix>
</trkpt>
<trkpt lat="40.0713749" lon="-105.229789">
  <ele>1583.0</ele>
  <time>2026-08-28T17:50:26Z</time>
  <course>248.11</course>
  <speed>0.022360679774997897</speed>
  <fix>3d</fix>
</trkpt>
<trkpt lat="40.0713749" lon="-105.229789">
  <ele>1583.0</ele>
  <time>2026-08-28T17:50:26Z</time>
  <course>0.0</course>
  <speed>0.0</speed>
  <fix>3d</fix>
</trkpt>
<trkpt lat="40.0713749" lon="-105.229789">
  <ele>1583.0</ele>
  <time>2026-08-28T17:50:26Z</time>
  <course>248.1</course>
  <speed>0.022360679774997897</speed>
  <fix>3d</fix>
</trkpt>
<trkpt lat="40.0713749" lon="-105.229789">
  <ele>1583.0</ele>
  <time>2026-08-28T17:50:26Z</time>
  <course>0.0</course>
  <speed>0.0</speed>
  <fix>3d</fix>
</trkpt>
<trkpt lat="40.0713749" lon="-105.229789">
  <ele>1583.0</ele>
  <time>2026-08-28T17:50:26Z</time>
  <course>248.1</course>
  <speed>0.022360679774997897</speed>
  <fix>3d</fix>
</trkpt>
<trkpt lat="40.0713749" lon="-105.229789">
  <ele>1583.0</ele>
  <time>2026-08-28T17:50:26Z</time>
  <course>0.0</course>
  <speed>0.0</speed>
  <fix>3d</fix>
</trkpt>
<trkpt lat="40.0713749" lon="-105.229789">
  <ele>1583.0</ele>
  <time>2026-08-28T17:50:26Z</time>
  <course>248.09</course>
  <speed>0.022360679774997897</speed>
  <fix>3d</fix>
</trkpt>
<trkpt lat="40.0713749" lon="-105.229789">
  <ele>1583.0</ele>
  <time>2026-08-28T17:50:26Z</time>
  <course>0.0</course>
  <speed>0.0</speed>
  <fix>3d</fix>
</trkpt>
<trkpt lat="40.0713749" lon="-105.229789">
  <ele>1583.0</ele>
  <time>2026-08-28T17:50:26Z</time>
  <course>248.09</course>
  <speed>0.022360679774997897</speed>
  <fix>3d</fix>
</trkpt>
<trkpt lat="40.0713749" lon="-105.229789">
  <ele>1583.0</ele>
  <time>2026-08-28T17:50:26Z</time>
  <course>0.0</course>
  <speed>0.0</speed>
  <fix>3d</fix>
</trkpt>
<trkpt lat="40.0713749" lon="-105.229789">
  <ele>1583.0</ele>
  <time>2026-08-28T17:50:26Z</time>
  <course>248.08</course>
  <speed>0.022360679774997897</speed>
  <fix>3d</fix>
</trkpt>
<trkpt lat="40.0713749" lon="-105.229789">
  <ele>1583.0</ele>
  <time>2026-08-28T17:50:26Z</time>
  <course>0.0</course>
  <speed>0.0</speed>
  <fix>3d</fix>
</trkpt>
<trkpt lat="40.0713749" lon="-105.229789">
  <ele>1583.0</ele>
  <time>2026-08-28T17:50:26Z</time>
  <course>248.08</course>
  <speed>0.022360679774997897</speed>
  <fix>3d</fix>
</trkpt>
<trkpt lat="40.0713749" lon="-105.229789">
  <ele>1583.0</ele>
  <time>2026-08-28T17:50:26Z</time>
  <course>0.0</course>
  <speed>0.0</speed>
  <fix>3d</fix>
</trkpt>
<trkpt lat="40.0713749" lon="-105.229789">
  <ele>1583.0</ele>
  <time>2026-08-28T17:50:26Z</time>
  <course>248.07</course>
  <speed>0.022360679774997897</speed>
  <fix>3d</fix>
</trkpt>
<trkpt lat="40.0713749" lon="-105.229789">
  <ele>1583.0</ele>
  <time>2026-08-28T17:50:26Z</time>
  <course>0.0</course>
  <speed>0.0</speed>
  <fix>3d</fix>
</trkpt>
<trkpt lat="40.0713749" lon="-105.229789">
  <ele>1583.0</ele>
  <time>2026-08-28T17:50:26Z</time>
  <course>248.07</course>
  <speed>0.022360679774997897</speed>
  <fix>3d</fix>
</trkpt>
<trkpt lat="40.0713749" lon="-105.229789">
  <ele>1583.0</ele>
  <time>2026-08-28T17:50:26Z</time>
  <course>0.0</course>
  <speed>0.0</speed>
  <fix>3d</fix>
</trkpt>
<trkpt lat="40.0713749" lon="-105.229789">
  <ele>1583.0</ele>
  <time>2026-08-28T17:50:26Z</time>
  <course>248.06</course>
  <speed>0.022360679774997897</speed>
  <fix>3d</fix>
</trkpt>
<trkpt lat="40.0713749" lon="-105.229789">
  <ele>1583.0</ele>
  <time>2026-08-28T17:50:26Z</time>
  <course>0.0</course>
  <speed>0.0</speed>
  <fix>3d</fix>
</trkpt>
<trkpt lat="40.0713749" lon="-105.229789">
  <ele>1583.0</ele>
  <time>2026-08-28T17:50:26Z</time>
  <course>248.06</course>
  <speed>0.022360679774997897</speed>
  <fix>3d</fix>
</trkpt>
<trkpt lat="40.0713749" lon="-105.229789">
  <ele>1583.0</ele>
  <time>2026-08-28T17:50:26Z</time>
  <course>0.0</course>
  <speed>0.0</speed>
  <fix>3d</fix>
</trkpt>
<trkpt lat="40.0713749" lon="-105.229789">
  <ele>1583.0</ele>
  <time>2026-08-28T17:50:26Z</time>
  <course>248.05</course>
  <speed>0.022360679774997897</speed>
  <fix>3d</fix>
</trkpt>
<trkpt lat="40.0713749" lon="-105.229789">
  <ele>1583.0</ele>
  <time>2026-08-28T17:50:26Z</time>
  <course>0.0</course>
  <speed>0.0</speed>
  <fix>3d</fix>
</trkpt>
<trkpt lat="40.0713749" lon="-105.229789">
  <ele>1583.0</ele>
  <time>2026-08-28T17:50:26Z</time>
  <course>248.05</course>
  <speed>0.022360679774997897</speed>
  <fix>3d</fix>
</trkpt>
<trkpt lat="40.0713749" lon="-105.229789">
  <ele>1583.0</ele>
  <time>2026-08-28T17:50:26Z</time>
  <course>0.0</course>
  <speed>0.0</speed>
  <fix>3d</fix>
</trkpt>
<trkpt lat="40.0713749" lon="-105.229789">
  <ele>1583.0</ele>
  <time>2026-08-28T17:50:26Z</time>
  <course>248.05</course>
  <speed>0.022360679774997897</speed>
  <fix>3d</fix>
</trkpt>
<trkpt lat="40.0713749" lon="-105.229789">
  <ele>1583.0</ele>
  <time>2026-08-28T17:50:26Z</time>
  <course>0.0</course>
  <speed>0.0</speed>
  <fix>3d</fix>
</trkpt>
<trkpt lat="40.0713749" lon="-105.229789">
  <ele>1583.0</ele>
  <time>2026-08-28T17:50:26Z</time>
  <course>248.04</course>
  <speed>0.022360679774997897</speed>
  <fix>3d</fix>
</trkpt>
<trkpt lat="40.0713749" lon="-105.229789">
  <ele>1583.0</ele>
  <time>2026-08-28T17:50:26Z</time>
  <course>0.0</course>
  <speed>0.0</speed>
  <fix>3d</fix>
</trkpt>
<trkpt lat="40.0713749" lon="-105.229789">
  <ele>1583.0</ele>
  <time>2026-08-28T17:50:26Z</time>
  <course>248.04</course>
  <speed>0.022360679774997897</speed>
  <fix>3d</fix>
</trkpt>
<trkpt lat="40.0713749" lon="-105.229789">
  <ele>1583.0</ele>
  <time>2026-08-28T17:50:26Z</time>
  <course>0.0</course>
  <speed>0.0</speed>
  <fix>3d</fix>
</trkpt>
<trkpt lat="40.0713749" lon="-105.229789">
  <ele>1583.0</ele>
  <time>2026-08-28T17:50:26Z</time>
  <course>248.03</course>
  <speed>0.022360679774997897</speed>
  <fix>3d</fix>
</trkpt>
<trkpt lat="40.0713749" lon="-105.229789">
  <ele>1583.0</ele>
  <time>2026-08-28T17:50:26Z</time>
  <course>0.0</course>
  <speed>0.0</speed>
  <fix>3d</fix>
</trkpt>
<trkpt lat="40.0713749" lon="-105.229789">
  <ele>1583.0</ele>
  <time>2026-08-28T17:50:26Z</time>
  <course>248.03</course>
  <speed>0.022360679774997897</speed>
  <fix>3d</fix>
</trkpt>
<trkpt lat="40.0713749" lon="-105.229789">
  <ele>1583.0</ele>
  <time>2026-08-28T17:50:26Z</time>
  <course>0.0</course>
  <speed>0.0</speed>
  <fix>3d</fix>
</trkpt>
<trkpt lat="40.0713749" lon="-105.229789">
  <ele>1583.0</ele>
  <time>2026-08-28T17:50:26Z</time>
  <course>248.02</course>
  <speed>0.022360679774997897</speed>
  <fix>3d</fix>
</trkpt>
<trkpt lat="40.0713749" lon="-105.229789">
  <ele>1583.0</ele>
  <time>2026-08-28T17:50:26Z</time>
  <course>0.0</course>
  <speed>0.0</speed>
  <fix>3d</fix>
</trkpt>
<trkpt lat="40.0713749" lon="-105.229789">
  <ele>1583.0</ele>
  <time>2026-08-28T17:50:26Z</time>
  <course>248.02</course>
  <speed>0.022360679774997897</speed>
  <fix>3d</fix>
</trkpt>
<trkpt lat="40.0713749" lon="-105.229789">
  <ele>1583.0</ele>
  <time>2026-08-28T17:50:26Z</time>
  <course>0.0</course>
  <speed>0.0</speed>
  <fix>3d</fix>
</trkpt>
<trkpt lat="40.0713749" lon="-105.229789">
  <ele>1583.0</ele>
  <time>2026-08-28T17:50:26Z</time>
  <course>248.01</course>
  <speed>0.022360679774997897</speed>
  <fix>3d</fix>
</trkpt>
<trkpt lat="40.0713749" lon="-105.229789">
  <ele>1583.0</ele>
  <time>2026-08-28T17:50:26Z</time>
  <course>0.0</course>
  <speed>0.0</speed>
  <fix>3d</fix>
</trkpt>
<trkpt lat="40.0713749" lon="-105.229789">
  <ele>1583.0</ele>
  <time>2026-08-28T17:50:26Z</time>
  <course>248.01</course>
  <speed>0.022360679774997897</speed>
  <fix>3d</fix>
</trkpt>
<trkpt lat="40.0713749" lon="-105.229789">
  <ele>1583.0</ele>
  <time>2026-08-28T17:50:26Z</time>
  <course>0.0</course>
  <speed>0.0</speed>
  <fix>3d</fix>
</trkpt>
<trkpt lat="40.0713749" lon="-105.229789">
  <ele>1583.0</ele>
  <time>2026-08-28T17:50:26Z</time>
  <course>248.0</course>
  <speed>0.022360679774997897</speed>
  <fix>3d</fix>
</trkpt>
<trkpt lat="40.0713749" lon="-105.229789">
  <ele>1583.0</ele>
  <time>2026-08-28T17:50:26Z</time>
  <course>0.0</course>
  <speed>0.0</speed>
  <fix>3d</fix>
</trkpt>
<trkpt lat="40.0713749" lon="-105.229789">
  <ele>1583.0</ele>
  <time>2026-08-28T17:50:26Z</time>
  <course>248.0</course>
  <speed>0.022360679774997897</speed>
  <fix>3d</fix>
</trkpt>
<trkpt lat="40.0713749" lon="-105.229789">
  <ele>1583.0</ele>
  <time>2026-08-28T17:50:26Z</time>
  <course>0.0</course>
  <speed>0.0</speed>
  <fix>3d</fix>
</trkpt>
<trkpt lat="40.0713749" lon="-105.229789">
  <ele>1583.0</ele>
  <time>2026-08-28T17:50:26Z</time>
  <course>247.99</course>
  <speed>0.022360679774997897</speed>
  <fix>3d</fix>
</trkpt>
<trkpt lat="40.0713749" lon="-105.229789">
  <ele>1583.0</ele>
  <time>2026-08-28T17:50:26Z</time>
  <course>0.0</course>
  <speed>0.0</speed>
  <fix>3d</fix>
</trkpt>
<trkpt lat="40.0713749" lon="-105.229789">
  <ele>1583.0</ele>
  <time>2026-08-28T17:50:26Z</time>
  <course>247.99</course>
  <speed>0.022360679774997897</speed>
  <fix>3d</fix>
</trkpt>
<trkpt lat="40.0713749" lon="-105.229789">
  <ele>1583.0</ele>
  <time>2026-08-28T17:50:26Z</time>
  <course>0.0</course>
  <speed>0.0</speed>
  <fix>3d</fix>
</trkpt>
<trkpt lat="40.0713749" lon="-105.229789">
  <ele>1583.0</ele>
  <time>2026-08-28T17:50:26Z</time>
  <course>247.99</course>
  <speed>0.022360679774997897</speed>
  <fix>3d</fix>
</trkpt>
<trkpt lat="40.0713749" lon="-105.229789">
  <ele>1583.0</ele>
  <time>2026-08-28T17:50:26Z</time>
  <course>0.0</course>
  <speed>0.0</speed>
  <fix>3d</fix>
</trkpt>
<trkpt lat="40.0713749" lon="-105.229789">
  <ele>1583.0</ele>
  <time>2026-08-28T17:50:26Z</time>
  <course>247.98</course>
  <speed>0.022360679774997897</speed>
  <fix>3d</fix>
</trkpt>
<trkpt lat="40.0713749" lon="-105.229789">
  <ele>1583.0</ele>
  <time>2026-08-28T17:50:26Z</time>
  <course>0.0</course>
  <speed>0.0</speed>
  <fix>3d</fix>
</trkpt>
<trkpt lat="40.0713749" lon="-105.229789">
  <ele>1583.0</ele>
  <time>2026-08-28T17:50:26Z</time>
  <course>247.98</course>
  <speed>0.022360679774997897</speed>
  <fix>3d</fix>
</trkpt>
<trkpt lat="40.0713749" lon="-105.229789">
  <ele>1583.0</ele>
  <time>2026-08-28T17:50:26Z</time>
  <course>0.0</course>
  <speed>0.0</speed>
  <fix>3d</fix>
</trkpt>
<trkpt lat="40.0713749" lon="-105.229789">
  <ele>1583.0</ele>
  <time>2026-08-28T17:50:26Z</time>
  <course>247.97</course>
  <speed>0.022360679774997897</speed>
  <fix>3d</fix>
</trkpt>
<trkpt lat="40.0713749" lon="-105.229789">
  <ele>1583.0</ele>
  <time>2026-08-28T17:50:26Z</time>
  <course>0.0</course>
  <speed>0.0</speed>
  <fix>3d</fix>
</trkpt>
<trkpt lat="40.0713749" lon="-105.229789">
  <ele>1583.0</ele>
  <time>2026-08-28T17:50:26Z</time>
  <course>247.97</course>
  <speed>0.022360679774997897</speed>
  <fix>3d</fix>
</trkpt>
<trkpt lat="40.0713749" lon="-105.229789">
  <ele>1583.0</ele>
  <time>2026-08-28T17:50:26Z</time>
  <course>0.0</course>
  <speed>0.0</speed>
  <fix>3d</fix>
</trkpt>
<trkpt lat="40.0713749" lon="-105.229789">
  <ele>1583.0</ele>
  <time>2026-08-28T17:50:26Z</time>
  <course>247.96</course>
  <speed>0.022360679774997897</speed>
  <fix>3d</fix>
</trkpt>
<trkpt lat="40.0713749" lon="-105.229789">
  <ele>1583.0</ele>
  <time>2026-08-28T17:50:26Z</time>
  <course>0.0</course>
  <speed>0.0</speed>
  <fix>3d</fix>
</trkpt>
<trkpt lat="40.0713749" lon="-105.229789">
  <ele>1583.0</ele>
  <time>2026-08-28T17:50:26Z</time>
  <course>247.96</course>
  <speed>0.022360679774997897</speed>
  <fix>3d</fix>
</trkpt>
<trkpt lat="40.0713749" lon="-105.229789">
  <ele>1583.0</ele>
  <time>2026-08-28T17:50:26Z</time>
  <course>0.0</course>
  <speed>0.0</speed>
  <fix>3d</fix>
</trkpt>
<trkpt lat="40.0713749" lon="-105.229789">
  <ele>1583.0</ele>
  <time>2026-08-28T17:50:26Z</time>
  <course>247.95</course>
  <speed>0.022360679774997897</speed>
  <fix>3d</fix>
</trkpt>
<trkpt lat="40.0713749" lon="-105.229789">
  <ele>1583.0</ele>
  <time>2026-08-28T17:50:26Z</time>
  <course>0.0</course>
  <speed>0.0</speed>
  <fix>3d</fix>
</trkpt>
<trkpt lat="40.0713749" lon="-105.229789">
  <ele>1583.0</ele>
  <time>2026-08-28T17:50:26Z</time>
  <course>247.95</course>
  <speed>0.022360679774997897</speed>
  <fix>3d</fix>
</trkpt>
<trkpt lat="40.0713749" lon="-105.229789">
  <ele>1583.0</ele>
  <time>2026-08-28T17:50:26Z</time>
  <course>0.0</course>
  <speed>0.0</speed>
  <fix>3d</fix>
</trkpt>
<trkpt lat="40.0713749" lon="-105.229789">
  <ele>1583.0</ele>
  <time>2026-08-28T17:50:26Z</time>
  <course>247.95</course>
  <speed>0.022360679774997897</speed>
  <fix>3d</fix>
</trkpt>
<trkpt lat="40.0713749" lon="-105.229789">
  <ele>1583.0</ele>
  <time>2026-08-28T17:50:26Z</time>
  <course>0.0</course>
  <speed>0.0</speed>
  <fix>3d</fix>
</trkpt>
<trkpt lat="40.0713749" lon="-105.229789">
  <ele>1583.0</ele>
  <time>2026-08-28T17:50:26Z</time>
  <course>247.94</course>
  <speed>0.022360679774997897</speed>
  <fix>3d</fix>
</trkpt>
<trkpt lat="40.0713749" lon="-105.229789">
  <ele>1583.0</ele>
  <time>2026-08-28T17:50:26Z</time>
  <course>0.0</course>
  <speed>0.0</speed>
  <fix>3d</fix>
</trkpt>
<trkpt lat="40.0713749" lon="-105.229789">
  <ele>1583.0</ele>
  <time>2026-08-28T17:50:26Z</time>
  <course>247.94</course>
  <speed>0.022360679774997897</speed>
  <fix>3d</fix>
</trkpt>
<trkpt lat="40.0713749" lon="-105.229789">
  <ele>1583.0</ele>
  <time>2026-08-28T17:50:26Z</time>
  <course>0.0</course>
  <speed>0.0</speed>
  <fix>3d</fix>
</trkpt>
<trkpt lat="40.0713749" lon="-105.229789">
  <ele>1583.0</ele>
  <time>2026-08-28T17:50:26Z</time>
  <course>247.93</course>
  <speed>0.022360679774997897</speed>
  <fix>3d</fix>
</trkpt>
<trkpt lat="40.0713749" lon="-105.229789">
  <ele>1583.0</ele>
  <time>2026-08-28T17:50:26Z</time>
  <course>0.0</course>
  <speed>0.0</speed>
  <fix>3d</fix>
</trkpt>
<trkpt lat="40.0713749" lon="-105.229789">
  <ele>1583.0</ele>
  <time>2026-08-28T17:50:26Z</time>
  <course>247.93</course>
  <speed>0.022360679774997897</speed>
  <fix>3d</fix>
</trkpt>
<trkpt lat="40.0713749" lon="-105.229789">
  <ele>1583.0</ele>
  <time>2026-08-28T17:50:26Z</time>
  <course>0.0</course>
  <speed>0.0</speed>
  <fix>3d</fix>
</trkpt>
<trkpt lat="40.0713749" lon="-105.229789">
  <ele>1583.0</ele>
  <time>2026-08-28T17:50:26Z</time>
  <course>247.92</course>
  <speed>0.022360679774997897</speed>
  <fix>3d</fix>
</trkpt>
<trkpt lat="40.0713749" lon="-105.229789">
  <ele>1583.0</ele>
  <time>2026-08-28T17:50:26Z</time>
  <course>0.0</course>
  <speed>0.0</speed>
  <fix>3d</fix>
</trkpt>
<trkpt lat="40.0713749" lon="-105.229789">
  <ele>1583.0</ele>
  <time>2026-08-28T17:50:26Z</time>
  <course>247.92</course>
  <speed>0.022360679774997897</speed>
  <fix>3d</fix>
</trkpt>
<trkpt lat="40.0713749" lon="-105.229789">
  <ele>1583.0</ele>
  <time>2026-08-28T17:50:26Z</time>
  <course>0.0</course>
  <speed>0.0</speed>
  <fix>3d</fix>
</trkpt>
<trkpt lat="40.0713749" lon="-105.229789">
  <ele>1583.0</ele>
  <time>2026-08-28T17:50:26Z</time>
  <course>247.92</course>
  <speed>0.022360679774997897</speed>
  <fix>3d</fix>
</trkpt>
<trkpt lat="40.0713749" lon="-105.229789">
  <ele>1583.0</ele>
  <time>2026-08-28T17:50:26Z</time>
  <course>0.0</course>
  <speed>0.0</speed>
  <fix>3d</fix>
</trkpt>
<trkpt lat="40.0713749" lon="-105.229789">
  <ele>1583.0</ele>
  <time>2026-08-28T17:50:26Z</time>
  <course>247.91</course>
  <speed>0.022360679774997897</speed>
  <fix>3d</fix>
</trkpt>
<trkpt lat="40.0713749" lon="-105.229789">
  <ele>1583.0</ele>
  <time>2026-08-28T17:50:26Z</time>
  <course>0.0</course>
  <speed>0.0</speed>
  <fix>3d</fix>
</trkpt>
<trkpt lat="40.0713749" lon="-105.229789">
  <ele>1583.0</ele>
  <time>2026-08-28T17:50:26Z</time>
  <course>247.91</course>
  <speed>0.022360679774997897</speed>
  <fix>3d</fix>
</trkpt>
<trkpt lat="40.0713749" lon="-105.229789">
  <ele>1583.0</ele>
  <time>2026-08-28T17:50:26Z</time>
  <course>0.0</course>
  <speed>0.0</speed>
  <fix>3d</fix>
</trkpt>
<trkpt lat="40.0713749" lon="-105.229789">
  <ele>1583.0</ele>
  <time>2026-08-28T17:50:26Z</time>
  <course>247.9</course>
  <speed>0.022360679774997897</speed>
  <fix>3d</fix>
</trkpt>
<trkpt lat="40.0713749" lon="-105.229789">
  <ele>1583.0</ele>
  <time>2026-08-28T17:50:26Z</time>
  <course>0.0</course>
  <speed>0.0</speed>
  <fix>3d</fix>
</trkpt>
<trkpt lat="40.0713749" lon="-105.229789">
  <ele>1583.0</ele>
  <time>2026-08-28T17:50:26Z</time>
  <course>247.9</course>
  <speed>0.022360679774997897</speed>
  <fix>3d</fix>
</trkpt>
<trkpt lat="40.0713749" lon="-105.229789">
  <ele>1583.0</ele>
  <time>2026-08-28T17:50:26Z</time>
  <course>0.0</course>
  <speed>0.0</speed>
  <fix>3d</fix>
</trkpt>
<trkpt lat="40.0713749" lon="-105.229789">
  <ele>1583.0</ele>
  <time>2026-08-28T17:50:26Z</time>
  <course>247.89</course>
  <speed>0.022360679774997897</speed>
  <fix>3d</fix>
</trkpt>
<trkpt lat="40.0713749" lon="-105.229789">
  <ele>1583.0</ele>
  <time>2026-08-28T17:50:26Z</time>
  <course>0.0</course>
  <speed>0.0</speed>
  <fix>3d</fix>
</trkpt>
<trkpt lat="40.0713749" lon="-105.229789">
  <ele>1583.0</ele>
  <time>2026-08-28T17:50:26Z</time>
  <course>247.89</course>
  <speed>0.022360679774997897</speed>
  <fix>3d</fix>
</trkpt>
<trkpt lat="40.0713749" lon="-105.229789">
  <ele>1583.0</ele>
  <time>2026-08-28T17:50:26Z</time>
  <course>0.0</course>
  <speed>0.0</speed>
  <fix>3d</fix>
</trkpt>
<trkpt lat="40.0713749" lon="-105.229789">
  <ele>1583.0</ele>
  <time>2026-08-28T17:50:26Z</time>
  <course>247.89</course>
  <speed>0.022360679774997897</speed>
  <fix>3d</fix>
</trkpt>
<trkpt lat="40.0713749" lon="-105.229789">
  <ele>1583.0</ele>
  <time>2026-08-28T17:50:26Z</time>
  <course>0.0</course>
  <speed>0.0</speed>
  <fix>3d</fix>
</trkpt>
<trkpt lat="40.0713749" lon="-105.229789">
  <ele>1583.0</ele>
  <time>2026-08-28T17:50:26Z</time>
  <course>247.88</course>
  <speed>0.0316227766016838</speed>
  <fix>3d</fix>
</trkpt>
<trkpt lat="40.0713749" lon="-105.229789">
  <ele>1583.0</ele>
  <time>2026-08-28T17:50:26Z</time>
  <course>0.0</course>
  <speed>0.0</speed>
  <fix>3d</fix>
</trkpt>
<trkpt lat="40.0713749" lon="-105.229789">
  <ele>1583.0</ele>
  <time>2026-08-28T17:50:26Z</time>
  <course>247.88</course>
  <speed>0.0316227766016838</speed>
  <fix>3d</fix>
</trkpt>
<trkpt lat="40.0713749" lon="-105.229789">
  <ele>1583.0</ele>
  <time>2026-08-28T17:50:26Z</time>
  <course>0.0</course>
  <speed>0.0</speed>
  <fix>3d</fix>
</trkpt>
<trkpt lat="40.0713749" lon="-105.229789">
  <ele>1583.0</ele>
  <time>2026-08-28T17:50:26Z</time>
  <course>247.87</course>
  <speed>0.0316227766016838</speed>
  <fix>3d</fix>
</trkpt>
<trkpt lat="40.0713749" lon="-105.229789">
  <ele>1583.0</ele>
  <time>2026-08-28T17:50:26Z</time>
  <course>0.0</course>
  <speed>0.0</speed>
  <fix>3d</fix>
</trkpt>
<trkpt lat="40.0713749" lon="-105.229789">
  <ele>1583.0</ele>
  <time>2026-08-28T17:50:26Z</time>
  <course>247.87</course>
  <speed>0.0316227766016838</speed>
  <fix>3d</fix>
</trkpt>
<trkpt lat="40.0713749" lon="-105.229789">
  <ele>1583.0</ele>
  <time>2026-08-28T17:50:26Z</time>
  <course>0.0</course>
  <speed>0.0</speed>
  <fix>3d</fix>
</trkpt>
<trkpt lat="40.0713749" lon="-105.229789">
  <ele>1583.0</ele>
  <time>2026-08-28T17:50:26Z</time>
  <course>247.87</course>
  <speed>0.0316227766016838</speed>
  <fix>3d</fix>
</trkpt>
<trkpt lat="40.0713749" lon="-105.229789">
  <ele>1583.0</ele>
  <time>2026-08-28T17:50:26Z</time>
  <course>0.0</course>
  <speed>0.0</speed>
  <fix>3d</fix>
</trkpt>
<trkpt lat="40.0713749" lon="-105.229789">
  <ele>1583.0</ele>
  <time>2026-08-28T17:50:26Z</time>
  <course>247.86</course>
  <speed>0.0316227766016838</speed>
  <fix>3d</fix>
</trkpt>
<trkpt lat="40.0713749" lon="-105.229789">
  <ele>1583.0</ele>
  <time>2026-08-28T17:50:26Z</time>
  <course>0.0</course>
  <speed>0.0</speed>
  <fix>3d</fix>
</trkpt>
<trkpt lat="40.0713749" lon="-105.229789">
  <ele>1583.0</ele>
  <time>2026-08-28T17:50:26Z</time>
  <course>247.86</course>
  <speed>0.0316227766016838</speed>
  <fix>3d</fix>
</trkpt>
<trkpt lat="40.0713749" lon="-105.229789">
  <ele>1583.0</ele>
  <time>2026-08-28T17:50:26Z</time>
  <course>0.0</course>
  <speed>0.0</speed>
  <fix>3d</fix>
</trkpt>
<trkpt lat="40.0713749" lon="-105.229789">
  <ele>1583.0</ele>
  <time>2026-08-28T17:50:26Z</time>
  <course>247.85</course>
  <speed>0.0316227766016838</speed>
  <fix>3d</fix>
</trkpt>
<trkpt lat="40.0713749" lon="-105.229789">
  <ele>1583.0</ele>
  <time>2026-08-28T17:50:26Z</time>
  <course>0.0</course>
  <speed>0.0</speed>
  <fix>3d</fix>
</trkpt>
<trkpt lat="40.0713749" lon="-105.229789">
  <ele>1583.0</ele>
  <time>2026-08-28T17:50:26Z</time>
  <course>247.85</course>
  <speed>0.0316227766016838</speed>
  <fix>3d</fix>
</trkpt>
<trkpt lat="40.0713749" lon="-105.229789">
  <ele>1583.0</ele>
  <time>2026-08-28T17:50:26Z</time>
  <course>0.0</course>
  <speed>0.0</speed>
  <fix>3d</fix>
</trkpt>
<trkpt lat="40.0713749" lon="-105.229789">
  <ele>1583.0</ele>
  <time>2026-08-28T17:50:26Z</time>
  <course>247.85</course>
  <speed>0.0316227766016838</speed>
  <fix>3d</fix>
</trkpt>
<trkpt lat="40.0713749" lon="-105.229789">
  <ele>1583.0</ele>
  <time>2026-08-28T17:50:26Z</time>
  <course>0.0</course>
  <speed>0.0</speed>
  <fix>3d</fix>
</trkpt>
<trkpt lat="40.0713749" lon="-105.229789">
  <ele>1583.0</ele>
  <time>2026-08-28T17:50:26Z</time>
  <course>247.84</course>
  <speed>0.0316227766016838</speed>
  <fix>3d</fix>
</trkpt>
<trkpt lat="40.0713749" lon="-105.229789">
  <ele>1583.0</ele>
  <time>2026-08-28T17:50:26Z</time>
  <course>0.0</course>
  <speed>0.0</speed>
  <fix>3d</fix>
</trkpt>
<trkpt lat="40.0713749" lon="-105.229789">
  <ele>1583.0</ele>
  <time>2026-08-28T17:50:26Z</time>
  <course>247.84</course>
  <speed>0.0316227766016838</speed>
  <fix>3d</fix>
</trkpt>
<trkpt lat="40.0713749" lon="-105.229789">
  <ele>1583.0</ele>
  <time>2026-08-28T17:50:26Z</time>
  <course>0.0</course>
  <speed>0.0</speed>
  <fix>3d</fix>
</trkpt>
<trkpt lat="40.0713749" lon="-105.229789">
  <ele>1583.0</ele>
  <time>2026-08-28T17:50:26Z</time>
  <course>247.83</course>
  <speed>0.0316227766016838</speed>
  <fix>3d</fix>
</trkpt>
<trkpt lat="40.0713749" lon="-105.229789">
  <ele>1583.0</ele>
  <time>2026-08-28T17:50:26Z</time>
  <course>0.0</course>
  <speed>0.0</speed>
  <fix>3d</fix>
</trkpt>
<trkpt lat="40.0713749" lon="-105.229789">
  <ele>1583.0</ele>
  <time>2026-08-28T17:50:26Z</time>
  <course>247.83</course>
  <speed>0.0316227766016838</speed>
  <fix>3d</fix>
</trkpt>
<trkpt lat="40.0713749" lon="-105.229789">
  <ele>1583.0</ele>
  <time>2026-08-28T17:50:26Z</time>
  <course>0.0</course>
  <speed>0.0</speed>
  <fix>3d</fix>
</trkpt>
<trkpt lat="40.0713749" lon="-105.229789">
  <ele>1583.0</ele>
  <time>2026-08-28T17:50:26Z</time>
  <course>247.83</course>
  <speed>0.0316227766016838</speed>
  <fix>3d</fix>
</trkpt>
<trkpt lat="40.0713749" lon="-105.229789">
  <ele>1583.0</ele>
  <time>2026-08-28T17:50:26Z</time>
  <course>0.0</course>
  <speed>0.0</speed>
  <fix>3d</fix>
</trkpt>
<trkpt lat="40.0713749" lon="-105.229789">
  <ele>1583.0</ele>
  <time>2026-08-28T17:50:26Z</time>
  <course>247.82</course>
  <speed>0.0316227766016838</speed>
  <fix>3d</fix>
</trkpt>
<trkpt lat="40.0713749" lon="-105.229789">
  <ele>1583.0</ele>
  <time>2026-08-28T17:50:26Z</time>
  <course>0.0</course>
  <speed>0.0</speed>
  <fix>3d</fix>
</trkpt>
<trkpt lat="40.0713749" lon="-105.229789">
  <ele>1583.0</ele>
  <time>2026-08-28T17:50:26Z</time>
  <course>247.82</course>
  <speed>0.0316227766016838</speed>
  <fix>3d</fix>
</trkpt>
<trkpt lat="40.0713749" lon="-105.229789">
  <ele>1583.0</ele>
  <time>2026-08-28T17:50:26Z</time>
  <course>0.0</course>
  <speed>0.0</speed>
  <fix>3d</fix>
</trkpt>
<trkpt lat="40.0713749" lon="-105.229789">
  <ele>1583.0</ele>
  <time>2026-08-28T17:50:26Z</time>
  <course>247.82</course>
  <speed>0.0316227766016838</speed>
  <fix>3d</fix>
</trkpt>
<trkpt lat="40.0713749" lon="-105.229789">
  <ele>1583.0</ele>
  <time>2026-08-28T17:50:26Z</time>
  <course>0.0</course>
  <speed>0.0</speed>
  <fix>3d</fix>
</trkpt>
<trkpt lat="40.0713749" lon="-105.229789">
  <ele>1583.0</ele>
  <time>2026-08-28T17:50:26Z</time>
  <course>247.81</course>
  <speed>0.0316227766016838</speed>
  <fix>3d</fix>
</trkpt>
<trkpt lat="40.0713749" lon="-105.229789">
  <ele>1583.0</ele>
  <time>2026-08-28T17:50:26Z</time>
  <course>0.0</course>
  <speed>0.0</speed>
  <fix>3d</fix>
</trkpt>
<trkpt lat="40.0713749" lon="-105.229789">
  <ele>1583.0</ele>
  <time>2026-08-28T17:50:26Z</time>
  <course>247.81</course>
  <speed>0.0316227766016838</speed>
  <fix>3d</fix>
</trkpt>
<trkpt lat="40.0713749" lon="-105.229789">
  <ele>1583.0</ele>
  <time>2026-08-28T17:50:26Z</time>
  <course>0.0</course>
  <speed>0.0</speed>
  <fix>3d</fix>
</trkpt>
<trkpt lat="40.0713749" lon="-105.229789">
  <ele>1583.0</ele>
  <time>2026-08-28T17:50:26Z</time>
  <course>247.8</course>
  <speed>0.0316227766016838</speed>
  <fix>3d</fix>
</trkpt>
<trkpt lat="40.0713749" lon="-105.229789">
  <ele>1583.0</ele>
  <time>2026-08-28T17:50:26Z</time>
  <course>0.0</course>
  <speed>0.0</speed>
  <fix>3d</fix>
</trkpt>
<trkpt lat="40.0713749" lon="-105.229789">
  <ele>1583.0</ele>
  <time>2026-08-28T17:50:26Z</time>
  <course>247.8</course>
  <speed>0.0316227766016838</speed>
  <fix>3d</fix>
</trkpt>
<trkpt lat="40.0713749" lon="-105.229789">
  <ele>1583.0</ele>
  <time>2026-08-28T17:50:26Z</time>
  <course>0.0</course>
  <speed>0.0</speed>
  <fix>3d</fix>
</trkpt>
<trkpt lat="40.0713749" lon="-105.229789">
  <ele>1583.0</ele>
  <time>2026-08-28T17:50:26Z</time>
  <course>247.8</course>
  <speed>0.0316227766016838</speed>
  <fix>3d</fix>
</trkpt>
<trkpt lat="40.0713749" lon="-105.229789">
  <ele>1583.0</ele>
  <time>2026-08-28T17:50:26Z</time>
  <course>0.0</course>
  <speed>0.0</speed>
  <fix>3d</fix>
</trkpt>
<trkpt lat="40.0713749" lon="-105.229789">
  <ele>1583.0</ele>
  <time>2026-08-28T17:50:26Z</time>
  <course>247.79</course>
  <speed>0.0316227766016838</speed>
  <fix>3d</fix>
</trkpt>
<trkpt lat="40.0713749" lon="-105.229789">
  <ele>1583.0</ele>
  <time>2026-08-28T17:50:26Z</time>
  <course>0.0</course>
  <speed>0.0</speed>
  <fix>3d</fix>
</trkpt>
<trkpt lat="40.0713749" lon="-105.229789">
  <ele>1583.0</ele>
  <time>2026-08-28T17:50:26Z</time>
  <course>247.79</course>
  <speed>0.0316227766016838</speed>
  <fix>3d</fix>
</trkpt>
<trkpt lat="40.0713749" lon="-105.229789">
  <ele>1583.0</ele>
  <time>2026-08-28T17:50:26Z</time>
  <course>0.0</course>
  <speed>0.0</speed>
  <fix>3d</fix>
</trkpt>
<trkpt lat="40.0713749" lon="-105.229789">
  <ele>1583.0</ele>
  <time>2026-08-28T17:50:26Z</time>
  <course>247.79</course>
  <speed>0.0316227766016838</speed>
  <fix>3d</fix>
</trkpt>
<trkpt lat="40.0713749" lon="-105.229789">
  <ele>1583.0</ele>
  <time>2026-08-28T17:50:26Z</time>
  <course>0.0</course>
  <speed>0.0</speed>
  <fix>3d</fix>
</trkpt>
<trkpt lat="40.0713749" lon="-105.229789">
  <ele>1583.0</ele>
  <time>2026-08-28T17:50:26Z</time>
  <course>247.78</course>
  <speed>0.0316227766016838</speed>
  <fix>3d</fix>
</trkpt>
<trkpt lat="40.0713749" lon="-105.229789">
  <ele>1583.0</ele>
  <time>2026-08-28T17:50:26Z</time>
  <course>0.0</course>
  <speed>0.0</speed>
  <fix>3d</fix>
</trkpt>
<trkpt lat="40.0713749" lon="-105.229789">
  <ele>1583.0</ele>
  <time>2026-08-28T17:50:26Z</time>
  <course>247.78</course>
  <speed>0.0316227766016838</speed>
  <fix>3d</fix>
</trkpt>
<trkpt lat="40.0713749" lon="-105.229789">
  <ele>1583.0</ele>
  <time>2026-08-28T17:50:26Z</time>
  <course>0.0</course>
  <speed>0.0</speed>
  <fix>3d</fix>
</trkpt>
<trkpt lat="40.0713749" lon="-105.229789">
  <ele>1583.0</ele>
  <time>2026-08-28T17:50:26Z</time>
  <course>247.78</course>
  <speed>0.0316227766016838</speed>
  <fix>3d</fix>
</trkpt>
<trkpt lat="40.0713749" lon="-105.229789">
  <ele>1583.0</ele>
  <time>2026-08-28T17:50:26Z</time>
  <course>0.0</course>
  <speed>0.0</speed>
  <fix>3d</fix>
</trkpt>
<trkpt lat="40.0713749" lon="-105.229789">
  <ele>1583.0</ele>
  <time>2026-08-28T17:50:26Z</time>
  <course>247.77</course>
  <speed>0.0316227766016838</speed>
  <fix>3d</fix>
</trkpt>
<trkpt lat="40.0713749" lon="-105.229789">
  <ele>1583.0</ele>
  <time>2026-08-28T17:50:26Z</time>
  <course>0.0</course>
  <speed>0.0</speed>
  <fix>3d</fix>
</trkpt>
<trkpt lat="40.0713749" lon="-105.229789">
  <ele>1583.0</ele>
  <time>2026-08-28T17:50:26Z</time>
  <course>247.77</course>
  <speed>0.0316227766016838</speed>
  <fix>3d</fix>
</trkpt>
<trkpt lat="40.0713749" lon="-105.229789">
  <ele>1583.0</ele>
  <time>2026-08-28T17:50:26Z</time>
  <course>0.0</course>
  <speed>0.0</speed>
  <fix>3d</fix>
</trkpt>
<trkpt lat="40.0713749" lon="-105.229789">
  <ele>1583.0</ele>
  <time>2026-08-28T17:50:26Z</time>
  <course>247.76</course>
  <speed>0.0316227766016838</speed>
  <fix>3d</fix>
</trkpt>
<trkpt lat="40.0713749" lon="-105.229789">
  <ele>1583.0</ele>
  <time>2026-08-28T17:50:26Z</time>
  <course>0.0</course>
  <speed>0.0</speed>
  <fix>3d</fix>
</trkpt>
<trkpt lat="40.0713749" lon="-105.229789">
  <ele>1583.0</ele>
  <time>2026-08-28T17:50:26Z</time>
  <course>247.76</course>
  <speed>0.0316227766016838</speed>
  <fix>3d</fix>
</trkpt>
<trkpt lat="40.0713749" lon="-105.229789">
  <ele>1583.0</ele>
  <time>2026-08-28T17:50:26Z</time>
  <course>0.0</course>
  <speed>0.0</speed>
  <fix>3d</fix>
</trkpt>
<trkpt lat="40.0713749" lon="-105.229789">
  <ele>1583.0</ele>
  <time>2026-08-28T17:50:26Z</time>
  <course>247.76</course>
  <speed>0.0316227766016838</speed>
  <fix>3d</fix>
</trkpt>
<trkpt lat="40.0713749" lon="-105.229789">
  <ele>1583.0</ele>
  <time>2026-08-28T17:50:26Z</time>
  <course>0.0</course>
  <speed>0.0</speed>
  <fix>3d</fix>
</trkpt>
<trkpt lat="40.0713749" lon="-105.229789">
  <ele>1583.0</ele>
  <time>2026-08-28T17:50:26Z</time>
  <course>247.75</course>
  <speed>0.0316227766016838</speed>
  <fix>3d</fix>
</trkpt>
<trkpt lat="40.0713749" lon="-105.229789">
  <ele>1583.0</ele>
  <time>2026-08-28T17:50:26Z</time>
  <course>0.0</course>
  <speed>0.0</speed>
  <fix>3d</fix>
</trkpt>
<trkpt lat="40.0713749" lon="-105.229789">
  <ele>1583.0</ele>
  <time>2026-08-28T17:50:26Z</time>
  <course>247.75</course>
  <speed>0.0316227766016838</speed>
  <fix>3d</fix>
</trkpt>
<trkpt lat="40.0713749" lon="-105.229789">
  <ele>1583.0</ele>
  <time>2026-08-28T17:50:26Z</time>
  <course>0.0</course>
  <speed>0.0</speed>
  <fix>3d</fix>
</trkpt>
<trkpt lat="40.0713749" lon="-105.229789">
  <ele>1583.0</ele>
  <time>2026-08-28T17:50:26Z</time>
  <course>247.75</course>
  <speed>0.0316227766016838</speed>
  <fix>3d</fix>
</trkpt>
<trkpt lat="40.0713749" lon="-105.229789">
  <ele>1583.0</ele>
  <time>2026-08-28T17:50:26Z</time>
  <course>0.0</course>
  <speed>0.0</speed>
  <fix>3d</fix>
</trkpt>
<trkpt lat="40.0713749" lon="-105.229789">
  <ele>1583.0</ele>
  <time>2026-08-28T17:50:26Z</time>
  <course>247.74</course>
  <speed>0.0316227766016838</speed>
  <fix>3d</fix>
</trkpt>
<trkpt lat="40.0713749" lon="-105.229789">
  <ele>1583.0</ele>
  <time>2026-08-28T17:50:26Z</time>
  <course>0.0</course>
  <speed>0.0</speed>
  <fix>3d</fix>
</trkpt>
<trkpt lat="40.0713749" lon="-105.229789">
  <ele>1583.0</ele>
  <time>2026-08-28T17:50:26Z</time>
  <course>247.74</course>
  <speed>0.0316227766016838</speed>
  <fix>3d</fix>
</trkpt>
<trkpt lat="40.0713749" lon="-105.229789">
  <ele>1583.0</ele>
  <time>2026-08-28T17:50:26Z</time>
  <course>0.0</course>
  <speed>0.0</speed>
  <fix>3d</fix>
</trkpt>
<trkpt lat="40.0713749" lon="-105.229789">
  <ele>1583.0</ele>
  <time>2026-08-28T17:50:26Z</time>
  <course>247.74</course>
  <speed>0.0316227766016838</speed>
  <fix>3d</fix>
</trkpt>
<trkpt lat="40.0713749" lon="-105.229789">
  <ele>1583.0</ele>
  <time>2026-08-28T17:50:26Z</time>
  <course>0.0</course>
  <speed>0.0</speed>
  <fix>3d</fix>
</trkpt>
<trkpt lat="40.0713749" lon="-105.229789">
  <ele>1583.0</ele>
  <time>2026-08-28T17:50:26Z</time>
  <course>247.73</course>
  <speed>0.0316227766016838</speed>
  <fix>3d</fix>
</trkpt>
<trkpt lat="40.0713749" lon="-105.229789">
  <ele>1583.0</ele>
  <time>2026-08-28T17:50:26Z</time>
  <course>0.0</course>
  <speed>0.0</speed>
  <fix>3d</fix>
</trkpt>
<trkpt lat="40.0713749" lon="-105.229789">
  <ele>1583.0</ele>
  <time>2026-08-28T17:50:26Z</time>
  <course>247.73</course>
  <speed>0.0316227766016838</speed>
  <fix>3d</fix>
</trkpt>
<trkpt lat="40.0713749" lon="-105.229789">
  <ele>1583.0</ele>
  <time>2026-08-28T17:50:26Z</time>
  <course>0.0</course>
  <speed>0.0</speed>
  <fix>3d</fix>
</trkpt>
<trkpt lat="40.0713749" lon="-105.229789">
  <ele>1583.0</ele>
  <time>2026-08-28T17:50:26Z</time>
  <course>247.73</course>
  <speed>0.0316227766016838</speed>
  <fix>3d</fix>
</trkpt>
<trkpt lat="40.0713749" lon="-105.229789">
  <ele>1583.0</ele>
  <time>2026-08-28T17:50:26Z</time>
  <course>0.0</course>
  <speed>0.0</speed>
  <fix>3d</fix>
</trkpt>
<trkpt lat="40.0713749" lon="-105.229789">
  <ele>1583.0</ele>
  <time>2026-08-28T17:50:26Z</time>
  <course>247.72</course>
  <speed>0.0316227766016838</speed>
  <fix>3d</fix>
</trkpt>
<trkpt lat="40.0713749" lon="-105.229789">
  <ele>1583.0</ele>
  <time>2026-08-28T17:50:26Z</time>
  <course>0.0</course>
  <speed>0.0</speed>
  <fix>3d</fix>
</trkpt>
<trkpt lat="40.0713749" lon="-105.229789">
  <ele>1583.0</ele>
  <time>2026-08-28T17:50:26Z</time>
  <course>247.72</course>
  <speed>0.0316227766016838</speed>
  <fix>3d</fix>
</trkpt>
<trkpt lat="40.0713749" lon="-105.229789">
  <ele>1583.0</ele>
  <time>2026-08-28T17:50:26Z</time>
  <course>0.0</course>
  <speed>0.0</speed>
  <fix>3d</fix>
</trkpt>
<trkpt lat="40.0713749" lon="-105.229789">
  <ele>1583.0</ele>
  <time>2026-08-28T17:50:26Z</time>
  <course>247.72</course>
  <speed>0.0316227766016838</speed>
  <fix>3d</fix>
</trkpt>
<trkpt lat="40.0713749" lon="-105.229789">
  <ele>1583.0</ele>
  <time>2026-08-28T17:50:26Z</time>
  <course>0.0</course>
  <speed>0.0</speed>
  <fix>3d</fix>
</trkpt>
<trkpt lat="40.0713749" lon="-105.229789">
  <ele>1583.0</ele>
  <time>2026-08-28T17:50:26Z</time>
  <course>247.71</course>
  <speed>0.0316227766016838</speed>
  <fix>3d</fix>
</trkpt>
<trkpt lat="40.0713749" lon="-105.229789">
  <ele>1583.0</ele>
  <time>2026-08-28T17:50:26Z</time>
  <course>0.0</course>
  <speed>0.0</speed>
  <fix>3d</fix>
</trkpt>
<trkpt lat="40.0713749" lon="-105.229789">
  <ele>1583.0</ele>
  <time>2026-08-28T17:50:26Z</time>
  <course>247.71</course>
  <speed>0.0316227766016838</speed>
  <fix>3d</fix>
</trkpt>
<trkpt lat="40.0713749" lon="-105.229789">
  <ele>1583.0</ele>
  <time>2026-08-28T17:50:26Z</time>
  <course>0.0</course>
  <speed>0.0</speed>
  <fix>3d</fix>
</trkpt>
<trkpt lat="40.0713749" lon="-105.229789">
  <ele>1583.0</ele>
  <time>2026-08-28T17:50:26Z</time>
  <course>247.71</course>
  <speed>0.0316227766016838</speed>
  <fix>3d</fix>
</trkpt>
<trkpt lat="40.0713749" lon="-105.229789">
  <ele>1583.0</ele>
  <time>2026-08-28T17:50:26Z</time>
  <course>0.0</course>
  <speed>0.0</speed>
  <fix>3d</fix>
</trkpt>
<trkpt lat="40.0713749" lon="-105.229789">
  <ele>1583.0</ele>
  <time>2026-08-28T17:50:26Z</time>
  <course>247.7</course>
  <speed>0.0316227766016838</speed>
  <fix>3d</fix>
</trkpt>
<trkpt lat="40.0713749" lon="-105.229789">
  <ele>1583.0</ele>
  <time>2026-08-28T17:50:26Z</time>
  <course>0.0</course>
  <speed>0.0</speed>
  <fix>3d</fix>
</trkpt>
<trkpt lat="40.0713749" lon="-105.229789">
  <ele>1583.0</ele>
  <time>2026-08-28T17:50:26Z</time>
  <course>247.7</course>
  <speed>0.0316227766016838</speed>
  <fix>3d</fix>
</trkpt>
<trkpt lat="40.0713749" lon="-105.229789">
  <ele>1583.0</ele>
  <time>2026-08-28T17:50:26Z</time>
  <course>0.0</course>
  <speed>0.0</speed>
  <fix>3d</fix>
</trkpt>
<trkpt lat="40.0713749" lon="-105.229789">
  <ele>1583.0</ele>
  <time>2026-08-28T17:50:26Z</time>
  <course>247.7</course>
  <speed>0.0316227766016838</speed>
  <fix>3d</fix>
</trkpt>
<trkpt lat="40.0713749" lon="-105.229789">
  <ele>1583.0</ele>
  <time>2026-08-28T17:50:26Z</time>
  <course>0.0</course>
  <speed>0.0</speed>
  <fix>3d</fix>
</trkpt>
<trkpt lat="40.0713749" lon="-105.229789">
  <ele>1583.0</ele>
  <time>2026-08-28T17:50:26Z</time>
  <course>247.69</course>
  <speed>0.0316227766016838</speed>
  <fix>3d</fix>
</trkpt>
<trkpt lat="40.0713749" lon="-105.229789">
  <ele>1583.0</ele>
  <time>2026-08-28T17:50:26Z</time>
  <course>0.0</course>
  <speed>0.0</speed>
  <fix>3d</fix>
</trkpt>
<trkpt lat="40.0713749" lon="-105.229789">
  <ele>1583.0</ele>
  <time>2026-08-28T17:50:26Z</time>
  <course>247.69</course>
  <speed>0.0316227766016838</speed>
  <fix>3d</fix>
</trkpt>
<trkpt lat="40.0713749" lon="-105.229789">
  <ele>1583.0</ele>
  <time>2026-08-28T17:50:26Z</time>
  <course>0.0</course>
  <speed>0.0</speed>
  <fix>3d</fix>
</trkpt>
<trkpt lat="40.0713749" lon="-105.229789">
  <ele>1583.0</ele>
  <time>2026-08-28T17:50:26Z</time>
  <course>247.69</course>
  <speed>0.0316227766016838</speed>
  <fix>3d</fix>
</trkpt>
<trkpt lat="40.0713749" lon="-105.229789">
  <ele>1583.0</ele>
  <time>2026-08-28T17:50:26Z</time>
  <course>0.0</course>
  <speed>0.0</speed>
  <fix>3d</fix>
</trkpt>
<trkpt lat="40.0713749" lon="-105.229789">
  <ele>1583.0</ele>
  <time>2026-08-28T17:50:26Z</time>
  <course>247.68</course>
  <speed>0.0316227766016838</speed>
  <fix>3d</fix>
</trkpt>
<trkpt lat="40.0713749" lon="-105.229789">
  <ele>1583.0</ele>
  <time>2026-08-28T17:50:26Z</time>
  <course>0.0</course>
  <speed>0.0</speed>
  <fix>3d</fix>
</trkpt>
<trkpt lat="40.0713749" lon="-105.229789">
  <ele>1583.0</ele>
  <time>2026-08-28T17:50:26Z</time>
  <course>247.68</course>
  <speed>0.0316227766016838</speed>
  <fix>3d</fix>
</trkpt>
<trkpt lat="40.0713749" lon="-105.229789">
  <ele>1583.0</ele>
  <time>2026-08-28T17:50:26Z</time>
  <course>0.0</course>
  <speed>0.0</speed>
  <fix>3d</fix>
</trkpt>
<trkpt lat="40.0713749" lon="-105.229789">
  <ele>1583.0</ele>
  <time>2026-08-28T17:50:26Z</time>
  <course>247.68</course>
  <speed>0.0316227766016838</speed>
  <fix>3d</fix>
</trkpt>
<trkpt lat="40.0713749" lon="-105.229789">
  <ele>1583.0</ele>
  <time>2026-08-28T17:50:26Z</time>
  <course>0.0</course>
  <speed>0.0</speed>
  <fix>3d</fix>
</trkpt>
<trkpt lat="40.0713749" lon="-105.229789">
  <ele>1583.0</ele>
  <time>2026-08-28T17:50:26Z</time>
  <course>247.67</course>
  <speed>0.0316227766016838</speed>
  <fix>3d</fix>
</trkpt>
<trkpt lat="40.0713749" lon="-105.229789">
  <ele>1583.0</ele>
  <time>2026-08-28T17:50:26Z</time>
  <course>0.0</course>
  <speed>0.0</speed>
  <fix>3d</fix>
</trkpt>
<trkpt lat="40.0713749" lon="-105.229789">
  <ele>1583.0</ele>
  <time>2026-08-28T17:50:26Z</time>
  <course>247.67</course>
  <speed>0.0316227766016838</speed>
  <fix>3d</fix>
</trkpt>
<trkpt lat="40.0713749" lon="-105.229789">
  <ele>1583.0</ele>
  <time>2026-08-28T17:50:26Z</time>
  <course>0.0</course>
  <speed>0.0</speed>
  <fix>3d</fix>
</trkpt>
<trkpt lat="40.0713749" lon="-105.229789">
  <ele>1583.0</ele>
  <time>2026-08-28T17:50:26Z</time>
  <course>247.67</course>
  <speed>0.0316227766016838</speed>
  <fix>3d</fix>
</trkpt>
<trkpt lat="40.0713749" lon="-105.229789">
  <ele>1583.0</ele>
  <time>2026-08-28T17:50:26Z</time>
  <course>0.0</course>
  <speed>0.0</speed>
  <fix>3d</fix>
</trkpt>
<trkpt lat="40.0713749" lon="-105.229789">
  <ele>1583.0</ele>
  <time>2026-08-28T17:50:26Z</time>
  <course>247.66</course>
  <speed>0.0316227766016838</speed>
  <fix>3d</fix>
</trkpt>
<trkpt lat="40.0713749" lon="-105.229789">
  <ele>1583.0</ele>
  <time>2026-08-28T17:50:26Z</time>
  <course>0.0</course>
  <speed>0.0</speed>
  <fix>3d</fix>
</trkpt>
<trkpt lat="40.0713749" lon="-105.229789">
  <ele>1583.0</ele>
  <time>2026-08-28T17:50:26Z</time>
  <course>247.66</course>
  <speed>0.0316227766016838</speed>
  <fix>3d</fix>
</trkpt>
<trkpt lat="40.0713749" lon="-105.229789">
  <ele>1583.0</ele>
  <time>2026-08-28T17:50:26Z</time>
  <course>0.0</course>
  <speed>0.0</speed>
  <fix>3d</fix>
</trkpt>
<trkpt lat="40.0713749" lon="-105.229789">
  <ele>1583.0</ele>
  <time>2026-08-28T17:50:26Z</time>
  <course>247.66</course>
  <speed>0.0316227766016838</speed>
  <fix>3d</fix>
</trkpt>
<trkpt lat="40.0713749" lon="-105.229789">
  <ele>1583.0</ele>
  <time>2026-08-28T17:50:26Z</time>
  <course>0.0</course>
  <speed>0.0</speed>
  <fix>3d</fix>
</trkpt>
<trkpt lat="40.0713749" lon="-105.229789">
  <ele>1583.0</ele>
  <time>2026-08-28T17:50:26Z</time>
  <course>247.65</course>
  <speed>0.0316227766016838</speed>
  <fix>3d</fix>
</trkpt>
<trkpt lat="40.0713749" lon="-105.229789">
  <ele>1583.0</ele>
  <time>2026-08-28T17:50:26Z</time>
  <course>0.0</course>
  <speed>0.0</speed>
  <fix>3d</fix>
</trkpt>
<trkpt lat="40.0713749" lon="-105.229789">
  <ele>1583.0</ele>
  <time>2026-08-28T17:50:26Z</time>
  <course>247.65</course>
  <speed>0.0316227766016838</speed>
  <fix>3d</fix>
</trkpt>
<trkpt lat="40.0713749" lon="-105.229789">
  <ele>1583.0</ele>
  <time>2026-08-28T17:50:26Z</time>
  <course>0.0</course>
  <speed>0.0</speed>
  <fix>3d</fix>
</trkpt>
<trkpt lat="40.0713749" lon="-105.229789">
  <ele>1583.0</ele>
  <time>2026-08-28T17:50:26Z</time>
  <course>247.65</course>
  <speed>0.0316227766016838</speed>
  <fix>3d</fix>
</trkpt>
<trkpt lat="40.0713749" lon="-105.229789">
  <ele>1583.0</ele>
  <time>2026-08-28T17:50:26Z</time>
  <course>0.0</course>
  <speed>0.0</speed>
  <fix>3d</fix>
</trkpt>
<trkpt lat="40.0713749" lon="-105.229789">
  <ele>1583.0</ele>
  <time>2026-08-28T17:50:26Z</time>
  <course>247.64</course>
  <speed>0.0316227766016838</speed>
  <fix>3d</fix>
</trkpt>
<trkpt lat="40.0713749" lon="-105.229789">
  <ele>1583.0</ele>
  <time>2026-08-28T17:50:26Z</time>
  <course>0.0</course>
  <speed>0.0</speed>
  <fix>3d</fix>
</trkpt>
<trkpt lat="40.0713749" lon="-105.229789">
  <ele>1583.0</ele>
  <time>2026-08-28T17:50:26Z</time>
  <course>247.64</course>
  <speed>0.0316227766016838</speed>
  <fix>3d</fix>
</trkpt>
<trkpt lat="40.0713749" lon="-105.229789">
  <ele>1583.0</ele>
  <time>2026-08-28T17:50:26Z</time>
  <course>0.0</course>
  <speed>0.0</speed>
  <fix>3d</fix>
</trkpt>
<trkpt lat="40.0713749" lon="-105.229789">
  <ele>1583.0</ele>
  <time>2026-08-28T17:50:26Z</time>
  <course>247.64</course>
  <speed>0.0316227766016838</speed>
  <fix>3d</fix>
</trkpt>
<trkpt lat="40.0713749" lon="-105.229789">
  <ele>1583.0</ele>
  <time>2026-08-28T17:50:26Z</time>
  <course>0.0</course>
  <speed>0.0</speed>
  <fix>3d</fix>
</trkpt>
<trkpt lat="40.0713749" lon="-105.229789">
  <ele>1583.0</ele>
  <time>2026-08-28T17:50:26Z</time>
  <course>247.64</course>
  <speed>0.0316227766016838</speed>
  <fix>3d</fix>
</trkpt>
<trkpt lat="40.0713749" lon="-105.229789">
  <ele>1583.0</ele>
  <time>2026-08-28T17:50:26Z</time>
  <course>0.0</course>
  <speed>0.0</speed>
  <fix>3d</fix>
</trkpt>
<trkpt lat="40.0713749" lon="-105.229789">
  <ele>1583.0</ele>
  <time>2026-08-28T17:50:26Z</time>
  <course>247.63</course>
  <speed>0.0316227766016838</speed>
  <fix>3d</fix>
</trkpt>
<trkpt lat="40.0713749" lon="-105.229789">
  <ele>1583.0</ele>
  <time>2026-08-28T17:50:26Z</time>
  <course>0.0</course>
  <speed>0.0</speed>
  <fix>3d</fix>
</trkpt>
<trkpt lat="40.0713749" lon="-105.229789">
  <ele>1583.0</ele>
  <time>2026-08-28T17:50:26Z</time>
  <course>247.63</course>
  <speed>0.0316227766016838</speed>
  <fix>3d</fix>
</trkpt>
<trkpt lat="40.0713749" lon="-105.229789">
  <ele>1583.0</ele>
  <time>2026-08-28T17:50:26Z</time>
  <course>0.0</course>
  <speed>0.0</speed>
  <fix>3d</fix>
</trkpt>
<trkpt lat="40.0713749" lon="-105.229789">
  <ele>1583.0</ele>
  <time>2026-08-28T17:50:26Z</time>
  <course>247.63</course>
  <speed>0.0316227766016838</speed>
  <fix>3d</fix>
</trkpt>
<trkpt lat="40.0713749" lon="-105.229789">
  <ele>1583.0</ele>
  <time>2026-08-28T17:50:26Z</time>
  <course>0.0</course>
  <speed>0.0</speed>
  <fix>3d</fix>
</trkpt>
<trkpt lat="40.0713749" lon="-105.229789">
  <ele>1583.0</ele>
  <time>2026-08-28T17:50:26Z</time>
  <course>247.62</course>
  <speed>0.0316227766016838</speed>
  <fix>3d</fix>
</trkpt>
<trkpt lat="40.0713749" lon="-105.229789">
  <ele>1583.0</ele>
  <time>2026-08-28T17:50:26Z</time>
  <course>0.0</course>
  <speed>0.0</speed>
  <fix>3d</fix>
</trkpt>
<trkpt lat="40.0713749" lon="-105.229789">
  <ele>1583.0</ele>
  <time>2026-08-28T17:50:26Z</time>
  <course>247.62</course>
  <speed>0.0316227766016838</speed>
  <fix>3d</fix>
</trkpt>
<trkpt lat="40.0713749" lon="-105.229789">
  <ele>1583.0</ele>
  <time>2026-08-28T17:50:26Z</time>
  <course>0.0</course>
  <speed>0.0</speed>
  <fix>3d</fix>
</trkpt>
<trkpt lat="40.0713749" lon="-105.229789">
  <ele>1583.0</ele>
  <time>2026-08-28T17:50:26Z</time>
  <course>247.62</course>
  <speed>0.0316227766016838</speed>
  <fix>3d</fix>
</trkpt>
<trkpt lat="40.0713749" lon="-105.229789">
  <ele>1583.0</ele>
  <time>2026-08-28T17:50:26Z</time>
  <course>0.0</course>
  <speed>0.0</speed>
  <fix>3d</fix>
</trkpt>
<trkpt lat="40.0713749" lon="-105.229789">
  <ele>1583.0</ele>
  <time>2026-08-28T17:50:26Z</time>
  <course>247.62</course>
  <speed>0.0316227766016838</speed>
  <fix>3d</fix>
</trkpt>
<trkpt lat="40.0713749" lon="-105.229789">
  <ele>1583.0</ele>
  <time>2026-08-28T17:50:26Z</time>
  <course>0.0</course>
  <speed>0.0</speed>
  <fix>3d</fix>
</trkpt>
<trkpt lat="40.0713749" lon="-105.229789">
  <ele>1583.0</ele>
  <time>2026-08-28T17:50:26Z</time>
  <course>247.61</course>
  <speed>0.0316227766016838</speed>
  <fix>3d</fix>
</trkpt>
<trkpt lat="40.0713749" lon="-105.229789">
  <ele>1583.0</ele>
  <time>2026-08-28T17:50:26Z</time>
  <course>0.0</course>
  <speed>0.0</speed>
  <fix>3d</fix>
</trkpt>
<trkpt lat="40.0713749" lon="-105.229789">
  <ele>1583.0</ele>
  <time>2026-08-28T17:50:26Z</time>
  <course>247.61</course>
  <speed>0.0316227766016838</speed>
  <fix>3d</fix>
</trkpt>
<trkpt lat="40.0713749" lon="-105.229789">
  <ele>1583.0</ele>
  <time>2026-08-28T17:50:26Z</time>
  <course>0.0</course>
  <speed>0.0</speed>
  <fix>3d</fix>
</trkpt>
<trkpt lat="40.0713749" lon="-105.229789">
  <ele>1583.0</ele>
  <time>2026-08-28T17:50:26Z</time>
  <course>247.61</course>
  <speed>0.0316227766016838</speed>
  <fix>3d</fix>
</trkpt>
<trkpt lat="40.0713749" lon="-105.229789">
  <ele>1583.0</ele>
  <time>2026-08-28T17:50:26Z</time>
  <course>0.0</course>
  <speed>0.0</speed>
  <fix>3d</fix>
</trkpt>
<trkpt lat="40.0713749" lon="-105.229789">
  <ele>1583.0</ele>
  <time>2026-08-28T17:50:26Z</time>
  <course>247.6</course>
  <speed>0.0316227766016838</speed>
  <fix>3d</fix>
</trkpt>
<trkpt lat="40.0713749" lon="-105.229789">
  <ele>1583.0</ele>
  <time>2026-08-28T17:50:26Z</time>
  <course>0.0</course>
  <speed>0.0</speed>
  <fix>3d</fix>
</trkpt>
<trkpt lat="40.0713749" lon="-105.229789">
  <ele>1583.0</ele>
  <time>2026-08-28T17:50:26Z</time>
  <course>247.6</course>
  <speed>0.0316227766016838</speed>
  <fix>3d</fix>
</trkpt>
<trkpt lat="40.0713749" lon="-105.229789">
  <ele>1583.0</ele>
  <time>2026-08-28T17:50:26Z</time>
  <course>0.0</course>
  <speed>0.0</speed>
  <fix>3d</fix>
</trkpt>
<trkpt lat="40.0713749" lon="-105.229789">
  <ele>1583.0</ele>
  <time>2026-08-28T17:50:26Z</time>
  <course>247.6</course>
  <speed>0.0316227766016838</speed>
  <fix>3d</fix>
</trkpt>
<trkpt lat="40.0713749" lon="-105.229789">
  <ele>1583.0</ele>
  <time>2026-08-28T17:50:26Z</time>
  <course>0.0</course>
  <speed>0.0</speed>
  <fix>3d</fix>
</trkpt>
<trkpt lat="40.0713749" lon="-105.229789">
  <ele>1583.0</ele>
  <time>2026-08-28T17:50:26Z</time>
  <course>247.6</course>
  <speed>0.0316227766016838</speed>
  <fix>3d</fix>
</trkpt>
<trkpt lat="40.0713749" lon="-105.229789">
  <ele>1583.0</ele>
  <time>2026-08-28T17:50:26Z</time>
  <course>0.0</course>
  <speed>0.0</speed>
  <fix>3d</fix>
</trkpt>
<trkpt lat="40.0713749" lon="-105.229789">
  <ele>1583.0</ele>
  <time>2026-08-28T17:50:26Z</time>
  <course>247.59</course>
  <speed>0.0316227766016838</speed>
  <fix>3d</fix>
</trkpt>
<trkpt lat="40.0713749" lon="-105.229789">
  <ele>1583.0</ele>
  <time>2026-08-28T17:50:26Z</time>
  <course>0.0</course>
  <speed>0.0</speed>
  <fix>3d</fix>
</trkpt>
<trkpt lat="40.0713749" lon="-105.229789">
  <ele>1582.92</ele>
  <time>2026-08-28T17:50:26Z</time>
  <course>247.59</course>
  <speed>0.0</speed>
  <fix>3d</fix>
</trkpt>
<trkpt lat="40.0713749" lon="-105.229789">
  <ele>1583.0</ele>
  <time>2026-08-28T17:50:26Z</time>
  <course>0.0</course>
  <speed>0.0</speed>
  <fix>3d</fix>
</trkpt>
<trkpt lat="40.0713749" lon="-105.229789">
  <ele>1582.92</ele>
  <time>2026-08-28T17:50:26Z</time>
  <course>247.59</course>
  <speed>0.0</speed>
  <fix>3d</fix>
</trkpt>
<trkpt lat="40.0713749" lon="-105.229789">
  <ele>1583.0</ele>
  <time>2026-08-28T17:50:26Z</time>
  <course>0.0</course>
  <speed>0.0</speed>
  <fix>3d</fix>
</trkpt>
<trkpt lat="40.0713749" lon="-105.229789">
  <ele>1582.91</ele>
  <time>2026-08-28T17:50:26Z</time>
  <course>247.58</course>
  <speed>0.0</speed>
  <fix>3d</fix>
</trkpt>
<trkpt lat="40.0713749" lon="-105.229789">
  <ele>1583.0</ele>
  <time>2026-08-28T17:50:26Z</time>
  <course>0.0</course>
  <speed>0.0</speed>
  <fix>3d</fix>
</trkpt>
<trkpt lat="40.0713749" lon="-105.229789">
  <ele>1582.91</ele>
  <time>2026-08-28T17:50:26Z</time>
  <course>247.58</course>
  <speed>0.0</speed>
  <fix>3d</fix>
</trkpt>
<trkpt lat="40.0713749" lon="-105.229789">
  <ele>1583.0</ele>
  <time>2026-08-28T17:50:26Z</time>
  <course>0.0</course>
  <speed>0.0</speed>
  <fix>3d</fix>
</trkpt>
<trkpt lat="40.0713749" lon="-105.229789">
  <ele>1582.9</ele>
  <time>2026-08-28T17:50:26Z</time>
  <course>247.58</course>
  <speed>0.0</speed>
  <fix>3d</fix>
</trkpt>
<trkpt lat="40.0713749" lon="-105.229789">
  <ele>1583.0</ele>
  <time>2026-08-28T17:50:26Z</time>
  <course>0.0</course>
  <speed>0.0</speed>
  <fix>3d</fix>
</trkpt>
<trkpt lat="40.0713749" lon="-105.229789">
  <ele>1582.9</ele>
  <time>2026-08-28T17:50:26Z</time>
  <course>247.58</course>
  <speed>0.0</speed>
  <fix>3d</fix>
</trkpt>
<trkpt lat="40.0713749" lon="-105.229789">
  <ele>1583.0</ele>
  <time>2026-08-28T17:50:26Z</time>
  <course>0.0</course>
  <speed>0.0</speed>
  <fix>3d</fix>
</trkpt>
<trkpt lat="40.0713749" lon="-105.229789">
  <ele>1582.9</ele>
  <time>2026-08-28T17:50:26Z</time>
  <course>247.57</course>
  <speed>0.0</speed>
  <fix>3d</fix>
</trkpt>
<trkpt lat="40.0713749" lon="-105.229789">
  <ele>1583.0</ele>
  <time>2026-08-28T17:50:26Z</time>
  <course>0.0</course>
  <speed>0.0</speed>
  <fix>3d</fix>
</trkpt>
<trkpt lat="40.0713749" lon="-105.229789">
  <ele>1582.9</ele>
  <time>2026-08-28T17:50:26Z</time>
  <course>247.57</course>
  <speed>0.0</speed>
  <fix>3d</fix>
</trkpt>
<trkpt lat="40.0713749" lon="-105.229789">
  <ele>1583.0</ele>
  <time>2026-08-28T17:50:26Z</time>
  <course>0.0</course>
  <speed>0.0</speed>
  <fix>3d</fix>
</trkpt>
<trkpt lat="40.0713749" lon="-105.229789">
  <ele>1582.9</ele>
  <time>2026-08-28T17:50:26Z</time>
  <course>247.57</course>
  <speed>0.0</speed>
  <fix>3d</fix>
</trkpt>
<trkpt lat="40.0713749" lon="-105.229789">
  <ele>1583.0</ele>
  <time>2026-08-28T17:50:26Z</time>
  <course>0.0</course>
  <speed>0.0</speed>
  <fix>3d</fix>
</trkpt>
<trkpt lat="40.0713749" lon="-105.229789">
  <ele>1582.9</ele>
  <time>2026-08-28T17:50:26Z</time>
  <course>247.57</course>
  <speed>0.01</speed>
  <fix>3d</fix>
</trkpt>
<trkpt lat="40.0713749" lon="-105.229789">
  <ele>1583.0</ele>
  <time>2026-08-28T17:50:26Z</time>
  <course>0.0</course>
  <speed>0.0</speed>
  <fix>3d</fix>
</trkpt>
<trkpt lat="40.0713749" lon="-105.229789">
  <ele>1582.9</ele>
  <time>2026-08-28T17:50:26Z</time>
  <course>247.56</course>
  <speed>0.01</speed>
  <fix>3d</fix>
</trkpt>
<trkpt lat="40.0713749" lon="-105.229789">
  <ele>1583.0</ele>
  <time>2026-08-28T17:50:26Z</time>
  <course>0.0</course>
  <speed>0.0</speed>
  <fix>3d</fix>
</trkpt>
<trkpt lat="40.0713749" lon="-105.229789">
  <ele>1582.91</ele>
  <time>2026-08-28T17:50:26Z</time>
  <course>247.56</course>
  <speed>0.01</speed>
  <fix>3d</fix>
</trkpt>
<trkpt lat="40.0713749" lon="-105.229789">
  <ele>1583.0</ele>
  <time>2026-08-28T17:50:26Z</time>
  <course>0.0</course>
  <speed>0.0</speed>
  <fix>3d</fix>
</trkpt>
<trkpt lat="40.0713749" lon="-105.229789">
  <ele>1582.91</ele>
  <time>2026-08-28T17:50:26Z</time>
  <course>247.56</course>
  <speed>0.01</speed>
  <fix>3d</fix>
</trkpt>
<trkpt lat="40.0713749" lon="-105.229789">
  <ele>1583.0</ele>
  <time>2026-08-28T17:50:26Z</time>
  <course>0.0</course>
  <speed>0.0</speed>
  <fix>3d</fix>
</trkpt>
<trkpt lat="40.0713749" lon="-105.229789">
  <ele>1582.92</ele>
  <time>2026-08-28T17:50:26Z</time>
  <course>247.56</course>
  <speed>0.01</speed>
  <fix>3d</fix>
</trkpt>
<trkpt lat="40.0713749" lon="-105.229789">
  <ele>1583.0</ele>
  <time>2026-08-28T17:50:26Z</time>
  <course>0.0</course>
  <speed>0.0</speed>
  <fix>3d</fix>
</trkpt>
<trkpt lat="40.0713749" lon="-105.229789">
  <ele>1582.92</ele>
  <time>2026-08-28T17:50:26Z</time>
  <course>247.55</course>
  <speed>0.01</speed>
  <fix>3d</fix>
</trkpt>
<trkpt lat="40.0713749" lon="-105.229789">
  <ele>1583.0</ele>
  <time>2026-08-28T17:50:26Z</time>
  <course>0.0</course>
  <speed>0.0</speed>
  <fix>3d</fix>
</trkpt>
<trkpt lat="40.0713749" lon="-105.229789">
  <ele>1582.92</ele>
  <time>2026-08-28T17:50:26Z</time>
  <course>247.55</course>
  <speed>0.01</speed>
  <fix>3d</fix>
</trkpt>
<trkpt lat="40.0713749" lon="-105.229789">
  <ele>1583.0</ele>
  <time>2026-08-28T17:50:26Z</time>
  <course>0.0</course>
  <speed>0.0</speed>
  <fix>3d</fix>
</trkpt>
<trkpt lat="40.0713749" lon="-105.229789">
  <ele>1582.93</ele>
  <time>2026-08-28T17:50:26Z</time>
  <course>247.55</course>
  <speed>0.01</speed>
  <fix>3d</fix>
</trkpt>
<trkpt lat="40.0713749" lon="-105.229789">
  <ele>1583.0</ele>
  <time>2026-08-28T17:50:26Z</time>
  <course>0.0</course>
  <speed>0.0</speed>
  <fix>3d</fix>
</trkpt>
<trkpt lat="40.0713749" lon="-105.229789">
  <ele>1582.93</ele>
  <time>2026-08-28T17:50:26Z</time>
  <course>247.55</course>
  <speed>0.01</speed>
  <fix>3d</fix>
</trkpt>
<trkpt lat="40.0713749" lon="-105.229789">
  <ele>1583.0</ele>
  <time>2026-08-28T17:50:26Z</time>
  <course>0.0</course>
  <speed>0.0</speed>
  <fix>3d</fix>
</trkpt>
<trkpt lat="40.0713749" lon="-105.229789">
  <ele>1582.93</ele>
  <time>2026-08-28T17:50:26Z</time>
  <course>247.54</course>
  <speed>0.01</speed>
  <fix>3d</fix>
</trkpt>
<trkpt lat="40.0713749" lon="-105.229789">
  <ele>1583.0</ele>
  <time>2026-08-28T17:50:26Z</time>
  <course>0.0</course>
  <speed>0.0</speed>
  <fix>3d</fix>
</trkpt>
<trkpt lat="40.0713749" lon="-105.229789">
  <ele>1582.93</ele>
  <time>2026-08-28T17:50:26Z</time>
  <course>247.54</course>
  <speed>0.01</speed>
  <fix>3d</fix>
</trkpt>
<trkpt lat="40.0713749" lon="-105.229789">
  <ele>1583.0</ele>
  <time>2026-08-28T17:50:26Z</time>
  <course>0.0</course>
  <speed>0.0</speed>
  <fix>3d</fix>
</trkpt>
<trkpt lat="40.0713749" lon="-105.229789">
  <ele>1582.94</ele>
  <time>2026-08-28T17:50:26Z</time>
  <course>247.54</course>
  <speed>0.01</speed>
  <fix>3d</fix>
</trkpt>
<trkpt lat="40.0713749" lon="-105.229789">
  <ele>1583.0</ele>
  <time>2026-08-28T17:50:26Z</time>
  <course>0.0</course>
  <speed>0.0</speed>
  <fix>3d</fix>
</trkpt>
<trkpt lat="40.0713749" lon="-105.229789">
  <ele>1582.94</ele>
  <time>2026-08-28T17:50:26Z</time>
  <course>247.54</course>
  <speed>0.01</speed>
  <fix>3d</fix>
</trkpt>
<trkpt lat="40.0713749" lon="-105.229789">
  <ele>1583.0</ele>
  <time>2026-08-28T17:50:26Z</time>
  <course>0.0</course>
  <speed>0.0</speed>
  <fix>3d</fix>
</trkpt>
<trkpt lat="40.0713749" lon="-105.229789">
  <ele>1582.94</ele>
  <time>2026-08-28T17:50:26Z</time>
  <course>247.53</course>
  <speed>0.01</speed>
  <fix>3d</fix>
</trkpt>
<trkpt lat="40.0713749" lon="-105.229789">
  <ele>1583.0</ele>
  <time>2026-08-28T17:50:26Z</time>
  <course>0.0</course>
  <speed>0.0</speed>
  <fix>3d</fix>
</trkpt>
<trkpt lat="40.0713749" lon="-105.229789">
  <ele>1582.95</ele>
  <time>2026-08-28T17:50:26Z</time>
  <course>247.53</course>
  <speed>0.01</speed>
  <fix>3d</fix>
</trkpt>
<trkpt lat="40.0713749" lon="-105.229789">
  <ele>1583.0</ele>
  <time>2026-08-28T17:50:26Z</time>
  <course>246.0</course>
  <speed>0.01</speed>
  <fix>3d</fix>
</trkpt>
<trkpt lat="40.0713749" lon="-105.229789">
  <ele>1582.95</ele>
  <time>2026-08-28T17:50:26Z</time>
  <course>247.53</course>
  <speed>0.05</speed>
  <fix>3d</fix>
</trkpt>
<trkpt lat="40.0713749" lon="-105.229789">
  <ele>1583.0</ele>
  <time>2026-08-28T17:50:26Z</time>
  <course>246.0</course>
  <speed>0.01</speed>
  <fix>3d</fix>
</trkpt>
<trkpt lat="40.0713749" lon="-105.2297891">
  <ele>1582.95</ele>
  <time>2026-08-28T17:50:26Z</time>
  <course>247.53</course>
  <speed>0.1019803902718557</speed>
  <fix>3d</fix>
</trkpt>
<trkpt lat="40.0713749" lon="-105.229789">
  <ele>1583.0</ele>
  <time>2026-08-28T17:50:26Z</time>
  <course>246.0</course>
  <speed>0.07</speed>
  <fix>3d</fix>
</trkpt>
<trkpt lat="40.0713749" lon="-105.2297893">
  <ele>1582.96</ele>
  <time>2026-08-28T17:50:26Z</time>
  <course>247.53</course>
  <speed>0.1676305461424021</speed>
  <fix>3d</fix>
</trkpt>
<trkpt lat="40.0713749" lon="-105.229789">
  <ele>1583.0</ele>
  <time>2026-08-28T17:50:26Z</time>
  <course>246.0</course>
  <speed>0.07</speed>
  <fix>3d</fix>
</trkpt>
<trkpt lat="40.0713748" lon="-105.2297895">
  <ele>1582.96</ele>
  <time>2026-08-28T17:50:26Z</time>
  <course>247.52</course>
  <speed>0.24351591323771843</speed>
  <fix>3d</fix>
</trkpt>
<trkpt lat="40.0713749" lon="-105.2297892">
  <ele>1583.0</ele>
  <time>2026-08-28T17:50:26Z</time>
  <course>246.0</course>
  <speed>0.18</speed>
  <fix>3d</fix>
</trkpt>
<trkpt lat="40.0713747" lon="-105.2297898">
  <ele>1582.96</ele>
  <time>2026-08-28T17:50:26Z</time>
  <course>247.52</course>
  <speed>0.3289376840679705</speed>
  <fix>3d</fix>
</trkpt>
<trkpt lat="40.0713749" lon="-105.2297892">
  <ele>1583.0</ele>
  <time>2026-08-28T17:50:26Z</time>
  <course>246.0</course>
  <speed>0.18</speed>
  <fix>3d</fix>
</trkpt>
<trkpt lat="40.0713746" lon="-105.2297903">
  <ele>1582.96</ele>
  <time>2026-08-28T17:50:26Z</time>
  <course>247.52</course>
  <speed>0.41785164831552357</speed>
  <fix>3d</fix>
</trkpt>
<trkpt lat="40.0713747" lon="-105.2297898">
  <ele>1583.0</ele>
  <time>2026-08-28T17:50:26Z</time>
  <course>246.0</course>
  <speed>0.34</speed>
  <fix>3d</fix>
</trkpt>
<trkpt lat="40.0713744" lon="-105.2297908">
  <ele>1582.96</ele>
  <time>2026-08-28T17:50:26Z</time>
  <course>247.51</course>
  <speed>0.5032891812864648</speed>
  <fix>3d</fix>
</trkpt>
<trkpt lat="40.0713747" lon="-105.2297898">
  <ele>1583.0</ele>
  <time>2026-08-28T17:50:26Z</time>
  <course>246.0</course>
  <speed>0.34</speed>
  <fix>3d</fix>
</trkpt>
<trkpt lat="40.0713742" lon="-105.2297914">
  <ele>1582.96</ele>
  <time>2026-08-28T17:50:26Z</time>
  <course>247.51</course>
  <speed>0.579396237474839</speed>
  <fix>3d</fix>
</trkpt>
<trkpt lat="40.0713743" lon="-105.2297907">
  <ele>1583.0</ele>
  <time>2026-08-28T17:50:26Z</time>
  <course>246.0</course>
  <speed>0.5</speed>
  <fix>3d</fix>
</trkpt>
<trkpt lat="40.071374" lon="-105.2297921">
  <ele>1582.96</ele>
  <time>2026-08-28T17:50:26Z</time>
  <course>247.51</course>
  <speed>0.6462197768561404</speed>
  <fix>3d</fix>
</trkpt>
<trkpt lat="40.0713743" lon="-105.2297907">
  <ele>1583.0</ele>
  <time>2026-08-28T17:50:26Z</time>
  <course>246.0</course>
  <speed>0.5</speed>
  <fix>3d</fix>
</trkpt>
<trkpt lat="40.0713737" lon="-105.2297929">
  <ele>1582.95</ele>
  <time>2026-08-28T17:50:26Z</time>
  <course>247.5</course>
  <speed>0.7000714249274855</speed>
  <fix>3d</fix>
</trkpt>
<trkpt lat="40.071374" lon="-105.229792">
  <ele>1583.0</ele>
  <time>2026-08-28T17:50:26Z</time>
  <course>246.0</course>
  <speed>0.63</speed>
  <fix>3d</fix>
</trkpt>
<trkpt lat="40.0713735" lon="-105.2297937">
  <ele>1582.95</ele>
  <time>2026-08-28T17:50:26Z</time>
  <course>247.5</course>
  <speed>0.7446475676452586</speed>
  <fix>3d</fix>
</trkpt>
<trkpt lat="40.071374" lon="-105.229792">
  <ele>1583.0</ele>
  <time>2026-08-28T17:50:26Z</time>
  <course>246.0</course>
  <speed>0.63</speed>
  <fix>3d</fix>
</trkpt>
<trkpt lat="40.0713732" lon="-105.2297945">
  <ele>1582.96</ele>
  <time>2026-08-28T17:50:26Z</time>
  <course>247.49</course>
  <speed>0.7854934754662193</speed>
  <fix>3d</fix>
</trkpt>
<trkpt lat="40.071374" lon="-105.229792">
  <ele>1583.0</ele>
  <time>2026-08-28T17:50:26Z</time>
  <course>246.0</course>
  <speed>0.63</speed>
  <fix>3d</fix>
</trkpt>
<trkpt lat="40.0713729" lon="-105.2297954">
  <ele>1582.95</ele>
  <time>2026-08-28T17:50:26Z</time>
  <course>247.49</course>
  <speed>0.8115417426109393</speed>
  <fix>3d</fix>
</trkpt>
<trkpt lat="40.0713734" lon="-105.2297935">
  <ele>1583.0</ele>
  <time>2026-08-28T17:50:26Z</time>
  <course>246.0</course>
  <speed>0.73</speed>
  <fix>3d</fix>
</trkpt>
<trkpt lat="40.0713726" lon="-105.2297963">
  <ele>1582.95</ele>
  <time>2026-08-28T17:50:26Z</time>
  <course>247.48</course>
  <speed>0.8338465086573187</speed>
  <fix>3d</fix>
</trkpt>
<trkpt lat="40.0713734" lon="-105.2297935">
  <ele>1583.0</ele>
  <time>2026-08-28T17:50:26Z</time>
  <course>246.0</course>
  <speed>0.73</speed>
  <fix>3d</fix>
</trkpt>
<trkpt lat="40.0713723" lon="-105.2297972">
  <ele>1582.95</ele>
  <time>2026-08-28T17:50:26Z</time>
  <course>247.48</course>
  <speed>0.8523496934944014</speed>
  <fix>3d</fix>
</trkpt>
<trkpt lat="40.0713729" lon="-105.2297951">
  <ele>1583.0</ele>
  <time>2026-08-28T17:50:26Z</time>
  <course>246.0</course>
  <speed>0.8</speed>
  <fix>3d</fix>
</trkpt>
<trkpt lat="40.071372" lon="-105.2297981">
  <ele>1582.95</ele>
  <time>2026-08-28T17:50:26Z</time>
  <course>247.48</course>
  <speed>0.8561541917201597</speed>
  <fix>3d</fix>
</trkpt>
<trkpt lat="40.0713729" lon="-105.2297951">
  <ele>1583.0</ele>
  <time>2026-08-28T17:50:26Z</time>
  <course>246.0</course>
  <speed>0.8</speed>
  <fix>3d</fix>
</trkpt>
<trkpt lat="40.0713717" lon="-105.229799">
  <ele>1582.95</ele>
  <time>2026-08-28T17:50:26Z</time>
  <course>247.47</course>
  <speed>0.8653900854527974</speed>
  <fix>3d</fix>
</trkpt>
<trkpt lat="40.0713722" lon="-105.2297969">
  <ele>1583.0</ele>
  <time>2026-08-28T17:50:26Z</time>
  <course>246.0</course>
  <speed>0.84</speed>
  <fix>3d</fix>
</trkpt>
<trkpt lat="40.0713713" lon="-105.2298">
  <ele>1582.95</ele>
  <time>2026-08-28T17:50:26Z</time>
  <course>247.47</course>
  <speed>0.8561541917201597</speed>
  <fix>3d</fix>
</trkpt>
<trkpt lat="40.0713722" lon="-105.2297969">
  <ele>1583.0</ele>
  <time>2026-08-28T17:50:26Z</time>
  <course>246.0</course>
  <speed>0.84</speed>
  <fix>3d</fix>
</trkpt>
<trkpt lat="40.071371" lon="-105.2298009">
  <ele>1582.95</ele>
  <time>2026-08-28T17:50:26Z</time>
  <course>247.46</course>
  <speed>0.8561541917201597</speed>
  <fix>3d</fix>
</trkpt>
<trkpt lat="40.0713717" lon="-105.2297987">
  <ele>1583.0</ele>
  <time>2026-08-28T17:50:26Z</time>
  <course>246.0</course>
  <speed>0.85</speed>
  <fix>3d</fix>
</trkpt>
<trkpt lat="40.0713707" lon="-105.2298018">
  <ele>1582.96</ele>
  <time>2026-08-28T17:50:26Z</time>
  <course>247.46</course>
  <speed>0.8469356528095863</speed>
  <fix>3d</fix>
</trkpt>
<trkpt lat="40.071371" lon="-105.2298006">
  <ele>1583.0</ele>
  <time>2026-08-28T17:50:26Z</time>
  <course>246.0</course>
  <speed>0.85</speed>
  <fix>3d</fix>
</trkpt>
<trkpt lat="40.0713704" lon="-105.2298027">
  <ele>1582.96</ele>
  <time>2026-08-28T17:50:26Z</time>
  <course>247.46</course>
  <speed>0.83773504164503</speed>
  <fix>3d</fix>
</trkpt>
<trkpt lat="40.071371" lon="-105.2298006">
  <ele>1583.0</ele>
  <time>2026-08-28T17:50:26Z</time>
  <course>246.0</course>
  <speed>0.85</speed>
  <fix>3d</fix>
</trkpt>
<trkpt lat="40.0713701" lon="-105.2298036">
  <ele>1582.97</ele>
  <time>2026-08-28T17:50:26Z</time>
  <course>247.46</course>
  <speed>0.8246211251235321</speed>
  <fix>3d</fix>
</trkpt>
<trkpt lat="40.0713705" lon="-105.2298024">
  <ele>1583.0</ele>
  <time>2026-08-28T17:50:26Z</time>
  <course>246.0</course>
  <speed>0.84</speed>
  <fix>3d</fix>
</trkpt>
<trkpt lat="40.0713698" lon="-105.2298044">
  <ele>1582.97</ele>
  <time>2026-08-28T17:50:26Z</time>
  <course>247.45</course>
  <speed>0.8154140052758475</speed>
  <fix>3d</fix>
</trkpt>
<trkpt lat="40.0713705" lon="-105.2298024">
  <ele>1583.0</ele>
  <time>2026-08-28T17:50:26Z</time>
  <course>246.0</course>
  <speed>0.84</speed>
  <fix>3d</fix>
</trkpt>
<trkpt lat="40.0713695" lon="-105.2298053">
  <ele>1582.98</ele>
  <time>2026-08-28T17:50:26Z</time>
  <course>247.45</course>
  <speed>0.797057087039567</speed>
  <fix>3d</fix>
</trkpt>
<trkpt lat="40.0713698" lon="-105.2298041">
  <ele>1583.0</ele>
  <time>2026-08-28T17:50:26Z</time>
  <course>246.0</course>
  <speed>0.81</speed>
  <fix>3d</fix>
</trkpt>
<trkpt lat="40.0713692" lon="-105.2298062">
  <ele>1582.98</ele>
  <time>2026-08-28T17:50:26Z</time>
  <course>247.45</course>
  <speed>0.7839005038906405</speed>
  <fix>3d</fix>
</trkpt>
<trkpt lat="40.0713698" lon="-105.2298041">
  <ele>1583.0</ele>
  <time>2026-08-28T17:50:26Z</time>
  <course>246.0</course>
  <speed>0.81</speed>
  <fix>3d</fix>
</trkpt>
<trkpt lat="40.0713689" lon="-105.229807">
  <ele>1582.98</ele>
  <time>2026-08-28T17:50:26Z</time>
  <course>247.45</course>
  <speed>0.7707788269017254</speed>
  <fix>3d</fix>
</trkpt>
<trkpt lat="40.0713693" lon="-105.2298059">
  <ele>1583.0</ele>
  <time>2026-08-28T17:50:26Z</time>
  <course>246.0</course>
  <speed>0.78</speed>
  <fix>3d</fix>
</trkpt>
<trkpt lat="40.0713686" lon="-105.2298078">
  <ele>1582.98</ele>
  <time>2026-08-28T17:50:26Z</time>
  <course>247.45</course>
  <speed>0.7523961722390672</speed>
  <fix>3d</fix>
</trkpt>
<trkpt lat="40.0713693" lon="-105.2298059">
  <ele>1583.0</ele>
  <time>2026-08-28T17:50:26Z</time>
  <course>246.0</course>
  <speed>0.78</speed>
  <fix>3d</fix>
</trkpt>
<trkpt lat="40.0713684" lon="-105.2298086">
  <ele>1582.98</ele>
  <time>2026-08-28T17:50:26Z</time>
  <course>247.45</course>
  <speed>0.7392563831310488</speed>
  <fix>3d</fix>
</trkpt>
<trkpt lat="40.0713686" lon="-105.2298075">
  <ele>1583.0</ele>
  <time>2026-08-28T17:50:26Z</time>
  <course>246.0</course>
  <speed>0.76</speed>
  <fix>3d</fix>
</trkpt>
<trkpt lat="40.0713681" lon="-105.2298094">
  <ele>1582.98</ele>
  <time>2026-08-28T17:50:26Z</time>
  <course>247.44</course>
  <speed>0.7209022125087423</speed>
  <fix>3d</fix>
</trkpt>
<trkpt lat="40.0713686" lon="-105.2298075">
  <ele>1583.0</ele>
  <time>2026-08-28T17:50:26Z</time>
  <course>246.0</course>
  <speed>0.76</speed>
  <fix>3d</fix>
</trkpt>
<trkpt lat="40.0713678" lon="-105.2298102">
  <ele>1582.98</ele>
  <time>2026-08-28T17:50:26Z</time>
  <course>247.44</course>
  <speed>0.7077428911688198</speed>
  <fix>3d</fix>
</trkpt>
<trkpt lat="40.0713681" lon="-105.2298092">
  <ele>1583.0</ele>
  <time>2026-08-28T17:50:26Z</time>
  <course>246.0</course>
  <speed>0.73</speed>
  <fix>3d</fix>
</trkpt>
<trkpt lat="40.0713676" lon="-105.2298109">
  <ele>1582.98</ele>
  <time>2026-08-28T17:50:26Z</time>
  <course>247.44</course>
  <speed>0.6985699678629191</speed>
  <fix>3d</fix>
</trkpt>
<trkpt lat="40.0713681" lon="-105.2298092">
  <ele>1583.0</ele>
  <time>2026-08-28T17:50:26Z</time>
  <course>246.0</course>
  <speed>0.73</speed>
  <fix>3d</fix>
</trkpt>
<trkpt lat="40.0713673" lon="-105.2298117">
  <ele>1582.98</ele>
  <time>2026-08-28T17:50:26Z</time>
  <course>247.44</course>
  <speed>0.6854195795277518</speed>
  <fix>3d</fix>
</trkpt>
<trkpt lat="40.0713676" lon="-105.2298107">
  <ele>1583.0</ele>
  <time>2026-08-28T17:50:26Z</time>
  <course>246.0</course>
  <speed>0.7</speed>
  <fix>3d</fix>
</trkpt>
<trkpt lat="40.0713671" lon="-105.2298124">
  <ele>1582.98</ele>
  <time>2026-08-28T17:50:26Z</time>
  <course>247.44</course>
  <speed>0.6762396025078685</speed>
  <fix>3d</fix>
</trkpt>
<trkpt lat="40.0713676" lon="-105.2298107">
  <ele>1583.0</ele>
  <time>2026-08-28T17:50:26Z</time>
  <course>246.0</course>
  <speed>0.7</speed>
  <fix>3d</fix>
</trkpt>
<trkpt lat="40.0713668" lon="-105.2298132">
  <ele>1582.98</ele>
  <time>2026-08-28T17:50:26Z</time>
  <course>247.44</course>
  <speed>0.6670832032063168</speed>
  <fix>3d</fix>
</trkpt>
<trkpt lat="40.0713676" lon="-105.2298107">
  <ele>1583.0</ele>
  <time>2026-08-28T17:50:26Z</time>
  <course>246.0</course>
  <speed>0.7</speed>
  <fix>3d</fix>
</trkpt>
<trkpt lat="40.0713666" lon="-105.2298139">
  <ele>1582.98</ele>
  <time>2026-08-28T17:50:26Z</time>
  <course>247.44</course>
  <speed>0.6539113089708727</speed>
  <fix>3d</fix>
</trkpt>
<trkpt lat="40.0713671" lon="-105.2298122">
  <ele>1583.0</ele>
  <time>2026-08-28T17:50:26Z</time>
  <course>246.0</course>
  <speed>0.68</speed>
  <fix>3d</fix>
</trkpt>
<trkpt lat="40.0713663" lon="-105.2298146">
  <ele>1582.98</ele>
  <time>2026-08-28T17:50:26Z</time>
  <course>247.44</course>
  <speed>0.6539113089708727</speed>
  <fix>3d</fix>
</trkpt>
<trkpt lat="40.0713671" lon="-105.2298122">
  <ele>1583.0</ele>
  <time>2026-08-28T17:50:26Z</time>
  <course>246.0</course>
  <speed>0.68</speed>
  <fix>3d</fix>
</trkpt>
<trkpt lat="40.0713661" lon="-105.2298153">
  <ele>1582.98</ele>
  <time>2026-08-28T17:50:26Z</time>
  <course>247.44</course>
  <speed>0.6447480127925949</speed>
  <fix>3d</fix>
</trkpt>
<trkpt lat="40.0713666" lon="-105.2298136">
  <ele>1583.0</ele>
  <time>2026-08-28T17:50:26Z</time>
  <course>246.0</course>
  <speed>0.67</speed>
  <fix>3d</fix>
</trkpt>
<trkpt lat="40.0713659" lon="-105.2298159">
  <ele>1582.98</ele>
  <time>2026-08-28T17:50:26Z</time>
  <course>247.44</course>
  <speed>0.6407807737440318</speed>
  <fix>3d</fix>
</trkpt>
<trkpt lat="40.0713666" lon="-105.2298136">
  <ele>1583.0</ele>
  <time>2026-08-28T17:50:26Z</time>
  <course>246.0</course>
  <speed>0.67</speed>
  <fix>3d</fix>
</trkpt>
<trkpt lat="40.0713656" lon="-105.2298166">
  <ele>1582.98</ele>
  <time>2026-08-28T17:50:26Z</time>
  <course>247.43</course>
  <speed>0.6315853069855251</speed>
  <fix>3d</fix>
</trkpt>
<trkpt lat="40.0713661" lon="-105.2298151">
  <ele>1583.0</ele>
  <time>2026-08-28T17:50:26Z</time>
  <course>246.0</course>
  <speed>0.66</speed>
  <fix>3d</fix>
</trkpt>
<trkpt lat="40.0713654" lon="-105.2298173">
  <ele>1582.98</ele>
  <time>2026-08-28T17:50:26Z</time>
  <course>247.43</course>
  <speed>0.6315853069855251</speed>
  <fix>3d</fix>
</trkpt>
<trkpt lat="40.0713656" lon="-105.2298165">
  <ele>1583.0</ele>
  <time>2026-08-28T17:50:26Z</time>
  <course>246.0</course>
  <speed>0.65</speed>
  <fix>3d</fix>
</trkpt>
<trkpt lat="40.0713652" lon="-105.229818">
  <ele>1582.98</ele>
  <time>2026-08-28T17:50:26Z</time>
  <course>247.43</course>
  <speed>0.6315853069855251</speed>
  <fix>3d</fix>
</trkpt>
<trkpt lat="40.0713656" lon="-105.2298165">
  <ele>1583.0</ele>
  <time>2026-08-28T17:50:26Z</time>
  <course>246.0</course>
  <speed>0.65</speed>
  <fix>3d</fix>
</trkpt>
<trkpt lat="40.0713649" lon="-105.2298187">
  <ele>1582.98</ele>
  <time>2026-08-28T17:50:26Z</time>
  <course>247.43</course>
  <speed>0.6315853069855251</speed>
  <fix>3d</fix>
</trkpt>
<trkpt lat="40.0713651" lon="-105.2298179">
  <ele>1583.0</ele>
  <time>2026-08-28T17:50:26Z</time>
  <course>246.0</course>
  <speed>0.65</speed>
  <fix>3d</fix>
</trkpt>
<trkpt lat="40.0713647" lon="-105.2298194">
  <ele>1582.98</ele>
  <time>2026-08-28T17:50:26Z</time>
  <course>247.43</course>
  <speed>0.6315853069855251</speed>
  <fix>3d</fix>
</trkpt>
<trkpt lat="40.0713651" lon="-105.2298179">
  <ele>1583.0</ele>
  <time>2026-08-28T17:50:26Z</time>
  <course>246.0</course>
  <speed>0.65</speed>
  <fix>3d</fix>
</trkpt>
<trkpt lat="40.0713644" lon="-105.2298201">
  <ele>1582.98</ele>
  <time>2026-08-28T17:50:26Z</time>
  <course>247.43</course>
  <speed>0.6315853069855251</speed>
  <fix>3d</fix>
</trkpt>
<trkpt lat="40.0713647" lon="-105.2298193">
  <ele>1583.0</ele>
  <time>2026-08-28T17:50:26Z</time>
  <course>246.0</course>
  <speed>0.65</speed>
  <fix>3d</fix>
</trkpt>
<trkpt lat="40.0713642" lon="-105.2298208">
  <ele>1582.99</ele>
  <time>2026-08-28T17:50:26Z</time>
  <course>247.43</course>
  <speed>0.6315853069855251</speed>
  <fix>3d</fix>
</trkpt>
<trkpt lat="40.0713647" lon="-105.2298193">
  <ele>1583.0</ele>
  <time>2026-08-28T17:50:26Z</time>
  <course>246.0</course>
  <speed>0.65</speed>
  <fix>3d</fix>
</trkpt>
<trkpt lat="40.071364" lon="-105.2298215">
  <ele>1582.99</ele>
  <time>2026-08-28T17:50:26Z</time>
  <course>247.43</course>
  <speed>0.6315853069855251</speed>
  <fix>3d</fix>
</trkpt>
<trkpt lat="40.0713642" lon="-105.2298206">
  <ele>1583.0</ele>
  <time>2026-08-28T17:50:26Z</time>
  <course>246.0</course>
  <speed>0.65</speed>
  <fix>3d</fix>
</trkpt>
<trkpt lat="40.0713637" lon="-105.2298222">
  <ele>1582.99</ele>
  <time>2026-08-28T17:50:26Z</time>
  <course>247.43</course>
  <speed>0.6315853069855251</speed>
  <fix>3d</fix>
</trkpt>
<trkpt lat="40.0713642" lon="-105.2298206">
  <ele>1583.0</ele>
  <time>2026-08-28T17:50:26Z</time>
  <course>246.0</course>
  <speed>0.65</speed>
  <fix>3d</fix>
</trkpt>
<trkpt lat="40.0713635" lon="-105.2298229">
  <ele>1583.0</ele>
  <time>2026-08-28T17:50:26Z</time>
  <course>247.43</course>
  <speed>0.6315853069855251</speed>
  <fix>3d</fix>
</trkpt>
<trkpt lat="40.0713637" lon="-105.229822">
  <ele>1583.0</ele>
  <time>2026-08-28T17:50:26Z</time>
  <course>246.0</course>
  <speed>0.65</speed>
  <fix>3d</fix>
</trkpt>
<trkpt lat="40.0713633" lon="-105.2298236">
  <ele>1583.0</ele>
  <time>2026-08-28T17:50:26Z</time>
  <course>247.43</course>
  <speed>0.6407807737440318</speed>
  <fix>3d</fix>
</trkpt>
<trkpt lat="40.0713637" lon="-105.229822">
  <ele>1583.0</ele>
  <time>2026-08-28T17:50:26Z</time>
  <course>246.0</course>
  <speed>0.65</speed>
  <fix>3d</fix>
</trkpt>
<trkpt lat="40.071363" lon="-105.2298243">
  <ele>1583.0</ele>
  <time>2026-08-28T17:50:26Z</time>
  <course>247.43</course>
  <speed>0.6407807737440318</speed>
  <fix>3d</fix>
</trkpt>
<trkpt lat="40.0713632" lon="-105.2298235">
  <ele>1583.0</ele>
  <time>2026-08-28T17:50:26Z</time>
  <course>246.0</course>
  <speed>0.66</speed>
  <fix>3d</fix>
</trkpt>
<trkpt lat="40.0713628" lon="-105.229825">
  <ele>1583.0</ele>
  <time>2026-08-28T17:50:26Z</time>
  <course>247.43</course>
  <speed>0.6407807737440318</speed>
  <fix>3d</fix>
</trkpt>
<trkpt lat="40.0713632" lon="-105.2298235">
  <ele>1583.0</ele>
  <time>2026-08-28T17:50:26Z</time>
  <course>246.0</course>
  <speed>0.66</speed>
  <fix>3d</fix>
</trkpt>
<trkpt lat="40.0713625" lon="-105.2298257">
  <ele>1583.0</ele>
  <time>2026-08-28T17:50:26Z</time>
  <course>247.43</course>
  <speed>0.6407807737440318</speed>
  <fix>3d</fix>
</trkpt>
<trkpt lat="40.0713627" lon="-105.2298249">
  <ele>1583.0</ele>
  <time>2026-08-28T17:50:26Z</time>
  <course>246.0</course>
  <speed>0.66</speed>
  <fix>3d</fix>
</trkpt>
<trkpt lat="40.0713623" lon="-105.2298264">
  <ele>1583.0</ele>
  <time>2026-08-28T17:50:26Z</time>
  <course>247.43</course>
  <speed>0.65</speed>
  <fix>3d</fix>
</trkpt>
<trkpt lat="40.0713627" lon="-105.2298249">
  <ele>1583.0</ele>
  <time>2026-08-28T17:50:26Z</time>
  <course>246.0</course>
  <speed>0.66</speed>
  <fix>3d</fix>
</trkpt>
<trkpt lat="40.0713621" lon="-105.2298272">
  <ele>1583.0</ele>
  <time>2026-08-28T17:50:26Z</time>
  <course>247.43</course>
  <speed>0.65</speed>
  <fix>3d</fix>
</trkpt>
<trkpt lat="40.0713627" lon="-105.2298249">
  <ele>1583.0</ele>
  <time>2026-08-28T17:50:26Z</time>
  <course>246.0</course>
  <speed>0.66</speed>
  <fix>3d</fix>
</trkpt>
<trkpt lat="40.0713618" lon="-105.2298279">
  <ele>1583.01</ele>
  <time>2026-08-28T17:50:26Z</time>
  <course>247.43</course>
  <speed>0.65</speed>
  <fix>3d</fix>
</trkpt>
<trkpt lat="40.0713622" lon="-105.2298263">
  <ele>1583.0</ele>
  <time>2026-08-28T17:50:26Z</time>
  <course>246.0</course>
  <speed>0.67</speed>
  <fix>3d</fix>
</trkpt>
<trkpt lat="40.0713616" lon="-105.2298286">
  <ele>1583.01</ele>
  <time>2026-08-28T17:50:26Z</time>
  <course>247.43</course>
  <speed>0.65</speed>
  <fix>3d</fix>
</trkpt>
<trkpt lat="40.0713622" lon="-105.2298263">
  <ele>1583.0</ele>
  <time>2026-08-28T17:50:26Z</time>
  <course>246.0</course>
  <speed>0.67</speed>
  <fix>3d</fix>
</trkpt>
<trkpt lat="40.0713613" lon="-105.2298293">
  <ele>1583.0</ele>
  <time>2026-08-28T17:50:26Z</time>
  <course>247.43</course>
  <speed>0.65</speed>
  <fix>3d</fix>
</trkpt>
<trkpt lat="40.0713617" lon="-105.2298278">
  <ele>1583.0</ele>
  <time>2026-08-28T17:50:26Z</time>
  <course>246.0</course>
  <speed>0.67</speed>
  <fix>3d</fix>
</trkpt>
<trkpt lat="40.0713611" lon="-105.22983">
  <ele>1583.01</ele>
  <time>2026-08-28T17:50:26Z</time>
  <course>247.43</course>
  <speed>0.65</speed>
  <fix>3d</fix>
</trkpt>
<trkpt lat="40.0713617" lon="-105.2298278">
  <ele>1583.0</ele>
  <time>2026-08-28T17:50:26Z</time>
  <course>246.0</course>
  <speed>0.67</speed>
  <fix>3d</fix>
</trkpt>
<trkpt lat="40.0713608" lon="-105.2298308">
  <ele>1583.01</ele>
  <time>2026-08-28T17:50:26Z</time>
  <course>247.43</course>
  <speed>0.6592419889539803</speed>
  <fix>3d</fix>
</trkpt>
<trkpt lat="40.0713612" lon="-105.2298292">
  <ele>1583.0</ele>
  <time>2026-08-28T17:50:26Z</time>
  <course>246.0</course>
  <speed>0.68</speed>
  <fix>3d</fix>
</trkpt>
<trkpt lat="40.0713606" lon="-105.2298315">
  <ele>1583.01</ele>
  <time>2026-08-28T17:50:26Z</time>
  <course>247.43</course>
  <speed>0.6592419889539803</speed>
  <fix>3d</fix>
</trkpt>
<trkpt lat="40.0713612" lon="-105.2298292">
  <ele>1583.0</ele>
  <time>2026-08-28T17:50:26Z</time>
  <course>246.0</course>
  <speed>0.68</speed>
  <fix>3d</fix>
</trkpt>
<trkpt lat="40.0713603" lon="-105.2298322">
  <ele>1583.01</ele>
  <time>2026-08-28T17:50:26Z</time>
  <course>247.43</course>
  <speed>0.6630987860040162</speed>
  <fix>3d</fix>
</trkpt>
<trkpt lat="40.0713607" lon="-105.2298307">
  <ele>1583.0</ele>
  <time>2026-08-28T17:50:26Z</time>
  <course>246.0</course>
  <speed>0.68</speed>
  <fix>3d</fix>
</trkpt>
<trkpt lat="40.0713601" lon="-105.2298329">
  <ele>1583.01</ele>
  <time>2026-08-28T17:50:26Z</time>
  <course>247.43</course>
  <speed>0.6630987860040162</speed>
  <fix>3d</fix>
</trkpt>
<trkpt lat="40.0713602" lon="-105.2298322">
  <ele>1583.0</ele>
  <time>2026-08-28T17:50:26Z</time>
  <course>246.0</course>
  <speed>0.68</speed>
  <fix>3d</fix>
</trkpt>
<trkpt lat="40.0713598" lon="-105.2298337">
  <ele>1583.01</ele>
  <time>2026-08-28T17:50:26Z</time>
  <course>247.43</course>
  <speed>0.6630987860040162</speed>
  <fix>3d</fix>
</trkpt>
<trkpt lat="40.0713602" lon="-105.2298322">
  <ele>1583.0</ele>
  <time>2026-08-28T17:50:26Z</time>
  <course>246.0</course>
  <speed>0.68</speed>
  <fix>3d</fix>
</trkpt>
<trkpt lat="40.0713596" lon="-105.2298344">
  <ele>1583.0</ele>
  <time>2026-08-28T17:50:26Z</time>
  <course>247.43</course>
  <speed>0.6630987860040162</speed>
  <fix>3d</fix>
</trkpt>
<trkpt lat="40.0713597" lon="-105.2298337">
  <ele>1583.0</ele>
  <time>2026-08-28T17:50:26Z</time>
  <course>246.0</course>
  <speed>0.69</speed>
  <fix>3d</fix>
</trkpt>
<trkpt lat="40.0713593" lon="-105.2298352">
  <ele>1583.0</ele>
  <time>2026-08-28T17:50:26Z</time>
  <course>247.43</course>
  <speed>0.6630987860040162</speed>
  <fix>3d</fix>
</trkpt>
<trkpt lat="40.0713597" lon="-105.2298337">
  <ele>1583.0</ele>
  <time>2026-08-28T17:50:26Z</time>
  <course>246.0</course>
  <speed>0.69</speed>
  <fix>3d</fix>
</trkpt>
<trkpt lat="40.0713591" lon="-105.2298359">
  <ele>1583.0</ele>
  <time>2026-08-28T17:50:26Z</time>
  <course>247.43</course>
  <speed>0.6630987860040162</speed>
  <fix>3d</fix>
</trkpt>
<trkpt lat="40.0713592" lon="-105.2298352">
  <ele>1583.0</ele>
  <time>2026-08-28T17:50:26Z</time>
  <course>246.0</course>
  <speed>0.69</speed>
  <fix>3d</fix>
</trkpt>
<trkpt lat="40.0713588" lon="-105.2298367">
  <ele>1583.0</ele>
  <time>2026-08-28T17:50:26Z</time>
  <course>247.43</course>
  <speed>0.6630987860040162</speed>
  <fix>3d</fix>
</trkpt>
<trkpt lat="40.0713592" lon="-105.2298352">
  <ele>1583.0</ele>
  <time>2026-08-28T17:50:26Z</time>
  <course>246.0</course>
  <speed>0.69</speed>
  <fix>3d</fix>
</trkpt>
<trkpt lat="40.0713586" lon="-105.2298374">
  <ele>1583.01</ele>
  <time>2026-08-28T17:50:26Z</time>
  <course>247.43</course>
  <speed>0.6592419889539803</speed>
  <fix>3d</fix>
</trkpt>
<trkpt lat="40.0713587" lon="-105.2298367">
  <ele>1583.0</ele>
  <time>2026-08-28T17:50:26Z</time>
  <course>246.0</course>
  <speed>0.69</speed>
  <fix>3d</fix>
</trkpt>
<trkpt lat="40.0713583" lon="-105.2298382">
  <ele>1583.01</ele>
  <time>2026-08-28T17:50:26Z</time>
  <course>247.43</course>
  <speed>0.6592419889539803</speed>
  <fix>3d</fix>
</trkpt>
<trkpt lat="40.0713587" lon="-105.2298367">
  <ele>1583.0</ele>
  <time>2026-08-28T17:50:26Z</time>
  <course>246.0</course>
  <speed>0.69</speed>
  <fix>3d</fix>
</trkpt>
<trkpt lat="40.0713581" lon="-105.2298389">
  <ele>1583.01</ele>
  <time>2026-08-28T17:50:26Z</time>
  <course>247.43</course>
  <speed>0.6592419889539803</speed>
  <fix>3d</fix>
</trkpt>
<trkpt lat="40.0713582" lon="-105.2298381">
  <ele>1583.0</ele>
  <time>2026-08-28T17:50:26Z</time>
  <course>246.0</course>
  <speed>0.69</speed>
  <fix>3d</fix>
</trkpt>
<trkpt lat="40.0713578" lon="-105.2298397">
  <ele>1583.01</ele>
  <time>2026-08-28T17:50:26Z</time>
  <course>247.43</course>
  <speed>0.6592419889539803</speed>
  <fix>3d</fix>
</trkpt>
<trkpt lat="40.0713582" lon="-105.2298381">
  <ele>1583.0</ele>
  <time>2026-08-28T17:50:26Z</time>
  <course>246.0</course>
  <speed>0.69</speed>
  <fix>3d</fix>
</trkpt>
<trkpt lat="40.0713576" lon="-105.2298404">
  <ele>1583.01</ele>
  <time>2026-08-28T17:50:26Z</time>
  <course>247.43</course>
  <speed>0.6592419889539803</speed>
  <fix>3d</fix>
</trkpt>
<trkpt lat="40.0713577" lon="-105.2298396">
  <ele>1583.0</ele>
  <time>2026-08-28T17:50:26Z</time>
  <course>246.0</course>
  <speed>0.69</speed>
  <fix>3d</fix>
</trkpt>
<trkpt lat="40.0713573" lon="-105.2298412">
  <ele>1583.01</ele>
  <time>2026-08-28T17:50:26Z</time>
  <course>247.43</course>
  <speed>0.6592419889539803</speed>
  <fix>3d</fix>
</trkpt>
<trkpt lat="40.0713577" lon="-105.2298396">
  <ele>1583.0</ele>
  <time>2026-08-28T17:50:26Z</time>
  <course>246.0</course>
  <speed>0.69</speed>
  <fix>3d</fix>
</trkpt>
<trkpt lat="40.0713571" lon="-105.2298419">
  <ele>1583.01</ele>
  <time>2026-08-28T17:50:26Z</time>
  <course>247.42</course>
  <speed>0.6592419889539803</speed>
  <fix>3d</fix>
</trkpt>
<trkpt lat="40.0713572" lon="-105.2298411">
  <ele>1583.0</ele>
  <time>2026-08-28T17:50:26Z</time>
  <course>246.0</course>
  <speed>0.69</speed>
  <fix>3d</fix>
</trkpt>
<trkpt lat="40.0713568" lon="-105.2298427">
  <ele>1583.01</ele>
  <time>2026-08-28T17:50:26Z</time>
  <course>247.42</course>
  <speed>0.6592419889539803</speed>
  <fix>3d</fix>
</trkpt>
<trkpt lat="40.0713572" lon="-105.2298411">
  <ele>1583.0</ele>
  <time>2026-08-28T17:50:26Z</time>
  <course>246.0</course>
  <speed>0.69</speed>
  <fix>3d</fix>
</trkpt>
<trkpt lat="40.0713566" lon="-105.2298434">
  <ele>1583.01</ele>
  <time>2026-08-28T17:50:26Z</time>
  <course>247.42</course>
  <speed>0.6592419889539803</speed>
  <fix>3d</fix>
</trkpt>
<trkpt lat="40.0713572" lon="-105.2298411">
  <ele>1583.0</ele>
  <time>2026-08-28T17:50:26Z</time>
  <course>246.0</course>
  <speed>0.69</speed>
  <fix>3d</fix>
</trkpt>
<trkpt lat="40.0713563" lon="-105.2298441">
  <ele>1583.02</ele>
  <time>2026-08-28T17:50:26Z</time>
  <course>247.42</course>
  <speed>0.6592419889539803</speed>
  <fix>3d</fix>
</trkpt>
<trkpt lat="40.0713567" lon="-105.2298426">
  <ele>1583.0</ele>
  <time>2026-08-28T17:50:26Z</time>
  <course>246.0</course>
  <speed>0.68</speed>
  <fix>3d</fix>
</trkpt>
<trkpt lat="40.0713561" lon="-105.2298449">
  <ele>1583.02</ele>
  <time>2026-08-28T17:50:26Z</time>
  <course>247.42</course>
  <speed>0.6592419889539803</speed>
  <fix>3d</fix>
</trkpt>
<trkpt lat="40.0713567" lon="-105.2298426">
  <ele>1583.0</ele>
  <time>2026-08-28T17:50:26Z</time>
  <course>246.0</course>
  <speed>0.68</speed>
  <fix>3d</fix>
</trkpt>
<trkpt lat="40.0713558" lon="-105.2298456">
  <ele>1583.02</ele>
  <time>2026-08-28T17:50:26Z</time>
  <course>247.42</course>
  <speed>0.6592419889539803</speed>
  <fix>3d</fix>
</trkpt>
<trkpt lat="40.0713562" lon="-105.2298441">
  <ele>1583.0</ele>
  <time>2026-08-28T17:50:26Z</time>
  <course>246.0</course>
  <speed>0.68</speed>
  <fix>3d</fix>
</trkpt>
<trkpt lat="40.0713556" lon="-105.2298463">
  <ele>1583.02</ele>
  <time>2026-08-28T17:50:26Z</time>
  <course>247.42</course>
  <speed>0.6592419889539803</speed>
  <fix>3d</fix>
</trkpt>
<trkpt lat="40.0713562" lon="-105.2298441">
  <ele>1583.0</ele>
  <time>2026-08-28T17:50:26Z</time>
  <course>246.0</course>
  <speed>0.68</speed>
  <fix>3d</fix>
</trkpt>
<trkpt lat="40.0713553" lon="-105.2298471">
  <ele>1583.02</ele>
  <time>2026-08-28T17:50:26Z</time>
  <course>247.42</course>
  <speed>0.6592419889539803</speed>
  <fix>3d</fix>
</trkpt>
<trkpt lat="40.0713557" lon="-105.2298455">
  <ele>1583.0</ele>
  <time>2026-08-28T17:50:26Z</time>
  <course>246.0</course>
  <speed>0.68</speed>
  <fix>3d</fix>
</trkpt>
<trkpt lat="40.0713551" lon="-105.2298478">
  <ele>1583.02</ele>
  <time>2026-08-28T17:50:26Z</time>
  <course>247.42</course>
  <speed>0.6592419889539803</speed>
  <fix>3d</fix>
</trkpt>
<trkpt lat="40.0713552" lon="-105.229847">
  <ele>1583.0</ele>
  <time>2026-08-28T17:50:26Z</time>
  <course>246.0</course>
  <speed>0.68</speed>
  <fix>3d</fix>
</trkpt>
<trkpt lat="40.0713548" lon="-105.2298485">
  <ele>1583.02</ele>
  <time>2026-08-28T17:50:26Z</time>
  <course>247.42</course>
  <speed>0.6592419889539803</speed>
  <fix>3d</fix>
</trkpt>
<trkpt lat="40.0713552" lon="-105.229847">
  <ele>1583.0</ele>
  <time>2026-08-28T17:50:26Z</time>
  <course>246.0</course>
  <speed>0.68</speed>
  <fix>3d</fix>
</trkpt>
<trkpt lat="40.0713546" lon="-105.2298493">
  <ele>1583.02</ele>
  <time>2026-08-28T17:50:26Z</time>
  <course>247.42</course>
  <speed>0.6592419889539803</speed>
  <fix>3d</fix>
</trkpt>
<trkpt lat="40.0713547" lon="-105.2298485">
  <ele>1583.0</ele>
  <time>2026-08-28T17:50:26Z</time>
  <course>246.0</course>
  <speed>0.69</speed>
  <fix>3d</fix>
</trkpt>
<trkpt lat="40.0713544" lon="-105.22985">
  <ele>1583.02</ele>
  <time>2026-08-28T17:50:26Z</time>
  <course>247.42</course>
  <speed>0.6592419889539803</speed>
  <fix>3d</fix>
</trkpt>
<trkpt lat="40.0713547" lon="-105.2298485">
  <ele>1583.0</ele>
  <time>2026-08-28T17:50:26Z</time>
  <course>246.0</course>
  <speed>0.69</speed>
  <fix>3d</fix>
</trkpt>
<trkpt lat="40.0713541" lon="-105.2298508">
  <ele>1583.02</ele>
  <time>2026-08-28T17:50:26Z</time>
  <course>247.42</course>
  <speed>0.6592419889539803</speed>
  <fix>3d</fix>
</trkpt>
<trkpt lat="40.0713542" lon="-105.22985">
  <ele>1583.0</ele>
  <time>2026-08-28T17:50:26Z</time>
  <course>246.0</course>
  <speed>0.69</speed>
  <fix>3d</fix>
</trkpt>
<trkpt lat="40.0713539" lon="-105.2298515">
  <ele>1583.02</ele>
  <time>2026-08-28T17:50:26Z</time>
  <course>247.42</course>
  <speed>0.6592419889539803</speed>
  <fix>3d</fix>
</trkpt>
<trkpt lat="40.0713542" lon="-105.22985">
  <ele>1583.0</ele>
  <time>2026-08-28T17:50:26Z</time>
  <course>246.0</course>
  <speed>0.69</speed>
  <fix>3d</fix>
</trkpt>
<trkpt lat="40.0713536" lon="-105.2298522">
  <ele>1583.02</ele>
  <time>2026-08-28T17:50:26Z</time>
  <course>247.42</course>
  <speed>0.6592419889539803</speed>
  <fix>3d</fix>
</trkpt>
<trkpt lat="40.0713537" lon="-105.2298515">
  <ele>1583.0</ele>
  <time>2026-08-28T17:50:26Z</time>
  <course>246.0</course>
  <speed>0.69</speed>
  <fix>3d</fix>
</trkpt>
<trkpt lat="40.0713534" lon="-105.229853">
  <ele>1583.03</ele>
  <time>2026-08-28T17:50:26Z</time>
  <course>247.42</course>
  <speed>0.6592419889539803</speed>
  <fix>3d</fix>
</trkpt>
<trkpt lat="40.0713537" lon="-105.2298515">
  <ele>1583.0</ele>
  <time>2026-08-28T17:50:26Z</time>
  <course>246.0</course>
  <speed>0.69</speed>
  <fix>3d</fix>
</trkpt>
<trkpt lat="40.0713531" lon="-105.2298537">
  <ele>1583.03</ele>
  <time>2026-08-28T17:50:26Z</time>
  <course>247.41</course>
  <speed>0.6592419889539803</speed>
  <fix>3d</fix>
</trkpt>
<trkpt lat="40.0713532" lon="-105.2298529">
  <ele>1583.0</ele>
  <time>2026-08-28T17:50:26Z</time>
  <course>246.0</course>
  <speed>0.69</speed>
  <fix>3d</fix>
</trkpt>
<trkpt lat="40.0713529" lon="-105.2298545">
  <ele>1583.03</ele>
  <time>2026-08-28T17:50:26Z</time>
  <course>247.41</course>
  <speed>0.6592419889539803</speed>
  <fix>3d</fix>
</trkpt>
<trkpt lat="40.0713532" lon="-105.2298529">
  <ele>1583.0</ele>
  <time>2026-08-28T17:50:26Z</time>
  <course>246.0</course>
  <speed>0.69</speed>
  <fix>3d</fix>
</trkpt>
<trkpt lat="40.0713526" lon="-105.2298552">
  <ele>1583.03</ele>
  <time>2026-08-28T17:50:26Z</time>
  <course>247.41</course>
  <speed>0.6592419889539803</speed>
  <fix>3d</fix>
</trkpt>
<trkpt lat="40.0713527" lon="-105.2298544">
  <ele>1583.0</ele>
  <time>2026-08-28T17:50:26Z</time>
  <course>246.0</course>
  <speed>0.69</speed>
  <fix>3d</fix>
</trkpt>
<trkpt lat="40.0713524" lon="-105.229856">
  <ele>1583.03</ele>
  <time>2026-08-28T17:50:26Z</time>
  <course>247.41</course>
  <speed>0.6592419889539803</speed>
  <fix>3d</fix>
</trkpt>
<trkpt lat="40.0713527" lon="-105.2298544">
  <ele>1583.0</ele>
  <time>2026-08-28T17:50:26Z</time>
  <course>246.0</course>
  <speed>0.69</speed>
  <fix>3d</fix>
</trkpt>
<trkpt lat="40.0713521" lon="-105.2298567">
  <ele>1583.03</ele>
  <time>2026-08-28T17:50:26Z</time>
  <course>247.41</course>
  <speed>0.6555150646628953</speed>
  <fix>3d</fix>
</trkpt>
<trkpt lat="40.0713522" lon="-105.2298559">
  <ele>1583.0</ele>
  <time>2026-08-28T17:50:26Z</time>
  <course>246.0</course>
  <speed>0.69</speed>
  <fix>3d</fix>
</trkpt>
<trkpt lat="40.0713519" lon="-105.2298575">
  <ele>1583.03</ele>
  <time>2026-08-28T17:50:26Z</time>
  <course>247.41</course>
  <speed>0.6555150646628953</speed>
  <fix>3d</fix>
</trkpt>
<trkpt lat="40.0713522" lon="-105.2298559">
  <ele>1583.0</ele>
  <time>2026-08-28T17:50:26Z</time>
  <course>246.0</course>
  <speed>0.69</speed>
  <fix>3d</fix>
</trkpt>
<trkpt lat="40.0713516" lon="-105.2298582">
  <ele>1583.03</ele>
  <time>2026-08-28T17:50:26Z</time>
  <course>247.41</course>
  <speed>0.6555150646628953</speed>
  <fix>3d</fix>
</trkpt>
<trkpt lat="40.0713522" lon="-105.2298559">
  <ele>1583.0</ele>
  <time>2026-08-28T17:50:26Z</time>
  <course>246.0</course>
  <speed>0.69</speed>
  <fix>3d</fix>
</trkpt>
<trkpt lat="40.0713514" lon="-105.2298589">
  <ele>1583.03</ele>
  <time>2026-08-28T17:50:26Z</time>
  <course>247.41</course>
  <speed>0.6555150646628953</speed>
  <fix>3d</fix>
</trkpt>
<trkpt lat="40.0713517" lon="-105.2298574">
  <ele>1583.0</ele>
  <time>2026-08-28T17:50:26Z</time>
  <course>246.0</course>
  <speed>0.68</speed>
  <fix>3d</fix>
</trkpt>
<trkpt lat="40.0713511" lon="-105.2298597">
  <ele>1583.03</ele>
  <time>2026-08-28T17:50:26Z</time>
  <course>247.41</course>
  <speed>0.6555150646628953</speed>
  <fix>3d</fix>
</trkpt>
<trkpt lat="40.0713517" lon="-105.2298574">
  <ele>1583.0</ele>
  <time>2026-08-28T17:50:26Z</time>
  <course>246.0</course>
  <speed>0.68</speed>
  <fix>3d</fix>
</trkpt>
<trkpt lat="40.0713509" lon="-105.2298604">
  <ele>1583.03</ele>
  <time>2026-08-28T17:50:26Z</time>
  <course>247.41</course>
  <speed>0.6555150646628953</speed>
  <fix>3d</fix>
</trkpt>
<trkpt lat="40.0713512" lon="-105.2298589">
  <ele>1583.0</ele>
  <time>2026-08-28T17:50:26Z</time>
  <course>246.0</course>
  <speed>0.69</speed>
  <fix>3d</fix>
</trkpt>
<trkpt lat="40.0713506" lon="-105.2298611">
  <ele>1583.04</ele>
  <time>2026-08-28T17:50:26Z</time>
  <course>247.4</course>
  <speed>0.6555150646628953</speed>
  <fix>3d</fix>
</trkpt>
<trkpt lat="40.0713512" lon="-105.2298589">
  <ele>1583.0</ele>
  <time>2026-08-28T17:50:26Z</time>
  <course>246.0</course>
  <speed>0.69</speed>
  <fix>3d</fix>
</trkpt>
<trkpt lat="40.0713504" lon="-105.2298619">
  <ele>1583.04</ele>
  <time>2026-08-28T17:50:26Z</time>
  <course>247.4</course>
  <speed>0.6555150646628953</speed>
  <fix>3d</fix>
</trkpt>
<trkpt lat="40.0713506" lon="-105.2298604">
  <ele>1583.0</ele>
  <time>2026-08-28T17:50:26Z</time>
  <course>246.0</course>
  <speed>0.69</speed>
  <fix>3d</fix>
</trkpt>
<trkpt lat="40.0713501" lon="-105.2298626">
  <ele>1583.04</ele>
  <time>2026-08-28T17:50:26Z</time>
  <course>247.4</course>
  <speed>0.6555150646628953</speed>
  <fix>3d</fix>
</trkpt>
<trkpt lat="40.0713501" lon="-105.2298619">
  <ele>1583.0</ele>
  <time>2026-08-28T17:50:26Z</time>
  <course>246.0</course>
  <speed>0.69</speed>
  <fix>3d</fix>
</trkpt>
<trkpt lat="40.0713499" lon="-105.2298634">
  <ele>1583.05</ele>
  <time>2026-08-28T17:50:26Z</time>
  <course>247.4</course>
  <speed>0.6555150646628953</speed>
  <fix>3d</fix>
</trkpt>
<trkpt lat="40.0713501" lon="-105.2298619">
  <ele>1583.0</ele>
  <time>2026-08-28T17:50:26Z</time>
  <course>246.0</course>
  <speed>0.69</speed>
  <fix>3d</fix>
</trkpt>
<trkpt lat="40.0713496" lon="-105.2298641">
  <ele>1583.05</ele>
  <time>2026-08-28T17:50:26Z</time>
  <course>247.4</course>
  <speed>0.6555150646628953</speed>
  <fix>3d</fix>
</trkpt>
<trkpt lat="40.0713496" lon="-105.2298633">
  <ele>1583.0</ele>
  <time>2026-08-28T17:50:26Z</time>
  <course>246.0</course>
  <speed>0.69</speed>
  <fix>3d</fix>
</trkpt>
<trkpt lat="40.0713494" lon="-105.2298649">
  <ele>1583.05</ele>
  <time>2026-08-28T17:50:26Z</time>
  <course>247.4</course>
  <speed>0.6555150646628953</speed>
  <fix>3d</fix>
</trkpt>
<trkpt lat="40.0713496" lon="-105.2298633">
  <ele>1583.0</ele>
  <time>2026-08-28T17:50:26Z</time>
  <course>246.0</course>
  <speed>0.69</speed>
  <fix>3d</fix>
</trkpt>
<trkpt lat="40.0713491" lon="-105.2298656">
  <ele>1583.05</ele>
  <time>2026-08-28T17:50:26Z</time>
  <course>247.4</course>
  <speed>0.6555150646628953</speed>
  <fix>3d</fix>
</trkpt>
<trkpt lat="40.0713491" lon="-105.2298648">
  <ele>1583.0</ele>
  <time>2026-08-28T17:50:26Z</time>
  <course>246.0</course>
  <speed>0.68</speed>
  <fix>3d</fix>
</trkpt>
<trkpt lat="40.0713488" lon="-105.2298663">
  <ele>1583.05</ele>
  <time>2026-08-28T17:50:26Z</time>
  <course>247.4</course>
  <speed>0.6592419889539803</speed>
  <fix>3d</fix>
</trkpt>
<trkpt lat="40.0713491" lon="-105.2298648">
  <ele>1583.0</ele>
  <time>2026-08-28T17:50:26Z</time>
  <course>246.0</course>
  <speed>0.68</speed>
  <fix>3d</fix>
</trkpt>
<trkpt lat="40.0713486" lon="-105.2298671">
  <ele>1583.06</ele>
  <time>2026-08-28T17:50:26Z</time>
  <course>247.39</course>
  <speed>0.6592419889539803</speed>
  <fix>3d</fix>
</trkpt>
<trkpt lat="40.0713486" lon="-105.2298663">
  <ele>1583.0</ele>
  <time>2026-08-28T17:50:26Z</time>
  <course>246.0</course>
  <speed>0.68</speed>
  <fix>3d</fix>
</trkpt>
<trkpt lat="40.0713483" lon="-105.2298678">
  <ele>1583.06</ele>
  <time>2026-08-28T17:50:27Z</time>
  <course>247.39</course>
  <speed>0.6592419889539803</speed>
  <fix>3d</fix>
</trkpt>
<trkpt lat="40.0713486" lon="-105.2298663">
  <ele>1583.0</ele>
  <time>2026-08-28T17:50:27Z</time>
  <course>246.0</course>
  <speed>0.68</speed>
  <fix>3d</fix>
</trkpt>
<trkpt lat="40.0713481" lon="-105.2298686">
  <ele>1583.06</ele>
  <time>2026-08-28T17:50:27Z</time>
  <course>247.39</course>
  <speed>0.6592419889539803</speed>
  <fix>3d</fix>
</trkpt>
<trkpt lat="40.0713481" lon="-105.2298677">
  <ele>1583.0</ele>
  <time>2026-08-28T17:50:27Z</time>
  <course>246.0</course>
  <speed>0.68</speed>
  <fix>3d</fix>
</trkpt>
<trkpt lat="40.0713478" lon="-105.2298693">
  <ele>1583.06</ele>
  <time>2026-08-28T17:50:27Z</time>
  <course>247.39</course>
  <speed>0.6592419889539803</speed>
  <fix>3d</fix>
</trkpt>
<trkpt lat="40.0713481" lon="-105.2298677">
  <ele>1583.0</ele>
  <time>2026-08-28T17:50:27Z</time>
  <course>246.0</course>
  <speed>0.68</speed>
  <fix>3d</fix>
</trkpt>
<trkpt lat="40.0713476" lon="-105.2298701">
  <ele>1583.06</ele>
  <time>2026-08-28T17:50:27Z</time>
  <course>247.39</course>
  <speed>0.6592419889539803</speed>
  <fix>3d</fix>
</trkpt>
<trkpt lat="40.0713476" lon="-105.2298692">
  <ele>1583.0</ele>
  <time>2026-08-28T17:50:27Z</time>
  <course>246.0</course>
  <speed>0.68</speed>
  <fix>3d</fix>
</trkpt>
<trkpt lat="40.0713473" lon="-105.2298708">
  <ele>1583.06</ele>
  <time>2026-08-28T17:50:27Z</time>
  <course>247.39</course>
  <speed>0.6592419889539803</speed>
  <fix>3d</fix>
</trkpt>
<trkpt lat="40.0713476" lon="-105.2298692">
  <ele>1583.0</ele>
  <time>2026-08-28T17:50:27Z</time>
  <course>246.0</course>
  <speed>0.68</speed>
  <fix>3d</fix>
</trkpt>
<trkpt lat="40.0713471" lon="-105.2298715">
  <ele>1583.06</ele>
  <time>2026-08-28T17:50:27Z</time>
  <course>247.38</course>
  <speed>0.6592419889539803</speed>
  <fix>3d</fix>
</trkpt>
<trkpt lat="40.0713471" lon="-105.2298707">
  <ele>1583.0</ele>
  <time>2026-08-28T17:50:27Z</time>
  <course>246.0</course>
  <speed>0.68</speed>
  <fix>3d</fix>
</trkpt>
<trkpt lat="40.0713468" lon="-105.2298723">
  <ele>1583.06</ele>
  <time>2026-08-28T17:50:27Z</time>
  <course>247.38</course>
  <speed>0.6592419889539803</speed>
  <fix>3d</fix>
</trkpt>
<trkpt lat="40.0713471" lon="-105.2298707">
  <ele>1583.0</ele>
  <time>2026-08-28T17:50:27Z</time>
  <course>246.0</course>
  <speed>0.68</speed>
  <fix>3d</fix>
</trkpt>
<trkpt lat="40.0713465" lon="-105.229873">
  <ele>1583.06</ele>
  <time>2026-08-28T17:50:27Z</time>
  <course>247.38</course>
  <speed>0.6592419889539803</speed>
  <fix>3d</fix>
</trkpt>
<trkpt lat="40.0713471" lon="-105.2298707">
  <ele>1583.0</ele>
  <time>2026-08-28T17:50:27Z</time>
  <course>246.0</course>
  <speed>0.68</speed>
  <fix>3d</fix>
</trkpt>
<trkpt lat="40.0713463" lon="-105.2298737">
  <ele>1583.05</ele>
  <time>2026-08-28T17:50:27Z</time>
  <course>247.38</course>
  <speed>0.6592419889539803</speed>
  <fix>3d</fix>
</trkpt>
<trkpt lat="40.0713466" lon="-105.2298722">
  <ele>1583.0</ele>
  <time>2026-08-28T17:50:27Z</time>
  <course>246.0</course>
  <speed>0.68</speed>
  <fix>3d</fix>
</trkpt>
<trkpt lat="40.071346" lon="-105.2298745">
  <ele>1583.05</ele>
  <time>2026-08-28T17:50:27Z</time>
  <course>247.38</course>
  <speed>0.6592419889539803</speed>
  <fix>3d</fix>
</trkpt>
<trkpt lat="40.0713466" lon="-105.2298722">
  <ele>1583.0</ele>
  <time>2026-08-28T17:50:27Z</time>
  <course>246.0</course>
  <speed>0.68</speed>
  <fix>3d</fix>
</trkpt>
<trkpt lat="40.0713458" lon="-105.2298752">
  <ele>1583.05</ele>
  <time>2026-08-28T17:50:27Z</time>
  <course>247.38</course>
  <speed>0.6592419889539803</speed>
  <fix>3d</fix>
</trkpt>
<trkpt lat="40.0713461" lon="-105.2298737">
  <ele>1583.0</ele>
  <time>2026-08-28T17:50:27Z</time>
  <course>246.0</course>
  <speed>0.68</speed>
  <fix>3d</fix>
</trkpt>
<trkpt lat="40.0713455" lon="-105.2298759">
  <ele>1583.05</ele>
  <time>2026-08-28T17:50:27Z</time>
  <course>247.38</course>
  <speed>0.6592419889539803</speed>
  <fix>3d</fix>
</trkpt>
<trkpt lat="40.0713461" lon="-105.2298737">
  <ele>1583.0</ele>
  <time>2026-08-28T17:50:27Z</time>
  <course>246.0</course>
  <speed>0.68</speed>
  <fix>3d</fix>
</trkpt>
<trkpt lat="40.0713453" lon="-105.2298767">
  <ele>1583.05</ele>
  <time>2026-08-28T17:50:27Z</time>
  <course>247.37</course>
  <speed>0.6592419889539803</speed>
  <fix>3d</fix>
</trkpt>
<trkpt lat="40.0713456" lon="-105.2298751">
  <ele>1583.0</ele>
  <time>2026-08-28T17:50:27Z</time>
  <course>246.0</course>
  <speed>0.68</speed>
  <fix>3d</fix>
</trkpt>
<trkpt lat="40.071345" lon="-105.2298774">
  <ele>1583.05</ele>
  <time>2026-08-28T17:50:27Z</time>
  <course>247.37</course>
  <speed>0.6592419889539803</speed>
  <fix>3d</fix>
</trkpt>
<trkpt lat="40.0713456" lon="-105.2298751">
  <ele>1583.0</ele>
  <time>2026-08-28T17:50:27Z</time>
  <course>246.0</course>
  <speed>0.68</speed>
  <fix>3d</fix>
</trkpt>
<trkpt lat="40.0713448" lon="-105.2298781">
  <ele>1583.05</ele>
  <time>2026-08-28T17:50:27Z</time>
  <course>247.37</course>
  <speed>0.6592419889539803</speed>
  <fix>3d</fix>
</trkpt>
<trkpt lat="40.0713451" lon="-105.2298766">
  <ele>1583.0</ele>
  <time>2026-08-28T17:50:27Z</time>
  <course>246.0</course>
  <speed>0.68</speed>
  <fix>3d</fix>
</trkpt>
<trkpt lat="40.0713445" lon="-105.2298789">
  <ele>1583.05</ele>
  <time>2026-08-28T17:50:27Z</time>
  <course>247.37</course>
  <speed>0.6592419889539803</speed>
  <fix>3d</fix>
</trkpt>
<trkpt lat="40.0713446" lon="-105.2298781">
  <ele>1583.0</ele>
  <time>2026-08-28T17:50:27Z</time>
  <course>246.0</course>
  <speed>0.68</speed>
  <fix>3d</fix>
</trkpt>
<trkpt lat="40.0713443" lon="-105.2298796">
  <ele>1583.05</ele>
  <time>2026-08-28T17:50:27Z</time>
  <course>247.37</course>
  <speed>0.6592419889539803</speed>
  <fix>3d</fix>
</trkpt>
<trkpt lat="40.0713446" lon="-105.2298781">
  <ele>1583.0</ele>
  <time>2026-08-28T17:50:27Z</time>
  <course>246.0</course>
  <speed>0.68</speed>
  <fix>3d</fix>
</trkpt>
<trkpt lat="40.071344" lon="-105.2298803">
  <ele>1583.05</ele>
  <time>2026-08-28T17:50:27Z</time>
  <course>247.37</course>
  <speed>0.6592419889539803</speed>
  <fix>3d</fix>
</trkpt>
<trkpt lat="40.0713441" lon="-105.2298795">
  <ele>1583.0</ele>
  <time>2026-08-28T17:50:27Z</time>
  <course>246.0</course>
  <speed>0.68</speed>
  <fix>3d</fix>
</trkpt>
<trkpt lat="40.0713438" lon="-105.2298811">
  <ele>1583.05</ele>
  <time>2026-08-28T17:50:27Z</time>
  <course>247.37</course>
  <speed>0.6592419889539803</speed>
  <fix>3d</fix>
</trkpt>
<trkpt lat="40.0713441" lon="-105.2298795">
  <ele>1583.0</ele>
  <time>2026-08-28T17:50:27Z</time>
  <course>246.0</course>
  <speed>0.68</speed>
  <fix>3d</fix>
</trkpt>
<trkpt lat="40.0713435" lon="-105.2298818">
  <ele>1583.05</ele>
  <time>2026-08-28T17:50:27Z</time>
  <course>247.36</course>
  <speed>0.6592419889539803</speed>
  <fix>3d</fix>
</trkpt>
<trkpt lat="40.0713436" lon="-105.229881">
  <ele>1583.0</ele>
  <time>2026-08-28T17:50:27Z</time>
  <course>246.0</course>
  <speed>0.68</speed>
  <fix>3d</fix>
</trkpt>
<trkpt lat="40.0713433" lon="-105.2298826">
  <ele>1583.05</ele>
  <time>2026-08-28T17:50:27Z</time>
  <course>247.36</course>
  <speed>0.6592419889539803</speed>
  <fix>3d</fix>
</trkpt>
<trkpt lat="40.0713436" lon="-105.229881">
  <ele>1583.0</ele>
  <time>2026-08-28T17:50:27Z</time>
  <course>246.0</course>
  <speed>0.68</speed>
  <fix>3d</fix>
</trkpt>
<trkpt lat="40.071343" lon="-105.2298833">
  <ele>1583.04</ele>
  <time>2026-08-28T17:50:27Z</time>
  <course>247.36</course>
  <speed>0.6592419889539803</speed>
  <fix>3d</fix>
</trkpt>
<trkpt lat="40.0713431" lon="-105.2298825">
  <ele>1583.0</ele>
  <time>2026-08-28T17:50:27Z</time>
  <course>246.0</course>
  <speed>0.68</speed>
  <fix>3d</fix>
</trkpt>
<trkpt lat="40.0713428" lon="-105.229884">
  <ele>1583.04</ele>
  <time>2026-08-28T17:50:27Z</time>
  <course>247.36</course>
  <speed>0.6592419889539803</speed>
  <fix>3d</fix>
</trkpt>
<trkpt lat="40.0713431" lon="-105.2298825">
  <ele>1583.0</ele>
  <time>2026-08-28T17:50:27Z</time>
  <course>246.0</course>
  <speed>0.68</speed>
  <fix>3d</fix>
</trkpt>
<trkpt lat="40.0713425" lon="-105.2298848">
  <ele>1583.04</ele>
  <time>2026-08-28T17:50:27Z</time>
  <course>247.36</course>
  <speed>0.6592419889539803</speed>
  <fix>3d</fix>
</trkpt>
<trkpt lat="40.0713426" lon="-105.229884">
  <ele>1583.0</ele>
  <time>2026-08-28T17:50:27Z</time>
  <course>246.0</course>
  <speed>0.68</speed>
  <fix>3d</fix>
</trkpt>
<trkpt lat="40.0713423" lon="-105.2298855">
  <ele>1583.04</ele>
  <time>2026-08-28T17:50:27Z</time>
  <course>247.36</course>
  <speed>0.6592419889539803</speed>
  <fix>3d</fix>
</trkpt>
<trkpt lat="40.0713426" lon="-105.229884">
  <ele>1583.0</ele>
  <time>2026-08-28T17:50:27Z</time>
  <course>246.0</course>
  <speed>0.68</speed>
  <fix>3d</fix>
</trkpt>
<trkpt lat="40.071342" lon="-105.2298863">
  <ele>1583.04</ele>
  <time>2026-08-28T17:50:27Z</time>
  <course>247.35</course>
  <speed>0.6592419889539803</speed>
  <fix>3d</fix>
</trkpt>
<trkpt lat="40.0713421" lon="-105.2298855">
  <ele>1583.0</ele>
  <time>2026-08-28T17:50:27Z</time>
  <course>246.0</course>
  <speed>0.68</speed>
  <fix>3d</fix>
</trkpt>
<trkpt lat="40.0713418" lon="-105.229887">
  <ele>1583.03</ele>
  <time>2026-08-28T17:50:27Z</time>
  <course>247.35</course>
  <speed>0.6592419889539803</speed>
  <fix>3d</fix>
</trkpt>
<trkpt lat="40.0713421" lon="-105.2298855">
  <ele>1583.0</ele>
  <time>2026-08-28T17:50:27Z</time>
  <course>246.0</course>
  <speed>0.68</speed>
  <fix>3d</fix>
</trkpt>
<trkpt lat="40.0713415" lon="-105.2298878">
  <ele>1583.03</ele>
  <time>2026-08-28T17:50:27Z</time>
  <course>247.35</course>
  <speed>0.6592419889539803</speed>
  <fix>3d</fix>
</trkpt>
<trkpt lat="40.0713416" lon="-105.2298869">
  <ele>1583.0</ele>
  <time>2026-08-28T17:50:27Z</time>
  <course>246.0</course>
  <speed>0.68</speed>
  <fix>3d</fix>
</trkpt>
<trkpt lat="40.0713413" lon="-105.2298885">
  <ele>1583.03</ele>
  <time>2026-08-28T17:50:27Z</time>
  <course>247.35</course>
  <speed>0.6592419889539803</speed>
  <fix>3d</fix>
</trkpt>
<trkpt lat="40.0713416" lon="-105.2298869">
  <ele>1583.0</ele>
  <time>2026-08-28T17:50:27Z</time>
  <course>246.0</course>
  <speed>0.68</speed>
  <fix>3d</fix>
</trkpt>
<trkpt lat="40.071341" lon="-105.2298892">
  <ele>1583.03</ele>
  <time>2026-08-28T17:50:27Z</time>
  <course>247.35</course>
  <speed>0.6592419889539803</speed>
  <fix>3d</fix>
</trkpt>
<trkpt lat="40.0713416" lon="-105.2298869">
  <ele>1583.0</ele>
  <time>2026-08-28T17:50:27Z</time>
  <course>246.0</course>
  <speed>0.68</speed>
  <fix>3d</fix>
</trkpt>
<trkpt lat="40.0713408" lon="-105.22989">
  <ele>1583.02</ele>
  <time>2026-08-28T17:50:27Z</time>
  <course>247.35</course>
  <speed>0.6592419889539803</speed>
  <fix>3d</fix>
</trkpt>
<trkpt lat="40.0713411" lon="-105.2298884">
  <ele>1583.0</ele>
  <time>2026-08-28T17:50:27Z</time>
  <course>246.0</course>
  <speed>0.68</speed>
  <fix>3d</fix>
</trkpt>
<trkpt lat="40.0713405" lon="-105.2298907">
  <ele>1583.02</ele>
  <time>2026-08-28T17:50:27Z</time>
  <course>247.35</course>
  <speed>0.6592419889539803</speed>
  <fix>3d</fix>
</trkpt>
<trkpt lat="40.0713411" lon="-105.2298884">
  <ele>1583.0</ele>
  <time>2026-08-28T17:50:27Z</time>
  <course>246.0</course>
  <speed>0.68</speed>
  <fix>3d</fix>
</trkpt>
<trkpt lat="40.0713403" lon="-105.2298914">
  <ele>1583.02</ele>
  <time>2026-08-28T17:50:27Z</time>
  <course>247.34</course>
  <speed>0.6592419889539803</speed>
  <fix>3d</fix>
</trkpt>
<trkpt lat="40.0713406" lon="-105.2298899">
  <ele>1583.0</ele>
  <time>2026-08-28T17:50:27Z</time>
  <course>246.0</course>
  <speed>0.68</speed>
  <fix>3d</fix>
</trkpt>
<trkpt lat="40.07134" lon="-105.2298922">
  <ele>1583.01</ele>
  <time>2026-08-28T17:50:27Z</time>
  <course>247.34</course>
  <speed>0.6592419889539803</speed>
  <fix>3d</fix>
</trkpt>
<trkpt lat="40.0713406" lon="-105.2298899">
  <ele>1583.0</ele>
  <time>2026-08-28T17:50:27Z</time>
  <course>246.0</course>
  <speed>0.68</speed>
  <fix>3d</fix>
</trkpt>
<trkpt lat="40.0713398" lon="-105.2298929">
  <ele>1583.01</ele>
  <time>2026-08-28T17:50:27Z</time>
  <course>247.34</course>
  <speed>0.6592419889539803</speed>
  <fix>3d</fix>
</trkpt>
<trkpt lat="40.0713401" lon="-105.2298914">
  <ele>1583.0</ele>
  <time>2026-08-28T17:50:27Z</time>
  <course>246.0</course>
  <speed>0.68</speed>
  <fix>3d</fix>
</trkpt>
<trkpt lat="40.0713395" lon="-105.2298936">
  <ele>1583.01</ele>
  <time>2026-08-28T17:50:27Z</time>
  <course>247.34</course>
  <speed>0.6592419889539803</speed>
  <fix>3d</fix>
</trkpt>
<trkpt lat="40.0713396" lon="-105.2298928">
  <ele>1583.0</ele>
  <time>2026-08-28T17:50:27Z</time>
  <course>245.99</course>
  <speed>0.68</speed>
  <fix>3d</fix>
</trkpt>
<trkpt lat="40.0713393" lon="-105.2298944">
  <ele>1583.01</ele>
  <time>2026-08-28T17:50:27Z</time>
  <course>247.34</course>
  <speed>0.6592419889539803</speed>
  <fix>3d</fix>
</trkpt>
<trkpt lat="40.0713396" lon="-105.2298928">
  <ele>1583.0</ele>
  <time>2026-08-28T17:50:27Z</time>
  <course>245.99</course>
  <speed>0.68</speed>
  <fix>3d</fix>
</trkpt>
<trkpt lat="40.071339" lon="-105.2298951">
  <ele>1583.0</ele>
  <time>2026-08-28T17:50:27Z</time>
  <course>247.34</course>
  <speed>0.6592419889539803</speed>
  <fix>3d</fix>
</trkpt>
<trkpt lat="40.0713391" lon="-105.2298943">
  <ele>1583.0</ele>
  <time>2026-08-28T17:50:27Z</time>
  <course>246.0</course>
  <speed>0.68</speed>
  <fix>3d</fix>
</trkpt>
<trkpt lat="40.0713388" lon="-105.2298958">
  <ele>1583.0</ele>
  <time>2026-08-28T17:50:27Z</time>
  <course>247.33</course>
  <speed>0.6592419889539803</speed>
  <fix>3d</fix>
</trkpt>
<trkpt lat="40.0713391" lon="-105.2298943">
  <ele>1583.0</ele>
  <time>2026-08-28T17:50:27Z</time>
  <course>246.0</course>
  <speed>0.68</speed>
  <fix>3d</fix>
</trkpt>
<trkpt lat="40.0713385" lon="-105.2298966">
  <ele>1582.99</ele>
  <time>2026-08-28T17:50:27Z</time>
  <course>247.33</course>
  <speed>0.6592419889539803</speed>
  <fix>3d</fix>
</trkpt>
<trkpt lat="40.0713386" lon="-105.2298958">
  <ele>1583.0</ele>
  <time>2026-08-28T17:50:27Z</time>
  <course>246.0</course>
  <speed>0.68</speed>
  <fix>3d</fix>
</trkpt>
<trkpt lat="40.0713383" lon="-105.2298973">
  <ele>1582.99</ele>
  <time>2026-08-28T17:50:27Z</time>
  <course>247.33</course>
  <speed>0.6592419889539803</speed>
  <fix>3d</fix>
</trkpt>
<trkpt lat="40.0713386" lon="-105.2298958">
  <ele>1583.0</ele>
  <time>2026-08-28T17:50:27Z</time>
  <course>246.0</course>
  <speed>0.68</speed>
  <fix>3d</fix>
</trkpt>
<trkpt lat="40.071338" lon="-105.2298981">
  <ele>1582.99</ele>
  <time>2026-08-28T17:50:27Z</time>
  <course>247.33</course>
  <speed>0.6592419889539803</speed>
  <fix>3d</fix>
</trkpt>
<trkpt lat="40.0713381" lon="-105.2298972">
  <ele>1583.0</ele>
  <time>2026-08-28T17:50:27Z</time>
  <course>246.0</course>
  <speed>0.68</speed>
  <fix>3d</fix>
</trkpt>
<trkpt lat="40.0713378" lon="-105.2298988">
  <ele>1582.99</ele>
  <time>2026-08-28T17:50:27Z</time>
  <course>247.33</course>
  <speed>0.6592419889539803</speed>
  <fix>3d</fix>
</trkpt>
<trkpt lat="40.0713381" lon="-105.2298972">
  <ele>1583.0</ele>
  <time>2026-08-28T17:50:27Z</time>
  <course>246.0</course>
  <speed>0.68</speed>
  <fix>3d</fix>
</trkpt>
<trkpt lat="40.0713375" lon="-105.2298995">
  <ele>1582.99</ele>
  <time>2026-08-28T17:50:27Z</time>
  <course>247.33</course>
  <speed>0.6592419889539803</speed>
  <fix>3d</fix>
</trkpt>
<trkpt lat="40.0713376" lon="-105.2298987">
  <ele>1583.0</ele>
  <time>2026-08-28T17:50:27Z</time>
  <course>246.0</course>
  <speed>0.68</speed>
  <fix>3d</fix>
</trkpt>
<trkpt lat="40.0713373" lon="-105.2299003">
  <ele>1583.0</ele>
  <time>2026-08-28T17:50:27Z</time>
  <course>247.33</course>
  <speed>0.6592419889539803</speed>
  <fix>3d</fix>
</trkpt>
<trkpt lat="40.0713376" lon="-105.2298987">
  <ele>1583.0</ele>
  <time>2026-08-28T17:50:27Z</time>
  <course>246.0</course>
  <speed>0.68</speed>
  <fix>3d</fix>
</trkpt>
<trkpt lat="40.071337" lon="-105.229901">
  <ele>1583.0</ele>
  <time>2026-08-28T17:50:27Z</time>
  <course>247.32</course>
  <speed>0.6592419889539803</speed>
  <fix>3d</fix>
</trkpt>
<trkpt lat="40.0713371" lon="-105.2299002">
  <ele>1583.0</ele>
  <time>2026-08-28T17:50:27Z</time>
  <course>246.0</course>
  <speed>0.68</speed>
  <fix>3d</fix>
</trkpt>
<trkpt lat="40.0713368" lon="-105.2299018">
  <ele>1583.0</ele>
  <time>2026-08-28T17:50:27Z</time>
  <course>247.32</course>
  <speed>0.6592419889539803</speed>
  <fix>3d</fix>
</trkpt>
<trkpt lat="40.0713371" lon="-105.2299002">
  <ele>1583.0</ele>
  <time>2026-08-28T17:50:27Z</time>
  <course>246.0</course>
  <speed>0.68</speed>
  <fix>3d</fix>
</trkpt>
<trkpt lat="40.0713365" lon="-105.2299025">
  <ele>1583.0</ele>
  <time>2026-08-28T17:50:27Z</time>
  <course>247.32</course>
  <speed>0.6592419889539803</speed>
  <fix>3d</fix>
</trkpt>
<trkpt lat="40.0713366" lon="-105.2299017">
  <ele>1583.0</ele>
  <time>2026-08-28T17:50:27Z</time>
  <course>246.0</course>
  <speed>0.68</speed>
  <fix>3d</fix>
</trkpt>
<trkpt lat="40.0713363" lon="-105.2299032">
  <ele>1583.0</ele>
  <time>2026-08-28T17:50:27Z</time>
  <course>247.32</course>
  <speed>0.6592419889539803</speed>
  <fix>3d</fix>
</trkpt>
<trkpt lat="40.0713366" lon="-105.2299017">
  <ele>1583.0</ele>
  <time>2026-08-28T17:50:27Z</time>
  <course>246.0</course>
  <speed>0.68</speed>
  <fix>3d</fix>
</trkpt>
<trkpt lat="40.071336" lon="-105.229904">
  <ele>1583.0</ele>
  <time>2026-08-28T17:50:27Z</time>
  <course>247.32</course>
  <speed>0.6592419889539803</speed>
  <fix>3d</fix>
</trkpt>
<trkpt lat="40.0713366" lon="-105.2299017">
  <ele>1583.0</ele>
  <time>2026-08-28T17:50:27Z</time>
  <course>246.0</course>
  <speed>0.68</speed>
  <fix>3d</fix>
</trkpt>
<trkpt lat="40.0713358" lon="-105.2299047">
  <ele>1583.0</ele>
  <time>2026-08-28T17:50:27Z</time>
  <course>247.32</course>
  <speed>0.6592419889539803</speed>
  <fix>3d</fix>
</trkpt>
<trkpt lat="40.0713361" lon="-105.2299031">
  <ele>1583.0</ele>
  <time>2026-08-28T17:50:27Z</time>
  <course>246.0</course>
  <speed>0.68</speed>
  <fix>3d</fix>
</trkpt>
<trkpt lat="40.0713355" lon="-105.2299054">
  <ele>1583.0</ele>
  <time>2026-08-28T17:50:27Z</time>
  <course>247.32</course>
  <speed>0.6592419889539803</speed>
  <fix>3d</fix>
</trkpt>
<trkpt lat="40.0713361" lon="-105.2299031">
  <ele>1583.0</ele>
  <time>2026-08-28T17:50:27Z</time>
  <course>246.0</course>
  <speed>0.68</speed>
  <fix>3d</fix>
</trkpt>
<trkpt lat="40.0713353" lon="-105.2299062">
  <ele>1582.99</ele>
  <time>2026-08-28T17:50:27Z</time>
  <course>247.31</course>
  <speed>0.6592419889539803</speed>
  <fix>3d</fix>
</trkpt>
<trkpt lat="40.0713356" lon="-105.2299046">
  <ele>1583.0</ele>
  <time>2026-08-28T17:50:27Z</time>
  <course>246.0</course>
  <speed>0.68</speed>
  <fix>3d</fix>
</trkpt>
<trkpt lat="40.071335" lon="-105.2299069">
  <ele>1583.0</ele>
  <time>2026-08-28T17:50:27Z</time>
  <course>247.31</course>
  <speed>0.6592419889539803</speed>
  <fix>3d</fix>
</trkpt>
<trkpt lat="40.0713356" lon="-105.2299046">
  <ele>1583.0</ele>
  <time>2026-08-28T17:50:27Z</time>
  <course>246.0</course>
  <speed>0.68</speed>
  <fix>3d</fix>
</trkpt>
<trkpt lat="40.0713348" lon="-105.2299076">
  <ele>1583.0</ele>
  <time>2026-08-28T17:50:27Z</time>
  <course>247.31</course>
  <speed>0.6592419889539803</speed>
  <fix>3d</fix>
</trkpt>
<trkpt lat="40.0713351" lon="-105.2299061">
  <ele>1583.0</ele>
  <time>2026-08-28T17:50:27Z</time>
  <course>246.0</course>
  <speed>0.68</speed>
  <fix>3d</fix>
</trkpt>
<trkpt lat="40.0713345" lon="-105.2299084">
  <ele>1583.0</ele>
  <time>2026-08-28T17:50:27Z</time>
  <course>247.31</course>
  <speed>0.6592419889539803</speed>
  <fix>3d</fix>
</trkpt>
<trkpt lat="40.0713351" lon="-105.2299061">
  <ele>1583.0</ele>
  <time>2026-08-28T17:50:27Z</time>
  <course>246.0</course>
  <speed>0.68</speed>
  <fix>3d</fix>
</trkpt>
<trkpt lat="40.0713343" lon="-105.2299091">
  <ele>1583.0</ele>
  <time>2026-08-28T17:50:27Z</time>
  <course>247.31</course>
  <speed>0.6592419889539803</speed>
  <fix>3d</fix>
</trkpt>
<trkpt lat="40.0713346" lon="-105.2299075">
  <ele>1583.0</ele>
  <time>2026-08-28T17:50:27Z</time>
  <course>245.99</course>
  <speed>0.68</speed>
  <fix>3d</fix>
</trkpt>
<trkpt lat="40.071334" lon="-105.2299098">
  <ele>1583.0</ele>
  <time>2026-08-28T17:50:27Z</time>
  <course>247.31</course>
  <speed>0.6592419889539803</speed>
  <fix>3d</fix>
</trkpt>
<trkpt lat="40.0713341" lon="-105.229909">
  <ele>1583.0</ele>
  <time>2026-08-28T17:50:27Z</time>
  <course>245.99</course>
  <speed>0.68</speed>
  <fix>3d</fix>
</trkpt>
<trkpt lat="40.0713338" lon="-105.2299106">
  <ele>1583.0</ele>
  <time>2026-08-28T17:50:27Z</time>
  <course>247.31</course>
  <speed>0.6592419889539803</speed>
  <fix>3d</fix>
</trkpt>
<trkpt lat="40.0713341" lon="-105.229909">
  <ele>1583.0</ele>
  <time>2026-08-28T17:50:27Z</time>
  <course>245.99</course>
  <speed>0.68</speed>
  <fix>3d</fix>
</trkpt>
<trkpt lat="40.0713335" lon="-105.2299113">
  <ele>1583.0</ele>
  <time>2026-08-28T17:50:27Z</time>
  <course>247.3</course>
  <speed>0.6592419889539803</speed>
  <fix>3d</fix>
</trkpt>
<trkpt lat="40.0713336" lon="-105.2299105">
  <ele>1583.0</ele>
  <time>2026-08-28T17:50:27Z</time>
  <course>245.99</course>
  <speed>0.68</speed>
  <fix>3d</fix>
</trkpt>
<trkpt lat="40.0713333" lon="-105.229912">
  <ele>1583.0</ele>
  <time>2026-08-28T17:50:27Z</time>
  <course>247.3</course>
  <speed>0.6592419889539803</speed>
  <fix>3d</fix>
</trkpt>
<trkpt lat="40.0713336" lon="-105.2299105">
  <ele>1583.0</ele>
  <time>2026-08-28T17:50:27Z</time>
  <course>245.99</course>
  <speed>0.68</speed>
  <fix>3d</fix>
</trkpt>
<trkpt lat="40.071333" lon="-105.2299128">
  <ele>1583.0</ele>
  <time>2026-08-28T17:50:27Z</time>
  <course>247.3</course>
  <speed>0.6592419889539803</speed>
  <fix>3d</fix>
</trkpt>
<trkpt lat="40.0713331" lon="-105.229912">
  <ele>1583.0</ele>
  <time>2026-08-28T17:50:27Z</time>
  <course>246.0</course>
  <speed>0.68</speed>
  <fix>3d</fix>
</trkpt>
<trkpt lat="40.0713328" lon="-105.2299135">
  <ele>1583.01</ele>
  <time>2026-08-28T17:50:27Z</time>
  <course>247.3</course>
  <speed>0.6592419889539803</speed>
  <fix>3d</fix>
</trkpt>
<trkpt lat="40.0713331" lon="-105.229912">
  <ele>1583.0</ele>
  <time>2026-08-28T17:50:27Z</time>
  <course>246.0</course>
  <speed>0.68</speed>
  <fix>3d</fix>
</trkpt>
<trkpt lat="40.0713325" lon="-105.2299142">
  <ele>1583.01</ele>
  <time>2026-08-28T17:50:27Z</time>
  <course>247.3</course>
  <speed>0.6592419889539803</speed>
  <fix>3d</fix>
</trkpt>
<trkpt lat="40.0713326" lon="-105.2299134">
  <ele>1583.0</ele>
  <time>2026-08-28T17:50:27Z</time>
  <course>246.0</course>
  <speed>0.68</speed>
  <fix>3d</fix>
</trkpt>
<trkpt lat="40.0713323" lon="-105.229915">
  <ele>1583.01</ele>
  <time>2026-08-28T17:50:27Z</time>
  <course>247.3</course>
  <speed>0.6592419889539803</speed>
  <fix>3d</fix>
</trkpt>
<trkpt lat="40.0713326" lon="-105.2299134">
  <ele>1583.0</ele>
  <time>2026-08-28T17:50:27Z</time>
  <course>246.0</course>
  <speed>0.68</speed>
  <fix>3d</fix>
</trkpt>
<trkpt lat="40.071332" lon="-105.2299157">
  <ele>1583.01</ele>
  <time>2026-08-28T17:50:27Z</time>
  <course>247.3</course>
  <speed>0.6592419889539803</speed>
  <fix>3d</fix>
</trkpt>
<trkpt lat="40.0713321" lon="-105.2299149">
  <ele>1583.0</ele>
  <time>2026-08-28T17:50:27Z</time>
  <course>246.0</course>
  <speed>0.68</speed>
  <fix>3d</fix>
</trkpt>
<trkpt lat="40.0713318" lon="-105.2299165">
  <ele>1583.01</ele>
  <time>2026-08-28T17:50:27Z</time>
  <course>247.3</course>
  <speed>0.6592419889539803</speed>
  <fix>3d</fix>
</trkpt>
<trkpt lat="40.0713321" lon="-105.2299149">
  <ele>1583.0</ele>
  <time>2026-08-28T17:50:27Z</time>
  <course>246.0</course>
  <speed>0.68</speed>
  <fix>3d</fix>
</trkpt>
<trkpt lat="40.0713315" lon="-105.2299172">
  <ele>1583.01</ele>
  <time>2026-08-28T17:50:27Z</time>
  <course>247.29</course>
  <speed>0.6592419889539803</speed>
  <fix>3d</fix>
</trkpt>
<trkpt lat="40.0713316" lon="-105.2299164">
  <ele>1583.0</ele>
  <time>2026-08-28T17:50:27Z</time>
  <course>245.99</course>
  <speed>0.68</speed>
  <fix>3d</fix>
</trkpt>
<trkpt lat="40.0713313" lon="-105.2299179">
  <ele>1583.02</ele>
  <time>2026-08-28T17:50:27Z</time>
  <course>247.29</course>
  <speed>0.6592419889539803</speed>
  <fix>3d</fix>
</trkpt>
<trkpt lat="40.0713316" lon="-105.2299164">
  <ele>1583.0</ele>
  <time>2026-08-28T17:50:27Z</time>
  <course>245.99</course>
  <speed>0.68</speed>
  <fix>3d</fix>
</trkpt>
<trkpt lat="40.071331" lon="-105.2299187">
  <ele>1583.02</ele>
  <time>2026-08-28T17:50:27Z</time>
  <course>247.29</course>
  <speed>0.6592419889539803</speed>
  <fix>3d</fix>
</trkpt>
<trkpt lat="40.0713311" lon="-105.2299178">
  <ele>1583.0</ele>
  <time>2026-08-28T17:50:27Z</time>
  <course>245.99</course>
  <speed>0.68</speed>
  <fix>3d</fix>
</trkpt>
<trkpt lat="40.0713308" lon="-105.2299194">
  <ele>1583.03</ele>
  <time>2026-08-28T17:50:27Z</time>
  <course>247.29</course>
  <speed>0.6592419889539803</speed>
  <fix>3d</fix>
</trkpt>
<trkpt lat="40.0713311" lon="-105.2299178">
  <ele>1583.0</ele>
  <time>2026-08-28T17:50:27Z</time>
  <course>245.99</course>
  <speed>0.68</speed>
  <fix>3d</fix>
</trkpt>
<trkpt lat="40.0713305" lon="-105.2299202">
  <ele>1583.03</ele>
  <time>2026-08-28T17:50:27Z</time>
  <course>247.29</course>
  <speed>0.6592419889539803</speed>
  <fix>3d</fix>
</trkpt>
<trkpt lat="40.0713311" lon="-105.2299178">
  <ele>1583.0</ele>
  <time>2026-08-28T17:50:27Z</time>
  <course>245.99</course>
  <speed>0.68</speed>
  <fix>3d</fix>
</trkpt>
<trkpt lat="40.0713303" lon="-105.2299209">
  <ele>1583.03</ele>
  <time>2026-08-28T17:50:27Z</time>
  <course>247.29</course>
  <speed>0.6592419889539803</speed>
  <fix>3d</fix>
</trkpt>
<trkpt lat="40.0713306" lon="-105.2299193">
  <ele>1583.0</ele>
  <time>2026-08-28T17:50:27Z</time>
  <course>246.0</course>
  <speed>0.68</speed>
  <fix>3d</fix>
</trkpt>
<trkpt lat="40.07133" lon="-105.2299216">
  <ele>1583.03</ele>
  <time>2026-08-28T17:50:27Z</time>
  <course>247.29</course>
  <speed>0.6592419889539803</speed>
  <fix>3d</fix>
</trkpt>
<trkpt lat="40.0713306" lon="-105.2299193">
  <ele>1583.0</ele>
  <time>2026-08-28T17:50:27Z</time>
  <course>246.0</course>
  <speed>0.68</speed>
  <fix>3d</fix>
</trkpt>
<trkpt lat="40.0713298" lon="-105.2299223">
  <ele>1583.03</ele>
  <time>2026-08-28T17:50:27Z</time>
  <course>247.29</course>
  <speed>0.6592419889539803</speed>
  <fix>3d</fix>
</trkpt>
<trkpt lat="40.0713301" lon="-105.2299208">
  <ele>1583.0</ele>
  <time>2026-08-28T17:50:27Z</time>
  <course>246.0</course>
  <speed>0.68</speed>
  <fix>3d</fix>
</trkpt>
<trkpt lat="40.0713295" lon="-105.2299231">
  <ele>1583.03</ele>
  <time>2026-08-28T17:50:27Z</time>
  <course>247.28</course>
  <speed>0.6592419889539803</speed>
  <fix>3d</fix>
</trkpt>
<trkpt lat="40.0713301" lon="-105.2299208">
  <ele>1583.0</ele>
  <time>2026-08-28T17:50:27Z</time>
  <course>246.0</course>
  <speed>0.68</speed>
  <fix>3d</fix>
</trkpt>
<trkpt lat="40.0713293" lon="-105.2299238">
  <ele>1583.03</ele>
  <time>2026-08-28T17:50:27Z</time>
  <course>247.28</course>
  <speed>0.6592419889539803</speed>
  <fix>3d</fix>
</trkpt>
<trkpt lat="40.0713296" lon="-105.2299223">
  <ele>1583.0</ele>
  <time>2026-08-28T17:50:27Z</time>
  <course>245.99</course>
  <speed>0.68</speed>
  <fix>3d</fix>
</trkpt>
<trkpt lat="40.071329" lon="-105.2299245">
  <ele>1583.03</ele>
  <time>2026-08-28T17:50:27Z</time>
  <course>247.28</course>
  <speed>0.6592419889539803</speed>
  <fix>3d</fix>
</trkpt>
<trkpt lat="40.0713291" lon="-105.2299237">
  <ele>1583.0</ele>
  <time>2026-08-28T17:50:27Z</time>
  <course>245.99</course>
  <speed>0.68</speed>
  <fix>3d</fix>
</trkpt>
<trkpt lat="40.0713288" lon="-105.2299253">
  <ele>1583.02</ele>
  <time>2026-08-28T17:50:27Z</time>
  <course>247.28</course>
  <speed>0.6592419889539803</speed>
  <fix>3d</fix>
</trkpt>
<trkpt lat="40.0713291" lon="-105.2299237">
  <ele>1583.0</ele>
  <time>2026-08-28T17:50:27Z</time>
  <course>245.99</course>
  <speed>0.68</speed>
  <fix>3d</fix>
</trkpt>
<trkpt lat="40.0713285" lon="-105.229926">
  <ele>1583.02</ele>
  <time>2026-08-28T17:50:27Z</time>
  <course>247.28</course>
  <speed>0.6592419889539803</speed>
  <fix>3d</fix>
</trkpt>
<trkpt lat="40.0713286" lon="-105.2299252">
  <ele>1583.0</ele>
  <time>2026-08-28T17:50:27Z</time>
  <course>245.99</course>
  <speed>0.68</speed>
  <fix>3d</fix>
</trkpt>
<trkpt lat="40.0713283" lon="-105.2299267">
  <ele>1583.02</ele>
  <time>2026-08-28T17:50:27Z</time>
  <course>247.28</course>
  <speed>0.6592419889539803</speed>
  <fix>3d</fix>
</trkpt>
<trkpt lat="40.0713286" lon="-105.2299252">
  <ele>1583.0</ele>
  <time>2026-08-28T17:50:27Z</time>
  <course>245.99</course>
  <speed>0.68</speed>
  <fix>3d</fix>
</trkpt>
<trkpt lat="40.071328" lon="-105.2299275">
  <ele>1583.01</ele>
  <time>2026-08-28T17:50:27Z</time>
  <course>247.28</course>
  <speed>0.6592419889539803</speed>
  <fix>3d</fix>
</trkpt>
<trkpt lat="40.0713281" lon="-105.2299267">
  <ele>1583.0</ele>
  <time>2026-08-28T17:50:27Z</time>
  <course>245.99</course>
  <speed>0.68</speed>
  <fix>3d</fix>
</trkpt>
<trkpt lat="40.0713278" lon="-105.2299282">
  <ele>1583.01</ele>
  <time>2026-08-28T17:50:27Z</time>
  <course>247.28</course>
  <speed>0.6592419889539803</speed>
  <fix>3d</fix>
</trkpt>
<trkpt lat="40.0713281" lon="-105.2299267">
  <ele>1583.0</ele>
  <time>2026-08-28T17:50:27Z</time>
  <course>245.99</course>
  <speed>0.68</speed>
  <fix>3d</fix>
</trkpt>
<trkpt lat="40.0713275" lon="-105.229929">
  <ele>1583.01</ele>
  <time>2026-08-28T17:50:27Z</time>
  <course>247.27</course>
  <speed>0.6592419889539803</speed>
  <fix>3d</fix>
</trkpt>
<trkpt lat="40.0713276" lon="-105.2299281">
  <ele>1583.0</ele>
  <time>2026-08-28T17:50:27Z</time>
  <course>245.99</course>
  <speed>0.68</speed>
  <fix>3d</fix>
</trkpt>
<trkpt lat="40.0713273" lon="-105.2299297">
  <ele>1583.01</ele>
  <time>2026-08-28T17:50:27Z</time>
  <course>247.27</course>
  <speed>0.6592419889539803</speed>
  <fix>3d</fix>
</trkpt>
<trkpt lat="40.0713276" lon="-105.2299281">
  <ele>1583.0</ele>
  <time>2026-08-28T17:50:27Z</time>
  <course>245.99</course>
  <speed>0.68</speed>
  <fix>3d</fix>
</trkpt>
<trkpt lat="40.071327" lon="-105.2299304">
  <ele>1583.01</ele>
  <time>2026-08-28T17:50:27Z</time>
  <course>247.27</course>
  <speed>0.6592419889539803</speed>
  <fix>3d</fix>
</trkpt>
<trkpt lat="40.0713271" lon="-105.2299296">
  <ele>1583.0</ele>
  <time>2026-08-28T17:50:27Z</time>
  <course>245.99</course>
  <speed>0.68</speed>
  <fix>3d</fix>
</trkpt>
<trkpt lat="40.0713268" lon="-105.2299312">
  <ele>1583.01</ele>
  <time>2026-08-28T17:50:27Z</time>
  <course>247.27</course>
  <speed>0.6592419889539803</speed>
  <fix>3d</fix>
</trkpt>
<trkpt lat="40.0713271" lon="-105.2299296">
  <ele>1583.0</ele>
  <time>2026-08-28T17:50:27Z</time>
  <course>245.99</course>
  <speed>0.68</speed>
  <fix>3d</fix>
</trkpt>
<trkpt lat="40.0713265" lon="-105.2299319">
  <ele>1583.01</ele>
  <time>2026-08-28T17:50:27Z</time>
  <course>247.27</course>
  <speed>0.6592419889539803</speed>
  <fix>3d</fix>
</trkpt>
<trkpt lat="40.0713266" lon="-105.2299311">
  <ele>1583.0</ele>
  <time>2026-08-28T17:50:27Z</time>
  <course>245.99</course>
  <speed>0.68</speed>
  <fix>3d</fix>
</trkpt>
<trkpt lat="40.0713263" lon="-105.2299327">
  <ele>1583.01</ele>
  <time>2026-08-28T17:50:27Z</time>
  <course>247.27</course>
  <speed>0.6592419889539803</speed>
  <fix>3d</fix>
</trkpt>
<trkpt lat="40.0713266" lon="-105.2299311">
  <ele>1583.0</ele>
  <time>2026-08-28T17:50:27Z</time>
  <course>245.99</course>
  <speed>0.68</speed>
  <fix>3d</fix>
</trkpt>
<trkpt lat="40.071326" lon="-105.2299334">
  <ele>1583.01</ele>
  <time>2026-08-28T17:50:27Z</time>
  <course>247.27</course>
  <speed>0.6592419889539803</speed>
  <fix>3d</fix>
</trkpt>
<trkpt lat="40.0713261" lon="-105.2299326">
  <ele>1583.0</ele>
  <time>2026-08-28T17:50:27Z</time>
  <course>245.99</course>
  <speed>0.68</speed>
  <fix>3d</fix>
</trkpt>
<trkpt lat="40.0713258" lon="-105.2299341">
  <ele>1583.01</ele>
  <time>2026-08-28T17:50:27Z</time>
  <course>247.27</course>
  <speed>0.6592419889539803</speed>
  <fix>3d</fix>
</trkpt>
<trkpt lat="40.0713261" lon="-105.2299326">
  <ele>1583.0</ele>
  <time>2026-08-28T17:50:27Z</time>
  <course>245.99</course>
  <speed>0.68</speed>
  <fix>3d</fix>
</trkpt>
<trkpt lat="40.0713255" lon="-105.2299349">
  <ele>1583.01</ele>
  <time>2026-08-28T17:50:27Z</time>
  <course>247.26</course>
  <speed>0.6592419889539803</speed>
  <fix>3d</fix>
</trkpt>
<trkpt lat="40.0713261" lon="-105.2299326">
  <ele>1583.0</ele>
  <time>2026-08-28T17:50:27Z</time>
  <course>245.99</course>
  <speed>0.68</speed>
  <fix>3d</fix>
</trkpt>
<trkpt lat="40.0713253" lon="-105.2299356">
  <ele>1583.01</ele>
  <time>2026-08-28T17:50:27Z</time>
  <course>247.26</course>
  <speed>0.6592419889539803</speed>
  <fix>3d</fix>
</trkpt>
<trkpt lat="40.0713256" lon="-105.229934">
  <ele>1583.0</ele>
  <time>2026-08-28T17:50:27Z</time>
  <course>245.99</course>
  <speed>0.68</speed>
  <fix>3d</fix>
</trkpt>
<trkpt lat="40.071325" lon="-105.2299363">
  <ele>1583.0</ele>
  <time>2026-08-28T17:50:27Z</time>
  <course>247.26</course>
  <speed>0.6592419889539803</speed>
  <fix>3d</fix>
</trkpt>
<trkpt lat="40.0713256" lon="-105.229934">
  <ele>1583.0</ele>
  <time>2026-08-28T17:50:27Z</time>
  <course>245.99</course>
  <speed>0.68</speed>
  <fix>3d</fix>
</trkpt>
<trkpt lat="40.0713248" lon="-105.2299371">
  <ele>1583.0</ele>
  <time>2026-08-28T17:50:27Z</time>
  <course>247.26</course>
  <speed>0.6592419889539803</speed>
  <fix>3d</fix>
</trkpt>
<trkpt lat="40.0713251" lon="-105.2299355">
  <ele>1583.0</ele>
  <time>2026-08-28T17:50:27Z</time>
  <course>245.99</course>
  <speed>0.68</speed>
  <fix>3d</fix>
</trkpt>
<trkpt lat="40.0713245" lon="-105.2299378">
  <ele>1583.0</ele>
  <time>2026-08-28T17:50:27Z</time>
  <course>247.26</course>
  <speed>0.6592419889539803</speed>
  <fix>3d</fix>
</trkpt>
<trkpt lat="40.0713251" lon="-105.2299355">
  <ele>1583.0</ele>
  <time>2026-08-28T17:50:27Z</time>
  <course>245.99</course>
  <speed>0.68</speed>
  <fix>3d</fix>
</trkpt>
<trkpt lat="40.0713243" lon="-105.2299385">
  <ele>1583.0</ele>
  <time>2026-08-28T17:50:27Z</time>
  <course>247.26</course>
  <speed>0.6592419889539803</speed>
  <fix>3d</fix>
</trkpt>
<trkpt lat="40.0713246" lon="-105.229937">
  <ele>1583.0</ele>
  <time>2026-08-28T17:50:27Z</time>
  <course>245.99</course>
  <speed>0.68</speed>
  <fix>3d</fix>
</trkpt>
<trkpt lat="40.071324" lon="-105.2299393">
  <ele>1583.0</ele>
  <time>2026-08-28T17:50:27Z</time>
  <course>247.26</course>
  <speed>0.6592419889539803</speed>
  <fix>3d</fix>
</trkpt>
<trkpt lat="40.0713241" lon="-105.2299385">
  <ele>1583.0</ele>
  <time>2026-08-28T17:50:27Z</time>
  <course>245.99</course>
  <speed>0.68</speed>
  <fix>3d</fix>
</trkpt>
<trkpt lat="40.0713238" lon="-105.22994">
  <ele>1582.99</ele>
  <time>2026-08-28T17:50:27Z</time>
  <course>247.26</course>
  <speed>0.6592419889539803</speed>
  <fix>3d</fix>
</trkpt>
<trkpt lat="40.0713241" lon="-105.2299385">
  <ele>1583.0</ele>
  <time>2026-08-28T17:50:27Z</time>
  <course>245.99</course>
  <speed>0.68</speed>
  <fix>3d</fix>
</trkpt>
<trkpt lat="40.0713235" lon="-105.2299407">
  <ele>1582.99</ele>
  <time>2026-08-28T17:50:27Z</time>
  <course>247.26</course>
  <speed>0.6592419889539803</speed>
  <fix>3d</fix>
</trkpt>
<trkpt lat="40.0713236" lon="-105.2299399">
  <ele>1583.0</ele>
  <time>2026-08-28T17:50:27Z</time>
  <course>245.99</course>
  <speed>0.68</speed>
  <fix>3d</fix>
</trkpt>
<trkpt lat="40.0713233" lon="-105.2299415">
  <ele>1582.99</ele>
  <time>2026-08-28T17:50:27Z</time>
  <course>247.26</course>
  <speed>0.6592419889539803</speed>
  <fix>3d</fix>
</trkpt>
<trkpt lat="40.0713236" lon="-105.2299399">
  <ele>1583.0</ele>
  <time>2026-08-28T17:50:27Z</time>
  <course>245.99</course>
  <speed>0.68</speed>
  <fix>3d</fix>
</trkpt>
<trkpt lat="40.071323" lon="-105.2299422">
  <ele>1582.98</ele>
  <time>2026-08-28T17:50:27Z</time>
  <course>247.25</course>
  <speed>0.6592419889539803</speed>
  <fix>3d</fix>
</trkpt>
<trkpt lat="40.071323" lon="-105.2299414">
  <ele>1583.0</ele>
  <time>2026-08-28T17:50:27Z</time>
  <course>245.99</course>
  <speed>0.68</speed>
  <fix>3d</fix>
</trkpt>
<trkpt lat="40.0713228" lon="-105.2299429">
  <ele>1582.98</ele>
  <time>2026-08-28T17:50:27Z</time>
  <course>247.25</course>
  <speed>0.6592419889539803</speed>
  <fix>3d</fix>
</trkpt>
<trkpt lat="40.071323" lon="-105.2299414">
  <ele>1583.0</ele>
  <time>2026-08-28T17:50:27Z</time>
  <course>245.99</course>
  <speed>0.68</speed>
  <fix>3d</fix>
</trkpt>
<trkpt lat="40.0713225" lon="-105.2299437">
  <ele>1582.98</ele>
  <time>2026-08-28T17:50:27Z</time>
  <course>247.25</course>
  <speed>0.6592419889539803</speed>
  <fix>3d</fix>
</trkpt>
<trkpt lat="40.0713225" lon="-105.2299429">
  <ele>1583.0</ele>
  <time>2026-08-28T17:50:27Z</time>
  <course>245.99</course>
  <speed>0.68</speed>
  <fix>3d</fix>
</trkpt>
<trkpt lat="40.0713222" lon="-105.2299444">
  <ele>1582.98</ele>
  <time>2026-08-28T17:50:27Z</time>
  <course>247.25</course>
  <speed>0.6592419889539803</speed>
  <fix>3d</fix>
</trkpt>
<trkpt lat="40.0713225" lon="-105.2299429">
  <ele>1583.0</ele>
  <time>2026-08-28T17:50:27Z</time>
  <course>245.99</course>
  <speed>0.68</speed>
  <fix>3d</fix>
</trkpt>
<trkpt lat="40.071322" lon="-105.2299452">
  <ele>1582.98</ele>
  <time>2026-08-28T17:50:27Z</time>
  <course>247.25</course>
  <speed>0.6592419889539803</speed>
  <fix>3d</fix>
</trkpt>
<trkpt lat="40.071322" lon="-105.2299443">
  <ele>1583.0</ele>
  <time>2026-08-28T17:50:27Z</time>
  <course>245.99</course>
  <speed>0.68</speed>
  <fix>3d</fix>
</trkpt>
<trkpt lat="40.0713217" lon="-105.2299459">
  <ele>1582.98</ele>
  <time>2026-08-28T17:50:27Z</time>
  <course>247.25</course>
  <speed>0.6592419889539803</speed>
  <fix>3d</fix>
</trkpt>
<trkpt lat="40.071322" lon="-105.2299443">
  <ele>1583.0</ele>
  <time>2026-08-28T17:50:27Z</time>
  <course>245.99</course>
  <speed>0.68</speed>
  <fix>3d</fix>
</trkpt>
<trkpt lat="40.0713215" lon="-105.2299466">
  <ele>1582.98</ele>
  <time>2026-08-28T17:50:27Z</time>
  <course>247.25</course>
  <speed>0.6592419889539803</speed>
  <fix>3d</fix>
</trkpt>
<trkpt lat="40.0713215" lon="-105.2299458">
  <ele>1583.0</ele>
  <time>2026-08-28T17:50:27Z</time>
  <course>245.99</course>
  <speed>0.68</speed>
  <fix>3d</fix>
</trkpt>
<trkpt lat="40.0713212" lon="-105.2299474">
  <ele>1582.97</ele>
  <time>2026-08-28T17:50:27Z</time>
  <course>247.25</course>
  <speed>0.6592419889539803</speed>
  <fix>3d</fix>
</trkpt>
<trkpt lat="40.0713215" lon="-105.2299458">
  <ele>1583.0</ele>
  <time>2026-08-28T17:50:27Z</time>
  <course>245.99</course>
  <speed>0.68</speed>
  <fix>3d</fix>
</trkpt>
<trkpt lat="40.071321" lon="-105.2299481">
  <ele>1582.98</ele>
  <time>2026-08-28T17:50:27Z</time>
  <course>247.25</course>
  <speed>0.6592419889539803</speed>
  <fix>3d</fix>
</trkpt>
<trkpt lat="40.071321" lon="-105.2299472">
  <ele>1583.0</ele>
  <time>2026-08-28T17:50:27Z</time>
  <course>245.99</course>
  <speed>0.68</speed>
  <fix>3d</fix>
</trkpt>
<trkpt lat="40.0713207" lon="-105.2299488">
  <ele>1582.98</ele>
  <time>2026-08-28T17:50:27Z</time>
  <course>247.24</course>
  <speed>0.6592419889539803</speed>
  <fix>3d</fix>
</trkpt>
<trkpt lat="40.071321" lon="-105.2299472">
  <ele>1583.0</ele>
  <time>2026-08-28T17:50:27Z</time>
  <course>245.99</course>
  <speed>0.68</speed>
  <fix>3d</fix>
</trkpt>
<trkpt lat="40.0713204" lon="-105.2299496">
  <ele>1582.98</ele>
  <time>2026-08-28T17:50:27Z</time>
  <course>247.24</course>
  <speed>0.6592419889539803</speed>
  <fix>3d</fix>
</trkpt>
<trkpt lat="40.071321" lon="-105.2299472">
  <ele>1583.0</ele>
  <time>2026-08-28T17:50:27Z</time>
  <course>245.99</course>
  <speed>0.68</speed>
  <fix>3d</fix>
</trkpt>
<trkpt lat="40.0713202" lon="-105.2299503">
  <ele>1582.98</ele>
  <time>2026-08-28T17:50:27Z</time>
  <course>247.24</course>
  <speed>0.6592419889539803</speed>
  <fix>3d</fix>
</trkpt>
<trkpt lat="40.0713205" lon="-105.2299487">
  <ele>1583.0</ele>
  <time>2026-08-28T17:50:27Z</time>
  <course>245.99</course>
  <speed>0.68</speed>
  <fix>3d</fix>
</trkpt>
<trkpt lat="40.0713199" lon="-105.229951">
  <ele>1582.98</ele>
  <time>2026-08-28T17:50:27Z</time>
  <course>247.24</course>
  <speed>0.6592419889539803</speed>
  <fix>3d</fix>
</trkpt>
<trkpt lat="40.0713205" lon="-105.2299487">
  <ele>1583.0</ele>
  <time>2026-08-28T17:50:27Z</time>
  <course>245.99</course>
  <speed>0.68</speed>
  <fix>3d</fix>
</trkpt>
<trkpt lat="40.0713197" lon="-105.2299518">
  <ele>1582.99</ele>
  <time>2026-08-28T17:50:27Z</time>
  <course>247.24</course>
  <speed>0.6592419889539803</speed>
  <fix>3d</fix>
</trkpt>
<trkpt lat="40.07132" lon="-105.2299502">
  <ele>1583.0</ele>
  <time>2026-08-28T17:50:27Z</time>
  <course>245.99</course>
  <speed>0.68</speed>
  <fix>3d</fix>
</trkpt>
<trkpt lat="40.0713194" lon="-105.2299525">
  <ele>1582.99</ele>
  <time>2026-08-28T17:50:27Z</time>
  <course>247.24</course>
  <speed>0.6592419889539803</speed>
  <fix>3d</fix>
</trkpt>
<trkpt lat="40.07132" lon="-105.2299502">
  <ele>1583.0</ele>
  <time>2026-08-28T17:50:27Z</time>
  <course>245.99</course>
  <speed>0.68</speed>
  <fix>3d</fix>
</trkpt>
<trkpt lat="40.0713192" lon="-105.2299532">
  <ele>1582.99</ele>
  <time>2026-08-28T17:50:27Z</time>
  <course>247.24</course>
  <speed>0.6592419889539803</speed>
  <fix>3d</fix>
</trkpt>
<trkpt lat="40.0713195" lon="-105.2299517">
  <ele>1583.0</ele>
  <time>2026-08-28T17:50:27Z</time>
  <course>245.99</course>
  <speed>0.68</speed>
  <fix>3d</fix>
</trkpt>
<trkpt lat="40.0713189" lon="-105.2299539">
  <ele>1583.0</ele>
  <time>2026-08-28T17:50:27Z</time>
  <course>247.24</course>
  <speed>0.6592419889539803</speed>
  <fix>3d</fix>
</trkpt>
<trkpt lat="40.0713195" lon="-105.2299517">
  <ele>1583.0</ele>
  <time>2026-08-28T17:50:27Z</time>
  <course>245.99</course>
  <speed>0.68</speed>
  <fix>3d</fix>
</trkpt>
<trkpt lat="40.0713187" lon="-105.2299547">
  <ele>1583.0</ele>
  <time>2026-08-28T17:50:27Z</time>
  <course>247.24</course>
  <speed>0.6592419889539803</speed>
  <fix>3d</fix>
</trkpt>
<trkpt lat="40.071319" lon="-105.2299531">
  <ele>1583.0</ele>
  <time>2026-08-28T17:50:27Z</time>
  <course>245.99</course>
  <speed>0.68</speed>
  <fix>3d</fix>
</trkpt>
<trkpt lat="40.0713184" lon="-105.2299554">
  <ele>1583.0</ele>
  <time>2026-08-28T17:50:27Z</time>
  <course>247.24</course>
  <speed>0.6592419889539803</speed>
  <fix>3d</fix>
</trkpt>
<trkpt lat="40.0713185" lon="-105.2299546">
  <ele>1583.0</ele>
  <time>2026-08-28T17:50:27Z</time>
  <course>245.99</course>
  <speed>0.68</speed>
  <fix>3d</fix>
</trkpt>
<trkpt lat="40.0713182" lon="-105.2299561">
  <ele>1583.0</ele>
  <time>2026-08-28T17:50:27Z</time>
  <course>247.24</course>
  <speed>0.6592419889539803</speed>
  <fix>3d</fix>
</trkpt>
<trkpt lat="40.0713185" lon="-105.2299546">
  <ele>1583.0</ele>
  <time>2026-08-28T17:50:27Z</time>
  <course>245.99</course>
  <speed>0.68</speed>
  <fix>3d</fix>
</trkpt>
<trkpt lat="40.0713179" lon="-105.2299569">
  <ele>1583.0</ele>
  <time>2026-08-28T17:50:27Z</time>
  <course>247.23</course>
  <speed>0.6592419889539803</speed>
  <fix>3d</fix>
</trkpt>
<trkpt lat="40.071318" lon="-105.2299561">
  <ele>1583.0</ele>
  <time>2026-08-28T17:50:27Z</time>
  <course>245.99</course>
  <speed>0.68</speed>
  <fix>3d</fix>
</trkpt>
<trkpt lat="40.0713177" lon="-105.2299576">
  <ele>1583.0</ele>
  <time>2026-08-28T17:50:27Z</time>
  <course>247.23</course>
  <speed>0.6592419889539803</speed>
  <fix>3d</fix>
</trkpt>
<trkpt lat="40.071318" lon="-105.2299561">
  <ele>1583.0</ele>
  <time>2026-08-28T17:50:27Z</time>
  <course>245.99</course>
  <speed>0.68</speed>
  <fix>3d</fix>
</trkpt>
<trkpt lat="40.0713174" lon="-105.2299583">
  <ele>1583.0</ele>
  <time>2026-08-28T17:50:27Z</time>
  <course>247.23</course>
  <speed>0.6592419889539803</speed>
  <fix>3d</fix>
</trkpt>
<trkpt lat="40.0713175" lon="-105.2299575">
  <ele>1583.0</ele>
  <time>2026-08-28T17:50:27Z</time>
  <course>245.99</course>
  <speed>0.68</speed>
  <fix>3d</fix>
</trkpt>
<trkpt lat="40.0713172" lon="-105.2299591">
  <ele>1583.0</ele>
  <time>2026-08-28T17:50:27Z</time>
  <course>247.23</course>
  <speed>0.6592419889539803</speed>
  <fix>3d</fix>
</trkpt>
<trkpt lat="40.0713175" lon="-105.2299575">
  <ele>1583.0</ele>
  <time>2026-08-28T17:50:27Z</time>
  <course>245.99</course>
  <speed>0.68</speed>
  <fix>3d</fix>
</trkpt>
<trkpt lat="40.0713169" lon="-105.2299598">
  <ele>1583.0</ele>
  <time>2026-08-28T17:50:27Z</time>
  <course>247.23</course>
  <speed>0.6592419889539803</speed>
  <fix>3d</fix>
</trkpt>
<trkpt lat="40.071317" lon="-105.229959">
  <ele>1583.0</ele>
  <time>2026-08-28T17:50:27Z</time>
  <course>245.99</course>
  <speed>0.68</speed>
  <fix>3d</fix>
</trkpt>
<trkpt lat="40.0713166" lon="-105.2299606">
  <ele>1583.01</ele>
  <time>2026-08-28T17:50:27Z</time>
  <course>247.23</course>
  <speed>0.6592419889539803</speed>
  <fix>3d</fix>
</trkpt>
<trkpt lat="40.071317" lon="-105.229959">
  <ele>1583.0</ele>
  <time>2026-08-28T17:50:27Z</time>
  <course>245.99</course>
  <speed>0.68</speed>
  <fix>3d</fix>
</trkpt>
<trkpt lat="40.0713164" lon="-105.2299613">
  <ele>1583.01</ele>
  <time>2026-08-28T17:50:27Z</time>
  <course>247.23</course>
  <speed>0.6592419889539803</speed>
  <fix>3d</fix>
</trkpt>
<trkpt lat="40.0713165" lon="-105.2299605">
  <ele>1583.0</ele>
  <time>2026-08-28T17:50:27Z</time>
  <course>245.99</course>
  <speed>0.68</speed>
  <fix>3d</fix>
</trkpt>
<trkpt lat="40.0713161" lon="-105.229962">
  <ele>1583.01</ele>
  <time>2026-08-28T17:50:27Z</time>
  <course>247.23</course>
  <speed>0.6592419889539803</speed>
  <fix>3d</fix>
</trkpt>
<trkpt lat="40.0713165" lon="-105.2299605">
  <ele>1583.0</ele>
  <time>2026-08-28T17:50:27Z</time>
  <course>245.99</course>
  <speed>0.68</speed>
  <fix>3d</fix>
</trkpt>
<trkpt lat="40.0713159" lon="-105.2299628">
  <ele>1583.01</ele>
  <time>2026-08-28T17:50:27Z</time>
  <course>247.23</course>
  <speed>0.6592419889539803</speed>
  <fix>3d</fix>
</trkpt>
<trkpt lat="40.071316" lon="-105.229962">
  <ele>1583.0</ele>
  <time>2026-08-28T17:50:27Z</time>
  <course>245.99</course>
  <speed>0.68</speed>
  <fix>3d</fix>
</trkpt>
<trkpt lat="40.0713156" lon="-105.2299635">
  <ele>1583.01</ele>
  <time>2026-08-28T17:50:27Z</time>
  <course>247.23</course>
  <speed>0.6592419889539803</speed>
  <fix>3d</fix>
</trkpt>
<trkpt lat="40.071316" lon="-105.229962">
  <ele>1583.0</ele>
  <time>2026-08-28T17:50:27Z</time>
  <course>245.99</course>
  <speed>0.68</speed>
  <fix>3d</fix>
</trkpt>
<trkpt lat="40.0713154" lon="-105.2299643">
  <ele>1583.01</ele>
  <time>2026-08-28T17:50:27Z</time>
  <course>247.23</course>
  <speed>0.6592419889539803</speed>
  <fix>3d</fix>
</trkpt>
<trkpt lat="40.0713155" lon="-105.2299634">
  <ele>1583.0</ele>
  <time>2026-08-28T17:50:27Z</time>
  <course>245.99</course>
  <speed>0.68</speed>
  <fix>3d</fix>
</trkpt>
<trkpt lat="40.0713151" lon="-105.229965">
  <ele>1583.01</ele>
  <time>2026-08-28T17:50:27Z</time>
  <course>247.22</course>
  <speed>0.6592419889539803</speed>
  <fix>3d</fix>
</trkpt>
<trkpt lat="40.0713155" lon="-105.2299634">
  <ele>1583.0</ele>
  <time>2026-08-28T17:50:27Z</time>
  <course>245.99</course>
  <speed>0.68</speed>
  <fix>3d</fix>
</trkpt>
<trkpt lat="40.0713149" lon="-105.2299657">
  <ele>1583.02</ele>
  <time>2026-08-28T17:50:27Z</time>
  <course>247.22</course>
  <speed>0.6592419889539803</speed>
  <fix>3d</fix>
</trkpt>
<trkpt lat="40.0713155" lon="-105.2299634">
  <ele>1583.0</ele>
  <time>2026-08-28T17:50:27Z</time>
  <course>245.99</course>
  <speed>0.68</speed>
  <fix>3d</fix>
</trkpt>
<trkpt lat="40.0713146" lon="-105.2299665">
  <ele>1583.02</ele>
  <time>2026-08-28T17:50:27Z</time>
  <course>247.22</course>
  <speed>0.6592419889539803</speed>
  <fix>3d</fix>
</trkpt>
<trkpt lat="40.071315" lon="-105.2299649">
  <ele>1583.0</ele>
  <time>2026-08-28T17:50:27Z</time>
  <course>245.99</course>
  <speed>0.68</speed>
  <fix>3d</fix>
</trkpt>
<trkpt lat="40.0713144" lon="-105.2299672">
  <ele>1583.02</ele>
  <time>2026-08-28T17:50:27Z</time>
  <course>247.22</course>
  <speed>0.6592419889539803</speed>
  <fix>3d</fix>
</trkpt>
<trkpt lat="40.071315" lon="-105.2299649">
  <ele>1583.0</ele>
  <time>2026-08-28T17:50:27Z</time>
  <course>245.99</course>
  <speed>0.68</speed>
  <fix>3d</fix>
</trkpt>
<trkpt lat="40.0713141" lon="-105.2299679">
  <ele>1583.02</ele>
  <time>2026-08-28T17:50:27Z</time>
  <course>247.22</course>
  <speed>0.6592419889539803</speed>
  <fix>3d</fix>
</trkpt>
<trkpt lat="40.0713145" lon="-105.2299664">
  <ele>1583.0</ele>
  <time>2026-08-28T17:50:27Z</time>
  <course>245.99</course>
  <speed>0.68</speed>
  <fix>3d</fix>
</trkpt>
<trkpt lat="40.0713139" lon="-105.2299686">
  <ele>1583.02</ele>
  <time>2026-08-28T17:50:27Z</time>
  <course>247.22</course>
  <speed>0.6592419889539803</speed>
  <fix>3d</fix>
</trkpt>
<trkpt lat="40.0713145" lon="-105.2299664">
  <ele>1583.0</ele>
  <time>2026-08-28T17:50:27Z</time>
  <course>245.99</course>
  <speed>0.68</speed>
  <fix>3d</fix>
</trkpt>
<trkpt lat="40.0713136" lon="-105.2299694">
  <ele>1583.02</ele>
  <time>2026-08-28T17:50:27Z</time>
  <course>247.22</course>
  <speed>0.6592419889539803</speed>
  <fix>3d</fix>
</trkpt>
<trkpt lat="40.071314" lon="-105.2299678">
  <ele>1583.0</ele>
  <time>2026-08-28T17:50:27Z</time>
  <course>245.99</course>
  <speed>0.68</speed>
  <fix>3d</fix>
</trkpt>
<trkpt lat="40.0713134" lon="-105.2299701">
  <ele>1583.02</ele>
  <time>2026-08-28T17:50:27Z</time>
  <course>247.22</course>
  <speed>0.6592419889539803</speed>
  <fix>3d</fix>
</trkpt>
<trkpt lat="40.0713135" lon="-105.2299693">
  <ele>1583.0</ele>
  <time>2026-08-28T17:50:27Z</time>
  <course>245.99</course>
  <speed>0.68</speed>
  <fix>3d</fix>
</trkpt>
<trkpt lat="40.0713131" lon="-105.2299708">
  <ele>1583.02</ele>
  <time>2026-08-28T17:50:27Z</time>
  <course>247.22</course>
  <speed>0.6592419889539803</speed>
  <fix>3d</fix>
</trkpt>
<trkpt lat="40.0713135" lon="-105.2299693">
  <ele>1583.0</ele>
  <time>2026-08-28T17:50:27Z</time>
  <course>245.99</course>
  <speed>0.68</speed>
  <fix>3d</fix>
</trkpt>
<trkpt lat="40.0713129" lon="-105.2299716">
  <ele>1583.01</ele>
  <time>2026-08-28T17:50:27Z</time>
  <course>247.22</course>
  <speed>0.6592419889539803</speed>
  <fix>3d</fix>
</trkpt>
<trkpt lat="40.071313" lon="-105.2299708">
  <ele>1583.0</ele>
  <time>2026-08-28T17:50:27Z</time>
  <course>245.99</course>
  <speed>0.68</speed>
  <fix>3d</fix>
</trkpt>
<trkpt lat="40.0713126" lon="-105.2299723">
  <ele>1583.01</ele>
  <time>2026-08-28T17:50:27Z</time>
  <course>247.22</course>
  <speed>0.6592419889539803</speed>
  <fix>3d</fix>
</trkpt>
<trkpt lat="40.071313" lon="-105.2299708">
  <ele>1583.0</ele>
  <time>2026-08-28T17:50:27Z</time>
  <course>245.99</course>
  <speed>0.68</speed>
  <fix>3d</fix>
</trkpt>
<trkpt lat="40.0713124" lon="-105.229973">
  <ele>1583.01</ele>
  <time>2026-08-28T17:50:27Z</time>
  <course>247.21</course>
  <speed>0.6592419889539803</speed>
  <fix>3d</fix>
</trkpt>
<trkpt lat="40.0713125" lon="-105.2299723">
  <ele>1583.0</ele>
  <time>2026-08-28T17:50:27Z</time>
  <course>245.99</course>
  <speed>0.68</speed>
  <fix>3d</fix>
</trkpt>
<trkpt lat="40.0713121" lon="-105.2299738">
  <ele>1583.01</ele>
  <time>2026-08-28T17:50:27Z</time>
  <course>247.21</course>
  <speed>0.6592419889539803</speed>
  <fix>3d</fix>
</trkpt>
<trkpt lat="40.0713125" lon="-105.2299723">
  <ele>1583.0</ele>
  <time>2026-08-28T17:50:27Z</time>
  <course>245.99</course>
  <speed>0.68</speed>
  <fix>3d</fix>
</trkpt>
<trkpt lat="40.0713119" lon="-105.2299745">
  <ele>1583.0</ele>
  <time>2026-08-28T17:50:27Z</time>
  <course>247.21</course>
  <speed>0.6592419889539803</speed>
  <fix>3d</fix>
</trkpt>
<trkpt lat="40.071312" lon="-105.2299737">
  <ele>1583.0</ele>
  <time>2026-08-28T17:50:27Z</time>
  <course>245.99</course>
  <speed>0.68</speed>
  <fix>3d</fix>
</trkpt>
<trkpt lat="40.0713116" lon="-105.2299753">
  <ele>1583.0</ele>
  <time>2026-08-28T17:50:27Z</time>
  <course>247.21</course>
  <speed>0.6592419889539803</speed>
  <fix>3d</fix>
</trkpt>
<trkpt lat="40.071312" lon="-105.2299737">
  <ele>1583.0</ele>
  <time>2026-08-28T17:50:27Z</time>
  <course>245.99</course>
  <speed>0.68</speed>
  <fix>3d</fix>
</trkpt>
<trkpt lat="40.0713114" lon="-105.229976">
  <ele>1583.0</ele>
  <time>2026-08-28T17:50:27Z</time>
  <course>247.21</course>
  <speed>0.6592419889539803</speed>
  <fix>3d</fix>
</trkpt>
<trkpt lat="40.0713115" lon="-105.2299752">
  <ele>1583.0</ele>
  <time>2026-08-28T17:50:27Z</time>
  <course>245.99</course>
  <speed>0.68</speed>
  <fix>3d</fix>
</trkpt>
<trkpt lat="40.0713111" lon="-105.2299768">
  <ele>1583.0</ele>
  <time>2026-08-28T17:50:27Z</time>
  <course>247.21</course>
  <speed>0.6592419889539803</speed>
  <fix>3d</fix>
</trkpt>
<trkpt lat="40.0713115" lon="-105.2299752">
  <ele>1583.0</ele>
  <time>2026-08-28T17:50:27Z</time>
  <course>245.99</course>
  <speed>0.68</speed>
  <fix>3d</fix>
</trkpt>
<trkpt lat="40.0713109" lon="-105.2299775">
  <ele>1582.99</ele>
  <time>2026-08-28T17:50:27Z</time>
  <course>247.21</course>
  <speed>0.6592419889539803</speed>
  <fix>3d</fix>
</trkpt>
<trkpt lat="40.071311" lon="-105.2299767">
  <ele>1583.0</ele>
  <time>2026-08-28T17:50:27Z</time>
  <course>245.99</course>
  <speed>0.68</speed>
  <fix>3d</fix>
</trkpt>
<trkpt lat="40.0713106" lon="-105.2299782">
  <ele>1582.99</ele>
  <time>2026-08-28T17:50:27Z</time>
  <course>247.21</course>
  <speed>0.6592419889539803</speed>
  <fix>3d</fix>
</trkpt>
<trkpt lat="40.071311" lon="-105.2299767">
  <ele>1583.0</ele>
  <time>2026-08-28T17:50:27Z</time>
  <course>245.99</course>
  <speed>0.68</speed>
  <fix>3d</fix>
</trkpt>
<trkpt lat="40.0713104" lon="-105.229979">
  <ele>1582.99</ele>
  <time>2026-08-28T17:50:27Z</time>
  <course>247.21</course>
  <speed>0.6592419889539803</speed>
  <fix>3d</fix>
</trkpt>
<trkpt lat="40.0713105" lon="-105.2299781">
  <ele>1583.0</ele>
  <time>2026-08-28T17:50:27Z</time>
  <course>245.99</course>
  <speed>0.68</speed>
  <fix>3d</fix>
</trkpt>
<trkpt lat="40.0713101" lon="-105.2299797">
  <ele>1582.99</ele>
  <time>2026-08-28T17:50:27Z</time>
  <course>247.21</course>
  <speed>0.6592419889539803</speed>
  <fix>3d</fix>
</trkpt>
<trkpt lat="40.0713105" lon="-105.2299781">
  <ele>1583.0</ele>
  <time>2026-08-28T17:50:27Z</time>
  <course>245.99</course>
  <speed>0.68</speed>
  <fix>3d</fix>
</trkpt>
<trkpt lat="40.0713099" lon="-105.2299805">
  <ele>1582.99</ele>
  <time>2026-08-28T17:50:27Z</time>
  <course>247.21</course>
  <speed>0.6592419889539803</speed>
  <fix>3d</fix>
</trkpt>
<trkpt lat="40.0713105" lon="-105.2299781">
  <ele>1583.0</ele>
  <time>2026-08-28T17:50:27Z</time>
  <course>245.99</course>
  <speed>0.68</speed>
  <fix>3d</fix>
</trkpt>
<trkpt lat="40.0713096" lon="-105.2299812">
  <ele>1582.99</ele>
  <time>2026-08-28T17:50:27Z</time>
  <course>247.21</course>
  <speed>0.6592419889539803</speed>
  <fix>3d</fix>
</trkpt>
<trkpt lat="40.07131" lon="-105.2299796">
  <ele>1583.0</ele>
  <time>2026-08-28T17:50:27Z</time>
  <course>245.99</course>
  <speed>0.68</speed>
  <fix>3d</fix>
</trkpt>
<trkpt lat="40.0713094" lon="-105.2299819">
  <ele>1582.99</ele>
  <time>2026-08-28T17:50:27Z</time>
  <course>247.2</course>
  <speed>0.6592419889539803</speed>
  <fix>3d</fix>
</trkpt>
<trkpt lat="40.07131" lon="-105.2299796">
  <ele>1583.0</ele>
  <time>2026-08-28T17:50:27Z</time>
  <course>245.99</course>
  <speed>0.68</speed>
  <fix>3d</fix>
</trkpt>
<trkpt lat="40.0713092" lon="-105.2299826">
  <ele>1582.99</ele>
  <time>2026-08-28T17:50:27Z</time>
  <course>247.2</course>
  <speed>0.6592419889539803</speed>
  <fix>3d</fix>
</trkpt>
<trkpt lat="40.0713095" lon="-105.2299811">
  <ele>1583.0</ele>
  <time>2026-08-28T17:50:27Z</time>
  <course>245.99</course>
  <speed>0.68</speed>
  <fix>3d</fix>
</trkpt>
<trkpt lat="40.0713089" lon="-105.2299834">
  <ele>1582.99</ele>
  <time>2026-08-28T17:50:27Z</time>
  <course>247.2</course>
  <speed>0.6592419889539803</speed>
  <fix>3d</fix>
</trkpt>
<trkpt lat="40.0713095" lon="-105.2299811">
  <ele>1583.0</ele>
  <time>2026-08-28T17:50:27Z</time>
  <course>245.99</course>
  <speed>0.68</speed>
  <fix>3d</fix>
</trkpt>
<trkpt lat="40.0713087" lon="-105.2299841">
  <ele>1582.99</ele>
  <time>2026-08-28T17:50:27Z</time>
  <course>247.2</course>
  <speed>0.6592419889539803</speed>
  <fix>3d</fix>
</trkpt>
<trkpt lat="40.071309" lon="-105.2299826">
  <ele>1583.0</ele>
  <time>2026-08-28T17:50:27Z</time>
  <course>245.99</course>
  <speed>0.68</speed>
  <fix>3d</fix>
</trkpt>
<trkpt lat="40.0713084" lon="-105.2299848">
  <ele>1582.99</ele>
  <time>2026-08-28T17:50:27Z</time>
  <course>247.2</course>
  <speed>0.6592419889539803</speed>
  <fix>3d</fix>
</trkpt>
<trkpt lat="40.071309" lon="-105.2299826">
  <ele>1583.0</ele>
  <time>2026-08-28T17:50:27Z</time>
  <course>245.99</course>
  <speed>0.68</speed>
  <fix>3d</fix>
</trkpt>
<trkpt lat="40.0713082" lon="-105.2299856">
  <ele>1582.99</ele>
  <time>2026-08-28T17:50:27Z</time>
  <course>247.2</course>
  <speed>0.6592419889539803</speed>
  <fix>3d</fix>
</trkpt>
<trkpt lat="40.0713085" lon="-105.229984">
  <ele>1583.0</ele>
  <time>2026-08-28T17:50:27Z</time>
  <course>245.99</course>
  <speed>0.68</speed>
  <fix>3d</fix>
</trkpt>
<trkpt lat="40.0713079" lon="-105.2299863">
  <ele>1582.99</ele>
  <time>2026-08-28T17:50:27Z</time>
  <course>247.2</course>
  <speed>0.6592419889539803</speed>
  <fix>3d</fix>
</trkpt>
<trkpt lat="40.071308" lon="-105.2299855">
  <ele>1583.0</ele>
  <time>2026-08-28T17:50:27Z</time>
  <course>245.99</course>
  <speed>0.68</speed>
  <fix>3d</fix>
</trkpt>
<trkpt lat="40.0713077" lon="-105.229987">
  <ele>1583.0</ele>
  <time>2026-08-28T17:50:27Z</time>
  <course>247.2</course>
  <speed>0.6592419889539803</speed>
  <fix>3d</fix>
</trkpt>
<trkpt lat="40.071308" lon="-105.2299855">
  <ele>1583.0</ele>
  <time>2026-08-28T17:50:27Z</time>
  <course>245.99</course>
  <speed>0.68</speed>
  <fix>3d</fix>
</trkpt>
<trkpt lat="40.0713074" lon="-105.2299878">
  <ele>1583.0</ele>
  <time>2026-08-28T17:50:27Z</time>
  <course>247.2</course>
  <speed>0.6592419889539803</speed>
  <fix>3d</fix>
</trkpt>
<trkpt lat="40.0713075" lon="-105.229987">
  <ele>1583.0</ele>
  <time>2026-08-28T17:50:27Z</time>
  <course>245.99</course>
  <speed>0.68</speed>
  <fix>3d</fix>
</trkpt>
<trkpt lat="40.0713072" lon="-105.2299885">
  <ele>1582.99</ele>
  <time>2026-08-28T17:50:27Z</time>
  <course>247.2</course>
  <speed>0.6592419889539803</speed>
  <fix>3d</fix>
</trkpt>
<trkpt lat="40.0713075" lon="-105.229987">
  <ele>1583.0</ele>
  <time>2026-08-28T17:50:27Z</time>
  <course>245.99</course>
  <speed>0.68</speed>
  <fix>3d</fix>
</trkpt>
<trkpt lat="40.0713069" lon="-105.2299892">
  <ele>1582.99</ele>
  <time>2026-08-28T17:50:27Z</time>
  <course>247.2</course>
  <speed>0.6592419889539803</speed>
  <fix>3d</fix>
</trkpt>
<trkpt lat="40.071307" lon="-105.2299884">
  <ele>1583.0</ele>
  <time>2026-08-28T17:50:27Z</time>
  <course>245.99</course>
  <speed>0.68</speed>
  <fix>3d</fix>
</trkpt>
<trkpt lat="40.0713067" lon="-105.22999">
  <ele>1582.99</ele>
  <time>2026-08-28T17:50:27Z</time>
  <course>247.2</course>
  <speed>0.6592419889539803</speed>
  <fix>3d</fix>
</trkpt>
<trkpt lat="40.071307" lon="-105.2299884">
  <ele>1583.0</ele>
  <time>2026-08-28T17:50:27Z</time>
  <course>245.99</course>
  <speed>0.68</speed>
  <fix>3d</fix>
</trkpt>
<trkpt lat="40.0713064" lon="-105.2299907">
  <ele>1582.99</ele>
  <time>2026-08-28T17:50:27Z</time>
  <course>247.2</course>
  <speed>0.6592419889539803</speed>
  <fix>3d</fix>
</trkpt>
<trkpt lat="40.0713065" lon="-105.2299899">
  <ele>1583.0</ele>
  <time>2026-08-28T17:50:27Z</time>
  <course>245.99</course>
  <speed>0.68</speed>
  <fix>3d</fix>
</trkpt>
<trkpt lat="40.0713062" lon="-105.2299915">
  <ele>1582.99</ele>
  <time>2026-08-28T17:50:27Z</time>
  <course>247.19</course>
  <speed>0.6592419889539803</speed>
  <fix>3d</fix>
</trkpt>
<trkpt lat="40.0713065" lon="-105.2299899">
  <ele>1583.0</ele>
  <time>2026-08-28T17:50:27Z</time>
  <course>245.99</course>
  <speed>0.68</speed>
  <fix>3d</fix>
</trkpt>
<trkpt lat="40.0713059" lon="-105.2299922">
  <ele>1582.99</ele>
  <time>2026-08-28T17:50:27Z</time>
  <course>247.19</course>
  <speed>0.6592419889539803</speed>
  <fix>3d</fix>
</trkpt>
<trkpt lat="40.071306" lon="-105.2299914">
  <ele>1583.0</ele>
  <time>2026-08-28T17:50:27Z</time>
  <course>245.99</course>
  <speed>0.68</speed>
  <fix>3d</fix>
</trkpt>
<trkpt lat="40.0713057" lon="-105.2299929">
  <ele>1582.99</ele>
  <time>2026-08-28T17:50:27Z</time>
  <course>247.19</course>
  <speed>0.6592419889539803</speed>
  <fix>3d</fix>
</trkpt>
<trkpt lat="40.071306" lon="-105.2299914">
  <ele>1583.0</ele>
  <time>2026-08-28T17:50:27Z</time>
  <course>245.99</course>
  <speed>0.68</speed>
  <fix>3d</fix>
</trkpt>
<trkpt lat="40.0713054" lon="-105.2299937">
  <ele>1582.99</ele>
  <time>2026-08-28T17:50:27Z</time>
  <course>247.19</course>
  <speed>0.6592419889539803</speed>
  <fix>3d</fix>
</trkpt>
<trkpt lat="40.0713055" lon="-105.2299929">
  <ele>1583.0</ele>
  <time>2026-08-28T17:50:27Z</time>
  <course>245.99</course>
  <speed>0.68</speed>
  <fix>3d</fix>
</trkpt>
<trkpt lat="40.0713052" lon="-105.2299944">
  <ele>1582.99</ele>
  <time>2026-08-28T17:50:27Z</time>
  <course>247.19</course>
  <speed>0.6592419889539803</speed>
  <fix>3d</fix>
</trkpt>
<trkpt lat="40.0713055" lon="-105.2299929">
  <ele>1583.0</ele>
  <time>2026-08-28T17:50:27Z</time>
  <course>245.99</course>
  <speed>0.68</speed>
  <fix>3d</fix>
</trkpt>
<trkpt lat="40.0713049" lon="-105.2299952">
  <ele>1582.99</ele>
  <time>2026-08-28T17:50:27Z</time>
  <course>247.19</course>
  <speed>0.6592419889539803</speed>
  <fix>3d</fix>
</trkpt>
<trkpt lat="40.071305" lon="-105.2299944">
  <ele>1583.0</ele>
  <time>2026-08-28T17:50:27Z</time>
  <course>245.99</course>
  <speed>0.68</speed>
  <fix>3d</fix>
</trkpt>
<trkpt lat="40.0713047" lon="-105.2299959">
  <ele>1582.99</ele>
  <time>2026-08-28T17:50:27Z</time>
  <course>247.19</course>
  <speed>0.6592419889539803</speed>
  <fix>3d</fix>
</trkpt>
<trkpt lat="40.071305" lon="-105.2299944">
  <ele>1583.0</ele>
  <time>2026-08-28T17:50:27Z</time>
  <course>245.99</course>
  <speed>0.68</speed>
  <fix>3d</fix>
</trkpt>
<trkpt lat="40.0713044" lon="-105.2299967">
  <ele>1582.99</ele>
  <time>2026-08-28T17:50:27Z</time>
  <course>247.19</course>
  <speed>0.6592419889539803</speed>
  <fix>3d</fix>
</trkpt>
<trkpt lat="40.071305" lon="-105.2299944">
  <ele>1583.0</ele>
  <time>2026-08-28T17:50:27Z</time>
  <course>245.99</course>
  <speed>0.68</speed>
  <fix>3d</fix>
</trkpt>
<trkpt lat="40.0713042" lon="-105.2299974">
  <ele>1583.0</ele>
  <time>2026-08-28T17:50:27Z</time>
  <course>247.19</course>
  <speed>0.6592419889539803</speed>
  <fix>3d</fix>
</trkpt>
<trkpt lat="40.0713045" lon="-105.2299958">
  <ele>1583.0</ele>
  <time>2026-08-28T17:50:27Z</time>
  <course>245.99</course>
  <speed>0.68</speed>
  <fix>3d</fix>
</trkpt>
<trkpt lat="40.0713039" lon="-105.2299981">
  <ele>1583.0</ele>
  <time>2026-08-28T17:50:27Z</time>
  <course>247.19</course>
  <speed>0.6592419889539803</speed>
  <fix>3d</fix>
</trkpt>
<trkpt lat="40.0713045" lon="-105.2299958">
  <ele>1583.0</ele>
  <time>2026-08-28T17:50:27Z</time>
  <course>245.99</course>
  <speed>0.68</speed>
  <fix>3d</fix>
</trkpt>
<trkpt lat="40.0713037" lon="-105.2299989">
  <ele>1583.0</ele>
  <time>2026-08-28T17:50:27Z</time>
  <course>247.19</course>
  <speed>0.6592419889539803</speed>
  <fix>3d</fix>
</trkpt>
<trkpt lat="40.071304" lon="-105.2299973">
  <ele>1583.0</ele>
  <time>2026-08-28T17:50:27Z</time>
  <course>245.99</course>
  <speed>0.68</speed>
  <fix>3d</fix>
</trkpt>
<trkpt lat="40.0713034" lon="-105.2299996">
  <ele>1583.01</ele>
  <time>2026-08-28T17:50:27Z</time>
  <course>247.19</course>
  <speed>0.6592419889539803</speed>
  <fix>3d</fix>
</trkpt>
<trkpt lat="40.071304" lon="-105.2299973">
  <ele>1583.0</ele>
  <time>2026-08-28T17:50:27Z</time>
  <course>245.99</course>
  <speed>0.68</speed>
  <fix>3d</fix>
</trkpt>
<trkpt lat="40.0713032" lon="-105.2300003">
  <ele>1583.01</ele>
  <time>2026-08-28T17:50:27Z</time>
  <course>247.19</course>
  <speed>0.6592419889539803</speed>
  <fix>3d</fix>
</trkpt>
<trkpt lat="40.0713035" lon="-105.2299987">
  <ele>1583.0</ele>
  <time>2026-08-28T17:50:27Z</time>
  <course>245.99</course>
  <speed>0.68</speed>
  <fix>3d</fix>
</trkpt>
<trkpt lat="40.0713029" lon="-105.230001">
  <ele>1583.01</ele>
  <time>2026-08-28T17:50:27Z</time>
  <course>247.19</course>
  <speed>0.6592419889539803</speed>
  <fix>3d</fix>
</trkpt>
<trkpt lat="40.071303" lon="-105.2300002">
  <ele>1583.0</ele>
  <time>2026-08-28T17:50:27Z</time>
  <course>245.99</course>
  <speed>0.68</speed>
  <fix>3d</fix>
</trkpt>
<trkpt lat="40.0713027" lon="-105.2300018">
  <ele>1583.01</ele>
  <time>2026-08-28T17:50:27Z</time>
  <course>247.19</course>
  <speed>0.6592419889539803</speed>
  <fix>3d</fix>
</trkpt>
<trkpt lat="40.071303" lon="-105.2300002">
  <ele>1583.0</ele>
  <time>2026-08-28T17:50:27Z</time>
  <course>245.99</course>
  <speed>0.68</speed>
  <fix>3d</fix>
</trkpt>
<trkpt lat="40.0713024" lon="-105.2300025">
  <ele>1583.01</ele>
  <time>2026-08-28T17:50:27Z</time>
  <course>247.18</course>
  <speed>0.6592419889539803</speed>
  <fix>3d</fix>
</trkpt>
<trkpt lat="40.0713025" lon="-105.2300017">
  <ele>1583.0</ele>
  <time>2026-08-28T17:50:27Z</time>
  <course>245.99</course>
  <speed>0.68</speed>
  <fix>3d</fix>
</trkpt>
<trkpt lat="40.0713022" lon="-105.2300032">
  <ele>1583.01</ele>
  <time>2026-08-28T17:50:27Z</time>
  <course>247.18</course>
  <speed>0.6592419889539803</speed>
  <fix>3d</fix>
</trkpt>
<trkpt lat="40.0713025" lon="-105.2300017">
  <ele>1583.0</ele>
  <time>2026-08-28T17:50:27Z</time>
  <course>245.99</course>
  <speed>0.68</speed>
  <fix>3d</fix>
</trkpt>
<trkpt lat="40.0713019" lon="-105.230004">
  <ele>1583.02</ele>
  <time>2026-08-28T17:50:27Z</time>
  <course>247.18</course>
  <speed>0.6592419889539803</speed>
  <fix>3d</fix>
</trkpt>
<trkpt lat="40.071302" lon="-105.2300032">
  <ele>1583.0</ele>
  <time>2026-08-28T17:50:27Z</time>
  <course>245.99</course>
  <speed>0.68</speed>
  <fix>3d</fix>
</trkpt>
<trkpt lat="40.0713017" lon="-105.2300047">
  <ele>1583.02</ele>
  <time>2026-08-28T17:50:27Z</time>
  <course>247.18</course>
  <speed>0.6592419889539803</speed>
  <fix>3d</fix>
</trkpt>
<trkpt lat="40.071302" lon="-105.2300032">
  <ele>1583.0</ele>
  <time>2026-08-28T17:50:27Z</time>
  <course>245.99</course>
  <speed>0.68</speed>
  <fix>3d</fix>
</trkpt>
<trkpt lat="40.0713014" lon="-105.2300055">
  <ele>1583.02</ele>
  <time>2026-08-28T17:50:27Z</time>
  <course>247.18</course>
  <speed>0.6592419889539803</speed>
  <fix>3d</fix>
</trkpt>
<trkpt lat="40.0713015" lon="-105.2300047">
  <ele>1583.0</ele>
  <time>2026-08-28T17:50:27Z</time>
  <course>245.99</course>
  <speed>0.68</speed>
  <fix>3d</fix>
</trkpt>
<trkpt lat="40.0713012" lon="-105.2300062">
  <ele>1583.01</ele>
  <time>2026-08-28T17:50:27Z</time>
  <course>247.18</course>
  <speed>0.6592419889539803</speed>
  <fix>3d</fix>
</trkpt>
<trkpt lat="40.0713015" lon="-105.2300047">
  <ele>1583.0</ele>
  <time>2026-08-28T17:50:27Z</time>
  <course>245.99</course>
  <speed>0.68</speed>
  <fix>3d</fix>
</trkpt>
<trkpt lat="40.0713009" lon="-105.2300069">
  <ele>1583.01</ele>
  <time>2026-08-28T17:50:27Z</time>
  <course>247.18</course>
  <speed>0.6592419889539803</speed>
  <fix>3d</fix>
</trkpt>
<trkpt lat="40.071301" lon="-105.2300061">
  <ele>1583.0</ele>
  <time>2026-08-28T17:50:27Z</time>
  <course>245.99</course>
  <speed>0.68</speed>
  <fix>3d</fix>
</trkpt>
<trkpt lat="40.0713007" lon="-105.2300077">
  <ele>1583.01</ele>
  <time>2026-08-28T17:50:27Z</time>
  <course>247.18</course>
  <speed>0.6592419889539803</speed>
  <fix>3d</fix>
</trkpt>
<trkpt lat="40.071301" lon="-105.2300061">
  <ele>1583.0</ele>
  <time>2026-08-28T17:50:27Z</time>
  <course>245.99</course>
  <speed>0.68</speed>
  <fix>3d</fix>
</trkpt>
<trkpt lat="40.0713004" lon="-105.2300084">
  <ele>1583.01</ele>
  <time>2026-08-28T17:50:27Z</time>
  <course>247.18</course>
  <speed>0.6592419889539803</speed>
  <fix>3d</fix>
</trkpt>
<trkpt lat="40.0713005" lon="-105.2300076">
  <ele>1583.0</ele>
  <time>2026-08-28T17:50:27Z</time>
  <course>245.99</course>
  <speed>0.68</speed>
  <fix>3d</fix>
</trkpt>
<trkpt lat="40.0713002" lon="-105.2300092">
  <ele>1583.01</ele>
  <time>2026-08-28T17:50:27Z</time>
  <course>247.18</course>
  <speed>0.6592419889539803</speed>
  <fix>3d</fix>
</trkpt>
<trkpt lat="40.0713005" lon="-105.2300076">
  <ele>1583.0</ele>
  <time>2026-08-28T17:50:27Z</time>
  <course>245.99</course>
  <speed>0.68</speed>
  <fix>3d</fix>
</trkpt>
<trkpt lat="40.0712999" lon="-105.2300099">
  <ele>1583.01</ele>
  <time>2026-08-28T17:50:27Z</time>
  <course>247.18</course>
  <speed>0.6592419889539803</speed>
  <fix>3d</fix>
</trkpt>
<trkpt lat="40.0713" lon="-105.2300091">
  <ele>1583.0</ele>
  <time>2026-08-28T17:50:27Z</time>
  <course>245.99</course>
  <speed>0.68</speed>
  <fix>3d</fix>
</trkpt>
<trkpt lat="40.0712997" lon="-105.2300107">
  <ele>1583.01</ele>
  <time>2026-08-28T17:50:27Z</time>
  <course>247.18</course>
  <speed>0.6592419889539803</speed>
  <fix>3d</fix>
</trkpt>
<trkpt lat="40.0713" lon="-105.2300091">
  <ele>1583.0</ele>
  <time>2026-08-28T17:50:27Z</time>
  <course>245.99</course>
  <speed>0.68</speed>
  <fix>3d</fix>
</trkpt>
<trkpt lat="40.0712994" lon="-105.2300114">
  <ele>1583.01</ele>
  <time>2026-08-28T17:50:27Z</time>
  <course>247.18</course>
  <speed>0.6592419889539803</speed>
  <fix>3d</fix>
</trkpt>
<trkpt lat="40.0713" lon="-105.2300091">
  <ele>1583.0</ele>
  <time>2026-08-28T17:50:27Z</time>
  <course>245.99</course>
  <speed>0.68</speed>
  <fix>3d</fix>
</trkpt>
<trkpt lat="40.0712992" lon="-105.2300121">
  <ele>1583.01</ele>
  <time>2026-08-28T17:50:27Z</time>
  <course>247.17</course>
  <speed>0.6592419889539803</speed>
  <fix>3d</fix>
</trkpt>
<trkpt lat="40.0712995" lon="-105.2300106">
  <ele>1583.0</ele>
  <time>2026-08-28T17:50:27Z</time>
  <course>245.99</course>
  <speed>0.68</speed>
  <fix>3d</fix>
</trkpt>
<trkpt lat="40.0712989" lon="-105.2300129">
  <ele>1583.01</ele>
  <time>2026-08-28T17:50:27Z</time>
  <course>247.17</course>
  <speed>0.6592419889539803</speed>
  <fix>3d</fix>
</trkpt>
<trkpt lat="40.0712995" lon="-105.2300106">
  <ele>1583.0</ele>
  <time>2026-08-28T17:50:27Z</time>
  <course>245.99</course>
  <speed>0.68</speed>
  <fix>3d</fix>
</trkpt>
<trkpt lat="40.0712987" lon="-105.2300136">
  <ele>1583.01</ele>
  <time>2026-08-28T17:50:27Z</time>
  <course>247.17</course>
  <speed>0.6592419889539803</speed>
  <fix>3d</fix>
</trkpt>
<trkpt lat="40.071299" lon="-105.230012">
  <ele>1583.0</ele>
  <time>2026-08-28T17:50:27Z</time>
  <course>245.99</course>
  <speed>0.68</speed>
  <fix>3d</fix>
</trkpt>
<trkpt lat="40.0712984" lon="-105.2300143">
  <ele>1583.01</ele>
  <time>2026-08-28T17:50:27Z</time>
  <course>247.17</course>
  <speed>0.6592419889539803</speed>
  <fix>3d</fix>
</trkpt>
<trkpt lat="40.071299" lon="-105.230012">
  <ele>1583.0</ele>
  <time>2026-08-28T17:50:27Z</time>
  <course>245.99</course>
  <speed>0.68</speed>
  <fix>3d</fix>
</trkpt>
<trkpt lat="40.0712982" lon="-105.230015">
  <ele>1583.0</ele>
  <time>2026-08-28T17:50:27Z</time>
  <course>247.17</course>
  <speed>0.6592419889539803</speed>
  <fix>3d</fix>
</trkpt>
<trkpt lat="40.0712985" lon="-105.2300135">
  <ele>1583.0</ele>
  <time>2026-08-28T17:50:27Z</time>
  <course>245.99</course>
  <speed>0.68</speed>
  <fix>3d</fix>
</trkpt>
<trkpt lat="40.0712979" lon="-105.2300158">
  <ele>1583.0</ele>
  <time>2026-08-28T17:50:27Z</time>
  <course>247.17</course>
  <speed>0.6592419889539803</speed>
  <fix>3d</fix>
</trkpt>
<trkpt lat="40.0712985" lon="-105.2300135">
  <ele>1583.0</ele>
  <time>2026-08-28T17:50:27Z</time>
  <course>245.99</course>
  <speed>0.68</speed>
  <fix>3d</fix>
</trkpt>
<trkpt lat="40.0712977" lon="-105.2300165">
  <ele>1583.0</ele>
  <time>2026-08-28T17:50:27Z</time>
  <course>247.17</course>
  <speed>0.6592419889539803</speed>
  <fix>3d</fix>
</trkpt>
<trkpt lat="40.071298" lon="-105.230015">
  <ele>1583.0</ele>
  <time>2026-08-28T17:50:27Z</time>
  <course>245.99</course>
  <speed>0.68</speed>
  <fix>3d</fix>
</trkpt>
<trkpt lat="40.0712974" lon="-105.2300172">
  <ele>1583.0</ele>
  <time>2026-08-28T17:50:27Z</time>
  <course>247.17</course>
  <speed>0.6592419889539803</speed>
  <fix>3d</fix>
</trkpt>
<trkpt lat="40.0712975" lon="-105.2300164">
  <ele>1583.0</ele>
  <time>2026-08-28T17:50:27Z</time>
  <course>245.99</course>
  <speed>0.68</speed>
  <fix>3d</fix>
</trkpt>
<trkpt lat="40.0712972" lon="-105.230018">
  <ele>1583.01</ele>
  <time>2026-08-28T17:50:27Z</time>
  <course>247.17</course>
  <speed>0.6592419889539803</speed>
  <fix>3d</fix>
</trkpt>
<trkpt lat="40.0712975" lon="-105.2300164">
  <ele>1583.0</ele>
  <time>2026-08-28T17:50:27Z</time>
  <course>245.99</course>
  <speed>0.68</speed>
  <fix>3d</fix>
</trkpt>
<trkpt lat="40.0712969" lon="-105.2300187">
  <ele>1583.0</ele>
  <time>2026-08-28T17:50:27Z</time>
  <course>247.17</course>
  <speed>0.6592419889539803</speed>
  <fix>3d</fix>
</trkpt>
<trkpt lat="40.071297" lon="-105.2300179">
  <ele>1583.0</ele>
  <time>2026-08-28T17:50:27Z</time>
  <course>245.99</course>
  <speed>0.68</speed>
  <fix>3d</fix>
</trkpt>
<trkpt lat="40.0712967" lon="-105.2300194">
  <ele>1583.0</ele>
  <time>2026-08-28T17:50:27Z</time>
  <course>247.17</course>
  <speed>0.6592419889539803</speed>
  <fix>3d</fix>
</trkpt>
<trkpt lat="40.071297" lon="-105.2300179">
  <ele>1583.0</ele>
  <time>2026-08-28T17:50:27Z</time>
  <course>245.99</course>
  <speed>0.68</speed>
  <fix>3d</fix>
</trkpt>
<trkpt lat="40.0712964" lon="-105.2300202">
  <ele>1583.0</ele>
  <time>2026-08-28T17:50:27Z</time>
  <course>247.17</course>
  <speed>0.6592419889539803</speed>
  <fix>3d</fix>
</trkpt>
<trkpt lat="40.0712965" lon="-105.2300194">
  <ele>1583.0</ele>
  <time>2026-08-28T17:50:27Z</time>
  <course>245.99</course>
  <speed>0.68</speed>
  <fix>3d</fix>
</trkpt>
<trkpt lat="40.0712962" lon="-105.2300209">
  <ele>1582.99</ele>
  <time>2026-08-28T17:50:27Z</time>
  <course>247.17</course>
  <speed>0.6592419889539803</speed>
  <fix>3d</fix>
</trkpt>
<trkpt lat="40.0712965" lon="-105.2300194">
  <ele>1583.0</ele>
  <time>2026-08-28T17:50:27Z</time>
  <course>245.99</course>
  <speed>0.68</speed>
  <fix>3d</fix>
</trkpt>
<trkpt lat="40.0712959" lon="-105.2300217">
  <ele>1582.99</ele>
  <time>2026-08-28T17:50:27Z</time>
  <course>247.17</course>
  <speed>0.6592419889539803</speed>
  <fix>3d</fix>
</trkpt>
<trkpt lat="40.071296" lon="-105.2300209">
  <ele>1583.0</ele>
  <time>2026-08-28T17:50:27Z</time>
  <course>245.99</course>
  <speed>0.68</speed>
  <fix>3d</fix>
</trkpt>
<trkpt lat="40.0712957" lon="-105.2300224">
  <ele>1582.99</ele>
  <time>2026-08-28T17:50:27Z</time>
  <course>247.17</course>
  <speed>0.6592419889539803</speed>
  <fix>3d</fix>
</trkpt>
<trkpt lat="40.071296" lon="-105.2300209">
  <ele>1583.0</ele>
  <time>2026-08-28T17:50:27Z</time>
  <course>245.99</course>
  <speed>0.68</speed>
  <fix>3d</fix>
</trkpt>
<trkpt lat="40.0712954" lon="-105.2300232">
  <ele>1582.99</ele>
  <time>2026-08-28T17:50:27Z</time>
  <course>247.16</course>
  <speed>0.6592419889539803</speed>
  <fix>3d</fix>
</trkpt>
<trkpt lat="40.0712955" lon="-105.2300223">
  <ele>1583.0</ele>
  <time>2026-08-28T17:50:27Z</time>
  <course>245.99</course>
  <speed>0.68</speed>
  <fix>3d</fix>
</trkpt>
<trkpt lat="40.0712952" lon="-105.2300239">
  <ele>1582.99</ele>
  <time>2026-08-28T17:50:27Z</time>
  <course>247.16</course>
  <speed>0.6592419889539803</speed>
  <fix>3d</fix>
</trkpt>
<trkpt lat="40.0712955" lon="-105.2300223">
  <ele>1583.0</ele>
  <time>2026-08-28T17:50:27Z</time>
  <course>245.99</course>
  <speed>0.68</speed>
  <fix>3d</fix>
</trkpt>
<trkpt lat="40.0712949" lon="-105.2300246">
  <ele>1583.0</ele>
  <time>2026-08-28T17:50:27Z</time>
  <course>247.16</course>
  <speed>0.6592419889539803</speed>
  <fix>3d</fix>
</trkpt>
<trkpt lat="40.071295" lon="-105.2300238">
  <ele>1583.0</ele>
  <time>2026-08-28T17:50:27Z</time>
  <course>245.99</course>
  <speed>0.68</speed>
  <fix>3d</fix>
</trkpt>
<trkpt lat="40.0712947" lon="-105.2300254">
  <ele>1583.0</ele>
  <time>2026-08-28T17:50:27Z</time>
  <course>247.16</course>
  <speed>0.6592419889539803</speed>
  <fix>3d</fix>
</trkpt>
<trkpt lat="40.071295" lon="-105.2300238">
  <ele>1583.0</ele>
  <time>2026-08-28T17:50:27Z</time>
  <course>245.99</course>
  <speed>0.68</speed>
  <fix>3d</fix>
</trkpt>
<trkpt lat="40.0712944" lon="-105.2300261">
  <ele>1583.0</ele>
  <time>2026-08-28T17:50:27Z</time>
  <course>247.16</course>
  <speed>0.6592419889539803</speed>
  <fix>3d</fix>
</trkpt>
<trkpt lat="40.071295" lon="-105.2300238">
  <ele>1583.0</ele>
  <time>2026-08-28T17:50:27Z</time>
  <course>245.99</course>
  <speed>0.68</speed>
  <fix>3d</fix>
</trkpt>
<trkpt lat="40.0712942" lon="-105.2300268">
  <ele>1583.0</ele>
  <time>2026-08-28T17:50:27Z</time>
  <course>247.16</course>
  <speed>0.6592419889539803</speed>
  <fix>3d</fix>
</trkpt>
<trkpt lat="40.0712945" lon="-105.2300253">
  <ele>1583.0</ele>
  <time>2026-08-28T17:50:27Z</time>
  <course>245.99</course>
  <speed>0.68</speed>
  <fix>3d</fix>
</trkpt>
<trkpt lat="40.0712939" lon="-105.2300276">
  <ele>1583.0</ele>
  <time>2026-08-28T17:50:27Z</time>
  <course>247.16</course>
  <speed>0.6592419889539803</speed>
  <fix>3d</fix>
</trkpt>
<trkpt lat="40.0712945" lon="-105.2300253">
  <ele>1583.0</ele>
  <time>2026-08-28T17:50:27Z</time>
  <course>245.99</course>
  <speed>0.68</speed>
  <fix>3d</fix>
</trkpt>
<trkpt lat="40.0712937" lon="-105.2300283">
  <ele>1583.0</ele>
  <time>2026-08-28T17:50:27Z</time>
  <course>247.16</course>
  <speed>0.6592419889539803</speed>
  <fix>3d</fix>
</trkpt>
<trkpt lat="40.071294" lon="-105.2300267">
  <ele>1583.0</ele>
  <time>2026-08-28T17:50:27Z</time>
  <course>245.99</course>
  <speed>0.68</speed>
  <fix>3d</fix>
</trkpt>
<trkpt lat="40.0712934" lon="-105.230029">
  <ele>1583.0</ele>
  <time>2026-08-28T17:50:27Z</time>
  <course>247.16</course>
  <speed>0.6592419889539803</speed>
  <fix>3d</fix>
</trkpt>
<trkpt lat="40.071294" lon="-105.2300267">
  <ele>1583.0</ele>
  <time>2026-08-28T17:50:27Z</time>
  <course>245.99</course>
  <speed>0.68</speed>
  <fix>3d</fix>
</trkpt>
<trkpt lat="40.0712932" lon="-105.2300298">
  <ele>1583.0</ele>
  <time>2026-08-28T17:50:27Z</time>
  <course>247.16</course>
  <speed>0.6592419889539803</speed>
  <fix>3d</fix>
</trkpt>
<trkpt lat="40.0712935" lon="-105.2300282">
  <ele>1583.0</ele>
  <time>2026-08-28T17:50:27Z</time>
  <course>245.99</course>
  <speed>0.68</speed>
  <fix>3d</fix>
</trkpt>
<trkpt lat="40.0712929" lon="-105.2300305">
  <ele>1583.0</ele>
  <time>2026-08-28T17:50:27Z</time>
  <course>247.16</course>
  <speed>0.6592419889539803</speed>
  <fix>3d</fix>
</trkpt>
<trkpt lat="40.0712935" lon="-105.2300282">
  <ele>1583.0</ele>
  <time>2026-08-28T17:50:27Z</time>
  <course>245.99</course>
  <speed>0.68</speed>
  <fix>3d</fix>
</trkpt>
<trkpt lat="40.0712927" lon="-105.2300312">
  <ele>1583.0</ele>
  <time>2026-08-28T17:50:27Z</time>
  <course>247.16</course>
  <speed>0.6592419889539803</speed>
  <fix>3d</fix>
</trkpt>
<trkpt lat="40.071293" lon="-105.2300297">
  <ele>1583.0</ele>
  <time>2026-08-28T17:50:27Z</time>
  <course>245.99</course>
  <speed>0.68</speed>
  <fix>3d</fix>
</trkpt>
<trkpt lat="40.0712924" lon="-105.2300319">
  <ele>1583.0</ele>
  <time>2026-08-28T17:50:27Z</time>
  <course>247.16</course>
  <speed>0.6592419889539803</speed>
  <fix>3d</fix>
</trkpt>
<trkpt lat="40.0712925" lon="-105.2300312">
  <ele>1583.0</ele>
  <time>2026-08-28T17:50:27Z</time>
  <course>245.99</course>
  <speed>0.68</speed>
  <fix>3d</fix>
</trkpt>
<trkpt lat="40.0712922" lon="-105.2300327">
  <ele>1583.0</ele>
  <time>2026-08-28T17:50:27Z</time>
  <course>247.16</course>
  <speed>0.6592419889539803</speed>
  <fix>3d</fix>
</trkpt>
<trkpt lat="40.0712925" lon="-105.2300312">
  <ele>1583.0</ele>
  <time>2026-08-28T17:50:27Z</time>
  <course>245.99</course>
  <speed>0.68</speed>
  <fix>3d</fix>
</trkpt>
<trkpt lat="40.0712919" lon="-105.2300334">
  <ele>1583.0</ele>
  <time>2026-08-28T17:50:27Z</time>
  <course>247.16</course>
  <speed>0.6592419889539803</speed>
  <fix>3d</fix>
</trkpt>
<trkpt lat="40.071292" lon="-105.2300327">
  <ele>1583.0</ele>
  <time>2026-08-28T17:50:27Z</time>
  <course>245.99</course>
  <speed>0.68</speed>
  <fix>3d</fix>
</trkpt>
<trkpt lat="40.0712917" lon="-105.2300342">
  <ele>1583.0</ele>
  <time>2026-08-28T17:50:27Z</time>
  <course>247.16</course>
  <speed>0.6592419889539803</speed>
  <fix>3d</fix>
</trkpt>
<trkpt lat="40.071292" lon="-105.2300327">
  <ele>1583.0</ele>
  <time>2026-08-28T17:50:27Z</time>
  <course>245.99</course>
  <speed>0.68</speed>
  <fix>3d</fix>
</trkpt>
<trkpt lat="40.0712914" lon="-105.2300349">
  <ele>1583.0</ele>
  <time>2026-08-28T17:50:27Z</time>
  <course>247.16</course>
  <speed>0.6592419889539803</speed>
  <fix>3d</fix>
</trkpt>
<trkpt lat="40.0712915" lon="-105.2300341">
  <ele>1583.0</ele>
  <time>2026-08-28T17:50:27Z</time>
  <course>245.99</course>
  <speed>0.68</speed>
  <fix>3d</fix>
</trkpt>
<trkpt lat="40.0712912" lon="-105.2300357">
  <ele>1583.0</ele>
  <time>2026-08-28T17:50:27Z</time>
  <course>247.15</course>
  <speed>0.6592419889539803</speed>
  <fix>3d</fix>
</trkpt>
<trkpt lat="40.0712915" lon="-105.2300341">
  <ele>1583.0</ele>
  <time>2026-08-28T17:50:27Z</time>
  <course>245.99</course>
  <speed>0.68</speed>
  <fix>3d</fix>
</trkpt>
<trkpt lat="40.0712909" lon="-105.2300364">
  <ele>1583.0</ele>
  <time>2026-08-28T17:50:27Z</time>
  <course>247.15</course>
  <speed>0.6592419889539803</speed>
  <fix>3d</fix>
</trkpt>
<trkpt lat="40.071291" lon="-105.2300356">
  <ele>1583.0</ele>
  <time>2026-08-28T17:50:27Z</time>
  <course>245.99</course>
  <speed>0.68</speed>
  <fix>3d</fix>
</trkpt>
<trkpt lat="40.0712907" lon="-105.2300371">
  <ele>1583.0</ele>
  <time>2026-08-28T17:50:27Z</time>
  <course>247.15</course>
  <speed>0.6592419889539803</speed>
  <fix>3d</fix>
</trkpt>
<trkpt lat="40.071291" lon="-105.2300356">
  <ele>1583.0</ele>
  <time>2026-08-28T17:50:27Z</time>
  <course>245.99</course>
  <speed>0.68</speed>
  <fix>3d</fix>
</trkpt>
<trkpt lat="40.0712904" lon="-105.2300379">
  <ele>1583.01</ele>
  <time>2026-08-28T17:50:27Z</time>
  <course>247.15</course>
  <speed>0.6592419889539803</speed>
  <fix>3d</fix>
</trkpt>
<trkpt lat="40.0712905" lon="-105.230037">
  <ele>1583.0</ele>
  <time>2026-08-28T17:50:27Z</time>
  <course>245.99</course>
  <speed>0.68</speed>
  <fix>3d</fix>
</trkpt>
<trkpt lat="40.0712902" lon="-105.2300386">
  <ele>1583.01</ele>
  <time>2026-08-28T17:50:27Z</time>
  <course>247.15</course>
  <speed>0.6592419889539803</speed>
  <fix>3d</fix>
</trkpt>
<trkpt lat="40.0712905" lon="-105.230037">
  <ele>1583.0</ele>
  <time>2026-08-28T17:50:27Z</time>
  <course>245.99</course>
  <speed>0.68</speed>
  <fix>3d</fix>
</trkpt>
<trkpt lat="40.0712899" lon="-105.2300394">
  <ele>1583.01</ele>
  <time>2026-08-28T17:50:27Z</time>
  <course>247.15</course>
  <speed>0.6592419889539803</speed>
  <fix>3d</fix>
</trkpt>
<trkpt lat="40.07129" lon="-105.2300385">
  <ele>1583.0</ele>
  <time>2026-08-28T17:50:27Z</time>
  <course>245.99</course>
  <speed>0.68</speed>
  <fix>3d</fix>
</trkpt>
<trkpt lat="40.0712897" lon="-105.2300401">
  <ele>1583.02</ele>
  <time>2026-08-28T17:50:27Z</time>
  <course>247.15</course>
  <speed>0.6592419889539803</speed>
  <fix>3d</fix>
</trkpt>
<trkpt lat="40.07129" lon="-105.2300385">
  <ele>1583.0</ele>
  <time>2026-08-28T17:50:27Z</time>
  <course>245.99</course>
  <speed>0.68</speed>
  <fix>3d</fix>
</trkpt>
<trkpt lat="40.0712894" lon="-105.2300408">
  <ele>1583.02</ele>
  <time>2026-08-28T17:50:27Z</time>
  <course>247.15</course>
  <speed>0.6592419889539803</speed>
  <fix>3d</fix>
</trkpt>
<trkpt lat="40.0712895" lon="-105.23004">
  <ele>1583.0</ele>
  <time>2026-08-28T17:50:27Z</time>
  <course>245.99</course>
  <speed>0.68</speed>
  <fix>3d</fix>
</trkpt>
<trkpt lat="40.0712892" lon="-105.2300416">
  <ele>1583.03</ele>
  <time>2026-08-28T17:50:27Z</time>
  <course>247.15</course>
  <speed>0.6592419889539803</speed>
  <fix>3d</fix>
</trkpt>
<trkpt lat="40.0712895" lon="-105.23004">
  <ele>1583.0</ele>
  <time>2026-08-28T17:50:27Z</time>
  <course>245.99</course>
  <speed>0.68</speed>
  <fix>3d</fix>
</trkpt>
<trkpt lat="40.0712889" lon="-105.2300423">
  <ele>1583.03</ele>
  <time>2026-08-28T17:50:27Z</time>
  <course>247.15</course>
  <speed>0.6592419889539803</speed>
  <fix>3d</fix>
</trkpt>
<trkpt lat="40.0712895" lon="-105.23004">
  <ele>1583.0</ele>
  <time>2026-08-28T17:50:27Z</time>
  <course>245.99</course>
  <speed>0.68</speed>
  <fix>3d</fix>
</trkpt>
<trkpt lat="40.0712887" lon="-105.230043">
  <ele>1583.02</ele>
  <time>2026-08-28T17:50:27Z</time>
  <course>247.15</course>
  <speed>0.6592419889539803</speed>
  <fix>3d</fix>
</trkpt>
<trkpt lat="40.0712889" lon="-105.2300415">
  <ele>1583.0</ele>
  <time>2026-08-28T17:50:27Z</time>
  <course>245.99</course>
  <speed>0.68</speed>
  <fix>3d</fix>
</trkpt>
<trkpt lat="40.0712884" lon="-105.2300438">
  <ele>1583.02</ele>
  <time>2026-08-28T17:50:27Z</time>
  <course>247.15</course>
  <speed>0.6592419889539803</speed>
  <fix>3d</fix>
</trkpt>
<trkpt lat="40.0712889" lon="-105.2300415">
  <ele>1583.0</ele>
  <time>2026-08-28T17:50:27Z</time>
  <course>245.99</course>
  <speed>0.68</speed>
  <fix>3d</fix>
</trkpt>
<trkpt lat="40.0712881" lon="-105.2300445">
  <ele>1583.02</ele>
  <time>2026-08-28T17:50:27Z</time>
  <course>247.15</course>
  <speed>0.6592419889539803</speed>
  <fix>3d</fix>
</trkpt>
<trkpt lat="40.0712884" lon="-105.230043">
  <ele>1583.0</ele>
  <time>2026-08-28T17:50:27Z</time>
  <course>245.99</course>
  <speed>0.68</speed>
  <fix>3d</fix>
</trkpt>
<trkpt lat="40.0712879" lon="-105.2300452">
  <ele>1583.02</ele>
  <time>2026-08-28T17:50:27Z</time>
  <course>247.15</course>
  <speed>0.6592419889539803</speed>
  <fix>3d</fix>
</trkpt>
<trkpt lat="40.0712884" lon="-105.230043">
  <ele>1583.0</ele>
  <time>2026-08-28T17:50:27Z</time>
  <course>245.99</course>
  <speed>0.68</speed>
  <fix>3d</fix>
</trkpt>
<trkpt lat="40.0712876" lon="-105.230046">
  <ele>1583.02</ele>
  <time>2026-08-28T17:50:27Z</time>
  <course>247.15</course>
  <speed>0.6592419889539803</speed>
  <fix>3d</fix>
</trkpt>
<trkpt lat="40.0712879" lon="-105.2300444">
  <ele>1583.0</ele>
  <time>2026-08-28T17:50:27Z</time>
  <course>245.99</course>
  <speed>0.68</speed>
  <fix>3d</fix>
</trkpt>
<trkpt lat="40.0712874" lon="-105.2300467">
  <ele>1583.01</ele>
  <time>2026-08-28T17:50:27Z</time>
  <course>247.15</course>
  <speed>0.6592419889539803</speed>
  <fix>3d</fix>
</trkpt>
<trkpt lat="40.0712874" lon="-105.2300459">
  <ele>1583.0</ele>
  <time>2026-08-28T17:50:27Z</time>
  <course>245.99</course>
  <speed>0.68</speed>
  <fix>3d</fix>
</trkpt>
<trkpt lat="40.0712871" lon="-105.2300474">
  <ele>1583.01</ele>
  <time>2026-08-28T17:50:27Z</time>
  <course>247.15</course>
  <speed>0.6592419889539803</speed>
  <fix>3d</fix>
</trkpt>
<trkpt lat="40.0712874" lon="-105.2300459">
  <ele>1583.0</ele>
  <time>2026-08-28T17:50:27Z</time>
  <course>245.99</course>
  <speed>0.68</speed>
  <fix>3d</fix>
</trkpt>
<trkpt lat="40.0712869" lon="-105.2300482">
  <ele>1583.0</ele>
  <time>2026-08-28T17:50:27Z</time>
  <course>247.15</course>
  <speed>0.6592419889539803</speed>
  <fix>3d</fix>
</trkpt>
<trkpt lat="40.0712869" lon="-105.2300473">
  <ele>1583.0</ele>
  <time>2026-08-28T17:50:27Z</time>
  <course>245.99</course>
  <speed>0.68</speed>
  <fix>3d</fix>
</trkpt>
<trkpt lat="40.0712866" lon="-105.2300489">
  <ele>1583.0</ele>
  <time>2026-08-28T17:50:27Z</time>
  <course>247.15</course>
  <speed>0.6592419889539803</speed>
  <fix>3d</fix>
</trkpt>
<trkpt lat="40.0712869" lon="-105.2300473">
  <ele>1583.0</ele>
  <time>2026-08-28T17:50:27Z</time>
  <course>245.99</course>
  <speed>0.68</speed>
  <fix>3d</fix>
</trkpt>
<trkpt lat="40.0712864" lon="-105.2300496">
  <ele>1583.0</ele>
  <time>2026-08-28T17:50:27Z</time>
  <course>247.14</course>
  <speed>0.6592419889539803</speed>
  <fix>3d</fix>
</trkpt>
<trkpt lat="40.0712864" lon="-105.2300488">
  <ele>1583.0</ele>
  <time>2026-08-28T17:50:27Z</time>
  <course>245.99</course>
  <speed>0.68</speed>
  <fix>3d</fix>
</trkpt>
<trkpt lat="40.0712861" lon="-105.2300504">
  <ele>1583.0</ele>
  <time>2026-08-28T17:50:27Z</time>
  <course>247.14</course>
  <speed>0.6592419889539803</speed>
  <fix>3d</fix>
</trkpt>
<trkpt lat="40.0712864" lon="-105.2300488">
  <ele>1583.0</ele>
  <time>2026-08-28T17:50:27Z</time>
  <course>245.99</course>
  <speed>0.68</speed>
  <fix>3d</fix>
</trkpt>
<trkpt lat="40.0712858" lon="-105.2300511">
  <ele>1583.0</ele>
  <time>2026-08-28T17:50:27Z</time>
  <course>247.14</course>
  <speed>0.6592419889539803</speed>
  <fix>3d</fix>
</trkpt>
<trkpt lat="40.0712859" lon="-105.2300503">
  <ele>1583.0</ele>
  <time>2026-08-28T17:50:27Z</time>
  <course>245.99</course>
  <speed>0.68</speed>
  <fix>3d</fix>
</trkpt>
<trkpt lat="40.0712856" lon="-105.2300518">
  <ele>1583.01</ele>
  <time>2026-08-28T17:50:27Z</time>
  <course>247.14</course>
  <speed>0.6592419889539803</speed>
  <fix>3d</fix>
</trkpt>
<trkpt lat="40.0712859" lon="-105.2300503">
  <ele>1583.0</ele>
  <time>2026-08-28T17:50:27Z</time>
  <course>245.99</course>
  <speed>0.68</speed>
  <fix>3d</fix>
</trkpt>
<trkpt lat="40.0712853" lon="-105.2300526">
  <ele>1583.01</ele>
  <time>2026-08-28T17:50:27Z</time>
  <course>247.14</course>
  <speed>0.6592419889539803</speed>
  <fix>3d</fix>
</trkpt>
<trkpt lat="40.0712854" lon="-105.2300518">
  <ele>1583.0</ele>
  <time>2026-08-28T17:50:27Z</time>
  <course>245.99</course>
  <speed>0.68</speed>
  <fix>3d</fix>
</trkpt>
<trkpt lat="40.0712851" lon="-105.2300533">
  <ele>1583.01</ele>
  <time>2026-08-28T17:50:27Z</time>
  <course>247.14</course>
  <speed>0.6592419889539803</speed>
  <fix>3d</fix>
</trkpt>
<trkpt lat="40.0712854" lon="-105.2300518">
  <ele>1583.0</ele>
  <time>2026-08-28T17:50:27Z</time>
  <course>245.99</course>
  <speed>0.68</speed>
  <fix>3d</fix>
</trkpt>
<trkpt lat="40.0712848" lon="-105.2300541">
  <ele>1583.02</ele>
  <time>2026-08-28T17:50:27Z</time>
  <course>247.14</course>
  <speed>0.6592419889539803</speed>
  <fix>3d</fix>
</trkpt>
<trkpt lat="40.0712849" lon="-105.2300532">
  <ele>1583.0</ele>
  <time>2026-08-28T17:50:27Z</time>
  <course>245.99</course>
  <speed>0.68</speed>
  <fix>3d</fix>
</trkpt>
<trkpt lat="40.0712846" lon="-105.2300548">
  <ele>1583.02</ele>
  <time>2026-08-28T17:50:27Z</time>
  <course>247.14</course>
  <speed>0.6592419889539803</speed>
  <fix>3d</fix>
</trkpt>
<trkpt lat="40.0712849" lon="-105.2300532">
  <ele>1583.0</ele>
  <time>2026-08-28T17:50:27Z</time>
  <course>245.99</course>
  <speed>0.68</speed>
  <fix>3d</fix>
</trkpt>
<trkpt lat="40.0712843" lon="-105.2300555">
  <ele>1583.02</ele>
  <time>2026-08-28T17:50:27Z</time>
  <course>247.14</course>
  <speed>0.6592419889539803</speed>
  <fix>3d</fix>
</trkpt>
<trkpt lat="40.0712844" lon="-105.2300547">
  <ele>1583.0</ele>
  <time>2026-08-28T17:50:27Z</time>
  <course>245.99</course>
  <speed>0.68</speed>
  <fix>3d</fix>
</trkpt>
<trkpt lat="40.0712841" lon="-105.2300563">
  <ele>1583.02</ele>
  <time>2026-08-28T17:50:27Z</time>
  <course>247.14</course>
  <speed>0.6592419889539803</speed>
  <fix>3d</fix>
</trkpt>
<trkpt lat="40.0712844" lon="-105.2300547">
  <ele>1583.0</ele>
  <time>2026-08-28T17:50:27Z</time>
  <course>245.99</course>
  <speed>0.68</speed>
  <fix>3d</fix>
</trkpt>
<trkpt lat="40.0712838" lon="-105.230057">
  <ele>1583.02</ele>
  <time>2026-08-28T17:50:27Z</time>
  <course>247.14</course>
  <speed>0.6592419889539803</speed>
  <fix>3d</fix>
</trkpt>
<trkpt lat="40.0712844" lon="-105.2300547">
  <ele>1583.0</ele>
  <time>2026-08-28T17:50:27Z</time>
  <course>245.99</course>
  <speed>0.68</speed>
  <fix>3d</fix>
</trkpt>
<trkpt lat="40.0712836" lon="-105.2300577">
  <ele>1583.02</ele>
  <time>2026-08-28T17:50:27Z</time>
  <course>247.14</course>
  <speed>0.6592419889539803</speed>
  <fix>3d</fix>
</trkpt>
<trkpt lat="40.0712839" lon="-105.2300561">
  <ele>1583.0</ele>
  <time>2026-08-28T17:50:27Z</time>
  <course>245.99</course>
  <speed>0.68</speed>
  <fix>3d</fix>
</trkpt>
<trkpt lat="40.0712833" lon="-105.2300585">
  <ele>1583.02</ele>
  <time>2026-08-28T17:50:27Z</time>
  <course>247.14</course>
  <speed>0.6592419889539803</speed>
  <fix>3d</fix>
</trkpt>
<trkpt lat="40.0712839" lon="-105.2300561">
  <ele>1583.0</ele>
  <time>2026-08-28T17:50:27Z</time>
  <course>245.99</course>
  <speed>0.68</speed>
  <fix>3d</fix>
</trkpt>
<trkpt lat="40.0712831" lon="-105.2300592">
  <ele>1583.03</ele>
  <time>2026-08-28T17:50:27Z</time>
  <course>247.14</course>
  <speed>0.6592419889539803</speed>
  <fix>3d</fix>
</trkpt>
<trkpt lat="40.0712834" lon="-105.2300576">
  <ele>1583.0</ele>
  <time>2026-08-28T17:50:27Z</time>
  <course>245.99</course>
  <speed>0.68</speed>
  <fix>3d</fix>
</trkpt>
<trkpt lat="40.0712828" lon="-105.2300599">
  <ele>1583.03</ele>
  <time>2026-08-28T17:50:27Z</time>
  <course>247.14</course>
  <speed>0.6369458375717671</speed>
  <fix>3d</fix>
</trkpt>
<trkpt lat="40.0712834" lon="-105.2300576">
  <ele>1583.0</ele>
  <time>2026-08-28T17:50:27Z</time>
  <course>245.99</course>
  <speed>0.68</speed>
  <fix>3d</fix>
</trkpt>
<trkpt lat="40.0712826" lon="-105.2300606">
  <ele>1583.03</ele>
  <time>2026-08-28T17:50:27Z</time>
  <course>247.16</course>
  <speed>0.6053924347066124</speed>
  <fix>3d</fix>
</trkpt>
<trkpt lat="40.0712829" lon="-105.2300591">
  <ele>1583.0</ele>
  <time>2026-08-28T17:50:27Z</time>
  <course>246.0</course>
  <speed>0.67</speed>
  <fix>3d</fix>
</trkpt>
<trkpt lat="40.0712824" lon="-105.2300612">
  <ele>1583.03</ele>
  <time>2026-08-28T17:50:27Z</time>
  <course>247.17</course>
  <speed>0.5608029957123981</speed>
  <fix>3d</fix>
</trkpt>
<trkpt lat="40.0712829" lon="-105.2300591">
  <ele>1583.0</ele>
  <time>2026-08-28T17:50:27Z</time>
  <course>246.0</course>
  <speed>0.67</speed>
  <fix>3d</fix>
</trkpt>
<trkpt lat="40.0712821" lon="-105.2300618">
  <ele>1583.03</ele>
  <time>2026-08-28T17:50:27Z</time>
  <course>247.2</course>
  <speed>0.49769468552517215</speed>
  <fix>3d</fix>
</trkpt>
<trkpt lat="40.0712824" lon="-105.2300605">
  <ele>1583.0</ele>
  <time>2026-08-28T17:50:27Z</time>
  <course>246.01</course>
  <speed>0.62</speed>
  <fix>3d</fix>
</trkpt>
<trkpt lat="40.071282" lon="-105.2300623">
  <ele>1583.04</ele>
  <time>2026-08-28T17:50:27Z</time>
  <course>247.22</course>
  <speed>0.4308131845707603</speed>
  <fix>3d</fix>
</trkpt>
<trkpt lat="40.0712821" lon="-105.2300617">
  <ele>1583.0</ele>
  <time>2026-08-28T17:50:27Z</time>
  <course>246.05</course>
  <speed>0.52</speed>
  <fix>3d</fix>
</trkpt>
<trkpt lat="40.0712818" lon="-105.2300628">
  <ele>1583.04</ele>
  <time>2026-08-28T17:50:27Z</time>
  <course>247.25</course>
  <speed>0.354682957019364</speed>
  <fix>3d</fix>
</trkpt>
<trkpt lat="40.0712821" lon="-105.2300617">
  <ele>1583.0</ele>
  <time>2026-08-28T17:50:27Z</time>
  <course>246.05</course>
  <speed>0.52</speed>
  <fix>3d</fix>
</trkpt>
<trkpt lat="40.0712817" lon="-105.2300631">
  <ele>1583.05</ele>
  <time>2026-08-28T17:50:27Z</time>
  <course>247.28</course>
  <speed>0.291547594742265</speed>
  <fix>3d</fix>
</trkpt>
<trkpt lat="40.0712817" lon="-105.2300627">
  <ele>1583.0</ele>
  <time>2026-08-28T17:50:27Z</time>
  <course>246.1</course>
  <speed>0.38</speed>
  <fix>3d</fix>
</trkpt>
<trkpt lat="40.0712816" lon="-105.2300634">
  <ele>1583.05</ele>
  <time>2026-08-28T17:50:27Z</time>
  <course>247.3</course>
  <speed>0.23769728648009425</speed>
  <fix>3d</fix>
</trkpt>
<trkpt lat="40.0712817" lon="-105.2300627">
  <ele>1583.0</ele>
  <time>2026-08-28T17:50:27Z</time>
  <course>246.1</course>
  <speed>0.38</speed>
  <fix>3d</fix>
</trkpt>
<trkpt lat="40.0712815" lon="-105.2300636">
  <ele>1583.05</ele>
  <time>2026-08-28T17:50:27Z</time>
  <course>247.33</course>
  <speed>0.19313207915827968</speed>
  <fix>3d</fix>
</trkpt>
<trkpt lat="40.0712815" lon="-105.2300634">
  <ele>1583.0</ele>
  <time>2026-08-28T17:50:27Z</time>
  <course>246.16</course>
  <speed>0.27</speed>
  <fix>3d</fix>
</trkpt>
<trkpt lat="40.0712814" lon="-105.2300639">
  <ele>1583.05</ele>
  <time>2026-08-28T17:50:27Z</time>
  <course>247.35</course>
  <speed>0.1615549442140351</speed>
  <fix>3d</fix>
</trkpt>
<trkpt lat="40.0712815" lon="-105.2300634">
  <ele>1583.0</ele>
  <time>2026-08-28T17:50:27Z</time>
  <course>246.16</course>
  <speed>0.27</speed>
  <fix>3d</fix>
</trkpt>
<trkpt lat="40.0712814" lon="-105.230064">
  <ele>1583.05</ele>
  <time>2026-08-28T17:50:27Z</time>
  <course>247.37</course>
  <speed>0.1392838827718412</speed>
  <fix>3d</fix>
</trkpt>
<trkpt lat="40.0712813" lon="-105.2300639">
  <ele>1583.0</ele>
  <time>2026-08-28T17:50:27Z</time>
  <course>246.2</course>
  <speed>0.19</speed>
  <fix>3d</fix>
</trkpt>
<trkpt lat="40.0712813" lon="-105.2300642">
  <ele>1583.05</ele>
  <time>2026-08-28T17:50:27Z</time>
  <course>247.39</course>
  <speed>0.1264911064067352</speed>
  <fix>3d</fix>
</trkpt>
<trkpt lat="40.0712813" lon="-105.2300639">
  <ele>1583.0</ele>
  <time>2026-08-28T17:50:27Z</time>
  <course>246.2</course>
  <speed>0.19</speed>
  <fix>3d</fix>
</trkpt>
<trkpt lat="40.0712813" lon="-105.2300643">
  <ele>1583.05</ele>
  <time>2026-08-28T17:50:27Z</time>
  <course>247.41</course>
  <speed>0.1264911064067352</speed>
  <fix>3d</fix>
</trkpt>
<trkpt lat="40.0712812" lon="-105.2300643">
  <ele>1583.0</ele>
  <time>2026-08-28T17:50:27Z</time>
  <course>246.25</course>
  <speed>0.16</speed>
  <fix>3d</fix>
</trkpt>
<trkpt lat="40.0712812" lon="-105.2300645">
  <ele>1583.05</ele>
  <time>2026-08-28T17:50:27Z</time>
  <course>247.43</course>
  <speed>0.1264911064067352</speed>
  <fix>3d</fix>
</trkpt>
<trkpt lat="40.0712812" lon="-105.2300643">
  <ele>1583.0</ele>
  <time>2026-08-28T17:50:27Z</time>
  <course>246.25</course>
  <speed>0.16</speed>
  <fix>3d</fix>
</trkpt>
<trkpt lat="40.0712812" lon="-105.2300647">
  <ele>1583.05</ele>
  <time>2026-08-28T17:50:27Z</time>
  <course>247.45</course>
  <speed>0.13601470508735444</speed>
  <fix>3d</fix>
</trkpt>
<trkpt lat="40.0712811" lon="-105.2300647">
  <ele>1583.0</ele>
  <time>2026-08-28T17:50:27Z</time>
  <course>246.29</course>
  <speed>0.16</speed>
  <fix>3d</fix>
</trkpt>
<trkpt lat="40.0712811" lon="-105.2300648">
  <ele>1583.05</ele>
  <time>2026-08-28T17:50:27Z</time>
  <course>247.48</course>
  <speed>0.14866068747318506</speed>
  <fix>3d</fix>
</trkpt>
<trkpt lat="40.0712811" lon="-105.2300647">
  <ele>1583.0</ele>
  <time>2026-08-28T17:50:27Z</time>
  <course>246.29</course>
  <speed>0.16</speed>
  <fix>3d</fix>
</trkpt>
<trkpt lat="40.071281" lon="-105.230065">
  <ele>1583.05</ele>
  <time>2026-08-28T17:50:27Z</time>
  <course>247.5</course>
  <speed>0.1676305461424021</speed>
  <fix>3d</fix>
</trkpt>
<trkpt lat="40.071281" lon="-105.230065">
  <ele>1583.0</ele>
  <time>2026-08-28T17:50:27Z</time>
  <course>246.34</course>
  <speed>0.18</speed>
  <fix>3d</fix>
</trkpt>
<trkpt lat="40.071281" lon="-105.2300653">
  <ele>1583.05</ele>
  <time>2026-08-28T17:50:27Z</time>
  <course>247.54</course>
  <speed>0.18973665961010278</speed>
  <fix>3d</fix>
</trkpt>
<trkpt lat="40.071281" lon="-105.230065">
  <ele>1583.0</ele>
  <time>2026-08-28T17:50:27Z</time>
  <course>246.34</course>
  <speed>0.18</speed>
  <fix>3d</fix>
</trkpt>
<trkpt lat="40.0712809" lon="-105.2300655">
  <ele>1583.05</ele>
  <time>2026-08-28T17:50:27Z</time>
  <course>247.57</course>
  <speed>0.22135943621178655</speed>
  <fix>3d</fix>
</trkpt>
<trkpt lat="40.071281" lon="-105.230065">
  <ele>1583.0</ele>
  <time>2026-08-28T17:50:27Z</time>
  <course>246.34</course>
  <speed>0.18</speed>
  <fix>3d</fix>
</trkpt>
<trkpt lat="40.0712808" lon="-105.2300658">
  <ele>1583.05</ele>
  <time>2026-08-28T17:50:27Z</time>
  <course>247.61</course>
  <speed>0.2529822128134704</speed>
  <fix>3d</fix>
</trkpt>
<trkpt lat="40.0712808" lon="-105.2300654">
  <ele>1583.0</ele>
  <time>2026-08-28T17:50:27Z</time>
  <course>246.4</course>
  <speed>0.22</speed>
  <fix>3d</fix>
</trkpt>
<trkpt lat="40.0712807" lon="-105.2300661">
  <ele>1583.05</ele>
  <time>2026-08-28T17:50:27Z</time>
  <course>247.66</course>
  <speed>0.28460498941515416</speed>
  <fix>3d</fix>
</trkpt>
<trkpt lat="40.0712808" lon="-105.2300654">
  <ele>1583.0</ele>
  <time>2026-08-28T17:50:27Z</time>
  <course>246.4</course>
  <speed>0.22</speed>
  <fix>3d</fix>
</trkpt>
<trkpt lat="40.0712806" lon="-105.2300665">
  <ele>1583.04</ele>
  <time>2026-08-28T17:50:27Z</time>
  <course>247.71</course>
  <speed>0.3195309061734092</speed>
  <fix>3d</fix>
</trkpt>
<trkpt lat="40.0712807" lon="-105.230066">
  <ele>1583.0</ele>
  <time>2026-08-28T17:50:27Z</time>
  <course>246.48</course>
  <speed>0.28</speed>
  <fix>3d</fix>
</trkpt>
<trkpt lat="40.0712805" lon="-105.2300669">
  <ele>1583.04</ele>
  <time>2026-08-28T17:50:27Z</time>
  <course>247.77</course>
  <speed>0.35114099732158877</speed>
  <fix>3d</fix>
</trkpt>
<trkpt lat="40.0712807" lon="-105.230066">
  <ele>1583.0</ele>
  <time>2026-08-28T17:50:27Z</time>
  <course>246.48</course>
  <speed>0.28</speed>
  <fix>3d</fix>
</trkpt>
<trkpt lat="40.0712803" lon="-105.2300673">
  <ele>1583.04</ele>
  <time>2026-08-28T17:50:27Z</time>
  <course>247.84</course>
  <speed>0.3827531841800928</speed>
  <fix>3d</fix>
</trkpt>
<trkpt lat="40.0712804" lon="-105.2300667">
  <ele>1583.0</ele>
  <time>2026-08-28T17:50:27Z</time>
  <course>246.58</course>
  <speed>0.35</speed>
  <fix>3d</fix>
</trkpt>
<trkpt lat="40.0712802" lon="-105.2300678">
  <ele>1583.04</ele>
  <time>2026-08-28T17:50:27Z</time>
  <course>247.92</course>
  <speed>0.42379240200834184</speed>
  <fix>3d</fix>
</trkpt>
<trkpt lat="40.0712801" lon="-105.2300675">
  <ele>1583.0</ele>
  <time>2026-08-28T17:50:27Z</time>
  <course>246.71</course>
  <speed>0.41</speed>
  <fix>3d</fix>
</trkpt>
<trkpt lat="40.07128" lon="-105.2300684">
  <ele>1583.04</ele>
  <time>2026-08-28T17:50:27Z</time>
  <course>248.01</course>
  <speed>0.45880278987817846</speed>
  <fix>3d</fix>
</trkpt>
<trkpt lat="40.0712801" lon="-105.2300675">
  <ele>1583.0</ele>
  <time>2026-08-28T17:50:27Z</time>
  <course>246.71</course>
  <speed>0.41</speed>
  <fix>3d</fix>
</trkpt>
<trkpt lat="40.0712799" lon="-105.2300689">
  <ele>1583.04</ele>
  <time>2026-08-28T17:50:27Z</time>
  <course>248.11</course>
  <speed>0.49040799340956914</speed>
  <fix>3d</fix>
</trkpt>
<trkpt lat="40.0712798" lon="-105.2300685">
  <ele>1583.0</ele>
  <time>2026-08-28T17:50:27Z</time>
  <course>246.88</course>
  <speed>0.48</speed>
  <fix>3d</fix>
</trkpt>
<trkpt lat="40.0712797" lon="-105.2300695">
  <ele>1583.04</ele>
  <time>2026-08-28T17:50:27Z</time>
  <course>248.23</course>
  <speed>0.5220153254455275</speed>
  <fix>3d</fix>
</trkpt>
<trkpt lat="40.0712798" lon="-105.2300685">
  <ele>1583.0</ele>
  <time>2026-08-28T17:50:27Z</time>
  <course>246.88</course>
  <speed>0.48</speed>
  <fix>3d</fix>
</trkpt>
<trkpt lat="40.0712795" lon="-105.2300701">
  <ele>1583.04</ele>
  <time>2026-08-28T17:50:27Z</time>
  <course>248.37</course>
  <speed>0.5536244214266564</speed>
  <fix>3d</fix>
</trkpt>
<trkpt lat="40.0712795" lon="-105.2300697">
  <ele>1583.0</ele>
  <time>2026-08-28T17:50:27Z</time>
  <course>247.11</course>
  <speed>0.55</speed>
  <fix>3d</fix>
</trkpt>
<trkpt lat="40.0712793" lon="-105.2300708">
  <ele>1583.04</ele>
  <time>2026-08-28T17:50:27Z</time>
  <course>248.52</course>
  <speed>0.5852349955359812</speed>
  <fix>3d</fix>
</trkpt>
<trkpt lat="40.0712795" lon="-105.2300697">
  <ele>1583.0</ele>
  <time>2026-08-28T17:50:27Z</time>
  <course>247.11</course>
  <speed>0.55</speed>
  <fix>3d</fix>
</trkpt>
<trkpt lat="40.0712791" lon="-105.2300715">
  <ele>1583.04</ele>
  <time>2026-08-28T17:50:27Z</time>
  <course>248.71</course>
  <speed>0.6168468205316454</speed>
  <fix>3d</fix>
</trkpt>
<trkpt lat="40.0712791" lon="-105.2300709">
  <ele>1583.0</ele>
  <time>2026-08-28T17:50:27Z</time>
  <course>247.41</course>
  <speed>0.61</speed>
  <fix>3d</fix>
</trkpt>
<trkpt lat="40.0712788" lon="-105.2300723">
  <ele>1583.04</ele>
  <time>2026-08-28T17:50:27Z</time>
  <course>248.91</course>
  <speed>0.648459713474939</speed>
  <fix>3d</fix>
</trkpt>
<trkpt lat="40.0712791" lon="-105.2300709">
  <ele>1583.0</ele>
  <time>2026-08-28T17:50:27Z</time>
  <course>247.41</course>
  <speed>0.61</speed>
  <fix>3d</fix>
</trkpt>
<trkpt lat="40.0712786" lon="-105.230073">
  <ele>1583.04</ele>
  <time>2026-08-28T17:50:27Z</time>
  <course>249.15</course>
  <speed>0.6767569726275453</speed>
  <fix>3d</fix>
</trkpt>
<trkpt lat="40.0712786" lon="-105.2300722">
  <ele>1583.0</ele>
  <time>2026-08-28T17:50:27Z</time>
  <course>247.8</course>
  <speed>0.66</speed>
  <fix>3d</fix>
</trkpt>
<trkpt lat="40.0712784" lon="-105.2300738">
  <ele>1583.05</ele>
  <time>2026-08-28T17:50:27Z</time>
  <course>249.43</course>
  <speed>0.6989277502002621</speed>
  <fix>3d</fix>
</trkpt>
<trkpt lat="40.0712786" lon="-105.2300722">
  <ele>1583.0</ele>
  <time>2026-08-28T17:50:27Z</time>
  <course>247.8</course>
  <speed>0.66</speed>
  <fix>3d</fix>
</trkpt>
<trkpt lat="40.0712781" lon="-105.2300746">
  <ele>1583.05</ele>
  <time>2026-08-28T17:50:27Z</time>
  <course>249.75</course>
  <speed>0.7273238618387272</speed>
  <fix>3d</fix>
</trkpt>
<trkpt lat="40.0712781" lon="-105.2300737">
  <ele>1583.0</ele>
  <time>2026-08-28T17:50:27Z</time>
  <course>248.33</course>
  <speed>0.72</speed>
  <fix>3d</fix>
</trkpt>
<trkpt lat="40.0712779" lon="-105.2300755">
  <ele>1583.05</ele>
  <time>2026-08-28T17:50:27Z</time>
  <course>250.12</course>
  <speed>0.7494664769020694</speed>
  <fix>3d</fix>
</trkpt>
<trkpt lat="40.0712781" lon="-105.2300737">
  <ele>1583.0</ele>
  <time>2026-08-28T17:50:27Z</time>
  <course>248.33</course>
  <speed>0.72</speed>
  <fix>3d</fix>
</trkpt>
<trkpt lat="40.0712776" lon="-105.2300764">
  <ele>1583.05</ele>
  <time>2026-08-28T17:50:27Z</time>
  <course>250.55</course>
  <speed>0.7684399781375251</speed>
  <fix>3d</fix>
</trkpt>
<trkpt lat="40.0712776" lon="-105.2300754">
  <ele>1583.0</ele>
  <time>2026-08-28T17:50:27Z</time>
  <course>249.03</course>
  <speed>0.76</speed>
  <fix>3d</fix>
</trkpt>
<trkpt lat="40.0712774" lon="-105.2300773">
  <ele>1583.04</ele>
  <time>2026-08-28T17:50:27Z</time>
  <course>251.06</course>
  <speed>0.7874642849044012</speed>
  <fix>3d</fix>
</trkpt>
<trkpt lat="40.0712776" lon="-105.2300754">
  <ele>1583.0</ele>
  <time>2026-08-28T17:50:27Z</time>
  <course>249.03</course>
  <speed>0.76</speed>
  <fix>3d</fix>
</trkpt>
<trkpt lat="40.0712771" lon="-105.2300782">
  <ele>1583.04</ele>
  <time>2026-08-28T17:50:27Z</time>
  <course>251.65</course>
  <speed>0.8065358020571685</speed>
  <fix>3d</fix>
</trkpt>
<trkpt lat="40.0712776" lon="-105.2300754">
  <ele>1583.0</ele>
  <time>2026-08-28T17:50:27Z</time>
  <course>249.03</course>
  <speed>0.76</speed>
  <fix>3d</fix>
</trkpt>
<trkpt lat="40.0712769" lon="-105.2300791">
  <ele>1583.04</ele>
  <time>2026-08-28T17:50:27Z</time>
  <course>252.35</course>
  <speed>0.8228000972289685</speed>
  <fix>3d</fix>
</trkpt>
<trkpt lat="40.0712771" lon="-105.2300772">
  <ele>1583.0</ele>
  <time>2026-08-28T17:50:27Z</time>
  <course>249.99</course>
  <speed>0.8</speed>
  <fix>3d</fix>
</trkpt>
<trkpt lat="40.0712766" lon="-105.2300801">
  <ele>1583.04</ele>
  <time>2026-08-28T17:50:27Z</time>
  <course>253.17</course>
  <speed>0.8420213774008353</speed>
  <fix>3d</fix>
</trkpt>
<trkpt lat="40.0712771" lon="-105.2300772">
  <ele>1583.0</ele>
  <time>2026-08-28T17:50:27Z</time>
  <course>249.99</course>
  <speed>0.8</speed>
  <fix>3d</fix>
</trkpt>
<trkpt lat="40.0712764" lon="-105.2300811">
  <ele>1583.03</ele>
  <time>2026-08-28T17:50:27Z</time>
  <course>254.13</course>
  <speed>0.8683317338436964</speed>
  <fix>3d</fix>
</trkpt>
<trkpt lat="40.0712766" lon="-105.230079">
  <ele>1583.0</ele>
  <time>2026-08-28T17:50:27Z</time>
  <course>251.31</course>
  <speed>0.84</speed>
  <fix>3d</fix>
</trkpt>
<trkpt lat="40.0712762" lon="-105.2300821">
  <ele>1583.03</ele>
  <time>2026-08-28T17:50:27Z</time>
  <course>255.28</course>
  <speed>0.8852683209061533</speed>
  <fix>3d</fix>
</trkpt>
<trkpt lat="40.0712766" lon="-105.230079">
  <ele>1583.0</ele>
  <time>2026-08-28T17:50:27Z</time>
  <course>251.31</course>
  <speed>0.84</speed>
  <fix>3d</fix>
</trkpt>
<trkpt lat="40.071276" lon="-105.2300831">
  <ele>1583.02</ele>
  <time>2026-08-28T17:50:27Z</time>
  <course>256.63</course>
  <speed>0.9002777349240623</speed>
  <fix>3d</fix>
</trkpt>
<trkpt lat="40.0712762" lon="-105.2300809">
  <ele>1583.0</ele>
  <time>2026-08-28T17:50:27Z</time>
  <course>253.14</course>
  <speed>0.88</speed>
  <fix>3d</fix>
</trkpt>
<trkpt lat="40.0712758" lon="-105.2300841">
  <ele>1583.02</ele>
  <time>2026-08-28T17:50:27Z</time>
  <course>258.25</course>
  <speed>0.9159148432032315</speed>
  <fix>3d</fix>
</trkpt>
<trkpt lat="40.0712762" lon="-105.2300809">
  <ele>1583.0</ele>
  <time>2026-08-28T17:50:27Z</time>
  <course>253.14</course>
  <speed>0.88</speed>
  <fix>3d</fix>
</trkpt>
<trkpt lat="40.0712756" lon="-105.2300852">
  <ele>1583.02</ele>
  <time>2026-08-28T17:50:27Z</time>
  <course>260.19</course>
  <speed>0.9305912099305473</speed>
  <fix>3d</fix>
</trkpt>
<trkpt lat="40.0712757" lon="-105.2300829">
  <ele>1583.0</ele>
  <time>2026-08-28T17:50:27Z</time>
  <course>255.7</course>
  <speed>0.91</speed>
  <fix>3d</fix>
</trkpt>
<trkpt lat="40.0712755" lon="-105.2300863">
  <ele>1583.02</ele>
  <time>2026-08-28T17:50:27Z</time>
  <course>262.47</course>
  <speed>0.9464142856064675</speed>
  <fix>3d</fix>
</trkpt>
<trkpt lat="40.0712754" lon="-105.2300851">
  <ele>1583.0</ele>
  <time>2026-08-28T17:50:27Z</time>
  <course>259.31</course>
  <speed>0.94</speed>
  <fix>3d</fix>
</trkpt>
<trkpt lat="40.0712753" lon="-105.2300875">
  <ele>1583.02</ele>
  <time>2026-08-28T17:50:27Z</time>
  <course>265.2</course>
  <speed>0.9718538984847466</speed>
  <fix>3d</fix>
</trkpt>
<trkpt lat="40.0712754" lon="-105.2300851">
  <ele>1583.0</ele>
  <time>2026-08-28T17:50:27Z</time>
  <course>259.31</course>
  <speed>0.94</speed>
  <fix>3d</fix>
</trkpt>
<trkpt lat="40.0712753" lon="-105.2300886">
  <ele>1583.02</ele>
  <time>2026-08-28T17:50:27Z</time>
  <course>268.42</course>
  <speed>0.9900505037623081</speed>
  <fix>3d</fix>
</trkpt>
<trkpt lat="40.0712752" lon="-105.2300873">
  <ele>1583.0</ele>
  <time>2026-08-28T17:50:27Z</time>
  <course>264.43</course>
  <speed>0.98</speed>
  <fix>3d</fix>
</trkpt>
<trkpt lat="40.0712753" lon="-105.2300898">
  <ele>1583.02</ele>
  <time>2026-08-28T17:50:27Z</time>
  <course>272.27</course>
  <speed>1.0012492197250393</speed>
  <fix>3d</fix>
</trkpt>
<trkpt lat="40.0712752" lon="-105.2300873">
  <ele>1583.0</ele>
  <time>2026-08-28T17:50:27Z</time>
  <course>264.43</course>
  <speed>0.98</speed>
  <fix>3d</fix>
</trkpt>
<trkpt lat="40.0712753" lon="-105.230091">
  <ele>1583.01</ele>
  <time>2026-08-28T17:50:27Z</time>
  <course>276.79</course>
  <speed>1.0183319694480775</speed>
  <fix>3d</fix>
</trkpt>
<trkpt lat="40.0712751" lon="-105.2300896">
  <ele>1583.0</ele>
  <time>2026-08-28T17:50:27Z</time>
  <course>271.64</course>
  <speed>1.01</speed>
  <fix>3d</fix>
</trkpt>
<trkpt lat="40.0712754" lon="-105.2300922">
  <ele>1583.01</ele>
  <time>2026-08-28T17:50:27Z</time>
  <course>281.95</course>
  <speed>1.035857133006285</speed>
  <fix>3d</fix>
</trkpt>
<trkpt lat="40.0712751" lon="-105.2300896">
  <ele>1583.0</ele>
  <time>2026-08-28T17:50:27Z</time>
  <course>271.64</course>
  <speed>1.01</speed>
  <fix>3d</fix>
</trkpt>
<trkpt lat="40.0712757" lon="-105.2300935">
  <ele>1583.01</ele>
  <time>2026-08-28T17:50:28Z</time>
  <course>287.82</course>
  <speed>1.0562196741208714</speed>
  <fix>3d</fix>
</trkpt>
<trkpt lat="40.0712752" lon="-105.230092">
  <ele>1583.0</ele>
  <time>2026-08-28T17:50:28Z</time>
  <course>281.35</course>
  <speed>1.04</speed>
  <fix>3d</fix>
</trkpt>
<trkpt lat="40.071276" lon="-105.2300946">
  <ele>1583.01</ele>
  <time>2026-08-28T17:50:28Z</time>
  <course>294.32</course>
  <speed>1.0735455276791945</speed>
  <fix>3d</fix>
</trkpt>
<trkpt lat="40.0712752" lon="-105.230092">
  <ele>1583.0</ele>
  <time>2026-08-28T17:50:28Z</time>
  <course>281.35</course>
  <speed>1.04</speed>
  <fix>3d</fix>
</trkpt>
<trkpt lat="40.0712765" lon="-105.2300958">
  <ele>1583.01</ele>
  <time>2026-08-28T17:50:28Z</time>
  <course>301.26</course>
  <speed>1.087566089945802</speed>
  <fix>3d</fix>
</trkpt>
<trkpt lat="40.0712757" lon="-105.2300944">
  <ele>1583.0</ele>
  <time>2026-08-28T17:50:28Z</time>
  <course>293.59</course>
  <speed>1.07</speed>
  <fix>3d</fix>
</trkpt>
<trkpt lat="40.071277" lon="-105.2300969">
  <ele>1583.0</ele>
  <time>2026-08-28T17:50:28Z</time>
  <course>308.3</course>
  <speed>1.108873302050329</speed>
  <fix>3d</fix>
</trkpt>
<trkpt lat="40.0712757" lon="-105.2300944">
  <ele>1583.0</ele>
  <time>2026-08-28T17:50:28Z</time>
  <course>293.59</course>
  <speed>1.07</speed>
  <fix>3d</fix>
</trkpt>
<trkpt lat="40.0712777" lon="-105.2300978">
  <ele>1583.0</ele>
  <time>2026-08-28T17:50:28Z</time>
  <course>315.45</course>
  <speed>1.124855546281388</speed>
  <fix>3d</fix>
</trkpt>
<trkpt lat="40.0712768" lon="-105.2300966">
  <ele>1583.0</ele>
  <time>2026-08-28T17:50:28Z</time>
  <course>307.41</course>
  <speed>1.1</speed>
  <fix>3d</fix>
</trkpt>
<trkpt lat="40.0712785" lon="-105.2300987">
  <ele>1583.0</ele>
  <time>2026-08-28T17:50:28Z</time>
  <course>322.69</course>
  <speed>1.1381124724736127</speed>
  <fix>3d</fix>
</trkpt>
<trkpt lat="40.0712768" lon="-105.2300966">
  <ele>1583.0</ele>
  <time>2026-08-28T17:50:28Z</time>
  <course>307.41</course>
  <speed>1.1</speed>
  <fix>3d</fix>
</trkpt>
<trkpt lat="40.0712794" lon="-105.2300994">
  <ele>1582.99</ele>
  <time>2026-08-28T17:50:28Z</time>
  <course>330.01</course>
  <speed>1.1548592987892508</speed>
  <fix>3d</fix>
</trkpt>
<trkpt lat="40.0712781" lon="-105.2300985">
  <ele>1583.0</ele>
  <time>2026-08-28T17:50:28Z</time>
  <course>321.78</course>
  <speed>1.13</speed>
  <fix>3d</fix>
</trkpt>
<trkpt lat="40.0712803" lon="-105.2301">
  <ele>1582.99</ele>
  <time>2026-08-28T17:50:28Z</time>
  <course>337.4</course>
  <speed>1.1681181447096864</speed>
  <fix>3d</fix>
</trkpt>
<trkpt lat="40.0712781" lon="-105.2300985">
  <ele>1583.0</ele>
  <time>2026-08-28T17:50:28Z</time>
  <course>321.78</course>
  <speed>1.13</speed>
  <fix>3d</fix>
</trkpt>
<trkpt lat="40.0712813" lon="-105.2301004">
  <ele>1582.99</ele>
  <time>2026-08-28T17:50:28Z</time>
  <course>344.86</course>
  <speed>1.1835962149314267</speed>
  <fix>3d</fix>
</trkpt>
<trkpt lat="40.0712781" lon="-105.2300985">
  <ele>1583.0</ele>
  <time>2026-08-28T17:50:28Z</time>
  <course>321.78</course>
  <speed>1.13</speed>
  <fix>3d</fix>
</trkpt>
<trkpt lat="40.0712824" lon="-105.2301007">
  <ele>1582.99</ele>
  <time>2026-08-28T17:50:28Z</time>
  <course>352.37</course>
  <speed>1.1871394189394942</speed>
  <fix>3d</fix>
</trkpt>
<trkpt lat="40.0712799" lon="-105.2300999">
  <ele>1583.0</ele>
  <time>2026-08-28T17:50:28Z</time>
  <course>336.51</course>
  <speed>1.15</speed>
  <fix>3d</fix>
</trkpt>
<trkpt lat="40.0712834" lon="-105.2301007">
  <ele>1582.98</ele>
  <time>2026-08-28T17:50:28Z</time>
  <course>359.91</course>
  <speed>1.1901680553602503</speed>
  <fix>3d</fix>
</trkpt>
<trkpt lat="40.0712799" lon="-105.2300999">
  <ele>1583.0</ele>
  <time>2026-08-28T17:50:28Z</time>
  <course>336.51</course>
  <speed>1.15</speed>
  <fix>3d</fix>
</trkpt>
<trkpt lat="40.0712845" lon="-105.2301006">
  <ele>1582.98</ele>
  <time>2026-08-28T17:50:28Z</time>
  <course>7.46</course>
  <speed>1.1921828718783036</speed>
  <fix>3d</fix>
</trkpt>
<trkpt lat="40.0712819" lon="-105.2301007">
  <ele>1583.0</ele>
  <time>2026-08-28T17:50:28Z</time>
  <course>351.47</course>
  <speed>1.17</speed>
  <fix>3d</fix>
</trkpt>
<trkpt lat="40.0712855" lon="-105.2301003">
  <ele>1582.98</ele>
  <time>2026-08-28T17:50:28Z</time>
  <course>15.02</course>
  <speed>1.1964113005150028</speed>
  <fix>3d</fix>
</trkpt>
<trkpt lat="40.0712819" lon="-105.2301007">
  <ele>1583.0</ele>
  <time>2026-08-28T17:50:28Z</time>
  <course>351.47</course>
  <speed>1.17</speed>
  <fix>3d</fix>
</trkpt>
<trkpt lat="40.0712865" lon="-105.2300999">
  <ele>1582.98</ele>
  <time>2026-08-28T17:50:28Z</time>
  <course>22.58</course>
  <speed>1.1870130580579137</speed>
  <fix>3d</fix>
</trkpt>
<trkpt lat="40.071284" lon="-105.2301007">
  <ele>1583.0</ele>
  <time>2026-08-28T17:50:28Z</time>
  <course>6.53</course>
  <speed>1.17</speed>
  <fix>3d</fix>
</trkpt>
<trkpt lat="40.0712874" lon="-105.2300993">
  <ele>1582.98</ele>
  <time>2026-08-28T17:50:28Z</time>
  <course>29.81</course>
  <speed>1.1833849753989611</speed>
  <fix>3d</fix>
</trkpt>
<trkpt lat="40.071286" lon="-105.2300999">
  <ele>1583.0</ele>
  <time>2026-08-28T17:50:28Z</time>
  <course>21.43</course>
  <speed>1.17</speed>
  <fix>3d</fix>
</trkpt>
<trkpt lat="40.0712882" lon="-105.2300985">
  <ele>1582.98</ele>
  <time>2026-08-28T17:50:28Z</time>
  <course>36.31</course>
  <speed>1.1780067911519017</speed>
  <fix>3d</fix>
</trkpt>
<trkpt lat="40.071286" lon="-105.2300999">
  <ele>1583.0</ele>
  <time>2026-08-28T17:50:28Z</time>
  <course>21.43</course>
  <speed>1.17</speed>
  <fix>3d</fix>
</trkpt>
<trkpt lat="40.071289" lon="-105.2300976">
  <ele>1582.98</ele>
  <time>2026-08-28T17:50:28Z</time>
  <course>42.13</course>
  <speed>1.1672617529928753</speed>
  <fix>3d</fix>
</trkpt>
<trkpt lat="40.0712879" lon="-105.2300987">
  <ele>1583.0</ele>
  <time>2026-08-28T17:50:28Z</time>
  <course>34.95</course>
  <speed>1.16</speed>
  <fix>3d</fix>
</trkpt>
<trkpt lat="40.0712897" lon="-105.2300966">
  <ele>1582.98</ele>
  <time>2026-08-28T17:50:28Z</time>
  <course>47.2</course>
  <speed>1.1684605256490268</speed>
  <fix>3d</fix>
</trkpt>
<trkpt lat="40.0712879" lon="-105.2300987">
  <ele>1583.0</ele>
  <time>2026-08-28T17:50:28Z</time>
  <course>34.95</course>
  <speed>1.16</speed>
  <fix>3d</fix>
</trkpt>
<trkpt lat="40.0712904" lon="-105.2300956">
  <ele>1582.97</ele>
  <time>2026-08-28T17:50:28Z</time>
  <course>51.62</course>
  <speed>1.1700427342623003</speed>
  <fix>3d</fix>
</trkpt>
<trkpt lat="40.0712895" lon="-105.230097">
  <ele>1583.0</ele>
  <time>2026-08-28T17:50:28Z</time>
  <course>45.89</course>
  <speed>1.16</speed>
  <fix>3d</fix>
</trkpt>
<trkpt lat="40.071291" lon="-105.2300944">
  <ele>1582.97</ele>
  <time>2026-08-28T17:50:28Z</time>
  <course>55.39</course>
  <speed>1.175967686630887</speed>
  <fix>3d</fix>
</trkpt>
<trkpt lat="40.0712895" lon="-105.230097">
  <ele>1583.0</ele>
  <time>2026-08-28T17:50:28Z</time>
  <course>45.89</course>
  <speed>1.16</speed>
  <fix>3d</fix>
</trkpt>
<trkpt lat="40.0712916" lon="-105.2300933">
  <ele>1582.97</ele>
  <time>2026-08-28T17:50:28Z</time>
  <course>58.59</course>
  <speed>1.1783462988442743</speed>
  <fix>3d</fix>
</trkpt>
<trkpt lat="40.0712909" lon="-105.2300949">
  <ele>1583.0</ele>
  <time>2026-08-28T17:50:28Z</time>
  <course>54.16</course>
  <speed>1.17</speed>
  <fix>3d</fix>
</trkpt>
<trkpt lat="40.0712921" lon="-105.230092">
  <ele>1582.97</ele>
  <time>2026-08-28T17:50:28Z</time>
  <course>61.31</course>
  <speed>1.194194289050153</speed>
  <fix>3d</fix>
</trkpt>
<trkpt lat="40.0712909" lon="-105.2300949">
  <ele>1583.0</ele>
  <time>2026-08-28T17:50:28Z</time>
  <course>54.16</course>
  <speed>1.17</speed>
  <fix>3d</fix>
</trkpt>
<trkpt lat="40.0712926" lon="-105.2300908">
  <ele>1582.97</ele>
  <time>2026-08-28T17:50:28Z</time>
  <course>63.57</course>
  <speed>1.2076837334335508</speed>
  <fix>3d</fix>
</trkpt>
<trkpt lat="40.071292" lon="-105.2300925">
  <ele>1583.0</ele>
  <time>2026-08-28T17:50:28Z</time>
  <course>60.14</course>
  <speed>1.19</speed>
  <fix>3d</fix>
</trkpt>
<trkpt lat="40.071293" lon="-105.2300895">
  <ele>1582.97</ele>
  <time>2026-08-28T17:50:28Z</time>
  <course>65.46</course>
  <speed>1.231665539016173</speed>
  <fix>3d</fix>
</trkpt>
<trkpt lat="40.071292" lon="-105.2300925">
  <ele>1583.0</ele>
  <time>2026-08-28T17:50:28Z</time>
  <course>60.14</course>
  <speed>1.19</speed>
  <fix>3d</fix>
</trkpt>
<trkpt lat="40.0712935" lon="-105.2300881">
  <ele>1582.98</ele>
  <time>2026-08-28T17:50:28Z</time>
  <course>67.03</course>
  <speed>1.2608727136392475</speed>
  <fix>3d</fix>
</trkpt>
<trkpt lat="40.071293" lon="-105.23009">
  <ele>1583.0</ele>
  <time>2026-08-28T17:50:28Z</time>
  <course>64.36</course>
  <speed>1.23</speed>
  <fix>3d</fix>
</trkpt>
<trkpt lat="40.0712939" lon="-105.2300867">
  <ele>1582.97</ele>
  <time>2026-08-28T17:50:28Z</time>
  <course>68.32</course>
  <speed>1.3038404810405297</speed>
  <fix>3d</fix>
</trkpt>
<trkpt lat="40.071293" lon="-105.23009">
  <ele>1583.0</ele>
  <time>2026-08-28T17:50:28Z</time>
  <course>64.36</course>
  <speed>1.23</speed>
  <fix>3d</fix>
</trkpt>
<trkpt lat="40.0712944" lon="-105.2300853">
  <ele>1582.98</ele>
  <time>2026-08-28T17:50:28Z</time>
  <course>69.39</course>
  <speed>1.3507405376311175</speed>
  <fix>3d</fix>
</trkpt>
<trkpt lat="40.0712939" lon="-105.2300873">
  <ele>1583.0</ele>
  <time>2026-08-28T17:50:28Z</time>
  <course>67.27</course>
  <speed>1.3</speed>
  <fix>3d</fix>
</trkpt>
<trkpt lat="40.0712948" lon="-105.2300838">
  <ele>1582.97</ele>
  <time>2026-08-28T17:50:28Z</time>
  <course>70.26</course>
  <speed>1.3978555004005242</speed>
  <fix>3d</fix>
</trkpt>
<trkpt lat="40.0712939" lon="-105.2300873">
  <ele>1583.0</ele>
  <time>2026-08-28T17:50:28Z</time>
  <course>67.27</course>
  <speed>1.3</speed>
  <fix>3d</fix>
</trkpt>
<trkpt lat="40.0712952" lon="-105.2300822">
  <ele>1582.97</ele>
  <time>2026-08-28T17:50:28Z</time>
  <course>70.98</course>
  <speed>1.4546477236774544</speed>
  <fix>3d</fix>
</trkpt>
<trkpt lat="40.0712939" lon="-105.2300873">
  <ele>1583.0</ele>
  <time>2026-08-28T17:50:28Z</time>
  <course>67.27</course>
  <speed>1.3</speed>
  <fix>3d</fix>
</trkpt>
<trkpt lat="40.0712957" lon="-105.2300805">
  <ele>1582.98</ele>
  <time>2026-08-28T17:50:28Z</time>
  <course>71.57</course>
  <speed>1.5147607071745688</speed>
  <fix>3d</fix>
</trkpt>
<trkpt lat="40.0712948" lon="-105.2300844">
  <ele>1583.0</ele>
  <time>2026-08-28T17:50:28Z</time>
  <course>69.24</course>
  <speed>1.4</speed>
  <fix>3d</fix>
</trkpt>
<trkpt lat="40.0712961" lon="-105.2300788">
  <ele>1582.98</ele>
  <time>2026-08-28T17:50:28Z</time>
  <course>72.03</course>
  <speed>1.5749285698088025</speed>
  <fix>3d</fix>
</trkpt>
<trkpt lat="40.0712948" lon="-105.2300844">
  <ele>1583.0</ele>
  <time>2026-08-28T17:50:28Z</time>
  <course>69.24</course>
  <speed>1.4</speed>
  <fix>3d</fix>
</trkpt>
<trkpt lat="40.0712966" lon="-105.2300771">
  <ele>1582.98</ele>
  <time>2026-08-28T17:50:28Z</time>
  <course>72.4</course>
  <speed>1.6446884203398529</speed>
  <fix>3d</fix>
</trkpt>
<trkpt lat="40.0712957" lon="-105.2300812">
  <ele>1583.0</ele>
  <time>2026-08-28T17:50:28Z</time>
  <course>70.56</course>
  <speed>1.51</speed>
  <fix>3d</fix>
</trkpt>
<trkpt lat="40.071297" lon="-105.2300752">
  <ele>1582.98</ele>
  <time>2026-08-28T17:50:28Z</time>
  <course>72.68</course>
  <speed>1.7174690681348528</speed>
  <fix>3d</fix>
</trkpt>
<trkpt lat="40.0712957" lon="-105.2300812">
  <ele>1583.0</ele>
  <time>2026-08-28T17:50:28Z</time>
  <course>70.56</course>
  <speed>1.51</speed>
  <fix>3d</fix>
</trkpt>
<trkpt lat="40.0712975" lon="-105.2300733">
  <ele>1582.97</ele>
  <time>2026-08-28T17:50:28Z</time>
  <course>72.9</course>
  <speed>1.7998055450520203</speed>
  <fix>3d</fix>
</trkpt>
<trkpt lat="40.0712967" lon="-105.2300776">
  <ele>1583.0</ele>
  <time>2026-08-28T17:50:28Z</time>
  <course>71.4</course>
  <speed>1.65</speed>
  <fix>3d</fix>
</trkpt>
<trkpt lat="40.0712981" lon="-105.2300712">
  <ele>1582.97</ele>
  <time>2026-08-28T17:50:28Z</time>
  <course>73.05</course>
  <speed>1.8821530224718712</speed>
  <fix>3d</fix>
</trkpt>
<trkpt lat="40.0712977" lon="-105.2300737">
  <ele>1583.0</ele>
  <time>2026-08-28T17:50:28Z</time>
  <course>71.91</course>
  <speed>1.8</speed>
  <fix>3d</fix>
</trkpt>
<trkpt lat="40.0712986" lon="-105.230069">
  <ele>1582.97</ele>
  <time>2026-08-28T17:50:28Z</time>
  <course>73.17</course>
  <speed>1.9645101170520858</speed>
  <fix>3d</fix>
</trkpt>
<trkpt lat="40.0712977" lon="-105.2300737">
  <ele>1583.0</ele>
  <time>2026-08-28T17:50:28Z</time>
  <course>71.91</course>
  <speed>1.8</speed>
  <fix>3d</fix>
</trkpt>
<trkpt lat="40.0712992" lon="-105.2300667">
  <ele>1582.97</ele>
  <time>2026-08-28T17:50:28Z</time>
  <course>73.24</course>
  <speed>2.0593445559206454</speed>
  <fix>3d</fix>
</trkpt>
<trkpt lat="40.0712987" lon="-105.2300695">
  <ele>1583.0</ele>
  <time>2026-08-28T17:50:28Z</time>
  <course>72.18</course>
  <speed>1.97</speed>
  <fix>3d</fix>
</trkpt>
<trkpt lat="40.0712998" lon="-105.2300643">
  <ele>1582.97</ele>
  <time>2026-08-28T17:50:28Z</time>
  <course>73.27</course>
  <speed>2.1541819793137256</speed>
  <fix>3d</fix>
</trkpt>
<trkpt lat="40.0712987" lon="-105.2300695">
  <ele>1583.0</ele>
  <time>2026-08-28T17:50:28Z</time>
  <course>72.18</course>
  <speed>1.97</speed>
  <fix>3d</fix>
</trkpt>
<trkpt lat="40.0713004" lon="-105.2300618">
  <ele>1582.97</ele>
  <time>2026-08-28T17:50:28Z</time>
  <course>73.27</course>
  <speed>2.249022009674427</speed>
  <fix>3d</fix>
</trkpt>
<trkpt lat="40.0712998" lon="-105.230065">
  <ele>1583.0</ele>
  <time>2026-08-28T17:50:28Z</time>
  <course>72.29</course>
  <speed>2.15</speed>
  <fix>3d</fix>
</trkpt>
<trkpt lat="40.071301" lon="-105.2300592">
  <ele>1582.97</ele>
  <time>2026-08-28T17:50:28Z</time>
  <course>73.27</course>
  <speed>2.3438643305447524</speed>
  <fix>3d</fix>
</trkpt>
<trkpt lat="40.0712998" lon="-105.230065">
  <ele>1583.0</ele>
  <time>2026-08-28T17:50:28Z</time>
  <course>72.29</course>
  <speed>2.15</speed>
  <fix>3d</fix>
</trkpt>
<trkpt lat="40.0713017" lon="-105.2300565">
  <ele>1582.97</ele>
  <time>2026-08-28T17:50:28Z</time>
  <course>73.24</course>
  <speed>2.4387086746883075</speed>
  <fix>3d</fix>
</trkpt>
<trkpt lat="40.071301" lon="-105.2300599">
  <ele>1583.0</ele>
  <time>2026-08-28T17:50:28Z</time>
  <course>72.29</course>
  <speed>2.34</speed>
  <fix>3d</fix>
</trkpt>
<trkpt lat="40.0713024" lon="-105.2300537">
  <ele>1582.97</ele>
  <time>2026-08-28T17:50:28Z</time>
  <course>73.2</course>
  <speed>2.5431083343027288</speed>
  <fix>3d</fix>
</trkpt>
<trkpt lat="40.071301" lon="-105.2300599">
  <ele>1583.0</ele>
  <time>2026-08-28T17:50:28Z</time>
  <course>72.29</course>
  <speed>2.34</speed>
  <fix>3d</fix>
</trkpt>
<trkpt lat="40.0713031" lon="-105.2300507">
  <ele>1582.97</ele>
  <time>2026-08-28T17:50:28Z</time>
  <course>73.13</course>
  <speed>2.6409278672466616</speed>
  <fix>3d</fix>
</trkpt>
<trkpt lat="40.0713024" lon="-105.2300545">
  <ele>1583.0</ele>
  <time>2026-08-28T17:50:28Z</time>
  <course>72.22</course>
  <speed>2.53</speed>
  <fix>3d</fix>
</trkpt>
<trkpt lat="40.0713039" lon="-105.2300476">
  <ele>1582.97</ele>
  <time>2026-08-28T17:50:28Z</time>
  <course>73.06</course>
  <speed>2.7357814240176426</speed>
  <fix>3d</fix>
</trkpt>
<trkpt lat="40.0713024" lon="-105.2300545">
  <ele>1583.0</ele>
  <time>2026-08-28T17:50:28Z</time>
  <course>72.22</course>
  <speed>2.53</speed>
  <fix>3d</fix>
</trkpt>
<trkpt lat="40.0713047" lon="-105.2300445">
  <ele>1582.98</ele>
  <time>2026-08-28T17:50:28Z</time>
  <course>72.98</course>
  <speed>2.843184833949422</speed>
  <fix>3d</fix>
</trkpt>
<trkpt lat="40.0713038" lon="-105.2300486">
  <ele>1583.0</ele>
  <time>2026-08-28T17:50:28Z</time>
  <course>72.09</course>
  <speed>2.72</speed>
  <fix>3d</fix>
</trkpt>
<trkpt lat="40.0713055" lon="-105.2300412">
  <ele>1582.98</ele>
  <time>2026-08-28T17:50:28Z</time>
  <course>72.86</course>
  <speed>2.9380435667293976</speed>
  <fix>3d</fix>
</trkpt>
<trkpt lat="40.0713038" lon="-105.2300486">
  <ele>1583.0</ele>
  <time>2026-08-28T17:50:28Z</time>
  <course>72.09</course>
  <speed>2.72</speed>
  <fix>3d</fix>
</trkpt>
<trkpt lat="40.0713063" lon="-105.2300379">
  <ele>1582.98</ele>
  <time>2026-08-28T17:50:28Z</time>
  <course>72.74</course>
  <speed>3.0359512512555273</speed>
  <fix>3d</fix>
</trkpt>
<trkpt lat="40.0713054" lon="-105.2300423">
  <ele>1583.0</ele>
  <time>2026-08-28T17:50:28Z</time>
  <course>71.89</course>
  <speed>2.92</speed>
  <fix>3d</fix>
</trkpt>
<trkpt lat="40.0713072" lon="-105.2300344">
  <ele>1582.99</ele>
  <time>2026-08-28T17:50:28Z</time>
  <course>72.61</course>
  <speed>3.133895339669147</speed>
  <fix>3d</fix>
</trkpt>
<trkpt lat="40.0713054" lon="-105.2300423">
  <ele>1583.0</ele>
  <time>2026-08-28T17:50:28Z</time>
  <course>71.89</course>
  <speed>2.92</speed>
  <fix>3d</fix>
</trkpt>
<trkpt lat="40.0713081" lon="-105.2300308">
  <ele>1582.99</ele>
  <time>2026-08-28T17:50:28Z</time>
  <course>72.48</course>
  <speed>3.228761372415125</speed>
  <fix>3d</fix>
</trkpt>
<trkpt lat="40.0713054" lon="-105.2300423">
  <ele>1583.0</ele>
  <time>2026-08-28T17:50:28Z</time>
  <course>71.89</course>
  <speed>2.92</speed>
  <fix>3d</fix>
</trkpt>
<trkpt lat="40.0713091" lon="-105.2300272">
  <ele>1583.0</ele>
  <time>2026-08-28T17:50:28Z</time>
  <course>72.35</course>
  <speed>3.3267401461490795</speed>
  <fix>3d</fix>
</trkpt>
<trkpt lat="40.0713071" lon="-105.2300355">
  <ele>1583.0</ele>
  <time>2026-08-28T17:50:28Z</time>
  <course>71.64</course>
  <speed>3.11</speed>
  <fix>3d</fix>
</trkpt>
<trkpt lat="40.07131" lon="-105.2300234">
  <ele>1583.0</ele>
  <time>2026-08-28T17:50:28Z</time>
  <course>72.21</course>
  <speed>3.4152598729818497</speed>
  <fix>3d</fix>
</trkpt>
<trkpt lat="40.0713071" lon="-105.2300355">
  <ele>1583.0</ele>
  <time>2026-08-28T17:50:28Z</time>
  <course>71.64</course>
  <speed>3.11</speed>
  <fix>3d</fix>
</trkpt>
<trkpt lat="40.071311" lon="-105.2300196">
  <ele>1583.0</ele>
  <time>2026-08-28T17:50:28Z</time>
  <course>72.07</course>
  <speed>3.513303288929096</speed>
  <fix>3d</fix>
</trkpt>
<trkpt lat="40.0713089" lon="-105.2300284">
  <ele>1583.0</ele>
  <time>2026-08-28T17:50:28Z</time>
  <course>71.38</course>
  <speed>3.3</speed>
  <fix>3d</fix>
</trkpt>
<trkpt lat="40.0713121" lon="-105.2300157">
  <ele>1583.0</ele>
  <time>2026-08-28T17:50:28Z</time>
  <course>71.95</course>
  <speed>3.601902275187377</speed>
  <fix>3d</fix>
</trkpt>
<trkpt lat="40.0713089" lon="-105.2300284">
  <ele>1583.0</ele>
  <time>2026-08-28T17:50:28Z</time>
  <course>71.38</course>
  <speed>3.3</speed>
  <fix>3d</fix>
</trkpt>
<trkpt lat="40.0713131" lon="-105.2300117">
  <ele>1583.0</ele>
  <time>2026-08-28T17:50:28Z</time>
  <course>71.82</course>
  <speed>3.7</speed>
  <fix>3d</fix>
</trkpt>
<trkpt lat="40.0713109" lon="-105.2300208">
  <ele>1583.0</ele>
  <time>2026-08-28T17:50:28Z</time>
  <course>71.11</course>
  <speed>3.49</speed>
  <fix>3d</fix>
</trkpt>
<trkpt lat="40.0713142" lon="-105.2300075">
  <ele>1583.0</ele>
  <time>2026-08-28T17:50:28Z</time>
  <course>71.7</course>
  <speed>3.7948649514837807</speed>
  <fix>3d</fix>
</trkpt>
<trkpt lat="40.0713109" lon="-105.2300208">
  <ele>1583.0</ele>
  <time>2026-08-28T17:50:28Z</time>
  <course>71.11</course>
  <speed>3.49</speed>
  <fix>3d</fix>
</trkpt>
<trkpt lat="40.0713154" lon="-105.2300033">
  <ele>1583.0</ele>
  <time>2026-08-28T17:50:28Z</time>
  <course>71.59</course>
  <speed>3.8835293226651455</speed>
  <fix>3d</fix>
</trkpt>
<trkpt lat="40.0713129" lon="-105.2300128">
  <ele>1583.0</ele>
  <time>2026-08-28T17:50:28Z</time>
  <course>70.86</course>
  <speed>3.68</speed>
  <fix>3d</fix>
</trkpt>
<trkpt lat="40.0713166" lon="-105.2299989">
  <ele>1582.99</ele>
  <time>2026-08-28T17:50:28Z</time>
  <course>71.47</course>
  <speed>3.9816705036956535</speed>
  <fix>3d</fix>
</trkpt>
<trkpt lat="40.0713152" lon="-105.2300044">
  <ele>1583.0</ele>
  <time>2026-08-28T17:50:28Z</time>
  <course>70.62</course>
  <speed>3.87</speed>
  <fix>3d</fix>
</trkpt>
<trkpt lat="40.0713178" lon="-105.2299944">
  <ele>1582.99</ele>
  <time>2026-08-28T17:50:28Z</time>
  <course>71.37</course>
  <speed>4.07982842776507</speed>
  <fix>3d</fix>
</trkpt>
<trkpt lat="40.0713152" lon="-105.2300044">
  <ele>1583.0</ele>
  <time>2026-08-28T17:50:28Z</time>
  <course>70.62</course>
  <speed>3.87</speed>
  <fix>3d</fix>
</trkpt>
<trkpt lat="40.071319" lon="-105.2299899">
  <ele>1582.99</ele>
  <time>2026-08-28T17:50:28Z</time>
  <course>71.26</course>
  <speed>4.178001914791327</speed>
  <fix>3d</fix>
</trkpt>
<trkpt lat="40.0713176" lon="-105.2299956">
  <ele>1583.0</ele>
  <time>2026-08-28T17:50:28Z</time>
  <course>70.4</course>
  <speed>4.07</speed>
  <fix>3d</fix>
</trkpt>
<trkpt lat="40.0713203" lon="-105.2299852">
  <ele>1582.99</ele>
  <time>2026-08-28T17:50:28Z</time>
  <course>71.14</course>
  <speed>4.266766925905375</speed>
  <fix>3d</fix>
</trkpt>
<trkpt lat="40.0713176" lon="-105.2299956">
  <ele>1583.0</ele>
  <time>2026-08-28T17:50:28Z</time>
  <course>70.4</course>
  <speed>4.07</speed>
  <fix>3d</fix>
</trkpt>
<trkpt lat="40.0713216" lon="-105.2299804">
  <ele>1582.99</ele>
  <time>2026-08-28T17:50:28Z</time>
  <course>71.03</course>
  <speed>4.364974226728034</speed>
  <fix>3d</fix>
</trkpt>
<trkpt lat="40.0713201" lon="-105.2299865">
  <ele>1583.0</ele>
  <time>2026-08-28T17:50:28Z</time>
  <course>70.18</course>
  <speed>4.26</speed>
  <fix>3d</fix>
</trkpt>
<trkpt lat="40.071323" lon="-105.2299754">
  <ele>1582.99</ele>
  <time>2026-08-28T17:50:28Z</time>
  <course>70.91</course>
  <speed>4.4631939236380935</speed>
  <fix>3d</fix>
</trkpt>
<trkpt lat="40.0713201" lon="-105.2299865">
  <ele>1583.0</ele>
  <time>2026-08-28T17:50:28Z</time>
  <course>70.18</course>
  <speed>4.26</speed>
  <fix>3d</fix>
</trkpt>
<trkpt lat="40.0713244" lon="-105.2299704">
  <ele>1582.99</ele>
  <time>2026-08-28T17:50:28Z</time>
  <course>70.81</course>
  <speed>4.552021528947332</speed>
  <fix>3d</fix>
</trkpt>
<trkpt lat="40.0713228" lon="-105.2299769">
  <ele>1583.0</ele>
  <time>2026-08-28T17:50:28Z</time>
  <course>69.95</course>
  <speed>4.44</speed>
  <fix>3d</fix>
</trkpt>
<trkpt lat="40.0713259" lon="-105.2299653">
  <ele>1582.99</ele>
  <time>2026-08-28T17:50:28Z</time>
  <course>70.75</course>
  <speed>4.628055747287407</speed>
  <fix>3d</fix>
</trkpt>
<trkpt lat="40.0713228" lon="-105.2299769">
  <ele>1583.0</ele>
  <time>2026-08-28T17:50:28Z</time>
  <course>69.95</course>
  <speed>4.44</speed>
  <fix>3d</fix>
</trkpt>
<trkpt lat="40.0713273" lon="-105.2299601">
  <ele>1582.99</ele>
  <time>2026-08-28T17:50:28Z</time>
  <course>70.69</course>
  <speed>4.707525889466781</speed>
  <fix>3d</fix>
</trkpt>
<trkpt lat="40.0713256" lon="-105.2299668">
  <ele>1583.0</ele>
  <time>2026-08-28T17:50:28Z</time>
  <course>69.78</course>
  <speed>4.61</speed>
  <fix>3d</fix>
</trkpt>
<trkpt lat="40.0713288" lon="-105.2299548">
  <ele>1583.0</ele>
  <time>2026-08-28T17:50:28Z</time>
  <course>70.62</course>
  <speed>4.770744176750625</speed>
  <fix>3d</fix>
</trkpt>
<trkpt lat="40.0713256" lon="-105.2299668">
  <ele>1583.0</ele>
  <time>2026-08-28T17:50:28Z</time>
  <course>69.78</course>
  <speed>4.61</speed>
  <fix>3d</fix>
</trkpt>
<trkpt lat="40.0713304" lon="-105.2299495">
  <ele>1583.0</ele>
  <time>2026-08-28T17:50:28Z</time>
  <course>70.56</course>
  <speed>4.83740632984247</speed>
  <fix>3d</fix>
</trkpt>
<trkpt lat="40.0713285" lon="-105.2299566">
  <ele>1583.0</ele>
  <time>2026-08-28T17:50:28Z</time>
  <course>69.66</course>
  <speed>4.75</speed>
  <fix>3d</fix>
</trkpt>
<trkpt lat="40.0713319" lon="-105.2299441">
  <ele>1583.0</ele>
  <time>2026-08-28T17:50:28Z</time>
  <course>70.49</course>
  <speed>4.8818541559534525</speed>
  <fix>3d</fix>
</trkpt>
<trkpt lat="40.0713285" lon="-105.2299566">
  <ele>1583.0</ele>
  <time>2026-08-28T17:50:28Z</time>
  <course>69.66</course>
  <speed>4.75</speed>
  <fix>3d</fix>
</trkpt>
<trkpt lat="40.0713335" lon="-105.2299387">
  <ele>1583.0</ele>
  <time>2026-08-28T17:50:28Z</time>
  <course>70.43</course>
  <speed>4.916929936454251</speed>
  <fix>3d</fix>
</trkpt>
<trkpt lat="40.0713315" lon="-105.229946">
  <ele>1583.0</ele>
  <time>2026-08-28T17:50:28Z</time>
  <course>69.53</course>
  <speed>4.85</speed>
  <fix>3d</fix>
</trkpt>
<trkpt lat="40.071335" lon="-105.2299332">
  <ele>1583.0</ele>
  <time>2026-08-28T17:50:28Z</time>
  <course>70.36</course>
  <speed>4.942651110487165</speed>
  <fix>3d</fix>
</trkpt>
<trkpt lat="40.0713315" lon="-105.229946">
  <ele>1583.0</ele>
  <time>2026-08-28T17:50:28Z</time>
  <course>69.53</course>
  <speed>4.85</speed>
  <fix>3d</fix>
</trkpt>
<trkpt lat="40.0713366" lon="-105.2299278">
  <ele>1583.0</ele>
  <time>2026-08-28T17:50:28Z</time>
  <course>70.29</course>
  <speed>4.955522172284168</speed>
  <fix>3d</fix>
</trkpt>
<trkpt lat="40.0713315" lon="-105.229946">
  <ele>1583.0</ele>
  <time>2026-08-28T17:50:28Z</time>
  <course>69.53</course>
  <speed>4.85</speed>
  <fix>3d</fix>
</trkpt>
<trkpt lat="40.0713382" lon="-105.2299224">
  <ele>1583.0</ele>
  <time>2026-08-28T17:50:28Z</time>
  <course>70.26</course>
  <speed>4.955522172284168</speed>
  <fix>3d</fix>
</trkpt>
<trkpt lat="40.0713346" lon="-105.2299352">
  <ele>1583.0</ele>
  <time>2026-08-28T17:50:28Z</time>
  <course>69.39</course>
  <speed>4.91</speed>
  <fix>3d</fix>
</trkpt>
<trkpt lat="40.0713397" lon="-105.229917">
  <ele>1583.0</ele>
  <time>2026-08-28T17:50:28Z</time>
  <course>70.25</course>
  <speed>4.9368005833738104</speed>
  <fix>3d</fix>
</trkpt>
<trkpt lat="40.0713346" lon="-105.2299352">
  <ele>1583.0</ele>
  <time>2026-08-28T17:50:28Z</time>
  <course>69.39</course>
  <speed>4.91</speed>
  <fix>3d</fix>
</trkpt>
<trkpt lat="40.0713413" lon="-105.2299116">
  <ele>1583.0</ele>
  <time>2026-08-28T17:50:28Z</time>
  <course>70.24</course>
  <speed>4.914560000651126</speed>
  <fix>3d</fix>
</trkpt>
<trkpt lat="40.0713377" lon="-105.2299243">
  <ele>1583.0</ele>
  <time>2026-08-28T17:50:28Z</time>
  <course>69.31</course>
  <speed>4.93</speed>
  <fix>3d</fix>
</trkpt>
<trkpt lat="40.0713428" lon="-105.2299063">
  <ele>1583.01</ele>
  <time>2026-08-28T17:50:28Z</time>
  <course>70.24</course>
  <speed>4.88296016776709</speed>
  <fix>3d</fix>
</trkpt>
<trkpt lat="40.0713377" lon="-105.2299243">
  <ele>1583.0</ele>
  <time>2026-08-28T17:50:28Z</time>
  <course>69.31</course>
  <speed>4.93</speed>
  <fix>3d</fix>
</trkpt>
<trkpt lat="40.0713444" lon="-105.229901">
  <ele>1583.0</ele>
  <time>2026-08-28T17:50:28Z</time>
  <course>70.23</course>
  <speed>4.829120002650586</speed>
  <fix>3d</fix>
</trkpt>
<trkpt lat="40.0713408" lon="-105.2299136">
  <ele>1583.0</ele>
  <time>2026-08-28T17:50:28Z</time>
  <course>69.29</course>
  <speed>4.9</speed>
  <fix>3d</fix>
</trkpt>
<trkpt lat="40.0713459" lon="-105.2298958">
  <ele>1583.0</ele>
  <time>2026-08-28T17:50:28Z</time>
  <course>70.23</course>
  <speed>4.76592068754821</speed>
  <fix>3d</fix>
</trkpt>
<trkpt lat="40.0713439" lon="-105.2299029">
  <ele>1583.0</ele>
  <time>2026-08-28T17:50:28Z</time>
  <course>69.29</course>
  <speed>4.82</speed>
  <fix>3d</fix>
</trkpt>
<trkpt lat="40.0713474" lon="-105.2298906">
  <ele>1583.0</ele>
  <time>2026-08-28T17:50:28Z</time>
  <course>70.23</course>
  <speed>4.702722615677008</speed>
  <fix>3d</fix>
</trkpt>
<trkpt lat="40.0713439" lon="-105.2299029">
  <ele>1583.0</ele>
  <time>2026-08-28T17:50:28Z</time>
  <course>69.29</course>
  <speed>4.82</speed>
  <fix>3d</fix>
</trkpt>
<trkpt lat="40.0713489" lon="-105.2298855">
  <ele>1583.0</ele>
  <time>2026-08-28T17:50:28Z</time>
  <course>70.23</course>
  <speed>4.617282750709555</speed>
  <fix>3d</fix>
</trkpt>
<trkpt lat="40.071347" lon="-105.2298924">
  <ele>1583.0</ele>
  <time>2026-08-28T17:50:28Z</time>
  <course>69.29</course>
  <speed>4.7</speed>
  <fix>3d</fix>
</trkpt>
<trkpt lat="40.0713503" lon="-105.2298805">
  <ele>1583.0</ele>
  <time>2026-08-28T17:50:28Z</time>
  <course>70.23</course>
  <speed>4.531842892245935</speed>
  <fix>3d</fix>
</trkpt>
<trkpt lat="40.071347" lon="-105.2298924">
  <ele>1583.0</ele>
  <time>2026-08-28T17:50:28Z</time>
  <course>69.29</course>
  <speed>4.7</speed>
  <fix>3d</fix>
</trkpt>
<trkpt lat="40.0713518" lon="-105.2298756">
  <ele>1583.0</ele>
  <time>2026-08-28T17:50:28Z</time>
  <course>70.23</course>
  <speed>4.427696918263489</speed>
  <fix>3d</fix>
</trkpt>
<trkpt lat="40.0713499" lon="-105.2298823">
  <ele>1583.0</ele>
  <time>2026-08-28T17:50:28Z</time>
  <course>69.29</course>
  <speed>4.53</speed>
  <fix>3d</fix>
</trkpt>
<trkpt lat="40.0713532" lon="-105.2298708">
  <ele>1583.0</ele>
  <time>2026-08-28T17:50:28Z</time>
  <course>70.22</course>
  <speed>4.310661202182328</speed>
  <fix>3d</fix>
</trkpt>
<trkpt lat="40.0713499" lon="-105.2298823">
  <ele>1583.0</ele>
  <time>2026-08-28T17:50:28Z</time>
  <course>69.29</course>
  <speed>4.53</speed>
  <fix>3d</fix>
</trkpt>
<trkpt lat="40.0713545" lon="-105.2298662">
  <ele>1582.99</ele>
  <time>2026-08-28T17:50:28Z</time>
  <course>70.22</course>
  <speed>4.193626115904945</speed>
  <fix>3d</fix>
</trkpt>
<trkpt lat="40.0713527" lon="-105.2298725">
  <ele>1583.0</ele>
  <time>2026-08-28T17:50:28Z</time>
  <course>69.29</course>
  <speed>4.32</speed>
  <fix>3d</fix>
</trkpt>
<trkpt lat="40.0713558" lon="-105.2298616">
  <ele>1582.99</ele>
  <time>2026-08-28T17:50:28Z</time>
  <course>70.22</course>
  <speed>4.067247226319049</speed>
  <fix>3d</fix>
</trkpt>
<trkpt lat="40.0713527" lon="-105.2298725">
  <ele>1583.0</ele>
  <time>2026-08-28T17:50:28Z</time>
  <course>69.29</course>
  <speed>4.32</speed>
  <fix>3d</fix>
</trkpt>
<trkpt lat="40.0713571" lon="-105.2298572">
  <ele>1582.99</ele>
  <time>2026-08-28T17:50:28Z</time>
  <course>70.22</course>
  <speed>3.927963849120814</speed>
  <fix>3d</fix>
</trkpt>
<trkpt lat="40.0713554" lon="-105.2298632">
  <ele>1583.0</ele>
  <time>2026-08-28T17:50:28Z</time>
  <course>69.29</course>
  <speed>4.08</speed>
  <fix>3d</fix>
</trkpt>
<trkpt lat="40.0713584" lon="-105.229853">
  <ele>1582.99</ele>
  <time>2026-08-28T17:50:28Z</time>
  <course>70.22</course>
  <speed>3.7886805090954816</speed>
  <fix>3d</fix>
</trkpt>
<trkpt lat="40.0713554" lon="-105.2298632">
  <ele>1583.0</ele>
  <time>2026-08-28T17:50:28Z</time>
  <course>69.29</course>
  <speed>4.08</speed>
  <fix>3d</fix>
</trkpt>
<trkpt lat="40.0713596" lon="-105.2298489">
  <ele>1582.98</ele>
  <time>2026-08-28T17:50:28Z</time>
  <course>70.21</course>
  <speed>3.652971393263298</speed>
  <fix>3d</fix>
</trkpt>
<trkpt lat="40.0713579" lon="-105.2298545">
  <ele>1583.0</ele>
  <time>2026-08-28T17:50:28Z</time>
  <course>69.29</course>
  <speed>3.82</speed>
  <fix>3d</fix>
</trkpt>
<trkpt lat="40.0713607" lon="-105.229845">
  <ele>1582.98</ele>
  <time>2026-08-28T17:50:28Z</time>
  <course>70.22</course>
  <speed>3.5136875216786136</speed>
  <fix>3d</fix>
</trkpt>
<trkpt lat="40.0713579" lon="-105.2298545">
  <ele>1583.0</ele>
  <time>2026-08-28T17:50:28Z</time>
  <course>69.29</course>
  <speed>3.82</speed>
  <fix>3d</fix>
</trkpt>
<trkpt lat="40.0713618" lon="-105.2298412">
  <ele>1582.98</ele>
  <time>2026-08-28T17:50:28Z</time>
  <course>70.25</course>
  <speed>3.365070578754627</speed>
  <fix>3d</fix>
</trkpt>
<trkpt lat="40.0713602" lon="-105.2298464">
  <ele>1583.0</ele>
  <time>2026-08-28T17:50:28Z</time>
  <course>69.31</course>
  <speed>3.54</speed>
  <fix>3d</fix>
</trkpt>
<trkpt lat="40.0713629" lon="-105.2298376">
  <ele>1582.99</ele>
  <time>2026-08-28T17:50:28Z</time>
  <course>70.29</course>
  <speed>3.2222042145090684</speed>
  <fix>3d</fix>
</trkpt>
<trkpt lat="40.0713602" lon="-105.2298464">
  <ele>1583.0</ele>
  <time>2026-08-28T17:50:28Z</time>
  <course>69.31</course>
  <speed>3.54</speed>
  <fix>3d</fix>
</trkpt>
<trkpt lat="40.0713639" lon="-105.2298341">
  <ele>1582.98</ele>
  <time>2026-08-28T17:50:28Z</time>
  <course>70.33</course>
  <speed>3.082920693109052</speed>
  <fix>3d</fix>
</trkpt>
<trkpt lat="40.0713602" lon="-105.2298464">
  <ele>1583.0</ele>
  <time>2026-08-28T17:50:28Z</time>
  <course>69.31</course>
  <speed>3.54</speed>
  <fix>3d</fix>
</trkpt>
<trkpt lat="40.0713648" lon="-105.2298308">
  <ele>1582.98</ele>
  <time>2026-08-28T17:50:28Z</time>
  <course>70.37</course>
  <speed>2.943637205907005</speed>
  <fix>3d</fix>
</trkpt>
<trkpt lat="40.0713624" lon="-105.229839">
  <ele>1583.0</ele>
  <time>2026-08-28T17:50:28Z</time>
  <course>69.38</course>
  <speed>3.27</speed>
  <fix>3d</fix>
</trkpt>
<trkpt lat="40.0713657" lon="-105.2298277">
  <ele>1582.98</ele>
  <time>2026-08-28T17:50:28Z</time>
  <course>70.4</course>
  <speed>2.804353757998445</speed>
  <fix>3d</fix>
</trkpt>
<trkpt lat="40.0713624" lon="-105.229839">
  <ele>1583.0</ele>
  <time>2026-08-28T17:50:28Z</time>
  <course>69.38</course>
  <speed>3.27</speed>
  <fix>3d</fix>
</trkpt>
<trkpt lat="40.0713666" lon="-105.2298247">
  <ele>1582.99</ele>
  <time>2026-08-28T17:50:28Z</time>
  <course>70.43</course>
  <speed>2.6744158240632663</speed>
  <fix>3d</fix>
</trkpt>
<trkpt lat="40.0713644" lon="-105.2298321">
  <ele>1583.0</ele>
  <time>2026-08-28T17:50:28Z</time>
  <course>69.46</course>
  <speed>3.0</speed>
  <fix>3d</fix>
</trkpt>
<trkpt lat="40.0713674" lon="-105.2298219">
  <ele>1582.98</ele>
  <time>2026-08-28T17:50:28Z</time>
  <course>70.47</course>
  <speed>2.5480384612481815</speed>
  <fix>3d</fix>
</trkpt>
<trkpt lat="40.0713644" lon="-105.2298321">
  <ele>1583.0</ele>
  <time>2026-08-28T17:50:28Z</time>
  <course>69.46</course>
  <speed>3.0</speed>
  <fix>3d</fix>
</trkpt>
<trkpt lat="40.0713682" lon="-105.2298192">
  <ele>1582.98</ele>
  <time>2026-08-28T17:50:28Z</time>
  <course>70.53</course>
  <speed>2.418098426450007</speed>
  <fix>3d</fix>
</trkpt>
<trkpt lat="40.0713662" lon="-105.2298257">
  <ele>1583.0</ele>
  <time>2026-08-28T17:50:28Z</time>
  <course>69.54</course>
  <speed>2.73</speed>
  <fix>3d</fix>
</trkpt>
<trkpt lat="40.0713689" lon="-105.2298166">
  <ele>1582.98</ele>
  <time>2026-08-28T17:50:28Z</time>
  <course>70.59</course>
  <speed>2.2881652038259825</speed>
  <fix>3d</fix>
</trkpt>
<trkpt lat="40.0713662" lon="-105.2298257">
  <ele>1583.0</ele>
  <time>2026-08-28T17:50:28Z</time>
  <course>69.54</course>
  <speed>2.73</speed>
  <fix>3d</fix>
</trkpt>
<trkpt lat="40.0713696" lon="-105.2298142">
  <ele>1582.98</ele>
  <time>2026-08-28T17:50:28Z</time>
  <course>70.65</course>
  <speed>2.1711287386979152</speed>
  <fix>3d</fix>
</trkpt>
<trkpt lat="40.0713678" lon="-105.22982">
  <ele>1583.0</ele>
  <time>2026-08-28T17:50:28Z</time>
  <course>69.65</course>
  <speed>2.48</speed>
  <fix>3d</fix>
</trkpt>
<trkpt lat="40.0713702" lon="-105.2298119">
  <ele>1582.98</ele>
  <time>2026-08-28T17:50:28Z</time>
  <course>70.71</course>
  <speed>2.054093474017188</speed>
  <fix>3d</fix>
</trkpt>
<trkpt lat="40.0713693" lon="-105.2298148">
  <ele>1583.0</ele>
  <time>2026-08-28T17:50:28Z</time>
  <course>69.78</course>
  <speed>2.25</speed>
  <fix>3d</fix>
</trkpt>
<trkpt lat="40.0713709" lon="-105.2298096">
  <ele>1582.98</ele>
  <time>2026-08-28T17:50:28Z</time>
  <course>70.79</course>
  <speed>1.9428844535895593</speed>
  <fix>3d</fix>
</trkpt>
<trkpt lat="40.0713693" lon="-105.2298148">
  <ele>1583.0</ele>
  <time>2026-08-28T17:50:28Z</time>
  <course>69.78</course>
  <speed>2.25</speed>
  <fix>3d</fix>
</trkpt>
<trkpt lat="40.0713714" lon="-105.2298076">
  <ele>1582.98</ele>
  <time>2026-08-28T17:50:28Z</time>
  <course>70.87</course>
  <speed>1.8352111595127139</speed>
  <fix>3d</fix>
</trkpt>
<trkpt lat="40.0713706" lon="-105.2298101">
  <ele>1583.0</ele>
  <time>2026-08-28T17:50:28Z</time>
  <course>69.93</course>
  <speed>2.03</speed>
  <fix>3d</fix>
</trkpt>
<trkpt lat="40.071372" lon="-105.2298056">
  <ele>1582.99</ele>
  <time>2026-08-28T17:50:28Z</time>
  <course>70.96</course>
  <speed>1.7275416058665563</speed>
  <fix>3d</fix>
</trkpt>
<trkpt lat="40.0713706" lon="-105.2298101">
  <ele>1583.0</ele>
  <time>2026-08-28T17:50:28Z</time>
  <course>69.93</course>
  <speed>2.03</speed>
  <fix>3d</fix>
</trkpt>
<trkpt lat="40.0713725" lon="-105.2298037">
  <ele>1582.99</ele>
  <time>2026-08-28T17:50:28Z</time>
  <course>71.06</course>
  <speed>1.6198765385053269</speed>
  <fix>3d</fix>
</trkpt>
<trkpt lat="40.0713718" lon="-105.2298059">
  <ele>1583.0</ele>
  <time>2026-08-28T17:50:28Z</time>
  <course>70.12</course>
  <speed>1.81</speed>
  <fix>3d</fix>
</trkpt>
<trkpt lat="40.071373" lon="-105.2298019">
  <ele>1582.99</ele>
  <time>2026-08-28T17:50:28Z</time>
  <course>71.17</course>
  <speed>1.5216109883935514</speed>
  <fix>3d</fix>
</trkpt>
<trkpt lat="40.0713718" lon="-105.2298059">
  <ele>1583.0</ele>
  <time>2026-08-28T17:50:28Z</time>
  <course>70.12</course>
  <speed>1.81</speed>
  <fix>3d</fix>
</trkpt>
<trkpt lat="40.0713734" lon="-105.2298002">
  <ele>1582.99</ele>
  <time>2026-08-28T17:50:28Z</time>
  <course>71.31</course>
  <speed>1.417391971192161</speed>
  <fix>3d</fix>
</trkpt>
<trkpt lat="40.0713729" lon="-105.2298021">
  <ele>1583.0</ele>
  <time>2026-08-28T17:50:28Z</time>
  <course>70.35</course>
  <speed>1.61</speed>
  <fix>3d</fix>
</trkpt>
<trkpt lat="40.0713739" lon="-105.2297987">
  <ele>1582.98</ele>
  <time>2026-08-28T17:50:28Z</time>
  <course>71.46</course>
  <speed>1.3191285001848758</speed>
  <fix>3d</fix>
</trkpt>
<trkpt lat="40.0713729" lon="-105.2298021">
  <ele>1583.0</ele>
  <time>2026-08-28T17:50:28Z</time>
  <course>70.35</course>
  <speed>1.61</speed>
  <fix>3d</fix>
</trkpt>
<trkpt lat="40.0713742" lon="-105.2297972">
  <ele>1582.98</ele>
  <time>2026-08-28T17:50:28Z</time>
  <course>71.63</course>
  <speed>1.2209013064126026</speed>
  <fix>3d</fix>
</trkpt>
<trkpt lat="40.0713738" lon="-105.2297987">
  <ele>1583.0</ele>
  <time>2026-08-28T17:50:28Z</time>
  <course>70.63</course>
  <speed>1.41</speed>
  <fix>3d</fix>
</trkpt>
<trkpt lat="40.0713746" lon="-105.2297958">
  <ele>1582.98</ele>
  <time>2026-08-28T17:50:28Z</time>
  <course>71.84</course>
  <speed>1.1227199116431488</speed>
  <fix>3d</fix>
</trkpt>
<trkpt lat="40.0713738" lon="-105.2297987">
  <ele>1583.0</ele>
  <time>2026-08-28T17:50:28Z</time>
  <course>70.63</course>
  <speed>1.41</speed>
  <fix>3d</fix>
</trkpt>
<trkpt lat="40.0713749" lon="-105.2297946">
  <ele>1582.98</ele>
  <time>2026-08-28T17:50:28Z</time>
  <course>72.08</course>
  <speed>1.027861858422619</speed>
  <fix>3d</fix>
</trkpt>
<trkpt lat="40.0713745" lon="-105.2297958">
  <ele>1583.0</ele>
  <time>2026-08-28T17:50:28Z</time>
  <course>71.02</course>
  <speed>1.22</speed>
  <fix>3d</fix>
</trkpt>
<trkpt lat="40.0713752" lon="-105.2297934">
  <ele>1582.98</ele>
  <time>2026-08-28T17:50:28Z</time>
  <course>72.37</course>
  <speed>0.9392017887546851</speed>
  <fix>3d</fix>
</trkpt>
<trkpt lat="40.0713745" lon="-105.2297958">
  <ele>1583.0</ele>
  <time>2026-08-28T17:50:28Z</time>
  <course>71.02</course>
  <speed>1.22</speed>
  <fix>3d</fix>
</trkpt>
<trkpt lat="40.0713755" lon="-105.2297924">
  <ele>1582.98</ele>
  <time>2026-08-28T17:50:28Z</time>
  <course>72.69</course>
  <speed>0.8411896337925236</speed>
  <fix>3d</fix>
</trkpt>
<trkpt lat="40.0713751" lon="-105.2297933">
  <ele>1583.0</ele>
  <time>2026-08-28T17:50:28Z</time>
  <course>71.54</course>
  <speed>1.03</speed>
  <fix>3d</fix>
</trkpt>
<trkpt lat="40.0713757" lon="-105.2297914">
  <ele>1582.97</ele>
  <time>2026-08-28T17:50:28Z</time>
  <course>73.01</course>
  <speed>0.7463243262818117</speed>
  <fix>3d</fix>
</trkpt>
<trkpt lat="40.0713751" lon="-105.2297933">
  <ele>1583.0</ele>
  <time>2026-08-28T17:50:28Z</time>
  <course>71.54</course>
  <speed>1.03</speed>
  <fix>3d</fix>
</trkpt>
<trkpt lat="40.0713759" lon="-105.2297906">
  <ele>1582.98</ele>
  <time>2026-08-28T17:50:28Z</time>
  <course>73.33</course>
  <speed>0.648459713474939</speed>
  <fix>3d</fix>
</trkpt>
<trkpt lat="40.0713751" lon="-105.2297933">
  <ele>1583.0</ele>
  <time>2026-08-28T17:50:28Z</time>
  <course>71.54</course>
  <speed>1.03</speed>
  <fix>3d</fix>
</trkpt>
<trkpt lat="40.0713761" lon="-105.2297898">
  <ele>1582.98</ele>
  <time>2026-08-28T17:50:28Z</time>
  <course>73.66</course>
  <speed>0.5536244214266564</speed>
  <fix>3d</fix>
</trkpt>
<trkpt lat="40.0713757" lon="-105.2297912">
  <ele>1583.0</ele>
  <time>2026-08-28T17:50:28Z</time>
  <course>72.16</course>
  <speed>0.84</speed>
  <fix>3d</fix>
</trkpt>
<trkpt lat="40.0713762" lon="-105.2297892">
  <ele>1582.98</ele>
  <time>2026-08-28T17:50:28Z</time>
  <course>73.97</course>
  <speed>0.45880278987817846</speed>
  <fix>3d</fix>
</trkpt>
<trkpt lat="40.0713757" lon="-105.2297912">
  <ele>1583.0</ele>
  <time>2026-08-28T17:50:28Z</time>
  <course>72.16</course>
  <speed>0.84</speed>
  <fix>3d</fix>
</trkpt>
<trkpt lat="40.0713763" lon="-105.2297887">
  <ele>1582.98</ele>
  <time>2026-08-28T17:50:28Z</time>
  <course>74.28</course>
  <speed>0.3736308338453881</speed>
  <fix>3d</fix>
</trkpt>
<trkpt lat="40.0713761" lon="-105.2297895">
  <ele>1583.0</ele>
  <time>2026-08-28T17:50:28Z</time>
  <course>72.8</course>
  <speed>0.65</speed>
  <fix>3d</fix>
</trkpt>
<trkpt lat="40.0713764" lon="-105.2297882">
  <ele>1582.99</ele>
  <time>2026-08-28T17:50:28Z</time>
  <course>74.54</course>
  <speed>0.2692582403567252</speed>
  <fix>3d</fix>
</trkpt>
<trkpt lat="40.0713761" lon="-105.2297895">
  <ele>1583.0</ele>
  <time>2026-08-28T17:50:28Z</time>
  <course>72.8</course>
  <speed>0.65</speed>
  <fix>3d</fix>
</trkpt>
<trkpt lat="40.0713765" lon="-105.2297879">
  <ele>1582.99</ele>
  <time>2026-08-28T17:50:28Z</time>
  <course>74.74</course>
  <speed>0.17464249196572978</speed>
  <fix>3d</fix>
</trkpt>
<trkpt lat="40.0713764" lon="-105.2297882">
  <ele>1583.0</ele>
  <time>2026-08-28T17:50:28Z</time>
  <course>73.4</course>
  <speed>0.47</speed>
  <fix>3d</fix>
</trkpt>
<trkpt lat="40.0713765" lon="-105.2297877">
  <ele>1582.99</ele>
  <time>2026-08-28T17:50:28Z</time>
  <course>74.87</course>
  <speed>0.09055385138137417</speed>
  <fix>3d</fix>
</trkpt>
<trkpt lat="40.0713766" lon="-105.2297873">
  <ele>1583.0</ele>
  <time>2026-08-28T17:50:28Z</time>
  <course>73.85</course>
  <speed>0.28</speed>
  <fix>3d</fix>
</trkpt>
<trkpt lat="40.0713765" lon="-105.2297875">
  <ele>1582.99</ele>
  <time>2026-08-28T17:50:28Z</time>
  <course>74.96</course>
  <speed>0.0</speed>
  <fix>3d</fix>
</trkpt>
<trkpt lat="40.0713766" lon="-105.2297873">
  <ele>1583.0</ele>
  <time>2026-08-28T17:50:28Z</time>
  <course>73.85</course>
  <speed>0.28</speed>
  <fix>3d</fix>
</trkpt>
<trkpt lat="40.0713765" lon="-105.2297875">
  <ele>1582.99</ele>
  <time>2026-08-28T17:50:28Z</time>
  <course>74.94</course>
  <speed>0.0632455532033676</speed>
  <fix>3d</fix>
</trkpt>
<trkpt lat="40.0713767" lon="-105.2297869">
  <ele>1583.0</ele>
  <time>2026-08-28T17:50:28Z</time>
  <course>74.08</course>
  <speed>0.1</speed>
  <fix>3d</fix>
</trkpt>
<trkpt lat="40.0713765" lon="-105.2297876">
  <ele>1582.99</ele>
  <time>2026-08-28T17:50:28Z</time>
  <course>74.95</course>
  <speed>0.1392838827718412</speed>
  <fix>3d</fix>
</trkpt>
<trkpt lat="40.0713767" lon="-105.2297869">
  <ele>1583.0</ele>
  <time>2026-08-28T17:50:28Z</time>
  <course>74.08</course>
  <speed>0.1</speed>
  <fix>3d</fix>
</trkpt>
<trkpt lat="40.0713765" lon="-105.2297877">
  <ele>1582.99</ele>
  <time>2026-08-28T17:50:28Z</time>
  <course>74.99</course>
  <speed>0.19924858845171275</speed>
  <fix>3d</fix>
</trkpt>
<trkpt lat="40.0713767" lon="-105.2297869">
  <ele>1583.0</ele>
  <time>2026-08-28T17:50:28Z</time>
  <course>254.18</course>
  <speed>0.04</speed>
  <fix>3d</fix>
</trkpt>
<trkpt lat="40.0713765" lon="-105.2297878">
  <ele>1582.99</ele>
  <time>2026-08-28T17:50:28Z</time>
  <course>75.04</course>
  <speed>0.2529822128134704</speed>
  <fix>3d</fix>
</trkpt>
<trkpt lat="40.0713767" lon="-105.2297869">
  <ele>1583.0</ele>
  <time>2026-08-28T17:50:28Z</time>
  <course>254.18</course>
  <speed>0.04</speed>
  <fix>3d</fix>
</trkpt>
<trkpt lat="40.0713764" lon="-105.229788">
  <ele>1582.98</ele>
  <time>2026-08-28T17:50:28Z</time>
  <course>75.1</course>
  <speed>0.29410882339705485</speed>
  <fix>3d</fix>
</trkpt>
<trkpt lat="40.0713766" lon="-105.2297871">
  <ele>1583.0</ele>
  <time>2026-08-28T17:50:28Z</time>
  <course>254.25</course>
  <speed>0.15</speed>
  <fix>3d</fix>
</trkpt>
<trkpt lat="40.0713764" lon="-105.2297883">
  <ele>1582.98</ele>
  <time>2026-08-28T17:50:28Z</time>
  <course>75.16</course>
  <speed>0.31622776601683794</speed>
  <fix>3d</fix>
</trkpt>
<trkpt lat="40.0713766" lon="-105.2297871">
  <ele>1583.0</ele>
  <time>2026-08-28T17:50:28Z</time>
  <course>254.25</course>
  <speed>0.15</speed>
  <fix>3d</fix>
</trkpt>
<trkpt lat="40.0713763" lon="-105.2297886">
  <ele>1582.98</ele>
  <time>2026-08-28T17:50:28Z</time>
  <course>75.21</course>
  <speed>0.33837848631377265</speed>
  <fix>3d</fix>
</trkpt>
<trkpt lat="40.0713766" lon="-105.2297875">
  <ele>1583.0</ele>
  <time>2026-08-28T17:50:28Z</time>
  <course>254.34</course>
  <speed>0.22</speed>
  <fix>3d</fix>
</trkpt>
<trkpt lat="40.0713762" lon="-105.2297889">
  <ele>1582.97</ele>
  <time>2026-08-28T17:50:28Z</time>
  <course>75.25</course>
  <speed>0.3478505426185217</speed>
  <fix>3d</fix>
</trkpt>
<trkpt lat="40.0713766" lon="-105.2297875">
  <ele>1583.0</ele>
  <time>2026-08-28T17:50:28Z</time>
  <course>254.34</course>
  <speed>0.22</speed>
  <fix>3d</fix>
</trkpt>
<trkpt lat="40.0713761" lon="-105.2297892">
  <ele>1582.97</ele>
  <time>2026-08-28T17:50:28Z</time>
  <course>75.28</course>
  <speed>0.33837848631377265</speed>
  <fix>3d</fix>
</trkpt>
<trkpt lat="40.0713765" lon="-105.229788">
  <ele>1583.0</ele>
  <time>2026-08-28T17:50:28Z</time>
  <course>254.42</course>
  <speed>0.25</speed>
  <fix>3d</fix>
</trkpt>
<trkpt lat="40.0713761" lon="-105.2297895">
  <ele>1582.97</ele>
  <time>2026-08-28T17:50:28Z</time>
  <course>75.3</course>
  <speed>0.3289376840679705</speed>
  <fix>3d</fix>
</trkpt>
<trkpt lat="40.0713765" lon="-105.229788">
  <ele>1583.0</ele>
  <time>2026-08-28T17:50:28Z</time>
  <course>254.42</course>
  <speed>0.25</speed>
  <fix>3d</fix>
</trkpt>
<trkpt lat="40.071376" lon="-105.2297898">
  <ele>1582.97</ele>
  <time>2026-08-28T17:50:28Z</time>
  <course>75.3</course>
  <speed>0.3195309061734092</speed>
  <fix>3d</fix>
</trkpt>
<trkpt lat="40.0713764" lon="-105.2297886">
  <ele>1583.0</ele>
  <time>2026-08-28T17:50:28Z</time>
  <course>254.46</course>
  <speed>0.25</speed>
  <fix>3d</fix>
</trkpt>
<trkpt lat="40.0713759" lon="-105.22979">
  <ele>1582.96</ele>
  <time>2026-08-28T17:50:28Z</time>
  <course>75.31</course>
  <speed>0.2973213749463701</speed>
  <fix>3d</fix>
</trkpt>
<trkpt lat="40.0713764" lon="-105.2297886">
  <ele>1583.0</ele>
  <time>2026-08-28T17:50:28Z</time>
  <course>254.46</course>
  <speed>0.25</speed>
  <fix>3d</fix>
</trkpt>
<trkpt lat="40.0713759" lon="-105.2297903">
  <ele>1582.96</ele>
  <time>2026-08-28T17:50:28Z</time>
  <course>75.31</course>
  <speed>0.2785677655436824</speed>
  <fix>3d</fix>
</trkpt>
<trkpt lat="40.0713764" lon="-105.2297886">
  <ele>1583.0</ele>
  <time>2026-08-28T17:50:29Z</time>
  <course>254.46</course>
  <speed>0.25</speed>
  <fix>3d</fix>
</trkpt>
<trkpt lat="40.0713758" lon="-105.2297905">
  <ele>1582.96</ele>
  <time>2026-08-28T17:50:29Z</time>
  <course>75.31</course>
  <speed>0.25632011235952595</speed>
  <fix>3d</fix>
</trkpt>
<trkpt lat="40.0713763" lon="-105.2297892">
  <ele>1583.0</ele>
  <time>2026-08-28T17:50:29Z</time>
  <course>254.47</course>
  <speed>0.22</speed>
  <fix>3d</fix>
</trkpt>
<trkpt lat="40.0713758" lon="-105.2297907">
  <ele>1582.97</ele>
  <time>2026-08-28T17:50:29Z</time>
  <course>75.32</course>
  <speed>0.23769728648009425</speed>
  <fix>3d</fix>
</trkpt>
<trkpt lat="40.0713763" lon="-105.2297892">
  <ele>1583.0</ele>
  <time>2026-08-28T17:50:29Z</time>
  <course>254.47</course>
  <speed>0.22</speed>
  <fix>3d</fix>
</trkpt>
<trkpt lat="40.0713757" lon="-105.2297908">
  <ele>1582.97</ele>
  <time>2026-08-28T17:50:29Z</time>
  <course>75.32</course>
  <speed>0.20615528128088303</speed>
  <fix>3d</fix>
</trkpt>
<trkpt lat="40.0713762" lon="-105.2297897">
  <ele>1583.0</ele>
  <time>2026-08-28T17:50:29Z</time>
  <course>254.47</course>
  <speed>0.18</speed>
  <fix>3d</fix>
</trkpt>
<trkpt lat="40.0713757" lon="-105.229791">
  <ele>1582.97</ele>
  <time>2026-08-28T17:50:29Z</time>
  <course>75.32</course>
  <speed>0.18788294228055935</speed>
  <fix>3d</fix>
</trkpt>
<trkpt lat="40.0713762" lon="-105.2297897">
  <ele>1583.0</ele>
  <time>2026-08-28T17:50:29Z</time>
  <course>254.47</course>
  <speed>0.18</speed>
  <fix>3d</fix>
</trkpt>
<trkpt lat="40.0713757" lon="-105.229791">
  <ele>1582.98</ele>
  <time>2026-08-28T17:50:29Z</time>
  <course>75.33</course>
  <speed>0.15652475842498528</speed>
  <fix>3d</fix>
</trkpt>
<trkpt lat="40.0713761" lon="-105.22979">
  <ele>1583.0</ele>
  <time>2026-08-28T17:50:29Z</time>
  <course>254.47</course>
  <speed>0.14</speed>
  <fix>3d</fix>
</trkpt>
<trkpt lat="40.0713757" lon="-105.2297911">
  <ele>1582.98</ele>
  <time>2026-08-28T17:50:29Z</time>
  <course>75.33</course>
  <speed>0.13892443989449804</speed>
  <fix>3d</fix>
</trkpt>
<trkpt lat="40.071376" lon="-105.2297902">
  <ele>1583.0</ele>
  <time>2026-08-28T17:50:29Z</time>
  <course>254.47</course>
  <speed>0.1</speed>
  <fix>3d</fix>
</trkpt>
<trkpt lat="40.0713756" lon="-105.2297911">
  <ele>1582.99</ele>
  <time>2026-08-28T17:50:29Z</time>
  <course>75.33</course>
  <speed>0.10816653826391968</speed>
  <fix>3d</fix>
</trkpt>
<trkpt lat="40.071376" lon="-105.2297902">
  <ele>1583.0</ele>
  <time>2026-08-28T17:50:29Z</time>
  <course>254.47</course>
  <speed>0.1</speed>
  <fix>3d</fix>
</trkpt>
<trkpt lat="40.0713756" lon="-105.2297912">
  <ele>1582.99</ele>
  <time>2026-08-28T17:50:29Z</time>
  <course>75.33</course>
  <speed>0.1</speed>
  <fix>3d</fix>
</trkpt>
<trkpt lat="40.071376" lon="-105.2297905">
  <ele>1583.0</ele>
  <time>2026-08-28T17:50:29Z</time>
  <course>254.47</course>
  <speed>0.06</speed>
  <fix>3d</fix>
</trkpt>
<trkpt lat="40.0713756" lon="-105.2297912">
  <ele>1583.0</ele>
  <time>2026-08-28T17:50:29Z</time>
  <course>75.33</course>
  <speed>0.09219544457292887</speed>
  <fix>3d</fix>
</trkpt>
<trkpt lat="40.071376" lon="-105.2297905">
  <ele>1583.0</ele>
  <time>2026-08-28T17:50:29Z</time>
  <course>254.47</course>
  <speed>0.06</speed>
  <fix>3d</fix>
</trkpt>
<trkpt lat="40.0713756" lon="-105.2297912">
  <ele>1583.0</ele>
  <time>2026-08-28T17:50:29Z</time>
  <course>75.33</course>
  <speed>0.09219544457292887</speed>
  <fix>3d</fix>
</trkpt>
<trkpt lat="40.071376" lon="-105.2297906">
  <ele>1583.0</ele>
  <time>2026-08-28T17:50:29Z</time>
  <course>254.47</course>
  <speed>0.04</speed>
  <fix>3d</fix>
</trkpt>
<trkpt lat="40.0713756" lon="-105.2297912">
  <ele>1583.01</ele>
  <time>2026-08-28T17:50:29Z</time>
  <course>75.33</course>
  <speed>0.0848528137423857</speed>
  <fix>3d</fix>
</trkpt>
<trkpt lat="40.071376" lon="-105.2297906">
  <ele>1583.0</ele>
  <time>2026-08-28T17:50:29Z</time>
  <course>254.47</course>
  <speed>0.04</speed>
  <fix>3d</fix>
</trkpt>
<trkpt lat="40.0713756" lon="-105.2297912">
  <ele>1583.01</ele>
  <time>2026-08-28T17:50:29Z</time>
  <course>75.33</course>
  <speed>0.0848528137423857</speed>
  <fix>3d</fix>
</trkpt>
<trkpt lat="40.071376" lon="-105.2297907">
  <ele>1583.0</ele>
  <time>2026-08-28T17:50:29Z</time>
  <course>254.47</course>
  <speed>0.03</speed>
  <fix>3d</fix>
</trkpt>
<trkpt lat="40.0713756" lon="-105.2297912">
  <ele>1583.01</ele>
  <time>2026-08-28T17:50:29Z</time>
  <course>75.33</course>
  <speed>0.07071067811865475</speed>
  <fix>3d</fix>
</trkpt>
<trkpt lat="40.071376" lon="-105.2297907">
  <ele>1583.0</ele>
  <time>2026-08-28T17:50:29Z</time>
  <course>254.47</course>
  <speed>0.03</speed>
  <fix>3d</fix>
</trkpt>
<trkpt lat="40.0713756" lon="-105.2297912">
  <ele>1583.01</ele>
  <time>2026-08-28T17:50:29Z</time>
  <course>75.33</course>
  <speed>0.07071067811865475</speed>
  <fix>3d</fix>
</trkpt>
<trkpt lat="40.071376" lon="-105.2297907">
  <ele>1583.0</ele>
  <time>2026-08-28T17:50:29Z</time>
  <course>254.47</course>
  <speed>0.03</speed>
  <fix>3d</fix>
</trkpt>
<trkpt lat="40.0713756" lon="-105.2297912">
  <ele>1583.01</ele>
  <time>2026-08-28T17:50:29Z</time>
  <course>75.33</course>
  <speed>0.07071067811865475</speed>
  <fix>3d</fix>
</trkpt>
<trkpt lat="40.071376" lon="-105.2297907">
  <ele>1583.0</ele>
  <time>2026-08-28T17:50:29Z</time>
  <course>254.47</course>
  <speed>0.03</speed>
  <fix>3d</fix>
</trkpt>
<trkpt lat="40.0713756" lon="-105.2297913">
  <ele>1583.01</ele>
  <time>2026-08-28T17:50:29Z</time>
  <course>75.33</course>
  <speed>0.06403124237432849</speed>
  <fix>3d</fix>
</trkpt>
<trkpt lat="40.071376" lon="-105.2297908">
  <ele>1583.0</ele>
  <time>2026-08-28T17:50:29Z</time>
  <course>254.47</course>
  <speed>0.03</speed>
  <fix>3d</fix>
</trkpt>
<trkpt lat="40.0713756" lon="-105.2297913">
  <ele>1583.01</ele>
  <time>2026-08-28T17:50:29Z</time>
  <course>75.33</course>
  <speed>0.06403124237432849</speed>
  <fix>3d</fix>
</trkpt>
<trkpt lat="40.071376" lon="-105.2297908">
  <ele>1583.0</ele>
  <time>2026-08-28T17:50:29Z</time>
  <course>254.47</course>
  <speed>0.03</speed>
  <fix>3d</fix>
</trkpt>
<trkpt lat="40.0713756" lon="-105.2297913">
  <ele>1583.02</ele>
  <time>2026-08-28T17:50:29Z</time>
  <course>75.32</course>
  <speed>0.06403124237432849</speed>
  <fix>3d</fix>
</trkpt>
<trkpt lat="40.071376" lon="-105.2297909">
  <ele>1583.0</ele>
  <time>2026-08-28T17:50:29Z</time>
  <course>254.47</course>
  <speed>0.02</speed>
  <fix>3d</fix>
</trkpt>
<trkpt lat="40.0713756" lon="-105.2297913">
  <ele>1583.02</ele>
  <time>2026-08-28T17:50:29Z</time>
  <course>75.32</course>
  <speed>0.05830951894845301</speed>
  <fix>3d</fix>
</trkpt>
<trkpt lat="40.071376" lon="-105.2297909">
  <ele>1583.0</ele>
  <time>2026-08-28T17:50:29Z</time>
  <course>254.47</course>
  <speed>0.02</speed>
  <fix>3d</fix>
</trkpt>
<trkpt lat="40.0713756" lon="-105.2297913">
  <ele>1583.02</ele>
  <time>2026-08-28T17:50:29Z</time>
  <course>75.32</course>
  <speed>0.05830951894845301</speed>
  <fix>3d</fix>
</trkpt>
<trkpt lat="40.071376" lon="-105.2297909">
  <ele>1583.0</ele>
  <time>2026-08-28T17:50:29Z</time>
  <course>254.47</course>
  <speed>0.02</speed>
  <fix>3d</fix>
</trkpt>
<trkpt lat="40.0713756" lon="-105.2297913">
  <ele>1583.02</ele>
  <time>2026-08-28T17:50:29Z</time>
  <course>75.32</course>
  <speed>0.05830951894845301</speed>
  <fix>3d</fix>
</trkpt>
<trkpt lat="40.071376" lon="-105.2297909">
  <ele>1583.0</ele>
  <time>2026-08-28T17:50:29Z</time>
  <course>254.47</course>
  <speed>0.02</speed>
  <fix>3d</fix>
</trkpt>
<trkpt lat="40.0713756" lon="-105.2297913">
  <ele>1583.02</ele>
  <time>2026-08-28T17:50:29Z</time>
  <course>75.31</course>
  <speed>0.05</speed>
  <fix>3d</fix>
</trkpt>
<trkpt lat="40.071376" lon="-105.2297909">
  <ele>1583.0</ele>
  <time>2026-08-28T17:50:29Z</time>
  <course>254.47</course>
  <speed>0.02</speed>
  <fix>3d</fix>
</trkpt>
<trkpt lat="40.0713756" lon="-105.2297913">
  <ele>1583.02</ele>
  <time>2026-08-28T17:50:29Z</time>
  <course>75.31</course>
  <speed>0.044721359549995794</speed>
  <fix>3d</fix>
</trkpt>
<trkpt lat="40.0713759" lon="-105.229791">
  <ele>1583.0</ele>
  <time>2026-08-28T17:50:29Z</time>
  <course>254.47</course>
  <speed>0.02</speed>
  <fix>3d</fix>
</trkpt>
<trkpt lat="40.0713756" lon="-105.2297913">
  <ele>1583.02</ele>
  <time>2026-08-28T17:50:29Z</time>
  <course>75.31</course>
  <speed>0.044721359549995794</speed>
  <fix>3d</fix>
</trkpt>
<trkpt lat="40.0713759" lon="-105.229791">
  <ele>1583.0</ele>
  <time>2026-08-28T17:50:29Z</time>
  <course>254.47</course>
  <speed>0.02</speed>
  <fix>3d</fix>
</trkpt>
<trkpt lat="40.0713756" lon="-105.2297913">
  <ele>1583.02</ele>
  <time>2026-08-28T17:50:29Z</time>
  <course>75.3</course>
  <speed>0.044721359549995794</speed>
  <fix>3d</fix>
</trkpt>
<trkpt lat="40.0713759" lon="-105.2297911">
  <ele>1583.0</ele>
  <time>2026-08-28T17:50:29Z</time>
  <course>254.46</course>
  <speed>0.02</speed>
  <fix>3d</fix>
</trkpt>
<trkpt lat="40.0713756" lon="-105.2297913">
  <ele>1583.01</ele>
  <time>2026-08-28T17:50:29Z</time>
  <course>75.3</course>
  <speed>0.044721359549995794</speed>
  <fix>3d</fix>
</trkpt>
<trkpt lat="40.0713759" lon="-105.2297911">
  <ele>1583.0</ele>
  <time>2026-08-28T17:50:29Z</time>
  <course>254.46</course>
  <speed>0.02</speed>
  <fix>3d</fix>
</trkpt>
<trkpt lat="40.0713756" lon="-105.2297913">
  <ele>1583.01</ele>
  <time>2026-08-28T17:50:29Z</time>
  <course>75.3</course>
  <speed>0.044721359549995794</speed>
  <fix>3d</fix>
</trkpt>
<trkpt lat="40.0713759" lon="-105.2297911">
  <ele>1583.0</ele>
  <time>2026-08-28T17:50:29Z</time>
  <course>254.46</course>
  <speed>0.01</speed>
  <fix>3d</fix>
</trkpt>
<trkpt lat="40.0713756" lon="-105.2297913">
  <ele>1583.0</ele>
  <time>2026-08-28T17:50:29Z</time>
  <course>75.29</course>
  <speed>0.0412310562561766</speed>
  <fix>3d</fix>
</trkpt>
<trkpt lat="40.0713759" lon="-105.2297911">
  <ele>1583.0</ele>
  <time>2026-08-28T17:50:29Z</time>
  <course>254.46</course>
  <speed>0.01</speed>
  <fix>3d</fix>
</trkpt>
<trkpt lat="40.0713756" lon="-105.2297913">
  <ele>1583.0</ele>
  <time>2026-08-28T17:50:29Z</time>
  <course>75.29</course>
  <speed>0.0412310562561766</speed>
  <fix>3d</fix>
</trkpt>
<trkpt lat="40.0713759" lon="-105.2297911">
  <ele>1583.0</ele>
  <time>2026-08-28T17:50:29Z</time>
  <course>254.46</course>
  <speed>0.01</speed>
  <fix>3d</fix>
</trkpt>
<trkpt lat="40.0713756" lon="-105.2297913">
  <ele>1583.0</ele>
  <time>2026-08-28T17:50:29Z</time>
  <course>75.29</course>
  <speed>0.0412310562561766</speed>
  <fix>3d</fix>
</trkpt>
<trkpt lat="40.0713759" lon="-105.2297912">
  <ele>1583.0</ele>
  <time>2026-08-28T17:50:29Z</time>
  <course>254.46</course>
  <speed>0.01</speed>
  <fix>3d</fix>
</trkpt>
<trkpt lat="40.0713756" lon="-105.2297913">
  <ele>1582.99</ele>
  <time>2026-08-28T17:50:29Z</time>
  <course>75.28</course>
  <speed>0.0412310562561766</speed>
  <fix>3d</fix>
</trkpt>
<trkpt lat="40.0713759" lon="-105.2297912">
  <ele>1583.0</ele>
  <time>2026-08-28T17:50:29Z</time>
  <course>254.46</course>
  <speed>0.01</speed>
  <fix>3d</fix>
</trkpt>
<trkpt lat="40.0713756" lon="-105.2297913">
  <ele>1582.99</ele>
  <time>2026-08-28T17:50:29Z</time>
  <course>75.28</course>
  <speed>0.0412310562561766</speed>
  <fix>3d</fix>
</trkpt>
<trkpt lat="40.0713759" lon="-105.2297913">
  <ele>1583.0</ele>
  <time>2026-08-28T17:50:29Z</time>
  <course>254.46</course>
  <speed>0.01</speed>
  <fix>3d</fix>
</trkpt>
<trkpt lat="40.0713756" lon="-105.2297913">
  <ele>1582.99</ele>
  <time>2026-08-28T17:50:29Z</time>
  <course>75.28</course>
  <speed>0.0316227766016838</speed>
  <fix>3d</fix>
</trkpt>
<trkpt lat="40.0713759" lon="-105.2297913">
  <ele>1583.0</ele>
  <time>2026-08-28T17:50:29Z</time>
  <course>254.46</course>
  <speed>0.01</speed>
  <fix>3d</fix>
</trkpt>
<trkpt lat="40.0713756" lon="-105.2297913">
  <ele>1582.99</ele>
  <time>2026-08-28T17:50:29Z</time>
  <course>75.27</course>
  <speed>0.0316227766016838</speed>
  <fix>3d</fix>
</trkpt>
<trkpt lat="40.0713759" lon="-105.2297913">
  <ele>1583.0</ele>
  <time>2026-08-28T17:50:29Z</time>
  <course>254.45</course>
  <speed>0.01</speed>
  <fix>3d</fix>
</trkpt>
<trkpt lat="40.0713756" lon="-105.2297913">
  <ele>1583.0</ele>
  <time>2026-08-28T17:50:29Z</time>
  <course>75.27</course>
  <speed>0.0316227766016838</speed>
  <fix>3d</fix>
</trkpt>
<trkpt lat="40.0713759" lon="-105.2297913">
  <ele>1583.0</ele>
  <time>2026-08-28T17:50:29Z</time>
  <course>254.45</course>
  <speed>0.01</speed>
  <fix>3d</fix>
</trkpt>
<trkpt lat="40.0713756" lon="-105.2297913">
  <ele>1583.0</ele>
  <time>2026-08-28T17:50:29Z</time>
  <course>75.27</course>
  <speed>0.0316227766016838</speed>
  <fix>3d</fix>
</trkpt>
<trkpt lat="40.0713759" lon="-105.2297913">
  <ele>1583.0</ele>
  <time>2026-08-28T17:50:29Z</time>
  <course>254.45</course>
  <speed>0.01</speed>
  <fix>3d</fix>
</trkpt>
<trkpt lat="40.0713756" lon="-105.2297913">
  <ele>1583.0</ele>
  <time>2026-08-28T17:50:29Z</time>
  <course>75.26</course>
  <speed>0.03</speed>
  <fix>3d</fix>
</trkpt>
<trkpt lat="40.0713759" lon="-105.2297913">
  <ele>1583.0</ele>
  <time>2026-08-28T17:50:29Z</time>
  <course>254.45</course>
  <speed>0.01</speed>
  <fix>3d</fix>
</trkpt>
<trkpt lat="40.0713756" lon="-105.2297914">
  <ele>1583.0</ele>
  <time>2026-08-28T17:50:29Z</time>
  <course>75.26</course>
  <speed>0.0316227766016838</speed>
  <fix>3d</fix>
</trkpt>
<trkpt lat="40.0713759" lon="-105.2297913">
  <ele>1583.0</ele>
  <time>2026-08-28T17:50:29Z</time>
  <course>75.07</course>
  <speed>0.0</speed>
  <fix>3d</fix>
</trkpt>
<trkpt lat="40.0713756" lon="-105.2297914">
  <ele>1583.01</ele>
  <time>2026-08-28T17:50:29Z</time>
  <course>75.26</course>
  <speed>0.044721359549995794</speed>
  <fix>3d</fix>
</trkpt>
<trkpt lat="40.0713759" lon="-105.2297913">
  <ele>1583.0</ele>
  <time>2026-08-28T17:50:29Z</time>
  <course>75.07</course>
  <speed>0.0</speed>
  <fix>3d</fix>
</trkpt>
<trkpt lat="40.0713757" lon="-105.2297913">
  <ele>1583.01</ele>
  <time>2026-08-28T17:50:29Z</time>
  <course>75.26</course>
  <speed>0.09</speed>
  <fix>3d</fix>
</trkpt>
<trkpt lat="40.0713759" lon="-105.2297913">
  <ele>1583.0</ele>
  <time>2026-08-28T17:50:29Z</time>
  <course>74.49</course>
  <speed>0.05</speed>
  <fix>3d</fix>
</trkpt>
<trkpt lat="40.0713757" lon="-105.2297911">
  <ele>1583.01</ele>
  <time>2026-08-28T17:50:29Z</time>
  <course>75.25</course>
  <speed>0.15</speed>
  <fix>3d</fix>
</trkpt>
<trkpt lat="40.0713759" lon="-105.2297913">
  <ele>1583.0</ele>
  <time>2026-08-28T17:50:29Z</time>
  <course>74.49</course>
  <speed>0.05</speed>
  <fix>3d</fix>
</trkpt>
<trkpt lat="40.0713757" lon="-105.2297909">
  <ele>1583.01</ele>
  <time>2026-08-28T17:50:29Z</time>
  <course>75.25</course>
  <speed>0.22090722034374521</speed>
  <fix>3d</fix>
</trkpt>
<trkpt lat="40.0713759" lon="-105.2297913">
  <ele>1583.0</ele>
  <time>2026-08-28T17:50:29Z</time>
  <course>74.49</course>
  <speed>0.05</speed>
  <fix>3d</fix>
</trkpt>
<trkpt lat="40.0713757" lon="-105.2297906">
  <ele>1583.01</ele>
  <time>2026-08-28T17:50:29Z</time>
  <course>75.25</course>
  <speed>0.31400636936215165</speed>
  <fix>3d</fix>
</trkpt>
<trkpt lat="40.0713759" lon="-105.2297911">
  <ele>1583.0</ele>
  <time>2026-08-28T17:50:29Z</time>
  <course>74.48</course>
  <speed>0.16</speed>
  <fix>3d</fix>
</trkpt>
<trkpt lat="40.0713758" lon="-105.2297901">
  <ele>1583.01</ele>
  <time>2026-08-28T17:50:29Z</time>
  <course>75.25</course>
  <speed>0.40607881008493907</speed>
  <fix>3d</fix>
</trkpt>
<trkpt lat="40.0713759" lon="-105.2297911">
  <ele>1583.0</ele>
  <time>2026-08-28T17:50:29Z</time>
  <course>74.48</course>
  <speed>0.16</speed>
  <fix>3d</fix>
</trkpt>
<trkpt lat="40.0713759" lon="-105.2297896">
  <ele>1583.01</ele>
  <time>2026-08-28T17:50:29Z</time>
  <course>75.24</course>
  <speed>0.47853944456021597</speed>
  <fix>3d</fix>
</trkpt>
<trkpt lat="40.071376" lon="-105.2297906">
  <ele>1583.0</ele>
  <time>2026-08-28T17:50:29Z</time>
  <course>74.48</course>
  <speed>0.32</speed>
  <fix>3d</fix>
</trkpt>
<trkpt lat="40.0713761" lon="-105.229789">
  <ele>1583.01</ele>
  <time>2026-08-28T17:50:29Z</time>
  <course>75.24</course>
  <speed>0.5608921464952064</speed>
  <fix>3d</fix>
</trkpt>
<trkpt lat="40.071376" lon="-105.2297906">
  <ele>1583.0</ele>
  <time>2026-08-28T17:50:29Z</time>
  <course>74.48</course>
  <speed>0.32</speed>
  <fix>3d</fix>
</trkpt>
<trkpt lat="40.0713762" lon="-105.2297883">
  <ele>1583.01</ele>
  <time>2026-08-28T17:50:29Z</time>
  <course>75.24</course>
  <speed>0.623698645180507</speed>
  <fix>3d</fix>
</trkpt>
<trkpt lat="40.0713761" lon="-105.2297896">
  <ele>1583.0</ele>
  <time>2026-08-28T17:50:29Z</time>
  <course>74.48</course>
  <speed>0.48</speed>
  <fix>3d</fix>
</trkpt>
<trkpt lat="40.0713763" lon="-105.2297875">
  <ele>1583.01</ele>
  <time>2026-08-28T17:50:29Z</time>
  <course>75.24</course>
  <speed>0.6746851117373199</speed>
  <fix>3d</fix>
</trkpt>
<trkpt lat="40.0713764" lon="-105.2297883">
  <ele>1583.0</ele>
  <time>2026-08-28T17:50:29Z</time>
  <course>74.48</course>
  <speed>0.62</speed>
  <fix>3d</fix>
</trkpt>
<trkpt lat="40.0713765" lon="-105.2297867">
  <ele>1583.01</ele>
  <time>2026-08-28T17:50:29Z</time>
  <course>75.23</course>
  <speed>0.7278049189171505</speed>
  <fix>3d</fix>
</trkpt>
<trkpt lat="40.0713764" lon="-105.2297883">
  <ele>1583.0</ele>
  <time>2026-08-28T17:50:29Z</time>
  <course>74.48</course>
  <speed>0.62</speed>
  <fix>3d</fix>
</trkpt>
<trkpt lat="40.0713767" lon="-105.2297858">
  <ele>1583.01</ele>
  <time>2026-08-28T17:50:29Z</time>
  <course>75.23</course>
  <speed>0.7690253571892152</speed>
  <fix>3d</fix>
</trkpt>
<trkpt lat="40.0713767" lon="-105.2297868">
  <ele>1583.0</ele>
  <time>2026-08-28T17:50:29Z</time>
  <course>74.48</course>
  <speed>0.73</speed>
  <fix>3d</fix>
</trkpt>
<trkpt lat="40.0713769" lon="-105.2297849">
  <ele>1583.01</ele>
  <time>2026-08-28T17:50:29Z</time>
  <course>75.23</course>
  <speed>0.8004998438475801</speed>
  <fix>3d</fix>
</trkpt>
<trkpt lat="40.0713767" lon="-105.2297868">
  <ele>1583.0</ele>
  <time>2026-08-28T17:50:29Z</time>
  <course>74.48</course>
  <speed>0.73</speed>
  <fix>3d</fix>
</trkpt>
<trkpt lat="40.0713771" lon="-105.229784">
  <ele>1583.01</ele>
  <time>2026-08-28T17:50:29Z</time>
  <course>75.23</course>
  <speed>0.8297590011563598</speed>
  <fix>3d</fix>
</trkpt>
<trkpt lat="40.071377" lon="-105.229785">
  <ele>1583.0</ele>
  <time>2026-08-28T17:50:29Z</time>
  <course>74.48</course>
  <speed>0.8</speed>
  <fix>3d</fix>
</trkpt>
<trkpt lat="40.0713773" lon="-105.229783">
  <ele>1583.01</ele>
  <time>2026-08-28T17:50:29Z</time>
  <course>75.22</course>
  <speed>0.8514693182963201</speed>
  <fix>3d</fix>
</trkpt>
<trkpt lat="40.071377" lon="-105.229785">
  <ele>1583.0</ele>
  <time>2026-08-28T17:50:29Z</time>
  <course>74.48</course>
  <speed>0.8</speed>
  <fix>3d</fix>
</trkpt>
<trkpt lat="40.0713775" lon="-105.229782">
  <ele>1583.01</ele>
  <time>2026-08-28T17:50:29Z</time>
  <course>75.22</course>
  <speed>0.8612200647918046</speed>
  <fix>3d</fix>
</trkpt>
<trkpt lat="40.0713774" lon="-105.2297832">
  <ele>1583.0</ele>
  <time>2026-08-28T17:50:29Z</time>
  <course>74.48</course>
  <speed>0.85</speed>
  <fix>3d</fix>
</trkpt>
<trkpt lat="40.0713777" lon="-105.229781">
  <ele>1583.01</ele>
  <time>2026-08-28T17:50:29Z</time>
  <course>75.22</course>
  <speed>0.870976463516667</speed>
  <fix>3d</fix>
</trkpt>
<trkpt lat="40.0713774" lon="-105.2297832">
  <ele>1583.0</ele>
  <time>2026-08-28T17:50:29Z</time>
  <course>74.48</course>
  <speed>0.85</speed>
  <fix>3d</fix>
</trkpt>
<trkpt lat="40.0713779" lon="-105.22978">
  <ele>1583.01</ele>
  <time>2026-08-28T17:50:29Z</time>
  <course>75.22</course>
  <speed>0.870976463516667</speed>
  <fix>3d</fix>
</trkpt>
<trkpt lat="40.0713779" lon="-105.2297813">
  <ele>1583.0</ele>
  <time>2026-08-28T17:50:29Z</time>
  <course>74.48</course>
  <speed>0.87</speed>
  <fix>3d</fix>
</trkpt>
<trkpt lat="40.0713781" lon="-105.229779">
  <ele>1583.01</ele>
  <time>2026-08-28T17:50:29Z</time>
  <course>75.21</course>
  <speed>0.8612200647918046</speed>
  <fix>3d</fix>
</trkpt>
<trkpt lat="40.0713779" lon="-105.2297813">
  <ele>1583.0</ele>
  <time>2026-08-28T17:50:29Z</time>
  <course>74.48</course>
  <speed>0.87</speed>
  <fix>3d</fix>
</trkpt>
<trkpt lat="40.0713783" lon="-105.229778">
  <ele>1583.0</ele>
  <time>2026-08-28T17:50:29Z</time>
  <course>75.21</course>
  <speed>0.8612200647918046</speed>
  <fix>3d</fix>
</trkpt>
<trkpt lat="40.0713784" lon="-105.2297792">
  <ele>1583.0</ele>
  <time>2026-08-28T17:50:29Z</time>
  <course>74.48</course>
  <speed>0.87</speed>
  <fix>3d</fix>
</trkpt>
<trkpt lat="40.0713785" lon="-105.229777">
  <ele>1583.0</ele>
  <time>2026-08-28T17:50:29Z</time>
  <course>75.21</course>
  <speed>0.8514693182963201</speed>
  <fix>3d</fix>
</trkpt>
<trkpt lat="40.0713784" lon="-105.2297792">
  <ele>1583.0</ele>
  <time>2026-08-28T17:50:29Z</time>
  <course>74.48</course>
  <speed>0.87</speed>
  <fix>3d</fix>
</trkpt>
<trkpt lat="40.0713787" lon="-105.229776">
  <ele>1583.0</ele>
  <time>2026-08-28T17:50:29Z</time>
  <course>75.2</course>
  <speed>0.8417244204607586</speed>
  <fix>3d</fix>
</trkpt>
<trkpt lat="40.0713788" lon="-105.2297773">
  <ele>1583.0</ele>
  <time>2026-08-28T17:50:29Z</time>
  <course>74.48</course>
  <speed>0.85</speed>
  <fix>3d</fix>
</trkpt>
<trkpt lat="40.0713789" lon="-105.229775">
  <ele>1583.0</ele>
  <time>2026-08-28T17:50:29Z</time>
  <course>75.2</course>
  <speed>0.8222530024268686</speed>
  <fix>3d</fix>
</trkpt>
<trkpt lat="40.0713788" lon="-105.2297773">
  <ele>1583.0</ele>
  <time>2026-08-28T17:50:29Z</time>
  <course>74.48</course>
  <speed>0.85</speed>
  <fix>3d</fix>
</trkpt>
<trkpt lat="40.0713791" lon="-105.2297741">
  <ele>1583.0</ele>
  <time>2026-08-28T17:50:29Z</time>
  <course>75.2</course>
  <speed>0.8102468759581859</speed>
  <fix>3d</fix>
</trkpt>
<trkpt lat="40.0713788" lon="-105.2297773">
  <ele>1583.0</ele>
  <time>2026-08-28T17:50:29Z</time>
  <course>74.48</course>
  <speed>0.85</speed>
  <fix>3d</fix>
</trkpt>
<trkpt lat="40.0713793" lon="-105.2297732">
  <ele>1582.99</ele>
  <time>2026-08-28T17:50:29Z</time>
  <course>75.2</course>
  <speed>0.7907591289387687</speed>
  <fix>3d</fix>
</trkpt>
<trkpt lat="40.0713791" lon="-105.2297754">
  <ele>1583.0</ele>
  <time>2026-08-28T17:50:29Z</time>
  <course>74.48</course>
  <speed>0.83</speed>
  <fix>3d</fix>
</trkpt>
<trkpt lat="40.0713795" lon="-105.2297723">
  <ele>1582.99</ele>
  <time>2026-08-28T17:50:29Z</time>
  <course>75.2</course>
  <speed>0.7810249675906654</speed>
  <fix>3d</fix>
</trkpt>
<trkpt lat="40.0713791" lon="-105.2297754">
  <ele>1583.0</ele>
  <time>2026-08-28T17:50:29Z</time>
  <course>74.48</course>
  <speed>0.83</speed>
  <fix>3d</fix>
</trkpt>
<trkpt lat="40.0713797" lon="-105.2297714">
  <ele>1582.99</ele>
  <time>2026-08-28T17:50:29Z</time>
  <course>75.19</course>
  <speed>0.7592759709091287</speed>
  <fix>3d</fix>
</trkpt>
<trkpt lat="40.0713796" lon="-105.2297735">
  <ele>1583.0</ele>
  <time>2026-08-28T17:50:29Z</time>
  <course>74.48</course>
  <speed>0.8</speed>
  <fix>3d</fix>
</trkpt>
<trkpt lat="40.0713799" lon="-105.2297706">
  <ele>1583.0</ele>
  <time>2026-08-28T17:50:29Z</time>
  <course>75.19</course>
  <speed>0.7495331880577403</speed>
  <fix>3d</fix>
</trkpt>
<trkpt lat="40.0713796" lon="-105.2297735">
  <ele>1583.0</ele>
  <time>2026-08-28T17:50:29Z</time>
  <course>74.48</course>
  <speed>0.8</speed>
  <fix>3d</fix>
</trkpt>
<trkpt lat="40.0713801" lon="-105.2297697">
  <ele>1583.0</ele>
  <time>2026-08-28T17:50:29Z</time>
  <course>75.19</course>
  <speed>0.7300684899377592</speed>
  <fix>3d</fix>
</trkpt>
<trkpt lat="40.0713799" lon="-105.2297718">
  <ele>1583.0</ele>
  <time>2026-08-28T17:50:29Z</time>
  <course>74.48</course>
  <speed>0.77</speed>
  <fix>3d</fix>
</trkpt>
<trkpt lat="40.0713802" lon="-105.2297689">
  <ele>1583.0</ele>
  <time>2026-08-28T17:50:29Z</time>
  <course>75.19</course>
  <speed>0.7180529228406496</speed>
  <fix>3d</fix>
</trkpt>
<trkpt lat="40.0713799" lon="-105.2297718">
  <ele>1583.0</ele>
  <time>2026-08-28T17:50:29Z</time>
  <course>74.48</course>
  <speed>0.77</speed>
  <fix>3d</fix>
</trkpt>
<trkpt lat="40.0713804" lon="-105.2297681">
  <ele>1583.0</ele>
  <time>2026-08-28T17:50:29Z</time>
  <course>75.19</course>
  <speed>0.6985699678629191</speed>
  <fix>3d</fix>
</trkpt>
<trkpt lat="40.0713803" lon="-105.2297701">
  <ele>1583.0</ele>
  <time>2026-08-28T17:50:29Z</time>
  <course>74.48</course>
  <speed>0.74</speed>
  <fix>3d</fix>
</trkpt>
<trkpt lat="40.0713806" lon="-105.2297673">
  <ele>1583.0</ele>
  <time>2026-08-28T17:50:29Z</time>
  <course>75.19</course>
  <speed>0.688839603971781</speed>
  <fix>3d</fix>
</trkpt>
<trkpt lat="40.0713807" lon="-105.2297684">
  <ele>1583.0</ele>
  <time>2026-08-28T17:50:29Z</time>
  <course>74.48</course>
  <speed>0.71</speed>
  <fix>3d</fix>
</trkpt>
<trkpt lat="40.0713808" lon="-105.2297666">
  <ele>1583.0</ele>
  <time>2026-08-28T17:50:29Z</time>
  <course>75.19</course>
  <speed>0.6791170738539859</speed>
  <fix>3d</fix>
</trkpt>
<trkpt lat="40.0713807" lon="-105.2297684">
  <ele>1583.0</ele>
  <time>2026-08-28T17:50:29Z</time>
  <course>74.48</course>
  <speed>0.71</speed>
  <fix>3d</fix>
</trkpt>
<trkpt lat="40.0713809" lon="-105.2297658">
  <ele>1583.0</ele>
  <time>2026-08-28T17:50:29Z</time>
  <course>75.19</course>
  <speed>0.6670832032063168</speed>
  <fix>3d</fix>
</trkpt>
<trkpt lat="40.071381" lon="-105.2297668">
  <ele>1583.0</ele>
  <time>2026-08-28T17:50:29Z</time>
  <course>74.48</course>
  <speed>0.69</speed>
  <fix>3d</fix>
</trkpt>
<trkpt lat="40.0713811" lon="-105.229765">
  <ele>1583.0</ele>
  <time>2026-08-28T17:50:29Z</time>
  <course>75.19</course>
  <speed>0.6573431371817918</speed>
  <fix>3d</fix>
</trkpt>
<trkpt lat="40.071381" lon="-105.2297668">
  <ele>1583.0</ele>
  <time>2026-08-28T17:50:29Z</time>
  <course>74.48</course>
  <speed>0.69</speed>
  <fix>3d</fix>
</trkpt>
<trkpt lat="40.0713813" lon="-105.2297643">
  <ele>1583.01</ele>
  <time>2026-08-28T17:50:29Z</time>
  <course>75.19</course>
  <speed>0.6476109943476871</speed>
  <fix>3d</fix>
</trkpt>
<trkpt lat="40.0713813" lon="-105.2297653">
  <ele>1583.0</ele>
  <time>2026-08-28T17:50:29Z</time>
  <course>74.48</course>
  <speed>0.67</speed>
  <fix>3d</fix>
</trkpt>
<trkpt lat="40.0713814" lon="-105.2297635">
  <ele>1583.01</ele>
  <time>2026-08-28T17:50:29Z</time>
  <course>75.19</course>
  <speed>0.6476109943476871</speed>
  <fix>3d</fix>
</trkpt>
<trkpt lat="40.0713813" lon="-105.2297653">
  <ele>1583.0</ele>
  <time>2026-08-28T17:50:29Z</time>
  <course>74.48</course>
  <speed>0.67</speed>
  <fix>3d</fix>
</trkpt>
<trkpt lat="40.0713816" lon="-105.2297628">
  <ele>1583.01</ele>
  <time>2026-08-28T17:50:29Z</time>
  <course>75.19</course>
  <speed>0.6378871373526824</speed>
  <fix>3d</fix>
</trkpt>
<trkpt lat="40.0713816" lon="-105.2297637">
  <ele>1583.0</ele>
  <time>2026-08-28T17:50:29Z</time>
  <course>74.48</course>
  <speed>0.66</speed>
  <fix>3d</fix>
</trkpt>
<trkpt lat="40.0713818" lon="-105.2297621">
  <ele>1583.01</ele>
  <time>2026-08-28T17:50:29Z</time>
  <course>75.2</course>
  <speed>0.6378871373526824</speed>
  <fix>3d</fix>
</trkpt>
<trkpt lat="40.0713816" lon="-105.2297637">
  <ele>1583.0</ele>
  <time>2026-08-28T17:50:29Z</time>
  <course>74.48</course>
  <speed>0.66</speed>
  <fix>3d</fix>
</trkpt>
<trkpt lat="40.0713819" lon="-105.2297613">
  <ele>1583.01</ele>
  <time>2026-08-28T17:50:29Z</time>
  <course>75.2</course>
  <speed>0.6281719509815764</speed>
  <fix>3d</fix>
</trkpt>
<trkpt lat="40.0713819" lon="-105.2297622">
  <ele>1583.0</ele>
  <time>2026-08-28T17:50:29Z</time>
  <course>74.48</course>
  <speed>0.65</speed>
  <fix>3d</fix>
</trkpt>
<trkpt lat="40.0713821" lon="-105.2297606">
  <ele>1583.01</ele>
  <time>2026-08-28T17:50:29Z</time>
  <course>75.2</course>
  <speed>0.6281719509815764</speed>
  <fix>3d</fix>
</trkpt>
<trkpt lat="40.0713819" lon="-105.2297622">
  <ele>1583.0</ele>
  <time>2026-08-28T17:50:29Z</time>
  <course>74.48</course>
  <speed>0.65</speed>
  <fix>3d</fix>
</trkpt>
<trkpt lat="40.0713822" lon="-105.2297599">
  <ele>1583.01</ele>
  <time>2026-08-28T17:50:29Z</time>
  <course>75.2</course>
  <speed>0.6281719509815764</speed>
  <fix>3d</fix>
</trkpt>
<trkpt lat="40.0713822" lon="-105.2297607">
  <ele>1583.0</ele>
  <time>2026-08-28T17:50:29Z</time>
  <course>74.48</course>
  <speed>0.65</speed>
  <fix>3d</fix>
</trkpt>
<trkpt lat="40.0713824" lon="-105.2297591">
  <ele>1583.01</ele>
  <time>2026-08-28T17:50:29Z</time>
  <course>75.2</course>
  <speed>0.6281719509815764</speed>
  <fix>3d</fix>
</trkpt>
<trkpt lat="40.0713822" lon="-105.2297607">
  <ele>1583.0</ele>
  <time>2026-08-28T17:50:29Z</time>
  <course>74.48</course>
  <speed>0.65</speed>
  <fix>3d</fix>
</trkpt>
<trkpt lat="40.0713825" lon="-105.2297584">
  <ele>1583.01</ele>
  <time>2026-08-28T17:50:29Z</time>
  <course>75.2</course>
  <speed>0.6281719509815764</speed>
  <fix>3d</fix>
</trkpt>
<trkpt lat="40.0713826" lon="-105.2297593">
  <ele>1583.0</ele>
  <time>2026-08-28T17:50:29Z</time>
  <course>74.48</course>
  <speed>0.65</speed>
  <fix>3d</fix>
</trkpt>
<trkpt lat="40.0713827" lon="-105.2297576">
  <ele>1583.01</ele>
  <time>2026-08-28T17:50:29Z</time>
  <course>75.21</course>
  <speed>0.6281719509815764</speed>
  <fix>3d</fix>
</trkpt>
<trkpt lat="40.0713826" lon="-105.2297593">
  <ele>1583.0</ele>
  <time>2026-08-28T17:50:29Z</time>
  <course>74.48</course>
  <speed>0.65</speed>
  <fix>3d</fix>
</trkpt>
<trkpt lat="40.0713829" lon="-105.2297569">
  <ele>1583.01</ele>
  <time>2026-08-28T17:50:29Z</time>
  <course>75.21</course>
  <speed>0.6281719509815764</speed>
  <fix>3d</fix>
</trkpt>
<trkpt lat="40.0713826" lon="-105.2297593">
  <ele>1583.0</ele>
  <time>2026-08-28T17:50:29Z</time>
  <course>74.48</course>
  <speed>0.65</speed>
  <fix>3d</fix>
</trkpt>
<trkpt lat="40.071383" lon="-105.2297562">
  <ele>1583.01</ele>
  <time>2026-08-28T17:50:29Z</time>
  <course>75.21</course>
  <speed>0.6378871373526824</speed>
  <fix>3d</fix>
</trkpt>
<trkpt lat="40.0713829" lon="-105.2297578">
  <ele>1583.0</ele>
  <time>2026-08-28T17:50:29Z</time>
  <course>74.48</course>
  <speed>0.65</speed>
  <fix>3d</fix>
</trkpt>
<trkpt lat="40.0713832" lon="-105.2297554">
  <ele>1583.01</ele>
  <time>2026-08-28T17:50:29Z</time>
  <course>75.21</course>
  <speed>0.6378871373526824</speed>
  <fix>3d</fix>
</trkpt>
<trkpt lat="40.0713829" lon="-105.2297578">
  <ele>1583.0</ele>
  <time>2026-08-28T17:50:29Z</time>
  <course>74.48</course>
  <speed>0.65</speed>
  <fix>3d</fix>
</trkpt>
<trkpt lat="40.0713833" lon="-105.2297547">
  <ele>1583.01</ele>
  <time>2026-08-28T17:50:29Z</time>
  <course>75.21</course>
  <speed>0.6378871373526824</speed>
  <fix>3d</fix>
</trkpt>
<trkpt lat="40.0713832" lon="-105.2297563">
  <ele>1583.0</ele>
  <time>2026-08-28T17:50:29Z</time>
  <course>74.48</course>
  <speed>0.66</speed>
  <fix>3d</fix>
</trkpt>
<trkpt lat="40.0713835" lon="-105.229754">
  <ele>1583.02</ele>
  <time>2026-08-28T17:50:29Z</time>
  <course>75.21</course>
  <speed>0.6378871373526824</speed>
  <fix>3d</fix>
</trkpt>
<trkpt lat="40.0713832" lon="-105.2297563">
  <ele>1583.0</ele>
  <time>2026-08-28T17:50:29Z</time>
  <course>74.48</course>
  <speed>0.66</speed>
  <fix>3d</fix>
</trkpt>
<trkpt lat="40.0713836" lon="-105.2297532">
  <ele>1583.02</ele>
  <time>2026-08-28T17:50:29Z</time>
  <course>75.22</course>
  <speed>0.6378871373526824</speed>
  <fix>3d</fix>
</trkpt>
<trkpt lat="40.0713835" lon="-105.2297548">
  <ele>1583.0</ele>
  <time>2026-08-28T17:50:29Z</time>
  <course>74.48</course>
  <speed>0.66</speed>
  <fix>3d</fix>
</trkpt>
<trkpt lat="40.0713838" lon="-105.2297525">
  <ele>1583.02</ele>
  <time>2026-08-28T17:50:29Z</time>
  <course>75.22</course>
  <speed>0.6476109943476871</speed>
  <fix>3d</fix>
</trkpt>
<trkpt lat="40.0713839" lon="-105.2297533">
  <ele>1583.0</ele>
  <time>2026-08-28T17:50:29Z</time>
  <course>74.48</course>
  <speed>0.67</speed>
  <fix>3d</fix>
</trkpt>
<trkpt lat="40.071384" lon="-105.2297517">
  <ele>1583.01</ele>
  <time>2026-08-28T17:50:29Z</time>
  <course>75.22</course>
  <speed>0.6476109943476871</speed>
  <fix>3d</fix>
</trkpt>
<trkpt lat="40.0713839" lon="-105.2297533">
  <ele>1583.0</ele>
  <time>2026-08-28T17:50:29Z</time>
  <course>74.48</course>
  <speed>0.67</speed>
  <fix>3d</fix>
</trkpt>
<trkpt lat="40.0713841" lon="-105.229751">
  <ele>1583.01</ele>
  <time>2026-08-28T17:50:29Z</time>
  <course>75.22</course>
  <speed>0.6476109943476871</speed>
  <fix>3d</fix>
</trkpt>
<trkpt lat="40.0713842" lon="-105.2297518">
  <ele>1583.0</ele>
  <time>2026-08-28T17:50:29Z</time>
  <course>74.48</course>
  <speed>0.67</speed>
  <fix>3d</fix>
</trkpt>
<trkpt lat="40.0713843" lon="-105.2297502">
  <ele>1583.01</ele>
  <time>2026-08-28T17:50:29Z</time>
  <course>75.22</course>
  <speed>0.6476109943476871</speed>
  <fix>3d</fix>
</trkpt>
<trkpt lat="40.0713842" lon="-105.2297518">
  <ele>1583.0</ele>
  <time>2026-08-28T17:50:29Z</time>
  <course>74.48</course>
  <speed>0.67</speed>
  <fix>3d</fix>
</trkpt>
<trkpt lat="40.0713845" lon="-105.2297494">
  <ele>1583.0</ele>
  <time>2026-08-28T17:50:29Z</time>
  <course>75.23</course>
  <speed>0.6476109943476871</speed>
  <fix>3d</fix>
</trkpt>
<trkpt lat="40.0713845" lon="-105.2297502">
  <ele>1583.0</ele>
  <time>2026-08-28T17:50:29Z</time>
  <course>74.48</course>
  <speed>0.67</speed>
  <fix>3d</fix>
</trkpt>
<trkpt lat="40.0713846" lon="-105.2297487">
  <ele>1583.0</ele>
  <time>2026-08-28T17:50:29Z</time>
  <course>75.23</course>
  <speed>0.6476109943476871</speed>
  <fix>3d</fix>
</trkpt>
<trkpt lat="40.0713845" lon="-105.2297502">
  <ele>1583.0</ele>
  <time>2026-08-28T17:50:29Z</time>
  <course>74.48</course>
  <speed>0.67</speed>
  <fix>3d</fix>
</trkpt>
<trkpt lat="40.0713848" lon="-105.2297479">
  <ele>1583.0</ele>
  <time>2026-08-28T17:50:29Z</time>
  <course>75.23</course>
  <speed>0.6573431371817918</speed>
  <fix>3d</fix>
</trkpt>
<trkpt lat="40.0713848" lon="-105.2297486">
  <ele>1583.0</ele>
  <time>2026-08-28T17:50:29Z</time>
  <course>74.48</course>
  <speed>0.68</speed>
  <fix>3d</fix>
</trkpt>
<trkpt lat="40.071385" lon="-105.2297471">
  <ele>1583.0</ele>
  <time>2026-08-28T17:50:29Z</time>
  <course>75.23</course>
  <speed>0.6596969000988256</speed>
  <fix>3d</fix>
</trkpt>
<trkpt lat="40.0713848" lon="-105.2297486">
  <ele>1583.0</ele>
  <time>2026-08-28T17:50:29Z</time>
  <course>74.48</course>
  <speed>0.68</speed>
  <fix>3d</fix>
</trkpt>
<trkpt lat="40.0713851" lon="-105.2297463">
  <ele>1583.0</ele>
  <time>2026-08-28T17:50:29Z</time>
  <course>75.23</course>
  <speed>0.6596969000988256</speed>
  <fix>3d</fix>
</trkpt>
<trkpt lat="40.0713851" lon="-105.2297471">
  <ele>1583.0</ele>
  <time>2026-08-28T17:50:29Z</time>
  <course>74.48</course>
  <speed>0.68</speed>
  <fix>3d</fix>
</trkpt>
<trkpt lat="40.0713853" lon="-105.2297455">
  <ele>1583.0</ele>
  <time>2026-08-28T17:50:29Z</time>
  <course>75.24</course>
  <speed>0.6596969000988256</speed>
  <fix>3d</fix>
</trkpt>
<trkpt lat="40.0713851" lon="-105.2297471">
  <ele>1583.0</ele>
  <time>2026-08-28T17:50:29Z</time>
  <course>74.48</course>
  <speed>0.68</speed>
  <fix>3d</fix>
</trkpt>
<trkpt lat="40.0713855" lon="-105.2297448">
  <ele>1583.0</ele>
  <time>2026-08-28T17:50:29Z</time>
  <course>75.24</course>
  <speed>0.6596969000988256</speed>
  <fix>3d</fix>
</trkpt>
<trkpt lat="40.0713855" lon="-105.2297456">
  <ele>1583.0</ele>
  <time>2026-08-28T17:50:29Z</time>
  <course>74.48</course>
  <speed>0.69</speed>
  <fix>3d</fix>
</trkpt>
<trkpt lat="40.0713856" lon="-105.229744">
  <ele>1583.01</ele>
  <time>2026-08-28T17:50:29Z</time>
  <course>75.24</course>
  <speed>0.6596969000988256</speed>
  <fix>3d</fix>
</trkpt>
<trkpt lat="40.0713855" lon="-105.2297456">
  <ele>1583.0</ele>
  <time>2026-08-28T17:50:29Z</time>
  <course>74.48</course>
  <speed>0.69</speed>
  <fix>3d</fix>
</trkpt>
<trkpt lat="40.0713858" lon="-105.2297432">
  <ele>1583.01</ele>
  <time>2026-08-28T17:50:29Z</time>
  <course>75.24</course>
  <speed>0.6694027188471824</speed>
  <fix>3d</fix>
</trkpt>
<trkpt lat="40.0713858" lon="-105.229744">
  <ele>1583.0</ele>
  <time>2026-08-28T17:50:29Z</time>
  <course>74.48</course>
  <speed>0.69</speed>
  <fix>3d</fix>
</trkpt>
<trkpt lat="40.071386" lon="-105.2297424">
  <ele>1583.01</ele>
  <time>2026-08-28T17:50:29Z</time>
  <course>75.24</course>
  <speed>0.6694027188471824</speed>
  <fix>3d</fix>
</trkpt>
<trkpt lat="40.0713858" lon="-105.229744">
  <ele>1583.0</ele>
  <time>2026-08-28T17:50:29Z</time>
  <course>74.48</course>
  <speed>0.69</speed>
  <fix>3d</fix>
</trkpt>
<trkpt lat="40.0713861" lon="-105.2297416">
  <ele>1583.01</ele>
  <time>2026-08-28T17:50:29Z</time>
  <course>75.25</course>
  <speed>0.6694027188471824</speed>
  <fix>3d</fix>
</trkpt>
<trkpt lat="40.0713858" lon="-105.229744">
  <ele>1583.0</ele>
  <time>2026-08-28T17:50:29Z</time>
  <course>74.48</course>
  <speed>0.69</speed>
  <fix>3d</fix>
</trkpt>
<trkpt lat="40.0713863" lon="-105.2297408">
  <ele>1583.01</ele>
  <time>2026-08-28T17:50:29Z</time>
  <course>75.25</course>
  <speed>0.6694027188471824</speed>
  <fix>3d</fix>
</trkpt>
<trkpt lat="40.0713862" lon="-105.2297424">
  <ele>1583.0</ele>
  <time>2026-08-28T17:50:29Z</time>
  <course>74.48</course>
  <speed>0.69</speed>
  <fix>3d</fix>
</trkpt>
<trkpt lat="40.0713865" lon="-105.22974">
  <ele>1583.01</ele>
  <time>2026-08-28T17:50:29Z</time>
  <course>75.25</course>
  <speed>0.6694027188471824</speed>
  <fix>3d</fix>
</trkpt>
<trkpt lat="40.0713862" lon="-105.2297424">
  <ele>1583.0</ele>
  <time>2026-08-28T17:50:29Z</time>
  <course>74.48</course>
  <speed>0.69</speed>
  <fix>3d</fix>
</trkpt>
<trkpt lat="40.0713866" lon="-105.2297392">
  <ele>1583.02</ele>
  <time>2026-08-28T17:50:29Z</time>
  <course>75.25</course>
  <speed>0.6694027188471824</speed>
  <fix>3d</fix>
</trkpt>
<trkpt lat="40.0713865" lon="-105.2297409">
  <ele>1583.0</ele>
  <time>2026-08-28T17:50:29Z</time>
  <course>74.48</course>
  <speed>0.69</speed>
  <fix>3d</fix>
</trkpt>
<trkpt lat="40.0713868" lon="-105.2297385">
  <ele>1583.02</ele>
  <time>2026-08-28T17:50:29Z</time>
  <course>75.26</course>
  <speed>0.6694027188471824</speed>
  <fix>3d</fix>
</trkpt>
<trkpt lat="40.0713865" lon="-105.2297409">
  <ele>1583.0</ele>
  <time>2026-08-28T17:50:29Z</time>
  <course>74.48</course>
  <speed>0.69</speed>
  <fix>3d</fix>
</trkpt>
<trkpt lat="40.071387" lon="-105.2297377">
  <ele>1583.02</ele>
  <time>2026-08-28T17:50:29Z</time>
  <course>75.26</course>
  <speed>0.6694027188471824</speed>
  <fix>3d</fix>
</trkpt>
<trkpt lat="40.0713868" lon="-105.2297393">
  <ele>1583.0</ele>
  <time>2026-08-28T17:50:29Z</time>
  <course>74.48</course>
  <speed>0.69</speed>
  <fix>3d</fix>
</trkpt>
<trkpt lat="40.0713871" lon="-105.2297369">
  <ele>1583.02</ele>
  <time>2026-08-28T17:50:29Z</time>
  <course>75.26</course>
  <speed>0.6694027188471824</speed>
  <fix>3d</fix>
</trkpt>
<trkpt lat="40.0713868" lon="-105.2297393">
  <ele>1583.0</ele>
  <time>2026-08-28T17:50:29Z</time>
  <course>74.48</course>
  <speed>0.69</speed>
  <fix>3d</fix>
</trkpt>
<trkpt lat="40.0713873" lon="-105.2297361">
  <ele>1583.02</ele>
  <time>2026-08-28T17:50:29Z</time>
  <course>75.26</course>
  <speed>0.6596969000988256</speed>
  <fix>3d</fix>
</trkpt>
<trkpt lat="40.0713872" lon="-105.2297376">
  <ele>1583.0</ele>
  <time>2026-08-28T17:50:29Z</time>
  <course>74.48</course>
  <speed>0.69</speed>
  <fix>3d</fix>
</trkpt>
<trkpt lat="40.0713875" lon="-105.2297353">
  <ele>1583.02</ele>
  <time>2026-08-28T17:50:29Z</time>
  <course>75.26</course>
  <speed>0.6596969000988256</speed>
  <fix>3d</fix>
</trkpt>
<trkpt lat="40.0713875" lon="-105.2297361">
  <ele>1583.0</ele>
  <time>2026-08-28T17:50:29Z</time>
  <course>74.48</course>
  <speed>0.69</speed>
  <fix>3d</fix>
</trkpt>
<trkpt lat="40.0713876" lon="-105.2297346">
  <ele>1583.02</ele>
  <time>2026-08-28T17:50:29Z</time>
  <course>75.27</course>
  <speed>0.6596969000988256</speed>
  <fix>3d</fix>
</trkpt>
<trkpt lat="40.0713875" lon="-105.2297361">
  <ele>1583.0</ele>
  <time>2026-08-28T17:50:29Z</time>
  <course>74.48</course>
  <speed>0.69</speed>
  <fix>3d</fix>
</trkpt>
<trkpt lat="40.0713878" lon="-105.2297338">
  <ele>1583.02</ele>
  <time>2026-08-28T17:50:29Z</time>
  <course>75.27</course>
  <speed>0.6596969000988256</speed>
  <fix>3d</fix>
</trkpt>
<trkpt lat="40.0713878" lon="-105.2297346">
  <ele>1583.0</ele>
  <time>2026-08-28T17:50:29Z</time>
  <course>74.48</course>
  <speed>0.69</speed>
  <fix>3d</fix>
</trkpt>
<trkpt lat="40.071388" lon="-105.229733">
  <ele>1583.02</ele>
  <time>2026-08-28T17:50:29Z</time>
  <course>75.27</course>
  <speed>0.6596969000988256</speed>
  <fix>3d</fix>
</trkpt>
<trkpt lat="40.0713878" lon="-105.2297346">
  <ele>1583.0</ele>
  <time>2026-08-28T17:50:29Z</time>
  <course>74.48</course>
  <speed>0.69</speed>
  <fix>3d</fix>
</trkpt>
<trkpt lat="40.0713881" lon="-105.2297322">
  <ele>1583.02</ele>
  <time>2026-08-28T17:50:29Z</time>
  <course>75.27</course>
  <speed>0.6596969000988256</speed>
  <fix>3d</fix>
</trkpt>
<trkpt lat="40.0713882" lon="-105.229733">
  <ele>1583.0</ele>
  <time>2026-08-28T17:50:29Z</time>
  <course>74.48</course>
  <speed>0.69</speed>
  <fix>3d</fix>
</trkpt>
<trkpt lat="40.0713883" lon="-105.2297314">
  <ele>1583.02</ele>
  <time>2026-08-28T17:50:29Z</time>
  <course>75.27</course>
  <speed>0.6596969000988256</speed>
  <fix>3d</fix>
</trkpt>
<trkpt lat="40.0713882" lon="-105.229733">
  <ele>1583.0</ele>
  <time>2026-08-28T17:50:29Z</time>
  <course>74.48</course>
  <speed>0.69</speed>
  <fix>3d</fix>
</trkpt>
<trkpt lat="40.0713885" lon="-105.2297306">
  <ele>1583.01</ele>
  <time>2026-08-28T17:50:29Z</time>
  <course>75.28</course>
  <speed>0.6596969000988256</speed>
  <fix>3d</fix>
</trkpt>
<trkpt lat="40.0713885" lon="-105.2297314">
  <ele>1583.0</ele>
  <time>2026-08-28T17:50:29Z</time>
  <course>74.48</course>
  <speed>0.69</speed>
  <fix>3d</fix>
</trkpt>
<trkpt lat="40.0713886" lon="-105.2297298">
  <ele>1583.01</ele>
  <time>2026-08-28T17:50:29Z</time>
  <course>75.28</course>
  <speed>0.6596969000988256</speed>
  <fix>3d</fix>
</trkpt>
<trkpt lat="40.0713885" lon="-105.2297314">
  <ele>1583.0</ele>
  <time>2026-08-28T17:50:29Z</time>
  <course>74.48</course>
  <speed>0.69</speed>
  <fix>3d</fix>
</trkpt>
<trkpt lat="40.0713888" lon="-105.2297291">
  <ele>1583.01</ele>
  <time>2026-08-28T17:50:29Z</time>
  <course>75.28</course>
  <speed>0.6596969000988256</speed>
  <fix>3d</fix>
</trkpt>
<trkpt lat="40.0713888" lon="-105.2297299">
  <ele>1583.0</ele>
  <time>2026-08-28T17:50:29Z</time>
  <course>74.48</course>
  <speed>0.69</speed>
  <fix>3d</fix>
</trkpt>
<trkpt lat="40.071389" lon="-105.2297283">
  <ele>1583.01</ele>
  <time>2026-08-28T17:50:29Z</time>
  <course>75.28</course>
  <speed>0.6596969000988256</speed>
  <fix>3d</fix>
</trkpt>
<trkpt lat="40.0713888" lon="-105.2297299">
  <ele>1583.0</ele>
  <time>2026-08-28T17:50:29Z</time>
  <course>74.48</course>
  <speed>0.69</speed>
  <fix>3d</fix>
</trkpt>
<trkpt lat="40.0713891" lon="-105.2297275">
  <ele>1583.0</ele>
  <time>2026-08-28T17:50:29Z</time>
  <course>75.28</course>
  <speed>0.6596969000988256</speed>
  <fix>3d</fix>
</trkpt>
<trkpt lat="40.0713892" lon="-105.2297283">
  <ele>1583.0</ele>
  <time>2026-08-28T17:50:29Z</time>
  <course>74.48</course>
  <speed>0.69</speed>
  <fix>3d</fix>
</trkpt>
<trkpt lat="40.0713893" lon="-105.2297267">
  <ele>1583.0</ele>
  <time>2026-08-28T17:50:29Z</time>
  <course>75.29</course>
  <speed>0.6596969000988256</speed>
  <fix>3d</fix>
</trkpt>
<trkpt lat="40.0713892" lon="-105.2297283">
  <ele>1583.0</ele>
  <time>2026-08-28T17:50:29Z</time>
  <course>74.48</course>
  <speed>0.69</speed>
  <fix>3d</fix>
</trkpt>
<trkpt lat="40.0713895" lon="-105.2297259">
  <ele>1583.0</ele>
  <time>2026-08-28T17:50:29Z</time>
  <course>75.29</course>
  <speed>0.6596969000988256</speed>
  <fix>3d</fix>
</trkpt>
<trkpt lat="40.0713892" lon="-105.2297283">
  <ele>1583.0</ele>
  <time>2026-08-28T17:50:29Z</time>
  <course>74.48</course>
  <speed>0.69</speed>
  <fix>3d</fix>
</trkpt>
<trkpt lat="40.0713896" lon="-105.2297251">
  <ele>1583.0</ele>
  <time>2026-08-28T17:50:29Z</time>
  <course>75.29</course>
  <speed>0.6596969000988256</speed>
  <fix>3d</fix>
</trkpt>
<trkpt lat="40.0713895" lon="-105.2297267">
  <ele>1583.0</ele>
  <time>2026-08-28T17:50:29Z</time>
  <course>74.48</course>
  <speed>0.69</speed>
  <fix>3d</fix>
</trkpt>
<trkpt lat="40.0713898" lon="-105.2297244">
  <ele>1583.0</ele>
  <time>2026-08-28T17:50:29Z</time>
  <course>75.29</course>
  <speed>0.6596969000988256</speed>
  <fix>3d</fix>
</trkpt>
<trkpt lat="40.0713895" lon="-105.2297267">
  <ele>1583.0</ele>
  <time>2026-08-28T17:50:29Z</time>
  <course>74.48</course>
  <speed>0.69</speed>
  <fix>3d</fix>
</trkpt>
<trkpt lat="40.07139" lon="-105.2297236">
  <ele>1583.0</ele>
  <time>2026-08-28T17:50:29Z</time>
  <course>75.29</course>
  <speed>0.6596969000988256</speed>
  <fix>3d</fix>
</trkpt>
<trkpt lat="40.0713898" lon="-105.2297251">
  <ele>1583.0</ele>
  <time>2026-08-28T17:50:29Z</time>
  <course>74.48</course>
  <speed>0.69</speed>
  <fix>3d</fix>
</trkpt>
<trkpt lat="40.0713901" lon="-105.2297228">
  <ele>1583.0</ele>
  <time>2026-08-28T17:50:29Z</time>
  <course>75.29</course>
  <speed>0.6596969000988256</speed>
  <fix>3d</fix>
</trkpt>
<trkpt lat="40.0713898" lon="-105.2297251">
  <ele>1583.0</ele>
  <time>2026-08-28T17:50:29Z</time>
  <course>74.48</course>
  <speed>0.69</speed>
  <fix>3d</fix>
</trkpt>
<trkpt lat="40.0713903" lon="-105.229722">
  <ele>1583.0</ele>
  <time>2026-08-28T17:50:29Z</time>
  <course>75.3</course>
  <speed>0.6596969000988256</speed>
  <fix>3d</fix>
</trkpt>
<trkpt lat="40.0713901" lon="-105.2297236">
  <ele>1583.0</ele>
  <time>2026-08-28T17:50:29Z</time>
  <course>74.48</course>
  <speed>0.69</speed>
  <fix>3d</fix>
</trkpt>
<trkpt lat="40.0713905" lon="-105.2297213">
  <ele>1582.99</ele>
  <time>2026-08-28T17:50:29Z</time>
  <course>75.3</course>
  <speed>0.6596969000988256</speed>
  <fix>3d</fix>
</trkpt>
<trkpt lat="40.0713901" lon="-105.2297236">
  <ele>1583.0</ele>
  <time>2026-08-28T17:50:29Z</time>
  <course>74.48</course>
  <speed>0.69</speed>
  <fix>3d</fix>
</trkpt>
<trkpt lat="40.0713906" lon="-105.2297205">
  <ele>1582.99</ele>
  <time>2026-08-28T17:50:29Z</time>
  <course>75.3</course>
  <speed>0.6596969000988256</speed>
  <fix>3d</fix>
</trkpt>
<trkpt lat="40.0713905" lon="-105.229722">
  <ele>1583.0</ele>
  <time>2026-08-28T17:50:29Z</time>
  <course>74.48</course>
  <speed>0.69</speed>
  <fix>3d</fix>
</trkpt>
<trkpt lat="40.0713908" lon="-105.2297197">
  <ele>1582.99</ele>
  <time>2026-08-28T17:50:29Z</time>
  <course>75.3</course>
  <speed>0.6596969000988256</speed>
  <fix>3d</fix>
</trkpt>
<trkpt lat="40.0713908" lon="-105.2297204">
  <ele>1583.0</ele>
  <time>2026-08-28T17:50:29Z</time>
  <course>74.48</course>
  <speed>0.69</speed>
  <fix>3d</fix>
</trkpt>
<trkpt lat="40.071391" lon="-105.2297189">
  <ele>1582.99</ele>
  <time>2026-08-28T17:50:29Z</time>
  <course>75.3</course>
  <speed>0.6596969000988256</speed>
  <fix>3d</fix>
</trkpt>
<trkpt lat="40.0713908" lon="-105.2297204">
  <ele>1583.0</ele>
  <time>2026-08-28T17:50:29Z</time>
  <course>74.48</course>
  <speed>0.69</speed>
  <fix>3d</fix>
</trkpt>
<trkpt lat="40.0713911" lon="-105.2297181">
  <ele>1583.0</ele>
  <time>2026-08-28T17:50:29Z</time>
  <course>75.31</course>
  <speed>0.6596969000988256</speed>
  <fix>3d</fix>
</trkpt>
<trkpt lat="40.0713911" lon="-105.2297189">
  <ele>1583.0</ele>
  <time>2026-08-28T17:50:29Z</time>
  <course>74.48</course>
  <speed>0.69</speed>
  <fix>3d</fix>
</trkpt>
<trkpt lat="40.0713913" lon="-105.2297173">
  <ele>1583.0</ele>
  <time>2026-08-28T17:50:29Z</time>
  <course>75.31</course>
  <speed>0.6596969000988256</speed>
  <fix>3d</fix>
</trkpt>
<trkpt lat="40.0713911" lon="-105.2297189">
  <ele>1583.0</ele>
  <time>2026-08-28T17:50:29Z</time>
  <course>74.48</course>
  <speed>0.69</speed>
  <fix>3d</fix>
</trkpt>
<trkpt lat="40.0713914" lon="-105.2297166">
  <ele>1583.0</ele>
  <time>2026-08-28T17:50:29Z</time>
  <course>75.31</course>
  <speed>0.6596969000988256</speed>
  <fix>3d</fix>
</trkpt>
<trkpt lat="40.0713915" lon="-105.2297173">
  <ele>1583.0</ele>
  <time>2026-08-28T17:50:29Z</time>
  <course>74.48</course>
  <speed>0.69</speed>
  <fix>3d</fix>
</trkpt>
<trkpt lat="40.0713916" lon="-105.2297158">
  <ele>1583.0</ele>
  <time>2026-08-28T17:50:29Z</time>
  <course>75.31</course>
  <speed>0.6596969000988256</speed>
  <fix>3d</fix>
</trkpt>
<trkpt lat="40.0713915" lon="-105.2297173">
  <ele>1583.0</ele>
  <time>2026-08-28T17:50:29Z</time>
  <course>74.48</course>
  <speed>0.69</speed>
  <fix>3d</fix>
</trkpt>
<trkpt lat="40.0713918" lon="-105.229715">
  <ele>1583.0</ele>
  <time>2026-08-28T17:50:29Z</time>
  <course>75.31</course>
  <speed>0.6573431371817918</speed>
  <fix>3d</fix>
</trkpt>
<trkpt lat="40.0713918" lon="-105.2297157">
  <ele>1583.0</ele>
  <time>2026-08-28T17:50:29Z</time>
  <course>74.48</course>
  <speed>0.69</speed>
  <fix>3d</fix>
</trkpt>
<trkpt lat="40.0713919" lon="-105.2297142">
  <ele>1583.0</ele>
  <time>2026-08-28T17:50:29Z</time>
  <course>75.31</course>
  <speed>0.6596969000988256</speed>
  <fix>3d</fix>
</trkpt>
<trkpt lat="40.0713918" lon="-105.2297157">
  <ele>1583.0</ele>
  <time>2026-08-28T17:50:29Z</time>
  <course>74.48</course>
  <speed>0.69</speed>
  <fix>3d</fix>
</trkpt>
<trkpt lat="40.0713921" lon="-105.2297134">
  <ele>1583.0</ele>
  <time>2026-08-28T17:50:29Z</time>
  <course>75.31</course>
  <speed>0.6573431371817918</speed>
  <fix>3d</fix>
</trkpt>
<trkpt lat="40.0713922" lon="-105.2297142">
  <ele>1583.0</ele>
  <time>2026-08-28T17:50:29Z</time>
  <course>74.48</course>
  <speed>0.69</speed>
  <fix>3d</fix>
</trkpt>
<trkpt lat="40.0713923" lon="-105.2297126">
  <ele>1583.0</ele>
  <time>2026-08-28T17:50:29Z</time>
  <course>75.32</course>
  <speed>0.6573431371817918</speed>
  <fix>3d</fix>
</trkpt>
<trkpt lat="40.0713922" lon="-105.2297142">
  <ele>1583.0</ele>
  <time>2026-08-28T17:50:29Z</time>
  <course>74.48</course>
  <speed>0.69</speed>
  <fix>3d</fix>
</trkpt>
<trkpt lat="40.0713924" lon="-105.2297118">
  <ele>1582.99</ele>
  <time>2026-08-28T17:50:29Z</time>
  <course>75.32</course>
  <speed>0.6573431371817918</speed>
  <fix>3d</fix>
</trkpt>
<trkpt lat="40.0713925" lon="-105.2297126">
  <ele>1583.0</ele>
  <time>2026-08-28T17:50:29Z</time>
  <course>74.48</course>
  <speed>0.68</speed>
  <fix>3d</fix>
</trkpt>
<trkpt lat="40.0713926" lon="-105.229711">
  <ele>1583.0</ele>
  <time>2026-08-28T17:50:29Z</time>
  <course>75.32</course>
  <speed>0.6596969000988256</speed>
  <fix>3d</fix>
</trkpt>
<trkpt lat="40.0713925" lon="-105.2297126">
  <ele>1583.0</ele>
  <time>2026-08-28T17:50:29Z</time>
  <course>74.48</course>
  <speed>0.68</speed>
  <fix>3d</fix>
</trkpt>
<trkpt lat="40.0713928" lon="-105.2297103">
  <ele>1582.99</ele>
  <time>2026-08-28T17:50:29Z</time>
  <course>75.32</course>
  <speed>0.6573431371817918</speed>
  <fix>3d</fix>
</trkpt>
<trkpt lat="40.0713928" lon="-105.2297111">
  <ele>1583.0</ele>
  <time>2026-08-28T17:50:29Z</time>
  <course>74.48</course>
  <speed>0.68</speed>
  <fix>3d</fix>
</trkpt>
<trkpt lat="40.071393" lon="-105.2297095">
  <ele>1582.99</ele>
  <time>2026-08-28T17:50:29Z</time>
  <course>75.32</course>
  <speed>0.6596969000988256</speed>
  <fix>3d</fix>
</trkpt>
<trkpt lat="40.0713928" lon="-105.2297111">
  <ele>1583.0</ele>
  <time>2026-08-28T17:50:29Z</time>
  <course>74.48</course>
  <speed>0.68</speed>
  <fix>3d</fix>
</trkpt>
<trkpt lat="40.0713931" lon="-105.2297087">
  <ele>1582.99</ele>
  <time>2026-08-28T17:50:29Z</time>
  <course>75.32</course>
  <speed>0.6573431371817918</speed>
  <fix>3d</fix>
</trkpt>
<trkpt lat="40.0713928" lon="-105.2297111">
  <ele>1583.0</ele>
  <time>2026-08-28T17:50:29Z</time>
  <course>74.48</course>
  <speed>0.68</speed>
  <fix>3d</fix>
</trkpt>
<trkpt lat="40.0713933" lon="-105.2297079">
  <ele>1582.99</ele>
  <time>2026-08-28T17:50:29Z</time>
  <course>75.33</course>
  <speed>0.6596969000988256</speed>
  <fix>3d</fix>
</trkpt>
<trkpt lat="40.0713932" lon="-105.2297095">
  <ele>1583.0</ele>
  <time>2026-08-28T17:50:29Z</time>
  <course>74.48</course>
  <speed>0.68</speed>
  <fix>3d</fix>
</trkpt>
<trkpt lat="40.0713935" lon="-105.2297071">
  <ele>1582.98</ele>
  <time>2026-08-28T17:50:29Z</time>
  <course>75.33</course>
  <speed>0.6596969000988256</speed>
  <fix>3d</fix>
</trkpt>
<trkpt lat="40.0713932" lon="-105.2297095">
  <ele>1583.0</ele>
  <time>2026-08-28T17:50:29Z</time>
  <course>74.48</course>
  <speed>0.68</speed>
  <fix>3d</fix>
</trkpt>
<trkpt lat="40.0713936" lon="-105.2297064">
  <ele>1582.98</ele>
  <time>2026-08-28T17:50:29Z</time>
  <course>75.33</course>
  <speed>0.6596969000988256</speed>
  <fix>3d</fix>
</trkpt>
<trkpt lat="40.0713935" lon="-105.2297079">
  <ele>1583.0</ele>
  <time>2026-08-28T17:50:29Z</time>
  <course>74.48</course>
  <speed>0.68</speed>
  <fix>3d</fix>
</trkpt>
<trkpt lat="40.0713938" lon="-105.2297056">
  <ele>1582.99</ele>
  <time>2026-08-28T17:50:29Z</time>
  <course>75.33</course>
  <speed>0.6596969000988256</speed>
  <fix>3d</fix>
</trkpt>
<trkpt lat="40.0713935" lon="-105.2297079">
  <ele>1583.0</ele>
  <time>2026-08-28T17:50:29Z</time>
  <course>74.48</course>
  <speed>0.68</speed>
  <fix>3d</fix>
</trkpt>
<trkpt lat="40.071394" lon="-105.2297048">
  <ele>1582.99</ele>
  <time>2026-08-28T17:50:29Z</time>
  <course>75.33</course>
  <speed>0.6596969000988256</speed>
  <fix>3d</fix>
</trkpt>
<trkpt lat="40.0713938" lon="-105.2297064">
  <ele>1583.0</ele>
  <time>2026-08-28T17:50:29Z</time>
  <course>74.48</course>
  <speed>0.68</speed>
  <fix>3d</fix>
</trkpt>
<trkpt lat="40.0713941" lon="-105.229704">
  <ele>1582.99</ele>
  <time>2026-08-28T17:50:29Z</time>
  <course>75.33</course>
  <speed>0.6596969000988256</speed>
  <fix>3d</fix>
</trkpt>
<trkpt lat="40.0713941" lon="-105.2297049">
  <ele>1583.0</ele>
  <time>2026-08-28T17:50:29Z</time>
  <course>74.48</course>
  <speed>0.68</speed>
  <fix>3d</fix>
</trkpt>
<trkpt lat="40.0713943" lon="-105.2297033">
  <ele>1583.0</ele>
  <time>2026-08-28T17:50:29Z</time>
  <course>75.33</course>
  <speed>0.6596969000988256</speed>
  <fix>3d</fix>
</trkpt>
<trkpt lat="40.0713941" lon="-105.2297049">
  <ele>1583.0</ele>
  <time>2026-08-28T17:50:29Z</time>
  <course>74.48</course>
  <speed>0.68</speed>
  <fix>3d</fix>
</trkpt>
<trkpt lat="40.0713944" lon="-105.2297025">
  <ele>1583.0</ele>
  <time>2026-08-28T17:50:29Z</time>
  <course>75.34</course>
  <speed>0.6573431371817918</speed>
  <fix>3d</fix>
</trkpt>
<trkpt lat="40.0713944" lon="-105.2297033">
  <ele>1583.0</ele>
  <time>2026-08-28T17:50:29Z</time>
  <course>74.48</course>
  <speed>0.68</speed>
  <fix>3d</fix>
</trkpt>
<trkpt lat="40.0713946" lon="-105.2297017">
  <ele>1583.0</ele>
  <time>2026-08-28T17:50:29Z</time>
  <course>75.34</course>
  <speed>0.6573431371817918</speed>
  <fix>3d</fix>
</trkpt>
<trkpt lat="40.0713944" lon="-105.2297033">
  <ele>1583.0</ele>
  <time>2026-08-28T17:50:29Z</time>
  <course>74.48</course>
  <speed>0.68</speed>
  <fix>3d</fix>
</trkpt>
<trkpt lat="40.0713948" lon="-105.2297009">
  <ele>1583.0</ele>
  <time>2026-08-28T17:50:29Z</time>
  <course>75.34</course>
  <speed>0.6573431371817918</speed>
  <fix>3d</fix>
</trkpt>
<trkpt lat="40.0713948" lon="-105.2297017">
  <ele>1583.0</ele>
  <time>2026-08-28T17:50:29Z</time>
  <course>74.48</course>
  <speed>0.68</speed>
  <fix>3d</fix>
</trkpt>
<trkpt lat="40.0713949" lon="-105.2297001">
  <ele>1582.99</ele>
  <time>2026-08-28T17:50:29Z</time>
  <course>75.34</course>
  <speed>0.6573431371817918</speed>
  <fix>3d</fix>
</trkpt>
<trkpt lat="40.0713948" lon="-105.2297017">
  <ele>1583.0</ele>
  <time>2026-08-28T17:50:29Z</time>
  <course>74.48</course>
  <speed>0.68</speed>
  <fix>3d</fix>
</trkpt>
<trkpt lat="40.0713951" lon="-105.2296994">
  <ele>1582.99</ele>
  <time>2026-08-28T17:50:29Z</time>
  <course>75.34</course>
  <speed>0.6573431371817918</speed>
  <fix>3d</fix>
</trkpt>
<trkpt lat="40.0713951" lon="-105.2297002">
  <ele>1583.0</ele>
  <time>2026-08-28T17:50:29Z</time>
  <course>74.48</course>
  <speed>0.68</speed>
  <fix>3d</fix>
</trkpt>
<trkpt lat="40.0713953" lon="-105.2296986">
  <ele>1582.99</ele>
  <time>2026-08-28T17:50:29Z</time>
  <course>75.34</course>
  <speed>0.6573431371817918</speed>
  <fix>3d</fix>
</trkpt>
<trkpt lat="40.0713951" lon="-105.2297002">
  <ele>1583.0</ele>
  <time>2026-08-28T17:50:29Z</time>
  <course>74.48</course>
  <speed>0.68</speed>
  <fix>3d</fix>
</trkpt>
<trkpt lat="40.0713954" lon="-105.2296978">
  <ele>1583.0</ele>
  <time>2026-08-28T17:50:29Z</time>
  <course>75.34</course>
  <speed>0.6573431371817918</speed>
  <fix>3d</fix>
</trkpt>
<trkpt lat="40.0713954" lon="-105.2296986">
  <ele>1583.0</ele>
  <time>2026-08-28T17:50:29Z</time>
  <course>74.48</course>
  <speed>0.68</speed>
  <fix>3d</fix>
</trkpt>
<trkpt lat="40.0713956" lon="-105.229697">
  <ele>1583.0</ele>
  <time>2026-08-28T17:50:29Z</time>
  <course>75.35</course>
  <speed>0.6573431371817918</speed>
  <fix>3d</fix>
</trkpt>
<trkpt lat="40.0713954" lon="-105.2296986">
  <ele>1583.0</ele>
  <time>2026-08-28T17:50:29Z</time>
  <course>74.48</course>
  <speed>0.68</speed>
  <fix>3d</fix>
</trkpt>
<trkpt lat="40.0713957" lon="-105.2296962">
  <ele>1583.0</ele>
  <time>2026-08-28T17:50:29Z</time>
  <course>75.35</course>
  <speed>0.6573431371817918</speed>
  <fix>3d</fix>
</trkpt>
<trkpt lat="40.0713958" lon="-105.2296971">
  <ele>1583.0</ele>
  <time>2026-08-28T17:50:29Z</time>
  <course>74.48</course>
  <speed>0.68</speed>
  <fix>3d</fix>
</trkpt>
<trkpt lat="40.0713959" lon="-105.2296954">
  <ele>1583.0</ele>
  <time>2026-08-28T17:50:29Z</time>
  <course>75.35</course>
  <speed>0.6573431371817918</speed>
  <fix>3d</fix>
</trkpt>
<trkpt lat="40.0713958" lon="-105.2296971">
  <ele>1583.0</ele>
  <time>2026-08-28T17:50:29Z</time>
  <course>74.48</course>
  <speed>0.68</speed>
  <fix>3d</fix>
</trkpt>
<trkpt lat="40.0713961" lon="-105.2296947">
  <ele>1583.01</ele>
  <time>2026-08-28T17:50:29Z</time>
  <course>75.35</course>
  <speed>0.6573431371817918</speed>
  <fix>3d</fix>
</trkpt>
<trkpt lat="40.0713961" lon="-105.2296954">
  <ele>1583.0</ele>
  <time>2026-08-28T17:50:29Z</time>
  <course>74.48</course>
  <speed>0.68</speed>
  <fix>3d</fix>
</trkpt>
<trkpt lat="40.0713962" lon="-105.2296939">
  <ele>1583.01</ele>
  <time>2026-08-28T17:50:29Z</time>
  <course>75.35</course>
  <speed>0.6573431371817918</speed>
  <fix>3d</fix>
</trkpt>
<trkpt lat="40.0713961" lon="-105.2296954">
  <ele>1583.0</ele>
  <time>2026-08-28T17:50:29Z</time>
  <course>74.48</course>
  <speed>0.68</speed>
  <fix>3d</fix>
</trkpt>
<trkpt lat="40.0713964" lon="-105.2296931">
  <ele>1583.01</ele>
  <time>2026-08-28T17:50:29Z</time>
  <course>75.35</course>
  <speed>0.6573431371817918</speed>
  <fix>3d</fix>
</trkpt>
<trkpt lat="40.0713961" lon="-105.2296954">
  <ele>1583.0</ele>
  <time>2026-08-28T17:50:29Z</time>
  <course>74.48</course>
  <speed>0.68</speed>
  <fix>3d</fix>
</trkpt>
<trkpt lat="40.0713966" lon="-105.2296923">
  <ele>1583.01</ele>
  <time>2026-08-28T17:50:29Z</time>
  <course>75.35</course>
  <speed>0.6573431371817918</speed>
  <fix>3d</fix>
</trkpt>
<trkpt lat="40.0713965" lon="-105.2296939">
  <ele>1583.0</ele>
  <time>2026-08-28T17:50:29Z</time>
  <course>74.48</course>
  <speed>0.68</speed>
  <fix>3d</fix>
</trkpt>
<trkpt lat="40.0713967" lon="-105.2296915">
  <ele>1583.01</ele>
  <time>2026-08-28T17:50:29Z</time>
  <course>75.36</course>
  <speed>0.6573431371817918</speed>
  <fix>3d</fix>
</trkpt>
<trkpt lat="40.0713965" lon="-105.2296939">
  <ele>1583.0</ele>
  <time>2026-08-28T17:50:29Z</time>
  <course>74.48</course>
  <speed>0.68</speed>
  <fix>3d</fix>
</trkpt>
<trkpt lat="40.0713969" lon="-105.2296908">
  <ele>1583.01</ele>
  <time>2026-08-28T17:50:29Z</time>
  <course>75.36</course>
  <speed>0.6573431371817918</speed>
  <fix>3d</fix>
</trkpt>
<trkpt lat="40.0713968" lon="-105.2296924">
  <ele>1583.0</ele>
  <time>2026-08-28T17:50:29Z</time>
  <course>74.48</course>
  <speed>0.68</speed>
  <fix>3d</fix>
</trkpt>
<trkpt lat="40.0713971" lon="-105.22969">
  <ele>1583.02</ele>
  <time>2026-08-28T17:50:29Z</time>
  <course>75.36</course>
  <speed>0.6573431371817918</speed>
  <fix>3d</fix>
</trkpt>
<trkpt lat="40.0713968" lon="-105.2296924">
  <ele>1583.0</ele>
  <time>2026-08-28T17:50:29Z</time>
  <course>74.48</course>
  <speed>0.68</speed>
  <fix>3d</fix>
</trkpt>
<trkpt lat="40.0713972" lon="-105.2296892">
  <ele>1583.02</ele>
  <time>2026-08-28T17:50:29Z</time>
  <course>75.36</course>
  <speed>0.6573431371817918</speed>
  <fix>3d</fix>
</trkpt>
<trkpt lat="40.0713971" lon="-105.2296908">
  <ele>1583.0</ele>
  <time>2026-08-28T17:50:29Z</time>
  <course>74.48</course>
  <speed>0.68</speed>
  <fix>3d</fix>
</trkpt>
<trkpt lat="40.0713974" lon="-105.2296885">
  <ele>1583.02</ele>
  <time>2026-08-28T17:50:29Z</time>
  <course>75.36</course>
  <speed>0.6573431371817918</speed>
  <fix>3d</fix>
</trkpt>
<trkpt lat="40.0713971" lon="-105.2296908">
  <ele>1583.0</ele>
  <time>2026-08-28T17:50:29Z</time>
  <course>74.48</course>
  <speed>0.68</speed>
  <fix>3d</fix>
</trkpt>
<trkpt lat="40.0713976" lon="-105.2296877">
  <ele>1583.02</ele>
  <time>2026-08-28T17:50:29Z</time>
  <course>75.36</course>
  <speed>0.6573431371817918</speed>
  <fix>3d</fix>
</trkpt>
<trkpt lat="40.0713975" lon="-105.2296892">
  <ele>1583.0</ele>
  <time>2026-08-28T17:50:29Z</time>
  <course>74.48</course>
  <speed>0.68</speed>
  <fix>3d</fix>
</trkpt>
<trkpt lat="40.0713977" lon="-105.2296869">
  <ele>1583.02</ele>
  <time>2026-08-28T17:50:29Z</time>
  <course>75.36</course>
  <speed>0.6573431371817918</speed>
  <fix>3d</fix>
</trkpt>
<trkpt lat="40.0713978" lon="-105.2296877">
  <ele>1583.0</ele>
  <time>2026-08-28T17:50:29Z</time>
  <course>74.48</course>
  <speed>0.68</speed>
  <fix>3d</fix>
</trkpt>
<trkpt lat="40.0713979" lon="-105.2296861">
  <ele>1583.03</ele>
  <time>2026-08-28T17:50:29Z</time>
  <course>75.36</course>
  <speed>0.6573431371817918</speed>
  <fix>3d</fix>
</trkpt>
<trkpt lat="40.0713978" lon="-105.2296877">
  <ele>1583.0</ele>
  <time>2026-08-28T17:50:29Z</time>
  <course>74.48</course>
  <speed>0.68</speed>
  <fix>3d</fix>
</trkpt>
<trkpt lat="40.0713981" lon="-105.2296853">
  <ele>1583.03</ele>
  <time>2026-08-28T17:50:29Z</time>
  <course>75.37</course>
  <speed>0.6573431371817918</speed>
  <fix>3d</fix>
</trkpt>
<trkpt lat="40.0713981" lon="-105.2296862">
  <ele>1583.0</ele>
  <time>2026-08-28T17:50:29Z</time>
  <course>74.48</course>
  <speed>0.68</speed>
  <fix>3d</fix>
</trkpt>
<trkpt lat="40.0713982" lon="-105.2296846">
  <ele>1583.03</ele>
  <time>2026-08-28T17:50:29Z</time>
  <course>75.37</course>
  <speed>0.6596969000988256</speed>
  <fix>3d</fix>
</trkpt>
<trkpt lat="40.0713981" lon="-105.2296862">
  <ele>1583.0</ele>
  <time>2026-08-28T17:50:29Z</time>
  <course>74.48</course>
  <speed>0.68</speed>
  <fix>3d</fix>
</trkpt>
<trkpt lat="40.0713984" lon="-105.2296838">
  <ele>1583.03</ele>
  <time>2026-08-28T17:50:29Z</time>
  <course>75.37</course>
  <speed>0.6573431371817918</speed>
  <fix>3d</fix>
</trkpt>
<trkpt lat="40.0713985" lon="-105.2296845">
  <ele>1583.0</ele>
  <time>2026-08-28T17:50:29Z</time>
  <course>74.48</course>
  <speed>0.68</speed>
  <fix>3d</fix>
</trkpt>
<trkpt lat="40.0713986" lon="-105.229683">
  <ele>1583.03</ele>
  <time>2026-08-28T17:50:29Z</time>
  <course>75.37</course>
  <speed>0.6596969000988256</speed>
  <fix>3d</fix>
</trkpt>
<trkpt lat="40.0713985" lon="-105.2296845">
  <ele>1583.0</ele>
  <time>2026-08-28T17:50:29Z</time>
  <course>74.48</course>
  <speed>0.68</speed>
  <fix>3d</fix>
</trkpt>
<trkpt lat="40.0713987" lon="-105.2296822">
  <ele>1583.03</ele>
  <time>2026-08-28T17:50:29Z</time>
  <course>75.37</course>
  <speed>0.6596969000988256</speed>
  <fix>3d</fix>
</trkpt>
<trkpt lat="40.0713988" lon="-105.229683">
  <ele>1583.0</ele>
  <time>2026-08-28T17:50:29Z</time>
  <course>74.48</course>
  <speed>0.68</speed>
  <fix>3d</fix>
</trkpt>
<trkpt lat="40.0713989" lon="-105.2296814">
  <ele>1583.03</ele>
  <time>2026-08-28T17:50:29Z</time>
  <course>75.37</course>
  <speed>0.6596969000988256</speed>
  <fix>3d</fix>
</trkpt>
<trkpt lat="40.0713988" lon="-105.229683">
  <ele>1583.0</ele>
  <time>2026-08-28T17:50:29Z</time>
  <course>74.48</course>
  <speed>0.68</speed>
  <fix>3d</fix>
</trkpt>
<trkpt lat="40.0713991" lon="-105.2296806">
  <ele>1583.03</ele>
  <time>2026-08-28T17:50:29Z</time>
  <course>75.37</course>
  <speed>0.6596969000988256</speed>
  <fix>3d</fix>
</trkpt>
<trkpt lat="40.0713991" lon="-105.2296815">
  <ele>1583.0</ele>
  <time>2026-08-28T17:50:29Z</time>
  <course>74.48</course>
  <speed>0.68</speed>
  <fix>3d</fix>
</trkpt>
<trkpt lat="40.0713993" lon="-105.2296799">
  <ele>1583.03</ele>
  <time>2026-08-28T17:50:29Z</time>
  <course>75.37</course>
  <speed>0.6596969000988256</speed>
  <fix>3d</fix>
</trkpt>
<trkpt lat="40.0713991" lon="-105.2296815">
  <ele>1583.0</ele>
  <time>2026-08-28T17:50:29Z</time>
  <course>74.48</course>
  <speed>0.68</speed>
  <fix>3d</fix>
</trkpt>
<trkpt lat="40.0713994" lon="-105.2296791">
  <ele>1583.03</ele>
  <time>2026-08-28T17:50:29Z</time>
  <course>75.37</course>
  <speed>0.6596969000988256</speed>
  <fix>3d</fix>
</trkpt>
<trkpt lat="40.0713994" lon="-105.2296799">
  <ele>1583.0</ele>
  <time>2026-08-28T17:50:29Z</time>
  <course>74.48</course>
  <speed>0.68</speed>
  <fix>3d</fix>
</trkpt>
<trkpt lat="40.0713996" lon="-105.2296783">
  <ele>1583.03</ele>
  <time>2026-08-28T17:50:29Z</time>
  <course>75.38</course>
  <speed>0.6596969000988256</speed>
  <fix>3d</fix>
</trkpt>
<trkpt lat="40.0713994" lon="-105.2296799">
  <ele>1583.0</ele>
  <time>2026-08-28T17:50:29Z</time>
  <course>74.48</course>
  <speed>0.68</speed>
  <fix>3d</fix>
</trkpt>
<trkpt lat="40.0713997" lon="-105.2296775">
  <ele>1583.03</ele>
  <time>2026-08-28T17:50:29Z</time>
  <course>75.38</course>
  <speed>0.6596969000988256</speed>
  <fix>3d</fix>
</trkpt>
<trkpt lat="40.0713997" lon="-105.2296784">
  <ele>1583.0</ele>
  <time>2026-08-28T17:50:29Z</time>
  <course>74.48</course>
  <speed>0.68</speed>
  <fix>3d</fix>
</trkpt>
<trkpt lat="40.0713999" lon="-105.2296767">
  <ele>1583.03</ele>
  <time>2026-08-28T17:50:29Z</time>
  <course>75.38</course>
  <speed>0.6596969000988256</speed>
  <fix>3d</fix>
</trkpt>
<trkpt lat="40.0713997" lon="-105.2296784">
  <ele>1583.0</ele>
  <time>2026-08-28T17:50:29Z</time>
  <course>74.48</course>
  <speed>0.68</speed>
  <fix>3d</fix>
</trkpt>
<trkpt lat="40.0714001" lon="-105.229676">
  <ele>1583.03</ele>
  <time>2026-08-28T17:50:29Z</time>
  <course>75.38</course>
  <speed>0.6573431371817918</speed>
  <fix>3d</fix>
</trkpt>
<trkpt lat="40.0713997" lon="-105.2296784">
  <ele>1583.0</ele>
  <time>2026-08-28T17:50:29Z</time>
  <course>74.48</course>
  <speed>0.68</speed>
  <fix>3d</fix>
</trkpt>
<trkpt lat="40.0714002" lon="-105.2296752">
  <ele>1583.03</ele>
  <time>2026-08-28T17:50:29Z</time>
  <course>75.38</course>
  <speed>0.6573431371817918</speed>
  <fix>3d</fix>
</trkpt>
<trkpt lat="40.0714001" lon="-105.2296768">
  <ele>1583.0</ele>
  <time>2026-08-28T17:50:29Z</time>
  <course>74.48</course>
  <speed>0.68</speed>
  <fix>3d</fix>
</trkpt>
<trkpt lat="40.0714004" lon="-105.2296744">
  <ele>1583.03</ele>
  <time>2026-08-28T17:50:29Z</time>
  <course>75.38</course>
  <speed>0.6573431371817918</speed>
  <fix>3d</fix>
</trkpt>
<trkpt lat="40.0714001" lon="-105.2296768">
  <ele>1583.0</ele>
  <time>2026-08-28T17:50:29Z</time>
  <course>74.48</course>
  <speed>0.68</speed>
  <fix>3d</fix>
</trkpt>
<trkpt lat="40.0714006" lon="-105.2296736">
  <ele>1583.03</ele>
  <time>2026-08-28T17:50:29Z</time>
  <course>75.38</course>
  <speed>0.6573431371817918</speed>
  <fix>3d</fix>
</trkpt>
<trkpt lat="40.0714004" lon="-105.2296753">
  <ele>1583.0</ele>
  <time>2026-08-28T17:50:29Z</time>
  <course>74.48</course>
  <speed>0.68</speed>
  <fix>3d</fix>
</trkpt>
<trkpt lat="40.0714007" lon="-105.2296729">
  <ele>1583.03</ele>
  <time>2026-08-28T17:50:29Z</time>
  <course>75.38</course>
  <speed>0.6573431371817918</speed>
  <fix>3d</fix>
</trkpt>
<trkpt lat="40.0714004" lon="-105.2296753">
  <ele>1583.0</ele>
  <time>2026-08-28T17:50:29Z</time>
  <course>74.48</course>
  <speed>0.68</speed>
  <fix>3d</fix>
</trkpt>
<trkpt lat="40.0714009" lon="-105.2296721">
  <ele>1583.03</ele>
  <time>2026-08-28T17:50:29Z</time>
  <course>75.38</course>
  <speed>0.6573431371817918</speed>
  <fix>3d</fix>
</trkpt>
<trkpt lat="40.0714008" lon="-105.2296737">
  <ele>1583.0</ele>
  <time>2026-08-28T17:50:29Z</time>
  <course>74.48</course>
  <speed>0.68</speed>
  <fix>3d</fix>
</trkpt>
<trkpt lat="40.0714011" lon="-105.2296713">
  <ele>1583.03</ele>
  <time>2026-08-28T17:50:29Z</time>
  <course>75.38</course>
  <speed>0.6573431371817918</speed>
  <fix>3d</fix>
</trkpt>
<trkpt lat="40.0714011" lon="-105.2296721">
  <ele>1583.0</ele>
  <time>2026-08-28T17:50:29Z</time>
  <course>74.48</course>
  <speed>0.68</speed>
  <fix>3d</fix>
</trkpt>
<trkpt lat="40.0714012" lon="-105.2296706">
  <ele>1583.03</ele>
  <time>2026-08-28T17:50:29Z</time>
  <course>75.39</course>
  <speed>0.6573431371817918</speed>
  <fix>3d</fix>
</trkpt>
<trkpt lat="40.0714011" lon="-105.2296721">
  <ele>1583.0</ele>
  <time>2026-08-28T17:50:29Z</time>
  <course>74.48</course>
  <speed>0.68</speed>
  <fix>3d</fix>
</trkpt>
<trkpt lat="40.0714014" lon="-105.2296698">
  <ele>1583.03</ele>
  <time>2026-08-28T17:50:29Z</time>
  <course>75.39</course>
  <speed>0.6573431371817918</speed>
  <fix>3d</fix>
</trkpt>
<trkpt lat="40.0714014" lon="-105.2296705">
  <ele>1583.0</ele>
  <time>2026-08-28T17:50:29Z</time>
  <course>74.48</course>
  <speed>0.68</speed>
  <fix>3d</fix>
</trkpt>
<trkpt lat="40.0714016" lon="-105.229669">
  <ele>1583.03</ele>
  <time>2026-08-28T17:50:29Z</time>
  <course>75.39</course>
  <speed>0.6596969000988256</speed>
  <fix>3d</fix>
</trkpt>
<trkpt lat="40.0714014" lon="-105.2296705">
  <ele>1583.0</ele>
  <time>2026-08-28T17:50:29Z</time>
  <course>74.48</course>
  <speed>0.68</speed>
  <fix>3d</fix>
</trkpt>
<trkpt lat="40.0714017" lon="-105.2296682">
  <ele>1583.02</ele>
  <time>2026-08-28T17:50:29Z</time>
  <course>75.39</course>
  <speed>0.6573431371817918</speed>
  <fix>3d</fix>
</trkpt>
<trkpt lat="40.0714018" lon="-105.229669">
  <ele>1583.0</ele>
  <time>2026-08-28T17:50:29Z</time>
  <course>74.48</course>
  <speed>0.68</speed>
  <fix>3d</fix>
</trkpt>
<trkpt lat="40.0714019" lon="-105.2296674">
  <ele>1583.02</ele>
  <time>2026-08-28T17:50:29Z</time>
  <course>75.39</course>
  <speed>0.6596969000988256</speed>
  <fix>3d</fix>
</trkpt>
<trkpt lat="40.0714018" lon="-105.229669">
  <ele>1583.0</ele>
  <time>2026-08-28T17:50:29Z</time>
  <course>74.48</course>
  <speed>0.68</speed>
  <fix>3d</fix>
</trkpt>
<trkpt lat="40.0714021" lon="-105.2296666">
  <ele>1583.01</ele>
  <time>2026-08-28T17:50:29Z</time>
  <course>75.39</course>
  <speed>0.6573431371817918</speed>
  <fix>3d</fix>
</trkpt>
<trkpt lat="40.0714021" lon="-105.2296675">
  <ele>1583.0</ele>
  <time>2026-08-28T17:50:29Z</time>
  <course>74.48</course>
  <speed>0.68</speed>
  <fix>3d</fix>
</trkpt>
<trkpt lat="40.0714022" lon="-105.2296659">
  <ele>1583.01</ele>
  <time>2026-08-28T17:50:29Z</time>
  <course>75.39</course>
  <speed>0.6596969000988256</speed>
  <fix>3d</fix>
</trkpt>
<trkpt lat="40.0714021" lon="-105.2296675">
  <ele>1583.0</ele>
  <time>2026-08-28T17:50:29Z</time>
  <course>74.48</course>
  <speed>0.68</speed>
  <fix>3d</fix>
</trkpt>
<trkpt lat="40.0714024" lon="-105.2296651">
  <ele>1583.01</ele>
  <time>2026-08-28T17:50:29Z</time>
  <course>75.39</course>
  <speed>0.6596969000988256</speed>
  <fix>3d</fix>
</trkpt>
<trkpt lat="40.0714024" lon="-105.2296659">
  <ele>1583.0</ele>
  <time>2026-08-28T17:50:29Z</time>
  <course>74.48</course>
  <speed>0.68</speed>
  <fix>3d</fix>
</trkpt>
<trkpt lat="40.0714026" lon="-105.2296643">
  <ele>1583.0</ele>
  <time>2026-08-28T17:50:29Z</time>
  <course>75.39</course>
  <speed>0.6596969000988256</speed>
  <fix>3d</fix>
</trkpt>
<trkpt lat="40.0714024" lon="-105.2296659">
  <ele>1583.0</ele>
  <time>2026-08-28T17:50:29Z</time>
  <course>74.48</course>
  <speed>0.68</speed>
  <fix>3d</fix>
</trkpt>
<trkpt lat="40.0714027" lon="-105.2296635">
  <ele>1583.0</ele>
  <time>2026-08-28T17:50:29Z</time>
  <course>75.39</course>
  <speed>0.6596969000988256</speed>
  <fix>3d</fix>
</trkpt>
<trkpt lat="40.0714027" lon="-105.2296643">
  <ele>1583.0</ele>
  <time>2026-08-28T17:50:29Z</time>
  <course>74.48</course>
  <speed>0.68</speed>
  <fix>3d</fix>
</trkpt>
<trkpt lat="40.0714029" lon="-105.2296627">
  <ele>1583.0</ele>
  <time>2026-08-28T17:50:29Z</time>
  <course>75.4</course>
  <speed>0.6596969000988256</speed>
  <fix>3d</fix>
</trkpt>
<trkpt lat="40.0714027" lon="-105.2296643">
  <ele>1583.0</ele>
  <time>2026-08-28T17:50:29Z</time>
  <course>74.48</course>
  <speed>0.68</speed>
  <fix>3d</fix>
</trkpt>
<trkpt lat="40.0714031" lon="-105.2296619">
  <ele>1583.01</ele>
  <time>2026-08-28T17:50:29Z</time>
  <course>75.4</course>
  <speed>0.6573431371817918</speed>
  <fix>3d</fix>
</trkpt>
<trkpt lat="40.0714031" lon="-105.2296628">
  <ele>1583.0</ele>
  <time>2026-08-28T17:50:29Z</time>
  <course>74.48</course>
  <speed>0.68</speed>
  <fix>3d</fix>
</trkpt>
<trkpt lat="40.0714032" lon="-105.2296612">
  <ele>1583.01</ele>
  <time>2026-08-28T17:50:29Z</time>
  <course>75.4</course>
  <speed>0.6596969000988256</speed>
  <fix>3d</fix>
</trkpt>
<trkpt lat="40.0714031" lon="-105.2296628">
  <ele>1583.0</ele>
  <time>2026-08-28T17:50:29Z</time>
  <course>74.48</course>
  <speed>0.68</speed>
  <fix>3d</fix>
</trkpt>
<trkpt lat="40.0714034" lon="-105.2296604">
  <ele>1583.0</ele>
  <time>2026-08-28T17:50:29Z</time>
  <course>75.4</course>
  <speed>0.6573431371817918</speed>
  <fix>3d</fix>
</trkpt>
<trkpt lat="40.0714031" lon="-105.2296628">
  <ele>1583.0</ele>
  <time>2026-08-28T17:50:29Z</time>
  <course>74.48</course>
  <speed>0.68</speed>
  <fix>3d</fix>
</trkpt>
<trkpt lat="40.0714035" lon="-105.2296596">
  <ele>1583.0</ele>
  <time>2026-08-28T17:50:29Z</time>
  <course>75.4</course>
  <speed>0.6573431371817918</speed>
  <fix>3d</fix>
</trkpt>
<trkpt lat="40.0714034" lon="-105.2296613">
  <ele>1583.0</ele>
  <time>2026-08-28T17:50:29Z</time>
  <course>74.48</course>
  <speed>0.68</speed>
  <fix>3d</fix>
</trkpt>
<trkpt lat="40.0714037" lon="-105.2296588">
  <ele>1583.0</ele>
  <time>2026-08-28T17:50:29Z</time>
  <course>75.4</course>
  <speed>0.6573431371817918</speed>
  <fix>3d</fix>
</trkpt>
<trkpt lat="40.0714034" lon="-105.2296613">
  <ele>1583.0</ele>
  <time>2026-08-28T17:50:29Z</time>
  <course>74.48</course>
  <speed>0.68</speed>
  <fix>3d</fix>
</trkpt>
<trkpt lat="40.0714039" lon="-105.2296581">
  <ele>1583.0</ele>
  <time>2026-08-28T17:50:29Z</time>
  <course>75.4</course>
  <speed>0.6573431371817918</speed>
  <fix>3d</fix>
</trkpt>
<trkpt lat="40.0714037" lon="-105.2296597">
  <ele>1583.0</ele>
  <time>2026-08-28T17:50:29Z</time>
  <course>74.48</course>
  <speed>0.68</speed>
  <fix>3d</fix>
</trkpt>
<trkpt lat="40.071404" lon="-105.2296573">
  <ele>1583.0</ele>
  <time>2026-08-28T17:50:29Z</time>
  <course>75.4</course>
  <speed>0.6573431371817918</speed>
  <fix>3d</fix>
</trkpt>
<trkpt lat="40.0714037" lon="-105.2296597">
  <ele>1583.0</ele>
  <time>2026-08-28T17:50:29Z</time>
  <course>74.48</course>
  <speed>0.68</speed>
  <fix>3d</fix>
</trkpt>
<trkpt lat="40.0714042" lon="-105.2296565">
  <ele>1583.01</ele>
  <time>2026-08-28T17:50:29Z</time>
  <course>75.4</course>
  <speed>0.6573431371817918</speed>
  <fix>3d</fix>
</trkpt>
<trkpt lat="40.071404" lon="-105.2296581">
  <ele>1583.0</ele>
  <time>2026-08-28T17:50:29Z</time>
  <course>74.48</course>
  <speed>0.68</speed>
  <fix>3d</fix>
</trkpt>
<trkpt lat="40.0714044" lon="-105.2296558">
  <ele>1583.01</ele>
  <time>2026-08-28T17:50:29Z</time>
  <course>75.4</course>
  <speed>0.6573431371817918</speed>
  <fix>3d</fix>
</trkpt>
<trkpt lat="40.071404" lon="-105.2296581">
  <ele>1583.0</ele>
  <time>2026-08-28T17:50:29Z</time>
  <course>74.48</course>
  <speed>0.68</speed>
  <fix>3d</fix>
</trkpt>
<trkpt lat="40.0714045" lon="-105.229655">
  <ele>1583.01</ele>
  <time>2026-08-28T17:50:29Z</time>
  <course>75.4</course>
  <speed>0.6573431371817918</speed>
  <fix>3d</fix>
</trkpt>
<trkpt lat="40.0714044" lon="-105.2296566">
  <ele>1583.0</ele>
  <time>2026-08-28T17:50:29Z</time>
  <course>74.48</course>
  <speed>0.68</speed>
  <fix>3d</fix>
</trkpt>
<trkpt lat="40.0714047" lon="-105.2296542">
  <ele>1583.01</ele>
  <time>2026-08-28T17:50:29Z</time>
  <course>75.41</course>
  <speed>0.6573431371817918</speed>
  <fix>3d</fix>
</trkpt>
<trkpt lat="40.0714047" lon="-105.229655">
  <ele>1583.0</ele>
  <time>2026-08-28T17:50:29Z</time>
  <course>74.48</course>
  <speed>0.68</speed>
  <fix>3d</fix>
</trkpt>
<trkpt lat="40.0714048" lon="-105.2296534">
  <ele>1583.01</ele>
  <time>2026-08-28T17:50:29Z</time>
  <course>75.41</course>
  <speed>0.6573431371817918</speed>
  <fix>3d</fix>
</trkpt>
<trkpt lat="40.0714047" lon="-105.229655">
  <ele>1583.0</ele>
  <time>2026-08-28T17:50:29Z</time>
  <course>74.48</course>
  <speed>0.68</speed>
  <fix>3d</fix>
</trkpt>
<trkpt lat="40.071405" lon="-105.2296527">
  <ele>1583.01</ele>
  <time>2026-08-28T17:50:29Z</time>
  <course>75.41</course>
  <speed>0.6573431371817918</speed>
  <fix>3d</fix>
</trkpt>
<trkpt lat="40.071405" lon="-105.2296534">
  <ele>1583.0</ele>
  <time>2026-08-28T17:50:29Z</time>
  <course>74.48</course>
  <speed>0.68</speed>
  <fix>3d</fix>
</trkpt>
<trkpt lat="40.0714052" lon="-105.2296519">
  <ele>1583.01</ele>
  <time>2026-08-28T17:50:29Z</time>
  <course>75.41</course>
  <speed>0.6573431371817918</speed>
  <fix>3d</fix>
</trkpt>
<trkpt lat="40.071405" lon="-105.2296534">
  <ele>1583.0</ele>
  <time>2026-08-28T17:50:29Z</time>
  <course>74.48</course>
  <speed>0.68</speed>
  <fix>3d</fix>
</trkpt>
<trkpt lat="40.0714053" lon="-105.2296511">
  <ele>1583.01</ele>
  <time>2026-08-28T17:50:29Z</time>
  <course>75.41</course>
  <speed>0.6573431371817918</speed>
  <fix>3d</fix>
</trkpt>
<trkpt lat="40.0714054" lon="-105.2296519">
  <ele>1583.0</ele>
  <time>2026-08-28T17:50:29Z</time>
  <course>74.48</course>
  <speed>0.68</speed>
  <fix>3d</fix>
</trkpt>
<trkpt lat="40.0714055" lon="-105.2296503">
  <ele>1583.01</ele>
  <time>2026-08-28T17:50:29Z</time>
  <course>75.41</course>
  <speed>0.6573431371817918</speed>
  <fix>3d</fix>
</trkpt>
<trkpt lat="40.0714054" lon="-105.2296519">
  <ele>1583.0</ele>
  <time>2026-08-28T17:50:29Z</time>
  <course>74.48</course>
  <speed>0.68</speed>
  <fix>3d</fix>
</trkpt>
<trkpt lat="40.0714057" lon="-105.2296495">
  <ele>1583.01</ele>
  <time>2026-08-28T17:50:29Z</time>
  <course>75.41</course>
  <speed>0.6573431371817918</speed>
  <fix>3d</fix>
</trkpt>
<trkpt lat="40.0714057" lon="-105.2296504">
  <ele>1583.0</ele>
  <time>2026-08-28T17:50:29Z</time>
  <course>74.48</course>
  <speed>0.68</speed>
  <fix>3d</fix>
</trkpt>
<trkpt lat="40.0714058" lon="-105.2296487">
  <ele>1583.01</ele>
  <time>2026-08-28T17:50:29Z</time>
  <course>75.41</course>
  <speed>0.6573431371817918</speed>
  <fix>3d</fix>
</trkpt>
<trkpt lat="40.0714057" lon="-105.2296504">
  <ele>1583.0</ele>
  <time>2026-08-28T17:50:29Z</time>
  <course>74.48</course>
  <speed>0.68</speed>
  <fix>3d</fix>
</trkpt>
<trkpt lat="40.071406" lon="-105.229648">
  <ele>1583.01</ele>
  <time>2026-08-28T17:50:29Z</time>
  <course>75.41</course>
  <speed>0.6573431371817918</speed>
  <fix>3d</fix>
</trkpt>
<trkpt lat="40.071406" lon="-105.2296488">
  <ele>1583.0</ele>
  <time>2026-08-28T17:50:29Z</time>
  <course>74.48</course>
  <speed>0.68</speed>
  <fix>3d</fix>
</trkpt>
<trkpt lat="40.0714062" lon="-105.2296472">
  <ele>1583.01</ele>
  <time>2026-08-28T17:50:29Z</time>
  <course>75.41</course>
  <speed>0.6573431371817918</speed>
  <fix>3d</fix>
</trkpt>
<trkpt lat="40.071406" lon="-105.2296488">
  <ele>1583.0</ele>
  <time>2026-08-28T17:50:29Z</time>
  <course>74.48</course>
  <speed>0.68</speed>
  <fix>3d</fix>
</trkpt>
<trkpt lat="40.0714063" lon="-105.2296464">
  <ele>1583.02</ele>
  <time>2026-08-28T17:50:29Z</time>
  <course>75.41</course>
  <speed>0.6573431371817918</speed>
  <fix>3d</fix>
</trkpt>
<trkpt lat="40.0714064" lon="-105.2296473">
  <ele>1583.0</ele>
  <time>2026-08-28T17:50:29Z</time>
  <course>74.48</course>
  <speed>0.68</speed>
  <fix>3d</fix>
</trkpt>
<trkpt lat="40.0714065" lon="-105.2296456">
  <ele>1583.02</ele>
  <time>2026-08-28T17:50:29Z</time>
  <course>75.41</course>
  <speed>0.6573431371817918</speed>
  <fix>3d</fix>
</trkpt>
<trkpt lat="40.0714064" lon="-105.2296473">
  <ele>1583.0</ele>
  <time>2026-08-28T17:50:29Z</time>
  <course>74.48</course>
  <speed>0.68</speed>
  <fix>3d</fix>
</trkpt>
<trkpt lat="40.0714067" lon="-105.2296449">
  <ele>1583.02</ele>
  <time>2026-08-28T17:50:29Z</time>
  <course>75.42</course>
  <speed>0.6573431371817918</speed>
  <fix>3d</fix>
</trkpt>
<trkpt lat="40.0714067" lon="-105.2296457">
  <ele>1583.0</ele>
  <time>2026-08-28T17:50:29Z</time>
  <course>74.48</course>
  <speed>0.68</speed>
  <fix>3d</fix>
</trkpt>
<trkpt lat="40.0714068" lon="-105.2296441">
  <ele>1583.02</ele>
  <time>2026-08-28T17:50:29Z</time>
  <course>75.42</course>
  <speed>0.6573431371817918</speed>
  <fix>3d</fix>
</trkpt>
<trkpt lat="40.0714067" lon="-105.2296457">
  <ele>1583.0</ele>
  <time>2026-08-28T17:50:29Z</time>
  <course>74.48</course>
  <speed>0.68</speed>
  <fix>3d</fix>
</trkpt>
<trkpt lat="40.071407" lon="-105.2296433">
  <ele>1583.02</ele>
  <time>2026-08-28T17:50:29Z</time>
  <course>75.42</course>
  <speed>0.6573431371817918</speed>
  <fix>3d</fix>
</trkpt>
<trkpt lat="40.0714067" lon="-105.2296457">
  <ele>1583.0</ele>
  <time>2026-08-28T17:50:29Z</time>
  <course>74.48</course>
  <speed>0.68</speed>
  <fix>3d</fix>
</trkpt>
<trkpt lat="40.0714072" lon="-105.2296425">
  <ele>1583.02</ele>
  <time>2026-08-28T17:50:29Z</time>
  <course>75.42</course>
  <speed>0.6573431371817918</speed>
  <fix>3d</fix>
</trkpt>
<trkpt lat="40.071407" lon="-105.2296442">
  <ele>1583.0</ele>
  <time>2026-08-28T17:50:29Z</time>
  <course>74.48</course>
  <speed>0.68</speed>
  <fix>3d</fix>
</trkpt>
<trkpt lat="40.0714073" lon="-105.2296418">
  <ele>1583.02</ele>
  <time>2026-08-28T17:50:29Z</time>
  <course>75.42</course>
  <speed>0.6573431371817918</speed>
  <fix>3d</fix>
</trkpt>
<trkpt lat="40.071407" lon="-105.2296442">
  <ele>1583.0</ele>
  <time>2026-08-28T17:50:29Z</time>
  <course>74.48</course>
  <speed>0.68</speed>
  <fix>3d</fix>
</trkpt>
<trkpt lat="40.0714075" lon="-105.229641">
  <ele>1583.02</ele>
  <time>2026-08-28T17:50:29Z</time>
  <course>75.42</course>
  <speed>0.6573431371817918</speed>
  <fix>3d</fix>
</trkpt>
<trkpt lat="40.0714074" lon="-105.2296426">
  <ele>1583.0</ele>
  <time>2026-08-28T17:50:29Z</time>
  <course>74.48</course>
  <speed>0.68</speed>
  <fix>3d</fix>
</trkpt>
<trkpt lat="40.0714077" lon="-105.2296402">
  <ele>1583.02</ele>
  <time>2026-08-28T17:50:29Z</time>
  <course>75.42</course>
  <speed>0.6573431371817918</speed>
  <fix>3d</fix>
</trkpt>
<trkpt lat="40.0714074" lon="-105.2296426">
  <ele>1583.0</ele>
  <time>2026-08-28T17:50:29Z</time>
  <course>74.48</course>
  <speed>0.68</speed>
  <fix>3d</fix>
</trkpt>
<trkpt lat="40.0714078" lon="-105.2296394">
  <ele>1583.02</ele>
  <time>2026-08-28T17:50:29Z</time>
  <course>75.42</course>
  <speed>0.6596969000988256</speed>
  <fix>3d</fix>
</trkpt>
<trkpt lat="40.0714077" lon="-105.229641">
  <ele>1583.0</ele>
  <time>2026-08-28T17:50:29Z</time>
  <course>74.48</course>
  <speed>0.68</speed>
  <fix>3d</fix>
</trkpt>
<trkpt lat="40.071408" lon="-105.2296387">
  <ele>1583.02</ele>
  <time>2026-08-28T17:50:29Z</time>
  <course>75.42</course>
  <speed>0.6573431371817918</speed>
  <fix>3d</fix>
</trkpt>
<trkpt lat="40.071408" lon="-105.2296394">
  <ele>1583.0</ele>
  <time>2026-08-28T17:50:29Z</time>
  <course>74.48</course>
  <speed>0.68</speed>
  <fix>3d</fix>
</trkpt>
<trkpt lat="40.0714082" lon="-105.2296379">
  <ele>1583.02</ele>
  <time>2026-08-28T17:50:29Z</time>
  <course>75.42</course>
  <speed>0.6596969000988256</speed>
  <fix>3d</fix>
</trkpt>
<trkpt lat="40.071408" lon="-105.2296394">
  <ele>1583.0</ele>
  <time>2026-08-28T17:50:29Z</time>
  <course>74.48</course>
  <speed>0.68</speed>
  <fix>3d</fix>
</trkpt>
<trkpt lat="40.0714083" lon="-105.2296371">
  <ele>1583.02</ele>
  <time>2026-08-28T17:50:29Z</time>
  <course>75.42</course>
  <speed>0.6596969000988256</speed>
  <fix>3d</fix>
</trkpt>
<trkpt lat="40.0714083" lon="-105.2296379">
  <ele>1583.0</ele>
  <time>2026-08-28T17:50:29Z</time>
  <course>74.48</course>
  <speed>0.68</speed>
  <fix>3d</fix>
</trkpt>
<trkpt lat="40.0714085" lon="-105.2296363">
  <ele>1583.02</ele>
  <time>2026-08-28T17:50:29Z</time>
  <course>75.42</course>
  <speed>0.6596969000988256</speed>
  <fix>3d</fix>
</trkpt>
<trkpt lat="40.0714083" lon="-105.2296379">
  <ele>1583.0</ele>
  <time>2026-08-28T17:50:29Z</time>
  <course>74.48</course>
  <speed>0.68</speed>
  <fix>3d</fix>
</trkpt>
<trkpt lat="40.0714086" lon="-105.2296356">
  <ele>1583.02</ele>
  <time>2026-08-28T17:50:29Z</time>
  <course>75.42</course>
  <speed>0.6573431371817918</speed>
  <fix>3d</fix>
</trkpt>
<trkpt lat="40.0714087" lon="-105.2296364">
  <ele>1583.0</ele>
  <time>2026-08-28T17:50:29Z</time>
  <course>74.48</course>
  <speed>0.68</speed>
  <fix>3d</fix>
</trkpt>
<trkpt lat="40.0714088" lon="-105.2296348">
  <ele>1583.02</ele>
  <time>2026-08-28T17:50:29Z</time>
  <course>75.43</course>
  <speed>0.6596969000988256</speed>
  <fix>3d</fix>
</trkpt>
<trkpt lat="40.0714087" lon="-105.2296364">
  <ele>1583.0</ele>
  <time>2026-08-28T17:50:29Z</time>
  <course>74.48</course>
  <speed>0.68</speed>
  <fix>3d</fix>
</trkpt>
<trkpt lat="40.071409" lon="-105.229634">
  <ele>1583.02</ele>
  <time>2026-08-28T17:50:29Z</time>
  <course>75.43</course>
  <speed>0.6573431371817918</speed>
  <fix>3d</fix>
</trkpt>
<trkpt lat="40.071409" lon="-105.2296348">
  <ele>1583.0</ele>
  <time>2026-08-28T17:50:29Z</time>
  <course>74.48</course>
  <speed>0.68</speed>
  <fix>3d</fix>
</trkpt>
<trkpt lat="40.0714091" lon="-105.2296332">
  <ele>1583.02</ele>
  <time>2026-08-28T17:50:29Z</time>
  <course>75.43</course>
  <speed>0.6596969000988256</speed>
  <fix>3d</fix>
</trkpt>
<trkpt lat="40.071409" lon="-105.2296348">
  <ele>1583.0</ele>
  <time>2026-08-28T17:50:29Z</time>
  <course>74.48</course>
  <speed>0.68</speed>
  <fix>3d</fix>
</trkpt>
<trkpt lat="40.0714093" lon="-105.2296324">
  <ele>1583.02</ele>
  <time>2026-08-28T17:50:29Z</time>
  <course>75.43</course>
  <speed>0.6573431371817918</speed>
  <fix>3d</fix>
</trkpt>
<trkpt lat="40.0714093" lon="-105.2296332">
  <ele>1583.0</ele>
  <time>2026-08-28T17:50:29Z</time>
  <course>74.48</course>
  <speed>0.68</speed>
  <fix>3d</fix>
</trkpt>
<trkpt lat="40.0714095" lon="-105.2296316">
  <ele>1583.02</ele>
  <time>2026-08-28T17:50:29Z</time>
  <course>75.43</course>
  <speed>0.6596969000988256</speed>
  <fix>3d</fix>
</trkpt>
<trkpt lat="40.0714093" lon="-105.2296332">
  <ele>1583.0</ele>
  <time>2026-08-28T17:50:29Z</time>
  <course>74.48</course>
  <speed>0.68</speed>
  <fix>3d</fix>
</trkpt>
<trkpt lat="40.0714096" lon="-105.2296309">
  <ele>1583.02</ele>
  <time>2026-08-28T17:50:29Z</time>
  <course>75.43</course>
  <speed>0.6573431371817918</speed>
  <fix>3d</fix>
</trkpt>
<trkpt lat="40.0714097" lon="-105.2296317">
  <ele>1583.0</ele>
  <time>2026-08-28T17:50:29Z</time>
  <course>74.48</course>
  <speed>0.68</speed>
  <fix>3d</fix>
</trkpt>
<trkpt lat="40.0714098" lon="-105.2296301">
  <ele>1583.02</ele>
  <time>2026-08-28T17:50:29Z</time>
  <course>75.43</course>
  <speed>0.6596969000988256</speed>
  <fix>3d</fix>
</trkpt>
<trkpt lat="40.0714097" lon="-105.2296317">
  <ele>1583.0</ele>
  <time>2026-08-28T17:50:29Z</time>
  <course>74.48</course>
  <speed>0.68</speed>
  <fix>3d</fix>
</trkpt>
<trkpt lat="40.07141" lon="-105.2296293">
  <ele>1583.02</ele>
  <time>2026-08-28T17:50:29Z</time>
  <course>75.43</course>
  <speed>0.6573431371817918</speed>
  <fix>3d</fix>
</trkpt>
<trkpt lat="40.07141" lon="-105.2296302">
  <ele>1583.0</ele>
  <time>2026-08-28T17:50:29Z</time>
  <course>74.48</course>
  <speed>0.68</speed>
  <fix>3d</fix>
</trkpt>
<trkpt lat="40.0714101" lon="-105.2296285">
  <ele>1583.02</ele>
  <time>2026-08-28T17:50:29Z</time>
  <course>75.43</course>
  <speed>0.6596969000988256</speed>
  <fix>3d</fix>
</trkpt>
<trkpt lat="40.07141" lon="-105.2296302">
  <ele>1583.0</ele>
  <time>2026-08-28T17:50:29Z</time>
  <course>74.48</course>
  <speed>0.68</speed>
  <fix>3d</fix>
</trkpt>
<trkpt lat="40.0714103" lon="-105.2296277">
  <ele>1583.01</ele>
  <time>2026-08-28T17:50:29Z</time>
  <course>75.43</course>
  <speed>0.6573431371817918</speed>
  <fix>3d</fix>
</trkpt>
<trkpt lat="40.07141" lon="-105.2296302">
  <ele>1583.0</ele>
  <time>2026-08-28T17:50:29Z</time>
  <course>74.48</course>
  <speed>0.68</speed>
  <fix>3d</fix>
</trkpt>
<trkpt lat="40.0714105" lon="-105.229627">
  <ele>1583.02</ele>
  <time>2026-08-28T17:50:29Z</time>
  <course>75.43</course>
  <speed>0.6573431371817918</speed>
  <fix>3d</fix>
</trkpt>
<trkpt lat="40.0714103" lon="-105.2296286">
  <ele>1583.0</ele>
  <time>2026-08-28T17:50:29Z</time>
  <course>74.48</course>
  <speed>0.68</speed>
  <fix>3d</fix>
</trkpt>
<trkpt lat="40.0714106" lon="-105.2296262">
  <ele>1583.02</ele>
  <time>2026-08-28T17:50:29Z</time>
  <course>75.43</course>
  <speed>0.6573431371817918</speed>
  <fix>3d</fix>
</trkpt>
<trkpt lat="40.0714103" lon="-105.2296286">
  <ele>1583.0</ele>
  <time>2026-08-28T17:50:29Z</time>
  <course>74.48</course>
  <speed>0.68</speed>
  <fix>3d</fix>
</trkpt>
<trkpt lat="40.0714108" lon="-105.2296254">
  <ele>1583.02</ele>
  <time>2026-08-28T17:50:29Z</time>
  <course>75.43</course>
  <speed>0.6573431371817918</speed>
  <fix>3d</fix>
</trkpt>
<trkpt lat="40.0714107" lon="-105.229627">
  <ele>1583.0</ele>
  <time>2026-08-28T17:50:29Z</time>
  <course>74.48</course>
  <speed>0.68</speed>
  <fix>3d</fix>
</trkpt>
<trkpt lat="40.071411" lon="-105.2296247">
  <ele>1583.02</ele>
  <time>2026-08-28T17:50:29Z</time>
  <course>75.43</course>
  <speed>0.6573431371817918</speed>
  <fix>3d</fix>
</trkpt>
<trkpt lat="40.0714107" lon="-105.229627">
  <ele>1583.0</ele>
  <time>2026-08-28T17:50:29Z</time>
  <course>74.48</course>
  <speed>0.68</speed>
  <fix>3d</fix>
</trkpt>
<trkpt lat="40.0714111" lon="-105.2296239">
  <ele>1583.02</ele>
  <time>2026-08-28T17:50:29Z</time>
  <course>75.43</course>
  <speed>0.6596969000988256</speed>
  <fix>3d</fix>
</trkpt>
<trkpt lat="40.071411" lon="-105.2296255">
  <ele>1583.0</ele>
  <time>2026-08-28T17:50:29Z</time>
  <course>74.48</course>
  <speed>0.68</speed>
  <fix>3d</fix>
</trkpt>
<trkpt lat="40.0714113" lon="-105.2296231">
  <ele>1583.02</ele>
  <time>2026-08-28T17:50:29Z</time>
  <course>75.44</course>
  <speed>0.6573431371817918</speed>
  <fix>3d</fix>
</trkpt>
<trkpt lat="40.0714113" lon="-105.229624">
  <ele>1583.0</ele>
  <time>2026-08-28T17:50:29Z</time>
  <course>74.48</course>
  <speed>0.68</speed>
  <fix>3d</fix>
</trkpt>
<trkpt lat="40.0714115" lon="-105.2296223">
  <ele>1583.02</ele>
  <time>2026-08-28T17:50:29Z</time>
  <course>75.44</course>
  <speed>0.6596969000988256</speed>
  <fix>3d</fix>
</trkpt>
<trkpt lat="40.0714113" lon="-105.229624">
  <ele>1583.0</ele>
  <time>2026-08-28T17:50:29Z</time>
  <course>74.48</course>
  <speed>0.68</speed>
  <fix>3d</fix>
</trkpt>
<trkpt lat="40.0714116" lon="-105.2296216">
  <ele>1583.02</ele>
  <time>2026-08-28T17:50:29Z</time>
  <course>75.44</course>
  <speed>0.6596969000988256</speed>
  <fix>3d</fix>
</trkpt>
<trkpt lat="40.0714117" lon="-105.2296224">
  <ele>1583.0</ele>
  <time>2026-08-28T17:50:29Z</time>
  <course>74.48</course>
  <speed>0.68</speed>
  <fix>3d</fix>
</trkpt>
<trkpt lat="40.0714118" lon="-105.2296208">
  <ele>1583.02</ele>
  <time>2026-08-28T17:50:29Z</time>
  <course>75.44</course>
  <speed>0.6596969000988256</speed>
  <fix>3d</fix>
</trkpt>
<trkpt lat="40.0714117" lon="-105.2296224">
  <ele>1583.0</ele>
  <time>2026-08-28T17:50:29Z</time>
  <course>74.48</course>
  <speed>0.68</speed>
  <fix>3d</fix>
</trkpt>
<trkpt lat="40.071412" lon="-105.22962">
  <ele>1583.02</ele>
  <time>2026-08-28T17:50:29Z</time>
  <course>75.44</course>
  <speed>0.6596969000988256</speed>
  <fix>3d</fix>
</trkpt>
<trkpt lat="40.071412" lon="-105.2296208">
  <ele>1583.0</ele>
  <time>2026-08-28T17:50:29Z</time>
  <course>74.48</course>
  <speed>0.68</speed>
  <fix>3d</fix>
</trkpt>
<trkpt lat="40.0714121" lon="-105.2296192">
  <ele>1583.01</ele>
  <time>2026-08-28T17:50:29Z</time>
  <course>75.44</course>
  <speed>0.6596969000988256</speed>
  <fix>3d</fix>
</trkpt>
<trkpt lat="40.071412" lon="-105.2296208">
  <ele>1583.0</ele>
  <time>2026-08-28T17:50:29Z</time>
  <course>74.48</course>
  <speed>0.68</speed>
  <fix>3d</fix>
</trkpt>
<trkpt lat="40.0714123" lon="-105.2296185">
  <ele>1583.01</ele>
  <time>2026-08-28T17:50:29Z</time>
  <course>75.44</course>
  <speed>0.6596969000988256</speed>
  <fix>3d</fix>
</trkpt>
<trkpt lat="40.0714123" lon="-105.2296193">
  <ele>1583.0</ele>
  <time>2026-08-28T17:50:29Z</time>
  <course>74.48</course>
  <speed>0.68</speed>
  <fix>3d</fix>
</trkpt>
<trkpt lat="40.0714125" lon="-105.2296177">
  <ele>1583.01</ele>
  <time>2026-08-28T17:50:29Z</time>
  <course>75.44</course>
  <speed>0.6596969000988256</speed>
  <fix>3d</fix>
</trkpt>
<trkpt lat="40.0714123" lon="-105.2296193">
  <ele>1583.0</ele>
  <time>2026-08-28T17:50:29Z</time>
  <course>74.48</course>
  <speed>0.68</speed>
  <fix>3d</fix>
</trkpt>
<trkpt lat="40.0714126" lon="-105.2296169">
  <ele>1583.01</ele>
  <time>2026-08-28T17:50:29Z</time>
  <course>75.44</course>
  <speed>0.6596969000988256</speed>
  <fix>3d</fix>
</trkpt>
<trkpt lat="40.0714126" lon="-105.2296177">
  <ele>1583.0</ele>
  <time>2026-08-28T17:50:29Z</time>
  <course>74.48</course>
  <speed>0.68</speed>
  <fix>3d</fix>
</trkpt>
<trkpt lat="40.0714128" lon="-105.2296161">
  <ele>1583.01</ele>
  <time>2026-08-28T17:50:29Z</time>
  <course>75.44</course>
  <speed>0.6596969000988256</speed>
  <fix>3d</fix>
</trkpt>
<trkpt lat="40.0714126" lon="-105.2296177">
  <ele>1583.0</ele>
  <time>2026-08-28T17:50:29Z</time>
  <course>74.48</course>
  <speed>0.68</speed>
  <fix>3d</fix>
</trkpt>
<trkpt lat="40.071413" lon="-105.2296153">
  <ele>1583.01</ele>
  <time>2026-08-28T17:50:29Z</time>
  <course>75.44</course>
  <speed>0.6596969000988256</speed>
  <fix>3d</fix>
</trkpt>
<trkpt lat="40.071413" lon="-105.2296162">
  <ele>1583.0</ele>
  <time>2026-08-28T17:50:29Z</time>
  <course>74.48</course>
  <speed>0.68</speed>
  <fix>3d</fix>
</trkpt>
<trkpt lat="40.0714131" lon="-105.2296145">
  <ele>1583.01</ele>
  <time>2026-08-28T17:50:29Z</time>
  <course>75.44</course>
  <speed>0.6596969000988256</speed>
  <fix>3d</fix>
</trkpt>
<trkpt lat="40.071413" lon="-105.2296162">
  <ele>1583.0</ele>
  <time>2026-08-28T17:50:29Z</time>
  <course>74.48</course>
  <speed>0.68</speed>
  <fix>3d</fix>
</trkpt>
<trkpt lat="40.0714133" lon="-105.2296138">
  <ele>1583.02</ele>
  <time>2026-08-28T17:50:29Z</time>
  <course>75.44</course>
  <speed>0.6596969000988256</speed>
  <fix>3d</fix>
</trkpt>
<trkpt lat="40.0714133" lon="-105.2296146">
  <ele>1583.0</ele>
  <time>2026-08-28T17:50:29Z</time>
  <course>74.48</course>
  <speed>0.68</speed>
  <fix>3d</fix>
</trkpt>
<trkpt lat="40.0714135" lon="-105.229613">
  <ele>1583.01</ele>
  <time>2026-08-28T17:50:29Z</time>
  <course>75.44</course>
  <speed>0.6596969000988256</speed>
  <fix>3d</fix>
</trkpt>
<trkpt lat="40.0714133" lon="-105.2296146">
  <ele>1583.0</ele>
  <time>2026-08-28T17:50:29Z</time>
  <course>74.48</course>
  <speed>0.68</speed>
  <fix>3d</fix>
</trkpt>
<trkpt lat="40.0714136" lon="-105.2296122">
  <ele>1583.01</ele>
  <time>2026-08-28T17:50:29Z</time>
  <course>75.44</course>
  <speed>0.6596969000988256</speed>
  <fix>3d</fix>
</trkpt>
<trkpt lat="40.0714133" lon="-105.2296146">
  <ele>1583.0</ele>
  <time>2026-08-28T17:50:29Z</time>
  <course>74.48</course>
  <speed>0.68</speed>
  <fix>3d</fix>
</trkpt>
<trkpt lat="40.0714138" lon="-105.2296114">
  <ele>1583.01</ele>
  <time>2026-08-28T17:50:29Z</time>
  <course>75.44</course>
  <speed>0.6596969000988256</speed>
  <fix>3d</fix>
</trkpt>
<trkpt lat="40.0714136" lon="-105.2296131">
  <ele>1583.0</ele>
  <time>2026-08-28T17:50:29Z</time>
  <course>74.48</course>
  <speed>0.68</speed>
  <fix>3d</fix>
</trkpt>
<trkpt lat="40.0714139" lon="-105.2296107">
  <ele>1583.01</ele>
  <time>2026-08-28T17:50:29Z</time>
  <course>75.45</course>
  <speed>0.6573431371817918</speed>
  <fix>3d</fix>
</trkpt>
<trkpt lat="40.0714136" lon="-105.2296131">
  <ele>1583.0</ele>
  <time>2026-08-28T17:50:29Z</time>
  <course>74.48</course>
  <speed>0.68</speed>
  <fix>3d</fix>
</trkpt>
<trkpt lat="40.0714141" lon="-105.2296099">
  <ele>1583.01</ele>
  <time>2026-08-28T17:50:29Z</time>
  <course>75.45</course>
  <speed>0.6596969000988256</speed>
  <fix>3d</fix>
</trkpt>
<trkpt lat="40.071414" lon="-105.2296115">
  <ele>1583.0</ele>
  <time>2026-08-28T17:50:29Z</time>
  <course>74.48</course>
  <speed>0.68</speed>
  <fix>3d</fix>
</trkpt>
<trkpt lat="40.0714143" lon="-105.2296091">
  <ele>1583.01</ele>
  <time>2026-08-28T17:50:29Z</time>
  <course>75.45</course>
  <speed>0.6596969000988256</speed>
  <fix>3d</fix>
</trkpt>
<trkpt lat="40.071414" lon="-105.2296115">
  <ele>1583.0</ele>
  <time>2026-08-28T17:50:29Z</time>
  <course>74.48</course>
  <speed>0.68</speed>
  <fix>3d</fix>
</trkpt>
<trkpt lat="40.0714144" lon="-105.2296084">
  <ele>1583.01</ele>
  <time>2026-08-28T17:50:29Z</time>
  <course>75.45</course>
  <speed>0.6596969000988256</speed>
  <fix>3d</fix>
</trkpt>
<trkpt lat="40.0714143" lon="-105.2296099">
  <ele>1583.0</ele>
  <time>2026-08-28T17:50:29Z</time>
  <course>74.48</course>
  <speed>0.68</speed>
  <fix>3d</fix>
</trkpt>
<trkpt lat="40.0714146" lon="-105.2296076">
  <ele>1583.01</ele>
  <time>2026-08-28T17:50:29Z</time>
  <course>75.45</course>
  <speed>0.6596969000988256</speed>
  <fix>3d</fix>
</trkpt>
<trkpt lat="40.0714143" lon="-105.2296099">
  <ele>1583.0</ele>
  <time>2026-08-28T17:50:29Z</time>
  <course>74.48</course>
  <speed>0.68</speed>
  <fix>3d</fix>
</trkpt>
<trkpt lat="40.0714148" lon="-105.2296068">
  <ele>1583.01</ele>
  <time>2026-08-28T17:50:29Z</time>
  <course>75.45</course>
  <speed>0.6596969000988256</speed>
  <fix>3d</fix>
</trkpt>
<trkpt lat="40.0714146" lon="-105.2296084">
  <ele>1583.0</ele>
  <time>2026-08-28T17:50:29Z</time>
  <course>74.48</course>
  <speed>0.68</speed>
  <fix>3d</fix>
</trkpt>
<trkpt lat="40.0714149" lon="-105.229606">
  <ele>1583.01</ele>
  <time>2026-08-28T17:50:29Z</time>
  <course>75.45</course>
  <speed>0.6596969000988256</speed>
  <fix>3d</fix>
</trkpt>
<trkpt lat="40.071415" lon="-105.2296068">
  <ele>1583.0</ele>
  <time>2026-08-28T17:50:29Z</time>
  <course>74.48</course>
  <speed>0.68</speed>
  <fix>3d</fix>
</trkpt>
<trkpt lat="40.0714151" lon="-105.2296053">
  <ele>1583.0</ele>
  <time>2026-08-28T17:50:29Z</time>
  <course>75.45</course>
  <speed>0.6596969000988256</speed>
  <fix>3d</fix>
</trkpt>
<trkpt lat="40.071415" lon="-105.2296068">
  <ele>1583.0</ele>
  <time>2026-08-28T17:50:29Z</time>
  <course>74.48</course>
  <speed>0.68</speed>
  <fix>3d</fix>
</trkpt>
<trkpt lat="40.0714153" lon="-105.2296045">
  <ele>1583.0</ele>
  <time>2026-08-28T17:50:29Z</time>
  <course>75.45</course>
  <speed>0.6596969000988256</speed>
  <fix>3d</fix>
</trkpt>
<trkpt lat="40.0714153" lon="-105.2296053">
  <ele>1583.0</ele>
  <time>2026-08-28T17:50:29Z</time>
  <course>74.48</course>
  <speed>0.68</speed>
  <fix>3d</fix>
</trkpt>
<trkpt lat="40.0714154" lon="-105.2296037">
  <ele>1583.0</ele>
  <time>2026-08-28T17:50:29Z</time>
  <course>75.45</course>
  <speed>0.6596969000988256</speed>
  <fix>3d</fix>
</trkpt>
<trkpt lat="40.0714153" lon="-105.2296053">
  <ele>1583.0</ele>
  <time>2026-08-28T17:50:29Z</time>
  <course>74.48</course>
  <speed>0.68</speed>
  <fix>3d</fix>
</trkpt>
<trkpt lat="40.0714156" lon="-105.2296029">
  <ele>1583.01</ele>
  <time>2026-08-28T17:50:29Z</time>
  <course>75.45</course>
  <speed>0.6596969000988256</speed>
  <fix>3d</fix>
</trkpt>
<trkpt lat="40.0714156" lon="-105.2296038">
  <ele>1583.0</ele>
  <time>2026-08-28T17:50:29Z</time>
  <course>74.48</course>
  <speed>0.68</speed>
  <fix>3d</fix>
</trkpt>
<trkpt lat="40.0714158" lon="-105.2296021">
  <ele>1583.01</ele>
  <time>2026-08-28T17:50:29Z</time>
  <course>75.45</course>
  <speed>0.6596969000988256</speed>
  <fix>3d</fix>
</trkpt>
<trkpt lat="40.0714156" lon="-105.2296038">
  <ele>1583.0</ele>
  <time>2026-08-28T17:50:29Z</time>
  <course>74.48</course>
  <speed>0.68</speed>
  <fix>3d</fix>
</trkpt>
<trkpt lat="40.0714159" lon="-105.2296014">
  <ele>1583.01</ele>
  <time>2026-08-28T17:50:30Z</time>
  <course>75.45</course>
  <speed>0.6596969000988256</speed>
  <fix>3d</fix>
</trkpt>
<trkpt lat="40.071416" lon="-105.2296021">
  <ele>1583.0</ele>
  <time>2026-08-28T17:50:30Z</time>
  <course>74.48</course>
  <speed>0.68</speed>
  <fix>3d</fix>
</trkpt>
<trkpt lat="40.0714161" lon="-105.2296006">
  <ele>1583.01</ele>
  <time>2026-08-28T17:50:30Z</time>
  <course>75.45</course>
  <speed>0.6596969000988256</speed>
  <fix>3d</fix>
</trkpt>
<trkpt lat="40.071416" lon="-105.2296021">
  <ele>1583.0</ele>
  <time>2026-08-28T17:50:30Z</time>
  <course>74.48</course>
  <speed>0.68</speed>
  <fix>3d</fix>
</trkpt>
<trkpt lat="40.0714163" lon="-105.2295998">
  <ele>1583.01</ele>
  <time>2026-08-28T17:50:30Z</time>
  <course>75.45</course>
  <speed>0.6596969000988256</speed>
  <fix>3d</fix>
</trkpt>
<trkpt lat="40.0714163" lon="-105.2296006">
  <ele>1583.0</ele>
  <time>2026-08-28T17:50:30Z</time>
  <course>74.48</course>
  <speed>0.68</speed>
  <fix>3d</fix>
</trkpt>
<trkpt lat="40.0714164" lon="-105.229599">
  <ele>1583.01</ele>
  <time>2026-08-28T17:50:30Z</time>
  <course>75.45</course>
  <speed>0.6596969000988256</speed>
  <fix>3d</fix>
</trkpt>
<trkpt lat="40.0714163" lon="-105.2296006">
  <ele>1583.0</ele>
  <time>2026-08-28T17:50:30Z</time>
  <course>74.48</course>
  <speed>0.68</speed>
  <fix>3d</fix>
</trkpt>
<trkpt lat="40.0714166" lon="-105.2295982">
  <ele>1583.02</ele>
  <time>2026-08-28T17:50:30Z</time>
  <course>75.45</course>
  <speed>0.6596969000988256</speed>
  <fix>3d</fix>
</trkpt>
<trkpt lat="40.0714166" lon="-105.2295991">
  <ele>1583.0</ele>
  <time>2026-08-28T17:50:30Z</time>
  <course>74.48</course>
  <speed>0.68</speed>
  <fix>3d</fix>
</trkpt>
<trkpt lat="40.0714168" lon="-105.2295974">
  <ele>1583.02</ele>
  <time>2026-08-28T17:50:30Z</time>
  <course>75.45</course>
  <speed>0.6596969000988256</speed>
  <fix>3d</fix>
</trkpt>
<trkpt lat="40.0714166" lon="-105.2295991">
  <ele>1583.0</ele>
  <time>2026-08-28T17:50:30Z</time>
  <course>74.48</course>
  <speed>0.68</speed>
  <fix>3d</fix>
</trkpt>
<trkpt lat="40.0714169" lon="-105.2295967">
  <ele>1583.01</ele>
  <time>2026-08-28T17:50:30Z</time>
  <course>75.45</course>
  <speed>0.6596969000988256</speed>
  <fix>3d</fix>
</trkpt>
<trkpt lat="40.0714169" lon="-105.2295975">
  <ele>1583.0</ele>
  <time>2026-08-28T17:50:30Z</time>
  <course>74.48</course>
  <speed>0.68</speed>
  <fix>3d</fix>
</trkpt>
<trkpt lat="40.0714171" lon="-105.2295959">
  <ele>1583.02</ele>
  <time>2026-08-28T17:50:30Z</time>
  <course>75.46</course>
  <speed>0.6596969000988256</speed>
  <fix>3d</fix>
</trkpt>
<trkpt lat="40.0714169" lon="-105.2295975">
  <ele>1583.0</ele>
  <time>2026-08-28T17:50:30Z</time>
  <course>74.48</course>
  <speed>0.68</speed>
  <fix>3d</fix>
</trkpt>
<trkpt lat="40.0714173" lon="-105.2295951">
  <ele>1583.02</ele>
  <time>2026-08-28T17:50:30Z</time>
  <course>75.46</course>
  <speed>0.6596969000988256</speed>
  <fix>3d</fix>
</trkpt>
<trkpt lat="40.0714169" lon="-105.2295975">
  <ele>1583.0</ele>
  <time>2026-08-28T17:50:30Z</time>
  <course>74.48</course>
  <speed>0.68</speed>
  <fix>3d</fix>
</trkpt>
<trkpt lat="40.0714174" lon="-105.2295943">
  <ele>1583.02</ele>
  <time>2026-08-28T17:50:30Z</time>
  <course>75.46</course>
  <speed>0.6596969000988256</speed>
  <fix>3d</fix>
</trkpt>
<trkpt lat="40.0714172" lon="-105.2295959">
  <ele>1583.0</ele>
  <time>2026-08-28T17:50:30Z</time>
  <course>74.48</course>
  <speed>0.68</speed>
  <fix>3d</fix>
</trkpt>
<trkpt lat="40.0714176" lon="-105.2295936">
  <ele>1583.02</ele>
  <time>2026-08-28T17:50:30Z</time>
  <course>75.46</course>
  <speed>0.6573431371817918</speed>
  <fix>3d</fix>
</trkpt>
<trkpt lat="40.0714172" lon="-105.2295959">
  <ele>1583.0</ele>
  <time>2026-08-28T17:50:30Z</time>
  <course>74.48</course>
  <speed>0.68</speed>
  <fix>3d</fix>
</trkpt>
<trkpt lat="40.0714177" lon="-105.2295928">
  <ele>1583.03</ele>
  <time>2026-08-28T17:50:30Z</time>
  <course>75.46</course>
  <speed>0.6573431371817918</speed>
  <fix>3d</fix>
</trkpt>
<trkpt lat="40.0714176" lon="-105.2295944">
  <ele>1583.0</ele>
  <time>2026-08-28T17:50:30Z</time>
  <course>74.48</course>
  <speed>0.68</speed>
  <fix>3d</fix>
</trkpt>
<trkpt lat="40.0714179" lon="-105.229592">
  <ele>1583.03</ele>
  <time>2026-08-28T17:50:30Z</time>
  <course>75.46</course>
  <speed>0.6573431371817918</speed>
  <fix>3d</fix>
</trkpt>
<trkpt lat="40.0714176" lon="-105.2295944">
  <ele>1583.0</ele>
  <time>2026-08-28T17:50:30Z</time>
  <course>74.48</course>
  <speed>0.68</speed>
  <fix>3d</fix>
</trkpt>
<trkpt lat="40.0714181" lon="-105.2295913">
  <ele>1583.03</ele>
  <time>2026-08-28T17:50:30Z</time>
  <course>75.46</course>
  <speed>0.6573431371817918</speed>
  <fix>3d</fix>
</trkpt>
<trkpt lat="40.0714179" lon="-105.2295929">
  <ele>1583.0</ele>
  <time>2026-08-28T17:50:30Z</time>
  <course>74.48</course>
  <speed>0.68</speed>
  <fix>3d</fix>
</trkpt>
<trkpt lat="40.0714182" lon="-105.2295905">
  <ele>1583.03</ele>
  <time>2026-08-28T17:50:30Z</time>
  <course>75.46</course>
  <speed>0.6573431371817918</speed>
  <fix>3d</fix>
</trkpt>
<trkpt lat="40.0714183" lon="-105.2295913">
  <ele>1583.0</ele>
  <time>2026-08-28T17:50:30Z</time>
  <course>74.48</course>
  <speed>0.68</speed>
  <fix>3d</fix>
</trkpt>
<trkpt lat="40.0714184" lon="-105.2295897">
  <ele>1583.03</ele>
  <time>2026-08-28T17:50:30Z</time>
  <course>75.46</course>
  <speed>0.6573431371817918</speed>
  <fix>3d</fix>
</trkpt>
<trkpt lat="40.0714183" lon="-105.2295913">
  <ele>1583.0</ele>
  <time>2026-08-28T17:50:30Z</time>
  <course>74.48</course>
  <speed>0.68</speed>
  <fix>3d</fix>
</trkpt>
<trkpt lat="40.0714186" lon="-105.2295889">
  <ele>1583.03</ele>
  <time>2026-08-28T17:50:30Z</time>
  <course>75.46</course>
  <speed>0.6573431371817918</speed>
  <fix>3d</fix>
</trkpt>
<trkpt lat="40.0714186" lon="-105.2295897">
  <ele>1583.0</ele>
  <time>2026-08-28T17:50:30Z</time>
  <course>74.48</course>
  <speed>0.68</speed>
  <fix>3d</fix>
</trkpt>
<trkpt lat="40.0714187" lon="-105.2295882">
  <ele>1583.03</ele>
  <time>2026-08-28T17:50:30Z</time>
  <course>75.46</course>
  <speed>0.6573431371817918</speed>
  <fix>3d</fix>
</trkpt>
<trkpt lat="40.0714186" lon="-105.2295897">
  <ele>1583.0</ele>
  <time>2026-08-28T17:50:30Z</time>
  <course>74.48</course>
  <speed>0.68</speed>
  <fix>3d</fix>
</trkpt>
<trkpt lat="40.0714189" lon="-105.2295874">
  <ele>1583.03</ele>
  <time>2026-08-28T17:50:30Z</time>
  <course>75.46</course>
  <speed>0.6573431371817918</speed>
  <fix>3d</fix>
</trkpt>
<trkpt lat="40.0714189" lon="-105.2295882">
  <ele>1583.0</ele>
  <time>2026-08-28T17:50:30Z</time>
  <course>74.48</course>
  <speed>0.68</speed>
  <fix>3d</fix>
</trkpt>
<trkpt lat="40.0714191" lon="-105.2295866">
  <ele>1583.03</ele>
  <time>2026-08-28T17:50:30Z</time>
  <course>75.46</course>
  <speed>0.6573431371817918</speed>
  <fix>3d</fix>
</trkpt>
<trkpt lat="40.0714189" lon="-105.2295882">
  <ele>1583.0</ele>
  <time>2026-08-28T17:50:30Z</time>
  <course>74.48</course>
  <speed>0.68</speed>
  <fix>3d</fix>
</trkpt>
<trkpt lat="40.0714192" lon="-105.2295858">
  <ele>1583.03</ele>
  <time>2026-08-28T17:50:30Z</time>
  <course>75.46</course>
  <speed>0.6573431371817918</speed>
  <fix>3d</fix>
</trkpt>
<trkpt lat="40.0714193" lon="-105.2295867">
  <ele>1583.0</ele>
  <time>2026-08-28T17:50:30Z</time>
  <course>74.48</course>
  <speed>0.68</speed>
  <fix>3d</fix>
</trkpt>
<trkpt lat="40.0714194" lon="-105.229585">
  <ele>1583.03</ele>
  <time>2026-08-28T17:50:30Z</time>
  <course>75.46</course>
  <speed>0.6573431371817918</speed>
  <fix>3d</fix>
</trkpt>
<trkpt lat="40.0714193" lon="-105.2295867">
  <ele>1583.0</ele>
  <time>2026-08-28T17:50:30Z</time>
  <course>74.48</course>
  <speed>0.68</speed>
  <fix>3d</fix>
</trkpt>
<trkpt lat="40.0714196" lon="-105.2295843">
  <ele>1583.03</ele>
  <time>2026-08-28T17:50:30Z</time>
  <course>75.46</course>
  <speed>0.6573431371817918</speed>
  <fix>3d</fix>
</trkpt>
<trkpt lat="40.0714196" lon="-105.2295851">
  <ele>1583.0</ele>
  <time>2026-08-28T17:50:30Z</time>
  <course>74.48</course>
  <speed>0.68</speed>
  <fix>3d</fix>
</trkpt>
<trkpt lat="40.0714197" lon="-105.2295835">
  <ele>1583.03</ele>
  <time>2026-08-28T17:50:30Z</time>
  <course>75.46</course>
  <speed>0.6596969000988256</speed>
  <fix>3d</fix>
</trkpt>
<trkpt lat="40.0714196" lon="-105.2295851">
  <ele>1583.0</ele>
  <time>2026-08-28T17:50:30Z</time>
  <course>74.48</course>
  <speed>0.68</speed>
  <fix>3d</fix>
</trkpt>
<trkpt lat="40.0714199" lon="-105.2295827">
  <ele>1583.03</ele>
  <time>2026-08-28T17:50:30Z</time>
  <course>75.46</course>
  <speed>0.6596969000988256</speed>
  <fix>3d</fix>
</trkpt>
<trkpt lat="40.0714199" lon="-105.2295835">
  <ele>1583.0</ele>
  <time>2026-08-28T17:50:30Z</time>
  <course>74.48</course>
  <speed>0.68</speed>
  <fix>3d</fix>
</trkpt>
<trkpt lat="40.0714201" lon="-105.2295819">
  <ele>1583.03</ele>
  <time>2026-08-28T17:50:30Z</time>
  <course>75.46</course>
  <speed>0.6596969000988256</speed>
  <fix>3d</fix>
</trkpt>
<trkpt lat="40.0714199" lon="-105.2295835">
  <ele>1583.0</ele>
  <time>2026-08-28T17:50:30Z</time>
  <course>74.48</course>
  <speed>0.68</speed>
  <fix>3d</fix>
</trkpt>
<trkpt lat="40.0714202" lon="-105.2295811">
  <ele>1583.03</ele>
  <time>2026-08-28T17:50:30Z</time>
  <course>75.46</course>
  <speed>0.6596969000988256</speed>
  <fix>3d</fix>
</trkpt>
<trkpt lat="40.0714202" lon="-105.229582">
  <ele>1583.0</ele>
  <time>2026-08-28T17:50:30Z</time>
  <course>74.48</course>
  <speed>0.68</speed>
  <fix>3d</fix>
</trkpt>
<trkpt lat="40.0714204" lon="-105.2295804">
  <ele>1583.03</ele>
  <time>2026-08-28T17:50:30Z</time>
  <course>75.46</course>
  <speed>0.6596969000988256</speed>
  <fix>3d</fix>
</trkpt>
<trkpt lat="40.0714202" lon="-105.229582">
  <ele>1583.0</ele>
  <time>2026-08-28T17:50:30Z</time>
  <course>74.48</course>
  <speed>0.68</speed>
  <fix>3d</fix>
</trkpt>
<trkpt lat="40.0714206" lon="-105.2295796">
  <ele>1583.03</ele>
  <time>2026-08-28T17:50:30Z</time>
  <course>75.46</course>
  <speed>0.6596969000988256</speed>
  <fix>3d</fix>
</trkpt>
<trkpt lat="40.0714202" lon="-105.229582">
  <ele>1583.0</ele>
  <time>2026-08-28T17:50:30Z</time>
  <course>74.48</course>
  <speed>0.68</speed>
  <fix>3d</fix>
</trkpt>
<trkpt lat="40.0714207" lon="-105.2295788">
  <ele>1583.03</ele>
  <time>2026-08-28T17:50:30Z</time>
  <course>75.46</course>
  <speed>0.6596969000988256</speed>
  <fix>3d</fix>
</trkpt>
<trkpt lat="40.0714205" lon="-105.2295805">
  <ele>1583.0</ele>
  <time>2026-08-28T17:50:30Z</time>
  <course>74.48</course>
  <speed>0.68</speed>
  <fix>3d</fix>
</trkpt>
<trkpt lat="40.0714209" lon="-105.229578">
  <ele>1583.03</ele>
  <time>2026-08-28T17:50:30Z</time>
  <course>75.46</course>
  <speed>0.6573431371817918</speed>
  <fix>3d</fix>
</trkpt>
<trkpt lat="40.0714205" lon="-105.2295805">
  <ele>1583.0</ele>
  <time>2026-08-28T17:50:30Z</time>
  <course>74.48</course>
  <speed>0.68</speed>
  <fix>3d</fix>
</trkpt>
<trkpt lat="40.071421" lon="-105.2295773">
  <ele>1583.03</ele>
  <time>2026-08-28T17:50:30Z</time>
  <course>75.46</course>
  <speed>0.6573431371817918</speed>
  <fix>3d</fix>
</trkpt>
<trkpt lat="40.0714209" lon="-105.2295789">
  <ele>1583.0</ele>
  <time>2026-08-28T17:50:30Z</time>
  <course>74.48</course>
  <speed>0.68</speed>
  <fix>3d</fix>
</trkpt>
<trkpt lat="40.0714212" lon="-105.2295765">
  <ele>1583.04</ele>
  <time>2026-08-28T17:50:30Z</time>
  <course>75.46</course>
  <speed>0.6573431371817918</speed>
  <fix>3d</fix>
</trkpt>
<trkpt lat="40.0714209" lon="-105.2295789">
  <ele>1583.0</ele>
  <time>2026-08-28T17:50:30Z</time>
  <course>74.48</course>
  <speed>0.68</speed>
  <fix>3d</fix>
</trkpt>
<trkpt lat="40.0714214" lon="-105.2295757">
  <ele>1583.04</ele>
  <time>2026-08-28T17:50:30Z</time>
  <course>75.47</course>
  <speed>0.6573431371817918</speed>
  <fix>3d</fix>
</trkpt>
<trkpt lat="40.0714212" lon="-105.2295774">
  <ele>1583.0</ele>
  <time>2026-08-28T17:50:30Z</time>
  <course>74.48</course>
  <speed>0.68</speed>
  <fix>3d</fix>
</trkpt>
<trkpt lat="40.0714215" lon="-105.229575">
  <ele>1583.04</ele>
  <time>2026-08-28T17:50:30Z</time>
  <course>75.47</course>
  <speed>0.6573431371817918</speed>
  <fix>3d</fix>
</trkpt>
<trkpt lat="40.0714212" lon="-105.2295774">
  <ele>1583.0</ele>
  <time>2026-08-28T17:50:30Z</time>
  <course>74.48</course>
  <speed>0.68</speed>
  <fix>3d</fix>
</trkpt>
<trkpt lat="40.0714217" lon="-105.2295742">
  <ele>1583.04</ele>
  <time>2026-08-28T17:50:30Z</time>
  <course>75.47</course>
  <speed>0.6573431371817918</speed>
  <fix>3d</fix>
</trkpt>
<trkpt lat="40.0714215" lon="-105.2295757">
  <ele>1583.0</ele>
  <time>2026-08-28T17:50:30Z</time>
  <course>74.48</course>
  <speed>0.68</speed>
  <fix>3d</fix>
</trkpt>
<trkpt lat="40.0714218" lon="-105.2295734">
  <ele>1583.04</ele>
  <time>2026-08-28T17:50:30Z</time>
  <course>75.47</course>
  <speed>0.6573431371817918</speed>
  <fix>3d</fix>
</trkpt>
<trkpt lat="40.0714219" lon="-105.2295742">
  <ele>1583.0</ele>
  <time>2026-08-28T17:50:30Z</time>
  <course>74.48</course>
  <speed>0.68</speed>
  <fix>3d</fix>
</trkpt>
<trkpt lat="40.071422" lon="-105.2295726">
  <ele>1583.04</ele>
  <time>2026-08-28T17:50:30Z</time>
  <course>75.47</course>
  <speed>0.6573431371817918</speed>
  <fix>3d</fix>
</trkpt>
<trkpt lat="40.0714219" lon="-105.2295742">
  <ele>1583.0</ele>
  <time>2026-08-28T17:50:30Z</time>
  <course>74.48</course>
  <speed>0.68</speed>
  <fix>3d</fix>
</trkpt>
<trkpt lat="40.0714222" lon="-105.2295719">
  <ele>1583.03</ele>
  <time>2026-08-28T17:50:30Z</time>
  <course>75.47</course>
  <speed>0.6573431371817918</speed>
  <fix>3d</fix>
</trkpt>
<trkpt lat="40.0714222" lon="-105.2295727">
  <ele>1583.0</ele>
  <time>2026-08-28T17:50:30Z</time>
  <course>74.48</course>
  <speed>0.68</speed>
  <fix>3d</fix>
</trkpt>
<trkpt lat="40.0714223" lon="-105.2295711">
  <ele>1583.03</ele>
  <time>2026-08-28T17:50:30Z</time>
  <course>75.47</course>
  <speed>0.6573431371817918</speed>
  <fix>3d</fix>
</trkpt>
<trkpt lat="40.0714222" lon="-105.2295727">
  <ele>1583.0</ele>
  <time>2026-08-28T17:50:30Z</time>
  <course>74.48</course>
  <speed>0.68</speed>
  <fix>3d</fix>
</trkpt>
<trkpt lat="40.0714225" lon="-105.2295703">
  <ele>1583.03</ele>
  <time>2026-08-28T17:50:30Z</time>
  <course>75.47</course>
  <speed>0.6573431371817918</speed>
  <fix>3d</fix>
</trkpt>
<trkpt lat="40.0714226" lon="-105.2295711">
  <ele>1583.0</ele>
  <time>2026-08-28T17:50:30Z</time>
  <course>74.48</course>
  <speed>0.68</speed>
  <fix>3d</fix>
</trkpt>
<trkpt lat="40.0714227" lon="-105.2295695">
  <ele>1583.03</ele>
  <time>2026-08-28T17:50:30Z</time>
  <course>75.47</course>
  <speed>0.6596969000988256</speed>
  <fix>3d</fix>
</trkpt>
<trkpt lat="40.0714226" lon="-105.2295711">
  <ele>1583.0</ele>
  <time>2026-08-28T17:50:30Z</time>
  <course>74.48</course>
  <speed>0.68</speed>
  <fix>3d</fix>
</trkpt>
<trkpt lat="40.0714228" lon="-105.2295687">
  <ele>1583.03</ele>
  <time>2026-08-28T17:50:30Z</time>
  <course>75.47</course>
  <speed>0.6573431371817918</speed>
  <fix>3d</fix>
</trkpt>
<trkpt lat="40.0714229" lon="-105.2295695">
  <ele>1583.0</ele>
  <time>2026-08-28T17:50:30Z</time>
  <course>74.48</course>
  <speed>0.68</speed>
  <fix>3d</fix>
</trkpt>
<trkpt lat="40.071423" lon="-105.229568">
  <ele>1583.02</ele>
  <time>2026-08-28T17:50:30Z</time>
  <course>75.47</course>
  <speed>0.6596969000988256</speed>
  <fix>3d</fix>
</trkpt>
<trkpt lat="40.0714229" lon="-105.2295695">
  <ele>1583.0</ele>
  <time>2026-08-28T17:50:30Z</time>
  <course>74.48</course>
  <speed>0.68</speed>
  <fix>3d</fix>
</trkpt>
<trkpt lat="40.0714232" lon="-105.2295672">
  <ele>1583.02</ele>
  <time>2026-08-28T17:50:30Z</time>
  <course>75.47</course>
  <speed>0.6596969000988256</speed>
  <fix>3d</fix>
</trkpt>
<trkpt lat="40.0714232" lon="-105.229568">
  <ele>1583.0</ele>
  <time>2026-08-28T17:50:30Z</time>
  <course>74.48</course>
  <speed>0.68</speed>
  <fix>3d</fix>
</trkpt>
<trkpt lat="40.0714234" lon="-105.2295664">
  <ele>1583.02</ele>
  <time>2026-08-28T17:50:30Z</time>
  <course>75.47</course>
  <speed>0.6596969000988256</speed>
  <fix>3d</fix>
</trkpt>
<trkpt lat="40.0714232" lon="-105.229568">
  <ele>1583.0</ele>
  <time>2026-08-28T17:50:30Z</time>
  <course>74.48</course>
  <speed>0.68</speed>
  <fix>3d</fix>
</trkpt>
<trkpt lat="40.0714235" lon="-105.2295656">
  <ele>1583.02</ele>
  <time>2026-08-28T17:50:30Z</time>
  <course>75.47</course>
  <speed>0.6596969000988256</speed>
  <fix>3d</fix>
</trkpt>
<trkpt lat="40.0714235" lon="-105.2295665">
  <ele>1583.0</ele>
  <time>2026-08-28T17:50:30Z</time>
  <course>74.48</course>
  <speed>0.68</speed>
  <fix>3d</fix>
</trkpt>
<trkpt lat="40.0714237" lon="-105.2295648">
  <ele>1583.01</ele>
  <time>2026-08-28T17:50:30Z</time>
  <course>75.47</course>
  <speed>0.6596969000988256</speed>
  <fix>3d</fix>
</trkpt>
<trkpt lat="40.0714235" lon="-105.2295665">
  <ele>1583.0</ele>
  <time>2026-08-28T17:50:30Z</time>
  <course>74.48</course>
  <speed>0.68</speed>
  <fix>3d</fix>
</trkpt>
<trkpt lat="40.0714238" lon="-105.229564">
  <ele>1583.01</ele>
  <time>2026-08-28T17:50:30Z</time>
  <course>75.47</course>
  <speed>0.6596969000988256</speed>
  <fix>3d</fix>
</trkpt>
<trkpt lat="40.0714239" lon="-105.2295649">
  <ele>1583.0</ele>
  <time>2026-08-28T17:50:30Z</time>
  <course>74.48</course>
  <speed>0.68</speed>
  <fix>3d</fix>
</trkpt>
<trkpt lat="40.071424" lon="-105.2295633">
  <ele>1583.02</ele>
  <time>2026-08-28T17:50:30Z</time>
  <course>75.47</course>
  <speed>0.6596969000988256</speed>
  <fix>3d</fix>
</trkpt>
<trkpt lat="40.0714239" lon="-105.2295649">
  <ele>1583.0</ele>
  <time>2026-08-28T17:50:30Z</time>
  <course>74.48</course>
  <speed>0.68</speed>
  <fix>3d</fix>
</trkpt>
<trkpt lat="40.0714242" lon="-105.2295625">
  <ele>1583.02</ele>
  <time>2026-08-28T17:50:30Z</time>
  <course>75.47</course>
  <speed>0.6596969000988256</speed>
  <fix>3d</fix>
</trkpt>
<trkpt lat="40.0714239" lon="-105.2295649">
  <ele>1583.0</ele>
  <time>2026-08-28T17:50:30Z</time>
  <course>74.48</course>
  <speed>0.68</speed>
  <fix>3d</fix>
</trkpt>
<trkpt lat="40.0714243" lon="-105.2295617">
  <ele>1583.02</ele>
  <time>2026-08-28T17:50:30Z</time>
  <course>75.47</course>
  <speed>0.6596969000988256</speed>
  <fix>3d</fix>
</trkpt>
<trkpt lat="40.0714242" lon="-105.2295633">
  <ele>1583.0</ele>
  <time>2026-08-28T17:50:30Z</time>
  <course>74.48</course>
  <speed>0.68</speed>
  <fix>3d</fix>
</trkpt>
<trkpt lat="40.0714245" lon="-105.2295609">
  <ele>1583.02</ele>
  <time>2026-08-28T17:50:30Z</time>
  <course>75.47</course>
  <speed>0.6596969000988256</speed>
  <fix>3d</fix>
</trkpt>
<trkpt lat="40.0714242" lon="-105.2295633">
  <ele>1583.0</ele>
  <time>2026-08-28T17:50:30Z</time>
  <course>74.48</course>
  <speed>0.68</speed>
  <fix>3d</fix>
</trkpt>
<trkpt lat="40.0714247" lon="-105.2295602">
  <ele>1583.02</ele>
  <time>2026-08-28T17:50:30Z</time>
  <course>75.47</course>
  <speed>0.6596969000988256</speed>
  <fix>3d</fix>
</trkpt>
<trkpt lat="40.0714245" lon="-105.2295618">
  <ele>1583.0</ele>
  <time>2026-08-28T17:50:30Z</time>
  <course>74.48</course>
  <speed>0.68</speed>
  <fix>3d</fix>
</trkpt>
<trkpt lat="40.0714248" lon="-105.2295594">
  <ele>1583.02</ele>
  <time>2026-08-28T17:50:30Z</time>
  <course>75.47</course>
  <speed>0.6596969000988256</speed>
  <fix>3d</fix>
</trkpt>
<trkpt lat="40.0714245" lon="-105.2295618">
  <ele>1583.0</ele>
  <time>2026-08-28T17:50:30Z</time>
  <course>74.48</course>
  <speed>0.68</speed>
  <fix>3d</fix>
</trkpt>
<trkpt lat="40.071425" lon="-105.2295586">
  <ele>1583.02</ele>
  <time>2026-08-28T17:50:30Z</time>
  <course>75.47</course>
  <speed>0.6596969000988256</speed>
  <fix>3d</fix>
</trkpt>
<trkpt lat="40.0714248" lon="-105.2295602">
  <ele>1583.0</ele>
  <time>2026-08-28T17:50:30Z</time>
  <course>74.48</course>
  <speed>0.68</speed>
  <fix>3d</fix>
</trkpt>
<trkpt lat="40.0714252" lon="-105.2295579">
  <ele>1583.02</ele>
  <time>2026-08-28T17:50:30Z</time>
  <course>75.47</course>
  <speed>0.6573431371817918</speed>
  <fix>3d</fix>
</trkpt>
<trkpt lat="40.0714252" lon="-105.2295586">
  <ele>1583.0</ele>
  <time>2026-08-28T17:50:30Z</time>
  <course>74.48</course>
  <speed>0.68</speed>
  <fix>3d</fix>
</trkpt>
<trkpt lat="40.0714253" lon="-105.2295571">
  <ele>1583.02</ele>
  <time>2026-08-28T17:50:30Z</time>
  <course>75.47</course>
  <speed>0.6596969000988256</speed>
  <fix>3d</fix>
</trkpt>
<trkpt lat="40.0714252" lon="-105.2295586">
  <ele>1583.0</ele>
  <time>2026-08-28T17:50:30Z</time>
  <course>74.48</course>
  <speed>0.68</speed>
  <fix>3d</fix>
</trkpt>
<trkpt lat="40.0714255" lon="-105.2295563">
  <ele>1583.02</ele>
  <time>2026-08-28T17:50:30Z</time>
  <course>75.47</course>
  <speed>0.6573431371817918</speed>
  <fix>3d</fix>
</trkpt>
<trkpt lat="40.0714255" lon="-105.2295571">
  <ele>1583.0</ele>
  <time>2026-08-28T17:50:30Z</time>
  <course>74.48</course>
  <speed>0.68</speed>
  <fix>3d</fix>
</trkpt>
<trkpt lat="40.0714256" lon="-105.2295555">
  <ele>1583.01</ele>
  <time>2026-08-28T17:50:30Z</time>
  <course>75.47</course>
  <speed>0.6573431371817918</speed>
  <fix>3d</fix>
</trkpt>
<trkpt lat="40.0714255" lon="-105.2295571">
  <ele>1583.0</ele>
  <time>2026-08-28T17:50:30Z</time>
  <course>74.48</course>
  <speed>0.68</speed>
  <fix>3d</fix>
</trkpt>
<trkpt lat="40.0714258" lon="-105.2295548">
  <ele>1583.01</ele>
  <time>2026-08-28T17:50:30Z</time>
  <course>75.47</course>
  <speed>0.6378871373526824</speed>
  <fix>3d</fix>
</trkpt>
<trkpt lat="40.0714258" lon="-105.2295556">
  <ele>1583.0</ele>
  <time>2026-08-28T17:50:30Z</time>
  <course>74.48</course>
  <speed>0.67</speed>
  <fix>3d</fix>
</trkpt>
<trkpt lat="40.071426" lon="-105.229554">
  <ele>1583.01</ele>
  <time>2026-08-28T17:50:30Z</time>
  <course>75.47</course>
  <speed>0.6161168720299746</speed>
  <fix>3d</fix>
</trkpt>
<trkpt lat="40.0714258" lon="-105.2295556">
  <ele>1583.0</ele>
  <time>2026-08-28T17:50:30Z</time>
  <course>74.48</course>
  <speed>0.67</speed>
  <fix>3d</fix>
</trkpt>
<trkpt lat="40.0714261" lon="-105.2295533">
  <ele>1583.01</ele>
  <time>2026-08-28T17:50:30Z</time>
  <course>75.47</course>
  <speed>0.5869412236331676</speed>
  <fix>3d</fix>
</trkpt>
<trkpt lat="40.0714262" lon="-105.2295541">
  <ele>1583.0</ele>
  <time>2026-08-28T17:50:30Z</time>
  <course>74.48</course>
  <speed>0.64</speed>
  <fix>3d</fix>
</trkpt>
<trkpt lat="40.0714263" lon="-105.2295526">
  <ele>1583.01</ele>
  <time>2026-08-28T17:50:30Z</time>
  <course>75.47</course>
  <speed>0.5457105459856901</speed>
  <fix>3d</fix>
</trkpt>
<trkpt lat="40.0714262" lon="-105.2295541">
  <ele>1583.0</ele>
  <time>2026-08-28T17:50:30Z</time>
  <course>74.48</course>
  <speed>0.64</speed>
  <fix>3d</fix>
</trkpt>
<trkpt lat="40.0714264" lon="-105.229552">
  <ele>1583.0</ele>
  <time>2026-08-28T17:50:30Z</time>
  <course>75.47</course>
  <speed>0.49244289008980524</speed>
  <fix>3d</fix>
</trkpt>
<trkpt lat="40.0714265" lon="-105.2295527">
  <ele>1583.0</ele>
  <time>2026-08-28T17:50:30Z</time>
  <course>74.48</course>
  <speed>0.56</speed>
  <fix>3d</fix>
</trkpt>
<trkpt lat="40.0714265" lon="-105.2295515">
  <ele>1583.0</ele>
  <time>2026-08-28T17:50:30Z</time>
  <course>75.47</course>
  <speed>0.431740662898458</speed>
  <fix>3d</fix>
</trkpt>
<trkpt lat="40.0714265" lon="-105.2295527">
  <ele>1583.0</ele>
  <time>2026-08-28T17:50:30Z</time>
  <course>74.48</course>
  <speed>0.56</speed>
  <fix>3d</fix>
</trkpt>
<trkpt lat="40.0714266" lon="-105.229551">
  <ele>1583.0</ele>
  <time>2026-08-28T17:50:30Z</time>
  <course>75.47</course>
  <speed>0.34928498393145957</speed>
  <fix>3d</fix>
</trkpt>
<trkpt lat="40.0714267" lon="-105.2295515">
  <ele>1583.0</ele>
  <time>2026-08-28T17:50:30Z</time>
  <course>74.48</course>
  <speed>0.44</speed>
  <fix>3d</fix>
</trkpt>
<trkpt lat="40.0714267" lon="-105.2295507">
  <ele>1583.0</ele>
  <time>2026-08-28T17:50:30Z</time>
  <course>75.47</course>
  <speed>0.26476404589747454</speed>
  <fix>3d</fix>
</trkpt>
<trkpt lat="40.0714267" lon="-105.2295515">
  <ele>1583.0</ele>
  <time>2026-08-28T17:50:30Z</time>
  <course>74.48</course>
  <speed>0.44</speed>
  <fix>3d</fix>
</trkpt>
<trkpt lat="40.0714268" lon="-105.2295504">
  <ele>1583.0</ele>
  <time>2026-08-28T17:50:30Z</time>
  <course>75.47</course>
  <speed>0.16278820596099705</speed>
  <fix>3d</fix>
</trkpt>
<trkpt lat="40.0714269" lon="-105.2295507">
  <ele>1583.0</ele>
  <time>2026-08-28T17:50:30Z</time>
  <course>74.48</course>
  <speed>0.28</speed>
  <fix>3d</fix>
</trkpt>
<trkpt lat="40.0714268" lon="-105.2295503">
  <ele>1583.0</ele>
  <time>2026-08-28T17:50:30Z</time>
  <course>75.47</course>
  <speed>0.06082762530298219</speed>
  <fix>3d</fix>
</trkpt>
<trkpt lat="40.0714269" lon="-105.2295507">
  <ele>1583.0</ele>
  <time>2026-08-28T17:50:30Z</time>
  <course>74.48</course>
  <speed>0.28</speed>
  <fix>3d</fix>
</trkpt>
<trkpt lat="40.0714268" lon="-105.2295502">
  <ele>1583.0</ele>
  <time>2026-08-28T17:50:30Z</time>
  <course>75.47</course>
  <speed>0.02</speed>
  <fix>3d</fix>
</trkpt>
<trkpt lat="40.0714269" lon="-105.2295507">
  <ele>1583.0</ele>
  <time>2026-08-28T17:50:30Z</time>
  <course>74.48</course>
  <speed>0.28</speed>
  <fix>3d</fix>
</trkpt>
<trkpt lat="40.0714268" lon="-105.2295502">
  <ele>1583.0</ele>
  <time>2026-08-28T17:50:30Z</time>
  <course>75.48</course>
  <speed>0.02</speed>
  <fix>3d</fix>
</trkpt>
<trkpt lat="40.071427" lon="-105.2295503">
  <ele>1583.0</ele>
  <time>2026-08-28T17:50:30Z</time>
  <course>74.48</course>
  <speed>0.12</speed>
  <fix>3d</fix>
</trkpt>
<trkpt lat="40.0714268" lon="-105.2295502">
  <ele>1583.0</ele>
  <time>2026-08-28T17:50:30Z</time>
  <course>75.48</course>
  <speed>0.01</speed>
  <fix>3d</fix>
</trkpt>
<trkpt lat="40.071427" lon="-105.2295503">
  <ele>1583.0</ele>
  <time>2026-08-28T17:50:30Z</time>
  <course>74.48</course>
  <speed>0.12</speed>
  <fix>3d</fix>
</trkpt>
<trkpt lat="40.0714269" lon="-105.2295501">
  <ele>1583.0</ele>
  <time>2026-08-28T17:50:30Z</time>
  <course>75.48</course>
  <speed>0.01</speed>
  <fix>3d</fix>
</trkpt>
<trkpt lat="40.071427" lon="-105.2295501">
  <ele>1583.0</ele>
  <time>2026-08-28T17:50:30Z</time>
  <course>74.49</course>
  <speed>0.04</speed>
  <fix>3d</fix>
</trkpt>
<trkpt lat="40.0714269" lon="-105.2295501">
  <ele>1583.0</ele>
  <time>2026-08-28T17:50:30Z</time>
  <course>75.48</course>
  <speed>0.01</speed>
  <fix>3d</fix>
</trkpt>
<trkpt lat="40.071427" lon="-105.2295501">
  <ele>1583.0</ele>
  <time>2026-08-28T17:50:30Z</time>
  <course>74.49</course>
  <speed>0.04</speed>
  <fix>3d</fix>
</trkpt>
<trkpt lat="40.0714269" lon="-105.2295501">
  <ele>1583.0</ele>
  <time>2026-08-28T17:50:30Z</time>
  <course>75.48</course>
  <speed>0.01</speed>
  <fix>3d</fix>
</trkpt>
<trkpt lat="40.0714271" lon="-105.22955">
  <ele>1583.0</ele>
  <time>2026-08-28T17:50:30Z</time>
  <course>74.49</course>
  <speed>0.04</speed>
  <fix>3d</fix>
</trkpt>
<trkpt lat="40.0714269" lon="-105.22955">
  <ele>1582.99</ele>
  <time>2026-08-28T17:50:30Z</time>
  <course>75.48</course>
  <speed>0.0</speed>
  <fix>3d</fix>
</trkpt>
<trkpt lat="40.0714271" lon="-105.22955">
  <ele>1583.0</ele>
  <time>2026-08-28T17:50:30Z</time>
  <course>74.49</course>
  <speed>0.04</speed>
  <fix>3d</fix>
</trkpt>
<trkpt lat="40.0714269" lon="-105.22955">
  <ele>1583.0</ele>
  <time>2026-08-28T17:50:30Z</time>
  <course>75.48</course>
  <speed>0.0</speed>
  <fix>3d</fix>
</trkpt>
<trkpt lat="40.0714271" lon="-105.2295499">
  <ele>1583.0</ele>
  <time>2026-08-28T17:50:30Z</time>
  <course>74.49</course>
  <speed>0.03</speed>
  <fix>3d</fix>
</trkpt>
<trkpt lat="40.0714269" lon="-105.22955">
  <ele>1583.0</ele>
  <time>2026-08-28T17:50:30Z</time>
  <course>75.48</course>
  <speed>0.0</speed>
  <fix>3d</fix>
</trkpt>
<trkpt lat="40.0714271" lon="-105.2295498">
  <ele>1583.0</ele>
  <time>2026-08-28T17:50:30Z</time>
  <course>74.49</course>
  <speed>0.03</speed>
  <fix>3d</fix>
</trkpt>
<trkpt lat="40.0714269" lon="-105.22955">
  <ele>1583.0</ele>
  <time>2026-08-28T17:50:30Z</time>
  <course>75.48</course>
  <speed>0.0</speed>
  <fix>3d</fix>
</trkpt>
<trkpt lat="40.0714271" lon="-105.2295498">
  <ele>1583.0</ele>
  <time>2026-08-28T17:50:30Z</time>
  <course>74.49</course>
  <speed>0.03</speed>
  <fix>3d</fix>
</trkpt>
<trkpt lat="40.0714269" lon="-105.2295499">
  <ele>1583.01</ele>
  <time>2026-08-28T17:50:30Z</time>
  <course>75.48</course>
  <speed>0.01</speed>
  <fix>3d</fix>
</trkpt>
<trkpt lat="40.0714271" lon="-105.2295497">
  <ele>1583.0</ele>
  <time>2026-08-28T17:50:30Z</time>
  <course>74.49</course>
  <speed>0.03</speed>
  <fix>3d</fix>
</trkpt>
<trkpt lat="40.0714269" lon="-105.2295499">
  <ele>1583.01</ele>
  <time>2026-08-28T17:50:30Z</time>
  <course>75.48</course>
  <speed>0.01</speed>
  <fix>3d</fix>
</trkpt>
<trkpt lat="40.0714271" lon="-105.2295497">
  <ele>1583.0</ele>
  <time>2026-08-28T17:50:30Z</time>
  <course>74.49</course>
  <speed>0.03</speed>
  <fix>3d</fix>
</trkpt>
<trkpt lat="40.0714269" lon="-105.2295499">
  <ele>1583.01</ele>
  <time>2026-08-28T17:50:30Z</time>
  <course>75.48</course>
  <speed>0.01</speed>
  <fix>3d</fix>
</trkpt>
<trkpt lat="40.0714271" lon="-105.2295496">
  <ele>1583.0</ele>
  <time>2026-08-28T17:50:30Z</time>
  <course>74.49</course>
  <speed>0.02</speed>
  <fix>3d</fix>
</trkpt>
<trkpt lat="40.0714269" lon="-105.2295498">
  <ele>1583.02</ele>
  <time>2026-08-28T17:50:30Z</time>
  <course>75.48</course>
  <speed>0.01</speed>
  <fix>3d</fix>
</trkpt>
<trkpt lat="40.0714271" lon="-105.2295496">
  <ele>1583.0</ele>
  <time>2026-08-28T17:50:30Z</time>
  <course>74.49</course>
  <speed>0.02</speed>
  <fix>3d</fix>
</trkpt>
<trkpt lat="40.0714269" lon="-105.2295498">
  <ele>1583.02</ele>
  <time>2026-08-28T17:50:30Z</time>
  <course>75.48</course>
  <speed>0.01</speed>
  <fix>3d</fix>
</trkpt>
<trkpt lat="40.0714271" lon="-105.2295496">
  <ele>1583.0</ele>
  <time>2026-08-28T17:50:30Z</time>
  <course>74.5</course>
  <speed>0.02</speed>
  <fix>3d</fix>
</trkpt>
<trkpt lat="40.0714269" lon="-105.2295498">
  <ele>1583.02</ele>
  <time>2026-08-28T17:50:30Z</time>
  <course>75.48</course>
  <speed>0.01</speed>
  <fix>3d</fix>
</trkpt>
<trkpt lat="40.0714271" lon="-105.2295496">
  <ele>1583.0</ele>
  <time>2026-08-28T17:50:30Z</time>
  <course>74.5</course>
  <speed>0.02</speed>
  <fix>3d</fix>
</trkpt>
<trkpt lat="40.0714269" lon="-105.2295498">
  <ele>1583.02</ele>
  <time>2026-08-28T17:50:30Z</time>
  <course>75.49</course>
  <speed>0.01</speed>
  <fix>3d</fix>
</trkpt>
<trkpt lat="40.0714271" lon="-105.2295496">
  <ele>1583.0</ele>
  <time>2026-08-28T17:50:30Z</time>
  <course>74.5</course>
  <speed>0.02</speed>
  <fix>3d</fix>
</trkpt>
<trkpt lat="40.071427" lon="-105.2295497">
  <ele>1583.03</ele>
  <time>2026-08-28T17:50:30Z</time>
  <course>75.49</course>
  <speed>0.01</speed>
  <fix>3d</fix>
</trkpt>
<trkpt lat="40.0714271" lon="-105.2295496">
  <ele>1583.0</ele>
  <time>2026-08-28T17:50:30Z</time>
  <course>74.5</course>
  <speed>0.02</speed>
  <fix>3d</fix>
</trkpt>
<trkpt lat="40.071427" lon="-105.2295497">
  <ele>1583.04</ele>
  <time>2026-08-28T17:50:30Z</time>
  <course>75.49</course>
  <speed>0.01</speed>
  <fix>3d</fix>
</trkpt>
<trkpt lat="40.0714271" lon="-105.2295495">
  <ele>1583.0</ele>
  <time>2026-08-28T17:50:30Z</time>
  <course>74.5</course>
  <speed>0.02</speed>
  <fix>3d</fix>
</trkpt>
<trkpt lat="40.071427" lon="-105.2295497">
  <ele>1583.04</ele>
  <time>2026-08-28T17:50:30Z</time>
  <course>75.49</course>
  <speed>0.01</speed>
  <fix>3d</fix>
</trkpt>
<trkpt lat="40.0714271" lon="-105.2295495">
  <ele>1583.0</ele>
  <time>2026-08-28T17:50:30Z</time>
  <course>74.5</course>
  <speed>0.02</speed>
  <fix>3d</fix>
</trkpt>
<trkpt lat="40.071427" lon="-105.2295497">
  <ele>1583.04</ele>
  <time>2026-08-28T17:50:30Z</time>
  <course>75.49</course>
  <speed>0.01</speed>
  <fix>3d</fix>
</trkpt>
<trkpt lat="40.0714271" lon="-105.2295495">
  <ele>1583.0</ele>
  <time>2026-08-28T17:50:30Z</time>
  <course>74.5</course>
  <speed>0.02</speed>
  <fix>3d</fix>
</trkpt>
<trkpt lat="40.071427" lon="-105.2295497">
  <ele>1583.04</ele>
  <time>2026-08-28T17:50:30Z</time>
  <course>75.49</course>
  <speed>0.01</speed>
  <fix>3d</fix>
</trkpt>
<trkpt lat="40.0714271" lon="-105.2295494">
  <ele>1583.0</ele>
  <time>2026-08-28T17:50:30Z</time>
  <course>74.5</course>
  <speed>0.01</speed>
  <fix>3d</fix>
</trkpt>
<trkpt lat="40.071427" lon="-105.2295496">
  <ele>1583.04</ele>
  <time>2026-08-28T17:50:30Z</time>
  <course>75.49</course>
  <speed>0.02</speed>
  <fix>3d</fix>
</trkpt>
<trkpt lat="40.0714271" lon="-105.2295494">
  <ele>1583.0</ele>
  <time>2026-08-28T17:50:30Z</time>
  <course>74.5</course>
  <speed>0.01</speed>
  <fix>3d</fix>
</trkpt>
<trkpt lat="40.071427" lon="-105.2295496">
  <ele>1583.05</ele>
  <time>2026-08-28T17:50:30Z</time>
  <course>75.49</course>
  <speed>0.02</speed>
  <fix>3d</fix>
</trkpt>
<trkpt lat="40.0714271" lon="-105.2295494">
  <ele>1583.0</ele>
  <time>2026-08-28T17:50:30Z</time>
  <course>74.5</course>
  <speed>0.01</speed>
  <fix>3d</fix>
</trkpt>
<trkpt lat="40.071427" lon="-105.2295496">
  <ele>1583.05</ele>
  <time>2026-08-28T17:50:30Z</time>
  <course>75.49</course>
  <speed>0.02</speed>
  <fix>3d</fix>
</trkpt>
<trkpt lat="40.0714271" lon="-105.2295494">
  <ele>1583.0</ele>
  <time>2026-08-28T17:50:30Z</time>
  <course>74.5</course>
  <speed>0.01</speed>
  <fix>3d</fix>
</trkpt>
<trkpt lat="40.071427" lon="-105.2295496">
  <ele>1583.05</ele>
  <time>2026-08-28T17:50:30Z</time>
  <course>75.49</course>
  <speed>0.02</speed>
  <fix>3d</fix>
</trkpt>
<trkpt lat="40.0714271" lon="-105.2295494">
  <ele>1583.0</ele>
  <time>2026-08-28T17:50:30Z</time>
  <course>74.51</course>
  <speed>0.01</speed>
  <fix>3d</fix>
</trkpt>
<trkpt lat="40.071427" lon="-105.2295496">
  <ele>1583.05</ele>
  <time>2026-08-28T17:50:30Z</time>
  <course>75.49</course>
  <speed>0.02</speed>
  <fix>3d</fix>
</trkpt>
<trkpt lat="40.0714271" lon="-105.2295494">
  <ele>1583.0</ele>
  <time>2026-08-28T17:50:30Z</time>
  <course>74.51</course>
  <speed>0.01</speed>
  <fix>3d</fix>
</trkpt>
<trkpt lat="40.071427" lon="-105.2295495">
  <ele>1583.05</ele>
  <time>2026-08-28T17:50:30Z</time>
  <course>75.49</course>
  <speed>0.02</speed>
  <fix>3d</fix>
</trkpt>
<trkpt lat="40.0714271" lon="-105.2295493">
  <ele>1583.0</ele>
  <time>2026-08-28T17:50:30Z</time>
  <course>74.51</course>
  <speed>0.01</speed>
  <fix>3d</fix>
</trkpt>
<trkpt lat="40.071427" lon="-105.2295495">
  <ele>1583.04</ele>
  <time>2026-08-28T17:50:30Z</time>
  <course>75.49</course>
  <speed>0.02</speed>
  <fix>3d</fix>
</trkpt>
<trkpt lat="40.0714271" lon="-105.2295493">
  <ele>1583.0</ele>
  <time>2026-08-28T17:50:30Z</time>
  <course>74.51</course>
  <speed>0.01</speed>
  <fix>3d</fix>
</trkpt>
<trkpt lat="40.071427" lon="-105.2295495">
  <ele>1583.04</ele>
  <time>2026-08-28T17:50:30Z</time>
  <course>75.49</course>
  <speed>0.02</speed>
  <fix>3d</fix>
</trkpt>
<trkpt lat="40.0714271" lon="-105.2295493">
  <ele>1583.0</ele>
  <time>2026-08-28T17:50:30Z</time>
  <course>74.51</course>
  <speed>0.01</speed>
  <fix>3d</fix>
</trkpt>
<trkpt lat="40.071427" lon="-105.2295495">
  <ele>1583.03</ele>
  <time>2026-08-28T17:50:30Z</time>
  <course>75.49</course>
  <speed>0.02</speed>
  <fix>3d</fix>
</trkpt>
<trkpt lat="40.0714271" lon="-105.2295493">
  <ele>1583.0</ele>
  <time>2026-08-28T17:50:30Z</time>
  <course>74.51</course>
  <speed>0.01</speed>
  <fix>3d</fix>
</trkpt>
<trkpt lat="40.071427" lon="-105.2295495">
  <ele>1583.03</ele>
  <time>2026-08-28T17:50:30Z</time>
  <course>75.49</course>
  <speed>0.02</speed>
  <fix>3d</fix>
</trkpt>
<trkpt lat="40.0714271" lon="-105.2295493">
  <ele>1583.0</ele>
  <time>2026-08-28T17:50:30Z</time>
  <course>74.51</course>
  <speed>0.01</speed>
  <fix>3d</fix>
</trkpt>
<trkpt lat="40.071427" lon="-105.2295495">
  <ele>1583.03</ele>
  <time>2026-08-28T17:50:30Z</time>
  <course>75.49</course>
  <speed>0.02</speed>
  <fix>3d</fix>
</trkpt>
<trkpt lat="40.0714271" lon="-105.2295493">
  <ele>1583.0</ele>
  <time>2026-08-28T17:50:30Z</time>
  <course>74.52</course>
  <speed>0.01</speed>
  <fix>3d</fix>
</trkpt>
<trkpt lat="40.071427" lon="-105.2295495">
  <ele>1583.03</ele>
  <time>2026-08-28T17:50:30Z</time>
  <course>75.49</course>
  <speed>0.02</speed>
  <fix>3d</fix>
</trkpt>
<trkpt lat="40.0714271" lon="-105.2295493">
  <ele>1583.0</ele>
  <time>2026-08-28T17:50:30Z</time>
  <course>74.52</course>
  <speed>0.01</speed>
  <fix>3d</fix>
</trkpt>
<trkpt lat="39.655741" lon="-104.1383097">
  <ele>1566.58</ele>
  <time>2026-08-28T17:50:31Z</time>
  <course>0.0</course>
  <speed>0.0</speed>
  <fix>3d</fix>
</trkpt>
<trkpt lat="39.655741" lon="-104.1383097">
  <ele>1566.58</ele>
  <time>2026-08-28T17:50:31Z</time>
  <course>0.0</course>
  <speed>0.0</speed>
  <fix>3d</fix>
</trkpt>
<trkpt lat="40.0713749" lon="-105.229789">
  <ele>1583.0</ele>
  <time>2026-08-28T17:50:31Z</time>
  <course>238.36</course>
  <speed>0.0</speed>
  <fix>3d</fix>
</trkpt>
<trkpt lat="40.0713749" lon="-105.229789">
  <ele>1583.0</ele>
  <time>2026-08-28T17:50:31Z</time>
  <course>0.0</course>
  <speed>0.0</speed>
  <fix>3d</fix>
</trkpt>
<trkpt lat="40.0713749" lon="-105.229789">
  <ele>1583.0</ele>
  <time>2026-08-28T17:50:31Z</time>
  <course>238.38</course>
  <speed>0.0</speed>
  <fix>3d</fix>
</trkpt>
<trkpt lat="40.0713749" lon="-105.229789">
  <ele>1583.0</ele>
  <time>2026-08-28T17:50:31Z</time>
  <course>0.0</course>
  <speed>0.0</speed>
  <fix>3d</fix>
</trkpt>
<trkpt lat="40.0713749" lon="-105.229789">
  <ele>1583.0</ele>
  <time>2026-08-28T17:50:31Z</time>
  <course>238.51</course>
  <speed>0.0</speed>
  <fix>3d</fix>
</trkpt>
<trkpt lat="40.0713749" lon="-105.229789">
  <ele>1583.0</ele>
  <time>2026-08-28T17:50:31Z</time>
  <course>0.0</course>
  <speed>0.0</speed>
  <fix>3d</fix>
</trkpt>
<trkpt lat="40.0713749" lon="-105.229789">
  <ele>1583.0</ele>
  <time>2026-08-28T17:50:31Z</time>
  <course>238.75</course>
  <speed>0.0</speed>
  <fix>3d</fix>
</trkpt>
<trkpt lat="40.0713749" lon="-105.229789">
  <ele>1583.0</ele>
  <time>2026-08-28T17:50:31Z</time>
  <course>0.0</course>
  <speed>0.0</speed>
  <fix>3d</fix>
</trkpt>
<trkpt lat="40.0713749" lon="-105.229789">
  <ele>1583.0</ele>
  <time>2026-08-28T17:50:31Z</time>
  <course>239.06</course>
  <speed>0.0</speed>
  <fix>3d</fix>
</trkpt>
<trkpt lat="40.0713749" lon="-105.229789">
  <ele>1583.0</ele>
  <time>2026-08-28T17:50:31Z</time>
  <course>0.0</course>
  <speed>0.0</speed>
  <fix>3d</fix>
</trkpt>
<trkpt lat="40.0713749" lon="-105.229789">
  <ele>1583.0</ele>
  <time>2026-08-28T17:50:31Z</time>
  <course>239.4</course>
  <speed>0.0</speed>
  <fix>3d</fix>
</trkpt>
<trkpt lat="40.0713749" lon="-105.229789">
  <ele>1583.0</ele>
  <time>2026-08-28T17:50:31Z</time>
  <course>0.0</course>
  <speed>0.0</speed>
  <fix>3d</fix>
</trkpt>
<trkpt lat="40.0713749" lon="-105.229789">
  <ele>1583.0</ele>
  <time>2026-08-28T17:50:31Z</time>
  <course>239.75</course>
  <speed>0.0</speed>
  <fix>3d</fix>
</trkpt>
<trkpt lat="40.0713749" lon="-105.229789">
  <ele>1583.0</ele>
  <time>2026-08-28T17:50:31Z</time>
  <course>0.0</course>
  <speed>0.0</speed>
  <fix>3d</fix>
</trkpt>
<trkpt lat="40.0713749" lon="-105.229789">
  <ele>1583.0</ele>
  <time>2026-08-28T17:50:31Z</time>
  <course>240.09</course>
  <speed>0.0</speed>
  <fix>3d</fix>
</trkpt>
<trkpt lat="40.0713749" lon="-105.229789">
  <ele>1583.0</ele>
  <time>2026-08-28T17:50:31Z</time>
  <course>0.0</course>
  <speed>0.0</speed>
  <fix>3d</fix>
</trkpt>
<trkpt lat="40.0713749" lon="-105.229789">
  <ele>1583.0</ele>
  <time>2026-08-28T17:50:31Z</time>
  <course>240.42</course>
  <speed>0.0</speed>
  <fix>3d</fix>
</trkpt>
<trkpt lat="40.0713749" lon="-105.229789">
  <ele>1583.0</ele>
  <time>2026-08-28T17:50:31Z</time>
  <course>0.0</course>
  <speed>0.0</speed>
  <fix>3d</fix>
</trkpt>
<trkpt lat="40.0713749" lon="-105.229789">
  <ele>1583.0</ele>
  <time>2026-08-28T17:50:31Z</time>
  <course>240.67</course>
  <speed>0.0</speed>
  <fix>3d</fix>
</trkpt>
<trkpt lat="40.0713749" lon="-105.229789">
  <ele>1583.0</ele>
  <time>2026-08-28T17:50:31Z</time>
  <course>0.0</course>
  <speed>0.0</speed>
  <fix>3d</fix>
</trkpt>
<trkpt lat="40.0713749" lon="-105.229789">
  <ele>1583.0</ele>
  <time>2026-08-28T17:50:31Z</time>
  <course>240.97</course>
  <speed>0.0</speed>
  <fix>3d</fix>
</trkpt>
<trkpt lat="40.0713749" lon="-105.229789">
  <ele>1583.0</ele>
  <time>2026-08-28T17:50:31Z</time>
  <course>0.0</course>
  <speed>0.0</speed>
  <fix>3d</fix>
</trkpt>
<trkpt lat="40.0713749" lon="-105.229789">
  <ele>1583.0</ele>
  <time>2026-08-28T17:50:31Z</time>
  <course>241.26</course>
  <speed>0.0</speed>
  <fix>3d</fix>
</trkpt>
<trkpt lat="40.0713749" lon="-105.229789">
  <ele>1583.0</ele>
  <time>2026-08-28T17:50:31Z</time>
  <course>0.0</course>
  <speed>0.0</speed>
  <fix>3d</fix>
</trkpt>
<trkpt lat="40.0713749" lon="-105.229789">
  <ele>1583.0</ele>
  <time>2026-08-28T17:50:31Z</time>
  <course>241.54</course>
  <speed>0.0</speed>
  <fix>3d</fix>
</trkpt>
<trkpt lat="40.0713749" lon="-105.229789">
  <ele>1583.0</ele>
  <time>2026-08-28T17:50:31Z</time>
  <course>0.0</course>
  <speed>0.0</speed>
  <fix>3d</fix>
</trkpt>
<trkpt lat="40.0713749" lon="-105.229789">
  <ele>1583.0</ele>
  <time>2026-08-28T17:50:31Z</time>
  <course>241.81</course>
  <speed>0.0</speed>
  <fix>3d</fix>
</trkpt>
<trkpt lat="40.0713749" lon="-105.229789">
  <ele>1583.0</ele>
  <time>2026-08-28T17:50:31Z</time>
  <course>0.0</course>
  <speed>0.0</speed>
  <fix>3d</fix>
</trkpt>
<trkpt lat="40.0713749" lon="-105.229789">
  <ele>1583.0</ele>
  <time>2026-08-28T17:50:31Z</time>
  <course>242.08</course>
  <speed>0.0</speed>
  <fix>3d</fix>
</trkpt>
<trkpt lat="40.0713749" lon="-105.229789">
  <ele>1583.0</ele>
  <time>2026-08-28T17:50:31Z</time>
  <course>0.0</course>
  <speed>0.0</speed>
  <fix>3d</fix>
</trkpt>
<trkpt lat="40.0713749" lon="-105.229789">
  <ele>1583.0</ele>
  <time>2026-08-28T17:50:31Z</time>
  <course>242.34</course>
  <speed>0.0</speed>
  <fix>3d</fix>
</trkpt>
<trkpt lat="40.0713749" lon="-105.229789">
  <ele>1583.0</ele>
  <time>2026-08-28T17:50:31Z</time>
  <course>0.0</course>
  <speed>0.0</speed>
  <fix>3d</fix>
</trkpt>
<trkpt lat="40.0713749" lon="-105.229789">
  <ele>1583.0</ele>
  <time>2026-08-28T17:50:31Z</time>
  <course>242.59</course>
  <speed>0.0</speed>
  <fix>3d</fix>
</trkpt>
<trkpt lat="40.0713749" lon="-105.229789">
  <ele>1583.0</ele>
  <time>2026-08-28T17:50:31Z</time>
  <course>0.0</course>
  <speed>0.0</speed>
  <fix>3d</fix>
</trkpt>
<trkpt lat="40.0713749" lon="-105.229789">
  <ele>1583.0</ele>
  <time>2026-08-28T17:50:31Z</time>
  <course>242.83</course>
  <speed>0.0</speed>
  <fix>3d</fix>
</trkpt>
<trkpt lat="40.0713749" lon="-105.229789">
  <ele>1583.0</ele>
  <time>2026-08-28T17:50:31Z</time>
  <course>0.0</course>
  <speed>0.0</speed>
  <fix>3d</fix>
</trkpt>
<trkpt lat="40.0713749" lon="-105.229789">
  <ele>1583.0</ele>
  <time>2026-08-28T17:50:31Z</time>
  <course>243.06</course>
  <speed>0.0</speed>
  <fix>3d</fix>
</trkpt>
<trkpt lat="40.0713749" lon="-105.229789">
  <ele>1583.0</ele>
  <time>2026-08-28T17:50:31Z</time>
  <course>0.0</course>
  <speed>0.0</speed>
  <fix>3d</fix>
</trkpt>
<trkpt lat="40.0713749" lon="-105.229789">
  <ele>1583.0</ele>
  <time>2026-08-28T17:50:31Z</time>
  <course>243.34</course>
  <speed>0.0</speed>
  <fix>3d</fix>
</trkpt>
<trkpt lat="40.0713749" lon="-105.229789">
  <ele>1583.0</ele>
  <time>2026-08-28T17:50:31Z</time>
  <course>0.0</course>
  <speed>0.0</speed>
  <fix>3d</fix>
</trkpt>
<trkpt lat="40.0713749" lon="-105.229789">
  <ele>1583.0</ele>
  <time>2026-08-28T17:50:31Z</time>
  <course>243.56</course>
  <speed>0.0</speed>
  <fix>3d</fix>
</trkpt>
<trkpt lat="40.0713749" lon="-105.229789">
  <ele>1583.0</ele>
  <time>2026-08-28T17:50:31Z</time>
  <course>0.0</course>
  <speed>0.0</speed>
  <fix>3d</fix>
</trkpt>
<trkpt lat="40.0713749" lon="-105.229789">
  <ele>1583.0</ele>
  <time>2026-08-28T17:50:31Z</time>
  <course>243.77</course>
  <speed>0.0</speed>
  <fix>3d</fix>
</trkpt>
<trkpt lat="40.0713749" lon="-105.229789">
  <ele>1583.0</ele>
  <time>2026-08-28T17:50:31Z</time>
  <course>0.0</course>
  <speed>0.0</speed>
  <fix>3d</fix>
</trkpt>
<trkpt lat="40.0713749" lon="-105.229789">
  <ele>1583.0</ele>
  <time>2026-08-28T17:50:31Z</time>
  <course>243.97</course>
  <speed>0.0</speed>
  <fix>3d</fix>
</trkpt>
<trkpt lat="40.0713749" lon="-105.229789">
  <ele>1583.0</ele>
  <time>2026-08-28T17:50:31Z</time>
  <course>0.0</course>
  <speed>0.0</speed>
  <fix>3d</fix>
</trkpt>
<trkpt lat="40.0713749" lon="-105.229789">
  <ele>1583.0</ele>
  <time>2026-08-28T17:50:31Z</time>
  <course>244.16</course>
  <speed>0.0</speed>
  <fix>3d</fix>
</trkpt>
<trkpt lat="40.0713749" lon="-105.229789">
  <ele>1583.0</ele>
  <time>2026-08-28T17:50:31Z</time>
  <course>0.0</course>
  <speed>0.0</speed>
  <fix>3d</fix>
</trkpt>
<trkpt lat="40.0713749" lon="-105.229789">
  <ele>1583.0</ele>
  <time>2026-08-28T17:50:31Z</time>
  <course>244.35</course>
  <speed>0.0</speed>
  <fix>3d</fix>
</trkpt>
<trkpt lat="40.0713749" lon="-105.229789">
  <ele>1583.0</ele>
  <time>2026-08-28T17:50:31Z</time>
  <course>0.0</course>
  <speed>0.0</speed>
  <fix>3d</fix>
</trkpt>
<trkpt lat="40.0713749" lon="-105.229789">
  <ele>1583.0</ele>
  <time>2026-08-28T17:50:31Z</time>
  <course>244.53</course>
  <speed>0.0</speed>
  <fix>3d</fix>
</trkpt>
<trkpt lat="40.0713749" lon="-105.229789">
  <ele>1583.0</ele>
  <time>2026-08-28T17:50:31Z</time>
  <course>0.0</course>
  <speed>0.0</speed>
  <fix>3d</fix>
</trkpt>
<trkpt lat="40.0713749" lon="-105.229789">
  <ele>1583.0</ele>
  <time>2026-08-28T17:50:31Z</time>
  <course>244.71</course>
  <speed>0.0</speed>
  <fix>3d</fix>
</trkpt>
<trkpt lat="40.0713749" lon="-105.229789">
  <ele>1583.0</ele>
  <time>2026-08-28T17:50:31Z</time>
  <course>0.0</course>
  <speed>0.0</speed>
  <fix>3d</fix>
</trkpt>
<trkpt lat="40.0713749" lon="-105.229789">
  <ele>1583.0</ele>
  <time>2026-08-28T17:50:31Z</time>
  <course>244.88</course>
  <speed>0.0</speed>
  <fix>3d</fix>
</trkpt>
<trkpt lat="40.0713749" lon="-105.229789">
  <ele>1583.0</ele>
  <time>2026-08-28T17:50:31Z</time>
  <course>0.0</course>
  <speed>0.0</speed>
  <fix>3d</fix>
</trkpt>
<trkpt lat="40.0713749" lon="-105.229789">
  <ele>1583.0</ele>
  <time>2026-08-28T17:50:31Z</time>
  <course>245.04</course>
  <speed>0.0</speed>
  <fix>3d</fix>
</trkpt>
<trkpt lat="40.0713749" lon="-105.229789">
  <ele>1583.0</ele>
  <time>2026-08-28T17:50:31Z</time>
  <course>0.0</course>
  <speed>0.0</speed>
  <fix>3d</fix>
</trkpt>
<trkpt lat="40.0713749" lon="-105.229789">
  <ele>1583.0</ele>
  <time>2026-08-28T17:50:31Z</time>
  <course>245.2</course>
  <speed>0.0</speed>
  <fix>3d</fix>
</trkpt>
<trkpt lat="40.0713749" lon="-105.229789">
  <ele>1583.0</ele>
  <time>2026-08-28T17:50:31Z</time>
  <course>0.0</course>
  <speed>0.0</speed>
  <fix>3d</fix>
</trkpt>
<trkpt lat="40.0713749" lon="-105.229789">
  <ele>1583.0</ele>
  <time>2026-08-28T17:50:31Z</time>
  <course>245.31</course>
  <speed>0.0</speed>
  <fix>3d</fix>
</trkpt>
<trkpt lat="40.0713749" lon="-105.229789">
  <ele>1583.0</ele>
  <time>2026-08-28T17:50:31Z</time>
  <course>0.0</course>
  <speed>0.0</speed>
  <fix>3d</fix>
</trkpt>
<trkpt lat="40.0713749" lon="-105.229789">
  <ele>1583.0</ele>
  <time>2026-08-28T17:50:31Z</time>
  <course>245.46</course>
  <speed>0.0</speed>
  <fix>3d</fix>
</trkpt>
<trkpt lat="40.0713749" lon="-105.229789">
  <ele>1583.0</ele>
  <time>2026-08-28T17:50:31Z</time>
  <course>0.0</course>
  <speed>0.0</speed>
  <fix>3d</fix>
</trkpt>
<trkpt lat="40.0713749" lon="-105.229789">
  <ele>1583.0</ele>
  <time>2026-08-28T17:50:31Z</time>
  <course>245.6</course>
  <speed>0.0</speed>
  <fix>3d</fix>
</trkpt>
<trkpt lat="40.0713749" lon="-105.229789">
  <ele>1583.0</ele>
  <time>2026-08-28T17:50:31Z</time>
  <course>0.0</course>
  <speed>0.0</speed>
  <fix>3d</fix>
</trkpt>
<trkpt lat="40.0713749" lon="-105.229789">
  <ele>1583.0</ele>
  <time>2026-08-28T17:50:31Z</time>
  <course>245.73</course>
  <speed>0.0</speed>
  <fix>3d</fix>
</trkpt>
<trkpt lat="40.0713749" lon="-105.229789">
  <ele>1583.0</ele>
  <time>2026-08-28T17:50:31Z</time>
  <course>0.0</course>
  <speed>0.0</speed>
  <fix>3d</fix>
</trkpt>
<trkpt lat="40.0713749" lon="-105.229789">
  <ele>1583.0</ele>
  <time>2026-08-28T17:50:31Z</time>
  <course>245.86</course>
  <speed>0.0</speed>
  <fix>3d</fix>
</trkpt>
<trkpt lat="40.0713749" lon="-105.229789">
  <ele>1583.0</ele>
  <time>2026-08-28T17:50:31Z</time>
  <course>0.0</course>
  <speed>0.0</speed>
  <fix>3d</fix>
</trkpt>
<trkpt lat="40.0713749" lon="-105.229789">
  <ele>1583.0</ele>
  <time>2026-08-28T17:50:31Z</time>
  <course>245.98</course>
  <speed>0.0</speed>
  <fix>3d</fix>
</trkpt>
<trkpt lat="40.0713749" lon="-105.229789">
  <ele>1583.0</ele>
  <time>2026-08-28T17:50:31Z</time>
  <course>0.0</course>
  <speed>0.0</speed>
  <fix>3d</fix>
</trkpt>
<trkpt lat="40.0713749" lon="-105.229789">
  <ele>1583.0</ele>
  <time>2026-08-28T17:50:31Z</time>
  <course>246.1</course>
  <speed>0.0</speed>
  <fix>3d</fix>
</trkpt>
<trkpt lat="40.0713749" lon="-105.229789">
  <ele>1583.0</ele>
  <time>2026-08-28T17:50:31Z</time>
  <course>0.0</course>
  <speed>0.0</speed>
  <fix>3d</fix>
</trkpt>
<trkpt lat="40.0713749" lon="-105.229789">
  <ele>1583.0</ele>
  <time>2026-08-28T17:50:31Z</time>
  <course>246.22</course>
  <speed>0.0</speed>
  <fix>3d</fix>
</trkpt>
<trkpt lat="40.0713749" lon="-105.229789">
  <ele>1583.0</ele>
  <time>2026-08-28T17:50:31Z</time>
  <course>0.0</course>
  <speed>0.0</speed>
  <fix>3d</fix>
</trkpt>
<trkpt lat="40.0713749" lon="-105.229789">
  <ele>1583.0</ele>
  <time>2026-08-28T17:50:31Z</time>
  <course>246.32</course>
  <speed>0.0</speed>
  <fix>3d</fix>
</trkpt>
<trkpt lat="40.0713749" lon="-105.229789">
  <ele>1583.0</ele>
  <time>2026-08-28T17:50:31Z</time>
  <course>0.0</course>
  <speed>0.0</speed>
  <fix>3d</fix>
</trkpt>
<trkpt lat="40.0713749" lon="-105.229789">
  <ele>1583.0</ele>
  <time>2026-08-28T17:50:31Z</time>
  <course>246.45</course>
  <speed>0.0</speed>
  <fix>3d</fix>
</trkpt>
<trkpt lat="40.0713749" lon="-105.229789">
  <ele>1583.0</ele>
  <time>2026-08-28T17:50:31Z</time>
  <course>0.0</course>
  <speed>0.0</speed>
  <fix>3d</fix>
</trkpt>
<trkpt lat="40.0713749" lon="-105.229789">
  <ele>1583.0</ele>
  <time>2026-08-28T17:50:31Z</time>
  <course>246.55</course>
  <speed>0.0</speed>
  <fix>3d</fix>
</trkpt>
<trkpt lat="40.0713749" lon="-105.229789">
  <ele>1583.0</ele>
  <time>2026-08-28T17:50:31Z</time>
  <course>0.0</course>
  <speed>0.0</speed>
  <fix>3d</fix>
</trkpt>
<trkpt lat="40.0713749" lon="-105.229789">
  <ele>1583.0</ele>
  <time>2026-08-28T17:50:31Z</time>
  <course>246.64</course>
  <speed>0.0</speed>
  <fix>3d</fix>
</trkpt>
<trkpt lat="40.0713749" lon="-105.229789">
  <ele>1583.0</ele>
  <time>2026-08-28T17:50:31Z</time>
  <course>0.0</course>
  <speed>0.0</speed>
  <fix>3d</fix>
</trkpt>
<trkpt lat="40.0713749" lon="-105.229789">
  <ele>1583.0</ele>
  <time>2026-08-28T17:50:31Z</time>
  <course>246.73</course>
  <speed>0.0</speed>
  <fix>3d</fix>
</trkpt>
<trkpt lat="40.0713749" lon="-105.229789">
  <ele>1583.0</ele>
  <time>2026-08-28T17:50:31Z</time>
  <course>0.0</course>
  <speed>0.0</speed>
  <fix>3d</fix>
</trkpt>
<trkpt lat="40.0713749" lon="-105.229789">
  <ele>1583.0</ele>
  <time>2026-08-28T17:50:31Z</time>
  <course>246.82</course>
  <speed>0.0</speed>
  <fix>3d</fix>
</trkpt>
<trkpt lat="40.0713749" lon="-105.229789">
  <ele>1583.0</ele>
  <time>2026-08-28T17:50:31Z</time>
  <course>0.0</course>
  <speed>0.0</speed>
  <fix>3d</fix>
</trkpt>
<trkpt lat="40.0713749" lon="-105.229789">
  <ele>1583.0</ele>
  <time>2026-08-28T17:50:31Z</time>
  <course>246.9</course>
  <speed>0.0</speed>
  <fix>3d</fix>
</trkpt>
<trkpt lat="40.0713749" lon="-105.229789">
  <ele>1583.0</ele>
  <time>2026-08-28T17:50:31Z</time>
  <course>0.0</course>
  <speed>0.0</speed>
  <fix>3d</fix>
</trkpt>
<trkpt lat="40.0713749" lon="-105.229789">
  <ele>1583.0</ele>
  <time>2026-08-28T17:50:31Z</time>
  <course>246.98</course>
  <speed>0.0</speed>
  <fix>3d</fix>
</trkpt>
<trkpt lat="40.0713749" lon="-105.229789">
  <ele>1583.0</ele>
  <time>2026-08-28T17:50:31Z</time>
  <course>0.0</course>
  <speed>0.0</speed>
  <fix>3d</fix>
</trkpt>
<trkpt lat="40.0713749" lon="-105.229789">
  <ele>1583.0</ele>
  <time>2026-08-28T17:50:31Z</time>
  <course>247.05</course>
  <speed>0.0</speed>
  <fix>3d</fix>
</trkpt>
<trkpt lat="40.0713749" lon="-105.229789">
  <ele>1583.0</ele>
  <time>2026-08-28T17:50:31Z</time>
  <course>0.0</course>
  <speed>0.0</speed>
  <fix>3d</fix>
</trkpt>
<trkpt lat="40.0713749" lon="-105.229789">
  <ele>1583.0</ele>
  <time>2026-08-28T17:50:31Z</time>
  <course>247.13</course>
  <speed>0.0</speed>
  <fix>3d</fix>
</trkpt>
<trkpt lat="40.0713749" lon="-105.229789">
  <ele>1583.0</ele>
  <time>2026-08-28T17:50:31Z</time>
  <course>0.0</course>
  <speed>0.0</speed>
  <fix>3d</fix>
</trkpt>
<trkpt lat="40.0713749" lon="-105.229789">
  <ele>1583.0</ele>
  <time>2026-08-28T17:50:31Z</time>
  <course>247.2</course>
  <speed>0.0</speed>
  <fix>3d</fix>
</trkpt>
<trkpt lat="40.0713749" lon="-105.229789">
  <ele>1583.0</ele>
  <time>2026-08-28T17:50:31Z</time>
  <course>0.0</course>
  <speed>0.0</speed>
  <fix>3d</fix>
</trkpt>
<trkpt lat="40.0713749" lon="-105.229789">
  <ele>1583.0</ele>
  <time>2026-08-28T17:50:31Z</time>
  <course>247.26</course>
  <speed>0.0</speed>
  <fix>3d</fix>
</trkpt>
<trkpt lat="40.0713749" lon="-105.229789">
  <ele>1583.0</ele>
  <time>2026-08-28T17:50:31Z</time>
  <course>0.0</course>
  <speed>0.0</speed>
  <fix>3d</fix>
</trkpt>
<trkpt lat="40.0713749" lon="-105.229789">
  <ele>1583.0</ele>
  <time>2026-08-28T17:50:31Z</time>
  <course>247.31</course>
  <speed>0.0</speed>
  <fix>3d</fix>
</trkpt>
<trkpt lat="40.0713749" lon="-105.229789">
  <ele>1583.0</ele>
  <time>2026-08-28T17:50:31Z</time>
  <course>0.0</course>
  <speed>0.0</speed>
  <fix>3d</fix>
</trkpt>
<trkpt lat="40.0713749" lon="-105.229789">
  <ele>1583.0</ele>
  <time>2026-08-28T17:50:31Z</time>
  <course>247.37</course>
  <speed>0.0</speed>
  <fix>3d</fix>
</trkpt>
<trkpt lat="40.0713749" lon="-105.229789">
  <ele>1583.0</ele>
  <time>2026-08-28T17:50:31Z</time>
  <course>0.0</course>
  <speed>0.0</speed>
  <fix>3d</fix>
</trkpt>
<trkpt lat="40.0713749" lon="-105.229789">
  <ele>1583.0</ele>
  <time>2026-08-28T17:50:31Z</time>
  <course>247.43</course>
  <speed>0.0</speed>
  <fix>3d</fix>
</trkpt>
<trkpt lat="40.0713749" lon="-105.229789">
  <ele>1583.0</ele>
  <time>2026-08-28T17:50:31Z</time>
  <course>0.0</course>
  <speed>0.0</speed>
  <fix>3d</fix>
</trkpt>
<trkpt lat="40.0713749" lon="-105.229789">
  <ele>1583.0</ele>
  <time>2026-08-28T17:50:31Z</time>
  <course>247.49</course>
  <speed>0.0</speed>
  <fix>3d</fix>
</trkpt>
<trkpt lat="40.0713749" lon="-105.229789">
  <ele>1583.0</ele>
  <time>2026-08-28T17:50:31Z</time>
  <course>0.0</course>
  <speed>0.0</speed>
  <fix>3d</fix>
</trkpt>
<trkpt lat="40.0713749" lon="-105.229789">
  <ele>1583.0</ele>
  <time>2026-08-28T17:50:31Z</time>
  <course>247.54</course>
  <speed>0.0</speed>
  <fix>3d</fix>
</trkpt>
<trkpt lat="40.0713749" lon="-105.229789">
  <ele>1583.0</ele>
  <time>2026-08-28T17:50:31Z</time>
  <course>0.0</course>
  <speed>0.0</speed>
  <fix>3d</fix>
</trkpt>
<trkpt lat="40.0713749" lon="-105.229789">
  <ele>1583.0</ele>
  <time>2026-08-28T17:50:31Z</time>
  <course>247.59</course>
  <speed>0.0</speed>
  <fix>3d</fix>
</trkpt>
<trkpt lat="40.0713749" lon="-105.229789">
  <ele>1583.0</ele>
  <time>2026-08-28T17:50:31Z</time>
  <course>0.0</course>
  <speed>0.0</speed>
  <fix>3d</fix>
</trkpt>
<trkpt lat="40.0713749" lon="-105.229789">
  <ele>1583.0</ele>
  <time>2026-08-28T17:50:31Z</time>
  <course>247.64</course>
  <speed>0.0</speed>
  <fix>3d</fix>
</trkpt>
<trkpt lat="40.0713749" lon="-105.229789">
  <ele>1583.0</ele>
  <time>2026-08-28T17:50:31Z</time>
  <course>0.0</course>
  <speed>0.0</speed>
  <fix>3d</fix>
</trkpt>
<trkpt lat="40.0713749" lon="-105.229789">
  <ele>1583.0</ele>
  <time>2026-08-28T17:50:31Z</time>
  <course>247.68</course>
  <speed>0.0</speed>
  <fix>3d</fix>
</trkpt>
<trkpt lat="40.0713749" lon="-105.229789">
  <ele>1583.0</ele>
  <time>2026-08-28T17:50:31Z</time>
  <course>0.0</course>
  <speed>0.0</speed>
  <fix>3d</fix>
</trkpt>
<trkpt lat="40.0713749" lon="-105.229789">
  <ele>1583.0</ele>
  <time>2026-08-28T17:50:31Z</time>
  <course>247.73</course>
  <speed>0.0</speed>
  <fix>3d</fix>
</trkpt>
<trkpt lat="40.0713749" lon="-105.229789">
  <ele>1583.0</ele>
  <time>2026-08-28T17:50:31Z</time>
  <course>0.0</course>
  <speed>0.0</speed>
  <fix>3d</fix>
</trkpt>
<trkpt lat="40.0713749" lon="-105.229789">
  <ele>1583.0</ele>
  <time>2026-08-28T17:50:31Z</time>
  <course>247.77</course>
  <speed>0.0</speed>
  <fix>3d</fix>
</trkpt>
<trkpt lat="40.0713749" lon="-105.229789">
  <ele>1583.0</ele>
  <time>2026-08-28T17:50:31Z</time>
  <course>0.0</course>
  <speed>0.0</speed>
  <fix>3d</fix>
</trkpt>
<trkpt lat="40.0713749" lon="-105.229789">
  <ele>1583.0</ele>
  <time>2026-08-28T17:50:31Z</time>
  <course>247.81</course>
  <speed>0.0</speed>
  <fix>3d</fix>
</trkpt>
<trkpt lat="40.0713749" lon="-105.229789">
  <ele>1583.0</ele>
  <time>2026-08-28T17:50:31Z</time>
  <course>0.0</course>
  <speed>0.0</speed>
  <fix>3d</fix>
</trkpt>
<trkpt lat="40.0713749" lon="-105.229789">
  <ele>1583.0</ele>
  <time>2026-08-28T17:50:31Z</time>
  <course>247.85</course>
  <speed>0.0</speed>
  <fix>3d</fix>
</trkpt>
<trkpt lat="40.0713749" lon="-105.229789">
  <ele>1583.0</ele>
  <time>2026-08-28T17:50:31Z</time>
  <course>0.0</course>
  <speed>0.0</speed>
  <fix>3d</fix>
</trkpt>
<trkpt lat="40.0713749" lon="-105.229789">
  <ele>1583.0</ele>
  <time>2026-08-28T17:50:31Z</time>
  <course>247.88</course>
  <speed>0.0</speed>
  <fix>3d</fix>
</trkpt>
<trkpt lat="40.0713749" lon="-105.229789">
  <ele>1583.0</ele>
  <time>2026-08-28T17:50:31Z</time>
  <course>0.0</course>
  <speed>0.0</speed>
  <fix>3d</fix>
</trkpt>
<trkpt lat="40.0713749" lon="-105.229789">
  <ele>1583.0</ele>
  <time>2026-08-28T17:50:31Z</time>
  <course>247.92</course>
  <speed>0.0</speed>
  <fix>3d</fix>
</trkpt>
<trkpt lat="40.0713749" lon="-105.229789">
  <ele>1583.0</ele>
  <time>2026-08-28T17:50:31Z</time>
  <course>0.0</course>
  <speed>0.0</speed>
  <fix>3d</fix>
</trkpt>
<trkpt lat="40.0713749" lon="-105.229789">
  <ele>1583.0</ele>
  <time>2026-08-28T17:50:31Z</time>
  <course>247.95</course>
  <speed>0.0</speed>
  <fix>3d</fix>
</trkpt>
<trkpt lat="40.0713749" lon="-105.229789">
  <ele>1583.0</ele>
  <time>2026-08-28T17:50:31Z</time>
  <course>0.0</course>
  <speed>0.0</speed>
  <fix>3d</fix>
</trkpt>
<trkpt lat="40.0713749" lon="-105.229789">
  <ele>1583.0</ele>
  <time>2026-08-28T17:50:31Z</time>
  <course>247.98</course>
  <speed>0.0</speed>
  <fix>3d</fix>
</trkpt>
<trkpt lat="40.0713749" lon="-105.229789">
  <ele>1583.0</ele>
  <time>2026-08-28T17:50:31Z</time>
  <course>0.0</course>
  <speed>0.0</speed>
  <fix>3d</fix>
</trkpt>
<trkpt lat="40.0713749" lon="-105.229789">
  <ele>1583.0</ele>
  <time>2026-08-28T17:50:31Z</time>
  <course>248.01</course>
  <speed>0.0</speed>
  <fix>3d</fix>
</trkpt>
<trkpt lat="40.0713749" lon="-105.229789">
  <ele>1583.0</ele>
  <time>2026-08-28T17:50:31Z</time>
  <course>0.0</course>
  <speed>0.0</speed>
  <fix>3d</fix>
</trkpt>
<trkpt lat="40.0713749" lon="-105.229789">
  <ele>1583.0</ele>
  <time>2026-08-28T17:50:31Z</time>
  <course>248.04</course>
  <speed>0.0</speed>
  <fix>3d</fix>
</trkpt>
<trkpt lat="40.0713749" lon="-105.229789">
  <ele>1583.0</ele>
  <time>2026-08-28T17:50:31Z</time>
  <course>0.0</course>
  <speed>0.0</speed>
  <fix>3d</fix>
</trkpt>
<trkpt lat="40.0713749" lon="-105.229789">
  <ele>1583.0</ele>
  <time>2026-08-28T17:50:31Z</time>
  <course>248.06</course>
  <speed>0.0</speed>
  <fix>3d</fix>
</trkpt>
<trkpt lat="40.0713749" lon="-105.229789">
  <ele>1583.0</ele>
  <time>2026-08-28T17:50:31Z</time>
  <course>0.0</course>
  <speed>0.0</speed>
  <fix>3d</fix>
</trkpt>
<trkpt lat="40.0713749" lon="-105.229789">
  <ele>1583.0</ele>
  <time>2026-08-28T17:50:31Z</time>
  <course>248.09</course>
  <speed>0.0</speed>
  <fix>3d</fix>
</trkpt>
<trkpt lat="40.0713749" lon="-105.229789">
  <ele>1583.0</ele>
  <time>2026-08-28T17:50:31Z</time>
  <course>0.0</course>
  <speed>0.0</speed>
  <fix>3d</fix>
</trkpt>
<trkpt lat="40.0713749" lon="-105.229789">
  <ele>1583.0</ele>
  <time>2026-08-28T17:50:31Z</time>
  <course>248.11</course>
  <speed>0.0</speed>
  <fix>3d</fix>
</trkpt>
<trkpt lat="40.0713749" lon="-105.229789">
  <ele>1583.0</ele>
  <time>2026-08-28T17:50:31Z</time>
  <course>0.0</course>
  <speed>0.0</speed>
  <fix>3d</fix>
</trkpt>
<trkpt lat="40.0713749" lon="-105.229789">
  <ele>1583.0</ele>
  <time>2026-08-28T17:50:31Z</time>
  <course>248.13</course>
  <speed>0.0</speed>
  <fix>3d</fix>
</trkpt>
<trkpt lat="40.0713749" lon="-105.229789">
  <ele>1583.0</ele>
  <time>2026-08-28T17:50:31Z</time>
  <course>0.0</course>
  <speed>0.0</speed>
  <fix>3d</fix>
</trkpt>
<trkpt lat="40.0713749" lon="-105.229789">
  <ele>1583.0</ele>
  <time>2026-08-28T17:50:31Z</time>
  <course>248.15</course>
  <speed>0.0</speed>
  <fix>3d</fix>
</trkpt>
<trkpt lat="40.0713749" lon="-105.229789">
  <ele>1583.0</ele>
  <time>2026-08-28T17:50:31Z</time>
  <course>0.0</course>
  <speed>0.0</speed>
  <fix>3d</fix>
</trkpt>
<trkpt lat="40.0713749" lon="-105.229789">
  <ele>1583.0</ele>
  <time>2026-08-28T17:50:31Z</time>
  <course>248.17</course>
  <speed>0.0</speed>
  <fix>3d</fix>
</trkpt>
<trkpt lat="40.0713749" lon="-105.229789">
  <ele>1583.0</ele>
  <time>2026-08-28T17:50:31Z</time>
  <course>0.0</course>
  <speed>0.0</speed>
  <fix>3d</fix>
</trkpt>
<trkpt lat="40.0713749" lon="-105.229789">
  <ele>1583.0</ele>
  <time>2026-08-28T17:50:31Z</time>
  <course>248.19</course>
  <speed>0.0</speed>
  <fix>3d</fix>
</trkpt>
<trkpt lat="40.0713749" lon="-105.229789">
  <ele>1583.0</ele>
  <time>2026-08-28T17:50:31Z</time>
  <course>0.0</course>
  <speed>0.0</speed>
  <fix>3d</fix>
</trkpt>
<trkpt lat="40.0713749" lon="-105.229789">
  <ele>1583.0</ele>
  <time>2026-08-28T17:50:31Z</time>
  <course>248.2</course>
  <speed>0.0</speed>
  <fix>3d</fix>
</trkpt>
<trkpt lat="40.0713749" lon="-105.229789">
  <ele>1583.0</ele>
  <time>2026-08-28T17:50:31Z</time>
  <course>0.0</course>
  <speed>0.0</speed>
  <fix>3d</fix>
</trkpt>
<trkpt lat="40.0713749" lon="-105.229789">
  <ele>1583.0</ele>
  <time>2026-08-28T17:50:31Z</time>
  <course>248.22</course>
  <speed>0.0</speed>
  <fix>3d</fix>
</trkpt>
<trkpt lat="40.0713749" lon="-105.229789">
  <ele>1583.0</ele>
  <time>2026-08-28T17:50:31Z</time>
  <course>0.0</course>
  <speed>0.0</speed>
  <fix>3d</fix>
</trkpt>
<trkpt lat="40.0713749" lon="-105.229789">
  <ele>1583.0</ele>
  <time>2026-08-28T17:50:31Z</time>
  <course>248.24</course>
  <speed>0.0</speed>
  <fix>3d</fix>
</trkpt>
<trkpt lat="40.0713749" lon="-105.229789">
  <ele>1583.0</ele>
  <time>2026-08-28T17:50:31Z</time>
  <course>0.0</course>
  <speed>0.0</speed>
  <fix>3d</fix>
</trkpt>
<trkpt lat="40.0713749" lon="-105.229789">
  <ele>1583.0</ele>
  <time>2026-08-28T17:50:31Z</time>
  <course>248.25</course>
  <speed>0.0</speed>
  <fix>3d</fix>
</trkpt>
<trkpt lat="40.0713749" lon="-105.229789">
  <ele>1583.0</ele>
  <time>2026-08-28T17:50:31Z</time>
  <course>0.0</course>
  <speed>0.0</speed>
  <fix>3d</fix>
</trkpt>
<trkpt lat="40.0713749" lon="-105.229789">
  <ele>1583.0</ele>
  <time>2026-08-28T17:50:31Z</time>
  <course>248.27</course>
  <speed>0.0</speed>
  <fix>3d</fix>
</trkpt>
<trkpt lat="40.0713749" lon="-105.229789">
  <ele>1583.0</ele>
  <time>2026-08-28T17:50:31Z</time>
  <course>0.0</course>
  <speed>0.0</speed>
  <fix>3d</fix>
</trkpt>
<trkpt lat="40.0713749" lon="-105.229789">
  <ele>1583.0</ele>
  <time>2026-08-28T17:50:31Z</time>
  <course>248.28</course>
  <speed>0.0</speed>
  <fix>3d</fix>
</trkpt>
<trkpt lat="40.0713749" lon="-105.229789">
  <ele>1583.0</ele>
  <time>2026-08-28T17:50:31Z</time>
  <course>0.0</course>
  <speed>0.0</speed>
  <fix>3d</fix>
</trkpt>
<trkpt lat="40.0713749" lon="-105.229789">
  <ele>1583.0</ele>
  <time>2026-08-28T17:50:31Z</time>
  <course>248.29</course>
  <speed>0.0</speed>
  <fix>3d</fix>
</trkpt>
<trkpt lat="40.0713749" lon="-105.229789">
  <ele>1583.0</ele>
  <time>2026-08-28T17:50:31Z</time>
  <course>0.0</course>
  <speed>0.0</speed>
  <fix>3d</fix>
</trkpt>
<trkpt lat="40.0713749" lon="-105.229789">
  <ele>1583.0</ele>
  <time>2026-08-28T17:50:31Z</time>
  <course>248.3</course>
  <speed>0.0</speed>
  <fix>3d</fix>
</trkpt>
<trkpt lat="40.0713749" lon="-105.229789">
  <ele>1583.0</ele>
  <time>2026-08-28T17:50:31Z</time>
  <course>0.0</course>
  <speed>0.0</speed>
  <fix>3d</fix>
</trkpt>
<trkpt lat="40.0713749" lon="-105.229789">
  <ele>1583.0</ele>
  <time>2026-08-28T17:50:31Z</time>
  <course>248.31</course>
  <speed>0.0</speed>
  <fix>3d</fix>
</trkpt>
<trkpt lat="40.0713749" lon="-105.229789">
  <ele>1583.0</ele>
  <time>2026-08-28T17:50:31Z</time>
  <course>0.0</course>
  <speed>0.0</speed>
  <fix>3d</fix>
</trkpt>
<trkpt lat="40.0713749" lon="-105.229789">
  <ele>1583.0</ele>
  <time>2026-08-28T17:50:31Z</time>
  <course>248.32</course>
  <speed>0.0</speed>
  <fix>3d</fix>
</trkpt>
<trkpt lat="40.0713749" lon="-105.229789">
  <ele>1583.0</ele>
  <time>2026-08-28T17:50:31Z</time>
  <course>0.0</course>
  <speed>0.0</speed>
  <fix>3d</fix>
</trkpt>
<trkpt lat="40.0713749" lon="-105.229789">
  <ele>1583.0</ele>
  <time>2026-08-28T17:50:31Z</time>
  <course>248.33</course>
  <speed>0.0</speed>
  <fix>3d</fix>
</trkpt>
<trkpt lat="40.0713749" lon="-105.229789">
  <ele>1583.0</ele>
  <time>2026-08-28T17:50:31Z</time>
  <course>0.0</course>
  <speed>0.0</speed>
  <fix>3d</fix>
</trkpt>
<trkpt lat="40.0713749" lon="-105.229789">
  <ele>1583.0</ele>
  <time>2026-08-28T17:50:31Z</time>
  <course>248.34</course>
  <speed>0.0</speed>
  <fix>3d</fix>
</trkpt>
<trkpt lat="40.0713749" lon="-105.229789">
  <ele>1583.0</ele>
  <time>2026-08-28T17:50:31Z</time>
  <course>0.0</course>
  <speed>0.0</speed>
  <fix>3d</fix>
</trkpt>
<trkpt lat="40.0713749" lon="-105.229789">
  <ele>1583.0</ele>
  <time>2026-08-28T17:50:31Z</time>
  <course>248.35</course>
  <speed>0.0</speed>
  <fix>3d</fix>
</trkpt>
<trkpt lat="40.0713749" lon="-105.229789">
  <ele>1583.0</ele>
  <time>2026-08-28T17:50:31Z</time>
  <course>0.0</course>
  <speed>0.0</speed>
  <fix>3d</fix>
</trkpt>
<trkpt lat="40.0713749" lon="-105.229789">
  <ele>1583.0</ele>
  <time>2026-08-28T17:50:31Z</time>
  <course>248.36</course>
  <speed>0.0</speed>
  <fix>3d</fix>
</trkpt>
<trkpt lat="40.0713749" lon="-105.229789">
  <ele>1583.0</ele>
  <time>2026-08-28T17:50:31Z</time>
  <course>0.0</course>
  <speed>0.0</speed>
  <fix>3d</fix>
</trkpt>
<trkpt lat="40.0713749" lon="-105.229789">
  <ele>1583.0</ele>
  <time>2026-08-28T17:50:31Z</time>
  <course>248.36</course>
  <speed>0.0</speed>
  <fix>3d</fix>
</trkpt>
<trkpt lat="40.0713749" lon="-105.229789">
  <ele>1583.0</ele>
  <time>2026-08-28T17:50:31Z</time>
  <course>0.0</course>
  <speed>0.0</speed>
  <fix>3d</fix>
</trkpt>
<trkpt lat="40.0713749" lon="-105.229789">
  <ele>1583.0</ele>
  <time>2026-08-28T17:50:31Z</time>
  <course>248.37</course>
  <speed>0.0</speed>
  <fix>3d</fix>
</trkpt>
<trkpt lat="40.0713749" lon="-105.229789">
  <ele>1583.0</ele>
  <time>2026-08-28T17:50:31Z</time>
  <course>0.0</course>
  <speed>0.0</speed>
  <fix>3d</fix>
</trkpt>
<trkpt lat="40.0713749" lon="-105.229789">
  <ele>1583.0</ele>
  <time>2026-08-28T17:50:31Z</time>
  <course>248.38</course>
  <speed>0.0</speed>
  <fix>3d</fix>
</trkpt>
<trkpt lat="40.0713749" lon="-105.229789">
  <ele>1583.0</ele>
  <time>2026-08-28T17:50:31Z</time>
  <course>0.0</course>
  <speed>0.0</speed>
  <fix>3d</fix>
</trkpt>
<trkpt lat="40.0713749" lon="-105.229789">
  <ele>1583.0</ele>
  <time>2026-08-28T17:50:31Z</time>
  <course>248.38</course>
  <speed>0.0</speed>
  <fix>3d</fix>
</trkpt>
<trkpt lat="40.0713749" lon="-105.229789">
  <ele>1583.0</ele>
  <time>2026-08-28T17:50:31Z</time>
  <course>0.0</course>
  <speed>0.0</speed>
  <fix>3d</fix>
</trkpt>
<trkpt lat="40.0713749" lon="-105.229789">
  <ele>1583.0</ele>
  <time>2026-08-28T17:50:31Z</time>
  <course>248.39</course>
  <speed>0.0</speed>
  <fix>3d</fix>
</trkpt>
<trkpt lat="40.0713749" lon="-105.229789">
  <ele>1583.0</ele>
  <time>2026-08-28T17:50:31Z</time>
  <course>0.0</course>
  <speed>0.0</speed>
  <fix>3d</fix>
</trkpt>
<trkpt lat="40.0713749" lon="-105.229789">
  <ele>1583.0</ele>
  <time>2026-08-28T17:50:31Z</time>
  <course>248.39</course>
  <speed>0.0</speed>
  <fix>3d</fix>
</trkpt>
<trkpt lat="40.0713749" lon="-105.229789">
  <ele>1583.0</ele>
  <time>2026-08-28T17:50:31Z</time>
  <course>0.0</course>
  <speed>0.0</speed>
  <fix>3d</fix>
</trkpt>
<trkpt lat="40.0713749" lon="-105.229789">
  <ele>1583.0</ele>
  <time>2026-08-28T17:50:31Z</time>
  <course>248.39</course>
  <speed>0.0</speed>
  <fix>3d</fix>
</trkpt>
<trkpt lat="40.0713749" lon="-105.229789">
  <ele>1583.0</ele>
  <time>2026-08-28T17:50:31Z</time>
  <course>0.0</course>
  <speed>0.0</speed>
  <fix>3d</fix>
</trkpt>
<trkpt lat="40.0713749" lon="-105.229789">
  <ele>1583.0</ele>
  <time>2026-08-28T17:50:31Z</time>
  <course>248.4</course>
  <speed>0.0</speed>
  <fix>3d</fix>
</trkpt>
<trkpt lat="40.0713749" lon="-105.229789">
  <ele>1583.0</ele>
  <time>2026-08-28T17:50:31Z</time>
  <course>0.0</course>
  <speed>0.0</speed>
  <fix>3d</fix>
</trkpt>
<trkpt lat="40.0713749" lon="-105.229789">
  <ele>1583.0</ele>
  <time>2026-08-28T17:50:31Z</time>
  <course>248.4</course>
  <speed>0.0</speed>
  <fix>3d</fix>
</trkpt>
<trkpt lat="40.0713749" lon="-105.229789">
  <ele>1583.0</ele>
  <time>2026-08-28T17:50:31Z</time>
  <course>0.0</course>
  <speed>0.0</speed>
  <fix>3d</fix>
</trkpt>
<trkpt lat="40.0713749" lon="-105.229789">
  <ele>1583.0</ele>
  <time>2026-08-28T17:50:31Z</time>
  <course>248.4</course>
  <speed>0.0</speed>
  <fix>3d</fix>
</trkpt>
<trkpt lat="40.0713749" lon="-105.229789">
  <ele>1583.0</ele>
  <time>2026-08-28T17:50:31Z</time>
  <course>0.0</course>
  <speed>0.0</speed>
  <fix>3d</fix>
</trkpt>
<trkpt lat="40.0713749" lon="-105.229789">
  <ele>1583.0</ele>
  <time>2026-08-28T17:50:31Z</time>
  <course>248.41</course>
  <speed>0.0</speed>
  <fix>3d</fix>
</trkpt>
<trkpt lat="40.0713749" lon="-105.229789">
  <ele>1583.0</ele>
  <time>2026-08-28T17:50:31Z</time>
  <course>0.0</course>
  <speed>0.0</speed>
  <fix>3d</fix>
</trkpt>
<trkpt lat="40.0713749" lon="-105.229789">
  <ele>1583.0</ele>
  <time>2026-08-28T17:50:31Z</time>
  <course>248.41</course>
  <speed>0.0</speed>
  <fix>3d</fix>
</trkpt>
<trkpt lat="40.0713749" lon="-105.229789">
  <ele>1583.0</ele>
  <time>2026-08-28T17:50:31Z</time>
  <course>0.0</course>
  <speed>0.0</speed>
  <fix>3d</fix>
</trkpt>
<trkpt lat="40.0713749" lon="-105.229789">
  <ele>1583.0</ele>
  <time>2026-08-28T17:50:31Z</time>
  <course>248.41</course>
  <speed>0.0</speed>
  <fix>3d</fix>
</trkpt>
<trkpt lat="40.0713749" lon="-105.229789">
  <ele>1583.0</ele>
  <time>2026-08-28T17:50:31Z</time>
  <course>0.0</course>
  <speed>0.0</speed>
  <fix>3d</fix>
</trkpt>
<trkpt lat="40.0713749" lon="-105.229789">
  <ele>1583.0</ele>
  <time>2026-08-28T17:50:31Z</time>
  <course>248.41</course>
  <speed>0.0</speed>
  <fix>3d</fix>
</trkpt>
<trkpt lat="40.0713749" lon="-105.229789">
  <ele>1583.0</ele>
  <time>2026-08-28T17:50:31Z</time>
  <course>0.0</course>
  <speed>0.0</speed>
  <fix>3d</fix>
</trkpt>
<trkpt lat="40.0713749" lon="-105.229789">
  <ele>1583.0</ele>
  <time>2026-08-28T17:50:31Z</time>
  <course>248.41</course>
  <speed>0.0</speed>
  <fix>3d</fix>
</trkpt>
<trkpt lat="40.0713749" lon="-105.229789">
  <ele>1583.0</ele>
  <time>2026-08-28T17:50:31Z</time>
  <course>0.0</course>
  <speed>0.0</speed>
  <fix>3d</fix>
</trkpt>
<trkpt lat="40.0713749" lon="-105.229789">
  <ele>1583.0</ele>
  <time>2026-08-28T17:50:31Z</time>
  <course>248.41</course>
  <speed>0.0</speed>
  <fix>3d</fix>
</trkpt>
<trkpt lat="40.0713749" lon="-105.229789">
  <ele>1583.0</ele>
  <time>2026-08-28T17:50:31Z</time>
  <course>0.0</course>
  <speed>0.0</speed>
  <fix>3d</fix>
</trkpt>
<trkpt lat="40.0713749" lon="-105.229789">
  <ele>1583.0</ele>
  <time>2026-08-28T17:50:31Z</time>
  <course>248.41</course>
  <speed>0.0</speed>
  <fix>3d</fix>
</trkpt>
<trkpt lat="40.0713749" lon="-105.229789">
  <ele>1583.0</ele>
  <time>2026-08-28T17:50:31Z</time>
  <course>0.0</course>
  <speed>0.0</speed>
  <fix>3d</fix>
</trkpt>
<trkpt lat="40.0713749" lon="-105.229789">
  <ele>1583.0</ele>
  <time>2026-08-28T17:50:31Z</time>
  <course>248.41</course>
  <speed>0.0</speed>
  <fix>3d</fix>
</trkpt>
<trkpt lat="40.0713749" lon="-105.229789">
  <ele>1583.0</ele>
  <time>2026-08-28T17:50:31Z</time>
  <course>0.0</course>
  <speed>0.0</speed>
  <fix>3d</fix>
</trkpt>
<trkpt lat="40.0713749" lon="-105.229789">
  <ele>1583.0</ele>
  <time>2026-08-28T17:50:31Z</time>
  <course>248.41</course>
  <speed>0.0</speed>
  <fix>3d</fix>
</trkpt>
<trkpt lat="40.0713749" lon="-105.229789">
  <ele>1583.0</ele>
  <time>2026-08-28T17:50:31Z</time>
  <course>0.0</course>
  <speed>0.0</speed>
  <fix>3d</fix>
</trkpt>
<trkpt lat="40.0713749" lon="-105.229789">
  <ele>1583.0</ele>
  <time>2026-08-28T17:50:31Z</time>
  <course>248.41</course>
  <speed>0.0</speed>
  <fix>3d</fix>
</trkpt>
<trkpt lat="40.0713749" lon="-105.229789">
  <ele>1583.0</ele>
  <time>2026-08-28T17:50:31Z</time>
  <course>0.0</course>
  <speed>0.0</speed>
  <fix>3d</fix>
</trkpt>
<trkpt lat="40.0713749" lon="-105.229789">
  <ele>1583.0</ele>
  <time>2026-08-28T17:50:31Z</time>
  <course>248.41</course>
  <speed>0.0</speed>
  <fix>3d</fix>
</trkpt>
<trkpt lat="40.0713749" lon="-105.229789">
  <ele>1583.0</ele>
  <time>2026-08-28T17:50:31Z</time>
  <course>0.0</course>
  <speed>0.0</speed>
  <fix>3d</fix>
</trkpt>
<trkpt lat="40.0713749" lon="-105.229789">
  <ele>1583.0</ele>
  <time>2026-08-28T17:50:31Z</time>
  <course>248.41</course>
  <speed>0.0</speed>
  <fix>3d</fix>
</trkpt>
<trkpt lat="40.0713749" lon="-105.229789">
  <ele>1583.0</ele>
  <time>2026-08-28T17:50:31Z</time>
  <course>0.0</course>
  <speed>0.0</speed>
  <fix>3d</fix>
</trkpt>
<trkpt lat="40.0713749" lon="-105.229789">
  <ele>1583.0</ele>
  <time>2026-08-28T17:50:31Z</time>
  <course>248.41</course>
  <speed>0.0</speed>
  <fix>3d</fix>
</trkpt>
<trkpt lat="40.0713749" lon="-105.229789">
  <ele>1583.0</ele>
  <time>2026-08-28T17:50:31Z</time>
  <course>0.0</course>
  <speed>0.0</speed>
  <fix>3d</fix>
</trkpt>
<trkpt lat="40.0713749" lon="-105.229789">
  <ele>1583.0</ele>
  <time>2026-08-28T17:50:31Z</time>
  <course>248.41</course>
  <speed>0.0</speed>
  <fix>3d</fix>
</trkpt>
<trkpt lat="40.0713749" lon="-105.229789">
  <ele>1583.0</ele>
  <time>2026-08-28T17:50:31Z</time>
  <course>0.0</course>
  <speed>0.0</speed>
  <fix>3d</fix>
</trkpt>
<trkpt lat="40.0713749" lon="-105.229789">
  <ele>1583.0</ele>
  <time>2026-08-28T17:50:31Z</time>
  <course>248.41</course>
  <speed>0.0</speed>
  <fix>3d</fix>
</trkpt>
<trkpt lat="40.0713749" lon="-105.229789">
  <ele>1583.0</ele>
  <time>2026-08-28T17:50:31Z</time>
  <course>0.0</course>
  <speed>0.0</speed>
  <fix>3d</fix>
</trkpt>
<trkpt lat="40.0713749" lon="-105.229789">
  <ele>1583.0</ele>
  <time>2026-08-28T17:50:31Z</time>
  <course>248.41</course>
  <speed>0.0</speed>
  <fix>3d</fix>
</trkpt>
<trkpt lat="40.0713749" lon="-105.229789">
  <ele>1583.0</ele>
  <time>2026-08-28T17:50:31Z</time>
  <course>0.0</course>
  <speed>0.0</speed>
  <fix>3d</fix>
</trkpt>
<trkpt lat="40.0713749" lon="-105.229789">
  <ele>1583.0</ele>
  <time>2026-08-28T17:50:31Z</time>
  <course>248.41</course>
  <speed>0.0</speed>
  <fix>3d</fix>
</trkpt>
<trkpt lat="40.0713749" lon="-105.229789">
  <ele>1583.0</ele>
  <time>2026-08-28T17:50:31Z</time>
  <course>0.0</course>
  <speed>0.0</speed>
  <fix>3d</fix>
</trkpt>
<trkpt lat="40.0713749" lon="-105.229789">
  <ele>1583.0</ele>
  <time>2026-08-28T17:50:31Z</time>
  <course>248.41</course>
  <speed>0.0</speed>
  <fix>3d</fix>
</trkpt>
<trkpt lat="40.0713749" lon="-105.229789">
  <ele>1583.0</ele>
  <time>2026-08-28T17:50:31Z</time>
  <course>0.0</course>
  <speed>0.0</speed>
  <fix>3d</fix>
</trkpt>
<trkpt lat="40.0713749" lon="-105.229789">
  <ele>1583.0</ele>
  <time>2026-08-28T17:50:31Z</time>
  <course>248.4</course>
  <speed>0.01</speed>
  <fix>3d</fix>
</trkpt>
<trkpt lat="40.0713749" lon="-105.229789">
  <ele>1583.0</ele>
  <time>2026-08-28T17:50:31Z</time>
  <course>0.0</course>
  <speed>0.0</speed>
  <fix>3d</fix>
</trkpt>
<trkpt lat="40.0713749" lon="-105.229789">
  <ele>1583.0</ele>
  <time>2026-08-28T17:50:31Z</time>
  <course>248.4</course>
  <speed>0.01</speed>
  <fix>3d</fix>
</trkpt>
<trkpt lat="40.0713749" lon="-105.229789">
  <ele>1583.0</ele>
  <time>2026-08-28T17:50:31Z</time>
  <course>0.0</course>
  <speed>0.0</speed>
  <fix>3d</fix>
</trkpt>
<trkpt lat="40.0713749" lon="-105.229789">
  <ele>1583.0</ele>
  <time>2026-08-28T17:50:31Z</time>
  <course>248.4</course>
  <speed>0.01</speed>
  <fix>3d</fix>
</trkpt>
<trkpt lat="40.0713749" lon="-105.229789">
  <ele>1583.0</ele>
  <time>2026-08-28T17:50:31Z</time>
  <course>0.0</course>
  <speed>0.0</speed>
  <fix>3d</fix>
</trkpt>
<trkpt lat="40.0713749" lon="-105.229789">
  <ele>1583.0</ele>
  <time>2026-08-28T17:50:31Z</time>
  <course>248.4</course>
  <speed>0.01</speed>
  <fix>3d</fix>
</trkpt>
<trkpt lat="40.0713749" lon="-105.229789">
  <ele>1583.0</ele>
  <time>2026-08-28T17:50:31Z</time>
  <course>0.0</course>
  <speed>0.0</speed>
  <fix>3d</fix>
</trkpt>
<trkpt lat="40.0713749" lon="-105.229789">
  <ele>1583.0</ele>
  <time>2026-08-28T17:50:31Z</time>
  <course>248.39</course>
  <speed>0.01</speed>
  <fix>3d</fix>
</trkpt>
<trkpt lat="40.0713749" lon="-105.229789">
  <ele>1583.0</ele>
  <time>2026-08-28T17:50:31Z</time>
  <course>0.0</course>
  <speed>0.0</speed>
  <fix>3d</fix>
</trkpt>
<trkpt lat="40.0713749" lon="-105.229789">
  <ele>1583.0</ele>
  <time>2026-08-28T17:50:31Z</time>
  <course>248.39</course>
  <speed>0.01</speed>
  <fix>3d</fix>
</trkpt>
<trkpt lat="40.0713749" lon="-105.229789">
  <ele>1583.0</ele>
  <time>2026-08-28T17:50:31Z</time>
  <course>0.0</course>
  <speed>0.0</speed>
  <fix>3d</fix>
</trkpt>
<trkpt lat="40.0713749" lon="-105.229789">
  <ele>1583.0</ele>
  <time>2026-08-28T17:50:31Z</time>
  <course>248.39</course>
  <speed>0.01</speed>
  <fix>3d</fix>
</trkpt>
<trkpt lat="40.0713749" lon="-105.229789">
  <ele>1583.0</ele>
  <time>2026-08-28T17:50:31Z</time>
  <course>0.0</course>
  <speed>0.0</speed>
  <fix>3d</fix>
</trkpt>
<trkpt lat="40.0713749" lon="-105.229789">
  <ele>1583.0</ele>
  <time>2026-08-28T17:50:31Z</time>
  <course>248.38</course>
  <speed>0.01</speed>
  <fix>3d</fix>
</trkpt>
<trkpt lat="40.0713749" lon="-105.229789">
  <ele>1583.0</ele>
  <time>2026-08-28T17:50:31Z</time>
  <course>0.0</course>
  <speed>0.0</speed>
  <fix>3d</fix>
</trkpt>
<trkpt lat="40.0713749" lon="-105.229789">
  <ele>1583.0</ele>
  <time>2026-08-28T17:50:31Z</time>
  <course>248.38</course>
  <speed>0.01</speed>
  <fix>3d</fix>
</trkpt>
<trkpt lat="40.0713749" lon="-105.229789">
  <ele>1583.0</ele>
  <time>2026-08-28T17:50:31Z</time>
  <course>0.0</course>
  <speed>0.0</speed>
  <fix>3d</fix>
</trkpt>
<trkpt lat="40.0713749" lon="-105.229789">
  <ele>1583.0</ele>
  <time>2026-08-28T17:50:31Z</time>
  <course>248.38</course>
  <speed>0.01</speed>
  <fix>3d</fix>
</trkpt>
<trkpt lat="40.0713749" lon="-105.229789">
  <ele>1583.0</ele>
  <time>2026-08-28T17:50:31Z</time>
  <course>0.0</course>
  <speed>0.0</speed>
  <fix>3d</fix>
</trkpt>
<trkpt lat="40.0713749" lon="-105.229789">
  <ele>1583.0</ele>
  <time>2026-08-28T17:50:31Z</time>
  <course>248.37</course>
  <speed>0.01</speed>
  <fix>3d</fix>
</trkpt>
<trkpt lat="40.0713749" lon="-105.229789">
  <ele>1583.0</ele>
  <time>2026-08-28T17:50:31Z</time>
  <course>0.0</course>
  <speed>0.0</speed>
  <fix>3d</fix>
</trkpt>
<trkpt lat="40.0713749" lon="-105.229789">
  <ele>1583.0</ele>
  <time>2026-08-28T17:50:31Z</time>
  <course>248.37</course>
  <speed>0.01</speed>
  <fix>3d</fix>
</trkpt>
<trkpt lat="40.0713749" lon="-105.229789">
  <ele>1583.0</ele>
  <time>2026-08-28T17:50:31Z</time>
  <course>0.0</course>
  <speed>0.0</speed>
  <fix>3d</fix>
</trkpt>
<trkpt lat="40.0713749" lon="-105.229789">
  <ele>1583.0</ele>
  <time>2026-08-28T17:50:31Z</time>
  <course>248.37</course>
  <speed>0.01</speed>
  <fix>3d</fix>
</trkpt>
<trkpt lat="40.0713749" lon="-105.229789">
  <ele>1583.0</ele>
  <time>2026-08-28T17:50:31Z</time>
  <course>0.0</course>
  <speed>0.0</speed>
  <fix>3d</fix>
</trkpt>
<trkpt lat="40.0713749" lon="-105.229789">
  <ele>1583.0</ele>
  <time>2026-08-28T17:50:31Z</time>
  <course>248.36</course>
  <speed>0.01</speed>
  <fix>3d</fix>
</trkpt>
<trkpt lat="40.0713749" lon="-105.229789">
  <ele>1583.0</ele>
  <time>2026-08-28T17:50:31Z</time>
  <course>0.0</course>
  <speed>0.0</speed>
  <fix>3d</fix>
</trkpt>
<trkpt lat="40.0713749" lon="-105.229789">
  <ele>1583.0</ele>
  <time>2026-08-28T17:50:31Z</time>
  <course>248.36</course>
  <speed>0.01</speed>
  <fix>3d</fix>
</trkpt>
<trkpt lat="40.0713749" lon="-105.229789">
  <ele>1583.0</ele>
  <time>2026-08-28T17:50:31Z</time>
  <course>0.0</course>
  <speed>0.0</speed>
  <fix>3d</fix>
</trkpt>
<trkpt lat="40.0713749" lon="-105.229789">
  <ele>1583.0</ele>
  <time>2026-08-28T17:50:31Z</time>
  <course>248.36</course>
  <speed>0.01</speed>
  <fix>3d</fix>
</trkpt>
<trkpt lat="40.0713749" lon="-105.229789">
  <ele>1583.0</ele>
  <time>2026-08-28T17:50:31Z</time>
  <course>0.0</course>
  <speed>0.0</speed>
  <fix>3d</fix>
</trkpt>
<trkpt lat="40.0713749" lon="-105.229789">
  <ele>1583.0</ele>
  <time>2026-08-28T17:50:31Z</time>
  <course>248.35</course>
  <speed>0.01</speed>
  <fix>3d</fix>
</trkpt>
<trkpt lat="40.0713749" lon="-105.229789">
  <ele>1583.0</ele>
  <time>2026-08-28T17:50:31Z</time>
  <course>0.0</course>
  <speed>0.0</speed>
  <fix>3d</fix>
</trkpt>
<trkpt lat="40.0713749" lon="-105.229789">
  <ele>1583.0</ele>
  <time>2026-08-28T17:50:31Z</time>
  <course>248.35</course>
  <speed>0.01</speed>
  <fix>3d</fix>
</trkpt>
<trkpt lat="40.0713749" lon="-105.229789">
  <ele>1583.0</ele>
  <time>2026-08-28T17:50:31Z</time>
  <course>0.0</course>
  <speed>0.0</speed>
  <fix>3d</fix>
</trkpt>
<trkpt lat="40.0713749" lon="-105.229789">
  <ele>1583.0</ele>
  <time>2026-08-28T17:50:31Z</time>
  <course>248.35</course>
  <speed>0.01</speed>
  <fix>3d</fix>
</trkpt>
<trkpt lat="40.0713749" lon="-105.229789">
  <ele>1583.0</ele>
  <time>2026-08-28T17:50:31Z</time>
  <course>0.0</course>
  <speed>0.0</speed>
  <fix>3d</fix>
</trkpt>
<trkpt lat="40.0713749" lon="-105.229789">
  <ele>1583.0</ele>
  <time>2026-08-28T17:50:31Z</time>
  <course>248.34</course>
  <speed>0.01</speed>
  <fix>3d</fix>
</trkpt>
<trkpt lat="40.0713749" lon="-105.229789">
  <ele>1583.0</ele>
  <time>2026-08-28T17:50:31Z</time>
  <course>0.0</course>
  <speed>0.0</speed>
  <fix>3d</fix>
</trkpt>
<trkpt lat="40.0713749" lon="-105.229789">
  <ele>1583.0</ele>
  <time>2026-08-28T17:50:31Z</time>
  <course>248.34</course>
  <speed>0.01</speed>
  <fix>3d</fix>
</trkpt>
<trkpt lat="40.0713749" lon="-105.229789">
  <ele>1583.0</ele>
  <time>2026-08-28T17:50:31Z</time>
  <course>0.0</course>
  <speed>0.0</speed>
  <fix>3d</fix>
</trkpt>
<trkpt lat="40.0713749" lon="-105.229789">
  <ele>1583.0</ele>
  <time>2026-08-28T17:50:31Z</time>
  <course>248.33</course>
  <speed>0.01</speed>
  <fix>3d</fix>
</trkpt>
<trkpt lat="40.0713749" lon="-105.229789">
  <ele>1583.0</ele>
  <time>2026-08-28T17:50:31Z</time>
  <course>0.0</course>
  <speed>0.0</speed>
  <fix>3d</fix>
</trkpt>
<trkpt lat="40.0713749" lon="-105.229789">
  <ele>1583.0</ele>
  <time>2026-08-28T17:50:31Z</time>
  <course>248.33</course>
  <speed>0.01</speed>
  <fix>3d</fix>
</trkpt>
<trkpt lat="40.0713749" lon="-105.229789">
  <ele>1583.0</ele>
  <time>2026-08-28T17:50:31Z</time>
  <course>0.0</course>
  <speed>0.0</speed>
  <fix>3d</fix>
</trkpt>
<trkpt lat="40.0713749" lon="-105.229789">
  <ele>1583.0</ele>
  <time>2026-08-28T17:50:31Z</time>
  <course>248.32</course>
  <speed>0.01</speed>
  <fix>3d</fix>
</trkpt>
<trkpt lat="40.0713749" lon="-105.229789">
  <ele>1583.0</ele>
  <time>2026-08-28T17:50:31Z</time>
  <course>0.0</course>
  <speed>0.0</speed>
  <fix>3d</fix>
</trkpt>
<trkpt lat="40.0713749" lon="-105.229789">
  <ele>1583.0</ele>
  <time>2026-08-28T17:50:31Z</time>
  <course>248.32</course>
  <speed>0.01</speed>
  <fix>3d</fix>
</trkpt>
<trkpt lat="40.0713749" lon="-105.229789">
  <ele>1583.0</ele>
  <time>2026-08-28T17:50:31Z</time>
  <course>0.0</course>
  <speed>0.0</speed>
  <fix>3d</fix>
</trkpt>
<trkpt lat="40.0713749" lon="-105.229789">
  <ele>1583.0</ele>
  <time>2026-08-28T17:50:31Z</time>
  <course>248.32</course>
  <speed>0.01</speed>
  <fix>3d</fix>
</trkpt>
<trkpt lat="40.0713749" lon="-105.229789">
  <ele>1583.0</ele>
  <time>2026-08-28T17:50:31Z</time>
  <course>0.0</course>
  <speed>0.0</speed>
  <fix>3d</fix>
</trkpt>
<trkpt lat="40.0713749" lon="-105.229789">
  <ele>1583.0</ele>
  <time>2026-08-28T17:50:31Z</time>
  <course>248.31</course>
  <speed>0.01</speed>
  <fix>3d</fix>
</trkpt>
<trkpt lat="40.0713749" lon="-105.229789">
  <ele>1583.0</ele>
  <time>2026-08-28T17:50:31Z</time>
  <course>0.0</course>
  <speed>0.0</speed>
  <fix>3d</fix>
</trkpt>
<trkpt lat="40.0713749" lon="-105.229789">
  <ele>1583.0</ele>
  <time>2026-08-28T17:50:31Z</time>
  <course>248.31</course>
  <speed>0.01</speed>
  <fix>3d</fix>
</trkpt>
<trkpt lat="40.0713749" lon="-105.229789">
  <ele>1583.0</ele>
  <time>2026-08-28T17:50:31Z</time>
  <course>0.0</course>
  <speed>0.0</speed>
  <fix>3d</fix>
</trkpt>
<trkpt lat="40.0713749" lon="-105.229789">
  <ele>1583.0</ele>
  <time>2026-08-28T17:50:31Z</time>
  <course>248.3</course>
  <speed>0.01</speed>
  <fix>3d</fix>
</trkpt>
<trkpt lat="40.0713749" lon="-105.229789">
  <ele>1583.0</ele>
  <time>2026-08-28T17:50:31Z</time>
  <course>0.0</course>
  <speed>0.0</speed>
  <fix>3d</fix>
</trkpt>
<trkpt lat="40.0713749" lon="-105.229789">
  <ele>1583.0</ele>
  <time>2026-08-28T17:50:31Z</time>
  <course>248.3</course>
  <speed>0.01</speed>
  <fix>3d</fix>
</trkpt>
<trkpt lat="40.0713749" lon="-105.229789">
  <ele>1583.0</ele>
  <time>2026-08-28T17:50:31Z</time>
  <course>0.0</course>
  <speed>0.0</speed>
  <fix>3d</fix>
</trkpt>
<trkpt lat="40.0713749" lon="-105.229789">
  <ele>1583.0</ele>
  <time>2026-08-28T17:50:31Z</time>
  <course>248.29</course>
  <speed>0.01</speed>
  <fix>3d</fix>
</trkpt>
<trkpt lat="40.0713749" lon="-105.229789">
  <ele>1583.0</ele>
  <time>2026-08-28T17:50:31Z</time>
  <course>0.0</course>
  <speed>0.0</speed>
  <fix>3d</fix>
</trkpt>
<trkpt lat="40.0713749" lon="-105.229789">
  <ele>1583.0</ele>
  <time>2026-08-28T17:50:31Z</time>
  <course>248.29</course>
  <speed>0.01</speed>
  <fix>3d</fix>
</trkpt>
<trkpt lat="40.0713749" lon="-105.229789">
  <ele>1583.0</ele>
  <time>2026-08-28T17:50:31Z</time>
  <course>0.0</course>
  <speed>0.0</speed>
  <fix>3d</fix>
</trkpt>
<trkpt lat="40.0713749" lon="-105.229789">
  <ele>1583.0</ele>
  <time>2026-08-28T17:50:31Z</time>
  <course>248.28</course>
  <speed>0.01</speed>
  <fix>3d</fix>
</trkpt>
<trkpt lat="40.0713749" lon="-105.229789">
  <ele>1583.0</ele>
  <time>2026-08-28T17:50:31Z</time>
  <course>0.0</course>
  <speed>0.0</speed>
  <fix>3d</fix>
</trkpt>
<trkpt lat="40.0713749" lon="-105.229789">
  <ele>1583.0</ele>
  <time>2026-08-28T17:50:31Z</time>
  <course>248.28</course>
  <speed>0.01</speed>
  <fix>3d</fix>
</trkpt>
<trkpt lat="40.0713749" lon="-105.229789">
  <ele>1583.0</ele>
  <time>2026-08-28T17:50:31Z</time>
  <course>0.0</course>
  <speed>0.0</speed>
  <fix>3d</fix>
</trkpt>
<trkpt lat="40.0713749" lon="-105.229789">
  <ele>1583.0</ele>
  <time>2026-08-28T17:50:31Z</time>
  <course>248.27</course>
  <speed>0.01</speed>
  <fix>3d</fix>
</trkpt>
<trkpt lat="40.0713749" lon="-105.229789">
  <ele>1583.0</ele>
  <time>2026-08-28T17:50:31Z</time>
  <course>0.0</course>
  <speed>0.0</speed>
  <fix>3d</fix>
</trkpt>
<trkpt lat="40.0713749" lon="-105.229789">
  <ele>1583.0</ele>
  <time>2026-08-28T17:50:31Z</time>
  <course>248.27</course>
  <speed>0.01</speed>
  <fix>3d</fix>
</trkpt>
<trkpt lat="40.0713749" lon="-105.229789">
  <ele>1583.0</ele>
  <time>2026-08-28T17:50:31Z</time>
  <course>0.0</course>
  <speed>0.0</speed>
  <fix>3d</fix>
</trkpt>
<trkpt lat="40.0713749" lon="-105.229789">
  <ele>1583.0</ele>
  <time>2026-08-28T17:50:31Z</time>
  <course>248.26</course>
  <speed>0.01</speed>
  <fix>3d</fix>
</trkpt>
<trkpt lat="40.0713749" lon="-105.229789">
  <ele>1583.0</ele>
  <time>2026-08-28T17:50:31Z</time>
  <course>0.0</course>
  <speed>0.0</speed>
  <fix>3d</fix>
</trkpt>
<trkpt lat="40.0713749" lon="-105.229789">
  <ele>1583.0</ele>
  <time>2026-08-28T17:50:31Z</time>
  <course>248.26</course>
  <speed>0.01</speed>
  <fix>3d</fix>
</trkpt>
<trkpt lat="40.0713749" lon="-105.229789">
  <ele>1583.0</ele>
  <time>2026-08-28T17:50:31Z</time>
  <course>0.0</course>
  <speed>0.0</speed>
  <fix>3d</fix>
</trkpt>
<trkpt lat="40.0713749" lon="-105.229789">
  <ele>1583.0</ele>
  <time>2026-08-28T17:50:31Z</time>
  <course>248.26</course>
  <speed>0.01</speed>
  <fix>3d</fix>
</trkpt>
<trkpt lat="40.0713749" lon="-105.229789">
  <ele>1583.0</ele>
  <time>2026-08-28T17:50:31Z</time>
  <course>0.0</course>
  <speed>0.0</speed>
  <fix>3d</fix>
</trkpt>
<trkpt lat="40.0713749" lon="-105.229789">
  <ele>1583.0</ele>
  <time>2026-08-28T17:50:31Z</time>
  <course>248.25</course>
  <speed>0.01</speed>
  <fix>3d</fix>
</trkpt>
<trkpt lat="40.0713749" lon="-105.229789">
  <ele>1583.0</ele>
  <time>2026-08-28T17:50:31Z</time>
  <course>0.0</course>
  <speed>0.0</speed>
  <fix>3d</fix>
</trkpt>
<trkpt lat="40.0713749" lon="-105.229789">
  <ele>1583.0</ele>
  <time>2026-08-28T17:50:31Z</time>
  <course>248.25</course>
  <speed>0.01</speed>
  <fix>3d</fix>
</trkpt>
<trkpt lat="40.0713749" lon="-105.229789">
  <ele>1583.0</ele>
  <time>2026-08-28T17:50:31Z</time>
  <course>0.0</course>
  <speed>0.0</speed>
  <fix>3d</fix>
</trkpt>
<trkpt lat="40.0713749" lon="-105.229789">
  <ele>1583.0</ele>
  <time>2026-08-28T17:50:31Z</time>
  <course>248.24</course>
  <speed>0.01</speed>
  <fix>3d</fix>
</trkpt>
<trkpt lat="40.0713749" lon="-105.229789">
  <ele>1583.0</ele>
  <time>2026-08-28T17:50:31Z</time>
  <course>0.0</course>
  <speed>0.0</speed>
  <fix>3d</fix>
</trkpt>
<trkpt lat="40.0713749" lon="-105.229789">
  <ele>1583.0</ele>
  <time>2026-08-28T17:50:31Z</time>
  <course>248.24</course>
  <speed>0.01</speed>
  <fix>3d</fix>
</trkpt>
<trkpt lat="40.0713749" lon="-105.229789">
  <ele>1583.0</ele>
  <time>2026-08-28T17:50:31Z</time>
  <course>0.0</course>
  <speed>0.0</speed>
  <fix>3d</fix>
</trkpt>
<trkpt lat="40.0713749" lon="-105.229789">
  <ele>1583.0</ele>
  <time>2026-08-28T17:50:31Z</time>
  <course>248.23</course>
  <speed>0.01</speed>
  <fix>3d</fix>
</trkpt>
<trkpt lat="40.0713749" lon="-105.229789">
  <ele>1583.0</ele>
  <time>2026-08-28T17:50:31Z</time>
  <course>0.0</course>
  <speed>0.0</speed>
  <fix>3d</fix>
</trkpt>
<trkpt lat="40.0713749" lon="-105.229789">
  <ele>1583.0</ele>
  <time>2026-08-28T17:50:31Z</time>
  <course>248.23</course>
  <speed>0.01</speed>
  <fix>3d</fix>
</trkpt>
<trkpt lat="40.0713749" lon="-105.229789">
  <ele>1583.0</ele>
  <time>2026-08-28T17:50:31Z</time>
  <course>0.0</course>
  <speed>0.0</speed>
  <fix>3d</fix>
</trkpt>
<trkpt lat="40.0713749" lon="-105.229789">
  <ele>1583.0</ele>
  <time>2026-08-28T17:50:31Z</time>
  <course>248.22</course>
  <speed>0.01</speed>
  <fix>3d</fix>
</trkpt>
<trkpt lat="40.0713749" lon="-105.229789">
  <ele>1583.0</ele>
  <time>2026-08-28T17:50:31Z</time>
  <course>0.0</course>
  <speed>0.0</speed>
  <fix>3d</fix>
</trkpt>
<trkpt lat="40.0713749" lon="-105.229789">
  <ele>1583.0</ele>
  <time>2026-08-28T17:50:31Z</time>
  <course>248.22</course>
  <speed>0.01</speed>
  <fix>3d</fix>
</trkpt>
<trkpt lat="40.0713749" lon="-105.229789">
  <ele>1583.0</ele>
  <time>2026-08-28T17:50:31Z</time>
  <course>0.0</course>
  <speed>0.0</speed>
  <fix>3d</fix>
</trkpt>
<trkpt lat="40.0713749" lon="-105.229789">
  <ele>1583.0</ele>
  <time>2026-08-28T17:50:31Z</time>
  <course>248.21</course>
  <speed>0.01</speed>
  <fix>3d</fix>
</trkpt>
<trkpt lat="40.0713749" lon="-105.229789">
  <ele>1583.0</ele>
  <time>2026-08-28T17:50:31Z</time>
  <course>0.0</course>
  <speed>0.0</speed>
  <fix>3d</fix>
</trkpt>
<trkpt lat="40.0713749" lon="-105.229789">
  <ele>1583.0</ele>
  <time>2026-08-28T17:50:31Z</time>
  <course>248.2</course>
  <speed>0.01</speed>
  <fix>3d</fix>
</trkpt>
<trkpt lat="40.0713749" lon="-105.229789">
  <ele>1583.0</ele>
  <time>2026-08-28T17:50:31Z</time>
  <course>0.0</course>
  <speed>0.0</speed>
  <fix>3d</fix>
</trkpt>
<trkpt lat="40.0713749" lon="-105.229789">
  <ele>1583.0</ele>
  <time>2026-08-28T17:50:31Z</time>
  <course>248.2</course>
  <speed>0.01</speed>
  <fix>3d</fix>
</trkpt>
<trkpt lat="40.0713749" lon="-105.229789">
  <ele>1583.0</ele>
  <time>2026-08-28T17:50:31Z</time>
  <course>0.0</course>
  <speed>0.0</speed>
  <fix>3d</fix>
</trkpt>
<trkpt lat="40.0713749" lon="-105.229789">
  <ele>1583.0</ele>
  <time>2026-08-28T17:50:31Z</time>
  <course>248.19</course>
  <speed>0.01</speed>
  <fix>3d</fix>
</trkpt>
<trkpt lat="40.0713749" lon="-105.229789">
  <ele>1583.0</ele>
  <time>2026-08-28T17:50:31Z</time>
  <course>0.0</course>
  <speed>0.0</speed>
  <fix>3d</fix>
</trkpt>
<trkpt lat="40.0713749" lon="-105.229789">
  <ele>1583.0</ele>
  <time>2026-08-28T17:50:31Z</time>
  <course>248.19</course>
  <speed>0.01</speed>
  <fix>3d</fix>
</trkpt>
<trkpt lat="40.0713749" lon="-105.229789">
  <ele>1583.0</ele>
  <time>2026-08-28T17:50:31Z</time>
  <course>0.0</course>
  <speed>0.0</speed>
  <fix>3d</fix>
</trkpt>
<trkpt lat="40.0713749" lon="-105.229789">
  <ele>1583.0</ele>
  <time>2026-08-28T17:50:31Z</time>
  <course>248.18</course>
  <speed>0.01</speed>
  <fix>3d</fix>
</trkpt>
<trkpt lat="40.0713749" lon="-105.229789">
  <ele>1583.0</ele>
  <time>2026-08-28T17:50:31Z</time>
  <course>0.0</course>
  <speed>0.0</speed>
  <fix>3d</fix>
</trkpt>
<trkpt lat="40.0713749" lon="-105.229789">
  <ele>1583.0</ele>
  <time>2026-08-28T17:50:31Z</time>
  <course>248.18</course>
  <speed>0.01</speed>
  <fix>3d</fix>
</trkpt>
<trkpt lat="40.0713749" lon="-105.229789">
  <ele>1583.0</ele>
  <time>2026-08-28T17:50:31Z</time>
  <course>0.0</course>
  <speed>0.0</speed>
  <fix>3d</fix>
</trkpt>
<trkpt lat="40.0713749" lon="-105.229789">
  <ele>1583.0</ele>
  <time>2026-08-28T17:50:31Z</time>
  <course>248.17</course>
  <speed>0.01</speed>
  <fix>3d</fix>
</trkpt>
<trkpt lat="40.0713749" lon="-105.229789">
  <ele>1583.0</ele>
  <time>2026-08-28T17:50:31Z</time>
  <course>0.0</course>
  <speed>0.0</speed>
  <fix>3d</fix>
</trkpt>
<trkpt lat="40.0713749" lon="-105.229789">
  <ele>1583.0</ele>
  <time>2026-08-28T17:50:31Z</time>
  <course>248.17</course>
  <speed>0.022360679774997897</speed>
  <fix>3d</fix>
</trkpt>
<trkpt lat="40.0713749" lon="-105.229789">
  <ele>1583.0</ele>
  <time>2026-08-28T17:50:31Z</time>
  <course>0.0</course>
  <speed>0.0</speed>
  <fix>3d</fix>
</trkpt>
<trkpt lat="40.0713749" lon="-105.229789">
  <ele>1583.0</ele>
  <time>2026-08-28T17:50:31Z</time>
  <course>248.16</course>
  <speed>0.022360679774997897</speed>
  <fix>3d</fix>
</trkpt>
<trkpt lat="40.0713749" lon="-105.229789">
  <ele>1583.0</ele>
  <time>2026-08-28T17:50:31Z</time>
  <course>0.0</course>
  <speed>0.0</speed>
  <fix>3d</fix>
</trkpt>
<trkpt lat="40.0713749" lon="-105.229789">
  <ele>1583.0</ele>
  <time>2026-08-28T17:50:31Z</time>
  <course>248.16</course>
  <speed>0.022360679774997897</speed>
  <fix>3d</fix>
</trkpt>
<trkpt lat="40.0713749" lon="-105.229789">
  <ele>1583.0</ele>
  <time>2026-08-28T17:50:31Z</time>
  <course>0.0</course>
  <speed>0.0</speed>
  <fix>3d</fix>
</trkpt>
<trkpt lat="40.0713749" lon="-105.229789">
  <ele>1583.0</ele>
  <time>2026-08-28T17:50:31Z</time>
  <course>248.16</course>
  <speed>0.022360679774997897</speed>
  <fix>3d</fix>
</trkpt>
<trkpt lat="40.0713749" lon="-105.229789">
  <ele>1583.0</ele>
  <time>2026-08-28T17:50:31Z</time>
  <course>0.0</course>
  <speed>0.0</speed>
  <fix>3d</fix>
</trkpt>
<trkpt lat="40.0713749" lon="-105.229789">
  <ele>1583.0</ele>
  <time>2026-08-28T17:50:31Z</time>
  <course>248.15</course>
  <speed>0.022360679774997897</speed>
  <fix>3d</fix>
</trkpt>
<trkpt lat="40.0713749" lon="-105.229789">
  <ele>1583.0</ele>
  <time>2026-08-28T17:50:31Z</time>
  <course>0.0</course>
  <speed>0.0</speed>
  <fix>3d</fix>
</trkpt>
<trkpt lat="40.0713749" lon="-105.229789">
  <ele>1583.0</ele>
  <time>2026-08-28T17:50:31Z</time>
  <course>248.15</course>
  <speed>0.022360679774997897</speed>
  <fix>3d</fix>
</trkpt>
<trkpt lat="40.0713749" lon="-105.229789">
  <ele>1583.0</ele>
  <time>2026-08-28T17:50:31Z</time>
  <course>0.0</course>
  <speed>0.0</speed>
  <fix>3d</fix>
</trkpt>
<trkpt lat="40.0713749" lon="-105.229789">
  <ele>1583.0</ele>
  <time>2026-08-28T17:50:31Z</time>
  <course>248.14</course>
  <speed>0.022360679774997897</speed>
  <fix>3d</fix>
</trkpt>
<trkpt lat="40.0713749" lon="-105.229789">
  <ele>1583.0</ele>
  <time>2026-08-28T17:50:31Z</time>
  <course>0.0</course>
  <speed>0.0</speed>
  <fix>3d</fix>
</trkpt>
<trkpt lat="40.0713749" lon="-105.229789">
  <ele>1583.0</ele>
  <time>2026-08-28T17:50:31Z</time>
  <course>248.14</course>
  <speed>0.022360679774997897</speed>
  <fix>3d</fix>
</trkpt>
<trkpt lat="40.0713749" lon="-105.229789">
  <ele>1583.0</ele>
  <time>2026-08-28T17:50:31Z</time>
  <course>0.0</course>
  <speed>0.0</speed>
  <fix>3d</fix>
</trkpt>
<trkpt lat="40.0713749" lon="-105.229789">
  <ele>1583.0</ele>
  <time>2026-08-28T17:50:31Z</time>
  <course>248.13</course>
  <speed>0.022360679774997897</speed>
  <fix>3d</fix>
</trkpt>
<trkpt lat="40.0713749" lon="-105.229789">
  <ele>1583.0</ele>
  <time>2026-08-28T17:50:31Z</time>
  <course>0.0</course>
  <speed>0.0</speed>
  <fix>3d</fix>
</trkpt>
<trkpt lat="40.0713749" lon="-105.229789">
  <ele>1583.0</ele>
  <time>2026-08-28T17:50:31Z</time>
  <course>248.13</course>
  <speed>0.022360679774997897</speed>
  <fix>3d</fix>
</trkpt>
<trkpt lat="40.0713749" lon="-105.229789">
  <ele>1583.0</ele>
  <time>2026-08-28T17:50:31Z</time>
  <course>0.0</course>
  <speed>0.0</speed>
  <fix>3d</fix>
</trkpt>
<trkpt lat="40.0713749" lon="-105.229789">
  <ele>1583.0</ele>
  <time>2026-08-28T17:50:31Z</time>
  <course>248.12</course>
  <speed>0.022360679774997897</speed>
  <fix>3d</fix>
</trkpt>
<trkpt lat="40.0713749" lon="-105.229789">
  <ele>1583.0</ele>
  <time>2026-08-28T17:50:31Z</time>
  <course>0.0</course>
  <speed>0.0</speed>
  <fix>3d</fix>
</trkpt>
<trkpt lat="40.0713749" lon="-105.229789">
  <ele>1583.0</ele>
  <time>2026-08-28T17:50:31Z</time>
  <course>248.12</course>
  <speed>0.022360679774997897</speed>
  <fix>3d</fix>
</trkpt>
<trkpt lat="40.0713749" lon="-105.229789">
  <ele>1583.0</ele>
  <time>2026-08-28T17:50:31Z</time>
  <course>0.0</course>
  <speed>0.0</speed>
  <fix>3d</fix>
</trkpt>
<trkpt lat="40.0713749" lon="-105.229789">
  <ele>1583.0</ele>
  <time>2026-08-28T17:50:31Z</time>
  <course>248.11</course>
  <speed>0.022360679774997897</speed>
  <fix>3d</fix>
</trkpt>
<trkpt lat="40.0713749" lon="-105.229789">
  <ele>1583.0</ele>
  <time>2026-08-28T17:50:31Z</time>
  <course>0.0</course>
  <speed>0.0</speed>
  <fix>3d</fix>
</trkpt>
<trkpt lat="40.0713749" lon="-105.229789">
  <ele>1583.0</ele>
  <time>2026-08-28T17:50:31Z</time>
  <course>248.11</course>
  <speed>0.022360679774997897</speed>
  <fix>3d</fix>
</trkpt>
<trkpt lat="40.0713749" lon="-105.229789">
  <ele>1583.0</ele>
  <time>2026-08-28T17:50:31Z</time>
  <course>0.0</course>
  <speed>0.0</speed>
  <fix>3d</fix>
</trkpt>
<trkpt lat="40.0713749" lon="-105.229789">
  <ele>1583.0</ele>
  <time>2026-08-28T17:50:31Z</time>
  <course>248.1</course>
  <speed>0.022360679774997897</speed>
  <fix>3d</fix>
</trkpt>
<trkpt lat="40.0713749" lon="-105.229789">
  <ele>1583.0</ele>
  <time>2026-08-28T17:50:31Z</time>
  <course>0.0</course>
  <speed>0.0</speed>
  <fix>3d</fix>
</trkpt>
<trkpt lat="40.0713749" lon="-105.229789">
  <ele>1583.0</ele>
  <time>2026-08-28T17:50:31Z</time>
  <course>248.1</course>
  <speed>0.022360679774997897</speed>
  <fix>3d</fix>
</trkpt>
<trkpt lat="40.0713749" lon="-105.229789">
  <ele>1583.0</ele>
  <time>2026-08-28T17:50:31Z</time>
  <course>0.0</course>
  <speed>0.0</speed>
  <fix>3d</fix>
</trkpt>
<trkpt lat="40.0713749" lon="-105.229789">
  <ele>1583.0</ele>
  <time>2026-08-28T17:50:31Z</time>
  <course>248.09</course>
  <speed>0.022360679774997897</speed>
  <fix>3d</fix>
</trkpt>
<trkpt lat="40.0713749" lon="-105.229789">
  <ele>1583.0</ele>
  <time>2026-08-28T17:50:31Z</time>
  <course>0.0</course>
  <speed>0.0</speed>
  <fix>3d</fix>
</trkpt>
<trkpt lat="40.0713749" lon="-105.229789">
  <ele>1583.0</ele>
  <time>2026-08-28T17:50:31Z</time>
  <course>248.09</course>
  <speed>0.022360679774997897</speed>
  <fix>3d</fix>
</trkpt>
<trkpt lat="40.0713749" lon="-105.229789">
  <ele>1583.0</ele>
  <time>2026-08-28T17:50:31Z</time>
  <course>0.0</course>
  <speed>0.0</speed>
  <fix>3d</fix>
</trkpt>
<trkpt lat="40.0713749" lon="-105.229789">
  <ele>1583.0</ele>
  <time>2026-08-28T17:50:31Z</time>
  <course>248.08</course>
  <speed>0.022360679774997897</speed>
  <fix>3d</fix>
</trkpt>
<trkpt lat="40.0713749" lon="-105.229789">
  <ele>1583.0</ele>
  <time>2026-08-28T17:50:31Z</time>
  <course>0.0</course>
  <speed>0.0</speed>
  <fix>3d</fix>
</trkpt>
<trkpt lat="40.0713749" lon="-105.229789">
  <ele>1583.0</ele>
  <time>2026-08-28T17:50:31Z</time>
  <course>248.08</course>
  <speed>0.022360679774997897</speed>
  <fix>3d</fix>
</trkpt>
<trkpt lat="40.0713749" lon="-105.229789">
  <ele>1583.0</ele>
  <time>2026-08-28T17:50:31Z</time>
  <course>0.0</course>
  <speed>0.0</speed>
  <fix>3d</fix>
</trkpt>
<trkpt lat="40.0713749" lon="-105.229789">
  <ele>1583.0</ele>
  <time>2026-08-28T17:50:31Z</time>
  <course>248.07</course>
  <speed>0.022360679774997897</speed>
  <fix>3d</fix>
</trkpt>
<trkpt lat="40.0713749" lon="-105.229789">
  <ele>1583.0</ele>
  <time>2026-08-28T17:50:31Z</time>
  <course>0.0</course>
  <speed>0.0</speed>
  <fix>3d</fix>
</trkpt>
<trkpt lat="40.0713749" lon="-105.229789">
  <ele>1583.0</ele>
  <time>2026-08-28T17:50:31Z</time>
  <course>248.07</course>
  <speed>0.022360679774997897</speed>
  <fix>3d</fix>
</trkpt>
<trkpt lat="40.0713749" lon="-105.229789">
  <ele>1583.0</ele>
  <time>2026-08-28T17:50:31Z</time>
  <course>0.0</course>
  <speed>0.0</speed>
  <fix>3d</fix>
</trkpt>
<trkpt lat="40.0713749" lon="-105.229789">
  <ele>1583.0</ele>
  <time>2026-08-28T17:50:31Z</time>
  <course>248.06</course>
  <speed>0.022360679774997897</speed>
  <fix>3d</fix>
</trkpt>
<trkpt lat="40.0713749" lon="-105.229789">
  <ele>1583.0</ele>
  <time>2026-08-28T17:50:31Z</time>
  <course>0.0</course>
  <speed>0.0</speed>
  <fix>3d</fix>
</trkpt>
<trkpt lat="40.0713749" lon="-105.229789">
  <ele>1583.0</ele>
  <time>2026-08-28T17:50:31Z</time>
  <course>248.06</course>
  <speed>0.022360679774997897</speed>
  <fix>3d</fix>
</trkpt>
<trkpt lat="40.0713749" lon="-105.229789">
  <ele>1583.0</ele>
  <time>2026-08-28T17:50:31Z</time>
  <course>0.0</course>
  <speed>0.0</speed>
  <fix>3d</fix>
</trkpt>
<trkpt lat="40.0713749" lon="-105.229789">
  <ele>1583.0</ele>
  <time>2026-08-28T17:50:31Z</time>
  <course>248.05</course>
  <speed>0.022360679774997897</speed>
  <fix>3d</fix>
</trkpt>
<trkpt lat="40.0713749" lon="-105.229789">
  <ele>1583.0</ele>
  <time>2026-08-28T17:50:31Z</time>
  <course>0.0</course>
  <speed>0.0</speed>
  <fix>3d</fix>
</trkpt>
<trkpt lat="40.0713749" lon="-105.229789">
  <ele>1583.0</ele>
  <time>2026-08-28T17:50:31Z</time>
  <course>248.05</course>
  <speed>0.022360679774997897</speed>
  <fix>3d</fix>
</trkpt>
<trkpt lat="40.0713749" lon="-105.229789">
  <ele>1583.0</ele>
  <time>2026-08-28T17:50:31Z</time>
  <course>0.0</course>
  <speed>0.0</speed>
  <fix>3d</fix>
</trkpt>
<trkpt lat="40.0713749" lon="-105.229789">
  <ele>1583.0</ele>
  <time>2026-08-28T17:50:31Z</time>
  <course>248.05</course>
  <speed>0.022360679774997897</speed>
  <fix>3d</fix>
</trkpt>
<trkpt lat="40.0713749" lon="-105.229789">
  <ele>1583.0</ele>
  <time>2026-08-28T17:50:31Z</time>
  <course>0.0</course>
  <speed>0.0</speed>
  <fix>3d</fix>
</trkpt>
<trkpt lat="40.0713749" lon="-105.229789">
  <ele>1583.0</ele>
  <time>2026-08-28T17:50:31Z</time>
  <course>248.04</course>
  <speed>0.022360679774997897</speed>
  <fix>3d</fix>
</trkpt>
<trkpt lat="40.0713749" lon="-105.229789">
  <ele>1583.0</ele>
  <time>2026-08-28T17:50:31Z</time>
  <course>0.0</course>
  <speed>0.0</speed>
  <fix>3d</fix>
</trkpt>
<trkpt lat="40.0713749" lon="-105.229789">
  <ele>1583.0</ele>
  <time>2026-08-28T17:50:31Z</time>
  <course>248.04</course>
  <speed>0.022360679774997897</speed>
  <fix>3d</fix>
</trkpt>
<trkpt lat="40.0713749" lon="-105.229789">
  <ele>1583.0</ele>
  <time>2026-08-28T17:50:31Z</time>
  <course>0.0</course>
  <speed>0.0</speed>
  <fix>3d</fix>
</trkpt>
<trkpt lat="40.0713749" lon="-105.229789">
  <ele>1583.0</ele>
  <time>2026-08-28T17:50:31Z</time>
  <course>248.03</course>
  <speed>0.022360679774997897</speed>
  <fix>3d</fix>
</trkpt>
<trkpt lat="40.0713749" lon="-105.229789">
  <ele>1583.0</ele>
  <time>2026-08-28T17:50:31Z</time>
  <course>0.0</course>
  <speed>0.0</speed>
  <fix>3d</fix>
</trkpt>
<trkpt lat="40.0713749" lon="-105.229789">
  <ele>1583.0</ele>
  <time>2026-08-28T17:50:31Z</time>
  <course>248.03</course>
  <speed>0.022360679774997897</speed>
  <fix>3d</fix>
</trkpt>
<trkpt lat="40.0713749" lon="-105.229789">
  <ele>1583.0</ele>
  <time>2026-08-28T17:50:31Z</time>
  <course>0.0</course>
  <speed>0.0</speed>
  <fix>3d</fix>
</trkpt>
<trkpt lat="40.0713749" lon="-105.229789">
  <ele>1583.0</ele>
  <time>2026-08-28T17:50:31Z</time>
  <course>248.02</course>
  <speed>0.022360679774997897</speed>
  <fix>3d</fix>
</trkpt>
<trkpt lat="40.0713749" lon="-105.229789">
  <ele>1583.0</ele>
  <time>2026-08-28T17:50:31Z</time>
  <course>0.0</course>
  <speed>0.0</speed>
  <fix>3d</fix>
</trkpt>
<trkpt lat="40.0713749" lon="-105.229789">
  <ele>1583.0</ele>
  <time>2026-08-28T17:50:31Z</time>
  <course>248.02</course>
  <speed>0.022360679774997897</speed>
  <fix>3d</fix>
</trkpt>
<trkpt lat="40.0713749" lon="-105.229789">
  <ele>1583.0</ele>
  <time>2026-08-28T17:50:31Z</time>
  <course>0.0</course>
  <speed>0.0</speed>
  <fix>3d</fix>
</trkpt>
<trkpt lat="40.0713749" lon="-105.229789">
  <ele>1583.0</ele>
  <time>2026-08-28T17:50:31Z</time>
  <course>248.01</course>
  <speed>0.022360679774997897</speed>
  <fix>3d</fix>
</trkpt>
<trkpt lat="40.0713749" lon="-105.229789">
  <ele>1583.0</ele>
  <time>2026-08-28T17:50:31Z</time>
  <course>0.0</course>
  <speed>0.0</speed>
  <fix>3d</fix>
</trkpt>
<trkpt lat="40.0713749" lon="-105.229789">
  <ele>1583.0</ele>
  <time>2026-08-28T17:50:31Z</time>
  <course>248.01</course>
  <speed>0.022360679774997897</speed>
  <fix>3d</fix>
</trkpt>
<trkpt lat="40.0713749" lon="-105.229789">
  <ele>1583.0</ele>
  <time>2026-08-28T17:50:31Z</time>
  <course>0.0</course>
  <speed>0.0</speed>
  <fix>3d</fix>
</trkpt>
<trkpt lat="40.0713749" lon="-105.229789">
  <ele>1583.0</ele>
  <time>2026-08-28T17:50:31Z</time>
  <course>248.0</course>
  <speed>0.022360679774997897</speed>
  <fix>3d</fix>
</trkpt>
<trkpt lat="40.0713749" lon="-105.229789">
  <ele>1583.0</ele>
  <time>2026-08-28T17:50:31Z</time>
  <course>0.0</course>
  <speed>0.0</speed>
  <fix>3d</fix>
</trkpt>
<trkpt lat="40.0713749" lon="-105.229789">
  <ele>1583.0</ele>
  <time>2026-08-28T17:50:31Z</time>
  <course>248.0</course>
  <speed>0.022360679774997897</speed>
  <fix>3d</fix>
</trkpt>
<trkpt lat="40.0713749" lon="-105.229789">
  <ele>1583.0</ele>
  <time>2026-08-28T17:50:31Z</time>
  <course>0.0</course>
  <speed>0.0</speed>
  <fix>3d</fix>
</trkpt>
<trkpt lat="40.0713749" lon="-105.229789">
  <ele>1583.0</ele>
  <time>2026-08-28T17:50:31Z</time>
  <course>247.99</course>
  <speed>0.022360679774997897</speed>
  <fix>3d</fix>
</trkpt>
<trkpt lat="40.0713749" lon="-105.229789">
  <ele>1583.0</ele>
  <time>2026-08-28T17:50:31Z</time>
  <course>0.0</course>
  <speed>0.0</speed>
  <fix>3d</fix>
</trkpt>
<trkpt lat="40.0713749" lon="-105.229789">
  <ele>1583.0</ele>
  <time>2026-08-28T17:50:31Z</time>
  <course>247.99</course>
  <speed>0.022360679774997897</speed>
  <fix>3d</fix>
</trkpt>
<trkpt lat="40.0713749" lon="-105.229789">
  <ele>1583.0</ele>
  <time>2026-08-28T17:50:31Z</time>
  <course>0.0</course>
  <speed>0.0</speed>
  <fix>3d</fix>
</trkpt>
<trkpt lat="40.0713749" lon="-105.229789">
  <ele>1583.0</ele>
  <time>2026-08-28T17:50:31Z</time>
  <course>247.98</course>
  <speed>0.022360679774997897</speed>
  <fix>3d</fix>
</trkpt>
<trkpt lat="40.0713749" lon="-105.229789">
  <ele>1583.0</ele>
  <time>2026-08-28T17:50:31Z</time>
  <course>0.0</course>
  <speed>0.0</speed>
  <fix>3d</fix>
</trkpt>
<trkpt lat="40.0713749" lon="-105.229789">
  <ele>1583.0</ele>
  <time>2026-08-28T17:50:31Z</time>
  <course>247.98</course>
  <speed>0.022360679774997897</speed>
  <fix>3d</fix>
</trkpt>
<trkpt lat="40.0713749" lon="-105.229789">
  <ele>1583.0</ele>
  <time>2026-08-28T17:50:31Z</time>
  <course>0.0</course>
  <speed>0.0</speed>
  <fix>3d</fix>
</trkpt>
<trkpt lat="40.0713749" lon="-105.229789">
  <ele>1583.0</ele>
  <time>2026-08-28T17:50:31Z</time>
  <course>247.97</course>
  <speed>0.022360679774997897</speed>
  <fix>3d</fix>
</trkpt>
<trkpt lat="40.0713749" lon="-105.229789">
  <ele>1583.0</ele>
  <time>2026-08-28T17:50:31Z</time>
  <course>0.0</course>
  <speed>0.0</speed>
  <fix>3d</fix>
</trkpt>
<trkpt lat="40.0713749" lon="-105.229789">
  <ele>1583.0</ele>
  <time>2026-08-28T17:50:31Z</time>
  <course>247.97</course>
  <speed>0.022360679774997897</speed>
  <fix>3d</fix>
</trkpt>
<trkpt lat="40.0713749" lon="-105.229789">
  <ele>1583.0</ele>
  <time>2026-08-28T17:50:31Z</time>
  <course>0.0</course>
  <speed>0.0</speed>
  <fix>3d</fix>
</trkpt>
<trkpt lat="40.0713749" lon="-105.229789">
  <ele>1583.0</ele>
  <time>2026-08-28T17:50:31Z</time>
  <course>247.97</course>
  <speed>0.022360679774997897</speed>
  <fix>3d</fix>
</trkpt>
<trkpt lat="40.0713749" lon="-105.229789">
  <ele>1583.0</ele>
  <time>2026-08-28T17:50:31Z</time>
  <course>0.0</course>
  <speed>0.0</speed>
  <fix>3d</fix>
</trkpt>
<trkpt lat="40.0713749" lon="-105.229789">
  <ele>1583.0</ele>
  <time>2026-08-28T17:50:31Z</time>
  <course>247.96</course>
  <speed>0.022360679774997897</speed>
  <fix>3d</fix>
</trkpt>
<trkpt lat="40.0713749" lon="-105.229789">
  <ele>1583.0</ele>
  <time>2026-08-28T17:50:31Z</time>
  <course>0.0</course>
  <speed>0.0</speed>
  <fix>3d</fix>
</trkpt>
<trkpt lat="40.0713749" lon="-105.229789">
  <ele>1583.0</ele>
  <time>2026-08-28T17:50:31Z</time>
  <course>247.96</course>
  <speed>0.022360679774997897</speed>
  <fix>3d</fix>
</trkpt>
<trkpt lat="40.0713749" lon="-105.229789">
  <ele>1583.0</ele>
  <time>2026-08-28T17:50:31Z</time>
  <course>0.0</course>
  <speed>0.0</speed>
  <fix>3d</fix>
</trkpt>
<trkpt lat="40.0713749" lon="-105.229789">
  <ele>1583.0</ele>
  <time>2026-08-28T17:50:31Z</time>
  <course>247.95</course>
  <speed>0.022360679774997897</speed>
  <fix>3d</fix>
</trkpt>
<trkpt lat="40.0713749" lon="-105.229789">
  <ele>1583.0</ele>
  <time>2026-08-28T17:50:31Z</time>
  <course>0.0</course>
  <speed>0.0</speed>
  <fix>3d</fix>
</trkpt>
<trkpt lat="40.0713749" lon="-105.229789">
  <ele>1583.0</ele>
  <time>2026-08-28T17:50:31Z</time>
  <course>247.95</course>
  <speed>0.022360679774997897</speed>
  <fix>3d</fix>
</trkpt>
<trkpt lat="40.0713749" lon="-105.229789">
  <ele>1583.0</ele>
  <time>2026-08-28T17:50:31Z</time>
  <course>0.0</course>
  <speed>0.0</speed>
  <fix>3d</fix>
</trkpt>
<trkpt lat="40.0713749" lon="-105.229789">
  <ele>1583.0</ele>
  <time>2026-08-28T17:50:31Z</time>
  <course>247.94</course>
  <speed>0.022360679774997897</speed>
  <fix>3d</fix>
</trkpt>
<trkpt lat="40.0713749" lon="-105.229789">
  <ele>1583.0</ele>
  <time>2026-08-28T17:50:31Z</time>
  <course>0.0</course>
  <speed>0.0</speed>
  <fix>3d</fix>
</trkpt>
<trkpt lat="40.0713749" lon="-105.229789">
  <ele>1583.0</ele>
  <time>2026-08-28T17:50:31Z</time>
  <course>247.94</course>
  <speed>0.022360679774997897</speed>
  <fix>3d</fix>
</trkpt>
<trkpt lat="40.0713749" lon="-105.229789">
  <ele>1583.0</ele>
  <time>2026-08-28T17:50:31Z</time>
  <course>0.0</course>
  <speed>0.0</speed>
  <fix>3d</fix>
</trkpt>
<trkpt lat="40.0713749" lon="-105.229789">
  <ele>1583.0</ele>
  <time>2026-08-28T17:50:31Z</time>
  <course>247.94</course>
  <speed>0.022360679774997897</speed>
  <fix>3d</fix>
</trkpt>
<trkpt lat="40.0713749" lon="-105.229789">
  <ele>1583.0</ele>
  <time>2026-08-28T17:50:31Z</time>
  <course>0.0</course>
  <speed>0.0</speed>
  <fix>3d</fix>
</trkpt>
<trkpt lat="40.0713749" lon="-105.229789">
  <ele>1583.0</ele>
  <time>2026-08-28T17:50:31Z</time>
  <course>247.93</course>
  <speed>0.022360679774997897</speed>
  <fix>3d</fix>
</trkpt>
<trkpt lat="40.0713749" lon="-105.229789">
  <ele>1583.0</ele>
  <time>2026-08-28T17:50:31Z</time>
  <course>0.0</course>
  <speed>0.0</speed>
  <fix>3d</fix>
</trkpt>
<trkpt lat="40.0713749" lon="-105.229789">
  <ele>1583.0</ele>
  <time>2026-08-28T17:50:31Z</time>
  <course>247.93</course>
  <speed>0.022360679774997897</speed>
  <fix>3d</fix>
</trkpt>
<trkpt lat="40.0713749" lon="-105.229789">
  <ele>1583.0</ele>
  <time>2026-08-28T17:50:31Z</time>
  <course>0.0</course>
  <speed>0.0</speed>
  <fix>3d</fix>
</trkpt>
<trkpt lat="40.0713749" lon="-105.229789">
  <ele>1583.0</ele>
  <time>2026-08-28T17:50:31Z</time>
  <course>247.92</course>
  <speed>0.022360679774997897</speed>
  <fix>3d</fix>
</trkpt>
<trkpt lat="40.0713749" lon="-105.229789">
  <ele>1583.0</ele>
  <time>2026-08-28T17:50:31Z</time>
  <course>0.0</course>
  <speed>0.0</speed>
  <fix>3d</fix>
</trkpt>
<trkpt lat="40.0713749" lon="-105.229789">
  <ele>1583.0</ele>
  <time>2026-08-28T17:50:31Z</time>
  <course>247.92</course>
  <speed>0.022360679774997897</speed>
  <fix>3d</fix>
</trkpt>
<trkpt lat="40.0713749" lon="-105.229789">
  <ele>1583.0</ele>
  <time>2026-08-28T17:50:31Z</time>
  <course>0.0</course>
  <speed>0.0</speed>
  <fix>3d</fix>
</trkpt>
<trkpt lat="40.0713749" lon="-105.229789">
  <ele>1583.0</ele>
  <time>2026-08-28T17:50:31Z</time>
  <course>247.91</course>
  <speed>0.022360679774997897</speed>
  <fix>3d</fix>
</trkpt>
<trkpt lat="40.0713749" lon="-105.229789">
  <ele>1583.0</ele>
  <time>2026-08-28T17:50:31Z</time>
  <course>0.0</course>
  <speed>0.0</speed>
  <fix>3d</fix>
</trkpt>
<trkpt lat="40.0713749" lon="-105.229789">
  <ele>1583.0</ele>
  <time>2026-08-28T17:50:31Z</time>
  <course>247.91</course>
  <speed>0.022360679774997897</speed>
  <fix>3d</fix>
</trkpt>
<trkpt lat="40.0713749" lon="-105.229789">
  <ele>1583.0</ele>
  <time>2026-08-28T17:50:31Z</time>
  <course>0.0</course>
  <speed>0.0</speed>
  <fix>3d</fix>
</trkpt>
<trkpt lat="40.0713749" lon="-105.229789">
  <ele>1583.0</ele>
  <time>2026-08-28T17:50:31Z</time>
  <course>247.91</course>
  <speed>0.022360679774997897</speed>
  <fix>3d</fix>
</trkpt>
<trkpt lat="40.0713749" lon="-105.229789">
  <ele>1583.0</ele>
  <time>2026-08-28T17:50:31Z</time>
  <course>0.0</course>
  <speed>0.0</speed>
  <fix>3d</fix>
</trkpt>
<trkpt lat="40.0713749" lon="-105.229789">
  <ele>1583.0</ele>
  <time>2026-08-28T17:50:31Z</time>
  <course>247.9</course>
  <speed>0.022360679774997897</speed>
  <fix>3d</fix>
</trkpt>
<trkpt lat="40.0713749" lon="-105.229789">
  <ele>1583.0</ele>
  <time>2026-08-28T17:50:31Z</time>
  <course>0.0</course>
  <speed>0.0</speed>
  <fix>3d</fix>
</trkpt>
<trkpt lat="40.0713749" lon="-105.229789">
  <ele>1583.0</ele>
  <time>2026-08-28T17:50:31Z</time>
  <course>247.9</course>
  <speed>0.022360679774997897</speed>
  <fix>3d</fix>
</trkpt>
<trkpt lat="40.0713749" lon="-105.229789">
  <ele>1583.0</ele>
  <time>2026-08-28T17:50:31Z</time>
  <course>0.0</course>
  <speed>0.0</speed>
  <fix>3d</fix>
</trkpt>
<trkpt lat="40.0713749" lon="-105.229789">
  <ele>1583.0</ele>
  <time>2026-08-28T17:50:31Z</time>
  <course>247.89</course>
  <speed>0.022360679774997897</speed>
  <fix>3d</fix>
</trkpt>
<trkpt lat="40.0713749" lon="-105.229789">
  <ele>1583.0</ele>
  <time>2026-08-28T17:50:31Z</time>
  <course>0.0</course>
  <speed>0.0</speed>
  <fix>3d</fix>
</trkpt>
<trkpt lat="40.0713749" lon="-105.229789">
  <ele>1583.0</ele>
  <time>2026-08-28T17:50:31Z</time>
  <course>247.89</course>
  <speed>0.022360679774997897</speed>
  <fix>3d</fix>
</trkpt>
<trkpt lat="40.0713749" lon="-105.229789">
  <ele>1583.0</ele>
  <time>2026-08-28T17:50:31Z</time>
  <course>0.0</course>
  <speed>0.0</speed>
  <fix>3d</fix>
</trkpt>
<trkpt lat="40.0713749" lon="-105.229789">
  <ele>1583.0</ele>
  <time>2026-08-28T17:50:31Z</time>
  <course>247.88</course>
  <speed>0.022360679774997897</speed>
  <fix>3d</fix>
</trkpt>
<trkpt lat="40.0713749" lon="-105.229789">
  <ele>1583.0</ele>
  <time>2026-08-28T17:50:31Z</time>
  <course>0.0</course>
  <speed>0.0</speed>
  <fix>3d</fix>
</trkpt>
<trkpt lat="40.0713749" lon="-105.229789">
  <ele>1583.0</ele>
  <time>2026-08-28T17:50:31Z</time>
  <course>247.88</course>
  <speed>0.0316227766016838</speed>
  <fix>3d</fix>
</trkpt>
<trkpt lat="40.0713749" lon="-105.229789">
  <ele>1583.0</ele>
  <time>2026-08-28T17:50:31Z</time>
  <course>0.0</course>
  <speed>0.0</speed>
  <fix>3d</fix>
</trkpt>
<trkpt lat="40.0713749" lon="-105.229789">
  <ele>1583.0</ele>
  <time>2026-08-28T17:50:31Z</time>
  <course>247.88</course>
  <speed>0.0316227766016838</speed>
  <fix>3d</fix>
</trkpt>
<trkpt lat="40.0713749" lon="-105.229789">
  <ele>1583.0</ele>
  <time>2026-08-28T17:50:31Z</time>
  <course>0.0</course>
  <speed>0.0</speed>
  <fix>3d</fix>
</trkpt>
<trkpt lat="40.0713749" lon="-105.229789">
  <ele>1583.0</ele>
  <time>2026-08-28T17:50:31Z</time>
  <course>247.87</course>
  <speed>0.0316227766016838</speed>
  <fix>3d</fix>
</trkpt>
<trkpt lat="40.0713749" lon="-105.229789">
  <ele>1583.0</ele>
  <time>2026-08-28T17:50:31Z</time>
  <course>0.0</course>
  <speed>0.0</speed>
  <fix>3d</fix>
</trkpt>
<trkpt lat="40.0713749" lon="-105.229789">
  <ele>1583.0</ele>
  <time>2026-08-28T17:50:31Z</time>
  <course>247.87</course>
  <speed>0.0316227766016838</speed>
  <fix>3d</fix>
</trkpt>
<trkpt lat="40.0713749" lon="-105.229789">
  <ele>1583.0</ele>
  <time>2026-08-28T17:50:31Z</time>
  <course>0.0</course>
  <speed>0.0</speed>
  <fix>3d</fix>
</trkpt>
<trkpt lat="40.0713749" lon="-105.229789">
  <ele>1583.0</ele>
  <time>2026-08-28T17:50:31Z</time>
  <course>247.87</course>
  <speed>0.0316227766016838</speed>
  <fix>3d</fix>
</trkpt>
<trkpt lat="40.0713749" lon="-105.229789">
  <ele>1583.0</ele>
  <time>2026-08-28T17:50:31Z</time>
  <course>0.0</course>
  <speed>0.0</speed>
  <fix>3d</fix>
</trkpt>
<trkpt lat="40.0713749" lon="-105.229789">
  <ele>1583.0</ele>
  <time>2026-08-28T17:50:31Z</time>
  <course>247.86</course>
  <speed>0.0316227766016838</speed>
  <fix>3d</fix>
</trkpt>
<trkpt lat="40.0713749" lon="-105.229789">
  <ele>1583.0</ele>
  <time>2026-08-28T17:50:31Z</time>
  <course>0.0</course>
  <speed>0.0</speed>
  <fix>3d</fix>
</trkpt>
<trkpt lat="40.0713749" lon="-105.229789">
  <ele>1583.0</ele>
  <time>2026-08-28T17:50:31Z</time>
  <course>247.86</course>
  <speed>0.0316227766016838</speed>
  <fix>3d</fix>
</trkpt>
<trkpt lat="40.0713749" lon="-105.229789">
  <ele>1583.0</ele>
  <time>2026-08-28T17:50:31Z</time>
  <course>0.0</course>
  <speed>0.0</speed>
  <fix>3d</fix>
</trkpt>
<trkpt lat="40.0713749" lon="-105.229789">
  <ele>1583.0</ele>
  <time>2026-08-28T17:50:31Z</time>
  <course>247.85</course>
  <speed>0.0316227766016838</speed>
  <fix>3d</fix>
</trkpt>
<trkpt lat="40.0713749" lon="-105.229789">
  <ele>1583.0</ele>
  <time>2026-08-28T17:50:31Z</time>
  <course>0.0</course>
  <speed>0.0</speed>
  <fix>3d</fix>
</trkpt>
<trkpt lat="40.0713749" lon="-105.229789">
  <ele>1583.0</ele>
  <time>2026-08-28T17:50:31Z</time>
  <course>247.85</course>
  <speed>0.0316227766016838</speed>
  <fix>3d</fix>
</trkpt>
<trkpt lat="40.0713749" lon="-105.229789">
  <ele>1583.0</ele>
  <time>2026-08-28T17:50:31Z</time>
  <course>0.0</course>
  <speed>0.0</speed>
  <fix>3d</fix>
</trkpt>
<trkpt lat="40.0713749" lon="-105.229789">
  <ele>1583.0</ele>
  <time>2026-08-28T17:50:31Z</time>
  <course>247.85</course>
  <speed>0.0316227766016838</speed>
  <fix>3d</fix>
</trkpt>
<trkpt lat="40.0713749" lon="-105.229789">
  <ele>1583.0</ele>
  <time>2026-08-28T17:50:31Z</time>
  <course>0.0</course>
  <speed>0.0</speed>
  <fix>3d</fix>
</trkpt>
<trkpt lat="40.0713749" lon="-105.229789">
  <ele>1583.0</ele>
  <time>2026-08-28T17:50:31Z</time>
  <course>247.84</course>
  <speed>0.0316227766016838</speed>
  <fix>3d</fix>
</trkpt>
<trkpt lat="40.0713749" lon="-105.229789">
  <ele>1583.0</ele>
  <time>2026-08-28T17:50:31Z</time>
  <course>0.0</course>
  <speed>0.0</speed>
  <fix>3d</fix>
</trkpt>
<trkpt lat="40.0713749" lon="-105.229789">
  <ele>1583.0</ele>
  <time>2026-08-28T17:50:31Z</time>
  <course>247.84</course>
  <speed>0.0316227766016838</speed>
  <fix>3d</fix>
</trkpt>
<trkpt lat="40.0713749" lon="-105.229789">
  <ele>1583.0</ele>
  <time>2026-08-28T17:50:31Z</time>
  <course>0.0</course>
  <speed>0.0</speed>
  <fix>3d</fix>
</trkpt>
<trkpt lat="40.0713749" lon="-105.229789">
  <ele>1583.0</ele>
  <time>2026-08-28T17:50:31Z</time>
  <course>247.83</course>
  <speed>0.0316227766016838</speed>
  <fix>3d</fix>
</trkpt>
<trkpt lat="40.0713749" lon="-105.229789">
  <ele>1583.0</ele>
  <time>2026-08-28T17:50:31Z</time>
  <course>0.0</course>
  <speed>0.0</speed>
  <fix>3d</fix>
</trkpt>
<trkpt lat="40.0713749" lon="-105.229789">
  <ele>1583.0</ele>
  <time>2026-08-28T17:50:31Z</time>
  <course>247.83</course>
  <speed>0.0316227766016838</speed>
  <fix>3d</fix>
</trkpt>
<trkpt lat="40.0713749" lon="-105.229789">
  <ele>1583.0</ele>
  <time>2026-08-28T17:50:31Z</time>
  <course>0.0</course>
  <speed>0.0</speed>
  <fix>3d</fix>
</trkpt>
<trkpt lat="40.0713749" lon="-105.229789">
  <ele>1583.0</ele>
  <time>2026-08-28T17:50:31Z</time>
  <course>247.83</course>
  <speed>0.0316227766016838</speed>
  <fix>3d</fix>
</trkpt>
<trkpt lat="40.0713749" lon="-105.229789">
  <ele>1583.0</ele>
  <time>2026-08-28T17:50:31Z</time>
  <course>0.0</course>
  <speed>0.0</speed>
  <fix>3d</fix>
</trkpt>
<trkpt lat="40.0713749" lon="-105.229789">
  <ele>1583.0</ele>
  <time>2026-08-28T17:50:31Z</time>
  <course>247.82</course>
  <speed>0.0316227766016838</speed>
  <fix>3d</fix>
</trkpt>
<trkpt lat="40.0713749" lon="-105.229789">
  <ele>1583.0</ele>
  <time>2026-08-28T17:50:31Z</time>
  <course>0.0</course>
  <speed>0.0</speed>
  <fix>3d</fix>
</trkpt>
<trkpt lat="40.0713749" lon="-105.229789">
  <ele>1583.0</ele>
  <time>2026-08-28T17:50:31Z</time>
  <course>247.82</course>
  <speed>0.0316227766016838</speed>
  <fix>3d</fix>
</trkpt>
<trkpt lat="40.0713749" lon="-105.229789">
  <ele>1583.0</ele>
  <time>2026-08-28T17:50:31Z</time>
  <course>0.0</course>
  <speed>0.0</speed>
  <fix>3d</fix>
</trkpt>
<trkpt lat="40.0713749" lon="-105.229789">
  <ele>1583.0</ele>
  <time>2026-08-28T17:50:31Z</time>
  <course>247.81</course>
  <speed>0.0316227766016838</speed>
  <fix>3d</fix>
</trkpt>
<trkpt lat="40.0713749" lon="-105.229789">
  <ele>1583.0</ele>
  <time>2026-08-28T17:50:31Z</time>
  <course>0.0</course>
  <speed>0.0</speed>
  <fix>3d</fix>
</trkpt>
<trkpt lat="40.0713749" lon="-105.229789">
  <ele>1583.0</ele>
  <time>2026-08-28T17:50:31Z</time>
  <course>247.81</course>
  <speed>0.0316227766016838</speed>
  <fix>3d</fix>
</trkpt>
<trkpt lat="40.0713749" lon="-105.229789">
  <ele>1583.0</ele>
  <time>2026-08-28T17:50:31Z</time>
  <course>0.0</course>
  <speed>0.0</speed>
  <fix>3d</fix>
</trkpt>
<trkpt lat="40.0713749" lon="-105.229789">
  <ele>1583.0</ele>
  <time>2026-08-28T17:50:31Z</time>
  <course>247.81</course>
  <speed>0.0316227766016838</speed>
  <fix>3d</fix>
</trkpt>
<trkpt lat="40.0713749" lon="-105.229789">
  <ele>1583.0</ele>
  <time>2026-08-28T17:50:31Z</time>
  <course>0.0</course>
  <speed>0.0</speed>
  <fix>3d</fix>
</trkpt>
<trkpt lat="40.0713749" lon="-105.229789">
  <ele>1583.0</ele>
  <time>2026-08-28T17:50:31Z</time>
  <course>247.8</course>
  <speed>0.0316227766016838</speed>
  <fix>3d</fix>
</trkpt>
<trkpt lat="40.0713749" lon="-105.229789">
  <ele>1583.0</ele>
  <time>2026-08-28T17:50:31Z</time>
  <course>0.0</course>
  <speed>0.0</speed>
  <fix>3d</fix>
</trkpt>
<trkpt lat="40.0713749" lon="-105.229789">
  <ele>1583.0</ele>
  <time>2026-08-28T17:50:31Z</time>
  <course>247.8</course>
  <speed>0.0316227766016838</speed>
  <fix>3d</fix>
</trkpt>
<trkpt lat="40.0713749" lon="-105.229789">
  <ele>1583.0</ele>
  <time>2026-08-28T17:50:31Z</time>
  <course>0.0</course>
  <speed>0.0</speed>
  <fix>3d</fix>
</trkpt>
<trkpt lat="40.0713749" lon="-105.229789">
  <ele>1583.0</ele>
  <time>2026-08-28T17:50:31Z</time>
  <course>247.8</course>
  <speed>0.0316227766016838</speed>
  <fix>3d</fix>
</trkpt>
<trkpt lat="40.0713749" lon="-105.229789">
  <ele>1583.0</ele>
  <time>2026-08-28T17:50:31Z</time>
  <course>0.0</course>
  <speed>0.0</speed>
  <fix>3d</fix>
</trkpt>
<trkpt lat="40.0713749" lon="-105.229789">
  <ele>1583.0</ele>
  <time>2026-08-28T17:50:31Z</time>
  <course>247.79</course>
  <speed>0.0316227766016838</speed>
  <fix>3d</fix>
</trkpt>
<trkpt lat="40.0713749" lon="-105.229789">
  <ele>1583.0</ele>
  <time>2026-08-28T17:50:31Z</time>
  <course>0.0</course>
  <speed>0.0</speed>
  <fix>3d</fix>
</trkpt>
<trkpt lat="40.0713749" lon="-105.229789">
  <ele>1583.0</ele>
  <time>2026-08-28T17:50:31Z</time>
  <course>247.79</course>
  <speed>0.0316227766016838</speed>
  <fix>3d</fix>
</trkpt>
<trkpt lat="40.0713749" lon="-105.229789">
  <ele>1583.0</ele>
  <time>2026-08-28T17:50:31Z</time>
  <course>0.0</course>
  <speed>0.0</speed>
  <fix>3d</fix>
</trkpt>
<trkpt lat="40.0713749" lon="-105.229789">
  <ele>1583.0</ele>
  <time>2026-08-28T17:50:31Z</time>
  <course>247.79</course>
  <speed>0.0316227766016838</speed>
  <fix>3d</fix>
</trkpt>
<trkpt lat="40.0713749" lon="-105.229789">
  <ele>1583.0</ele>
  <time>2026-08-28T17:50:31Z</time>
  <course>0.0</course>
  <speed>0.0</speed>
  <fix>3d</fix>
</trkpt>
<trkpt lat="40.0713749" lon="-105.229789">
  <ele>1583.0</ele>
  <time>2026-08-28T17:50:31Z</time>
  <course>247.78</course>
  <speed>0.0316227766016838</speed>
  <fix>3d</fix>
</trkpt>
<trkpt lat="40.0713749" lon="-105.229789">
  <ele>1583.0</ele>
  <time>2026-08-28T17:50:31Z</time>
  <course>0.0</course>
  <speed>0.0</speed>
  <fix>3d</fix>
</trkpt>
<trkpt lat="40.0713749" lon="-105.229789">
  <ele>1583.0</ele>
  <time>2026-08-28T17:50:31Z</time>
  <course>247.78</course>
  <speed>0.0316227766016838</speed>
  <fix>3d</fix>
</trkpt>
<trkpt lat="40.0713749" lon="-105.229789">
  <ele>1583.0</ele>
  <time>2026-08-28T17:50:31Z</time>
  <course>0.0</course>
  <speed>0.0</speed>
  <fix>3d</fix>
</trkpt>
<trkpt lat="40.0713749" lon="-105.229789">
  <ele>1583.0</ele>
  <time>2026-08-28T17:50:31Z</time>
  <course>247.78</course>
  <speed>0.0316227766016838</speed>
  <fix>3d</fix>
</trkpt>
<trkpt lat="40.0713749" lon="-105.229789">
  <ele>1583.0</ele>
  <time>2026-08-28T17:50:31Z</time>
  <course>0.0</course>
  <speed>0.0</speed>
  <fix>3d</fix>
</trkpt>
<trkpt lat="40.0713749" lon="-105.229789">
  <ele>1583.0</ele>
  <time>2026-08-28T17:50:31Z</time>
  <course>247.77</course>
  <speed>0.0316227766016838</speed>
  <fix>3d</fix>
</trkpt>
<trkpt lat="40.0713749" lon="-105.229789">
  <ele>1583.0</ele>
  <time>2026-08-28T17:50:31Z</time>
  <course>0.0</course>
  <speed>0.0</speed>
  <fix>3d</fix>
</trkpt>
<trkpt lat="40.0713749" lon="-105.229789">
  <ele>1583.0</ele>
  <time>2026-08-28T17:50:31Z</time>
  <course>247.77</course>
  <speed>0.0316227766016838</speed>
  <fix>3d</fix>
</trkpt>
<trkpt lat="40.0713749" lon="-105.229789">
  <ele>1583.0</ele>
  <time>2026-08-28T17:50:31Z</time>
  <course>0.0</course>
  <speed>0.0</speed>
  <fix>3d</fix>
</trkpt>
<trkpt lat="40.0713749" lon="-105.229789">
  <ele>1583.0</ele>
  <time>2026-08-28T17:50:31Z</time>
  <course>247.76</course>
  <speed>0.0316227766016838</speed>
  <fix>3d</fix>
</trkpt>
<trkpt lat="40.0713749" lon="-105.229789">
  <ele>1583.0</ele>
  <time>2026-08-28T17:50:31Z</time>
  <course>0.0</course>
  <speed>0.0</speed>
  <fix>3d</fix>
</trkpt>
<trkpt lat="40.0713749" lon="-105.229789">
  <ele>1583.0</ele>
  <time>2026-08-28T17:50:31Z</time>
  <course>247.76</course>
  <speed>0.0316227766016838</speed>
  <fix>3d</fix>
</trkpt>
<trkpt lat="40.0713749" lon="-105.229789">
  <ele>1583.0</ele>
  <time>2026-08-28T17:50:31Z</time>
  <course>0.0</course>
  <speed>0.0</speed>
  <fix>3d</fix>
</trkpt>
<trkpt lat="40.0713749" lon="-105.229789">
  <ele>1583.0</ele>
  <time>2026-08-28T17:50:31Z</time>
  <course>247.76</course>
  <speed>0.0316227766016838</speed>
  <fix>3d</fix>
</trkpt>
<trkpt lat="40.0713749" lon="-105.229789">
  <ele>1583.0</ele>
  <time>2026-08-28T17:50:31Z</time>
  <course>0.0</course>
  <speed>0.0</speed>
  <fix>3d</fix>
</trkpt>
<trkpt lat="40.0713749" lon="-105.229789">
  <ele>1583.0</ele>
  <time>2026-08-28T17:50:31Z</time>
  <course>247.75</course>
  <speed>0.0316227766016838</speed>
  <fix>3d</fix>
</trkpt>
<trkpt lat="40.0713749" lon="-105.229789">
  <ele>1583.0</ele>
  <time>2026-08-28T17:50:31Z</time>
  <course>0.0</course>
  <speed>0.0</speed>
  <fix>3d</fix>
</trkpt>
<trkpt lat="40.0713749" lon="-105.229789">
  <ele>1583.0</ele>
  <time>2026-08-28T17:50:31Z</time>
  <course>247.75</course>
  <speed>0.0316227766016838</speed>
  <fix>3d</fix>
</trkpt>
<trkpt lat="40.0713749" lon="-105.229789">
  <ele>1583.0</ele>
  <time>2026-08-28T17:50:31Z</time>
  <course>0.0</course>
  <speed>0.0</speed>
  <fix>3d</fix>
</trkpt>
<trkpt lat="40.0713749" lon="-105.229789">
  <ele>1583.0</ele>
  <time>2026-08-28T17:50:31Z</time>
  <course>247.74</course>
  <speed>0.0316227766016838</speed>
  <fix>3d</fix>
</trkpt>
<trkpt lat="40.0713749" lon="-105.229789">
  <ele>1583.0</ele>
  <time>2026-08-28T17:50:31Z</time>
  <course>0.0</course>
  <speed>0.0</speed>
  <fix>3d</fix>
</trkpt>
<trkpt lat="40.0713749" lon="-105.229789">
  <ele>1583.0</ele>
  <time>2026-08-28T17:50:31Z</time>
  <course>247.74</course>
  <speed>0.0316227766016838</speed>
  <fix>3d</fix>
</trkpt>
<trkpt lat="40.0713749" lon="-105.229789">
  <ele>1583.0</ele>
  <time>2026-08-28T17:50:31Z</time>
  <course>0.0</course>
  <speed>0.0</speed>
  <fix>3d</fix>
</trkpt>
<trkpt lat="40.0713749" lon="-105.229789">
  <ele>1583.0</ele>
  <time>2026-08-28T17:50:31Z</time>
  <course>247.74</course>
  <speed>0.0316227766016838</speed>
  <fix>3d</fix>
</trkpt>
<trkpt lat="40.0713749" lon="-105.229789">
  <ele>1583.0</ele>
  <time>2026-08-28T17:50:31Z</time>
  <course>0.0</course>
  <speed>0.0</speed>
  <fix>3d</fix>
</trkpt>
<trkpt lat="40.0713749" lon="-105.229789">
  <ele>1583.0</ele>
  <time>2026-08-28T17:50:31Z</time>
  <course>247.73</course>
  <speed>0.0316227766016838</speed>
  <fix>3d</fix>
</trkpt>
<trkpt lat="40.0713749" lon="-105.229789">
  <ele>1583.0</ele>
  <time>2026-08-28T17:50:31Z</time>
  <course>0.0</course>
  <speed>0.0</speed>
  <fix>3d</fix>
</trkpt>
<trkpt lat="40.0713749" lon="-105.229789">
  <ele>1583.0</ele>
  <time>2026-08-28T17:50:31Z</time>
  <course>247.73</course>
  <speed>0.0316227766016838</speed>
  <fix>3d</fix>
</trkpt>
<trkpt lat="40.0713749" lon="-105.229789">
  <ele>1583.0</ele>
  <time>2026-08-28T17:50:31Z</time>
  <course>0.0</course>
  <speed>0.0</speed>
  <fix>3d</fix>
</trkpt>
<trkpt lat="40.0713749" lon="-105.229789">
  <ele>1583.0</ele>
  <time>2026-08-28T17:50:31Z</time>
  <course>247.73</course>
  <speed>0.0316227766016838</speed>
  <fix>3d</fix>
</trkpt>
<trkpt lat="40.0713749" lon="-105.229789">
  <ele>1583.0</ele>
  <time>2026-08-28T17:50:31Z</time>
  <course>0.0</course>
  <speed>0.0</speed>
  <fix>3d</fix>
</trkpt>
<trkpt lat="40.0713749" lon="-105.229789">
  <ele>1583.0</ele>
  <time>2026-08-28T17:50:31Z</time>
  <course>247.72</course>
  <speed>0.0316227766016838</speed>
  <fix>3d</fix>
</trkpt>
<trkpt lat="40.0713749" lon="-105.229789">
  <ele>1583.0</ele>
  <time>2026-08-28T17:50:31Z</time>
  <course>0.0</course>
  <speed>0.0</speed>
  <fix>3d</fix>
</trkpt>
<trkpt lat="40.0713749" lon="-105.229789">
  <ele>1583.0</ele>
  <time>2026-08-28T17:50:31Z</time>
  <course>247.72</course>
  <speed>0.0316227766016838</speed>
  <fix>3d</fix>
</trkpt>
<trkpt lat="40.0713749" lon="-105.229789">
  <ele>1583.0</ele>
  <time>2026-08-28T17:50:31Z</time>
  <course>0.0</course>
  <speed>0.0</speed>
  <fix>3d</fix>
</trkpt>
<trkpt lat="40.0713749" lon="-105.229789">
  <ele>1583.0</ele>
  <time>2026-08-28T17:50:31Z</time>
  <course>247.72</course>
  <speed>0.0316227766016838</speed>
  <fix>3d</fix>
</trkpt>
<trkpt lat="40.0713749" lon="-105.229789">
  <ele>1583.0</ele>
  <time>2026-08-28T17:50:31Z</time>
  <course>0.0</course>
  <speed>0.0</speed>
  <fix>3d</fix>
</trkpt>
<trkpt lat="40.0713749" lon="-105.229789">
  <ele>1583.0</ele>
  <time>2026-08-28T17:50:31Z</time>
  <course>247.72</course>
  <speed>0.0316227766016838</speed>
  <fix>3d</fix>
</trkpt>
<trkpt lat="40.0713749" lon="-105.229789">
  <ele>1583.0</ele>
  <time>2026-08-28T17:50:31Z</time>
  <course>0.0</course>
  <speed>0.0</speed>
  <fix>3d</fix>
</trkpt>
<trkpt lat="40.0713749" lon="-105.229789">
  <ele>1583.0</ele>
  <time>2026-08-28T17:50:31Z</time>
  <course>247.71</course>
  <speed>0.0316227766016838</speed>
  <fix>3d</fix>
</trkpt>
<trkpt lat="40.0713749" lon="-105.229789">
  <ele>1583.0</ele>
  <time>2026-08-28T17:50:31Z</time>
  <course>0.0</course>
  <speed>0.0</speed>
  <fix>3d</fix>
</trkpt>
<trkpt lat="40.0713749" lon="-105.229789">
  <ele>1583.0</ele>
  <time>2026-08-28T17:50:31Z</time>
  <course>247.71</course>
  <speed>0.0316227766016838</speed>
  <fix>3d</fix>
</trkpt>
<trkpt lat="40.0713749" lon="-105.229789">
  <ele>1583.0</ele>
  <time>2026-08-28T17:50:31Z</time>
  <course>0.0</course>
  <speed>0.0</speed>
  <fix>3d</fix>
</trkpt>
<trkpt lat="40.0713749" lon="-105.229789">
  <ele>1583.0</ele>
  <time>2026-08-28T17:50:31Z</time>
  <course>247.71</course>
  <speed>0.0316227766016838</speed>
  <fix>3d</fix>
</trkpt>
<trkpt lat="40.0713749" lon="-105.229789">
  <ele>1583.0</ele>
  <time>2026-08-28T17:50:31Z</time>
  <course>0.0</course>
  <speed>0.0</speed>
  <fix>3d</fix>
</trkpt>
<trkpt lat="40.0713749" lon="-105.229789">
  <ele>1583.0</ele>
  <time>2026-08-28T17:50:31Z</time>
  <course>247.7</course>
  <speed>0.0316227766016838</speed>
  <fix>3d</fix>
</trkpt>
<trkpt lat="40.0713749" lon="-105.229789">
  <ele>1583.0</ele>
  <time>2026-08-28T17:50:31Z</time>
  <course>0.0</course>
  <speed>0.0</speed>
  <fix>3d</fix>
</trkpt>
<trkpt lat="40.0713749" lon="-105.229789">
  <ele>1583.0</ele>
  <time>2026-08-28T17:50:31Z</time>
  <course>247.7</course>
  <speed>0.0316227766016838</speed>
  <fix>3d</fix>
</trkpt>
<trkpt lat="40.0713749" lon="-105.229789">
  <ele>1583.0</ele>
  <time>2026-08-28T17:50:31Z</time>
  <course>0.0</course>
  <speed>0.0</speed>
  <fix>3d</fix>
</trkpt>
<trkpt lat="40.0713749" lon="-105.229789">
  <ele>1583.0</ele>
  <time>2026-08-28T17:50:31Z</time>
  <course>247.7</course>
  <speed>0.0316227766016838</speed>
  <fix>3d</fix>
</trkpt>
<trkpt lat="40.0713749" lon="-105.229789">
  <ele>1583.0</ele>
  <time>2026-08-28T17:50:31Z</time>
  <course>0.0</course>
  <speed>0.0</speed>
  <fix>3d</fix>
</trkpt>
<trkpt lat="40.0713749" lon="-105.229789">
  <ele>1583.0</ele>
  <time>2026-08-28T17:50:31Z</time>
  <course>247.69</course>
  <speed>0.0316227766016838</speed>
  <fix>3d</fix>
</trkpt>
<trkpt lat="40.0713749" lon="-105.229789">
  <ele>1583.0</ele>
  <time>2026-08-28T17:50:31Z</time>
  <course>0.0</course>
  <speed>0.0</speed>
  <fix>3d</fix>
</trkpt>
<trkpt lat="40.0713749" lon="-105.229789">
  <ele>1583.0</ele>
  <time>2026-08-28T17:50:31Z</time>
  <course>247.69</course>
  <speed>0.0316227766016838</speed>
  <fix>3d</fix>
</trkpt>
<trkpt lat="40.0713749" lon="-105.229789">
  <ele>1583.0</ele>
  <time>2026-08-28T17:50:31Z</time>
  <course>0.0</course>
  <speed>0.0</speed>
  <fix>3d</fix>
</trkpt>
<trkpt lat="40.0713749" lon="-105.229789">
  <ele>1583.0</ele>
  <time>2026-08-28T17:50:31Z</time>
  <course>247.68</course>
  <speed>0.0316227766016838</speed>
  <fix>3d</fix>
</trkpt>
<trkpt lat="40.0713749" lon="-105.229789">
  <ele>1583.0</ele>
  <time>2026-08-28T17:50:31Z</time>
  <course>0.0</course>
  <speed>0.0</speed>
  <fix>3d</fix>
</trkpt>
<trkpt lat="40.0713749" lon="-105.229789">
  <ele>1583.0</ele>
  <time>2026-08-28T17:50:31Z</time>
  <course>247.68</course>
  <speed>0.0316227766016838</speed>
  <fix>3d</fix>
</trkpt>
<trkpt lat="40.0713749" lon="-105.229789">
  <ele>1583.0</ele>
  <time>2026-08-28T17:50:31Z</time>
  <course>0.0</course>
  <speed>0.0</speed>
  <fix>3d</fix>
</trkpt>
<trkpt lat="40.0713749" lon="-105.229789">
  <ele>1583.0</ele>
  <time>2026-08-28T17:50:31Z</time>
  <course>247.68</course>
  <speed>0.0316227766016838</speed>
  <fix>3d</fix>
</trkpt>
<trkpt lat="40.0713749" lon="-105.229789">
  <ele>1583.0</ele>
  <time>2026-08-28T17:50:31Z</time>
  <course>0.0</course>
  <speed>0.0</speed>
  <fix>3d</fix>
</trkpt>
<trkpt lat="40.0713749" lon="-105.229789">
  <ele>1583.0</ele>
  <time>2026-08-28T17:50:31Z</time>
  <course>247.67</course>
  <speed>0.0316227766016838</speed>
  <fix>3d</fix>
</trkpt>
<trkpt lat="40.0713749" lon="-105.229789">
  <ele>1583.0</ele>
  <time>2026-08-28T17:50:31Z</time>
  <course>0.0</course>
  <speed>0.0</speed>
  <fix>3d</fix>
</trkpt>
<trkpt lat="40.0713749" lon="-105.229789">
  <ele>1583.0</ele>
  <time>2026-08-28T17:50:31Z</time>
  <course>247.67</course>
  <speed>0.0316227766016838</speed>
  <fix>3d</fix>
</trkpt>
<trkpt lat="40.0713749" lon="-105.229789">
  <ele>1583.0</ele>
  <time>2026-08-28T17:50:31Z</time>
  <course>0.0</course>
  <speed>0.0</speed>
  <fix>3d</fix>
</trkpt>
<trkpt lat="40.0713749" lon="-105.229789">
  <ele>1583.0</ele>
  <time>2026-08-28T17:50:31Z</time>
  <course>247.67</course>
  <speed>0.0316227766016838</speed>
  <fix>3d</fix>
</trkpt>
<trkpt lat="40.0713749" lon="-105.229789">
  <ele>1583.0</ele>
  <time>2026-08-28T17:50:31Z</time>
  <course>0.0</course>
  <speed>0.0</speed>
  <fix>3d</fix>
</trkpt>
<trkpt lat="40.0713749" lon="-105.229789">
  <ele>1583.0</ele>
  <time>2026-08-28T17:50:31Z</time>
  <course>247.67</course>
  <speed>0.0316227766016838</speed>
  <fix>3d</fix>
</trkpt>
<trkpt lat="40.0713749" lon="-105.229789">
  <ele>1583.0</ele>
  <time>2026-08-28T17:50:31Z</time>
  <course>0.0</course>
  <speed>0.0</speed>
  <fix>3d</fix>
</trkpt>
<trkpt lat="40.0713749" lon="-105.229789">
  <ele>1583.0</ele>
  <time>2026-08-28T17:50:31Z</time>
  <course>247.66</course>
  <speed>0.0316227766016838</speed>
  <fix>3d</fix>
</trkpt>
<trkpt lat="40.0713749" lon="-105.229789">
  <ele>1583.0</ele>
  <time>2026-08-28T17:50:31Z</time>
  <course>0.0</course>
  <speed>0.0</speed>
  <fix>3d</fix>
</trkpt>
<trkpt lat="40.0713749" lon="-105.229789">
  <ele>1583.0</ele>
  <time>2026-08-28T17:50:31Z</time>
  <course>247.66</course>
  <speed>0.0316227766016838</speed>
  <fix>3d</fix>
</trkpt>
<trkpt lat="40.0713749" lon="-105.229789">
  <ele>1583.0</ele>
  <time>2026-08-28T17:50:32Z</time>
  <course>0.0</course>
  <speed>0.0</speed>
  <fix>3d</fix>
</trkpt>
<trkpt lat="40.0713749" lon="-105.229789">
  <ele>1583.0</ele>
  <time>2026-08-28T17:50:32Z</time>
  <course>247.66</course>
  <speed>0.0316227766016838</speed>
  <fix>3d</fix>
</trkpt>
<trkpt lat="40.0713749" lon="-105.229789">
  <ele>1583.0</ele>
  <time>2026-08-28T17:50:32Z</time>
  <course>0.0</course>
  <speed>0.0</speed>
  <fix>3d</fix>
</trkpt>
<trkpt lat="40.0713749" lon="-105.229789">
  <ele>1583.0</ele>
  <time>2026-08-28T17:50:32Z</time>
  <course>247.65</course>
  <speed>0.0316227766016838</speed>
  <fix>3d</fix>
</trkpt>
<trkpt lat="40.0713749" lon="-105.229789">
  <ele>1583.0</ele>
  <time>2026-08-28T17:50:32Z</time>
  <course>0.0</course>
  <speed>0.0</speed>
  <fix>3d</fix>
</trkpt>
<trkpt lat="40.0713749" lon="-105.229789">
  <ele>1583.0</ele>
  <time>2026-08-28T17:50:32Z</time>
  <course>247.65</course>
  <speed>0.0316227766016838</speed>
  <fix>3d</fix>
</trkpt>
<trkpt lat="40.0713749" lon="-105.229789">
  <ele>1583.0</ele>
  <time>2026-08-28T17:50:32Z</time>
  <course>0.0</course>
  <speed>0.0</speed>
  <fix>3d</fix>
</trkpt>
<trkpt lat="40.0713749" lon="-105.229789">
  <ele>1583.0</ele>
  <time>2026-08-28T17:50:32Z</time>
  <course>247.65</course>
  <speed>0.0316227766016838</speed>
  <fix>3d</fix>
</trkpt>
<trkpt lat="40.0713749" lon="-105.229789">
  <ele>1583.0</ele>
  <time>2026-08-28T17:50:32Z</time>
  <course>0.0</course>
  <speed>0.0</speed>
  <fix>3d</fix>
</trkpt>
<trkpt lat="40.0713749" lon="-105.229789">
  <ele>1583.0</ele>
  <time>2026-08-28T17:50:32Z</time>
  <course>247.64</course>
  <speed>0.0316227766016838</speed>
  <fix>3d</fix>
</trkpt>
<trkpt lat="40.0713749" lon="-105.229789">
  <ele>1583.0</ele>
  <time>2026-08-28T17:50:32Z</time>
  <course>0.0</course>
  <speed>0.0</speed>
  <fix>3d</fix>
</trkpt>
<trkpt lat="40.0713749" lon="-105.229789">
  <ele>1583.0</ele>
  <time>2026-08-28T17:50:32Z</time>
  <course>247.64</course>
  <speed>0.0316227766016838</speed>
  <fix>3d</fix>
</trkpt>
<trkpt lat="40.0713749" lon="-105.229789">
  <ele>1583.0</ele>
  <time>2026-08-28T17:50:32Z</time>
  <course>0.0</course>
  <speed>0.0</speed>
  <fix>3d</fix>
</trkpt>
<trkpt lat="40.0713749" lon="-105.229789">
  <ele>1583.0</ele>
  <time>2026-08-28T17:50:32Z</time>
  <course>247.64</course>
  <speed>0.0316227766016838</speed>
  <fix>3d</fix>
</trkpt>
<trkpt lat="40.0713749" lon="-105.229789">
  <ele>1583.0</ele>
  <time>2026-08-28T17:50:32Z</time>
  <course>0.0</course>
  <speed>0.0</speed>
  <fix>3d</fix>
</trkpt>
<trkpt lat="40.0713749" lon="-105.229789">
  <ele>1583.0</ele>
  <time>2026-08-28T17:50:32Z</time>
  <course>247.64</course>
  <speed>0.0316227766016838</speed>
  <fix>3d</fix>
</trkpt>
<trkpt lat="40.0713749" lon="-105.229789">
  <ele>1583.0</ele>
  <time>2026-08-28T17:50:32Z</time>
  <course>0.0</course>
  <speed>0.0</speed>
  <fix>3d</fix>
</trkpt>
<trkpt lat="40.0713749" lon="-105.229789">
  <ele>1583.0</ele>
  <time>2026-08-28T17:50:32Z</time>
  <course>247.63</course>
  <speed>0.0316227766016838</speed>
  <fix>3d</fix>
</trkpt>
<trkpt lat="40.0713749" lon="-105.229789">
  <ele>1583.0</ele>
  <time>2026-08-28T17:50:32Z</time>
  <course>0.0</course>
  <speed>0.0</speed>
  <fix>3d</fix>
</trkpt>
<trkpt lat="40.0713749" lon="-105.229789">
  <ele>1583.0</ele>
  <time>2026-08-28T17:50:32Z</time>
  <course>247.63</course>
  <speed>0.0316227766016838</speed>
  <fix>3d</fix>
</trkpt>
<trkpt lat="40.0713749" lon="-105.229789">
  <ele>1583.0</ele>
  <time>2026-08-28T17:50:32Z</time>
  <course>0.0</course>
  <speed>0.0</speed>
  <fix>3d</fix>
</trkpt>
<trkpt lat="40.0713749" lon="-105.229789">
  <ele>1583.0</ele>
  <time>2026-08-28T17:50:32Z</time>
  <course>247.63</course>
  <speed>0.0316227766016838</speed>
  <fix>3d</fix>
</trkpt>
<trkpt lat="40.0713749" lon="-105.229789">
  <ele>1583.0</ele>
  <time>2026-08-28T17:50:32Z</time>
  <course>0.0</course>
  <speed>0.0</speed>
  <fix>3d</fix>
</trkpt>
<trkpt lat="40.0713749" lon="-105.229789">
  <ele>1583.0</ele>
  <time>2026-08-28T17:50:32Z</time>
  <course>247.62</course>
  <speed>0.0316227766016838</speed>
  <fix>3d</fix>
</trkpt>
<trkpt lat="40.0713749" lon="-105.229789">
  <ele>1583.0</ele>
  <time>2026-08-28T17:50:32Z</time>
  <course>0.0</course>
  <speed>0.0</speed>
  <fix>3d</fix>
</trkpt>
<trkpt lat="40.0713749" lon="-105.229789">
  <ele>1583.0</ele>
  <time>2026-08-28T17:50:32Z</time>
  <course>247.62</course>
  <speed>0.0316227766016838</speed>
  <fix>3d</fix>
</trkpt>
<trkpt lat="40.0713749" lon="-105.229789">
  <ele>1583.0</ele>
  <time>2026-08-28T17:50:32Z</time>
  <course>0.0</course>
  <speed>0.0</speed>
  <fix>3d</fix>
</trkpt>
<trkpt lat="40.0713749" lon="-105.229789">
  <ele>1583.0</ele>
  <time>2026-08-28T17:50:32Z</time>
  <course>247.62</course>
  <speed>0.0316227766016838</speed>
  <fix>3d</fix>
</trkpt>
<trkpt lat="40.0713749" lon="-105.229789">
  <ele>1583.0</ele>
  <time>2026-08-28T17:50:32Z</time>
  <course>0.0</course>
  <speed>0.0</speed>
  <fix>3d</fix>
</trkpt>
<trkpt lat="40.0713749" lon="-105.229789">
  <ele>1583.0</ele>
  <time>2026-08-28T17:50:32Z</time>
  <course>247.61</course>
  <speed>0.0316227766016838</speed>
  <fix>3d</fix>
</trkpt>
<trkpt lat="40.0713749" lon="-105.229789">
  <ele>1583.0</ele>
  <time>2026-08-28T17:50:32Z</time>
  <course>0.0</course>
  <speed>0.0</speed>
  <fix>3d</fix>
</trkpt>
<trkpt lat="40.0713749" lon="-105.229789">
  <ele>1583.0</ele>
  <time>2026-08-28T17:50:32Z</time>
  <course>247.61</course>
  <speed>0.0316227766016838</speed>
  <fix>3d</fix>
</trkpt>
<trkpt lat="40.0713749" lon="-105.229789">
  <ele>1583.0</ele>
  <time>2026-08-28T17:50:32Z</time>
  <course>0.0</course>
  <speed>0.0</speed>
  <fix>3d</fix>
</trkpt>
<trkpt lat="40.0713749" lon="-105.229789">
  <ele>1583.0</ele>
  <time>2026-08-28T17:50:32Z</time>
  <course>247.61</course>
  <speed>0.0316227766016838</speed>
  <fix>3d</fix>
</trkpt>
<trkpt lat="40.0713749" lon="-105.229789">
  <ele>1583.0</ele>
  <time>2026-08-28T17:50:32Z</time>
  <course>0.0</course>
  <speed>0.0</speed>
  <fix>3d</fix>
</trkpt>
<trkpt lat="40.0713749" lon="-105.229789">
  <ele>1583.0</ele>
  <time>2026-08-28T17:50:32Z</time>
  <course>247.61</course>
  <speed>0.0316227766016838</speed>
  <fix>3d</fix>
</trkpt>
<trkpt lat="40.0713749" lon="-105.229789">
  <ele>1583.0</ele>
  <time>2026-08-28T17:50:32Z</time>
  <course>0.0</course>
  <speed>0.0</speed>
  <fix>3d</fix>
</trkpt>
<trkpt lat="40.0713749" lon="-105.229789">
  <ele>1583.0</ele>
  <time>2026-08-28T17:50:32Z</time>
  <course>247.6</course>
  <speed>0.0316227766016838</speed>
  <fix>3d</fix>
</trkpt>
<trkpt lat="40.0713749" lon="-105.229789">
  <ele>1583.0</ele>
  <time>2026-08-28T17:50:32Z</time>
  <course>0.0</course>
  <speed>0.0</speed>
  <fix>3d</fix>
</trkpt>
<trkpt lat="40.0713749" lon="-105.229789">
  <ele>1583.0</ele>
  <time>2026-08-28T17:50:32Z</time>
  <course>247.6</course>
  <speed>0.0316227766016838</speed>
  <fix>3d</fix>
</trkpt>
<trkpt lat="40.0713749" lon="-105.229789">
  <ele>1583.0</ele>
  <time>2026-08-28T17:50:32Z</time>
  <course>0.0</course>
  <speed>0.0</speed>
  <fix>3d</fix>
</trkpt>
<trkpt lat="40.0713749" lon="-105.229789">
  <ele>1583.0</ele>
  <time>2026-08-28T17:50:32Z</time>
  <course>247.6</course>
  <speed>0.0316227766016838</speed>
  <fix>3d</fix>
</trkpt>
<trkpt lat="40.0713749" lon="-105.229789">
  <ele>1583.0</ele>
  <time>2026-08-28T17:50:32Z</time>
  <course>0.0</course>
  <speed>0.0</speed>
  <fix>3d</fix>
</trkpt>
<trkpt lat="40.0713749" lon="-105.229789">
  <ele>1583.0</ele>
  <time>2026-08-28T17:50:32Z</time>
  <course>247.59</course>
  <speed>0.0316227766016838</speed>
  <fix>3d</fix>
</trkpt>
<trkpt lat="40.0713749" lon="-105.229789">
  <ele>1583.0</ele>
  <time>2026-08-28T17:50:32Z</time>
  <course>0.0</course>
  <speed>0.0</speed>
  <fix>3d</fix>
</trkpt>
<trkpt lat="40.0713749" lon="-105.229789">
  <ele>1583.0</ele>
  <time>2026-08-28T17:50:32Z</time>
  <course>247.59</course>
  <speed>0.0316227766016838</speed>
  <fix>3d</fix>
</trkpt>
<trkpt lat="40.0713749" lon="-105.229789">
  <ele>1583.0</ele>
  <time>2026-08-28T17:50:32Z</time>
  <course>0.0</course>
  <speed>0.0</speed>
  <fix>3d</fix>
</trkpt>
<trkpt lat="40.0713749" lon="-105.229789">
  <ele>1582.92</ele>
  <time>2026-08-28T17:50:32Z</time>
  <course>247.59</course>
  <speed>0.0</speed>
  <fix>3d</fix>
</trkpt>
<trkpt lat="40.0713749" lon="-105.229789">
  <ele>1583.0</ele>
  <time>2026-08-28T17:50:32Z</time>
  <course>0.0</course>
  <speed>0.0</speed>
  <fix>3d</fix>
</trkpt>
<trkpt lat="40.0713749" lon="-105.229789">
  <ele>1582.92</ele>
  <time>2026-08-28T17:50:32Z</time>
  <course>247.59</course>
  <speed>0.0</speed>
  <fix>3d</fix>
</trkpt>
<trkpt lat="40.0713749" lon="-105.229789">
  <ele>1583.0</ele>
  <time>2026-08-28T17:50:32Z</time>
  <course>0.0</course>
  <speed>0.0</speed>
  <fix>3d</fix>
</trkpt>
<trkpt lat="40.0713749" lon="-105.229789">
  <ele>1582.91</ele>
  <time>2026-08-28T17:50:32Z</time>
  <course>247.58</course>
  <speed>0.0</speed>
  <fix>3d</fix>
</trkpt>
<trkpt lat="40.0713749" lon="-105.229789">
  <ele>1583.0</ele>
  <time>2026-08-28T17:50:32Z</time>
  <course>0.0</course>
  <speed>0.0</speed>
  <fix>3d</fix>
</trkpt>
<trkpt lat="40.0713749" lon="-105.229789">
  <ele>1582.91</ele>
  <time>2026-08-28T17:50:32Z</time>
  <course>247.58</course>
  <speed>0.0</speed>
  <fix>3d</fix>
</trkpt>
<trkpt lat="40.0713749" lon="-105.229789">
  <ele>1583.0</ele>
  <time>2026-08-28T17:50:32Z</time>
  <course>0.0</course>
  <speed>0.0</speed>
  <fix>3d</fix>
</trkpt>
<trkpt lat="40.0713749" lon="-105.229789">
  <ele>1582.9</ele>
  <time>2026-08-28T17:50:32Z</time>
  <course>247.58</course>
  <speed>0.0</speed>
  <fix>3d</fix>
</trkpt>
<trkpt lat="40.0713749" lon="-105.229789">
  <ele>1583.0</ele>
  <time>2026-08-28T17:50:32Z</time>
  <course>0.0</course>
  <speed>0.0</speed>
  <fix>3d</fix>
</trkpt>
<trkpt lat="40.0713749" lon="-105.229789">
  <ele>1582.9</ele>
  <time>2026-08-28T17:50:32Z</time>
  <course>247.58</course>
  <speed>0.0</speed>
  <fix>3d</fix>
</trkpt>
<trkpt lat="40.0713749" lon="-105.229789">
  <ele>1583.0</ele>
  <time>2026-08-28T17:50:32Z</time>
  <course>0.0</course>
  <speed>0.0</speed>
  <fix>3d</fix>
</trkpt>
<trkpt lat="40.0713749" lon="-105.229789">
  <ele>1582.9</ele>
  <time>2026-08-28T17:50:32Z</time>
  <course>247.57</course>
  <speed>0.0</speed>
  <fix>3d</fix>
</trkpt>
<trkpt lat="40.0713749" lon="-105.229789">
  <ele>1583.0</ele>
  <time>2026-08-28T17:50:32Z</time>
  <course>0.0</course>
  <speed>0.0</speed>
  <fix>3d</fix>
</trkpt>
<trkpt lat="40.0713749" lon="-105.229789">
  <ele>1582.9</ele>
  <time>2026-08-28T17:50:32Z</time>
  <course>247.57</course>
  <speed>0.0</speed>
  <fix>3d</fix>
</trkpt>
<trkpt lat="40.0713749" lon="-105.229789">
  <ele>1583.0</ele>
  <time>2026-08-28T17:50:32Z</time>
  <course>0.0</course>
  <speed>0.0</speed>
  <fix>3d</fix>
</trkpt>
<trkpt lat="40.0713749" lon="-105.229789">
  <ele>1582.9</ele>
  <time>2026-08-28T17:50:32Z</time>
  <course>247.57</course>
  <speed>0.01</speed>
  <fix>3d</fix>
</trkpt>
<trkpt lat="40.0713749" lon="-105.229789">
  <ele>1583.0</ele>
  <time>2026-08-28T17:50:32Z</time>
  <course>0.0</course>
  <speed>0.0</speed>
  <fix>3d</fix>
</trkpt>
<trkpt lat="40.0713749" lon="-105.229789">
  <ele>1582.9</ele>
  <time>2026-08-28T17:50:32Z</time>
  <course>247.57</course>
  <speed>0.01</speed>
  <fix>3d</fix>
</trkpt>
<trkpt lat="40.0713749" lon="-105.229789">
  <ele>1583.0</ele>
  <time>2026-08-28T17:50:32Z</time>
  <course>0.0</course>
  <speed>0.0</speed>
  <fix>3d</fix>
</trkpt>
<trkpt lat="40.0713749" lon="-105.229789">
  <ele>1582.91</ele>
  <time>2026-08-28T17:50:32Z</time>
  <course>247.56</course>
  <speed>0.01</speed>
  <fix>3d</fix>
</trkpt>
<trkpt lat="40.0713749" lon="-105.229789">
  <ele>1583.0</ele>
  <time>2026-08-28T17:50:32Z</time>
  <course>0.0</course>
  <speed>0.0</speed>
  <fix>3d</fix>
</trkpt>
<trkpt lat="40.0713749" lon="-105.229789">
  <ele>1582.91</ele>
  <time>2026-08-28T17:50:32Z</time>
  <course>247.56</course>
  <speed>0.01</speed>
  <fix>3d</fix>
</trkpt>
<trkpt lat="40.0713749" lon="-105.229789">
  <ele>1583.0</ele>
  <time>2026-08-28T17:50:32Z</time>
  <course>0.0</course>
  <speed>0.0</speed>
  <fix>3d</fix>
</trkpt>
<trkpt lat="40.0713749" lon="-105.229789">
  <ele>1582.91</ele>
  <time>2026-08-28T17:50:32Z</time>
  <course>247.56</course>
  <speed>0.01</speed>
  <fix>3d</fix>
</trkpt>
<trkpt lat="40.0713749" lon="-105.229789">
  <ele>1583.0</ele>
  <time>2026-08-28T17:50:32Z</time>
  <course>0.0</course>
  <speed>0.0</speed>
  <fix>3d</fix>
</trkpt>
<trkpt lat="40.0713749" lon="-105.229789">
  <ele>1582.92</ele>
  <time>2026-08-28T17:50:32Z</time>
  <course>247.56</course>
  <speed>0.01</speed>
  <fix>3d</fix>
</trkpt>
<trkpt lat="40.0713749" lon="-105.229789">
  <ele>1583.0</ele>
  <time>2026-08-28T17:50:32Z</time>
  <course>0.0</course>
  <speed>0.0</speed>
  <fix>3d</fix>
</trkpt>
<trkpt lat="40.0713749" lon="-105.229789">
  <ele>1582.92</ele>
  <time>2026-08-28T17:50:32Z</time>
  <course>247.55</course>
  <speed>0.01</speed>
  <fix>3d</fix>
</trkpt>
<trkpt lat="40.0713749" lon="-105.229789">
  <ele>1583.0</ele>
  <time>2026-08-28T17:50:32Z</time>
  <course>0.0</course>
  <speed>0.0</speed>
  <fix>3d</fix>
</trkpt>
<trkpt lat="40.0713749" lon="-105.229789">
  <ele>1582.92</ele>
  <time>2026-08-28T17:50:32Z</time>
  <course>247.55</course>
  <speed>0.01</speed>
  <fix>3d</fix>
</trkpt>
<trkpt lat="40.0713749" lon="-105.229789">
  <ele>1583.0</ele>
  <time>2026-08-28T17:50:32Z</time>
  <course>0.0</course>
  <speed>0.0</speed>
  <fix>3d</fix>
</trkpt>
<trkpt lat="40.0713749" lon="-105.229789">
  <ele>1582.93</ele>
  <time>2026-08-28T17:50:32Z</time>
  <course>247.55</course>
  <speed>0.01</speed>
  <fix>3d</fix>
</trkpt>
<trkpt lat="40.0713749" lon="-105.229789">
  <ele>1583.0</ele>
  <time>2026-08-28T17:50:32Z</time>
  <course>0.0</course>
  <speed>0.0</speed>
  <fix>3d</fix>
</trkpt>
<trkpt lat="40.0713749" lon="-105.229789">
  <ele>1582.93</ele>
  <time>2026-08-28T17:50:32Z</time>
  <course>247.55</course>
  <speed>0.02</speed>
  <fix>3d</fix>
</trkpt>
<trkpt lat="40.0713749" lon="-105.229789">
  <ele>1583.0</ele>
  <time>2026-08-28T17:50:32Z</time>
  <course>0.0</course>
  <speed>0.0</speed>
  <fix>3d</fix>
</trkpt>
<trkpt lat="40.0713749" lon="-105.229789">
  <ele>1582.93</ele>
  <time>2026-08-28T17:50:32Z</time>
  <course>247.54</course>
  <speed>0.02</speed>
  <fix>3d</fix>
</trkpt>
<trkpt lat="40.0713749" lon="-105.229789">
  <ele>1583.0</ele>
  <time>2026-08-28T17:50:32Z</time>
  <course>0.0</course>
  <speed>0.0</speed>
  <fix>3d</fix>
</trkpt>
<trkpt lat="40.0713749" lon="-105.229789">
  <ele>1582.93</ele>
  <time>2026-08-28T17:50:32Z</time>
  <course>247.54</course>
  <speed>0.02</speed>
  <fix>3d</fix>
</trkpt>
<trkpt lat="40.0713749" lon="-105.229789">
  <ele>1583.0</ele>
  <time>2026-08-28T17:50:32Z</time>
  <course>0.0</course>
  <speed>0.0</speed>
  <fix>3d</fix>
</trkpt>
<trkpt lat="40.0713749" lon="-105.229789">
  <ele>1582.93</ele>
  <time>2026-08-28T17:50:32Z</time>
  <course>247.54</course>
  <speed>0.02</speed>
  <fix>3d</fix>
</trkpt>
<trkpt lat="40.0713749" lon="-105.229789">
  <ele>1583.0</ele>
  <time>2026-08-28T17:50:32Z</time>
  <course>0.0</course>
  <speed>0.0</speed>
  <fix>3d</fix>
</trkpt>
<trkpt lat="40.0713749" lon="-105.229789">
  <ele>1582.93</ele>
  <time>2026-08-28T17:50:32Z</time>
  <course>247.54</course>
  <speed>0.022360679774997897</speed>
  <fix>3d</fix>
</trkpt>
<trkpt lat="40.0713749" lon="-105.229789">
  <ele>1583.0</ele>
  <time>2026-08-28T17:50:32Z</time>
  <course>0.0</course>
  <speed>0.0</speed>
  <fix>3d</fix>
</trkpt>
<trkpt lat="40.0713749" lon="-105.229789">
  <ele>1582.94</ele>
  <time>2026-08-28T17:50:32Z</time>
  <course>247.53</course>
  <speed>0.022360679774997897</speed>
  <fix>3d</fix>
</trkpt>
<trkpt lat="40.0713749" lon="-105.229789">
  <ele>1583.0</ele>
  <time>2026-08-28T17:50:32Z</time>
  <course>0.0</course>
  <speed>0.0</speed>
  <fix>3d</fix>
</trkpt>
<trkpt lat="40.071375" lon="-105.229789">
  <ele>1582.94</ele>
  <time>2026-08-28T17:50:32Z</time>
  <course>247.53</course>
  <speed>0.022360679774997897</speed>
  <fix>3d</fix>
</trkpt>
<trkpt lat="40.0713749" lon="-105.229789">
  <ele>1583.0</ele>
  <time>2026-08-28T17:50:32Z</time>
  <course>0.0</course>
  <speed>0.0</speed>
  <fix>3d</fix>
</trkpt>
<trkpt lat="40.071375" lon="-105.229789">
  <ele>1582.94</ele>
  <time>2026-08-28T17:50:32Z</time>
  <course>247.53</course>
  <speed>0.02</speed>
  <fix>3d</fix>
</trkpt>
<trkpt lat="40.0713749" lon="-105.229789">
  <ele>1583.0</ele>
  <time>2026-08-28T17:50:32Z</time>
  <course>0.0</course>
  <speed>0.0</speed>
  <fix>3d</fix>
</trkpt>
<trkpt lat="40.071375" lon="-105.229789">
  <ele>1582.95</ele>
  <time>2026-08-28T17:50:32Z</time>
  <course>247.53</course>
  <speed>0.02</speed>
  <fix>3d</fix>
</trkpt>
<trkpt lat="40.0713749" lon="-105.229789">
  <ele>1583.0</ele>
  <time>2026-08-28T17:50:32Z</time>
  <course>245.99</course>
  <speed>0.0</speed>
  <fix>3d</fix>
</trkpt>
<trkpt lat="40.071375" lon="-105.229789">
  <ele>1582.95</ele>
  <time>2026-08-28T17:50:32Z</time>
  <course>247.52</course>
  <speed>0.02</speed>
  <fix>3d</fix>
</trkpt>
<trkpt lat="40.0713749" lon="-105.229789">
  <ele>1583.0</ele>
  <time>2026-08-28T17:50:32Z</time>
  <course>245.99</course>
  <speed>0.0</speed>
  <fix>3d</fix>
</trkpt>
<trkpt lat="40.071375" lon="-105.229789">
  <ele>1582.95</ele>
  <time>2026-08-28T17:50:32Z</time>
  <course>247.49</course>
  <speed>0.02</speed>
  <fix>3d</fix>
</trkpt>
<trkpt lat="40.0713749" lon="-105.229789">
  <ele>1583.0</ele>
  <time>2026-08-28T17:50:32Z</time>
  <course>245.97</course>
  <speed>0.0</speed>
  <fix>3d</fix>
</trkpt>
<trkpt lat="40.071375" lon="-105.229789">
  <ele>1582.95</ele>
  <time>2026-08-28T17:50:32Z</time>
  <course>247.51</course>
  <speed>0.01414213562373095</speed>
  <fix>3d</fix>
</trkpt>
<trkpt lat="40.0713749" lon="-105.229789">
  <ele>1583.0</ele>
  <time>2026-08-28T17:50:32Z</time>
  <course>245.97</course>
  <speed>0.0</speed>
  <fix>3d</fix>
</trkpt>
<trkpt lat="40.071375" lon="-105.229789">
  <ele>1582.95</ele>
  <time>2026-08-28T17:50:32Z</time>
  <course>247.65</course>
  <speed>0.03</speed>
  <fix>3d</fix>
</trkpt>
<trkpt lat="40.0713749" lon="-105.229789">
  <ele>1583.0</ele>
  <time>2026-08-28T17:50:32Z</time>
  <course>246.06</course>
  <speed>0.03</speed>
  <fix>3d</fix>
</trkpt>
<trkpt lat="40.071375" lon="-105.229789">
  <ele>1582.94</ele>
  <time>2026-08-28T17:50:32Z</time>
  <course>247.9</course>
  <speed>0.05</speed>
  <fix>3d</fix>
</trkpt>
<trkpt lat="40.0713749" lon="-105.229789">
  <ele>1583.0</ele>
  <time>2026-08-28T17:50:32Z</time>
  <course>246.06</course>
  <speed>0.03</speed>
  <fix>3d</fix>
</trkpt>
<trkpt lat="40.071375" lon="-105.2297892">
  <ele>1582.94</ele>
  <time>2026-08-28T17:50:32Z</time>
  <course>248.44</course>
  <speed>0.09055385138137417</speed>
  <fix>3d</fix>
</trkpt>
<trkpt lat="40.0713749" lon="-105.2297891">
  <ele>1583.0</ele>
  <time>2026-08-28T17:50:32Z</time>
  <course>246.51</course>
  <speed>0.07</speed>
  <fix>3d</fix>
</trkpt>
<trkpt lat="40.071375" lon="-105.2297893">
  <ele>1582.94</ele>
  <time>2026-08-28T17:50:32Z</time>
  <course>249.17</course>
  <speed>0.13152946437965907</speed>
  <fix>3d</fix>
</trkpt>
<trkpt lat="40.0713749" lon="-105.2297891">
  <ele>1583.0</ele>
  <time>2026-08-28T17:50:32Z</time>
  <course>246.51</course>
  <speed>0.07</speed>
  <fix>3d</fix>
</trkpt>
<trkpt lat="40.0713749" lon="-105.2297895">
  <ele>1582.94</ele>
  <time>2026-08-28T17:50:32Z</time>
  <course>250.22</course>
  <speed>0.18439088914585774</speed>
  <fix>3d</fix>
</trkpt>
<trkpt lat="40.0713749" lon="-105.2297893">
  <ele>1583.0</ele>
  <time>2026-08-28T17:50:32Z</time>
  <course>247.69</course>
  <speed>0.14</speed>
  <fix>3d</fix>
</trkpt>
<trkpt lat="40.0713749" lon="-105.2297898">
  <ele>1582.94</ele>
  <time>2026-08-28T17:50:32Z</time>
  <course>251.63</course>
  <speed>0.22561028345356957</speed>
  <fix>3d</fix>
</trkpt>
<trkpt lat="40.0713749" lon="-105.2297893">
  <ele>1583.0</ele>
  <time>2026-08-28T17:50:32Z</time>
  <course>247.69</course>
  <speed>0.14</speed>
  <fix>3d</fix>
</trkpt>
<trkpt lat="40.0713748" lon="-105.2297901">
  <ele>1582.94</ele>
  <time>2026-08-28T17:50:32Z</time>
  <course>253.38</course>
  <speed>0.2863564212655271</speed>
  <fix>3d</fix>
</trkpt>
<trkpt lat="40.0713748" lon="-105.2297897">
  <ele>1583.0</ele>
  <time>2026-08-28T17:50:32Z</time>
  <course>250.01</course>
  <speed>0.23</speed>
  <fix>3d</fix>
</trkpt>
<trkpt lat="40.0713747" lon="-105.2297905">
  <ele>1582.93</ele>
  <time>2026-08-28T17:50:32Z</time>
  <course>255.46</course>
  <speed>0.34525353003264136</speed>
  <fix>3d</fix>
</trkpt>
<trkpt lat="40.0713748" lon="-105.2297897">
  <ele>1583.0</ele>
  <time>2026-08-28T17:50:32Z</time>
  <course>250.01</course>
  <speed>0.23</speed>
  <fix>3d</fix>
</trkpt>
<trkpt lat="40.0713746" lon="-105.2297909">
  <ele>1582.93</ele>
  <time>2026-08-28T17:50:32Z</time>
  <course>257.9</course>
  <speed>0.4044749683231337</speed>
  <fix>3d</fix>
</trkpt>
<trkpt lat="40.0713746" lon="-105.2297903">
  <ele>1583.0</ele>
  <time>2026-08-28T17:50:32Z</time>
  <course>253.63</course>
  <speed>0.33</speed>
  <fix>3d</fix>
</trkpt>
<trkpt lat="40.0713745" lon="-105.2297914">
  <ele>1582.93</ele>
  <time>2026-08-28T17:50:32Z</time>
  <course>260.69</course>
  <speed>0.46270941205037097</speed>
  <fix>3d</fix>
</trkpt>
<trkpt lat="40.0713746" lon="-105.2297903">
  <ele>1583.0</ele>
  <time>2026-08-28T17:50:32Z</time>
  <course>253.63</course>
  <speed>0.33</speed>
  <fix>3d</fix>
</trkpt>
<trkpt lat="40.0713745" lon="-105.229792">
  <ele>1582.93</ele>
  <time>2026-08-28T17:50:32Z</time>
  <course>263.85</course>
  <speed>0.5208646657242167</speed>
  <fix>3d</fix>
</trkpt>
<trkpt lat="40.0713745" lon="-105.2297912">
  <ele>1583.0</ele>
  <time>2026-08-28T17:50:32Z</time>
  <course>258.61</course>
  <speed>0.44</speed>
  <fix>3d</fix>
</trkpt>
<trkpt lat="40.0713744" lon="-105.2297927">
  <ele>1582.93</ele>
  <time>2026-08-28T17:50:32Z</time>
  <course>267.36</course>
  <speed>0.5800862004909271</speed>
  <fix>3d</fix>
</trkpt>
<trkpt lat="40.0713745" lon="-105.2297912">
  <ele>1583.0</ele>
  <time>2026-08-28T17:50:32Z</time>
  <course>258.61</course>
  <speed>0.44</speed>
  <fix>3d</fix>
</trkpt>
<trkpt lat="40.0713744" lon="-105.2297934">
  <ele>1582.93</ele>
  <time>2026-08-28T17:50:32Z</time>
  <course>271.22</course>
  <speed>0.630317380372777</speed>
  <fix>3d</fix>
</trkpt>
<trkpt lat="40.0713743" lon="-105.2297924">
  <ele>1583.0</ele>
  <time>2026-08-28T17:50:32Z</time>
  <course>265.01</course>
  <speed>0.55</speed>
  <fix>3d</fix>
</trkpt>
<trkpt lat="40.0713744" lon="-105.2297941">
  <ele>1582.93</ele>
  <time>2026-08-28T17:50:32Z</time>
  <course>274.59</course>
  <speed>0.6726812023536856</speed>
  <fix>3d</fix>
</trkpt>
<trkpt lat="40.0713743" lon="-105.2297924">
  <ele>1583.0</ele>
  <time>2026-08-28T17:50:32Z</time>
  <course>265.01</course>
  <speed>0.55</speed>
  <fix>3d</fix>
</trkpt>
<trkpt lat="40.0713745" lon="-105.2297949">
  <ele>1582.93</ele>
  <time>2026-08-28T17:50:32Z</time>
  <course>279.04</course>
  <speed>0.7299315036357864</speed>
  <fix>3d</fix>
</trkpt>
<trkpt lat="40.0713742" lon="-105.2297938">
  <ele>1583.0</ele>
  <time>2026-08-28T17:50:32Z</time>
  <course>272.77</course>
  <speed>0.66</speed>
  <fix>3d</fix>
</trkpt>
<trkpt lat="40.0713746" lon="-105.2297958">
  <ele>1582.94</ele>
  <time>2026-08-28T17:50:32Z</time>
  <course>283.78</course>
  <speed>0.773692445355388</speed>
  <fix>3d</fix>
</trkpt>
<trkpt lat="40.0713742" lon="-105.2297938">
  <ele>1583.0</ele>
  <time>2026-08-28T17:50:32Z</time>
  <course>272.77</course>
  <speed>0.66</speed>
  <fix>3d</fix>
</trkpt>
<trkpt lat="40.0713747" lon="-105.2297967">
  <ele>1582.94</ele>
  <time>2026-08-28T17:50:32Z</time>
  <course>288.76</course>
  <speed>0.8159656855530139</speed>
  <fix>3d</fix>
</trkpt>
<trkpt lat="40.0713743" lon="-105.2297955">
  <ele>1583.0</ele>
  <time>2026-08-28T17:50:32Z</time>
  <course>281.8</course>
  <speed>0.75</speed>
  <fix>3d</fix>
</trkpt>
<trkpt lat="40.071375" lon="-105.2297976">
  <ele>1582.95</ele>
  <time>2026-08-28T17:50:32Z</time>
  <course>294.03</course>
  <speed>0.85492689745966</speed>
  <fix>3d</fix>
</trkpt>
<trkpt lat="40.0713743" lon="-105.2297955">
  <ele>1583.0</ele>
  <time>2026-08-28T17:50:32Z</time>
  <course>281.8</course>
  <speed>0.75</speed>
  <fix>3d</fix>
</trkpt>
<trkpt lat="40.0713753" lon="-105.2297986">
  <ele>1582.95</ele>
  <time>2026-08-28T17:50:32Z</time>
  <course>299.52</course>
  <speed>0.8955445270895244</speed>
  <fix>3d</fix>
</trkpt>
<trkpt lat="40.0713748" lon="-105.2297973">
  <ele>1583.0</ele>
  <time>2026-08-28T17:50:32Z</time>
  <course>291.94</course>
  <speed>0.83</speed>
  <fix>3d</fix>
</trkpt>
<trkpt lat="40.0713758" lon="-105.2297995">
  <ele>1582.95</ele>
  <time>2026-08-28T17:50:32Z</time>
  <course>305.23</course>
  <speed>0.9323089616645333</speed>
  <fix>3d</fix>
</trkpt>
<trkpt lat="40.0713748" lon="-105.2297973">
  <ele>1583.0</ele>
  <time>2026-08-28T17:50:32Z</time>
  <course>291.94</course>
  <speed>0.83</speed>
  <fix>3d</fix>
</trkpt>
<trkpt lat="40.0713763" lon="-105.2298004">
  <ele>1582.95</ele>
  <time>2026-08-28T17:50:32Z</time>
  <course>311.18</course>
  <speed>0.9567131231461183</speed>
  <fix>3d</fix>
</trkpt>
<trkpt lat="40.0713755" lon="-105.229799">
  <ele>1583.0</ele>
  <time>2026-08-28T17:50:32Z</time>
  <course>303.02</course>
  <speed>0.9</speed>
  <fix>3d</fix>
</trkpt>
<trkpt lat="40.0713769" lon="-105.2298012">
  <ele>1582.95</ele>
  <time>2026-08-28T17:50:32Z</time>
  <course>317.26</course>
  <speed>0.9908582138732059</speed>
  <fix>3d</fix>
</trkpt>
<trkpt lat="40.0713755" lon="-105.229799">
  <ele>1583.0</ele>
  <time>2026-08-28T17:50:32Z</time>
  <course>303.02</course>
  <speed>0.9</speed>
  <fix>3d</fix>
</trkpt>
<trkpt lat="40.0713776" lon="-105.2298019">
  <ele>1582.95</ele>
  <time>2026-08-28T17:50:32Z</time>
  <course>323.52</course>
  <speed>1.016070863670443</speed>
  <fix>3d</fix>
</trkpt>
<trkpt lat="40.0713766" lon="-105.2298007">
  <ele>1583.0</ele>
  <time>2026-08-28T17:50:32Z</time>
  <course>314.92</course>
  <speed>0.95</speed>
  <fix>3d</fix>
</trkpt>
<trkpt lat="40.0713786" lon="-105.2298027">
  <ele>1582.95</ele>
  <time>2026-08-28T17:50:32Z</time>
  <course>331.01</course>
  <speed>1.0519030373565805</speed>
  <fix>3d</fix>
</trkpt>
<trkpt lat="40.0713766" lon="-105.2298007">
  <ele>1583.0</ele>
  <time>2026-08-28T17:50:32Z</time>
  <course>314.92</course>
  <speed>0.95</speed>
  <fix>3d</fix>
</trkpt>
<trkpt lat="40.0713794" lon="-105.2298033">
  <ele>1582.95</ele>
  <time>2026-08-28T17:50:32Z</time>
  <course>336.52</course>
  <speed>1.0793516572461452</speed>
  <fix>3d</fix>
</trkpt>
<trkpt lat="40.0713779" lon="-105.2298022">
  <ele>1583.0</ele>
  <time>2026-08-28T17:50:32Z</time>
  <course>327.13</course>
  <speed>1.01</speed>
  <fix>3d</fix>
</trkpt>
<trkpt lat="40.0713803" lon="-105.2298037">
  <ele>1582.95</ele>
  <time>2026-08-28T17:50:32Z</time>
  <course>341.23</course>
  <speed>1.11</speed>
  <fix>3d</fix>
</trkpt>
<trkpt lat="40.0713779" lon="-105.2298022">
  <ele>1583.0</ele>
  <time>2026-08-28T17:50:32Z</time>
  <course>327.13</course>
  <speed>1.01</speed>
  <fix>3d</fix>
</trkpt>
<trkpt lat="40.0713813" lon="-105.2298041">
  <ele>1582.95</ele>
  <time>2026-08-28T17:50:32Z</time>
  <course>345.21</course>
  <speed>1.1472575996697516</speed>
  <fix>3d</fix>
</trkpt>
<trkpt lat="40.0713796" lon="-105.2298034">
  <ele>1583.0</ele>
  <time>2026-08-28T17:50:32Z</time>
  <course>337.83</course>
  <speed>1.07</speed>
  <fix>3d</fix>
</trkpt>
<trkpt lat="40.0713823" lon="-105.2298044">
  <ele>1582.95</ele>
  <time>2026-08-28T17:50:32Z</time>
  <course>348.57</course>
  <speed>1.1825819210524064</speed>
  <fix>3d</fix>
</trkpt>
<trkpt lat="40.0713796" lon="-105.2298034">
  <ele>1583.0</ele>
  <time>2026-08-28T17:50:32Z</time>
  <course>337.83</course>
  <speed>1.07</speed>
  <fix>3d</fix>
</trkpt>
<trkpt lat="40.0713834" lon="-105.2298046">
  <ele>1582.95</ele>
  <time>2026-08-28T17:50:32Z</time>
  <course>351.38</course>
  <speed>1.223315167894194</speed>
  <fix>3d</fix>
</trkpt>
<trkpt lat="40.0713815" lon="-105.2298041">
  <ele>1583.0</ele>
  <time>2026-08-28T17:50:32Z</time>
  <course>345.77</course>
  <speed>1.14</speed>
  <fix>3d</fix>
</trkpt>
<trkpt lat="40.0713845" lon="-105.2298048">
  <ele>1582.95</ele>
  <time>2026-08-28T17:50:32Z</time>
  <course>353.74</course>
  <speed>1.2776932339180638</speed>
  <fix>3d</fix>
</trkpt>
<trkpt lat="40.0713815" lon="-105.2298041">
  <ele>1583.0</ele>
  <time>2026-08-28T17:50:32Z</time>
  <course>345.77</course>
  <speed>1.14</speed>
  <fix>3d</fix>
</trkpt>
<trkpt lat="40.0713856" lon="-105.2298049">
  <ele>1582.95</ele>
  <time>2026-08-28T17:50:32Z</time>
  <course>355.71</course>
  <speed>1.323782459469833</speed>
  <fix>3d</fix>
</trkpt>
<trkpt lat="40.0713836" lon="-105.2298046">
  <ele>1583.0</ele>
  <time>2026-08-28T17:50:32Z</time>
  <course>351.39</course>
  <speed>1.22</speed>
  <fix>3d</fix>
</trkpt>
<trkpt lat="40.0713868" lon="-105.229805">
  <ele>1582.95</ele>
  <time>2026-08-28T17:50:32Z</time>
  <course>357.35</course>
  <speed>1.381774221788784</speed>
  <fix>3d</fix>
</trkpt>
<trkpt lat="40.0713836" lon="-105.2298046">
  <ele>1583.0</ele>
  <time>2026-08-28T17:50:32Z</time>
  <course>351.39</course>
  <speed>1.22</speed>
  <fix>3d</fix>
</trkpt>
<trkpt lat="40.071388" lon="-105.2298051">
  <ele>1582.95</ele>
  <time>2026-08-28T17:50:32Z</time>
  <course>358.72</course>
  <speed>1.4405554484295287</speed>
  <fix>3d</fix>
</trkpt>
<trkpt lat="40.0713858" lon="-105.229805">
  <ele>1583.0</ele>
  <time>2026-08-28T17:50:32Z</time>
  <course>355.32</course>
  <speed>1.32</speed>
  <fix>3d</fix>
</trkpt>
<trkpt lat="40.0713893" lon="-105.2298051">
  <ele>1582.95</ele>
  <time>2026-08-28T17:50:32Z</time>
  <course>359.88</course>
  <speed>1.5000333329629711</speed>
  <fix>3d</fix>
</trkpt>
<trkpt lat="40.0713858" lon="-105.229805">
  <ele>1583.0</ele>
  <time>2026-08-28T17:50:32Z</time>
  <course>355.32</course>
  <speed>1.32</speed>
  <fix>3d</fix>
</trkpt>
<trkpt lat="40.0713904" lon="-105.2298051">
  <ele>1582.95</ele>
  <time>2026-08-28T17:50:32Z</time>
  <course>0.66</course>
  <speed>1.56</speed>
  <fix>3d</fix>
</trkpt>
<trkpt lat="40.0713883" lon="-105.2298052">
  <ele>1583.0</ele>
  <time>2026-08-28T17:50:32Z</time>
  <course>358.06</course>
  <speed>1.44</speed>
  <fix>3d</fix>
</trkpt>
<trkpt lat="40.0713918" lon="-105.2298051">
  <ele>1582.95</ele>
  <time>2026-08-28T17:50:32Z</time>
  <course>1.49</course>
  <speed>1.6301226947687097</speed>
  <fix>3d</fix>
</trkpt>
<trkpt lat="40.0713883" lon="-105.2298052">
  <ele>1583.0</ele>
  <time>2026-08-28T17:50:32Z</time>
  <course>358.06</course>
  <speed>1.44</speed>
  <fix>3d</fix>
</trkpt>
<trkpt lat="40.0713933" lon="-105.2298051">
  <ele>1582.95</ele>
  <time>2026-08-28T17:50:32Z</time>
  <course>2.18</course>
  <speed>1.7004705231199981</speed>
  <fix>3d</fix>
</trkpt>
<trkpt lat="40.0713911" lon="-105.2298053">
  <ele>1583.0</ele>
  <time>2026-08-28T17:50:32Z</time>
  <course>359.97</course>
  <speed>1.58</speed>
  <fix>3d</fix>
</trkpt>
<trkpt lat="40.0713949" lon="-105.229805">
  <ele>1582.95</ele>
  <time>2026-08-28T17:50:32Z</time>
  <course>2.75</course>
  <speed>1.7810109488714547</speed>
  <fix>3d</fix>
</trkpt>
<trkpt lat="40.0713911" lon="-105.2298053">
  <ele>1583.0</ele>
  <time>2026-08-28T17:50:32Z</time>
  <course>359.97</course>
  <speed>1.58</speed>
  <fix>3d</fix>
</trkpt>
<trkpt lat="40.0713965" lon="-105.229805">
  <ele>1582.95</ele>
  <time>2026-08-28T17:50:32Z</time>
  <course>3.21</course>
  <speed>1.8717104476921635</speed>
  <fix>3d</fix>
</trkpt>
<trkpt lat="40.071394" lon="-105.2298052">
  <ele>1583.0</ele>
  <time>2026-08-28T17:50:32Z</time>
  <course>1.3</course>
  <speed>1.73</speed>
  <fix>3d</fix>
</trkpt>
<trkpt lat="40.0713982" lon="-105.2298049">
  <ele>1582.95</ele>
  <time>2026-08-28T17:50:32Z</time>
  <course>3.6</course>
  <speed>1.9625493624365222</speed>
  <fix>3d</fix>
</trkpt>
<trkpt lat="40.071394" lon="-105.2298052">
  <ele>1583.0</ele>
  <time>2026-08-28T17:50:32Z</time>
  <course>1.3</course>
  <speed>1.73</speed>
  <fix>3d</fix>
</trkpt>
<trkpt lat="40.0714" lon="-105.2298049">
  <ele>1582.96</ele>
  <time>2026-08-28T17:50:32Z</time>
  <course>3.91</course>
  <speed>2.0529490982486633</speed>
  <fix>3d</fix>
</trkpt>
<trkpt lat="40.0713973" lon="-105.2298051">
  <ele>1583.0</ele>
  <time>2026-08-28T17:50:32Z</time>
  <course>2.19</course>
  <speed>1.9</speed>
  <fix>3d</fix>
</trkpt>
<trkpt lat="40.0714019" lon="-105.2298047">
  <ele>1582.96</ele>
  <time>2026-08-28T17:50:32Z</time>
  <course>4.16</course>
  <speed>2.153346233191495</speed>
  <fix>3d</fix>
</trkpt>
<trkpt lat="40.0713973" lon="-105.2298051">
  <ele>1583.0</ele>
  <time>2026-08-28T17:50:32Z</time>
  <course>2.19</course>
  <speed>1.9</speed>
  <fix>3d</fix>
</trkpt>
<trkpt lat="40.0714039" lon="-105.2298046">
  <ele>1582.96</ele>
  <time>2026-08-28T17:50:32Z</time>
  <course>4.37</course>
  <speed>2.2443707358633955</speed>
  <fix>3d</fix>
</trkpt>
<trkpt lat="40.0714009" lon="-105.229805">
  <ele>1583.0</ele>
  <time>2026-08-28T17:50:32Z</time>
  <course>2.79</course>
  <speed>2.08</speed>
  <fix>3d</fix>
</trkpt>
<trkpt lat="40.0714064" lon="-105.2298044">
  <ele>1582.96</ele>
  <time>2026-08-28T17:50:32Z</time>
  <course>4.55</course>
  <speed>2.3747420912595962</speed>
  <fix>3d</fix>
</trkpt>
<trkpt lat="40.0714009" lon="-105.229805">
  <ele>1583.0</ele>
  <time>2026-08-28T17:50:32Z</time>
  <course>2.79</course>
  <speed>2.08</speed>
  <fix>3d</fix>
</trkpt>
<trkpt lat="40.0714086" lon="-105.2298042">
  <ele>1582.97</ele>
  <time>2026-08-28T17:50:32Z</time>
  <course>4.66</course>
  <speed>2.4751767613647315</speed>
  <fix>3d</fix>
</trkpt>
<trkpt lat="40.0714048" lon="-105.2298047">
  <ele>1583.0</ele>
  <time>2026-08-28T17:50:32Z</time>
  <course>3.18</course>
  <speed>2.28</speed>
  <fix>3d</fix>
</trkpt>
<trkpt lat="40.0714108" lon="-105.2298041">
  <ele>1582.97</ele>
  <time>2026-08-28T17:50:32Z</time>
  <course>4.74</course>
  <speed>2.5756164310704337</speed>
  <fix>3d</fix>
</trkpt>
<trkpt lat="40.0714048" lon="-105.2298047">
  <ele>1583.0</ele>
  <time>2026-08-28T17:50:32Z</time>
  <course>3.18</course>
  <speed>2.28</speed>
  <fix>3d</fix>
</trkpt>
<trkpt lat="40.0714132" lon="-105.2298039">
  <ele>1582.97</ele>
  <time>2026-08-28T17:50:32Z</time>
  <course>4.8</course>
  <speed>2.686037974415105</speed>
  <fix>3d</fix>
</trkpt>
<trkpt lat="40.0714091" lon="-105.2298044">
  <ele>1583.0</ele>
  <time>2026-08-28T17:50:32Z</time>
  <course>3.41</course>
  <speed>2.48</speed>
  <fix>3d</fix>
</trkpt>
<trkpt lat="40.0714157" lon="-105.2298037">
  <ele>1582.97</ele>
  <time>2026-08-28T17:50:32Z</time>
  <course>4.83</course>
  <speed>2.796462050520264</speed>
  <fix>3d</fix>
</trkpt>
<trkpt lat="40.0714091" lon="-105.2298044">
  <ele>1583.0</ele>
  <time>2026-08-28T17:50:32Z</time>
  <course>3.41</course>
  <speed>2.48</speed>
  <fix>3d</fix>
</trkpt>
<trkpt lat="40.0714182" lon="-105.2298035">
  <ele>1582.97</ele>
  <time>2026-08-28T17:50:32Z</time>
  <course>4.85</course>
  <speed>2.8962389404191082</speed>
  <fix>3d</fix>
</trkpt>
<trkpt lat="40.0714138" lon="-105.2298041">
  <ele>1583.0</ele>
  <time>2026-08-28T17:50:32Z</time>
  <course>3.53</course>
  <speed>2.69</speed>
  <fix>3d</fix>
</trkpt>
<trkpt lat="40.0714208" lon="-105.2298033">
  <ele>1582.97</ele>
  <time>2026-08-28T17:50:32Z</time>
  <course>4.85</course>
  <speed>3.0066592756745814</speed>
  <fix>3d</fix>
</trkpt>
<trkpt lat="40.0714138" lon="-105.2298041">
  <ele>1583.0</ele>
  <time>2026-08-28T17:50:32Z</time>
  <course>3.53</course>
  <speed>2.69</speed>
  <fix>3d</fix>
</trkpt>
<trkpt lat="40.0714235" lon="-105.2298031">
  <ele>1582.97</ele>
  <time>2026-08-28T17:50:32Z</time>
  <course>4.84</course>
  <speed>3.1071047616712253</speed>
  <fix>3d</fix>
</trkpt>
<trkpt lat="40.0714188" lon="-105.2298036">
  <ele>1583.0</ele>
  <time>2026-08-28T17:50:32Z</time>
  <course>3.57</course>
  <speed>2.9</speed>
  <fix>3d</fix>
</trkpt>
<trkpt lat="40.0714263" lon="-105.2298029">
  <ele>1582.97</ele>
  <time>2026-08-28T17:50:32Z</time>
  <course>4.84</course>
  <speed>3.2168618248224465</speed>
  <fix>3d</fix>
</trkpt>
<trkpt lat="40.0714188" lon="-105.2298036">
  <ele>1583.0</ele>
  <time>2026-08-28T17:50:32Z</time>
  <course>3.57</course>
  <speed>2.9</speed>
  <fix>3d</fix>
</trkpt>
<trkpt lat="40.0714292" lon="-105.2298026">
  <ele>1582.97</ele>
  <time>2026-08-28T17:50:32Z</time>
  <course>4.83</course>
  <speed>3.3173031215130155</speed>
  <fix>3d</fix>
</trkpt>
<trkpt lat="40.0714241" lon="-105.2298031">
  <ele>1583.0</ele>
  <time>2026-08-28T17:50:32Z</time>
  <course>3.57</course>
  <speed>3.12</speed>
  <fix>3d</fix>
</trkpt>
<trkpt lat="40.0714322" lon="-105.2298024">
  <ele>1582.97</ele>
  <time>2026-08-28T17:50:32Z</time>
  <course>4.83</course>
  <speed>3.4270687183072357</speed>
  <fix>3d</fix>
</trkpt>
<trkpt lat="40.0714241" lon="-105.2298031">
  <ele>1583.0</ele>
  <time>2026-08-28T17:50:32Z</time>
  <course>3.57</course>
  <speed>3.12</speed>
  <fix>3d</fix>
</trkpt>
<trkpt lat="40.0714346" lon="-105.2298022">
  <ele>1582.97</ele>
  <time>2026-08-28T17:50:32Z</time>
  <course>4.83</course>
  <speed>3.5075490017959834</speed>
  <fix>3d</fix>
</trkpt>
<trkpt lat="40.07143" lon="-105.2298027">
  <ele>1583.0</ele>
  <time>2026-08-28T17:50:32Z</time>
  <course>3.57</course>
  <speed>3.33</speed>
  <fix>3d</fix>
</trkpt>
<trkpt lat="40.0714378" lon="-105.2298019">
  <ele>1582.97</ele>
  <time>2026-08-28T17:50:32Z</time>
  <course>4.77</course>
  <speed>3.617319449537185</speed>
  <fix>3d</fix>
</trkpt>
<trkpt lat="40.07143" lon="-105.2298027">
  <ele>1583.0</ele>
  <time>2026-08-28T17:50:32Z</time>
  <course>3.57</course>
  <speed>3.33</speed>
  <fix>3d</fix>
</trkpt>
<trkpt lat="40.071441" lon="-105.2298017">
  <ele>1582.97</ele>
  <time>2026-08-28T17:50:32Z</time>
  <course>4.73</course>
  <speed>3.717122543043207</speed>
  <fix>3d</fix>
</trkpt>
<trkpt lat="40.0714361" lon="-105.2298022">
  <ele>1583.0</ele>
  <time>2026-08-28T17:50:32Z</time>
  <course>3.53</course>
  <speed>3.55</speed>
  <fix>3d</fix>
</trkpt>
<trkpt lat="40.0714444" lon="-105.2298014">
  <ele>1582.97</ele>
  <time>2026-08-28T17:50:32Z</time>
  <course>4.68</course>
  <speed>3.8275318418009276</speed>
  <fix>3d</fix>
</trkpt>
<trkpt lat="40.0714361" lon="-105.2298022">
  <ele>1583.0</ele>
  <time>2026-08-28T17:50:32Z</time>
  <course>3.53</course>
  <speed>3.55</speed>
  <fix>3d</fix>
</trkpt>
<trkpt lat="40.0714479" lon="-105.2298012">
  <ele>1582.97</ele>
  <time>2026-08-28T17:50:32Z</time>
  <course>4.62</course>
  <speed>3.937321424522006</speed>
  <fix>3d</fix>
</trkpt>
<trkpt lat="40.0714427" lon="-105.2298017">
  <ele>1583.0</ele>
  <time>2026-08-28T17:50:32Z</time>
  <course>3.44</course>
  <speed>3.76</speed>
  <fix>3d</fix>
</trkpt>
<trkpt lat="40.0714514" lon="-105.2298009">
  <ele>1582.97</ele>
  <time>2026-08-28T17:50:32Z</time>
  <course>4.57</course>
  <speed>4.037140076836572</speed>
  <fix>3d</fix>
</trkpt>
<trkpt lat="40.0714427" lon="-105.2298017">
  <ele>1583.0</ele>
  <time>2026-08-28T17:50:32Z</time>
  <course>3.44</course>
  <speed>3.76</speed>
  <fix>3d</fix>
</trkpt>
<trkpt lat="40.0714551" lon="-105.2298006">
  <ele>1582.97</ele>
  <time>2026-08-28T17:50:32Z</time>
  <course>4.51</course>
  <speed>4.146950686950594</speed>
  <fix>3d</fix>
</trkpt>
<trkpt lat="40.0714497" lon="-105.2298011">
  <ele>1583.0</ele>
  <time>2026-08-28T17:50:32Z</time>
  <course>3.33</course>
  <speed>3.97</speed>
  <fix>3d</fix>
</trkpt>
<trkpt lat="40.0714589" lon="-105.2298004">
  <ele>1582.97</ele>
  <time>2026-08-28T17:50:32Z</time>
  <course>4.45</course>
  <speed>4.246787020795839</speed>
  <fix>3d</fix>
</trkpt>
<trkpt lat="40.0714497" lon="-105.2298011">
  <ele>1583.0</ele>
  <time>2026-08-28T17:50:32Z</time>
  <course>3.33</course>
  <speed>3.97</speed>
  <fix>3d</fix>
</trkpt>
<trkpt lat="40.0714628" lon="-105.2298001">
  <ele>1582.97</ele>
  <time>2026-08-28T17:50:32Z</time>
  <course>4.39</course>
  <speed>4.357177985806868</speed>
  <fix>3d</fix>
</trkpt>
<trkpt lat="40.071457" lon="-105.2298006">
  <ele>1583.0</ele>
  <time>2026-08-28T17:50:32Z</time>
  <course>3.22</course>
  <speed>4.18</speed>
  <fix>3d</fix>
</trkpt>
<trkpt lat="40.0714668" lon="-105.2297998">
  <ele>1582.97</ele>
  <time>2026-08-28T17:50:32Z</time>
  <course>4.33</course>
  <speed>4.45701693961331</speed>
  <fix>3d</fix>
</trkpt>
<trkpt lat="40.071457" lon="-105.2298006">
  <ele>1583.0</ele>
  <time>2026-08-28T17:50:32Z</time>
  <course>3.22</course>
  <speed>4.18</speed>
  <fix>3d</fix>
</trkpt>
<trkpt lat="40.0714717" lon="-105.2297995">
  <ele>1582.97</ele>
  <time>2026-08-28T17:50:32Z</time>
  <course>4.25</course>
  <speed>4.576832966145914</speed>
  <fix>3d</fix>
</trkpt>
<trkpt lat="40.0714646" lon="-105.2298">
  <ele>1583.0</ele>
  <time>2026-08-28T17:50:32Z</time>
  <course>3.11</course>
  <speed>4.39</speed>
  <fix>3d</fix>
</trkpt>
<trkpt lat="40.0714759" lon="-105.2297992">
  <ele>1582.97</ele>
  <time>2026-08-28T17:50:32Z</time>
  <course>4.19</course>
  <speed>4.676686861443687</speed>
  <fix>3d</fix>
</trkpt>
<trkpt lat="40.0714646" lon="-105.2298">
  <ele>1583.0</ele>
  <time>2026-08-28T17:50:32Z</time>
  <course>3.11</course>
  <speed>4.39</speed>
  <fix>3d</fix>
</trkpt>
<trkpt lat="40.0714801" lon="-105.2297989">
  <ele>1582.97</ele>
  <time>2026-08-28T17:50:32Z</time>
  <course>4.16</course>
  <speed>4.776546869863207</speed>
  <fix>3d</fix>
</trkpt>
<trkpt lat="40.0714727" lon="-105.2297995">
  <ele>1583.0</ele>
  <time>2026-08-28T17:50:32Z</time>
  <course>2.99</course>
  <speed>4.58</speed>
  <fix>3d</fix>
</trkpt>
<trkpt lat="40.0714844" lon="-105.2297986">
  <ele>1582.97</ele>
  <time>2026-08-28T17:50:32Z</time>
  <course>4.12</course>
  <speed>4.866425793125792</speed>
  <fix>3d</fix>
</trkpt>
<trkpt lat="40.0714727" lon="-105.2297995">
  <ele>1583.0</ele>
  <time>2026-08-28T17:50:32Z</time>
  <course>2.99</course>
  <speed>4.58</speed>
  <fix>3d</fix>
</trkpt>
<trkpt lat="40.0714889" lon="-105.2297983">
  <ele>1582.97</ele>
  <time>2026-08-28T17:50:32Z</time>
  <course>4.1</course>
  <speed>4.9463218657907815</speed>
  <fix>3d</fix>
</trkpt>
<trkpt lat="40.0714811" lon="-105.2297989">
  <ele>1583.0</ele>
  <time>2026-08-28T17:50:32Z</time>
  <course>2.92</course>
  <speed>4.77</speed>
  <fix>3d</fix>
</trkpt>
<trkpt lat="40.0714933" lon="-105.229798">
  <ele>1582.97</ele>
  <time>2026-08-28T17:50:32Z</time>
  <course>4.1</course>
  <speed>5.026728558416497</speed>
  <fix>3d</fix>
</trkpt>
<trkpt lat="40.0714811" lon="-105.2297989">
  <ele>1583.0</ele>
  <time>2026-08-28T17:50:32Z</time>
  <course>2.92</course>
  <speed>4.77</speed>
  <fix>3d</fix>
</trkpt>
<trkpt lat="40.0714979" lon="-105.2297977">
  <ele>1582.97</ele>
  <time>2026-08-28T17:50:32Z</time>
  <course>4.09</course>
  <speed>5.096636145537564</speed>
  <fix>3d</fix>
</trkpt>
<trkpt lat="40.0714899" lon="-105.2297983">
  <ele>1583.0</ele>
  <time>2026-08-28T17:50:32Z</time>
  <course>2.89</course>
  <speed>4.94</speed>
  <fix>3d</fix>
</trkpt>
<trkpt lat="40.0715024" lon="-105.2297975">
  <ele>1582.98</ele>
  <time>2026-08-28T17:50:32Z</time>
  <course>4.09</course>
  <speed>5.1565589301393615</speed>
  <fix>3d</fix>
</trkpt>
<trkpt lat="40.0714899" lon="-105.2297983">
  <ele>1583.0</ele>
  <time>2026-08-28T17:50:32Z</time>
  <course>2.89</course>
  <speed>4.94</speed>
  <fix>3d</fix>
</trkpt>
<trkpt lat="40.071507" lon="-105.2297972">
  <ele>1582.98</ele>
  <time>2026-08-28T17:50:32Z</time>
  <course>4.08</course>
  <speed>5.207004897251394</speed>
  <fix>3d</fix>
</trkpt>
<trkpt lat="40.0714989" lon="-105.2297978">
  <ele>1583.0</ele>
  <time>2026-08-28T17:50:32Z</time>
  <course>2.89</course>
  <speed>5.08</speed>
  <fix>3d</fix>
</trkpt>
<trkpt lat="40.0715116" lon="-105.2297969">
  <ele>1582.98</ele>
  <time>2026-08-28T17:50:32Z</time>
  <course>4.07</course>
  <speed>5.236964769787935</speed>
  <fix>3d</fix>
</trkpt>
<trkpt lat="40.0714989" lon="-105.2297978">
  <ele>1583.0</ele>
  <time>2026-08-28T17:50:32Z</time>
  <course>2.89</course>
  <speed>5.08</speed>
  <fix>3d</fix>
</trkpt>
<trkpt lat="40.0715163" lon="-105.2297966">
  <ele>1582.98</ele>
  <time>2026-08-28T17:50:32Z</time>
  <course>4.06</course>
  <speed>5.266925099144661</speed>
  <fix>3d</fix>
</trkpt>
<trkpt lat="40.0715081" lon="-105.2297971">
  <ele>1583.0</ele>
  <time>2026-08-28T17:50:32Z</time>
  <course>2.89</course>
  <speed>5.17</speed>
  <fix>3d</fix>
</trkpt>
<trkpt lat="40.07152" lon="-105.2297963">
  <ele>1582.98</ele>
  <time>2026-08-28T17:50:32Z</time>
  <course>4.06</course>
  <speed>5.2769119757676455</speed>
  <fix>3d</fix>
</trkpt>
<trkpt lat="40.0715081" lon="-105.2297971">
  <ele>1583.0</ele>
  <time>2026-08-28T17:50:32Z</time>
  <course>2.89</course>
  <speed>5.17</speed>
  <fix>3d</fix>
</trkpt>
<trkpt lat="40.0715247" lon="-105.229796">
  <ele>1582.98</ele>
  <time>2026-08-28T17:50:32Z</time>
  <course>4.05</course>
  <speed>5.276409764224155</speed>
  <fix>3d</fix>
</trkpt>
<trkpt lat="40.0715175" lon="-105.2297964">
  <ele>1583.0</ele>
  <time>2026-08-28T17:50:32Z</time>
  <course>2.89</course>
  <speed>5.23</speed>
  <fix>3d</fix>
</trkpt>
<trkpt lat="40.0715294" lon="-105.2297957">
  <ele>1582.98</ele>
  <time>2026-08-28T17:50:32Z</time>
  <course>4.03</course>
  <speed>5.276409764224155</speed>
  <fix>3d</fix>
</trkpt>
<trkpt lat="40.0715175" lon="-105.2297964">
  <ele>1583.0</ele>
  <time>2026-08-28T17:50:32Z</time>
  <course>2.89</course>
  <speed>5.23</speed>
  <fix>3d</fix>
</trkpt>
<trkpt lat="40.0715341" lon="-105.2297954">
  <ele>1582.98</ele>
  <time>2026-08-28T17:50:32Z</time>
  <course>4.0</course>
  <speed>5.266421935242181</speed>
  <fix>3d</fix>
</trkpt>
<trkpt lat="40.0715268" lon="-105.2297959">
  <ele>1583.0</ele>
  <time>2026-08-28T17:50:32Z</time>
  <course>2.87</course>
  <speed>5.25</speed>
  <fix>3d</fix>
</trkpt>
<trkpt lat="40.0715388" lon="-105.2297951">
  <ele>1582.99</ele>
  <time>2026-08-28T17:50:32Z</time>
  <course>3.99</course>
  <speed>5.25594901040716</speed>
  <fix>3d</fix>
</trkpt>
<trkpt lat="40.0715268" lon="-105.2297959">
  <ele>1583.0</ele>
  <time>2026-08-28T17:50:32Z</time>
  <course>2.87</course>
  <speed>5.25</speed>
  <fix>3d</fix>
</trkpt>
<trkpt lat="40.0715435" lon="-105.2297948">
  <ele>1582.99</ele>
  <time>2026-08-28T17:50:32Z</time>
  <course>3.96</course>
  <speed>5.23597173407191</speed>
  <fix>3d</fix>
</trkpt>
<trkpt lat="40.0715363" lon="-105.2297952">
  <ele>1583.0</ele>
  <time>2026-08-28T17:50:32Z</time>
  <course>2.83</course>
  <speed>5.23</speed>
  <fix>3d</fix>
</trkpt>
<trkpt lat="40.0715482" lon="-105.2297945">
  <ele>1582.99</ele>
  <time>2026-08-28T17:50:32Z</time>
  <course>3.91</course>
  <speed>5.2055355151991805</speed>
  <fix>3d</fix>
</trkpt>
<trkpt lat="40.0715363" lon="-105.2297952">
  <ele>1583.0</ele>
  <time>2026-08-28T17:50:32Z</time>
  <course>2.83</course>
  <speed>5.23</speed>
  <fix>3d</fix>
</trkpt>
<trkpt lat="40.0715529" lon="-105.2297942">
  <ele>1582.99</ele>
  <time>2026-08-28T17:50:32Z</time>
  <course>3.86</course>
  <speed>5.1851036633803185</speed>
  <fix>3d</fix>
</trkpt>
<trkpt lat="40.0715456" lon="-105.2297946">
  <ele>1583.0</ele>
  <time>2026-08-28T17:50:32Z</time>
  <course>2.76</course>
  <speed>5.19</speed>
  <fix>3d</fix>
</trkpt>
<trkpt lat="40.0715575" lon="-105.229794">
  <ele>1582.99</ele>
  <time>2026-08-28T17:50:32Z</time>
  <course>3.83</course>
  <speed>5.145143341054746</speed>
  <fix>3d</fix>
</trkpt>
<trkpt lat="40.0715456" lon="-105.2297946">
  <ele>1583.0</ele>
  <time>2026-08-28T17:50:32Z</time>
  <course>2.76</course>
  <speed>5.19</speed>
  <fix>3d</fix>
</trkpt>
<trkpt lat="40.0715621" lon="-105.2297937">
  <ele>1582.99</ele>
  <time>2026-08-28T17:50:32Z</time>
  <course>3.8</course>
  <speed>5.114733619652151</speed>
  <fix>3d</fix>
</trkpt>
<trkpt lat="40.0715548" lon="-105.229794">
  <ele>1583.0</ele>
  <time>2026-08-28T17:50:32Z</time>
  <course>2.68</course>
  <speed>5.14</speed>
  <fix>3d</fix>
</trkpt>
<trkpt lat="40.0715676" lon="-105.2297934">
  <ele>1582.99</ele>
  <time>2026-08-28T17:50:32Z</time>
  <course>3.73</course>
  <speed>5.0743472486616445</speed>
  <fix>3d</fix>
</trkpt>
<trkpt lat="40.0715548" lon="-105.229794">
  <ele>1583.0</ele>
  <time>2026-08-28T17:50:32Z</time>
  <course>2.68</course>
  <speed>5.14</speed>
  <fix>3d</fix>
</trkpt>
<trkpt lat="40.0715722" lon="-105.2297931">
  <ele>1582.99</ele>
  <time>2026-08-28T17:50:32Z</time>
  <course>3.69</course>
  <speed>5.044373102775012</speed>
  <fix>3d</fix>
</trkpt>
<trkpt lat="40.071564" lon="-105.2297935">
  <ele>1583.0</ele>
  <time>2026-08-28T17:50:32Z</time>
  <course>2.61</course>
  <speed>5.07</speed>
  <fix>3d</fix>
</trkpt>
<trkpt lat="40.0715767" lon="-105.2297928">
  <ele>1582.99</ele>
  <time>2026-08-28T17:50:32Z</time>
  <course>3.64</course>
  <speed>5.013990426795807</speed>
  <fix>3d</fix>
</trkpt>
<trkpt lat="40.071564" lon="-105.2297935">
  <ele>1583.0</ele>
  <time>2026-08-28T17:50:32Z</time>
  <course>2.61</course>
  <speed>5.07</speed>
  <fix>3d</fix>
</trkpt>
<trkpt lat="40.0715811" lon="-105.2297926">
  <ele>1582.99</ele>
  <time>2026-08-28T17:50:32Z</time>
  <course>3.59</course>
  <speed>4.974022517037896</speed>
  <fix>3d</fix>
</trkpt>
<trkpt lat="40.071573" lon="-105.229793">
  <ele>1583.0</ele>
  <time>2026-08-28T17:50:32Z</time>
  <course>2.51</course>
  <speed>5.01</speed>
  <fix>3d</fix>
</trkpt>
<trkpt lat="40.0715856" lon="-105.2297924">
  <ele>1583.0</ele>
  <time>2026-08-28T17:50:32Z</time>
  <course>3.54</course>
  <speed>4.953645122533507</speed>
  <fix>3d</fix>
</trkpt>
<trkpt lat="40.071573" lon="-105.229793">
  <ele>1583.0</ele>
  <time>2026-08-28T17:50:32Z</time>
  <course>2.51</course>
  <speed>5.01</speed>
  <fix>3d</fix>
</trkpt>
<trkpt lat="40.07159" lon="-105.2297921">
  <ele>1583.0</ele>
  <time>2026-08-28T17:50:32Z</time>
  <course>3.5</course>
  <speed>4.923667332385485</speed>
  <fix>3d</fix>
</trkpt>
<trkpt lat="40.0715821" lon="-105.2297925">
  <ele>1583.0</ele>
  <time>2026-08-28T17:50:32Z</time>
  <course>2.41</course>
  <speed>4.96</speed>
  <fix>3d</fix>
</trkpt>
<trkpt lat="40.0715944" lon="-105.2297919">
  <ele>1583.0</ele>
  <time>2026-08-28T17:50:32Z</time>
  <course>3.45</course>
  <speed>4.8933117619869675</speed>
  <fix>3d</fix>
</trkpt>
<trkpt lat="40.0715821" lon="-105.2297925">
  <ele>1583.0</ele>
  <time>2026-08-28T17:50:32Z</time>
  <course>2.41</course>
  <speed>4.96</speed>
  <fix>3d</fix>
</trkpt>
<trkpt lat="40.0715987" lon="-105.2297917">
  <ele>1583.0</ele>
  <time>2026-08-28T17:50:32Z</time>
  <course>3.41</course>
  <speed>4.87332535339064</speed>
  <fix>3d</fix>
</trkpt>
<trkpt lat="40.071591" lon="-105.229792">
  <ele>1583.0</ele>
  <time>2026-08-28T17:50:32Z</time>
  <course>2.32</course>
  <speed>4.91</speed>
  <fix>3d</fix>
</trkpt>
<trkpt lat="40.071603" lon="-105.2297915">
  <ele>1583.0</ele>
  <time>2026-08-28T17:50:32Z</time>
  <course>3.34</course>
  <speed>4.852978466879901</speed>
  <fix>3d</fix>
</trkpt>
<trkpt lat="40.071591" lon="-105.229792">
  <ele>1583.0</ele>
  <time>2026-08-28T17:50:32Z</time>
  <course>2.32</course>
  <speed>4.91</speed>
  <fix>3d</fix>
</trkpt>
<trkpt lat="40.0716073" lon="-105.2297913">
  <ele>1583.0</ele>
  <time>2026-08-28T17:50:32Z</time>
  <course>3.31</course>
  <speed>4.84298461694852</speed>
  <fix>3d</fix>
</trkpt>
<trkpt lat="40.0715998" lon="-105.2297916">
  <ele>1583.0</ele>
  <time>2026-08-28T17:50:32Z</time>
  <course>2.24</course>
  <speed>4.88</speed>
  <fix>3d</fix>
</trkpt>
<trkpt lat="40.0716116" lon="-105.2297911">
  <ele>1583.01</ele>
  <time>2026-08-28T17:50:32Z</time>
  <course>3.24</course>
  <speed>4.832649376894625</speed>
  <fix>3d</fix>
</trkpt>
<trkpt lat="40.0715998" lon="-105.2297916">
  <ele>1583.0</ele>
  <time>2026-08-28T17:50:32Z</time>
  <course>2.24</course>
  <speed>4.88</speed>
  <fix>3d</fix>
</trkpt>
<trkpt lat="40.0716151" lon="-105.2297909">
  <ele>1583.01</ele>
  <time>2026-08-28T17:50:32Z</time>
  <course>3.23</course>
  <speed>4.82265487050442</speed>
  <fix>3d</fix>
</trkpt>
<trkpt lat="40.0716085" lon="-105.2297911">
  <ele>1583.0</ele>
  <time>2026-08-28T17:50:32Z</time>
  <course>2.16</course>
  <speed>4.85</speed>
  <fix>3d</fix>
</trkpt>
<trkpt lat="40.0716194" lon="-105.2297907">
  <ele>1583.01</ele>
  <time>2026-08-28T17:50:32Z</time>
  <course>3.18</course>
  <speed>4.82265487050442</speed>
  <fix>3d</fix>
</trkpt>
<trkpt lat="40.0716085" lon="-105.2297911">
  <ele>1583.0</ele>
  <time>2026-08-28T17:50:32Z</time>
  <course>2.16</course>
  <speed>4.85</speed>
  <fix>3d</fix>
</trkpt>
<trkpt lat="40.0716237" lon="-105.2297905">
  <ele>1583.01</ele>
  <time>2026-08-28T17:50:32Z</time>
  <course>3.13</course>
  <speed>4.812338308972054</speed>
  <fix>3d</fix>
</trkpt>
<trkpt lat="40.0716172" lon="-105.2297907">
  <ele>1583.0</ele>
  <time>2026-08-28T17:50:32Z</time>
  <course>2.07</course>
  <speed>4.85</speed>
  <fix>3d</fix>
</trkpt>
<trkpt lat="40.071628" lon="-105.2297903">
  <ele>1583.02</ele>
  <time>2026-08-28T17:50:32Z</time>
  <course>3.09</course>
  <speed>4.822333460058522</speed>
  <fix>3d</fix>
</trkpt>
<trkpt lat="40.0716172" lon="-105.2297907">
  <ele>1583.0</ele>
  <time>2026-08-28T17:50:32Z</time>
  <course>2.07</course>
  <speed>4.85</speed>
  <fix>3d</fix>
</trkpt>
<trkpt lat="40.0716324" lon="-105.2297901">
  <ele>1583.02</ele>
  <time>2026-08-28T17:50:32Z</time>
  <course>3.07</course>
  <speed>4.822333460058522</speed>
  <fix>3d</fix>
</trkpt>
<trkpt lat="40.0716259" lon="-105.2297902">
  <ele>1583.0</ele>
  <time>2026-08-28T17:50:32Z</time>
  <course>1.98</course>
  <speed>4.85</speed>
  <fix>3d</fix>
</trkpt>
<trkpt lat="40.0716368" lon="-105.2297899">
  <ele>1583.02</ele>
  <time>2026-08-28T17:50:32Z</time>
  <course>3.02</course>
  <speed>4.832328631208767</speed>
  <fix>3d</fix>
</trkpt>
<trkpt lat="40.0716259" lon="-105.2297902">
  <ele>1583.0</ele>
  <time>2026-08-28T17:50:32Z</time>
  <course>1.98</course>
  <speed>4.85</speed>
  <fix>3d</fix>
</trkpt>
<trkpt lat="40.0716411" lon="-105.2297897">
  <ele>1583.02</ele>
  <time>2026-08-28T17:50:32Z</time>
  <course>2.98</course>
  <speed>4.832028559518249</speed>
  <fix>3d</fix>
</trkpt>
<trkpt lat="40.0716346" lon="-105.2297899">
  <ele>1583.0</ele>
  <time>2026-08-28T17:50:32Z</time>
  <course>1.91</course>
  <speed>4.86</speed>
  <fix>3d</fix>
</trkpt>
<trkpt lat="40.0716455" lon="-105.2297896">
  <ele>1583.03</ele>
  <time>2026-08-28T17:50:32Z</time>
  <course>2.96</course>
  <speed>4.842024370033674</speed>
  <fix>3d</fix>
</trkpt>
<trkpt lat="40.0716346" lon="-105.2297899">
  <ele>1583.0</ele>
  <time>2026-08-28T17:50:32Z</time>
  <course>1.91</course>
  <speed>4.86</speed>
  <fix>3d</fix>
</trkpt>
<trkpt lat="40.0716499" lon="-105.2297894">
  <ele>1583.03</ele>
  <time>2026-08-28T17:50:32Z</time>
  <course>2.89</course>
  <speed>4.8520201978145145</speed>
  <fix>3d</fix>
</trkpt>
<trkpt lat="40.0716434" lon="-105.2297896">
  <ele>1583.0</ele>
  <time>2026-08-28T17:50:32Z</time>
  <course>1.81</course>
  <speed>4.87</speed>
  <fix>3d</fix>
</trkpt>
<trkpt lat="40.0716543" lon="-105.2297892">
  <ele>1583.02</ele>
  <time>2026-08-28T17:50:32Z</time>
  <course>2.87</course>
  <speed>4.862016042754281</speed>
  <fix>3d</fix>
</trkpt>
<trkpt lat="40.0716434" lon="-105.2297896">
  <ele>1583.0</ele>
  <time>2026-08-28T17:50:32Z</time>
  <course>1.81</course>
  <speed>4.87</speed>
  <fix>3d</fix>
</trkpt>
<trkpt lat="40.0716596" lon="-105.229789">
  <ele>1583.02</ele>
  <time>2026-08-28T17:50:32Z</time>
  <course>2.84</course>
  <speed>4.871734803948179</speed>
  <fix>3d</fix>
</trkpt>
<trkpt lat="40.0716521" lon="-105.2297892">
  <ele>1583.0</ele>
  <time>2026-08-28T17:50:32Z</time>
  <course>1.73</course>
  <speed>4.89</speed>
  <fix>3d</fix>
</trkpt>
<trkpt lat="40.071664" lon="-105.2297888">
  <ele>1583.02</ele>
  <time>2026-08-28T17:50:32Z</time>
  <course>2.8</course>
  <speed>4.881731250284063</speed>
  <fix>3d</fix>
</trkpt>
<trkpt lat="40.0716521" lon="-105.2297892">
  <ele>1583.0</ele>
  <time>2026-08-28T17:50:32Z</time>
  <course>1.73</course>
  <speed>4.89</speed>
  <fix>3d</fix>
</trkpt>
<trkpt lat="40.0716685" lon="-105.2297887">
  <ele>1583.02</ele>
  <time>2026-08-28T17:50:32Z</time>
  <course>2.75</course>
  <speed>4.881731250284063</speed>
  <fix>3d</fix>
</trkpt>
<trkpt lat="40.0716609" lon="-105.2297888">
  <ele>1583.0</ele>
  <time>2026-08-28T17:50:32Z</time>
  <course>1.66</course>
  <speed>4.9</speed>
  <fix>3d</fix>
</trkpt>
<trkpt lat="40.0716729" lon="-105.2297885">
  <ele>1583.02</ele>
  <time>2026-08-28T17:50:32Z</time>
  <course>2.73</course>
  <speed>4.891727711146646</speed>
  <fix>3d</fix>
</trkpt>
<trkpt lat="40.0716609" lon="-105.2297888">
  <ele>1583.0</ele>
  <time>2026-08-28T17:50:32Z</time>
  <course>1.66</course>
  <speed>4.9</speed>
  <fix>3d</fix>
</trkpt>
<trkpt lat="40.0716773" lon="-105.2297883">
  <ele>1583.02</ele>
  <time>2026-08-28T17:50:32Z</time>
  <course>2.71</course>
  <speed>4.90172418644705</speed>
  <fix>3d</fix>
</trkpt>
<trkpt lat="40.0716697" lon="-105.2297885">
  <ele>1583.0</ele>
  <time>2026-08-28T17:50:32Z</time>
  <course>1.59</course>
  <speed>4.92</speed>
  <fix>3d</fix>
</trkpt>
<trkpt lat="40.0716817" lon="-105.2297882">
  <ele>1583.02</ele>
  <time>2026-08-28T17:50:32Z</time>
  <course>2.67</course>
  <speed>4.90146916750478</speed>
  <fix>3d</fix>
</trkpt>
<trkpt lat="40.0716697" lon="-105.2297885">
  <ele>1583.0</ele>
  <time>2026-08-28T17:50:32Z</time>
  <course>1.59</course>
  <speed>4.92</speed>
  <fix>3d</fix>
</trkpt>
<trkpt lat="40.0716861" lon="-105.229788">
  <ele>1583.02</ele>
  <time>2026-08-28T17:50:32Z</time>
  <course>2.63</course>
  <speed>4.911466176204413</speed>
  <fix>3d</fix>
</trkpt>
<trkpt lat="40.0716786" lon="-105.2297882">
  <ele>1583.0</ele>
  <time>2026-08-28T17:50:32Z</time>
  <course>1.52</course>
  <speed>4.93</speed>
  <fix>3d</fix>
</trkpt>
<trkpt lat="40.0716905" lon="-105.2297879">
  <ele>1583.02</ele>
  <time>2026-08-28T17:50:32Z</time>
  <course>2.6</course>
  <speed>4.911466176204413</speed>
  <fix>3d</fix>
</trkpt>
<trkpt lat="40.0716786" lon="-105.2297882">
  <ele>1583.0</ele>
  <time>2026-08-28T17:50:32Z</time>
  <course>1.52</course>
  <speed>4.93</speed>
  <fix>3d</fix>
</trkpt>
<trkpt lat="40.0716949" lon="-105.2297877">
  <ele>1583.02</ele>
  <time>2026-08-28T17:50:32Z</time>
  <course>2.58</course>
  <speed>4.921463197058371</speed>
  <fix>3d</fix>
</trkpt>
<trkpt lat="40.0716875" lon="-105.2297879">
  <ele>1583.0</ele>
  <time>2026-08-28T17:50:32Z</time>
  <course>1.45</course>
  <speed>4.95</speed>
  <fix>3d</fix>
</trkpt>
<trkpt lat="40.0716993" lon="-105.2297876">
  <ele>1583.01</ele>
  <time>2026-08-28T17:50:32Z</time>
  <course>2.54</course>
  <speed>4.921463197058371</speed>
  <fix>3d</fix>
</trkpt>
<trkpt lat="40.0716875" lon="-105.2297879">
  <ele>1583.0</ele>
  <time>2026-08-28T17:50:32Z</time>
  <course>1.45</course>
  <speed>4.95</speed>
  <fix>3d</fix>
</trkpt>
<trkpt lat="40.0717037" lon="-105.2297874">
  <ele>1583.01</ele>
  <time>2026-08-28T17:50:32Z</time>
  <course>2.5</course>
  <speed>4.931227027829888</speed>
  <fix>3d</fix>
</trkpt>
<trkpt lat="40.0716964" lon="-105.2297876">
  <ele>1583.0</ele>
  <time>2026-08-28T17:50:32Z</time>
  <course>1.37</course>
  <speed>4.96</speed>
  <fix>3d</fix>
</trkpt>
<trkpt lat="40.0717073" lon="-105.2297873">
  <ele>1583.01</ele>
  <time>2026-08-28T17:50:32Z</time>
  <course>2.48</course>
  <speed>4.931227027829888</speed>
  <fix>3d</fix>
</trkpt>
<trkpt lat="40.0716964" lon="-105.2297876">
  <ele>1583.0</ele>
  <time>2026-08-28T17:50:32Z</time>
  <course>1.37</course>
  <speed>4.96</speed>
  <fix>3d</fix>
</trkpt>
<trkpt lat="40.0717117" lon="-105.2297872">
  <ele>1583.01</ele>
  <time>2026-08-28T17:50:32Z</time>
  <course>2.47</course>
  <speed>4.931227027829888</speed>
  <fix>3d</fix>
</trkpt>
<trkpt lat="40.0717054" lon="-105.2297873">
  <ele>1583.0</ele>
  <time>2026-08-28T17:50:32Z</time>
  <course>1.31</course>
  <speed>4.98</speed>
  <fix>3d</fix>
</trkpt>
<trkpt lat="40.0717162" lon="-105.229787">
  <ele>1583.02</ele>
  <time>2026-08-28T17:50:32Z</time>
  <course>2.42</course>
  <speed>4.941224544584065</speed>
  <fix>3d</fix>
</trkpt>
<trkpt lat="40.0717054" lon="-105.2297873">
  <ele>1583.0</ele>
  <time>2026-08-28T17:50:32Z</time>
  <course>1.31</course>
  <speed>4.98</speed>
  <fix>3d</fix>
</trkpt>
<trkpt lat="40.0717206" lon="-105.2297869">
  <ele>1583.02</ele>
  <time>2026-08-28T17:50:32Z</time>
  <course>2.4</course>
  <speed>4.941224544584065</speed>
  <fix>3d</fix>
</trkpt>
<trkpt lat="40.0717143" lon="-105.2297871">
  <ele>1583.0</ele>
  <time>2026-08-28T17:50:32Z</time>
  <course>1.25</course>
  <speed>4.99</speed>
  <fix>3d</fix>
</trkpt>
<trkpt lat="40.0717251" lon="-105.2297868">
  <ele>1583.02</ele>
  <time>2026-08-28T17:50:32Z</time>
  <course>2.39</course>
  <speed>4.951222071367836</speed>
  <fix>3d</fix>
</trkpt>
<trkpt lat="40.0717143" lon="-105.2297871">
  <ele>1583.0</ele>
  <time>2026-08-28T17:50:32Z</time>
  <course>1.25</course>
  <speed>4.99</speed>
  <fix>3d</fix>
</trkpt>
<trkpt lat="40.0717297" lon="-105.2297866">
  <ele>1583.02</ele>
  <time>2026-08-28T17:50:32Z</time>
  <course>2.36</course>
  <speed>4.951009997970111</speed>
  <fix>3d</fix>
</trkpt>
<trkpt lat="40.0717233" lon="-105.2297868">
  <ele>1583.0</ele>
  <time>2026-08-28T17:50:32Z</time>
  <course>1.18</course>
  <speed>5.0</speed>
  <fix>3d</fix>
</trkpt>
<trkpt lat="40.0717342" lon="-105.2297865">
  <ele>1583.01</ele>
  <time>2026-08-28T17:50:32Z</time>
  <course>2.34</course>
  <speed>4.961007962098026</speed>
  <fix>3d</fix>
</trkpt>
<trkpt lat="40.0717233" lon="-105.2297868">
  <ele>1583.0</ele>
  <time>2026-08-28T17:50:32Z</time>
  <course>1.18</course>
  <speed>5.0</speed>
  <fix>3d</fix>
</trkpt>
<trkpt lat="40.0717387" lon="-105.2297864">
  <ele>1583.01</ele>
  <time>2026-08-28T17:50:32Z</time>
  <course>2.33</course>
  <speed>4.961007962098026</speed>
  <fix>3d</fix>
</trkpt>
<trkpt lat="40.0717322" lon="-105.2297865">
  <ele>1583.0</ele>
  <time>2026-08-28T17:50:32Z</time>
  <course>1.13</course>
  <speed>5.0</speed>
  <fix>3d</fix>
</trkpt>
<trkpt lat="40.0717433" lon="-105.2297863">
  <ele>1583.01</ele>
  <time>2026-08-28T17:50:32Z</time>
  <course>2.29</course>
  <speed>4.961007962098026</speed>
  <fix>3d</fix>
</trkpt>
<trkpt lat="40.0717322" lon="-105.2297865">
  <ele>1583.0</ele>
  <time>2026-08-28T17:50:32Z</time>
  <course>1.13</course>
  <speed>5.0</speed>
  <fix>3d</fix>
</trkpt>
<trkpt lat="40.0717478" lon="-105.2297862">
  <ele>1583.01</ele>
  <time>2026-08-28T17:50:32Z</time>
  <course>2.29</course>
  <speed>4.961007962098026</speed>
  <fix>3d</fix>
</trkpt>
<trkpt lat="40.0717413" lon="-105.2297864">
  <ele>1583.0</ele>
  <time>2026-08-28T17:50:32Z</time>
  <course>1.09</course>
  <speed>5.0</speed>
  <fix>3d</fix>
</trkpt>
<trkpt lat="40.0717532" lon="-105.229786">
  <ele>1583.01</ele>
  <time>2026-08-28T17:50:32Z</time>
  <course>2.26</course>
  <speed>4.961007962098026</speed>
  <fix>3d</fix>
</trkpt>
<trkpt lat="40.0717413" lon="-105.2297864">
  <ele>1583.0</ele>
  <time>2026-08-28T17:50:32Z</time>
  <course>1.09</course>
  <speed>5.0</speed>
  <fix>3d</fix>
</trkpt>
<trkpt lat="40.0717577" lon="-105.2297859">
  <ele>1583.0</ele>
  <time>2026-08-28T17:50:32Z</time>
  <course>2.23</course>
  <speed>4.960816465058953</speed>
  <fix>3d</fix>
</trkpt>
<trkpt lat="40.0717503" lon="-105.2297862">
  <ele>1583.0</ele>
  <time>2026-08-28T17:50:32Z</time>
  <course>1.03</course>
  <speed>5.0</speed>
  <fix>3d</fix>
</trkpt>
<trkpt lat="40.0717623" lon="-105.2297858">
  <ele>1583.0</ele>
  <time>2026-08-28T17:50:32Z</time>
  <course>2.24</course>
  <speed>4.960816465058953</speed>
  <fix>3d</fix>
</trkpt>
<trkpt lat="40.0717503" lon="-105.2297862">
  <ele>1583.0</ele>
  <time>2026-08-28T17:50:32Z</time>
  <course>1.03</course>
  <speed>5.0</speed>
  <fix>3d</fix>
</trkpt>
<trkpt lat="40.0717668" lon="-105.2297857">
  <ele>1583.0</ele>
  <time>2026-08-28T17:50:32Z</time>
  <course>2.2</course>
  <speed>4.960816465058953</speed>
  <fix>3d</fix>
</trkpt>
<trkpt lat="40.0717592" lon="-105.2297859">
  <ele>1583.0</ele>
  <time>2026-08-28T17:50:32Z</time>
  <course>0.97</course>
  <speed>5.0</speed>
  <fix>3d</fix>
</trkpt>
<trkpt lat="40.0717713" lon="-105.2297856">
  <ele>1583.0</ele>
  <time>2026-08-28T17:50:32Z</time>
  <course>2.19</course>
  <speed>4.960816465058953</speed>
  <fix>3d</fix>
</trkpt>
<trkpt lat="40.0717592" lon="-105.2297859">
  <ele>1583.0</ele>
  <time>2026-08-28T17:50:32Z</time>
  <course>0.97</course>
  <speed>5.0</speed>
  <fix>3d</fix>
</trkpt>
<trkpt lat="40.0717758" lon="-105.2297855">
  <ele>1583.0</ele>
  <time>2026-08-28T17:50:32Z</time>
  <course>2.18</course>
  <speed>4.950818114211025</speed>
  <fix>3d</fix>
</trkpt>
<trkpt lat="40.0717683" lon="-105.2297858">
  <ele>1583.0</ele>
  <time>2026-08-28T17:50:32Z</time>
  <course>0.93</course>
  <speed>4.99</speed>
  <fix>3d</fix>
</trkpt>
<trkpt lat="40.0717802" lon="-105.2297854">
  <ele>1582.99</ele>
  <time>2026-08-28T17:50:32Z</time>
  <course>2.16</course>
  <speed>4.950818114211025</speed>
  <fix>3d</fix>
</trkpt>
<trkpt lat="40.0717683" lon="-105.2297858">
  <ele>1583.0</ele>
  <time>2026-08-28T17:50:32Z</time>
  <course>0.93</course>
  <speed>4.99</speed>
  <fix>3d</fix>
</trkpt>
<trkpt lat="40.0717847" lon="-105.2297853">
  <ele>1582.99</ele>
  <time>2026-08-28T17:50:32Z</time>
  <course>2.14</course>
  <speed>4.94064773081425</speed>
  <fix>3d</fix>
</trkpt>
<trkpt lat="40.0717772" lon="-105.2297855">
  <ele>1583.0</ele>
  <time>2026-08-28T17:50:32Z</time>
  <course>0.91</course>
  <speed>4.98</speed>
  <fix>3d</fix>
</trkpt>
<trkpt lat="40.0717891" lon="-105.2297852">
  <ele>1582.99</ele>
  <time>2026-08-28T17:50:32Z</time>
  <course>2.14</course>
  <speed>4.94064773081425</speed>
  <fix>3d</fix>
</trkpt>
<trkpt lat="40.0717772" lon="-105.2297855">
  <ele>1583.0</ele>
  <time>2026-08-28T17:50:32Z</time>
  <course>0.91</course>
  <speed>4.98</speed>
  <fix>3d</fix>
</trkpt>
<trkpt lat="40.0717935" lon="-105.2297851">
  <ele>1582.98</ele>
  <time>2026-08-28T17:50:32Z</time>
  <course>2.11</course>
  <speed>4.94064773081425</speed>
  <fix>3d</fix>
</trkpt>
<trkpt lat="40.0717862" lon="-105.2297854">
  <ele>1583.0</ele>
  <time>2026-08-28T17:50:32Z</time>
  <course>0.86</course>
  <speed>4.98</speed>
  <fix>3d</fix>
</trkpt>
<trkpt lat="40.071798" lon="-105.2297851">
  <ele>1582.98</ele>
  <time>2026-08-28T17:50:32Z</time>
  <course>2.1</course>
  <speed>4.930649044497083</speed>
  <fix>3d</fix>
</trkpt>
<trkpt lat="40.0717862" lon="-105.2297854">
  <ele>1583.0</ele>
  <time>2026-08-28T17:50:32Z</time>
  <course>0.86</course>
  <speed>4.98</speed>
  <fix>3d</fix>
</trkpt>
<trkpt lat="40.0718016" lon="-105.229785">
  <ele>1582.98</ele>
  <time>2026-08-28T17:50:32Z</time>
  <course>2.09</course>
  <speed>4.930649044497083</speed>
  <fix>3d</fix>
</trkpt>
<trkpt lat="40.0717951" lon="-105.2297852">
  <ele>1583.0</ele>
  <time>2026-08-28T17:50:32Z</time>
  <course>0.82</course>
  <speed>4.97</speed>
  <fix>3d</fix>
</trkpt>
<trkpt lat="40.071806" lon="-105.2297849">
  <ele>1582.98</ele>
  <time>2026-08-28T17:50:32Z</time>
  <course>2.07</course>
  <speed>4.930649044497083</speed>
  <fix>3d</fix>
</trkpt>
<trkpt lat="40.0717951" lon="-105.2297852">
  <ele>1583.0</ele>
  <time>2026-08-28T17:50:32Z</time>
  <course>0.82</course>
  <speed>4.97</speed>
  <fix>3d</fix>
</trkpt>
<trkpt lat="40.0718105" lon="-105.2297848">
  <ele>1582.97</ele>
  <time>2026-08-28T17:50:32Z</time>
  <course>2.07</course>
  <speed>4.930649044497083</speed>
  <fix>3d</fix>
</trkpt>
<trkpt lat="40.071804" lon="-105.229785">
  <ele>1583.0</ele>
  <time>2026-08-28T17:50:32Z</time>
  <course>0.8</course>
  <speed>4.97</speed>
  <fix>3d</fix>
</trkpt>
<trkpt lat="40.0718149" lon="-105.2297847">
  <ele>1582.97</ele>
  <time>2026-08-28T17:50:32Z</time>
  <course>2.05</course>
  <speed>4.930649044497083</speed>
  <fix>3d</fix>
</trkpt>
<trkpt lat="40.071804" lon="-105.229785">
  <ele>1583.0</ele>
  <time>2026-08-28T17:50:32Z</time>
  <course>0.8</course>
  <speed>4.97</speed>
  <fix>3d</fix>
</trkpt>
<trkpt lat="40.0718194" lon="-105.2297847">
  <ele>1582.96</ele>
  <time>2026-08-28T17:50:32Z</time>
  <course>2.04</course>
  <speed>4.930649044497083</speed>
  <fix>3d</fix>
</trkpt>
<trkpt lat="40.071813" lon="-105.2297849">
  <ele>1583.0</ele>
  <time>2026-08-28T17:50:32Z</time>
  <course>0.77</course>
  <speed>4.97</speed>
  <fix>3d</fix>
</trkpt>
<trkpt lat="40.0718239" lon="-105.2297846">
  <ele>1582.96</ele>
  <time>2026-08-28T17:50:32Z</time>
  <course>2.03</course>
  <speed>4.94064773081425</speed>
  <fix>3d</fix>
</trkpt>
<trkpt lat="40.071813" lon="-105.2297849">
  <ele>1583.0</ele>
  <time>2026-08-28T17:50:32Z</time>
  <course>0.77</course>
  <speed>4.97</speed>
  <fix>3d</fix>
</trkpt>
<trkpt lat="40.0718284" lon="-105.2297845">
  <ele>1582.96</ele>
  <time>2026-08-28T17:50:32Z</time>
  <course>2.01</course>
  <speed>4.940495926523976</speed>
  <fix>3d</fix>
</trkpt>
<trkpt lat="40.0718219" lon="-105.2297847">
  <ele>1583.0</ele>
  <time>2026-08-28T17:50:32Z</time>
  <course>0.74</course>
  <speed>4.97</speed>
  <fix>3d</fix>
</trkpt>
<trkpt lat="40.0718329" lon="-105.2297844">
  <ele>1582.96</ele>
  <time>2026-08-28T17:50:32Z</time>
  <course>2.01</course>
  <speed>4.940495926523976</speed>
  <fix>3d</fix>
</trkpt>
<trkpt lat="40.0718219" lon="-105.2297847">
  <ele>1583.0</ele>
  <time>2026-08-28T17:50:32Z</time>
  <course>0.74</course>
  <speed>4.97</speed>
  <fix>3d</fix>
</trkpt>
<trkpt lat="40.0718374" lon="-105.2297843">
  <ele>1582.97</ele>
  <time>2026-08-28T17:50:32Z</time>
  <course>1.98</course>
  <speed>4.940495926523976</speed>
  <fix>3d</fix>
</trkpt>
<trkpt lat="40.0718308" lon="-105.2297845">
  <ele>1583.0</ele>
  <time>2026-08-28T17:50:32Z</time>
  <course>0.7</course>
  <speed>4.97</speed>
  <fix>3d</fix>
</trkpt>
<trkpt lat="40.0718428" lon="-105.2297843">
  <ele>1582.97</ele>
  <time>2026-08-28T17:50:32Z</time>
  <course>1.99</course>
  <speed>4.940495926523976</speed>
  <fix>3d</fix>
</trkpt>
<trkpt lat="40.0718308" lon="-105.2297845">
  <ele>1583.0</ele>
  <time>2026-08-28T17:50:32Z</time>
  <course>0.7</course>
  <speed>4.97</speed>
  <fix>3d</fix>
</trkpt>
<trkpt lat="40.0718473" lon="-105.2297842">
  <ele>1582.97</ele>
  <time>2026-08-28T17:50:32Z</time>
  <course>1.98</course>
  <speed>4.940495926523976</speed>
  <fix>3d</fix>
</trkpt>
<trkpt lat="40.0718398" lon="-105.2297844">
  <ele>1583.0</ele>
  <time>2026-08-28T17:50:32Z</time>
  <course>0.68</course>
  <speed>4.97</speed>
  <fix>3d</fix>
</trkpt>
<trkpt lat="40.0718518" lon="-105.2297841">
  <ele>1582.97</ele>
  <time>2026-08-28T17:50:32Z</time>
  <course>1.98</course>
  <speed>4.940495926523976</speed>
  <fix>3d</fix>
</trkpt>
<trkpt lat="40.0718398" lon="-105.2297844">
  <ele>1583.0</ele>
  <time>2026-08-28T17:50:32Z</time>
  <course>0.68</course>
  <speed>4.97</speed>
  <fix>3d</fix>
</trkpt>
<trkpt lat="40.0718563" lon="-105.229784">
  <ele>1582.97</ele>
  <time>2026-08-28T17:50:32Z</time>
  <course>1.98</course>
  <speed>4.940495926523976</speed>
  <fix>3d</fix>
</trkpt>
<trkpt lat="40.0718487" lon="-105.2297843">
  <ele>1583.0</ele>
  <time>2026-08-28T17:50:32Z</time>
  <course>0.67</course>
  <speed>4.97</speed>
  <fix>3d</fix>
</trkpt>
<trkpt lat="40.0718608" lon="-105.229784">
  <ele>1582.97</ele>
  <time>2026-08-28T17:50:32Z</time>
  <course>1.98</course>
  <speed>4.940495926523976</speed>
  <fix>3d</fix>
</trkpt>
<trkpt lat="40.0718487" lon="-105.2297843">
  <ele>1583.0</ele>
  <time>2026-08-28T17:50:32Z</time>
  <course>0.67</course>
  <speed>4.97</speed>
  <fix>3d</fix>
</trkpt>
<trkpt lat="40.0718652" lon="-105.2297839">
  <ele>1582.97</ele>
  <time>2026-08-28T17:50:32Z</time>
  <course>1.98</course>
  <speed>4.950494924752474</speed>
  <fix>3d</fix>
</trkpt>
<trkpt lat="40.0718576" lon="-105.2297841">
  <ele>1583.0</ele>
  <time>2026-08-28T17:50:32Z</time>
  <course>0.66</course>
  <speed>4.97</speed>
  <fix>3d</fix>
</trkpt>
<trkpt lat="40.0718697" lon="-105.2297838">
  <ele>1582.97</ele>
  <time>2026-08-28T17:50:32Z</time>
  <course>1.99</course>
  <speed>4.950494924752474</speed>
  <fix>3d</fix>
</trkpt>
<trkpt lat="40.0718576" lon="-105.2297841">
  <ele>1583.0</ele>
  <time>2026-08-28T17:50:32Z</time>
  <course>0.66</course>
  <speed>4.97</speed>
  <fix>3d</fix>
</trkpt>
<trkpt lat="40.0718741" lon="-105.2297837">
  <ele>1582.97</ele>
  <time>2026-08-28T17:50:32Z</time>
  <course>1.99</course>
  <speed>4.940495926523976</speed>
  <fix>3d</fix>
</trkpt>
<trkpt lat="40.0718666" lon="-105.229784">
  <ele>1583.0</ele>
  <time>2026-08-28T17:50:32Z</time>
  <course>0.66</course>
  <speed>4.97</speed>
  <fix>3d</fix>
</trkpt>
<trkpt lat="40.0718786" lon="-105.2297837">
  <ele>1582.97</ele>
  <time>2026-08-28T17:50:32Z</time>
  <course>1.99</course>
  <speed>4.940495926523976</speed>
  <fix>3d</fix>
</trkpt>
<trkpt lat="40.0718666" lon="-105.229784">
  <ele>1583.0</ele>
  <time>2026-08-28T17:50:32Z</time>
  <course>0.66</course>
  <speed>4.97</speed>
  <fix>3d</fix>
</trkpt>
<trkpt lat="40.071883" lon="-105.2297836">
  <ele>1582.97</ele>
  <time>2026-08-28T17:50:32Z</time>
  <course>1.99</course>
  <speed>4.940495926523976</speed>
  <fix>3d</fix>
</trkpt>
<trkpt lat="40.0718756" lon="-105.2297839">
  <ele>1583.0</ele>
  <time>2026-08-28T17:50:32Z</time>
  <course>0.66</course>
  <speed>4.97</speed>
  <fix>3d</fix>
</trkpt>
<trkpt lat="40.0718874" lon="-105.2297835">
  <ele>1582.97</ele>
  <time>2026-08-28T17:50:32Z</time>
  <course>1.99</course>
  <speed>4.940495926523976</speed>
  <fix>3d</fix>
</trkpt>
<trkpt lat="40.0718756" lon="-105.2297839">
  <ele>1583.0</ele>
  <time>2026-08-28T17:50:32Z</time>
  <course>0.66</course>
  <speed>4.97</speed>
  <fix>3d</fix>
</trkpt>
<trkpt lat="40.0718919" lon="-105.2297835">
  <ele>1582.97</ele>
  <time>2026-08-28T17:50:32Z</time>
  <course>1.99</course>
  <speed>4.950494924752474</speed>
  <fix>3d</fix>
</trkpt>
<trkpt lat="40.0718845" lon="-105.2297837">
  <ele>1583.0</ele>
  <time>2026-08-28T17:50:32Z</time>
  <course>0.66</course>
  <speed>4.98</speed>
  <fix>3d</fix>
</trkpt>
<trkpt lat="40.0718954" lon="-105.2297834">
  <ele>1582.97</ele>
  <time>2026-08-28T17:50:32Z</time>
  <course>1.99</course>
  <speed>4.950494924752474</speed>
  <fix>3d</fix>
</trkpt>
<trkpt lat="40.0718845" lon="-105.2297837">
  <ele>1583.0</ele>
  <time>2026-08-28T17:50:32Z</time>
  <course>0.66</course>
  <speed>4.98</speed>
  <fix>3d</fix>
</trkpt>
<trkpt lat="40.0718999" lon="-105.2297833">
  <ele>1582.97</ele>
  <time>2026-08-28T17:50:32Z</time>
  <course>2.0</course>
  <speed>4.950494924752474</speed>
  <fix>3d</fix>
</trkpt>
<trkpt lat="40.0718935" lon="-105.2297836">
  <ele>1583.0</ele>
  <time>2026-08-28T17:50:32Z</time>
  <course>0.66</course>
  <speed>4.98</speed>
  <fix>3d</fix>
</trkpt>
<trkpt lat="40.0719044" lon="-105.2297833">
  <ele>1582.98</ele>
  <time>2026-08-28T17:50:32Z</time>
  <course>2.0</course>
  <speed>4.950494924752474</speed>
  <fix>3d</fix>
</trkpt>
<trkpt lat="40.0718935" lon="-105.2297836">
  <ele>1583.0</ele>
  <time>2026-08-28T17:50:32Z</time>
  <course>0.66</course>
  <speed>4.98</speed>
  <fix>3d</fix>
</trkpt>
<trkpt lat="40.0719088" lon="-105.2297832">
  <ele>1582.98</ele>
  <time>2026-08-28T17:50:32Z</time>
  <course>2.0</course>
  <speed>4.950646422438186</speed>
  <fix>3d</fix>
</trkpt>
<trkpt lat="40.0719024" lon="-105.2297835">
  <ele>1583.0</ele>
  <time>2026-08-28T17:50:32Z</time>
  <course>0.66</course>
  <speed>4.99</speed>
  <fix>3d</fix>
</trkpt>
<trkpt lat="40.0719133" lon="-105.2297831">
  <ele>1582.98</ele>
  <time>2026-08-28T17:50:32Z</time>
  <course>2.0</course>
  <speed>4.960493927019768</speed>
  <fix>3d</fix>
</trkpt>
<trkpt lat="40.0719024" lon="-105.2297835">
  <ele>1583.0</ele>
  <time>2026-08-28T17:50:32Z</time>
  <course>0.66</course>
  <speed>4.99</speed>
  <fix>3d</fix>
</trkpt>
<trkpt lat="40.0719178" lon="-105.2297831">
  <ele>1582.98</ele>
  <time>2026-08-28T17:50:32Z</time>
  <course>2.0</course>
  <speed>4.960645119336799</speed>
  <fix>3d</fix>
</trkpt>
<trkpt lat="40.0719114" lon="-105.2297833">
  <ele>1583.0</ele>
  <time>2026-08-28T17:50:32Z</time>
  <course>0.66</course>
  <speed>4.99</speed>
  <fix>3d</fix>
</trkpt>
<trkpt lat="40.0719223" lon="-105.229783">
  <ele>1582.98</ele>
  <time>2026-08-28T17:50:32Z</time>
  <course>2.0</course>
  <speed>4.960645119336799</speed>
  <fix>3d</fix>
</trkpt>
<trkpt lat="40.0719114" lon="-105.2297833">
  <ele>1583.0</ele>
  <time>2026-08-28T17:50:32Z</time>
  <course>0.66</course>
  <speed>4.99</speed>
  <fix>3d</fix>
</trkpt>
<trkpt lat="40.0719269" lon="-105.2297829">
  <ele>1582.98</ele>
  <time>2026-08-28T17:50:32Z</time>
  <course>2.0</course>
  <speed>4.97064382147826</speed>
  <fix>3d</fix>
</trkpt>
<trkpt lat="40.0719203" lon="-105.2297832">
  <ele>1583.0</ele>
  <time>2026-08-28T17:50:32Z</time>
  <course>0.66</course>
  <speed>5.0</speed>
  <fix>3d</fix>
</trkpt>
<trkpt lat="40.0719314" lon="-105.2297829">
  <ele>1582.98</ele>
  <time>2026-08-28T17:50:32Z</time>
  <course>2.0</course>
  <speed>4.97064382147826</speed>
  <fix>3d</fix>
</trkpt>
<trkpt lat="40.0719203" lon="-105.2297832">
  <ele>1583.0</ele>
  <time>2026-08-28T17:50:32Z</time>
  <course>0.66</course>
  <speed>5.0</speed>
  <fix>3d</fix>
</trkpt>
<trkpt lat="40.0719369" lon="-105.2297828">
  <ele>1582.98</ele>
  <time>2026-08-28T17:50:32Z</time>
  <course>2.0</course>
  <speed>4.97064382147826</speed>
  <fix>3d</fix>
</trkpt>
<trkpt lat="40.0719294" lon="-105.229783">
  <ele>1583.0</ele>
  <time>2026-08-28T17:50:32Z</time>
  <course>0.66</course>
  <speed>5.0</speed>
  <fix>3d</fix>
</trkpt>
<trkpt lat="40.0719414" lon="-105.2297827">
  <ele>1582.99</ele>
  <time>2026-08-28T17:50:32Z</time>
  <course>2.0</course>
  <speed>4.97064382147826</speed>
  <fix>3d</fix>
</trkpt>
<trkpt lat="40.0719294" lon="-105.229783">
  <ele>1583.0</ele>
  <time>2026-08-28T17:50:32Z</time>
  <course>0.66</course>
  <speed>5.0</speed>
  <fix>3d</fix>
</trkpt>
<trkpt lat="40.0719459" lon="-105.2297826">
  <ele>1582.99</ele>
  <time>2026-08-28T17:50:32Z</time>
  <course>2.0</course>
  <speed>4.97064382147826</speed>
  <fix>3d</fix>
</trkpt>
<trkpt lat="40.0719383" lon="-105.2297829">
  <ele>1583.0</ele>
  <time>2026-08-28T17:50:32Z</time>
  <course>0.66</course>
  <speed>5.0</speed>
  <fix>3d</fix>
</trkpt>
<trkpt lat="40.0719504" lon="-105.2297826">
  <ele>1582.99</ele>
  <time>2026-08-28T17:50:32Z</time>
  <course>2.0</course>
  <speed>4.97064382147826</speed>
  <fix>3d</fix>
</trkpt>
<trkpt lat="40.0719383" lon="-105.2297829">
  <ele>1583.0</ele>
  <time>2026-08-28T17:50:32Z</time>
  <course>0.66</course>
  <speed>5.0</speed>
  <fix>3d</fix>
</trkpt>
<trkpt lat="40.0719549" lon="-105.2297825">
  <ele>1583.0</ele>
  <time>2026-08-28T17:50:32Z</time>
  <course>2.0</course>
  <speed>4.97064382147826</speed>
  <fix>3d</fix>
</trkpt>
<trkpt lat="40.0719474" lon="-105.2297828">
  <ele>1583.0</ele>
  <time>2026-08-28T17:50:32Z</time>
  <course>0.66</course>
  <speed>5.0</speed>
  <fix>3d</fix>
</trkpt>
<trkpt lat="40.0719595" lon="-105.2297824">
  <ele>1583.0</ele>
  <time>2026-08-28T17:50:32Z</time>
  <course>2.0</course>
  <speed>4.970492933301485</speed>
  <fix>3d</fix>
</trkpt>
<trkpt lat="40.0719474" lon="-105.2297828">
  <ele>1583.0</ele>
  <time>2026-08-28T17:50:32Z</time>
  <course>0.66</course>
  <speed>5.0</speed>
  <fix>3d</fix>
</trkpt>
<trkpt lat="40.071964" lon="-105.2297823">
  <ele>1583.0</ele>
  <time>2026-08-28T17:50:32Z</time>
  <course>2.0</course>
  <speed>4.970492933301485</speed>
  <fix>3d</fix>
</trkpt>
<trkpt lat="40.0719564" lon="-105.2297826">
  <ele>1583.0</ele>
  <time>2026-08-28T17:50:32Z</time>
  <course>0.66</course>
  <speed>4.99</speed>
  <fix>3d</fix>
</trkpt>
<trkpt lat="40.0719684" lon="-105.2297823">
  <ele>1583.0</ele>
  <time>2026-08-28T17:50:32Z</time>
  <course>2.0</course>
  <speed>4.970492933301485</speed>
  <fix>3d</fix>
</trkpt>
<trkpt lat="40.0719564" lon="-105.2297826">
  <ele>1583.0</ele>
  <time>2026-08-28T17:50:32Z</time>
  <course>0.66</course>
  <speed>4.99</speed>
  <fix>3d</fix>
</trkpt>
<trkpt lat="40.0719729" lon="-105.2297822">
  <ele>1583.0</ele>
  <time>2026-08-28T17:50:32Z</time>
  <course>2.0</course>
  <speed>4.970492933301485</speed>
  <fix>3d</fix>
</trkpt>
<trkpt lat="40.0719653" lon="-105.2297825">
  <ele>1583.0</ele>
  <time>2026-08-28T17:50:32Z</time>
  <course>0.66</course>
  <speed>4.99</speed>
  <fix>3d</fix>
</trkpt>
<trkpt lat="40.0719773" lon="-105.2297821">
  <ele>1583.0</ele>
  <time>2026-08-28T17:50:32Z</time>
  <course>2.0</course>
  <speed>4.960493927019768</speed>
  <fix>3d</fix>
</trkpt>
<trkpt lat="40.0719653" lon="-105.2297825">
  <ele>1583.0</ele>
  <time>2026-08-28T17:50:32Z</time>
  <course>0.66</course>
  <speed>4.99</speed>
  <fix>3d</fix>
</trkpt>
<trkpt lat="40.0719818" lon="-105.2297821">
  <ele>1583.0</ele>
  <time>2026-08-28T17:50:32Z</time>
  <course>2.0</course>
  <speed>4.960493927019768</speed>
  <fix>3d</fix>
</trkpt>
<trkpt lat="40.0719743" lon="-105.2297824">
  <ele>1583.0</ele>
  <time>2026-08-28T17:50:32Z</time>
  <course>0.66</course>
  <speed>4.99</speed>
  <fix>3d</fix>
</trkpt>
<trkpt lat="40.0719854" lon="-105.229782">
  <ele>1583.0</ele>
  <time>2026-08-28T17:50:32Z</time>
  <course>2.0</course>
  <speed>4.960493927019768</speed>
  <fix>3d</fix>
</trkpt>
<trkpt lat="40.0719743" lon="-105.2297824">
  <ele>1583.0</ele>
  <time>2026-08-28T17:50:32Z</time>
  <course>0.66</course>
  <speed>4.99</speed>
  <fix>3d</fix>
</trkpt>
<trkpt lat="40.0719898" lon="-105.229782">
  <ele>1583.0</ele>
  <time>2026-08-28T17:50:32Z</time>
  <course>2.0</course>
  <speed>4.960493927019768</speed>
  <fix>3d</fix>
</trkpt>
<trkpt lat="40.0719833" lon="-105.2297822">
  <ele>1583.0</ele>
  <time>2026-08-28T17:50:32Z</time>
  <course>0.66</course>
  <speed>4.98</speed>
  <fix>3d</fix>
</trkpt>
<trkpt lat="40.0719943" lon="-105.2297819">
  <ele>1582.99</ele>
  <time>2026-08-28T17:50:32Z</time>
  <course>2.0</course>
  <speed>4.960493927019768</speed>
  <fix>3d</fix>
</trkpt>
<trkpt lat="40.0719833" lon="-105.2297822">
  <ele>1583.0</ele>
  <time>2026-08-28T17:50:32Z</time>
  <course>0.66</course>
  <speed>4.98</speed>
  <fix>3d</fix>
</trkpt>
<trkpt lat="40.0719987" lon="-105.2297818">
  <ele>1582.99</ele>
  <time>2026-08-28T17:50:32Z</time>
  <course>2.0</course>
  <speed>4.960493927019768</speed>
  <fix>3d</fix>
</trkpt>
<trkpt lat="40.0719922" lon="-105.2297821">
  <ele>1583.0</ele>
  <time>2026-08-28T17:50:32Z</time>
  <course>0.66</course>
  <speed>4.98</speed>
  <fix>3d</fix>
</trkpt>
<trkpt lat="40.0720032" lon="-105.2297818">
  <ele>1582.99</ele>
  <time>2026-08-28T17:50:32Z</time>
  <course>2.0</course>
  <speed>4.960493927019768</speed>
  <fix>3d</fix>
</trkpt>
<trkpt lat="40.0719922" lon="-105.2297821">
  <ele>1583.0</ele>
  <time>2026-08-28T17:50:32Z</time>
  <course>0.66</course>
  <speed>4.98</speed>
  <fix>3d</fix>
</trkpt>
<trkpt lat="40.0720077" lon="-105.2297817">
  <ele>1582.98</ele>
  <time>2026-08-28T17:50:32Z</time>
  <course>1.99</course>
  <speed>4.960493927019768</speed>
  <fix>3d</fix>
</trkpt>
<trkpt lat="40.0720012" lon="-105.229782">
  <ele>1583.0</ele>
  <time>2026-08-28T17:50:32Z</time>
  <course>0.66</course>
  <speed>4.98</speed>
  <fix>3d</fix>
</trkpt>
<trkpt lat="40.0720122" lon="-105.2297816">
  <ele>1582.98</ele>
  <time>2026-08-28T17:50:32Z</time>
  <course>1.99</course>
  <speed>4.960493927019768</speed>
  <fix>3d</fix>
</trkpt>
<trkpt lat="40.0720012" lon="-105.229782">
  <ele>1583.0</ele>
  <time>2026-08-28T17:50:32Z</time>
  <course>0.66</course>
  <speed>4.98</speed>
  <fix>3d</fix>
</trkpt>
<trkpt lat="40.0720167" lon="-105.2297816">
  <ele>1582.98</ele>
  <time>2026-08-28T17:50:32Z</time>
  <course>1.99</course>
  <speed>4.960493927019768</speed>
  <fix>3d</fix>
</trkpt>
<trkpt lat="40.0720101" lon="-105.2297818">
  <ele>1583.0</ele>
  <time>2026-08-28T17:50:32Z</time>
  <course>0.66</course>
  <speed>4.99</speed>
  <fix>3d</fix>
</trkpt>
<trkpt lat="40.0720213" lon="-105.2297815">
  <ele>1582.98</ele>
  <time>2026-08-28T17:50:32Z</time>
  <course>1.99</course>
  <speed>4.970492933301485</speed>
  <fix>3d</fix>
</trkpt>
<trkpt lat="40.0720101" lon="-105.2297818">
  <ele>1583.0</ele>
  <time>2026-08-28T17:50:32Z</time>
  <course>0.66</course>
  <speed>4.99</speed>
  <fix>3d</fix>
</trkpt>
<trkpt lat="40.0720258" lon="-105.2297814">
  <ele>1582.99</ele>
  <time>2026-08-28T17:50:32Z</time>
  <course>1.99</course>
  <speed>4.970492933301485</speed>
  <fix>3d</fix>
</trkpt>
<trkpt lat="40.0720191" lon="-105.2297817">
  <ele>1583.0</ele>
  <time>2026-08-28T17:50:32Z</time>
  <course>0.66</course>
  <speed>4.99</speed>
  <fix>3d</fix>
</trkpt>
<trkpt lat="40.0720312" lon="-105.2297813">
  <ele>1582.99</ele>
  <time>2026-08-28T17:50:32Z</time>
  <course>1.99</course>
  <speed>4.970492933301485</speed>
  <fix>3d</fix>
</trkpt>
<trkpt lat="40.0720191" lon="-105.2297817">
  <ele>1583.0</ele>
  <time>2026-08-28T17:50:32Z</time>
  <course>0.66</course>
  <speed>4.99</speed>
  <fix>3d</fix>
</trkpt>
<trkpt lat="40.0720357" lon="-105.2297813">
  <ele>1582.99</ele>
  <time>2026-08-28T17:50:32Z</time>
  <course>1.99</course>
  <speed>4.970492933301485</speed>
  <fix>3d</fix>
</trkpt>
<trkpt lat="40.0720281" lon="-105.2297816">
  <ele>1583.0</ele>
  <time>2026-08-28T17:50:32Z</time>
  <course>0.66</course>
  <speed>4.98</speed>
  <fix>3d</fix>
</trkpt>
<trkpt lat="40.0720402" lon="-105.2297812">
  <ele>1582.98</ele>
  <time>2026-08-28T17:50:32Z</time>
  <course>1.99</course>
  <speed>4.970492933301485</speed>
  <fix>3d</fix>
</trkpt>
<trkpt lat="40.0720281" lon="-105.2297816">
  <ele>1583.0</ele>
  <time>2026-08-28T17:50:32Z</time>
  <course>0.66</course>
  <speed>4.98</speed>
  <fix>3d</fix>
</trkpt>
<trkpt lat="40.0720447" lon="-105.2297811">
  <ele>1582.98</ele>
  <time>2026-08-28T17:50:32Z</time>
  <course>1.99</course>
  <speed>4.970492933301485</speed>
  <fix>3d</fix>
</trkpt>
<trkpt lat="40.072037" lon="-105.2297814">
  <ele>1583.0</ele>
  <time>2026-08-28T17:50:32Z</time>
  <course>0.66</course>
  <speed>4.98</speed>
  <fix>3d</fix>
</trkpt>
<trkpt lat="40.0720492" lon="-105.2297811">
  <ele>1582.98</ele>
  <time>2026-08-28T17:50:32Z</time>
  <course>1.99</course>
  <speed>4.960493927019768</speed>
  <fix>3d</fix>
</trkpt>
<trkpt lat="40.072037" lon="-105.2297814">
  <ele>1583.0</ele>
  <time>2026-08-28T17:50:32Z</time>
  <course>0.66</course>
  <speed>4.98</speed>
  <fix>3d</fix>
</trkpt>
<trkpt lat="40.0720537" lon="-105.229781">
  <ele>1582.98</ele>
  <time>2026-08-28T17:50:32Z</time>
  <course>1.99</course>
  <speed>4.960493927019768</speed>
  <fix>3d</fix>
</trkpt>
<trkpt lat="40.072046" lon="-105.2297813">
  <ele>1583.0</ele>
  <time>2026-08-28T17:50:32Z</time>
  <course>0.66</course>
  <speed>4.98</speed>
  <fix>3d</fix>
</trkpt>
<trkpt lat="40.0720581" lon="-105.2297809">
  <ele>1582.98</ele>
  <time>2026-08-28T17:50:32Z</time>
  <course>1.99</course>
  <speed>4.960493927019768</speed>
  <fix>3d</fix>
</trkpt>
<trkpt lat="40.072046" lon="-105.2297813">
  <ele>1583.0</ele>
  <time>2026-08-28T17:50:32Z</time>
  <course>0.66</course>
  <speed>4.98</speed>
  <fix>3d</fix>
</trkpt>
<trkpt lat="40.0720626" lon="-105.2297809">
  <ele>1582.98</ele>
  <time>2026-08-28T17:50:32Z</time>
  <course>1.99</course>
  <speed>4.960493927019768</speed>
  <fix>3d</fix>
</trkpt>
<trkpt lat="40.072055" lon="-105.2297811">
  <ele>1583.0</ele>
  <time>2026-08-28T17:50:32Z</time>
  <course>0.66</course>
  <speed>4.98</speed>
  <fix>3d</fix>
</trkpt>
<trkpt lat="40.072067" lon="-105.2297808">
  <ele>1582.97</ele>
  <time>2026-08-28T17:50:32Z</time>
  <course>1.99</course>
  <speed>4.960493927019768</speed>
  <fix>3d</fix>
</trkpt>
<trkpt lat="40.072055" lon="-105.2297811">
  <ele>1583.0</ele>
  <time>2026-08-28T17:50:32Z</time>
  <course>0.66</course>
  <speed>4.98</speed>
  <fix>3d</fix>
</trkpt>
<trkpt lat="40.0720715" lon="-105.2297807">
  <ele>1582.97</ele>
  <time>2026-08-28T17:50:32Z</time>
  <course>1.99</course>
  <speed>4.960493927019768</speed>
  <fix>3d</fix>
</trkpt>
<trkpt lat="40.0720639" lon="-105.229781">
  <ele>1583.0</ele>
  <time>2026-08-28T17:50:32Z</time>
  <course>0.66</course>
  <speed>4.98</speed>
  <fix>3d</fix>
</trkpt>
<trkpt lat="40.0720759" lon="-105.2297807">
  <ele>1582.97</ele>
  <time>2026-08-28T17:50:32Z</time>
  <course>1.99</course>
  <speed>4.960493927019768</speed>
  <fix>3d</fix>
</trkpt>
<trkpt lat="40.0720639" lon="-105.229781">
  <ele>1583.0</ele>
  <time>2026-08-28T17:50:32Z</time>
  <course>0.66</course>
  <speed>4.98</speed>
  <fix>3d</fix>
</trkpt>
<trkpt lat="40.0720795" lon="-105.2297806">
  <ele>1582.97</ele>
  <time>2026-08-28T17:50:32Z</time>
  <course>1.99</course>
  <speed>4.960493927019768</speed>
  <fix>3d</fix>
</trkpt>
<trkpt lat="40.0720728" lon="-105.2297809">
  <ele>1583.0</ele>
  <time>2026-08-28T17:50:32Z</time>
  <course>0.66</course>
  <speed>4.98</speed>
  <fix>3d</fix>
</trkpt>
<trkpt lat="40.0720839" lon="-105.2297806">
  <ele>1582.97</ele>
  <time>2026-08-28T17:50:32Z</time>
  <course>1.99</course>
  <speed>4.960493927019768</speed>
  <fix>3d</fix>
</trkpt>
<trkpt lat="40.0720728" lon="-105.2297809">
  <ele>1583.0</ele>
  <time>2026-08-28T17:50:32Z</time>
  <course>0.66</course>
  <speed>4.98</speed>
  <fix>3d</fix>
</trkpt>
<trkpt lat="40.0720884" lon="-105.2297805">
  <ele>1582.96</ele>
  <time>2026-08-28T17:50:32Z</time>
  <course>1.99</course>
  <speed>4.960493927019768</speed>
  <fix>3d</fix>
</trkpt>
<trkpt lat="40.0720818" lon="-105.2297807">
  <ele>1583.0</ele>
  <time>2026-08-28T17:50:32Z</time>
  <course>0.66</course>
  <speed>4.98</speed>
  <fix>3d</fix>
</trkpt>
<trkpt lat="40.0720929" lon="-105.2297804">
  <ele>1582.96</ele>
  <time>2026-08-28T17:50:32Z</time>
  <course>1.99</course>
  <speed>4.960493927019768</speed>
  <fix>3d</fix>
</trkpt>
<trkpt lat="40.0720818" lon="-105.2297807">
  <ele>1583.0</ele>
  <time>2026-08-28T17:50:32Z</time>
  <course>0.66</course>
  <speed>4.98</speed>
  <fix>3d</fix>
</trkpt>
<trkpt lat="40.0720973" lon="-105.2297803">
  <ele>1582.96</ele>
  <time>2026-08-28T17:50:32Z</time>
  <course>1.98</course>
  <speed>4.960493927019768</speed>
  <fix>3d</fix>
</trkpt>
<trkpt lat="40.0720908" lon="-105.2297806">
  <ele>1583.0</ele>
  <time>2026-08-28T17:50:32Z</time>
  <course>0.66</course>
  <speed>4.98</speed>
  <fix>3d</fix>
</trkpt>
<trkpt lat="40.0721018" lon="-105.2297803">
  <ele>1582.95</ele>
  <time>2026-08-28T17:50:32Z</time>
  <course>1.98</course>
  <speed>4.960493927019768</speed>
  <fix>3d</fix>
</trkpt>
<trkpt lat="40.0720908" lon="-105.2297806">
  <ele>1583.0</ele>
  <time>2026-08-28T17:50:32Z</time>
  <course>0.66</course>
  <speed>4.98</speed>
  <fix>3d</fix>
</trkpt>
<trkpt lat="40.0721063" lon="-105.2297802">
  <ele>1582.95</ele>
  <time>2026-08-28T17:50:32Z</time>
  <course>1.98</course>
  <speed>4.960493927019768</speed>
  <fix>3d</fix>
</trkpt>
<trkpt lat="40.0720997" lon="-105.2297805">
  <ele>1583.0</ele>
  <time>2026-08-28T17:50:32Z</time>
  <course>0.66</course>
  <speed>4.98</speed>
  <fix>3d</fix>
</trkpt>
<trkpt lat="40.0721109" lon="-105.2297801">
  <ele>1582.95</ele>
  <time>2026-08-28T17:50:32Z</time>
  <course>1.98</course>
  <speed>4.970492933301485</speed>
  <fix>3d</fix>
</trkpt>
<trkpt lat="40.0720997" lon="-105.2297805">
  <ele>1583.0</ele>
  <time>2026-08-28T17:50:32Z</time>
  <course>0.66</course>
  <speed>4.98</speed>
  <fix>3d</fix>
</trkpt>
<trkpt lat="40.0721154" lon="-105.2297801">
  <ele>1582.95</ele>
  <time>2026-08-28T17:50:32Z</time>
  <course>1.98</course>
  <speed>4.970492933301485</speed>
  <fix>3d</fix>
</trkpt>
<trkpt lat="40.0721087" lon="-105.2297803">
  <ele>1583.0</ele>
  <time>2026-08-28T17:50:32Z</time>
  <course>0.66</course>
  <speed>4.98</speed>
  <fix>3d</fix>
</trkpt>
<trkpt lat="40.0721199" lon="-105.22978">
  <ele>1582.95</ele>
  <time>2026-08-28T17:50:32Z</time>
  <course>1.98</course>
  <speed>4.970492933301485</speed>
  <fix>3d</fix>
</trkpt>
<trkpt lat="40.0721087" lon="-105.2297803">
  <ele>1583.0</ele>
  <time>2026-08-28T17:50:32Z</time>
  <course>0.66</course>
  <speed>4.98</speed>
  <fix>3d</fix>
</trkpt>
<trkpt lat="40.0721253" lon="-105.2297799">
  <ele>1582.95</ele>
  <time>2026-08-28T17:50:32Z</time>
  <course>1.98</course>
  <speed>4.970492933301485</speed>
  <fix>3d</fix>
</trkpt>
<trkpt lat="40.0721176" lon="-105.2297802">
  <ele>1583.0</ele>
  <time>2026-08-28T17:50:32Z</time>
  <course>0.66</course>
  <speed>4.98</speed>
  <fix>3d</fix>
</trkpt>
<trkpt lat="40.0721298" lon="-105.2297799">
  <ele>1582.95</ele>
  <time>2026-08-28T17:50:32Z</time>
  <course>1.98</course>
  <speed>4.970492933301485</speed>
  <fix>3d</fix>
</trkpt>
<trkpt lat="40.0721176" lon="-105.2297802">
  <ele>1583.0</ele>
  <time>2026-08-28T17:50:32Z</time>
  <course>0.66</course>
  <speed>4.98</speed>
  <fix>3d</fix>
</trkpt>
<trkpt lat="40.0721343" lon="-105.2297798">
  <ele>1582.95</ele>
  <time>2026-08-28T17:50:32Z</time>
  <course>1.98</course>
  <speed>4.970492933301485</speed>
  <fix>3d</fix>
</trkpt>
<trkpt lat="40.0721266" lon="-105.2297801">
  <ele>1583.0</ele>
  <time>2026-08-28T17:50:32Z</time>
  <course>0.66</course>
  <speed>4.98</speed>
  <fix>3d</fix>
</trkpt>
<trkpt lat="40.0721388" lon="-105.2297797">
  <ele>1582.95</ele>
  <time>2026-08-28T17:50:32Z</time>
  <course>1.98</course>
  <speed>4.960493927019768</speed>
  <fix>3d</fix>
</trkpt>
<trkpt lat="40.0721266" lon="-105.2297801">
  <ele>1583.0</ele>
  <time>2026-08-28T17:50:32Z</time>
  <course>0.66</course>
  <speed>4.98</speed>
  <fix>3d</fix>
</trkpt>
<trkpt lat="40.0721433" lon="-105.2297797">
  <ele>1582.95</ele>
  <time>2026-08-28T17:50:32Z</time>
  <course>1.98</course>
  <speed>4.960493927019768</speed>
  <fix>3d</fix>
</trkpt>
<trkpt lat="40.0721355" lon="-105.2297799">
  <ele>1583.0</ele>
  <time>2026-08-28T17:50:32Z</time>
  <course>0.66</course>
  <speed>4.98</speed>
  <fix>3d</fix>
</trkpt>
<trkpt lat="40.0721477" lon="-105.2297796">
  <ele>1582.96</ele>
  <time>2026-08-28T17:50:32Z</time>
  <course>1.98</course>
  <speed>4.960493927019768</speed>
  <fix>3d</fix>
</trkpt>
<trkpt lat="40.0721355" lon="-105.2297799">
  <ele>1583.0</ele>
  <time>2026-08-28T17:50:32Z</time>
  <course>0.66</course>
  <speed>4.98</speed>
  <fix>3d</fix>
</trkpt>
<trkpt lat="40.0721522" lon="-105.2297795">
  <ele>1582.96</ele>
  <time>2026-08-28T17:50:32Z</time>
  <course>1.98</course>
  <speed>4.960493927019768</speed>
  <fix>3d</fix>
</trkpt>
<trkpt lat="40.0721445" lon="-105.2297798">
  <ele>1583.0</ele>
  <time>2026-08-28T17:50:32Z</time>
  <course>0.66</course>
  <speed>4.98</speed>
  <fix>3d</fix>
</trkpt>
<trkpt lat="40.0721566" lon="-105.2297795">
  <ele>1582.96</ele>
  <time>2026-08-28T17:50:32Z</time>
  <course>1.98</course>
  <speed>4.960493927019768</speed>
  <fix>3d</fix>
</trkpt>
<trkpt lat="40.0721445" lon="-105.2297798">
  <ele>1583.0</ele>
  <time>2026-08-28T17:50:32Z</time>
  <course>0.66</course>
  <speed>4.98</speed>
  <fix>3d</fix>
</trkpt>
<trkpt lat="40.072161" lon="-105.2297794">
  <ele>1582.97</ele>
  <time>2026-08-28T17:50:32Z</time>
  <course>1.98</course>
  <speed>4.950494924752474</speed>
  <fix>3d</fix>
</trkpt>
<trkpt lat="40.0721535" lon="-105.2297797">
  <ele>1583.0</ele>
  <time>2026-08-28T17:50:32Z</time>
  <course>0.66</course>
  <speed>4.98</speed>
  <fix>3d</fix>
</trkpt>
<trkpt lat="40.0721654" lon="-105.2297793">
  <ele>1582.97</ele>
  <time>2026-08-28T17:50:32Z</time>
  <course>1.98</course>
  <speed>4.950494924752474</speed>
  <fix>3d</fix>
</trkpt>
<trkpt lat="40.0721535" lon="-105.2297797">
  <ele>1583.0</ele>
  <time>2026-08-28T17:50:32Z</time>
  <course>0.66</course>
  <speed>4.98</speed>
  <fix>3d</fix>
</trkpt>
<trkpt lat="40.0721699" lon="-105.2297793">
  <ele>1582.97</ele>
  <time>2026-08-28T17:50:32Z</time>
  <course>1.98</course>
  <speed>4.950494924752474</speed>
  <fix>3d</fix>
</trkpt>
<trkpt lat="40.0721624" lon="-105.2297795">
  <ele>1583.0</ele>
  <time>2026-08-28T17:50:32Z</time>
  <course>0.66</course>
  <speed>4.98</speed>
  <fix>3d</fix>
</trkpt>
<trkpt lat="40.0721734" lon="-105.2297792">
  <ele>1582.97</ele>
  <time>2026-08-28T17:50:32Z</time>
  <course>1.98</course>
  <speed>4.950494924752474</speed>
  <fix>3d</fix>
</trkpt>
<trkpt lat="40.0721624" lon="-105.2297795">
  <ele>1583.0</ele>
  <time>2026-08-28T17:50:32Z</time>
  <course>0.66</course>
  <speed>4.98</speed>
  <fix>3d</fix>
</trkpt>
<trkpt lat="40.0721779" lon="-105.2297791">
  <ele>1582.97</ele>
  <time>2026-08-28T17:50:32Z</time>
  <course>1.98</course>
  <speed>4.950494924752474</speed>
  <fix>3d</fix>
</trkpt>
<trkpt lat="40.0721714" lon="-105.2297793">
  <ele>1583.0</ele>
  <time>2026-08-28T17:50:32Z</time>
  <course>0.66</course>
  <speed>4.98</speed>
  <fix>3d</fix>
</trkpt>
<trkpt lat="40.0721824" lon="-105.2297791">
  <ele>1582.97</ele>
  <time>2026-08-28T17:50:32Z</time>
  <course>1.98</course>
  <speed>4.960493927019768</speed>
  <fix>3d</fix>
</trkpt>
<trkpt lat="40.0721714" lon="-105.2297793">
  <ele>1583.0</ele>
  <time>2026-08-28T17:50:32Z</time>
  <course>0.66</course>
  <speed>4.98</speed>
  <fix>3d</fix>
</trkpt>
<trkpt lat="40.0721868" lon="-105.229779">
  <ele>1582.97</ele>
  <time>2026-08-28T17:50:32Z</time>
  <course>1.98</course>
  <speed>4.960493927019768</speed>
  <fix>3d</fix>
</trkpt>
<trkpt lat="40.0721803" lon="-105.2297792">
  <ele>1583.0</ele>
  <time>2026-08-28T17:50:32Z</time>
  <course>0.66</course>
  <speed>4.99</speed>
  <fix>3d</fix>
</trkpt>
<trkpt lat="40.0721913" lon="-105.2297789">
  <ele>1582.97</ele>
  <time>2026-08-28T17:50:32Z</time>
  <course>1.98</course>
  <speed>4.960493927019768</speed>
  <fix>3d</fix>
</trkpt>
<trkpt lat="40.0721803" lon="-105.2297792">
  <ele>1583.0</ele>
  <time>2026-08-28T17:50:32Z</time>
  <course>0.66</course>
  <speed>4.99</speed>
  <fix>3d</fix>
</trkpt>
<trkpt lat="40.0721958" lon="-105.2297789">
  <ele>1582.97</ele>
  <time>2026-08-28T17:50:32Z</time>
  <course>1.97</course>
  <speed>4.970492933301485</speed>
  <fix>3d</fix>
</trkpt>
<trkpt lat="40.0721893" lon="-105.2297791">
  <ele>1583.0</ele>
  <time>2026-08-28T17:50:32Z</time>
  <course>0.66</course>
  <speed>4.99</speed>
  <fix>3d</fix>
</trkpt>
<trkpt lat="40.0722003" lon="-105.2297788">
  <ele>1582.97</ele>
  <time>2026-08-28T17:50:32Z</time>
  <course>1.97</course>
  <speed>4.970492933301485</speed>
  <fix>3d</fix>
</trkpt>
<trkpt lat="40.0721893" lon="-105.2297791">
  <ele>1583.0</ele>
  <time>2026-08-28T17:50:32Z</time>
  <course>0.66</course>
  <speed>4.99</speed>
  <fix>3d</fix>
</trkpt>
<trkpt lat="40.0722049" lon="-105.2297787">
  <ele>1582.98</ele>
  <time>2026-08-28T17:50:32Z</time>
  <course>1.97</course>
  <speed>4.970492933301485</speed>
  <fix>3d</fix>
</trkpt>
<trkpt lat="40.0721982" lon="-105.229779">
  <ele>1583.0</ele>
  <time>2026-08-28T17:50:32Z</time>
  <course>0.66</course>
  <speed>5.0</speed>
  <fix>3d</fix>
</trkpt>
<trkpt lat="40.0722094" lon="-105.2297787">
  <ele>1582.98</ele>
  <time>2026-08-28T17:50:32Z</time>
  <course>1.97</course>
  <speed>4.970492933301485</speed>
  <fix>3d</fix>
</trkpt>
<trkpt lat="40.0721982" lon="-105.229779">
  <ele>1583.0</ele>
  <time>2026-08-28T17:50:32Z</time>
  <course>0.66</course>
  <speed>5.0</speed>
  <fix>3d</fix>
</trkpt>
<trkpt lat="40.0722139" lon="-105.2297786">
  <ele>1582.98</ele>
  <time>2026-08-28T17:50:32Z</time>
  <course>1.97</course>
  <speed>4.980491943573446</speed>
  <fix>3d</fix>
</trkpt>
<trkpt lat="40.0722073" lon="-105.2297788">
  <ele>1583.0</ele>
  <time>2026-08-28T17:50:32Z</time>
  <course>0.66</course>
  <speed>5.0</speed>
  <fix>3d</fix>
</trkpt>
<trkpt lat="40.0722193" lon="-105.2297785">
  <ele>1582.98</ele>
  <time>2026-08-28T17:50:32Z</time>
  <course>1.97</course>
  <speed>4.980491943573446</speed>
  <fix>3d</fix>
</trkpt>
<trkpt lat="40.0722073" lon="-105.2297788">
  <ele>1583.0</ele>
  <time>2026-08-28T17:50:32Z</time>
  <course>0.66</course>
  <speed>5.0</speed>
  <fix>3d</fix>
</trkpt>
<trkpt lat="40.0722239" lon="-105.2297784">
  <ele>1582.98</ele>
  <time>2026-08-28T17:50:32Z</time>
  <course>1.97</course>
  <speed>4.980491943573446</speed>
  <fix>3d</fix>
</trkpt>
<trkpt lat="40.0722162" lon="-105.2297787">
  <ele>1583.0</ele>
  <time>2026-08-28T17:50:32Z</time>
  <course>0.66</course>
  <speed>5.0</speed>
  <fix>3d</fix>
</trkpt>
<trkpt lat="40.0722284" lon="-105.2297784">
  <ele>1582.98</ele>
  <time>2026-08-28T17:50:32Z</time>
  <course>1.97</course>
  <speed>4.980491943573446</speed>
  <fix>3d</fix>
</trkpt>
<trkpt lat="40.0722162" lon="-105.2297787">
  <ele>1583.0</ele>
  <time>2026-08-28T17:50:32Z</time>
  <course>0.66</course>
  <speed>5.0</speed>
  <fix>3d</fix>
</trkpt>
<trkpt lat="40.0722329" lon="-105.2297783">
  <ele>1582.98</ele>
  <time>2026-08-28T17:50:32Z</time>
  <course>1.97</course>
  <speed>4.980491943573446</speed>
  <fix>3d</fix>
</trkpt>
<trkpt lat="40.0722252" lon="-105.2297786">
  <ele>1583.0</ele>
  <time>2026-08-28T17:50:32Z</time>
  <course>0.66</course>
  <speed>4.99</speed>
  <fix>3d</fix>
</trkpt>
<trkpt lat="40.0722374" lon="-105.2297782">
  <ele>1582.99</ele>
  <time>2026-08-28T17:50:32Z</time>
  <course>1.97</course>
  <speed>4.980491943573446</speed>
  <fix>3d</fix>
</trkpt>
<trkpt lat="40.0722252" lon="-105.2297786">
  <ele>1583.0</ele>
  <time>2026-08-28T17:50:32Z</time>
  <course>0.66</course>
  <speed>4.99</speed>
  <fix>3d</fix>
</trkpt>
<trkpt lat="40.0722419" lon="-105.2297782">
  <ele>1582.99</ele>
  <time>2026-08-28T17:50:32Z</time>
  <course>1.97</course>
  <speed>4.970492933301485</speed>
  <fix>3d</fix>
</trkpt>
<trkpt lat="40.0722342" lon="-105.2297784">
  <ele>1583.0</ele>
  <time>2026-08-28T17:50:32Z</time>
  <course>0.66</course>
  <speed>4.99</speed>
  <fix>3d</fix>
</trkpt>
<trkpt lat="40.0722463" lon="-105.2297781">
  <ele>1582.99</ele>
  <time>2026-08-28T17:50:32Z</time>
  <course>1.97</course>
  <speed>4.970492933301485</speed>
  <fix>3d</fix>
</trkpt>
<trkpt lat="40.0722342" lon="-105.2297784">
  <ele>1583.0</ele>
  <time>2026-08-28T17:50:32Z</time>
  <course>0.66</course>
  <speed>4.99</speed>
  <fix>3d</fix>
</trkpt>
<trkpt lat="40.0722508" lon="-105.229778">
  <ele>1582.99</ele>
  <time>2026-08-28T17:50:32Z</time>
  <course>1.97</course>
  <speed>4.970492933301485</speed>
  <fix>3d</fix>
</trkpt>
<trkpt lat="40.0722432" lon="-105.2297783">
  <ele>1583.0</ele>
  <time>2026-08-28T17:50:32Z</time>
  <course>0.66</course>
  <speed>4.99</speed>
  <fix>3d</fix>
</trkpt>
<trkpt lat="40.0722552" lon="-105.229778">
  <ele>1582.99</ele>
  <time>2026-08-28T17:50:32Z</time>
  <course>1.97</course>
  <speed>4.970492933301485</speed>
  <fix>3d</fix>
</trkpt>
<trkpt lat="40.0722432" lon="-105.2297783">
  <ele>1583.0</ele>
  <time>2026-08-28T17:50:32Z</time>
  <course>0.66</course>
  <speed>4.99</speed>
  <fix>3d</fix>
</trkpt>
<trkpt lat="40.0722597" lon="-105.2297779">
  <ele>1582.99</ele>
  <time>2026-08-28T17:50:32Z</time>
  <course>1.97</course>
  <speed>4.970492933301485</speed>
  <fix>3d</fix>
</trkpt>
<trkpt lat="40.0722521" lon="-105.2297782">
  <ele>1583.0</ele>
  <time>2026-08-28T17:50:32Z</time>
  <course>0.66</course>
  <speed>4.99</speed>
  <fix>3d</fix>
</trkpt>
<trkpt lat="40.0722641" lon="-105.2297778">
  <ele>1582.99</ele>
  <time>2026-08-28T17:50:32Z</time>
  <course>1.97</course>
  <speed>4.970492933301485</speed>
  <fix>3d</fix>
</trkpt>
<trkpt lat="40.0722521" lon="-105.2297782">
  <ele>1583.0</ele>
  <time>2026-08-28T17:50:32Z</time>
  <course>0.66</course>
  <speed>4.99</speed>
  <fix>3d</fix>
</trkpt>
<trkpt lat="40.0722677" lon="-105.2297778">
  <ele>1582.99</ele>
  <time>2026-08-28T17:50:32Z</time>
  <course>1.97</course>
  <speed>4.970492933301485</speed>
  <fix>3d</fix>
</trkpt>
<trkpt lat="40.0722612" lon="-105.229778">
  <ele>1583.0</ele>
  <time>2026-08-28T17:50:32Z</time>
  <course>0.66</course>
  <speed>4.99</speed>
  <fix>3d</fix>
</trkpt>
<trkpt lat="40.0722722" lon="-105.2297777">
  <ele>1582.99</ele>
  <time>2026-08-28T17:50:32Z</time>
  <course>1.97</course>
  <speed>4.970492933301485</speed>
  <fix>3d</fix>
</trkpt>
<trkpt lat="40.0722612" lon="-105.229778">
  <ele>1583.0</ele>
  <time>2026-08-28T17:50:32Z</time>
  <course>0.66</course>
  <speed>4.99</speed>
  <fix>3d</fix>
</trkpt>
<trkpt lat="40.0722767" lon="-105.2297776">
  <ele>1582.98</ele>
  <time>2026-08-28T17:50:32Z</time>
  <course>1.97</course>
  <speed>4.980491943573446</speed>
  <fix>3d</fix>
</trkpt>
<trkpt lat="40.0722701" lon="-105.2297778">
  <ele>1583.0</ele>
  <time>2026-08-28T17:50:32Z</time>
  <course>0.66</course>
  <speed>5.0</speed>
  <fix>3d</fix>
</trkpt>
<trkpt lat="40.0722812" lon="-105.2297776">
  <ele>1582.98</ele>
  <time>2026-08-28T17:50:32Z</time>
  <course>1.97</course>
  <speed>4.980491943573446</speed>
  <fix>3d</fix>
</trkpt>
<trkpt lat="40.0722701" lon="-105.2297778">
  <ele>1583.0</ele>
  <time>2026-08-28T17:50:32Z</time>
  <course>0.66</course>
  <speed>5.0</speed>
  <fix>3d</fix>
</trkpt>
<trkpt lat="40.0722857" lon="-105.2297775">
  <ele>1582.98</ele>
  <time>2026-08-28T17:50:32Z</time>
  <course>1.96</course>
  <speed>4.990490957811666</speed>
  <fix>3d</fix>
</trkpt>
<trkpt lat="40.0722791" lon="-105.2297777">
  <ele>1583.0</ele>
  <time>2026-08-28T17:50:32Z</time>
  <course>0.66</course>
  <speed>5.01</speed>
  <fix>3d</fix>
</trkpt>
<trkpt lat="40.0722902" lon="-105.2297774">
  <ele>1582.98</ele>
  <time>2026-08-28T17:50:32Z</time>
  <course>1.96</course>
  <speed>4.990490957811666</speed>
  <fix>3d</fix>
</trkpt>
<trkpt lat="40.0722791" lon="-105.2297777">
  <ele>1583.0</ele>
  <time>2026-08-28T17:50:32Z</time>
  <course>0.66</course>
  <speed>5.01</speed>
  <fix>3d</fix>
</trkpt>
<trkpt lat="40.0722947" lon="-105.2297774">
  <ele>1582.97</ele>
  <time>2026-08-28T17:50:32Z</time>
  <course>1.96</course>
  <speed>4.990490957811666</speed>
  <fix>3d</fix>
</trkpt>
<trkpt lat="40.0722881" lon="-105.2297776">
  <ele>1583.0</ele>
  <time>2026-08-28T17:50:32Z</time>
  <course>0.66</course>
  <speed>5.01</speed>
  <fix>3d</fix>
</trkpt>
<trkpt lat="40.0722993" lon="-105.2297773">
  <ele>1582.97</ele>
  <time>2026-08-28T17:50:32Z</time>
  <course>1.96</course>
  <speed>4.990490957811666</speed>
  <fix>3d</fix>
</trkpt>
<trkpt lat="40.0722881" lon="-105.2297776">
  <ele>1583.0</ele>
  <time>2026-08-28T17:50:32Z</time>
  <course>0.66</course>
  <speed>5.01</speed>
  <fix>3d</fix>
</trkpt>
<trkpt lat="40.0723039" lon="-105.2297772">
  <ele>1582.97</ele>
  <time>2026-08-28T17:50:32Z</time>
  <course>1.99</course>
  <speed>5.000489975992353</speed>
  <fix>3d</fix>
</trkpt>
<trkpt lat="40.0722971" lon="-105.2297774">
  <ele>1583.0</ele>
  <time>2026-08-28T17:50:32Z</time>
  <course>0.68</course>
  <speed>5.01</speed>
  <fix>3d</fix>
</trkpt>
<trkpt lat="40.0723084" lon="-105.2297771">
  <ele>1582.97</ele>
  <time>2026-08-28T17:50:33Z</time>
  <course>2.02</course>
  <speed>5.000639959045242</speed>
  <fix>3d</fix>
</trkpt>
<trkpt lat="40.0722971" lon="-105.2297774">
  <ele>1583.0</ele>
  <time>2026-08-28T17:50:33Z</time>
  <course>0.68</course>
  <speed>5.01</speed>
  <fix>3d</fix>
</trkpt>
<trkpt lat="40.0723138" lon="-105.229777">
  <ele>1582.96</ele>
  <time>2026-08-28T17:50:33Z</time>
  <course>2.03</course>
  <speed>5.000639959045242</speed>
  <fix>3d</fix>
</trkpt>
<trkpt lat="40.0723062" lon="-105.2297773">
  <ele>1583.0</ele>
  <time>2026-08-28T17:50:33Z</time>
  <course>0.71</course>
  <speed>5.02</speed>
  <fix>3d</fix>
</trkpt>
<trkpt lat="40.0723184" lon="-105.229777">
  <ele>1582.96</ele>
  <time>2026-08-28T17:50:33Z</time>
  <course>2.07</course>
  <speed>5.000639959045242</speed>
  <fix>3d</fix>
</trkpt>
<trkpt lat="40.0723062" lon="-105.2297773">
  <ele>1583.0</ele>
  <time>2026-08-28T17:50:33Z</time>
  <course>0.71</course>
  <speed>5.02</speed>
  <fix>3d</fix>
</trkpt>
<trkpt lat="40.0723229" lon="-105.2297769">
  <ele>1582.96</ele>
  <time>2026-08-28T17:50:33Z</time>
  <course>2.11</course>
  <speed>5.000639959045242</speed>
  <fix>3d</fix>
</trkpt>
<trkpt lat="40.0723152" lon="-105.2297772">
  <ele>1583.0</ele>
  <time>2026-08-28T17:50:33Z</time>
  <course>0.76</course>
  <speed>5.01</speed>
  <fix>3d</fix>
</trkpt>
<trkpt lat="40.0723274" lon="-105.2297768">
  <ele>1582.96</ele>
  <time>2026-08-28T17:50:33Z</time>
  <course>2.12</course>
  <speed>5.0008099344006265</speed>
  <fix>3d</fix>
</trkpt>
<trkpt lat="40.0723152" lon="-105.2297772">
  <ele>1583.0</ele>
  <time>2026-08-28T17:50:33Z</time>
  <course>0.76</course>
  <speed>5.01</speed>
  <fix>3d</fix>
</trkpt>
<trkpt lat="40.0723319" lon="-105.2297767">
  <ele>1582.96</ele>
  <time>2026-08-28T17:50:33Z</time>
  <course>2.18</course>
  <speed>5.0008099344006265</speed>
  <fix>3d</fix>
</trkpt>
<trkpt lat="40.0723242" lon="-105.229777">
  <ele>1583.0</ele>
  <time>2026-08-28T17:50:33Z</time>
  <course>0.83</course>
  <speed>5.01</speed>
  <fix>3d</fix>
</trkpt>
<trkpt lat="40.0723364" lon="-105.2297766">
  <ele>1582.96</ele>
  <time>2026-08-28T17:50:33Z</time>
  <course>2.2</course>
  <speed>5.0008099344006265</speed>
  <fix>3d</fix>
</trkpt>
<trkpt lat="40.0723242" lon="-105.229777">
  <ele>1583.0</ele>
  <time>2026-08-28T17:50:33Z</time>
  <course>0.83</course>
  <speed>5.01</speed>
  <fix>3d</fix>
</trkpt>
<trkpt lat="40.0723409" lon="-105.2297765">
  <ele>1582.96</ele>
  <time>2026-08-28T17:50:33Z</time>
  <course>2.23</course>
  <speed>4.991001903425804</speed>
  <fix>3d</fix>
</trkpt>
<trkpt lat="40.0723332" lon="-105.2297768">
  <ele>1583.0</ele>
  <time>2026-08-28T17:50:33Z</time>
  <course>0.9</course>
  <speed>5.01</speed>
  <fix>3d</fix>
</trkpt>
<trkpt lat="40.0723454" lon="-105.2297764">
  <ele>1582.96</ele>
  <time>2026-08-28T17:50:33Z</time>
  <course>2.27</course>
  <speed>4.991001903425804</speed>
  <fix>3d</fix>
</trkpt>
<trkpt lat="40.0723332" lon="-105.2297768">
  <ele>1583.0</ele>
  <time>2026-08-28T17:50:33Z</time>
  <course>0.9</course>
  <speed>5.01</speed>
  <fix>3d</fix>
</trkpt>
<trkpt lat="40.0723498" lon="-105.2297763">
  <ele>1582.96</ele>
  <time>2026-08-28T17:50:33Z</time>
  <course>2.31</course>
  <speed>4.991001903425804</speed>
  <fix>3d</fix>
</trkpt>
<trkpt lat="40.0723423" lon="-105.2297767">
  <ele>1583.0</ele>
  <time>2026-08-28T17:50:33Z</time>
  <course>0.97</course>
  <speed>5.01</speed>
  <fix>3d</fix>
</trkpt>
<trkpt lat="40.0723543" lon="-105.2297762">
  <ele>1582.96</ele>
  <time>2026-08-28T17:50:33Z</time>
  <course>2.35</course>
  <speed>4.981214711292819</speed>
  <fix>3d</fix>
</trkpt>
<trkpt lat="40.0723423" lon="-105.2297767">
  <ele>1583.0</ele>
  <time>2026-08-28T17:50:33Z</time>
  <course>0.97</course>
  <speed>5.01</speed>
  <fix>3d</fix>
</trkpt>
<trkpt lat="40.0723587" lon="-105.2297761">
  <ele>1582.96</ele>
  <time>2026-08-28T17:50:33Z</time>
  <course>2.36</course>
  <speed>4.981214711292819</speed>
  <fix>3d</fix>
</trkpt>
<trkpt lat="40.0723512" lon="-105.2297764">
  <ele>1583.0</ele>
  <time>2026-08-28T17:50:33Z</time>
  <course>1.04</course>
  <speed>5.01</speed>
  <fix>3d</fix>
</trkpt>
<trkpt lat="40.0723623" lon="-105.229776">
  <ele>1582.96</ele>
  <time>2026-08-28T17:50:33Z</time>
  <course>2.42</course>
  <speed>4.981214711292819</speed>
  <fix>3d</fix>
</trkpt>
<trkpt lat="40.0723512" lon="-105.2297764">
  <ele>1583.0</ele>
  <time>2026-08-28T17:50:33Z</time>
  <course>1.04</course>
  <speed>5.01</speed>
  <fix>3d</fix>
</trkpt>
<trkpt lat="40.0723668" lon="-105.2297759">
  <ele>1582.97</ele>
  <time>2026-08-28T17:50:33Z</time>
  <course>2.43</course>
  <speed>4.981214711292819</speed>
  <fix>3d</fix>
</trkpt>
<trkpt lat="40.0723603" lon="-105.2297762">
  <ele>1583.0</ele>
  <time>2026-08-28T17:50:33Z</time>
  <course>1.1</course>
  <speed>5.01</speed>
  <fix>3d</fix>
</trkpt>
<trkpt lat="40.0723713" lon="-105.2297758">
  <ele>1582.97</ele>
  <time>2026-08-28T17:50:33Z</time>
  <course>2.47</course>
  <speed>4.981445573325076</speed>
  <fix>3d</fix>
</trkpt>
<trkpt lat="40.0723603" lon="-105.2297762">
  <ele>1583.0</ele>
  <time>2026-08-28T17:50:33Z</time>
  <course>1.1</course>
  <speed>5.01</speed>
  <fix>3d</fix>
</trkpt>
<trkpt lat="40.0723758" lon="-105.2297757">
  <ele>1582.97</ele>
  <time>2026-08-28T17:50:33Z</time>
  <course>2.51</course>
  <speed>4.981445573325076</speed>
  <fix>3d</fix>
</trkpt>
<trkpt lat="40.0723693" lon="-105.2297759">
  <ele>1583.0</ele>
  <time>2026-08-28T17:50:33Z</time>
  <course>1.17</course>
  <speed>5.01</speed>
  <fix>3d</fix>
</trkpt>
<trkpt lat="40.0723803" lon="-105.2297755">
  <ele>1582.97</ele>
  <time>2026-08-28T17:50:33Z</time>
  <course>2.53</course>
  <speed>4.991442677222689</speed>
  <fix>3d</fix>
</trkpt>
<trkpt lat="40.0723693" lon="-105.2297759">
  <ele>1583.0</ele>
  <time>2026-08-28T17:50:33Z</time>
  <course>1.17</course>
  <speed>5.01</speed>
  <fix>3d</fix>
</trkpt>
<trkpt lat="40.0723848" lon="-105.2297754">
  <ele>1582.96</ele>
  <time>2026-08-28T17:50:33Z</time>
  <course>2.57</course>
  <speed>4.991442677222689</speed>
  <fix>3d</fix>
</trkpt>
<trkpt lat="40.0723782" lon="-105.2297757">
  <ele>1583.0</ele>
  <time>2026-08-28T17:50:33Z</time>
  <course>1.24</course>
  <speed>5.01</speed>
  <fix>3d</fix>
</trkpt>
<trkpt lat="40.0723893" lon="-105.2297753">
  <ele>1582.96</ele>
  <time>2026-08-28T17:50:33Z</time>
  <course>2.6</course>
  <speed>4.991693099540475</speed>
  <fix>3d</fix>
</trkpt>
<trkpt lat="40.0723782" lon="-105.2297757">
  <ele>1583.0</ele>
  <time>2026-08-28T17:50:33Z</time>
  <course>1.24</course>
  <speed>5.01</speed>
  <fix>3d</fix>
</trkpt>
<trkpt lat="40.0723939" lon="-105.2297751">
  <ele>1582.96</ele>
  <time>2026-08-28T17:50:33Z</time>
  <course>2.62</course>
  <speed>4.991693099540475</speed>
  <fix>3d</fix>
</trkpt>
<trkpt lat="40.0723873" lon="-105.2297754">
  <ele>1583.0</ele>
  <time>2026-08-28T17:50:33Z</time>
  <course>1.3</course>
  <speed>5.02</speed>
  <fix>3d</fix>
</trkpt>
<trkpt lat="40.0723985" lon="-105.229775">
  <ele>1582.96</ele>
  <time>2026-08-28T17:50:33Z</time>
  <course>2.64</course>
  <speed>5.001689714486496</speed>
  <fix>3d</fix>
</trkpt>
<trkpt lat="40.0723873" lon="-105.2297754">
  <ele>1583.0</ele>
  <time>2026-08-28T17:50:33Z</time>
  <course>1.3</course>
  <speed>5.02</speed>
  <fix>3d</fix>
</trkpt>
<trkpt lat="40.0724039" lon="-105.2297748">
  <ele>1582.96</ele>
  <time>2026-08-28T17:50:33Z</time>
  <course>2.68</course>
  <speed>5.0019596159905175</speed>
  <fix>3d</fix>
</trkpt>
<trkpt lat="40.0723962" lon="-105.2297752">
  <ele>1583.0</ele>
  <time>2026-08-28T17:50:33Z</time>
  <course>1.36</course>
  <speed>5.02</speed>
  <fix>3d</fix>
</trkpt>
<trkpt lat="40.0724084" lon="-105.2297746">
  <ele>1582.96</ele>
  <time>2026-08-28T17:50:33Z</time>
  <course>2.72</course>
  <speed>5.0019596159905175</speed>
  <fix>3d</fix>
</trkpt>
<trkpt lat="40.0723962" lon="-105.2297752">
  <ele>1583.0</ele>
  <time>2026-08-28T17:50:33Z</time>
  <course>1.36</course>
  <speed>5.02</speed>
  <fix>3d</fix>
</trkpt>
<trkpt lat="40.072413" lon="-105.2297745">
  <ele>1582.96</ele>
  <time>2026-08-28T17:50:33Z</time>
  <course>2.74</course>
  <speed>5.0019596159905175</speed>
  <fix>3d</fix>
</trkpt>
<trkpt lat="40.0724053" lon="-105.2297749">
  <ele>1583.0</ele>
  <time>2026-08-28T17:50:33Z</time>
  <course>1.42</course>
  <speed>5.02</speed>
  <fix>3d</fix>
</trkpt>
<trkpt lat="40.0724175" lon="-105.2297743">
  <ele>1582.96</ele>
  <time>2026-08-28T17:50:33Z</time>
  <course>2.76</course>
  <speed>5.0019596159905175</speed>
  <fix>3d</fix>
</trkpt>
<trkpt lat="40.0724053" lon="-105.2297749">
  <ele>1583.0</ele>
  <time>2026-08-28T17:50:33Z</time>
  <course>1.42</course>
  <speed>5.02</speed>
  <fix>3d</fix>
</trkpt>
<trkpt lat="40.072422" lon="-105.2297742">
  <ele>1582.96</ele>
  <time>2026-08-28T17:50:33Z</time>
  <course>2.8</course>
  <speed>5.0022494939776845</speed>
  <fix>3d</fix>
</trkpt>
<trkpt lat="40.0724143" lon="-105.2297746">
  <ele>1583.0</ele>
  <time>2026-08-28T17:50:33Z</time>
  <course>1.48</course>
  <speed>5.01</speed>
  <fix>3d</fix>
</trkpt>
<trkpt lat="40.0724265" lon="-105.229774">
  <ele>1582.96</ele>
  <time>2026-08-28T17:50:33Z</time>
  <course>2.84</course>
  <speed>5.0022494939776845</speed>
  <fix>3d</fix>
</trkpt>
<trkpt lat="40.0724143" lon="-105.2297746">
  <ele>1583.0</ele>
  <time>2026-08-28T17:50:33Z</time>
  <course>1.48</course>
  <speed>5.01</speed>
  <fix>3d</fix>
</trkpt>
<trkpt lat="40.072431" lon="-105.2297739">
  <ele>1582.97</ele>
  <time>2026-08-28T17:50:33Z</time>
  <course>2.84</course>
  <speed>4.8520201978145145</speed>
  <fix>3d</fix>
</trkpt>
<trkpt lat="40.0724233" lon="-105.2297743">
  <ele>1583.0</ele>
  <time>2026-08-28T17:50:33Z</time>
  <course>1.54</course>
  <speed>4.99</speed>
  <fix>3d</fix>
</trkpt>
<trkpt lat="40.0724352" lon="-105.2297737">
  <ele>1582.97</ele>
  <time>2026-08-28T17:50:33Z</time>
  <course>2.84</course>
  <speed>4.61183260754334</speed>
  <fix>3d</fix>
</trkpt>
<trkpt lat="40.0724233" lon="-105.2297743">
  <ele>1583.0</ele>
  <time>2026-08-28T17:50:33Z</time>
  <course>1.54</course>
  <speed>4.99</speed>
  <fix>3d</fix>
</trkpt>
<trkpt lat="40.0724393" lon="-105.2297736">
  <ele>1582.97</ele>
  <time>2026-08-28T17:50:33Z</time>
  <course>2.84</course>
  <speed>4.381643527262344</speed>
  <fix>3d</fix>
</trkpt>
<trkpt lat="40.0724321" lon="-105.229774">
  <ele>1583.0</ele>
  <time>2026-08-28T17:50:33Z</time>
  <course>1.56</course>
  <speed>4.72</speed>
  <fix>3d</fix>
</trkpt>
<trkpt lat="40.0724431" lon="-105.2297735">
  <ele>1582.98</ele>
  <time>2026-08-28T17:50:33Z</time>
  <course>2.84</course>
  <speed>4.161454072797151</speed>
  <fix>3d</fix>
</trkpt>
<trkpt lat="40.0724321" lon="-105.229774">
  <ele>1583.0</ele>
  <time>2026-08-28T17:50:33Z</time>
  <course>1.56</course>
  <speed>4.72</speed>
  <fix>3d</fix>
</trkpt>
<trkpt lat="40.0724467" lon="-105.2297734">
  <ele>1582.98</ele>
  <time>2026-08-28T17:50:33Z</time>
  <course>2.84</course>
  <speed>3.9512656200260694</speed>
  <fix>3d</fix>
</trkpt>
<trkpt lat="40.0724402" lon="-105.2297737">
  <ele>1583.0</ele>
  <time>2026-08-28T17:50:33Z</time>
  <course>1.56</course>
  <speed>4.27</speed>
  <fix>3d</fix>
</trkpt>
<trkpt lat="40.0724501" lon="-105.2297733">
  <ele>1582.98</ele>
  <time>2026-08-28T17:50:33Z</time>
  <course>2.84</course>
  <speed>3.7510798445247735</speed>
  <fix>3d</fix>
</trkpt>
<trkpt lat="40.0724402" lon="-105.2297737">
  <ele>1583.0</ele>
  <time>2026-08-28T17:50:33Z</time>
  <course>1.56</course>
  <speed>4.27</speed>
  <fix>3d</fix>
</trkpt>
<trkpt lat="40.0724527" lon="-105.2297732">
  <ele>1582.98</ele>
  <time>2026-08-28T17:50:33Z</time>
  <course>2.84</course>
  <speed>3.600888779176608</speed>
  <fix>3d</fix>
</trkpt>
<trkpt lat="40.0724474" lon="-105.2297734">
  <ele>1583.0</ele>
  <time>2026-08-28T17:50:33Z</time>
  <course>1.56</course>
  <speed>3.87</speed>
  <fix>3d</fix>
</trkpt>
<trkpt lat="40.0724558" lon="-105.2297731">
  <ele>1582.98</ele>
  <time>2026-08-28T17:50:33Z</time>
  <course>2.84</course>
  <speed>3.420716299256634</speed>
  <fix>3d</fix>
</trkpt>
<trkpt lat="40.0724474" lon="-105.2297734">
  <ele>1583.0</ele>
  <time>2026-08-28T17:50:33Z</time>
  <course>1.56</course>
  <speed>3.87</speed>
  <fix>3d</fix>
</trkpt>
<trkpt lat="40.0724588" lon="-105.229773">
  <ele>1582.98</ele>
  <time>2026-08-28T17:50:33Z</time>
  <course>2.84</course>
  <speed>3.250753758745808</speed>
  <fix>3d</fix>
</trkpt>
<trkpt lat="40.0724541" lon="-105.2297731">
  <ele>1583.0</ele>
  <time>2026-08-28T17:50:33Z</time>
  <course>1.56</course>
  <speed>3.5</speed>
  <fix>3d</fix>
</trkpt>
<trkpt lat="40.0724616" lon="-105.229773">
  <ele>1582.99</ele>
  <time>2026-08-28T17:50:33Z</time>
  <course>2.84</course>
  <speed>3.090582469373694</speed>
  <fix>3d</fix>
</trkpt>
<trkpt lat="40.0724541" lon="-105.2297731">
  <ele>1583.0</ele>
  <time>2026-08-28T17:50:33Z</time>
  <course>1.56</course>
  <speed>3.5</speed>
  <fix>3d</fix>
</trkpt>
<trkpt lat="40.0724643" lon="-105.2297729">
  <ele>1582.99</ele>
  <time>2026-08-28T17:50:33Z</time>
  <course>2.84</course>
  <speed>2.9304265901059523</speed>
  <fix>3d</fix>
</trkpt>
<trkpt lat="40.0724601" lon="-105.229773">
  <ele>1583.0</ele>
  <time>2026-08-28T17:50:33Z</time>
  <course>1.56</course>
  <speed>3.16</speed>
  <fix>3d</fix>
</trkpt>
<trkpt lat="40.0724669" lon="-105.2297728">
  <ele>1582.99</ele>
  <time>2026-08-28T17:50:33Z</time>
  <course>2.84</course>
  <speed>2.78044960393099</speed>
  <fix>3d</fix>
</trkpt>
<trkpt lat="40.0724601" lon="-105.229773">
  <ele>1583.0</ele>
  <time>2026-08-28T17:50:33Z</time>
  <course>1.56</course>
  <speed>3.16</speed>
  <fix>3d</fix>
</trkpt>
<trkpt lat="40.0724693" lon="-105.2297728">
  <ele>1582.99</ele>
  <time>2026-08-28T17:50:33Z</time>
  <course>2.84</course>
  <speed>2.64030301291348</speed>
  <fix>3d</fix>
</trkpt>
<trkpt lat="40.0724654" lon="-105.2297728">
  <ele>1583.0</ele>
  <time>2026-08-28T17:50:33Z</time>
  <course>1.56</course>
  <speed>2.86</speed>
  <fix>3d</fix>
</trkpt>
<trkpt lat="40.0724716" lon="-105.2297727">
  <ele>1582.99</ele>
  <time>2026-08-28T17:50:33Z</time>
  <course>2.83</course>
  <speed>2.510318704865978</speed>
  <fix>3d</fix>
</trkpt>
<trkpt lat="40.0724654" lon="-105.2297728">
  <ele>1583.0</ele>
  <time>2026-08-28T17:50:33Z</time>
  <course>1.56</course>
  <speed>2.86</speed>
  <fix>3d</fix>
</trkpt>
<trkpt lat="40.0724738" lon="-105.2297726">
  <ele>1583.0</ele>
  <time>2026-08-28T17:50:33Z</time>
  <course>2.83</course>
  <speed>2.38018906812043</speed>
  <fix>3d</fix>
</trkpt>
<trkpt lat="40.0724704" lon="-105.2297726">
  <ele>1583.0</ele>
  <time>2026-08-28T17:50:33Z</time>
  <course>1.56</course>
  <speed>2.59</speed>
  <fix>3d</fix>
</trkpt>
<trkpt lat="40.0724763" lon="-105.2297726">
  <ele>1583.0</ele>
  <time>2026-08-28T17:50:33Z</time>
  <course>2.82</course>
  <speed>2.240200883849482</speed>
  <fix>3d</fix>
</trkpt>
<trkpt lat="40.0724704" lon="-105.2297726">
  <ele>1583.0</ele>
  <time>2026-08-28T17:50:33Z</time>
  <course>1.56</course>
  <speed>2.59</speed>
  <fix>3d</fix>
</trkpt>
<trkpt lat="40.0724783" lon="-105.2297725">
  <ele>1583.01</ele>
  <time>2026-08-28T17:50:33Z</time>
  <course>2.82</course>
  <speed>2.1202122535255756</speed>
  <fix>3d</fix>
</trkpt>
<trkpt lat="40.0724748" lon="-105.2297725">
  <ele>1583.0</ele>
  <time>2026-08-28T17:50:33Z</time>
  <course>1.56</course>
  <speed>2.34</speed>
  <fix>3d</fix>
</trkpt>
<trkpt lat="40.0724802" lon="-105.2297725">
  <ele>1583.01</ele>
  <time>2026-08-28T17:50:33Z</time>
  <course>2.82</course>
  <speed>2.010099500024812</speed>
  <fix>3d</fix>
</trkpt>
<trkpt lat="40.0724748" lon="-105.2297725">
  <ele>1583.0</ele>
  <time>2026-08-28T17:50:33Z</time>
  <course>1.56</course>
  <speed>2.34</speed>
  <fix>3d</fix>
</trkpt>
<trkpt lat="40.0724819" lon="-105.2297724">
  <ele>1583.01</ele>
  <time>2026-08-28T17:50:33Z</time>
  <course>2.81</course>
  <speed>1.910104709171725</speed>
  <fix>3d</fix>
</trkpt>
<trkpt lat="40.0724789" lon="-105.2297723">
  <ele>1583.0</ele>
  <time>2026-08-28T17:50:33Z</time>
  <course>1.56</course>
  <speed>2.12</speed>
  <fix>3d</fix>
</trkpt>
<trkpt lat="40.0724836" lon="-105.2297724">
  <ele>1583.01</ele>
  <time>2026-08-28T17:50:33Z</time>
  <course>2.81</course>
  <speed>1.8101104938649464</speed>
  <fix>3d</fix>
</trkpt>
<trkpt lat="40.0724789" lon="-105.2297723">
  <ele>1583.0</ele>
  <time>2026-08-28T17:50:33Z</time>
  <course>1.56</course>
  <speed>2.12</speed>
  <fix>3d</fix>
</trkpt>
<trkpt lat="40.0724852" lon="-105.2297723">
  <ele>1583.01</ele>
  <time>2026-08-28T17:50:33Z</time>
  <course>2.8</course>
  <speed>1.7201162751395618</speed>
  <fix>3d</fix>
</trkpt>
<trkpt lat="40.0724825" lon="-105.2297722">
  <ele>1583.0</ele>
  <time>2026-08-28T17:50:33Z</time>
  <course>1.56</course>
  <speed>1.92</speed>
  <fix>3d</fix>
</trkpt>
<trkpt lat="40.0724868" lon="-105.2297723">
  <ele>1583.01</ele>
  <time>2026-08-28T17:50:33Z</time>
  <course>2.8</course>
  <speed>1.6301226947687097</speed>
  <fix>3d</fix>
</trkpt>
<trkpt lat="40.0724825" lon="-105.2297722">
  <ele>1583.0</ele>
  <time>2026-08-28T17:50:33Z</time>
  <course>1.56</course>
  <speed>1.92</speed>
  <fix>3d</fix>
</trkpt>
<trkpt lat="40.0724882" lon="-105.2297722">
  <ele>1583.01</ele>
  <time>2026-08-28T17:50:33Z</time>
  <course>2.8</course>
  <speed>1.5501290268877619</speed>
  <fix>3d</fix>
</trkpt>
<trkpt lat="40.0724857" lon="-105.229772">
  <ele>1583.0</ele>
  <time>2026-08-28T17:50:33Z</time>
  <course>1.56</course>
  <speed>1.73</speed>
  <fix>3d</fix>
</trkpt>
<trkpt lat="40.0724895" lon="-105.2297722">
  <ele>1583.0</ele>
  <time>2026-08-28T17:50:33Z</time>
  <course>2.79</course>
  <speed>1.4701360481261592</speed>
  <fix>3d</fix>
</trkpt>
<trkpt lat="40.0724857" lon="-105.229772">
  <ele>1583.0</ele>
  <time>2026-08-28T17:50:33Z</time>
  <course>1.56</course>
  <speed>1.73</speed>
  <fix>3d</fix>
</trkpt>
<trkpt lat="40.0724908" lon="-105.2297721">
  <ele>1583.0</ele>
  <time>2026-08-28T17:50:33Z</time>
  <course>2.79</course>
  <speed>1.3901438774457844</speed>
  <fix>3d</fix>
</trkpt>
<trkpt lat="40.0724887" lon="-105.2297719">
  <ele>1583.0</ele>
  <time>2026-08-28T17:50:33Z</time>
  <course>1.56</course>
  <speed>1.57</speed>
  <fix>3d</fix>
</trkpt>
<trkpt lat="40.0724921" lon="-105.2297721">
  <ele>1582.99</ele>
  <time>2026-08-28T17:50:33Z</time>
  <course>2.79</course>
  <speed>1.3200378782444084</speed>
  <fix>3d</fix>
</trkpt>
<trkpt lat="40.0724887" lon="-105.2297719">
  <ele>1583.0</ele>
  <time>2026-08-28T17:50:33Z</time>
  <course>1.56</course>
  <speed>1.57</speed>
  <fix>3d</fix>
</trkpt>
<trkpt lat="40.072493" lon="-105.229772">
  <ele>1582.98</ele>
  <time>2026-08-28T17:50:33Z</time>
  <course>2.79</course>
  <speed>1.2600396819148196</speed>
  <fix>3d</fix>
</trkpt>
<trkpt lat="40.0724914" lon="-105.2297718">
  <ele>1583.0</ele>
  <time>2026-08-28T17:50:33Z</time>
  <course>1.56</course>
  <speed>1.42</speed>
  <fix>3d</fix>
</trkpt>
<trkpt lat="40.0724941" lon="-105.229772">
  <ele>1582.98</ele>
  <time>2026-08-28T17:50:33Z</time>
  <course>2.78</course>
  <speed>1.2001666550941998</speed>
  <fix>3d</fix>
</trkpt>
<trkpt lat="40.0724914" lon="-105.2297718">
  <ele>1583.0</ele>
  <time>2026-08-28T17:50:33Z</time>
  <course>1.56</course>
  <speed>1.42</speed>
  <fix>3d</fix>
</trkpt>
<trkpt lat="40.0724952" lon="-105.2297719">
  <ele>1582.98</ele>
  <time>2026-08-28T17:50:33Z</time>
  <course>2.78</course>
  <speed>1.140175425099138</speed>
  <fix>3d</fix>
</trkpt>
<trkpt lat="40.0724938" lon="-105.2297718">
  <ele>1583.0</ele>
  <time>2026-08-28T17:50:33Z</time>
  <course>1.56</course>
  <speed>1.28</speed>
  <fix>3d</fix>
</trkpt>
<trkpt lat="40.0724962" lon="-105.2297719">
  <ele>1582.97</ele>
  <time>2026-08-28T17:50:33Z</time>
  <course>2.78</course>
  <speed>1.080185169311262</speed>
  <fix>3d</fix>
</trkpt>
<trkpt lat="40.0724938" lon="-105.2297718">
  <ele>1583.0</ele>
  <time>2026-08-28T17:50:33Z</time>
  <course>1.56</course>
  <speed>1.28</speed>
  <fix>3d</fix>
</trkpt>
<trkpt lat="40.0724972" lon="-105.2297718">
  <ele>1582.97</ele>
  <time>2026-08-28T17:50:33Z</time>
  <course>2.78</course>
  <speed>1.020196059588548</speed>
  <fix>3d</fix>
</trkpt>
<trkpt lat="40.072496" lon="-105.2297717">
  <ele>1583.0</ele>
  <time>2026-08-28T17:50:33Z</time>
  <course>1.56</course>
  <speed>1.16</speed>
  <fix>3d</fix>
</trkpt>
<trkpt lat="40.0724982" lon="-105.2297718">
  <ele>1582.97</ele>
  <time>2026-08-28T17:50:33Z</time>
  <course>2.78</course>
  <speed>0.9702061636580135</speed>
  <fix>3d</fix>
</trkpt>
<trkpt lat="40.072496" lon="-105.2297717">
  <ele>1583.0</ele>
  <time>2026-08-28T17:50:33Z</time>
  <course>1.56</course>
  <speed>1.16</speed>
  <fix>3d</fix>
</trkpt>
<trkpt lat="40.072499" lon="-105.2297717">
  <ele>1582.96</ele>
  <time>2026-08-28T17:50:33Z</time>
  <course>2.78</course>
  <speed>0.9202173656261873</speed>
  <fix>3d</fix>
</trkpt>
<trkpt lat="40.072498" lon="-105.2297716">
  <ele>1583.0</ele>
  <time>2026-08-28T17:50:33Z</time>
  <course>1.56</course>
  <speed>1.05</speed>
  <fix>3d</fix>
</trkpt>
<trkpt lat="40.0724999" lon="-105.2297717">
  <ele>1582.96</ele>
  <time>2026-08-28T17:50:33Z</time>
  <course>2.78</course>
  <speed>0.8702298546935746</speed>
  <fix>3d</fix>
</trkpt>
<trkpt lat="40.072498" lon="-105.2297716">
  <ele>1583.0</ele>
  <time>2026-08-28T17:50:33Z</time>
  <course>1.56</course>
  <speed>1.05</speed>
  <fix>3d</fix>
</trkpt>
<trkpt lat="40.0725007" lon="-105.2297716">
  <ele>1582.95</ele>
  <time>2026-08-28T17:50:33Z</time>
  <course>2.79</course>
  <speed>0.8302409288875127</speed>
  <fix>3d</fix>
</trkpt>
<trkpt lat="40.0724998" lon="-105.2297715">
  <ele>1583.0</ele>
  <time>2026-08-28T17:50:33Z</time>
  <course>1.56</course>
  <speed>0.95</speed>
  <fix>3d</fix>
</trkpt>
<trkpt lat="40.0725015" lon="-105.2297716">
  <ele>1582.95</ele>
  <time>2026-08-28T17:50:33Z</time>
  <course>2.79</course>
  <speed>0.7802563681252463</speed>
  <fix>3d</fix>
</trkpt>
<trkpt lat="40.0724998" lon="-105.2297715">
  <ele>1583.0</ele>
  <time>2026-08-28T17:50:33Z</time>
  <course>1.56</course>
  <speed>0.95</speed>
  <fix>3d</fix>
</trkpt>
<trkpt lat="40.0725023" lon="-105.2297716">
  <ele>1582.95</ele>
  <time>2026-08-28T17:50:33Z</time>
  <course>2.79</course>
  <speed>0.7402702209328699</speed>
  <fix>3d</fix>
</trkpt>
<trkpt lat="40.0725015" lon="-105.2297715">
  <ele>1583.0</ele>
  <time>2026-08-28T17:50:33Z</time>
  <course>1.56</course>
  <speed>0.86</speed>
  <fix>3d</fix>
</trkpt>
<trkpt lat="40.072503" lon="-105.2297715">
  <ele>1582.95</ele>
  <time>2026-08-28T17:50:33Z</time>
  <course>2.79</course>
  <speed>0.7002856560004639</speed>
  <fix>3d</fix>
</trkpt>
<trkpt lat="40.0725015" lon="-105.2297715">
  <ele>1583.0</ele>
  <time>2026-08-28T17:50:33Z</time>
  <course>1.56</course>
  <speed>0.86</speed>
  <fix>3d</fix>
</trkpt>
<trkpt lat="40.0725037" lon="-105.2297715">
  <ele>1582.95</ele>
  <time>2026-08-28T17:50:33Z</time>
  <course>2.79</course>
  <speed>0.660302960768767</speed>
  <fix>3d</fix>
</trkpt>
<trkpt lat="40.072503" lon="-105.2297715">
  <ele>1583.0</ele>
  <time>2026-08-28T17:50:33Z</time>
  <course>1.56</course>
  <speed>0.78</speed>
  <fix>3d</fix>
</trkpt>
<trkpt lat="39.655741" lon="-104.1383097">
  <ele>1566.58</ele>
  <time>2026-08-28T17:50:33Z</time>
  <course>0.0</course>
  <speed>0.0</speed>
  <fix>3d</fix>
</trkpt>
<trkpt lat="40.0713749" lon="-105.229789">
  <ele>1583.0</ele>
  <time>2026-08-28T17:50:33Z</time>
  <course>0.0</course>
  <speed>0.0</speed>
  <fix>3d</fix>
</trkpt>
<trkpt lat="40.0713749" lon="-105.229789">
  <ele>1583.0</ele>
  <time>2026-08-28T17:50:33Z</time>
  <course>238.36</course>
  <speed>0.0</speed>
  <fix>3d</fix>
</trkpt>
<trkpt lat="40.0713749" lon="-105.229789">
  <ele>1583.0</ele>
  <time>2026-08-28T17:50:33Z</time>
  <course>0.0</course>
  <speed>0.0</speed>
  <fix>3d</fix>
</trkpt>
<trkpt lat="40.0713749" lon="-105.229789">
  <ele>1583.0</ele>
  <time>2026-08-28T17:50:33Z</time>
  <course>238.44</course>
  <speed>0.0</speed>
  <fix>3d</fix>
</trkpt>
<trkpt lat="40.0713749" lon="-105.229789">
  <ele>1583.0</ele>
  <time>2026-08-28T17:50:33Z</time>
  <course>0.0</course>
  <speed>0.0</speed>
  <fix>3d</fix>
</trkpt>
<trkpt lat="40.0713749" lon="-105.229789">
  <ele>1583.0</ele>
  <time>2026-08-28T17:50:33Z</time>
  <course>238.64</course>
  <speed>0.0</speed>
  <fix>3d</fix>
</trkpt>
<trkpt lat="40.0713749" lon="-105.229789">
  <ele>1583.0</ele>
  <time>2026-08-28T17:50:33Z</time>
  <course>0.0</course>
  <speed>0.0</speed>
  <fix>3d</fix>
</trkpt>
<trkpt lat="40.0713749" lon="-105.229789">
  <ele>1583.0</ele>
  <time>2026-08-28T17:50:33Z</time>
  <course>238.93</course>
  <speed>0.0</speed>
  <fix>3d</fix>
</trkpt>
<trkpt lat="40.0713749" lon="-105.229789">
  <ele>1583.0</ele>
  <time>2026-08-28T17:50:33Z</time>
  <course>0.0</course>
  <speed>0.0</speed>
  <fix>3d</fix>
</trkpt>
<trkpt lat="40.0713749" lon="-105.229789">
  <ele>1583.0</ele>
  <time>2026-08-28T17:50:33Z</time>
  <course>239.26</course>
  <speed>0.0</speed>
  <fix>3d</fix>
</trkpt>
<trkpt lat="40.0713749" lon="-105.229789">
  <ele>1583.0</ele>
  <time>2026-08-28T17:50:33Z</time>
  <course>0.0</course>
  <speed>0.0</speed>
  <fix>3d</fix>
</trkpt>
<trkpt lat="40.0713749" lon="-105.229789">
  <ele>1583.0</ele>
  <time>2026-08-28T17:50:33Z</time>
  <course>239.61</course>
  <speed>0.0</speed>
  <fix>3d</fix>
</trkpt>
<trkpt lat="40.0713749" lon="-105.229789">
  <ele>1583.0</ele>
  <time>2026-08-28T17:50:33Z</time>
  <course>0.0</course>
  <speed>0.0</speed>
  <fix>3d</fix>
</trkpt>
<trkpt lat="40.0713749" lon="-105.229789">
  <ele>1583.0</ele>
  <time>2026-08-28T17:50:33Z</time>
  <course>239.96</course>
  <speed>0.0</speed>
  <fix>3d</fix>
</trkpt>
<trkpt lat="40.0713749" lon="-105.229789">
  <ele>1583.0</ele>
  <time>2026-08-28T17:50:33Z</time>
  <course>0.0</course>
  <speed>0.0</speed>
  <fix>3d</fix>
</trkpt>
<trkpt lat="40.0713749" lon="-105.229789">
  <ele>1583.0</ele>
  <time>2026-08-28T17:50:33Z</time>
  <course>240.29</course>
  <speed>0.0</speed>
  <fix>3d</fix>
</trkpt>
<trkpt lat="40.0713749" lon="-105.229789">
  <ele>1583.0</ele>
  <time>2026-08-28T17:50:33Z</time>
  <course>0.0</course>
  <speed>0.0</speed>
  <fix>3d</fix>
</trkpt>
<trkpt lat="40.0713749" lon="-105.229789">
  <ele>1583.0</ele>
  <time>2026-08-28T17:50:33Z</time>
  <course>240.61</course>
  <speed>0.0</speed>
  <fix>3d</fix>
</trkpt>
<trkpt lat="40.0713749" lon="-105.229789">
  <ele>1583.0</ele>
  <time>2026-08-28T17:50:33Z</time>
  <course>0.0</course>
  <speed>0.0</speed>
  <fix>3d</fix>
</trkpt>
<trkpt lat="40.0713749" lon="-105.229789">
  <ele>1583.0</ele>
  <time>2026-08-28T17:50:33Z</time>
  <course>240.92</course>
  <speed>0.0</speed>
  <fix>3d</fix>
</trkpt>
<trkpt lat="40.0713749" lon="-105.229789">
  <ele>1583.0</ele>
  <time>2026-08-28T17:50:33Z</time>
  <course>0.0</course>
  <speed>0.0</speed>
  <fix>3d</fix>
</trkpt>
<trkpt lat="40.0713749" lon="-105.229789">
  <ele>1583.0</ele>
  <time>2026-08-28T17:50:33Z</time>
  <course>241.21</course>
  <speed>0.0</speed>
  <fix>3d</fix>
</trkpt>
<trkpt lat="40.0713749" lon="-105.229789">
  <ele>1583.0</ele>
  <time>2026-08-28T17:50:33Z</time>
  <course>0.0</course>
  <speed>0.0</speed>
  <fix>3d</fix>
</trkpt>
<trkpt lat="40.0713749" lon="-105.229789">
  <ele>1583.0</ele>
  <time>2026-08-28T17:50:33Z</time>
  <course>241.49</course>
  <speed>0.0</speed>
  <fix>3d</fix>
</trkpt>
<trkpt lat="40.0713749" lon="-105.229789">
  <ele>1583.0</ele>
  <time>2026-08-28T17:50:33Z</time>
  <course>0.0</course>
  <speed>0.0</speed>
  <fix>3d</fix>
</trkpt>
<trkpt lat="40.0713749" lon="-105.229789">
  <ele>1583.0</ele>
  <time>2026-08-28T17:50:33Z</time>
  <course>241.77</course>
  <speed>0.0</speed>
  <fix>3d</fix>
</trkpt>
<trkpt lat="40.0713749" lon="-105.229789">
  <ele>1583.0</ele>
  <time>2026-08-28T17:50:33Z</time>
  <course>0.0</course>
  <speed>0.0</speed>
  <fix>3d</fix>
</trkpt>
<trkpt lat="40.0713749" lon="-105.229789">
  <ele>1583.0</ele>
  <time>2026-08-28T17:50:33Z</time>
  <course>242.03</course>
  <speed>0.0</speed>
  <fix>3d</fix>
</trkpt>
<trkpt lat="40.0713749" lon="-105.229789">
  <ele>1583.0</ele>
  <time>2026-08-28T17:50:33Z</time>
  <course>0.0</course>
  <speed>0.0</speed>
  <fix>3d</fix>
</trkpt>
<trkpt lat="40.0713749" lon="-105.229789">
  <ele>1583.0</ele>
  <time>2026-08-28T17:50:33Z</time>
  <course>242.29</course>
  <speed>0.0</speed>
  <fix>3d</fix>
</trkpt>
<trkpt lat="40.0713749" lon="-105.229789">
  <ele>1583.0</ele>
  <time>2026-08-28T17:50:33Z</time>
  <course>0.0</course>
  <speed>0.0</speed>
  <fix>3d</fix>
</trkpt>
<trkpt lat="40.0713749" lon="-105.229789">
  <ele>1583.0</ele>
  <time>2026-08-28T17:50:33Z</time>
  <course>242.54</course>
  <speed>0.0</speed>
  <fix>3d</fix>
</trkpt>
<trkpt lat="40.0713749" lon="-105.229789">
  <ele>1583.0</ele>
  <time>2026-08-28T17:50:33Z</time>
  <course>0.0</course>
  <speed>0.0</speed>
  <fix>3d</fix>
</trkpt>
<trkpt lat="40.0713749" lon="-105.229789">
  <ele>1583.0</ele>
  <time>2026-08-28T17:50:33Z</time>
  <course>242.79</course>
  <speed>0.0</speed>
  <fix>3d</fix>
</trkpt>
<trkpt lat="40.0713749" lon="-105.229789">
  <ele>1583.0</ele>
  <time>2026-08-28T17:50:33Z</time>
  <course>0.0</course>
  <speed>0.0</speed>
  <fix>3d</fix>
</trkpt>
<trkpt lat="40.0713749" lon="-105.229789">
  <ele>1583.0</ele>
  <time>2026-08-28T17:50:33Z</time>
  <course>243.02</course>
  <speed>0.0</speed>
  <fix>3d</fix>
</trkpt>
<trkpt lat="40.0713749" lon="-105.229789">
  <ele>1583.0</ele>
  <time>2026-08-28T17:50:33Z</time>
  <course>0.0</course>
  <speed>0.0</speed>
  <fix>3d</fix>
</trkpt>
<trkpt lat="40.0713749" lon="-105.229789">
  <ele>1583.0</ele>
  <time>2026-08-28T17:50:33Z</time>
  <course>243.25</course>
  <speed>0.0</speed>
  <fix>3d</fix>
</trkpt>
<trkpt lat="40.0713749" lon="-105.229789">
  <ele>1583.0</ele>
  <time>2026-08-28T17:50:33Z</time>
  <course>0.0</course>
  <speed>0.0</speed>
  <fix>3d</fix>
</trkpt>
<trkpt lat="40.0713749" lon="-105.229789">
  <ele>1583.0</ele>
  <time>2026-08-28T17:50:33Z</time>
  <course>243.47</course>
  <speed>0.0</speed>
  <fix>3d</fix>
</trkpt>
<trkpt lat="40.0713749" lon="-105.229789">
  <ele>1583.0</ele>
  <time>2026-08-28T17:50:33Z</time>
  <course>0.0</course>
  <speed>0.0</speed>
  <fix>3d</fix>
</trkpt>
<trkpt lat="40.0713749" lon="-105.229789">
  <ele>1583.0</ele>
  <time>2026-08-28T17:50:34Z</time>
  <course>243.68</course>
  <speed>0.0</speed>
  <fix>3d</fix>
</trkpt>
<trkpt lat="40.0713749" lon="-105.229789">
  <ele>1583.0</ele>
  <time>2026-08-28T17:50:34Z</time>
  <course>0.0</course>
  <speed>0.0</speed>
  <fix>3d</fix>
</trkpt>
<trkpt lat="40.0713749" lon="-105.229789">
  <ele>1583.0</ele>
  <time>2026-08-28T17:50:34Z</time>
  <course>243.89</course>
  <speed>0.0</speed>
  <fix>3d</fix>
</trkpt>
<trkpt lat="40.0713749" lon="-105.229789">
  <ele>1583.0</ele>
  <time>2026-08-28T17:50:34Z</time>
  <course>0.0</course>
  <speed>0.0</speed>
  <fix>3d</fix>
</trkpt>
<trkpt lat="40.0713749" lon="-105.229789">
  <ele>1583.0</ele>
  <time>2026-08-28T17:50:34Z</time>
  <course>244.09</course>
  <speed>0.0</speed>
  <fix>3d</fix>
</trkpt>
<trkpt lat="40.0713749" lon="-105.229789">
  <ele>1583.0</ele>
  <time>2026-08-28T17:50:34Z</time>
  <course>0.0</course>
  <speed>0.0</speed>
  <fix>3d</fix>
</trkpt>
<trkpt lat="40.0713749" lon="-105.229789">
  <ele>1583.0</ele>
  <time>2026-08-28T17:50:34Z</time>
  <course>244.28</course>
  <speed>0.0</speed>
  <fix>3d</fix>
</trkpt>
<trkpt lat="40.0713749" lon="-105.229789">
  <ele>1583.0</ele>
  <time>2026-08-28T17:50:34Z</time>
  <course>0.0</course>
  <speed>0.0</speed>
  <fix>3d</fix>
</trkpt>
<trkpt lat="40.0713749" lon="-105.229789">
  <ele>1583.0</ele>
  <time>2026-08-28T17:50:34Z</time>
  <course>244.46</course>
  <speed>0.0</speed>
  <fix>3d</fix>
</trkpt>
<trkpt lat="40.0713749" lon="-105.229789">
  <ele>1583.0</ele>
  <time>2026-08-28T17:50:34Z</time>
  <course>0.0</course>
  <speed>0.0</speed>
  <fix>3d</fix>
</trkpt>
<trkpt lat="40.0713749" lon="-105.229789">
  <ele>1583.0</ele>
  <time>2026-08-28T17:50:34Z</time>
  <course>244.64</course>
  <speed>0.0</speed>
  <fix>3d</fix>
</trkpt>
<trkpt lat="40.0713749" lon="-105.229789">
  <ele>1583.0</ele>
  <time>2026-08-28T17:50:34Z</time>
  <course>0.0</course>
  <speed>0.0</speed>
  <fix>3d</fix>
</trkpt>
<trkpt lat="40.0713749" lon="-105.229789">
  <ele>1583.0</ele>
  <time>2026-08-28T17:50:34Z</time>
  <course>244.81</course>
  <speed>0.0</speed>
  <fix>3d</fix>
</trkpt>
<trkpt lat="40.0713749" lon="-105.229789">
  <ele>1583.0</ele>
  <time>2026-08-28T17:50:34Z</time>
  <course>0.0</course>
  <speed>0.0</speed>
  <fix>3d</fix>
</trkpt>
<trkpt lat="40.0713749" lon="-105.229789">
  <ele>1583.0</ele>
  <time>2026-08-28T17:50:34Z</time>
  <course>244.97</course>
  <speed>0.0</speed>
  <fix>3d</fix>
</trkpt>
<trkpt lat="40.0713749" lon="-105.229789">
  <ele>1583.0</ele>
  <time>2026-08-28T17:50:34Z</time>
  <course>0.0</course>
  <speed>0.0</speed>
  <fix>3d</fix>
</trkpt>
<trkpt lat="40.0713749" lon="-105.229789">
  <ele>1583.0</ele>
  <time>2026-08-28T17:50:34Z</time>
  <course>245.13</course>
  <speed>0.0</speed>
  <fix>3d</fix>
</trkpt>
<trkpt lat="40.0713749" lon="-105.229789">
  <ele>1583.0</ele>
  <time>2026-08-28T17:50:34Z</time>
  <course>0.0</course>
  <speed>0.0</speed>
  <fix>3d</fix>
</trkpt>
<trkpt lat="40.0713749" lon="-105.229789">
  <ele>1583.0</ele>
  <time>2026-08-28T17:50:34Z</time>
  <course>245.29</course>
  <speed>0.0</speed>
  <fix>3d</fix>
</trkpt>
<trkpt lat="40.0713749" lon="-105.229789">
  <ele>1583.0</ele>
  <time>2026-08-28T17:50:34Z</time>
  <course>0.0</course>
  <speed>0.0</speed>
  <fix>3d</fix>
</trkpt>
<trkpt lat="40.0713749" lon="-105.229789">
  <ele>1583.0</ele>
  <time>2026-08-28T17:50:34Z</time>
  <course>245.43</course>
  <speed>0.0</speed>
  <fix>3d</fix>
</trkpt>
<trkpt lat="40.0713749" lon="-105.229789">
  <ele>1583.0</ele>
  <time>2026-08-28T17:50:34Z</time>
  <course>0.0</course>
  <speed>0.0</speed>
  <fix>3d</fix>
</trkpt>
<trkpt lat="40.0713749" lon="-105.229789">
  <ele>1583.0</ele>
  <time>2026-08-28T17:50:34Z</time>
  <course>245.57</course>
  <speed>0.0</speed>
  <fix>3d</fix>
</trkpt>
<trkpt lat="40.0713749" lon="-105.229789">
  <ele>1583.0</ele>
  <time>2026-08-28T17:50:34Z</time>
  <course>0.0</course>
  <speed>0.0</speed>
  <fix>3d</fix>
</trkpt>
<trkpt lat="40.0713749" lon="-105.229789">
  <ele>1583.0</ele>
  <time>2026-08-28T17:50:34Z</time>
  <course>245.71</course>
  <speed>0.0</speed>
  <fix>3d</fix>
</trkpt>
<trkpt lat="40.0713749" lon="-105.229789">
  <ele>1583.0</ele>
  <time>2026-08-28T17:50:34Z</time>
  <course>0.0</course>
  <speed>0.0</speed>
  <fix>3d</fix>
</trkpt>
<trkpt lat="40.0713749" lon="-105.229789">
  <ele>1583.0</ele>
  <time>2026-08-28T17:50:34Z</time>
  <course>245.84</course>
  <speed>0.0</speed>
  <fix>3d</fix>
</trkpt>
<trkpt lat="40.0713749" lon="-105.229789">
  <ele>1583.0</ele>
  <time>2026-08-28T17:50:34Z</time>
  <course>0.0</course>
  <speed>0.0</speed>
  <fix>3d</fix>
</trkpt>
<trkpt lat="40.0713749" lon="-105.229789">
  <ele>1583.0</ele>
  <time>2026-08-28T17:50:34Z</time>
  <course>245.96</course>
  <speed>0.0</speed>
  <fix>3d</fix>
</trkpt>
<trkpt lat="40.0713749" lon="-105.229789">
  <ele>1583.0</ele>
  <time>2026-08-28T17:50:34Z</time>
  <course>0.0</course>
  <speed>0.0</speed>
  <fix>3d</fix>
</trkpt>
<trkpt lat="40.0713749" lon="-105.229789">
  <ele>1583.0</ele>
  <time>2026-08-28T17:50:34Z</time>
  <course>246.08</course>
  <speed>0.0</speed>
  <fix>3d</fix>
</trkpt>
<trkpt lat="40.0713749" lon="-105.229789">
  <ele>1583.0</ele>
  <time>2026-08-28T17:50:34Z</time>
  <course>0.0</course>
  <speed>0.0</speed>
  <fix>3d</fix>
</trkpt>
<trkpt lat="40.0713749" lon="-105.229789">
  <ele>1583.0</ele>
  <time>2026-08-28T17:50:34Z</time>
  <course>246.19</course>
  <speed>0.0</speed>
  <fix>3d</fix>
</trkpt>
<trkpt lat="40.0713749" lon="-105.229789">
  <ele>1583.0</ele>
  <time>2026-08-28T17:50:34Z</time>
  <course>0.0</course>
  <speed>0.0</speed>
  <fix>3d</fix>
</trkpt>
<trkpt lat="40.0713749" lon="-105.229789">
  <ele>1583.0</ele>
  <time>2026-08-28T17:50:34Z</time>
  <course>246.3</course>
  <speed>0.0</speed>
  <fix>3d</fix>
</trkpt>
<trkpt lat="40.0713749" lon="-105.229789">
  <ele>1583.0</ele>
  <time>2026-08-28T17:50:34Z</time>
  <course>0.0</course>
  <speed>0.0</speed>
  <fix>3d</fix>
</trkpt>
<trkpt lat="40.0713749" lon="-105.229789">
  <ele>1583.0</ele>
  <time>2026-08-28T17:50:34Z</time>
  <course>246.41</course>
  <speed>0.0</speed>
  <fix>3d</fix>
</trkpt>
<trkpt lat="40.0713749" lon="-105.229789">
  <ele>1583.0</ele>
  <time>2026-08-28T17:50:34Z</time>
  <course>0.0</course>
  <speed>0.0</speed>
  <fix>3d</fix>
</trkpt>
<trkpt lat="40.0713749" lon="-105.229789">
  <ele>1583.0</ele>
  <time>2026-08-28T17:50:34Z</time>
  <course>246.51</course>
  <speed>0.0</speed>
  <fix>3d</fix>
</trkpt>
<trkpt lat="40.0713749" lon="-105.229789">
  <ele>1583.0</ele>
  <time>2026-08-28T17:50:34Z</time>
  <course>0.0</course>
  <speed>0.0</speed>
  <fix>3d</fix>
</trkpt>
<trkpt lat="40.0713749" lon="-105.229789">
  <ele>1583.0</ele>
  <time>2026-08-28T17:50:34Z</time>
  <course>246.6</course>
  <speed>0.0</speed>
  <fix>3d</fix>
</trkpt>
<trkpt lat="40.0713749" lon="-105.229789">
  <ele>1583.0</ele>
  <time>2026-08-28T17:50:34Z</time>
  <course>0.0</course>
  <speed>0.0</speed>
  <fix>3d</fix>
</trkpt>
<trkpt lat="40.0713749" lon="-105.229789">
  <ele>1583.0</ele>
  <time>2026-08-28T17:50:34Z</time>
  <course>246.7</course>
  <speed>0.0</speed>
  <fix>3d</fix>
</trkpt>
<trkpt lat="40.0713749" lon="-105.229789">
  <ele>1583.0</ele>
  <time>2026-08-28T17:50:34Z</time>
  <course>0.0</course>
  <speed>0.0</speed>
  <fix>3d</fix>
</trkpt>
<trkpt lat="40.0713749" lon="-105.229789">
  <ele>1583.0</ele>
  <time>2026-08-28T17:50:34Z</time>
  <course>246.78</course>
  <speed>0.0</speed>
  <fix>3d</fix>
</trkpt>
<trkpt lat="40.0713749" lon="-105.229789">
  <ele>1583.0</ele>
  <time>2026-08-28T17:50:34Z</time>
  <course>0.0</course>
  <speed>0.0</speed>
  <fix>3d</fix>
</trkpt>
<trkpt lat="40.0713749" lon="-105.229789">
  <ele>1583.0</ele>
  <time>2026-08-28T17:50:34Z</time>
  <course>246.87</course>
  <speed>0.0</speed>
  <fix>3d</fix>
</trkpt>
<trkpt lat="40.0713749" lon="-105.229789">
  <ele>1583.0</ele>
  <time>2026-08-28T17:50:34Z</time>
  <course>0.0</course>
  <speed>0.0</speed>
  <fix>3d</fix>
</trkpt>
<trkpt lat="40.0713749" lon="-105.229789">
  <ele>1583.0</ele>
  <time>2026-08-28T17:50:34Z</time>
  <course>246.95</course>
  <speed>0.0</speed>
  <fix>3d</fix>
</trkpt>
<trkpt lat="40.0713749" lon="-105.229789">
  <ele>1583.0</ele>
  <time>2026-08-28T17:50:34Z</time>
  <course>0.0</course>
  <speed>0.0</speed>
  <fix>3d</fix>
</trkpt>
<trkpt lat="40.0713749" lon="-105.229789">
  <ele>1583.0</ele>
  <time>2026-08-28T17:50:34Z</time>
  <course>247.02</course>
  <speed>0.0</speed>
  <fix>3d</fix>
</trkpt>
<trkpt lat="40.0713749" lon="-105.229789">
  <ele>1583.0</ele>
  <time>2026-08-28T17:50:34Z</time>
  <course>0.0</course>
  <speed>0.0</speed>
  <fix>3d</fix>
</trkpt>
<trkpt lat="40.0713749" lon="-105.229789">
  <ele>1583.0</ele>
  <time>2026-08-28T17:50:34Z</time>
  <course>247.1</course>
  <speed>0.0</speed>
  <fix>3d</fix>
</trkpt>
<trkpt lat="40.0713749" lon="-105.229789">
  <ele>1583.0</ele>
  <time>2026-08-28T17:50:34Z</time>
  <course>0.0</course>
  <speed>0.0</speed>
  <fix>3d</fix>
</trkpt>
<trkpt lat="40.0713749" lon="-105.229789">
  <ele>1583.0</ele>
  <time>2026-08-28T17:50:34Z</time>
  <course>247.17</course>
  <speed>0.0</speed>
  <fix>3d</fix>
</trkpt>
<trkpt lat="40.0713749" lon="-105.229789">
  <ele>1583.0</ele>
  <time>2026-08-28T17:50:34Z</time>
  <course>0.0</course>
  <speed>0.0</speed>
  <fix>3d</fix>
</trkpt>
<trkpt lat="40.0713749" lon="-105.229789">
  <ele>1583.0</ele>
  <time>2026-08-28T17:50:34Z</time>
  <course>247.24</course>
  <speed>0.0</speed>
  <fix>3d</fix>
</trkpt>
<trkpt lat="40.0713749" lon="-105.229789">
  <ele>1583.0</ele>
  <time>2026-08-28T17:50:34Z</time>
  <course>0.0</course>
  <speed>0.0</speed>
  <fix>3d</fix>
</trkpt>
<trkpt lat="40.0713749" lon="-105.229789">
  <ele>1583.0</ele>
  <time>2026-08-28T17:50:34Z</time>
  <course>247.3</course>
  <speed>0.0</speed>
  <fix>3d</fix>
</trkpt>
<trkpt lat="40.0713749" lon="-105.229789">
  <ele>1583.0</ele>
  <time>2026-08-28T17:50:34Z</time>
  <course>0.0</course>
  <speed>0.0</speed>
  <fix>3d</fix>
</trkpt>
<trkpt lat="40.0713749" lon="-105.229789">
  <ele>1583.0</ele>
  <time>2026-08-28T17:50:34Z</time>
  <course>247.36</course>
  <speed>0.0</speed>
  <fix>3d</fix>
</trkpt>
<trkpt lat="40.0713749" lon="-105.229789">
  <ele>1583.0</ele>
  <time>2026-08-28T17:50:34Z</time>
  <course>0.0</course>
  <speed>0.0</speed>
  <fix>3d</fix>
</trkpt>
<trkpt lat="40.0713749" lon="-105.229789">
  <ele>1583.0</ele>
  <time>2026-08-28T17:50:34Z</time>
  <course>247.42</course>
  <speed>0.0</speed>
  <fix>3d</fix>
</trkpt>
<trkpt lat="40.0713749" lon="-105.229789">
  <ele>1583.0</ele>
  <time>2026-08-28T17:50:34Z</time>
  <course>0.0</course>
  <speed>0.0</speed>
  <fix>3d</fix>
</trkpt>
<trkpt lat="40.0713749" lon="-105.229789">
  <ele>1583.0</ele>
  <time>2026-08-28T17:50:34Z</time>
  <course>247.47</course>
  <speed>0.0</speed>
  <fix>3d</fix>
</trkpt>
<trkpt lat="40.0713749" lon="-105.229789">
  <ele>1583.0</ele>
  <time>2026-08-28T17:50:34Z</time>
  <course>0.0</course>
  <speed>0.0</speed>
  <fix>3d</fix>
</trkpt>
<trkpt lat="40.0713749" lon="-105.229789">
  <ele>1583.0</ele>
  <time>2026-08-28T17:50:34Z</time>
  <course>247.53</course>
  <speed>0.0</speed>
  <fix>3d</fix>
</trkpt>
<trkpt lat="40.0713749" lon="-105.229789">
  <ele>1583.0</ele>
  <time>2026-08-28T17:50:34Z</time>
  <course>0.0</course>
  <speed>0.0</speed>
  <fix>3d</fix>
</trkpt>
<trkpt lat="40.0713749" lon="-105.229789">
  <ele>1583.0</ele>
  <time>2026-08-28T17:50:34Z</time>
  <course>247.58</course>
  <speed>0.0</speed>
  <fix>3d</fix>
</trkpt>
<trkpt lat="40.0713749" lon="-105.229789">
  <ele>1583.0</ele>
  <time>2026-08-28T17:50:34Z</time>
  <course>0.0</course>
  <speed>0.0</speed>
  <fix>3d</fix>
</trkpt>
<trkpt lat="40.0713749" lon="-105.229789">
  <ele>1583.0</ele>
  <time>2026-08-28T17:50:34Z</time>
  <course>247.63</course>
  <speed>0.0</speed>
  <fix>3d</fix>
</trkpt>
<trkpt lat="40.0713749" lon="-105.229789">
  <ele>1583.0</ele>
  <time>2026-08-28T17:50:34Z</time>
  <course>0.0</course>
  <speed>0.0</speed>
  <fix>3d</fix>
</trkpt>
<trkpt lat="40.0713749" lon="-105.229789">
  <ele>1583.0</ele>
  <time>2026-08-28T17:50:34Z</time>
  <course>247.67</course>
  <speed>0.0</speed>
  <fix>3d</fix>
</trkpt>
<trkpt lat="40.0713749" lon="-105.229789">
  <ele>1583.0</ele>
  <time>2026-08-28T17:50:34Z</time>
  <course>0.0</course>
  <speed>0.0</speed>
  <fix>3d</fix>
</trkpt>
<trkpt lat="40.0713749" lon="-105.229789">
  <ele>1583.0</ele>
  <time>2026-08-28T17:50:34Z</time>
  <course>247.72</course>
  <speed>0.0</speed>
  <fix>3d</fix>
</trkpt>
<trkpt lat="40.0713749" lon="-105.229789">
  <ele>1583.0</ele>
  <time>2026-08-28T17:50:34Z</time>
  <course>0.0</course>
  <speed>0.0</speed>
  <fix>3d</fix>
</trkpt>
<trkpt lat="40.0713749" lon="-105.229789">
  <ele>1583.0</ele>
  <time>2026-08-28T17:50:34Z</time>
  <course>247.76</course>
  <speed>0.0</speed>
  <fix>3d</fix>
</trkpt>
<trkpt lat="40.0713749" lon="-105.229789">
  <ele>1583.0</ele>
  <time>2026-08-28T17:50:34Z</time>
  <course>0.0</course>
  <speed>0.0</speed>
  <fix>3d</fix>
</trkpt>
<trkpt lat="40.0713749" lon="-105.229789">
  <ele>1583.0</ele>
  <time>2026-08-28T17:50:34Z</time>
  <course>247.8</course>
  <speed>0.0</speed>
  <fix>3d</fix>
</trkpt>
<trkpt lat="40.0713749" lon="-105.229789">
  <ele>1583.0</ele>
  <time>2026-08-28T17:50:34Z</time>
  <course>0.0</course>
  <speed>0.0</speed>
  <fix>3d</fix>
</trkpt>
<trkpt lat="40.0713749" lon="-105.229789">
  <ele>1583.0</ele>
  <time>2026-08-28T17:50:34Z</time>
  <course>247.83</course>
  <speed>0.0</speed>
  <fix>3d</fix>
</trkpt>
<trkpt lat="40.0713749" lon="-105.229789">
  <ele>1583.0</ele>
  <time>2026-08-28T17:50:34Z</time>
  <course>0.0</course>
  <speed>0.0</speed>
  <fix>3d</fix>
</trkpt>
<trkpt lat="40.0713749" lon="-105.229789">
  <ele>1583.0</ele>
  <time>2026-08-28T17:50:34Z</time>
  <course>247.87</course>
  <speed>0.0</speed>
  <fix>3d</fix>
</trkpt>
<trkpt lat="40.0713749" lon="-105.229789">
  <ele>1583.0</ele>
  <time>2026-08-28T17:50:34Z</time>
  <course>0.0</course>
  <speed>0.0</speed>
  <fix>3d</fix>
</trkpt>
<trkpt lat="40.0713749" lon="-105.229789">
  <ele>1583.0</ele>
  <time>2026-08-28T17:50:34Z</time>
  <course>247.9</course>
  <speed>0.0</speed>
  <fix>3d</fix>
</trkpt>
<trkpt lat="40.0713749" lon="-105.229789">
  <ele>1583.0</ele>
  <time>2026-08-28T17:50:34Z</time>
  <course>0.0</course>
  <speed>0.0</speed>
  <fix>3d</fix>
</trkpt>
<trkpt lat="40.0713749" lon="-105.229789">
  <ele>1583.0</ele>
  <time>2026-08-28T17:50:34Z</time>
  <course>247.94</course>
  <speed>0.0</speed>
  <fix>3d</fix>
</trkpt>
<trkpt lat="40.0713749" lon="-105.229789">
  <ele>1583.0</ele>
  <time>2026-08-28T17:50:34Z</time>
  <course>0.0</course>
  <speed>0.0</speed>
  <fix>3d</fix>
</trkpt>
<trkpt lat="40.0713749" lon="-105.229789">
  <ele>1583.0</ele>
  <time>2026-08-28T17:50:34Z</time>
  <course>247.97</course>
  <speed>0.0</speed>
  <fix>3d</fix>
</trkpt>
<trkpt lat="40.0713749" lon="-105.229789">
  <ele>1583.0</ele>
  <time>2026-08-28T17:50:34Z</time>
  <course>0.0</course>
  <speed>0.0</speed>
  <fix>3d</fix>
</trkpt>
<trkpt lat="40.0713749" lon="-105.229789">
  <ele>1583.0</ele>
  <time>2026-08-28T17:50:34Z</time>
  <course>248.0</course>
  <speed>0.0</speed>
  <fix>3d</fix>
</trkpt>
<trkpt lat="40.0713749" lon="-105.229789">
  <ele>1583.0</ele>
  <time>2026-08-28T17:50:34Z</time>
  <course>0.0</course>
  <speed>0.0</speed>
  <fix>3d</fix>
</trkpt>
<trkpt lat="40.0713749" lon="-105.229789">
  <ele>1583.0</ele>
  <time>2026-08-28T17:50:34Z</time>
  <course>248.02</course>
  <speed>0.0</speed>
  <fix>3d</fix>
</trkpt>
<trkpt lat="40.0713749" lon="-105.229789">
  <ele>1583.0</ele>
  <time>2026-08-28T17:50:34Z</time>
  <course>0.0</course>
  <speed>0.0</speed>
  <fix>3d</fix>
</trkpt>
<trkpt lat="40.0713749" lon="-105.229789">
  <ele>1583.0</ele>
  <time>2026-08-28T17:50:34Z</time>
  <course>248.05</course>
  <speed>0.0</speed>
  <fix>3d</fix>
</trkpt>
<trkpt lat="40.0713749" lon="-105.229789">
  <ele>1583.0</ele>
  <time>2026-08-28T17:50:34Z</time>
  <course>0.0</course>
  <speed>0.0</speed>
  <fix>3d</fix>
</trkpt>
<trkpt lat="40.0713749" lon="-105.229789">
  <ele>1583.0</ele>
  <time>2026-08-28T17:50:34Z</time>
  <course>248.08</course>
  <speed>0.0</speed>
  <fix>3d</fix>
</trkpt>
<trkpt lat="40.0713749" lon="-105.229789">
  <ele>1583.0</ele>
  <time>2026-08-28T17:50:34Z</time>
  <course>0.0</course>
  <speed>0.0</speed>
  <fix>3d</fix>
</trkpt>
<trkpt lat="40.0713749" lon="-105.229789">
  <ele>1583.0</ele>
  <time>2026-08-28T17:50:34Z</time>
  <course>248.1</course>
  <speed>0.0</speed>
  <fix>3d</fix>
</trkpt>
<trkpt lat="40.0713749" lon="-105.229789">
  <ele>1583.0</ele>
  <time>2026-08-28T17:50:34Z</time>
  <course>0.0</course>
  <speed>0.0</speed>
  <fix>3d</fix>
</trkpt>
<trkpt lat="40.0713749" lon="-105.229789">
  <ele>1583.0</ele>
  <time>2026-08-28T17:50:34Z</time>
  <course>248.12</course>
  <speed>0.0</speed>
  <fix>3d</fix>
</trkpt>
<trkpt lat="40.0713749" lon="-105.229789">
  <ele>1583.0</ele>
  <time>2026-08-28T17:50:34Z</time>
  <course>0.0</course>
  <speed>0.0</speed>
  <fix>3d</fix>
</trkpt>
<trkpt lat="40.0713749" lon="-105.229789">
  <ele>1583.0</ele>
  <time>2026-08-28T17:50:34Z</time>
  <course>248.14</course>
  <speed>0.0</speed>
  <fix>3d</fix>
</trkpt>
<trkpt lat="40.0713749" lon="-105.229789">
  <ele>1583.0</ele>
  <time>2026-08-28T17:50:34Z</time>
  <course>0.0</course>
  <speed>0.0</speed>
  <fix>3d</fix>
</trkpt>
<trkpt lat="40.0713749" lon="-105.229789">
  <ele>1583.0</ele>
  <time>2026-08-28T17:50:34Z</time>
  <course>248.16</course>
  <speed>0.0</speed>
  <fix>3d</fix>
</trkpt>
<trkpt lat="40.0713749" lon="-105.229789">
  <ele>1583.0</ele>
  <time>2026-08-28T17:50:34Z</time>
  <course>0.0</course>
  <speed>0.0</speed>
  <fix>3d</fix>
</trkpt>
<trkpt lat="40.0713749" lon="-105.229789">
  <ele>1583.0</ele>
  <time>2026-08-28T17:50:34Z</time>
  <course>248.18</course>
  <speed>0.0</speed>
  <fix>3d</fix>
</trkpt>
<trkpt lat="40.0713749" lon="-105.229789">
  <ele>1583.0</ele>
  <time>2026-08-28T17:50:34Z</time>
  <course>0.0</course>
  <speed>0.0</speed>
  <fix>3d</fix>
</trkpt>
<trkpt lat="40.0713749" lon="-105.229789">
  <ele>1583.0</ele>
  <time>2026-08-28T17:50:34Z</time>
  <course>248.2</course>
  <speed>0.0</speed>
  <fix>3d</fix>
</trkpt>
<trkpt lat="40.0713749" lon="-105.229789">
  <ele>1583.0</ele>
  <time>2026-08-28T17:50:34Z</time>
  <course>0.0</course>
  <speed>0.0</speed>
  <fix>3d</fix>
</trkpt>
<trkpt lat="40.0713749" lon="-105.229789">
  <ele>1583.0</ele>
  <time>2026-08-28T17:50:34Z</time>
  <course>248.22</course>
  <speed>0.0</speed>
  <fix>3d</fix>
</trkpt>
<trkpt lat="40.0713749" lon="-105.229789">
  <ele>1583.0</ele>
  <time>2026-08-28T17:50:34Z</time>
  <course>0.0</course>
  <speed>0.0</speed>
  <fix>3d</fix>
</trkpt>
<trkpt lat="40.0713749" lon="-105.229789">
  <ele>1583.0</ele>
  <time>2026-08-28T17:50:34Z</time>
  <course>248.23</course>
  <speed>0.0</speed>
  <fix>3d</fix>
</trkpt>
<trkpt lat="40.0713749" lon="-105.229789">
  <ele>1583.0</ele>
  <time>2026-08-28T17:50:34Z</time>
  <course>0.0</course>
  <speed>0.0</speed>
  <fix>3d</fix>
</trkpt>
<trkpt lat="40.0713749" lon="-105.229789">
  <ele>1583.0</ele>
  <time>2026-08-28T17:50:34Z</time>
  <course>248.25</course>
  <speed>0.0</speed>
  <fix>3d</fix>
</trkpt>
<trkpt lat="40.0713749" lon="-105.229789">
  <ele>1583.0</ele>
  <time>2026-08-28T17:50:34Z</time>
  <course>0.0</course>
  <speed>0.0</speed>
  <fix>3d</fix>
</trkpt>
<trkpt lat="40.0713749" lon="-105.229789">
  <ele>1583.0</ele>
  <time>2026-08-28T17:50:34Z</time>
  <course>248.26</course>
  <speed>0.0</speed>
  <fix>3d</fix>
</trkpt>
<trkpt lat="40.0713749" lon="-105.229789">
  <ele>1583.0</ele>
  <time>2026-08-28T17:50:34Z</time>
  <course>0.0</course>
  <speed>0.0</speed>
  <fix>3d</fix>
</trkpt>
<trkpt lat="40.0713749" lon="-105.229789">
  <ele>1583.0</ele>
  <time>2026-08-28T17:50:34Z</time>
  <course>248.28</course>
  <speed>0.0</speed>
  <fix>3d</fix>
</trkpt>
<trkpt lat="40.0713749" lon="-105.229789">
  <ele>1583.0</ele>
  <time>2026-08-28T17:50:34Z</time>
  <course>0.0</course>
  <speed>0.0</speed>
  <fix>3d</fix>
</trkpt>
<trkpt lat="40.0713749" lon="-105.229789">
  <ele>1583.0</ele>
  <time>2026-08-28T17:50:34Z</time>
  <course>248.29</course>
  <speed>0.0</speed>
  <fix>3d</fix>
</trkpt>
<trkpt lat="40.0713749" lon="-105.229789">
  <ele>1583.0</ele>
  <time>2026-08-28T17:50:34Z</time>
  <course>0.0</course>
  <speed>0.0</speed>
  <fix>3d</fix>
</trkpt>
<trkpt lat="40.0713749" lon="-105.229789">
  <ele>1583.0</ele>
  <time>2026-08-28T17:50:34Z</time>
  <course>248.3</course>
  <speed>0.0</speed>
  <fix>3d</fix>
</trkpt>
<trkpt lat="40.0713749" lon="-105.229789">
  <ele>1583.0</ele>
  <time>2026-08-28T17:50:34Z</time>
  <course>0.0</course>
  <speed>0.0</speed>
  <fix>3d</fix>
</trkpt>
<trkpt lat="40.0713749" lon="-105.229789">
  <ele>1583.0</ele>
  <time>2026-08-28T17:50:34Z</time>
  <course>248.31</course>
  <speed>0.0</speed>
  <fix>3d</fix>
</trkpt>
<trkpt lat="40.0713749" lon="-105.229789">
  <ele>1583.0</ele>
  <time>2026-08-28T17:50:34Z</time>
  <course>0.0</course>
  <speed>0.0</speed>
  <fix>3d</fix>
</trkpt>
<trkpt lat="40.0713749" lon="-105.229789">
  <ele>1583.0</ele>
  <time>2026-08-28T17:50:34Z</time>
  <course>248.32</course>
  <speed>0.0</speed>
  <fix>3d</fix>
</trkpt>
<trkpt lat="40.0713749" lon="-105.229789">
  <ele>1583.0</ele>
  <time>2026-08-28T17:50:34Z</time>
  <course>0.0</course>
  <speed>0.0</speed>
  <fix>3d</fix>
</trkpt>
<trkpt lat="40.0713749" lon="-105.229789">
  <ele>1583.0</ele>
  <time>2026-08-28T17:50:34Z</time>
  <course>248.33</course>
  <speed>0.0</speed>
  <fix>3d</fix>
</trkpt>
<trkpt lat="40.0713749" lon="-105.229789">
  <ele>1583.0</ele>
  <time>2026-08-28T17:50:34Z</time>
  <course>0.0</course>
  <speed>0.0</speed>
  <fix>3d</fix>
</trkpt>
<trkpt lat="40.0713749" lon="-105.229789">
  <ele>1583.0</ele>
  <time>2026-08-28T17:50:34Z</time>
  <course>248.34</course>
  <speed>0.0</speed>
  <fix>3d</fix>
</trkpt>
<trkpt lat="40.0713749" lon="-105.229789">
  <ele>1583.0</ele>
  <time>2026-08-28T17:50:34Z</time>
  <course>0.0</course>
  <speed>0.0</speed>
  <fix>3d</fix>
</trkpt>
<trkpt lat="40.0713749" lon="-105.229789">
  <ele>1583.0</ele>
  <time>2026-08-28T17:50:34Z</time>
  <course>248.35</course>
  <speed>0.0</speed>
  <fix>3d</fix>
</trkpt>
<trkpt lat="40.0713749" lon="-105.229789">
  <ele>1583.0</ele>
  <time>2026-08-28T17:50:34Z</time>
  <course>0.0</course>
  <speed>0.0</speed>
  <fix>3d</fix>
</trkpt>
<trkpt lat="40.0713749" lon="-105.229789">
  <ele>1583.0</ele>
  <time>2026-08-28T17:50:34Z</time>
  <course>248.35</course>
  <speed>0.0</speed>
  <fix>3d</fix>
</trkpt>
<trkpt lat="40.0713749" lon="-105.229789">
  <ele>1583.0</ele>
  <time>2026-08-28T17:50:34Z</time>
  <course>0.0</course>
  <speed>0.0</speed>
  <fix>3d</fix>
</trkpt>
<trkpt lat="40.0713749" lon="-105.229789">
  <ele>1583.0</ele>
  <time>2026-08-28T17:50:34Z</time>
  <course>248.36</course>
  <speed>0.0</speed>
  <fix>3d</fix>
</trkpt>
<trkpt lat="40.0713749" lon="-105.229789">
  <ele>1583.0</ele>
  <time>2026-08-28T17:50:34Z</time>
  <course>0.0</course>
  <speed>0.0</speed>
  <fix>3d</fix>
</trkpt>
<trkpt lat="40.0713749" lon="-105.229789">
  <ele>1583.0</ele>
  <time>2026-08-28T17:50:34Z</time>
  <course>248.37</course>
  <speed>0.0</speed>
  <fix>3d</fix>
</trkpt>
<trkpt lat="40.0713749" lon="-105.229789">
  <ele>1583.0</ele>
  <time>2026-08-28T17:50:34Z</time>
  <course>0.0</course>
  <speed>0.0</speed>
  <fix>3d</fix>
</trkpt>
<trkpt lat="40.0713749" lon="-105.229789">
  <ele>1583.0</ele>
  <time>2026-08-28T17:50:34Z</time>
  <course>248.37</course>
  <speed>0.0</speed>
  <fix>3d</fix>
</trkpt>
<trkpt lat="40.0713749" lon="-105.229789">
  <ele>1583.0</ele>
  <time>2026-08-28T17:50:34Z</time>
  <course>0.0</course>
  <speed>0.0</speed>
  <fix>3d</fix>
</trkpt>
<trkpt lat="40.0713749" lon="-105.229789">
  <ele>1583.0</ele>
  <time>2026-08-28T17:50:34Z</time>
  <course>248.38</course>
  <speed>0.0</speed>
  <fix>3d</fix>
</trkpt>
<trkpt lat="40.0713749" lon="-105.229789">
  <ele>1583.0</ele>
  <time>2026-08-28T17:50:34Z</time>
  <course>0.0</course>
  <speed>0.0</speed>
  <fix>3d</fix>
</trkpt>
<trkpt lat="40.0713749" lon="-105.229789">
  <ele>1583.0</ele>
  <time>2026-08-28T17:50:34Z</time>
  <course>248.38</course>
  <speed>0.0</speed>
  <fix>3d</fix>
</trkpt>
<trkpt lat="40.0713749" lon="-105.229789">
  <ele>1583.0</ele>
  <time>2026-08-28T17:50:34Z</time>
  <course>0.0</course>
  <speed>0.0</speed>
  <fix>3d</fix>
</trkpt>
<trkpt lat="40.0713749" lon="-105.229789">
  <ele>1583.0</ele>
  <time>2026-08-28T17:50:34Z</time>
  <course>248.39</course>
  <speed>0.0</speed>
  <fix>3d</fix>
</trkpt>
<trkpt lat="40.0713749" lon="-105.229789">
  <ele>1583.0</ele>
  <time>2026-08-28T17:50:34Z</time>
  <course>0.0</course>
  <speed>0.0</speed>
  <fix>3d</fix>
</trkpt>
<trkpt lat="40.0713749" lon="-105.229789">
  <ele>1583.0</ele>
  <time>2026-08-28T17:50:34Z</time>
  <course>248.39</course>
  <speed>0.0</speed>
  <fix>3d</fix>
</trkpt>
<trkpt lat="40.0713749" lon="-105.229789">
  <ele>1583.0</ele>
  <time>2026-08-28T17:50:34Z</time>
  <course>0.0</course>
  <speed>0.0</speed>
  <fix>3d</fix>
</trkpt>
<trkpt lat="40.0713749" lon="-105.229789">
  <ele>1583.0</ele>
  <time>2026-08-28T17:50:34Z</time>
  <course>248.4</course>
  <speed>0.0</speed>
  <fix>3d</fix>
</trkpt>
<trkpt lat="40.0713749" lon="-105.229789">
  <ele>1583.0</ele>
  <time>2026-08-28T17:50:34Z</time>
  <course>0.0</course>
  <speed>0.0</speed>
  <fix>3d</fix>
</trkpt>
<trkpt lat="40.0713749" lon="-105.229789">
  <ele>1583.0</ele>
  <time>2026-08-28T17:50:34Z</time>
  <course>248.4</course>
  <speed>0.0</speed>
  <fix>3d</fix>
</trkpt>
<trkpt lat="40.0713749" lon="-105.229789">
  <ele>1583.0</ele>
  <time>2026-08-28T17:50:34Z</time>
  <course>0.0</course>
  <speed>0.0</speed>
  <fix>3d</fix>
</trkpt>
<trkpt lat="40.0713749" lon="-105.229789">
  <ele>1583.0</ele>
  <time>2026-08-28T17:50:34Z</time>
  <course>248.4</course>
  <speed>0.0</speed>
  <fix>3d</fix>
</trkpt>
<trkpt lat="40.0713749" lon="-105.229789">
  <ele>1583.0</ele>
  <time>2026-08-28T17:50:34Z</time>
  <course>0.0</course>
  <speed>0.0</speed>
  <fix>3d</fix>
</trkpt>
<trkpt lat="40.0713749" lon="-105.229789">
  <ele>1583.0</ele>
  <time>2026-08-28T17:50:34Z</time>
  <course>248.4</course>
  <speed>0.0</speed>
  <fix>3d</fix>
</trkpt>
<trkpt lat="40.0713749" lon="-105.229789">
  <ele>1583.0</ele>
  <time>2026-08-28T17:50:34Z</time>
  <course>0.0</course>
  <speed>0.0</speed>
  <fix>3d</fix>
</trkpt>
<trkpt lat="40.0713749" lon="-105.229789">
  <ele>1583.0</ele>
  <time>2026-08-28T17:50:34Z</time>
  <course>248.41</course>
  <speed>0.0</speed>
  <fix>3d</fix>
</trkpt>
<trkpt lat="40.0713749" lon="-105.229789">
  <ele>1583.0</ele>
  <time>2026-08-28T17:50:34Z</time>
  <course>0.0</course>
  <speed>0.0</speed>
  <fix>3d</fix>
</trkpt>
<trkpt lat="40.0713749" lon="-105.229789">
  <ele>1583.0</ele>
  <time>2026-08-28T17:50:34Z</time>
  <course>248.41</course>
  <speed>0.0</speed>
  <fix>3d</fix>
</trkpt>
<trkpt lat="40.0713749" lon="-105.229789">
  <ele>1583.0</ele>
  <time>2026-08-28T17:50:34Z</time>
  <course>0.0</course>
  <speed>0.0</speed>
  <fix>3d</fix>
</trkpt>
<trkpt lat="40.0713749" lon="-105.229789">
  <ele>1583.0</ele>
  <time>2026-08-28T17:50:34Z</time>
  <course>248.41</course>
  <speed>0.0</speed>
  <fix>3d</fix>
</trkpt>
<trkpt lat="40.0713749" lon="-105.229789">
  <ele>1583.0</ele>
  <time>2026-08-28T17:50:34Z</time>
  <course>0.0</course>
  <speed>0.0</speed>
  <fix>3d</fix>
</trkpt>
<trkpt lat="40.0713749" lon="-105.229789">
  <ele>1583.0</ele>
  <time>2026-08-28T17:50:34Z</time>
  <course>248.41</course>
  <speed>0.0</speed>
  <fix>3d</fix>
</trkpt>
<trkpt lat="40.0713749" lon="-105.229789">
  <ele>1583.0</ele>
  <time>2026-08-28T17:50:34Z</time>
  <course>0.0</course>
  <speed>0.0</speed>
  <fix>3d</fix>
</trkpt>
<trkpt lat="40.0713749" lon="-105.229789">
  <ele>1583.0</ele>
  <time>2026-08-28T17:50:34Z</time>
  <course>248.41</course>
  <speed>0.0</speed>
  <fix>3d</fix>
</trkpt>
<trkpt lat="40.0713749" lon="-105.229789">
  <ele>1583.0</ele>
  <time>2026-08-28T17:50:34Z</time>
  <course>0.0</course>
  <speed>0.0</speed>
  <fix>3d</fix>
</trkpt>
<trkpt lat="40.0713749" lon="-105.229789">
  <ele>1583.0</ele>
  <time>2026-08-28T17:50:34Z</time>
  <course>248.41</course>
  <speed>0.0</speed>
  <fix>3d</fix>
</trkpt>
<trkpt lat="40.0713749" lon="-105.229789">
  <ele>1583.0</ele>
  <time>2026-08-28T17:50:34Z</time>
  <course>0.0</course>
  <speed>0.0</speed>
  <fix>3d</fix>
</trkpt>
<trkpt lat="40.0713749" lon="-105.229789">
  <ele>1583.0</ele>
  <time>2026-08-28T17:50:34Z</time>
  <course>248.41</course>
  <speed>0.0</speed>
  <fix>3d</fix>
</trkpt>
<trkpt lat="40.0713749" lon="-105.229789">
  <ele>1583.0</ele>
  <time>2026-08-28T17:50:34Z</time>
  <course>0.0</course>
  <speed>0.0</speed>
  <fix>3d</fix>
</trkpt>
<trkpt lat="40.0713749" lon="-105.229789">
  <ele>1583.0</ele>
  <time>2026-08-28T17:50:34Z</time>
  <course>248.41</course>
  <speed>0.0</speed>
  <fix>3d</fix>
</trkpt>
<trkpt lat="40.0713749" lon="-105.229789">
  <ele>1583.0</ele>
  <time>2026-08-28T17:50:34Z</time>
  <course>0.0</course>
  <speed>0.0</speed>
  <fix>3d</fix>
</trkpt>
<trkpt lat="40.0713749" lon="-105.229789">
  <ele>1583.0</ele>
  <time>2026-08-28T17:50:34Z</time>
  <course>248.41</course>
  <speed>0.0</speed>
  <fix>3d</fix>
</trkpt>
<trkpt lat="40.0713749" lon="-105.229789">
  <ele>1583.0</ele>
  <time>2026-08-28T17:50:34Z</time>
  <course>0.0</course>
  <speed>0.0</speed>
  <fix>3d</fix>
</trkpt>
<trkpt lat="40.0713749" lon="-105.229789">
  <ele>1583.0</ele>
  <time>2026-08-28T17:50:34Z</time>
  <course>248.41</course>
  <speed>0.0</speed>
  <fix>3d</fix>
</trkpt>
<trkpt lat="40.0713749" lon="-105.229789">
  <ele>1583.0</ele>
  <time>2026-08-28T17:50:34Z</time>
  <course>0.0</course>
  <speed>0.0</speed>
  <fix>3d</fix>
</trkpt>
<trkpt lat="40.0713749" lon="-105.229789">
  <ele>1583.0</ele>
  <time>2026-08-28T17:50:34Z</time>
  <course>248.41</course>
  <speed>0.0</speed>
  <fix>3d</fix>
</trkpt>
<trkpt lat="40.0713749" lon="-105.229789">
  <ele>1583.0</ele>
  <time>2026-08-28T17:50:34Z</time>
  <course>0.0</course>
  <speed>0.0</speed>
  <fix>3d</fix>
</trkpt>
<trkpt lat="40.0713749" lon="-105.229789">
  <ele>1583.0</ele>
  <time>2026-08-28T17:50:34Z</time>
  <course>248.41</course>
  <speed>0.0</speed>
  <fix>3d</fix>
</trkpt>
<trkpt lat="40.0713749" lon="-105.229789">
  <ele>1583.0</ele>
  <time>2026-08-28T17:50:34Z</time>
  <course>0.0</course>
  <speed>0.0</speed>
  <fix>3d</fix>
</trkpt>
<trkpt lat="40.0713749" lon="-105.229789">
  <ele>1583.0</ele>
  <time>2026-08-28T17:50:34Z</time>
  <course>248.41</course>
  <speed>0.0</speed>
  <fix>3d</fix>
</trkpt>
<trkpt lat="40.0713749" lon="-105.229789">
  <ele>1583.0</ele>
  <time>2026-08-28T17:50:34Z</time>
  <course>0.0</course>
  <speed>0.0</speed>
  <fix>3d</fix>
</trkpt>
<trkpt lat="40.0713749" lon="-105.229789">
  <ele>1583.0</ele>
  <time>2026-08-28T17:50:34Z</time>
  <course>248.41</course>
  <speed>0.0</speed>
  <fix>3d</fix>
</trkpt>
<trkpt lat="40.0713749" lon="-105.229789">
  <ele>1583.0</ele>
  <time>2026-08-28T17:50:34Z</time>
  <course>0.0</course>
  <speed>0.0</speed>
  <fix>3d</fix>
</trkpt>
<trkpt lat="40.0713749" lon="-105.229789">
  <ele>1583.0</ele>
  <time>2026-08-28T17:50:34Z</time>
  <course>248.41</course>
  <speed>0.0</speed>
  <fix>3d</fix>
</trkpt>
<trkpt lat="40.0713749" lon="-105.229789">
  <ele>1583.0</ele>
  <time>2026-08-28T17:50:34Z</time>
  <course>0.0</course>
  <speed>0.0</speed>
  <fix>3d</fix>
</trkpt>
<trkpt lat="40.0713749" lon="-105.229789">
  <ele>1583.0</ele>
  <time>2026-08-28T17:50:34Z</time>
  <course>248.41</course>
  <speed>0.0</speed>
  <fix>3d</fix>
</trkpt>
<trkpt lat="40.0713749" lon="-105.229789">
  <ele>1583.0</ele>
  <time>2026-08-28T17:50:34Z</time>
  <course>0.0</course>
  <speed>0.0</speed>
  <fix>3d</fix>
</trkpt>
<trkpt lat="40.0713749" lon="-105.229789">
  <ele>1583.0</ele>
  <time>2026-08-28T17:50:34Z</time>
  <course>248.4</course>
  <speed>0.0</speed>
  <fix>3d</fix>
</trkpt>
<trkpt lat="40.0713749" lon="-105.229789">
  <ele>1583.0</ele>
  <time>2026-08-28T17:50:34Z</time>
  <course>0.0</course>
  <speed>0.0</speed>
  <fix>3d</fix>
</trkpt>
<trkpt lat="40.0713749" lon="-105.229789">
  <ele>1583.0</ele>
  <time>2026-08-28T17:50:34Z</time>
  <course>248.4</course>
  <speed>0.01</speed>
  <fix>3d</fix>
</trkpt>
<trkpt lat="40.0713749" lon="-105.229789">
  <ele>1583.0</ele>
  <time>2026-08-28T17:50:34Z</time>
  <course>0.0</course>
  <speed>0.0</speed>
  <fix>3d</fix>
</trkpt>
<trkpt lat="40.0713749" lon="-105.229789">
  <ele>1583.0</ele>
  <time>2026-08-28T17:50:34Z</time>
  <course>248.4</course>
  <speed>0.01</speed>
  <fix>3d</fix>
</trkpt>
<trkpt lat="40.0713749" lon="-105.229789">
  <ele>1583.0</ele>
  <time>2026-08-28T17:50:34Z</time>
  <course>0.0</course>
  <speed>0.0</speed>
  <fix>3d</fix>
</trkpt>
<trkpt lat="40.0713749" lon="-105.229789">
  <ele>1583.0</ele>
  <time>2026-08-28T17:50:34Z</time>
  <course>248.4</course>
  <speed>0.01</speed>
  <fix>3d</fix>
</trkpt>
<trkpt lat="40.0713749" lon="-105.229789">
  <ele>1583.0</ele>
  <time>2026-08-28T17:50:34Z</time>
  <course>0.0</course>
  <speed>0.0</speed>
  <fix>3d</fix>
</trkpt>
<trkpt lat="40.0713749" lon="-105.229789">
  <ele>1583.0</ele>
  <time>2026-08-28T17:50:34Z</time>
  <course>248.4</course>
  <speed>0.01</speed>
  <fix>3d</fix>
</trkpt>
<trkpt lat="40.0713749" lon="-105.229789">
  <ele>1583.0</ele>
  <time>2026-08-28T17:50:34Z</time>
  <course>0.0</course>
  <speed>0.0</speed>
  <fix>3d</fix>
</trkpt>
<trkpt lat="40.0713749" lon="-105.229789">
  <ele>1583.0</ele>
  <time>2026-08-28T17:50:34Z</time>
  <course>248.39</course>
  <speed>0.01</speed>
  <fix>3d</fix>
</trkpt>
<trkpt lat="40.0713749" lon="-105.229789">
  <ele>1583.0</ele>
  <time>2026-08-28T17:50:34Z</time>
  <course>0.0</course>
  <speed>0.0</speed>
  <fix>3d</fix>
</trkpt>
<trkpt lat="40.0713749" lon="-105.229789">
  <ele>1583.0</ele>
  <time>2026-08-28T17:50:34Z</time>
  <course>248.39</course>
  <speed>0.01</speed>
  <fix>3d</fix>
</trkpt>
<trkpt lat="40.0713749" lon="-105.229789">
  <ele>1583.0</ele>
  <time>2026-08-28T17:50:34Z</time>
  <course>0.0</course>
  <speed>0.0</speed>
  <fix>3d</fix>
</trkpt>
<trkpt lat="40.0713749" lon="-105.229789">
  <ele>1583.0</ele>
  <time>2026-08-28T17:50:34Z</time>
  <course>248.39</course>
  <speed>0.01</speed>
  <fix>3d</fix>
</trkpt>
<trkpt lat="40.0713749" lon="-105.229789">
  <ele>1583.0</ele>
  <time>2026-08-28T17:50:34Z</time>
  <course>0.0</course>
  <speed>0.0</speed>
  <fix>3d</fix>
</trkpt>
<trkpt lat="40.0713749" lon="-105.229789">
  <ele>1583.0</ele>
  <time>2026-08-28T17:50:34Z</time>
  <course>248.38</course>
  <speed>0.01</speed>
  <fix>3d</fix>
</trkpt>
<trkpt lat="40.0713749" lon="-105.229789">
  <ele>1583.0</ele>
  <time>2026-08-28T17:50:34Z</time>
  <course>0.0</course>
  <speed>0.0</speed>
  <fix>3d</fix>
</trkpt>
<trkpt lat="40.0713749" lon="-105.229789">
  <ele>1583.0</ele>
  <time>2026-08-28T17:50:34Z</time>
  <course>248.38</course>
  <speed>0.01</speed>
  <fix>3d</fix>
</trkpt>
<trkpt lat="40.0713749" lon="-105.229789">
  <ele>1583.0</ele>
  <time>2026-08-28T17:50:34Z</time>
  <course>0.0</course>
  <speed>0.0</speed>
  <fix>3d</fix>
</trkpt>
<trkpt lat="40.0713749" lon="-105.229789">
  <ele>1583.0</ele>
  <time>2026-08-28T17:50:34Z</time>
  <course>248.38</course>
  <speed>0.01</speed>
  <fix>3d</fix>
</trkpt>
<trkpt lat="40.0713749" lon="-105.229789">
  <ele>1583.0</ele>
  <time>2026-08-28T17:50:34Z</time>
  <course>0.0</course>
  <speed>0.0</speed>
  <fix>3d</fix>
</trkpt>
<trkpt lat="40.0713749" lon="-105.229789">
  <ele>1583.0</ele>
  <time>2026-08-28T17:50:34Z</time>
  <course>248.37</course>
  <speed>0.01</speed>
  <fix>3d</fix>
</trkpt>
<trkpt lat="40.0713749" lon="-105.229789">
  <ele>1583.0</ele>
  <time>2026-08-28T17:50:34Z</time>
  <course>0.0</course>
  <speed>0.0</speed>
  <fix>3d</fix>
</trkpt>
<trkpt lat="40.0713749" lon="-105.229789">
  <ele>1583.0</ele>
  <time>2026-08-28T17:50:34Z</time>
  <course>248.37</course>
  <speed>0.01</speed>
  <fix>3d</fix>
</trkpt>
<trkpt lat="40.0713749" lon="-105.229789">
  <ele>1583.0</ele>
  <time>2026-08-28T17:50:34Z</time>
  <course>0.0</course>
  <speed>0.0</speed>
  <fix>3d</fix>
</trkpt>
<trkpt lat="40.0713749" lon="-105.229789">
  <ele>1583.0</ele>
  <time>2026-08-28T17:50:34Z</time>
  <course>248.37</course>
  <speed>0.01</speed>
  <fix>3d</fix>
</trkpt>
<trkpt lat="40.0713749" lon="-105.229789">
  <ele>1583.0</ele>
  <time>2026-08-28T17:50:34Z</time>
  <course>0.0</course>
  <speed>0.0</speed>
  <fix>3d</fix>
</trkpt>
<trkpt lat="40.0713749" lon="-105.229789">
  <ele>1583.0</ele>
  <time>2026-08-28T17:50:34Z</time>
  <course>248.36</course>
  <speed>0.01</speed>
  <fix>3d</fix>
</trkpt>
<trkpt lat="40.0713749" lon="-105.229789">
  <ele>1583.0</ele>
  <time>2026-08-28T17:50:34Z</time>
  <course>0.0</course>
  <speed>0.0</speed>
  <fix>3d</fix>
</trkpt>
<trkpt lat="40.0713749" lon="-105.229789">
  <ele>1583.0</ele>
  <time>2026-08-28T17:50:34Z</time>
  <course>248.36</course>
  <speed>0.01</speed>
  <fix>3d</fix>
</trkpt>
<trkpt lat="40.0713749" lon="-105.229789">
  <ele>1583.0</ele>
  <time>2026-08-28T17:50:34Z</time>
  <course>0.0</course>
  <speed>0.0</speed>
  <fix>3d</fix>
</trkpt>
<trkpt lat="40.0713749" lon="-105.229789">
  <ele>1583.0</ele>
  <time>2026-08-28T17:50:34Z</time>
  <course>248.36</course>
  <speed>0.01</speed>
  <fix>3d</fix>
</trkpt>
<trkpt lat="40.0713749" lon="-105.229789">
  <ele>1583.0</ele>
  <time>2026-08-28T17:50:34Z</time>
  <course>0.0</course>
  <speed>0.0</speed>
  <fix>3d</fix>
</trkpt>
<trkpt lat="40.0713749" lon="-105.229789">
  <ele>1583.0</ele>
  <time>2026-08-28T17:50:34Z</time>
  <course>248.35</course>
  <speed>0.01</speed>
  <fix>3d</fix>
</trkpt>
<trkpt lat="40.0713749" lon="-105.229789">
  <ele>1583.0</ele>
  <time>2026-08-28T17:50:34Z</time>
  <course>0.0</course>
  <speed>0.0</speed>
  <fix>3d</fix>
</trkpt>
<trkpt lat="40.0713749" lon="-105.229789">
  <ele>1583.0</ele>
  <time>2026-08-28T17:50:34Z</time>
  <course>248.35</course>
  <speed>0.01</speed>
  <fix>3d</fix>
</trkpt>
<trkpt lat="40.0713749" lon="-105.229789">
  <ele>1583.0</ele>
  <time>2026-08-28T17:50:34Z</time>
  <course>0.0</course>
  <speed>0.0</speed>
  <fix>3d</fix>
</trkpt>
<trkpt lat="40.0713749" lon="-105.229789">
  <ele>1583.0</ele>
  <time>2026-08-28T17:50:34Z</time>
  <course>248.35</course>
  <speed>0.01</speed>
  <fix>3d</fix>
</trkpt>
<trkpt lat="40.0713749" lon="-105.229789">
  <ele>1583.0</ele>
  <time>2026-08-28T17:50:34Z</time>
  <course>0.0</course>
  <speed>0.0</speed>
  <fix>3d</fix>
</trkpt>
<trkpt lat="40.0713749" lon="-105.229789">
  <ele>1583.0</ele>
  <time>2026-08-28T17:50:34Z</time>
  <course>248.34</course>
  <speed>0.01</speed>
  <fix>3d</fix>
</trkpt>
<trkpt lat="40.0713749" lon="-105.229789">
  <ele>1583.0</ele>
  <time>2026-08-28T17:50:34Z</time>
  <course>0.0</course>
  <speed>0.0</speed>
  <fix>3d</fix>
</trkpt>
<trkpt lat="40.0713749" lon="-105.229789">
  <ele>1583.0</ele>
  <time>2026-08-28T17:50:34Z</time>
  <course>248.34</course>
  <speed>0.01</speed>
  <fix>3d</fix>
</trkpt>
<trkpt lat="40.0713749" lon="-105.229789">
  <ele>1583.0</ele>
  <time>2026-08-28T17:50:34Z</time>
  <course>0.0</course>
  <speed>0.0</speed>
  <fix>3d</fix>
</trkpt>
<trkpt lat="40.0713749" lon="-105.229789">
  <ele>1583.0</ele>
  <time>2026-08-28T17:50:34Z</time>
  <course>248.33</course>
  <speed>0.01</speed>
  <fix>3d</fix>
</trkpt>
<trkpt lat="40.0713749" lon="-105.229789">
  <ele>1583.0</ele>
  <time>2026-08-28T17:50:34Z</time>
  <course>0.0</course>
  <speed>0.0</speed>
  <fix>3d</fix>
</trkpt>
<trkpt lat="40.0713749" lon="-105.229789">
  <ele>1583.0</ele>
  <time>2026-08-28T17:50:34Z</time>
  <course>248.33</course>
  <speed>0.01</speed>
  <fix>3d</fix>
</trkpt>
<trkpt lat="40.0713749" lon="-105.229789">
  <ele>1583.0</ele>
  <time>2026-08-28T17:50:34Z</time>
  <course>0.0</course>
  <speed>0.0</speed>
  <fix>3d</fix>
</trkpt>
<trkpt lat="40.0713749" lon="-105.229789">
  <ele>1583.0</ele>
  <time>2026-08-28T17:50:34Z</time>
  <course>248.32</course>
  <speed>0.01</speed>
  <fix>3d</fix>
</trkpt>
<trkpt lat="40.0713749" lon="-105.229789">
  <ele>1583.0</ele>
  <time>2026-08-28T17:50:34Z</time>
  <course>0.0</course>
  <speed>0.0</speed>
  <fix>3d</fix>
</trkpt>
<trkpt lat="40.0713749" lon="-105.229789">
  <ele>1583.0</ele>
  <time>2026-08-28T17:50:34Z</time>
  <course>248.32</course>
  <speed>0.01</speed>
  <fix>3d</fix>
</trkpt>
<trkpt lat="40.0713749" lon="-105.229789">
  <ele>1583.0</ele>
  <time>2026-08-28T17:50:34Z</time>
  <course>0.0</course>
  <speed>0.0</speed>
  <fix>3d</fix>
</trkpt>
<trkpt lat="40.0713749" lon="-105.229789">
  <ele>1583.0</ele>
  <time>2026-08-28T17:50:34Z</time>
  <course>248.32</course>
  <speed>0.01</speed>
  <fix>3d</fix>
</trkpt>
<trkpt lat="40.0713749" lon="-105.229789">
  <ele>1583.0</ele>
  <time>2026-08-28T17:50:34Z</time>
  <course>0.0</course>
  <speed>0.0</speed>
  <fix>3d</fix>
</trkpt>
<trkpt lat="40.0713749" lon="-105.229789">
  <ele>1583.0</ele>
  <time>2026-08-28T17:50:34Z</time>
  <course>248.31</course>
  <speed>0.01</speed>
  <fix>3d</fix>
</trkpt>
<trkpt lat="40.0713749" lon="-105.229789">
  <ele>1583.0</ele>
  <time>2026-08-28T17:50:34Z</time>
  <course>0.0</course>
  <speed>0.0</speed>
  <fix>3d</fix>
</trkpt>
<trkpt lat="40.0713749" lon="-105.229789">
  <ele>1583.0</ele>
  <time>2026-08-28T17:50:34Z</time>
  <course>248.31</course>
  <speed>0.01</speed>
  <fix>3d</fix>
</trkpt>
<trkpt lat="40.0713749" lon="-105.229789">
  <ele>1583.0</ele>
  <time>2026-08-28T17:50:34Z</time>
  <course>0.0</course>
  <speed>0.0</speed>
  <fix>3d</fix>
</trkpt>
<trkpt lat="40.0713749" lon="-105.229789">
  <ele>1583.0</ele>
  <time>2026-08-28T17:50:34Z</time>
  <course>248.3</course>
  <speed>0.01</speed>
  <fix>3d</fix>
</trkpt>
<trkpt lat="40.0713749" lon="-105.229789">
  <ele>1583.0</ele>
  <time>2026-08-28T17:50:34Z</time>
  <course>0.0</course>
  <speed>0.0</speed>
  <fix>3d</fix>
</trkpt>
<trkpt lat="40.0713749" lon="-105.229789">
  <ele>1583.0</ele>
  <time>2026-08-28T17:50:34Z</time>
  <course>248.3</course>
  <speed>0.01</speed>
  <fix>3d</fix>
</trkpt>
<trkpt lat="40.0713749" lon="-105.229789">
  <ele>1583.0</ele>
  <time>2026-08-28T17:50:34Z</time>
  <course>0.0</course>
  <speed>0.0</speed>
  <fix>3d</fix>
</trkpt>
<trkpt lat="40.0713749" lon="-105.229789">
  <ele>1583.0</ele>
  <time>2026-08-28T17:50:34Z</time>
  <course>248.29</course>
  <speed>0.01</speed>
  <fix>3d</fix>
</trkpt>
<trkpt lat="40.0713749" lon="-105.229789">
  <ele>1583.0</ele>
  <time>2026-08-28T17:50:34Z</time>
  <course>0.0</course>
  <speed>0.0</speed>
  <fix>3d</fix>
</trkpt>
<trkpt lat="40.0713749" lon="-105.229789">
  <ele>1583.0</ele>
  <time>2026-08-28T17:50:34Z</time>
  <course>248.29</course>
  <speed>0.01</speed>
  <fix>3d</fix>
</trkpt>
<trkpt lat="40.0713749" lon="-105.229789">
  <ele>1583.0</ele>
  <time>2026-08-28T17:50:34Z</time>
  <course>0.0</course>
  <speed>0.0</speed>
  <fix>3d</fix>
</trkpt>
<trkpt lat="40.0713749" lon="-105.229789">
  <ele>1583.0</ele>
  <time>2026-08-28T17:50:34Z</time>
  <course>248.28</course>
  <speed>0.01</speed>
  <fix>3d</fix>
</trkpt>
<trkpt lat="40.0713749" lon="-105.229789">
  <ele>1583.0</ele>
  <time>2026-08-28T17:50:34Z</time>
  <course>0.0</course>
  <speed>0.0</speed>
  <fix>3d</fix>
</trkpt>
<trkpt lat="40.0713749" lon="-105.229789">
  <ele>1583.0</ele>
  <time>2026-08-28T17:50:34Z</time>
  <course>248.28</course>
  <speed>0.01</speed>
  <fix>3d</fix>
</trkpt>
<trkpt lat="40.0713749" lon="-105.229789">
  <ele>1583.0</ele>
  <time>2026-08-28T17:50:34Z</time>
  <course>0.0</course>
  <speed>0.0</speed>
  <fix>3d</fix>
</trkpt>
<trkpt lat="40.0713749" lon="-105.229789">
  <ele>1583.0</ele>
  <time>2026-08-28T17:50:34Z</time>
  <course>248.27</course>
  <speed>0.01</speed>
  <fix>3d</fix>
</trkpt>
<trkpt lat="40.0713749" lon="-105.229789">
  <ele>1583.0</ele>
  <time>2026-08-28T17:50:34Z</time>
  <course>0.0</course>
  <speed>0.0</speed>
  <fix>3d</fix>
</trkpt>
<trkpt lat="40.0713749" lon="-105.229789">
  <ele>1583.0</ele>
  <time>2026-08-28T17:50:34Z</time>
  <course>248.27</course>
  <speed>0.01</speed>
  <fix>3d</fix>
</trkpt>
<trkpt lat="40.0713749" lon="-105.229789">
  <ele>1583.0</ele>
  <time>2026-08-28T17:50:34Z</time>
  <course>0.0</course>
  <speed>0.0</speed>
  <fix>3d</fix>
</trkpt>
<trkpt lat="40.0713749" lon="-105.229789">
  <ele>1583.0</ele>
  <time>2026-08-28T17:50:34Z</time>
  <course>248.26</course>
  <speed>0.01</speed>
  <fix>3d</fix>
</trkpt>
<trkpt lat="40.0713749" lon="-105.229789">
  <ele>1583.0</ele>
  <time>2026-08-28T17:50:34Z</time>
  <course>0.0</course>
  <speed>0.0</speed>
  <fix>3d</fix>
</trkpt>
<trkpt lat="40.0713749" lon="-105.229789">
  <ele>1583.0</ele>
  <time>2026-08-28T17:50:34Z</time>
  <course>248.26</course>
  <speed>0.01</speed>
  <fix>3d</fix>
</trkpt>
<trkpt lat="40.0713749" lon="-105.229789">
  <ele>1583.0</ele>
  <time>2026-08-28T17:50:34Z</time>
  <course>0.0</course>
  <speed>0.0</speed>
  <fix>3d</fix>
</trkpt>
<trkpt lat="40.0713749" lon="-105.229789">
  <ele>1583.0</ele>
  <time>2026-08-28T17:50:34Z</time>
  <course>248.26</course>
  <speed>0.01</speed>
  <fix>3d</fix>
</trkpt>
<trkpt lat="40.0713749" lon="-105.229789">
  <ele>1583.0</ele>
  <time>2026-08-28T17:50:34Z</time>
  <course>0.0</course>
  <speed>0.0</speed>
  <fix>3d</fix>
</trkpt>
<trkpt lat="40.0713749" lon="-105.229789">
  <ele>1583.0</ele>
  <time>2026-08-28T17:50:34Z</time>
  <course>248.25</course>
  <speed>0.01</speed>
  <fix>3d</fix>
</trkpt>
<trkpt lat="40.0713749" lon="-105.229789">
  <ele>1583.0</ele>
  <time>2026-08-28T17:50:34Z</time>
  <course>0.0</course>
  <speed>0.0</speed>
  <fix>3d</fix>
</trkpt>
<trkpt lat="40.0713749" lon="-105.229789">
  <ele>1583.0</ele>
  <time>2026-08-28T17:50:34Z</time>
  <course>248.25</course>
  <speed>0.01</speed>
  <fix>3d</fix>
</trkpt>
<trkpt lat="40.0713749" lon="-105.229789">
  <ele>1583.0</ele>
  <time>2026-08-28T17:50:34Z</time>
  <course>0.0</course>
  <speed>0.0</speed>
  <fix>3d</fix>
</trkpt>
<trkpt lat="40.0713749" lon="-105.229789">
  <ele>1583.0</ele>
  <time>2026-08-28T17:50:34Z</time>
  <course>248.24</course>
  <speed>0.01</speed>
  <fix>3d</fix>
</trkpt>
<trkpt lat="40.0713749" lon="-105.229789">
  <ele>1583.0</ele>
  <time>2026-08-28T17:50:34Z</time>
  <course>0.0</course>
  <speed>0.0</speed>
  <fix>3d</fix>
</trkpt>
<trkpt lat="40.0713749" lon="-105.229789">
  <ele>1583.0</ele>
  <time>2026-08-28T17:50:34Z</time>
  <course>248.24</course>
  <speed>0.01</speed>
  <fix>3d</fix>
</trkpt>
<trkpt lat="40.0713749" lon="-105.229789">
  <ele>1583.0</ele>
  <time>2026-08-28T17:50:34Z</time>
  <course>0.0</course>
  <speed>0.0</speed>
  <fix>3d</fix>
</trkpt>
<trkpt lat="40.0713749" lon="-105.229789">
  <ele>1583.0</ele>
  <time>2026-08-28T17:50:34Z</time>
  <course>248.23</course>
  <speed>0.01</speed>
  <fix>3d</fix>
</trkpt>
<trkpt lat="40.0713749" lon="-105.229789">
  <ele>1583.0</ele>
  <time>2026-08-28T17:50:34Z</time>
  <course>0.0</course>
  <speed>0.0</speed>
  <fix>3d</fix>
</trkpt>
<trkpt lat="40.0713749" lon="-105.229789">
  <ele>1583.0</ele>
  <time>2026-08-28T17:50:34Z</time>
  <course>248.23</course>
  <speed>0.01</speed>
  <fix>3d</fix>
</trkpt>
<trkpt lat="40.0713749" lon="-105.229789">
  <ele>1583.0</ele>
  <time>2026-08-28T17:50:34Z</time>
  <course>0.0</course>
  <speed>0.0</speed>
  <fix>3d</fix>
</trkpt>
<trkpt lat="40.0713749" lon="-105.229789">
  <ele>1583.0</ele>
  <time>2026-08-28T17:50:34Z</time>
  <course>248.22</course>
  <speed>0.01</speed>
  <fix>3d</fix>
</trkpt>
<trkpt lat="40.0713749" lon="-105.229789">
  <ele>1583.0</ele>
  <time>2026-08-28T17:50:34Z</time>
  <course>0.0</course>
  <speed>0.0</speed>
  <fix>3d</fix>
</trkpt>
<trkpt lat="40.0713749" lon="-105.229789">
  <ele>1583.0</ele>
  <time>2026-08-28T17:50:34Z</time>
  <course>248.22</course>
  <speed>0.01</speed>
  <fix>3d</fix>
</trkpt>
<trkpt lat="40.0713749" lon="-105.229789">
  <ele>1583.0</ele>
  <time>2026-08-28T17:50:34Z</time>
  <course>0.0</course>
  <speed>0.0</speed>
  <fix>3d</fix>
</trkpt>
<trkpt lat="40.0713749" lon="-105.229789">
  <ele>1583.0</ele>
  <time>2026-08-28T17:50:34Z</time>
  <course>248.21</course>
  <speed>0.01</speed>
  <fix>3d</fix>
</trkpt>
<trkpt lat="40.0713749" lon="-105.229789">
  <ele>1583.0</ele>
  <time>2026-08-28T17:50:34Z</time>
  <course>0.0</course>
  <speed>0.0</speed>
  <fix>3d</fix>
</trkpt>
<trkpt lat="40.0713749" lon="-105.229789">
  <ele>1583.0</ele>
  <time>2026-08-28T17:50:34Z</time>
  <course>248.21</course>
  <speed>0.01</speed>
  <fix>3d</fix>
</trkpt>
<trkpt lat="40.0713749" lon="-105.229789">
  <ele>1583.0</ele>
  <time>2026-08-28T17:50:34Z</time>
  <course>0.0</course>
  <speed>0.0</speed>
  <fix>3d</fix>
</trkpt>
<trkpt lat="40.0713749" lon="-105.229789">
  <ele>1583.0</ele>
  <time>2026-08-28T17:50:34Z</time>
  <course>248.2</course>
  <speed>0.01</speed>
  <fix>3d</fix>
</trkpt>
<trkpt lat="40.0713749" lon="-105.229789">
  <ele>1583.0</ele>
  <time>2026-08-28T17:50:34Z</time>
  <course>0.0</course>
  <speed>0.0</speed>
  <fix>3d</fix>
</trkpt>
<trkpt lat="40.0713749" lon="-105.229789">
  <ele>1583.0</ele>
  <time>2026-08-28T17:50:34Z</time>
  <course>248.2</course>
  <speed>0.01</speed>
  <fix>3d</fix>
</trkpt>
<trkpt lat="40.0713749" lon="-105.229789">
  <ele>1583.0</ele>
  <time>2026-08-28T17:50:34Z</time>
  <course>0.0</course>
  <speed>0.0</speed>
  <fix>3d</fix>
</trkpt>
<trkpt lat="40.0713749" lon="-105.229789">
  <ele>1583.0</ele>
  <time>2026-08-28T17:50:34Z</time>
  <course>248.19</course>
  <speed>0.01</speed>
  <fix>3d</fix>
</trkpt>
<trkpt lat="40.0713749" lon="-105.229789">
  <ele>1583.0</ele>
  <time>2026-08-28T17:50:34Z</time>
  <course>0.0</course>
  <speed>0.0</speed>
  <fix>3d</fix>
</trkpt>
<trkpt lat="40.0713749" lon="-105.229789">
  <ele>1583.0</ele>
  <time>2026-08-28T17:50:34Z</time>
  <course>248.19</course>
  <speed>0.01</speed>
  <fix>3d</fix>
</trkpt>
<trkpt lat="40.0713749" lon="-105.229789">
  <ele>1583.0</ele>
  <time>2026-08-28T17:50:34Z</time>
  <course>0.0</course>
  <speed>0.0</speed>
  <fix>3d</fix>
</trkpt>
<trkpt lat="40.0713749" lon="-105.229789">
  <ele>1583.0</ele>
  <time>2026-08-28T17:50:34Z</time>
  <course>248.18</course>
  <speed>0.01</speed>
  <fix>3d</fix>
</trkpt>
<trkpt lat="40.0713749" lon="-105.229789">
  <ele>1583.0</ele>
  <time>2026-08-28T17:50:34Z</time>
  <course>0.0</course>
  <speed>0.0</speed>
  <fix>3d</fix>
</trkpt>
<trkpt lat="40.0713749" lon="-105.229789">
  <ele>1583.0</ele>
  <time>2026-08-28T17:50:34Z</time>
  <course>248.18</course>
  <speed>0.01</speed>
  <fix>3d</fix>
</trkpt>
<trkpt lat="40.0713749" lon="-105.229789">
  <ele>1583.0</ele>
  <time>2026-08-28T17:50:34Z</time>
  <course>0.0</course>
  <speed>0.0</speed>
  <fix>3d</fix>
</trkpt>
<trkpt lat="40.0713749" lon="-105.229789">
  <ele>1583.0</ele>
  <time>2026-08-28T17:50:34Z</time>
  <course>248.17</course>
  <speed>0.022360679774997897</speed>
  <fix>3d</fix>
</trkpt>
<trkpt lat="40.0713749" lon="-105.229789">
  <ele>1583.0</ele>
  <time>2026-08-28T17:50:34Z</time>
  <course>0.0</course>
  <speed>0.0</speed>
  <fix>3d</fix>
</trkpt>
<trkpt lat="40.0713749" lon="-105.229789">
  <ele>1583.0</ele>
  <time>2026-08-28T17:50:34Z</time>
  <course>248.17</course>
  <speed>0.022360679774997897</speed>
  <fix>3d</fix>
</trkpt>
<trkpt lat="40.0713749" lon="-105.229789">
  <ele>1583.0</ele>
  <time>2026-08-28T17:50:34Z</time>
  <course>0.0</course>
  <speed>0.0</speed>
  <fix>3d</fix>
</trkpt>
<trkpt lat="40.0713749" lon="-105.229789">
  <ele>1583.0</ele>
  <time>2026-08-28T17:50:34Z</time>
  <course>248.16</course>
  <speed>0.022360679774997897</speed>
  <fix>3d</fix>
</trkpt>
<trkpt lat="40.0713749" lon="-105.229789">
  <ele>1583.0</ele>
  <time>2026-08-28T17:50:34Z</time>
  <course>0.0</course>
  <speed>0.0</speed>
  <fix>3d</fix>
</trkpt>
<trkpt lat="40.0713749" lon="-105.229789">
  <ele>1583.0</ele>
  <time>2026-08-28T17:50:34Z</time>
  <course>248.16</course>
  <speed>0.022360679774997897</speed>
  <fix>3d</fix>
</trkpt>
<trkpt lat="40.0713749" lon="-105.229789">
  <ele>1583.0</ele>
  <time>2026-08-28T17:50:34Z</time>
  <course>0.0</course>
  <speed>0.0</speed>
  <fix>3d</fix>
</trkpt>
<trkpt lat="40.0713749" lon="-105.229789">
  <ele>1583.0</ele>
  <time>2026-08-28T17:50:34Z</time>
  <course>248.15</course>
  <speed>0.022360679774997897</speed>
  <fix>3d</fix>
</trkpt>
<trkpt lat="40.0713749" lon="-105.229789">
  <ele>1583.0</ele>
  <time>2026-08-28T17:50:34Z</time>
  <course>0.0</course>
  <speed>0.0</speed>
  <fix>3d</fix>
</trkpt>
<trkpt lat="40.0713749" lon="-105.229789">
  <ele>1583.0</ele>
  <time>2026-08-28T17:50:34Z</time>
  <course>248.15</course>
  <speed>0.022360679774997897</speed>
  <fix>3d</fix>
</trkpt>
<trkpt lat="40.0713749" lon="-105.229789">
  <ele>1583.0</ele>
  <time>2026-08-28T17:50:34Z</time>
  <course>0.0</course>
  <speed>0.0</speed>
  <fix>3d</fix>
</trkpt>
<trkpt lat="40.0713749" lon="-105.229789">
  <ele>1583.0</ele>
  <time>2026-08-28T17:50:34Z</time>
  <course>248.14</course>
  <speed>0.022360679774997897</speed>
  <fix>3d</fix>
</trkpt>
<trkpt lat="40.0713749" lon="-105.229789">
  <ele>1583.0</ele>
  <time>2026-08-28T17:50:34Z</time>
  <course>0.0</course>
  <speed>0.0</speed>
  <fix>3d</fix>
</trkpt>
<trkpt lat="40.0713749" lon="-105.229789">
  <ele>1583.0</ele>
  <time>2026-08-28T17:50:34Z</time>
  <course>248.14</course>
  <speed>0.022360679774997897</speed>
  <fix>3d</fix>
</trkpt>
<trkpt lat="40.0713749" lon="-105.229789">
  <ele>1583.0</ele>
  <time>2026-08-28T17:50:34Z</time>
  <course>0.0</course>
  <speed>0.0</speed>
  <fix>3d</fix>
</trkpt>
<trkpt lat="40.0713749" lon="-105.229789">
  <ele>1583.0</ele>
  <time>2026-08-28T17:50:34Z</time>
  <course>248.13</course>
  <speed>0.022360679774997897</speed>
  <fix>3d</fix>
</trkpt>
<trkpt lat="40.0713749" lon="-105.229789">
  <ele>1583.0</ele>
  <time>2026-08-28T17:50:34Z</time>
  <course>0.0</course>
  <speed>0.0</speed>
  <fix>3d</fix>
</trkpt>
<trkpt lat="40.0713749" lon="-105.229789">
  <ele>1583.0</ele>
  <time>2026-08-28T17:50:34Z</time>
  <course>248.13</course>
  <speed>0.022360679774997897</speed>
  <fix>3d</fix>
</trkpt>
<trkpt lat="40.0713749" lon="-105.229789">
  <ele>1583.0</ele>
  <time>2026-08-28T17:50:34Z</time>
  <course>0.0</course>
  <speed>0.0</speed>
  <fix>3d</fix>
</trkpt>
<trkpt lat="40.0713749" lon="-105.229789">
  <ele>1583.0</ele>
  <time>2026-08-28T17:50:34Z</time>
  <course>248.12</course>
  <speed>0.022360679774997897</speed>
  <fix>3d</fix>
</trkpt>
<trkpt lat="40.0713749" lon="-105.229789">
  <ele>1583.0</ele>
  <time>2026-08-28T17:50:34Z</time>
  <course>0.0</course>
  <speed>0.0</speed>
  <fix>3d</fix>
</trkpt>
<trkpt lat="40.0713749" lon="-105.229789">
  <ele>1583.0</ele>
  <time>2026-08-28T17:50:34Z</time>
  <course>248.12</course>
  <speed>0.022360679774997897</speed>
  <fix>3d</fix>
</trkpt>
<trkpt lat="40.0713749" lon="-105.229789">
  <ele>1583.0</ele>
  <time>2026-08-28T17:50:34Z</time>
  <course>0.0</course>
  <speed>0.0</speed>
  <fix>3d</fix>
</trkpt>
<trkpt lat="40.0713749" lon="-105.229789">
  <ele>1583.0</ele>
  <time>2026-08-28T17:50:34Z</time>
  <course>248.11</course>
  <speed>0.022360679774997897</speed>
  <fix>3d</fix>
</trkpt>
<trkpt lat="40.0713749" lon="-105.229789">
  <ele>1583.0</ele>
  <time>2026-08-28T17:50:34Z</time>
  <course>0.0</course>
  <speed>0.0</speed>
  <fix>3d</fix>
</trkpt>
<trkpt lat="40.0713749" lon="-105.229789">
  <ele>1583.0</ele>
  <time>2026-08-28T17:50:34Z</time>
  <course>248.11</course>
  <speed>0.022360679774997897</speed>
  <fix>3d</fix>
</trkpt>
<trkpt lat="40.0713749" lon="-105.229789">
  <ele>1583.0</ele>
  <time>2026-08-28T17:50:34Z</time>
  <course>0.0</course>
  <speed>0.0</speed>
  <fix>3d</fix>
</trkpt>
<trkpt lat="40.0713749" lon="-105.229789">
  <ele>1583.0</ele>
  <time>2026-08-28T17:50:34Z</time>
  <course>248.1</course>
  <speed>0.022360679774997897</speed>
  <fix>3d</fix>
</trkpt>
<trkpt lat="40.0713749" lon="-105.229789">
  <ele>1583.0</ele>
  <time>2026-08-28T17:50:34Z</time>
  <course>0.0</course>
  <speed>0.0</speed>
  <fix>3d</fix>
</trkpt>
<trkpt lat="40.0713749" lon="-105.229789">
  <ele>1583.0</ele>
  <time>2026-08-28T17:50:34Z</time>
  <course>248.1</course>
  <speed>0.022360679774997897</speed>
  <fix>3d</fix>
</trkpt>
<trkpt lat="40.0713749" lon="-105.229789">
  <ele>1583.0</ele>
  <time>2026-08-28T17:50:34Z</time>
  <course>0.0</course>
  <speed>0.0</speed>
  <fix>3d</fix>
</trkpt>
<trkpt lat="40.0713749" lon="-105.229789">
  <ele>1583.0</ele>
  <time>2026-08-28T17:50:34Z</time>
  <course>248.09</course>
  <speed>0.022360679774997897</speed>
  <fix>3d</fix>
</trkpt>
<trkpt lat="40.0713749" lon="-105.229789">
  <ele>1583.0</ele>
  <time>2026-08-28T17:50:34Z</time>
  <course>0.0</course>
  <speed>0.0</speed>
  <fix>3d</fix>
</trkpt>
<trkpt lat="40.0713749" lon="-105.229789">
  <ele>1583.0</ele>
  <time>2026-08-28T17:50:34Z</time>
  <course>248.09</course>
  <speed>0.022360679774997897</speed>
  <fix>3d</fix>
</trkpt>
<trkpt lat="40.0713749" lon="-105.229789">
  <ele>1583.0</ele>
  <time>2026-08-28T17:50:34Z</time>
  <course>0.0</course>
  <speed>0.0</speed>
  <fix>3d</fix>
</trkpt>
<trkpt lat="40.0713749" lon="-105.229789">
  <ele>1583.0</ele>
  <time>2026-08-28T17:50:34Z</time>
  <course>248.08</course>
  <speed>0.022360679774997897</speed>
  <fix>3d</fix>
</trkpt>
<trkpt lat="40.0713749" lon="-105.229789">
  <ele>1583.0</ele>
  <time>2026-08-28T17:50:34Z</time>
  <course>0.0</course>
  <speed>0.0</speed>
  <fix>3d</fix>
</trkpt>
<trkpt lat="40.0713749" lon="-105.229789">
  <ele>1583.0</ele>
  <time>2026-08-28T17:50:34Z</time>
  <course>248.08</course>
  <speed>0.022360679774997897</speed>
  <fix>3d</fix>
</trkpt>
<trkpt lat="40.0713749" lon="-105.229789">
  <ele>1583.0</ele>
  <time>2026-08-28T17:50:34Z</time>
  <course>0.0</course>
  <speed>0.0</speed>
  <fix>3d</fix>
</trkpt>
<trkpt lat="40.0713749" lon="-105.229789">
  <ele>1583.0</ele>
  <time>2026-08-28T17:50:34Z</time>
  <course>248.07</course>
  <speed>0.022360679774997897</speed>
  <fix>3d</fix>
</trkpt>
<trkpt lat="40.0713749" lon="-105.229789">
  <ele>1583.0</ele>
  <time>2026-08-28T17:50:34Z</time>
  <course>0.0</course>
  <speed>0.0</speed>
  <fix>3d</fix>
</trkpt>
<trkpt lat="40.0713749" lon="-105.229789">
  <ele>1583.0</ele>
  <time>2026-08-28T17:50:34Z</time>
  <course>248.07</course>
  <speed>0.022360679774997897</speed>
  <fix>3d</fix>
</trkpt>
<trkpt lat="40.0713749" lon="-105.229789">
  <ele>1583.0</ele>
  <time>2026-08-28T17:50:34Z</time>
  <course>0.0</course>
  <speed>0.0</speed>
  <fix>3d</fix>
</trkpt>
<trkpt lat="40.0713749" lon="-105.229789">
  <ele>1583.0</ele>
  <time>2026-08-28T17:50:34Z</time>
  <course>248.06</course>
  <speed>0.022360679774997897</speed>
  <fix>3d</fix>
</trkpt>
<trkpt lat="40.0713749" lon="-105.229789">
  <ele>1583.0</ele>
  <time>2026-08-28T17:50:34Z</time>
  <course>0.0</course>
  <speed>0.0</speed>
  <fix>3d</fix>
</trkpt>
<trkpt lat="40.0713749" lon="-105.229789">
  <ele>1583.0</ele>
  <time>2026-08-28T17:50:34Z</time>
  <course>248.06</course>
  <speed>0.022360679774997897</speed>
  <fix>3d</fix>
</trkpt>
<trkpt lat="40.0713749" lon="-105.229789">
  <ele>1583.0</ele>
  <time>2026-08-28T17:50:34Z</time>
  <course>0.0</course>
  <speed>0.0</speed>
  <fix>3d</fix>
</trkpt>
<trkpt lat="40.0713749" lon="-105.229789">
  <ele>1583.0</ele>
  <time>2026-08-28T17:50:34Z</time>
  <course>248.05</course>
  <speed>0.022360679774997897</speed>
  <fix>3d</fix>
</trkpt>
<trkpt lat="40.0713749" lon="-105.229789">
  <ele>1583.0</ele>
  <time>2026-08-28T17:50:34Z</time>
  <course>0.0</course>
  <speed>0.0</speed>
  <fix>3d</fix>
</trkpt>
<trkpt lat="40.0713749" lon="-105.229789">
  <ele>1583.0</ele>
  <time>2026-08-28T17:50:34Z</time>
  <course>248.05</course>
  <speed>0.022360679774997897</speed>
  <fix>3d</fix>
</trkpt>
<trkpt lat="40.0713749" lon="-105.229789">
  <ele>1583.0</ele>
  <time>2026-08-28T17:50:34Z</time>
  <course>0.0</course>
  <speed>0.0</speed>
  <fix>3d</fix>
</trkpt>
<trkpt lat="40.0713749" lon="-105.229789">
  <ele>1583.0</ele>
  <time>2026-08-28T17:50:34Z</time>
  <course>248.05</course>
  <speed>0.022360679774997897</speed>
  <fix>3d</fix>
</trkpt>
<trkpt lat="40.0713749" lon="-105.229789">
  <ele>1583.0</ele>
  <time>2026-08-28T17:50:34Z</time>
  <course>0.0</course>
  <speed>0.0</speed>
  <fix>3d</fix>
</trkpt>
<trkpt lat="40.0713749" lon="-105.229789">
  <ele>1583.0</ele>
  <time>2026-08-28T17:50:34Z</time>
  <course>248.04</course>
  <speed>0.022360679774997897</speed>
  <fix>3d</fix>
</trkpt>
<trkpt lat="40.0713749" lon="-105.229789">
  <ele>1583.0</ele>
  <time>2026-08-28T17:50:34Z</time>
  <course>0.0</course>
  <speed>0.0</speed>
  <fix>3d</fix>
</trkpt>
<trkpt lat="40.0713749" lon="-105.229789">
  <ele>1583.0</ele>
  <time>2026-08-28T17:50:34Z</time>
  <course>248.04</course>
  <speed>0.022360679774997897</speed>
  <fix>3d</fix>
</trkpt>
<trkpt lat="40.0713749" lon="-105.229789">
  <ele>1583.0</ele>
  <time>2026-08-28T17:50:34Z</time>
  <course>0.0</course>
  <speed>0.0</speed>
  <fix>3d</fix>
</trkpt>
<trkpt lat="40.0713749" lon="-105.229789">
  <ele>1583.0</ele>
  <time>2026-08-28T17:50:34Z</time>
  <course>248.03</course>
  <speed>0.022360679774997897</speed>
  <fix>3d</fix>
</trkpt>
<trkpt lat="40.0713749" lon="-105.229789">
  <ele>1583.0</ele>
  <time>2026-08-28T17:50:34Z</time>
  <course>0.0</course>
  <speed>0.0</speed>
  <fix>3d</fix>
</trkpt>
<trkpt lat="40.0713749" lon="-105.229789">
  <ele>1583.0</ele>
  <time>2026-08-28T17:50:34Z</time>
  <course>248.03</course>
  <speed>0.022360679774997897</speed>
  <fix>3d</fix>
</trkpt>
<trkpt lat="40.0713749" lon="-105.229789">
  <ele>1583.0</ele>
  <time>2026-08-28T17:50:34Z</time>
  <course>0.0</course>
  <speed>0.0</speed>
  <fix>3d</fix>
</trkpt>
<trkpt lat="40.0713749" lon="-105.229789">
  <ele>1583.0</ele>
  <time>2026-08-28T17:50:34Z</time>
  <course>248.02</course>
  <speed>0.022360679774997897</speed>
  <fix>3d</fix>
</trkpt>
<trkpt lat="40.0713749" lon="-105.229789">
  <ele>1583.0</ele>
  <time>2026-08-28T17:50:34Z</time>
  <course>0.0</course>
  <speed>0.0</speed>
  <fix>3d</fix>
</trkpt>
<trkpt lat="40.0713749" lon="-105.229789">
  <ele>1583.0</ele>
  <time>2026-08-28T17:50:34Z</time>
  <course>248.02</course>
  <speed>0.022360679774997897</speed>
  <fix>3d</fix>
</trkpt>
<trkpt lat="40.0713749" lon="-105.229789">
  <ele>1583.0</ele>
  <time>2026-08-28T17:50:34Z</time>
  <course>0.0</course>
  <speed>0.0</speed>
  <fix>3d</fix>
</trkpt>
<trkpt lat="40.0713749" lon="-105.229789">
  <ele>1583.0</ele>
  <time>2026-08-28T17:50:34Z</time>
  <course>248.01</course>
  <speed>0.022360679774997897</speed>
  <fix>3d</fix>
</trkpt>
<trkpt lat="40.0713749" lon="-105.229789">
  <ele>1583.0</ele>
  <time>2026-08-28T17:50:34Z</time>
  <course>0.0</course>
  <speed>0.0</speed>
  <fix>3d</fix>
</trkpt>
<trkpt lat="40.0713749" lon="-105.229789">
  <ele>1583.0</ele>
  <time>2026-08-28T17:50:34Z</time>
  <course>248.01</course>
  <speed>0.022360679774997897</speed>
  <fix>3d</fix>
</trkpt>
<trkpt lat="40.0713749" lon="-105.229789">
  <ele>1583.0</ele>
  <time>2026-08-28T17:50:34Z</time>
  <course>0.0</course>
  <speed>0.0</speed>
  <fix>3d</fix>
</trkpt>
<trkpt lat="40.0713749" lon="-105.229789">
  <ele>1583.0</ele>
  <time>2026-08-28T17:50:34Z</time>
  <course>248.0</course>
  <speed>0.022360679774997897</speed>
  <fix>3d</fix>
</trkpt>
<trkpt lat="40.0713749" lon="-105.229789">
  <ele>1583.0</ele>
  <time>2026-08-28T17:50:34Z</time>
  <course>0.0</course>
  <speed>0.0</speed>
  <fix>3d</fix>
</trkpt>
<trkpt lat="40.0713749" lon="-105.229789">
  <ele>1583.0</ele>
  <time>2026-08-28T17:50:34Z</time>
  <course>248.0</course>
  <speed>0.022360679774997897</speed>
  <fix>3d</fix>
</trkpt>
<trkpt lat="40.0713749" lon="-105.229789">
  <ele>1583.0</ele>
  <time>2026-08-28T17:50:34Z</time>
  <course>0.0</course>
  <speed>0.0</speed>
  <fix>3d</fix>
</trkpt>
<trkpt lat="40.0713749" lon="-105.229789">
  <ele>1583.0</ele>
  <time>2026-08-28T17:50:34Z</time>
  <course>247.99</course>
  <speed>0.022360679774997897</speed>
  <fix>3d</fix>
</trkpt>
<trkpt lat="40.0713749" lon="-105.229789">
  <ele>1583.0</ele>
  <time>2026-08-28T17:50:34Z</time>
  <course>0.0</course>
  <speed>0.0</speed>
  <fix>3d</fix>
</trkpt>
<trkpt lat="40.0713749" lon="-105.229789">
  <ele>1583.0</ele>
  <time>2026-08-28T17:50:34Z</time>
  <course>247.99</course>
  <speed>0.022360679774997897</speed>
  <fix>3d</fix>
</trkpt>
<trkpt lat="40.0713749" lon="-105.229789">
  <ele>1583.0</ele>
  <time>2026-08-28T17:50:34Z</time>
  <course>0.0</course>
  <speed>0.0</speed>
  <fix>3d</fix>
</trkpt>
<trkpt lat="40.0713749" lon="-105.229789">
  <ele>1583.0</ele>
  <time>2026-08-28T17:50:34Z</time>
  <course>247.99</course>
  <speed>0.022360679774997897</speed>
  <fix>3d</fix>
</trkpt>
<trkpt lat="40.0713749" lon="-105.229789">
  <ele>1583.0</ele>
  <time>2026-08-28T17:50:34Z</time>
  <course>0.0</course>
  <speed>0.0</speed>
  <fix>3d</fix>
</trkpt>
<trkpt lat="40.0713749" lon="-105.229789">
  <ele>1583.0</ele>
  <time>2026-08-28T17:50:34Z</time>
  <course>247.98</course>
  <speed>0.022360679774997897</speed>
  <fix>3d</fix>
</trkpt>
<trkpt lat="40.0713749" lon="-105.229789">
  <ele>1583.0</ele>
  <time>2026-08-28T17:50:34Z</time>
  <course>0.0</course>
  <speed>0.0</speed>
  <fix>3d</fix>
</trkpt>
<trkpt lat="40.0713749" lon="-105.229789">
  <ele>1583.0</ele>
  <time>2026-08-28T17:50:34Z</time>
  <course>247.98</course>
  <speed>0.022360679774997897</speed>
  <fix>3d</fix>
</trkpt>
<trkpt lat="40.0713749" lon="-105.229789">
  <ele>1583.0</ele>
  <time>2026-08-28T17:50:34Z</time>
  <course>0.0</course>
  <speed>0.0</speed>
  <fix>3d</fix>
</trkpt>
<trkpt lat="40.0713749" lon="-105.229789">
  <ele>1583.0</ele>
  <time>2026-08-28T17:50:34Z</time>
  <course>247.97</course>
  <speed>0.022360679774997897</speed>
  <fix>3d</fix>
</trkpt>
<trkpt lat="40.0713749" lon="-105.229789">
  <ele>1583.0</ele>
  <time>2026-08-28T17:50:34Z</time>
  <course>0.0</course>
  <speed>0.0</speed>
  <fix>3d</fix>
</trkpt>
<trkpt lat="40.0713749" lon="-105.229789">
  <ele>1583.0</ele>
  <time>2026-08-28T17:50:34Z</time>
  <course>247.97</course>
  <speed>0.022360679774997897</speed>
  <fix>3d</fix>
</trkpt>
<trkpt lat="40.0713749" lon="-105.229789">
  <ele>1583.0</ele>
  <time>2026-08-28T17:50:34Z</time>
  <course>0.0</course>
  <speed>0.0</speed>
  <fix>3d</fix>
</trkpt>
<trkpt lat="40.0713749" lon="-105.229789">
  <ele>1583.0</ele>
  <time>2026-08-28T17:50:34Z</time>
  <course>247.96</course>
  <speed>0.022360679774997897</speed>
  <fix>3d</fix>
</trkpt>
<trkpt lat="40.0713749" lon="-105.229789">
  <ele>1583.0</ele>
  <time>2026-08-28T17:50:34Z</time>
  <course>0.0</course>
  <speed>0.0</speed>
  <fix>3d</fix>
</trkpt>
<trkpt lat="40.0713749" lon="-105.229789">
  <ele>1583.0</ele>
  <time>2026-08-28T17:50:34Z</time>
  <course>247.96</course>
  <speed>0.022360679774997897</speed>
  <fix>3d</fix>
</trkpt>
<trkpt lat="40.0713749" lon="-105.229789">
  <ele>1583.0</ele>
  <time>2026-08-28T17:50:34Z</time>
  <course>0.0</course>
  <speed>0.0</speed>
  <fix>3d</fix>
</trkpt>
<trkpt lat="40.0713749" lon="-105.229789">
  <ele>1583.0</ele>
  <time>2026-08-28T17:50:34Z</time>
  <course>247.95</course>
  <speed>0.022360679774997897</speed>
  <fix>3d</fix>
</trkpt>
<trkpt lat="40.0713749" lon="-105.229789">
  <ele>1583.0</ele>
  <time>2026-08-28T17:50:34Z</time>
  <course>0.0</course>
  <speed>0.0</speed>
  <fix>3d</fix>
</trkpt>
<trkpt lat="40.0713749" lon="-105.229789">
  <ele>1583.0</ele>
  <time>2026-08-28T17:50:34Z</time>
  <course>247.95</course>
  <speed>0.022360679774997897</speed>
  <fix>3d</fix>
</trkpt>
<trkpt lat="40.0713749" lon="-105.229789">
  <ele>1583.0</ele>
  <time>2026-08-28T17:50:34Z</time>
  <course>0.0</course>
  <speed>0.0</speed>
  <fix>3d</fix>
</trkpt>
<trkpt lat="40.0713749" lon="-105.229789">
  <ele>1583.0</ele>
  <time>2026-08-28T17:50:34Z</time>
  <course>247.95</course>
  <speed>0.022360679774997897</speed>
  <fix>3d</fix>
</trkpt>
<trkpt lat="40.0713749" lon="-105.229789">
  <ele>1583.0</ele>
  <time>2026-08-28T17:50:34Z</time>
  <course>0.0</course>
  <speed>0.0</speed>
  <fix>3d</fix>
</trkpt>
<trkpt lat="40.0713749" lon="-105.229789">
  <ele>1583.0</ele>
  <time>2026-08-28T17:50:34Z</time>
  <course>247.94</course>
  <speed>0.022360679774997897</speed>
  <fix>3d</fix>
</trkpt>
<trkpt lat="40.0713749" lon="-105.229789">
  <ele>1583.0</ele>
  <time>2026-08-28T17:50:34Z</time>
  <course>0.0</course>
  <speed>0.0</speed>
  <fix>3d</fix>
</trkpt>
<trkpt lat="40.0713749" lon="-105.229789">
  <ele>1583.0</ele>
  <time>2026-08-28T17:50:34Z</time>
  <course>247.94</course>
  <speed>0.022360679774997897</speed>
  <fix>3d</fix>
</trkpt>
<trkpt lat="40.0713749" lon="-105.229789">
  <ele>1583.0</ele>
  <time>2026-08-28T17:50:34Z</time>
  <course>0.0</course>
  <speed>0.0</speed>
  <fix>3d</fix>
</trkpt>
<trkpt lat="40.0713749" lon="-105.229789">
  <ele>1583.0</ele>
  <time>2026-08-28T17:50:34Z</time>
  <course>247.93</course>
  <speed>0.022360679774997897</speed>
  <fix>3d</fix>
</trkpt>
<trkpt lat="40.0713749" lon="-105.229789">
  <ele>1583.0</ele>
  <time>2026-08-28T17:50:34Z</time>
  <course>0.0</course>
  <speed>0.0</speed>
  <fix>3d</fix>
</trkpt>
<trkpt lat="40.0713749" lon="-105.229789">
  <ele>1583.0</ele>
  <time>2026-08-28T17:50:34Z</time>
  <course>247.93</course>
  <speed>0.022360679774997897</speed>
  <fix>3d</fix>
</trkpt>
<trkpt lat="40.0713749" lon="-105.229789">
  <ele>1583.0</ele>
  <time>2026-08-28T17:50:34Z</time>
  <course>0.0</course>
  <speed>0.0</speed>
  <fix>3d</fix>
</trkpt>
<trkpt lat="40.0713749" lon="-105.229789">
  <ele>1583.0</ele>
  <time>2026-08-28T17:50:34Z</time>
  <course>247.92</course>
  <speed>0.022360679774997897</speed>
  <fix>3d</fix>
</trkpt>
<trkpt lat="40.0713749" lon="-105.229789">
  <ele>1583.0</ele>
  <time>2026-08-28T17:50:34Z</time>
  <course>0.0</course>
  <speed>0.0</speed>
  <fix>3d</fix>
</trkpt>
<trkpt lat="40.0713749" lon="-105.229789">
  <ele>1583.0</ele>
  <time>2026-08-28T17:50:34Z</time>
  <course>247.92</course>
  <speed>0.022360679774997897</speed>
  <fix>3d</fix>
</trkpt>
<trkpt lat="40.0713749" lon="-105.229789">
  <ele>1583.0</ele>
  <time>2026-08-28T17:50:34Z</time>
  <course>0.0</course>
  <speed>0.0</speed>
  <fix>3d</fix>
</trkpt>
<trkpt lat="40.0713749" lon="-105.229789">
  <ele>1583.0</ele>
  <time>2026-08-28T17:50:34Z</time>
  <course>247.92</course>
  <speed>0.022360679774997897</speed>
  <fix>3d</fix>
</trkpt>
<trkpt lat="40.0713749" lon="-105.229789">
  <ele>1583.0</ele>
  <time>2026-08-28T17:50:34Z</time>
  <course>0.0</course>
  <speed>0.0</speed>
  <fix>3d</fix>
</trkpt>
<trkpt lat="40.0713749" lon="-105.229789">
  <ele>1583.0</ele>
  <time>2026-08-28T17:50:34Z</time>
  <course>247.91</course>
  <speed>0.022360679774997897</speed>
  <fix>3d</fix>
</trkpt>
<trkpt lat="40.0713749" lon="-105.229789">
  <ele>1583.0</ele>
  <time>2026-08-28T17:50:34Z</time>
  <course>0.0</course>
  <speed>0.0</speed>
  <fix>3d</fix>
</trkpt>
<trkpt lat="40.0713749" lon="-105.229789">
  <ele>1583.0</ele>
  <time>2026-08-28T17:50:34Z</time>
  <course>247.91</course>
  <speed>0.022360679774997897</speed>
  <fix>3d</fix>
</trkpt>
<trkpt lat="40.0713749" lon="-105.229789">
  <ele>1583.0</ele>
  <time>2026-08-28T17:50:34Z</time>
  <course>0.0</course>
  <speed>0.0</speed>
  <fix>3d</fix>
</trkpt>
<trkpt lat="40.0713749" lon="-105.229789">
  <ele>1583.0</ele>
  <time>2026-08-28T17:50:34Z</time>
  <course>247.9</course>
  <speed>0.022360679774997897</speed>
  <fix>3d</fix>
</trkpt>
<trkpt lat="40.0713749" lon="-105.229789">
  <ele>1583.0</ele>
  <time>2026-08-28T17:50:34Z</time>
  <course>0.0</course>
  <speed>0.0</speed>
  <fix>3d</fix>
</trkpt>
<trkpt lat="40.0713749" lon="-105.229789">
  <ele>1583.0</ele>
  <time>2026-08-28T17:50:34Z</time>
  <course>247.9</course>
  <speed>0.022360679774997897</speed>
  <fix>3d</fix>
</trkpt>
<trkpt lat="40.0713749" lon="-105.229789">
  <ele>1583.0</ele>
  <time>2026-08-28T17:50:34Z</time>
  <course>0.0</course>
  <speed>0.0</speed>
  <fix>3d</fix>
</trkpt>
<trkpt lat="40.0713749" lon="-105.229789">
  <ele>1583.0</ele>
  <time>2026-08-28T17:50:34Z</time>
  <course>247.89</course>
  <speed>0.022360679774997897</speed>
  <fix>3d</fix>
</trkpt>
<trkpt lat="40.0713749" lon="-105.229789">
  <ele>1583.0</ele>
  <time>2026-08-28T17:50:34Z</time>
  <course>0.0</course>
  <speed>0.0</speed>
  <fix>3d</fix>
</trkpt>
<trkpt lat="40.0713749" lon="-105.229789">
  <ele>1583.0</ele>
  <time>2026-08-28T17:50:34Z</time>
  <course>247.89</course>
  <speed>0.022360679774997897</speed>
  <fix>3d</fix>
</trkpt>
<trkpt lat="40.0713749" lon="-105.229789">
  <ele>1583.0</ele>
  <time>2026-08-28T17:50:34Z</time>
  <course>0.0</course>
  <speed>0.0</speed>
  <fix>3d</fix>
</trkpt>
<trkpt lat="40.0713749" lon="-105.229789">
  <ele>1583.0</ele>
  <time>2026-08-28T17:50:34Z</time>
  <course>247.89</course>
  <speed>0.022360679774997897</speed>
  <fix>3d</fix>
</trkpt>
<trkpt lat="40.0713749" lon="-105.229789">
  <ele>1583.0</ele>
  <time>2026-08-28T17:50:34Z</time>
  <course>0.0</course>
  <speed>0.0</speed>
  <fix>3d</fix>
</trkpt>
<trkpt lat="40.0713749" lon="-105.229789">
  <ele>1583.0</ele>
  <time>2026-08-28T17:50:34Z</time>
  <course>247.88</course>
  <speed>0.0316227766016838</speed>
  <fix>3d</fix>
</trkpt>
<trkpt lat="40.0713749" lon="-105.229789">
  <ele>1583.0</ele>
  <time>2026-08-28T17:50:34Z</time>
  <course>0.0</course>
  <speed>0.0</speed>
  <fix>3d</fix>
</trkpt>
<trkpt lat="40.0713749" lon="-105.229789">
  <ele>1583.0</ele>
  <time>2026-08-28T17:50:34Z</time>
  <course>247.88</course>
  <speed>0.0316227766016838</speed>
  <fix>3d</fix>
</trkpt>
<trkpt lat="40.0713749" lon="-105.229789">
  <ele>1583.0</ele>
  <time>2026-08-28T17:50:34Z</time>
  <course>0.0</course>
  <speed>0.0</speed>
  <fix>3d</fix>
</trkpt>
<trkpt lat="40.0713749" lon="-105.229789">
  <ele>1583.0</ele>
  <time>2026-08-28T17:50:34Z</time>
  <course>247.87</course>
  <speed>0.0316227766016838</speed>
  <fix>3d</fix>
</trkpt>
<trkpt lat="40.0713749" lon="-105.229789">
  <ele>1583.0</ele>
  <time>2026-08-28T17:50:34Z</time>
  <course>0.0</course>
  <speed>0.0</speed>
  <fix>3d</fix>
</trkpt>
<trkpt lat="40.0713749" lon="-105.229789">
  <ele>1583.0</ele>
  <time>2026-08-28T17:50:34Z</time>
  <course>247.87</course>
  <speed>0.0316227766016838</speed>
  <fix>3d</fix>
</trkpt>
<trkpt lat="40.0713749" lon="-105.229789">
  <ele>1583.0</ele>
  <time>2026-08-28T17:50:34Z</time>
  <course>0.0</course>
  <speed>0.0</speed>
  <fix>3d</fix>
</trkpt>
<trkpt lat="40.0713749" lon="-105.229789">
  <ele>1583.0</ele>
  <time>2026-08-28T17:50:34Z</time>
  <course>247.87</course>
  <speed>0.0316227766016838</speed>
  <fix>3d</fix>
</trkpt>
<trkpt lat="40.0713749" lon="-105.229789">
  <ele>1583.0</ele>
  <time>2026-08-28T17:50:34Z</time>
  <course>0.0</course>
  <speed>0.0</speed>
  <fix>3d</fix>
</trkpt>
<trkpt lat="40.0713749" lon="-105.229789">
  <ele>1583.0</ele>
  <time>2026-08-28T17:50:34Z</time>
  <course>247.86</course>
  <speed>0.0316227766016838</speed>
  <fix>3d</fix>
</trkpt>
<trkpt lat="40.0713749" lon="-105.229789">
  <ele>1583.0</ele>
  <time>2026-08-28T17:50:34Z</time>
  <course>0.0</course>
  <speed>0.0</speed>
  <fix>3d</fix>
</trkpt>
<trkpt lat="40.0713749" lon="-105.229789">
  <ele>1583.0</ele>
  <time>2026-08-28T17:50:34Z</time>
  <course>247.86</course>
  <speed>0.0316227766016838</speed>
  <fix>3d</fix>
</trkpt>
<trkpt lat="40.0713749" lon="-105.229789">
  <ele>1583.0</ele>
  <time>2026-08-28T17:50:34Z</time>
  <course>0.0</course>
  <speed>0.0</speed>
  <fix>3d</fix>
</trkpt>
<trkpt lat="40.0713749" lon="-105.229789">
  <ele>1583.0</ele>
  <time>2026-08-28T17:50:34Z</time>
  <course>247.85</course>
  <speed>0.0316227766016838</speed>
  <fix>3d</fix>
</trkpt>
<trkpt lat="40.0713749" lon="-105.229789">
  <ele>1583.0</ele>
  <time>2026-08-28T17:50:34Z</time>
  <course>0.0</course>
  <speed>0.0</speed>
  <fix>3d</fix>
</trkpt>
<trkpt lat="40.0713749" lon="-105.229789">
  <ele>1583.0</ele>
  <time>2026-08-28T17:50:34Z</time>
  <course>247.85</course>
  <speed>0.0316227766016838</speed>
  <fix>3d</fix>
</trkpt>
<trkpt lat="40.0713749" lon="-105.229789">
  <ele>1583.0</ele>
  <time>2026-08-28T17:50:34Z</time>
  <course>0.0</course>
  <speed>0.0</speed>
  <fix>3d</fix>
</trkpt>
<trkpt lat="40.0713749" lon="-105.229789">
  <ele>1583.0</ele>
  <time>2026-08-28T17:50:34Z</time>
  <course>247.85</course>
  <speed>0.0316227766016838</speed>
  <fix>3d</fix>
</trkpt>
<trkpt lat="40.0713749" lon="-105.229789">
  <ele>1583.0</ele>
  <time>2026-08-28T17:50:34Z</time>
  <course>0.0</course>
  <speed>0.0</speed>
  <fix>3d</fix>
</trkpt>
<trkpt lat="40.0713749" lon="-105.229789">
  <ele>1583.0</ele>
  <time>2026-08-28T17:50:34Z</time>
  <course>247.84</course>
  <speed>0.0316227766016838</speed>
  <fix>3d</fix>
</trkpt>
<trkpt lat="40.0713749" lon="-105.229789">
  <ele>1583.0</ele>
  <time>2026-08-28T17:50:34Z</time>
  <course>0.0</course>
  <speed>0.0</speed>
  <fix>3d</fix>
</trkpt>
<trkpt lat="40.0713749" lon="-105.229789">
  <ele>1583.0</ele>
  <time>2026-08-28T17:50:34Z</time>
  <course>247.84</course>
  <speed>0.0316227766016838</speed>
  <fix>3d</fix>
</trkpt>
<trkpt lat="40.0713749" lon="-105.229789">
  <ele>1583.0</ele>
  <time>2026-08-28T17:50:34Z</time>
  <course>0.0</course>
  <speed>0.0</speed>
  <fix>3d</fix>
</trkpt>
<trkpt lat="40.0713749" lon="-105.229789">
  <ele>1583.0</ele>
  <time>2026-08-28T17:50:34Z</time>
  <course>247.83</course>
  <speed>0.0316227766016838</speed>
  <fix>3d</fix>
</trkpt>
<trkpt lat="40.0713749" lon="-105.229789">
  <ele>1583.0</ele>
  <time>2026-08-28T17:50:34Z</time>
  <course>0.0</course>
  <speed>0.0</speed>
  <fix>3d</fix>
</trkpt>
<trkpt lat="40.0713749" lon="-105.229789">
  <ele>1583.0</ele>
  <time>2026-08-28T17:50:34Z</time>
  <course>247.83</course>
  <speed>0.0316227766016838</speed>
  <fix>3d</fix>
</trkpt>
<trkpt lat="40.0713749" lon="-105.229789">
  <ele>1583.0</ele>
  <time>2026-08-28T17:50:34Z</time>
  <course>0.0</course>
  <speed>0.0</speed>
  <fix>3d</fix>
</trkpt>
<trkpt lat="40.0713749" lon="-105.229789">
  <ele>1583.0</ele>
  <time>2026-08-28T17:50:34Z</time>
  <course>247.83</course>
  <speed>0.0316227766016838</speed>
  <fix>3d</fix>
</trkpt>
<trkpt lat="40.0713749" lon="-105.229789">
  <ele>1583.0</ele>
  <time>2026-08-28T17:50:34Z</time>
  <course>0.0</course>
  <speed>0.0</speed>
  <fix>3d</fix>
</trkpt>
<trkpt lat="40.0713749" lon="-105.229789">
  <ele>1583.0</ele>
  <time>2026-08-28T17:50:34Z</time>
  <course>247.82</course>
  <speed>0.0316227766016838</speed>
  <fix>3d</fix>
</trkpt>
<trkpt lat="40.0713749" lon="-105.229789">
  <ele>1583.0</ele>
  <time>2026-08-28T17:50:34Z</time>
  <course>0.0</course>
  <speed>0.0</speed>
  <fix>3d</fix>
</trkpt>
<trkpt lat="40.0713749" lon="-105.229789">
  <ele>1583.0</ele>
  <time>2026-08-28T17:50:34Z</time>
  <course>247.82</course>
  <speed>0.0316227766016838</speed>
  <fix>3d</fix>
</trkpt>
<trkpt lat="40.0713749" lon="-105.229789">
  <ele>1583.0</ele>
  <time>2026-08-28T17:50:34Z</time>
  <course>0.0</course>
  <speed>0.0</speed>
  <fix>3d</fix>
</trkpt>
<trkpt lat="40.0713749" lon="-105.229789">
  <ele>1583.0</ele>
  <time>2026-08-28T17:50:34Z</time>
  <course>247.82</course>
  <speed>0.0316227766016838</speed>
  <fix>3d</fix>
</trkpt>
<trkpt lat="40.0713749" lon="-105.229789">
  <ele>1583.0</ele>
  <time>2026-08-28T17:50:34Z</time>
  <course>0.0</course>
  <speed>0.0</speed>
  <fix>3d</fix>
</trkpt>
<trkpt lat="40.0713749" lon="-105.229789">
  <ele>1583.0</ele>
  <time>2026-08-28T17:50:34Z</time>
  <course>247.81</course>
  <speed>0.0316227766016838</speed>
  <fix>3d</fix>
</trkpt>
<trkpt lat="40.0713749" lon="-105.229789">
  <ele>1583.0</ele>
  <time>2026-08-28T17:50:34Z</time>
  <course>0.0</course>
  <speed>0.0</speed>
  <fix>3d</fix>
</trkpt>
<trkpt lat="40.0713749" lon="-105.229789">
  <ele>1583.0</ele>
  <time>2026-08-28T17:50:34Z</time>
  <course>247.81</course>
  <speed>0.0316227766016838</speed>
  <fix>3d</fix>
</trkpt>
<trkpt lat="40.0713749" lon="-105.229789">
  <ele>1583.0</ele>
  <time>2026-08-28T17:50:34Z</time>
  <course>0.0</course>
  <speed>0.0</speed>
  <fix>3d</fix>
</trkpt>
<trkpt lat="40.0713749" lon="-105.229789">
  <ele>1583.0</ele>
  <time>2026-08-28T17:50:34Z</time>
  <course>247.8</course>
  <speed>0.0316227766016838</speed>
  <fix>3d</fix>
</trkpt>
<trkpt lat="40.0713749" lon="-105.229789">
  <ele>1583.0</ele>
  <time>2026-08-28T17:50:34Z</time>
  <course>0.0</course>
  <speed>0.0</speed>
  <fix>3d</fix>
</trkpt>
<trkpt lat="40.0713749" lon="-105.229789">
  <ele>1583.0</ele>
  <time>2026-08-28T17:50:34Z</time>
  <course>247.8</course>
  <speed>0.0316227766016838</speed>
  <fix>3d</fix>
</trkpt>
<trkpt lat="40.0713749" lon="-105.229789">
  <ele>1583.0</ele>
  <time>2026-08-28T17:50:34Z</time>
  <course>0.0</course>
  <speed>0.0</speed>
  <fix>3d</fix>
</trkpt>
<trkpt lat="40.0713749" lon="-105.229789">
  <ele>1583.0</ele>
  <time>2026-08-28T17:50:34Z</time>
  <course>247.8</course>
  <speed>0.0316227766016838</speed>
  <fix>3d</fix>
</trkpt>
<trkpt lat="40.0713749" lon="-105.229789">
  <ele>1583.0</ele>
  <time>2026-08-28T17:50:34Z</time>
  <course>0.0</course>
  <speed>0.0</speed>
  <fix>3d</fix>
</trkpt>
<trkpt lat="40.0713749" lon="-105.229789">
  <ele>1583.0</ele>
  <time>2026-08-28T17:50:34Z</time>
  <course>247.79</course>
  <speed>0.0316227766016838</speed>
  <fix>3d</fix>
</trkpt>
<trkpt lat="40.0713749" lon="-105.229789">
  <ele>1583.0</ele>
  <time>2026-08-28T17:50:34Z</time>
  <course>0.0</course>
  <speed>0.0</speed>
  <fix>3d</fix>
</trkpt>
<trkpt lat="40.0713749" lon="-105.229789">
  <ele>1583.0</ele>
  <time>2026-08-28T17:50:34Z</time>
  <course>247.79</course>
  <speed>0.0316227766016838</speed>
  <fix>3d</fix>
</trkpt>
<trkpt lat="40.0713749" lon="-105.229789">
  <ele>1583.0</ele>
  <time>2026-08-28T17:50:34Z</time>
  <course>0.0</course>
  <speed>0.0</speed>
  <fix>3d</fix>
</trkpt>
<trkpt lat="40.0713749" lon="-105.229789">
  <ele>1583.0</ele>
  <time>2026-08-28T17:50:34Z</time>
  <course>247.79</course>
  <speed>0.0316227766016838</speed>
  <fix>3d</fix>
</trkpt>
<trkpt lat="40.0713749" lon="-105.229789">
  <ele>1583.0</ele>
  <time>2026-08-28T17:50:34Z</time>
  <course>0.0</course>
  <speed>0.0</speed>
  <fix>3d</fix>
</trkpt>
<trkpt lat="40.0713749" lon="-105.229789">
  <ele>1583.0</ele>
  <time>2026-08-28T17:50:34Z</time>
  <course>247.78</course>
  <speed>0.0316227766016838</speed>
  <fix>3d</fix>
</trkpt>
<trkpt lat="40.0713749" lon="-105.229789">
  <ele>1583.0</ele>
  <time>2026-08-28T17:50:34Z</time>
  <course>0.0</course>
  <speed>0.0</speed>
  <fix>3d</fix>
</trkpt>
<trkpt lat="40.0713749" lon="-105.229789">
  <ele>1583.0</ele>
  <time>2026-08-28T17:50:34Z</time>
  <course>247.78</course>
  <speed>0.0316227766016838</speed>
  <fix>3d</fix>
</trkpt>
<trkpt lat="40.0713749" lon="-105.229789">
  <ele>1583.0</ele>
  <time>2026-08-28T17:50:34Z</time>
  <course>0.0</course>
  <speed>0.0</speed>
  <fix>3d</fix>
</trkpt>
<trkpt lat="40.0713749" lon="-105.229789">
  <ele>1583.0</ele>
  <time>2026-08-28T17:50:34Z</time>
  <course>247.78</course>
  <speed>0.0316227766016838</speed>
  <fix>3d</fix>
</trkpt>
<trkpt lat="40.0713749" lon="-105.229789">
  <ele>1583.0</ele>
  <time>2026-08-28T17:50:34Z</time>
  <course>0.0</course>
  <speed>0.0</speed>
  <fix>3d</fix>
</trkpt>
<trkpt lat="40.0713749" lon="-105.229789">
  <ele>1583.0</ele>
  <time>2026-08-28T17:50:34Z</time>
  <course>247.77</course>
  <speed>0.0316227766016838</speed>
  <fix>3d</fix>
</trkpt>
<trkpt lat="40.0713749" lon="-105.229789">
  <ele>1583.0</ele>
  <time>2026-08-28T17:50:34Z</time>
  <course>0.0</course>
  <speed>0.0</speed>
  <fix>3d</fix>
</trkpt>
<trkpt lat="40.0713749" lon="-105.229789">
  <ele>1583.0</ele>
  <time>2026-08-28T17:50:34Z</time>
  <course>247.77</course>
  <speed>0.0316227766016838</speed>
  <fix>3d</fix>
</trkpt>
<trkpt lat="40.0713749" lon="-105.229789">
  <ele>1583.0</ele>
  <time>2026-08-28T17:50:34Z</time>
  <course>0.0</course>
  <speed>0.0</speed>
  <fix>3d</fix>
</trkpt>
<trkpt lat="40.0713749" lon="-105.229789">
  <ele>1583.0</ele>
  <time>2026-08-28T17:50:34Z</time>
  <course>247.76</course>
  <speed>0.0316227766016838</speed>
  <fix>3d</fix>
</trkpt>
<trkpt lat="40.0713749" lon="-105.229789">
  <ele>1583.0</ele>
  <time>2026-08-28T17:50:34Z</time>
  <course>0.0</course>
  <speed>0.0</speed>
  <fix>3d</fix>
</trkpt>
<trkpt lat="40.0713749" lon="-105.229789">
  <ele>1583.0</ele>
  <time>2026-08-28T17:50:34Z</time>
  <course>247.76</course>
  <speed>0.0316227766016838</speed>
  <fix>3d</fix>
</trkpt>
<trkpt lat="40.0713749" lon="-105.229789">
  <ele>1583.0</ele>
  <time>2026-08-28T17:50:34Z</time>
  <course>0.0</course>
  <speed>0.0</speed>
  <fix>3d</fix>
</trkpt>
<trkpt lat="40.0713749" lon="-105.229789">
  <ele>1583.0</ele>
  <time>2026-08-28T17:50:34Z</time>
  <course>247.76</course>
  <speed>0.0316227766016838</speed>
  <fix>3d</fix>
</trkpt>
<trkpt lat="40.0713749" lon="-105.229789">
  <ele>1583.0</ele>
  <time>2026-08-28T17:50:34Z</time>
  <course>0.0</course>
  <speed>0.0</speed>
  <fix>3d</fix>
</trkpt>
<trkpt lat="40.0713749" lon="-105.229789">
  <ele>1583.0</ele>
  <time>2026-08-28T17:50:34Z</time>
  <course>247.75</course>
  <speed>0.0316227766016838</speed>
  <fix>3d</fix>
</trkpt>
<trkpt lat="40.0713749" lon="-105.229789">
  <ele>1583.0</ele>
  <time>2026-08-28T17:50:34Z</time>
  <course>0.0</course>
  <speed>0.0</speed>
  <fix>3d</fix>
</trkpt>
<trkpt lat="40.0713749" lon="-105.229789">
  <ele>1583.0</ele>
  <time>2026-08-28T17:50:34Z</time>
  <course>247.75</course>
  <speed>0.0316227766016838</speed>
  <fix>3d</fix>
</trkpt>
<trkpt lat="40.0713749" lon="-105.229789">
  <ele>1583.0</ele>
  <time>2026-08-28T17:50:34Z</time>
  <course>0.0</course>
  <speed>0.0</speed>
  <fix>3d</fix>
</trkpt>
<trkpt lat="40.0713749" lon="-105.229789">
  <ele>1583.0</ele>
  <time>2026-08-28T17:50:34Z</time>
  <course>247.75</course>
  <speed>0.0316227766016838</speed>
  <fix>3d</fix>
</trkpt>
<trkpt lat="40.0713749" lon="-105.229789">
  <ele>1583.0</ele>
  <time>2026-08-28T17:50:34Z</time>
  <course>0.0</course>
  <speed>0.0</speed>
  <fix>3d</fix>
</trkpt>
<trkpt lat="40.0713749" lon="-105.229789">
  <ele>1583.0</ele>
  <time>2026-08-28T17:50:34Z</time>
  <course>247.74</course>
  <speed>0.0316227766016838</speed>
  <fix>3d</fix>
</trkpt>
<trkpt lat="40.0713749" lon="-105.229789">
  <ele>1583.0</ele>
  <time>2026-08-28T17:50:34Z</time>
  <course>0.0</course>
  <speed>0.0</speed>
  <fix>3d</fix>
</trkpt>
<trkpt lat="40.0713749" lon="-105.229789">
  <ele>1583.0</ele>
  <time>2026-08-28T17:50:34Z</time>
  <course>247.74</course>
  <speed>0.0316227766016838</speed>
  <fix>3d</fix>
</trkpt>
<trkpt lat="40.0713749" lon="-105.229789">
  <ele>1583.0</ele>
  <time>2026-08-28T17:50:34Z</time>
  <course>0.0</course>
  <speed>0.0</speed>
  <fix>3d</fix>
</trkpt>
<trkpt lat="40.0713749" lon="-105.229789">
  <ele>1583.0</ele>
  <time>2026-08-28T17:50:34Z</time>
  <course>247.74</course>
  <speed>0.0316227766016838</speed>
  <fix>3d</fix>
</trkpt>
<trkpt lat="40.0713749" lon="-105.229789">
  <ele>1583.0</ele>
  <time>2026-08-28T17:50:34Z</time>
  <course>0.0</course>
  <speed>0.0</speed>
  <fix>3d</fix>
</trkpt>
<trkpt lat="40.0713749" lon="-105.229789">
  <ele>1583.0</ele>
  <time>2026-08-28T17:50:34Z</time>
  <course>247.73</course>
  <speed>0.0316227766016838</speed>
  <fix>3d</fix>
</trkpt>
<trkpt lat="40.0713749" lon="-105.229789">
  <ele>1583.0</ele>
  <time>2026-08-28T17:50:34Z</time>
  <course>0.0</course>
  <speed>0.0</speed>
  <fix>3d</fix>
</trkpt>
<trkpt lat="40.0713749" lon="-105.229789">
  <ele>1583.0</ele>
  <time>2026-08-28T17:50:34Z</time>
  <course>247.73</course>
  <speed>0.0316227766016838</speed>
  <fix>3d</fix>
</trkpt>
<trkpt lat="40.0713749" lon="-105.229789">
  <ele>1583.0</ele>
  <time>2026-08-28T17:50:34Z</time>
  <course>0.0</course>
  <speed>0.0</speed>
  <fix>3d</fix>
</trkpt>
<trkpt lat="40.0713749" lon="-105.229789">
  <ele>1583.0</ele>
  <time>2026-08-28T17:50:34Z</time>
  <course>247.73</course>
  <speed>0.0316227766016838</speed>
  <fix>3d</fix>
</trkpt>
<trkpt lat="40.0713749" lon="-105.229789">
  <ele>1583.0</ele>
  <time>2026-08-28T17:50:34Z</time>
  <course>0.0</course>
  <speed>0.0</speed>
  <fix>3d</fix>
</trkpt>
<trkpt lat="40.0713749" lon="-105.229789">
  <ele>1583.0</ele>
  <time>2026-08-28T17:50:34Z</time>
  <course>247.72</course>
  <speed>0.0316227766016838</speed>
  <fix>3d</fix>
</trkpt>
<trkpt lat="40.0713749" lon="-105.229789">
  <ele>1583.0</ele>
  <time>2026-08-28T17:50:34Z</time>
  <course>0.0</course>
  <speed>0.0</speed>
  <fix>3d</fix>
</trkpt>
<trkpt lat="40.0713749" lon="-105.229789">
  <ele>1583.0</ele>
  <time>2026-08-28T17:50:34Z</time>
  <course>247.72</course>
  <speed>0.0316227766016838</speed>
  <fix>3d</fix>
</trkpt>
<trkpt lat="40.0713749" lon="-105.229789">
  <ele>1583.0</ele>
  <time>2026-08-28T17:50:34Z</time>
  <course>0.0</course>
  <speed>0.0</speed>
  <fix>3d</fix>
</trkpt>
<trkpt lat="40.0713749" lon="-105.229789">
  <ele>1583.0</ele>
  <time>2026-08-28T17:50:34Z</time>
  <course>247.72</course>
  <speed>0.0316227766016838</speed>
  <fix>3d</fix>
</trkpt>
<trkpt lat="40.0713749" lon="-105.229789">
  <ele>1583.0</ele>
  <time>2026-08-28T17:50:34Z</time>
  <course>0.0</course>
  <speed>0.0</speed>
  <fix>3d</fix>
</trkpt>
<trkpt lat="40.0713749" lon="-105.229789">
  <ele>1583.0</ele>
  <time>2026-08-28T17:50:34Z</time>
  <course>247.71</course>
  <speed>0.0316227766016838</speed>
  <fix>3d</fix>
</trkpt>
<trkpt lat="40.0713749" lon="-105.229789">
  <ele>1583.0</ele>
  <time>2026-08-28T17:50:34Z</time>
  <course>0.0</course>
  <speed>0.0</speed>
  <fix>3d</fix>
</trkpt>
<trkpt lat="40.0713749" lon="-105.229789">
  <ele>1583.0</ele>
  <time>2026-08-28T17:50:34Z</time>
  <course>247.71</course>
  <speed>0.0316227766016838</speed>
  <fix>3d</fix>
</trkpt>
<trkpt lat="40.0713749" lon="-105.229789">
  <ele>1583.0</ele>
  <time>2026-08-28T17:50:34Z</time>
  <course>0.0</course>
  <speed>0.0</speed>
  <fix>3d</fix>
</trkpt>
<trkpt lat="40.0713749" lon="-105.229789">
  <ele>1583.0</ele>
  <time>2026-08-28T17:50:34Z</time>
  <course>247.71</course>
  <speed>0.0316227766016838</speed>
  <fix>3d</fix>
</trkpt>
<trkpt lat="40.0713749" lon="-105.229789">
  <ele>1583.0</ele>
  <time>2026-08-28T17:50:34Z</time>
  <course>0.0</course>
  <speed>0.0</speed>
  <fix>3d</fix>
</trkpt>
<trkpt lat="40.0713749" lon="-105.229789">
  <ele>1583.0</ele>
  <time>2026-08-28T17:50:34Z</time>
  <course>247.7</course>
  <speed>0.0316227766016838</speed>
  <fix>3d</fix>
</trkpt>
<trkpt lat="40.0713749" lon="-105.229789">
  <ele>1583.0</ele>
  <time>2026-08-28T17:50:34Z</time>
  <course>0.0</course>
  <speed>0.0</speed>
  <fix>3d</fix>
</trkpt>
<trkpt lat="40.0713749" lon="-105.229789">
  <ele>1583.0</ele>
  <time>2026-08-28T17:50:34Z</time>
  <course>247.7</course>
  <speed>0.0316227766016838</speed>
  <fix>3d</fix>
</trkpt>
<trkpt lat="40.0713749" lon="-105.229789">
  <ele>1583.0</ele>
  <time>2026-08-28T17:50:34Z</time>
  <course>0.0</course>
  <speed>0.0</speed>
  <fix>3d</fix>
</trkpt>
<trkpt lat="40.0713749" lon="-105.229789">
  <ele>1583.0</ele>
  <time>2026-08-28T17:50:34Z</time>
  <course>247.7</course>
  <speed>0.0316227766016838</speed>
  <fix>3d</fix>
</trkpt>
<trkpt lat="40.0713749" lon="-105.229789">
  <ele>1583.0</ele>
  <time>2026-08-28T17:50:34Z</time>
  <course>0.0</course>
  <speed>0.0</speed>
  <fix>3d</fix>
</trkpt>
<trkpt lat="40.0713749" lon="-105.229789">
  <ele>1583.0</ele>
  <time>2026-08-28T17:50:34Z</time>
  <course>247.69</course>
  <speed>0.0316227766016838</speed>
  <fix>3d</fix>
</trkpt>
<trkpt lat="40.0713749" lon="-105.229789">
  <ele>1583.0</ele>
  <time>2026-08-28T17:50:34Z</time>
  <course>0.0</course>
  <speed>0.0</speed>
  <fix>3d</fix>
</trkpt>
<trkpt lat="40.0713749" lon="-105.229789">
  <ele>1583.0</ele>
  <time>2026-08-28T17:50:34Z</time>
  <course>247.69</course>
  <speed>0.0316227766016838</speed>
  <fix>3d</fix>
</trkpt>
<trkpt lat="40.0713749" lon="-105.229789">
  <ele>1583.0</ele>
  <time>2026-08-28T17:50:34Z</time>
  <course>0.0</course>
  <speed>0.0</speed>
  <fix>3d</fix>
</trkpt>
<trkpt lat="40.0713749" lon="-105.229789">
  <ele>1583.0</ele>
  <time>2026-08-28T17:50:34Z</time>
  <course>247.69</course>
  <speed>0.0316227766016838</speed>
  <fix>3d</fix>
</trkpt>
<trkpt lat="40.0713749" lon="-105.229789">
  <ele>1583.0</ele>
  <time>2026-08-28T17:50:34Z</time>
  <course>0.0</course>
  <speed>0.0</speed>
  <fix>3d</fix>
</trkpt>
<trkpt lat="40.0713749" lon="-105.229789">
  <ele>1583.0</ele>
  <time>2026-08-28T17:50:34Z</time>
  <course>247.68</course>
  <speed>0.0316227766016838</speed>
  <fix>3d</fix>
</trkpt>
<trkpt lat="40.0713749" lon="-105.229789">
  <ele>1583.0</ele>
  <time>2026-08-28T17:50:34Z</time>
  <course>0.0</course>
  <speed>0.0</speed>
  <fix>3d</fix>
</trkpt>
<trkpt lat="40.0713749" lon="-105.229789">
  <ele>1583.0</ele>
  <time>2026-08-28T17:50:34Z</time>
  <course>247.68</course>
  <speed>0.0316227766016838</speed>
  <fix>3d</fix>
</trkpt>
<trkpt lat="40.0713749" lon="-105.229789">
  <ele>1583.0</ele>
  <time>2026-08-28T17:50:34Z</time>
  <course>0.0</course>
  <speed>0.0</speed>
  <fix>3d</fix>
</trkpt>
<trkpt lat="40.0713749" lon="-105.229789">
  <ele>1583.0</ele>
  <time>2026-08-28T17:50:34Z</time>
  <course>247.68</course>
  <speed>0.0316227766016838</speed>
  <fix>3d</fix>
</trkpt>
<trkpt lat="40.0713749" lon="-105.229789">
  <ele>1583.0</ele>
  <time>2026-08-28T17:50:34Z</time>
  <course>0.0</course>
  <speed>0.0</speed>
  <fix>3d</fix>
</trkpt>
<trkpt lat="40.0713749" lon="-105.229789">
  <ele>1583.0</ele>
  <time>2026-08-28T17:50:34Z</time>
  <course>247.67</course>
  <speed>0.0316227766016838</speed>
  <fix>3d</fix>
</trkpt>
<trkpt lat="40.0713749" lon="-105.229789">
  <ele>1583.0</ele>
  <time>2026-08-28T17:50:34Z</time>
  <course>0.0</course>
  <speed>0.0</speed>
  <fix>3d</fix>
</trkpt>
<trkpt lat="40.0713749" lon="-105.229789">
  <ele>1583.0</ele>
  <time>2026-08-28T17:50:34Z</time>
  <course>247.67</course>
  <speed>0.0316227766016838</speed>
  <fix>3d</fix>
</trkpt>
<trkpt lat="40.0713749" lon="-105.229789">
  <ele>1583.0</ele>
  <time>2026-08-28T17:50:34Z</time>
  <course>0.0</course>
  <speed>0.0</speed>
  <fix>3d</fix>
</trkpt>
<trkpt lat="40.0713749" lon="-105.229789">
  <ele>1583.0</ele>
  <time>2026-08-28T17:50:34Z</time>
  <course>247.67</course>
  <speed>0.0316227766016838</speed>
  <fix>3d</fix>
</trkpt>
<trkpt lat="40.0713749" lon="-105.229789">
  <ele>1583.0</ele>
  <time>2026-08-28T17:50:34Z</time>
  <course>0.0</course>
  <speed>0.0</speed>
  <fix>3d</fix>
</trkpt>
<trkpt lat="40.0713749" lon="-105.229789">
  <ele>1583.0</ele>
  <time>2026-08-28T17:50:34Z</time>
  <course>247.66</course>
  <speed>0.0316227766016838</speed>
  <fix>3d</fix>
</trkpt>
<trkpt lat="40.0713749" lon="-105.229789">
  <ele>1583.0</ele>
  <time>2026-08-28T17:50:34Z</time>
  <course>0.0</course>
  <speed>0.0</speed>
  <fix>3d</fix>
</trkpt>
<trkpt lat="40.0713749" lon="-105.229789">
  <ele>1583.0</ele>
  <time>2026-08-28T17:50:34Z</time>
  <course>247.66</course>
  <speed>0.0316227766016838</speed>
  <fix>3d</fix>
</trkpt>
<trkpt lat="40.0713749" lon="-105.229789">
  <ele>1583.0</ele>
  <time>2026-08-28T17:50:34Z</time>
  <course>0.0</course>
  <speed>0.0</speed>
  <fix>3d</fix>
</trkpt>
<trkpt lat="40.0713749" lon="-105.229789">
  <ele>1583.0</ele>
  <time>2026-08-28T17:50:34Z</time>
  <course>247.66</course>
  <speed>0.0316227766016838</speed>
  <fix>3d</fix>
</trkpt>
<trkpt lat="40.0713749" lon="-105.229789">
  <ele>1583.0</ele>
  <time>2026-08-28T17:50:34Z</time>
  <course>0.0</course>
  <speed>0.0</speed>
  <fix>3d</fix>
</trkpt>
<trkpt lat="40.0713749" lon="-105.229789">
  <ele>1583.0</ele>
  <time>2026-08-28T17:50:34Z</time>
  <course>247.65</course>
  <speed>0.0316227766016838</speed>
  <fix>3d</fix>
</trkpt>
<trkpt lat="40.0713749" lon="-105.229789">
  <ele>1583.0</ele>
  <time>2026-08-28T17:50:34Z</time>
  <course>0.0</course>
  <speed>0.0</speed>
  <fix>3d</fix>
</trkpt>
<trkpt lat="40.0713749" lon="-105.229789">
  <ele>1583.0</ele>
  <time>2026-08-28T17:50:34Z</time>
  <course>247.65</course>
  <speed>0.0316227766016838</speed>
  <fix>3d</fix>
</trkpt>
<trkpt lat="40.0713749" lon="-105.229789">
  <ele>1583.0</ele>
  <time>2026-08-28T17:50:34Z</time>
  <course>0.0</course>
  <speed>0.0</speed>
  <fix>3d</fix>
</trkpt>
<trkpt lat="40.0713749" lon="-105.229789">
  <ele>1583.0</ele>
  <time>2026-08-28T17:50:34Z</time>
  <course>247.65</course>
  <speed>0.0316227766016838</speed>
  <fix>3d</fix>
</trkpt>
<trkpt lat="40.0713749" lon="-105.229789">
  <ele>1583.0</ele>
  <time>2026-08-28T17:50:34Z</time>
  <course>0.0</course>
  <speed>0.0</speed>
  <fix>3d</fix>
</trkpt>
<trkpt lat="40.0713749" lon="-105.229789">
  <ele>1583.0</ele>
  <time>2026-08-28T17:50:34Z</time>
  <course>247.64</course>
  <speed>0.0316227766016838</speed>
  <fix>3d</fix>
</trkpt>
<trkpt lat="40.0713749" lon="-105.229789">
  <ele>1583.0</ele>
  <time>2026-08-28T17:50:34Z</time>
  <course>0.0</course>
  <speed>0.0</speed>
  <fix>3d</fix>
</trkpt>
<trkpt lat="40.0713749" lon="-105.229789">
  <ele>1583.0</ele>
  <time>2026-08-28T17:50:34Z</time>
  <course>247.64</course>
  <speed>0.0316227766016838</speed>
  <fix>3d</fix>
</trkpt>
<trkpt lat="40.0713749" lon="-105.229789">
  <ele>1583.0</ele>
  <time>2026-08-28T17:50:34Z</time>
  <course>0.0</course>
  <speed>0.0</speed>
  <fix>3d</fix>
</trkpt>
<trkpt lat="40.0713749" lon="-105.229789">
  <ele>1583.0</ele>
  <time>2026-08-28T17:50:34Z</time>
  <course>247.64</course>
  <speed>0.0316227766016838</speed>
  <fix>3d</fix>
</trkpt>
<trkpt lat="40.0713749" lon="-105.229789">
  <ele>1583.0</ele>
  <time>2026-08-28T17:50:34Z</time>
  <course>0.0</course>
  <speed>0.0</speed>
  <fix>3d</fix>
</trkpt>
<trkpt lat="40.0713749" lon="-105.229789">
  <ele>1583.0</ele>
  <time>2026-08-28T17:50:34Z</time>
  <course>247.64</course>
  <speed>0.0316227766016838</speed>
  <fix>3d</fix>
</trkpt>
<trkpt lat="40.0713749" lon="-105.229789">
  <ele>1583.0</ele>
  <time>2026-08-28T17:50:34Z</time>
  <course>0.0</course>
  <speed>0.0</speed>
  <fix>3d</fix>
</trkpt>
<trkpt lat="40.0713749" lon="-105.229789">
  <ele>1583.0</ele>
  <time>2026-08-28T17:50:34Z</time>
  <course>247.63</course>
  <speed>0.0316227766016838</speed>
  <fix>3d</fix>
</trkpt>
<trkpt lat="40.0713749" lon="-105.229789">
  <ele>1583.0</ele>
  <time>2026-08-28T17:50:34Z</time>
  <course>0.0</course>
  <speed>0.0</speed>
  <fix>3d</fix>
</trkpt>
<trkpt lat="40.0713749" lon="-105.229789">
  <ele>1583.0</ele>
  <time>2026-08-28T17:50:34Z</time>
  <course>247.63</course>
  <speed>0.0316227766016838</speed>
  <fix>3d</fix>
</trkpt>
<trkpt lat="40.0713749" lon="-105.229789">
  <ele>1583.0</ele>
  <time>2026-08-28T17:50:34Z</time>
  <course>0.0</course>
  <speed>0.0</speed>
  <fix>3d</fix>
</trkpt>
<trkpt lat="40.0713749" lon="-105.229789">
  <ele>1583.0</ele>
  <time>2026-08-28T17:50:34Z</time>
  <course>247.63</course>
  <speed>0.0316227766016838</speed>
  <fix>3d</fix>
</trkpt>
<trkpt lat="40.0713749" lon="-105.229789">
  <ele>1583.0</ele>
  <time>2026-08-28T17:50:34Z</time>
  <course>0.0</course>
  <speed>0.0</speed>
  <fix>3d</fix>
</trkpt>
<trkpt lat="40.0713749" lon="-105.229789">
  <ele>1583.0</ele>
  <time>2026-08-28T17:50:34Z</time>
  <course>247.62</course>
  <speed>0.0316227766016838</speed>
  <fix>3d</fix>
</trkpt>
<trkpt lat="40.0713749" lon="-105.229789">
  <ele>1583.0</ele>
  <time>2026-08-28T17:50:34Z</time>
  <course>0.0</course>
  <speed>0.0</speed>
  <fix>3d</fix>
</trkpt>
<trkpt lat="40.0713749" lon="-105.229789">
  <ele>1583.0</ele>
  <time>2026-08-28T17:50:34Z</time>
  <course>247.62</course>
  <speed>0.0316227766016838</speed>
  <fix>3d</fix>
</trkpt>
<trkpt lat="40.0713749" lon="-105.229789">
  <ele>1583.0</ele>
  <time>2026-08-28T17:50:34Z</time>
  <course>0.0</course>
  <speed>0.0</speed>
  <fix>3d</fix>
</trkpt>
<trkpt lat="40.0713749" lon="-105.229789">
  <ele>1583.0</ele>
  <time>2026-08-28T17:50:34Z</time>
  <course>247.62</course>
  <speed>0.0316227766016838</speed>
  <fix>3d</fix>
</trkpt>
<trkpt lat="40.0713749" lon="-105.229789">
  <ele>1583.0</ele>
  <time>2026-08-28T17:50:34Z</time>
  <course>0.0</course>
  <speed>0.0</speed>
  <fix>3d</fix>
</trkpt>
<trkpt lat="40.0713749" lon="-105.229789">
  <ele>1583.0</ele>
  <time>2026-08-28T17:50:34Z</time>
  <course>247.62</course>
  <speed>0.0316227766016838</speed>
  <fix>3d</fix>
</trkpt>
<trkpt lat="40.0713749" lon="-105.229789">
  <ele>1583.0</ele>
  <time>2026-08-28T17:50:34Z</time>
  <course>0.0</course>
  <speed>0.0</speed>
  <fix>3d</fix>
</trkpt>
<trkpt lat="40.0713749" lon="-105.229789">
  <ele>1583.0</ele>
  <time>2026-08-28T17:50:34Z</time>
  <course>247.61</course>
  <speed>0.0316227766016838</speed>
  <fix>3d</fix>
</trkpt>
<trkpt lat="40.0713749" lon="-105.229789">
  <ele>1583.0</ele>
  <time>2026-08-28T17:50:34Z</time>
  <course>0.0</course>
  <speed>0.0</speed>
  <fix>3d</fix>
</trkpt>
<trkpt lat="40.0713749" lon="-105.229789">
  <ele>1583.0</ele>
  <time>2026-08-28T17:50:34Z</time>
  <course>247.61</course>
  <speed>0.0316227766016838</speed>
  <fix>3d</fix>
</trkpt>
<trkpt lat="40.0713749" lon="-105.229789">
  <ele>1583.0</ele>
  <time>2026-08-28T17:50:34Z</time>
  <course>0.0</course>
  <speed>0.0</speed>
  <fix>3d</fix>
</trkpt>
<trkpt lat="40.0713749" lon="-105.229789">
  <ele>1583.0</ele>
  <time>2026-08-28T17:50:34Z</time>
  <course>247.61</course>
  <speed>0.0316227766016838</speed>
  <fix>3d</fix>
</trkpt>
<trkpt lat="40.0713749" lon="-105.229789">
  <ele>1583.0</ele>
  <time>2026-08-28T17:50:34Z</time>
  <course>0.0</course>
  <speed>0.0</speed>
  <fix>3d</fix>
</trkpt>
<trkpt lat="40.0713749" lon="-105.229789">
  <ele>1583.0</ele>
  <time>2026-08-28T17:50:34Z</time>
  <course>247.6</course>
  <speed>0.0316227766016838</speed>
  <fix>3d</fix>
</trkpt>
<trkpt lat="40.0713749" lon="-105.229789">
  <ele>1583.0</ele>
  <time>2026-08-28T17:50:34Z</time>
  <course>0.0</course>
  <speed>0.0</speed>
  <fix>3d</fix>
</trkpt>
<trkpt lat="40.0713749" lon="-105.229789">
  <ele>1583.0</ele>
  <time>2026-08-28T17:50:34Z</time>
  <course>247.6</course>
  <speed>0.0316227766016838</speed>
  <fix>3d</fix>
</trkpt>
<trkpt lat="40.0713749" lon="-105.229789">
  <ele>1583.0</ele>
  <time>2026-08-28T17:50:34Z</time>
  <course>0.0</course>
  <speed>0.0</speed>
  <fix>3d</fix>
</trkpt>
<trkpt lat="40.0713749" lon="-105.229789">
  <ele>1583.0</ele>
  <time>2026-08-28T17:50:34Z</time>
  <course>247.6</course>
  <speed>0.0316227766016838</speed>
  <fix>3d</fix>
</trkpt>
<trkpt lat="40.0713749" lon="-105.229789">
  <ele>1583.0</ele>
  <time>2026-08-28T17:50:34Z</time>
  <course>0.0</course>
  <speed>0.0</speed>
  <fix>3d</fix>
</trkpt>
<trkpt lat="40.0713749" lon="-105.229789">
  <ele>1583.0</ele>
  <time>2026-08-28T17:50:34Z</time>
  <course>247.6</course>
  <speed>0.0316227766016838</speed>
  <fix>3d</fix>
</trkpt>
<trkpt lat="40.0713749" lon="-105.229789">
  <ele>1583.0</ele>
  <time>2026-08-28T17:50:34Z</time>
  <course>0.0</course>
  <speed>0.0</speed>
  <fix>3d</fix>
</trkpt>
<trkpt lat="40.0713749" lon="-105.229789">
  <ele>1583.0</ele>
  <time>2026-08-28T17:50:34Z</time>
  <course>247.59</course>
  <speed>0.0316227766016838</speed>
  <fix>3d</fix>
</trkpt>
<trkpt lat="40.0713749" lon="-105.229789">
  <ele>1583.0</ele>
  <time>2026-08-28T17:50:34Z</time>
  <course>0.0</course>
  <speed>0.0</speed>
  <fix>3d</fix>
</trkpt>
<trkpt lat="40.0713749" lon="-105.229789">
  <ele>1582.92</ele>
  <time>2026-08-28T17:50:34Z</time>
  <course>247.59</course>
  <speed>0.0</speed>
  <fix>3d</fix>
</trkpt>
<trkpt lat="40.0713749" lon="-105.229789">
  <ele>1583.0</ele>
  <time>2026-08-28T17:50:34Z</time>
  <course>0.0</course>
  <speed>0.0</speed>
  <fix>3d</fix>
</trkpt>
<trkpt lat="40.0713749" lon="-105.229789">
  <ele>1582.92</ele>
  <time>2026-08-28T17:50:34Z</time>
  <course>247.59</course>
  <speed>0.0</speed>
  <fix>3d</fix>
</trkpt>
<trkpt lat="40.0713749" lon="-105.229789">
  <ele>1583.0</ele>
  <time>2026-08-28T17:50:34Z</time>
  <course>0.0</course>
  <speed>0.0</speed>
  <fix>3d</fix>
</trkpt>
<trkpt lat="40.0713749" lon="-105.229789">
  <ele>1582.91</ele>
  <time>2026-08-28T17:50:34Z</time>
  <course>247.58</course>
  <speed>0.0</speed>
  <fix>3d</fix>
</trkpt>
<trkpt lat="40.0713749" lon="-105.229789">
  <ele>1583.0</ele>
  <time>2026-08-28T17:50:34Z</time>
  <course>0.0</course>
  <speed>0.0</speed>
  <fix>3d</fix>
</trkpt>
<trkpt lat="40.0713749" lon="-105.229789">
  <ele>1582.91</ele>
  <time>2026-08-28T17:50:34Z</time>
  <course>247.58</course>
  <speed>0.0</speed>
  <fix>3d</fix>
</trkpt>
<trkpt lat="40.0713749" lon="-105.229789">
  <ele>1583.0</ele>
  <time>2026-08-28T17:50:34Z</time>
  <course>0.0</course>
  <speed>0.0</speed>
  <fix>3d</fix>
</trkpt>
<trkpt lat="40.0713749" lon="-105.229789">
  <ele>1582.9</ele>
  <time>2026-08-28T17:50:34Z</time>
  <course>247.58</course>
  <speed>0.0</speed>
  <fix>3d</fix>
</trkpt>
<trkpt lat="40.0713749" lon="-105.229789">
  <ele>1583.0</ele>
  <time>2026-08-28T17:50:34Z</time>
  <course>0.0</course>
  <speed>0.0</speed>
  <fix>3d</fix>
</trkpt>
<trkpt lat="40.0713749" lon="-105.229789">
  <ele>1582.9</ele>
  <time>2026-08-28T17:50:34Z</time>
  <course>247.58</course>
  <speed>0.0</speed>
  <fix>3d</fix>
</trkpt>
<trkpt lat="40.0713749" lon="-105.229789">
  <ele>1583.0</ele>
  <time>2026-08-28T17:50:34Z</time>
  <course>0.0</course>
  <speed>0.0</speed>
  <fix>3d</fix>
</trkpt>
<trkpt lat="40.0713749" lon="-105.229789">
  <ele>1582.9</ele>
  <time>2026-08-28T17:50:34Z</time>
  <course>247.57</course>
  <speed>0.0</speed>
  <fix>3d</fix>
</trkpt>
<trkpt lat="40.0713749" lon="-105.229789">
  <ele>1583.0</ele>
  <time>2026-08-28T17:50:34Z</time>
  <course>0.0</course>
  <speed>0.0</speed>
  <fix>3d</fix>
</trkpt>
<trkpt lat="40.0713749" lon="-105.229789">
  <ele>1582.9</ele>
  <time>2026-08-28T17:50:35Z</time>
  <course>247.57</course>
  <speed>0.0</speed>
  <fix>3d</fix>
</trkpt>
<trkpt lat="40.0713749" lon="-105.229789">
  <ele>1583.0</ele>
  <time>2026-08-28T17:50:35Z</time>
  <course>0.0</course>
  <speed>0.0</speed>
  <fix>3d</fix>
</trkpt>
<trkpt lat="40.0713749" lon="-105.229789">
  <ele>1582.9</ele>
  <time>2026-08-28T17:50:35Z</time>
  <course>247.57</course>
  <speed>0.0</speed>
  <fix>3d</fix>
</trkpt>
<trkpt lat="40.0713749" lon="-105.229789">
  <ele>1583.0</ele>
  <time>2026-08-28T17:50:35Z</time>
  <course>0.0</course>
  <speed>0.0</speed>
  <fix>3d</fix>
</trkpt>
<trkpt lat="40.0713749" lon="-105.229789">
  <ele>1582.9</ele>
  <time>2026-08-28T17:50:35Z</time>
  <course>247.57</course>
  <speed>0.01</speed>
  <fix>3d</fix>
</trkpt>
<trkpt lat="40.0713749" lon="-105.229789">
  <ele>1583.0</ele>
  <time>2026-08-28T17:50:35Z</time>
  <course>0.0</course>
  <speed>0.0</speed>
  <fix>3d</fix>
</trkpt>
<trkpt lat="40.0713749" lon="-105.229789">
  <ele>1582.9</ele>
  <time>2026-08-28T17:50:35Z</time>
  <course>247.56</course>
  <speed>0.01</speed>
  <fix>3d</fix>
</trkpt>
<trkpt lat="40.0713749" lon="-105.229789">
  <ele>1583.0</ele>
  <time>2026-08-28T17:50:35Z</time>
  <course>0.0</course>
  <speed>0.0</speed>
  <fix>3d</fix>
</trkpt>
<trkpt lat="40.0713749" lon="-105.229789">
  <ele>1582.91</ele>
  <time>2026-08-28T17:50:35Z</time>
  <course>247.56</course>
  <speed>0.01</speed>
  <fix>3d</fix>
</trkpt>
<trkpt lat="40.0713749" lon="-105.229789">
  <ele>1583.0</ele>
  <time>2026-08-28T17:50:35Z</time>
  <course>0.0</course>
  <speed>0.0</speed>
  <fix>3d</fix>
</trkpt>
<trkpt lat="40.0713749" lon="-105.229789">
  <ele>1582.91</ele>
  <time>2026-08-28T17:50:35Z</time>
  <course>247.56</course>
  <speed>0.01</speed>
  <fix>3d</fix>
</trkpt>
<trkpt lat="40.0713749" lon="-105.229789">
  <ele>1583.0</ele>
  <time>2026-08-28T17:50:35Z</time>
  <course>0.0</course>
  <speed>0.0</speed>
  <fix>3d</fix>
</trkpt>
<trkpt lat="40.0713749" lon="-105.229789">
  <ele>1582.92</ele>
  <time>2026-08-28T17:50:35Z</time>
  <course>247.56</course>
  <speed>0.01</speed>
  <fix>3d</fix>
</trkpt>
<trkpt lat="40.0713749" lon="-105.229789">
  <ele>1583.0</ele>
  <time>2026-08-28T17:50:35Z</time>
  <course>0.0</course>
  <speed>0.0</speed>
  <fix>3d</fix>
</trkpt>
<trkpt lat="40.0713749" lon="-105.229789">
  <ele>1582.92</ele>
  <time>2026-08-28T17:50:35Z</time>
  <course>247.55</course>
  <speed>0.01</speed>
  <fix>3d</fix>
</trkpt>
<trkpt lat="40.0713749" lon="-105.229789">
  <ele>1583.0</ele>
  <time>2026-08-28T17:50:35Z</time>
  <course>0.0</course>
  <speed>0.0</speed>
  <fix>3d</fix>
</trkpt>
<trkpt lat="40.0713749" lon="-105.229789">
  <ele>1582.92</ele>
  <time>2026-08-28T17:50:35Z</time>
  <course>247.55</course>
  <speed>0.01</speed>
  <fix>3d</fix>
</trkpt>
<trkpt lat="40.0713749" lon="-105.229789">
  <ele>1583.0</ele>
  <time>2026-08-28T17:50:35Z</time>
  <course>0.0</course>
  <speed>0.0</speed>
  <fix>3d</fix>
</trkpt>
<trkpt lat="40.0713749" lon="-105.229789">
  <ele>1582.93</ele>
  <time>2026-08-28T17:50:35Z</time>
  <course>247.55</course>
  <speed>0.01</speed>
  <fix>3d</fix>
</trkpt>
<trkpt lat="40.0713749" lon="-105.229789">
  <ele>1583.0</ele>
  <time>2026-08-28T17:50:35Z</time>
  <course>0.0</course>
  <speed>0.0</speed>
  <fix>3d</fix>
</trkpt>
<trkpt lat="40.0713749" lon="-105.229789">
  <ele>1582.93</ele>
  <time>2026-08-28T17:50:35Z</time>
  <course>247.55</course>
  <speed>0.01</speed>
  <fix>3d</fix>
</trkpt>
<trkpt lat="40.0713749" lon="-105.229789">
  <ele>1583.0</ele>
  <time>2026-08-28T17:50:35Z</time>
  <course>0.0</course>
  <speed>0.0</speed>
  <fix>3d</fix>
</trkpt>
<trkpt lat="40.0713749" lon="-105.229789">
  <ele>1582.93</ele>
  <time>2026-08-28T17:50:35Z</time>
  <course>247.54</course>
  <speed>0.02</speed>
  <fix>3d</fix>
</trkpt>
<trkpt lat="40.0713749" lon="-105.229789">
  <ele>1583.0</ele>
  <time>2026-08-28T17:50:35Z</time>
  <course>0.0</course>
  <speed>0.0</speed>
  <fix>3d</fix>
</trkpt>
<trkpt lat="40.0713749" lon="-105.229789">
  <ele>1582.93</ele>
  <time>2026-08-28T17:50:35Z</time>
  <course>247.54</course>
  <speed>0.02</speed>
  <fix>3d</fix>
</trkpt>
<trkpt lat="40.0713749" lon="-105.229789">
  <ele>1583.0</ele>
  <time>2026-08-28T17:50:35Z</time>
  <course>0.0</course>
  <speed>0.0</speed>
  <fix>3d</fix>
</trkpt>
<trkpt lat="40.0713749" lon="-105.229789">
  <ele>1582.93</ele>
  <time>2026-08-28T17:50:35Z</time>
  <course>247.54</course>
  <speed>0.02</speed>
  <fix>3d</fix>
</trkpt>
<trkpt lat="40.0713749" lon="-105.229789">
  <ele>1583.0</ele>
  <time>2026-08-28T17:50:35Z</time>
  <course>0.0</course>
  <speed>0.0</speed>
  <fix>3d</fix>
</trkpt>
<trkpt lat="40.0713749" lon="-105.229789">
  <ele>1582.93</ele>
  <time>2026-08-28T17:50:35Z</time>
  <course>247.54</course>
  <speed>0.022360679774997897</speed>
  <fix>3d</fix>
</trkpt>
<trkpt lat="40.0713749" lon="-105.229789">
  <ele>1583.0</ele>
  <time>2026-08-28T17:50:35Z</time>
  <course>0.0</course>
  <speed>0.0</speed>
  <fix>3d</fix>
</trkpt>
<trkpt lat="40.0713749" lon="-105.229789">
  <ele>1582.94</ele>
  <time>2026-08-28T17:50:35Z</time>
  <course>247.53</course>
  <speed>0.022360679774997897</speed>
  <fix>3d</fix>
</trkpt>
<trkpt lat="40.0713749" lon="-105.229789">
  <ele>1583.0</ele>
  <time>2026-08-28T17:50:35Z</time>
  <course>0.0</course>
  <speed>0.0</speed>
  <fix>3d</fix>
</trkpt>
<trkpt lat="40.0713749" lon="-105.229789">
  <ele>1582.94</ele>
  <time>2026-08-28T17:50:35Z</time>
  <course>247.53</course>
  <speed>0.022360679774997897</speed>
  <fix>3d</fix>
</trkpt>
<trkpt lat="40.0713749" lon="-105.229789">
  <ele>1583.0</ele>
  <time>2026-08-28T17:50:35Z</time>
  <course>0.0</course>
  <speed>0.0</speed>
  <fix>3d</fix>
</trkpt>
<trkpt lat="40.071375" lon="-105.229789">
  <ele>1582.94</ele>
  <time>2026-08-28T17:50:35Z</time>
  <course>247.53</course>
  <speed>0.022360679774997897</speed>
  <fix>3d</fix>
</trkpt>
<trkpt lat="40.0713749" lon="-105.229789">
  <ele>1583.0</ele>
  <time>2026-08-28T17:50:35Z</time>
  <course>0.0</course>
  <speed>0.0</speed>
  <fix>3d</fix>
</trkpt>
<trkpt lat="40.071375" lon="-105.229789">
  <ele>1582.95</ele>
  <time>2026-08-28T17:50:35Z</time>
  <course>247.53</course>
  <speed>0.022360679774997897</speed>
  <fix>3d</fix>
</trkpt>
<trkpt lat="40.0713749" lon="-105.229789">
  <ele>1583.0</ele>
  <time>2026-08-28T17:50:35Z</time>
  <course>0.0</course>
  <speed>0.0</speed>
  <fix>3d</fix>
</trkpt>
<trkpt lat="40.071375" lon="-105.229789">
  <ele>1582.95</ele>
  <time>2026-08-28T17:50:35Z</time>
  <course>247.53</course>
  <speed>0.022360679774997897</speed>
  <fix>3d</fix>
</trkpt>
<trkpt lat="40.0713749" lon="-105.229789">
  <ele>1583.0</ele>
  <time>2026-08-28T17:50:35Z</time>
  <course>0.0</course>
  <speed>0.0</speed>
  <fix>3d</fix>
</trkpt>
<trkpt lat="40.071375" lon="-105.229789">
  <ele>1582.95</ele>
  <time>2026-08-28T17:50:35Z</time>
  <course>247.52</course>
  <speed>0.022360679774997897</speed>
  <fix>3d</fix>
</trkpt>
<trkpt lat="40.0713749" lon="-105.229789">
  <ele>1583.0</ele>
  <time>2026-08-28T17:50:35Z</time>
  <course>0.0</course>
  <speed>0.0</speed>
  <fix>3d</fix>
</trkpt>
<trkpt lat="40.071375" lon="-105.229789">
  <ele>1582.95</ele>
  <time>2026-08-28T17:50:35Z</time>
  <course>247.52</course>
  <speed>0.022360679774997897</speed>
  <fix>3d</fix>
</trkpt>
<trkpt lat="40.0713749" lon="-105.229789">
  <ele>1583.0</ele>
  <time>2026-08-28T17:50:35Z</time>
  <course>0.0</course>
  <speed>0.0</speed>
  <fix>3d</fix>
</trkpt>
<trkpt lat="40.071375" lon="-105.229789">
  <ele>1582.95</ele>
  <time>2026-08-28T17:50:35Z</time>
  <course>247.52</course>
  <speed>0.022360679774997897</speed>
  <fix>3d</fix>
</trkpt>
<trkpt lat="40.0713749" lon="-105.229789">
  <ele>1583.0</ele>
  <time>2026-08-28T17:50:35Z</time>
  <course>0.0</course>
  <speed>0.0</speed>
  <fix>3d</fix>
</trkpt>
<trkpt lat="40.071375" lon="-105.229789">
  <ele>1582.95</ele>
  <time>2026-08-28T17:50:35Z</time>
  <course>247.52</course>
  <speed>0.022360679774997897</speed>
  <fix>3d</fix>
</trkpt>
<trkpt lat="40.0713749" lon="-105.229789">
  <ele>1583.0</ele>
  <time>2026-08-28T17:50:35Z</time>
  <course>0.0</course>
  <speed>0.0</speed>
  <fix>3d</fix>
</trkpt>
<trkpt lat="40.071375" lon="-105.229789">
  <ele>1582.95</ele>
  <time>2026-08-28T17:50:35Z</time>
  <course>247.51</course>
  <speed>0.0316227766016838</speed>
  <fix>3d</fix>
</trkpt>
<trkpt lat="40.0713749" lon="-105.229789">
  <ele>1583.0</ele>
  <time>2026-08-28T17:50:35Z</time>
  <course>0.0</course>
  <speed>0.0</speed>
  <fix>3d</fix>
</trkpt>
<trkpt lat="40.071375" lon="-105.229789">
  <ele>1582.95</ele>
  <time>2026-08-28T17:50:35Z</time>
  <course>247.51</course>
  <speed>0.0316227766016838</speed>
  <fix>3d</fix>
</trkpt>
<trkpt lat="40.0713749" lon="-105.229789">
  <ele>1583.0</ele>
  <time>2026-08-28T17:50:35Z</time>
  <course>0.0</course>
  <speed>0.0</speed>
  <fix>3d</fix>
</trkpt>
<trkpt lat="40.071375" lon="-105.229789">
  <ele>1582.95</ele>
  <time>2026-08-28T17:50:35Z</time>
  <course>247.51</course>
  <speed>0.0316227766016838</speed>
  <fix>3d</fix>
</trkpt>
<trkpt lat="40.0713749" lon="-105.229789">
  <ele>1583.0</ele>
  <time>2026-08-28T17:50:35Z</time>
  <course>0.0</course>
  <speed>0.0</speed>
  <fix>3d</fix>
</trkpt>
<trkpt lat="40.071375" lon="-105.2297889">
  <ele>1582.95</ele>
  <time>2026-08-28T17:50:35Z</time>
  <course>247.51</course>
  <speed>0.0316227766016838</speed>
  <fix>3d</fix>
</trkpt>
<trkpt lat="40.0713749" lon="-105.229789">
  <ele>1583.0</ele>
  <time>2026-08-28T17:50:35Z</time>
  <course>0.0</course>
  <speed>0.0</speed>
  <fix>3d</fix>
</trkpt>
<trkpt lat="40.071375" lon="-105.2297889">
  <ele>1582.95</ele>
  <time>2026-08-28T17:50:35Z</time>
  <course>247.51</course>
  <speed>0.0316227766016838</speed>
  <fix>3d</fix>
</trkpt>
<trkpt lat="40.0713749" lon="-105.229789">
  <ele>1583.0</ele>
  <time>2026-08-28T17:50:35Z</time>
  <course>0.0</course>
  <speed>0.0</speed>
  <fix>3d</fix>
</trkpt>
<trkpt lat="40.071375" lon="-105.2297889">
  <ele>1582.95</ele>
  <time>2026-08-28T17:50:35Z</time>
  <course>247.5</course>
  <speed>0.0316227766016838</speed>
  <fix>3d</fix>
</trkpt>
<trkpt lat="40.0713749" lon="-105.229789">
  <ele>1583.0</ele>
  <time>2026-08-28T17:50:35Z</time>
  <course>0.0</course>
  <speed>0.0</speed>
  <fix>3d</fix>
</trkpt>
<trkpt lat="40.071375" lon="-105.2297889">
  <ele>1582.95</ele>
  <time>2026-08-28T17:50:35Z</time>
  <course>247.5</course>
  <speed>0.0316227766016838</speed>
  <fix>3d</fix>
</trkpt>
<trkpt lat="40.0713749" lon="-105.229789">
  <ele>1583.0</ele>
  <time>2026-08-28T17:50:35Z</time>
  <course>0.0</course>
  <speed>0.0</speed>
  <fix>3d</fix>
</trkpt>
<trkpt lat="40.071375" lon="-105.2297889">
  <ele>1582.95</ele>
  <time>2026-08-28T17:50:35Z</time>
  <course>247.5</course>
  <speed>0.0316227766016838</speed>
  <fix>3d</fix>
</trkpt>
<trkpt lat="40.0713749" lon="-105.229789">
  <ele>1583.0</ele>
  <time>2026-08-28T17:50:35Z</time>
  <course>0.0</course>
  <speed>0.0</speed>
  <fix>3d</fix>
</trkpt>
<trkpt lat="40.0713751" lon="-105.2297889">
  <ele>1582.95</ele>
  <time>2026-08-28T17:50:35Z</time>
  <course>247.5</course>
  <speed>0.0316227766016838</speed>
  <fix>3d</fix>
</trkpt>
<trkpt lat="40.0713749" lon="-105.229789">
  <ele>1583.0</ele>
  <time>2026-08-28T17:50:35Z</time>
  <course>0.0</course>
  <speed>0.0</speed>
  <fix>3d</fix>
</trkpt>
<trkpt lat="40.0713751" lon="-105.2297889">
  <ele>1582.96</ele>
  <time>2026-08-28T17:50:35Z</time>
  <course>247.49</course>
  <speed>0.0316227766016838</speed>
  <fix>3d</fix>
</trkpt>
<trkpt lat="40.0713749" lon="-105.229789">
  <ele>1583.0</ele>
  <time>2026-08-28T17:50:35Z</time>
  <course>0.0</course>
  <speed>0.0</speed>
  <fix>3d</fix>
</trkpt>
<trkpt lat="40.0713751" lon="-105.2297889">
  <ele>1582.96</ele>
  <time>2026-08-28T17:50:35Z</time>
  <course>247.49</course>
  <speed>0.0316227766016838</speed>
  <fix>3d</fix>
</trkpt>
<trkpt lat="40.0713749" lon="-105.229789">
  <ele>1583.0</ele>
  <time>2026-08-28T17:50:35Z</time>
  <course>0.0</course>
  <speed>0.0</speed>
  <fix>3d</fix>
</trkpt>
<trkpt lat="40.0713751" lon="-105.2297889">
  <ele>1582.97</ele>
  <time>2026-08-28T17:50:35Z</time>
  <course>247.49</course>
  <speed>0.0316227766016838</speed>
  <fix>3d</fix>
</trkpt>
<trkpt lat="40.0713749" lon="-105.229789">
  <ele>1583.0</ele>
  <time>2026-08-28T17:50:35Z</time>
  <course>0.0</course>
  <speed>0.0</speed>
  <fix>3d</fix>
</trkpt>
<trkpt lat="40.0713751" lon="-105.2297889">
  <ele>1582.98</ele>
  <time>2026-08-28T17:50:35Z</time>
  <course>247.49</course>
  <speed>0.0316227766016838</speed>
  <fix>3d</fix>
</trkpt>
<trkpt lat="40.0713749" lon="-105.229789">
  <ele>1583.0</ele>
  <time>2026-08-28T17:50:35Z</time>
  <course>0.0</course>
  <speed>0.0</speed>
  <fix>3d</fix>
</trkpt>
<trkpt lat="40.0713751" lon="-105.2297889">
  <ele>1582.98</ele>
  <time>2026-08-28T17:50:35Z</time>
  <course>247.49</course>
  <speed>0.0316227766016838</speed>
  <fix>3d</fix>
</trkpt>
<trkpt lat="40.0713749" lon="-105.229789">
  <ele>1583.0</ele>
  <time>2026-08-28T17:50:35Z</time>
  <course>0.0</course>
  <speed>0.0</speed>
  <fix>3d</fix>
</trkpt>
<trkpt lat="39.655741" lon="-104.1383097">
  <ele>1566.58</ele>
  <time>2026-08-28T17:50:35Z</time>
  <course>0.0</course>
  <speed>0.0</speed>
  <fix>3d</fix>
</trkpt>
<trkpt lat="40.0713749" lon="-105.229789">
  <ele>1583.0</ele>
  <time>2026-08-28T17:50:35Z</time>
  <course>0.0</course>
  <speed>0.0</speed>
  <fix>3d</fix>
</trkpt>
<trkpt lat="40.0713749" lon="-105.229789">
  <ele>1583.0</ele>
  <time>2026-08-28T17:50:35Z</time>
  <course>238.36</course>
  <speed>0.0</speed>
  <fix>3d</fix>
</trkpt>
<trkpt lat="40.0713749" lon="-105.229789">
  <ele>1583.0</ele>
  <time>2026-08-28T17:50:35Z</time>
  <course>0.0</course>
  <speed>0.0</speed>
  <fix>3d</fix>
</trkpt>
<trkpt lat="40.0713749" lon="-105.229789">
  <ele>1583.0</ele>
  <time>2026-08-28T17:50:35Z</time>
  <course>238.44</course>
  <speed>0.0</speed>
  <fix>3d</fix>
</trkpt>
<trkpt lat="40.0713749" lon="-105.229789">
  <ele>1583.0</ele>
  <time>2026-08-28T17:50:35Z</time>
  <course>0.0</course>
  <speed>0.0</speed>
  <fix>3d</fix>
</trkpt>
<trkpt lat="40.0713749" lon="-105.229789">
  <ele>1583.0</ele>
  <time>2026-08-28T17:50:35Z</time>
  <course>238.64</course>
  <speed>0.0</speed>
  <fix>3d</fix>
</trkpt>
<trkpt lat="40.0713749" lon="-105.229789">
  <ele>1583.0</ele>
  <time>2026-08-28T17:50:35Z</time>
  <course>0.0</course>
  <speed>0.0</speed>
  <fix>3d</fix>
</trkpt>
<trkpt lat="40.0713749" lon="-105.229789">
  <ele>1583.0</ele>
  <time>2026-08-28T17:50:35Z</time>
  <course>238.93</course>
  <speed>0.0</speed>
  <fix>3d</fix>
</trkpt>
<trkpt lat="40.0713749" lon="-105.229789">
  <ele>1583.0</ele>
  <time>2026-08-28T17:50:35Z</time>
  <course>0.0</course>
  <speed>0.0</speed>
  <fix>3d</fix>
</trkpt>
<trkpt lat="40.0713749" lon="-105.229789">
  <ele>1583.0</ele>
  <time>2026-08-28T17:50:35Z</time>
  <course>239.26</course>
  <speed>0.0</speed>
  <fix>3d</fix>
</trkpt>
<trkpt lat="40.0713749" lon="-105.229789">
  <ele>1583.0</ele>
  <time>2026-08-28T17:50:35Z</time>
  <course>0.0</course>
  <speed>0.0</speed>
  <fix>3d</fix>
</trkpt>
<trkpt lat="40.0713749" lon="-105.229789">
  <ele>1583.0</ele>
  <time>2026-08-28T17:50:35Z</time>
  <course>239.61</course>
  <speed>0.0</speed>
  <fix>3d</fix>
</trkpt>
<trkpt lat="40.0713749" lon="-105.229789">
  <ele>1583.0</ele>
  <time>2026-08-28T17:50:35Z</time>
  <course>0.0</course>
  <speed>0.0</speed>
  <fix>3d</fix>
</trkpt>
<trkpt lat="40.0713749" lon="-105.229789">
  <ele>1583.0</ele>
  <time>2026-08-28T17:50:35Z</time>
  <course>239.96</course>
  <speed>0.0</speed>
  <fix>3d</fix>
</trkpt>
<trkpt lat="40.0713749" lon="-105.229789">
  <ele>1583.0</ele>
  <time>2026-08-28T17:50:35Z</time>
  <course>0.0</course>
  <speed>0.0</speed>
  <fix>3d</fix>
</trkpt>
<trkpt lat="40.0713749" lon="-105.229789">
  <ele>1583.0</ele>
  <time>2026-08-28T17:50:35Z</time>
  <course>240.29</course>
  <speed>0.0</speed>
  <fix>3d</fix>
</trkpt>
<trkpt lat="40.0713749" lon="-105.229789">
  <ele>1583.0</ele>
  <time>2026-08-28T17:50:35Z</time>
  <course>0.0</course>
  <speed>0.0</speed>
  <fix>3d</fix>
</trkpt>
<trkpt lat="40.0713749" lon="-105.229789">
  <ele>1583.0</ele>
  <time>2026-08-28T17:50:35Z</time>
  <course>240.61</course>
  <speed>0.0</speed>
  <fix>3d</fix>
</trkpt>
<trkpt lat="40.0713749" lon="-105.229789">
  <ele>1583.0</ele>
  <time>2026-08-28T17:50:35Z</time>
  <course>0.0</course>
  <speed>0.0</speed>
  <fix>3d</fix>
</trkpt>
<trkpt lat="40.0713749" lon="-105.229789">
  <ele>1583.0</ele>
  <time>2026-08-28T17:50:35Z</time>
  <course>240.92</course>
  <speed>0.0</speed>
  <fix>3d</fix>
</trkpt>
<trkpt lat="40.0713749" lon="-105.229789">
  <ele>1583.0</ele>
  <time>2026-08-28T17:50:35Z</time>
  <course>0.0</course>
  <speed>0.0</speed>
  <fix>3d</fix>
</trkpt>
<trkpt lat="40.0713749" lon="-105.229789">
  <ele>1583.0</ele>
  <time>2026-08-28T17:50:35Z</time>
  <course>241.21</course>
  <speed>0.0</speed>
  <fix>3d</fix>
</trkpt>
<trkpt lat="40.0713749" lon="-105.229789">
  <ele>1583.0</ele>
  <time>2026-08-28T17:50:35Z</time>
  <course>0.0</course>
  <speed>0.0</speed>
  <fix>3d</fix>
</trkpt>
<trkpt lat="40.0713749" lon="-105.229789">
  <ele>1583.0</ele>
  <time>2026-08-28T17:50:35Z</time>
  <course>241.49</course>
  <speed>0.0</speed>
  <fix>3d</fix>
</trkpt>
<trkpt lat="40.0713749" lon="-105.229789">
  <ele>1583.0</ele>
  <time>2026-08-28T17:50:35Z</time>
  <course>0.0</course>
  <speed>0.0</speed>
  <fix>3d</fix>
</trkpt>
<trkpt lat="40.0713749" lon="-105.229789">
  <ele>1583.0</ele>
  <time>2026-08-28T17:50:35Z</time>
  <course>241.77</course>
  <speed>0.0</speed>
  <fix>3d</fix>
</trkpt>
<trkpt lat="40.0713749" lon="-105.229789">
  <ele>1583.0</ele>
  <time>2026-08-28T17:50:35Z</time>
  <course>0.0</course>
  <speed>0.0</speed>
  <fix>3d</fix>
</trkpt>
<trkpt lat="40.0713749" lon="-105.229789">
  <ele>1583.0</ele>
  <time>2026-08-28T17:50:35Z</time>
  <course>242.03</course>
  <speed>0.0</speed>
  <fix>3d</fix>
</trkpt>
<trkpt lat="40.0713749" lon="-105.229789">
  <ele>1583.0</ele>
  <time>2026-08-28T17:50:35Z</time>
  <course>0.0</course>
  <speed>0.0</speed>
  <fix>3d</fix>
</trkpt>
<trkpt lat="40.0713749" lon="-105.229789">
  <ele>1583.0</ele>
  <time>2026-08-28T17:50:35Z</time>
  <course>242.29</course>
  <speed>0.0</speed>
  <fix>3d</fix>
</trkpt>
<trkpt lat="40.0713749" lon="-105.229789">
  <ele>1583.0</ele>
  <time>2026-08-28T17:50:35Z</time>
  <course>0.0</course>
  <speed>0.0</speed>
  <fix>3d</fix>
</trkpt>
<trkpt lat="40.0713749" lon="-105.229789">
  <ele>1583.0</ele>
  <time>2026-08-28T17:50:35Z</time>
  <course>242.54</course>
  <speed>0.0</speed>
  <fix>3d</fix>
</trkpt>
<trkpt lat="40.0713749" lon="-105.229789">
  <ele>1583.0</ele>
  <time>2026-08-28T17:50:35Z</time>
  <course>0.0</course>
  <speed>0.0</speed>
  <fix>3d</fix>
</trkpt>
<trkpt lat="40.0713749" lon="-105.229789">
  <ele>1583.0</ele>
  <time>2026-08-28T17:50:35Z</time>
  <course>242.79</course>
  <speed>0.0</speed>
  <fix>3d</fix>
</trkpt>
<trkpt lat="40.0713749" lon="-105.229789">
  <ele>1583.0</ele>
  <time>2026-08-28T17:50:35Z</time>
  <course>0.0</course>
  <speed>0.0</speed>
  <fix>3d</fix>
</trkpt>
<trkpt lat="40.0713749" lon="-105.229789">
  <ele>1583.0</ele>
  <time>2026-08-28T17:50:35Z</time>
  <course>243.02</course>
  <speed>0.0</speed>
  <fix>3d</fix>
</trkpt>
<trkpt lat="40.0713749" lon="-105.229789">
  <ele>1583.0</ele>
  <time>2026-08-28T17:50:35Z</time>
  <course>0.0</course>
  <speed>0.0</speed>
  <fix>3d</fix>
</trkpt>
<trkpt lat="40.0713749" lon="-105.229789">
  <ele>1583.0</ele>
  <time>2026-08-28T17:50:35Z</time>
  <course>243.25</course>
  <speed>0.0</speed>
  <fix>3d</fix>
</trkpt>
<trkpt lat="40.0713749" lon="-105.229789">
  <ele>1583.0</ele>
  <time>2026-08-28T17:50:35Z</time>
  <course>0.0</course>
  <speed>0.0</speed>
  <fix>3d</fix>
</trkpt>
<trkpt lat="40.0713749" lon="-105.229789">
  <ele>1583.0</ele>
  <time>2026-08-28T17:50:35Z</time>
  <course>243.47</course>
  <speed>0.0</speed>
  <fix>3d</fix>
</trkpt>
<trkpt lat="40.0713749" lon="-105.229789">
  <ele>1583.0</ele>
  <time>2026-08-28T17:50:35Z</time>
  <course>0.0</course>
  <speed>0.0</speed>
  <fix>3d</fix>
</trkpt>
<trkpt lat="40.0713749" lon="-105.229789">
  <ele>1583.0</ele>
  <time>2026-08-28T17:50:35Z</time>
  <course>243.68</course>
  <speed>0.0</speed>
  <fix>3d</fix>
</trkpt>
<trkpt lat="40.0713749" lon="-105.229789">
  <ele>1583.0</ele>
  <time>2026-08-28T17:50:35Z</time>
  <course>0.0</course>
  <speed>0.0</speed>
  <fix>3d</fix>
</trkpt>
<trkpt lat="40.0713749" lon="-105.229789">
  <ele>1583.0</ele>
  <time>2026-08-28T17:50:35Z</time>
  <course>243.89</course>
  <speed>0.0</speed>
  <fix>3d</fix>
</trkpt>
<trkpt lat="40.0713749" lon="-105.229789">
  <ele>1583.0</ele>
  <time>2026-08-28T17:50:35Z</time>
  <course>0.0</course>
  <speed>0.0</speed>
  <fix>3d</fix>
</trkpt>
<trkpt lat="40.0713749" lon="-105.229789">
  <ele>1583.0</ele>
  <time>2026-08-28T17:50:35Z</time>
  <course>244.09</course>
  <speed>0.0</speed>
  <fix>3d</fix>
</trkpt>
<trkpt lat="40.0713749" lon="-105.229789">
  <ele>1583.0</ele>
  <time>2026-08-28T17:50:35Z</time>
  <course>0.0</course>
  <speed>0.0</speed>
  <fix>3d</fix>
</trkpt>
<trkpt lat="40.0713749" lon="-105.229789">
  <ele>1583.0</ele>
  <time>2026-08-28T17:50:35Z</time>
  <course>244.28</course>
  <speed>0.0</speed>
  <fix>3d</fix>
</trkpt>
<trkpt lat="40.0713749" lon="-105.229789">
  <ele>1583.0</ele>
  <time>2026-08-28T17:50:35Z</time>
  <course>0.0</course>
  <speed>0.0</speed>
  <fix>3d</fix>
</trkpt>
<trkpt lat="40.0713749" lon="-105.229789">
  <ele>1583.0</ele>
  <time>2026-08-28T17:50:35Z</time>
  <course>244.46</course>
  <speed>0.0</speed>
  <fix>3d</fix>
</trkpt>
<trkpt lat="40.0713749" lon="-105.229789">
  <ele>1583.0</ele>
  <time>2026-08-28T17:50:35Z</time>
  <course>0.0</course>
  <speed>0.0</speed>
  <fix>3d</fix>
</trkpt>
<trkpt lat="40.0713749" lon="-105.229789">
  <ele>1583.0</ele>
  <time>2026-08-28T17:50:35Z</time>
  <course>244.64</course>
  <speed>0.0</speed>
  <fix>3d</fix>
</trkpt>
<trkpt lat="40.0713749" lon="-105.229789">
  <ele>1583.0</ele>
  <time>2026-08-28T17:50:35Z</time>
  <course>0.0</course>
  <speed>0.0</speed>
  <fix>3d</fix>
</trkpt>
<trkpt lat="40.0713749" lon="-105.229789">
  <ele>1583.0</ele>
  <time>2026-08-28T17:50:35Z</time>
  <course>244.81</course>
  <speed>0.0</speed>
  <fix>3d</fix>
</trkpt>
<trkpt lat="40.0713749" lon="-105.229789">
  <ele>1583.0</ele>
  <time>2026-08-28T17:50:35Z</time>
  <course>0.0</course>
  <speed>0.0</speed>
  <fix>3d</fix>
</trkpt>
<trkpt lat="40.0713749" lon="-105.229789">
  <ele>1583.0</ele>
  <time>2026-08-28T17:50:35Z</time>
  <course>244.97</course>
  <speed>0.0</speed>
  <fix>3d</fix>
</trkpt>
<trkpt lat="40.0713749" lon="-105.229789">
  <ele>1583.0</ele>
  <time>2026-08-28T17:50:35Z</time>
  <course>0.0</course>
  <speed>0.0</speed>
  <fix>3d</fix>
</trkpt>
<trkpt lat="40.0713749" lon="-105.229789">
  <ele>1583.0</ele>
  <time>2026-08-28T17:50:35Z</time>
  <course>245.13</course>
  <speed>0.0</speed>
  <fix>3d</fix>
</trkpt>
<trkpt lat="40.0713749" lon="-105.229789">
  <ele>1583.0</ele>
  <time>2026-08-28T17:50:35Z</time>
  <course>0.0</course>
  <speed>0.0</speed>
  <fix>3d</fix>
</trkpt>
<trkpt lat="40.0713749" lon="-105.229789">
  <ele>1583.0</ele>
  <time>2026-08-28T17:50:36Z</time>
  <course>245.29</course>
  <speed>0.0</speed>
  <fix>3d</fix>
</trkpt>
<trkpt lat="40.0713749" lon="-105.229789">
  <ele>1583.0</ele>
  <time>2026-08-28T17:50:36Z</time>
  <course>0.0</course>
  <speed>0.0</speed>
  <fix>3d</fix>
</trkpt>
<trkpt lat="40.0713749" lon="-105.229789">
  <ele>1583.0</ele>
  <time>2026-08-28T17:50:36Z</time>
  <course>245.43</course>
  <speed>0.0</speed>
  <fix>3d</fix>
</trkpt>
<trkpt lat="40.0713749" lon="-105.229789">
  <ele>1583.0</ele>
  <time>2026-08-28T17:50:36Z</time>
  <course>0.0</course>
  <speed>0.0</speed>
  <fix>3d</fix>
</trkpt>
<trkpt lat="40.0713749" lon="-105.229789">
  <ele>1583.0</ele>
  <time>2026-08-28T17:50:36Z</time>
  <course>245.57</course>
  <speed>0.0</speed>
  <fix>3d</fix>
</trkpt>
<trkpt lat="40.0713749" lon="-105.229789">
  <ele>1583.0</ele>
  <time>2026-08-28T17:50:36Z</time>
  <course>0.0</course>
  <speed>0.0</speed>
  <fix>3d</fix>
</trkpt>
<trkpt lat="40.0713749" lon="-105.229789">
  <ele>1583.0</ele>
  <time>2026-08-28T17:50:36Z</time>
  <course>245.71</course>
  <speed>0.0</speed>
  <fix>3d</fix>
</trkpt>
<trkpt lat="40.0713749" lon="-105.229789">
  <ele>1583.0</ele>
  <time>2026-08-28T17:50:36Z</time>
  <course>0.0</course>
  <speed>0.0</speed>
  <fix>3d</fix>
</trkpt>
<trkpt lat="40.0713749" lon="-105.229789">
  <ele>1583.0</ele>
  <time>2026-08-28T17:50:36Z</time>
  <course>245.84</course>
  <speed>0.0</speed>
  <fix>3d</fix>
</trkpt>
<trkpt lat="40.0713749" lon="-105.229789">
  <ele>1583.0</ele>
  <time>2026-08-28T17:50:36Z</time>
  <course>0.0</course>
  <speed>0.0</speed>
  <fix>3d</fix>
</trkpt>
<trkpt lat="40.0713749" lon="-105.229789">
  <ele>1583.0</ele>
  <time>2026-08-28T17:50:36Z</time>
  <course>245.96</course>
  <speed>0.0</speed>
  <fix>3d</fix>
</trkpt>
<trkpt lat="40.0713749" lon="-105.229789">
  <ele>1583.0</ele>
  <time>2026-08-28T17:50:36Z</time>
  <course>0.0</course>
  <speed>0.0</speed>
  <fix>3d</fix>
</trkpt>
<trkpt lat="40.0713749" lon="-105.229789">
  <ele>1583.0</ele>
  <time>2026-08-28T17:50:36Z</time>
  <course>246.08</course>
  <speed>0.0</speed>
  <fix>3d</fix>
</trkpt>
<trkpt lat="40.0713749" lon="-105.229789">
  <ele>1583.0</ele>
  <time>2026-08-28T17:50:36Z</time>
  <course>0.0</course>
  <speed>0.0</speed>
  <fix>3d</fix>
</trkpt>
<trkpt lat="40.0713749" lon="-105.229789">
  <ele>1583.0</ele>
  <time>2026-08-28T17:50:36Z</time>
  <course>246.19</course>
  <speed>0.0</speed>
  <fix>3d</fix>
</trkpt>
<trkpt lat="40.0713749" lon="-105.229789">
  <ele>1583.0</ele>
  <time>2026-08-28T17:50:36Z</time>
  <course>0.0</course>
  <speed>0.0</speed>
  <fix>3d</fix>
</trkpt>
<trkpt lat="40.0713749" lon="-105.229789">
  <ele>1583.0</ele>
  <time>2026-08-28T17:50:36Z</time>
  <course>246.3</course>
  <speed>0.0</speed>
  <fix>3d</fix>
</trkpt>
<trkpt lat="40.0713749" lon="-105.229789">
  <ele>1583.0</ele>
  <time>2026-08-28T17:50:36Z</time>
  <course>0.0</course>
  <speed>0.0</speed>
  <fix>3d</fix>
</trkpt>
<trkpt lat="40.0713749" lon="-105.229789">
  <ele>1583.0</ele>
  <time>2026-08-28T17:50:36Z</time>
  <course>246.41</course>
  <speed>0.0</speed>
  <fix>3d</fix>
</trkpt>
<trkpt lat="40.0713749" lon="-105.229789">
  <ele>1583.0</ele>
  <time>2026-08-28T17:50:36Z</time>
  <course>0.0</course>
  <speed>0.0</speed>
  <fix>3d</fix>
</trkpt>
<trkpt lat="40.0713749" lon="-105.229789">
  <ele>1583.0</ele>
  <time>2026-08-28T17:50:36Z</time>
  <course>246.51</course>
  <speed>0.0</speed>
  <fix>3d</fix>
</trkpt>
<trkpt lat="40.0713749" lon="-105.229789">
  <ele>1583.0</ele>
  <time>2026-08-28T17:50:36Z</time>
  <course>0.0</course>
  <speed>0.0</speed>
  <fix>3d</fix>
</trkpt>
<trkpt lat="40.0713749" lon="-105.229789">
  <ele>1583.0</ele>
  <time>2026-08-28T17:50:36Z</time>
  <course>246.6</course>
  <speed>0.0</speed>
  <fix>3d</fix>
</trkpt>
<trkpt lat="40.0713749" lon="-105.229789">
  <ele>1583.0</ele>
  <time>2026-08-28T17:50:36Z</time>
  <course>0.0</course>
  <speed>0.0</speed>
  <fix>3d</fix>
</trkpt>
<trkpt lat="40.0713749" lon="-105.229789">
  <ele>1583.0</ele>
  <time>2026-08-28T17:50:36Z</time>
  <course>246.7</course>
  <speed>0.0</speed>
  <fix>3d</fix>
</trkpt>
<trkpt lat="40.0713749" lon="-105.229789">
  <ele>1583.0</ele>
  <time>2026-08-28T17:50:36Z</time>
  <course>0.0</course>
  <speed>0.0</speed>
  <fix>3d</fix>
</trkpt>
<trkpt lat="40.0713749" lon="-105.229789">
  <ele>1583.0</ele>
  <time>2026-08-28T17:50:36Z</time>
  <course>246.78</course>
  <speed>0.0</speed>
  <fix>3d</fix>
</trkpt>
<trkpt lat="40.0713749" lon="-105.229789">
  <ele>1583.0</ele>
  <time>2026-08-28T17:50:36Z</time>
  <course>0.0</course>
  <speed>0.0</speed>
  <fix>3d</fix>
</trkpt>
<trkpt lat="40.0713749" lon="-105.229789">
  <ele>1583.0</ele>
  <time>2026-08-28T17:50:36Z</time>
  <course>246.87</course>
  <speed>0.0</speed>
  <fix>3d</fix>
</trkpt>
<trkpt lat="40.0713749" lon="-105.229789">
  <ele>1583.0</ele>
  <time>2026-08-28T17:50:36Z</time>
  <course>0.0</course>
  <speed>0.0</speed>
  <fix>3d</fix>
</trkpt>
<trkpt lat="40.0713749" lon="-105.229789">
  <ele>1583.0</ele>
  <time>2026-08-28T17:50:36Z</time>
  <course>246.95</course>
  <speed>0.0</speed>
  <fix>3d</fix>
</trkpt>
<trkpt lat="40.0713749" lon="-105.229789">
  <ele>1583.0</ele>
  <time>2026-08-28T17:50:36Z</time>
  <course>0.0</course>
  <speed>0.0</speed>
  <fix>3d</fix>
</trkpt>
<trkpt lat="40.0713749" lon="-105.229789">
  <ele>1583.0</ele>
  <time>2026-08-28T17:50:36Z</time>
  <course>247.02</course>
  <speed>0.0</speed>
  <fix>3d</fix>
</trkpt>
<trkpt lat="40.0713749" lon="-105.229789">
  <ele>1583.0</ele>
  <time>2026-08-28T17:50:36Z</time>
  <course>0.0</course>
  <speed>0.0</speed>
  <fix>3d</fix>
</trkpt>
<trkpt lat="40.0713749" lon="-105.229789">
  <ele>1583.0</ele>
  <time>2026-08-28T17:50:36Z</time>
  <course>247.1</course>
  <speed>0.0</speed>
  <fix>3d</fix>
</trkpt>
<trkpt lat="40.0713749" lon="-105.229789">
  <ele>1583.0</ele>
  <time>2026-08-28T17:50:36Z</time>
  <course>0.0</course>
  <speed>0.0</speed>
  <fix>3d</fix>
</trkpt>
<trkpt lat="40.0713749" lon="-105.229789">
  <ele>1583.0</ele>
  <time>2026-08-28T17:50:36Z</time>
  <course>247.17</course>
  <speed>0.0</speed>
  <fix>3d</fix>
</trkpt>
<trkpt lat="40.0713749" lon="-105.229789">
  <ele>1583.0</ele>
  <time>2026-08-28T17:50:36Z</time>
  <course>0.0</course>
  <speed>0.0</speed>
  <fix>3d</fix>
</trkpt>
<trkpt lat="40.0713749" lon="-105.229789">
  <ele>1583.0</ele>
  <time>2026-08-28T17:50:36Z</time>
  <course>247.24</course>
  <speed>0.0</speed>
  <fix>3d</fix>
</trkpt>
<trkpt lat="40.0713749" lon="-105.229789">
  <ele>1583.0</ele>
  <time>2026-08-28T17:50:36Z</time>
  <course>0.0</course>
  <speed>0.0</speed>
  <fix>3d</fix>
</trkpt>
<trkpt lat="40.0713749" lon="-105.229789">
  <ele>1583.0</ele>
  <time>2026-08-28T17:50:36Z</time>
  <course>247.3</course>
  <speed>0.0</speed>
  <fix>3d</fix>
</trkpt>
<trkpt lat="40.0713749" lon="-105.229789">
  <ele>1583.0</ele>
  <time>2026-08-28T17:50:36Z</time>
  <course>0.0</course>
  <speed>0.0</speed>
  <fix>3d</fix>
</trkpt>
<trkpt lat="40.0713749" lon="-105.229789">
  <ele>1583.0</ele>
  <time>2026-08-28T17:50:36Z</time>
  <course>247.36</course>
  <speed>0.0</speed>
  <fix>3d</fix>
</trkpt>
<trkpt lat="40.0713749" lon="-105.229789">
  <ele>1583.0</ele>
  <time>2026-08-28T17:50:36Z</time>
  <course>0.0</course>
  <speed>0.0</speed>
  <fix>3d</fix>
</trkpt>
<trkpt lat="40.0713749" lon="-105.229789">
  <ele>1583.0</ele>
  <time>2026-08-28T17:50:36Z</time>
  <course>247.42</course>
  <speed>0.0</speed>
  <fix>3d</fix>
</trkpt>
<trkpt lat="40.0713749" lon="-105.229789">
  <ele>1583.0</ele>
  <time>2026-08-28T17:50:36Z</time>
  <course>0.0</course>
  <speed>0.0</speed>
  <fix>3d</fix>
</trkpt>
<trkpt lat="40.0713749" lon="-105.229789">
  <ele>1583.0</ele>
  <time>2026-08-28T17:50:36Z</time>
  <course>247.47</course>
  <speed>0.0</speed>
  <fix>3d</fix>
</trkpt>
<trkpt lat="40.0713749" lon="-105.229789">
  <ele>1583.0</ele>
  <time>2026-08-28T17:50:36Z</time>
  <course>0.0</course>
  <speed>0.0</speed>
  <fix>3d</fix>
</trkpt>
<trkpt lat="40.0713749" lon="-105.229789">
  <ele>1583.0</ele>
  <time>2026-08-28T17:50:36Z</time>
  <course>247.53</course>
  <speed>0.0</speed>
  <fix>3d</fix>
</trkpt>
<trkpt lat="40.0713749" lon="-105.229789">
  <ele>1583.0</ele>
  <time>2026-08-28T17:50:36Z</time>
  <course>0.0</course>
  <speed>0.0</speed>
  <fix>3d</fix>
</trkpt>
<trkpt lat="40.0713749" lon="-105.229789">
  <ele>1583.0</ele>
  <time>2026-08-28T17:50:36Z</time>
  <course>247.58</course>
  <speed>0.0</speed>
  <fix>3d</fix>
</trkpt>
<trkpt lat="40.0713749" lon="-105.229789">
  <ele>1583.0</ele>
  <time>2026-08-28T17:50:36Z</time>
  <course>0.0</course>
  <speed>0.0</speed>
  <fix>3d</fix>
</trkpt>
<trkpt lat="40.0713749" lon="-105.229789">
  <ele>1583.0</ele>
  <time>2026-08-28T17:50:36Z</time>
  <course>247.63</course>
  <speed>0.0</speed>
  <fix>3d</fix>
</trkpt>
<trkpt lat="40.0713749" lon="-105.229789">
  <ele>1583.0</ele>
  <time>2026-08-28T17:50:36Z</time>
  <course>0.0</course>
  <speed>0.0</speed>
  <fix>3d</fix>
</trkpt>
<trkpt lat="40.0713749" lon="-105.229789">
  <ele>1583.0</ele>
  <time>2026-08-28T17:50:36Z</time>
  <course>247.67</course>
  <speed>0.0</speed>
  <fix>3d</fix>
</trkpt>
<trkpt lat="40.0713749" lon="-105.229789">
  <ele>1583.0</ele>
  <time>2026-08-28T17:50:36Z</time>
  <course>0.0</course>
  <speed>0.0</speed>
  <fix>3d</fix>
</trkpt>
<trkpt lat="40.0713749" lon="-105.229789">
  <ele>1583.0</ele>
  <time>2026-08-28T17:50:36Z</time>
  <course>247.72</course>
  <speed>0.0</speed>
  <fix>3d</fix>
</trkpt>
<trkpt lat="40.0713749" lon="-105.229789">
  <ele>1583.0</ele>
  <time>2026-08-28T17:50:36Z</time>
  <course>0.0</course>
  <speed>0.0</speed>
  <fix>3d</fix>
</trkpt>
<trkpt lat="40.0713749" lon="-105.229789">
  <ele>1583.0</ele>
  <time>2026-08-28T17:50:36Z</time>
  <course>247.76</course>
  <speed>0.0</speed>
  <fix>3d</fix>
</trkpt>
<trkpt lat="40.0713749" lon="-105.229789">
  <ele>1583.0</ele>
  <time>2026-08-28T17:50:36Z</time>
  <course>0.0</course>
  <speed>0.0</speed>
  <fix>3d</fix>
</trkpt>
<trkpt lat="40.0713749" lon="-105.229789">
  <ele>1583.0</ele>
  <time>2026-08-28T17:50:36Z</time>
  <course>247.8</course>
  <speed>0.0</speed>
  <fix>3d</fix>
</trkpt>
<trkpt lat="40.0713749" lon="-105.229789">
  <ele>1583.0</ele>
  <time>2026-08-28T17:50:36Z</time>
  <course>0.0</course>
  <speed>0.0</speed>
  <fix>3d</fix>
</trkpt>
<trkpt lat="40.0713749" lon="-105.229789">
  <ele>1583.0</ele>
  <time>2026-08-28T17:50:36Z</time>
  <course>247.83</course>
  <speed>0.0</speed>
  <fix>3d</fix>
</trkpt>
<trkpt lat="40.0713749" lon="-105.229789">
  <ele>1583.0</ele>
  <time>2026-08-28T17:50:36Z</time>
  <course>0.0</course>
  <speed>0.0</speed>
  <fix>3d</fix>
</trkpt>
<trkpt lat="40.0713749" lon="-105.229789">
  <ele>1583.0</ele>
  <time>2026-08-28T17:50:36Z</time>
  <course>247.87</course>
  <speed>0.0</speed>
  <fix>3d</fix>
</trkpt>
<trkpt lat="40.0713749" lon="-105.229789">
  <ele>1583.0</ele>
  <time>2026-08-28T17:50:36Z</time>
  <course>0.0</course>
  <speed>0.0</speed>
  <fix>3d</fix>
</trkpt>
<trkpt lat="40.0713749" lon="-105.229789">
  <ele>1583.0</ele>
  <time>2026-08-28T17:50:36Z</time>
  <course>247.9</course>
  <speed>0.0</speed>
  <fix>3d</fix>
</trkpt>
<trkpt lat="40.0713749" lon="-105.229789">
  <ele>1583.0</ele>
  <time>2026-08-28T17:50:36Z</time>
  <course>0.0</course>
  <speed>0.0</speed>
  <fix>3d</fix>
</trkpt>
<trkpt lat="40.0713749" lon="-105.229789">
  <ele>1583.0</ele>
  <time>2026-08-28T17:50:36Z</time>
  <course>247.94</course>
  <speed>0.0</speed>
  <fix>3d</fix>
</trkpt>
<trkpt lat="40.0713749" lon="-105.229789">
  <ele>1583.0</ele>
  <time>2026-08-28T17:50:36Z</time>
  <course>0.0</course>
  <speed>0.0</speed>
  <fix>3d</fix>
</trkpt>
<trkpt lat="40.0713749" lon="-105.229789">
  <ele>1583.0</ele>
  <time>2026-08-28T17:50:36Z</time>
  <course>247.97</course>
  <speed>0.0</speed>
  <fix>3d</fix>
</trkpt>
<trkpt lat="40.0713749" lon="-105.229789">
  <ele>1583.0</ele>
  <time>2026-08-28T17:50:36Z</time>
  <course>0.0</course>
  <speed>0.0</speed>
  <fix>3d</fix>
</trkpt>
<trkpt lat="40.0713749" lon="-105.229789">
  <ele>1583.0</ele>
  <time>2026-08-28T17:50:36Z</time>
  <course>248.0</course>
  <speed>0.0</speed>
  <fix>3d</fix>
</trkpt>
<trkpt lat="40.0713749" lon="-105.229789">
  <ele>1583.0</ele>
  <time>2026-08-28T17:50:36Z</time>
  <course>0.0</course>
  <speed>0.0</speed>
  <fix>3d</fix>
</trkpt>
<trkpt lat="40.0713749" lon="-105.229789">
  <ele>1583.0</ele>
  <time>2026-08-28T17:50:36Z</time>
  <course>248.02</course>
  <speed>0.0</speed>
  <fix>3d</fix>
</trkpt>
<trkpt lat="40.0713749" lon="-105.229789">
  <ele>1583.0</ele>
  <time>2026-08-28T17:50:36Z</time>
  <course>0.0</course>
  <speed>0.0</speed>
  <fix>3d</fix>
</trkpt>
<trkpt lat="40.0713749" lon="-105.229789">
  <ele>1583.0</ele>
  <time>2026-08-28T17:50:36Z</time>
  <course>248.05</course>
  <speed>0.0</speed>
  <fix>3d</fix>
</trkpt>
<trkpt lat="40.0713749" lon="-105.229789">
  <ele>1583.0</ele>
  <time>2026-08-28T17:50:36Z</time>
  <course>0.0</course>
  <speed>0.0</speed>
  <fix>3d</fix>
</trkpt>
<trkpt lat="40.0713749" lon="-105.229789">
  <ele>1583.0</ele>
  <time>2026-08-28T17:50:36Z</time>
  <course>248.08</course>
  <speed>0.0</speed>
  <fix>3d</fix>
</trkpt>
<trkpt lat="40.0713749" lon="-105.229789">
  <ele>1583.0</ele>
  <time>2026-08-28T17:50:36Z</time>
  <course>0.0</course>
  <speed>0.0</speed>
  <fix>3d</fix>
</trkpt>
<trkpt lat="40.0713749" lon="-105.229789">
  <ele>1583.0</ele>
  <time>2026-08-28T17:50:36Z</time>
  <course>248.1</course>
  <speed>0.0</speed>
  <fix>3d</fix>
</trkpt>
<trkpt lat="40.0713749" lon="-105.229789">
  <ele>1583.0</ele>
  <time>2026-08-28T17:50:36Z</time>
  <course>0.0</course>
  <speed>0.0</speed>
  <fix>3d</fix>
</trkpt>
<trkpt lat="40.0713749" lon="-105.229789">
  <ele>1583.0</ele>
  <time>2026-08-28T17:50:36Z</time>
  <course>248.12</course>
  <speed>0.0</speed>
  <fix>3d</fix>
</trkpt>
<trkpt lat="40.0713749" lon="-105.229789">
  <ele>1583.0</ele>
  <time>2026-08-28T17:50:36Z</time>
  <course>0.0</course>
  <speed>0.0</speed>
  <fix>3d</fix>
</trkpt>
<trkpt lat="40.0713749" lon="-105.229789">
  <ele>1583.0</ele>
  <time>2026-08-28T17:50:36Z</time>
  <course>248.14</course>
  <speed>0.0</speed>
  <fix>3d</fix>
</trkpt>
<trkpt lat="40.0713749" lon="-105.229789">
  <ele>1583.0</ele>
  <time>2026-08-28T17:50:36Z</time>
  <course>0.0</course>
  <speed>0.0</speed>
  <fix>3d</fix>
</trkpt>
<trkpt lat="40.0713749" lon="-105.229789">
  <ele>1583.0</ele>
  <time>2026-08-28T17:50:36Z</time>
  <course>248.16</course>
  <speed>0.0</speed>
  <fix>3d</fix>
</trkpt>
<trkpt lat="40.0713749" lon="-105.229789">
  <ele>1583.0</ele>
  <time>2026-08-28T17:50:36Z</time>
  <course>0.0</course>
  <speed>0.0</speed>
  <fix>3d</fix>
</trkpt>
<trkpt lat="40.0713749" lon="-105.229789">
  <ele>1583.0</ele>
  <time>2026-08-28T17:50:36Z</time>
  <course>248.18</course>
  <speed>0.0</speed>
  <fix>3d</fix>
</trkpt>
<trkpt lat="40.0713749" lon="-105.229789">
  <ele>1583.0</ele>
  <time>2026-08-28T17:50:36Z</time>
  <course>0.0</course>
  <speed>0.0</speed>
  <fix>3d</fix>
</trkpt>
<trkpt lat="40.0713749" lon="-105.229789">
  <ele>1583.0</ele>
  <time>2026-08-28T17:50:36Z</time>
  <course>248.2</course>
  <speed>0.0</speed>
  <fix>3d</fix>
</trkpt>
<trkpt lat="40.0713749" lon="-105.229789">
  <ele>1583.0</ele>
  <time>2026-08-28T17:50:36Z</time>
  <course>0.0</course>
  <speed>0.0</speed>
  <fix>3d</fix>
</trkpt>
<trkpt lat="40.0713749" lon="-105.229789">
  <ele>1583.0</ele>
  <time>2026-08-28T17:50:36Z</time>
  <course>248.22</course>
  <speed>0.0</speed>
  <fix>3d</fix>
</trkpt>
<trkpt lat="40.0713749" lon="-105.229789">
  <ele>1583.0</ele>
  <time>2026-08-28T17:50:36Z</time>
  <course>0.0</course>
  <speed>0.0</speed>
  <fix>3d</fix>
</trkpt>
<trkpt lat="40.0713749" lon="-105.229789">
  <ele>1583.0</ele>
  <time>2026-08-28T17:50:36Z</time>
  <course>248.23</course>
  <speed>0.0</speed>
  <fix>3d</fix>
</trkpt>
<trkpt lat="40.0713749" lon="-105.229789">
  <ele>1583.0</ele>
  <time>2026-08-28T17:50:36Z</time>
  <course>0.0</course>
  <speed>0.0</speed>
  <fix>3d</fix>
</trkpt>
<trkpt lat="40.0713749" lon="-105.229789">
  <ele>1583.0</ele>
  <time>2026-08-28T17:50:36Z</time>
  <course>248.25</course>
  <speed>0.0</speed>
  <fix>3d</fix>
</trkpt>
<trkpt lat="40.0713749" lon="-105.229789">
  <ele>1583.0</ele>
  <time>2026-08-28T17:50:36Z</time>
  <course>0.0</course>
  <speed>0.0</speed>
  <fix>3d</fix>
</trkpt>
<trkpt lat="40.0713749" lon="-105.229789">
  <ele>1583.0</ele>
  <time>2026-08-28T17:50:36Z</time>
  <course>248.26</course>
  <speed>0.0</speed>
  <fix>3d</fix>
</trkpt>
<trkpt lat="40.0713749" lon="-105.229789">
  <ele>1583.0</ele>
  <time>2026-08-28T17:50:36Z</time>
  <course>0.0</course>
  <speed>0.0</speed>
  <fix>3d</fix>
</trkpt>
<trkpt lat="40.0713749" lon="-105.229789">
  <ele>1583.0</ele>
  <time>2026-08-28T17:50:36Z</time>
  <course>248.28</course>
  <speed>0.0</speed>
  <fix>3d</fix>
</trkpt>
<trkpt lat="40.0713749" lon="-105.229789">
  <ele>1583.0</ele>
  <time>2026-08-28T17:50:36Z</time>
  <course>0.0</course>
  <speed>0.0</speed>
  <fix>3d</fix>
</trkpt>
<trkpt lat="40.0713749" lon="-105.229789">
  <ele>1583.0</ele>
  <time>2026-08-28T17:50:36Z</time>
  <course>248.29</course>
  <speed>0.0</speed>
  <fix>3d</fix>
</trkpt>
<trkpt lat="40.0713749" lon="-105.229789">
  <ele>1583.0</ele>
  <time>2026-08-28T17:50:36Z</time>
  <course>0.0</course>
  <speed>0.0</speed>
  <fix>3d</fix>
</trkpt>
<trkpt lat="40.0713749" lon="-105.229789">
  <ele>1583.0</ele>
  <time>2026-08-28T17:50:36Z</time>
  <course>248.3</course>
  <speed>0.0</speed>
  <fix>3d</fix>
</trkpt>
<trkpt lat="40.0713749" lon="-105.229789">
  <ele>1583.0</ele>
  <time>2026-08-28T17:50:36Z</time>
  <course>0.0</course>
  <speed>0.0</speed>
  <fix>3d</fix>
</trkpt>
<trkpt lat="40.0713749" lon="-105.229789">
  <ele>1583.0</ele>
  <time>2026-08-28T17:50:36Z</time>
  <course>248.31</course>
  <speed>0.0</speed>
  <fix>3d</fix>
</trkpt>
<trkpt lat="40.0713749" lon="-105.229789">
  <ele>1583.0</ele>
  <time>2026-08-28T17:50:36Z</time>
  <course>0.0</course>
  <speed>0.0</speed>
  <fix>3d</fix>
</trkpt>
<trkpt lat="40.0713749" lon="-105.229789">
  <ele>1583.0</ele>
  <time>2026-08-28T17:50:36Z</time>
  <course>248.32</course>
  <speed>0.0</speed>
  <fix>3d</fix>
</trkpt>
<trkpt lat="40.0713749" lon="-105.229789">
  <ele>1583.0</ele>
  <time>2026-08-28T17:50:36Z</time>
  <course>0.0</course>
  <speed>0.0</speed>
  <fix>3d</fix>
</trkpt>
<trkpt lat="40.0713749" lon="-105.229789">
  <ele>1583.0</ele>
  <time>2026-08-28T17:50:36Z</time>
  <course>248.33</course>
  <speed>0.0</speed>
  <fix>3d</fix>
</trkpt>
<trkpt lat="40.0713749" lon="-105.229789">
  <ele>1583.0</ele>
  <time>2026-08-28T17:50:36Z</time>
  <course>0.0</course>
  <speed>0.0</speed>
  <fix>3d</fix>
</trkpt>
<trkpt lat="40.0713749" lon="-105.229789">
  <ele>1583.0</ele>
  <time>2026-08-28T17:50:36Z</time>
  <course>248.34</course>
  <speed>0.0</speed>
  <fix>3d</fix>
</trkpt>
<trkpt lat="40.0713749" lon="-105.229789">
  <ele>1583.0</ele>
  <time>2026-08-28T17:50:36Z</time>
  <course>0.0</course>
  <speed>0.0</speed>
  <fix>3d</fix>
</trkpt>
<trkpt lat="40.0713749" lon="-105.229789">
  <ele>1583.0</ele>
  <time>2026-08-28T17:50:36Z</time>
  <course>248.35</course>
  <speed>0.0</speed>
  <fix>3d</fix>
</trkpt>
<trkpt lat="40.0713749" lon="-105.229789">
  <ele>1583.0</ele>
  <time>2026-08-28T17:50:36Z</time>
  <course>0.0</course>
  <speed>0.0</speed>
  <fix>3d</fix>
</trkpt>
<trkpt lat="40.0713749" lon="-105.229789">
  <ele>1583.0</ele>
  <time>2026-08-28T17:50:36Z</time>
  <course>248.35</course>
  <speed>0.0</speed>
  <fix>3d</fix>
</trkpt>
<trkpt lat="40.0713749" lon="-105.229789">
  <ele>1583.0</ele>
  <time>2026-08-28T17:50:36Z</time>
  <course>0.0</course>
  <speed>0.0</speed>
  <fix>3d</fix>
</trkpt>
<trkpt lat="40.0713749" lon="-105.229789">
  <ele>1583.0</ele>
  <time>2026-08-28T17:50:36Z</time>
  <course>248.36</course>
  <speed>0.0</speed>
  <fix>3d</fix>
</trkpt>
<trkpt lat="40.0713749" lon="-105.229789">
  <ele>1583.0</ele>
  <time>2026-08-28T17:50:36Z</time>
  <course>0.0</course>
  <speed>0.0</speed>
  <fix>3d</fix>
</trkpt>
<trkpt lat="40.0713749" lon="-105.229789">
  <ele>1583.0</ele>
  <time>2026-08-28T17:50:36Z</time>
  <course>248.37</course>
  <speed>0.0</speed>
  <fix>3d</fix>
</trkpt>
<trkpt lat="40.0713749" lon="-105.229789">
  <ele>1583.0</ele>
  <time>2026-08-28T17:50:36Z</time>
  <course>0.0</course>
  <speed>0.0</speed>
  <fix>3d</fix>
</trkpt>
<trkpt lat="40.0713749" lon="-105.229789">
  <ele>1583.0</ele>
  <time>2026-08-28T17:50:36Z</time>
  <course>248.37</course>
  <speed>0.0</speed>
  <fix>3d</fix>
</trkpt>
<trkpt lat="40.0713749" lon="-105.229789">
  <ele>1583.0</ele>
  <time>2026-08-28T17:50:36Z</time>
  <course>0.0</course>
  <speed>0.0</speed>
  <fix>3d</fix>
</trkpt>
<trkpt lat="40.0713749" lon="-105.229789">
  <ele>1583.0</ele>
  <time>2026-08-28T17:50:36Z</time>
  <course>248.38</course>
  <speed>0.0</speed>
  <fix>3d</fix>
</trkpt>
<trkpt lat="40.0713749" lon="-105.229789">
  <ele>1583.0</ele>
  <time>2026-08-28T17:50:36Z</time>
  <course>0.0</course>
  <speed>0.0</speed>
  <fix>3d</fix>
</trkpt>
<trkpt lat="40.0713749" lon="-105.229789">
  <ele>1583.0</ele>
  <time>2026-08-28T17:50:36Z</time>
  <course>248.38</course>
  <speed>0.0</speed>
  <fix>3d</fix>
</trkpt>
<trkpt lat="40.0713749" lon="-105.229789">
  <ele>1583.0</ele>
  <time>2026-08-28T17:50:36Z</time>
  <course>0.0</course>
  <speed>0.0</speed>
  <fix>3d</fix>
</trkpt>
<trkpt lat="40.0713749" lon="-105.229789">
  <ele>1583.0</ele>
  <time>2026-08-28T17:50:36Z</time>
  <course>248.39</course>
  <speed>0.0</speed>
  <fix>3d</fix>
</trkpt>
<trkpt lat="40.0713749" lon="-105.229789">
  <ele>1583.0</ele>
  <time>2026-08-28T17:50:36Z</time>
  <course>0.0</course>
  <speed>0.0</speed>
  <fix>3d</fix>
</trkpt>
<trkpt lat="40.0713749" lon="-105.229789">
  <ele>1583.0</ele>
  <time>2026-08-28T17:50:36Z</time>
  <course>248.39</course>
  <speed>0.0</speed>
  <fix>3d</fix>
</trkpt>
<trkpt lat="40.0713749" lon="-105.229789">
  <ele>1583.0</ele>
  <time>2026-08-28T17:50:36Z</time>
  <course>0.0</course>
  <speed>0.0</speed>
  <fix>3d</fix>
</trkpt>
<trkpt lat="40.0713749" lon="-105.229789">
  <ele>1583.0</ele>
  <time>2026-08-28T17:50:36Z</time>
  <course>248.4</course>
  <speed>0.0</speed>
  <fix>3d</fix>
</trkpt>
<trkpt lat="40.0713749" lon="-105.229789">
  <ele>1583.0</ele>
  <time>2026-08-28T17:50:36Z</time>
  <course>0.0</course>
  <speed>0.0</speed>
  <fix>3d</fix>
</trkpt>
<trkpt lat="40.0713749" lon="-105.229789">
  <ele>1583.0</ele>
  <time>2026-08-28T17:50:36Z</time>
  <course>248.4</course>
  <speed>0.0</speed>
  <fix>3d</fix>
</trkpt>
<trkpt lat="40.0713749" lon="-105.229789">
  <ele>1583.0</ele>
  <time>2026-08-28T17:50:36Z</time>
  <course>0.0</course>
  <speed>0.0</speed>
  <fix>3d</fix>
</trkpt>
<trkpt lat="40.0713749" lon="-105.229789">
  <ele>1583.0</ele>
  <time>2026-08-28T17:50:36Z</time>
  <course>248.4</course>
  <speed>0.0</speed>
  <fix>3d</fix>
</trkpt>
<trkpt lat="40.0713749" lon="-105.229789">
  <ele>1583.0</ele>
  <time>2026-08-28T17:50:36Z</time>
  <course>0.0</course>
  <speed>0.0</speed>
  <fix>3d</fix>
</trkpt>
<trkpt lat="40.0713749" lon="-105.229789">
  <ele>1583.0</ele>
  <time>2026-08-28T17:50:36Z</time>
  <course>248.4</course>
  <speed>0.0</speed>
  <fix>3d</fix>
</trkpt>
<trkpt lat="40.0713749" lon="-105.229789">
  <ele>1583.0</ele>
  <time>2026-08-28T17:50:36Z</time>
  <course>0.0</course>
  <speed>0.0</speed>
  <fix>3d</fix>
</trkpt>
<trkpt lat="40.0713749" lon="-105.229789">
  <ele>1583.0</ele>
  <time>2026-08-28T17:50:36Z</time>
  <course>248.41</course>
  <speed>0.0</speed>
  <fix>3d</fix>
</trkpt>
<trkpt lat="40.0713749" lon="-105.229789">
  <ele>1583.0</ele>
  <time>2026-08-28T17:50:36Z</time>
  <course>0.0</course>
  <speed>0.0</speed>
  <fix>3d</fix>
</trkpt>
<trkpt lat="40.0713749" lon="-105.229789">
  <ele>1583.0</ele>
  <time>2026-08-28T17:50:36Z</time>
  <course>248.41</course>
  <speed>0.0</speed>
  <fix>3d</fix>
</trkpt>
<trkpt lat="40.0713749" lon="-105.229789">
  <ele>1583.0</ele>
  <time>2026-08-28T17:50:36Z</time>
  <course>0.0</course>
  <speed>0.0</speed>
  <fix>3d</fix>
</trkpt>
<trkpt lat="40.0713749" lon="-105.229789">
  <ele>1583.0</ele>
  <time>2026-08-28T17:50:36Z</time>
  <course>248.41</course>
  <speed>0.0</speed>
  <fix>3d</fix>
</trkpt>
<trkpt lat="40.0713749" lon="-105.229789">
  <ele>1583.0</ele>
  <time>2026-08-28T17:50:36Z</time>
  <course>0.0</course>
  <speed>0.0</speed>
  <fix>3d</fix>
</trkpt>
<trkpt lat="40.0713749" lon="-105.229789">
  <ele>1583.0</ele>
  <time>2026-08-28T17:50:36Z</time>
  <course>248.41</course>
  <speed>0.0</speed>
  <fix>3d</fix>
</trkpt>
<trkpt lat="40.0713749" lon="-105.229789">
  <ele>1583.0</ele>
  <time>2026-08-28T17:50:36Z</time>
  <course>0.0</course>
  <speed>0.0</speed>
  <fix>3d</fix>
</trkpt>
<trkpt lat="40.0713749" lon="-105.229789">
  <ele>1583.0</ele>
  <time>2026-08-28T17:50:36Z</time>
  <course>248.41</course>
  <speed>0.0</speed>
  <fix>3d</fix>
</trkpt>
<trkpt lat="40.0713749" lon="-105.229789">
  <ele>1583.0</ele>
  <time>2026-08-28T17:50:36Z</time>
  <course>0.0</course>
  <speed>0.0</speed>
  <fix>3d</fix>
</trkpt>
<trkpt lat="40.0713749" lon="-105.229789">
  <ele>1583.0</ele>
  <time>2026-08-28T17:50:36Z</time>
  <course>248.41</course>
  <speed>0.0</speed>
  <fix>3d</fix>
</trkpt>
<trkpt lat="40.0713749" lon="-105.229789">
  <ele>1583.0</ele>
  <time>2026-08-28T17:50:36Z</time>
  <course>0.0</course>
  <speed>0.0</speed>
  <fix>3d</fix>
</trkpt>
<trkpt lat="40.0713749" lon="-105.229789">
  <ele>1583.0</ele>
  <time>2026-08-28T17:50:36Z</time>
  <course>248.41</course>
  <speed>0.0</speed>
  <fix>3d</fix>
</trkpt>
<trkpt lat="40.0713749" lon="-105.229789">
  <ele>1583.0</ele>
  <time>2026-08-28T17:50:36Z</time>
  <course>0.0</course>
  <speed>0.0</speed>
  <fix>3d</fix>
</trkpt>
<trkpt lat="40.0713749" lon="-105.229789">
  <ele>1583.0</ele>
  <time>2026-08-28T17:50:36Z</time>
  <course>248.41</course>
  <speed>0.0</speed>
  <fix>3d</fix>
</trkpt>
<trkpt lat="40.0713749" lon="-105.229789">
  <ele>1583.0</ele>
  <time>2026-08-28T17:50:36Z</time>
  <course>0.0</course>
  <speed>0.0</speed>
  <fix>3d</fix>
</trkpt>
<trkpt lat="40.0713749" lon="-105.229789">
  <ele>1583.0</ele>
  <time>2026-08-28T17:50:36Z</time>
  <course>248.41</course>
  <speed>0.0</speed>
  <fix>3d</fix>
</trkpt>
<trkpt lat="40.0713749" lon="-105.229789">
  <ele>1583.0</ele>
  <time>2026-08-28T17:50:36Z</time>
  <course>0.0</course>
  <speed>0.0</speed>
  <fix>3d</fix>
</trkpt>
<trkpt lat="40.0713749" lon="-105.229789">
  <ele>1583.0</ele>
  <time>2026-08-28T17:50:36Z</time>
  <course>248.41</course>
  <speed>0.0</speed>
  <fix>3d</fix>
</trkpt>
<trkpt lat="40.0713749" lon="-105.229789">
  <ele>1583.0</ele>
  <time>2026-08-28T17:50:36Z</time>
  <course>0.0</course>
  <speed>0.0</speed>
  <fix>3d</fix>
</trkpt>
<trkpt lat="40.0713749" lon="-105.229789">
  <ele>1583.0</ele>
  <time>2026-08-28T17:50:36Z</time>
  <course>248.41</course>
  <speed>0.0</speed>
  <fix>3d</fix>
</trkpt>
<trkpt lat="40.0713749" lon="-105.229789">
  <ele>1583.0</ele>
  <time>2026-08-28T17:50:36Z</time>
  <course>0.0</course>
  <speed>0.0</speed>
  <fix>3d</fix>
</trkpt>
<trkpt lat="40.0713749" lon="-105.229789">
  <ele>1583.0</ele>
  <time>2026-08-28T17:50:36Z</time>
  <course>248.41</course>
  <speed>0.0</speed>
  <fix>3d</fix>
</trkpt>
<trkpt lat="40.0713749" lon="-105.229789">
  <ele>1583.0</ele>
  <time>2026-08-28T17:50:36Z</time>
  <course>0.0</course>
  <speed>0.0</speed>
  <fix>3d</fix>
</trkpt>
<trkpt lat="40.0713749" lon="-105.229789">
  <ele>1583.0</ele>
  <time>2026-08-28T17:50:36Z</time>
  <course>248.41</course>
  <speed>0.0</speed>
  <fix>3d</fix>
</trkpt>
<trkpt lat="40.0713749" lon="-105.229789">
  <ele>1583.0</ele>
  <time>2026-08-28T17:50:36Z</time>
  <course>0.0</course>
  <speed>0.0</speed>
  <fix>3d</fix>
</trkpt>
<trkpt lat="40.0713749" lon="-105.229789">
  <ele>1583.0</ele>
  <time>2026-08-28T17:50:36Z</time>
  <course>248.41</course>
  <speed>0.0</speed>
  <fix>3d</fix>
</trkpt>
<trkpt lat="40.0713749" lon="-105.229789">
  <ele>1583.0</ele>
  <time>2026-08-28T17:50:36Z</time>
  <course>0.0</course>
  <speed>0.0</speed>
  <fix>3d</fix>
</trkpt>
<trkpt lat="40.0713749" lon="-105.229789">
  <ele>1583.0</ele>
  <time>2026-08-28T17:50:36Z</time>
  <course>248.41</course>
  <speed>0.0</speed>
  <fix>3d</fix>
</trkpt>
<trkpt lat="40.0713749" lon="-105.229789">
  <ele>1583.0</ele>
  <time>2026-08-28T17:50:36Z</time>
  <course>0.0</course>
  <speed>0.0</speed>
  <fix>3d</fix>
</trkpt>
<trkpt lat="40.0713749" lon="-105.229789">
  <ele>1583.0</ele>
  <time>2026-08-28T17:50:36Z</time>
  <course>248.41</course>
  <speed>0.0</speed>
  <fix>3d</fix>
</trkpt>
<trkpt lat="40.0713749" lon="-105.229789">
  <ele>1583.0</ele>
  <time>2026-08-28T17:50:36Z</time>
  <course>0.0</course>
  <speed>0.0</speed>
  <fix>3d</fix>
</trkpt>
<trkpt lat="40.0713749" lon="-105.229789">
  <ele>1583.0</ele>
  <time>2026-08-28T17:50:36Z</time>
  <course>248.4</course>
  <speed>0.0</speed>
  <fix>3d</fix>
</trkpt>
<trkpt lat="40.0713749" lon="-105.229789">
  <ele>1583.0</ele>
  <time>2026-08-28T17:50:36Z</time>
  <course>0.0</course>
  <speed>0.0</speed>
  <fix>3d</fix>
</trkpt>
<trkpt lat="40.0713749" lon="-105.229789">
  <ele>1583.0</ele>
  <time>2026-08-28T17:50:36Z</time>
  <course>248.4</course>
  <speed>0.01</speed>
  <fix>3d</fix>
</trkpt>
<trkpt lat="40.0713749" lon="-105.229789">
  <ele>1583.0</ele>
  <time>2026-08-28T17:50:36Z</time>
  <course>0.0</course>
  <speed>0.0</speed>
  <fix>3d</fix>
</trkpt>
<trkpt lat="40.0713749" lon="-105.229789">
  <ele>1583.0</ele>
  <time>2026-08-28T17:50:36Z</time>
  <course>248.4</course>
  <speed>0.01</speed>
  <fix>3d</fix>
</trkpt>
<trkpt lat="40.0713749" lon="-105.229789">
  <ele>1583.0</ele>
  <time>2026-08-28T17:50:36Z</time>
  <course>0.0</course>
  <speed>0.0</speed>
  <fix>3d</fix>
</trkpt>
<trkpt lat="40.0713749" lon="-105.229789">
  <ele>1583.0</ele>
  <time>2026-08-28T17:50:36Z</time>
  <course>248.4</course>
  <speed>0.01</speed>
  <fix>3d</fix>
</trkpt>
<trkpt lat="40.0713749" lon="-105.229789">
  <ele>1583.0</ele>
  <time>2026-08-28T17:50:36Z</time>
  <course>0.0</course>
  <speed>0.0</speed>
  <fix>3d</fix>
</trkpt>
<trkpt lat="40.0713749" lon="-105.229789">
  <ele>1583.0</ele>
  <time>2026-08-28T17:50:36Z</time>
  <course>248.4</course>
  <speed>0.01</speed>
  <fix>3d</fix>
</trkpt>
<trkpt lat="40.0713749" lon="-105.229789">
  <ele>1583.0</ele>
  <time>2026-08-28T17:50:36Z</time>
  <course>0.0</course>
  <speed>0.0</speed>
  <fix>3d</fix>
</trkpt>
<trkpt lat="40.0713749" lon="-105.229789">
  <ele>1583.0</ele>
  <time>2026-08-28T17:50:36Z</time>
  <course>248.39</course>
  <speed>0.01</speed>
  <fix>3d</fix>
</trkpt>
<trkpt lat="40.0713749" lon="-105.229789">
  <ele>1583.0</ele>
  <time>2026-08-28T17:50:36Z</time>
  <course>0.0</course>
  <speed>0.0</speed>
  <fix>3d</fix>
</trkpt>
<trkpt lat="40.0713749" lon="-105.229789">
  <ele>1583.0</ele>
  <time>2026-08-28T17:50:36Z</time>
  <course>248.39</course>
  <speed>0.01</speed>
  <fix>3d</fix>
</trkpt>
<trkpt lat="40.0713749" lon="-105.229789">
  <ele>1583.0</ele>
  <time>2026-08-28T17:50:36Z</time>
  <course>0.0</course>
  <speed>0.0</speed>
  <fix>3d</fix>
</trkpt>
<trkpt lat="40.0713749" lon="-105.229789">
  <ele>1583.0</ele>
  <time>2026-08-28T17:50:36Z</time>
  <course>248.39</course>
  <speed>0.01</speed>
  <fix>3d</fix>
</trkpt>
<trkpt lat="40.0713749" lon="-105.229789">
  <ele>1583.0</ele>
  <time>2026-08-28T17:50:36Z</time>
  <course>0.0</course>
  <speed>0.0</speed>
  <fix>3d</fix>
</trkpt>
<trkpt lat="40.0713749" lon="-105.229789">
  <ele>1583.0</ele>
  <time>2026-08-28T17:50:36Z</time>
  <course>248.38</course>
  <speed>0.01</speed>
  <fix>3d</fix>
</trkpt>
<trkpt lat="40.0713749" lon="-105.229789">
  <ele>1583.0</ele>
  <time>2026-08-28T17:50:36Z</time>
  <course>0.0</course>
  <speed>0.0</speed>
  <fix>3d</fix>
</trkpt>
<trkpt lat="40.0713749" lon="-105.229789">
  <ele>1583.0</ele>
  <time>2026-08-28T17:50:36Z</time>
  <course>248.38</course>
  <speed>0.01</speed>
  <fix>3d</fix>
</trkpt>
<trkpt lat="40.0713749" lon="-105.229789">
  <ele>1583.0</ele>
  <time>2026-08-28T17:50:36Z</time>
  <course>0.0</course>
  <speed>0.0</speed>
  <fix>3d</fix>
</trkpt>
<trkpt lat="40.0713749" lon="-105.229789">
  <ele>1583.0</ele>
  <time>2026-08-28T17:50:36Z</time>
  <course>248.38</course>
  <speed>0.01</speed>
  <fix>3d</fix>
</trkpt>
<trkpt lat="40.0713749" lon="-105.229789">
  <ele>1583.0</ele>
  <time>2026-08-28T17:50:36Z</time>
  <course>0.0</course>
  <speed>0.0</speed>
  <fix>3d</fix>
</trkpt>
<trkpt lat="40.0713749" lon="-105.229789">
  <ele>1583.0</ele>
  <time>2026-08-28T17:50:36Z</time>
  <course>248.37</course>
  <speed>0.01</speed>
  <fix>3d</fix>
</trkpt>
<trkpt lat="40.0713749" lon="-105.229789">
  <ele>1583.0</ele>
  <time>2026-08-28T17:50:36Z</time>
  <course>0.0</course>
  <speed>0.0</speed>
  <fix>3d</fix>
</trkpt>
<trkpt lat="40.0713749" lon="-105.229789">
  <ele>1583.0</ele>
  <time>2026-08-28T17:50:36Z</time>
  <course>248.37</course>
  <speed>0.01</speed>
  <fix>3d</fix>
</trkpt>
<trkpt lat="40.0713749" lon="-105.229789">
  <ele>1583.0</ele>
  <time>2026-08-28T17:50:36Z</time>
  <course>0.0</course>
  <speed>0.0</speed>
  <fix>3d</fix>
</trkpt>
<trkpt lat="40.0713749" lon="-105.229789">
  <ele>1583.0</ele>
  <time>2026-08-28T17:50:36Z</time>
  <course>248.37</course>
  <speed>0.01</speed>
  <fix>3d</fix>
</trkpt>
<trkpt lat="40.0713749" lon="-105.229789">
  <ele>1583.0</ele>
  <time>2026-08-28T17:50:36Z</time>
  <course>0.0</course>
  <speed>0.0</speed>
  <fix>3d</fix>
</trkpt>
<trkpt lat="40.0713749" lon="-105.229789">
  <ele>1583.0</ele>
  <time>2026-08-28T17:50:36Z</time>
  <course>248.36</course>
  <speed>0.01</speed>
  <fix>3d</fix>
</trkpt>
<trkpt lat="40.0713749" lon="-105.229789">
  <ele>1583.0</ele>
  <time>2026-08-28T17:50:36Z</time>
  <course>0.0</course>
  <speed>0.0</speed>
  <fix>3d</fix>
</trkpt>
<trkpt lat="40.0713749" lon="-105.229789">
  <ele>1583.0</ele>
  <time>2026-08-28T17:50:36Z</time>
  <course>248.36</course>
  <speed>0.01</speed>
  <fix>3d</fix>
</trkpt>
<trkpt lat="40.0713749" lon="-105.229789">
  <ele>1583.0</ele>
  <time>2026-08-28T17:50:36Z</time>
  <course>0.0</course>
  <speed>0.0</speed>
  <fix>3d</fix>
</trkpt>
<trkpt lat="40.0713749" lon="-105.229789">
  <ele>1583.0</ele>
  <time>2026-08-28T17:50:36Z</time>
  <course>248.36</course>
  <speed>0.01</speed>
  <fix>3d</fix>
</trkpt>
<trkpt lat="40.0713749" lon="-105.229789">
  <ele>1583.0</ele>
  <time>2026-08-28T17:50:36Z</time>
  <course>0.0</course>
  <speed>0.0</speed>
  <fix>3d</fix>
</trkpt>
<trkpt lat="40.0713749" lon="-105.229789">
  <ele>1583.0</ele>
  <time>2026-08-28T17:50:36Z</time>
  <course>248.35</course>
  <speed>0.01</speed>
  <fix>3d</fix>
</trkpt>
<trkpt lat="40.0713749" lon="-105.229789">
  <ele>1583.0</ele>
  <time>2026-08-28T17:50:36Z</time>
  <course>0.0</course>
  <speed>0.0</speed>
  <fix>3d</fix>
</trkpt>
<trkpt lat="40.0713749" lon="-105.229789">
  <ele>1583.0</ele>
  <time>2026-08-28T17:50:36Z</time>
  <course>248.35</course>
  <speed>0.01</speed>
  <fix>3d</fix>
</trkpt>
<trkpt lat="40.0713749" lon="-105.229789">
  <ele>1583.0</ele>
  <time>2026-08-28T17:50:36Z</time>
  <course>0.0</course>
  <speed>0.0</speed>
  <fix>3d</fix>
</trkpt>
<trkpt lat="40.0713749" lon="-105.229789">
  <ele>1583.0</ele>
  <time>2026-08-28T17:50:36Z</time>
  <course>248.35</course>
  <speed>0.01</speed>
  <fix>3d</fix>
</trkpt>
<trkpt lat="40.0713749" lon="-105.229789">
  <ele>1583.0</ele>
  <time>2026-08-28T17:50:36Z</time>
  <course>0.0</course>
  <speed>0.0</speed>
  <fix>3d</fix>
</trkpt>
<trkpt lat="40.0713749" lon="-105.229789">
  <ele>1583.0</ele>
  <time>2026-08-28T17:50:36Z</time>
  <course>248.34</course>
  <speed>0.01</speed>
  <fix>3d</fix>
</trkpt>
<trkpt lat="40.0713749" lon="-105.229789">
  <ele>1583.0</ele>
  <time>2026-08-28T17:50:36Z</time>
  <course>0.0</course>
  <speed>0.0</speed>
  <fix>3d</fix>
</trkpt>
<trkpt lat="40.0713749" lon="-105.229789">
  <ele>1583.0</ele>
  <time>2026-08-28T17:50:36Z</time>
  <course>248.34</course>
  <speed>0.01</speed>
  <fix>3d</fix>
</trkpt>
<trkpt lat="40.0713749" lon="-105.229789">
  <ele>1583.0</ele>
  <time>2026-08-28T17:50:36Z</time>
  <course>0.0</course>
  <speed>0.0</speed>
  <fix>3d</fix>
</trkpt>
<trkpt lat="40.0713749" lon="-105.229789">
  <ele>1583.0</ele>
  <time>2026-08-28T17:50:36Z</time>
  <course>248.33</course>
  <speed>0.01</speed>
  <fix>3d</fix>
</trkpt>
<trkpt lat="40.0713749" lon="-105.229789">
  <ele>1583.0</ele>
  <time>2026-08-28T17:50:36Z</time>
  <course>0.0</course>
  <speed>0.0</speed>
  <fix>3d</fix>
</trkpt>
<trkpt lat="40.0713749" lon="-105.229789">
  <ele>1583.0</ele>
  <time>2026-08-28T17:50:36Z</time>
  <course>248.33</course>
  <speed>0.01</speed>
  <fix>3d</fix>
</trkpt>
<trkpt lat="40.0713749" lon="-105.229789">
  <ele>1583.0</ele>
  <time>2026-08-28T17:50:36Z</time>
  <course>0.0</course>
  <speed>0.0</speed>
  <fix>3d</fix>
</trkpt>
<trkpt lat="40.0713749" lon="-105.229789">
  <ele>1583.0</ele>
  <time>2026-08-28T17:50:36Z</time>
  <course>248.32</course>
  <speed>0.01</speed>
  <fix>3d</fix>
</trkpt>
<trkpt lat="40.0713749" lon="-105.229789">
  <ele>1583.0</ele>
  <time>2026-08-28T17:50:36Z</time>
  <course>0.0</course>
  <speed>0.0</speed>
  <fix>3d</fix>
</trkpt>
<trkpt lat="40.0713749" lon="-105.229789">
  <ele>1583.0</ele>
  <time>2026-08-28T17:50:36Z</time>
  <course>248.32</course>
  <speed>0.01</speed>
  <fix>3d</fix>
</trkpt>
<trkpt lat="40.0713749" lon="-105.229789">
  <ele>1583.0</ele>
  <time>2026-08-28T17:50:36Z</time>
  <course>0.0</course>
  <speed>0.0</speed>
  <fix>3d</fix>
</trkpt>
<trkpt lat="40.0713749" lon="-105.229789">
  <ele>1583.0</ele>
  <time>2026-08-28T17:50:36Z</time>
  <course>248.32</course>
  <speed>0.01</speed>
  <fix>3d</fix>
</trkpt>
<trkpt lat="40.0713749" lon="-105.229789">
  <ele>1583.0</ele>
  <time>2026-08-28T17:50:36Z</time>
  <course>0.0</course>
  <speed>0.0</speed>
  <fix>3d</fix>
</trkpt>
<trkpt lat="40.0713749" lon="-105.229789">
  <ele>1583.0</ele>
  <time>2026-08-28T17:50:36Z</time>
  <course>248.31</course>
  <speed>0.01</speed>
  <fix>3d</fix>
</trkpt>
<trkpt lat="40.0713749" lon="-105.229789">
  <ele>1583.0</ele>
  <time>2026-08-28T17:50:36Z</time>
  <course>0.0</course>
  <speed>0.0</speed>
  <fix>3d</fix>
</trkpt>
<trkpt lat="40.0713749" lon="-105.229789">
  <ele>1583.0</ele>
  <time>2026-08-28T17:50:36Z</time>
  <course>248.31</course>
  <speed>0.01</speed>
  <fix>3d</fix>
</trkpt>
<trkpt lat="40.0713749" lon="-105.229789">
  <ele>1583.0</ele>
  <time>2026-08-28T17:50:36Z</time>
  <course>0.0</course>
  <speed>0.0</speed>
  <fix>3d</fix>
</trkpt>
<trkpt lat="40.0713749" lon="-105.229789">
  <ele>1583.0</ele>
  <time>2026-08-28T17:50:36Z</time>
  <course>248.3</course>
  <speed>0.01</speed>
  <fix>3d</fix>
</trkpt>
<trkpt lat="40.0713749" lon="-105.229789">
  <ele>1583.0</ele>
  <time>2026-08-28T17:50:36Z</time>
  <course>0.0</course>
  <speed>0.0</speed>
  <fix>3d</fix>
</trkpt>
<trkpt lat="40.0713749" lon="-105.229789">
  <ele>1583.0</ele>
  <time>2026-08-28T17:50:36Z</time>
  <course>248.3</course>
  <speed>0.01</speed>
  <fix>3d</fix>
</trkpt>
<trkpt lat="40.0713749" lon="-105.229789">
  <ele>1583.0</ele>
  <time>2026-08-28T17:50:36Z</time>
  <course>0.0</course>
  <speed>0.0</speed>
  <fix>3d</fix>
</trkpt>
<trkpt lat="40.0713749" lon="-105.229789">
  <ele>1583.0</ele>
  <time>2026-08-28T17:50:36Z</time>
  <course>248.29</course>
  <speed>0.01</speed>
  <fix>3d</fix>
</trkpt>
<trkpt lat="40.0713749" lon="-105.229789">
  <ele>1583.0</ele>
  <time>2026-08-28T17:50:36Z</time>
  <course>0.0</course>
  <speed>0.0</speed>
  <fix>3d</fix>
</trkpt>
<trkpt lat="40.0713749" lon="-105.229789">
  <ele>1583.0</ele>
  <time>2026-08-28T17:50:36Z</time>
  <course>248.29</course>
  <speed>0.01</speed>
  <fix>3d</fix>
</trkpt>
<trkpt lat="40.0713749" lon="-105.229789">
  <ele>1583.0</ele>
  <time>2026-08-28T17:50:36Z</time>
  <course>0.0</course>
  <speed>0.0</speed>
  <fix>3d</fix>
</trkpt>
<trkpt lat="40.0713749" lon="-105.229789">
  <ele>1583.0</ele>
  <time>2026-08-28T17:50:36Z</time>
  <course>248.28</course>
  <speed>0.01</speed>
  <fix>3d</fix>
</trkpt>
<trkpt lat="40.0713749" lon="-105.229789">
  <ele>1583.0</ele>
  <time>2026-08-28T17:50:36Z</time>
  <course>0.0</course>
  <speed>0.0</speed>
  <fix>3d</fix>
</trkpt>
<trkpt lat="40.0713749" lon="-105.229789">
  <ele>1583.0</ele>
  <time>2026-08-28T17:50:36Z</time>
  <course>248.28</course>
  <speed>0.01</speed>
  <fix>3d</fix>
</trkpt>
<trkpt lat="40.0713749" lon="-105.229789">
  <ele>1583.0</ele>
  <time>2026-08-28T17:50:36Z</time>
  <course>0.0</course>
  <speed>0.0</speed>
  <fix>3d</fix>
</trkpt>
<trkpt lat="40.0713749" lon="-105.229789">
  <ele>1583.0</ele>
  <time>2026-08-28T17:50:36Z</time>
  <course>248.27</course>
  <speed>0.01</speed>
  <fix>3d</fix>
</trkpt>
<trkpt lat="40.0713749" lon="-105.229789">
  <ele>1583.0</ele>
  <time>2026-08-28T17:50:36Z</time>
  <course>0.0</course>
  <speed>0.0</speed>
  <fix>3d</fix>
</trkpt>
<trkpt lat="40.0713749" lon="-105.229789">
  <ele>1583.0</ele>
  <time>2026-08-28T17:50:36Z</time>
  <course>248.27</course>
  <speed>0.01</speed>
  <fix>3d</fix>
</trkpt>
<trkpt lat="40.0713749" lon="-105.229789">
  <ele>1583.0</ele>
  <time>2026-08-28T17:50:36Z</time>
  <course>0.0</course>
  <speed>0.0</speed>
  <fix>3d</fix>
</trkpt>
<trkpt lat="40.0713749" lon="-105.229789">
  <ele>1583.0</ele>
  <time>2026-08-28T17:50:36Z</time>
  <course>248.26</course>
  <speed>0.01</speed>
  <fix>3d</fix>
</trkpt>
<trkpt lat="40.0713749" lon="-105.229789">
  <ele>1583.0</ele>
  <time>2026-08-28T17:50:36Z</time>
  <course>0.0</course>
  <speed>0.0</speed>
  <fix>3d</fix>
</trkpt>
<trkpt lat="40.0713749" lon="-105.229789">
  <ele>1583.0</ele>
  <time>2026-08-28T17:50:36Z</time>
  <course>248.26</course>
  <speed>0.01</speed>
  <fix>3d</fix>
</trkpt>
<trkpt lat="40.0713749" lon="-105.229789">
  <ele>1583.0</ele>
  <time>2026-08-28T17:50:36Z</time>
  <course>0.0</course>
  <speed>0.0</speed>
  <fix>3d</fix>
</trkpt>
<trkpt lat="40.0713749" lon="-105.229789">
  <ele>1583.0</ele>
  <time>2026-08-28T17:50:36Z</time>
  <course>248.26</course>
  <speed>0.01</speed>
  <fix>3d</fix>
</trkpt>
<trkpt lat="40.0713749" lon="-105.229789">
  <ele>1583.0</ele>
  <time>2026-08-28T17:50:36Z</time>
  <course>0.0</course>
  <speed>0.0</speed>
  <fix>3d</fix>
</trkpt>
<trkpt lat="40.0713749" lon="-105.229789">
  <ele>1583.0</ele>
  <time>2026-08-28T17:50:36Z</time>
  <course>248.25</course>
  <speed>0.01</speed>
  <fix>3d</fix>
</trkpt>
<trkpt lat="40.0713749" lon="-105.229789">
  <ele>1583.0</ele>
  <time>2026-08-28T17:50:36Z</time>
  <course>0.0</course>
  <speed>0.0</speed>
  <fix>3d</fix>
</trkpt>
<trkpt lat="40.0713749" lon="-105.229789">
  <ele>1583.0</ele>
  <time>2026-08-28T17:50:36Z</time>
  <course>248.25</course>
  <speed>0.01</speed>
  <fix>3d</fix>
</trkpt>
<trkpt lat="40.0713749" lon="-105.229789">
  <ele>1583.0</ele>
  <time>2026-08-28T17:50:36Z</time>
  <course>0.0</course>
  <speed>0.0</speed>
  <fix>3d</fix>
</trkpt>
<trkpt lat="40.0713749" lon="-105.229789">
  <ele>1583.0</ele>
  <time>2026-08-28T17:50:36Z</time>
  <course>248.24</course>
  <speed>0.01</speed>
  <fix>3d</fix>
</trkpt>
<trkpt lat="40.0713749" lon="-105.229789">
  <ele>1583.0</ele>
  <time>2026-08-28T17:50:36Z</time>
  <course>0.0</course>
  <speed>0.0</speed>
  <fix>3d</fix>
</trkpt>
<trkpt lat="40.0713749" lon="-105.229789">
  <ele>1583.0</ele>
  <time>2026-08-28T17:50:36Z</time>
  <course>248.24</course>
  <speed>0.01</speed>
  <fix>3d</fix>
</trkpt>
<trkpt lat="40.0713749" lon="-105.229789">
  <ele>1583.0</ele>
  <time>2026-08-28T17:50:36Z</time>
  <course>0.0</course>
  <speed>0.0</speed>
  <fix>3d</fix>
</trkpt>
<trkpt lat="40.0713749" lon="-105.229789">
  <ele>1583.0</ele>
  <time>2026-08-28T17:50:36Z</time>
  <course>248.23</course>
  <speed>0.01</speed>
  <fix>3d</fix>
</trkpt>
<trkpt lat="40.0713749" lon="-105.229789">
  <ele>1583.0</ele>
  <time>2026-08-28T17:50:36Z</time>
  <course>0.0</course>
  <speed>0.0</speed>
  <fix>3d</fix>
</trkpt>
<trkpt lat="40.0713749" lon="-105.229789">
  <ele>1583.0</ele>
  <time>2026-08-28T17:50:36Z</time>
  <course>248.23</course>
  <speed>0.01</speed>
  <fix>3d</fix>
</trkpt>
<trkpt lat="40.0713749" lon="-105.229789">
  <ele>1583.0</ele>
  <time>2026-08-28T17:50:36Z</time>
  <course>0.0</course>
  <speed>0.0</speed>
  <fix>3d</fix>
</trkpt>
<trkpt lat="40.0713749" lon="-105.229789">
  <ele>1583.0</ele>
  <time>2026-08-28T17:50:36Z</time>
  <course>248.22</course>
  <speed>0.01</speed>
  <fix>3d</fix>
</trkpt>
<trkpt lat="40.0713749" lon="-105.229789">
  <ele>1583.0</ele>
  <time>2026-08-28T17:50:36Z</time>
  <course>0.0</course>
  <speed>0.0</speed>
  <fix>3d</fix>
</trkpt>
<trkpt lat="40.0713749" lon="-105.229789">
  <ele>1583.0</ele>
  <time>2026-08-28T17:50:36Z</time>
  <course>248.22</course>
  <speed>0.01</speed>
  <fix>3d</fix>
</trkpt>
<trkpt lat="40.0713749" lon="-105.229789">
  <ele>1583.0</ele>
  <time>2026-08-28T17:50:36Z</time>
  <course>0.0</course>
  <speed>0.0</speed>
  <fix>3d</fix>
</trkpt>
<trkpt lat="40.0713749" lon="-105.229789">
  <ele>1583.0</ele>
  <time>2026-08-28T17:50:36Z</time>
  <course>248.21</course>
  <speed>0.01</speed>
  <fix>3d</fix>
</trkpt>
<trkpt lat="40.0713749" lon="-105.229789">
  <ele>1583.0</ele>
  <time>2026-08-28T17:50:36Z</time>
  <course>0.0</course>
  <speed>0.0</speed>
  <fix>3d</fix>
</trkpt>
<trkpt lat="40.0713749" lon="-105.229789">
  <ele>1583.0</ele>
  <time>2026-08-28T17:50:36Z</time>
  <course>248.21</course>
  <speed>0.01</speed>
  <fix>3d</fix>
</trkpt>
<trkpt lat="40.0713749" lon="-105.229789">
  <ele>1583.0</ele>
  <time>2026-08-28T17:50:36Z</time>
  <course>0.0</course>
  <speed>0.0</speed>
  <fix>3d</fix>
</trkpt>
<trkpt lat="40.0713749" lon="-105.229789">
  <ele>1583.0</ele>
  <time>2026-08-28T17:50:36Z</time>
  <course>248.2</course>
  <speed>0.01</speed>
  <fix>3d</fix>
</trkpt>
<trkpt lat="40.0713749" lon="-105.229789">
  <ele>1583.0</ele>
  <time>2026-08-28T17:50:36Z</time>
  <course>0.0</course>
  <speed>0.0</speed>
  <fix>3d</fix>
</trkpt>
<trkpt lat="40.0713749" lon="-105.229789">
  <ele>1583.0</ele>
  <time>2026-08-28T17:50:36Z</time>
  <course>248.2</course>
  <speed>0.01</speed>
  <fix>3d</fix>
</trkpt>
<trkpt lat="40.0713749" lon="-105.229789">
  <ele>1583.0</ele>
  <time>2026-08-28T17:50:36Z</time>
  <course>0.0</course>
  <speed>0.0</speed>
  <fix>3d</fix>
</trkpt>
<trkpt lat="40.0713749" lon="-105.229789">
  <ele>1583.0</ele>
  <time>2026-08-28T17:50:36Z</time>
  <course>248.19</course>
  <speed>0.01</speed>
  <fix>3d</fix>
</trkpt>
<trkpt lat="40.0713749" lon="-105.229789">
  <ele>1583.0</ele>
  <time>2026-08-28T17:50:36Z</time>
  <course>0.0</course>
  <speed>0.0</speed>
  <fix>3d</fix>
</trkpt>
<trkpt lat="40.0713749" lon="-105.229789">
  <ele>1583.0</ele>
  <time>2026-08-28T17:50:36Z</time>
  <course>248.19</course>
  <speed>0.01</speed>
  <fix>3d</fix>
</trkpt>
<trkpt lat="40.0713749" lon="-105.229789">
  <ele>1583.0</ele>
  <time>2026-08-28T17:50:36Z</time>
  <course>0.0</course>
  <speed>0.0</speed>
  <fix>3d</fix>
</trkpt>
<trkpt lat="40.0713749" lon="-105.229789">
  <ele>1583.0</ele>
  <time>2026-08-28T17:50:36Z</time>
  <course>248.18</course>
  <speed>0.01</speed>
  <fix>3d</fix>
</trkpt>
<trkpt lat="40.0713749" lon="-105.229789">
  <ele>1583.0</ele>
  <time>2026-08-28T17:50:36Z</time>
  <course>0.0</course>
  <speed>0.0</speed>
  <fix>3d</fix>
</trkpt>
<trkpt lat="40.0713749" lon="-105.229789">
  <ele>1583.0</ele>
  <time>2026-08-28T17:50:36Z</time>
  <course>248.18</course>
  <speed>0.01</speed>
  <fix>3d</fix>
</trkpt>
<trkpt lat="40.0713749" lon="-105.229789">
  <ele>1583.0</ele>
  <time>2026-08-28T17:50:36Z</time>
  <course>0.0</course>
  <speed>0.0</speed>
  <fix>3d</fix>
</trkpt>
<trkpt lat="40.0713749" lon="-105.229789">
  <ele>1583.0</ele>
  <time>2026-08-28T17:50:36Z</time>
  <course>248.17</course>
  <speed>0.022360679774997897</speed>
  <fix>3d</fix>
</trkpt>
<trkpt lat="40.0713749" lon="-105.229789">
  <ele>1583.0</ele>
  <time>2026-08-28T17:50:36Z</time>
  <course>0.0</course>
  <speed>0.0</speed>
  <fix>3d</fix>
</trkpt>
<trkpt lat="40.0713749" lon="-105.229789">
  <ele>1583.0</ele>
  <time>2026-08-28T17:50:36Z</time>
  <course>248.17</course>
  <speed>0.022360679774997897</speed>
  <fix>3d</fix>
</trkpt>
<trkpt lat="40.0713749" lon="-105.229789">
  <ele>1583.0</ele>
  <time>2026-08-28T17:50:36Z</time>
  <course>0.0</course>
  <speed>0.0</speed>
  <fix>3d</fix>
</trkpt>
<trkpt lat="40.0713749" lon="-105.229789">
  <ele>1583.0</ele>
  <time>2026-08-28T17:50:36Z</time>
  <course>248.16</course>
  <speed>0.022360679774997897</speed>
  <fix>3d</fix>
</trkpt>
<trkpt lat="40.0713749" lon="-105.229789">
  <ele>1583.0</ele>
  <time>2026-08-28T17:50:36Z</time>
  <course>0.0</course>
  <speed>0.0</speed>
  <fix>3d</fix>
</trkpt>
<trkpt lat="40.0713749" lon="-105.229789">
  <ele>1583.0</ele>
  <time>2026-08-28T17:50:36Z</time>
  <course>248.16</course>
  <speed>0.022360679774997897</speed>
  <fix>3d</fix>
</trkpt>
<trkpt lat="40.0713749" lon="-105.229789">
  <ele>1583.0</ele>
  <time>2026-08-28T17:50:36Z</time>
  <course>0.0</course>
  <speed>0.0</speed>
  <fix>3d</fix>
</trkpt>
<trkpt lat="40.0713749" lon="-105.229789">
  <ele>1583.0</ele>
  <time>2026-08-28T17:50:36Z</time>
  <course>248.15</course>
  <speed>0.022360679774997897</speed>
  <fix>3d</fix>
</trkpt>
<trkpt lat="40.0713749" lon="-105.229789">
  <ele>1583.0</ele>
  <time>2026-08-28T17:50:36Z</time>
  <course>0.0</course>
  <speed>0.0</speed>
  <fix>3d</fix>
</trkpt>
<trkpt lat="40.0713749" lon="-105.229789">
  <ele>1583.0</ele>
  <time>2026-08-28T17:50:36Z</time>
  <course>248.15</course>
  <speed>0.022360679774997897</speed>
  <fix>3d</fix>
</trkpt>
<trkpt lat="40.0713749" lon="-105.229789">
  <ele>1583.0</ele>
  <time>2026-08-28T17:50:36Z</time>
  <course>0.0</course>
  <speed>0.0</speed>
  <fix>3d</fix>
</trkpt>
<trkpt lat="40.0713749" lon="-105.229789">
  <ele>1583.0</ele>
  <time>2026-08-28T17:50:36Z</time>
  <course>248.14</course>
  <speed>0.022360679774997897</speed>
  <fix>3d</fix>
</trkpt>
<trkpt lat="40.0713749" lon="-105.229789">
  <ele>1583.0</ele>
  <time>2026-08-28T17:50:36Z</time>
  <course>0.0</course>
  <speed>0.0</speed>
  <fix>3d</fix>
</trkpt>
<trkpt lat="40.0713749" lon="-105.229789">
  <ele>1583.0</ele>
  <time>2026-08-28T17:50:36Z</time>
  <course>248.14</course>
  <speed>0.022360679774997897</speed>
  <fix>3d</fix>
</trkpt>
<trkpt lat="40.0713749" lon="-105.229789">
  <ele>1583.0</ele>
  <time>2026-08-28T17:50:36Z</time>
  <course>0.0</course>
  <speed>0.0</speed>
  <fix>3d</fix>
</trkpt>
<trkpt lat="40.0713749" lon="-105.229789">
  <ele>1583.0</ele>
  <time>2026-08-28T17:50:36Z</time>
  <course>248.13</course>
  <speed>0.022360679774997897</speed>
  <fix>3d</fix>
</trkpt>
<trkpt lat="40.0713749" lon="-105.229789">
  <ele>1583.0</ele>
  <time>2026-08-28T17:50:36Z</time>
  <course>0.0</course>
  <speed>0.0</speed>
  <fix>3d</fix>
</trkpt>
<trkpt lat="40.0713749" lon="-105.229789">
  <ele>1583.0</ele>
  <time>2026-08-28T17:50:36Z</time>
  <course>248.13</course>
  <speed>0.022360679774997897</speed>
  <fix>3d</fix>
</trkpt>
<trkpt lat="40.0713749" lon="-105.229789">
  <ele>1583.0</ele>
  <time>2026-08-28T17:50:36Z</time>
  <course>0.0</course>
  <speed>0.0</speed>
  <fix>3d</fix>
</trkpt>
<trkpt lat="40.0713749" lon="-105.229789">
  <ele>1583.0</ele>
  <time>2026-08-28T17:50:36Z</time>
  <course>248.12</course>
  <speed>0.022360679774997897</speed>
  <fix>3d</fix>
</trkpt>
<trkpt lat="40.0713749" lon="-105.229789">
  <ele>1583.0</ele>
  <time>2026-08-28T17:50:36Z</time>
  <course>0.0</course>
  <speed>0.0</speed>
  <fix>3d</fix>
</trkpt>
<trkpt lat="40.0713749" lon="-105.229789">
  <ele>1583.0</ele>
  <time>2026-08-28T17:50:36Z</time>
  <course>248.12</course>
  <speed>0.022360679774997897</speed>
  <fix>3d</fix>
</trkpt>
<trkpt lat="40.0713749" lon="-105.229789">
  <ele>1583.0</ele>
  <time>2026-08-28T17:50:36Z</time>
  <course>0.0</course>
  <speed>0.0</speed>
  <fix>3d</fix>
</trkpt>
<trkpt lat="40.0713749" lon="-105.229789">
  <ele>1583.0</ele>
  <time>2026-08-28T17:50:36Z</time>
  <course>248.11</course>
  <speed>0.022360679774997897</speed>
  <fix>3d</fix>
</trkpt>
<trkpt lat="40.0713749" lon="-105.229789">
  <ele>1583.0</ele>
  <time>2026-08-28T17:50:36Z</time>
  <course>0.0</course>
  <speed>0.0</speed>
  <fix>3d</fix>
</trkpt>
<trkpt lat="40.0713749" lon="-105.229789">
  <ele>1583.0</ele>
  <time>2026-08-28T17:50:36Z</time>
  <course>248.11</course>
  <speed>0.022360679774997897</speed>
  <fix>3d</fix>
</trkpt>
<trkpt lat="40.0713749" lon="-105.229789">
  <ele>1583.0</ele>
  <time>2026-08-28T17:50:36Z</time>
  <course>0.0</course>
  <speed>0.0</speed>
  <fix>3d</fix>
</trkpt>
<trkpt lat="40.0713749" lon="-105.229789">
  <ele>1583.0</ele>
  <time>2026-08-28T17:50:36Z</time>
  <course>248.1</course>
  <speed>0.022360679774997897</speed>
  <fix>3d</fix>
</trkpt>
<trkpt lat="40.0713749" lon="-105.229789">
  <ele>1583.0</ele>
  <time>2026-08-28T17:50:36Z</time>
  <course>0.0</course>
  <speed>0.0</speed>
  <fix>3d</fix>
</trkpt>
<trkpt lat="40.0713749" lon="-105.229789">
  <ele>1583.0</ele>
  <time>2026-08-28T17:50:36Z</time>
  <course>248.1</course>
  <speed>0.022360679774997897</speed>
  <fix>3d</fix>
</trkpt>
<trkpt lat="40.0713749" lon="-105.229789">
  <ele>1583.0</ele>
  <time>2026-08-28T17:50:36Z</time>
  <course>0.0</course>
  <speed>0.0</speed>
  <fix>3d</fix>
</trkpt>
<trkpt lat="40.0713749" lon="-105.229789">
  <ele>1583.0</ele>
  <time>2026-08-28T17:50:36Z</time>
  <course>248.09</course>
  <speed>0.022360679774997897</speed>
  <fix>3d</fix>
</trkpt>
<trkpt lat="40.0713749" lon="-105.229789">
  <ele>1583.0</ele>
  <time>2026-08-28T17:50:36Z</time>
  <course>0.0</course>
  <speed>0.0</speed>
  <fix>3d</fix>
</trkpt>
<trkpt lat="40.0713749" lon="-105.229789">
  <ele>1583.0</ele>
  <time>2026-08-28T17:50:36Z</time>
  <course>248.09</course>
  <speed>0.022360679774997897</speed>
  <fix>3d</fix>
</trkpt>
<trkpt lat="40.0713749" lon="-105.229789">
  <ele>1583.0</ele>
  <time>2026-08-28T17:50:36Z</time>
  <course>0.0</course>
  <speed>0.0</speed>
  <fix>3d</fix>
</trkpt>
<trkpt lat="40.0713749" lon="-105.229789">
  <ele>1583.0</ele>
  <time>2026-08-28T17:50:36Z</time>
  <course>248.08</course>
  <speed>0.022360679774997897</speed>
  <fix>3d</fix>
</trkpt>
<trkpt lat="40.0713749" lon="-105.229789">
  <ele>1583.0</ele>
  <time>2026-08-28T17:50:36Z</time>
  <course>0.0</course>
  <speed>0.0</speed>
  <fix>3d</fix>
</trkpt>
<trkpt lat="40.0713749" lon="-105.229789">
  <ele>1583.0</ele>
  <time>2026-08-28T17:50:36Z</time>
  <course>248.08</course>
  <speed>0.022360679774997897</speed>
  <fix>3d</fix>
</trkpt>
<trkpt lat="40.0713749" lon="-105.229789">
  <ele>1583.0</ele>
  <time>2026-08-28T17:50:36Z</time>
  <course>0.0</course>
  <speed>0.0</speed>
  <fix>3d</fix>
</trkpt>
<trkpt lat="40.0713749" lon="-105.229789">
  <ele>1583.0</ele>
  <time>2026-08-28T17:50:36Z</time>
  <course>248.07</course>
  <speed>0.022360679774997897</speed>
  <fix>3d</fix>
</trkpt>
<trkpt lat="40.0713749" lon="-105.229789">
  <ele>1583.0</ele>
  <time>2026-08-28T17:50:36Z</time>
  <course>0.0</course>
  <speed>0.0</speed>
  <fix>3d</fix>
</trkpt>
<trkpt lat="40.0713749" lon="-105.229789">
  <ele>1583.0</ele>
  <time>2026-08-28T17:50:36Z</time>
  <course>248.07</course>
  <speed>0.022360679774997897</speed>
  <fix>3d</fix>
</trkpt>
<trkpt lat="40.0713749" lon="-105.229789">
  <ele>1583.0</ele>
  <time>2026-08-28T17:50:36Z</time>
  <course>0.0</course>
  <speed>0.0</speed>
  <fix>3d</fix>
</trkpt>
<trkpt lat="40.0713749" lon="-105.229789">
  <ele>1583.0</ele>
  <time>2026-08-28T17:50:36Z</time>
  <course>248.06</course>
  <speed>0.022360679774997897</speed>
  <fix>3d</fix>
</trkpt>
<trkpt lat="40.0713749" lon="-105.229789">
  <ele>1583.0</ele>
  <time>2026-08-28T17:50:36Z</time>
  <course>0.0</course>
  <speed>0.0</speed>
  <fix>3d</fix>
</trkpt>
<trkpt lat="40.0713749" lon="-105.229789">
  <ele>1583.0</ele>
  <time>2026-08-28T17:50:36Z</time>
  <course>248.06</course>
  <speed>0.022360679774997897</speed>
  <fix>3d</fix>
</trkpt>
<trkpt lat="40.0713749" lon="-105.229789">
  <ele>1583.0</ele>
  <time>2026-08-28T17:50:36Z</time>
  <course>0.0</course>
  <speed>0.0</speed>
  <fix>3d</fix>
</trkpt>
<trkpt lat="40.0713749" lon="-105.229789">
  <ele>1583.0</ele>
  <time>2026-08-28T17:50:36Z</time>
  <course>248.05</course>
  <speed>0.022360679774997897</speed>
  <fix>3d</fix>
</trkpt>
<trkpt lat="40.0713749" lon="-105.229789">
  <ele>1583.0</ele>
  <time>2026-08-28T17:50:36Z</time>
  <course>0.0</course>
  <speed>0.0</speed>
  <fix>3d</fix>
</trkpt>
<trkpt lat="40.0713749" lon="-105.229789">
  <ele>1583.0</ele>
  <time>2026-08-28T17:50:36Z</time>
  <course>248.05</course>
  <speed>0.022360679774997897</speed>
  <fix>3d</fix>
</trkpt>
<trkpt lat="40.0713749" lon="-105.229789">
  <ele>1583.0</ele>
  <time>2026-08-28T17:50:36Z</time>
  <course>0.0</course>
  <speed>0.0</speed>
  <fix>3d</fix>
</trkpt>
<trkpt lat="40.0713749" lon="-105.229789">
  <ele>1583.0</ele>
  <time>2026-08-28T17:50:36Z</time>
  <course>248.05</course>
  <speed>0.022360679774997897</speed>
  <fix>3d</fix>
</trkpt>
<trkpt lat="40.0713749" lon="-105.229789">
  <ele>1583.0</ele>
  <time>2026-08-28T17:50:36Z</time>
  <course>0.0</course>
  <speed>0.0</speed>
  <fix>3d</fix>
</trkpt>
<trkpt lat="40.0713749" lon="-105.229789">
  <ele>1583.0</ele>
  <time>2026-08-28T17:50:36Z</time>
  <course>248.04</course>
  <speed>0.022360679774997897</speed>
  <fix>3d</fix>
</trkpt>
<trkpt lat="40.0713749" lon="-105.229789">
  <ele>1583.0</ele>
  <time>2026-08-28T17:50:36Z</time>
  <course>0.0</course>
  <speed>0.0</speed>
  <fix>3d</fix>
</trkpt>
<trkpt lat="40.0713749" lon="-105.229789">
  <ele>1583.0</ele>
  <time>2026-08-28T17:50:36Z</time>
  <course>248.04</course>
  <speed>0.022360679774997897</speed>
  <fix>3d</fix>
</trkpt>
<trkpt lat="40.0713749" lon="-105.229789">
  <ele>1583.0</ele>
  <time>2026-08-28T17:50:36Z</time>
  <course>0.0</course>
  <speed>0.0</speed>
  <fix>3d</fix>
</trkpt>
<trkpt lat="40.0713749" lon="-105.229789">
  <ele>1583.0</ele>
  <time>2026-08-28T17:50:36Z</time>
  <course>248.03</course>
  <speed>0.022360679774997897</speed>
  <fix>3d</fix>
</trkpt>
<trkpt lat="40.0713749" lon="-105.229789">
  <ele>1583.0</ele>
  <time>2026-08-28T17:50:36Z</time>
  <course>0.0</course>
  <speed>0.0</speed>
  <fix>3d</fix>
</trkpt>
<trkpt lat="40.0713749" lon="-105.229789">
  <ele>1583.0</ele>
  <time>2026-08-28T17:50:36Z</time>
  <course>248.03</course>
  <speed>0.022360679774997897</speed>
  <fix>3d</fix>
</trkpt>
<trkpt lat="40.0713749" lon="-105.229789">
  <ele>1583.0</ele>
  <time>2026-08-28T17:50:36Z</time>
  <course>0.0</course>
  <speed>0.0</speed>
  <fix>3d</fix>
</trkpt>
<trkpt lat="40.0713749" lon="-105.229789">
  <ele>1583.0</ele>
  <time>2026-08-28T17:50:36Z</time>
  <course>248.02</course>
  <speed>0.022360679774997897</speed>
  <fix>3d</fix>
</trkpt>
<trkpt lat="40.0713749" lon="-105.229789">
  <ele>1583.0</ele>
  <time>2026-08-28T17:50:36Z</time>
  <course>0.0</course>
  <speed>0.0</speed>
  <fix>3d</fix>
</trkpt>
<trkpt lat="40.0713749" lon="-105.229789">
  <ele>1583.0</ele>
  <time>2026-08-28T17:50:36Z</time>
  <course>248.02</course>
  <speed>0.022360679774997897</speed>
  <fix>3d</fix>
</trkpt>
<trkpt lat="40.0713749" lon="-105.229789">
  <ele>1583.0</ele>
  <time>2026-08-28T17:50:36Z</time>
  <course>0.0</course>
  <speed>0.0</speed>
  <fix>3d</fix>
</trkpt>
<trkpt lat="40.0713749" lon="-105.229789">
  <ele>1583.0</ele>
  <time>2026-08-28T17:50:36Z</time>
  <course>248.01</course>
  <speed>0.022360679774997897</speed>
  <fix>3d</fix>
</trkpt>
<trkpt lat="40.0713749" lon="-105.229789">
  <ele>1583.0</ele>
  <time>2026-08-28T17:50:36Z</time>
  <course>0.0</course>
  <speed>0.0</speed>
  <fix>3d</fix>
</trkpt>
<trkpt lat="40.0713749" lon="-105.229789">
  <ele>1583.0</ele>
  <time>2026-08-28T17:50:36Z</time>
  <course>248.01</course>
  <speed>0.022360679774997897</speed>
  <fix>3d</fix>
</trkpt>
<trkpt lat="40.0713749" lon="-105.229789">
  <ele>1583.0</ele>
  <time>2026-08-28T17:50:36Z</time>
  <course>0.0</course>
  <speed>0.0</speed>
  <fix>3d</fix>
</trkpt>
<trkpt lat="40.0713749" lon="-105.229789">
  <ele>1583.0</ele>
  <time>2026-08-28T17:50:36Z</time>
  <course>248.0</course>
  <speed>0.022360679774997897</speed>
  <fix>3d</fix>
</trkpt>
<trkpt lat="40.0713749" lon="-105.229789">
  <ele>1583.0</ele>
  <time>2026-08-28T17:50:36Z</time>
  <course>0.0</course>
  <speed>0.0</speed>
  <fix>3d</fix>
</trkpt>
<trkpt lat="40.0713749" lon="-105.229789">
  <ele>1583.0</ele>
  <time>2026-08-28T17:50:36Z</time>
  <course>248.0</course>
  <speed>0.022360679774997897</speed>
  <fix>3d</fix>
</trkpt>
<trkpt lat="40.0713749" lon="-105.229789">
  <ele>1583.0</ele>
  <time>2026-08-28T17:50:36Z</time>
  <course>0.0</course>
  <speed>0.0</speed>
  <fix>3d</fix>
</trkpt>
<trkpt lat="40.0713749" lon="-105.229789">
  <ele>1583.0</ele>
  <time>2026-08-28T17:50:36Z</time>
  <course>247.99</course>
  <speed>0.022360679774997897</speed>
  <fix>3d</fix>
</trkpt>
<trkpt lat="40.0713749" lon="-105.229789">
  <ele>1583.0</ele>
  <time>2026-08-28T17:50:36Z</time>
  <course>0.0</course>
  <speed>0.0</speed>
  <fix>3d</fix>
</trkpt>
<trkpt lat="40.0713749" lon="-105.229789">
  <ele>1583.0</ele>
  <time>2026-08-28T17:50:36Z</time>
  <course>247.99</course>
  <speed>0.022360679774997897</speed>
  <fix>3d</fix>
</trkpt>
<trkpt lat="40.0713749" lon="-105.229789">
  <ele>1583.0</ele>
  <time>2026-08-28T17:50:36Z</time>
  <course>0.0</course>
  <speed>0.0</speed>
  <fix>3d</fix>
</trkpt>
<trkpt lat="40.0713749" lon="-105.229789">
  <ele>1583.0</ele>
  <time>2026-08-28T17:50:36Z</time>
  <course>247.99</course>
  <speed>0.022360679774997897</speed>
  <fix>3d</fix>
</trkpt>
<trkpt lat="40.0713749" lon="-105.229789">
  <ele>1583.0</ele>
  <time>2026-08-28T17:50:36Z</time>
  <course>0.0</course>
  <speed>0.0</speed>
  <fix>3d</fix>
</trkpt>
<trkpt lat="40.0713749" lon="-105.229789">
  <ele>1583.0</ele>
  <time>2026-08-28T17:50:36Z</time>
  <course>247.98</course>
  <speed>0.022360679774997897</speed>
  <fix>3d</fix>
</trkpt>
<trkpt lat="40.0713749" lon="-105.229789">
  <ele>1583.0</ele>
  <time>2026-08-28T17:50:36Z</time>
  <course>0.0</course>
  <speed>0.0</speed>
  <fix>3d</fix>
</trkpt>
<trkpt lat="40.0713749" lon="-105.229789">
  <ele>1583.0</ele>
  <time>2026-08-28T17:50:36Z</time>
  <course>247.98</course>
  <speed>0.022360679774997897</speed>
  <fix>3d</fix>
</trkpt>
<trkpt lat="40.0713749" lon="-105.229789">
  <ele>1583.0</ele>
  <time>2026-08-28T17:50:36Z</time>
  <course>0.0</course>
  <speed>0.0</speed>
  <fix>3d</fix>
</trkpt>
<trkpt lat="40.0713749" lon="-105.229789">
  <ele>1583.0</ele>
  <time>2026-08-28T17:50:36Z</time>
  <course>247.97</course>
  <speed>0.022360679774997897</speed>
  <fix>3d</fix>
</trkpt>
<trkpt lat="40.0713749" lon="-105.229789">
  <ele>1583.0</ele>
  <time>2026-08-28T17:50:36Z</time>
  <course>0.0</course>
  <speed>0.0</speed>
  <fix>3d</fix>
</trkpt>
<trkpt lat="40.0713749" lon="-105.229789">
  <ele>1583.0</ele>
  <time>2026-08-28T17:50:36Z</time>
  <course>247.97</course>
  <speed>0.022360679774997897</speed>
  <fix>3d</fix>
</trkpt>
<trkpt lat="40.0713749" lon="-105.229789">
  <ele>1583.0</ele>
  <time>2026-08-28T17:50:36Z</time>
  <course>0.0</course>
  <speed>0.0</speed>
  <fix>3d</fix>
</trkpt>
<trkpt lat="40.0713749" lon="-105.229789">
  <ele>1583.0</ele>
  <time>2026-08-28T17:50:36Z</time>
  <course>247.96</course>
  <speed>0.022360679774997897</speed>
  <fix>3d</fix>
</trkpt>
<trkpt lat="40.0713749" lon="-105.229789">
  <ele>1583.0</ele>
  <time>2026-08-28T17:50:36Z</time>
  <course>0.0</course>
  <speed>0.0</speed>
  <fix>3d</fix>
</trkpt>
<trkpt lat="40.0713749" lon="-105.229789">
  <ele>1583.0</ele>
  <time>2026-08-28T17:50:36Z</time>
  <course>247.96</course>
  <speed>0.022360679774997897</speed>
  <fix>3d</fix>
</trkpt>
<trkpt lat="40.0713749" lon="-105.229789">
  <ele>1583.0</ele>
  <time>2026-08-28T17:50:36Z</time>
  <course>0.0</course>
  <speed>0.0</speed>
  <fix>3d</fix>
</trkpt>
<trkpt lat="40.0713749" lon="-105.229789">
  <ele>1583.0</ele>
  <time>2026-08-28T17:50:36Z</time>
  <course>247.95</course>
  <speed>0.022360679774997897</speed>
  <fix>3d</fix>
</trkpt>
<trkpt lat="40.0713749" lon="-105.229789">
  <ele>1583.0</ele>
  <time>2026-08-28T17:50:36Z</time>
  <course>0.0</course>
  <speed>0.0</speed>
  <fix>3d</fix>
</trkpt>
<trkpt lat="40.0713749" lon="-105.229789">
  <ele>1583.0</ele>
  <time>2026-08-28T17:50:36Z</time>
  <course>247.95</course>
  <speed>0.022360679774997897</speed>
  <fix>3d</fix>
</trkpt>
<trkpt lat="40.0713749" lon="-105.229789">
  <ele>1583.0</ele>
  <time>2026-08-28T17:50:36Z</time>
  <course>0.0</course>
  <speed>0.0</speed>
  <fix>3d</fix>
</trkpt>
<trkpt lat="40.0713749" lon="-105.229789">
  <ele>1583.0</ele>
  <time>2026-08-28T17:50:36Z</time>
  <course>247.95</course>
  <speed>0.022360679774997897</speed>
  <fix>3d</fix>
</trkpt>
<trkpt lat="40.0713749" lon="-105.229789">
  <ele>1583.0</ele>
  <time>2026-08-28T17:50:36Z</time>
  <course>0.0</course>
  <speed>0.0</speed>
  <fix>3d</fix>
</trkpt>
<trkpt lat="40.0713749" lon="-105.229789">
  <ele>1583.0</ele>
  <time>2026-08-28T17:50:36Z</time>
  <course>247.94</course>
  <speed>0.022360679774997897</speed>
  <fix>3d</fix>
</trkpt>
<trkpt lat="40.0713749" lon="-105.229789">
  <ele>1583.0</ele>
  <time>2026-08-28T17:50:36Z</time>
  <course>0.0</course>
  <speed>0.0</speed>
  <fix>3d</fix>
</trkpt>
<trkpt lat="40.0713749" lon="-105.229789">
  <ele>1583.0</ele>
  <time>2026-08-28T17:50:36Z</time>
  <course>247.94</course>
  <speed>0.022360679774997897</speed>
  <fix>3d</fix>
</trkpt>
<trkpt lat="40.0713749" lon="-105.229789">
  <ele>1583.0</ele>
  <time>2026-08-28T17:50:36Z</time>
  <course>0.0</course>
  <speed>0.0</speed>
  <fix>3d</fix>
</trkpt>
<trkpt lat="40.0713749" lon="-105.229789">
  <ele>1583.0</ele>
  <time>2026-08-28T17:50:36Z</time>
  <course>247.93</course>
  <speed>0.022360679774997897</speed>
  <fix>3d</fix>
</trkpt>
<trkpt lat="40.0713749" lon="-105.229789">
  <ele>1583.0</ele>
  <time>2026-08-28T17:50:36Z</time>
  <course>0.0</course>
  <speed>0.0</speed>
  <fix>3d</fix>
</trkpt>
<trkpt lat="40.0713749" lon="-105.229789">
  <ele>1583.0</ele>
  <time>2026-08-28T17:50:36Z</time>
  <course>247.93</course>
  <speed>0.022360679774997897</speed>
  <fix>3d</fix>
</trkpt>
<trkpt lat="40.0713749" lon="-105.229789">
  <ele>1583.0</ele>
  <time>2026-08-28T17:50:36Z</time>
  <course>0.0</course>
  <speed>0.0</speed>
  <fix>3d</fix>
</trkpt>
<trkpt lat="40.0713749" lon="-105.229789">
  <ele>1583.0</ele>
  <time>2026-08-28T17:50:36Z</time>
  <course>247.92</course>
  <speed>0.022360679774997897</speed>
  <fix>3d</fix>
</trkpt>
<trkpt lat="40.0713749" lon="-105.229789">
  <ele>1583.0</ele>
  <time>2026-08-28T17:50:36Z</time>
  <course>0.0</course>
  <speed>0.0</speed>
  <fix>3d</fix>
</trkpt>
<trkpt lat="40.0713749" lon="-105.229789">
  <ele>1583.0</ele>
  <time>2026-08-28T17:50:36Z</time>
  <course>247.92</course>
  <speed>0.022360679774997897</speed>
  <fix>3d</fix>
</trkpt>
<trkpt lat="40.0713749" lon="-105.229789">
  <ele>1583.0</ele>
  <time>2026-08-28T17:50:36Z</time>
  <course>0.0</course>
  <speed>0.0</speed>
  <fix>3d</fix>
</trkpt>
<trkpt lat="40.0713749" lon="-105.229789">
  <ele>1583.0</ele>
  <time>2026-08-28T17:50:36Z</time>
  <course>247.92</course>
  <speed>0.022360679774997897</speed>
  <fix>3d</fix>
</trkpt>
<trkpt lat="40.0713749" lon="-105.229789">
  <ele>1583.0</ele>
  <time>2026-08-28T17:50:36Z</time>
  <course>0.0</course>
  <speed>0.0</speed>
  <fix>3d</fix>
</trkpt>
<trkpt lat="40.0713749" lon="-105.229789">
  <ele>1583.0</ele>
  <time>2026-08-28T17:50:36Z</time>
  <course>247.91</course>
  <speed>0.022360679774997897</speed>
  <fix>3d</fix>
</trkpt>
<trkpt lat="40.0713749" lon="-105.229789">
  <ele>1583.0</ele>
  <time>2026-08-28T17:50:36Z</time>
  <course>0.0</course>
  <speed>0.0</speed>
  <fix>3d</fix>
</trkpt>
<trkpt lat="40.0713749" lon="-105.229789">
  <ele>1583.0</ele>
  <time>2026-08-28T17:50:36Z</time>
  <course>247.91</course>
  <speed>0.022360679774997897</speed>
  <fix>3d</fix>
</trkpt>
<trkpt lat="40.0713749" lon="-105.229789">
  <ele>1583.0</ele>
  <time>2026-08-28T17:50:36Z</time>
  <course>0.0</course>
  <speed>0.0</speed>
  <fix>3d</fix>
</trkpt>
<trkpt lat="40.0713749" lon="-105.229789">
  <ele>1583.0</ele>
  <time>2026-08-28T17:50:36Z</time>
  <course>247.9</course>
  <speed>0.022360679774997897</speed>
  <fix>3d</fix>
</trkpt>
<trkpt lat="40.0713749" lon="-105.229789">
  <ele>1583.0</ele>
  <time>2026-08-28T17:50:36Z</time>
  <course>0.0</course>
  <speed>0.0</speed>
  <fix>3d</fix>
</trkpt>
<trkpt lat="40.0713749" lon="-105.229789">
  <ele>1583.0</ele>
  <time>2026-08-28T17:50:36Z</time>
  <course>247.9</course>
  <speed>0.022360679774997897</speed>
  <fix>3d</fix>
</trkpt>
<trkpt lat="40.0713749" lon="-105.229789">
  <ele>1583.0</ele>
  <time>2026-08-28T17:50:36Z</time>
  <course>0.0</course>
  <speed>0.0</speed>
  <fix>3d</fix>
</trkpt>
<trkpt lat="40.0713749" lon="-105.229789">
  <ele>1583.0</ele>
  <time>2026-08-28T17:50:36Z</time>
  <course>247.89</course>
  <speed>0.022360679774997897</speed>
  <fix>3d</fix>
</trkpt>
<trkpt lat="40.0713749" lon="-105.229789">
  <ele>1583.0</ele>
  <time>2026-08-28T17:50:36Z</time>
  <course>0.0</course>
  <speed>0.0</speed>
  <fix>3d</fix>
</trkpt>
<trkpt lat="40.0713749" lon="-105.229789">
  <ele>1583.0</ele>
  <time>2026-08-28T17:50:36Z</time>
  <course>247.89</course>
  <speed>0.022360679774997897</speed>
  <fix>3d</fix>
</trkpt>
<trkpt lat="40.0713749" lon="-105.229789">
  <ele>1583.0</ele>
  <time>2026-08-28T17:50:36Z</time>
  <course>0.0</course>
  <speed>0.0</speed>
  <fix>3d</fix>
</trkpt>
<trkpt lat="40.0713749" lon="-105.229789">
  <ele>1583.0</ele>
  <time>2026-08-28T17:50:36Z</time>
  <course>247.89</course>
  <speed>0.022360679774997897</speed>
  <fix>3d</fix>
</trkpt>
<trkpt lat="40.0713749" lon="-105.229789">
  <ele>1583.0</ele>
  <time>2026-08-28T17:50:36Z</time>
  <course>0.0</course>
  <speed>0.0</speed>
  <fix>3d</fix>
</trkpt>
<trkpt lat="40.0713749" lon="-105.229789">
  <ele>1583.0</ele>
  <time>2026-08-28T17:50:36Z</time>
  <course>247.88</course>
  <speed>0.0316227766016838</speed>
  <fix>3d</fix>
</trkpt>
<trkpt lat="40.0713749" lon="-105.229789">
  <ele>1583.0</ele>
  <time>2026-08-28T17:50:36Z</time>
  <course>0.0</course>
  <speed>0.0</speed>
  <fix>3d</fix>
</trkpt>
<trkpt lat="40.0713749" lon="-105.229789">
  <ele>1583.0</ele>
  <time>2026-08-28T17:50:36Z</time>
  <course>247.88</course>
  <speed>0.0316227766016838</speed>
  <fix>3d</fix>
</trkpt>
<trkpt lat="40.0713749" lon="-105.229789">
  <ele>1583.0</ele>
  <time>2026-08-28T17:50:36Z</time>
  <course>0.0</course>
  <speed>0.0</speed>
  <fix>3d</fix>
</trkpt>
<trkpt lat="40.0713749" lon="-105.229789">
  <ele>1583.0</ele>
  <time>2026-08-28T17:50:36Z</time>
  <course>247.87</course>
  <speed>0.0316227766016838</speed>
  <fix>3d</fix>
</trkpt>
<trkpt lat="40.0713749" lon="-105.229789">
  <ele>1583.0</ele>
  <time>2026-08-28T17:50:36Z</time>
  <course>0.0</course>
  <speed>0.0</speed>
  <fix>3d</fix>
</trkpt>
<trkpt lat="40.0713749" lon="-105.229789">
  <ele>1583.0</ele>
  <time>2026-08-28T17:50:36Z</time>
  <course>247.87</course>
  <speed>0.0316227766016838</speed>
  <fix>3d</fix>
</trkpt>
<trkpt lat="40.0713749" lon="-105.229789">
  <ele>1583.0</ele>
  <time>2026-08-28T17:50:36Z</time>
  <course>0.0</course>
  <speed>0.0</speed>
  <fix>3d</fix>
</trkpt>
<trkpt lat="40.0713749" lon="-105.229789">
  <ele>1583.0</ele>
  <time>2026-08-28T17:50:36Z</time>
  <course>247.87</course>
  <speed>0.0316227766016838</speed>
  <fix>3d</fix>
</trkpt>
<trkpt lat="40.0713749" lon="-105.229789">
  <ele>1583.0</ele>
  <time>2026-08-28T17:50:36Z</time>
  <course>0.0</course>
  <speed>0.0</speed>
  <fix>3d</fix>
</trkpt>
<trkpt lat="40.0713749" lon="-105.229789">
  <ele>1583.0</ele>
  <time>2026-08-28T17:50:36Z</time>
  <course>247.86</course>
  <speed>0.0316227766016838</speed>
  <fix>3d</fix>
</trkpt>
<trkpt lat="40.0713749" lon="-105.229789">
  <ele>1583.0</ele>
  <time>2026-08-28T17:50:36Z</time>
  <course>0.0</course>
  <speed>0.0</speed>
  <fix>3d</fix>
</trkpt>
<trkpt lat="40.0713749" lon="-105.229789">
  <ele>1583.0</ele>
  <time>2026-08-28T17:50:36Z</time>
  <course>247.86</course>
  <speed>0.0316227766016838</speed>
  <fix>3d</fix>
</trkpt>
<trkpt lat="40.0713749" lon="-105.229789">
  <ele>1583.0</ele>
  <time>2026-08-28T17:50:36Z</time>
  <course>0.0</course>
  <speed>0.0</speed>
  <fix>3d</fix>
</trkpt>
<trkpt lat="40.0713749" lon="-105.229789">
  <ele>1583.0</ele>
  <time>2026-08-28T17:50:36Z</time>
  <course>247.85</course>
  <speed>0.0316227766016838</speed>
  <fix>3d</fix>
</trkpt>
<trkpt lat="40.0713749" lon="-105.229789">
  <ele>1583.0</ele>
  <time>2026-08-28T17:50:36Z</time>
  <course>0.0</course>
  <speed>0.0</speed>
  <fix>3d</fix>
</trkpt>
<trkpt lat="40.0713749" lon="-105.229789">
  <ele>1583.0</ele>
  <time>2026-08-28T17:50:36Z</time>
  <course>247.85</course>
  <speed>0.0316227766016838</speed>
  <fix>3d</fix>
</trkpt>
<trkpt lat="40.0713749" lon="-105.229789">
  <ele>1583.0</ele>
  <time>2026-08-28T17:50:36Z</time>
  <course>0.0</course>
  <speed>0.0</speed>
  <fix>3d</fix>
</trkpt>
<trkpt lat="40.0713749" lon="-105.229789">
  <ele>1583.0</ele>
  <time>2026-08-28T17:50:36Z</time>
  <course>247.85</course>
  <speed>0.0316227766016838</speed>
  <fix>3d</fix>
</trkpt>
<trkpt lat="40.0713749" lon="-105.229789">
  <ele>1583.0</ele>
  <time>2026-08-28T17:50:36Z</time>
  <course>0.0</course>
  <speed>0.0</speed>
  <fix>3d</fix>
</trkpt>
<trkpt lat="40.0713749" lon="-105.229789">
  <ele>1583.0</ele>
  <time>2026-08-28T17:50:36Z</time>
  <course>247.84</course>
  <speed>0.0316227766016838</speed>
  <fix>3d</fix>
</trkpt>
<trkpt lat="40.0713749" lon="-105.229789">
  <ele>1583.0</ele>
  <time>2026-08-28T17:50:36Z</time>
  <course>0.0</course>
  <speed>0.0</speed>
  <fix>3d</fix>
</trkpt>
<trkpt lat="40.0713749" lon="-105.229789">
  <ele>1583.0</ele>
  <time>2026-08-28T17:50:36Z</time>
  <course>247.84</course>
  <speed>0.0316227766016838</speed>
  <fix>3d</fix>
</trkpt>
<trkpt lat="40.0713749" lon="-105.229789">
  <ele>1583.0</ele>
  <time>2026-08-28T17:50:36Z</time>
  <course>0.0</course>
  <speed>0.0</speed>
  <fix>3d</fix>
</trkpt>
<trkpt lat="40.0713749" lon="-105.229789">
  <ele>1583.0</ele>
  <time>2026-08-28T17:50:36Z</time>
  <course>247.83</course>
  <speed>0.0316227766016838</speed>
  <fix>3d</fix>
</trkpt>
<trkpt lat="40.0713749" lon="-105.229789">
  <ele>1583.0</ele>
  <time>2026-08-28T17:50:36Z</time>
  <course>0.0</course>
  <speed>0.0</speed>
  <fix>3d</fix>
</trkpt>
<trkpt lat="40.0713749" lon="-105.229789">
  <ele>1583.0</ele>
  <time>2026-08-28T17:50:36Z</time>
  <course>247.83</course>
  <speed>0.0316227766016838</speed>
  <fix>3d</fix>
</trkpt>
<trkpt lat="40.0713749" lon="-105.229789">
  <ele>1583.0</ele>
  <time>2026-08-28T17:50:36Z</time>
  <course>0.0</course>
  <speed>0.0</speed>
  <fix>3d</fix>
</trkpt>
<trkpt lat="40.0713749" lon="-105.229789">
  <ele>1583.0</ele>
  <time>2026-08-28T17:50:36Z</time>
  <course>247.83</course>
  <speed>0.0316227766016838</speed>
  <fix>3d</fix>
</trkpt>
<trkpt lat="40.0713749" lon="-105.229789">
  <ele>1583.0</ele>
  <time>2026-08-28T17:50:36Z</time>
  <course>0.0</course>
  <speed>0.0</speed>
  <fix>3d</fix>
</trkpt>
<trkpt lat="40.0713749" lon="-105.229789">
  <ele>1583.0</ele>
  <time>2026-08-28T17:50:36Z</time>
  <course>247.82</course>
  <speed>0.0316227766016838</speed>
  <fix>3d</fix>
</trkpt>
<trkpt lat="40.0713749" lon="-105.229789">
  <ele>1583.0</ele>
  <time>2026-08-28T17:50:36Z</time>
  <course>0.0</course>
  <speed>0.0</speed>
  <fix>3d</fix>
</trkpt>
<trkpt lat="40.0713749" lon="-105.229789">
  <ele>1583.0</ele>
  <time>2026-08-28T17:50:36Z</time>
  <course>247.82</course>
  <speed>0.0316227766016838</speed>
  <fix>3d</fix>
</trkpt>
<trkpt lat="40.0713749" lon="-105.229789">
  <ele>1583.0</ele>
  <time>2026-08-28T17:50:36Z</time>
  <course>0.0</course>
  <speed>0.0</speed>
  <fix>3d</fix>
</trkpt>
<trkpt lat="40.0713749" lon="-105.229789">
  <ele>1583.0</ele>
  <time>2026-08-28T17:50:36Z</time>
  <course>247.82</course>
  <speed>0.0316227766016838</speed>
  <fix>3d</fix>
</trkpt>
<trkpt lat="40.0713749" lon="-105.229789">
  <ele>1583.0</ele>
  <time>2026-08-28T17:50:36Z</time>
  <course>0.0</course>
  <speed>0.0</speed>
  <fix>3d</fix>
</trkpt>
<trkpt lat="40.0713749" lon="-105.229789">
  <ele>1583.0</ele>
  <time>2026-08-28T17:50:36Z</time>
  <course>247.81</course>
  <speed>0.0316227766016838</speed>
  <fix>3d</fix>
</trkpt>
<trkpt lat="40.0713749" lon="-105.229789">
  <ele>1583.0</ele>
  <time>2026-08-28T17:50:36Z</time>
  <course>0.0</course>
  <speed>0.0</speed>
  <fix>3d</fix>
</trkpt>
<trkpt lat="40.0713749" lon="-105.229789">
  <ele>1583.0</ele>
  <time>2026-08-28T17:50:36Z</time>
  <course>247.81</course>
  <speed>0.0316227766016838</speed>
  <fix>3d</fix>
</trkpt>
<trkpt lat="40.0713749" lon="-105.229789">
  <ele>1583.0</ele>
  <time>2026-08-28T17:50:36Z</time>
  <course>0.0</course>
  <speed>0.0</speed>
  <fix>3d</fix>
</trkpt>
<trkpt lat="40.0713749" lon="-105.229789">
  <ele>1583.0</ele>
  <time>2026-08-28T17:50:36Z</time>
  <course>247.8</course>
  <speed>0.0316227766016838</speed>
  <fix>3d</fix>
</trkpt>
<trkpt lat="40.0713749" lon="-105.229789">
  <ele>1583.0</ele>
  <time>2026-08-28T17:50:36Z</time>
  <course>0.0</course>
  <speed>0.0</speed>
  <fix>3d</fix>
</trkpt>
<trkpt lat="40.0713749" lon="-105.229789">
  <ele>1583.0</ele>
  <time>2026-08-28T17:50:36Z</time>
  <course>247.8</course>
  <speed>0.0316227766016838</speed>
  <fix>3d</fix>
</trkpt>
<trkpt lat="40.0713749" lon="-105.229789">
  <ele>1583.0</ele>
  <time>2026-08-28T17:50:36Z</time>
  <course>0.0</course>
  <speed>0.0</speed>
  <fix>3d</fix>
</trkpt>
<trkpt lat="40.0713749" lon="-105.229789">
  <ele>1583.0</ele>
  <time>2026-08-28T17:50:36Z</time>
  <course>247.8</course>
  <speed>0.0316227766016838</speed>
  <fix>3d</fix>
</trkpt>
<trkpt lat="40.0713749" lon="-105.229789">
  <ele>1583.0</ele>
  <time>2026-08-28T17:50:36Z</time>
  <course>0.0</course>
  <speed>0.0</speed>
  <fix>3d</fix>
</trkpt>
<trkpt lat="40.0713749" lon="-105.229789">
  <ele>1583.0</ele>
  <time>2026-08-28T17:50:36Z</time>
  <course>247.79</course>
  <speed>0.0316227766016838</speed>
  <fix>3d</fix>
</trkpt>
<trkpt lat="40.0713749" lon="-105.229789">
  <ele>1583.0</ele>
  <time>2026-08-28T17:50:36Z</time>
  <course>0.0</course>
  <speed>0.0</speed>
  <fix>3d</fix>
</trkpt>
<trkpt lat="40.0713749" lon="-105.229789">
  <ele>1583.0</ele>
  <time>2026-08-28T17:50:36Z</time>
  <course>247.79</course>
  <speed>0.0316227766016838</speed>
  <fix>3d</fix>
</trkpt>
<trkpt lat="40.0713749" lon="-105.229789">
  <ele>1583.0</ele>
  <time>2026-08-28T17:50:36Z</time>
  <course>0.0</course>
  <speed>0.0</speed>
  <fix>3d</fix>
</trkpt>
<trkpt lat="40.0713749" lon="-105.229789">
  <ele>1583.0</ele>
  <time>2026-08-28T17:50:36Z</time>
  <course>247.79</course>
  <speed>0.0316227766016838</speed>
  <fix>3d</fix>
</trkpt>
<trkpt lat="40.0713749" lon="-105.229789">
  <ele>1583.0</ele>
  <time>2026-08-28T17:50:36Z</time>
  <course>0.0</course>
  <speed>0.0</speed>
  <fix>3d</fix>
</trkpt>
<trkpt lat="40.0713749" lon="-105.229789">
  <ele>1583.0</ele>
  <time>2026-08-28T17:50:36Z</time>
  <course>247.78</course>
  <speed>0.0316227766016838</speed>
  <fix>3d</fix>
</trkpt>
<trkpt lat="40.0713749" lon="-105.229789">
  <ele>1583.0</ele>
  <time>2026-08-28T17:50:36Z</time>
  <course>0.0</course>
  <speed>0.0</speed>
  <fix>3d</fix>
</trkpt>
<trkpt lat="40.0713749" lon="-105.229789">
  <ele>1583.0</ele>
  <time>2026-08-28T17:50:36Z</time>
  <course>247.78</course>
  <speed>0.0316227766016838</speed>
  <fix>3d</fix>
</trkpt>
<trkpt lat="40.0713749" lon="-105.229789">
  <ele>1583.0</ele>
  <time>2026-08-28T17:50:36Z</time>
  <course>0.0</course>
  <speed>0.0</speed>
  <fix>3d</fix>
</trkpt>
<trkpt lat="40.0713749" lon="-105.229789">
  <ele>1583.0</ele>
  <time>2026-08-28T17:50:36Z</time>
  <course>247.78</course>
  <speed>0.0316227766016838</speed>
  <fix>3d</fix>
</trkpt>
<trkpt lat="40.0713749" lon="-105.229789">
  <ele>1583.0</ele>
  <time>2026-08-28T17:50:36Z</time>
  <course>0.0</course>
  <speed>0.0</speed>
  <fix>3d</fix>
</trkpt>
<trkpt lat="40.0713749" lon="-105.229789">
  <ele>1583.0</ele>
  <time>2026-08-28T17:50:36Z</time>
  <course>247.77</course>
  <speed>0.0316227766016838</speed>
  <fix>3d</fix>
</trkpt>
<trkpt lat="40.0713749" lon="-105.229789">
  <ele>1583.0</ele>
  <time>2026-08-28T17:50:36Z</time>
  <course>0.0</course>
  <speed>0.0</speed>
  <fix>3d</fix>
</trkpt>
<trkpt lat="40.0713749" lon="-105.229789">
  <ele>1583.0</ele>
  <time>2026-08-28T17:50:36Z</time>
  <course>247.77</course>
  <speed>0.0316227766016838</speed>
  <fix>3d</fix>
</trkpt>
<trkpt lat="40.0713749" lon="-105.229789">
  <ele>1583.0</ele>
  <time>2026-08-28T17:50:36Z</time>
  <course>0.0</course>
  <speed>0.0</speed>
  <fix>3d</fix>
</trkpt>
<trkpt lat="40.0713749" lon="-105.229789">
  <ele>1583.0</ele>
  <time>2026-08-28T17:50:36Z</time>
  <course>247.76</course>
  <speed>0.0316227766016838</speed>
  <fix>3d</fix>
</trkpt>
<trkpt lat="40.0713749" lon="-105.229789">
  <ele>1583.0</ele>
  <time>2026-08-28T17:50:36Z</time>
  <course>0.0</course>
  <speed>0.0</speed>
  <fix>3d</fix>
</trkpt>
<trkpt lat="40.0713749" lon="-105.229789">
  <ele>1583.0</ele>
  <time>2026-08-28T17:50:36Z</time>
  <course>247.76</course>
  <speed>0.0316227766016838</speed>
  <fix>3d</fix>
</trkpt>
<trkpt lat="40.0713749" lon="-105.229789">
  <ele>1583.0</ele>
  <time>2026-08-28T17:50:36Z</time>
  <course>0.0</course>
  <speed>0.0</speed>
  <fix>3d</fix>
</trkpt>
<trkpt lat="40.0713749" lon="-105.229789">
  <ele>1583.0</ele>
  <time>2026-08-28T17:50:36Z</time>
  <course>247.76</course>
  <speed>0.0316227766016838</speed>
  <fix>3d</fix>
</trkpt>
<trkpt lat="40.0713749" lon="-105.229789">
  <ele>1583.0</ele>
  <time>2026-08-28T17:50:36Z</time>
  <course>0.0</course>
  <speed>0.0</speed>
  <fix>3d</fix>
</trkpt>
<trkpt lat="40.0713749" lon="-105.229789">
  <ele>1583.0</ele>
  <time>2026-08-28T17:50:36Z</time>
  <course>247.75</course>
  <speed>0.0316227766016838</speed>
  <fix>3d</fix>
</trkpt>
<trkpt lat="40.0713749" lon="-105.229789">
  <ele>1583.0</ele>
  <time>2026-08-28T17:50:36Z</time>
  <course>0.0</course>
  <speed>0.0</speed>
  <fix>3d</fix>
</trkpt>
<trkpt lat="40.0713749" lon="-105.229789">
  <ele>1583.0</ele>
  <time>2026-08-28T17:50:36Z</time>
  <course>247.75</course>
  <speed>0.0316227766016838</speed>
  <fix>3d</fix>
</trkpt>
<trkpt lat="40.0713749" lon="-105.229789">
  <ele>1583.0</ele>
  <time>2026-08-28T17:50:36Z</time>
  <course>0.0</course>
  <speed>0.0</speed>
  <fix>3d</fix>
</trkpt>
<trkpt lat="40.0713749" lon="-105.229789">
  <ele>1583.0</ele>
  <time>2026-08-28T17:50:36Z</time>
  <course>247.75</course>
  <speed>0.0316227766016838</speed>
  <fix>3d</fix>
</trkpt>
<trkpt lat="40.0713749" lon="-105.229789">
  <ele>1583.0</ele>
  <time>2026-08-28T17:50:36Z</time>
  <course>0.0</course>
  <speed>0.0</speed>
  <fix>3d</fix>
</trkpt>
<trkpt lat="40.0713749" lon="-105.229789">
  <ele>1583.0</ele>
  <time>2026-08-28T17:50:36Z</time>
  <course>247.74</course>
  <speed>0.0316227766016838</speed>
  <fix>3d</fix>
</trkpt>
<trkpt lat="40.0713749" lon="-105.229789">
  <ele>1583.0</ele>
  <time>2026-08-28T17:50:36Z</time>
  <course>0.0</course>
  <speed>0.0</speed>
  <fix>3d</fix>
</trkpt>
<trkpt lat="40.0713749" lon="-105.229789">
  <ele>1583.0</ele>
  <time>2026-08-28T17:50:36Z</time>
  <course>247.74</course>
  <speed>0.0316227766016838</speed>
  <fix>3d</fix>
</trkpt>
<trkpt lat="40.0713749" lon="-105.229789">
  <ele>1583.0</ele>
  <time>2026-08-28T17:50:36Z</time>
  <course>0.0</course>
  <speed>0.0</speed>
  <fix>3d</fix>
</trkpt>
<trkpt lat="40.0713749" lon="-105.229789">
  <ele>1583.0</ele>
  <time>2026-08-28T17:50:36Z</time>
  <course>247.74</course>
  <speed>0.0316227766016838</speed>
  <fix>3d</fix>
</trkpt>
<trkpt lat="40.0713749" lon="-105.229789">
  <ele>1583.0</ele>
  <time>2026-08-28T17:50:36Z</time>
  <course>0.0</course>
  <speed>0.0</speed>
  <fix>3d</fix>
</trkpt>
<trkpt lat="40.0713749" lon="-105.229789">
  <ele>1583.0</ele>
  <time>2026-08-28T17:50:36Z</time>
  <course>247.73</course>
  <speed>0.0316227766016838</speed>
  <fix>3d</fix>
</trkpt>
<trkpt lat="40.0713749" lon="-105.229789">
  <ele>1583.0</ele>
  <time>2026-08-28T17:50:36Z</time>
  <course>0.0</course>
  <speed>0.0</speed>
  <fix>3d</fix>
</trkpt>
<trkpt lat="40.0713749" lon="-105.229789">
  <ele>1583.0</ele>
  <time>2026-08-28T17:50:36Z</time>
  <course>247.73</course>
  <speed>0.0316227766016838</speed>
  <fix>3d</fix>
</trkpt>
<trkpt lat="40.0713749" lon="-105.229789">
  <ele>1583.0</ele>
  <time>2026-08-28T17:50:36Z</time>
  <course>0.0</course>
  <speed>0.0</speed>
  <fix>3d</fix>
</trkpt>
<trkpt lat="40.0713749" lon="-105.229789">
  <ele>1583.0</ele>
  <time>2026-08-28T17:50:36Z</time>
  <course>247.73</course>
  <speed>0.0316227766016838</speed>
  <fix>3d</fix>
</trkpt>
<trkpt lat="40.0713749" lon="-105.229789">
  <ele>1583.0</ele>
  <time>2026-08-28T17:50:36Z</time>
  <course>0.0</course>
  <speed>0.0</speed>
  <fix>3d</fix>
</trkpt>
<trkpt lat="40.0713749" lon="-105.229789">
  <ele>1583.0</ele>
  <time>2026-08-28T17:50:36Z</time>
  <course>247.72</course>
  <speed>0.0316227766016838</speed>
  <fix>3d</fix>
</trkpt>
<trkpt lat="40.0713749" lon="-105.229789">
  <ele>1583.0</ele>
  <time>2026-08-28T17:50:36Z</time>
  <course>0.0</course>
  <speed>0.0</speed>
  <fix>3d</fix>
</trkpt>
<trkpt lat="40.0713749" lon="-105.229789">
  <ele>1583.0</ele>
  <time>2026-08-28T17:50:36Z</time>
  <course>247.72</course>
  <speed>0.0316227766016838</speed>
  <fix>3d</fix>
</trkpt>
<trkpt lat="40.0713749" lon="-105.229789">
  <ele>1583.0</ele>
  <time>2026-08-28T17:50:36Z</time>
  <course>0.0</course>
  <speed>0.0</speed>
  <fix>3d</fix>
</trkpt>
<trkpt lat="40.0713749" lon="-105.229789">
  <ele>1583.0</ele>
  <time>2026-08-28T17:50:36Z</time>
  <course>247.72</course>
  <speed>0.0316227766016838</speed>
  <fix>3d</fix>
</trkpt>
<trkpt lat="40.0713749" lon="-105.229789">
  <ele>1583.0</ele>
  <time>2026-08-28T17:50:36Z</time>
  <course>0.0</course>
  <speed>0.0</speed>
  <fix>3d</fix>
</trkpt>
<trkpt lat="40.0713749" lon="-105.229789">
  <ele>1583.0</ele>
  <time>2026-08-28T17:50:36Z</time>
  <course>247.71</course>
  <speed>0.0316227766016838</speed>
  <fix>3d</fix>
</trkpt>
<trkpt lat="40.0713749" lon="-105.229789">
  <ele>1583.0</ele>
  <time>2026-08-28T17:50:36Z</time>
  <course>0.0</course>
  <speed>0.0</speed>
  <fix>3d</fix>
</trkpt>
<trkpt lat="40.0713749" lon="-105.229789">
  <ele>1583.0</ele>
  <time>2026-08-28T17:50:36Z</time>
  <course>247.71</course>
  <speed>0.0316227766016838</speed>
  <fix>3d</fix>
</trkpt>
<trkpt lat="40.0713749" lon="-105.229789">
  <ele>1583.0</ele>
  <time>2026-08-28T17:50:36Z</time>
  <course>0.0</course>
  <speed>0.0</speed>
  <fix>3d</fix>
</trkpt>
<trkpt lat="40.0713749" lon="-105.229789">
  <ele>1583.0</ele>
  <time>2026-08-28T17:50:36Z</time>
  <course>247.71</course>
  <speed>0.0316227766016838</speed>
  <fix>3d</fix>
</trkpt>
<trkpt lat="40.0713749" lon="-105.229789">
  <ele>1583.0</ele>
  <time>2026-08-28T17:50:36Z</time>
  <course>0.0</course>
  <speed>0.0</speed>
  <fix>3d</fix>
</trkpt>
<trkpt lat="40.0713749" lon="-105.229789">
  <ele>1583.0</ele>
  <time>2026-08-28T17:50:36Z</time>
  <course>247.7</course>
  <speed>0.0316227766016838</speed>
  <fix>3d</fix>
</trkpt>
<trkpt lat="40.0713749" lon="-105.229789">
  <ele>1583.0</ele>
  <time>2026-08-28T17:50:36Z</time>
  <course>0.0</course>
  <speed>0.0</speed>
  <fix>3d</fix>
</trkpt>
<trkpt lat="40.0713749" lon="-105.229789">
  <ele>1583.0</ele>
  <time>2026-08-28T17:50:36Z</time>
  <course>247.7</course>
  <speed>0.0316227766016838</speed>
  <fix>3d</fix>
</trkpt>
<trkpt lat="40.0713749" lon="-105.229789">
  <ele>1583.0</ele>
  <time>2026-08-28T17:50:36Z</time>
  <course>0.0</course>
  <speed>0.0</speed>
  <fix>3d</fix>
</trkpt>
<trkpt lat="40.0713749" lon="-105.229789">
  <ele>1583.0</ele>
  <time>2026-08-28T17:50:36Z</time>
  <course>247.7</course>
  <speed>0.0316227766016838</speed>
  <fix>3d</fix>
</trkpt>
<trkpt lat="40.0713749" lon="-105.229789">
  <ele>1583.0</ele>
  <time>2026-08-28T17:50:36Z</time>
  <course>0.0</course>
  <speed>0.0</speed>
  <fix>3d</fix>
</trkpt>
<trkpt lat="40.0713749" lon="-105.229789">
  <ele>1583.0</ele>
  <time>2026-08-28T17:50:36Z</time>
  <course>247.69</course>
  <speed>0.0316227766016838</speed>
  <fix>3d</fix>
</trkpt>
<trkpt lat="40.0713749" lon="-105.229789">
  <ele>1583.0</ele>
  <time>2026-08-28T17:50:36Z</time>
  <course>0.0</course>
  <speed>0.0</speed>
  <fix>3d</fix>
</trkpt>
<trkpt lat="40.0713749" lon="-105.229789">
  <ele>1583.0</ele>
  <time>2026-08-28T17:50:36Z</time>
  <course>247.69</course>
  <speed>0.0316227766016838</speed>
  <fix>3d</fix>
</trkpt>
<trkpt lat="40.0713749" lon="-105.229789">
  <ele>1583.0</ele>
  <time>2026-08-28T17:50:36Z</time>
  <course>0.0</course>
  <speed>0.0</speed>
  <fix>3d</fix>
</trkpt>
<trkpt lat="40.0713749" lon="-105.229789">
  <ele>1583.0</ele>
  <time>2026-08-28T17:50:36Z</time>
  <course>247.69</course>
  <speed>0.0316227766016838</speed>
  <fix>3d</fix>
</trkpt>
<trkpt lat="40.0713749" lon="-105.229789">
  <ele>1583.0</ele>
  <time>2026-08-28T17:50:36Z</time>
  <course>0.0</course>
  <speed>0.0</speed>
  <fix>3d</fix>
</trkpt>
<trkpt lat="40.0713749" lon="-105.229789">
  <ele>1583.0</ele>
  <time>2026-08-28T17:50:36Z</time>
  <course>247.68</course>
  <speed>0.0316227766016838</speed>
  <fix>3d</fix>
</trkpt>
<trkpt lat="40.0713749" lon="-105.229789">
  <ele>1583.0</ele>
  <time>2026-08-28T17:50:36Z</time>
  <course>0.0</course>
  <speed>0.0</speed>
  <fix>3d</fix>
</trkpt>
<trkpt lat="40.0713749" lon="-105.229789">
  <ele>1583.0</ele>
  <time>2026-08-28T17:50:36Z</time>
  <course>247.68</course>
  <speed>0.0316227766016838</speed>
  <fix>3d</fix>
</trkpt>
<trkpt lat="40.0713749" lon="-105.229789">
  <ele>1583.0</ele>
  <time>2026-08-28T17:50:36Z</time>
  <course>0.0</course>
  <speed>0.0</speed>
  <fix>3d</fix>
</trkpt>
<trkpt lat="40.0713749" lon="-105.229789">
  <ele>1583.0</ele>
  <time>2026-08-28T17:50:36Z</time>
  <course>247.68</course>
  <speed>0.0316227766016838</speed>
  <fix>3d</fix>
</trkpt>
<trkpt lat="40.0713749" lon="-105.229789">
  <ele>1583.0</ele>
  <time>2026-08-28T17:50:36Z</time>
  <course>0.0</course>
  <speed>0.0</speed>
  <fix>3d</fix>
</trkpt>
<trkpt lat="40.0713749" lon="-105.229789">
  <ele>1583.0</ele>
  <time>2026-08-28T17:50:36Z</time>
  <course>247.67</course>
  <speed>0.0316227766016838</speed>
  <fix>3d</fix>
</trkpt>
<trkpt lat="40.0713749" lon="-105.229789">
  <ele>1583.0</ele>
  <time>2026-08-28T17:50:36Z</time>
  <course>0.0</course>
  <speed>0.0</speed>
  <fix>3d</fix>
</trkpt>
<trkpt lat="40.0713749" lon="-105.229789">
  <ele>1583.0</ele>
  <time>2026-08-28T17:50:36Z</time>
  <course>247.67</course>
  <speed>0.0316227766016838</speed>
  <fix>3d</fix>
</trkpt>
<trkpt lat="40.0713749" lon="-105.229789">
  <ele>1583.0</ele>
  <time>2026-08-28T17:50:36Z</time>
  <course>0.0</course>
  <speed>0.0</speed>
  <fix>3d</fix>
</trkpt>
<trkpt lat="40.0713749" lon="-105.229789">
  <ele>1583.0</ele>
  <time>2026-08-28T17:50:36Z</time>
  <course>247.67</course>
  <speed>0.0316227766016838</speed>
  <fix>3d</fix>
</trkpt>
<trkpt lat="40.0713749" lon="-105.229789">
  <ele>1583.0</ele>
  <time>2026-08-28T17:50:36Z</time>
  <course>0.0</course>
  <speed>0.0</speed>
  <fix>3d</fix>
</trkpt>
<trkpt lat="40.0713749" lon="-105.229789">
  <ele>1583.0</ele>
  <time>2026-08-28T17:50:36Z</time>
  <course>247.66</course>
  <speed>0.0316227766016838</speed>
  <fix>3d</fix>
</trkpt>
<trkpt lat="40.0713749" lon="-105.229789">
  <ele>1583.0</ele>
  <time>2026-08-28T17:50:36Z</time>
  <course>0.0</course>
  <speed>0.0</speed>
  <fix>3d</fix>
</trkpt>
<trkpt lat="40.0713749" lon="-105.229789">
  <ele>1583.0</ele>
  <time>2026-08-28T17:50:36Z</time>
  <course>247.66</course>
  <speed>0.0316227766016838</speed>
  <fix>3d</fix>
</trkpt>
<trkpt lat="40.0713749" lon="-105.229789">
  <ele>1583.0</ele>
  <time>2026-08-28T17:50:36Z</time>
  <course>0.0</course>
  <speed>0.0</speed>
  <fix>3d</fix>
</trkpt>
<trkpt lat="40.0713749" lon="-105.229789">
  <ele>1583.0</ele>
  <time>2026-08-28T17:50:36Z</time>
  <course>247.66</course>
  <speed>0.0316227766016838</speed>
  <fix>3d</fix>
</trkpt>
<trkpt lat="40.0713749" lon="-105.229789">
  <ele>1583.0</ele>
  <time>2026-08-28T17:50:36Z</time>
  <course>0.0</course>
  <speed>0.0</speed>
  <fix>3d</fix>
</trkpt>
<trkpt lat="40.0713749" lon="-105.229789">
  <ele>1583.0</ele>
  <time>2026-08-28T17:50:36Z</time>
  <course>247.65</course>
  <speed>0.0316227766016838</speed>
  <fix>3d</fix>
</trkpt>
<trkpt lat="40.0713749" lon="-105.229789">
  <ele>1583.0</ele>
  <time>2026-08-28T17:50:36Z</time>
  <course>0.0</course>
  <speed>0.0</speed>
  <fix>3d</fix>
</trkpt>
<trkpt lat="40.0713749" lon="-105.229789">
  <ele>1583.0</ele>
  <time>2026-08-28T17:50:36Z</time>
  <course>247.65</course>
  <speed>0.0316227766016838</speed>
  <fix>3d</fix>
</trkpt>
<trkpt lat="40.0713749" lon="-105.229789">
  <ele>1583.0</ele>
  <time>2026-08-28T17:50:36Z</time>
  <course>0.0</course>
  <speed>0.0</speed>
  <fix>3d</fix>
</trkpt>
<trkpt lat="40.0713749" lon="-105.229789">
  <ele>1583.0</ele>
  <time>2026-08-28T17:50:36Z</time>
  <course>247.65</course>
  <speed>0.0316227766016838</speed>
  <fix>3d</fix>
</trkpt>
<trkpt lat="40.0713749" lon="-105.229789">
  <ele>1583.0</ele>
  <time>2026-08-28T17:50:36Z</time>
  <course>0.0</course>
  <speed>0.0</speed>
  <fix>3d</fix>
</trkpt>
<trkpt lat="40.0713749" lon="-105.229789">
  <ele>1583.0</ele>
  <time>2026-08-28T17:50:36Z</time>
  <course>247.64</course>
  <speed>0.0316227766016838</speed>
  <fix>3d</fix>
</trkpt>
<trkpt lat="40.0713749" lon="-105.229789">
  <ele>1583.0</ele>
  <time>2026-08-28T17:50:36Z</time>
  <course>0.0</course>
  <speed>0.0</speed>
  <fix>3d</fix>
</trkpt>
<trkpt lat="40.0713749" lon="-105.229789">
  <ele>1583.0</ele>
  <time>2026-08-28T17:50:36Z</time>
  <course>247.64</course>
  <speed>0.0316227766016838</speed>
  <fix>3d</fix>
</trkpt>
<trkpt lat="40.0713749" lon="-105.229789">
  <ele>1583.0</ele>
  <time>2026-08-28T17:50:36Z</time>
  <course>0.0</course>
  <speed>0.0</speed>
  <fix>3d</fix>
</trkpt>
<trkpt lat="40.0713749" lon="-105.229789">
  <ele>1583.0</ele>
  <time>2026-08-28T17:50:36Z</time>
  <course>247.64</course>
  <speed>0.0316227766016838</speed>
  <fix>3d</fix>
</trkpt>
<trkpt lat="40.0713749" lon="-105.229789">
  <ele>1583.0</ele>
  <time>2026-08-28T17:50:36Z</time>
  <course>0.0</course>
  <speed>0.0</speed>
  <fix>3d</fix>
</trkpt>
<trkpt lat="40.0713749" lon="-105.229789">
  <ele>1583.0</ele>
  <time>2026-08-28T17:50:36Z</time>
  <course>247.64</course>
  <speed>0.0316227766016838</speed>
  <fix>3d</fix>
</trkpt>
<trkpt lat="40.0713749" lon="-105.229789">
  <ele>1583.0</ele>
  <time>2026-08-28T17:50:36Z</time>
  <course>0.0</course>
  <speed>0.0</speed>
  <fix>3d</fix>
</trkpt>
<trkpt lat="40.0713749" lon="-105.229789">
  <ele>1583.0</ele>
  <time>2026-08-28T17:50:36Z</time>
  <course>247.63</course>
  <speed>0.0316227766016838</speed>
  <fix>3d</fix>
</trkpt>
<trkpt lat="40.0713749" lon="-105.229789">
  <ele>1583.0</ele>
  <time>2026-08-28T17:50:36Z</time>
  <course>0.0</course>
  <speed>0.0</speed>
  <fix>3d</fix>
</trkpt>
<trkpt lat="40.0713749" lon="-105.229789">
  <ele>1583.0</ele>
  <time>2026-08-28T17:50:36Z</time>
  <course>247.63</course>
  <speed>0.0316227766016838</speed>
  <fix>3d</fix>
</trkpt>
<trkpt lat="40.0713749" lon="-105.229789">
  <ele>1583.0</ele>
  <time>2026-08-28T17:50:36Z</time>
  <course>0.0</course>
  <speed>0.0</speed>
  <fix>3d</fix>
</trkpt>
<trkpt lat="40.0713749" lon="-105.229789">
  <ele>1583.0</ele>
  <time>2026-08-28T17:50:36Z</time>
  <course>247.63</course>
  <speed>0.0316227766016838</speed>
  <fix>3d</fix>
</trkpt>
<trkpt lat="40.0713749" lon="-105.229789">
  <ele>1583.0</ele>
  <time>2026-08-28T17:50:36Z</time>
  <course>0.0</course>
  <speed>0.0</speed>
  <fix>3d</fix>
</trkpt>
<trkpt lat="40.0713749" lon="-105.229789">
  <ele>1583.0</ele>
  <time>2026-08-28T17:50:36Z</time>
  <course>247.62</course>
  <speed>0.0316227766016838</speed>
  <fix>3d</fix>
</trkpt>
<trkpt lat="40.0713749" lon="-105.229789">
  <ele>1583.0</ele>
  <time>2026-08-28T17:50:36Z</time>
  <course>0.0</course>
  <speed>0.0</speed>
  <fix>3d</fix>
</trkpt>
<trkpt lat="40.0713749" lon="-105.229789">
  <ele>1583.0</ele>
  <time>2026-08-28T17:50:36Z</time>
  <course>247.62</course>
  <speed>0.0316227766016838</speed>
  <fix>3d</fix>
</trkpt>
<trkpt lat="40.0713749" lon="-105.229789">
  <ele>1583.0</ele>
  <time>2026-08-28T17:50:36Z</time>
  <course>0.0</course>
  <speed>0.0</speed>
  <fix>3d</fix>
</trkpt>
<trkpt lat="40.0713749" lon="-105.229789">
  <ele>1583.0</ele>
  <time>2026-08-28T17:50:36Z</time>
  <course>247.62</course>
  <speed>0.0316227766016838</speed>
  <fix>3d</fix>
</trkpt>
<trkpt lat="40.0713749" lon="-105.229789">
  <ele>1583.0</ele>
  <time>2026-08-28T17:50:36Z</time>
  <course>0.0</course>
  <speed>0.0</speed>
  <fix>3d</fix>
</trkpt>
<trkpt lat="40.0713749" lon="-105.229789">
  <ele>1583.0</ele>
  <time>2026-08-28T17:50:36Z</time>
  <course>247.62</course>
  <speed>0.0316227766016838</speed>
  <fix>3d</fix>
</trkpt>
<trkpt lat="40.0713749" lon="-105.229789">
  <ele>1583.0</ele>
  <time>2026-08-28T17:50:36Z</time>
  <course>0.0</course>
  <speed>0.0</speed>
  <fix>3d</fix>
</trkpt>
<trkpt lat="40.0713749" lon="-105.229789">
  <ele>1583.0</ele>
  <time>2026-08-28T17:50:36Z</time>
  <course>247.61</course>
  <speed>0.0316227766016838</speed>
  <fix>3d</fix>
</trkpt>
<trkpt lat="40.0713749" lon="-105.229789">
  <ele>1583.0</ele>
  <time>2026-08-28T17:50:36Z</time>
  <course>0.0</course>
  <speed>0.0</speed>
  <fix>3d</fix>
</trkpt>
<trkpt lat="40.0713749" lon="-105.229789">
  <ele>1583.0</ele>
  <time>2026-08-28T17:50:36Z</time>
  <course>247.61</course>
  <speed>0.0316227766016838</speed>
  <fix>3d</fix>
</trkpt>
<trkpt lat="40.0713749" lon="-105.229789">
  <ele>1583.0</ele>
  <time>2026-08-28T17:50:36Z</time>
  <course>0.0</course>
  <speed>0.0</speed>
  <fix>3d</fix>
</trkpt>
<trkpt lat="40.0713749" lon="-105.229789">
  <ele>1583.0</ele>
  <time>2026-08-28T17:50:36Z</time>
  <course>247.61</course>
  <speed>0.0316227766016838</speed>
  <fix>3d</fix>
</trkpt>
<trkpt lat="40.0713749" lon="-105.229789">
  <ele>1583.0</ele>
  <time>2026-08-28T17:50:36Z</time>
  <course>0.0</course>
  <speed>0.0</speed>
  <fix>3d</fix>
</trkpt>
<trkpt lat="40.0713749" lon="-105.229789">
  <ele>1583.0</ele>
  <time>2026-08-28T17:50:36Z</time>
  <course>247.6</course>
  <speed>0.0316227766016838</speed>
  <fix>3d</fix>
</trkpt>
<trkpt lat="40.0713749" lon="-105.229789">
  <ele>1583.0</ele>
  <time>2026-08-28T17:50:36Z</time>
  <course>0.0</course>
  <speed>0.0</speed>
  <fix>3d</fix>
</trkpt>
<trkpt lat="40.0713749" lon="-105.229789">
  <ele>1583.0</ele>
  <time>2026-08-28T17:50:36Z</time>
  <course>247.6</course>
  <speed>0.0316227766016838</speed>
  <fix>3d</fix>
</trkpt>
<trkpt lat="40.0713749" lon="-105.229789">
  <ele>1583.0</ele>
  <time>2026-08-28T17:50:36Z</time>
  <course>0.0</course>
  <speed>0.0</speed>
  <fix>3d</fix>
</trkpt>
<trkpt lat="40.0713749" lon="-105.229789">
  <ele>1583.0</ele>
  <time>2026-08-28T17:50:36Z</time>
  <course>247.6</course>
  <speed>0.0316227766016838</speed>
  <fix>3d</fix>
</trkpt>
<trkpt lat="40.0713749" lon="-105.229789">
  <ele>1583.0</ele>
  <time>2026-08-28T17:50:36Z</time>
  <course>0.0</course>
  <speed>0.0</speed>
  <fix>3d</fix>
</trkpt>
<trkpt lat="40.0713749" lon="-105.229789">
  <ele>1583.0</ele>
  <time>2026-08-28T17:50:36Z</time>
  <course>247.6</course>
  <speed>0.0316227766016838</speed>
  <fix>3d</fix>
</trkpt>
<trkpt lat="40.0713749" lon="-105.229789">
  <ele>1583.0</ele>
  <time>2026-08-28T17:50:36Z</time>
  <course>0.0</course>
  <speed>0.0</speed>
  <fix>3d</fix>
</trkpt>
<trkpt lat="40.0713749" lon="-105.229789">
  <ele>1583.0</ele>
  <time>2026-08-28T17:50:36Z</time>
  <course>247.59</course>
  <speed>0.0316227766016838</speed>
  <fix>3d</fix>
</trkpt>
<trkpt lat="40.0713749" lon="-105.229789">
  <ele>1583.0</ele>
  <time>2026-08-28T17:50:36Z</time>
  <course>0.0</course>
  <speed>0.0</speed>
  <fix>3d</fix>
</trkpt>
<trkpt lat="40.0713749" lon="-105.229789">
  <ele>1582.92</ele>
  <time>2026-08-28T17:50:36Z</time>
  <course>247.59</course>
  <speed>0.0</speed>
  <fix>3d</fix>
</trkpt>
<trkpt lat="40.0713749" lon="-105.229789">
  <ele>1583.0</ele>
  <time>2026-08-28T17:50:36Z</time>
  <course>0.0</course>
  <speed>0.0</speed>
  <fix>3d</fix>
</trkpt>
<trkpt lat="40.0713749" lon="-105.229789">
  <ele>1582.92</ele>
  <time>2026-08-28T17:50:36Z</time>
  <course>247.59</course>
  <speed>0.0</speed>
  <fix>3d</fix>
</trkpt>
<trkpt lat="40.0713749" lon="-105.229789">
  <ele>1583.0</ele>
  <time>2026-08-28T17:50:36Z</time>
  <course>0.0</course>
  <speed>0.0</speed>
  <fix>3d</fix>
</trkpt>
<trkpt lat="40.0713749" lon="-105.229789">
  <ele>1582.91</ele>
  <time>2026-08-28T17:50:36Z</time>
  <course>247.58</course>
  <speed>0.0</speed>
  <fix>3d</fix>
</trkpt>
<trkpt lat="40.0713749" lon="-105.229789">
  <ele>1583.0</ele>
  <time>2026-08-28T17:50:36Z</time>
  <course>0.0</course>
  <speed>0.0</speed>
  <fix>3d</fix>
</trkpt>
<trkpt lat="40.0713749" lon="-105.229789">
  <ele>1582.91</ele>
  <time>2026-08-28T17:50:36Z</time>
  <course>247.58</course>
  <speed>0.0</speed>
  <fix>3d</fix>
</trkpt>
<trkpt lat="40.0713749" lon="-105.229789">
  <ele>1583.0</ele>
  <time>2026-08-28T17:50:36Z</time>
  <course>0.0</course>
  <speed>0.0</speed>
  <fix>3d</fix>
</trkpt>
<trkpt lat="40.0713749" lon="-105.229789">
  <ele>1582.9</ele>
  <time>2026-08-28T17:50:36Z</time>
  <course>247.58</course>
  <speed>0.0</speed>
  <fix>3d</fix>
</trkpt>
<trkpt lat="40.0713749" lon="-105.229789">
  <ele>1583.0</ele>
  <time>2026-08-28T17:50:36Z</time>
  <course>0.0</course>
  <speed>0.0</speed>
  <fix>3d</fix>
</trkpt>
<trkpt lat="40.0713749" lon="-105.229789">
  <ele>1582.9</ele>
  <time>2026-08-28T17:50:36Z</time>
  <course>247.58</course>
  <speed>0.0</speed>
  <fix>3d</fix>
</trkpt>
<trkpt lat="40.0713749" lon="-105.229789">
  <ele>1583.0</ele>
  <time>2026-08-28T17:50:36Z</time>
  <course>0.0</course>
  <speed>0.0</speed>
  <fix>3d</fix>
</trkpt>
<trkpt lat="40.0713749" lon="-105.229789">
  <ele>1582.9</ele>
  <time>2026-08-28T17:50:36Z</time>
  <course>247.57</course>
  <speed>0.0</speed>
  <fix>3d</fix>
</trkpt>
<trkpt lat="40.0713749" lon="-105.229789">
  <ele>1583.0</ele>
  <time>2026-08-28T17:50:36Z</time>
  <course>0.0</course>
  <speed>0.0</speed>
  <fix>3d</fix>
</trkpt>
<trkpt lat="40.0713749" lon="-105.229789">
  <ele>1582.9</ele>
  <time>2026-08-28T17:50:36Z</time>
  <course>247.57</course>
  <speed>0.0</speed>
  <fix>3d</fix>
</trkpt>
<trkpt lat="40.0713749" lon="-105.229789">
  <ele>1583.0</ele>
  <time>2026-08-28T17:50:36Z</time>
  <course>0.0</course>
  <speed>0.0</speed>
  <fix>3d</fix>
</trkpt>
<trkpt lat="40.0713749" lon="-105.229789">
  <ele>1582.9</ele>
  <time>2026-08-28T17:50:36Z</time>
  <course>247.57</course>
  <speed>0.0</speed>
  <fix>3d</fix>
</trkpt>
<trkpt lat="40.0713749" lon="-105.229789">
  <ele>1583.0</ele>
  <time>2026-08-28T17:50:36Z</time>
  <course>0.0</course>
  <speed>0.0</speed>
  <fix>3d</fix>
</trkpt>
<trkpt lat="40.0713749" lon="-105.229789">
  <ele>1582.9</ele>
  <time>2026-08-28T17:50:36Z</time>
  <course>247.57</course>
  <speed>0.01</speed>
  <fix>3d</fix>
</trkpt>
<trkpt lat="40.0713749" lon="-105.229789">
  <ele>1583.0</ele>
  <time>2026-08-28T17:50:36Z</time>
  <course>0.0</course>
  <speed>0.0</speed>
  <fix>3d</fix>
</trkpt>
<trkpt lat="40.0713749" lon="-105.229789">
  <ele>1582.9</ele>
  <time>2026-08-28T17:50:36Z</time>
  <course>247.56</course>
  <speed>0.01</speed>
  <fix>3d</fix>
</trkpt>
<trkpt lat="40.0713749" lon="-105.229789">
  <ele>1583.0</ele>
  <time>2026-08-28T17:50:36Z</time>
  <course>0.0</course>
  <speed>0.0</speed>
  <fix>3d</fix>
</trkpt>
<trkpt lat="40.0713749" lon="-105.229789">
  <ele>1582.91</ele>
  <time>2026-08-28T17:50:36Z</time>
  <course>247.56</course>
  <speed>0.01</speed>
  <fix>3d</fix>
</trkpt>
<trkpt lat="40.0713749" lon="-105.229789">
  <ele>1583.0</ele>
  <time>2026-08-28T17:50:36Z</time>
  <course>0.0</course>
  <speed>0.0</speed>
  <fix>3d</fix>
</trkpt>
<trkpt lat="40.0713749" lon="-105.229789">
  <ele>1582.91</ele>
  <time>2026-08-28T17:50:36Z</time>
  <course>247.56</course>
  <speed>0.01</speed>
  <fix>3d</fix>
</trkpt>
<trkpt lat="40.0713749" lon="-105.229789">
  <ele>1583.0</ele>
  <time>2026-08-28T17:50:36Z</time>
  <course>0.0</course>
  <speed>0.0</speed>
  <fix>3d</fix>
</trkpt>
<trkpt lat="40.0713749" lon="-105.229789">
  <ele>1582.92</ele>
  <time>2026-08-28T17:50:36Z</time>
  <course>247.56</course>
  <speed>0.01</speed>
  <fix>3d</fix>
</trkpt>
<trkpt lat="40.0713749" lon="-105.229789">
  <ele>1583.0</ele>
  <time>2026-08-28T17:50:36Z</time>
  <course>0.0</course>
  <speed>0.0</speed>
  <fix>3d</fix>
</trkpt>
<trkpt lat="40.0713749" lon="-105.229789">
  <ele>1582.92</ele>
  <time>2026-08-28T17:50:36Z</time>
  <course>247.55</course>
  <speed>0.01</speed>
  <fix>3d</fix>
</trkpt>
<trkpt lat="40.0713749" lon="-105.229789">
  <ele>1583.0</ele>
  <time>2026-08-28T17:50:36Z</time>
  <course>0.0</course>
  <speed>0.0</speed>
  <fix>3d</fix>
</trkpt>
<trkpt lat="40.0713749" lon="-105.229789">
  <ele>1582.92</ele>
  <time>2026-08-28T17:50:36Z</time>
  <course>247.55</course>
  <speed>0.01</speed>
  <fix>3d</fix>
</trkpt>
<trkpt lat="40.0713749" lon="-105.229789">
  <ele>1583.0</ele>
  <time>2026-08-28T17:50:36Z</time>
  <course>0.0</course>
  <speed>0.0</speed>
  <fix>3d</fix>
</trkpt>
<trkpt lat="40.0713749" lon="-105.229789">
  <ele>1582.93</ele>
  <time>2026-08-28T17:50:36Z</time>
  <course>247.55</course>
  <speed>0.01</speed>
  <fix>3d</fix>
</trkpt>
<trkpt lat="40.0713749" lon="-105.229789">
  <ele>1583.0</ele>
  <time>2026-08-28T17:50:36Z</time>
  <course>0.0</course>
  <speed>0.0</speed>
  <fix>3d</fix>
</trkpt>
<trkpt lat="40.0713749" lon="-105.229789">
  <ele>1582.93</ele>
  <time>2026-08-28T17:50:37Z</time>
  <course>247.55</course>
  <speed>0.01</speed>
  <fix>3d</fix>
</trkpt>
<trkpt lat="40.0713749" lon="-105.229789">
  <ele>1583.0</ele>
  <time>2026-08-28T17:50:37Z</time>
  <course>0.0</course>
  <speed>0.0</speed>
  <fix>3d</fix>
</trkpt>
<trkpt lat="40.0713749" lon="-105.229789">
  <ele>1582.93</ele>
  <time>2026-08-28T17:50:37Z</time>
  <course>247.54</course>
  <speed>0.02</speed>
  <fix>3d</fix>
</trkpt>
<trkpt lat="40.0713749" lon="-105.229789">
  <ele>1583.0</ele>
  <time>2026-08-28T17:50:37Z</time>
  <course>0.0</course>
  <speed>0.0</speed>
  <fix>3d</fix>
</trkpt>
<trkpt lat="40.0713749" lon="-105.229789">
  <ele>1582.93</ele>
  <time>2026-08-28T17:50:37Z</time>
  <course>247.54</course>
  <speed>0.02</speed>
  <fix>3d</fix>
</trkpt>
<trkpt lat="40.0713749" lon="-105.229789">
  <ele>1583.0</ele>
  <time>2026-08-28T17:50:37Z</time>
  <course>0.0</course>
  <speed>0.0</speed>
  <fix>3d</fix>
</trkpt>
<trkpt lat="40.0713749" lon="-105.229789">
  <ele>1582.93</ele>
  <time>2026-08-28T17:50:37Z</time>
  <course>247.54</course>
  <speed>0.02</speed>
  <fix>3d</fix>
</trkpt>
<trkpt lat="40.0713749" lon="-105.229789">
  <ele>1583.0</ele>
  <time>2026-08-28T17:50:37Z</time>
  <course>0.0</course>
  <speed>0.0</speed>
  <fix>3d</fix>
</trkpt>
<trkpt lat="40.0713749" lon="-105.229789">
  <ele>1582.93</ele>
  <time>2026-08-28T17:50:37Z</time>
  <course>247.54</course>
  <speed>0.022360679774997897</speed>
  <fix>3d</fix>
</trkpt>
<trkpt lat="40.0713749" lon="-105.229789">
  <ele>1583.0</ele>
  <time>2026-08-28T17:50:37Z</time>
  <course>0.0</course>
  <speed>0.0</speed>
  <fix>3d</fix>
</trkpt>
<trkpt lat="40.0713749" lon="-105.229789">
  <ele>1582.94</ele>
  <time>2026-08-28T17:50:37Z</time>
  <course>247.53</course>
  <speed>0.022360679774997897</speed>
  <fix>3d</fix>
</trkpt>
<trkpt lat="40.0713749" lon="-105.229789">
  <ele>1583.0</ele>
  <time>2026-08-28T17:50:37Z</time>
  <course>0.0</course>
  <speed>0.0</speed>
  <fix>3d</fix>
</trkpt>
<trkpt lat="40.0713749" lon="-105.229789">
  <ele>1582.94</ele>
  <time>2026-08-28T17:50:37Z</time>
  <course>247.53</course>
  <speed>0.022360679774997897</speed>
  <fix>3d</fix>
</trkpt>
<trkpt lat="40.0713749" lon="-105.229789">
  <ele>1583.0</ele>
  <time>2026-08-28T17:50:37Z</time>
  <course>0.0</course>
  <speed>0.0</speed>
  <fix>3d</fix>
</trkpt>
<trkpt lat="40.071375" lon="-105.229789">
  <ele>1582.94</ele>
  <time>2026-08-28T17:50:37Z</time>
  <course>247.53</course>
  <speed>0.022360679774997897</speed>
  <fix>3d</fix>
</trkpt>
<trkpt lat="40.0713749" lon="-105.229789">
  <ele>1583.0</ele>
  <time>2026-08-28T17:50:37Z</time>
  <course>0.0</course>
  <speed>0.0</speed>
  <fix>3d</fix>
</trkpt>
<trkpt lat="40.071375" lon="-105.229789">
  <ele>1582.95</ele>
  <time>2026-08-28T17:50:37Z</time>
  <course>247.53</course>
  <speed>0.022360679774997897</speed>
  <fix>3d</fix>
</trkpt>
<trkpt lat="40.0713749" lon="-105.229789">
  <ele>1583.0</ele>
  <time>2026-08-28T17:50:37Z</time>
  <course>0.0</course>
  <speed>0.0</speed>
  <fix>3d</fix>
</trkpt>
<trkpt lat="40.071375" lon="-105.229789">
  <ele>1582.95</ele>
  <time>2026-08-28T17:50:37Z</time>
  <course>247.53</course>
  <speed>0.022360679774997897</speed>
  <fix>3d</fix>
</trkpt>
<trkpt lat="40.0713749" lon="-105.229789">
  <ele>1583.0</ele>
  <time>2026-08-28T17:50:37Z</time>
  <course>0.0</course>
  <speed>0.0</speed>
  <fix>3d</fix>
</trkpt>
<trkpt lat="40.071375" lon="-105.229789">
  <ele>1582.95</ele>
  <time>2026-08-28T17:50:37Z</time>
  <course>247.52</course>
  <speed>0.022360679774997897</speed>
  <fix>3d</fix>
</trkpt>
<trkpt lat="40.0713749" lon="-105.229789">
  <ele>1583.0</ele>
  <time>2026-08-28T17:50:37Z</time>
  <course>0.0</course>
  <speed>0.0</speed>
  <fix>3d</fix>
</trkpt>
<trkpt lat="40.071375" lon="-105.229789">
  <ele>1582.95</ele>
  <time>2026-08-28T17:50:37Z</time>
  <course>247.52</course>
  <speed>0.022360679774997897</speed>
  <fix>3d</fix>
</trkpt>
<trkpt lat="40.0713749" lon="-105.229789">
  <ele>1583.0</ele>
  <time>2026-08-28T17:50:37Z</time>
  <course>0.0</course>
  <speed>0.0</speed>
  <fix>3d</fix>
</trkpt>
<trkpt lat="40.071375" lon="-105.229789">
  <ele>1582.95</ele>
  <time>2026-08-28T17:50:37Z</time>
  <course>247.52</course>
  <speed>0.022360679774997897</speed>
  <fix>3d</fix>
</trkpt>
<trkpt lat="40.0713749" lon="-105.229789">
  <ele>1583.0</ele>
  <time>2026-08-28T17:50:37Z</time>
  <course>0.0</course>
  <speed>0.0</speed>
  <fix>3d</fix>
</trkpt>
<trkpt lat="40.071375" lon="-105.229789">
  <ele>1582.95</ele>
  <time>2026-08-28T17:50:37Z</time>
  <course>247.52</course>
  <speed>0.022360679774997897</speed>
  <fix>3d</fix>
</trkpt>
<trkpt lat="40.0713749" lon="-105.229789">
  <ele>1583.0</ele>
  <time>2026-08-28T17:50:37Z</time>
  <course>0.0</course>
  <speed>0.0</speed>
  <fix>3d</fix>
</trkpt>
<trkpt lat="40.071375" lon="-105.229789">
  <ele>1582.95</ele>
  <time>2026-08-28T17:50:37Z</time>
  <course>247.51</course>
  <speed>0.0316227766016838</speed>
  <fix>3d</fix>
</trkpt>
<trkpt lat="40.0713749" lon="-105.229789">
  <ele>1583.0</ele>
  <time>2026-08-28T17:50:37Z</time>
  <course>0.0</course>
  <speed>0.0</speed>
  <fix>3d</fix>
</trkpt>
<trkpt lat="40.071375" lon="-105.229789">
  <ele>1582.95</ele>
  <time>2026-08-28T17:50:37Z</time>
  <course>247.51</course>
  <speed>0.0316227766016838</speed>
  <fix>3d</fix>
</trkpt>
<trkpt lat="40.0713749" lon="-105.229789">
  <ele>1583.0</ele>
  <time>2026-08-28T17:50:37Z</time>
  <course>0.0</course>
  <speed>0.0</speed>
  <fix>3d</fix>
</trkpt>
<trkpt lat="40.071375" lon="-105.229789">
  <ele>1582.95</ele>
  <time>2026-08-28T17:50:37Z</time>
  <course>247.51</course>
  <speed>0.0316227766016838</speed>
  <fix>3d</fix>
</trkpt>
<trkpt lat="40.0713749" lon="-105.229789">
  <ele>1583.0</ele>
  <time>2026-08-28T17:50:37Z</time>
  <course>0.0</course>
  <speed>0.0</speed>
  <fix>3d</fix>
</trkpt>
<trkpt lat="40.071375" lon="-105.2297889">
  <ele>1582.95</ele>
  <time>2026-08-28T17:50:37Z</time>
  <course>247.51</course>
  <speed>0.0316227766016838</speed>
  <fix>3d</fix>
</trkpt>
<trkpt lat="40.0713749" lon="-105.229789">
  <ele>1583.0</ele>
  <time>2026-08-28T17:50:37Z</time>
  <course>0.0</course>
  <speed>0.0</speed>
  <fix>3d</fix>
</trkpt>
<trkpt lat="40.071375" lon="-105.2297889">
  <ele>1582.95</ele>
  <time>2026-08-28T17:50:37Z</time>
  <course>247.51</course>
  <speed>0.0316227766016838</speed>
  <fix>3d</fix>
</trkpt>
<trkpt lat="40.0713749" lon="-105.229789">
  <ele>1583.0</ele>
  <time>2026-08-28T17:50:37Z</time>
  <course>0.0</course>
  <speed>0.0</speed>
  <fix>3d</fix>
</trkpt>
<trkpt lat="40.071375" lon="-105.2297889">
  <ele>1582.95</ele>
  <time>2026-08-28T17:50:37Z</time>
  <course>247.5</course>
  <speed>0.0316227766016838</speed>
  <fix>3d</fix>
</trkpt>
<trkpt lat="40.0713749" lon="-105.229789">
  <ele>1583.0</ele>
  <time>2026-08-28T17:50:37Z</time>
  <course>0.0</course>
  <speed>0.0</speed>
  <fix>3d</fix>
</trkpt>
<trkpt lat="40.071375" lon="-105.2297889">
  <ele>1582.95</ele>
  <time>2026-08-28T17:50:37Z</time>
  <course>247.5</course>
  <speed>0.0316227766016838</speed>
  <fix>3d</fix>
</trkpt>
<trkpt lat="40.0713749" lon="-105.229789">
  <ele>1583.0</ele>
  <time>2026-08-28T17:50:37Z</time>
  <course>0.0</course>
  <speed>0.0</speed>
  <fix>3d</fix>
</trkpt>
<trkpt lat="40.071375" lon="-105.2297889">
  <ele>1582.95</ele>
  <time>2026-08-28T17:50:37Z</time>
  <course>247.5</course>
  <speed>0.0316227766016838</speed>
  <fix>3d</fix>
</trkpt>
<trkpt lat="40.0713749" lon="-105.229789">
  <ele>1583.0</ele>
  <time>2026-08-28T17:50:37Z</time>
  <course>0.0</course>
  <speed>0.0</speed>
  <fix>3d</fix>
</trkpt>
<trkpt lat="40.0713751" lon="-105.2297889">
  <ele>1582.95</ele>
  <time>2026-08-28T17:50:37Z</time>
  <course>247.5</course>
  <speed>0.0316227766016838</speed>
  <fix>3d</fix>
</trkpt>
<trkpt lat="40.0713749" lon="-105.229789">
  <ele>1583.0</ele>
  <time>2026-08-28T17:50:37Z</time>
  <course>0.0</course>
  <speed>0.0</speed>
  <fix>3d</fix>
</trkpt>
<trkpt lat="40.0713751" lon="-105.2297889">
  <ele>1582.96</ele>
  <time>2026-08-28T17:50:37Z</time>
  <course>247.49</course>
  <speed>0.0316227766016838</speed>
  <fix>3d</fix>
</trkpt>
<trkpt lat="40.0713749" lon="-105.229789">
  <ele>1583.0</ele>
  <time>2026-08-28T17:50:37Z</time>
  <course>0.0</course>
  <speed>0.0</speed>
  <fix>3d</fix>
</trkpt>
<trkpt lat="40.0713751" lon="-105.2297889">
  <ele>1582.96</ele>
  <time>2026-08-28T17:50:37Z</time>
  <course>247.49</course>
  <speed>0.0316227766016838</speed>
  <fix>3d</fix>
</trkpt>
<trkpt lat="40.0713749" lon="-105.229789">
  <ele>1583.0</ele>
  <time>2026-08-28T17:50:37Z</time>
  <course>0.0</course>
  <speed>0.0</speed>
  <fix>3d</fix>
</trkpt>
<trkpt lat="40.0713751" lon="-105.2297889">
  <ele>1582.97</ele>
  <time>2026-08-28T17:50:37Z</time>
  <course>247.49</course>
  <speed>0.0316227766016838</speed>
  <fix>3d</fix>
</trkpt>
<trkpt lat="40.0713749" lon="-105.229789">
  <ele>1583.0</ele>
  <time>2026-08-28T17:50:37Z</time>
  <course>0.0</course>
  <speed>0.0</speed>
  <fix>3d</fix>
</trkpt>
<trkpt lat="40.0713751" lon="-105.2297889">
  <ele>1582.98</ele>
  <time>2026-08-28T17:50:37Z</time>
  <course>247.49</course>
  <speed>0.0316227766016838</speed>
  <fix>3d</fix>
</trkpt>
<trkpt lat="40.0713749" lon="-105.229789">
  <ele>1583.0</ele>
  <time>2026-08-28T17:50:37Z</time>
  <course>0.0</course>
  <speed>0.0</speed>
  <fix>3d</fix>
</trkpt>
<trkpt lat="40.0713751" lon="-105.2297889">
  <ele>1582.98</ele>
  <time>2026-08-28T17:50:37Z</time>
  <course>247.49</course>
  <speed>0.0316227766016838</speed>
  <fix>3d</fix>
</trkpt>
<trkpt lat="40.0713749" lon="-105.229789">
  <ele>1583.0</ele>
  <time>2026-08-28T17:50:37Z</time>
  <course>0.0</course>
  <speed>0.0</speed>
  <fix>3d</fix>
</trkpt>
<trkpt lat="40.0713749" lon="-105.229789">
  <ele>1583.0</ele>
  <time>2026-08-28T17:50:37Z</time>
  <course>238.44</course>
  <speed>0.0</speed>
  <fix>3d</fix>
</trkpt>
<trkpt lat="40.0713749" lon="-105.229789">
  <ele>1583.0</ele>
  <time>2026-08-28T17:50:37Z</time>
  <course>0.0</course>
  <speed>0.0</speed>
  <fix>3d</fix>
</trkpt>
<trkpt lat="40.0713749" lon="-105.229789">
  <ele>1583.0</ele>
  <time>2026-08-28T17:50:37Z</time>
  <course>241.49</course>
  <speed>0.0</speed>
  <fix>3d</fix>
</trkpt>
<trkpt lat="40.0713749" lon="-105.229789">
  <ele>1583.0</ele>
  <time>2026-08-28T17:50:37Z</time>
  <course>0.0</course>
  <speed>0.0</speed>
  <fix>3d</fix>
</trkpt>
<trkpt lat="40.0713749" lon="-105.229789">
  <ele>1583.0</ele>
  <time>2026-08-28T17:50:37Z</time>
  <course>243.89</course>
  <speed>0.0</speed>
  <fix>3d</fix>
</trkpt>
<trkpt lat="40.0713749" lon="-105.229789">
  <ele>1583.0</ele>
  <time>2026-08-28T17:50:37Z</time>
  <course>0.0</course>
  <speed>0.0</speed>
  <fix>3d</fix>
</trkpt>
<trkpt lat="40.0713749" lon="-105.229789">
  <ele>1583.0</ele>
  <time>2026-08-28T17:50:37Z</time>
  <course>245.57</course>
  <speed>0.0</speed>
  <fix>3d</fix>
</trkpt>
<trkpt lat="40.0713749" lon="-105.229789">
  <ele>1583.0</ele>
  <time>2026-08-28T17:50:37Z</time>
  <course>0.0</course>
  <speed>0.0</speed>
  <fix>3d</fix>
</trkpt>
<trkpt lat="40.0713749" lon="-105.229789">
  <ele>1583.0</ele>
  <time>2026-08-28T17:50:37Z</time>
  <course>246.7</course>
  <speed>0.0</speed>
  <fix>3d</fix>
</trkpt>
<trkpt lat="40.0713749" lon="-105.229789">
  <ele>1583.0</ele>
  <time>2026-08-28T17:50:37Z</time>
  <course>0.0</course>
  <speed>0.0</speed>
  <fix>3d</fix>
</trkpt>
<trkpt lat="40.0713749" lon="-105.229789">
  <ele>1583.0</ele>
  <time>2026-08-28T17:50:37Z</time>
  <course>247.42</course>
  <speed>0.0</speed>
  <fix>3d</fix>
</trkpt>
<trkpt lat="40.0713749" lon="-105.229789">
  <ele>1583.0</ele>
  <time>2026-08-28T17:50:37Z</time>
  <course>0.0</course>
  <speed>0.0</speed>
  <fix>3d</fix>
</trkpt>
<trkpt lat="40.0713749" lon="-105.229789">
  <ele>1583.0</ele>
  <time>2026-08-28T17:50:37Z</time>
  <course>247.87</course>
  <speed>0.0</speed>
  <fix>3d</fix>
</trkpt>
<trkpt lat="40.0713749" lon="-105.229789">
  <ele>1583.0</ele>
  <time>2026-08-28T17:50:37Z</time>
  <course>0.0</course>
  <speed>0.0</speed>
  <fix>3d</fix>
</trkpt>
<trkpt lat="40.0713749" lon="-105.229789">
  <ele>1583.0</ele>
  <time>2026-08-28T17:50:37Z</time>
  <course>247.94</course>
  <speed>0.0</speed>
  <fix>3d</fix>
</trkpt>
<trkpt lat="40.0713749" lon="-105.229789">
  <ele>1583.0</ele>
  <time>2026-08-28T17:50:37Z</time>
  <course>0.0</course>
  <speed>0.0</speed>
  <fix>3d</fix>
</trkpt>
<trkpt lat="40.0713749" lon="-105.229789">
  <ele>1583.0</ele>
  <time>2026-08-28T17:50:37Z</time>
  <course>247.97</course>
  <speed>0.0</speed>
  <fix>3d</fix>
</trkpt>
<trkpt lat="40.0713749" lon="-105.229789">
  <ele>1583.0</ele>
  <time>2026-08-28T17:50:37Z</time>
  <course>0.0</course>
  <speed>0.0</speed>
  <fix>3d</fix>
</trkpt>
<trkpt lat="40.0713749" lon="-105.229789">
  <ele>1583.0</ele>
  <time>2026-08-28T17:50:37Z</time>
  <course>248.0</course>
  <speed>0.0</speed>
  <fix>3d</fix>
</trkpt>
<trkpt lat="40.0713749" lon="-105.229789">
  <ele>1583.0</ele>
  <time>2026-08-28T17:50:37Z</time>
  <course>0.0</course>
  <speed>0.0</speed>
  <fix>3d</fix>
</trkpt>
<trkpt lat="40.0713749" lon="-105.229789">
  <ele>1583.0</ele>
  <time>2026-08-28T17:50:37Z</time>
  <course>248.02</course>
  <speed>0.0</speed>
  <fix>3d</fix>
</trkpt>
<trkpt lat="40.0713749" lon="-105.229789">
  <ele>1583.0</ele>
  <time>2026-08-28T17:50:37Z</time>
  <course>0.0</course>
  <speed>0.0</speed>
  <fix>3d</fix>
</trkpt>
<trkpt lat="40.0713749" lon="-105.229789">
  <ele>1583.0</ele>
  <time>2026-08-28T17:50:37Z</time>
  <course>248.05</course>
  <speed>0.0</speed>
  <fix>3d</fix>
</trkpt>
<trkpt lat="40.0713749" lon="-105.229789">
  <ele>1583.0</ele>
  <time>2026-08-28T17:50:37Z</time>
  <course>0.0</course>
  <speed>0.0</speed>
  <fix>3d</fix>
</trkpt>
<trkpt lat="40.0713749" lon="-105.229789">
  <ele>1583.0</ele>
  <time>2026-08-28T17:50:37Z</time>
  <course>248.08</course>
  <speed>0.0</speed>
  <fix>3d</fix>
</trkpt>
<trkpt lat="40.0713749" lon="-105.229789">
  <ele>1583.0</ele>
  <time>2026-08-28T17:50:37Z</time>
  <course>0.0</course>
  <speed>0.0</speed>
  <fix>3d</fix>
</trkpt>
<trkpt lat="40.0713749" lon="-105.229789">
  <ele>1583.0</ele>
  <time>2026-08-28T17:50:37Z</time>
  <course>248.1</course>
  <speed>0.0</speed>
  <fix>3d</fix>
</trkpt>
<trkpt lat="40.0713749" lon="-105.229789">
  <ele>1583.0</ele>
  <time>2026-08-28T17:50:37Z</time>
  <course>0.0</course>
  <speed>0.0</speed>
  <fix>3d</fix>
</trkpt>
<trkpt lat="40.0713749" lon="-105.229789">
  <ele>1583.0</ele>
  <time>2026-08-28T17:50:37Z</time>
  <course>248.12</course>
  <speed>0.0</speed>
  <fix>3d</fix>
</trkpt>
<trkpt lat="40.0713749" lon="-105.229789">
  <ele>1583.0</ele>
  <time>2026-08-28T17:50:37Z</time>
  <course>0.0</course>
  <speed>0.0</speed>
  <fix>3d</fix>
</trkpt>
<trkpt lat="40.0713749" lon="-105.229789">
  <ele>1583.0</ele>
  <time>2026-08-28T17:50:37Z</time>
  <course>248.14</course>
  <speed>0.0</speed>
  <fix>3d</fix>
</trkpt>
<trkpt lat="40.0713749" lon="-105.229789">
  <ele>1583.0</ele>
  <time>2026-08-28T17:50:37Z</time>
  <course>0.0</course>
  <speed>0.0</speed>
  <fix>3d</fix>
</trkpt>
<trkpt lat="40.0713749" lon="-105.229789">
  <ele>1583.0</ele>
  <time>2026-08-28T17:50:37Z</time>
  <course>248.16</course>
  <speed>0.0</speed>
  <fix>3d</fix>
</trkpt>
<trkpt lat="40.0713749" lon="-105.229789">
  <ele>1583.0</ele>
  <time>2026-08-28T17:50:37Z</time>
  <course>0.0</course>
  <speed>0.0</speed>
  <fix>3d</fix>
</trkpt>
<trkpt lat="40.0713749" lon="-105.229789">
  <ele>1583.0</ele>
  <time>2026-08-28T17:50:37Z</time>
  <course>248.18</course>
  <speed>0.0</speed>
  <fix>3d</fix>
</trkpt>
<trkpt lat="40.0713749" lon="-105.229789">
  <ele>1583.0</ele>
  <time>2026-08-28T17:50:37Z</time>
  <course>0.0</course>
  <speed>0.0</speed>
  <fix>3d</fix>
</trkpt>
<trkpt lat="40.0713749" lon="-105.229789">
  <ele>1583.0</ele>
  <time>2026-08-28T17:50:37Z</time>
  <course>248.2</course>
  <speed>0.0</speed>
  <fix>3d</fix>
</trkpt>
<trkpt lat="40.0713749" lon="-105.229789">
  <ele>1583.0</ele>
  <time>2026-08-28T17:50:37Z</time>
  <course>0.0</course>
  <speed>0.0</speed>
  <fix>3d</fix>
</trkpt>
<trkpt lat="39.655741" lon="-104.1383097">
  <ele>1566.58</ele>
  <time>2026-08-28T17:50:38Z</time>
  <course>0.0</course>
  <speed>0.0</speed>
  <fix>3d</fix>
</trkpt>
<trkpt lat="40.0713749" lon="-105.229789">
  <ele>1583.0</ele>
  <time>2026-08-28T17:50:38Z</time>
  <course>0.0</course>
  <speed>0.0</speed>
  <fix>3d</fix>
</trkpt>
<trkpt lat="40.0713749" lon="-105.229789">
  <ele>1583.0</ele>
  <time>2026-08-28T17:50:38Z</time>
  <course>238.36</course>
  <speed>0.0</speed>
  <fix>3d</fix>
</trkpt>
<trkpt lat="40.0713749" lon="-105.229789">
  <ele>1583.0</ele>
  <time>2026-08-28T17:50:38Z</time>
  <course>0.0</course>
  <speed>0.0</speed>
  <fix>3d</fix>
</trkpt>
<trkpt lat="40.0713749" lon="-105.229789">
  <ele>1583.0</ele>
  <time>2026-08-28T17:50:38Z</time>
  <course>238.44</course>
  <speed>0.0</speed>
  <fix>3d</fix>
</trkpt>
<trkpt lat="40.0713749" lon="-105.229789">
  <ele>1583.0</ele>
  <time>2026-08-28T17:50:38Z</time>
  <course>0.0</course>
  <speed>0.0</speed>
  <fix>3d</fix>
</trkpt>
<trkpt lat="40.0713749" lon="-105.229789">
  <ele>1583.0</ele>
  <time>2026-08-28T17:50:38Z</time>
  <course>238.64</course>
  <speed>0.0</speed>
  <fix>3d</fix>
</trkpt>
<trkpt lat="40.0713749" lon="-105.229789">
  <ele>1583.0</ele>
  <time>2026-08-28T17:50:38Z</time>
  <course>0.0</course>
  <speed>0.0</speed>
  <fix>3d</fix>
</trkpt>
<trkpt lat="40.0713749" lon="-105.229789">
  <ele>1583.0</ele>
  <time>2026-08-28T17:50:38Z</time>
  <course>238.93</course>
  <speed>0.0</speed>
  <fix>3d</fix>
</trkpt>
<trkpt lat="40.0713749" lon="-105.229789">
  <ele>1583.0</ele>
  <time>2026-08-28T17:50:38Z</time>
  <course>0.0</course>
  <speed>0.0</speed>
  <fix>3d</fix>
</trkpt>
<trkpt lat="40.0713749" lon="-105.229789">
  <ele>1583.0</ele>
  <time>2026-08-28T17:50:38Z</time>
  <course>239.26</course>
  <speed>0.0</speed>
  <fix>3d</fix>
</trkpt>
<trkpt lat="40.0713749" lon="-105.229789">
  <ele>1583.0</ele>
  <time>2026-08-28T17:50:38Z</time>
  <course>0.0</course>
  <speed>0.0</speed>
  <fix>3d</fix>
</trkpt>
<trkpt lat="40.0713749" lon="-105.229789">
  <ele>1583.0</ele>
  <time>2026-08-28T17:50:38Z</time>
  <course>239.61</course>
  <speed>0.0</speed>
  <fix>3d</fix>
</trkpt>
<trkpt lat="40.0713749" lon="-105.229789">
  <ele>1583.0</ele>
  <time>2026-08-28T17:50:38Z</time>
  <course>0.0</course>
  <speed>0.0</speed>
  <fix>3d</fix>
</trkpt>
<trkpt lat="40.0713749" lon="-105.229789">
  <ele>1583.0</ele>
  <time>2026-08-28T17:50:38Z</time>
  <course>239.96</course>
  <speed>0.0</speed>
  <fix>3d</fix>
</trkpt>
<trkpt lat="40.0713749" lon="-105.229789">
  <ele>1583.0</ele>
  <time>2026-08-28T17:50:38Z</time>
  <course>0.0</course>
  <speed>0.0</speed>
  <fix>3d</fix>
</trkpt>
<trkpt lat="40.0713749" lon="-105.229789">
  <ele>1583.0</ele>
  <time>2026-08-28T17:50:38Z</time>
  <course>240.29</course>
  <speed>0.0</speed>
  <fix>3d</fix>
</trkpt>
<trkpt lat="40.0713749" lon="-105.229789">
  <ele>1583.0</ele>
  <time>2026-08-28T17:50:38Z</time>
  <course>0.0</course>
  <speed>0.0</speed>
  <fix>3d</fix>
</trkpt>
<trkpt lat="40.0713749" lon="-105.229789">
  <ele>1583.0</ele>
  <time>2026-08-28T17:50:38Z</time>
  <course>240.61</course>
  <speed>0.0</speed>
  <fix>3d</fix>
</trkpt>
<trkpt lat="40.0713749" lon="-105.229789">
  <ele>1583.0</ele>
  <time>2026-08-28T17:50:38Z</time>
  <course>0.0</course>
  <speed>0.0</speed>
  <fix>3d</fix>
</trkpt>
<trkpt lat="40.0713749" lon="-105.229789">
  <ele>1583.0</ele>
  <time>2026-08-28T17:50:38Z</time>
  <course>240.92</course>
  <speed>0.0</speed>
  <fix>3d</fix>
</trkpt>
<trkpt lat="40.0713749" lon="-105.229789">
  <ele>1583.0</ele>
  <time>2026-08-28T17:50:38Z</time>
  <course>0.0</course>
  <speed>0.0</speed>
  <fix>3d</fix>
</trkpt>
<trkpt lat="40.0713749" lon="-105.229789">
  <ele>1583.0</ele>
  <time>2026-08-28T17:50:38Z</time>
  <course>241.21</course>
  <speed>0.0</speed>
  <fix>3d</fix>
</trkpt>
<trkpt lat="40.0713749" lon="-105.229789">
  <ele>1583.0</ele>
  <time>2026-08-28T17:50:38Z</time>
  <course>0.0</course>
  <speed>0.0</speed>
  <fix>3d</fix>
</trkpt>
<trkpt lat="40.0713749" lon="-105.229789">
  <ele>1583.0</ele>
  <time>2026-08-28T17:50:38Z</time>
  <course>241.49</course>
  <speed>0.0</speed>
  <fix>3d</fix>
</trkpt>
<trkpt lat="40.0713749" lon="-105.229789">
  <ele>1583.0</ele>
  <time>2026-08-28T17:50:38Z</time>
  <course>0.0</course>
  <speed>0.0</speed>
  <fix>3d</fix>
</trkpt>
<trkpt lat="40.0713749" lon="-105.229789">
  <ele>1583.0</ele>
  <time>2026-08-28T17:50:38Z</time>
  <course>241.77</course>
  <speed>0.0</speed>
  <fix>3d</fix>
</trkpt>
<trkpt lat="40.0713749" lon="-105.229789">
  <ele>1583.0</ele>
  <time>2026-08-28T17:50:38Z</time>
  <course>0.0</course>
  <speed>0.0</speed>
  <fix>3d</fix>
</trkpt>
<trkpt lat="40.0713749" lon="-105.229789">
  <ele>1583.0</ele>
  <time>2026-08-28T17:50:38Z</time>
  <course>242.03</course>
  <speed>0.0</speed>
  <fix>3d</fix>
</trkpt>
<trkpt lat="40.0713749" lon="-105.229789">
  <ele>1583.0</ele>
  <time>2026-08-28T17:50:38Z</time>
  <course>0.0</course>
  <speed>0.0</speed>
  <fix>3d</fix>
</trkpt>
<trkpt lat="40.0713749" lon="-105.229789">
  <ele>1583.0</ele>
  <time>2026-08-28T17:50:38Z</time>
  <course>242.29</course>
  <speed>0.0</speed>
  <fix>3d</fix>
</trkpt>
<trkpt lat="40.0713749" lon="-105.229789">
  <ele>1583.0</ele>
  <time>2026-08-28T17:50:38Z</time>
  <course>0.0</course>
  <speed>0.0</speed>
  <fix>3d</fix>
</trkpt>
<trkpt lat="40.0713749" lon="-105.229789">
  <ele>1583.0</ele>
  <time>2026-08-28T17:50:38Z</time>
  <course>242.54</course>
  <speed>0.0</speed>
  <fix>3d</fix>
</trkpt>
<trkpt lat="40.0713749" lon="-105.229789">
  <ele>1583.0</ele>
  <time>2026-08-28T17:50:38Z</time>
  <course>0.0</course>
  <speed>0.0</speed>
  <fix>3d</fix>
</trkpt>
<trkpt lat="40.0713749" lon="-105.229789">
  <ele>1583.0</ele>
  <time>2026-08-28T17:50:38Z</time>
  <course>242.79</course>
  <speed>0.0</speed>
  <fix>3d</fix>
</trkpt>
<trkpt lat="40.0713749" lon="-105.229789">
  <ele>1583.0</ele>
  <time>2026-08-28T17:50:38Z</time>
  <course>0.0</course>
  <speed>0.0</speed>
  <fix>3d</fix>
</trkpt>
<trkpt lat="40.0713749" lon="-105.229789">
  <ele>1583.0</ele>
  <time>2026-08-28T17:50:38Z</time>
  <course>243.02</course>
  <speed>0.0</speed>
  <fix>3d</fix>
</trkpt>
<trkpt lat="40.0713749" lon="-105.229789">
  <ele>1583.0</ele>
  <time>2026-08-28T17:50:38Z</time>
  <course>0.0</course>
  <speed>0.0</speed>
  <fix>3d</fix>
</trkpt>
<trkpt lat="40.0713749" lon="-105.229789">
  <ele>1583.0</ele>
  <time>2026-08-28T17:50:38Z</time>
  <course>243.25</course>
  <speed>0.0</speed>
  <fix>3d</fix>
</trkpt>
<trkpt lat="40.0713749" lon="-105.229789">
  <ele>1583.0</ele>
  <time>2026-08-28T17:50:38Z</time>
  <course>0.0</course>
  <speed>0.0</speed>
  <fix>3d</fix>
</trkpt>
<trkpt lat="40.0713749" lon="-105.229789">
  <ele>1583.0</ele>
  <time>2026-08-28T17:50:38Z</time>
  <course>243.47</course>
  <speed>0.0</speed>
  <fix>3d</fix>
</trkpt>
<trkpt lat="40.0713749" lon="-105.229789">
  <ele>1583.0</ele>
  <time>2026-08-28T17:50:38Z</time>
  <course>0.0</course>
  <speed>0.0</speed>
  <fix>3d</fix>
</trkpt>
<trkpt lat="40.0713749" lon="-105.229789">
  <ele>1583.0</ele>
  <time>2026-08-28T17:50:38Z</time>
  <course>243.68</course>
  <speed>0.0</speed>
  <fix>3d</fix>
</trkpt>
<trkpt lat="40.0713749" lon="-105.229789">
  <ele>1583.0</ele>
  <time>2026-08-28T17:50:38Z</time>
  <course>0.0</course>
  <speed>0.0</speed>
  <fix>3d</fix>
</trkpt>
<trkpt lat="40.0713749" lon="-105.229789">
  <ele>1583.0</ele>
  <time>2026-08-28T17:50:38Z</time>
  <course>243.89</course>
  <speed>0.0</speed>
  <fix>3d</fix>
</trkpt>
<trkpt lat="40.0713749" lon="-105.229789">
  <ele>1583.0</ele>
  <time>2026-08-28T17:50:38Z</time>
  <course>0.0</course>
  <speed>0.0</speed>
  <fix>3d</fix>
</trkpt>
<trkpt lat="40.0713749" lon="-105.229789">
  <ele>1583.0</ele>
  <time>2026-08-28T17:50:38Z</time>
  <course>244.09</course>
  <speed>0.0</speed>
  <fix>3d</fix>
</trkpt>
<trkpt lat="40.0713749" lon="-105.229789">
  <ele>1583.0</ele>
  <time>2026-08-28T17:50:38Z</time>
  <course>0.0</course>
  <speed>0.0</speed>
  <fix>3d</fix>
</trkpt>
<trkpt lat="40.0713749" lon="-105.229789">
  <ele>1583.0</ele>
  <time>2026-08-28T17:50:38Z</time>
  <course>244.28</course>
  <speed>0.0</speed>
  <fix>3d</fix>
</trkpt>
<trkpt lat="40.0713749" lon="-105.229789">
  <ele>1583.0</ele>
  <time>2026-08-28T17:50:38Z</time>
  <course>0.0</course>
  <speed>0.0</speed>
  <fix>3d</fix>
</trkpt>
<trkpt lat="40.0713749" lon="-105.229789">
  <ele>1583.0</ele>
  <time>2026-08-28T17:50:38Z</time>
  <course>244.46</course>
  <speed>0.0</speed>
  <fix>3d</fix>
</trkpt>
<trkpt lat="40.0713749" lon="-105.229789">
  <ele>1583.0</ele>
  <time>2026-08-28T17:50:38Z</time>
  <course>0.0</course>
  <speed>0.0</speed>
  <fix>3d</fix>
</trkpt>
<trkpt lat="40.0713749" lon="-105.229789">
  <ele>1583.0</ele>
  <time>2026-08-28T17:50:38Z</time>
  <course>244.64</course>
  <speed>0.0</speed>
  <fix>3d</fix>
</trkpt>
<trkpt lat="40.0713749" lon="-105.229789">
  <ele>1583.0</ele>
  <time>2026-08-28T17:50:38Z</time>
  <course>0.0</course>
  <speed>0.0</speed>
  <fix>3d</fix>
</trkpt>
<trkpt lat="40.0713749" lon="-105.229789">
  <ele>1583.0</ele>
  <time>2026-08-28T17:50:38Z</time>
  <course>244.81</course>
  <speed>0.0</speed>
  <fix>3d</fix>
</trkpt>
<trkpt lat="40.0713749" lon="-105.229789">
  <ele>1583.0</ele>
  <time>2026-08-28T17:50:38Z</time>
  <course>0.0</course>
  <speed>0.0</speed>
  <fix>3d</fix>
</trkpt>
<trkpt lat="40.0713749" lon="-105.229789">
  <ele>1583.0</ele>
  <time>2026-08-28T17:50:38Z</time>
  <course>244.97</course>
  <speed>0.0</speed>
  <fix>3d</fix>
</trkpt>
<trkpt lat="40.0713749" lon="-105.229789">
  <ele>1583.0</ele>
  <time>2026-08-28T17:50:38Z</time>
  <course>0.0</course>
  <speed>0.0</speed>
  <fix>3d</fix>
</trkpt>
<trkpt lat="40.0713749" lon="-105.229789">
  <ele>1583.0</ele>
  <time>2026-08-28T17:50:38Z</time>
  <course>245.13</course>
  <speed>0.0</speed>
  <fix>3d</fix>
</trkpt>
<trkpt lat="40.0713749" lon="-105.229789">
  <ele>1583.0</ele>
  <time>2026-08-28T17:50:38Z</time>
  <course>0.0</course>
  <speed>0.0</speed>
  <fix>3d</fix>
</trkpt>
<trkpt lat="40.0713749" lon="-105.229789">
  <ele>1583.0</ele>
  <time>2026-08-28T17:50:38Z</time>
  <course>245.29</course>
  <speed>0.0</speed>
  <fix>3d</fix>
</trkpt>
<trkpt lat="40.0713749" lon="-105.229789">
  <ele>1583.0</ele>
  <time>2026-08-28T17:50:38Z</time>
  <course>0.0</course>
  <speed>0.0</speed>
  <fix>3d</fix>
</trkpt>
<trkpt lat="40.0713749" lon="-105.229789">
  <ele>1583.0</ele>
  <time>2026-08-28T17:50:38Z</time>
  <course>245.43</course>
  <speed>0.0</speed>
  <fix>3d</fix>
</trkpt>
<trkpt lat="40.0713749" lon="-105.229789">
  <ele>1583.0</ele>
  <time>2026-08-28T17:50:38Z</time>
  <course>0.0</course>
  <speed>0.0</speed>
  <fix>3d</fix>
</trkpt>
<trkpt lat="40.0713749" lon="-105.229789">
  <ele>1583.0</ele>
  <time>2026-08-28T17:50:38Z</time>
  <course>245.57</course>
  <speed>0.0</speed>
  <fix>3d</fix>
</trkpt>
<trkpt lat="40.0713749" lon="-105.229789">
  <ele>1583.0</ele>
  <time>2026-08-28T17:50:38Z</time>
  <course>0.0</course>
  <speed>0.0</speed>
  <fix>3d</fix>
</trkpt>
<trkpt lat="40.0713749" lon="-105.229789">
  <ele>1583.0</ele>
  <time>2026-08-28T17:50:38Z</time>
  <course>245.71</course>
  <speed>0.0</speed>
  <fix>3d</fix>
</trkpt>
<trkpt lat="40.0713749" lon="-105.229789">
  <ele>1583.0</ele>
  <time>2026-08-28T17:50:38Z</time>
  <course>0.0</course>
  <speed>0.0</speed>
  <fix>3d</fix>
</trkpt>
<trkpt lat="40.0713749" lon="-105.229789">
  <ele>1583.0</ele>
  <time>2026-08-28T17:50:38Z</time>
  <course>245.84</course>
  <speed>0.0</speed>
  <fix>3d</fix>
</trkpt>
<trkpt lat="40.0713749" lon="-105.229789">
  <ele>1583.0</ele>
  <time>2026-08-28T17:50:38Z</time>
  <course>0.0</course>
  <speed>0.0</speed>
  <fix>3d</fix>
</trkpt>
<trkpt lat="40.0713749" lon="-105.229789">
  <ele>1583.0</ele>
  <time>2026-08-28T17:50:38Z</time>
  <course>245.96</course>
  <speed>0.0</speed>
  <fix>3d</fix>
</trkpt>
<trkpt lat="40.0713749" lon="-105.229789">
  <ele>1583.0</ele>
  <time>2026-08-28T17:50:38Z</time>
  <course>0.0</course>
  <speed>0.0</speed>
  <fix>3d</fix>
</trkpt>
<trkpt lat="40.0713749" lon="-105.229789">
  <ele>1583.0</ele>
  <time>2026-08-28T17:50:38Z</time>
  <course>246.08</course>
  <speed>0.0</speed>
  <fix>3d</fix>
</trkpt>
<trkpt lat="40.0713749" lon="-105.229789">
  <ele>1583.0</ele>
  <time>2026-08-28T17:50:38Z</time>
  <course>0.0</course>
  <speed>0.0</speed>
  <fix>3d</fix>
</trkpt>
<trkpt lat="40.0713749" lon="-105.229789">
  <ele>1583.0</ele>
  <time>2026-08-28T17:50:38Z</time>
  <course>246.19</course>
  <speed>0.0</speed>
  <fix>3d</fix>
</trkpt>
<trkpt lat="40.0713749" lon="-105.229789">
  <ele>1583.0</ele>
  <time>2026-08-28T17:50:38Z</time>
  <course>0.0</course>
  <speed>0.0</speed>
  <fix>3d</fix>
</trkpt>
<trkpt lat="40.0713749" lon="-105.229789">
  <ele>1583.0</ele>
  <time>2026-08-28T17:50:38Z</time>
  <course>246.3</course>
  <speed>0.0</speed>
  <fix>3d</fix>
</trkpt>
<trkpt lat="40.0713749" lon="-105.229789">
  <ele>1583.0</ele>
  <time>2026-08-28T17:50:38Z</time>
  <course>0.0</course>
  <speed>0.0</speed>
  <fix>3d</fix>
</trkpt>
<trkpt lat="40.0713749" lon="-105.229789">
  <ele>1583.0</ele>
  <time>2026-08-28T17:50:38Z</time>
  <course>246.41</course>
  <speed>0.0</speed>
  <fix>3d</fix>
</trkpt>
<trkpt lat="40.0713749" lon="-105.229789">
  <ele>1583.0</ele>
  <time>2026-08-28T17:50:38Z</time>
  <course>0.0</course>
  <speed>0.0</speed>
  <fix>3d</fix>
</trkpt>
<trkpt lat="40.0713749" lon="-105.229789">
  <ele>1583.0</ele>
  <time>2026-08-28T17:50:38Z</time>
  <course>246.51</course>
  <speed>0.0</speed>
  <fix>3d</fix>
</trkpt>
<trkpt lat="40.0713749" lon="-105.229789">
  <ele>1583.0</ele>
  <time>2026-08-28T17:50:38Z</time>
  <course>0.0</course>
  <speed>0.0</speed>
  <fix>3d</fix>
</trkpt>
<trkpt lat="40.0713749" lon="-105.229789">
  <ele>1583.0</ele>
  <time>2026-08-28T17:50:38Z</time>
  <course>246.6</course>
  <speed>0.0</speed>
  <fix>3d</fix>
</trkpt>
<trkpt lat="40.0713749" lon="-105.229789">
  <ele>1583.0</ele>
  <time>2026-08-28T17:50:38Z</time>
  <course>0.0</course>
  <speed>0.0</speed>
  <fix>3d</fix>
</trkpt>
<trkpt lat="40.0713749" lon="-105.229789">
  <ele>1583.0</ele>
  <time>2026-08-28T17:50:38Z</time>
  <course>246.7</course>
  <speed>0.0</speed>
  <fix>3d</fix>
</trkpt>
<trkpt lat="40.0713749" lon="-105.229789">
  <ele>1583.0</ele>
  <time>2026-08-28T17:50:38Z</time>
  <course>0.0</course>
  <speed>0.0</speed>
  <fix>3d</fix>
</trkpt>
<trkpt lat="40.0713749" lon="-105.229789">
  <ele>1583.0</ele>
  <time>2026-08-28T17:50:38Z</time>
  <course>246.78</course>
  <speed>0.0</speed>
  <fix>3d</fix>
</trkpt>
<trkpt lat="40.0713749" lon="-105.229789">
  <ele>1583.0</ele>
  <time>2026-08-28T17:50:38Z</time>
  <course>0.0</course>
  <speed>0.0</speed>
  <fix>3d</fix>
</trkpt>
<trkpt lat="40.0713749" lon="-105.229789">
  <ele>1583.0</ele>
  <time>2026-08-28T17:50:38Z</time>
  <course>246.87</course>
  <speed>0.0</speed>
  <fix>3d</fix>
</trkpt>
<trkpt lat="40.0713749" lon="-105.229789">
  <ele>1583.0</ele>
  <time>2026-08-28T17:50:38Z</time>
  <course>0.0</course>
  <speed>0.0</speed>
  <fix>3d</fix>
</trkpt>
<trkpt lat="40.0713749" lon="-105.229789">
  <ele>1583.0</ele>
  <time>2026-08-28T17:50:38Z</time>
  <course>246.95</course>
  <speed>0.0</speed>
  <fix>3d</fix>
</trkpt>
<trkpt lat="40.0713749" lon="-105.229789">
  <ele>1583.0</ele>
  <time>2026-08-28T17:50:38Z</time>
  <course>0.0</course>
  <speed>0.0</speed>
  <fix>3d</fix>
</trkpt>
<trkpt lat="40.0713749" lon="-105.229789">
  <ele>1583.0</ele>
  <time>2026-08-28T17:50:38Z</time>
  <course>247.02</course>
  <speed>0.0</speed>
  <fix>3d</fix>
</trkpt>
<trkpt lat="40.0713749" lon="-105.229789">
  <ele>1583.0</ele>
  <time>2026-08-28T17:50:38Z</time>
  <course>0.0</course>
  <speed>0.0</speed>
  <fix>3d</fix>
</trkpt>
<trkpt lat="40.0713749" lon="-105.229789">
  <ele>1583.0</ele>
  <time>2026-08-28T17:50:38Z</time>
  <course>247.1</course>
  <speed>0.0</speed>
  <fix>3d</fix>
</trkpt>
<trkpt lat="40.0713749" lon="-105.229789">
  <ele>1583.0</ele>
  <time>2026-08-28T17:50:38Z</time>
  <course>0.0</course>
  <speed>0.0</speed>
  <fix>3d</fix>
</trkpt>
<trkpt lat="40.0713749" lon="-105.229789">
  <ele>1583.0</ele>
  <time>2026-08-28T17:50:38Z</time>
  <course>247.17</course>
  <speed>0.0</speed>
  <fix>3d</fix>
</trkpt>
<trkpt lat="40.0713749" lon="-105.229789">
  <ele>1583.0</ele>
  <time>2026-08-28T17:50:38Z</time>
  <course>0.0</course>
  <speed>0.0</speed>
  <fix>3d</fix>
</trkpt>
<trkpt lat="40.0713749" lon="-105.229789">
  <ele>1583.0</ele>
  <time>2026-08-28T17:50:38Z</time>
  <course>247.24</course>
  <speed>0.0</speed>
  <fix>3d</fix>
</trkpt>
<trkpt lat="40.0713749" lon="-105.229789">
  <ele>1583.0</ele>
  <time>2026-08-28T17:50:38Z</time>
  <course>0.0</course>
  <speed>0.0</speed>
  <fix>3d</fix>
</trkpt>
<trkpt lat="40.0713749" lon="-105.229789">
  <ele>1583.0</ele>
  <time>2026-08-28T17:50:38Z</time>
  <course>247.3</course>
  <speed>0.0</speed>
  <fix>3d</fix>
</trkpt>
<trkpt lat="40.0713749" lon="-105.229789">
  <ele>1583.0</ele>
  <time>2026-08-28T17:50:38Z</time>
  <course>0.0</course>
  <speed>0.0</speed>
  <fix>3d</fix>
</trkpt>
<trkpt lat="40.0713749" lon="-105.229789">
  <ele>1583.0</ele>
  <time>2026-08-28T17:50:38Z</time>
  <course>247.36</course>
  <speed>0.0</speed>
  <fix>3d</fix>
</trkpt>
<trkpt lat="40.0713749" lon="-105.229789">
  <ele>1583.0</ele>
  <time>2026-08-28T17:50:38Z</time>
  <course>0.0</course>
  <speed>0.0</speed>
  <fix>3d</fix>
</trkpt>
<trkpt lat="40.0713749" lon="-105.229789">
  <ele>1583.0</ele>
  <time>2026-08-28T17:50:38Z</time>
  <course>247.42</course>
  <speed>0.0</speed>
  <fix>3d</fix>
</trkpt>
<trkpt lat="40.0713749" lon="-105.229789">
  <ele>1583.0</ele>
  <time>2026-08-28T17:50:38Z</time>
  <course>0.0</course>
  <speed>0.0</speed>
  <fix>3d</fix>
</trkpt>
<trkpt lat="40.0713749" lon="-105.229789">
  <ele>1583.0</ele>
  <time>2026-08-28T17:50:38Z</time>
  <course>247.47</course>
  <speed>0.0</speed>
  <fix>3d</fix>
</trkpt>
<trkpt lat="40.0713749" lon="-105.229789">
  <ele>1583.0</ele>
  <time>2026-08-28T17:50:38Z</time>
  <course>0.0</course>
  <speed>0.0</speed>
  <fix>3d</fix>
</trkpt>
<trkpt lat="40.0713749" lon="-105.229789">
  <ele>1583.0</ele>
  <time>2026-08-28T17:50:38Z</time>
  <course>247.53</course>
  <speed>0.0</speed>
  <fix>3d</fix>
</trkpt>
<trkpt lat="40.0713749" lon="-105.229789">
  <ele>1583.0</ele>
  <time>2026-08-28T17:50:38Z</time>
  <course>0.0</course>
  <speed>0.0</speed>
  <fix>3d</fix>
</trkpt>
<trkpt lat="40.0713749" lon="-105.229789">
  <ele>1583.0</ele>
  <time>2026-08-28T17:50:38Z</time>
  <course>247.58</course>
  <speed>0.0</speed>
  <fix>3d</fix>
</trkpt>
<trkpt lat="40.0713749" lon="-105.229789">
  <ele>1583.0</ele>
  <time>2026-08-28T17:50:38Z</time>
  <course>0.0</course>
  <speed>0.0</speed>
  <fix>3d</fix>
</trkpt>
<trkpt lat="40.0713749" lon="-105.229789">
  <ele>1583.0</ele>
  <time>2026-08-28T17:50:38Z</time>
  <course>247.63</course>
  <speed>0.0</speed>
  <fix>3d</fix>
</trkpt>
<trkpt lat="40.0713749" lon="-105.229789">
  <ele>1583.0</ele>
  <time>2026-08-28T17:50:38Z</time>
  <course>0.0</course>
  <speed>0.0</speed>
  <fix>3d</fix>
</trkpt>
<trkpt lat="40.0713749" lon="-105.229789">
  <ele>1583.0</ele>
  <time>2026-08-28T17:50:38Z</time>
  <course>247.67</course>
  <speed>0.0</speed>
  <fix>3d</fix>
</trkpt>
<trkpt lat="40.0713749" lon="-105.229789">
  <ele>1583.0</ele>
  <time>2026-08-28T17:50:38Z</time>
  <course>0.0</course>
  <speed>0.0</speed>
  <fix>3d</fix>
</trkpt>
<trkpt lat="40.0713749" lon="-105.229789">
  <ele>1583.0</ele>
  <time>2026-08-28T17:50:38Z</time>
  <course>247.72</course>
  <speed>0.0</speed>
  <fix>3d</fix>
</trkpt>
<trkpt lat="40.0713749" lon="-105.229789">
  <ele>1583.0</ele>
  <time>2026-08-28T17:50:38Z</time>
  <course>0.0</course>
  <speed>0.0</speed>
  <fix>3d</fix>
</trkpt>
<trkpt lat="40.0713749" lon="-105.229789">
  <ele>1583.0</ele>
  <time>2026-08-28T17:50:38Z</time>
  <course>247.76</course>
  <speed>0.0</speed>
  <fix>3d</fix>
</trkpt>
<trkpt lat="40.0713749" lon="-105.229789">
  <ele>1583.0</ele>
  <time>2026-08-28T17:50:38Z</time>
  <course>0.0</course>
  <speed>0.0</speed>
  <fix>3d</fix>
</trkpt>
<trkpt lat="40.0713749" lon="-105.229789">
  <ele>1583.0</ele>
  <time>2026-08-28T17:50:38Z</time>
  <course>247.8</course>
  <speed>0.0</speed>
  <fix>3d</fix>
</trkpt>
<trkpt lat="40.0713749" lon="-105.229789">
  <ele>1583.0</ele>
  <time>2026-08-28T17:50:38Z</time>
  <course>0.0</course>
  <speed>0.0</speed>
  <fix>3d</fix>
</trkpt>
<trkpt lat="40.0713749" lon="-105.229789">
  <ele>1583.0</ele>
  <time>2026-08-28T17:50:38Z</time>
  <course>247.83</course>
  <speed>0.0</speed>
  <fix>3d</fix>
</trkpt>
<trkpt lat="40.0713749" lon="-105.229789">
  <ele>1583.0</ele>
  <time>2026-08-28T17:50:38Z</time>
  <course>0.0</course>
  <speed>0.0</speed>
  <fix>3d</fix>
</trkpt>
<trkpt lat="40.0713749" lon="-105.229789">
  <ele>1583.0</ele>
  <time>2026-08-28T17:50:38Z</time>
  <course>247.87</course>
  <speed>0.0</speed>
  <fix>3d</fix>
</trkpt>
<trkpt lat="40.0713749" lon="-105.229789">
  <ele>1583.0</ele>
  <time>2026-08-28T17:50:38Z</time>
  <course>0.0</course>
  <speed>0.0</speed>
  <fix>3d</fix>
</trkpt>
<trkpt lat="40.0713749" lon="-105.229789">
  <ele>1583.0</ele>
  <time>2026-08-28T17:50:38Z</time>
  <course>247.9</course>
  <speed>0.0</speed>
  <fix>3d</fix>
</trkpt>
<trkpt lat="40.0713749" lon="-105.229789">
  <ele>1583.0</ele>
  <time>2026-08-28T17:50:38Z</time>
  <course>0.0</course>
  <speed>0.0</speed>
  <fix>3d</fix>
</trkpt>
<trkpt lat="40.0713749" lon="-105.229789">
  <ele>1583.0</ele>
  <time>2026-08-28T17:50:38Z</time>
  <course>247.94</course>
  <speed>0.0</speed>
  <fix>3d</fix>
</trkpt>
<trkpt lat="40.0713749" lon="-105.229789">
  <ele>1583.0</ele>
  <time>2026-08-28T17:50:38Z</time>
  <course>0.0</course>
  <speed>0.0</speed>
  <fix>3d</fix>
</trkpt>
<trkpt lat="40.0713749" lon="-105.229789">
  <ele>1583.0</ele>
  <time>2026-08-28T17:50:38Z</time>
  <course>247.97</course>
  <speed>0.0</speed>
  <fix>3d</fix>
</trkpt>
<trkpt lat="40.0713749" lon="-105.229789">
  <ele>1583.0</ele>
  <time>2026-08-28T17:50:38Z</time>
  <course>0.0</course>
  <speed>0.0</speed>
  <fix>3d</fix>
</trkpt>
<trkpt lat="40.0713749" lon="-105.229789">
  <ele>1583.0</ele>
  <time>2026-08-28T17:50:38Z</time>
  <course>248.0</course>
  <speed>0.0</speed>
  <fix>3d</fix>
</trkpt>
<trkpt lat="40.0713749" lon="-105.229789">
  <ele>1583.0</ele>
  <time>2026-08-28T17:50:38Z</time>
  <course>0.0</course>
  <speed>0.0</speed>
  <fix>3d</fix>
</trkpt>
<trkpt lat="40.0713749" lon="-105.229789">
  <ele>1583.0</ele>
  <time>2026-08-28T17:50:38Z</time>
  <course>248.02</course>
  <speed>0.0</speed>
  <fix>3d</fix>
</trkpt>
<trkpt lat="40.0713749" lon="-105.229789">
  <ele>1583.0</ele>
  <time>2026-08-28T17:50:38Z</time>
  <course>0.0</course>
  <speed>0.0</speed>
  <fix>3d</fix>
</trkpt>
<trkpt lat="40.0713749" lon="-105.229789">
  <ele>1583.0</ele>
  <time>2026-08-28T17:50:38Z</time>
  <course>248.05</course>
  <speed>0.0</speed>
  <fix>3d</fix>
</trkpt>
<trkpt lat="40.0713749" lon="-105.229789">
  <ele>1583.0</ele>
  <time>2026-08-28T17:50:38Z</time>
  <course>0.0</course>
  <speed>0.0</speed>
  <fix>3d</fix>
</trkpt>
<trkpt lat="40.0713749" lon="-105.229789">
  <ele>1583.0</ele>
  <time>2026-08-28T17:50:38Z</time>
  <course>248.08</course>
  <speed>0.0</speed>
  <fix>3d</fix>
</trkpt>
<trkpt lat="40.0713749" lon="-105.229789">
  <ele>1583.0</ele>
  <time>2026-08-28T17:50:38Z</time>
  <course>0.0</course>
  <speed>0.0</speed>
  <fix>3d</fix>
</trkpt>
<trkpt lat="40.0713749" lon="-105.229789">
  <ele>1583.0</ele>
  <time>2026-08-28T17:50:38Z</time>
  <course>248.1</course>
  <speed>0.0</speed>
  <fix>3d</fix>
</trkpt>
<trkpt lat="40.0713749" lon="-105.229789">
  <ele>1583.0</ele>
  <time>2026-08-28T17:50:38Z</time>
  <course>0.0</course>
  <speed>0.0</speed>
  <fix>3d</fix>
</trkpt>
<trkpt lat="40.0713749" lon="-105.229789">
  <ele>1583.0</ele>
  <time>2026-08-28T17:50:38Z</time>
  <course>248.12</course>
  <speed>0.0</speed>
  <fix>3d</fix>
</trkpt>
<trkpt lat="40.0713749" lon="-105.229789">
  <ele>1583.0</ele>
  <time>2026-08-28T17:50:38Z</time>
  <course>0.0</course>
  <speed>0.0</speed>
  <fix>3d</fix>
</trkpt>
<trkpt lat="40.0713749" lon="-105.229789">
  <ele>1583.0</ele>
  <time>2026-08-28T17:50:38Z</time>
  <course>248.14</course>
  <speed>0.0</speed>
  <fix>3d</fix>
</trkpt>
<trkpt lat="40.0713749" lon="-105.229789">
  <ele>1583.0</ele>
  <time>2026-08-28T17:50:38Z</time>
  <course>0.0</course>
  <speed>0.0</speed>
  <fix>3d</fix>
</trkpt>
<trkpt lat="40.0713749" lon="-105.229789">
  <ele>1583.0</ele>
  <time>2026-08-28T17:50:38Z</time>
  <course>248.16</course>
  <speed>0.0</speed>
  <fix>3d</fix>
</trkpt>
<trkpt lat="40.0713749" lon="-105.229789">
  <ele>1583.0</ele>
  <time>2026-08-28T17:50:38Z</time>
  <course>0.0</course>
  <speed>0.0</speed>
  <fix>3d</fix>
</trkpt>
<trkpt lat="40.0713749" lon="-105.229789">
  <ele>1583.0</ele>
  <time>2026-08-28T17:50:38Z</time>
  <course>248.18</course>
  <speed>0.0</speed>
  <fix>3d</fix>
</trkpt>
<trkpt lat="40.0713749" lon="-105.229789">
  <ele>1583.0</ele>
  <time>2026-08-28T17:50:38Z</time>
  <course>0.0</course>
  <speed>0.0</speed>
  <fix>3d</fix>
</trkpt>
<trkpt lat="40.0713749" lon="-105.229789">
  <ele>1583.0</ele>
  <time>2026-08-28T17:50:38Z</time>
  <course>248.2</course>
  <speed>0.0</speed>
  <fix>3d</fix>
</trkpt>
<trkpt lat="40.0713749" lon="-105.229789">
  <ele>1583.0</ele>
  <time>2026-08-28T17:50:38Z</time>
  <course>0.0</course>
  <speed>0.0</speed>
  <fix>3d</fix>
</trkpt>
<trkpt lat="40.0713749" lon="-105.229789">
  <ele>1583.0</ele>
  <time>2026-08-28T17:50:38Z</time>
  <course>248.22</course>
  <speed>0.0</speed>
  <fix>3d</fix>
</trkpt>
<trkpt lat="40.0713749" lon="-105.229789">
  <ele>1583.0</ele>
  <time>2026-08-28T17:50:38Z</time>
  <course>0.0</course>
  <speed>0.0</speed>
  <fix>3d</fix>
</trkpt>
<trkpt lat="40.0713749" lon="-105.229789">
  <ele>1583.0</ele>
  <time>2026-08-28T17:50:38Z</time>
  <course>248.23</course>
  <speed>0.0</speed>
  <fix>3d</fix>
</trkpt>
<trkpt lat="40.0713749" lon="-105.229789">
  <ele>1583.0</ele>
  <time>2026-08-28T17:50:38Z</time>
  <course>0.0</course>
  <speed>0.0</speed>
  <fix>3d</fix>
</trkpt>
<trkpt lat="40.0713749" lon="-105.229789">
  <ele>1583.0</ele>
  <time>2026-08-28T17:50:38Z</time>
  <course>248.25</course>
  <speed>0.0</speed>
  <fix>3d</fix>
</trkpt>
<trkpt lat="40.0713749" lon="-105.229789">
  <ele>1583.0</ele>
  <time>2026-08-28T17:50:38Z</time>
  <course>0.0</course>
  <speed>0.0</speed>
  <fix>3d</fix>
</trkpt>
<trkpt lat="40.0713749" lon="-105.229789">
  <ele>1583.0</ele>
  <time>2026-08-28T17:50:38Z</time>
  <course>248.26</course>
  <speed>0.0</speed>
  <fix>3d</fix>
</trkpt>
<trkpt lat="40.0713749" lon="-105.229789">
  <ele>1583.0</ele>
  <time>2026-08-28T17:50:38Z</time>
  <course>0.0</course>
  <speed>0.0</speed>
  <fix>3d</fix>
</trkpt>
<trkpt lat="40.0713749" lon="-105.229789">
  <ele>1583.0</ele>
  <time>2026-08-28T17:50:38Z</time>
  <course>248.28</course>
  <speed>0.0</speed>
  <fix>3d</fix>
</trkpt>
<trkpt lat="40.0713749" lon="-105.229789">
  <ele>1583.0</ele>
  <time>2026-08-28T17:50:38Z</time>
  <course>0.0</course>
  <speed>0.0</speed>
  <fix>3d</fix>
</trkpt>
<trkpt lat="40.0713749" lon="-105.229789">
  <ele>1583.0</ele>
  <time>2026-08-28T17:50:38Z</time>
  <course>248.29</course>
  <speed>0.0</speed>
  <fix>3d</fix>
</trkpt>
<trkpt lat="40.0713749" lon="-105.229789">
  <ele>1583.0</ele>
  <time>2026-08-28T17:50:38Z</time>
  <course>0.0</course>
  <speed>0.0</speed>
  <fix>3d</fix>
</trkpt>
<trkpt lat="40.0713749" lon="-105.229789">
  <ele>1583.0</ele>
  <time>2026-08-28T17:50:38Z</time>
  <course>248.3</course>
  <speed>0.0</speed>
  <fix>3d</fix>
</trkpt>
<trkpt lat="40.0713749" lon="-105.229789">
  <ele>1583.0</ele>
  <time>2026-08-28T17:50:38Z</time>
  <course>0.0</course>
  <speed>0.0</speed>
  <fix>3d</fix>
</trkpt>
<trkpt lat="40.0713749" lon="-105.229789">
  <ele>1583.0</ele>
  <time>2026-08-28T17:50:38Z</time>
  <course>248.31</course>
  <speed>0.0</speed>
  <fix>3d</fix>
</trkpt>
<trkpt lat="40.0713749" lon="-105.229789">
  <ele>1583.0</ele>
  <time>2026-08-28T17:50:38Z</time>
  <course>0.0</course>
  <speed>0.0</speed>
  <fix>3d</fix>
</trkpt>
<trkpt lat="40.0713749" lon="-105.229789">
  <ele>1583.0</ele>
  <time>2026-08-28T17:50:38Z</time>
  <course>248.32</course>
  <speed>0.0</speed>
  <fix>3d</fix>
</trkpt>
<trkpt lat="40.0713749" lon="-105.229789">
  <ele>1583.0</ele>
  <time>2026-08-28T17:50:38Z</time>
  <course>0.0</course>
  <speed>0.0</speed>
  <fix>3d</fix>
</trkpt>
<trkpt lat="40.0713749" lon="-105.229789">
  <ele>1583.0</ele>
  <time>2026-08-28T17:50:38Z</time>
  <course>248.33</course>
  <speed>0.0</speed>
  <fix>3d</fix>
</trkpt>
<trkpt lat="40.0713749" lon="-105.229789">
  <ele>1583.0</ele>
  <time>2026-08-28T17:50:38Z</time>
  <course>0.0</course>
  <speed>0.0</speed>
  <fix>3d</fix>
</trkpt>
<trkpt lat="40.0713749" lon="-105.229789">
  <ele>1583.0</ele>
  <time>2026-08-28T17:50:38Z</time>
  <course>248.34</course>
  <speed>0.0</speed>
  <fix>3d</fix>
</trkpt>
<trkpt lat="40.0713749" lon="-105.229789">
  <ele>1583.0</ele>
  <time>2026-08-28T17:50:38Z</time>
  <course>0.0</course>
  <speed>0.0</speed>
  <fix>3d</fix>
</trkpt>
<trkpt lat="40.0713749" lon="-105.229789">
  <ele>1583.0</ele>
  <time>2026-08-28T17:50:38Z</time>
  <course>248.35</course>
  <speed>0.0</speed>
  <fix>3d</fix>
</trkpt>
<trkpt lat="40.0713749" lon="-105.229789">
  <ele>1583.0</ele>
  <time>2026-08-28T17:50:38Z</time>
  <course>0.0</course>
  <speed>0.0</speed>
  <fix>3d</fix>
</trkpt>
<trkpt lat="40.0713749" lon="-105.229789">
  <ele>1583.0</ele>
  <time>2026-08-28T17:50:38Z</time>
  <course>248.35</course>
  <speed>0.0</speed>
  <fix>3d</fix>
</trkpt>
<trkpt lat="40.0713749" lon="-105.229789">
  <ele>1583.0</ele>
  <time>2026-08-28T17:50:38Z</time>
  <course>0.0</course>
  <speed>0.0</speed>
  <fix>3d</fix>
</trkpt>
<trkpt lat="40.0713749" lon="-105.229789">
  <ele>1583.0</ele>
  <time>2026-08-28T17:50:38Z</time>
  <course>248.36</course>
  <speed>0.0</speed>
  <fix>3d</fix>
</trkpt>
<trkpt lat="40.0713749" lon="-105.229789">
  <ele>1583.0</ele>
  <time>2026-08-28T17:50:38Z</time>
  <course>0.0</course>
  <speed>0.0</speed>
  <fix>3d</fix>
</trkpt>
<trkpt lat="40.0713749" lon="-105.229789">
  <ele>1583.0</ele>
  <time>2026-08-28T17:50:38Z</time>
  <course>248.37</course>
  <speed>0.0</speed>
  <fix>3d</fix>
</trkpt>
<trkpt lat="40.0713749" lon="-105.229789">
  <ele>1583.0</ele>
  <time>2026-08-28T17:50:38Z</time>
  <course>0.0</course>
  <speed>0.0</speed>
  <fix>3d</fix>
</trkpt>
<trkpt lat="40.0713749" lon="-105.229789">
  <ele>1583.0</ele>
  <time>2026-08-28T17:50:38Z</time>
  <course>248.37</course>
  <speed>0.0</speed>
  <fix>3d</fix>
</trkpt>
<trkpt lat="40.0713749" lon="-105.229789">
  <ele>1583.0</ele>
  <time>2026-08-28T17:50:38Z</time>
  <course>0.0</course>
  <speed>0.0</speed>
  <fix>3d</fix>
</trkpt>
<trkpt lat="40.0713749" lon="-105.229789">
  <ele>1583.0</ele>
  <time>2026-08-28T17:50:38Z</time>
  <course>248.38</course>
  <speed>0.0</speed>
  <fix>3d</fix>
</trkpt>
<trkpt lat="40.0713749" lon="-105.229789">
  <ele>1583.0</ele>
  <time>2026-08-28T17:50:38Z</time>
  <course>0.0</course>
  <speed>0.0</speed>
  <fix>3d</fix>
</trkpt>
<trkpt lat="40.0713749" lon="-105.229789">
  <ele>1583.0</ele>
  <time>2026-08-28T17:50:38Z</time>
  <course>248.38</course>
  <speed>0.0</speed>
  <fix>3d</fix>
</trkpt>
<trkpt lat="40.0713749" lon="-105.229789">
  <ele>1583.0</ele>
  <time>2026-08-28T17:50:38Z</time>
  <course>0.0</course>
  <speed>0.0</speed>
  <fix>3d</fix>
</trkpt>
<trkpt lat="40.0713749" lon="-105.229789">
  <ele>1583.0</ele>
  <time>2026-08-28T17:50:38Z</time>
  <course>248.39</course>
  <speed>0.0</speed>
  <fix>3d</fix>
</trkpt>
<trkpt lat="40.0713749" lon="-105.229789">
  <ele>1583.0</ele>
  <time>2026-08-28T17:50:38Z</time>
  <course>0.0</course>
  <speed>0.0</speed>
  <fix>3d</fix>
</trkpt>
<trkpt lat="40.0713749" lon="-105.229789">
  <ele>1583.0</ele>
  <time>2026-08-28T17:50:38Z</time>
  <course>248.39</course>
  <speed>0.0</speed>
  <fix>3d</fix>
</trkpt>
<trkpt lat="40.0713749" lon="-105.229789">
  <ele>1583.0</ele>
  <time>2026-08-28T17:50:38Z</time>
  <course>0.0</course>
  <speed>0.0</speed>
  <fix>3d</fix>
</trkpt>
<trkpt lat="40.0713749" lon="-105.229789">
  <ele>1583.0</ele>
  <time>2026-08-28T17:50:38Z</time>
  <course>248.4</course>
  <speed>0.0</speed>
  <fix>3d</fix>
</trkpt>
<trkpt lat="40.0713749" lon="-105.229789">
  <ele>1583.0</ele>
  <time>2026-08-28T17:50:38Z</time>
  <course>0.0</course>
  <speed>0.0</speed>
  <fix>3d</fix>
</trkpt>
<trkpt lat="40.0713749" lon="-105.229789">
  <ele>1583.0</ele>
  <time>2026-08-28T17:50:38Z</time>
  <course>248.4</course>
  <speed>0.0</speed>
  <fix>3d</fix>
</trkpt>
<trkpt lat="40.0713749" lon="-105.229789">
  <ele>1583.0</ele>
  <time>2026-08-28T17:50:38Z</time>
  <course>0.0</course>
  <speed>0.0</speed>
  <fix>3d</fix>
</trkpt>
<trkpt lat="40.0713749" lon="-105.229789">
  <ele>1583.0</ele>
  <time>2026-08-28T17:50:38Z</time>
  <course>248.4</course>
  <speed>0.0</speed>
  <fix>3d</fix>
</trkpt>
<trkpt lat="40.0713749" lon="-105.229789">
  <ele>1583.0</ele>
  <time>2026-08-28T17:50:38Z</time>
  <course>0.0</course>
  <speed>0.0</speed>
  <fix>3d</fix>
</trkpt>
<trkpt lat="40.0713749" lon="-105.229789">
  <ele>1583.0</ele>
  <time>2026-08-28T17:50:38Z</time>
  <course>248.4</course>
  <speed>0.0</speed>
  <fix>3d</fix>
</trkpt>
<trkpt lat="40.0713749" lon="-105.229789">
  <ele>1583.0</ele>
  <time>2026-08-28T17:50:38Z</time>
  <course>0.0</course>
  <speed>0.0</speed>
  <fix>3d</fix>
</trkpt>
<trkpt lat="40.0713749" lon="-105.229789">
  <ele>1583.0</ele>
  <time>2026-08-28T17:50:38Z</time>
  <course>248.41</course>
  <speed>0.0</speed>
  <fix>3d</fix>
</trkpt>
<trkpt lat="40.0713749" lon="-105.229789">
  <ele>1583.0</ele>
  <time>2026-08-28T17:50:38Z</time>
  <course>0.0</course>
  <speed>0.0</speed>
  <fix>3d</fix>
</trkpt>
<trkpt lat="40.0713749" lon="-105.229789">
  <ele>1583.0</ele>
  <time>2026-08-28T17:50:38Z</time>
  <course>248.41</course>
  <speed>0.0</speed>
  <fix>3d</fix>
</trkpt>
<trkpt lat="40.0713749" lon="-105.229789">
  <ele>1583.0</ele>
  <time>2026-08-28T17:50:38Z</time>
  <course>0.0</course>
  <speed>0.0</speed>
  <fix>3d</fix>
</trkpt>
<trkpt lat="40.0713749" lon="-105.229789">
  <ele>1583.0</ele>
  <time>2026-08-28T17:50:38Z</time>
  <course>248.41</course>
  <speed>0.0</speed>
  <fix>3d</fix>
</trkpt>
<trkpt lat="40.0713749" lon="-105.229789">
  <ele>1583.0</ele>
  <time>2026-08-28T17:50:38Z</time>
  <course>0.0</course>
  <speed>0.0</speed>
  <fix>3d</fix>
</trkpt>
<trkpt lat="40.0713749" lon="-105.229789">
  <ele>1583.0</ele>
  <time>2026-08-28T17:50:38Z</time>
  <course>248.41</course>
  <speed>0.0</speed>
  <fix>3d</fix>
</trkpt>
<trkpt lat="40.0713749" lon="-105.229789">
  <ele>1583.0</ele>
  <time>2026-08-28T17:50:38Z</time>
  <course>0.0</course>
  <speed>0.0</speed>
  <fix>3d</fix>
</trkpt>
<trkpt lat="40.0713749" lon="-105.229789">
  <ele>1583.0</ele>
  <time>2026-08-28T17:50:38Z</time>
  <course>248.41</course>
  <speed>0.0</speed>
  <fix>3d</fix>
</trkpt>
<trkpt lat="40.0713749" lon="-105.229789">
  <ele>1583.0</ele>
  <time>2026-08-28T17:50:38Z</time>
  <course>0.0</course>
  <speed>0.0</speed>
  <fix>3d</fix>
</trkpt>
<trkpt lat="40.0713749" lon="-105.229789">
  <ele>1583.0</ele>
  <time>2026-08-28T17:50:38Z</time>
  <course>248.41</course>
  <speed>0.0</speed>
  <fix>3d</fix>
</trkpt>
<trkpt lat="40.0713749" lon="-105.229789">
  <ele>1583.0</ele>
  <time>2026-08-28T17:50:38Z</time>
  <course>0.0</course>
  <speed>0.0</speed>
  <fix>3d</fix>
</trkpt>
<trkpt lat="40.0713749" lon="-105.229789">
  <ele>1583.0</ele>
  <time>2026-08-28T17:50:38Z</time>
  <course>248.41</course>
  <speed>0.0</speed>
  <fix>3d</fix>
</trkpt>
<trkpt lat="40.0713749" lon="-105.229789">
  <ele>1583.0</ele>
  <time>2026-08-28T17:50:38Z</time>
  <course>0.0</course>
  <speed>0.0</speed>
  <fix>3d</fix>
</trkpt>
<trkpt lat="40.0713749" lon="-105.229789">
  <ele>1583.0</ele>
  <time>2026-08-28T17:50:38Z</time>
  <course>248.41</course>
  <speed>0.0</speed>
  <fix>3d</fix>
</trkpt>
<trkpt lat="40.0713749" lon="-105.229789">
  <ele>1583.0</ele>
  <time>2026-08-28T17:50:38Z</time>
  <course>0.0</course>
  <speed>0.0</speed>
  <fix>3d</fix>
</trkpt>
<trkpt lat="40.0713749" lon="-105.229789">
  <ele>1583.0</ele>
  <time>2026-08-28T17:50:38Z</time>
  <course>248.41</course>
  <speed>0.0</speed>
  <fix>3d</fix>
</trkpt>
<trkpt lat="40.0713749" lon="-105.229789">
  <ele>1583.0</ele>
  <time>2026-08-28T17:50:38Z</time>
  <course>0.0</course>
  <speed>0.0</speed>
  <fix>3d</fix>
</trkpt>
<trkpt lat="40.0713749" lon="-105.229789">
  <ele>1583.0</ele>
  <time>2026-08-28T17:50:38Z</time>
  <course>248.41</course>
  <speed>0.0</speed>
  <fix>3d</fix>
</trkpt>
<trkpt lat="40.0713749" lon="-105.229789">
  <ele>1583.0</ele>
  <time>2026-08-28T17:50:38Z</time>
  <course>0.0</course>
  <speed>0.0</speed>
  <fix>3d</fix>
</trkpt>
<trkpt lat="40.0713749" lon="-105.229789">
  <ele>1583.0</ele>
  <time>2026-08-28T17:50:38Z</time>
  <course>248.41</course>
  <speed>0.0</speed>
  <fix>3d</fix>
</trkpt>
<trkpt lat="40.0713749" lon="-105.229789">
  <ele>1583.0</ele>
  <time>2026-08-28T17:50:38Z</time>
  <course>0.0</course>
  <speed>0.0</speed>
  <fix>3d</fix>
</trkpt>
<trkpt lat="40.0713749" lon="-105.229789">
  <ele>1583.0</ele>
  <time>2026-08-28T17:50:38Z</time>
  <course>248.41</course>
  <speed>0.0</speed>
  <fix>3d</fix>
</trkpt>
<trkpt lat="40.0713749" lon="-105.229789">
  <ele>1583.0</ele>
  <time>2026-08-28T17:50:38Z</time>
  <course>0.0</course>
  <speed>0.0</speed>
  <fix>3d</fix>
</trkpt>
<trkpt lat="40.0713749" lon="-105.229789">
  <ele>1583.0</ele>
  <time>2026-08-28T17:50:38Z</time>
  <course>248.41</course>
  <speed>0.0</speed>
  <fix>3d</fix>
</trkpt>
<trkpt lat="40.0713749" lon="-105.229789">
  <ele>1583.0</ele>
  <time>2026-08-28T17:50:38Z</time>
  <course>0.0</course>
  <speed>0.0</speed>
  <fix>3d</fix>
</trkpt>
<trkpt lat="40.0713749" lon="-105.229789">
  <ele>1583.0</ele>
  <time>2026-08-28T17:50:38Z</time>
  <course>248.41</course>
  <speed>0.0</speed>
  <fix>3d</fix>
</trkpt>
<trkpt lat="40.0713749" lon="-105.229789">
  <ele>1583.0</ele>
  <time>2026-08-28T17:50:38Z</time>
  <course>0.0</course>
  <speed>0.0</speed>
  <fix>3d</fix>
</trkpt>
<trkpt lat="40.0713749" lon="-105.229789">
  <ele>1583.0</ele>
  <time>2026-08-28T17:50:38Z</time>
  <course>248.41</course>
  <speed>0.0</speed>
  <fix>3d</fix>
</trkpt>
<trkpt lat="40.0713749" lon="-105.229789">
  <ele>1583.0</ele>
  <time>2026-08-28T17:50:38Z</time>
  <course>0.0</course>
  <speed>0.0</speed>
  <fix>3d</fix>
</trkpt>
<trkpt lat="40.0713749" lon="-105.229789">
  <ele>1583.0</ele>
  <time>2026-08-28T17:50:38Z</time>
  <course>248.41</course>
  <speed>0.0</speed>
  <fix>3d</fix>
</trkpt>
<trkpt lat="40.0713749" lon="-105.229789">
  <ele>1583.0</ele>
  <time>2026-08-28T17:50:38Z</time>
  <course>0.0</course>
  <speed>0.0</speed>
  <fix>3d</fix>
</trkpt>
<trkpt lat="40.0713749" lon="-105.229789">
  <ele>1583.0</ele>
  <time>2026-08-28T17:50:38Z</time>
  <course>248.4</course>
  <speed>0.0</speed>
  <fix>3d</fix>
</trkpt>
<trkpt lat="40.0713749" lon="-105.229789">
  <ele>1583.0</ele>
  <time>2026-08-28T17:50:38Z</time>
  <course>0.0</course>
  <speed>0.0</speed>
  <fix>3d</fix>
</trkpt>
<trkpt lat="40.0713749" lon="-105.229789">
  <ele>1583.0</ele>
  <time>2026-08-28T17:50:38Z</time>
  <course>248.4</course>
  <speed>0.01</speed>
  <fix>3d</fix>
</trkpt>
<trkpt lat="40.0713749" lon="-105.229789">
  <ele>1583.0</ele>
  <time>2026-08-28T17:50:38Z</time>
  <course>0.0</course>
  <speed>0.0</speed>
  <fix>3d</fix>
</trkpt>
<trkpt lat="40.0713749" lon="-105.229789">
  <ele>1583.0</ele>
  <time>2026-08-28T17:50:38Z</time>
  <course>248.4</course>
  <speed>0.01</speed>
  <fix>3d</fix>
</trkpt>
<trkpt lat="40.0713749" lon="-105.229789">
  <ele>1583.0</ele>
  <time>2026-08-28T17:50:38Z</time>
  <course>0.0</course>
  <speed>0.0</speed>
  <fix>3d</fix>
</trkpt>
<trkpt lat="40.0713749" lon="-105.229789">
  <ele>1583.0</ele>
  <time>2026-08-28T17:50:38Z</time>
  <course>248.4</course>
  <speed>0.01</speed>
  <fix>3d</fix>
</trkpt>
<trkpt lat="40.0713749" lon="-105.229789">
  <ele>1583.0</ele>
  <time>2026-08-28T17:50:38Z</time>
  <course>0.0</course>
  <speed>0.0</speed>
  <fix>3d</fix>
</trkpt>
<trkpt lat="40.0713749" lon="-105.229789">
  <ele>1583.0</ele>
  <time>2026-08-28T17:50:38Z</time>
  <course>248.4</course>
  <speed>0.01</speed>
  <fix>3d</fix>
</trkpt>
<trkpt lat="40.0713749" lon="-105.229789">
  <ele>1583.0</ele>
  <time>2026-08-28T17:50:38Z</time>
  <course>0.0</course>
  <speed>0.0</speed>
  <fix>3d</fix>
</trkpt>
<trkpt lat="40.0713749" lon="-105.229789">
  <ele>1583.0</ele>
  <time>2026-08-28T17:50:38Z</time>
  <course>248.39</course>
  <speed>0.01</speed>
  <fix>3d</fix>
</trkpt>
<trkpt lat="40.0713749" lon="-105.229789">
  <ele>1583.0</ele>
  <time>2026-08-28T17:50:38Z</time>
  <course>0.0</course>
  <speed>0.0</speed>
  <fix>3d</fix>
</trkpt>
<trkpt lat="40.0713749" lon="-105.229789">
  <ele>1583.0</ele>
  <time>2026-08-28T17:50:38Z</time>
  <course>248.39</course>
  <speed>0.01</speed>
  <fix>3d</fix>
</trkpt>
<trkpt lat="40.0713749" lon="-105.229789">
  <ele>1583.0</ele>
  <time>2026-08-28T17:50:38Z</time>
  <course>0.0</course>
  <speed>0.0</speed>
  <fix>3d</fix>
</trkpt>
<trkpt lat="40.0713749" lon="-105.229789">
  <ele>1583.0</ele>
  <time>2026-08-28T17:50:38Z</time>
  <course>248.39</course>
  <speed>0.01</speed>
  <fix>3d</fix>
</trkpt>
<trkpt lat="40.0713749" lon="-105.229789">
  <ele>1583.0</ele>
  <time>2026-08-28T17:50:38Z</time>
  <course>0.0</course>
  <speed>0.0</speed>
  <fix>3d</fix>
</trkpt>
<trkpt lat="40.0713749" lon="-105.229789">
  <ele>1583.0</ele>
  <time>2026-08-28T17:50:38Z</time>
  <course>248.38</course>
  <speed>0.01</speed>
  <fix>3d</fix>
</trkpt>
<trkpt lat="40.0713749" lon="-105.229789">
  <ele>1583.0</ele>
  <time>2026-08-28T17:50:38Z</time>
  <course>0.0</course>
  <speed>0.0</speed>
  <fix>3d</fix>
</trkpt>
<trkpt lat="40.0713749" lon="-105.229789">
  <ele>1583.0</ele>
  <time>2026-08-28T17:50:38Z</time>
  <course>248.38</course>
  <speed>0.01</speed>
  <fix>3d</fix>
</trkpt>
<trkpt lat="40.0713749" lon="-105.229789">
  <ele>1583.0</ele>
  <time>2026-08-28T17:50:38Z</time>
  <course>0.0</course>
  <speed>0.0</speed>
  <fix>3d</fix>
</trkpt>
<trkpt lat="40.0713749" lon="-105.229789">
  <ele>1583.0</ele>
  <time>2026-08-28T17:50:38Z</time>
  <course>248.38</course>
  <speed>0.01</speed>
  <fix>3d</fix>
</trkpt>
<trkpt lat="40.0713749" lon="-105.229789">
  <ele>1583.0</ele>
  <time>2026-08-28T17:50:38Z</time>
  <course>0.0</course>
  <speed>0.0</speed>
  <fix>3d</fix>
</trkpt>
<trkpt lat="40.0713749" lon="-105.229789">
  <ele>1583.0</ele>
  <time>2026-08-28T17:50:38Z</time>
  <course>248.37</course>
  <speed>0.01</speed>
  <fix>3d</fix>
</trkpt>
<trkpt lat="40.0713749" lon="-105.229789">
  <ele>1583.0</ele>
  <time>2026-08-28T17:50:38Z</time>
  <course>0.0</course>
  <speed>0.0</speed>
  <fix>3d</fix>
</trkpt>
<trkpt lat="40.0713749" lon="-105.229789">
  <ele>1583.0</ele>
  <time>2026-08-28T17:50:38Z</time>
  <course>248.37</course>
  <speed>0.01</speed>
  <fix>3d</fix>
</trkpt>
<trkpt lat="40.0713749" lon="-105.229789">
  <ele>1583.0</ele>
  <time>2026-08-28T17:50:38Z</time>
  <course>0.0</course>
  <speed>0.0</speed>
  <fix>3d</fix>
</trkpt>
<trkpt lat="40.0713749" lon="-105.229789">
  <ele>1583.0</ele>
  <time>2026-08-28T17:50:38Z</time>
  <course>248.37</course>
  <speed>0.01</speed>
  <fix>3d</fix>
</trkpt>
<trkpt lat="40.0713749" lon="-105.229789">
  <ele>1583.0</ele>
  <time>2026-08-28T17:50:38Z</time>
  <course>0.0</course>
  <speed>0.0</speed>
  <fix>3d</fix>
</trkpt>
<trkpt lat="40.0713749" lon="-105.229789">
  <ele>1583.0</ele>
  <time>2026-08-28T17:50:38Z</time>
  <course>248.36</course>
  <speed>0.01</speed>
  <fix>3d</fix>
</trkpt>
<trkpt lat="40.0713749" lon="-105.229789">
  <ele>1583.0</ele>
  <time>2026-08-28T17:50:38Z</time>
  <course>0.0</course>
  <speed>0.0</speed>
  <fix>3d</fix>
</trkpt>
<trkpt lat="40.0713749" lon="-105.229789">
  <ele>1583.0</ele>
  <time>2026-08-28T17:50:38Z</time>
  <course>248.36</course>
  <speed>0.01</speed>
  <fix>3d</fix>
</trkpt>
<trkpt lat="40.0713749" lon="-105.229789">
  <ele>1583.0</ele>
  <time>2026-08-28T17:50:38Z</time>
  <course>0.0</course>
  <speed>0.0</speed>
  <fix>3d</fix>
</trkpt>
<trkpt lat="40.0713749" lon="-105.229789">
  <ele>1583.0</ele>
  <time>2026-08-28T17:50:38Z</time>
  <course>248.36</course>
  <speed>0.01</speed>
  <fix>3d</fix>
</trkpt>
<trkpt lat="40.0713749" lon="-105.229789">
  <ele>1583.0</ele>
  <time>2026-08-28T17:50:38Z</time>
  <course>0.0</course>
  <speed>0.0</speed>
  <fix>3d</fix>
</trkpt>
<trkpt lat="40.0713749" lon="-105.229789">
  <ele>1583.0</ele>
  <time>2026-08-28T17:50:38Z</time>
  <course>248.35</course>
  <speed>0.01</speed>
  <fix>3d</fix>
</trkpt>
<trkpt lat="40.0713749" lon="-105.229789">
  <ele>1583.0</ele>
  <time>2026-08-28T17:50:38Z</time>
  <course>0.0</course>
  <speed>0.0</speed>
  <fix>3d</fix>
</trkpt>
<trkpt lat="40.0713749" lon="-105.229789">
  <ele>1583.0</ele>
  <time>2026-08-28T17:50:38Z</time>
  <course>248.35</course>
  <speed>0.01</speed>
  <fix>3d</fix>
</trkpt>
<trkpt lat="40.0713749" lon="-105.229789">
  <ele>1583.0</ele>
  <time>2026-08-28T17:50:38Z</time>
  <course>0.0</course>
  <speed>0.0</speed>
  <fix>3d</fix>
</trkpt>
<trkpt lat="40.0713749" lon="-105.229789">
  <ele>1583.0</ele>
  <time>2026-08-28T17:50:38Z</time>
  <course>248.35</course>
  <speed>0.01</speed>
  <fix>3d</fix>
</trkpt>
<trkpt lat="40.0713749" lon="-105.229789">
  <ele>1583.0</ele>
  <time>2026-08-28T17:50:38Z</time>
  <course>0.0</course>
  <speed>0.0</speed>
  <fix>3d</fix>
</trkpt>
<trkpt lat="40.0713749" lon="-105.229789">
  <ele>1583.0</ele>
  <time>2026-08-28T17:50:38Z</time>
  <course>248.34</course>
  <speed>0.01</speed>
  <fix>3d</fix>
</trkpt>
<trkpt lat="40.0713749" lon="-105.229789">
  <ele>1583.0</ele>
  <time>2026-08-28T17:50:38Z</time>
  <course>0.0</course>
  <speed>0.0</speed>
  <fix>3d</fix>
</trkpt>
<trkpt lat="40.0713749" lon="-105.229789">
  <ele>1583.0</ele>
  <time>2026-08-28T17:50:38Z</time>
  <course>248.34</course>
  <speed>0.01</speed>
  <fix>3d</fix>
</trkpt>
<trkpt lat="40.0713749" lon="-105.229789">
  <ele>1583.0</ele>
  <time>2026-08-28T17:50:38Z</time>
  <course>0.0</course>
  <speed>0.0</speed>
  <fix>3d</fix>
</trkpt>
<trkpt lat="40.0713749" lon="-105.229789">
  <ele>1583.0</ele>
  <time>2026-08-28T17:50:38Z</time>
  <course>248.33</course>
  <speed>0.01</speed>
  <fix>3d</fix>
</trkpt>
<trkpt lat="40.0713749" lon="-105.229789">
  <ele>1583.0</ele>
  <time>2026-08-28T17:50:38Z</time>
  <course>0.0</course>
  <speed>0.0</speed>
  <fix>3d</fix>
</trkpt>
<trkpt lat="40.0713749" lon="-105.229789">
  <ele>1583.0</ele>
  <time>2026-08-28T17:50:38Z</time>
  <course>248.33</course>
  <speed>0.01</speed>
  <fix>3d</fix>
</trkpt>
<trkpt lat="40.0713749" lon="-105.229789">
  <ele>1583.0</ele>
  <time>2026-08-28T17:50:38Z</time>
  <course>0.0</course>
  <speed>0.0</speed>
  <fix>3d</fix>
</trkpt>
<trkpt lat="40.0713749" lon="-105.229789">
  <ele>1583.0</ele>
  <time>2026-08-28T17:50:38Z</time>
  <course>248.32</course>
  <speed>0.01</speed>
  <fix>3d</fix>
</trkpt>
<trkpt lat="40.0713749" lon="-105.229789">
  <ele>1583.0</ele>
  <time>2026-08-28T17:50:38Z</time>
  <course>0.0</course>
  <speed>0.0</speed>
  <fix>3d</fix>
</trkpt>
<trkpt lat="40.0713749" lon="-105.229789">
  <ele>1583.0</ele>
  <time>2026-08-28T17:50:38Z</time>
  <course>248.32</course>
  <speed>0.01</speed>
  <fix>3d</fix>
</trkpt>
<trkpt lat="40.0713749" lon="-105.229789">
  <ele>1583.0</ele>
  <time>2026-08-28T17:50:38Z</time>
  <course>0.0</course>
  <speed>0.0</speed>
  <fix>3d</fix>
</trkpt>
<trkpt lat="40.0713749" lon="-105.229789">
  <ele>1583.0</ele>
  <time>2026-08-28T17:50:38Z</time>
  <course>248.32</course>
  <speed>0.01</speed>
  <fix>3d</fix>
</trkpt>
<trkpt lat="40.0713749" lon="-105.229789">
  <ele>1583.0</ele>
  <time>2026-08-28T17:50:38Z</time>
  <course>0.0</course>
  <speed>0.0</speed>
  <fix>3d</fix>
</trkpt>
<trkpt lat="40.0713749" lon="-105.229789">
  <ele>1583.0</ele>
  <time>2026-08-28T17:50:38Z</time>
  <course>248.31</course>
  <speed>0.01</speed>
  <fix>3d</fix>
</trkpt>
<trkpt lat="40.0713749" lon="-105.229789">
  <ele>1583.0</ele>
  <time>2026-08-28T17:50:38Z</time>
  <course>0.0</course>
  <speed>0.0</speed>
  <fix>3d</fix>
</trkpt>
<trkpt lat="40.0713749" lon="-105.229789">
  <ele>1583.0</ele>
  <time>2026-08-28T17:50:38Z</time>
  <course>248.31</course>
  <speed>0.01</speed>
  <fix>3d</fix>
</trkpt>
<trkpt lat="40.0713749" lon="-105.229789">
  <ele>1583.0</ele>
  <time>2026-08-28T17:50:38Z</time>
  <course>0.0</course>
  <speed>0.0</speed>
  <fix>3d</fix>
</trkpt>
<trkpt lat="40.0713749" lon="-105.229789">
  <ele>1583.0</ele>
  <time>2026-08-28T17:50:38Z</time>
  <course>248.3</course>
  <speed>0.01</speed>
  <fix>3d</fix>
</trkpt>
<trkpt lat="40.0713749" lon="-105.229789">
  <ele>1583.0</ele>
  <time>2026-08-28T17:50:38Z</time>
  <course>0.0</course>
  <speed>0.0</speed>
  <fix>3d</fix>
</trkpt>
<trkpt lat="40.0713749" lon="-105.229789">
  <ele>1583.0</ele>
  <time>2026-08-28T17:50:38Z</time>
  <course>248.3</course>
  <speed>0.01</speed>
  <fix>3d</fix>
</trkpt>
<trkpt lat="40.0713749" lon="-105.229789">
  <ele>1583.0</ele>
  <time>2026-08-28T17:50:38Z</time>
  <course>0.0</course>
  <speed>0.0</speed>
  <fix>3d</fix>
</trkpt>
<trkpt lat="40.0713749" lon="-105.229789">
  <ele>1583.0</ele>
  <time>2026-08-28T17:50:38Z</time>
  <course>248.29</course>
  <speed>0.01</speed>
  <fix>3d</fix>
</trkpt>
<trkpt lat="40.0713749" lon="-105.229789">
  <ele>1583.0</ele>
  <time>2026-08-28T17:50:38Z</time>
  <course>0.0</course>
  <speed>0.0</speed>
  <fix>3d</fix>
</trkpt>
<trkpt lat="40.0713749" lon="-105.229789">
  <ele>1583.0</ele>
  <time>2026-08-28T17:50:38Z</time>
  <course>248.29</course>
  <speed>0.01</speed>
  <fix>3d</fix>
</trkpt>
<trkpt lat="40.0713749" lon="-105.229789">
  <ele>1583.0</ele>
  <time>2026-08-28T17:50:38Z</time>
  <course>0.0</course>
  <speed>0.0</speed>
  <fix>3d</fix>
</trkpt>
<trkpt lat="40.0713749" lon="-105.229789">
  <ele>1583.0</ele>
  <time>2026-08-28T17:50:38Z</time>
  <course>248.28</course>
  <speed>0.01</speed>
  <fix>3d</fix>
</trkpt>
<trkpt lat="40.0713749" lon="-105.229789">
  <ele>1583.0</ele>
  <time>2026-08-28T17:50:38Z</time>
  <course>0.0</course>
  <speed>0.0</speed>
  <fix>3d</fix>
</trkpt>
<trkpt lat="40.0713749" lon="-105.229789">
  <ele>1583.0</ele>
  <time>2026-08-28T17:50:38Z</time>
  <course>248.28</course>
  <speed>0.01</speed>
  <fix>3d</fix>
</trkpt>
<trkpt lat="40.0713749" lon="-105.229789">
  <ele>1583.0</ele>
  <time>2026-08-28T17:50:38Z</time>
  <course>0.0</course>
  <speed>0.0</speed>
  <fix>3d</fix>
</trkpt>
<trkpt lat="40.0713749" lon="-105.229789">
  <ele>1583.0</ele>
  <time>2026-08-28T17:50:38Z</time>
  <course>248.27</course>
  <speed>0.01</speed>
  <fix>3d</fix>
</trkpt>
<trkpt lat="40.0713749" lon="-105.229789">
  <ele>1583.0</ele>
  <time>2026-08-28T17:50:38Z</time>
  <course>0.0</course>
  <speed>0.0</speed>
  <fix>3d</fix>
</trkpt>
<trkpt lat="40.0713749" lon="-105.229789">
  <ele>1583.0</ele>
  <time>2026-08-28T17:50:38Z</time>
  <course>248.27</course>
  <speed>0.01</speed>
  <fix>3d</fix>
</trkpt>
<trkpt lat="40.0713749" lon="-105.229789">
  <ele>1583.0</ele>
  <time>2026-08-28T17:50:38Z</time>
  <course>0.0</course>
  <speed>0.0</speed>
  <fix>3d</fix>
</trkpt>
<trkpt lat="40.0713749" lon="-105.229789">
  <ele>1583.0</ele>
  <time>2026-08-28T17:50:38Z</time>
  <course>248.26</course>
  <speed>0.01</speed>
  <fix>3d</fix>
</trkpt>
<trkpt lat="40.0713749" lon="-105.229789">
  <ele>1583.0</ele>
  <time>2026-08-28T17:50:38Z</time>
  <course>0.0</course>
  <speed>0.0</speed>
  <fix>3d</fix>
</trkpt>
<trkpt lat="40.0713749" lon="-105.229789">
  <ele>1583.0</ele>
  <time>2026-08-28T17:50:38Z</time>
  <course>248.26</course>
  <speed>0.01</speed>
  <fix>3d</fix>
</trkpt>
<trkpt lat="40.0713749" lon="-105.229789">
  <ele>1583.0</ele>
  <time>2026-08-28T17:50:38Z</time>
  <course>0.0</course>
  <speed>0.0</speed>
  <fix>3d</fix>
</trkpt>
<trkpt lat="40.0713749" lon="-105.229789">
  <ele>1583.0</ele>
  <time>2026-08-28T17:50:38Z</time>
  <course>248.26</course>
  <speed>0.01</speed>
  <fix>3d</fix>
</trkpt>
<trkpt lat="40.0713749" lon="-105.229789">
  <ele>1583.0</ele>
  <time>2026-08-28T17:50:38Z</time>
  <course>0.0</course>
  <speed>0.0</speed>
  <fix>3d</fix>
</trkpt>
<trkpt lat="40.0713749" lon="-105.229789">
  <ele>1583.0</ele>
  <time>2026-08-28T17:50:38Z</time>
  <course>248.25</course>
  <speed>0.01</speed>
  <fix>3d</fix>
</trkpt>
<trkpt lat="40.0713749" lon="-105.229789">
  <ele>1583.0</ele>
  <time>2026-08-28T17:50:38Z</time>
  <course>0.0</course>
  <speed>0.0</speed>
  <fix>3d</fix>
</trkpt>
<trkpt lat="40.0713749" lon="-105.229789">
  <ele>1583.0</ele>
  <time>2026-08-28T17:50:38Z</time>
  <course>248.25</course>
  <speed>0.01</speed>
  <fix>3d</fix>
</trkpt>
<trkpt lat="40.0713749" lon="-105.229789">
  <ele>1583.0</ele>
  <time>2026-08-28T17:50:38Z</time>
  <course>0.0</course>
  <speed>0.0</speed>
  <fix>3d</fix>
</trkpt>
<trkpt lat="40.0713749" lon="-105.229789">
  <ele>1583.0</ele>
  <time>2026-08-28T17:50:38Z</time>
  <course>248.24</course>
  <speed>0.01</speed>
  <fix>3d</fix>
</trkpt>
<trkpt lat="40.0713749" lon="-105.229789">
  <ele>1583.0</ele>
  <time>2026-08-28T17:50:38Z</time>
  <course>0.0</course>
  <speed>0.0</speed>
  <fix>3d</fix>
</trkpt>
<trkpt lat="40.0713749" lon="-105.229789">
  <ele>1583.0</ele>
  <time>2026-08-28T17:50:38Z</time>
  <course>248.24</course>
  <speed>0.01</speed>
  <fix>3d</fix>
</trkpt>
<trkpt lat="40.0713749" lon="-105.229789">
  <ele>1583.0</ele>
  <time>2026-08-28T17:50:38Z</time>
  <course>0.0</course>
  <speed>0.0</speed>
  <fix>3d</fix>
</trkpt>
<trkpt lat="40.0713749" lon="-105.229789">
  <ele>1583.0</ele>
  <time>2026-08-28T17:50:38Z</time>
  <course>248.23</course>
  <speed>0.01</speed>
  <fix>3d</fix>
</trkpt>
<trkpt lat="40.0713749" lon="-105.229789">
  <ele>1583.0</ele>
  <time>2026-08-28T17:50:38Z</time>
  <course>0.0</course>
  <speed>0.0</speed>
  <fix>3d</fix>
</trkpt>
<trkpt lat="40.0713749" lon="-105.229789">
  <ele>1583.0</ele>
  <time>2026-08-28T17:50:38Z</time>
  <course>248.23</course>
  <speed>0.01</speed>
  <fix>3d</fix>
</trkpt>
<trkpt lat="40.0713749" lon="-105.229789">
  <ele>1583.0</ele>
  <time>2026-08-28T17:50:38Z</time>
  <course>0.0</course>
  <speed>0.0</speed>
  <fix>3d</fix>
</trkpt>
<trkpt lat="40.0713749" lon="-105.229789">
  <ele>1583.0</ele>
  <time>2026-08-28T17:50:38Z</time>
  <course>248.22</course>
  <speed>0.01</speed>
  <fix>3d</fix>
</trkpt>
<trkpt lat="40.0713749" lon="-105.229789">
  <ele>1583.0</ele>
  <time>2026-08-28T17:50:38Z</time>
  <course>0.0</course>
  <speed>0.0</speed>
  <fix>3d</fix>
</trkpt>
<trkpt lat="40.0713749" lon="-105.229789">
  <ele>1583.0</ele>
  <time>2026-08-28T17:50:38Z</time>
  <course>248.22</course>
  <speed>0.01</speed>
  <fix>3d</fix>
</trkpt>
<trkpt lat="40.0713749" lon="-105.229789">
  <ele>1583.0</ele>
  <time>2026-08-28T17:50:38Z</time>
  <course>0.0</course>
  <speed>0.0</speed>
  <fix>3d</fix>
</trkpt>
<trkpt lat="40.0713749" lon="-105.229789">
  <ele>1583.0</ele>
  <time>2026-08-28T17:50:38Z</time>
  <course>248.21</course>
  <speed>0.01</speed>
  <fix>3d</fix>
</trkpt>
<trkpt lat="40.0713749" lon="-105.229789">
  <ele>1583.0</ele>
  <time>2026-08-28T17:50:38Z</time>
  <course>0.0</course>
  <speed>0.0</speed>
  <fix>3d</fix>
</trkpt>
<trkpt lat="40.0713749" lon="-105.229789">
  <ele>1583.0</ele>
  <time>2026-08-28T17:50:38Z</time>
  <course>248.21</course>
  <speed>0.01</speed>
  <fix>3d</fix>
</trkpt>
<trkpt lat="40.0713749" lon="-105.229789">
  <ele>1583.0</ele>
  <time>2026-08-28T17:50:38Z</time>
  <course>0.0</course>
  <speed>0.0</speed>
  <fix>3d</fix>
</trkpt>
<trkpt lat="40.0713749" lon="-105.229789">
  <ele>1583.0</ele>
  <time>2026-08-28T17:50:38Z</time>
  <course>248.2</course>
  <speed>0.01</speed>
  <fix>3d</fix>
</trkpt>
<trkpt lat="40.0713749" lon="-105.229789">
  <ele>1583.0</ele>
  <time>2026-08-28T17:50:38Z</time>
  <course>0.0</course>
  <speed>0.0</speed>
  <fix>3d</fix>
</trkpt>
<trkpt lat="40.0713749" lon="-105.229789">
  <ele>1583.0</ele>
  <time>2026-08-28T17:50:38Z</time>
  <course>248.2</course>
  <speed>0.01</speed>
  <fix>3d</fix>
</trkpt>
<trkpt lat="40.0713749" lon="-105.229789">
  <ele>1583.0</ele>
  <time>2026-08-28T17:50:38Z</time>
  <course>0.0</course>
  <speed>0.0</speed>
  <fix>3d</fix>
</trkpt>
<trkpt lat="40.0713749" lon="-105.229789">
  <ele>1583.0</ele>
  <time>2026-08-28T17:50:38Z</time>
  <course>248.19</course>
  <speed>0.01</speed>
  <fix>3d</fix>
</trkpt>
<trkpt lat="40.0713749" lon="-105.229789">
  <ele>1583.0</ele>
  <time>2026-08-28T17:50:38Z</time>
  <course>0.0</course>
  <speed>0.0</speed>
  <fix>3d</fix>
</trkpt>
<trkpt lat="40.0713749" lon="-105.229789">
  <ele>1583.0</ele>
  <time>2026-08-28T17:50:38Z</time>
  <course>248.19</course>
  <speed>0.01</speed>
  <fix>3d</fix>
</trkpt>
<trkpt lat="40.0713749" lon="-105.229789">
  <ele>1583.0</ele>
  <time>2026-08-28T17:50:38Z</time>
  <course>0.0</course>
  <speed>0.0</speed>
  <fix>3d</fix>
</trkpt>
<trkpt lat="40.0713749" lon="-105.229789">
  <ele>1583.0</ele>
  <time>2026-08-28T17:50:38Z</time>
  <course>248.18</course>
  <speed>0.01</speed>
  <fix>3d</fix>
</trkpt>
<trkpt lat="40.0713749" lon="-105.229789">
  <ele>1583.0</ele>
  <time>2026-08-28T17:50:38Z</time>
  <course>0.0</course>
  <speed>0.0</speed>
  <fix>3d</fix>
</trkpt>
<trkpt lat="40.0713749" lon="-105.229789">
  <ele>1583.0</ele>
  <time>2026-08-28T17:50:38Z</time>
  <course>248.18</course>
  <speed>0.01</speed>
  <fix>3d</fix>
</trkpt>
<trkpt lat="40.0713749" lon="-105.229789">
  <ele>1583.0</ele>
  <time>2026-08-28T17:50:38Z</time>
  <course>0.0</course>
  <speed>0.0</speed>
  <fix>3d</fix>
</trkpt>
<trkpt lat="40.0713749" lon="-105.229789">
  <ele>1583.0</ele>
  <time>2026-08-28T17:50:38Z</time>
  <course>248.17</course>
  <speed>0.022360679774997897</speed>
  <fix>3d</fix>
</trkpt>
<trkpt lat="40.0713749" lon="-105.229789">
  <ele>1583.0</ele>
  <time>2026-08-28T17:50:38Z</time>
  <course>0.0</course>
  <speed>0.0</speed>
  <fix>3d</fix>
</trkpt>
<trkpt lat="40.0713749" lon="-105.229789">
  <ele>1583.0</ele>
  <time>2026-08-28T17:50:38Z</time>
  <course>248.17</course>
  <speed>0.022360679774997897</speed>
  <fix>3d</fix>
</trkpt>
<trkpt lat="40.0713749" lon="-105.229789">
  <ele>1583.0</ele>
  <time>2026-08-28T17:50:38Z</time>
  <course>0.0</course>
  <speed>0.0</speed>
  <fix>3d</fix>
</trkpt>
<trkpt lat="40.0713749" lon="-105.229789">
  <ele>1583.0</ele>
  <time>2026-08-28T17:50:38Z</time>
  <course>248.16</course>
  <speed>0.022360679774997897</speed>
  <fix>3d</fix>
</trkpt>
<trkpt lat="40.0713749" lon="-105.229789">
  <ele>1583.0</ele>
  <time>2026-08-28T17:50:38Z</time>
  <course>0.0</course>
  <speed>0.0</speed>
  <fix>3d</fix>
</trkpt>
<trkpt lat="40.0713749" lon="-105.229789">
  <ele>1583.0</ele>
  <time>2026-08-28T17:50:38Z</time>
  <course>248.16</course>
  <speed>0.022360679774997897</speed>
  <fix>3d</fix>
</trkpt>
<trkpt lat="40.0713749" lon="-105.229789">
  <ele>1583.0</ele>
  <time>2026-08-28T17:50:38Z</time>
  <course>0.0</course>
  <speed>0.0</speed>
  <fix>3d</fix>
</trkpt>
<trkpt lat="40.0713749" lon="-105.229789">
  <ele>1583.0</ele>
  <time>2026-08-28T17:50:38Z</time>
  <course>248.15</course>
  <speed>0.022360679774997897</speed>
  <fix>3d</fix>
</trkpt>
<trkpt lat="40.0713749" lon="-105.229789">
  <ele>1583.0</ele>
  <time>2026-08-28T17:50:38Z</time>
  <course>0.0</course>
  <speed>0.0</speed>
  <fix>3d</fix>
</trkpt>
<trkpt lat="40.0713749" lon="-105.229789">
  <ele>1583.0</ele>
  <time>2026-08-28T17:50:38Z</time>
  <course>248.15</course>
  <speed>0.022360679774997897</speed>
  <fix>3d</fix>
</trkpt>
<trkpt lat="40.0713749" lon="-105.229789">
  <ele>1583.0</ele>
  <time>2026-08-28T17:50:38Z</time>
  <course>0.0</course>
  <speed>0.0</speed>
  <fix>3d</fix>
</trkpt>
<trkpt lat="40.0713749" lon="-105.229789">
  <ele>1583.0</ele>
  <time>2026-08-28T17:50:38Z</time>
  <course>248.14</course>
  <speed>0.022360679774997897</speed>
  <fix>3d</fix>
</trkpt>
<trkpt lat="40.0713749" lon="-105.229789">
  <ele>1583.0</ele>
  <time>2026-08-28T17:50:38Z</time>
  <course>0.0</course>
  <speed>0.0</speed>
  <fix>3d</fix>
</trkpt>
<trkpt lat="40.0713749" lon="-105.229789">
  <ele>1583.0</ele>
  <time>2026-08-28T17:50:38Z</time>
  <course>248.14</course>
  <speed>0.022360679774997897</speed>
  <fix>3d</fix>
</trkpt>
<trkpt lat="40.0713749" lon="-105.229789">
  <ele>1583.0</ele>
  <time>2026-08-28T17:50:38Z</time>
  <course>0.0</course>
  <speed>0.0</speed>
  <fix>3d</fix>
</trkpt>
<trkpt lat="40.0713749" lon="-105.229789">
  <ele>1583.0</ele>
  <time>2026-08-28T17:50:38Z</time>
  <course>248.13</course>
  <speed>0.022360679774997897</speed>
  <fix>3d</fix>
</trkpt>
<trkpt lat="40.0713749" lon="-105.229789">
  <ele>1583.0</ele>
  <time>2026-08-28T17:50:38Z</time>
  <course>0.0</course>
  <speed>0.0</speed>
  <fix>3d</fix>
</trkpt>
<trkpt lat="40.0713749" lon="-105.229789">
  <ele>1583.0</ele>
  <time>2026-08-28T17:50:38Z</time>
  <course>248.13</course>
  <speed>0.022360679774997897</speed>
  <fix>3d</fix>
</trkpt>
<trkpt lat="40.0713749" lon="-105.229789">
  <ele>1583.0</ele>
  <time>2026-08-28T17:50:38Z</time>
  <course>0.0</course>
  <speed>0.0</speed>
  <fix>3d</fix>
</trkpt>
<trkpt lat="40.0713749" lon="-105.229789">
  <ele>1583.0</ele>
  <time>2026-08-28T17:50:38Z</time>
  <course>248.12</course>
  <speed>0.022360679774997897</speed>
  <fix>3d</fix>
</trkpt>
<trkpt lat="40.0713749" lon="-105.229789">
  <ele>1583.0</ele>
  <time>2026-08-28T17:50:38Z</time>
  <course>0.0</course>
  <speed>0.0</speed>
  <fix>3d</fix>
</trkpt>
<trkpt lat="40.0713749" lon="-105.229789">
  <ele>1583.0</ele>
  <time>2026-08-28T17:50:38Z</time>
  <course>248.12</course>
  <speed>0.022360679774997897</speed>
  <fix>3d</fix>
</trkpt>
<trkpt lat="40.0713749" lon="-105.229789">
  <ele>1583.0</ele>
  <time>2026-08-28T17:50:38Z</time>
  <course>0.0</course>
  <speed>0.0</speed>
  <fix>3d</fix>
</trkpt>
<trkpt lat="40.0713749" lon="-105.229789">
  <ele>1583.0</ele>
  <time>2026-08-28T17:50:38Z</time>
  <course>248.11</course>
  <speed>0.022360679774997897</speed>
  <fix>3d</fix>
</trkpt>
<trkpt lat="40.0713749" lon="-105.229789">
  <ele>1583.0</ele>
  <time>2026-08-28T17:50:38Z</time>
  <course>0.0</course>
  <speed>0.0</speed>
  <fix>3d</fix>
</trkpt>
<trkpt lat="40.0713749" lon="-105.229789">
  <ele>1583.0</ele>
  <time>2026-08-28T17:50:38Z</time>
  <course>248.11</course>
  <speed>0.022360679774997897</speed>
  <fix>3d</fix>
</trkpt>
<trkpt lat="40.0713749" lon="-105.229789">
  <ele>1583.0</ele>
  <time>2026-08-28T17:50:38Z</time>
  <course>0.0</course>
  <speed>0.0</speed>
  <fix>3d</fix>
</trkpt>
<trkpt lat="40.0713749" lon="-105.229789">
  <ele>1583.0</ele>
  <time>2026-08-28T17:50:38Z</time>
  <course>248.1</course>
  <speed>0.022360679774997897</speed>
  <fix>3d</fix>
</trkpt>
<trkpt lat="40.0713749" lon="-105.229789">
  <ele>1583.0</ele>
  <time>2026-08-28T17:50:38Z</time>
  <course>0.0</course>
  <speed>0.0</speed>
  <fix>3d</fix>
</trkpt>
<trkpt lat="40.0713749" lon="-105.229789">
  <ele>1583.0</ele>
  <time>2026-08-28T17:50:38Z</time>
  <course>248.1</course>
  <speed>0.022360679774997897</speed>
  <fix>3d</fix>
</trkpt>
<trkpt lat="40.0713749" lon="-105.229789">
  <ele>1583.0</ele>
  <time>2026-08-28T17:50:38Z</time>
  <course>0.0</course>
  <speed>0.0</speed>
  <fix>3d</fix>
</trkpt>
<trkpt lat="40.0713749" lon="-105.229789">
  <ele>1583.0</ele>
  <time>2026-08-28T17:50:38Z</time>
  <course>248.09</course>
  <speed>0.022360679774997897</speed>
  <fix>3d</fix>
</trkpt>
<trkpt lat="40.0713749" lon="-105.229789">
  <ele>1583.0</ele>
  <time>2026-08-28T17:50:38Z</time>
  <course>0.0</course>
  <speed>0.0</speed>
  <fix>3d</fix>
</trkpt>
<trkpt lat="40.0713749" lon="-105.229789">
  <ele>1583.0</ele>
  <time>2026-08-28T17:50:38Z</time>
  <course>248.09</course>
  <speed>0.022360679774997897</speed>
  <fix>3d</fix>
</trkpt>
<trkpt lat="40.0713749" lon="-105.229789">
  <ele>1583.0</ele>
  <time>2026-08-28T17:50:38Z</time>
  <course>0.0</course>
  <speed>0.0</speed>
  <fix>3d</fix>
</trkpt>
<trkpt lat="40.0713749" lon="-105.229789">
  <ele>1583.0</ele>
  <time>2026-08-28T17:50:38Z</time>
  <course>248.08</course>
  <speed>0.022360679774997897</speed>
  <fix>3d</fix>
</trkpt>
<trkpt lat="40.0713749" lon="-105.229789">
  <ele>1583.0</ele>
  <time>2026-08-28T17:50:38Z</time>
  <course>0.0</course>
  <speed>0.0</speed>
  <fix>3d</fix>
</trkpt>
<trkpt lat="40.0713749" lon="-105.229789">
  <ele>1583.0</ele>
  <time>2026-08-28T17:50:38Z</time>
  <course>248.08</course>
  <speed>0.022360679774997897</speed>
  <fix>3d</fix>
</trkpt>
<trkpt lat="40.0713749" lon="-105.229789">
  <ele>1583.0</ele>
  <time>2026-08-28T17:50:38Z</time>
  <course>0.0</course>
  <speed>0.0</speed>
  <fix>3d</fix>
</trkpt>
<trkpt lat="40.0713749" lon="-105.229789">
  <ele>1583.0</ele>
  <time>2026-08-28T17:50:38Z</time>
  <course>248.07</course>
  <speed>0.022360679774997897</speed>
  <fix>3d</fix>
</trkpt>
<trkpt lat="40.0713749" lon="-105.229789">
  <ele>1583.0</ele>
  <time>2026-08-28T17:50:38Z</time>
  <course>0.0</course>
  <speed>0.0</speed>
  <fix>3d</fix>
</trkpt>
<trkpt lat="40.0713749" lon="-105.229789">
  <ele>1583.0</ele>
  <time>2026-08-28T17:50:38Z</time>
  <course>248.07</course>
  <speed>0.022360679774997897</speed>
  <fix>3d</fix>
</trkpt>
<trkpt lat="40.0713749" lon="-105.229789">
  <ele>1583.0</ele>
  <time>2026-08-28T17:50:38Z</time>
  <course>0.0</course>
  <speed>0.0</speed>
  <fix>3d</fix>
</trkpt>
<trkpt lat="40.0713749" lon="-105.229789">
  <ele>1583.0</ele>
  <time>2026-08-28T17:50:38Z</time>
  <course>248.06</course>
  <speed>0.022360679774997897</speed>
  <fix>3d</fix>
</trkpt>
<trkpt lat="40.0713749" lon="-105.229789">
  <ele>1583.0</ele>
  <time>2026-08-28T17:50:38Z</time>
  <course>0.0</course>
  <speed>0.0</speed>
  <fix>3d</fix>
</trkpt>
<trkpt lat="40.0713749" lon="-105.229789">
  <ele>1583.0</ele>
  <time>2026-08-28T17:50:38Z</time>
  <course>248.06</course>
  <speed>0.022360679774997897</speed>
  <fix>3d</fix>
</trkpt>
<trkpt lat="40.0713749" lon="-105.229789">
  <ele>1583.0</ele>
  <time>2026-08-28T17:50:38Z</time>
  <course>0.0</course>
  <speed>0.0</speed>
  <fix>3d</fix>
</trkpt>
<trkpt lat="40.0713749" lon="-105.229789">
  <ele>1583.0</ele>
  <time>2026-08-28T17:50:38Z</time>
  <course>248.05</course>
  <speed>0.022360679774997897</speed>
  <fix>3d</fix>
</trkpt>
<trkpt lat="40.0713749" lon="-105.229789">
  <ele>1583.0</ele>
  <time>2026-08-28T17:50:38Z</time>
  <course>0.0</course>
  <speed>0.0</speed>
  <fix>3d</fix>
</trkpt>
<trkpt lat="40.0713749" lon="-105.229789">
  <ele>1583.0</ele>
  <time>2026-08-28T17:50:38Z</time>
  <course>248.05</course>
  <speed>0.022360679774997897</speed>
  <fix>3d</fix>
</trkpt>
<trkpt lat="40.0713749" lon="-105.229789">
  <ele>1583.0</ele>
  <time>2026-08-28T17:50:38Z</time>
  <course>0.0</course>
  <speed>0.0</speed>
  <fix>3d</fix>
</trkpt>
<trkpt lat="40.0713749" lon="-105.229789">
  <ele>1583.0</ele>
  <time>2026-08-28T17:50:38Z</time>
  <course>248.05</course>
  <speed>0.022360679774997897</speed>
  <fix>3d</fix>
</trkpt>
<trkpt lat="40.0713749" lon="-105.229789">
  <ele>1583.0</ele>
  <time>2026-08-28T17:50:38Z</time>
  <course>0.0</course>
  <speed>0.0</speed>
  <fix>3d</fix>
</trkpt>
<trkpt lat="40.0713749" lon="-105.229789">
  <ele>1583.0</ele>
  <time>2026-08-28T17:50:38Z</time>
  <course>248.04</course>
  <speed>0.022360679774997897</speed>
  <fix>3d</fix>
</trkpt>
<trkpt lat="40.0713749" lon="-105.229789">
  <ele>1583.0</ele>
  <time>2026-08-28T17:50:38Z</time>
  <course>0.0</course>
  <speed>0.0</speed>
  <fix>3d</fix>
</trkpt>
<trkpt lat="40.0713749" lon="-105.229789">
  <ele>1583.0</ele>
  <time>2026-08-28T17:50:38Z</time>
  <course>248.04</course>
  <speed>0.022360679774997897</speed>
  <fix>3d</fix>
</trkpt>
<trkpt lat="40.0713749" lon="-105.229789">
  <ele>1583.0</ele>
  <time>2026-08-28T17:50:38Z</time>
  <course>0.0</course>
  <speed>0.0</speed>
  <fix>3d</fix>
</trkpt>
<trkpt lat="40.0713749" lon="-105.229789">
  <ele>1583.0</ele>
  <time>2026-08-28T17:50:38Z</time>
  <course>248.03</course>
  <speed>0.022360679774997897</speed>
  <fix>3d</fix>
</trkpt>
<trkpt lat="40.0713749" lon="-105.229789">
  <ele>1583.0</ele>
  <time>2026-08-28T17:50:38Z</time>
  <course>0.0</course>
  <speed>0.0</speed>
  <fix>3d</fix>
</trkpt>
<trkpt lat="40.0713749" lon="-105.229789">
  <ele>1583.0</ele>
  <time>2026-08-28T17:50:38Z</time>
  <course>248.03</course>
  <speed>0.022360679774997897</speed>
  <fix>3d</fix>
</trkpt>
<trkpt lat="40.0713749" lon="-105.229789">
  <ele>1583.0</ele>
  <time>2026-08-28T17:50:38Z</time>
  <course>0.0</course>
  <speed>0.0</speed>
  <fix>3d</fix>
</trkpt>
<trkpt lat="40.0713749" lon="-105.229789">
  <ele>1583.0</ele>
  <time>2026-08-28T17:50:38Z</time>
  <course>248.02</course>
  <speed>0.022360679774997897</speed>
  <fix>3d</fix>
</trkpt>
<trkpt lat="40.0713749" lon="-105.229789">
  <ele>1583.0</ele>
  <time>2026-08-28T17:50:38Z</time>
  <course>0.0</course>
  <speed>0.0</speed>
  <fix>3d</fix>
</trkpt>
<trkpt lat="40.0713749" lon="-105.229789">
  <ele>1583.0</ele>
  <time>2026-08-28T17:50:38Z</time>
  <course>248.02</course>
  <speed>0.022360679774997897</speed>
  <fix>3d</fix>
</trkpt>
<trkpt lat="40.0713749" lon="-105.229789">
  <ele>1583.0</ele>
  <time>2026-08-28T17:50:38Z</time>
  <course>0.0</course>
  <speed>0.0</speed>
  <fix>3d</fix>
</trkpt>
<trkpt lat="40.0713749" lon="-105.229789">
  <ele>1583.0</ele>
  <time>2026-08-28T17:50:38Z</time>
  <course>248.01</course>
  <speed>0.022360679774997897</speed>
  <fix>3d</fix>
</trkpt>
<trkpt lat="40.0713749" lon="-105.229789">
  <ele>1583.0</ele>
  <time>2026-08-28T17:50:38Z</time>
  <course>0.0</course>
  <speed>0.0</speed>
  <fix>3d</fix>
</trkpt>
<trkpt lat="40.0713749" lon="-105.229789">
  <ele>1583.0</ele>
  <time>2026-08-28T17:50:38Z</time>
  <course>248.01</course>
  <speed>0.022360679774997897</speed>
  <fix>3d</fix>
</trkpt>
<trkpt lat="40.0713749" lon="-105.229789">
  <ele>1583.0</ele>
  <time>2026-08-28T17:50:38Z</time>
  <course>0.0</course>
  <speed>0.0</speed>
  <fix>3d</fix>
</trkpt>
<trkpt lat="40.0713749" lon="-105.229789">
  <ele>1583.0</ele>
  <time>2026-08-28T17:50:38Z</time>
  <course>248.0</course>
  <speed>0.022360679774997897</speed>
  <fix>3d</fix>
</trkpt>
<trkpt lat="40.0713749" lon="-105.229789">
  <ele>1583.0</ele>
  <time>2026-08-28T17:50:38Z</time>
  <course>0.0</course>
  <speed>0.0</speed>
  <fix>3d</fix>
</trkpt>
<trkpt lat="40.0713749" lon="-105.229789">
  <ele>1583.0</ele>
  <time>2026-08-28T17:50:38Z</time>
  <course>248.0</course>
  <speed>0.022360679774997897</speed>
  <fix>3d</fix>
</trkpt>
<trkpt lat="40.0713749" lon="-105.229789">
  <ele>1583.0</ele>
  <time>2026-08-28T17:50:38Z</time>
  <course>0.0</course>
  <speed>0.0</speed>
  <fix>3d</fix>
</trkpt>
<trkpt lat="40.0713749" lon="-105.229789">
  <ele>1583.0</ele>
  <time>2026-08-28T17:50:38Z</time>
  <course>247.99</course>
  <speed>0.022360679774997897</speed>
  <fix>3d</fix>
</trkpt>
<trkpt lat="40.0713749" lon="-105.229789">
  <ele>1583.0</ele>
  <time>2026-08-28T17:50:38Z</time>
  <course>0.0</course>
  <speed>0.0</speed>
  <fix>3d</fix>
</trkpt>
<trkpt lat="40.0713749" lon="-105.229789">
  <ele>1583.0</ele>
  <time>2026-08-28T17:50:38Z</time>
  <course>247.99</course>
  <speed>0.022360679774997897</speed>
  <fix>3d</fix>
</trkpt>
<trkpt lat="40.0713749" lon="-105.229789">
  <ele>1583.0</ele>
  <time>2026-08-28T17:50:38Z</time>
  <course>0.0</course>
  <speed>0.0</speed>
  <fix>3d</fix>
</trkpt>
<trkpt lat="40.0713749" lon="-105.229789">
  <ele>1583.0</ele>
  <time>2026-08-28T17:50:38Z</time>
  <course>247.99</course>
  <speed>0.022360679774997897</speed>
  <fix>3d</fix>
</trkpt>
<trkpt lat="40.0713749" lon="-105.229789">
  <ele>1583.0</ele>
  <time>2026-08-28T17:50:38Z</time>
  <course>0.0</course>
  <speed>0.0</speed>
  <fix>3d</fix>
</trkpt>
<trkpt lat="40.0713749" lon="-105.229789">
  <ele>1583.0</ele>
  <time>2026-08-28T17:50:38Z</time>
  <course>247.98</course>
  <speed>0.022360679774997897</speed>
  <fix>3d</fix>
</trkpt>
<trkpt lat="40.0713749" lon="-105.229789">
  <ele>1583.0</ele>
  <time>2026-08-28T17:50:38Z</time>
  <course>0.0</course>
  <speed>0.0</speed>
  <fix>3d</fix>
</trkpt>
<trkpt lat="40.0713749" lon="-105.229789">
  <ele>1583.0</ele>
  <time>2026-08-28T17:50:38Z</time>
  <course>247.98</course>
  <speed>0.022360679774997897</speed>
  <fix>3d</fix>
</trkpt>
<trkpt lat="40.0713749" lon="-105.229789">
  <ele>1583.0</ele>
  <time>2026-08-28T17:50:38Z</time>
  <course>0.0</course>
  <speed>0.0</speed>
  <fix>3d</fix>
</trkpt>
<trkpt lat="40.0713749" lon="-105.229789">
  <ele>1583.0</ele>
  <time>2026-08-28T17:50:38Z</time>
  <course>247.97</course>
  <speed>0.022360679774997897</speed>
  <fix>3d</fix>
</trkpt>
<trkpt lat="40.0713749" lon="-105.229789">
  <ele>1583.0</ele>
  <time>2026-08-28T17:50:38Z</time>
  <course>0.0</course>
  <speed>0.0</speed>
  <fix>3d</fix>
</trkpt>
<trkpt lat="40.0713749" lon="-105.229789">
  <ele>1583.0</ele>
  <time>2026-08-28T17:50:38Z</time>
  <course>247.97</course>
  <speed>0.022360679774997897</speed>
  <fix>3d</fix>
</trkpt>
<trkpt lat="40.0713749" lon="-105.229789">
  <ele>1583.0</ele>
  <time>2026-08-28T17:50:38Z</time>
  <course>0.0</course>
  <speed>0.0</speed>
  <fix>3d</fix>
</trkpt>
<trkpt lat="40.0713749" lon="-105.229789">
  <ele>1583.0</ele>
  <time>2026-08-28T17:50:38Z</time>
  <course>247.96</course>
  <speed>0.022360679774997897</speed>
  <fix>3d</fix>
</trkpt>
<trkpt lat="40.0713749" lon="-105.229789">
  <ele>1583.0</ele>
  <time>2026-08-28T17:50:38Z</time>
  <course>0.0</course>
  <speed>0.0</speed>
  <fix>3d</fix>
</trkpt>
<trkpt lat="40.0713749" lon="-105.229789">
  <ele>1583.0</ele>
  <time>2026-08-28T17:50:38Z</time>
  <course>247.96</course>
  <speed>0.022360679774997897</speed>
  <fix>3d</fix>
</trkpt>
<trkpt lat="40.0713749" lon="-105.229789">
  <ele>1583.0</ele>
  <time>2026-08-28T17:50:38Z</time>
  <course>0.0</course>
  <speed>0.0</speed>
  <fix>3d</fix>
</trkpt>
<trkpt lat="40.0713749" lon="-105.229789">
  <ele>1583.0</ele>
  <time>2026-08-28T17:50:38Z</time>
  <course>247.95</course>
  <speed>0.022360679774997897</speed>
  <fix>3d</fix>
</trkpt>
<trkpt lat="40.0713749" lon="-105.229789">
  <ele>1583.0</ele>
  <time>2026-08-28T17:50:38Z</time>
  <course>0.0</course>
  <speed>0.0</speed>
  <fix>3d</fix>
</trkpt>
<trkpt lat="40.0713749" lon="-105.229789">
  <ele>1583.0</ele>
  <time>2026-08-28T17:50:38Z</time>
  <course>247.95</course>
  <speed>0.022360679774997897</speed>
  <fix>3d</fix>
</trkpt>
<trkpt lat="40.0713749" lon="-105.229789">
  <ele>1583.0</ele>
  <time>2026-08-28T17:50:38Z</time>
  <course>0.0</course>
  <speed>0.0</speed>
  <fix>3d</fix>
</trkpt>
<trkpt lat="40.0713749" lon="-105.229789">
  <ele>1583.0</ele>
  <time>2026-08-28T17:50:38Z</time>
  <course>247.95</course>
  <speed>0.022360679774997897</speed>
  <fix>3d</fix>
</trkpt>
<trkpt lat="40.0713749" lon="-105.229789">
  <ele>1583.0</ele>
  <time>2026-08-28T17:50:38Z</time>
  <course>0.0</course>
  <speed>0.0</speed>
  <fix>3d</fix>
</trkpt>
<trkpt lat="40.0713749" lon="-105.229789">
  <ele>1583.0</ele>
  <time>2026-08-28T17:50:38Z</time>
  <course>247.94</course>
  <speed>0.022360679774997897</speed>
  <fix>3d</fix>
</trkpt>
<trkpt lat="40.0713749" lon="-105.229789">
  <ele>1583.0</ele>
  <time>2026-08-28T17:50:38Z</time>
  <course>0.0</course>
  <speed>0.0</speed>
  <fix>3d</fix>
</trkpt>
<trkpt lat="40.0713749" lon="-105.229789">
  <ele>1583.0</ele>
  <time>2026-08-28T17:50:38Z</time>
  <course>247.94</course>
  <speed>0.022360679774997897</speed>
  <fix>3d</fix>
</trkpt>
<trkpt lat="40.0713749" lon="-105.229789">
  <ele>1583.0</ele>
  <time>2026-08-28T17:50:38Z</time>
  <course>0.0</course>
  <speed>0.0</speed>
  <fix>3d</fix>
</trkpt>
<trkpt lat="40.0713749" lon="-105.229789">
  <ele>1583.0</ele>
  <time>2026-08-28T17:50:38Z</time>
  <course>247.93</course>
  <speed>0.022360679774997897</speed>
  <fix>3d</fix>
</trkpt>
<trkpt lat="40.0713749" lon="-105.229789">
  <ele>1583.0</ele>
  <time>2026-08-28T17:50:38Z</time>
  <course>0.0</course>
  <speed>0.0</speed>
  <fix>3d</fix>
</trkpt>
<trkpt lat="40.0713749" lon="-105.229789">
  <ele>1583.0</ele>
  <time>2026-08-28T17:50:38Z</time>
  <course>247.93</course>
  <speed>0.022360679774997897</speed>
  <fix>3d</fix>
</trkpt>
<trkpt lat="40.0713749" lon="-105.229789">
  <ele>1583.0</ele>
  <time>2026-08-28T17:50:38Z</time>
  <course>0.0</course>
  <speed>0.0</speed>
  <fix>3d</fix>
</trkpt>
<trkpt lat="40.0713749" lon="-105.229789">
  <ele>1583.0</ele>
  <time>2026-08-28T17:50:38Z</time>
  <course>247.92</course>
  <speed>0.022360679774997897</speed>
  <fix>3d</fix>
</trkpt>
<trkpt lat="40.0713749" lon="-105.229789">
  <ele>1583.0</ele>
  <time>2026-08-28T17:50:38Z</time>
  <course>0.0</course>
  <speed>0.0</speed>
  <fix>3d</fix>
</trkpt>
<trkpt lat="40.0713749" lon="-105.229789">
  <ele>1583.0</ele>
  <time>2026-08-28T17:50:38Z</time>
  <course>247.92</course>
  <speed>0.022360679774997897</speed>
  <fix>3d</fix>
</trkpt>
<trkpt lat="40.0713749" lon="-105.229789">
  <ele>1583.0</ele>
  <time>2026-08-28T17:50:38Z</time>
  <course>0.0</course>
  <speed>0.0</speed>
  <fix>3d</fix>
</trkpt>
<trkpt lat="40.0713749" lon="-105.229789">
  <ele>1583.0</ele>
  <time>2026-08-28T17:50:38Z</time>
  <course>247.92</course>
  <speed>0.022360679774997897</speed>
  <fix>3d</fix>
</trkpt>
<trkpt lat="40.0713749" lon="-105.229789">
  <ele>1583.0</ele>
  <time>2026-08-28T17:50:38Z</time>
  <course>0.0</course>
  <speed>0.0</speed>
  <fix>3d</fix>
</trkpt>
<trkpt lat="40.0713749" lon="-105.229789">
  <ele>1583.0</ele>
  <time>2026-08-28T17:50:38Z</time>
  <course>247.91</course>
  <speed>0.022360679774997897</speed>
  <fix>3d</fix>
</trkpt>
<trkpt lat="40.0713749" lon="-105.229789">
  <ele>1583.0</ele>
  <time>2026-08-28T17:50:38Z</time>
  <course>0.0</course>
  <speed>0.0</speed>
  <fix>3d</fix>
</trkpt>
<trkpt lat="40.0713749" lon="-105.229789">
  <ele>1583.0</ele>
  <time>2026-08-28T17:50:38Z</time>
  <course>247.91</course>
  <speed>0.022360679774997897</speed>
  <fix>3d</fix>
</trkpt>
<trkpt lat="40.0713749" lon="-105.229789">
  <ele>1583.0</ele>
  <time>2026-08-28T17:50:39Z</time>
  <course>0.0</course>
  <speed>0.0</speed>
  <fix>3d</fix>
</trkpt>
<trkpt lat="40.0713749" lon="-105.229789">
  <ele>1583.0</ele>
  <time>2026-08-28T17:50:39Z</time>
  <course>247.9</course>
  <speed>0.022360679774997897</speed>
  <fix>3d</fix>
</trkpt>
<trkpt lat="40.0713749" lon="-105.229789">
  <ele>1583.0</ele>
  <time>2026-08-28T17:50:39Z</time>
  <course>0.0</course>
  <speed>0.0</speed>
  <fix>3d</fix>
</trkpt>
<trkpt lat="40.0713749" lon="-105.229789">
  <ele>1583.0</ele>
  <time>2026-08-28T17:50:39Z</time>
  <course>247.9</course>
  <speed>0.022360679774997897</speed>
  <fix>3d</fix>
</trkpt>
<trkpt lat="40.0713749" lon="-105.229789">
  <ele>1583.0</ele>
  <time>2026-08-28T17:50:39Z</time>
  <course>0.0</course>
  <speed>0.0</speed>
  <fix>3d</fix>
</trkpt>
<trkpt lat="40.0713749" lon="-105.229789">
  <ele>1583.0</ele>
  <time>2026-08-28T17:50:39Z</time>
  <course>247.89</course>
  <speed>0.022360679774997897</speed>
  <fix>3d</fix>
</trkpt>
<trkpt lat="40.0713749" lon="-105.229789">
  <ele>1583.0</ele>
  <time>2026-08-28T17:50:39Z</time>
  <course>0.0</course>
  <speed>0.0</speed>
  <fix>3d</fix>
</trkpt>
<trkpt lat="40.0713749" lon="-105.229789">
  <ele>1583.0</ele>
  <time>2026-08-28T17:50:39Z</time>
  <course>247.89</course>
  <speed>0.022360679774997897</speed>
  <fix>3d</fix>
</trkpt>
<trkpt lat="40.0713749" lon="-105.229789">
  <ele>1583.0</ele>
  <time>2026-08-28T17:50:39Z</time>
  <course>0.0</course>
  <speed>0.0</speed>
  <fix>3d</fix>
</trkpt>
<trkpt lat="40.0713749" lon="-105.229789">
  <ele>1583.0</ele>
  <time>2026-08-28T17:50:39Z</time>
  <course>247.89</course>
  <speed>0.022360679774997897</speed>
  <fix>3d</fix>
</trkpt>
<trkpt lat="40.0713749" lon="-105.229789">
  <ele>1583.0</ele>
  <time>2026-08-28T17:50:39Z</time>
  <course>0.0</course>
  <speed>0.0</speed>
  <fix>3d</fix>
</trkpt>
<trkpt lat="40.0713749" lon="-105.229789">
  <ele>1583.0</ele>
  <time>2026-08-28T17:50:39Z</time>
  <course>247.88</course>
  <speed>0.0316227766016838</speed>
  <fix>3d</fix>
</trkpt>
<trkpt lat="40.0713749" lon="-105.229789">
  <ele>1583.0</ele>
  <time>2026-08-28T17:50:39Z</time>
  <course>0.0</course>
  <speed>0.0</speed>
  <fix>3d</fix>
</trkpt>
<trkpt lat="40.0713749" lon="-105.229789">
  <ele>1583.0</ele>
  <time>2026-08-28T17:50:39Z</time>
  <course>247.88</course>
  <speed>0.0316227766016838</speed>
  <fix>3d</fix>
</trkpt>
<trkpt lat="40.0713749" lon="-105.229789">
  <ele>1583.0</ele>
  <time>2026-08-28T17:50:39Z</time>
  <course>0.0</course>
  <speed>0.0</speed>
  <fix>3d</fix>
</trkpt>
<trkpt lat="40.0713749" lon="-105.229789">
  <ele>1583.0</ele>
  <time>2026-08-28T17:50:39Z</time>
  <course>247.87</course>
  <speed>0.0316227766016838</speed>
  <fix>3d</fix>
</trkpt>
<trkpt lat="40.0713749" lon="-105.229789">
  <ele>1583.0</ele>
  <time>2026-08-28T17:50:39Z</time>
  <course>0.0</course>
  <speed>0.0</speed>
  <fix>3d</fix>
</trkpt>
<trkpt lat="40.0713749" lon="-105.229789">
  <ele>1583.0</ele>
  <time>2026-08-28T17:50:39Z</time>
  <course>247.87</course>
  <speed>0.0316227766016838</speed>
  <fix>3d</fix>
</trkpt>
<trkpt lat="40.0713749" lon="-105.229789">
  <ele>1583.0</ele>
  <time>2026-08-28T17:50:39Z</time>
  <course>0.0</course>
  <speed>0.0</speed>
  <fix>3d</fix>
</trkpt>
<trkpt lat="40.0713749" lon="-105.229789">
  <ele>1583.0</ele>
  <time>2026-08-28T17:50:39Z</time>
  <course>247.87</course>
  <speed>0.0316227766016838</speed>
  <fix>3d</fix>
</trkpt>
<trkpt lat="40.0713749" lon="-105.229789">
  <ele>1583.0</ele>
  <time>2026-08-28T17:50:39Z</time>
  <course>0.0</course>
  <speed>0.0</speed>
  <fix>3d</fix>
</trkpt>
<trkpt lat="40.0713749" lon="-105.229789">
  <ele>1583.0</ele>
  <time>2026-08-28T17:50:39Z</time>
  <course>247.86</course>
  <speed>0.0316227766016838</speed>
  <fix>3d</fix>
</trkpt>
<trkpt lat="40.0713749" lon="-105.229789">
  <ele>1583.0</ele>
  <time>2026-08-28T17:50:39Z</time>
  <course>0.0</course>
  <speed>0.0</speed>
  <fix>3d</fix>
</trkpt>
<trkpt lat="40.0713749" lon="-105.229789">
  <ele>1583.0</ele>
  <time>2026-08-28T17:50:39Z</time>
  <course>247.86</course>
  <speed>0.0316227766016838</speed>
  <fix>3d</fix>
</trkpt>
<trkpt lat="40.0713749" lon="-105.229789">
  <ele>1583.0</ele>
  <time>2026-08-28T17:50:39Z</time>
  <course>0.0</course>
  <speed>0.0</speed>
  <fix>3d</fix>
</trkpt>
<trkpt lat="40.0713749" lon="-105.229789">
  <ele>1583.0</ele>
  <time>2026-08-28T17:50:39Z</time>
  <course>247.85</course>
  <speed>0.0316227766016838</speed>
  <fix>3d</fix>
</trkpt>
<trkpt lat="40.0713749" lon="-105.229789">
  <ele>1583.0</ele>
  <time>2026-08-28T17:50:39Z</time>
  <course>0.0</course>
  <speed>0.0</speed>
  <fix>3d</fix>
</trkpt>
<trkpt lat="40.0713749" lon="-105.229789">
  <ele>1583.0</ele>
  <time>2026-08-28T17:50:39Z</time>
  <course>247.85</course>
  <speed>0.0316227766016838</speed>
  <fix>3d</fix>
</trkpt>
<trkpt lat="40.0713749" lon="-105.229789">
  <ele>1583.0</ele>
  <time>2026-08-28T17:50:39Z</time>
  <course>0.0</course>
  <speed>0.0</speed>
  <fix>3d</fix>
</trkpt>
<trkpt lat="40.0713749" lon="-105.229789">
  <ele>1583.0</ele>
  <time>2026-08-28T17:50:39Z</time>
  <course>247.85</course>
  <speed>0.0316227766016838</speed>
  <fix>3d</fix>
</trkpt>
<trkpt lat="40.0713749" lon="-105.229789">
  <ele>1583.0</ele>
  <time>2026-08-28T17:50:39Z</time>
  <course>0.0</course>
  <speed>0.0</speed>
  <fix>3d</fix>
</trkpt>
<trkpt lat="40.0713749" lon="-105.229789">
  <ele>1583.0</ele>
  <time>2026-08-28T17:50:39Z</time>
  <course>247.84</course>
  <speed>0.0316227766016838</speed>
  <fix>3d</fix>
</trkpt>
<trkpt lat="40.0713749" lon="-105.229789">
  <ele>1583.0</ele>
  <time>2026-08-28T17:50:39Z</time>
  <course>0.0</course>
  <speed>0.0</speed>
  <fix>3d</fix>
</trkpt>
<trkpt lat="40.0713749" lon="-105.229789">
  <ele>1583.0</ele>
  <time>2026-08-28T17:50:39Z</time>
  <course>247.84</course>
  <speed>0.0316227766016838</speed>
  <fix>3d</fix>
</trkpt>
<trkpt lat="40.0713749" lon="-105.229789">
  <ele>1583.0</ele>
  <time>2026-08-28T17:50:39Z</time>
  <course>0.0</course>
  <speed>0.0</speed>
  <fix>3d</fix>
</trkpt>
<trkpt lat="40.0713749" lon="-105.229789">
  <ele>1583.0</ele>
  <time>2026-08-28T17:50:39Z</time>
  <course>247.83</course>
  <speed>0.0316227766016838</speed>
  <fix>3d</fix>
</trkpt>
<trkpt lat="40.0713749" lon="-105.229789">
  <ele>1583.0</ele>
  <time>2026-08-28T17:50:39Z</time>
  <course>0.0</course>
  <speed>0.0</speed>
  <fix>3d</fix>
</trkpt>
<trkpt lat="40.0713749" lon="-105.229789">
  <ele>1583.0</ele>
  <time>2026-08-28T17:50:39Z</time>
  <course>247.83</course>
  <speed>0.0316227766016838</speed>
  <fix>3d</fix>
</trkpt>
<trkpt lat="40.0713749" lon="-105.229789">
  <ele>1583.0</ele>
  <time>2026-08-28T17:50:39Z</time>
  <course>0.0</course>
  <speed>0.0</speed>
  <fix>3d</fix>
</trkpt>
<trkpt lat="40.0713749" lon="-105.229789">
  <ele>1583.0</ele>
  <time>2026-08-28T17:50:39Z</time>
  <course>247.83</course>
  <speed>0.0316227766016838</speed>
  <fix>3d</fix>
</trkpt>
<trkpt lat="40.0713749" lon="-105.229789">
  <ele>1583.0</ele>
  <time>2026-08-28T17:50:39Z</time>
  <course>0.0</course>
  <speed>0.0</speed>
  <fix>3d</fix>
</trkpt>
<trkpt lat="40.0713749" lon="-105.229789">
  <ele>1583.0</ele>
  <time>2026-08-28T17:50:39Z</time>
  <course>247.82</course>
  <speed>0.0316227766016838</speed>
  <fix>3d</fix>
</trkpt>
<trkpt lat="40.0713749" lon="-105.229789">
  <ele>1583.0</ele>
  <time>2026-08-28T17:50:39Z</time>
  <course>0.0</course>
  <speed>0.0</speed>
  <fix>3d</fix>
</trkpt>
<trkpt lat="40.0713749" lon="-105.229789">
  <ele>1583.0</ele>
  <time>2026-08-28T17:50:39Z</time>
  <course>247.82</course>
  <speed>0.0316227766016838</speed>
  <fix>3d</fix>
</trkpt>
<trkpt lat="40.0713749" lon="-105.229789">
  <ele>1583.0</ele>
  <time>2026-08-28T17:50:39Z</time>
  <course>0.0</course>
  <speed>0.0</speed>
  <fix>3d</fix>
</trkpt>
<trkpt lat="40.0713749" lon="-105.229789">
  <ele>1583.0</ele>
  <time>2026-08-28T17:50:39Z</time>
  <course>247.82</course>
  <speed>0.0316227766016838</speed>
  <fix>3d</fix>
</trkpt>
<trkpt lat="40.0713749" lon="-105.229789">
  <ele>1583.0</ele>
  <time>2026-08-28T17:50:39Z</time>
  <course>0.0</course>
  <speed>0.0</speed>
  <fix>3d</fix>
</trkpt>
<trkpt lat="40.0713749" lon="-105.229789">
  <ele>1583.0</ele>
  <time>2026-08-28T17:50:39Z</time>
  <course>247.81</course>
  <speed>0.0316227766016838</speed>
  <fix>3d</fix>
</trkpt>
<trkpt lat="40.0713749" lon="-105.229789">
  <ele>1583.0</ele>
  <time>2026-08-28T17:50:39Z</time>
  <course>0.0</course>
  <speed>0.0</speed>
  <fix>3d</fix>
</trkpt>
<trkpt lat="40.0713749" lon="-105.229789">
  <ele>1583.0</ele>
  <time>2026-08-28T17:50:39Z</time>
  <course>247.81</course>
  <speed>0.0316227766016838</speed>
  <fix>3d</fix>
</trkpt>
<trkpt lat="40.0713749" lon="-105.229789">
  <ele>1583.0</ele>
  <time>2026-08-28T17:50:39Z</time>
  <course>0.0</course>
  <speed>0.0</speed>
  <fix>3d</fix>
</trkpt>
<trkpt lat="40.0713749" lon="-105.229789">
  <ele>1583.0</ele>
  <time>2026-08-28T17:50:39Z</time>
  <course>247.8</course>
  <speed>0.0316227766016838</speed>
  <fix>3d</fix>
</trkpt>
<trkpt lat="40.0713749" lon="-105.229789">
  <ele>1583.0</ele>
  <time>2026-08-28T17:50:39Z</time>
  <course>0.0</course>
  <speed>0.0</speed>
  <fix>3d</fix>
</trkpt>
<trkpt lat="40.0713749" lon="-105.229789">
  <ele>1583.0</ele>
  <time>2026-08-28T17:50:39Z</time>
  <course>247.8</course>
  <speed>0.0316227766016838</speed>
  <fix>3d</fix>
</trkpt>
<trkpt lat="40.0713749" lon="-105.229789">
  <ele>1583.0</ele>
  <time>2026-08-28T17:50:39Z</time>
  <course>0.0</course>
  <speed>0.0</speed>
  <fix>3d</fix>
</trkpt>
<trkpt lat="40.0713749" lon="-105.229789">
  <ele>1583.0</ele>
  <time>2026-08-28T17:50:39Z</time>
  <course>247.8</course>
  <speed>0.0316227766016838</speed>
  <fix>3d</fix>
</trkpt>
<trkpt lat="40.0713749" lon="-105.229789">
  <ele>1583.0</ele>
  <time>2026-08-28T17:50:39Z</time>
  <course>0.0</course>
  <speed>0.0</speed>
  <fix>3d</fix>
</trkpt>
<trkpt lat="40.0713749" lon="-105.229789">
  <ele>1583.0</ele>
  <time>2026-08-28T17:50:39Z</time>
  <course>247.79</course>
  <speed>0.0316227766016838</speed>
  <fix>3d</fix>
</trkpt>
<trkpt lat="40.0713749" lon="-105.229789">
  <ele>1583.0</ele>
  <time>2026-08-28T17:50:39Z</time>
  <course>0.0</course>
  <speed>0.0</speed>
  <fix>3d</fix>
</trkpt>
<trkpt lat="40.0713749" lon="-105.229789">
  <ele>1583.0</ele>
  <time>2026-08-28T17:50:39Z</time>
  <course>247.79</course>
  <speed>0.0316227766016838</speed>
  <fix>3d</fix>
</trkpt>
<trkpt lat="40.0713749" lon="-105.229789">
  <ele>1583.0</ele>
  <time>2026-08-28T17:50:39Z</time>
  <course>0.0</course>
  <speed>0.0</speed>
  <fix>3d</fix>
</trkpt>
<trkpt lat="40.0713749" lon="-105.229789">
  <ele>1583.0</ele>
  <time>2026-08-28T17:50:39Z</time>
  <course>247.79</course>
  <speed>0.0316227766016838</speed>
  <fix>3d</fix>
</trkpt>
<trkpt lat="40.0713749" lon="-105.229789">
  <ele>1583.0</ele>
  <time>2026-08-28T17:50:39Z</time>
  <course>0.0</course>
  <speed>0.0</speed>
  <fix>3d</fix>
</trkpt>
<trkpt lat="40.0713749" lon="-105.229789">
  <ele>1583.0</ele>
  <time>2026-08-28T17:50:39Z</time>
  <course>247.78</course>
  <speed>0.0316227766016838</speed>
  <fix>3d</fix>
</trkpt>
<trkpt lat="40.0713749" lon="-105.229789">
  <ele>1583.0</ele>
  <time>2026-08-28T17:50:39Z</time>
  <course>0.0</course>
  <speed>0.0</speed>
  <fix>3d</fix>
</trkpt>
<trkpt lat="40.0713749" lon="-105.229789">
  <ele>1583.0</ele>
  <time>2026-08-28T17:50:39Z</time>
  <course>247.78</course>
  <speed>0.0316227766016838</speed>
  <fix>3d</fix>
</trkpt>
<trkpt lat="40.0713749" lon="-105.229789">
  <ele>1583.0</ele>
  <time>2026-08-28T17:50:39Z</time>
  <course>0.0</course>
  <speed>0.0</speed>
  <fix>3d</fix>
</trkpt>
<trkpt lat="40.0713749" lon="-105.229789">
  <ele>1583.0</ele>
  <time>2026-08-28T17:50:39Z</time>
  <course>247.78</course>
  <speed>0.0316227766016838</speed>
  <fix>3d</fix>
</trkpt>
<trkpt lat="40.0713749" lon="-105.229789">
  <ele>1583.0</ele>
  <time>2026-08-28T17:50:39Z</time>
  <course>0.0</course>
  <speed>0.0</speed>
  <fix>3d</fix>
</trkpt>
<trkpt lat="40.0713749" lon="-105.229789">
  <ele>1583.0</ele>
  <time>2026-08-28T17:50:39Z</time>
  <course>247.77</course>
  <speed>0.0316227766016838</speed>
  <fix>3d</fix>
</trkpt>
<trkpt lat="40.0713749" lon="-105.229789">
  <ele>1583.0</ele>
  <time>2026-08-28T17:50:39Z</time>
  <course>0.0</course>
  <speed>0.0</speed>
  <fix>3d</fix>
</trkpt>
<trkpt lat="40.0713749" lon="-105.229789">
  <ele>1583.0</ele>
  <time>2026-08-28T17:50:39Z</time>
  <course>247.77</course>
  <speed>0.0316227766016838</speed>
  <fix>3d</fix>
</trkpt>
<trkpt lat="40.0713749" lon="-105.229789">
  <ele>1583.0</ele>
  <time>2026-08-28T17:50:39Z</time>
  <course>0.0</course>
  <speed>0.0</speed>
  <fix>3d</fix>
</trkpt>
<trkpt lat="40.0713749" lon="-105.229789">
  <ele>1583.0</ele>
  <time>2026-08-28T17:50:39Z</time>
  <course>247.76</course>
  <speed>0.0316227766016838</speed>
  <fix>3d</fix>
</trkpt>
<trkpt lat="40.0713749" lon="-105.229789">
  <ele>1583.0</ele>
  <time>2026-08-28T17:50:39Z</time>
  <course>0.0</course>
  <speed>0.0</speed>
  <fix>3d</fix>
</trkpt>
<trkpt lat="40.0713749" lon="-105.229789">
  <ele>1583.0</ele>
  <time>2026-08-28T17:50:39Z</time>
  <course>247.76</course>
  <speed>0.0316227766016838</speed>
  <fix>3d</fix>
</trkpt>
<trkpt lat="40.0713749" lon="-105.229789">
  <ele>1583.0</ele>
  <time>2026-08-28T17:50:39Z</time>
  <course>0.0</course>
  <speed>0.0</speed>
  <fix>3d</fix>
</trkpt>
<trkpt lat="40.0713749" lon="-105.229789">
  <ele>1583.0</ele>
  <time>2026-08-28T17:50:39Z</time>
  <course>247.76</course>
  <speed>0.0316227766016838</speed>
  <fix>3d</fix>
</trkpt>
<trkpt lat="40.0713749" lon="-105.229789">
  <ele>1583.0</ele>
  <time>2026-08-28T17:50:39Z</time>
  <course>0.0</course>
  <speed>0.0</speed>
  <fix>3d</fix>
</trkpt>
<trkpt lat="40.0713749" lon="-105.229789">
  <ele>1583.0</ele>
  <time>2026-08-28T17:50:39Z</time>
  <course>247.75</course>
  <speed>0.0316227766016838</speed>
  <fix>3d</fix>
</trkpt>
<trkpt lat="40.0713749" lon="-105.229789">
  <ele>1583.0</ele>
  <time>2026-08-28T17:50:39Z</time>
  <course>0.0</course>
  <speed>0.0</speed>
  <fix>3d</fix>
</trkpt>
<trkpt lat="40.0713749" lon="-105.229789">
  <ele>1583.0</ele>
  <time>2026-08-28T17:50:39Z</time>
  <course>247.75</course>
  <speed>0.0316227766016838</speed>
  <fix>3d</fix>
</trkpt>
<trkpt lat="40.0713749" lon="-105.229789">
  <ele>1583.0</ele>
  <time>2026-08-28T17:50:39Z</time>
  <course>0.0</course>
  <speed>0.0</speed>
  <fix>3d</fix>
</trkpt>
<trkpt lat="40.0713749" lon="-105.229789">
  <ele>1583.0</ele>
  <time>2026-08-28T17:50:39Z</time>
  <course>247.75</course>
  <speed>0.0316227766016838</speed>
  <fix>3d</fix>
</trkpt>
<trkpt lat="40.0713749" lon="-105.229789">
  <ele>1583.0</ele>
  <time>2026-08-28T17:50:39Z</time>
  <course>0.0</course>
  <speed>0.0</speed>
  <fix>3d</fix>
</trkpt>
<trkpt lat="40.0713749" lon="-105.229789">
  <ele>1583.0</ele>
  <time>2026-08-28T17:50:39Z</time>
  <course>247.74</course>
  <speed>0.0316227766016838</speed>
  <fix>3d</fix>
</trkpt>
<trkpt lat="40.0713749" lon="-105.229789">
  <ele>1583.0</ele>
  <time>2026-08-28T17:50:39Z</time>
  <course>0.0</course>
  <speed>0.0</speed>
  <fix>3d</fix>
</trkpt>
<trkpt lat="40.0713749" lon="-105.229789">
  <ele>1583.0</ele>
  <time>2026-08-28T17:50:39Z</time>
  <course>247.74</course>
  <speed>0.0316227766016838</speed>
  <fix>3d</fix>
</trkpt>
<trkpt lat="40.0713749" lon="-105.229789">
  <ele>1583.0</ele>
  <time>2026-08-28T17:50:39Z</time>
  <course>0.0</course>
  <speed>0.0</speed>
  <fix>3d</fix>
</trkpt>
<trkpt lat="40.0713749" lon="-105.229789">
  <ele>1583.0</ele>
  <time>2026-08-28T17:50:39Z</time>
  <course>247.74</course>
  <speed>0.0316227766016838</speed>
  <fix>3d</fix>
</trkpt>
<trkpt lat="40.0713749" lon="-105.229789">
  <ele>1583.0</ele>
  <time>2026-08-28T17:50:39Z</time>
  <course>0.0</course>
  <speed>0.0</speed>
  <fix>3d</fix>
</trkpt>
<trkpt lat="40.0713749" lon="-105.229789">
  <ele>1583.0</ele>
  <time>2026-08-28T17:50:39Z</time>
  <course>247.73</course>
  <speed>0.0316227766016838</speed>
  <fix>3d</fix>
</trkpt>
<trkpt lat="40.0713749" lon="-105.229789">
  <ele>1583.0</ele>
  <time>2026-08-28T17:50:39Z</time>
  <course>0.0</course>
  <speed>0.0</speed>
  <fix>3d</fix>
</trkpt>
<trkpt lat="40.0713749" lon="-105.229789">
  <ele>1583.0</ele>
  <time>2026-08-28T17:50:39Z</time>
  <course>247.73</course>
  <speed>0.0316227766016838</speed>
  <fix>3d</fix>
</trkpt>
<trkpt lat="40.0713749" lon="-105.229789">
  <ele>1583.0</ele>
  <time>2026-08-28T17:50:39Z</time>
  <course>0.0</course>
  <speed>0.0</speed>
  <fix>3d</fix>
</trkpt>
<trkpt lat="40.0713749" lon="-105.229789">
  <ele>1583.0</ele>
  <time>2026-08-28T17:50:39Z</time>
  <course>247.73</course>
  <speed>0.0316227766016838</speed>
  <fix>3d</fix>
</trkpt>
<trkpt lat="40.0713749" lon="-105.229789">
  <ele>1583.0</ele>
  <time>2026-08-28T17:50:39Z</time>
  <course>0.0</course>
  <speed>0.0</speed>
  <fix>3d</fix>
</trkpt>
<trkpt lat="40.0713749" lon="-105.229789">
  <ele>1583.0</ele>
  <time>2026-08-28T17:50:39Z</time>
  <course>247.72</course>
  <speed>0.0316227766016838</speed>
  <fix>3d</fix>
</trkpt>
<trkpt lat="40.0713749" lon="-105.229789">
  <ele>1583.0</ele>
  <time>2026-08-28T17:50:39Z</time>
  <course>0.0</course>
  <speed>0.0</speed>
  <fix>3d</fix>
</trkpt>
<trkpt lat="40.0713749" lon="-105.229789">
  <ele>1583.0</ele>
  <time>2026-08-28T17:50:39Z</time>
  <course>247.72</course>
  <speed>0.0316227766016838</speed>
  <fix>3d</fix>
</trkpt>
<trkpt lat="40.0713749" lon="-105.229789">
  <ele>1583.0</ele>
  <time>2026-08-28T17:50:39Z</time>
  <course>0.0</course>
  <speed>0.0</speed>
  <fix>3d</fix>
</trkpt>
<trkpt lat="40.0713749" lon="-105.229789">
  <ele>1583.0</ele>
  <time>2026-08-28T17:50:39Z</time>
  <course>247.72</course>
  <speed>0.0316227766016838</speed>
  <fix>3d</fix>
</trkpt>
<trkpt lat="40.0713749" lon="-105.229789">
  <ele>1583.0</ele>
  <time>2026-08-28T17:50:39Z</time>
  <course>0.0</course>
  <speed>0.0</speed>
  <fix>3d</fix>
</trkpt>
<trkpt lat="40.0713749" lon="-105.229789">
  <ele>1583.0</ele>
  <time>2026-08-28T17:50:39Z</time>
  <course>247.71</course>
  <speed>0.0316227766016838</speed>
  <fix>3d</fix>
</trkpt>
<trkpt lat="40.0713749" lon="-105.229789">
  <ele>1583.0</ele>
  <time>2026-08-28T17:50:39Z</time>
  <course>0.0</course>
  <speed>0.0</speed>
  <fix>3d</fix>
</trkpt>
<trkpt lat="40.0713749" lon="-105.229789">
  <ele>1583.0</ele>
  <time>2026-08-28T17:50:39Z</time>
  <course>247.71</course>
  <speed>0.0316227766016838</speed>
  <fix>3d</fix>
</trkpt>
<trkpt lat="40.0713749" lon="-105.229789">
  <ele>1583.0</ele>
  <time>2026-08-28T17:50:39Z</time>
  <course>0.0</course>
  <speed>0.0</speed>
  <fix>3d</fix>
</trkpt>
<trkpt lat="40.0713749" lon="-105.229789">
  <ele>1583.0</ele>
  <time>2026-08-28T17:50:39Z</time>
  <course>247.71</course>
  <speed>0.0316227766016838</speed>
  <fix>3d</fix>
</trkpt>
<trkpt lat="40.0713749" lon="-105.229789">
  <ele>1583.0</ele>
  <time>2026-08-28T17:50:39Z</time>
  <course>0.0</course>
  <speed>0.0</speed>
  <fix>3d</fix>
</trkpt>
<trkpt lat="40.0713749" lon="-105.229789">
  <ele>1583.0</ele>
  <time>2026-08-28T17:50:39Z</time>
  <course>247.7</course>
  <speed>0.0316227766016838</speed>
  <fix>3d</fix>
</trkpt>
<trkpt lat="40.0713749" lon="-105.229789">
  <ele>1583.0</ele>
  <time>2026-08-28T17:50:39Z</time>
  <course>0.0</course>
  <speed>0.0</speed>
  <fix>3d</fix>
</trkpt>
<trkpt lat="40.0713749" lon="-105.229789">
  <ele>1583.0</ele>
  <time>2026-08-28T17:50:39Z</time>
  <course>247.7</course>
  <speed>0.0316227766016838</speed>
  <fix>3d</fix>
</trkpt>
<trkpt lat="40.0713749" lon="-105.229789">
  <ele>1583.0</ele>
  <time>2026-08-28T17:50:39Z</time>
  <course>0.0</course>
  <speed>0.0</speed>
  <fix>3d</fix>
</trkpt>
<trkpt lat="40.0713749" lon="-105.229789">
  <ele>1583.0</ele>
  <time>2026-08-28T17:50:39Z</time>
  <course>247.7</course>
  <speed>0.0316227766016838</speed>
  <fix>3d</fix>
</trkpt>
<trkpt lat="40.0713749" lon="-105.229789">
  <ele>1583.0</ele>
  <time>2026-08-28T17:50:39Z</time>
  <course>0.0</course>
  <speed>0.0</speed>
  <fix>3d</fix>
</trkpt>
<trkpt lat="40.0713749" lon="-105.229789">
  <ele>1583.0</ele>
  <time>2026-08-28T17:50:39Z</time>
  <course>247.69</course>
  <speed>0.0316227766016838</speed>
  <fix>3d</fix>
</trkpt>
<trkpt lat="40.0713749" lon="-105.229789">
  <ele>1583.0</ele>
  <time>2026-08-28T17:50:39Z</time>
  <course>0.0</course>
  <speed>0.0</speed>
  <fix>3d</fix>
</trkpt>
<trkpt lat="40.0713749" lon="-105.229789">
  <ele>1583.0</ele>
  <time>2026-08-28T17:50:39Z</time>
  <course>247.69</course>
  <speed>0.0316227766016838</speed>
  <fix>3d</fix>
</trkpt>
<trkpt lat="40.0713749" lon="-105.229789">
  <ele>1583.0</ele>
  <time>2026-08-28T17:50:39Z</time>
  <course>0.0</course>
  <speed>0.0</speed>
  <fix>3d</fix>
</trkpt>
<trkpt lat="40.0713749" lon="-105.229789">
  <ele>1583.0</ele>
  <time>2026-08-28T17:50:39Z</time>
  <course>247.69</course>
  <speed>0.0316227766016838</speed>
  <fix>3d</fix>
</trkpt>
<trkpt lat="40.0713749" lon="-105.229789">
  <ele>1583.0</ele>
  <time>2026-08-28T17:50:39Z</time>
  <course>0.0</course>
  <speed>0.0</speed>
  <fix>3d</fix>
</trkpt>
<trkpt lat="40.0713749" lon="-105.229789">
  <ele>1583.0</ele>
  <time>2026-08-28T17:50:39Z</time>
  <course>247.68</course>
  <speed>0.0316227766016838</speed>
  <fix>3d</fix>
</trkpt>
<trkpt lat="40.0713749" lon="-105.229789">
  <ele>1583.0</ele>
  <time>2026-08-28T17:50:39Z</time>
  <course>0.0</course>
  <speed>0.0</speed>
  <fix>3d</fix>
</trkpt>
<trkpt lat="40.0713749" lon="-105.229789">
  <ele>1583.0</ele>
  <time>2026-08-28T17:50:39Z</time>
  <course>247.68</course>
  <speed>0.0316227766016838</speed>
  <fix>3d</fix>
</trkpt>
<trkpt lat="40.0713749" lon="-105.229789">
  <ele>1583.0</ele>
  <time>2026-08-28T17:50:39Z</time>
  <course>0.0</course>
  <speed>0.0</speed>
  <fix>3d</fix>
</trkpt>
<trkpt lat="40.0713749" lon="-105.229789">
  <ele>1583.0</ele>
  <time>2026-08-28T17:50:39Z</time>
  <course>247.68</course>
  <speed>0.0316227766016838</speed>
  <fix>3d</fix>
</trkpt>
<trkpt lat="40.0713749" lon="-105.229789">
  <ele>1583.0</ele>
  <time>2026-08-28T17:50:39Z</time>
  <course>0.0</course>
  <speed>0.0</speed>
  <fix>3d</fix>
</trkpt>
<trkpt lat="40.0713749" lon="-105.229789">
  <ele>1583.0</ele>
  <time>2026-08-28T17:50:39Z</time>
  <course>247.67</course>
  <speed>0.0316227766016838</speed>
  <fix>3d</fix>
</trkpt>
<trkpt lat="40.0713749" lon="-105.229789">
  <ele>1583.0</ele>
  <time>2026-08-28T17:50:39Z</time>
  <course>0.0</course>
  <speed>0.0</speed>
  <fix>3d</fix>
</trkpt>
<trkpt lat="40.0713749" lon="-105.229789">
  <ele>1583.0</ele>
  <time>2026-08-28T17:50:39Z</time>
  <course>247.67</course>
  <speed>0.0316227766016838</speed>
  <fix>3d</fix>
</trkpt>
<trkpt lat="40.0713749" lon="-105.229789">
  <ele>1583.0</ele>
  <time>2026-08-28T17:50:39Z</time>
  <course>0.0</course>
  <speed>0.0</speed>
  <fix>3d</fix>
</trkpt>
<trkpt lat="40.0713749" lon="-105.229789">
  <ele>1583.0</ele>
  <time>2026-08-28T17:50:39Z</time>
  <course>247.67</course>
  <speed>0.0316227766016838</speed>
  <fix>3d</fix>
</trkpt>
<trkpt lat="40.0713749" lon="-105.229789">
  <ele>1583.0</ele>
  <time>2026-08-28T17:50:39Z</time>
  <course>0.0</course>
  <speed>0.0</speed>
  <fix>3d</fix>
</trkpt>
<trkpt lat="40.0713749" lon="-105.229789">
  <ele>1583.0</ele>
  <time>2026-08-28T17:50:39Z</time>
  <course>247.66</course>
  <speed>0.0316227766016838</speed>
  <fix>3d</fix>
</trkpt>
<trkpt lat="40.0713749" lon="-105.229789">
  <ele>1583.0</ele>
  <time>2026-08-28T17:50:39Z</time>
  <course>0.0</course>
  <speed>0.0</speed>
  <fix>3d</fix>
</trkpt>
<trkpt lat="40.0713749" lon="-105.229789">
  <ele>1583.0</ele>
  <time>2026-08-28T17:50:39Z</time>
  <course>247.66</course>
  <speed>0.0316227766016838</speed>
  <fix>3d</fix>
</trkpt>
<trkpt lat="40.0713749" lon="-105.229789">
  <ele>1583.0</ele>
  <time>2026-08-28T17:50:39Z</time>
  <course>0.0</course>
  <speed>0.0</speed>
  <fix>3d</fix>
</trkpt>
<trkpt lat="40.0713749" lon="-105.229789">
  <ele>1583.0</ele>
  <time>2026-08-28T17:50:39Z</time>
  <course>247.66</course>
  <speed>0.0316227766016838</speed>
  <fix>3d</fix>
</trkpt>
<trkpt lat="40.0713749" lon="-105.229789">
  <ele>1583.0</ele>
  <time>2026-08-28T17:50:39Z</time>
  <course>0.0</course>
  <speed>0.0</speed>
  <fix>3d</fix>
</trkpt>
<trkpt lat="40.0713749" lon="-105.229789">
  <ele>1583.0</ele>
  <time>2026-08-28T17:50:39Z</time>
  <course>247.65</course>
  <speed>0.0316227766016838</speed>
  <fix>3d</fix>
</trkpt>
<trkpt lat="40.0713749" lon="-105.229789">
  <ele>1583.0</ele>
  <time>2026-08-28T17:50:39Z</time>
  <course>0.0</course>
  <speed>0.0</speed>
  <fix>3d</fix>
</trkpt>
<trkpt lat="40.0713749" lon="-105.229789">
  <ele>1583.0</ele>
  <time>2026-08-28T17:50:39Z</time>
  <course>247.65</course>
  <speed>0.0316227766016838</speed>
  <fix>3d</fix>
</trkpt>
<trkpt lat="40.0713749" lon="-105.229789">
  <ele>1583.0</ele>
  <time>2026-08-28T17:50:39Z</time>
  <course>0.0</course>
  <speed>0.0</speed>
  <fix>3d</fix>
</trkpt>
<trkpt lat="40.0713749" lon="-105.229789">
  <ele>1583.0</ele>
  <time>2026-08-28T17:50:39Z</time>
  <course>247.65</course>
  <speed>0.0316227766016838</speed>
  <fix>3d</fix>
</trkpt>
<trkpt lat="40.0713749" lon="-105.229789">
  <ele>1583.0</ele>
  <time>2026-08-28T17:50:39Z</time>
  <course>0.0</course>
  <speed>0.0</speed>
  <fix>3d</fix>
</trkpt>
<trkpt lat="40.0713749" lon="-105.229789">
  <ele>1583.0</ele>
  <time>2026-08-28T17:50:39Z</time>
  <course>247.64</course>
  <speed>0.0316227766016838</speed>
  <fix>3d</fix>
</trkpt>
<trkpt lat="40.0713749" lon="-105.229789">
  <ele>1583.0</ele>
  <time>2026-08-28T17:50:39Z</time>
  <course>0.0</course>
  <speed>0.0</speed>
  <fix>3d</fix>
</trkpt>
<trkpt lat="40.0713749" lon="-105.229789">
  <ele>1583.0</ele>
  <time>2026-08-28T17:50:39Z</time>
  <course>247.64</course>
  <speed>0.0316227766016838</speed>
  <fix>3d</fix>
</trkpt>
<trkpt lat="40.0713749" lon="-105.229789">
  <ele>1583.0</ele>
  <time>2026-08-28T17:50:39Z</time>
  <course>0.0</course>
  <speed>0.0</speed>
  <fix>3d</fix>
</trkpt>
<trkpt lat="40.0713749" lon="-105.229789">
  <ele>1583.0</ele>
  <time>2026-08-28T17:50:39Z</time>
  <course>247.64</course>
  <speed>0.0316227766016838</speed>
  <fix>3d</fix>
</trkpt>
<trkpt lat="40.0713749" lon="-105.229789">
  <ele>1583.0</ele>
  <time>2026-08-28T17:50:39Z</time>
  <course>0.0</course>
  <speed>0.0</speed>
  <fix>3d</fix>
</trkpt>
<trkpt lat="40.0713749" lon="-105.229789">
  <ele>1583.0</ele>
  <time>2026-08-28T17:50:39Z</time>
  <course>247.64</course>
  <speed>0.0316227766016838</speed>
  <fix>3d</fix>
</trkpt>
<trkpt lat="40.0713749" lon="-105.229789">
  <ele>1583.0</ele>
  <time>2026-08-28T17:50:39Z</time>
  <course>0.0</course>
  <speed>0.0</speed>
  <fix>3d</fix>
</trkpt>
<trkpt lat="40.0713749" lon="-105.229789">
  <ele>1583.0</ele>
  <time>2026-08-28T17:50:39Z</time>
  <course>247.63</course>
  <speed>0.0316227766016838</speed>
  <fix>3d</fix>
</trkpt>
<trkpt lat="40.0713749" lon="-105.229789">
  <ele>1583.0</ele>
  <time>2026-08-28T17:50:39Z</time>
  <course>0.0</course>
  <speed>0.0</speed>
  <fix>3d</fix>
</trkpt>
<trkpt lat="40.0713749" lon="-105.229789">
  <ele>1583.0</ele>
  <time>2026-08-28T17:50:39Z</time>
  <course>247.63</course>
  <speed>0.0316227766016838</speed>
  <fix>3d</fix>
</trkpt>
<trkpt lat="40.0713749" lon="-105.229789">
  <ele>1583.0</ele>
  <time>2026-08-28T17:50:39Z</time>
  <course>0.0</course>
  <speed>0.0</speed>
  <fix>3d</fix>
</trkpt>
<trkpt lat="40.0713749" lon="-105.229789">
  <ele>1583.0</ele>
  <time>2026-08-28T17:50:39Z</time>
  <course>247.63</course>
  <speed>0.0316227766016838</speed>
  <fix>3d</fix>
</trkpt>
<trkpt lat="40.0713749" lon="-105.229789">
  <ele>1583.0</ele>
  <time>2026-08-28T17:50:39Z</time>
  <course>0.0</course>
  <speed>0.0</speed>
  <fix>3d</fix>
</trkpt>
<trkpt lat="40.0713749" lon="-105.229789">
  <ele>1583.0</ele>
  <time>2026-08-28T17:50:39Z</time>
  <course>247.62</course>
  <speed>0.0316227766016838</speed>
  <fix>3d</fix>
</trkpt>
<trkpt lat="40.0713749" lon="-105.229789">
  <ele>1583.0</ele>
  <time>2026-08-28T17:50:39Z</time>
  <course>0.0</course>
  <speed>0.0</speed>
  <fix>3d</fix>
</trkpt>
<trkpt lat="40.0713749" lon="-105.229789">
  <ele>1583.0</ele>
  <time>2026-08-28T17:50:39Z</time>
  <course>247.62</course>
  <speed>0.0316227766016838</speed>
  <fix>3d</fix>
</trkpt>
<trkpt lat="40.0713749" lon="-105.229789">
  <ele>1583.0</ele>
  <time>2026-08-28T17:50:39Z</time>
  <course>0.0</course>
  <speed>0.0</speed>
  <fix>3d</fix>
</trkpt>
<trkpt lat="40.0713749" lon="-105.229789">
  <ele>1583.0</ele>
  <time>2026-08-28T17:50:39Z</time>
  <course>247.62</course>
  <speed>0.0316227766016838</speed>
  <fix>3d</fix>
</trkpt>
<trkpt lat="40.0713749" lon="-105.229789">
  <ele>1583.0</ele>
  <time>2026-08-28T17:50:39Z</time>
  <course>0.0</course>
  <speed>0.0</speed>
  <fix>3d</fix>
</trkpt>
<trkpt lat="40.0713749" lon="-105.229789">
  <ele>1583.0</ele>
  <time>2026-08-28T17:50:39Z</time>
  <course>247.62</course>
  <speed>0.0316227766016838</speed>
  <fix>3d</fix>
</trkpt>
<trkpt lat="40.0713749" lon="-105.229789">
  <ele>1583.0</ele>
  <time>2026-08-28T17:50:39Z</time>
  <course>0.0</course>
  <speed>0.0</speed>
  <fix>3d</fix>
</trkpt>
<trkpt lat="40.0713749" lon="-105.229789">
  <ele>1583.0</ele>
  <time>2026-08-28T17:50:39Z</time>
  <course>247.61</course>
  <speed>0.0316227766016838</speed>
  <fix>3d</fix>
</trkpt>
<trkpt lat="40.0713749" lon="-105.229789">
  <ele>1583.0</ele>
  <time>2026-08-28T17:50:39Z</time>
  <course>0.0</course>
  <speed>0.0</speed>
  <fix>3d</fix>
</trkpt>
<trkpt lat="40.0713749" lon="-105.229789">
  <ele>1583.0</ele>
  <time>2026-08-28T17:50:39Z</time>
  <course>247.61</course>
  <speed>0.0316227766016838</speed>
  <fix>3d</fix>
</trkpt>
<trkpt lat="40.0713749" lon="-105.229789">
  <ele>1583.0</ele>
  <time>2026-08-28T17:50:39Z</time>
  <course>0.0</course>
  <speed>0.0</speed>
  <fix>3d</fix>
</trkpt>
<trkpt lat="40.0713749" lon="-105.229789">
  <ele>1583.0</ele>
  <time>2026-08-28T17:50:39Z</time>
  <course>247.61</course>
  <speed>0.0316227766016838</speed>
  <fix>3d</fix>
</trkpt>
<trkpt lat="40.0713749" lon="-105.229789">
  <ele>1583.0</ele>
  <time>2026-08-28T17:50:39Z</time>
  <course>0.0</course>
  <speed>0.0</speed>
  <fix>3d</fix>
</trkpt>
<trkpt lat="40.0713749" lon="-105.229789">
  <ele>1583.0</ele>
  <time>2026-08-28T17:50:39Z</time>
  <course>247.6</course>
  <speed>0.0316227766016838</speed>
  <fix>3d</fix>
</trkpt>
<trkpt lat="40.0713749" lon="-105.229789">
  <ele>1583.0</ele>
  <time>2026-08-28T17:50:39Z</time>
  <course>0.0</course>
  <speed>0.0</speed>
  <fix>3d</fix>
</trkpt>
<trkpt lat="40.0713749" lon="-105.229789">
  <ele>1583.0</ele>
  <time>2026-08-28T17:50:39Z</time>
  <course>247.6</course>
  <speed>0.0316227766016838</speed>
  <fix>3d</fix>
</trkpt>
<trkpt lat="40.0713749" lon="-105.229789">
  <ele>1583.0</ele>
  <time>2026-08-28T17:50:39Z</time>
  <course>0.0</course>
  <speed>0.0</speed>
  <fix>3d</fix>
</trkpt>
<trkpt lat="40.0713749" lon="-105.229789">
  <ele>1583.0</ele>
  <time>2026-08-28T17:50:39Z</time>
  <course>247.6</course>
  <speed>0.0316227766016838</speed>
  <fix>3d</fix>
</trkpt>
<trkpt lat="40.0713749" lon="-105.229789">
  <ele>1583.0</ele>
  <time>2026-08-28T17:50:39Z</time>
  <course>0.0</course>
  <speed>0.0</speed>
  <fix>3d</fix>
</trkpt>
<trkpt lat="40.0713749" lon="-105.229789">
  <ele>1583.0</ele>
  <time>2026-08-28T17:50:39Z</time>
  <course>247.6</course>
  <speed>0.0316227766016838</speed>
  <fix>3d</fix>
</trkpt>
<trkpt lat="40.0713749" lon="-105.229789">
  <ele>1583.0</ele>
  <time>2026-08-28T17:50:39Z</time>
  <course>0.0</course>
  <speed>0.0</speed>
  <fix>3d</fix>
</trkpt>
<trkpt lat="40.0713749" lon="-105.229789">
  <ele>1583.0</ele>
  <time>2026-08-28T17:50:39Z</time>
  <course>247.59</course>
  <speed>0.0316227766016838</speed>
  <fix>3d</fix>
</trkpt>
<trkpt lat="40.0713749" lon="-105.229789">
  <ele>1583.0</ele>
  <time>2026-08-28T17:50:39Z</time>
  <course>0.0</course>
  <speed>0.0</speed>
  <fix>3d</fix>
</trkpt>
<trkpt lat="40.0713749" lon="-105.229789">
  <ele>1582.92</ele>
  <time>2026-08-28T17:50:39Z</time>
  <course>247.59</course>
  <speed>0.0</speed>
  <fix>3d</fix>
</trkpt>
<trkpt lat="40.0713749" lon="-105.229789">
  <ele>1583.0</ele>
  <time>2026-08-28T17:50:39Z</time>
  <course>0.0</course>
  <speed>0.0</speed>
  <fix>3d</fix>
</trkpt>
<trkpt lat="40.0713749" lon="-105.229789">
  <ele>1582.92</ele>
  <time>2026-08-28T17:50:39Z</time>
  <course>247.59</course>
  <speed>0.0</speed>
  <fix>3d</fix>
</trkpt>
<trkpt lat="40.0713749" lon="-105.229789">
  <ele>1583.0</ele>
  <time>2026-08-28T17:50:39Z</time>
  <course>0.0</course>
  <speed>0.0</speed>
  <fix>3d</fix>
</trkpt>
<trkpt lat="40.0713749" lon="-105.229789">
  <ele>1582.91</ele>
  <time>2026-08-28T17:50:39Z</time>
  <course>247.58</course>
  <speed>0.0</speed>
  <fix>3d</fix>
</trkpt>
<trkpt lat="40.0713749" lon="-105.229789">
  <ele>1583.0</ele>
  <time>2026-08-28T17:50:39Z</time>
  <course>0.0</course>
  <speed>0.0</speed>
  <fix>3d</fix>
</trkpt>
<trkpt lat="40.0713749" lon="-105.229789">
  <ele>1582.91</ele>
  <time>2026-08-28T17:50:39Z</time>
  <course>247.58</course>
  <speed>0.0</speed>
  <fix>3d</fix>
</trkpt>
<trkpt lat="40.0713749" lon="-105.229789">
  <ele>1583.0</ele>
  <time>2026-08-28T17:50:39Z</time>
  <course>0.0</course>
  <speed>0.0</speed>
  <fix>3d</fix>
</trkpt>
<trkpt lat="40.0713749" lon="-105.229789">
  <ele>1582.9</ele>
  <time>2026-08-28T17:50:39Z</time>
  <course>247.58</course>
  <speed>0.0</speed>
  <fix>3d</fix>
</trkpt>
<trkpt lat="40.0713749" lon="-105.229789">
  <ele>1583.0</ele>
  <time>2026-08-28T17:50:39Z</time>
  <course>0.0</course>
  <speed>0.0</speed>
  <fix>3d</fix>
</trkpt>
<trkpt lat="40.0713749" lon="-105.229789">
  <ele>1582.9</ele>
  <time>2026-08-28T17:50:39Z</time>
  <course>247.58</course>
  <speed>0.0</speed>
  <fix>3d</fix>
</trkpt>
<trkpt lat="40.0713749" lon="-105.229789">
  <ele>1583.0</ele>
  <time>2026-08-28T17:50:39Z</time>
  <course>0.0</course>
  <speed>0.0</speed>
  <fix>3d</fix>
</trkpt>
<trkpt lat="40.0713749" lon="-105.229789">
  <ele>1582.9</ele>
  <time>2026-08-28T17:50:39Z</time>
  <course>247.57</course>
  <speed>0.0</speed>
  <fix>3d</fix>
</trkpt>
<trkpt lat="40.0713749" lon="-105.229789">
  <ele>1583.0</ele>
  <time>2026-08-28T17:50:39Z</time>
  <course>0.0</course>
  <speed>0.0</speed>
  <fix>3d</fix>
</trkpt>
<trkpt lat="40.0713749" lon="-105.229789">
  <ele>1582.9</ele>
  <time>2026-08-28T17:50:39Z</time>
  <course>247.57</course>
  <speed>0.0</speed>
  <fix>3d</fix>
</trkpt>
<trkpt lat="40.0713749" lon="-105.229789">
  <ele>1583.0</ele>
  <time>2026-08-28T17:50:39Z</time>
  <course>0.0</course>
  <speed>0.0</speed>
  <fix>3d</fix>
</trkpt>
<trkpt lat="40.0713749" lon="-105.229789">
  <ele>1582.9</ele>
  <time>2026-08-28T17:50:39Z</time>
  <course>247.57</course>
  <speed>0.0</speed>
  <fix>3d</fix>
</trkpt>
<trkpt lat="40.0713749" lon="-105.229789">
  <ele>1583.0</ele>
  <time>2026-08-28T17:50:39Z</time>
  <course>0.0</course>
  <speed>0.0</speed>
  <fix>3d</fix>
</trkpt>
<trkpt lat="40.0713749" lon="-105.229789">
  <ele>1582.9</ele>
  <time>2026-08-28T17:50:39Z</time>
  <course>247.57</course>
  <speed>0.01</speed>
  <fix>3d</fix>
</trkpt>
<trkpt lat="40.0713749" lon="-105.229789">
  <ele>1583.0</ele>
  <time>2026-08-28T17:50:39Z</time>
  <course>0.0</course>
  <speed>0.0</speed>
  <fix>3d</fix>
</trkpt>
<trkpt lat="40.0713749" lon="-105.229789">
  <ele>1582.9</ele>
  <time>2026-08-28T17:50:39Z</time>
  <course>247.56</course>
  <speed>0.01</speed>
  <fix>3d</fix>
</trkpt>
<trkpt lat="40.0713749" lon="-105.229789">
  <ele>1583.0</ele>
  <time>2026-08-28T17:50:39Z</time>
  <course>0.0</course>
  <speed>0.0</speed>
  <fix>3d</fix>
</trkpt>
<trkpt lat="40.0713749" lon="-105.229789">
  <ele>1582.91</ele>
  <time>2026-08-28T17:50:39Z</time>
  <course>247.56</course>
  <speed>0.01</speed>
  <fix>3d</fix>
</trkpt>
<trkpt lat="40.0713749" lon="-105.229789">
  <ele>1583.0</ele>
  <time>2026-08-28T17:50:39Z</time>
  <course>0.0</course>
  <speed>0.0</speed>
  <fix>3d</fix>
</trkpt>
<trkpt lat="40.0713749" lon="-105.229789">
  <ele>1582.91</ele>
  <time>2026-08-28T17:50:39Z</time>
  <course>247.56</course>
  <speed>0.01</speed>
  <fix>3d</fix>
</trkpt>
<trkpt lat="40.0713749" lon="-105.229789">
  <ele>1583.0</ele>
  <time>2026-08-28T17:50:39Z</time>
  <course>0.0</course>
  <speed>0.0</speed>
  <fix>3d</fix>
</trkpt>
<trkpt lat="40.0713749" lon="-105.229789">
  <ele>1582.92</ele>
  <time>2026-08-28T17:50:39Z</time>
  <course>247.56</course>
  <speed>0.01</speed>
  <fix>3d</fix>
</trkpt>
<trkpt lat="40.0713749" lon="-105.229789">
  <ele>1583.0</ele>
  <time>2026-08-28T17:50:39Z</time>
  <course>246.0</course>
  <speed>0.0</speed>
  <fix>3d</fix>
</trkpt>
<trkpt lat="40.0713749" lon="-105.229789">
  <ele>1582.92</ele>
  <time>2026-08-28T17:50:39Z</time>
  <course>247.57</course>
  <speed>0.01</speed>
  <fix>3d</fix>
</trkpt>
<trkpt lat="40.0713749" lon="-105.229789">
  <ele>1583.0</ele>
  <time>2026-08-28T17:50:39Z</time>
  <course>246.0</course>
  <speed>0.0</speed>
  <fix>3d</fix>
</trkpt>
<trkpt lat="40.0713749" lon="-105.229789">
  <ele>1582.92</ele>
  <time>2026-08-28T17:50:39Z</time>
  <course>247.54</course>
  <speed>0.01</speed>
  <fix>3d</fix>
</trkpt>
<trkpt lat="40.0713749" lon="-105.229789">
  <ele>1583.0</ele>
  <time>2026-08-28T17:50:39Z</time>
  <course>246.0</course>
  <speed>0.0</speed>
  <fix>3d</fix>
</trkpt>
<trkpt lat="40.0713749" lon="-105.229789">
  <ele>1582.93</ele>
  <time>2026-08-28T17:50:39Z</time>
  <course>247.46</course>
  <speed>0.02</speed>
  <fix>3d</fix>
</trkpt>
<trkpt lat="40.0713749" lon="-105.229789">
  <ele>1583.0</ele>
  <time>2026-08-28T17:50:39Z</time>
  <course>245.99</course>
  <speed>0.01</speed>
  <fix>3d</fix>
</trkpt>
<trkpt lat="40.0713749" lon="-105.229789">
  <ele>1582.93</ele>
  <time>2026-08-28T17:50:39Z</time>
  <course>247.32</course>
  <speed>0.03</speed>
  <fix>3d</fix>
</trkpt>
<trkpt lat="40.0713749" lon="-105.229789">
  <ele>1583.0</ele>
  <time>2026-08-28T17:50:39Z</time>
  <course>245.99</course>
  <speed>0.01</speed>
  <fix>3d</fix>
</trkpt>
<trkpt lat="40.0713749" lon="-105.2297891">
  <ele>1582.93</ele>
  <time>2026-08-28T17:50:39Z</time>
  <course>247.1</course>
  <speed>0.05</speed>
  <fix>3d</fix>
</trkpt>
<trkpt lat="40.0713749" lon="-105.229789">
  <ele>1583.0</ele>
  <time>2026-08-28T17:50:39Z</time>
  <course>245.83</course>
  <speed>0.03</speed>
  <fix>3d</fix>
</trkpt>
<trkpt lat="40.0713749" lon="-105.2297892">
  <ele>1582.93</ele>
  <time>2026-08-28T17:50:39Z</time>
  <course>246.77</course>
  <speed>0.07071067811865475</speed>
  <fix>3d</fix>
</trkpt>
<trkpt lat="40.0713749" lon="-105.229789">
  <ele>1583.0</ele>
  <time>2026-08-28T17:50:39Z</time>
  <course>245.83</course>
  <speed>0.03</speed>
  <fix>3d</fix>
</trkpt>
<trkpt lat="40.0713749" lon="-105.2297893">
  <ele>1582.94</ele>
  <time>2026-08-28T17:50:39Z</time>
  <course>246.31</course>
  <speed>0.09219544457292887</speed>
  <fix>3d</fix>
</trkpt>
<trkpt lat="40.0713749" lon="-105.2297891">
  <ele>1583.0</ele>
  <time>2026-08-28T17:50:39Z</time>
  <course>245.41</course>
  <speed>0.06</speed>
  <fix>3d</fix>
</trkpt>
<trkpt lat="40.0713749" lon="-105.2297894">
  <ele>1582.94</ele>
  <time>2026-08-28T17:50:39Z</time>
  <course>245.7</course>
  <speed>0.11401754250991379</speed>
  <fix>3d</fix>
</trkpt>
<trkpt lat="40.0713749" lon="-105.2297892">
  <ele>1583.0</ele>
  <time>2026-08-28T17:50:39Z</time>
  <course>244.57</course>
  <speed>0.11</speed>
  <fix>3d</fix>
</trkpt>
<trkpt lat="40.0713748" lon="-105.2297896">
  <ele>1582.94</ele>
  <time>2026-08-28T17:50:39Z</time>
  <course>244.92</course>
  <speed>0.14866068747318506</speed>
  <fix>3d</fix>
</trkpt>
<trkpt lat="40.0713749" lon="-105.2297892">
  <ele>1583.0</ele>
  <time>2026-08-28T17:50:39Z</time>
  <course>244.57</course>
  <speed>0.11</speed>
  <fix>3d</fix>
</trkpt>
<trkpt lat="40.0713747" lon="-105.2297897">
  <ele>1582.95</ele>
  <time>2026-08-28T17:50:39Z</time>
  <course>243.97</course>
  <speed>0.1708800749063506</speed>
  <fix>3d</fix>
</trkpt>
<trkpt lat="40.0713748" lon="-105.2297896">
  <ele>1583.0</ele>
  <time>2026-08-28T17:50:39Z</time>
  <course>243.15</course>
  <speed>0.16</speed>
  <fix>3d</fix>
</trkpt>
<trkpt lat="40.0713747" lon="-105.22979">
  <ele>1582.95</ele>
  <time>2026-08-28T17:50:39Z</time>
  <course>242.83</course>
  <speed>0.19697715603592209</speed>
  <fix>3d</fix>
</trkpt>
<trkpt lat="40.0713748" lon="-105.2297896">
  <ele>1583.0</ele>
  <time>2026-08-28T17:50:39Z</time>
  <course>243.15</course>
  <speed>0.16</speed>
  <fix>3d</fix>
</trkpt>
<trkpt lat="40.0713746" lon="-105.2297902">
  <ele>1582.95</ele>
  <time>2026-08-28T17:50:39Z</time>
  <course>241.48</course>
  <speed>0.23259406699226015</speed>
  <fix>3d</fix>
</trkpt>
<trkpt lat="40.0713746" lon="-105.22979">
  <ele>1583.0</ele>
  <time>2026-08-28T17:50:39Z</time>
  <course>241.02</course>
  <speed>0.22</speed>
  <fix>3d</fix>
</trkpt>
<trkpt lat="40.0713745" lon="-105.2297905">
  <ele>1582.96</ele>
  <time>2026-08-28T17:50:39Z</time>
  <course>239.92</course>
  <speed>0.25942243542145693</speed>
  <fix>3d</fix>
</trkpt>
<trkpt lat="40.0713746" lon="-105.22979">
  <ele>1583.0</ele>
  <time>2026-08-28T17:50:39Z</time>
  <course>241.02</course>
  <speed>0.22</speed>
  <fix>3d</fix>
</trkpt>
<trkpt lat="40.0713743" lon="-105.2297908">
  <ele>1582.96</ele>
  <time>2026-08-28T17:50:39Z</time>
  <course>238.14</course>
  <speed>0.28653097563788804</speed>
  <fix>3d</fix>
</trkpt>
<trkpt lat="40.0713744" lon="-105.2297904">
  <ele>1583.0</ele>
  <time>2026-08-28T17:50:39Z</time>
  <course>238.08</course>
  <speed>0.27</speed>
  <fix>3d</fix>
</trkpt>
<trkpt lat="40.0713741" lon="-105.2297911">
  <ele>1582.96</ele>
  <time>2026-08-28T17:50:39Z</time>
  <course>236.12</course>
  <speed>0.31906112267087633</speed>
  <fix>3d</fix>
</trkpt>
<trkpt lat="40.0713744" lon="-105.2297904">
  <ele>1583.0</ele>
  <time>2026-08-28T17:50:39Z</time>
  <course>238.08</course>
  <speed>0.27</speed>
  <fix>3d</fix>
</trkpt>
<trkpt lat="40.071374" lon="-105.2297914">
  <ele>1582.96</ele>
  <time>2026-08-28T17:50:39Z</time>
  <course>233.89</course>
  <speed>0.3522782990761707</speed>
  <fix>3d</fix>
</trkpt>
<trkpt lat="40.0713741" lon="-105.2297911">
  <ele>1583.0</ele>
  <time>2026-08-28T17:50:39Z</time>
  <course>234.29</course>
  <speed>0.33</speed>
  <fix>3d</fix>
</trkpt>
<trkpt lat="40.0713737" lon="-105.2297918">
  <ele>1582.96</ele>
  <time>2026-08-28T17:50:39Z</time>
  <course>231.48</course>
  <speed>0.378021163428716</speed>
  <fix>3d</fix>
</trkpt>
<trkpt lat="40.0713741" lon="-105.2297911">
  <ele>1583.0</ele>
  <time>2026-08-28T17:50:39Z</time>
  <course>234.29</course>
  <speed>0.33</speed>
  <fix>3d</fix>
</trkpt>
<trkpt lat="40.0713735" lon="-105.2297922">
  <ele>1582.96</ele>
  <time>2026-08-28T17:50:39Z</time>
  <course>228.88</course>
  <speed>0.41109609582188933</speed>
  <fix>3d</fix>
</trkpt>
<trkpt lat="40.0713736" lon="-105.2297917">
  <ele>1583.0</ele>
  <time>2026-08-28T17:50:39Z</time>
  <course>229.67</course>
  <speed>0.39</speed>
  <fix>3d</fix>
</trkpt>
<trkpt lat="40.0713732" lon="-105.2297926">
  <ele>1582.96</ele>
  <time>2026-08-28T17:50:39Z</time>
  <course>226.1</course>
  <speed>0.44553338819890925</speed>
  <fix>3d</fix>
</trkpt>
<trkpt lat="40.0713736" lon="-105.2297917">
  <ele>1583.0</ele>
  <time>2026-08-28T17:50:39Z</time>
  <course>229.67</course>
  <speed>0.39</speed>
  <fix>3d</fix>
</trkpt>
<trkpt lat="40.0713729" lon="-105.2297929">
  <ele>1582.95</ele>
  <time>2026-08-28T17:50:39Z</time>
  <course>223.11</course>
  <speed>0.474236228055175</speed>
  <fix>3d</fix>
</trkpt>
<trkpt lat="40.0713731" lon="-105.2297925">
  <ele>1583.0</ele>
  <time>2026-08-28T17:50:39Z</time>
  <course>224.27</course>
  <speed>0.45</speed>
  <fix>3d</fix>
</trkpt>
<trkpt lat="40.0713725" lon="-105.2297933">
  <ele>1582.95</ele>
  <time>2026-08-28T17:50:39Z</time>
  <course>219.93</course>
  <speed>0.5044799302251776</speed>
  <fix>3d</fix>
</trkpt>
<trkpt lat="40.0713731" lon="-105.2297925">
  <ele>1583.0</ele>
  <time>2026-08-28T17:50:39Z</time>
  <course>224.27</course>
  <speed>0.45</speed>
  <fix>3d</fix>
</trkpt>
<trkpt lat="40.0713721" lon="-105.2297937">
  <ele>1582.96</ele>
  <time>2026-08-28T17:50:39Z</time>
  <course>216.54</course>
  <speed>0.5382378656319156</speed>
  <fix>3d</fix>
</trkpt>
<trkpt lat="40.0713731" lon="-105.2297925">
  <ele>1583.0</ele>
  <time>2026-08-28T17:50:39Z</time>
  <course>224.27</course>
  <speed>0.45</speed>
  <fix>3d</fix>
</trkpt>
<trkpt lat="40.0713717" lon="-105.2297941">
  <ele>1582.95</ele>
  <time>2026-08-28T17:50:39Z</time>
  <course>212.93</course>
  <speed>0.574543296888929</speed>
  <fix>3d</fix>
</trkpt>
<trkpt lat="40.0713725" lon="-105.2297932">
  <ele>1583.0</ele>
  <time>2026-08-28T17:50:39Z</time>
  <course>218.06</course>
  <speed>0.51</speed>
  <fix>3d</fix>
</trkpt>
<trkpt lat="40.0713712" lon="-105.2297944">
  <ele>1582.95</ele>
  <time>2026-08-28T17:50:39Z</time>
  <course>209.15</course>
  <speed>0.6217716622683925</speed>
  <fix>3d</fix>
</trkpt>
<trkpt lat="40.0713725" lon="-105.2297932">
  <ele>1583.0</ele>
  <time>2026-08-28T17:50:39Z</time>
  <course>218.06</course>
  <speed>0.51</speed>
  <fix>3d</fix>
</trkpt>
<trkpt lat="40.0713706" lon="-105.2297947">
  <ele>1582.95</ele>
  <time>2026-08-28T17:50:39Z</time>
  <course>205.3</course>
  <speed>0.6539113089708727</speed>
  <fix>3d</fix>
</trkpt>
<trkpt lat="40.0713717" lon="-105.229794">
  <ele>1583.0</ele>
  <time>2026-08-28T17:50:39Z</time>
  <course>211.04</course>
  <speed>0.58</speed>
  <fix>3d</fix>
</trkpt>
<trkpt lat="40.0713701" lon="-105.229795">
  <ele>1582.95</ele>
  <time>2026-08-28T17:50:39Z</time>
  <course>201.41</course>
  <speed>0.6989277502002621</speed>
  <fix>3d</fix>
</trkpt>
<trkpt lat="40.0713717" lon="-105.229794">
  <ele>1583.0</ele>
  <time>2026-08-28T17:50:39Z</time>
  <course>211.04</course>
  <speed>0.58</speed>
  <fix>3d</fix>
</trkpt>
<trkpt lat="40.0713694" lon="-105.2297953">
  <ele>1582.95</ele>
  <time>2026-08-28T17:50:39Z</time>
  <course>197.53</course>
  <speed>0.7472616676907762</speed>
  <fix>3d</fix>
</trkpt>
<trkpt lat="40.0713707" lon="-105.2297946">
  <ele>1583.0</ele>
  <time>2026-08-28T17:50:39Z</time>
  <course>203.46</course>
  <speed>0.66</speed>
  <fix>3d</fix>
</trkpt>
<trkpt lat="40.0713687" lon="-105.2297955">
  <ele>1582.95</ele>
  <time>2026-08-28T17:50:39Z</time>
  <course>193.7</course>
  <speed>0.7962411694957753</speed>
  <fix>3d</fix>
</trkpt>
<trkpt lat="40.0713707" lon="-105.2297946">
  <ele>1583.0</ele>
  <time>2026-08-28T17:50:39Z</time>
  <course>203.46</course>
  <speed>0.66</speed>
  <fix>3d</fix>
</trkpt>
<trkpt lat="40.071368" lon="-105.2297956">
  <ele>1582.95</ele>
  <time>2026-08-28T17:50:39Z</time>
  <course>189.97</course>
  <speed>0.8570880934886448</speed>
  <fix>3d</fix>
</trkpt>
<trkpt lat="40.0713695" lon="-105.2297952">
  <ele>1583.0</ele>
  <time>2026-08-28T17:50:39Z</time>
  <course>195.73</course>
  <speed>0.75</speed>
  <fix>3d</fix>
</trkpt>
<trkpt lat="40.0713672" lon="-105.2297957">
  <ele>1582.96</ele>
  <time>2026-08-28T17:50:39Z</time>
  <course>186.45</course>
  <speed>0.9119758768739444</speed>
  <fix>3d</fix>
</trkpt>
<trkpt lat="40.0713681" lon="-105.2297956">
  <ele>1583.0</ele>
  <time>2026-08-28T17:50:39Z</time>
  <course>188.28</course>
  <speed>0.85</speed>
  <fix>3d</fix>
</trkpt>
<trkpt lat="40.0713663" lon="-105.2297958">
  <ele>1582.96</ele>
  <time>2026-08-28T17:50:39Z</time>
  <course>183.27</course>
  <speed>0.970051545022222</speed>
  <fix>3d</fix>
</trkpt>
<trkpt lat="40.0713681" lon="-105.2297956">
  <ele>1583.0</ele>
  <time>2026-08-28T17:50:39Z</time>
  <course>188.28</course>
  <speed>0.85</speed>
  <fix>3d</fix>
</trkpt>
<trkpt lat="40.0713654" lon="-105.2297958">
  <ele>1582.97</ele>
  <time>2026-08-28T17:50:39Z</time>
  <course>180.58</course>
  <speed>1.0401922899156675</speed>
  <fix>3d</fix>
</trkpt>
<trkpt lat="40.0713664" lon="-105.2297957">
  <ele>1583.0</ele>
  <time>2026-08-28T17:50:39Z</time>
  <course>181.77</course>
  <speed>0.97</speed>
  <fix>3d</fix>
</trkpt>
<trkpt lat="40.0713644" lon="-105.2297957">
  <ele>1582.97</ele>
  <time>2026-08-28T17:50:39Z</time>
  <course>178.38</course>
  <speed>1.1022250223978767</speed>
  <fix>3d</fix>
</trkpt>
<trkpt lat="40.0713664" lon="-105.2297957">
  <ele>1583.0</ele>
  <time>2026-08-28T17:50:39Z</time>
  <course>181.77</course>
  <speed>0.97</speed>
  <fix>3d</fix>
</trkpt>
<trkpt lat="40.0713634" lon="-105.2297956">
  <ele>1582.98</ele>
  <time>2026-08-28T17:50:39Z</time>
  <course>176.61</course>
  <speed>1.175159563633807</speed>
  <fix>3d</fix>
</trkpt>
<trkpt lat="40.0713645" lon="-105.2297957">
  <ele>1583.0</ele>
  <time>2026-08-28T17:50:39Z</time>
  <course>176.91</course>
  <speed>1.09</speed>
  <fix>3d</fix>
</trkpt>
<trkpt lat="40.0713623" lon="-105.2297954">
  <ele>1582.98</ele>
  <time>2026-08-28T17:50:39Z</time>
  <course>175.17</course>
  <speed>1.2490396310766123</speed>
  <fix>3d</fix>
</trkpt>
<trkpt lat="40.0713645" lon="-105.2297957">
  <ele>1583.0</ele>
  <time>2026-08-28T17:50:39Z</time>
  <course>176.91</course>
  <speed>1.09</speed>
  <fix>3d</fix>
</trkpt>
<trkpt lat="40.0713611" lon="-105.2297953">
  <ele>1582.98</ele>
  <time>2026-08-28T17:50:39Z</time>
  <course>173.97</course>
  <speed>1.3138112497615477</speed>
  <fix>3d</fix>
</trkpt>
<trkpt lat="40.0713625" lon="-105.2297955">
  <ele>1583.0</ele>
  <time>2026-08-28T17:50:39Z</time>
  <course>173.66</course>
  <speed>1.23</speed>
  <fix>3d</fix>
</trkpt>
<trkpt lat="40.0713599" lon="-105.229795">
  <ele>1582.98</ele>
  <time>2026-08-28T17:50:39Z</time>
  <course>172.99</course>
  <speed>1.3875518008348373</speed>
  <fix>3d</fix>
</trkpt>
<trkpt lat="40.0713625" lon="-105.2297955">
  <ele>1583.0</ele>
  <time>2026-08-28T17:50:39Z</time>
  <course>173.66</course>
  <speed>1.23</speed>
  <fix>3d</fix>
</trkpt>
<trkpt lat="40.0713586" lon="-105.2297947">
  <ele>1582.98</ele>
  <time>2026-08-28T17:50:39Z</time>
  <course>172.16</course>
  <speed>1.4516886718577091</speed>
  <fix>3d</fix>
</trkpt>
<trkpt lat="40.0713602" lon="-105.2297952">
  <ele>1583.0</ele>
  <time>2026-08-28T17:50:39Z</time>
  <course>171.47</course>
  <speed>1.37</speed>
  <fix>3d</fix>
</trkpt>
<trkpt lat="40.0713572" lon="-105.2297944">
  <ele>1582.98</ele>
  <time>2026-08-28T17:50:39Z</time>
  <course>171.47</course>
  <speed>1.5160804727981954</speed>
  <fix>3d</fix>
</trkpt>
<trkpt lat="40.0713602" lon="-105.2297952">
  <ele>1583.0</ele>
  <time>2026-08-28T17:50:39Z</time>
  <course>171.47</course>
  <speed>1.37</speed>
  <fix>3d</fix>
</trkpt>
<trkpt lat="40.0713559" lon="-105.2297941">
  <ele>1582.98</ele>
  <time>2026-08-28T17:50:39Z</time>
  <course>170.87</course>
  <speed>1.570891466651977</speed>
  <fix>3d</fix>
</trkpt>
<trkpt lat="40.0713576" lon="-105.2297946">
  <ele>1583.0</ele>
  <time>2026-08-28T17:50:39Z</time>
  <course>169.94</course>
  <speed>1.49</speed>
  <fix>3d</fix>
</trkpt>
<trkpt lat="40.0713544" lon="-105.2297937">
  <ele>1582.98</ele>
  <time>2026-08-28T17:50:39Z</time>
  <course>170.35</course>
  <speed>1.6238842323269231</speed>
  <fix>3d</fix>
</trkpt>
<trkpt lat="40.0713576" lon="-105.2297946">
  <ele>1583.0</ele>
  <time>2026-08-28T17:50:39Z</time>
  <course>169.94</course>
  <speed>1.49</speed>
  <fix>3d</fix>
</trkpt>
<trkpt lat="40.071353" lon="-105.2297933">
  <ele>1582.98</ele>
  <time>2026-08-28T17:50:39Z</time>
  <course>169.91</course>
  <speed>1.6790473489452284</speed>
  <fix>3d</fix>
</trkpt>
<trkpt lat="40.0713549" lon="-105.229794">
  <ele>1583.0</ele>
  <time>2026-08-28T17:50:39Z</time>
  <course>168.82</course>
  <speed>1.6</speed>
  <fix>3d</fix>
</trkpt>
<trkpt lat="40.0713515" lon="-105.2297929">
  <ele>1582.98</ele>
  <time>2026-08-28T17:50:39Z</time>
  <course>169.52</course>
  <speed>1.7126879458909028</speed>
  <fix>3d</fix>
</trkpt>
<trkpt lat="40.0713549" lon="-105.229794">
  <ele>1583.0</ele>
  <time>2026-08-28T17:50:39Z</time>
  <course>168.82</course>
  <speed>1.6</speed>
  <fix>3d</fix>
</trkpt>
<trkpt lat="40.0713499" lon="-105.2297925">
  <ele>1582.98</ele>
  <time>2026-08-28T17:50:39Z</time>
  <course>169.18</course>
  <speed>1.744161689752415</speed>
  <fix>3d</fix>
</trkpt>
<trkpt lat="40.0713549" lon="-105.229794">
  <ele>1583.0</ele>
  <time>2026-08-28T17:50:39Z</time>
  <course>168.82</course>
  <speed>1.6</speed>
  <fix>3d</fix>
</trkpt>
<trkpt lat="40.0713484" lon="-105.229792">
  <ele>1582.98</ele>
  <time>2026-08-28T17:50:39Z</time>
  <course>168.87</course>
  <speed>1.7681911661356076</speed>
  <fix>3d</fix>
</trkpt>
<trkpt lat="40.071352" lon="-105.2297931">
  <ele>1583.0</ele>
  <time>2026-08-28T17:50:39Z</time>
  <course>167.98</course>
  <speed>1.69</speed>
  <fix>3d</fix>
</trkpt>
<trkpt lat="40.0713469" lon="-105.2297915">
  <ele>1582.99</ele>
  <time>2026-08-28T17:50:39Z</time>
  <course>168.6</course>
  <speed>1.7802527910383963</speed>
  <fix>3d</fix>
</trkpt>
<trkpt lat="40.071352" lon="-105.2297931">
  <ele>1583.0</ele>
  <time>2026-08-28T17:50:39Z</time>
  <course>167.98</course>
  <speed>1.69</speed>
  <fix>3d</fix>
</trkpt>
<trkpt lat="40.0713453" lon="-105.2297911">
  <ele>1582.98</ele>
  <time>2026-08-28T17:50:39Z</time>
  <course>168.35</course>
  <speed>1.782638493918495</speed>
  <fix>3d</fix>
</trkpt>
<trkpt lat="40.0713489" lon="-105.2297923">
  <ele>1583.0</ele>
  <time>2026-08-28T17:50:39Z</time>
  <course>167.33</course>
  <speed>1.74</speed>
  <fix>3d</fix>
</trkpt>
<trkpt lat="40.0713438" lon="-105.2297906">
  <ele>1582.98</ele>
  <time>2026-08-28T17:50:39Z</time>
  <course>168.11</course>
  <speed>1.7850770291502829</speed>
  <fix>3d</fix>
</trkpt>
<trkpt lat="40.0713489" lon="-105.2297923">
  <ele>1583.0</ele>
  <time>2026-08-28T17:50:39Z</time>
  <course>167.33</course>
  <speed>1.74</speed>
  <fix>3d</fix>
</trkpt>
<trkpt lat="40.0713423" lon="-105.2297901">
  <ele>1582.98</ele>
  <time>2026-08-28T17:50:39Z</time>
  <course>167.89</course>
  <speed>1.7657009939398005</speed>
  <fix>3d</fix>
</trkpt>
<trkpt lat="40.0713458" lon="-105.2297914">
  <ele>1583.0</ele>
  <time>2026-08-28T17:50:39Z</time>
  <course>166.8</course>
  <speed>1.76</speed>
  <fix>3d</fix>
</trkpt>
<trkpt lat="40.0713408" lon="-105.2297896">
  <ele>1582.98</ele>
  <time>2026-08-28T17:50:39Z</time>
  <course>167.68</course>
  <speed>1.7366634676873929</speed>
  <fix>3d</fix>
</trkpt>
<trkpt lat="40.0713427" lon="-105.2297904">
  <ele>1583.0</ele>
  <time>2026-08-28T17:50:39Z</time>
  <course>166.35</course>
  <speed>1.75</speed>
  <fix>3d</fix>
</trkpt>
<trkpt lat="40.0713393" lon="-105.2297891">
  <ele>1582.98</ele>
  <time>2026-08-28T17:50:39Z</time>
  <course>167.44</course>
  <speed>1.7076592165886026</speed>
  <fix>3d</fix>
</trkpt>
<trkpt lat="40.0713427" lon="-105.2297904">
  <ele>1583.0</ele>
  <time>2026-08-28T17:50:39Z</time>
  <course>166.35</course>
  <speed>1.75</speed>
  <fix>3d</fix>
</trkpt>
<trkpt lat="40.0713378" lon="-105.2297886">
  <ele>1582.98</ele>
  <time>2026-08-28T17:50:39Z</time>
  <course>167.01</course>
  <speed>1.6593974810153234</speed>
  <fix>3d</fix>
</trkpt>
<trkpt lat="40.0713398" lon="-105.2297895">
  <ele>1583.0</ele>
  <time>2026-08-28T17:50:39Z</time>
  <course>165.8</course>
  <speed>1.69</speed>
  <fix>3d</fix>
</trkpt>
<trkpt lat="40.0713364" lon="-105.2297881">
  <ele>1582.98</ele>
  <time>2026-08-28T17:50:39Z</time>
  <course>166.28</course>
  <speed>1.5948040632002414</speed>
  <fix>3d</fix>
</trkpt>
<trkpt lat="40.0713398" lon="-105.2297895">
  <ele>1583.0</ele>
  <time>2026-08-28T17:50:39Z</time>
  <course>165.8</course>
  <speed>1.69</speed>
  <fix>3d</fix>
</trkpt>
<trkpt lat="40.0713351" lon="-105.2297876">
  <ele>1582.99</ele>
  <time>2026-08-28T17:50:39Z</time>
  <course>165.16</course>
  <speed>1.530751449452196</speed>
  <fix>3d</fix>
</trkpt>
<trkpt lat="40.0713369" lon="-105.2297885">
  <ele>1583.0</ele>
  <time>2026-08-28T17:50:39Z</time>
  <course>164.57</course>
  <speed>1.59</speed>
  <fix>3d</fix>
</trkpt>
<trkpt lat="40.0713338" lon="-105.2297871">
  <ele>1582.99</ele>
  <time>2026-08-28T17:50:39Z</time>
  <course>163.47</course>
  <speed>1.4422205101855956</speed>
  <fix>3d</fix>
</trkpt>
<trkpt lat="40.0713369" lon="-105.2297885">
  <ele>1583.0</ele>
  <time>2026-08-28T17:50:39Z</time>
  <course>164.57</course>
  <speed>1.59</speed>
  <fix>3d</fix>
</trkpt>
<trkpt lat="40.0713326" lon="-105.2297865">
  <ele>1582.99</ele>
  <time>2026-08-28T17:50:39Z</time>
  <course>161.13</course>
  <speed>1.3500370365289984</speed>
  <fix>3d</fix>
</trkpt>
<trkpt lat="40.0713342" lon="-105.2297875">
  <ele>1583.0</ele>
  <time>2026-08-28T17:50:39Z</time>
  <course>161.71</course>
  <speed>1.44</speed>
  <fix>3d</fix>
</trkpt>
<trkpt lat="40.0713316" lon="-105.2297859">
  <ele>1583.0</ele>
  <time>2026-08-28T17:50:39Z</time>
  <course>158.08</course>
  <speed>1.239072233568326</speed>
  <fix>3d</fix>
</trkpt>
<trkpt lat="40.0713342" lon="-105.2297875">
  <ele>1583.0</ele>
  <time>2026-08-28T17:50:39Z</time>
  <course>161.71</course>
  <speed>1.44</speed>
  <fix>3d</fix>
</trkpt>
<trkpt lat="40.0713306" lon="-105.2297853">
  <ele>1583.0</ele>
  <time>2026-08-28T17:50:39Z</time>
  <course>154.19</course>
  <speed>1.128716084761797</speed>
  <fix>3d</fix>
</trkpt>
<trkpt lat="40.071332" lon="-105.2297864">
  <ele>1583.0</ele>
  <time>2026-08-28T17:50:39Z</time>
  <course>156.42</course>
  <speed>1.24</speed>
  <fix>3d</fix>
</trkpt>
<trkpt lat="40.0713298" lon="-105.2297847">
  <ele>1583.0</ele>
  <time>2026-08-28T17:50:39Z</time>
  <course>149.3</course>
  <speed>1.0125709851659783</speed>
  <fix>3d</fix>
</trkpt>
<trkpt lat="40.071332" lon="-105.2297864">
  <ele>1583.0</ele>
  <time>2026-08-28T17:50:39Z</time>
  <course>156.42</course>
  <speed>1.24</speed>
  <fix>3d</fix>
</trkpt>
<trkpt lat="40.0713292" lon="-105.229784">
  <ele>1583.0</ele>
  <time>2026-08-28T17:50:39Z</time>
  <course>143.72</course>
  <speed>0.8786353054595518</speed>
  <fix>3d</fix>
</trkpt>
<trkpt lat="40.0713302" lon="-105.2297851">
  <ele>1583.0</ele>
  <time>2026-08-28T17:50:39Z</time>
  <course>148.07</course>
  <speed>1.0</speed>
  <fix>3d</fix>
</trkpt>
<trkpt lat="40.0713287" lon="-105.2297834">
  <ele>1583.0</ele>
  <time>2026-08-28T17:50:39Z</time>
  <course>138.5</course>
  <speed>0.750066663703967</speed>
  <fix>3d</fix>
</trkpt>
<trkpt lat="40.0713302" lon="-105.2297851">
  <ele>1583.0</ele>
  <time>2026-08-28T17:50:39Z</time>
  <course>148.07</course>
  <speed>1.0</speed>
  <fix>3d</fix>
</trkpt>
<trkpt lat="40.0713283" lon="-105.2297828">
  <ele>1583.01</ele>
  <time>2026-08-28T17:50:39Z</time>
  <course>134.11</course>
  <speed>0.6280127387243033</speed>
  <fix>3d</fix>
</trkpt>
<trkpt lat="40.071329" lon="-105.2297839">
  <ele>1583.0</ele>
  <time>2026-08-28T17:50:39Z</time>
  <course>138.2</course>
  <speed>0.75</speed>
  <fix>3d</fix>
</trkpt>
<trkpt lat="40.071328" lon="-105.2297823">
  <ele>1583.01</ele>
  <time>2026-08-28T17:50:39Z</time>
  <course>130.42</course>
  <speed>0.53</speed>
  <fix>3d</fix>
</trkpt>
<trkpt lat="40.071329" lon="-105.2297839">
  <ele>1583.0</ele>
  <time>2026-08-28T17:50:39Z</time>
  <course>138.2</course>
  <speed>0.75</speed>
  <fix>3d</fix>
</trkpt>
<trkpt lat="40.0713278" lon="-105.2297818">
  <ele>1583.01</ele>
  <time>2026-08-28T17:50:39Z</time>
  <course>127.25</course>
  <speed>0.4741307836451879</speed>
  <fix>3d</fix>
</trkpt>
<trkpt lat="40.071329" lon="-105.2297839">
  <ele>1583.0</ele>
  <time>2026-08-28T17:50:39Z</time>
  <course>138.2</course>
  <speed>0.75</speed>
  <fix>3d</fix>
</trkpt>
<trkpt lat="40.0713276" lon="-105.2297814">
  <ele>1583.01</ele>
  <time>2026-08-28T17:50:39Z</time>
  <course>124.4</course>
  <speed>0.425440947723653</speed>
  <fix>3d</fix>
</trkpt>
<trkpt lat="40.0713281" lon="-105.2297828">
  <ele>1583.0</ele>
  <time>2026-08-28T17:50:39Z</time>
  <course>129.67</course>
  <speed>0.54</speed>
  <fix>3d</fix>
</trkpt>
<trkpt lat="40.0713275" lon="-105.229781">
  <ele>1583.01</ele>
  <time>2026-08-28T17:50:39Z</time>
  <course>121.7</course>
  <speed>0.41785164831552357</speed>
  <fix>3d</fix>
</trkpt>
<trkpt lat="40.0713281" lon="-105.2297828">
  <ele>1583.0</ele>
  <time>2026-08-28T17:50:39Z</time>
  <course>129.67</course>
  <speed>0.54</speed>
  <fix>3d</fix>
</trkpt>
<trkpt lat="40.0713274" lon="-105.2297806">
  <ele>1583.0</ele>
  <time>2026-08-28T17:50:39Z</time>
  <course>118.99</course>
  <speed>0.4332435804486894</speed>
  <fix>3d</fix>
</trkpt>
<trkpt lat="40.0713277" lon="-105.2297819">
  <ele>1583.0</ele>
  <time>2026-08-28T17:50:39Z</time>
  <course>123.12</course>
  <speed>0.44</speed>
  <fix>3d</fix>
</trkpt>
<trkpt lat="40.0713272" lon="-105.2297801">
  <ele>1583.01</ele>
  <time>2026-08-28T17:50:39Z</time>
  <course>116.12</course>
  <speed>0.46840153714521476</speed>
  <fix>3d</fix>
</trkpt>
<trkpt lat="40.0713277" lon="-105.2297819">
  <ele>1583.0</ele>
  <time>2026-08-28T17:50:39Z</time>
  <course>123.12</course>
  <speed>0.44</speed>
  <fix>3d</fix>
</trkpt>
<trkpt lat="40.0713271" lon="-105.2297796">
  <ele>1583.01</ele>
  <time>2026-08-28T17:50:39Z</time>
  <course>112.95</course>
  <speed>0.5263078946776306</speed>
  <fix>3d</fix>
</trkpt>
<trkpt lat="40.0713272" lon="-105.229781">
  <ele>1583.0</ele>
  <time>2026-08-28T17:50:39Z</time>
  <course>117.28</course>
  <speed>0.44</speed>
  <fix>3d</fix>
</trkpt>
<trkpt lat="40.0713269" lon="-105.229779">
  <ele>1583.01</ele>
  <time>2026-08-28T17:50:39Z</time>
  <course>109.35</course>
  <speed>0.6020797289396147</speed>
  <fix>3d</fix>
</trkpt>
<trkpt lat="40.0713272" lon="-105.229781">
  <ele>1583.0</ele>
  <time>2026-08-28T17:50:39Z</time>
  <course>117.28</course>
  <speed>0.44</speed>
  <fix>3d</fix>
</trkpt>
<trkpt lat="40.0713268" lon="-105.2297783">
  <ele>1583.01</ele>
  <time>2026-08-28T17:50:39Z</time>
  <course>105.21</course>
  <speed>0.6873136110975833</speed>
  <fix>3d</fix>
</trkpt>
<trkpt lat="40.0713269" lon="-105.22978">
  <ele>1583.0</ele>
  <time>2026-08-28T17:50:39Z</time>
  <course>110.86</course>
  <speed>0.53</speed>
  <fix>3d</fix>
</trkpt>
<trkpt lat="40.0713267" lon="-105.2297775">
  <ele>1583.01</ele>
  <time>2026-08-28T17:50:39Z</time>
  <course>100.58</course>
  <speed>0.772334124585985</speed>
  <fix>3d</fix>
</trkpt>
<trkpt lat="40.0713266" lon="-105.2297786">
  <ele>1583.0</ele>
  <time>2026-08-28T17:50:39Z</time>
  <course>103.0</course>
  <speed>0.68</speed>
  <fix>3d</fix>
</trkpt>
<trkpt lat="40.0713266" lon="-105.2297765">
  <ele>1583.01</ele>
  <time>2026-08-28T17:50:39Z</time>
  <course>95.38</course>
  <speed>0.87</speed>
  <fix>3d</fix>
</trkpt>
<trkpt lat="40.0713266" lon="-105.2297786">
  <ele>1583.0</ele>
  <time>2026-08-28T17:50:39Z</time>
  <course>103.0</course>
  <speed>0.68</speed>
  <fix>3d</fix>
</trkpt>
<trkpt lat="40.0713266" lon="-105.2297755">
  <ele>1583.0</ele>
  <time>2026-08-28T17:50:39Z</time>
  <course>89.68</course>
  <speed>0.9633275663033837</speed>
  <fix>3d</fix>
</trkpt>
<trkpt lat="40.0713264" lon="-105.2297768">
  <ele>1583.0</ele>
  <time>2026-08-28T17:50:39Z</time>
  <course>93.13</course>
  <speed>0.85</speed>
  <fix>3d</fix>
</trkpt>
<trkpt lat="40.0713267" lon="-105.2297743">
  <ele>1583.0</ele>
  <time>2026-08-28T17:50:39Z</time>
  <course>83.46</course>
  <speed>1.0572133181151286</speed>
  <fix>3d</fix>
</trkpt>
<trkpt lat="40.0713264" lon="-105.2297768">
  <ele>1583.0</ele>
  <time>2026-08-28T17:50:39Z</time>
  <course>93.13</course>
  <speed>0.85</speed>
  <fix>3d</fix>
</trkpt>
<trkpt lat="40.0713268" lon="-105.229773">
  <ele>1583.0</ele>
  <time>2026-08-28T17:50:39Z</time>
  <course>77.51</course>
  <speed>1.136001760562016</speed>
  <fix>3d</fix>
</trkpt>
<trkpt lat="40.0713265" lon="-105.2297746">
  <ele>1583.0</ele>
  <time>2026-08-28T17:50:39Z</time>
  <course>81.64</course>
  <speed>1.02</speed>
  <fix>3d</fix>
</trkpt>
<trkpt lat="40.0713272" lon="-105.2297717">
  <ele>1583.0</ele>
  <time>2026-08-28T17:50:39Z</time>
  <course>71.98</course>
  <speed>1.216305882580529</speed>
  <fix>3d</fix>
</trkpt>
<trkpt lat="40.0713265" lon="-105.2297746">
  <ele>1583.0</ele>
  <time>2026-08-28T17:50:39Z</time>
  <course>81.64</course>
  <speed>1.02</speed>
  <fix>3d</fix>
</trkpt>
<trkpt lat="40.0713276" lon="-105.2297703">
  <ele>1583.0</ele>
  <time>2026-08-28T17:50:39Z</time>
  <course>66.85</course>
  <speed>1.2924782396620842</speed>
  <fix>3d</fix>
</trkpt>
<trkpt lat="40.0713269" lon="-105.2297721">
  <ele>1583.0</ele>
  <time>2026-08-28T17:50:39Z</time>
  <course>70.41</course>
  <speed>1.17</speed>
  <fix>3d</fix>
</trkpt>
<trkpt lat="40.0713282" lon="-105.229769">
  <ele>1583.0</ele>
  <time>2026-08-28T17:50:39Z</time>
  <course>62.21</course>
  <speed>1.3497036711811967</speed>
  <fix>3d</fix>
</trkpt>
<trkpt lat="40.0713269" lon="-105.2297721">
  <ele>1583.0</ele>
  <time>2026-08-28T17:50:39Z</time>
  <course>70.41</course>
  <speed>1.17</speed>
  <fix>3d</fix>
</trkpt>
<trkpt lat="40.0713288" lon="-105.2297676">
  <ele>1583.0</ele>
  <time>2026-08-28T17:50:39Z</time>
  <course>58.03</course>
  <speed>1.4066271716414411</speed>
  <fix>3d</fix>
</trkpt>
<trkpt lat="40.0713278" lon="-105.2297695">
  <ele>1583.0</ele>
  <time>2026-08-28T17:50:39Z</time>
  <course>60.82</course>
  <speed>1.3</speed>
  <fix>3d</fix>
</trkpt>
<trkpt lat="40.0713296" lon="-105.2297663">
  <ele>1583.01</ele>
  <time>2026-08-28T17:50:39Z</time>
  <course>54.3</course>
  <speed>1.4446106741956464</speed>
  <fix>3d</fix>
</trkpt>
<trkpt lat="40.0713278" lon="-105.2297695">
  <ele>1583.0</ele>
  <time>2026-08-28T17:50:39Z</time>
  <course>60.82</course>
  <speed>1.3</speed>
  <fix>3d</fix>
</trkpt>
<trkpt lat="40.0713304" lon="-105.229765">
  <ele>1583.01</ele>
  <time>2026-08-28T17:50:39Z</time>
  <course>50.93</course>
  <speed>1.4798986451781082</speed>
  <fix>3d</fix>
</trkpt>
<trkpt lat="40.0713291" lon="-105.2297668">
  <ele>1583.0</ele>
  <time>2026-08-28T17:50:39Z</time>
  <course>52.95</course>
  <speed>1.39</speed>
  <fix>3d</fix>
</trkpt>
<trkpt lat="40.0713313" lon="-105.2297637">
  <ele>1583.01</ele>
  <time>2026-08-28T17:50:39Z</time>
  <course>47.75</course>
  <speed>1.5061540425866142</speed>
  <fix>3d</fix>
</trkpt>
<trkpt lat="40.0713291" lon="-105.2297668">
  <ele>1583.0</ele>
  <time>2026-08-28T17:50:39Z</time>
  <course>52.95</course>
  <speed>1.39</speed>
  <fix>3d</fix>
</trkpt>
<trkpt lat="40.0713323" lon="-105.2297625">
  <ele>1583.01</ele>
  <time>2026-08-28T17:50:39Z</time>
  <course>44.69</course>
  <speed>1.5222680447279973</speed>
  <fix>3d</fix>
</trkpt>
<trkpt lat="40.0713308" lon="-105.2297643">
  <ele>1583.0</ele>
  <time>2026-08-28T17:50:39Z</time>
  <course>46.34</course>
  <speed>1.45</speed>
  <fix>3d</fix>
</trkpt>
<trkpt lat="40.0713333" lon="-105.2297614">
  <ele>1583.01</ele>
  <time>2026-08-28T17:50:39Z</time>
  <course>41.68</course>
  <speed>1.5289538907370621</speed>
  <fix>3d</fix>
</trkpt>
<trkpt lat="40.0713308" lon="-105.2297643">
  <ele>1583.0</ele>
  <time>2026-08-28T17:50:39Z</time>
  <course>46.34</course>
  <speed>1.45</speed>
  <fix>3d</fix>
</trkpt>
<trkpt lat="40.0713344" lon="-105.2297603">
  <ele>1583.01</ele>
  <time>2026-08-28T17:50:39Z</time>
  <course>38.72</course>
  <speed>1.5321879780235843</speed>
  <fix>3d</fix>
</trkpt>
<trkpt lat="40.0713308" lon="-105.2297643">
  <ele>1583.0</ele>
  <time>2026-08-28T17:50:39Z</time>
  <course>46.34</course>
  <speed>1.45</speed>
  <fix>3d</fix>
</trkpt>
<trkpt lat="40.0713355" lon="-105.2297593">
  <ele>1583.01</ele>
  <time>2026-08-28T17:50:39Z</time>
  <course>35.8</course>
  <speed>1.5255490814785344</speed>
  <fix>3d</fix>
</trkpt>
<trkpt lat="40.0713327" lon="-105.2297619">
  <ele>1583.0</ele>
  <time>2026-08-28T17:50:39Z</time>
  <course>40.27</course>
  <speed>1.47</speed>
  <fix>3d</fix>
</trkpt>
<trkpt lat="40.0713366" lon="-105.2297584">
  <ele>1583.02</ele>
  <time>2026-08-28T17:50:39Z</time>
  <course>32.88</course>
  <speed>1.5144966160411186</speed>
  <fix>3d</fix>
</trkpt>
<trkpt lat="40.0713327" lon="-105.2297619">
  <ele>1583.0</ele>
  <time>2026-08-28T17:50:39Z</time>
  <course>40.27</course>
  <speed>1.47</speed>
  <fix>3d</fix>
</trkpt>
<trkpt lat="40.0713377" lon="-105.2297576">
  <ele>1583.02</ele>
  <time>2026-08-28T17:50:39Z</time>
  <course>29.96</course>
  <speed>1.4937536610833797</speed>
  <fix>3d</fix>
</trkpt>
<trkpt lat="40.0713348" lon="-105.2297598">
  <ele>1583.0</ele>
  <time>2026-08-28T17:50:39Z</time>
  <course>34.38</course>
  <speed>1.46</speed>
  <fix>3d</fix>
</trkpt>
<trkpt lat="40.0713389" lon="-105.2297569">
  <ele>1583.02</ele>
  <time>2026-08-28T17:50:39Z</time>
  <course>27.01</course>
  <speed>1.4773286702694157</speed>
  <fix>3d</fix>
</trkpt>
<trkpt lat="40.0713348" lon="-105.2297598">
  <ele>1583.0</ele>
  <time>2026-08-28T17:50:39Z</time>
  <course>34.38</course>
  <speed>1.46</speed>
  <fix>3d</fix>
</trkpt>
<trkpt lat="40.07134" lon="-105.2297563">
  <ele>1583.01</ele>
  <time>2026-08-28T17:50:39Z</time>
  <course>24.03</course>
  <speed>1.4466858677681205</speed>
  <fix>3d</fix>
</trkpt>
<trkpt lat="40.071337" lon="-105.2297581">
  <ele>1583.0</ele>
  <time>2026-08-28T17:50:39Z</time>
  <course>28.55</course>
  <speed>1.44</speed>
  <fix>3d</fix>
</trkpt>
<trkpt lat="40.0713412" lon="-105.2297557">
  <ele>1583.02</ele>
  <time>2026-08-28T17:50:39Z</time>
  <course>20.96</course>
  <speed>1.429405470816451</speed>
  <fix>3d</fix>
</trkpt>
<trkpt lat="40.0713393" lon="-105.2297566">
  <ele>1583.0</ele>
  <time>2026-08-28T17:50:39Z</time>
  <course>22.61</course>
  <speed>1.4</speed>
  <fix>3d</fix>
</trkpt>
<trkpt lat="40.0713424" lon="-105.2297553">
  <ele>1583.02</ele>
  <time>2026-08-28T17:50:39Z</time>
  <course>17.86</course>
  <speed>1.3971757226634023</speed>
  <fix>3d</fix>
</trkpt>
<trkpt lat="40.0713393" lon="-105.2297566">
  <ele>1583.0</ele>
  <time>2026-08-28T17:50:39Z</time>
  <course>22.61</course>
  <speed>1.4</speed>
  <fix>3d</fix>
</trkpt>
<trkpt lat="40.0713435" lon="-105.2297549">
  <ele>1583.02</ele>
  <time>2026-08-28T17:50:39Z</time>
  <course>14.68</course>
  <speed>1.3787313008704778</speed>
  <fix>3d</fix>
</trkpt>
<trkpt lat="40.0713417" lon="-105.2297555">
  <ele>1583.0</ele>
  <time>2026-08-28T17:50:39Z</time>
  <course>16.47</course>
  <speed>1.35</speed>
  <fix>3d</fix>
</trkpt>
<trkpt lat="40.0713447" lon="-105.2297547">
  <ele>1583.02</ele>
  <time>2026-08-28T17:50:39Z</time>
  <course>11.45</course>
  <speed>1.354843164355196</speed>
  <fix>3d</fix>
</trkpt>
<trkpt lat="40.0713417" lon="-105.2297555">
  <ele>1583.0</ele>
  <time>2026-08-28T17:50:39Z</time>
  <course>16.47</course>
  <speed>1.35</speed>
  <fix>3d</fix>
</trkpt>
<trkpt lat="40.0713458" lon="-105.2297545">
  <ele>1583.02</ele>
  <time>2026-08-28T17:50:39Z</time>
  <course>8.11</course>
  <speed>1.335402561027947</speed>
  <fix>3d</fix>
</trkpt>
<trkpt lat="40.071344" lon="-105.2297548">
  <ele>1583.0</ele>
  <time>2026-08-28T17:50:39Z</time>
  <course>10.03</course>
  <speed>1.31</speed>
  <fix>3d</fix>
</trkpt>
<trkpt lat="40.071347" lon="-105.2297544">
  <ele>1583.02</ele>
  <time>2026-08-28T17:50:39Z</time>
  <course>4.79</course>
  <speed>1.3106105447462264</speed>
  <fix>3d</fix>
</trkpt>
<trkpt lat="40.071344" lon="-105.2297548">
  <ele>1583.0</ele>
  <time>2026-08-28T17:50:39Z</time>
  <course>10.03</course>
  <speed>1.31</speed>
  <fix>3d</fix>
</trkpt>
<trkpt lat="40.0713481" lon="-105.2297544">
  <ele>1583.02</ele>
  <time>2026-08-28T17:50:39Z</time>
  <course>1.65</course>
  <speed>1.2901550294441362</speed>
  <fix>3d</fix>
</trkpt>
<trkpt lat="40.0713463" lon="-105.2297544">
  <ele>1583.0</ele>
  <time>2026-08-28T17:50:39Z</time>
  <course>3.49</course>
  <speed>1.27</speed>
  <fix>3d</fix>
</trkpt>
<trkpt lat="40.0713492" lon="-105.2297545">
  <ele>1583.02</ele>
  <time>2026-08-28T17:50:39Z</time>
  <course>358.75</course>
  <speed>1.2731849826321389</speed>
  <fix>3d</fix>
</trkpt>
<trkpt lat="40.0713463" lon="-105.2297544">
  <ele>1583.0</ele>
  <time>2026-08-28T17:50:39Z</time>
  <course>3.49</course>
  <speed>1.27</speed>
  <fix>3d</fix>
</trkpt>
<trkpt lat="40.0713503" lon="-105.2297547">
  <ele>1583.02</ele>
  <time>2026-08-28T17:50:39Z</time>
  <course>356.18</course>
  <speed>1.2688971589533962</speed>
  <fix>3d</fix>
</trkpt>
<trkpt lat="40.0713486" lon="-105.2297543">
  <ele>1583.0</ele>
  <time>2026-08-28T17:50:39Z</time>
  <course>357.52</course>
  <speed>1.24</speed>
  <fix>3d</fix>
</trkpt>
<trkpt lat="40.0713514" lon="-105.2297548">
  <ele>1583.02</ele>
  <time>2026-08-28T17:50:39Z</time>
  <course>353.95</course>
  <speed>1.2658988901172163</speed>
  <fix>3d</fix>
</trkpt>
<trkpt lat="40.0713486" lon="-105.2297543">
  <ele>1583.0</ele>
  <time>2026-08-28T17:50:39Z</time>
  <course>357.52</course>
  <speed>1.24</speed>
  <fix>3d</fix>
</trkpt>
<trkpt lat="40.0713525" lon="-105.229755">
  <ele>1583.02</ele>
  <time>2026-08-28T17:50:39Z</time>
  <course>352.05</course>
  <speed>1.27283148923964</speed>
  <fix>3d</fix>
</trkpt>
<trkpt lat="40.0713508" lon="-105.2297545">
  <ele>1583.0</ele>
  <time>2026-08-28T17:50:39Z</time>
  <course>352.7</course>
  <speed>1.23</speed>
  <fix>3d</fix>
</trkpt>
<trkpt lat="40.0713536" lon="-105.2297553">
  <ele>1583.02</ele>
  <time>2026-08-28T17:50:39Z</time>
  <course>350.49</course>
  <speed>1.2788275880665072</speed>
  <fix>3d</fix>
</trkpt>
<trkpt lat="40.0713508" lon="-105.2297545">
  <ele>1583.0</ele>
  <time>2026-08-28T17:50:39Z</time>
  <course>352.7</course>
  <speed>1.23</speed>
  <fix>3d</fix>
</trkpt>
<trkpt lat="40.0713547" lon="-105.2297556">
  <ele>1583.03</ele>
  <time>2026-08-28T17:50:39Z</time>
  <course>349.25</course>
  <speed>1.30728726758888</speed>
  <fix>3d</fix>
</trkpt>
<trkpt lat="40.071353" lon="-105.229755">
  <ele>1583.0</ele>
  <time>2026-08-28T17:50:39Z</time>
  <course>349.22</course>
  <speed>1.26</speed>
  <fix>3d</fix>
</trkpt>
<trkpt lat="40.0713558" lon="-105.229756">
  <ele>1583.03</ele>
  <time>2026-08-28T17:50:39Z</time>
  <course>348.32</course>
  <speed>1.3315404612703288</speed>
  <fix>3d</fix>
</trkpt>
<trkpt lat="40.071353" lon="-105.229755">
  <ele>1583.0</ele>
  <time>2026-08-28T17:50:39Z</time>
  <course>349.22</course>
  <speed>1.26</speed>
  <fix>3d</fix>
</trkpt>
<trkpt lat="40.071357" lon="-105.2297564">
  <ele>1583.03</ele>
  <time>2026-08-28T17:50:39Z</time>
  <course>347.64</course>
  <speed>1.3778606605894514</speed>
  <fix>3d</fix>
</trkpt>
<trkpt lat="40.071353" lon="-105.229755">
  <ele>1583.0</ele>
  <time>2026-08-28T17:50:39Z</time>
  <course>349.22</course>
  <speed>1.26</speed>
  <fix>3d</fix>
</trkpt>
<trkpt lat="40.0713582" lon="-105.2297568">
  <ele>1583.03</ele>
  <time>2026-08-28T17:50:39Z</time>
  <course>347.2</course>
  <speed>1.431362986806631</speed>
  <fix>3d</fix>
</trkpt>
<trkpt lat="40.0713553" lon="-105.2297556">
  <ele>1583.0</ele>
  <time>2026-08-28T17:50:39Z</time>
  <course>347.02</course>
  <speed>1.32</speed>
  <fix>3d</fix>
</trkpt>
<trkpt lat="40.0713594" lon="-105.2297572">
  <ele>1583.03</ele>
  <time>2026-08-28T17:50:39Z</time>
  <course>346.94</course>
  <speed>1.4822280526288794</speed>
  <fix>3d</fix>
</trkpt>
<trkpt lat="40.0713553" lon="-105.2297556">
  <ele>1583.0</ele>
  <time>2026-08-28T17:50:39Z</time>
  <course>347.02</course>
  <speed>1.32</speed>
  <fix>3d</fix>
</trkpt>
<trkpt lat="40.0713607" lon="-105.2297576">
  <ele>1583.03</ele>
  <time>2026-08-28T17:50:39Z</time>
  <course>346.76</course>
  <speed>1.5453802121160993</speed>
  <fix>3d</fix>
</trkpt>
<trkpt lat="40.0713577" lon="-105.2297564">
  <ele>1583.0</ele>
  <time>2026-08-28T17:50:39Z</time>
  <course>345.89</course>
  <speed>1.41</speed>
  <fix>3d</fix>
</trkpt>
<trkpt lat="40.0713621" lon="-105.2297581">
  <ele>1583.03</ele>
  <time>2026-08-28T17:50:39Z</time>
  <course>346.6</course>
  <speed>1.6181779877380609</speed>
  <fix>3d</fix>
</trkpt>
<trkpt lat="40.0713577" lon="-105.2297564">
  <ele>1583.0</ele>
  <time>2026-08-28T17:50:39Z</time>
  <course>345.89</course>
  <speed>1.41</speed>
  <fix>3d</fix>
</trkpt>
<trkpt lat="40.0713635" lon="-105.2297586">
  <ele>1583.04</ele>
  <time>2026-08-28T17:50:39Z</time>
  <course>346.45</course>
  <speed>1.6813387523042465</speed>
  <fix>3d</fix>
</trkpt>
<trkpt lat="40.0713602" lon="-105.2297573">
  <ele>1583.0</ele>
  <time>2026-08-28T17:50:39Z</time>
  <course>345.38</course>
  <speed>1.54</speed>
  <fix>3d</fix>
</trkpt>
<trkpt lat="40.0713649" lon="-105.2297591">
  <ele>1583.04</ele>
  <time>2026-08-28T17:50:39Z</time>
  <course>346.31</course>
  <speed>1.7541379649275024</speed>
  <fix>3d</fix>
</trkpt>
<trkpt lat="40.071363" lon="-105.2297583">
  <ele>1583.0</ele>
  <time>2026-08-28T17:50:39Z</time>
  <course>345.07</course>
  <speed>1.68</speed>
  <fix>3d</fix>
</trkpt>
<trkpt lat="40.0713665" lon="-105.2297596">
  <ele>1583.04</ele>
  <time>2026-08-28T17:50:39Z</time>
  <course>346.19</course>
  <speed>1.8269373278796401</speed>
  <fix>3d</fix>
</trkpt>
<trkpt lat="40.071363" lon="-105.2297583">
  <ele>1583.0</ele>
  <time>2026-08-28T17:50:39Z</time>
  <course>345.07</course>
  <speed>1.68</speed>
  <fix>3d</fix>
</trkpt>
<trkpt lat="40.0713681" lon="-105.2297602">
  <ele>1583.05</ele>
  <time>2026-08-28T17:50:39Z</time>
  <course>346.07</course>
  <speed>1.8901058171435798</speed>
  <fix>3d</fix>
</trkpt>
<trkpt lat="40.0713661" lon="-105.2297593">
  <ele>1583.0</ele>
  <time>2026-08-28T17:50:39Z</time>
  <course>344.82</course>
  <speed>1.82</speed>
  <fix>3d</fix>
</trkpt>
<trkpt lat="40.0713698" lon="-105.2297608">
  <ele>1583.05</ele>
  <time>2026-08-28T17:50:39Z</time>
  <course>345.96</course>
  <speed>1.9409533739891847</speed>
  <fix>3d</fix>
</trkpt>
<trkpt lat="40.0713661" lon="-105.2297593">
  <ele>1583.0</ele>
  <time>2026-08-28T17:50:39Z</time>
  <course>344.82</course>
  <speed>1.82</speed>
  <fix>3d</fix>
</trkpt>
<trkpt lat="40.0713715" lon="-105.2297614">
  <ele>1583.05</ele>
  <time>2026-08-28T17:50:39Z</time>
  <course>345.86</course>
  <speed>1.9944924166313596</speed>
  <fix>3d</fix>
</trkpt>
<trkpt lat="40.0713693" lon="-105.2297605">
  <ele>1583.0</ele>
  <time>2026-08-28T17:50:39Z</time>
  <course>344.6</course>
  <speed>1.94</speed>
  <fix>3d</fix>
</trkpt>
<trkpt lat="40.0713732" lon="-105.229762">
  <ele>1583.05</ele>
  <time>2026-08-28T17:50:39Z</time>
  <course>345.78</course>
  <speed>2.026079958935481</speed>
  <fix>3d</fix>
</trkpt>
<trkpt lat="40.0713693" lon="-105.2297605">
  <ele>1583.0</ele>
  <time>2026-08-28T17:50:39Z</time>
  <course>344.6</course>
  <speed>1.94</speed>
  <fix>3d</fix>
</trkpt>
<trkpt lat="40.071375" lon="-105.2297627">
  <ele>1583.06</ele>
  <time>2026-08-28T17:50:39Z</time>
  <course>345.69</course>
  <speed>2.057668583615933</speed>
  <fix>3d</fix>
</trkpt>
<trkpt lat="40.0713728" lon="-105.2297617">
  <ele>1583.0</ele>
  <time>2026-08-28T17:50:39Z</time>
  <course>344.41</course>
  <speed>2.03</speed>
  <fix>3d</fix>
</trkpt>
<trkpt lat="40.0713768" lon="-105.2297633">
  <ele>1583.06</ele>
  <time>2026-08-28T17:50:39Z</time>
  <course>345.6</course>
  <speed>2.0796393918177256</speed>
  <fix>3d</fix>
</trkpt>
<trkpt lat="40.0713728" lon="-105.2297617">
  <ele>1583.0</ele>
  <time>2026-08-28T17:50:39Z</time>
  <course>344.41</course>
  <speed>2.03</speed>
  <fix>3d</fix>
</trkpt>
<trkpt lat="40.0713787" lon="-105.229764">
  <ele>1583.06</ele>
  <time>2026-08-28T17:50:39Z</time>
  <course>345.48</course>
  <speed>2.089258241577618</speed>
  <fix>3d</fix>
</trkpt>
<trkpt lat="40.0713764" lon="-105.229763">
  <ele>1583.0</ele>
  <time>2026-08-28T17:50:39Z</time>
  <course>344.23</course>
  <speed>2.08</speed>
  <fix>3d</fix>
</trkpt>
<trkpt lat="40.0713805" lon="-105.2297647">
  <ele>1583.06</ele>
  <time>2026-08-28T17:50:39Z</time>
  <course>345.37</course>
  <speed>2.082402458700047</speed>
  <fix>3d</fix>
</trkpt>
<trkpt lat="40.0713764" lon="-105.229763">
  <ele>1583.0</ele>
  <time>2026-08-28T17:50:39Z</time>
  <course>344.23</course>
  <speed>2.08</speed>
  <fix>3d</fix>
</trkpt>
<trkpt lat="40.0713823" lon="-105.2297653">
  <ele>1583.05</ele>
  <time>2026-08-28T17:50:39Z</time>
  <course>345.24</course>
  <speed>2.072800038595137</speed>
  <fix>3d</fix>
</trkpt>
<trkpt lat="40.07138" lon="-105.2297643">
  <ele>1583.0</ele>
  <time>2026-08-28T17:50:39Z</time>
  <course>344.01</course>
  <speed>2.08</speed>
  <fix>3d</fix>
</trkpt>
<trkpt lat="40.0713841" lon="-105.229766">
  <ele>1583.06</ele>
  <time>2026-08-28T17:50:39Z</time>
  <course>345.09</course>
  <speed>2.0412006270820124</speed>
  <fix>3d</fix>
</trkpt>
<trkpt lat="40.07138" lon="-105.2297643">
  <ele>1583.0</ele>
  <time>2026-08-28T17:50:39Z</time>
  <course>344.01</course>
  <speed>2.08</speed>
  <fix>3d</fix>
</trkpt>
<trkpt lat="40.0713859" lon="-105.2297667">
  <ele>1583.06</ele>
  <time>2026-08-28T17:50:39Z</time>
  <course>344.91</course>
  <speed>1.9932385707686877</speed>
  <fix>3d</fix>
</trkpt>
<trkpt lat="40.0713835" lon="-105.2297657">
  <ele>1583.0</ele>
  <time>2026-08-28T17:50:39Z</time>
  <course>343.73</course>
  <speed>2.04</speed>
  <fix>3d</fix>
</trkpt>
<trkpt lat="40.0713876" lon="-105.2297673">
  <ele>1583.06</ele>
  <time>2026-08-28T17:50:39Z</time>
  <course>344.71</course>
  <speed>1.9328993765843063</speed>
  <fix>3d</fix>
</trkpt>
<trkpt lat="40.0713835" lon="-105.2297657">
  <ele>1583.0</ele>
  <time>2026-08-28T17:50:39Z</time>
  <course>343.73</course>
  <speed>2.04</speed>
  <fix>3d</fix>
</trkpt>
<trkpt lat="40.0713892" lon="-105.229768">
  <ele>1583.06</ele>
  <time>2026-08-28T17:50:39Z</time>
  <course>344.45</course>
  <speed>1.8630351580150064</speed>
  <fix>3d</fix>
</trkpt>
<trkpt lat="40.0713835" lon="-105.2297657">
  <ele>1583.0</ele>
  <time>2026-08-28T17:50:39Z</time>
  <course>343.73</course>
  <speed>2.04</speed>
  <fix>3d</fix>
</trkpt>
<trkpt lat="40.0713908" lon="-105.2297686">
  <ele>1583.05</ele>
  <time>2026-08-28T17:50:39Z</time>
  <course>344.14</course>
  <speed>1.7711578134090706</speed>
  <fix>3d</fix>
</trkpt>
<trkpt lat="40.071387" lon="-105.229767">
  <ele>1583.0</ele>
  <time>2026-08-28T17:50:39Z</time>
  <course>343.34</course>
  <speed>1.94</speed>
  <fix>3d</fix>
</trkpt>
<trkpt lat="40.0713922" lon="-105.2297692">
  <ele>1583.05</ele>
  <time>2026-08-28T17:50:39Z</time>
  <course>343.78</course>
  <speed>1.6823792675850473</speed>
  <fix>3d</fix>
</trkpt>
<trkpt lat="40.071387" lon="-105.229767">
  <ele>1583.0</ele>
  <time>2026-08-28T17:50:39Z</time>
  <course>343.34</course>
  <speed>1.94</speed>
  <fix>3d</fix>
</trkpt>
<trkpt lat="40.0713936" lon="-105.2297698">
  <ele>1583.05</ele>
  <time>2026-08-28T17:50:39Z</time>
  <course>343.36</course>
  <speed>1.5716551784663197</speed>
  <fix>3d</fix>
</trkpt>
<trkpt lat="40.0713901" lon="-105.2297683">
  <ele>1583.0</ele>
  <time>2026-08-28T17:50:39Z</time>
  <course>342.78</course>
  <speed>1.78</speed>
  <fix>3d</fix>
</trkpt>
<trkpt lat="40.0713949" lon="-105.2297703">
  <ele>1583.05</ele>
  <time>2026-08-28T17:50:39Z</time>
  <course>342.88</course>
  <speed>1.4578408692309321</speed>
  <fix>3d</fix>
</trkpt>
<trkpt lat="40.0713901" lon="-105.2297683">
  <ele>1583.0</ele>
  <time>2026-08-28T17:50:39Z</time>
  <course>342.78</course>
  <speed>1.78</speed>
  <fix>3d</fix>
</trkpt>
<trkpt lat="40.071396" lon="-105.2297709">
  <ele>1583.05</ele>
  <time>2026-08-28T17:50:39Z</time>
  <course>342.32</course>
  <speed>1.3285330255586423</speed>
  <fix>3d</fix>
</trkpt>
<trkpt lat="40.071393" lon="-105.2297695">
  <ele>1583.0</ele>
  <time>2026-08-28T17:50:39Z</time>
  <course>342.0</course>
  <speed>1.58</speed>
  <fix>3d</fix>
</trkpt>
<trkpt lat="40.0713971" lon="-105.2297714">
  <ele>1583.04</ele>
  <time>2026-08-28T17:50:39Z</time>
  <course>341.69</course>
  <speed>1.1961605243444544</speed>
  <fix>3d</fix>
</trkpt>
<trkpt lat="40.071393" lon="-105.2297695">
  <ele>1583.0</ele>
  <time>2026-08-28T17:50:39Z</time>
  <course>342.0</course>
  <speed>1.58</speed>
  <fix>3d</fix>
</trkpt>
<trkpt lat="40.071398" lon="-105.2297718">
  <ele>1583.04</ele>
  <time>2026-08-28T17:50:39Z</time>
  <course>340.98</course>
  <speed>1.064048871058092</speed>
  <fix>3d</fix>
</trkpt>
<trkpt lat="40.0713956" lon="-105.2297706">
  <ele>1583.0</ele>
  <time>2026-08-28T17:50:39Z</time>
  <course>340.98</course>
  <speed>1.35</speed>
  <fix>3d</fix>
</trkpt>
<trkpt lat="40.0713988" lon="-105.2297722">
  <ele>1583.05</ele>
  <time>2026-08-28T17:50:39Z</time>
  <course>340.18</course>
  <speed>0.9323089616645333</speed>
  <fix>3d</fix>
</trkpt>
<trkpt lat="40.0713976" lon="-105.2297716">
  <ele>1583.0</ele>
  <time>2026-08-28T17:50:39Z</time>
  <course>339.66</course>
  <speed>1.09</speed>
  <fix>3d</fix>
</trkpt>
<trkpt lat="40.0713995" lon="-105.2297726">
  <ele>1583.05</ele>
  <time>2026-08-28T17:50:39Z</time>
  <course>339.37</course>
  <speed>0.7879086241436883</speed>
  <fix>3d</fix>
</trkpt>
<trkpt lat="40.0713976" lon="-105.2297716">
  <ele>1583.0</ele>
  <time>2026-08-28T17:50:39Z</time>
  <course>339.66</course>
  <speed>1.09</speed>
  <fix>3d</fix>
</trkpt>
<trkpt lat="40.0714001" lon="-105.229773">
  <ele>1583.05</ele>
  <time>2026-08-28T17:50:39Z</time>
  <course>338.67</course>
  <speed>0.6530696746902278</speed>
  <fix>3d</fix>
</trkpt>
<trkpt lat="40.0713992" lon="-105.2297724">
  <ele>1583.0</ele>
  <time>2026-08-28T17:50:39Z</time>
  <course>338.19</course>
  <speed>0.83</speed>
  <fix>3d</fix>
</trkpt>
<trkpt lat="40.0714005" lon="-105.2297732">
  <ele>1583.05</ele>
  <time>2026-08-28T17:50:39Z</time>
  <course>338.08</course>
  <speed>0.5053711507397312</speed>
  <fix>3d</fix>
</trkpt>
<trkpt lat="40.0713992" lon="-105.2297724">
  <ele>1583.0</ele>
  <time>2026-08-28T17:50:39Z</time>
  <course>338.19</course>
  <speed>0.83</speed>
  <fix>3d</fix>
</trkpt>
<trkpt lat="40.0714009" lon="-105.2297735">
  <ele>1583.05</ele>
  <time>2026-08-28T17:50:39Z</time>
  <course>337.6</course>
  <speed>0.3671511950137164</speed>
  <fix>3d</fix>
</trkpt>
<trkpt lat="40.0714004" lon="-105.229773">
  <ele>1583.0</ele>
  <time>2026-08-28T17:50:39Z</time>
  <course>336.91</course>
  <speed>0.55</speed>
  <fix>3d</fix>
</trkpt>
<trkpt lat="40.0714011" lon="-105.2297736">
  <ele>1583.04</ele>
  <time>2026-08-28T17:50:39Z</time>
  <course>337.26</course>
  <speed>0.23853720883753127</speed>
  <fix>3d</fix>
</trkpt>
<trkpt lat="40.0714004" lon="-105.229773">
  <ele>1583.0</ele>
  <time>2026-08-28T17:50:39Z</time>
  <course>336.91</course>
  <speed>0.55</speed>
  <fix>3d</fix>
</trkpt>
<trkpt lat="40.0714012" lon="-105.2297737">
  <ele>1583.04</ele>
  <time>2026-08-28T17:50:39Z</time>
  <course>337.04</course>
  <speed>0.1131370849898476</speed>
  <fix>3d</fix>
</trkpt>
<trkpt lat="40.0714011" lon="-105.2297734">
  <ele>1583.0</ele>
  <time>2026-08-28T17:50:39Z</time>
  <course>336.1</course>
  <speed>0.29</speed>
  <fix>3d</fix>
</trkpt>
<trkpt lat="40.0714013" lon="-105.2297737">
  <ele>1583.04</ele>
  <time>2026-08-28T17:50:39Z</time>
  <course>336.93</course>
  <speed>0.0316227766016838</speed>
  <fix>3d</fix>
</trkpt>
<trkpt lat="40.0714011" lon="-105.2297734">
  <ele>1583.0</ele>
  <time>2026-08-28T17:50:39Z</time>
  <course>336.1</course>
  <speed>0.29</speed>
  <fix>3d</fix>
</trkpt>
<trkpt lat="40.0714012" lon="-105.2297737">
  <ele>1583.04</ele>
  <time>2026-08-28T17:50:39Z</time>
  <course>336.93</course>
  <speed>0.1</speed>
  <fix>3d</fix>
</trkpt>
<trkpt lat="40.0714014" lon="-105.2297736">
  <ele>1583.0</ele>
  <time>2026-08-28T17:50:39Z</time>
  <course>335.73</course>
  <speed>0.06</speed>
  <fix>3d</fix>
</trkpt>
<trkpt lat="40.0714011" lon="-105.2297737">
  <ele>1583.03</ele>
  <time>2026-08-28T17:50:39Z</time>
  <course>336.85</course>
  <speed>0.18439088914585774</speed>
  <fix>3d</fix>
</trkpt>
<trkpt lat="40.0714014" lon="-105.2297736">
  <ele>1583.0</ele>
  <time>2026-08-28T17:50:39Z</time>
  <course>335.73</course>
  <speed>0.06</speed>
  <fix>3d</fix>
</trkpt>
<trkpt lat="40.0714009" lon="-105.2297736">
  <ele>1583.03</ele>
  <time>2026-08-28T17:50:39Z</time>
  <course>336.73</course>
  <speed>0.23769728648009425</speed>
  <fix>3d</fix>
</trkpt>
<trkpt lat="40.0714014" lon="-105.2297735">
  <ele>1583.0</ele>
  <time>2026-08-28T17:50:39Z</time>
  <course>155.48</course>
  <speed>0.11</speed>
  <fix>3d</fix>
</trkpt>
<trkpt lat="40.0714007" lon="-105.2297735">
  <ele>1583.03</ele>
  <time>2026-08-28T17:50:39Z</time>
  <course>336.59</course>
  <speed>0.29410882339705485</speed>
  <fix>3d</fix>
</trkpt>
<trkpt lat="40.0714014" lon="-105.2297735">
  <ele>1583.0</ele>
  <time>2026-08-28T17:50:39Z</time>
  <course>155.48</course>
  <speed>0.11</speed>
  <fix>3d</fix>
</trkpt>
<trkpt lat="40.0714005" lon="-105.2297733">
  <ele>1583.03</ele>
  <time>2026-08-28T17:50:39Z</time>
  <course>336.44</course>
  <speed>0.32572994949804657</speed>
  <fix>3d</fix>
</trkpt>
<trkpt lat="40.0714011" lon="-105.2297734">
  <ele>1583.0</ele>
  <time>2026-08-28T17:50:39Z</time>
  <course>155.29</course>
  <speed>0.22</speed>
  <fix>3d</fix>
</trkpt>
<trkpt lat="40.0714003" lon="-105.2297732">
  <ele>1583.02</ele>
  <time>2026-08-28T17:50:39Z</time>
  <course>336.36</course>
  <speed>0.35114099732158877</speed>
  <fix>3d</fix>
</trkpt>
<trkpt lat="40.0714011" lon="-105.2297734">
  <ele>1583.0</ele>
  <time>2026-08-28T17:50:39Z</time>
  <course>155.29</course>
  <speed>0.22</speed>
  <fix>3d</fix>
</trkpt>
<trkpt lat="40.0714" lon="-105.2297731">
  <ele>1583.02</ele>
  <time>2026-08-28T17:50:39Z</time>
  <course>336.31</course>
  <speed>0.37336309405188944</speed>
  <fix>3d</fix>
</trkpt>
<trkpt lat="40.0714011" lon="-105.2297734">
  <ele>1583.0</ele>
  <time>2026-08-28T17:50:39Z</time>
  <course>155.29</course>
  <speed>0.22</speed>
  <fix>3d</fix>
</trkpt>
<trkpt lat="40.0713998" lon="-105.2297729">
  <ele>1583.02</ele>
  <time>2026-08-28T17:50:39Z</time>
  <course>336.34</course>
  <speed>0.354682957019364</speed>
  <fix>3d</fix>
</trkpt>
<trkpt lat="40.0714007" lon="-105.2297731">
  <ele>1583.0</ele>
  <time>2026-08-28T17:50:39Z</time>
  <course>155.12</course>
  <speed>0.28</speed>
  <fix>3d</fix>
</trkpt>
<trkpt lat="40.0713995" lon="-105.2297727">
  <ele>1583.02</ele>
  <time>2026-08-28T17:50:39Z</time>
  <course>336.38</course>
  <speed>0.3417601498127012</speed>
  <fix>3d</fix>
</trkpt>
<trkpt lat="40.0714007" lon="-105.2297731">
  <ele>1583.0</ele>
  <time>2026-08-28T17:50:39Z</time>
  <course>155.12</course>
  <speed>0.28</speed>
  <fix>3d</fix>
</trkpt>
<trkpt lat="40.0713993" lon="-105.2297726">
  <ele>1583.01</ele>
  <time>2026-08-28T17:50:39Z</time>
  <course>336.41</course>
  <speed>0.3231098884280702</speed>
  <fix>3d</fix>
</trkpt>
<trkpt lat="40.0714003" lon="-105.2297729">
  <ele>1583.0</ele>
  <time>2026-08-28T17:50:39Z</time>
  <course>155.11</course>
  <speed>0.29</speed>
  <fix>3d</fix>
</trkpt>
<trkpt lat="40.0713991" lon="-105.2297724">
  <ele>1583.01</ele>
  <time>2026-08-28T17:50:39Z</time>
  <course>336.45</course>
  <speed>0.3138470965295043</speed>
  <fix>3d</fix>
</trkpt>
<trkpt lat="40.0714003" lon="-105.2297729">
  <ele>1583.0</ele>
  <time>2026-08-28T17:50:39Z</time>
  <course>155.11</course>
  <speed>0.29</speed>
  <fix>3d</fix>
</trkpt>
<trkpt lat="40.0713989" lon="-105.2297723">
  <ele>1583.01</ele>
  <time>2026-08-28T17:50:39Z</time>
  <course>336.48</course>
  <speed>0.30083217912982646</speed>
  <fix>3d</fix>
</trkpt>
<trkpt lat="40.0713998" lon="-105.2297726">
  <ele>1583.0</ele>
  <time>2026-08-28T17:50:39Z</time>
  <course>155.2</course>
  <speed>0.26</speed>
  <fix>3d</fix>
</trkpt>
<trkpt lat="40.0713987" lon="-105.2297721">
  <ele>1583.01</ele>
  <time>2026-08-28T17:50:39Z</time>
  <course>336.51</course>
  <speed>0.291547594742265</speed>
  <fix>3d</fix>
</trkpt>
<trkpt lat="40.0713994" lon="-105.2297724">
  <ele>1583.0</ele>
  <time>2026-08-28T17:50:39Z</time>
  <course>155.28</course>
  <speed>0.24</speed>
  <fix>3d</fix>
</trkpt>
<trkpt lat="40.0713985" lon="-105.229772">
  <ele>1583.01</ele>
  <time>2026-08-28T17:50:39Z</time>
  <course>336.54</course>
  <speed>0.27313000567495327</speed>
  <fix>3d</fix>
</trkpt>
<trkpt lat="40.0713994" lon="-105.2297724">
  <ele>1583.0</ele>
  <time>2026-08-28T17:50:39Z</time>
  <course>155.28</course>
  <speed>0.24</speed>
  <fix>3d</fix>
</trkpt>
<trkpt lat="40.0713983" lon="-105.2297719">
  <ele>1583.01</ele>
  <time>2026-08-28T17:50:39Z</time>
  <course>336.58</course>
  <speed>0.2640075756488817</speed>
  <fix>3d</fix>
</trkpt>
<trkpt lat="40.071399" lon="-105.2297721">
  <ele>1583.0</ele>
  <time>2026-08-28T17:50:39Z</time>
  <course>155.36</course>
  <speed>0.21</speed>
  <fix>3d</fix>
</trkpt>
<trkpt lat="40.0713982" lon="-105.2297718">
  <ele>1583.0</ele>
  <time>2026-08-28T17:50:39Z</time>
  <course>336.61</course>
  <speed>0.25079872407968906</speed>
  <fix>3d</fix>
</trkpt>
<trkpt lat="40.071399" lon="-105.2297721">
  <ele>1583.0</ele>
  <time>2026-08-28T17:50:39Z</time>
  <course>155.36</course>
  <speed>0.21</speed>
  <fix>3d</fix>
</trkpt>
<trkpt lat="40.071398" lon="-105.2297717">
  <ele>1583.0</ele>
  <time>2026-08-28T17:50:39Z</time>
  <course>336.64</course>
  <speed>0.24166091947189144</speed>
  <fix>3d</fix>
</trkpt>
<trkpt lat="40.0713987" lon="-105.229772">
  <ele>1583.0</ele>
  <time>2026-08-28T17:50:39Z</time>
  <course>155.43</course>
  <speed>0.19</speed>
  <fix>3d</fix>
</trkpt>
<trkpt lat="40.0713979" lon="-105.2297716">
  <ele>1583.01</ele>
  <time>2026-08-28T17:50:39Z</time>
  <course>336.67</course>
  <speed>0.23259406699226015</speed>
  <fix>3d</fix>
</trkpt>
<trkpt lat="40.0713987" lon="-105.229772">
  <ele>1583.0</ele>
  <time>2026-08-28T17:50:39Z</time>
  <course>155.43</course>
  <speed>0.19</speed>
  <fix>3d</fix>
</trkpt>
<trkpt lat="40.0713978" lon="-105.2297715">
  <ele>1583.01</ele>
  <time>2026-08-28T17:50:39Z</time>
  <course>336.69</course>
  <speed>0.223606797749979</speed>
  <fix>3d</fix>
</trkpt>
<trkpt lat="40.0713984" lon="-105.2297718">
  <ele>1583.0</ele>
  <time>2026-08-28T17:50:39Z</time>
  <course>155.49</course>
  <speed>0.17</speed>
  <fix>3d</fix>
</trkpt>
<trkpt lat="40.0713976" lon="-105.2297714">
  <ele>1583.01</ele>
  <time>2026-08-28T17:50:39Z</time>
  <course>336.72</course>
  <speed>0.2102379604162864</speed>
  <fix>3d</fix>
</trkpt>
<trkpt lat="40.0713984" lon="-105.2297718">
  <ele>1583.0</ele>
  <time>2026-08-28T17:50:39Z</time>
  <course>155.49</course>
  <speed>0.17</speed>
  <fix>3d</fix>
</trkpt>
<trkpt lat="40.0713975" lon="-105.2297713">
  <ele>1583.02</ele>
  <time>2026-08-28T17:50:39Z</time>
  <course>336.75</course>
  <speed>0.20124611797498107</speed>
  <fix>3d</fix>
</trkpt>
<trkpt lat="40.0713981" lon="-105.2297716">
  <ele>1583.0</ele>
  <time>2026-08-28T17:50:39Z</time>
  <course>155.54</course>
  <speed>0.16</speed>
  <fix>3d</fix>
</trkpt>
<trkpt lat="40.0713974" lon="-105.2297712">
  <ele>1583.02</ele>
  <time>2026-08-28T17:50:39Z</time>
  <course>336.78</course>
  <speed>0.19235384061671343</speed>
  <fix>3d</fix>
</trkpt>
<trkpt lat="40.0713981" lon="-105.2297716">
  <ele>1583.0</ele>
  <time>2026-08-28T17:50:39Z</time>
  <course>155.54</course>
  <speed>0.16</speed>
  <fix>3d</fix>
</trkpt>
<trkpt lat="40.0713973" lon="-105.2297711">
  <ele>1583.02</ele>
  <time>2026-08-28T17:50:39Z</time>
  <course>336.8</course>
  <speed>0.1835755975068582</speed>
  <fix>3d</fix>
</trkpt>
<trkpt lat="40.0713978" lon="-105.2297715">
  <ele>1583.0</ele>
  <time>2026-08-28T17:50:39Z</time>
  <course>155.59</course>
  <speed>0.14</speed>
  <fix>3d</fix>
</trkpt>
<trkpt lat="40.0713972" lon="-105.2297711">
  <ele>1583.02</ele>
  <time>2026-08-28T17:50:39Z</time>
  <course>336.83</course>
  <speed>0.17888543819998318</speed>
  <fix>3d</fix>
</trkpt>
<trkpt lat="40.0713978" lon="-105.2297715">
  <ele>1583.0</ele>
  <time>2026-08-28T17:50:39Z</time>
  <course>155.59</course>
  <speed>0.14</speed>
  <fix>3d</fix>
</trkpt>
<trkpt lat="40.0713971" lon="-105.229771">
  <ele>1583.02</ele>
  <time>2026-08-28T17:50:39Z</time>
  <course>336.85</course>
  <speed>0.17</speed>
  <fix>3d</fix>
</trkpt>
<trkpt lat="40.0713977" lon="-105.2297714">
  <ele>1583.0</ele>
  <time>2026-08-28T17:50:39Z</time>
  <course>155.64</course>
  <speed>0.13</speed>
  <fix>3d</fix>
</trkpt>
<trkpt lat="40.071397" lon="-105.2297709">
  <ele>1583.01</ele>
  <time>2026-08-28T17:50:39Z</time>
  <course>336.87</course>
  <speed>0.16124515496597097</speed>
  <fix>3d</fix>
</trkpt>
<trkpt lat="40.0713977" lon="-105.2297714">
  <ele>1583.0</ele>
  <time>2026-08-28T17:50:39Z</time>
  <course>155.64</course>
  <speed>0.13</speed>
  <fix>3d</fix>
</trkpt>
<trkpt lat="40.0713969" lon="-105.2297709">
  <ele>1583.0</ele>
  <time>2026-08-28T17:50:39Z</time>
  <course>336.89</course>
  <speed>0.15264337522473748</speed>
  <fix>3d</fix>
</trkpt>
<trkpt lat="40.0713977" lon="-105.2297714">
  <ele>1583.0</ele>
  <time>2026-08-28T17:50:39Z</time>
  <course>155.64</course>
  <speed>0.13</speed>
  <fix>3d</fix>
</trkpt>
<trkpt lat="40.0713969" lon="-105.2297708">
  <ele>1582.99</ele>
  <time>2026-08-28T17:50:39Z</time>
  <course>336.91</course>
  <speed>0.15264337522473748</speed>
  <fix>3d</fix>
</trkpt>
<trkpt lat="40.0713974" lon="-105.2297712">
  <ele>1583.0</ele>
  <time>2026-08-28T17:50:39Z</time>
  <course>155.68</course>
  <speed>0.11</speed>
  <fix>3d</fix>
</trkpt>
<trkpt lat="40.0713968" lon="-105.2297707">
  <ele>1582.99</ele>
  <time>2026-08-28T17:50:39Z</time>
  <course>336.93</course>
  <speed>0.13892443989449804</speed>
  <fix>3d</fix>
</trkpt>
<trkpt lat="40.0713974" lon="-105.2297712">
  <ele>1583.0</ele>
  <time>2026-08-28T17:50:39Z</time>
  <course>155.68</course>
  <speed>0.11</speed>
  <fix>3d</fix>
</trkpt>
<trkpt lat="40.0713967" lon="-105.2297707">
  <ele>1582.98</ele>
  <time>2026-08-28T17:50:39Z</time>
  <course>336.95</course>
  <speed>0.13892443989449804</speed>
  <fix>3d</fix>
</trkpt>
<trkpt lat="40.0713973" lon="-105.2297711">
  <ele>1583.0</ele>
  <time>2026-08-28T17:50:39Z</time>
  <course>155.72</course>
  <speed>0.1</speed>
  <fix>3d</fix>
</trkpt>
<trkpt lat="40.0713967" lon="-105.2297706">
  <ele>1582.97</ele>
  <time>2026-08-28T17:50:39Z</time>
  <course>336.97</course>
  <speed>0.130384048104053</speed>
  <fix>3d</fix>
</trkpt>
<trkpt lat="40.0713973" lon="-105.2297711">
  <ele>1583.0</ele>
  <time>2026-08-28T17:50:39Z</time>
  <course>155.72</course>
  <speed>0.1</speed>
  <fix>3d</fix>
</trkpt>
<trkpt lat="40.0713966" lon="-105.2297706">
  <ele>1582.96</ele>
  <time>2026-08-28T17:50:39Z</time>
  <course>336.99</course>
  <speed>0.12206555615733702</speed>
  <fix>3d</fix>
</trkpt>
<trkpt lat="40.0713971" lon="-105.229771">
  <ele>1583.0</ele>
  <time>2026-08-28T17:50:39Z</time>
  <course>155.75</course>
  <speed>0.09</speed>
  <fix>3d</fix>
</trkpt>
<trkpt lat="40.0713966" lon="-105.2297705">
  <ele>1582.96</ele>
  <time>2026-08-28T17:50:39Z</time>
  <course>337.0</course>
  <speed>0.12206555615733702</speed>
  <fix>3d</fix>
</trkpt>
<trkpt lat="40.0713971" lon="-105.229771">
  <ele>1583.0</ele>
  <time>2026-08-28T17:50:39Z</time>
  <course>155.75</course>
  <speed>0.09</speed>
  <fix>3d</fix>
</trkpt>
<trkpt lat="40.0713965" lon="-105.2297705">
  <ele>1582.97</ele>
  <time>2026-08-28T17:50:39Z</time>
  <course>337.02</course>
  <speed>0.11401754250991379</speed>
  <fix>3d</fix>
</trkpt>
<trkpt lat="40.0713969" lon="-105.2297709">
  <ele>1583.0</ele>
  <time>2026-08-28T17:50:39Z</time>
  <course>155.78</course>
  <speed>0.08</speed>
  <fix>3d</fix>
</trkpt>
<trkpt lat="40.0713965" lon="-105.2297705">
  <ele>1582.97</ele>
  <time>2026-08-28T17:50:39Z</time>
  <course>337.04</course>
  <speed>0.10816653826391968</speed>
  <fix>3d</fix>
</trkpt>
<trkpt lat="40.0713968" lon="-105.2297708">
  <ele>1583.0</ele>
  <time>2026-08-28T17:50:39Z</time>
  <course>155.81</course>
  <speed>0.08</speed>
  <fix>3d</fix>
</trkpt>
<trkpt lat="40.0713964" lon="-105.2297704">
  <ele>1582.98</ele>
  <time>2026-08-28T17:50:39Z</time>
  <course>337.05</course>
  <speed>0.1</speed>
  <fix>3d</fix>
</trkpt>
<trkpt lat="40.0713968" lon="-105.2297708">
  <ele>1583.0</ele>
  <time>2026-08-28T17:50:39Z</time>
  <course>155.81</course>
  <speed>0.08</speed>
  <fix>3d</fix>
</trkpt>
<trkpt lat="40.0713964" lon="-105.2297704">
  <ele>1582.98</ele>
  <time>2026-08-28T17:50:39Z</time>
  <course>337.06</course>
  <speed>0.1</speed>
  <fix>3d</fix>
</trkpt>
<trkpt lat="40.0713966" lon="-105.2297708">
  <ele>1583.0</ele>
  <time>2026-08-28T17:50:39Z</time>
  <course>155.84</course>
  <speed>0.07</speed>
  <fix>3d</fix>
</trkpt>
<trkpt lat="40.0713962" lon="-105.2297703">
  <ele>1583.0</ele>
  <time>2026-08-28T17:50:40Z</time>
  <course>337.08</course>
  <speed>0.07810249675906654</speed>
  <fix>3d</fix>
</trkpt>
<trkpt lat="40.0713964" lon="-105.2297706">
  <ele>1583.0</ele>
  <time>2026-08-28T17:50:40Z</time>
  <course>155.86</course>
  <speed>0.05</speed>
  <fix>3d</fix>
</trkpt>
<trkpt lat="40.0713961" lon="-105.2297702">
  <ele>1583.02</ele>
  <time>2026-08-28T17:50:40Z</time>
  <course>337.08</course>
  <speed>0.07071067811865475</speed>
  <fix>3d</fix>
</trkpt>
<trkpt lat="40.0713963" lon="-105.2297706">
  <ele>1583.0</ele>
  <time>2026-08-28T17:50:40Z</time>
  <course>155.86</course>
  <speed>0.05</speed>
  <fix>3d</fix>
</trkpt>
<trkpt lat="40.0713961" lon="-105.2297702">
  <ele>1583.02</ele>
  <time>2026-08-28T17:50:40Z</time>
  <course>337.08</course>
  <speed>0.07071067811865475</speed>
  <fix>3d</fix>
</trkpt>
<trkpt lat="40.0713962" lon="-105.2297706">
  <ele>1583.0</ele>
  <time>2026-08-28T17:50:40Z</time>
  <course>155.86</course>
  <speed>0.04</speed>
  <fix>3d</fix>
</trkpt>
<trkpt lat="40.071396" lon="-105.2297702">
  <ele>1583.02</ele>
  <time>2026-08-28T17:50:40Z</time>
  <course>337.08</course>
  <speed>0.07071067811865475</speed>
  <fix>3d</fix>
</trkpt>
<trkpt lat="40.0713962" lon="-105.2297706">
  <ele>1583.0</ele>
  <time>2026-08-28T17:50:40Z</time>
  <course>155.86</course>
  <speed>0.04</speed>
  <fix>3d</fix>
</trkpt>
<trkpt lat="40.071396" lon="-105.2297702">
  <ele>1583.03</ele>
  <time>2026-08-28T17:50:40Z</time>
  <course>337.08</course>
  <speed>0.06403124237432849</speed>
  <fix>3d</fix>
</trkpt>
<trkpt lat="40.0713962" lon="-105.2297705">
  <ele>1583.0</ele>
  <time>2026-08-28T17:50:40Z</time>
  <course>155.86</course>
  <speed>0.04</speed>
  <fix>3d</fix>
</trkpt>
<trkpt lat="40.071396" lon="-105.2297701">
  <ele>1583.03</ele>
  <time>2026-08-28T17:50:40Z</time>
  <course>337.08</course>
  <speed>0.0565685424949238</speed>
  <fix>3d</fix>
</trkpt>
<trkpt lat="40.0713962" lon="-105.2297705">
  <ele>1583.0</ele>
  <time>2026-08-28T17:50:40Z</time>
  <course>155.86</course>
  <speed>0.04</speed>
  <fix>3d</fix>
</trkpt>
<trkpt lat="40.0713959" lon="-105.2297701">
  <ele>1583.03</ele>
  <time>2026-08-28T17:50:40Z</time>
  <course>337.08</course>
  <speed>0.0565685424949238</speed>
  <fix>3d</fix>
</trkpt>
<trkpt lat="40.0713961" lon="-105.2297705">
  <ele>1583.0</ele>
  <time>2026-08-28T17:50:40Z</time>
  <course>155.86</course>
  <speed>0.03</speed>
  <fix>3d</fix>
</trkpt>
<trkpt lat="40.0713959" lon="-105.2297701">
  <ele>1583.03</ele>
  <time>2026-08-28T17:50:40Z</time>
  <course>337.08</course>
  <speed>0.0565685424949238</speed>
  <fix>3d</fix>
</trkpt>
<trkpt lat="40.0713961" lon="-105.2297705">
  <ele>1583.0</ele>
  <time>2026-08-28T17:50:40Z</time>
  <course>155.86</course>
  <speed>0.03</speed>
  <fix>3d</fix>
</trkpt>
<trkpt lat="40.0713959" lon="-105.2297701">
  <ele>1583.03</ele>
  <time>2026-08-28T17:50:40Z</time>
  <course>337.08</course>
  <speed>0.05</speed>
  <fix>3d</fix>
</trkpt>
<trkpt lat="40.0713961" lon="-105.2297704">
  <ele>1583.0</ele>
  <time>2026-08-28T17:50:40Z</time>
  <course>155.86</course>
  <speed>0.03</speed>
  <fix>3d</fix>
</trkpt>
<trkpt lat="40.0713959" lon="-105.2297701">
  <ele>1583.03</ele>
  <time>2026-08-28T17:50:40Z</time>
  <course>337.08</course>
  <speed>0.05</speed>
  <fix>3d</fix>
</trkpt>
<trkpt lat="40.0713961" lon="-105.2297704">
  <ele>1583.0</ele>
  <time>2026-08-28T17:50:40Z</time>
  <course>155.86</course>
  <speed>0.03</speed>
  <fix>3d</fix>
</trkpt>
<trkpt lat="40.0713959" lon="-105.2297701">
  <ele>1583.03</ele>
  <time>2026-08-28T17:50:40Z</time>
  <course>337.08</course>
  <speed>0.05</speed>
  <fix>3d</fix>
</trkpt>
<trkpt lat="40.071396" lon="-105.2297703">
  <ele>1583.0</ele>
  <time>2026-08-28T17:50:40Z</time>
  <course>155.86</course>
  <speed>0.03</speed>
  <fix>3d</fix>
</trkpt>
<trkpt lat="40.0713959" lon="-105.2297701">
  <ele>1583.02</ele>
  <time>2026-08-28T17:50:40Z</time>
  <course>337.08</course>
  <speed>0.05</speed>
  <fix>3d</fix>
</trkpt>
<trkpt lat="40.071396" lon="-105.2297703">
  <ele>1583.0</ele>
  <time>2026-08-28T17:50:40Z</time>
  <course>155.86</course>
  <speed>0.02</speed>
  <fix>3d</fix>
</trkpt>
<trkpt lat="40.0713958" lon="-105.2297701">
  <ele>1583.01</ele>
  <time>2026-08-28T17:50:40Z</time>
  <course>337.08</course>
  <speed>0.04242640687119285</speed>
  <fix>3d</fix>
</trkpt>
<trkpt lat="40.071396" lon="-105.2297703">
  <ele>1583.0</ele>
  <time>2026-08-28T17:50:40Z</time>
  <course>155.86</course>
  <speed>0.02</speed>
  <fix>3d</fix>
</trkpt>
<trkpt lat="40.0713958" lon="-105.22977">
  <ele>1583.01</ele>
  <time>2026-08-28T17:50:40Z</time>
  <course>337.08</course>
  <speed>0.03605551275463989</speed>
  <fix>3d</fix>
</trkpt>
<trkpt lat="40.0713959" lon="-105.2297703">
  <ele>1583.0</ele>
  <time>2026-08-28T17:50:40Z</time>
  <course>155.87</course>
  <speed>0.02</speed>
  <fix>3d</fix>
</trkpt>
<trkpt lat="40.0713958" lon="-105.22977">
  <ele>1583.0</ele>
  <time>2026-08-28T17:50:40Z</time>
  <course>337.08</course>
  <speed>0.03605551275463989</speed>
  <fix>3d</fix>
</trkpt>
<trkpt lat="40.0713959" lon="-105.2297703">
  <ele>1583.0</ele>
  <time>2026-08-28T17:50:40Z</time>
  <course>155.87</course>
  <speed>0.02</speed>
  <fix>3d</fix>
</trkpt>
<trkpt lat="40.0713958" lon="-105.22977">
  <ele>1583.0</ele>
  <time>2026-08-28T17:50:40Z</time>
  <course>337.08</course>
  <speed>0.03605551275463989</speed>
  <fix>3d</fix>
</trkpt>
<trkpt lat="40.0713959" lon="-105.2297703">
  <ele>1583.0</ele>
  <time>2026-08-28T17:50:40Z</time>
  <course>155.87</course>
  <speed>0.02</speed>
  <fix>3d</fix>
</trkpt>
<trkpt lat="40.0713958" lon="-105.22977">
  <ele>1583.0</ele>
  <time>2026-08-28T17:50:40Z</time>
  <course>337.08</course>
  <speed>0.03605551275463989</speed>
  <fix>3d</fix>
</trkpt>
<trkpt lat="40.0713959" lon="-105.2297703">
  <ele>1583.0</ele>
  <time>2026-08-28T17:50:40Z</time>
  <course>155.87</course>
  <speed>0.02</speed>
  <fix>3d</fix>
</trkpt>
<trkpt lat="40.0713958" lon="-105.22977">
  <ele>1582.99</ele>
  <time>2026-08-28T17:50:40Z</time>
  <course>337.08</course>
  <speed>0.03605551275463989</speed>
  <fix>3d</fix>
</trkpt>
<trkpt lat="40.0713958" lon="-105.2297703">
  <ele>1583.0</ele>
  <time>2026-08-28T17:50:40Z</time>
  <course>155.87</course>
  <speed>0.02</speed>
  <fix>3d</fix>
</trkpt>
<trkpt lat="40.0713958" lon="-105.22977">
  <ele>1582.99</ele>
  <time>2026-08-28T17:50:40Z</time>
  <course>337.08</course>
  <speed>0.03605551275463989</speed>
  <fix>3d</fix>
</trkpt>
<trkpt lat="40.0713958" lon="-105.2297703">
  <ele>1583.0</ele>
  <time>2026-08-28T17:50:40Z</time>
  <course>155.87</course>
  <speed>0.02</speed>
  <fix>3d</fix>
</trkpt>
<trkpt lat="40.0713958" lon="-105.22977">
  <ele>1582.99</ele>
  <time>2026-08-28T17:50:40Z</time>
  <course>337.08</course>
  <speed>0.03605551275463989</speed>
  <fix>3d</fix>
</trkpt>
<trkpt lat="40.0713958" lon="-105.2297703">
  <ele>1583.0</ele>
  <time>2026-08-28T17:50:40Z</time>
  <course>155.87</course>
  <speed>0.01</speed>
  <fix>3d</fix>
</trkpt>
<trkpt lat="40.0713958" lon="-105.22977">
  <ele>1582.99</ele>
  <time>2026-08-28T17:50:40Z</time>
  <course>337.08</course>
  <speed>0.03605551275463989</speed>
  <fix>3d</fix>
</trkpt>
<trkpt lat="40.0713958" lon="-105.2297703">
  <ele>1583.0</ele>
  <time>2026-08-28T17:50:40Z</time>
  <course>155.87</course>
  <speed>0.01</speed>
  <fix>3d</fix>
</trkpt>
<trkpt lat="40.0713957" lon="-105.22977">
  <ele>1582.99</ele>
  <time>2026-08-28T17:50:40Z</time>
  <course>337.08</course>
  <speed>0.03605551275463989</speed>
  <fix>3d</fix>
</trkpt>
<trkpt lat="40.0713958" lon="-105.2297703">
  <ele>1583.0</ele>
  <time>2026-08-28T17:50:40Z</time>
  <course>155.87</course>
  <speed>0.01</speed>
  <fix>3d</fix>
</trkpt>
<trkpt lat="40.0713957" lon="-105.22977">
  <ele>1582.99</ele>
  <time>2026-08-28T17:50:40Z</time>
  <course>337.08</course>
  <speed>0.03605551275463989</speed>
  <fix>3d</fix>
</trkpt>
<trkpt lat="40.0713958" lon="-105.2297703">
  <ele>1583.0</ele>
  <time>2026-08-28T17:50:40Z</time>
  <course>155.87</course>
  <speed>0.01</speed>
  <fix>3d</fix>
</trkpt>
<trkpt lat="40.0713957" lon="-105.22977">
  <ele>1582.98</ele>
  <time>2026-08-28T17:50:40Z</time>
  <course>337.08</course>
  <speed>0.0316227766016838</speed>
  <fix>3d</fix>
</trkpt>
<trkpt lat="40.0713958" lon="-105.2297703">
  <ele>1583.0</ele>
  <time>2026-08-28T17:50:40Z</time>
  <course>155.88</course>
  <speed>0.01</speed>
  <fix>3d</fix>
</trkpt>
<trkpt lat="40.0713957" lon="-105.22977">
  <ele>1582.98</ele>
  <time>2026-08-28T17:50:40Z</time>
  <course>337.08</course>
  <speed>0.022360679774997897</speed>
  <fix>3d</fix>
</trkpt>
<trkpt lat="40.0713958" lon="-105.2297703">
  <ele>1583.0</ele>
  <time>2026-08-28T17:50:40Z</time>
  <course>155.88</course>
  <speed>0.01</speed>
  <fix>3d</fix>
</trkpt>
<trkpt lat="40.0713957" lon="-105.22977">
  <ele>1582.98</ele>
  <time>2026-08-28T17:50:40Z</time>
  <course>337.08</course>
  <speed>0.022360679774997897</speed>
  <fix>3d</fix>
</trkpt>
<trkpt lat="40.0713958" lon="-105.2297703">
  <ele>1583.0</ele>
  <time>2026-08-28T17:50:40Z</time>
  <course>155.88</course>
  <speed>0.01</speed>
  <fix>3d</fix>
</trkpt>
<trkpt lat="40.0713957" lon="-105.22977">
  <ele>1582.97</ele>
  <time>2026-08-28T17:50:40Z</time>
  <course>337.08</course>
  <speed>0.022360679774997897</speed>
  <fix>3d</fix>
</trkpt>
<trkpt lat="40.0713957" lon="-105.2297703">
  <ele>1583.0</ele>
  <time>2026-08-28T17:50:40Z</time>
  <course>155.88</course>
  <speed>0.01</speed>
  <fix>3d</fix>
</trkpt>
<trkpt lat="39.655741" lon="-104.1383097">
  <ele>1566.58</ele>
  <time>2026-08-28T17:50:40Z</time>
  <course>0.0</course>
  <speed>0.0</speed>
  <fix>3d</fix>
</trkpt>
<trkpt lat="40.0713749" lon="-105.229789">
  <ele>1583.0</ele>
  <time>2026-08-28T17:50:40Z</time>
  <course>0.0</course>
  <speed>0.0</speed>
  <fix>3d</fix>
</trkpt>
<trkpt lat="40.0713749" lon="-105.229789">
  <ele>1583.0</ele>
  <time>2026-08-28T17:50:40Z</time>
  <course>238.36</course>
  <speed>0.0</speed>
  <fix>3d</fix>
</trkpt>
<trkpt lat="40.0713749" lon="-105.229789">
  <ele>1583.0</ele>
  <time>2026-08-28T17:50:40Z</time>
  <course>0.0</course>
  <speed>0.0</speed>
  <fix>3d</fix>
</trkpt>
<trkpt lat="40.0713749" lon="-105.229789">
  <ele>1583.0</ele>
  <time>2026-08-28T17:50:40Z</time>
  <course>238.44</course>
  <speed>0.0</speed>
  <fix>3d</fix>
</trkpt>
<trkpt lat="40.0713749" lon="-105.229789">
  <ele>1583.0</ele>
  <time>2026-08-28T17:50:40Z</time>
  <course>0.0</course>
  <speed>0.0</speed>
  <fix>3d</fix>
</trkpt>
<trkpt lat="40.0713749" lon="-105.229789">
  <ele>1583.0</ele>
  <time>2026-08-28T17:50:40Z</time>
  <course>238.64</course>
  <speed>0.0</speed>
  <fix>3d</fix>
</trkpt>
<trkpt lat="40.0713749" lon="-105.229789">
  <ele>1583.0</ele>
  <time>2026-08-28T17:50:40Z</time>
  <course>0.0</course>
  <speed>0.0</speed>
  <fix>3d</fix>
</trkpt>
<trkpt lat="40.0713749" lon="-105.229789">
  <ele>1583.0</ele>
  <time>2026-08-28T17:50:40Z</time>
  <course>238.93</course>
  <speed>0.0</speed>
  <fix>3d</fix>
</trkpt>
<trkpt lat="40.0713749" lon="-105.229789">
  <ele>1583.0</ele>
  <time>2026-08-28T17:50:40Z</time>
  <course>0.0</course>
  <speed>0.0</speed>
  <fix>3d</fix>
</trkpt>
<trkpt lat="40.0713749" lon="-105.229789">
  <ele>1583.0</ele>
  <time>2026-08-28T17:50:40Z</time>
  <course>239.26</course>
  <speed>0.0</speed>
  <fix>3d</fix>
</trkpt>
<trkpt lat="40.0713749" lon="-105.229789">
  <ele>1583.0</ele>
  <time>2026-08-28T17:50:40Z</time>
  <course>0.0</course>
  <speed>0.0</speed>
  <fix>3d</fix>
</trkpt>
<trkpt lat="40.0713749" lon="-105.229789">
  <ele>1583.0</ele>
  <time>2026-08-28T17:50:40Z</time>
  <course>239.61</course>
  <speed>0.0</speed>
  <fix>3d</fix>
</trkpt>
<trkpt lat="40.0713749" lon="-105.229789">
  <ele>1583.0</ele>
  <time>2026-08-28T17:50:40Z</time>
  <course>0.0</course>
  <speed>0.0</speed>
  <fix>3d</fix>
</trkpt>
<trkpt lat="40.0713749" lon="-105.229789">
  <ele>1583.0</ele>
  <time>2026-08-28T17:50:40Z</time>
  <course>239.96</course>
  <speed>0.0</speed>
  <fix>3d</fix>
</trkpt>
<trkpt lat="40.0713749" lon="-105.229789">
  <ele>1583.0</ele>
  <time>2026-08-28T17:50:40Z</time>
  <course>0.0</course>
  <speed>0.0</speed>
  <fix>3d</fix>
</trkpt>
<trkpt lat="40.0713749" lon="-105.229789">
  <ele>1583.0</ele>
  <time>2026-08-28T17:50:40Z</time>
  <course>240.29</course>
  <speed>0.0</speed>
  <fix>3d</fix>
</trkpt>
<trkpt lat="40.0713749" lon="-105.229789">
  <ele>1583.0</ele>
  <time>2026-08-28T17:50:40Z</time>
  <course>0.0</course>
  <speed>0.0</speed>
  <fix>3d</fix>
</trkpt>
<trkpt lat="40.0713749" lon="-105.229789">
  <ele>1583.0</ele>
  <time>2026-08-28T17:50:40Z</time>
  <course>240.61</course>
  <speed>0.0</speed>
  <fix>3d</fix>
</trkpt>
<trkpt lat="40.0713749" lon="-105.229789">
  <ele>1583.0</ele>
  <time>2026-08-28T17:50:40Z</time>
  <course>0.0</course>
  <speed>0.0</speed>
  <fix>3d</fix>
</trkpt>
<trkpt lat="40.0713749" lon="-105.229789">
  <ele>1583.0</ele>
  <time>2026-08-28T17:50:40Z</time>
  <course>240.92</course>
  <speed>0.0</speed>
  <fix>3d</fix>
</trkpt>
<trkpt lat="40.0713749" lon="-105.229789">
  <ele>1583.0</ele>
  <time>2026-08-28T17:50:40Z</time>
  <course>0.0</course>
  <speed>0.0</speed>
  <fix>3d</fix>
</trkpt>
<trkpt lat="40.0713749" lon="-105.229789">
  <ele>1583.0</ele>
  <time>2026-08-28T17:50:40Z</time>
  <course>241.21</course>
  <speed>0.0</speed>
  <fix>3d</fix>
</trkpt>
<trkpt lat="40.0713749" lon="-105.229789">
  <ele>1583.0</ele>
  <time>2026-08-28T17:50:40Z</time>
  <course>0.0</course>
  <speed>0.0</speed>
  <fix>3d</fix>
</trkpt>
<trkpt lat="40.0713749" lon="-105.229789">
  <ele>1583.0</ele>
  <time>2026-08-28T17:50:40Z</time>
  <course>241.49</course>
  <speed>0.0</speed>
  <fix>3d</fix>
</trkpt>
<trkpt lat="40.0713749" lon="-105.229789">
  <ele>1583.0</ele>
  <time>2026-08-28T17:50:40Z</time>
  <course>0.0</course>
  <speed>0.0</speed>
  <fix>3d</fix>
</trkpt>
<trkpt lat="40.0713749" lon="-105.229789">
  <ele>1583.0</ele>
  <time>2026-08-28T17:50:40Z</time>
  <course>241.77</course>
  <speed>0.0</speed>
  <fix>3d</fix>
</trkpt>
<trkpt lat="40.0713749" lon="-105.229789">
  <ele>1583.0</ele>
  <time>2026-08-28T17:50:40Z</time>
  <course>0.0</course>
  <speed>0.0</speed>
  <fix>3d</fix>
</trkpt>
<trkpt lat="40.0713749" lon="-105.229789">
  <ele>1583.0</ele>
  <time>2026-08-28T17:50:40Z</time>
  <course>242.03</course>
  <speed>0.0</speed>
  <fix>3d</fix>
</trkpt>
<trkpt lat="40.0713749" lon="-105.229789">
  <ele>1583.0</ele>
  <time>2026-08-28T17:50:40Z</time>
  <course>0.0</course>
  <speed>0.0</speed>
  <fix>3d</fix>
</trkpt>
<trkpt lat="40.0713749" lon="-105.229789">
  <ele>1583.0</ele>
  <time>2026-08-28T17:50:40Z</time>
  <course>242.29</course>
  <speed>0.0</speed>
  <fix>3d</fix>
</trkpt>
<trkpt lat="40.0713749" lon="-105.229789">
  <ele>1583.0</ele>
  <time>2026-08-28T17:50:40Z</time>
  <course>0.0</course>
  <speed>0.0</speed>
  <fix>3d</fix>
</trkpt>
<trkpt lat="40.0713749" lon="-105.229789">
  <ele>1583.0</ele>
  <time>2026-08-28T17:50:40Z</time>
  <course>242.54</course>
  <speed>0.0</speed>
  <fix>3d</fix>
</trkpt>
<trkpt lat="40.0713749" lon="-105.229789">
  <ele>1583.0</ele>
  <time>2026-08-28T17:50:40Z</time>
  <course>0.0</course>
  <speed>0.0</speed>
  <fix>3d</fix>
</trkpt>
<trkpt lat="40.0713749" lon="-105.229789">
  <ele>1583.0</ele>
  <time>2026-08-28T17:50:40Z</time>
  <course>242.79</course>
  <speed>0.0</speed>
  <fix>3d</fix>
</trkpt>
<trkpt lat="40.0713749" lon="-105.229789">
  <ele>1583.0</ele>
  <time>2026-08-28T17:50:40Z</time>
  <course>0.0</course>
  <speed>0.0</speed>
  <fix>3d</fix>
</trkpt>
<trkpt lat="40.0713749" lon="-105.229789">
  <ele>1583.0</ele>
  <time>2026-08-28T17:50:40Z</time>
  <course>243.02</course>
  <speed>0.0</speed>
  <fix>3d</fix>
</trkpt>
<trkpt lat="40.0713749" lon="-105.229789">
  <ele>1583.0</ele>
  <time>2026-08-28T17:50:40Z</time>
  <course>0.0</course>
  <speed>0.0</speed>
  <fix>3d</fix>
</trkpt>
<trkpt lat="40.0713749" lon="-105.229789">
  <ele>1583.0</ele>
  <time>2026-08-28T17:50:40Z</time>
  <course>243.25</course>
  <speed>0.0</speed>
  <fix>3d</fix>
</trkpt>
<trkpt lat="40.0713749" lon="-105.229789">
  <ele>1583.0</ele>
  <time>2026-08-28T17:50:40Z</time>
  <course>0.0</course>
  <speed>0.0</speed>
  <fix>3d</fix>
</trkpt>
<trkpt lat="40.0713749" lon="-105.229789">
  <ele>1583.0</ele>
  <time>2026-08-28T17:50:40Z</time>
  <course>243.47</course>
  <speed>0.0</speed>
  <fix>3d</fix>
</trkpt>
<trkpt lat="40.0713749" lon="-105.229789">
  <ele>1583.0</ele>
  <time>2026-08-28T17:50:40Z</time>
  <course>0.0</course>
  <speed>0.0</speed>
  <fix>3d</fix>
</trkpt>
<trkpt lat="40.0713749" lon="-105.229789">
  <ele>1583.0</ele>
  <time>2026-08-28T17:50:40Z</time>
  <course>243.68</course>
  <speed>0.0</speed>
  <fix>3d</fix>
</trkpt>
<trkpt lat="40.0713749" lon="-105.229789">
  <ele>1583.0</ele>
  <time>2026-08-28T17:50:40Z</time>
  <course>0.0</course>
  <speed>0.0</speed>
  <fix>3d</fix>
</trkpt>
<trkpt lat="40.0713749" lon="-105.229789">
  <ele>1583.0</ele>
  <time>2026-08-28T17:50:40Z</time>
  <course>243.89</course>
  <speed>0.0</speed>
  <fix>3d</fix>
</trkpt>
<trkpt lat="40.0713749" lon="-105.229789">
  <ele>1583.0</ele>
  <time>2026-08-28T17:50:40Z</time>
  <course>0.0</course>
  <speed>0.0</speed>
  <fix>3d</fix>
</trkpt>
<trkpt lat="40.0713749" lon="-105.229789">
  <ele>1583.0</ele>
  <time>2026-08-28T17:50:40Z</time>
  <course>244.09</course>
  <speed>0.0</speed>
  <fix>3d</fix>
</trkpt>
<trkpt lat="40.0713749" lon="-105.229789">
  <ele>1583.0</ele>
  <time>2026-08-28T17:50:40Z</time>
  <course>0.0</course>
  <speed>0.0</speed>
  <fix>3d</fix>
</trkpt>
<trkpt lat="40.0713749" lon="-105.229789">
  <ele>1583.0</ele>
  <time>2026-08-28T17:50:40Z</time>
  <course>244.28</course>
  <speed>0.0</speed>
  <fix>3d</fix>
</trkpt>
<trkpt lat="40.0713749" lon="-105.229789">
  <ele>1583.0</ele>
  <time>2026-08-28T17:50:40Z</time>
  <course>0.0</course>
  <speed>0.0</speed>
  <fix>3d</fix>
</trkpt>
<trkpt lat="40.0713749" lon="-105.229789">
  <ele>1583.0</ele>
  <time>2026-08-28T17:50:40Z</time>
  <course>244.46</course>
  <speed>0.0</speed>
  <fix>3d</fix>
</trkpt>
<trkpt lat="40.0713749" lon="-105.229789">
  <ele>1583.0</ele>
  <time>2026-08-28T17:50:40Z</time>
  <course>0.0</course>
  <speed>0.0</speed>
  <fix>3d</fix>
</trkpt>
<trkpt lat="40.0713749" lon="-105.229789">
  <ele>1583.0</ele>
  <time>2026-08-28T17:50:40Z</time>
  <course>244.64</course>
  <speed>0.0</speed>
  <fix>3d</fix>
</trkpt>
<trkpt lat="40.0713749" lon="-105.229789">
  <ele>1583.0</ele>
  <time>2026-08-28T17:50:40Z</time>
  <course>0.0</course>
  <speed>0.0</speed>
  <fix>3d</fix>
</trkpt>
<trkpt lat="40.0713749" lon="-105.229789">
  <ele>1583.0</ele>
  <time>2026-08-28T17:50:40Z</time>
  <course>244.81</course>
  <speed>0.0</speed>
  <fix>3d</fix>
</trkpt>
<trkpt lat="40.0713749" lon="-105.229789">
  <ele>1583.0</ele>
  <time>2026-08-28T17:50:40Z</time>
  <course>0.0</course>
  <speed>0.0</speed>
  <fix>3d</fix>
</trkpt>
<trkpt lat="40.0713749" lon="-105.229789">
  <ele>1583.0</ele>
  <time>2026-08-28T17:50:40Z</time>
  <course>244.97</course>
  <speed>0.0</speed>
  <fix>3d</fix>
</trkpt>
<trkpt lat="40.0713749" lon="-105.229789">
  <ele>1583.0</ele>
  <time>2026-08-28T17:50:40Z</time>
  <course>0.0</course>
  <speed>0.0</speed>
  <fix>3d</fix>
</trkpt>
<trkpt lat="40.0713749" lon="-105.229789">
  <ele>1583.0</ele>
  <time>2026-08-28T17:50:40Z</time>
  <course>245.13</course>
  <speed>0.0</speed>
  <fix>3d</fix>
</trkpt>
<trkpt lat="40.0713749" lon="-105.229789">
  <ele>1583.0</ele>
  <time>2026-08-28T17:50:40Z</time>
  <course>0.0</course>
  <speed>0.0</speed>
  <fix>3d</fix>
</trkpt>
<trkpt lat="40.0713749" lon="-105.229789">
  <ele>1583.0</ele>
  <time>2026-08-28T17:50:40Z</time>
  <course>245.29</course>
  <speed>0.0</speed>
  <fix>3d</fix>
</trkpt>
<trkpt lat="40.0713749" lon="-105.229789">
  <ele>1583.0</ele>
  <time>2026-08-28T17:50:40Z</time>
  <course>0.0</course>
  <speed>0.0</speed>
  <fix>3d</fix>
</trkpt>
<trkpt lat="40.0713749" lon="-105.229789">
  <ele>1583.0</ele>
  <time>2026-08-28T17:50:40Z</time>
  <course>245.43</course>
  <speed>0.0</speed>
  <fix>3d</fix>
</trkpt>
<trkpt lat="40.0713749" lon="-105.229789">
  <ele>1583.0</ele>
  <time>2026-08-28T17:50:40Z</time>
  <course>0.0</course>
  <speed>0.0</speed>
  <fix>3d</fix>
</trkpt>
<trkpt lat="40.0713749" lon="-105.229789">
  <ele>1583.0</ele>
  <time>2026-08-28T17:50:40Z</time>
  <course>245.57</course>
  <speed>0.0</speed>
  <fix>3d</fix>
</trkpt>
<trkpt lat="40.0713749" lon="-105.229789">
  <ele>1583.0</ele>
  <time>2026-08-28T17:50:40Z</time>
  <course>0.0</course>
  <speed>0.0</speed>
  <fix>3d</fix>
</trkpt>
<trkpt lat="40.0713749" lon="-105.229789">
  <ele>1583.0</ele>
  <time>2026-08-28T17:50:40Z</time>
  <course>245.71</course>
  <speed>0.0</speed>
  <fix>3d</fix>
</trkpt>
<trkpt lat="40.0713749" lon="-105.229789">
  <ele>1583.0</ele>
  <time>2026-08-28T17:50:40Z</time>
  <course>0.0</course>
  <speed>0.0</speed>
  <fix>3d</fix>
</trkpt>
<trkpt lat="40.0713749" lon="-105.229789">
  <ele>1583.0</ele>
  <time>2026-08-28T17:50:40Z</time>
  <course>245.84</course>
  <speed>0.0</speed>
  <fix>3d</fix>
</trkpt>
<trkpt lat="40.0713749" lon="-105.229789">
  <ele>1583.0</ele>
  <time>2026-08-28T17:50:40Z</time>
  <course>0.0</course>
  <speed>0.0</speed>
  <fix>3d</fix>
</trkpt>
<trkpt lat="40.0713749" lon="-105.229789">
  <ele>1583.0</ele>
  <time>2026-08-28T17:50:40Z</time>
  <course>245.96</course>
  <speed>0.0</speed>
  <fix>3d</fix>
</trkpt>
<trkpt lat="40.0713749" lon="-105.229789">
  <ele>1583.0</ele>
  <time>2026-08-28T17:50:40Z</time>
  <course>0.0</course>
  <speed>0.0</speed>
  <fix>3d</fix>
</trkpt>
<trkpt lat="40.0713749" lon="-105.229789">
  <ele>1583.0</ele>
  <time>2026-08-28T17:50:40Z</time>
  <course>246.08</course>
  <speed>0.0</speed>
  <fix>3d</fix>
</trkpt>
<trkpt lat="40.0713749" lon="-105.229789">
  <ele>1583.0</ele>
  <time>2026-08-28T17:50:40Z</time>
  <course>0.0</course>
  <speed>0.0</speed>
  <fix>3d</fix>
</trkpt>
<trkpt lat="40.0713749" lon="-105.229789">
  <ele>1583.0</ele>
  <time>2026-08-28T17:50:40Z</time>
  <course>246.19</course>
  <speed>0.0</speed>
  <fix>3d</fix>
</trkpt>
<trkpt lat="40.0713749" lon="-105.229789">
  <ele>1583.0</ele>
  <time>2026-08-28T17:50:40Z</time>
  <course>0.0</course>
  <speed>0.0</speed>
  <fix>3d</fix>
</trkpt>
<trkpt lat="40.0713749" lon="-105.229789">
  <ele>1583.0</ele>
  <time>2026-08-28T17:50:40Z</time>
  <course>246.3</course>
  <speed>0.0</speed>
  <fix>3d</fix>
</trkpt>
<trkpt lat="40.0713749" lon="-105.229789">
  <ele>1583.0</ele>
  <time>2026-08-28T17:50:40Z</time>
  <course>0.0</course>
  <speed>0.0</speed>
  <fix>3d</fix>
</trkpt>
<trkpt lat="40.0713749" lon="-105.229789">
  <ele>1583.0</ele>
  <time>2026-08-28T17:50:40Z</time>
  <course>246.41</course>
  <speed>0.0</speed>
  <fix>3d</fix>
</trkpt>
<trkpt lat="40.0713749" lon="-105.229789">
  <ele>1583.0</ele>
  <time>2026-08-28T17:50:40Z</time>
  <course>0.0</course>
  <speed>0.0</speed>
  <fix>3d</fix>
</trkpt>
<trkpt lat="40.0713749" lon="-105.229789">
  <ele>1583.0</ele>
  <time>2026-08-28T17:50:40Z</time>
  <course>246.51</course>
  <speed>0.0</speed>
  <fix>3d</fix>
</trkpt>
<trkpt lat="40.0713749" lon="-105.229789">
  <ele>1583.0</ele>
  <time>2026-08-28T17:50:40Z</time>
  <course>0.0</course>
  <speed>0.0</speed>
  <fix>3d</fix>
</trkpt>
<trkpt lat="40.0713749" lon="-105.229789">
  <ele>1583.0</ele>
  <time>2026-08-28T17:50:40Z</time>
  <course>246.6</course>
  <speed>0.0</speed>
  <fix>3d</fix>
</trkpt>
<trkpt lat="40.0713749" lon="-105.229789">
  <ele>1583.0</ele>
  <time>2026-08-28T17:50:40Z</time>
  <course>0.0</course>
  <speed>0.0</speed>
  <fix>3d</fix>
</trkpt>
<trkpt lat="40.0713749" lon="-105.229789">
  <ele>1583.0</ele>
  <time>2026-08-28T17:50:40Z</time>
  <course>246.7</course>
  <speed>0.0</speed>
  <fix>3d</fix>
</trkpt>
<trkpt lat="40.0713749" lon="-105.229789">
  <ele>1583.0</ele>
  <time>2026-08-28T17:50:40Z</time>
  <course>0.0</course>
  <speed>0.0</speed>
  <fix>3d</fix>
</trkpt>
<trkpt lat="40.0713749" lon="-105.229789">
  <ele>1583.0</ele>
  <time>2026-08-28T17:50:40Z</time>
  <course>246.78</course>
  <speed>0.0</speed>
  <fix>3d</fix>
</trkpt>
<trkpt lat="40.0713749" lon="-105.229789">
  <ele>1583.0</ele>
  <time>2026-08-28T17:50:40Z</time>
  <course>0.0</course>
  <speed>0.0</speed>
  <fix>3d</fix>
</trkpt>
<trkpt lat="40.0713749" lon="-105.229789">
  <ele>1583.0</ele>
  <time>2026-08-28T17:50:40Z</time>
  <course>246.87</course>
  <speed>0.0</speed>
  <fix>3d</fix>
</trkpt>
<trkpt lat="40.0713749" lon="-105.229789">
  <ele>1583.0</ele>
  <time>2026-08-28T17:50:40Z</time>
  <course>0.0</course>
  <speed>0.0</speed>
  <fix>3d</fix>
</trkpt>
<trkpt lat="40.0713749" lon="-105.229789">
  <ele>1583.0</ele>
  <time>2026-08-28T17:50:40Z</time>
  <course>246.95</course>
  <speed>0.0</speed>
  <fix>3d</fix>
</trkpt>
<trkpt lat="40.0713749" lon="-105.229789">
  <ele>1583.0</ele>
  <time>2026-08-28T17:50:40Z</time>
  <course>0.0</course>
  <speed>0.0</speed>
  <fix>3d</fix>
</trkpt>
<trkpt lat="40.0713749" lon="-105.229789">
  <ele>1583.0</ele>
  <time>2026-08-28T17:50:40Z</time>
  <course>247.02</course>
  <speed>0.0</speed>
  <fix>3d</fix>
</trkpt>
<trkpt lat="40.0713749" lon="-105.229789">
  <ele>1583.0</ele>
  <time>2026-08-28T17:50:40Z</time>
  <course>0.0</course>
  <speed>0.0</speed>
  <fix>3d</fix>
</trkpt>
<trkpt lat="40.0713749" lon="-105.229789">
  <ele>1583.0</ele>
  <time>2026-08-28T17:50:40Z</time>
  <course>247.1</course>
  <speed>0.0</speed>
  <fix>3d</fix>
</trkpt>
<trkpt lat="40.0713749" lon="-105.229789">
  <ele>1583.0</ele>
  <time>2026-08-28T17:50:40Z</time>
  <course>0.0</course>
  <speed>0.0</speed>
  <fix>3d</fix>
</trkpt>
<trkpt lat="40.0713749" lon="-105.229789">
  <ele>1583.0</ele>
  <time>2026-08-28T17:50:40Z</time>
  <course>247.17</course>
  <speed>0.0</speed>
  <fix>3d</fix>
</trkpt>
<trkpt lat="40.0713749" lon="-105.229789">
  <ele>1583.0</ele>
  <time>2026-08-28T17:50:40Z</time>
  <course>0.0</course>
  <speed>0.0</speed>
  <fix>3d</fix>
</trkpt>
<trkpt lat="40.0713749" lon="-105.229789">
  <ele>1583.0</ele>
  <time>2026-08-28T17:50:40Z</time>
  <course>247.24</course>
  <speed>0.0</speed>
  <fix>3d</fix>
</trkpt>
<trkpt lat="40.0713749" lon="-105.229789">
  <ele>1583.0</ele>
  <time>2026-08-28T17:50:40Z</time>
  <course>0.0</course>
  <speed>0.0</speed>
  <fix>3d</fix>
</trkpt>
<trkpt lat="40.0713749" lon="-105.229789">
  <ele>1583.0</ele>
  <time>2026-08-28T17:50:40Z</time>
  <course>247.3</course>
  <speed>0.0</speed>
  <fix>3d</fix>
</trkpt>
<trkpt lat="40.0713749" lon="-105.229789">
  <ele>1583.0</ele>
  <time>2026-08-28T17:50:40Z</time>
  <course>0.0</course>
  <speed>0.0</speed>
  <fix>3d</fix>
</trkpt>
<trkpt lat="40.0713749" lon="-105.229789">
  <ele>1583.0</ele>
  <time>2026-08-28T17:50:40Z</time>
  <course>247.36</course>
  <speed>0.0</speed>
  <fix>3d</fix>
</trkpt>
<trkpt lat="40.0713749" lon="-105.229789">
  <ele>1583.0</ele>
  <time>2026-08-28T17:50:40Z</time>
  <course>0.0</course>
  <speed>0.0</speed>
  <fix>3d</fix>
</trkpt>
<trkpt lat="40.0713749" lon="-105.229789">
  <ele>1583.0</ele>
  <time>2026-08-28T17:50:40Z</time>
  <course>247.42</course>
  <speed>0.0</speed>
  <fix>3d</fix>
</trkpt>
<trkpt lat="40.0713749" lon="-105.229789">
  <ele>1583.0</ele>
  <time>2026-08-28T17:50:40Z</time>
  <course>0.0</course>
  <speed>0.0</speed>
  <fix>3d</fix>
</trkpt>
<trkpt lat="40.0713749" lon="-105.229789">
  <ele>1583.0</ele>
  <time>2026-08-28T17:50:40Z</time>
  <course>247.47</course>
  <speed>0.0</speed>
  <fix>3d</fix>
</trkpt>
<trkpt lat="40.0713749" lon="-105.229789">
  <ele>1583.0</ele>
  <time>2026-08-28T17:50:40Z</time>
  <course>0.0</course>
  <speed>0.0</speed>
  <fix>3d</fix>
</trkpt>
<trkpt lat="40.0713749" lon="-105.229789">
  <ele>1583.0</ele>
  <time>2026-08-28T17:50:40Z</time>
  <course>247.53</course>
  <speed>0.0</speed>
  <fix>3d</fix>
</trkpt>
<trkpt lat="40.0713749" lon="-105.229789">
  <ele>1583.0</ele>
  <time>2026-08-28T17:50:40Z</time>
  <course>0.0</course>
  <speed>0.0</speed>
  <fix>3d</fix>
</trkpt>
<trkpt lat="40.0713749" lon="-105.229789">
  <ele>1583.0</ele>
  <time>2026-08-28T17:50:40Z</time>
  <course>247.58</course>
  <speed>0.0</speed>
  <fix>3d</fix>
</trkpt>
<trkpt lat="40.0713749" lon="-105.229789">
  <ele>1583.0</ele>
  <time>2026-08-28T17:50:40Z</time>
  <course>0.0</course>
  <speed>0.0</speed>
  <fix>3d</fix>
</trkpt>
<trkpt lat="40.0713749" lon="-105.229789">
  <ele>1583.0</ele>
  <time>2026-08-28T17:50:40Z</time>
  <course>247.63</course>
  <speed>0.0</speed>
  <fix>3d</fix>
</trkpt>
<trkpt lat="40.0713749" lon="-105.229789">
  <ele>1583.0</ele>
  <time>2026-08-28T17:50:40Z</time>
  <course>0.0</course>
  <speed>0.0</speed>
  <fix>3d</fix>
</trkpt>
<trkpt lat="40.0713749" lon="-105.229789">
  <ele>1583.0</ele>
  <time>2026-08-28T17:50:40Z</time>
  <course>247.67</course>
  <speed>0.0</speed>
  <fix>3d</fix>
</trkpt>
<trkpt lat="40.0713749" lon="-105.229789">
  <ele>1583.0</ele>
  <time>2026-08-28T17:50:40Z</time>
  <course>0.0</course>
  <speed>0.0</speed>
  <fix>3d</fix>
</trkpt>
<trkpt lat="40.0713749" lon="-105.229789">
  <ele>1583.0</ele>
  <time>2026-08-28T17:50:40Z</time>
  <course>247.72</course>
  <speed>0.0</speed>
  <fix>3d</fix>
</trkpt>
<trkpt lat="40.0713749" lon="-105.229789">
  <ele>1583.0</ele>
  <time>2026-08-28T17:50:40Z</time>
  <course>0.0</course>
  <speed>0.0</speed>
  <fix>3d</fix>
</trkpt>
<trkpt lat="40.0713749" lon="-105.229789">
  <ele>1583.0</ele>
  <time>2026-08-28T17:50:40Z</time>
  <course>247.76</course>
  <speed>0.0</speed>
  <fix>3d</fix>
</trkpt>
<trkpt lat="40.0713749" lon="-105.229789">
  <ele>1583.0</ele>
  <time>2026-08-28T17:50:40Z</time>
  <course>0.0</course>
  <speed>0.0</speed>
  <fix>3d</fix>
</trkpt>
<trkpt lat="40.0713749" lon="-105.229789">
  <ele>1583.0</ele>
  <time>2026-08-28T17:50:40Z</time>
  <course>247.8</course>
  <speed>0.0</speed>
  <fix>3d</fix>
</trkpt>
<trkpt lat="40.0713749" lon="-105.229789">
  <ele>1583.0</ele>
  <time>2026-08-28T17:50:40Z</time>
  <course>0.0</course>
  <speed>0.0</speed>
  <fix>3d</fix>
</trkpt>
<trkpt lat="40.0713749" lon="-105.229789">
  <ele>1583.0</ele>
  <time>2026-08-28T17:50:40Z</time>
  <course>247.83</course>
  <speed>0.0</speed>
  <fix>3d</fix>
</trkpt>
<trkpt lat="40.0713749" lon="-105.229789">
  <ele>1583.0</ele>
  <time>2026-08-28T17:50:40Z</time>
  <course>0.0</course>
  <speed>0.0</speed>
  <fix>3d</fix>
</trkpt>
<trkpt lat="40.0713749" lon="-105.229789">
  <ele>1583.0</ele>
  <time>2026-08-28T17:50:40Z</time>
  <course>247.87</course>
  <speed>0.0</speed>
  <fix>3d</fix>
</trkpt>
<trkpt lat="40.0713749" lon="-105.229789">
  <ele>1583.0</ele>
  <time>2026-08-28T17:50:40Z</time>
  <course>0.0</course>
  <speed>0.0</speed>
  <fix>3d</fix>
</trkpt>
<trkpt lat="40.0713749" lon="-105.229789">
  <ele>1583.0</ele>
  <time>2026-08-28T17:50:40Z</time>
  <course>247.9</course>
  <speed>0.0</speed>
  <fix>3d</fix>
</trkpt>
<trkpt lat="40.0713749" lon="-105.229789">
  <ele>1583.0</ele>
  <time>2026-08-28T17:50:40Z</time>
  <course>0.0</course>
  <speed>0.0</speed>
  <fix>3d</fix>
</trkpt>
<trkpt lat="40.0713749" lon="-105.229789">
  <ele>1583.0</ele>
  <time>2026-08-28T17:50:40Z</time>
  <course>247.94</course>
  <speed>0.0</speed>
  <fix>3d</fix>
</trkpt>
<trkpt lat="40.0713749" lon="-105.229789">
  <ele>1583.0</ele>
  <time>2026-08-28T17:50:40Z</time>
  <course>0.0</course>
  <speed>0.0</speed>
  <fix>3d</fix>
</trkpt>
<trkpt lat="40.0713749" lon="-105.229789">
  <ele>1583.0</ele>
  <time>2026-08-28T17:50:40Z</time>
  <course>247.97</course>
  <speed>0.0</speed>
  <fix>3d</fix>
</trkpt>
<trkpt lat="40.0713749" lon="-105.229789">
  <ele>1583.0</ele>
  <time>2026-08-28T17:50:40Z</time>
  <course>0.0</course>
  <speed>0.0</speed>
  <fix>3d</fix>
</trkpt>
<trkpt lat="40.0713749" lon="-105.229789">
  <ele>1583.0</ele>
  <time>2026-08-28T17:50:40Z</time>
  <course>248.0</course>
  <speed>0.0</speed>
  <fix>3d</fix>
</trkpt>
<trkpt lat="40.0713749" lon="-105.229789">
  <ele>1583.0</ele>
  <time>2026-08-28T17:50:40Z</time>
  <course>0.0</course>
  <speed>0.0</speed>
  <fix>3d</fix>
</trkpt>
<trkpt lat="40.0713749" lon="-105.229789">
  <ele>1583.0</ele>
  <time>2026-08-28T17:50:40Z</time>
  <course>248.02</course>
  <speed>0.0</speed>
  <fix>3d</fix>
</trkpt>
<trkpt lat="40.0713749" lon="-105.229789">
  <ele>1583.0</ele>
  <time>2026-08-28T17:50:40Z</time>
  <course>0.0</course>
  <speed>0.0</speed>
  <fix>3d</fix>
</trkpt>
<trkpt lat="40.0713749" lon="-105.229789">
  <ele>1583.0</ele>
  <time>2026-08-28T17:50:40Z</time>
  <course>248.05</course>
  <speed>0.0</speed>
  <fix>3d</fix>
</trkpt>
<trkpt lat="40.0713749" lon="-105.229789">
  <ele>1583.0</ele>
  <time>2026-08-28T17:50:40Z</time>
  <course>0.0</course>
  <speed>0.0</speed>
  <fix>3d</fix>
</trkpt>
<trkpt lat="40.0713749" lon="-105.229789">
  <ele>1583.0</ele>
  <time>2026-08-28T17:50:40Z</time>
  <course>248.08</course>
  <speed>0.0</speed>
  <fix>3d</fix>
</trkpt>
<trkpt lat="40.0713749" lon="-105.229789">
  <ele>1583.0</ele>
  <time>2026-08-28T17:50:40Z</time>
  <course>0.0</course>
  <speed>0.0</speed>
  <fix>3d</fix>
</trkpt>
<trkpt lat="40.0713749" lon="-105.229789">
  <ele>1583.0</ele>
  <time>2026-08-28T17:50:40Z</time>
  <course>248.1</course>
  <speed>0.0</speed>
  <fix>3d</fix>
</trkpt>
<trkpt lat="40.0713749" lon="-105.229789">
  <ele>1583.0</ele>
  <time>2026-08-28T17:50:40Z</time>
  <course>0.0</course>
  <speed>0.0</speed>
  <fix>3d</fix>
</trkpt>
<trkpt lat="40.0713749" lon="-105.229789">
  <ele>1583.0</ele>
  <time>2026-08-28T17:50:40Z</time>
  <course>248.12</course>
  <speed>0.0</speed>
  <fix>3d</fix>
</trkpt>
<trkpt lat="40.0713749" lon="-105.229789">
  <ele>1583.0</ele>
  <time>2026-08-28T17:50:40Z</time>
  <course>0.0</course>
  <speed>0.0</speed>
  <fix>3d</fix>
</trkpt>
<trkpt lat="40.0713749" lon="-105.229789">
  <ele>1583.0</ele>
  <time>2026-08-28T17:50:40Z</time>
  <course>248.14</course>
  <speed>0.0</speed>
  <fix>3d</fix>
</trkpt>
<trkpt lat="40.0713749" lon="-105.229789">
  <ele>1583.0</ele>
  <time>2026-08-28T17:50:40Z</time>
  <course>0.0</course>
  <speed>0.0</speed>
  <fix>3d</fix>
</trkpt>
<trkpt lat="40.0713749" lon="-105.229789">
  <ele>1583.0</ele>
  <time>2026-08-28T17:50:40Z</time>
  <course>248.16</course>
  <speed>0.0</speed>
  <fix>3d</fix>
</trkpt>
<trkpt lat="40.0713749" lon="-105.229789">
  <ele>1583.0</ele>
  <time>2026-08-28T17:50:40Z</time>
  <course>0.0</course>
  <speed>0.0</speed>
  <fix>3d</fix>
</trkpt>
<trkpt lat="40.0713749" lon="-105.229789">
  <ele>1583.0</ele>
  <time>2026-08-28T17:50:40Z</time>
  <course>248.18</course>
  <speed>0.0</speed>
  <fix>3d</fix>
</trkpt>
<trkpt lat="40.0713749" lon="-105.229789">
  <ele>1583.0</ele>
  <time>2026-08-28T17:50:40Z</time>
  <course>0.0</course>
  <speed>0.0</speed>
  <fix>3d</fix>
</trkpt>
<trkpt lat="40.0713749" lon="-105.229789">
  <ele>1583.0</ele>
  <time>2026-08-28T17:50:40Z</time>
  <course>248.2</course>
  <speed>0.0</speed>
  <fix>3d</fix>
</trkpt>
<trkpt lat="40.0713749" lon="-105.229789">
  <ele>1583.0</ele>
  <time>2026-08-28T17:50:40Z</time>
  <course>0.0</course>
  <speed>0.0</speed>
  <fix>3d</fix>
</trkpt>
<trkpt lat="40.0713749" lon="-105.229789">
  <ele>1583.0</ele>
  <time>2026-08-28T17:50:40Z</time>
  <course>248.22</course>
  <speed>0.0</speed>
  <fix>3d</fix>
</trkpt>
<trkpt lat="40.0713749" lon="-105.229789">
  <ele>1583.0</ele>
  <time>2026-08-28T17:50:40Z</time>
  <course>0.0</course>
  <speed>0.0</speed>
  <fix>3d</fix>
</trkpt>
<trkpt lat="40.0713749" lon="-105.229789">
  <ele>1583.0</ele>
  <time>2026-08-28T17:50:40Z</time>
  <course>248.23</course>
  <speed>0.0</speed>
  <fix>3d</fix>
</trkpt>
<trkpt lat="40.0713749" lon="-105.229789">
  <ele>1583.0</ele>
  <time>2026-08-28T17:50:40Z</time>
  <course>0.0</course>
  <speed>0.0</speed>
  <fix>3d</fix>
</trkpt>
<trkpt lat="40.0713749" lon="-105.229789">
  <ele>1583.0</ele>
  <time>2026-08-28T17:50:40Z</time>
  <course>248.25</course>
  <speed>0.0</speed>
  <fix>3d</fix>
</trkpt>
<trkpt lat="40.0713749" lon="-105.229789">
  <ele>1583.0</ele>
  <time>2026-08-28T17:50:40Z</time>
  <course>0.0</course>
  <speed>0.0</speed>
  <fix>3d</fix>
</trkpt>
<trkpt lat="40.0713749" lon="-105.229789">
  <ele>1583.0</ele>
  <time>2026-08-28T17:50:40Z</time>
  <course>248.26</course>
  <speed>0.0</speed>
  <fix>3d</fix>
</trkpt>
<trkpt lat="40.0713749" lon="-105.229789">
  <ele>1583.0</ele>
  <time>2026-08-28T17:50:40Z</time>
  <course>0.0</course>
  <speed>0.0</speed>
  <fix>3d</fix>
</trkpt>
<trkpt lat="40.0713749" lon="-105.229789">
  <ele>1583.0</ele>
  <time>2026-08-28T17:50:40Z</time>
  <course>248.28</course>
  <speed>0.0</speed>
  <fix>3d</fix>
</trkpt>
<trkpt lat="40.0713749" lon="-105.229789">
  <ele>1583.0</ele>
  <time>2026-08-28T17:50:40Z</time>
  <course>0.0</course>
  <speed>0.0</speed>
  <fix>3d</fix>
</trkpt>
<trkpt lat="40.0713749" lon="-105.229789">
  <ele>1583.0</ele>
  <time>2026-08-28T17:50:40Z</time>
  <course>248.29</course>
  <speed>0.0</speed>
  <fix>3d</fix>
</trkpt>
<trkpt lat="40.0713749" lon="-105.229789">
  <ele>1583.0</ele>
  <time>2026-08-28T17:50:40Z</time>
  <course>0.0</course>
  <speed>0.0</speed>
  <fix>3d</fix>
</trkpt>
<trkpt lat="40.0713749" lon="-105.229789">
  <ele>1583.0</ele>
  <time>2026-08-28T17:50:40Z</time>
  <course>248.3</course>
  <speed>0.0</speed>
  <fix>3d</fix>
</trkpt>
<trkpt lat="40.0713749" lon="-105.229789">
  <ele>1583.0</ele>
  <time>2026-08-28T17:50:40Z</time>
  <course>0.0</course>
  <speed>0.0</speed>
  <fix>3d</fix>
</trkpt>
<trkpt lat="40.0713749" lon="-105.229789">
  <ele>1583.0</ele>
  <time>2026-08-28T17:50:40Z</time>
  <course>248.31</course>
  <speed>0.0</speed>
  <fix>3d</fix>
</trkpt>
<trkpt lat="40.0713749" lon="-105.229789">
  <ele>1583.0</ele>
  <time>2026-08-28T17:50:40Z</time>
  <course>0.0</course>
  <speed>0.0</speed>
  <fix>3d</fix>
</trkpt>
<trkpt lat="40.0713749" lon="-105.229789">
  <ele>1583.0</ele>
  <time>2026-08-28T17:50:40Z</time>
  <course>248.32</course>
  <speed>0.0</speed>
  <fix>3d</fix>
</trkpt>
<trkpt lat="40.0713749" lon="-105.229789">
  <ele>1583.0</ele>
  <time>2026-08-28T17:50:40Z</time>
  <course>0.0</course>
  <speed>0.0</speed>
  <fix>3d</fix>
</trkpt>
<trkpt lat="40.0713749" lon="-105.229789">
  <ele>1583.0</ele>
  <time>2026-08-28T17:50:40Z</time>
  <course>248.33</course>
  <speed>0.0</speed>
  <fix>3d</fix>
</trkpt>
<trkpt lat="40.0713749" lon="-105.229789">
  <ele>1583.0</ele>
  <time>2026-08-28T17:50:40Z</time>
  <course>0.0</course>
  <speed>0.0</speed>
  <fix>3d</fix>
</trkpt>
<trkpt lat="40.0713749" lon="-105.229789">
  <ele>1583.0</ele>
  <time>2026-08-28T17:50:40Z</time>
  <course>248.34</course>
  <speed>0.0</speed>
  <fix>3d</fix>
</trkpt>
<trkpt lat="40.0713749" lon="-105.229789">
  <ele>1583.0</ele>
  <time>2026-08-28T17:50:40Z</time>
  <course>0.0</course>
  <speed>0.0</speed>
  <fix>3d</fix>
</trkpt>
<trkpt lat="40.0713749" lon="-105.229789">
  <ele>1583.0</ele>
  <time>2026-08-28T17:50:40Z</time>
  <course>248.35</course>
  <speed>0.0</speed>
  <fix>3d</fix>
</trkpt>
<trkpt lat="40.0713749" lon="-105.229789">
  <ele>1583.0</ele>
  <time>2026-08-28T17:50:40Z</time>
  <course>0.0</course>
  <speed>0.0</speed>
  <fix>3d</fix>
</trkpt>
<trkpt lat="40.0713749" lon="-105.229789">
  <ele>1583.0</ele>
  <time>2026-08-28T17:50:40Z</time>
  <course>248.35</course>
  <speed>0.0</speed>
  <fix>3d</fix>
</trkpt>
<trkpt lat="40.0713749" lon="-105.229789">
  <ele>1583.0</ele>
  <time>2026-08-28T17:50:40Z</time>
  <course>0.0</course>
  <speed>0.0</speed>
  <fix>3d</fix>
</trkpt>
<trkpt lat="40.0713749" lon="-105.229789">
  <ele>1583.0</ele>
  <time>2026-08-28T17:50:40Z</time>
  <course>248.36</course>
  <speed>0.0</speed>
  <fix>3d</fix>
</trkpt>
<trkpt lat="40.0713749" lon="-105.229789">
  <ele>1583.0</ele>
  <time>2026-08-28T17:50:40Z</time>
  <course>0.0</course>
  <speed>0.0</speed>
  <fix>3d</fix>
</trkpt>
<trkpt lat="40.0713749" lon="-105.229789">
  <ele>1583.0</ele>
  <time>2026-08-28T17:50:40Z</time>
  <course>248.37</course>
  <speed>0.0</speed>
  <fix>3d</fix>
</trkpt>
<trkpt lat="40.0713749" lon="-105.229789">
  <ele>1583.0</ele>
  <time>2026-08-28T17:50:40Z</time>
  <course>0.0</course>
  <speed>0.0</speed>
  <fix>3d</fix>
</trkpt>
<trkpt lat="40.0713749" lon="-105.229789">
  <ele>1583.0</ele>
  <time>2026-08-28T17:50:40Z</time>
  <course>248.37</course>
  <speed>0.0</speed>
  <fix>3d</fix>
</trkpt>
<trkpt lat="40.0713749" lon="-105.229789">
  <ele>1583.0</ele>
  <time>2026-08-28T17:50:40Z</time>
  <course>0.0</course>
  <speed>0.0</speed>
  <fix>3d</fix>
</trkpt>
<trkpt lat="40.0713749" lon="-105.229789">
  <ele>1583.0</ele>
  <time>2026-08-28T17:50:40Z</time>
  <course>248.38</course>
  <speed>0.0</speed>
  <fix>3d</fix>
</trkpt>
<trkpt lat="40.0713749" lon="-105.229789">
  <ele>1583.0</ele>
  <time>2026-08-28T17:50:40Z</time>
  <course>0.0</course>
  <speed>0.0</speed>
  <fix>3d</fix>
</trkpt>
<trkpt lat="40.0713749" lon="-105.229789">
  <ele>1583.0</ele>
  <time>2026-08-28T17:50:40Z</time>
  <course>248.38</course>
  <speed>0.0</speed>
  <fix>3d</fix>
</trkpt>
<trkpt lat="40.0713749" lon="-105.229789">
  <ele>1583.0</ele>
  <time>2026-08-28T17:50:40Z</time>
  <course>0.0</course>
  <speed>0.0</speed>
  <fix>3d</fix>
</trkpt>
<trkpt lat="40.0713749" lon="-105.229789">
  <ele>1583.0</ele>
  <time>2026-08-28T17:50:40Z</time>
  <course>248.39</course>
  <speed>0.0</speed>
  <fix>3d</fix>
</trkpt>
<trkpt lat="40.0713749" lon="-105.229789">
  <ele>1583.0</ele>
  <time>2026-08-28T17:50:40Z</time>
  <course>0.0</course>
  <speed>0.0</speed>
  <fix>3d</fix>
</trkpt>
<trkpt lat="40.0713749" lon="-105.229789">
  <ele>1583.0</ele>
  <time>2026-08-28T17:50:40Z</time>
  <course>248.39</course>
  <speed>0.0</speed>
  <fix>3d</fix>
</trkpt>
<trkpt lat="40.0713749" lon="-105.229789">
  <ele>1583.0</ele>
  <time>2026-08-28T17:50:40Z</time>
  <course>0.0</course>
  <speed>0.0</speed>
  <fix>3d</fix>
</trkpt>
<trkpt lat="40.0713749" lon="-105.229789">
  <ele>1583.0</ele>
  <time>2026-08-28T17:50:40Z</time>
  <course>248.4</course>
  <speed>0.0</speed>
  <fix>3d</fix>
</trkpt>
<trkpt lat="40.0713749" lon="-105.229789">
  <ele>1583.0</ele>
  <time>2026-08-28T17:50:40Z</time>
  <course>0.0</course>
  <speed>0.0</speed>
  <fix>3d</fix>
</trkpt>
<trkpt lat="40.0713749" lon="-105.229789">
  <ele>1583.0</ele>
  <time>2026-08-28T17:50:40Z</time>
  <course>248.4</course>
  <speed>0.0</speed>
  <fix>3d</fix>
</trkpt>
<trkpt lat="40.0713749" lon="-105.229789">
  <ele>1583.0</ele>
  <time>2026-08-28T17:50:40Z</time>
  <course>0.0</course>
  <speed>0.0</speed>
  <fix>3d</fix>
</trkpt>
<trkpt lat="40.0713749" lon="-105.229789">
  <ele>1583.0</ele>
  <time>2026-08-28T17:50:40Z</time>
  <course>248.4</course>
  <speed>0.0</speed>
  <fix>3d</fix>
</trkpt>
<trkpt lat="40.0713749" lon="-105.229789">
  <ele>1583.0</ele>
  <time>2026-08-28T17:50:40Z</time>
  <course>0.0</course>
  <speed>0.0</speed>
  <fix>3d</fix>
</trkpt>
<trkpt lat="40.0713749" lon="-105.229789">
  <ele>1583.0</ele>
  <time>2026-08-28T17:50:40Z</time>
  <course>248.4</course>
  <speed>0.0</speed>
  <fix>3d</fix>
</trkpt>
<trkpt lat="40.0713749" lon="-105.229789">
  <ele>1583.0</ele>
  <time>2026-08-28T17:50:40Z</time>
  <course>0.0</course>
  <speed>0.0</speed>
  <fix>3d</fix>
</trkpt>
<trkpt lat="40.0713749" lon="-105.229789">
  <ele>1583.0</ele>
  <time>2026-08-28T17:50:40Z</time>
  <course>248.41</course>
  <speed>0.0</speed>
  <fix>3d</fix>
</trkpt>
<trkpt lat="40.0713749" lon="-105.229789">
  <ele>1583.0</ele>
  <time>2026-08-28T17:50:40Z</time>
  <course>0.0</course>
  <speed>0.0</speed>
  <fix>3d</fix>
</trkpt>
<trkpt lat="40.0713749" lon="-105.229789">
  <ele>1583.0</ele>
  <time>2026-08-28T17:50:40Z</time>
  <course>248.41</course>
  <speed>0.0</speed>
  <fix>3d</fix>
</trkpt>
<trkpt lat="40.0713749" lon="-105.229789">
  <ele>1583.0</ele>
  <time>2026-08-28T17:50:40Z</time>
  <course>0.0</course>
  <speed>0.0</speed>
  <fix>3d</fix>
</trkpt>
<trkpt lat="40.0713749" lon="-105.229789">
  <ele>1583.0</ele>
  <time>2026-08-28T17:50:40Z</time>
  <course>248.41</course>
  <speed>0.0</speed>
  <fix>3d</fix>
</trkpt>
<trkpt lat="40.0713749" lon="-105.229789">
  <ele>1583.0</ele>
  <time>2026-08-28T17:50:40Z</time>
  <course>0.0</course>
  <speed>0.0</speed>
  <fix>3d</fix>
</trkpt>
<trkpt lat="40.0713749" lon="-105.229789">
  <ele>1583.0</ele>
  <time>2026-08-28T17:50:40Z</time>
  <course>248.41</course>
  <speed>0.0</speed>
  <fix>3d</fix>
</trkpt>
<trkpt lat="40.0713749" lon="-105.229789">
  <ele>1583.0</ele>
  <time>2026-08-28T17:50:40Z</time>
  <course>0.0</course>
  <speed>0.0</speed>
  <fix>3d</fix>
</trkpt>
<trkpt lat="40.0713749" lon="-105.229789">
  <ele>1583.0</ele>
  <time>2026-08-28T17:50:40Z</time>
  <course>248.41</course>
  <speed>0.0</speed>
  <fix>3d</fix>
</trkpt>
<trkpt lat="40.0713749" lon="-105.229789">
  <ele>1583.0</ele>
  <time>2026-08-28T17:50:40Z</time>
  <course>0.0</course>
  <speed>0.0</speed>
  <fix>3d</fix>
</trkpt>
<trkpt lat="40.0713749" lon="-105.229789">
  <ele>1583.0</ele>
  <time>2026-08-28T17:50:40Z</time>
  <course>248.41</course>
  <speed>0.0</speed>
  <fix>3d</fix>
</trkpt>
<trkpt lat="40.0713749" lon="-105.229789">
  <ele>1583.0</ele>
  <time>2026-08-28T17:50:40Z</time>
  <course>0.0</course>
  <speed>0.0</speed>
  <fix>3d</fix>
</trkpt>
<trkpt lat="40.0713749" lon="-105.229789">
  <ele>1583.0</ele>
  <time>2026-08-28T17:50:40Z</time>
  <course>248.41</course>
  <speed>0.0</speed>
  <fix>3d</fix>
</trkpt>
<trkpt lat="40.0713749" lon="-105.229789">
  <ele>1583.0</ele>
  <time>2026-08-28T17:50:40Z</time>
  <course>0.0</course>
  <speed>0.0</speed>
  <fix>3d</fix>
</trkpt>
<trkpt lat="40.0713749" lon="-105.229789">
  <ele>1583.0</ele>
  <time>2026-08-28T17:50:40Z</time>
  <course>248.41</course>
  <speed>0.0</speed>
  <fix>3d</fix>
</trkpt>
<trkpt lat="40.0713749" lon="-105.229789">
  <ele>1583.0</ele>
  <time>2026-08-28T17:50:40Z</time>
  <course>0.0</course>
  <speed>0.0</speed>
  <fix>3d</fix>
</trkpt>
<trkpt lat="40.0713749" lon="-105.229789">
  <ele>1583.0</ele>
  <time>2026-08-28T17:50:40Z</time>
  <course>248.41</course>
  <speed>0.0</speed>
  <fix>3d</fix>
</trkpt>
<trkpt lat="40.0713749" lon="-105.229789">
  <ele>1583.0</ele>
  <time>2026-08-28T17:50:40Z</time>
  <course>0.0</course>
  <speed>0.0</speed>
  <fix>3d</fix>
</trkpt>
<trkpt lat="40.0713749" lon="-105.229789">
  <ele>1583.0</ele>
  <time>2026-08-28T17:50:40Z</time>
  <course>248.41</course>
  <speed>0.0</speed>
  <fix>3d</fix>
</trkpt>
<trkpt lat="40.0713749" lon="-105.229789">
  <ele>1583.0</ele>
  <time>2026-08-28T17:50:40Z</time>
  <course>0.0</course>
  <speed>0.0</speed>
  <fix>3d</fix>
</trkpt>
<trkpt lat="40.0713749" lon="-105.229789">
  <ele>1583.0</ele>
  <time>2026-08-28T17:50:40Z</time>
  <course>248.41</course>
  <speed>0.0</speed>
  <fix>3d</fix>
</trkpt>
<trkpt lat="40.0713749" lon="-105.229789">
  <ele>1583.0</ele>
  <time>2026-08-28T17:50:40Z</time>
  <course>0.0</course>
  <speed>0.0</speed>
  <fix>3d</fix>
</trkpt>
<trkpt lat="40.0713749" lon="-105.229789">
  <ele>1583.0</ele>
  <time>2026-08-28T17:50:40Z</time>
  <course>248.41</course>
  <speed>0.0</speed>
  <fix>3d</fix>
</trkpt>
<trkpt lat="40.0713749" lon="-105.229789">
  <ele>1583.0</ele>
  <time>2026-08-28T17:50:40Z</time>
  <course>0.0</course>
  <speed>0.0</speed>
  <fix>3d</fix>
</trkpt>
<trkpt lat="40.0713749" lon="-105.229789">
  <ele>1583.0</ele>
  <time>2026-08-28T17:50:40Z</time>
  <course>248.41</course>
  <speed>0.0</speed>
  <fix>3d</fix>
</trkpt>
<trkpt lat="40.0713749" lon="-105.229789">
  <ele>1583.0</ele>
  <time>2026-08-28T17:50:40Z</time>
  <course>0.0</course>
  <speed>0.0</speed>
  <fix>3d</fix>
</trkpt>
<trkpt lat="40.0713749" lon="-105.229789">
  <ele>1583.0</ele>
  <time>2026-08-28T17:50:40Z</time>
  <course>248.41</course>
  <speed>0.0</speed>
  <fix>3d</fix>
</trkpt>
<trkpt lat="40.0713749" lon="-105.229789">
  <ele>1583.0</ele>
  <time>2026-08-28T17:50:40Z</time>
  <course>0.0</course>
  <speed>0.0</speed>
  <fix>3d</fix>
</trkpt>
<trkpt lat="40.0713749" lon="-105.229789">
  <ele>1583.0</ele>
  <time>2026-08-28T17:50:40Z</time>
  <course>248.41</course>
  <speed>0.0</speed>
  <fix>3d</fix>
</trkpt>
<trkpt lat="40.0713749" lon="-105.229789">
  <ele>1583.0</ele>
  <time>2026-08-28T17:50:40Z</time>
  <course>0.0</course>
  <speed>0.0</speed>
  <fix>3d</fix>
</trkpt>
<trkpt lat="40.0713749" lon="-105.229789">
  <ele>1583.0</ele>
  <time>2026-08-28T17:50:40Z</time>
  <course>248.41</course>
  <speed>0.0</speed>
  <fix>3d</fix>
</trkpt>
<trkpt lat="40.0713749" lon="-105.229789">
  <ele>1583.0</ele>
  <time>2026-08-28T17:50:40Z</time>
  <course>0.0</course>
  <speed>0.0</speed>
  <fix>3d</fix>
</trkpt>
<trkpt lat="40.0713749" lon="-105.229789">
  <ele>1583.0</ele>
  <time>2026-08-28T17:50:40Z</time>
  <course>248.4</course>
  <speed>0.0</speed>
  <fix>3d</fix>
</trkpt>
<trkpt lat="40.0713749" lon="-105.229789">
  <ele>1583.0</ele>
  <time>2026-08-28T17:50:40Z</time>
  <course>0.0</course>
  <speed>0.0</speed>
  <fix>3d</fix>
</trkpt>
<trkpt lat="40.0713749" lon="-105.229789">
  <ele>1583.0</ele>
  <time>2026-08-28T17:50:40Z</time>
  <course>248.4</course>
  <speed>0.01</speed>
  <fix>3d</fix>
</trkpt>
<trkpt lat="40.0713749" lon="-105.229789">
  <ele>1583.0</ele>
  <time>2026-08-28T17:50:40Z</time>
  <course>0.0</course>
  <speed>0.0</speed>
  <fix>3d</fix>
</trkpt>
<trkpt lat="40.0713749" lon="-105.229789">
  <ele>1583.0</ele>
  <time>2026-08-28T17:50:40Z</time>
  <course>248.4</course>
  <speed>0.01</speed>
  <fix>3d</fix>
</trkpt>
<trkpt lat="40.0713749" lon="-105.229789">
  <ele>1583.0</ele>
  <time>2026-08-28T17:50:40Z</time>
  <course>0.0</course>
  <speed>0.0</speed>
  <fix>3d</fix>
</trkpt>
<trkpt lat="40.0713749" lon="-105.229789">
  <ele>1583.0</ele>
  <time>2026-08-28T17:50:40Z</time>
  <course>248.4</course>
  <speed>0.01</speed>
  <fix>3d</fix>
</trkpt>
<trkpt lat="40.0713749" lon="-105.229789">
  <ele>1583.0</ele>
  <time>2026-08-28T17:50:40Z</time>
  <course>0.0</course>
  <speed>0.0</speed>
  <fix>3d</fix>
</trkpt>
<trkpt lat="40.0713749" lon="-105.229789">
  <ele>1583.0</ele>
  <time>2026-08-28T17:50:40Z</time>
  <course>248.4</course>
  <speed>0.01</speed>
  <fix>3d</fix>
</trkpt>
<trkpt lat="40.0713749" lon="-105.229789">
  <ele>1583.0</ele>
  <time>2026-08-28T17:50:40Z</time>
  <course>0.0</course>
  <speed>0.0</speed>
  <fix>3d</fix>
</trkpt>
<trkpt lat="40.0713749" lon="-105.229789">
  <ele>1583.0</ele>
  <time>2026-08-28T17:50:40Z</time>
  <course>248.39</course>
  <speed>0.01</speed>
  <fix>3d</fix>
</trkpt>
<trkpt lat="40.0713749" lon="-105.229789">
  <ele>1583.0</ele>
  <time>2026-08-28T17:50:40Z</time>
  <course>0.0</course>
  <speed>0.0</speed>
  <fix>3d</fix>
</trkpt>
<trkpt lat="40.0713749" lon="-105.229789">
  <ele>1583.0</ele>
  <time>2026-08-28T17:50:40Z</time>
  <course>248.39</course>
  <speed>0.01</speed>
  <fix>3d</fix>
</trkpt>
<trkpt lat="40.0713749" lon="-105.229789">
  <ele>1583.0</ele>
  <time>2026-08-28T17:50:40Z</time>
  <course>0.0</course>
  <speed>0.0</speed>
  <fix>3d</fix>
</trkpt>
<trkpt lat="40.0713749" lon="-105.229789">
  <ele>1583.0</ele>
  <time>2026-08-28T17:50:40Z</time>
  <course>248.39</course>
  <speed>0.01</speed>
  <fix>3d</fix>
</trkpt>
<trkpt lat="40.0713749" lon="-105.229789">
  <ele>1583.0</ele>
  <time>2026-08-28T17:50:40Z</time>
  <course>0.0</course>
  <speed>0.0</speed>
  <fix>3d</fix>
</trkpt>
<trkpt lat="40.0713749" lon="-105.229789">
  <ele>1583.0</ele>
  <time>2026-08-28T17:50:40Z</time>
  <course>248.38</course>
  <speed>0.01</speed>
  <fix>3d</fix>
</trkpt>
<trkpt lat="40.0713749" lon="-105.229789">
  <ele>1583.0</ele>
  <time>2026-08-28T17:50:40Z</time>
  <course>0.0</course>
  <speed>0.0</speed>
  <fix>3d</fix>
</trkpt>
<trkpt lat="40.0713749" lon="-105.229789">
  <ele>1583.0</ele>
  <time>2026-08-28T17:50:40Z</time>
  <course>248.38</course>
  <speed>0.01</speed>
  <fix>3d</fix>
</trkpt>
<trkpt lat="40.0713749" lon="-105.229789">
  <ele>1583.0</ele>
  <time>2026-08-28T17:50:40Z</time>
  <course>0.0</course>
  <speed>0.0</speed>
  <fix>3d</fix>
</trkpt>
<trkpt lat="40.0713749" lon="-105.229789">
  <ele>1583.0</ele>
  <time>2026-08-28T17:50:40Z</time>
  <course>248.38</course>
  <speed>0.01</speed>
  <fix>3d</fix>
</trkpt>
<trkpt lat="40.0713749" lon="-105.229789">
  <ele>1583.0</ele>
  <time>2026-08-28T17:50:40Z</time>
  <course>0.0</course>
  <speed>0.0</speed>
  <fix>3d</fix>
</trkpt>
<trkpt lat="40.0713749" lon="-105.229789">
  <ele>1583.0</ele>
  <time>2026-08-28T17:50:40Z</time>
  <course>248.37</course>
  <speed>0.01</speed>
  <fix>3d</fix>
</trkpt>
<trkpt lat="40.0713749" lon="-105.229789">
  <ele>1583.0</ele>
  <time>2026-08-28T17:50:40Z</time>
  <course>0.0</course>
  <speed>0.0</speed>
  <fix>3d</fix>
</trkpt>
<trkpt lat="40.0713749" lon="-105.229789">
  <ele>1583.0</ele>
  <time>2026-08-28T17:50:40Z</time>
  <course>248.37</course>
  <speed>0.01</speed>
  <fix>3d</fix>
</trkpt>
<trkpt lat="40.0713749" lon="-105.229789">
  <ele>1583.0</ele>
  <time>2026-08-28T17:50:40Z</time>
  <course>0.0</course>
  <speed>0.0</speed>
  <fix>3d</fix>
</trkpt>
<trkpt lat="40.0713749" lon="-105.229789">
  <ele>1583.0</ele>
  <time>2026-08-28T17:50:40Z</time>
  <course>248.37</course>
  <speed>0.01</speed>
  <fix>3d</fix>
</trkpt>
<trkpt lat="40.0713749" lon="-105.229789">
  <ele>1583.0</ele>
  <time>2026-08-28T17:50:40Z</time>
  <course>0.0</course>
  <speed>0.0</speed>
  <fix>3d</fix>
</trkpt>
<trkpt lat="40.0713749" lon="-105.229789">
  <ele>1583.0</ele>
  <time>2026-08-28T17:50:40Z</time>
  <course>248.36</course>
  <speed>0.01</speed>
  <fix>3d</fix>
</trkpt>
<trkpt lat="40.0713749" lon="-105.229789">
  <ele>1583.0</ele>
  <time>2026-08-28T17:50:40Z</time>
  <course>0.0</course>
  <speed>0.0</speed>
  <fix>3d</fix>
</trkpt>
<trkpt lat="40.0713749" lon="-105.229789">
  <ele>1583.0</ele>
  <time>2026-08-28T17:50:40Z</time>
  <course>248.36</course>
  <speed>0.01</speed>
  <fix>3d</fix>
</trkpt>
<trkpt lat="40.0713749" lon="-105.229789">
  <ele>1583.0</ele>
  <time>2026-08-28T17:50:40Z</time>
  <course>0.0</course>
  <speed>0.0</speed>
  <fix>3d</fix>
</trkpt>
<trkpt lat="40.0713749" lon="-105.229789">
  <ele>1583.0</ele>
  <time>2026-08-28T17:50:40Z</time>
  <course>248.36</course>
  <speed>0.01</speed>
  <fix>3d</fix>
</trkpt>
<trkpt lat="40.0713749" lon="-105.229789">
  <ele>1583.0</ele>
  <time>2026-08-28T17:50:40Z</time>
  <course>0.0</course>
  <speed>0.0</speed>
  <fix>3d</fix>
</trkpt>
<trkpt lat="40.0713749" lon="-105.229789">
  <ele>1583.0</ele>
  <time>2026-08-28T17:50:40Z</time>
  <course>248.35</course>
  <speed>0.01</speed>
  <fix>3d</fix>
</trkpt>
<trkpt lat="40.0713749" lon="-105.229789">
  <ele>1583.0</ele>
  <time>2026-08-28T17:50:40Z</time>
  <course>0.0</course>
  <speed>0.0</speed>
  <fix>3d</fix>
</trkpt>
<trkpt lat="40.0713749" lon="-105.229789">
  <ele>1583.0</ele>
  <time>2026-08-28T17:50:40Z</time>
  <course>248.35</course>
  <speed>0.01</speed>
  <fix>3d</fix>
</trkpt>
<trkpt lat="40.0713749" lon="-105.229789">
  <ele>1583.0</ele>
  <time>2026-08-28T17:50:40Z</time>
  <course>0.0</course>
  <speed>0.0</speed>
  <fix>3d</fix>
</trkpt>
<trkpt lat="40.0713749" lon="-105.229789">
  <ele>1583.0</ele>
  <time>2026-08-28T17:50:40Z</time>
  <course>248.35</course>
  <speed>0.01</speed>
  <fix>3d</fix>
</trkpt>
<trkpt lat="40.0713749" lon="-105.229789">
  <ele>1583.0</ele>
  <time>2026-08-28T17:50:40Z</time>
  <course>0.0</course>
  <speed>0.0</speed>
  <fix>3d</fix>
</trkpt>
<trkpt lat="40.0713749" lon="-105.229789">
  <ele>1583.0</ele>
  <time>2026-08-28T17:50:40Z</time>
  <course>248.34</course>
  <speed>0.01</speed>
  <fix>3d</fix>
</trkpt>
<trkpt lat="40.0713749" lon="-105.229789">
  <ele>1583.0</ele>
  <time>2026-08-28T17:50:40Z</time>
  <course>0.0</course>
  <speed>0.0</speed>
  <fix>3d</fix>
</trkpt>
<trkpt lat="40.0713749" lon="-105.229789">
  <ele>1583.0</ele>
  <time>2026-08-28T17:50:40Z</time>
  <course>248.34</course>
  <speed>0.01</speed>
  <fix>3d</fix>
</trkpt>
<trkpt lat="40.0713749" lon="-105.229789">
  <ele>1583.0</ele>
  <time>2026-08-28T17:50:40Z</time>
  <course>0.0</course>
  <speed>0.0</speed>
  <fix>3d</fix>
</trkpt>
<trkpt lat="40.0713749" lon="-105.229789">
  <ele>1583.0</ele>
  <time>2026-08-28T17:50:40Z</time>
  <course>248.33</course>
  <speed>0.01</speed>
  <fix>3d</fix>
</trkpt>
<trkpt lat="40.0713749" lon="-105.229789">
  <ele>1583.0</ele>
  <time>2026-08-28T17:50:40Z</time>
  <course>0.0</course>
  <speed>0.0</speed>
  <fix>3d</fix>
</trkpt>
<trkpt lat="40.0713749" lon="-105.229789">
  <ele>1583.0</ele>
  <time>2026-08-28T17:50:40Z</time>
  <course>248.33</course>
  <speed>0.01</speed>
  <fix>3d</fix>
</trkpt>
<trkpt lat="40.0713749" lon="-105.229789">
  <ele>1583.0</ele>
  <time>2026-08-28T17:50:40Z</time>
  <course>0.0</course>
  <speed>0.0</speed>
  <fix>3d</fix>
</trkpt>
<trkpt lat="40.0713749" lon="-105.229789">
  <ele>1583.0</ele>
  <time>2026-08-28T17:50:40Z</time>
  <course>248.32</course>
  <speed>0.01</speed>
  <fix>3d</fix>
</trkpt>
<trkpt lat="40.0713749" lon="-105.229789">
  <ele>1583.0</ele>
  <time>2026-08-28T17:50:40Z</time>
  <course>0.0</course>
  <speed>0.0</speed>
  <fix>3d</fix>
</trkpt>
<trkpt lat="40.0713749" lon="-105.229789">
  <ele>1583.0</ele>
  <time>2026-08-28T17:50:40Z</time>
  <course>248.32</course>
  <speed>0.01</speed>
  <fix>3d</fix>
</trkpt>
<trkpt lat="40.0713749" lon="-105.229789">
  <ele>1583.0</ele>
  <time>2026-08-28T17:50:40Z</time>
  <course>0.0</course>
  <speed>0.0</speed>
  <fix>3d</fix>
</trkpt>
<trkpt lat="40.0713749" lon="-105.229789">
  <ele>1583.0</ele>
  <time>2026-08-28T17:50:40Z</time>
  <course>248.32</course>
  <speed>0.01</speed>
  <fix>3d</fix>
</trkpt>
<trkpt lat="40.0713749" lon="-105.229789">
  <ele>1583.0</ele>
  <time>2026-08-28T17:50:40Z</time>
  <course>0.0</course>
  <speed>0.0</speed>
  <fix>3d</fix>
</trkpt>
<trkpt lat="40.0713749" lon="-105.229789">
  <ele>1583.0</ele>
  <time>2026-08-28T17:50:40Z</time>
  <course>248.31</course>
  <speed>0.01</speed>
  <fix>3d</fix>
</trkpt>
<trkpt lat="40.0713749" lon="-105.229789">
  <ele>1583.0</ele>
  <time>2026-08-28T17:50:40Z</time>
  <course>0.0</course>
  <speed>0.0</speed>
  <fix>3d</fix>
</trkpt>
<trkpt lat="40.0713749" lon="-105.229789">
  <ele>1583.0</ele>
  <time>2026-08-28T17:50:40Z</time>
  <course>248.31</course>
  <speed>0.01</speed>
  <fix>3d</fix>
</trkpt>
<trkpt lat="40.0713749" lon="-105.229789">
  <ele>1583.0</ele>
  <time>2026-08-28T17:50:40Z</time>
  <course>0.0</course>
  <speed>0.0</speed>
  <fix>3d</fix>
</trkpt>
<trkpt lat="40.0713749" lon="-105.229789">
  <ele>1583.0</ele>
  <time>2026-08-28T17:50:40Z</time>
  <course>248.3</course>
  <speed>0.01</speed>
  <fix>3d</fix>
</trkpt>
<trkpt lat="40.0713749" lon="-105.229789">
  <ele>1583.0</ele>
  <time>2026-08-28T17:50:40Z</time>
  <course>0.0</course>
  <speed>0.0</speed>
  <fix>3d</fix>
</trkpt>
<trkpt lat="40.0713749" lon="-105.229789">
  <ele>1583.0</ele>
  <time>2026-08-28T17:50:40Z</time>
  <course>248.3</course>
  <speed>0.01</speed>
  <fix>3d</fix>
</trkpt>
<trkpt lat="40.0713749" lon="-105.229789">
  <ele>1583.0</ele>
  <time>2026-08-28T17:50:40Z</time>
  <course>0.0</course>
  <speed>0.0</speed>
  <fix>3d</fix>
</trkpt>
<trkpt lat="40.0713749" lon="-105.229789">
  <ele>1583.0</ele>
  <time>2026-08-28T17:50:40Z</time>
  <course>248.29</course>
  <speed>0.01</speed>
  <fix>3d</fix>
</trkpt>
<trkpt lat="40.0713749" lon="-105.229789">
  <ele>1583.0</ele>
  <time>2026-08-28T17:50:40Z</time>
  <course>0.0</course>
  <speed>0.0</speed>
  <fix>3d</fix>
</trkpt>
<trkpt lat="40.0713749" lon="-105.229789">
  <ele>1583.0</ele>
  <time>2026-08-28T17:50:40Z</time>
  <course>248.29</course>
  <speed>0.01</speed>
  <fix>3d</fix>
</trkpt>
<trkpt lat="40.0713749" lon="-105.229789">
  <ele>1583.0</ele>
  <time>2026-08-28T17:50:40Z</time>
  <course>0.0</course>
  <speed>0.0</speed>
  <fix>3d</fix>
</trkpt>
<trkpt lat="40.0713749" lon="-105.229789">
  <ele>1583.0</ele>
  <time>2026-08-28T17:50:40Z</time>
  <course>248.28</course>
  <speed>0.01</speed>
  <fix>3d</fix>
</trkpt>
<trkpt lat="40.0713749" lon="-105.229789">
  <ele>1583.0</ele>
  <time>2026-08-28T17:50:40Z</time>
  <course>0.0</course>
  <speed>0.0</speed>
  <fix>3d</fix>
</trkpt>
<trkpt lat="40.0713749" lon="-105.229789">
  <ele>1583.0</ele>
  <time>2026-08-28T17:50:40Z</time>
  <course>248.28</course>
  <speed>0.01</speed>
  <fix>3d</fix>
</trkpt>
<trkpt lat="40.0713749" lon="-105.229789">
  <ele>1583.0</ele>
  <time>2026-08-28T17:50:40Z</time>
  <course>0.0</course>
  <speed>0.0</speed>
  <fix>3d</fix>
</trkpt>
<trkpt lat="40.0713749" lon="-105.229789">
  <ele>1583.0</ele>
  <time>2026-08-28T17:50:40Z</time>
  <course>248.27</course>
  <speed>0.01</speed>
  <fix>3d</fix>
</trkpt>
<trkpt lat="40.0713749" lon="-105.229789">
  <ele>1583.0</ele>
  <time>2026-08-28T17:50:40Z</time>
  <course>0.0</course>
  <speed>0.0</speed>
  <fix>3d</fix>
</trkpt>
<trkpt lat="40.0713749" lon="-105.229789">
  <ele>1583.0</ele>
  <time>2026-08-28T17:50:40Z</time>
  <course>248.27</course>
  <speed>0.01</speed>
  <fix>3d</fix>
</trkpt>
<trkpt lat="40.0713749" lon="-105.229789">
  <ele>1583.0</ele>
  <time>2026-08-28T17:50:40Z</time>
  <course>0.0</course>
  <speed>0.0</speed>
  <fix>3d</fix>
</trkpt>
<trkpt lat="40.0713749" lon="-105.229789">
  <ele>1583.0</ele>
  <time>2026-08-28T17:50:40Z</time>
  <course>248.26</course>
  <speed>0.01</speed>
  <fix>3d</fix>
</trkpt>
<trkpt lat="40.0713749" lon="-105.229789">
  <ele>1583.0</ele>
  <time>2026-08-28T17:50:40Z</time>
  <course>0.0</course>
  <speed>0.0</speed>
  <fix>3d</fix>
</trkpt>
<trkpt lat="40.0713749" lon="-105.229789">
  <ele>1583.0</ele>
  <time>2026-08-28T17:50:40Z</time>
  <course>248.26</course>
  <speed>0.01</speed>
  <fix>3d</fix>
</trkpt>
<trkpt lat="40.0713749" lon="-105.229789">
  <ele>1583.0</ele>
  <time>2026-08-28T17:50:40Z</time>
  <course>0.0</course>
  <speed>0.0</speed>
  <fix>3d</fix>
</trkpt>
<trkpt lat="40.0713749" lon="-105.229789">
  <ele>1583.0</ele>
  <time>2026-08-28T17:50:40Z</time>
  <course>248.26</course>
  <speed>0.01</speed>
  <fix>3d</fix>
</trkpt>
<trkpt lat="40.0713749" lon="-105.229789">
  <ele>1583.0</ele>
  <time>2026-08-28T17:50:40Z</time>
  <course>0.0</course>
  <speed>0.0</speed>
  <fix>3d</fix>
</trkpt>
<trkpt lat="40.0713749" lon="-105.229789">
  <ele>1583.0</ele>
  <time>2026-08-28T17:50:40Z</time>
  <course>248.25</course>
  <speed>0.01</speed>
  <fix>3d</fix>
</trkpt>
<trkpt lat="40.0713749" lon="-105.229789">
  <ele>1583.0</ele>
  <time>2026-08-28T17:50:40Z</time>
  <course>0.0</course>
  <speed>0.0</speed>
  <fix>3d</fix>
</trkpt>
<trkpt lat="40.0713749" lon="-105.229789">
  <ele>1583.0</ele>
  <time>2026-08-28T17:50:40Z</time>
  <course>248.25</course>
  <speed>0.01</speed>
  <fix>3d</fix>
</trkpt>
<trkpt lat="40.0713749" lon="-105.229789">
  <ele>1583.0</ele>
  <time>2026-08-28T17:50:40Z</time>
  <course>0.0</course>
  <speed>0.0</speed>
  <fix>3d</fix>
</trkpt>
<trkpt lat="40.0713749" lon="-105.229789">
  <ele>1583.0</ele>
  <time>2026-08-28T17:50:40Z</time>
  <course>248.24</course>
  <speed>0.01</speed>
  <fix>3d</fix>
</trkpt>
<trkpt lat="40.0713749" lon="-105.229789">
  <ele>1583.0</ele>
  <time>2026-08-28T17:50:40Z</time>
  <course>0.0</course>
  <speed>0.0</speed>
  <fix>3d</fix>
</trkpt>
<trkpt lat="40.0713749" lon="-105.229789">
  <ele>1583.0</ele>
  <time>2026-08-28T17:50:40Z</time>
  <course>248.24</course>
  <speed>0.01</speed>
  <fix>3d</fix>
</trkpt>
<trkpt lat="40.0713749" lon="-105.229789">
  <ele>1583.0</ele>
  <time>2026-08-28T17:50:40Z</time>
  <course>0.0</course>
  <speed>0.0</speed>
  <fix>3d</fix>
</trkpt>
<trkpt lat="40.0713749" lon="-105.229789">
  <ele>1583.0</ele>
  <time>2026-08-28T17:50:40Z</time>
  <course>248.23</course>
  <speed>0.01</speed>
  <fix>3d</fix>
</trkpt>
<trkpt lat="40.0713749" lon="-105.229789">
  <ele>1583.0</ele>
  <time>2026-08-28T17:50:40Z</time>
  <course>0.0</course>
  <speed>0.0</speed>
  <fix>3d</fix>
</trkpt>
<trkpt lat="40.0713749" lon="-105.229789">
  <ele>1583.0</ele>
  <time>2026-08-28T17:50:40Z</time>
  <course>248.23</course>
  <speed>0.01</speed>
  <fix>3d</fix>
</trkpt>
<trkpt lat="40.0713749" lon="-105.229789">
  <ele>1583.0</ele>
  <time>2026-08-28T17:50:40Z</time>
  <course>0.0</course>
  <speed>0.0</speed>
  <fix>3d</fix>
</trkpt>
<trkpt lat="40.0713749" lon="-105.229789">
  <ele>1583.0</ele>
  <time>2026-08-28T17:50:40Z</time>
  <course>248.22</course>
  <speed>0.01</speed>
  <fix>3d</fix>
</trkpt>
<trkpt lat="40.0713749" lon="-105.229789">
  <ele>1583.0</ele>
  <time>2026-08-28T17:50:40Z</time>
  <course>0.0</course>
  <speed>0.0</speed>
  <fix>3d</fix>
</trkpt>
<trkpt lat="40.0713749" lon="-105.229789">
  <ele>1583.0</ele>
  <time>2026-08-28T17:50:40Z</time>
  <course>248.22</course>
  <speed>0.01</speed>
  <fix>3d</fix>
</trkpt>
<trkpt lat="40.0713749" lon="-105.229789">
  <ele>1583.0</ele>
  <time>2026-08-28T17:50:40Z</time>
  <course>0.0</course>
  <speed>0.0</speed>
  <fix>3d</fix>
</trkpt>
<trkpt lat="40.0713749" lon="-105.229789">
  <ele>1583.0</ele>
  <time>2026-08-28T17:50:40Z</time>
  <course>248.21</course>
  <speed>0.01</speed>
  <fix>3d</fix>
</trkpt>
<trkpt lat="40.0713749" lon="-105.229789">
  <ele>1583.0</ele>
  <time>2026-08-28T17:50:40Z</time>
  <course>0.0</course>
  <speed>0.0</speed>
  <fix>3d</fix>
</trkpt>
<trkpt lat="40.0713749" lon="-105.229789">
  <ele>1583.0</ele>
  <time>2026-08-28T17:50:41Z</time>
  <course>248.21</course>
  <speed>0.01</speed>
  <fix>3d</fix>
</trkpt>
<trkpt lat="40.0713749" lon="-105.229789">
  <ele>1583.0</ele>
  <time>2026-08-28T17:50:41Z</time>
  <course>0.0</course>
  <speed>0.0</speed>
  <fix>3d</fix>
</trkpt>
<trkpt lat="40.0713749" lon="-105.229789">
  <ele>1583.0</ele>
  <time>2026-08-28T17:50:41Z</time>
  <course>248.2</course>
  <speed>0.01</speed>
  <fix>3d</fix>
</trkpt>
<trkpt lat="40.0713749" lon="-105.229789">
  <ele>1583.0</ele>
  <time>2026-08-28T17:50:41Z</time>
  <course>0.0</course>
  <speed>0.0</speed>
  <fix>3d</fix>
</trkpt>
<trkpt lat="40.0713749" lon="-105.229789">
  <ele>1583.0</ele>
  <time>2026-08-28T17:50:41Z</time>
  <course>248.2</course>
  <speed>0.01</speed>
  <fix>3d</fix>
</trkpt>
<trkpt lat="40.0713749" lon="-105.229789">
  <ele>1583.0</ele>
  <time>2026-08-28T17:50:41Z</time>
  <course>0.0</course>
  <speed>0.0</speed>
  <fix>3d</fix>
</trkpt>
<trkpt lat="40.0713749" lon="-105.229789">
  <ele>1583.0</ele>
  <time>2026-08-28T17:50:41Z</time>
  <course>248.19</course>
  <speed>0.01</speed>
  <fix>3d</fix>
</trkpt>
<trkpt lat="40.0713749" lon="-105.229789">
  <ele>1583.0</ele>
  <time>2026-08-28T17:50:41Z</time>
  <course>0.0</course>
  <speed>0.0</speed>
  <fix>3d</fix>
</trkpt>
<trkpt lat="40.0713749" lon="-105.229789">
  <ele>1583.0</ele>
  <time>2026-08-28T17:50:41Z</time>
  <course>248.19</course>
  <speed>0.01</speed>
  <fix>3d</fix>
</trkpt>
<trkpt lat="40.0713749" lon="-105.229789">
  <ele>1583.0</ele>
  <time>2026-08-28T17:50:41Z</time>
  <course>0.0</course>
  <speed>0.0</speed>
  <fix>3d</fix>
</trkpt>
<trkpt lat="40.0713749" lon="-105.229789">
  <ele>1583.0</ele>
  <time>2026-08-28T17:50:41Z</time>
  <course>248.18</course>
  <speed>0.01</speed>
  <fix>3d</fix>
</trkpt>
<trkpt lat="40.0713749" lon="-105.229789">
  <ele>1583.0</ele>
  <time>2026-08-28T17:50:41Z</time>
  <course>0.0</course>
  <speed>0.0</speed>
  <fix>3d</fix>
</trkpt>
<trkpt lat="40.0713749" lon="-105.229789">
  <ele>1583.0</ele>
  <time>2026-08-28T17:50:41Z</time>
  <course>248.18</course>
  <speed>0.01</speed>
  <fix>3d</fix>
</trkpt>
<trkpt lat="40.0713749" lon="-105.229789">
  <ele>1583.0</ele>
  <time>2026-08-28T17:50:41Z</time>
  <course>0.0</course>
  <speed>0.0</speed>
  <fix>3d</fix>
</trkpt>
<trkpt lat="40.0713749" lon="-105.229789">
  <ele>1583.0</ele>
  <time>2026-08-28T17:50:41Z</time>
  <course>248.17</course>
  <speed>0.022360679774997897</speed>
  <fix>3d</fix>
</trkpt>
<trkpt lat="40.0713749" lon="-105.229789">
  <ele>1583.0</ele>
  <time>2026-08-28T17:50:41Z</time>
  <course>0.0</course>
  <speed>0.0</speed>
  <fix>3d</fix>
</trkpt>
<trkpt lat="40.0713749" lon="-105.229789">
  <ele>1583.0</ele>
  <time>2026-08-28T17:50:41Z</time>
  <course>248.17</course>
  <speed>0.022360679774997897</speed>
  <fix>3d</fix>
</trkpt>
<trkpt lat="40.0713749" lon="-105.229789">
  <ele>1583.0</ele>
  <time>2026-08-28T17:50:41Z</time>
  <course>0.0</course>
  <speed>0.0</speed>
  <fix>3d</fix>
</trkpt>
<trkpt lat="40.0713749" lon="-105.229789">
  <ele>1583.0</ele>
  <time>2026-08-28T17:50:41Z</time>
  <course>248.16</course>
  <speed>0.022360679774997897</speed>
  <fix>3d</fix>
</trkpt>
<trkpt lat="40.0713749" lon="-105.229789">
  <ele>1583.0</ele>
  <time>2026-08-28T17:50:41Z</time>
  <course>0.0</course>
  <speed>0.0</speed>
  <fix>3d</fix>
</trkpt>
<trkpt lat="40.0713749" lon="-105.229789">
  <ele>1583.0</ele>
  <time>2026-08-28T17:50:41Z</time>
  <course>248.16</course>
  <speed>0.022360679774997897</speed>
  <fix>3d</fix>
</trkpt>
<trkpt lat="40.0713749" lon="-105.229789">
  <ele>1583.0</ele>
  <time>2026-08-28T17:50:41Z</time>
  <course>0.0</course>
  <speed>0.0</speed>
  <fix>3d</fix>
</trkpt>
<trkpt lat="40.0713749" lon="-105.229789">
  <ele>1583.0</ele>
  <time>2026-08-28T17:50:41Z</time>
  <course>248.15</course>
  <speed>0.022360679774997897</speed>
  <fix>3d</fix>
</trkpt>
<trkpt lat="40.0713749" lon="-105.229789">
  <ele>1583.0</ele>
  <time>2026-08-28T17:50:41Z</time>
  <course>0.0</course>
  <speed>0.0</speed>
  <fix>3d</fix>
</trkpt>
<trkpt lat="40.0713749" lon="-105.229789">
  <ele>1583.0</ele>
  <time>2026-08-28T17:50:41Z</time>
  <course>248.15</course>
  <speed>0.022360679774997897</speed>
  <fix>3d</fix>
</trkpt>
<trkpt lat="40.0713749" lon="-105.229789">
  <ele>1583.0</ele>
  <time>2026-08-28T17:50:41Z</time>
  <course>0.0</course>
  <speed>0.0</speed>
  <fix>3d</fix>
</trkpt>
<trkpt lat="40.0713749" lon="-105.229789">
  <ele>1583.0</ele>
  <time>2026-08-28T17:50:41Z</time>
  <course>248.14</course>
  <speed>0.022360679774997897</speed>
  <fix>3d</fix>
</trkpt>
<trkpt lat="40.0713749" lon="-105.229789">
  <ele>1583.0</ele>
  <time>2026-08-28T17:50:41Z</time>
  <course>0.0</course>
  <speed>0.0</speed>
  <fix>3d</fix>
</trkpt>
<trkpt lat="40.0713749" lon="-105.229789">
  <ele>1583.0</ele>
  <time>2026-08-28T17:50:41Z</time>
  <course>248.14</course>
  <speed>0.022360679774997897</speed>
  <fix>3d</fix>
</trkpt>
<trkpt lat="40.0713749" lon="-105.229789">
  <ele>1583.0</ele>
  <time>2026-08-28T17:50:41Z</time>
  <course>0.0</course>
  <speed>0.0</speed>
  <fix>3d</fix>
</trkpt>
<trkpt lat="40.0713749" lon="-105.229789">
  <ele>1583.0</ele>
  <time>2026-08-28T17:50:41Z</time>
  <course>248.13</course>
  <speed>0.022360679774997897</speed>
  <fix>3d</fix>
</trkpt>
<trkpt lat="40.0713749" lon="-105.229789">
  <ele>1583.0</ele>
  <time>2026-08-28T17:50:41Z</time>
  <course>0.0</course>
  <speed>0.0</speed>
  <fix>3d</fix>
</trkpt>
<trkpt lat="40.0713749" lon="-105.229789">
  <ele>1583.0</ele>
  <time>2026-08-28T17:50:41Z</time>
  <course>248.13</course>
  <speed>0.022360679774997897</speed>
  <fix>3d</fix>
</trkpt>
<trkpt lat="40.0713749" lon="-105.229789">
  <ele>1583.0</ele>
  <time>2026-08-28T17:50:41Z</time>
  <course>0.0</course>
  <speed>0.0</speed>
  <fix>3d</fix>
</trkpt>
<trkpt lat="40.0713749" lon="-105.229789">
  <ele>1583.0</ele>
  <time>2026-08-28T17:50:41Z</time>
  <course>248.12</course>
  <speed>0.022360679774997897</speed>
  <fix>3d</fix>
</trkpt>
<trkpt lat="40.0713749" lon="-105.229789">
  <ele>1583.0</ele>
  <time>2026-08-28T17:50:41Z</time>
  <course>0.0</course>
  <speed>0.0</speed>
  <fix>3d</fix>
</trkpt>
<trkpt lat="40.0713749" lon="-105.229789">
  <ele>1583.0</ele>
  <time>2026-08-28T17:50:41Z</time>
  <course>248.12</course>
  <speed>0.022360679774997897</speed>
  <fix>3d</fix>
</trkpt>
<trkpt lat="40.0713749" lon="-105.229789">
  <ele>1583.0</ele>
  <time>2026-08-28T17:50:41Z</time>
  <course>0.0</course>
  <speed>0.0</speed>
  <fix>3d</fix>
</trkpt>
<trkpt lat="40.0713749" lon="-105.229789">
  <ele>1583.0</ele>
  <time>2026-08-28T17:50:41Z</time>
  <course>248.11</course>
  <speed>0.022360679774997897</speed>
  <fix>3d</fix>
</trkpt>
<trkpt lat="40.0713749" lon="-105.229789">
  <ele>1583.0</ele>
  <time>2026-08-28T17:50:41Z</time>
  <course>0.0</course>
  <speed>0.0</speed>
  <fix>3d</fix>
</trkpt>
<trkpt lat="40.0713749" lon="-105.229789">
  <ele>1583.0</ele>
  <time>2026-08-28T17:50:41Z</time>
  <course>248.11</course>
  <speed>0.022360679774997897</speed>
  <fix>3d</fix>
</trkpt>
<trkpt lat="40.0713749" lon="-105.229789">
  <ele>1583.0</ele>
  <time>2026-08-28T17:50:41Z</time>
  <course>0.0</course>
  <speed>0.0</speed>
  <fix>3d</fix>
</trkpt>
<trkpt lat="40.0713749" lon="-105.229789">
  <ele>1583.0</ele>
  <time>2026-08-28T17:50:41Z</time>
  <course>248.1</course>
  <speed>0.022360679774997897</speed>
  <fix>3d</fix>
</trkpt>
<trkpt lat="40.0713749" lon="-105.229789">
  <ele>1583.0</ele>
  <time>2026-08-28T17:50:41Z</time>
  <course>0.0</course>
  <speed>0.0</speed>
  <fix>3d</fix>
</trkpt>
<trkpt lat="40.0713749" lon="-105.229789">
  <ele>1583.0</ele>
  <time>2026-08-28T17:50:41Z</time>
  <course>248.1</course>
  <speed>0.022360679774997897</speed>
  <fix>3d</fix>
</trkpt>
<trkpt lat="40.0713749" lon="-105.229789">
  <ele>1583.0</ele>
  <time>2026-08-28T17:50:41Z</time>
  <course>0.0</course>
  <speed>0.0</speed>
  <fix>3d</fix>
</trkpt>
<trkpt lat="40.0713749" lon="-105.229789">
  <ele>1583.0</ele>
  <time>2026-08-28T17:50:41Z</time>
  <course>248.09</course>
  <speed>0.022360679774997897</speed>
  <fix>3d</fix>
</trkpt>
<trkpt lat="40.0713749" lon="-105.229789">
  <ele>1583.0</ele>
  <time>2026-08-28T17:50:41Z</time>
  <course>0.0</course>
  <speed>0.0</speed>
  <fix>3d</fix>
</trkpt>
<trkpt lat="40.0713749" lon="-105.229789">
  <ele>1583.0</ele>
  <time>2026-08-28T17:50:41Z</time>
  <course>248.09</course>
  <speed>0.022360679774997897</speed>
  <fix>3d</fix>
</trkpt>
<trkpt lat="40.0713749" lon="-105.229789">
  <ele>1583.0</ele>
  <time>2026-08-28T17:50:41Z</time>
  <course>0.0</course>
  <speed>0.0</speed>
  <fix>3d</fix>
</trkpt>
<trkpt lat="40.0713749" lon="-105.229789">
  <ele>1583.0</ele>
  <time>2026-08-28T17:50:41Z</time>
  <course>248.08</course>
  <speed>0.022360679774997897</speed>
  <fix>3d</fix>
</trkpt>
<trkpt lat="40.0713749" lon="-105.229789">
  <ele>1583.0</ele>
  <time>2026-08-28T17:50:41Z</time>
  <course>0.0</course>
  <speed>0.0</speed>
  <fix>3d</fix>
</trkpt>
<trkpt lat="40.0713749" lon="-105.229789">
  <ele>1583.0</ele>
  <time>2026-08-28T17:50:41Z</time>
  <course>248.08</course>
  <speed>0.022360679774997897</speed>
  <fix>3d</fix>
</trkpt>
<trkpt lat="40.0713749" lon="-105.229789">
  <ele>1583.0</ele>
  <time>2026-08-28T17:50:41Z</time>
  <course>0.0</course>
  <speed>0.0</speed>
  <fix>3d</fix>
</trkpt>
<trkpt lat="40.0713749" lon="-105.229789">
  <ele>1583.0</ele>
  <time>2026-08-28T17:50:41Z</time>
  <course>248.07</course>
  <speed>0.022360679774997897</speed>
  <fix>3d</fix>
</trkpt>
<trkpt lat="40.0713749" lon="-105.229789">
  <ele>1583.0</ele>
  <time>2026-08-28T17:50:41Z</time>
  <course>0.0</course>
  <speed>0.0</speed>
  <fix>3d</fix>
</trkpt>
<trkpt lat="40.0713749" lon="-105.229789">
  <ele>1583.0</ele>
  <time>2026-08-28T17:50:41Z</time>
  <course>248.07</course>
  <speed>0.022360679774997897</speed>
  <fix>3d</fix>
</trkpt>
<trkpt lat="40.0713749" lon="-105.229789">
  <ele>1583.0</ele>
  <time>2026-08-28T17:50:41Z</time>
  <course>0.0</course>
  <speed>0.0</speed>
  <fix>3d</fix>
</trkpt>
<trkpt lat="40.0713749" lon="-105.229789">
  <ele>1583.0</ele>
  <time>2026-08-28T17:50:41Z</time>
  <course>248.06</course>
  <speed>0.022360679774997897</speed>
  <fix>3d</fix>
</trkpt>
<trkpt lat="40.0713749" lon="-105.229789">
  <ele>1583.0</ele>
  <time>2026-08-28T17:50:41Z</time>
  <course>0.0</course>
  <speed>0.0</speed>
  <fix>3d</fix>
</trkpt>
<trkpt lat="40.0713749" lon="-105.229789">
  <ele>1583.0</ele>
  <time>2026-08-28T17:50:41Z</time>
  <course>248.06</course>
  <speed>0.022360679774997897</speed>
  <fix>3d</fix>
</trkpt>
<trkpt lat="40.0713749" lon="-105.229789">
  <ele>1583.0</ele>
  <time>2026-08-28T17:50:41Z</time>
  <course>0.0</course>
  <speed>0.0</speed>
  <fix>3d</fix>
</trkpt>
<trkpt lat="40.0713749" lon="-105.229789">
  <ele>1583.0</ele>
  <time>2026-08-28T17:50:41Z</time>
  <course>248.05</course>
  <speed>0.022360679774997897</speed>
  <fix>3d</fix>
</trkpt>
<trkpt lat="40.0713749" lon="-105.229789">
  <ele>1583.0</ele>
  <time>2026-08-28T17:50:41Z</time>
  <course>0.0</course>
  <speed>0.0</speed>
  <fix>3d</fix>
</trkpt>
<trkpt lat="40.0713749" lon="-105.229789">
  <ele>1583.0</ele>
  <time>2026-08-28T17:50:41Z</time>
  <course>248.05</course>
  <speed>0.022360679774997897</speed>
  <fix>3d</fix>
</trkpt>
<trkpt lat="40.0713749" lon="-105.229789">
  <ele>1583.0</ele>
  <time>2026-08-28T17:50:41Z</time>
  <course>0.0</course>
  <speed>0.0</speed>
  <fix>3d</fix>
</trkpt>
<trkpt lat="40.0713749" lon="-105.229789">
  <ele>1583.0</ele>
  <time>2026-08-28T17:50:41Z</time>
  <course>248.05</course>
  <speed>0.022360679774997897</speed>
  <fix>3d</fix>
</trkpt>
<trkpt lat="40.0713749" lon="-105.229789">
  <ele>1583.0</ele>
  <time>2026-08-28T17:50:41Z</time>
  <course>0.0</course>
  <speed>0.0</speed>
  <fix>3d</fix>
</trkpt>
<trkpt lat="40.0713749" lon="-105.229789">
  <ele>1583.0</ele>
  <time>2026-08-28T17:50:41Z</time>
  <course>248.04</course>
  <speed>0.022360679774997897</speed>
  <fix>3d</fix>
</trkpt>
<trkpt lat="40.0713749" lon="-105.229789">
  <ele>1583.0</ele>
  <time>2026-08-28T17:50:41Z</time>
  <course>0.0</course>
  <speed>0.0</speed>
  <fix>3d</fix>
</trkpt>
<trkpt lat="40.0713749" lon="-105.229789">
  <ele>1583.0</ele>
  <time>2026-08-28T17:50:41Z</time>
  <course>248.04</course>
  <speed>0.022360679774997897</speed>
  <fix>3d</fix>
</trkpt>
<trkpt lat="40.0713749" lon="-105.229789">
  <ele>1583.0</ele>
  <time>2026-08-28T17:50:41Z</time>
  <course>0.0</course>
  <speed>0.0</speed>
  <fix>3d</fix>
</trkpt>
<trkpt lat="40.0713749" lon="-105.229789">
  <ele>1583.0</ele>
  <time>2026-08-28T17:50:41Z</time>
  <course>248.03</course>
  <speed>0.022360679774997897</speed>
  <fix>3d</fix>
</trkpt>
<trkpt lat="40.0713749" lon="-105.229789">
  <ele>1583.0</ele>
  <time>2026-08-28T17:50:41Z</time>
  <course>0.0</course>
  <speed>0.0</speed>
  <fix>3d</fix>
</trkpt>
<trkpt lat="40.0713749" lon="-105.229789">
  <ele>1583.0</ele>
  <time>2026-08-28T17:50:41Z</time>
  <course>248.03</course>
  <speed>0.022360679774997897</speed>
  <fix>3d</fix>
</trkpt>
<trkpt lat="40.0713749" lon="-105.229789">
  <ele>1583.0</ele>
  <time>2026-08-28T17:50:41Z</time>
  <course>0.0</course>
  <speed>0.0</speed>
  <fix>3d</fix>
</trkpt>
<trkpt lat="40.0713749" lon="-105.229789">
  <ele>1583.0</ele>
  <time>2026-08-28T17:50:41Z</time>
  <course>248.02</course>
  <speed>0.022360679774997897</speed>
  <fix>3d</fix>
</trkpt>
<trkpt lat="40.0713749" lon="-105.229789">
  <ele>1583.0</ele>
  <time>2026-08-28T17:50:41Z</time>
  <course>0.0</course>
  <speed>0.0</speed>
  <fix>3d</fix>
</trkpt>
<trkpt lat="40.0713749" lon="-105.229789">
  <ele>1583.0</ele>
  <time>2026-08-28T17:50:41Z</time>
  <course>248.02</course>
  <speed>0.022360679774997897</speed>
  <fix>3d</fix>
</trkpt>
<trkpt lat="40.0713749" lon="-105.229789">
  <ele>1583.0</ele>
  <time>2026-08-28T17:50:41Z</time>
  <course>0.0</course>
  <speed>0.0</speed>
  <fix>3d</fix>
</trkpt>
<trkpt lat="40.0713749" lon="-105.229789">
  <ele>1583.0</ele>
  <time>2026-08-28T17:50:41Z</time>
  <course>248.01</course>
  <speed>0.022360679774997897</speed>
  <fix>3d</fix>
</trkpt>
<trkpt lat="40.0713749" lon="-105.229789">
  <ele>1583.0</ele>
  <time>2026-08-28T17:50:41Z</time>
  <course>0.0</course>
  <speed>0.0</speed>
  <fix>3d</fix>
</trkpt>
<trkpt lat="40.0713749" lon="-105.229789">
  <ele>1583.0</ele>
  <time>2026-08-28T17:50:41Z</time>
  <course>248.01</course>
  <speed>0.022360679774997897</speed>
  <fix>3d</fix>
</trkpt>
<trkpt lat="40.0713749" lon="-105.229789">
  <ele>1583.0</ele>
  <time>2026-08-28T17:50:41Z</time>
  <course>0.0</course>
  <speed>0.0</speed>
  <fix>3d</fix>
</trkpt>
<trkpt lat="40.0713749" lon="-105.229789">
  <ele>1583.0</ele>
  <time>2026-08-28T17:50:41Z</time>
  <course>248.0</course>
  <speed>0.022360679774997897</speed>
  <fix>3d</fix>
</trkpt>
<trkpt lat="40.0713749" lon="-105.229789">
  <ele>1583.0</ele>
  <time>2026-08-28T17:50:41Z</time>
  <course>0.0</course>
  <speed>0.0</speed>
  <fix>3d</fix>
</trkpt>
<trkpt lat="40.0713749" lon="-105.229789">
  <ele>1583.0</ele>
  <time>2026-08-28T17:50:41Z</time>
  <course>248.0</course>
  <speed>0.022360679774997897</speed>
  <fix>3d</fix>
</trkpt>
<trkpt lat="40.0713749" lon="-105.229789">
  <ele>1583.0</ele>
  <time>2026-08-28T17:50:41Z</time>
  <course>0.0</course>
  <speed>0.0</speed>
  <fix>3d</fix>
</trkpt>
<trkpt lat="40.0713749" lon="-105.229789">
  <ele>1583.0</ele>
  <time>2026-08-28T17:50:41Z</time>
  <course>247.99</course>
  <speed>0.022360679774997897</speed>
  <fix>3d</fix>
</trkpt>
<trkpt lat="40.0713749" lon="-105.229789">
  <ele>1583.0</ele>
  <time>2026-08-28T17:50:41Z</time>
  <course>0.0</course>
  <speed>0.0</speed>
  <fix>3d</fix>
</trkpt>
<trkpt lat="40.0713749" lon="-105.229789">
  <ele>1583.0</ele>
  <time>2026-08-28T17:50:41Z</time>
  <course>247.99</course>
  <speed>0.022360679774997897</speed>
  <fix>3d</fix>
</trkpt>
<trkpt lat="40.0713749" lon="-105.229789">
  <ele>1583.0</ele>
  <time>2026-08-28T17:50:41Z</time>
  <course>0.0</course>
  <speed>0.0</speed>
  <fix>3d</fix>
</trkpt>
<trkpt lat="40.0713749" lon="-105.229789">
  <ele>1583.0</ele>
  <time>2026-08-28T17:50:41Z</time>
  <course>247.99</course>
  <speed>0.022360679774997897</speed>
  <fix>3d</fix>
</trkpt>
<trkpt lat="40.0713749" lon="-105.229789">
  <ele>1583.0</ele>
  <time>2026-08-28T17:50:41Z</time>
  <course>0.0</course>
  <speed>0.0</speed>
  <fix>3d</fix>
</trkpt>
<trkpt lat="40.0713749" lon="-105.229789">
  <ele>1583.0</ele>
  <time>2026-08-28T17:50:41Z</time>
  <course>247.98</course>
  <speed>0.022360679774997897</speed>
  <fix>3d</fix>
</trkpt>
<trkpt lat="40.0713749" lon="-105.229789">
  <ele>1583.0</ele>
  <time>2026-08-28T17:50:41Z</time>
  <course>0.0</course>
  <speed>0.0</speed>
  <fix>3d</fix>
</trkpt>
<trkpt lat="40.0713749" lon="-105.229789">
  <ele>1583.0</ele>
  <time>2026-08-28T17:50:41Z</time>
  <course>247.98</course>
  <speed>0.022360679774997897</speed>
  <fix>3d</fix>
</trkpt>
<trkpt lat="40.0713749" lon="-105.229789">
  <ele>1583.0</ele>
  <time>2026-08-28T17:50:41Z</time>
  <course>0.0</course>
  <speed>0.0</speed>
  <fix>3d</fix>
</trkpt>
<trkpt lat="40.0713749" lon="-105.229789">
  <ele>1583.0</ele>
  <time>2026-08-28T17:50:41Z</time>
  <course>247.97</course>
  <speed>0.022360679774997897</speed>
  <fix>3d</fix>
</trkpt>
<trkpt lat="40.0713749" lon="-105.229789">
  <ele>1583.0</ele>
  <time>2026-08-28T17:50:41Z</time>
  <course>0.0</course>
  <speed>0.0</speed>
  <fix>3d</fix>
</trkpt>
<trkpt lat="40.0713749" lon="-105.229789">
  <ele>1583.0</ele>
  <time>2026-08-28T17:50:41Z</time>
  <course>247.97</course>
  <speed>0.022360679774997897</speed>
  <fix>3d</fix>
</trkpt>
<trkpt lat="40.0713749" lon="-105.229789">
  <ele>1583.0</ele>
  <time>2026-08-28T17:50:41Z</time>
  <course>0.0</course>
  <speed>0.0</speed>
  <fix>3d</fix>
</trkpt>
<trkpt lat="40.0713749" lon="-105.229789">
  <ele>1583.0</ele>
  <time>2026-08-28T17:50:41Z</time>
  <course>247.96</course>
  <speed>0.022360679774997897</speed>
  <fix>3d</fix>
</trkpt>
<trkpt lat="40.0713749" lon="-105.229789">
  <ele>1583.0</ele>
  <time>2026-08-28T17:50:41Z</time>
  <course>0.0</course>
  <speed>0.0</speed>
  <fix>3d</fix>
</trkpt>
<trkpt lat="40.0713749" lon="-105.229789">
  <ele>1583.0</ele>
  <time>2026-08-28T17:50:41Z</time>
  <course>247.96</course>
  <speed>0.022360679774997897</speed>
  <fix>3d</fix>
</trkpt>
<trkpt lat="40.0713749" lon="-105.229789">
  <ele>1583.0</ele>
  <time>2026-08-28T17:50:41Z</time>
  <course>0.0</course>
  <speed>0.0</speed>
  <fix>3d</fix>
</trkpt>
<trkpt lat="40.0713749" lon="-105.229789">
  <ele>1583.0</ele>
  <time>2026-08-28T17:50:41Z</time>
  <course>247.95</course>
  <speed>0.022360679774997897</speed>
  <fix>3d</fix>
</trkpt>
<trkpt lat="40.0713749" lon="-105.229789">
  <ele>1583.0</ele>
  <time>2026-08-28T17:50:41Z</time>
  <course>0.0</course>
  <speed>0.0</speed>
  <fix>3d</fix>
</trkpt>
<trkpt lat="40.0713749" lon="-105.229789">
  <ele>1583.0</ele>
  <time>2026-08-28T17:50:41Z</time>
  <course>247.95</course>
  <speed>0.022360679774997897</speed>
  <fix>3d</fix>
</trkpt>
<trkpt lat="40.0713749" lon="-105.229789">
  <ele>1583.0</ele>
  <time>2026-08-28T17:50:41Z</time>
  <course>0.0</course>
  <speed>0.0</speed>
  <fix>3d</fix>
</trkpt>
<trkpt lat="40.0713749" lon="-105.229789">
  <ele>1583.0</ele>
  <time>2026-08-28T17:50:41Z</time>
  <course>247.95</course>
  <speed>0.022360679774997897</speed>
  <fix>3d</fix>
</trkpt>
<trkpt lat="40.0713749" lon="-105.229789">
  <ele>1583.0</ele>
  <time>2026-08-28T17:50:41Z</time>
  <course>0.0</course>
  <speed>0.0</speed>
  <fix>3d</fix>
</trkpt>
<trkpt lat="40.0713749" lon="-105.229789">
  <ele>1583.0</ele>
  <time>2026-08-28T17:50:41Z</time>
  <course>247.94</course>
  <speed>0.022360679774997897</speed>
  <fix>3d</fix>
</trkpt>
<trkpt lat="40.0713749" lon="-105.229789">
  <ele>1583.0</ele>
  <time>2026-08-28T17:50:41Z</time>
  <course>0.0</course>
  <speed>0.0</speed>
  <fix>3d</fix>
</trkpt>
<trkpt lat="40.0713749" lon="-105.229789">
  <ele>1583.0</ele>
  <time>2026-08-28T17:50:41Z</time>
  <course>247.94</course>
  <speed>0.022360679774997897</speed>
  <fix>3d</fix>
</trkpt>
<trkpt lat="40.0713749" lon="-105.229789">
  <ele>1583.0</ele>
  <time>2026-08-28T17:50:41Z</time>
  <course>0.0</course>
  <speed>0.0</speed>
  <fix>3d</fix>
</trkpt>
<trkpt lat="40.0713749" lon="-105.229789">
  <ele>1583.0</ele>
  <time>2026-08-28T17:50:41Z</time>
  <course>247.93</course>
  <speed>0.022360679774997897</speed>
  <fix>3d</fix>
</trkpt>
<trkpt lat="40.0713749" lon="-105.229789">
  <ele>1583.0</ele>
  <time>2026-08-28T17:50:41Z</time>
  <course>0.0</course>
  <speed>0.0</speed>
  <fix>3d</fix>
</trkpt>
<trkpt lat="40.0713749" lon="-105.229789">
  <ele>1583.0</ele>
  <time>2026-08-28T17:50:41Z</time>
  <course>247.93</course>
  <speed>0.022360679774997897</speed>
  <fix>3d</fix>
</trkpt>
<trkpt lat="40.0713749" lon="-105.229789">
  <ele>1583.0</ele>
  <time>2026-08-28T17:50:41Z</time>
  <course>0.0</course>
  <speed>0.0</speed>
  <fix>3d</fix>
</trkpt>
<trkpt lat="40.0713749" lon="-105.229789">
  <ele>1583.0</ele>
  <time>2026-08-28T17:50:41Z</time>
  <course>247.92</course>
  <speed>0.022360679774997897</speed>
  <fix>3d</fix>
</trkpt>
<trkpt lat="40.0713749" lon="-105.229789">
  <ele>1583.0</ele>
  <time>2026-08-28T17:50:41Z</time>
  <course>0.0</course>
  <speed>0.0</speed>
  <fix>3d</fix>
</trkpt>
<trkpt lat="40.0713749" lon="-105.229789">
  <ele>1583.0</ele>
  <time>2026-08-28T17:50:41Z</time>
  <course>247.92</course>
  <speed>0.022360679774997897</speed>
  <fix>3d</fix>
</trkpt>
<trkpt lat="40.0713749" lon="-105.229789">
  <ele>1583.0</ele>
  <time>2026-08-28T17:50:41Z</time>
  <course>0.0</course>
  <speed>0.0</speed>
  <fix>3d</fix>
</trkpt>
<trkpt lat="40.0713749" lon="-105.229789">
  <ele>1583.0</ele>
  <time>2026-08-28T17:50:41Z</time>
  <course>247.92</course>
  <speed>0.022360679774997897</speed>
  <fix>3d</fix>
</trkpt>
<trkpt lat="40.0713749" lon="-105.229789">
  <ele>1583.0</ele>
  <time>2026-08-28T17:50:41Z</time>
  <course>0.0</course>
  <speed>0.0</speed>
  <fix>3d</fix>
</trkpt>
<trkpt lat="40.0713749" lon="-105.229789">
  <ele>1583.0</ele>
  <time>2026-08-28T17:50:41Z</time>
  <course>247.91</course>
  <speed>0.022360679774997897</speed>
  <fix>3d</fix>
</trkpt>
<trkpt lat="40.0713749" lon="-105.229789">
  <ele>1583.0</ele>
  <time>2026-08-28T17:50:41Z</time>
  <course>0.0</course>
  <speed>0.0</speed>
  <fix>3d</fix>
</trkpt>
<trkpt lat="40.0713749" lon="-105.229789">
  <ele>1583.0</ele>
  <time>2026-08-28T17:50:41Z</time>
  <course>247.91</course>
  <speed>0.022360679774997897</speed>
  <fix>3d</fix>
</trkpt>
<trkpt lat="40.0713749" lon="-105.229789">
  <ele>1583.0</ele>
  <time>2026-08-28T17:50:41Z</time>
  <course>0.0</course>
  <speed>0.0</speed>
  <fix>3d</fix>
</trkpt>
<trkpt lat="40.0713749" lon="-105.229789">
  <ele>1583.0</ele>
  <time>2026-08-28T17:50:41Z</time>
  <course>247.9</course>
  <speed>0.022360679774997897</speed>
  <fix>3d</fix>
</trkpt>
<trkpt lat="40.0713749" lon="-105.229789">
  <ele>1583.0</ele>
  <time>2026-08-28T17:50:41Z</time>
  <course>0.0</course>
  <speed>0.0</speed>
  <fix>3d</fix>
</trkpt>
<trkpt lat="40.0713749" lon="-105.229789">
  <ele>1583.0</ele>
  <time>2026-08-28T17:50:41Z</time>
  <course>247.9</course>
  <speed>0.022360679774997897</speed>
  <fix>3d</fix>
</trkpt>
<trkpt lat="40.0713749" lon="-105.229789">
  <ele>1583.0</ele>
  <time>2026-08-28T17:50:41Z</time>
  <course>0.0</course>
  <speed>0.0</speed>
  <fix>3d</fix>
</trkpt>
<trkpt lat="40.0713749" lon="-105.229789">
  <ele>1583.0</ele>
  <time>2026-08-28T17:50:41Z</time>
  <course>247.89</course>
  <speed>0.022360679774997897</speed>
  <fix>3d</fix>
</trkpt>
<trkpt lat="40.0713749" lon="-105.229789">
  <ele>1583.0</ele>
  <time>2026-08-28T17:50:41Z</time>
  <course>0.0</course>
  <speed>0.0</speed>
  <fix>3d</fix>
</trkpt>
<trkpt lat="40.0713749" lon="-105.229789">
  <ele>1583.0</ele>
  <time>2026-08-28T17:50:41Z</time>
  <course>247.89</course>
  <speed>0.022360679774997897</speed>
  <fix>3d</fix>
</trkpt>
<trkpt lat="40.0713749" lon="-105.229789">
  <ele>1583.0</ele>
  <time>2026-08-28T17:50:41Z</time>
  <course>0.0</course>
  <speed>0.0</speed>
  <fix>3d</fix>
</trkpt>
<trkpt lat="40.0713749" lon="-105.229789">
  <ele>1583.0</ele>
  <time>2026-08-28T17:50:41Z</time>
  <course>247.89</course>
  <speed>0.022360679774997897</speed>
  <fix>3d</fix>
</trkpt>
<trkpt lat="40.0713749" lon="-105.229789">
  <ele>1583.0</ele>
  <time>2026-08-28T17:50:41Z</time>
  <course>0.0</course>
  <speed>0.0</speed>
  <fix>3d</fix>
</trkpt>
<trkpt lat="40.0713749" lon="-105.229789">
  <ele>1583.0</ele>
  <time>2026-08-28T17:50:41Z</time>
  <course>247.88</course>
  <speed>0.0316227766016838</speed>
  <fix>3d</fix>
</trkpt>
<trkpt lat="40.0713749" lon="-105.229789">
  <ele>1583.0</ele>
  <time>2026-08-28T17:50:41Z</time>
  <course>0.0</course>
  <speed>0.0</speed>
  <fix>3d</fix>
</trkpt>
<trkpt lat="40.0713749" lon="-105.229789">
  <ele>1583.0</ele>
  <time>2026-08-28T17:50:41Z</time>
  <course>247.88</course>
  <speed>0.0316227766016838</speed>
  <fix>3d</fix>
</trkpt>
<trkpt lat="40.0713749" lon="-105.229789">
  <ele>1583.0</ele>
  <time>2026-08-28T17:50:41Z</time>
  <course>0.0</course>
  <speed>0.0</speed>
  <fix>3d</fix>
</trkpt>
<trkpt lat="40.0713749" lon="-105.229789">
  <ele>1583.0</ele>
  <time>2026-08-28T17:50:41Z</time>
  <course>247.87</course>
  <speed>0.0316227766016838</speed>
  <fix>3d</fix>
</trkpt>
<trkpt lat="40.0713749" lon="-105.229789">
  <ele>1583.0</ele>
  <time>2026-08-28T17:50:41Z</time>
  <course>0.0</course>
  <speed>0.0</speed>
  <fix>3d</fix>
</trkpt>
<trkpt lat="40.0713749" lon="-105.229789">
  <ele>1583.0</ele>
  <time>2026-08-28T17:50:41Z</time>
  <course>247.87</course>
  <speed>0.0316227766016838</speed>
  <fix>3d</fix>
</trkpt>
<trkpt lat="40.0713749" lon="-105.229789">
  <ele>1583.0</ele>
  <time>2026-08-28T17:50:41Z</time>
  <course>0.0</course>
  <speed>0.0</speed>
  <fix>3d</fix>
</trkpt>
<trkpt lat="40.0713749" lon="-105.229789">
  <ele>1583.0</ele>
  <time>2026-08-28T17:50:41Z</time>
  <course>247.87</course>
  <speed>0.0316227766016838</speed>
  <fix>3d</fix>
</trkpt>
<trkpt lat="40.0713749" lon="-105.229789">
  <ele>1583.0</ele>
  <time>2026-08-28T17:50:41Z</time>
  <course>0.0</course>
  <speed>0.0</speed>
  <fix>3d</fix>
</trkpt>
<trkpt lat="40.0713749" lon="-105.229789">
  <ele>1583.0</ele>
  <time>2026-08-28T17:50:41Z</time>
  <course>247.86</course>
  <speed>0.0316227766016838</speed>
  <fix>3d</fix>
</trkpt>
<trkpt lat="40.0713749" lon="-105.229789">
  <ele>1583.0</ele>
  <time>2026-08-28T17:50:41Z</time>
  <course>0.0</course>
  <speed>0.0</speed>
  <fix>3d</fix>
</trkpt>
<trkpt lat="40.0713749" lon="-105.229789">
  <ele>1583.0</ele>
  <time>2026-08-28T17:50:41Z</time>
  <course>247.86</course>
  <speed>0.0316227766016838</speed>
  <fix>3d</fix>
</trkpt>
<trkpt lat="40.0713749" lon="-105.229789">
  <ele>1583.0</ele>
  <time>2026-08-28T17:50:41Z</time>
  <course>0.0</course>
  <speed>0.0</speed>
  <fix>3d</fix>
</trkpt>
<trkpt lat="40.0713749" lon="-105.229789">
  <ele>1583.0</ele>
  <time>2026-08-28T17:50:41Z</time>
  <course>247.85</course>
  <speed>0.0316227766016838</speed>
  <fix>3d</fix>
</trkpt>
<trkpt lat="40.0713749" lon="-105.229789">
  <ele>1583.0</ele>
  <time>2026-08-28T17:50:41Z</time>
  <course>0.0</course>
  <speed>0.0</speed>
  <fix>3d</fix>
</trkpt>
<trkpt lat="40.0713749" lon="-105.229789">
  <ele>1583.0</ele>
  <time>2026-08-28T17:50:41Z</time>
  <course>247.85</course>
  <speed>0.0316227766016838</speed>
  <fix>3d</fix>
</trkpt>
<trkpt lat="40.0713749" lon="-105.229789">
  <ele>1583.0</ele>
  <time>2026-08-28T17:50:41Z</time>
  <course>0.0</course>
  <speed>0.0</speed>
  <fix>3d</fix>
</trkpt>
<trkpt lat="40.0713749" lon="-105.229789">
  <ele>1583.0</ele>
  <time>2026-08-28T17:50:41Z</time>
  <course>247.85</course>
  <speed>0.0316227766016838</speed>
  <fix>3d</fix>
</trkpt>
<trkpt lat="40.0713749" lon="-105.229789">
  <ele>1583.0</ele>
  <time>2026-08-28T17:50:41Z</time>
  <course>0.0</course>
  <speed>0.0</speed>
  <fix>3d</fix>
</trkpt>
<trkpt lat="40.0713749" lon="-105.229789">
  <ele>1583.0</ele>
  <time>2026-08-28T17:50:41Z</time>
  <course>247.84</course>
  <speed>0.0316227766016838</speed>
  <fix>3d</fix>
</trkpt>
<trkpt lat="40.0713749" lon="-105.229789">
  <ele>1583.0</ele>
  <time>2026-08-28T17:50:41Z</time>
  <course>0.0</course>
  <speed>0.0</speed>
  <fix>3d</fix>
</trkpt>
<trkpt lat="40.0713749" lon="-105.229789">
  <ele>1583.0</ele>
  <time>2026-08-28T17:50:41Z</time>
  <course>247.84</course>
  <speed>0.0316227766016838</speed>
  <fix>3d</fix>
</trkpt>
<trkpt lat="40.0713749" lon="-105.229789">
  <ele>1583.0</ele>
  <time>2026-08-28T17:50:41Z</time>
  <course>0.0</course>
  <speed>0.0</speed>
  <fix>3d</fix>
</trkpt>
<trkpt lat="40.0713749" lon="-105.229789">
  <ele>1583.0</ele>
  <time>2026-08-28T17:50:41Z</time>
  <course>247.83</course>
  <speed>0.0316227766016838</speed>
  <fix>3d</fix>
</trkpt>
<trkpt lat="40.0713749" lon="-105.229789">
  <ele>1583.0</ele>
  <time>2026-08-28T17:50:41Z</time>
  <course>0.0</course>
  <speed>0.0</speed>
  <fix>3d</fix>
</trkpt>
<trkpt lat="40.0713749" lon="-105.229789">
  <ele>1583.0</ele>
  <time>2026-08-28T17:50:41Z</time>
  <course>247.83</course>
  <speed>0.0316227766016838</speed>
  <fix>3d</fix>
</trkpt>
<trkpt lat="40.0713749" lon="-105.229789">
  <ele>1583.0</ele>
  <time>2026-08-28T17:50:41Z</time>
  <course>0.0</course>
  <speed>0.0</speed>
  <fix>3d</fix>
</trkpt>
<trkpt lat="40.0713749" lon="-105.229789">
  <ele>1583.0</ele>
  <time>2026-08-28T17:50:41Z</time>
  <course>247.83</course>
  <speed>0.0316227766016838</speed>
  <fix>3d</fix>
</trkpt>
<trkpt lat="40.0713749" lon="-105.229789">
  <ele>1583.0</ele>
  <time>2026-08-28T17:50:41Z</time>
  <course>0.0</course>
  <speed>0.0</speed>
  <fix>3d</fix>
</trkpt>
<trkpt lat="40.0713749" lon="-105.229789">
  <ele>1583.0</ele>
  <time>2026-08-28T17:50:41Z</time>
  <course>247.82</course>
  <speed>0.0316227766016838</speed>
  <fix>3d</fix>
</trkpt>
<trkpt lat="40.0713749" lon="-105.229789">
  <ele>1583.0</ele>
  <time>2026-08-28T17:50:41Z</time>
  <course>0.0</course>
  <speed>0.0</speed>
  <fix>3d</fix>
</trkpt>
<trkpt lat="40.0713749" lon="-105.229789">
  <ele>1583.0</ele>
  <time>2026-08-28T17:50:41Z</time>
  <course>247.82</course>
  <speed>0.0316227766016838</speed>
  <fix>3d</fix>
</trkpt>
<trkpt lat="40.0713749" lon="-105.229789">
  <ele>1583.0</ele>
  <time>2026-08-28T17:50:41Z</time>
  <course>0.0</course>
  <speed>0.0</speed>
  <fix>3d</fix>
</trkpt>
<trkpt lat="40.0713749" lon="-105.229789">
  <ele>1583.0</ele>
  <time>2026-08-28T17:50:41Z</time>
  <course>247.82</course>
  <speed>0.0316227766016838</speed>
  <fix>3d</fix>
</trkpt>
<trkpt lat="40.0713749" lon="-105.229789">
  <ele>1583.0</ele>
  <time>2026-08-28T17:50:41Z</time>
  <course>0.0</course>
  <speed>0.0</speed>
  <fix>3d</fix>
</trkpt>
<trkpt lat="40.0713749" lon="-105.229789">
  <ele>1583.0</ele>
  <time>2026-08-28T17:50:41Z</time>
  <course>247.81</course>
  <speed>0.0316227766016838</speed>
  <fix>3d</fix>
</trkpt>
<trkpt lat="40.0713749" lon="-105.229789">
  <ele>1583.0</ele>
  <time>2026-08-28T17:50:41Z</time>
  <course>0.0</course>
  <speed>0.0</speed>
  <fix>3d</fix>
</trkpt>
<trkpt lat="40.0713749" lon="-105.229789">
  <ele>1583.0</ele>
  <time>2026-08-28T17:50:41Z</time>
  <course>247.81</course>
  <speed>0.0316227766016838</speed>
  <fix>3d</fix>
</trkpt>
<trkpt lat="40.0713749" lon="-105.229789">
  <ele>1583.0</ele>
  <time>2026-08-28T17:50:41Z</time>
  <course>0.0</course>
  <speed>0.0</speed>
  <fix>3d</fix>
</trkpt>
<trkpt lat="40.0713749" lon="-105.229789">
  <ele>1583.0</ele>
  <time>2026-08-28T17:50:41Z</time>
  <course>247.8</course>
  <speed>0.0316227766016838</speed>
  <fix>3d</fix>
</trkpt>
<trkpt lat="40.0713749" lon="-105.229789">
  <ele>1583.0</ele>
  <time>2026-08-28T17:50:41Z</time>
  <course>0.0</course>
  <speed>0.0</speed>
  <fix>3d</fix>
</trkpt>
<trkpt lat="40.0713749" lon="-105.229789">
  <ele>1583.0</ele>
  <time>2026-08-28T17:50:41Z</time>
  <course>247.8</course>
  <speed>0.0316227766016838</speed>
  <fix>3d</fix>
</trkpt>
<trkpt lat="40.0713749" lon="-105.229789">
  <ele>1583.0</ele>
  <time>2026-08-28T17:50:41Z</time>
  <course>0.0</course>
  <speed>0.0</speed>
  <fix>3d</fix>
</trkpt>
<trkpt lat="40.0713749" lon="-105.229789">
  <ele>1583.0</ele>
  <time>2026-08-28T17:50:41Z</time>
  <course>247.8</course>
  <speed>0.0316227766016838</speed>
  <fix>3d</fix>
</trkpt>
<trkpt lat="40.0713749" lon="-105.229789">
  <ele>1583.0</ele>
  <time>2026-08-28T17:50:41Z</time>
  <course>0.0</course>
  <speed>0.0</speed>
  <fix>3d</fix>
</trkpt>
<trkpt lat="40.0713749" lon="-105.229789">
  <ele>1583.0</ele>
  <time>2026-08-28T17:50:41Z</time>
  <course>247.79</course>
  <speed>0.0316227766016838</speed>
  <fix>3d</fix>
</trkpt>
<trkpt lat="40.0713749" lon="-105.229789">
  <ele>1583.0</ele>
  <time>2026-08-28T17:50:41Z</time>
  <course>0.0</course>
  <speed>0.0</speed>
  <fix>3d</fix>
</trkpt>
<trkpt lat="40.0713749" lon="-105.229789">
  <ele>1583.0</ele>
  <time>2026-08-28T17:50:41Z</time>
  <course>247.79</course>
  <speed>0.0316227766016838</speed>
  <fix>3d</fix>
</trkpt>
<trkpt lat="40.0713749" lon="-105.229789">
  <ele>1583.0</ele>
  <time>2026-08-28T17:50:41Z</time>
  <course>0.0</course>
  <speed>0.0</speed>
  <fix>3d</fix>
</trkpt>
<trkpt lat="40.0713749" lon="-105.229789">
  <ele>1583.0</ele>
  <time>2026-08-28T17:50:41Z</time>
  <course>247.79</course>
  <speed>0.0316227766016838</speed>
  <fix>3d</fix>
</trkpt>
<trkpt lat="40.0713749" lon="-105.229789">
  <ele>1583.0</ele>
  <time>2026-08-28T17:50:41Z</time>
  <course>0.0</course>
  <speed>0.0</speed>
  <fix>3d</fix>
</trkpt>
<trkpt lat="40.0713749" lon="-105.229789">
  <ele>1583.0</ele>
  <time>2026-08-28T17:50:41Z</time>
  <course>247.78</course>
  <speed>0.0316227766016838</speed>
  <fix>3d</fix>
</trkpt>
<trkpt lat="40.0713749" lon="-105.229789">
  <ele>1583.0</ele>
  <time>2026-08-28T17:50:41Z</time>
  <course>0.0</course>
  <speed>0.0</speed>
  <fix>3d</fix>
</trkpt>
<trkpt lat="40.0713749" lon="-105.229789">
  <ele>1583.0</ele>
  <time>2026-08-28T17:50:41Z</time>
  <course>247.78</course>
  <speed>0.0316227766016838</speed>
  <fix>3d</fix>
</trkpt>
<trkpt lat="40.0713749" lon="-105.229789">
  <ele>1583.0</ele>
  <time>2026-08-28T17:50:41Z</time>
  <course>0.0</course>
  <speed>0.0</speed>
  <fix>3d</fix>
</trkpt>
<trkpt lat="40.0713749" lon="-105.229789">
  <ele>1583.0</ele>
  <time>2026-08-28T17:50:41Z</time>
  <course>247.78</course>
  <speed>0.0316227766016838</speed>
  <fix>3d</fix>
</trkpt>
<trkpt lat="40.0713749" lon="-105.229789">
  <ele>1583.0</ele>
  <time>2026-08-28T17:50:41Z</time>
  <course>0.0</course>
  <speed>0.0</speed>
  <fix>3d</fix>
</trkpt>
<trkpt lat="40.0713749" lon="-105.229789">
  <ele>1583.0</ele>
  <time>2026-08-28T17:50:41Z</time>
  <course>247.77</course>
  <speed>0.0316227766016838</speed>
  <fix>3d</fix>
</trkpt>
<trkpt lat="40.0713749" lon="-105.229789">
  <ele>1583.0</ele>
  <time>2026-08-28T17:50:41Z</time>
  <course>0.0</course>
  <speed>0.0</speed>
  <fix>3d</fix>
</trkpt>
<trkpt lat="40.0713749" lon="-105.229789">
  <ele>1583.0</ele>
  <time>2026-08-28T17:50:41Z</time>
  <course>247.77</course>
  <speed>0.0316227766016838</speed>
  <fix>3d</fix>
</trkpt>
<trkpt lat="40.0713749" lon="-105.229789">
  <ele>1583.0</ele>
  <time>2026-08-28T17:50:41Z</time>
  <course>0.0</course>
  <speed>0.0</speed>
  <fix>3d</fix>
</trkpt>
<trkpt lat="40.0713749" lon="-105.229789">
  <ele>1583.0</ele>
  <time>2026-08-28T17:50:41Z</time>
  <course>247.76</course>
  <speed>0.0316227766016838</speed>
  <fix>3d</fix>
</trkpt>
<trkpt lat="40.0713749" lon="-105.229789">
  <ele>1583.0</ele>
  <time>2026-08-28T17:50:41Z</time>
  <course>0.0</course>
  <speed>0.0</speed>
  <fix>3d</fix>
</trkpt>
<trkpt lat="40.0713749" lon="-105.229789">
  <ele>1583.0</ele>
  <time>2026-08-28T17:50:41Z</time>
  <course>247.76</course>
  <speed>0.0316227766016838</speed>
  <fix>3d</fix>
</trkpt>
<trkpt lat="40.0713749" lon="-105.229789">
  <ele>1583.0</ele>
  <time>2026-08-28T17:50:41Z</time>
  <course>0.0</course>
  <speed>0.0</speed>
  <fix>3d</fix>
</trkpt>
<trkpt lat="40.0713749" lon="-105.229789">
  <ele>1583.0</ele>
  <time>2026-08-28T17:50:41Z</time>
  <course>247.76</course>
  <speed>0.0316227766016838</speed>
  <fix>3d</fix>
</trkpt>
<trkpt lat="40.0713749" lon="-105.229789">
  <ele>1583.0</ele>
  <time>2026-08-28T17:50:41Z</time>
  <course>0.0</course>
  <speed>0.0</speed>
  <fix>3d</fix>
</trkpt>
<trkpt lat="40.0713749" lon="-105.229789">
  <ele>1583.0</ele>
  <time>2026-08-28T17:50:41Z</time>
  <course>247.75</course>
  <speed>0.0316227766016838</speed>
  <fix>3d</fix>
</trkpt>
<trkpt lat="40.0713749" lon="-105.229789">
  <ele>1583.0</ele>
  <time>2026-08-28T17:50:41Z</time>
  <course>0.0</course>
  <speed>0.0</speed>
  <fix>3d</fix>
</trkpt>
<trkpt lat="40.0713749" lon="-105.229789">
  <ele>1583.0</ele>
  <time>2026-08-28T17:50:41Z</time>
  <course>247.75</course>
  <speed>0.0316227766016838</speed>
  <fix>3d</fix>
</trkpt>
<trkpt lat="40.0713749" lon="-105.229789">
  <ele>1583.0</ele>
  <time>2026-08-28T17:50:41Z</time>
  <course>0.0</course>
  <speed>0.0</speed>
  <fix>3d</fix>
</trkpt>
<trkpt lat="40.0713749" lon="-105.229789">
  <ele>1583.0</ele>
  <time>2026-08-28T17:50:41Z</time>
  <course>247.75</course>
  <speed>0.0316227766016838</speed>
  <fix>3d</fix>
</trkpt>
<trkpt lat="40.0713749" lon="-105.229789">
  <ele>1583.0</ele>
  <time>2026-08-28T17:50:41Z</time>
  <course>0.0</course>
  <speed>0.0</speed>
  <fix>3d</fix>
</trkpt>
<trkpt lat="40.0713749" lon="-105.229789">
  <ele>1583.0</ele>
  <time>2026-08-28T17:50:41Z</time>
  <course>247.74</course>
  <speed>0.0316227766016838</speed>
  <fix>3d</fix>
</trkpt>
<trkpt lat="40.0713749" lon="-105.229789">
  <ele>1583.0</ele>
  <time>2026-08-28T17:50:41Z</time>
  <course>0.0</course>
  <speed>0.0</speed>
  <fix>3d</fix>
</trkpt>
<trkpt lat="40.0713749" lon="-105.229789">
  <ele>1583.0</ele>
  <time>2026-08-28T17:50:41Z</time>
  <course>247.74</course>
  <speed>0.0316227766016838</speed>
  <fix>3d</fix>
</trkpt>
<trkpt lat="40.0713749" lon="-105.229789">
  <ele>1583.0</ele>
  <time>2026-08-28T17:50:41Z</time>
  <course>0.0</course>
  <speed>0.0</speed>
  <fix>3d</fix>
</trkpt>
<trkpt lat="40.0713749" lon="-105.229789">
  <ele>1583.0</ele>
  <time>2026-08-28T17:50:41Z</time>
  <course>247.74</course>
  <speed>0.0316227766016838</speed>
  <fix>3d</fix>
</trkpt>
<trkpt lat="40.0713749" lon="-105.229789">
  <ele>1583.0</ele>
  <time>2026-08-28T17:50:41Z</time>
  <course>0.0</course>
  <speed>0.0</speed>
  <fix>3d</fix>
</trkpt>
<trkpt lat="40.0713749" lon="-105.229789">
  <ele>1583.0</ele>
  <time>2026-08-28T17:50:41Z</time>
  <course>247.73</course>
  <speed>0.0316227766016838</speed>
  <fix>3d</fix>
</trkpt>
<trkpt lat="40.0713749" lon="-105.229789">
  <ele>1583.0</ele>
  <time>2026-08-28T17:50:41Z</time>
  <course>0.0</course>
  <speed>0.0</speed>
  <fix>3d</fix>
</trkpt>
<trkpt lat="40.0713749" lon="-105.229789">
  <ele>1583.0</ele>
  <time>2026-08-28T17:50:41Z</time>
  <course>247.73</course>
  <speed>0.0316227766016838</speed>
  <fix>3d</fix>
</trkpt>
<trkpt lat="40.0713749" lon="-105.229789">
  <ele>1583.0</ele>
  <time>2026-08-28T17:50:41Z</time>
  <course>0.0</course>
  <speed>0.0</speed>
  <fix>3d</fix>
</trkpt>
<trkpt lat="40.0713749" lon="-105.229789">
  <ele>1583.0</ele>
  <time>2026-08-28T17:50:41Z</time>
  <course>247.73</course>
  <speed>0.0316227766016838</speed>
  <fix>3d</fix>
</trkpt>
<trkpt lat="40.0713749" lon="-105.229789">
  <ele>1583.0</ele>
  <time>2026-08-28T17:50:41Z</time>
  <course>0.0</course>
  <speed>0.0</speed>
  <fix>3d</fix>
</trkpt>
<trkpt lat="40.0713749" lon="-105.229789">
  <ele>1583.0</ele>
  <time>2026-08-28T17:50:41Z</time>
  <course>247.72</course>
  <speed>0.0316227766016838</speed>
  <fix>3d</fix>
</trkpt>
<trkpt lat="40.0713749" lon="-105.229789">
  <ele>1583.0</ele>
  <time>2026-08-28T17:50:41Z</time>
  <course>0.0</course>
  <speed>0.0</speed>
  <fix>3d</fix>
</trkpt>
<trkpt lat="40.0713749" lon="-105.229789">
  <ele>1583.0</ele>
  <time>2026-08-28T17:50:41Z</time>
  <course>247.72</course>
  <speed>0.0316227766016838</speed>
  <fix>3d</fix>
</trkpt>
<trkpt lat="40.0713749" lon="-105.229789">
  <ele>1583.0</ele>
  <time>2026-08-28T17:50:41Z</time>
  <course>0.0</course>
  <speed>0.0</speed>
  <fix>3d</fix>
</trkpt>
<trkpt lat="40.0713749" lon="-105.229789">
  <ele>1583.0</ele>
  <time>2026-08-28T17:50:41Z</time>
  <course>247.72</course>
  <speed>0.0316227766016838</speed>
  <fix>3d</fix>
</trkpt>
<trkpt lat="40.0713749" lon="-105.229789">
  <ele>1583.0</ele>
  <time>2026-08-28T17:50:41Z</time>
  <course>0.0</course>
  <speed>0.0</speed>
  <fix>3d</fix>
</trkpt>
<trkpt lat="40.0713749" lon="-105.229789">
  <ele>1583.0</ele>
  <time>2026-08-28T17:50:41Z</time>
  <course>247.71</course>
  <speed>0.0316227766016838</speed>
  <fix>3d</fix>
</trkpt>
<trkpt lat="40.0713749" lon="-105.229789">
  <ele>1583.0</ele>
  <time>2026-08-28T17:50:41Z</time>
  <course>0.0</course>
  <speed>0.0</speed>
  <fix>3d</fix>
</trkpt>
<trkpt lat="40.0713749" lon="-105.229789">
  <ele>1583.0</ele>
  <time>2026-08-28T17:50:41Z</time>
  <course>247.71</course>
  <speed>0.0316227766016838</speed>
  <fix>3d</fix>
</trkpt>
<trkpt lat="40.0713749" lon="-105.229789">
  <ele>1583.0</ele>
  <time>2026-08-28T17:50:41Z</time>
  <course>0.0</course>
  <speed>0.0</speed>
  <fix>3d</fix>
</trkpt>
<trkpt lat="40.0713749" lon="-105.229789">
  <ele>1583.0</ele>
  <time>2026-08-28T17:50:41Z</time>
  <course>247.71</course>
  <speed>0.0316227766016838</speed>
  <fix>3d</fix>
</trkpt>
<trkpt lat="40.0713749" lon="-105.229789">
  <ele>1583.0</ele>
  <time>2026-08-28T17:50:41Z</time>
  <course>0.0</course>
  <speed>0.0</speed>
  <fix>3d</fix>
</trkpt>
<trkpt lat="40.0713749" lon="-105.229789">
  <ele>1583.0</ele>
  <time>2026-08-28T17:50:41Z</time>
  <course>247.7</course>
  <speed>0.0316227766016838</speed>
  <fix>3d</fix>
</trkpt>
<trkpt lat="40.0713749" lon="-105.229789">
  <ele>1583.0</ele>
  <time>2026-08-28T17:50:41Z</time>
  <course>0.0</course>
  <speed>0.0</speed>
  <fix>3d</fix>
</trkpt>
<trkpt lat="40.0713749" lon="-105.229789">
  <ele>1583.0</ele>
  <time>2026-08-28T17:50:41Z</time>
  <course>247.7</course>
  <speed>0.0316227766016838</speed>
  <fix>3d</fix>
</trkpt>
<trkpt lat="40.0713749" lon="-105.229789">
  <ele>1583.0</ele>
  <time>2026-08-28T17:50:41Z</time>
  <course>0.0</course>
  <speed>0.0</speed>
  <fix>3d</fix>
</trkpt>
<trkpt lat="40.0713749" lon="-105.229789">
  <ele>1583.0</ele>
  <time>2026-08-28T17:50:41Z</time>
  <course>247.7</course>
  <speed>0.0316227766016838</speed>
  <fix>3d</fix>
</trkpt>
<trkpt lat="40.0713749" lon="-105.229789">
  <ele>1583.0</ele>
  <time>2026-08-28T17:50:41Z</time>
  <course>0.0</course>
  <speed>0.0</speed>
  <fix>3d</fix>
</trkpt>
<trkpt lat="40.0713749" lon="-105.229789">
  <ele>1583.0</ele>
  <time>2026-08-28T17:50:41Z</time>
  <course>247.69</course>
  <speed>0.0316227766016838</speed>
  <fix>3d</fix>
</trkpt>
<trkpt lat="40.0713749" lon="-105.229789">
  <ele>1583.0</ele>
  <time>2026-08-28T17:50:41Z</time>
  <course>0.0</course>
  <speed>0.0</speed>
  <fix>3d</fix>
</trkpt>
<trkpt lat="40.0713749" lon="-105.229789">
  <ele>1583.0</ele>
  <time>2026-08-28T17:50:41Z</time>
  <course>247.69</course>
  <speed>0.0316227766016838</speed>
  <fix>3d</fix>
</trkpt>
<trkpt lat="40.0713749" lon="-105.229789">
  <ele>1583.0</ele>
  <time>2026-08-28T17:50:41Z</time>
  <course>0.0</course>
  <speed>0.0</speed>
  <fix>3d</fix>
</trkpt>
<trkpt lat="40.0713749" lon="-105.229789">
  <ele>1583.0</ele>
  <time>2026-08-28T17:50:41Z</time>
  <course>247.69</course>
  <speed>0.0316227766016838</speed>
  <fix>3d</fix>
</trkpt>
<trkpt lat="40.0713749" lon="-105.229789">
  <ele>1583.0</ele>
  <time>2026-08-28T17:50:41Z</time>
  <course>0.0</course>
  <speed>0.0</speed>
  <fix>3d</fix>
</trkpt>
<trkpt lat="40.0713749" lon="-105.229789">
  <ele>1583.0</ele>
  <time>2026-08-28T17:50:41Z</time>
  <course>247.68</course>
  <speed>0.0316227766016838</speed>
  <fix>3d</fix>
</trkpt>
<trkpt lat="40.0713749" lon="-105.229789">
  <ele>1583.0</ele>
  <time>2026-08-28T17:50:41Z</time>
  <course>0.0</course>
  <speed>0.0</speed>
  <fix>3d</fix>
</trkpt>
<trkpt lat="40.0713749" lon="-105.229789">
  <ele>1583.0</ele>
  <time>2026-08-28T17:50:41Z</time>
  <course>247.68</course>
  <speed>0.0316227766016838</speed>
  <fix>3d</fix>
</trkpt>
<trkpt lat="40.0713749" lon="-105.229789">
  <ele>1583.0</ele>
  <time>2026-08-28T17:50:41Z</time>
  <course>0.0</course>
  <speed>0.0</speed>
  <fix>3d</fix>
</trkpt>
<trkpt lat="40.0713749" lon="-105.229789">
  <ele>1583.0</ele>
  <time>2026-08-28T17:50:41Z</time>
  <course>247.68</course>
  <speed>0.0316227766016838</speed>
  <fix>3d</fix>
</trkpt>
<trkpt lat="40.0713749" lon="-105.229789">
  <ele>1583.0</ele>
  <time>2026-08-28T17:50:41Z</time>
  <course>0.0</course>
  <speed>0.0</speed>
  <fix>3d</fix>
</trkpt>
<trkpt lat="40.0713749" lon="-105.229789">
  <ele>1583.0</ele>
  <time>2026-08-28T17:50:41Z</time>
  <course>247.67</course>
  <speed>0.0316227766016838</speed>
  <fix>3d</fix>
</trkpt>
<trkpt lat="40.0713749" lon="-105.229789">
  <ele>1583.0</ele>
  <time>2026-08-28T17:50:41Z</time>
  <course>0.0</course>
  <speed>0.0</speed>
  <fix>3d</fix>
</trkpt>
<trkpt lat="40.0713749" lon="-105.229789">
  <ele>1583.0</ele>
  <time>2026-08-28T17:50:41Z</time>
  <course>247.67</course>
  <speed>0.0316227766016838</speed>
  <fix>3d</fix>
</trkpt>
<trkpt lat="40.0713749" lon="-105.229789">
  <ele>1583.0</ele>
  <time>2026-08-28T17:50:41Z</time>
  <course>0.0</course>
  <speed>0.0</speed>
  <fix>3d</fix>
</trkpt>
<trkpt lat="40.0713749" lon="-105.229789">
  <ele>1583.0</ele>
  <time>2026-08-28T17:50:41Z</time>
  <course>247.67</course>
  <speed>0.0316227766016838</speed>
  <fix>3d</fix>
</trkpt>
<trkpt lat="40.0713749" lon="-105.229789">
  <ele>1583.0</ele>
  <time>2026-08-28T17:50:41Z</time>
  <course>0.0</course>
  <speed>0.0</speed>
  <fix>3d</fix>
</trkpt>
<trkpt lat="40.0713749" lon="-105.229789">
  <ele>1583.0</ele>
  <time>2026-08-28T17:50:41Z</time>
  <course>247.66</course>
  <speed>0.0316227766016838</speed>
  <fix>3d</fix>
</trkpt>
<trkpt lat="40.0713749" lon="-105.229789">
  <ele>1583.0</ele>
  <time>2026-08-28T17:50:41Z</time>
  <course>0.0</course>
  <speed>0.0</speed>
  <fix>3d</fix>
</trkpt>
<trkpt lat="40.0713749" lon="-105.229789">
  <ele>1583.0</ele>
  <time>2026-08-28T17:50:41Z</time>
  <course>247.66</course>
  <speed>0.0316227766016838</speed>
  <fix>3d</fix>
</trkpt>
<trkpt lat="40.0713749" lon="-105.229789">
  <ele>1583.0</ele>
  <time>2026-08-28T17:50:41Z</time>
  <course>0.0</course>
  <speed>0.0</speed>
  <fix>3d</fix>
</trkpt>
<trkpt lat="40.0713749" lon="-105.229789">
  <ele>1583.0</ele>
  <time>2026-08-28T17:50:41Z</time>
  <course>247.66</course>
  <speed>0.0316227766016838</speed>
  <fix>3d</fix>
</trkpt>
<trkpt lat="40.0713749" lon="-105.229789">
  <ele>1583.0</ele>
  <time>2026-08-28T17:50:41Z</time>
  <course>0.0</course>
  <speed>0.0</speed>
  <fix>3d</fix>
</trkpt>
<trkpt lat="40.0713749" lon="-105.229789">
  <ele>1583.0</ele>
  <time>2026-08-28T17:50:41Z</time>
  <course>247.65</course>
  <speed>0.0316227766016838</speed>
  <fix>3d</fix>
</trkpt>
<trkpt lat="40.0713749" lon="-105.229789">
  <ele>1583.0</ele>
  <time>2026-08-28T17:50:41Z</time>
  <course>0.0</course>
  <speed>0.0</speed>
  <fix>3d</fix>
</trkpt>
<trkpt lat="40.0713749" lon="-105.229789">
  <ele>1583.0</ele>
  <time>2026-08-28T17:50:41Z</time>
  <course>247.65</course>
  <speed>0.0316227766016838</speed>
  <fix>3d</fix>
</trkpt>
<trkpt lat="40.0713749" lon="-105.229789">
  <ele>1583.0</ele>
  <time>2026-08-28T17:50:41Z</time>
  <course>0.0</course>
  <speed>0.0</speed>
  <fix>3d</fix>
</trkpt>
<trkpt lat="40.0713749" lon="-105.229789">
  <ele>1583.0</ele>
  <time>2026-08-28T17:50:41Z</time>
  <course>247.65</course>
  <speed>0.0316227766016838</speed>
  <fix>3d</fix>
</trkpt>
<trkpt lat="40.0713749" lon="-105.229789">
  <ele>1583.0</ele>
  <time>2026-08-28T17:50:41Z</time>
  <course>0.0</course>
  <speed>0.0</speed>
  <fix>3d</fix>
</trkpt>
<trkpt lat="40.0713749" lon="-105.229789">
  <ele>1583.0</ele>
  <time>2026-08-28T17:50:41Z</time>
  <course>247.64</course>
  <speed>0.0316227766016838</speed>
  <fix>3d</fix>
</trkpt>
<trkpt lat="40.0713749" lon="-105.229789">
  <ele>1583.0</ele>
  <time>2026-08-28T17:50:41Z</time>
  <course>0.0</course>
  <speed>0.0</speed>
  <fix>3d</fix>
</trkpt>
<trkpt lat="40.0713749" lon="-105.229789">
  <ele>1583.0</ele>
  <time>2026-08-28T17:50:41Z</time>
  <course>247.64</course>
  <speed>0.0316227766016838</speed>
  <fix>3d</fix>
</trkpt>
<trkpt lat="40.0713749" lon="-105.229789">
  <ele>1583.0</ele>
  <time>2026-08-28T17:50:41Z</time>
  <course>0.0</course>
  <speed>0.0</speed>
  <fix>3d</fix>
</trkpt>
<trkpt lat="40.0713749" lon="-105.229789">
  <ele>1583.0</ele>
  <time>2026-08-28T17:50:41Z</time>
  <course>247.64</course>
  <speed>0.0316227766016838</speed>
  <fix>3d</fix>
</trkpt>
<trkpt lat="40.0713749" lon="-105.229789">
  <ele>1583.0</ele>
  <time>2026-08-28T17:50:41Z</time>
  <course>0.0</course>
  <speed>0.0</speed>
  <fix>3d</fix>
</trkpt>
<trkpt lat="40.0713749" lon="-105.229789">
  <ele>1583.0</ele>
  <time>2026-08-28T17:50:41Z</time>
  <course>247.64</course>
  <speed>0.0316227766016838</speed>
  <fix>3d</fix>
</trkpt>
<trkpt lat="40.0713749" lon="-105.229789">
  <ele>1583.0</ele>
  <time>2026-08-28T17:50:41Z</time>
  <course>0.0</course>
  <speed>0.0</speed>
  <fix>3d</fix>
</trkpt>
<trkpt lat="40.0713749" lon="-105.229789">
  <ele>1583.0</ele>
  <time>2026-08-28T17:50:41Z</time>
  <course>247.63</course>
  <speed>0.0316227766016838</speed>
  <fix>3d</fix>
</trkpt>
<trkpt lat="40.0713749" lon="-105.229789">
  <ele>1583.0</ele>
  <time>2026-08-28T17:50:41Z</time>
  <course>0.0</course>
  <speed>0.0</speed>
  <fix>3d</fix>
</trkpt>
<trkpt lat="40.0713749" lon="-105.229789">
  <ele>1583.0</ele>
  <time>2026-08-28T17:50:41Z</time>
  <course>247.63</course>
  <speed>0.0316227766016838</speed>
  <fix>3d</fix>
</trkpt>
<trkpt lat="40.0713749" lon="-105.229789">
  <ele>1583.0</ele>
  <time>2026-08-28T17:50:41Z</time>
  <course>0.0</course>
  <speed>0.0</speed>
  <fix>3d</fix>
</trkpt>
<trkpt lat="40.0713749" lon="-105.229789">
  <ele>1583.0</ele>
  <time>2026-08-28T17:50:41Z</time>
  <course>247.63</course>
  <speed>0.0316227766016838</speed>
  <fix>3d</fix>
</trkpt>
<trkpt lat="40.0713749" lon="-105.229789">
  <ele>1583.0</ele>
  <time>2026-08-28T17:50:41Z</time>
  <course>0.0</course>
  <speed>0.0</speed>
  <fix>3d</fix>
</trkpt>
<trkpt lat="40.0713749" lon="-105.229789">
  <ele>1583.0</ele>
  <time>2026-08-28T17:50:41Z</time>
  <course>247.62</course>
  <speed>0.0316227766016838</speed>
  <fix>3d</fix>
</trkpt>
<trkpt lat="40.0713749" lon="-105.229789">
  <ele>1583.0</ele>
  <time>2026-08-28T17:50:41Z</time>
  <course>0.0</course>
  <speed>0.0</speed>
  <fix>3d</fix>
</trkpt>
<trkpt lat="40.0713749" lon="-105.229789">
  <ele>1583.0</ele>
  <time>2026-08-28T17:50:41Z</time>
  <course>247.62</course>
  <speed>0.0316227766016838</speed>
  <fix>3d</fix>
</trkpt>
<trkpt lat="40.0713749" lon="-105.229789">
  <ele>1583.0</ele>
  <time>2026-08-28T17:50:41Z</time>
  <course>0.0</course>
  <speed>0.0</speed>
  <fix>3d</fix>
</trkpt>
<trkpt lat="40.0713749" lon="-105.229789">
  <ele>1583.0</ele>
  <time>2026-08-28T17:50:41Z</time>
  <course>247.62</course>
  <speed>0.0316227766016838</speed>
  <fix>3d</fix>
</trkpt>
<trkpt lat="40.0713749" lon="-105.229789">
  <ele>1583.0</ele>
  <time>2026-08-28T17:50:41Z</time>
  <course>0.0</course>
  <speed>0.0</speed>
  <fix>3d</fix>
</trkpt>
<trkpt lat="40.0713749" lon="-105.229789">
  <ele>1583.0</ele>
  <time>2026-08-28T17:50:41Z</time>
  <course>247.62</course>
  <speed>0.0316227766016838</speed>
  <fix>3d</fix>
</trkpt>
<trkpt lat="40.0713749" lon="-105.229789">
  <ele>1583.0</ele>
  <time>2026-08-28T17:50:41Z</time>
  <course>0.0</course>
  <speed>0.0</speed>
  <fix>3d</fix>
</trkpt>
<trkpt lat="40.0713749" lon="-105.229789">
  <ele>1583.0</ele>
  <time>2026-08-28T17:50:41Z</time>
  <course>247.61</course>
  <speed>0.0316227766016838</speed>
  <fix>3d</fix>
</trkpt>
<trkpt lat="40.0713749" lon="-105.229789">
  <ele>1583.0</ele>
  <time>2026-08-28T17:50:41Z</time>
  <course>0.0</course>
  <speed>0.0</speed>
  <fix>3d</fix>
</trkpt>
<trkpt lat="40.0713749" lon="-105.229789">
  <ele>1583.0</ele>
  <time>2026-08-28T17:50:41Z</time>
  <course>247.61</course>
  <speed>0.0316227766016838</speed>
  <fix>3d</fix>
</trkpt>
<trkpt lat="40.0713749" lon="-105.229789">
  <ele>1583.0</ele>
  <time>2026-08-28T17:50:41Z</time>
  <course>0.0</course>
  <speed>0.0</speed>
  <fix>3d</fix>
</trkpt>
<trkpt lat="40.0713749" lon="-105.229789">
  <ele>1583.0</ele>
  <time>2026-08-28T17:50:41Z</time>
  <course>247.61</course>
  <speed>0.0316227766016838</speed>
  <fix>3d</fix>
</trkpt>
<trkpt lat="40.0713749" lon="-105.229789">
  <ele>1583.0</ele>
  <time>2026-08-28T17:50:41Z</time>
  <course>0.0</course>
  <speed>0.0</speed>
  <fix>3d</fix>
</trkpt>
<trkpt lat="40.0713749" lon="-105.229789">
  <ele>1583.0</ele>
  <time>2026-08-28T17:50:41Z</time>
  <course>247.6</course>
  <speed>0.0316227766016838</speed>
  <fix>3d</fix>
</trkpt>
<trkpt lat="40.0713749" lon="-105.229789">
  <ele>1583.0</ele>
  <time>2026-08-28T17:50:41Z</time>
  <course>0.0</course>
  <speed>0.0</speed>
  <fix>3d</fix>
</trkpt>
<trkpt lat="40.0713749" lon="-105.229789">
  <ele>1583.0</ele>
  <time>2026-08-28T17:50:41Z</time>
  <course>247.6</course>
  <speed>0.0316227766016838</speed>
  <fix>3d</fix>
</trkpt>
<trkpt lat="40.0713749" lon="-105.229789">
  <ele>1583.0</ele>
  <time>2026-08-28T17:50:41Z</time>
  <course>0.0</course>
  <speed>0.0</speed>
  <fix>3d</fix>
</trkpt>
<trkpt lat="40.0713749" lon="-105.229789">
  <ele>1583.0</ele>
  <time>2026-08-28T17:50:41Z</time>
  <course>247.6</course>
  <speed>0.0316227766016838</speed>
  <fix>3d</fix>
</trkpt>
<trkpt lat="40.0713749" lon="-105.229789">
  <ele>1583.0</ele>
  <time>2026-08-28T17:50:41Z</time>
  <course>0.0</course>
  <speed>0.0</speed>
  <fix>3d</fix>
</trkpt>
<trkpt lat="40.0713749" lon="-105.229789">
  <ele>1583.0</ele>
  <time>2026-08-28T17:50:41Z</time>
  <course>247.6</course>
  <speed>0.0316227766016838</speed>
  <fix>3d</fix>
</trkpt>
<trkpt lat="40.0713749" lon="-105.229789">
  <ele>1583.0</ele>
  <time>2026-08-28T17:50:41Z</time>
  <course>0.0</course>
  <speed>0.0</speed>
  <fix>3d</fix>
</trkpt>
<trkpt lat="40.0713749" lon="-105.229789">
  <ele>1583.0</ele>
  <time>2026-08-28T17:50:41Z</time>
  <course>247.59</course>
  <speed>0.0316227766016838</speed>
  <fix>3d</fix>
</trkpt>
<trkpt lat="40.0713749" lon="-105.229789">
  <ele>1583.0</ele>
  <time>2026-08-28T17:50:41Z</time>
  <course>0.0</course>
  <speed>0.0</speed>
  <fix>3d</fix>
</trkpt>
<trkpt lat="40.0713749" lon="-105.229789">
  <ele>1582.92</ele>
  <time>2026-08-28T17:50:41Z</time>
  <course>247.59</course>
  <speed>0.0</speed>
  <fix>3d</fix>
</trkpt>
<trkpt lat="40.0713749" lon="-105.229789">
  <ele>1583.0</ele>
  <time>2026-08-28T17:50:41Z</time>
  <course>0.0</course>
  <speed>0.0</speed>
  <fix>3d</fix>
</trkpt>
<trkpt lat="40.0713749" lon="-105.229789">
  <ele>1582.92</ele>
  <time>2026-08-28T17:50:41Z</time>
  <course>247.59</course>
  <speed>0.0</speed>
  <fix>3d</fix>
</trkpt>
<trkpt lat="40.0713749" lon="-105.229789">
  <ele>1583.0</ele>
  <time>2026-08-28T17:50:41Z</time>
  <course>0.0</course>
  <speed>0.0</speed>
  <fix>3d</fix>
</trkpt>
<trkpt lat="40.0713749" lon="-105.229789">
  <ele>1582.91</ele>
  <time>2026-08-28T17:50:41Z</time>
  <course>247.58</course>
  <speed>0.0</speed>
  <fix>3d</fix>
</trkpt>
<trkpt lat="40.0713749" lon="-105.229789">
  <ele>1583.0</ele>
  <time>2026-08-28T17:50:41Z</time>
  <course>0.0</course>
  <speed>0.0</speed>
  <fix>3d</fix>
</trkpt>
<trkpt lat="40.0713749" lon="-105.229789">
  <ele>1582.91</ele>
  <time>2026-08-28T17:50:41Z</time>
  <course>247.58</course>
  <speed>0.0</speed>
  <fix>3d</fix>
</trkpt>
<trkpt lat="40.0713749" lon="-105.229789">
  <ele>1583.0</ele>
  <time>2026-08-28T17:50:41Z</time>
  <course>0.0</course>
  <speed>0.0</speed>
  <fix>3d</fix>
</trkpt>
<trkpt lat="40.0713749" lon="-105.229789">
  <ele>1582.9</ele>
  <time>2026-08-28T17:50:41Z</time>
  <course>247.58</course>
  <speed>0.0</speed>
  <fix>3d</fix>
</trkpt>
<trkpt lat="40.0713749" lon="-105.229789">
  <ele>1583.0</ele>
  <time>2026-08-28T17:50:41Z</time>
  <course>0.0</course>
  <speed>0.0</speed>
  <fix>3d</fix>
</trkpt>
<trkpt lat="40.0713749" lon="-105.229789">
  <ele>1582.9</ele>
  <time>2026-08-28T17:50:41Z</time>
  <course>247.58</course>
  <speed>0.0</speed>
  <fix>3d</fix>
</trkpt>
<trkpt lat="40.0713749" lon="-105.229789">
  <ele>1583.0</ele>
  <time>2026-08-28T17:50:41Z</time>
  <course>0.0</course>
  <speed>0.0</speed>
  <fix>3d</fix>
</trkpt>
<trkpt lat="40.0713749" lon="-105.229789">
  <ele>1582.9</ele>
  <time>2026-08-28T17:50:41Z</time>
  <course>247.57</course>
  <speed>0.0</speed>
  <fix>3d</fix>
</trkpt>
<trkpt lat="40.0713749" lon="-105.229789">
  <ele>1583.0</ele>
  <time>2026-08-28T17:50:41Z</time>
  <course>0.0</course>
  <speed>0.0</speed>
  <fix>3d</fix>
</trkpt>
<trkpt lat="40.0713749" lon="-105.229789">
  <ele>1582.9</ele>
  <time>2026-08-28T17:50:41Z</time>
  <course>247.57</course>
  <speed>0.0</speed>
  <fix>3d</fix>
</trkpt>
<trkpt lat="40.0713749" lon="-105.229789">
  <ele>1583.0</ele>
  <time>2026-08-28T17:50:41Z</time>
  <course>0.0</course>
  <speed>0.0</speed>
  <fix>3d</fix>
</trkpt>
<trkpt lat="40.0713749" lon="-105.229789">
  <ele>1582.9</ele>
  <time>2026-08-28T17:50:41Z</time>
  <course>247.57</course>
  <speed>0.0</speed>
  <fix>3d</fix>
</trkpt>
<trkpt lat="40.0713749" lon="-105.229789">
  <ele>1583.0</ele>
  <time>2026-08-28T17:50:41Z</time>
  <course>0.0</course>
  <speed>0.0</speed>
  <fix>3d</fix>
</trkpt>
<trkpt lat="40.0713749" lon="-105.229789">
  <ele>1582.9</ele>
  <time>2026-08-28T17:50:41Z</time>
  <course>247.57</course>
  <speed>0.01</speed>
  <fix>3d</fix>
</trkpt>
<trkpt lat="40.0713749" lon="-105.229789">
  <ele>1583.0</ele>
  <time>2026-08-28T17:50:41Z</time>
  <course>0.0</course>
  <speed>0.0</speed>
  <fix>3d</fix>
</trkpt>
<trkpt lat="40.0713749" lon="-105.229789">
  <ele>1582.9</ele>
  <time>2026-08-28T17:50:41Z</time>
  <course>247.56</course>
  <speed>0.01</speed>
  <fix>3d</fix>
</trkpt>
<trkpt lat="40.0713749" lon="-105.229789">
  <ele>1583.0</ele>
  <time>2026-08-28T17:50:41Z</time>
  <course>0.0</course>
  <speed>0.0</speed>
  <fix>3d</fix>
</trkpt>
<trkpt lat="40.0713749" lon="-105.229789">
  <ele>1582.91</ele>
  <time>2026-08-28T17:50:41Z</time>
  <course>247.56</course>
  <speed>0.01</speed>
  <fix>3d</fix>
</trkpt>
<trkpt lat="40.0713749" lon="-105.229789">
  <ele>1583.0</ele>
  <time>2026-08-28T17:50:41Z</time>
  <course>0.0</course>
  <speed>0.0</speed>
  <fix>3d</fix>
</trkpt>
<trkpt lat="40.0713749" lon="-105.229789">
  <ele>1582.91</ele>
  <time>2026-08-28T17:50:41Z</time>
  <course>247.56</course>
  <speed>0.01</speed>
  <fix>3d</fix>
</trkpt>
<trkpt lat="40.0713749" lon="-105.229789">
  <ele>1583.0</ele>
  <time>2026-08-28T17:50:41Z</time>
  <course>0.0</course>
  <speed>0.0</speed>
  <fix>3d</fix>
</trkpt>
<trkpt lat="40.0713749" lon="-105.229789">
  <ele>1582.92</ele>
  <time>2026-08-28T17:50:41Z</time>
  <course>247.56</course>
  <speed>0.01</speed>
  <fix>3d</fix>
</trkpt>
<trkpt lat="40.0713749" lon="-105.229789">
  <ele>1583.0</ele>
  <time>2026-08-28T17:50:41Z</time>
  <course>0.0</course>
  <speed>0.0</speed>
  <fix>3d</fix>
</trkpt>
<trkpt lat="40.0713749" lon="-105.229789">
  <ele>1582.92</ele>
  <time>2026-08-28T17:50:41Z</time>
  <course>247.55</course>
  <speed>0.01</speed>
  <fix>3d</fix>
</trkpt>
<trkpt lat="40.0713749" lon="-105.229789">
  <ele>1583.0</ele>
  <time>2026-08-28T17:50:41Z</time>
  <course>0.0</course>
  <speed>0.0</speed>
  <fix>3d</fix>
</trkpt>
<trkpt lat="40.0713749" lon="-105.229789">
  <ele>1582.92</ele>
  <time>2026-08-28T17:50:41Z</time>
  <course>247.55</course>
  <speed>0.01</speed>
  <fix>3d</fix>
</trkpt>
<trkpt lat="40.0713749" lon="-105.229789">
  <ele>1583.0</ele>
  <time>2026-08-28T17:50:41Z</time>
  <course>0.0</course>
  <speed>0.0</speed>
  <fix>3d</fix>
</trkpt>
<trkpt lat="40.0713749" lon="-105.229789">
  <ele>1582.93</ele>
  <time>2026-08-28T17:50:41Z</time>
  <course>247.55</course>
  <speed>0.01</speed>
  <fix>3d</fix>
</trkpt>
<trkpt lat="40.0713749" lon="-105.229789">
  <ele>1583.0</ele>
  <time>2026-08-28T17:50:41Z</time>
  <course>0.0</course>
  <speed>0.0</speed>
  <fix>3d</fix>
</trkpt>
<trkpt lat="40.0713749" lon="-105.229789">
  <ele>1582.93</ele>
  <time>2026-08-28T17:50:41Z</time>
  <course>247.55</course>
  <speed>0.01</speed>
  <fix>3d</fix>
</trkpt>
<trkpt lat="40.0713749" lon="-105.229789">
  <ele>1583.0</ele>
  <time>2026-08-28T17:50:41Z</time>
  <course>0.0</course>
  <speed>0.0</speed>
  <fix>3d</fix>
</trkpt>
<trkpt lat="40.0713749" lon="-105.229789">
  <ele>1582.93</ele>
  <time>2026-08-28T17:50:41Z</time>
  <course>247.54</course>
  <speed>0.02</speed>
  <fix>3d</fix>
</trkpt>
<trkpt lat="40.0713749" lon="-105.229789">
  <ele>1583.0</ele>
  <time>2026-08-28T17:50:41Z</time>
  <course>0.0</course>
  <speed>0.0</speed>
  <fix>3d</fix>
</trkpt>
<trkpt lat="40.0713749" lon="-105.229789">
  <ele>1582.93</ele>
  <time>2026-08-28T17:50:41Z</time>
  <course>247.54</course>
  <speed>0.02</speed>
  <fix>3d</fix>
</trkpt>
<trkpt lat="40.0713749" lon="-105.229789">
  <ele>1583.0</ele>
  <time>2026-08-28T17:50:41Z</time>
  <course>0.0</course>
  <speed>0.0</speed>
  <fix>3d</fix>
</trkpt>
<trkpt lat="40.0713749" lon="-105.229789">
  <ele>1582.93</ele>
  <time>2026-08-28T17:50:41Z</time>
  <course>247.54</course>
  <speed>0.02</speed>
  <fix>3d</fix>
</trkpt>
<trkpt lat="40.0713749" lon="-105.229789">
  <ele>1583.0</ele>
  <time>2026-08-28T17:50:41Z</time>
  <course>0.0</course>
  <speed>0.0</speed>
  <fix>3d</fix>
</trkpt>
<trkpt lat="40.0713749" lon="-105.229789">
  <ele>1582.93</ele>
  <time>2026-08-28T17:50:41Z</time>
  <course>247.54</course>
  <speed>0.022360679774997897</speed>
  <fix>3d</fix>
</trkpt>
<trkpt lat="40.0713749" lon="-105.229789">
  <ele>1583.0</ele>
  <time>2026-08-28T17:50:41Z</time>
  <course>0.0</course>
  <speed>0.0</speed>
  <fix>3d</fix>
</trkpt>
<trkpt lat="40.0713749" lon="-105.229789">
  <ele>1582.94</ele>
  <time>2026-08-28T17:50:41Z</time>
  <course>247.53</course>
  <speed>0.022360679774997897</speed>
  <fix>3d</fix>
</trkpt>
<trkpt lat="40.0713749" lon="-105.229789">
  <ele>1583.0</ele>
  <time>2026-08-28T17:50:41Z</time>
  <course>0.0</course>
  <speed>0.0</speed>
  <fix>3d</fix>
</trkpt>
<trkpt lat="40.0713749" lon="-105.229789">
  <ele>1582.94</ele>
  <time>2026-08-28T17:50:41Z</time>
  <course>247.53</course>
  <speed>0.022360679774997897</speed>
  <fix>3d</fix>
</trkpt>
<trkpt lat="40.0713749" lon="-105.229789">
  <ele>1583.0</ele>
  <time>2026-08-28T17:50:41Z</time>
  <course>0.0</course>
  <speed>0.0</speed>
  <fix>3d</fix>
</trkpt>
<trkpt lat="40.071375" lon="-105.229789">
  <ele>1582.94</ele>
  <time>2026-08-28T17:50:41Z</time>
  <course>247.53</course>
  <speed>0.022360679774997897</speed>
  <fix>3d</fix>
</trkpt>
<trkpt lat="40.0713749" lon="-105.229789">
  <ele>1583.0</ele>
  <time>2026-08-28T17:50:41Z</time>
  <course>0.0</course>
  <speed>0.0</speed>
  <fix>3d</fix>
</trkpt>
<trkpt lat="40.071375" lon="-105.229789">
  <ele>1582.95</ele>
  <time>2026-08-28T17:50:41Z</time>
  <course>247.53</course>
  <speed>0.022360679774997897</speed>
  <fix>3d</fix>
</trkpt>
<trkpt lat="40.0713749" lon="-105.229789">
  <ele>1583.0</ele>
  <time>2026-08-28T17:50:41Z</time>
  <course>0.0</course>
  <speed>0.0</speed>
  <fix>3d</fix>
</trkpt>
<trkpt lat="40.071375" lon="-105.229789">
  <ele>1582.95</ele>
  <time>2026-08-28T17:50:41Z</time>
  <course>247.53</course>
  <speed>0.022360679774997897</speed>
  <fix>3d</fix>
</trkpt>
<trkpt lat="40.0713749" lon="-105.229789">
  <ele>1583.0</ele>
  <time>2026-08-28T17:50:41Z</time>
  <course>0.0</course>
  <speed>0.0</speed>
  <fix>3d</fix>
</trkpt>
<trkpt lat="40.071375" lon="-105.229789">
  <ele>1582.95</ele>
  <time>2026-08-28T17:50:41Z</time>
  <course>247.52</course>
  <speed>0.022360679774997897</speed>
  <fix>3d</fix>
</trkpt>
<trkpt lat="40.0713749" lon="-105.229789">
  <ele>1583.0</ele>
  <time>2026-08-28T17:50:41Z</time>
  <course>0.0</course>
  <speed>0.0</speed>
  <fix>3d</fix>
</trkpt>
<trkpt lat="40.071375" lon="-105.229789">
  <ele>1582.95</ele>
  <time>2026-08-28T17:50:41Z</time>
  <course>247.52</course>
  <speed>0.022360679774997897</speed>
  <fix>3d</fix>
</trkpt>
<trkpt lat="40.0713749" lon="-105.229789">
  <ele>1583.0</ele>
  <time>2026-08-28T17:50:41Z</time>
  <course>0.0</course>
  <speed>0.0</speed>
  <fix>3d</fix>
</trkpt>
<trkpt lat="40.071375" lon="-105.229789">
  <ele>1582.95</ele>
  <time>2026-08-28T17:50:41Z</time>
  <course>247.52</course>
  <speed>0.022360679774997897</speed>
  <fix>3d</fix>
</trkpt>
<trkpt lat="40.0713749" lon="-105.229789">
  <ele>1583.0</ele>
  <time>2026-08-28T17:50:41Z</time>
  <course>0.0</course>
  <speed>0.0</speed>
  <fix>3d</fix>
</trkpt>
<trkpt lat="40.071375" lon="-105.229789">
  <ele>1582.95</ele>
  <time>2026-08-28T17:50:41Z</time>
  <course>247.52</course>
  <speed>0.022360679774997897</speed>
  <fix>3d</fix>
</trkpt>
<trkpt lat="40.0713749" lon="-105.229789">
  <ele>1583.0</ele>
  <time>2026-08-28T17:50:41Z</time>
  <course>0.0</course>
  <speed>0.0</speed>
  <fix>3d</fix>
</trkpt>
<trkpt lat="40.071375" lon="-105.229789">
  <ele>1582.95</ele>
  <time>2026-08-28T17:50:41Z</time>
  <course>247.51</course>
  <speed>0.0316227766016838</speed>
  <fix>3d</fix>
</trkpt>
<trkpt lat="40.0713749" lon="-105.229789">
  <ele>1583.0</ele>
  <time>2026-08-28T17:50:41Z</time>
  <course>0.0</course>
  <speed>0.0</speed>
  <fix>3d</fix>
</trkpt>
<trkpt lat="40.071375" lon="-105.229789">
  <ele>1582.95</ele>
  <time>2026-08-28T17:50:41Z</time>
  <course>247.51</course>
  <speed>0.0316227766016838</speed>
  <fix>3d</fix>
</trkpt>
<trkpt lat="40.0713749" lon="-105.229789">
  <ele>1583.0</ele>
  <time>2026-08-28T17:50:41Z</time>
  <course>0.0</course>
  <speed>0.0</speed>
  <fix>3d</fix>
</trkpt>
<trkpt lat="40.071375" lon="-105.229789">
  <ele>1582.95</ele>
  <time>2026-08-28T17:50:41Z</time>
  <course>247.51</course>
  <speed>0.0316227766016838</speed>
  <fix>3d</fix>
</trkpt>
<trkpt lat="40.0713749" lon="-105.229789">
  <ele>1583.0</ele>
  <time>2026-08-28T17:50:41Z</time>
  <course>0.0</course>
  <speed>0.0</speed>
  <fix>3d</fix>
</trkpt>
<trkpt lat="40.071375" lon="-105.2297889">
  <ele>1582.95</ele>
  <time>2026-08-28T17:50:41Z</time>
  <course>247.51</course>
  <speed>0.0316227766016838</speed>
  <fix>3d</fix>
</trkpt>
<trkpt lat="40.0713749" lon="-105.229789">
  <ele>1583.0</ele>
  <time>2026-08-28T17:50:41Z</time>
  <course>0.0</course>
  <speed>0.0</speed>
  <fix>3d</fix>
</trkpt>
<trkpt lat="40.071375" lon="-105.2297889">
  <ele>1582.95</ele>
  <time>2026-08-28T17:50:41Z</time>
  <course>247.51</course>
  <speed>0.0316227766016838</speed>
  <fix>3d</fix>
</trkpt>
<trkpt lat="40.0713749" lon="-105.229789">
  <ele>1583.0</ele>
  <time>2026-08-28T17:50:41Z</time>
  <course>0.0</course>
  <speed>0.0</speed>
  <fix>3d</fix>
</trkpt>
<trkpt lat="40.071375" lon="-105.2297889">
  <ele>1582.95</ele>
  <time>2026-08-28T17:50:41Z</time>
  <course>247.5</course>
  <speed>0.0316227766016838</speed>
  <fix>3d</fix>
</trkpt>
<trkpt lat="40.0713749" lon="-105.229789">
  <ele>1583.0</ele>
  <time>2026-08-28T17:50:41Z</time>
  <course>0.0</course>
  <speed>0.0</speed>
  <fix>3d</fix>
</trkpt>
<trkpt lat="40.071375" lon="-105.2297889">
  <ele>1582.95</ele>
  <time>2026-08-28T17:50:41Z</time>
  <course>247.5</course>
  <speed>0.0316227766016838</speed>
  <fix>3d</fix>
</trkpt>
<trkpt lat="40.0713749" lon="-105.229789">
  <ele>1583.0</ele>
  <time>2026-08-28T17:50:41Z</time>
  <course>0.0</course>
  <speed>0.0</speed>
  <fix>3d</fix>
</trkpt>
<trkpt lat="40.071375" lon="-105.2297889">
  <ele>1582.95</ele>
  <time>2026-08-28T17:50:41Z</time>
  <course>247.5</course>
  <speed>0.0316227766016838</speed>
  <fix>3d</fix>
</trkpt>
<trkpt lat="40.0713749" lon="-105.229789">
  <ele>1583.0</ele>
  <time>2026-08-28T17:50:41Z</time>
  <course>0.0</course>
  <speed>0.0</speed>
  <fix>3d</fix>
</trkpt>
<trkpt lat="40.0713751" lon="-105.2297889">
  <ele>1582.95</ele>
  <time>2026-08-28T17:50:41Z</time>
  <course>247.5</course>
  <speed>0.0316227766016838</speed>
  <fix>3d</fix>
</trkpt>
<trkpt lat="40.0713749" lon="-105.229789">
  <ele>1583.0</ele>
  <time>2026-08-28T17:50:41Z</time>
  <course>0.0</course>
  <speed>0.0</speed>
  <fix>3d</fix>
</trkpt>
<trkpt lat="40.0713751" lon="-105.2297889">
  <ele>1582.96</ele>
  <time>2026-08-28T17:50:41Z</time>
  <course>247.49</course>
  <speed>0.0316227766016838</speed>
  <fix>3d</fix>
</trkpt>
<trkpt lat="40.0713749" lon="-105.229789">
  <ele>1583.0</ele>
  <time>2026-08-28T17:50:41Z</time>
  <course>0.0</course>
  <speed>0.0</speed>
  <fix>3d</fix>
</trkpt>
<trkpt lat="40.0713751" lon="-105.2297889">
  <ele>1582.96</ele>
  <time>2026-08-28T17:50:41Z</time>
  <course>247.49</course>
  <speed>0.0316227766016838</speed>
  <fix>3d</fix>
</trkpt>
<trkpt lat="40.0713749" lon="-105.229789">
  <ele>1583.0</ele>
  <time>2026-08-28T17:50:41Z</time>
  <course>0.0</course>
  <speed>0.0</speed>
  <fix>3d</fix>
</trkpt>
<trkpt lat="40.0713751" lon="-105.2297889">
  <ele>1582.97</ele>
  <time>2026-08-28T17:50:41Z</time>
  <course>247.49</course>
  <speed>0.0316227766016838</speed>
  <fix>3d</fix>
</trkpt>
<trkpt lat="40.0713749" lon="-105.229789">
  <ele>1583.0</ele>
  <time>2026-08-28T17:50:41Z</time>
  <course>0.0</course>
  <speed>0.0</speed>
  <fix>3d</fix>
</trkpt>
<trkpt lat="40.0713751" lon="-105.2297889">
  <ele>1582.98</ele>
  <time>2026-08-28T17:50:41Z</time>
  <course>247.49</course>
  <speed>0.0316227766016838</speed>
  <fix>3d</fix>
</trkpt>
<trkpt lat="40.0713749" lon="-105.229789">
  <ele>1583.0</ele>
  <time>2026-08-28T17:50:41Z</time>
  <course>0.0</course>
  <speed>0.0</speed>
  <fix>3d</fix>
</trkpt>
<trkpt lat="40.0713751" lon="-105.2297889">
  <ele>1582.98</ele>
  <time>2026-08-28T17:50:41Z</time>
  <course>247.49</course>
  <speed>0.0316227766016838</speed>
  <fix>3d</fix>
</trkpt>
<trkpt lat="40.0713749" lon="-105.229789">
  <ele>1583.0</ele>
  <time>2026-08-28T17:50:41Z</time>
  <course>0.0</course>
  <speed>0.0</speed>
  <fix>3d</fix>
</trkpt>
<trkpt lat="40.0713751" lon="-105.2297889">
  <ele>1582.99</ele>
  <time>2026-08-28T17:50:41Z</time>
  <course>247.48</course>
  <speed>0.0316227766016838</speed>
  <fix>3d</fix>
</trkpt>
<trkpt lat="40.0713749" lon="-105.229789">
  <ele>1583.0</ele>
  <time>2026-08-28T17:50:41Z</time>
  <course>0.0</course>
  <speed>0.0</speed>
  <fix>3d</fix>
</trkpt>
<trkpt lat="40.0713751" lon="-105.2297889">
  <ele>1583.0</ele>
  <time>2026-08-28T17:50:41Z</time>
  <course>247.48</course>
  <speed>0.022360679774997897</speed>
  <fix>3d</fix>
</trkpt>
<trkpt lat="40.0713749" lon="-105.229789">
  <ele>1583.0</ele>
  <time>2026-08-28T17:50:41Z</time>
  <course>0.0</course>
  <speed>0.0</speed>
  <fix>3d</fix>
</trkpt>
<trkpt lat="40.0713751" lon="-105.2297889">
  <ele>1583.01</ele>
  <time>2026-08-28T17:50:41Z</time>
  <course>247.48</course>
  <speed>0.022360679774997897</speed>
  <fix>3d</fix>
</trkpt>
<trkpt lat="40.0713749" lon="-105.229789">
  <ele>1583.0</ele>
  <time>2026-08-28T17:50:41Z</time>
  <course>0.0</course>
  <speed>0.0</speed>
  <fix>3d</fix>
</trkpt>
<trkpt lat="40.0713751" lon="-105.2297889">
  <ele>1583.01</ele>
  <time>2026-08-28T17:50:41Z</time>
  <course>247.48</course>
  <speed>0.022360679774997897</speed>
  <fix>3d</fix>
</trkpt>
<trkpt lat="40.0713749" lon="-105.229789">
  <ele>1583.0</ele>
  <time>2026-08-28T17:50:41Z</time>
  <course>0.0</course>
  <speed>0.0</speed>
  <fix>3d</fix>
</trkpt>
<trkpt lat="40.0713751" lon="-105.2297889">
  <ele>1583.01</ele>
  <time>2026-08-28T17:50:41Z</time>
  <course>247.47</course>
  <speed>0.022360679774997897</speed>
  <fix>3d</fix>
</trkpt>
<trkpt lat="40.0713749" lon="-105.229789">
  <ele>1583.0</ele>
  <time>2026-08-28T17:50:41Z</time>
  <course>0.0</course>
  <speed>0.0</speed>
  <fix>3d</fix>
</trkpt>
<trkpt lat="40.0713751" lon="-105.2297889">
  <ele>1583.01</ele>
  <time>2026-08-28T17:50:41Z</time>
  <course>247.47</course>
  <speed>0.022360679774997897</speed>
  <fix>3d</fix>
</trkpt>
<trkpt lat="40.0713749" lon="-105.229789">
  <ele>1583.0</ele>
  <time>2026-08-28T17:50:41Z</time>
  <course>0.0</course>
  <speed>0.0</speed>
  <fix>3d</fix>
</trkpt>
<trkpt lat="40.0713751" lon="-105.2297889">
  <ele>1583.01</ele>
  <time>2026-08-28T17:50:41Z</time>
  <course>247.47</course>
  <speed>0.022360679774997897</speed>
  <fix>3d</fix>
</trkpt>
<trkpt lat="40.0713749" lon="-105.229789">
  <ele>1583.0</ele>
  <time>2026-08-28T17:50:41Z</time>
  <course>0.0</course>
  <speed>0.0</speed>
  <fix>3d</fix>
</trkpt>
<trkpt lat="40.071375" lon="-105.2297889">
  <ele>1583.0</ele>
  <time>2026-08-28T17:50:41Z</time>
  <course>247.47</course>
  <speed>0.022360679774997897</speed>
  <fix>3d</fix>
</trkpt>
<trkpt lat="40.0713749" lon="-105.229789">
  <ele>1583.0</ele>
  <time>2026-08-28T17:50:41Z</time>
  <course>0.0</course>
  <speed>0.0</speed>
  <fix>3d</fix>
</trkpt>
<trkpt lat="40.0713751" lon="-105.2297889">
  <ele>1583.0</ele>
  <time>2026-08-28T17:50:41Z</time>
  <course>247.47</course>
  <speed>0.022360679774997897</speed>
  <fix>3d</fix>
</trkpt>
<trkpt lat="40.0713749" lon="-105.229789">
  <ele>1583.0</ele>
  <time>2026-08-28T17:50:41Z</time>
  <course>0.0</course>
  <speed>0.0</speed>
  <fix>3d</fix>
</trkpt>
<trkpt lat="40.071375" lon="-105.2297889">
  <ele>1583.0</ele>
  <time>2026-08-28T17:50:41Z</time>
  <course>247.46</course>
  <speed>0.022360679774997897</speed>
  <fix>3d</fix>
</trkpt>
<trkpt lat="40.0713749" lon="-105.229789">
  <ele>1583.0</ele>
  <time>2026-08-28T17:50:41Z</time>
  <course>0.0</course>
  <speed>0.0</speed>
  <fix>3d</fix>
</trkpt>
<trkpt lat="40.071375" lon="-105.2297889">
  <ele>1582.99</ele>
  <time>2026-08-28T17:50:41Z</time>
  <course>247.46</course>
  <speed>0.022360679774997897</speed>
  <fix>3d</fix>
</trkpt>
<trkpt lat="40.0713749" lon="-105.229789">
  <ele>1583.0</ele>
  <time>2026-08-28T17:50:41Z</time>
  <course>0.0</course>
  <speed>0.0</speed>
  <fix>3d</fix>
</trkpt>
<trkpt lat="40.071375" lon="-105.2297889">
  <ele>1582.99</ele>
  <time>2026-08-28T17:50:41Z</time>
  <course>247.46</course>
  <speed>0.022360679774997897</speed>
  <fix>3d</fix>
</trkpt>
<trkpt lat="40.0713749" lon="-105.229789">
  <ele>1583.0</ele>
  <time>2026-08-28T17:50:41Z</time>
  <course>0.0</course>
  <speed>0.0</speed>
  <fix>3d</fix>
</trkpt>
<trkpt lat="40.071375" lon="-105.2297889">
  <ele>1582.99</ele>
  <time>2026-08-28T17:50:41Z</time>
  <course>247.46</course>
  <speed>0.022360679774997897</speed>
  <fix>3d</fix>
</trkpt>
<trkpt lat="40.0713749" lon="-105.229789">
  <ele>1583.0</ele>
  <time>2026-08-28T17:50:41Z</time>
  <course>0.0</course>
  <speed>0.0</speed>
  <fix>3d</fix>
</trkpt>
<trkpt lat="40.071375" lon="-105.2297889">
  <ele>1582.99</ele>
  <time>2026-08-28T17:50:41Z</time>
  <course>247.45</course>
  <speed>0.022360679774997897</speed>
  <fix>3d</fix>
</trkpt>
<trkpt lat="40.0713749" lon="-105.229789">
  <ele>1583.0</ele>
  <time>2026-08-28T17:50:41Z</time>
  <course>0.0</course>
  <speed>0.0</speed>
  <fix>3d</fix>
</trkpt>
<trkpt lat="40.071375" lon="-105.2297889">
  <ele>1582.99</ele>
  <time>2026-08-28T17:50:41Z</time>
  <course>247.45</course>
  <speed>0.022360679774997897</speed>
  <fix>3d</fix>
</trkpt>
<trkpt lat="40.0713749" lon="-105.229789">
  <ele>1583.0</ele>
  <time>2026-08-28T17:50:41Z</time>
  <course>0.0</course>
  <speed>0.0</speed>
  <fix>3d</fix>
</trkpt>
<trkpt lat="40.071375" lon="-105.2297889">
  <ele>1582.99</ele>
  <time>2026-08-28T17:50:41Z</time>
  <course>247.45</course>
  <speed>0.022360679774997897</speed>
  <fix>3d</fix>
</trkpt>
<trkpt lat="40.0713749" lon="-105.229789">
  <ele>1583.0</ele>
  <time>2026-08-28T17:50:41Z</time>
  <course>0.0</course>
  <speed>0.0</speed>
  <fix>3d</fix>
</trkpt>
<trkpt lat="40.071375" lon="-105.2297889">
  <ele>1582.99</ele>
  <time>2026-08-28T17:50:41Z</time>
  <course>247.45</course>
  <speed>0.022360679774997897</speed>
  <fix>3d</fix>
</trkpt>
<trkpt lat="40.0713749" lon="-105.229789">
  <ele>1583.0</ele>
  <time>2026-08-28T17:50:41Z</time>
  <course>0.0</course>
  <speed>0.0</speed>
  <fix>3d</fix>
</trkpt>
<trkpt lat="40.071375" lon="-105.2297889">
  <ele>1583.0</ele>
  <time>2026-08-28T17:50:41Z</time>
  <course>247.45</course>
  <speed>0.022360679774997897</speed>
  <fix>3d</fix>
</trkpt>
<trkpt lat="40.0713749" lon="-105.229789">
  <ele>1583.0</ele>
  <time>2026-08-28T17:50:41Z</time>
  <course>0.0</course>
  <speed>0.0</speed>
  <fix>3d</fix>
</trkpt>
<trkpt lat="40.071375" lon="-105.2297889">
  <ele>1583.0</ele>
  <time>2026-08-28T17:50:41Z</time>
  <course>247.44</course>
  <speed>0.022360679774997897</speed>
  <fix>3d</fix>
</trkpt>
<trkpt lat="40.0713749" lon="-105.229789">
  <ele>1583.0</ele>
  <time>2026-08-28T17:50:41Z</time>
  <course>0.0</course>
  <speed>0.0</speed>
  <fix>3d</fix>
</trkpt>
<trkpt lat="40.071375" lon="-105.229789">
  <ele>1583.0</ele>
  <time>2026-08-28T17:50:41Z</time>
  <course>247.44</course>
  <speed>0.02</speed>
  <fix>3d</fix>
</trkpt>
<trkpt lat="40.0713749" lon="-105.229789">
  <ele>1583.0</ele>
  <time>2026-08-28T17:50:41Z</time>
  <course>0.0</course>
  <speed>0.0</speed>
  <fix>3d</fix>
</trkpt>
<trkpt lat="40.071375" lon="-105.229789">
  <ele>1583.0</ele>
  <time>2026-08-28T17:50:41Z</time>
  <course>247.44</course>
  <speed>0.02</speed>
  <fix>3d</fix>
</trkpt>
<trkpt lat="40.0713749" lon="-105.229789">
  <ele>1583.0</ele>
  <time>2026-08-28T17:50:41Z</time>
  <course>0.0</course>
  <speed>0.0</speed>
  <fix>3d</fix>
</trkpt>
<trkpt lat="40.071375" lon="-105.229789">
  <ele>1583.0</ele>
  <time>2026-08-28T17:50:41Z</time>
  <course>247.44</course>
  <speed>0.02</speed>
  <fix>3d</fix>
</trkpt>
<trkpt lat="40.0713749" lon="-105.229789">
  <ele>1583.0</ele>
  <time>2026-08-28T17:50:41Z</time>
  <course>0.0</course>
  <speed>0.0</speed>
  <fix>3d</fix>
</trkpt>
<trkpt lat="40.071375" lon="-105.229789">
  <ele>1583.01</ele>
  <time>2026-08-28T17:50:41Z</time>
  <course>247.43</course>
  <speed>0.02</speed>
  <fix>3d</fix>
</trkpt>
<trkpt lat="40.0713749" lon="-105.229789">
  <ele>1583.0</ele>
  <time>2026-08-28T17:50:41Z</time>
  <course>0.0</course>
  <speed>0.0</speed>
  <fix>3d</fix>
</trkpt>
<trkpt lat="40.071375" lon="-105.229789">
  <ele>1583.01</ele>
  <time>2026-08-28T17:50:41Z</time>
  <course>247.43</course>
  <speed>0.02</speed>
  <fix>3d</fix>
</trkpt>
<trkpt lat="40.0713749" lon="-105.229789">
  <ele>1583.0</ele>
  <time>2026-08-28T17:50:41Z</time>
  <course>0.0</course>
  <speed>0.0</speed>
  <fix>3d</fix>
</trkpt>
<trkpt lat="40.071375" lon="-105.229789">
  <ele>1583.01</ele>
  <time>2026-08-28T17:50:41Z</time>
  <course>247.43</course>
  <speed>0.02</speed>
  <fix>3d</fix>
</trkpt>
<trkpt lat="40.0713749" lon="-105.229789">
  <ele>1583.0</ele>
  <time>2026-08-28T17:50:41Z</time>
  <course>0.0</course>
  <speed>0.0</speed>
  <fix>3d</fix>
</trkpt>
<trkpt lat="40.071375" lon="-105.229789">
  <ele>1583.01</ele>
  <time>2026-08-28T17:50:41Z</time>
  <course>247.43</course>
  <speed>0.02</speed>
  <fix>3d</fix>
</trkpt>
<trkpt lat="40.0713749" lon="-105.229789">
  <ele>1583.0</ele>
  <time>2026-08-28T17:50:41Z</time>
  <course>0.0</course>
  <speed>0.0</speed>
  <fix>3d</fix>
</trkpt>
<trkpt lat="40.071375" lon="-105.229789">
  <ele>1583.01</ele>
  <time>2026-08-28T17:50:41Z</time>
  <course>247.43</course>
  <speed>0.02</speed>
  <fix>3d</fix>
</trkpt>
<trkpt lat="40.0713749" lon="-105.229789">
  <ele>1583.0</ele>
  <time>2026-08-28T17:50:41Z</time>
  <course>0.0</course>
  <speed>0.0</speed>
  <fix>3d</fix>
</trkpt>
<trkpt lat="40.071375" lon="-105.229789">
  <ele>1583.01</ele>
  <time>2026-08-28T17:50:41Z</time>
  <course>247.42</course>
  <speed>0.02</speed>
  <fix>3d</fix>
</trkpt>
<trkpt lat="40.0713749" lon="-105.229789">
  <ele>1583.0</ele>
  <time>2026-08-28T17:50:41Z</time>
  <course>0.0</course>
  <speed>0.0</speed>
  <fix>3d</fix>
</trkpt>
<trkpt lat="40.071375" lon="-105.229789">
  <ele>1583.01</ele>
  <time>2026-08-28T17:50:41Z</time>
  <course>247.42</course>
  <speed>0.02</speed>
  <fix>3d</fix>
</trkpt>
<trkpt lat="40.0713749" lon="-105.229789">
  <ele>1583.0</ele>
  <time>2026-08-28T17:50:41Z</time>
  <course>0.0</course>
  <speed>0.0</speed>
  <fix>3d</fix>
</trkpt>
<trkpt lat="40.071375" lon="-105.229789">
  <ele>1583.02</ele>
  <time>2026-08-28T17:50:41Z</time>
  <course>247.42</course>
  <speed>0.02</speed>
  <fix>3d</fix>
</trkpt>
<trkpt lat="40.0713749" lon="-105.229789">
  <ele>1583.0</ele>
  <time>2026-08-28T17:50:41Z</time>
  <course>0.0</course>
  <speed>0.0</speed>
  <fix>3d</fix>
</trkpt>
<trkpt lat="40.071375" lon="-105.229789">
  <ele>1583.01</ele>
  <time>2026-08-28T17:50:41Z</time>
  <course>247.42</course>
  <speed>0.02</speed>
  <fix>3d</fix>
</trkpt>
<trkpt lat="40.0713749" lon="-105.229789">
  <ele>1583.0</ele>
  <time>2026-08-28T17:50:41Z</time>
  <course>0.0</course>
  <speed>0.0</speed>
  <fix>3d</fix>
</trkpt>
<trkpt lat="40.071375" lon="-105.229789">
  <ele>1583.01</ele>
  <time>2026-08-28T17:50:41Z</time>
  <course>247.42</course>
  <speed>0.02</speed>
  <fix>3d</fix>
</trkpt>
<trkpt lat="40.0713749" lon="-105.229789">
  <ele>1583.0</ele>
  <time>2026-08-28T17:50:41Z</time>
  <course>0.0</course>
  <speed>0.0</speed>
  <fix>3d</fix>
</trkpt>
<trkpt lat="40.071375" lon="-105.229789">
  <ele>1583.01</ele>
  <time>2026-08-28T17:50:41Z</time>
  <course>247.41</course>
  <speed>0.02</speed>
  <fix>3d</fix>
</trkpt>
<trkpt lat="40.0713749" lon="-105.229789">
  <ele>1583.0</ele>
  <time>2026-08-28T17:50:41Z</time>
  <course>0.0</course>
  <speed>0.0</speed>
  <fix>3d</fix>
</trkpt>
<trkpt lat="40.071375" lon="-105.229789">
  <ele>1583.01</ele>
  <time>2026-08-28T17:50:41Z</time>
  <course>247.41</course>
  <speed>0.02</speed>
  <fix>3d</fix>
</trkpt>
<trkpt lat="40.0713749" lon="-105.229789">
  <ele>1583.0</ele>
  <time>2026-08-28T17:50:41Z</time>
  <course>0.0</course>
  <speed>0.0</speed>
  <fix>3d</fix>
</trkpt>
<trkpt lat="40.071375" lon="-105.229789">
  <ele>1583.01</ele>
  <time>2026-08-28T17:50:41Z</time>
  <course>247.41</course>
  <speed>0.02</speed>
  <fix>3d</fix>
</trkpt>
<trkpt lat="40.0713749" lon="-105.229789">
  <ele>1583.0</ele>
  <time>2026-08-28T17:50:41Z</time>
  <course>0.0</course>
  <speed>0.0</speed>
  <fix>3d</fix>
</trkpt>
<trkpt lat="40.071375" lon="-105.229789">
  <ele>1583.01</ele>
  <time>2026-08-28T17:50:41Z</time>
  <course>247.41</course>
  <speed>0.02</speed>
  <fix>3d</fix>
</trkpt>
<trkpt lat="40.0713749" lon="-105.229789">
  <ele>1583.0</ele>
  <time>2026-08-28T17:50:41Z</time>
  <course>0.0</course>
  <speed>0.0</speed>
  <fix>3d</fix>
</trkpt>
<trkpt lat="40.071375" lon="-105.229789">
  <ele>1583.02</ele>
  <time>2026-08-28T17:50:41Z</time>
  <course>247.41</course>
  <speed>0.02</speed>
  <fix>3d</fix>
</trkpt>
<trkpt lat="40.0713749" lon="-105.229789">
  <ele>1583.0</ele>
  <time>2026-08-28T17:50:41Z</time>
  <course>0.0</course>
  <speed>0.0</speed>
  <fix>3d</fix>
</trkpt>
<trkpt lat="40.071375" lon="-105.229789">
  <ele>1583.02</ele>
  <time>2026-08-28T17:50:41Z</time>
  <course>247.4</course>
  <speed>0.02</speed>
  <fix>3d</fix>
</trkpt>
<trkpt lat="40.0713749" lon="-105.229789">
  <ele>1583.0</ele>
  <time>2026-08-28T17:50:41Z</time>
  <course>0.0</course>
  <speed>0.0</speed>
  <fix>3d</fix>
</trkpt>
<trkpt lat="40.071375" lon="-105.229789">
  <ele>1583.02</ele>
  <time>2026-08-28T17:50:41Z</time>
  <course>247.4</course>
  <speed>0.02</speed>
  <fix>3d</fix>
</trkpt>
<trkpt lat="40.0713749" lon="-105.229789">
  <ele>1583.0</ele>
  <time>2026-08-28T17:50:41Z</time>
  <course>0.0</course>
  <speed>0.0</speed>
  <fix>3d</fix>
</trkpt>
<trkpt lat="40.071375" lon="-105.229789">
  <ele>1583.02</ele>
  <time>2026-08-28T17:50:41Z</time>
  <course>247.4</course>
  <speed>0.02</speed>
  <fix>3d</fix>
</trkpt>
<trkpt lat="40.0713749" lon="-105.229789">
  <ele>1583.0</ele>
  <time>2026-08-28T17:50:41Z</time>
  <course>0.0</course>
  <speed>0.0</speed>
  <fix>3d</fix>
</trkpt>
<trkpt lat="40.071375" lon="-105.229789">
  <ele>1583.02</ele>
  <time>2026-08-28T17:50:41Z</time>
  <course>247.4</course>
  <speed>0.02</speed>
  <fix>3d</fix>
</trkpt>
<trkpt lat="40.0713749" lon="-105.229789">
  <ele>1583.0</ele>
  <time>2026-08-28T17:50:41Z</time>
  <course>0.0</course>
  <speed>0.0</speed>
  <fix>3d</fix>
</trkpt>
<trkpt lat="40.071375" lon="-105.229789">
  <ele>1583.02</ele>
  <time>2026-08-28T17:50:41Z</time>
  <course>247.4</course>
  <speed>0.02</speed>
  <fix>3d</fix>
</trkpt>
<trkpt lat="40.0713749" lon="-105.229789">
  <ele>1583.0</ele>
  <time>2026-08-28T17:50:41Z</time>
  <course>0.0</course>
  <speed>0.0</speed>
  <fix>3d</fix>
</trkpt>
<trkpt lat="40.071375" lon="-105.229789">
  <ele>1583.02</ele>
  <time>2026-08-28T17:50:41Z</time>
  <course>247.39</course>
  <speed>0.02</speed>
  <fix>3d</fix>
</trkpt>
<trkpt lat="40.0713749" lon="-105.229789">
  <ele>1583.0</ele>
  <time>2026-08-28T17:50:41Z</time>
  <course>0.0</course>
  <speed>0.0</speed>
  <fix>3d</fix>
</trkpt>
<trkpt lat="40.071375" lon="-105.229789">
  <ele>1583.03</ele>
  <time>2026-08-28T17:50:41Z</time>
  <course>247.39</course>
  <speed>0.01</speed>
  <fix>3d</fix>
</trkpt>
<trkpt lat="40.0713749" lon="-105.229789">
  <ele>1583.0</ele>
  <time>2026-08-28T17:50:41Z</time>
  <course>0.0</course>
  <speed>0.0</speed>
  <fix>3d</fix>
</trkpt>
<trkpt lat="40.071375" lon="-105.229789">
  <ele>1583.03</ele>
  <time>2026-08-28T17:50:41Z</time>
  <course>247.39</course>
  <speed>0.02</speed>
  <fix>3d</fix>
</trkpt>
<trkpt lat="40.0713749" lon="-105.229789">
  <ele>1583.0</ele>
  <time>2026-08-28T17:50:41Z</time>
  <course>0.0</course>
  <speed>0.0</speed>
  <fix>3d</fix>
</trkpt>
<trkpt lat="40.071375" lon="-105.229789">
  <ele>1583.03</ele>
  <time>2026-08-28T17:50:41Z</time>
  <course>247.39</course>
  <speed>0.02</speed>
  <fix>3d</fix>
</trkpt>
<trkpt lat="40.0713749" lon="-105.229789">
  <ele>1583.0</ele>
  <time>2026-08-28T17:50:41Z</time>
  <course>0.0</course>
  <speed>0.0</speed>
  <fix>3d</fix>
</trkpt>
<trkpt lat="40.071375" lon="-105.229789">
  <ele>1583.03</ele>
  <time>2026-08-28T17:50:41Z</time>
  <course>247.39</course>
  <speed>0.02</speed>
  <fix>3d</fix>
</trkpt>
<trkpt lat="40.0713749" lon="-105.229789">
  <ele>1583.0</ele>
  <time>2026-08-28T17:50:41Z</time>
  <course>0.0</course>
  <speed>0.0</speed>
  <fix>3d</fix>
</trkpt>
<trkpt lat="40.071375" lon="-105.229789">
  <ele>1583.04</ele>
  <time>2026-08-28T17:50:41Z</time>
  <course>247.38</course>
  <speed>0.02</speed>
  <fix>3d</fix>
</trkpt>
<trkpt lat="40.0713749" lon="-105.229789">
  <ele>1583.0</ele>
  <time>2026-08-28T17:50:41Z</time>
  <course>0.0</course>
  <speed>0.0</speed>
  <fix>3d</fix>
</trkpt>
<trkpt lat="40.071375" lon="-105.229789">
  <ele>1583.04</ele>
  <time>2026-08-28T17:50:41Z</time>
  <course>247.38</course>
  <speed>0.02</speed>
  <fix>3d</fix>
</trkpt>
<trkpt lat="40.0713749" lon="-105.229789">
  <ele>1583.0</ele>
  <time>2026-08-28T17:50:41Z</time>
  <course>0.0</course>
  <speed>0.0</speed>
  <fix>3d</fix>
</trkpt>
<trkpt lat="40.071375" lon="-105.229789">
  <ele>1583.05</ele>
  <time>2026-08-28T17:50:41Z</time>
  <course>247.38</course>
  <speed>0.02</speed>
  <fix>3d</fix>
</trkpt>
<trkpt lat="40.0713749" lon="-105.229789">
  <ele>1583.0</ele>
  <time>2026-08-28T17:50:41Z</time>
  <course>0.0</course>
  <speed>0.0</speed>
  <fix>3d</fix>
</trkpt>
<trkpt lat="40.071375" lon="-105.229789">
  <ele>1583.05</ele>
  <time>2026-08-28T17:50:41Z</time>
  <course>247.38</course>
  <speed>0.02</speed>
  <fix>3d</fix>
</trkpt>
<trkpt lat="40.0713749" lon="-105.229789">
  <ele>1583.0</ele>
  <time>2026-08-28T17:50:41Z</time>
  <course>0.0</course>
  <speed>0.0</speed>
  <fix>3d</fix>
</trkpt>
<trkpt lat="40.071375" lon="-105.229789">
  <ele>1583.05</ele>
  <time>2026-08-28T17:50:41Z</time>
  <course>247.38</course>
  <speed>0.02</speed>
  <fix>3d</fix>
</trkpt>
<trkpt lat="40.0713749" lon="-105.229789">
  <ele>1583.0</ele>
  <time>2026-08-28T17:50:41Z</time>
  <course>0.0</course>
  <speed>0.0</speed>
  <fix>3d</fix>
</trkpt>
<trkpt lat="40.071375" lon="-105.229789">
  <ele>1583.05</ele>
  <time>2026-08-28T17:50:41Z</time>
  <course>247.38</course>
  <speed>0.02</speed>
  <fix>3d</fix>
</trkpt>
<trkpt lat="40.0713749" lon="-105.229789">
  <ele>1583.0</ele>
  <time>2026-08-28T17:50:41Z</time>
  <course>0.0</course>
  <speed>0.0</speed>
  <fix>3d</fix>
</trkpt>
<trkpt lat="40.071375" lon="-105.229789">
  <ele>1583.05</ele>
  <time>2026-08-28T17:50:41Z</time>
  <course>247.37</course>
  <speed>0.02</speed>
  <fix>3d</fix>
</trkpt>
<trkpt lat="40.0713749" lon="-105.229789">
  <ele>1583.0</ele>
  <time>2026-08-28T17:50:41Z</time>
  <course>0.0</course>
  <speed>0.0</speed>
  <fix>3d</fix>
</trkpt>
<trkpt lat="40.071375" lon="-105.229789">
  <ele>1583.06</ele>
  <time>2026-08-28T17:50:41Z</time>
  <course>247.37</course>
  <speed>0.02</speed>
  <fix>3d</fix>
</trkpt>
<trkpt lat="40.0713749" lon="-105.229789">
  <ele>1583.0</ele>
  <time>2026-08-28T17:50:41Z</time>
  <course>0.0</course>
  <speed>0.0</speed>
  <fix>3d</fix>
</trkpt>
<trkpt lat="40.071375" lon="-105.229789">
  <ele>1583.06</ele>
  <time>2026-08-28T17:50:41Z</time>
  <course>247.37</course>
  <speed>0.02</speed>
  <fix>3d</fix>
</trkpt>
<trkpt lat="40.0713749" lon="-105.229789">
  <ele>1583.0</ele>
  <time>2026-08-28T17:50:41Z</time>
  <course>0.0</course>
  <speed>0.0</speed>
  <fix>3d</fix>
</trkpt>
<trkpt lat="40.071375" lon="-105.229789">
  <ele>1583.06</ele>
  <time>2026-08-28T17:50:41Z</time>
  <course>247.37</course>
  <speed>0.02</speed>
  <fix>3d</fix>
</trkpt>
<trkpt lat="40.0713749" lon="-105.229789">
  <ele>1583.0</ele>
  <time>2026-08-28T17:50:41Z</time>
  <course>0.0</course>
  <speed>0.0</speed>
  <fix>3d</fix>
</trkpt>
<trkpt lat="40.071375" lon="-105.229789">
  <ele>1583.06</ele>
  <time>2026-08-28T17:50:41Z</time>
  <course>247.37</course>
  <speed>0.02</speed>
  <fix>3d</fix>
</trkpt>
<trkpt lat="40.0713749" lon="-105.229789">
  <ele>1583.0</ele>
  <time>2026-08-28T17:50:41Z</time>
  <course>0.0</course>
  <speed>0.0</speed>
  <fix>3d</fix>
</trkpt>
<trkpt lat="40.071375" lon="-105.229789">
  <ele>1583.06</ele>
  <time>2026-08-28T17:50:41Z</time>
  <course>247.37</course>
  <speed>0.02</speed>
  <fix>3d</fix>
</trkpt>
<trkpt lat="40.0713749" lon="-105.229789">
  <ele>1583.0</ele>
  <time>2026-08-28T17:50:41Z</time>
  <course>0.0</course>
  <speed>0.0</speed>
  <fix>3d</fix>
</trkpt>
<trkpt lat="40.071375" lon="-105.229789">
  <ele>1583.06</ele>
  <time>2026-08-28T17:50:41Z</time>
  <course>247.36</course>
  <speed>0.02</speed>
  <fix>3d</fix>
</trkpt>
<trkpt lat="40.0713749" lon="-105.229789">
  <ele>1583.0</ele>
  <time>2026-08-28T17:50:41Z</time>
  <course>0.0</course>
  <speed>0.0</speed>
  <fix>3d</fix>
</trkpt>
<trkpt lat="40.071375" lon="-105.229789">
  <ele>1583.06</ele>
  <time>2026-08-28T17:50:41Z</time>
  <course>247.36</course>
  <speed>0.02</speed>
  <fix>3d</fix>
</trkpt>
<trkpt lat="40.0713749" lon="-105.229789">
  <ele>1583.0</ele>
  <time>2026-08-28T17:50:41Z</time>
  <course>0.0</course>
  <speed>0.0</speed>
  <fix>3d</fix>
</trkpt>
<trkpt lat="40.071375" lon="-105.229789">
  <ele>1583.06</ele>
  <time>2026-08-28T17:50:41Z</time>
  <course>247.36</course>
  <speed>0.02</speed>
  <fix>3d</fix>
</trkpt>
<trkpt lat="40.0713749" lon="-105.229789">
  <ele>1583.0</ele>
  <time>2026-08-28T17:50:41Z</time>
  <course>0.0</course>
  <speed>0.0</speed>
  <fix>3d</fix>
</trkpt>
<trkpt lat="40.071375" lon="-105.229789">
  <ele>1583.06</ele>
  <time>2026-08-28T17:50:41Z</time>
  <course>247.36</course>
  <speed>0.02</speed>
  <fix>3d</fix>
</trkpt>
<trkpt lat="40.0713749" lon="-105.229789">
  <ele>1583.0</ele>
  <time>2026-08-28T17:50:41Z</time>
  <course>0.0</course>
  <speed>0.0</speed>
  <fix>3d</fix>
</trkpt>
<trkpt lat="40.071375" lon="-105.229789">
  <ele>1583.06</ele>
  <time>2026-08-28T17:50:41Z</time>
  <course>247.36</course>
  <speed>0.02</speed>
  <fix>3d</fix>
</trkpt>
<trkpt lat="40.0713749" lon="-105.229789">
  <ele>1583.0</ele>
  <time>2026-08-28T17:50:41Z</time>
  <course>0.0</course>
  <speed>0.0</speed>
  <fix>3d</fix>
</trkpt>
<trkpt lat="40.071375" lon="-105.229789">
  <ele>1583.05</ele>
  <time>2026-08-28T17:50:41Z</time>
  <course>247.35</course>
  <speed>0.02</speed>
  <fix>3d</fix>
</trkpt>
<trkpt lat="40.0713749" lon="-105.229789">
  <ele>1583.0</ele>
  <time>2026-08-28T17:50:41Z</time>
  <course>0.0</course>
  <speed>0.0</speed>
  <fix>3d</fix>
</trkpt>
<trkpt lat="40.071375" lon="-105.229789">
  <ele>1583.05</ele>
  <time>2026-08-28T17:50:41Z</time>
  <course>247.35</course>
  <speed>0.02</speed>
  <fix>3d</fix>
</trkpt>
<trkpt lat="40.0713749" lon="-105.229789">
  <ele>1583.0</ele>
  <time>2026-08-28T17:50:41Z</time>
  <course>0.0</course>
  <speed>0.0</speed>
  <fix>3d</fix>
</trkpt>
<trkpt lat="40.071375" lon="-105.229789">
  <ele>1583.04</ele>
  <time>2026-08-28T17:50:41Z</time>
  <course>247.35</course>
  <speed>0.02</speed>
  <fix>3d</fix>
</trkpt>
<trkpt lat="40.0713749" lon="-105.229789">
  <ele>1583.0</ele>
  <time>2026-08-28T17:50:41Z</time>
  <course>0.0</course>
  <speed>0.0</speed>
  <fix>3d</fix>
</trkpt>
<trkpt lat="40.071375" lon="-105.229789">
  <ele>1583.04</ele>
  <time>2026-08-28T17:50:41Z</time>
  <course>247.35</course>
  <speed>0.02</speed>
  <fix>3d</fix>
</trkpt>
<trkpt lat="40.0713749" lon="-105.229789">
  <ele>1583.0</ele>
  <time>2026-08-28T17:50:41Z</time>
  <course>0.0</course>
  <speed>0.0</speed>
  <fix>3d</fix>
</trkpt>
<trkpt lat="40.071375" lon="-105.229789">
  <ele>1583.04</ele>
  <time>2026-08-28T17:50:41Z</time>
  <course>247.35</course>
  <speed>0.02</speed>
  <fix>3d</fix>
</trkpt>
<trkpt lat="40.0713749" lon="-105.229789">
  <ele>1583.0</ele>
  <time>2026-08-28T17:50:41Z</time>
  <course>0.0</course>
  <speed>0.0</speed>
  <fix>3d</fix>
</trkpt>
<trkpt lat="40.071375" lon="-105.229789">
  <ele>1583.03</ele>
  <time>2026-08-28T17:50:41Z</time>
  <course>247.35</course>
  <speed>0.02</speed>
  <fix>3d</fix>
</trkpt>
<trkpt lat="40.0713749" lon="-105.229789">
  <ele>1583.0</ele>
  <time>2026-08-28T17:50:41Z</time>
  <course>0.0</course>
  <speed>0.0</speed>
  <fix>3d</fix>
</trkpt>
<trkpt lat="40.071375" lon="-105.229789">
  <ele>1583.03</ele>
  <time>2026-08-28T17:50:41Z</time>
  <course>247.34</course>
  <speed>0.02</speed>
  <fix>3d</fix>
</trkpt>
<trkpt lat="40.0713749" lon="-105.229789">
  <ele>1583.0</ele>
  <time>2026-08-28T17:50:41Z</time>
  <course>0.0</course>
  <speed>0.0</speed>
  <fix>3d</fix>
</trkpt>
<trkpt lat="40.071375" lon="-105.229789">
  <ele>1583.02</ele>
  <time>2026-08-28T17:50:41Z</time>
  <course>247.34</course>
  <speed>0.02</speed>
  <fix>3d</fix>
</trkpt>
<trkpt lat="40.0713749" lon="-105.229789">
  <ele>1583.0</ele>
  <time>2026-08-28T17:50:41Z</time>
  <course>0.0</course>
  <speed>0.0</speed>
  <fix>3d</fix>
</trkpt>
<trkpt lat="40.071375" lon="-105.229789">
  <ele>1583.02</ele>
  <time>2026-08-28T17:50:41Z</time>
  <course>247.34</course>
  <speed>0.02</speed>
  <fix>3d</fix>
</trkpt>
<trkpt lat="40.0713749" lon="-105.229789">
  <ele>1583.0</ele>
  <time>2026-08-28T17:50:41Z</time>
  <course>0.0</course>
  <speed>0.0</speed>
  <fix>3d</fix>
</trkpt>
<trkpt lat="40.071375" lon="-105.229789">
  <ele>1583.02</ele>
  <time>2026-08-28T17:50:41Z</time>
  <course>247.34</course>
  <speed>0.02</speed>
  <fix>3d</fix>
</trkpt>
<trkpt lat="40.0713749" lon="-105.229789">
  <ele>1583.0</ele>
  <time>2026-08-28T17:50:41Z</time>
  <course>0.0</course>
  <speed>0.0</speed>
  <fix>3d</fix>
</trkpt>
<trkpt lat="40.071375" lon="-105.229789">
  <ele>1583.02</ele>
  <time>2026-08-28T17:50:41Z</time>
  <course>247.34</course>
  <speed>0.02</speed>
  <fix>3d</fix>
</trkpt>
<trkpt lat="40.0713749" lon="-105.229789">
  <ele>1583.0</ele>
  <time>2026-08-28T17:50:41Z</time>
  <course>0.0</course>
  <speed>0.0</speed>
  <fix>3d</fix>
</trkpt>
<trkpt lat="40.071375" lon="-105.229789">
  <ele>1583.01</ele>
  <time>2026-08-28T17:50:41Z</time>
  <course>247.34</course>
  <speed>0.02</speed>
  <fix>3d</fix>
</trkpt>
<trkpt lat="40.0713749" lon="-105.229789">
  <ele>1583.0</ele>
  <time>2026-08-28T17:50:41Z</time>
  <course>0.0</course>
  <speed>0.0</speed>
  <fix>3d</fix>
</trkpt>
<trkpt lat="40.071375" lon="-105.229789">
  <ele>1583.01</ele>
  <time>2026-08-28T17:50:41Z</time>
  <course>247.33</course>
  <speed>0.02</speed>
  <fix>3d</fix>
</trkpt>
<trkpt lat="40.0713749" lon="-105.229789">
  <ele>1583.0</ele>
  <time>2026-08-28T17:50:41Z</time>
  <course>0.0</course>
  <speed>0.0</speed>
  <fix>3d</fix>
</trkpt>
<trkpt lat="40.071375" lon="-105.229789">
  <ele>1583.01</ele>
  <time>2026-08-28T17:50:41Z</time>
  <course>247.33</course>
  <speed>0.02</speed>
  <fix>3d</fix>
</trkpt>
<trkpt lat="40.0713749" lon="-105.229789">
  <ele>1583.0</ele>
  <time>2026-08-28T17:50:41Z</time>
  <course>0.0</course>
  <speed>0.0</speed>
  <fix>3d</fix>
</trkpt>
<trkpt lat="40.071375" lon="-105.229789">
  <ele>1583.01</ele>
  <time>2026-08-28T17:50:41Z</time>
  <course>247.33</course>
  <speed>0.02</speed>
  <fix>3d</fix>
</trkpt>
<trkpt lat="40.0713749" lon="-105.229789">
  <ele>1583.0</ele>
  <time>2026-08-28T17:50:41Z</time>
  <course>0.0</course>
  <speed>0.0</speed>
  <fix>3d</fix>
</trkpt>
<trkpt lat="40.071375" lon="-105.229789">
  <ele>1583.01</ele>
  <time>2026-08-28T17:50:41Z</time>
  <course>247.33</course>
  <speed>0.02</speed>
  <fix>3d</fix>
</trkpt>
<trkpt lat="40.0713749" lon="-105.229789">
  <ele>1583.0</ele>
  <time>2026-08-28T17:50:41Z</time>
  <course>0.0</course>
  <speed>0.0</speed>
  <fix>3d</fix>
</trkpt>
<trkpt lat="40.071375" lon="-105.229789">
  <ele>1583.01</ele>
  <time>2026-08-28T17:50:41Z</time>
  <course>247.33</course>
  <speed>0.02</speed>
  <fix>3d</fix>
</trkpt>
<trkpt lat="40.0713749" lon="-105.229789">
  <ele>1583.0</ele>
  <time>2026-08-28T17:50:41Z</time>
  <course>0.0</course>
  <speed>0.0</speed>
  <fix>3d</fix>
</trkpt>
<trkpt lat="40.071375" lon="-105.229789">
  <ele>1583.01</ele>
  <time>2026-08-28T17:50:41Z</time>
  <course>247.33</course>
  <speed>0.02</speed>
  <fix>3d</fix>
</trkpt>
<trkpt lat="40.0713749" lon="-105.229789">
  <ele>1583.0</ele>
  <time>2026-08-28T17:50:41Z</time>
  <course>0.0</course>
  <speed>0.0</speed>
  <fix>3d</fix>
</trkpt>
<trkpt lat="40.071375" lon="-105.229789">
  <ele>1583.01</ele>
  <time>2026-08-28T17:50:41Z</time>
  <course>247.33</course>
  <speed>0.02</speed>
  <fix>3d</fix>
</trkpt>
<trkpt lat="40.0713749" lon="-105.229789">
  <ele>1583.0</ele>
  <time>2026-08-28T17:50:41Z</time>
  <course>0.0</course>
  <speed>0.0</speed>
  <fix>3d</fix>
</trkpt>
<trkpt lat="40.071375" lon="-105.229789">
  <ele>1583.01</ele>
  <time>2026-08-28T17:50:41Z</time>
  <course>247.32</course>
  <speed>0.02</speed>
  <fix>3d</fix>
</trkpt>
<trkpt lat="40.0713749" lon="-105.229789">
  <ele>1583.0</ele>
  <time>2026-08-28T17:50:41Z</time>
  <course>0.0</course>
  <speed>0.0</speed>
  <fix>3d</fix>
</trkpt>
<trkpt lat="40.071375" lon="-105.229789">
  <ele>1583.0</ele>
  <time>2026-08-28T17:50:41Z</time>
  <course>247.32</course>
  <speed>0.02</speed>
  <fix>3d</fix>
</trkpt>
<trkpt lat="40.0713749" lon="-105.229789">
  <ele>1583.0</ele>
  <time>2026-08-28T17:50:41Z</time>
  <course>0.0</course>
  <speed>0.0</speed>
  <fix>3d</fix>
</trkpt>
<trkpt lat="40.071375" lon="-105.229789">
  <ele>1583.0</ele>
  <time>2026-08-28T17:50:41Z</time>
  <course>247.32</course>
  <speed>0.02</speed>
  <fix>3d</fix>
</trkpt>
<trkpt lat="40.0713749" lon="-105.229789">
  <ele>1583.0</ele>
  <time>2026-08-28T17:50:41Z</time>
  <course>0.0</course>
  <speed>0.0</speed>
  <fix>3d</fix>
</trkpt>
<trkpt lat="40.071375" lon="-105.229789">
  <ele>1583.0</ele>
  <time>2026-08-28T17:50:41Z</time>
  <course>247.32</course>
  <speed>0.02</speed>
  <fix>3d</fix>
</trkpt>
<trkpt lat="40.0713749" lon="-105.229789">
  <ele>1583.0</ele>
  <time>2026-08-28T17:50:41Z</time>
  <course>0.0</course>
  <speed>0.0</speed>
  <fix>3d</fix>
</trkpt>
<trkpt lat="40.071375" lon="-105.229789">
  <ele>1582.99</ele>
  <time>2026-08-28T17:50:41Z</time>
  <course>247.32</course>
  <speed>0.02</speed>
  <fix>3d</fix>
</trkpt>
<trkpt lat="40.0713749" lon="-105.229789">
  <ele>1583.0</ele>
  <time>2026-08-28T17:50:41Z</time>
  <course>0.0</course>
  <speed>0.0</speed>
  <fix>3d</fix>
</trkpt>
<trkpt lat="40.071375" lon="-105.229789">
  <ele>1582.99</ele>
  <time>2026-08-28T17:50:41Z</time>
  <course>247.32</course>
  <speed>0.02</speed>
  <fix>3d</fix>
</trkpt>
<trkpt lat="40.0713749" lon="-105.229789">
  <ele>1583.0</ele>
  <time>2026-08-28T17:50:41Z</time>
  <course>0.0</course>
  <speed>0.0</speed>
  <fix>3d</fix>
</trkpt>
<trkpt lat="40.071375" lon="-105.229789">
  <ele>1582.98</ele>
  <time>2026-08-28T17:50:41Z</time>
  <course>247.31</course>
  <speed>0.02</speed>
  <fix>3d</fix>
</trkpt>
<trkpt lat="40.0713749" lon="-105.229789">
  <ele>1583.0</ele>
  <time>2026-08-28T17:50:41Z</time>
  <course>0.0</course>
  <speed>0.0</speed>
  <fix>3d</fix>
</trkpt>
<trkpt lat="40.071375" lon="-105.229789">
  <ele>1582.97</ele>
  <time>2026-08-28T17:50:41Z</time>
  <course>247.31</course>
  <speed>0.02</speed>
  <fix>3d</fix>
</trkpt>
<trkpt lat="40.0713749" lon="-105.229789">
  <ele>1583.0</ele>
  <time>2026-08-28T17:50:41Z</time>
  <course>0.0</course>
  <speed>0.0</speed>
  <fix>3d</fix>
</trkpt>
<trkpt lat="40.071375" lon="-105.229789">
  <ele>1582.97</ele>
  <time>2026-08-28T17:50:41Z</time>
  <course>247.31</course>
  <speed>0.02</speed>
  <fix>3d</fix>
</trkpt>
<trkpt lat="40.0713749" lon="-105.229789">
  <ele>1583.0</ele>
  <time>2026-08-28T17:50:41Z</time>
  <course>0.0</course>
  <speed>0.0</speed>
  <fix>3d</fix>
</trkpt>
<trkpt lat="40.071375" lon="-105.229789">
  <ele>1582.96</ele>
  <time>2026-08-28T17:50:41Z</time>
  <course>247.31</course>
  <speed>0.02</speed>
  <fix>3d</fix>
</trkpt>
<trkpt lat="40.0713749" lon="-105.229789">
  <ele>1583.0</ele>
  <time>2026-08-28T17:50:41Z</time>
  <course>0.0</course>
  <speed>0.0</speed>
  <fix>3d</fix>
</trkpt>
<trkpt lat="40.071375" lon="-105.229789">
  <ele>1582.96</ele>
  <time>2026-08-28T17:50:41Z</time>
  <course>247.31</course>
  <speed>0.02</speed>
  <fix>3d</fix>
</trkpt>
<trkpt lat="40.0713749" lon="-105.229789">
  <ele>1583.0</ele>
  <time>2026-08-28T17:50:41Z</time>
  <course>0.0</course>
  <speed>0.0</speed>
  <fix>3d</fix>
</trkpt>
<trkpt lat="40.071375" lon="-105.229789">
  <ele>1582.95</ele>
  <time>2026-08-28T17:50:41Z</time>
  <course>247.31</course>
  <speed>0.02</speed>
  <fix>3d</fix>
</trkpt>
<trkpt lat="40.0713749" lon="-105.229789">
  <ele>1583.0</ele>
  <time>2026-08-28T17:50:41Z</time>
  <course>0.0</course>
  <speed>0.0</speed>
  <fix>3d</fix>
</trkpt>
<trkpt lat="40.071375" lon="-105.229789">
  <ele>1582.95</ele>
  <time>2026-08-28T17:50:41Z</time>
  <course>247.3</course>
  <speed>0.02</speed>
  <fix>3d</fix>
</trkpt>
<trkpt lat="40.0713749" lon="-105.229789">
  <ele>1583.0</ele>
  <time>2026-08-28T17:50:41Z</time>
  <course>0.0</course>
  <speed>0.0</speed>
  <fix>3d</fix>
</trkpt>
<trkpt lat="40.071375" lon="-105.229789">
  <ele>1582.94</ele>
  <time>2026-08-28T17:50:41Z</time>
  <course>247.3</course>
  <speed>0.02</speed>
  <fix>3d</fix>
</trkpt>
<trkpt lat="40.0713749" lon="-105.229789">
  <ele>1583.0</ele>
  <time>2026-08-28T17:50:41Z</time>
  <course>0.0</course>
  <speed>0.0</speed>
  <fix>3d</fix>
</trkpt>
<trkpt lat="40.071375" lon="-105.229789">
  <ele>1582.93</ele>
  <time>2026-08-28T17:50:41Z</time>
  <course>247.3</course>
  <speed>0.02</speed>
  <fix>3d</fix>
</trkpt>
<trkpt lat="40.0713749" lon="-105.229789">
  <ele>1583.0</ele>
  <time>2026-08-28T17:50:41Z</time>
  <course>0.0</course>
  <speed>0.0</speed>
  <fix>3d</fix>
</trkpt>
<trkpt lat="40.071375" lon="-105.229789">
  <ele>1582.93</ele>
  <time>2026-08-28T17:50:41Z</time>
  <course>247.3</course>
  <speed>0.02</speed>
  <fix>3d</fix>
</trkpt>
<trkpt lat="40.0713749" lon="-105.229789">
  <ele>1583.0</ele>
  <time>2026-08-28T17:50:41Z</time>
  <course>0.0</course>
  <speed>0.0</speed>
  <fix>3d</fix>
</trkpt>
<trkpt lat="40.071375" lon="-105.229789">
  <ele>1582.92</ele>
  <time>2026-08-28T17:50:41Z</time>
  <course>247.3</course>
  <speed>0.02</speed>
  <fix>3d</fix>
</trkpt>
<trkpt lat="40.0713749" lon="-105.229789">
  <ele>1583.0</ele>
  <time>2026-08-28T17:50:41Z</time>
  <course>0.0</course>
  <speed>0.0</speed>
  <fix>3d</fix>
</trkpt>
<trkpt lat="40.071375" lon="-105.229789">
  <ele>1582.92</ele>
  <time>2026-08-28T17:50:41Z</time>
  <course>247.3</course>
  <speed>0.02</speed>
  <fix>3d</fix>
</trkpt>
<trkpt lat="40.0713749" lon="-105.229789">
  <ele>1583.0</ele>
  <time>2026-08-28T17:50:41Z</time>
  <course>0.0</course>
  <speed>0.0</speed>
  <fix>3d</fix>
</trkpt>
<trkpt lat="40.071375" lon="-105.229789">
  <ele>1582.91</ele>
  <time>2026-08-28T17:50:41Z</time>
  <course>247.3</course>
  <speed>0.02</speed>
  <fix>3d</fix>
</trkpt>
<trkpt lat="40.0713749" lon="-105.229789">
  <ele>1583.0</ele>
  <time>2026-08-28T17:50:41Z</time>
  <course>0.0</course>
  <speed>0.0</speed>
  <fix>3d</fix>
</trkpt>
<trkpt lat="40.071375" lon="-105.229789">
  <ele>1582.91</ele>
  <time>2026-08-28T17:50:41Z</time>
  <course>247.3</course>
  <speed>0.02</speed>
  <fix>3d</fix>
</trkpt>
<trkpt lat="40.0713749" lon="-105.229789">
  <ele>1583.0</ele>
  <time>2026-08-28T17:50:41Z</time>
  <course>0.0</course>
  <speed>0.0</speed>
  <fix>3d</fix>
</trkpt>
<trkpt lat="40.071375" lon="-105.229789">
  <ele>1582.91</ele>
  <time>2026-08-28T17:50:41Z</time>
  <course>247.29</course>
  <speed>0.02</speed>
  <fix>3d</fix>
</trkpt>
<trkpt lat="40.0713749" lon="-105.229789">
  <ele>1583.0</ele>
  <time>2026-08-28T17:50:41Z</time>
  <course>0.0</course>
  <speed>0.0</speed>
  <fix>3d</fix>
</trkpt>
<trkpt lat="40.071375" lon="-105.229789">
  <ele>1582.91</ele>
  <time>2026-08-28T17:50:41Z</time>
  <course>247.29</course>
  <speed>0.02</speed>
  <fix>3d</fix>
</trkpt>
<trkpt lat="40.0713749" lon="-105.229789">
  <ele>1583.0</ele>
  <time>2026-08-28T17:50:41Z</time>
  <course>0.0</course>
  <speed>0.0</speed>
  <fix>3d</fix>
</trkpt>
<trkpt lat="40.071375" lon="-105.229789">
  <ele>1582.91</ele>
  <time>2026-08-28T17:50:41Z</time>
  <course>247.29</course>
  <speed>0.02</speed>
  <fix>3d</fix>
</trkpt>
<trkpt lat="40.0713749" lon="-105.229789">
  <ele>1583.0</ele>
  <time>2026-08-28T17:50:41Z</time>
  <course>0.0</course>
  <speed>0.0</speed>
  <fix>3d</fix>
</trkpt>
<trkpt lat="40.071375" lon="-105.229789">
  <ele>1582.91</ele>
  <time>2026-08-28T17:50:42Z</time>
  <course>247.29</course>
  <speed>0.02</speed>
  <fix>3d</fix>
</trkpt>
<trkpt lat="40.0713749" lon="-105.229789">
  <ele>1583.0</ele>
  <time>2026-08-28T17:50:42Z</time>
  <course>0.0</course>
  <speed>0.0</speed>
  <fix>3d</fix>
</trkpt>
<trkpt lat="40.071375" lon="-105.229789">
  <ele>1582.9</ele>
  <time>2026-08-28T17:50:42Z</time>
  <course>247.29</course>
  <speed>0.02</speed>
  <fix>3d</fix>
</trkpt>
<trkpt lat="40.0713749" lon="-105.229789">
  <ele>1583.0</ele>
  <time>2026-08-28T17:50:42Z</time>
  <course>0.0</course>
  <speed>0.0</speed>
  <fix>3d</fix>
</trkpt>
<trkpt lat="40.071375" lon="-105.229789">
  <ele>1582.9</ele>
  <time>2026-08-28T17:50:42Z</time>
  <course>247.29</course>
  <speed>0.02</speed>
  <fix>3d</fix>
</trkpt>
<trkpt lat="40.0713749" lon="-105.229789">
  <ele>1583.0</ele>
  <time>2026-08-28T17:50:42Z</time>
  <course>0.0</course>
  <speed>0.0</speed>
  <fix>3d</fix>
</trkpt>
<trkpt lat="40.071375" lon="-105.229789">
  <ele>1582.9</ele>
  <time>2026-08-28T17:50:42Z</time>
  <course>247.29</course>
  <speed>0.02</speed>
  <fix>3d</fix>
</trkpt>
<trkpt lat="40.0713749" lon="-105.229789">
  <ele>1583.0</ele>
  <time>2026-08-28T17:50:42Z</time>
  <course>0.0</course>
  <speed>0.0</speed>
  <fix>3d</fix>
</trkpt>
<trkpt lat="40.071375" lon="-105.229789">
  <ele>1582.9</ele>
  <time>2026-08-28T17:50:42Z</time>
  <course>247.28</course>
  <speed>0.02</speed>
  <fix>3d</fix>
</trkpt>
<trkpt lat="40.0713749" lon="-105.229789">
  <ele>1583.0</ele>
  <time>2026-08-28T17:50:42Z</time>
  <course>0.0</course>
  <speed>0.0</speed>
  <fix>3d</fix>
</trkpt>
<trkpt lat="40.071375" lon="-105.229789">
  <ele>1582.89</ele>
  <time>2026-08-28T17:50:42Z</time>
  <course>247.28</course>
  <speed>0.02</speed>
  <fix>3d</fix>
</trkpt>
<trkpt lat="40.0713749" lon="-105.229789">
  <ele>1583.0</ele>
  <time>2026-08-28T17:50:42Z</time>
  <course>0.0</course>
  <speed>0.0</speed>
  <fix>3d</fix>
</trkpt>
<trkpt lat="40.071375" lon="-105.2297889">
  <ele>1582.9</ele>
  <time>2026-08-28T17:50:42Z</time>
  <course>247.28</course>
  <speed>0.02</speed>
  <fix>3d</fix>
</trkpt>
<trkpt lat="40.0713749" lon="-105.229789">
  <ele>1583.0</ele>
  <time>2026-08-28T17:50:42Z</time>
  <course>0.0</course>
  <speed>0.0</speed>
  <fix>3d</fix>
</trkpt>
<trkpt lat="40.071375" lon="-105.229789">
  <ele>1582.9</ele>
  <time>2026-08-28T17:50:42Z</time>
  <course>247.28</course>
  <speed>0.02</speed>
  <fix>3d</fix>
</trkpt>
<trkpt lat="40.0713749" lon="-105.229789">
  <ele>1583.0</ele>
  <time>2026-08-28T17:50:42Z</time>
  <course>0.0</course>
  <speed>0.0</speed>
  <fix>3d</fix>
</trkpt>
<trkpt lat="40.071375" lon="-105.2297889">
  <ele>1582.9</ele>
  <time>2026-08-28T17:50:42Z</time>
  <course>247.28</course>
  <speed>0.02</speed>
  <fix>3d</fix>
</trkpt>
<trkpt lat="40.0713749" lon="-105.229789">
  <ele>1583.0</ele>
  <time>2026-08-28T17:50:42Z</time>
  <course>0.0</course>
  <speed>0.0</speed>
  <fix>3d</fix>
</trkpt>
<trkpt lat="40.071375" lon="-105.229789">
  <ele>1582.91</ele>
  <time>2026-08-28T17:50:42Z</time>
  <course>247.28</course>
  <speed>0.02</speed>
  <fix>3d</fix>
</trkpt>
<trkpt lat="40.0713749" lon="-105.229789">
  <ele>1583.0</ele>
  <time>2026-08-28T17:50:42Z</time>
  <course>0.0</course>
  <speed>0.0</speed>
  <fix>3d</fix>
</trkpt>
<trkpt lat="40.071375" lon="-105.2297889">
  <ele>1582.92</ele>
  <time>2026-08-28T17:50:42Z</time>
  <course>247.28</course>
  <speed>0.02</speed>
  <fix>3d</fix>
</trkpt>
<trkpt lat="40.0713749" lon="-105.229789">
  <ele>1583.0</ele>
  <time>2026-08-28T17:50:42Z</time>
  <course>0.0</course>
  <speed>0.0</speed>
  <fix>3d</fix>
</trkpt>
<trkpt lat="40.071375" lon="-105.2297889">
  <ele>1582.93</ele>
  <time>2026-08-28T17:50:42Z</time>
  <course>247.27</course>
  <speed>0.02</speed>
  <fix>3d</fix>
</trkpt>
<trkpt lat="40.0713749" lon="-105.229789">
  <ele>1583.0</ele>
  <time>2026-08-28T17:50:42Z</time>
  <course>0.0</course>
  <speed>0.0</speed>
  <fix>3d</fix>
</trkpt>
<trkpt lat="40.071375" lon="-105.2297889">
  <ele>1582.93</ele>
  <time>2026-08-28T17:50:42Z</time>
  <course>247.27</course>
  <speed>0.02</speed>
  <fix>3d</fix>
</trkpt>
<trkpt lat="40.0713749" lon="-105.229789">
  <ele>1583.0</ele>
  <time>2026-08-28T17:50:42Z</time>
  <course>0.0</course>
  <speed>0.0</speed>
  <fix>3d</fix>
</trkpt>
<trkpt lat="40.071375" lon="-105.2297889">
  <ele>1582.94</ele>
  <time>2026-08-28T17:50:42Z</time>
  <course>247.27</course>
  <speed>0.02</speed>
  <fix>3d</fix>
</trkpt>
<trkpt lat="40.0713749" lon="-105.229789">
  <ele>1583.0</ele>
  <time>2026-08-28T17:50:42Z</time>
  <course>0.0</course>
  <speed>0.0</speed>
  <fix>3d</fix>
</trkpt>
<trkpt lat="40.071375" lon="-105.2297889">
  <ele>1582.95</ele>
  <time>2026-08-28T17:50:42Z</time>
  <course>247.27</course>
  <speed>0.02</speed>
  <fix>3d</fix>
</trkpt>
<trkpt lat="40.0713749" lon="-105.229789">
  <ele>1583.0</ele>
  <time>2026-08-28T17:50:42Z</time>
  <course>0.0</course>
  <speed>0.0</speed>
  <fix>3d</fix>
</trkpt>
<trkpt lat="40.071375" lon="-105.2297889">
  <ele>1582.95</ele>
  <time>2026-08-28T17:50:42Z</time>
  <course>247.27</course>
  <speed>0.02</speed>
  <fix>3d</fix>
</trkpt>
<trkpt lat="40.0713749" lon="-105.229789">
  <ele>1583.0</ele>
  <time>2026-08-28T17:50:42Z</time>
  <course>0.0</course>
  <speed>0.0</speed>
  <fix>3d</fix>
</trkpt>
<trkpt lat="40.071375" lon="-105.2297889">
  <ele>1582.96</ele>
  <time>2026-08-28T17:50:42Z</time>
  <course>247.27</course>
  <speed>0.02</speed>
  <fix>3d</fix>
</trkpt>
<trkpt lat="40.0713749" lon="-105.229789">
  <ele>1583.0</ele>
  <time>2026-08-28T17:50:42Z</time>
  <course>0.0</course>
  <speed>0.0</speed>
  <fix>3d</fix>
</trkpt>
<trkpt lat="40.071375" lon="-105.229789">
  <ele>1582.97</ele>
  <time>2026-08-28T17:50:42Z</time>
  <course>247.27</course>
  <speed>0.02</speed>
  <fix>3d</fix>
</trkpt>
<trkpt lat="40.0713749" lon="-105.229789">
  <ele>1583.0</ele>
  <time>2026-08-28T17:50:42Z</time>
  <course>0.0</course>
  <speed>0.0</speed>
  <fix>3d</fix>
</trkpt>
<trkpt lat="40.071375" lon="-105.2297889">
  <ele>1582.97</ele>
  <time>2026-08-28T17:50:42Z</time>
  <course>247.27</course>
  <speed>0.02</speed>
  <fix>3d</fix>
</trkpt>
<trkpt lat="40.0713749" lon="-105.229789">
  <ele>1583.0</ele>
  <time>2026-08-28T17:50:42Z</time>
  <course>0.0</course>
  <speed>0.0</speed>
  <fix>3d</fix>
</trkpt>
<trkpt lat="40.071375" lon="-105.229789">
  <ele>1582.97</ele>
  <time>2026-08-28T17:50:42Z</time>
  <course>247.26</course>
  <speed>0.02</speed>
  <fix>3d</fix>
</trkpt>
<trkpt lat="40.0713749" lon="-105.229789">
  <ele>1583.0</ele>
  <time>2026-08-28T17:50:42Z</time>
  <course>0.0</course>
  <speed>0.0</speed>
  <fix>3d</fix>
</trkpt>
<trkpt lat="40.071375" lon="-105.2297889">
  <ele>1582.97</ele>
  <time>2026-08-28T17:50:42Z</time>
  <course>247.26</course>
  <speed>0.02</speed>
  <fix>3d</fix>
</trkpt>
<trkpt lat="40.0713749" lon="-105.229789">
  <ele>1583.0</ele>
  <time>2026-08-28T17:50:42Z</time>
  <course>0.0</course>
  <speed>0.0</speed>
  <fix>3d</fix>
</trkpt>
<trkpt lat="40.071375" lon="-105.229789">
  <ele>1582.98</ele>
  <time>2026-08-28T17:50:42Z</time>
  <course>247.26</course>
  <speed>0.02</speed>
  <fix>3d</fix>
</trkpt>
<trkpt lat="40.0713749" lon="-105.229789">
  <ele>1583.0</ele>
  <time>2026-08-28T17:50:42Z</time>
  <course>0.0</course>
  <speed>0.0</speed>
  <fix>3d</fix>
</trkpt>
<trkpt lat="40.071375" lon="-105.2297889">
  <ele>1582.98</ele>
  <time>2026-08-28T17:50:42Z</time>
  <course>247.26</course>
  <speed>0.02</speed>
  <fix>3d</fix>
</trkpt>
<trkpt lat="40.0713749" lon="-105.229789">
  <ele>1583.0</ele>
  <time>2026-08-28T17:50:42Z</time>
  <course>0.0</course>
  <speed>0.0</speed>
  <fix>3d</fix>
</trkpt>
<trkpt lat="40.071375" lon="-105.229789">
  <ele>1582.99</ele>
  <time>2026-08-28T17:50:42Z</time>
  <course>247.26</course>
  <speed>0.02</speed>
  <fix>3d</fix>
</trkpt>
<trkpt lat="40.0713749" lon="-105.229789">
  <ele>1583.0</ele>
  <time>2026-08-28T17:50:42Z</time>
  <course>0.0</course>
  <speed>0.0</speed>
  <fix>3d</fix>
</trkpt>
<trkpt lat="40.071375" lon="-105.2297889">
  <ele>1582.99</ele>
  <time>2026-08-28T17:50:42Z</time>
  <course>247.26</course>
  <speed>0.02</speed>
  <fix>3d</fix>
</trkpt>
<trkpt lat="40.0713749" lon="-105.229789">
  <ele>1583.0</ele>
  <time>2026-08-28T17:50:42Z</time>
  <course>0.0</course>
  <speed>0.0</speed>
  <fix>3d</fix>
</trkpt>
<trkpt lat="40.071375" lon="-105.229789">
  <ele>1583.0</ele>
  <time>2026-08-28T17:50:42Z</time>
  <course>247.26</course>
  <speed>0.02</speed>
  <fix>3d</fix>
</trkpt>
<trkpt lat="40.0713749" lon="-105.229789">
  <ele>1583.0</ele>
  <time>2026-08-28T17:50:42Z</time>
  <course>0.0</course>
  <speed>0.0</speed>
  <fix>3d</fix>
</trkpt>
<trkpt lat="40.071375" lon="-105.2297889">
  <ele>1583.0</ele>
  <time>2026-08-28T17:50:42Z</time>
  <course>247.26</course>
  <speed>0.02</speed>
  <fix>3d</fix>
</trkpt>
<trkpt lat="40.0713749" lon="-105.229789">
  <ele>1583.0</ele>
  <time>2026-08-28T17:50:42Z</time>
  <course>0.0</course>
  <speed>0.0</speed>
  <fix>3d</fix>
</trkpt>
<trkpt lat="40.071375" lon="-105.229789">
  <ele>1583.0</ele>
  <time>2026-08-28T17:50:42Z</time>
  <course>247.25</course>
  <speed>0.02</speed>
  <fix>3d</fix>
</trkpt>
<trkpt lat="40.0713749" lon="-105.229789">
  <ele>1583.0</ele>
  <time>2026-08-28T17:50:42Z</time>
  <course>0.0</course>
  <speed>0.0</speed>
  <fix>3d</fix>
</trkpt>
<trkpt lat="40.071375" lon="-105.2297889">
  <ele>1583.0</ele>
  <time>2026-08-28T17:50:42Z</time>
  <course>247.25</course>
  <speed>0.02</speed>
  <fix>3d</fix>
</trkpt>
<trkpt lat="40.0713749" lon="-105.229789">
  <ele>1583.0</ele>
  <time>2026-08-28T17:50:42Z</time>
  <course>0.0</course>
  <speed>0.0</speed>
  <fix>3d</fix>
</trkpt>
<trkpt lat="40.071375" lon="-105.229789">
  <ele>1582.99</ele>
  <time>2026-08-28T17:50:42Z</time>
  <course>247.25</course>
  <speed>0.02</speed>
  <fix>3d</fix>
</trkpt>
<trkpt lat="40.0713749" lon="-105.229789">
  <ele>1583.0</ele>
  <time>2026-08-28T17:50:42Z</time>
  <course>0.0</course>
  <speed>0.0</speed>
  <fix>3d</fix>
</trkpt>
<trkpt lat="40.071375" lon="-105.2297889">
  <ele>1582.99</ele>
  <time>2026-08-28T17:50:42Z</time>
  <course>247.25</course>
  <speed>0.02</speed>
  <fix>3d</fix>
</trkpt>
<trkpt lat="40.0713749" lon="-105.229789">
  <ele>1583.0</ele>
  <time>2026-08-28T17:50:42Z</time>
  <course>0.0</course>
  <speed>0.0</speed>
  <fix>3d</fix>
</trkpt>
<trkpt lat="40.071375" lon="-105.229789">
  <ele>1582.98</ele>
  <time>2026-08-28T17:50:42Z</time>
  <course>247.25</course>
  <speed>0.02</speed>
  <fix>3d</fix>
</trkpt>
<trkpt lat="40.0713749" lon="-105.229789">
  <ele>1583.0</ele>
  <time>2026-08-28T17:50:42Z</time>
  <course>0.0</course>
  <speed>0.0</speed>
  <fix>3d</fix>
</trkpt>
<trkpt lat="40.071375" lon="-105.2297889">
  <ele>1582.97</ele>
  <time>2026-08-28T17:50:42Z</time>
  <course>247.25</course>
  <speed>0.02</speed>
  <fix>3d</fix>
</trkpt>
<trkpt lat="40.0713749" lon="-105.229789">
  <ele>1583.0</ele>
  <time>2026-08-28T17:50:42Z</time>
  <course>0.0</course>
  <speed>0.0</speed>
  <fix>3d</fix>
</trkpt>
<trkpt lat="40.071375" lon="-105.229789">
  <ele>1582.96</ele>
  <time>2026-08-28T17:50:42Z</time>
  <course>247.25</course>
  <speed>0.02</speed>
  <fix>3d</fix>
</trkpt>
<trkpt lat="40.0713749" lon="-105.229789">
  <ele>1583.0</ele>
  <time>2026-08-28T17:50:42Z</time>
  <course>0.0</course>
  <speed>0.0</speed>
  <fix>3d</fix>
</trkpt>
<trkpt lat="40.071375" lon="-105.2297889">
  <ele>1582.96</ele>
  <time>2026-08-28T17:50:42Z</time>
  <course>247.25</course>
  <speed>0.02</speed>
  <fix>3d</fix>
</trkpt>
<trkpt lat="40.0713749" lon="-105.229789">
  <ele>1583.0</ele>
  <time>2026-08-28T17:50:42Z</time>
  <course>0.0</course>
  <speed>0.0</speed>
  <fix>3d</fix>
</trkpt>
<trkpt lat="40.071375" lon="-105.229789">
  <ele>1582.95</ele>
  <time>2026-08-28T17:50:42Z</time>
  <course>247.25</course>
  <speed>0.02</speed>
  <fix>3d</fix>
</trkpt>
<trkpt lat="40.0713749" lon="-105.229789">
  <ele>1583.0</ele>
  <time>2026-08-28T17:50:42Z</time>
  <course>0.0</course>
  <speed>0.0</speed>
  <fix>3d</fix>
</trkpt>
<trkpt lat="40.071375" lon="-105.2297889">
  <ele>1582.95</ele>
  <time>2026-08-28T17:50:42Z</time>
  <course>247.24</course>
  <speed>0.02</speed>
  <fix>3d</fix>
</trkpt>
<trkpt lat="40.0713749" lon="-105.229789">
  <ele>1583.0</ele>
  <time>2026-08-28T17:50:42Z</time>
  <course>0.0</course>
  <speed>0.0</speed>
  <fix>3d</fix>
</trkpt>
<trkpt lat="40.071375" lon="-105.229789">
  <ele>1582.96</ele>
  <time>2026-08-28T17:50:42Z</time>
  <course>247.24</course>
  <speed>0.02</speed>
  <fix>3d</fix>
</trkpt>
<trkpt lat="40.0713749" lon="-105.229789">
  <ele>1583.0</ele>
  <time>2026-08-28T17:50:42Z</time>
  <course>0.0</course>
  <speed>0.0</speed>
  <fix>3d</fix>
</trkpt>
<trkpt lat="40.071375" lon="-105.2297889">
  <ele>1582.96</ele>
  <time>2026-08-28T17:50:42Z</time>
  <course>247.24</course>
  <speed>0.02</speed>
  <fix>3d</fix>
</trkpt>
<trkpt lat="40.0713749" lon="-105.229789">
  <ele>1583.0</ele>
  <time>2026-08-28T17:50:42Z</time>
  <course>0.0</course>
  <speed>0.0</speed>
  <fix>3d</fix>
</trkpt>
<trkpt lat="40.071375" lon="-105.229789">
  <ele>1582.97</ele>
  <time>2026-08-28T17:50:42Z</time>
  <course>247.24</course>
  <speed>0.02</speed>
  <fix>3d</fix>
</trkpt>
<trkpt lat="40.0713749" lon="-105.229789">
  <ele>1583.0</ele>
  <time>2026-08-28T17:50:42Z</time>
  <course>0.0</course>
  <speed>0.0</speed>
  <fix>3d</fix>
</trkpt>
<trkpt lat="40.071375" lon="-105.229789">
  <ele>1582.97</ele>
  <time>2026-08-28T17:50:42Z</time>
  <course>247.24</course>
  <speed>0.02</speed>
  <fix>3d</fix>
</trkpt>
<trkpt lat="40.0713749" lon="-105.229789">
  <ele>1583.0</ele>
  <time>2026-08-28T17:50:42Z</time>
  <course>0.0</course>
  <speed>0.0</speed>
  <fix>3d</fix>
</trkpt>
<trkpt lat="40.071375" lon="-105.229789">
  <ele>1582.98</ele>
  <time>2026-08-28T17:50:42Z</time>
  <course>247.24</course>
  <speed>0.02</speed>
  <fix>3d</fix>
</trkpt>
<trkpt lat="40.0713749" lon="-105.229789">
  <ele>1583.0</ele>
  <time>2026-08-28T17:50:42Z</time>
  <course>0.0</course>
  <speed>0.0</speed>
  <fix>3d</fix>
</trkpt>
<trkpt lat="40.071375" lon="-105.229789">
  <ele>1582.98</ele>
  <time>2026-08-28T17:50:42Z</time>
  <course>247.24</course>
  <speed>0.02</speed>
  <fix>3d</fix>
</trkpt>
<trkpt lat="40.0713749" lon="-105.229789">
  <ele>1583.0</ele>
  <time>2026-08-28T17:50:42Z</time>
  <course>0.0</course>
  <speed>0.0</speed>
  <fix>3d</fix>
</trkpt>
<trkpt lat="40.071375" lon="-105.229789">
  <ele>1582.99</ele>
  <time>2026-08-28T17:50:42Z</time>
  <course>247.24</course>
  <speed>0.02</speed>
  <fix>3d</fix>
</trkpt>
<trkpt lat="40.0713749" lon="-105.229789">
  <ele>1583.0</ele>
  <time>2026-08-28T17:50:42Z</time>
  <course>0.0</course>
  <speed>0.0</speed>
  <fix>3d</fix>
</trkpt>
<trkpt lat="40.071375" lon="-105.229789">
  <ele>1583.0</ele>
  <time>2026-08-28T17:50:42Z</time>
  <course>247.24</course>
  <speed>0.02</speed>
  <fix>3d</fix>
</trkpt>
<trkpt lat="40.0713749" lon="-105.229789">
  <ele>1583.0</ele>
  <time>2026-08-28T17:50:42Z</time>
  <course>0.0</course>
  <speed>0.0</speed>
  <fix>3d</fix>
</trkpt>
<trkpt lat="40.071375" lon="-105.229789">
  <ele>1583.0</ele>
  <time>2026-08-28T17:50:42Z</time>
  <course>247.23</course>
  <speed>0.02</speed>
  <fix>3d</fix>
</trkpt>
<trkpt lat="40.0713749" lon="-105.229789">
  <ele>1583.0</ele>
  <time>2026-08-28T17:50:42Z</time>
  <course>0.0</course>
  <speed>0.0</speed>
  <fix>3d</fix>
</trkpt>
<trkpt lat="40.071375" lon="-105.229789">
  <ele>1583.01</ele>
  <time>2026-08-28T17:50:42Z</time>
  <course>247.23</course>
  <speed>0.02</speed>
  <fix>3d</fix>
</trkpt>
<trkpt lat="40.0713749" lon="-105.229789">
  <ele>1583.0</ele>
  <time>2026-08-28T17:50:42Z</time>
  <course>0.0</course>
  <speed>0.0</speed>
  <fix>3d</fix>
</trkpt>
<trkpt lat="40.071375" lon="-105.229789">
  <ele>1583.01</ele>
  <time>2026-08-28T17:50:42Z</time>
  <course>247.23</course>
  <speed>0.02</speed>
  <fix>3d</fix>
</trkpt>
<trkpt lat="40.0713749" lon="-105.229789">
  <ele>1583.0</ele>
  <time>2026-08-28T17:50:42Z</time>
  <course>0.0</course>
  <speed>0.0</speed>
  <fix>3d</fix>
</trkpt>
<trkpt lat="40.071375" lon="-105.229789">
  <ele>1583.02</ele>
  <time>2026-08-28T17:50:42Z</time>
  <course>247.23</course>
  <speed>0.02</speed>
  <fix>3d</fix>
</trkpt>
<trkpt lat="40.0713749" lon="-105.229789">
  <ele>1583.0</ele>
  <time>2026-08-28T17:50:42Z</time>
  <course>0.0</course>
  <speed>0.0</speed>
  <fix>3d</fix>
</trkpt>
<trkpt lat="40.071375" lon="-105.229789">
  <ele>1583.02</ele>
  <time>2026-08-28T17:50:42Z</time>
  <course>247.23</course>
  <speed>0.02</speed>
  <fix>3d</fix>
</trkpt>
<trkpt lat="40.0713749" lon="-105.229789">
  <ele>1583.0</ele>
  <time>2026-08-28T17:50:42Z</time>
  <course>0.0</course>
  <speed>0.0</speed>
  <fix>3d</fix>
</trkpt>
<trkpt lat="40.071375" lon="-105.229789">
  <ele>1583.03</ele>
  <time>2026-08-28T17:50:42Z</time>
  <course>247.23</course>
  <speed>0.02</speed>
  <fix>3d</fix>
</trkpt>
<trkpt lat="40.0713749" lon="-105.229789">
  <ele>1583.0</ele>
  <time>2026-08-28T17:50:42Z</time>
  <course>0.0</course>
  <speed>0.0</speed>
  <fix>3d</fix>
</trkpt>
<trkpt lat="40.071375" lon="-105.229789">
  <ele>1583.03</ele>
  <time>2026-08-28T17:50:42Z</time>
  <course>247.23</course>
  <speed>0.02</speed>
  <fix>3d</fix>
</trkpt>
<trkpt lat="40.0713749" lon="-105.229789">
  <ele>1583.0</ele>
  <time>2026-08-28T17:50:42Z</time>
  <course>0.0</course>
  <speed>0.0</speed>
  <fix>3d</fix>
</trkpt>
<trkpt lat="40.071375" lon="-105.229789">
  <ele>1583.03</ele>
  <time>2026-08-28T17:50:42Z</time>
  <course>247.23</course>
  <speed>0.02</speed>
  <fix>3d</fix>
</trkpt>
<trkpt lat="40.0713749" lon="-105.229789">
  <ele>1583.0</ele>
  <time>2026-08-28T17:50:42Z</time>
  <course>0.0</course>
  <speed>0.0</speed>
  <fix>3d</fix>
</trkpt>
<trkpt lat="40.071375" lon="-105.229789">
  <ele>1583.03</ele>
  <time>2026-08-28T17:50:42Z</time>
  <course>247.23</course>
  <speed>0.02</speed>
  <fix>3d</fix>
</trkpt>
<trkpt lat="40.0713749" lon="-105.229789">
  <ele>1583.0</ele>
  <time>2026-08-28T17:50:42Z</time>
  <course>0.0</course>
  <speed>0.0</speed>
  <fix>3d</fix>
</trkpt>
<trkpt lat="40.071375" lon="-105.2297889">
  <ele>1583.03</ele>
  <time>2026-08-28T17:50:42Z</time>
  <course>247.22</course>
  <speed>0.02</speed>
  <fix>3d</fix>
</trkpt>
<trkpt lat="40.0713749" lon="-105.229789">
  <ele>1583.0</ele>
  <time>2026-08-28T17:50:42Z</time>
  <course>0.0</course>
  <speed>0.0</speed>
  <fix>3d</fix>
</trkpt>
<trkpt lat="40.071375" lon="-105.229789">
  <ele>1583.03</ele>
  <time>2026-08-28T17:50:42Z</time>
  <course>247.22</course>
  <speed>0.02</speed>
  <fix>3d</fix>
</trkpt>
<trkpt lat="40.0713749" lon="-105.229789">
  <ele>1583.0</ele>
  <time>2026-08-28T17:50:42Z</time>
  <course>0.0</course>
  <speed>0.0</speed>
  <fix>3d</fix>
</trkpt>
<trkpt lat="40.071375" lon="-105.2297889">
  <ele>1583.03</ele>
  <time>2026-08-28T17:50:42Z</time>
  <course>247.22</course>
  <speed>0.02</speed>
  <fix>3d</fix>
</trkpt>
<trkpt lat="40.0713749" lon="-105.229789">
  <ele>1583.0</ele>
  <time>2026-08-28T17:50:42Z</time>
  <course>0.0</course>
  <speed>0.0</speed>
  <fix>3d</fix>
</trkpt>
<trkpt lat="40.071375" lon="-105.229789">
  <ele>1583.03</ele>
  <time>2026-08-28T17:50:42Z</time>
  <course>247.22</course>
  <speed>0.02</speed>
  <fix>3d</fix>
</trkpt>
<trkpt lat="40.0713749" lon="-105.229789">
  <ele>1583.0</ele>
  <time>2026-08-28T17:50:42Z</time>
  <course>0.0</course>
  <speed>0.0</speed>
  <fix>3d</fix>
</trkpt>
<trkpt lat="40.071375" lon="-105.2297889">
  <ele>1583.02</ele>
  <time>2026-08-28T17:50:42Z</time>
  <course>247.22</course>
  <speed>0.02</speed>
  <fix>3d</fix>
</trkpt>
<trkpt lat="40.0713749" lon="-105.229789">
  <ele>1583.0</ele>
  <time>2026-08-28T17:50:42Z</time>
  <course>0.0</course>
  <speed>0.0</speed>
  <fix>3d</fix>
</trkpt>
<trkpt lat="40.071375" lon="-105.229789">
  <ele>1583.02</ele>
  <time>2026-08-28T17:50:42Z</time>
  <course>247.22</course>
  <speed>0.02</speed>
  <fix>3d</fix>
</trkpt>
<trkpt lat="40.0713749" lon="-105.229789">
  <ele>1583.0</ele>
  <time>2026-08-28T17:50:42Z</time>
  <course>0.0</course>
  <speed>0.0</speed>
  <fix>3d</fix>
</trkpt>
<trkpt lat="40.071375" lon="-105.2297889">
  <ele>1583.01</ele>
  <time>2026-08-28T17:50:42Z</time>
  <course>247.22</course>
  <speed>0.02</speed>
  <fix>3d</fix>
</trkpt>
<trkpt lat="40.0713749" lon="-105.229789">
  <ele>1583.0</ele>
  <time>2026-08-28T17:50:42Z</time>
  <course>0.0</course>
  <speed>0.0</speed>
  <fix>3d</fix>
</trkpt>
<trkpt lat="40.071375" lon="-105.229789">
  <ele>1583.01</ele>
  <time>2026-08-28T17:50:42Z</time>
  <course>247.22</course>
  <speed>0.02</speed>
  <fix>3d</fix>
</trkpt>
<trkpt lat="40.0713749" lon="-105.229789">
  <ele>1583.0</ele>
  <time>2026-08-28T17:50:42Z</time>
  <course>0.0</course>
  <speed>0.0</speed>
  <fix>3d</fix>
</trkpt>
<trkpt lat="40.071375" lon="-105.2297889">
  <ele>1583.0</ele>
  <time>2026-08-28T17:50:42Z</time>
  <course>247.22</course>
  <speed>0.02</speed>
  <fix>3d</fix>
</trkpt>
<trkpt lat="40.0713749" lon="-105.229789">
  <ele>1583.0</ele>
  <time>2026-08-28T17:50:42Z</time>
  <course>0.0</course>
  <speed>0.0</speed>
  <fix>3d</fix>
</trkpt>
<trkpt lat="40.071375" lon="-105.229789">
  <ele>1583.0</ele>
  <time>2026-08-28T17:50:42Z</time>
  <course>247.22</course>
  <speed>0.02</speed>
  <fix>3d</fix>
</trkpt>
<trkpt lat="40.0713749" lon="-105.229789">
  <ele>1583.0</ele>
  <time>2026-08-28T17:50:42Z</time>
  <course>0.0</course>
  <speed>0.0</speed>
  <fix>3d</fix>
</trkpt>
<trkpt lat="40.071375" lon="-105.2297889">
  <ele>1583.0</ele>
  <time>2026-08-28T17:50:42Z</time>
  <course>247.22</course>
  <speed>0.02</speed>
  <fix>3d</fix>
</trkpt>
<trkpt lat="40.0713749" lon="-105.229789">
  <ele>1583.0</ele>
  <time>2026-08-28T17:50:42Z</time>
  <course>0.0</course>
  <speed>0.0</speed>
  <fix>3d</fix>
</trkpt>
<trkpt lat="40.071375" lon="-105.229789">
  <ele>1583.0</ele>
  <time>2026-08-28T17:50:42Z</time>
  <course>247.21</course>
  <speed>0.02</speed>
  <fix>3d</fix>
</trkpt>
<trkpt lat="40.0713749" lon="-105.229789">
  <ele>1583.0</ele>
  <time>2026-08-28T17:50:42Z</time>
  <course>0.0</course>
  <speed>0.0</speed>
  <fix>3d</fix>
</trkpt>
<trkpt lat="40.071375" lon="-105.2297889">
  <ele>1583.0</ele>
  <time>2026-08-28T17:50:42Z</time>
  <course>247.21</course>
  <speed>0.02</speed>
  <fix>3d</fix>
</trkpt>
<trkpt lat="40.0713749" lon="-105.229789">
  <ele>1583.0</ele>
  <time>2026-08-28T17:50:42Z</time>
  <course>0.0</course>
  <speed>0.0</speed>
  <fix>3d</fix>
</trkpt>
<trkpt lat="40.071375" lon="-105.229789">
  <ele>1583.0</ele>
  <time>2026-08-28T17:50:42Z</time>
  <course>247.21</course>
  <speed>0.02</speed>
  <fix>3d</fix>
</trkpt>
<trkpt lat="40.0713749" lon="-105.229789">
  <ele>1583.0</ele>
  <time>2026-08-28T17:50:42Z</time>
  <course>0.0</course>
  <speed>0.0</speed>
  <fix>3d</fix>
</trkpt>
<trkpt lat="40.071375" lon="-105.2297889">
  <ele>1583.0</ele>
  <time>2026-08-28T17:50:42Z</time>
  <course>247.21</course>
  <speed>0.02</speed>
  <fix>3d</fix>
</trkpt>
<trkpt lat="40.0713749" lon="-105.229789">
  <ele>1583.0</ele>
  <time>2026-08-28T17:50:42Z</time>
  <course>0.0</course>
  <speed>0.0</speed>
  <fix>3d</fix>
</trkpt>
<trkpt lat="40.071375" lon="-105.229789">
  <ele>1582.99</ele>
  <time>2026-08-28T17:50:42Z</time>
  <course>247.21</course>
  <speed>0.02</speed>
  <fix>3d</fix>
</trkpt>
<trkpt lat="40.0713749" lon="-105.229789">
  <ele>1583.0</ele>
  <time>2026-08-28T17:50:42Z</time>
  <course>0.0</course>
  <speed>0.0</speed>
  <fix>3d</fix>
</trkpt>
<trkpt lat="40.071375" lon="-105.2297889">
  <ele>1582.99</ele>
  <time>2026-08-28T17:50:42Z</time>
  <course>247.21</course>
  <speed>0.02</speed>
  <fix>3d</fix>
</trkpt>
<trkpt lat="40.0713749" lon="-105.229789">
  <ele>1583.0</ele>
  <time>2026-08-28T17:50:42Z</time>
  <course>0.0</course>
  <speed>0.0</speed>
  <fix>3d</fix>
</trkpt>
<trkpt lat="40.071375" lon="-105.229789">
  <ele>1582.99</ele>
  <time>2026-08-28T17:50:42Z</time>
  <course>247.21</course>
  <speed>0.02</speed>
  <fix>3d</fix>
</trkpt>
<trkpt lat="40.0713749" lon="-105.229789">
  <ele>1583.0</ele>
  <time>2026-08-28T17:50:42Z</time>
  <course>0.0</course>
  <speed>0.0</speed>
  <fix>3d</fix>
</trkpt>
<trkpt lat="40.071375" lon="-105.2297889">
  <ele>1582.98</ele>
  <time>2026-08-28T17:50:42Z</time>
  <course>247.21</course>
  <speed>0.022360679774997897</speed>
  <fix>3d</fix>
</trkpt>
<trkpt lat="40.0713749" lon="-105.229789">
  <ele>1583.0</ele>
  <time>2026-08-28T17:50:42Z</time>
  <course>0.0</course>
  <speed>0.0</speed>
  <fix>3d</fix>
</trkpt>
<trkpt lat="40.071375" lon="-105.2297889">
  <ele>1582.98</ele>
  <time>2026-08-28T17:50:42Z</time>
  <course>247.21</course>
  <speed>0.02</speed>
  <fix>3d</fix>
</trkpt>
<trkpt lat="40.0713749" lon="-105.229789">
  <ele>1583.0</ele>
  <time>2026-08-28T17:50:42Z</time>
  <course>0.0</course>
  <speed>0.0</speed>
  <fix>3d</fix>
</trkpt>
<trkpt lat="40.071375" lon="-105.2297889">
  <ele>1582.98</ele>
  <time>2026-08-28T17:50:42Z</time>
  <course>247.21</course>
  <speed>0.022360679774997897</speed>
  <fix>3d</fix>
</trkpt>
<trkpt lat="40.0713749" lon="-105.229789">
  <ele>1583.0</ele>
  <time>2026-08-28T17:50:42Z</time>
  <course>0.0</course>
  <speed>0.0</speed>
  <fix>3d</fix>
</trkpt>
<trkpt lat="40.071375" lon="-105.2297889">
  <ele>1582.97</ele>
  <time>2026-08-28T17:50:42Z</time>
  <course>247.2</course>
  <speed>0.022360679774997897</speed>
  <fix>3d</fix>
</trkpt>
<trkpt lat="40.0713749" lon="-105.229789">
  <ele>1583.0</ele>
  <time>2026-08-28T17:50:42Z</time>
  <course>0.0</course>
  <speed>0.0</speed>
  <fix>3d</fix>
</trkpt>
<trkpt lat="40.071375" lon="-105.2297889">
  <ele>1582.97</ele>
  <time>2026-08-28T17:50:42Z</time>
  <course>247.2</course>
  <speed>0.022360679774997897</speed>
  <fix>3d</fix>
</trkpt>
<trkpt lat="40.0713749" lon="-105.229789">
  <ele>1583.0</ele>
  <time>2026-08-28T17:50:42Z</time>
  <course>0.0</course>
  <speed>0.0</speed>
  <fix>3d</fix>
</trkpt>
<trkpt lat="40.071375" lon="-105.2297889">
  <ele>1582.97</ele>
  <time>2026-08-28T17:50:42Z</time>
  <course>247.2</course>
  <speed>0.022360679774997897</speed>
  <fix>3d</fix>
</trkpt>
<trkpt lat="40.0713749" lon="-105.229789">
  <ele>1583.0</ele>
  <time>2026-08-28T17:50:42Z</time>
  <course>0.0</course>
  <speed>0.0</speed>
  <fix>3d</fix>
</trkpt>
<trkpt lat="40.071375" lon="-105.2297889">
  <ele>1582.97</ele>
  <time>2026-08-28T17:50:42Z</time>
  <course>247.2</course>
  <speed>0.022360679774997897</speed>
  <fix>3d</fix>
</trkpt>
<trkpt lat="40.0713749" lon="-105.229789">
  <ele>1583.0</ele>
  <time>2026-08-28T17:50:42Z</time>
  <course>0.0</course>
  <speed>0.0</speed>
  <fix>3d</fix>
</trkpt>
<trkpt lat="40.071375" lon="-105.2297889">
  <ele>1582.97</ele>
  <time>2026-08-28T17:50:42Z</time>
  <course>247.2</course>
  <speed>0.02</speed>
  <fix>3d</fix>
</trkpt>
<trkpt lat="40.0713749" lon="-105.229789">
  <ele>1583.0</ele>
  <time>2026-08-28T17:50:42Z</time>
  <course>0.0</course>
  <speed>0.0</speed>
  <fix>3d</fix>
</trkpt>
<trkpt lat="40.071375" lon="-105.2297889">
  <ele>1582.97</ele>
  <time>2026-08-28T17:50:42Z</time>
  <course>247.2</course>
  <speed>0.022360679774997897</speed>
  <fix>3d</fix>
</trkpt>
<trkpt lat="40.0713749" lon="-105.229789">
  <ele>1583.0</ele>
  <time>2026-08-28T17:50:42Z</time>
  <course>0.0</course>
  <speed>0.0</speed>
  <fix>3d</fix>
</trkpt>
<trkpt lat="40.071375" lon="-105.2297889">
  <ele>1582.97</ele>
  <time>2026-08-28T17:50:42Z</time>
  <course>247.2</course>
  <speed>0.022360679774997897</speed>
  <fix>3d</fix>
</trkpt>
<trkpt lat="40.0713749" lon="-105.229789">
  <ele>1583.0</ele>
  <time>2026-08-28T17:50:42Z</time>
  <course>0.0</course>
  <speed>0.0</speed>
  <fix>3d</fix>
</trkpt>
<trkpt lat="40.071375" lon="-105.2297889">
  <ele>1582.98</ele>
  <time>2026-08-28T17:50:42Z</time>
  <course>247.2</course>
  <speed>0.022360679774997897</speed>
  <fix>3d</fix>
</trkpt>
<trkpt lat="40.0713749" lon="-105.229789">
  <ele>1583.0</ele>
  <time>2026-08-28T17:50:42Z</time>
  <course>0.0</course>
  <speed>0.0</speed>
  <fix>3d</fix>
</trkpt>
<trkpt lat="40.071375" lon="-105.2297889">
  <ele>1582.98</ele>
  <time>2026-08-28T17:50:42Z</time>
  <course>247.2</course>
  <speed>0.022360679774997897</speed>
  <fix>3d</fix>
</trkpt>
<trkpt lat="40.0713749" lon="-105.229789">
  <ele>1583.0</ele>
  <time>2026-08-28T17:50:42Z</time>
  <course>0.0</course>
  <speed>0.0</speed>
  <fix>3d</fix>
</trkpt>
<trkpt lat="40.071375" lon="-105.2297889">
  <ele>1582.98</ele>
  <time>2026-08-28T17:50:42Z</time>
  <course>247.2</course>
  <speed>0.022360679774997897</speed>
  <fix>3d</fix>
</trkpt>
<trkpt lat="40.0713749" lon="-105.229789">
  <ele>1583.0</ele>
  <time>2026-08-28T17:50:42Z</time>
  <course>0.0</course>
  <speed>0.0</speed>
  <fix>3d</fix>
</trkpt>
<trkpt lat="40.071375" lon="-105.2297889">
  <ele>1582.98</ele>
  <time>2026-08-28T17:50:42Z</time>
  <course>247.2</course>
  <speed>0.022360679774997897</speed>
  <fix>3d</fix>
</trkpt>
<trkpt lat="40.0713749" lon="-105.229789">
  <ele>1583.0</ele>
  <time>2026-08-28T17:50:42Z</time>
  <course>0.0</course>
  <speed>0.0</speed>
  <fix>3d</fix>
</trkpt>
<trkpt lat="40.071375" lon="-105.2297889">
  <ele>1582.98</ele>
  <time>2026-08-28T17:50:42Z</time>
  <course>247.2</course>
  <speed>0.022360679774997897</speed>
  <fix>3d</fix>
</trkpt>
<trkpt lat="40.0713749" lon="-105.229789">
  <ele>1583.0</ele>
  <time>2026-08-28T17:50:42Z</time>
  <course>0.0</course>
  <speed>0.0</speed>
  <fix>3d</fix>
</trkpt>
<trkpt lat="40.071375" lon="-105.2297889">
  <ele>1582.99</ele>
  <time>2026-08-28T17:50:42Z</time>
  <course>247.19</course>
  <speed>0.022360679774997897</speed>
  <fix>3d</fix>
</trkpt>
<trkpt lat="40.0713749" lon="-105.229789">
  <ele>1583.0</ele>
  <time>2026-08-28T17:50:42Z</time>
  <course>0.0</course>
  <speed>0.0</speed>
  <fix>3d</fix>
</trkpt>
<trkpt lat="40.071375" lon="-105.2297889">
  <ele>1582.99</ele>
  <time>2026-08-28T17:50:42Z</time>
  <course>247.19</course>
  <speed>0.022360679774997897</speed>
  <fix>3d</fix>
</trkpt>
<trkpt lat="40.0713749" lon="-105.229789">
  <ele>1583.0</ele>
  <time>2026-08-28T17:50:42Z</time>
  <course>0.0</course>
  <speed>0.0</speed>
  <fix>3d</fix>
</trkpt>
<trkpt lat="40.071375" lon="-105.2297889">
  <ele>1582.99</ele>
  <time>2026-08-28T17:50:42Z</time>
  <course>247.19</course>
  <speed>0.022360679774997897</speed>
  <fix>3d</fix>
</trkpt>
<trkpt lat="40.0713749" lon="-105.229789">
  <ele>1583.0</ele>
  <time>2026-08-28T17:50:42Z</time>
  <course>0.0</course>
  <speed>0.0</speed>
  <fix>3d</fix>
</trkpt>
<trkpt lat="40.071375" lon="-105.2297889">
  <ele>1583.0</ele>
  <time>2026-08-28T17:50:42Z</time>
  <course>247.19</course>
  <speed>0.022360679774997897</speed>
  <fix>3d</fix>
</trkpt>
<trkpt lat="40.0713749" lon="-105.229789">
  <ele>1583.0</ele>
  <time>2026-08-28T17:50:42Z</time>
  <course>0.0</course>
  <speed>0.0</speed>
  <fix>3d</fix>
</trkpt>
<trkpt lat="40.071375" lon="-105.2297889">
  <ele>1583.0</ele>
  <time>2026-08-28T17:50:42Z</time>
  <course>247.19</course>
  <speed>0.022360679774997897</speed>
  <fix>3d</fix>
</trkpt>
<trkpt lat="40.0713749" lon="-105.229789">
  <ele>1583.0</ele>
  <time>2026-08-28T17:50:42Z</time>
  <course>0.0</course>
  <speed>0.0</speed>
  <fix>3d</fix>
</trkpt>
<trkpt lat="40.071375" lon="-105.2297889">
  <ele>1583.01</ele>
  <time>2026-08-28T17:50:42Z</time>
  <course>247.19</course>
  <speed>0.022360679774997897</speed>
  <fix>3d</fix>
</trkpt>
<trkpt lat="40.0713749" lon="-105.229789">
  <ele>1583.0</ele>
  <time>2026-08-28T17:50:42Z</time>
  <course>0.0</course>
  <speed>0.0</speed>
  <fix>3d</fix>
</trkpt>
<trkpt lat="40.071375" lon="-105.2297889">
  <ele>1583.01</ele>
  <time>2026-08-28T17:50:42Z</time>
  <course>247.19</course>
  <speed>0.022360679774997897</speed>
  <fix>3d</fix>
</trkpt>
<trkpt lat="40.0713749" lon="-105.229789">
  <ele>1583.0</ele>
  <time>2026-08-28T17:50:42Z</time>
  <course>0.0</course>
  <speed>0.0</speed>
  <fix>3d</fix>
</trkpt>
<trkpt lat="40.071375" lon="-105.2297889">
  <ele>1583.02</ele>
  <time>2026-08-28T17:50:42Z</time>
  <course>247.19</course>
  <speed>0.022360679774997897</speed>
  <fix>3d</fix>
</trkpt>
<trkpt lat="40.0713749" lon="-105.229789">
  <ele>1583.0</ele>
  <time>2026-08-28T17:50:42Z</time>
  <course>0.0</course>
  <speed>0.0</speed>
  <fix>3d</fix>
</trkpt>
<trkpt lat="40.071375" lon="-105.2297889">
  <ele>1583.03</ele>
  <time>2026-08-28T17:50:42Z</time>
  <course>247.19</course>
  <speed>0.022360679774997897</speed>
  <fix>3d</fix>
</trkpt>
<trkpt lat="40.0713749" lon="-105.229789">
  <ele>1583.0</ele>
  <time>2026-08-28T17:50:42Z</time>
  <course>0.0</course>
  <speed>0.0</speed>
  <fix>3d</fix>
</trkpt>
<trkpt lat="40.071375" lon="-105.2297889">
  <ele>1583.03</ele>
  <time>2026-08-28T17:50:42Z</time>
  <course>247.19</course>
  <speed>0.022360679774997897</speed>
  <fix>3d</fix>
</trkpt>
<trkpt lat="40.0713749" lon="-105.229789">
  <ele>1583.0</ele>
  <time>2026-08-28T17:50:42Z</time>
  <course>0.0</course>
  <speed>0.0</speed>
  <fix>3d</fix>
</trkpt>
<trkpt lat="40.071375" lon="-105.2297889">
  <ele>1583.03</ele>
  <time>2026-08-28T17:50:42Z</time>
  <course>247.19</course>
  <speed>0.022360679774997897</speed>
  <fix>3d</fix>
</trkpt>
<trkpt lat="40.0713749" lon="-105.229789">
  <ele>1583.0</ele>
  <time>2026-08-28T17:50:42Z</time>
  <course>0.0</course>
  <speed>0.0</speed>
  <fix>3d</fix>
</trkpt>
<trkpt lat="40.071375" lon="-105.2297889">
  <ele>1583.03</ele>
  <time>2026-08-28T17:50:42Z</time>
  <course>247.19</course>
  <speed>0.022360679774997897</speed>
  <fix>3d</fix>
</trkpt>
<trkpt lat="40.0713749" lon="-105.229789">
  <ele>1583.0</ele>
  <time>2026-08-28T17:50:42Z</time>
  <course>0.0</course>
  <speed>0.0</speed>
  <fix>3d</fix>
</trkpt>
<trkpt lat="40.071375" lon="-105.2297889">
  <ele>1583.03</ele>
  <time>2026-08-28T17:50:42Z</time>
  <course>247.19</course>
  <speed>0.022360679774997897</speed>
  <fix>3d</fix>
</trkpt>
<trkpt lat="40.0713749" lon="-105.229789">
  <ele>1583.0</ele>
  <time>2026-08-28T17:50:42Z</time>
  <course>0.0</course>
  <speed>0.0</speed>
  <fix>3d</fix>
</trkpt>
<trkpt lat="40.071375" lon="-105.2297889">
  <ele>1583.03</ele>
  <time>2026-08-28T17:50:42Z</time>
  <course>247.18</course>
  <speed>0.022360679774997897</speed>
  <fix>3d</fix>
</trkpt>
<trkpt lat="40.0713749" lon="-105.229789">
  <ele>1583.0</ele>
  <time>2026-08-28T17:50:42Z</time>
  <course>0.0</course>
  <speed>0.0</speed>
  <fix>3d</fix>
</trkpt>
<trkpt lat="40.071375" lon="-105.2297889">
  <ele>1583.02</ele>
  <time>2026-08-28T17:50:42Z</time>
  <course>247.18</course>
  <speed>0.022360679774997897</speed>
  <fix>3d</fix>
</trkpt>
<trkpt lat="40.0713749" lon="-105.229789">
  <ele>1583.0</ele>
  <time>2026-08-28T17:50:42Z</time>
  <course>0.0</course>
  <speed>0.0</speed>
  <fix>3d</fix>
</trkpt>
<trkpt lat="40.071375" lon="-105.2297889">
  <ele>1583.02</ele>
  <time>2026-08-28T17:50:42Z</time>
  <course>247.18</course>
  <speed>0.022360679774997897</speed>
  <fix>3d</fix>
</trkpt>
<trkpt lat="40.0713749" lon="-105.229789">
  <ele>1583.0</ele>
  <time>2026-08-28T17:50:42Z</time>
  <course>0.0</course>
  <speed>0.0</speed>
  <fix>3d</fix>
</trkpt>
<trkpt lat="40.071375" lon="-105.2297889">
  <ele>1583.02</ele>
  <time>2026-08-28T17:50:42Z</time>
  <course>247.18</course>
  <speed>0.022360679774997897</speed>
  <fix>3d</fix>
</trkpt>
<trkpt lat="40.0713749" lon="-105.229789">
  <ele>1583.0</ele>
  <time>2026-08-28T17:50:42Z</time>
  <course>0.0</course>
  <speed>0.0</speed>
  <fix>3d</fix>
</trkpt>
<trkpt lat="40.071375" lon="-105.2297889">
  <ele>1583.01</ele>
  <time>2026-08-28T17:50:42Z</time>
  <course>247.18</course>
  <speed>0.022360679774997897</speed>
  <fix>3d</fix>
</trkpt>
<trkpt lat="40.0713749" lon="-105.229789">
  <ele>1583.0</ele>
  <time>2026-08-28T17:50:42Z</time>
  <course>0.0</course>
  <speed>0.0</speed>
  <fix>3d</fix>
</trkpt>
<trkpt lat="40.071375" lon="-105.2297889">
  <ele>1583.01</ele>
  <time>2026-08-28T17:50:42Z</time>
  <course>247.18</course>
  <speed>0.022360679774997897</speed>
  <fix>3d</fix>
</trkpt>
<trkpt lat="40.0713749" lon="-105.229789">
  <ele>1583.0</ele>
  <time>2026-08-28T17:50:42Z</time>
  <course>0.0</course>
  <speed>0.0</speed>
  <fix>3d</fix>
</trkpt>
<trkpt lat="40.071375" lon="-105.2297889">
  <ele>1583.01</ele>
  <time>2026-08-28T17:50:42Z</time>
  <course>247.18</course>
  <speed>0.022360679774997897</speed>
  <fix>3d</fix>
</trkpt>
<trkpt lat="40.0713749" lon="-105.229789">
  <ele>1583.0</ele>
  <time>2026-08-28T17:50:42Z</time>
  <course>0.0</course>
  <speed>0.0</speed>
  <fix>3d</fix>
</trkpt>
<trkpt lat="40.071375" lon="-105.2297889">
  <ele>1583.0</ele>
  <time>2026-08-28T17:50:42Z</time>
  <course>247.18</course>
  <speed>0.022360679774997897</speed>
  <fix>3d</fix>
</trkpt>
<trkpt lat="40.0713749" lon="-105.229789">
  <ele>1583.0</ele>
  <time>2026-08-28T17:50:42Z</time>
  <course>0.0</course>
  <speed>0.0</speed>
  <fix>3d</fix>
</trkpt>
<trkpt lat="40.071375" lon="-105.2297889">
  <ele>1583.0</ele>
  <time>2026-08-28T17:50:42Z</time>
  <course>247.18</course>
  <speed>0.022360679774997897</speed>
  <fix>3d</fix>
</trkpt>
<trkpt lat="40.0713749" lon="-105.229789">
  <ele>1583.0</ele>
  <time>2026-08-28T17:50:42Z</time>
  <course>0.0</course>
  <speed>0.0</speed>
  <fix>3d</fix>
</trkpt>
<trkpt lat="40.071375" lon="-105.2297889">
  <ele>1582.99</ele>
  <time>2026-08-28T17:50:42Z</time>
  <course>247.18</course>
  <speed>0.022360679774997897</speed>
  <fix>3d</fix>
</trkpt>
<trkpt lat="40.0713749" lon="-105.229789">
  <ele>1583.0</ele>
  <time>2026-08-28T17:50:42Z</time>
  <course>0.0</course>
  <speed>0.0</speed>
  <fix>3d</fix>
</trkpt>
<trkpt lat="40.071375" lon="-105.2297889">
  <ele>1582.98</ele>
  <time>2026-08-28T17:50:42Z</time>
  <course>247.18</course>
  <speed>0.022360679774997897</speed>
  <fix>3d</fix>
</trkpt>
<trkpt lat="40.0713749" lon="-105.229789">
  <ele>1583.0</ele>
  <time>2026-08-28T17:50:42Z</time>
  <course>0.0</course>
  <speed>0.0</speed>
  <fix>3d</fix>
</trkpt>
<trkpt lat="40.071375" lon="-105.2297889">
  <ele>1582.97</ele>
  <time>2026-08-28T17:50:42Z</time>
  <course>247.18</course>
  <speed>0.022360679774997897</speed>
  <fix>3d</fix>
</trkpt>
<trkpt lat="40.0713749" lon="-105.229789">
  <ele>1583.0</ele>
  <time>2026-08-28T17:50:42Z</time>
  <course>0.0</course>
  <speed>0.0</speed>
  <fix>3d</fix>
</trkpt>
<trkpt lat="40.071375" lon="-105.2297889">
  <ele>1582.97</ele>
  <time>2026-08-28T17:50:42Z</time>
  <course>247.18</course>
  <speed>0.022360679774997897</speed>
  <fix>3d</fix>
</trkpt>
<trkpt lat="40.0713749" lon="-105.229789">
  <ele>1583.0</ele>
  <time>2026-08-28T17:50:42Z</time>
  <course>0.0</course>
  <speed>0.0</speed>
  <fix>3d</fix>
</trkpt>
<trkpt lat="40.071375" lon="-105.2297889">
  <ele>1582.96</ele>
  <time>2026-08-28T17:50:42Z</time>
  <course>247.18</course>
  <speed>0.022360679774997897</speed>
  <fix>3d</fix>
</trkpt>
<trkpt lat="40.0713749" lon="-105.229789">
  <ele>1583.0</ele>
  <time>2026-08-28T17:50:42Z</time>
  <course>0.0</course>
  <speed>0.0</speed>
  <fix>3d</fix>
</trkpt>
<trkpt lat="40.071375" lon="-105.2297889">
  <ele>1582.96</ele>
  <time>2026-08-28T17:50:42Z</time>
  <course>247.17</course>
  <speed>0.022360679774997897</speed>
  <fix>3d</fix>
</trkpt>
<trkpt lat="40.0713749" lon="-105.229789">
  <ele>1583.0</ele>
  <time>2026-08-28T17:50:42Z</time>
  <course>0.0</course>
  <speed>0.0</speed>
  <fix>3d</fix>
</trkpt>
<trkpt lat="40.071375" lon="-105.2297889">
  <ele>1582.96</ele>
  <time>2026-08-28T17:50:42Z</time>
  <course>247.17</course>
  <speed>0.022360679774997897</speed>
  <fix>3d</fix>
</trkpt>
<trkpt lat="40.0713749" lon="-105.229789">
  <ele>1583.0</ele>
  <time>2026-08-28T17:50:42Z</time>
  <course>0.0</course>
  <speed>0.0</speed>
  <fix>3d</fix>
</trkpt>
<trkpt lat="40.071375" lon="-105.2297889">
  <ele>1582.96</ele>
  <time>2026-08-28T17:50:42Z</time>
  <course>247.17</course>
  <speed>0.022360679774997897</speed>
  <fix>3d</fix>
</trkpt>
<trkpt lat="40.0713749" lon="-105.229789">
  <ele>1583.0</ele>
  <time>2026-08-28T17:50:42Z</time>
  <course>0.0</course>
  <speed>0.0</speed>
  <fix>3d</fix>
</trkpt>
<trkpt lat="40.071375" lon="-105.2297889">
  <ele>1582.96</ele>
  <time>2026-08-28T17:50:42Z</time>
  <course>247.17</course>
  <speed>0.022360679774997897</speed>
  <fix>3d</fix>
</trkpt>
<trkpt lat="40.0713749" lon="-105.229789">
  <ele>1583.0</ele>
  <time>2026-08-28T17:50:42Z</time>
  <course>0.0</course>
  <speed>0.0</speed>
  <fix>3d</fix>
</trkpt>
<trkpt lat="40.071375" lon="-105.2297889">
  <ele>1582.96</ele>
  <time>2026-08-28T17:50:42Z</time>
  <course>247.17</course>
  <speed>0.022360679774997897</speed>
  <fix>3d</fix>
</trkpt>
<trkpt lat="40.0713749" lon="-105.229789">
  <ele>1583.0</ele>
  <time>2026-08-28T17:50:42Z</time>
  <course>0.0</course>
  <speed>0.0</speed>
  <fix>3d</fix>
</trkpt>
<trkpt lat="40.071375" lon="-105.2297889">
  <ele>1582.96</ele>
  <time>2026-08-28T17:50:42Z</time>
  <course>247.17</course>
  <speed>0.022360679774997897</speed>
  <fix>3d</fix>
</trkpt>
<trkpt lat="40.0713749" lon="-105.229789">
  <ele>1583.0</ele>
  <time>2026-08-28T17:50:42Z</time>
  <course>0.0</course>
  <speed>0.0</speed>
  <fix>3d</fix>
</trkpt>
<trkpt lat="40.071375" lon="-105.2297889">
  <ele>1582.97</ele>
  <time>2026-08-28T17:50:42Z</time>
  <course>247.17</course>
  <speed>0.022360679774997897</speed>
  <fix>3d</fix>
</trkpt>
<trkpt lat="40.0713749" lon="-105.229789">
  <ele>1583.0</ele>
  <time>2026-08-28T17:50:42Z</time>
  <course>0.0</course>
  <speed>0.0</speed>
  <fix>3d</fix>
</trkpt>
<trkpt lat="40.071375" lon="-105.2297889">
  <ele>1582.97</ele>
  <time>2026-08-28T17:50:42Z</time>
  <course>247.17</course>
  <speed>0.022360679774997897</speed>
  <fix>3d</fix>
</trkpt>
<trkpt lat="40.0713749" lon="-105.229789">
  <ele>1583.0</ele>
  <time>2026-08-28T17:50:42Z</time>
  <course>0.0</course>
  <speed>0.0</speed>
  <fix>3d</fix>
</trkpt>
<trkpt lat="40.071375" lon="-105.2297889">
  <ele>1582.98</ele>
  <time>2026-08-28T17:50:42Z</time>
  <course>247.17</course>
  <speed>0.022360679774997897</speed>
  <fix>3d</fix>
</trkpt>
<trkpt lat="40.0713749" lon="-105.229789">
  <ele>1583.0</ele>
  <time>2026-08-28T17:50:42Z</time>
  <course>0.0</course>
  <speed>0.0</speed>
  <fix>3d</fix>
</trkpt>
<trkpt lat="40.071375" lon="-105.2297889">
  <ele>1582.98</ele>
  <time>2026-08-28T17:50:42Z</time>
  <course>247.17</course>
  <speed>0.022360679774997897</speed>
  <fix>3d</fix>
</trkpt>
<trkpt lat="40.0713749" lon="-105.229789">
  <ele>1583.0</ele>
  <time>2026-08-28T17:50:42Z</time>
  <course>0.0</course>
  <speed>0.0</speed>
  <fix>3d</fix>
</trkpt>
<trkpt lat="40.071375" lon="-105.2297889">
  <ele>1582.99</ele>
  <time>2026-08-28T17:50:42Z</time>
  <course>247.17</course>
  <speed>0.022360679774997897</speed>
  <fix>3d</fix>
</trkpt>
<trkpt lat="40.0713749" lon="-105.229789">
  <ele>1583.0</ele>
  <time>2026-08-28T17:50:42Z</time>
  <course>0.0</course>
  <speed>0.0</speed>
  <fix>3d</fix>
</trkpt>
<trkpt lat="40.071375" lon="-105.2297889">
  <ele>1582.99</ele>
  <time>2026-08-28T17:50:42Z</time>
  <course>247.17</course>
  <speed>0.022360679774997897</speed>
  <fix>3d</fix>
</trkpt>
<trkpt lat="40.0713749" lon="-105.229789">
  <ele>1583.0</ele>
  <time>2026-08-28T17:50:42Z</time>
  <course>0.0</course>
  <speed>0.0</speed>
  <fix>3d</fix>
</trkpt>
<trkpt lat="40.071375" lon="-105.2297889">
  <ele>1583.0</ele>
  <time>2026-08-28T17:50:42Z</time>
  <course>247.17</course>
  <speed>0.022360679774997897</speed>
  <fix>3d</fix>
</trkpt>
<trkpt lat="40.0713749" lon="-105.229789">
  <ele>1583.0</ele>
  <time>2026-08-28T17:50:42Z</time>
  <course>0.0</course>
  <speed>0.0</speed>
  <fix>3d</fix>
</trkpt>
<trkpt lat="40.071375" lon="-105.2297889">
  <ele>1583.0</ele>
  <time>2026-08-28T17:50:42Z</time>
  <course>247.17</course>
  <speed>0.022360679774997897</speed>
  <fix>3d</fix>
</trkpt>
<trkpt lat="40.0713749" lon="-105.229789">
  <ele>1583.0</ele>
  <time>2026-08-28T17:50:42Z</time>
  <course>0.0</course>
  <speed>0.0</speed>
  <fix>3d</fix>
</trkpt>
<trkpt lat="40.071375" lon="-105.2297889">
  <ele>1583.0</ele>
  <time>2026-08-28T17:50:42Z</time>
  <course>247.16</course>
  <speed>0.022360679774997897</speed>
  <fix>3d</fix>
</trkpt>
<trkpt lat="40.0713749" lon="-105.229789">
  <ele>1583.0</ele>
  <time>2026-08-28T17:50:42Z</time>
  <course>0.0</course>
  <speed>0.0</speed>
  <fix>3d</fix>
</trkpt>
<trkpt lat="40.071375" lon="-105.2297889">
  <ele>1583.01</ele>
  <time>2026-08-28T17:50:42Z</time>
  <course>247.16</course>
  <speed>0.022360679774997897</speed>
  <fix>3d</fix>
</trkpt>
<trkpt lat="40.0713749" lon="-105.229789">
  <ele>1583.0</ele>
  <time>2026-08-28T17:50:42Z</time>
  <course>0.0</course>
  <speed>0.0</speed>
  <fix>3d</fix>
</trkpt>
<trkpt lat="40.071375" lon="-105.2297889">
  <ele>1583.01</ele>
  <time>2026-08-28T17:50:42Z</time>
  <course>247.16</course>
  <speed>0.022360679774997897</speed>
  <fix>3d</fix>
</trkpt>
<trkpt lat="40.0713749" lon="-105.229789">
  <ele>1583.0</ele>
  <time>2026-08-28T17:50:42Z</time>
  <course>0.0</course>
  <speed>0.0</speed>
  <fix>3d</fix>
</trkpt>
<trkpt lat="40.071375" lon="-105.2297889">
  <ele>1583.01</ele>
  <time>2026-08-28T17:50:42Z</time>
  <course>247.16</course>
  <speed>0.022360679774997897</speed>
  <fix>3d</fix>
</trkpt>
<trkpt lat="40.0713749" lon="-105.229789">
  <ele>1583.0</ele>
  <time>2026-08-28T17:50:42Z</time>
  <course>0.0</course>
  <speed>0.0</speed>
  <fix>3d</fix>
</trkpt>
<trkpt lat="40.071375" lon="-105.2297889">
  <ele>1583.01</ele>
  <time>2026-08-28T17:50:42Z</time>
  <course>247.16</course>
  <speed>0.022360679774997897</speed>
  <fix>3d</fix>
</trkpt>
<trkpt lat="40.0713749" lon="-105.229789">
  <ele>1583.0</ele>
  <time>2026-08-28T17:50:42Z</time>
  <course>0.0</course>
  <speed>0.0</speed>
  <fix>3d</fix>
</trkpt>
<trkpt lat="40.071375" lon="-105.2297889">
  <ele>1583.02</ele>
  <time>2026-08-28T17:50:42Z</time>
  <course>247.16</course>
  <speed>0.022360679774997897</speed>
  <fix>3d</fix>
</trkpt>
<trkpt lat="40.0713749" lon="-105.229789">
  <ele>1583.0</ele>
  <time>2026-08-28T17:50:42Z</time>
  <course>0.0</course>
  <speed>0.0</speed>
  <fix>3d</fix>
</trkpt>
<trkpt lat="40.071375" lon="-105.2297889">
  <ele>1583.02</ele>
  <time>2026-08-28T17:50:42Z</time>
  <course>247.16</course>
  <speed>0.022360679774997897</speed>
  <fix>3d</fix>
</trkpt>
<trkpt lat="40.0713749" lon="-105.229789">
  <ele>1583.0</ele>
  <time>2026-08-28T17:50:42Z</time>
  <course>0.0</course>
  <speed>0.0</speed>
  <fix>3d</fix>
</trkpt>
<trkpt lat="40.071375" lon="-105.2297889">
  <ele>1583.03</ele>
  <time>2026-08-28T17:50:42Z</time>
  <course>247.16</course>
  <speed>0.022360679774997897</speed>
  <fix>3d</fix>
</trkpt>
<trkpt lat="40.0713749" lon="-105.229789">
  <ele>1583.0</ele>
  <time>2026-08-28T17:50:42Z</time>
  <course>0.0</course>
  <speed>0.0</speed>
  <fix>3d</fix>
</trkpt>
<trkpt lat="40.071375" lon="-105.2297889">
  <ele>1583.03</ele>
  <time>2026-08-28T17:50:42Z</time>
  <course>247.16</course>
  <speed>0.022360679774997897</speed>
  <fix>3d</fix>
</trkpt>
<trkpt lat="40.0713749" lon="-105.229789">
  <ele>1583.0</ele>
  <time>2026-08-28T17:50:42Z</time>
  <course>0.0</course>
  <speed>0.0</speed>
  <fix>3d</fix>
</trkpt>
<trkpt lat="40.071375" lon="-105.2297889">
  <ele>1583.03</ele>
  <time>2026-08-28T17:50:42Z</time>
  <course>247.16</course>
  <speed>0.022360679774997897</speed>
  <fix>3d</fix>
</trkpt>
<trkpt lat="40.0713749" lon="-105.229789">
  <ele>1583.0</ele>
  <time>2026-08-28T17:50:42Z</time>
  <course>0.0</course>
  <speed>0.0</speed>
  <fix>3d</fix>
</trkpt>
<trkpt lat="40.071375" lon="-105.2297889">
  <ele>1583.03</ele>
  <time>2026-08-28T17:50:42Z</time>
  <course>247.16</course>
  <speed>0.022360679774997897</speed>
  <fix>3d</fix>
</trkpt>
<trkpt lat="40.0713749" lon="-105.229789">
  <ele>1583.0</ele>
  <time>2026-08-28T17:50:42Z</time>
  <course>0.0</course>
  <speed>0.0</speed>
  <fix>3d</fix>
</trkpt>
<trkpt lat="40.071375" lon="-105.2297889">
  <ele>1583.03</ele>
  <time>2026-08-28T17:50:42Z</time>
  <course>247.16</course>
  <speed>0.022360679774997897</speed>
  <fix>3d</fix>
</trkpt>
<trkpt lat="40.0713749" lon="-105.229789">
  <ele>1583.0</ele>
  <time>2026-08-28T17:50:42Z</time>
  <course>0.0</course>
  <speed>0.0</speed>
  <fix>3d</fix>
</trkpt>
<trkpt lat="40.071375" lon="-105.2297889">
  <ele>1583.03</ele>
  <time>2026-08-28T17:50:42Z</time>
  <course>247.16</course>
  <speed>0.022360679774997897</speed>
  <fix>3d</fix>
</trkpt>
<trkpt lat="40.0713749" lon="-105.229789">
  <ele>1583.0</ele>
  <time>2026-08-28T17:50:42Z</time>
  <course>0.0</course>
  <speed>0.0</speed>
  <fix>3d</fix>
</trkpt>
<trkpt lat="40.071375" lon="-105.2297889">
  <ele>1583.03</ele>
  <time>2026-08-28T17:50:42Z</time>
  <course>247.16</course>
  <speed>0.022360679774997897</speed>
  <fix>3d</fix>
</trkpt>
<trkpt lat="40.0713749" lon="-105.229789">
  <ele>1583.0</ele>
  <time>2026-08-28T17:50:42Z</time>
  <course>0.0</course>
  <speed>0.0</speed>
  <fix>3d</fix>
</trkpt>
<trkpt lat="40.071375" lon="-105.2297889">
  <ele>1583.03</ele>
  <time>2026-08-28T17:50:42Z</time>
  <course>247.16</course>
  <speed>0.022360679774997897</speed>
  <fix>3d</fix>
</trkpt>
<trkpt lat="40.0713749" lon="-105.229789">
  <ele>1583.0</ele>
  <time>2026-08-28T17:50:42Z</time>
  <course>0.0</course>
  <speed>0.0</speed>
  <fix>3d</fix>
</trkpt>
<trkpt lat="40.071375" lon="-105.2297889">
  <ele>1583.03</ele>
  <time>2026-08-28T17:50:42Z</time>
  <course>247.16</course>
  <speed>0.022360679774997897</speed>
  <fix>3d</fix>
</trkpt>
<trkpt lat="40.0713749" lon="-105.229789">
  <ele>1583.0</ele>
  <time>2026-08-28T17:50:42Z</time>
  <course>0.0</course>
  <speed>0.0</speed>
  <fix>3d</fix>
</trkpt>
<trkpt lat="40.071375" lon="-105.2297889">
  <ele>1583.02</ele>
  <time>2026-08-28T17:50:42Z</time>
  <course>247.16</course>
  <speed>0.022360679774997897</speed>
  <fix>3d</fix>
</trkpt>
<trkpt lat="40.0713749" lon="-105.229789">
  <ele>1583.0</ele>
  <time>2026-08-28T17:50:42Z</time>
  <course>0.0</course>
  <speed>0.0</speed>
  <fix>3d</fix>
</trkpt>
<trkpt lat="40.071375" lon="-105.2297889">
  <ele>1583.02</ele>
  <time>2026-08-28T17:50:42Z</time>
  <course>247.16</course>
  <speed>0.022360679774997897</speed>
  <fix>3d</fix>
</trkpt>
<trkpt lat="40.0713749" lon="-105.229789">
  <ele>1583.0</ele>
  <time>2026-08-28T17:50:42Z</time>
  <course>0.0</course>
  <speed>0.0</speed>
  <fix>3d</fix>
</trkpt>
<trkpt lat="40.071375" lon="-105.2297889">
  <ele>1583.01</ele>
  <time>2026-08-28T17:50:42Z</time>
  <course>247.15</course>
  <speed>0.022360679774997897</speed>
  <fix>3d</fix>
</trkpt>
<trkpt lat="40.0713749" lon="-105.229789">
  <ele>1583.0</ele>
  <time>2026-08-28T17:50:42Z</time>
  <course>0.0</course>
  <speed>0.0</speed>
  <fix>3d</fix>
</trkpt>
<trkpt lat="40.071375" lon="-105.2297889">
  <ele>1583.01</ele>
  <time>2026-08-28T17:50:42Z</time>
  <course>247.15</course>
  <speed>0.022360679774997897</speed>
  <fix>3d</fix>
</trkpt>
<trkpt lat="40.0713749" lon="-105.229789">
  <ele>1583.0</ele>
  <time>2026-08-28T17:50:42Z</time>
  <course>0.0</course>
  <speed>0.0</speed>
  <fix>3d</fix>
</trkpt>
<trkpt lat="40.071375" lon="-105.2297889">
  <ele>1583.02</ele>
  <time>2026-08-28T17:50:42Z</time>
  <course>247.15</course>
  <speed>0.022360679774997897</speed>
  <fix>3d</fix>
</trkpt>
<trkpt lat="40.0713749" lon="-105.229789">
  <ele>1583.0</ele>
  <time>2026-08-28T17:50:42Z</time>
  <course>0.0</course>
  <speed>0.0</speed>
  <fix>3d</fix>
</trkpt>
<trkpt lat="40.071375" lon="-105.2297889">
  <ele>1583.02</ele>
  <time>2026-08-28T17:50:42Z</time>
  <course>247.15</course>
  <speed>0.022360679774997897</speed>
  <fix>3d</fix>
</trkpt>
<trkpt lat="40.0713749" lon="-105.229789">
  <ele>1583.0</ele>
  <time>2026-08-28T17:50:42Z</time>
  <course>0.0</course>
  <speed>0.0</speed>
  <fix>3d</fix>
</trkpt>
<trkpt lat="40.071375" lon="-105.2297889">
  <ele>1583.02</ele>
  <time>2026-08-28T17:50:42Z</time>
  <course>247.15</course>
  <speed>0.022360679774997897</speed>
  <fix>3d</fix>
</trkpt>
<trkpt lat="40.0713749" lon="-105.229789">
  <ele>1583.0</ele>
  <time>2026-08-28T17:50:42Z</time>
  <course>0.0</course>
  <speed>0.0</speed>
  <fix>3d</fix>
</trkpt>
<trkpt lat="40.071375" lon="-105.2297889">
  <ele>1583.02</ele>
  <time>2026-08-28T17:50:42Z</time>
  <course>247.15</course>
  <speed>0.022360679774997897</speed>
  <fix>3d</fix>
</trkpt>
<trkpt lat="40.0713749" lon="-105.229789">
  <ele>1583.0</ele>
  <time>2026-08-28T17:50:42Z</time>
  <course>0.0</course>
  <speed>0.0</speed>
  <fix>3d</fix>
</trkpt>
<trkpt lat="40.071375" lon="-105.2297889">
  <ele>1583.02</ele>
  <time>2026-08-28T17:50:42Z</time>
  <course>247.15</course>
  <speed>0.022360679774997897</speed>
  <fix>3d</fix>
</trkpt>
<trkpt lat="40.0713749" lon="-105.229789">
  <ele>1583.0</ele>
  <time>2026-08-28T17:50:42Z</time>
  <course>0.0</course>
  <speed>0.0</speed>
  <fix>3d</fix>
</trkpt>
<trkpt lat="40.071375" lon="-105.2297889">
  <ele>1583.02</ele>
  <time>2026-08-28T17:50:42Z</time>
  <course>247.15</course>
  <speed>0.022360679774997897</speed>
  <fix>3d</fix>
</trkpt>
<trkpt lat="40.0713749" lon="-105.229789">
  <ele>1583.0</ele>
  <time>2026-08-28T17:50:42Z</time>
  <course>0.0</course>
  <speed>0.0</speed>
  <fix>3d</fix>
</trkpt>
<trkpt lat="40.071375" lon="-105.2297889">
  <ele>1583.03</ele>
  <time>2026-08-28T17:50:42Z</time>
  <course>247.15</course>
  <speed>0.022360679774997897</speed>
  <fix>3d</fix>
</trkpt>
<trkpt lat="40.0713749" lon="-105.229789">
  <ele>1583.0</ele>
  <time>2026-08-28T17:50:42Z</time>
  <course>0.0</course>
  <speed>0.0</speed>
  <fix>3d</fix>
</trkpt>
<trkpt lat="40.071375" lon="-105.2297889">
  <ele>1583.03</ele>
  <time>2026-08-28T17:50:42Z</time>
  <course>247.15</course>
  <speed>0.022360679774997897</speed>
  <fix>3d</fix>
</trkpt>
<trkpt lat="40.0713749" lon="-105.229789">
  <ele>1583.0</ele>
  <time>2026-08-28T17:50:42Z</time>
  <course>0.0</course>
  <speed>0.0</speed>
  <fix>3d</fix>
</trkpt>
<trkpt lat="40.071375" lon="-105.2297889">
  <ele>1583.03</ele>
  <time>2026-08-28T17:50:42Z</time>
  <course>247.15</course>
  <speed>0.022360679774997897</speed>
  <fix>3d</fix>
</trkpt>
<trkpt lat="40.0713749" lon="-105.229789">
  <ele>1583.0</ele>
  <time>2026-08-28T17:50:42Z</time>
  <course>0.0</course>
  <speed>0.0</speed>
  <fix>3d</fix>
</trkpt>
<trkpt lat="40.071375" lon="-105.2297889">
  <ele>1583.04</ele>
  <time>2026-08-28T17:50:42Z</time>
  <course>247.15</course>
  <speed>0.022360679774997897</speed>
  <fix>3d</fix>
</trkpt>
<trkpt lat="40.0713749" lon="-105.229789">
  <ele>1583.0</ele>
  <time>2026-08-28T17:50:42Z</time>
  <course>0.0</course>
  <speed>0.0</speed>
  <fix>3d</fix>
</trkpt>
<trkpt lat="40.071375" lon="-105.2297889">
  <ele>1583.04</ele>
  <time>2026-08-28T17:50:42Z</time>
  <course>247.15</course>
  <speed>0.022360679774997897</speed>
  <fix>3d</fix>
</trkpt>
<trkpt lat="40.0713749" lon="-105.229789">
  <ele>1583.0</ele>
  <time>2026-08-28T17:50:42Z</time>
  <course>0.0</course>
  <speed>0.0</speed>
  <fix>3d</fix>
</trkpt>
<trkpt lat="40.071375" lon="-105.2297889">
  <ele>1583.04</ele>
  <time>2026-08-28T17:50:42Z</time>
  <course>247.15</course>
  <speed>0.022360679774997897</speed>
  <fix>3d</fix>
</trkpt>
<trkpt lat="40.0713749" lon="-105.229789">
  <ele>1583.0</ele>
  <time>2026-08-28T17:50:42Z</time>
  <course>0.0</course>
  <speed>0.0</speed>
  <fix>3d</fix>
</trkpt>
<trkpt lat="40.071375" lon="-105.2297889">
  <ele>1583.04</ele>
  <time>2026-08-28T17:50:42Z</time>
  <course>247.15</course>
  <speed>0.022360679774997897</speed>
  <fix>3d</fix>
</trkpt>
<trkpt lat="40.0713749" lon="-105.229789">
  <ele>1583.0</ele>
  <time>2026-08-28T17:50:42Z</time>
  <course>0.0</course>
  <speed>0.0</speed>
  <fix>3d</fix>
</trkpt>
<trkpt lat="40.071375" lon="-105.2297889">
  <ele>1583.03</ele>
  <time>2026-08-28T17:50:42Z</time>
  <course>247.15</course>
  <speed>0.022360679774997897</speed>
  <fix>3d</fix>
</trkpt>
<trkpt lat="40.0713749" lon="-105.229789">
  <ele>1583.0</ele>
  <time>2026-08-28T17:50:42Z</time>
  <course>0.0</course>
  <speed>0.0</speed>
  <fix>3d</fix>
</trkpt>
<trkpt lat="40.071375" lon="-105.2297889">
  <ele>1583.03</ele>
  <time>2026-08-28T17:50:42Z</time>
  <course>247.15</course>
  <speed>0.022360679774997897</speed>
  <fix>3d</fix>
</trkpt>
<trkpt lat="40.0713749" lon="-105.229789">
  <ele>1583.0</ele>
  <time>2026-08-28T17:50:42Z</time>
  <course>0.0</course>
  <speed>0.0</speed>
  <fix>3d</fix>
</trkpt>
<trkpt lat="40.071375" lon="-105.2297889">
  <ele>1583.03</ele>
  <time>2026-08-28T17:50:42Z</time>
  <course>247.15</course>
  <speed>0.022360679774997897</speed>
  <fix>3d</fix>
</trkpt>
<trkpt lat="40.0713749" lon="-105.229789">
  <ele>1583.0</ele>
  <time>2026-08-28T17:50:42Z</time>
  <course>0.0</course>
  <speed>0.0</speed>
  <fix>3d</fix>
</trkpt>
<trkpt lat="40.071375" lon="-105.2297889">
  <ele>1583.02</ele>
  <time>2026-08-28T17:50:42Z</time>
  <course>247.15</course>
  <speed>0.022360679774997897</speed>
  <fix>3d</fix>
</trkpt>
<trkpt lat="40.0713749" lon="-105.229789">
  <ele>1583.0</ele>
  <time>2026-08-28T17:50:42Z</time>
  <course>0.0</course>
  <speed>0.0</speed>
  <fix>3d</fix>
</trkpt>
<trkpt lat="40.071375" lon="-105.2297889">
  <ele>1583.02</ele>
  <time>2026-08-28T17:50:42Z</time>
  <course>247.15</course>
  <speed>0.022360679774997897</speed>
  <fix>3d</fix>
</trkpt>
<trkpt lat="40.0713749" lon="-105.229789">
  <ele>1583.0</ele>
  <time>2026-08-28T17:50:42Z</time>
  <course>0.0</course>
  <speed>0.0</speed>
  <fix>3d</fix>
</trkpt>
<trkpt lat="40.071375" lon="-105.2297889">
  <ele>1583.02</ele>
  <time>2026-08-28T17:50:42Z</time>
  <course>247.14</course>
  <speed>0.022360679774997897</speed>
  <fix>3d</fix>
</trkpt>
<trkpt lat="40.0713749" lon="-105.229789">
  <ele>1583.0</ele>
  <time>2026-08-28T17:50:42Z</time>
  <course>0.0</course>
  <speed>0.0</speed>
  <fix>3d</fix>
</trkpt>
<trkpt lat="40.071375" lon="-105.2297889">
  <ele>1583.02</ele>
  <time>2026-08-28T17:50:42Z</time>
  <course>247.14</course>
  <speed>0.022360679774997897</speed>
  <fix>3d</fix>
</trkpt>
<trkpt lat="40.0713749" lon="-105.229789">
  <ele>1583.0</ele>
  <time>2026-08-28T17:50:42Z</time>
  <course>0.0</course>
  <speed>0.0</speed>
  <fix>3d</fix>
</trkpt>
<trkpt lat="40.071375" lon="-105.2297889">
  <ele>1583.02</ele>
  <time>2026-08-28T17:50:42Z</time>
  <course>247.14</course>
  <speed>0.022360679774997897</speed>
  <fix>3d</fix>
</trkpt>
<trkpt lat="40.0713749" lon="-105.229789">
  <ele>1583.0</ele>
  <time>2026-08-28T17:50:42Z</time>
  <course>0.0</course>
  <speed>0.0</speed>
  <fix>3d</fix>
</trkpt>
<trkpt lat="40.071375" lon="-105.2297889">
  <ele>1583.02</ele>
  <time>2026-08-28T17:50:42Z</time>
  <course>247.14</course>
  <speed>0.022360679774997897</speed>
  <fix>3d</fix>
</trkpt>
<trkpt lat="40.0713749" lon="-105.229789">
  <ele>1583.0</ele>
  <time>2026-08-28T17:50:42Z</time>
  <course>0.0</course>
  <speed>0.0</speed>
  <fix>3d</fix>
</trkpt>
<trkpt lat="40.071375" lon="-105.2297889">
  <ele>1583.02</ele>
  <time>2026-08-28T17:50:42Z</time>
  <course>247.14</course>
  <speed>0.022360679774997897</speed>
  <fix>3d</fix>
</trkpt>
<trkpt lat="40.0713749" lon="-105.229789">
  <ele>1583.0</ele>
  <time>2026-08-28T17:50:42Z</time>
  <course>0.0</course>
  <speed>0.0</speed>
  <fix>3d</fix>
</trkpt>
<trkpt lat="40.071375" lon="-105.2297889">
  <ele>1583.02</ele>
  <time>2026-08-28T17:50:42Z</time>
  <course>247.14</course>
  <speed>0.022360679774997897</speed>
  <fix>3d</fix>
</trkpt>
<trkpt lat="40.0713749" lon="-105.229789">
  <ele>1583.0</ele>
  <time>2026-08-28T17:50:42Z</time>
  <course>0.0</course>
  <speed>0.0</speed>
  <fix>3d</fix>
</trkpt>
<trkpt lat="40.071375" lon="-105.2297889">
  <ele>1583.03</ele>
  <time>2026-08-28T17:50:42Z</time>
  <course>247.14</course>
  <speed>0.022360679774997897</speed>
  <fix>3d</fix>
</trkpt>
<trkpt lat="40.0713749" lon="-105.229789">
  <ele>1583.0</ele>
  <time>2026-08-28T17:50:42Z</time>
  <course>0.0</course>
  <speed>0.0</speed>
  <fix>3d</fix>
</trkpt>
<trkpt lat="40.071375" lon="-105.2297889">
  <ele>1583.03</ele>
  <time>2026-08-28T17:50:42Z</time>
  <course>247.14</course>
  <speed>0.022360679774997897</speed>
  <fix>3d</fix>
</trkpt>
<trkpt lat="40.0713749" lon="-105.229789">
  <ele>1583.0</ele>
  <time>2026-08-28T17:50:42Z</time>
  <course>0.0</course>
  <speed>0.0</speed>
  <fix>3d</fix>
</trkpt>
<trkpt lat="40.071375" lon="-105.2297889">
  <ele>1583.03</ele>
  <time>2026-08-28T17:50:42Z</time>
  <course>247.14</course>
  <speed>0.022360679774997897</speed>
  <fix>3d</fix>
</trkpt>
<trkpt lat="40.0713749" lon="-105.229789">
  <ele>1583.0</ele>
  <time>2026-08-28T17:50:42Z</time>
  <course>0.0</course>
  <speed>0.0</speed>
  <fix>3d</fix>
</trkpt>
<trkpt lat="40.071375" lon="-105.2297889">
  <ele>1583.03</ele>
  <time>2026-08-28T17:50:42Z</time>
  <course>247.14</course>
  <speed>0.022360679774997897</speed>
  <fix>3d</fix>
</trkpt>
<trkpt lat="40.0713749" lon="-105.229789">
  <ele>1583.0</ele>
  <time>2026-08-28T17:50:42Z</time>
  <course>0.0</course>
  <speed>0.0</speed>
  <fix>3d</fix>
</trkpt>
<trkpt lat="40.071375" lon="-105.2297889">
  <ele>1583.03</ele>
  <time>2026-08-28T17:50:42Z</time>
  <course>247.14</course>
  <speed>0.022360679774997897</speed>
  <fix>3d</fix>
</trkpt>
<trkpt lat="40.0713749" lon="-105.229789">
  <ele>1583.0</ele>
  <time>2026-08-28T17:50:42Z</time>
  <course>0.0</course>
  <speed>0.0</speed>
  <fix>3d</fix>
</trkpt>
<trkpt lat="40.071375" lon="-105.2297889">
  <ele>1583.03</ele>
  <time>2026-08-28T17:50:42Z</time>
  <course>247.14</course>
  <speed>0.022360679774997897</speed>
  <fix>3d</fix>
</trkpt>
<trkpt lat="40.0713749" lon="-105.229789">
  <ele>1583.0</ele>
  <time>2026-08-28T17:50:42Z</time>
  <course>0.0</course>
  <speed>0.0</speed>
  <fix>3d</fix>
</trkpt>
<trkpt lat="40.071375" lon="-105.2297889">
  <ele>1583.03</ele>
  <time>2026-08-28T17:50:42Z</time>
  <course>247.14</course>
  <speed>0.022360679774997897</speed>
  <fix>3d</fix>
</trkpt>
<trkpt lat="40.0713749" lon="-105.229789">
  <ele>1583.0</ele>
  <time>2026-08-28T17:50:42Z</time>
  <course>0.0</course>
  <speed>0.0</speed>
  <fix>3d</fix>
</trkpt>
<trkpt lat="40.071375" lon="-105.2297889">
  <ele>1583.02</ele>
  <time>2026-08-28T17:50:42Z</time>
  <course>247.14</course>
  <speed>0.022360679774997897</speed>
  <fix>3d</fix>
</trkpt>
<trkpt lat="40.0713749" lon="-105.229789">
  <ele>1583.0</ele>
  <time>2026-08-28T17:50:42Z</time>
  <course>0.0</course>
  <speed>0.0</speed>
  <fix>3d</fix>
</trkpt>
<trkpt lat="40.071375" lon="-105.2297889">
  <ele>1583.01</ele>
  <time>2026-08-28T17:50:42Z</time>
  <course>247.14</course>
  <speed>0.022360679774997897</speed>
  <fix>3d</fix>
</trkpt>
<trkpt lat="40.0713749" lon="-105.229789">
  <ele>1583.0</ele>
  <time>2026-08-28T17:50:42Z</time>
  <course>0.0</course>
  <speed>0.0</speed>
  <fix>3d</fix>
</trkpt>
<trkpt lat="40.071375" lon="-105.2297889">
  <ele>1583.0</ele>
  <time>2026-08-28T17:50:42Z</time>
  <course>247.14</course>
  <speed>0.022360679774997897</speed>
  <fix>3d</fix>
</trkpt>
<trkpt lat="40.0713749" lon="-105.229789">
  <ele>1583.0</ele>
  <time>2026-08-28T17:50:42Z</time>
  <course>0.0</course>
  <speed>0.0</speed>
  <fix>3d</fix>
</trkpt>
<trkpt lat="40.071375" lon="-105.2297889">
  <ele>1582.99</ele>
  <time>2026-08-28T17:50:42Z</time>
  <course>247.14</course>
  <speed>0.022360679774997897</speed>
  <fix>3d</fix>
</trkpt>
<trkpt lat="40.0713749" lon="-105.229789">
  <ele>1583.0</ele>
  <time>2026-08-28T17:50:42Z</time>
  <course>0.0</course>
  <speed>0.0</speed>
  <fix>3d</fix>
</trkpt>
<trkpt lat="40.071375" lon="-105.2297889">
  <ele>1582.99</ele>
  <time>2026-08-28T17:50:42Z</time>
  <course>247.14</course>
  <speed>0.022360679774997897</speed>
  <fix>3d</fix>
</trkpt>
<trkpt lat="40.0713749" lon="-105.229789">
  <ele>1583.0</ele>
  <time>2026-08-28T17:50:42Z</time>
  <course>0.0</course>
  <speed>0.0</speed>
  <fix>3d</fix>
</trkpt>
<trkpt lat="40.071375" lon="-105.2297889">
  <ele>1582.99</ele>
  <time>2026-08-28T17:50:42Z</time>
  <course>247.14</course>
  <speed>0.022360679774997897</speed>
  <fix>3d</fix>
</trkpt>
<trkpt lat="40.0713749" lon="-105.229789">
  <ele>1583.0</ele>
  <time>2026-08-28T17:50:42Z</time>
  <course>0.0</course>
  <speed>0.0</speed>
  <fix>3d</fix>
</trkpt>
<trkpt lat="40.071375" lon="-105.2297889">
  <ele>1582.98</ele>
  <time>2026-08-28T17:50:42Z</time>
  <course>247.13</course>
  <speed>0.022360679774997897</speed>
  <fix>3d</fix>
</trkpt>
<trkpt lat="40.0713749" lon="-105.229789">
  <ele>1583.0</ele>
  <time>2026-08-28T17:50:42Z</time>
  <course>0.0</course>
  <speed>0.0</speed>
  <fix>3d</fix>
</trkpt>
<trkpt lat="40.071375" lon="-105.2297889">
  <ele>1582.98</ele>
  <time>2026-08-28T17:50:42Z</time>
  <course>247.13</course>
  <speed>0.022360679774997897</speed>
  <fix>3d</fix>
</trkpt>
<trkpt lat="40.0713749" lon="-105.229789">
  <ele>1583.0</ele>
  <time>2026-08-28T17:50:42Z</time>
  <course>0.0</course>
  <speed>0.0</speed>
  <fix>3d</fix>
</trkpt>
<trkpt lat="40.071375" lon="-105.2297889">
  <ele>1582.97</ele>
  <time>2026-08-28T17:50:42Z</time>
  <course>247.13</course>
  <speed>0.022360679774997897</speed>
  <fix>3d</fix>
</trkpt>
<trkpt lat="40.0713749" lon="-105.229789">
  <ele>1583.0</ele>
  <time>2026-08-28T17:50:42Z</time>
  <course>0.0</course>
  <speed>0.0</speed>
  <fix>3d</fix>
</trkpt>
<trkpt lat="40.071375" lon="-105.2297889">
  <ele>1582.97</ele>
  <time>2026-08-28T17:50:42Z</time>
  <course>247.13</course>
  <speed>0.022360679774997897</speed>
  <fix>3d</fix>
</trkpt>
<trkpt lat="40.0713749" lon="-105.229789">
  <ele>1583.0</ele>
  <time>2026-08-28T17:50:42Z</time>
  <course>0.0</course>
  <speed>0.0</speed>
  <fix>3d</fix>
</trkpt>
<trkpt lat="40.071375" lon="-105.2297889">
  <ele>1582.96</ele>
  <time>2026-08-28T17:50:42Z</time>
  <course>247.13</course>
  <speed>0.022360679774997897</speed>
  <fix>3d</fix>
</trkpt>
<trkpt lat="40.0713749" lon="-105.229789">
  <ele>1583.0</ele>
  <time>2026-08-28T17:50:42Z</time>
  <course>0.0</course>
  <speed>0.0</speed>
  <fix>3d</fix>
</trkpt>
<trkpt lat="40.071375" lon="-105.2297889">
  <ele>1582.95</ele>
  <time>2026-08-28T17:50:42Z</time>
  <course>247.13</course>
  <speed>0.022360679774997897</speed>
  <fix>3d</fix>
</trkpt>
<trkpt lat="40.0713749" lon="-105.229789">
  <ele>1583.0</ele>
  <time>2026-08-28T17:50:42Z</time>
  <course>0.0</course>
  <speed>0.0</speed>
  <fix>3d</fix>
</trkpt>
<trkpt lat="40.071375" lon="-105.2297889">
  <ele>1582.95</ele>
  <time>2026-08-28T17:50:42Z</time>
  <course>247.13</course>
  <speed>0.022360679774997897</speed>
  <fix>3d</fix>
</trkpt>
<trkpt lat="40.0713749" lon="-105.229789">
  <ele>1583.0</ele>
  <time>2026-08-28T17:50:42Z</time>
  <course>0.0</course>
  <speed>0.0</speed>
  <fix>3d</fix>
</trkpt>
<trkpt lat="40.071375" lon="-105.2297889">
  <ele>1582.95</ele>
  <time>2026-08-28T17:50:42Z</time>
  <course>247.13</course>
  <speed>0.022360679774997897</speed>
  <fix>3d</fix>
</trkpt>
<trkpt lat="40.0713749" lon="-105.229789">
  <ele>1583.0</ele>
  <time>2026-08-28T17:50:42Z</time>
  <course>0.0</course>
  <speed>0.0</speed>
  <fix>3d</fix>
</trkpt>
<trkpt lat="40.071375" lon="-105.2297889">
  <ele>1582.95</ele>
  <time>2026-08-28T17:50:42Z</time>
  <course>247.13</course>
  <speed>0.022360679774997897</speed>
  <fix>3d</fix>
</trkpt>
<trkpt lat="40.0713749" lon="-105.229789">
  <ele>1583.0</ele>
  <time>2026-08-28T17:50:42Z</time>
  <course>0.0</course>
  <speed>0.0</speed>
  <fix>3d</fix>
</trkpt>
<trkpt lat="40.071375" lon="-105.2297889">
  <ele>1582.95</ele>
  <time>2026-08-28T17:50:42Z</time>
  <course>247.13</course>
  <speed>0.022360679774997897</speed>
  <fix>3d</fix>
</trkpt>
<trkpt lat="40.0713749" lon="-105.229789">
  <ele>1583.0</ele>
  <time>2026-08-28T17:50:42Z</time>
  <course>0.0</course>
  <speed>0.0</speed>
  <fix>3d</fix>
</trkpt>
<trkpt lat="40.071375" lon="-105.2297889">
  <ele>1582.95</ele>
  <time>2026-08-28T17:50:42Z</time>
  <course>247.13</course>
  <speed>0.022360679774997897</speed>
  <fix>3d</fix>
</trkpt>
<trkpt lat="40.0713749" lon="-105.229789">
  <ele>1583.0</ele>
  <time>2026-08-28T17:50:42Z</time>
  <course>0.0</course>
  <speed>0.0</speed>
  <fix>3d</fix>
</trkpt>
<trkpt lat="40.071375" lon="-105.2297889">
  <ele>1582.96</ele>
  <time>2026-08-28T17:50:42Z</time>
  <course>247.13</course>
  <speed>0.022360679774997897</speed>
  <fix>3d</fix>
</trkpt>
<trkpt lat="40.0713749" lon="-105.229789">
  <ele>1583.0</ele>
  <time>2026-08-28T17:50:42Z</time>
  <course>0.0</course>
  <speed>0.0</speed>
  <fix>3d</fix>
</trkpt>
<trkpt lat="40.071375" lon="-105.2297889">
  <ele>1582.96</ele>
  <time>2026-08-28T17:50:42Z</time>
  <course>247.13</course>
  <speed>0.022360679774997897</speed>
  <fix>3d</fix>
</trkpt>
<trkpt lat="40.0713749" lon="-105.229789">
  <ele>1583.0</ele>
  <time>2026-08-28T17:50:42Z</time>
  <course>0.0</course>
  <speed>0.0</speed>
  <fix>3d</fix>
</trkpt>
<trkpt lat="40.071375" lon="-105.2297889">
  <ele>1582.97</ele>
  <time>2026-08-28T17:50:42Z</time>
  <course>247.13</course>
  <speed>0.022360679774997897</speed>
  <fix>3d</fix>
</trkpt>
<trkpt lat="40.0713749" lon="-105.229789">
  <ele>1583.0</ele>
  <time>2026-08-28T17:50:42Z</time>
  <course>0.0</course>
  <speed>0.0</speed>
  <fix>3d</fix>
</trkpt>
<trkpt lat="40.071375" lon="-105.2297889">
  <ele>1582.97</ele>
  <time>2026-08-28T17:50:42Z</time>
  <course>247.13</course>
  <speed>0.022360679774997897</speed>
  <fix>3d</fix>
</trkpt>
<trkpt lat="40.0713749" lon="-105.229789">
  <ele>1583.0</ele>
  <time>2026-08-28T17:50:42Z</time>
  <course>0.0</course>
  <speed>0.0</speed>
  <fix>3d</fix>
</trkpt>
<trkpt lat="40.071375" lon="-105.2297889">
  <ele>1582.98</ele>
  <time>2026-08-28T17:50:42Z</time>
  <course>247.13</course>
  <speed>0.022360679774997897</speed>
  <fix>3d</fix>
</trkpt>
<trkpt lat="40.0713749" lon="-105.229789">
  <ele>1583.0</ele>
  <time>2026-08-28T17:50:42Z</time>
  <course>0.0</course>
  <speed>0.0</speed>
  <fix>3d</fix>
</trkpt>
<trkpt lat="40.071375" lon="-105.2297889">
  <ele>1582.99</ele>
  <time>2026-08-28T17:50:42Z</time>
  <course>247.13</course>
  <speed>0.022360679774997897</speed>
  <fix>3d</fix>
</trkpt>
<trkpt lat="40.0713749" lon="-105.229789">
  <ele>1583.0</ele>
  <time>2026-08-28T17:50:42Z</time>
  <course>0.0</course>
  <speed>0.0</speed>
  <fix>3d</fix>
</trkpt>
<trkpt lat="40.071375" lon="-105.2297889">
  <ele>1582.99</ele>
  <time>2026-08-28T17:50:42Z</time>
  <course>247.13</course>
  <speed>0.022360679774997897</speed>
  <fix>3d</fix>
</trkpt>
<trkpt lat="40.0713749" lon="-105.229789">
  <ele>1583.0</ele>
  <time>2026-08-28T17:50:42Z</time>
  <course>0.0</course>
  <speed>0.0</speed>
  <fix>3d</fix>
</trkpt>
<trkpt lat="40.071375" lon="-105.2297889">
  <ele>1583.0</ele>
  <time>2026-08-28T17:50:42Z</time>
  <course>247.13</course>
  <speed>0.022360679774997897</speed>
  <fix>3d</fix>
</trkpt>
<trkpt lat="40.0713749" lon="-105.229789">
  <ele>1583.0</ele>
  <time>2026-08-28T17:50:42Z</time>
  <course>0.0</course>
  <speed>0.0</speed>
  <fix>3d</fix>
</trkpt>
<trkpt lat="40.071375" lon="-105.2297889">
  <ele>1583.0</ele>
  <time>2026-08-28T17:50:42Z</time>
  <course>247.13</course>
  <speed>0.022360679774997897</speed>
  <fix>3d</fix>
</trkpt>
<trkpt lat="40.0713749" lon="-105.229789">
  <ele>1583.0</ele>
  <time>2026-08-28T17:50:42Z</time>
  <course>0.0</course>
  <speed>0.0</speed>
  <fix>3d</fix>
</trkpt>
<trkpt lat="40.071375" lon="-105.2297889">
  <ele>1583.01</ele>
  <time>2026-08-28T17:50:42Z</time>
  <course>247.13</course>
  <speed>0.022360679774997897</speed>
  <fix>3d</fix>
</trkpt>
<trkpt lat="40.0713749" lon="-105.229789">
  <ele>1583.0</ele>
  <time>2026-08-28T17:50:42Z</time>
  <course>0.0</course>
  <speed>0.0</speed>
  <fix>3d</fix>
</trkpt>
<trkpt lat="40.071375" lon="-105.2297889">
  <ele>1583.01</ele>
  <time>2026-08-28T17:50:42Z</time>
  <course>247.13</course>
  <speed>0.022360679774997897</speed>
  <fix>3d</fix>
</trkpt>
<trkpt lat="40.0713749" lon="-105.229789">
  <ele>1583.0</ele>
  <time>2026-08-28T17:50:42Z</time>
  <course>0.0</course>
  <speed>0.0</speed>
  <fix>3d</fix>
</trkpt>
<trkpt lat="40.071375" lon="-105.2297889">
  <ele>1583.01</ele>
  <time>2026-08-28T17:50:42Z</time>
  <course>247.13</course>
  <speed>0.022360679774997897</speed>
  <fix>3d</fix>
</trkpt>
<trkpt lat="40.0713749" lon="-105.229789">
  <ele>1583.0</ele>
  <time>2026-08-28T17:50:42Z</time>
  <course>0.0</course>
  <speed>0.0</speed>
  <fix>3d</fix>
</trkpt>
<trkpt lat="40.071375" lon="-105.2297889">
  <ele>1583.01</ele>
  <time>2026-08-28T17:50:42Z</time>
  <course>247.12</course>
  <speed>0.022360679774997897</speed>
  <fix>3d</fix>
</trkpt>
<trkpt lat="40.0713749" lon="-105.229789">
  <ele>1583.0</ele>
  <time>2026-08-28T17:50:42Z</time>
  <course>0.0</course>
  <speed>0.0</speed>
  <fix>3d</fix>
</trkpt>
<trkpt lat="40.071375" lon="-105.2297889">
  <ele>1583.0</ele>
  <time>2026-08-28T17:50:42Z</time>
  <course>247.12</course>
  <speed>0.022360679774997897</speed>
  <fix>3d</fix>
</trkpt>
<trkpt lat="40.0713749" lon="-105.229789">
  <ele>1583.0</ele>
  <time>2026-08-28T17:50:42Z</time>
  <course>0.0</course>
  <speed>0.0</speed>
  <fix>3d</fix>
</trkpt>
<trkpt lat="40.071375" lon="-105.2297889">
  <ele>1583.0</ele>
  <time>2026-08-28T17:50:42Z</time>
  <course>247.12</course>
  <speed>0.022360679774997897</speed>
  <fix>3d</fix>
</trkpt>
<trkpt lat="40.0713749" lon="-105.229789">
  <ele>1583.0</ele>
  <time>2026-08-28T17:50:42Z</time>
  <course>0.0</course>
  <speed>0.0</speed>
  <fix>3d</fix>
</trkpt>
<trkpt lat="40.071375" lon="-105.2297889">
  <ele>1583.0</ele>
  <time>2026-08-28T17:50:42Z</time>
  <course>247.12</course>
  <speed>0.022360679774997897</speed>
  <fix>3d</fix>
</trkpt>
<trkpt lat="40.0713749" lon="-105.229789">
  <ele>1583.0</ele>
  <time>2026-08-28T17:50:42Z</time>
  <course>0.0</course>
  <speed>0.0</speed>
  <fix>3d</fix>
</trkpt>
<trkpt lat="40.071375" lon="-105.2297889">
  <ele>1582.99</ele>
  <time>2026-08-28T17:50:42Z</time>
  <course>247.12</course>
  <speed>0.022360679774997897</speed>
  <fix>3d</fix>
</trkpt>
<trkpt lat="40.0713749" lon="-105.229789">
  <ele>1583.0</ele>
  <time>2026-08-28T17:50:42Z</time>
  <course>0.0</course>
  <speed>0.0</speed>
  <fix>3d</fix>
</trkpt>
<trkpt lat="40.071375" lon="-105.2297889">
  <ele>1582.99</ele>
  <time>2026-08-28T17:50:42Z</time>
  <course>247.12</course>
  <speed>0.022360679774997897</speed>
  <fix>3d</fix>
</trkpt>
<trkpt lat="40.0713749" lon="-105.229789">
  <ele>1583.0</ele>
  <time>2026-08-28T17:50:42Z</time>
  <course>0.0</course>
  <speed>0.0</speed>
  <fix>3d</fix>
</trkpt>
<trkpt lat="40.071375" lon="-105.2297889">
  <ele>1582.98</ele>
  <time>2026-08-28T17:50:42Z</time>
  <course>247.12</course>
  <speed>0.022360679774997897</speed>
  <fix>3d</fix>
</trkpt>
<trkpt lat="40.0713749" lon="-105.229789">
  <ele>1583.0</ele>
  <time>2026-08-28T17:50:42Z</time>
  <course>0.0</course>
  <speed>0.0</speed>
  <fix>3d</fix>
</trkpt>
<trkpt lat="40.071375" lon="-105.2297889">
  <ele>1582.98</ele>
  <time>2026-08-28T17:50:42Z</time>
  <course>247.12</course>
  <speed>0.022360679774997897</speed>
  <fix>3d</fix>
</trkpt>
<trkpt lat="40.0713749" lon="-105.229789">
  <ele>1583.0</ele>
  <time>2026-08-28T17:50:42Z</time>
  <course>0.0</course>
  <speed>0.0</speed>
  <fix>3d</fix>
</trkpt>
<trkpt lat="40.071375" lon="-105.2297889">
  <ele>1582.98</ele>
  <time>2026-08-28T17:50:42Z</time>
  <course>247.12</course>
  <speed>0.022360679774997897</speed>
  <fix>3d</fix>
</trkpt>
<trkpt lat="40.0713749" lon="-105.229789">
  <ele>1583.0</ele>
  <time>2026-08-28T17:50:42Z</time>
  <course>0.0</course>
  <speed>0.0</speed>
  <fix>3d</fix>
</trkpt>
<trkpt lat="40.071375" lon="-105.2297889">
  <ele>1582.97</ele>
  <time>2026-08-28T17:50:42Z</time>
  <course>247.12</course>
  <speed>0.022360679774997897</speed>
  <fix>3d</fix>
</trkpt>
<trkpt lat="40.0713749" lon="-105.229789">
  <ele>1583.0</ele>
  <time>2026-08-28T17:50:42Z</time>
  <course>0.0</course>
  <speed>0.0</speed>
  <fix>3d</fix>
</trkpt>
<trkpt lat="40.071375" lon="-105.2297889">
  <ele>1582.97</ele>
  <time>2026-08-28T17:50:42Z</time>
  <course>247.12</course>
  <speed>0.022360679774997897</speed>
  <fix>3d</fix>
</trkpt>
<trkpt lat="40.0713749" lon="-105.229789">
  <ele>1583.0</ele>
  <time>2026-08-28T17:50:42Z</time>
  <course>0.0</course>
  <speed>0.0</speed>
  <fix>3d</fix>
</trkpt>
<trkpt lat="40.071375" lon="-105.2297889">
  <ele>1582.96</ele>
  <time>2026-08-28T17:50:42Z</time>
  <course>247.12</course>
  <speed>0.022360679774997897</speed>
  <fix>3d</fix>
</trkpt>
<trkpt lat="40.0713749" lon="-105.229789">
  <ele>1583.0</ele>
  <time>2026-08-28T17:50:42Z</time>
  <course>0.0</course>
  <speed>0.0</speed>
  <fix>3d</fix>
</trkpt>
<trkpt lat="40.071375" lon="-105.2297889">
  <ele>1582.95</ele>
  <time>2026-08-28T17:50:42Z</time>
  <course>247.12</course>
  <speed>0.022360679774997897</speed>
  <fix>3d</fix>
</trkpt>
<trkpt lat="40.0713749" lon="-105.229789">
  <ele>1583.0</ele>
  <time>2026-08-28T17:50:42Z</time>
  <course>0.0</course>
  <speed>0.0</speed>
  <fix>3d</fix>
</trkpt>
<trkpt lat="40.071375" lon="-105.2297889">
  <ele>1582.94</ele>
  <time>2026-08-28T17:50:42Z</time>
  <course>247.12</course>
  <speed>0.022360679774997897</speed>
  <fix>3d</fix>
</trkpt>
<trkpt lat="40.0713749" lon="-105.229789">
  <ele>1583.0</ele>
  <time>2026-08-28T17:50:42Z</time>
  <course>0.0</course>
  <speed>0.0</speed>
  <fix>3d</fix>
</trkpt>
<trkpt lat="40.071375" lon="-105.2297889">
  <ele>1582.94</ele>
  <time>2026-08-28T17:50:42Z</time>
  <course>247.12</course>
  <speed>0.022360679774997897</speed>
  <fix>3d</fix>
</trkpt>
<trkpt lat="40.0713749" lon="-105.229789">
  <ele>1583.0</ele>
  <time>2026-08-28T17:50:42Z</time>
  <course>0.0</course>
  <speed>0.0</speed>
  <fix>3d</fix>
</trkpt>
<trkpt lat="40.071375" lon="-105.2297889">
  <ele>1582.93</ele>
  <time>2026-08-28T17:50:42Z</time>
  <course>247.12</course>
  <speed>0.022360679774997897</speed>
  <fix>3d</fix>
</trkpt>
<trkpt lat="40.0713749" lon="-105.229789">
  <ele>1583.0</ele>
  <time>2026-08-28T17:50:42Z</time>
  <course>0.0</course>
  <speed>0.0</speed>
  <fix>3d</fix>
</trkpt>
<trkpt lat="40.071375" lon="-105.2297889">
  <ele>1582.92</ele>
  <time>2026-08-28T17:50:42Z</time>
  <course>247.12</course>
  <speed>0.022360679774997897</speed>
  <fix>3d</fix>
</trkpt>
<trkpt lat="40.0713749" lon="-105.229789">
  <ele>1583.0</ele>
  <time>2026-08-28T17:50:42Z</time>
  <course>0.0</course>
  <speed>0.0</speed>
  <fix>3d</fix>
</trkpt>
<trkpt lat="40.071375" lon="-105.2297889">
  <ele>1582.91</ele>
  <time>2026-08-28T17:50:42Z</time>
  <course>247.12</course>
  <speed>0.022360679774997897</speed>
  <fix>3d</fix>
</trkpt>
<trkpt lat="40.0713749" lon="-105.229789">
  <ele>1583.0</ele>
  <time>2026-08-28T17:50:42Z</time>
  <course>0.0</course>
  <speed>0.0</speed>
  <fix>3d</fix>
</trkpt>
<trkpt lat="40.071375" lon="-105.2297889">
  <ele>1582.9</ele>
  <time>2026-08-28T17:50:42Z</time>
  <course>247.12</course>
  <speed>0.022360679774997897</speed>
  <fix>3d</fix>
</trkpt>
<trkpt lat="40.0713749" lon="-105.229789">
  <ele>1583.0</ele>
  <time>2026-08-28T17:50:42Z</time>
  <course>0.0</course>
  <speed>0.0</speed>
  <fix>3d</fix>
</trkpt>
<trkpt lat="40.071375" lon="-105.2297889">
  <ele>1582.9</ele>
  <time>2026-08-28T17:50:42Z</time>
  <course>247.12</course>
  <speed>0.022360679774997897</speed>
  <fix>3d</fix>
</trkpt>
<trkpt lat="40.0713749" lon="-105.229789">
  <ele>1583.0</ele>
  <time>2026-08-28T17:50:42Z</time>
  <course>0.0</course>
  <speed>0.0</speed>
  <fix>3d</fix>
</trkpt>
<trkpt lat="40.071375" lon="-105.2297889">
  <ele>1582.91</ele>
  <time>2026-08-28T17:50:42Z</time>
  <course>247.12</course>
  <speed>0.022360679774997897</speed>
  <fix>3d</fix>
</trkpt>
<trkpt lat="40.0713749" lon="-105.229789">
  <ele>1583.0</ele>
  <time>2026-08-28T17:50:42Z</time>
  <course>0.0</course>
  <speed>0.0</speed>
  <fix>3d</fix>
</trkpt>
<trkpt lat="40.071375" lon="-105.2297889">
  <ele>1582.92</ele>
  <time>2026-08-28T17:50:42Z</time>
  <course>247.12</course>
  <speed>0.022360679774997897</speed>
  <fix>3d</fix>
</trkpt>
<trkpt lat="40.0713749" lon="-105.229789">
  <ele>1583.0</ele>
  <time>2026-08-28T17:50:42Z</time>
  <course>0.0</course>
  <speed>0.0</speed>
  <fix>3d</fix>
</trkpt>
<trkpt lat="40.071375" lon="-105.2297889">
  <ele>1582.93</ele>
  <time>2026-08-28T17:50:42Z</time>
  <course>247.12</course>
  <speed>0.022360679774997897</speed>
  <fix>3d</fix>
</trkpt>
<trkpt lat="40.0713749" lon="-105.229789">
  <ele>1583.0</ele>
  <time>2026-08-28T17:50:42Z</time>
  <course>0.0</course>
  <speed>0.0</speed>
  <fix>3d</fix>
</trkpt>
<trkpt lat="40.071375" lon="-105.2297889">
  <ele>1582.94</ele>
  <time>2026-08-28T17:50:42Z</time>
  <course>247.12</course>
  <speed>0.022360679774997897</speed>
  <fix>3d</fix>
</trkpt>
<trkpt lat="40.0713749" lon="-105.229789">
  <ele>1583.0</ele>
  <time>2026-08-28T17:50:42Z</time>
  <course>0.0</course>
  <speed>0.0</speed>
  <fix>3d</fix>
</trkpt>
<trkpt lat="40.071375" lon="-105.2297889">
  <ele>1582.95</ele>
  <time>2026-08-28T17:50:42Z</time>
  <course>247.12</course>
  <speed>0.022360679774997897</speed>
  <fix>3d</fix>
</trkpt>
<trkpt lat="40.0713749" lon="-105.229789">
  <ele>1583.0</ele>
  <time>2026-08-28T17:50:42Z</time>
  <course>0.0</course>
  <speed>0.0</speed>
  <fix>3d</fix>
</trkpt>
<trkpt lat="40.071375" lon="-105.2297889">
  <ele>1582.96</ele>
  <time>2026-08-28T17:50:42Z</time>
  <course>247.12</course>
  <speed>0.022360679774997897</speed>
  <fix>3d</fix>
</trkpt>
<trkpt lat="40.0713749" lon="-105.229789">
  <ele>1583.0</ele>
  <time>2026-08-28T17:50:42Z</time>
  <course>0.0</course>
  <speed>0.0</speed>
  <fix>3d</fix>
</trkpt>
<trkpt lat="40.071375" lon="-105.2297889">
  <ele>1582.97</ele>
  <time>2026-08-28T17:50:42Z</time>
  <course>247.12</course>
  <speed>0.022360679774997897</speed>
  <fix>3d</fix>
</trkpt>
<trkpt lat="40.0713749" lon="-105.229789">
  <ele>1583.0</ele>
  <time>2026-08-28T17:50:42Z</time>
  <course>0.0</course>
  <speed>0.0</speed>
  <fix>3d</fix>
</trkpt>
<trkpt lat="40.071375" lon="-105.2297889">
  <ele>1582.98</ele>
  <time>2026-08-28T17:50:42Z</time>
  <course>247.12</course>
  <speed>0.022360679774997897</speed>
  <fix>3d</fix>
</trkpt>
<trkpt lat="40.0713749" lon="-105.229789">
  <ele>1583.0</ele>
  <time>2026-08-28T17:50:42Z</time>
  <course>0.0</course>
  <speed>0.0</speed>
  <fix>3d</fix>
</trkpt>
<trkpt lat="40.071375" lon="-105.2297889">
  <ele>1582.99</ele>
  <time>2026-08-28T17:50:42Z</time>
  <course>247.12</course>
  <speed>0.022360679774997897</speed>
  <fix>3d</fix>
</trkpt>
<trkpt lat="40.0713749" lon="-105.229789">
  <ele>1583.0</ele>
  <time>2026-08-28T17:50:42Z</time>
  <course>0.0</course>
  <speed>0.0</speed>
  <fix>3d</fix>
</trkpt>
<trkpt lat="40.071375" lon="-105.2297889">
  <ele>1582.99</ele>
  <time>2026-08-28T17:50:42Z</time>
  <course>247.11</course>
  <speed>0.022360679774997897</speed>
  <fix>3d</fix>
</trkpt>
<trkpt lat="40.0713749" lon="-105.229789">
  <ele>1583.0</ele>
  <time>2026-08-28T17:50:42Z</time>
  <course>0.0</course>
  <speed>0.0</speed>
  <fix>3d</fix>
</trkpt>
<trkpt lat="40.071375" lon="-105.2297889">
  <ele>1582.99</ele>
  <time>2026-08-28T17:50:42Z</time>
  <course>247.11</course>
  <speed>0.022360679774997897</speed>
  <fix>3d</fix>
</trkpt>
<trkpt lat="40.0713749" lon="-105.229789">
  <ele>1583.0</ele>
  <time>2026-08-28T17:50:42Z</time>
  <course>0.0</course>
  <speed>0.0</speed>
  <fix>3d</fix>
</trkpt>
<trkpt lat="40.071375" lon="-105.2297889">
  <ele>1583.0</ele>
  <time>2026-08-28T17:50:42Z</time>
  <course>247.11</course>
  <speed>0.022360679774997897</speed>
  <fix>3d</fix>
</trkpt>
<trkpt lat="40.0713749" lon="-105.229789">
  <ele>1583.0</ele>
  <time>2026-08-28T17:50:42Z</time>
  <course>0.0</course>
  <speed>0.0</speed>
  <fix>3d</fix>
</trkpt>
<trkpt lat="40.071375" lon="-105.2297889">
  <ele>1583.0</ele>
  <time>2026-08-28T17:50:42Z</time>
  <course>247.11</course>
  <speed>0.022360679774997897</speed>
  <fix>3d</fix>
</trkpt>
<trkpt lat="40.0713749" lon="-105.229789">
  <ele>1583.0</ele>
  <time>2026-08-28T17:50:42Z</time>
  <course>0.0</course>
  <speed>0.0</speed>
  <fix>3d</fix>
</trkpt>
<trkpt lat="40.071375" lon="-105.2297889">
  <ele>1583.01</ele>
  <time>2026-08-28T17:50:42Z</time>
  <course>247.11</course>
  <speed>0.022360679774997897</speed>
  <fix>3d</fix>
</trkpt>
<trkpt lat="40.0713749" lon="-105.229789">
  <ele>1583.0</ele>
  <time>2026-08-28T17:50:42Z</time>
  <course>0.0</course>
  <speed>0.0</speed>
  <fix>3d</fix>
</trkpt>
<trkpt lat="40.071375" lon="-105.2297889">
  <ele>1583.01</ele>
  <time>2026-08-28T17:50:42Z</time>
  <course>247.11</course>
  <speed>0.022360679774997897</speed>
  <fix>3d</fix>
</trkpt>
<trkpt lat="40.0713749" lon="-105.229789">
  <ele>1583.0</ele>
  <time>2026-08-28T17:50:42Z</time>
  <course>0.0</course>
  <speed>0.0</speed>
  <fix>3d</fix>
</trkpt>
<trkpt lat="40.071375" lon="-105.2297889">
  <ele>1583.01</ele>
  <time>2026-08-28T17:50:42Z</time>
  <course>247.11</course>
  <speed>0.022360679774997897</speed>
  <fix>3d</fix>
</trkpt>
<trkpt lat="40.0713749" lon="-105.229789">
  <ele>1583.0</ele>
  <time>2026-08-28T17:50:42Z</time>
  <course>0.0</course>
  <speed>0.0</speed>
  <fix>3d</fix>
</trkpt>
<trkpt lat="40.071375" lon="-105.2297889">
  <ele>1583.01</ele>
  <time>2026-08-28T17:50:42Z</time>
  <course>247.11</course>
  <speed>0.022360679774997897</speed>
  <fix>3d</fix>
</trkpt>
<trkpt lat="40.0713749" lon="-105.229789">
  <ele>1583.0</ele>
  <time>2026-08-28T17:50:42Z</time>
  <course>0.0</course>
  <speed>0.0</speed>
  <fix>3d</fix>
</trkpt>
<trkpt lat="40.071375" lon="-105.2297889">
  <ele>1583.02</ele>
  <time>2026-08-28T17:50:42Z</time>
  <course>247.11</course>
  <speed>0.022360679774997897</speed>
  <fix>3d</fix>
</trkpt>
<trkpt lat="40.0713749" lon="-105.229789">
  <ele>1583.0</ele>
  <time>2026-08-28T17:50:42Z</time>
  <course>0.0</course>
  <speed>0.0</speed>
  <fix>3d</fix>
</trkpt>
<trkpt lat="40.071375" lon="-105.2297889">
  <ele>1583.02</ele>
  <time>2026-08-28T17:50:42Z</time>
  <course>247.11</course>
  <speed>0.022360679774997897</speed>
  <fix>3d</fix>
</trkpt>
<trkpt lat="40.0713749" lon="-105.229789">
  <ele>1583.0</ele>
  <time>2026-08-28T17:50:42Z</time>
  <course>0.0</course>
  <speed>0.0</speed>
  <fix>3d</fix>
</trkpt>
<trkpt lat="40.071375" lon="-105.2297889">
  <ele>1583.02</ele>
  <time>2026-08-28T17:50:42Z</time>
  <course>247.11</course>
  <speed>0.022360679774997897</speed>
  <fix>3d</fix>
</trkpt>
<trkpt lat="40.0713749" lon="-105.229789">
  <ele>1583.0</ele>
  <time>2026-08-28T17:50:42Z</time>
  <course>0.0</course>
  <speed>0.0</speed>
  <fix>3d</fix>
</trkpt>
<trkpt lat="40.071375" lon="-105.2297889">
  <ele>1583.02</ele>
  <time>2026-08-28T17:50:42Z</time>
  <course>247.11</course>
  <speed>0.022360679774997897</speed>
  <fix>3d</fix>
</trkpt>
<trkpt lat="40.0713749" lon="-105.229789">
  <ele>1583.0</ele>
  <time>2026-08-28T17:50:42Z</time>
  <course>0.0</course>
  <speed>0.0</speed>
  <fix>3d</fix>
</trkpt>
<trkpt lat="40.071375" lon="-105.2297889">
  <ele>1583.02</ele>
  <time>2026-08-28T17:50:42Z</time>
  <course>247.11</course>
  <speed>0.022360679774997897</speed>
  <fix>3d</fix>
</trkpt>
<trkpt lat="40.0713749" lon="-105.229789">
  <ele>1583.0</ele>
  <time>2026-08-28T17:50:42Z</time>
  <course>0.0</course>
  <speed>0.0</speed>
  <fix>3d</fix>
</trkpt>
<trkpt lat="40.071375" lon="-105.2297889">
  <ele>1583.01</ele>
  <time>2026-08-28T17:50:42Z</time>
  <course>247.11</course>
  <speed>0.022360679774997897</speed>
  <fix>3d</fix>
</trkpt>
<trkpt lat="40.0713749" lon="-105.229789">
  <ele>1583.0</ele>
  <time>2026-08-28T17:50:42Z</time>
  <course>0.0</course>
  <speed>0.0</speed>
  <fix>3d</fix>
</trkpt>
<trkpt lat="40.071375" lon="-105.2297889">
  <ele>1583.01</ele>
  <time>2026-08-28T17:50:42Z</time>
  <course>247.11</course>
  <speed>0.022360679774997897</speed>
  <fix>3d</fix>
</trkpt>
<trkpt lat="40.0713749" lon="-105.229789">
  <ele>1583.0</ele>
  <time>2026-08-28T17:50:42Z</time>
  <course>0.0</course>
  <speed>0.0</speed>
  <fix>3d</fix>
</trkpt>
<trkpt lat="40.071375" lon="-105.2297889">
  <ele>1583.0</ele>
  <time>2026-08-28T17:50:42Z</time>
  <course>247.11</course>
  <speed>0.022360679774997897</speed>
  <fix>3d</fix>
</trkpt>
<trkpt lat="40.0713749" lon="-105.229789">
  <ele>1583.0</ele>
  <time>2026-08-28T17:50:42Z</time>
  <course>0.0</course>
  <speed>0.0</speed>
  <fix>3d</fix>
</trkpt>
<trkpt lat="40.071375" lon="-105.2297889">
  <ele>1583.0</ele>
  <time>2026-08-28T17:50:42Z</time>
  <course>247.11</course>
  <speed>0.02</speed>
  <fix>3d</fix>
</trkpt>
<trkpt lat="40.0713749" lon="-105.229789">
  <ele>1583.0</ele>
  <time>2026-08-28T17:50:42Z</time>
  <course>0.0</course>
  <speed>0.0</speed>
  <fix>3d</fix>
</trkpt>
<trkpt lat="40.071375" lon="-105.2297889">
  <ele>1582.99</ele>
  <time>2026-08-28T17:50:42Z</time>
  <course>247.11</course>
  <speed>0.022360679774997897</speed>
  <fix>3d</fix>
</trkpt>
<trkpt lat="40.0713749" lon="-105.229789">
  <ele>1583.0</ele>
  <time>2026-08-28T17:50:42Z</time>
  <course>0.0</course>
  <speed>0.0</speed>
  <fix>3d</fix>
</trkpt>
<trkpt lat="40.071375" lon="-105.2297889">
  <ele>1582.99</ele>
  <time>2026-08-28T17:50:42Z</time>
  <course>247.11</course>
  <speed>0.02</speed>
  <fix>3d</fix>
</trkpt>
<trkpt lat="40.0713749" lon="-105.229789">
  <ele>1583.0</ele>
  <time>2026-08-28T17:50:42Z</time>
  <course>0.0</course>
  <speed>0.0</speed>
  <fix>3d</fix>
</trkpt>
<trkpt lat="40.071375" lon="-105.2297889">
  <ele>1582.99</ele>
  <time>2026-08-28T17:50:42Z</time>
  <course>247.11</course>
  <speed>0.02</speed>
  <fix>3d</fix>
</trkpt>
<trkpt lat="40.0713749" lon="-105.229789">
  <ele>1583.0</ele>
  <time>2026-08-28T17:50:42Z</time>
  <course>0.0</course>
  <speed>0.0</speed>
  <fix>3d</fix>
</trkpt>
<trkpt lat="40.071375" lon="-105.2297889">
  <ele>1582.98</ele>
  <time>2026-08-28T17:50:42Z</time>
  <course>247.11</course>
  <speed>0.02</speed>
  <fix>3d</fix>
</trkpt>
<trkpt lat="40.0713749" lon="-105.229789">
  <ele>1583.0</ele>
  <time>2026-08-28T17:50:42Z</time>
  <course>0.0</course>
  <speed>0.0</speed>
  <fix>3d</fix>
</trkpt>
<trkpt lat="40.071375" lon="-105.2297889">
  <ele>1582.98</ele>
  <time>2026-08-28T17:50:42Z</time>
  <course>247.11</course>
  <speed>0.022360679774997897</speed>
  <fix>3d</fix>
</trkpt>
<trkpt lat="40.0713749" lon="-105.229789">
  <ele>1583.0</ele>
  <time>2026-08-28T17:50:42Z</time>
  <course>0.0</course>
  <speed>0.0</speed>
  <fix>3d</fix>
</trkpt>
<trkpt lat="40.071375" lon="-105.2297889">
  <ele>1582.97</ele>
  <time>2026-08-28T17:50:42Z</time>
  <course>247.11</course>
  <speed>0.02</speed>
  <fix>3d</fix>
</trkpt>
<trkpt lat="40.0713749" lon="-105.229789">
  <ele>1583.0</ele>
  <time>2026-08-28T17:50:42Z</time>
  <course>0.0</course>
  <speed>0.0</speed>
  <fix>3d</fix>
</trkpt>
<trkpt lat="40.071375" lon="-105.2297889">
  <ele>1582.97</ele>
  <time>2026-08-28T17:50:42Z</time>
  <course>247.11</course>
  <speed>0.022360679774997897</speed>
  <fix>3d</fix>
</trkpt>
<trkpt lat="40.0713749" lon="-105.229789">
  <ele>1583.0</ele>
  <time>2026-08-28T17:50:42Z</time>
  <course>0.0</course>
  <speed>0.0</speed>
  <fix>3d</fix>
</trkpt>
<trkpt lat="40.071375" lon="-105.2297889">
  <ele>1582.96</ele>
  <time>2026-08-28T17:50:42Z</time>
  <course>247.11</course>
  <speed>0.022360679774997897</speed>
  <fix>3d</fix>
</trkpt>
<trkpt lat="40.0713749" lon="-105.229789">
  <ele>1583.0</ele>
  <time>2026-08-28T17:50:42Z</time>
  <course>0.0</course>
  <speed>0.0</speed>
  <fix>3d</fix>
</trkpt>
<trkpt lat="40.071375" lon="-105.2297889">
  <ele>1582.96</ele>
  <time>2026-08-28T17:50:42Z</time>
  <course>247.11</course>
  <speed>0.022360679774997897</speed>
  <fix>3d</fix>
</trkpt>
<trkpt lat="40.0713749" lon="-105.229789">
  <ele>1583.0</ele>
  <time>2026-08-28T17:50:42Z</time>
  <course>0.0</course>
  <speed>0.0</speed>
  <fix>3d</fix>
</trkpt>
<trkpt lat="40.071375" lon="-105.2297889">
  <ele>1582.95</ele>
  <time>2026-08-28T17:50:42Z</time>
  <course>247.11</course>
  <speed>0.022360679774997897</speed>
  <fix>3d</fix>
</trkpt>
<trkpt lat="40.0713749" lon="-105.229789">
  <ele>1583.0</ele>
  <time>2026-08-28T17:50:42Z</time>
  <course>0.0</course>
  <speed>0.0</speed>
  <fix>3d</fix>
</trkpt>
<trkpt lat="40.0713751" lon="-105.2297889">
  <ele>1582.95</ele>
  <time>2026-08-28T17:50:42Z</time>
  <course>247.11</course>
  <speed>0.022360679774997897</speed>
  <fix>3d</fix>
</trkpt>
<trkpt lat="40.0713749" lon="-105.229789">
  <ele>1583.0</ele>
  <time>2026-08-28T17:50:42Z</time>
  <course>0.0</course>
  <speed>0.0</speed>
  <fix>3d</fix>
</trkpt>
<trkpt lat="40.071375" lon="-105.2297889">
  <ele>1582.95</ele>
  <time>2026-08-28T17:50:42Z</time>
  <course>247.11</course>
  <speed>0.022360679774997897</speed>
  <fix>3d</fix>
</trkpt>
<trkpt lat="40.0713749" lon="-105.229789">
  <ele>1583.0</ele>
  <time>2026-08-28T17:50:42Z</time>
  <course>0.0</course>
  <speed>0.0</speed>
  <fix>3d</fix>
</trkpt>
<trkpt lat="40.0713751" lon="-105.2297889">
  <ele>1582.95</ele>
  <time>2026-08-28T17:50:42Z</time>
  <course>247.11</course>
  <speed>0.022360679774997897</speed>
  <fix>3d</fix>
</trkpt>
<trkpt lat="40.0713749" lon="-105.229789">
  <ele>1583.0</ele>
  <time>2026-08-28T17:50:42Z</time>
  <course>0.0</course>
  <speed>0.0</speed>
  <fix>3d</fix>
</trkpt>
<trkpt lat="40.071375" lon="-105.2297889">
  <ele>1582.95</ele>
  <time>2026-08-28T17:50:42Z</time>
  <course>247.11</course>
  <speed>0.02</speed>
  <fix>3d</fix>
</trkpt>
<trkpt lat="40.0713749" lon="-105.229789">
  <ele>1583.0</ele>
  <time>2026-08-28T17:50:42Z</time>
  <course>0.0</course>
  <speed>0.0</speed>
  <fix>3d</fix>
</trkpt>
<trkpt lat="40.071375" lon="-105.2297889">
  <ele>1582.95</ele>
  <time>2026-08-28T17:50:42Z</time>
  <course>247.1</course>
  <speed>0.022360679774997897</speed>
  <fix>3d</fix>
</trkpt>
<trkpt lat="40.0713749" lon="-105.229789">
  <ele>1583.0</ele>
  <time>2026-08-28T17:50:42Z</time>
  <course>0.0</course>
  <speed>0.0</speed>
  <fix>3d</fix>
</trkpt>
<trkpt lat="40.071375" lon="-105.2297889">
  <ele>1582.95</ele>
  <time>2026-08-28T17:50:42Z</time>
  <course>247.1</course>
  <speed>0.02</speed>
  <fix>3d</fix>
</trkpt>
<trkpt lat="40.0713749" lon="-105.229789">
  <ele>1583.0</ele>
  <time>2026-08-28T17:50:42Z</time>
  <course>0.0</course>
  <speed>0.0</speed>
  <fix>3d</fix>
</trkpt>
<trkpt lat="40.071375" lon="-105.2297889">
  <ele>1582.95</ele>
  <time>2026-08-28T17:50:42Z</time>
  <course>247.1</course>
  <speed>0.02</speed>
  <fix>3d</fix>
</trkpt>
<trkpt lat="40.0713749" lon="-105.229789">
  <ele>1583.0</ele>
  <time>2026-08-28T17:50:42Z</time>
  <course>0.0</course>
  <speed>0.0</speed>
  <fix>3d</fix>
</trkpt>
<trkpt lat="40.071375" lon="-105.2297889">
  <ele>1582.95</ele>
  <time>2026-08-28T17:50:42Z</time>
  <course>247.1</course>
  <speed>0.02</speed>
  <fix>3d</fix>
</trkpt>
<trkpt lat="40.0713749" lon="-105.229789">
  <ele>1583.0</ele>
  <time>2026-08-28T17:50:42Z</time>
  <course>0.0</course>
  <speed>0.0</speed>
  <fix>3d</fix>
</trkpt>
<trkpt lat="40.071375" lon="-105.2297889">
  <ele>1582.96</ele>
  <time>2026-08-28T17:50:42Z</time>
  <course>247.1</course>
  <speed>0.02</speed>
  <fix>3d</fix>
</trkpt>
<trkpt lat="40.0713749" lon="-105.229789">
  <ele>1583.0</ele>
  <time>2026-08-28T17:50:42Z</time>
  <course>0.0</course>
  <speed>0.0</speed>
  <fix>3d</fix>
</trkpt>
<trkpt lat="40.071375" lon="-105.2297889">
  <ele>1582.96</ele>
  <time>2026-08-28T17:50:42Z</time>
  <course>247.1</course>
  <speed>0.02</speed>
  <fix>3d</fix>
</trkpt>
<trkpt lat="40.0713749" lon="-105.229789">
  <ele>1583.0</ele>
  <time>2026-08-28T17:50:42Z</time>
  <course>0.0</course>
  <speed>0.0</speed>
  <fix>3d</fix>
</trkpt>
<trkpt lat="40.071375" lon="-105.2297889">
  <ele>1582.97</ele>
  <time>2026-08-28T17:50:42Z</time>
  <course>247.1</course>
  <speed>0.02</speed>
  <fix>3d</fix>
</trkpt>
<trkpt lat="40.0713749" lon="-105.229789">
  <ele>1583.0</ele>
  <time>2026-08-28T17:50:42Z</time>
  <course>0.0</course>
  <speed>0.0</speed>
  <fix>3d</fix>
</trkpt>
<trkpt lat="40.071375" lon="-105.2297889">
  <ele>1582.97</ele>
  <time>2026-08-28T17:50:42Z</time>
  <course>247.1</course>
  <speed>0.02</speed>
  <fix>3d</fix>
</trkpt>
<trkpt lat="40.0713749" lon="-105.229789">
  <ele>1583.0</ele>
  <time>2026-08-28T17:50:42Z</time>
  <course>0.0</course>
  <speed>0.0</speed>
  <fix>3d</fix>
</trkpt>
<trkpt lat="40.071375" lon="-105.2297889">
  <ele>1582.97</ele>
  <time>2026-08-28T17:50:42Z</time>
  <course>247.1</course>
  <speed>0.02</speed>
  <fix>3d</fix>
</trkpt>
<trkpt lat="40.0713749" lon="-105.229789">
  <ele>1583.0</ele>
  <time>2026-08-28T17:50:42Z</time>
  <course>0.0</course>
  <speed>0.0</speed>
  <fix>3d</fix>
</trkpt>
<trkpt lat="40.071375" lon="-105.2297889">
  <ele>1582.97</ele>
  <time>2026-08-28T17:50:42Z</time>
  <course>247.1</course>
  <speed>0.02</speed>
  <fix>3d</fix>
</trkpt>
<trkpt lat="40.0713749" lon="-105.229789">
  <ele>1583.0</ele>
  <time>2026-08-28T17:50:42Z</time>
  <course>0.0</course>
  <speed>0.0</speed>
  <fix>3d</fix>
</trkpt>
<trkpt lat="40.071375" lon="-105.2297889">
  <ele>1582.97</ele>
  <time>2026-08-28T17:50:42Z</time>
  <course>247.1</course>
  <speed>0.02</speed>
  <fix>3d</fix>
</trkpt>
<trkpt lat="40.0713749" lon="-105.229789">
  <ele>1583.0</ele>
  <time>2026-08-28T17:50:42Z</time>
  <course>0.0</course>
  <speed>0.0</speed>
  <fix>3d</fix>
</trkpt>
<trkpt lat="40.071375" lon="-105.2297889">
  <ele>1582.97</ele>
  <time>2026-08-28T17:50:42Z</time>
  <course>247.1</course>
  <speed>0.02</speed>
  <fix>3d</fix>
</trkpt>
<trkpt lat="40.0713749" lon="-105.229789">
  <ele>1583.0</ele>
  <time>2026-08-28T17:50:42Z</time>
  <course>0.0</course>
  <speed>0.0</speed>
  <fix>3d</fix>
</trkpt>
<trkpt lat="40.071375" lon="-105.2297889">
  <ele>1582.97</ele>
  <time>2026-08-28T17:50:42Z</time>
  <course>247.1</course>
  <speed>0.022360679774997897</speed>
  <fix>3d</fix>
</trkpt>
<trkpt lat="40.0713749" lon="-105.229789">
  <ele>1583.0</ele>
  <time>2026-08-28T17:50:42Z</time>
  <course>0.0</course>
  <speed>0.0</speed>
  <fix>3d</fix>
</trkpt>
<trkpt lat="40.071375" lon="-105.2297889">
  <ele>1582.96</ele>
  <time>2026-08-28T17:50:42Z</time>
  <course>247.1</course>
  <speed>0.02</speed>
  <fix>3d</fix>
</trkpt>
<trkpt lat="40.0713749" lon="-105.229789">
  <ele>1583.0</ele>
  <time>2026-08-28T17:50:42Z</time>
  <course>0.0</course>
  <speed>0.0</speed>
  <fix>3d</fix>
</trkpt>
<trkpt lat="40.0713751" lon="-105.2297889">
  <ele>1582.95</ele>
  <time>2026-08-28T17:50:42Z</time>
  <course>247.1</course>
  <speed>0.022360679774997897</speed>
  <fix>3d</fix>
</trkpt>
<trkpt lat="40.0713749" lon="-105.229789">
  <ele>1583.0</ele>
  <time>2026-08-28T17:50:42Z</time>
  <course>0.0</course>
  <speed>0.0</speed>
  <fix>3d</fix>
</trkpt>
<trkpt lat="40.071375" lon="-105.2297889">
  <ele>1582.95</ele>
  <time>2026-08-28T17:50:42Z</time>
  <course>247.1</course>
  <speed>0.022360679774997897</speed>
  <fix>3d</fix>
</trkpt>
<trkpt lat="40.0713749" lon="-105.229789">
  <ele>1583.0</ele>
  <time>2026-08-28T17:50:42Z</time>
  <course>0.0</course>
  <speed>0.0</speed>
  <fix>3d</fix>
</trkpt>
<trkpt lat="40.0713751" lon="-105.2297889">
  <ele>1582.94</ele>
  <time>2026-08-28T17:50:42Z</time>
  <course>247.1</course>
  <speed>0.022360679774997897</speed>
  <fix>3d</fix>
</trkpt>
<trkpt lat="40.0713749" lon="-105.229789">
  <ele>1583.0</ele>
  <time>2026-08-28T17:50:42Z</time>
  <course>0.0</course>
  <speed>0.0</speed>
  <fix>3d</fix>
</trkpt>
<trkpt lat="40.071375" lon="-105.2297889">
  <ele>1582.93</ele>
  <time>2026-08-28T17:50:42Z</time>
  <course>247.1</course>
  <speed>0.022360679774997897</speed>
  <fix>3d</fix>
</trkpt>
<trkpt lat="40.0713749" lon="-105.229789">
  <ele>1583.0</ele>
  <time>2026-08-28T17:50:42Z</time>
  <course>0.0</course>
  <speed>0.0</speed>
  <fix>3d</fix>
</trkpt>
<trkpt lat="40.0713751" lon="-105.2297889">
  <ele>1582.93</ele>
  <time>2026-08-28T17:50:42Z</time>
  <course>247.1</course>
  <speed>0.022360679774997897</speed>
  <fix>3d</fix>
</trkpt>
<trkpt lat="40.0713749" lon="-105.229789">
  <ele>1583.0</ele>
  <time>2026-08-28T17:50:42Z</time>
  <course>0.0</course>
  <speed>0.0</speed>
  <fix>3d</fix>
</trkpt>
<trkpt lat="40.071375" lon="-105.2297889">
  <ele>1582.94</ele>
  <time>2026-08-28T17:50:42Z</time>
  <course>247.1</course>
  <speed>0.022360679774997897</speed>
  <fix>3d</fix>
</trkpt>
<trkpt lat="40.0713749" lon="-105.229789">
  <ele>1583.0</ele>
  <time>2026-08-28T17:50:42Z</time>
  <course>0.0</course>
  <speed>0.0</speed>
  <fix>3d</fix>
</trkpt>
<trkpt lat="40.0713751" lon="-105.2297889">
  <ele>1582.94</ele>
  <time>2026-08-28T17:50:42Z</time>
  <course>247.1</course>
  <speed>0.022360679774997897</speed>
  <fix>3d</fix>
</trkpt>
<trkpt lat="40.0713749" lon="-105.229789">
  <ele>1583.0</ele>
  <time>2026-08-28T17:50:42Z</time>
  <course>0.0</course>
  <speed>0.0</speed>
  <fix>3d</fix>
</trkpt>
<trkpt lat="40.071375" lon="-105.2297889">
  <ele>1582.95</ele>
  <time>2026-08-28T17:50:42Z</time>
  <course>247.1</course>
  <speed>0.022360679774997897</speed>
  <fix>3d</fix>
</trkpt>
<trkpt lat="40.0713749" lon="-105.229789">
  <ele>1583.0</ele>
  <time>2026-08-28T17:50:42Z</time>
  <course>0.0</course>
  <speed>0.0</speed>
  <fix>3d</fix>
</trkpt>
<trkpt lat="40.071375" lon="-105.2297889">
  <ele>1582.95</ele>
  <time>2026-08-28T17:50:42Z</time>
  <course>247.1</course>
  <speed>0.022360679774997897</speed>
  <fix>3d</fix>
</trkpt>
<trkpt lat="40.0713749" lon="-105.229789">
  <ele>1583.0</ele>
  <time>2026-08-28T17:50:42Z</time>
  <course>0.0</course>
  <speed>0.0</speed>
  <fix>3d</fix>
</trkpt>
<trkpt lat="40.071375" lon="-105.2297889">
  <ele>1582.96</ele>
  <time>2026-08-28T17:50:42Z</time>
  <course>247.1</course>
  <speed>0.022360679774997897</speed>
  <fix>3d</fix>
</trkpt>
<trkpt lat="40.0713749" lon="-105.229789">
  <ele>1583.0</ele>
  <time>2026-08-28T17:50:42Z</time>
  <course>0.0</course>
  <speed>0.0</speed>
  <fix>3d</fix>
</trkpt>
<trkpt lat="40.071375" lon="-105.2297889">
  <ele>1582.97</ele>
  <time>2026-08-28T17:50:42Z</time>
  <course>247.1</course>
  <speed>0.022360679774997897</speed>
  <fix>3d</fix>
</trkpt>
<trkpt lat="40.0713749" lon="-105.229789">
  <ele>1583.0</ele>
  <time>2026-08-28T17:50:42Z</time>
  <course>0.0</course>
  <speed>0.0</speed>
  <fix>3d</fix>
</trkpt>
<trkpt lat="40.071375" lon="-105.2297889">
  <ele>1582.98</ele>
  <time>2026-08-28T17:50:42Z</time>
  <course>247.1</course>
  <speed>0.022360679774997897</speed>
  <fix>3d</fix>
</trkpt>
<trkpt lat="40.0713749" lon="-105.229789">
  <ele>1583.0</ele>
  <time>2026-08-28T17:50:42Z</time>
  <course>0.0</course>
  <speed>0.0</speed>
  <fix>3d</fix>
</trkpt>
<trkpt lat="40.071375" lon="-105.2297889">
  <ele>1582.98</ele>
  <time>2026-08-28T17:50:42Z</time>
  <course>247.1</course>
  <speed>0.022360679774997897</speed>
  <fix>3d</fix>
</trkpt>
<trkpt lat="40.0713749" lon="-105.229789">
  <ele>1583.0</ele>
  <time>2026-08-28T17:50:42Z</time>
  <course>0.0</course>
  <speed>0.0</speed>
  <fix>3d</fix>
</trkpt>
<trkpt lat="40.071375" lon="-105.2297889">
  <ele>1582.99</ele>
  <time>2026-08-28T17:50:42Z</time>
  <course>247.1</course>
  <speed>0.022360679774997897</speed>
  <fix>3d</fix>
</trkpt>
<trkpt lat="40.0713749" lon="-105.229789">
  <ele>1583.0</ele>
  <time>2026-08-28T17:50:42Z</time>
  <course>0.0</course>
  <speed>0.0</speed>
  <fix>3d</fix>
</trkpt>
<trkpt lat="40.071375" lon="-105.2297889">
  <ele>1582.99</ele>
  <time>2026-08-28T17:50:42Z</time>
  <course>247.1</course>
  <speed>0.022360679774997897</speed>
  <fix>3d</fix>
</trkpt>
<trkpt lat="40.0713749" lon="-105.229789">
  <ele>1583.0</ele>
  <time>2026-08-28T17:50:42Z</time>
  <course>0.0</course>
  <speed>0.0</speed>
  <fix>3d</fix>
</trkpt>
<trkpt lat="40.071375" lon="-105.2297889">
  <ele>1582.99</ele>
  <time>2026-08-28T17:50:42Z</time>
  <course>247.1</course>
  <speed>0.022360679774997897</speed>
  <fix>3d</fix>
</trkpt>
<trkpt lat="40.0713749" lon="-105.229789">
  <ele>1583.0</ele>
  <time>2026-08-28T17:50:42Z</time>
  <course>0.0</course>
  <speed>0.0</speed>
  <fix>3d</fix>
</trkpt>
<trkpt lat="40.071375" lon="-105.2297889">
  <ele>1583.0</ele>
  <time>2026-08-28T17:50:42Z</time>
  <course>247.1</course>
  <speed>0.022360679774997897</speed>
  <fix>3d</fix>
</trkpt>
<trkpt lat="40.0713749" lon="-105.229789">
  <ele>1583.0</ele>
  <time>2026-08-28T17:50:42Z</time>
  <course>0.0</course>
  <speed>0.0</speed>
  <fix>3d</fix>
</trkpt>
<trkpt lat="40.071375" lon="-105.2297889">
  <ele>1583.0</ele>
  <time>2026-08-28T17:50:42Z</time>
  <course>247.1</course>
  <speed>0.022360679774997897</speed>
  <fix>3d</fix>
</trkpt>
<trkpt lat="40.0713749" lon="-105.229789">
  <ele>1583.0</ele>
  <time>2026-08-28T17:50:42Z</time>
  <course>0.0</course>
  <speed>0.0</speed>
  <fix>3d</fix>
</trkpt>
<trkpt lat="40.071375" lon="-105.2297889">
  <ele>1583.0</ele>
  <time>2026-08-28T17:50:42Z</time>
  <course>247.1</course>
  <speed>0.022360679774997897</speed>
  <fix>3d</fix>
</trkpt>
<trkpt lat="40.0713749" lon="-105.229789">
  <ele>1583.0</ele>
  <time>2026-08-28T17:50:42Z</time>
  <course>0.0</course>
  <speed>0.0</speed>
  <fix>3d</fix>
</trkpt>
<trkpt lat="40.071375" lon="-105.2297889">
  <ele>1583.0</ele>
  <time>2026-08-28T17:50:42Z</time>
  <course>247.1</course>
  <speed>0.022360679774997897</speed>
  <fix>3d</fix>
</trkpt>
<trkpt lat="40.0713749" lon="-105.229789">
  <ele>1583.0</ele>
  <time>2026-08-28T17:50:42Z</time>
  <course>0.0</course>
  <speed>0.0</speed>
  <fix>3d</fix>
</trkpt>
<trkpt lat="40.071375" lon="-105.2297889">
  <ele>1583.0</ele>
  <time>2026-08-28T17:50:42Z</time>
  <course>247.1</course>
  <speed>0.022360679774997897</speed>
  <fix>3d</fix>
</trkpt>
<trkpt lat="40.0713749" lon="-105.229789">
  <ele>1583.0</ele>
  <time>2026-08-28T17:50:42Z</time>
  <course>0.0</course>
  <speed>0.0</speed>
  <fix>3d</fix>
</trkpt>
<trkpt lat="40.071375" lon="-105.2297889">
  <ele>1583.0</ele>
  <time>2026-08-28T17:50:42Z</time>
  <course>247.1</course>
  <speed>0.022360679774997897</speed>
  <fix>3d</fix>
</trkpt>
<trkpt lat="40.0713749" lon="-105.229789">
  <ele>1583.0</ele>
  <time>2026-08-28T17:50:42Z</time>
  <course>0.0</course>
  <speed>0.0</speed>
  <fix>3d</fix>
</trkpt>
<trkpt lat="40.0713751" lon="-105.2297889">
  <ele>1583.01</ele>
  <time>2026-08-28T17:50:42Z</time>
  <course>247.1</course>
  <speed>0.022360679774997897</speed>
  <fix>3d</fix>
</trkpt>
<trkpt lat="40.0713749" lon="-105.229789">
  <ele>1583.0</ele>
  <time>2026-08-28T17:50:42Z</time>
  <course>0.0</course>
  <speed>0.0</speed>
  <fix>3d</fix>
</trkpt>
<trkpt lat="40.071375" lon="-105.2297889">
  <ele>1583.01</ele>
  <time>2026-08-28T17:50:42Z</time>
  <course>247.1</course>
  <speed>0.022360679774997897</speed>
  <fix>3d</fix>
</trkpt>
<trkpt lat="40.0713749" lon="-105.229789">
  <ele>1583.0</ele>
  <time>2026-08-28T17:50:42Z</time>
  <course>0.0</course>
  <speed>0.0</speed>
  <fix>3d</fix>
</trkpt>
<trkpt lat="40.0713751" lon="-105.2297889">
  <ele>1583.01</ele>
  <time>2026-08-28T17:50:42Z</time>
  <course>247.1</course>
  <speed>0.022360679774997897</speed>
  <fix>3d</fix>
</trkpt>
<trkpt lat="40.0713749" lon="-105.229789">
  <ele>1583.0</ele>
  <time>2026-08-28T17:50:42Z</time>
  <course>0.0</course>
  <speed>0.0</speed>
  <fix>3d</fix>
</trkpt>
<trkpt lat="40.071375" lon="-105.2297889">
  <ele>1583.01</ele>
  <time>2026-08-28T17:50:42Z</time>
  <course>247.1</course>
  <speed>0.022360679774997897</speed>
  <fix>3d</fix>
</trkpt>
<trkpt lat="40.0713749" lon="-105.229789">
  <ele>1583.0</ele>
  <time>2026-08-28T17:50:42Z</time>
  <course>0.0</course>
  <speed>0.0</speed>
  <fix>3d</fix>
</trkpt>
<trkpt lat="40.0713751" lon="-105.2297889">
  <ele>1583.01</ele>
  <time>2026-08-28T17:50:42Z</time>
  <course>247.1</course>
  <speed>0.022360679774997897</speed>
  <fix>3d</fix>
</trkpt>
<trkpt lat="40.0713749" lon="-105.229789">
  <ele>1583.0</ele>
  <time>2026-08-28T17:50:43Z</time>
  <course>0.0</course>
  <speed>0.0</speed>
  <fix>3d</fix>
</trkpt>
<trkpt lat="40.071375" lon="-105.2297889">
  <ele>1583.01</ele>
  <time>2026-08-28T17:50:43Z</time>
  <course>247.1</course>
  <speed>0.022360679774997897</speed>
  <fix>3d</fix>
</trkpt>
<trkpt lat="40.0713749" lon="-105.229789">
  <ele>1583.0</ele>
  <time>2026-08-28T17:50:43Z</time>
  <course>0.0</course>
  <speed>0.0</speed>
  <fix>3d</fix>
</trkpt>
<trkpt lat="40.071375" lon="-105.2297889">
  <ele>1583.01</ele>
  <time>2026-08-28T17:50:43Z</time>
  <course>247.1</course>
  <speed>0.022360679774997897</speed>
  <fix>3d</fix>
</trkpt>
<trkpt lat="40.0713749" lon="-105.229789">
  <ele>1583.0</ele>
  <time>2026-08-28T17:50:43Z</time>
  <course>0.0</course>
  <speed>0.0</speed>
  <fix>3d</fix>
</trkpt>
<trkpt lat="40.071375" lon="-105.2297889">
  <ele>1583.01</ele>
  <time>2026-08-28T17:50:43Z</time>
  <course>247.1</course>
  <speed>0.022360679774997897</speed>
  <fix>3d</fix>
</trkpt>
<trkpt lat="40.0713749" lon="-105.229789">
  <ele>1583.0</ele>
  <time>2026-08-28T17:50:43Z</time>
  <course>0.0</course>
  <speed>0.0</speed>
  <fix>3d</fix>
</trkpt>
<trkpt lat="40.071375" lon="-105.2297889">
  <ele>1583.01</ele>
  <time>2026-08-28T17:50:43Z</time>
  <course>247.1</course>
  <speed>0.022360679774997897</speed>
  <fix>3d</fix>
</trkpt>
<trkpt lat="40.0713749" lon="-105.229789">
  <ele>1583.0</ele>
  <time>2026-08-28T17:50:43Z</time>
  <course>0.0</course>
  <speed>0.0</speed>
  <fix>3d</fix>
</trkpt>
<trkpt lat="40.071375" lon="-105.2297889">
  <ele>1583.01</ele>
  <time>2026-08-28T17:50:43Z</time>
  <course>247.09</course>
  <speed>0.022360679774997897</speed>
  <fix>3d</fix>
</trkpt>
<trkpt lat="40.0713749" lon="-105.229789">
  <ele>1583.0</ele>
  <time>2026-08-28T17:50:43Z</time>
  <course>0.0</course>
  <speed>0.0</speed>
  <fix>3d</fix>
</trkpt>
<trkpt lat="40.071375" lon="-105.2297889">
  <ele>1583.01</ele>
  <time>2026-08-28T17:50:43Z</time>
  <course>247.09</course>
  <speed>0.022360679774997897</speed>
  <fix>3d</fix>
</trkpt>
<trkpt lat="40.0713749" lon="-105.229789">
  <ele>1583.0</ele>
  <time>2026-08-28T17:50:43Z</time>
  <course>0.0</course>
  <speed>0.0</speed>
  <fix>3d</fix>
</trkpt>
<trkpt lat="40.071375" lon="-105.2297889">
  <ele>1583.01</ele>
  <time>2026-08-28T17:50:43Z</time>
  <course>247.09</course>
  <speed>0.022360679774997897</speed>
  <fix>3d</fix>
</trkpt>
<trkpt lat="40.0713749" lon="-105.229789">
  <ele>1583.0</ele>
  <time>2026-08-28T17:50:43Z</time>
  <course>0.0</course>
  <speed>0.0</speed>
  <fix>3d</fix>
</trkpt>
<trkpt lat="40.071375" lon="-105.2297889">
  <ele>1583.01</ele>
  <time>2026-08-28T17:50:43Z</time>
  <course>247.09</course>
  <speed>0.022360679774997897</speed>
  <fix>3d</fix>
</trkpt>
<trkpt lat="40.0713749" lon="-105.229789">
  <ele>1583.0</ele>
  <time>2026-08-28T17:50:43Z</time>
  <course>0.0</course>
  <speed>0.0</speed>
  <fix>3d</fix>
</trkpt>
<trkpt lat="40.071375" lon="-105.2297889">
  <ele>1583.01</ele>
  <time>2026-08-28T17:50:43Z</time>
  <course>247.09</course>
  <speed>0.022360679774997897</speed>
  <fix>3d</fix>
</trkpt>
<trkpt lat="40.0713749" lon="-105.229789">
  <ele>1583.0</ele>
  <time>2026-08-28T17:50:43Z</time>
  <course>0.0</course>
  <speed>0.0</speed>
  <fix>3d</fix>
</trkpt>
<trkpt lat="40.071375" lon="-105.2297889">
  <ele>1583.01</ele>
  <time>2026-08-28T17:50:43Z</time>
  <course>247.09</course>
  <speed>0.022360679774997897</speed>
  <fix>3d</fix>
</trkpt>
<trkpt lat="40.0713749" lon="-105.229789">
  <ele>1583.0</ele>
  <time>2026-08-28T17:50:43Z</time>
  <course>0.0</course>
  <speed>0.0</speed>
  <fix>3d</fix>
</trkpt>
<trkpt lat="40.071375" lon="-105.2297889">
  <ele>1583.0</ele>
  <time>2026-08-28T17:50:43Z</time>
  <course>247.09</course>
  <speed>0.022360679774997897</speed>
  <fix>3d</fix>
</trkpt>
<trkpt lat="40.0713749" lon="-105.229789">
  <ele>1583.0</ele>
  <time>2026-08-28T17:50:43Z</time>
  <course>0.0</course>
  <speed>0.0</speed>
  <fix>3d</fix>
</trkpt>
<trkpt lat="40.071375" lon="-105.2297889">
  <ele>1583.0</ele>
  <time>2026-08-28T17:50:43Z</time>
  <course>247.09</course>
  <speed>0.022360679774997897</speed>
  <fix>3d</fix>
</trkpt>
<trkpt lat="40.0713749" lon="-105.229789">
  <ele>1583.0</ele>
  <time>2026-08-28T17:50:43Z</time>
  <course>0.0</course>
  <speed>0.0</speed>
  <fix>3d</fix>
</trkpt>
<trkpt lat="40.071375" lon="-105.2297889">
  <ele>1583.0</ele>
  <time>2026-08-28T17:50:43Z</time>
  <course>247.09</course>
  <speed>0.022360679774997897</speed>
  <fix>3d</fix>
</trkpt>
<trkpt lat="40.0713749" lon="-105.229789">
  <ele>1583.0</ele>
  <time>2026-08-28T17:50:43Z</time>
  <course>0.0</course>
  <speed>0.0</speed>
  <fix>3d</fix>
</trkpt>
<trkpt lat="40.071375" lon="-105.2297889">
  <ele>1583.0</ele>
  <time>2026-08-28T17:50:43Z</time>
  <course>247.09</course>
  <speed>0.022360679774997897</speed>
  <fix>3d</fix>
</trkpt>
<trkpt lat="40.0713749" lon="-105.229789">
  <ele>1583.0</ele>
  <time>2026-08-28T17:50:43Z</time>
  <course>0.0</course>
  <speed>0.0</speed>
  <fix>3d</fix>
</trkpt>
<trkpt lat="40.071375" lon="-105.2297889">
  <ele>1583.0</ele>
  <time>2026-08-28T17:50:43Z</time>
  <course>247.09</course>
  <speed>0.022360679774997897</speed>
  <fix>3d</fix>
</trkpt>
<trkpt lat="40.0713749" lon="-105.229789">
  <ele>1583.0</ele>
  <time>2026-08-28T17:50:43Z</time>
  <course>0.0</course>
  <speed>0.0</speed>
  <fix>3d</fix>
</trkpt>
<trkpt lat="40.0713751" lon="-105.2297889">
  <ele>1583.0</ele>
  <time>2026-08-28T17:50:43Z</time>
  <course>247.09</course>
  <speed>0.022360679774997897</speed>
  <fix>3d</fix>
</trkpt>
<trkpt lat="40.0713749" lon="-105.229789">
  <ele>1583.0</ele>
  <time>2026-08-28T17:50:43Z</time>
  <course>0.0</course>
  <speed>0.0</speed>
  <fix>3d</fix>
</trkpt>
<trkpt lat="40.071375" lon="-105.2297889">
  <ele>1583.0</ele>
  <time>2026-08-28T17:50:43Z</time>
  <course>247.09</course>
  <speed>0.022360679774997897</speed>
  <fix>3d</fix>
</trkpt>
<trkpt lat="40.0713749" lon="-105.229789">
  <ele>1583.0</ele>
  <time>2026-08-28T17:50:43Z</time>
  <course>0.0</course>
  <speed>0.0</speed>
  <fix>3d</fix>
</trkpt>
<trkpt lat="40.0713751" lon="-105.2297889">
  <ele>1583.0</ele>
  <time>2026-08-28T17:50:43Z</time>
  <course>247.09</course>
  <speed>0.022360679774997897</speed>
  <fix>3d</fix>
</trkpt>
<trkpt lat="40.0713749" lon="-105.229789">
  <ele>1583.0</ele>
  <time>2026-08-28T17:50:43Z</time>
  <course>0.0</course>
  <speed>0.0</speed>
  <fix>3d</fix>
</trkpt>
<trkpt lat="40.071375" lon="-105.2297889">
  <ele>1582.99</ele>
  <time>2026-08-28T17:50:43Z</time>
  <course>247.09</course>
  <speed>0.022360679774997897</speed>
  <fix>3d</fix>
</trkpt>
<trkpt lat="40.0713749" lon="-105.229789">
  <ele>1583.0</ele>
  <time>2026-08-28T17:50:43Z</time>
  <course>0.0</course>
  <speed>0.0</speed>
  <fix>3d</fix>
</trkpt>
<trkpt lat="40.0713751" lon="-105.2297889">
  <ele>1582.99</ele>
  <time>2026-08-28T17:50:43Z</time>
  <course>247.09</course>
  <speed>0.022360679774997897</speed>
  <fix>3d</fix>
</trkpt>
<trkpt lat="40.0713749" lon="-105.229789">
  <ele>1583.0</ele>
  <time>2026-08-28T17:50:43Z</time>
  <course>0.0</course>
  <speed>0.0</speed>
  <fix>3d</fix>
</trkpt>
<trkpt lat="40.071375" lon="-105.2297889">
  <ele>1582.99</ele>
  <time>2026-08-28T17:50:43Z</time>
  <course>247.09</course>
  <speed>0.022360679774997897</speed>
  <fix>3d</fix>
</trkpt>
<trkpt lat="40.0713749" lon="-105.229789">
  <ele>1583.0</ele>
  <time>2026-08-28T17:50:43Z</time>
  <course>0.0</course>
  <speed>0.0</speed>
  <fix>3d</fix>
</trkpt>
<trkpt lat="40.071375" lon="-105.2297889">
  <ele>1582.99</ele>
  <time>2026-08-28T17:50:43Z</time>
  <course>247.09</course>
  <speed>0.022360679774997897</speed>
  <fix>3d</fix>
</trkpt>
<trkpt lat="40.0713749" lon="-105.229789">
  <ele>1583.0</ele>
  <time>2026-08-28T17:50:43Z</time>
  <course>0.0</course>
  <speed>0.0</speed>
  <fix>3d</fix>
</trkpt>
<trkpt lat="40.071375" lon="-105.2297889">
  <ele>1582.99</ele>
  <time>2026-08-28T17:50:43Z</time>
  <course>247.09</course>
  <speed>0.022360679774997897</speed>
  <fix>3d</fix>
</trkpt>
<trkpt lat="40.0713749" lon="-105.229789">
  <ele>1583.0</ele>
  <time>2026-08-28T17:50:43Z</time>
  <course>0.0</course>
  <speed>0.0</speed>
  <fix>3d</fix>
</trkpt>
<trkpt lat="40.071375" lon="-105.2297889">
  <ele>1582.99</ele>
  <time>2026-08-28T17:50:43Z</time>
  <course>247.09</course>
  <speed>0.022360679774997897</speed>
  <fix>3d</fix>
</trkpt>
<trkpt lat="40.0713749" lon="-105.229789">
  <ele>1583.0</ele>
  <time>2026-08-28T17:50:43Z</time>
  <course>0.0</course>
  <speed>0.0</speed>
  <fix>3d</fix>
</trkpt>
<trkpt lat="40.071375" lon="-105.2297889">
  <ele>1582.99</ele>
  <time>2026-08-28T17:50:43Z</time>
  <course>247.09</course>
  <speed>0.022360679774997897</speed>
  <fix>3d</fix>
</trkpt>
<trkpt lat="40.0713749" lon="-105.229789">
  <ele>1583.0</ele>
  <time>2026-08-28T17:50:43Z</time>
  <course>0.0</course>
  <speed>0.0</speed>
  <fix>3d</fix>
</trkpt>
<trkpt lat="40.071375" lon="-105.2297889">
  <ele>1582.99</ele>
  <time>2026-08-28T17:50:43Z</time>
  <course>247.09</course>
  <speed>0.022360679774997897</speed>
  <fix>3d</fix>
</trkpt>
<trkpt lat="40.0713749" lon="-105.229789">
  <ele>1583.0</ele>
  <time>2026-08-28T17:50:43Z</time>
  <course>0.0</course>
  <speed>0.0</speed>
  <fix>3d</fix>
</trkpt>
<trkpt lat="40.071375" lon="-105.2297889">
  <ele>1582.99</ele>
  <time>2026-08-28T17:50:43Z</time>
  <course>247.09</course>
  <speed>0.022360679774997897</speed>
  <fix>3d</fix>
</trkpt>
<trkpt lat="40.0713749" lon="-105.229789">
  <ele>1583.0</ele>
  <time>2026-08-28T17:50:43Z</time>
  <course>0.0</course>
  <speed>0.0</speed>
  <fix>3d</fix>
</trkpt>
<trkpt lat="40.071375" lon="-105.2297889">
  <ele>1582.99</ele>
  <time>2026-08-28T17:50:43Z</time>
  <course>247.09</course>
  <speed>0.022360679774997897</speed>
  <fix>3d</fix>
</trkpt>
<trkpt lat="40.0713749" lon="-105.229789">
  <ele>1583.0</ele>
  <time>2026-08-28T17:50:43Z</time>
  <course>0.0</course>
  <speed>0.0</speed>
  <fix>3d</fix>
</trkpt>
<trkpt lat="40.071375" lon="-105.2297889">
  <ele>1582.99</ele>
  <time>2026-08-28T17:50:43Z</time>
  <course>247.09</course>
  <speed>0.022360679774997897</speed>
  <fix>3d</fix>
</trkpt>
<trkpt lat="40.0713749" lon="-105.229789">
  <ele>1583.0</ele>
  <time>2026-08-28T17:50:43Z</time>
  <course>0.0</course>
  <speed>0.0</speed>
  <fix>3d</fix>
</trkpt>
<trkpt lat="40.071375" lon="-105.2297889">
  <ele>1582.98</ele>
  <time>2026-08-28T17:50:43Z</time>
  <course>247.09</course>
  <speed>0.022360679774997897</speed>
  <fix>3d</fix>
</trkpt>
<trkpt lat="40.0713749" lon="-105.229789">
  <ele>1583.0</ele>
  <time>2026-08-28T17:50:43Z</time>
  <course>0.0</course>
  <speed>0.0</speed>
  <fix>3d</fix>
</trkpt>
<trkpt lat="40.071375" lon="-105.2297889">
  <ele>1582.98</ele>
  <time>2026-08-28T17:50:43Z</time>
  <course>247.09</course>
  <speed>0.022360679774997897</speed>
  <fix>3d</fix>
</trkpt>
<trkpt lat="40.0713749" lon="-105.229789">
  <ele>1583.0</ele>
  <time>2026-08-28T17:50:43Z</time>
  <course>0.0</course>
  <speed>0.0</speed>
  <fix>3d</fix>
</trkpt>
<trkpt lat="40.071375" lon="-105.2297889">
  <ele>1582.98</ele>
  <time>2026-08-28T17:50:43Z</time>
  <course>247.09</course>
  <speed>0.022360679774997897</speed>
  <fix>3d</fix>
</trkpt>
<trkpt lat="40.0713749" lon="-105.229789">
  <ele>1583.0</ele>
  <time>2026-08-28T17:50:43Z</time>
  <course>0.0</course>
  <speed>0.0</speed>
  <fix>3d</fix>
</trkpt>
<trkpt lat="40.071375" lon="-105.2297889">
  <ele>1582.98</ele>
  <time>2026-08-28T17:50:43Z</time>
  <course>247.09</course>
  <speed>0.022360679774997897</speed>
  <fix>3d</fix>
</trkpt>
<trkpt lat="40.0713749" lon="-105.229789">
  <ele>1583.0</ele>
  <time>2026-08-28T17:50:43Z</time>
  <course>0.0</course>
  <speed>0.0</speed>
  <fix>3d</fix>
</trkpt>
<trkpt lat="40.071375" lon="-105.2297889">
  <ele>1582.98</ele>
  <time>2026-08-28T17:50:43Z</time>
  <course>247.09</course>
  <speed>0.022360679774997897</speed>
  <fix>3d</fix>
</trkpt>
<trkpt lat="40.0713749" lon="-105.229789">
  <ele>1583.0</ele>
  <time>2026-08-28T17:50:43Z</time>
  <course>0.0</course>
  <speed>0.0</speed>
  <fix>3d</fix>
</trkpt>
<trkpt lat="40.071375" lon="-105.2297889">
  <ele>1582.99</ele>
  <time>2026-08-28T17:50:43Z</time>
  <course>247.09</course>
  <speed>0.022360679774997897</speed>
  <fix>3d</fix>
</trkpt>
<trkpt lat="40.0713749" lon="-105.229789">
  <ele>1583.0</ele>
  <time>2026-08-28T17:50:43Z</time>
  <course>0.0</course>
  <speed>0.0</speed>
  <fix>3d</fix>
</trkpt>
<trkpt lat="40.0713751" lon="-105.2297889">
  <ele>1582.98</ele>
  <time>2026-08-28T17:50:43Z</time>
  <course>247.09</course>
  <speed>0.022360679774997897</speed>
  <fix>3d</fix>
</trkpt>
<trkpt lat="40.0713749" lon="-105.229789">
  <ele>1583.0</ele>
  <time>2026-08-28T17:50:43Z</time>
  <course>0.0</course>
  <speed>0.0</speed>
  <fix>3d</fix>
</trkpt>
<trkpt lat="40.071375" lon="-105.2297889">
  <ele>1582.98</ele>
  <time>2026-08-28T17:50:43Z</time>
  <course>247.09</course>
  <speed>0.022360679774997897</speed>
  <fix>3d</fix>
</trkpt>
<trkpt lat="40.0713749" lon="-105.229789">
  <ele>1583.0</ele>
  <time>2026-08-28T17:50:43Z</time>
  <course>0.0</course>
  <speed>0.0</speed>
  <fix>3d</fix>
</trkpt>
<trkpt lat="40.0713751" lon="-105.2297889">
  <ele>1582.98</ele>
  <time>2026-08-28T17:50:43Z</time>
  <course>247.09</course>
  <speed>0.022360679774997897</speed>
  <fix>3d</fix>
</trkpt>
<trkpt lat="40.0713749" lon="-105.229789">
  <ele>1583.0</ele>
  <time>2026-08-28T17:50:43Z</time>
  <course>0.0</course>
  <speed>0.0</speed>
  <fix>3d</fix>
</trkpt>
<trkpt lat="40.071375" lon="-105.2297889">
  <ele>1582.98</ele>
  <time>2026-08-28T17:50:43Z</time>
  <course>247.09</course>
  <speed>0.022360679774997897</speed>
  <fix>3d</fix>
</trkpt>
<trkpt lat="40.0713749" lon="-105.229789">
  <ele>1583.0</ele>
  <time>2026-08-28T17:50:43Z</time>
  <course>0.0</course>
  <speed>0.0</speed>
  <fix>3d</fix>
</trkpt>
<trkpt lat="40.0713751" lon="-105.2297889">
  <ele>1582.97</ele>
  <time>2026-08-28T17:50:43Z</time>
  <course>247.09</course>
  <speed>0.022360679774997897</speed>
  <fix>3d</fix>
</trkpt>
<trkpt lat="40.0713749" lon="-105.229789">
  <ele>1583.0</ele>
  <time>2026-08-28T17:50:43Z</time>
  <course>0.0</course>
  <speed>0.0</speed>
  <fix>3d</fix>
</trkpt>
<trkpt lat="40.071375" lon="-105.2297889">
  <ele>1582.97</ele>
  <time>2026-08-28T17:50:43Z</time>
  <course>247.09</course>
  <speed>0.022360679774997897</speed>
  <fix>3d</fix>
</trkpt>
<trkpt lat="40.0713749" lon="-105.229789">
  <ele>1583.0</ele>
  <time>2026-08-28T17:50:43Z</time>
  <course>0.0</course>
  <speed>0.0</speed>
  <fix>3d</fix>
</trkpt>
<trkpt lat="40.0713751" lon="-105.2297889">
  <ele>1582.97</ele>
  <time>2026-08-28T17:50:43Z</time>
  <course>247.09</course>
  <speed>0.022360679774997897</speed>
  <fix>3d</fix>
</trkpt>
<trkpt lat="40.0713749" lon="-105.229789">
  <ele>1583.0</ele>
  <time>2026-08-28T17:50:43Z</time>
  <course>0.0</course>
  <speed>0.0</speed>
  <fix>3d</fix>
</trkpt>
<trkpt lat="40.071375" lon="-105.2297889">
  <ele>1582.97</ele>
  <time>2026-08-28T17:50:43Z</time>
  <course>247.09</course>
  <speed>0.022360679774997897</speed>
  <fix>3d</fix>
</trkpt>
<trkpt lat="40.0713749" lon="-105.229789">
  <ele>1583.0</ele>
  <time>2026-08-28T17:50:43Z</time>
  <course>0.0</course>
  <speed>0.0</speed>
  <fix>3d</fix>
</trkpt>
<trkpt lat="40.071375" lon="-105.2297889">
  <ele>1582.97</ele>
  <time>2026-08-28T17:50:43Z</time>
  <course>247.09</course>
  <speed>0.022360679774997897</speed>
  <fix>3d</fix>
</trkpt>
<trkpt lat="40.0713749" lon="-105.229789">
  <ele>1583.0</ele>
  <time>2026-08-28T17:50:43Z</time>
  <course>0.0</course>
  <speed>0.0</speed>
  <fix>3d</fix>
</trkpt>
<trkpt lat="40.071375" lon="-105.2297889">
  <ele>1582.97</ele>
  <time>2026-08-28T17:50:43Z</time>
  <course>247.09</course>
  <speed>0.022360679774997897</speed>
  <fix>3d</fix>
</trkpt>
<trkpt lat="40.0713749" lon="-105.229789">
  <ele>1583.0</ele>
  <time>2026-08-28T17:50:43Z</time>
  <course>0.0</course>
  <speed>0.0</speed>
  <fix>3d</fix>
</trkpt>
<trkpt lat="40.071375" lon="-105.2297889">
  <ele>1582.97</ele>
  <time>2026-08-28T17:50:43Z</time>
  <course>247.09</course>
  <speed>0.022360679774997897</speed>
  <fix>3d</fix>
</trkpt>
<trkpt lat="40.0713749" lon="-105.229789">
  <ele>1583.0</ele>
  <time>2026-08-28T17:50:43Z</time>
  <course>0.0</course>
  <speed>0.0</speed>
  <fix>3d</fix>
</trkpt>
<trkpt lat="40.071375" lon="-105.2297889">
  <ele>1582.98</ele>
  <time>2026-08-28T17:50:43Z</time>
  <course>247.09</course>
  <speed>0.022360679774997897</speed>
  <fix>3d</fix>
</trkpt>
<trkpt lat="40.0713749" lon="-105.229789">
  <ele>1583.0</ele>
  <time>2026-08-28T17:50:43Z</time>
  <course>0.0</course>
  <speed>0.0</speed>
  <fix>3d</fix>
</trkpt>
<trkpt lat="40.071375" lon="-105.2297889">
  <ele>1582.98</ele>
  <time>2026-08-28T17:50:43Z</time>
  <course>247.09</course>
  <speed>0.022360679774997897</speed>
  <fix>3d</fix>
</trkpt>
<trkpt lat="40.0713749" lon="-105.229789">
  <ele>1583.0</ele>
  <time>2026-08-28T17:50:43Z</time>
  <course>0.0</course>
  <speed>0.0</speed>
  <fix>3d</fix>
</trkpt>
<trkpt lat="40.071375" lon="-105.2297889">
  <ele>1582.98</ele>
  <time>2026-08-28T17:50:43Z</time>
  <course>247.09</course>
  <speed>0.022360679774997897</speed>
  <fix>3d</fix>
</trkpt>
<trkpt lat="40.0713749" lon="-105.229789">
  <ele>1583.0</ele>
  <time>2026-08-28T17:50:43Z</time>
  <course>0.0</course>
  <speed>0.0</speed>
  <fix>3d</fix>
</trkpt>
<trkpt lat="40.071375" lon="-105.2297889">
  <ele>1582.98</ele>
  <time>2026-08-28T17:50:43Z</time>
  <course>247.09</course>
  <speed>0.022360679774997897</speed>
  <fix>3d</fix>
</trkpt>
<trkpt lat="40.0713749" lon="-105.229789">
  <ele>1583.0</ele>
  <time>2026-08-28T17:50:43Z</time>
  <course>0.0</course>
  <speed>0.0</speed>
  <fix>3d</fix>
</trkpt>
<trkpt lat="40.071375" lon="-105.2297889">
  <ele>1582.98</ele>
  <time>2026-08-28T17:50:43Z</time>
  <course>247.09</course>
  <speed>0.022360679774997897</speed>
  <fix>3d</fix>
</trkpt>
<trkpt lat="40.0713749" lon="-105.229789">
  <ele>1583.0</ele>
  <time>2026-08-28T17:50:43Z</time>
  <course>0.0</course>
  <speed>0.0</speed>
  <fix>3d</fix>
</trkpt>
<trkpt lat="40.071375" lon="-105.2297889">
  <ele>1582.97</ele>
  <time>2026-08-28T17:50:43Z</time>
  <course>247.09</course>
  <speed>0.022360679774997897</speed>
  <fix>3d</fix>
</trkpt>
<trkpt lat="40.0713749" lon="-105.229789">
  <ele>1583.0</ele>
  <time>2026-08-28T17:50:43Z</time>
  <course>0.0</course>
  <speed>0.0</speed>
  <fix>3d</fix>
</trkpt>
<trkpt lat="40.071375" lon="-105.2297889">
  <ele>1582.97</ele>
  <time>2026-08-28T17:50:43Z</time>
  <course>247.09</course>
  <speed>0.022360679774997897</speed>
  <fix>3d</fix>
</trkpt>
<trkpt lat="40.0713749" lon="-105.229789">
  <ele>1583.0</ele>
  <time>2026-08-28T17:50:43Z</time>
  <course>0.0</course>
  <speed>0.0</speed>
  <fix>3d</fix>
</trkpt>
<trkpt lat="40.071375" lon="-105.2297889">
  <ele>1582.97</ele>
  <time>2026-08-28T17:50:43Z</time>
  <course>247.09</course>
  <speed>0.022360679774997897</speed>
  <fix>3d</fix>
</trkpt>
<trkpt lat="40.0713749" lon="-105.229789">
  <ele>1583.0</ele>
  <time>2026-08-28T17:50:43Z</time>
  <course>0.0</course>
  <speed>0.0</speed>
  <fix>3d</fix>
</trkpt>
<trkpt lat="40.071375" lon="-105.2297889">
  <ele>1582.97</ele>
  <time>2026-08-28T17:50:43Z</time>
  <course>247.09</course>
  <speed>0.022360679774997897</speed>
  <fix>3d</fix>
</trkpt>
<trkpt lat="40.0713749" lon="-105.229789">
  <ele>1583.0</ele>
  <time>2026-08-28T17:50:43Z</time>
  <course>0.0</course>
  <speed>0.0</speed>
  <fix>3d</fix>
</trkpt>
<trkpt lat="40.071375" lon="-105.2297889">
  <ele>1582.97</ele>
  <time>2026-08-28T17:50:43Z</time>
  <course>247.09</course>
  <speed>0.022360679774997897</speed>
  <fix>3d</fix>
</trkpt>
<trkpt lat="40.0713749" lon="-105.229789">
  <ele>1583.0</ele>
  <time>2026-08-28T17:50:43Z</time>
  <course>0.0</course>
  <speed>0.0</speed>
  <fix>3d</fix>
</trkpt>
<trkpt lat="40.071375" lon="-105.2297889">
  <ele>1582.97</ele>
  <time>2026-08-28T17:50:43Z</time>
  <course>247.09</course>
  <speed>0.022360679774997897</speed>
  <fix>3d</fix>
</trkpt>
<trkpt lat="40.0713749" lon="-105.229789">
  <ele>1583.0</ele>
  <time>2026-08-28T17:50:43Z</time>
  <course>0.0</course>
  <speed>0.0</speed>
  <fix>3d</fix>
</trkpt>
<trkpt lat="40.0713751" lon="-105.2297889">
  <ele>1582.97</ele>
  <time>2026-08-28T17:50:43Z</time>
  <course>247.09</course>
  <speed>0.022360679774997897</speed>
  <fix>3d</fix>
</trkpt>
<trkpt lat="40.0713749" lon="-105.229789">
  <ele>1583.0</ele>
  <time>2026-08-28T17:50:43Z</time>
  <course>0.0</course>
  <speed>0.0</speed>
  <fix>3d</fix>
</trkpt>
<trkpt lat="40.071375" lon="-105.2297889">
  <ele>1582.96</ele>
  <time>2026-08-28T17:50:43Z</time>
  <course>247.09</course>
  <speed>0.022360679774997897</speed>
  <fix>3d</fix>
</trkpt>
<trkpt lat="40.0713749" lon="-105.229789">
  <ele>1583.0</ele>
  <time>2026-08-28T17:50:43Z</time>
  <course>0.0</course>
  <speed>0.0</speed>
  <fix>3d</fix>
</trkpt>
<trkpt lat="40.0713751" lon="-105.2297889">
  <ele>1582.96</ele>
  <time>2026-08-28T17:50:43Z</time>
  <course>247.09</course>
  <speed>0.022360679774997897</speed>
  <fix>3d</fix>
</trkpt>
<trkpt lat="40.0713749" lon="-105.229789">
  <ele>1583.0</ele>
  <time>2026-08-28T17:50:43Z</time>
  <course>0.0</course>
  <speed>0.0</speed>
  <fix>3d</fix>
</trkpt>
<trkpt lat="40.071375" lon="-105.2297889">
  <ele>1582.96</ele>
  <time>2026-08-28T17:50:43Z</time>
  <course>247.09</course>
  <speed>0.022360679774997897</speed>
  <fix>3d</fix>
</trkpt>
<trkpt lat="40.0713749" lon="-105.229789">
  <ele>1583.0</ele>
  <time>2026-08-28T17:50:43Z</time>
  <course>0.0</course>
  <speed>0.0</speed>
  <fix>3d</fix>
</trkpt>
<trkpt lat="40.0713751" lon="-105.2297889">
  <ele>1582.95</ele>
  <time>2026-08-28T17:50:43Z</time>
  <course>247.09</course>
  <speed>0.022360679774997897</speed>
  <fix>3d</fix>
</trkpt>
<trkpt lat="40.0713749" lon="-105.229789">
  <ele>1583.0</ele>
  <time>2026-08-28T17:50:43Z</time>
  <course>0.0</course>
  <speed>0.0</speed>
  <fix>3d</fix>
</trkpt>
<trkpt lat="40.071375" lon="-105.2297889">
  <ele>1582.95</ele>
  <time>2026-08-28T17:50:43Z</time>
  <course>247.09</course>
  <speed>0.022360679774997897</speed>
  <fix>3d</fix>
</trkpt>
<trkpt lat="40.0713749" lon="-105.229789">
  <ele>1583.0</ele>
  <time>2026-08-28T17:50:43Z</time>
  <course>0.0</course>
  <speed>0.0</speed>
  <fix>3d</fix>
</trkpt>
<trkpt lat="40.071375" lon="-105.2297889">
  <ele>1582.94</ele>
  <time>2026-08-28T17:50:43Z</time>
  <course>247.09</course>
  <speed>0.022360679774997897</speed>
  <fix>3d</fix>
</trkpt>
<trkpt lat="40.0713749" lon="-105.229789">
  <ele>1583.0</ele>
  <time>2026-08-28T17:50:43Z</time>
  <course>0.0</course>
  <speed>0.0</speed>
  <fix>3d</fix>
</trkpt>
<trkpt lat="40.071375" lon="-105.2297889">
  <ele>1582.94</ele>
  <time>2026-08-28T17:50:43Z</time>
  <course>247.09</course>
  <speed>0.022360679774997897</speed>
  <fix>3d</fix>
</trkpt>
<trkpt lat="40.0713749" lon="-105.229789">
  <ele>1583.0</ele>
  <time>2026-08-28T17:50:43Z</time>
  <course>0.0</course>
  <speed>0.0</speed>
  <fix>3d</fix>
</trkpt>
<trkpt lat="40.071375" lon="-105.2297889">
  <ele>1582.93</ele>
  <time>2026-08-28T17:50:43Z</time>
  <course>247.09</course>
  <speed>0.022360679774997897</speed>
  <fix>3d</fix>
</trkpt>
<trkpt lat="40.0713749" lon="-105.229789">
  <ele>1583.0</ele>
  <time>2026-08-28T17:50:43Z</time>
  <course>0.0</course>
  <speed>0.0</speed>
  <fix>3d</fix>
</trkpt>
<trkpt lat="40.071375" lon="-105.2297889">
  <ele>1582.93</ele>
  <time>2026-08-28T17:50:43Z</time>
  <course>247.09</course>
  <speed>0.022360679774997897</speed>
  <fix>3d</fix>
</trkpt>
<trkpt lat="40.0713749" lon="-105.229789">
  <ele>1583.0</ele>
  <time>2026-08-28T17:50:43Z</time>
  <course>0.0</course>
  <speed>0.0</speed>
  <fix>3d</fix>
</trkpt>
<trkpt lat="40.071375" lon="-105.2297889">
  <ele>1582.93</ele>
  <time>2026-08-28T17:50:43Z</time>
  <course>247.09</course>
  <speed>0.022360679774997897</speed>
  <fix>3d</fix>
</trkpt>
<trkpt lat="40.0713749" lon="-105.229789">
  <ele>1583.0</ele>
  <time>2026-08-28T17:50:43Z</time>
  <course>0.0</course>
  <speed>0.0</speed>
  <fix>3d</fix>
</trkpt>
<trkpt lat="40.071375" lon="-105.2297889">
  <ele>1582.92</ele>
  <time>2026-08-28T17:50:43Z</time>
  <course>247.09</course>
  <speed>0.022360679774997897</speed>
  <fix>3d</fix>
</trkpt>
<trkpt lat="40.0713749" lon="-105.229789">
  <ele>1583.0</ele>
  <time>2026-08-28T17:50:43Z</time>
  <course>0.0</course>
  <speed>0.0</speed>
  <fix>3d</fix>
</trkpt>
<trkpt lat="40.071375" lon="-105.2297889">
  <ele>1582.93</ele>
  <time>2026-08-28T17:50:43Z</time>
  <course>247.09</course>
  <speed>0.022360679774997897</speed>
  <fix>3d</fix>
</trkpt>
<trkpt lat="40.0713749" lon="-105.229789">
  <ele>1583.0</ele>
  <time>2026-08-28T17:50:43Z</time>
  <course>0.0</course>
  <speed>0.0</speed>
  <fix>3d</fix>
</trkpt>
<trkpt lat="40.071375" lon="-105.2297889">
  <ele>1582.93</ele>
  <time>2026-08-28T17:50:43Z</time>
  <course>247.09</course>
  <speed>0.022360679774997897</speed>
  <fix>3d</fix>
</trkpt>
<trkpt lat="40.0713749" lon="-105.229789">
  <ele>1583.0</ele>
  <time>2026-08-28T17:50:43Z</time>
  <course>0.0</course>
  <speed>0.0</speed>
  <fix>3d</fix>
</trkpt>
<trkpt lat="40.0713751" lon="-105.2297889">
  <ele>1582.93</ele>
  <time>2026-08-28T17:50:43Z</time>
  <course>247.09</course>
  <speed>0.022360679774997897</speed>
  <fix>3d</fix>
</trkpt>
<trkpt lat="40.0713749" lon="-105.229789">
  <ele>1583.0</ele>
  <time>2026-08-28T17:50:43Z</time>
  <course>0.0</course>
  <speed>0.0</speed>
  <fix>3d</fix>
</trkpt>
<trkpt lat="40.071375" lon="-105.2297889">
  <ele>1582.94</ele>
  <time>2026-08-28T17:50:43Z</time>
  <course>247.09</course>
  <speed>0.022360679774997897</speed>
  <fix>3d</fix>
</trkpt>
<trkpt lat="40.0713749" lon="-105.229789">
  <ele>1583.0</ele>
  <time>2026-08-28T17:50:43Z</time>
  <course>0.0</course>
  <speed>0.0</speed>
  <fix>3d</fix>
</trkpt>
<trkpt lat="40.0713751" lon="-105.2297889">
  <ele>1582.95</ele>
  <time>2026-08-28T17:50:43Z</time>
  <course>247.09</course>
  <speed>0.022360679774997897</speed>
  <fix>3d</fix>
</trkpt>
<trkpt lat="40.0713749" lon="-105.229789">
  <ele>1583.0</ele>
  <time>2026-08-28T17:50:43Z</time>
  <course>0.0</course>
  <speed>0.0</speed>
  <fix>3d</fix>
</trkpt>
<trkpt lat="40.071375" lon="-105.2297889">
  <ele>1582.95</ele>
  <time>2026-08-28T17:50:43Z</time>
  <course>247.09</course>
  <speed>0.022360679774997897</speed>
  <fix>3d</fix>
</trkpt>
<trkpt lat="40.0713749" lon="-105.229789">
  <ele>1583.0</ele>
  <time>2026-08-28T17:50:43Z</time>
  <course>0.0</course>
  <speed>0.0</speed>
  <fix>3d</fix>
</trkpt>
<trkpt lat="40.0713751" lon="-105.2297889">
  <ele>1582.96</ele>
  <time>2026-08-28T17:50:43Z</time>
  <course>247.09</course>
  <speed>0.022360679774997897</speed>
  <fix>3d</fix>
</trkpt>
<trkpt lat="40.0713749" lon="-105.229789">
  <ele>1583.0</ele>
  <time>2026-08-28T17:50:43Z</time>
  <course>0.0</course>
  <speed>0.0</speed>
  <fix>3d</fix>
</trkpt>
<trkpt lat="40.071375" lon="-105.2297889">
  <ele>1582.97</ele>
  <time>2026-08-28T17:50:43Z</time>
  <course>247.09</course>
  <speed>0.022360679774997897</speed>
  <fix>3d</fix>
</trkpt>
<trkpt lat="40.0713749" lon="-105.229789">
  <ele>1583.0</ele>
  <time>2026-08-28T17:50:43Z</time>
  <course>0.0</course>
  <speed>0.0</speed>
  <fix>3d</fix>
</trkpt>
<trkpt lat="40.0713751" lon="-105.2297889">
  <ele>1582.97</ele>
  <time>2026-08-28T17:50:43Z</time>
  <course>247.09</course>
  <speed>0.022360679774997897</speed>
  <fix>3d</fix>
</trkpt>
<trkpt lat="40.0713749" lon="-105.229789">
  <ele>1583.0</ele>
  <time>2026-08-28T17:50:43Z</time>
  <course>0.0</course>
  <speed>0.0</speed>
  <fix>3d</fix>
</trkpt>
<trkpt lat="40.0713751" lon="-105.2297889">
  <ele>1582.97</ele>
  <time>2026-08-28T17:50:43Z</time>
  <course>247.09</course>
  <speed>0.022360679774997897</speed>
  <fix>3d</fix>
</trkpt>
<trkpt lat="40.0713749" lon="-105.229789">
  <ele>1583.0</ele>
  <time>2026-08-28T17:50:43Z</time>
  <course>0.0</course>
  <speed>0.0</speed>
  <fix>3d</fix>
</trkpt>
<trkpt lat="40.0713751" lon="-105.2297889">
  <ele>1582.98</ele>
  <time>2026-08-28T17:50:43Z</time>
  <course>247.09</course>
  <speed>0.022360679774997897</speed>
  <fix>3d</fix>
</trkpt>
<trkpt lat="40.0713749" lon="-105.229789">
  <ele>1583.0</ele>
  <time>2026-08-28T17:50:43Z</time>
  <course>0.0</course>
  <speed>0.0</speed>
  <fix>3d</fix>
</trkpt>
<trkpt lat="40.0713751" lon="-105.2297889">
  <ele>1582.98</ele>
  <time>2026-08-28T17:50:43Z</time>
  <course>247.09</course>
  <speed>0.022360679774997897</speed>
  <fix>3d</fix>
</trkpt>
<trkpt lat="40.0713749" lon="-105.229789">
  <ele>1583.0</ele>
  <time>2026-08-28T17:50:43Z</time>
  <course>0.0</course>
  <speed>0.0</speed>
  <fix>3d</fix>
</trkpt>
<trkpt lat="40.0713751" lon="-105.2297889">
  <ele>1582.98</ele>
  <time>2026-08-28T17:50:43Z</time>
  <course>247.09</course>
  <speed>0.022360679774997897</speed>
  <fix>3d</fix>
</trkpt>
<trkpt lat="40.0713749" lon="-105.229789">
  <ele>1583.0</ele>
  <time>2026-08-28T17:50:43Z</time>
  <course>0.0</course>
  <speed>0.0</speed>
  <fix>3d</fix>
</trkpt>
<trkpt lat="40.0713751" lon="-105.2297889">
  <ele>1582.98</ele>
  <time>2026-08-28T17:50:43Z</time>
  <course>247.09</course>
  <speed>0.022360679774997897</speed>
  <fix>3d</fix>
</trkpt>
<trkpt lat="40.0713749" lon="-105.229789">
  <ele>1583.0</ele>
  <time>2026-08-28T17:50:43Z</time>
  <course>0.0</course>
  <speed>0.0</speed>
  <fix>3d</fix>
</trkpt>
<trkpt lat="40.0713751" lon="-105.2297889">
  <ele>1582.98</ele>
  <time>2026-08-28T17:50:43Z</time>
  <course>247.09</course>
  <speed>0.022360679774997897</speed>
  <fix>3d</fix>
</trkpt>
<trkpt lat="40.0713749" lon="-105.229789">
  <ele>1583.0</ele>
  <time>2026-08-28T17:50:43Z</time>
  <course>0.0</course>
  <speed>0.0</speed>
  <fix>3d</fix>
</trkpt>
<trkpt lat="40.071375" lon="-105.2297889">
  <ele>1582.98</ele>
  <time>2026-08-28T17:50:43Z</time>
  <course>247.09</course>
  <speed>0.022360679774997897</speed>
  <fix>3d</fix>
</trkpt>
<trkpt lat="40.0713749" lon="-105.229789">
  <ele>1583.0</ele>
  <time>2026-08-28T17:50:43Z</time>
  <course>0.0</course>
  <speed>0.0</speed>
  <fix>3d</fix>
</trkpt>
<trkpt lat="40.0713751" lon="-105.2297889">
  <ele>1582.98</ele>
  <time>2026-08-28T17:50:43Z</time>
  <course>247.09</course>
  <speed>0.022360679774997897</speed>
  <fix>3d</fix>
</trkpt>
<trkpt lat="40.0713749" lon="-105.229789">
  <ele>1583.0</ele>
  <time>2026-08-28T17:50:43Z</time>
  <course>0.0</course>
  <speed>0.0</speed>
  <fix>3d</fix>
</trkpt>
<trkpt lat="40.071375" lon="-105.2297889">
  <ele>1582.98</ele>
  <time>2026-08-28T17:50:43Z</time>
  <course>247.09</course>
  <speed>0.022360679774997897</speed>
  <fix>3d</fix>
</trkpt>
<trkpt lat="40.0713749" lon="-105.229789">
  <ele>1583.0</ele>
  <time>2026-08-28T17:50:43Z</time>
  <course>0.0</course>
  <speed>0.0</speed>
  <fix>3d</fix>
</trkpt>
<trkpt lat="40.0713751" lon="-105.2297889">
  <ele>1582.99</ele>
  <time>2026-08-28T17:50:43Z</time>
  <course>247.09</course>
  <speed>0.022360679774997897</speed>
  <fix>3d</fix>
</trkpt>
<trkpt lat="40.0713749" lon="-105.229789">
  <ele>1583.0</ele>
  <time>2026-08-28T17:50:43Z</time>
  <course>0.0</course>
  <speed>0.0</speed>
  <fix>3d</fix>
</trkpt>
<trkpt lat="40.071375" lon="-105.2297889">
  <ele>1582.99</ele>
  <time>2026-08-28T17:50:43Z</time>
  <course>247.09</course>
  <speed>0.022360679774997897</speed>
  <fix>3d</fix>
</trkpt>
<trkpt lat="40.0713749" lon="-105.229789">
  <ele>1583.0</ele>
  <time>2026-08-28T17:50:43Z</time>
  <course>0.0</course>
  <speed>0.0</speed>
  <fix>3d</fix>
</trkpt>
<trkpt lat="40.0713751" lon="-105.2297889">
  <ele>1582.99</ele>
  <time>2026-08-28T17:50:43Z</time>
  <course>247.09</course>
  <speed>0.022360679774997897</speed>
  <fix>3d</fix>
</trkpt>
<trkpt lat="40.0713749" lon="-105.229789">
  <ele>1583.0</ele>
  <time>2026-08-28T17:50:43Z</time>
  <course>0.0</course>
  <speed>0.0</speed>
  <fix>3d</fix>
</trkpt>
<trkpt lat="40.071375" lon="-105.2297889">
  <ele>1582.99</ele>
  <time>2026-08-28T17:50:43Z</time>
  <course>247.09</course>
  <speed>0.022360679774997897</speed>
  <fix>3d</fix>
</trkpt>
<trkpt lat="40.0713749" lon="-105.229789">
  <ele>1583.0</ele>
  <time>2026-08-28T17:50:43Z</time>
  <course>0.0</course>
  <speed>0.0</speed>
  <fix>3d</fix>
</trkpt>
<trkpt lat="40.0713751" lon="-105.2297889">
  <ele>1583.0</ele>
  <time>2026-08-28T17:50:43Z</time>
  <course>247.09</course>
  <speed>0.022360679774997897</speed>
  <fix>3d</fix>
</trkpt>
<trkpt lat="40.0713749" lon="-105.229789">
  <ele>1583.0</ele>
  <time>2026-08-28T17:50:43Z</time>
  <course>0.0</course>
  <speed>0.0</speed>
  <fix>3d</fix>
</trkpt>
<trkpt lat="40.071375" lon="-105.2297889">
  <ele>1583.0</ele>
  <time>2026-08-28T17:50:43Z</time>
  <course>247.09</course>
  <speed>0.022360679774997897</speed>
  <fix>3d</fix>
</trkpt>
<trkpt lat="40.0713749" lon="-105.229789">
  <ele>1583.0</ele>
  <time>2026-08-28T17:50:43Z</time>
  <course>0.0</course>
  <speed>0.0</speed>
  <fix>3d</fix>
</trkpt>
<trkpt lat="40.0713751" lon="-105.2297889">
  <ele>1583.0</ele>
  <time>2026-08-28T17:50:43Z</time>
  <course>247.09</course>
  <speed>0.022360679774997897</speed>
  <fix>3d</fix>
</trkpt>
<trkpt lat="40.0713749" lon="-105.229789">
  <ele>1583.0</ele>
  <time>2026-08-28T17:50:43Z</time>
  <course>0.0</course>
  <speed>0.0</speed>
  <fix>3d</fix>
</trkpt>
<trkpt lat="40.071375" lon="-105.2297889">
  <ele>1583.0</ele>
  <time>2026-08-28T17:50:43Z</time>
  <course>247.09</course>
  <speed>0.022360679774997897</speed>
  <fix>3d</fix>
</trkpt>
<trkpt lat="40.0713749" lon="-105.229789">
  <ele>1583.0</ele>
  <time>2026-08-28T17:50:43Z</time>
  <course>0.0</course>
  <speed>0.0</speed>
  <fix>3d</fix>
</trkpt>
<trkpt lat="40.0713751" lon="-105.2297889">
  <ele>1583.01</ele>
  <time>2026-08-28T17:50:43Z</time>
  <course>247.09</course>
  <speed>0.022360679774997897</speed>
  <fix>3d</fix>
</trkpt>
<trkpt lat="40.0713749" lon="-105.229789">
  <ele>1583.0</ele>
  <time>2026-08-28T17:50:43Z</time>
  <course>0.0</course>
  <speed>0.0</speed>
  <fix>3d</fix>
</trkpt>
<trkpt lat="40.071375" lon="-105.2297889">
  <ele>1583.01</ele>
  <time>2026-08-28T17:50:43Z</time>
  <course>247.09</course>
  <speed>0.022360679774997897</speed>
  <fix>3d</fix>
</trkpt>
<trkpt lat="40.0713749" lon="-105.229789">
  <ele>1583.0</ele>
  <time>2026-08-28T17:50:43Z</time>
  <course>0.0</course>
  <speed>0.0</speed>
  <fix>3d</fix>
</trkpt>
<trkpt lat="40.0713751" lon="-105.2297889">
  <ele>1583.01</ele>
  <time>2026-08-28T17:50:43Z</time>
  <course>247.09</course>
  <speed>0.022360679774997897</speed>
  <fix>3d</fix>
</trkpt>
<trkpt lat="40.0713749" lon="-105.229789">
  <ele>1583.0</ele>
  <time>2026-08-28T17:50:43Z</time>
  <course>0.0</course>
  <speed>0.0</speed>
  <fix>3d</fix>
</trkpt>
<trkpt lat="40.0713751" lon="-105.2297889">
  <ele>1583.02</ele>
  <time>2026-08-28T17:50:43Z</time>
  <course>247.09</course>
  <speed>0.022360679774997897</speed>
  <fix>3d</fix>
</trkpt>
<trkpt lat="40.0713749" lon="-105.229789">
  <ele>1583.0</ele>
  <time>2026-08-28T17:50:43Z</time>
  <course>0.0</course>
  <speed>0.0</speed>
  <fix>3d</fix>
</trkpt>
<trkpt lat="40.0713751" lon="-105.2297889">
  <ele>1583.02</ele>
  <time>2026-08-28T17:50:43Z</time>
  <course>247.09</course>
  <speed>0.022360679774997897</speed>
  <fix>3d</fix>
</trkpt>
<trkpt lat="40.0713749" lon="-105.229789">
  <ele>1583.0</ele>
  <time>2026-08-28T17:50:43Z</time>
  <course>0.0</course>
  <speed>0.0</speed>
  <fix>3d</fix>
</trkpt>
<trkpt lat="40.0713751" lon="-105.2297889">
  <ele>1583.03</ele>
  <time>2026-08-28T17:50:43Z</time>
  <course>247.09</course>
  <speed>0.022360679774997897</speed>
  <fix>3d</fix>
</trkpt>
<trkpt lat="40.0713749" lon="-105.229789">
  <ele>1583.0</ele>
  <time>2026-08-28T17:50:43Z</time>
  <course>0.0</course>
  <speed>0.0</speed>
  <fix>3d</fix>
</trkpt>
<trkpt lat="40.0713751" lon="-105.2297889">
  <ele>1583.04</ele>
  <time>2026-08-28T17:50:43Z</time>
  <course>247.09</course>
  <speed>0.022360679774997897</speed>
  <fix>3d</fix>
</trkpt>
<trkpt lat="40.0713749" lon="-105.229789">
  <ele>1583.0</ele>
  <time>2026-08-28T17:50:43Z</time>
  <course>0.0</course>
  <speed>0.0</speed>
  <fix>3d</fix>
</trkpt>
<trkpt lat="40.0713751" lon="-105.2297889">
  <ele>1583.04</ele>
  <time>2026-08-28T17:50:43Z</time>
  <course>247.09</course>
  <speed>0.022360679774997897</speed>
  <fix>3d</fix>
</trkpt>
<trkpt lat="40.0713749" lon="-105.229789">
  <ele>1583.0</ele>
  <time>2026-08-28T17:50:43Z</time>
  <course>0.0</course>
  <speed>0.0</speed>
  <fix>3d</fix>
</trkpt>
<trkpt lat="40.0713751" lon="-105.2297889">
  <ele>1583.04</ele>
  <time>2026-08-28T17:50:43Z</time>
  <course>247.09</course>
  <speed>0.022360679774997897</speed>
  <fix>3d</fix>
</trkpt>
<trkpt lat="40.0713749" lon="-105.229789">
  <ele>1583.0</ele>
  <time>2026-08-28T17:50:43Z</time>
  <course>0.0</course>
  <speed>0.0</speed>
  <fix>3d</fix>
</trkpt>
<trkpt lat="40.071375" lon="-105.2297889">
  <ele>1583.04</ele>
  <time>2026-08-28T17:50:43Z</time>
  <course>247.09</course>
  <speed>0.022360679774997897</speed>
  <fix>3d</fix>
</trkpt>
<trkpt lat="40.0713749" lon="-105.229789">
  <ele>1583.0</ele>
  <time>2026-08-28T17:50:43Z</time>
  <course>0.0</course>
  <speed>0.0</speed>
  <fix>3d</fix>
</trkpt>
<trkpt lat="40.0713751" lon="-105.2297889">
  <ele>1583.04</ele>
  <time>2026-08-28T17:50:43Z</time>
  <course>247.09</course>
  <speed>0.022360679774997897</speed>
  <fix>3d</fix>
</trkpt>
<trkpt lat="40.0713749" lon="-105.229789">
  <ele>1583.0</ele>
  <time>2026-08-28T17:50:43Z</time>
  <course>0.0</course>
  <speed>0.0</speed>
  <fix>3d</fix>
</trkpt>
<trkpt lat="40.071375" lon="-105.2297889">
  <ele>1583.04</ele>
  <time>2026-08-28T17:50:43Z</time>
  <course>247.09</course>
  <speed>0.022360679774997897</speed>
  <fix>3d</fix>
</trkpt>
<trkpt lat="40.0713749" lon="-105.229789">
  <ele>1583.0</ele>
  <time>2026-08-28T17:50:43Z</time>
  <course>0.0</course>
  <speed>0.0</speed>
  <fix>3d</fix>
</trkpt>
<trkpt lat="40.0713751" lon="-105.2297889">
  <ele>1583.04</ele>
  <time>2026-08-28T17:50:43Z</time>
  <course>247.09</course>
  <speed>0.022360679774997897</speed>
  <fix>3d</fix>
</trkpt>
<trkpt lat="40.0713749" lon="-105.229789">
  <ele>1583.0</ele>
  <time>2026-08-28T17:50:43Z</time>
  <course>0.0</course>
  <speed>0.0</speed>
  <fix>3d</fix>
</trkpt>
<trkpt lat="40.071375" lon="-105.2297889">
  <ele>1583.04</ele>
  <time>2026-08-28T17:50:43Z</time>
  <course>247.09</course>
  <speed>0.022360679774997897</speed>
  <fix>3d</fix>
</trkpt>
<trkpt lat="40.0713749" lon="-105.229789">
  <ele>1583.0</ele>
  <time>2026-08-28T17:50:43Z</time>
  <course>0.0</course>
  <speed>0.0</speed>
  <fix>3d</fix>
</trkpt>
<trkpt lat="40.0713751" lon="-105.2297889">
  <ele>1583.04</ele>
  <time>2026-08-28T17:50:43Z</time>
  <course>247.09</course>
  <speed>0.022360679774997897</speed>
  <fix>3d</fix>
</trkpt>
<trkpt lat="40.0713749" lon="-105.229789">
  <ele>1583.0</ele>
  <time>2026-08-28T17:50:43Z</time>
  <course>0.0</course>
  <speed>0.0</speed>
  <fix>3d</fix>
</trkpt>
<trkpt lat="40.071375" lon="-105.2297889">
  <ele>1583.05</ele>
  <time>2026-08-28T17:50:43Z</time>
  <course>247.09</course>
  <speed>0.022360679774997897</speed>
  <fix>3d</fix>
</trkpt>
<trkpt lat="40.0713749" lon="-105.229789">
  <ele>1583.0</ele>
  <time>2026-08-28T17:50:43Z</time>
  <course>0.0</course>
  <speed>0.0</speed>
  <fix>3d</fix>
</trkpt>
<trkpt lat="40.0713751" lon="-105.2297889">
  <ele>1583.05</ele>
  <time>2026-08-28T17:50:43Z</time>
  <course>247.09</course>
  <speed>0.022360679774997897</speed>
  <fix>3d</fix>
</trkpt>
<trkpt lat="40.0713749" lon="-105.229789">
  <ele>1583.0</ele>
  <time>2026-08-28T17:50:43Z</time>
  <course>0.0</course>
  <speed>0.0</speed>
  <fix>3d</fix>
</trkpt>
<trkpt lat="40.071375" lon="-105.2297889">
  <ele>1583.05</ele>
  <time>2026-08-28T17:50:43Z</time>
  <course>247.09</course>
  <speed>0.022360679774997897</speed>
  <fix>3d</fix>
</trkpt>
<trkpt lat="40.0713749" lon="-105.229789">
  <ele>1583.0</ele>
  <time>2026-08-28T17:50:43Z</time>
  <course>0.0</course>
  <speed>0.0</speed>
  <fix>3d</fix>
</trkpt>
<trkpt lat="40.0713751" lon="-105.2297889">
  <ele>1583.05</ele>
  <time>2026-08-28T17:50:43Z</time>
  <course>247.09</course>
  <speed>0.022360679774997897</speed>
  <fix>3d</fix>
</trkpt>
<trkpt lat="40.0713749" lon="-105.229789">
  <ele>1583.0</ele>
  <time>2026-08-28T17:50:43Z</time>
  <course>0.0</course>
  <speed>0.0</speed>
  <fix>3d</fix>
</trkpt>
<trkpt lat="40.071375" lon="-105.2297889">
  <ele>1583.05</ele>
  <time>2026-08-28T17:50:43Z</time>
  <course>247.09</course>
  <speed>0.022360679774997897</speed>
  <fix>3d</fix>
</trkpt>
<trkpt lat="40.0713749" lon="-105.229789">
  <ele>1583.0</ele>
  <time>2026-08-28T17:50:43Z</time>
  <course>0.0</course>
  <speed>0.0</speed>
  <fix>3d</fix>
</trkpt>
<trkpt lat="40.0713751" lon="-105.2297889">
  <ele>1583.05</ele>
  <time>2026-08-28T17:50:43Z</time>
  <course>247.09</course>
  <speed>0.022360679774997897</speed>
  <fix>3d</fix>
</trkpt>
<trkpt lat="40.0713749" lon="-105.229789">
  <ele>1583.0</ele>
  <time>2026-08-28T17:50:43Z</time>
  <course>0.0</course>
  <speed>0.0</speed>
  <fix>3d</fix>
</trkpt>
<trkpt lat="40.071375" lon="-105.2297889">
  <ele>1583.06</ele>
  <time>2026-08-28T17:50:43Z</time>
  <course>247.09</course>
  <speed>0.022360679774997897</speed>
  <fix>3d</fix>
</trkpt>
<trkpt lat="40.0713749" lon="-105.229789">
  <ele>1583.0</ele>
  <time>2026-08-28T17:50:43Z</time>
  <course>0.0</course>
  <speed>0.0</speed>
  <fix>3d</fix>
</trkpt>
<trkpt lat="40.0713751" lon="-105.2297889">
  <ele>1583.06</ele>
  <time>2026-08-28T17:50:43Z</time>
  <course>247.09</course>
  <speed>0.022360679774997897</speed>
  <fix>3d</fix>
</trkpt>
<trkpt lat="40.0713749" lon="-105.229789">
  <ele>1583.0</ele>
  <time>2026-08-28T17:50:43Z</time>
  <course>0.0</course>
  <speed>0.0</speed>
  <fix>3d</fix>
</trkpt>
<trkpt lat="40.0713751" lon="-105.2297889">
  <ele>1583.06</ele>
  <time>2026-08-28T17:50:43Z</time>
  <course>247.09</course>
  <speed>0.022360679774997897</speed>
  <fix>3d</fix>
</trkpt>
<trkpt lat="40.0713749" lon="-105.229789">
  <ele>1583.0</ele>
  <time>2026-08-28T17:50:43Z</time>
  <course>0.0</course>
  <speed>0.0</speed>
  <fix>3d</fix>
</trkpt>
<trkpt lat="40.0713751" lon="-105.2297889">
  <ele>1583.06</ele>
  <time>2026-08-28T17:50:43Z</time>
  <course>247.09</course>
  <speed>0.022360679774997897</speed>
  <fix>3d</fix>
</trkpt>
<trkpt lat="40.0713749" lon="-105.229789">
  <ele>1583.0</ele>
  <time>2026-08-28T17:50:43Z</time>
  <course>0.0</course>
  <speed>0.0</speed>
  <fix>3d</fix>
</trkpt>
<trkpt lat="40.0713751" lon="-105.2297889">
  <ele>1583.07</ele>
  <time>2026-08-28T17:50:43Z</time>
  <course>247.08</course>
  <speed>0.022360679774997897</speed>
  <fix>3d</fix>
</trkpt>
<trkpt lat="40.0713749" lon="-105.229789">
  <ele>1583.0</ele>
  <time>2026-08-28T17:50:43Z</time>
  <course>0.0</course>
  <speed>0.0</speed>
  <fix>3d</fix>
</trkpt>
<trkpt lat="40.0713751" lon="-105.2297889">
  <ele>1583.07</ele>
  <time>2026-08-28T17:50:43Z</time>
  <course>247.09</course>
  <speed>0.022360679774997897</speed>
  <fix>3d</fix>
</trkpt>
<trkpt lat="40.0713749" lon="-105.229789">
  <ele>1583.0</ele>
  <time>2026-08-28T17:50:43Z</time>
  <course>0.0</course>
  <speed>0.0</speed>
  <fix>3d</fix>
</trkpt>
<trkpt lat="40.0713751" lon="-105.2297889">
  <ele>1583.07</ele>
  <time>2026-08-28T17:50:43Z</time>
  <course>247.09</course>
  <speed>0.022360679774997897</speed>
  <fix>3d</fix>
</trkpt>
<trkpt lat="40.0713749" lon="-105.229789">
  <ele>1583.0</ele>
  <time>2026-08-28T17:50:43Z</time>
  <course>0.0</course>
  <speed>0.0</speed>
  <fix>3d</fix>
</trkpt>
<trkpt lat="40.0713751" lon="-105.2297889">
  <ele>1583.08</ele>
  <time>2026-08-28T17:50:43Z</time>
  <course>247.09</course>
  <speed>0.022360679774997897</speed>
  <fix>3d</fix>
</trkpt>
<trkpt lat="40.0713749" lon="-105.229789">
  <ele>1583.0</ele>
  <time>2026-08-28T17:50:43Z</time>
  <course>0.0</course>
  <speed>0.0</speed>
  <fix>3d</fix>
</trkpt>
<trkpt lat="40.0713751" lon="-105.2297889">
  <ele>1583.08</ele>
  <time>2026-08-28T17:50:43Z</time>
  <course>247.09</course>
  <speed>0.02</speed>
  <fix>3d</fix>
</trkpt>
<trkpt lat="40.0713749" lon="-105.229789">
  <ele>1583.0</ele>
  <time>2026-08-28T17:50:43Z</time>
  <course>0.0</course>
  <speed>0.0</speed>
  <fix>3d</fix>
</trkpt>
<trkpt lat="40.0713751" lon="-105.2297889">
  <ele>1583.09</ele>
  <time>2026-08-28T17:50:43Z</time>
  <course>247.09</course>
  <speed>0.022360679774997897</speed>
  <fix>3d</fix>
</trkpt>
<trkpt lat="40.0713749" lon="-105.229789">
  <ele>1583.0</ele>
  <time>2026-08-28T17:50:43Z</time>
  <course>0.0</course>
  <speed>0.0</speed>
  <fix>3d</fix>
</trkpt>
<trkpt lat="40.071375" lon="-105.2297889">
  <ele>1583.09</ele>
  <time>2026-08-28T17:50:43Z</time>
  <course>247.09</course>
  <speed>0.02</speed>
  <fix>3d</fix>
</trkpt>
<trkpt lat="40.0713749" lon="-105.229789">
  <ele>1583.0</ele>
  <time>2026-08-28T17:50:43Z</time>
  <course>0.0</course>
  <speed>0.0</speed>
  <fix>3d</fix>
</trkpt>
<trkpt lat="40.0713751" lon="-105.2297889">
  <ele>1583.09</ele>
  <time>2026-08-28T17:50:43Z</time>
  <course>247.09</course>
  <speed>0.022360679774997897</speed>
  <fix>3d</fix>
</trkpt>
<trkpt lat="40.0713749" lon="-105.229789">
  <ele>1583.0</ele>
  <time>2026-08-28T17:50:43Z</time>
  <course>0.0</course>
  <speed>0.0</speed>
  <fix>3d</fix>
</trkpt>
<trkpt lat="40.071375" lon="-105.2297889">
  <ele>1583.09</ele>
  <time>2026-08-28T17:50:43Z</time>
  <course>247.09</course>
  <speed>0.022360679774997897</speed>
  <fix>3d</fix>
</trkpt>
<trkpt lat="40.0713749" lon="-105.229789">
  <ele>1583.0</ele>
  <time>2026-08-28T17:50:43Z</time>
  <course>0.0</course>
  <speed>0.0</speed>
  <fix>3d</fix>
</trkpt>
<trkpt lat="40.0713751" lon="-105.2297889">
  <ele>1583.08</ele>
  <time>2026-08-28T17:50:43Z</time>
  <course>247.08</course>
  <speed>0.022360679774997897</speed>
  <fix>3d</fix>
</trkpt>
<trkpt lat="40.0713749" lon="-105.229789">
  <ele>1583.0</ele>
  <time>2026-08-28T17:50:43Z</time>
  <course>0.0</course>
  <speed>0.0</speed>
  <fix>3d</fix>
</trkpt>
<trkpt lat="40.071375" lon="-105.2297889">
  <ele>1583.07</ele>
  <time>2026-08-28T17:50:43Z</time>
  <course>247.08</course>
  <speed>0.022360679774997897</speed>
  <fix>3d</fix>
</trkpt>
<trkpt lat="40.0713749" lon="-105.229789">
  <ele>1583.0</ele>
  <time>2026-08-28T17:50:43Z</time>
  <course>0.0</course>
  <speed>0.0</speed>
  <fix>3d</fix>
</trkpt>
<trkpt lat="40.0713751" lon="-105.2297889">
  <ele>1583.06</ele>
  <time>2026-08-28T17:50:43Z</time>
  <course>247.09</course>
  <speed>0.022360679774997897</speed>
  <fix>3d</fix>
</trkpt>
<trkpt lat="40.0713749" lon="-105.229789">
  <ele>1583.0</ele>
  <time>2026-08-28T17:50:43Z</time>
  <course>0.0</course>
  <speed>0.0</speed>
  <fix>3d</fix>
</trkpt>
<trkpt lat="40.071375" lon="-105.2297889">
  <ele>1583.06</ele>
  <time>2026-08-28T17:50:43Z</time>
  <course>247.08</course>
  <speed>0.022360679774997897</speed>
  <fix>3d</fix>
</trkpt>
<trkpt lat="40.0713749" lon="-105.229789">
  <ele>1583.0</ele>
  <time>2026-08-28T17:50:43Z</time>
  <course>0.0</course>
  <speed>0.0</speed>
  <fix>3d</fix>
</trkpt>
<trkpt lat="40.0713751" lon="-105.2297889">
  <ele>1583.05</ele>
  <time>2026-08-28T17:50:43Z</time>
  <course>247.08</course>
  <speed>0.022360679774997897</speed>
  <fix>3d</fix>
</trkpt>
<trkpt lat="40.0713749" lon="-105.229789">
  <ele>1583.0</ele>
  <time>2026-08-28T17:50:43Z</time>
  <course>0.0</course>
  <speed>0.0</speed>
  <fix>3d</fix>
</trkpt>
<trkpt lat="40.071375" lon="-105.2297889">
  <ele>1583.05</ele>
  <time>2026-08-28T17:50:43Z</time>
  <course>247.08</course>
  <speed>0.022360679774997897</speed>
  <fix>3d</fix>
</trkpt>
<trkpt lat="40.0713749" lon="-105.229789">
  <ele>1583.0</ele>
  <time>2026-08-28T17:50:43Z</time>
  <course>0.0</course>
  <speed>0.0</speed>
  <fix>3d</fix>
</trkpt>
<trkpt lat="40.0713751" lon="-105.2297889">
  <ele>1583.04</ele>
  <time>2026-08-28T17:50:43Z</time>
  <course>247.08</course>
  <speed>0.022360679774997897</speed>
  <fix>3d</fix>
</trkpt>
<trkpt lat="40.0713749" lon="-105.229789">
  <ele>1583.0</ele>
  <time>2026-08-28T17:50:43Z</time>
  <course>0.0</course>
  <speed>0.0</speed>
  <fix>3d</fix>
</trkpt>
<trkpt lat="40.071375" lon="-105.2297889">
  <ele>1583.03</ele>
  <time>2026-08-28T17:50:43Z</time>
  <course>247.08</course>
  <speed>0.022360679774997897</speed>
  <fix>3d</fix>
</trkpt>
<trkpt lat="40.0713749" lon="-105.229789">
  <ele>1583.0</ele>
  <time>2026-08-28T17:50:43Z</time>
  <course>0.0</course>
  <speed>0.0</speed>
  <fix>3d</fix>
</trkpt>
<trkpt lat="40.0713751" lon="-105.2297889">
  <ele>1583.03</ele>
  <time>2026-08-28T17:50:43Z</time>
  <course>247.08</course>
  <speed>0.022360679774997897</speed>
  <fix>3d</fix>
</trkpt>
<trkpt lat="40.0713749" lon="-105.229789">
  <ele>1583.0</ele>
  <time>2026-08-28T17:50:43Z</time>
  <course>0.0</course>
  <speed>0.0</speed>
  <fix>3d</fix>
</trkpt>
<trkpt lat="40.0713751" lon="-105.2297889">
  <ele>1583.02</ele>
  <time>2026-08-28T17:50:43Z</time>
  <course>247.08</course>
  <speed>0.022360679774997897</speed>
  <fix>3d</fix>
</trkpt>
<trkpt lat="40.0713749" lon="-105.229789">
  <ele>1583.0</ele>
  <time>2026-08-28T17:50:43Z</time>
  <course>0.0</course>
  <speed>0.0</speed>
  <fix>3d</fix>
</trkpt>
<trkpt lat="40.0713751" lon="-105.2297889">
  <ele>1583.02</ele>
  <time>2026-08-28T17:50:43Z</time>
  <course>247.08</course>
  <speed>0.022360679774997897</speed>
  <fix>3d</fix>
</trkpt>
<trkpt lat="40.0713749" lon="-105.229789">
  <ele>1583.0</ele>
  <time>2026-08-28T17:50:43Z</time>
  <course>0.0</course>
  <speed>0.0</speed>
  <fix>3d</fix>
</trkpt>
<trkpt lat="40.0713751" lon="-105.2297889">
  <ele>1583.02</ele>
  <time>2026-08-28T17:50:43Z</time>
  <course>247.08</course>
  <speed>0.022360679774997897</speed>
  <fix>3d</fix>
</trkpt>
<trkpt lat="40.0713749" lon="-105.229789">
  <ele>1583.0</ele>
  <time>2026-08-28T17:50:43Z</time>
  <course>0.0</course>
  <speed>0.0</speed>
  <fix>3d</fix>
</trkpt>
<trkpt lat="40.0713751" lon="-105.2297889">
  <ele>1583.01</ele>
  <time>2026-08-28T17:50:43Z</time>
  <course>247.08</course>
  <speed>0.022360679774997897</speed>
  <fix>3d</fix>
</trkpt>
<trkpt lat="40.0713749" lon="-105.229789">
  <ele>1583.0</ele>
  <time>2026-08-28T17:50:43Z</time>
  <course>0.0</course>
  <speed>0.0</speed>
  <fix>3d</fix>
</trkpt>
<trkpt lat="40.0713751" lon="-105.2297889">
  <ele>1583.01</ele>
  <time>2026-08-28T17:50:43Z</time>
  <course>247.08</course>
  <speed>0.022360679774997897</speed>
  <fix>3d</fix>
</trkpt>
<trkpt lat="40.0713749" lon="-105.229789">
  <ele>1583.0</ele>
  <time>2026-08-28T17:50:43Z</time>
  <course>0.0</course>
  <speed>0.0</speed>
  <fix>3d</fix>
</trkpt>
<trkpt lat="40.0713751" lon="-105.2297889">
  <ele>1583.0</ele>
  <time>2026-08-28T17:50:43Z</time>
  <course>247.08</course>
  <speed>0.022360679774997897</speed>
  <fix>3d</fix>
</trkpt>
<trkpt lat="40.0713749" lon="-105.229789">
  <ele>1583.0</ele>
  <time>2026-08-28T17:50:43Z</time>
  <course>0.0</course>
  <speed>0.0</speed>
  <fix>3d</fix>
</trkpt>
<trkpt lat="40.0713751" lon="-105.2297889">
  <ele>1583.0</ele>
  <time>2026-08-28T17:50:43Z</time>
  <course>247.08</course>
  <speed>0.022360679774997897</speed>
  <fix>3d</fix>
</trkpt>
<trkpt lat="40.0713749" lon="-105.229789">
  <ele>1583.0</ele>
  <time>2026-08-28T17:50:43Z</time>
  <course>0.0</course>
  <speed>0.0</speed>
  <fix>3d</fix>
</trkpt>
<trkpt lat="40.0713751" lon="-105.2297889">
  <ele>1582.99</ele>
  <time>2026-08-28T17:50:43Z</time>
  <course>247.08</course>
  <speed>0.022360679774997897</speed>
  <fix>3d</fix>
</trkpt>
<trkpt lat="40.0713749" lon="-105.229789">
  <ele>1583.0</ele>
  <time>2026-08-28T17:50:43Z</time>
  <course>0.0</course>
  <speed>0.0</speed>
  <fix>3d</fix>
</trkpt>
<trkpt lat="40.0713751" lon="-105.2297889">
  <ele>1582.99</ele>
  <time>2026-08-28T17:50:43Z</time>
  <course>247.08</course>
  <speed>0.022360679774997897</speed>
  <fix>3d</fix>
</trkpt>
<trkpt lat="40.0713749" lon="-105.229789">
  <ele>1583.0</ele>
  <time>2026-08-28T17:50:43Z</time>
  <course>0.0</course>
  <speed>0.0</speed>
  <fix>3d</fix>
</trkpt>
<trkpt lat="40.0713751" lon="-105.2297889">
  <ele>1582.98</ele>
  <time>2026-08-28T17:50:43Z</time>
  <course>247.08</course>
  <speed>0.022360679774997897</speed>
  <fix>3d</fix>
</trkpt>
<trkpt lat="40.0713749" lon="-105.229789">
  <ele>1583.0</ele>
  <time>2026-08-28T17:50:43Z</time>
  <course>0.0</course>
  <speed>0.0</speed>
  <fix>3d</fix>
</trkpt>
<trkpt lat="40.071375" lon="-105.2297889">
  <ele>1582.98</ele>
  <time>2026-08-28T17:50:43Z</time>
  <course>247.08</course>
  <speed>0.022360679774997897</speed>
  <fix>3d</fix>
</trkpt>
<trkpt lat="40.0713749" lon="-105.229789">
  <ele>1583.0</ele>
  <time>2026-08-28T17:50:43Z</time>
  <course>0.0</course>
  <speed>0.0</speed>
  <fix>3d</fix>
</trkpt>
<trkpt lat="40.0713751" lon="-105.2297889">
  <ele>1582.98</ele>
  <time>2026-08-28T17:50:43Z</time>
  <course>247.08</course>
  <speed>0.022360679774997897</speed>
  <fix>3d</fix>
</trkpt>
<trkpt lat="40.0713749" lon="-105.229789">
  <ele>1583.0</ele>
  <time>2026-08-28T17:50:43Z</time>
  <course>0.0</course>
  <speed>0.0</speed>
  <fix>3d</fix>
</trkpt>
<trkpt lat="40.071375" lon="-105.2297889">
  <ele>1582.98</ele>
  <time>2026-08-28T17:50:43Z</time>
  <course>247.08</course>
  <speed>0.022360679774997897</speed>
  <fix>3d</fix>
</trkpt>
<trkpt lat="40.0713749" lon="-105.229789">
  <ele>1583.0</ele>
  <time>2026-08-28T17:50:43Z</time>
  <course>0.0</course>
  <speed>0.0</speed>
  <fix>3d</fix>
</trkpt>
<trkpt lat="40.0713751" lon="-105.2297889">
  <ele>1582.99</ele>
  <time>2026-08-28T17:50:43Z</time>
  <course>247.08</course>
  <speed>0.022360679774997897</speed>
  <fix>3d</fix>
</trkpt>
<trkpt lat="40.0713749" lon="-105.229789">
  <ele>1583.0</ele>
  <time>2026-08-28T17:50:43Z</time>
  <course>0.0</course>
  <speed>0.0</speed>
  <fix>3d</fix>
</trkpt>
<trkpt lat="40.071375" lon="-105.2297889">
  <ele>1582.99</ele>
  <time>2026-08-28T17:50:43Z</time>
  <course>247.08</course>
  <speed>0.02</speed>
  <fix>3d</fix>
</trkpt>
<trkpt lat="40.0713749" lon="-105.229789">
  <ele>1583.0</ele>
  <time>2026-08-28T17:50:43Z</time>
  <course>0.0</course>
  <speed>0.0</speed>
  <fix>3d</fix>
</trkpt>
<trkpt lat="40.0713751" lon="-105.2297889">
  <ele>1582.99</ele>
  <time>2026-08-28T17:50:43Z</time>
  <course>247.08</course>
  <speed>0.022360679774997897</speed>
  <fix>3d</fix>
</trkpt>
<trkpt lat="40.0713749" lon="-105.229789">
  <ele>1583.0</ele>
  <time>2026-08-28T17:50:43Z</time>
  <course>0.0</course>
  <speed>0.0</speed>
  <fix>3d</fix>
</trkpt>
<trkpt lat="40.071375" lon="-105.2297889">
  <ele>1583.0</ele>
  <time>2026-08-28T17:50:43Z</time>
  <course>247.08</course>
  <speed>0.022360679774997897</speed>
  <fix>3d</fix>
</trkpt>
<trkpt lat="40.0713749" lon="-105.229789">
  <ele>1583.0</ele>
  <time>2026-08-28T17:50:43Z</time>
  <course>0.0</course>
  <speed>0.0</speed>
  <fix>3d</fix>
</trkpt>
<trkpt lat="40.0713751" lon="-105.2297889">
  <ele>1583.0</ele>
  <time>2026-08-28T17:50:43Z</time>
  <course>247.08</course>
  <speed>0.022360679774997897</speed>
  <fix>3d</fix>
</trkpt>
<trkpt lat="40.0713749" lon="-105.229789">
  <ele>1583.0</ele>
  <time>2026-08-28T17:50:43Z</time>
  <course>0.0</course>
  <speed>0.0</speed>
  <fix>3d</fix>
</trkpt>
<trkpt lat="40.071375" lon="-105.2297889">
  <ele>1583.01</ele>
  <time>2026-08-28T17:50:43Z</time>
  <course>247.08</course>
  <speed>0.022360679774997897</speed>
  <fix>3d</fix>
</trkpt>
<trkpt lat="40.0713749" lon="-105.229789">
  <ele>1583.0</ele>
  <time>2026-08-28T17:50:43Z</time>
  <course>0.0</course>
  <speed>0.0</speed>
  <fix>3d</fix>
</trkpt>
<trkpt lat="40.0713751" lon="-105.2297889">
  <ele>1583.01</ele>
  <time>2026-08-28T17:50:43Z</time>
  <course>247.08</course>
  <speed>0.022360679774997897</speed>
  <fix>3d</fix>
</trkpt>
<trkpt lat="40.0713749" lon="-105.229789">
  <ele>1583.0</ele>
  <time>2026-08-28T17:50:43Z</time>
  <course>0.0</course>
  <speed>0.0</speed>
  <fix>3d</fix>
</trkpt>
<trkpt lat="40.071375" lon="-105.2297889">
  <ele>1583.01</ele>
  <time>2026-08-28T17:50:43Z</time>
  <course>247.08</course>
  <speed>0.022360679774997897</speed>
  <fix>3d</fix>
</trkpt>
<trkpt lat="40.0713749" lon="-105.229789">
  <ele>1583.0</ele>
  <time>2026-08-28T17:50:43Z</time>
  <course>0.0</course>
  <speed>0.0</speed>
  <fix>3d</fix>
</trkpt>
<trkpt lat="40.0713751" lon="-105.2297889">
  <ele>1583.01</ele>
  <time>2026-08-28T17:50:43Z</time>
  <course>247.08</course>
  <speed>0.022360679774997897</speed>
  <fix>3d</fix>
</trkpt>
<trkpt lat="40.0713749" lon="-105.229789">
  <ele>1583.0</ele>
  <time>2026-08-28T17:50:43Z</time>
  <course>0.0</course>
  <speed>0.0</speed>
  <fix>3d</fix>
</trkpt>
<trkpt lat="40.0713751" lon="-105.2297889">
  <ele>1583.01</ele>
  <time>2026-08-28T17:50:43Z</time>
  <course>247.08</course>
  <speed>0.022360679774997897</speed>
  <fix>3d</fix>
</trkpt>
<trkpt lat="40.0713749" lon="-105.229789">
  <ele>1583.0</ele>
  <time>2026-08-28T17:50:43Z</time>
  <course>0.0</course>
  <speed>0.0</speed>
  <fix>3d</fix>
</trkpt>
<trkpt lat="40.0713751" lon="-105.2297889">
  <ele>1583.0</ele>
  <time>2026-08-28T17:50:43Z</time>
  <course>247.08</course>
  <speed>0.022360679774997897</speed>
  <fix>3d</fix>
</trkpt>
<trkpt lat="40.0713749" lon="-105.229789">
  <ele>1583.0</ele>
  <time>2026-08-28T17:50:43Z</time>
  <course>0.0</course>
  <speed>0.0</speed>
  <fix>3d</fix>
</trkpt>
<trkpt lat="40.0713751" lon="-105.2297889">
  <ele>1583.0</ele>
  <time>2026-08-28T17:50:43Z</time>
  <course>247.08</course>
  <speed>0.022360679774997897</speed>
  <fix>3d</fix>
</trkpt>
<trkpt lat="40.0713749" lon="-105.229789">
  <ele>1583.0</ele>
  <time>2026-08-28T17:50:43Z</time>
  <course>0.0</course>
  <speed>0.0</speed>
  <fix>3d</fix>
</trkpt>
<trkpt lat="40.0713751" lon="-105.2297889">
  <ele>1582.99</ele>
  <time>2026-08-28T17:50:43Z</time>
  <course>247.08</course>
  <speed>0.022360679774997897</speed>
  <fix>3d</fix>
</trkpt>
<trkpt lat="40.0713749" lon="-105.229789">
  <ele>1583.0</ele>
  <time>2026-08-28T17:50:43Z</time>
  <course>0.0</course>
  <speed>0.0</speed>
  <fix>3d</fix>
</trkpt>
<trkpt lat="40.0713751" lon="-105.2297889">
  <ele>1582.99</ele>
  <time>2026-08-28T17:50:43Z</time>
  <course>247.08</course>
  <speed>0.022360679774997897</speed>
  <fix>3d</fix>
</trkpt>
<trkpt lat="40.0713749" lon="-105.229789">
  <ele>1583.0</ele>
  <time>2026-08-28T17:50:43Z</time>
  <course>0.0</course>
  <speed>0.0</speed>
  <fix>3d</fix>
</trkpt>
<trkpt lat="40.0713751" lon="-105.2297889">
  <ele>1582.98</ele>
  <time>2026-08-28T17:50:43Z</time>
  <course>247.08</course>
  <speed>0.022360679774997897</speed>
  <fix>3d</fix>
</trkpt>
<trkpt lat="40.0713749" lon="-105.229789">
  <ele>1583.0</ele>
  <time>2026-08-28T17:50:43Z</time>
  <course>0.0</course>
  <speed>0.0</speed>
  <fix>3d</fix>
</trkpt>
<trkpt lat="40.0713751" lon="-105.2297889">
  <ele>1582.98</ele>
  <time>2026-08-28T17:50:43Z</time>
  <course>247.09</course>
  <speed>0.022360679774997897</speed>
  <fix>3d</fix>
</trkpt>
<trkpt lat="40.0713749" lon="-105.229789">
  <ele>1583.0</ele>
  <time>2026-08-28T17:50:43Z</time>
  <course>0.0</course>
  <speed>0.0</speed>
  <fix>3d</fix>
</trkpt>
<trkpt lat="40.0713751" lon="-105.2297889">
  <ele>1582.98</ele>
  <time>2026-08-28T17:50:43Z</time>
  <course>247.09</course>
  <speed>0.022360679774997897</speed>
  <fix>3d</fix>
</trkpt>
<trkpt lat="40.0713749" lon="-105.229789">
  <ele>1583.0</ele>
  <time>2026-08-28T17:50:43Z</time>
  <course>0.0</course>
  <speed>0.0</speed>
  <fix>3d</fix>
</trkpt>
<trkpt lat="40.071375" lon="-105.2297889">
  <ele>1582.97</ele>
  <time>2026-08-28T17:50:43Z</time>
  <course>247.09</course>
  <speed>0.022360679774997897</speed>
  <fix>3d</fix>
</trkpt>
<trkpt lat="40.0713749" lon="-105.229789">
  <ele>1583.0</ele>
  <time>2026-08-28T17:50:43Z</time>
  <course>0.0</course>
  <speed>0.0</speed>
  <fix>3d</fix>
</trkpt>
<trkpt lat="40.0713751" lon="-105.2297889">
  <ele>1582.97</ele>
  <time>2026-08-28T17:50:43Z</time>
  <course>247.09</course>
  <speed>0.022360679774997897</speed>
  <fix>3d</fix>
</trkpt>
<trkpt lat="40.0713749" lon="-105.229789">
  <ele>1583.0</ele>
  <time>2026-08-28T17:50:43Z</time>
  <course>0.0</course>
  <speed>0.0</speed>
  <fix>3d</fix>
</trkpt>
<trkpt lat="40.071375" lon="-105.2297889">
  <ele>1582.97</ele>
  <time>2026-08-28T17:50:43Z</time>
  <course>247.09</course>
  <speed>0.022360679774997897</speed>
  <fix>3d</fix>
</trkpt>
<trkpt lat="40.0713749" lon="-105.229789">
  <ele>1583.0</ele>
  <time>2026-08-28T17:50:43Z</time>
  <course>0.0</course>
  <speed>0.0</speed>
  <fix>3d</fix>
</trkpt>
<trkpt lat="40.0713751" lon="-105.2297889">
  <ele>1582.96</ele>
  <time>2026-08-28T17:50:43Z</time>
  <course>247.09</course>
  <speed>0.022360679774997897</speed>
  <fix>3d</fix>
</trkpt>
<trkpt lat="40.0713749" lon="-105.229789">
  <ele>1583.0</ele>
  <time>2026-08-28T17:50:43Z</time>
  <course>0.0</course>
  <speed>0.0</speed>
  <fix>3d</fix>
</trkpt>
<trkpt lat="40.071375" lon="-105.2297889">
  <ele>1582.96</ele>
  <time>2026-08-28T17:50:43Z</time>
  <course>247.09</course>
  <speed>0.022360679774997897</speed>
  <fix>3d</fix>
</trkpt>
<trkpt lat="40.0713749" lon="-105.229789">
  <ele>1583.0</ele>
  <time>2026-08-28T17:50:43Z</time>
  <course>0.0</course>
  <speed>0.0</speed>
  <fix>3d</fix>
</trkpt>
<trkpt lat="40.0713751" lon="-105.2297889">
  <ele>1582.95</ele>
  <time>2026-08-28T17:50:43Z</time>
  <course>247.09</course>
  <speed>0.022360679774997897</speed>
  <fix>3d</fix>
</trkpt>
<trkpt lat="40.0713749" lon="-105.229789">
  <ele>1583.0</ele>
  <time>2026-08-28T17:50:43Z</time>
  <course>0.0</course>
  <speed>0.0</speed>
  <fix>3d</fix>
</trkpt>
<trkpt lat="40.071375" lon="-105.2297889">
  <ele>1582.95</ele>
  <time>2026-08-28T17:50:43Z</time>
  <course>247.09</course>
  <speed>0.022360679774997897</speed>
  <fix>3d</fix>
</trkpt>
<trkpt lat="40.0713749" lon="-105.229789">
  <ele>1583.0</ele>
  <time>2026-08-28T17:50:43Z</time>
  <course>0.0</course>
  <speed>0.0</speed>
  <fix>3d</fix>
</trkpt>
<trkpt lat="40.0713751" lon="-105.2297889">
  <ele>1582.94</ele>
  <time>2026-08-28T17:50:43Z</time>
  <course>247.09</course>
  <speed>0.022360679774997897</speed>
  <fix>3d</fix>
</trkpt>
<trkpt lat="40.0713749" lon="-105.229789">
  <ele>1583.0</ele>
  <time>2026-08-28T17:50:43Z</time>
  <course>0.0</course>
  <speed>0.0</speed>
  <fix>3d</fix>
</trkpt>
<trkpt lat="40.071375" lon="-105.2297889">
  <ele>1582.94</ele>
  <time>2026-08-28T17:50:43Z</time>
  <course>247.09</course>
  <speed>0.022360679774997897</speed>
  <fix>3d</fix>
</trkpt>
<trkpt lat="40.0713749" lon="-105.229789">
  <ele>1583.0</ele>
  <time>2026-08-28T17:50:43Z</time>
  <course>0.0</course>
  <speed>0.0</speed>
  <fix>3d</fix>
</trkpt>
<trkpt lat="40.0713751" lon="-105.2297889">
  <ele>1582.94</ele>
  <time>2026-08-28T17:50:43Z</time>
  <course>247.09</course>
  <speed>0.022360679774997897</speed>
  <fix>3d</fix>
</trkpt>
<trkpt lat="40.0713749" lon="-105.229789">
  <ele>1583.0</ele>
  <time>2026-08-28T17:50:43Z</time>
  <course>0.0</course>
  <speed>0.0</speed>
  <fix>3d</fix>
</trkpt>
<trkpt lat="40.071375" lon="-105.2297889">
  <ele>1582.94</ele>
  <time>2026-08-28T17:50:43Z</time>
  <course>247.09</course>
  <speed>0.022360679774997897</speed>
  <fix>3d</fix>
</trkpt>
<trkpt lat="40.0713749" lon="-105.229789">
  <ele>1583.0</ele>
  <time>2026-08-28T17:50:43Z</time>
  <course>0.0</course>
  <speed>0.0</speed>
  <fix>3d</fix>
</trkpt>
<trkpt lat="40.0713751" lon="-105.2297889">
  <ele>1582.93</ele>
  <time>2026-08-28T17:50:43Z</time>
  <course>247.09</course>
  <speed>0.022360679774997897</speed>
  <fix>3d</fix>
</trkpt>
<trkpt lat="40.0713749" lon="-105.229789">
  <ele>1583.0</ele>
  <time>2026-08-28T17:50:43Z</time>
  <course>0.0</course>
  <speed>0.0</speed>
  <fix>3d</fix>
</trkpt>
<trkpt lat="40.0713751" lon="-105.2297889">
  <ele>1582.94</ele>
  <time>2026-08-28T17:50:43Z</time>
  <course>247.09</course>
  <speed>0.022360679774997897</speed>
  <fix>3d</fix>
</trkpt>
<trkpt lat="40.0713749" lon="-105.229789">
  <ele>1583.0</ele>
  <time>2026-08-28T17:50:43Z</time>
  <course>0.0</course>
  <speed>0.0</speed>
  <fix>3d</fix>
</trkpt>
<trkpt lat="40.0713751" lon="-105.2297889">
  <ele>1582.94</ele>
  <time>2026-08-28T17:50:43Z</time>
  <course>247.09</course>
  <speed>0.022360679774997897</speed>
  <fix>3d</fix>
</trkpt>
<trkpt lat="40.0713749" lon="-105.229789">
  <ele>1583.0</ele>
  <time>2026-08-28T17:50:43Z</time>
  <course>0.0</course>
  <speed>0.0</speed>
  <fix>3d</fix>
</trkpt>
<trkpt lat="40.0713751" lon="-105.2297889">
  <ele>1582.94</ele>
  <time>2026-08-28T17:50:43Z</time>
  <course>247.09</course>
  <speed>0.022360679774997897</speed>
  <fix>3d</fix>
</trkpt>
<trkpt lat="40.0713749" lon="-105.229789">
  <ele>1583.0</ele>
  <time>2026-08-28T17:50:43Z</time>
  <course>0.0</course>
  <speed>0.0</speed>
  <fix>3d</fix>
</trkpt>
<trkpt lat="40.0713751" lon="-105.2297889">
  <ele>1582.95</ele>
  <time>2026-08-28T17:50:43Z</time>
  <course>247.09</course>
  <speed>0.022360679774997897</speed>
  <fix>3d</fix>
</trkpt>
<trkpt lat="40.0713749" lon="-105.229789">
  <ele>1583.0</ele>
  <time>2026-08-28T17:50:43Z</time>
  <course>0.0</course>
  <speed>0.0</speed>
  <fix>3d</fix>
</trkpt>
<trkpt lat="40.0713751" lon="-105.2297889">
  <ele>1582.95</ele>
  <time>2026-08-28T17:50:43Z</time>
  <course>247.09</course>
  <speed>0.022360679774997897</speed>
  <fix>3d</fix>
</trkpt>
<trkpt lat="40.0713749" lon="-105.229789">
  <ele>1583.0</ele>
  <time>2026-08-28T17:50:43Z</time>
  <course>0.0</course>
  <speed>0.0</speed>
  <fix>3d</fix>
</trkpt>
<trkpt lat="40.0713751" lon="-105.2297889">
  <ele>1582.96</ele>
  <time>2026-08-28T17:50:43Z</time>
  <course>247.09</course>
  <speed>0.022360679774997897</speed>
  <fix>3d</fix>
</trkpt>
<trkpt lat="40.0713749" lon="-105.229789">
  <ele>1583.0</ele>
  <time>2026-08-28T17:50:43Z</time>
  <course>0.0</course>
  <speed>0.0</speed>
  <fix>3d</fix>
</trkpt>
<trkpt lat="40.0713751" lon="-105.2297889">
  <ele>1582.96</ele>
  <time>2026-08-28T17:50:43Z</time>
  <course>247.09</course>
  <speed>0.022360679774997897</speed>
  <fix>3d</fix>
</trkpt>
<trkpt lat="40.0713749" lon="-105.229789">
  <ele>1583.0</ele>
  <time>2026-08-28T17:50:43Z</time>
  <course>0.0</course>
  <speed>0.0</speed>
  <fix>3d</fix>
</trkpt>
<trkpt lat="40.0713751" lon="-105.2297889">
  <ele>1582.96</ele>
  <time>2026-08-28T17:50:43Z</time>
  <course>247.09</course>
  <speed>0.022360679774997897</speed>
  <fix>3d</fix>
</trkpt>
<trkpt lat="40.0713749" lon="-105.229789">
  <ele>1583.0</ele>
  <time>2026-08-28T17:50:43Z</time>
  <course>0.0</course>
  <speed>0.0</speed>
  <fix>3d</fix>
</trkpt>
<trkpt lat="40.0713751" lon="-105.2297889">
  <ele>1582.96</ele>
  <time>2026-08-28T17:50:43Z</time>
  <course>247.09</course>
  <speed>0.022360679774997897</speed>
  <fix>3d</fix>
</trkpt>
<trkpt lat="40.0713749" lon="-105.229789">
  <ele>1583.0</ele>
  <time>2026-08-28T17:50:43Z</time>
  <course>0.0</course>
  <speed>0.0</speed>
  <fix>3d</fix>
</trkpt>
<trkpt lat="40.0713751" lon="-105.2297889">
  <ele>1582.96</ele>
  <time>2026-08-28T17:50:43Z</time>
  <course>247.09</course>
  <speed>0.022360679774997897</speed>
  <fix>3d</fix>
</trkpt>
<trkpt lat="40.0713749" lon="-105.229789">
  <ele>1583.0</ele>
  <time>2026-08-28T17:50:43Z</time>
  <course>0.0</course>
  <speed>0.0</speed>
  <fix>3d</fix>
</trkpt>
<trkpt lat="40.071375" lon="-105.2297889">
  <ele>1582.96</ele>
  <time>2026-08-28T17:50:43Z</time>
  <course>247.09</course>
  <speed>0.022360679774997897</speed>
  <fix>3d</fix>
</trkpt>
<trkpt lat="40.0713749" lon="-105.229789">
  <ele>1583.0</ele>
  <time>2026-08-28T17:50:43Z</time>
  <course>0.0</course>
  <speed>0.0</speed>
  <fix>3d</fix>
</trkpt>
<trkpt lat="40.0713751" lon="-105.2297889">
  <ele>1582.96</ele>
  <time>2026-08-28T17:50:43Z</time>
  <course>247.09</course>
  <speed>0.022360679774997897</speed>
  <fix>3d</fix>
</trkpt>
<trkpt lat="40.0713749" lon="-105.229789">
  <ele>1583.0</ele>
  <time>2026-08-28T17:50:43Z</time>
  <course>0.0</course>
  <speed>0.0</speed>
  <fix>3d</fix>
</trkpt>
<trkpt lat="40.071375" lon="-105.2297889">
  <ele>1582.96</ele>
  <time>2026-08-28T17:50:43Z</time>
  <course>247.09</course>
  <speed>0.022360679774997897</speed>
  <fix>3d</fix>
</trkpt>
<trkpt lat="40.0713749" lon="-105.229789">
  <ele>1583.0</ele>
  <time>2026-08-28T17:50:43Z</time>
  <course>0.0</course>
  <speed>0.0</speed>
  <fix>3d</fix>
</trkpt>
<trkpt lat="40.0713751" lon="-105.2297889">
  <ele>1582.95</ele>
  <time>2026-08-28T17:50:43Z</time>
  <course>247.09</course>
  <speed>0.022360679774997897</speed>
  <fix>3d</fix>
</trkpt>
<trkpt lat="40.0713749" lon="-105.229789">
  <ele>1583.0</ele>
  <time>2026-08-28T17:50:43Z</time>
  <course>0.0</course>
  <speed>0.0</speed>
  <fix>3d</fix>
</trkpt>
<trkpt lat="40.071375" lon="-105.2297889">
  <ele>1582.95</ele>
  <time>2026-08-28T17:50:43Z</time>
  <course>247.09</course>
  <speed>0.022360679774997897</speed>
  <fix>3d</fix>
</trkpt>
<trkpt lat="40.0713749" lon="-105.229789">
  <ele>1583.0</ele>
  <time>2026-08-28T17:50:43Z</time>
  <course>0.0</course>
  <speed>0.0</speed>
  <fix>3d</fix>
</trkpt>
<trkpt lat="40.0713751" lon="-105.2297889">
  <ele>1582.94</ele>
  <time>2026-08-28T17:50:43Z</time>
  <course>247.09</course>
  <speed>0.022360679774997897</speed>
  <fix>3d</fix>
</trkpt>
<trkpt lat="40.0713749" lon="-105.229789">
  <ele>1583.0</ele>
  <time>2026-08-28T17:50:43Z</time>
  <course>0.0</course>
  <speed>0.0</speed>
  <fix>3d</fix>
</trkpt>
<trkpt lat="40.071375" lon="-105.2297889">
  <ele>1582.94</ele>
  <time>2026-08-28T17:50:43Z</time>
  <course>247.09</course>
  <speed>0.022360679774997897</speed>
  <fix>3d</fix>
</trkpt>
<trkpt lat="40.0713749" lon="-105.229789">
  <ele>1583.0</ele>
  <time>2026-08-28T17:50:43Z</time>
  <course>0.0</course>
  <speed>0.0</speed>
  <fix>3d</fix>
</trkpt>
<trkpt lat="40.0713751" lon="-105.2297889">
  <ele>1582.94</ele>
  <time>2026-08-28T17:50:43Z</time>
  <course>247.09</course>
  <speed>0.022360679774997897</speed>
  <fix>3d</fix>
</trkpt>
<trkpt lat="40.0713749" lon="-105.229789">
  <ele>1583.0</ele>
  <time>2026-08-28T17:50:43Z</time>
  <course>0.0</course>
  <speed>0.0</speed>
  <fix>3d</fix>
</trkpt>
<trkpt lat="40.0713751" lon="-105.2297889">
  <ele>1582.94</ele>
  <time>2026-08-28T17:50:43Z</time>
  <course>247.09</course>
  <speed>0.022360679774997897</speed>
  <fix>3d</fix>
</trkpt>
<trkpt lat="40.0713749" lon="-105.229789">
  <ele>1583.0</ele>
  <time>2026-08-28T17:50:43Z</time>
  <course>0.0</course>
  <speed>0.0</speed>
  <fix>3d</fix>
</trkpt>
<trkpt lat="40.0713751" lon="-105.2297889">
  <ele>1582.95</ele>
  <time>2026-08-28T17:50:43Z</time>
  <course>247.09</course>
  <speed>0.022360679774997897</speed>
  <fix>3d</fix>
</trkpt>
<trkpt lat="40.0713749" lon="-105.229789">
  <ele>1583.0</ele>
  <time>2026-08-28T17:50:43Z</time>
  <course>0.0</course>
  <speed>0.0</speed>
  <fix>3d</fix>
</trkpt>
<trkpt lat="40.0713751" lon="-105.2297889">
  <ele>1582.95</ele>
  <time>2026-08-28T17:50:43Z</time>
  <course>247.09</course>
  <speed>0.022360679774997897</speed>
  <fix>3d</fix>
</trkpt>
<trkpt lat="40.0713749" lon="-105.229789">
  <ele>1583.0</ele>
  <time>2026-08-28T17:50:43Z</time>
  <course>0.0</course>
  <speed>0.0</speed>
  <fix>3d</fix>
</trkpt>
<trkpt lat="40.0713751" lon="-105.2297889">
  <ele>1582.96</ele>
  <time>2026-08-28T17:50:43Z</time>
  <course>247.09</course>
  <speed>0.022360679774997897</speed>
  <fix>3d</fix>
</trkpt>
<trkpt lat="40.0713749" lon="-105.229789">
  <ele>1583.0</ele>
  <time>2026-08-28T17:50:43Z</time>
  <course>0.0</course>
  <speed>0.0</speed>
  <fix>3d</fix>
</trkpt>
<trkpt lat="40.0713751" lon="-105.2297889">
  <ele>1582.97</ele>
  <time>2026-08-28T17:50:43Z</time>
  <course>247.09</course>
  <speed>0.022360679774997897</speed>
  <fix>3d</fix>
</trkpt>
<trkpt lat="40.0713749" lon="-105.229789">
  <ele>1583.0</ele>
  <time>2026-08-28T17:50:43Z</time>
  <course>0.0</course>
  <speed>0.0</speed>
  <fix>3d</fix>
</trkpt>
<trkpt lat="40.0713751" lon="-105.2297889">
  <ele>1582.97</ele>
  <time>2026-08-28T17:50:43Z</time>
  <course>247.09</course>
  <speed>0.022360679774997897</speed>
  <fix>3d</fix>
</trkpt>
<trkpt lat="40.0713749" lon="-105.229789">
  <ele>1583.0</ele>
  <time>2026-08-28T17:50:43Z</time>
  <course>0.0</course>
  <speed>0.0</speed>
  <fix>3d</fix>
</trkpt>
<trkpt lat="40.0713751" lon="-105.2297889">
  <ele>1582.98</ele>
  <time>2026-08-28T17:50:43Z</time>
  <course>247.09</course>
  <speed>0.022360679774997897</speed>
  <fix>3d</fix>
</trkpt>
<trkpt lat="40.0713749" lon="-105.229789">
  <ele>1583.0</ele>
  <time>2026-08-28T17:50:43Z</time>
  <course>0.0</course>
  <speed>0.0</speed>
  <fix>3d</fix>
</trkpt>
<trkpt lat="40.0713751" lon="-105.2297889">
  <ele>1582.99</ele>
  <time>2026-08-28T17:50:43Z</time>
  <course>247.09</course>
  <speed>0.022360679774997897</speed>
  <fix>3d</fix>
</trkpt>
<trkpt lat="40.0713749" lon="-105.229789">
  <ele>1583.0</ele>
  <time>2026-08-28T17:50:43Z</time>
  <course>0.0</course>
  <speed>0.0</speed>
  <fix>3d</fix>
</trkpt>
<trkpt lat="40.0713751" lon="-105.2297889">
  <ele>1583.0</ele>
  <time>2026-08-28T17:50:43Z</time>
  <course>247.09</course>
  <speed>0.022360679774997897</speed>
  <fix>3d</fix>
</trkpt>
<trkpt lat="40.0713749" lon="-105.229789">
  <ele>1583.0</ele>
  <time>2026-08-28T17:50:43Z</time>
  <course>0.0</course>
  <speed>0.0</speed>
  <fix>3d</fix>
</trkpt>
<trkpt lat="40.0713751" lon="-105.2297889">
  <ele>1583.0</ele>
  <time>2026-08-28T17:50:43Z</time>
  <course>247.09</course>
  <speed>0.022360679774997897</speed>
  <fix>3d</fix>
</trkpt>
<trkpt lat="40.0713749" lon="-105.229789">
  <ele>1583.0</ele>
  <time>2026-08-28T17:50:43Z</time>
  <course>0.0</course>
  <speed>0.0</speed>
  <fix>3d</fix>
</trkpt>
<trkpt lat="40.0713751" lon="-105.2297889">
  <ele>1583.01</ele>
  <time>2026-08-28T17:50:43Z</time>
  <course>247.09</course>
  <speed>0.022360679774997897</speed>
  <fix>3d</fix>
</trkpt>
<trkpt lat="40.0713749" lon="-105.229789">
  <ele>1583.0</ele>
  <time>2026-08-28T17:50:43Z</time>
  <course>0.0</course>
  <speed>0.0</speed>
  <fix>3d</fix>
</trkpt>
<trkpt lat="40.0713751" lon="-105.2297889">
  <ele>1583.01</ele>
  <time>2026-08-28T17:50:43Z</time>
  <course>247.09</course>
  <speed>0.022360679774997897</speed>
  <fix>3d</fix>
</trkpt>
<trkpt lat="40.0713749" lon="-105.229789">
  <ele>1583.0</ele>
  <time>2026-08-28T17:50:43Z</time>
  <course>0.0</course>
  <speed>0.0</speed>
  <fix>3d</fix>
</trkpt>
<trkpt lat="40.0713751" lon="-105.2297889">
  <ele>1583.01</ele>
  <time>2026-08-28T17:50:43Z</time>
  <course>247.09</course>
  <speed>0.022360679774997897</speed>
  <fix>3d</fix>
</trkpt>
<trkpt lat="40.0713749" lon="-105.229789">
  <ele>1583.0</ele>
  <time>2026-08-28T17:50:43Z</time>
  <course>0.0</course>
  <speed>0.0</speed>
  <fix>3d</fix>
</trkpt>
<trkpt lat="40.0713751" lon="-105.2297889">
  <ele>1583.02</ele>
  <time>2026-08-28T17:50:43Z</time>
  <course>247.09</course>
  <speed>0.022360679774997897</speed>
  <fix>3d</fix>
</trkpt>
<trkpt lat="40.0713749" lon="-105.229789">
  <ele>1583.0</ele>
  <time>2026-08-28T17:50:43Z</time>
  <course>0.0</course>
  <speed>0.0</speed>
  <fix>3d</fix>
</trkpt>
<trkpt lat="40.0713751" lon="-105.2297889">
  <ele>1583.02</ele>
  <time>2026-08-28T17:50:43Z</time>
  <course>247.09</course>
  <speed>0.022360679774997897</speed>
  <fix>3d</fix>
</trkpt>
<trkpt lat="40.0713749" lon="-105.229789">
  <ele>1583.0</ele>
  <time>2026-08-28T17:50:43Z</time>
  <course>0.0</course>
  <speed>0.0</speed>
  <fix>3d</fix>
</trkpt>
<trkpt lat="40.0713751" lon="-105.2297889">
  <ele>1583.03</ele>
  <time>2026-08-28T17:50:43Z</time>
  <course>247.09</course>
  <speed>0.022360679774997897</speed>
  <fix>3d</fix>
</trkpt>
<trkpt lat="40.0713749" lon="-105.229789">
  <ele>1583.0</ele>
  <time>2026-08-28T17:50:43Z</time>
  <course>0.0</course>
  <speed>0.0</speed>
  <fix>3d</fix>
</trkpt>
<trkpt lat="40.0713751" lon="-105.2297889">
  <ele>1583.03</ele>
  <time>2026-08-28T17:50:43Z</time>
  <course>247.09</course>
  <speed>0.022360679774997897</speed>
  <fix>3d</fix>
</trkpt>
<trkpt lat="40.0713749" lon="-105.229789">
  <ele>1583.0</ele>
  <time>2026-08-28T17:50:43Z</time>
  <course>0.0</course>
  <speed>0.0</speed>
  <fix>3d</fix>
</trkpt>
<trkpt lat="40.0713751" lon="-105.2297889">
  <ele>1583.04</ele>
  <time>2026-08-28T17:50:43Z</time>
  <course>247.09</course>
  <speed>0.022360679774997897</speed>
  <fix>3d</fix>
</trkpt>
<trkpt lat="40.0713749" lon="-105.229789">
  <ele>1583.0</ele>
  <time>2026-08-28T17:50:43Z</time>
  <course>0.0</course>
  <speed>0.0</speed>
  <fix>3d</fix>
</trkpt>
<trkpt lat="40.0713751" lon="-105.2297889">
  <ele>1583.05</ele>
  <time>2026-08-28T17:50:43Z</time>
  <course>247.09</course>
  <speed>0.022360679774997897</speed>
  <fix>3d</fix>
</trkpt>
<trkpt lat="40.0713749" lon="-105.229789">
  <ele>1583.0</ele>
  <time>2026-08-28T17:50:43Z</time>
  <course>0.0</course>
  <speed>0.0</speed>
  <fix>3d</fix>
</trkpt>
<trkpt lat="40.0713751" lon="-105.2297889">
  <ele>1583.05</ele>
  <time>2026-08-28T17:50:43Z</time>
  <course>247.09</course>
  <speed>0.022360679774997897</speed>
  <fix>3d</fix>
</trkpt>
<trkpt lat="40.0713749" lon="-105.229789">
  <ele>1583.0</ele>
  <time>2026-08-28T17:50:43Z</time>
  <course>0.0</course>
  <speed>0.0</speed>
  <fix>3d</fix>
</trkpt>
<trkpt lat="40.0713751" lon="-105.2297889">
  <ele>1583.05</ele>
  <time>2026-08-28T17:50:43Z</time>
  <course>247.09</course>
  <speed>0.022360679774997897</speed>
  <fix>3d</fix>
</trkpt>
<trkpt lat="40.0713749" lon="-105.229789">
  <ele>1583.0</ele>
  <time>2026-08-28T17:50:43Z</time>
  <course>0.0</course>
  <speed>0.0</speed>
  <fix>3d</fix>
</trkpt>
<trkpt lat="40.0713751" lon="-105.2297889">
  <ele>1583.05</ele>
  <time>2026-08-28T17:50:43Z</time>
  <course>247.09</course>
  <speed>0.022360679774997897</speed>
  <fix>3d</fix>
</trkpt>
<trkpt lat="40.0713749" lon="-105.229789">
  <ele>1583.0</ele>
  <time>2026-08-28T17:50:43Z</time>
  <course>0.0</course>
  <speed>0.0</speed>
  <fix>3d</fix>
</trkpt>
<trkpt lat="40.0713751" lon="-105.2297889">
  <ele>1583.05</ele>
  <time>2026-08-28T17:50:43Z</time>
  <course>247.09</course>
  <speed>0.022360679774997897</speed>
  <fix>3d</fix>
</trkpt>
<trkpt lat="40.0713749" lon="-105.229789">
  <ele>1583.0</ele>
  <time>2026-08-28T17:50:43Z</time>
  <course>0.0</course>
  <speed>0.0</speed>
  <fix>3d</fix>
</trkpt>
<trkpt lat="40.0713751" lon="-105.2297889">
  <ele>1583.04</ele>
  <time>2026-08-28T17:50:43Z</time>
  <course>247.09</course>
  <speed>0.022360679774997897</speed>
  <fix>3d</fix>
</trkpt>
<trkpt lat="40.0713749" lon="-105.229789">
  <ele>1583.0</ele>
  <time>2026-08-28T17:50:43Z</time>
  <course>0.0</course>
  <speed>0.0</speed>
  <fix>3d</fix>
</trkpt>
<trkpt lat="40.0713751" lon="-105.2297889">
  <ele>1583.04</ele>
  <time>2026-08-28T17:50:43Z</time>
  <course>247.09</course>
  <speed>0.022360679774997897</speed>
  <fix>3d</fix>
</trkpt>
<trkpt lat="40.0713749" lon="-105.229789">
  <ele>1583.0</ele>
  <time>2026-08-28T17:50:43Z</time>
  <course>0.0</course>
  <speed>0.0</speed>
  <fix>3d</fix>
</trkpt>
<trkpt lat="40.0713751" lon="-105.2297889">
  <ele>1583.03</ele>
  <time>2026-08-28T17:50:43Z</time>
  <course>247.09</course>
  <speed>0.022360679774997897</speed>
  <fix>3d</fix>
</trkpt>
<trkpt lat="40.0713749" lon="-105.229789">
  <ele>1583.0</ele>
  <time>2026-08-28T17:50:43Z</time>
  <course>0.0</course>
  <speed>0.0</speed>
  <fix>3d</fix>
</trkpt>
<trkpt lat="40.0713751" lon="-105.2297889">
  <ele>1583.03</ele>
  <time>2026-08-28T17:50:43Z</time>
  <course>247.09</course>
  <speed>0.022360679774997897</speed>
  <fix>3d</fix>
</trkpt>
<trkpt lat="40.0713749" lon="-105.229789">
  <ele>1583.0</ele>
  <time>2026-08-28T17:50:43Z</time>
  <course>0.0</course>
  <speed>0.0</speed>
  <fix>3d</fix>
</trkpt>
<trkpt lat="40.0713751" lon="-105.2297889">
  <ele>1583.02</ele>
  <time>2026-08-28T17:50:43Z</time>
  <course>247.09</course>
  <speed>0.022360679774997897</speed>
  <fix>3d</fix>
</trkpt>
<trkpt lat="40.0713749" lon="-105.229789">
  <ele>1583.0</ele>
  <time>2026-08-28T17:50:43Z</time>
  <course>0.0</course>
  <speed>0.0</speed>
  <fix>3d</fix>
</trkpt>
<trkpt lat="40.0713751" lon="-105.2297889">
  <ele>1583.02</ele>
  <time>2026-08-28T17:50:43Z</time>
  <course>247.09</course>
  <speed>0.022360679774997897</speed>
  <fix>3d</fix>
</trkpt>
<trkpt lat="40.0713749" lon="-105.229789">
  <ele>1583.0</ele>
  <time>2026-08-28T17:50:43Z</time>
  <course>0.0</course>
  <speed>0.0</speed>
  <fix>3d</fix>
</trkpt>
<trkpt lat="40.0713751" lon="-105.2297889">
  <ele>1583.01</ele>
  <time>2026-08-28T17:50:43Z</time>
  <course>247.09</course>
  <speed>0.022360679774997897</speed>
  <fix>3d</fix>
</trkpt>
<trkpt lat="40.0713749" lon="-105.229789">
  <ele>1583.0</ele>
  <time>2026-08-28T17:50:43Z</time>
  <course>0.0</course>
  <speed>0.0</speed>
  <fix>3d</fix>
</trkpt>
<trkpt lat="40.0713751" lon="-105.2297889">
  <ele>1583.0</ele>
  <time>2026-08-28T17:50:43Z</time>
  <course>247.09</course>
  <speed>0.022360679774997897</speed>
  <fix>3d</fix>
</trkpt>
<trkpt lat="40.0713749" lon="-105.229789">
  <ele>1583.0</ele>
  <time>2026-08-28T17:50:43Z</time>
  <course>0.0</course>
  <speed>0.0</speed>
  <fix>3d</fix>
</trkpt>
<trkpt lat="40.0713751" lon="-105.2297889">
  <ele>1583.0</ele>
  <time>2026-08-28T17:50:43Z</time>
  <course>247.09</course>
  <speed>0.022360679774997897</speed>
  <fix>3d</fix>
</trkpt>
<trkpt lat="40.0713749" lon="-105.229789">
  <ele>1583.0</ele>
  <time>2026-08-28T17:50:43Z</time>
  <course>0.0</course>
  <speed>0.0</speed>
  <fix>3d</fix>
</trkpt>
<trkpt lat="40.071375" lon="-105.2297889">
  <ele>1582.99</ele>
  <time>2026-08-28T17:50:43Z</time>
  <course>247.09</course>
  <speed>0.022360679774997897</speed>
  <fix>3d</fix>
</trkpt>
<trkpt lat="40.0713749" lon="-105.229789">
  <ele>1583.0</ele>
  <time>2026-08-28T17:50:43Z</time>
  <course>0.0</course>
  <speed>0.0</speed>
  <fix>3d</fix>
</trkpt>
<trkpt lat="40.0713751" lon="-105.2297889">
  <ele>1582.98</ele>
  <time>2026-08-28T17:50:43Z</time>
  <course>247.09</course>
  <speed>0.022360679774997897</speed>
  <fix>3d</fix>
</trkpt>
<trkpt lat="40.0713749" lon="-105.229789">
  <ele>1583.0</ele>
  <time>2026-08-28T17:50:43Z</time>
  <course>0.0</course>
  <speed>0.0</speed>
  <fix>3d</fix>
</trkpt>
<trkpt lat="40.071375" lon="-105.2297889">
  <ele>1582.98</ele>
  <time>2026-08-28T17:50:43Z</time>
  <course>247.09</course>
  <speed>0.022360679774997897</speed>
  <fix>3d</fix>
</trkpt>
<trkpt lat="40.0713749" lon="-105.229789">
  <ele>1583.0</ele>
  <time>2026-08-28T17:50:43Z</time>
  <course>0.0</course>
  <speed>0.0</speed>
  <fix>3d</fix>
</trkpt>
<trkpt lat="40.0713751" lon="-105.2297889">
  <ele>1582.97</ele>
  <time>2026-08-28T17:50:43Z</time>
  <course>247.09</course>
  <speed>0.022360679774997897</speed>
  <fix>3d</fix>
</trkpt>
<trkpt lat="40.0713749" lon="-105.229789">
  <ele>1583.0</ele>
  <time>2026-08-28T17:50:43Z</time>
  <course>0.0</course>
  <speed>0.0</speed>
  <fix>3d</fix>
</trkpt>
<trkpt lat="40.071375" lon="-105.2297889">
  <ele>1582.96</ele>
  <time>2026-08-28T17:50:43Z</time>
  <course>247.09</course>
  <speed>0.022360679774997897</speed>
  <fix>3d</fix>
</trkpt>
<trkpt lat="40.0713749" lon="-105.229789">
  <ele>1583.0</ele>
  <time>2026-08-28T17:50:43Z</time>
  <course>0.0</course>
  <speed>0.0</speed>
  <fix>3d</fix>
</trkpt>
<trkpt lat="40.0713751" lon="-105.2297889">
  <ele>1582.95</ele>
  <time>2026-08-28T17:50:43Z</time>
  <course>247.09</course>
  <speed>0.022360679774997897</speed>
  <fix>3d</fix>
</trkpt>
<trkpt lat="40.0713749" lon="-105.229789">
  <ele>1583.0</ele>
  <time>2026-08-28T17:50:43Z</time>
  <course>0.0</course>
  <speed>0.0</speed>
  <fix>3d</fix>
</trkpt>
<trkpt lat="40.071375" lon="-105.2297889">
  <ele>1582.94</ele>
  <time>2026-08-28T17:50:43Z</time>
  <course>247.09</course>
  <speed>0.022360679774997897</speed>
  <fix>3d</fix>
</trkpt>
<trkpt lat="40.0713749" lon="-105.229789">
  <ele>1583.0</ele>
  <time>2026-08-28T17:50:43Z</time>
  <course>0.0</course>
  <speed>0.0</speed>
  <fix>3d</fix>
</trkpt>
<trkpt lat="40.0713751" lon="-105.2297889">
  <ele>1582.94</ele>
  <time>2026-08-28T17:50:43Z</time>
  <course>247.09</course>
  <speed>0.022360679774997897</speed>
  <fix>3d</fix>
</trkpt>
<trkpt lat="40.0713749" lon="-105.229789">
  <ele>1583.0</ele>
  <time>2026-08-28T17:50:43Z</time>
  <course>0.0</course>
  <speed>0.0</speed>
  <fix>3d</fix>
</trkpt>
<trkpt lat="40.071375" lon="-105.2297889">
  <ele>1582.93</ele>
  <time>2026-08-28T17:50:43Z</time>
  <course>247.09</course>
  <speed>0.022360679774997897</speed>
  <fix>3d</fix>
</trkpt>
<trkpt lat="40.0713749" lon="-105.229789">
  <ele>1583.0</ele>
  <time>2026-08-28T17:50:43Z</time>
  <course>0.0</course>
  <speed>0.0</speed>
  <fix>3d</fix>
</trkpt>
<trkpt lat="40.0713751" lon="-105.2297889">
  <ele>1582.92</ele>
  <time>2026-08-28T17:50:43Z</time>
  <course>247.09</course>
  <speed>0.022360679774997897</speed>
  <fix>3d</fix>
</trkpt>
<trkpt lat="40.0713749" lon="-105.229789">
  <ele>1583.0</ele>
  <time>2026-08-28T17:50:43Z</time>
  <course>0.0</course>
  <speed>0.0</speed>
  <fix>3d</fix>
</trkpt>
<trkpt lat="40.071375" lon="-105.2297889">
  <ele>1582.92</ele>
  <time>2026-08-28T17:50:43Z</time>
  <course>247.09</course>
  <speed>0.022360679774997897</speed>
  <fix>3d</fix>
</trkpt>
<trkpt lat="40.0713749" lon="-105.229789">
  <ele>1583.0</ele>
  <time>2026-08-28T17:50:43Z</time>
  <course>0.0</course>
  <speed>0.0</speed>
  <fix>3d</fix>
</trkpt>
<trkpt lat="40.0713751" lon="-105.2297889">
  <ele>1582.92</ele>
  <time>2026-08-28T17:50:43Z</time>
  <course>247.09</course>
  <speed>0.022360679774997897</speed>
  <fix>3d</fix>
</trkpt>
<trkpt lat="40.0713749" lon="-105.229789">
  <ele>1583.0</ele>
  <time>2026-08-28T17:50:43Z</time>
  <course>0.0</course>
  <speed>0.0</speed>
  <fix>3d</fix>
</trkpt>
<trkpt lat="40.071375" lon="-105.2297889">
  <ele>1582.92</ele>
  <time>2026-08-28T17:50:43Z</time>
  <course>247.09</course>
  <speed>0.022360679774997897</speed>
  <fix>3d</fix>
</trkpt>
<trkpt lat="40.0713749" lon="-105.229789">
  <ele>1583.0</ele>
  <time>2026-08-28T17:50:43Z</time>
  <course>0.0</course>
  <speed>0.0</speed>
  <fix>3d</fix>
</trkpt>
<trkpt lat="40.0713751" lon="-105.2297889">
  <ele>1582.91</ele>
  <time>2026-08-28T17:50:43Z</time>
  <course>247.09</course>
  <speed>0.022360679774997897</speed>
  <fix>3d</fix>
</trkpt>
<trkpt lat="40.0713749" lon="-105.229789">
  <ele>1583.0</ele>
  <time>2026-08-28T17:50:43Z</time>
  <course>0.0</course>
  <speed>0.0</speed>
  <fix>3d</fix>
</trkpt>
<trkpt lat="40.0713751" lon="-105.2297889">
  <ele>1582.91</ele>
  <time>2026-08-28T17:50:43Z</time>
  <course>247.09</course>
  <speed>0.022360679774997897</speed>
  <fix>3d</fix>
</trkpt>
<trkpt lat="40.0713749" lon="-105.229789">
  <ele>1583.0</ele>
  <time>2026-08-28T17:50:43Z</time>
  <course>0.0</course>
  <speed>0.0</speed>
  <fix>3d</fix>
</trkpt>
<trkpt lat="40.0713751" lon="-105.2297889">
  <ele>1582.91</ele>
  <time>2026-08-28T17:50:43Z</time>
  <course>247.09</course>
  <speed>0.022360679774997897</speed>
  <fix>3d</fix>
</trkpt>
<trkpt lat="40.0713749" lon="-105.229789">
  <ele>1583.0</ele>
  <time>2026-08-28T17:50:43Z</time>
  <course>0.0</course>
  <speed>0.0</speed>
  <fix>3d</fix>
</trkpt>
<trkpt lat="40.0713751" lon="-105.2297889">
  <ele>1582.9</ele>
  <time>2026-08-28T17:50:43Z</time>
  <course>247.09</course>
  <speed>0.022360679774997897</speed>
  <fix>3d</fix>
</trkpt>
<trkpt lat="40.0713749" lon="-105.229789">
  <ele>1583.0</ele>
  <time>2026-08-28T17:50:43Z</time>
  <course>0.0</course>
  <speed>0.0</speed>
  <fix>3d</fix>
</trkpt>
<trkpt lat="40.0713751" lon="-105.2297889">
  <ele>1582.9</ele>
  <time>2026-08-28T17:50:43Z</time>
  <course>247.09</course>
  <speed>0.022360679774997897</speed>
  <fix>3d</fix>
</trkpt>
<trkpt lat="40.0713749" lon="-105.229789">
  <ele>1583.0</ele>
  <time>2026-08-28T17:50:43Z</time>
  <course>0.0</course>
  <speed>0.0</speed>
  <fix>3d</fix>
</trkpt>
<trkpt lat="40.0713751" lon="-105.2297889">
  <ele>1582.91</ele>
  <time>2026-08-28T17:50:43Z</time>
  <course>247.09</course>
  <speed>0.022360679774997897</speed>
  <fix>3d</fix>
</trkpt>
<trkpt lat="40.0713749" lon="-105.229789">
  <ele>1583.0</ele>
  <time>2026-08-28T17:50:43Z</time>
  <course>0.0</course>
  <speed>0.0</speed>
  <fix>3d</fix>
</trkpt>
<trkpt lat="40.0713751" lon="-105.2297889">
  <ele>1582.91</ele>
  <time>2026-08-28T17:50:43Z</time>
  <course>247.09</course>
  <speed>0.022360679774997897</speed>
  <fix>3d</fix>
</trkpt>
<trkpt lat="40.0713749" lon="-105.229789">
  <ele>1583.0</ele>
  <time>2026-08-28T17:50:43Z</time>
  <course>0.0</course>
  <speed>0.0</speed>
  <fix>3d</fix>
</trkpt>
<trkpt lat="40.071375" lon="-105.2297889">
  <ele>1582.92</ele>
  <time>2026-08-28T17:50:43Z</time>
  <course>247.09</course>
  <speed>0.022360679774997897</speed>
  <fix>3d</fix>
</trkpt>
<trkpt lat="40.0713749" lon="-105.229789">
  <ele>1583.0</ele>
  <time>2026-08-28T17:50:43Z</time>
  <course>0.0</course>
  <speed>0.0</speed>
  <fix>3d</fix>
</trkpt>
<trkpt lat="40.0713751" lon="-105.2297889">
  <ele>1582.93</ele>
  <time>2026-08-28T17:50:43Z</time>
  <course>247.09</course>
  <speed>0.022360679774997897</speed>
  <fix>3d</fix>
</trkpt>
<trkpt lat="40.0713749" lon="-105.229789">
  <ele>1583.0</ele>
  <time>2026-08-28T17:50:43Z</time>
  <course>0.0</course>
  <speed>0.0</speed>
  <fix>3d</fix>
</trkpt>
<trkpt lat="40.071375" lon="-105.2297889">
  <ele>1582.94</ele>
  <time>2026-08-28T17:50:43Z</time>
  <course>247.09</course>
  <speed>0.022360679774997897</speed>
  <fix>3d</fix>
</trkpt>
<trkpt lat="40.0713749" lon="-105.229789">
  <ele>1583.0</ele>
  <time>2026-08-28T17:50:43Z</time>
  <course>0.0</course>
  <speed>0.0</speed>
  <fix>3d</fix>
</trkpt>
<trkpt lat="40.0713751" lon="-105.2297889">
  <ele>1582.95</ele>
  <time>2026-08-28T17:50:43Z</time>
  <course>247.09</course>
  <speed>0.022360679774997897</speed>
  <fix>3d</fix>
</trkpt>
<trkpt lat="40.0713749" lon="-105.229789">
  <ele>1583.0</ele>
  <time>2026-08-28T17:50:43Z</time>
  <course>0.0</course>
  <speed>0.0</speed>
  <fix>3d</fix>
</trkpt>
<trkpt lat="40.071375" lon="-105.2297889">
  <ele>1582.95</ele>
  <time>2026-08-28T17:50:43Z</time>
  <course>247.09</course>
  <speed>0.022360679774997897</speed>
  <fix>3d</fix>
</trkpt>
<trkpt lat="40.0713749" lon="-105.229789">
  <ele>1583.0</ele>
  <time>2026-08-28T17:50:43Z</time>
  <course>0.0</course>
  <speed>0.0</speed>
  <fix>3d</fix>
</trkpt>
<trkpt lat="40.0713751" lon="-105.2297889">
  <ele>1582.96</ele>
  <time>2026-08-28T17:50:43Z</time>
  <course>247.09</course>
  <speed>0.022360679774997897</speed>
  <fix>3d</fix>
</trkpt>
<trkpt lat="40.0713749" lon="-105.229789">
  <ele>1583.0</ele>
  <time>2026-08-28T17:50:43Z</time>
  <course>0.0</course>
  <speed>0.0</speed>
  <fix>3d</fix>
</trkpt>
<trkpt lat="40.071375" lon="-105.2297889">
  <ele>1582.97</ele>
  <time>2026-08-28T17:50:43Z</time>
  <course>247.09</course>
  <speed>0.022360679774997897</speed>
  <fix>3d</fix>
</trkpt>
<trkpt lat="40.0713749" lon="-105.229789">
  <ele>1583.0</ele>
  <time>2026-08-28T17:50:43Z</time>
  <course>0.0</course>
  <speed>0.0</speed>
  <fix>3d</fix>
</trkpt>
<trkpt lat="40.0713751" lon="-105.2297889">
  <ele>1582.97</ele>
  <time>2026-08-28T17:50:43Z</time>
  <course>247.09</course>
  <speed>0.022360679774997897</speed>
  <fix>3d</fix>
</trkpt>
<trkpt lat="40.0713749" lon="-105.229789">
  <ele>1583.0</ele>
  <time>2026-08-28T17:50:43Z</time>
  <course>0.0</course>
  <speed>0.0</speed>
  <fix>3d</fix>
</trkpt>
<trkpt lat="40.071375" lon="-105.2297889">
  <ele>1582.97</ele>
  <time>2026-08-28T17:50:43Z</time>
  <course>247.09</course>
  <speed>0.022360679774997897</speed>
  <fix>3d</fix>
</trkpt>
<trkpt lat="40.0713749" lon="-105.229789">
  <ele>1583.0</ele>
  <time>2026-08-28T17:50:43Z</time>
  <course>0.0</course>
  <speed>0.0</speed>
  <fix>3d</fix>
</trkpt>
<trkpt lat="40.0713751" lon="-105.2297889">
  <ele>1582.97</ele>
  <time>2026-08-28T17:50:43Z</time>
  <course>247.09</course>
  <speed>0.022360679774997897</speed>
  <fix>3d</fix>
</trkpt>
<trkpt lat="40.0713749" lon="-105.229789">
  <ele>1583.0</ele>
  <time>2026-08-28T17:50:43Z</time>
  <course>0.0</course>
  <speed>0.0</speed>
  <fix>3d</fix>
</trkpt>
<trkpt lat="40.071375" lon="-105.2297889">
  <ele>1582.97</ele>
  <time>2026-08-28T17:50:43Z</time>
  <course>247.09</course>
  <speed>0.022360679774997897</speed>
  <fix>3d</fix>
</trkpt>
<trkpt lat="40.0713749" lon="-105.229789">
  <ele>1583.0</ele>
  <time>2026-08-28T17:50:43Z</time>
  <course>0.0</course>
  <speed>0.0</speed>
  <fix>3d</fix>
</trkpt>
<trkpt lat="40.0713751" lon="-105.2297889">
  <ele>1582.97</ele>
  <time>2026-08-28T17:50:43Z</time>
  <course>247.09</course>
  <speed>0.022360679774997897</speed>
  <fix>3d</fix>
</trkpt>
<trkpt lat="40.0713749" lon="-105.229789">
  <ele>1583.0</ele>
  <time>2026-08-28T17:50:43Z</time>
  <course>0.0</course>
  <speed>0.0</speed>
  <fix>3d</fix>
</trkpt>
<trkpt lat="40.071375" lon="-105.2297889">
  <ele>1582.97</ele>
  <time>2026-08-28T17:50:43Z</time>
  <course>247.09</course>
  <speed>0.022360679774997897</speed>
  <fix>3d</fix>
</trkpt>
<trkpt lat="40.0713749" lon="-105.229789">
  <ele>1583.0</ele>
  <time>2026-08-28T17:50:43Z</time>
  <course>0.0</course>
  <speed>0.0</speed>
  <fix>3d</fix>
</trkpt>
<trkpt lat="40.0713751" lon="-105.2297889">
  <ele>1582.96</ele>
  <time>2026-08-28T17:50:43Z</time>
  <course>247.09</course>
  <speed>0.022360679774997897</speed>
  <fix>3d</fix>
</trkpt>
<trkpt lat="40.0713749" lon="-105.229789">
  <ele>1583.0</ele>
  <time>2026-08-28T17:50:43Z</time>
  <course>0.0</course>
  <speed>0.0</speed>
  <fix>3d</fix>
</trkpt>
<trkpt lat="40.0713751" lon="-105.2297889">
  <ele>1582.96</ele>
  <time>2026-08-28T17:50:43Z</time>
  <course>247.09</course>
  <speed>0.022360679774997897</speed>
  <fix>3d</fix>
</trkpt>
<trkpt lat="40.0713749" lon="-105.229789">
  <ele>1583.0</ele>
  <time>2026-08-28T17:50:43Z</time>
  <course>0.0</course>
  <speed>0.0</speed>
  <fix>3d</fix>
</trkpt>
<trkpt lat="40.0713751" lon="-105.2297889">
  <ele>1582.95</ele>
  <time>2026-08-28T17:50:43Z</time>
  <course>247.09</course>
  <speed>0.022360679774997897</speed>
  <fix>3d</fix>
</trkpt>
<trkpt lat="40.0713749" lon="-105.229789">
  <ele>1583.0</ele>
  <time>2026-08-28T17:50:43Z</time>
  <course>0.0</course>
  <speed>0.0</speed>
  <fix>3d</fix>
</trkpt>
<trkpt lat="40.0713751" lon="-105.2297889">
  <ele>1582.95</ele>
  <time>2026-08-28T17:50:43Z</time>
  <course>247.09</course>
  <speed>0.022360679774997897</speed>
  <fix>3d</fix>
</trkpt>
<trkpt lat="40.0713749" lon="-105.229789">
  <ele>1583.0</ele>
  <time>2026-08-28T17:50:43Z</time>
  <course>0.0</course>
  <speed>0.0</speed>
  <fix>3d</fix>
</trkpt>
<trkpt lat="40.0713751" lon="-105.2297889">
  <ele>1582.95</ele>
  <time>2026-08-28T17:50:43Z</time>
  <course>247.09</course>
  <speed>0.022360679774997897</speed>
  <fix>3d</fix>
</trkpt>
<trkpt lat="40.0713749" lon="-105.229789">
  <ele>1583.0</ele>
  <time>2026-08-28T17:50:43Z</time>
  <course>0.0</course>
  <speed>0.0</speed>
  <fix>3d</fix>
</trkpt>
<trkpt lat="40.0713751" lon="-105.2297889">
  <ele>1582.95</ele>
  <time>2026-08-28T17:50:43Z</time>
  <course>247.09</course>
  <speed>0.022360679774997897</speed>
  <fix>3d</fix>
</trkpt>
<trkpt lat="40.0713749" lon="-105.229789">
  <ele>1583.0</ele>
  <time>2026-08-28T17:50:43Z</time>
  <course>0.0</course>
  <speed>0.0</speed>
  <fix>3d</fix>
</trkpt>
<trkpt lat="40.0713751" lon="-105.2297889">
  <ele>1582.95</ele>
  <time>2026-08-28T17:50:43Z</time>
  <course>247.09</course>
  <speed>0.022360679774997897</speed>
  <fix>3d</fix>
</trkpt>
<trkpt lat="40.0713749" lon="-105.229789">
  <ele>1583.0</ele>
  <time>2026-08-28T17:50:43Z</time>
  <course>0.0</course>
  <speed>0.0</speed>
  <fix>3d</fix>
</trkpt>
<trkpt lat="40.0713751" lon="-105.2297889">
  <ele>1582.95</ele>
  <time>2026-08-28T17:50:43Z</time>
  <course>247.09</course>
  <speed>0.022360679774997897</speed>
  <fix>3d</fix>
</trkpt>
<trkpt lat="40.0713749" lon="-105.229789">
  <ele>1583.0</ele>
  <time>2026-08-28T17:50:43Z</time>
  <course>0.0</course>
  <speed>0.0</speed>
  <fix>3d</fix>
</trkpt>
<trkpt lat="40.0713751" lon="-105.2297889">
  <ele>1582.95</ele>
  <time>2026-08-28T17:50:43Z</time>
  <course>247.09</course>
  <speed>0.022360679774997897</speed>
  <fix>3d</fix>
</trkpt>
<trkpt lat="40.0713749" lon="-105.229789">
  <ele>1583.0</ele>
  <time>2026-08-28T17:50:43Z</time>
  <course>0.0</course>
  <speed>0.0</speed>
  <fix>3d</fix>
</trkpt>
<trkpt lat="40.071375" lon="-105.2297889">
  <ele>1582.94</ele>
  <time>2026-08-28T17:50:43Z</time>
  <course>247.09</course>
  <speed>0.022360679774997897</speed>
  <fix>3d</fix>
</trkpt>
<trkpt lat="40.0713749" lon="-105.229789">
  <ele>1583.0</ele>
  <time>2026-08-28T17:50:43Z</time>
  <course>0.0</course>
  <speed>0.0</speed>
  <fix>3d</fix>
</trkpt>
<trkpt lat="40.0713751" lon="-105.2297889">
  <ele>1582.94</ele>
  <time>2026-08-28T17:50:43Z</time>
  <course>247.09</course>
  <speed>0.022360679774997897</speed>
  <fix>3d</fix>
</trkpt>
<trkpt lat="40.0713749" lon="-105.229789">
  <ele>1583.0</ele>
  <time>2026-08-28T17:50:43Z</time>
  <course>0.0</course>
  <speed>0.0</speed>
  <fix>3d</fix>
</trkpt>
<trkpt lat="40.071375" lon="-105.2297889">
  <ele>1582.93</ele>
  <time>2026-08-28T17:50:43Z</time>
  <course>247.09</course>
  <speed>0.022360679774997897</speed>
  <fix>3d</fix>
</trkpt>
<trkpt lat="40.0713749" lon="-105.229789">
  <ele>1583.0</ele>
  <time>2026-08-28T17:50:43Z</time>
  <course>0.0</course>
  <speed>0.0</speed>
  <fix>3d</fix>
</trkpt>
<trkpt lat="40.0713751" lon="-105.2297889">
  <ele>1582.93</ele>
  <time>2026-08-28T17:50:43Z</time>
  <course>247.09</course>
  <speed>0.022360679774997897</speed>
  <fix>3d</fix>
</trkpt>
<trkpt lat="40.0713749" lon="-105.229789">
  <ele>1583.0</ele>
  <time>2026-08-28T17:50:43Z</time>
  <course>0.0</course>
  <speed>0.0</speed>
  <fix>3d</fix>
</trkpt>
<trkpt lat="40.0713751" lon="-105.2297889">
  <ele>1582.93</ele>
  <time>2026-08-28T17:50:43Z</time>
  <course>247.09</course>
  <speed>0.022360679774997897</speed>
  <fix>3d</fix>
</trkpt>
<trkpt lat="40.0713749" lon="-105.229789">
  <ele>1583.0</ele>
  <time>2026-08-28T17:50:43Z</time>
  <course>0.0</course>
  <speed>0.0</speed>
  <fix>3d</fix>
</trkpt>
<trkpt lat="40.0713751" lon="-105.2297889">
  <ele>1582.93</ele>
  <time>2026-08-28T17:50:43Z</time>
  <course>247.09</course>
  <speed>0.022360679774997897</speed>
  <fix>3d</fix>
</trkpt>
<trkpt lat="40.0713749" lon="-105.229789">
  <ele>1583.0</ele>
  <time>2026-08-28T17:50:43Z</time>
  <course>0.0</course>
  <speed>0.0</speed>
  <fix>3d</fix>
</trkpt>
<trkpt lat="40.0713751" lon="-105.2297889">
  <ele>1582.93</ele>
  <time>2026-08-28T17:50:43Z</time>
  <course>247.09</course>
  <speed>0.022360679774997897</speed>
  <fix>3d</fix>
</trkpt>
<trkpt lat="40.0713749" lon="-105.229789">
  <ele>1583.0</ele>
  <time>2026-08-28T17:50:43Z</time>
  <course>0.0</course>
  <speed>0.0</speed>
  <fix>3d</fix>
</trkpt>
<trkpt lat="40.0713751" lon="-105.2297889">
  <ele>1582.93</ele>
  <time>2026-08-28T17:50:43Z</time>
  <course>247.09</course>
  <speed>0.022360679774997897</speed>
  <fix>3d</fix>
</trkpt>
<trkpt lat="40.0713749" lon="-105.229789">
  <ele>1583.0</ele>
  <time>2026-08-28T17:50:43Z</time>
  <course>0.0</course>
  <speed>0.0</speed>
  <fix>3d</fix>
</trkpt>
<trkpt lat="40.0713751" lon="-105.2297889">
  <ele>1582.93</ele>
  <time>2026-08-28T17:50:43Z</time>
  <course>247.09</course>
  <speed>0.022360679774997897</speed>
  <fix>3d</fix>
</trkpt>
<trkpt lat="40.0713749" lon="-105.229789">
  <ele>1583.0</ele>
  <time>2026-08-28T17:50:43Z</time>
  <course>0.0</course>
  <speed>0.0</speed>
  <fix>3d</fix>
</trkpt>
<trkpt lat="40.0713751" lon="-105.2297889">
  <ele>1582.93</ele>
  <time>2026-08-28T17:50:43Z</time>
  <course>247.09</course>
  <speed>0.022360679774997897</speed>
  <fix>3d</fix>
</trkpt>
<trkpt lat="40.0713749" lon="-105.229789">
  <ele>1583.0</ele>
  <time>2026-08-28T17:50:43Z</time>
  <course>0.0</course>
  <speed>0.0</speed>
  <fix>3d</fix>
</trkpt>
<trkpt lat="40.0713751" lon="-105.2297889">
  <ele>1582.93</ele>
  <time>2026-08-28T17:50:43Z</time>
  <course>247.09</course>
  <speed>0.022360679774997897</speed>
  <fix>3d</fix>
</trkpt>
<trkpt lat="40.0713749" lon="-105.229789">
  <ele>1583.0</ele>
  <time>2026-08-28T17:50:43Z</time>
  <course>0.0</course>
  <speed>0.0</speed>
  <fix>3d</fix>
</trkpt>
<trkpt lat="40.0713751" lon="-105.2297889">
  <ele>1582.93</ele>
  <time>2026-08-28T17:50:43Z</time>
  <course>247.09</course>
  <speed>0.022360679774997897</speed>
  <fix>3d</fix>
</trkpt>
<trkpt lat="40.0713749" lon="-105.229789">
  <ele>1583.0</ele>
  <time>2026-08-28T17:50:43Z</time>
  <course>0.0</course>
  <speed>0.0</speed>
  <fix>3d</fix>
</trkpt>
<trkpt lat="40.0713751" lon="-105.2297889">
  <ele>1582.93</ele>
  <time>2026-08-28T17:50:43Z</time>
  <course>247.09</course>
  <speed>0.022360679774997897</speed>
  <fix>3d</fix>
</trkpt>
<trkpt lat="40.0713749" lon="-105.229789">
  <ele>1583.0</ele>
  <time>2026-08-28T17:50:43Z</time>
  <course>0.0</course>
  <speed>0.0</speed>
  <fix>3d</fix>
</trkpt>
<trkpt lat="40.0713751" lon="-105.2297889">
  <ele>1582.93</ele>
  <time>2026-08-28T17:50:43Z</time>
  <course>247.09</course>
  <speed>0.022360679774997897</speed>
  <fix>3d</fix>
</trkpt>
<trkpt lat="40.0713749" lon="-105.229789">
  <ele>1583.0</ele>
  <time>2026-08-28T17:50:43Z</time>
  <course>0.0</course>
  <speed>0.0</speed>
  <fix>3d</fix>
</trkpt>
<trkpt lat="40.0713751" lon="-105.2297889">
  <ele>1582.93</ele>
  <time>2026-08-28T17:50:43Z</time>
  <course>247.09</course>
  <speed>0.022360679774997897</speed>
  <fix>3d</fix>
</trkpt>
<trkpt lat="40.0713749" lon="-105.229789">
  <ele>1583.0</ele>
  <time>2026-08-28T17:50:43Z</time>
  <course>0.0</course>
  <speed>0.0</speed>
  <fix>3d</fix>
</trkpt>
<trkpt lat="40.0713751" lon="-105.2297889">
  <ele>1582.93</ele>
  <time>2026-08-28T17:50:43Z</time>
  <course>247.09</course>
  <speed>0.022360679774997897</speed>
  <fix>3d</fix>
</trkpt>
<trkpt lat="40.0713749" lon="-105.229789">
  <ele>1583.0</ele>
  <time>2026-08-28T17:50:43Z</time>
  <course>0.0</course>
  <speed>0.0</speed>
  <fix>3d</fix>
</trkpt>
<trkpt lat="40.0713751" lon="-105.2297889">
  <ele>1582.93</ele>
  <time>2026-08-28T17:50:43Z</time>
  <course>247.09</course>
  <speed>0.022360679774997897</speed>
  <fix>3d</fix>
</trkpt>
<trkpt lat="40.0713749" lon="-105.229789">
  <ele>1583.0</ele>
  <time>2026-08-28T17:50:43Z</time>
  <course>0.0</course>
  <speed>0.0</speed>
  <fix>3d</fix>
</trkpt>
<trkpt lat="40.0713751" lon="-105.2297889">
  <ele>1582.93</ele>
  <time>2026-08-28T17:50:43Z</time>
  <course>247.09</course>
  <speed>0.022360679774997897</speed>
  <fix>3d</fix>
</trkpt>
<trkpt lat="40.0713749" lon="-105.229789">
  <ele>1583.0</ele>
  <time>2026-08-28T17:50:43Z</time>
  <course>0.0</course>
  <speed>0.0</speed>
  <fix>3d</fix>
</trkpt>
<trkpt lat="40.0713751" lon="-105.2297889">
  <ele>1582.93</ele>
  <time>2026-08-28T17:50:43Z</time>
  <course>247.09</course>
  <speed>0.022360679774997897</speed>
  <fix>3d</fix>
</trkpt>
<trkpt lat="40.0713749" lon="-105.229789">
  <ele>1583.0</ele>
  <time>2026-08-28T17:50:43Z</time>
  <course>0.0</course>
  <speed>0.0</speed>
  <fix>3d</fix>
</trkpt>
<trkpt lat="40.0713751" lon="-105.2297889">
  <ele>1582.93</ele>
  <time>2026-08-28T17:50:43Z</time>
  <course>247.09</course>
  <speed>0.022360679774997897</speed>
  <fix>3d</fix>
</trkpt>
<trkpt lat="40.0713749" lon="-105.229789">
  <ele>1583.0</ele>
  <time>2026-08-28T17:50:43Z</time>
  <course>0.0</course>
  <speed>0.0</speed>
  <fix>3d</fix>
</trkpt>
<trkpt lat="40.0713751" lon="-105.2297889">
  <ele>1582.93</ele>
  <time>2026-08-28T17:50:43Z</time>
  <course>247.09</course>
  <speed>0.022360679774997897</speed>
  <fix>3d</fix>
</trkpt>
<trkpt lat="40.0713749" lon="-105.229789">
  <ele>1583.0</ele>
  <time>2026-08-28T17:50:43Z</time>
  <course>0.0</course>
  <speed>0.0</speed>
  <fix>3d</fix>
</trkpt>
<trkpt lat="40.0713751" lon="-105.2297889">
  <ele>1582.93</ele>
  <time>2026-08-28T17:50:43Z</time>
  <course>247.09</course>
  <speed>0.022360679774997897</speed>
  <fix>3d</fix>
</trkpt>
<trkpt lat="40.0713749" lon="-105.229789">
  <ele>1583.0</ele>
  <time>2026-08-28T17:50:43Z</time>
  <course>0.0</course>
  <speed>0.0</speed>
  <fix>3d</fix>
</trkpt>
<trkpt lat="40.071375" lon="-105.2297889">
  <ele>1582.93</ele>
  <time>2026-08-28T17:50:43Z</time>
  <course>247.09</course>
  <speed>0.022360679774997897</speed>
  <fix>3d</fix>
</trkpt>
<trkpt lat="40.0713749" lon="-105.229789">
  <ele>1583.0</ele>
  <time>2026-08-28T17:50:43Z</time>
  <course>0.0</course>
  <speed>0.0</speed>
  <fix>3d</fix>
</trkpt>
<trkpt lat="40.0713751" lon="-105.2297889">
  <ele>1582.93</ele>
  <time>2026-08-28T17:50:43Z</time>
  <course>247.09</course>
  <speed>0.022360679774997897</speed>
  <fix>3d</fix>
</trkpt>
<trkpt lat="40.0713749" lon="-105.229789">
  <ele>1583.0</ele>
  <time>2026-08-28T17:50:43Z</time>
  <course>0.0</course>
  <speed>0.0</speed>
  <fix>3d</fix>
</trkpt>
<trkpt lat="40.071375" lon="-105.2297889">
  <ele>1582.93</ele>
  <time>2026-08-28T17:50:43Z</time>
  <course>247.09</course>
  <speed>0.022360679774997897</speed>
  <fix>3d</fix>
</trkpt>
<trkpt lat="40.0713749" lon="-105.229789">
  <ele>1583.0</ele>
  <time>2026-08-28T17:50:43Z</time>
  <course>0.0</course>
  <speed>0.0</speed>
  <fix>3d</fix>
</trkpt>
<trkpt lat="40.0713751" lon="-105.2297889">
  <ele>1582.93</ele>
  <time>2026-08-28T17:50:43Z</time>
  <course>247.09</course>
  <speed>0.022360679774997897</speed>
  <fix>3d</fix>
</trkpt>
<trkpt lat="40.0713749" lon="-105.229789">
  <ele>1583.0</ele>
  <time>2026-08-28T17:50:43Z</time>
  <course>0.0</course>
  <speed>0.0</speed>
  <fix>3d</fix>
</trkpt>
<trkpt lat="40.071375" lon="-105.2297889">
  <ele>1582.93</ele>
  <time>2026-08-28T17:50:43Z</time>
  <course>247.09</course>
  <speed>0.022360679774997897</speed>
  <fix>3d</fix>
</trkpt>
<trkpt lat="40.0713749" lon="-105.229789">
  <ele>1583.0</ele>
  <time>2026-08-28T17:50:43Z</time>
  <course>0.0</course>
  <speed>0.0</speed>
  <fix>3d</fix>
</trkpt>
<trkpt lat="40.0713751" lon="-105.2297889">
  <ele>1582.94</ele>
  <time>2026-08-28T17:50:43Z</time>
  <course>247.09</course>
  <speed>0.022360679774997897</speed>
  <fix>3d</fix>
</trkpt>
<trkpt lat="40.0713749" lon="-105.229789">
  <ele>1583.0</ele>
  <time>2026-08-28T17:50:43Z</time>
  <course>0.0</course>
  <speed>0.0</speed>
  <fix>3d</fix>
</trkpt>
<trkpt lat="40.0713751" lon="-105.2297889">
  <ele>1582.95</ele>
  <time>2026-08-28T17:50:43Z</time>
  <course>247.09</course>
  <speed>0.022360679774997897</speed>
  <fix>3d</fix>
</trkpt>
<trkpt lat="40.0713749" lon="-105.229789">
  <ele>1583.0</ele>
  <time>2026-08-28T17:50:43Z</time>
  <course>0.0</course>
  <speed>0.0</speed>
  <fix>3d</fix>
</trkpt>
<trkpt lat="40.0713751" lon="-105.2297889">
  <ele>1582.95</ele>
  <time>2026-08-28T17:50:43Z</time>
  <course>247.09</course>
  <speed>0.022360679774997897</speed>
  <fix>3d</fix>
</trkpt>
<trkpt lat="40.0713749" lon="-105.229789">
  <ele>1583.0</ele>
  <time>2026-08-28T17:50:43Z</time>
  <course>0.0</course>
  <speed>0.0</speed>
  <fix>3d</fix>
</trkpt>
<trkpt lat="40.0713751" lon="-105.2297889">
  <ele>1582.96</ele>
  <time>2026-08-28T17:50:43Z</time>
  <course>247.09</course>
  <speed>0.022360679774997897</speed>
  <fix>3d</fix>
</trkpt>
<trkpt lat="40.0713749" lon="-105.229789">
  <ele>1583.0</ele>
  <time>2026-08-28T17:50:43Z</time>
  <course>0.0</course>
  <speed>0.0</speed>
  <fix>3d</fix>
</trkpt>
<trkpt lat="40.0713751" lon="-105.2297889">
  <ele>1582.97</ele>
  <time>2026-08-28T17:50:43Z</time>
  <course>247.09</course>
  <speed>0.022360679774997897</speed>
  <fix>3d</fix>
</trkpt>
<trkpt lat="40.0713749" lon="-105.229789">
  <ele>1583.0</ele>
  <time>2026-08-28T17:50:43Z</time>
  <course>0.0</course>
  <speed>0.0</speed>
  <fix>3d</fix>
</trkpt>
<trkpt lat="40.0713751" lon="-105.2297889">
  <ele>1582.98</ele>
  <time>2026-08-28T17:50:43Z</time>
  <course>247.09</course>
  <speed>0.022360679774997897</speed>
  <fix>3d</fix>
</trkpt>
<trkpt lat="40.0713749" lon="-105.229789">
  <ele>1583.0</ele>
  <time>2026-08-28T17:50:43Z</time>
  <course>0.0</course>
  <speed>0.0</speed>
  <fix>3d</fix>
</trkpt>
<trkpt lat="40.0713751" lon="-105.2297889">
  <ele>1582.99</ele>
  <time>2026-08-28T17:50:43Z</time>
  <course>247.09</course>
  <speed>0.022360679774997897</speed>
  <fix>3d</fix>
</trkpt>
<trkpt lat="40.0713749" lon="-105.229789">
  <ele>1583.0</ele>
  <time>2026-08-28T17:50:43Z</time>
  <course>0.0</course>
  <speed>0.0</speed>
  <fix>3d</fix>
</trkpt>
<trkpt lat="40.0713751" lon="-105.2297889">
  <ele>1582.99</ele>
  <time>2026-08-28T17:50:43Z</time>
  <course>247.09</course>
  <speed>0.022360679774997897</speed>
  <fix>3d</fix>
</trkpt>
<trkpt lat="40.0713749" lon="-105.229789">
  <ele>1583.0</ele>
  <time>2026-08-28T17:50:43Z</time>
  <course>0.0</course>
  <speed>0.0</speed>
  <fix>3d</fix>
</trkpt>
<trkpt lat="40.0713751" lon="-105.2297889">
  <ele>1583.0</ele>
  <time>2026-08-28T17:50:44Z</time>
  <course>247.09</course>
  <speed>0.022360679774997897</speed>
  <fix>3d</fix>
</trkpt>
<trkpt lat="40.0713749" lon="-105.229789">
  <ele>1583.0</ele>
  <time>2026-08-28T17:50:44Z</time>
  <course>0.0</course>
  <speed>0.0</speed>
  <fix>3d</fix>
</trkpt>
<trkpt lat="40.0713751" lon="-105.2297889">
  <ele>1583.0</ele>
  <time>2026-08-28T17:50:44Z</time>
  <course>247.09</course>
  <speed>0.022360679774997897</speed>
  <fix>3d</fix>
</trkpt>
<trkpt lat="40.0713749" lon="-105.229789">
  <ele>1583.0</ele>
  <time>2026-08-28T17:50:44Z</time>
  <course>0.0</course>
  <speed>0.0</speed>
  <fix>3d</fix>
</trkpt>
<trkpt lat="40.0713751" lon="-105.2297889">
  <ele>1583.0</ele>
  <time>2026-08-28T17:50:44Z</time>
  <course>247.09</course>
  <speed>0.022360679774997897</speed>
  <fix>3d</fix>
</trkpt>
<trkpt lat="40.0713749" lon="-105.229789">
  <ele>1583.0</ele>
  <time>2026-08-28T17:50:44Z</time>
  <course>0.0</course>
  <speed>0.0</speed>
  <fix>3d</fix>
</trkpt>
<trkpt lat="40.0713751" lon="-105.2297889">
  <ele>1582.99</ele>
  <time>2026-08-28T17:50:44Z</time>
  <course>247.09</course>
  <speed>0.022360679774997897</speed>
  <fix>3d</fix>
</trkpt>
<trkpt lat="40.0713749" lon="-105.229789">
  <ele>1583.0</ele>
  <time>2026-08-28T17:50:44Z</time>
  <course>0.0</course>
  <speed>0.0</speed>
  <fix>3d</fix>
</trkpt>
<trkpt lat="40.0713751" lon="-105.2297889">
  <ele>1582.99</ele>
  <time>2026-08-28T17:50:44Z</time>
  <course>247.09</course>
  <speed>0.022360679774997897</speed>
  <fix>3d</fix>
</trkpt>
<trkpt lat="40.0713749" lon="-105.229789">
  <ele>1583.0</ele>
  <time>2026-08-28T17:50:44Z</time>
  <course>0.0</course>
  <speed>0.0</speed>
  <fix>3d</fix>
</trkpt>
<trkpt lat="40.0713751" lon="-105.2297889">
  <ele>1582.99</ele>
  <time>2026-08-28T17:50:44Z</time>
  <course>247.09</course>
  <speed>0.022360679774997897</speed>
  <fix>3d</fix>
</trkpt>
<trkpt lat="40.0713749" lon="-105.229789">
  <ele>1583.0</ele>
  <time>2026-08-28T17:50:44Z</time>
  <course>0.0</course>
  <speed>0.0</speed>
  <fix>3d</fix>
</trkpt>
<trkpt lat="40.0713751" lon="-105.2297889">
  <ele>1582.98</ele>
  <time>2026-08-28T17:50:44Z</time>
  <course>247.09</course>
  <speed>0.022360679774997897</speed>
  <fix>3d</fix>
</trkpt>
<trkpt lat="40.0713749" lon="-105.229789">
  <ele>1583.0</ele>
  <time>2026-08-28T17:50:44Z</time>
  <course>0.0</course>
  <speed>0.0</speed>
  <fix>3d</fix>
</trkpt>
<trkpt lat="40.071375" lon="-105.2297889">
  <ele>1582.98</ele>
  <time>2026-08-28T17:50:44Z</time>
  <course>247.09</course>
  <speed>0.022360679774997897</speed>
  <fix>3d</fix>
</trkpt>
<trkpt lat="40.0713749" lon="-105.229789">
  <ele>1583.0</ele>
  <time>2026-08-28T17:50:44Z</time>
  <course>0.0</course>
  <speed>0.0</speed>
  <fix>3d</fix>
</trkpt>
<trkpt lat="40.0713751" lon="-105.2297889">
  <ele>1582.97</ele>
  <time>2026-08-28T17:50:44Z</time>
  <course>247.09</course>
  <speed>0.022360679774997897</speed>
  <fix>3d</fix>
</trkpt>
<trkpt lat="40.0713749" lon="-105.229789">
  <ele>1583.0</ele>
  <time>2026-08-28T17:50:44Z</time>
  <course>0.0</course>
  <speed>0.0</speed>
  <fix>3d</fix>
</trkpt>
<trkpt lat="40.071375" lon="-105.2297889">
  <ele>1582.96</ele>
  <time>2026-08-28T17:50:44Z</time>
  <course>247.09</course>
  <speed>0.022360679774997897</speed>
  <fix>3d</fix>
</trkpt>
<trkpt lat="40.0713749" lon="-105.229789">
  <ele>1583.0</ele>
  <time>2026-08-28T17:50:44Z</time>
  <course>0.0</course>
  <speed>0.0</speed>
  <fix>3d</fix>
</trkpt>
<trkpt lat="40.0713751" lon="-105.2297889">
  <ele>1582.96</ele>
  <time>2026-08-28T17:50:44Z</time>
  <course>247.09</course>
  <speed>0.022360679774997897</speed>
  <fix>3d</fix>
</trkpt>
<trkpt lat="40.0713749" lon="-105.229789">
  <ele>1583.0</ele>
  <time>2026-08-28T17:50:44Z</time>
  <course>0.0</course>
  <speed>0.0</speed>
  <fix>3d</fix>
</trkpt>
<trkpt lat="40.071375" lon="-105.2297889">
  <ele>1582.95</ele>
  <time>2026-08-28T17:50:44Z</time>
  <course>247.09</course>
  <speed>0.022360679774997897</speed>
  <fix>3d</fix>
</trkpt>
<trkpt lat="40.0713749" lon="-105.229789">
  <ele>1583.0</ele>
  <time>2026-08-28T17:50:44Z</time>
  <course>0.0</course>
  <speed>0.0</speed>
  <fix>3d</fix>
</trkpt>
<trkpt lat="40.0713751" lon="-105.2297889">
  <ele>1582.96</ele>
  <time>2026-08-28T17:50:44Z</time>
  <course>247.09</course>
  <speed>0.022360679774997897</speed>
  <fix>3d</fix>
</trkpt>
<trkpt lat="40.0713749" lon="-105.229789">
  <ele>1583.0</ele>
  <time>2026-08-28T17:50:44Z</time>
  <course>0.0</course>
  <speed>0.0</speed>
  <fix>3d</fix>
</trkpt>
<trkpt lat="40.071375" lon="-105.2297889">
  <ele>1582.96</ele>
  <time>2026-08-28T17:50:44Z</time>
  <course>247.09</course>
  <speed>0.022360679774997897</speed>
  <fix>3d</fix>
</trkpt>
<trkpt lat="40.0713749" lon="-105.229789">
  <ele>1583.0</ele>
  <time>2026-08-28T17:50:44Z</time>
  <course>0.0</course>
  <speed>0.0</speed>
  <fix>3d</fix>
</trkpt>
<trkpt lat="40.0713751" lon="-105.2297889">
  <ele>1582.97</ele>
  <time>2026-08-28T17:50:44Z</time>
  <course>247.09</course>
  <speed>0.022360679774997897</speed>
  <fix>3d</fix>
</trkpt>
<trkpt lat="40.0713749" lon="-105.229789">
  <ele>1583.0</ele>
  <time>2026-08-28T17:50:44Z</time>
  <course>0.0</course>
  <speed>0.0</speed>
  <fix>3d</fix>
</trkpt>
<trkpt lat="40.071375" lon="-105.2297889">
  <ele>1582.98</ele>
  <time>2026-08-28T17:50:44Z</time>
  <course>247.09</course>
  <speed>0.022360679774997897</speed>
  <fix>3d</fix>
</trkpt>
<trkpt lat="40.0713749" lon="-105.229789">
  <ele>1583.0</ele>
  <time>2026-08-28T17:50:44Z</time>
  <course>0.0</course>
  <speed>0.0</speed>
  <fix>3d</fix>
</trkpt>
<trkpt lat="40.0713751" lon="-105.2297889">
  <ele>1582.99</ele>
  <time>2026-08-28T17:50:44Z</time>
  <course>247.09</course>
  <speed>0.022360679774997897</speed>
  <fix>3d</fix>
</trkpt>
<trkpt lat="40.0713749" lon="-105.229789">
  <ele>1583.0</ele>
  <time>2026-08-28T17:50:44Z</time>
  <course>0.0</course>
  <speed>0.0</speed>
  <fix>3d</fix>
</trkpt>
<trkpt lat="40.071375" lon="-105.2297889">
  <ele>1582.99</ele>
  <time>2026-08-28T17:50:44Z</time>
  <course>247.09</course>
  <speed>0.022360679774997897</speed>
  <fix>3d</fix>
</trkpt>
<trkpt lat="40.0713749" lon="-105.229789">
  <ele>1583.0</ele>
  <time>2026-08-28T17:50:44Z</time>
  <course>0.0</course>
  <speed>0.0</speed>
  <fix>3d</fix>
</trkpt>
<trkpt lat="40.0713751" lon="-105.2297889">
  <ele>1583.0</ele>
  <time>2026-08-28T17:50:44Z</time>
  <course>247.09</course>
  <speed>0.022360679774997897</speed>
  <fix>3d</fix>
</trkpt>
<trkpt lat="40.0713749" lon="-105.229789">
  <ele>1583.0</ele>
  <time>2026-08-28T17:50:44Z</time>
  <course>0.0</course>
  <speed>0.0</speed>
  <fix>3d</fix>
</trkpt>
<trkpt lat="40.0713751" lon="-105.2297889">
  <ele>1583.01</ele>
  <time>2026-08-28T17:50:44Z</time>
  <course>247.09</course>
  <speed>0.022360679774997897</speed>
  <fix>3d</fix>
</trkpt>
<trkpt lat="40.0713749" lon="-105.229789">
  <ele>1583.0</ele>
  <time>2026-08-28T17:50:44Z</time>
  <course>0.0</course>
  <speed>0.0</speed>
  <fix>3d</fix>
</trkpt>
<trkpt lat="40.0713751" lon="-105.2297889">
  <ele>1583.01</ele>
  <time>2026-08-28T17:50:44Z</time>
  <course>247.09</course>
  <speed>0.022360679774997897</speed>
  <fix>3d</fix>
</trkpt>
<trkpt lat="40.0713749" lon="-105.229789">
  <ele>1583.0</ele>
  <time>2026-08-28T17:50:44Z</time>
  <course>0.0</course>
  <speed>0.0</speed>
  <fix>3d</fix>
</trkpt>
<trkpt lat="40.0713751" lon="-105.2297889">
  <ele>1583.02</ele>
  <time>2026-08-28T17:50:44Z</time>
  <course>247.09</course>
  <speed>0.022360679774997897</speed>
  <fix>3d</fix>
</trkpt>
<trkpt lat="40.0713749" lon="-105.229789">
  <ele>1583.0</ele>
  <time>2026-08-28T17:50:44Z</time>
  <course>0.0</course>
  <speed>0.0</speed>
  <fix>3d</fix>
</trkpt>
<trkpt lat="40.0713751" lon="-105.2297889">
  <ele>1583.02</ele>
  <time>2026-08-28T17:50:44Z</time>
  <course>247.09</course>
  <speed>0.022360679774997897</speed>
  <fix>3d</fix>
</trkpt>
<trkpt lat="40.0713749" lon="-105.229789">
  <ele>1583.0</ele>
  <time>2026-08-28T17:50:44Z</time>
  <course>0.0</course>
  <speed>0.0</speed>
  <fix>3d</fix>
</trkpt>
<trkpt lat="40.0713751" lon="-105.2297889">
  <ele>1583.03</ele>
  <time>2026-08-28T17:50:44Z</time>
  <course>247.09</course>
  <speed>0.022360679774997897</speed>
  <fix>3d</fix>
</trkpt>
<trkpt lat="40.0713749" lon="-105.229789">
  <ele>1583.0</ele>
  <time>2026-08-28T17:50:44Z</time>
  <course>0.0</course>
  <speed>0.0</speed>
  <fix>3d</fix>
</trkpt>
<trkpt lat="40.0713751" lon="-105.2297889">
  <ele>1583.03</ele>
  <time>2026-08-28T17:50:44Z</time>
  <course>247.09</course>
  <speed>0.022360679774997897</speed>
  <fix>3d</fix>
</trkpt>
<trkpt lat="40.0713749" lon="-105.229789">
  <ele>1583.0</ele>
  <time>2026-08-28T17:50:44Z</time>
  <course>0.0</course>
  <speed>0.0</speed>
  <fix>3d</fix>
</trkpt>
<trkpt lat="40.0713751" lon="-105.2297889">
  <ele>1583.04</ele>
  <time>2026-08-28T17:50:44Z</time>
  <course>247.09</course>
  <speed>0.022360679774997897</speed>
  <fix>3d</fix>
</trkpt>
<trkpt lat="40.0713749" lon="-105.229789">
  <ele>1583.0</ele>
  <time>2026-08-28T17:50:44Z</time>
  <course>0.0</course>
  <speed>0.0</speed>
  <fix>3d</fix>
</trkpt>
<trkpt lat="40.0713751" lon="-105.2297889">
  <ele>1583.04</ele>
  <time>2026-08-28T17:50:44Z</time>
  <course>247.09</course>
  <speed>0.022360679774997897</speed>
  <fix>3d</fix>
</trkpt>
<trkpt lat="40.0713749" lon="-105.229789">
  <ele>1583.0</ele>
  <time>2026-08-28T17:50:44Z</time>
  <course>0.0</course>
  <speed>0.0</speed>
  <fix>3d</fix>
</trkpt>
<trkpt lat="40.071375" lon="-105.2297889">
  <ele>1583.04</ele>
  <time>2026-08-28T17:50:44Z</time>
  <course>247.09</course>
  <speed>0.022360679774997897</speed>
  <fix>3d</fix>
</trkpt>
<trkpt lat="40.0713749" lon="-105.229789">
  <ele>1583.0</ele>
  <time>2026-08-28T17:50:44Z</time>
  <course>0.0</course>
  <speed>0.0</speed>
  <fix>3d</fix>
</trkpt>
<trkpt lat="40.0713751" lon="-105.2297889">
  <ele>1583.04</ele>
  <time>2026-08-28T17:50:44Z</time>
  <course>247.09</course>
  <speed>0.022360679774997897</speed>
  <fix>3d</fix>
</trkpt>
<trkpt lat="40.0713749" lon="-105.229789">
  <ele>1583.0</ele>
  <time>2026-08-28T17:50:44Z</time>
  <course>0.0</course>
  <speed>0.0</speed>
  <fix>3d</fix>
</trkpt>
<trkpt lat="40.071375" lon="-105.2297889">
  <ele>1583.04</ele>
  <time>2026-08-28T17:50:44Z</time>
  <course>247.09</course>
  <speed>0.022360679774997897</speed>
  <fix>3d</fix>
</trkpt>
<trkpt lat="40.0713749" lon="-105.229789">
  <ele>1583.0</ele>
  <time>2026-08-28T17:50:44Z</time>
  <course>0.0</course>
  <speed>0.0</speed>
  <fix>3d</fix>
</trkpt>
<trkpt lat="40.071375" lon="-105.2297889">
  <ele>1583.04</ele>
  <time>2026-08-28T17:50:44Z</time>
  <course>247.09</course>
  <speed>0.022360679774997897</speed>
  <fix>3d</fix>
</trkpt>
<trkpt lat="40.0713749" lon="-105.229789">
  <ele>1583.0</ele>
  <time>2026-08-28T17:50:44Z</time>
  <course>0.0</course>
  <speed>0.0</speed>
  <fix>3d</fix>
</trkpt>
<trkpt lat="40.071375" lon="-105.2297889">
  <ele>1583.04</ele>
  <time>2026-08-28T17:50:44Z</time>
  <course>247.09</course>
  <speed>0.022360679774997897</speed>
  <fix>3d</fix>
</trkpt>
<trkpt lat="40.0713749" lon="-105.229789">
  <ele>1583.0</ele>
  <time>2026-08-28T17:50:44Z</time>
  <course>0.0</course>
  <speed>0.0</speed>
  <fix>3d</fix>
</trkpt>
<trkpt lat="40.071375" lon="-105.2297889">
  <ele>1583.04</ele>
  <time>2026-08-28T17:50:44Z</time>
  <course>247.09</course>
  <speed>0.022360679774997897</speed>
  <fix>3d</fix>
</trkpt>
<trkpt lat="40.0713749" lon="-105.229789">
  <ele>1583.0</ele>
  <time>2026-08-28T17:50:44Z</time>
  <course>0.0</course>
  <speed>0.0</speed>
  <fix>3d</fix>
</trkpt>
<trkpt lat="40.071375" lon="-105.2297889">
  <ele>1583.04</ele>
  <time>2026-08-28T17:50:44Z</time>
  <course>247.09</course>
  <speed>0.022360679774997897</speed>
  <fix>3d</fix>
</trkpt>
<trkpt lat="40.0713749" lon="-105.229789">
  <ele>1583.0</ele>
  <time>2026-08-28T17:50:44Z</time>
  <course>0.0</course>
  <speed>0.0</speed>
  <fix>3d</fix>
</trkpt>
<trkpt lat="40.071375" lon="-105.2297889">
  <ele>1583.03</ele>
  <time>2026-08-28T17:50:44Z</time>
  <course>247.09</course>
  <speed>0.022360679774997897</speed>
  <fix>3d</fix>
</trkpt>
<trkpt lat="40.0713749" lon="-105.229789">
  <ele>1583.0</ele>
  <time>2026-08-28T17:50:44Z</time>
  <course>0.0</course>
  <speed>0.0</speed>
  <fix>3d</fix>
</trkpt>
<trkpt lat="40.071375" lon="-105.2297889">
  <ele>1583.03</ele>
  <time>2026-08-28T17:50:44Z</time>
  <course>247.09</course>
  <speed>0.022360679774997897</speed>
  <fix>3d</fix>
</trkpt>
<trkpt lat="40.0713749" lon="-105.229789">
  <ele>1583.0</ele>
  <time>2026-08-28T17:50:44Z</time>
  <course>0.0</course>
  <speed>0.0</speed>
  <fix>3d</fix>
</trkpt>
<trkpt lat="40.071375" lon="-105.2297889">
  <ele>1583.03</ele>
  <time>2026-08-28T17:50:44Z</time>
  <course>247.09</course>
  <speed>0.022360679774997897</speed>
  <fix>3d</fix>
</trkpt>
<trkpt lat="40.0713749" lon="-105.229789">
  <ele>1583.0</ele>
  <time>2026-08-28T17:50:44Z</time>
  <course>0.0</course>
  <speed>0.0</speed>
  <fix>3d</fix>
</trkpt>
<trkpt lat="40.071375" lon="-105.2297889">
  <ele>1583.03</ele>
  <time>2026-08-28T17:50:44Z</time>
  <course>247.09</course>
  <speed>0.022360679774997897</speed>
  <fix>3d</fix>
</trkpt>
<trkpt lat="40.0713749" lon="-105.229789">
  <ele>1583.0</ele>
  <time>2026-08-28T17:50:44Z</time>
  <course>0.0</course>
  <speed>0.0</speed>
  <fix>3d</fix>
</trkpt>
<trkpt lat="40.071375" lon="-105.2297889">
  <ele>1583.03</ele>
  <time>2026-08-28T17:50:44Z</time>
  <course>247.09</course>
  <speed>0.022360679774997897</speed>
  <fix>3d</fix>
</trkpt>
<trkpt lat="40.0713749" lon="-105.229789">
  <ele>1583.0</ele>
  <time>2026-08-28T17:50:44Z</time>
  <course>0.0</course>
  <speed>0.0</speed>
  <fix>3d</fix>
</trkpt>
<trkpt lat="40.071375" lon="-105.2297889">
  <ele>1583.03</ele>
  <time>2026-08-28T17:50:44Z</time>
  <course>247.09</course>
  <speed>0.022360679774997897</speed>
  <fix>3d</fix>
</trkpt>
<trkpt lat="40.0713749" lon="-105.229789">
  <ele>1583.0</ele>
  <time>2026-08-28T17:50:44Z</time>
  <course>0.0</course>
  <speed>0.0</speed>
  <fix>3d</fix>
</trkpt>
<trkpt lat="40.0713751" lon="-105.2297889">
  <ele>1583.03</ele>
  <time>2026-08-28T17:50:44Z</time>
  <course>247.09</course>
  <speed>0.022360679774997897</speed>
  <fix>3d</fix>
</trkpt>
<trkpt lat="40.0713749" lon="-105.229789">
  <ele>1583.0</ele>
  <time>2026-08-28T17:50:44Z</time>
  <course>0.0</course>
  <speed>0.0</speed>
  <fix>3d</fix>
</trkpt>
<trkpt lat="40.071375" lon="-105.2297889">
  <ele>1583.03</ele>
  <time>2026-08-28T17:50:44Z</time>
  <course>247.09</course>
  <speed>0.022360679774997897</speed>
  <fix>3d</fix>
</trkpt>
<trkpt lat="40.0713749" lon="-105.229789">
  <ele>1583.0</ele>
  <time>2026-08-28T17:50:44Z</time>
  <course>0.0</course>
  <speed>0.0</speed>
  <fix>3d</fix>
</trkpt>
<trkpt lat="40.0713751" lon="-105.2297889">
  <ele>1583.03</ele>
  <time>2026-08-28T17:50:44Z</time>
  <course>247.09</course>
  <speed>0.022360679774997897</speed>
  <fix>3d</fix>
</trkpt>
<trkpt lat="40.0713749" lon="-105.229789">
  <ele>1583.0</ele>
  <time>2026-08-28T17:50:44Z</time>
  <course>0.0</course>
  <speed>0.0</speed>
  <fix>3d</fix>
</trkpt>
<trkpt lat="40.071375" lon="-105.2297889">
  <ele>1583.03</ele>
  <time>2026-08-28T17:50:44Z</time>
  <course>247.09</course>
  <speed>0.022360679774997897</speed>
  <fix>3d</fix>
</trkpt>
<trkpt lat="40.0713749" lon="-105.229789">
  <ele>1583.0</ele>
  <time>2026-08-28T17:50:44Z</time>
  <course>0.0</course>
  <speed>0.0</speed>
  <fix>3d</fix>
</trkpt>
<trkpt lat="40.0713751" lon="-105.2297889">
  <ele>1583.03</ele>
  <time>2026-08-28T17:50:44Z</time>
  <course>247.09</course>
  <speed>0.022360679774997897</speed>
  <fix>3d</fix>
</trkpt>
<trkpt lat="40.0713749" lon="-105.229789">
  <ele>1583.0</ele>
  <time>2026-08-28T17:50:44Z</time>
  <course>0.0</course>
  <speed>0.0</speed>
  <fix>3d</fix>
</trkpt>
<trkpt lat="40.071375" lon="-105.2297889">
  <ele>1583.03</ele>
  <time>2026-08-28T17:50:44Z</time>
  <course>247.09</course>
  <speed>0.022360679774997897</speed>
  <fix>3d</fix>
</trkpt>
<trkpt lat="40.0713749" lon="-105.229789">
  <ele>1583.0</ele>
  <time>2026-08-28T17:50:44Z</time>
  <course>0.0</course>
  <speed>0.0</speed>
  <fix>3d</fix>
</trkpt>
<trkpt lat="40.0713751" lon="-105.2297889">
  <ele>1583.03</ele>
  <time>2026-08-28T17:50:44Z</time>
  <course>247.09</course>
  <speed>0.022360679774997897</speed>
  <fix>3d</fix>
</trkpt>
<trkpt lat="40.0713749" lon="-105.229789">
  <ele>1583.0</ele>
  <time>2026-08-28T17:50:44Z</time>
  <course>0.0</course>
  <speed>0.0</speed>
  <fix>3d</fix>
</trkpt>
<trkpt lat="40.071375" lon="-105.2297889">
  <ele>1583.03</ele>
  <time>2026-08-28T17:50:44Z</time>
  <course>247.09</course>
  <speed>0.022360679774997897</speed>
  <fix>3d</fix>
</trkpt>
<trkpt lat="40.0713749" lon="-105.229789">
  <ele>1583.0</ele>
  <time>2026-08-28T17:50:44Z</time>
  <course>0.0</course>
  <speed>0.0</speed>
  <fix>3d</fix>
</trkpt>
<trkpt lat="40.071375" lon="-105.2297889">
  <ele>1583.03</ele>
  <time>2026-08-28T17:50:44Z</time>
  <course>247.09</course>
  <speed>0.022360679774997897</speed>
  <fix>3d</fix>
</trkpt>
<trkpt lat="40.0713749" lon="-105.229789">
  <ele>1583.0</ele>
  <time>2026-08-28T17:50:44Z</time>
  <course>0.0</course>
  <speed>0.0</speed>
  <fix>3d</fix>
</trkpt>
<trkpt lat="40.071375" lon="-105.2297889">
  <ele>1583.03</ele>
  <time>2026-08-28T17:50:44Z</time>
  <course>247.09</course>
  <speed>0.022360679774997897</speed>
  <fix>3d</fix>
</trkpt>
<trkpt lat="40.0713749" lon="-105.229789">
  <ele>1583.0</ele>
  <time>2026-08-28T17:50:44Z</time>
  <course>0.0</course>
  <speed>0.0</speed>
  <fix>3d</fix>
</trkpt>
<trkpt lat="40.071375" lon="-105.2297889">
  <ele>1583.03</ele>
  <time>2026-08-28T17:50:44Z</time>
  <course>247.09</course>
  <speed>0.022360679774997897</speed>
  <fix>3d</fix>
</trkpt>
<trkpt lat="40.0713749" lon="-105.229789">
  <ele>1583.0</ele>
  <time>2026-08-28T17:50:44Z</time>
  <course>0.0</course>
  <speed>0.0</speed>
  <fix>3d</fix>
</trkpt>
<trkpt lat="40.071375" lon="-105.2297889">
  <ele>1583.03</ele>
  <time>2026-08-28T17:50:44Z</time>
  <course>247.09</course>
  <speed>0.022360679774997897</speed>
  <fix>3d</fix>
</trkpt>
<trkpt lat="40.0713749" lon="-105.229789">
  <ele>1583.0</ele>
  <time>2026-08-28T17:50:44Z</time>
  <course>0.0</course>
  <speed>0.0</speed>
  <fix>3d</fix>
</trkpt>
<trkpt lat="40.071375" lon="-105.2297889">
  <ele>1583.04</ele>
  <time>2026-08-28T17:50:44Z</time>
  <course>247.09</course>
  <speed>0.022360679774997897</speed>
  <fix>3d</fix>
</trkpt>
<trkpt lat="40.0713749" lon="-105.229789">
  <ele>1583.0</ele>
  <time>2026-08-28T17:50:44Z</time>
  <course>0.0</course>
  <speed>0.0</speed>
  <fix>3d</fix>
</trkpt>
<trkpt lat="40.071375" lon="-105.2297889">
  <ele>1583.04</ele>
  <time>2026-08-28T17:50:44Z</time>
  <course>247.09</course>
  <speed>0.022360679774997897</speed>
  <fix>3d</fix>
</trkpt>
<trkpt lat="40.0713749" lon="-105.229789">
  <ele>1583.0</ele>
  <time>2026-08-28T17:50:44Z</time>
  <course>0.0</course>
  <speed>0.0</speed>
  <fix>3d</fix>
</trkpt>
<trkpt lat="40.071375" lon="-105.2297889">
  <ele>1583.04</ele>
  <time>2026-08-28T17:50:44Z</time>
  <course>247.09</course>
  <speed>0.022360679774997897</speed>
  <fix>3d</fix>
</trkpt>
<trkpt lat="40.0713749" lon="-105.229789">
  <ele>1583.0</ele>
  <time>2026-08-28T17:50:44Z</time>
  <course>0.0</course>
  <speed>0.0</speed>
  <fix>3d</fix>
</trkpt>
<trkpt lat="40.071375" lon="-105.2297889">
  <ele>1583.05</ele>
  <time>2026-08-28T17:50:44Z</time>
  <course>247.09</course>
  <speed>0.022360679774997897</speed>
  <fix>3d</fix>
</trkpt>
<trkpt lat="40.0713749" lon="-105.229789">
  <ele>1583.0</ele>
  <time>2026-08-28T17:50:44Z</time>
  <course>0.0</course>
  <speed>0.0</speed>
  <fix>3d</fix>
</trkpt>
<trkpt lat="40.071375" lon="-105.2297889">
  <ele>1583.05</ele>
  <time>2026-08-28T17:50:44Z</time>
  <course>247.09</course>
  <speed>0.022360679774997897</speed>
  <fix>3d</fix>
</trkpt>
<trkpt lat="40.0713749" lon="-105.229789">
  <ele>1583.0</ele>
  <time>2026-08-28T17:50:44Z</time>
  <course>0.0</course>
  <speed>0.0</speed>
  <fix>3d</fix>
</trkpt>
<trkpt lat="40.071375" lon="-105.2297889">
  <ele>1583.05</ele>
  <time>2026-08-28T17:50:44Z</time>
  <course>247.09</course>
  <speed>0.022360679774997897</speed>
  <fix>3d</fix>
</trkpt>
<trkpt lat="40.0713749" lon="-105.229789">
  <ele>1583.0</ele>
  <time>2026-08-28T17:50:44Z</time>
  <course>0.0</course>
  <speed>0.0</speed>
  <fix>3d</fix>
</trkpt>
<trkpt lat="40.071375" lon="-105.2297889">
  <ele>1583.05</ele>
  <time>2026-08-28T17:50:44Z</time>
  <course>247.09</course>
  <speed>0.022360679774997897</speed>
  <fix>3d</fix>
</trkpt>
<trkpt lat="40.0713749" lon="-105.229789">
  <ele>1583.0</ele>
  <time>2026-08-28T17:50:44Z</time>
  <course>0.0</course>
  <speed>0.0</speed>
  <fix>3d</fix>
</trkpt>
<trkpt lat="40.071375" lon="-105.2297889">
  <ele>1583.05</ele>
  <time>2026-08-28T17:50:44Z</time>
  <course>247.09</course>
  <speed>0.022360679774997897</speed>
  <fix>3d</fix>
</trkpt>
<trkpt lat="40.0713749" lon="-105.229789">
  <ele>1583.0</ele>
  <time>2026-08-28T17:50:44Z</time>
  <course>0.0</course>
  <speed>0.0</speed>
  <fix>3d</fix>
</trkpt>
<trkpt lat="40.071375" lon="-105.2297889">
  <ele>1583.05</ele>
  <time>2026-08-28T17:50:44Z</time>
  <course>247.09</course>
  <speed>0.022360679774997897</speed>
  <fix>3d</fix>
</trkpt>
<trkpt lat="40.0713749" lon="-105.229789">
  <ele>1583.0</ele>
  <time>2026-08-28T17:50:44Z</time>
  <course>0.0</course>
  <speed>0.0</speed>
  <fix>3d</fix>
</trkpt>
<trkpt lat="40.071375" lon="-105.2297889">
  <ele>1583.05</ele>
  <time>2026-08-28T17:50:44Z</time>
  <course>247.09</course>
  <speed>0.022360679774997897</speed>
  <fix>3d</fix>
</trkpt>
<trkpt lat="40.0713749" lon="-105.229789">
  <ele>1583.0</ele>
  <time>2026-08-28T17:50:44Z</time>
  <course>0.0</course>
  <speed>0.0</speed>
  <fix>3d</fix>
</trkpt>
<trkpt lat="40.0713751" lon="-105.2297889">
  <ele>1583.04</ele>
  <time>2026-08-28T17:50:44Z</time>
  <course>247.09</course>
  <speed>0.022360679774997897</speed>
  <fix>3d</fix>
</trkpt>
<trkpt lat="40.0713749" lon="-105.229789">
  <ele>1583.0</ele>
  <time>2026-08-28T17:50:44Z</time>
  <course>0.0</course>
  <speed>0.0</speed>
  <fix>3d</fix>
</trkpt>
<trkpt lat="40.071375" lon="-105.2297889">
  <ele>1583.04</ele>
  <time>2026-08-28T17:50:44Z</time>
  <course>247.09</course>
  <speed>0.022360679774997897</speed>
  <fix>3d</fix>
</trkpt>
<trkpt lat="40.0713749" lon="-105.229789">
  <ele>1583.0</ele>
  <time>2026-08-28T17:50:44Z</time>
  <course>0.0</course>
  <speed>0.0</speed>
  <fix>3d</fix>
</trkpt>
<trkpt lat="40.0713751" lon="-105.2297889">
  <ele>1583.04</ele>
  <time>2026-08-28T17:50:44Z</time>
  <course>247.09</course>
  <speed>0.022360679774997897</speed>
  <fix>3d</fix>
</trkpt>
<trkpt lat="40.0713749" lon="-105.229789">
  <ele>1583.0</ele>
  <time>2026-08-28T17:50:44Z</time>
  <course>0.0</course>
  <speed>0.0</speed>
  <fix>3d</fix>
</trkpt>
<trkpt lat="40.071375" lon="-105.2297889">
  <ele>1583.03</ele>
  <time>2026-08-28T17:50:44Z</time>
  <course>247.09</course>
  <speed>0.022360679774997897</speed>
  <fix>3d</fix>
</trkpt>
<trkpt lat="40.0713749" lon="-105.229789">
  <ele>1583.0</ele>
  <time>2026-08-28T17:50:44Z</time>
  <course>0.0</course>
  <speed>0.0</speed>
  <fix>3d</fix>
</trkpt>
<trkpt lat="40.0713751" lon="-105.2297889">
  <ele>1583.03</ele>
  <time>2026-08-28T17:50:44Z</time>
  <course>247.09</course>
  <speed>0.022360679774997897</speed>
  <fix>3d</fix>
</trkpt>
<trkpt lat="40.0713749" lon="-105.229789">
  <ele>1583.0</ele>
  <time>2026-08-28T17:50:44Z</time>
  <course>0.0</course>
  <speed>0.0</speed>
  <fix>3d</fix>
</trkpt>
<trkpt lat="40.071375" lon="-105.2297889">
  <ele>1583.03</ele>
  <time>2026-08-28T17:50:44Z</time>
  <course>247.09</course>
  <speed>0.022360679774997897</speed>
  <fix>3d</fix>
</trkpt>
<trkpt lat="40.0713749" lon="-105.229789">
  <ele>1583.0</ele>
  <time>2026-08-28T17:50:44Z</time>
  <course>0.0</course>
  <speed>0.0</speed>
  <fix>3d</fix>
</trkpt>
<trkpt lat="40.0713751" lon="-105.2297889">
  <ele>1583.02</ele>
  <time>2026-08-28T17:50:44Z</time>
  <course>247.09</course>
  <speed>0.022360679774997897</speed>
  <fix>3d</fix>
</trkpt>
<trkpt lat="40.0713749" lon="-105.229789">
  <ele>1583.0</ele>
  <time>2026-08-28T17:50:44Z</time>
  <course>0.0</course>
  <speed>0.0</speed>
  <fix>3d</fix>
</trkpt>
<trkpt lat="40.071375" lon="-105.2297889">
  <ele>1583.02</ele>
  <time>2026-08-28T17:50:44Z</time>
  <course>247.09</course>
  <speed>0.02</speed>
  <fix>3d</fix>
</trkpt>
<trkpt lat="40.0713749" lon="-105.229789">
  <ele>1583.0</ele>
  <time>2026-08-28T17:50:44Z</time>
  <course>0.0</course>
  <speed>0.0</speed>
  <fix>3d</fix>
</trkpt>
<trkpt lat="40.071375" lon="-105.2297889">
  <ele>1583.01</ele>
  <time>2026-08-28T17:50:44Z</time>
  <course>247.09</course>
  <speed>0.022360679774997897</speed>
  <fix>3d</fix>
</trkpt>
<trkpt lat="40.0713749" lon="-105.229789">
  <ele>1583.0</ele>
  <time>2026-08-28T17:50:44Z</time>
  <course>0.0</course>
  <speed>0.0</speed>
  <fix>3d</fix>
</trkpt>
<trkpt lat="40.071375" lon="-105.2297889">
  <ele>1583.01</ele>
  <time>2026-08-28T17:50:44Z</time>
  <course>247.09</course>
  <speed>0.02</speed>
  <fix>3d</fix>
</trkpt>
<trkpt lat="40.0713749" lon="-105.229789">
  <ele>1583.0</ele>
  <time>2026-08-28T17:50:44Z</time>
  <course>0.0</course>
  <speed>0.0</speed>
  <fix>3d</fix>
</trkpt>
<trkpt lat="40.071375" lon="-105.2297889">
  <ele>1583.01</ele>
  <time>2026-08-28T17:50:44Z</time>
  <course>247.09</course>
  <speed>0.022360679774997897</speed>
  <fix>3d</fix>
</trkpt>
<trkpt lat="40.0713749" lon="-105.229789">
  <ele>1583.0</ele>
  <time>2026-08-28T17:50:44Z</time>
  <course>0.0</course>
  <speed>0.0</speed>
  <fix>3d</fix>
</trkpt>
<trkpt lat="40.071375" lon="-105.2297889">
  <ele>1583.01</ele>
  <time>2026-08-28T17:50:44Z</time>
  <course>247.09</course>
  <speed>0.02</speed>
  <fix>3d</fix>
</trkpt>
<trkpt lat="40.0713749" lon="-105.229789">
  <ele>1583.0</ele>
  <time>2026-08-28T17:50:44Z</time>
  <course>0.0</course>
  <speed>0.0</speed>
  <fix>3d</fix>
</trkpt>
<trkpt lat="40.071375" lon="-105.2297889">
  <ele>1583.02</ele>
  <time>2026-08-28T17:50:44Z</time>
  <course>247.09</course>
  <speed>0.022360679774997897</speed>
  <fix>3d</fix>
</trkpt>
<trkpt lat="40.0713749" lon="-105.229789">
  <ele>1583.0</ele>
  <time>2026-08-28T17:50:44Z</time>
  <course>0.0</course>
  <speed>0.0</speed>
  <fix>3d</fix>
</trkpt>
<trkpt lat="40.071375" lon="-105.2297889">
  <ele>1583.02</ele>
  <time>2026-08-28T17:50:44Z</time>
  <course>247.09</course>
  <speed>0.02</speed>
  <fix>3d</fix>
</trkpt>
<trkpt lat="40.0713749" lon="-105.229789">
  <ele>1583.0</ele>
  <time>2026-08-28T17:50:44Z</time>
  <course>0.0</course>
  <speed>0.0</speed>
  <fix>3d</fix>
</trkpt>
<trkpt lat="40.0713751" lon="-105.2297889">
  <ele>1583.03</ele>
  <time>2026-08-28T17:50:44Z</time>
  <course>247.09</course>
  <speed>0.022360679774997897</speed>
  <fix>3d</fix>
</trkpt>
<trkpt lat="40.0713749" lon="-105.229789">
  <ele>1583.0</ele>
  <time>2026-08-28T17:50:44Z</time>
  <course>0.0</course>
  <speed>0.0</speed>
  <fix>3d</fix>
</trkpt>
<trkpt lat="40.071375" lon="-105.2297889">
  <ele>1583.04</ele>
  <time>2026-08-28T17:50:44Z</time>
  <course>247.09</course>
  <speed>0.02</speed>
  <fix>3d</fix>
</trkpt>
<trkpt lat="40.0713749" lon="-105.229789">
  <ele>1583.0</ele>
  <time>2026-08-28T17:50:44Z</time>
  <course>0.0</course>
  <speed>0.0</speed>
  <fix>3d</fix>
</trkpt>
<trkpt lat="40.0713751" lon="-105.2297889">
  <ele>1583.04</ele>
  <time>2026-08-28T17:50:44Z</time>
  <course>247.09</course>
  <speed>0.022360679774997897</speed>
  <fix>3d</fix>
</trkpt>
<trkpt lat="40.0713749" lon="-105.229789">
  <ele>1583.0</ele>
  <time>2026-08-28T17:50:44Z</time>
  <course>0.0</course>
  <speed>0.0</speed>
  <fix>3d</fix>
</trkpt>
<trkpt lat="40.071375" lon="-105.2297889">
  <ele>1583.04</ele>
  <time>2026-08-28T17:50:44Z</time>
  <course>247.09</course>
  <speed>0.02</speed>
  <fix>3d</fix>
</trkpt>
<trkpt lat="40.0713749" lon="-105.229789">
  <ele>1583.0</ele>
  <time>2026-08-28T17:50:44Z</time>
  <course>0.0</course>
  <speed>0.0</speed>
  <fix>3d</fix>
</trkpt>
<trkpt lat="40.0713751" lon="-105.2297889">
  <ele>1583.05</ele>
  <time>2026-08-28T17:50:44Z</time>
  <course>247.09</course>
  <speed>0.022360679774997897</speed>
  <fix>3d</fix>
</trkpt>
<trkpt lat="40.0713749" lon="-105.229789">
  <ele>1583.0</ele>
  <time>2026-08-28T17:50:44Z</time>
  <course>0.0</course>
  <speed>0.0</speed>
  <fix>3d</fix>
</trkpt>
<trkpt lat="40.071375" lon="-105.2297889">
  <ele>1583.05</ele>
  <time>2026-08-28T17:50:44Z</time>
  <course>247.09</course>
  <speed>0.022360679774997897</speed>
  <fix>3d</fix>
</trkpt>
<trkpt lat="40.0713749" lon="-105.229789">
  <ele>1583.0</ele>
  <time>2026-08-28T17:50:44Z</time>
  <course>0.0</course>
  <speed>0.0</speed>
  <fix>3d</fix>
</trkpt>
<trkpt lat="40.0713751" lon="-105.2297889">
  <ele>1583.05</ele>
  <time>2026-08-28T17:50:44Z</time>
  <course>247.09</course>
  <speed>0.022360679774997897</speed>
  <fix>3d</fix>
</trkpt>
<trkpt lat="40.0713749" lon="-105.229789">
  <ele>1583.0</ele>
  <time>2026-08-28T17:50:44Z</time>
  <course>0.0</course>
  <speed>0.0</speed>
  <fix>3d</fix>
</trkpt>
<trkpt lat="40.0713751" lon="-105.2297889">
  <ele>1583.06</ele>
  <time>2026-08-28T17:50:44Z</time>
  <course>247.09</course>
  <speed>0.022360679774997897</speed>
  <fix>3d</fix>
</trkpt>
<trkpt lat="40.0713749" lon="-105.229789">
  <ele>1583.0</ele>
  <time>2026-08-28T17:50:44Z</time>
  <course>0.0</course>
  <speed>0.0</speed>
  <fix>3d</fix>
</trkpt>
<trkpt lat="40.0713751" lon="-105.2297889">
  <ele>1583.06</ele>
  <time>2026-08-28T17:50:44Z</time>
  <course>247.09</course>
  <speed>0.022360679774997897</speed>
  <fix>3d</fix>
</trkpt>
<trkpt lat="40.0713749" lon="-105.229789">
  <ele>1583.0</ele>
  <time>2026-08-28T17:50:44Z</time>
  <course>0.0</course>
  <speed>0.0</speed>
  <fix>3d</fix>
</trkpt>
<trkpt lat="40.0713751" lon="-105.2297889">
  <ele>1583.07</ele>
  <time>2026-08-28T17:50:44Z</time>
  <course>247.09</course>
  <speed>0.022360679774997897</speed>
  <fix>3d</fix>
</trkpt>
<trkpt lat="40.0713749" lon="-105.229789">
  <ele>1583.0</ele>
  <time>2026-08-28T17:50:44Z</time>
  <course>0.0</course>
  <speed>0.0</speed>
  <fix>3d</fix>
</trkpt>
<trkpt lat="40.0713751" lon="-105.2297889">
  <ele>1583.07</ele>
  <time>2026-08-28T17:50:44Z</time>
  <course>247.09</course>
  <speed>0.022360679774997897</speed>
  <fix>3d</fix>
</trkpt>
<trkpt lat="40.0713749" lon="-105.229789">
  <ele>1583.0</ele>
  <time>2026-08-28T17:50:44Z</time>
  <course>0.0</course>
  <speed>0.0</speed>
  <fix>3d</fix>
</trkpt>
<trkpt lat="40.071375" lon="-105.2297889">
  <ele>1583.08</ele>
  <time>2026-08-28T17:50:44Z</time>
  <course>247.09</course>
  <speed>0.022360679774997897</speed>
  <fix>3d</fix>
</trkpt>
<trkpt lat="40.0713749" lon="-105.229789">
  <ele>1583.0</ele>
  <time>2026-08-28T17:50:44Z</time>
  <course>0.0</course>
  <speed>0.0</speed>
  <fix>3d</fix>
</trkpt>
<trkpt lat="40.0713751" lon="-105.2297889">
  <ele>1583.08</ele>
  <time>2026-08-28T17:50:44Z</time>
  <course>247.09</course>
  <speed>0.022360679774997897</speed>
  <fix>3d</fix>
</trkpt>
<trkpt lat="40.0713749" lon="-105.229789">
  <ele>1583.0</ele>
  <time>2026-08-28T17:50:44Z</time>
  <course>0.0</course>
  <speed>0.0</speed>
  <fix>3d</fix>
</trkpt>
<trkpt lat="40.071375" lon="-105.2297889">
  <ele>1583.08</ele>
  <time>2026-08-28T17:50:44Z</time>
  <course>247.09</course>
  <speed>0.02</speed>
  <fix>3d</fix>
</trkpt>
<trkpt lat="40.0713749" lon="-105.229789">
  <ele>1583.0</ele>
  <time>2026-08-28T17:50:44Z</time>
  <course>0.0</course>
  <speed>0.0</speed>
  <fix>3d</fix>
</trkpt>
<trkpt lat="40.0713751" lon="-105.2297889">
  <ele>1583.08</ele>
  <time>2026-08-28T17:50:44Z</time>
  <course>247.09</course>
  <speed>0.022360679774997897</speed>
  <fix>3d</fix>
</trkpt>
<trkpt lat="40.0713749" lon="-105.229789">
  <ele>1583.0</ele>
  <time>2026-08-28T17:50:44Z</time>
  <course>0.0</course>
  <speed>0.0</speed>
  <fix>3d</fix>
</trkpt>
<trkpt lat="40.071375" lon="-105.2297889">
  <ele>1583.08</ele>
  <time>2026-08-28T17:50:44Z</time>
  <course>247.09</course>
  <speed>0.022360679774997897</speed>
  <fix>3d</fix>
</trkpt>
<trkpt lat="40.0713749" lon="-105.229789">
  <ele>1583.0</ele>
  <time>2026-08-28T17:50:44Z</time>
  <course>0.0</course>
  <speed>0.0</speed>
  <fix>3d</fix>
</trkpt>
<trkpt lat="40.071375" lon="-105.2297889">
  <ele>1583.08</ele>
  <time>2026-08-28T17:50:44Z</time>
  <course>247.09</course>
  <speed>0.022360679774997897</speed>
  <fix>3d</fix>
</trkpt>
<trkpt lat="40.0713749" lon="-105.229789">
  <ele>1583.0</ele>
  <time>2026-08-28T17:50:44Z</time>
  <course>0.0</course>
  <speed>0.0</speed>
  <fix>3d</fix>
</trkpt>
<trkpt lat="40.071375" lon="-105.2297889">
  <ele>1583.08</ele>
  <time>2026-08-28T17:50:44Z</time>
  <course>247.09</course>
  <speed>0.022360679774997897</speed>
  <fix>3d</fix>
</trkpt>
<trkpt lat="40.0713749" lon="-105.229789">
  <ele>1583.0</ele>
  <time>2026-08-28T17:50:44Z</time>
  <course>0.0</course>
  <speed>0.0</speed>
  <fix>3d</fix>
</trkpt>
<trkpt lat="40.0713751" lon="-105.2297889">
  <ele>1583.08</ele>
  <time>2026-08-28T17:50:44Z</time>
  <course>247.09</course>
  <speed>0.022360679774997897</speed>
  <fix>3d</fix>
</trkpt>
<trkpt lat="40.0713749" lon="-105.229789">
  <ele>1583.0</ele>
  <time>2026-08-28T17:50:44Z</time>
  <course>0.0</course>
  <speed>0.0</speed>
  <fix>3d</fix>
</trkpt>
<trkpt lat="40.071375" lon="-105.2297889">
  <ele>1583.08</ele>
  <time>2026-08-28T17:50:44Z</time>
  <course>247.09</course>
  <speed>0.022360679774997897</speed>
  <fix>3d</fix>
</trkpt>
<trkpt lat="40.0713749" lon="-105.229789">
  <ele>1583.0</ele>
  <time>2026-08-28T17:50:44Z</time>
  <course>0.0</course>
  <speed>0.0</speed>
  <fix>3d</fix>
</trkpt>
<trkpt lat="40.0713751" lon="-105.2297889">
  <ele>1583.08</ele>
  <time>2026-08-28T17:50:44Z</time>
  <course>247.09</course>
  <speed>0.022360679774997897</speed>
  <fix>3d</fix>
</trkpt>
<trkpt lat="40.0713749" lon="-105.229789">
  <ele>1583.0</ele>
  <time>2026-08-28T17:50:44Z</time>
  <course>0.0</course>
  <speed>0.0</speed>
  <fix>3d</fix>
</trkpt>
<trkpt lat="40.071375" lon="-105.2297889">
  <ele>1583.08</ele>
  <time>2026-08-28T17:50:44Z</time>
  <course>247.09</course>
  <speed>0.022360679774997897</speed>
  <fix>3d</fix>
</trkpt>
<trkpt lat="40.0713749" lon="-105.229789">
  <ele>1583.0</ele>
  <time>2026-08-28T17:50:44Z</time>
  <course>0.0</course>
  <speed>0.0</speed>
  <fix>3d</fix>
</trkpt>
<trkpt lat="40.0713751" lon="-105.2297889">
  <ele>1583.08</ele>
  <time>2026-08-28T17:50:44Z</time>
  <course>247.09</course>
  <speed>0.022360679774997897</speed>
  <fix>3d</fix>
</trkpt>
<trkpt lat="40.0713749" lon="-105.229789">
  <ele>1583.0</ele>
  <time>2026-08-28T17:50:44Z</time>
  <course>0.0</course>
  <speed>0.0</speed>
  <fix>3d</fix>
</trkpt>
<trkpt lat="40.071375" lon="-105.2297889">
  <ele>1583.08</ele>
  <time>2026-08-28T17:50:44Z</time>
  <course>247.09</course>
  <speed>0.022360679774997897</speed>
  <fix>3d</fix>
</trkpt>
<trkpt lat="40.0713749" lon="-105.229789">
  <ele>1583.0</ele>
  <time>2026-08-28T17:50:44Z</time>
  <course>0.0</course>
  <speed>0.0</speed>
  <fix>3d</fix>
</trkpt>
<trkpt lat="40.0713751" lon="-105.2297889">
  <ele>1583.08</ele>
  <time>2026-08-28T17:50:44Z</time>
  <course>247.09</course>
  <speed>0.022360679774997897</speed>
  <fix>3d</fix>
</trkpt>
<trkpt lat="40.0713749" lon="-105.229789">
  <ele>1583.0</ele>
  <time>2026-08-28T17:50:44Z</time>
  <course>0.0</course>
  <speed>0.0</speed>
  <fix>3d</fix>
</trkpt>
<trkpt lat="40.071375" lon="-105.2297889">
  <ele>1583.08</ele>
  <time>2026-08-28T17:50:44Z</time>
  <course>247.09</course>
  <speed>0.022360679774997897</speed>
  <fix>3d</fix>
</trkpt>
<trkpt lat="40.0713749" lon="-105.229789">
  <ele>1583.0</ele>
  <time>2026-08-28T17:50:44Z</time>
  <course>0.0</course>
  <speed>0.0</speed>
  <fix>3d</fix>
</trkpt>
<trkpt lat="40.0713751" lon="-105.2297889">
  <ele>1583.08</ele>
  <time>2026-08-28T17:50:44Z</time>
  <course>247.09</course>
  <speed>0.022360679774997897</speed>
  <fix>3d</fix>
</trkpt>
<trkpt lat="40.0713749" lon="-105.229789">
  <ele>1583.0</ele>
  <time>2026-08-28T17:50:44Z</time>
  <course>0.0</course>
  <speed>0.0</speed>
  <fix>3d</fix>
</trkpt>
<trkpt lat="40.071375" lon="-105.2297889">
  <ele>1583.08</ele>
  <time>2026-08-28T17:50:44Z</time>
  <course>247.09</course>
  <speed>0.022360679774997897</speed>
  <fix>3d</fix>
</trkpt>
<trkpt lat="40.0713749" lon="-105.229789">
  <ele>1583.0</ele>
  <time>2026-08-28T17:50:44Z</time>
  <course>0.0</course>
  <speed>0.0</speed>
  <fix>3d</fix>
</trkpt>
<trkpt lat="40.0713751" lon="-105.2297889">
  <ele>1583.09</ele>
  <time>2026-08-28T17:50:44Z</time>
  <course>247.09</course>
  <speed>0.022360679774997897</speed>
  <fix>3d</fix>
</trkpt>
<trkpt lat="40.0713749" lon="-105.229789">
  <ele>1583.0</ele>
  <time>2026-08-28T17:50:44Z</time>
  <course>0.0</course>
  <speed>0.0</speed>
  <fix>3d</fix>
</trkpt>
<trkpt lat="40.0713751" lon="-105.2297889">
  <ele>1583.1</ele>
  <time>2026-08-28T17:50:44Z</time>
  <course>247.09</course>
  <speed>0.022360679774997897</speed>
  <fix>3d</fix>
</trkpt>
<trkpt lat="40.0713749" lon="-105.229789">
  <ele>1583.0</ele>
  <time>2026-08-28T17:50:44Z</time>
  <course>0.0</course>
  <speed>0.0</speed>
  <fix>3d</fix>
</trkpt>
<trkpt lat="40.0713751" lon="-105.2297889">
  <ele>1583.1</ele>
  <time>2026-08-28T17:50:44Z</time>
  <course>247.09</course>
  <speed>0.022360679774997897</speed>
  <fix>3d</fix>
</trkpt>
<trkpt lat="40.0713749" lon="-105.229789">
  <ele>1583.0</ele>
  <time>2026-08-28T17:50:44Z</time>
  <course>0.0</course>
  <speed>0.0</speed>
  <fix>3d</fix>
</trkpt>
<trkpt lat="40.0713751" lon="-105.2297889">
  <ele>1583.1</ele>
  <time>2026-08-28T17:50:44Z</time>
  <course>247.09</course>
  <speed>0.022360679774997897</speed>
  <fix>3d</fix>
</trkpt>
<trkpt lat="40.0713749" lon="-105.229789">
  <ele>1583.0</ele>
  <time>2026-08-28T17:50:44Z</time>
  <course>0.0</course>
  <speed>0.0</speed>
  <fix>3d</fix>
</trkpt>
<trkpt lat="40.0713751" lon="-105.2297889">
  <ele>1583.1</ele>
  <time>2026-08-28T17:50:44Z</time>
  <course>247.09</course>
  <speed>0.022360679774997897</speed>
  <fix>3d</fix>
</trkpt>
<trkpt lat="40.0713749" lon="-105.229789">
  <ele>1583.0</ele>
  <time>2026-08-28T17:50:44Z</time>
  <course>0.0</course>
  <speed>0.0</speed>
  <fix>3d</fix>
</trkpt>
<trkpt lat="40.071375" lon="-105.2297889">
  <ele>1583.1</ele>
  <time>2026-08-28T17:50:44Z</time>
  <course>247.09</course>
  <speed>0.022360679774997897</speed>
  <fix>3d</fix>
</trkpt>
<trkpt lat="40.0713749" lon="-105.229789">
  <ele>1583.0</ele>
  <time>2026-08-28T17:50:44Z</time>
  <course>0.0</course>
  <speed>0.0</speed>
  <fix>3d</fix>
</trkpt>
<trkpt lat="40.0713751" lon="-105.2297889">
  <ele>1583.11</ele>
  <time>2026-08-28T17:50:44Z</time>
  <course>247.09</course>
  <speed>0.022360679774997897</speed>
  <fix>3d</fix>
</trkpt>
<trkpt lat="40.0713749" lon="-105.229789">
  <ele>1583.0</ele>
  <time>2026-08-28T17:50:44Z</time>
  <course>0.0</course>
  <speed>0.0</speed>
  <fix>3d</fix>
</trkpt>
<trkpt lat="40.071375" lon="-105.2297889">
  <ele>1583.11</ele>
  <time>2026-08-28T17:50:44Z</time>
  <course>247.09</course>
  <speed>0.022360679774997897</speed>
  <fix>3d</fix>
</trkpt>
<trkpt lat="40.0713749" lon="-105.229789">
  <ele>1583.0</ele>
  <time>2026-08-28T17:50:44Z</time>
  <course>0.0</course>
  <speed>0.0</speed>
  <fix>3d</fix>
</trkpt>
<trkpt lat="40.0713751" lon="-105.2297889">
  <ele>1583.11</ele>
  <time>2026-08-28T17:50:44Z</time>
  <course>247.09</course>
  <speed>0.022360679774997897</speed>
  <fix>3d</fix>
</trkpt>
<trkpt lat="40.0713749" lon="-105.229789">
  <ele>1583.0</ele>
  <time>2026-08-28T17:50:44Z</time>
  <course>0.0</course>
  <speed>0.0</speed>
  <fix>3d</fix>
</trkpt>
<trkpt lat="40.071375" lon="-105.2297889">
  <ele>1583.12</ele>
  <time>2026-08-28T17:50:44Z</time>
  <course>247.09</course>
  <speed>0.022360679774997897</speed>
  <fix>3d</fix>
</trkpt>
<trkpt lat="40.0713749" lon="-105.229789">
  <ele>1583.0</ele>
  <time>2026-08-28T17:50:44Z</time>
  <course>0.0</course>
  <speed>0.0</speed>
  <fix>3d</fix>
</trkpt>
<trkpt lat="40.0713751" lon="-105.2297889">
  <ele>1583.12</ele>
  <time>2026-08-28T17:50:44Z</time>
  <course>247.09</course>
  <speed>0.022360679774997897</speed>
  <fix>3d</fix>
</trkpt>
<trkpt lat="40.0713749" lon="-105.229789">
  <ele>1583.0</ele>
  <time>2026-08-28T17:50:44Z</time>
  <course>0.0</course>
  <speed>0.0</speed>
  <fix>3d</fix>
</trkpt>
<trkpt lat="40.071375" lon="-105.2297889">
  <ele>1583.13</ele>
  <time>2026-08-28T17:50:44Z</time>
  <course>247.09</course>
  <speed>0.022360679774997897</speed>
  <fix>3d</fix>
</trkpt>
<trkpt lat="40.0713749" lon="-105.229789">
  <ele>1583.0</ele>
  <time>2026-08-28T17:50:44Z</time>
  <course>0.0</course>
  <speed>0.0</speed>
  <fix>3d</fix>
</trkpt>
<trkpt lat="40.0713751" lon="-105.2297889">
  <ele>1583.13</ele>
  <time>2026-08-28T17:50:44Z</time>
  <course>247.09</course>
  <speed>0.022360679774997897</speed>
  <fix>3d</fix>
</trkpt>
<trkpt lat="40.0713749" lon="-105.229789">
  <ele>1583.0</ele>
  <time>2026-08-28T17:50:44Z</time>
  <course>0.0</course>
  <speed>0.0</speed>
  <fix>3d</fix>
</trkpt>
<trkpt lat="40.071375" lon="-105.2297889">
  <ele>1583.13</ele>
  <time>2026-08-28T17:50:44Z</time>
  <course>247.09</course>
  <speed>0.022360679774997897</speed>
  <fix>3d</fix>
</trkpt>
<trkpt lat="40.0713749" lon="-105.229789">
  <ele>1583.0</ele>
  <time>2026-08-28T17:50:44Z</time>
  <course>0.0</course>
  <speed>0.0</speed>
  <fix>3d</fix>
</trkpt>
<trkpt lat="40.0713751" lon="-105.2297889">
  <ele>1583.14</ele>
  <time>2026-08-28T17:50:44Z</time>
  <course>247.09</course>
  <speed>0.022360679774997897</speed>
  <fix>3d</fix>
</trkpt>
<trkpt lat="40.0713749" lon="-105.229789">
  <ele>1583.0</ele>
  <time>2026-08-28T17:50:44Z</time>
  <course>0.0</course>
  <speed>0.0</speed>
  <fix>3d</fix>
</trkpt>
<trkpt lat="40.071375" lon="-105.2297889">
  <ele>1583.14</ele>
  <time>2026-08-28T17:50:44Z</time>
  <course>247.09</course>
  <speed>0.022360679774997897</speed>
  <fix>3d</fix>
</trkpt>
<trkpt lat="40.0713749" lon="-105.229789">
  <ele>1583.0</ele>
  <time>2026-08-28T17:50:44Z</time>
  <course>0.0</course>
  <speed>0.0</speed>
  <fix>3d</fix>
</trkpt>
<trkpt lat="40.0713751" lon="-105.2297889">
  <ele>1583.14</ele>
  <time>2026-08-28T17:50:44Z</time>
  <course>247.09</course>
  <speed>0.022360679774997897</speed>
  <fix>3d</fix>
</trkpt>
<trkpt lat="40.0713749" lon="-105.229789">
  <ele>1583.0</ele>
  <time>2026-08-28T17:50:44Z</time>
  <course>0.0</course>
  <speed>0.0</speed>
  <fix>3d</fix>
</trkpt>
<trkpt lat="40.071375" lon="-105.2297889">
  <ele>1583.14</ele>
  <time>2026-08-28T17:50:44Z</time>
  <course>247.09</course>
  <speed>0.022360679774997897</speed>
  <fix>3d</fix>
</trkpt>
<trkpt lat="40.0713749" lon="-105.229789">
  <ele>1583.0</ele>
  <time>2026-08-28T17:50:44Z</time>
  <course>0.0</course>
  <speed>0.0</speed>
  <fix>3d</fix>
</trkpt>
<trkpt lat="40.0713751" lon="-105.2297889">
  <ele>1583.14</ele>
  <time>2026-08-28T17:50:44Z</time>
  <course>247.09</course>
  <speed>0.022360679774997897</speed>
  <fix>3d</fix>
</trkpt>
<trkpt lat="40.0713749" lon="-105.229789">
  <ele>1583.0</ele>
  <time>2026-08-28T17:50:44Z</time>
  <course>0.0</course>
  <speed>0.0</speed>
  <fix>3d</fix>
</trkpt>
<trkpt lat="40.0713751" lon="-105.2297889">
  <ele>1583.13</ele>
  <time>2026-08-28T17:50:44Z</time>
  <course>247.09</course>
  <speed>0.022360679774997897</speed>
  <fix>3d</fix>
</trkpt>
<trkpt lat="40.0713749" lon="-105.229789">
  <ele>1583.0</ele>
  <time>2026-08-28T17:50:44Z</time>
  <course>0.0</course>
  <speed>0.0</speed>
  <fix>3d</fix>
</trkpt>
<trkpt lat="40.0713751" lon="-105.2297889">
  <ele>1583.13</ele>
  <time>2026-08-28T17:50:44Z</time>
  <course>247.09</course>
  <speed>0.022360679774997897</speed>
  <fix>3d</fix>
</trkpt>
<trkpt lat="40.0713749" lon="-105.229789">
  <ele>1583.0</ele>
  <time>2026-08-28T17:50:44Z</time>
  <course>0.0</course>
  <speed>0.0</speed>
  <fix>3d</fix>
</trkpt>
<trkpt lat="40.0713751" lon="-105.2297889">
  <ele>1583.13</ele>
  <time>2026-08-28T17:50:44Z</time>
  <course>247.09</course>
  <speed>0.022360679774997897</speed>
  <fix>3d</fix>
</trkpt>
<trkpt lat="40.0713749" lon="-105.229789">
  <ele>1583.0</ele>
  <time>2026-08-28T17:50:44Z</time>
  <course>0.0</course>
  <speed>0.0</speed>
  <fix>3d</fix>
</trkpt>
<trkpt lat="40.0713751" lon="-105.2297889">
  <ele>1583.12</ele>
  <time>2026-08-28T17:50:44Z</time>
  <course>247.09</course>
  <speed>0.022360679774997897</speed>
  <fix>3d</fix>
</trkpt>
<trkpt lat="40.0713749" lon="-105.229789">
  <ele>1583.0</ele>
  <time>2026-08-28T17:50:44Z</time>
  <course>0.0</course>
  <speed>0.0</speed>
  <fix>3d</fix>
</trkpt>
<trkpt lat="40.0713751" lon="-105.2297889">
  <ele>1583.12</ele>
  <time>2026-08-28T17:50:44Z</time>
  <course>247.09</course>
  <speed>0.022360679774997897</speed>
  <fix>3d</fix>
</trkpt>
<trkpt lat="40.0713749" lon="-105.229789">
  <ele>1583.0</ele>
  <time>2026-08-28T17:50:44Z</time>
  <course>0.0</course>
  <speed>0.0</speed>
  <fix>3d</fix>
</trkpt>
<trkpt lat="40.0713751" lon="-105.2297889">
  <ele>1583.11</ele>
  <time>2026-08-28T17:50:44Z</time>
  <course>247.09</course>
  <speed>0.022360679774997897</speed>
  <fix>3d</fix>
</trkpt>
<trkpt lat="40.0713749" lon="-105.229789">
  <ele>1583.0</ele>
  <time>2026-08-28T17:50:44Z</time>
  <course>0.0</course>
  <speed>0.0</speed>
  <fix>3d</fix>
</trkpt>
<trkpt lat="40.0713751" lon="-105.2297889">
  <ele>1583.11</ele>
  <time>2026-08-28T17:50:44Z</time>
  <course>247.09</course>
  <speed>0.022360679774997897</speed>
  <fix>3d</fix>
</trkpt>
<trkpt lat="40.0713749" lon="-105.229789">
  <ele>1583.0</ele>
  <time>2026-08-28T17:50:44Z</time>
  <course>0.0</course>
  <speed>0.0</speed>
  <fix>3d</fix>
</trkpt>
<trkpt lat="40.0713751" lon="-105.2297889">
  <ele>1583.1</ele>
  <time>2026-08-28T17:50:44Z</time>
  <course>247.09</course>
  <speed>0.022360679774997897</speed>
  <fix>3d</fix>
</trkpt>
<trkpt lat="40.0713749" lon="-105.229789">
  <ele>1583.0</ele>
  <time>2026-08-28T17:50:44Z</time>
  <course>0.0</course>
  <speed>0.0</speed>
  <fix>3d</fix>
</trkpt>
<trkpt lat="40.071375" lon="-105.2297889">
  <ele>1583.1</ele>
  <time>2026-08-28T17:50:44Z</time>
  <course>247.09</course>
  <speed>0.022360679774997897</speed>
  <fix>3d</fix>
</trkpt>
<trkpt lat="40.0713749" lon="-105.229789">
  <ele>1583.0</ele>
  <time>2026-08-28T17:50:44Z</time>
  <course>0.0</course>
  <speed>0.0</speed>
  <fix>3d</fix>
</trkpt>
<trkpt lat="40.0713751" lon="-105.2297889">
  <ele>1583.09</ele>
  <time>2026-08-28T17:50:44Z</time>
  <course>247.09</course>
  <speed>0.022360679774997897</speed>
  <fix>3d</fix>
</trkpt>
<trkpt lat="40.0713749" lon="-105.229789">
  <ele>1583.0</ele>
  <time>2026-08-28T17:50:44Z</time>
  <course>0.0</course>
  <speed>0.0</speed>
  <fix>3d</fix>
</trkpt>
<trkpt lat="40.071375" lon="-105.2297889">
  <ele>1583.09</ele>
  <time>2026-08-28T17:50:44Z</time>
  <course>247.09</course>
  <speed>0.022360679774997897</speed>
  <fix>3d</fix>
</trkpt>
<trkpt lat="40.0713749" lon="-105.229789">
  <ele>1583.0</ele>
  <time>2026-08-28T17:50:44Z</time>
  <course>0.0</course>
  <speed>0.0</speed>
  <fix>3d</fix>
</trkpt>
<trkpt lat="40.0713751" lon="-105.2297889">
  <ele>1583.09</ele>
  <time>2026-08-28T17:50:44Z</time>
  <course>247.09</course>
  <speed>0.022360679774997897</speed>
  <fix>3d</fix>
</trkpt>
<trkpt lat="40.0713749" lon="-105.229789">
  <ele>1583.0</ele>
  <time>2026-08-28T17:50:44Z</time>
  <course>0.0</course>
  <speed>0.0</speed>
  <fix>3d</fix>
</trkpt>
<trkpt lat="40.071375" lon="-105.2297889">
  <ele>1583.08</ele>
  <time>2026-08-28T17:50:44Z</time>
  <course>247.09</course>
  <speed>0.022360679774997897</speed>
  <fix>3d</fix>
</trkpt>
<trkpt lat="40.0713749" lon="-105.229789">
  <ele>1583.0</ele>
  <time>2026-08-28T17:50:44Z</time>
  <course>0.0</course>
  <speed>0.0</speed>
  <fix>3d</fix>
</trkpt>
<trkpt lat="40.0713751" lon="-105.2297889">
  <ele>1583.08</ele>
  <time>2026-08-28T17:50:44Z</time>
  <course>247.09</course>
  <speed>0.022360679774997897</speed>
  <fix>3d</fix>
</trkpt>
<trkpt lat="40.0713749" lon="-105.229789">
  <ele>1583.0</ele>
  <time>2026-08-28T17:50:44Z</time>
  <course>0.0</course>
  <speed>0.0</speed>
  <fix>3d</fix>
</trkpt>
<trkpt lat="40.071375" lon="-105.2297889">
  <ele>1583.08</ele>
  <time>2026-08-28T17:50:44Z</time>
  <course>247.09</course>
  <speed>0.022360679774997897</speed>
  <fix>3d</fix>
</trkpt>
<trkpt lat="40.0713749" lon="-105.229789">
  <ele>1583.0</ele>
  <time>2026-08-28T17:50:44Z</time>
  <course>0.0</course>
  <speed>0.0</speed>
  <fix>3d</fix>
</trkpt>
<trkpt lat="40.0713751" lon="-105.2297889">
  <ele>1583.08</ele>
  <time>2026-08-28T17:50:44Z</time>
  <course>247.09</course>
  <speed>0.022360679774997897</speed>
  <fix>3d</fix>
</trkpt>
<trkpt lat="40.0713749" lon="-105.229789">
  <ele>1583.0</ele>
  <time>2026-08-28T17:50:44Z</time>
  <course>0.0</course>
  <speed>0.0</speed>
  <fix>3d</fix>
</trkpt>
<trkpt lat="40.071375" lon="-105.2297889">
  <ele>1583.07</ele>
  <time>2026-08-28T17:50:44Z</time>
  <course>247.09</course>
  <speed>0.022360679774997897</speed>
  <fix>3d</fix>
</trkpt>
<trkpt lat="40.0713749" lon="-105.229789">
  <ele>1583.0</ele>
  <time>2026-08-28T17:50:44Z</time>
  <course>0.0</course>
  <speed>0.0</speed>
  <fix>3d</fix>
</trkpt>
<trkpt lat="40.0713751" lon="-105.2297889">
  <ele>1583.07</ele>
  <time>2026-08-28T17:50:44Z</time>
  <course>247.09</course>
  <speed>0.022360679774997897</speed>
  <fix>3d</fix>
</trkpt>
<trkpt lat="40.0713749" lon="-105.229789">
  <ele>1583.0</ele>
  <time>2026-08-28T17:50:44Z</time>
  <course>0.0</course>
  <speed>0.0</speed>
  <fix>3d</fix>
</trkpt>
<trkpt lat="40.071375" lon="-105.2297889">
  <ele>1583.07</ele>
  <time>2026-08-28T17:50:44Z</time>
  <course>247.09</course>
  <speed>0.022360679774997897</speed>
  <fix>3d</fix>
</trkpt>
<trkpt lat="40.0713749" lon="-105.229789">
  <ele>1583.0</ele>
  <time>2026-08-28T17:50:44Z</time>
  <course>0.0</course>
  <speed>0.0</speed>
  <fix>3d</fix>
</trkpt>
<trkpt lat="40.0713751" lon="-105.2297889">
  <ele>1583.07</ele>
  <time>2026-08-28T17:50:44Z</time>
  <course>247.09</course>
  <speed>0.022360679774997897</speed>
  <fix>3d</fix>
</trkpt>
<trkpt lat="40.0713749" lon="-105.229789">
  <ele>1583.0</ele>
  <time>2026-08-28T17:50:44Z</time>
  <course>0.0</course>
  <speed>0.0</speed>
  <fix>3d</fix>
</trkpt>
<trkpt lat="40.071375" lon="-105.2297889">
  <ele>1583.07</ele>
  <time>2026-08-28T17:50:44Z</time>
  <course>247.09</course>
  <speed>0.022360679774997897</speed>
  <fix>3d</fix>
</trkpt>
<trkpt lat="40.0713749" lon="-105.229789">
  <ele>1583.0</ele>
  <time>2026-08-28T17:50:44Z</time>
  <course>0.0</course>
  <speed>0.0</speed>
  <fix>3d</fix>
</trkpt>
<trkpt lat="40.0713751" lon="-105.2297889">
  <ele>1583.07</ele>
  <time>2026-08-28T17:50:44Z</time>
  <course>247.09</course>
  <speed>0.022360679774997897</speed>
  <fix>3d</fix>
</trkpt>
<trkpt lat="40.0713749" lon="-105.229789">
  <ele>1583.0</ele>
  <time>2026-08-28T17:50:44Z</time>
  <course>0.0</course>
  <speed>0.0</speed>
  <fix>3d</fix>
</trkpt>
<trkpt lat="40.071375" lon="-105.2297889">
  <ele>1583.08</ele>
  <time>2026-08-28T17:50:44Z</time>
  <course>247.09</course>
  <speed>0.022360679774997897</speed>
  <fix>3d</fix>
</trkpt>
<trkpt lat="40.0713749" lon="-105.229789">
  <ele>1583.0</ele>
  <time>2026-08-28T17:50:44Z</time>
  <course>0.0</course>
  <speed>0.0</speed>
  <fix>3d</fix>
</trkpt>
<trkpt lat="40.0713751" lon="-105.2297889">
  <ele>1583.08</ele>
  <time>2026-08-28T17:50:44Z</time>
  <course>247.09</course>
  <speed>0.022360679774997897</speed>
  <fix>3d</fix>
</trkpt>
<trkpt lat="40.0713749" lon="-105.229789">
  <ele>1583.0</ele>
  <time>2026-08-28T17:50:44Z</time>
  <course>0.0</course>
  <speed>0.0</speed>
  <fix>3d</fix>
</trkpt>
<trkpt lat="40.0713751" lon="-105.2297889">
  <ele>1583.07</ele>
  <time>2026-08-28T17:50:44Z</time>
  <course>247.09</course>
  <speed>0.022360679774997897</speed>
  <fix>3d</fix>
</trkpt>
<trkpt lat="40.0713749" lon="-105.229789">
  <ele>1583.0</ele>
  <time>2026-08-28T17:50:44Z</time>
  <course>0.0</course>
  <speed>0.0</speed>
  <fix>3d</fix>
</trkpt>
<trkpt lat="40.0713751" lon="-105.2297889">
  <ele>1583.08</ele>
  <time>2026-08-28T17:50:44Z</time>
  <course>247.09</course>
  <speed>0.022360679774997897</speed>
  <fix>3d</fix>
</trkpt>
<trkpt lat="40.0713749" lon="-105.229789">
  <ele>1583.0</ele>
  <time>2026-08-28T17:50:44Z</time>
  <course>0.0</course>
  <speed>0.0</speed>
  <fix>3d</fix>
</trkpt>
<trkpt lat="40.0713751" lon="-105.2297889">
  <ele>1583.08</ele>
  <time>2026-08-28T17:50:44Z</time>
  <course>247.09</course>
  <speed>0.022360679774997897</speed>
  <fix>3d</fix>
</trkpt>
<trkpt lat="40.0713749" lon="-105.229789">
  <ele>1583.0</ele>
  <time>2026-08-28T17:50:44Z</time>
  <course>0.0</course>
  <speed>0.0</speed>
  <fix>3d</fix>
</trkpt>
<trkpt lat="40.0713751" lon="-105.2297889">
  <ele>1583.07</ele>
  <time>2026-08-28T17:50:44Z</time>
  <course>247.09</course>
  <speed>0.022360679774997897</speed>
  <fix>3d</fix>
</trkpt>
<trkpt lat="40.0713749" lon="-105.229789">
  <ele>1583.0</ele>
  <time>2026-08-28T17:50:44Z</time>
  <course>0.0</course>
  <speed>0.0</speed>
  <fix>3d</fix>
</trkpt>
<trkpt lat="40.071375" lon="-105.2297889">
  <ele>1583.07</ele>
  <time>2026-08-28T17:50:44Z</time>
  <course>247.09</course>
  <speed>0.022360679774997897</speed>
  <fix>3d</fix>
</trkpt>
<trkpt lat="40.0713749" lon="-105.229789">
  <ele>1583.0</ele>
  <time>2026-08-28T17:50:44Z</time>
  <course>0.0</course>
  <speed>0.0</speed>
  <fix>3d</fix>
</trkpt>
<trkpt lat="40.0713751" lon="-105.2297889">
  <ele>1583.06</ele>
  <time>2026-08-28T17:50:44Z</time>
  <course>247.09</course>
  <speed>0.022360679774997897</speed>
  <fix>3d</fix>
</trkpt>
<trkpt lat="40.0713749" lon="-105.229789">
  <ele>1583.0</ele>
  <time>2026-08-28T17:50:44Z</time>
  <course>0.0</course>
  <speed>0.0</speed>
  <fix>3d</fix>
</trkpt>
<trkpt lat="40.071375" lon="-105.2297889">
  <ele>1583.06</ele>
  <time>2026-08-28T17:50:44Z</time>
  <course>247.09</course>
  <speed>0.022360679774997897</speed>
  <fix>3d</fix>
</trkpt>
<trkpt lat="40.0713749" lon="-105.229789">
  <ele>1583.0</ele>
  <time>2026-08-28T17:50:44Z</time>
  <course>0.0</course>
  <speed>0.0</speed>
  <fix>3d</fix>
</trkpt>
<trkpt lat="40.0713751" lon="-105.2297889">
  <ele>1583.05</ele>
  <time>2026-08-28T17:50:44Z</time>
  <course>247.09</course>
  <speed>0.022360679774997897</speed>
  <fix>3d</fix>
</trkpt>
<trkpt lat="40.0713749" lon="-105.229789">
  <ele>1583.0</ele>
  <time>2026-08-28T17:50:44Z</time>
  <course>0.0</course>
  <speed>0.0</speed>
  <fix>3d</fix>
</trkpt>
<trkpt lat="40.071375" lon="-105.2297889">
  <ele>1583.04</ele>
  <time>2026-08-28T17:50:44Z</time>
  <course>247.09</course>
  <speed>0.022360679774997897</speed>
  <fix>3d</fix>
</trkpt>
<trkpt lat="40.0713749" lon="-105.229789">
  <ele>1583.0</ele>
  <time>2026-08-28T17:50:44Z</time>
  <course>0.0</course>
  <speed>0.0</speed>
  <fix>3d</fix>
</trkpt>
<trkpt lat="40.0713751" lon="-105.2297889">
  <ele>1583.04</ele>
  <time>2026-08-28T17:50:44Z</time>
  <course>247.09</course>
  <speed>0.022360679774997897</speed>
  <fix>3d</fix>
</trkpt>
<trkpt lat="40.0713749" lon="-105.229789">
  <ele>1583.0</ele>
  <time>2026-08-28T17:50:44Z</time>
  <course>0.0</course>
  <speed>0.0</speed>
  <fix>3d</fix>
</trkpt>
<trkpt lat="40.071375" lon="-105.2297889">
  <ele>1583.03</ele>
  <time>2026-08-28T17:50:44Z</time>
  <course>247.09</course>
  <speed>0.022360679774997897</speed>
  <fix>3d</fix>
</trkpt>
<trkpt lat="40.0713749" lon="-105.229789">
  <ele>1583.0</ele>
  <time>2026-08-28T17:50:44Z</time>
  <course>0.0</course>
  <speed>0.0</speed>
  <fix>3d</fix>
</trkpt>
<trkpt lat="40.0713751" lon="-105.2297889">
  <ele>1583.02</ele>
  <time>2026-08-28T17:50:44Z</time>
  <course>247.09</course>
  <speed>0.022360679774997897</speed>
  <fix>3d</fix>
</trkpt>
<trkpt lat="40.0713749" lon="-105.229789">
  <ele>1583.0</ele>
  <time>2026-08-28T17:50:44Z</time>
  <course>0.0</course>
  <speed>0.0</speed>
  <fix>3d</fix>
</trkpt>
<trkpt lat="40.071375" lon="-105.2297889">
  <ele>1583.01</ele>
  <time>2026-08-28T17:50:44Z</time>
  <course>247.09</course>
  <speed>0.022360679774997897</speed>
  <fix>3d</fix>
</trkpt>
<trkpt lat="40.0713749" lon="-105.229789">
  <ele>1583.0</ele>
  <time>2026-08-28T17:50:44Z</time>
  <course>0.0</course>
  <speed>0.0</speed>
  <fix>3d</fix>
</trkpt>
<trkpt lat="40.0713751" lon="-105.2297889">
  <ele>1583.01</ele>
  <time>2026-08-28T17:50:44Z</time>
  <course>247.09</course>
  <speed>0.022360679774997897</speed>
  <fix>3d</fix>
</trkpt>
<trkpt lat="40.0713749" lon="-105.229789">
  <ele>1583.0</ele>
  <time>2026-08-28T17:50:44Z</time>
  <course>0.0</course>
  <speed>0.0</speed>
  <fix>3d</fix>
</trkpt>
<trkpt lat="40.071375" lon="-105.2297889">
  <ele>1583.01</ele>
  <time>2026-08-28T17:50:44Z</time>
  <course>247.09</course>
  <speed>0.022360679774997897</speed>
  <fix>3d</fix>
</trkpt>
<trkpt lat="40.0713749" lon="-105.229789">
  <ele>1583.0</ele>
  <time>2026-08-28T17:50:44Z</time>
  <course>0.0</course>
  <speed>0.0</speed>
  <fix>3d</fix>
</trkpt>
<trkpt lat="40.0713751" lon="-105.2297889">
  <ele>1583.01</ele>
  <time>2026-08-28T17:50:44Z</time>
  <course>247.09</course>
  <speed>0.022360679774997897</speed>
  <fix>3d</fix>
</trkpt>
<trkpt lat="40.0713749" lon="-105.229789">
  <ele>1583.0</ele>
  <time>2026-08-28T17:50:44Z</time>
  <course>0.0</course>
  <speed>0.0</speed>
  <fix>3d</fix>
</trkpt>
<trkpt lat="40.071375" lon="-105.2297889">
  <ele>1583.01</ele>
  <time>2026-08-28T17:50:44Z</time>
  <course>247.09</course>
  <speed>0.022360679774997897</speed>
  <fix>3d</fix>
</trkpt>
<trkpt lat="40.0713749" lon="-105.229789">
  <ele>1583.0</ele>
  <time>2026-08-28T17:50:44Z</time>
  <course>0.0</course>
  <speed>0.0</speed>
  <fix>3d</fix>
</trkpt>
<trkpt lat="40.0713751" lon="-105.2297889">
  <ele>1583.01</ele>
  <time>2026-08-28T17:50:44Z</time>
  <course>247.09</course>
  <speed>0.022360679774997897</speed>
  <fix>3d</fix>
</trkpt>
<trkpt lat="40.0713749" lon="-105.229789">
  <ele>1583.0</ele>
  <time>2026-08-28T17:50:44Z</time>
  <course>0.0</course>
  <speed>0.0</speed>
  <fix>3d</fix>
</trkpt>
<trkpt lat="40.071375" lon="-105.2297889">
  <ele>1583.02</ele>
  <time>2026-08-28T17:50:44Z</time>
  <course>247.09</course>
  <speed>0.022360679774997897</speed>
  <fix>3d</fix>
</trkpt>
<trkpt lat="40.0713749" lon="-105.229789">
  <ele>1583.0</ele>
  <time>2026-08-28T17:50:44Z</time>
  <course>0.0</course>
  <speed>0.0</speed>
  <fix>3d</fix>
</trkpt>
<trkpt lat="40.0713751" lon="-105.2297889">
  <ele>1583.02</ele>
  <time>2026-08-28T17:50:44Z</time>
  <course>247.09</course>
  <speed>0.022360679774997897</speed>
  <fix>3d</fix>
</trkpt>
<trkpt lat="40.0713749" lon="-105.229789">
  <ele>1583.0</ele>
  <time>2026-08-28T17:50:44Z</time>
  <course>0.0</course>
  <speed>0.0</speed>
  <fix>3d</fix>
</trkpt>
<trkpt lat="40.0713751" lon="-105.2297889">
  <ele>1583.02</ele>
  <time>2026-08-28T17:50:44Z</time>
  <course>247.09</course>
  <speed>0.022360679774997897</speed>
  <fix>3d</fix>
</trkpt>
<trkpt lat="40.0713749" lon="-105.229789">
  <ele>1583.0</ele>
  <time>2026-08-28T17:50:44Z</time>
  <course>0.0</course>
  <speed>0.0</speed>
  <fix>3d</fix>
</trkpt>
<trkpt lat="40.0713751" lon="-105.2297889">
  <ele>1583.02</ele>
  <time>2026-08-28T17:50:44Z</time>
  <course>247.09</course>
  <speed>0.022360679774997897</speed>
  <fix>3d</fix>
</trkpt>
<trkpt lat="40.0713749" lon="-105.229789">
  <ele>1583.0</ele>
  <time>2026-08-28T17:50:44Z</time>
  <course>0.0</course>
  <speed>0.0</speed>
  <fix>3d</fix>
</trkpt>
<trkpt lat="40.0713751" lon="-105.2297889">
  <ele>1583.02</ele>
  <time>2026-08-28T17:50:44Z</time>
  <course>247.09</course>
  <speed>0.022360679774997897</speed>
  <fix>3d</fix>
</trkpt>
<trkpt lat="40.0713749" lon="-105.229789">
  <ele>1583.0</ele>
  <time>2026-08-28T17:50:44Z</time>
  <course>0.0</course>
  <speed>0.0</speed>
  <fix>3d</fix>
</trkpt>
<trkpt lat="40.0713751" lon="-105.2297889">
  <ele>1583.02</ele>
  <time>2026-08-28T17:50:44Z</time>
  <course>247.09</course>
  <speed>0.022360679774997897</speed>
  <fix>3d</fix>
</trkpt>
<trkpt lat="40.0713749" lon="-105.229789">
  <ele>1583.0</ele>
  <time>2026-08-28T17:50:44Z</time>
  <course>0.0</course>
  <speed>0.0</speed>
  <fix>3d</fix>
</trkpt>
<trkpt lat="40.0713751" lon="-105.2297889">
  <ele>1583.02</ele>
  <time>2026-08-28T17:50:44Z</time>
  <course>247.09</course>
  <speed>0.022360679774997897</speed>
  <fix>3d</fix>
</trkpt>
<trkpt lat="40.0713749" lon="-105.229789">
  <ele>1583.0</ele>
  <time>2026-08-28T17:50:44Z</time>
  <course>0.0</course>
  <speed>0.0</speed>
  <fix>3d</fix>
</trkpt>
<trkpt lat="40.0713751" lon="-105.2297889">
  <ele>1583.03</ele>
  <time>2026-08-28T17:50:44Z</time>
  <course>247.09</course>
  <speed>0.022360679774997897</speed>
  <fix>3d</fix>
</trkpt>
<trkpt lat="40.0713749" lon="-105.229789">
  <ele>1583.0</ele>
  <time>2026-08-28T17:50:44Z</time>
  <course>0.0</course>
  <speed>0.0</speed>
  <fix>3d</fix>
</trkpt>
<trkpt lat="40.071375" lon="-105.2297889">
  <ele>1583.03</ele>
  <time>2026-08-28T17:50:44Z</time>
  <course>247.09</course>
  <speed>0.022360679774997897</speed>
  <fix>3d</fix>
</trkpt>
<trkpt lat="40.0713749" lon="-105.229789">
  <ele>1583.0</ele>
  <time>2026-08-28T17:50:44Z</time>
  <course>0.0</course>
  <speed>0.0</speed>
  <fix>3d</fix>
</trkpt>
<trkpt lat="40.0713751" lon="-105.2297889">
  <ele>1583.04</ele>
  <time>2026-08-28T17:50:44Z</time>
  <course>247.09</course>
  <speed>0.022360679774997897</speed>
  <fix>3d</fix>
</trkpt>
<trkpt lat="40.0713749" lon="-105.229789">
  <ele>1583.0</ele>
  <time>2026-08-28T17:50:44Z</time>
  <course>0.0</course>
  <speed>0.0</speed>
  <fix>3d</fix>
</trkpt>
<trkpt lat="40.071375" lon="-105.2297889">
  <ele>1583.04</ele>
  <time>2026-08-28T17:50:44Z</time>
  <course>247.09</course>
  <speed>0.022360679774997897</speed>
  <fix>3d</fix>
</trkpt>
<trkpt lat="40.0713749" lon="-105.229789">
  <ele>1583.0</ele>
  <time>2026-08-28T17:50:44Z</time>
  <course>0.0</course>
  <speed>0.0</speed>
  <fix>3d</fix>
</trkpt>
<trkpt lat="40.071375" lon="-105.2297889">
  <ele>1583.04</ele>
  <time>2026-08-28T17:50:44Z</time>
  <course>247.09</course>
  <speed>0.022360679774997897</speed>
  <fix>3d</fix>
</trkpt>
<trkpt lat="40.0713749" lon="-105.229789">
  <ele>1583.0</ele>
  <time>2026-08-28T17:50:44Z</time>
  <course>0.0</course>
  <speed>0.0</speed>
  <fix>3d</fix>
</trkpt>
<trkpt lat="40.071375" lon="-105.2297889">
  <ele>1583.04</ele>
  <time>2026-08-28T17:50:44Z</time>
  <course>247.09</course>
  <speed>0.022360679774997897</speed>
  <fix>3d</fix>
</trkpt>
<trkpt lat="40.0713749" lon="-105.229789">
  <ele>1583.0</ele>
  <time>2026-08-28T17:50:44Z</time>
  <course>0.0</course>
  <speed>0.0</speed>
  <fix>3d</fix>
</trkpt>
<trkpt lat="40.0713751" lon="-105.2297889">
  <ele>1583.04</ele>
  <time>2026-08-28T17:50:44Z</time>
  <course>247.09</course>
  <speed>0.022360679774997897</speed>
  <fix>3d</fix>
</trkpt>
<trkpt lat="40.0713749" lon="-105.229789">
  <ele>1583.0</ele>
  <time>2026-08-28T17:50:44Z</time>
  <course>0.0</course>
  <speed>0.0</speed>
  <fix>3d</fix>
</trkpt>
<trkpt lat="40.071375" lon="-105.2297889">
  <ele>1583.05</ele>
  <time>2026-08-28T17:50:44Z</time>
  <course>247.09</course>
  <speed>0.022360679774997897</speed>
  <fix>3d</fix>
</trkpt>
<trkpt lat="40.0713749" lon="-105.229789">
  <ele>1583.0</ele>
  <time>2026-08-28T17:50:44Z</time>
  <course>0.0</course>
  <speed>0.0</speed>
  <fix>3d</fix>
</trkpt>
<trkpt lat="40.0713751" lon="-105.2297889">
  <ele>1583.05</ele>
  <time>2026-08-28T17:50:44Z</time>
  <course>247.09</course>
  <speed>0.022360679774997897</speed>
  <fix>3d</fix>
</trkpt>
<trkpt lat="40.0713749" lon="-105.229789">
  <ele>1583.0</ele>
  <time>2026-08-28T17:50:44Z</time>
  <course>0.0</course>
  <speed>0.0</speed>
  <fix>3d</fix>
</trkpt>
<trkpt lat="40.071375" lon="-105.2297889">
  <ele>1583.05</ele>
  <time>2026-08-28T17:50:44Z</time>
  <course>247.09</course>
  <speed>0.022360679774997897</speed>
  <fix>3d</fix>
</trkpt>
<trkpt lat="40.0713749" lon="-105.229789">
  <ele>1583.0</ele>
  <time>2026-08-28T17:50:44Z</time>
  <course>0.0</course>
  <speed>0.0</speed>
  <fix>3d</fix>
</trkpt>
<trkpt lat="40.0713751" lon="-105.2297889">
  <ele>1583.06</ele>
  <time>2026-08-28T17:50:44Z</time>
  <course>247.09</course>
  <speed>0.022360679774997897</speed>
  <fix>3d</fix>
</trkpt>
<trkpt lat="40.0713749" lon="-105.229789">
  <ele>1583.0</ele>
  <time>2026-08-28T17:50:44Z</time>
  <course>0.0</course>
  <speed>0.0</speed>
  <fix>3d</fix>
</trkpt>
<trkpt lat="40.071375" lon="-105.2297889">
  <ele>1583.06</ele>
  <time>2026-08-28T17:50:44Z</time>
  <course>247.09</course>
  <speed>0.022360679774997897</speed>
  <fix>3d</fix>
</trkpt>
<trkpt lat="40.0713749" lon="-105.229789">
  <ele>1583.0</ele>
  <time>2026-08-28T17:50:44Z</time>
  <course>0.0</course>
  <speed>0.0</speed>
  <fix>3d</fix>
</trkpt>
<trkpt lat="40.0713751" lon="-105.2297889">
  <ele>1583.06</ele>
  <time>2026-08-28T17:50:44Z</time>
  <course>247.09</course>
  <speed>0.022360679774997897</speed>
  <fix>3d</fix>
</trkpt>
<trkpt lat="40.0713749" lon="-105.229789">
  <ele>1583.0</ele>
  <time>2026-08-28T17:50:44Z</time>
  <course>0.0</course>
  <speed>0.0</speed>
  <fix>3d</fix>
</trkpt>
<trkpt lat="40.0713751" lon="-105.2297889">
  <ele>1583.06</ele>
  <time>2026-08-28T17:50:44Z</time>
  <course>247.09</course>
  <speed>0.022360679774997897</speed>
  <fix>3d</fix>
</trkpt>
<trkpt lat="40.0713749" lon="-105.229789">
  <ele>1583.0</ele>
  <time>2026-08-28T17:50:44Z</time>
  <course>0.0</course>
  <speed>0.0</speed>
  <fix>3d</fix>
</trkpt>
<trkpt lat="40.0713751" lon="-105.2297889">
  <ele>1583.06</ele>
  <time>2026-08-28T17:50:44Z</time>
  <course>247.09</course>
  <speed>0.022360679774997897</speed>
  <fix>3d</fix>
</trkpt>
<trkpt lat="40.0713749" lon="-105.229789">
  <ele>1583.0</ele>
  <time>2026-08-28T17:50:44Z</time>
  <course>0.0</course>
  <speed>0.0</speed>
  <fix>3d</fix>
</trkpt>
<trkpt lat="40.0713751" lon="-105.2297889">
  <ele>1583.06</ele>
  <time>2026-08-28T17:50:44Z</time>
  <course>247.09</course>
  <speed>0.022360679774997897</speed>
  <fix>3d</fix>
</trkpt>
<trkpt lat="40.0713749" lon="-105.229789">
  <ele>1583.0</ele>
  <time>2026-08-28T17:50:44Z</time>
  <course>0.0</course>
  <speed>0.0</speed>
  <fix>3d</fix>
</trkpt>
<trkpt lat="40.0713751" lon="-105.2297889">
  <ele>1583.06</ele>
  <time>2026-08-28T17:50:44Z</time>
  <course>247.09</course>
  <speed>0.022360679774997897</speed>
  <fix>3d</fix>
</trkpt>
<trkpt lat="40.0713749" lon="-105.229789">
  <ele>1583.0</ele>
  <time>2026-08-28T17:50:44Z</time>
  <course>0.0</course>
  <speed>0.0</speed>
  <fix>3d</fix>
</trkpt>
<trkpt lat="40.0713751" lon="-105.2297889">
  <ele>1583.06</ele>
  <time>2026-08-28T17:50:44Z</time>
  <course>247.09</course>
  <speed>0.022360679774997897</speed>
  <fix>3d</fix>
</trkpt>
<trkpt lat="40.0713749" lon="-105.229789">
  <ele>1583.0</ele>
  <time>2026-08-28T17:50:44Z</time>
  <course>0.0</course>
  <speed>0.0</speed>
  <fix>3d</fix>
</trkpt>
<trkpt lat="40.0713751" lon="-105.2297889">
  <ele>1583.06</ele>
  <time>2026-08-28T17:50:44Z</time>
  <course>247.09</course>
  <speed>0.022360679774997897</speed>
  <fix>3d</fix>
</trkpt>
<trkpt lat="40.0713749" lon="-105.229789">
  <ele>1583.0</ele>
  <time>2026-08-28T17:50:44Z</time>
  <course>0.0</course>
  <speed>0.0</speed>
  <fix>3d</fix>
</trkpt>
<trkpt lat="40.0713751" lon="-105.2297889">
  <ele>1583.06</ele>
  <time>2026-08-28T17:50:44Z</time>
  <course>247.09</course>
  <speed>0.022360679774997897</speed>
  <fix>3d</fix>
</trkpt>
<trkpt lat="40.0713749" lon="-105.229789">
  <ele>1583.0</ele>
  <time>2026-08-28T17:50:44Z</time>
  <course>0.0</course>
  <speed>0.0</speed>
  <fix>3d</fix>
</trkpt>
<trkpt lat="40.0713751" lon="-105.2297889">
  <ele>1583.05</ele>
  <time>2026-08-28T17:50:44Z</time>
  <course>247.09</course>
  <speed>0.022360679774997897</speed>
  <fix>3d</fix>
</trkpt>
<trkpt lat="40.0713749" lon="-105.229789">
  <ele>1583.0</ele>
  <time>2026-08-28T17:50:44Z</time>
  <course>0.0</course>
  <speed>0.0</speed>
  <fix>3d</fix>
</trkpt>
<trkpt lat="40.0713751" lon="-105.2297889">
  <ele>1583.05</ele>
  <time>2026-08-28T17:50:44Z</time>
  <course>247.09</course>
  <speed>0.022360679774997897</speed>
  <fix>3d</fix>
</trkpt>
<trkpt lat="40.0713749" lon="-105.229789">
  <ele>1583.0</ele>
  <time>2026-08-28T17:50:44Z</time>
  <course>0.0</course>
  <speed>0.0</speed>
  <fix>3d</fix>
</trkpt>
<trkpt lat="40.0713751" lon="-105.2297889">
  <ele>1583.04</ele>
  <time>2026-08-28T17:50:44Z</time>
  <course>247.09</course>
  <speed>0.022360679774997897</speed>
  <fix>3d</fix>
</trkpt>
<trkpt lat="40.0713749" lon="-105.229789">
  <ele>1583.0</ele>
  <time>2026-08-28T17:50:44Z</time>
  <course>0.0</course>
  <speed>0.0</speed>
  <fix>3d</fix>
</trkpt>
<trkpt lat="40.071375" lon="-105.2297889">
  <ele>1583.04</ele>
  <time>2026-08-28T17:50:44Z</time>
  <course>247.09</course>
  <speed>0.022360679774997897</speed>
  <fix>3d</fix>
</trkpt>
<trkpt lat="40.0713749" lon="-105.229789">
  <ele>1583.0</ele>
  <time>2026-08-28T17:50:44Z</time>
  <course>0.0</course>
  <speed>0.0</speed>
  <fix>3d</fix>
</trkpt>
<trkpt lat="40.0713751" lon="-105.2297889">
  <ele>1583.03</ele>
  <time>2026-08-28T17:50:44Z</time>
  <course>247.09</course>
  <speed>0.022360679774997897</speed>
  <fix>3d</fix>
</trkpt>
<trkpt lat="40.0713749" lon="-105.229789">
  <ele>1583.0</ele>
  <time>2026-08-28T17:50:44Z</time>
  <course>0.0</course>
  <speed>0.0</speed>
  <fix>3d</fix>
</trkpt>
<trkpt lat="40.071375" lon="-105.2297889">
  <ele>1583.03</ele>
  <time>2026-08-28T17:50:44Z</time>
  <course>247.09</course>
  <speed>0.022360679774997897</speed>
  <fix>3d</fix>
</trkpt>
<trkpt lat="40.0713749" lon="-105.229789">
  <ele>1583.0</ele>
  <time>2026-08-28T17:50:44Z</time>
  <course>0.0</course>
  <speed>0.0</speed>
  <fix>3d</fix>
</trkpt>
<trkpt lat="40.0713751" lon="-105.2297889">
  <ele>1583.03</ele>
  <time>2026-08-28T17:50:44Z</time>
  <course>247.09</course>
  <speed>0.022360679774997897</speed>
  <fix>3d</fix>
</trkpt>
<trkpt lat="40.0713749" lon="-105.229789">
  <ele>1583.0</ele>
  <time>2026-08-28T17:50:44Z</time>
  <course>0.0</course>
  <speed>0.0</speed>
  <fix>3d</fix>
</trkpt>
<trkpt lat="40.071375" lon="-105.2297889">
  <ele>1583.02</ele>
  <time>2026-08-28T17:50:44Z</time>
  <course>247.09</course>
  <speed>0.022360679774997897</speed>
  <fix>3d</fix>
</trkpt>
<trkpt lat="40.0713749" lon="-105.229789">
  <ele>1583.0</ele>
  <time>2026-08-28T17:50:44Z</time>
  <course>0.0</course>
  <speed>0.0</speed>
  <fix>3d</fix>
</trkpt>
<trkpt lat="40.0713751" lon="-105.2297889">
  <ele>1583.02</ele>
  <time>2026-08-28T17:50:44Z</time>
  <course>247.09</course>
  <speed>0.022360679774997897</speed>
  <fix>3d</fix>
</trkpt>
<trkpt lat="40.0713749" lon="-105.229789">
  <ele>1583.0</ele>
  <time>2026-08-28T17:50:44Z</time>
  <course>0.0</course>
  <speed>0.0</speed>
  <fix>3d</fix>
</trkpt>
<trkpt lat="40.0713751" lon="-105.2297889">
  <ele>1583.02</ele>
  <time>2026-08-28T17:50:44Z</time>
  <course>247.09</course>
  <speed>0.022360679774997897</speed>
  <fix>3d</fix>
</trkpt>
<trkpt lat="40.0713749" lon="-105.229789">
  <ele>1583.0</ele>
  <time>2026-08-28T17:50:44Z</time>
  <course>0.0</course>
  <speed>0.0</speed>
  <fix>3d</fix>
</trkpt>
<trkpt lat="40.0713751" lon="-105.2297889">
  <ele>1583.02</ele>
  <time>2026-08-28T17:50:44Z</time>
  <course>247.09</course>
  <speed>0.022360679774997897</speed>
  <fix>3d</fix>
</trkpt>
<trkpt lat="40.0713749" lon="-105.229789">
  <ele>1583.0</ele>
  <time>2026-08-28T17:50:44Z</time>
  <course>0.0</course>
  <speed>0.0</speed>
  <fix>3d</fix>
</trkpt>
<trkpt lat="40.0713751" lon="-105.2297889">
  <ele>1583.02</ele>
  <time>2026-08-28T17:50:44Z</time>
  <course>247.09</course>
  <speed>0.022360679774997897</speed>
  <fix>3d</fix>
</trkpt>
<trkpt lat="40.0713749" lon="-105.229789">
  <ele>1583.0</ele>
  <time>2026-08-28T17:50:44Z</time>
  <course>0.0</course>
  <speed>0.0</speed>
  <fix>3d</fix>
</trkpt>
<trkpt lat="40.0713751" lon="-105.2297889">
  <ele>1583.02</ele>
  <time>2026-08-28T17:50:44Z</time>
  <course>247.09</course>
  <speed>0.022360679774997897</speed>
  <fix>3d</fix>
</trkpt>
<trkpt lat="40.0713749" lon="-105.229789">
  <ele>1583.0</ele>
  <time>2026-08-28T17:50:44Z</time>
  <course>0.0</course>
  <speed>0.0</speed>
  <fix>3d</fix>
</trkpt>
<trkpt lat="40.0713751" lon="-105.2297889">
  <ele>1583.02</ele>
  <time>2026-08-28T17:50:44Z</time>
  <course>247.09</course>
  <speed>0.022360679774997897</speed>
  <fix>3d</fix>
</trkpt>
<trkpt lat="40.0713749" lon="-105.229789">
  <ele>1583.0</ele>
  <time>2026-08-28T17:50:44Z</time>
  <course>0.0</course>
  <speed>0.0</speed>
  <fix>3d</fix>
</trkpt>
<trkpt lat="40.0713751" lon="-105.2297889">
  <ele>1583.01</ele>
  <time>2026-08-28T17:50:44Z</time>
  <course>247.09</course>
  <speed>0.022360679774997897</speed>
  <fix>3d</fix>
</trkpt>
<trkpt lat="40.0713749" lon="-105.229789">
  <ele>1583.0</ele>
  <time>2026-08-28T17:50:44Z</time>
  <course>0.0</course>
  <speed>0.0</speed>
  <fix>3d</fix>
</trkpt>
<trkpt lat="40.0713751" lon="-105.2297889">
  <ele>1583.01</ele>
  <time>2026-08-28T17:50:44Z</time>
  <course>247.09</course>
  <speed>0.022360679774997897</speed>
  <fix>3d</fix>
</trkpt>
<trkpt lat="40.0713749" lon="-105.229789">
  <ele>1583.0</ele>
  <time>2026-08-28T17:50:44Z</time>
  <course>0.0</course>
  <speed>0.0</speed>
  <fix>3d</fix>
</trkpt>
<trkpt lat="40.0713751" lon="-105.2297889">
  <ele>1583.02</ele>
  <time>2026-08-28T17:50:44Z</time>
  <course>247.09</course>
  <speed>0.022360679774997897</speed>
  <fix>3d</fix>
</trkpt>
<trkpt lat="40.0713749" lon="-105.229789">
  <ele>1583.0</ele>
  <time>2026-08-28T17:50:44Z</time>
  <course>0.0</course>
  <speed>0.0</speed>
  <fix>3d</fix>
</trkpt>
<trkpt lat="40.0713751" lon="-105.2297889">
  <ele>1583.02</ele>
  <time>2026-08-28T17:50:44Z</time>
  <course>247.09</course>
  <speed>0.022360679774997897</speed>
  <fix>3d</fix>
</trkpt>
<trkpt lat="40.0713749" lon="-105.229789">
  <ele>1583.0</ele>
  <time>2026-08-28T17:50:44Z</time>
  <course>0.0</course>
  <speed>0.0</speed>
  <fix>3d</fix>
</trkpt>
<trkpt lat="40.0713751" lon="-105.2297889">
  <ele>1583.02</ele>
  <time>2026-08-28T17:50:44Z</time>
  <course>247.09</course>
  <speed>0.022360679774997897</speed>
  <fix>3d</fix>
</trkpt>
<trkpt lat="40.0713749" lon="-105.229789">
  <ele>1583.0</ele>
  <time>2026-08-28T17:50:44Z</time>
  <course>0.0</course>
  <speed>0.0</speed>
  <fix>3d</fix>
</trkpt>
<trkpt lat="40.0713751" lon="-105.2297889">
  <ele>1583.02</ele>
  <time>2026-08-28T17:50:44Z</time>
  <course>247.09</course>
  <speed>0.022360679774997897</speed>
  <fix>3d</fix>
</trkpt>
<trkpt lat="40.0713749" lon="-105.229789">
  <ele>1583.0</ele>
  <time>2026-08-28T17:50:44Z</time>
  <course>0.0</course>
  <speed>0.0</speed>
  <fix>3d</fix>
</trkpt>
<trkpt lat="40.0713751" lon="-105.2297889">
  <ele>1583.01</ele>
  <time>2026-08-28T17:50:44Z</time>
  <course>247.09</course>
  <speed>0.022360679774997897</speed>
  <fix>3d</fix>
</trkpt>
<trkpt lat="40.0713749" lon="-105.229789">
  <ele>1583.0</ele>
  <time>2026-08-28T17:50:44Z</time>
  <course>0.0</course>
  <speed>0.0</speed>
  <fix>3d</fix>
</trkpt>
<trkpt lat="40.0713751" lon="-105.2297889">
  <ele>1583.0</ele>
  <time>2026-08-28T17:50:44Z</time>
  <course>247.09</course>
  <speed>0.022360679774997897</speed>
  <fix>3d</fix>
</trkpt>
<trkpt lat="40.0713749" lon="-105.229789">
  <ele>1583.0</ele>
  <time>2026-08-28T17:50:44Z</time>
  <course>0.0</course>
  <speed>0.0</speed>
  <fix>3d</fix>
</trkpt>
<trkpt lat="40.0713751" lon="-105.2297889">
  <ele>1583.0</ele>
  <time>2026-08-28T17:50:44Z</time>
  <course>247.09</course>
  <speed>0.022360679774997897</speed>
  <fix>3d</fix>
</trkpt>
<trkpt lat="40.0713749" lon="-105.229789">
  <ele>1583.0</ele>
  <time>2026-08-28T17:50:44Z</time>
  <course>0.0</course>
  <speed>0.0</speed>
  <fix>3d</fix>
</trkpt>
<trkpt lat="40.0713751" lon="-105.2297889">
  <ele>1582.99</ele>
  <time>2026-08-28T17:50:44Z</time>
  <course>247.09</course>
  <speed>0.022360679774997897</speed>
  <fix>3d</fix>
</trkpt>
<trkpt lat="40.0713749" lon="-105.229789">
  <ele>1583.0</ele>
  <time>2026-08-28T17:50:44Z</time>
  <course>0.0</course>
  <speed>0.0</speed>
  <fix>3d</fix>
</trkpt>
<trkpt lat="40.0713751" lon="-105.2297889">
  <ele>1582.98</ele>
  <time>2026-08-28T17:50:44Z</time>
  <course>247.09</course>
  <speed>0.022360679774997897</speed>
  <fix>3d</fix>
</trkpt>
<trkpt lat="40.0713749" lon="-105.229789">
  <ele>1583.0</ele>
  <time>2026-08-28T17:50:44Z</time>
  <course>0.0</course>
  <speed>0.0</speed>
  <fix>3d</fix>
</trkpt>
<trkpt lat="40.0713751" lon="-105.2297889">
  <ele>1582.97</ele>
  <time>2026-08-28T17:50:44Z</time>
  <course>247.09</course>
  <speed>0.022360679774997897</speed>
  <fix>3d</fix>
</trkpt>
<trkpt lat="40.0713749" lon="-105.229789">
  <ele>1583.0</ele>
  <time>2026-08-28T17:50:44Z</time>
  <course>0.0</course>
  <speed>0.0</speed>
  <fix>3d</fix>
</trkpt>
<trkpt lat="40.0713751" lon="-105.2297889">
  <ele>1582.96</ele>
  <time>2026-08-28T17:50:44Z</time>
  <course>247.09</course>
  <speed>0.022360679774997897</speed>
  <fix>3d</fix>
</trkpt>
<trkpt lat="40.0713749" lon="-105.229789">
  <ele>1583.0</ele>
  <time>2026-08-28T17:50:44Z</time>
  <course>0.0</course>
  <speed>0.0</speed>
  <fix>3d</fix>
</trkpt>
<trkpt lat="40.0713751" lon="-105.2297889">
  <ele>1582.95</ele>
  <time>2026-08-28T17:50:44Z</time>
  <course>247.09</course>
  <speed>0.022360679774997897</speed>
  <fix>3d</fix>
</trkpt>
<trkpt lat="40.0713749" lon="-105.229789">
  <ele>1583.0</ele>
  <time>2026-08-28T17:50:44Z</time>
  <course>0.0</course>
  <speed>0.0</speed>
  <fix>3d</fix>
</trkpt>
<trkpt lat="40.0713751" lon="-105.2297889">
  <ele>1582.94</ele>
  <time>2026-08-28T17:50:44Z</time>
  <course>247.09</course>
  <speed>0.022360679774997897</speed>
  <fix>3d</fix>
</trkpt>
<trkpt lat="40.0713749" lon="-105.229789">
  <ele>1583.0</ele>
  <time>2026-08-28T17:50:44Z</time>
  <course>0.0</course>
  <speed>0.0</speed>
  <fix>3d</fix>
</trkpt>
<trkpt lat="40.0713751" lon="-105.2297889">
  <ele>1582.94</ele>
  <time>2026-08-28T17:50:44Z</time>
  <course>247.09</course>
  <speed>0.022360679774997897</speed>
  <fix>3d</fix>
</trkpt>
<trkpt lat="40.0713749" lon="-105.229789">
  <ele>1583.0</ele>
  <time>2026-08-28T17:50:44Z</time>
  <course>0.0</course>
  <speed>0.0</speed>
  <fix>3d</fix>
</trkpt>
<trkpt lat="40.0713751" lon="-105.2297889">
  <ele>1582.94</ele>
  <time>2026-08-28T17:50:44Z</time>
  <course>247.09</course>
  <speed>0.022360679774997897</speed>
  <fix>3d</fix>
</trkpt>
<trkpt lat="40.0713749" lon="-105.229789">
  <ele>1583.0</ele>
  <time>2026-08-28T17:50:44Z</time>
  <course>0.0</course>
  <speed>0.0</speed>
  <fix>3d</fix>
</trkpt>
<trkpt lat="40.0713751" lon="-105.2297889">
  <ele>1582.94</ele>
  <time>2026-08-28T17:50:44Z</time>
  <course>247.09</course>
  <speed>0.022360679774997897</speed>
  <fix>3d</fix>
</trkpt>
<trkpt lat="40.0713749" lon="-105.229789">
  <ele>1583.0</ele>
  <time>2026-08-28T17:50:44Z</time>
  <course>0.0</course>
  <speed>0.0</speed>
  <fix>3d</fix>
</trkpt>
<trkpt lat="40.0713751" lon="-105.2297889">
  <ele>1582.94</ele>
  <time>2026-08-28T17:50:44Z</time>
  <course>247.09</course>
  <speed>0.022360679774997897</speed>
  <fix>3d</fix>
</trkpt>
<trkpt lat="40.0713749" lon="-105.229789">
  <ele>1583.0</ele>
  <time>2026-08-28T17:50:44Z</time>
  <course>0.0</course>
  <speed>0.0</speed>
  <fix>3d</fix>
</trkpt>
<trkpt lat="40.0713751" lon="-105.2297889">
  <ele>1582.94</ele>
  <time>2026-08-28T17:50:44Z</time>
  <course>247.09</course>
  <speed>0.022360679774997897</speed>
  <fix>3d</fix>
</trkpt>
<trkpt lat="40.0713749" lon="-105.229789">
  <ele>1583.0</ele>
  <time>2026-08-28T17:50:44Z</time>
  <course>0.0</course>
  <speed>0.0</speed>
  <fix>3d</fix>
</trkpt>
<trkpt lat="40.0713751" lon="-105.2297889">
  <ele>1582.95</ele>
  <time>2026-08-28T17:50:44Z</time>
  <course>247.09</course>
  <speed>0.022360679774997897</speed>
  <fix>3d</fix>
</trkpt>
<trkpt lat="40.0713749" lon="-105.229789">
  <ele>1583.0</ele>
  <time>2026-08-28T17:50:44Z</time>
  <course>0.0</course>
  <speed>0.0</speed>
  <fix>3d</fix>
</trkpt>
<trkpt lat="40.0713751" lon="-105.2297889">
  <ele>1582.95</ele>
  <time>2026-08-28T17:50:44Z</time>
  <course>247.09</course>
  <speed>0.022360679774997897</speed>
  <fix>3d</fix>
</trkpt>
<trkpt lat="40.0713749" lon="-105.229789">
  <ele>1583.0</ele>
  <time>2026-08-28T17:50:44Z</time>
  <course>0.0</course>
  <speed>0.0</speed>
  <fix>3d</fix>
</trkpt>
<trkpt lat="40.0713751" lon="-105.2297889">
  <ele>1582.96</ele>
  <time>2026-08-28T17:50:44Z</time>
  <course>247.09</course>
  <speed>0.022360679774997897</speed>
  <fix>3d</fix>
</trkpt>
<trkpt lat="40.0713749" lon="-105.229789">
  <ele>1583.0</ele>
  <time>2026-08-28T17:50:44Z</time>
  <course>0.0</course>
  <speed>0.0</speed>
  <fix>3d</fix>
</trkpt>
<trkpt lat="40.0713751" lon="-105.2297889">
  <ele>1582.97</ele>
  <time>2026-08-28T17:50:44Z</time>
  <course>247.09</course>
  <speed>0.022360679774997897</speed>
  <fix>3d</fix>
</trkpt>
<trkpt lat="40.0713749" lon="-105.229789">
  <ele>1583.0</ele>
  <time>2026-08-28T17:50:44Z</time>
  <course>0.0</course>
  <speed>0.0</speed>
  <fix>3d</fix>
</trkpt>
<trkpt lat="40.0713751" lon="-105.2297889">
  <ele>1582.97</ele>
  <time>2026-08-28T17:50:44Z</time>
  <course>247.09</course>
  <speed>0.022360679774997897</speed>
  <fix>3d</fix>
</trkpt>
<trkpt lat="40.0713749" lon="-105.229789">
  <ele>1583.0</ele>
  <time>2026-08-28T17:50:44Z</time>
  <course>0.0</course>
  <speed>0.0</speed>
  <fix>3d</fix>
</trkpt>
<trkpt lat="40.0713751" lon="-105.2297889">
  <ele>1582.98</ele>
  <time>2026-08-28T17:50:44Z</time>
  <course>247.09</course>
  <speed>0.022360679774997897</speed>
  <fix>3d</fix>
</trkpt>
<trkpt lat="40.0713749" lon="-105.229789">
  <ele>1583.0</ele>
  <time>2026-08-28T17:50:44Z</time>
  <course>0.0</course>
  <speed>0.0</speed>
  <fix>3d</fix>
</trkpt>
<trkpt lat="40.0713751" lon="-105.2297889">
  <ele>1582.97</ele>
  <time>2026-08-28T17:50:44Z</time>
  <course>247.09</course>
  <speed>0.022360679774997897</speed>
  <fix>3d</fix>
</trkpt>
<trkpt lat="40.0713749" lon="-105.229789">
  <ele>1583.0</ele>
  <time>2026-08-28T17:50:44Z</time>
  <course>0.0</course>
  <speed>0.0</speed>
  <fix>3d</fix>
</trkpt>
<trkpt lat="40.0713751" lon="-105.2297889">
  <ele>1582.97</ele>
  <time>2026-08-28T17:50:44Z</time>
  <course>247.09</course>
  <speed>0.022360679774997897</speed>
  <fix>3d</fix>
</trkpt>
<trkpt lat="40.0713749" lon="-105.229789">
  <ele>1583.0</ele>
  <time>2026-08-28T17:50:44Z</time>
  <course>0.0</course>
  <speed>0.0</speed>
  <fix>3d</fix>
</trkpt>
<trkpt lat="40.0713751" lon="-105.2297889">
  <ele>1582.97</ele>
  <time>2026-08-28T17:50:44Z</time>
  <course>247.09</course>
  <speed>0.022360679774997897</speed>
  <fix>3d</fix>
</trkpt>
<trkpt lat="40.0713749" lon="-105.229789">
  <ele>1583.0</ele>
  <time>2026-08-28T17:50:44Z</time>
  <course>0.0</course>
  <speed>0.0</speed>
  <fix>3d</fix>
</trkpt>
<trkpt lat="40.0713751" lon="-105.2297889">
  <ele>1582.96</ele>
  <time>2026-08-28T17:50:44Z</time>
  <course>247.09</course>
  <speed>0.022360679774997897</speed>
  <fix>3d</fix>
</trkpt>
<trkpt lat="40.0713749" lon="-105.229789">
  <ele>1583.0</ele>
  <time>2026-08-28T17:50:44Z</time>
  <course>0.0</course>
  <speed>0.0</speed>
  <fix>3d</fix>
</trkpt>
<trkpt lat="40.0713751" lon="-105.2297889">
  <ele>1582.95</ele>
  <time>2026-08-28T17:50:44Z</time>
  <course>247.09</course>
  <speed>0.022360679774997897</speed>
  <fix>3d</fix>
</trkpt>
<trkpt lat="40.0713749" lon="-105.229789">
  <ele>1583.0</ele>
  <time>2026-08-28T17:50:44Z</time>
  <course>0.0</course>
  <speed>0.0</speed>
  <fix>3d</fix>
</trkpt>
<trkpt lat="40.0713751" lon="-105.2297889">
  <ele>1582.95</ele>
  <time>2026-08-28T17:50:44Z</time>
  <course>247.09</course>
  <speed>0.022360679774997897</speed>
  <fix>3d</fix>
</trkpt>
<trkpt lat="40.0713749" lon="-105.229789">
  <ele>1583.0</ele>
  <time>2026-08-28T17:50:44Z</time>
  <course>0.0</course>
  <speed>0.0</speed>
  <fix>3d</fix>
</trkpt>
<trkpt lat="40.0713751" lon="-105.2297889">
  <ele>1582.94</ele>
  <time>2026-08-28T17:50:44Z</time>
  <course>247.09</course>
  <speed>0.022360679774997897</speed>
  <fix>3d</fix>
</trkpt>
<trkpt lat="40.0713749" lon="-105.229789">
  <ele>1583.0</ele>
  <time>2026-08-28T17:50:44Z</time>
  <course>0.0</course>
  <speed>0.0</speed>
  <fix>3d</fix>
</trkpt>
<trkpt lat="40.071375" lon="-105.2297889">
  <ele>1582.93</ele>
  <time>2026-08-28T17:50:44Z</time>
  <course>247.09</course>
  <speed>0.02</speed>
  <fix>3d</fix>
</trkpt>
<trkpt lat="40.0713749" lon="-105.229789">
  <ele>1583.0</ele>
  <time>2026-08-28T17:50:44Z</time>
  <course>0.0</course>
  <speed>0.0</speed>
  <fix>3d</fix>
</trkpt>
<trkpt lat="40.0713751" lon="-105.2297889">
  <ele>1582.93</ele>
  <time>2026-08-28T17:50:44Z</time>
  <course>247.08</course>
  <speed>0.022360679774997897</speed>
  <fix>3d</fix>
</trkpt>
<trkpt lat="40.0713749" lon="-105.229789">
  <ele>1583.0</ele>
  <time>2026-08-28T17:50:44Z</time>
  <course>0.0</course>
  <speed>0.0</speed>
  <fix>3d</fix>
</trkpt>
<trkpt lat="40.071375" lon="-105.2297889">
  <ele>1582.92</ele>
  <time>2026-08-28T17:50:44Z</time>
  <course>247.08</course>
  <speed>0.02</speed>
  <fix>3d</fix>
</trkpt>
<trkpt lat="40.0713749" lon="-105.229789">
  <ele>1583.0</ele>
  <time>2026-08-28T17:50:44Z</time>
  <course>0.0</course>
  <speed>0.0</speed>
  <fix>3d</fix>
</trkpt>
<trkpt lat="40.0713751" lon="-105.2297889">
  <ele>1582.92</ele>
  <time>2026-08-28T17:50:44Z</time>
  <course>247.08</course>
  <speed>0.022360679774997897</speed>
  <fix>3d</fix>
</trkpt>
<trkpt lat="40.0713749" lon="-105.229789">
  <ele>1583.0</ele>
  <time>2026-08-28T17:50:44Z</time>
  <course>0.0</course>
  <speed>0.0</speed>
  <fix>3d</fix>
</trkpt>
<trkpt lat="40.071375" lon="-105.2297889">
  <ele>1582.91</ele>
  <time>2026-08-28T17:50:44Z</time>
  <course>247.08</course>
  <speed>0.02</speed>
  <fix>3d</fix>
</trkpt>
<trkpt lat="40.0713749" lon="-105.229789">
  <ele>1583.0</ele>
  <time>2026-08-28T17:50:44Z</time>
  <course>0.0</course>
  <speed>0.0</speed>
  <fix>3d</fix>
</trkpt>
<trkpt lat="40.0713751" lon="-105.2297889">
  <ele>1582.91</ele>
  <time>2026-08-28T17:50:44Z</time>
  <course>247.08</course>
  <speed>0.022360679774997897</speed>
  <fix>3d</fix>
</trkpt>
<trkpt lat="40.0713749" lon="-105.229789">
  <ele>1583.0</ele>
  <time>2026-08-28T17:50:44Z</time>
  <course>0.0</course>
  <speed>0.0</speed>
  <fix>3d</fix>
</trkpt>
<trkpt lat="40.0713751" lon="-105.2297889">
  <ele>1582.91</ele>
  <time>2026-08-28T17:50:44Z</time>
  <course>247.08</course>
  <speed>0.022360679774997897</speed>
  <fix>3d</fix>
</trkpt>
<trkpt lat="40.0713749" lon="-105.229789">
  <ele>1583.0</ele>
  <time>2026-08-28T17:50:44Z</time>
  <course>0.0</course>
  <speed>0.0</speed>
  <fix>3d</fix>
</trkpt>
<trkpt lat="40.0713751" lon="-105.2297889">
  <ele>1582.91</ele>
  <time>2026-08-28T17:50:44Z</time>
  <course>247.08</course>
  <speed>0.022360679774997897</speed>
  <fix>3d</fix>
</trkpt>
<trkpt lat="40.0713749" lon="-105.229789">
  <ele>1583.0</ele>
  <time>2026-08-28T17:50:44Z</time>
  <course>0.0</course>
  <speed>0.0</speed>
  <fix>3d</fix>
</trkpt>
<trkpt lat="40.0713751" lon="-105.2297889">
  <ele>1582.9</ele>
  <time>2026-08-28T17:50:44Z</time>
  <course>247.08</course>
  <speed>0.022360679774997897</speed>
  <fix>3d</fix>
</trkpt>
<trkpt lat="40.0713749" lon="-105.229789">
  <ele>1583.0</ele>
  <time>2026-08-28T17:50:44Z</time>
  <course>0.0</course>
  <speed>0.0</speed>
  <fix>3d</fix>
</trkpt>
<trkpt lat="40.0713751" lon="-105.2297889">
  <ele>1582.9</ele>
  <time>2026-08-28T17:50:44Z</time>
  <course>247.08</course>
  <speed>0.022360679774997897</speed>
  <fix>3d</fix>
</trkpt>
<trkpt lat="40.0713749" lon="-105.229789">
  <ele>1583.0</ele>
  <time>2026-08-28T17:50:44Z</time>
  <course>0.0</course>
  <speed>0.0</speed>
  <fix>3d</fix>
</trkpt>
<trkpt lat="40.0713751" lon="-105.2297889">
  <ele>1582.89</ele>
  <time>2026-08-28T17:50:44Z</time>
  <course>247.08</course>
  <speed>0.022360679774997897</speed>
  <fix>3d</fix>
</trkpt>
<trkpt lat="40.0713749" lon="-105.229789">
  <ele>1583.0</ele>
  <time>2026-08-28T17:50:44Z</time>
  <course>0.0</course>
  <speed>0.0</speed>
  <fix>3d</fix>
</trkpt>
<trkpt lat="40.0713751" lon="-105.2297889">
  <ele>1582.89</ele>
  <time>2026-08-28T17:50:44Z</time>
  <course>247.08</course>
  <speed>0.022360679774997897</speed>
  <fix>3d</fix>
</trkpt>
<trkpt lat="40.0713749" lon="-105.229789">
  <ele>1583.0</ele>
  <time>2026-08-28T17:50:44Z</time>
  <course>0.0</course>
  <speed>0.0</speed>
  <fix>3d</fix>
</trkpt>
<trkpt lat="40.0713751" lon="-105.2297889">
  <ele>1582.89</ele>
  <time>2026-08-28T17:50:44Z</time>
  <course>247.08</course>
  <speed>0.022360679774997897</speed>
  <fix>3d</fix>
</trkpt>
<trkpt lat="40.0713749" lon="-105.229789">
  <ele>1583.0</ele>
  <time>2026-08-28T17:50:44Z</time>
  <course>0.0</course>
  <speed>0.0</speed>
  <fix>3d</fix>
</trkpt>
<trkpt lat="40.0713751" lon="-105.2297889">
  <ele>1582.9</ele>
  <time>2026-08-28T17:50:44Z</time>
  <course>247.08</course>
  <speed>0.022360679774997897</speed>
  <fix>3d</fix>
</trkpt>
<trkpt lat="40.0713749" lon="-105.229789">
  <ele>1583.0</ele>
  <time>2026-08-28T17:50:44Z</time>
  <course>0.0</course>
  <speed>0.0</speed>
  <fix>3d</fix>
</trkpt>
<trkpt lat="40.0713751" lon="-105.2297889">
  <ele>1582.9</ele>
  <time>2026-08-28T17:50:44Z</time>
  <course>247.08</course>
  <speed>0.022360679774997897</speed>
  <fix>3d</fix>
</trkpt>
<trkpt lat="40.0713749" lon="-105.229789">
  <ele>1583.0</ele>
  <time>2026-08-28T17:50:44Z</time>
  <course>0.0</course>
  <speed>0.0</speed>
  <fix>3d</fix>
</trkpt>
<trkpt lat="40.0713751" lon="-105.2297889">
  <ele>1582.9</ele>
  <time>2026-08-28T17:50:44Z</time>
  <course>247.08</course>
  <speed>0.022360679774997897</speed>
  <fix>3d</fix>
</trkpt>
<trkpt lat="40.0713749" lon="-105.229789">
  <ele>1583.0</ele>
  <time>2026-08-28T17:50:44Z</time>
  <course>0.0</course>
  <speed>0.0</speed>
  <fix>3d</fix>
</trkpt>
<trkpt lat="40.0713751" lon="-105.2297889">
  <ele>1582.9</ele>
  <time>2026-08-28T17:50:44Z</time>
  <course>247.08</course>
  <speed>0.022360679774997897</speed>
  <fix>3d</fix>
</trkpt>
<trkpt lat="40.0713749" lon="-105.229789">
  <ele>1583.0</ele>
  <time>2026-08-28T17:50:44Z</time>
  <course>0.0</course>
  <speed>0.0</speed>
  <fix>3d</fix>
</trkpt>
<trkpt lat="40.0713751" lon="-105.2297889">
  <ele>1582.91</ele>
  <time>2026-08-28T17:50:44Z</time>
  <course>247.08</course>
  <speed>0.022360679774997897</speed>
  <fix>3d</fix>
</trkpt>
<trkpt lat="40.0713749" lon="-105.229789">
  <ele>1583.0</ele>
  <time>2026-08-28T17:50:44Z</time>
  <course>0.0</course>
  <speed>0.0</speed>
  <fix>3d</fix>
</trkpt>
<trkpt lat="40.071375" lon="-105.2297889">
  <ele>1582.91</ele>
  <time>2026-08-28T17:50:44Z</time>
  <course>247.08</course>
  <speed>0.022360679774997897</speed>
  <fix>3d</fix>
</trkpt>
<trkpt lat="40.0713749" lon="-105.229789">
  <ele>1583.0</ele>
  <time>2026-08-28T17:50:44Z</time>
  <course>0.0</course>
  <speed>0.0</speed>
  <fix>3d</fix>
</trkpt>
<trkpt lat="40.0713751" lon="-105.2297889">
  <ele>1582.91</ele>
  <time>2026-08-28T17:50:44Z</time>
  <course>247.08</course>
  <speed>0.022360679774997897</speed>
  <fix>3d</fix>
</trkpt>
<trkpt lat="40.0713749" lon="-105.229789">
  <ele>1583.0</ele>
  <time>2026-08-28T17:50:44Z</time>
  <course>0.0</course>
  <speed>0.0</speed>
  <fix>3d</fix>
</trkpt>
<trkpt lat="40.071375" lon="-105.2297889">
  <ele>1582.91</ele>
  <time>2026-08-28T17:50:44Z</time>
  <course>247.08</course>
  <speed>0.022360679774997897</speed>
  <fix>3d</fix>
</trkpt>
<trkpt lat="40.0713749" lon="-105.229789">
  <ele>1583.0</ele>
  <time>2026-08-28T17:50:44Z</time>
  <course>0.0</course>
  <speed>0.0</speed>
  <fix>3d</fix>
</trkpt>
<trkpt lat="40.0713751" lon="-105.2297889">
  <ele>1582.92</ele>
  <time>2026-08-28T17:50:44Z</time>
  <course>247.08</course>
  <speed>0.022360679774997897</speed>
  <fix>3d</fix>
</trkpt>
<trkpt lat="40.0713749" lon="-105.229789">
  <ele>1583.0</ele>
  <time>2026-08-28T17:50:44Z</time>
  <course>0.0</course>
  <speed>0.0</speed>
  <fix>3d</fix>
</trkpt>
<trkpt lat="40.071375" lon="-105.2297889">
  <ele>1582.92</ele>
  <time>2026-08-28T17:50:44Z</time>
  <course>247.08</course>
  <speed>0.022360679774997897</speed>
  <fix>3d</fix>
</trkpt>
<trkpt lat="40.0713749" lon="-105.229789">
  <ele>1583.0</ele>
  <time>2026-08-28T17:50:44Z</time>
  <course>0.0</course>
  <speed>0.0</speed>
  <fix>3d</fix>
</trkpt>
<trkpt lat="40.0713751" lon="-105.2297889">
  <ele>1582.93</ele>
  <time>2026-08-28T17:50:44Z</time>
  <course>247.08</course>
  <speed>0.022360679774997897</speed>
  <fix>3d</fix>
</trkpt>
<trkpt lat="40.0713749" lon="-105.229789">
  <ele>1583.0</ele>
  <time>2026-08-28T17:50:44Z</time>
  <course>0.0</course>
  <speed>0.0</speed>
  <fix>3d</fix>
</trkpt>
<trkpt lat="40.071375" lon="-105.2297889">
  <ele>1582.93</ele>
  <time>2026-08-28T17:50:44Z</time>
  <course>247.08</course>
  <speed>0.022360679774997897</speed>
  <fix>3d</fix>
</trkpt>
<trkpt lat="40.0713749" lon="-105.229789">
  <ele>1583.0</ele>
  <time>2026-08-28T17:50:44Z</time>
  <course>0.0</course>
  <speed>0.0</speed>
  <fix>3d</fix>
</trkpt>
<trkpt lat="40.0713751" lon="-105.2297889">
  <ele>1582.94</ele>
  <time>2026-08-28T17:50:44Z</time>
  <course>247.08</course>
  <speed>0.022360679774997897</speed>
  <fix>3d</fix>
</trkpt>
<trkpt lat="40.0713749" lon="-105.229789">
  <ele>1583.0</ele>
  <time>2026-08-28T17:50:44Z</time>
  <course>0.0</course>
  <speed>0.0</speed>
  <fix>3d</fix>
</trkpt>
<trkpt lat="40.071375" lon="-105.2297889">
  <ele>1582.95</ele>
  <time>2026-08-28T17:50:44Z</time>
  <course>247.08</course>
  <speed>0.022360679774997897</speed>
  <fix>3d</fix>
</trkpt>
<trkpt lat="40.0713749" lon="-105.229789">
  <ele>1583.0</ele>
  <time>2026-08-28T17:50:44Z</time>
  <course>0.0</course>
  <speed>0.0</speed>
  <fix>3d</fix>
</trkpt>
<trkpt lat="40.0713751" lon="-105.2297889">
  <ele>1582.95</ele>
  <time>2026-08-28T17:50:44Z</time>
  <course>247.08</course>
  <speed>0.022360679774997897</speed>
  <fix>3d</fix>
</trkpt>
<trkpt lat="40.0713749" lon="-105.229789">
  <ele>1583.0</ele>
  <time>2026-08-28T17:50:44Z</time>
  <course>0.0</course>
  <speed>0.0</speed>
  <fix>3d</fix>
</trkpt>
<trkpt lat="40.071375" lon="-105.2297889">
  <ele>1582.96</ele>
  <time>2026-08-28T17:50:44Z</time>
  <course>247.08</course>
  <speed>0.022360679774997897</speed>
  <fix>3d</fix>
</trkpt>
<trkpt lat="40.0713749" lon="-105.229789">
  <ele>1583.0</ele>
  <time>2026-08-28T17:50:44Z</time>
  <course>0.0</course>
  <speed>0.0</speed>
  <fix>3d</fix>
</trkpt>
<trkpt lat="40.0713751" lon="-105.2297889">
  <ele>1582.96</ele>
  <time>2026-08-28T17:50:44Z</time>
  <course>247.08</course>
  <speed>0.022360679774997897</speed>
  <fix>3d</fix>
</trkpt>
<trkpt lat="40.0713749" lon="-105.229789">
  <ele>1583.0</ele>
  <time>2026-08-28T17:50:44Z</time>
  <course>0.0</course>
  <speed>0.0</speed>
  <fix>3d</fix>
</trkpt>
<trkpt lat="40.0713751" lon="-105.2297889">
  <ele>1582.96</ele>
  <time>2026-08-28T17:50:44Z</time>
  <course>247.08</course>
  <speed>0.022360679774997897</speed>
  <fix>3d</fix>
</trkpt>
<trkpt lat="40.0713749" lon="-105.229789">
  <ele>1583.0</ele>
  <time>2026-08-28T17:50:44Z</time>
  <course>0.0</course>
  <speed>0.0</speed>
  <fix>3d</fix>
</trkpt>
<trkpt lat="40.0713751" lon="-105.2297889">
  <ele>1582.97</ele>
  <time>2026-08-28T17:50:44Z</time>
  <course>247.08</course>
  <speed>0.022360679774997897</speed>
  <fix>3d</fix>
</trkpt>
<trkpt lat="40.0713749" lon="-105.229789">
  <ele>1583.0</ele>
  <time>2026-08-28T17:50:44Z</time>
  <course>0.0</course>
  <speed>0.0</speed>
  <fix>3d</fix>
</trkpt>
<trkpt lat="40.0713751" lon="-105.2297889">
  <ele>1582.97</ele>
  <time>2026-08-28T17:50:44Z</time>
  <course>247.08</course>
  <speed>0.022360679774997897</speed>
  <fix>3d</fix>
</trkpt>
<trkpt lat="40.0713749" lon="-105.229789">
  <ele>1583.0</ele>
  <time>2026-08-28T17:50:44Z</time>
  <course>0.0</course>
  <speed>0.0</speed>
  <fix>3d</fix>
</trkpt>
<trkpt lat="40.0713751" lon="-105.2297889">
  <ele>1582.98</ele>
  <time>2026-08-28T17:50:44Z</time>
  <course>247.08</course>
  <speed>0.022360679774997897</speed>
  <fix>3d</fix>
</trkpt>
<trkpt lat="40.0713749" lon="-105.229789">
  <ele>1583.0</ele>
  <time>2026-08-28T17:50:44Z</time>
  <course>0.0</course>
  <speed>0.0</speed>
  <fix>3d</fix>
</trkpt>
<trkpt lat="40.0713751" lon="-105.2297889">
  <ele>1582.98</ele>
  <time>2026-08-28T17:50:44Z</time>
  <course>247.08</course>
  <speed>0.022360679774997897</speed>
  <fix>3d</fix>
</trkpt>
<trkpt lat="40.0713749" lon="-105.229789">
  <ele>1583.0</ele>
  <time>2026-08-28T17:50:44Z</time>
  <course>0.0</course>
  <speed>0.0</speed>
  <fix>3d</fix>
</trkpt>
<trkpt lat="40.0713751" lon="-105.2297889">
  <ele>1582.97</ele>
  <time>2026-08-28T17:50:44Z</time>
  <course>247.08</course>
  <speed>0.022360679774997897</speed>
  <fix>3d</fix>
</trkpt>
<trkpt lat="40.0713749" lon="-105.229789">
  <ele>1583.0</ele>
  <time>2026-08-28T17:50:44Z</time>
  <course>0.0</course>
  <speed>0.0</speed>
  <fix>3d</fix>
</trkpt>
<trkpt lat="40.0713751" lon="-105.2297889">
  <ele>1582.97</ele>
  <time>2026-08-28T17:50:44Z</time>
  <course>247.08</course>
  <speed>0.022360679774997897</speed>
  <fix>3d</fix>
</trkpt>
<trkpt lat="40.0713749" lon="-105.229789">
  <ele>1583.0</ele>
  <time>2026-08-28T17:50:44Z</time>
  <course>0.0</course>
  <speed>0.0</speed>
  <fix>3d</fix>
</trkpt>
<trkpt lat="40.0713751" lon="-105.2297889">
  <ele>1582.97</ele>
  <time>2026-08-28T17:50:44Z</time>
  <course>247.08</course>
  <speed>0.022360679774997897</speed>
  <fix>3d</fix>
</trkpt>
<trkpt lat="40.0713749" lon="-105.229789">
  <ele>1583.0</ele>
  <time>2026-08-28T17:50:44Z</time>
  <course>0.0</course>
  <speed>0.0</speed>
  <fix>3d</fix>
</trkpt>
<trkpt lat="40.071375" lon="-105.2297889">
  <ele>1582.97</ele>
  <time>2026-08-28T17:50:44Z</time>
  <course>247.08</course>
  <speed>0.022360679774997897</speed>
  <fix>3d</fix>
</trkpt>
<trkpt lat="40.0713749" lon="-105.229789">
  <ele>1583.0</ele>
  <time>2026-08-28T17:50:44Z</time>
  <course>0.0</course>
  <speed>0.0</speed>
  <fix>3d</fix>
</trkpt>
<trkpt lat="40.0713751" lon="-105.2297889">
  <ele>1582.96</ele>
  <time>2026-08-28T17:50:44Z</time>
  <course>247.08</course>
  <speed>0.022360679774997897</speed>
  <fix>3d</fix>
</trkpt>
<trkpt lat="40.0713749" lon="-105.229789">
  <ele>1583.0</ele>
  <time>2026-08-28T17:50:44Z</time>
  <course>0.0</course>
  <speed>0.0</speed>
  <fix>3d</fix>
</trkpt>
<trkpt lat="40.071375" lon="-105.2297889">
  <ele>1582.96</ele>
  <time>2026-08-28T17:50:44Z</time>
  <course>247.08</course>
  <speed>0.022360679774997897</speed>
  <fix>3d</fix>
</trkpt>
<trkpt lat="40.0713749" lon="-105.229789">
  <ele>1583.0</ele>
  <time>2026-08-28T17:50:44Z</time>
  <course>0.0</course>
  <speed>0.0</speed>
  <fix>3d</fix>
</trkpt>
<trkpt lat="40.0713751" lon="-105.2297889">
  <ele>1582.95</ele>
  <time>2026-08-28T17:50:44Z</time>
  <course>247.08</course>
  <speed>0.022360679774997897</speed>
  <fix>3d</fix>
</trkpt>
<trkpt lat="40.0713749" lon="-105.229789">
  <ele>1583.0</ele>
  <time>2026-08-28T17:50:44Z</time>
  <course>0.0</course>
  <speed>0.0</speed>
  <fix>3d</fix>
</trkpt>
<trkpt lat="40.071375" lon="-105.2297889">
  <ele>1582.95</ele>
  <time>2026-08-28T17:50:44Z</time>
  <course>247.08</course>
  <speed>0.022360679774997897</speed>
  <fix>3d</fix>
</trkpt>
<trkpt lat="40.0713749" lon="-105.229789">
  <ele>1583.0</ele>
  <time>2026-08-28T17:50:44Z</time>
  <course>0.0</course>
  <speed>0.0</speed>
  <fix>3d</fix>
</trkpt>
<trkpt lat="40.0713751" lon="-105.2297889">
  <ele>1582.94</ele>
  <time>2026-08-28T17:50:44Z</time>
  <course>247.08</course>
  <speed>0.022360679774997897</speed>
  <fix>3d</fix>
</trkpt>
<trkpt lat="40.0713749" lon="-105.229789">
  <ele>1583.0</ele>
  <time>2026-08-28T17:50:44Z</time>
  <course>0.0</course>
  <speed>0.0</speed>
  <fix>3d</fix>
</trkpt>
<trkpt lat="40.071375" lon="-105.2297889">
  <ele>1582.94</ele>
  <time>2026-08-28T17:50:44Z</time>
  <course>247.08</course>
  <speed>0.022360679774997897</speed>
  <fix>3d</fix>
</trkpt>
<trkpt lat="40.0713749" lon="-105.229789">
  <ele>1583.0</ele>
  <time>2026-08-28T17:50:44Z</time>
  <course>0.0</course>
  <speed>0.0</speed>
  <fix>3d</fix>
</trkpt>
<trkpt lat="40.0713751" lon="-105.2297889">
  <ele>1582.95</ele>
  <time>2026-08-28T17:50:44Z</time>
  <course>247.08</course>
  <speed>0.022360679774997897</speed>
  <fix>3d</fix>
</trkpt>
<trkpt lat="40.0713749" lon="-105.229789">
  <ele>1583.0</ele>
  <time>2026-08-28T17:50:44Z</time>
  <course>0.0</course>
  <speed>0.0</speed>
  <fix>3d</fix>
</trkpt>
<trkpt lat="40.071375" lon="-105.2297889">
  <ele>1582.95</ele>
  <time>2026-08-28T17:50:44Z</time>
  <course>247.08</course>
  <speed>0.022360679774997897</speed>
  <fix>3d</fix>
</trkpt>
<trkpt lat="40.0713749" lon="-105.229789">
  <ele>1583.0</ele>
  <time>2026-08-28T17:50:44Z</time>
  <course>0.0</course>
  <speed>0.0</speed>
  <fix>3d</fix>
</trkpt>
<trkpt lat="40.0713751" lon="-105.2297889">
  <ele>1582.95</ele>
  <time>2026-08-28T17:50:44Z</time>
  <course>247.08</course>
  <speed>0.022360679774997897</speed>
  <fix>3d</fix>
</trkpt>
<trkpt lat="40.0713749" lon="-105.229789">
  <ele>1583.0</ele>
  <time>2026-08-28T17:50:44Z</time>
  <course>0.0</course>
  <speed>0.0</speed>
  <fix>3d</fix>
</trkpt>
<trkpt lat="40.071375" lon="-105.2297889">
  <ele>1582.96</ele>
  <time>2026-08-28T17:50:44Z</time>
  <course>247.08</course>
  <speed>0.022360679774997897</speed>
  <fix>3d</fix>
</trkpt>
<trkpt lat="40.0713749" lon="-105.229789">
  <ele>1583.0</ele>
  <time>2026-08-28T17:50:44Z</time>
  <course>0.0</course>
  <speed>0.0</speed>
  <fix>3d</fix>
</trkpt>
<trkpt lat="40.0713751" lon="-105.2297889">
  <ele>1582.96</ele>
  <time>2026-08-28T17:50:44Z</time>
  <course>247.08</course>
  <speed>0.022360679774997897</speed>
  <fix>3d</fix>
</trkpt>
<trkpt lat="40.0713749" lon="-105.229789">
  <ele>1583.0</ele>
  <time>2026-08-28T17:50:44Z</time>
  <course>0.0</course>
  <speed>0.0</speed>
  <fix>3d</fix>
</trkpt>
<trkpt lat="40.071375" lon="-105.2297889">
  <ele>1582.96</ele>
  <time>2026-08-28T17:50:44Z</time>
  <course>247.08</course>
  <speed>0.022360679774997897</speed>
  <fix>3d</fix>
</trkpt>
<trkpt lat="40.0713749" lon="-105.229789">
  <ele>1583.0</ele>
  <time>2026-08-28T17:50:44Z</time>
  <course>0.0</course>
  <speed>0.0</speed>
  <fix>3d</fix>
</trkpt>
<trkpt lat="40.0713751" lon="-105.2297889">
  <ele>1582.96</ele>
  <time>2026-08-28T17:50:44Z</time>
  <course>247.08</course>
  <speed>0.022360679774997897</speed>
  <fix>3d</fix>
</trkpt>
<trkpt lat="40.0713749" lon="-105.229789">
  <ele>1583.0</ele>
  <time>2026-08-28T17:50:44Z</time>
  <course>0.0</course>
  <speed>0.0</speed>
  <fix>3d</fix>
</trkpt>
<trkpt lat="40.0713751" lon="-105.2297889">
  <ele>1582.97</ele>
  <time>2026-08-28T17:50:44Z</time>
  <course>247.08</course>
  <speed>0.022360679774997897</speed>
  <fix>3d</fix>
</trkpt>
<trkpt lat="40.0713749" lon="-105.229789">
  <ele>1583.0</ele>
  <time>2026-08-28T17:50:44Z</time>
  <course>0.0</course>
  <speed>0.0</speed>
  <fix>3d</fix>
</trkpt>
<trkpt lat="40.0713751" lon="-105.2297889">
  <ele>1582.97</ele>
  <time>2026-08-28T17:50:44Z</time>
  <course>247.08</course>
  <speed>0.022360679774997897</speed>
  <fix>3d</fix>
</trkpt>
<trkpt lat="40.0713749" lon="-105.229789">
  <ele>1583.0</ele>
  <time>2026-08-28T17:50:44Z</time>
  <course>0.0</course>
  <speed>0.0</speed>
  <fix>3d</fix>
</trkpt>
<trkpt lat="40.0713751" lon="-105.2297889">
  <ele>1582.97</ele>
  <time>2026-08-28T17:50:44Z</time>
  <course>247.08</course>
  <speed>0.022360679774997897</speed>
  <fix>3d</fix>
</trkpt>
<trkpt lat="40.0713749" lon="-105.229789">
  <ele>1583.0</ele>
  <time>2026-08-28T17:50:44Z</time>
  <course>0.0</course>
  <speed>0.0</speed>
  <fix>3d</fix>
</trkpt>
<trkpt lat="40.0713751" lon="-105.2297889">
  <ele>1582.97</ele>
  <time>2026-08-28T17:50:44Z</time>
  <course>247.08</course>
  <speed>0.022360679774997897</speed>
  <fix>3d</fix>
</trkpt>
<trkpt lat="40.0713749" lon="-105.229789">
  <ele>1583.0</ele>
  <time>2026-08-28T17:50:44Z</time>
  <course>0.0</course>
  <speed>0.0</speed>
  <fix>3d</fix>
</trkpt>
<trkpt lat="40.0713751" lon="-105.2297889">
  <ele>1582.97</ele>
  <time>2026-08-28T17:50:44Z</time>
  <course>247.08</course>
  <speed>0.022360679774997897</speed>
  <fix>3d</fix>
</trkpt>
<trkpt lat="40.0713749" lon="-105.229789">
  <ele>1583.0</ele>
  <time>2026-08-28T17:50:44Z</time>
  <course>0.0</course>
  <speed>0.0</speed>
  <fix>3d</fix>
</trkpt>
<trkpt lat="40.0713751" lon="-105.2297889">
  <ele>1582.97</ele>
  <time>2026-08-28T17:50:44Z</time>
  <course>247.08</course>
  <speed>0.022360679774997897</speed>
  <fix>3d</fix>
</trkpt>
<trkpt lat="40.0713749" lon="-105.229789">
  <ele>1583.0</ele>
  <time>2026-08-28T17:50:44Z</time>
  <course>0.0</course>
  <speed>0.0</speed>
  <fix>3d</fix>
</trkpt>
<trkpt lat="40.071375" lon="-105.2297889">
  <ele>1582.97</ele>
  <time>2026-08-28T17:50:44Z</time>
  <course>247.08</course>
  <speed>0.022360679774997897</speed>
  <fix>3d</fix>
</trkpt>
<trkpt lat="40.0713749" lon="-105.229789">
  <ele>1583.0</ele>
  <time>2026-08-28T17:50:44Z</time>
  <course>0.0</course>
  <speed>0.0</speed>
  <fix>3d</fix>
</trkpt>
<trkpt lat="40.0713751" lon="-105.2297889">
  <ele>1582.97</ele>
  <time>2026-08-28T17:50:44Z</time>
  <course>247.08</course>
  <speed>0.022360679774997897</speed>
  <fix>3d</fix>
</trkpt>
<trkpt lat="40.0713749" lon="-105.229789">
  <ele>1583.0</ele>
  <time>2026-08-28T17:50:44Z</time>
  <course>0.0</course>
  <speed>0.0</speed>
  <fix>3d</fix>
</trkpt>
<trkpt lat="40.071375" lon="-105.2297889">
  <ele>1582.97</ele>
  <time>2026-08-28T17:50:44Z</time>
  <course>247.08</course>
  <speed>0.022360679774997897</speed>
  <fix>3d</fix>
</trkpt>
<trkpt lat="40.0713749" lon="-105.229789">
  <ele>1583.0</ele>
  <time>2026-08-28T17:50:44Z</time>
  <course>0.0</course>
  <speed>0.0</speed>
  <fix>3d</fix>
</trkpt>
<trkpt lat="40.0713751" lon="-105.2297889">
  <ele>1582.97</ele>
  <time>2026-08-28T17:50:44Z</time>
  <course>247.08</course>
  <speed>0.022360679774997897</speed>
  <fix>3d</fix>
</trkpt>
<trkpt lat="40.0713749" lon="-105.229789">
  <ele>1583.0</ele>
  <time>2026-08-28T17:50:44Z</time>
  <course>0.0</course>
  <speed>0.0</speed>
  <fix>3d</fix>
</trkpt>
<trkpt lat="40.071375" lon="-105.2297889">
  <ele>1582.97</ele>
  <time>2026-08-28T17:50:44Z</time>
  <course>247.08</course>
  <speed>0.022360679774997897</speed>
  <fix>3d</fix>
</trkpt>
<trkpt lat="40.0713749" lon="-105.229789">
  <ele>1583.0</ele>
  <time>2026-08-28T17:50:44Z</time>
  <course>0.0</course>
  <speed>0.0</speed>
  <fix>3d</fix>
</trkpt>
<trkpt lat="40.0713751" lon="-105.2297889">
  <ele>1582.98</ele>
  <time>2026-08-28T17:50:44Z</time>
  <course>247.08</course>
  <speed>0.022360679774997897</speed>
  <fix>3d</fix>
</trkpt>
<trkpt lat="40.0713749" lon="-105.229789">
  <ele>1583.0</ele>
  <time>2026-08-28T17:50:44Z</time>
  <course>0.0</course>
  <speed>0.0</speed>
  <fix>3d</fix>
</trkpt>
<trkpt lat="40.071375" lon="-105.2297889">
  <ele>1582.98</ele>
  <time>2026-08-28T17:50:44Z</time>
  <course>247.08</course>
  <speed>0.022360679774997897</speed>
  <fix>3d</fix>
</trkpt>
<trkpt lat="40.0713749" lon="-105.229789">
  <ele>1583.0</ele>
  <time>2026-08-28T17:50:44Z</time>
  <course>0.0</course>
  <speed>0.0</speed>
  <fix>3d</fix>
</trkpt>
<trkpt lat="40.0713751" lon="-105.2297889">
  <ele>1582.99</ele>
  <time>2026-08-28T17:50:44Z</time>
  <course>247.08</course>
  <speed>0.022360679774997897</speed>
  <fix>3d</fix>
</trkpt>
<trkpt lat="40.0713749" lon="-105.229789">
  <ele>1583.0</ele>
  <time>2026-08-28T17:50:44Z</time>
  <course>0.0</course>
  <speed>0.0</speed>
  <fix>3d</fix>
</trkpt>
<trkpt lat="40.071375" lon="-105.2297889">
  <ele>1582.99</ele>
  <time>2026-08-28T17:50:44Z</time>
  <course>247.08</course>
  <speed>0.022360679774997897</speed>
  <fix>3d</fix>
</trkpt>
<trkpt lat="40.0713749" lon="-105.229789">
  <ele>1583.0</ele>
  <time>2026-08-28T17:50:44Z</time>
  <course>0.0</course>
  <speed>0.0</speed>
  <fix>3d</fix>
</trkpt>
<trkpt lat="40.0713751" lon="-105.2297889">
  <ele>1582.99</ele>
  <time>2026-08-28T17:50:44Z</time>
  <course>247.08</course>
  <speed>0.022360679774997897</speed>
  <fix>3d</fix>
</trkpt>
<trkpt lat="40.0713749" lon="-105.229789">
  <ele>1583.0</ele>
  <time>2026-08-28T17:50:44Z</time>
  <course>0.0</course>
  <speed>0.0</speed>
  <fix>3d</fix>
</trkpt>
<trkpt lat="40.071375" lon="-105.2297889">
  <ele>1582.99</ele>
  <time>2026-08-28T17:50:44Z</time>
  <course>247.08</course>
  <speed>0.022360679774997897</speed>
  <fix>3d</fix>
</trkpt>
<trkpt lat="40.0713749" lon="-105.229789">
  <ele>1583.0</ele>
  <time>2026-08-28T17:50:44Z</time>
  <course>0.0</course>
  <speed>0.0</speed>
  <fix>3d</fix>
</trkpt>
<trkpt lat="40.0713751" lon="-105.2297889">
  <ele>1583.0</ele>
  <time>2026-08-28T17:50:45Z</time>
  <course>247.08</course>
  <speed>0.022360679774997897</speed>
  <fix>3d</fix>
</trkpt>
<trkpt lat="40.0713749" lon="-105.229789">
  <ele>1583.0</ele>
  <time>2026-08-28T17:50:45Z</time>
  <course>0.0</course>
  <speed>0.0</speed>
  <fix>3d</fix>
</trkpt>
<trkpt lat="40.071375" lon="-105.2297889">
  <ele>1583.0</ele>
  <time>2026-08-28T17:50:45Z</time>
  <course>247.08</course>
  <speed>0.022360679774997897</speed>
  <fix>3d</fix>
</trkpt>
<trkpt lat="40.0713749" lon="-105.229789">
  <ele>1583.0</ele>
  <time>2026-08-28T17:50:45Z</time>
  <course>0.0</course>
  <speed>0.0</speed>
  <fix>3d</fix>
</trkpt>
<trkpt lat="40.0713751" lon="-105.2297889">
  <ele>1583.0</ele>
  <time>2026-08-28T17:50:45Z</time>
  <course>247.08</course>
  <speed>0.022360679774997897</speed>
  <fix>3d</fix>
</trkpt>
<trkpt lat="40.0713749" lon="-105.229789">
  <ele>1583.0</ele>
  <time>2026-08-28T17:50:45Z</time>
  <course>0.0</course>
  <speed>0.0</speed>
  <fix>3d</fix>
</trkpt>
<trkpt lat="40.0713751" lon="-105.2297889">
  <ele>1583.01</ele>
  <time>2026-08-28T17:50:45Z</time>
  <course>247.08</course>
  <speed>0.022360679774997897</speed>
  <fix>3d</fix>
</trkpt>
<trkpt lat="40.0713749" lon="-105.229789">
  <ele>1583.0</ele>
  <time>2026-08-28T17:50:45Z</time>
  <course>0.0</course>
  <speed>0.0</speed>
  <fix>3d</fix>
</trkpt>
<trkpt lat="40.0713751" lon="-105.2297889">
  <ele>1583.01</ele>
  <time>2026-08-28T17:50:45Z</time>
  <course>247.08</course>
  <speed>0.022360679774997897</speed>
  <fix>3d</fix>
</trkpt>
<trkpt lat="40.0713749" lon="-105.229789">
  <ele>1583.0</ele>
  <time>2026-08-28T17:50:45Z</time>
  <course>0.0</course>
  <speed>0.0</speed>
  <fix>3d</fix>
</trkpt>
<trkpt lat="40.0713751" lon="-105.2297889">
  <ele>1583.01</ele>
  <time>2026-08-28T17:50:45Z</time>
  <course>247.08</course>
  <speed>0.022360679774997897</speed>
  <fix>3d</fix>
</trkpt>
<trkpt lat="40.0713749" lon="-105.229789">
  <ele>1583.0</ele>
  <time>2026-08-28T17:50:45Z</time>
  <course>0.0</course>
  <speed>0.0</speed>
  <fix>3d</fix>
</trkpt>
<trkpt lat="40.0713751" lon="-105.2297889">
  <ele>1583.02</ele>
  <time>2026-08-28T17:50:45Z</time>
  <course>247.08</course>
  <speed>0.022360679774997897</speed>
  <fix>3d</fix>
</trkpt>
<trkpt lat="40.0713749" lon="-105.229789">
  <ele>1583.0</ele>
  <time>2026-08-28T17:50:45Z</time>
  <course>0.0</course>
  <speed>0.0</speed>
  <fix>3d</fix>
</trkpt>
<trkpt lat="40.0713751" lon="-105.2297889">
  <ele>1583.02</ele>
  <time>2026-08-28T17:50:45Z</time>
  <course>247.08</course>
  <speed>0.022360679774997897</speed>
  <fix>3d</fix>
</trkpt>
<trkpt lat="40.0713749" lon="-105.229789">
  <ele>1583.0</ele>
  <time>2026-08-28T17:50:45Z</time>
  <course>0.0</course>
  <speed>0.0</speed>
  <fix>3d</fix>
</trkpt>
<trkpt lat="40.0713751" lon="-105.2297889">
  <ele>1583.02</ele>
  <time>2026-08-28T17:50:45Z</time>
  <course>247.08</course>
  <speed>0.022360679774997897</speed>
  <fix>3d</fix>
</trkpt>
<trkpt lat="40.0713749" lon="-105.229789">
  <ele>1583.0</ele>
  <time>2026-08-28T17:50:45Z</time>
  <course>0.0</course>
  <speed>0.0</speed>
  <fix>3d</fix>
</trkpt>
<trkpt lat="40.071375" lon="-105.2297889">
  <ele>1583.02</ele>
  <time>2026-08-28T17:50:45Z</time>
  <course>247.08</course>
  <speed>0.022360679774997897</speed>
  <fix>3d</fix>
</trkpt>
<trkpt lat="40.0713749" lon="-105.229789">
  <ele>1583.0</ele>
  <time>2026-08-28T17:50:45Z</time>
  <course>0.0</course>
  <speed>0.0</speed>
  <fix>3d</fix>
</trkpt>
<trkpt lat="40.0713751" lon="-105.2297889">
  <ele>1583.02</ele>
  <time>2026-08-28T17:50:45Z</time>
  <course>247.08</course>
  <speed>0.022360679774997897</speed>
  <fix>3d</fix>
</trkpt>
<trkpt lat="40.0713749" lon="-105.229789">
  <ele>1583.0</ele>
  <time>2026-08-28T17:50:45Z</time>
  <course>0.0</course>
  <speed>0.0</speed>
  <fix>3d</fix>
</trkpt>
<trkpt lat="40.071375" lon="-105.2297889">
  <ele>1583.02</ele>
  <time>2026-08-28T17:50:45Z</time>
  <course>247.08</course>
  <speed>0.022360679774997897</speed>
  <fix>3d</fix>
</trkpt>
<trkpt lat="40.0713749" lon="-105.229789">
  <ele>1583.0</ele>
  <time>2026-08-28T17:50:45Z</time>
  <course>0.0</course>
  <speed>0.0</speed>
  <fix>3d</fix>
</trkpt>
<trkpt lat="40.0713751" lon="-105.2297889">
  <ele>1583.02</ele>
  <time>2026-08-28T17:50:45Z</time>
  <course>247.08</course>
  <speed>0.022360679774997897</speed>
  <fix>3d</fix>
</trkpt>
<trkpt lat="40.0713749" lon="-105.229789">
  <ele>1583.0</ele>
  <time>2026-08-28T17:50:45Z</time>
  <course>0.0</course>
  <speed>0.0</speed>
  <fix>3d</fix>
</trkpt>
<trkpt lat="40.071375" lon="-105.2297889">
  <ele>1583.02</ele>
  <time>2026-08-28T17:50:45Z</time>
  <course>247.08</course>
  <speed>0.022360679774997897</speed>
  <fix>3d</fix>
</trkpt>
<trkpt lat="40.0713749" lon="-105.229789">
  <ele>1583.0</ele>
  <time>2026-08-28T17:50:45Z</time>
  <course>0.0</course>
  <speed>0.0</speed>
  <fix>3d</fix>
</trkpt>
<trkpt lat="40.0713751" lon="-105.2297889">
  <ele>1583.01</ele>
  <time>2026-08-28T17:50:45Z</time>
  <course>247.08</course>
  <speed>0.022360679774997897</speed>
  <fix>3d</fix>
</trkpt>
<trkpt lat="40.0713749" lon="-105.229789">
  <ele>1583.0</ele>
  <time>2026-08-28T17:50:45Z</time>
  <course>0.0</course>
  <speed>0.0</speed>
  <fix>3d</fix>
</trkpt>
<trkpt lat="40.071375" lon="-105.2297889">
  <ele>1583.01</ele>
  <time>2026-08-28T17:50:45Z</time>
  <course>247.08</course>
  <speed>0.022360679774997897</speed>
  <fix>3d</fix>
</trkpt>
<trkpt lat="40.0713749" lon="-105.229789">
  <ele>1583.0</ele>
  <time>2026-08-28T17:50:45Z</time>
  <course>0.0</course>
  <speed>0.0</speed>
  <fix>3d</fix>
</trkpt>
<trkpt lat="40.0713751" lon="-105.2297889">
  <ele>1583.0</ele>
  <time>2026-08-28T17:50:45Z</time>
  <course>247.08</course>
  <speed>0.022360679774997897</speed>
  <fix>3d</fix>
</trkpt>
<trkpt lat="40.0713749" lon="-105.229789">
  <ele>1583.0</ele>
  <time>2026-08-28T17:50:45Z</time>
  <course>0.0</course>
  <speed>0.0</speed>
  <fix>3d</fix>
</trkpt>
<trkpt lat="40.071375" lon="-105.2297889">
  <ele>1583.0</ele>
  <time>2026-08-28T17:50:45Z</time>
  <course>247.08</course>
  <speed>0.022360679774997897</speed>
  <fix>3d</fix>
</trkpt>
<trkpt lat="40.0713749" lon="-105.229789">
  <ele>1583.0</ele>
  <time>2026-08-28T17:50:45Z</time>
  <course>0.0</course>
  <speed>0.0</speed>
  <fix>3d</fix>
</trkpt>
<trkpt lat="40.0713751" lon="-105.2297889">
  <ele>1583.0</ele>
  <time>2026-08-28T17:50:45Z</time>
  <course>247.08</course>
  <speed>0.022360679774997897</speed>
  <fix>3d</fix>
</trkpt>
<trkpt lat="40.0713749" lon="-105.229789">
  <ele>1583.0</ele>
  <time>2026-08-28T17:50:45Z</time>
  <course>0.0</course>
  <speed>0.0</speed>
  <fix>3d</fix>
</trkpt>
<trkpt lat="40.071375" lon="-105.2297889">
  <ele>1583.0</ele>
  <time>2026-08-28T17:50:45Z</time>
  <course>247.08</course>
  <speed>0.022360679774997897</speed>
  <fix>3d</fix>
</trkpt>
<trkpt lat="40.0713749" lon="-105.229789">
  <ele>1583.0</ele>
  <time>2026-08-28T17:50:45Z</time>
  <course>0.0</course>
  <speed>0.0</speed>
  <fix>3d</fix>
</trkpt>
<trkpt lat="40.0713751" lon="-105.2297889">
  <ele>1583.0</ele>
  <time>2026-08-28T17:50:45Z</time>
  <course>247.08</course>
  <speed>0.022360679774997897</speed>
  <fix>3d</fix>
</trkpt>
<trkpt lat="40.0713749" lon="-105.229789">
  <ele>1583.0</ele>
  <time>2026-08-28T17:50:45Z</time>
  <course>0.0</course>
  <speed>0.0</speed>
  <fix>3d</fix>
</trkpt>
<trkpt lat="40.071375" lon="-105.2297889">
  <ele>1583.0</ele>
  <time>2026-08-28T17:50:45Z</time>
  <course>247.08</course>
  <speed>0.022360679774997897</speed>
  <fix>3d</fix>
</trkpt>
<trkpt lat="40.0713749" lon="-105.229789">
  <ele>1583.0</ele>
  <time>2026-08-28T17:50:45Z</time>
  <course>0.0</course>
  <speed>0.0</speed>
  <fix>3d</fix>
</trkpt>
<trkpt lat="40.0713751" lon="-105.2297889">
  <ele>1583.0</ele>
  <time>2026-08-28T17:50:45Z</time>
  <course>247.08</course>
  <speed>0.022360679774997897</speed>
  <fix>3d</fix>
</trkpt>
<trkpt lat="40.0713749" lon="-105.229789">
  <ele>1583.0</ele>
  <time>2026-08-28T17:50:45Z</time>
  <course>0.0</course>
  <speed>0.0</speed>
  <fix>3d</fix>
</trkpt>
<trkpt lat="40.0713751" lon="-105.2297889">
  <ele>1582.99</ele>
  <time>2026-08-28T17:50:45Z</time>
  <course>247.08</course>
  <speed>0.022360679774997897</speed>
  <fix>3d</fix>
</trkpt>
<trkpt lat="40.0713749" lon="-105.229789">
  <ele>1583.0</ele>
  <time>2026-08-28T17:50:45Z</time>
  <course>0.0</course>
  <speed>0.0</speed>
  <fix>3d</fix>
</trkpt>
<trkpt lat="40.0713751" lon="-105.2297889">
  <ele>1582.99</ele>
  <time>2026-08-28T17:50:45Z</time>
  <course>247.08</course>
  <speed>0.022360679774997897</speed>
  <fix>3d</fix>
</trkpt>
<trkpt lat="40.0713749" lon="-105.229789">
  <ele>1583.0</ele>
  <time>2026-08-28T17:50:45Z</time>
  <course>0.0</course>
  <speed>0.0</speed>
  <fix>3d</fix>
</trkpt>
<trkpt lat="40.0713751" lon="-105.2297889">
  <ele>1582.98</ele>
  <time>2026-08-28T17:50:45Z</time>
  <course>247.08</course>
  <speed>0.022360679774997897</speed>
  <fix>3d</fix>
</trkpt>
<trkpt lat="40.0713749" lon="-105.229789">
  <ele>1583.0</ele>
  <time>2026-08-28T17:50:45Z</time>
  <course>0.0</course>
  <speed>0.0</speed>
  <fix>3d</fix>
</trkpt>
<trkpt lat="40.0713751" lon="-105.2297889">
  <ele>1582.98</ele>
  <time>2026-08-28T17:50:45Z</time>
  <course>247.08</course>
  <speed>0.022360679774997897</speed>
  <fix>3d</fix>
</trkpt>
<trkpt lat="40.0713749" lon="-105.229789">
  <ele>1583.0</ele>
  <time>2026-08-28T17:50:45Z</time>
  <course>0.0</course>
  <speed>0.0</speed>
  <fix>3d</fix>
</trkpt>
<trkpt lat="40.0713751" lon="-105.2297889">
  <ele>1582.97</ele>
  <time>2026-08-28T17:50:45Z</time>
  <course>247.08</course>
  <speed>0.022360679774997897</speed>
  <fix>3d</fix>
</trkpt>
<trkpt lat="40.0713749" lon="-105.229789">
  <ele>1583.0</ele>
  <time>2026-08-28T17:50:45Z</time>
  <course>0.0</course>
  <speed>0.0</speed>
  <fix>3d</fix>
</trkpt>
<trkpt lat="40.0713751" lon="-105.2297889">
  <ele>1582.96</ele>
  <time>2026-08-28T17:50:45Z</time>
  <course>247.08</course>
  <speed>0.022360679774997897</speed>
  <fix>3d</fix>
</trkpt>
<trkpt lat="40.0713749" lon="-105.229789">
  <ele>1583.0</ele>
  <time>2026-08-28T17:50:45Z</time>
  <course>0.0</course>
  <speed>0.0</speed>
  <fix>3d</fix>
</trkpt>
<trkpt lat="40.0713751" lon="-105.2297889">
  <ele>1582.96</ele>
  <time>2026-08-28T17:50:45Z</time>
  <course>247.08</course>
  <speed>0.022360679774997897</speed>
  <fix>3d</fix>
</trkpt>
<trkpt lat="40.0713749" lon="-105.229789">
  <ele>1583.0</ele>
  <time>2026-08-28T17:50:45Z</time>
  <course>0.0</course>
  <speed>0.0</speed>
  <fix>3d</fix>
</trkpt>
<trkpt lat="40.0713751" lon="-105.2297889">
  <ele>1582.95</ele>
  <time>2026-08-28T17:50:45Z</time>
  <course>247.08</course>
  <speed>0.022360679774997897</speed>
  <fix>3d</fix>
</trkpt>
<trkpt lat="40.0713749" lon="-105.229789">
  <ele>1583.0</ele>
  <time>2026-08-28T17:50:45Z</time>
  <course>0.0</course>
  <speed>0.0</speed>
  <fix>3d</fix>
</trkpt>
<trkpt lat="40.071375" lon="-105.2297889">
  <ele>1582.95</ele>
  <time>2026-08-28T17:50:45Z</time>
  <course>247.08</course>
  <speed>0.022360679774997897</speed>
  <fix>3d</fix>
</trkpt>
<trkpt lat="40.0713749" lon="-105.229789">
  <ele>1583.0</ele>
  <time>2026-08-28T17:50:45Z</time>
  <course>0.0</course>
  <speed>0.0</speed>
  <fix>3d</fix>
</trkpt>
<trkpt lat="40.0713751" lon="-105.2297889">
  <ele>1582.94</ele>
  <time>2026-08-28T17:50:45Z</time>
  <course>247.08</course>
  <speed>0.022360679774997897</speed>
  <fix>3d</fix>
</trkpt>
<trkpt lat="40.0713749" lon="-105.229789">
  <ele>1583.0</ele>
  <time>2026-08-28T17:50:45Z</time>
  <course>0.0</course>
  <speed>0.0</speed>
  <fix>3d</fix>
</trkpt>
<trkpt lat="40.071375" lon="-105.2297889">
  <ele>1582.94</ele>
  <time>2026-08-28T17:50:45Z</time>
  <course>247.08</course>
  <speed>0.022360679774997897</speed>
  <fix>3d</fix>
</trkpt>
<trkpt lat="40.0713749" lon="-105.229789">
  <ele>1583.0</ele>
  <time>2026-08-28T17:50:45Z</time>
  <course>0.0</course>
  <speed>0.0</speed>
  <fix>3d</fix>
</trkpt>
<trkpt lat="40.0713751" lon="-105.2297889">
  <ele>1582.94</ele>
  <time>2026-08-28T17:50:45Z</time>
  <course>247.08</course>
  <speed>0.022360679774997897</speed>
  <fix>3d</fix>
</trkpt>
<trkpt lat="40.0713749" lon="-105.229789">
  <ele>1583.0</ele>
  <time>2026-08-28T17:50:45Z</time>
  <course>0.0</course>
  <speed>0.0</speed>
  <fix>3d</fix>
</trkpt>
<trkpt lat="40.071375" lon="-105.2297889">
  <ele>1582.93</ele>
  <time>2026-08-28T17:50:45Z</time>
  <course>247.08</course>
  <speed>0.022360679774997897</speed>
  <fix>3d</fix>
</trkpt>
<trkpt lat="40.0713749" lon="-105.229789">
  <ele>1583.0</ele>
  <time>2026-08-28T17:50:45Z</time>
  <course>0.0</course>
  <speed>0.0</speed>
  <fix>3d</fix>
</trkpt>
<trkpt lat="40.0713751" lon="-105.2297889">
  <ele>1582.93</ele>
  <time>2026-08-28T17:50:45Z</time>
  <course>247.08</course>
  <speed>0.022360679774997897</speed>
  <fix>3d</fix>
</trkpt>
<trkpt lat="40.0713749" lon="-105.229789">
  <ele>1583.0</ele>
  <time>2026-08-28T17:50:45Z</time>
  <course>0.0</course>
  <speed>0.0</speed>
  <fix>3d</fix>
</trkpt>
<trkpt lat="40.071375" lon="-105.2297889">
  <ele>1582.92</ele>
  <time>2026-08-28T17:50:45Z</time>
  <course>247.08</course>
  <speed>0.022360679774997897</speed>
  <fix>3d</fix>
</trkpt>
<trkpt lat="40.0713749" lon="-105.229789">
  <ele>1583.0</ele>
  <time>2026-08-28T17:50:45Z</time>
  <course>0.0</course>
  <speed>0.0</speed>
  <fix>3d</fix>
</trkpt>
<trkpt lat="40.0713751" lon="-105.2297889">
  <ele>1582.92</ele>
  <time>2026-08-28T17:50:45Z</time>
  <course>247.08</course>
  <speed>0.022360679774997897</speed>
  <fix>3d</fix>
</trkpt>
<trkpt lat="40.0713749" lon="-105.229789">
  <ele>1583.0</ele>
  <time>2026-08-28T17:50:45Z</time>
  <course>0.0</course>
  <speed>0.0</speed>
  <fix>3d</fix>
</trkpt>
<trkpt lat="40.071375" lon="-105.2297889">
  <ele>1582.92</ele>
  <time>2026-08-28T17:50:45Z</time>
  <course>247.08</course>
  <speed>0.022360679774997897</speed>
  <fix>3d</fix>
</trkpt>
<trkpt lat="40.0713749" lon="-105.229789">
  <ele>1583.0</ele>
  <time>2026-08-28T17:50:45Z</time>
  <course>0.0</course>
  <speed>0.0</speed>
  <fix>3d</fix>
</trkpt>
<trkpt lat="40.0713751" lon="-105.2297889">
  <ele>1582.91</ele>
  <time>2026-08-28T17:50:45Z</time>
  <course>247.08</course>
  <speed>0.022360679774997897</speed>
  <fix>3d</fix>
</trkpt>
<trkpt lat="40.0713749" lon="-105.229789">
  <ele>1583.0</ele>
  <time>2026-08-28T17:50:45Z</time>
  <course>0.0</course>
  <speed>0.0</speed>
  <fix>3d</fix>
</trkpt>
<trkpt lat="40.071375" lon="-105.2297889">
  <ele>1582.91</ele>
  <time>2026-08-28T17:50:45Z</time>
  <course>247.08</course>
  <speed>0.022360679774997897</speed>
  <fix>3d</fix>
</trkpt>
<trkpt lat="40.0713749" lon="-105.229789">
  <ele>1583.0</ele>
  <time>2026-08-28T17:50:45Z</time>
  <course>0.0</course>
  <speed>0.0</speed>
  <fix>3d</fix>
</trkpt>
<trkpt lat="40.0713751" lon="-105.2297889">
  <ele>1582.91</ele>
  <time>2026-08-28T17:50:45Z</time>
  <course>247.08</course>
  <speed>0.022360679774997897</speed>
  <fix>3d</fix>
</trkpt>
<trkpt lat="40.0713749" lon="-105.229789">
  <ele>1583.0</ele>
  <time>2026-08-28T17:50:45Z</time>
  <course>0.0</course>
  <speed>0.0</speed>
  <fix>3d</fix>
</trkpt>
<trkpt lat="40.071375" lon="-105.2297889">
  <ele>1582.91</ele>
  <time>2026-08-28T17:50:45Z</time>
  <course>247.08</course>
  <speed>0.022360679774997897</speed>
  <fix>3d</fix>
</trkpt>
<trkpt lat="40.0713749" lon="-105.229789">
  <ele>1583.0</ele>
  <time>2026-08-28T17:50:45Z</time>
  <course>0.0</course>
  <speed>0.0</speed>
  <fix>3d</fix>
</trkpt>
<trkpt lat="40.0713751" lon="-105.2297889">
  <ele>1582.91</ele>
  <time>2026-08-28T17:50:45Z</time>
  <course>247.08</course>
  <speed>0.022360679774997897</speed>
  <fix>3d</fix>
</trkpt>
<trkpt lat="40.0713749" lon="-105.229789">
  <ele>1583.0</ele>
  <time>2026-08-28T17:50:45Z</time>
  <course>0.0</course>
  <speed>0.0</speed>
  <fix>3d</fix>
</trkpt>
<trkpt lat="40.0713751" lon="-105.2297889">
  <ele>1582.91</ele>
  <time>2026-08-28T17:50:45Z</time>
  <course>247.08</course>
  <speed>0.022360679774997897</speed>
  <fix>3d</fix>
</trkpt>
<trkpt lat="40.0713749" lon="-105.229789">
  <ele>1583.0</ele>
  <time>2026-08-28T17:50:45Z</time>
  <course>0.0</course>
  <speed>0.0</speed>
  <fix>3d</fix>
</trkpt>
<trkpt lat="40.0713751" lon="-105.2297889">
  <ele>1582.92</ele>
  <time>2026-08-28T17:50:45Z</time>
  <course>247.08</course>
  <speed>0.022360679774997897</speed>
  <fix>3d</fix>
</trkpt>
<trkpt lat="40.0713749" lon="-105.229789">
  <ele>1583.0</ele>
  <time>2026-08-28T17:50:45Z</time>
  <course>0.0</course>
  <speed>0.0</speed>
  <fix>3d</fix>
</trkpt>
<trkpt lat="40.0713751" lon="-105.2297889">
  <ele>1582.92</ele>
  <time>2026-08-28T17:50:45Z</time>
  <course>247.08</course>
  <speed>0.022360679774997897</speed>
  <fix>3d</fix>
</trkpt>
<trkpt lat="40.0713749" lon="-105.229789">
  <ele>1583.0</ele>
  <time>2026-08-28T17:50:45Z</time>
  <course>0.0</course>
  <speed>0.0</speed>
  <fix>3d</fix>
</trkpt>
<trkpt lat="40.0713751" lon="-105.2297889">
  <ele>1582.93</ele>
  <time>2026-08-28T17:50:45Z</time>
  <course>247.08</course>
  <speed>0.022360679774997897</speed>
  <fix>3d</fix>
</trkpt>
<trkpt lat="40.0713749" lon="-105.229789">
  <ele>1583.0</ele>
  <time>2026-08-28T17:50:45Z</time>
  <course>0.0</course>
  <speed>0.0</speed>
  <fix>3d</fix>
</trkpt>
<trkpt lat="40.0713751" lon="-105.2297889">
  <ele>1582.93</ele>
  <time>2026-08-28T17:50:45Z</time>
  <course>247.08</course>
  <speed>0.022360679774997897</speed>
  <fix>3d</fix>
</trkpt>
<trkpt lat="40.0713749" lon="-105.229789">
  <ele>1583.0</ele>
  <time>2026-08-28T17:50:45Z</time>
  <course>0.0</course>
  <speed>0.0</speed>
  <fix>3d</fix>
</trkpt>
<trkpt lat="40.0713751" lon="-105.2297889">
  <ele>1582.94</ele>
  <time>2026-08-28T17:50:45Z</time>
  <course>247.08</course>
  <speed>0.022360679774997897</speed>
  <fix>3d</fix>
</trkpt>
<trkpt lat="40.0713749" lon="-105.229789">
  <ele>1583.0</ele>
  <time>2026-08-28T17:50:45Z</time>
  <course>0.0</course>
  <speed>0.0</speed>
  <fix>3d</fix>
</trkpt>
<trkpt lat="40.071375" lon="-105.2297889">
  <ele>1582.94</ele>
  <time>2026-08-28T17:50:45Z</time>
  <course>247.08</course>
  <speed>0.022360679774997897</speed>
  <fix>3d</fix>
</trkpt>
<trkpt lat="40.0713749" lon="-105.229789">
  <ele>1583.0</ele>
  <time>2026-08-28T17:50:45Z</time>
  <course>0.0</course>
  <speed>0.0</speed>
  <fix>3d</fix>
</trkpt>
<trkpt lat="40.0713751" lon="-105.2297889">
  <ele>1582.94</ele>
  <time>2026-08-28T17:50:45Z</time>
  <course>247.08</course>
  <speed>0.022360679774997897</speed>
  <fix>3d</fix>
</trkpt>
<trkpt lat="40.0713749" lon="-105.229789">
  <ele>1583.0</ele>
  <time>2026-08-28T17:50:45Z</time>
  <course>0.0</course>
  <speed>0.0</speed>
  <fix>3d</fix>
</trkpt>
<trkpt lat="40.071375" lon="-105.2297889">
  <ele>1582.94</ele>
  <time>2026-08-28T17:50:45Z</time>
  <course>247.08</course>
  <speed>0.022360679774997897</speed>
  <fix>3d</fix>
</trkpt>
<trkpt lat="40.0713749" lon="-105.229789">
  <ele>1583.0</ele>
  <time>2026-08-28T17:50:45Z</time>
  <course>0.0</course>
  <speed>0.0</speed>
  <fix>3d</fix>
</trkpt>
<trkpt lat="40.0713751" lon="-105.2297889">
  <ele>1582.94</ele>
  <time>2026-08-28T17:50:45Z</time>
  <course>247.08</course>
  <speed>0.022360679774997897</speed>
  <fix>3d</fix>
</trkpt>
<trkpt lat="40.0713749" lon="-105.229789">
  <ele>1583.0</ele>
  <time>2026-08-28T17:50:45Z</time>
  <course>0.0</course>
  <speed>0.0</speed>
  <fix>3d</fix>
</trkpt>
<trkpt lat="40.071375" lon="-105.2297889">
  <ele>1582.94</ele>
  <time>2026-08-28T17:50:45Z</time>
  <course>247.08</course>
  <speed>0.022360679774997897</speed>
  <fix>3d</fix>
</trkpt>
<trkpt lat="40.0713749" lon="-105.229789">
  <ele>1583.0</ele>
  <time>2026-08-28T17:50:45Z</time>
  <course>0.0</course>
  <speed>0.0</speed>
  <fix>3d</fix>
</trkpt>
<trkpt lat="40.0713751" lon="-105.2297889">
  <ele>1582.93</ele>
  <time>2026-08-28T17:50:45Z</time>
  <course>247.08</course>
  <speed>0.022360679774997897</speed>
  <fix>3d</fix>
</trkpt>
<trkpt lat="40.0713749" lon="-105.229789">
  <ele>1583.0</ele>
  <time>2026-08-28T17:50:45Z</time>
  <course>0.0</course>
  <speed>0.0</speed>
  <fix>3d</fix>
</trkpt>
<trkpt lat="40.071375" lon="-105.2297889">
  <ele>1582.93</ele>
  <time>2026-08-28T17:50:45Z</time>
  <course>247.08</course>
  <speed>0.022360679774997897</speed>
  <fix>3d</fix>
</trkpt>
<trkpt lat="40.0713749" lon="-105.229789">
  <ele>1583.0</ele>
  <time>2026-08-28T17:50:45Z</time>
  <course>0.0</course>
  <speed>0.0</speed>
  <fix>3d</fix>
</trkpt>
<trkpt lat="40.0713751" lon="-105.2297889">
  <ele>1582.93</ele>
  <time>2026-08-28T17:50:45Z</time>
  <course>247.08</course>
  <speed>0.022360679774997897</speed>
  <fix>3d</fix>
</trkpt>
<trkpt lat="40.0713749" lon="-105.229789">
  <ele>1583.0</ele>
  <time>2026-08-28T17:50:45Z</time>
  <course>0.0</course>
  <speed>0.0</speed>
  <fix>3d</fix>
</trkpt>
<trkpt lat="40.071375" lon="-105.2297889">
  <ele>1582.93</ele>
  <time>2026-08-28T17:50:45Z</time>
  <course>247.08</course>
  <speed>0.022360679774997897</speed>
  <fix>3d</fix>
</trkpt>
<trkpt lat="40.0713749" lon="-105.229789">
  <ele>1583.0</ele>
  <time>2026-08-28T17:50:45Z</time>
  <course>0.0</course>
  <speed>0.0</speed>
  <fix>3d</fix>
</trkpt>
<trkpt lat="40.0713751" lon="-105.2297889">
  <ele>1582.92</ele>
  <time>2026-08-28T17:50:45Z</time>
  <course>247.08</course>
  <speed>0.022360679774997897</speed>
  <fix>3d</fix>
</trkpt>
<trkpt lat="40.0713749" lon="-105.229789">
  <ele>1583.0</ele>
  <time>2026-08-28T17:50:45Z</time>
  <course>0.0</course>
  <speed>0.0</speed>
  <fix>3d</fix>
</trkpt>
<trkpt lat="40.071375" lon="-105.2297889">
  <ele>1582.92</ele>
  <time>2026-08-28T17:50:45Z</time>
  <course>247.08</course>
  <speed>0.022360679774997897</speed>
  <fix>3d</fix>
</trkpt>
<trkpt lat="40.0713749" lon="-105.229789">
  <ele>1583.0</ele>
  <time>2026-08-28T17:50:45Z</time>
  <course>0.0</course>
  <speed>0.0</speed>
  <fix>3d</fix>
</trkpt>
<trkpt lat="40.0713751" lon="-105.2297889">
  <ele>1582.92</ele>
  <time>2026-08-28T17:50:45Z</time>
  <course>247.08</course>
  <speed>0.022360679774997897</speed>
  <fix>3d</fix>
</trkpt>
<trkpt lat="40.0713749" lon="-105.229789">
  <ele>1583.0</ele>
  <time>2026-08-28T17:50:45Z</time>
  <course>0.0</course>
  <speed>0.0</speed>
  <fix>3d</fix>
</trkpt>
<trkpt lat="40.071375" lon="-105.2297889">
  <ele>1582.91</ele>
  <time>2026-08-28T17:50:45Z</time>
  <course>247.08</course>
  <speed>0.022360679774997897</speed>
  <fix>3d</fix>
</trkpt>
<trkpt lat="40.0713749" lon="-105.229789">
  <ele>1583.0</ele>
  <time>2026-08-28T17:50:45Z</time>
  <course>0.0</course>
  <speed>0.0</speed>
  <fix>3d</fix>
</trkpt>
<trkpt lat="40.0713751" lon="-105.2297889">
  <ele>1582.91</ele>
  <time>2026-08-28T17:50:45Z</time>
  <course>247.08</course>
  <speed>0.022360679774997897</speed>
  <fix>3d</fix>
</trkpt>
<trkpt lat="40.0713749" lon="-105.229789">
  <ele>1583.0</ele>
  <time>2026-08-28T17:50:45Z</time>
  <course>0.0</course>
  <speed>0.0</speed>
  <fix>3d</fix>
</trkpt>
<trkpt lat="40.071375" lon="-105.2297889">
  <ele>1582.9</ele>
  <time>2026-08-28T17:50:45Z</time>
  <course>247.08</course>
  <speed>0.022360679774997897</speed>
  <fix>3d</fix>
</trkpt>
<trkpt lat="40.0713749" lon="-105.229789">
  <ele>1583.0</ele>
  <time>2026-08-28T17:50:45Z</time>
  <course>0.0</course>
  <speed>0.0</speed>
  <fix>3d</fix>
</trkpt>
<trkpt lat="40.0713751" lon="-105.2297889">
  <ele>1582.89</ele>
  <time>2026-08-28T17:50:45Z</time>
  <course>247.08</course>
  <speed>0.022360679774997897</speed>
  <fix>3d</fix>
</trkpt>
<trkpt lat="40.0713749" lon="-105.229789">
  <ele>1583.0</ele>
  <time>2026-08-28T17:50:45Z</time>
  <course>0.0</course>
  <speed>0.0</speed>
  <fix>3d</fix>
</trkpt>
<trkpt lat="40.071375" lon="-105.2297889">
  <ele>1582.89</ele>
  <time>2026-08-28T17:50:45Z</time>
  <course>247.08</course>
  <speed>0.022360679774997897</speed>
  <fix>3d</fix>
</trkpt>
<trkpt lat="40.0713749" lon="-105.229789">
  <ele>1583.0</ele>
  <time>2026-08-28T17:50:45Z</time>
  <course>0.0</course>
  <speed>0.0</speed>
  <fix>3d</fix>
</trkpt>
<trkpt lat="40.0713751" lon="-105.2297889">
  <ele>1582.89</ele>
  <time>2026-08-28T17:50:45Z</time>
  <course>247.08</course>
  <speed>0.022360679774997897</speed>
  <fix>3d</fix>
</trkpt>
<trkpt lat="40.0713749" lon="-105.229789">
  <ele>1583.0</ele>
  <time>2026-08-28T17:50:45Z</time>
  <course>0.0</course>
  <speed>0.0</speed>
  <fix>3d</fix>
</trkpt>
<trkpt lat="40.071375" lon="-105.2297889">
  <ele>1582.88</ele>
  <time>2026-08-28T17:50:45Z</time>
  <course>247.08</course>
  <speed>0.022360679774997897</speed>
  <fix>3d</fix>
</trkpt>
<trkpt lat="40.0713749" lon="-105.229789">
  <ele>1583.0</ele>
  <time>2026-08-28T17:50:45Z</time>
  <course>0.0</course>
  <speed>0.0</speed>
  <fix>3d</fix>
</trkpt>
<trkpt lat="40.0713751" lon="-105.2297889">
  <ele>1582.88</ele>
  <time>2026-08-28T17:50:45Z</time>
  <course>247.08</course>
  <speed>0.022360679774997897</speed>
  <fix>3d</fix>
</trkpt>
<trkpt lat="40.0713749" lon="-105.229789">
  <ele>1583.0</ele>
  <time>2026-08-28T17:50:45Z</time>
  <course>0.0</course>
  <speed>0.0</speed>
  <fix>3d</fix>
</trkpt>
<trkpt lat="40.071375" lon="-105.2297889">
  <ele>1582.87</ele>
  <time>2026-08-28T17:50:45Z</time>
  <course>247.08</course>
  <speed>0.022360679774997897</speed>
  <fix>3d</fix>
</trkpt>
<trkpt lat="40.0713749" lon="-105.229789">
  <ele>1583.0</ele>
  <time>2026-08-28T17:50:45Z</time>
  <course>0.0</course>
  <speed>0.0</speed>
  <fix>3d</fix>
</trkpt>
<trkpt lat="40.0713751" lon="-105.2297889">
  <ele>1582.87</ele>
  <time>2026-08-28T17:50:45Z</time>
  <course>247.08</course>
  <speed>0.022360679774997897</speed>
  <fix>3d</fix>
</trkpt>
<trkpt lat="40.0713749" lon="-105.229789">
  <ele>1583.0</ele>
  <time>2026-08-28T17:50:45Z</time>
  <course>0.0</course>
  <speed>0.0</speed>
  <fix>3d</fix>
</trkpt>
<trkpt lat="40.071375" lon="-105.2297889">
  <ele>1582.87</ele>
  <time>2026-08-28T17:50:45Z</time>
  <course>247.08</course>
  <speed>0.022360679774997897</speed>
  <fix>3d</fix>
</trkpt>
<trkpt lat="40.0713749" lon="-105.229789">
  <ele>1583.0</ele>
  <time>2026-08-28T17:50:45Z</time>
  <course>0.0</course>
  <speed>0.0</speed>
  <fix>3d</fix>
</trkpt>
<trkpt lat="40.071375" lon="-105.2297889">
  <ele>1582.88</ele>
  <time>2026-08-28T17:50:45Z</time>
  <course>247.08</course>
  <speed>0.022360679774997897</speed>
  <fix>3d</fix>
</trkpt>
<trkpt lat="40.0713749" lon="-105.229789">
  <ele>1583.0</ele>
  <time>2026-08-28T17:50:45Z</time>
  <course>0.0</course>
  <speed>0.0</speed>
  <fix>3d</fix>
</trkpt>
<trkpt lat="40.071375" lon="-105.2297889">
  <ele>1582.88</ele>
  <time>2026-08-28T17:50:45Z</time>
  <course>247.08</course>
  <speed>0.022360679774997897</speed>
  <fix>3d</fix>
</trkpt>
<trkpt lat="40.0713749" lon="-105.229789">
  <ele>1583.0</ele>
  <time>2026-08-28T17:50:45Z</time>
  <course>0.0</course>
  <speed>0.0</speed>
  <fix>3d</fix>
</trkpt>
<trkpt lat="40.071375" lon="-105.2297889">
  <ele>1582.89</ele>
  <time>2026-08-28T17:50:45Z</time>
  <course>247.07</course>
  <speed>0.022360679774997897</speed>
  <fix>3d</fix>
</trkpt>
<trkpt lat="40.0713749" lon="-105.229789">
  <ele>1583.0</ele>
  <time>2026-08-28T17:50:45Z</time>
  <course>0.0</course>
  <speed>0.0</speed>
  <fix>3d</fix>
</trkpt>
<trkpt lat="40.071375" lon="-105.2297889">
  <ele>1582.89</ele>
  <time>2026-08-28T17:50:45Z</time>
  <course>247.07</course>
  <speed>0.022360679774997897</speed>
  <fix>3d</fix>
</trkpt>
<trkpt lat="40.0713749" lon="-105.229789">
  <ele>1583.0</ele>
  <time>2026-08-28T17:50:45Z</time>
  <course>0.0</course>
  <speed>0.0</speed>
  <fix>3d</fix>
</trkpt>
<trkpt lat="40.071375" lon="-105.2297889">
  <ele>1582.89</ele>
  <time>2026-08-28T17:50:45Z</time>
  <course>247.07</course>
  <speed>0.022360679774997897</speed>
  <fix>3d</fix>
</trkpt>
<trkpt lat="40.0713749" lon="-105.229789">
  <ele>1583.0</ele>
  <time>2026-08-28T17:50:45Z</time>
  <course>0.0</course>
  <speed>0.0</speed>
  <fix>3d</fix>
</trkpt>
<trkpt lat="40.071375" lon="-105.2297889">
  <ele>1582.9</ele>
  <time>2026-08-28T17:50:45Z</time>
  <course>247.07</course>
  <speed>0.022360679774997897</speed>
  <fix>3d</fix>
</trkpt>
<trkpt lat="40.0713749" lon="-105.229789">
  <ele>1583.0</ele>
  <time>2026-08-28T17:50:45Z</time>
  <course>0.0</course>
  <speed>0.0</speed>
  <fix>3d</fix>
</trkpt>
<trkpt lat="40.071375" lon="-105.2297889">
  <ele>1582.91</ele>
  <time>2026-08-28T17:50:45Z</time>
  <course>247.07</course>
  <speed>0.022360679774997897</speed>
  <fix>3d</fix>
</trkpt>
<trkpt lat="40.0713749" lon="-105.229789">
  <ele>1583.0</ele>
  <time>2026-08-28T17:50:45Z</time>
  <course>0.0</course>
  <speed>0.0</speed>
  <fix>3d</fix>
</trkpt>
<trkpt lat="40.071375" lon="-105.2297889">
  <ele>1582.91</ele>
  <time>2026-08-28T17:50:45Z</time>
  <course>247.07</course>
  <speed>0.022360679774997897</speed>
  <fix>3d</fix>
</trkpt>
<trkpt lat="40.0713749" lon="-105.229789">
  <ele>1583.0</ele>
  <time>2026-08-28T17:50:45Z</time>
  <course>0.0</course>
  <speed>0.0</speed>
  <fix>3d</fix>
</trkpt>
<trkpt lat="40.0713751" lon="-105.2297889">
  <ele>1582.92</ele>
  <time>2026-08-28T17:50:45Z</time>
  <course>247.07</course>
  <speed>0.022360679774997897</speed>
  <fix>3d</fix>
</trkpt>
<trkpt lat="40.0713749" lon="-105.229789">
  <ele>1583.0</ele>
  <time>2026-08-28T17:50:45Z</time>
  <course>0.0</course>
  <speed>0.0</speed>
  <fix>3d</fix>
</trkpt>
<trkpt lat="40.071375" lon="-105.2297889">
  <ele>1582.93</ele>
  <time>2026-08-28T17:50:45Z</time>
  <course>247.07</course>
  <speed>0.022360679774997897</speed>
  <fix>3d</fix>
</trkpt>
<trkpt lat="40.0713749" lon="-105.229789">
  <ele>1583.0</ele>
  <time>2026-08-28T17:50:45Z</time>
  <course>0.0</course>
  <speed>0.0</speed>
  <fix>3d</fix>
</trkpt>
<trkpt lat="40.0713751" lon="-105.2297889">
  <ele>1582.94</ele>
  <time>2026-08-28T17:50:45Z</time>
  <course>247.07</course>
  <speed>0.022360679774997897</speed>
  <fix>3d</fix>
</trkpt>
<trkpt lat="40.0713749" lon="-105.229789">
  <ele>1583.0</ele>
  <time>2026-08-28T17:50:45Z</time>
  <course>0.0</course>
  <speed>0.0</speed>
  <fix>3d</fix>
</trkpt>
<trkpt lat="40.071375" lon="-105.2297889">
  <ele>1582.95</ele>
  <time>2026-08-28T17:50:45Z</time>
  <course>247.07</course>
  <speed>0.022360679774997897</speed>
  <fix>3d</fix>
</trkpt>
<trkpt lat="40.0713749" lon="-105.229789">
  <ele>1583.0</ele>
  <time>2026-08-28T17:50:45Z</time>
  <course>0.0</course>
  <speed>0.0</speed>
  <fix>3d</fix>
</trkpt>
<trkpt lat="40.0713751" lon="-105.2297889">
  <ele>1582.96</ele>
  <time>2026-08-28T17:50:45Z</time>
  <course>247.07</course>
  <speed>0.022360679774997897</speed>
  <fix>3d</fix>
</trkpt>
<trkpt lat="40.0713749" lon="-105.229789">
  <ele>1583.0</ele>
  <time>2026-08-28T17:50:45Z</time>
  <course>0.0</course>
  <speed>0.0</speed>
  <fix>3d</fix>
</trkpt>
<trkpt lat="40.071375" lon="-105.2297889">
  <ele>1582.96</ele>
  <time>2026-08-28T17:50:45Z</time>
  <course>247.07</course>
  <speed>0.022360679774997897</speed>
  <fix>3d</fix>
</trkpt>
<trkpt lat="40.0713749" lon="-105.229789">
  <ele>1583.0</ele>
  <time>2026-08-28T17:50:45Z</time>
  <course>0.0</course>
  <speed>0.0</speed>
  <fix>3d</fix>
</trkpt>
<trkpt lat="40.0713751" lon="-105.2297889">
  <ele>1582.97</ele>
  <time>2026-08-28T17:50:45Z</time>
  <course>247.07</course>
  <speed>0.022360679774997897</speed>
  <fix>3d</fix>
</trkpt>
<trkpt lat="40.0713749" lon="-105.229789">
  <ele>1583.0</ele>
  <time>2026-08-28T17:50:45Z</time>
  <course>0.0</course>
  <speed>0.0</speed>
  <fix>3d</fix>
</trkpt>
<trkpt lat="40.071375" lon="-105.2297889">
  <ele>1582.98</ele>
  <time>2026-08-28T17:50:45Z</time>
  <course>247.07</course>
  <speed>0.022360679774997897</speed>
  <fix>3d</fix>
</trkpt>
<trkpt lat="40.0713749" lon="-105.229789">
  <ele>1583.0</ele>
  <time>2026-08-28T17:50:45Z</time>
  <course>0.0</course>
  <speed>0.0</speed>
  <fix>3d</fix>
</trkpt>
<trkpt lat="40.0713751" lon="-105.2297889">
  <ele>1582.99</ele>
  <time>2026-08-28T17:50:45Z</time>
  <course>247.07</course>
  <speed>0.022360679774997897</speed>
  <fix>3d</fix>
</trkpt>
<trkpt lat="40.0713749" lon="-105.229789">
  <ele>1583.0</ele>
  <time>2026-08-28T17:50:45Z</time>
  <course>0.0</course>
  <speed>0.0</speed>
  <fix>3d</fix>
</trkpt>
<trkpt lat="40.071375" lon="-105.2297889">
  <ele>1583.0</ele>
  <time>2026-08-28T17:50:45Z</time>
  <course>247.07</course>
  <speed>0.022360679774997897</speed>
  <fix>3d</fix>
</trkpt>
<trkpt lat="40.0713749" lon="-105.229789">
  <ele>1583.0</ele>
  <time>2026-08-28T17:50:45Z</time>
  <course>0.0</course>
  <speed>0.0</speed>
  <fix>3d</fix>
</trkpt>
<trkpt lat="40.0713751" lon="-105.2297889">
  <ele>1583.01</ele>
  <time>2026-08-28T17:50:45Z</time>
  <course>247.07</course>
  <speed>0.022360679774997897</speed>
  <fix>3d</fix>
</trkpt>
<trkpt lat="40.0713749" lon="-105.229789">
  <ele>1583.0</ele>
  <time>2026-08-28T17:50:45Z</time>
  <course>0.0</course>
  <speed>0.0</speed>
  <fix>3d</fix>
</trkpt>
<trkpt lat="40.071375" lon="-105.2297889">
  <ele>1583.02</ele>
  <time>2026-08-28T17:50:45Z</time>
  <course>247.07</course>
  <speed>0.022360679774997897</speed>
  <fix>3d</fix>
</trkpt>
<trkpt lat="40.0713749" lon="-105.229789">
  <ele>1583.0</ele>
  <time>2026-08-28T17:50:45Z</time>
  <course>0.0</course>
  <speed>0.0</speed>
  <fix>3d</fix>
</trkpt>
<trkpt lat="40.0713751" lon="-105.2297889">
  <ele>1583.03</ele>
  <time>2026-08-28T17:50:45Z</time>
  <course>247.07</course>
  <speed>0.022360679774997897</speed>
  <fix>3d</fix>
</trkpt>
<trkpt lat="40.0713749" lon="-105.229789">
  <ele>1583.0</ele>
  <time>2026-08-28T17:50:45Z</time>
  <course>0.0</course>
  <speed>0.0</speed>
  <fix>3d</fix>
</trkpt>
<trkpt lat="40.071375" lon="-105.2297889">
  <ele>1583.04</ele>
  <time>2026-08-28T17:50:45Z</time>
  <course>247.07</course>
  <speed>0.022360679774997897</speed>
  <fix>3d</fix>
</trkpt>
<trkpt lat="40.0713749" lon="-105.229789">
  <ele>1583.0</ele>
  <time>2026-08-28T17:50:45Z</time>
  <course>0.0</course>
  <speed>0.0</speed>
  <fix>3d</fix>
</trkpt>
<trkpt lat="40.0713751" lon="-105.2297889">
  <ele>1583.05</ele>
  <time>2026-08-28T17:50:45Z</time>
  <course>247.07</course>
  <speed>0.022360679774997897</speed>
  <fix>3d</fix>
</trkpt>
<trkpt lat="40.0713749" lon="-105.229789">
  <ele>1583.0</ele>
  <time>2026-08-28T17:50:45Z</time>
  <course>0.0</course>
  <speed>0.0</speed>
  <fix>3d</fix>
</trkpt>
<trkpt lat="40.071375" lon="-105.2297889">
  <ele>1583.05</ele>
  <time>2026-08-28T17:50:45Z</time>
  <course>247.07</course>
  <speed>0.022360679774997897</speed>
  <fix>3d</fix>
</trkpt>
<trkpt lat="40.0713749" lon="-105.229789">
  <ele>1583.0</ele>
  <time>2026-08-28T17:50:45Z</time>
  <course>0.0</course>
  <speed>0.0</speed>
  <fix>3d</fix>
</trkpt>
<trkpt lat="40.0713751" lon="-105.2297889">
  <ele>1583.06</ele>
  <time>2026-08-28T17:50:45Z</time>
  <course>247.07</course>
  <speed>0.022360679774997897</speed>
  <fix>3d</fix>
</trkpt>
<trkpt lat="40.0713749" lon="-105.229789">
  <ele>1583.0</ele>
  <time>2026-08-28T17:50:45Z</time>
  <course>0.0</course>
  <speed>0.0</speed>
  <fix>3d</fix>
</trkpt>
<trkpt lat="40.071375" lon="-105.2297889">
  <ele>1583.06</ele>
  <time>2026-08-28T17:50:45Z</time>
  <course>247.07</course>
  <speed>0.022360679774997897</speed>
  <fix>3d</fix>
</trkpt>
<trkpt lat="40.0713749" lon="-105.229789">
  <ele>1583.0</ele>
  <time>2026-08-28T17:50:45Z</time>
  <course>0.0</course>
  <speed>0.0</speed>
  <fix>3d</fix>
</trkpt>
<trkpt lat="40.0713751" lon="-105.2297889">
  <ele>1583.06</ele>
  <time>2026-08-28T17:50:45Z</time>
  <course>247.07</course>
  <speed>0.022360679774997897</speed>
  <fix>3d</fix>
</trkpt>
<trkpt lat="40.0713749" lon="-105.229789">
  <ele>1583.0</ele>
  <time>2026-08-28T17:50:45Z</time>
  <course>0.0</course>
  <speed>0.0</speed>
  <fix>3d</fix>
</trkpt>
<trkpt lat="40.071375" lon="-105.2297889">
  <ele>1583.06</ele>
  <time>2026-08-28T17:50:45Z</time>
  <course>247.07</course>
  <speed>0.022360679774997897</speed>
  <fix>3d</fix>
</trkpt>
<trkpt lat="40.0713749" lon="-105.229789">
  <ele>1583.0</ele>
  <time>2026-08-28T17:50:45Z</time>
  <course>0.0</course>
  <speed>0.0</speed>
  <fix>3d</fix>
</trkpt>
<trkpt lat="40.0713751" lon="-105.2297889">
  <ele>1583.06</ele>
  <time>2026-08-28T17:50:45Z</time>
  <course>247.07</course>
  <speed>0.022360679774997897</speed>
  <fix>3d</fix>
</trkpt>
<trkpt lat="40.0713749" lon="-105.229789">
  <ele>1583.0</ele>
  <time>2026-08-28T17:50:45Z</time>
  <course>0.0</course>
  <speed>0.0</speed>
  <fix>3d</fix>
</trkpt>
<trkpt lat="40.071375" lon="-105.2297889">
  <ele>1583.06</ele>
  <time>2026-08-28T17:50:45Z</time>
  <course>247.07</course>
  <speed>0.022360679774997897</speed>
  <fix>3d</fix>
</trkpt>
<trkpt lat="40.0713749" lon="-105.229789">
  <ele>1583.0</ele>
  <time>2026-08-28T17:50:45Z</time>
  <course>0.0</course>
  <speed>0.0</speed>
  <fix>3d</fix>
</trkpt>
<trkpt lat="40.0713751" lon="-105.2297889">
  <ele>1583.06</ele>
  <time>2026-08-28T17:50:45Z</time>
  <course>247.07</course>
  <speed>0.022360679774997897</speed>
  <fix>3d</fix>
</trkpt>
<trkpt lat="40.0713749" lon="-105.229789">
  <ele>1583.0</ele>
  <time>2026-08-28T17:50:45Z</time>
  <course>0.0</course>
  <speed>0.0</speed>
  <fix>3d</fix>
</trkpt>
<trkpt lat="40.071375" lon="-105.2297889">
  <ele>1583.06</ele>
  <time>2026-08-28T17:50:45Z</time>
  <course>247.07</course>
  <speed>0.022360679774997897</speed>
  <fix>3d</fix>
</trkpt>
<trkpt lat="40.0713749" lon="-105.229789">
  <ele>1583.0</ele>
  <time>2026-08-28T17:50:45Z</time>
  <course>0.0</course>
  <speed>0.0</speed>
  <fix>3d</fix>
</trkpt>
<trkpt lat="40.0713751" lon="-105.2297889">
  <ele>1583.06</ele>
  <time>2026-08-28T17:50:45Z</time>
  <course>247.07</course>
  <speed>0.022360679774997897</speed>
  <fix>3d</fix>
</trkpt>
<trkpt lat="40.0713749" lon="-105.229789">
  <ele>1583.0</ele>
  <time>2026-08-28T17:50:45Z</time>
  <course>0.0</course>
  <speed>0.0</speed>
  <fix>3d</fix>
</trkpt>
<trkpt lat="40.071375" lon="-105.2297889">
  <ele>1583.06</ele>
  <time>2026-08-28T17:50:45Z</time>
  <course>247.07</course>
  <speed>0.022360679774997897</speed>
  <fix>3d</fix>
</trkpt>
<trkpt lat="40.0713749" lon="-105.229789">
  <ele>1583.0</ele>
  <time>2026-08-28T17:50:45Z</time>
  <course>0.0</course>
  <speed>0.0</speed>
  <fix>3d</fix>
</trkpt>
<trkpt lat="40.0713751" lon="-105.2297889">
  <ele>1583.06</ele>
  <time>2026-08-28T17:50:45Z</time>
  <course>247.07</course>
  <speed>0.022360679774997897</speed>
  <fix>3d</fix>
</trkpt>
<trkpt lat="40.0713749" lon="-105.229789">
  <ele>1583.0</ele>
  <time>2026-08-28T17:50:45Z</time>
  <course>0.0</course>
  <speed>0.0</speed>
  <fix>3d</fix>
</trkpt>
<trkpt lat="40.0713751" lon="-105.2297889">
  <ele>1583.07</ele>
  <time>2026-08-28T17:50:45Z</time>
  <course>247.07</course>
  <speed>0.022360679774997897</speed>
  <fix>3d</fix>
</trkpt>
<trkpt lat="40.0713749" lon="-105.229789">
  <ele>1583.0</ele>
  <time>2026-08-28T17:50:45Z</time>
  <course>0.0</course>
  <speed>0.0</speed>
  <fix>3d</fix>
</trkpt>
<trkpt lat="40.0713751" lon="-105.2297889">
  <ele>1583.07</ele>
  <time>2026-08-28T17:50:45Z</time>
  <course>247.07</course>
  <speed>0.022360679774997897</speed>
  <fix>3d</fix>
</trkpt>
<trkpt lat="40.0713749" lon="-105.229789">
  <ele>1583.0</ele>
  <time>2026-08-28T17:50:45Z</time>
  <course>0.0</course>
  <speed>0.0</speed>
  <fix>3d</fix>
</trkpt>
<trkpt lat="40.0713751" lon="-105.2297889">
  <ele>1583.07</ele>
  <time>2026-08-28T17:50:45Z</time>
  <course>247.07</course>
  <speed>0.022360679774997897</speed>
  <fix>3d</fix>
</trkpt>
<trkpt lat="40.0713749" lon="-105.229789">
  <ele>1583.0</ele>
  <time>2026-08-28T17:50:45Z</time>
  <course>0.0</course>
  <speed>0.0</speed>
  <fix>3d</fix>
</trkpt>
<trkpt lat="40.0713751" lon="-105.2297889">
  <ele>1583.07</ele>
  <time>2026-08-28T17:50:45Z</time>
  <course>247.07</course>
  <speed>0.022360679774997897</speed>
  <fix>3d</fix>
</trkpt>
<trkpt lat="40.0713749" lon="-105.229789">
  <ele>1583.0</ele>
  <time>2026-08-28T17:50:45Z</time>
  <course>0.0</course>
  <speed>0.0</speed>
  <fix>3d</fix>
</trkpt>
<trkpt lat="40.071375" lon="-105.2297889">
  <ele>1583.07</ele>
  <time>2026-08-28T17:50:45Z</time>
  <course>247.07</course>
  <speed>0.022360679774997897</speed>
  <fix>3d</fix>
</trkpt>
<trkpt lat="40.0713749" lon="-105.229789">
  <ele>1583.0</ele>
  <time>2026-08-28T17:50:45Z</time>
  <course>0.0</course>
  <speed>0.0</speed>
  <fix>3d</fix>
</trkpt>
<trkpt lat="40.0713751" lon="-105.2297889">
  <ele>1583.07</ele>
  <time>2026-08-28T17:50:45Z</time>
  <course>247.07</course>
  <speed>0.022360679774997897</speed>
  <fix>3d</fix>
</trkpt>
<trkpt lat="40.0713749" lon="-105.229789">
  <ele>1583.0</ele>
  <time>2026-08-28T17:50:45Z</time>
  <course>0.0</course>
  <speed>0.0</speed>
  <fix>3d</fix>
</trkpt>
<trkpt lat="40.071375" lon="-105.2297889">
  <ele>1583.07</ele>
  <time>2026-08-28T17:50:45Z</time>
  <course>247.07</course>
  <speed>0.022360679774997897</speed>
  <fix>3d</fix>
</trkpt>
<trkpt lat="40.0713749" lon="-105.229789">
  <ele>1583.0</ele>
  <time>2026-08-28T17:50:45Z</time>
  <course>0.0</course>
  <speed>0.0</speed>
  <fix>3d</fix>
</trkpt>
<trkpt lat="40.0713751" lon="-105.2297889">
  <ele>1583.07</ele>
  <time>2026-08-28T17:50:45Z</time>
  <course>247.07</course>
  <speed>0.022360679774997897</speed>
  <fix>3d</fix>
</trkpt>
<trkpt lat="40.0713749" lon="-105.229789">
  <ele>1583.0</ele>
  <time>2026-08-28T17:50:45Z</time>
  <course>0.0</course>
  <speed>0.0</speed>
  <fix>3d</fix>
</trkpt>
<trkpt lat="40.071375" lon="-105.2297889">
  <ele>1583.07</ele>
  <time>2026-08-28T17:50:45Z</time>
  <course>247.07</course>
  <speed>0.022360679774997897</speed>
  <fix>3d</fix>
</trkpt>
<trkpt lat="40.0713749" lon="-105.229789">
  <ele>1583.0</ele>
  <time>2026-08-28T17:50:45Z</time>
  <course>0.0</course>
  <speed>0.0</speed>
  <fix>3d</fix>
</trkpt>
<trkpt lat="40.0713751" lon="-105.2297889">
  <ele>1583.07</ele>
  <time>2026-08-28T17:50:45Z</time>
  <course>247.07</course>
  <speed>0.022360679774997897</speed>
  <fix>3d</fix>
</trkpt>
<trkpt lat="40.0713749" lon="-105.229789">
  <ele>1583.0</ele>
  <time>2026-08-28T17:50:45Z</time>
  <course>0.0</course>
  <speed>0.0</speed>
  <fix>3d</fix>
</trkpt>
<trkpt lat="40.071375" lon="-105.2297889">
  <ele>1583.07</ele>
  <time>2026-08-28T17:50:45Z</time>
  <course>247.07</course>
  <speed>0.022360679774997897</speed>
  <fix>3d</fix>
</trkpt>
<trkpt lat="40.0713749" lon="-105.229789">
  <ele>1583.0</ele>
  <time>2026-08-28T17:50:45Z</time>
  <course>0.0</course>
  <speed>0.0</speed>
  <fix>3d</fix>
</trkpt>
<trkpt lat="40.0713751" lon="-105.2297889">
  <ele>1583.07</ele>
  <time>2026-08-28T17:50:45Z</time>
  <course>247.07</course>
  <speed>0.022360679774997897</speed>
  <fix>3d</fix>
</trkpt>
<trkpt lat="40.0713749" lon="-105.229789">
  <ele>1583.0</ele>
  <time>2026-08-28T17:50:45Z</time>
  <course>0.0</course>
  <speed>0.0</speed>
  <fix>3d</fix>
</trkpt>
<trkpt lat="40.071375" lon="-105.2297889">
  <ele>1583.06</ele>
  <time>2026-08-28T17:50:45Z</time>
  <course>247.07</course>
  <speed>0.022360679774997897</speed>
  <fix>3d</fix>
</trkpt>
<trkpt lat="40.0713749" lon="-105.229789">
  <ele>1583.0</ele>
  <time>2026-08-28T17:50:45Z</time>
  <course>0.0</course>
  <speed>0.0</speed>
  <fix>3d</fix>
</trkpt>
<trkpt lat="40.0713751" lon="-105.2297889">
  <ele>1583.06</ele>
  <time>2026-08-28T17:50:45Z</time>
  <course>247.07</course>
  <speed>0.022360679774997897</speed>
  <fix>3d</fix>
</trkpt>
<trkpt lat="40.0713749" lon="-105.229789">
  <ele>1583.0</ele>
  <time>2026-08-28T17:50:45Z</time>
  <course>0.0</course>
  <speed>0.0</speed>
  <fix>3d</fix>
</trkpt>
<trkpt lat="40.071375" lon="-105.2297889">
  <ele>1583.07</ele>
  <time>2026-08-28T17:50:45Z</time>
  <course>247.07</course>
  <speed>0.022360679774997897</speed>
  <fix>3d</fix>
</trkpt>
<trkpt lat="40.0713749" lon="-105.229789">
  <ele>1583.0</ele>
  <time>2026-08-28T17:50:45Z</time>
  <course>0.0</course>
  <speed>0.0</speed>
  <fix>3d</fix>
</trkpt>
<trkpt lat="40.0713751" lon="-105.2297889">
  <ele>1583.07</ele>
  <time>2026-08-28T17:50:45Z</time>
  <course>247.07</course>
  <speed>0.022360679774997897</speed>
  <fix>3d</fix>
</trkpt>
<trkpt lat="40.0713749" lon="-105.229789">
  <ele>1583.0</ele>
  <time>2026-08-28T17:50:45Z</time>
  <course>0.0</course>
  <speed>0.0</speed>
  <fix>3d</fix>
</trkpt>
<trkpt lat="40.071375" lon="-105.2297889">
  <ele>1583.08</ele>
  <time>2026-08-28T17:50:45Z</time>
  <course>247.07</course>
  <speed>0.02</speed>
  <fix>3d</fix>
</trkpt>
<trkpt lat="40.0713749" lon="-105.229789">
  <ele>1583.0</ele>
  <time>2026-08-28T17:50:45Z</time>
  <course>0.0</course>
  <speed>0.0</speed>
  <fix>3d</fix>
</trkpt>
<trkpt lat="40.0713751" lon="-105.2297889">
  <ele>1583.09</ele>
  <time>2026-08-28T17:50:45Z</time>
  <course>247.07</course>
  <speed>0.022360679774997897</speed>
  <fix>3d</fix>
</trkpt>
<trkpt lat="40.0713749" lon="-105.229789">
  <ele>1583.0</ele>
  <time>2026-08-28T17:50:45Z</time>
  <course>0.0</course>
  <speed>0.0</speed>
  <fix>3d</fix>
</trkpt>
<trkpt lat="40.0713751" lon="-105.2297889">
  <ele>1583.09</ele>
  <time>2026-08-28T17:50:45Z</time>
  <course>247.07</course>
  <speed>0.022360679774997897</speed>
  <fix>3d</fix>
</trkpt>
<trkpt lat="40.0713749" lon="-105.229789">
  <ele>1583.0</ele>
  <time>2026-08-28T17:50:45Z</time>
  <course>0.0</course>
  <speed>0.0</speed>
  <fix>3d</fix>
</trkpt>
<trkpt lat="40.0713751" lon="-105.2297889">
  <ele>1583.1</ele>
  <time>2026-08-28T17:50:45Z</time>
  <course>247.07</course>
  <speed>0.022360679774997897</speed>
  <fix>3d</fix>
</trkpt>
<trkpt lat="40.0713749" lon="-105.229789">
  <ele>1583.0</ele>
  <time>2026-08-28T17:50:45Z</time>
  <course>0.0</course>
  <speed>0.0</speed>
  <fix>3d</fix>
</trkpt>
<trkpt lat="40.0713751" lon="-105.2297889">
  <ele>1583.11</ele>
  <time>2026-08-28T17:50:45Z</time>
  <course>247.07</course>
  <speed>0.022360679774997897</speed>
  <fix>3d</fix>
</trkpt>
<trkpt lat="40.0713749" lon="-105.229789">
  <ele>1583.0</ele>
  <time>2026-08-28T17:50:45Z</time>
  <course>0.0</course>
  <speed>0.0</speed>
  <fix>3d</fix>
</trkpt>
<trkpt lat="40.0713751" lon="-105.2297889">
  <ele>1583.11</ele>
  <time>2026-08-28T17:50:45Z</time>
  <course>247.07</course>
  <speed>0.022360679774997897</speed>
  <fix>3d</fix>
</trkpt>
<trkpt lat="40.0713749" lon="-105.229789">
  <ele>1583.0</ele>
  <time>2026-08-28T17:50:45Z</time>
  <course>0.0</course>
  <speed>0.0</speed>
  <fix>3d</fix>
</trkpt>
<trkpt lat="40.0713751" lon="-105.2297889">
  <ele>1583.12</ele>
  <time>2026-08-28T17:50:45Z</time>
  <course>247.07</course>
  <speed>0.022360679774997897</speed>
  <fix>3d</fix>
</trkpt>
<trkpt lat="40.0713749" lon="-105.229789">
  <ele>1583.0</ele>
  <time>2026-08-28T17:50:45Z</time>
  <course>0.0</course>
  <speed>0.0</speed>
  <fix>3d</fix>
</trkpt>
<trkpt lat="40.0713751" lon="-105.2297889">
  <ele>1583.12</ele>
  <time>2026-08-28T17:50:45Z</time>
  <course>247.07</course>
  <speed>0.022360679774997897</speed>
  <fix>3d</fix>
</trkpt>
<trkpt lat="40.0713749" lon="-105.229789">
  <ele>1583.0</ele>
  <time>2026-08-28T17:50:45Z</time>
  <course>0.0</course>
  <speed>0.0</speed>
  <fix>3d</fix>
</trkpt>
<trkpt lat="40.0713751" lon="-105.2297889">
  <ele>1583.12</ele>
  <time>2026-08-28T17:50:45Z</time>
  <course>247.07</course>
  <speed>0.022360679774997897</speed>
  <fix>3d</fix>
</trkpt>
<trkpt lat="40.0713749" lon="-105.229789">
  <ele>1583.0</ele>
  <time>2026-08-28T17:50:45Z</time>
  <course>0.0</course>
  <speed>0.0</speed>
  <fix>3d</fix>
</trkpt>
<trkpt lat="40.0713751" lon="-105.2297889">
  <ele>1583.12</ele>
  <time>2026-08-28T17:50:45Z</time>
  <course>247.07</course>
  <speed>0.022360679774997897</speed>
  <fix>3d</fix>
</trkpt>
<trkpt lat="40.0713749" lon="-105.229789">
  <ele>1583.0</ele>
  <time>2026-08-28T17:50:45Z</time>
  <course>0.0</course>
  <speed>0.0</speed>
  <fix>3d</fix>
</trkpt>
<trkpt lat="40.071375" lon="-105.2297889">
  <ele>1583.11</ele>
  <time>2026-08-28T17:50:45Z</time>
  <course>247.07</course>
  <speed>0.02</speed>
  <fix>3d</fix>
</trkpt>
<trkpt lat="40.0713749" lon="-105.229789">
  <ele>1583.0</ele>
  <time>2026-08-28T17:50:45Z</time>
  <course>0.0</course>
  <speed>0.0</speed>
  <fix>3d</fix>
</trkpt>
<trkpt lat="40.0713751" lon="-105.2297889">
  <ele>1583.11</ele>
  <time>2026-08-28T17:50:45Z</time>
  <course>247.07</course>
  <speed>0.022360679774997897</speed>
  <fix>3d</fix>
</trkpt>
<trkpt lat="40.0713749" lon="-105.229789">
  <ele>1583.0</ele>
  <time>2026-08-28T17:50:45Z</time>
  <course>0.0</course>
  <speed>0.0</speed>
  <fix>3d</fix>
</trkpt>
<trkpt lat="40.071375" lon="-105.2297889">
  <ele>1583.1</ele>
  <time>2026-08-28T17:50:45Z</time>
  <course>247.07</course>
  <speed>0.02</speed>
  <fix>3d</fix>
</trkpt>
<trkpt lat="40.0713749" lon="-105.229789">
  <ele>1583.0</ele>
  <time>2026-08-28T17:50:45Z</time>
  <course>0.0</course>
  <speed>0.0</speed>
  <fix>3d</fix>
</trkpt>
<trkpt lat="40.0713751" lon="-105.2297889">
  <ele>1583.1</ele>
  <time>2026-08-28T17:50:45Z</time>
  <course>247.07</course>
  <speed>0.022360679774997897</speed>
  <fix>3d</fix>
</trkpt>
<trkpt lat="40.0713749" lon="-105.229789">
  <ele>1583.0</ele>
  <time>2026-08-28T17:50:45Z</time>
  <course>0.0</course>
  <speed>0.0</speed>
  <fix>3d</fix>
</trkpt>
<trkpt lat="40.071375" lon="-105.2297889">
  <ele>1583.09</ele>
  <time>2026-08-28T17:50:45Z</time>
  <course>247.07</course>
  <speed>0.02</speed>
  <fix>3d</fix>
</trkpt>
<trkpt lat="40.0713749" lon="-105.229789">
  <ele>1583.0</ele>
  <time>2026-08-28T17:50:45Z</time>
  <course>0.0</course>
  <speed>0.0</speed>
  <fix>3d</fix>
</trkpt>
<trkpt lat="40.0713751" lon="-105.2297889">
  <ele>1583.09</ele>
  <time>2026-08-28T17:50:45Z</time>
  <course>247.07</course>
  <speed>0.022360679774997897</speed>
  <fix>3d</fix>
</trkpt>
<trkpt lat="40.0713749" lon="-105.229789">
  <ele>1583.0</ele>
  <time>2026-08-28T17:50:45Z</time>
  <course>0.0</course>
  <speed>0.0</speed>
  <fix>3d</fix>
</trkpt>
<trkpt lat="40.071375" lon="-105.2297889">
  <ele>1583.08</ele>
  <time>2026-08-28T17:50:45Z</time>
  <course>247.07</course>
  <speed>0.02</speed>
  <fix>3d</fix>
</trkpt>
<trkpt lat="40.0713749" lon="-105.229789">
  <ele>1583.0</ele>
  <time>2026-08-28T17:50:45Z</time>
  <course>0.0</course>
  <speed>0.0</speed>
  <fix>3d</fix>
</trkpt>
<trkpt lat="40.0713751" lon="-105.2297889">
  <ele>1583.07</ele>
  <time>2026-08-28T17:50:45Z</time>
  <course>247.07</course>
  <speed>0.022360679774997897</speed>
  <fix>3d</fix>
</trkpt>
<trkpt lat="40.0713749" lon="-105.229789">
  <ele>1583.0</ele>
  <time>2026-08-28T17:50:45Z</time>
  <course>0.0</course>
  <speed>0.0</speed>
  <fix>3d</fix>
</trkpt>
<trkpt lat="40.071375" lon="-105.2297889">
  <ele>1583.07</ele>
  <time>2026-08-28T17:50:45Z</time>
  <course>247.07</course>
  <speed>0.022360679774997897</speed>
  <fix>3d</fix>
</trkpt>
<trkpt lat="40.0713749" lon="-105.229789">
  <ele>1583.0</ele>
  <time>2026-08-28T17:50:45Z</time>
  <course>0.0</course>
  <speed>0.0</speed>
  <fix>3d</fix>
</trkpt>
<trkpt lat="40.0713751" lon="-105.2297889">
  <ele>1583.06</ele>
  <time>2026-08-28T17:50:45Z</time>
  <course>247.07</course>
  <speed>0.022360679774997897</speed>
  <fix>3d</fix>
</trkpt>
<trkpt lat="40.0713749" lon="-105.229789">
  <ele>1583.0</ele>
  <time>2026-08-28T17:50:45Z</time>
  <course>0.0</course>
  <speed>0.0</speed>
  <fix>3d</fix>
</trkpt>
<trkpt lat="40.071375" lon="-105.2297889">
  <ele>1583.05</ele>
  <time>2026-08-28T17:50:45Z</time>
  <course>247.07</course>
  <speed>0.022360679774997897</speed>
  <fix>3d</fix>
</trkpt>
<trkpt lat="40.0713749" lon="-105.229789">
  <ele>1583.0</ele>
  <time>2026-08-28T17:50:45Z</time>
  <course>0.0</course>
  <speed>0.0</speed>
  <fix>3d</fix>
</trkpt>
<trkpt lat="40.0713751" lon="-105.2297889">
  <ele>1583.04</ele>
  <time>2026-08-28T17:50:45Z</time>
  <course>247.07</course>
  <speed>0.022360679774997897</speed>
  <fix>3d</fix>
</trkpt>
<trkpt lat="40.0713749" lon="-105.229789">
  <ele>1583.0</ele>
  <time>2026-08-28T17:50:45Z</time>
  <course>0.0</course>
  <speed>0.0</speed>
  <fix>3d</fix>
</trkpt>
<trkpt lat="40.071375" lon="-105.2297889">
  <ele>1583.03</ele>
  <time>2026-08-28T17:50:45Z</time>
  <course>247.07</course>
  <speed>0.022360679774997897</speed>
  <fix>3d</fix>
</trkpt>
<trkpt lat="40.0713749" lon="-105.229789">
  <ele>1583.0</ele>
  <time>2026-08-28T17:50:45Z</time>
  <course>0.0</course>
  <speed>0.0</speed>
  <fix>3d</fix>
</trkpt>
<trkpt lat="40.0713751" lon="-105.2297889">
  <ele>1583.02</ele>
  <time>2026-08-28T17:50:45Z</time>
  <course>247.07</course>
  <speed>0.022360679774997897</speed>
  <fix>3d</fix>
</trkpt>
<trkpt lat="40.0713749" lon="-105.229789">
  <ele>1583.0</ele>
  <time>2026-08-28T17:50:45Z</time>
  <course>0.0</course>
  <speed>0.0</speed>
  <fix>3d</fix>
</trkpt>
<trkpt lat="40.0713751" lon="-105.2297889">
  <ele>1583.01</ele>
  <time>2026-08-28T17:50:45Z</time>
  <course>247.07</course>
  <speed>0.022360679774997897</speed>
  <fix>3d</fix>
</trkpt>
<trkpt lat="40.0713749" lon="-105.229789">
  <ele>1583.0</ele>
  <time>2026-08-28T17:50:45Z</time>
  <course>0.0</course>
  <speed>0.0</speed>
  <fix>3d</fix>
</trkpt>
<trkpt lat="40.0713751" lon="-105.2297889">
  <ele>1583.0</ele>
  <time>2026-08-28T17:50:45Z</time>
  <course>247.07</course>
  <speed>0.022360679774997897</speed>
  <fix>3d</fix>
</trkpt>
<trkpt lat="40.0713749" lon="-105.229789">
  <ele>1583.0</ele>
  <time>2026-08-28T17:50:45Z</time>
  <course>0.0</course>
  <speed>0.0</speed>
  <fix>3d</fix>
</trkpt>
<trkpt lat="40.0713751" lon="-105.2297889">
  <ele>1582.99</ele>
  <time>2026-08-28T17:50:45Z</time>
  <course>247.07</course>
  <speed>0.022360679774997897</speed>
  <fix>3d</fix>
</trkpt>
<trkpt lat="40.0713749" lon="-105.229789">
  <ele>1583.0</ele>
  <time>2026-08-28T17:50:45Z</time>
  <course>0.0</course>
  <speed>0.0</speed>
  <fix>3d</fix>
</trkpt>
<trkpt lat="40.0713751" lon="-105.2297889">
  <ele>1582.99</ele>
  <time>2026-08-28T17:50:45Z</time>
  <course>247.07</course>
  <speed>0.022360679774997897</speed>
  <fix>3d</fix>
</trkpt>
<trkpt lat="40.0713749" lon="-105.229789">
  <ele>1583.0</ele>
  <time>2026-08-28T17:50:45Z</time>
  <course>0.0</course>
  <speed>0.0</speed>
  <fix>3d</fix>
</trkpt>
<trkpt lat="40.0713751" lon="-105.2297889">
  <ele>1582.98</ele>
  <time>2026-08-28T17:50:45Z</time>
  <course>247.07</course>
  <speed>0.022360679774997897</speed>
  <fix>3d</fix>
</trkpt>
<trkpt lat="40.0713749" lon="-105.229789">
  <ele>1583.0</ele>
  <time>2026-08-28T17:50:45Z</time>
  <course>0.0</course>
  <speed>0.0</speed>
  <fix>3d</fix>
</trkpt>
<trkpt lat="40.0713751" lon="-105.2297889">
  <ele>1582.97</ele>
  <time>2026-08-28T17:50:45Z</time>
  <course>247.07</course>
  <speed>0.022360679774997897</speed>
  <fix>3d</fix>
</trkpt>
<trkpt lat="40.0713749" lon="-105.229789">
  <ele>1583.0</ele>
  <time>2026-08-28T17:50:45Z</time>
  <course>0.0</course>
  <speed>0.0</speed>
  <fix>3d</fix>
</trkpt>
<trkpt lat="40.071375" lon="-105.2297889">
  <ele>1582.96</ele>
  <time>2026-08-28T17:50:45Z</time>
  <course>247.07</course>
  <speed>0.022360679774997897</speed>
  <fix>3d</fix>
</trkpt>
<trkpt lat="40.0713749" lon="-105.229789">
  <ele>1583.0</ele>
  <time>2026-08-28T17:50:45Z</time>
  <course>0.0</course>
  <speed>0.0</speed>
  <fix>3d</fix>
</trkpt>
<trkpt lat="40.0713751" lon="-105.2297889">
  <ele>1582.95</ele>
  <time>2026-08-28T17:50:45Z</time>
  <course>247.07</course>
  <speed>0.022360679774997897</speed>
  <fix>3d</fix>
</trkpt>
<trkpt lat="40.0713749" lon="-105.229789">
  <ele>1583.0</ele>
  <time>2026-08-28T17:50:45Z</time>
  <course>0.0</course>
  <speed>0.0</speed>
  <fix>3d</fix>
</trkpt>
<trkpt lat="40.071375" lon="-105.2297889">
  <ele>1582.94</ele>
  <time>2026-08-28T17:50:45Z</time>
  <course>247.07</course>
  <speed>0.022360679774997897</speed>
  <fix>3d</fix>
</trkpt>
<trkpt lat="40.0713749" lon="-105.229789">
  <ele>1583.0</ele>
  <time>2026-08-28T17:50:45Z</time>
  <course>0.0</course>
  <speed>0.0</speed>
  <fix>3d</fix>
</trkpt>
<trkpt lat="40.0713751" lon="-105.2297889">
  <ele>1582.93</ele>
  <time>2026-08-28T17:50:45Z</time>
  <course>247.06</course>
  <speed>0.022360679774997897</speed>
  <fix>3d</fix>
</trkpt>
<trkpt lat="40.0713749" lon="-105.229789">
  <ele>1583.0</ele>
  <time>2026-08-28T17:50:45Z</time>
  <course>0.0</course>
  <speed>0.0</speed>
  <fix>3d</fix>
</trkpt>
<trkpt lat="40.071375" lon="-105.2297889">
  <ele>1582.93</ele>
  <time>2026-08-28T17:50:45Z</time>
  <course>247.06</course>
  <speed>0.022360679774997897</speed>
  <fix>3d</fix>
</trkpt>
<trkpt lat="40.0713749" lon="-105.229789">
  <ele>1583.0</ele>
  <time>2026-08-28T17:50:45Z</time>
  <course>0.0</course>
  <speed>0.0</speed>
  <fix>3d</fix>
</trkpt>
<trkpt lat="40.0713751" lon="-105.2297889">
  <ele>1582.92</ele>
  <time>2026-08-28T17:50:45Z</time>
  <course>247.06</course>
  <speed>0.022360679774997897</speed>
  <fix>3d</fix>
</trkpt>
<trkpt lat="40.0713749" lon="-105.229789">
  <ele>1583.0</ele>
  <time>2026-08-28T17:50:45Z</time>
  <course>0.0</course>
  <speed>0.0</speed>
  <fix>3d</fix>
</trkpt>
<trkpt lat="40.071375" lon="-105.2297889">
  <ele>1582.92</ele>
  <time>2026-08-28T17:50:45Z</time>
  <course>247.06</course>
  <speed>0.022360679774997897</speed>
  <fix>3d</fix>
</trkpt>
<trkpt lat="40.0713749" lon="-105.229789">
  <ele>1583.0</ele>
  <time>2026-08-28T17:50:45Z</time>
  <course>0.0</course>
  <speed>0.0</speed>
  <fix>3d</fix>
</trkpt>
<trkpt lat="40.0713751" lon="-105.2297889">
  <ele>1582.92</ele>
  <time>2026-08-28T17:50:45Z</time>
  <course>247.06</course>
  <speed>0.022360679774997897</speed>
  <fix>3d</fix>
</trkpt>
<trkpt lat="40.0713749" lon="-105.229789">
  <ele>1583.0</ele>
  <time>2026-08-28T17:50:45Z</time>
  <course>0.0</course>
  <speed>0.0</speed>
  <fix>3d</fix>
</trkpt>
<trkpt lat="40.071375" lon="-105.2297889">
  <ele>1582.92</ele>
  <time>2026-08-28T17:50:45Z</time>
  <course>247.06</course>
  <speed>0.022360679774997897</speed>
  <fix>3d</fix>
</trkpt>
<trkpt lat="40.0713749" lon="-105.229789">
  <ele>1583.0</ele>
  <time>2026-08-28T17:50:45Z</time>
  <course>0.0</course>
  <speed>0.0</speed>
  <fix>3d</fix>
</trkpt>
<trkpt lat="40.0713751" lon="-105.2297889">
  <ele>1582.92</ele>
  <time>2026-08-28T17:50:45Z</time>
  <course>247.06</course>
  <speed>0.022360679774997897</speed>
  <fix>3d</fix>
</trkpt>
<trkpt lat="40.0713749" lon="-105.229789">
  <ele>1583.0</ele>
  <time>2026-08-28T17:50:45Z</time>
  <course>0.0</course>
  <speed>0.0</speed>
  <fix>3d</fix>
</trkpt>
<trkpt lat="40.071375" lon="-105.2297889">
  <ele>1582.93</ele>
  <time>2026-08-28T17:50:45Z</time>
  <course>247.06</course>
  <speed>0.022360679774997897</speed>
  <fix>3d</fix>
</trkpt>
<trkpt lat="40.0713749" lon="-105.229789">
  <ele>1583.0</ele>
  <time>2026-08-28T17:50:45Z</time>
  <course>0.0</course>
  <speed>0.0</speed>
  <fix>3d</fix>
</trkpt>
<trkpt lat="40.0713751" lon="-105.2297889">
  <ele>1582.94</ele>
  <time>2026-08-28T17:50:45Z</time>
  <course>247.06</course>
  <speed>0.022360679774997897</speed>
  <fix>3d</fix>
</trkpt>
<trkpt lat="40.0713749" lon="-105.229789">
  <ele>1583.0</ele>
  <time>2026-08-28T17:50:45Z</time>
  <course>0.0</course>
  <speed>0.0</speed>
  <fix>3d</fix>
</trkpt>
<trkpt lat="40.071375" lon="-105.2297889">
  <ele>1582.94</ele>
  <time>2026-08-28T17:50:45Z</time>
  <course>247.06</course>
  <speed>0.022360679774997897</speed>
  <fix>3d</fix>
</trkpt>
<trkpt lat="40.0713749" lon="-105.229789">
  <ele>1583.0</ele>
  <time>2026-08-28T17:50:45Z</time>
  <course>0.0</course>
  <speed>0.0</speed>
  <fix>3d</fix>
</trkpt>
<trkpt lat="40.0713751" lon="-105.2297889">
  <ele>1582.95</ele>
  <time>2026-08-28T17:50:45Z</time>
  <course>247.06</course>
  <speed>0.022360679774997897</speed>
  <fix>3d</fix>
</trkpt>
<trkpt lat="40.0713749" lon="-105.229789">
  <ele>1583.0</ele>
  <time>2026-08-28T17:50:45Z</time>
  <course>0.0</course>
  <speed>0.0</speed>
  <fix>3d</fix>
</trkpt>
<trkpt lat="40.071375" lon="-105.2297889">
  <ele>1582.96</ele>
  <time>2026-08-28T17:50:45Z</time>
  <course>247.06</course>
  <speed>0.022360679774997897</speed>
  <fix>3d</fix>
</trkpt>
<trkpt lat="40.0713749" lon="-105.229789">
  <ele>1583.0</ele>
  <time>2026-08-28T17:50:45Z</time>
  <course>0.0</course>
  <speed>0.0</speed>
  <fix>3d</fix>
</trkpt>
<trkpt lat="40.0713751" lon="-105.2297889">
  <ele>1582.97</ele>
  <time>2026-08-28T17:50:45Z</time>
  <course>247.06</course>
  <speed>0.022360679774997897</speed>
  <fix>3d</fix>
</trkpt>
<trkpt lat="40.0713749" lon="-105.229789">
  <ele>1583.0</ele>
  <time>2026-08-28T17:50:45Z</time>
  <course>0.0</course>
  <speed>0.0</speed>
  <fix>3d</fix>
</trkpt>
<trkpt lat="40.0713751" lon="-105.2297889">
  <ele>1582.98</ele>
  <time>2026-08-28T17:50:45Z</time>
  <course>247.06</course>
  <speed>0.022360679774997897</speed>
  <fix>3d</fix>
</trkpt>
<trkpt lat="40.0713749" lon="-105.229789">
  <ele>1583.0</ele>
  <time>2026-08-28T17:50:45Z</time>
  <course>0.0</course>
  <speed>0.0</speed>
  <fix>3d</fix>
</trkpt>
<trkpt lat="40.0713751" lon="-105.2297889">
  <ele>1582.99</ele>
  <time>2026-08-28T17:50:45Z</time>
  <course>247.06</course>
  <speed>0.022360679774997897</speed>
  <fix>3d</fix>
</trkpt>
<trkpt lat="40.0713749" lon="-105.229789">
  <ele>1583.0</ele>
  <time>2026-08-28T17:50:45Z</time>
  <course>0.0</course>
  <speed>0.0</speed>
  <fix>3d</fix>
</trkpt>
<trkpt lat="40.0713751" lon="-105.2297889">
  <ele>1582.99</ele>
  <time>2026-08-28T17:50:45Z</time>
  <course>247.06</course>
  <speed>0.022360679774997897</speed>
  <fix>3d</fix>
</trkpt>
<trkpt lat="40.0713749" lon="-105.229789">
  <ele>1583.0</ele>
  <time>2026-08-28T17:50:45Z</time>
  <course>0.0</course>
  <speed>0.0</speed>
  <fix>3d</fix>
</trkpt>
<trkpt lat="40.0713751" lon="-105.2297889">
  <ele>1582.99</ele>
  <time>2026-08-28T17:50:45Z</time>
  <course>247.06</course>
  <speed>0.022360679774997897</speed>
  <fix>3d</fix>
</trkpt>
<trkpt lat="40.0713749" lon="-105.229789">
  <ele>1583.0</ele>
  <time>2026-08-28T17:50:45Z</time>
  <course>0.0</course>
  <speed>0.0</speed>
  <fix>3d</fix>
</trkpt>
<trkpt lat="40.0713751" lon="-105.2297889">
  <ele>1582.99</ele>
  <time>2026-08-28T17:50:45Z</time>
  <course>247.06</course>
  <speed>0.022360679774997897</speed>
  <fix>3d</fix>
</trkpt>
<trkpt lat="40.0713749" lon="-105.229789">
  <ele>1583.0</ele>
  <time>2026-08-28T17:50:45Z</time>
  <course>0.0</course>
  <speed>0.0</speed>
  <fix>3d</fix>
</trkpt>
<trkpt lat="40.0713751" lon="-105.2297889">
  <ele>1582.98</ele>
  <time>2026-08-28T17:50:45Z</time>
  <course>247.06</course>
  <speed>0.022360679774997897</speed>
  <fix>3d</fix>
</trkpt>
<trkpt lat="40.0713749" lon="-105.229789">
  <ele>1583.0</ele>
  <time>2026-08-28T17:50:45Z</time>
  <course>0.0</course>
  <speed>0.0</speed>
  <fix>3d</fix>
</trkpt>
<trkpt lat="40.071375" lon="-105.2297889">
  <ele>1582.98</ele>
  <time>2026-08-28T17:50:45Z</time>
  <course>247.06</course>
  <speed>0.022360679774997897</speed>
  <fix>3d</fix>
</trkpt>
<trkpt lat="40.0713749" lon="-105.229789">
  <ele>1583.0</ele>
  <time>2026-08-28T17:50:45Z</time>
  <course>0.0</course>
  <speed>0.0</speed>
  <fix>3d</fix>
</trkpt>
<trkpt lat="40.0713751" lon="-105.2297889">
  <ele>1582.97</ele>
  <time>2026-08-28T17:50:45Z</time>
  <course>247.06</course>
  <speed>0.022360679774997897</speed>
  <fix>3d</fix>
</trkpt>
<trkpt lat="40.0713749" lon="-105.229789">
  <ele>1583.0</ele>
  <time>2026-08-28T17:50:45Z</time>
  <course>0.0</course>
  <speed>0.0</speed>
  <fix>3d</fix>
</trkpt>
<trkpt lat="40.071375" lon="-105.2297889">
  <ele>1582.97</ele>
  <time>2026-08-28T17:50:45Z</time>
  <course>247.06</course>
  <speed>0.022360679774997897</speed>
  <fix>3d</fix>
</trkpt>
<trkpt lat="40.0713749" lon="-105.229789">
  <ele>1583.0</ele>
  <time>2026-08-28T17:50:45Z</time>
  <course>0.0</course>
  <speed>0.0</speed>
  <fix>3d</fix>
</trkpt>
<trkpt lat="40.0713751" lon="-105.2297889">
  <ele>1582.96</ele>
  <time>2026-08-28T17:50:45Z</time>
  <course>247.06</course>
  <speed>0.022360679774997897</speed>
  <fix>3d</fix>
</trkpt>
<trkpt lat="40.0713749" lon="-105.229789">
  <ele>1583.0</ele>
  <time>2026-08-28T17:50:45Z</time>
  <course>0.0</course>
  <speed>0.0</speed>
  <fix>3d</fix>
</trkpt>
<trkpt lat="40.071375" lon="-105.2297889">
  <ele>1582.96</ele>
  <time>2026-08-28T17:50:45Z</time>
  <course>247.06</course>
  <speed>0.022360679774997897</speed>
  <fix>3d</fix>
</trkpt>
<trkpt lat="40.0713749" lon="-105.229789">
  <ele>1583.0</ele>
  <time>2026-08-28T17:50:45Z</time>
  <course>0.0</course>
  <speed>0.0</speed>
  <fix>3d</fix>
</trkpt>
<trkpt lat="40.0713751" lon="-105.2297889">
  <ele>1582.95</ele>
  <time>2026-08-28T17:50:45Z</time>
  <course>247.06</course>
  <speed>0.022360679774997897</speed>
  <fix>3d</fix>
</trkpt>
<trkpt lat="40.0713749" lon="-105.229789">
  <ele>1583.0</ele>
  <time>2026-08-28T17:50:45Z</time>
  <course>0.0</course>
  <speed>0.0</speed>
  <fix>3d</fix>
</trkpt>
<trkpt lat="40.071375" lon="-105.2297889">
  <ele>1582.95</ele>
  <time>2026-08-28T17:50:45Z</time>
  <course>247.06</course>
  <speed>0.022360679774997897</speed>
  <fix>3d</fix>
</trkpt>
<trkpt lat="40.0713749" lon="-105.229789">
  <ele>1583.0</ele>
  <time>2026-08-28T17:50:45Z</time>
  <course>0.0</course>
  <speed>0.0</speed>
  <fix>3d</fix>
</trkpt>
<trkpt lat="40.0713751" lon="-105.2297889">
  <ele>1582.95</ele>
  <time>2026-08-28T17:50:45Z</time>
  <course>247.06</course>
  <speed>0.022360679774997897</speed>
  <fix>3d</fix>
</trkpt>
<trkpt lat="40.0713749" lon="-105.229789">
  <ele>1583.0</ele>
  <time>2026-08-28T17:50:45Z</time>
  <course>0.0</course>
  <speed>0.0</speed>
  <fix>3d</fix>
</trkpt>
<trkpt lat="40.071375" lon="-105.2297889">
  <ele>1582.95</ele>
  <time>2026-08-28T17:50:45Z</time>
  <course>247.06</course>
  <speed>0.022360679774997897</speed>
  <fix>3d</fix>
</trkpt>
<trkpt lat="40.0713749" lon="-105.229789">
  <ele>1583.0</ele>
  <time>2026-08-28T17:50:45Z</time>
  <course>0.0</course>
  <speed>0.0</speed>
  <fix>3d</fix>
</trkpt>
<trkpt lat="40.0713751" lon="-105.2297889">
  <ele>1582.95</ele>
  <time>2026-08-28T17:50:45Z</time>
  <course>247.06</course>
  <speed>0.022360679774997897</speed>
  <fix>3d</fix>
</trkpt>
<trkpt lat="40.0713749" lon="-105.229789">
  <ele>1583.0</ele>
  <time>2026-08-28T17:50:45Z</time>
  <course>0.0</course>
  <speed>0.0</speed>
  <fix>3d</fix>
</trkpt>
<trkpt lat="40.071375" lon="-105.2297889">
  <ele>1582.95</ele>
  <time>2026-08-28T17:50:45Z</time>
  <course>247.06</course>
  <speed>0.022360679774997897</speed>
  <fix>3d</fix>
</trkpt>
<trkpt lat="40.0713749" lon="-105.229789">
  <ele>1583.0</ele>
  <time>2026-08-28T17:50:45Z</time>
  <course>0.0</course>
  <speed>0.0</speed>
  <fix>3d</fix>
</trkpt>
<trkpt lat="40.0713751" lon="-105.2297889">
  <ele>1582.96</ele>
  <time>2026-08-28T17:50:45Z</time>
  <course>247.06</course>
  <speed>0.022360679774997897</speed>
  <fix>3d</fix>
</trkpt>
<trkpt lat="40.0713749" lon="-105.229789">
  <ele>1583.0</ele>
  <time>2026-08-28T17:50:45Z</time>
  <course>0.0</course>
  <speed>0.0</speed>
  <fix>3d</fix>
</trkpt>
<trkpt lat="40.071375" lon="-105.2297889">
  <ele>1582.96</ele>
  <time>2026-08-28T17:50:45Z</time>
  <course>247.06</course>
  <speed>0.022360679774997897</speed>
  <fix>3d</fix>
</trkpt>
<trkpt lat="40.0713749" lon="-105.229789">
  <ele>1583.0</ele>
  <time>2026-08-28T17:50:45Z</time>
  <course>0.0</course>
  <speed>0.0</speed>
  <fix>3d</fix>
</trkpt>
<trkpt lat="40.0713751" lon="-105.2297889">
  <ele>1582.96</ele>
  <time>2026-08-28T17:50:45Z</time>
  <course>247.06</course>
  <speed>0.022360679774997897</speed>
  <fix>3d</fix>
</trkpt>
<trkpt lat="40.0713749" lon="-105.229789">
  <ele>1583.0</ele>
  <time>2026-08-28T17:50:45Z</time>
  <course>0.0</course>
  <speed>0.0</speed>
  <fix>3d</fix>
</trkpt>
<trkpt lat="40.0713751" lon="-105.2297889">
  <ele>1582.97</ele>
  <time>2026-08-28T17:50:45Z</time>
  <course>247.06</course>
  <speed>0.022360679774997897</speed>
  <fix>3d</fix>
</trkpt>
<trkpt lat="40.0713749" lon="-105.229789">
  <ele>1583.0</ele>
  <time>2026-08-28T17:50:45Z</time>
  <course>0.0</course>
  <speed>0.0</speed>
  <fix>3d</fix>
</trkpt>
<trkpt lat="40.0713751" lon="-105.2297889">
  <ele>1582.97</ele>
  <time>2026-08-28T17:50:45Z</time>
  <course>247.06</course>
  <speed>0.022360679774997897</speed>
  <fix>3d</fix>
</trkpt>
<trkpt lat="40.0713749" lon="-105.229789">
  <ele>1583.0</ele>
  <time>2026-08-28T17:50:45Z</time>
  <course>0.0</course>
  <speed>0.0</speed>
  <fix>3d</fix>
</trkpt>
<trkpt lat="40.0713751" lon="-105.2297889">
  <ele>1582.97</ele>
  <time>2026-08-28T17:50:45Z</time>
  <course>247.06</course>
  <speed>0.022360679774997897</speed>
  <fix>3d</fix>
</trkpt>
<trkpt lat="40.0713749" lon="-105.229789">
  <ele>1583.0</ele>
  <time>2026-08-28T17:50:45Z</time>
  <course>0.0</course>
  <speed>0.0</speed>
  <fix>3d</fix>
</trkpt>
<trkpt lat="40.0713751" lon="-105.2297889">
  <ele>1582.97</ele>
  <time>2026-08-28T17:50:45Z</time>
  <course>247.06</course>
  <speed>0.022360679774997897</speed>
  <fix>3d</fix>
</trkpt>
<trkpt lat="40.0713749" lon="-105.229789">
  <ele>1583.0</ele>
  <time>2026-08-28T17:50:45Z</time>
  <course>0.0</course>
  <speed>0.0</speed>
  <fix>3d</fix>
</trkpt>
<trkpt lat="40.0713751" lon="-105.2297889">
  <ele>1582.97</ele>
  <time>2026-08-28T17:50:45Z</time>
  <course>247.06</course>
  <speed>0.022360679774997897</speed>
  <fix>3d</fix>
</trkpt>
<trkpt lat="40.0713749" lon="-105.229789">
  <ele>1583.0</ele>
  <time>2026-08-28T17:50:45Z</time>
  <course>0.0</course>
  <speed>0.0</speed>
  <fix>3d</fix>
</trkpt>
<trkpt lat="40.0713751" lon="-105.2297889">
  <ele>1582.97</ele>
  <time>2026-08-28T17:50:45Z</time>
  <course>247.06</course>
  <speed>0.022360679774997897</speed>
  <fix>3d</fix>
</trkpt>
<trkpt lat="40.0713749" lon="-105.229789">
  <ele>1583.0</ele>
  <time>2026-08-28T17:50:45Z</time>
  <course>0.0</course>
  <speed>0.0</speed>
  <fix>3d</fix>
</trkpt>
<trkpt lat="40.071375" lon="-105.2297889">
  <ele>1582.97</ele>
  <time>2026-08-28T17:50:45Z</time>
  <course>247.06</course>
  <speed>0.022360679774997897</speed>
  <fix>3d</fix>
</trkpt>
<trkpt lat="40.0713749" lon="-105.229789">
  <ele>1583.0</ele>
  <time>2026-08-28T17:50:45Z</time>
  <course>0.0</course>
  <speed>0.0</speed>
  <fix>3d</fix>
</trkpt>
<trkpt lat="40.0713751" lon="-105.2297889">
  <ele>1582.98</ele>
  <time>2026-08-28T17:50:45Z</time>
  <course>247.06</course>
  <speed>0.022360679774997897</speed>
  <fix>3d</fix>
</trkpt>
<trkpt lat="40.0713749" lon="-105.229789">
  <ele>1583.0</ele>
  <time>2026-08-28T17:50:45Z</time>
  <course>0.0</course>
  <speed>0.0</speed>
  <fix>3d</fix>
</trkpt>
<trkpt lat="40.071375" lon="-105.2297889">
  <ele>1582.97</ele>
  <time>2026-08-28T17:50:45Z</time>
  <course>247.06</course>
  <speed>0.022360679774997897</speed>
  <fix>3d</fix>
</trkpt>
<trkpt lat="40.0713749" lon="-105.229789">
  <ele>1583.0</ele>
  <time>2026-08-28T17:50:45Z</time>
  <course>0.0</course>
  <speed>0.0</speed>
  <fix>3d</fix>
</trkpt>
<trkpt lat="40.0713751" lon="-105.2297889">
  <ele>1582.97</ele>
  <time>2026-08-28T17:50:45Z</time>
  <course>247.06</course>
  <speed>0.022360679774997897</speed>
  <fix>3d</fix>
</trkpt>
<trkpt lat="40.0713749" lon="-105.229789">
  <ele>1583.0</ele>
  <time>2026-08-28T17:50:45Z</time>
  <course>0.0</course>
  <speed>0.0</speed>
  <fix>3d</fix>
</trkpt>
<trkpt lat="40.071375" lon="-105.2297889">
  <ele>1582.97</ele>
  <time>2026-08-28T17:50:45Z</time>
  <course>247.06</course>
  <speed>0.022360679774997897</speed>
  <fix>3d</fix>
</trkpt>
<trkpt lat="40.0713749" lon="-105.229789">
  <ele>1583.0</ele>
  <time>2026-08-28T17:50:45Z</time>
  <course>0.0</course>
  <speed>0.0</speed>
  <fix>3d</fix>
</trkpt>
<trkpt lat="40.0713751" lon="-105.2297889">
  <ele>1582.97</ele>
  <time>2026-08-28T17:50:45Z</time>
  <course>247.06</course>
  <speed>0.022360679774997897</speed>
  <fix>3d</fix>
</trkpt>
<trkpt lat="40.0713749" lon="-105.229789">
  <ele>1583.0</ele>
  <time>2026-08-28T17:50:45Z</time>
  <course>0.0</course>
  <speed>0.0</speed>
  <fix>3d</fix>
</trkpt>
<trkpt lat="40.071375" lon="-105.2297889">
  <ele>1582.97</ele>
  <time>2026-08-28T17:50:45Z</time>
  <course>247.06</course>
  <speed>0.022360679774997897</speed>
  <fix>3d</fix>
</trkpt>
<trkpt lat="40.0713749" lon="-105.229789">
  <ele>1583.0</ele>
  <time>2026-08-28T17:50:45Z</time>
  <course>0.0</course>
  <speed>0.0</speed>
  <fix>3d</fix>
</trkpt>
<trkpt lat="40.0713751" lon="-105.2297889">
  <ele>1582.96</ele>
  <time>2026-08-28T17:50:45Z</time>
  <course>247.06</course>
  <speed>0.022360679774997897</speed>
  <fix>3d</fix>
</trkpt>
<trkpt lat="40.0713749" lon="-105.229789">
  <ele>1583.0</ele>
  <time>2026-08-28T17:50:45Z</time>
  <course>0.0</course>
  <speed>0.0</speed>
  <fix>3d</fix>
</trkpt>
<trkpt lat="40.071375" lon="-105.2297889">
  <ele>1582.97</ele>
  <time>2026-08-28T17:50:45Z</time>
  <course>247.06</course>
  <speed>0.022360679774997897</speed>
  <fix>3d</fix>
</trkpt>
<trkpt lat="40.0713749" lon="-105.229789">
  <ele>1583.0</ele>
  <time>2026-08-28T17:50:45Z</time>
  <course>0.0</course>
  <speed>0.0</speed>
  <fix>3d</fix>
</trkpt>
<trkpt lat="40.0713751" lon="-105.2297889">
  <ele>1582.97</ele>
  <time>2026-08-28T17:50:45Z</time>
  <course>247.06</course>
  <speed>0.022360679774997897</speed>
  <fix>3d</fix>
</trkpt>
<trkpt lat="40.0713749" lon="-105.229789">
  <ele>1583.0</ele>
  <time>2026-08-28T17:50:45Z</time>
  <course>0.0</course>
  <speed>0.0</speed>
  <fix>3d</fix>
</trkpt>
<trkpt lat="40.071375" lon="-105.2297889">
  <ele>1582.97</ele>
  <time>2026-08-28T17:50:45Z</time>
  <course>247.06</course>
  <speed>0.022360679774997897</speed>
  <fix>3d</fix>
</trkpt>
<trkpt lat="40.0713749" lon="-105.229789">
  <ele>1583.0</ele>
  <time>2026-08-28T17:50:45Z</time>
  <course>0.0</course>
  <speed>0.0</speed>
  <fix>3d</fix>
</trkpt>
<trkpt lat="40.0713751" lon="-105.2297889">
  <ele>1582.97</ele>
  <time>2026-08-28T17:50:45Z</time>
  <course>247.06</course>
  <speed>0.022360679774997897</speed>
  <fix>3d</fix>
</trkpt>
<trkpt lat="40.0713749" lon="-105.229789">
  <ele>1583.0</ele>
  <time>2026-08-28T17:50:45Z</time>
  <course>0.0</course>
  <speed>0.0</speed>
  <fix>3d</fix>
</trkpt>
<trkpt lat="40.071375" lon="-105.2297889">
  <ele>1582.98</ele>
  <time>2026-08-28T17:50:45Z</time>
  <course>247.06</course>
  <speed>0.022360679774997897</speed>
  <fix>3d</fix>
</trkpt>
<trkpt lat="40.0713749" lon="-105.229789">
  <ele>1583.0</ele>
  <time>2026-08-28T17:50:45Z</time>
  <course>0.0</course>
  <speed>0.0</speed>
  <fix>3d</fix>
</trkpt>
<trkpt lat="40.0713751" lon="-105.2297889">
  <ele>1582.99</ele>
  <time>2026-08-28T17:50:45Z</time>
  <course>247.06</course>
  <speed>0.022360679774997897</speed>
  <fix>3d</fix>
</trkpt>
<trkpt lat="40.0713749" lon="-105.229789">
  <ele>1583.0</ele>
  <time>2026-08-28T17:50:45Z</time>
  <course>0.0</course>
  <speed>0.0</speed>
  <fix>3d</fix>
</trkpt>
<trkpt lat="40.0713751" lon="-105.2297889">
  <ele>1582.99</ele>
  <time>2026-08-28T17:50:45Z</time>
  <course>247.06</course>
  <speed>0.022360679774997897</speed>
  <fix>3d</fix>
</trkpt>
<trkpt lat="40.0713749" lon="-105.229789">
  <ele>1583.0</ele>
  <time>2026-08-28T17:50:45Z</time>
  <course>0.0</course>
  <speed>0.0</speed>
  <fix>3d</fix>
</trkpt>
<trkpt lat="40.0713751" lon="-105.2297889">
  <ele>1582.99</ele>
  <time>2026-08-28T17:50:45Z</time>
  <course>247.06</course>
  <speed>0.022360679774997897</speed>
  <fix>3d</fix>
</trkpt>
<trkpt lat="40.0713749" lon="-105.229789">
  <ele>1583.0</ele>
  <time>2026-08-28T17:50:45Z</time>
  <course>0.0</course>
  <speed>0.0</speed>
  <fix>3d</fix>
</trkpt>
<trkpt lat="40.0713751" lon="-105.2297889">
  <ele>1583.0</ele>
  <time>2026-08-28T17:50:45Z</time>
  <course>247.06</course>
  <speed>0.022360679774997897</speed>
  <fix>3d</fix>
</trkpt>
<trkpt lat="40.0713749" lon="-105.229789">
  <ele>1583.0</ele>
  <time>2026-08-28T17:50:45Z</time>
  <course>0.0</course>
  <speed>0.0</speed>
  <fix>3d</fix>
</trkpt>
<trkpt lat="40.0713751" lon="-105.2297889">
  <ele>1583.0</ele>
  <time>2026-08-28T17:50:45Z</time>
  <course>247.06</course>
  <speed>0.022360679774997897</speed>
  <fix>3d</fix>
</trkpt>
<trkpt lat="40.0713749" lon="-105.229789">
  <ele>1583.0</ele>
  <time>2026-08-28T17:50:45Z</time>
  <course>0.0</course>
  <speed>0.0</speed>
  <fix>3d</fix>
</trkpt>
<trkpt lat="40.0713751" lon="-105.2297889">
  <ele>1583.0</ele>
  <time>2026-08-28T17:50:45Z</time>
  <course>247.06</course>
  <speed>0.022360679774997897</speed>
  <fix>3d</fix>
</trkpt>
<trkpt lat="40.0713749" lon="-105.229789">
  <ele>1583.0</ele>
  <time>2026-08-28T17:50:45Z</time>
  <course>0.0</course>
  <speed>0.0</speed>
  <fix>3d</fix>
</trkpt>
<trkpt lat="40.0713751" lon="-105.2297889">
  <ele>1583.0</ele>
  <time>2026-08-28T17:50:45Z</time>
  <course>247.06</course>
  <speed>0.022360679774997897</speed>
  <fix>3d</fix>
</trkpt>
<trkpt lat="40.0713749" lon="-105.229789">
  <ele>1583.0</ele>
  <time>2026-08-28T17:50:45Z</time>
  <course>0.0</course>
  <speed>0.0</speed>
  <fix>3d</fix>
</trkpt>
<trkpt lat="40.0713751" lon="-105.2297889">
  <ele>1583.0</ele>
  <time>2026-08-28T17:50:45Z</time>
  <course>247.06</course>
  <speed>0.022360679774997897</speed>
  <fix>3d</fix>
</trkpt>
<trkpt lat="40.0713749" lon="-105.229789">
  <ele>1583.0</ele>
  <time>2026-08-28T17:50:45Z</time>
  <course>0.0</course>
  <speed>0.0</speed>
  <fix>3d</fix>
</trkpt>
<trkpt lat="40.0713751" lon="-105.2297889">
  <ele>1582.99</ele>
  <time>2026-08-28T17:50:45Z</time>
  <course>247.06</course>
  <speed>0.022360679774997897</speed>
  <fix>3d</fix>
</trkpt>
<trkpt lat="40.0713749" lon="-105.229789">
  <ele>1583.0</ele>
  <time>2026-08-28T17:50:45Z</time>
  <course>0.0</course>
  <speed>0.0</speed>
  <fix>3d</fix>
</trkpt>
<trkpt lat="40.0713751" lon="-105.2297889">
  <ele>1582.99</ele>
  <time>2026-08-28T17:50:45Z</time>
  <course>247.06</course>
  <speed>0.022360679774997897</speed>
  <fix>3d</fix>
</trkpt>
<trkpt lat="40.0713749" lon="-105.229789">
  <ele>1583.0</ele>
  <time>2026-08-28T17:50:45Z</time>
  <course>0.0</course>
  <speed>0.0</speed>
  <fix>3d</fix>
</trkpt>
<trkpt lat="40.0713751" lon="-105.2297889">
  <ele>1582.98</ele>
  <time>2026-08-28T17:50:45Z</time>
  <course>247.06</course>
  <speed>0.022360679774997897</speed>
  <fix>3d</fix>
</trkpt>
<trkpt lat="40.0713749" lon="-105.229789">
  <ele>1583.0</ele>
  <time>2026-08-28T17:50:45Z</time>
  <course>0.0</course>
  <speed>0.0</speed>
  <fix>3d</fix>
</trkpt>
<trkpt lat="40.071375" lon="-105.2297889">
  <ele>1582.98</ele>
  <time>2026-08-28T17:50:45Z</time>
  <course>247.06</course>
  <speed>0.022360679774997897</speed>
  <fix>3d</fix>
</trkpt>
<trkpt lat="40.0713749" lon="-105.229789">
  <ele>1583.0</ele>
  <time>2026-08-28T17:50:45Z</time>
  <course>0.0</course>
  <speed>0.0</speed>
  <fix>3d</fix>
</trkpt>
<trkpt lat="40.0713751" lon="-105.2297889">
  <ele>1582.98</ele>
  <time>2026-08-28T17:50:45Z</time>
  <course>247.06</course>
  <speed>0.022360679774997897</speed>
  <fix>3d</fix>
</trkpt>
<trkpt lat="40.0713749" lon="-105.229789">
  <ele>1583.0</ele>
  <time>2026-08-28T17:50:45Z</time>
  <course>0.0</course>
  <speed>0.0</speed>
  <fix>3d</fix>
</trkpt>
<trkpt lat="40.071375" lon="-105.2297889">
  <ele>1582.98</ele>
  <time>2026-08-28T17:50:45Z</time>
  <course>247.06</course>
  <speed>0.022360679774997897</speed>
  <fix>3d</fix>
</trkpt>
<trkpt lat="40.0713749" lon="-105.229789">
  <ele>1583.0</ele>
  <time>2026-08-28T17:50:45Z</time>
  <course>0.0</course>
  <speed>0.0</speed>
  <fix>3d</fix>
</trkpt>
<trkpt lat="40.0713751" lon="-105.2297889">
  <ele>1582.98</ele>
  <time>2026-08-28T17:50:45Z</time>
  <course>247.06</course>
  <speed>0.022360679774997897</speed>
  <fix>3d</fix>
</trkpt>
<trkpt lat="40.0713749" lon="-105.229789">
  <ele>1583.0</ele>
  <time>2026-08-28T17:50:45Z</time>
  <course>0.0</course>
  <speed>0.0</speed>
  <fix>3d</fix>
</trkpt>
<trkpt lat="40.071375" lon="-105.2297889">
  <ele>1582.98</ele>
  <time>2026-08-28T17:50:45Z</time>
  <course>247.06</course>
  <speed>0.022360679774997897</speed>
  <fix>3d</fix>
</trkpt>
<trkpt lat="40.0713749" lon="-105.229789">
  <ele>1583.0</ele>
  <time>2026-08-28T17:50:45Z</time>
  <course>0.0</course>
  <speed>0.0</speed>
  <fix>3d</fix>
</trkpt>
<trkpt lat="40.0713751" lon="-105.2297889">
  <ele>1582.98</ele>
  <time>2026-08-28T17:50:45Z</time>
  <course>247.06</course>
  <speed>0.022360679774997897</speed>
  <fix>3d</fix>
</trkpt>
<trkpt lat="40.0713749" lon="-105.229789">
  <ele>1583.0</ele>
  <time>2026-08-28T17:50:45Z</time>
  <course>0.0</course>
  <speed>0.0</speed>
  <fix>3d</fix>
</trkpt>
<trkpt lat="40.071375" lon="-105.2297889">
  <ele>1582.98</ele>
  <time>2026-08-28T17:50:45Z</time>
  <course>247.06</course>
  <speed>0.022360679774997897</speed>
  <fix>3d</fix>
</trkpt>
<trkpt lat="40.0713749" lon="-105.229789">
  <ele>1583.0</ele>
  <time>2026-08-28T17:50:45Z</time>
  <course>0.0</course>
  <speed>0.0</speed>
  <fix>3d</fix>
</trkpt>
<trkpt lat="40.0713751" lon="-105.2297889">
  <ele>1582.98</ele>
  <time>2026-08-28T17:50:45Z</time>
  <course>247.06</course>
  <speed>0.022360679774997897</speed>
  <fix>3d</fix>
</trkpt>
<trkpt lat="40.0713749" lon="-105.229789">
  <ele>1583.0</ele>
  <time>2026-08-28T17:50:45Z</time>
  <course>0.0</course>
  <speed>0.0</speed>
  <fix>3d</fix>
</trkpt>
<trkpt lat="40.071375" lon="-105.2297889">
  <ele>1582.98</ele>
  <time>2026-08-28T17:50:45Z</time>
  <course>247.06</course>
  <speed>0.022360679774997897</speed>
  <fix>3d</fix>
</trkpt>
<trkpt lat="40.0713749" lon="-105.229789">
  <ele>1583.0</ele>
  <time>2026-08-28T17:50:45Z</time>
  <course>0.0</course>
  <speed>0.0</speed>
  <fix>3d</fix>
</trkpt>
<trkpt lat="40.0713751" lon="-105.2297889">
  <ele>1582.99</ele>
  <time>2026-08-28T17:50:45Z</time>
  <course>247.06</course>
  <speed>0.022360679774997897</speed>
  <fix>3d</fix>
</trkpt>
<trkpt lat="40.0713749" lon="-105.229789">
  <ele>1583.0</ele>
  <time>2026-08-28T17:50:45Z</time>
  <course>0.0</course>
  <speed>0.0</speed>
  <fix>3d</fix>
</trkpt>
<trkpt lat="40.0713751" lon="-105.2297889">
  <ele>1582.99</ele>
  <time>2026-08-28T17:50:45Z</time>
  <course>247.06</course>
  <speed>0.022360679774997897</speed>
  <fix>3d</fix>
</trkpt>
<trkpt lat="40.0713749" lon="-105.229789">
  <ele>1583.0</ele>
  <time>2026-08-28T17:50:45Z</time>
  <course>0.0</course>
  <speed>0.0</speed>
  <fix>3d</fix>
</trkpt>
<trkpt lat="40.0713751" lon="-105.2297889">
  <ele>1582.99</ele>
  <time>2026-08-28T17:50:45Z</time>
  <course>247.06</course>
  <speed>0.022360679774997897</speed>
  <fix>3d</fix>
</trkpt>
<trkpt lat="40.0713749" lon="-105.229789">
  <ele>1583.0</ele>
  <time>2026-08-28T17:50:45Z</time>
  <course>0.0</course>
  <speed>0.0</speed>
  <fix>3d</fix>
</trkpt>
<trkpt lat="40.0713751" lon="-105.2297889">
  <ele>1582.99</ele>
  <time>2026-08-28T17:50:45Z</time>
  <course>247.06</course>
  <speed>0.022360679774997897</speed>
  <fix>3d</fix>
</trkpt>
<trkpt lat="40.0713749" lon="-105.229789">
  <ele>1583.0</ele>
  <time>2026-08-28T17:50:45Z</time>
  <course>0.0</course>
  <speed>0.0</speed>
  <fix>3d</fix>
</trkpt>
<trkpt lat="40.0713751" lon="-105.2297889">
  <ele>1583.0</ele>
  <time>2026-08-28T17:50:45Z</time>
  <course>247.06</course>
  <speed>0.022360679774997897</speed>
  <fix>3d</fix>
</trkpt>
<trkpt lat="40.0713749" lon="-105.229789">
  <ele>1583.0</ele>
  <time>2026-08-28T17:50:45Z</time>
  <course>0.0</course>
  <speed>0.0</speed>
  <fix>3d</fix>
</trkpt>
<trkpt lat="40.0713751" lon="-105.2297889">
  <ele>1583.01</ele>
  <time>2026-08-28T17:50:45Z</time>
  <course>247.06</course>
  <speed>0.022360679774997897</speed>
  <fix>3d</fix>
</trkpt>
<trkpt lat="40.0713749" lon="-105.229789">
  <ele>1583.0</ele>
  <time>2026-08-28T17:50:45Z</time>
  <course>0.0</course>
  <speed>0.0</speed>
  <fix>3d</fix>
</trkpt>
<trkpt lat="40.0713751" lon="-105.2297889">
  <ele>1583.01</ele>
  <time>2026-08-28T17:50:45Z</time>
  <course>247.06</course>
  <speed>0.022360679774997897</speed>
  <fix>3d</fix>
</trkpt>
<trkpt lat="40.0713749" lon="-105.229789">
  <ele>1583.0</ele>
  <time>2026-08-28T17:50:45Z</time>
  <course>0.0</course>
  <speed>0.0</speed>
  <fix>3d</fix>
</trkpt>
<trkpt lat="40.0713751" lon="-105.2297889">
  <ele>1583.02</ele>
  <time>2026-08-28T17:50:45Z</time>
  <course>247.06</course>
  <speed>0.022360679774997897</speed>
  <fix>3d</fix>
</trkpt>
<trkpt lat="40.0713749" lon="-105.229789">
  <ele>1583.0</ele>
  <time>2026-08-28T17:50:45Z</time>
  <course>0.0</course>
  <speed>0.0</speed>
  <fix>3d</fix>
</trkpt>
<trkpt lat="40.0713751" lon="-105.2297889">
  <ele>1583.02</ele>
  <time>2026-08-28T17:50:45Z</time>
  <course>247.06</course>
  <speed>0.022360679774997897</speed>
  <fix>3d</fix>
</trkpt>
<trkpt lat="40.0713749" lon="-105.229789">
  <ele>1583.0</ele>
  <time>2026-08-28T17:50:45Z</time>
  <course>0.0</course>
  <speed>0.0</speed>
  <fix>3d</fix>
</trkpt>
<trkpt lat="40.071375" lon="-105.2297889">
  <ele>1583.02</ele>
  <time>2026-08-28T17:50:45Z</time>
  <course>247.06</course>
  <speed>0.022360679774997897</speed>
  <fix>3d</fix>
</trkpt>
<trkpt lat="40.0713749" lon="-105.229789">
  <ele>1583.0</ele>
  <time>2026-08-28T17:50:45Z</time>
  <course>0.0</course>
  <speed>0.0</speed>
  <fix>3d</fix>
</trkpt>
<trkpt lat="40.0713751" lon="-105.2297889">
  <ele>1583.03</ele>
  <time>2026-08-28T17:50:45Z</time>
  <course>247.06</course>
  <speed>0.022360679774997897</speed>
  <fix>3d</fix>
</trkpt>
<trkpt lat="40.0713749" lon="-105.229789">
  <ele>1583.0</ele>
  <time>2026-08-28T17:50:45Z</time>
  <course>0.0</course>
  <speed>0.0</speed>
  <fix>3d</fix>
</trkpt>
<trkpt lat="40.071375" lon="-105.2297889">
  <ele>1583.03</ele>
  <time>2026-08-28T17:50:45Z</time>
  <course>247.06</course>
  <speed>0.022360679774997897</speed>
  <fix>3d</fix>
</trkpt>
<trkpt lat="40.0713749" lon="-105.229789">
  <ele>1583.0</ele>
  <time>2026-08-28T17:50:45Z</time>
  <course>0.0</course>
  <speed>0.0</speed>
  <fix>3d</fix>
</trkpt>
<trkpt lat="40.0713751" lon="-105.2297889">
  <ele>1583.03</ele>
  <time>2026-08-28T17:50:45Z</time>
  <course>247.06</course>
  <speed>0.022360679774997897</speed>
  <fix>3d</fix>
</trkpt>
<trkpt lat="40.0713749" lon="-105.229789">
  <ele>1583.0</ele>
  <time>2026-08-28T17:50:45Z</time>
  <course>0.0</course>
  <speed>0.0</speed>
  <fix>3d</fix>
</trkpt>
<trkpt lat="40.071375" lon="-105.2297889">
  <ele>1583.03</ele>
  <time>2026-08-28T17:50:45Z</time>
  <course>247.06</course>
  <speed>0.022360679774997897</speed>
  <fix>3d</fix>
</trkpt>
<trkpt lat="40.0713749" lon="-105.229789">
  <ele>1583.0</ele>
  <time>2026-08-28T17:50:45Z</time>
  <course>0.0</course>
  <speed>0.0</speed>
  <fix>3d</fix>
</trkpt>
<trkpt lat="40.0713751" lon="-105.2297889">
  <ele>1583.02</ele>
  <time>2026-08-28T17:50:45Z</time>
  <course>247.06</course>
  <speed>0.022360679774997897</speed>
  <fix>3d</fix>
</trkpt>
<trkpt lat="40.0713749" lon="-105.229789">
  <ele>1583.0</ele>
  <time>2026-08-28T17:50:45Z</time>
  <course>0.0</course>
  <speed>0.0</speed>
  <fix>3d</fix>
</trkpt>
<trkpt lat="40.071375" lon="-105.2297889">
  <ele>1583.02</ele>
  <time>2026-08-28T17:50:45Z</time>
  <course>247.05</course>
  <speed>0.022360679774997897</speed>
  <fix>3d</fix>
</trkpt>
<trkpt lat="40.0713749" lon="-105.229789">
  <ele>1583.0</ele>
  <time>2026-08-28T17:50:45Z</time>
  <course>0.0</course>
  <speed>0.0</speed>
  <fix>3d</fix>
</trkpt>
<trkpt lat="40.0713751" lon="-105.2297889">
  <ele>1583.01</ele>
  <time>2026-08-28T17:50:45Z</time>
  <course>247.05</course>
  <speed>0.022360679774997897</speed>
  <fix>3d</fix>
</trkpt>
<trkpt lat="40.0713749" lon="-105.229789">
  <ele>1583.0</ele>
  <time>2026-08-28T17:50:45Z</time>
  <course>0.0</course>
  <speed>0.0</speed>
  <fix>3d</fix>
</trkpt>
<trkpt lat="40.071375" lon="-105.2297889">
  <ele>1583.0</ele>
  <time>2026-08-28T17:50:45Z</time>
  <course>247.05</course>
  <speed>0.022360679774997897</speed>
  <fix>3d</fix>
</trkpt>
<trkpt lat="40.0713749" lon="-105.229789">
  <ele>1583.0</ele>
  <time>2026-08-28T17:50:45Z</time>
  <course>0.0</course>
  <speed>0.0</speed>
  <fix>3d</fix>
</trkpt>
<trkpt lat="40.0713751" lon="-105.2297889">
  <ele>1583.0</ele>
  <time>2026-08-28T17:50:45Z</time>
  <course>247.05</course>
  <speed>0.022360679774997897</speed>
  <fix>3d</fix>
</trkpt>
<trkpt lat="40.0713749" lon="-105.229789">
  <ele>1583.0</ele>
  <time>2026-08-28T17:50:45Z</time>
  <course>0.0</course>
  <speed>0.0</speed>
  <fix>3d</fix>
</trkpt>
<trkpt lat="40.071375" lon="-105.2297889">
  <ele>1582.99</ele>
  <time>2026-08-28T17:50:45Z</time>
  <course>247.05</course>
  <speed>0.022360679774997897</speed>
  <fix>3d</fix>
</trkpt>
<trkpt lat="40.0713749" lon="-105.229789">
  <ele>1583.0</ele>
  <time>2026-08-28T17:50:45Z</time>
  <course>0.0</course>
  <speed>0.0</speed>
  <fix>3d</fix>
</trkpt>
<trkpt lat="40.0713751" lon="-105.2297889">
  <ele>1582.98</ele>
  <time>2026-08-28T17:50:45Z</time>
  <course>247.05</course>
  <speed>0.022360679774997897</speed>
  <fix>3d</fix>
</trkpt>
<trkpt lat="40.0713749" lon="-105.229789">
  <ele>1583.0</ele>
  <time>2026-08-28T17:50:45Z</time>
  <course>0.0</course>
  <speed>0.0</speed>
  <fix>3d</fix>
</trkpt>
<trkpt lat="40.071375" lon="-105.2297889">
  <ele>1582.98</ele>
  <time>2026-08-28T17:50:45Z</time>
  <course>247.05</course>
  <speed>0.022360679774997897</speed>
  <fix>3d</fix>
</trkpt>
<trkpt lat="40.0713749" lon="-105.229789">
  <ele>1583.0</ele>
  <time>2026-08-28T17:50:45Z</time>
  <course>0.0</course>
  <speed>0.0</speed>
  <fix>3d</fix>
</trkpt>
<trkpt lat="40.0713751" lon="-105.2297889">
  <ele>1582.97</ele>
  <time>2026-08-28T17:50:45Z</time>
  <course>247.05</course>
  <speed>0.022360679774997897</speed>
  <fix>3d</fix>
</trkpt>
<trkpt lat="40.0713749" lon="-105.229789">
  <ele>1583.0</ele>
  <time>2026-08-28T17:50:45Z</time>
  <course>0.0</course>
  <speed>0.0</speed>
  <fix>3d</fix>
</trkpt>
<trkpt lat="40.0713751" lon="-105.2297889">
  <ele>1582.97</ele>
  <time>2026-08-28T17:50:45Z</time>
  <course>247.05</course>
  <speed>0.022360679774997897</speed>
  <fix>3d</fix>
</trkpt>
<trkpt lat="40.0713749" lon="-105.229789">
  <ele>1583.0</ele>
  <time>2026-08-28T17:50:45Z</time>
  <course>0.0</course>
  <speed>0.0</speed>
  <fix>3d</fix>
</trkpt>
<trkpt lat="40.0713751" lon="-105.2297889">
  <ele>1582.96</ele>
  <time>2026-08-28T17:50:45Z</time>
  <course>247.05</course>
  <speed>0.022360679774997897</speed>
  <fix>3d</fix>
</trkpt>
<trkpt lat="40.0713749" lon="-105.229789">
  <ele>1583.0</ele>
  <time>2026-08-28T17:50:45Z</time>
  <course>0.0</course>
  <speed>0.0</speed>
  <fix>3d</fix>
</trkpt>
<trkpt lat="40.0713751" lon="-105.2297889">
  <ele>1582.96</ele>
  <time>2026-08-28T17:50:45Z</time>
  <course>247.05</course>
  <speed>0.022360679774997897</speed>
  <fix>3d</fix>
</trkpt>
<trkpt lat="40.0713749" lon="-105.229789">
  <ele>1583.0</ele>
  <time>2026-08-28T17:50:45Z</time>
  <course>0.0</course>
  <speed>0.0</speed>
  <fix>3d</fix>
</trkpt>
<trkpt lat="40.0713751" lon="-105.2297889">
  <ele>1582.96</ele>
  <time>2026-08-28T17:50:45Z</time>
  <course>247.05</course>
  <speed>0.022360679774997897</speed>
  <fix>3d</fix>
</trkpt>
<trkpt lat="40.0713749" lon="-105.229789">
  <ele>1583.0</ele>
  <time>2026-08-28T17:50:45Z</time>
  <course>0.0</course>
  <speed>0.0</speed>
  <fix>3d</fix>
</trkpt>
<trkpt lat="40.0713751" lon="-105.2297889">
  <ele>1582.96</ele>
  <time>2026-08-28T17:50:45Z</time>
  <course>247.05</course>
  <speed>0.022360679774997897</speed>
  <fix>3d</fix>
</trkpt>
<trkpt lat="40.0713749" lon="-105.229789">
  <ele>1583.0</ele>
  <time>2026-08-28T17:50:45Z</time>
  <course>0.0</course>
  <speed>0.0</speed>
  <fix>3d</fix>
</trkpt>
<trkpt lat="40.0713751" lon="-105.2297889">
  <ele>1582.96</ele>
  <time>2026-08-28T17:50:45Z</time>
  <course>247.05</course>
  <speed>0.022360679774997897</speed>
  <fix>3d</fix>
</trkpt>
<trkpt lat="40.0713749" lon="-105.229789">
  <ele>1583.0</ele>
  <time>2026-08-28T17:50:45Z</time>
  <course>0.0</course>
  <speed>0.0</speed>
  <fix>3d</fix>
</trkpt>
<trkpt lat="40.0713751" lon="-105.2297889">
  <ele>1582.96</ele>
  <time>2026-08-28T17:50:45Z</time>
  <course>247.05</course>
  <speed>0.022360679774997897</speed>
  <fix>3d</fix>
</trkpt>
<trkpt lat="40.0713749" lon="-105.229789">
  <ele>1583.0</ele>
  <time>2026-08-28T17:50:45Z</time>
  <course>0.0</course>
  <speed>0.0</speed>
  <fix>3d</fix>
</trkpt>
<trkpt lat="40.0713751" lon="-105.2297889">
  <ele>1582.96</ele>
  <time>2026-08-28T17:50:45Z</time>
  <course>247.05</course>
  <speed>0.022360679774997897</speed>
  <fix>3d</fix>
</trkpt>
<trkpt lat="40.0713749" lon="-105.229789">
  <ele>1583.0</ele>
  <time>2026-08-28T17:50:45Z</time>
  <course>0.0</course>
  <speed>0.0</speed>
  <fix>3d</fix>
</trkpt>
<trkpt lat="40.071375" lon="-105.2297889">
  <ele>1582.96</ele>
  <time>2026-08-28T17:50:45Z</time>
  <course>247.05</course>
  <speed>0.022360679774997897</speed>
  <fix>3d</fix>
</trkpt>
<trkpt lat="40.0713749" lon="-105.229789">
  <ele>1583.0</ele>
  <time>2026-08-28T17:50:45Z</time>
  <course>0.0</course>
  <speed>0.0</speed>
  <fix>3d</fix>
</trkpt>
<trkpt lat="40.0713751" lon="-105.2297889">
  <ele>1582.96</ele>
  <time>2026-08-28T17:50:45Z</time>
  <course>247.05</course>
  <speed>0.022360679774997897</speed>
  <fix>3d</fix>
</trkpt>
<trkpt lat="40.0713749" lon="-105.229789">
  <ele>1583.0</ele>
  <time>2026-08-28T17:50:45Z</time>
  <course>0.0</course>
  <speed>0.0</speed>
  <fix>3d</fix>
</trkpt>
<trkpt lat="40.071375" lon="-105.2297889">
  <ele>1582.96</ele>
  <time>2026-08-28T17:50:45Z</time>
  <course>247.05</course>
  <speed>0.022360679774997897</speed>
  <fix>3d</fix>
</trkpt>
<trkpt lat="40.0713749" lon="-105.229789">
  <ele>1583.0</ele>
  <time>2026-08-28T17:50:45Z</time>
  <course>0.0</course>
  <speed>0.0</speed>
  <fix>3d</fix>
</trkpt>
<trkpt lat="40.0713751" lon="-105.2297889">
  <ele>1582.97</ele>
  <time>2026-08-28T17:50:45Z</time>
  <course>247.05</course>
  <speed>0.022360679774997897</speed>
  <fix>3d</fix>
</trkpt>
<trkpt lat="40.0713749" lon="-105.229789">
  <ele>1583.0</ele>
  <time>2026-08-28T17:50:45Z</time>
  <course>0.0</course>
  <speed>0.0</speed>
  <fix>3d</fix>
</trkpt>
<trkpt lat="40.071375" lon="-105.2297889">
  <ele>1582.97</ele>
  <time>2026-08-28T17:50:45Z</time>
  <course>247.05</course>
  <speed>0.022360679774997897</speed>
  <fix>3d</fix>
</trkpt>
<trkpt lat="40.0713749" lon="-105.229789">
  <ele>1583.0</ele>
  <time>2026-08-28T17:50:45Z</time>
  <course>0.0</course>
  <speed>0.0</speed>
  <fix>3d</fix>
</trkpt>
<trkpt lat="40.0713751" lon="-105.2297889">
  <ele>1582.98</ele>
  <time>2026-08-28T17:50:45Z</time>
  <course>247.05</course>
  <speed>0.022360679774997897</speed>
  <fix>3d</fix>
</trkpt>
<trkpt lat="40.0713749" lon="-105.229789">
  <ele>1583.0</ele>
  <time>2026-08-28T17:50:45Z</time>
  <course>0.0</course>
  <speed>0.0</speed>
  <fix>3d</fix>
</trkpt>
<trkpt lat="40.0713751" lon="-105.2297889">
  <ele>1582.99</ele>
  <time>2026-08-28T17:50:45Z</time>
  <course>247.05</course>
  <speed>0.022360679774997897</speed>
  <fix>3d</fix>
</trkpt>
<trkpt lat="40.0713749" lon="-105.229789">
  <ele>1583.0</ele>
  <time>2026-08-28T17:50:45Z</time>
  <course>0.0</course>
  <speed>0.0</speed>
  <fix>3d</fix>
</trkpt>
<trkpt lat="40.0713751" lon="-105.2297889">
  <ele>1583.0</ele>
  <time>2026-08-28T17:50:45Z</time>
  <course>247.05</course>
  <speed>0.022360679774997897</speed>
  <fix>3d</fix>
</trkpt>
<trkpt lat="40.0713749" lon="-105.229789">
  <ele>1583.0</ele>
  <time>2026-08-28T17:50:45Z</time>
  <course>0.0</course>
  <speed>0.0</speed>
  <fix>3d</fix>
</trkpt>
<trkpt lat="40.0713751" lon="-105.2297889">
  <ele>1583.01</ele>
  <time>2026-08-28T17:50:45Z</time>
  <course>247.05</course>
  <speed>0.022360679774997897</speed>
  <fix>3d</fix>
</trkpt>
<trkpt lat="40.0713749" lon="-105.229789">
  <ele>1583.0</ele>
  <time>2026-08-28T17:50:45Z</time>
  <course>0.0</course>
  <speed>0.0</speed>
  <fix>3d</fix>
</trkpt>
<trkpt lat="40.0713751" lon="-105.2297889">
  <ele>1583.02</ele>
  <time>2026-08-28T17:50:45Z</time>
  <course>247.05</course>
  <speed>0.022360679774997897</speed>
  <fix>3d</fix>
</trkpt>
<trkpt lat="40.0713749" lon="-105.229789">
  <ele>1583.0</ele>
  <time>2026-08-28T17:50:45Z</time>
  <course>0.0</course>
  <speed>0.0</speed>
  <fix>3d</fix>
</trkpt>
<trkpt lat="40.0713751" lon="-105.2297889">
  <ele>1583.02</ele>
  <time>2026-08-28T17:50:45Z</time>
  <course>247.05</course>
  <speed>0.022360679774997897</speed>
  <fix>3d</fix>
</trkpt>
<trkpt lat="40.0713749" lon="-105.229789">
  <ele>1583.0</ele>
  <time>2026-08-28T17:50:45Z</time>
  <course>0.0</course>
  <speed>0.0</speed>
  <fix>3d</fix>
</trkpt>
<trkpt lat="40.0713751" lon="-105.2297889">
  <ele>1583.03</ele>
  <time>2026-08-28T17:50:45Z</time>
  <course>247.05</course>
  <speed>0.022360679774997897</speed>
  <fix>3d</fix>
</trkpt>
<trkpt lat="40.0713749" lon="-105.229789">
  <ele>1583.0</ele>
  <time>2026-08-28T17:50:45Z</time>
  <course>0.0</course>
  <speed>0.0</speed>
  <fix>3d</fix>
</trkpt>
<trkpt lat="40.0713751" lon="-105.2297889">
  <ele>1583.03</ele>
  <time>2026-08-28T17:50:45Z</time>
  <course>247.05</course>
  <speed>0.022360679774997897</speed>
  <fix>3d</fix>
</trkpt>
<trkpt lat="40.0713749" lon="-105.229789">
  <ele>1583.0</ele>
  <time>2026-08-28T17:50:45Z</time>
  <course>0.0</course>
  <speed>0.0</speed>
  <fix>3d</fix>
</trkpt>
<trkpt lat="40.0713751" lon="-105.2297889">
  <ele>1583.04</ele>
  <time>2026-08-28T17:50:45Z</time>
  <course>247.05</course>
  <speed>0.022360679774997897</speed>
  <fix>3d</fix>
</trkpt>
<trkpt lat="40.0713749" lon="-105.229789">
  <ele>1583.0</ele>
  <time>2026-08-28T17:50:45Z</time>
  <course>0.0</course>
  <speed>0.0</speed>
  <fix>3d</fix>
</trkpt>
<trkpt lat="40.0713751" lon="-105.2297889">
  <ele>1583.05</ele>
  <time>2026-08-28T17:50:45Z</time>
  <course>247.05</course>
  <speed>0.022360679774997897</speed>
  <fix>3d</fix>
</trkpt>
<trkpt lat="40.0713749" lon="-105.229789">
  <ele>1583.0</ele>
  <time>2026-08-28T17:50:45Z</time>
  <course>0.0</course>
  <speed>0.0</speed>
  <fix>3d</fix>
</trkpt>
<trkpt lat="40.0713751" lon="-105.2297889">
  <ele>1583.05</ele>
  <time>2026-08-28T17:50:45Z</time>
  <course>247.05</course>
  <speed>0.022360679774997897</speed>
  <fix>3d</fix>
</trkpt>
<trkpt lat="40.0713749" lon="-105.229789">
  <ele>1583.0</ele>
  <time>2026-08-28T17:50:45Z</time>
  <course>0.0</course>
  <speed>0.0</speed>
  <fix>3d</fix>
</trkpt>
<trkpt lat="40.0713751" lon="-105.2297889">
  <ele>1583.05</ele>
  <time>2026-08-28T17:50:45Z</time>
  <course>247.05</course>
  <speed>0.022360679774997897</speed>
  <fix>3d</fix>
</trkpt>
<trkpt lat="40.0713749" lon="-105.229789">
  <ele>1583.0</ele>
  <time>2026-08-28T17:50:45Z</time>
  <course>0.0</course>
  <speed>0.0</speed>
  <fix>3d</fix>
</trkpt>
<trkpt lat="40.0713751" lon="-105.2297889">
  <ele>1583.06</ele>
  <time>2026-08-28T17:50:45Z</time>
  <course>247.05</course>
  <speed>0.022360679774997897</speed>
  <fix>3d</fix>
</trkpt>
<trkpt lat="40.0713749" lon="-105.229789">
  <ele>1583.0</ele>
  <time>2026-08-28T17:50:45Z</time>
  <course>0.0</course>
  <speed>0.0</speed>
  <fix>3d</fix>
</trkpt>
<trkpt lat="40.0713751" lon="-105.2297889">
  <ele>1583.07</ele>
  <time>2026-08-28T17:50:45Z</time>
  <course>247.05</course>
  <speed>0.022360679774997897</speed>
  <fix>3d</fix>
</trkpt>
<trkpt lat="40.0713749" lon="-105.229789">
  <ele>1583.0</ele>
  <time>2026-08-28T17:50:45Z</time>
  <course>0.0</course>
  <speed>0.0</speed>
  <fix>3d</fix>
</trkpt>
<trkpt lat="40.0713751" lon="-105.2297889">
  <ele>1583.07</ele>
  <time>2026-08-28T17:50:45Z</time>
  <course>247.05</course>
  <speed>0.022360679774997897</speed>
  <fix>3d</fix>
</trkpt>
<trkpt lat="40.0713749" lon="-105.229789">
  <ele>1583.0</ele>
  <time>2026-08-28T17:50:45Z</time>
  <course>0.0</course>
  <speed>0.0</speed>
  <fix>3d</fix>
</trkpt>
<trkpt lat="40.0713751" lon="-105.2297889">
  <ele>1583.08</ele>
  <time>2026-08-28T17:50:45Z</time>
  <course>247.05</course>
  <speed>0.022360679774997897</speed>
  <fix>3d</fix>
</trkpt>
<trkpt lat="40.0713749" lon="-105.229789">
  <ele>1583.0</ele>
  <time>2026-08-28T17:50:45Z</time>
  <course>0.0</course>
  <speed>0.0</speed>
  <fix>3d</fix>
</trkpt>
<trkpt lat="40.0713751" lon="-105.2297889">
  <ele>1583.08</ele>
  <time>2026-08-28T17:50:45Z</time>
  <course>247.05</course>
  <speed>0.022360679774997897</speed>
  <fix>3d</fix>
</trkpt>
<trkpt lat="40.0713749" lon="-105.229789">
  <ele>1583.0</ele>
  <time>2026-08-28T17:50:45Z</time>
  <course>0.0</course>
  <speed>0.0</speed>
  <fix>3d</fix>
</trkpt>
<trkpt lat="40.071375" lon="-105.2297889">
  <ele>1583.08</ele>
  <time>2026-08-28T17:50:45Z</time>
  <course>247.05</course>
  <speed>0.022360679774997897</speed>
  <fix>3d</fix>
</trkpt>
<trkpt lat="40.0713749" lon="-105.229789">
  <ele>1583.0</ele>
  <time>2026-08-28T17:50:45Z</time>
  <course>0.0</course>
  <speed>0.0</speed>
  <fix>3d</fix>
</trkpt>
<trkpt lat="40.0713751" lon="-105.2297889">
  <ele>1583.07</ele>
  <time>2026-08-28T17:50:45Z</time>
  <course>247.05</course>
  <speed>0.022360679774997897</speed>
  <fix>3d</fix>
</trkpt>
<trkpt lat="40.0713749" lon="-105.229789">
  <ele>1583.0</ele>
  <time>2026-08-28T17:50:45Z</time>
  <course>0.0</course>
  <speed>0.0</speed>
  <fix>3d</fix>
</trkpt>
<trkpt lat="40.071375" lon="-105.2297889">
  <ele>1583.07</ele>
  <time>2026-08-28T17:50:45Z</time>
  <course>247.05</course>
  <speed>0.022360679774997897</speed>
  <fix>3d</fix>
</trkpt>
<trkpt lat="40.0713749" lon="-105.229789">
  <ele>1583.0</ele>
  <time>2026-08-28T17:50:45Z</time>
  <course>0.0</course>
  <speed>0.0</speed>
  <fix>3d</fix>
</trkpt>
<trkpt lat="40.0713751" lon="-105.2297889">
  <ele>1583.06</ele>
  <time>2026-08-28T17:50:45Z</time>
  <course>247.05</course>
  <speed>0.022360679774997897</speed>
  <fix>3d</fix>
</trkpt>
<trkpt lat="40.0713749" lon="-105.229789">
  <ele>1583.0</ele>
  <time>2026-08-28T17:50:45Z</time>
  <course>0.0</course>
  <speed>0.0</speed>
  <fix>3d</fix>
</trkpt>
<trkpt lat="40.071375" lon="-105.2297889">
  <ele>1583.06</ele>
  <time>2026-08-28T17:50:45Z</time>
  <course>247.05</course>
  <speed>0.022360679774997897</speed>
  <fix>3d</fix>
</trkpt>
<trkpt lat="40.0713749" lon="-105.229789">
  <ele>1583.0</ele>
  <time>2026-08-28T17:50:45Z</time>
  <course>0.0</course>
  <speed>0.0</speed>
  <fix>3d</fix>
</trkpt>
<trkpt lat="40.0713751" lon="-105.2297889">
  <ele>1583.05</ele>
  <time>2026-08-28T17:50:45Z</time>
  <course>247.05</course>
  <speed>0.022360679774997897</speed>
  <fix>3d</fix>
</trkpt>
<trkpt lat="40.0713749" lon="-105.229789">
  <ele>1583.0</ele>
  <time>2026-08-28T17:50:45Z</time>
  <course>0.0</course>
  <speed>0.0</speed>
  <fix>3d</fix>
</trkpt>
<trkpt lat="40.071375" lon="-105.2297889">
  <ele>1583.05</ele>
  <time>2026-08-28T17:50:45Z</time>
  <course>247.05</course>
  <speed>0.022360679774997897</speed>
  <fix>3d</fix>
</trkpt>
<trkpt lat="40.0713749" lon="-105.229789">
  <ele>1583.0</ele>
  <time>2026-08-28T17:50:45Z</time>
  <course>0.0</course>
  <speed>0.0</speed>
  <fix>3d</fix>
</trkpt>
<trkpt lat="40.0713751" lon="-105.2297889">
  <ele>1583.04</ele>
  <time>2026-08-28T17:50:45Z</time>
  <course>247.05</course>
  <speed>0.022360679774997897</speed>
  <fix>3d</fix>
</trkpt>
<trkpt lat="40.0713749" lon="-105.229789">
  <ele>1583.0</ele>
  <time>2026-08-28T17:50:45Z</time>
  <course>0.0</course>
  <speed>0.0</speed>
  <fix>3d</fix>
</trkpt>
<trkpt lat="40.071375" lon="-105.2297889">
  <ele>1583.03</ele>
  <time>2026-08-28T17:50:45Z</time>
  <course>247.05</course>
  <speed>0.022360679774997897</speed>
  <fix>3d</fix>
</trkpt>
<trkpt lat="40.0713749" lon="-105.229789">
  <ele>1583.0</ele>
  <time>2026-08-28T17:50:45Z</time>
  <course>0.0</course>
  <speed>0.0</speed>
  <fix>3d</fix>
</trkpt>
<trkpt lat="40.0713751" lon="-105.2297889">
  <ele>1583.02</ele>
  <time>2026-08-28T17:50:45Z</time>
  <course>247.05</course>
  <speed>0.022360679774997897</speed>
  <fix>3d</fix>
</trkpt>
<trkpt lat="40.0713749" lon="-105.229789">
  <ele>1583.0</ele>
  <time>2026-08-28T17:50:45Z</time>
  <course>0.0</course>
  <speed>0.0</speed>
  <fix>3d</fix>
</trkpt>
<trkpt lat="40.071375" lon="-105.2297889">
  <ele>1583.01</ele>
  <time>2026-08-28T17:50:45Z</time>
  <course>247.05</course>
  <speed>0.022360679774997897</speed>
  <fix>3d</fix>
</trkpt>
<trkpt lat="40.0713749" lon="-105.229789">
  <ele>1583.0</ele>
  <time>2026-08-28T17:50:45Z</time>
  <course>0.0</course>
  <speed>0.0</speed>
  <fix>3d</fix>
</trkpt>
<trkpt lat="40.0713751" lon="-105.2297889">
  <ele>1583.0</ele>
  <time>2026-08-28T17:50:45Z</time>
  <course>247.05</course>
  <speed>0.022360679774997897</speed>
  <fix>3d</fix>
</trkpt>
<trkpt lat="40.0713749" lon="-105.229789">
  <ele>1583.0</ele>
  <time>2026-08-28T17:50:45Z</time>
  <course>0.0</course>
  <speed>0.0</speed>
  <fix>3d</fix>
</trkpt>
<trkpt lat="40.0713751" lon="-105.2297889">
  <ele>1583.0</ele>
  <time>2026-08-28T17:50:45Z</time>
  <course>247.05</course>
  <speed>0.022360679774997897</speed>
  <fix>3d</fix>
</trkpt>
<trkpt lat="40.0713749" lon="-105.229789">
  <ele>1583.0</ele>
  <time>2026-08-28T17:50:45Z</time>
  <course>0.0</course>
  <speed>0.0</speed>
  <fix>3d</fix>
</trkpt>
<trkpt lat="40.0713751" lon="-105.2297889">
  <ele>1582.99</ele>
  <time>2026-08-28T17:50:45Z</time>
  <course>247.05</course>
  <speed>0.022360679774997897</speed>
  <fix>3d</fix>
</trkpt>
<trkpt lat="40.0713749" lon="-105.229789">
  <ele>1583.0</ele>
  <time>2026-08-28T17:50:45Z</time>
  <course>0.0</course>
  <speed>0.0</speed>
  <fix>3d</fix>
</trkpt>
<trkpt lat="40.0713751" lon="-105.2297889">
  <ele>1582.99</ele>
  <time>2026-08-28T17:50:45Z</time>
  <course>247.05</course>
  <speed>0.022360679774997897</speed>
  <fix>3d</fix>
</trkpt>
<trkpt lat="40.0713749" lon="-105.229789">
  <ele>1583.0</ele>
  <time>2026-08-28T17:50:45Z</time>
  <course>0.0</course>
  <speed>0.0</speed>
  <fix>3d</fix>
</trkpt>
<trkpt lat="40.0713751" lon="-105.2297889">
  <ele>1582.99</ele>
  <time>2026-08-28T17:50:45Z</time>
  <course>247.05</course>
  <speed>0.022360679774997897</speed>
  <fix>3d</fix>
</trkpt>
<trkpt lat="40.0713749" lon="-105.229789">
  <ele>1583.0</ele>
  <time>2026-08-28T17:50:45Z</time>
  <course>0.0</course>
  <speed>0.0</speed>
  <fix>3d</fix>
</trkpt>
<trkpt lat="40.0713751" lon="-105.2297889">
  <ele>1582.98</ele>
  <time>2026-08-28T17:50:45Z</time>
  <course>247.05</course>
  <speed>0.022360679774997897</speed>
  <fix>3d</fix>
</trkpt>
<trkpt lat="40.0713749" lon="-105.229789">
  <ele>1583.0</ele>
  <time>2026-08-28T17:50:45Z</time>
  <course>0.0</course>
  <speed>0.0</speed>
  <fix>3d</fix>
</trkpt>
<trkpt lat="40.0713751" lon="-105.2297889">
  <ele>1582.98</ele>
  <time>2026-08-28T17:50:45Z</time>
  <course>247.05</course>
  <speed>0.022360679774997897</speed>
  <fix>3d</fix>
</trkpt>
<trkpt lat="40.0713749" lon="-105.229789">
  <ele>1583.0</ele>
  <time>2026-08-28T17:50:45Z</time>
  <course>0.0</course>
  <speed>0.0</speed>
  <fix>3d</fix>
</trkpt>
<trkpt lat="40.071375" lon="-105.2297889">
  <ele>1582.98</ele>
  <time>2026-08-28T17:50:45Z</time>
  <course>247.05</course>
  <speed>0.022360679774997897</speed>
  <fix>3d</fix>
</trkpt>
<trkpt lat="40.0713749" lon="-105.229789">
  <ele>1583.0</ele>
  <time>2026-08-28T17:50:45Z</time>
  <course>0.0</course>
  <speed>0.0</speed>
  <fix>3d</fix>
</trkpt>
<trkpt lat="40.0713751" lon="-105.2297889">
  <ele>1582.98</ele>
  <time>2026-08-28T17:50:45Z</time>
  <course>247.05</course>
  <speed>0.022360679774997897</speed>
  <fix>3d</fix>
</trkpt>
<trkpt lat="40.0713749" lon="-105.229789">
  <ele>1583.0</ele>
  <time>2026-08-28T17:50:45Z</time>
  <course>0.0</course>
  <speed>0.0</speed>
  <fix>3d</fix>
</trkpt>
<trkpt lat="40.071375" lon="-105.2297889">
  <ele>1582.97</ele>
  <time>2026-08-28T17:50:45Z</time>
  <course>247.05</course>
  <speed>0.022360679774997897</speed>
  <fix>3d</fix>
</trkpt>
<trkpt lat="40.0713749" lon="-105.229789">
  <ele>1583.0</ele>
  <time>2026-08-28T17:50:45Z</time>
  <course>0.0</course>
  <speed>0.0</speed>
  <fix>3d</fix>
</trkpt>
<trkpt lat="40.0713751" lon="-105.2297889">
  <ele>1582.97</ele>
  <time>2026-08-28T17:50:45Z</time>
  <course>247.05</course>
  <speed>0.022360679774997897</speed>
  <fix>3d</fix>
</trkpt>
<trkpt lat="40.0713749" lon="-105.229789">
  <ele>1583.0</ele>
  <time>2026-08-28T17:50:45Z</time>
  <course>0.0</course>
  <speed>0.0</speed>
  <fix>3d</fix>
</trkpt>
<trkpt lat="40.071375" lon="-105.2297889">
  <ele>1582.96</ele>
  <time>2026-08-28T17:50:45Z</time>
  <course>247.05</course>
  <speed>0.022360679774997897</speed>
  <fix>3d</fix>
</trkpt>
<trkpt lat="40.0713749" lon="-105.229789">
  <ele>1583.0</ele>
  <time>2026-08-28T17:50:45Z</time>
  <course>0.0</course>
  <speed>0.0</speed>
  <fix>3d</fix>
</trkpt>
<trkpt lat="40.0713751" lon="-105.2297889">
  <ele>1582.96</ele>
  <time>2026-08-28T17:50:45Z</time>
  <course>247.05</course>
  <speed>0.022360679774997897</speed>
  <fix>3d</fix>
</trkpt>
<trkpt lat="40.0713749" lon="-105.229789">
  <ele>1583.0</ele>
  <time>2026-08-28T17:50:45Z</time>
  <course>0.0</course>
  <speed>0.0</speed>
  <fix>3d</fix>
</trkpt>
<trkpt lat="40.071375" lon="-105.2297889">
  <ele>1582.95</ele>
  <time>2026-08-28T17:50:45Z</time>
  <course>247.05</course>
  <speed>0.022360679774997897</speed>
  <fix>3d</fix>
</trkpt>
<trkpt lat="40.0713749" lon="-105.229789">
  <ele>1583.0</ele>
  <time>2026-08-28T17:50:45Z</time>
  <course>0.0</course>
  <speed>0.0</speed>
  <fix>3d</fix>
</trkpt>
<trkpt lat="40.0713751" lon="-105.2297889">
  <ele>1582.95</ele>
  <time>2026-08-28T17:50:46Z</time>
  <course>247.05</course>
  <speed>0.022360679774997897</speed>
  <fix>3d</fix>
</trkpt>
<trkpt lat="40.0713749" lon="-105.229789">
  <ele>1583.0</ele>
  <time>2026-08-28T17:50:46Z</time>
  <course>0.0</course>
  <speed>0.0</speed>
  <fix>3d</fix>
</trkpt>
<trkpt lat="40.071375" lon="-105.2297889">
  <ele>1582.94</ele>
  <time>2026-08-28T17:50:46Z</time>
  <course>247.05</course>
  <speed>0.022360679774997897</speed>
  <fix>3d</fix>
</trkpt>
<trkpt lat="40.0713749" lon="-105.229789">
  <ele>1583.0</ele>
  <time>2026-08-28T17:50:46Z</time>
  <course>0.0</course>
  <speed>0.0</speed>
  <fix>3d</fix>
</trkpt>
<trkpt lat="40.0713751" lon="-105.2297889">
  <ele>1582.94</ele>
  <time>2026-08-28T17:50:46Z</time>
  <course>247.05</course>
  <speed>0.022360679774997897</speed>
  <fix>3d</fix>
</trkpt>
<trkpt lat="40.0713749" lon="-105.229789">
  <ele>1583.0</ele>
  <time>2026-08-28T17:50:46Z</time>
  <course>0.0</course>
  <speed>0.0</speed>
  <fix>3d</fix>
</trkpt>
<trkpt lat="40.071375" lon="-105.2297889">
  <ele>1582.93</ele>
  <time>2026-08-28T17:50:46Z</time>
  <course>247.05</course>
  <speed>0.022360679774997897</speed>
  <fix>3d</fix>
</trkpt>
<trkpt lat="40.0713749" lon="-105.229789">
  <ele>1583.0</ele>
  <time>2026-08-28T17:50:46Z</time>
  <course>0.0</course>
  <speed>0.0</speed>
  <fix>3d</fix>
</trkpt>
<trkpt lat="40.0713751" lon="-105.2297889">
  <ele>1582.93</ele>
  <time>2026-08-28T17:50:46Z</time>
  <course>247.05</course>
  <speed>0.022360679774997897</speed>
  <fix>3d</fix>
</trkpt>
<trkpt lat="40.0713749" lon="-105.229789">
  <ele>1583.0</ele>
  <time>2026-08-28T17:50:46Z</time>
  <course>0.0</course>
  <speed>0.0</speed>
  <fix>3d</fix>
</trkpt>
<trkpt lat="40.071375" lon="-105.2297889">
  <ele>1582.93</ele>
  <time>2026-08-28T17:50:46Z</time>
  <course>247.05</course>
  <speed>0.022360679774997897</speed>
  <fix>3d</fix>
</trkpt>
<trkpt lat="40.0713749" lon="-105.229789">
  <ele>1583.0</ele>
  <time>2026-08-28T17:50:46Z</time>
  <course>0.0</course>
  <speed>0.0</speed>
  <fix>3d</fix>
</trkpt>
<trkpt lat="40.0713751" lon="-105.2297889">
  <ele>1582.92</ele>
  <time>2026-08-28T17:50:46Z</time>
  <course>247.05</course>
  <speed>0.022360679774997897</speed>
  <fix>3d</fix>
</trkpt>
<trkpt lat="40.0713749" lon="-105.229789">
  <ele>1583.0</ele>
  <time>2026-08-28T17:50:46Z</time>
  <course>0.0</course>
  <speed>0.0</speed>
  <fix>3d</fix>
</trkpt>
<trkpt lat="40.0713751" lon="-105.2297889">
  <ele>1582.92</ele>
  <time>2026-08-28T17:50:46Z</time>
  <course>247.05</course>
  <speed>0.022360679774997897</speed>
  <fix>3d</fix>
</trkpt>
<trkpt lat="40.0713749" lon="-105.229789">
  <ele>1583.0</ele>
  <time>2026-08-28T17:50:46Z</time>
  <course>0.0</course>
  <speed>0.0</speed>
  <fix>3d</fix>
</trkpt>
<trkpt lat="40.0713751" lon="-105.2297889">
  <ele>1582.92</ele>
  <time>2026-08-28T17:50:46Z</time>
  <course>247.05</course>
  <speed>0.022360679774997897</speed>
  <fix>3d</fix>
</trkpt>
<trkpt lat="40.0713749" lon="-105.229789">
  <ele>1583.0</ele>
  <time>2026-08-28T17:50:46Z</time>
  <course>0.0</course>
  <speed>0.0</speed>
  <fix>3d</fix>
</trkpt>
<trkpt lat="40.0713751" lon="-105.2297889">
  <ele>1582.91</ele>
  <time>2026-08-28T17:50:46Z</time>
  <course>247.05</course>
  <speed>0.022360679774997897</speed>
  <fix>3d</fix>
</trkpt>
<trkpt lat="40.0713749" lon="-105.229789">
  <ele>1583.0</ele>
  <time>2026-08-28T17:50:46Z</time>
  <course>0.0</course>
  <speed>0.0</speed>
  <fix>3d</fix>
</trkpt>
<trkpt lat="40.0713751" lon="-105.2297889">
  <ele>1582.91</ele>
  <time>2026-08-28T17:50:46Z</time>
  <course>247.05</course>
  <speed>0.022360679774997897</speed>
  <fix>3d</fix>
</trkpt>
<trkpt lat="40.0713749" lon="-105.229789">
  <ele>1583.0</ele>
  <time>2026-08-28T17:50:46Z</time>
  <course>0.0</course>
  <speed>0.0</speed>
  <fix>3d</fix>
</trkpt>
<trkpt lat="40.0713751" lon="-105.2297889">
  <ele>1582.9</ele>
  <time>2026-08-28T17:50:46Z</time>
  <course>247.05</course>
  <speed>0.022360679774997897</speed>
  <fix>3d</fix>
</trkpt>
<trkpt lat="40.0713749" lon="-105.229789">
  <ele>1583.0</ele>
  <time>2026-08-28T17:50:46Z</time>
  <course>0.0</course>
  <speed>0.0</speed>
  <fix>3d</fix>
</trkpt>
<trkpt lat="40.0713751" lon="-105.2297889">
  <ele>1582.89</ele>
  <time>2026-08-28T17:50:46Z</time>
  <course>247.04</course>
  <speed>0.022360679774997897</speed>
  <fix>3d</fix>
</trkpt>
<trkpt lat="40.0713749" lon="-105.229789">
  <ele>1583.0</ele>
  <time>2026-08-28T17:50:46Z</time>
  <course>0.0</course>
  <speed>0.0</speed>
  <fix>3d</fix>
</trkpt>
<trkpt lat="40.0713751" lon="-105.2297889">
  <ele>1582.89</ele>
  <time>2026-08-28T17:50:46Z</time>
  <course>247.04</course>
  <speed>0.022360679774997897</speed>
  <fix>3d</fix>
</trkpt>
<trkpt lat="40.0713749" lon="-105.229789">
  <ele>1583.0</ele>
  <time>2026-08-28T17:50:46Z</time>
  <course>0.0</course>
  <speed>0.0</speed>
  <fix>3d</fix>
</trkpt>
<trkpt lat="40.0713751" lon="-105.2297889">
  <ele>1582.89</ele>
  <time>2026-08-28T17:50:46Z</time>
  <course>247.04</course>
  <speed>0.022360679774997897</speed>
  <fix>3d</fix>
</trkpt>
<trkpt lat="40.0713749" lon="-105.229789">
  <ele>1583.0</ele>
  <time>2026-08-28T17:50:46Z</time>
  <course>0.0</course>
  <speed>0.0</speed>
  <fix>3d</fix>
</trkpt>
<trkpt lat="40.071375" lon="-105.2297889">
  <ele>1582.89</ele>
  <time>2026-08-28T17:50:46Z</time>
  <course>247.04</course>
  <speed>0.022360679774997897</speed>
  <fix>3d</fix>
</trkpt>
<trkpt lat="40.0713749" lon="-105.229789">
  <ele>1583.0</ele>
  <time>2026-08-28T17:50:46Z</time>
  <course>0.0</course>
  <speed>0.0</speed>
  <fix>3d</fix>
</trkpt>
<trkpt lat="40.0713751" lon="-105.2297889">
  <ele>1582.89</ele>
  <time>2026-08-28T17:50:46Z</time>
  <course>247.04</course>
  <speed>0.022360679774997897</speed>
  <fix>3d</fix>
</trkpt>
<trkpt lat="40.0713749" lon="-105.229789">
  <ele>1583.0</ele>
  <time>2026-08-28T17:50:46Z</time>
  <course>0.0</course>
  <speed>0.0</speed>
  <fix>3d</fix>
</trkpt>
<trkpt lat="40.071375" lon="-105.2297889">
  <ele>1582.9</ele>
  <time>2026-08-28T17:50:46Z</time>
  <course>247.04</course>
  <speed>0.022360679774997897</speed>
  <fix>3d</fix>
</trkpt>
<trkpt lat="40.0713749" lon="-105.229789">
  <ele>1583.0</ele>
  <time>2026-08-28T17:50:46Z</time>
  <course>0.0</course>
  <speed>0.0</speed>
  <fix>3d</fix>
</trkpt>
<trkpt lat="40.0713751" lon="-105.2297889">
  <ele>1582.9</ele>
  <time>2026-08-28T17:50:46Z</time>
  <course>247.04</course>
  <speed>0.022360679774997897</speed>
  <fix>3d</fix>
</trkpt>
<trkpt lat="40.0713749" lon="-105.229789">
  <ele>1583.0</ele>
  <time>2026-08-28T17:50:46Z</time>
  <course>0.0</course>
  <speed>0.0</speed>
  <fix>3d</fix>
</trkpt>
<trkpt lat="40.071375" lon="-105.2297889">
  <ele>1582.91</ele>
  <time>2026-08-28T17:50:46Z</time>
  <course>247.04</course>
  <speed>0.022360679774997897</speed>
  <fix>3d</fix>
</trkpt>
<trkpt lat="40.0713749" lon="-105.229789">
  <ele>1583.0</ele>
  <time>2026-08-28T17:50:46Z</time>
  <course>0.0</course>
  <speed>0.0</speed>
  <fix>3d</fix>
</trkpt>
<trkpt lat="40.0713751" lon="-105.2297889">
  <ele>1582.91</ele>
  <time>2026-08-28T17:50:46Z</time>
  <course>247.04</course>
  <speed>0.022360679774997897</speed>
  <fix>3d</fix>
</trkpt>
<trkpt lat="40.0713749" lon="-105.229789">
  <ele>1583.0</ele>
  <time>2026-08-28T17:50:46Z</time>
  <course>0.0</course>
  <speed>0.0</speed>
  <fix>3d</fix>
</trkpt>
<trkpt lat="40.071375" lon="-105.2297889">
  <ele>1582.91</ele>
  <time>2026-08-28T17:50:46Z</time>
  <course>247.04</course>
  <speed>0.022360679774997897</speed>
  <fix>3d</fix>
</trkpt>
<trkpt lat="40.0713749" lon="-105.229789">
  <ele>1583.0</ele>
  <time>2026-08-28T17:50:46Z</time>
  <course>0.0</course>
  <speed>0.0</speed>
  <fix>3d</fix>
</trkpt>
<trkpt lat="40.0713751" lon="-105.2297889">
  <ele>1582.92</ele>
  <time>2026-08-28T17:50:46Z</time>
  <course>247.04</course>
  <speed>0.022360679774997897</speed>
  <fix>3d</fix>
</trkpt>
<trkpt lat="40.0713749" lon="-105.229789">
  <ele>1583.0</ele>
  <time>2026-08-28T17:50:46Z</time>
  <course>0.0</course>
  <speed>0.0</speed>
  <fix>3d</fix>
</trkpt>
<trkpt lat="40.071375" lon="-105.2297889">
  <ele>1582.92</ele>
  <time>2026-08-28T17:50:46Z</time>
  <course>247.04</course>
  <speed>0.022360679774997897</speed>
  <fix>3d</fix>
</trkpt>
<trkpt lat="40.0713749" lon="-105.229789">
  <ele>1583.0</ele>
  <time>2026-08-28T17:50:46Z</time>
  <course>0.0</course>
  <speed>0.0</speed>
  <fix>3d</fix>
</trkpt>
<trkpt lat="40.0713751" lon="-105.2297889">
  <ele>1582.92</ele>
  <time>2026-08-28T17:50:46Z</time>
  <course>247.04</course>
  <speed>0.022360679774997897</speed>
  <fix>3d</fix>
</trkpt>
<trkpt lat="40.0713749" lon="-105.229789">
  <ele>1583.0</ele>
  <time>2026-08-28T17:50:46Z</time>
  <course>0.0</course>
  <speed>0.0</speed>
  <fix>3d</fix>
</trkpt>
<trkpt lat="40.071375" lon="-105.2297889">
  <ele>1582.92</ele>
  <time>2026-08-28T17:50:46Z</time>
  <course>247.04</course>
  <speed>0.022360679774997897</speed>
  <fix>3d</fix>
</trkpt>
<trkpt lat="40.0713749" lon="-105.229789">
  <ele>1583.0</ele>
  <time>2026-08-28T17:50:46Z</time>
  <course>0.0</course>
  <speed>0.0</speed>
  <fix>3d</fix>
</trkpt>
<trkpt lat="40.0713751" lon="-105.2297889">
  <ele>1582.92</ele>
  <time>2026-08-28T17:50:46Z</time>
  <course>247.04</course>
  <speed>0.022360679774997897</speed>
  <fix>3d</fix>
</trkpt>
<trkpt lat="40.0713749" lon="-105.229789">
  <ele>1583.0</ele>
  <time>2026-08-28T17:50:46Z</time>
  <course>0.0</course>
  <speed>0.0</speed>
  <fix>3d</fix>
</trkpt>
<trkpt lat="40.071375" lon="-105.2297889">
  <ele>1582.92</ele>
  <time>2026-08-28T17:50:46Z</time>
  <course>247.04</course>
  <speed>0.02</speed>
  <fix>3d</fix>
</trkpt>
<trkpt lat="40.0713749" lon="-105.229789">
  <ele>1583.0</ele>
  <time>2026-08-28T17:50:46Z</time>
  <course>0.0</course>
  <speed>0.0</speed>
  <fix>3d</fix>
</trkpt>
<trkpt lat="40.0713751" lon="-105.2297889">
  <ele>1582.92</ele>
  <time>2026-08-28T17:50:46Z</time>
  <course>247.04</course>
  <speed>0.022360679774997897</speed>
  <fix>3d</fix>
</trkpt>
<trkpt lat="40.0713749" lon="-105.229789">
  <ele>1583.0</ele>
  <time>2026-08-28T17:50:46Z</time>
  <course>0.0</course>
  <speed>0.0</speed>
  <fix>3d</fix>
</trkpt>
<trkpt lat="40.0713751" lon="-105.2297889">
  <ele>1582.92</ele>
  <time>2026-08-28T17:50:46Z</time>
  <course>247.04</course>
  <speed>0.022360679774997897</speed>
  <fix>3d</fix>
</trkpt>
<trkpt lat="40.0713749" lon="-105.229789">
  <ele>1583.0</ele>
  <time>2026-08-28T17:50:46Z</time>
  <course>0.0</course>
  <speed>0.0</speed>
  <fix>3d</fix>
</trkpt>
<trkpt lat="40.0713751" lon="-105.2297889">
  <ele>1582.92</ele>
  <time>2026-08-28T17:50:46Z</time>
  <course>247.04</course>
  <speed>0.022360679774997897</speed>
  <fix>3d</fix>
</trkpt>
<trkpt lat="40.0713749" lon="-105.229789">
  <ele>1583.0</ele>
  <time>2026-08-28T17:50:46Z</time>
  <course>0.0</course>
  <speed>0.0</speed>
  <fix>3d</fix>
</trkpt>
<trkpt lat="40.0713751" lon="-105.2297889">
  <ele>1582.92</ele>
  <time>2026-08-28T17:50:46Z</time>
  <course>247.04</course>
  <speed>0.022360679774997897</speed>
  <fix>3d</fix>
</trkpt>
<trkpt lat="40.0713749" lon="-105.229789">
  <ele>1583.0</ele>
  <time>2026-08-28T17:50:46Z</time>
  <course>0.0</course>
  <speed>0.0</speed>
  <fix>3d</fix>
</trkpt>
<trkpt lat="40.0713751" lon="-105.2297889">
  <ele>1582.93</ele>
  <time>2026-08-28T17:50:46Z</time>
  <course>247.04</course>
  <speed>0.022360679774997897</speed>
  <fix>3d</fix>
</trkpt>
<trkpt lat="40.0713749" lon="-105.229789">
  <ele>1583.0</ele>
  <time>2026-08-28T17:50:46Z</time>
  <course>0.0</course>
  <speed>0.0</speed>
  <fix>3d</fix>
</trkpt>
<trkpt lat="40.0713751" lon="-105.2297889">
  <ele>1582.93</ele>
  <time>2026-08-28T17:50:46Z</time>
  <course>247.04</course>
  <speed>0.022360679774997897</speed>
  <fix>3d</fix>
</trkpt>
<trkpt lat="40.0713749" lon="-105.229789">
  <ele>1583.0</ele>
  <time>2026-08-28T17:50:46Z</time>
  <course>0.0</course>
  <speed>0.0</speed>
  <fix>3d</fix>
</trkpt>
<trkpt lat="40.0713751" lon="-105.2297889">
  <ele>1582.93</ele>
  <time>2026-08-28T17:50:46Z</time>
  <course>247.04</course>
  <speed>0.022360679774997897</speed>
  <fix>3d</fix>
</trkpt>
<trkpt lat="40.0713749" lon="-105.229789">
  <ele>1583.0</ele>
  <time>2026-08-28T17:50:46Z</time>
  <course>0.0</course>
  <speed>0.0</speed>
  <fix>3d</fix>
</trkpt>
<trkpt lat="40.0713751" lon="-105.2297889">
  <ele>1582.93</ele>
  <time>2026-08-28T17:50:46Z</time>
  <course>247.04</course>
  <speed>0.022360679774997897</speed>
  <fix>3d</fix>
</trkpt>
<trkpt lat="40.0713749" lon="-105.229789">
  <ele>1583.0</ele>
  <time>2026-08-28T17:50:46Z</time>
  <course>0.0</course>
  <speed>0.0</speed>
  <fix>3d</fix>
</trkpt>
<trkpt lat="40.0713751" lon="-105.2297889">
  <ele>1582.94</ele>
  <time>2026-08-28T17:50:46Z</time>
  <course>247.04</course>
  <speed>0.022360679774997897</speed>
  <fix>3d</fix>
</trkpt>
<trkpt lat="40.0713749" lon="-105.229789">
  <ele>1583.0</ele>
  <time>2026-08-28T17:50:46Z</time>
  <course>0.0</course>
  <speed>0.0</speed>
  <fix>3d</fix>
</trkpt>
<trkpt lat="40.071375" lon="-105.2297889">
  <ele>1582.94</ele>
  <time>2026-08-28T17:50:46Z</time>
  <course>247.04</course>
  <speed>0.022360679774997897</speed>
  <fix>3d</fix>
</trkpt>
<trkpt lat="40.0713749" lon="-105.229789">
  <ele>1583.0</ele>
  <time>2026-08-28T17:50:46Z</time>
  <course>0.0</course>
  <speed>0.0</speed>
  <fix>3d</fix>
</trkpt>
<trkpt lat="40.0713751" lon="-105.2297889">
  <ele>1582.95</ele>
  <time>2026-08-28T17:50:46Z</time>
  <course>247.04</course>
  <speed>0.022360679774997897</speed>
  <fix>3d</fix>
</trkpt>
<trkpt lat="40.0713749" lon="-105.229789">
  <ele>1583.0</ele>
  <time>2026-08-28T17:50:46Z</time>
  <course>0.0</course>
  <speed>0.0</speed>
  <fix>3d</fix>
</trkpt>
<trkpt lat="40.071375" lon="-105.2297889">
  <ele>1582.96</ele>
  <time>2026-08-28T17:50:46Z</time>
  <course>247.04</course>
  <speed>0.022360679774997897</speed>
  <fix>3d</fix>
</trkpt>
<trkpt lat="40.0713749" lon="-105.229789">
  <ele>1583.0</ele>
  <time>2026-08-28T17:50:46Z</time>
  <course>0.0</course>
  <speed>0.0</speed>
  <fix>3d</fix>
</trkpt>
<trkpt lat="40.0713751" lon="-105.2297889">
  <ele>1582.97</ele>
  <time>2026-08-28T17:50:46Z</time>
  <course>247.04</course>
  <speed>0.022360679774997897</speed>
  <fix>3d</fix>
</trkpt>
<trkpt lat="40.0713749" lon="-105.229789">
  <ele>1583.0</ele>
  <time>2026-08-28T17:50:46Z</time>
  <course>0.0</course>
  <speed>0.0</speed>
  <fix>3d</fix>
</trkpt>
<trkpt lat="40.071375" lon="-105.2297889">
  <ele>1582.98</ele>
  <time>2026-08-28T17:50:46Z</time>
  <course>247.04</course>
  <speed>0.022360679774997897</speed>
  <fix>3d</fix>
</trkpt>
<trkpt lat="40.0713749" lon="-105.229789">
  <ele>1583.0</ele>
  <time>2026-08-28T17:50:46Z</time>
  <course>0.0</course>
  <speed>0.0</speed>
  <fix>3d</fix>
</trkpt>
<trkpt lat="40.0713751" lon="-105.2297889">
  <ele>1582.99</ele>
  <time>2026-08-28T17:50:46Z</time>
  <course>247.04</course>
  <speed>0.022360679774997897</speed>
  <fix>3d</fix>
</trkpt>
<trkpt lat="40.0713749" lon="-105.229789">
  <ele>1583.0</ele>
  <time>2026-08-28T17:50:46Z</time>
  <course>0.0</course>
  <speed>0.0</speed>
  <fix>3d</fix>
</trkpt>
<trkpt lat="40.071375" lon="-105.2297889">
  <ele>1582.99</ele>
  <time>2026-08-28T17:50:46Z</time>
  <course>247.04</course>
  <speed>0.022360679774997897</speed>
  <fix>3d</fix>
</trkpt>
<trkpt lat="40.0713749" lon="-105.229789">
  <ele>1583.0</ele>
  <time>2026-08-28T17:50:46Z</time>
  <course>0.0</course>
  <speed>0.0</speed>
  <fix>3d</fix>
</trkpt>
<trkpt lat="40.0713751" lon="-105.2297889">
  <ele>1582.99</ele>
  <time>2026-08-28T17:50:46Z</time>
  <course>247.04</course>
  <speed>0.022360679774997897</speed>
  <fix>3d</fix>
</trkpt>
<trkpt lat="40.0713749" lon="-105.229789">
  <ele>1583.0</ele>
  <time>2026-08-28T17:50:46Z</time>
  <course>0.0</course>
  <speed>0.0</speed>
  <fix>3d</fix>
</trkpt>
<trkpt lat="40.071375" lon="-105.2297889">
  <ele>1582.99</ele>
  <time>2026-08-28T17:50:46Z</time>
  <course>247.04</course>
  <speed>0.022360679774997897</speed>
  <fix>3d</fix>
</trkpt>
<trkpt lat="40.0713749" lon="-105.229789">
  <ele>1583.0</ele>
  <time>2026-08-28T17:50:46Z</time>
  <course>0.0</course>
  <speed>0.0</speed>
  <fix>3d</fix>
</trkpt>
<trkpt lat="40.0713751" lon="-105.2297889">
  <ele>1582.99</ele>
  <time>2026-08-28T17:50:46Z</time>
  <course>247.04</course>
  <speed>0.022360679774997897</speed>
  <fix>3d</fix>
</trkpt>
<trkpt lat="40.0713749" lon="-105.229789">
  <ele>1583.0</ele>
  <time>2026-08-28T17:50:46Z</time>
  <course>0.0</course>
  <speed>0.0</speed>
  <fix>3d</fix>
</trkpt>
<trkpt lat="40.071375" lon="-105.2297889">
  <ele>1582.99</ele>
  <time>2026-08-28T17:50:46Z</time>
  <course>247.04</course>
  <speed>0.022360679774997897</speed>
  <fix>3d</fix>
</trkpt>
<trkpt lat="40.0713749" lon="-105.229789">
  <ele>1583.0</ele>
  <time>2026-08-28T17:50:46Z</time>
  <course>0.0</course>
  <speed>0.0</speed>
  <fix>3d</fix>
</trkpt>
<trkpt lat="40.0713751" lon="-105.2297889">
  <ele>1582.98</ele>
  <time>2026-08-28T17:50:46Z</time>
  <course>247.04</course>
  <speed>0.022360679774997897</speed>
  <fix>3d</fix>
</trkpt>
<trkpt lat="40.0713749" lon="-105.229789">
  <ele>1583.0</ele>
  <time>2026-08-28T17:50:46Z</time>
  <course>0.0</course>
  <speed>0.0</speed>
  <fix>3d</fix>
</trkpt>
<trkpt lat="40.0713751" lon="-105.2297889">
  <ele>1582.98</ele>
  <time>2026-08-28T17:50:46Z</time>
  <course>247.04</course>
  <speed>0.022360679774997897</speed>
  <fix>3d</fix>
</trkpt>
<trkpt lat="40.0713749" lon="-105.229789">
  <ele>1583.0</ele>
  <time>2026-08-28T17:50:46Z</time>
  <course>0.0</course>
  <speed>0.0</speed>
  <fix>3d</fix>
</trkpt>
<trkpt lat="40.0713751" lon="-105.2297889">
  <ele>1582.98</ele>
  <time>2026-08-28T17:50:46Z</time>
  <course>247.04</course>
  <speed>0.022360679774997897</speed>
  <fix>3d</fix>
</trkpt>
<trkpt lat="40.0713749" lon="-105.229789">
  <ele>1583.0</ele>
  <time>2026-08-28T17:50:46Z</time>
  <course>0.0</course>
  <speed>0.0</speed>
  <fix>3d</fix>
</trkpt>
<trkpt lat="40.0713751" lon="-105.2297889">
  <ele>1582.97</ele>
  <time>2026-08-28T17:50:46Z</time>
  <course>247.04</course>
  <speed>0.022360679774997897</speed>
  <fix>3d</fix>
</trkpt>
<trkpt lat="40.0713749" lon="-105.229789">
  <ele>1583.0</ele>
  <time>2026-08-28T17:50:46Z</time>
  <course>0.0</course>
  <speed>0.0</speed>
  <fix>3d</fix>
</trkpt>
<trkpt lat="40.0713751" lon="-105.2297889">
  <ele>1582.96</ele>
  <time>2026-08-28T17:50:46Z</time>
  <course>247.04</course>
  <speed>0.022360679774997897</speed>
  <fix>3d</fix>
</trkpt>
<trkpt lat="40.0713749" lon="-105.229789">
  <ele>1583.0</ele>
  <time>2026-08-28T17:50:46Z</time>
  <course>0.0</course>
  <speed>0.0</speed>
  <fix>3d</fix>
</trkpt>
<trkpt lat="40.0713751" lon="-105.2297889">
  <ele>1582.96</ele>
  <time>2026-08-28T17:50:46Z</time>
  <course>247.04</course>
  <speed>0.022360679774997897</speed>
  <fix>3d</fix>
</trkpt>
<trkpt lat="40.0713749" lon="-105.229789">
  <ele>1583.0</ele>
  <time>2026-08-28T17:50:46Z</time>
  <course>0.0</course>
  <speed>0.0</speed>
  <fix>3d</fix>
</trkpt>
<trkpt lat="40.0713751" lon="-105.2297889">
  <ele>1582.95</ele>
  <time>2026-08-28T17:50:46Z</time>
  <course>247.04</course>
  <speed>0.022360679774997897</speed>
  <fix>3d</fix>
</trkpt>
<trkpt lat="40.0713749" lon="-105.229789">
  <ele>1583.0</ele>
  <time>2026-08-28T17:50:46Z</time>
  <course>0.0</course>
  <speed>0.0</speed>
  <fix>3d</fix>
</trkpt>
<trkpt lat="40.0713751" lon="-105.2297889">
  <ele>1582.95</ele>
  <time>2026-08-28T17:50:46Z</time>
  <course>247.04</course>
  <speed>0.022360679774997897</speed>
  <fix>3d</fix>
</trkpt>
<trkpt lat="40.0713749" lon="-105.229789">
  <ele>1583.0</ele>
  <time>2026-08-28T17:50:46Z</time>
  <course>0.0</course>
  <speed>0.0</speed>
  <fix>3d</fix>
</trkpt>
<trkpt lat="40.0713751" lon="-105.2297889">
  <ele>1582.95</ele>
  <time>2026-08-28T17:50:46Z</time>
  <course>247.04</course>
  <speed>0.022360679774997897</speed>
  <fix>3d</fix>
</trkpt>
<trkpt lat="40.0713749" lon="-105.229789">
  <ele>1583.0</ele>
  <time>2026-08-28T17:50:46Z</time>
  <course>0.0</course>
  <speed>0.0</speed>
  <fix>3d</fix>
</trkpt>
<trkpt lat="40.071375" lon="-105.2297889">
  <ele>1582.95</ele>
  <time>2026-08-28T17:50:46Z</time>
  <course>247.04</course>
  <speed>0.02</speed>
  <fix>3d</fix>
</trkpt>
<trkpt lat="40.0713749" lon="-105.229789">
  <ele>1583.0</ele>
  <time>2026-08-28T17:50:46Z</time>
  <course>0.0</course>
  <speed>0.0</speed>
  <fix>3d</fix>
</trkpt>
<trkpt lat="40.0713751" lon="-105.2297889">
  <ele>1582.96</ele>
  <time>2026-08-28T17:50:46Z</time>
  <course>247.04</course>
  <speed>0.022360679774997897</speed>
  <fix>3d</fix>
</trkpt>
<trkpt lat="40.0713749" lon="-105.229789">
  <ele>1583.0</ele>
  <time>2026-08-28T17:50:46Z</time>
  <course>0.0</course>
  <speed>0.0</speed>
  <fix>3d</fix>
</trkpt>
<trkpt lat="40.071375" lon="-105.2297889">
  <ele>1582.96</ele>
  <time>2026-08-28T17:50:46Z</time>
  <course>247.04</course>
  <speed>0.02</speed>
  <fix>3d</fix>
</trkpt>
<trkpt lat="40.0713749" lon="-105.229789">
  <ele>1583.0</ele>
  <time>2026-08-28T17:50:46Z</time>
  <course>0.0</course>
  <speed>0.0</speed>
  <fix>3d</fix>
</trkpt>
<trkpt lat="40.0713751" lon="-105.2297889">
  <ele>1582.97</ele>
  <time>2026-08-28T17:50:46Z</time>
  <course>247.04</course>
  <speed>0.022360679774997897</speed>
  <fix>3d</fix>
</trkpt>
<trkpt lat="40.0713749" lon="-105.229789">
  <ele>1583.0</ele>
  <time>2026-08-28T17:50:46Z</time>
  <course>0.0</course>
  <speed>0.0</speed>
  <fix>3d</fix>
</trkpt>
<trkpt lat="40.071375" lon="-105.2297889">
  <ele>1582.97</ele>
  <time>2026-08-28T17:50:46Z</time>
  <course>247.04</course>
  <speed>0.022360679774997897</speed>
  <fix>3d</fix>
</trkpt>
<trkpt lat="40.0713749" lon="-105.229789">
  <ele>1583.0</ele>
  <time>2026-08-28T17:50:46Z</time>
  <course>0.0</course>
  <speed>0.0</speed>
  <fix>3d</fix>
</trkpt>
<trkpt lat="40.0713751" lon="-105.2297889">
  <ele>1582.98</ele>
  <time>2026-08-28T17:50:46Z</time>
  <course>247.04</course>
  <speed>0.022360679774997897</speed>
  <fix>3d</fix>
</trkpt>
<trkpt lat="40.0713749" lon="-105.229789">
  <ele>1583.0</ele>
  <time>2026-08-28T17:50:46Z</time>
  <course>0.0</course>
  <speed>0.0</speed>
  <fix>3d</fix>
</trkpt>
<trkpt lat="40.071375" lon="-105.2297889">
  <ele>1582.98</ele>
  <time>2026-08-28T17:50:46Z</time>
  <course>247.04</course>
  <speed>0.02</speed>
  <fix>3d</fix>
</trkpt>
<trkpt lat="40.0713749" lon="-105.229789">
  <ele>1583.0</ele>
  <time>2026-08-28T17:50:46Z</time>
  <course>0.0</course>
  <speed>0.0</speed>
  <fix>3d</fix>
</trkpt>
<trkpt lat="40.0713751" lon="-105.2297889">
  <ele>1582.98</ele>
  <time>2026-08-28T17:50:46Z</time>
  <course>247.04</course>
  <speed>0.022360679774997897</speed>
  <fix>3d</fix>
</trkpt>
<trkpt lat="40.0713749" lon="-105.229789">
  <ele>1583.0</ele>
  <time>2026-08-28T17:50:46Z</time>
  <course>0.0</course>
  <speed>0.0</speed>
  <fix>3d</fix>
</trkpt>
<trkpt lat="40.071375" lon="-105.2297889">
  <ele>1582.98</ele>
  <time>2026-08-28T17:50:46Z</time>
  <course>247.04</course>
  <speed>0.02</speed>
  <fix>3d</fix>
</trkpt>
<trkpt lat="40.0713749" lon="-105.229789">
  <ele>1583.0</ele>
  <time>2026-08-28T17:50:46Z</time>
  <course>0.0</course>
  <speed>0.0</speed>
  <fix>3d</fix>
</trkpt>
<trkpt lat="40.0713751" lon="-105.2297889">
  <ele>1582.98</ele>
  <time>2026-08-28T17:50:46Z</time>
  <course>247.04</course>
  <speed>0.022360679774997897</speed>
  <fix>3d</fix>
</trkpt>
<trkpt lat="40.0713749" lon="-105.229789">
  <ele>1583.0</ele>
  <time>2026-08-28T17:50:46Z</time>
  <course>0.0</course>
  <speed>0.0</speed>
  <fix>3d</fix>
</trkpt>
<trkpt lat="40.071375" lon="-105.2297889">
  <ele>1582.98</ele>
  <time>2026-08-28T17:50:46Z</time>
  <course>247.04</course>
  <speed>0.02</speed>
  <fix>3d</fix>
</trkpt>
<trkpt lat="40.0713749" lon="-105.229789">
  <ele>1583.0</ele>
  <time>2026-08-28T17:50:46Z</time>
  <course>0.0</course>
  <speed>0.0</speed>
  <fix>3d</fix>
</trkpt>
<trkpt lat="40.0713751" lon="-105.2297889">
  <ele>1582.97</ele>
  <time>2026-08-28T17:50:46Z</time>
  <course>247.04</course>
  <speed>0.022360679774997897</speed>
  <fix>3d</fix>
</trkpt>
<trkpt lat="40.0713749" lon="-105.229789">
  <ele>1583.0</ele>
  <time>2026-08-28T17:50:46Z</time>
  <course>0.0</course>
  <speed>0.0</speed>
  <fix>3d</fix>
</trkpt>
<trkpt lat="40.0713751" lon="-105.2297889">
  <ele>1582.97</ele>
  <time>2026-08-28T17:50:46Z</time>
  <course>247.04</course>
  <speed>0.022360679774997897</speed>
  <fix>3d</fix>
</trkpt>
<trkpt lat="40.0713749" lon="-105.229789">
  <ele>1583.0</ele>
  <time>2026-08-28T17:50:46Z</time>
  <course>0.0</course>
  <speed>0.0</speed>
  <fix>3d</fix>
</trkpt>
<trkpt lat="40.0713751" lon="-105.2297889">
  <ele>1582.97</ele>
  <time>2026-08-28T17:50:46Z</time>
  <course>247.04</course>
  <speed>0.022360679774997897</speed>
  <fix>3d</fix>
</trkpt>
<trkpt lat="40.0713749" lon="-105.229789">
  <ele>1583.0</ele>
  <time>2026-08-28T17:50:46Z</time>
  <course>0.0</course>
  <speed>0.0</speed>
  <fix>3d</fix>
</trkpt>
<trkpt lat="40.0713751" lon="-105.2297889">
  <ele>1582.96</ele>
  <time>2026-08-28T17:50:46Z</time>
  <course>247.04</course>
  <speed>0.022360679774997897</speed>
  <fix>3d</fix>
</trkpt>
<trkpt lat="40.0713749" lon="-105.229789">
  <ele>1583.0</ele>
  <time>2026-08-28T17:50:46Z</time>
  <course>0.0</course>
  <speed>0.0</speed>
  <fix>3d</fix>
</trkpt>
<trkpt lat="40.0713751" lon="-105.2297889">
  <ele>1582.95</ele>
  <time>2026-08-28T17:50:46Z</time>
  <course>247.04</course>
  <speed>0.022360679774997897</speed>
  <fix>3d</fix>
</trkpt>
<trkpt lat="40.0713749" lon="-105.229789">
  <ele>1583.0</ele>
  <time>2026-08-28T17:50:46Z</time>
  <course>0.0</course>
  <speed>0.0</speed>
  <fix>3d</fix>
</trkpt>
<trkpt lat="40.0713751" lon="-105.2297889">
  <ele>1582.95</ele>
  <time>2026-08-28T17:50:46Z</time>
  <course>247.04</course>
  <speed>0.022360679774997897</speed>
  <fix>3d</fix>
</trkpt>
<trkpt lat="40.0713749" lon="-105.229789">
  <ele>1583.0</ele>
  <time>2026-08-28T17:50:46Z</time>
  <course>0.0</course>
  <speed>0.0</speed>
  <fix>3d</fix>
</trkpt>
<trkpt lat="40.0713751" lon="-105.2297889">
  <ele>1582.94</ele>
  <time>2026-08-28T17:50:46Z</time>
  <course>247.04</course>
  <speed>0.022360679774997897</speed>
  <fix>3d</fix>
</trkpt>
<trkpt lat="40.0713749" lon="-105.229789">
  <ele>1583.0</ele>
  <time>2026-08-28T17:50:46Z</time>
  <course>0.0</course>
  <speed>0.0</speed>
  <fix>3d</fix>
</trkpt>
<trkpt lat="40.0713751" lon="-105.2297889">
  <ele>1582.95</ele>
  <time>2026-08-28T17:50:46Z</time>
  <course>247.04</course>
  <speed>0.022360679774997897</speed>
  <fix>3d</fix>
</trkpt>
<trkpt lat="40.0713749" lon="-105.229789">
  <ele>1583.0</ele>
  <time>2026-08-28T17:50:46Z</time>
  <course>0.0</course>
  <speed>0.0</speed>
  <fix>3d</fix>
</trkpt>
<trkpt lat="40.0713751" lon="-105.2297889">
  <ele>1582.95</ele>
  <time>2026-08-28T17:50:46Z</time>
  <course>247.04</course>
  <speed>0.022360679774997897</speed>
  <fix>3d</fix>
</trkpt>
<trkpt lat="40.0713749" lon="-105.229789">
  <ele>1583.0</ele>
  <time>2026-08-28T17:50:46Z</time>
  <course>0.0</course>
  <speed>0.0</speed>
  <fix>3d</fix>
</trkpt>
<trkpt lat="40.0713751" lon="-105.2297889">
  <ele>1582.96</ele>
  <time>2026-08-28T17:50:46Z</time>
  <course>247.04</course>
  <speed>0.022360679774997897</speed>
  <fix>3d</fix>
</trkpt>
<trkpt lat="40.0713749" lon="-105.229789">
  <ele>1583.0</ele>
  <time>2026-08-28T17:50:46Z</time>
  <course>0.0</course>
  <speed>0.0</speed>
  <fix>3d</fix>
</trkpt>
<trkpt lat="40.0713751" lon="-105.2297889">
  <ele>1582.96</ele>
  <time>2026-08-28T17:50:46Z</time>
  <course>247.04</course>
  <speed>0.022360679774997897</speed>
  <fix>3d</fix>
</trkpt>
<trkpt lat="40.0713749" lon="-105.229789">
  <ele>1583.0</ele>
  <time>2026-08-28T17:50:46Z</time>
  <course>0.0</course>
  <speed>0.0</speed>
  <fix>3d</fix>
</trkpt>
<trkpt lat="40.071375" lon="-105.2297889">
  <ele>1582.97</ele>
  <time>2026-08-28T17:50:46Z</time>
  <course>247.04</course>
  <speed>0.022360679774997897</speed>
  <fix>3d</fix>
</trkpt>
<trkpt lat="40.0713749" lon="-105.229789">
  <ele>1583.0</ele>
  <time>2026-08-28T17:50:46Z</time>
  <course>0.0</course>
  <speed>0.0</speed>
  <fix>3d</fix>
</trkpt>
<trkpt lat="40.0713751" lon="-105.2297889">
  <ele>1582.98</ele>
  <time>2026-08-28T17:50:46Z</time>
  <course>247.04</course>
  <speed>0.022360679774997897</speed>
  <fix>3d</fix>
</trkpt>
<trkpt lat="40.0713749" lon="-105.229789">
  <ele>1583.0</ele>
  <time>2026-08-28T17:50:46Z</time>
  <course>0.0</course>
  <speed>0.0</speed>
  <fix>3d</fix>
</trkpt>
<trkpt lat="40.071375" lon="-105.2297889">
  <ele>1582.98</ele>
  <time>2026-08-28T17:50:46Z</time>
  <course>247.04</course>
  <speed>0.022360679774997897</speed>
  <fix>3d</fix>
</trkpt>
<trkpt lat="40.0713749" lon="-105.229789">
  <ele>1583.0</ele>
  <time>2026-08-28T17:50:46Z</time>
  <course>0.0</course>
  <speed>0.0</speed>
  <fix>3d</fix>
</trkpt>
<trkpt lat="40.0713751" lon="-105.2297889">
  <ele>1582.99</ele>
  <time>2026-08-28T17:50:46Z</time>
  <course>247.04</course>
  <speed>0.022360679774997897</speed>
  <fix>3d</fix>
</trkpt>
<trkpt lat="40.0713749" lon="-105.229789">
  <ele>1583.0</ele>
  <time>2026-08-28T17:50:46Z</time>
  <course>0.0</course>
  <speed>0.0</speed>
  <fix>3d</fix>
</trkpt>
<trkpt lat="40.071375" lon="-105.2297889">
  <ele>1582.99</ele>
  <time>2026-08-28T17:50:46Z</time>
  <course>247.04</course>
  <speed>0.022360679774997897</speed>
  <fix>3d</fix>
</trkpt>
<trkpt lat="40.0713749" lon="-105.229789">
  <ele>1583.0</ele>
  <time>2026-08-28T17:50:46Z</time>
  <course>0.0</course>
  <speed>0.0</speed>
  <fix>3d</fix>
</trkpt>
<trkpt lat="40.0713751" lon="-105.2297889">
  <ele>1583.0</ele>
  <time>2026-08-28T17:50:46Z</time>
  <course>247.04</course>
  <speed>0.022360679774997897</speed>
  <fix>3d</fix>
</trkpt>
<trkpt lat="40.0713749" lon="-105.229789">
  <ele>1583.0</ele>
  <time>2026-08-28T17:50:46Z</time>
  <course>0.0</course>
  <speed>0.0</speed>
  <fix>3d</fix>
</trkpt>
<trkpt lat="40.0713751" lon="-105.2297889">
  <ele>1583.0</ele>
  <time>2026-08-28T17:50:46Z</time>
  <course>247.04</course>
  <speed>0.022360679774997897</speed>
  <fix>3d</fix>
</trkpt>
<trkpt lat="40.0713749" lon="-105.229789">
  <ele>1583.0</ele>
  <time>2026-08-28T17:50:46Z</time>
  <course>0.0</course>
  <speed>0.0</speed>
  <fix>3d</fix>
</trkpt>
<trkpt lat="40.0713751" lon="-105.2297889">
  <ele>1583.0</ele>
  <time>2026-08-28T17:50:46Z</time>
  <course>247.04</course>
  <speed>0.022360679774997897</speed>
  <fix>3d</fix>
</trkpt>
<trkpt lat="40.0713749" lon="-105.229789">
  <ele>1583.0</ele>
  <time>2026-08-28T17:50:46Z</time>
  <course>0.0</course>
  <speed>0.0</speed>
  <fix>3d</fix>
</trkpt>
<trkpt lat="40.0713751" lon="-105.2297889">
  <ele>1583.0</ele>
  <time>2026-08-28T17:50:46Z</time>
  <course>247.04</course>
  <speed>0.022360679774997897</speed>
  <fix>3d</fix>
</trkpt>
<trkpt lat="40.0713749" lon="-105.229789">
  <ele>1583.0</ele>
  <time>2026-08-28T17:50:46Z</time>
  <course>0.0</course>
  <speed>0.0</speed>
  <fix>3d</fix>
</trkpt>
<trkpt lat="40.0713751" lon="-105.2297889">
  <ele>1583.0</ele>
  <time>2026-08-28T17:50:46Z</time>
  <course>247.04</course>
  <speed>0.022360679774997897</speed>
  <fix>3d</fix>
</trkpt>
<trkpt lat="40.0713749" lon="-105.229789">
  <ele>1583.0</ele>
  <time>2026-08-28T17:50:46Z</time>
  <course>0.0</course>
  <speed>0.0</speed>
  <fix>3d</fix>
</trkpt>
<trkpt lat="40.0713751" lon="-105.2297889">
  <ele>1583.0</ele>
  <time>2026-08-28T17:50:46Z</time>
  <course>247.04</course>
  <speed>0.022360679774997897</speed>
  <fix>3d</fix>
</trkpt>
<trkpt lat="40.0713749" lon="-105.229789">
  <ele>1583.0</ele>
  <time>2026-08-28T17:50:46Z</time>
  <course>0.0</course>
  <speed>0.0</speed>
  <fix>3d</fix>
</trkpt>
<trkpt lat="40.0713751" lon="-105.2297889">
  <ele>1583.0</ele>
  <time>2026-08-28T17:50:46Z</time>
  <course>247.04</course>
  <speed>0.022360679774997897</speed>
  <fix>3d</fix>
</trkpt>
<trkpt lat="40.0713749" lon="-105.229789">
  <ele>1583.0</ele>
  <time>2026-08-28T17:50:46Z</time>
  <course>0.0</course>
  <speed>0.0</speed>
  <fix>3d</fix>
</trkpt>
<trkpt lat="40.0713751" lon="-105.2297889">
  <ele>1583.0</ele>
  <time>2026-08-28T17:50:46Z</time>
  <course>247.03</course>
  <speed>0.022360679774997897</speed>
  <fix>3d</fix>
</trkpt>
<trkpt lat="40.0713749" lon="-105.229789">
  <ele>1583.0</ele>
  <time>2026-08-28T17:50:46Z</time>
  <course>0.0</course>
  <speed>0.0</speed>
  <fix>3d</fix>
</trkpt>
<trkpt lat="40.0713751" lon="-105.2297889">
  <ele>1583.0</ele>
  <time>2026-08-28T17:50:46Z</time>
  <course>247.03</course>
  <speed>0.022360679774997897</speed>
  <fix>3d</fix>
</trkpt>
<trkpt lat="40.0713749" lon="-105.229789">
  <ele>1583.0</ele>
  <time>2026-08-28T17:50:46Z</time>
  <course>0.0</course>
  <speed>0.0</speed>
  <fix>3d</fix>
</trkpt>
<trkpt lat="40.0713751" lon="-105.2297889">
  <ele>1582.99</ele>
  <time>2026-08-28T17:50:46Z</time>
  <course>247.03</course>
  <speed>0.022360679774997897</speed>
  <fix>3d</fix>
</trkpt>
<trkpt lat="40.0713749" lon="-105.229789">
  <ele>1583.0</ele>
  <time>2026-08-28T17:50:46Z</time>
  <course>0.0</course>
  <speed>0.0</speed>
  <fix>3d</fix>
</trkpt>
<trkpt lat="40.0713751" lon="-105.2297889">
  <ele>1582.99</ele>
  <time>2026-08-28T17:50:46Z</time>
  <course>247.03</course>
  <speed>0.022360679774997897</speed>
  <fix>3d</fix>
</trkpt>
<trkpt lat="40.0713749" lon="-105.229789">
  <ele>1583.0</ele>
  <time>2026-08-28T17:50:46Z</time>
  <course>0.0</course>
  <speed>0.0</speed>
  <fix>3d</fix>
</trkpt>
<trkpt lat="40.0713751" lon="-105.2297889">
  <ele>1582.98</ele>
  <time>2026-08-28T17:50:46Z</time>
  <course>247.03</course>
  <speed>0.022360679774997897</speed>
  <fix>3d</fix>
</trkpt>
<trkpt lat="40.0713749" lon="-105.229789">
  <ele>1583.0</ele>
  <time>2026-08-28T17:50:46Z</time>
  <course>0.0</course>
  <speed>0.0</speed>
  <fix>3d</fix>
</trkpt>
<trkpt lat="40.0713751" lon="-105.2297889">
  <ele>1582.98</ele>
  <time>2026-08-28T17:50:46Z</time>
  <course>247.03</course>
  <speed>0.022360679774997897</speed>
  <fix>3d</fix>
</trkpt>
<trkpt lat="40.0713749" lon="-105.229789">
  <ele>1583.0</ele>
  <time>2026-08-28T17:50:46Z</time>
  <course>0.0</course>
  <speed>0.0</speed>
  <fix>3d</fix>
</trkpt>
<trkpt lat="40.0713751" lon="-105.2297889">
  <ele>1582.97</ele>
  <time>2026-08-28T17:50:46Z</time>
  <course>247.03</course>
  <speed>0.022360679774997897</speed>
  <fix>3d</fix>
</trkpt>
<trkpt lat="40.0713749" lon="-105.229789">
  <ele>1583.0</ele>
  <time>2026-08-28T17:50:46Z</time>
  <course>0.0</course>
  <speed>0.0</speed>
  <fix>3d</fix>
</trkpt>
<trkpt lat="40.0713751" lon="-105.2297889">
  <ele>1582.97</ele>
  <time>2026-08-28T17:50:46Z</time>
  <course>247.03</course>
  <speed>0.022360679774997897</speed>
  <fix>3d</fix>
</trkpt>
<trkpt lat="40.0713749" lon="-105.229789">
  <ele>1583.0</ele>
  <time>2026-08-28T17:50:46Z</time>
  <course>0.0</course>
  <speed>0.0</speed>
  <fix>3d</fix>
</trkpt>
<trkpt lat="40.0713751" lon="-105.2297889">
  <ele>1582.96</ele>
  <time>2026-08-28T17:50:46Z</time>
  <course>247.03</course>
  <speed>0.022360679774997897</speed>
  <fix>3d</fix>
</trkpt>
<trkpt lat="40.0713749" lon="-105.229789">
  <ele>1583.0</ele>
  <time>2026-08-28T17:50:46Z</time>
  <course>0.0</course>
  <speed>0.0</speed>
  <fix>3d</fix>
</trkpt>
<trkpt lat="40.0713751" lon="-105.2297889">
  <ele>1582.96</ele>
  <time>2026-08-28T17:50:46Z</time>
  <course>247.03</course>
  <speed>0.022360679774997897</speed>
  <fix>3d</fix>
</trkpt>
<trkpt lat="40.0713749" lon="-105.229789">
  <ele>1583.0</ele>
  <time>2026-08-28T17:50:46Z</time>
  <course>0.0</course>
  <speed>0.0</speed>
  <fix>3d</fix>
</trkpt>
<trkpt lat="40.0713751" lon="-105.2297889">
  <ele>1582.96</ele>
  <time>2026-08-28T17:50:46Z</time>
  <course>247.03</course>
  <speed>0.022360679774997897</speed>
  <fix>3d</fix>
</trkpt>
<trkpt lat="40.0713749" lon="-105.229789">
  <ele>1583.0</ele>
  <time>2026-08-28T17:50:46Z</time>
  <course>0.0</course>
  <speed>0.0</speed>
  <fix>3d</fix>
</trkpt>
<trkpt lat="40.0713751" lon="-105.2297889">
  <ele>1582.96</ele>
  <time>2026-08-28T17:50:46Z</time>
  <course>247.03</course>
  <speed>0.022360679774997897</speed>
  <fix>3d</fix>
</trkpt>
<trkpt lat="40.0713749" lon="-105.229789">
  <ele>1583.0</ele>
  <time>2026-08-28T17:50:46Z</time>
  <course>0.0</course>
  <speed>0.0</speed>
  <fix>3d</fix>
</trkpt>
<trkpt lat="40.0713751" lon="-105.2297889">
  <ele>1582.96</ele>
  <time>2026-08-28T17:50:46Z</time>
  <course>247.03</course>
  <speed>0.022360679774997897</speed>
  <fix>3d</fix>
</trkpt>
<trkpt lat="40.0713749" lon="-105.229789">
  <ele>1583.0</ele>
  <time>2026-08-28T17:50:46Z</time>
  <course>0.0</course>
  <speed>0.0</speed>
  <fix>3d</fix>
</trkpt>
<trkpt lat="40.0713751" lon="-105.2297889">
  <ele>1582.96</ele>
  <time>2026-08-28T17:50:46Z</time>
  <course>247.03</course>
  <speed>0.022360679774997897</speed>
  <fix>3d</fix>
</trkpt>
<trkpt lat="40.0713749" lon="-105.229789">
  <ele>1583.0</ele>
  <time>2026-08-28T17:50:46Z</time>
  <course>0.0</course>
  <speed>0.0</speed>
  <fix>3d</fix>
</trkpt>
<trkpt lat="40.0713751" lon="-105.2297889">
  <ele>1582.96</ele>
  <time>2026-08-28T17:50:46Z</time>
  <course>247.03</course>
  <speed>0.022360679774997897</speed>
  <fix>3d</fix>
</trkpt>
<trkpt lat="40.0713749" lon="-105.229789">
  <ele>1583.0</ele>
  <time>2026-08-28T17:50:46Z</time>
  <course>0.0</course>
  <speed>0.0</speed>
  <fix>3d</fix>
</trkpt>
<trkpt lat="40.0713751" lon="-105.2297889">
  <ele>1582.95</ele>
  <time>2026-08-28T17:50:46Z</time>
  <course>247.03</course>
  <speed>0.022360679774997897</speed>
  <fix>3d</fix>
</trkpt>
<trkpt lat="40.0713749" lon="-105.229789">
  <ele>1583.0</ele>
  <time>2026-08-28T17:50:46Z</time>
  <course>0.0</course>
  <speed>0.0</speed>
  <fix>3d</fix>
</trkpt>
<trkpt lat="40.0713751" lon="-105.2297889">
  <ele>1582.95</ele>
  <time>2026-08-28T17:50:46Z</time>
  <course>247.03</course>
  <speed>0.022360679774997897</speed>
  <fix>3d</fix>
</trkpt>
<trkpt lat="40.0713749" lon="-105.229789">
  <ele>1583.0</ele>
  <time>2026-08-28T17:50:46Z</time>
  <course>0.0</course>
  <speed>0.0</speed>
  <fix>3d</fix>
</trkpt>
<trkpt lat="40.0713751" lon="-105.2297889">
  <ele>1582.94</ele>
  <time>2026-08-28T17:50:46Z</time>
  <course>247.03</course>
  <speed>0.022360679774997897</speed>
  <fix>3d</fix>
</trkpt>
<trkpt lat="40.0713749" lon="-105.229789">
  <ele>1583.0</ele>
  <time>2026-08-28T17:50:46Z</time>
  <course>0.0</course>
  <speed>0.0</speed>
  <fix>3d</fix>
</trkpt>
<trkpt lat="40.0713751" lon="-105.2297889">
  <ele>1582.93</ele>
  <time>2026-08-28T17:50:46Z</time>
  <course>247.03</course>
  <speed>0.022360679774997897</speed>
  <fix>3d</fix>
</trkpt>
<trkpt lat="40.0713749" lon="-105.229789">
  <ele>1583.0</ele>
  <time>2026-08-28T17:50:46Z</time>
  <course>0.0</course>
  <speed>0.0</speed>
  <fix>3d</fix>
</trkpt>
<trkpt lat="40.0713751" lon="-105.2297889">
  <ele>1582.93</ele>
  <time>2026-08-28T17:50:46Z</time>
  <course>247.03</course>
  <speed>0.022360679774997897</speed>
  <fix>3d</fix>
</trkpt>
<trkpt lat="40.0713749" lon="-105.229789">
  <ele>1583.0</ele>
  <time>2026-08-28T17:50:46Z</time>
  <course>0.0</course>
  <speed>0.0</speed>
  <fix>3d</fix>
</trkpt>
<trkpt lat="40.0713751" lon="-105.2297889">
  <ele>1582.92</ele>
  <time>2026-08-28T17:50:46Z</time>
  <course>247.03</course>
  <speed>0.022360679774997897</speed>
  <fix>3d</fix>
</trkpt>
<trkpt lat="40.0713749" lon="-105.229789">
  <ele>1583.0</ele>
  <time>2026-08-28T17:50:46Z</time>
  <course>0.0</course>
  <speed>0.0</speed>
  <fix>3d</fix>
</trkpt>
<trkpt lat="40.0713751" lon="-105.2297889">
  <ele>1582.92</ele>
  <time>2026-08-28T17:50:46Z</time>
  <course>247.03</course>
  <speed>0.022360679774997897</speed>
  <fix>3d</fix>
</trkpt>
<trkpt lat="40.0713749" lon="-105.229789">
  <ele>1583.0</ele>
  <time>2026-08-28T17:50:46Z</time>
  <course>0.0</course>
  <speed>0.0</speed>
  <fix>3d</fix>
</trkpt>
<trkpt lat="40.0713751" lon="-105.2297889">
  <ele>1582.91</ele>
  <time>2026-08-28T17:50:46Z</time>
  <course>247.03</course>
  <speed>0.022360679774997897</speed>
  <fix>3d</fix>
</trkpt>
<trkpt lat="40.0713749" lon="-105.229789">
  <ele>1583.0</ele>
  <time>2026-08-28T17:50:46Z</time>
  <course>0.0</course>
  <speed>0.0</speed>
  <fix>3d</fix>
</trkpt>
<trkpt lat="40.0713751" lon="-105.2297889">
  <ele>1582.91</ele>
  <time>2026-08-28T17:50:46Z</time>
  <course>247.03</course>
  <speed>0.022360679774997897</speed>
  <fix>3d</fix>
</trkpt>
<trkpt lat="40.0713749" lon="-105.229789">
  <ele>1583.0</ele>
  <time>2026-08-28T17:50:46Z</time>
  <course>0.0</course>
  <speed>0.0</speed>
  <fix>3d</fix>
</trkpt>
<trkpt lat="40.0713751" lon="-105.2297889">
  <ele>1582.91</ele>
  <time>2026-08-28T17:50:46Z</time>
  <course>247.03</course>
  <speed>0.022360679774997897</speed>
  <fix>3d</fix>
</trkpt>
<trkpt lat="40.0713749" lon="-105.229789">
  <ele>1583.0</ele>
  <time>2026-08-28T17:50:46Z</time>
  <course>0.0</course>
  <speed>0.0</speed>
  <fix>3d</fix>
</trkpt>
<trkpt lat="40.0713751" lon="-105.2297889">
  <ele>1582.91</ele>
  <time>2026-08-28T17:50:46Z</time>
  <course>247.03</course>
  <speed>0.022360679774997897</speed>
  <fix>3d</fix>
</trkpt>
<trkpt lat="40.0713749" lon="-105.229789">
  <ele>1583.0</ele>
  <time>2026-08-28T17:50:46Z</time>
  <course>0.0</course>
  <speed>0.0</speed>
  <fix>3d</fix>
</trkpt>
<trkpt lat="40.0713751" lon="-105.2297889">
  <ele>1582.91</ele>
  <time>2026-08-28T17:50:46Z</time>
  <course>247.03</course>
  <speed>0.022360679774997897</speed>
  <fix>3d</fix>
</trkpt>
<trkpt lat="40.0713749" lon="-105.229789">
  <ele>1583.0</ele>
  <time>2026-08-28T17:50:46Z</time>
  <course>0.0</course>
  <speed>0.0</speed>
  <fix>3d</fix>
</trkpt>
<trkpt lat="40.0713751" lon="-105.2297889">
  <ele>1582.91</ele>
  <time>2026-08-28T17:50:46Z</time>
  <course>247.03</course>
  <speed>0.022360679774997897</speed>
  <fix>3d</fix>
</trkpt>
<trkpt lat="40.0713749" lon="-105.229789">
  <ele>1583.0</ele>
  <time>2026-08-28T17:50:46Z</time>
  <course>0.0</course>
  <speed>0.0</speed>
  <fix>3d</fix>
</trkpt>
<trkpt lat="40.0713751" lon="-105.2297889">
  <ele>1582.91</ele>
  <time>2026-08-28T17:50:46Z</time>
  <course>247.03</course>
  <speed>0.022360679774997897</speed>
  <fix>3d</fix>
</trkpt>
<trkpt lat="40.0713749" lon="-105.229789">
  <ele>1583.0</ele>
  <time>2026-08-28T17:50:46Z</time>
  <course>0.0</course>
  <speed>0.0</speed>
  <fix>3d</fix>
</trkpt>
<trkpt lat="40.0713751" lon="-105.2297889">
  <ele>1582.92</ele>
  <time>2026-08-28T17:50:46Z</time>
  <course>247.03</course>
  <speed>0.022360679774997897</speed>
  <fix>3d</fix>
</trkpt>
<trkpt lat="40.0713749" lon="-105.229789">
  <ele>1583.0</ele>
  <time>2026-08-28T17:50:46Z</time>
  <course>0.0</course>
  <speed>0.0</speed>
  <fix>3d</fix>
</trkpt>
<trkpt lat="40.0713751" lon="-105.2297889">
  <ele>1582.92</ele>
  <time>2026-08-28T17:50:46Z</time>
  <course>247.03</course>
  <speed>0.022360679774997897</speed>
  <fix>3d</fix>
</trkpt>
<trkpt lat="40.0713749" lon="-105.229789">
  <ele>1583.0</ele>
  <time>2026-08-28T17:50:46Z</time>
  <course>0.0</course>
  <speed>0.0</speed>
  <fix>3d</fix>
</trkpt>
<trkpt lat="40.0713751" lon="-105.2297889">
  <ele>1582.92</ele>
  <time>2026-08-28T17:50:46Z</time>
  <course>247.03</course>
  <speed>0.022360679774997897</speed>
  <fix>3d</fix>
</trkpt>
<trkpt lat="40.0713749" lon="-105.229789">
  <ele>1583.0</ele>
  <time>2026-08-28T17:50:46Z</time>
  <course>0.0</course>
  <speed>0.0</speed>
  <fix>3d</fix>
</trkpt>
<trkpt lat="40.0713751" lon="-105.2297889">
  <ele>1582.92</ele>
  <time>2026-08-28T17:50:46Z</time>
  <course>247.03</course>
  <speed>0.022360679774997897</speed>
  <fix>3d</fix>
</trkpt>
<trkpt lat="40.0713749" lon="-105.229789">
  <ele>1583.0</ele>
  <time>2026-08-28T17:50:46Z</time>
  <course>0.0</course>
  <speed>0.0</speed>
  <fix>3d</fix>
</trkpt>
<trkpt lat="40.0713751" lon="-105.2297889">
  <ele>1582.93</ele>
  <time>2026-08-28T17:50:46Z</time>
  <course>247.03</course>
  <speed>0.022360679774997897</speed>
  <fix>3d</fix>
</trkpt>
<trkpt lat="40.0713749" lon="-105.229789">
  <ele>1583.0</ele>
  <time>2026-08-28T17:50:46Z</time>
  <course>0.0</course>
  <speed>0.0</speed>
  <fix>3d</fix>
</trkpt>
<trkpt lat="40.0713751" lon="-105.2297889">
  <ele>1582.93</ele>
  <time>2026-08-28T17:50:46Z</time>
  <course>247.03</course>
  <speed>0.022360679774997897</speed>
  <fix>3d</fix>
</trkpt>
<trkpt lat="40.0713749" lon="-105.229789">
  <ele>1583.0</ele>
  <time>2026-08-28T17:50:46Z</time>
  <course>0.0</course>
  <speed>0.0</speed>
  <fix>3d</fix>
</trkpt>
<trkpt lat="40.0713751" lon="-105.2297889">
  <ele>1582.94</ele>
  <time>2026-08-28T17:50:46Z</time>
  <course>247.03</course>
  <speed>0.022360679774997897</speed>
  <fix>3d</fix>
</trkpt>
<trkpt lat="40.0713749" lon="-105.229789">
  <ele>1583.0</ele>
  <time>2026-08-28T17:50:46Z</time>
  <course>0.0</course>
  <speed>0.0</speed>
  <fix>3d</fix>
</trkpt>
<trkpt lat="40.0713751" lon="-105.2297889">
  <ele>1582.95</ele>
  <time>2026-08-28T17:50:46Z</time>
  <course>247.03</course>
  <speed>0.022360679774997897</speed>
  <fix>3d</fix>
</trkpt>
<trkpt lat="40.0713749" lon="-105.229789">
  <ele>1583.0</ele>
  <time>2026-08-28T17:50:46Z</time>
  <course>0.0</course>
  <speed>0.0</speed>
  <fix>3d</fix>
</trkpt>
<trkpt lat="40.0713751" lon="-105.2297889">
  <ele>1582.95</ele>
  <time>2026-08-28T17:50:46Z</time>
  <course>247.03</course>
  <speed>0.022360679774997897</speed>
  <fix>3d</fix>
</trkpt>
<trkpt lat="40.0713749" lon="-105.229789">
  <ele>1583.0</ele>
  <time>2026-08-28T17:50:46Z</time>
  <course>0.0</course>
  <speed>0.0</speed>
  <fix>3d</fix>
</trkpt>
<trkpt lat="40.0713751" lon="-105.2297889">
  <ele>1582.96</ele>
  <time>2026-08-28T17:50:46Z</time>
  <course>247.03</course>
  <speed>0.022360679774997897</speed>
  <fix>3d</fix>
</trkpt>
<trkpt lat="40.0713749" lon="-105.229789">
  <ele>1583.0</ele>
  <time>2026-08-28T17:50:46Z</time>
  <course>0.0</course>
  <speed>0.0</speed>
  <fix>3d</fix>
</trkpt>
<trkpt lat="40.0713751" lon="-105.2297889">
  <ele>1582.97</ele>
  <time>2026-08-28T17:50:46Z</time>
  <course>247.03</course>
  <speed>0.022360679774997897</speed>
  <fix>3d</fix>
</trkpt>
<trkpt lat="40.0713749" lon="-105.229789">
  <ele>1583.0</ele>
  <time>2026-08-28T17:50:46Z</time>
  <course>0.0</course>
  <speed>0.0</speed>
  <fix>3d</fix>
</trkpt>
<trkpt lat="40.0713751" lon="-105.2297889">
  <ele>1582.97</ele>
  <time>2026-08-28T17:50:46Z</time>
  <course>247.03</course>
  <speed>0.022360679774997897</speed>
  <fix>3d</fix>
</trkpt>
<trkpt lat="40.0713749" lon="-105.229789">
  <ele>1583.0</ele>
  <time>2026-08-28T17:50:46Z</time>
  <course>0.0</course>
  <speed>0.0</speed>
  <fix>3d</fix>
</trkpt>
<trkpt lat="40.0713751" lon="-105.2297889">
  <ele>1582.98</ele>
  <time>2026-08-28T17:50:46Z</time>
  <course>247.03</course>
  <speed>0.022360679774997897</speed>
  <fix>3d</fix>
</trkpt>
<trkpt lat="40.0713749" lon="-105.229789">
  <ele>1583.0</ele>
  <time>2026-08-28T17:50:46Z</time>
  <course>0.0</course>
  <speed>0.0</speed>
  <fix>3d</fix>
</trkpt>
<trkpt lat="40.0713751" lon="-105.2297889">
  <ele>1582.99</ele>
  <time>2026-08-28T17:50:46Z</time>
  <course>247.03</course>
  <speed>0.022360679774997897</speed>
  <fix>3d</fix>
</trkpt>
<trkpt lat="40.0713749" lon="-105.229789">
  <ele>1583.0</ele>
  <time>2026-08-28T17:50:46Z</time>
  <course>0.0</course>
  <speed>0.0</speed>
  <fix>3d</fix>
</trkpt>
<trkpt lat="40.0713751" lon="-105.2297889">
  <ele>1582.99</ele>
  <time>2026-08-28T17:50:46Z</time>
  <course>247.03</course>
  <speed>0.022360679774997897</speed>
  <fix>3d</fix>
</trkpt>
<trkpt lat="40.0713749" lon="-105.229789">
  <ele>1583.0</ele>
  <time>2026-08-28T17:50:46Z</time>
  <course>0.0</course>
  <speed>0.0</speed>
  <fix>3d</fix>
</trkpt>
<trkpt lat="40.0713751" lon="-105.2297889">
  <ele>1582.99</ele>
  <time>2026-08-28T17:50:46Z</time>
  <course>247.03</course>
  <speed>0.022360679774997897</speed>
  <fix>3d</fix>
</trkpt>
<trkpt lat="40.0713749" lon="-105.229789">
  <ele>1583.0</ele>
  <time>2026-08-28T17:50:46Z</time>
  <course>0.0</course>
  <speed>0.0</speed>
  <fix>3d</fix>
</trkpt>
<trkpt lat="40.0713751" lon="-105.2297889">
  <ele>1582.99</ele>
  <time>2026-08-28T17:50:46Z</time>
  <course>247.03</course>
  <speed>0.022360679774997897</speed>
  <fix>3d</fix>
</trkpt>
<trkpt lat="40.0713749" lon="-105.229789">
  <ele>1583.0</ele>
  <time>2026-08-28T17:50:46Z</time>
  <course>0.0</course>
  <speed>0.0</speed>
  <fix>3d</fix>
</trkpt>
<trkpt lat="40.0713751" lon="-105.2297889">
  <ele>1582.99</ele>
  <time>2026-08-28T17:50:46Z</time>
  <course>247.03</course>
  <speed>0.022360679774997897</speed>
  <fix>3d</fix>
</trkpt>
<trkpt lat="40.0713749" lon="-105.229789">
  <ele>1583.0</ele>
  <time>2026-08-28T17:50:46Z</time>
  <course>0.0</course>
  <speed>0.0</speed>
  <fix>3d</fix>
</trkpt>
<trkpt lat="40.0713751" lon="-105.2297889">
  <ele>1582.99</ele>
  <time>2026-08-28T17:50:46Z</time>
  <course>247.03</course>
  <speed>0.022360679774997897</speed>
  <fix>3d</fix>
</trkpt>
<trkpt lat="40.0713749" lon="-105.229789">
  <ele>1583.0</ele>
  <time>2026-08-28T17:50:46Z</time>
  <course>0.0</course>
  <speed>0.0</speed>
  <fix>3d</fix>
</trkpt>
<trkpt lat="40.0713751" lon="-105.2297889">
  <ele>1582.99</ele>
  <time>2026-08-28T17:50:46Z</time>
  <course>247.03</course>
  <speed>0.022360679774997897</speed>
  <fix>3d</fix>
</trkpt>
<trkpt lat="40.0713749" lon="-105.229789">
  <ele>1583.0</ele>
  <time>2026-08-28T17:50:46Z</time>
  <course>0.0</course>
  <speed>0.0</speed>
  <fix>3d</fix>
</trkpt>
<trkpt lat="40.0713751" lon="-105.2297889">
  <ele>1582.99</ele>
  <time>2026-08-28T17:50:46Z</time>
  <course>247.03</course>
  <speed>0.022360679774997897</speed>
  <fix>3d</fix>
</trkpt>
<trkpt lat="40.0713749" lon="-105.229789">
  <ele>1583.0</ele>
  <time>2026-08-28T17:50:46Z</time>
  <course>0.0</course>
  <speed>0.0</speed>
  <fix>3d</fix>
</trkpt>
<trkpt lat="40.0713751" lon="-105.2297889">
  <ele>1582.99</ele>
  <time>2026-08-28T17:50:46Z</time>
  <course>247.03</course>
  <speed>0.022360679774997897</speed>
  <fix>3d</fix>
</trkpt>
<trkpt lat="40.0713749" lon="-105.229789">
  <ele>1583.0</ele>
  <time>2026-08-28T17:50:46Z</time>
  <course>0.0</course>
  <speed>0.0</speed>
  <fix>3d</fix>
</trkpt>
<trkpt lat="40.0713751" lon="-105.2297889">
  <ele>1582.99</ele>
  <time>2026-08-28T17:50:46Z</time>
  <course>247.03</course>
  <speed>0.022360679774997897</speed>
  <fix>3d</fix>
</trkpt>
<trkpt lat="40.0713749" lon="-105.229789">
  <ele>1583.0</ele>
  <time>2026-08-28T17:50:46Z</time>
  <course>0.0</course>
  <speed>0.0</speed>
  <fix>3d</fix>
</trkpt>
<trkpt lat="40.0713751" lon="-105.2297889">
  <ele>1582.99</ele>
  <time>2026-08-28T17:50:46Z</time>
  <course>247.03</course>
  <speed>0.022360679774997897</speed>
  <fix>3d</fix>
</trkpt>
<trkpt lat="40.0713749" lon="-105.229789">
  <ele>1583.0</ele>
  <time>2026-08-28T17:50:46Z</time>
  <course>0.0</course>
  <speed>0.0</speed>
  <fix>3d</fix>
</trkpt>
<trkpt lat="40.0713751" lon="-105.2297889">
  <ele>1582.99</ele>
  <time>2026-08-28T17:50:46Z</time>
  <course>247.03</course>
  <speed>0.022360679774997897</speed>
  <fix>3d</fix>
</trkpt>
<trkpt lat="40.0713749" lon="-105.229789">
  <ele>1583.0</ele>
  <time>2026-08-28T17:50:46Z</time>
  <course>0.0</course>
  <speed>0.0</speed>
  <fix>3d</fix>
</trkpt>
<trkpt lat="40.0713751" lon="-105.2297889">
  <ele>1582.99</ele>
  <time>2026-08-28T17:50:46Z</time>
  <course>247.03</course>
  <speed>0.022360679774997897</speed>
  <fix>3d</fix>
</trkpt>
<trkpt lat="40.0713749" lon="-105.229789">
  <ele>1583.0</ele>
  <time>2026-08-28T17:50:46Z</time>
  <course>0.0</course>
  <speed>0.0</speed>
  <fix>3d</fix>
</trkpt>
<trkpt lat="40.0713751" lon="-105.2297889">
  <ele>1582.99</ele>
  <time>2026-08-28T17:50:46Z</time>
  <course>247.03</course>
  <speed>0.022360679774997897</speed>
  <fix>3d</fix>
</trkpt>
<trkpt lat="40.0713749" lon="-105.229789">
  <ele>1583.0</ele>
  <time>2026-08-28T17:50:46Z</time>
  <course>0.0</course>
  <speed>0.0</speed>
  <fix>3d</fix>
</trkpt>
<trkpt lat="40.0713751" lon="-105.2297889">
  <ele>1582.99</ele>
  <time>2026-08-28T17:50:46Z</time>
  <course>247.03</course>
  <speed>0.022360679774997897</speed>
  <fix>3d</fix>
</trkpt>
<trkpt lat="40.0713749" lon="-105.229789">
  <ele>1583.0</ele>
  <time>2026-08-28T17:50:46Z</time>
  <course>0.0</course>
  <speed>0.0</speed>
  <fix>3d</fix>
</trkpt>
<trkpt lat="40.0713751" lon="-105.2297889">
  <ele>1582.99</ele>
  <time>2026-08-28T17:50:46Z</time>
  <course>247.03</course>
  <speed>0.022360679774997897</speed>
  <fix>3d</fix>
</trkpt>
<trkpt lat="40.0713749" lon="-105.229789">
  <ele>1583.0</ele>
  <time>2026-08-28T17:50:46Z</time>
  <course>0.0</course>
  <speed>0.0</speed>
  <fix>3d</fix>
</trkpt>
<trkpt lat="40.071375" lon="-105.2297889">
  <ele>1583.0</ele>
  <time>2026-08-28T17:50:46Z</time>
  <course>247.03</course>
  <speed>0.022360679774997897</speed>
  <fix>3d</fix>
</trkpt>
<trkpt lat="40.0713749" lon="-105.229789">
  <ele>1583.0</ele>
  <time>2026-08-28T17:50:46Z</time>
  <course>0.0</course>
  <speed>0.0</speed>
  <fix>3d</fix>
</trkpt>
<trkpt lat="40.0713751" lon="-105.2297889">
  <ele>1583.0</ele>
  <time>2026-08-28T17:50:46Z</time>
  <course>247.03</course>
  <speed>0.022360679774997897</speed>
  <fix>3d</fix>
</trkpt>
<trkpt lat="40.0713749" lon="-105.229789">
  <ele>1583.0</ele>
  <time>2026-08-28T17:50:46Z</time>
  <course>0.0</course>
  <speed>0.0</speed>
  <fix>3d</fix>
</trkpt>
<trkpt lat="40.0713751" lon="-105.2297889">
  <ele>1583.0</ele>
  <time>2026-08-28T17:50:46Z</time>
  <course>247.03</course>
  <speed>0.022360679774997897</speed>
  <fix>3d</fix>
</trkpt>
<trkpt lat="40.0713749" lon="-105.229789">
  <ele>1583.0</ele>
  <time>2026-08-28T17:50:46Z</time>
  <course>0.0</course>
  <speed>0.0</speed>
  <fix>3d</fix>
</trkpt>
<trkpt lat="40.0713751" lon="-105.2297889">
  <ele>1583.0</ele>
  <time>2026-08-28T17:50:46Z</time>
  <course>247.03</course>
  <speed>0.022360679774997897</speed>
  <fix>3d</fix>
</trkpt>
<trkpt lat="40.0713749" lon="-105.229789">
  <ele>1583.0</ele>
  <time>2026-08-28T17:50:46Z</time>
  <course>0.0</course>
  <speed>0.0</speed>
  <fix>3d</fix>
</trkpt>
<trkpt lat="40.0713751" lon="-105.2297889">
  <ele>1583.0</ele>
  <time>2026-08-28T17:50:46Z</time>
  <course>247.03</course>
  <speed>0.022360679774997897</speed>
  <fix>3d</fix>
</trkpt>
<trkpt lat="40.0713749" lon="-105.229789">
  <ele>1583.0</ele>
  <time>2026-08-28T17:50:46Z</time>
  <course>0.0</course>
  <speed>0.0</speed>
  <fix>3d</fix>
</trkpt>
<trkpt lat="40.0713751" lon="-105.2297889">
  <ele>1583.0</ele>
  <time>2026-08-28T17:50:46Z</time>
  <course>247.03</course>
  <speed>0.022360679774997897</speed>
  <fix>3d</fix>
</trkpt>
<trkpt lat="40.0713749" lon="-105.229789">
  <ele>1583.0</ele>
  <time>2026-08-28T17:50:46Z</time>
  <course>0.0</course>
  <speed>0.0</speed>
  <fix>3d</fix>
</trkpt>
<trkpt lat="40.0713751" lon="-105.2297889">
  <ele>1583.0</ele>
  <time>2026-08-28T17:50:46Z</time>
  <course>247.03</course>
  <speed>0.022360679774997897</speed>
  <fix>3d</fix>
</trkpt>
<trkpt lat="40.0713749" lon="-105.229789">
  <ele>1583.0</ele>
  <time>2026-08-28T17:50:46Z</time>
  <course>0.0</course>
  <speed>0.0</speed>
  <fix>3d</fix>
</trkpt>
<trkpt lat="40.0713751" lon="-105.2297889">
  <ele>1583.0</ele>
  <time>2026-08-28T17:50:46Z</time>
  <course>247.03</course>
  <speed>0.022360679774997897</speed>
  <fix>3d</fix>
</trkpt>
<trkpt lat="40.0713749" lon="-105.229789">
  <ele>1583.0</ele>
  <time>2026-08-28T17:50:46Z</time>
  <course>0.0</course>
  <speed>0.0</speed>
  <fix>3d</fix>
</trkpt>
<trkpt lat="40.0713751" lon="-105.2297889">
  <ele>1583.01</ele>
  <time>2026-08-28T17:50:46Z</time>
  <course>247.03</course>
  <speed>0.022360679774997897</speed>
  <fix>3d</fix>
</trkpt>
<trkpt lat="40.0713749" lon="-105.229789">
  <ele>1583.0</ele>
  <time>2026-08-28T17:50:46Z</time>
  <course>0.0</course>
  <speed>0.0</speed>
  <fix>3d</fix>
</trkpt>
<trkpt lat="40.0713751" lon="-105.2297889">
  <ele>1583.01</ele>
  <time>2026-08-28T17:50:46Z</time>
  <course>247.03</course>
  <speed>0.022360679774997897</speed>
  <fix>3d</fix>
</trkpt>
<trkpt lat="40.0713749" lon="-105.229789">
  <ele>1583.0</ele>
  <time>2026-08-28T17:50:46Z</time>
  <course>0.0</course>
  <speed>0.0</speed>
  <fix>3d</fix>
</trkpt>
<trkpt lat="40.0713751" lon="-105.2297889">
  <ele>1583.02</ele>
  <time>2026-08-28T17:50:46Z</time>
  <course>247.03</course>
  <speed>0.022360679774997897</speed>
  <fix>3d</fix>
</trkpt>
<trkpt lat="40.0713749" lon="-105.229789">
  <ele>1583.0</ele>
  <time>2026-08-28T17:50:46Z</time>
  <course>0.0</course>
  <speed>0.0</speed>
  <fix>3d</fix>
</trkpt>
<trkpt lat="40.0713751" lon="-105.2297889">
  <ele>1583.03</ele>
  <time>2026-08-28T17:50:46Z</time>
  <course>247.03</course>
  <speed>0.022360679774997897</speed>
  <fix>3d</fix>
</trkpt>
<trkpt lat="40.0713749" lon="-105.229789">
  <ele>1583.0</ele>
  <time>2026-08-28T17:50:46Z</time>
  <course>0.0</course>
  <speed>0.0</speed>
  <fix>3d</fix>
</trkpt>
<trkpt lat="40.071375" lon="-105.2297889">
  <ele>1583.03</ele>
  <time>2026-08-28T17:50:46Z</time>
  <course>247.03</course>
  <speed>0.022360679774997897</speed>
  <fix>3d</fix>
</trkpt>
<trkpt lat="40.0713749" lon="-105.229789">
  <ele>1583.0</ele>
  <time>2026-08-28T17:50:46Z</time>
  <course>0.0</course>
  <speed>0.0</speed>
  <fix>3d</fix>
</trkpt>
<trkpt lat="40.0713751" lon="-105.2297889">
  <ele>1583.04</ele>
  <time>2026-08-28T17:50:46Z</time>
  <course>247.03</course>
  <speed>0.022360679774997897</speed>
  <fix>3d</fix>
</trkpt>
<trkpt lat="40.0713749" lon="-105.229789">
  <ele>1583.0</ele>
  <time>2026-08-28T17:50:46Z</time>
  <course>0.0</course>
  <speed>0.0</speed>
  <fix>3d</fix>
</trkpt>
<trkpt lat="40.071375" lon="-105.2297889">
  <ele>1583.05</ele>
  <time>2026-08-28T17:50:46Z</time>
  <course>247.03</course>
  <speed>0.022360679774997897</speed>
  <fix>3d</fix>
</trkpt>
<trkpt lat="40.0713749" lon="-105.229789">
  <ele>1583.0</ele>
  <time>2026-08-28T17:50:46Z</time>
  <course>0.0</course>
  <speed>0.0</speed>
  <fix>3d</fix>
</trkpt>
<trkpt lat="40.0713751" lon="-105.2297889">
  <ele>1583.05</ele>
  <time>2026-08-28T17:50:46Z</time>
  <course>247.03</course>
  <speed>0.022360679774997897</speed>
  <fix>3d</fix>
</trkpt>
<trkpt lat="40.0713749" lon="-105.229789">
  <ele>1583.0</ele>
  <time>2026-08-28T17:50:46Z</time>
  <course>0.0</course>
  <speed>0.0</speed>
  <fix>3d</fix>
</trkpt>
<trkpt lat="40.071375" lon="-105.2297889">
  <ele>1583.05</ele>
  <time>2026-08-28T17:50:46Z</time>
  <course>247.03</course>
  <speed>0.022360679774997897</speed>
  <fix>3d</fix>
</trkpt>
<trkpt lat="40.0713749" lon="-105.229789">
  <ele>1583.0</ele>
  <time>2026-08-28T17:50:46Z</time>
  <course>0.0</course>
  <speed>0.0</speed>
  <fix>3d</fix>
</trkpt>
<trkpt lat="40.0713751" lon="-105.2297889">
  <ele>1583.05</ele>
  <time>2026-08-28T17:50:46Z</time>
  <course>247.03</course>
  <speed>0.022360679774997897</speed>
  <fix>3d</fix>
</trkpt>
<trkpt lat="40.0713749" lon="-105.229789">
  <ele>1583.0</ele>
  <time>2026-08-28T17:50:46Z</time>
  <course>0.0</course>
  <speed>0.0</speed>
  <fix>3d</fix>
</trkpt>
<trkpt lat="40.071375" lon="-105.2297889">
  <ele>1583.04</ele>
  <time>2026-08-28T17:50:46Z</time>
  <course>247.03</course>
  <speed>0.022360679774997897</speed>
  <fix>3d</fix>
</trkpt>
<trkpt lat="40.0713749" lon="-105.229789">
  <ele>1583.0</ele>
  <time>2026-08-28T17:50:46Z</time>
  <course>0.0</course>
  <speed>0.0</speed>
  <fix>3d</fix>
</trkpt>
<trkpt lat="40.0713751" lon="-105.2297889">
  <ele>1583.04</ele>
  <time>2026-08-28T17:50:46Z</time>
  <course>247.03</course>
  <speed>0.022360679774997897</speed>
  <fix>3d</fix>
</trkpt>
<trkpt lat="40.0713749" lon="-105.229789">
  <ele>1583.0</ele>
  <time>2026-08-28T17:50:46Z</time>
  <course>0.0</course>
  <speed>0.0</speed>
  <fix>3d</fix>
</trkpt>
<trkpt lat="40.071375" lon="-105.2297889">
  <ele>1583.04</ele>
  <time>2026-08-28T17:50:46Z</time>
  <course>247.02</course>
  <speed>0.022360679774997897</speed>
  <fix>3d</fix>
</trkpt>
<trkpt lat="40.0713749" lon="-105.229789">
  <ele>1583.0</ele>
  <time>2026-08-28T17:50:46Z</time>
  <course>0.0</course>
  <speed>0.0</speed>
  <fix>3d</fix>
</trkpt>
<trkpt lat="40.0713751" lon="-105.2297889">
  <ele>1583.04</ele>
  <time>2026-08-28T17:50:46Z</time>
  <course>247.02</course>
  <speed>0.022360679774997897</speed>
  <fix>3d</fix>
</trkpt>
<trkpt lat="40.0713749" lon="-105.229789">
  <ele>1583.0</ele>
  <time>2026-08-28T17:50:46Z</time>
  <course>0.0</course>
  <speed>0.0</speed>
  <fix>3d</fix>
</trkpt>
<trkpt lat="40.071375" lon="-105.2297889">
  <ele>1583.04</ele>
  <time>2026-08-28T17:50:46Z</time>
  <course>247.02</course>
  <speed>0.022360679774997897</speed>
  <fix>3d</fix>
</trkpt>
<trkpt lat="40.0713749" lon="-105.229789">
  <ele>1583.0</ele>
  <time>2026-08-28T17:50:46Z</time>
  <course>0.0</course>
  <speed>0.0</speed>
  <fix>3d</fix>
</trkpt>
<trkpt lat="40.0713751" lon="-105.2297889">
  <ele>1583.04</ele>
  <time>2026-08-28T17:50:46Z</time>
  <course>247.02</course>
  <speed>0.022360679774997897</speed>
  <fix>3d</fix>
</trkpt>
<trkpt lat="40.0713749" lon="-105.229789">
  <ele>1583.0</ele>
  <time>2026-08-28T17:50:46Z</time>
  <course>0.0</course>
  <speed>0.0</speed>
  <fix>3d</fix>
</trkpt>
<trkpt lat="40.0713751" lon="-105.2297889">
  <ele>1583.04</ele>
  <time>2026-08-28T17:50:46Z</time>
  <course>247.02</course>
  <speed>0.022360679774997897</speed>
  <fix>3d</fix>
</trkpt>
<trkpt lat="40.0713749" lon="-105.229789">
  <ele>1583.0</ele>
  <time>2026-08-28T17:50:46Z</time>
  <course>0.0</course>
  <speed>0.0</speed>
  <fix>3d</fix>
</trkpt>
<trkpt lat="40.0713751" lon="-105.2297889">
  <ele>1583.04</ele>
  <time>2026-08-28T17:50:46Z</time>
  <course>247.02</course>
  <speed>0.022360679774997897</speed>
  <fix>3d</fix>
</trkpt>
<trkpt lat="40.0713749" lon="-105.229789">
  <ele>1583.0</ele>
  <time>2026-08-28T17:50:46Z</time>
  <course>0.0</course>
  <speed>0.0</speed>
  <fix>3d</fix>
</trkpt>
<trkpt lat="40.0713751" lon="-105.2297889">
  <ele>1583.03</ele>
  <time>2026-08-28T17:50:46Z</time>
  <course>247.02</course>
  <speed>0.022360679774997897</speed>
  <fix>3d</fix>
</trkpt>
<trkpt lat="40.0713749" lon="-105.229789">
  <ele>1583.0</ele>
  <time>2026-08-28T17:50:46Z</time>
  <course>0.0</course>
  <speed>0.0</speed>
  <fix>3d</fix>
</trkpt>
<trkpt lat="40.0713751" lon="-105.2297889">
  <ele>1583.03</ele>
  <time>2026-08-28T17:50:46Z</time>
  <course>247.02</course>
  <speed>0.022360679774997897</speed>
  <fix>3d</fix>
</trkpt>
<trkpt lat="40.0713749" lon="-105.229789">
  <ele>1583.0</ele>
  <time>2026-08-28T17:50:46Z</time>
  <course>0.0</course>
  <speed>0.0</speed>
  <fix>3d</fix>
</trkpt>
<trkpt lat="40.0713751" lon="-105.2297889">
  <ele>1583.03</ele>
  <time>2026-08-28T17:50:46Z</time>
  <course>247.02</course>
  <speed>0.022360679774997897</speed>
  <fix>3d</fix>
</trkpt>
<trkpt lat="40.0713749" lon="-105.229789">
  <ele>1583.0</ele>
  <time>2026-08-28T17:50:46Z</time>
  <course>0.0</course>
  <speed>0.0</speed>
  <fix>3d</fix>
</trkpt>
<trkpt lat="40.0713751" lon="-105.2297889">
  <ele>1583.02</ele>
  <time>2026-08-28T17:50:46Z</time>
  <course>247.02</course>
  <speed>0.022360679774997897</speed>
  <fix>3d</fix>
</trkpt>
<trkpt lat="40.0713749" lon="-105.229789">
  <ele>1583.0</ele>
  <time>2026-08-28T17:50:46Z</time>
  <course>0.0</course>
  <speed>0.0</speed>
  <fix>3d</fix>
</trkpt>
<trkpt lat="40.0713751" lon="-105.2297889">
  <ele>1583.02</ele>
  <time>2026-08-28T17:50:46Z</time>
  <course>247.02</course>
  <speed>0.022360679774997897</speed>
  <fix>3d</fix>
</trkpt>
<trkpt lat="40.0713749" lon="-105.229789">
  <ele>1583.0</ele>
  <time>2026-08-28T17:50:46Z</time>
  <course>0.0</course>
  <speed>0.0</speed>
  <fix>3d</fix>
</trkpt>
<trkpt lat="40.0713751" lon="-105.2297889">
  <ele>1583.01</ele>
  <time>2026-08-28T17:50:46Z</time>
  <course>247.02</course>
  <speed>0.022360679774997897</speed>
  <fix>3d</fix>
</trkpt>
<trkpt lat="40.0713749" lon="-105.229789">
  <ele>1583.0</ele>
  <time>2026-08-28T17:50:46Z</time>
  <course>0.0</course>
  <speed>0.0</speed>
  <fix>3d</fix>
</trkpt>
<trkpt lat="40.071375" lon="-105.2297889">
  <ele>1583.01</ele>
  <time>2026-08-28T17:50:46Z</time>
  <course>247.02</course>
  <speed>0.022360679774997897</speed>
  <fix>3d</fix>
</trkpt>
<trkpt lat="40.0713749" lon="-105.229789">
  <ele>1583.0</ele>
  <time>2026-08-28T17:50:46Z</time>
  <course>0.0</course>
  <speed>0.0</speed>
  <fix>3d</fix>
</trkpt>
<trkpt lat="40.0713751" lon="-105.2297889">
  <ele>1583.0</ele>
  <time>2026-08-28T17:50:46Z</time>
  <course>247.02</course>
  <speed>0.022360679774997897</speed>
  <fix>3d</fix>
</trkpt>
<trkpt lat="40.0713749" lon="-105.229789">
  <ele>1583.0</ele>
  <time>2026-08-28T17:50:46Z</time>
  <course>0.0</course>
  <speed>0.0</speed>
  <fix>3d</fix>
</trkpt>
<trkpt lat="40.071375" lon="-105.2297889">
  <ele>1583.0</ele>
  <time>2026-08-28T17:50:46Z</time>
  <course>247.02</course>
  <speed>0.02</speed>
  <fix>3d</fix>
</trkpt>
<trkpt lat="40.0713749" lon="-105.229789">
  <ele>1583.0</ele>
  <time>2026-08-28T17:50:46Z</time>
  <course>0.0</course>
  <speed>0.0</speed>
  <fix>3d</fix>
</trkpt>
<trkpt lat="40.0713751" lon="-105.2297889">
  <ele>1583.0</ele>
  <time>2026-08-28T17:50:46Z</time>
  <course>247.02</course>
  <speed>0.022360679774997897</speed>
  <fix>3d</fix>
</trkpt>
<trkpt lat="40.0713749" lon="-105.229789">
  <ele>1583.0</ele>
  <time>2026-08-28T17:50:46Z</time>
  <course>0.0</course>
  <speed>0.0</speed>
  <fix>3d</fix>
</trkpt>
<trkpt lat="40.071375" lon="-105.2297889">
  <ele>1582.99</ele>
  <time>2026-08-28T17:50:46Z</time>
  <course>247.02</course>
  <speed>0.022360679774997897</speed>
  <fix>3d</fix>
</trkpt>
<trkpt lat="40.0713749" lon="-105.229789">
  <ele>1583.0</ele>
  <time>2026-08-28T17:50:46Z</time>
  <course>0.0</course>
  <speed>0.0</speed>
  <fix>3d</fix>
</trkpt>
<trkpt lat="40.0713751" lon="-105.2297889">
  <ele>1582.99</ele>
  <time>2026-08-28T17:50:46Z</time>
  <course>247.02</course>
  <speed>0.022360679774997897</speed>
  <fix>3d</fix>
</trkpt>
<trkpt lat="40.0713749" lon="-105.229789">
  <ele>1583.0</ele>
  <time>2026-08-28T17:50:46Z</time>
  <course>0.0</course>
  <speed>0.0</speed>
  <fix>3d</fix>
</trkpt>
<trkpt lat="40.071375" lon="-105.2297889">
  <ele>1582.99</ele>
  <time>2026-08-28T17:50:46Z</time>
  <course>247.02</course>
  <speed>0.02</speed>
  <fix>3d</fix>
</trkpt>
<trkpt lat="40.0713749" lon="-105.229789">
  <ele>1583.0</ele>
  <time>2026-08-28T17:50:46Z</time>
  <course>0.0</course>
  <speed>0.0</speed>
  <fix>3d</fix>
</trkpt>
<trkpt lat="40.0713751" lon="-105.2297889">
  <ele>1582.98</ele>
  <time>2026-08-28T17:50:46Z</time>
  <course>247.02</course>
  <speed>0.022360679774997897</speed>
  <fix>3d</fix>
</trkpt>
<trkpt lat="40.0713749" lon="-105.229789">
  <ele>1583.0</ele>
  <time>2026-08-28T17:50:46Z</time>
  <course>0.0</course>
  <speed>0.0</speed>
  <fix>3d</fix>
</trkpt>
<trkpt lat="40.071375" lon="-105.2297889">
  <ele>1582.98</ele>
  <time>2026-08-28T17:50:46Z</time>
  <course>247.02</course>
  <speed>0.022360679774997897</speed>
  <fix>3d</fix>
</trkpt>
<trkpt lat="40.0713749" lon="-105.229789">
  <ele>1583.0</ele>
  <time>2026-08-28T17:50:46Z</time>
  <course>0.0</course>
  <speed>0.0</speed>
  <fix>3d</fix>
</trkpt>
<trkpt lat="40.0713751" lon="-105.2297889">
  <ele>1582.97</ele>
  <time>2026-08-28T17:50:46Z</time>
  <course>247.02</course>
  <speed>0.022360679774997897</speed>
  <fix>3d</fix>
</trkpt>
<trkpt lat="40.0713749" lon="-105.229789">
  <ele>1583.0</ele>
  <time>2026-08-28T17:50:46Z</time>
  <course>0.0</course>
  <speed>0.0</speed>
  <fix>3d</fix>
</trkpt>
<trkpt lat="40.071375" lon="-105.2297889">
  <ele>1582.97</ele>
  <time>2026-08-28T17:50:46Z</time>
  <course>247.02</course>
  <speed>0.022360679774997897</speed>
  <fix>3d</fix>
</trkpt>
<trkpt lat="40.0713749" lon="-105.229789">
  <ele>1583.0</ele>
  <time>2026-08-28T17:50:46Z</time>
  <course>0.0</course>
  <speed>0.0</speed>
  <fix>3d</fix>
</trkpt>
<trkpt lat="40.0713751" lon="-105.2297889">
  <ele>1582.97</ele>
  <time>2026-08-28T17:50:46Z</time>
  <course>247.02</course>
  <speed>0.022360679774997897</speed>
  <fix>3d</fix>
</trkpt>
<trkpt lat="40.0713749" lon="-105.229789">
  <ele>1583.0</ele>
  <time>2026-08-28T17:50:46Z</time>
  <course>0.0</course>
  <speed>0.0</speed>
  <fix>3d</fix>
</trkpt>
<trkpt lat="40.071375" lon="-105.2297889">
  <ele>1582.96</ele>
  <time>2026-08-28T17:50:46Z</time>
  <course>247.02</course>
  <speed>0.022360679774997897</speed>
  <fix>3d</fix>
</trkpt>
<trkpt lat="40.0713749" lon="-105.229789">
  <ele>1583.0</ele>
  <time>2026-08-28T17:50:46Z</time>
  <course>0.0</course>
  <speed>0.0</speed>
  <fix>3d</fix>
</trkpt>
<trkpt lat="40.0713751" lon="-105.2297889">
  <ele>1582.96</ele>
  <time>2026-08-28T17:50:46Z</time>
  <course>247.02</course>
  <speed>0.022360679774997897</speed>
  <fix>3d</fix>
</trkpt>
<trkpt lat="40.0713749" lon="-105.229789">
  <ele>1583.0</ele>
  <time>2026-08-28T17:50:46Z</time>
  <course>0.0</course>
  <speed>0.0</speed>
  <fix>3d</fix>
</trkpt>
<trkpt lat="40.0713751" lon="-105.2297889">
  <ele>1582.95</ele>
  <time>2026-08-28T17:50:46Z</time>
  <course>247.02</course>
  <speed>0.022360679774997897</speed>
  <fix>3d</fix>
</trkpt>
<trkpt lat="40.0713749" lon="-105.229789">
  <ele>1583.0</ele>
  <time>2026-08-28T17:50:46Z</time>
  <course>0.0</course>
  <speed>0.0</speed>
  <fix>3d</fix>
</trkpt>
<trkpt lat="40.0713751" lon="-105.2297889">
  <ele>1582.95</ele>
  <time>2026-08-28T17:50:46Z</time>
  <course>247.02</course>
  <speed>0.022360679774997897</speed>
  <fix>3d</fix>
</trkpt>
<trkpt lat="40.0713749" lon="-105.229789">
  <ele>1583.0</ele>
  <time>2026-08-28T17:50:46Z</time>
  <course>0.0</course>
  <speed>0.0</speed>
  <fix>3d</fix>
</trkpt>
<trkpt lat="40.0713751" lon="-105.2297889">
  <ele>1582.95</ele>
  <time>2026-08-28T17:50:46Z</time>
  <course>247.02</course>
  <speed>0.022360679774997897</speed>
  <fix>3d</fix>
</trkpt>
<trkpt lat="40.0713749" lon="-105.229789">
  <ele>1583.0</ele>
  <time>2026-08-28T17:50:46Z</time>
  <course>0.0</course>
  <speed>0.0</speed>
  <fix>3d</fix>
</trkpt>
<trkpt lat="40.0713751" lon="-105.2297889">
  <ele>1582.95</ele>
  <time>2026-08-28T17:50:46Z</time>
  <course>247.02</course>
  <speed>0.022360679774997897</speed>
  <fix>3d</fix>
</trkpt>
<trkpt lat="40.0713749" lon="-105.229789">
  <ele>1583.0</ele>
  <time>2026-08-28T17:50:46Z</time>
  <course>0.0</course>
  <speed>0.0</speed>
  <fix>3d</fix>
</trkpt>
<trkpt lat="40.0713751" lon="-105.2297889">
  <ele>1582.95</ele>
  <time>2026-08-28T17:50:46Z</time>
  <course>247.02</course>
  <speed>0.022360679774997897</speed>
  <fix>3d</fix>
</trkpt>
<trkpt lat="40.0713749" lon="-105.229789">
  <ele>1583.0</ele>
  <time>2026-08-28T17:50:46Z</time>
  <course>0.0</course>
  <speed>0.0</speed>
  <fix>3d</fix>
</trkpt>
<trkpt lat="40.0713751" lon="-105.2297889">
  <ele>1582.95</ele>
  <time>2026-08-28T17:50:46Z</time>
  <course>247.02</course>
  <speed>0.022360679774997897</speed>
  <fix>3d</fix>
</trkpt>
<trkpt lat="40.0713749" lon="-105.229789">
  <ele>1583.0</ele>
  <time>2026-08-28T17:50:46Z</time>
  <course>0.0</course>
  <speed>0.0</speed>
  <fix>3d</fix>
</trkpt>
<trkpt lat="40.0713751" lon="-105.2297889">
  <ele>1582.95</ele>
  <time>2026-08-28T17:50:46Z</time>
  <course>247.02</course>
  <speed>0.022360679774997897</speed>
  <fix>3d</fix>
</trkpt>
<trkpt lat="40.0713749" lon="-105.229789">
  <ele>1583.0</ele>
  <time>2026-08-28T17:50:46Z</time>
  <course>0.0</course>
  <speed>0.0</speed>
  <fix>3d</fix>
</trkpt>
<trkpt lat="40.0713751" lon="-105.2297889">
  <ele>1582.94</ele>
  <time>2026-08-28T17:50:46Z</time>
  <course>247.02</course>
  <speed>0.022360679774997897</speed>
  <fix>3d</fix>
</trkpt>
<trkpt lat="40.0713749" lon="-105.229789">
  <ele>1583.0</ele>
  <time>2026-08-28T17:50:46Z</time>
  <course>0.0</course>
  <speed>0.0</speed>
  <fix>3d</fix>
</trkpt>
<trkpt lat="40.071375" lon="-105.2297889">
  <ele>1582.94</ele>
  <time>2026-08-28T17:50:46Z</time>
  <course>247.02</course>
  <speed>0.022360679774997897</speed>
  <fix>3d</fix>
</trkpt>
<trkpt lat="40.0713749" lon="-105.229789">
  <ele>1583.0</ele>
  <time>2026-08-28T17:50:46Z</time>
  <course>0.0</course>
  <speed>0.0</speed>
  <fix>3d</fix>
</trkpt>
<trkpt lat="40.0713751" lon="-105.2297889">
  <ele>1582.94</ele>
  <time>2026-08-28T17:50:46Z</time>
  <course>247.02</course>
  <speed>0.022360679774997897</speed>
  <fix>3d</fix>
</trkpt>
<trkpt lat="40.0713749" lon="-105.229789">
  <ele>1583.0</ele>
  <time>2026-08-28T17:50:46Z</time>
  <course>0.0</course>
  <speed>0.0</speed>
  <fix>3d</fix>
</trkpt>
<trkpt lat="40.071375" lon="-105.2297889">
  <ele>1582.94</ele>
  <time>2026-08-28T17:50:46Z</time>
  <course>247.02</course>
  <speed>0.022360679774997897</speed>
  <fix>3d</fix>
</trkpt>
<trkpt lat="40.0713749" lon="-105.229789">
  <ele>1583.0</ele>
  <time>2026-08-28T17:50:46Z</time>
  <course>0.0</course>
  <speed>0.0</speed>
  <fix>3d</fix>
</trkpt>
<trkpt lat="40.0713751" lon="-105.2297889">
  <ele>1582.93</ele>
  <time>2026-08-28T17:50:46Z</time>
  <course>247.02</course>
  <speed>0.022360679774997897</speed>
  <fix>3d</fix>
</trkpt>
<trkpt lat="40.0713749" lon="-105.229789">
  <ele>1583.0</ele>
  <time>2026-08-28T17:50:46Z</time>
  <course>0.0</course>
  <speed>0.0</speed>
  <fix>3d</fix>
</trkpt>
<trkpt lat="40.071375" lon="-105.2297889">
  <ele>1582.93</ele>
  <time>2026-08-28T17:50:46Z</time>
  <course>247.02</course>
  <speed>0.022360679774997897</speed>
  <fix>3d</fix>
</trkpt>
<trkpt lat="40.0713749" lon="-105.229789">
  <ele>1583.0</ele>
  <time>2026-08-28T17:50:46Z</time>
  <course>0.0</course>
  <speed>0.0</speed>
  <fix>3d</fix>
</trkpt>
<trkpt lat="40.0713751" lon="-105.2297889">
  <ele>1582.92</ele>
  <time>2026-08-28T17:50:46Z</time>
  <course>247.02</course>
  <speed>0.022360679774997897</speed>
  <fix>3d</fix>
</trkpt>
<trkpt lat="40.0713749" lon="-105.229789">
  <ele>1583.0</ele>
  <time>2026-08-28T17:50:46Z</time>
  <course>0.0</course>
  <speed>0.0</speed>
  <fix>3d</fix>
</trkpt>
<trkpt lat="40.071375" lon="-105.2297889">
  <ele>1582.92</ele>
  <time>2026-08-28T17:50:46Z</time>
  <course>247.02</course>
  <speed>0.022360679774997897</speed>
  <fix>3d</fix>
</trkpt>
<trkpt lat="40.0713749" lon="-105.229789">
  <ele>1583.0</ele>
  <time>2026-08-28T17:50:46Z</time>
  <course>0.0</course>
  <speed>0.0</speed>
  <fix>3d</fix>
</trkpt>
<trkpt lat="40.0713751" lon="-105.2297889">
  <ele>1582.91</ele>
  <time>2026-08-28T17:50:46Z</time>
  <course>247.02</course>
  <speed>0.022360679774997897</speed>
  <fix>3d</fix>
</trkpt>
<trkpt lat="40.0713749" lon="-105.229789">
  <ele>1583.0</ele>
  <time>2026-08-28T17:50:46Z</time>
  <course>0.0</course>
  <speed>0.0</speed>
  <fix>3d</fix>
</trkpt>
<trkpt lat="40.071375" lon="-105.2297889">
  <ele>1582.91</ele>
  <time>2026-08-28T17:50:46Z</time>
  <course>247.02</course>
  <speed>0.022360679774997897</speed>
  <fix>3d</fix>
</trkpt>
<trkpt lat="40.0713749" lon="-105.229789">
  <ele>1583.0</ele>
  <time>2026-08-28T17:50:46Z</time>
  <course>0.0</course>
  <speed>0.0</speed>
  <fix>3d</fix>
</trkpt>
<trkpt lat="40.0713751" lon="-105.2297889">
  <ele>1582.9</ele>
  <time>2026-08-28T17:50:46Z</time>
  <course>247.02</course>
  <speed>0.022360679774997897</speed>
  <fix>3d</fix>
</trkpt>
<trkpt lat="40.0713749" lon="-105.229789">
  <ele>1583.0</ele>
  <time>2026-08-28T17:50:46Z</time>
  <course>0.0</course>
  <speed>0.0</speed>
  <fix>3d</fix>
</trkpt>
<trkpt lat="40.071375" lon="-105.2297889">
  <ele>1582.9</ele>
  <time>2026-08-28T17:50:46Z</time>
  <course>247.02</course>
  <speed>0.022360679774997897</speed>
  <fix>3d</fix>
</trkpt>
<trkpt lat="40.0713749" lon="-105.229789">
  <ele>1583.0</ele>
  <time>2026-08-28T17:50:46Z</time>
  <course>0.0</course>
  <speed>0.0</speed>
  <fix>3d</fix>
</trkpt>
<trkpt lat="40.0713751" lon="-105.2297889">
  <ele>1582.9</ele>
  <time>2026-08-28T17:50:46Z</time>
  <course>247.02</course>
  <speed>0.022360679774997897</speed>
  <fix>3d</fix>
</trkpt>
<trkpt lat="40.0713749" lon="-105.229789">
  <ele>1583.0</ele>
  <time>2026-08-28T17:50:46Z</time>
  <course>0.0</course>
  <speed>0.0</speed>
  <fix>3d</fix>
</trkpt>
<trkpt lat="40.0713751" lon="-105.2297889">
  <ele>1582.9</ele>
  <time>2026-08-28T17:50:46Z</time>
  <course>247.02</course>
  <speed>0.022360679774997897</speed>
  <fix>3d</fix>
</trkpt>
<trkpt lat="40.0713749" lon="-105.229789">
  <ele>1583.0</ele>
  <time>2026-08-28T17:50:46Z</time>
  <course>0.0</course>
  <speed>0.0</speed>
  <fix>3d</fix>
</trkpt>
<trkpt lat="40.0713751" lon="-105.2297889">
  <ele>1582.9</ele>
  <time>2026-08-28T17:50:46Z</time>
  <course>247.02</course>
  <speed>0.022360679774997897</speed>
  <fix>3d</fix>
</trkpt>
<trkpt lat="40.0713749" lon="-105.229789">
  <ele>1583.0</ele>
  <time>2026-08-28T17:50:46Z</time>
  <course>0.0</course>
  <speed>0.0</speed>
  <fix>3d</fix>
</trkpt>
<trkpt lat="40.0713751" lon="-105.2297889">
  <ele>1582.9</ele>
  <time>2026-08-28T17:50:46Z</time>
  <course>247.02</course>
  <speed>0.022360679774997897</speed>
  <fix>3d</fix>
</trkpt>
<trkpt lat="40.0713749" lon="-105.229789">
  <ele>1583.0</ele>
  <time>2026-08-28T17:50:46Z</time>
  <course>0.0</course>
  <speed>0.0</speed>
  <fix>3d</fix>
</trkpt>
<trkpt lat="40.0713751" lon="-105.2297889">
  <ele>1582.91</ele>
  <time>2026-08-28T17:50:46Z</time>
  <course>247.02</course>
  <speed>0.022360679774997897</speed>
  <fix>3d</fix>
</trkpt>
<trkpt lat="40.0713749" lon="-105.229789">
  <ele>1583.0</ele>
  <time>2026-08-28T17:50:46Z</time>
  <course>0.0</course>
  <speed>0.0</speed>
  <fix>3d</fix>
</trkpt>
<trkpt lat="40.0713751" lon="-105.2297889">
  <ele>1582.91</ele>
  <time>2026-08-28T17:50:46Z</time>
  <course>247.02</course>
  <speed>0.022360679774997897</speed>
  <fix>3d</fix>
</trkpt>
<trkpt lat="40.0713749" lon="-105.229789">
  <ele>1583.0</ele>
  <time>2026-08-28T17:50:46Z</time>
  <course>0.0</course>
  <speed>0.0</speed>
  <fix>3d</fix>
</trkpt>
<trkpt lat="40.0713751" lon="-105.2297889">
  <ele>1582.92</ele>
  <time>2026-08-28T17:50:46Z</time>
  <course>247.02</course>
  <speed>0.022360679774997897</speed>
  <fix>3d</fix>
</trkpt>
<trkpt lat="40.0713749" lon="-105.229789">
  <ele>1583.0</ele>
  <time>2026-08-28T17:50:46Z</time>
  <course>0.0</course>
  <speed>0.0</speed>
  <fix>3d</fix>
</trkpt>
<trkpt lat="40.0713751" lon="-105.2297889">
  <ele>1582.92</ele>
  <time>2026-08-28T17:50:46Z</time>
  <course>247.02</course>
  <speed>0.022360679774997897</speed>
  <fix>3d</fix>
</trkpt>
<trkpt lat="40.0713749" lon="-105.229789">
  <ele>1583.0</ele>
  <time>2026-08-28T17:50:46Z</time>
  <course>0.0</course>
  <speed>0.0</speed>
  <fix>3d</fix>
</trkpt>
<trkpt lat="40.0713751" lon="-105.2297889">
  <ele>1582.92</ele>
  <time>2026-08-28T17:50:46Z</time>
  <course>247.02</course>
  <speed>0.022360679774997897</speed>
  <fix>3d</fix>
</trkpt>
<trkpt lat="40.0713749" lon="-105.229789">
  <ele>1583.0</ele>
  <time>2026-08-28T17:50:46Z</time>
  <course>0.0</course>
  <speed>0.0</speed>
  <fix>3d</fix>
</trkpt>
<trkpt lat="40.071375" lon="-105.2297889">
  <ele>1582.92</ele>
  <time>2026-08-28T17:50:46Z</time>
  <course>247.02</course>
  <speed>0.022360679774997897</speed>
  <fix>3d</fix>
</trkpt>
<trkpt lat="40.0713749" lon="-105.229789">
  <ele>1583.0</ele>
  <time>2026-08-28T17:50:46Z</time>
  <course>0.0</course>
  <speed>0.0</speed>
  <fix>3d</fix>
</trkpt>
<trkpt lat="40.0713751" lon="-105.2297889">
  <ele>1582.92</ele>
  <time>2026-08-28T17:50:46Z</time>
  <course>247.02</course>
  <speed>0.022360679774997897</speed>
  <fix>3d</fix>
</trkpt>
<trkpt lat="40.0713749" lon="-105.229789">
  <ele>1583.0</ele>
  <time>2026-08-28T17:50:46Z</time>
  <course>0.0</course>
  <speed>0.0</speed>
  <fix>3d</fix>
</trkpt>
<trkpt lat="40.071375" lon="-105.2297889">
  <ele>1582.92</ele>
  <time>2026-08-28T17:50:46Z</time>
  <course>247.02</course>
  <speed>0.022360679774997897</speed>
  <fix>3d</fix>
</trkpt>
<trkpt lat="40.0713749" lon="-105.229789">
  <ele>1583.0</ele>
  <time>2026-08-28T17:50:46Z</time>
  <course>0.0</course>
  <speed>0.0</speed>
  <fix>3d</fix>
</trkpt>
<trkpt lat="40.0713751" lon="-105.2297889">
  <ele>1582.93</ele>
  <time>2026-08-28T17:50:46Z</time>
  <course>247.02</course>
  <speed>0.022360679774997897</speed>
  <fix>3d</fix>
</trkpt>
<trkpt lat="40.0713749" lon="-105.229789">
  <ele>1583.0</ele>
  <time>2026-08-28T17:50:46Z</time>
  <course>0.0</course>
  <speed>0.0</speed>
  <fix>3d</fix>
</trkpt>
<trkpt lat="40.071375" lon="-105.2297889">
  <ele>1582.93</ele>
  <time>2026-08-28T17:50:46Z</time>
  <course>247.02</course>
  <speed>0.022360679774997897</speed>
  <fix>3d</fix>
</trkpt>
<trkpt lat="40.0713749" lon="-105.229789">
  <ele>1583.0</ele>
  <time>2026-08-28T17:50:46Z</time>
  <course>0.0</course>
  <speed>0.0</speed>
  <fix>3d</fix>
</trkpt>
<trkpt lat="40.0713751" lon="-105.2297889">
  <ele>1582.93</ele>
  <time>2026-08-28T17:50:46Z</time>
  <course>247.02</course>
  <speed>0.022360679774997897</speed>
  <fix>3d</fix>
</trkpt>
<trkpt lat="40.0713749" lon="-105.229789">
  <ele>1583.0</ele>
  <time>2026-08-28T17:50:46Z</time>
  <course>0.0</course>
  <speed>0.0</speed>
  <fix>3d</fix>
</trkpt>
<trkpt lat="40.071375" lon="-105.2297889">
  <ele>1582.93</ele>
  <time>2026-08-28T17:50:46Z</time>
  <course>247.02</course>
  <speed>0.022360679774997897</speed>
  <fix>3d</fix>
</trkpt>
<trkpt lat="40.0713749" lon="-105.229789">
  <ele>1583.0</ele>
  <time>2026-08-28T17:50:46Z</time>
  <course>0.0</course>
  <speed>0.0</speed>
  <fix>3d</fix>
</trkpt>
<trkpt lat="40.0713751" lon="-105.2297889">
  <ele>1582.93</ele>
  <time>2026-08-28T17:50:46Z</time>
  <course>247.02</course>
  <speed>0.022360679774997897</speed>
  <fix>3d</fix>
</trkpt>
<trkpt lat="40.0713749" lon="-105.229789">
  <ele>1583.0</ele>
  <time>2026-08-28T17:50:46Z</time>
  <course>0.0</course>
  <speed>0.0</speed>
  <fix>3d</fix>
</trkpt>
<trkpt lat="40.071375" lon="-105.2297889">
  <ele>1582.93</ele>
  <time>2026-08-28T17:50:46Z</time>
  <course>247.02</course>
  <speed>0.022360679774997897</speed>
  <fix>3d</fix>
</trkpt>
<trkpt lat="40.0713749" lon="-105.229789">
  <ele>1583.0</ele>
  <time>2026-08-28T17:50:46Z</time>
  <course>0.0</course>
  <speed>0.0</speed>
  <fix>3d</fix>
</trkpt>
<trkpt lat="40.0713751" lon="-105.2297889">
  <ele>1582.94</ele>
  <time>2026-08-28T17:50:46Z</time>
  <course>247.02</course>
  <speed>0.022360679774997897</speed>
  <fix>3d</fix>
</trkpt>
<trkpt lat="40.0713749" lon="-105.229789">
  <ele>1583.0</ele>
  <time>2026-08-28T17:50:46Z</time>
  <course>0.0</course>
  <speed>0.0</speed>
  <fix>3d</fix>
</trkpt>
<trkpt lat="40.071375" lon="-105.2297889">
  <ele>1582.94</ele>
  <time>2026-08-28T17:50:46Z</time>
  <course>247.02</course>
  <speed>0.022360679774997897</speed>
  <fix>3d</fix>
</trkpt>
<trkpt lat="40.0713749" lon="-105.229789">
  <ele>1583.0</ele>
  <time>2026-08-28T17:50:46Z</time>
  <course>0.0</course>
  <speed>0.0</speed>
  <fix>3d</fix>
</trkpt>
<trkpt lat="40.0713751" lon="-105.2297889">
  <ele>1582.94</ele>
  <time>2026-08-28T17:50:46Z</time>
  <course>247.02</course>
  <speed>0.022360679774997897</speed>
  <fix>3d</fix>
</trkpt>
<trkpt lat="40.0713749" lon="-105.229789">
  <ele>1583.0</ele>
  <time>2026-08-28T17:50:46Z</time>
  <course>0.0</course>
  <speed>0.0</speed>
  <fix>3d</fix>
</trkpt>
<trkpt lat="40.071375" lon="-105.2297889">
  <ele>1582.94</ele>
  <time>2026-08-28T17:50:46Z</time>
  <course>247.02</course>
  <speed>0.022360679774997897</speed>
  <fix>3d</fix>
</trkpt>
<trkpt lat="40.0713749" lon="-105.229789">
  <ele>1583.0</ele>
  <time>2026-08-28T17:50:46Z</time>
  <course>0.0</course>
  <speed>0.0</speed>
  <fix>3d</fix>
</trkpt>
<trkpt lat="40.0713751" lon="-105.2297889">
  <ele>1582.94</ele>
  <time>2026-08-28T17:50:46Z</time>
  <course>247.02</course>
  <speed>0.022360679774997897</speed>
  <fix>3d</fix>
</trkpt>
<trkpt lat="40.0713749" lon="-105.229789">
  <ele>1583.0</ele>
  <time>2026-08-28T17:50:46Z</time>
  <course>0.0</course>
  <speed>0.0</speed>
  <fix>3d</fix>
</trkpt>
<trkpt lat="40.0713751" lon="-105.2297889">
  <ele>1582.94</ele>
  <time>2026-08-28T17:50:46Z</time>
  <course>247.02</course>
  <speed>0.022360679774997897</speed>
  <fix>3d</fix>
</trkpt>
<trkpt lat="40.0713749" lon="-105.229789">
  <ele>1583.0</ele>
  <time>2026-08-28T17:50:46Z</time>
  <course>0.0</course>
  <speed>0.0</speed>
  <fix>3d</fix>
</trkpt>
<trkpt lat="40.0713751" lon="-105.2297889">
  <ele>1582.95</ele>
  <time>2026-08-28T17:50:46Z</time>
  <course>247.02</course>
  <speed>0.022360679774997897</speed>
  <fix>3d</fix>
</trkpt>
<trkpt lat="40.0713749" lon="-105.229789">
  <ele>1583.0</ele>
  <time>2026-08-28T17:50:46Z</time>
  <course>0.0</course>
  <speed>0.0</speed>
  <fix>3d</fix>
</trkpt>
<trkpt lat="40.0713751" lon="-105.2297889">
  <ele>1582.94</ele>
  <time>2026-08-28T17:50:46Z</time>
  <course>247.02</course>
  <speed>0.022360679774997897</speed>
  <fix>3d</fix>
</trkpt>
<trkpt lat="40.0713749" lon="-105.229789">
  <ele>1583.0</ele>
  <time>2026-08-28T17:50:46Z</time>
  <course>0.0</course>
  <speed>0.0</speed>
  <fix>3d</fix>
</trkpt>
<trkpt lat="40.0713751" lon="-105.2297889">
  <ele>1582.94</ele>
  <time>2026-08-28T17:50:46Z</time>
  <course>247.02</course>
  <speed>0.022360679774997897</speed>
  <fix>3d</fix>
</trkpt>
<trkpt lat="40.0713749" lon="-105.229789">
  <ele>1583.0</ele>
  <time>2026-08-28T17:50:46Z</time>
  <course>0.0</course>
  <speed>0.0</speed>
  <fix>3d</fix>
</trkpt>
<trkpt lat="40.0713751" lon="-105.2297889">
  <ele>1582.94</ele>
  <time>2026-08-28T17:50:46Z</time>
  <course>247.02</course>
  <speed>0.022360679774997897</speed>
  <fix>3d</fix>
</trkpt>
<trkpt lat="40.0713749" lon="-105.229789">
  <ele>1583.0</ele>
  <time>2026-08-28T17:50:46Z</time>
  <course>0.0</course>
  <speed>0.0</speed>
  <fix>3d</fix>
</trkpt>
<trkpt lat="40.0713751" lon="-105.2297889">
  <ele>1582.94</ele>
  <time>2026-08-28T17:50:46Z</time>
  <course>247.02</course>
  <speed>0.022360679774997897</speed>
  <fix>3d</fix>
</trkpt>
<trkpt lat="40.0713749" lon="-105.229789">
  <ele>1583.0</ele>
  <time>2026-08-28T17:50:46Z</time>
  <course>0.0</course>
  <speed>0.0</speed>
  <fix>3d</fix>
</trkpt>
<trkpt lat="40.0713751" lon="-105.2297889">
  <ele>1582.94</ele>
  <time>2026-08-28T17:50:46Z</time>
  <course>247.02</course>
  <speed>0.022360679774997897</speed>
  <fix>3d</fix>
</trkpt>
<trkpt lat="40.0713749" lon="-105.229789">
  <ele>1583.0</ele>
  <time>2026-08-28T17:50:46Z</time>
  <course>0.0</course>
  <speed>0.0</speed>
  <fix>3d</fix>
</trkpt>
<trkpt lat="40.0713751" lon="-105.2297889">
  <ele>1582.94</ele>
  <time>2026-08-28T17:50:46Z</time>
  <course>247.02</course>
  <speed>0.022360679774997897</speed>
  <fix>3d</fix>
</trkpt>
<trkpt lat="40.0713749" lon="-105.229789">
  <ele>1583.0</ele>
  <time>2026-08-28T17:50:46Z</time>
  <course>0.0</course>
  <speed>0.0</speed>
  <fix>3d</fix>
</trkpt>
<trkpt lat="40.071375" lon="-105.2297889">
  <ele>1582.94</ele>
  <time>2026-08-28T17:50:46Z</time>
  <course>247.02</course>
  <speed>0.022360679774997897</speed>
  <fix>3d</fix>
</trkpt>
<trkpt lat="40.0713749" lon="-105.229789">
  <ele>1583.0</ele>
  <time>2026-08-28T17:50:46Z</time>
  <course>0.0</course>
  <speed>0.0</speed>
  <fix>3d</fix>
</trkpt>
<trkpt lat="40.0713751" lon="-105.2297889">
  <ele>1582.95</ele>
  <time>2026-08-28T17:50:46Z</time>
  <course>247.02</course>
  <speed>0.022360679774997897</speed>
  <fix>3d</fix>
</trkpt>
<trkpt lat="40.0713749" lon="-105.229789">
  <ele>1583.0</ele>
  <time>2026-08-28T17:50:46Z</time>
  <course>0.0</course>
  <speed>0.0</speed>
  <fix>3d</fix>
</trkpt>
<trkpt lat="40.071375" lon="-105.2297889">
  <ele>1582.96</ele>
  <time>2026-08-28T17:50:46Z</time>
  <course>247.02</course>
  <speed>0.022360679774997897</speed>
  <fix>3d</fix>
</trkpt>
<trkpt lat="40.0713749" lon="-105.229789">
  <ele>1583.0</ele>
  <time>2026-08-28T17:50:46Z</time>
  <course>0.0</course>
  <speed>0.0</speed>
  <fix>3d</fix>
</trkpt>
<trkpt lat="40.0713751" lon="-105.2297889">
  <ele>1582.97</ele>
  <time>2026-08-28T17:50:46Z</time>
  <course>247.01</course>
  <speed>0.022360679774997897</speed>
  <fix>3d</fix>
</trkpt>
<trkpt lat="40.0713749" lon="-105.229789">
  <ele>1583.0</ele>
  <time>2026-08-28T17:50:46Z</time>
  <course>0.0</course>
  <speed>0.0</speed>
  <fix>3d</fix>
</trkpt>
<trkpt lat="40.071375" lon="-105.2297889">
  <ele>1582.98</ele>
  <time>2026-08-28T17:50:46Z</time>
  <course>247.01</course>
  <speed>0.022360679774997897</speed>
  <fix>3d</fix>
</trkpt>
<trkpt lat="40.0713749" lon="-105.229789">
  <ele>1583.0</ele>
  <time>2026-08-28T17:50:46Z</time>
  <course>0.0</course>
  <speed>0.0</speed>
  <fix>3d</fix>
</trkpt>
<trkpt lat="40.0713751" lon="-105.2297889">
  <ele>1582.99</ele>
  <time>2026-08-28T17:50:46Z</time>
  <course>247.01</course>
  <speed>0.022360679774997897</speed>
  <fix>3d</fix>
</trkpt>
<trkpt lat="40.0713749" lon="-105.229789">
  <ele>1583.0</ele>
  <time>2026-08-28T17:50:46Z</time>
  <course>0.0</course>
  <speed>0.0</speed>
  <fix>3d</fix>
</trkpt>
<trkpt lat="40.071375" lon="-105.2297889">
  <ele>1583.0</ele>
  <time>2026-08-28T17:50:46Z</time>
  <course>247.01</course>
  <speed>0.022360679774997897</speed>
  <fix>3d</fix>
</trkpt>
<trkpt lat="40.0713749" lon="-105.229789">
  <ele>1583.0</ele>
  <time>2026-08-28T17:50:46Z</time>
  <course>0.0</course>
  <speed>0.0</speed>
  <fix>3d</fix>
</trkpt>
<trkpt lat="40.0713751" lon="-105.2297889">
  <ele>1583.01</ele>
  <time>2026-08-28T17:50:46Z</time>
  <course>247.01</course>
  <speed>0.022360679774997897</speed>
  <fix>3d</fix>
</trkpt>
<trkpt lat="40.0713749" lon="-105.229789">
  <ele>1583.0</ele>
  <time>2026-08-28T17:50:46Z</time>
  <course>0.0</course>
  <speed>0.0</speed>
  <fix>3d</fix>
</trkpt>
<trkpt lat="40.071375" lon="-105.2297889">
  <ele>1583.02</ele>
  <time>2026-08-28T17:50:46Z</time>
  <course>247.01</course>
  <speed>0.022360679774997897</speed>
  <fix>3d</fix>
</trkpt>
<trkpt lat="40.0713749" lon="-105.229789">
  <ele>1583.0</ele>
  <time>2026-08-28T17:50:46Z</time>
  <course>0.0</course>
  <speed>0.0</speed>
  <fix>3d</fix>
</trkpt>
<trkpt lat="40.0713751" lon="-105.2297889">
  <ele>1583.03</ele>
  <time>2026-08-28T17:50:46Z</time>
  <course>247.01</course>
  <speed>0.022360679774997897</speed>
  <fix>3d</fix>
</trkpt>
<trkpt lat="40.0713749" lon="-105.229789">
  <ele>1583.0</ele>
  <time>2026-08-28T17:50:46Z</time>
  <course>0.0</course>
  <speed>0.0</speed>
  <fix>3d</fix>
</trkpt>
<trkpt lat="40.071375" lon="-105.2297889">
  <ele>1583.03</ele>
  <time>2026-08-28T17:50:46Z</time>
  <course>247.01</course>
  <speed>0.022360679774997897</speed>
  <fix>3d</fix>
</trkpt>
<trkpt lat="40.0713749" lon="-105.229789">
  <ele>1583.0</ele>
  <time>2026-08-28T17:50:46Z</time>
  <course>0.0</course>
  <speed>0.0</speed>
  <fix>3d</fix>
</trkpt>
<trkpt lat="40.0713751" lon="-105.2297889">
  <ele>1583.04</ele>
  <time>2026-08-28T17:50:46Z</time>
  <course>247.01</course>
  <speed>0.022360679774997897</speed>
  <fix>3d</fix>
</trkpt>
<trkpt lat="40.0713749" lon="-105.229789">
  <ele>1583.0</ele>
  <time>2026-08-28T17:50:46Z</time>
  <course>0.0</course>
  <speed>0.0</speed>
  <fix>3d</fix>
</trkpt>
<trkpt lat="40.0713751" lon="-105.2297889">
  <ele>1583.04</ele>
  <time>2026-08-28T17:50:46Z</time>
  <course>247.01</course>
  <speed>0.022360679774997897</speed>
  <fix>3d</fix>
</trkpt>
<trkpt lat="40.0713749" lon="-105.229789">
  <ele>1583.0</ele>
  <time>2026-08-28T17:50:46Z</time>
  <course>0.0</course>
  <speed>0.0</speed>
  <fix>3d</fix>
</trkpt>
<trkpt lat="40.0713751" lon="-105.2297889">
  <ele>1583.04</ele>
  <time>2026-08-28T17:50:46Z</time>
  <course>247.01</course>
  <speed>0.022360679774997897</speed>
  <fix>3d</fix>
</trkpt>
<trkpt lat="40.0713749" lon="-105.229789">
  <ele>1583.0</ele>
  <time>2026-08-28T17:50:46Z</time>
  <course>0.0</course>
  <speed>0.0</speed>
  <fix>3d</fix>
</trkpt>
<trkpt lat="40.0713751" lon="-105.2297889">
  <ele>1583.04</ele>
  <time>2026-08-28T17:50:46Z</time>
  <course>247.01</course>
  <speed>0.022360679774997897</speed>
  <fix>3d</fix>
</trkpt>
<trkpt lat="40.0713749" lon="-105.229789">
  <ele>1583.0</ele>
  <time>2026-08-28T17:50:46Z</time>
  <course>0.0</course>
  <speed>0.0</speed>
  <fix>3d</fix>
</trkpt>
<trkpt lat="40.0713751" lon="-105.2297889">
  <ele>1583.04</ele>
  <time>2026-08-28T17:50:46Z</time>
  <course>247.01</course>
  <speed>0.022360679774997897</speed>
  <fix>3d</fix>
</trkpt>
<trkpt lat="40.0713749" lon="-105.229789">
  <ele>1583.0</ele>
  <time>2026-08-28T17:50:46Z</time>
  <course>0.0</course>
  <speed>0.0</speed>
  <fix>3d</fix>
</trkpt>
<trkpt lat="40.0713751" lon="-105.2297889">
  <ele>1583.04</ele>
  <time>2026-08-28T17:50:46Z</time>
  <course>247.01</course>
  <speed>0.022360679774997897</speed>
  <fix>3d</fix>
</trkpt>
<trkpt lat="40.0713749" lon="-105.229789">
  <ele>1583.0</ele>
  <time>2026-08-28T17:50:46Z</time>
  <course>0.0</course>
  <speed>0.0</speed>
  <fix>3d</fix>
</trkpt>
<trkpt lat="40.0713751" lon="-105.2297889">
  <ele>1583.04</ele>
  <time>2026-08-28T17:50:46Z</time>
  <course>247.01</course>
  <speed>0.022360679774997897</speed>
  <fix>3d</fix>
</trkpt>
<trkpt lat="40.0713749" lon="-105.229789">
  <ele>1583.0</ele>
  <time>2026-08-28T17:50:46Z</time>
  <course>0.0</course>
  <speed>0.0</speed>
  <fix>3d</fix>
</trkpt>
<trkpt lat="40.0713751" lon="-105.2297889">
  <ele>1583.04</ele>
  <time>2026-08-28T17:50:46Z</time>
  <course>247.01</course>
  <speed>0.022360679774997897</speed>
  <fix>3d</fix>
</trkpt>
<trkpt lat="40.0713749" lon="-105.229789">
  <ele>1583.0</ele>
  <time>2026-08-28T17:50:46Z</time>
  <course>0.0</course>
  <speed>0.0</speed>
  <fix>3d</fix>
</trkpt>
<trkpt lat="40.0713751" lon="-105.2297889">
  <ele>1583.04</ele>
  <time>2026-08-28T17:50:46Z</time>
  <course>247.01</course>
  <speed>0.022360679774997897</speed>
  <fix>3d</fix>
</trkpt>
<trkpt lat="40.0713749" lon="-105.229789">
  <ele>1583.0</ele>
  <time>2026-08-28T17:50:46Z</time>
  <course>0.0</course>
  <speed>0.0</speed>
  <fix>3d</fix>
</trkpt>
<trkpt lat="40.071375" lon="-105.2297889">
  <ele>1583.04</ele>
  <time>2026-08-28T17:50:46Z</time>
  <course>247.01</course>
  <speed>0.022360679774997897</speed>
  <fix>3d</fix>
</trkpt>
<trkpt lat="40.0713749" lon="-105.229789">
  <ele>1583.0</ele>
  <time>2026-08-28T17:50:46Z</time>
  <course>0.0</course>
  <speed>0.0</speed>
  <fix>3d</fix>
</trkpt>
<trkpt lat="40.0713751" lon="-105.2297889">
  <ele>1583.05</ele>
  <time>2026-08-28T17:50:46Z</time>
  <course>247.01</course>
  <speed>0.022360679774997897</speed>
  <fix>3d</fix>
</trkpt>
<trkpt lat="40.0713749" lon="-105.229789">
  <ele>1583.0</ele>
  <time>2026-08-28T17:50:46Z</time>
  <course>0.0</course>
  <speed>0.0</speed>
  <fix>3d</fix>
</trkpt>
<trkpt lat="40.071375" lon="-105.2297889">
  <ele>1583.05</ele>
  <time>2026-08-28T17:50:46Z</time>
  <course>247.01</course>
  <speed>0.022360679774997897</speed>
  <fix>3d</fix>
</trkpt>
<trkpt lat="40.0713749" lon="-105.229789">
  <ele>1583.0</ele>
  <time>2026-08-28T17:50:46Z</time>
  <course>0.0</course>
  <speed>0.0</speed>
  <fix>3d</fix>
</trkpt>
<trkpt lat="40.0713751" lon="-105.2297889">
  <ele>1583.05</ele>
  <time>2026-08-28T17:50:46Z</time>
  <course>247.01</course>
  <speed>0.022360679774997897</speed>
  <fix>3d</fix>
</trkpt>
<trkpt lat="40.0713749" lon="-105.229789">
  <ele>1583.0</ele>
  <time>2026-08-28T17:50:46Z</time>
  <course>0.0</course>
  <speed>0.0</speed>
  <fix>3d</fix>
</trkpt>
<trkpt lat="40.071375" lon="-105.2297889">
  <ele>1583.06</ele>
  <time>2026-08-28T17:50:46Z</time>
  <course>247.01</course>
  <speed>0.022360679774997897</speed>
  <fix>3d</fix>
</trkpt>
<trkpt lat="40.0713749" lon="-105.229789">
  <ele>1583.0</ele>
  <time>2026-08-28T17:50:46Z</time>
  <course>0.0</course>
  <speed>0.0</speed>
  <fix>3d</fix>
</trkpt>
<trkpt lat="40.0713751" lon="-105.2297889">
  <ele>1583.06</ele>
  <time>2026-08-28T17:50:46Z</time>
  <course>247.01</course>
  <speed>0.022360679774997897</speed>
  <fix>3d</fix>
</trkpt>
<trkpt lat="40.0713749" lon="-105.229789">
  <ele>1583.0</ele>
  <time>2026-08-28T17:50:46Z</time>
  <course>0.0</course>
  <speed>0.0</speed>
  <fix>3d</fix>
</trkpt>
<trkpt lat="40.071375" lon="-105.2297889">
  <ele>1583.07</ele>
  <time>2026-08-28T17:50:46Z</time>
  <course>247.01</course>
  <speed>0.022360679774997897</speed>
  <fix>3d</fix>
</trkpt>
<trkpt lat="40.0713749" lon="-105.229789">
  <ele>1583.0</ele>
  <time>2026-08-28T17:50:46Z</time>
  <course>0.0</course>
  <speed>0.0</speed>
  <fix>3d</fix>
</trkpt>
<trkpt lat="40.0713751" lon="-105.2297889">
  <ele>1583.07</ele>
  <time>2026-08-28T17:50:46Z</time>
  <course>247.01</course>
  <speed>0.022360679774997897</speed>
  <fix>3d</fix>
</trkpt>
<trkpt lat="40.0713749" lon="-105.229789">
  <ele>1583.0</ele>
  <time>2026-08-28T17:50:46Z</time>
  <course>0.0</course>
  <speed>0.0</speed>
  <fix>3d</fix>
</trkpt>
<trkpt lat="40.071375" lon="-105.2297889">
  <ele>1583.08</ele>
  <time>2026-08-28T17:50:46Z</time>
  <course>247.01</course>
  <speed>0.022360679774997897</speed>
  <fix>3d</fix>
</trkpt>
<trkpt lat="40.0713749" lon="-105.229789">
  <ele>1583.0</ele>
  <time>2026-08-28T17:50:46Z</time>
  <course>0.0</course>
  <speed>0.0</speed>
  <fix>3d</fix>
</trkpt>
<trkpt lat="40.0713751" lon="-105.2297889">
  <ele>1583.08</ele>
  <time>2026-08-28T17:50:46Z</time>
  <course>247.01</course>
  <speed>0.022360679774997897</speed>
  <fix>3d</fix>
</trkpt>
<trkpt lat="40.0713749" lon="-105.229789">
  <ele>1583.0</ele>
  <time>2026-08-28T17:50:46Z</time>
  <course>0.0</course>
  <speed>0.0</speed>
  <fix>3d</fix>
</trkpt>
<trkpt lat="40.071375" lon="-105.2297889">
  <ele>1583.08</ele>
  <time>2026-08-28T17:50:46Z</time>
  <course>247.01</course>
  <speed>0.022360679774997897</speed>
  <fix>3d</fix>
</trkpt>
<trkpt lat="40.0713749" lon="-105.229789">
  <ele>1583.0</ele>
  <time>2026-08-28T17:50:46Z</time>
  <course>0.0</course>
  <speed>0.0</speed>
  <fix>3d</fix>
</trkpt>
<trkpt lat="40.0713751" lon="-105.2297889">
  <ele>1583.08</ele>
  <time>2026-08-28T17:50:46Z</time>
  <course>247.01</course>
  <speed>0.022360679774997897</speed>
  <fix>3d</fix>
</trkpt>
<trkpt lat="40.0713749" lon="-105.229789">
  <ele>1583.0</ele>
  <time>2026-08-28T17:50:46Z</time>
  <course>0.0</course>
  <speed>0.0</speed>
  <fix>3d</fix>
</trkpt>
<trkpt lat="40.071375" lon="-105.2297889">
  <ele>1583.09</ele>
  <time>2026-08-28T17:50:46Z</time>
  <course>247.01</course>
  <speed>0.022360679774997897</speed>
  <fix>3d</fix>
</trkpt>
<trkpt lat="40.0713749" lon="-105.229789">
  <ele>1583.0</ele>
  <time>2026-08-28T17:50:46Z</time>
  <course>0.0</course>
  <speed>0.0</speed>
  <fix>3d</fix>
</trkpt>
<trkpt lat="40.0713751" lon="-105.2297889">
  <ele>1583.09</ele>
  <time>2026-08-28T17:50:46Z</time>
  <course>247.01</course>
  <speed>0.022360679774997897</speed>
  <fix>3d</fix>
</trkpt>
<trkpt lat="40.0713749" lon="-105.229789">
  <ele>1583.0</ele>
  <time>2026-08-28T17:50:46Z</time>
  <course>0.0</course>
  <speed>0.0</speed>
  <fix>3d</fix>
</trkpt>
<trkpt lat="40.0713751" lon="-105.2297889">
  <ele>1583.09</ele>
  <time>2026-08-28T17:50:46Z</time>
  <course>247.01</course>
  <speed>0.022360679774997897</speed>
  <fix>3d</fix>
</trkpt>
<trkpt lat="40.0713749" lon="-105.229789">
  <ele>1583.0</ele>
  <time>2026-08-28T17:50:46Z</time>
  <course>0.0</course>
  <speed>0.0</speed>
  <fix>3d</fix>
</trkpt>
<trkpt lat="40.0713751" lon="-105.2297889">
  <ele>1583.08</ele>
  <time>2026-08-28T17:50:46Z</time>
  <course>247.01</course>
  <speed>0.022360679774997897</speed>
  <fix>3d</fix>
</trkpt>
<trkpt lat="40.0713749" lon="-105.229789">
  <ele>1583.0</ele>
  <time>2026-08-28T17:50:46Z</time>
  <course>0.0</course>
  <speed>0.0</speed>
  <fix>3d</fix>
</trkpt>
<trkpt lat="40.0713751" lon="-105.2297889">
  <ele>1583.08</ele>
  <time>2026-08-28T17:50:46Z</time>
  <course>247.01</course>
  <speed>0.022360679774997897</speed>
  <fix>3d</fix>
</trkpt>
<trkpt lat="40.0713749" lon="-105.229789">
  <ele>1583.0</ele>
  <time>2026-08-28T17:50:46Z</time>
  <course>0.0</course>
  <speed>0.0</speed>
  <fix>3d</fix>
</trkpt>
<trkpt lat="40.0713751" lon="-105.2297889">
  <ele>1583.07</ele>
  <time>2026-08-28T17:50:46Z</time>
  <course>247.01</course>
  <speed>0.022360679774997897</speed>
  <fix>3d</fix>
</trkpt>
<trkpt lat="40.0713749" lon="-105.229789">
  <ele>1583.0</ele>
  <time>2026-08-28T17:50:46Z</time>
  <course>0.0</course>
  <speed>0.0</speed>
  <fix>3d</fix>
</trkpt>
<trkpt lat="40.0713751" lon="-105.2297889">
  <ele>1583.06</ele>
  <time>2026-08-28T17:50:46Z</time>
  <course>247.01</course>
  <speed>0.022360679774997897</speed>
  <fix>3d</fix>
</trkpt>
<trkpt lat="40.0713749" lon="-105.229789">
  <ele>1583.0</ele>
  <time>2026-08-28T17:50:46Z</time>
  <course>0.0</course>
  <speed>0.0</speed>
  <fix>3d</fix>
</trkpt>
<trkpt lat="40.0713751" lon="-105.2297889">
  <ele>1583.06</ele>
  <time>2026-08-28T17:50:46Z</time>
  <course>247.01</course>
  <speed>0.022360679774997897</speed>
  <fix>3d</fix>
</trkpt>
<trkpt lat="40.0713749" lon="-105.229789">
  <ele>1583.0</ele>
  <time>2026-08-28T17:50:46Z</time>
  <course>0.0</course>
  <speed>0.0</speed>
  <fix>3d</fix>
</trkpt>
<trkpt lat="40.071375" lon="-105.2297889">
  <ele>1583.06</ele>
  <time>2026-08-28T17:50:46Z</time>
  <course>247.01</course>
  <speed>0.022360679774997897</speed>
  <fix>3d</fix>
</trkpt>
<trkpt lat="40.0713749" lon="-105.229789">
  <ele>1583.0</ele>
  <time>2026-08-28T17:50:46Z</time>
  <course>0.0</course>
  <speed>0.0</speed>
  <fix>3d</fix>
</trkpt>
<trkpt lat="40.0713751" lon="-105.2297889">
  <ele>1583.05</ele>
  <time>2026-08-28T17:50:46Z</time>
  <course>247.01</course>
  <speed>0.022360679774997897</speed>
  <fix>3d</fix>
</trkpt>
<trkpt lat="40.0713749" lon="-105.229789">
  <ele>1583.0</ele>
  <time>2026-08-28T17:50:46Z</time>
  <course>0.0</course>
  <speed>0.0</speed>
  <fix>3d</fix>
</trkpt>
<trkpt lat="40.071375" lon="-105.2297889">
  <ele>1583.05</ele>
  <time>2026-08-28T17:50:46Z</time>
  <course>247.01</course>
  <speed>0.022360679774997897</speed>
  <fix>3d</fix>
</trkpt>
<trkpt lat="40.0713749" lon="-105.229789">
  <ele>1583.0</ele>
  <time>2026-08-28T17:50:46Z</time>
  <course>0.0</course>
  <speed>0.0</speed>
  <fix>3d</fix>
</trkpt>
<trkpt lat="40.071375" lon="-105.2297889">
  <ele>1583.05</ele>
  <time>2026-08-28T17:50:46Z</time>
  <course>247.01</course>
  <speed>0.022360679774997897</speed>
  <fix>3d</fix>
</trkpt>
<trkpt lat="40.0713749" lon="-105.229789">
  <ele>1583.0</ele>
  <time>2026-08-28T17:50:46Z</time>
  <course>0.0</course>
  <speed>0.0</speed>
  <fix>3d</fix>
</trkpt>
<trkpt lat="40.071375" lon="-105.2297889">
  <ele>1583.05</ele>
  <time>2026-08-28T17:50:46Z</time>
  <course>247.01</course>
  <speed>0.022360679774997897</speed>
  <fix>3d</fix>
</trkpt>
<trkpt lat="40.0713749" lon="-105.229789">
  <ele>1583.0</ele>
  <time>2026-08-28T17:50:46Z</time>
  <course>0.0</course>
  <speed>0.0</speed>
  <fix>3d</fix>
</trkpt>
<trkpt lat="40.071375" lon="-105.2297889">
  <ele>1583.05</ele>
  <time>2026-08-28T17:50:46Z</time>
  <course>247.01</course>
  <speed>0.022360679774997897</speed>
  <fix>3d</fix>
</trkpt>
<trkpt lat="40.0713749" lon="-105.229789">
  <ele>1583.0</ele>
  <time>2026-08-28T17:50:46Z</time>
  <course>0.0</course>
  <speed>0.0</speed>
  <fix>3d</fix>
</trkpt>
<trkpt lat="40.071375" lon="-105.2297889">
  <ele>1583.06</ele>
  <time>2026-08-28T17:50:46Z</time>
  <course>247.01</course>
  <speed>0.022360679774997897</speed>
  <fix>3d</fix>
</trkpt>
<trkpt lat="40.0713749" lon="-105.229789">
  <ele>1583.0</ele>
  <time>2026-08-28T17:50:46Z</time>
  <course>0.0</course>
  <speed>0.0</speed>
  <fix>3d</fix>
</trkpt>
<trkpt lat="40.0713751" lon="-105.2297889">
  <ele>1583.06</ele>
  <time>2026-08-28T17:50:46Z</time>
  <course>247.01</course>
  <speed>0.022360679774997897</speed>
  <fix>3d</fix>
</trkpt>
<trkpt lat="40.0713749" lon="-105.229789">
  <ele>1583.0</ele>
  <time>2026-08-28T17:50:46Z</time>
  <course>0.0</course>
  <speed>0.0</speed>
  <fix>3d</fix>
</trkpt>
<trkpt lat="40.071375" lon="-105.2297889">
  <ele>1583.06</ele>
  <time>2026-08-28T17:50:46Z</time>
  <course>247.01</course>
  <speed>0.022360679774997897</speed>
  <fix>3d</fix>
</trkpt>
<trkpt lat="40.0713749" lon="-105.229789">
  <ele>1583.0</ele>
  <time>2026-08-28T17:50:46Z</time>
  <course>0.0</course>
  <speed>0.0</speed>
  <fix>3d</fix>
</trkpt>
<trkpt lat="40.0713751" lon="-105.2297889">
  <ele>1583.06</ele>
  <time>2026-08-28T17:50:46Z</time>
  <course>247.01</course>
  <speed>0.022360679774997897</speed>
  <fix>3d</fix>
</trkpt>
<trkpt lat="40.0713749" lon="-105.229789">
  <ele>1583.0</ele>
  <time>2026-08-28T17:50:46Z</time>
  <course>0.0</course>
  <speed>0.0</speed>
  <fix>3d</fix>
</trkpt>
<trkpt lat="40.071375" lon="-105.2297889">
  <ele>1583.07</ele>
  <time>2026-08-28T17:50:46Z</time>
  <course>247.01</course>
  <speed>0.022360679774997897</speed>
  <fix>3d</fix>
</trkpt>
<trkpt lat="40.0713749" lon="-105.229789">
  <ele>1583.0</ele>
  <time>2026-08-28T17:50:46Z</time>
  <course>0.0</course>
  <speed>0.0</speed>
  <fix>3d</fix>
</trkpt>
<trkpt lat="40.0713751" lon="-105.2297889">
  <ele>1583.07</ele>
  <time>2026-08-28T17:50:46Z</time>
  <course>247.01</course>
  <speed>0.022360679774997897</speed>
  <fix>3d</fix>
</trkpt>
<trkpt lat="40.0713749" lon="-105.229789">
  <ele>1583.0</ele>
  <time>2026-08-28T17:50:46Z</time>
  <course>0.0</course>
  <speed>0.0</speed>
  <fix>3d</fix>
</trkpt>
<trkpt lat="40.071375" lon="-105.2297889">
  <ele>1583.07</ele>
  <time>2026-08-28T17:50:46Z</time>
  <course>247.01</course>
  <speed>0.022360679774997897</speed>
  <fix>3d</fix>
</trkpt>
<trkpt lat="40.0713749" lon="-105.229789">
  <ele>1583.0</ele>
  <time>2026-08-28T17:50:46Z</time>
  <course>0.0</course>
  <speed>0.0</speed>
  <fix>3d</fix>
</trkpt>
<trkpt lat="40.0713751" lon="-105.2297889">
  <ele>1583.08</ele>
  <time>2026-08-28T17:50:46Z</time>
  <course>247.01</course>
  <speed>0.022360679774997897</speed>
  <fix>3d</fix>
</trkpt>
<trkpt lat="40.0713749" lon="-105.229789">
  <ele>1583.0</ele>
  <time>2026-08-28T17:50:46Z</time>
  <course>0.0</course>
  <speed>0.0</speed>
  <fix>3d</fix>
</trkpt>
<trkpt lat="40.0713751" lon="-105.2297889">
  <ele>1583.09</ele>
  <time>2026-08-28T17:50:46Z</time>
  <course>247.01</course>
  <speed>0.022360679774997897</speed>
  <fix>3d</fix>
</trkpt>
<trkpt lat="40.0713749" lon="-105.229789">
  <ele>1583.0</ele>
  <time>2026-08-28T17:50:46Z</time>
  <course>0.0</course>
  <speed>0.0</speed>
  <fix>3d</fix>
</trkpt>
<trkpt lat="40.0713751" lon="-105.2297889">
  <ele>1583.09</ele>
  <time>2026-08-28T17:50:46Z</time>
  <course>247.01</course>
  <speed>0.022360679774997897</speed>
  <fix>3d</fix>
</trkpt>
<trkpt lat="40.0713749" lon="-105.229789">
  <ele>1583.0</ele>
  <time>2026-08-28T17:50:46Z</time>
  <course>0.0</course>
  <speed>0.0</speed>
  <fix>3d</fix>
</trkpt>
<trkpt lat="40.0713751" lon="-105.2297889">
  <ele>1583.09</ele>
  <time>2026-08-28T17:50:46Z</time>
  <course>247.01</course>
  <speed>0.022360679774997897</speed>
  <fix>3d</fix>
</trkpt>
<trkpt lat="40.0713749" lon="-105.229789">
  <ele>1583.0</ele>
  <time>2026-08-28T17:50:46Z</time>
  <course>0.0</course>
  <speed>0.0</speed>
  <fix>3d</fix>
</trkpt>
<trkpt lat="40.0713751" lon="-105.2297889">
  <ele>1583.1</ele>
  <time>2026-08-28T17:50:46Z</time>
  <course>247.01</course>
  <speed>0.022360679774997897</speed>
  <fix>3d</fix>
</trkpt>
<trkpt lat="40.0713749" lon="-105.229789">
  <ele>1583.0</ele>
  <time>2026-08-28T17:50:46Z</time>
  <course>0.0</course>
  <speed>0.0</speed>
  <fix>3d</fix>
</trkpt>
<trkpt lat="40.0713751" lon="-105.2297889">
  <ele>1583.1</ele>
  <time>2026-08-28T17:50:46Z</time>
  <course>247.01</course>
  <speed>0.022360679774997897</speed>
  <fix>3d</fix>
</trkpt>
<trkpt lat="40.0713749" lon="-105.229789">
  <ele>1583.0</ele>
  <time>2026-08-28T17:50:46Z</time>
  <course>0.0</course>
  <speed>0.0</speed>
  <fix>3d</fix>
</trkpt>
<trkpt lat="40.0713751" lon="-105.2297889">
  <ele>1583.1</ele>
  <time>2026-08-28T17:50:46Z</time>
  <course>247.01</course>
  <speed>0.022360679774997897</speed>
  <fix>3d</fix>
</trkpt>
<trkpt lat="40.0713749" lon="-105.229789">
  <ele>1583.0</ele>
  <time>2026-08-28T17:50:46Z</time>
  <course>0.0</course>
  <speed>0.0</speed>
  <fix>3d</fix>
</trkpt>
<trkpt lat="40.071375" lon="-105.2297889">
  <ele>1583.1</ele>
  <time>2026-08-28T17:50:46Z</time>
  <course>247.01</course>
  <speed>0.022360679774997897</speed>
  <fix>3d</fix>
</trkpt>
<trkpt lat="40.0713749" lon="-105.229789">
  <ele>1583.0</ele>
  <time>2026-08-28T17:50:46Z</time>
  <course>0.0</course>
  <speed>0.0</speed>
  <fix>3d</fix>
</trkpt>
<trkpt lat="40.0713751" lon="-105.2297889">
  <ele>1583.1</ele>
  <time>2026-08-28T17:50:47Z</time>
  <course>247.01</course>
  <speed>0.022360679774997897</speed>
  <fix>3d</fix>
</trkpt>
<trkpt lat="40.0713749" lon="-105.229789">
  <ele>1583.0</ele>
  <time>2026-08-28T17:50:47Z</time>
  <course>0.0</course>
  <speed>0.0</speed>
  <fix>3d</fix>
</trkpt>
<trkpt lat="40.071375" lon="-105.2297889">
  <ele>1583.1</ele>
  <time>2026-08-28T17:50:47Z</time>
  <course>247.01</course>
  <speed>0.022360679774997897</speed>
  <fix>3d</fix>
</trkpt>
<trkpt lat="40.0713749" lon="-105.229789">
  <ele>1583.0</ele>
  <time>2026-08-28T17:50:47Z</time>
  <course>0.0</course>
  <speed>0.0</speed>
  <fix>3d</fix>
</trkpt>
<trkpt lat="40.0713751" lon="-105.2297889">
  <ele>1583.1</ele>
  <time>2026-08-28T17:50:47Z</time>
  <course>247.01</course>
  <speed>0.022360679774997897</speed>
  <fix>3d</fix>
</trkpt>
<trkpt lat="40.0713749" lon="-105.229789">
  <ele>1583.0</ele>
  <time>2026-08-28T17:50:47Z</time>
  <course>0.0</course>
  <speed>0.0</speed>
  <fix>3d</fix>
</trkpt>
<trkpt lat="40.071375" lon="-105.2297889">
  <ele>1583.11</ele>
  <time>2026-08-28T17:50:47Z</time>
  <course>247.01</course>
  <speed>0.022360679774997897</speed>
  <fix>3d</fix>
</trkpt>
<trkpt lat="40.0713749" lon="-105.229789">
  <ele>1583.0</ele>
  <time>2026-08-28T17:50:47Z</time>
  <course>0.0</course>
  <speed>0.0</speed>
  <fix>3d</fix>
</trkpt>
<trkpt lat="40.0713751" lon="-105.2297889">
  <ele>1583.11</ele>
  <time>2026-08-28T17:50:47Z</time>
  <course>247.01</course>
  <speed>0.022360679774997897</speed>
  <fix>3d</fix>
</trkpt>
<trkpt lat="40.0713749" lon="-105.229789">
  <ele>1583.0</ele>
  <time>2026-08-28T17:50:47Z</time>
  <course>0.0</course>
  <speed>0.0</speed>
  <fix>3d</fix>
</trkpt>
<trkpt lat="40.071375" lon="-105.2297889">
  <ele>1583.11</ele>
  <time>2026-08-28T17:50:47Z</time>
  <course>247.01</course>
  <speed>0.022360679774997897</speed>
  <fix>3d</fix>
</trkpt>
<trkpt lat="40.0713749" lon="-105.229789">
  <ele>1583.0</ele>
  <time>2026-08-28T17:50:47Z</time>
  <course>0.0</course>
  <speed>0.0</speed>
  <fix>3d</fix>
</trkpt>
<trkpt lat="40.0713751" lon="-105.2297889">
  <ele>1583.11</ele>
  <time>2026-08-28T17:50:47Z</time>
  <course>247.01</course>
  <speed>0.022360679774997897</speed>
  <fix>3d</fix>
</trkpt>
<trkpt lat="40.0713749" lon="-105.229789">
  <ele>1583.0</ele>
  <time>2026-08-28T17:50:47Z</time>
  <course>0.0</course>
  <speed>0.0</speed>
  <fix>3d</fix>
</trkpt>
<trkpt lat="40.071375" lon="-105.2297889">
  <ele>1583.11</ele>
  <time>2026-08-28T17:50:47Z</time>
  <course>247.01</course>
  <speed>0.022360679774997897</speed>
  <fix>3d</fix>
</trkpt>
<trkpt lat="40.0713749" lon="-105.229789">
  <ele>1583.0</ele>
  <time>2026-08-28T17:50:47Z</time>
  <course>0.0</course>
  <speed>0.0</speed>
  <fix>3d</fix>
</trkpt>
<trkpt lat="40.0713751" lon="-105.2297889">
  <ele>1583.11</ele>
  <time>2026-08-28T17:50:47Z</time>
  <course>247.01</course>
  <speed>0.022360679774997897</speed>
  <fix>3d</fix>
</trkpt>
<trkpt lat="40.0713749" lon="-105.229789">
  <ele>1583.0</ele>
  <time>2026-08-28T17:50:47Z</time>
  <course>0.0</course>
  <speed>0.0</speed>
  <fix>3d</fix>
</trkpt>
<trkpt lat="40.071375" lon="-105.2297889">
  <ele>1583.1</ele>
  <time>2026-08-28T17:50:47Z</time>
  <course>247.01</course>
  <speed>0.022360679774997897</speed>
  <fix>3d</fix>
</trkpt>
<trkpt lat="40.0713749" lon="-105.229789">
  <ele>1583.0</ele>
  <time>2026-08-28T17:50:47Z</time>
  <course>0.0</course>
  <speed>0.0</speed>
  <fix>3d</fix>
</trkpt>
<trkpt lat="40.0713751" lon="-105.2297889">
  <ele>1583.1</ele>
  <time>2026-08-28T17:50:47Z</time>
  <course>247.01</course>
  <speed>0.022360679774997897</speed>
  <fix>3d</fix>
</trkpt>
<trkpt lat="40.0713749" lon="-105.229789">
  <ele>1583.0</ele>
  <time>2026-08-28T17:50:47Z</time>
  <course>0.0</course>
  <speed>0.0</speed>
  <fix>3d</fix>
</trkpt>
<trkpt lat="40.071375" lon="-105.2297889">
  <ele>1583.09</ele>
  <time>2026-08-28T17:50:47Z</time>
  <course>247.01</course>
  <speed>0.022360679774997897</speed>
  <fix>3d</fix>
</trkpt>
<trkpt lat="40.0713749" lon="-105.229789">
  <ele>1583.0</ele>
  <time>2026-08-28T17:50:47Z</time>
  <course>0.0</course>
  <speed>0.0</speed>
  <fix>3d</fix>
</trkpt>
<trkpt lat="40.0713751" lon="-105.2297889">
  <ele>1583.08</ele>
  <time>2026-08-28T17:50:47Z</time>
  <course>247.01</course>
  <speed>0.022360679774997897</speed>
  <fix>3d</fix>
</trkpt>
<trkpt lat="40.0713749" lon="-105.229789">
  <ele>1583.0</ele>
  <time>2026-08-28T17:50:47Z</time>
  <course>0.0</course>
  <speed>0.0</speed>
  <fix>3d</fix>
</trkpt>
<trkpt lat="40.0713751" lon="-105.2297889">
  <ele>1583.08</ele>
  <time>2026-08-28T17:50:47Z</time>
  <course>247.01</course>
  <speed>0.022360679774997897</speed>
  <fix>3d</fix>
</trkpt>
<trkpt lat="40.0713749" lon="-105.229789">
  <ele>1583.0</ele>
  <time>2026-08-28T17:50:47Z</time>
  <course>0.0</course>
  <speed>0.0</speed>
  <fix>3d</fix>
</trkpt>
<trkpt lat="40.0713751" lon="-105.2297889">
  <ele>1583.07</ele>
  <time>2026-08-28T17:50:47Z</time>
  <course>247.01</course>
  <speed>0.022360679774997897</speed>
  <fix>3d</fix>
</trkpt>
<trkpt lat="40.0713749" lon="-105.229789">
  <ele>1583.0</ele>
  <time>2026-08-28T17:50:47Z</time>
  <course>0.0</course>
  <speed>0.0</speed>
  <fix>3d</fix>
</trkpt>
<trkpt lat="40.0713751" lon="-105.2297889">
  <ele>1583.06</ele>
  <time>2026-08-28T17:50:47Z</time>
  <course>247.01</course>
  <speed>0.022360679774997897</speed>
  <fix>3d</fix>
</trkpt>
<trkpt lat="40.0713749" lon="-105.229789">
  <ele>1583.0</ele>
  <time>2026-08-28T17:50:47Z</time>
  <course>0.0</course>
  <speed>0.0</speed>
  <fix>3d</fix>
</trkpt>
<trkpt lat="40.0713751" lon="-105.2297889">
  <ele>1583.05</ele>
  <time>2026-08-28T17:50:47Z</time>
  <course>247.01</course>
  <speed>0.022360679774997897</speed>
  <fix>3d</fix>
</trkpt>
<trkpt lat="40.0713749" lon="-105.229789">
  <ele>1583.0</ele>
  <time>2026-08-28T17:50:47Z</time>
  <course>0.0</course>
  <speed>0.0</speed>
  <fix>3d</fix>
</trkpt>
<trkpt lat="40.0713751" lon="-105.2297889">
  <ele>1583.04</ele>
  <time>2026-08-28T17:50:47Z</time>
  <course>247.01</course>
  <speed>0.022360679774997897</speed>
  <fix>3d</fix>
</trkpt>
<trkpt lat="40.0713749" lon="-105.229789">
  <ele>1583.0</ele>
  <time>2026-08-28T17:50:47Z</time>
  <course>0.0</course>
  <speed>0.0</speed>
  <fix>3d</fix>
</trkpt>
<trkpt lat="40.0713751" lon="-105.2297889">
  <ele>1583.04</ele>
  <time>2026-08-28T17:50:47Z</time>
  <course>247.01</course>
  <speed>0.022360679774997897</speed>
  <fix>3d</fix>
</trkpt>
<trkpt lat="40.0713749" lon="-105.229789">
  <ele>1583.0</ele>
  <time>2026-08-28T17:50:47Z</time>
  <course>0.0</course>
  <speed>0.0</speed>
  <fix>3d</fix>
</trkpt>
<trkpt lat="40.0713751" lon="-105.2297889">
  <ele>1583.03</ele>
  <time>2026-08-28T17:50:47Z</time>
  <course>247.01</course>
  <speed>0.022360679774997897</speed>
  <fix>3d</fix>
</trkpt>
<trkpt lat="40.0713749" lon="-105.229789">
  <ele>1583.0</ele>
  <time>2026-08-28T17:50:47Z</time>
  <course>0.0</course>
  <speed>0.0</speed>
  <fix>3d</fix>
</trkpt>
<trkpt lat="40.0713751" lon="-105.2297889">
  <ele>1583.03</ele>
  <time>2026-08-28T17:50:47Z</time>
  <course>247.01</course>
  <speed>0.022360679774997897</speed>
  <fix>3d</fix>
</trkpt>
<trkpt lat="40.0713749" lon="-105.229789">
  <ele>1583.0</ele>
  <time>2026-08-28T17:50:47Z</time>
  <course>0.0</course>
  <speed>0.0</speed>
  <fix>3d</fix>
</trkpt>
<trkpt lat="40.071375" lon="-105.2297889">
  <ele>1583.04</ele>
  <time>2026-08-28T17:50:47Z</time>
  <course>247.01</course>
  <speed>0.022360679774997897</speed>
  <fix>3d</fix>
</trkpt>
<trkpt lat="40.0713749" lon="-105.229789">
  <ele>1583.0</ele>
  <time>2026-08-28T17:50:47Z</time>
  <course>0.0</course>
  <speed>0.0</speed>
  <fix>3d</fix>
</trkpt>
<trkpt lat="40.0713751" lon="-105.2297889">
  <ele>1583.04</ele>
  <time>2026-08-28T17:50:47Z</time>
  <course>247.01</course>
  <speed>0.022360679774997897</speed>
  <fix>3d</fix>
</trkpt>
<trkpt lat="40.0713749" lon="-105.229789">
  <ele>1583.0</ele>
  <time>2026-08-28T17:50:47Z</time>
  <course>0.0</course>
  <speed>0.0</speed>
  <fix>3d</fix>
</trkpt>
<trkpt lat="40.071375" lon="-105.2297889">
  <ele>1583.04</ele>
  <time>2026-08-28T17:50:47Z</time>
  <course>247.01</course>
  <speed>0.022360679774997897</speed>
  <fix>3d</fix>
</trkpt>
<trkpt lat="40.0713749" lon="-105.229789">
  <ele>1583.0</ele>
  <time>2026-08-28T17:50:47Z</time>
  <course>0.0</course>
  <speed>0.0</speed>
  <fix>3d</fix>
</trkpt>
<trkpt lat="40.0713751" lon="-105.2297889">
  <ele>1583.04</ele>
  <time>2026-08-28T17:50:47Z</time>
  <course>247.01</course>
  <speed>0.022360679774997897</speed>
  <fix>3d</fix>
</trkpt>
<trkpt lat="40.0713749" lon="-105.229789">
  <ele>1583.0</ele>
  <time>2026-08-28T17:50:47Z</time>
  <course>0.0</course>
  <speed>0.0</speed>
  <fix>3d</fix>
</trkpt>
<trkpt lat="40.071375" lon="-105.2297889">
  <ele>1583.04</ele>
  <time>2026-08-28T17:50:47Z</time>
  <course>247.01</course>
  <speed>0.022360679774997897</speed>
  <fix>3d</fix>
</trkpt>
<trkpt lat="40.0713749" lon="-105.229789">
  <ele>1583.0</ele>
  <time>2026-08-28T17:50:47Z</time>
  <course>0.0</course>
  <speed>0.0</speed>
  <fix>3d</fix>
</trkpt>
<trkpt lat="40.0713751" lon="-105.2297889">
  <ele>1583.05</ele>
  <time>2026-08-28T17:50:47Z</time>
  <course>247.01</course>
  <speed>0.022360679774997897</speed>
  <fix>3d</fix>
</trkpt>
<trkpt lat="40.0713749" lon="-105.229789">
  <ele>1583.0</ele>
  <time>2026-08-28T17:50:47Z</time>
  <course>0.0</course>
  <speed>0.0</speed>
  <fix>3d</fix>
</trkpt>
<trkpt lat="40.071375" lon="-105.2297889">
  <ele>1583.05</ele>
  <time>2026-08-28T17:50:47Z</time>
  <course>247.01</course>
  <speed>0.022360679774997897</speed>
  <fix>3d</fix>
</trkpt>
<trkpt lat="40.0713749" lon="-105.229789">
  <ele>1583.0</ele>
  <time>2026-08-28T17:50:47Z</time>
  <course>0.0</course>
  <speed>0.0</speed>
  <fix>3d</fix>
</trkpt>
<trkpt lat="40.0713751" lon="-105.2297889">
  <ele>1583.05</ele>
  <time>2026-08-28T17:50:47Z</time>
  <course>247.01</course>
  <speed>0.022360679774997897</speed>
  <fix>3d</fix>
</trkpt>
<trkpt lat="40.0713749" lon="-105.229789">
  <ele>1583.0</ele>
  <time>2026-08-28T17:50:47Z</time>
  <course>0.0</course>
  <speed>0.0</speed>
  <fix>3d</fix>
</trkpt>
<trkpt lat="40.071375" lon="-105.2297889">
  <ele>1583.05</ele>
  <time>2026-08-28T17:50:47Z</time>
  <course>247.01</course>
  <speed>0.022360679774997897</speed>
  <fix>3d</fix>
</trkpt>
<trkpt lat="40.0713749" lon="-105.229789">
  <ele>1583.0</ele>
  <time>2026-08-28T17:50:47Z</time>
  <course>0.0</course>
  <speed>0.0</speed>
  <fix>3d</fix>
</trkpt>
<trkpt lat="40.0713751" lon="-105.2297889">
  <ele>1583.05</ele>
  <time>2026-08-28T17:50:47Z</time>
  <course>247.01</course>
  <speed>0.022360679774997897</speed>
  <fix>3d</fix>
</trkpt>
<trkpt lat="40.0713749" lon="-105.229789">
  <ele>1583.0</ele>
  <time>2026-08-28T17:50:47Z</time>
  <course>0.0</course>
  <speed>0.0</speed>
  <fix>3d</fix>
</trkpt>
<trkpt lat="40.071375" lon="-105.2297889">
  <ele>1583.06</ele>
  <time>2026-08-28T17:50:47Z</time>
  <course>247.01</course>
  <speed>0.022360679774997897</speed>
  <fix>3d</fix>
</trkpt>
<trkpt lat="40.0713749" lon="-105.229789">
  <ele>1583.0</ele>
  <time>2026-08-28T17:50:47Z</time>
  <course>0.0</course>
  <speed>0.0</speed>
  <fix>3d</fix>
</trkpt>
<trkpt lat="40.0713751" lon="-105.2297889">
  <ele>1583.06</ele>
  <time>2026-08-28T17:50:47Z</time>
  <course>247.01</course>
  <speed>0.022360679774997897</speed>
  <fix>3d</fix>
</trkpt>
<trkpt lat="40.0713749" lon="-105.229789">
  <ele>1583.0</ele>
  <time>2026-08-28T17:50:47Z</time>
  <course>0.0</course>
  <speed>0.0</speed>
  <fix>3d</fix>
</trkpt>
<trkpt lat="40.071375" lon="-105.2297889">
  <ele>1583.07</ele>
  <time>2026-08-28T17:50:47Z</time>
  <course>247.01</course>
  <speed>0.022360679774997897</speed>
  <fix>3d</fix>
</trkpt>
<trkpt lat="40.0713749" lon="-105.229789">
  <ele>1583.0</ele>
  <time>2026-08-28T17:50:47Z</time>
  <course>0.0</course>
  <speed>0.0</speed>
  <fix>3d</fix>
</trkpt>
<trkpt lat="40.0713751" lon="-105.2297889">
  <ele>1583.07</ele>
  <time>2026-08-28T17:50:47Z</time>
  <course>247.01</course>
  <speed>0.022360679774997897</speed>
  <fix>3d</fix>
</trkpt>
<trkpt lat="40.0713749" lon="-105.229789">
  <ele>1583.0</ele>
  <time>2026-08-28T17:50:47Z</time>
  <course>0.0</course>
  <speed>0.0</speed>
  <fix>3d</fix>
</trkpt>
<trkpt lat="40.0713751" lon="-105.2297889">
  <ele>1583.08</ele>
  <time>2026-08-28T17:50:47Z</time>
  <course>247.01</course>
  <speed>0.022360679774997897</speed>
  <fix>3d</fix>
</trkpt>
<trkpt lat="40.0713749" lon="-105.229789">
  <ele>1583.0</ele>
  <time>2026-08-28T17:50:47Z</time>
  <course>0.0</course>
  <speed>0.0</speed>
  <fix>3d</fix>
</trkpt>
<trkpt lat="40.0713751" lon="-105.2297889">
  <ele>1583.09</ele>
  <time>2026-08-28T17:50:47Z</time>
  <course>247.01</course>
  <speed>0.022360679774997897</speed>
  <fix>3d</fix>
</trkpt>
<trkpt lat="40.0713749" lon="-105.229789">
  <ele>1583.0</ele>
  <time>2026-08-28T17:50:47Z</time>
  <course>0.0</course>
  <speed>0.0</speed>
  <fix>3d</fix>
</trkpt>
<trkpt lat="40.0713751" lon="-105.2297889">
  <ele>1583.09</ele>
  <time>2026-08-28T17:50:47Z</time>
  <course>247.0</course>
  <speed>0.022360679774997897</speed>
  <fix>3d</fix>
</trkpt>
<trkpt lat="40.0713749" lon="-105.229789">
  <ele>1583.0</ele>
  <time>2026-08-28T17:50:47Z</time>
  <course>0.0</course>
  <speed>0.0</speed>
  <fix>3d</fix>
</trkpt>
<trkpt lat="40.0713751" lon="-105.2297889">
  <ele>1583.09</ele>
  <time>2026-08-28T17:50:47Z</time>
  <course>247.0</course>
  <speed>0.022360679774997897</speed>
  <fix>3d</fix>
</trkpt>
<trkpt lat="40.0713749" lon="-105.229789">
  <ele>1583.0</ele>
  <time>2026-08-28T17:50:47Z</time>
  <course>0.0</course>
  <speed>0.0</speed>
  <fix>3d</fix>
</trkpt>
<trkpt lat="40.0713751" lon="-105.2297889">
  <ele>1583.09</ele>
  <time>2026-08-28T17:50:47Z</time>
  <course>247.0</course>
  <speed>0.022360679774997897</speed>
  <fix>3d</fix>
</trkpt>
<trkpt lat="40.0713749" lon="-105.229789">
  <ele>1583.0</ele>
  <time>2026-08-28T17:50:47Z</time>
  <course>0.0</course>
  <speed>0.0</speed>
  <fix>3d</fix>
</trkpt>
<trkpt lat="40.0713751" lon="-105.2297889">
  <ele>1583.08</ele>
  <time>2026-08-28T17:50:47Z</time>
  <course>247.0</course>
  <speed>0.022360679774997897</speed>
  <fix>3d</fix>
</trkpt>
<trkpt lat="40.0713749" lon="-105.229789">
  <ele>1583.0</ele>
  <time>2026-08-28T17:50:47Z</time>
  <course>0.0</course>
  <speed>0.0</speed>
  <fix>3d</fix>
</trkpt>
<trkpt lat="40.0713751" lon="-105.2297889">
  <ele>1583.08</ele>
  <time>2026-08-28T17:50:47Z</time>
  <course>247.0</course>
  <speed>0.022360679774997897</speed>
  <fix>3d</fix>
</trkpt>
<trkpt lat="40.0713749" lon="-105.229789">
  <ele>1583.0</ele>
  <time>2026-08-28T17:50:47Z</time>
  <course>0.0</course>
  <speed>0.0</speed>
  <fix>3d</fix>
</trkpt>
<trkpt lat="40.0713751" lon="-105.2297889">
  <ele>1583.07</ele>
  <time>2026-08-28T17:50:47Z</time>
  <course>247.0</course>
  <speed>0.022360679774997897</speed>
  <fix>3d</fix>
</trkpt>
<trkpt lat="40.0713749" lon="-105.229789">
  <ele>1583.0</ele>
  <time>2026-08-28T17:50:47Z</time>
  <course>0.0</course>
  <speed>0.0</speed>
  <fix>3d</fix>
</trkpt>
<trkpt lat="40.071375" lon="-105.2297889">
  <ele>1583.06</ele>
  <time>2026-08-28T17:50:47Z</time>
  <course>247.0</course>
  <speed>0.022360679774997897</speed>
  <fix>3d</fix>
</trkpt>
<trkpt lat="40.0713749" lon="-105.229789">
  <ele>1583.0</ele>
  <time>2026-08-28T17:50:47Z</time>
  <course>0.0</course>
  <speed>0.0</speed>
  <fix>3d</fix>
</trkpt>
<trkpt lat="40.0713751" lon="-105.2297889">
  <ele>1583.05</ele>
  <time>2026-08-28T17:50:47Z</time>
  <course>247.0</course>
  <speed>0.022360679774997897</speed>
  <fix>3d</fix>
</trkpt>
<trkpt lat="40.0713749" lon="-105.229789">
  <ele>1583.0</ele>
  <time>2026-08-28T17:50:47Z</time>
  <course>0.0</course>
  <speed>0.0</speed>
  <fix>3d</fix>
</trkpt>
<trkpt lat="40.071375" lon="-105.2297889">
  <ele>1583.04</ele>
  <time>2026-08-28T17:50:47Z</time>
  <course>247.0</course>
  <speed>0.022360679774997897</speed>
  <fix>3d</fix>
</trkpt>
<trkpt lat="40.0713749" lon="-105.229789">
  <ele>1583.0</ele>
  <time>2026-08-28T17:50:47Z</time>
  <course>0.0</course>
  <speed>0.0</speed>
  <fix>3d</fix>
</trkpt>
<trkpt lat="40.0713751" lon="-105.2297889">
  <ele>1583.03</ele>
  <time>2026-08-28T17:50:47Z</time>
  <course>247.0</course>
  <speed>0.022360679774997897</speed>
  <fix>3d</fix>
</trkpt>
<trkpt lat="40.0713749" lon="-105.229789">
  <ele>1583.0</ele>
  <time>2026-08-28T17:50:47Z</time>
  <course>0.0</course>
  <speed>0.0</speed>
  <fix>3d</fix>
</trkpt>
<trkpt lat="40.071375" lon="-105.2297889">
  <ele>1583.02</ele>
  <time>2026-08-28T17:50:47Z</time>
  <course>247.0</course>
  <speed>0.022360679774997897</speed>
  <fix>3d</fix>
</trkpt>
<trkpt lat="40.0713749" lon="-105.229789">
  <ele>1583.0</ele>
  <time>2026-08-28T17:50:47Z</time>
  <course>0.0</course>
  <speed>0.0</speed>
  <fix>3d</fix>
</trkpt>
<trkpt lat="40.0713751" lon="-105.2297889">
  <ele>1583.02</ele>
  <time>2026-08-28T17:50:47Z</time>
  <course>247.0</course>
  <speed>0.022360679774997897</speed>
  <fix>3d</fix>
</trkpt>
<trkpt lat="40.0713749" lon="-105.229789">
  <ele>1583.0</ele>
  <time>2026-08-28T17:50:47Z</time>
  <course>0.0</course>
  <speed>0.0</speed>
  <fix>3d</fix>
</trkpt>
<trkpt lat="40.071375" lon="-105.2297889">
  <ele>1583.02</ele>
  <time>2026-08-28T17:50:47Z</time>
  <course>247.0</course>
  <speed>0.022360679774997897</speed>
  <fix>3d</fix>
</trkpt>
<trkpt lat="40.0713749" lon="-105.229789">
  <ele>1583.0</ele>
  <time>2026-08-28T17:50:47Z</time>
  <course>0.0</course>
  <speed>0.0</speed>
  <fix>3d</fix>
</trkpt>
<trkpt lat="40.0713751" lon="-105.2297889">
  <ele>1583.02</ele>
  <time>2026-08-28T17:50:47Z</time>
  <course>247.0</course>
  <speed>0.022360679774997897</speed>
  <fix>3d</fix>
</trkpt>
<trkpt lat="40.0713749" lon="-105.229789">
  <ele>1583.0</ele>
  <time>2026-08-28T17:50:47Z</time>
  <course>0.0</course>
  <speed>0.0</speed>
  <fix>3d</fix>
</trkpt>
<trkpt lat="40.071375" lon="-105.2297889">
  <ele>1583.02</ele>
  <time>2026-08-28T17:50:47Z</time>
  <course>247.0</course>
  <speed>0.022360679774997897</speed>
  <fix>3d</fix>
</trkpt>
<trkpt lat="40.0713749" lon="-105.229789">
  <ele>1583.0</ele>
  <time>2026-08-28T17:50:47Z</time>
  <course>0.0</course>
  <speed>0.0</speed>
  <fix>3d</fix>
</trkpt>
<trkpt lat="40.0713751" lon="-105.2297889">
  <ele>1583.02</ele>
  <time>2026-08-28T17:50:47Z</time>
  <course>247.0</course>
  <speed>0.022360679774997897</speed>
  <fix>3d</fix>
</trkpt>
<trkpt lat="40.0713749" lon="-105.229789">
  <ele>1583.0</ele>
  <time>2026-08-28T17:50:47Z</time>
  <course>0.0</course>
  <speed>0.0</speed>
  <fix>3d</fix>
</trkpt>
<trkpt lat="40.071375" lon="-105.2297889">
  <ele>1583.02</ele>
  <time>2026-08-28T17:50:47Z</time>
  <course>247.0</course>
  <speed>0.022360679774997897</speed>
  <fix>3d</fix>
</trkpt>
<trkpt lat="40.0713749" lon="-105.229789">
  <ele>1583.0</ele>
  <time>2026-08-28T17:50:47Z</time>
  <course>0.0</course>
  <speed>0.0</speed>
  <fix>3d</fix>
</trkpt>
<trkpt lat="40.0713751" lon="-105.2297889">
  <ele>1583.02</ele>
  <time>2026-08-28T17:50:47Z</time>
  <course>247.0</course>
  <speed>0.022360679774997897</speed>
  <fix>3d</fix>
</trkpt>
<trkpt lat="40.0713749" lon="-105.229789">
  <ele>1583.0</ele>
  <time>2026-08-28T17:50:47Z</time>
  <course>0.0</course>
  <speed>0.0</speed>
  <fix>3d</fix>
</trkpt>
<trkpt lat="40.0713751" lon="-105.2297889">
  <ele>1583.02</ele>
  <time>2026-08-28T17:50:47Z</time>
  <course>247.0</course>
  <speed>0.022360679774997897</speed>
  <fix>3d</fix>
</trkpt>
<trkpt lat="40.0713749" lon="-105.229789">
  <ele>1583.0</ele>
  <time>2026-08-28T17:50:47Z</time>
  <course>0.0</course>
  <speed>0.0</speed>
  <fix>3d</fix>
</trkpt>
<trkpt lat="40.0713751" lon="-105.2297889">
  <ele>1583.03</ele>
  <time>2026-08-28T17:50:47Z</time>
  <course>247.0</course>
  <speed>0.022360679774997897</speed>
  <fix>3d</fix>
</trkpt>
<trkpt lat="40.0713749" lon="-105.229789">
  <ele>1583.0</ele>
  <time>2026-08-28T17:50:47Z</time>
  <course>0.0</course>
  <speed>0.0</speed>
  <fix>3d</fix>
</trkpt>
<trkpt lat="40.0713751" lon="-105.2297889">
  <ele>1583.03</ele>
  <time>2026-08-28T17:50:47Z</time>
  <course>247.0</course>
  <speed>0.022360679774997897</speed>
  <fix>3d</fix>
</trkpt>
<trkpt lat="40.0713749" lon="-105.229789">
  <ele>1583.0</ele>
  <time>2026-08-28T17:50:47Z</time>
  <course>0.0</course>
  <speed>0.0</speed>
  <fix>3d</fix>
</trkpt>
<trkpt lat="40.0713751" lon="-105.2297889">
  <ele>1583.03</ele>
  <time>2026-08-28T17:50:47Z</time>
  <course>247.0</course>
  <speed>0.022360679774997897</speed>
  <fix>3d</fix>
</trkpt>
<trkpt lat="40.0713749" lon="-105.229789">
  <ele>1583.0</ele>
  <time>2026-08-28T17:50:47Z</time>
  <course>0.0</course>
  <speed>0.0</speed>
  <fix>3d</fix>
</trkpt>
<trkpt lat="40.0713751" lon="-105.2297889">
  <ele>1583.02</ele>
  <time>2026-08-28T17:50:47Z</time>
  <course>247.0</course>
  <speed>0.022360679774997897</speed>
  <fix>3d</fix>
</trkpt>
<trkpt lat="40.0713749" lon="-105.229789">
  <ele>1583.0</ele>
  <time>2026-08-28T17:50:47Z</time>
  <course>0.0</course>
  <speed>0.0</speed>
  <fix>3d</fix>
</trkpt>
<trkpt lat="40.0713751" lon="-105.2297889">
  <ele>1583.01</ele>
  <time>2026-08-28T17:50:47Z</time>
  <course>247.0</course>
  <speed>0.022360679774997897</speed>
  <fix>3d</fix>
</trkpt>
<trkpt lat="40.0713749" lon="-105.229789">
  <ele>1583.0</ele>
  <time>2026-08-28T17:50:47Z</time>
  <course>0.0</course>
  <speed>0.0</speed>
  <fix>3d</fix>
</trkpt>
<trkpt lat="40.0713751" lon="-105.2297889">
  <ele>1583.0</ele>
  <time>2026-08-28T17:50:47Z</time>
  <course>247.0</course>
  <speed>0.022360679774997897</speed>
  <fix>3d</fix>
</trkpt>
<trkpt lat="40.0713749" lon="-105.229789">
  <ele>1583.0</ele>
  <time>2026-08-28T17:50:47Z</time>
  <course>0.0</course>
  <speed>0.0</speed>
  <fix>3d</fix>
</trkpt>
<trkpt lat="40.0713751" lon="-105.2297889">
  <ele>1582.99</ele>
  <time>2026-08-28T17:50:47Z</time>
  <course>247.0</course>
  <speed>0.022360679774997897</speed>
  <fix>3d</fix>
</trkpt>
<trkpt lat="40.0713749" lon="-105.229789">
  <ele>1583.0</ele>
  <time>2026-08-28T17:50:47Z</time>
  <course>0.0</course>
  <speed>0.0</speed>
  <fix>3d</fix>
</trkpt>
<trkpt lat="40.0713751" lon="-105.2297889">
  <ele>1582.98</ele>
  <time>2026-08-28T17:50:47Z</time>
  <course>247.0</course>
  <speed>0.022360679774997897</speed>
  <fix>3d</fix>
</trkpt>
<trkpt lat="40.0713749" lon="-105.229789">
  <ele>1583.0</ele>
  <time>2026-08-28T17:50:47Z</time>
  <course>0.0</course>
  <speed>0.0</speed>
  <fix>3d</fix>
</trkpt>
<trkpt lat="40.0713751" lon="-105.2297889">
  <ele>1582.97</ele>
  <time>2026-08-28T17:50:47Z</time>
  <course>247.0</course>
  <speed>0.022360679774997897</speed>
  <fix>3d</fix>
</trkpt>
<trkpt lat="40.0713749" lon="-105.229789">
  <ele>1583.0</ele>
  <time>2026-08-28T17:50:47Z</time>
  <course>0.0</course>
  <speed>0.0</speed>
  <fix>3d</fix>
</trkpt>
<trkpt lat="40.071375" lon="-105.2297889">
  <ele>1582.96</ele>
  <time>2026-08-28T17:50:47Z</time>
  <course>247.0</course>
  <speed>0.022360679774997897</speed>
  <fix>3d</fix>
</trkpt>
<trkpt lat="40.0713749" lon="-105.229789">
  <ele>1583.0</ele>
  <time>2026-08-28T17:50:47Z</time>
  <course>0.0</course>
  <speed>0.0</speed>
  <fix>3d</fix>
</trkpt>
<trkpt lat="40.0713751" lon="-105.2297889">
  <ele>1582.95</ele>
  <time>2026-08-28T17:50:47Z</time>
  <course>247.0</course>
  <speed>0.022360679774997897</speed>
  <fix>3d</fix>
</trkpt>
<trkpt lat="40.0713749" lon="-105.229789">
  <ele>1583.0</ele>
  <time>2026-08-28T17:50:47Z</time>
  <course>0.0</course>
  <speed>0.0</speed>
  <fix>3d</fix>
</trkpt>
<trkpt lat="40.071375" lon="-105.2297889">
  <ele>1582.95</ele>
  <time>2026-08-28T17:50:47Z</time>
  <course>247.0</course>
  <speed>0.022360679774997897</speed>
  <fix>3d</fix>
</trkpt>
<trkpt lat="40.0713749" lon="-105.229789">
  <ele>1583.0</ele>
  <time>2026-08-28T17:50:47Z</time>
  <course>0.0</course>
  <speed>0.0</speed>
  <fix>3d</fix>
</trkpt>
<trkpt lat="40.0713751" lon="-105.2297889">
  <ele>1582.94</ele>
  <time>2026-08-28T17:50:47Z</time>
  <course>247.0</course>
  <speed>0.022360679774997897</speed>
  <fix>3d</fix>
</trkpt>
<trkpt lat="40.0713749" lon="-105.229789">
  <ele>1583.0</ele>
  <time>2026-08-28T17:50:47Z</time>
  <course>0.0</course>
  <speed>0.0</speed>
  <fix>3d</fix>
</trkpt>
<trkpt lat="40.071375" lon="-105.2297889">
  <ele>1582.93</ele>
  <time>2026-08-28T17:50:47Z</time>
  <course>247.0</course>
  <speed>0.022360679774997897</speed>
  <fix>3d</fix>
</trkpt>
<trkpt lat="40.0713749" lon="-105.229789">
  <ele>1583.0</ele>
  <time>2026-08-28T17:50:47Z</time>
  <course>0.0</course>
  <speed>0.0</speed>
  <fix>3d</fix>
</trkpt>
<trkpt lat="40.0713751" lon="-105.2297889">
  <ele>1582.93</ele>
  <time>2026-08-28T17:50:47Z</time>
  <course>247.0</course>
  <speed>0.022360679774997897</speed>
  <fix>3d</fix>
</trkpt>
<trkpt lat="40.0713749" lon="-105.229789">
  <ele>1583.0</ele>
  <time>2026-08-28T17:50:47Z</time>
  <course>0.0</course>
  <speed>0.0</speed>
  <fix>3d</fix>
</trkpt>
<trkpt lat="40.071375" lon="-105.2297889">
  <ele>1582.92</ele>
  <time>2026-08-28T17:50:47Z</time>
  <course>247.0</course>
  <speed>0.022360679774997897</speed>
  <fix>3d</fix>
</trkpt>
<trkpt lat="40.0713749" lon="-105.229789">
  <ele>1583.0</ele>
  <time>2026-08-28T17:50:47Z</time>
  <course>0.0</course>
  <speed>0.0</speed>
  <fix>3d</fix>
</trkpt>
<trkpt lat="40.0713751" lon="-105.2297889">
  <ele>1582.92</ele>
  <time>2026-08-28T17:50:47Z</time>
  <course>247.0</course>
  <speed>0.022360679774997897</speed>
  <fix>3d</fix>
</trkpt>
<trkpt lat="40.0713749" lon="-105.229789">
  <ele>1583.0</ele>
  <time>2026-08-28T17:50:47Z</time>
  <course>0.0</course>
  <speed>0.0</speed>
  <fix>3d</fix>
</trkpt>
<trkpt lat="40.071375" lon="-105.2297889">
  <ele>1582.91</ele>
  <time>2026-08-28T17:50:47Z</time>
  <course>247.0</course>
  <speed>0.022360679774997897</speed>
  <fix>3d</fix>
</trkpt>
<trkpt lat="40.0713749" lon="-105.229789">
  <ele>1583.0</ele>
  <time>2026-08-28T17:50:47Z</time>
  <course>0.0</course>
  <speed>0.0</speed>
  <fix>3d</fix>
</trkpt>
<trkpt lat="40.0713751" lon="-105.2297889">
  <ele>1582.9</ele>
  <time>2026-08-28T17:50:47Z</time>
  <course>247.0</course>
  <speed>0.022360679774997897</speed>
  <fix>3d</fix>
</trkpt>
<trkpt lat="40.0713749" lon="-105.229789">
  <ele>1583.0</ele>
  <time>2026-08-28T17:50:47Z</time>
  <course>0.0</course>
  <speed>0.0</speed>
  <fix>3d</fix>
</trkpt>
<trkpt lat="40.071375" lon="-105.2297889">
  <ele>1582.9</ele>
  <time>2026-08-28T17:50:47Z</time>
  <course>247.0</course>
  <speed>0.022360679774997897</speed>
  <fix>3d</fix>
</trkpt>
<trkpt lat="40.0713749" lon="-105.229789">
  <ele>1583.0</ele>
  <time>2026-08-28T17:50:47Z</time>
  <course>0.0</course>
  <speed>0.0</speed>
  <fix>3d</fix>
</trkpt>
<trkpt lat="40.0713751" lon="-105.2297889">
  <ele>1582.89</ele>
  <time>2026-08-28T17:50:47Z</time>
  <course>247.0</course>
  <speed>0.022360679774997897</speed>
  <fix>3d</fix>
</trkpt>
<trkpt lat="40.0713749" lon="-105.229789">
  <ele>1583.0</ele>
  <time>2026-08-28T17:50:47Z</time>
  <course>0.0</course>
  <speed>0.0</speed>
  <fix>3d</fix>
</trkpt>
<trkpt lat="40.0713751" lon="-105.2297889">
  <ele>1582.89</ele>
  <time>2026-08-28T17:50:47Z</time>
  <course>247.0</course>
  <speed>0.022360679774997897</speed>
  <fix>3d</fix>
</trkpt>
<trkpt lat="40.0713749" lon="-105.229789">
  <ele>1583.0</ele>
  <time>2026-08-28T17:50:47Z</time>
  <course>0.0</course>
  <speed>0.0</speed>
  <fix>3d</fix>
</trkpt>
<trkpt lat="40.0713751" lon="-105.2297889">
  <ele>1582.88</ele>
  <time>2026-08-28T17:50:47Z</time>
  <course>247.0</course>
  <speed>0.022360679774997897</speed>
  <fix>3d</fix>
</trkpt>
<trkpt lat="40.0713749" lon="-105.229789">
  <ele>1583.0</ele>
  <time>2026-08-28T17:50:47Z</time>
  <course>0.0</course>
  <speed>0.0</speed>
  <fix>3d</fix>
</trkpt>
<trkpt lat="40.0713751" lon="-105.2297889">
  <ele>1582.88</ele>
  <time>2026-08-28T17:50:47Z</time>
  <course>247.0</course>
  <speed>0.022360679774997897</speed>
  <fix>3d</fix>
</trkpt>
<trkpt lat="40.0713749" lon="-105.229789">
  <ele>1583.0</ele>
  <time>2026-08-28T17:50:47Z</time>
  <course>0.0</course>
  <speed>0.0</speed>
  <fix>3d</fix>
</trkpt>
<trkpt lat="40.0713751" lon="-105.2297889">
  <ele>1582.88</ele>
  <time>2026-08-28T17:50:47Z</time>
  <course>247.0</course>
  <speed>0.022360679774997897</speed>
  <fix>3d</fix>
</trkpt>
<trkpt lat="40.0713749" lon="-105.229789">
  <ele>1583.0</ele>
  <time>2026-08-28T17:50:47Z</time>
  <course>0.0</course>
  <speed>0.0</speed>
  <fix>3d</fix>
</trkpt>
<trkpt lat="40.0713751" lon="-105.2297889">
  <ele>1582.88</ele>
  <time>2026-08-28T17:50:47Z</time>
  <course>247.0</course>
  <speed>0.022360679774997897</speed>
  <fix>3d</fix>
</trkpt>
<trkpt lat="40.0713749" lon="-105.229789">
  <ele>1583.0</ele>
  <time>2026-08-28T17:50:47Z</time>
  <course>0.0</course>
  <speed>0.0</speed>
  <fix>3d</fix>
</trkpt>
<trkpt lat="40.0713751" lon="-105.2297889">
  <ele>1582.88</ele>
  <time>2026-08-28T17:50:47Z</time>
  <course>247.0</course>
  <speed>0.022360679774997897</speed>
  <fix>3d</fix>
</trkpt>
<trkpt lat="40.0713749" lon="-105.229789">
  <ele>1583.0</ele>
  <time>2026-08-28T17:50:47Z</time>
  <course>0.0</course>
  <speed>0.0</speed>
  <fix>3d</fix>
</trkpt>
<trkpt lat="40.071375" lon="-105.2297889">
  <ele>1582.89</ele>
  <time>2026-08-28T17:50:47Z</time>
  <course>247.0</course>
  <speed>0.022360679774997897</speed>
  <fix>3d</fix>
</trkpt>
<trkpt lat="40.0713749" lon="-105.229789">
  <ele>1583.0</ele>
  <time>2026-08-28T17:50:47Z</time>
  <course>0.0</course>
  <speed>0.0</speed>
  <fix>3d</fix>
</trkpt>
<trkpt lat="40.0713751" lon="-105.2297889">
  <ele>1582.89</ele>
  <time>2026-08-28T17:50:47Z</time>
  <course>247.0</course>
  <speed>0.022360679774997897</speed>
  <fix>3d</fix>
</trkpt>
<trkpt lat="40.0713749" lon="-105.229789">
  <ele>1583.0</ele>
  <time>2026-08-28T17:50:47Z</time>
  <course>0.0</course>
  <speed>0.0</speed>
  <fix>3d</fix>
</trkpt>
<trkpt lat="40.071375" lon="-105.2297889">
  <ele>1582.89</ele>
  <time>2026-08-28T17:50:47Z</time>
  <course>247.0</course>
  <speed>0.022360679774997897</speed>
  <fix>3d</fix>
</trkpt>
<trkpt lat="40.0713749" lon="-105.229789">
  <ele>1583.0</ele>
  <time>2026-08-28T17:50:47Z</time>
  <course>0.0</course>
  <speed>0.0</speed>
  <fix>3d</fix>
</trkpt>
<trkpt lat="40.0713751" lon="-105.2297889">
  <ele>1582.89</ele>
  <time>2026-08-28T17:50:47Z</time>
  <course>247.0</course>
  <speed>0.022360679774997897</speed>
  <fix>3d</fix>
</trkpt>
<trkpt lat="40.0713749" lon="-105.229789">
  <ele>1583.0</ele>
  <time>2026-08-28T17:50:47Z</time>
  <course>0.0</course>
  <speed>0.0</speed>
  <fix>3d</fix>
</trkpt>
<trkpt lat="40.071375" lon="-105.2297889">
  <ele>1582.89</ele>
  <time>2026-08-28T17:50:47Z</time>
  <course>247.0</course>
  <speed>0.02</speed>
  <fix>3d</fix>
</trkpt>
<trkpt lat="40.0713749" lon="-105.229789">
  <ele>1583.0</ele>
  <time>2026-08-28T17:50:47Z</time>
  <course>0.0</course>
  <speed>0.0</speed>
  <fix>3d</fix>
</trkpt>
<trkpt lat="40.0713751" lon="-105.2297889">
  <ele>1582.89</ele>
  <time>2026-08-28T17:50:47Z</time>
  <course>247.0</course>
  <speed>0.022360679774997897</speed>
  <fix>3d</fix>
</trkpt>
<trkpt lat="40.0713749" lon="-105.229789">
  <ele>1583.0</ele>
  <time>2026-08-28T17:50:47Z</time>
  <course>0.0</course>
  <speed>0.0</speed>
  <fix>3d</fix>
</trkpt>
<trkpt lat="40.071375" lon="-105.2297889">
  <ele>1582.89</ele>
  <time>2026-08-28T17:50:47Z</time>
  <course>247.0</course>
  <speed>0.02</speed>
  <fix>3d</fix>
</trkpt>
<trkpt lat="40.0713749" lon="-105.229789">
  <ele>1583.0</ele>
  <time>2026-08-28T17:50:47Z</time>
  <course>0.0</course>
  <speed>0.0</speed>
  <fix>3d</fix>
</trkpt>
<trkpt lat="40.0713751" lon="-105.2297889">
  <ele>1582.89</ele>
  <time>2026-08-28T17:50:47Z</time>
  <course>247.0</course>
  <speed>0.022360679774997897</speed>
  <fix>3d</fix>
</trkpt>
<trkpt lat="40.0713749" lon="-105.229789">
  <ele>1583.0</ele>
  <time>2026-08-28T17:50:47Z</time>
  <course>0.0</course>
  <speed>0.0</speed>
  <fix>3d</fix>
</trkpt>
<trkpt lat="40.071375" lon="-105.2297889">
  <ele>1582.89</ele>
  <time>2026-08-28T17:50:47Z</time>
  <course>247.0</course>
  <speed>0.02</speed>
  <fix>3d</fix>
</trkpt>
<trkpt lat="40.0713749" lon="-105.229789">
  <ele>1583.0</ele>
  <time>2026-08-28T17:50:47Z</time>
  <course>0.0</course>
  <speed>0.0</speed>
  <fix>3d</fix>
</trkpt>
<trkpt lat="40.0713751" lon="-105.2297889">
  <ele>1582.89</ele>
  <time>2026-08-28T17:50:47Z</time>
  <course>247.0</course>
  <speed>0.022360679774997897</speed>
  <fix>3d</fix>
</trkpt>
<trkpt lat="40.0713749" lon="-105.229789">
  <ele>1583.0</ele>
  <time>2026-08-28T17:50:47Z</time>
  <course>0.0</course>
  <speed>0.0</speed>
  <fix>3d</fix>
</trkpt>
<trkpt lat="40.071375" lon="-105.2297889">
  <ele>1582.89</ele>
  <time>2026-08-28T17:50:47Z</time>
  <course>247.0</course>
  <speed>0.02</speed>
  <fix>3d</fix>
</trkpt>
<trkpt lat="40.0713749" lon="-105.229789">
  <ele>1583.0</ele>
  <time>2026-08-28T17:50:47Z</time>
  <course>0.0</course>
  <speed>0.0</speed>
  <fix>3d</fix>
</trkpt>
<trkpt lat="40.0713751" lon="-105.2297889">
  <ele>1582.89</ele>
  <time>2026-08-28T17:50:47Z</time>
  <course>247.0</course>
  <speed>0.022360679774997897</speed>
  <fix>3d</fix>
</trkpt>
<trkpt lat="40.0713749" lon="-105.229789">
  <ele>1583.0</ele>
  <time>2026-08-28T17:50:47Z</time>
  <course>0.0</course>
  <speed>0.0</speed>
  <fix>3d</fix>
</trkpt>
<trkpt lat="40.071375" lon="-105.2297889">
  <ele>1582.88</ele>
  <time>2026-08-28T17:50:47Z</time>
  <course>247.0</course>
  <speed>0.02</speed>
  <fix>3d</fix>
</trkpt>
<trkpt lat="40.0713749" lon="-105.229789">
  <ele>1583.0</ele>
  <time>2026-08-28T17:50:47Z</time>
  <course>0.0</course>
  <speed>0.0</speed>
  <fix>3d</fix>
</trkpt>
<trkpt lat="40.0713751" lon="-105.2297889">
  <ele>1582.88</ele>
  <time>2026-08-28T17:50:47Z</time>
  <course>247.0</course>
  <speed>0.022360679774997897</speed>
  <fix>3d</fix>
</trkpt>
<trkpt lat="40.0713749" lon="-105.229789">
  <ele>1583.0</ele>
  <time>2026-08-28T17:50:47Z</time>
  <course>0.0</course>
  <speed>0.0</speed>
  <fix>3d</fix>
</trkpt>
<trkpt lat="40.0713751" lon="-105.2297889">
  <ele>1582.88</ele>
  <time>2026-08-28T17:50:47Z</time>
  <course>247.0</course>
  <speed>0.022360679774997897</speed>
  <fix>3d</fix>
</trkpt>
<trkpt lat="40.0713749" lon="-105.229789">
  <ele>1583.0</ele>
  <time>2026-08-28T17:50:47Z</time>
  <course>0.0</course>
  <speed>0.0</speed>
  <fix>3d</fix>
</trkpt>
<trkpt lat="40.0713751" lon="-105.2297889">
  <ele>1582.87</ele>
  <time>2026-08-28T17:50:47Z</time>
  <course>247.0</course>
  <speed>0.022360679774997897</speed>
  <fix>3d</fix>
</trkpt>
<trkpt lat="40.0713749" lon="-105.229789">
  <ele>1583.0</ele>
  <time>2026-08-28T17:50:47Z</time>
  <course>0.0</course>
  <speed>0.0</speed>
  <fix>3d</fix>
</trkpt>
<trkpt lat="40.0713751" lon="-105.2297889">
  <ele>1582.87</ele>
  <time>2026-08-28T17:50:47Z</time>
  <course>247.0</course>
  <speed>0.022360679774997897</speed>
  <fix>3d</fix>
</trkpt>
<trkpt lat="40.0713749" lon="-105.229789">
  <ele>1583.0</ele>
  <time>2026-08-28T17:50:47Z</time>
  <course>0.0</course>
  <speed>0.0</speed>
  <fix>3d</fix>
</trkpt>
<trkpt lat="40.0713751" lon="-105.2297889">
  <ele>1582.87</ele>
  <time>2026-08-28T17:50:47Z</time>
  <course>247.0</course>
  <speed>0.022360679774997897</speed>
  <fix>3d</fix>
</trkpt>
<trkpt lat="40.0713749" lon="-105.229789">
  <ele>1583.0</ele>
  <time>2026-08-28T17:50:47Z</time>
  <course>0.0</course>
  <speed>0.0</speed>
  <fix>3d</fix>
</trkpt>
<trkpt lat="40.0713751" lon="-105.2297889">
  <ele>1582.87</ele>
  <time>2026-08-28T17:50:47Z</time>
  <course>247.0</course>
  <speed>0.022360679774997897</speed>
  <fix>3d</fix>
</trkpt>
<trkpt lat="40.0713749" lon="-105.229789">
  <ele>1583.0</ele>
  <time>2026-08-28T17:50:47Z</time>
  <course>0.0</course>
  <speed>0.0</speed>
  <fix>3d</fix>
</trkpt>
<trkpt lat="40.0713751" lon="-105.2297889">
  <ele>1582.87</ele>
  <time>2026-08-28T17:50:47Z</time>
  <course>247.0</course>
  <speed>0.022360679774997897</speed>
  <fix>3d</fix>
</trkpt>
<trkpt lat="40.0713749" lon="-105.229789">
  <ele>1583.0</ele>
  <time>2026-08-28T17:50:47Z</time>
  <course>0.0</course>
  <speed>0.0</speed>
  <fix>3d</fix>
</trkpt>
<trkpt lat="40.071375" lon="-105.2297889">
  <ele>1582.86</ele>
  <time>2026-08-28T17:50:47Z</time>
  <course>247.0</course>
  <speed>0.02</speed>
  <fix>3d</fix>
</trkpt>
<trkpt lat="40.0713749" lon="-105.229789">
  <ele>1583.0</ele>
  <time>2026-08-28T17:50:47Z</time>
  <course>0.0</course>
  <speed>0.0</speed>
  <fix>3d</fix>
</trkpt>
<trkpt lat="40.0713751" lon="-105.2297889">
  <ele>1582.86</ele>
  <time>2026-08-28T17:50:47Z</time>
  <course>247.0</course>
  <speed>0.02</speed>
  <fix>3d</fix>
</trkpt>
<trkpt lat="40.0713749" lon="-105.229789">
  <ele>1583.0</ele>
  <time>2026-08-28T17:50:47Z</time>
  <course>0.0</course>
  <speed>0.0</speed>
  <fix>3d</fix>
</trkpt>
<trkpt lat="40.071375" lon="-105.2297889">
  <ele>1582.86</ele>
  <time>2026-08-28T17:50:47Z</time>
  <course>247.0</course>
  <speed>0.02</speed>
  <fix>3d</fix>
</trkpt>
<trkpt lat="40.0713749" lon="-105.229789">
  <ele>1583.0</ele>
  <time>2026-08-28T17:50:47Z</time>
  <course>0.0</course>
  <speed>0.0</speed>
  <fix>3d</fix>
</trkpt>
<trkpt lat="40.0713751" lon="-105.2297889">
  <ele>1582.85</ele>
  <time>2026-08-28T17:50:47Z</time>
  <course>247.0</course>
  <speed>0.02</speed>
  <fix>3d</fix>
</trkpt>
<trkpt lat="40.0713749" lon="-105.229789">
  <ele>1583.0</ele>
  <time>2026-08-28T17:50:47Z</time>
  <course>0.0</course>
  <speed>0.0</speed>
  <fix>3d</fix>
</trkpt>
<trkpt lat="40.071375" lon="-105.2297889">
  <ele>1582.85</ele>
  <time>2026-08-28T17:50:47Z</time>
  <course>247.0</course>
  <speed>0.02</speed>
  <fix>3d</fix>
</trkpt>
<trkpt lat="40.0713749" lon="-105.229789">
  <ele>1583.0</ele>
  <time>2026-08-28T17:50:47Z</time>
  <course>0.0</course>
  <speed>0.0</speed>
  <fix>3d</fix>
</trkpt>
<trkpt lat="40.0713751" lon="-105.2297889">
  <ele>1582.85</ele>
  <time>2026-08-28T17:50:47Z</time>
  <course>247.0</course>
  <speed>0.02</speed>
  <fix>3d</fix>
</trkpt>
<trkpt lat="40.0713749" lon="-105.229789">
  <ele>1583.0</ele>
  <time>2026-08-28T17:50:47Z</time>
  <course>0.0</course>
  <speed>0.0</speed>
  <fix>3d</fix>
</trkpt>
<trkpt lat="40.071375" lon="-105.2297889">
  <ele>1582.85</ele>
  <time>2026-08-28T17:50:47Z</time>
  <course>247.0</course>
  <speed>0.02</speed>
  <fix>3d</fix>
</trkpt>
<trkpt lat="40.0713749" lon="-105.229789">
  <ele>1583.0</ele>
  <time>2026-08-28T17:50:47Z</time>
  <course>0.0</course>
  <speed>0.0</speed>
  <fix>3d</fix>
</trkpt>
<trkpt lat="40.0713751" lon="-105.2297889">
  <ele>1582.86</ele>
  <time>2026-08-28T17:50:47Z</time>
  <course>247.0</course>
  <speed>0.022360679774997897</speed>
  <fix>3d</fix>
</trkpt>
<trkpt lat="40.0713749" lon="-105.229789">
  <ele>1583.0</ele>
  <time>2026-08-28T17:50:47Z</time>
  <course>0.0</course>
  <speed>0.0</speed>
  <fix>3d</fix>
</trkpt>
<trkpt lat="40.071375" lon="-105.2297889">
  <ele>1582.86</ele>
  <time>2026-08-28T17:50:47Z</time>
  <course>247.0</course>
  <speed>0.02</speed>
  <fix>3d</fix>
</trkpt>
<trkpt lat="40.0713749" lon="-105.229789">
  <ele>1583.0</ele>
  <time>2026-08-28T17:50:47Z</time>
  <course>0.0</course>
  <speed>0.0</speed>
  <fix>3d</fix>
</trkpt>
<trkpt lat="40.0713751" lon="-105.2297889">
  <ele>1582.87</ele>
  <time>2026-08-28T17:50:47Z</time>
  <course>247.0</course>
  <speed>0.022360679774997897</speed>
  <fix>3d</fix>
</trkpt>
<trkpt lat="40.0713749" lon="-105.229789">
  <ele>1583.0</ele>
  <time>2026-08-28T17:50:47Z</time>
  <course>0.0</course>
  <speed>0.0</speed>
  <fix>3d</fix>
</trkpt>
<trkpt lat="40.071375" lon="-105.2297889">
  <ele>1582.88</ele>
  <time>2026-08-28T17:50:47Z</time>
  <course>247.0</course>
  <speed>0.02</speed>
  <fix>3d</fix>
</trkpt>
<trkpt lat="40.0713749" lon="-105.229789">
  <ele>1583.0</ele>
  <time>2026-08-28T17:50:47Z</time>
  <course>0.0</course>
  <speed>0.0</speed>
  <fix>3d</fix>
</trkpt>
<trkpt lat="40.0713751" lon="-105.2297889">
  <ele>1582.88</ele>
  <time>2026-08-28T17:50:47Z</time>
  <course>247.0</course>
  <speed>0.022360679774997897</speed>
  <fix>3d</fix>
</trkpt>
<trkpt lat="40.0713749" lon="-105.229789">
  <ele>1583.0</ele>
  <time>2026-08-28T17:50:47Z</time>
  <course>0.0</course>
  <speed>0.0</speed>
  <fix>3d</fix>
</trkpt>
<trkpt lat="40.071375" lon="-105.2297889">
  <ele>1582.89</ele>
  <time>2026-08-28T17:50:47Z</time>
  <course>247.0</course>
  <speed>0.02</speed>
  <fix>3d</fix>
</trkpt>
<trkpt lat="40.0713749" lon="-105.229789">
  <ele>1583.0</ele>
  <time>2026-08-28T17:50:47Z</time>
  <course>0.0</course>
  <speed>0.0</speed>
  <fix>3d</fix>
</trkpt>
<trkpt lat="40.0713751" lon="-105.2297889">
  <ele>1582.9</ele>
  <time>2026-08-28T17:50:47Z</time>
  <course>247.0</course>
  <speed>0.02</speed>
  <fix>3d</fix>
</trkpt>
<trkpt lat="40.0713749" lon="-105.229789">
  <ele>1583.0</ele>
  <time>2026-08-28T17:50:47Z</time>
  <course>0.0</course>
  <speed>0.0</speed>
  <fix>3d</fix>
</trkpt>
<trkpt lat="40.0713751" lon="-105.2297889">
  <ele>1582.9</ele>
  <time>2026-08-28T17:50:47Z</time>
  <course>247.0</course>
  <speed>0.02</speed>
  <fix>3d</fix>
</trkpt>
<trkpt lat="40.0713749" lon="-105.229789">
  <ele>1583.0</ele>
  <time>2026-08-28T17:50:47Z</time>
  <course>0.0</course>
  <speed>0.0</speed>
  <fix>3d</fix>
</trkpt>
<trkpt lat="40.0713751" lon="-105.2297889">
  <ele>1582.91</ele>
  <time>2026-08-28T17:50:47Z</time>
  <course>247.0</course>
  <speed>0.022360679774997897</speed>
  <fix>3d</fix>
</trkpt>
<trkpt lat="40.0713749" lon="-105.229789">
  <ele>1583.0</ele>
  <time>2026-08-28T17:50:47Z</time>
  <course>0.0</course>
  <speed>0.0</speed>
  <fix>3d</fix>
</trkpt>
<trkpt lat="40.0713751" lon="-105.2297889">
  <ele>1582.91</ele>
  <time>2026-08-28T17:50:47Z</time>
  <course>247.0</course>
  <speed>0.022360679774997897</speed>
  <fix>3d</fix>
</trkpt>
<trkpt lat="40.0713749" lon="-105.229789">
  <ele>1583.0</ele>
  <time>2026-08-28T17:50:47Z</time>
  <course>0.0</course>
  <speed>0.0</speed>
  <fix>3d</fix>
</trkpt>
<trkpt lat="40.0713751" lon="-105.2297889">
  <ele>1582.92</ele>
  <time>2026-08-28T17:50:47Z</time>
  <course>247.0</course>
  <speed>0.022360679774997897</speed>
  <fix>3d</fix>
</trkpt>
<trkpt lat="40.0713749" lon="-105.229789">
  <ele>1583.0</ele>
  <time>2026-08-28T17:50:47Z</time>
  <course>0.0</course>
  <speed>0.0</speed>
  <fix>3d</fix>
</trkpt>
<trkpt lat="40.0713751" lon="-105.2297889">
  <ele>1582.92</ele>
  <time>2026-08-28T17:50:47Z</time>
  <course>247.0</course>
  <speed>0.022360679774997897</speed>
  <fix>3d</fix>
</trkpt>
<trkpt lat="40.0713749" lon="-105.229789">
  <ele>1583.0</ele>
  <time>2026-08-28T17:50:47Z</time>
  <course>0.0</course>
  <speed>0.0</speed>
  <fix>3d</fix>
</trkpt>
<trkpt lat="40.0713751" lon="-105.2297889">
  <ele>1582.93</ele>
  <time>2026-08-28T17:50:47Z</time>
  <course>247.0</course>
  <speed>0.022360679774997897</speed>
  <fix>3d</fix>
</trkpt>
<trkpt lat="40.0713749" lon="-105.229789">
  <ele>1583.0</ele>
  <time>2026-08-28T17:50:47Z</time>
  <course>0.0</course>
  <speed>0.0</speed>
  <fix>3d</fix>
</trkpt>
<trkpt lat="40.0713751" lon="-105.2297889">
  <ele>1582.93</ele>
  <time>2026-08-28T17:50:47Z</time>
  <course>247.0</course>
  <speed>0.022360679774997897</speed>
  <fix>3d</fix>
</trkpt>
<trkpt lat="40.0713749" lon="-105.229789">
  <ele>1583.0</ele>
  <time>2026-08-28T17:50:47Z</time>
  <course>0.0</course>
  <speed>0.0</speed>
  <fix>3d</fix>
</trkpt>
<trkpt lat="40.0713751" lon="-105.2297889">
  <ele>1582.94</ele>
  <time>2026-08-28T17:50:47Z</time>
  <course>247.0</course>
  <speed>0.022360679774997897</speed>
  <fix>3d</fix>
</trkpt>
<trkpt lat="40.0713749" lon="-105.229789">
  <ele>1583.0</ele>
  <time>2026-08-28T17:50:47Z</time>
  <course>0.0</course>
  <speed>0.0</speed>
  <fix>3d</fix>
</trkpt>
<trkpt lat="40.0713751" lon="-105.2297889">
  <ele>1582.95</ele>
  <time>2026-08-28T17:50:47Z</time>
  <course>247.0</course>
  <speed>0.022360679774997897</speed>
  <fix>3d</fix>
</trkpt>
<trkpt lat="40.0713749" lon="-105.229789">
  <ele>1583.0</ele>
  <time>2026-08-28T17:50:47Z</time>
  <course>0.0</course>
  <speed>0.0</speed>
  <fix>3d</fix>
</trkpt>
<trkpt lat="40.0713751" lon="-105.2297889">
  <ele>1582.95</ele>
  <time>2026-08-28T17:50:47Z</time>
  <course>247.0</course>
  <speed>0.022360679774997897</speed>
  <fix>3d</fix>
</trkpt>
<trkpt lat="40.0713749" lon="-105.229789">
  <ele>1583.0</ele>
  <time>2026-08-28T17:50:47Z</time>
  <course>0.0</course>
  <speed>0.0</speed>
  <fix>3d</fix>
</trkpt>
<trkpt lat="40.071375" lon="-105.2297889">
  <ele>1582.96</ele>
  <time>2026-08-28T17:50:47Z</time>
  <course>247.0</course>
  <speed>0.02</speed>
  <fix>3d</fix>
</trkpt>
<trkpt lat="40.0713749" lon="-105.229789">
  <ele>1583.0</ele>
  <time>2026-08-28T17:50:47Z</time>
  <course>0.0</course>
  <speed>0.0</speed>
  <fix>3d</fix>
</trkpt>
<trkpt lat="40.0713751" lon="-105.2297889">
  <ele>1582.96</ele>
  <time>2026-08-28T17:50:47Z</time>
  <course>247.0</course>
  <speed>0.022360679774997897</speed>
  <fix>3d</fix>
</trkpt>
<trkpt lat="40.0713749" lon="-105.229789">
  <ele>1583.0</ele>
  <time>2026-08-28T17:50:47Z</time>
  <course>0.0</course>
  <speed>0.0</speed>
  <fix>3d</fix>
</trkpt>
<trkpt lat="40.071375" lon="-105.2297889">
  <ele>1582.96</ele>
  <time>2026-08-28T17:50:47Z</time>
  <course>247.0</course>
  <speed>0.022360679774997897</speed>
  <fix>3d</fix>
</trkpt>
<trkpt lat="40.0713749" lon="-105.229789">
  <ele>1583.0</ele>
  <time>2026-08-28T17:50:47Z</time>
  <course>0.0</course>
  <speed>0.0</speed>
  <fix>3d</fix>
</trkpt>
<trkpt lat="40.0713751" lon="-105.2297889">
  <ele>1582.97</ele>
  <time>2026-08-28T17:50:47Z</time>
  <course>247.0</course>
  <speed>0.022360679774997897</speed>
  <fix>3d</fix>
</trkpt>
<trkpt lat="40.0713749" lon="-105.229789">
  <ele>1583.0</ele>
  <time>2026-08-28T17:50:47Z</time>
  <course>0.0</course>
  <speed>0.0</speed>
  <fix>3d</fix>
</trkpt>
<trkpt lat="40.071375" lon="-105.2297889">
  <ele>1582.97</ele>
  <time>2026-08-28T17:50:47Z</time>
  <course>247.0</course>
  <speed>0.022360679774997897</speed>
  <fix>3d</fix>
</trkpt>
<trkpt lat="40.0713749" lon="-105.229789">
  <ele>1583.0</ele>
  <time>2026-08-28T17:50:47Z</time>
  <course>0.0</course>
  <speed>0.0</speed>
  <fix>3d</fix>
</trkpt>
<trkpt lat="40.0713751" lon="-105.2297889">
  <ele>1582.98</ele>
  <time>2026-08-28T17:50:47Z</time>
  <course>247.0</course>
  <speed>0.022360679774997897</speed>
  <fix>3d</fix>
</trkpt>
<trkpt lat="40.0713749" lon="-105.229789">
  <ele>1583.0</ele>
  <time>2026-08-28T17:50:47Z</time>
  <course>0.0</course>
  <speed>0.0</speed>
  <fix>3d</fix>
</trkpt>
<trkpt lat="40.071375" lon="-105.2297889">
  <ele>1582.98</ele>
  <time>2026-08-28T17:50:47Z</time>
  <course>247.0</course>
  <speed>0.022360679774997897</speed>
  <fix>3d</fix>
</trkpt>
<trkpt lat="40.0713749" lon="-105.229789">
  <ele>1583.0</ele>
  <time>2026-08-28T17:50:47Z</time>
  <course>0.0</course>
  <speed>0.0</speed>
  <fix>3d</fix>
</trkpt>
<trkpt lat="40.0713751" lon="-105.2297889">
  <ele>1582.98</ele>
  <time>2026-08-28T17:50:47Z</time>
  <course>247.0</course>
  <speed>0.022360679774997897</speed>
  <fix>3d</fix>
</trkpt>
<trkpt lat="40.0713749" lon="-105.229789">
  <ele>1583.0</ele>
  <time>2026-08-28T17:50:47Z</time>
  <course>0.0</course>
  <speed>0.0</speed>
  <fix>3d</fix>
</trkpt>
<trkpt lat="40.071375" lon="-105.2297889">
  <ele>1582.99</ele>
  <time>2026-08-28T17:50:47Z</time>
  <course>247.0</course>
  <speed>0.022360679774997897</speed>
  <fix>3d</fix>
</trkpt>
<trkpt lat="40.0713749" lon="-105.229789">
  <ele>1583.0</ele>
  <time>2026-08-28T17:50:47Z</time>
  <course>0.0</course>
  <speed>0.0</speed>
  <fix>3d</fix>
</trkpt>
<trkpt lat="40.0713751" lon="-105.2297889">
  <ele>1582.99</ele>
  <time>2026-08-28T17:50:47Z</time>
  <course>247.0</course>
  <speed>0.022360679774997897</speed>
  <fix>3d</fix>
</trkpt>
<trkpt lat="40.0713749" lon="-105.229789">
  <ele>1583.0</ele>
  <time>2026-08-28T17:50:47Z</time>
  <course>0.0</course>
  <speed>0.0</speed>
  <fix>3d</fix>
</trkpt>
<trkpt lat="40.071375" lon="-105.2297889">
  <ele>1582.99</ele>
  <time>2026-08-28T17:50:47Z</time>
  <course>247.0</course>
  <speed>0.022360679774997897</speed>
  <fix>3d</fix>
</trkpt>
<trkpt lat="40.0713749" lon="-105.229789">
  <ele>1583.0</ele>
  <time>2026-08-28T17:50:47Z</time>
  <course>0.0</course>
  <speed>0.0</speed>
  <fix>3d</fix>
</trkpt>
<trkpt lat="40.0713751" lon="-105.2297889">
  <ele>1582.99</ele>
  <time>2026-08-28T17:50:47Z</time>
  <course>247.0</course>
  <speed>0.022360679774997897</speed>
  <fix>3d</fix>
</trkpt>
<trkpt lat="40.0713749" lon="-105.229789">
  <ele>1583.0</ele>
  <time>2026-08-28T17:50:47Z</time>
  <course>0.0</course>
  <speed>0.0</speed>
  <fix>3d</fix>
</trkpt>
<trkpt lat="40.0713751" lon="-105.2297889">
  <ele>1582.99</ele>
  <time>2026-08-28T17:50:47Z</time>
  <course>247.0</course>
  <speed>0.022360679774997897</speed>
  <fix>3d</fix>
</trkpt>
<trkpt lat="40.0713749" lon="-105.229789">
  <ele>1583.0</ele>
  <time>2026-08-28T17:50:47Z</time>
  <course>0.0</course>
  <speed>0.0</speed>
  <fix>3d</fix>
</trkpt>
<trkpt lat="40.0713751" lon="-105.2297889">
  <ele>1582.99</ele>
  <time>2026-08-28T17:50:47Z</time>
  <course>247.0</course>
  <speed>0.022360679774997897</speed>
  <fix>3d</fix>
</trkpt>
<trkpt lat="40.0713749" lon="-105.229789">
  <ele>1583.0</ele>
  <time>2026-08-28T17:50:47Z</time>
  <course>0.0</course>
  <speed>0.0</speed>
  <fix>3d</fix>
</trkpt>
<trkpt lat="40.0713751" lon="-105.2297889">
  <ele>1583.0</ele>
  <time>2026-08-28T17:50:47Z</time>
  <course>247.0</course>
  <speed>0.022360679774997897</speed>
  <fix>3d</fix>
</trkpt>
<trkpt lat="40.0713749" lon="-105.229789">
  <ele>1583.0</ele>
  <time>2026-08-28T17:50:47Z</time>
  <course>0.0</course>
  <speed>0.0</speed>
  <fix>3d</fix>
</trkpt>
<trkpt lat="40.0713751" lon="-105.2297889">
  <ele>1583.0</ele>
  <time>2026-08-28T17:50:47Z</time>
  <course>247.0</course>
  <speed>0.022360679774997897</speed>
  <fix>3d</fix>
</trkpt>
<trkpt lat="40.0713749" lon="-105.229789">
  <ele>1583.0</ele>
  <time>2026-08-28T17:50:47Z</time>
  <course>0.0</course>
  <speed>0.0</speed>
  <fix>3d</fix>
</trkpt>
<trkpt lat="40.0713751" lon="-105.2297889">
  <ele>1583.0</ele>
  <time>2026-08-28T17:50:47Z</time>
  <course>247.0</course>
  <speed>0.022360679774997897</speed>
  <fix>3d</fix>
</trkpt>
<trkpt lat="40.0713749" lon="-105.229789">
  <ele>1583.0</ele>
  <time>2026-08-28T17:50:47Z</time>
  <course>0.0</course>
  <speed>0.0</speed>
  <fix>3d</fix>
</trkpt>
<trkpt lat="40.0713751" lon="-105.2297889">
  <ele>1583.01</ele>
  <time>2026-08-28T17:50:47Z</time>
  <course>247.0</course>
  <speed>0.022360679774997897</speed>
  <fix>3d</fix>
</trkpt>
<trkpt lat="40.0713749" lon="-105.229789">
  <ele>1583.0</ele>
  <time>2026-08-28T17:50:47Z</time>
  <course>0.0</course>
  <speed>0.0</speed>
  <fix>3d</fix>
</trkpt>
<trkpt lat="40.071375" lon="-105.2297889">
  <ele>1583.01</ele>
  <time>2026-08-28T17:50:47Z</time>
  <course>247.0</course>
  <speed>0.022360679774997897</speed>
  <fix>3d</fix>
</trkpt>
<trkpt lat="40.0713749" lon="-105.229789">
  <ele>1583.0</ele>
  <time>2026-08-28T17:50:47Z</time>
  <course>0.0</course>
  <speed>0.0</speed>
  <fix>3d</fix>
</trkpt>
<trkpt lat="40.0713751" lon="-105.2297889">
  <ele>1583.01</ele>
  <time>2026-08-28T17:50:47Z</time>
  <course>247.0</course>
  <speed>0.022360679774997897</speed>
  <fix>3d</fix>
</trkpt>
<trkpt lat="40.0713749" lon="-105.229789">
  <ele>1583.0</ele>
  <time>2026-08-28T17:50:47Z</time>
  <course>0.0</course>
  <speed>0.0</speed>
  <fix>3d</fix>
</trkpt>
<trkpt lat="40.071375" lon="-105.2297889">
  <ele>1583.02</ele>
  <time>2026-08-28T17:50:47Z</time>
  <course>247.0</course>
  <speed>0.022360679774997897</speed>
  <fix>3d</fix>
</trkpt>
<trkpt lat="40.0713749" lon="-105.229789">
  <ele>1583.0</ele>
  <time>2026-08-28T17:50:47Z</time>
  <course>0.0</course>
  <speed>0.0</speed>
  <fix>3d</fix>
</trkpt>
<trkpt lat="40.0713751" lon="-105.2297889">
  <ele>1583.02</ele>
  <time>2026-08-28T17:50:47Z</time>
  <course>247.0</course>
  <speed>0.022360679774997897</speed>
  <fix>3d</fix>
</trkpt>
<trkpt lat="40.0713749" lon="-105.229789">
  <ele>1583.0</ele>
  <time>2026-08-28T17:50:47Z</time>
  <course>0.0</course>
  <speed>0.0</speed>
  <fix>3d</fix>
</trkpt>
<trkpt lat="40.071375" lon="-105.2297889">
  <ele>1583.02</ele>
  <time>2026-08-28T17:50:47Z</time>
  <course>247.0</course>
  <speed>0.022360679774997897</speed>
  <fix>3d</fix>
</trkpt>
<trkpt lat="40.0713749" lon="-105.229789">
  <ele>1583.0</ele>
  <time>2026-08-28T17:50:47Z</time>
  <course>0.0</course>
  <speed>0.0</speed>
  <fix>3d</fix>
</trkpt>
<trkpt lat="40.0713751" lon="-105.2297889">
  <ele>1583.02</ele>
  <time>2026-08-28T17:50:47Z</time>
  <course>247.0</course>
  <speed>0.022360679774997897</speed>
  <fix>3d</fix>
</trkpt>
<trkpt lat="40.0713749" lon="-105.229789">
  <ele>1583.0</ele>
  <time>2026-08-28T17:50:47Z</time>
  <course>0.0</course>
  <speed>0.0</speed>
  <fix>3d</fix>
</trkpt>
<trkpt lat="40.071375" lon="-105.2297889">
  <ele>1583.02</ele>
  <time>2026-08-28T17:50:47Z</time>
  <course>247.0</course>
  <speed>0.022360679774997897</speed>
  <fix>3d</fix>
</trkpt>
<trkpt lat="40.0713749" lon="-105.229789">
  <ele>1583.0</ele>
  <time>2026-08-28T17:50:47Z</time>
  <course>0.0</course>
  <speed>0.0</speed>
  <fix>3d</fix>
</trkpt>
<trkpt lat="40.0713751" lon="-105.2297889">
  <ele>1583.03</ele>
  <time>2026-08-28T17:50:47Z</time>
  <course>247.0</course>
  <speed>0.022360679774997897</speed>
  <fix>3d</fix>
</trkpt>
<trkpt lat="40.0713749" lon="-105.229789">
  <ele>1583.0</ele>
  <time>2026-08-28T17:50:47Z</time>
  <course>0.0</course>
  <speed>0.0</speed>
  <fix>3d</fix>
</trkpt>
<trkpt lat="40.071375" lon="-105.2297889">
  <ele>1583.03</ele>
  <time>2026-08-28T17:50:47Z</time>
  <course>247.0</course>
  <speed>0.022360679774997897</speed>
  <fix>3d</fix>
</trkpt>
<trkpt lat="40.0713749" lon="-105.229789">
  <ele>1583.0</ele>
  <time>2026-08-28T17:50:47Z</time>
  <course>0.0</course>
  <speed>0.0</speed>
  <fix>3d</fix>
</trkpt>
<trkpt lat="40.0713751" lon="-105.2297889">
  <ele>1583.04</ele>
  <time>2026-08-28T17:50:47Z</time>
  <course>247.0</course>
  <speed>0.022360679774997897</speed>
  <fix>3d</fix>
</trkpt>
<trkpt lat="40.0713749" lon="-105.229789">
  <ele>1583.0</ele>
  <time>2026-08-28T17:50:47Z</time>
  <course>0.0</course>
  <speed>0.0</speed>
  <fix>3d</fix>
</trkpt>
<trkpt lat="40.071375" lon="-105.2297889">
  <ele>1583.04</ele>
  <time>2026-08-28T17:50:47Z</time>
  <course>247.0</course>
  <speed>0.022360679774997897</speed>
  <fix>3d</fix>
</trkpt>
<trkpt lat="40.0713749" lon="-105.229789">
  <ele>1583.0</ele>
  <time>2026-08-28T17:50:47Z</time>
  <course>0.0</course>
  <speed>0.0</speed>
  <fix>3d</fix>
</trkpt>
<trkpt lat="40.0713751" lon="-105.2297889">
  <ele>1583.05</ele>
  <time>2026-08-28T17:50:47Z</time>
  <course>247.0</course>
  <speed>0.022360679774997897</speed>
  <fix>3d</fix>
</trkpt>
<trkpt lat="40.0713749" lon="-105.229789">
  <ele>1583.0</ele>
  <time>2026-08-28T17:50:47Z</time>
  <course>0.0</course>
  <speed>0.0</speed>
  <fix>3d</fix>
</trkpt>
<trkpt lat="40.071375" lon="-105.2297889">
  <ele>1583.06</ele>
  <time>2026-08-28T17:50:47Z</time>
  <course>247.0</course>
  <speed>0.022360679774997897</speed>
  <fix>3d</fix>
</trkpt>
<trkpt lat="40.0713749" lon="-105.229789">
  <ele>1583.0</ele>
  <time>2026-08-28T17:50:47Z</time>
  <course>0.0</course>
  <speed>0.0</speed>
  <fix>3d</fix>
</trkpt>
<trkpt lat="40.0713751" lon="-105.2297889">
  <ele>1583.07</ele>
  <time>2026-08-28T17:50:47Z</time>
  <course>246.99</course>
  <speed>0.022360679774997897</speed>
  <fix>3d</fix>
</trkpt>
<trkpt lat="40.0713749" lon="-105.229789">
  <ele>1583.0</ele>
  <time>2026-08-28T17:50:47Z</time>
  <course>0.0</course>
  <speed>0.0</speed>
  <fix>3d</fix>
</trkpt>
<trkpt lat="40.0713751" lon="-105.2297889">
  <ele>1583.07</ele>
  <time>2026-08-28T17:50:47Z</time>
  <course>246.99</course>
  <speed>0.022360679774997897</speed>
  <fix>3d</fix>
</trkpt>
<trkpt lat="40.0713749" lon="-105.229789">
  <ele>1583.0</ele>
  <time>2026-08-28T17:50:47Z</time>
  <course>0.0</course>
  <speed>0.0</speed>
  <fix>3d</fix>
</trkpt>
<trkpt lat="40.0713751" lon="-105.2297889">
  <ele>1583.07</ele>
  <time>2026-08-28T17:50:47Z</time>
  <course>246.99</course>
  <speed>0.022360679774997897</speed>
  <fix>3d</fix>
</trkpt>
<trkpt lat="40.0713749" lon="-105.229789">
  <ele>1583.0</ele>
  <time>2026-08-28T17:50:47Z</time>
  <course>0.0</course>
  <speed>0.0</speed>
  <fix>3d</fix>
</trkpt>
<trkpt lat="40.0713751" lon="-105.2297889">
  <ele>1583.07</ele>
  <time>2026-08-28T17:50:47Z</time>
  <course>246.99</course>
  <speed>0.022360679774997897</speed>
  <fix>3d</fix>
</trkpt>
<trkpt lat="40.0713749" lon="-105.229789">
  <ele>1583.0</ele>
  <time>2026-08-28T17:50:47Z</time>
  <course>0.0</course>
  <speed>0.0</speed>
  <fix>3d</fix>
</trkpt>
<trkpt lat="40.0713751" lon="-105.2297889">
  <ele>1583.07</ele>
  <time>2026-08-28T17:50:47Z</time>
  <course>246.99</course>
  <speed>0.022360679774997897</speed>
  <fix>3d</fix>
</trkpt>
<trkpt lat="40.0713749" lon="-105.229789">
  <ele>1583.0</ele>
  <time>2026-08-28T17:50:47Z</time>
  <course>0.0</course>
  <speed>0.0</speed>
  <fix>3d</fix>
</trkpt>
<trkpt lat="40.0713751" lon="-105.2297889">
  <ele>1583.07</ele>
  <time>2026-08-28T17:50:47Z</time>
  <course>246.99</course>
  <speed>0.022360679774997897</speed>
  <fix>3d</fix>
</trkpt>
<trkpt lat="40.0713749" lon="-105.229789">
  <ele>1583.0</ele>
  <time>2026-08-28T17:50:47Z</time>
  <course>0.0</course>
  <speed>0.0</speed>
  <fix>3d</fix>
</trkpt>
<trkpt lat="40.0713751" lon="-105.2297889">
  <ele>1583.06</ele>
  <time>2026-08-28T17:50:47Z</time>
  <course>246.99</course>
  <speed>0.022360679774997897</speed>
  <fix>3d</fix>
</trkpt>
<trkpt lat="40.0713749" lon="-105.229789">
  <ele>1583.0</ele>
  <time>2026-08-28T17:50:47Z</time>
  <course>0.0</course>
  <speed>0.0</speed>
  <fix>3d</fix>
</trkpt>
<trkpt lat="40.0713751" lon="-105.2297889">
  <ele>1583.06</ele>
  <time>2026-08-28T17:50:47Z</time>
  <course>246.99</course>
  <speed>0.022360679774997897</speed>
  <fix>3d</fix>
</trkpt>
<trkpt lat="40.0713749" lon="-105.229789">
  <ele>1583.0</ele>
  <time>2026-08-28T17:50:47Z</time>
  <course>0.0</course>
  <speed>0.0</speed>
  <fix>3d</fix>
</trkpt>
<trkpt lat="40.0713751" lon="-105.2297889">
  <ele>1583.06</ele>
  <time>2026-08-28T17:50:47Z</time>
  <course>246.99</course>
  <speed>0.022360679774997897</speed>
  <fix>3d</fix>
</trkpt>
<trkpt lat="40.0713749" lon="-105.229789">
  <ele>1583.0</ele>
  <time>2026-08-28T17:50:47Z</time>
  <course>0.0</course>
  <speed>0.0</speed>
  <fix>3d</fix>
</trkpt>
<trkpt lat="40.071375" lon="-105.2297889">
  <ele>1583.05</ele>
  <time>2026-08-28T17:50:47Z</time>
  <course>246.99</course>
  <speed>0.022360679774997897</speed>
  <fix>3d</fix>
</trkpt>
<trkpt lat="40.0713749" lon="-105.229789">
  <ele>1583.0</ele>
  <time>2026-08-28T17:50:47Z</time>
  <course>0.0</course>
  <speed>0.0</speed>
  <fix>3d</fix>
</trkpt>
<trkpt lat="40.0713751" lon="-105.2297889">
  <ele>1583.05</ele>
  <time>2026-08-28T17:50:47Z</time>
  <course>246.99</course>
  <speed>0.022360679774997897</speed>
  <fix>3d</fix>
</trkpt>
<trkpt lat="40.0713749" lon="-105.229789">
  <ele>1583.0</ele>
  <time>2026-08-28T17:50:47Z</time>
  <course>0.0</course>
  <speed>0.0</speed>
  <fix>3d</fix>
</trkpt>
<trkpt lat="40.071375" lon="-105.2297889">
  <ele>1583.04</ele>
  <time>2026-08-28T17:50:47Z</time>
  <course>246.99</course>
  <speed>0.022360679774997897</speed>
  <fix>3d</fix>
</trkpt>
<trkpt lat="40.0713749" lon="-105.229789">
  <ele>1583.0</ele>
  <time>2026-08-28T17:50:47Z</time>
  <course>0.0</course>
  <speed>0.0</speed>
  <fix>3d</fix>
</trkpt>
<trkpt lat="40.0713751" lon="-105.2297889">
  <ele>1583.04</ele>
  <time>2026-08-28T17:50:47Z</time>
  <course>246.99</course>
  <speed>0.022360679774997897</speed>
  <fix>3d</fix>
</trkpt>
<trkpt lat="40.0713749" lon="-105.229789">
  <ele>1583.0</ele>
  <time>2026-08-28T17:50:47Z</time>
  <course>0.0</course>
  <speed>0.0</speed>
  <fix>3d</fix>
</trkpt>
<trkpt lat="40.071375" lon="-105.2297889">
  <ele>1583.03</ele>
  <time>2026-08-28T17:50:47Z</time>
  <course>246.99</course>
  <speed>0.022360679774997897</speed>
  <fix>3d</fix>
</trkpt>
<trkpt lat="40.0713749" lon="-105.229789">
  <ele>1583.0</ele>
  <time>2026-08-28T17:50:47Z</time>
  <course>0.0</course>
  <speed>0.0</speed>
  <fix>3d</fix>
</trkpt>
<trkpt lat="40.0713751" lon="-105.2297889">
  <ele>1583.03</ele>
  <time>2026-08-28T17:50:47Z</time>
  <course>246.99</course>
  <speed>0.022360679774997897</speed>
  <fix>3d</fix>
</trkpt>
<trkpt lat="40.0713749" lon="-105.229789">
  <ele>1583.0</ele>
  <time>2026-08-28T17:50:47Z</time>
  <course>0.0</course>
  <speed>0.0</speed>
  <fix>3d</fix>
</trkpt>
<trkpt lat="40.071375" lon="-105.2297889">
  <ele>1583.02</ele>
  <time>2026-08-28T17:50:47Z</time>
  <course>246.99</course>
  <speed>0.022360679774997897</speed>
  <fix>3d</fix>
</trkpt>
<trkpt lat="40.0713749" lon="-105.229789">
  <ele>1583.0</ele>
  <time>2026-08-28T17:50:47Z</time>
  <course>0.0</course>
  <speed>0.0</speed>
  <fix>3d</fix>
</trkpt>
<trkpt lat="40.0713751" lon="-105.2297889">
  <ele>1583.01</ele>
  <time>2026-08-28T17:50:47Z</time>
  <course>246.99</course>
  <speed>0.022360679774997897</speed>
  <fix>3d</fix>
</trkpt>
<trkpt lat="40.0713749" lon="-105.229789">
  <ele>1583.0</ele>
  <time>2026-08-28T17:50:47Z</time>
  <course>0.0</course>
  <speed>0.0</speed>
  <fix>3d</fix>
</trkpt>
<trkpt lat="40.071375" lon="-105.2297889">
  <ele>1583.01</ele>
  <time>2026-08-28T17:50:47Z</time>
  <course>246.99</course>
  <speed>0.022360679774997897</speed>
  <fix>3d</fix>
</trkpt>
<trkpt lat="40.0713749" lon="-105.229789">
  <ele>1583.0</ele>
  <time>2026-08-28T17:50:47Z</time>
  <course>0.0</course>
  <speed>0.0</speed>
  <fix>3d</fix>
</trkpt>
<trkpt lat="40.0713751" lon="-105.2297889">
  <ele>1583.0</ele>
  <time>2026-08-28T17:50:47Z</time>
  <course>246.99</course>
  <speed>0.022360679774997897</speed>
  <fix>3d</fix>
</trkpt>
<trkpt lat="40.0713749" lon="-105.229789">
  <ele>1583.0</ele>
  <time>2026-08-28T17:50:47Z</time>
  <course>0.0</course>
  <speed>0.0</speed>
  <fix>3d</fix>
</trkpt>
<trkpt lat="40.0713751" lon="-105.2297889">
  <ele>1582.99</ele>
  <time>2026-08-28T17:50:47Z</time>
  <course>246.99</course>
  <speed>0.022360679774997897</speed>
  <fix>3d</fix>
</trkpt>
<trkpt lat="40.0713749" lon="-105.229789">
  <ele>1583.0</ele>
  <time>2026-08-28T17:50:47Z</time>
  <course>0.0</course>
  <speed>0.0</speed>
  <fix>3d</fix>
</trkpt>
<trkpt lat="40.0713751" lon="-105.2297889">
  <ele>1582.99</ele>
  <time>2026-08-28T17:50:47Z</time>
  <course>246.99</course>
  <speed>0.022360679774997897</speed>
  <fix>3d</fix>
</trkpt>
<trkpt lat="40.0713749" lon="-105.229789">
  <ele>1583.0</ele>
  <time>2026-08-28T17:50:47Z</time>
  <course>0.0</course>
  <speed>0.0</speed>
  <fix>3d</fix>
</trkpt>
<trkpt lat="40.0713751" lon="-105.2297889">
  <ele>1582.99</ele>
  <time>2026-08-28T17:50:47Z</time>
  <course>246.99</course>
  <speed>0.022360679774997897</speed>
  <fix>3d</fix>
</trkpt>
<trkpt lat="40.0713749" lon="-105.229789">
  <ele>1583.0</ele>
  <time>2026-08-28T17:50:47Z</time>
  <course>0.0</course>
  <speed>0.0</speed>
  <fix>3d</fix>
</trkpt>
<trkpt lat="40.0713751" lon="-105.2297889">
  <ele>1582.99</ele>
  <time>2026-08-28T17:50:47Z</time>
  <course>246.99</course>
  <speed>0.022360679774997897</speed>
  <fix>3d</fix>
</trkpt>
<trkpt lat="40.0713749" lon="-105.229789">
  <ele>1583.0</ele>
  <time>2026-08-28T17:50:47Z</time>
  <course>0.0</course>
  <speed>0.0</speed>
  <fix>3d</fix>
</trkpt>
<trkpt lat="40.0713751" lon="-105.2297889">
  <ele>1583.0</ele>
  <time>2026-08-28T17:50:47Z</time>
  <course>246.99</course>
  <speed>0.022360679774997897</speed>
  <fix>3d</fix>
</trkpt>
<trkpt lat="40.0713749" lon="-105.229789">
  <ele>1583.0</ele>
  <time>2026-08-28T17:50:47Z</time>
  <course>0.0</course>
  <speed>0.0</speed>
  <fix>3d</fix>
</trkpt>
<trkpt lat="40.0713751" lon="-105.2297889">
  <ele>1583.0</ele>
  <time>2026-08-28T17:50:47Z</time>
  <course>246.99</course>
  <speed>0.022360679774997897</speed>
  <fix>3d</fix>
</trkpt>
<trkpt lat="40.0713749" lon="-105.229789">
  <ele>1583.0</ele>
  <time>2026-08-28T17:50:47Z</time>
  <course>0.0</course>
  <speed>0.0</speed>
  <fix>3d</fix>
</trkpt>
<trkpt lat="40.0713751" lon="-105.2297889">
  <ele>1583.01</ele>
  <time>2026-08-28T17:50:47Z</time>
  <course>246.99</course>
  <speed>0.022360679774997897</speed>
  <fix>3d</fix>
</trkpt>
<trkpt lat="40.0713749" lon="-105.229789">
  <ele>1583.0</ele>
  <time>2026-08-28T17:50:47Z</time>
  <course>0.0</course>
  <speed>0.0</speed>
  <fix>3d</fix>
</trkpt>
<trkpt lat="40.0713751" lon="-105.2297889">
  <ele>1583.01</ele>
  <time>2026-08-28T17:50:47Z</time>
  <course>246.99</course>
  <speed>0.022360679774997897</speed>
  <fix>3d</fix>
</trkpt>
<trkpt lat="40.0713749" lon="-105.229789">
  <ele>1583.0</ele>
  <time>2026-08-28T17:50:47Z</time>
  <course>0.0</course>
  <speed>0.0</speed>
  <fix>3d</fix>
</trkpt>
<trkpt lat="40.0713751" lon="-105.2297889">
  <ele>1583.02</ele>
  <time>2026-08-28T17:50:47Z</time>
  <course>246.99</course>
  <speed>0.022360679774997897</speed>
  <fix>3d</fix>
</trkpt>
<trkpt lat="40.0713749" lon="-105.229789">
  <ele>1583.0</ele>
  <time>2026-08-28T17:50:47Z</time>
  <course>0.0</course>
  <speed>0.0</speed>
  <fix>3d</fix>
</trkpt>
<trkpt lat="40.0713751" lon="-105.2297889">
  <ele>1583.03</ele>
  <time>2026-08-28T17:50:47Z</time>
  <course>246.99</course>
  <speed>0.022360679774997897</speed>
  <fix>3d</fix>
</trkpt>
<trkpt lat="40.0713749" lon="-105.229789">
  <ele>1583.0</ele>
  <time>2026-08-28T17:50:47Z</time>
  <course>0.0</course>
  <speed>0.0</speed>
  <fix>3d</fix>
</trkpt>
<trkpt lat="40.0713751" lon="-105.2297889">
  <ele>1583.03</ele>
  <time>2026-08-28T17:50:47Z</time>
  <course>246.99</course>
  <speed>0.022360679774997897</speed>
  <fix>3d</fix>
</trkpt>
<trkpt lat="40.0713749" lon="-105.229789">
  <ele>1583.0</ele>
  <time>2026-08-28T17:50:47Z</time>
  <course>0.0</course>
  <speed>0.0</speed>
  <fix>3d</fix>
</trkpt>
<trkpt lat="40.0713751" lon="-105.2297889">
  <ele>1583.03</ele>
  <time>2026-08-28T17:50:47Z</time>
  <course>246.99</course>
  <speed>0.022360679774997897</speed>
  <fix>3d</fix>
</trkpt>
<trkpt lat="40.0713749" lon="-105.229789">
  <ele>1583.0</ele>
  <time>2026-08-28T17:50:47Z</time>
  <course>0.0</course>
  <speed>0.0</speed>
  <fix>3d</fix>
</trkpt>
<trkpt lat="40.0713751" lon="-105.2297889">
  <ele>1583.03</ele>
  <time>2026-08-28T17:50:47Z</time>
  <course>246.99</course>
  <speed>0.022360679774997897</speed>
  <fix>3d</fix>
</trkpt>
<trkpt lat="40.0713749" lon="-105.229789">
  <ele>1583.0</ele>
  <time>2026-08-28T17:50:47Z</time>
  <course>0.0</course>
  <speed>0.0</speed>
  <fix>3d</fix>
</trkpt>
<trkpt lat="40.0713751" lon="-105.2297889">
  <ele>1583.03</ele>
  <time>2026-08-28T17:50:47Z</time>
  <course>246.99</course>
  <speed>0.022360679774997897</speed>
  <fix>3d</fix>
</trkpt>
<trkpt lat="40.0713749" lon="-105.229789">
  <ele>1583.0</ele>
  <time>2026-08-28T17:50:47Z</time>
  <course>0.0</course>
  <speed>0.0</speed>
  <fix>3d</fix>
</trkpt>
<trkpt lat="40.0713751" lon="-105.2297889">
  <ele>1583.02</ele>
  <time>2026-08-28T17:50:47Z</time>
  <course>246.99</course>
  <speed>0.022360679774997897</speed>
  <fix>3d</fix>
</trkpt>
<trkpt lat="40.0713749" lon="-105.229789">
  <ele>1583.0</ele>
  <time>2026-08-28T17:50:47Z</time>
  <course>0.0</course>
  <speed>0.0</speed>
  <fix>3d</fix>
</trkpt>
<trkpt lat="40.0713751" lon="-105.2297889">
  <ele>1583.01</ele>
  <time>2026-08-28T17:50:47Z</time>
  <course>246.99</course>
  <speed>0.022360679774997897</speed>
  <fix>3d</fix>
</trkpt>
<trkpt lat="40.0713749" lon="-105.229789">
  <ele>1583.0</ele>
  <time>2026-08-28T17:50:47Z</time>
  <course>0.0</course>
  <speed>0.0</speed>
  <fix>3d</fix>
</trkpt>
<trkpt lat="40.0713751" lon="-105.2297889">
  <ele>1583.01</ele>
  <time>2026-08-28T17:50:47Z</time>
  <course>246.99</course>
  <speed>0.022360679774997897</speed>
  <fix>3d</fix>
</trkpt>
<trkpt lat="40.0713749" lon="-105.229789">
  <ele>1583.0</ele>
  <time>2026-08-28T17:50:47Z</time>
  <course>0.0</course>
  <speed>0.0</speed>
  <fix>3d</fix>
</trkpt>
<trkpt lat="40.0713751" lon="-105.2297889">
  <ele>1583.0</ele>
  <time>2026-08-28T17:50:47Z</time>
  <course>246.99</course>
  <speed>0.022360679774997897</speed>
  <fix>3d</fix>
</trkpt>
<trkpt lat="40.0713749" lon="-105.229789">
  <ele>1583.0</ele>
  <time>2026-08-28T17:50:47Z</time>
  <course>0.0</course>
  <speed>0.0</speed>
  <fix>3d</fix>
</trkpt>
<trkpt lat="40.0713751" lon="-105.2297889">
  <ele>1583.0</ele>
  <time>2026-08-28T17:50:47Z</time>
  <course>246.99</course>
  <speed>0.022360679774997897</speed>
  <fix>3d</fix>
</trkpt>
<trkpt lat="40.0713749" lon="-105.229789">
  <ele>1583.0</ele>
  <time>2026-08-28T17:50:47Z</time>
  <course>0.0</course>
  <speed>0.0</speed>
  <fix>3d</fix>
</trkpt>
<trkpt lat="40.0713751" lon="-105.2297889">
  <ele>1582.99</ele>
  <time>2026-08-28T17:50:47Z</time>
  <course>246.99</course>
  <speed>0.022360679774997897</speed>
  <fix>3d</fix>
</trkpt>
<trkpt lat="40.0713749" lon="-105.229789">
  <ele>1583.0</ele>
  <time>2026-08-28T17:50:47Z</time>
  <course>0.0</course>
  <speed>0.0</speed>
  <fix>3d</fix>
</trkpt>
<trkpt lat="40.0713751" lon="-105.2297889">
  <ele>1582.98</ele>
  <time>2026-08-28T17:50:47Z</time>
  <course>246.99</course>
  <speed>0.022360679774997897</speed>
  <fix>3d</fix>
</trkpt>
<trkpt lat="40.0713749" lon="-105.229789">
  <ele>1583.0</ele>
  <time>2026-08-28T17:50:47Z</time>
  <course>0.0</course>
  <speed>0.0</speed>
  <fix>3d</fix>
</trkpt>
<trkpt lat="40.0713751" lon="-105.2297889">
  <ele>1582.98</ele>
  <time>2026-08-28T17:50:47Z</time>
  <course>246.99</course>
  <speed>0.022360679774997897</speed>
  <fix>3d</fix>
</trkpt>
<trkpt lat="40.0713749" lon="-105.229789">
  <ele>1583.0</ele>
  <time>2026-08-28T17:50:47Z</time>
  <course>0.0</course>
  <speed>0.0</speed>
  <fix>3d</fix>
</trkpt>
<trkpt lat="40.0713751" lon="-105.2297889">
  <ele>1582.97</ele>
  <time>2026-08-28T17:50:47Z</time>
  <course>246.99</course>
  <speed>0.022360679774997897</speed>
  <fix>3d</fix>
</trkpt>
<trkpt lat="40.0713749" lon="-105.229789">
  <ele>1583.0</ele>
  <time>2026-08-28T17:50:47Z</time>
  <course>0.0</course>
  <speed>0.0</speed>
  <fix>3d</fix>
</trkpt>
<trkpt lat="40.0713751" lon="-105.2297889">
  <ele>1582.97</ele>
  <time>2026-08-28T17:50:47Z</time>
  <course>246.99</course>
  <speed>0.022360679774997897</speed>
  <fix>3d</fix>
</trkpt>
<trkpt lat="40.0713749" lon="-105.229789">
  <ele>1583.0</ele>
  <time>2026-08-28T17:50:47Z</time>
  <course>0.0</course>
  <speed>0.0</speed>
  <fix>3d</fix>
</trkpt>
<trkpt lat="40.0713751" lon="-105.2297889">
  <ele>1582.98</ele>
  <time>2026-08-28T17:50:47Z</time>
  <course>246.99</course>
  <speed>0.022360679774997897</speed>
  <fix>3d</fix>
</trkpt>
<trkpt lat="40.0713749" lon="-105.229789">
  <ele>1583.0</ele>
  <time>2026-08-28T17:50:47Z</time>
  <course>0.0</course>
  <speed>0.0</speed>
  <fix>3d</fix>
</trkpt>
<trkpt lat="40.0713751" lon="-105.2297889">
  <ele>1582.98</ele>
  <time>2026-08-28T17:50:47Z</time>
  <course>246.99</course>
  <speed>0.022360679774997897</speed>
  <fix>3d</fix>
</trkpt>
<trkpt lat="40.0713749" lon="-105.229789">
  <ele>1583.0</ele>
  <time>2026-08-28T17:50:47Z</time>
  <course>0.0</course>
  <speed>0.0</speed>
  <fix>3d</fix>
</trkpt>
<trkpt lat="40.0713751" lon="-105.2297889">
  <ele>1582.98</ele>
  <time>2026-08-28T17:50:47Z</time>
  <course>246.99</course>
  <speed>0.022360679774997897</speed>
  <fix>3d</fix>
</trkpt>
<trkpt lat="40.0713749" lon="-105.229789">
  <ele>1583.0</ele>
  <time>2026-08-28T17:50:47Z</time>
  <course>0.0</course>
  <speed>0.0</speed>
  <fix>3d</fix>
</trkpt>
<trkpt lat="40.0713751" lon="-105.2297889">
  <ele>1582.99</ele>
  <time>2026-08-28T17:50:47Z</time>
  <course>246.99</course>
  <speed>0.022360679774997897</speed>
  <fix>3d</fix>
</trkpt>
<trkpt lat="40.0713749" lon="-105.229789">
  <ele>1583.0</ele>
  <time>2026-08-28T17:50:47Z</time>
  <course>0.0</course>
  <speed>0.0</speed>
  <fix>3d</fix>
</trkpt>
<trkpt lat="40.0713751" lon="-105.2297889">
  <ele>1583.0</ele>
  <time>2026-08-28T17:50:47Z</time>
  <course>246.99</course>
  <speed>0.022360679774997897</speed>
  <fix>3d</fix>
</trkpt>
<trkpt lat="40.0713749" lon="-105.229789">
  <ele>1583.0</ele>
  <time>2026-08-28T17:50:47Z</time>
  <course>0.0</course>
  <speed>0.0</speed>
  <fix>3d</fix>
</trkpt>
<trkpt lat="40.0713751" lon="-105.2297889">
  <ele>1583.0</ele>
  <time>2026-08-28T17:50:47Z</time>
  <course>246.99</course>
  <speed>0.022360679774997897</speed>
  <fix>3d</fix>
</trkpt>
<trkpt lat="40.0713749" lon="-105.229789">
  <ele>1583.0</ele>
  <time>2026-08-28T17:50:47Z</time>
  <course>0.0</course>
  <speed>0.0</speed>
  <fix>3d</fix>
</trkpt>
<trkpt lat="40.0713751" lon="-105.2297889">
  <ele>1583.01</ele>
  <time>2026-08-28T17:50:47Z</time>
  <course>246.99</course>
  <speed>0.022360679774997897</speed>
  <fix>3d</fix>
</trkpt>
<trkpt lat="40.0713749" lon="-105.229789">
  <ele>1583.0</ele>
  <time>2026-08-28T17:50:47Z</time>
  <course>0.0</course>
  <speed>0.0</speed>
  <fix>3d</fix>
</trkpt>
<trkpt lat="40.0713751" lon="-105.2297889">
  <ele>1583.02</ele>
  <time>2026-08-28T17:50:47Z</time>
  <course>246.99</course>
  <speed>0.022360679774997897</speed>
  <fix>3d</fix>
</trkpt>
<trkpt lat="40.0713749" lon="-105.229789">
  <ele>1583.0</ele>
  <time>2026-08-28T17:50:47Z</time>
  <course>0.0</course>
  <speed>0.0</speed>
  <fix>3d</fix>
</trkpt>
<trkpt lat="40.071375" lon="-105.2297889">
  <ele>1583.02</ele>
  <time>2026-08-28T17:50:47Z</time>
  <course>246.99</course>
  <speed>0.022360679774997897</speed>
  <fix>3d</fix>
</trkpt>
<trkpt lat="40.0713749" lon="-105.229789">
  <ele>1583.0</ele>
  <time>2026-08-28T17:50:47Z</time>
  <course>0.0</course>
  <speed>0.0</speed>
  <fix>3d</fix>
</trkpt>
<trkpt lat="40.0713751" lon="-105.2297889">
  <ele>1583.03</ele>
  <time>2026-08-28T17:50:47Z</time>
  <course>246.99</course>
  <speed>0.022360679774997897</speed>
  <fix>3d</fix>
</trkpt>
<trkpt lat="40.0713749" lon="-105.229789">
  <ele>1583.0</ele>
  <time>2026-08-28T17:50:47Z</time>
  <course>0.0</course>
  <speed>0.0</speed>
  <fix>3d</fix>
</trkpt>
<trkpt lat="40.071375" lon="-105.2297889">
  <ele>1583.03</ele>
  <time>2026-08-28T17:50:47Z</time>
  <course>246.99</course>
  <speed>0.022360679774997897</speed>
  <fix>3d</fix>
</trkpt>
<trkpt lat="40.0713749" lon="-105.229789">
  <ele>1583.0</ele>
  <time>2026-08-28T17:50:47Z</time>
  <course>0.0</course>
  <speed>0.0</speed>
  <fix>3d</fix>
</trkpt>
<trkpt lat="40.0713751" lon="-105.2297889">
  <ele>1583.04</ele>
  <time>2026-08-28T17:50:47Z</time>
  <course>246.99</course>
  <speed>0.022360679774997897</speed>
  <fix>3d</fix>
</trkpt>
<trkpt lat="40.0713749" lon="-105.229789">
  <ele>1583.0</ele>
  <time>2026-08-28T17:50:47Z</time>
  <course>0.0</course>
  <speed>0.0</speed>
  <fix>3d</fix>
</trkpt>
<trkpt lat="40.071375" lon="-105.2297889">
  <ele>1583.04</ele>
  <time>2026-08-28T17:50:47Z</time>
  <course>246.99</course>
  <speed>0.022360679774997897</speed>
  <fix>3d</fix>
</trkpt>
<trkpt lat="40.0713749" lon="-105.229789">
  <ele>1583.0</ele>
  <time>2026-08-28T17:50:47Z</time>
  <course>0.0</course>
  <speed>0.0</speed>
  <fix>3d</fix>
</trkpt>
<trkpt lat="40.0713751" lon="-105.2297889">
  <ele>1583.04</ele>
  <time>2026-08-28T17:50:47Z</time>
  <course>246.99</course>
  <speed>0.022360679774997897</speed>
  <fix>3d</fix>
</trkpt>
<trkpt lat="40.0713749" lon="-105.229789">
  <ele>1583.0</ele>
  <time>2026-08-28T17:50:47Z</time>
  <course>0.0</course>
  <speed>0.0</speed>
  <fix>3d</fix>
</trkpt>
<trkpt lat="40.071375" lon="-105.2297889">
  <ele>1583.04</ele>
  <time>2026-08-28T17:50:47Z</time>
  <course>246.99</course>
  <speed>0.022360679774997897</speed>
  <fix>3d</fix>
</trkpt>
<trkpt lat="40.0713749" lon="-105.229789">
  <ele>1583.0</ele>
  <time>2026-08-28T17:50:47Z</time>
  <course>0.0</course>
  <speed>0.0</speed>
  <fix>3d</fix>
</trkpt>
<trkpt lat="40.0713751" lon="-105.2297889">
  <ele>1583.05</ele>
  <time>2026-08-28T17:50:47Z</time>
  <course>246.99</course>
  <speed>0.022360679774997897</speed>
  <fix>3d</fix>
</trkpt>
<trkpt lat="40.0713749" lon="-105.229789">
  <ele>1583.0</ele>
  <time>2026-08-28T17:50:47Z</time>
  <course>0.0</course>
  <speed>0.0</speed>
  <fix>3d</fix>
</trkpt>
<trkpt lat="40.071375" lon="-105.2297889">
  <ele>1583.05</ele>
  <time>2026-08-28T17:50:47Z</time>
  <course>246.99</course>
  <speed>0.022360679774997897</speed>
  <fix>3d</fix>
</trkpt>
<trkpt lat="40.0713749" lon="-105.229789">
  <ele>1583.0</ele>
  <time>2026-08-28T17:50:47Z</time>
  <course>0.0</course>
  <speed>0.0</speed>
  <fix>3d</fix>
</trkpt>
<trkpt lat="40.0713751" lon="-105.2297889">
  <ele>1583.05</ele>
  <time>2026-08-28T17:50:47Z</time>
  <course>246.99</course>
  <speed>0.022360679774997897</speed>
  <fix>3d</fix>
</trkpt>
<trkpt lat="40.0713749" lon="-105.229789">
  <ele>1583.0</ele>
  <time>2026-08-28T17:50:47Z</time>
  <course>0.0</course>
  <speed>0.0</speed>
  <fix>3d</fix>
</trkpt>
<trkpt lat="40.071375" lon="-105.2297889">
  <ele>1583.05</ele>
  <time>2026-08-28T17:50:47Z</time>
  <course>246.99</course>
  <speed>0.022360679774997897</speed>
  <fix>3d</fix>
</trkpt>
<trkpt lat="40.0713749" lon="-105.229789">
  <ele>1583.0</ele>
  <time>2026-08-28T17:50:47Z</time>
  <course>0.0</course>
  <speed>0.0</speed>
  <fix>3d</fix>
</trkpt>
<trkpt lat="40.0713751" lon="-105.2297889">
  <ele>1583.05</ele>
  <time>2026-08-28T17:50:47Z</time>
  <course>246.99</course>
  <speed>0.022360679774997897</speed>
  <fix>3d</fix>
</trkpt>
<trkpt lat="40.0713749" lon="-105.229789">
  <ele>1583.0</ele>
  <time>2026-08-28T17:50:47Z</time>
  <course>0.0</course>
  <speed>0.0</speed>
  <fix>3d</fix>
</trkpt>
<trkpt lat="40.0713751" lon="-105.2297889">
  <ele>1583.05</ele>
  <time>2026-08-28T17:50:47Z</time>
  <course>246.99</course>
  <speed>0.022360679774997897</speed>
  <fix>3d</fix>
</trkpt>
<trkpt lat="40.0713749" lon="-105.229789">
  <ele>1583.0</ele>
  <time>2026-08-28T17:50:47Z</time>
  <course>0.0</course>
  <speed>0.0</speed>
  <fix>3d</fix>
</trkpt>
<trkpt lat="40.0713751" lon="-105.2297889">
  <ele>1583.05</ele>
  <time>2026-08-28T17:50:47Z</time>
  <course>246.99</course>
  <speed>0.022360679774997897</speed>
  <fix>3d</fix>
</trkpt>
<trkpt lat="40.0713749" lon="-105.229789">
  <ele>1583.0</ele>
  <time>2026-08-28T17:50:47Z</time>
  <course>0.0</course>
  <speed>0.0</speed>
  <fix>3d</fix>
</trkpt>
<trkpt lat="40.0713751" lon="-105.2297889">
  <ele>1583.05</ele>
  <time>2026-08-28T17:50:47Z</time>
  <course>246.99</course>
  <speed>0.022360679774997897</speed>
  <fix>3d</fix>
</trkpt>
<trkpt lat="40.0713749" lon="-105.229789">
  <ele>1583.0</ele>
  <time>2026-08-28T17:50:47Z</time>
  <course>0.0</course>
  <speed>0.0</speed>
  <fix>3d</fix>
</trkpt>
<trkpt lat="40.0713751" lon="-105.2297889">
  <ele>1583.05</ele>
  <time>2026-08-28T17:50:47Z</time>
  <course>246.99</course>
  <speed>0.022360679774997897</speed>
  <fix>3d</fix>
</trkpt>
<trkpt lat="40.0713749" lon="-105.229789">
  <ele>1583.0</ele>
  <time>2026-08-28T17:50:47Z</time>
  <course>0.0</course>
  <speed>0.0</speed>
  <fix>3d</fix>
</trkpt>
<trkpt lat="40.0713751" lon="-105.2297889">
  <ele>1583.05</ele>
  <time>2026-08-28T17:50:47Z</time>
  <course>246.99</course>
  <speed>0.022360679774997897</speed>
  <fix>3d</fix>
</trkpt>
<trkpt lat="40.0713749" lon="-105.229789">
  <ele>1583.0</ele>
  <time>2026-08-28T17:50:47Z</time>
  <course>0.0</course>
  <speed>0.0</speed>
  <fix>3d</fix>
</trkpt>
<trkpt lat="40.0713751" lon="-105.2297889">
  <ele>1583.05</ele>
  <time>2026-08-28T17:50:47Z</time>
  <course>246.99</course>
  <speed>0.022360679774997897</speed>
  <fix>3d</fix>
</trkpt>
<trkpt lat="40.0713749" lon="-105.229789">
  <ele>1583.0</ele>
  <time>2026-08-28T17:50:47Z</time>
  <course>0.0</course>
  <speed>0.0</speed>
  <fix>3d</fix>
</trkpt>
<trkpt lat="40.0713751" lon="-105.2297889">
  <ele>1583.05</ele>
  <time>2026-08-28T17:50:47Z</time>
  <course>246.99</course>
  <speed>0.022360679774997897</speed>
  <fix>3d</fix>
</trkpt>
<trkpt lat="40.0713749" lon="-105.229789">
  <ele>1583.0</ele>
  <time>2026-08-28T17:50:47Z</time>
  <course>0.0</course>
  <speed>0.0</speed>
  <fix>3d</fix>
</trkpt>
<trkpt lat="40.0713751" lon="-105.2297889">
  <ele>1583.04</ele>
  <time>2026-08-28T17:50:47Z</time>
  <course>246.99</course>
  <speed>0.022360679774997897</speed>
  <fix>3d</fix>
</trkpt>
<trkpt lat="40.0713749" lon="-105.229789">
  <ele>1583.0</ele>
  <time>2026-08-28T17:50:47Z</time>
  <course>0.0</course>
  <speed>0.0</speed>
  <fix>3d</fix>
</trkpt>
<trkpt lat="40.071375" lon="-105.2297889">
  <ele>1583.05</ele>
  <time>2026-08-28T17:50:47Z</time>
  <course>246.99</course>
  <speed>0.022360679774997897</speed>
  <fix>3d</fix>
</trkpt>
<trkpt lat="40.0713749" lon="-105.229789">
  <ele>1583.0</ele>
  <time>2026-08-28T17:50:47Z</time>
  <course>0.0</course>
  <speed>0.0</speed>
  <fix>3d</fix>
</trkpt>
<trkpt lat="40.0713751" lon="-105.2297889">
  <ele>1583.05</ele>
  <time>2026-08-28T17:50:47Z</time>
  <course>246.99</course>
  <speed>0.022360679774997897</speed>
  <fix>3d</fix>
</trkpt>
<trkpt lat="40.0713749" lon="-105.229789">
  <ele>1583.0</ele>
  <time>2026-08-28T17:50:47Z</time>
  <course>0.0</course>
  <speed>0.0</speed>
  <fix>3d</fix>
</trkpt>
<trkpt lat="40.071375" lon="-105.2297889">
  <ele>1583.05</ele>
  <time>2026-08-28T17:50:47Z</time>
  <course>246.99</course>
  <speed>0.022360679774997897</speed>
  <fix>3d</fix>
</trkpt>
<trkpt lat="40.0713749" lon="-105.229789">
  <ele>1583.0</ele>
  <time>2026-08-28T17:50:47Z</time>
  <course>0.0</course>
  <speed>0.0</speed>
  <fix>3d</fix>
</trkpt>
<trkpt lat="40.071375" lon="-105.2297889">
  <ele>1583.06</ele>
  <time>2026-08-28T17:50:47Z</time>
  <course>246.99</course>
  <speed>0.022360679774997897</speed>
  <fix>3d</fix>
</trkpt>
<trkpt lat="40.0713749" lon="-105.229789">
  <ele>1583.0</ele>
  <time>2026-08-28T17:50:47Z</time>
  <course>0.0</course>
  <speed>0.0</speed>
  <fix>3d</fix>
</trkpt>
<trkpt lat="40.071375" lon="-105.2297889">
  <ele>1583.06</ele>
  <time>2026-08-28T17:50:47Z</time>
  <course>246.99</course>
  <speed>0.022360679774997897</speed>
  <fix>3d</fix>
</trkpt>
<trkpt lat="40.0713749" lon="-105.229789">
  <ele>1583.0</ele>
  <time>2026-08-28T17:50:47Z</time>
  <course>0.0</course>
  <speed>0.0</speed>
  <fix>3d</fix>
</trkpt>
<trkpt lat="40.071375" lon="-105.2297889">
  <ele>1583.06</ele>
  <time>2026-08-28T17:50:47Z</time>
  <course>246.99</course>
  <speed>0.022360679774997897</speed>
  <fix>3d</fix>
</trkpt>
<trkpt lat="40.0713749" lon="-105.229789">
  <ele>1583.0</ele>
  <time>2026-08-28T17:50:47Z</time>
  <course>0.0</course>
  <speed>0.0</speed>
  <fix>3d</fix>
</trkpt>
<trkpt lat="40.071375" lon="-105.2297889">
  <ele>1583.06</ele>
  <time>2026-08-28T17:50:47Z</time>
  <course>246.99</course>
  <speed>0.022360679774997897</speed>
  <fix>3d</fix>
</trkpt>
<trkpt lat="40.0713749" lon="-105.229789">
  <ele>1583.0</ele>
  <time>2026-08-28T17:50:47Z</time>
  <course>0.0</course>
  <speed>0.0</speed>
  <fix>3d</fix>
</trkpt>
<trkpt lat="40.0713751" lon="-105.2297889">
  <ele>1583.06</ele>
  <time>2026-08-28T17:50:47Z</time>
  <course>246.99</course>
  <speed>0.022360679774997897</speed>
  <fix>3d</fix>
</trkpt>
<trkpt lat="40.0713749" lon="-105.229789">
  <ele>1583.0</ele>
  <time>2026-08-28T17:50:47Z</time>
  <course>0.0</course>
  <speed>0.0</speed>
  <fix>3d</fix>
</trkpt>
<trkpt lat="40.071375" lon="-105.2297889">
  <ele>1583.07</ele>
  <time>2026-08-28T17:50:47Z</time>
  <course>246.99</course>
  <speed>0.022360679774997897</speed>
  <fix>3d</fix>
</trkpt>
<trkpt lat="40.0713749" lon="-105.229789">
  <ele>1583.0</ele>
  <time>2026-08-28T17:50:47Z</time>
  <course>0.0</course>
  <speed>0.0</speed>
  <fix>3d</fix>
</trkpt>
<trkpt lat="40.0713751" lon="-105.2297889">
  <ele>1583.07</ele>
  <time>2026-08-28T17:50:47Z</time>
  <course>246.99</course>
  <speed>0.022360679774997897</speed>
  <fix>3d</fix>
</trkpt>
<trkpt lat="40.0713749" lon="-105.229789">
  <ele>1583.0</ele>
  <time>2026-08-28T17:50:47Z</time>
  <course>0.0</course>
  <speed>0.0</speed>
  <fix>3d</fix>
</trkpt>
<trkpt lat="40.071375" lon="-105.2297889">
  <ele>1583.08</ele>
  <time>2026-08-28T17:50:47Z</time>
  <course>246.99</course>
  <speed>0.022360679774997897</speed>
  <fix>3d</fix>
</trkpt>
<trkpt lat="40.0713749" lon="-105.229789">
  <ele>1583.0</ele>
  <time>2026-08-28T17:50:47Z</time>
  <course>0.0</course>
  <speed>0.0</speed>
  <fix>3d</fix>
</trkpt>
<trkpt lat="40.0713751" lon="-105.2297889">
  <ele>1583.08</ele>
  <time>2026-08-28T17:50:47Z</time>
  <course>246.99</course>
  <speed>0.022360679774997897</speed>
  <fix>3d</fix>
</trkpt>
<trkpt lat="40.0713749" lon="-105.229789">
  <ele>1583.0</ele>
  <time>2026-08-28T17:50:47Z</time>
  <course>0.0</course>
  <speed>0.0</speed>
  <fix>3d</fix>
</trkpt>
<trkpt lat="40.071375" lon="-105.2297889">
  <ele>1583.09</ele>
  <time>2026-08-28T17:50:47Z</time>
  <course>246.99</course>
  <speed>0.022360679774997897</speed>
  <fix>3d</fix>
</trkpt>
<trkpt lat="40.0713749" lon="-105.229789">
  <ele>1583.0</ele>
  <time>2026-08-28T17:50:47Z</time>
  <course>0.0</course>
  <speed>0.0</speed>
  <fix>3d</fix>
</trkpt>
<trkpt lat="40.0713751" lon="-105.2297889">
  <ele>1583.09</ele>
  <time>2026-08-28T17:50:47Z</time>
  <course>246.99</course>
  <speed>0.022360679774997897</speed>
  <fix>3d</fix>
</trkpt>
<trkpt lat="40.0713749" lon="-105.229789">
  <ele>1583.0</ele>
  <time>2026-08-28T17:50:47Z</time>
  <course>0.0</course>
  <speed>0.0</speed>
  <fix>3d</fix>
</trkpt>
<trkpt lat="40.071375" lon="-105.2297889">
  <ele>1583.1</ele>
  <time>2026-08-28T17:50:47Z</time>
  <course>246.99</course>
  <speed>0.022360679774997897</speed>
  <fix>3d</fix>
</trkpt>
<trkpt lat="40.0713749" lon="-105.229789">
  <ele>1583.0</ele>
  <time>2026-08-28T17:50:47Z</time>
  <course>0.0</course>
  <speed>0.0</speed>
  <fix>3d</fix>
</trkpt>
<trkpt lat="40.0713751" lon="-105.2297889">
  <ele>1583.1</ele>
  <time>2026-08-28T17:50:47Z</time>
  <course>246.99</course>
  <speed>0.022360679774997897</speed>
  <fix>3d</fix>
</trkpt>
<trkpt lat="40.0713749" lon="-105.229789">
  <ele>1583.0</ele>
  <time>2026-08-28T17:50:47Z</time>
  <course>0.0</course>
  <speed>0.0</speed>
  <fix>3d</fix>
</trkpt>
<trkpt lat="40.071375" lon="-105.2297889">
  <ele>1583.11</ele>
  <time>2026-08-28T17:50:47Z</time>
  <course>246.99</course>
  <speed>0.022360679774997897</speed>
  <fix>3d</fix>
</trkpt>
<trkpt lat="40.0713749" lon="-105.229789">
  <ele>1583.0</ele>
  <time>2026-08-28T17:50:47Z</time>
  <course>0.0</course>
  <speed>0.0</speed>
  <fix>3d</fix>
</trkpt>
<trkpt lat="40.0713751" lon="-105.2297889">
  <ele>1583.12</ele>
  <time>2026-08-28T17:50:47Z</time>
  <course>246.99</course>
  <speed>0.022360679774997897</speed>
  <fix>3d</fix>
</trkpt>
<trkpt lat="40.0713749" lon="-105.229789">
  <ele>1583.0</ele>
  <time>2026-08-28T17:50:47Z</time>
  <course>0.0</course>
  <speed>0.0</speed>
  <fix>3d</fix>
</trkpt>
<trkpt lat="40.071375" lon="-105.2297889">
  <ele>1583.12</ele>
  <time>2026-08-28T17:50:47Z</time>
  <course>246.99</course>
  <speed>0.022360679774997897</speed>
  <fix>3d</fix>
</trkpt>
<trkpt lat="40.0713749" lon="-105.229789">
  <ele>1583.0</ele>
  <time>2026-08-28T17:50:47Z</time>
  <course>0.0</course>
  <speed>0.0</speed>
  <fix>3d</fix>
</trkpt>
<trkpt lat="40.0713751" lon="-105.2297889">
  <ele>1583.12</ele>
  <time>2026-08-28T17:50:47Z</time>
  <course>246.99</course>
  <speed>0.022360679774997897</speed>
  <fix>3d</fix>
</trkpt>
<trkpt lat="40.0713749" lon="-105.229789">
  <ele>1583.0</ele>
  <time>2026-08-28T17:50:47Z</time>
  <course>0.0</course>
  <speed>0.0</speed>
  <fix>3d</fix>
</trkpt>
<trkpt lat="40.071375" lon="-105.2297889">
  <ele>1583.13</ele>
  <time>2026-08-28T17:50:47Z</time>
  <course>246.99</course>
  <speed>0.022360679774997897</speed>
  <fix>3d</fix>
</trkpt>
<trkpt lat="40.0713749" lon="-105.229789">
  <ele>1583.0</ele>
  <time>2026-08-28T17:50:47Z</time>
  <course>0.0</course>
  <speed>0.0</speed>
  <fix>3d</fix>
</trkpt>
<trkpt lat="40.0713751" lon="-105.2297889">
  <ele>1583.13</ele>
  <time>2026-08-28T17:50:47Z</time>
  <course>246.99</course>
  <speed>0.022360679774997897</speed>
  <fix>3d</fix>
</trkpt>
<trkpt lat="40.0713749" lon="-105.229789">
  <ele>1583.0</ele>
  <time>2026-08-28T17:50:47Z</time>
  <course>0.0</course>
  <speed>0.0</speed>
  <fix>3d</fix>
</trkpt>
<trkpt lat="40.071375" lon="-105.2297889">
  <ele>1583.13</ele>
  <time>2026-08-28T17:50:47Z</time>
  <course>246.99</course>
  <speed>0.022360679774997897</speed>
  <fix>3d</fix>
</trkpt>
<trkpt lat="40.0713749" lon="-105.229789">
  <ele>1583.0</ele>
  <time>2026-08-28T17:50:47Z</time>
  <course>0.0</course>
  <speed>0.0</speed>
  <fix>3d</fix>
</trkpt>
<trkpt lat="40.071375" lon="-105.2297889">
  <ele>1583.12</ele>
  <time>2026-08-28T17:50:47Z</time>
  <course>246.99</course>
  <speed>0.022360679774997897</speed>
  <fix>3d</fix>
</trkpt>
<trkpt lat="40.0713749" lon="-105.229789">
  <ele>1583.0</ele>
  <time>2026-08-28T17:50:47Z</time>
  <course>0.0</course>
  <speed>0.0</speed>
  <fix>3d</fix>
</trkpt>
<trkpt lat="40.071375" lon="-105.2297889">
  <ele>1583.13</ele>
  <time>2026-08-28T17:50:47Z</time>
  <course>246.99</course>
  <speed>0.022360679774997897</speed>
  <fix>3d</fix>
</trkpt>
<trkpt lat="40.0713749" lon="-105.229789">
  <ele>1583.0</ele>
  <time>2026-08-28T17:50:47Z</time>
  <course>0.0</course>
  <speed>0.0</speed>
  <fix>3d</fix>
</trkpt>
<trkpt lat="40.071375" lon="-105.2297889">
  <ele>1583.13</ele>
  <time>2026-08-28T17:50:47Z</time>
  <course>246.99</course>
  <speed>0.022360679774997897</speed>
  <fix>3d</fix>
</trkpt>
<trkpt lat="40.0713749" lon="-105.229789">
  <ele>1583.0</ele>
  <time>2026-08-28T17:50:47Z</time>
  <course>0.0</course>
  <speed>0.0</speed>
  <fix>3d</fix>
</trkpt>
<trkpt lat="40.071375" lon="-105.2297889">
  <ele>1583.13</ele>
  <time>2026-08-28T17:50:47Z</time>
  <course>246.99</course>
  <speed>0.022360679774997897</speed>
  <fix>3d</fix>
</trkpt>
<trkpt lat="40.0713749" lon="-105.229789">
  <ele>1583.0</ele>
  <time>2026-08-28T17:50:47Z</time>
  <course>0.0</course>
  <speed>0.0</speed>
  <fix>3d</fix>
</trkpt>
<trkpt lat="40.071375" lon="-105.2297889">
  <ele>1583.12</ele>
  <time>2026-08-28T17:50:47Z</time>
  <course>246.99</course>
  <speed>0.022360679774997897</speed>
  <fix>3d</fix>
</trkpt>
<trkpt lat="40.0713749" lon="-105.229789">
  <ele>1583.0</ele>
  <time>2026-08-28T17:50:47Z</time>
  <course>0.0</course>
  <speed>0.0</speed>
  <fix>3d</fix>
</trkpt>
<trkpt lat="40.071375" lon="-105.2297889">
  <ele>1583.12</ele>
  <time>2026-08-28T17:50:47Z</time>
  <course>246.99</course>
  <speed>0.022360679774997897</speed>
  <fix>3d</fix>
</trkpt>
<trkpt lat="40.0713749" lon="-105.229789">
  <ele>1583.0</ele>
  <time>2026-08-28T17:50:47Z</time>
  <course>0.0</course>
  <speed>0.0</speed>
  <fix>3d</fix>
</trkpt>
<trkpt lat="40.071375" lon="-105.2297889">
  <ele>1583.12</ele>
  <time>2026-08-28T17:50:47Z</time>
  <course>246.99</course>
  <speed>0.022360679774997897</speed>
  <fix>3d</fix>
</trkpt>
<trkpt lat="40.0713749" lon="-105.229789">
  <ele>1583.0</ele>
  <time>2026-08-28T17:50:47Z</time>
  <course>0.0</course>
  <speed>0.0</speed>
  <fix>3d</fix>
</trkpt>
<trkpt lat="40.071375" lon="-105.2297889">
  <ele>1583.12</ele>
  <time>2026-08-28T17:50:47Z</time>
  <course>246.99</course>
  <speed>0.022360679774997897</speed>
  <fix>3d</fix>
</trkpt>
<trkpt lat="40.0713749" lon="-105.229789">
  <ele>1583.0</ele>
  <time>2026-08-28T17:50:47Z</time>
  <course>0.0</course>
  <speed>0.0</speed>
  <fix>3d</fix>
</trkpt>
<trkpt lat="40.071375" lon="-105.2297889">
  <ele>1583.11</ele>
  <time>2026-08-28T17:50:47Z</time>
  <course>246.99</course>
  <speed>0.022360679774997897</speed>
  <fix>3d</fix>
</trkpt>
<trkpt lat="40.0713749" lon="-105.229789">
  <ele>1583.0</ele>
  <time>2026-08-28T17:50:47Z</time>
  <course>0.0</course>
  <speed>0.0</speed>
  <fix>3d</fix>
</trkpt>
<trkpt lat="40.071375" lon="-105.2297889">
  <ele>1583.1</ele>
  <time>2026-08-28T17:50:47Z</time>
  <course>246.99</course>
  <speed>0.022360679774997897</speed>
  <fix>3d</fix>
</trkpt>
<trkpt lat="40.0713749" lon="-105.229789">
  <ele>1583.0</ele>
  <time>2026-08-28T17:50:47Z</time>
  <course>0.0</course>
  <speed>0.0</speed>
  <fix>3d</fix>
</trkpt>
<trkpt lat="40.071375" lon="-105.2297889">
  <ele>1583.1</ele>
  <time>2026-08-28T17:50:47Z</time>
  <course>246.99</course>
  <speed>0.022360679774997897</speed>
  <fix>3d</fix>
</trkpt>
<trkpt lat="40.0713749" lon="-105.229789">
  <ele>1583.0</ele>
  <time>2026-08-28T17:50:47Z</time>
  <course>0.0</course>
  <speed>0.0</speed>
  <fix>3d</fix>
</trkpt>
<trkpt lat="40.071375" lon="-105.2297889">
  <ele>1583.09</ele>
  <time>2026-08-28T17:50:47Z</time>
  <course>246.99</course>
  <speed>0.022360679774997897</speed>
  <fix>3d</fix>
</trkpt>
<trkpt lat="40.0713749" lon="-105.229789">
  <ele>1583.0</ele>
  <time>2026-08-28T17:50:47Z</time>
  <course>0.0</course>
  <speed>0.0</speed>
  <fix>3d</fix>
</trkpt>
<trkpt lat="40.0713751" lon="-105.2297889">
  <ele>1583.08</ele>
  <time>2026-08-28T17:50:47Z</time>
  <course>246.99</course>
  <speed>0.022360679774997897</speed>
  <fix>3d</fix>
</trkpt>
<trkpt lat="40.0713749" lon="-105.229789">
  <ele>1583.0</ele>
  <time>2026-08-28T17:50:47Z</time>
  <course>0.0</course>
  <speed>0.0</speed>
  <fix>3d</fix>
</trkpt>
<trkpt lat="40.071375" lon="-105.2297889">
  <ele>1583.07</ele>
  <time>2026-08-28T17:50:47Z</time>
  <course>246.99</course>
  <speed>0.022360679774997897</speed>
  <fix>3d</fix>
</trkpt>
<trkpt lat="40.0713749" lon="-105.229789">
  <ele>1583.0</ele>
  <time>2026-08-28T17:50:47Z</time>
  <course>0.0</course>
  <speed>0.0</speed>
  <fix>3d</fix>
</trkpt>
<trkpt lat="40.0713751" lon="-105.2297889">
  <ele>1583.06</ele>
  <time>2026-08-28T17:50:47Z</time>
  <course>246.99</course>
  <speed>0.022360679774997897</speed>
  <fix>3d</fix>
</trkpt>
<trkpt lat="40.0713749" lon="-105.229789">
  <ele>1583.0</ele>
  <time>2026-08-28T17:50:47Z</time>
  <course>0.0</course>
  <speed>0.0</speed>
  <fix>3d</fix>
</trkpt>
<trkpt lat="40.071375" lon="-105.2297889">
  <ele>1583.05</ele>
  <time>2026-08-28T17:50:47Z</time>
  <course>246.99</course>
  <speed>0.022360679774997897</speed>
  <fix>3d</fix>
</trkpt>
<trkpt lat="40.0713749" lon="-105.229789">
  <ele>1583.0</ele>
  <time>2026-08-28T17:50:47Z</time>
  <course>0.0</course>
  <speed>0.0</speed>
  <fix>3d</fix>
</trkpt>
<trkpt lat="40.0713751" lon="-105.2297889">
  <ele>1583.05</ele>
  <time>2026-08-28T17:50:47Z</time>
  <course>246.99</course>
  <speed>0.022360679774997897</speed>
  <fix>3d</fix>
</trkpt>
<trkpt lat="40.0713749" lon="-105.229789">
  <ele>1583.0</ele>
  <time>2026-08-28T17:50:47Z</time>
  <course>0.0</course>
  <speed>0.0</speed>
  <fix>3d</fix>
</trkpt>
<trkpt lat="40.071375" lon="-105.2297889">
  <ele>1583.04</ele>
  <time>2026-08-28T17:50:47Z</time>
  <course>246.99</course>
  <speed>0.022360679774997897</speed>
  <fix>3d</fix>
</trkpt>
<trkpt lat="40.0713749" lon="-105.229789">
  <ele>1583.0</ele>
  <time>2026-08-28T17:50:47Z</time>
  <course>0.0</course>
  <speed>0.0</speed>
  <fix>3d</fix>
</trkpt>
<trkpt lat="40.0713751" lon="-105.2297889">
  <ele>1583.04</ele>
  <time>2026-08-28T17:50:47Z</time>
  <course>246.99</course>
  <speed>0.022360679774997897</speed>
  <fix>3d</fix>
</trkpt>
<trkpt lat="40.0713749" lon="-105.229789">
  <ele>1583.0</ele>
  <time>2026-08-28T17:50:47Z</time>
  <course>0.0</course>
  <speed>0.0</speed>
  <fix>3d</fix>
</trkpt>
<trkpt lat="40.071375" lon="-105.2297889">
  <ele>1583.04</ele>
  <time>2026-08-28T17:50:47Z</time>
  <course>246.99</course>
  <speed>0.022360679774997897</speed>
  <fix>3d</fix>
</trkpt>
<trkpt lat="40.0713749" lon="-105.229789">
  <ele>1583.0</ele>
  <time>2026-08-28T17:50:47Z</time>
  <course>0.0</course>
  <speed>0.0</speed>
  <fix>3d</fix>
</trkpt>
<trkpt lat="40.071375" lon="-105.2297889">
  <ele>1583.05</ele>
  <time>2026-08-28T17:50:47Z</time>
  <course>246.99</course>
  <speed>0.022360679774997897</speed>
  <fix>3d</fix>
</trkpt>
<trkpt lat="40.0713749" lon="-105.229789">
  <ele>1583.0</ele>
  <time>2026-08-28T17:50:47Z</time>
  <course>0.0</course>
  <speed>0.0</speed>
  <fix>3d</fix>
</trkpt>
<trkpt lat="40.071375" lon="-105.2297889">
  <ele>1583.05</ele>
  <time>2026-08-28T17:50:47Z</time>
  <course>246.99</course>
  <speed>0.022360679774997897</speed>
  <fix>3d</fix>
</trkpt>
<trkpt lat="40.0713749" lon="-105.229789">
  <ele>1583.0</ele>
  <time>2026-08-28T17:50:47Z</time>
  <course>0.0</course>
  <speed>0.0</speed>
  <fix>3d</fix>
</trkpt>
<trkpt lat="40.071375" lon="-105.2297889">
  <ele>1583.05</ele>
  <time>2026-08-28T17:50:47Z</time>
  <course>246.99</course>
  <speed>0.022360679774997897</speed>
  <fix>3d</fix>
</trkpt>
<trkpt lat="40.0713749" lon="-105.229789">
  <ele>1583.0</ele>
  <time>2026-08-28T17:50:47Z</time>
  <course>0.0</course>
  <speed>0.0</speed>
  <fix>3d</fix>
</trkpt>
<trkpt lat="40.071375" lon="-105.2297889">
  <ele>1583.05</ele>
  <time>2026-08-28T17:50:47Z</time>
  <course>246.99</course>
  <speed>0.022360679774997897</speed>
  <fix>3d</fix>
</trkpt>
<trkpt lat="40.0713749" lon="-105.229789">
  <ele>1583.0</ele>
  <time>2026-08-28T17:50:47Z</time>
  <course>0.0</course>
  <speed>0.0</speed>
  <fix>3d</fix>
</trkpt>
<trkpt lat="40.071375" lon="-105.2297889">
  <ele>1583.06</ele>
  <time>2026-08-28T17:50:47Z</time>
  <course>246.99</course>
  <speed>0.022360679774997897</speed>
  <fix>3d</fix>
</trkpt>
<trkpt lat="40.0713749" lon="-105.229789">
  <ele>1583.0</ele>
  <time>2026-08-28T17:50:47Z</time>
  <course>0.0</course>
  <speed>0.0</speed>
  <fix>3d</fix>
</trkpt>
<trkpt lat="40.071375" lon="-105.2297889">
  <ele>1583.06</ele>
  <time>2026-08-28T17:50:47Z</time>
  <course>246.99</course>
  <speed>0.022360679774997897</speed>
  <fix>3d</fix>
</trkpt>
<trkpt lat="40.0713749" lon="-105.229789">
  <ele>1583.0</ele>
  <time>2026-08-28T17:50:47Z</time>
  <course>0.0</course>
  <speed>0.0</speed>
  <fix>3d</fix>
</trkpt>
<trkpt lat="40.071375" lon="-105.2297889">
  <ele>1583.06</ele>
  <time>2026-08-28T17:50:47Z</time>
  <course>246.99</course>
  <speed>0.022360679774997897</speed>
  <fix>3d</fix>
</trkpt>
<trkpt lat="40.0713749" lon="-105.229789">
  <ele>1583.0</ele>
  <time>2026-08-28T17:50:47Z</time>
  <course>0.0</course>
  <speed>0.0</speed>
  <fix>3d</fix>
</trkpt>
<trkpt lat="40.071375" lon="-105.2297889">
  <ele>1583.06</ele>
  <time>2026-08-28T17:50:47Z</time>
  <course>246.99</course>
  <speed>0.022360679774997897</speed>
  <fix>3d</fix>
</trkpt>
<trkpt lat="40.0713749" lon="-105.229789">
  <ele>1583.0</ele>
  <time>2026-08-28T17:50:47Z</time>
  <course>0.0</course>
  <speed>0.0</speed>
  <fix>3d</fix>
</trkpt>
<trkpt lat="40.071375" lon="-105.2297889">
  <ele>1583.06</ele>
  <time>2026-08-28T17:50:47Z</time>
  <course>246.99</course>
  <speed>0.022360679774997897</speed>
  <fix>3d</fix>
</trkpt>
<trkpt lat="40.0713749" lon="-105.229789">
  <ele>1583.0</ele>
  <time>2026-08-28T17:50:47Z</time>
  <course>0.0</course>
  <speed>0.0</speed>
  <fix>3d</fix>
</trkpt>
<trkpt lat="40.071375" lon="-105.2297889">
  <ele>1583.05</ele>
  <time>2026-08-28T17:50:47Z</time>
  <course>246.99</course>
  <speed>0.022360679774997897</speed>
  <fix>3d</fix>
</trkpt>
<trkpt lat="40.0713749" lon="-105.229789">
  <ele>1583.0</ele>
  <time>2026-08-28T17:50:47Z</time>
  <course>0.0</course>
  <speed>0.0</speed>
  <fix>3d</fix>
</trkpt>
<trkpt lat="40.0713751" lon="-105.2297889">
  <ele>1583.05</ele>
  <time>2026-08-28T17:50:47Z</time>
  <course>246.99</course>
  <speed>0.022360679774997897</speed>
  <fix>3d</fix>
</trkpt>
<trkpt lat="40.0713749" lon="-105.229789">
  <ele>1583.0</ele>
  <time>2026-08-28T17:50:47Z</time>
  <course>0.0</course>
  <speed>0.0</speed>
  <fix>3d</fix>
</trkpt>
<trkpt lat="40.071375" lon="-105.2297889">
  <ele>1583.05</ele>
  <time>2026-08-28T17:50:47Z</time>
  <course>246.99</course>
  <speed>0.022360679774997897</speed>
  <fix>3d</fix>
</trkpt>
<trkpt lat="40.0713749" lon="-105.229789">
  <ele>1583.0</ele>
  <time>2026-08-28T17:50:47Z</time>
  <course>0.0</course>
  <speed>0.0</speed>
  <fix>3d</fix>
</trkpt>
<trkpt lat="40.0713751" lon="-105.2297889">
  <ele>1583.05</ele>
  <time>2026-08-28T17:50:47Z</time>
  <course>246.99</course>
  <speed>0.022360679774997897</speed>
  <fix>3d</fix>
</trkpt>
<trkpt lat="40.0713749" lon="-105.229789">
  <ele>1583.0</ele>
  <time>2026-08-28T17:50:47Z</time>
  <course>0.0</course>
  <speed>0.0</speed>
  <fix>3d</fix>
</trkpt>
<trkpt lat="40.071375" lon="-105.2297889">
  <ele>1583.04</ele>
  <time>2026-08-28T17:50:47Z</time>
  <course>246.99</course>
  <speed>0.022360679774997897</speed>
  <fix>3d</fix>
</trkpt>
<trkpt lat="40.0713749" lon="-105.229789">
  <ele>1583.0</ele>
  <time>2026-08-28T17:50:47Z</time>
  <course>0.0</course>
  <speed>0.0</speed>
  <fix>3d</fix>
</trkpt>
<trkpt lat="40.0713751" lon="-105.2297889">
  <ele>1583.04</ele>
  <time>2026-08-28T17:50:47Z</time>
  <course>246.99</course>
  <speed>0.022360679774997897</speed>
  <fix>3d</fix>
</trkpt>
<trkpt lat="40.0713749" lon="-105.229789">
  <ele>1583.0</ele>
  <time>2026-08-28T17:50:47Z</time>
  <course>0.0</course>
  <speed>0.0</speed>
  <fix>3d</fix>
</trkpt>
<trkpt lat="40.0713751" lon="-105.2297889">
  <ele>1583.04</ele>
  <time>2026-08-28T17:50:47Z</time>
  <course>246.99</course>
  <speed>0.022360679774997897</speed>
  <fix>3d</fix>
</trkpt>
<trkpt lat="40.0713749" lon="-105.229789">
  <ele>1583.0</ele>
  <time>2026-08-28T17:50:47Z</time>
  <course>0.0</course>
  <speed>0.0</speed>
  <fix>3d</fix>
</trkpt>
<trkpt lat="40.0713751" lon="-105.2297889">
  <ele>1583.04</ele>
  <time>2026-08-28T17:50:47Z</time>
  <course>246.99</course>
  <speed>0.022360679774997897</speed>
  <fix>3d</fix>
</trkpt>
<trkpt lat="40.0713749" lon="-105.229789">
  <ele>1583.0</ele>
  <time>2026-08-28T17:50:47Z</time>
  <course>0.0</course>
  <speed>0.0</speed>
  <fix>3d</fix>
</trkpt>
<trkpt lat="40.0713751" lon="-105.2297889">
  <ele>1583.04</ele>
  <time>2026-08-28T17:50:47Z</time>
  <course>246.99</course>
  <speed>0.022360679774997897</speed>
  <fix>3d</fix>
</trkpt>
<trkpt lat="40.0713749" lon="-105.229789">
  <ele>1583.0</ele>
  <time>2026-08-28T17:50:47Z</time>
  <course>0.0</course>
  <speed>0.0</speed>
  <fix>3d</fix>
</trkpt>
<trkpt lat="40.0713751" lon="-105.2297889">
  <ele>1583.04</ele>
  <time>2026-08-28T17:50:47Z</time>
  <course>246.99</course>
  <speed>0.022360679774997897</speed>
  <fix>3d</fix>
</trkpt>
<trkpt lat="40.0713749" lon="-105.229789">
  <ele>1583.0</ele>
  <time>2026-08-28T17:50:47Z</time>
  <course>0.0</course>
  <speed>0.0</speed>
  <fix>3d</fix>
</trkpt>
<trkpt lat="40.071375" lon="-105.2297889">
  <ele>1583.04</ele>
  <time>2026-08-28T17:50:47Z</time>
  <course>246.99</course>
  <speed>0.022360679774997897</speed>
  <fix>3d</fix>
</trkpt>
<trkpt lat="40.0713749" lon="-105.229789">
  <ele>1583.0</ele>
  <time>2026-08-28T17:50:47Z</time>
  <course>0.0</course>
  <speed>0.0</speed>
  <fix>3d</fix>
</trkpt>
<trkpt lat="40.0713751" lon="-105.2297889">
  <ele>1583.04</ele>
  <time>2026-08-28T17:50:47Z</time>
  <course>246.99</course>
  <speed>0.022360679774997897</speed>
  <fix>3d</fix>
</trkpt>
<trkpt lat="40.0713749" lon="-105.229789">
  <ele>1583.0</ele>
  <time>2026-08-28T17:50:47Z</time>
  <course>0.0</course>
  <speed>0.0</speed>
  <fix>3d</fix>
</trkpt>
<trkpt lat="40.071375" lon="-105.2297889">
  <ele>1583.03</ele>
  <time>2026-08-28T17:50:47Z</time>
  <course>246.99</course>
  <speed>0.022360679774997897</speed>
  <fix>3d</fix>
</trkpt>
<trkpt lat="40.0713749" lon="-105.229789">
  <ele>1583.0</ele>
  <time>2026-08-28T17:50:47Z</time>
  <course>0.0</course>
  <speed>0.0</speed>
  <fix>3d</fix>
</trkpt>
<trkpt lat="40.0713751" lon="-105.2297889">
  <ele>1583.03</ele>
  <time>2026-08-28T17:50:47Z</time>
  <course>246.99</course>
  <speed>0.022360679774997897</speed>
  <fix>3d</fix>
</trkpt>
<trkpt lat="40.0713749" lon="-105.229789">
  <ele>1583.0</ele>
  <time>2026-08-28T17:50:47Z</time>
  <course>0.0</course>
  <speed>0.0</speed>
  <fix>3d</fix>
</trkpt>
<trkpt lat="40.071375" lon="-105.2297889">
  <ele>1583.03</ele>
  <time>2026-08-28T17:50:47Z</time>
  <course>246.99</course>
  <speed>0.022360679774997897</speed>
  <fix>3d</fix>
</trkpt>
<trkpt lat="40.0713749" lon="-105.229789">
  <ele>1583.0</ele>
  <time>2026-08-28T17:50:47Z</time>
  <course>0.0</course>
  <speed>0.0</speed>
  <fix>3d</fix>
</trkpt>
<trkpt lat="40.0713751" lon="-105.2297889">
  <ele>1583.03</ele>
  <time>2026-08-28T17:50:47Z</time>
  <course>246.99</course>
  <speed>0.022360679774997897</speed>
  <fix>3d</fix>
</trkpt>
<trkpt lat="40.0713749" lon="-105.229789">
  <ele>1583.0</ele>
  <time>2026-08-28T17:50:47Z</time>
  <course>0.0</course>
  <speed>0.0</speed>
  <fix>3d</fix>
</trkpt>
<trkpt lat="40.071375" lon="-105.2297889">
  <ele>1583.03</ele>
  <time>2026-08-28T17:50:47Z</time>
  <course>246.99</course>
  <speed>0.022360679774997897</speed>
  <fix>3d</fix>
</trkpt>
<trkpt lat="40.0713749" lon="-105.229789">
  <ele>1583.0</ele>
  <time>2026-08-28T17:50:47Z</time>
  <course>0.0</course>
  <speed>0.0</speed>
  <fix>3d</fix>
</trkpt>
<trkpt lat="40.0713751" lon="-105.2297889">
  <ele>1583.03</ele>
  <time>2026-08-28T17:50:47Z</time>
  <course>246.99</course>
  <speed>0.022360679774997897</speed>
  <fix>3d</fix>
</trkpt>
<trkpt lat="40.0713749" lon="-105.229789">
  <ele>1583.0</ele>
  <time>2026-08-28T17:50:47Z</time>
  <course>0.0</course>
  <speed>0.0</speed>
  <fix>3d</fix>
</trkpt>
<trkpt lat="40.071375" lon="-105.2297889">
  <ele>1583.04</ele>
  <time>2026-08-28T17:50:47Z</time>
  <course>246.99</course>
  <speed>0.022360679774997897</speed>
  <fix>3d</fix>
</trkpt>
<trkpt lat="40.0713749" lon="-105.229789">
  <ele>1583.0</ele>
  <time>2026-08-28T17:50:47Z</time>
  <course>0.0</course>
  <speed>0.0</speed>
  <fix>3d</fix>
</trkpt>
<trkpt lat="40.0713751" lon="-105.2297889">
  <ele>1583.04</ele>
  <time>2026-08-28T17:50:47Z</time>
  <course>246.99</course>
  <speed>0.022360679774997897</speed>
  <fix>3d</fix>
</trkpt>
<trkpt lat="40.0713749" lon="-105.229789">
  <ele>1583.0</ele>
  <time>2026-08-28T17:50:47Z</time>
  <course>0.0</course>
  <speed>0.0</speed>
  <fix>3d</fix>
</trkpt>
<trkpt lat="40.071375" lon="-105.2297889">
  <ele>1583.05</ele>
  <time>2026-08-28T17:50:47Z</time>
  <course>246.99</course>
  <speed>0.022360679774997897</speed>
  <fix>3d</fix>
</trkpt>
<trkpt lat="40.0713749" lon="-105.229789">
  <ele>1583.0</ele>
  <time>2026-08-28T17:50:47Z</time>
  <course>0.0</course>
  <speed>0.0</speed>
  <fix>3d</fix>
</trkpt>
<trkpt lat="40.0713751" lon="-105.2297889">
  <ele>1583.05</ele>
  <time>2026-08-28T17:50:47Z</time>
  <course>246.99</course>
  <speed>0.022360679774997897</speed>
  <fix>3d</fix>
</trkpt>
<trkpt lat="40.0713749" lon="-105.229789">
  <ele>1583.0</ele>
  <time>2026-08-28T17:50:47Z</time>
  <course>0.0</course>
  <speed>0.0</speed>
  <fix>3d</fix>
</trkpt>
<trkpt lat="40.071375" lon="-105.2297889">
  <ele>1583.06</ele>
  <time>2026-08-28T17:50:47Z</time>
  <course>246.99</course>
  <speed>0.022360679774997897</speed>
  <fix>3d</fix>
</trkpt>
<trkpt lat="40.0713749" lon="-105.229789">
  <ele>1583.0</ele>
  <time>2026-08-28T17:50:47Z</time>
  <course>0.0</course>
  <speed>0.0</speed>
  <fix>3d</fix>
</trkpt>
<trkpt lat="40.0713751" lon="-105.2297889">
  <ele>1583.06</ele>
  <time>2026-08-28T17:50:47Z</time>
  <course>246.99</course>
  <speed>0.022360679774997897</speed>
  <fix>3d</fix>
</trkpt>
<trkpt lat="40.0713749" lon="-105.229789">
  <ele>1583.0</ele>
  <time>2026-08-28T17:50:47Z</time>
  <course>0.0</course>
  <speed>0.0</speed>
  <fix>3d</fix>
</trkpt>
<trkpt lat="40.071375" lon="-105.2297889">
  <ele>1583.06</ele>
  <time>2026-08-28T17:50:47Z</time>
  <course>246.99</course>
  <speed>0.022360679774997897</speed>
  <fix>3d</fix>
</trkpt>
<trkpt lat="40.0713749" lon="-105.229789">
  <ele>1583.0</ele>
  <time>2026-08-28T17:50:47Z</time>
  <course>0.0</course>
  <speed>0.0</speed>
  <fix>3d</fix>
</trkpt>
<trkpt lat="40.0713751" lon="-105.2297889">
  <ele>1583.06</ele>
  <time>2026-08-28T17:50:47Z</time>
  <course>246.99</course>
  <speed>0.022360679774997897</speed>
  <fix>3d</fix>
</trkpt>
<trkpt lat="40.0713749" lon="-105.229789">
  <ele>1583.0</ele>
  <time>2026-08-28T17:50:47Z</time>
  <course>0.0</course>
  <speed>0.0</speed>
  <fix>3d</fix>
</trkpt>
<trkpt lat="40.0713751" lon="-105.2297889">
  <ele>1583.06</ele>
  <time>2026-08-28T17:50:47Z</time>
  <course>246.99</course>
  <speed>0.022360679774997897</speed>
  <fix>3d</fix>
</trkpt>
<trkpt lat="40.0713749" lon="-105.229789">
  <ele>1583.0</ele>
  <time>2026-08-28T17:50:47Z</time>
  <course>0.0</course>
  <speed>0.0</speed>
  <fix>3d</fix>
</trkpt>
<trkpt lat="40.0713751" lon="-105.2297889">
  <ele>1583.06</ele>
  <time>2026-08-28T17:50:47Z</time>
  <course>246.99</course>
  <speed>0.022360679774997897</speed>
  <fix>3d</fix>
</trkpt>
<trkpt lat="40.0713749" lon="-105.229789">
  <ele>1583.0</ele>
  <time>2026-08-28T17:50:47Z</time>
  <course>0.0</course>
  <speed>0.0</speed>
  <fix>3d</fix>
</trkpt>
<trkpt lat="40.0713751" lon="-105.2297889">
  <ele>1583.05</ele>
  <time>2026-08-28T17:50:48Z</time>
  <course>246.99</course>
  <speed>0.022360679774997897</speed>
  <fix>3d</fix>
</trkpt>
<trkpt lat="40.0713749" lon="-105.229789">
  <ele>1583.0</ele>
  <time>2026-08-28T17:50:48Z</time>
  <course>0.0</course>
  <speed>0.0</speed>
  <fix>3d</fix>
</trkpt>
<trkpt lat="40.0713751" lon="-105.2297889">
  <ele>1583.05</ele>
  <time>2026-08-28T17:50:48Z</time>
  <course>246.99</course>
  <speed>0.022360679774997897</speed>
  <fix>3d</fix>
</trkpt>
<trkpt lat="40.0713749" lon="-105.229789">
  <ele>1583.0</ele>
  <time>2026-08-28T17:50:48Z</time>
  <course>0.0</course>
  <speed>0.0</speed>
  <fix>3d</fix>
</trkpt>
<trkpt lat="40.0713751" lon="-105.2297889">
  <ele>1583.05</ele>
  <time>2026-08-28T17:50:48Z</time>
  <course>246.99</course>
  <speed>0.022360679774997897</speed>
  <fix>3d</fix>
</trkpt>
<trkpt lat="40.0713749" lon="-105.229789">
  <ele>1583.0</ele>
  <time>2026-08-28T17:50:48Z</time>
  <course>0.0</course>
  <speed>0.0</speed>
  <fix>3d</fix>
</trkpt>
<trkpt lat="40.0713751" lon="-105.2297889">
  <ele>1583.05</ele>
  <time>2026-08-28T17:50:48Z</time>
  <course>246.99</course>
  <speed>0.022360679774997897</speed>
  <fix>3d</fix>
</trkpt>
<trkpt lat="40.0713749" lon="-105.229789">
  <ele>1583.0</ele>
  <time>2026-08-28T17:50:48Z</time>
  <course>0.0</course>
  <speed>0.0</speed>
  <fix>3d</fix>
</trkpt>
<trkpt lat="40.071375" lon="-105.2297889">
  <ele>1583.05</ele>
  <time>2026-08-28T17:50:48Z</time>
  <course>246.99</course>
  <speed>0.022360679774997897</speed>
  <fix>3d</fix>
</trkpt>
<trkpt lat="40.0713749" lon="-105.229789">
  <ele>1583.0</ele>
  <time>2026-08-28T17:50:48Z</time>
  <course>0.0</course>
  <speed>0.0</speed>
  <fix>3d</fix>
</trkpt>
<trkpt lat="40.0713751" lon="-105.2297889">
  <ele>1583.05</ele>
  <time>2026-08-28T17:50:48Z</time>
  <course>246.99</course>
  <speed>0.022360679774997897</speed>
  <fix>3d</fix>
</trkpt>
<trkpt lat="40.0713749" lon="-105.229789">
  <ele>1583.0</ele>
  <time>2026-08-28T17:50:48Z</time>
  <course>0.0</course>
  <speed>0.0</speed>
  <fix>3d</fix>
</trkpt>
<trkpt lat="40.071375" lon="-105.2297889">
  <ele>1583.05</ele>
  <time>2026-08-28T17:50:48Z</time>
  <course>246.99</course>
  <speed>0.022360679774997897</speed>
  <fix>3d</fix>
</trkpt>
<trkpt lat="40.0713749" lon="-105.229789">
  <ele>1583.0</ele>
  <time>2026-08-28T17:50:48Z</time>
  <course>0.0</course>
  <speed>0.0</speed>
  <fix>3d</fix>
</trkpt>
<trkpt lat="40.0713751" lon="-105.2297889">
  <ele>1583.05</ele>
  <time>2026-08-28T17:50:48Z</time>
  <course>246.99</course>
  <speed>0.022360679774997897</speed>
  <fix>3d</fix>
</trkpt>
<trkpt lat="40.0713749" lon="-105.229789">
  <ele>1583.0</ele>
  <time>2026-08-28T17:50:48Z</time>
  <course>0.0</course>
  <speed>0.0</speed>
  <fix>3d</fix>
</trkpt>
<trkpt lat="40.071375" lon="-105.2297889">
  <ele>1583.06</ele>
  <time>2026-08-28T17:50:48Z</time>
  <course>246.99</course>
  <speed>0.022360679774997897</speed>
  <fix>3d</fix>
</trkpt>
<trkpt lat="40.0713749" lon="-105.229789">
  <ele>1583.0</ele>
  <time>2026-08-28T17:50:48Z</time>
  <course>0.0</course>
  <speed>0.0</speed>
  <fix>3d</fix>
</trkpt>
<trkpt lat="40.0713751" lon="-105.2297889">
  <ele>1583.06</ele>
  <time>2026-08-28T17:50:48Z</time>
  <course>246.99</course>
  <speed>0.022360679774997897</speed>
  <fix>3d</fix>
</trkpt>
<trkpt lat="40.0713749" lon="-105.229789">
  <ele>1583.0</ele>
  <time>2026-08-28T17:50:48Z</time>
  <course>0.0</course>
  <speed>0.0</speed>
  <fix>3d</fix>
</trkpt>
<trkpt lat="40.071375" lon="-105.2297889">
  <ele>1583.06</ele>
  <time>2026-08-28T17:50:48Z</time>
  <course>246.99</course>
  <speed>0.022360679774997897</speed>
  <fix>3d</fix>
</trkpt>
<trkpt lat="40.0713749" lon="-105.229789">
  <ele>1583.0</ele>
  <time>2026-08-28T17:50:48Z</time>
  <course>0.0</course>
  <speed>0.0</speed>
  <fix>3d</fix>
</trkpt>
<trkpt lat="40.0713751" lon="-105.2297889">
  <ele>1583.06</ele>
  <time>2026-08-28T17:50:48Z</time>
  <course>246.99</course>
  <speed>0.022360679774997897</speed>
  <fix>3d</fix>
</trkpt>
<trkpt lat="40.0713749" lon="-105.229789">
  <ele>1583.0</ele>
  <time>2026-08-28T17:50:48Z</time>
  <course>0.0</course>
  <speed>0.0</speed>
  <fix>3d</fix>
</trkpt>
<trkpt lat="40.071375" lon="-105.2297889">
  <ele>1583.05</ele>
  <time>2026-08-28T17:50:48Z</time>
  <course>246.99</course>
  <speed>0.022360679774997897</speed>
  <fix>3d</fix>
</trkpt>
<trkpt lat="40.0713749" lon="-105.229789">
  <ele>1583.0</ele>
  <time>2026-08-28T17:50:48Z</time>
  <course>0.0</course>
  <speed>0.0</speed>
  <fix>3d</fix>
</trkpt>
<trkpt lat="40.0713751" lon="-105.2297889">
  <ele>1583.05</ele>
  <time>2026-08-28T17:50:48Z</time>
  <course>246.99</course>
  <speed>0.022360679774997897</speed>
  <fix>3d</fix>
</trkpt>
<trkpt lat="40.0713749" lon="-105.229789">
  <ele>1583.0</ele>
  <time>2026-08-28T17:50:48Z</time>
  <course>0.0</course>
  <speed>0.0</speed>
  <fix>3d</fix>
</trkpt>
<trkpt lat="40.071375" lon="-105.2297889">
  <ele>1583.05</ele>
  <time>2026-08-28T17:50:48Z</time>
  <course>246.99</course>
  <speed>0.022360679774997897</speed>
  <fix>3d</fix>
</trkpt>
<trkpt lat="40.0713749" lon="-105.229789">
  <ele>1583.0</ele>
  <time>2026-08-28T17:50:48Z</time>
  <course>0.0</course>
  <speed>0.0</speed>
  <fix>3d</fix>
</trkpt>
<trkpt lat="40.0713751" lon="-105.2297889">
  <ele>1583.04</ele>
  <time>2026-08-28T17:50:48Z</time>
  <course>246.99</course>
  <speed>0.022360679774997897</speed>
  <fix>3d</fix>
</trkpt>
<trkpt lat="40.0713749" lon="-105.229789">
  <ele>1583.0</ele>
  <time>2026-08-28T17:50:48Z</time>
  <course>0.0</course>
  <speed>0.0</speed>
  <fix>3d</fix>
</trkpt>
<trkpt lat="40.0713751" lon="-105.2297889">
  <ele>1583.04</ele>
  <time>2026-08-28T17:50:48Z</time>
  <course>246.99</course>
  <speed>0.022360679774997897</speed>
  <fix>3d</fix>
</trkpt>
<trkpt lat="40.0713749" lon="-105.229789">
  <ele>1583.0</ele>
  <time>2026-08-28T17:50:48Z</time>
  <course>0.0</course>
  <speed>0.0</speed>
  <fix>3d</fix>
</trkpt>
<trkpt lat="40.0713751" lon="-105.2297889">
  <ele>1583.03</ele>
  <time>2026-08-28T17:50:48Z</time>
  <course>246.99</course>
  <speed>0.022360679774997897</speed>
  <fix>3d</fix>
</trkpt>
<trkpt lat="40.0713749" lon="-105.229789">
  <ele>1583.0</ele>
  <time>2026-08-28T17:50:48Z</time>
  <course>0.0</course>
  <speed>0.0</speed>
  <fix>3d</fix>
</trkpt>
<trkpt lat="40.0713751" lon="-105.2297889">
  <ele>1583.03</ele>
  <time>2026-08-28T17:50:48Z</time>
  <course>246.99</course>
  <speed>0.022360679774997897</speed>
  <fix>3d</fix>
</trkpt>
<trkpt lat="40.0713749" lon="-105.229789">
  <ele>1583.0</ele>
  <time>2026-08-28T17:50:48Z</time>
  <course>0.0</course>
  <speed>0.0</speed>
  <fix>3d</fix>
</trkpt>
<trkpt lat="40.0713751" lon="-105.2297889">
  <ele>1583.02</ele>
  <time>2026-08-28T17:50:48Z</time>
  <course>246.99</course>
  <speed>0.022360679774997897</speed>
  <fix>3d</fix>
</trkpt>
<trkpt lat="40.0713749" lon="-105.229789">
  <ele>1583.0</ele>
  <time>2026-08-28T17:50:48Z</time>
  <course>0.0</course>
  <speed>0.0</speed>
  <fix>3d</fix>
</trkpt>
<trkpt lat="40.0713751" lon="-105.2297889">
  <ele>1583.01</ele>
  <time>2026-08-28T17:50:48Z</time>
  <course>246.99</course>
  <speed>0.022360679774997897</speed>
  <fix>3d</fix>
</trkpt>
<trkpt lat="40.0713749" lon="-105.229789">
  <ele>1583.0</ele>
  <time>2026-08-28T17:50:48Z</time>
  <course>0.0</course>
  <speed>0.0</speed>
  <fix>3d</fix>
</trkpt>
<trkpt lat="40.0713751" lon="-105.2297889">
  <ele>1583.0</ele>
  <time>2026-08-28T17:50:48Z</time>
  <course>246.99</course>
  <speed>0.022360679774997897</speed>
  <fix>3d</fix>
</trkpt>
<trkpt lat="40.0713749" lon="-105.229789">
  <ele>1583.0</ele>
  <time>2026-08-28T17:50:48Z</time>
  <course>0.0</course>
  <speed>0.0</speed>
  <fix>3d</fix>
</trkpt>
<trkpt lat="40.0713751" lon="-105.2297889">
  <ele>1582.99</ele>
  <time>2026-08-28T17:50:48Z</time>
  <course>246.99</course>
  <speed>0.022360679774997897</speed>
  <fix>3d</fix>
</trkpt>
<trkpt lat="40.0713749" lon="-105.229789">
  <ele>1583.0</ele>
  <time>2026-08-28T17:50:48Z</time>
  <course>0.0</course>
  <speed>0.0</speed>
  <fix>3d</fix>
</trkpt>
<trkpt lat="40.0713751" lon="-105.2297889">
  <ele>1582.98</ele>
  <time>2026-08-28T17:50:48Z</time>
  <course>246.99</course>
  <speed>0.022360679774997897</speed>
  <fix>3d</fix>
</trkpt>
<trkpt lat="40.0713749" lon="-105.229789">
  <ele>1583.0</ele>
  <time>2026-08-28T17:50:48Z</time>
  <course>0.0</course>
  <speed>0.0</speed>
  <fix>3d</fix>
</trkpt>
<trkpt lat="40.0713751" lon="-105.2297889">
  <ele>1582.97</ele>
  <time>2026-08-28T17:50:48Z</time>
  <course>246.99</course>
  <speed>0.022360679774997897</speed>
  <fix>3d</fix>
</trkpt>
<trkpt lat="40.0713749" lon="-105.229789">
  <ele>1583.0</ele>
  <time>2026-08-28T17:50:48Z</time>
  <course>0.0</course>
  <speed>0.0</speed>
  <fix>3d</fix>
</trkpt>
<trkpt lat="40.0713751" lon="-105.2297889">
  <ele>1582.96</ele>
  <time>2026-08-28T17:50:48Z</time>
  <course>246.99</course>
  <speed>0.022360679774997897</speed>
  <fix>3d</fix>
</trkpt>
<trkpt lat="40.0713749" lon="-105.229789">
  <ele>1583.0</ele>
  <time>2026-08-28T17:50:48Z</time>
  <course>0.0</course>
  <speed>0.0</speed>
  <fix>3d</fix>
</trkpt>
<trkpt lat="40.071375" lon="-105.2297889">
  <ele>1582.96</ele>
  <time>2026-08-28T17:50:48Z</time>
  <course>246.99</course>
  <speed>0.022360679774997897</speed>
  <fix>3d</fix>
</trkpt>
<trkpt lat="40.0713749" lon="-105.229789">
  <ele>1583.0</ele>
  <time>2026-08-28T17:50:48Z</time>
  <course>0.0</course>
  <speed>0.0</speed>
  <fix>3d</fix>
</trkpt>
<trkpt lat="40.0713751" lon="-105.2297889">
  <ele>1582.95</ele>
  <time>2026-08-28T17:50:48Z</time>
  <course>246.99</course>
  <speed>0.022360679774997897</speed>
  <fix>3d</fix>
</trkpt>
<trkpt lat="40.0713749" lon="-105.229789">
  <ele>1583.0</ele>
  <time>2026-08-28T17:50:48Z</time>
  <course>0.0</course>
  <speed>0.0</speed>
  <fix>3d</fix>
</trkpt>
<trkpt lat="40.071375" lon="-105.2297889">
  <ele>1582.94</ele>
  <time>2026-08-28T17:50:48Z</time>
  <course>246.99</course>
  <speed>0.022360679774997897</speed>
  <fix>3d</fix>
</trkpt>
<trkpt lat="40.0713749" lon="-105.229789">
  <ele>1583.0</ele>
  <time>2026-08-28T17:50:48Z</time>
  <course>0.0</course>
  <speed>0.0</speed>
  <fix>3d</fix>
</trkpt>
<trkpt lat="40.0713751" lon="-105.2297889">
  <ele>1582.94</ele>
  <time>2026-08-28T17:50:48Z</time>
  <course>246.99</course>
  <speed>0.022360679774997897</speed>
  <fix>3d</fix>
</trkpt>
<trkpt lat="40.0713749" lon="-105.229789">
  <ele>1583.0</ele>
  <time>2026-08-28T17:50:48Z</time>
  <course>0.0</course>
  <speed>0.0</speed>
  <fix>3d</fix>
</trkpt>
<trkpt lat="40.071375" lon="-105.2297889">
  <ele>1582.94</ele>
  <time>2026-08-28T17:50:48Z</time>
  <course>246.98</course>
  <speed>0.022360679774997897</speed>
  <fix>3d</fix>
</trkpt>
<trkpt lat="40.0713749" lon="-105.229789">
  <ele>1583.0</ele>
  <time>2026-08-28T17:50:48Z</time>
  <course>0.0</course>
  <speed>0.0</speed>
  <fix>3d</fix>
</trkpt>
<trkpt lat="40.0713751" lon="-105.2297889">
  <ele>1582.94</ele>
  <time>2026-08-28T17:50:48Z</time>
  <course>246.98</course>
  <speed>0.022360679774997897</speed>
  <fix>3d</fix>
</trkpt>
<trkpt lat="40.0713749" lon="-105.229789">
  <ele>1583.0</ele>
  <time>2026-08-28T17:50:48Z</time>
  <course>0.0</course>
  <speed>0.0</speed>
  <fix>3d</fix>
</trkpt>
<trkpt lat="40.071375" lon="-105.2297889">
  <ele>1582.93</ele>
  <time>2026-08-28T17:50:48Z</time>
  <course>246.99</course>
  <speed>0.022360679774997897</speed>
  <fix>3d</fix>
</trkpt>
<trkpt lat="40.0713749" lon="-105.229789">
  <ele>1583.0</ele>
  <time>2026-08-28T17:50:48Z</time>
  <course>0.0</course>
  <speed>0.0</speed>
  <fix>3d</fix>
</trkpt>
<trkpt lat="40.0713751" lon="-105.2297889">
  <ele>1582.93</ele>
  <time>2026-08-28T17:50:48Z</time>
  <course>246.98</course>
  <speed>0.022360679774997897</speed>
  <fix>3d</fix>
</trkpt>
<trkpt lat="40.0713749" lon="-105.229789">
  <ele>1583.0</ele>
  <time>2026-08-28T17:50:48Z</time>
  <course>0.0</course>
  <speed>0.0</speed>
  <fix>3d</fix>
</trkpt>
<trkpt lat="40.071375" lon="-105.2297889">
  <ele>1582.92</ele>
  <time>2026-08-28T17:50:48Z</time>
  <course>246.98</course>
  <speed>0.022360679774997897</speed>
  <fix>3d</fix>
</trkpt>
<trkpt lat="40.0713749" lon="-105.229789">
  <ele>1583.0</ele>
  <time>2026-08-28T17:50:48Z</time>
  <course>0.0</course>
  <speed>0.0</speed>
  <fix>3d</fix>
</trkpt>
<trkpt lat="40.0713751" lon="-105.2297889">
  <ele>1582.92</ele>
  <time>2026-08-28T17:50:48Z</time>
  <course>246.98</course>
  <speed>0.022360679774997897</speed>
  <fix>3d</fix>
</trkpt>
<trkpt lat="40.0713749" lon="-105.229789">
  <ele>1583.0</ele>
  <time>2026-08-28T17:50:48Z</time>
  <course>0.0</course>
  <speed>0.0</speed>
  <fix>3d</fix>
</trkpt>
<trkpt lat="40.0713751" lon="-105.2297889">
  <ele>1582.92</ele>
  <time>2026-08-28T17:50:48Z</time>
  <course>246.98</course>
  <speed>0.022360679774997897</speed>
  <fix>3d</fix>
</trkpt>
<trkpt lat="40.0713749" lon="-105.229789">
  <ele>1583.0</ele>
  <time>2026-08-28T17:50:48Z</time>
  <course>0.0</course>
  <speed>0.0</speed>
  <fix>3d</fix>
</trkpt>
<trkpt lat="40.0713751" lon="-105.2297889">
  <ele>1582.92</ele>
  <time>2026-08-28T17:50:48Z</time>
  <course>246.98</course>
  <speed>0.022360679774997897</speed>
  <fix>3d</fix>
</trkpt>
<trkpt lat="40.0713749" lon="-105.229789">
  <ele>1583.0</ele>
  <time>2026-08-28T17:50:48Z</time>
  <course>0.0</course>
  <speed>0.0</speed>
  <fix>3d</fix>
</trkpt>
<trkpt lat="40.0713751" lon="-105.2297889">
  <ele>1582.92</ele>
  <time>2026-08-28T17:50:48Z</time>
  <course>246.98</course>
  <speed>0.022360679774997897</speed>
  <fix>3d</fix>
</trkpt>
<trkpt lat="40.0713749" lon="-105.229789">
  <ele>1583.0</ele>
  <time>2026-08-28T17:50:48Z</time>
  <course>0.0</course>
  <speed>0.0</speed>
  <fix>3d</fix>
</trkpt>
<trkpt lat="40.0713751" lon="-105.2297889">
  <ele>1582.92</ele>
  <time>2026-08-28T17:50:48Z</time>
  <course>246.98</course>
  <speed>0.022360679774997897</speed>
  <fix>3d</fix>
</trkpt>
<trkpt lat="40.0713749" lon="-105.229789">
  <ele>1583.0</ele>
  <time>2026-08-28T17:50:48Z</time>
  <course>0.0</course>
  <speed>0.0</speed>
  <fix>3d</fix>
</trkpt>
<trkpt lat="40.0713751" lon="-105.2297889">
  <ele>1582.92</ele>
  <time>2026-08-28T17:50:48Z</time>
  <course>246.98</course>
  <speed>0.022360679774997897</speed>
  <fix>3d</fix>
</trkpt>
<trkpt lat="40.0713749" lon="-105.229789">
  <ele>1583.0</ele>
  <time>2026-08-28T17:50:48Z</time>
  <course>0.0</course>
  <speed>0.0</speed>
  <fix>3d</fix>
</trkpt>
<trkpt lat="40.0713751" lon="-105.2297889">
  <ele>1582.93</ele>
  <time>2026-08-28T17:50:48Z</time>
  <course>246.98</course>
  <speed>0.022360679774997897</speed>
  <fix>3d</fix>
</trkpt>
<trkpt lat="40.0713749" lon="-105.229789">
  <ele>1583.0</ele>
  <time>2026-08-28T17:50:48Z</time>
  <course>0.0</course>
  <speed>0.0</speed>
  <fix>3d</fix>
</trkpt>
<trkpt lat="40.0713751" lon="-105.2297889">
  <ele>1582.94</ele>
  <time>2026-08-28T17:50:48Z</time>
  <course>246.98</course>
  <speed>0.022360679774997897</speed>
  <fix>3d</fix>
</trkpt>
<trkpt lat="40.0713749" lon="-105.229789">
  <ele>1583.0</ele>
  <time>2026-08-28T17:50:48Z</time>
  <course>0.0</course>
  <speed>0.0</speed>
  <fix>3d</fix>
</trkpt>
<trkpt lat="40.0713751" lon="-105.2297889">
  <ele>1582.95</ele>
  <time>2026-08-28T17:50:48Z</time>
  <course>246.98</course>
  <speed>0.022360679774997897</speed>
  <fix>3d</fix>
</trkpt>
<trkpt lat="40.0713749" lon="-105.229789">
  <ele>1583.0</ele>
  <time>2026-08-28T17:50:48Z</time>
  <course>0.0</course>
  <speed>0.0</speed>
  <fix>3d</fix>
</trkpt>
<trkpt lat="40.0713751" lon="-105.2297889">
  <ele>1582.95</ele>
  <time>2026-08-28T17:50:48Z</time>
  <course>246.98</course>
  <speed>0.022360679774997897</speed>
  <fix>3d</fix>
</trkpt>
<trkpt lat="40.0713749" lon="-105.229789">
  <ele>1583.0</ele>
  <time>2026-08-28T17:50:48Z</time>
  <course>0.0</course>
  <speed>0.0</speed>
  <fix>3d</fix>
</trkpt>
<trkpt lat="40.0713751" lon="-105.2297889">
  <ele>1582.96</ele>
  <time>2026-08-28T17:50:48Z</time>
  <course>246.99</course>
  <speed>0.022360679774997897</speed>
  <fix>3d</fix>
</trkpt>
<trkpt lat="40.0713749" lon="-105.229789">
  <ele>1583.0</ele>
  <time>2026-08-28T17:50:48Z</time>
  <course>0.0</course>
  <speed>0.0</speed>
  <fix>3d</fix>
</trkpt>
<trkpt lat="40.0713751" lon="-105.2297889">
  <ele>1582.97</ele>
  <time>2026-08-28T17:50:48Z</time>
  <course>246.98</course>
  <speed>0.022360679774997897</speed>
  <fix>3d</fix>
</trkpt>
<trkpt lat="40.0713749" lon="-105.229789">
  <ele>1583.0</ele>
  <time>2026-08-28T17:50:48Z</time>
  <course>0.0</course>
  <speed>0.0</speed>
  <fix>3d</fix>
</trkpt>
<trkpt lat="40.0713751" lon="-105.2297889">
  <ele>1582.97</ele>
  <time>2026-08-28T17:50:48Z</time>
  <course>246.98</course>
  <speed>0.022360679774997897</speed>
  <fix>3d</fix>
</trkpt>
<trkpt lat="40.0713749" lon="-105.229789">
  <ele>1583.0</ele>
  <time>2026-08-28T17:50:48Z</time>
  <course>0.0</course>
  <speed>0.0</speed>
  <fix>3d</fix>
</trkpt>
<trkpt lat="40.071375" lon="-105.2297889">
  <ele>1582.98</ele>
  <time>2026-08-28T17:50:48Z</time>
  <course>246.98</course>
  <speed>0.022360679774997897</speed>
  <fix>3d</fix>
</trkpt>
<trkpt lat="40.0713749" lon="-105.229789">
  <ele>1583.0</ele>
  <time>2026-08-28T17:50:48Z</time>
  <course>0.0</course>
  <speed>0.0</speed>
  <fix>3d</fix>
</trkpt>
<trkpt lat="40.0713751" lon="-105.2297889">
  <ele>1582.98</ele>
  <time>2026-08-28T17:50:48Z</time>
  <course>246.99</course>
  <speed>0.022360679774997897</speed>
  <fix>3d</fix>
</trkpt>
<trkpt lat="40.0713749" lon="-105.229789">
  <ele>1583.0</ele>
  <time>2026-08-28T17:50:48Z</time>
  <course>0.0</course>
  <speed>0.0</speed>
  <fix>3d</fix>
</trkpt>
<trkpt lat="40.071375" lon="-105.2297889">
  <ele>1582.99</ele>
  <time>2026-08-28T17:50:48Z</time>
  <course>246.99</course>
  <speed>0.022360679774997897</speed>
  <fix>3d</fix>
</trkpt>
<trkpt lat="40.0713749" lon="-105.229789">
  <ele>1583.0</ele>
  <time>2026-08-28T17:50:48Z</time>
  <course>0.0</course>
  <speed>0.0</speed>
  <fix>3d</fix>
</trkpt>
<trkpt lat="40.0713751" lon="-105.2297889">
  <ele>1582.99</ele>
  <time>2026-08-28T17:50:48Z</time>
  <course>246.99</course>
  <speed>0.022360679774997897</speed>
  <fix>3d</fix>
</trkpt>
<trkpt lat="40.0713749" lon="-105.229789">
  <ele>1583.0</ele>
  <time>2026-08-28T17:50:48Z</time>
  <course>0.0</course>
  <speed>0.0</speed>
  <fix>3d</fix>
</trkpt>
<trkpt lat="40.071375" lon="-105.2297889">
  <ele>1582.99</ele>
  <time>2026-08-28T17:50:48Z</time>
  <course>246.99</course>
  <speed>0.022360679774997897</speed>
  <fix>3d</fix>
</trkpt>
<trkpt lat="40.0713749" lon="-105.229789">
  <ele>1583.0</ele>
  <time>2026-08-28T17:50:48Z</time>
  <course>0.0</course>
  <speed>0.0</speed>
  <fix>3d</fix>
</trkpt>
<trkpt lat="40.0713751" lon="-105.2297889">
  <ele>1582.99</ele>
  <time>2026-08-28T17:50:48Z</time>
  <course>246.99</course>
  <speed>0.022360679774997897</speed>
  <fix>3d</fix>
</trkpt>
<trkpt lat="40.0713749" lon="-105.229789">
  <ele>1583.0</ele>
  <time>2026-08-28T17:50:48Z</time>
  <course>0.0</course>
  <speed>0.0</speed>
  <fix>3d</fix>
</trkpt>
<trkpt lat="40.0713751" lon="-105.2297889">
  <ele>1582.99</ele>
  <time>2026-08-28T17:50:48Z</time>
  <course>246.99</course>
  <speed>0.022360679774997897</speed>
  <fix>3d</fix>
</trkpt>
<trkpt lat="40.0713749" lon="-105.229789">
  <ele>1583.0</ele>
  <time>2026-08-28T17:50:48Z</time>
  <course>0.0</course>
  <speed>0.0</speed>
  <fix>3d</fix>
</trkpt>
<trkpt lat="40.0713751" lon="-105.2297889">
  <ele>1582.99</ele>
  <time>2026-08-28T17:50:48Z</time>
  <course>246.99</course>
  <speed>0.022360679774997897</speed>
  <fix>3d</fix>
</trkpt>
<trkpt lat="40.0713749" lon="-105.229789">
  <ele>1583.0</ele>
  <time>2026-08-28T17:50:48Z</time>
  <course>0.0</course>
  <speed>0.0</speed>
  <fix>3d</fix>
</trkpt>
<trkpt lat="40.0713751" lon="-105.2297889">
  <ele>1582.99</ele>
  <time>2026-08-28T17:50:48Z</time>
  <course>246.98</course>
  <speed>0.022360679774997897</speed>
  <fix>3d</fix>
</trkpt>
<trkpt lat="40.0713749" lon="-105.229789">
  <ele>1583.0</ele>
  <time>2026-08-28T17:50:48Z</time>
  <course>0.0</course>
  <speed>0.0</speed>
  <fix>3d</fix>
</trkpt>
<trkpt lat="40.0713751" lon="-105.2297889">
  <ele>1582.99</ele>
  <time>2026-08-28T17:50:48Z</time>
  <course>246.98</course>
  <speed>0.022360679774997897</speed>
  <fix>3d</fix>
</trkpt>
<trkpt lat="40.0713749" lon="-105.229789">
  <ele>1583.0</ele>
  <time>2026-08-28T17:50:48Z</time>
  <course>0.0</course>
  <speed>0.0</speed>
  <fix>3d</fix>
</trkpt>
<trkpt lat="40.0713751" lon="-105.2297889">
  <ele>1583.0</ele>
  <time>2026-08-28T17:50:48Z</time>
  <course>246.98</course>
  <speed>0.022360679774997897</speed>
  <fix>3d</fix>
</trkpt>
<trkpt lat="40.0713749" lon="-105.229789">
  <ele>1583.0</ele>
  <time>2026-08-28T17:50:48Z</time>
  <course>0.0</course>
  <speed>0.0</speed>
  <fix>3d</fix>
</trkpt>
<trkpt lat="40.0713751" lon="-105.2297889">
  <ele>1583.0</ele>
  <time>2026-08-28T17:50:48Z</time>
  <course>246.98</course>
  <speed>0.022360679774997897</speed>
  <fix>3d</fix>
</trkpt>
<trkpt lat="40.0713749" lon="-105.229789">
  <ele>1583.0</ele>
  <time>2026-08-28T17:50:48Z</time>
  <course>0.0</course>
  <speed>0.0</speed>
  <fix>3d</fix>
</trkpt>
<trkpt lat="40.0713751" lon="-105.2297889">
  <ele>1583.0</ele>
  <time>2026-08-28T17:50:48Z</time>
  <course>246.98</course>
  <speed>0.022360679774997897</speed>
  <fix>3d</fix>
</trkpt>
<trkpt lat="40.0713749" lon="-105.229789">
  <ele>1583.0</ele>
  <time>2026-08-28T17:50:48Z</time>
  <course>0.0</course>
  <speed>0.0</speed>
  <fix>3d</fix>
</trkpt>
<trkpt lat="40.0713751" lon="-105.2297889">
  <ele>1583.0</ele>
  <time>2026-08-28T17:50:48Z</time>
  <course>246.98</course>
  <speed>0.022360679774997897</speed>
  <fix>3d</fix>
</trkpt>
<trkpt lat="40.0713749" lon="-105.229789">
  <ele>1583.0</ele>
  <time>2026-08-28T17:50:48Z</time>
  <course>0.0</course>
  <speed>0.0</speed>
  <fix>3d</fix>
</trkpt>
<trkpt lat="40.0713751" lon="-105.2297889">
  <ele>1583.0</ele>
  <time>2026-08-28T17:50:48Z</time>
  <course>246.98</course>
  <speed>0.022360679774997897</speed>
  <fix>3d</fix>
</trkpt>
<trkpt lat="40.0713749" lon="-105.229789">
  <ele>1583.0</ele>
  <time>2026-08-28T17:50:48Z</time>
  <course>0.0</course>
  <speed>0.0</speed>
  <fix>3d</fix>
</trkpt>
<trkpt lat="40.0713751" lon="-105.2297889">
  <ele>1583.0</ele>
  <time>2026-08-28T17:50:48Z</time>
  <course>246.98</course>
  <speed>0.022360679774997897</speed>
  <fix>3d</fix>
</trkpt>
<trkpt lat="40.0713749" lon="-105.229789">
  <ele>1583.0</ele>
  <time>2026-08-28T17:50:48Z</time>
  <course>0.0</course>
  <speed>0.0</speed>
  <fix>3d</fix>
</trkpt>
<trkpt lat="40.0713751" lon="-105.2297889">
  <ele>1583.0</ele>
  <time>2026-08-28T17:50:48Z</time>
  <course>246.98</course>
  <speed>0.022360679774997897</speed>
  <fix>3d</fix>
</trkpt>
<trkpt lat="40.0713749" lon="-105.229789">
  <ele>1583.0</ele>
  <time>2026-08-28T17:50:48Z</time>
  <course>0.0</course>
  <speed>0.0</speed>
  <fix>3d</fix>
</trkpt>
<trkpt lat="40.0713751" lon="-105.2297889">
  <ele>1583.0</ele>
  <time>2026-08-28T17:50:48Z</time>
  <course>246.98</course>
  <speed>0.022360679774997897</speed>
  <fix>3d</fix>
</trkpt>
<trkpt lat="40.0713749" lon="-105.229789">
  <ele>1583.0</ele>
  <time>2026-08-28T17:50:48Z</time>
  <course>0.0</course>
  <speed>0.0</speed>
  <fix>3d</fix>
</trkpt>
<trkpt lat="40.0713751" lon="-105.2297889">
  <ele>1582.99</ele>
  <time>2026-08-28T17:50:48Z</time>
  <course>246.98</course>
  <speed>0.022360679774997897</speed>
  <fix>3d</fix>
</trkpt>
<trkpt lat="40.0713749" lon="-105.229789">
  <ele>1583.0</ele>
  <time>2026-08-28T17:50:48Z</time>
  <course>0.0</course>
  <speed>0.0</speed>
  <fix>3d</fix>
</trkpt>
<trkpt lat="40.0713751" lon="-105.2297889">
  <ele>1582.99</ele>
  <time>2026-08-28T17:50:48Z</time>
  <course>246.98</course>
  <speed>0.022360679774997897</speed>
  <fix>3d</fix>
</trkpt>
<trkpt lat="40.0713749" lon="-105.229789">
  <ele>1583.0</ele>
  <time>2026-08-28T17:50:48Z</time>
  <course>0.0</course>
  <speed>0.0</speed>
  <fix>3d</fix>
</trkpt>
<trkpt lat="40.071375" lon="-105.2297889">
  <ele>1582.99</ele>
  <time>2026-08-28T17:50:48Z</time>
  <course>246.98</course>
  <speed>0.022360679774997897</speed>
  <fix>3d</fix>
</trkpt>
<trkpt lat="40.0713749" lon="-105.229789">
  <ele>1583.0</ele>
  <time>2026-08-28T17:50:48Z</time>
  <course>0.0</course>
  <speed>0.0</speed>
  <fix>3d</fix>
</trkpt>
<trkpt lat="40.0713751" lon="-105.2297889">
  <ele>1582.98</ele>
  <time>2026-08-28T17:50:48Z</time>
  <course>246.98</course>
  <speed>0.022360679774997897</speed>
  <fix>3d</fix>
</trkpt>
<trkpt lat="40.0713749" lon="-105.229789">
  <ele>1583.0</ele>
  <time>2026-08-28T17:50:48Z</time>
  <course>0.0</course>
  <speed>0.0</speed>
  <fix>3d</fix>
</trkpt>
<trkpt lat="40.071375" lon="-105.2297889">
  <ele>1582.98</ele>
  <time>2026-08-28T17:50:48Z</time>
  <course>246.98</course>
  <speed>0.022360679774997897</speed>
  <fix>3d</fix>
</trkpt>
<trkpt lat="40.0713749" lon="-105.229789">
  <ele>1583.0</ele>
  <time>2026-08-28T17:50:48Z</time>
  <course>0.0</course>
  <speed>0.0</speed>
  <fix>3d</fix>
</trkpt>
<trkpt lat="40.0713751" lon="-105.2297889">
  <ele>1582.98</ele>
  <time>2026-08-28T17:50:48Z</time>
  <course>246.98</course>
  <speed>0.022360679774997897</speed>
  <fix>3d</fix>
</trkpt>
<trkpt lat="40.0713749" lon="-105.229789">
  <ele>1583.0</ele>
  <time>2026-08-28T17:50:48Z</time>
  <course>0.0</course>
  <speed>0.0</speed>
  <fix>3d</fix>
</trkpt>
<trkpt lat="40.071375" lon="-105.2297889">
  <ele>1582.99</ele>
  <time>2026-08-28T17:50:48Z</time>
  <course>246.98</course>
  <speed>0.022360679774997897</speed>
  <fix>3d</fix>
</trkpt>
<trkpt lat="40.0713749" lon="-105.229789">
  <ele>1583.0</ele>
  <time>2026-08-28T17:50:48Z</time>
  <course>0.0</course>
  <speed>0.0</speed>
  <fix>3d</fix>
</trkpt>
<trkpt lat="40.0713751" lon="-105.2297889">
  <ele>1582.99</ele>
  <time>2026-08-28T17:50:48Z</time>
  <course>246.98</course>
  <speed>0.022360679774997897</speed>
  <fix>3d</fix>
</trkpt>
<trkpt lat="40.0713749" lon="-105.229789">
  <ele>1583.0</ele>
  <time>2026-08-28T17:50:48Z</time>
  <course>0.0</course>
  <speed>0.0</speed>
  <fix>3d</fix>
</trkpt>
<trkpt lat="40.071375" lon="-105.2297889">
  <ele>1582.99</ele>
  <time>2026-08-28T17:50:48Z</time>
  <course>246.98</course>
  <speed>0.022360679774997897</speed>
  <fix>3d</fix>
</trkpt>
<trkpt lat="40.0713749" lon="-105.229789">
  <ele>1583.0</ele>
  <time>2026-08-28T17:50:48Z</time>
  <course>0.0</course>
  <speed>0.0</speed>
  <fix>3d</fix>
</trkpt>
<trkpt lat="40.0713751" lon="-105.2297889">
  <ele>1583.0</ele>
  <time>2026-08-28T17:50:48Z</time>
  <course>246.98</course>
  <speed>0.022360679774997897</speed>
  <fix>3d</fix>
</trkpt>
<trkpt lat="40.0713749" lon="-105.229789">
  <ele>1583.0</ele>
  <time>2026-08-28T17:50:48Z</time>
  <course>0.0</course>
  <speed>0.0</speed>
  <fix>3d</fix>
</trkpt>
<trkpt lat="40.071375" lon="-105.2297889">
  <ele>1583.0</ele>
  <time>2026-08-28T17:50:48Z</time>
  <course>246.98</course>
  <speed>0.022360679774997897</speed>
  <fix>3d</fix>
</trkpt>
<trkpt lat="40.0713749" lon="-105.229789">
  <ele>1583.0</ele>
  <time>2026-08-28T17:50:48Z</time>
  <course>0.0</course>
  <speed>0.0</speed>
  <fix>3d</fix>
</trkpt>
<trkpt lat="40.0713751" lon="-105.2297889">
  <ele>1583.01</ele>
  <time>2026-08-28T17:50:48Z</time>
  <course>246.98</course>
  <speed>0.022360679774997897</speed>
  <fix>3d</fix>
</trkpt>
<trkpt lat="40.0713749" lon="-105.229789">
  <ele>1583.0</ele>
  <time>2026-08-28T17:50:48Z</time>
  <course>0.0</course>
  <speed>0.0</speed>
  <fix>3d</fix>
</trkpt>
<trkpt lat="40.071375" lon="-105.2297889">
  <ele>1583.02</ele>
  <time>2026-08-28T17:50:48Z</time>
  <course>246.98</course>
  <speed>0.022360679774997897</speed>
  <fix>3d</fix>
</trkpt>
<trkpt lat="40.0713749" lon="-105.229789">
  <ele>1583.0</ele>
  <time>2026-08-28T17:50:48Z</time>
  <course>0.0</course>
  <speed>0.0</speed>
  <fix>3d</fix>
</trkpt>
<trkpt lat="40.0713751" lon="-105.2297889">
  <ele>1583.03</ele>
  <time>2026-08-28T17:50:48Z</time>
  <course>246.98</course>
  <speed>0.022360679774997897</speed>
  <fix>3d</fix>
</trkpt>
<trkpt lat="40.0713749" lon="-105.229789">
  <ele>1583.0</ele>
  <time>2026-08-28T17:50:48Z</time>
  <course>0.0</course>
  <speed>0.0</speed>
  <fix>3d</fix>
</trkpt>
<trkpt lat="40.0713751" lon="-105.2297889">
  <ele>1583.03</ele>
  <time>2026-08-28T17:50:48Z</time>
  <course>246.98</course>
  <speed>0.022360679774997897</speed>
  <fix>3d</fix>
</trkpt>
<trkpt lat="40.0713749" lon="-105.229789">
  <ele>1583.0</ele>
  <time>2026-08-28T17:50:48Z</time>
  <course>0.0</course>
  <speed>0.0</speed>
  <fix>3d</fix>
</trkpt>
<trkpt lat="40.0713751" lon="-105.2297889">
  <ele>1583.03</ele>
  <time>2026-08-28T17:50:48Z</time>
  <course>246.98</course>
  <speed>0.022360679774997897</speed>
  <fix>3d</fix>
</trkpt>
<trkpt lat="40.0713749" lon="-105.229789">
  <ele>1583.0</ele>
  <time>2026-08-28T17:50:48Z</time>
  <course>0.0</course>
  <speed>0.0</speed>
  <fix>3d</fix>
</trkpt>
<trkpt lat="40.0713751" lon="-105.2297889">
  <ele>1583.03</ele>
  <time>2026-08-28T17:50:48Z</time>
  <course>246.98</course>
  <speed>0.022360679774997897</speed>
  <fix>3d</fix>
</trkpt>
<trkpt lat="40.0713749" lon="-105.229789">
  <ele>1583.0</ele>
  <time>2026-08-28T17:50:48Z</time>
  <course>0.0</course>
  <speed>0.0</speed>
  <fix>3d</fix>
</trkpt>
<trkpt lat="40.0713751" lon="-105.2297889">
  <ele>1583.03</ele>
  <time>2026-08-28T17:50:48Z</time>
  <course>246.98</course>
  <speed>0.022360679774997897</speed>
  <fix>3d</fix>
</trkpt>
<trkpt lat="40.0713749" lon="-105.229789">
  <ele>1583.0</ele>
  <time>2026-08-28T17:50:48Z</time>
  <course>0.0</course>
  <speed>0.0</speed>
  <fix>3d</fix>
</trkpt>
<trkpt lat="40.0713751" lon="-105.2297889">
  <ele>1583.03</ele>
  <time>2026-08-28T17:50:48Z</time>
  <course>246.98</course>
  <speed>0.022360679774997897</speed>
  <fix>3d</fix>
</trkpt>
<trkpt lat="40.0713749" lon="-105.229789">
  <ele>1583.0</ele>
  <time>2026-08-28T17:50:48Z</time>
  <course>0.0</course>
  <speed>0.0</speed>
  <fix>3d</fix>
</trkpt>
<trkpt lat="40.0713751" lon="-105.2297889">
  <ele>1583.02</ele>
  <time>2026-08-28T17:50:48Z</time>
  <course>246.98</course>
  <speed>0.022360679774997897</speed>
  <fix>3d</fix>
</trkpt>
<trkpt lat="40.0713749" lon="-105.229789">
  <ele>1583.0</ele>
  <time>2026-08-28T17:50:48Z</time>
  <course>0.0</course>
  <speed>0.0</speed>
  <fix>3d</fix>
</trkpt>
<trkpt lat="40.0713751" lon="-105.2297889">
  <ele>1583.02</ele>
  <time>2026-08-28T17:50:48Z</time>
  <course>246.98</course>
  <speed>0.022360679774997897</speed>
  <fix>3d</fix>
</trkpt>
<trkpt lat="40.0713749" lon="-105.229789">
  <ele>1583.0</ele>
  <time>2026-08-28T17:50:48Z</time>
  <course>0.0</course>
  <speed>0.0</speed>
  <fix>3d</fix>
</trkpt>
<trkpt lat="40.0713751" lon="-105.2297889">
  <ele>1583.02</ele>
  <time>2026-08-28T17:50:48Z</time>
  <course>246.98</course>
  <speed>0.022360679774997897</speed>
  <fix>3d</fix>
</trkpt>
<trkpt lat="40.0713749" lon="-105.229789">
  <ele>1583.0</ele>
  <time>2026-08-28T17:50:48Z</time>
  <course>0.0</course>
  <speed>0.0</speed>
  <fix>3d</fix>
</trkpt>
<trkpt lat="40.071375" lon="-105.2297889">
  <ele>1583.02</ele>
  <time>2026-08-28T17:50:48Z</time>
  <course>246.98</course>
  <speed>0.022360679774997897</speed>
  <fix>3d</fix>
</trkpt>
<trkpt lat="40.0713749" lon="-105.229789">
  <ele>1583.0</ele>
  <time>2026-08-28T17:50:48Z</time>
  <course>0.0</course>
  <speed>0.0</speed>
  <fix>3d</fix>
</trkpt>
<trkpt lat="40.0713751" lon="-105.2297889">
  <ele>1583.01</ele>
  <time>2026-08-28T17:50:48Z</time>
  <course>246.98</course>
  <speed>0.022360679774997897</speed>
  <fix>3d</fix>
</trkpt>
<trkpt lat="40.0713749" lon="-105.229789">
  <ele>1583.0</ele>
  <time>2026-08-28T17:50:48Z</time>
  <course>0.0</course>
  <speed>0.0</speed>
  <fix>3d</fix>
</trkpt>
<trkpt lat="40.071375" lon="-105.2297889">
  <ele>1583.01</ele>
  <time>2026-08-28T17:50:48Z</time>
  <course>246.98</course>
  <speed>0.022360679774997897</speed>
  <fix>3d</fix>
</trkpt>
<trkpt lat="40.0713749" lon="-105.229789">
  <ele>1583.0</ele>
  <time>2026-08-28T17:50:48Z</time>
  <course>0.0</course>
  <speed>0.0</speed>
  <fix>3d</fix>
</trkpt>
<trkpt lat="40.0713751" lon="-105.2297889">
  <ele>1583.01</ele>
  <time>2026-08-28T17:50:48Z</time>
  <course>246.98</course>
  <speed>0.022360679774997897</speed>
  <fix>3d</fix>
</trkpt>
<trkpt lat="40.0713749" lon="-105.229789">
  <ele>1583.0</ele>
  <time>2026-08-28T17:50:48Z</time>
  <course>0.0</course>
  <speed>0.0</speed>
  <fix>3d</fix>
</trkpt>
<trkpt lat="40.071375" lon="-105.2297889">
  <ele>1583.01</ele>
  <time>2026-08-28T17:50:48Z</time>
  <course>246.98</course>
  <speed>0.022360679774997897</speed>
  <fix>3d</fix>
</trkpt>
<trkpt lat="40.0713749" lon="-105.229789">
  <ele>1583.0</ele>
  <time>2026-08-28T17:50:48Z</time>
  <course>0.0</course>
  <speed>0.0</speed>
  <fix>3d</fix>
</trkpt>
<trkpt lat="40.0713751" lon="-105.2297889">
  <ele>1583.01</ele>
  <time>2026-08-28T17:50:48Z</time>
  <course>246.98</course>
  <speed>0.022360679774997897</speed>
  <fix>3d</fix>
</trkpt>
<trkpt lat="40.0713749" lon="-105.229789">
  <ele>1583.0</ele>
  <time>2026-08-28T17:50:48Z</time>
  <course>0.0</course>
  <speed>0.0</speed>
  <fix>3d</fix>
</trkpt>
<trkpt lat="40.0713751" lon="-105.2297889">
  <ele>1583.01</ele>
  <time>2026-08-28T17:50:48Z</time>
  <course>246.98</course>
  <speed>0.022360679774997897</speed>
  <fix>3d</fix>
</trkpt>
<trkpt lat="40.0713749" lon="-105.229789">
  <ele>1583.0</ele>
  <time>2026-08-28T17:50:48Z</time>
  <course>0.0</course>
  <speed>0.0</speed>
  <fix>3d</fix>
</trkpt>
<trkpt lat="40.0713751" lon="-105.2297889">
  <ele>1583.02</ele>
  <time>2026-08-28T17:50:48Z</time>
  <course>246.98</course>
  <speed>0.022360679774997897</speed>
  <fix>3d</fix>
</trkpt>
<trkpt lat="40.0713749" lon="-105.229789">
  <ele>1583.0</ele>
  <time>2026-08-28T17:50:48Z</time>
  <course>0.0</course>
  <speed>0.0</speed>
  <fix>3d</fix>
</trkpt>
<trkpt lat="40.0713751" lon="-105.2297889">
  <ele>1583.02</ele>
  <time>2026-08-28T17:50:48Z</time>
  <course>246.98</course>
  <speed>0.022360679774997897</speed>
  <fix>3d</fix>
</trkpt>
<trkpt lat="40.0713749" lon="-105.229789">
  <ele>1583.0</ele>
  <time>2026-08-28T17:50:48Z</time>
  <course>0.0</course>
  <speed>0.0</speed>
  <fix>3d</fix>
</trkpt>
<trkpt lat="40.0713751" lon="-105.2297889">
  <ele>1583.02</ele>
  <time>2026-08-28T17:50:48Z</time>
  <course>246.98</course>
  <speed>0.022360679774997897</speed>
  <fix>3d</fix>
</trkpt>
<trkpt lat="40.0713749" lon="-105.229789">
  <ele>1583.0</ele>
  <time>2026-08-28T17:50:48Z</time>
  <course>0.0</course>
  <speed>0.0</speed>
  <fix>3d</fix>
</trkpt>
<trkpt lat="40.0713751" lon="-105.2297889">
  <ele>1583.02</ele>
  <time>2026-08-28T17:50:48Z</time>
  <course>246.98</course>
  <speed>0.022360679774997897</speed>
  <fix>3d</fix>
</trkpt>
<trkpt lat="40.0713749" lon="-105.229789">
  <ele>1583.0</ele>
  <time>2026-08-28T17:50:48Z</time>
  <course>0.0</course>
  <speed>0.0</speed>
  <fix>3d</fix>
</trkpt>
<trkpt lat="40.0713751" lon="-105.2297889">
  <ele>1583.02</ele>
  <time>2026-08-28T17:50:48Z</time>
  <course>246.98</course>
  <speed>0.022360679774997897</speed>
  <fix>3d</fix>
</trkpt>
<trkpt lat="40.0713749" lon="-105.229789">
  <ele>1583.0</ele>
  <time>2026-08-28T17:50:48Z</time>
  <course>0.0</course>
  <speed>0.0</speed>
  <fix>3d</fix>
</trkpt>
<trkpt lat="40.0713751" lon="-105.2297889">
  <ele>1583.02</ele>
  <time>2026-08-28T17:50:48Z</time>
  <course>246.98</course>
  <speed>0.022360679774997897</speed>
  <fix>3d</fix>
</trkpt>
<trkpt lat="40.0713749" lon="-105.229789">
  <ele>1583.0</ele>
  <time>2026-08-28T17:50:48Z</time>
  <course>0.0</course>
  <speed>0.0</speed>
  <fix>3d</fix>
</trkpt>
<trkpt lat="40.0713751" lon="-105.2297889">
  <ele>1583.02</ele>
  <time>2026-08-28T17:50:48Z</time>
  <course>246.98</course>
  <speed>0.022360679774997897</speed>
  <fix>3d</fix>
</trkpt>
<trkpt lat="40.0713749" lon="-105.229789">
  <ele>1583.0</ele>
  <time>2026-08-28T17:50:48Z</time>
  <course>0.0</course>
  <speed>0.0</speed>
  <fix>3d</fix>
</trkpt>
<trkpt lat="40.0713751" lon="-105.2297889">
  <ele>1583.03</ele>
  <time>2026-08-28T17:50:48Z</time>
  <course>246.98</course>
  <speed>0.022360679774997897</speed>
  <fix>3d</fix>
</trkpt>
<trkpt lat="40.0713749" lon="-105.229789">
  <ele>1583.0</ele>
  <time>2026-08-28T17:50:48Z</time>
  <course>0.0</course>
  <speed>0.0</speed>
  <fix>3d</fix>
</trkpt>
<trkpt lat="40.0713751" lon="-105.2297889">
  <ele>1583.03</ele>
  <time>2026-08-28T17:50:48Z</time>
  <course>246.98</course>
  <speed>0.022360679774997897</speed>
  <fix>3d</fix>
</trkpt>
<trkpt lat="40.0713749" lon="-105.229789">
  <ele>1583.0</ele>
  <time>2026-08-28T17:50:48Z</time>
  <course>0.0</course>
  <speed>0.0</speed>
  <fix>3d</fix>
</trkpt>
<trkpt lat="40.0713751" lon="-105.2297889">
  <ele>1583.04</ele>
  <time>2026-08-28T17:50:48Z</time>
  <course>246.98</course>
  <speed>0.022360679774997897</speed>
  <fix>3d</fix>
</trkpt>
<trkpt lat="40.0713749" lon="-105.229789">
  <ele>1583.0</ele>
  <time>2026-08-28T17:50:48Z</time>
  <course>0.0</course>
  <speed>0.0</speed>
  <fix>3d</fix>
</trkpt>
<trkpt lat="40.0713751" lon="-105.2297889">
  <ele>1583.04</ele>
  <time>2026-08-28T17:50:48Z</time>
  <course>246.98</course>
  <speed>0.022360679774997897</speed>
  <fix>3d</fix>
</trkpt>
<trkpt lat="40.0713749" lon="-105.229789">
  <ele>1583.0</ele>
  <time>2026-08-28T17:50:48Z</time>
  <course>0.0</course>
  <speed>0.0</speed>
  <fix>3d</fix>
</trkpt>
<trkpt lat="40.0713751" lon="-105.2297889">
  <ele>1583.05</ele>
  <time>2026-08-28T17:50:48Z</time>
  <course>246.98</course>
  <speed>0.022360679774997897</speed>
  <fix>3d</fix>
</trkpt>
<trkpt lat="40.0713749" lon="-105.229789">
  <ele>1583.0</ele>
  <time>2026-08-28T17:50:48Z</time>
  <course>0.0</course>
  <speed>0.0</speed>
  <fix>3d</fix>
</trkpt>
<trkpt lat="40.0713751" lon="-105.2297889">
  <ele>1583.05</ele>
  <time>2026-08-28T17:50:48Z</time>
  <course>246.98</course>
  <speed>0.022360679774997897</speed>
  <fix>3d</fix>
</trkpt>
<trkpt lat="40.0713749" lon="-105.229789">
  <ele>1583.0</ele>
  <time>2026-08-28T17:50:48Z</time>
  <course>0.0</course>
  <speed>0.0</speed>
  <fix>3d</fix>
</trkpt>
<trkpt lat="40.0713751" lon="-105.2297889">
  <ele>1583.06</ele>
  <time>2026-08-28T17:50:48Z</time>
  <course>246.98</course>
  <speed>0.022360679774997897</speed>
  <fix>3d</fix>
</trkpt>
<trkpt lat="40.0713749" lon="-105.229789">
  <ele>1583.0</ele>
  <time>2026-08-28T17:50:48Z</time>
  <course>0.0</course>
  <speed>0.0</speed>
  <fix>3d</fix>
</trkpt>
<trkpt lat="40.0713751" lon="-105.2297889">
  <ele>1583.06</ele>
  <time>2026-08-28T17:50:48Z</time>
  <course>246.98</course>
  <speed>0.022360679774997897</speed>
  <fix>3d</fix>
</trkpt>
<trkpt lat="40.0713749" lon="-105.229789">
  <ele>1583.0</ele>
  <time>2026-08-28T17:50:48Z</time>
  <course>0.0</course>
  <speed>0.0</speed>
  <fix>3d</fix>
</trkpt>
<trkpt lat="40.071375" lon="-105.2297889">
  <ele>1583.06</ele>
  <time>2026-08-28T17:50:48Z</time>
  <course>246.98</course>
  <speed>0.022360679774997897</speed>
  <fix>3d</fix>
</trkpt>
<trkpt lat="40.0713749" lon="-105.229789">
  <ele>1583.0</ele>
  <time>2026-08-28T17:50:48Z</time>
  <course>0.0</course>
  <speed>0.0</speed>
  <fix>3d</fix>
</trkpt>
<trkpt lat="40.0713751" lon="-105.2297889">
  <ele>1583.06</ele>
  <time>2026-08-28T17:50:48Z</time>
  <course>246.98</course>
  <speed>0.022360679774997897</speed>
  <fix>3d</fix>
</trkpt>
<trkpt lat="40.0713749" lon="-105.229789">
  <ele>1583.0</ele>
  <time>2026-08-28T17:50:48Z</time>
  <course>0.0</course>
  <speed>0.0</speed>
  <fix>3d</fix>
</trkpt>
<trkpt lat="40.071375" lon="-105.2297889">
  <ele>1583.07</ele>
  <time>2026-08-28T17:50:48Z</time>
  <course>246.98</course>
  <speed>0.022360679774997897</speed>
  <fix>3d</fix>
</trkpt>
<trkpt lat="40.0713749" lon="-105.229789">
  <ele>1583.0</ele>
  <time>2026-08-28T17:50:48Z</time>
  <course>0.0</course>
  <speed>0.0</speed>
  <fix>3d</fix>
</trkpt>
<trkpt lat="40.0713751" lon="-105.2297889">
  <ele>1583.07</ele>
  <time>2026-08-28T17:50:48Z</time>
  <course>246.98</course>
  <speed>0.022360679774997897</speed>
  <fix>3d</fix>
</trkpt>
<trkpt lat="40.0713749" lon="-105.229789">
  <ele>1583.0</ele>
  <time>2026-08-28T17:50:48Z</time>
  <course>0.0</course>
  <speed>0.0</speed>
  <fix>3d</fix>
</trkpt>
<trkpt lat="40.071375" lon="-105.2297889">
  <ele>1583.07</ele>
  <time>2026-08-28T17:50:48Z</time>
  <course>246.98</course>
  <speed>0.022360679774997897</speed>
  <fix>3d</fix>
</trkpt>
<trkpt lat="40.0713749" lon="-105.229789">
  <ele>1583.0</ele>
  <time>2026-08-28T17:50:48Z</time>
  <course>0.0</course>
  <speed>0.0</speed>
  <fix>3d</fix>
</trkpt>
<trkpt lat="40.0713751" lon="-105.2297889">
  <ele>1583.07</ele>
  <time>2026-08-28T17:50:48Z</time>
  <course>246.98</course>
  <speed>0.022360679774997897</speed>
  <fix>3d</fix>
</trkpt>
<trkpt lat="40.0713749" lon="-105.229789">
  <ele>1583.0</ele>
  <time>2026-08-28T17:50:48Z</time>
  <course>0.0</course>
  <speed>0.0</speed>
  <fix>3d</fix>
</trkpt>
<trkpt lat="40.071375" lon="-105.2297889">
  <ele>1583.07</ele>
  <time>2026-08-28T17:50:48Z</time>
  <course>246.98</course>
  <speed>0.022360679774997897</speed>
  <fix>3d</fix>
</trkpt>
<trkpt lat="40.0713749" lon="-105.229789">
  <ele>1583.0</ele>
  <time>2026-08-28T17:50:48Z</time>
  <course>0.0</course>
  <speed>0.0</speed>
  <fix>3d</fix>
</trkpt>
<trkpt lat="40.0713751" lon="-105.2297889">
  <ele>1583.07</ele>
  <time>2026-08-28T17:50:48Z</time>
  <course>246.98</course>
  <speed>0.022360679774997897</speed>
  <fix>3d</fix>
</trkpt>
<trkpt lat="40.0713749" lon="-105.229789">
  <ele>1583.0</ele>
  <time>2026-08-28T17:50:48Z</time>
  <course>0.0</course>
  <speed>0.0</speed>
  <fix>3d</fix>
</trkpt>
<trkpt lat="40.0713751" lon="-105.2297889">
  <ele>1583.07</ele>
  <time>2026-08-28T17:50:48Z</time>
  <course>246.98</course>
  <speed>0.022360679774997897</speed>
  <fix>3d</fix>
</trkpt>
<trkpt lat="40.0713749" lon="-105.229789">
  <ele>1583.0</ele>
  <time>2026-08-28T17:50:48Z</time>
  <course>0.0</course>
  <speed>0.0</speed>
  <fix>3d</fix>
</trkpt>
<trkpt lat="40.0713751" lon="-105.2297889">
  <ele>1583.06</ele>
  <time>2026-08-28T17:50:48Z</time>
  <course>246.98</course>
  <speed>0.022360679774997897</speed>
  <fix>3d</fix>
</trkpt>
<trkpt lat="40.0713749" lon="-105.229789">
  <ele>1583.0</ele>
  <time>2026-08-28T17:50:48Z</time>
  <course>0.0</course>
  <speed>0.0</speed>
  <fix>3d</fix>
</trkpt>
<trkpt lat="40.0713751" lon="-105.2297889">
  <ele>1583.06</ele>
  <time>2026-08-28T17:50:48Z</time>
  <course>246.98</course>
  <speed>0.022360679774997897</speed>
  <fix>3d</fix>
</trkpt>
<trkpt lat="40.0713749" lon="-105.229789">
  <ele>1583.0</ele>
  <time>2026-08-28T17:50:48Z</time>
  <course>0.0</course>
  <speed>0.0</speed>
  <fix>3d</fix>
</trkpt>
<trkpt lat="40.0713751" lon="-105.2297889">
  <ele>1583.06</ele>
  <time>2026-08-28T17:50:48Z</time>
  <course>246.98</course>
  <speed>0.022360679774997897</speed>
  <fix>3d</fix>
</trkpt>
<trkpt lat="40.0713749" lon="-105.229789">
  <ele>1583.0</ele>
  <time>2026-08-28T17:50:48Z</time>
  <course>0.0</course>
  <speed>0.0</speed>
  <fix>3d</fix>
</trkpt>
<trkpt lat="40.0713751" lon="-105.2297889">
  <ele>1583.06</ele>
  <time>2026-08-28T17:50:48Z</time>
  <course>246.98</course>
  <speed>0.022360679774997897</speed>
  <fix>3d</fix>
</trkpt>
<trkpt lat="40.0713749" lon="-105.229789">
  <ele>1583.0</ele>
  <time>2026-08-28T17:50:48Z</time>
  <course>0.0</course>
  <speed>0.0</speed>
  <fix>3d</fix>
</trkpt>
<trkpt lat="40.0713751" lon="-105.2297889">
  <ele>1583.05</ele>
  <time>2026-08-28T17:50:48Z</time>
  <course>246.98</course>
  <speed>0.022360679774997897</speed>
  <fix>3d</fix>
</trkpt>
<trkpt lat="40.0713749" lon="-105.229789">
  <ele>1583.0</ele>
  <time>2026-08-28T17:50:48Z</time>
  <course>0.0</course>
  <speed>0.0</speed>
  <fix>3d</fix>
</trkpt>
<trkpt lat="40.0713751" lon="-105.2297889">
  <ele>1583.05</ele>
  <time>2026-08-28T17:50:48Z</time>
  <course>246.98</course>
  <speed>0.022360679774997897</speed>
  <fix>3d</fix>
</trkpt>
<trkpt lat="40.0713749" lon="-105.229789">
  <ele>1583.0</ele>
  <time>2026-08-28T17:50:48Z</time>
  <course>0.0</course>
  <speed>0.0</speed>
  <fix>3d</fix>
</trkpt>
<trkpt lat="40.0713751" lon="-105.2297889">
  <ele>1583.04</ele>
  <time>2026-08-28T17:50:48Z</time>
  <course>246.98</course>
  <speed>0.022360679774997897</speed>
  <fix>3d</fix>
</trkpt>
<trkpt lat="40.0713749" lon="-105.229789">
  <ele>1583.0</ele>
  <time>2026-08-28T17:50:48Z</time>
  <course>0.0</course>
  <speed>0.0</speed>
  <fix>3d</fix>
</trkpt>
<trkpt lat="40.0713751" lon="-105.2297889">
  <ele>1583.04</ele>
  <time>2026-08-28T17:50:48Z</time>
  <course>246.98</course>
  <speed>0.022360679774997897</speed>
  <fix>3d</fix>
</trkpt>
<trkpt lat="40.0713749" lon="-105.229789">
  <ele>1583.0</ele>
  <time>2026-08-28T17:50:48Z</time>
  <course>0.0</course>
  <speed>0.0</speed>
  <fix>3d</fix>
</trkpt>
<trkpt lat="40.0713751" lon="-105.2297889">
  <ele>1583.03</ele>
  <time>2026-08-28T17:50:48Z</time>
  <course>246.98</course>
  <speed>0.022360679774997897</speed>
  <fix>3d</fix>
</trkpt>
<trkpt lat="40.0713749" lon="-105.229789">
  <ele>1583.0</ele>
  <time>2026-08-28T17:50:48Z</time>
  <course>0.0</course>
  <speed>0.0</speed>
  <fix>3d</fix>
</trkpt>
<trkpt lat="40.0713751" lon="-105.2297889">
  <ele>1583.03</ele>
  <time>2026-08-28T17:50:48Z</time>
  <course>246.98</course>
  <speed>0.022360679774997897</speed>
  <fix>3d</fix>
</trkpt>
<trkpt lat="40.0713749" lon="-105.229789">
  <ele>1583.0</ele>
  <time>2026-08-28T17:50:48Z</time>
  <course>0.0</course>
  <speed>0.0</speed>
  <fix>3d</fix>
</trkpt>
<trkpt lat="40.0713751" lon="-105.2297889">
  <ele>1583.03</ele>
  <time>2026-08-28T17:50:48Z</time>
  <course>246.98</course>
  <speed>0.022360679774997897</speed>
  <fix>3d</fix>
</trkpt>
<trkpt lat="40.0713749" lon="-105.229789">
  <ele>1583.0</ele>
  <time>2026-08-28T17:50:48Z</time>
  <course>0.0</course>
  <speed>0.0</speed>
  <fix>3d</fix>
</trkpt>
<trkpt lat="40.071375" lon="-105.2297889">
  <ele>1583.03</ele>
  <time>2026-08-28T17:50:48Z</time>
  <course>246.98</course>
  <speed>0.022360679774997897</speed>
  <fix>3d</fix>
</trkpt>
<trkpt lat="40.0713749" lon="-105.229789">
  <ele>1583.0</ele>
  <time>2026-08-28T17:50:48Z</time>
  <course>0.0</course>
  <speed>0.0</speed>
  <fix>3d</fix>
</trkpt>
<trkpt lat="40.0713751" lon="-105.2297889">
  <ele>1583.03</ele>
  <time>2026-08-28T17:50:48Z</time>
  <course>246.98</course>
  <speed>0.022360679774997897</speed>
  <fix>3d</fix>
</trkpt>
<trkpt lat="40.0713749" lon="-105.229789">
  <ele>1583.0</ele>
  <time>2026-08-28T17:50:48Z</time>
  <course>0.0</course>
  <speed>0.0</speed>
  <fix>3d</fix>
</trkpt>
<trkpt lat="40.071375" lon="-105.2297889">
  <ele>1583.03</ele>
  <time>2026-08-28T17:50:48Z</time>
  <course>246.98</course>
  <speed>0.022360679774997897</speed>
  <fix>3d</fix>
</trkpt>
<trkpt lat="40.0713749" lon="-105.229789">
  <ele>1583.0</ele>
  <time>2026-08-28T17:50:48Z</time>
  <course>0.0</course>
  <speed>0.0</speed>
  <fix>3d</fix>
</trkpt>
<trkpt lat="40.0713751" lon="-105.2297889">
  <ele>1583.03</ele>
  <time>2026-08-28T17:50:48Z</time>
  <course>246.98</course>
  <speed>0.022360679774997897</speed>
  <fix>3d</fix>
</trkpt>
<trkpt lat="40.0713749" lon="-105.229789">
  <ele>1583.0</ele>
  <time>2026-08-28T17:50:48Z</time>
  <course>0.0</course>
  <speed>0.0</speed>
  <fix>3d</fix>
</trkpt>
<trkpt lat="40.071375" lon="-105.2297889">
  <ele>1583.04</ele>
  <time>2026-08-28T17:50:48Z</time>
  <course>246.98</course>
  <speed>0.022360679774997897</speed>
  <fix>3d</fix>
</trkpt>
<trkpt lat="40.0713749" lon="-105.229789">
  <ele>1583.0</ele>
  <time>2026-08-28T17:50:48Z</time>
  <course>0.0</course>
  <speed>0.0</speed>
  <fix>3d</fix>
</trkpt>
<trkpt lat="40.0713751" lon="-105.2297889">
  <ele>1583.04</ele>
  <time>2026-08-28T17:50:48Z</time>
  <course>246.98</course>
  <speed>0.022360679774997897</speed>
  <fix>3d</fix>
</trkpt>
<trkpt lat="40.0713749" lon="-105.229789">
  <ele>1583.0</ele>
  <time>2026-08-28T17:50:48Z</time>
  <course>0.0</course>
  <speed>0.0</speed>
  <fix>3d</fix>
</trkpt>
<trkpt lat="40.071375" lon="-105.2297889">
  <ele>1583.05</ele>
  <time>2026-08-28T17:50:48Z</time>
  <course>246.98</course>
  <speed>0.022360679774997897</speed>
  <fix>3d</fix>
</trkpt>
<trkpt lat="40.0713749" lon="-105.229789">
  <ele>1583.0</ele>
  <time>2026-08-28T17:50:48Z</time>
  <course>0.0</course>
  <speed>0.0</speed>
  <fix>3d</fix>
</trkpt>
<trkpt lat="40.0713751" lon="-105.2297889">
  <ele>1583.05</ele>
  <time>2026-08-28T17:50:48Z</time>
  <course>246.98</course>
  <speed>0.022360679774997897</speed>
  <fix>3d</fix>
</trkpt>
<trkpt lat="40.0713749" lon="-105.229789">
  <ele>1583.0</ele>
  <time>2026-08-28T17:50:48Z</time>
  <course>0.0</course>
  <speed>0.0</speed>
  <fix>3d</fix>
</trkpt>
<trkpt lat="40.071375" lon="-105.2297889">
  <ele>1583.05</ele>
  <time>2026-08-28T17:50:48Z</time>
  <course>246.98</course>
  <speed>0.022360679774997897</speed>
  <fix>3d</fix>
</trkpt>
<trkpt lat="40.0713749" lon="-105.229789">
  <ele>1583.0</ele>
  <time>2026-08-28T17:50:48Z</time>
  <course>0.0</course>
  <speed>0.0</speed>
  <fix>3d</fix>
</trkpt>
<trkpt lat="40.0713751" lon="-105.2297889">
  <ele>1583.06</ele>
  <time>2026-08-28T17:50:48Z</time>
  <course>246.98</course>
  <speed>0.022360679774997897</speed>
  <fix>3d</fix>
</trkpt>
<trkpt lat="40.0713749" lon="-105.229789">
  <ele>1583.0</ele>
  <time>2026-08-28T17:50:48Z</time>
  <course>0.0</course>
  <speed>0.0</speed>
  <fix>3d</fix>
</trkpt>
<trkpt lat="40.071375" lon="-105.2297889">
  <ele>1583.06</ele>
  <time>2026-08-28T17:50:48Z</time>
  <course>246.98</course>
  <speed>0.022360679774997897</speed>
  <fix>3d</fix>
</trkpt>
<trkpt lat="40.0713749" lon="-105.229789">
  <ele>1583.0</ele>
  <time>2026-08-28T17:50:48Z</time>
  <course>0.0</course>
  <speed>0.0</speed>
  <fix>3d</fix>
</trkpt>
<trkpt lat="40.0713751" lon="-105.2297889">
  <ele>1583.06</ele>
  <time>2026-08-28T17:50:48Z</time>
  <course>246.98</course>
  <speed>0.022360679774997897</speed>
  <fix>3d</fix>
</trkpt>
<trkpt lat="40.0713749" lon="-105.229789">
  <ele>1583.0</ele>
  <time>2026-08-28T17:50:48Z</time>
  <course>0.0</course>
  <speed>0.0</speed>
  <fix>3d</fix>
</trkpt>
<trkpt lat="40.0713751" lon="-105.2297889">
  <ele>1583.07</ele>
  <time>2026-08-28T17:50:48Z</time>
  <course>246.98</course>
  <speed>0.022360679774997897</speed>
  <fix>3d</fix>
</trkpt>
<trkpt lat="40.0713749" lon="-105.229789">
  <ele>1583.0</ele>
  <time>2026-08-28T17:50:48Z</time>
  <course>0.0</course>
  <speed>0.0</speed>
  <fix>3d</fix>
</trkpt>
<trkpt lat="40.0713751" lon="-105.2297889">
  <ele>1583.08</ele>
  <time>2026-08-28T17:50:48Z</time>
  <course>246.98</course>
  <speed>0.022360679774997897</speed>
  <fix>3d</fix>
</trkpt>
<trkpt lat="40.0713749" lon="-105.229789">
  <ele>1583.0</ele>
  <time>2026-08-28T17:50:48Z</time>
  <course>0.0</course>
  <speed>0.0</speed>
  <fix>3d</fix>
</trkpt>
<trkpt lat="40.0713751" lon="-105.2297889">
  <ele>1583.08</ele>
  <time>2026-08-28T17:50:48Z</time>
  <course>246.98</course>
  <speed>0.022360679774997897</speed>
  <fix>3d</fix>
</trkpt>
<trkpt lat="40.0713749" lon="-105.229789">
  <ele>1583.0</ele>
  <time>2026-08-28T17:50:48Z</time>
  <course>0.0</course>
  <speed>0.0</speed>
  <fix>3d</fix>
</trkpt>
<trkpt lat="40.0713751" lon="-105.2297889">
  <ele>1583.09</ele>
  <time>2026-08-28T17:50:48Z</time>
  <course>246.98</course>
  <speed>0.022360679774997897</speed>
  <fix>3d</fix>
</trkpt>
<trkpt lat="40.0713749" lon="-105.229789">
  <ele>1583.0</ele>
  <time>2026-08-28T17:50:48Z</time>
  <course>0.0</course>
  <speed>0.0</speed>
  <fix>3d</fix>
</trkpt>
<trkpt lat="40.0713751" lon="-105.2297889">
  <ele>1583.09</ele>
  <time>2026-08-28T17:50:48Z</time>
  <course>246.98</course>
  <speed>0.022360679774997897</speed>
  <fix>3d</fix>
</trkpt>
<trkpt lat="40.0713749" lon="-105.229789">
  <ele>1583.0</ele>
  <time>2026-08-28T17:50:48Z</time>
  <course>0.0</course>
  <speed>0.0</speed>
  <fix>3d</fix>
</trkpt>
<trkpt lat="40.0713751" lon="-105.2297889">
  <ele>1583.1</ele>
  <time>2026-08-28T17:50:48Z</time>
  <course>246.98</course>
  <speed>0.022360679774997897</speed>
  <fix>3d</fix>
</trkpt>
<trkpt lat="40.0713749" lon="-105.229789">
  <ele>1583.0</ele>
  <time>2026-08-28T17:50:48Z</time>
  <course>0.0</course>
  <speed>0.0</speed>
  <fix>3d</fix>
</trkpt>
<trkpt lat="40.071375" lon="-105.2297889">
  <ele>1583.1</ele>
  <time>2026-08-28T17:50:48Z</time>
  <course>246.98</course>
  <speed>0.022360679774997897</speed>
  <fix>3d</fix>
</trkpt>
<trkpt lat="40.0713749" lon="-105.229789">
  <ele>1583.0</ele>
  <time>2026-08-28T17:50:48Z</time>
  <course>0.0</course>
  <speed>0.0</speed>
  <fix>3d</fix>
</trkpt>
<trkpt lat="40.0713751" lon="-105.2297889">
  <ele>1583.1</ele>
  <time>2026-08-28T17:50:48Z</time>
  <course>246.98</course>
  <speed>0.022360679774997897</speed>
  <fix>3d</fix>
</trkpt>
<trkpt lat="40.0713749" lon="-105.229789">
  <ele>1583.0</ele>
  <time>2026-08-28T17:50:48Z</time>
  <course>0.0</course>
  <speed>0.0</speed>
  <fix>3d</fix>
</trkpt>
<trkpt lat="40.071375" lon="-105.2297889">
  <ele>1583.1</ele>
  <time>2026-08-28T17:50:48Z</time>
  <course>246.98</course>
  <speed>0.022360679774997897</speed>
  <fix>3d</fix>
</trkpt>
<trkpt lat="40.0713749" lon="-105.229789">
  <ele>1583.0</ele>
  <time>2026-08-28T17:50:48Z</time>
  <course>0.0</course>
  <speed>0.0</speed>
  <fix>3d</fix>
</trkpt>
<trkpt lat="40.0713751" lon="-105.2297889">
  <ele>1583.09</ele>
  <time>2026-08-28T17:50:48Z</time>
  <course>246.98</course>
  <speed>0.022360679774997897</speed>
  <fix>3d</fix>
</trkpt>
<trkpt lat="40.0713749" lon="-105.229789">
  <ele>1583.0</ele>
  <time>2026-08-28T17:50:48Z</time>
  <course>0.0</course>
  <speed>0.0</speed>
  <fix>3d</fix>
</trkpt>
<trkpt lat="40.071375" lon="-105.2297889">
  <ele>1583.08</ele>
  <time>2026-08-28T17:50:48Z</time>
  <course>246.98</course>
  <speed>0.022360679774997897</speed>
  <fix>3d</fix>
</trkpt>
<trkpt lat="40.0713749" lon="-105.229789">
  <ele>1583.0</ele>
  <time>2026-08-28T17:50:48Z</time>
  <course>0.0</course>
  <speed>0.0</speed>
  <fix>3d</fix>
</trkpt>
<trkpt lat="40.0713751" lon="-105.2297889">
  <ele>1583.07</ele>
  <time>2026-08-28T17:50:48Z</time>
  <course>246.98</course>
  <speed>0.022360679774997897</speed>
  <fix>3d</fix>
</trkpt>
<trkpt lat="40.0713749" lon="-105.229789">
  <ele>1583.0</ele>
  <time>2026-08-28T17:50:48Z</time>
  <course>0.0</course>
  <speed>0.0</speed>
  <fix>3d</fix>
</trkpt>
<trkpt lat="40.071375" lon="-105.2297889">
  <ele>1583.06</ele>
  <time>2026-08-28T17:50:48Z</time>
  <course>246.98</course>
  <speed>0.022360679774997897</speed>
  <fix>3d</fix>
</trkpt>
<trkpt lat="40.0713749" lon="-105.229789">
  <ele>1583.0</ele>
  <time>2026-08-28T17:50:48Z</time>
  <course>0.0</course>
  <speed>0.0</speed>
  <fix>3d</fix>
</trkpt>
<trkpt lat="40.0713751" lon="-105.2297889">
  <ele>1583.04</ele>
  <time>2026-08-28T17:50:48Z</time>
  <course>246.98</course>
  <speed>0.022360679774997897</speed>
  <fix>3d</fix>
</trkpt>
<trkpt lat="40.0713749" lon="-105.229789">
  <ele>1583.0</ele>
  <time>2026-08-28T17:50:48Z</time>
  <course>0.0</course>
  <speed>0.0</speed>
  <fix>3d</fix>
</trkpt>
<trkpt lat="40.071375" lon="-105.2297889">
  <ele>1583.04</ele>
  <time>2026-08-28T17:50:48Z</time>
  <course>246.98</course>
  <speed>0.022360679774997897</speed>
  <fix>3d</fix>
</trkpt>
<trkpt lat="40.0713749" lon="-105.229789">
  <ele>1583.0</ele>
  <time>2026-08-28T17:50:48Z</time>
  <course>0.0</course>
  <speed>0.0</speed>
  <fix>3d</fix>
</trkpt>
<trkpt lat="40.0713751" lon="-105.2297889">
  <ele>1583.02</ele>
  <time>2026-08-28T17:50:48Z</time>
  <course>246.98</course>
  <speed>0.022360679774997897</speed>
  <fix>3d</fix>
</trkpt>
<trkpt lat="40.0713749" lon="-105.229789">
  <ele>1583.0</ele>
  <time>2026-08-28T17:50:48Z</time>
  <course>0.0</course>
  <speed>0.0</speed>
  <fix>3d</fix>
</trkpt>
<trkpt lat="40.071375" lon="-105.2297889">
  <ele>1583.02</ele>
  <time>2026-08-28T17:50:48Z</time>
  <course>246.98</course>
  <speed>0.022360679774997897</speed>
  <fix>3d</fix>
</trkpt>
<trkpt lat="40.0713749" lon="-105.229789">
  <ele>1583.0</ele>
  <time>2026-08-28T17:50:48Z</time>
  <course>0.0</course>
  <speed>0.0</speed>
  <fix>3d</fix>
</trkpt>
<trkpt lat="40.0713751" lon="-105.2297889">
  <ele>1583.01</ele>
  <time>2026-08-28T17:50:48Z</time>
  <course>246.98</course>
  <speed>0.022360679774997897</speed>
  <fix>3d</fix>
</trkpt>
<trkpt lat="40.0713749" lon="-105.229789">
  <ele>1583.0</ele>
  <time>2026-08-28T17:50:48Z</time>
  <course>0.0</course>
  <speed>0.0</speed>
  <fix>3d</fix>
</trkpt>
<trkpt lat="40.071375" lon="-105.2297889">
  <ele>1583.0</ele>
  <time>2026-08-28T17:50:48Z</time>
  <course>246.98</course>
  <speed>0.022360679774997897</speed>
  <fix>3d</fix>
</trkpt>
<trkpt lat="40.0713749" lon="-105.229789">
  <ele>1583.0</ele>
  <time>2026-08-28T17:50:48Z</time>
  <course>0.0</course>
  <speed>0.0</speed>
  <fix>3d</fix>
</trkpt>
<trkpt lat="40.0713751" lon="-105.2297889">
  <ele>1583.0</ele>
  <time>2026-08-28T17:50:48Z</time>
  <course>246.98</course>
  <speed>0.022360679774997897</speed>
  <fix>3d</fix>
</trkpt>
<trkpt lat="40.0713749" lon="-105.229789">
  <ele>1583.0</ele>
  <time>2026-08-28T17:50:48Z</time>
  <course>0.0</course>
  <speed>0.0</speed>
  <fix>3d</fix>
</trkpt>
<trkpt lat="40.071375" lon="-105.2297889">
  <ele>1583.0</ele>
  <time>2026-08-28T17:50:48Z</time>
  <course>246.98</course>
  <speed>0.022360679774997897</speed>
  <fix>3d</fix>
</trkpt>
<trkpt lat="40.0713749" lon="-105.229789">
  <ele>1583.0</ele>
  <time>2026-08-28T17:50:48Z</time>
  <course>0.0</course>
  <speed>0.0</speed>
  <fix>3d</fix>
</trkpt>
<trkpt lat="40.0713751" lon="-105.2297889">
  <ele>1582.99</ele>
  <time>2026-08-28T17:50:48Z</time>
  <course>246.98</course>
  <speed>0.022360679774997897</speed>
  <fix>3d</fix>
</trkpt>
<trkpt lat="40.0713749" lon="-105.229789">
  <ele>1583.0</ele>
  <time>2026-08-28T17:50:48Z</time>
  <course>0.0</course>
  <speed>0.0</speed>
  <fix>3d</fix>
</trkpt>
<trkpt lat="40.071375" lon="-105.2297889">
  <ele>1582.99</ele>
  <time>2026-08-28T17:50:48Z</time>
  <course>246.98</course>
  <speed>0.022360679774997897</speed>
  <fix>3d</fix>
</trkpt>
<trkpt lat="40.0713749" lon="-105.229789">
  <ele>1583.0</ele>
  <time>2026-08-28T17:50:48Z</time>
  <course>0.0</course>
  <speed>0.0</speed>
  <fix>3d</fix>
</trkpt>
<trkpt lat="40.0713751" lon="-105.2297889">
  <ele>1582.98</ele>
  <time>2026-08-28T17:50:48Z</time>
  <course>246.98</course>
  <speed>0.022360679774997897</speed>
  <fix>3d</fix>
</trkpt>
<trkpt lat="40.0713749" lon="-105.229789">
  <ele>1583.0</ele>
  <time>2026-08-28T17:50:48Z</time>
  <course>0.0</course>
  <speed>0.0</speed>
  <fix>3d</fix>
</trkpt>
<trkpt lat="40.071375" lon="-105.2297889">
  <ele>1582.97</ele>
  <time>2026-08-28T17:50:48Z</time>
  <course>246.98</course>
  <speed>0.022360679774997897</speed>
  <fix>3d</fix>
</trkpt>
<trkpt lat="40.0713749" lon="-105.229789">
  <ele>1583.0</ele>
  <time>2026-08-28T17:50:48Z</time>
  <course>0.0</course>
  <speed>0.0</speed>
  <fix>3d</fix>
</trkpt>
<trkpt lat="40.0713751" lon="-105.2297889">
  <ele>1582.96</ele>
  <time>2026-08-28T17:50:48Z</time>
  <course>246.98</course>
  <speed>0.022360679774997897</speed>
  <fix>3d</fix>
</trkpt>
<trkpt lat="40.0713749" lon="-105.229789">
  <ele>1583.0</ele>
  <time>2026-08-28T17:50:48Z</time>
  <course>0.0</course>
  <speed>0.0</speed>
  <fix>3d</fix>
</trkpt>
<trkpt lat="40.071375" lon="-105.2297889">
  <ele>1582.96</ele>
  <time>2026-08-28T17:50:48Z</time>
  <course>246.98</course>
  <speed>0.022360679774997897</speed>
  <fix>3d</fix>
</trkpt>
<trkpt lat="40.0713749" lon="-105.229789">
  <ele>1583.0</ele>
  <time>2026-08-28T17:50:48Z</time>
  <course>0.0</course>
  <speed>0.0</speed>
  <fix>3d</fix>
</trkpt>
<trkpt lat="40.0713751" lon="-105.2297889">
  <ele>1582.96</ele>
  <time>2026-08-28T17:50:48Z</time>
  <course>246.98</course>
  <speed>0.022360679774997897</speed>
  <fix>3d</fix>
</trkpt>
<trkpt lat="40.0713749" lon="-105.229789">
  <ele>1583.0</ele>
  <time>2026-08-28T17:50:48Z</time>
  <course>0.0</course>
  <speed>0.0</speed>
  <fix>3d</fix>
</trkpt>
<trkpt lat="40.071375" lon="-105.2297889">
  <ele>1582.96</ele>
  <time>2026-08-28T17:50:48Z</time>
  <course>246.98</course>
  <speed>0.022360679774997897</speed>
  <fix>3d</fix>
</trkpt>
<trkpt lat="40.0713749" lon="-105.229789">
  <ele>1583.0</ele>
  <time>2026-08-28T17:50:48Z</time>
  <course>0.0</course>
  <speed>0.0</speed>
  <fix>3d</fix>
</trkpt>
<trkpt lat="40.071375" lon="-105.2297889">
  <ele>1582.96</ele>
  <time>2026-08-28T17:50:48Z</time>
  <course>246.98</course>
  <speed>0.022360679774997897</speed>
  <fix>3d</fix>
</trkpt>
<trkpt lat="40.0713749" lon="-105.229789">
  <ele>1583.0</ele>
  <time>2026-08-28T17:50:48Z</time>
  <course>0.0</course>
  <speed>0.0</speed>
  <fix>3d</fix>
</trkpt>
<trkpt lat="40.071375" lon="-105.2297889">
  <ele>1582.96</ele>
  <time>2026-08-28T17:50:48Z</time>
  <course>246.98</course>
  <speed>0.022360679774997897</speed>
  <fix>3d</fix>
</trkpt>
<trkpt lat="40.0713749" lon="-105.229789">
  <ele>1583.0</ele>
  <time>2026-08-28T17:50:48Z</time>
  <course>0.0</course>
  <speed>0.0</speed>
  <fix>3d</fix>
</trkpt>
<trkpt lat="40.071375" lon="-105.2297889">
  <ele>1582.97</ele>
  <time>2026-08-28T17:50:48Z</time>
  <course>246.98</course>
  <speed>0.022360679774997897</speed>
  <fix>3d</fix>
</trkpt>
<trkpt lat="40.0713749" lon="-105.229789">
  <ele>1583.0</ele>
  <time>2026-08-28T17:50:48Z</time>
  <course>0.0</course>
  <speed>0.0</speed>
  <fix>3d</fix>
</trkpt>
<trkpt lat="40.071375" lon="-105.2297889">
  <ele>1582.97</ele>
  <time>2026-08-28T17:50:48Z</time>
  <course>246.98</course>
  <speed>0.022360679774997897</speed>
  <fix>3d</fix>
</trkpt>
<trkpt lat="40.0713749" lon="-105.229789">
  <ele>1583.0</ele>
  <time>2026-08-28T17:50:48Z</time>
  <course>0.0</course>
  <speed>0.0</speed>
  <fix>3d</fix>
</trkpt>
<trkpt lat="40.071375" lon="-105.2297889">
  <ele>1582.98</ele>
  <time>2026-08-28T17:50:48Z</time>
  <course>246.98</course>
  <speed>0.022360679774997897</speed>
  <fix>3d</fix>
</trkpt>
<trkpt lat="40.0713749" lon="-105.229789">
  <ele>1583.0</ele>
  <time>2026-08-28T17:50:48Z</time>
  <course>0.0</course>
  <speed>0.0</speed>
  <fix>3d</fix>
</trkpt>
<trkpt lat="40.071375" lon="-105.2297889">
  <ele>1582.99</ele>
  <time>2026-08-28T17:50:48Z</time>
  <course>246.98</course>
  <speed>0.022360679774997897</speed>
  <fix>3d</fix>
</trkpt>
<trkpt lat="40.0713749" lon="-105.229789">
  <ele>1583.0</ele>
  <time>2026-08-28T17:50:48Z</time>
  <course>0.0</course>
  <speed>0.0</speed>
  <fix>3d</fix>
</trkpt>
<trkpt lat="40.0713751" lon="-105.2297889">
  <ele>1582.99</ele>
  <time>2026-08-28T17:50:48Z</time>
  <course>246.98</course>
  <speed>0.022360679774997897</speed>
  <fix>3d</fix>
</trkpt>
<trkpt lat="40.0713749" lon="-105.229789">
  <ele>1583.0</ele>
  <time>2026-08-28T17:50:48Z</time>
  <course>0.0</course>
  <speed>0.0</speed>
  <fix>3d</fix>
</trkpt>
<trkpt lat="40.071375" lon="-105.2297889">
  <ele>1583.0</ele>
  <time>2026-08-28T17:50:48Z</time>
  <course>246.98</course>
  <speed>0.022360679774997897</speed>
  <fix>3d</fix>
</trkpt>
<trkpt lat="40.0713749" lon="-105.229789">
  <ele>1583.0</ele>
  <time>2026-08-28T17:50:48Z</time>
  <course>0.0</course>
  <speed>0.0</speed>
  <fix>3d</fix>
</trkpt>
<trkpt lat="40.0713751" lon="-105.2297889">
  <ele>1583.0</ele>
  <time>2026-08-28T17:50:48Z</time>
  <course>246.98</course>
  <speed>0.022360679774997897</speed>
  <fix>3d</fix>
</trkpt>
<trkpt lat="40.0713749" lon="-105.229789">
  <ele>1583.0</ele>
  <time>2026-08-28T17:50:48Z</time>
  <course>0.0</course>
  <speed>0.0</speed>
  <fix>3d</fix>
</trkpt>
<trkpt lat="40.071375" lon="-105.2297889">
  <ele>1583.0</ele>
  <time>2026-08-28T17:50:48Z</time>
  <course>246.98</course>
  <speed>0.022360679774997897</speed>
  <fix>3d</fix>
</trkpt>
<trkpt lat="40.0713749" lon="-105.229789">
  <ele>1583.0</ele>
  <time>2026-08-28T17:50:48Z</time>
  <course>0.0</course>
  <speed>0.0</speed>
  <fix>3d</fix>
</trkpt>
<trkpt lat="40.0713751" lon="-105.2297889">
  <ele>1583.0</ele>
  <time>2026-08-28T17:50:48Z</time>
  <course>246.98</course>
  <speed>0.022360679774997897</speed>
  <fix>3d</fix>
</trkpt>
<trkpt lat="40.0713749" lon="-105.229789">
  <ele>1583.0</ele>
  <time>2026-08-28T17:50:48Z</time>
  <course>0.0</course>
  <speed>0.0</speed>
  <fix>3d</fix>
</trkpt>
<trkpt lat="40.071375" lon="-105.2297889">
  <ele>1582.99</ele>
  <time>2026-08-28T17:50:48Z</time>
  <course>246.98</course>
  <speed>0.022360679774997897</speed>
  <fix>3d</fix>
</trkpt>
<trkpt lat="40.0713749" lon="-105.229789">
  <ele>1583.0</ele>
  <time>2026-08-28T17:50:48Z</time>
  <course>0.0</course>
  <speed>0.0</speed>
  <fix>3d</fix>
</trkpt>
<trkpt lat="40.0713751" lon="-105.2297889">
  <ele>1582.99</ele>
  <time>2026-08-28T17:50:48Z</time>
  <course>246.98</course>
  <speed>0.022360679774997897</speed>
  <fix>3d</fix>
</trkpt>
<trkpt lat="40.0713749" lon="-105.229789">
  <ele>1583.0</ele>
  <time>2026-08-28T17:50:48Z</time>
  <course>0.0</course>
  <speed>0.0</speed>
  <fix>3d</fix>
</trkpt>
<trkpt lat="40.0713751" lon="-105.2297889">
  <ele>1582.99</ele>
  <time>2026-08-28T17:50:48Z</time>
  <course>246.98</course>
  <speed>0.022360679774997897</speed>
  <fix>3d</fix>
</trkpt>
<trkpt lat="40.0713749" lon="-105.229789">
  <ele>1583.0</ele>
  <time>2026-08-28T17:50:48Z</time>
  <course>0.0</course>
  <speed>0.0</speed>
  <fix>3d</fix>
</trkpt>
<trkpt lat="40.0713751" lon="-105.2297889">
  <ele>1582.98</ele>
  <time>2026-08-28T17:50:48Z</time>
  <course>246.98</course>
  <speed>0.022360679774997897</speed>
  <fix>3d</fix>
</trkpt>
<trkpt lat="40.0713749" lon="-105.229789">
  <ele>1583.0</ele>
  <time>2026-08-28T17:50:48Z</time>
  <course>0.0</course>
  <speed>0.0</speed>
  <fix>3d</fix>
</trkpt>
<trkpt lat="40.0713751" lon="-105.2297889">
  <ele>1582.98</ele>
  <time>2026-08-28T17:50:48Z</time>
  <course>246.98</course>
  <speed>0.022360679774997897</speed>
  <fix>3d</fix>
</trkpt>
<trkpt lat="40.0713749" lon="-105.229789">
  <ele>1583.0</ele>
  <time>2026-08-28T17:50:48Z</time>
  <course>0.0</course>
  <speed>0.0</speed>
  <fix>3d</fix>
</trkpt>
<trkpt lat="40.0713751" lon="-105.2297889">
  <ele>1582.97</ele>
  <time>2026-08-28T17:50:48Z</time>
  <course>246.98</course>
  <speed>0.022360679774997897</speed>
  <fix>3d</fix>
</trkpt>
<trkpt lat="40.0713749" lon="-105.229789">
  <ele>1583.0</ele>
  <time>2026-08-28T17:50:48Z</time>
  <course>0.0</course>
  <speed>0.0</speed>
  <fix>3d</fix>
</trkpt>
<trkpt lat="40.0713751" lon="-105.2297889">
  <ele>1582.97</ele>
  <time>2026-08-28T17:50:48Z</time>
  <course>246.98</course>
  <speed>0.022360679774997897</speed>
  <fix>3d</fix>
</trkpt>
<trkpt lat="40.0713749" lon="-105.229789">
  <ele>1583.0</ele>
  <time>2026-08-28T17:50:48Z</time>
  <course>0.0</course>
  <speed>0.0</speed>
  <fix>3d</fix>
</trkpt>
<trkpt lat="40.0713751" lon="-105.2297889">
  <ele>1582.97</ele>
  <time>2026-08-28T17:50:48Z</time>
  <course>246.98</course>
  <speed>0.022360679774997897</speed>
  <fix>3d</fix>
</trkpt>
<trkpt lat="40.0713749" lon="-105.229789">
  <ele>1583.0</ele>
  <time>2026-08-28T17:50:48Z</time>
  <course>0.0</course>
  <speed>0.0</speed>
  <fix>3d</fix>
</trkpt>
<trkpt lat="40.071375" lon="-105.2297889">
  <ele>1582.97</ele>
  <time>2026-08-28T17:50:48Z</time>
  <course>246.98</course>
  <speed>0.022360679774997897</speed>
  <fix>3d</fix>
</trkpt>
<trkpt lat="40.0713749" lon="-105.229789">
  <ele>1583.0</ele>
  <time>2026-08-28T17:50:48Z</time>
  <course>0.0</course>
  <speed>0.0</speed>
  <fix>3d</fix>
</trkpt>
<trkpt lat="40.0713751" lon="-105.2297889">
  <ele>1582.96</ele>
  <time>2026-08-28T17:50:48Z</time>
  <course>246.98</course>
  <speed>0.022360679774997897</speed>
  <fix>3d</fix>
</trkpt>
<trkpt lat="40.0713749" lon="-105.229789">
  <ele>1583.0</ele>
  <time>2026-08-28T17:50:48Z</time>
  <course>0.0</course>
  <speed>0.0</speed>
  <fix>3d</fix>
</trkpt>
<trkpt lat="40.071375" lon="-105.2297889">
  <ele>1582.96</ele>
  <time>2026-08-28T17:50:48Z</time>
  <course>246.98</course>
  <speed>0.022360679774997897</speed>
  <fix>3d</fix>
</trkpt>
<trkpt lat="40.0713749" lon="-105.229789">
  <ele>1583.0</ele>
  <time>2026-08-28T17:50:48Z</time>
  <course>0.0</course>
  <speed>0.0</speed>
  <fix>3d</fix>
</trkpt>
<trkpt lat="40.0713751" lon="-105.2297889">
  <ele>1582.95</ele>
  <time>2026-08-28T17:50:48Z</time>
  <course>246.98</course>
  <speed>0.022360679774997897</speed>
  <fix>3d</fix>
</trkpt>
<trkpt lat="40.0713749" lon="-105.229789">
  <ele>1583.0</ele>
  <time>2026-08-28T17:50:48Z</time>
  <course>0.0</course>
  <speed>0.0</speed>
  <fix>3d</fix>
</trkpt>
<trkpt lat="40.071375" lon="-105.2297889">
  <ele>1582.95</ele>
  <time>2026-08-28T17:50:48Z</time>
  <course>246.98</course>
  <speed>0.022360679774997897</speed>
  <fix>3d</fix>
</trkpt>
<trkpt lat="40.0713749" lon="-105.229789">
  <ele>1583.0</ele>
  <time>2026-08-28T17:50:48Z</time>
  <course>0.0</course>
  <speed>0.0</speed>
  <fix>3d</fix>
</trkpt>
<trkpt lat="40.0713751" lon="-105.2297889">
  <ele>1582.95</ele>
  <time>2026-08-28T17:50:48Z</time>
  <course>246.98</course>
  <speed>0.022360679774997897</speed>
  <fix>3d</fix>
</trkpt>
<trkpt lat="40.0713749" lon="-105.229789">
  <ele>1583.0</ele>
  <time>2026-08-28T17:50:48Z</time>
  <course>0.0</course>
  <speed>0.0</speed>
  <fix>3d</fix>
</trkpt>
<trkpt lat="40.071375" lon="-105.2297889">
  <ele>1582.94</ele>
  <time>2026-08-28T17:50:48Z</time>
  <course>246.98</course>
  <speed>0.022360679774997897</speed>
  <fix>3d</fix>
</trkpt>
<trkpt lat="40.0713749" lon="-105.229789">
  <ele>1583.0</ele>
  <time>2026-08-28T17:50:48Z</time>
  <course>0.0</course>
  <speed>0.0</speed>
  <fix>3d</fix>
</trkpt>
<trkpt lat="40.0713751" lon="-105.2297889">
  <ele>1582.94</ele>
  <time>2026-08-28T17:50:48Z</time>
  <course>246.98</course>
  <speed>0.022360679774997897</speed>
  <fix>3d</fix>
</trkpt>
<trkpt lat="40.0713749" lon="-105.229789">
  <ele>1583.0</ele>
  <time>2026-08-28T17:50:48Z</time>
  <course>0.0</course>
  <speed>0.0</speed>
  <fix>3d</fix>
</trkpt>
<trkpt lat="40.071375" lon="-105.2297889">
  <ele>1582.93</ele>
  <time>2026-08-28T17:50:48Z</time>
  <course>246.98</course>
  <speed>0.022360679774997897</speed>
  <fix>3d</fix>
</trkpt>
<trkpt lat="40.0713749" lon="-105.229789">
  <ele>1583.0</ele>
  <time>2026-08-28T17:50:48Z</time>
  <course>0.0</course>
  <speed>0.0</speed>
  <fix>3d</fix>
</trkpt>
<trkpt lat="40.0713751" lon="-105.2297889">
  <ele>1582.93</ele>
  <time>2026-08-28T17:50:48Z</time>
  <course>246.98</course>
  <speed>0.022360679774997897</speed>
  <fix>3d</fix>
</trkpt>
<trkpt lat="40.0713749" lon="-105.229789">
  <ele>1583.0</ele>
  <time>2026-08-28T17:50:48Z</time>
  <course>0.0</course>
  <speed>0.0</speed>
  <fix>3d</fix>
</trkpt>
<trkpt lat="40.071375" lon="-105.2297889">
  <ele>1582.93</ele>
  <time>2026-08-28T17:50:48Z</time>
  <course>246.98</course>
  <speed>0.022360679774997897</speed>
  <fix>3d</fix>
</trkpt>
<trkpt lat="40.0713749" lon="-105.229789">
  <ele>1583.0</ele>
  <time>2026-08-28T17:50:48Z</time>
  <course>0.0</course>
  <speed>0.0</speed>
  <fix>3d</fix>
</trkpt>
<trkpt lat="40.0713751" lon="-105.2297889">
  <ele>1582.93</ele>
  <time>2026-08-28T17:50:48Z</time>
  <course>246.98</course>
  <speed>0.022360679774997897</speed>
  <fix>3d</fix>
</trkpt>
<trkpt lat="40.0713749" lon="-105.229789">
  <ele>1583.0</ele>
  <time>2026-08-28T17:50:48Z</time>
  <course>0.0</course>
  <speed>0.0</speed>
  <fix>3d</fix>
</trkpt>
<trkpt lat="40.071375" lon="-105.2297889">
  <ele>1582.94</ele>
  <time>2026-08-28T17:50:48Z</time>
  <course>246.98</course>
  <speed>0.022360679774997897</speed>
  <fix>3d</fix>
</trkpt>
<trkpt lat="40.0713749" lon="-105.229789">
  <ele>1583.0</ele>
  <time>2026-08-28T17:50:48Z</time>
  <course>0.0</course>
  <speed>0.0</speed>
  <fix>3d</fix>
</trkpt>
<trkpt lat="40.0713751" lon="-105.2297889">
  <ele>1582.94</ele>
  <time>2026-08-28T17:50:48Z</time>
  <course>246.98</course>
  <speed>0.022360679774997897</speed>
  <fix>3d</fix>
</trkpt>
<trkpt lat="40.0713749" lon="-105.229789">
  <ele>1583.0</ele>
  <time>2026-08-28T17:50:48Z</time>
  <course>0.0</course>
  <speed>0.0</speed>
  <fix>3d</fix>
</trkpt>
<trkpt lat="40.0713751" lon="-105.2297889">
  <ele>1582.95</ele>
  <time>2026-08-28T17:50:48Z</time>
  <course>246.98</course>
  <speed>0.022360679774997897</speed>
  <fix>3d</fix>
</trkpt>
<trkpt lat="40.0713749" lon="-105.229789">
  <ele>1583.0</ele>
  <time>2026-08-28T17:50:48Z</time>
  <course>0.0</course>
  <speed>0.0</speed>
  <fix>3d</fix>
</trkpt>
<trkpt lat="40.0713751" lon="-105.2297889">
  <ele>1582.95</ele>
  <time>2026-08-28T17:50:48Z</time>
  <course>246.98</course>
  <speed>0.022360679774997897</speed>
  <fix>3d</fix>
</trkpt>
<trkpt lat="40.0713749" lon="-105.229789">
  <ele>1583.0</ele>
  <time>2026-08-28T17:50:48Z</time>
  <course>0.0</course>
  <speed>0.0</speed>
  <fix>3d</fix>
</trkpt>
<trkpt lat="40.0713751" lon="-105.2297889">
  <ele>1582.96</ele>
  <time>2026-08-28T17:50:48Z</time>
  <course>246.98</course>
  <speed>0.022360679774997897</speed>
  <fix>3d</fix>
</trkpt>
<trkpt lat="40.0713749" lon="-105.229789">
  <ele>1583.0</ele>
  <time>2026-08-28T17:50:48Z</time>
  <course>0.0</course>
  <speed>0.0</speed>
  <fix>3d</fix>
</trkpt>
<trkpt lat="40.0713751" lon="-105.2297889">
  <ele>1582.97</ele>
  <time>2026-08-28T17:50:48Z</time>
  <course>246.98</course>
  <speed>0.022360679774997897</speed>
  <fix>3d</fix>
</trkpt>
<trkpt lat="40.0713749" lon="-105.229789">
  <ele>1583.0</ele>
  <time>2026-08-28T17:50:48Z</time>
  <course>0.0</course>
  <speed>0.0</speed>
  <fix>3d</fix>
</trkpt>
<trkpt lat="40.0713751" lon="-105.2297889">
  <ele>1582.98</ele>
  <time>2026-08-28T17:50:48Z</time>
  <course>246.98</course>
  <speed>0.022360679774997897</speed>
  <fix>3d</fix>
</trkpt>
<trkpt lat="40.0713749" lon="-105.229789">
  <ele>1583.0</ele>
  <time>2026-08-28T17:50:48Z</time>
  <course>0.0</course>
  <speed>0.0</speed>
  <fix>3d</fix>
</trkpt>
<trkpt lat="40.0713751" lon="-105.2297889">
  <ele>1582.98</ele>
  <time>2026-08-28T17:50:48Z</time>
  <course>246.98</course>
  <speed>0.022360679774997897</speed>
  <fix>3d</fix>
</trkpt>
<trkpt lat="40.0713749" lon="-105.229789">
  <ele>1583.0</ele>
  <time>2026-08-28T17:50:48Z</time>
  <course>0.0</course>
  <speed>0.0</speed>
  <fix>3d</fix>
</trkpt>
<trkpt lat="40.0713751" lon="-105.2297889">
  <ele>1582.98</ele>
  <time>2026-08-28T17:50:48Z</time>
  <course>246.98</course>
  <speed>0.022360679774997897</speed>
  <fix>3d</fix>
</trkpt>
<trkpt lat="40.0713749" lon="-105.229789">
  <ele>1583.0</ele>
  <time>2026-08-28T17:50:48Z</time>
  <course>0.0</course>
  <speed>0.0</speed>
  <fix>3d</fix>
</trkpt>
<trkpt lat="40.0713751" lon="-105.2297889">
  <ele>1582.99</ele>
  <time>2026-08-28T17:50:48Z</time>
  <course>246.98</course>
  <speed>0.022360679774997897</speed>
  <fix>3d</fix>
</trkpt>
<trkpt lat="40.0713749" lon="-105.229789">
  <ele>1583.0</ele>
  <time>2026-08-28T17:50:48Z</time>
  <course>0.0</course>
  <speed>0.0</speed>
  <fix>3d</fix>
</trkpt>
<trkpt lat="40.071375" lon="-105.2297889">
  <ele>1582.99</ele>
  <time>2026-08-28T17:50:48Z</time>
  <course>246.98</course>
  <speed>0.022360679774997897</speed>
  <fix>3d</fix>
</trkpt>
<trkpt lat="40.0713749" lon="-105.229789">
  <ele>1583.0</ele>
  <time>2026-08-28T17:50:48Z</time>
  <course>0.0</course>
  <speed>0.0</speed>
  <fix>3d</fix>
</trkpt>
<trkpt lat="40.0713751" lon="-105.2297889">
  <ele>1582.99</ele>
  <time>2026-08-28T17:50:48Z</time>
  <course>246.98</course>
  <speed>0.022360679774997897</speed>
  <fix>3d</fix>
</trkpt>
<trkpt lat="40.0713749" lon="-105.229789">
  <ele>1583.0</ele>
  <time>2026-08-28T17:50:48Z</time>
  <course>0.0</course>
  <speed>0.0</speed>
  <fix>3d</fix>
</trkpt>
<trkpt lat="40.071375" lon="-105.2297889">
  <ele>1582.99</ele>
  <time>2026-08-28T17:50:48Z</time>
  <course>246.98</course>
  <speed>0.022360679774997897</speed>
  <fix>3d</fix>
</trkpt>
<trkpt lat="40.0713749" lon="-105.229789">
  <ele>1583.0</ele>
  <time>2026-08-28T17:50:48Z</time>
  <course>0.0</course>
  <speed>0.0</speed>
  <fix>3d</fix>
</trkpt>
<trkpt lat="40.0713751" lon="-105.2297889">
  <ele>1582.99</ele>
  <time>2026-08-28T17:50:48Z</time>
  <course>246.98</course>
  <speed>0.022360679774997897</speed>
  <fix>3d</fix>
</trkpt>
<trkpt lat="40.0713749" lon="-105.229789">
  <ele>1583.0</ele>
  <time>2026-08-28T17:50:48Z</time>
  <course>0.0</course>
  <speed>0.0</speed>
  <fix>3d</fix>
</trkpt>
<trkpt lat="40.071375" lon="-105.2297889">
  <ele>1582.99</ele>
  <time>2026-08-28T17:50:48Z</time>
  <course>246.98</course>
  <speed>0.022360679774997897</speed>
  <fix>3d</fix>
</trkpt>
<trkpt lat="40.0713749" lon="-105.229789">
  <ele>1583.0</ele>
  <time>2026-08-28T17:50:48Z</time>
  <course>0.0</course>
  <speed>0.0</speed>
  <fix>3d</fix>
</trkpt>
<trkpt lat="40.0713751" lon="-105.2297889">
  <ele>1582.99</ele>
  <time>2026-08-28T17:50:48Z</time>
  <course>246.98</course>
  <speed>0.022360679774997897</speed>
  <fix>3d</fix>
</trkpt>
<trkpt lat="40.0713749" lon="-105.229789">
  <ele>1583.0</ele>
  <time>2026-08-28T17:50:48Z</time>
  <course>0.0</course>
  <speed>0.0</speed>
  <fix>3d</fix>
</trkpt>
<trkpt lat="40.071375" lon="-105.2297889">
  <ele>1582.99</ele>
  <time>2026-08-28T17:50:48Z</time>
  <course>246.98</course>
  <speed>0.022360679774997897</speed>
  <fix>3d</fix>
</trkpt>
<trkpt lat="40.0713749" lon="-105.229789">
  <ele>1583.0</ele>
  <time>2026-08-28T17:50:48Z</time>
  <course>0.0</course>
  <speed>0.0</speed>
  <fix>3d</fix>
</trkpt>
<trkpt lat="40.0713751" lon="-105.2297889">
  <ele>1582.99</ele>
  <time>2026-08-28T17:50:48Z</time>
  <course>246.98</course>
  <speed>0.022360679774997897</speed>
  <fix>3d</fix>
</trkpt>
<trkpt lat="40.0713749" lon="-105.229789">
  <ele>1583.0</ele>
  <time>2026-08-28T17:50:48Z</time>
  <course>0.0</course>
  <speed>0.0</speed>
  <fix>3d</fix>
</trkpt>
<trkpt lat="40.071375" lon="-105.2297889">
  <ele>1582.99</ele>
  <time>2026-08-28T17:50:48Z</time>
  <course>246.98</course>
  <speed>0.022360679774997897</speed>
  <fix>3d</fix>
</trkpt>
<trkpt lat="40.0713749" lon="-105.229789">
  <ele>1583.0</ele>
  <time>2026-08-28T17:50:48Z</time>
  <course>0.0</course>
  <speed>0.0</speed>
  <fix>3d</fix>
</trkpt>
<trkpt lat="40.0713751" lon="-105.2297889">
  <ele>1582.99</ele>
  <time>2026-08-28T17:50:48Z</time>
  <course>246.98</course>
  <speed>0.022360679774997897</speed>
  <fix>3d</fix>
</trkpt>
<trkpt lat="40.0713749" lon="-105.229789">
  <ele>1583.0</ele>
  <time>2026-08-28T17:50:48Z</time>
  <course>0.0</course>
  <speed>0.0</speed>
  <fix>3d</fix>
</trkpt>
<trkpt lat="40.071375" lon="-105.2297889">
  <ele>1583.0</ele>
  <time>2026-08-28T17:50:48Z</time>
  <course>246.98</course>
  <speed>0.022360679774997897</speed>
  <fix>3d</fix>
</trkpt>
<trkpt lat="40.0713749" lon="-105.229789">
  <ele>1583.0</ele>
  <time>2026-08-28T17:50:48Z</time>
  <course>0.0</course>
  <speed>0.0</speed>
  <fix>3d</fix>
</trkpt>
<trkpt lat="40.0713751" lon="-105.2297889">
  <ele>1583.0</ele>
  <time>2026-08-28T17:50:48Z</time>
  <course>246.98</course>
  <speed>0.022360679774997897</speed>
  <fix>3d</fix>
</trkpt>
<trkpt lat="40.0713749" lon="-105.229789">
  <ele>1583.0</ele>
  <time>2026-08-28T17:50:48Z</time>
  <course>0.0</course>
  <speed>0.0</speed>
  <fix>3d</fix>
</trkpt>
<trkpt lat="40.071375" lon="-105.2297889">
  <ele>1583.01</ele>
  <time>2026-08-28T17:50:48Z</time>
  <course>246.98</course>
  <speed>0.022360679774997897</speed>
  <fix>3d</fix>
</trkpt>
<trkpt lat="40.0713749" lon="-105.229789">
  <ele>1583.0</ele>
  <time>2026-08-28T17:50:48Z</time>
  <course>0.0</course>
  <speed>0.0</speed>
  <fix>3d</fix>
</trkpt>
<trkpt lat="40.0713751" lon="-105.2297889">
  <ele>1583.01</ele>
  <time>2026-08-28T17:50:48Z</time>
  <course>246.98</course>
  <speed>0.022360679774997897</speed>
  <fix>3d</fix>
</trkpt>
<trkpt lat="40.0713749" lon="-105.229789">
  <ele>1583.0</ele>
  <time>2026-08-28T17:50:48Z</time>
  <course>0.0</course>
  <speed>0.0</speed>
  <fix>3d</fix>
</trkpt>
<trkpt lat="40.0713751" lon="-105.2297889">
  <ele>1583.02</ele>
  <time>2026-08-28T17:50:48Z</time>
  <course>246.98</course>
  <speed>0.022360679774997897</speed>
  <fix>3d</fix>
</trkpt>
<trkpt lat="40.0713749" lon="-105.229789">
  <ele>1583.0</ele>
  <time>2026-08-28T17:50:48Z</time>
  <course>0.0</course>
  <speed>0.0</speed>
  <fix>3d</fix>
</trkpt>
<trkpt lat="40.0713751" lon="-105.2297889">
  <ele>1583.03</ele>
  <time>2026-08-28T17:50:48Z</time>
  <course>246.98</course>
  <speed>0.022360679774997897</speed>
  <fix>3d</fix>
</trkpt>
<trkpt lat="40.0713749" lon="-105.229789">
  <ele>1583.0</ele>
  <time>2026-08-28T17:50:48Z</time>
  <course>0.0</course>
  <speed>0.0</speed>
  <fix>3d</fix>
</trkpt>
<trkpt lat="40.0713751" lon="-105.2297889">
  <ele>1583.03</ele>
  <time>2026-08-28T17:50:48Z</time>
  <course>246.98</course>
  <speed>0.022360679774997897</speed>
  <fix>3d</fix>
</trkpt>
<trkpt lat="40.0713749" lon="-105.229789">
  <ele>1583.0</ele>
  <time>2026-08-28T17:50:48Z</time>
  <course>0.0</course>
  <speed>0.0</speed>
  <fix>3d</fix>
</trkpt>
<trkpt lat="40.0713751" lon="-105.2297889">
  <ele>1583.04</ele>
  <time>2026-08-28T17:50:48Z</time>
  <course>246.98</course>
  <speed>0.022360679774997897</speed>
  <fix>3d</fix>
</trkpt>
<trkpt lat="40.0713749" lon="-105.229789">
  <ele>1583.0</ele>
  <time>2026-08-28T17:50:48Z</time>
  <course>0.0</course>
  <speed>0.0</speed>
  <fix>3d</fix>
</trkpt>
<trkpt lat="40.0713751" lon="-105.2297889">
  <ele>1583.04</ele>
  <time>2026-08-28T17:50:48Z</time>
  <course>246.98</course>
  <speed>0.022360679774997897</speed>
  <fix>3d</fix>
</trkpt>
<trkpt lat="40.0713749" lon="-105.229789">
  <ele>1583.0</ele>
  <time>2026-08-28T17:50:48Z</time>
  <course>0.0</course>
  <speed>0.0</speed>
  <fix>3d</fix>
</trkpt>
<trkpt lat="40.0713751" lon="-105.2297889">
  <ele>1583.05</ele>
  <time>2026-08-28T17:50:48Z</time>
  <course>246.98</course>
  <speed>0.022360679774997897</speed>
  <fix>3d</fix>
</trkpt>
<trkpt lat="40.0713749" lon="-105.229789">
  <ele>1583.0</ele>
  <time>2026-08-28T17:50:48Z</time>
  <course>0.0</course>
  <speed>0.0</speed>
  <fix>3d</fix>
</trkpt>
<trkpt lat="40.0713751" lon="-105.2297889">
  <ele>1583.05</ele>
  <time>2026-08-28T17:50:48Z</time>
  <course>246.98</course>
  <speed>0.022360679774997897</speed>
  <fix>3d</fix>
</trkpt>
<trkpt lat="40.0713749" lon="-105.229789">
  <ele>1583.0</ele>
  <time>2026-08-28T17:50:48Z</time>
  <course>0.0</course>
  <speed>0.0</speed>
  <fix>3d</fix>
</trkpt>
<trkpt lat="40.0713751" lon="-105.2297889">
  <ele>1583.05</ele>
  <time>2026-08-28T17:50:48Z</time>
  <course>246.98</course>
  <speed>0.022360679774997897</speed>
  <fix>3d</fix>
</trkpt>
<trkpt lat="40.0713749" lon="-105.229789">
  <ele>1583.0</ele>
  <time>2026-08-28T17:50:48Z</time>
  <course>0.0</course>
  <speed>0.0</speed>
  <fix>3d</fix>
</trkpt>
<trkpt lat="40.071375" lon="-105.2297889">
  <ele>1583.05</ele>
  <time>2026-08-28T17:50:48Z</time>
  <course>246.98</course>
  <speed>0.022360679774997897</speed>
  <fix>3d</fix>
</trkpt>
<trkpt lat="40.0713749" lon="-105.229789">
  <ele>1583.0</ele>
  <time>2026-08-28T17:50:48Z</time>
  <course>0.0</course>
  <speed>0.0</speed>
  <fix>3d</fix>
</trkpt>
<trkpt lat="40.0713751" lon="-105.2297889">
  <ele>1583.05</ele>
  <time>2026-08-28T17:50:48Z</time>
  <course>246.98</course>
  <speed>0.022360679774997897</speed>
  <fix>3d</fix>
</trkpt>
<trkpt lat="40.0713749" lon="-105.229789">
  <ele>1583.0</ele>
  <time>2026-08-28T17:50:48Z</time>
  <course>0.0</course>
  <speed>0.0</speed>
  <fix>3d</fix>
</trkpt>
<trkpt lat="40.071375" lon="-105.2297889">
  <ele>1583.05</ele>
  <time>2026-08-28T17:50:48Z</time>
  <course>246.98</course>
  <speed>0.022360679774997897</speed>
  <fix>3d</fix>
</trkpt>
<trkpt lat="40.0713749" lon="-105.229789">
  <ele>1583.0</ele>
  <time>2026-08-28T17:50:48Z</time>
  <course>0.0</course>
  <speed>0.0</speed>
  <fix>3d</fix>
</trkpt>
<trkpt lat="40.0713751" lon="-105.2297889">
  <ele>1583.04</ele>
  <time>2026-08-28T17:50:48Z</time>
  <course>246.98</course>
  <speed>0.022360679774997897</speed>
  <fix>3d</fix>
</trkpt>
<trkpt lat="40.0713749" lon="-105.229789">
  <ele>1583.0</ele>
  <time>2026-08-28T17:50:48Z</time>
  <course>0.0</course>
  <speed>0.0</speed>
  <fix>3d</fix>
</trkpt>
<trkpt lat="40.071375" lon="-105.2297889">
  <ele>1583.04</ele>
  <time>2026-08-28T17:50:48Z</time>
  <course>246.98</course>
  <speed>0.022360679774997897</speed>
  <fix>3d</fix>
</trkpt>
<trkpt lat="40.0713749" lon="-105.229789">
  <ele>1583.0</ele>
  <time>2026-08-28T17:50:48Z</time>
  <course>0.0</course>
  <speed>0.0</speed>
  <fix>3d</fix>
</trkpt>
<trkpt lat="40.0713751" lon="-105.2297889">
  <ele>1583.04</ele>
  <time>2026-08-28T17:50:48Z</time>
  <course>246.98</course>
  <speed>0.022360679774997897</speed>
  <fix>3d</fix>
</trkpt>
<trkpt lat="40.0713749" lon="-105.229789">
  <ele>1583.0</ele>
  <time>2026-08-28T17:50:48Z</time>
  <course>0.0</course>
  <speed>0.0</speed>
  <fix>3d</fix>
</trkpt>
<trkpt lat="40.071375" lon="-105.2297889">
  <ele>1583.04</ele>
  <time>2026-08-28T17:50:48Z</time>
  <course>246.98</course>
  <speed>0.02</speed>
  <fix>3d</fix>
</trkpt>
<trkpt lat="40.0713749" lon="-105.229789">
  <ele>1583.0</ele>
  <time>2026-08-28T17:50:48Z</time>
  <course>0.0</course>
  <speed>0.0</speed>
  <fix>3d</fix>
</trkpt>
<trkpt lat="40.0713751" lon="-105.2297889">
  <ele>1583.04</ele>
  <time>2026-08-28T17:50:48Z</time>
  <course>246.98</course>
  <speed>0.022360679774997897</speed>
  <fix>3d</fix>
</trkpt>
<trkpt lat="40.0713749" lon="-105.229789">
  <ele>1583.0</ele>
  <time>2026-08-28T17:50:48Z</time>
  <course>0.0</course>
  <speed>0.0</speed>
  <fix>3d</fix>
</trkpt>
<trkpt lat="40.071375" lon="-105.2297889">
  <ele>1583.05</ele>
  <time>2026-08-28T17:50:48Z</time>
  <course>246.98</course>
  <speed>0.02</speed>
  <fix>3d</fix>
</trkpt>
<trkpt lat="40.0713749" lon="-105.229789">
  <ele>1583.0</ele>
  <time>2026-08-28T17:50:48Z</time>
  <course>0.0</course>
  <speed>0.0</speed>
  <fix>3d</fix>
</trkpt>
<trkpt lat="40.0713751" lon="-105.2297889">
  <ele>1583.05</ele>
  <time>2026-08-28T17:50:48Z</time>
  <course>246.98</course>
  <speed>0.022360679774997897</speed>
  <fix>3d</fix>
</trkpt>
<trkpt lat="40.0713749" lon="-105.229789">
  <ele>1583.0</ele>
  <time>2026-08-28T17:50:48Z</time>
  <course>0.0</course>
  <speed>0.0</speed>
  <fix>3d</fix>
</trkpt>
<trkpt lat="40.071375" lon="-105.2297889">
  <ele>1583.05</ele>
  <time>2026-08-28T17:50:48Z</time>
  <course>246.98</course>
  <speed>0.02</speed>
  <fix>3d</fix>
</trkpt>
<trkpt lat="40.0713749" lon="-105.229789">
  <ele>1583.0</ele>
  <time>2026-08-28T17:50:48Z</time>
  <course>0.0</course>
  <speed>0.0</speed>
  <fix>3d</fix>
</trkpt>
<trkpt lat="40.0713751" lon="-105.2297889">
  <ele>1583.06</ele>
  <time>2026-08-28T17:50:48Z</time>
  <course>246.98</course>
  <speed>0.022360679774997897</speed>
  <fix>3d</fix>
</trkpt>
<trkpt lat="40.0713749" lon="-105.229789">
  <ele>1583.0</ele>
  <time>2026-08-28T17:50:48Z</time>
  <course>0.0</course>
  <speed>0.0</speed>
  <fix>3d</fix>
</trkpt>
<trkpt lat="40.0713751" lon="-105.2297889">
  <ele>1583.06</ele>
  <time>2026-08-28T17:50:48Z</time>
  <course>246.98</course>
  <speed>0.022360679774997897</speed>
  <fix>3d</fix>
</trkpt>
<trkpt lat="40.0713749" lon="-105.229789">
  <ele>1583.0</ele>
  <time>2026-08-28T17:50:48Z</time>
  <course>0.0</course>
  <speed>0.0</speed>
  <fix>3d</fix>
</trkpt>
<trkpt lat="40.0713751" lon="-105.2297889">
  <ele>1583.06</ele>
  <time>2026-08-28T17:50:48Z</time>
  <course>246.98</course>
  <speed>0.022360679774997897</speed>
  <fix>3d</fix>
</trkpt>
<trkpt lat="40.0713749" lon="-105.229789">
  <ele>1583.0</ele>
  <time>2026-08-28T17:50:48Z</time>
  <course>0.0</course>
  <speed>0.0</speed>
  <fix>3d</fix>
</trkpt>
<trkpt lat="40.0713751" lon="-105.2297889">
  <ele>1583.07</ele>
  <time>2026-08-28T17:50:48Z</time>
  <course>246.98</course>
  <speed>0.022360679774997897</speed>
  <fix>3d</fix>
</trkpt>
<trkpt lat="40.0713749" lon="-105.229789">
  <ele>1583.0</ele>
  <time>2026-08-28T17:50:48Z</time>
  <course>0.0</course>
  <speed>0.0</speed>
  <fix>3d</fix>
</trkpt>
<trkpt lat="40.0713751" lon="-105.2297889">
  <ele>1583.07</ele>
  <time>2026-08-28T17:50:48Z</time>
  <course>246.98</course>
  <speed>0.022360679774997897</speed>
  <fix>3d</fix>
</trkpt>
<trkpt lat="40.0713749" lon="-105.229789">
  <ele>1583.0</ele>
  <time>2026-08-28T17:50:48Z</time>
  <course>0.0</course>
  <speed>0.0</speed>
  <fix>3d</fix>
</trkpt>
<trkpt lat="40.0713751" lon="-105.2297889">
  <ele>1583.07</ele>
  <time>2026-08-28T17:50:48Z</time>
  <course>246.98</course>
  <speed>0.022360679774997897</speed>
  <fix>3d</fix>
</trkpt>
<trkpt lat="40.0713749" lon="-105.229789">
  <ele>1583.0</ele>
  <time>2026-08-28T17:50:48Z</time>
  <course>0.0</course>
  <speed>0.0</speed>
  <fix>3d</fix>
</trkpt>
<trkpt lat="40.0713751" lon="-105.2297889">
  <ele>1583.07</ele>
  <time>2026-08-28T17:50:48Z</time>
  <course>246.98</course>
  <speed>0.022360679774997897</speed>
  <fix>3d</fix>
</trkpt>
<trkpt lat="40.0713749" lon="-105.229789">
  <ele>1583.0</ele>
  <time>2026-08-28T17:50:48Z</time>
  <course>0.0</course>
  <speed>0.0</speed>
  <fix>3d</fix>
</trkpt>
<trkpt lat="40.071375" lon="-105.2297889">
  <ele>1583.08</ele>
  <time>2026-08-28T17:50:48Z</time>
  <course>246.98</course>
  <speed>0.02</speed>
  <fix>3d</fix>
</trkpt>
<trkpt lat="40.0713749" lon="-105.229789">
  <ele>1583.0</ele>
  <time>2026-08-28T17:50:48Z</time>
  <course>0.0</course>
  <speed>0.0</speed>
  <fix>3d</fix>
</trkpt>
<trkpt lat="40.0713751" lon="-105.2297889">
  <ele>1583.08</ele>
  <time>2026-08-28T17:50:48Z</time>
  <course>246.98</course>
  <speed>0.022360679774997897</speed>
  <fix>3d</fix>
</trkpt>
<trkpt lat="40.0713749" lon="-105.229789">
  <ele>1583.0</ele>
  <time>2026-08-28T17:50:48Z</time>
  <course>0.0</course>
  <speed>0.0</speed>
  <fix>3d</fix>
</trkpt>
<trkpt lat="40.071375" lon="-105.2297889">
  <ele>1583.08</ele>
  <time>2026-08-28T17:50:48Z</time>
  <course>246.98</course>
  <speed>0.02</speed>
  <fix>3d</fix>
</trkpt>
<trkpt lat="40.0713749" lon="-105.229789">
  <ele>1583.0</ele>
  <time>2026-08-28T17:50:48Z</time>
  <course>0.0</course>
  <speed>0.0</speed>
  <fix>3d</fix>
</trkpt>
<trkpt lat="40.0713751" lon="-105.2297889">
  <ele>1583.08</ele>
  <time>2026-08-28T17:50:48Z</time>
  <course>246.98</course>
  <speed>0.022360679774997897</speed>
  <fix>3d</fix>
</trkpt>
<trkpt lat="40.0713749" lon="-105.229789">
  <ele>1583.0</ele>
  <time>2026-08-28T17:50:48Z</time>
  <course>0.0</course>
  <speed>0.0</speed>
  <fix>3d</fix>
</trkpt>
<trkpt lat="40.071375" lon="-105.2297889">
  <ele>1583.09</ele>
  <time>2026-08-28T17:50:48Z</time>
  <course>246.98</course>
  <speed>0.02</speed>
  <fix>3d</fix>
</trkpt>
<trkpt lat="40.0713749" lon="-105.229789">
  <ele>1583.0</ele>
  <time>2026-08-28T17:50:48Z</time>
  <course>0.0</course>
  <speed>0.0</speed>
  <fix>3d</fix>
</trkpt>
<trkpt lat="40.0713751" lon="-105.2297889">
  <ele>1583.09</ele>
  <time>2026-08-28T17:50:48Z</time>
  <course>246.98</course>
  <speed>0.022360679774997897</speed>
  <fix>3d</fix>
</trkpt>
<trkpt lat="40.0713749" lon="-105.229789">
  <ele>1583.0</ele>
  <time>2026-08-28T17:50:48Z</time>
  <course>0.0</course>
  <speed>0.0</speed>
  <fix>3d</fix>
</trkpt>
<trkpt lat="40.071375" lon="-105.2297889">
  <ele>1583.09</ele>
  <time>2026-08-28T17:50:48Z</time>
  <course>246.98</course>
  <speed>0.02</speed>
  <fix>3d</fix>
</trkpt>
<trkpt lat="40.0713749" lon="-105.229789">
  <ele>1583.0</ele>
  <time>2026-08-28T17:50:48Z</time>
  <course>0.0</course>
  <speed>0.0</speed>
  <fix>3d</fix>
</trkpt>
<trkpt lat="40.0713751" lon="-105.2297889">
  <ele>1583.09</ele>
  <time>2026-08-28T17:50:48Z</time>
  <course>246.98</course>
  <speed>0.022360679774997897</speed>
  <fix>3d</fix>
</trkpt>
<trkpt lat="40.0713749" lon="-105.229789">
  <ele>1583.0</ele>
  <time>2026-08-28T17:50:48Z</time>
  <course>0.0</course>
  <speed>0.0</speed>
  <fix>3d</fix>
</trkpt>
<trkpt lat="40.071375" lon="-105.2297889">
  <ele>1583.09</ele>
  <time>2026-08-28T17:50:48Z</time>
  <course>246.98</course>
  <speed>0.02</speed>
  <fix>3d</fix>
</trkpt>
<trkpt lat="40.0713749" lon="-105.229789">
  <ele>1583.0</ele>
  <time>2026-08-28T17:50:48Z</time>
  <course>0.0</course>
  <speed>0.0</speed>
  <fix>3d</fix>
</trkpt>
<trkpt lat="40.0713751" lon="-105.2297889">
  <ele>1583.08</ele>
  <time>2026-08-28T17:50:48Z</time>
  <course>246.98</course>
  <speed>0.02</speed>
  <fix>3d</fix>
</trkpt>
<trkpt lat="40.0713749" lon="-105.229789">
  <ele>1583.0</ele>
  <time>2026-08-28T17:50:48Z</time>
  <course>0.0</course>
  <speed>0.0</speed>
  <fix>3d</fix>
</trkpt>
<trkpt lat="40.071375" lon="-105.2297889">
  <ele>1583.08</ele>
  <time>2026-08-28T17:50:48Z</time>
  <course>246.98</course>
  <speed>0.02</speed>
  <fix>3d</fix>
</trkpt>
<trkpt lat="40.0713749" lon="-105.229789">
  <ele>1583.0</ele>
  <time>2026-08-28T17:50:48Z</time>
  <course>0.0</course>
  <speed>0.0</speed>
  <fix>3d</fix>
</trkpt>
<trkpt lat="40.0713751" lon="-105.2297889">
  <ele>1583.07</ele>
  <time>2026-08-28T17:50:48Z</time>
  <course>246.98</course>
  <speed>0.02</speed>
  <fix>3d</fix>
</trkpt>
<trkpt lat="40.0713749" lon="-105.229789">
  <ele>1583.0</ele>
  <time>2026-08-28T17:50:48Z</time>
  <course>0.0</course>
  <speed>0.0</speed>
  <fix>3d</fix>
</trkpt>
<trkpt lat="40.071375" lon="-105.2297889">
  <ele>1583.07</ele>
  <time>2026-08-28T17:50:48Z</time>
  <course>246.98</course>
  <speed>0.02</speed>
  <fix>3d</fix>
</trkpt>
<trkpt lat="40.0713749" lon="-105.229789">
  <ele>1583.0</ele>
  <time>2026-08-28T17:50:48Z</time>
  <course>0.0</course>
  <speed>0.0</speed>
  <fix>3d</fix>
</trkpt>
<trkpt lat="40.0713751" lon="-105.2297889">
  <ele>1583.06</ele>
  <time>2026-08-28T17:50:48Z</time>
  <course>246.98</course>
  <speed>0.02</speed>
  <fix>3d</fix>
</trkpt>
<trkpt lat="40.0713749" lon="-105.229789">
  <ele>1583.0</ele>
  <time>2026-08-28T17:50:48Z</time>
  <course>0.0</course>
  <speed>0.0</speed>
  <fix>3d</fix>
</trkpt>
<trkpt lat="40.0713751" lon="-105.2297889">
  <ele>1583.06</ele>
  <time>2026-08-28T17:50:48Z</time>
  <course>246.98</course>
  <speed>0.02</speed>
  <fix>3d</fix>
</trkpt>
<trkpt lat="40.0713749" lon="-105.229789">
  <ele>1583.0</ele>
  <time>2026-08-28T17:50:48Z</time>
  <course>0.0</course>
  <speed>0.0</speed>
  <fix>3d</fix>
</trkpt>
<trkpt lat="40.0713751" lon="-105.2297889">
  <ele>1583.05</ele>
  <time>2026-08-28T17:50:48Z</time>
  <course>246.98</course>
  <speed>0.022360679774997897</speed>
  <fix>3d</fix>
</trkpt>
<trkpt lat="40.0713749" lon="-105.229789">
  <ele>1583.0</ele>
  <time>2026-08-28T17:50:48Z</time>
  <course>0.0</course>
  <speed>0.0</speed>
  <fix>3d</fix>
</trkpt>
<trkpt lat="40.0713751" lon="-105.2297889">
  <ele>1583.05</ele>
  <time>2026-08-28T17:50:48Z</time>
  <course>246.98</course>
  <speed>0.02</speed>
  <fix>3d</fix>
</trkpt>
<trkpt lat="40.0713749" lon="-105.229789">
  <ele>1583.0</ele>
  <time>2026-08-28T17:50:48Z</time>
  <course>0.0</course>
  <speed>0.0</speed>
  <fix>3d</fix>
</trkpt>
<trkpt lat="40.0713751" lon="-105.2297889">
  <ele>1583.05</ele>
  <time>2026-08-28T17:50:48Z</time>
  <course>246.98</course>
  <speed>0.022360679774997897</speed>
  <fix>3d</fix>
</trkpt>
<trkpt lat="40.0713749" lon="-105.229789">
  <ele>1583.0</ele>
  <time>2026-08-28T17:50:48Z</time>
  <course>0.0</course>
  <speed>0.0</speed>
  <fix>3d</fix>
</trkpt>
<trkpt lat="40.0713751" lon="-105.2297889">
  <ele>1583.04</ele>
  <time>2026-08-28T17:50:48Z</time>
  <course>246.98</course>
  <speed>0.02</speed>
  <fix>3d</fix>
</trkpt>
<trkpt lat="40.0713749" lon="-105.229789">
  <ele>1583.0</ele>
  <time>2026-08-28T17:50:48Z</time>
  <course>0.0</course>
  <speed>0.0</speed>
  <fix>3d</fix>
</trkpt>
<trkpt lat="40.0713751" lon="-105.2297889">
  <ele>1583.04</ele>
  <time>2026-08-28T17:50:48Z</time>
  <course>246.98</course>
  <speed>0.022360679774997897</speed>
  <fix>3d</fix>
</trkpt>
<trkpt lat="40.0713749" lon="-105.229789">
  <ele>1583.0</ele>
  <time>2026-08-28T17:50:48Z</time>
  <course>0.0</course>
  <speed>0.0</speed>
  <fix>3d</fix>
</trkpt>
<trkpt lat="40.0713751" lon="-105.2297889">
  <ele>1583.04</ele>
  <time>2026-08-28T17:50:48Z</time>
  <course>246.98</course>
  <speed>0.02</speed>
  <fix>3d</fix>
</trkpt>
<trkpt lat="40.0713749" lon="-105.229789">
  <ele>1583.0</ele>
  <time>2026-08-28T17:50:48Z</time>
  <course>0.0</course>
  <speed>0.0</speed>
  <fix>3d</fix>
</trkpt>
<trkpt lat="40.0713751" lon="-105.2297889">
  <ele>1583.04</ele>
  <time>2026-08-28T17:50:48Z</time>
  <course>246.98</course>
  <speed>0.022360679774997897</speed>
  <fix>3d</fix>
</trkpt>
<trkpt lat="40.0713749" lon="-105.229789">
  <ele>1583.0</ele>
  <time>2026-08-28T17:50:48Z</time>
  <course>0.0</course>
  <speed>0.0</speed>
  <fix>3d</fix>
</trkpt>
<trkpt lat="40.071375" lon="-105.2297889">
  <ele>1583.04</ele>
  <time>2026-08-28T17:50:48Z</time>
  <course>246.98</course>
  <speed>0.02</speed>
  <fix>3d</fix>
</trkpt>
<trkpt lat="40.0713749" lon="-105.229789">
  <ele>1583.0</ele>
  <time>2026-08-28T17:50:48Z</time>
  <course>0.0</course>
  <speed>0.0</speed>
  <fix>3d</fix>
</trkpt>
<trkpt lat="40.0713751" lon="-105.2297889">
  <ele>1583.03</ele>
  <time>2026-08-28T17:50:48Z</time>
  <course>246.98</course>
  <speed>0.02</speed>
  <fix>3d</fix>
</trkpt>
<trkpt lat="40.0713749" lon="-105.229789">
  <ele>1583.0</ele>
  <time>2026-08-28T17:50:48Z</time>
  <course>0.0</course>
  <speed>0.0</speed>
  <fix>3d</fix>
</trkpt>
<trkpt lat="40.071375" lon="-105.2297889">
  <ele>1583.03</ele>
  <time>2026-08-28T17:50:48Z</time>
  <course>246.98</course>
  <speed>0.02</speed>
  <fix>3d</fix>
</trkpt>
<trkpt lat="40.0713749" lon="-105.229789">
  <ele>1583.0</ele>
  <time>2026-08-28T17:50:48Z</time>
  <course>0.0</course>
  <speed>0.0</speed>
  <fix>3d</fix>
</trkpt>
<trkpt lat="40.0713751" lon="-105.2297889">
  <ele>1583.03</ele>
  <time>2026-08-28T17:50:48Z</time>
  <course>246.98</course>
  <speed>0.02</speed>
  <fix>3d</fix>
</trkpt>
<trkpt lat="40.0713749" lon="-105.229789">
  <ele>1583.0</ele>
  <time>2026-08-28T17:50:48Z</time>
  <course>0.0</course>
  <speed>0.0</speed>
  <fix>3d</fix>
</trkpt>
<trkpt lat="40.071375" lon="-105.2297889">
  <ele>1583.02</ele>
  <time>2026-08-28T17:50:48Z</time>
  <course>246.98</course>
  <speed>0.02</speed>
  <fix>3d</fix>
</trkpt>
<trkpt lat="40.0713749" lon="-105.229789">
  <ele>1583.0</ele>
  <time>2026-08-28T17:50:48Z</time>
  <course>0.0</course>
  <speed>0.0</speed>
  <fix>3d</fix>
</trkpt>
<trkpt lat="40.0713751" lon="-105.2297889">
  <ele>1583.02</ele>
  <time>2026-08-28T17:50:48Z</time>
  <course>246.98</course>
  <speed>0.022360679774997897</speed>
  <fix>3d</fix>
</trkpt>
<trkpt lat="40.0713749" lon="-105.229789">
  <ele>1583.0</ele>
  <time>2026-08-28T17:50:48Z</time>
  <course>0.0</course>
  <speed>0.0</speed>
  <fix>3d</fix>
</trkpt>
<trkpt lat="40.071375" lon="-105.2297889">
  <ele>1583.02</ele>
  <time>2026-08-28T17:50:48Z</time>
  <course>246.98</course>
  <speed>0.02</speed>
  <fix>3d</fix>
</trkpt>
<trkpt lat="40.0713749" lon="-105.229789">
  <ele>1583.0</ele>
  <time>2026-08-28T17:50:48Z</time>
  <course>0.0</course>
  <speed>0.0</speed>
  <fix>3d</fix>
</trkpt>
<trkpt lat="40.0713751" lon="-105.2297889">
  <ele>1583.02</ele>
  <time>2026-08-28T17:50:48Z</time>
  <course>246.98</course>
  <speed>0.022360679774997897</speed>
  <fix>3d</fix>
</trkpt>
<trkpt lat="40.0713749" lon="-105.229789">
  <ele>1583.0</ele>
  <time>2026-08-28T17:50:48Z</time>
  <course>0.0</course>
  <speed>0.0</speed>
  <fix>3d</fix>
</trkpt>
<trkpt lat="40.071375" lon="-105.2297889">
  <ele>1583.02</ele>
  <time>2026-08-28T17:50:48Z</time>
  <course>246.98</course>
  <speed>0.02</speed>
  <fix>3d</fix>
</trkpt>
<trkpt lat="40.0713749" lon="-105.229789">
  <ele>1583.0</ele>
  <time>2026-08-28T17:50:48Z</time>
  <course>0.0</course>
  <speed>0.0</speed>
  <fix>3d</fix>
</trkpt>
<trkpt lat="40.0713751" lon="-105.2297889">
  <ele>1583.02</ele>
  <time>2026-08-28T17:50:48Z</time>
  <course>246.98</course>
  <speed>0.022360679774997897</speed>
  <fix>3d</fix>
</trkpt>
<trkpt lat="40.0713749" lon="-105.229789">
  <ele>1583.0</ele>
  <time>2026-08-28T17:50:48Z</time>
  <course>0.0</course>
  <speed>0.0</speed>
  <fix>3d</fix>
</trkpt>
<trkpt lat="40.071375" lon="-105.2297889">
  <ele>1583.02</ele>
  <time>2026-08-28T17:50:48Z</time>
  <course>246.98</course>
  <speed>0.02</speed>
  <fix>3d</fix>
</trkpt>
<trkpt lat="40.0713749" lon="-105.229789">
  <ele>1583.0</ele>
  <time>2026-08-28T17:50:48Z</time>
  <course>0.0</course>
  <speed>0.0</speed>
  <fix>3d</fix>
</trkpt>
<trkpt lat="40.0713751" lon="-105.2297889">
  <ele>1583.02</ele>
  <time>2026-08-28T17:50:48Z</time>
  <course>246.98</course>
  <speed>0.022360679774997897</speed>
  <fix>3d</fix>
</trkpt>
<trkpt lat="40.0713749" lon="-105.229789">
  <ele>1583.0</ele>
  <time>2026-08-28T17:50:48Z</time>
  <course>0.0</course>
  <speed>0.0</speed>
  <fix>3d</fix>
</trkpt>
<trkpt lat="40.071375" lon="-105.2297889">
  <ele>1583.02</ele>
  <time>2026-08-28T17:50:48Z</time>
  <course>246.98</course>
  <speed>0.02</speed>
  <fix>3d</fix>
</trkpt>
<trkpt lat="40.0713749" lon="-105.229789">
  <ele>1583.0</ele>
  <time>2026-08-28T17:50:48Z</time>
  <course>0.0</course>
  <speed>0.0</speed>
  <fix>3d</fix>
</trkpt>
<trkpt lat="40.0713751" lon="-105.2297889">
  <ele>1583.03</ele>
  <time>2026-08-28T17:50:48Z</time>
  <course>246.98</course>
  <speed>0.022360679774997897</speed>
  <fix>3d</fix>
</trkpt>
<trkpt lat="40.0713749" lon="-105.229789">
  <ele>1583.0</ele>
  <time>2026-08-28T17:50:48Z</time>
  <course>0.0</course>
  <speed>0.0</speed>
  <fix>3d</fix>
</trkpt>
<trkpt lat="40.0713751" lon="-105.2297889">
  <ele>1583.03</ele>
  <time>2026-08-28T17:50:48Z</time>
  <course>246.98</course>
  <speed>0.022360679774997897</speed>
  <fix>3d</fix>
</trkpt>
<trkpt lat="40.0713749" lon="-105.229789">
  <ele>1583.0</ele>
  <time>2026-08-28T17:50:48Z</time>
  <course>0.0</course>
  <speed>0.0</speed>
  <fix>3d</fix>
</trkpt>
<trkpt lat="40.0713751" lon="-105.2297889">
  <ele>1583.03</ele>
  <time>2026-08-28T17:50:48Z</time>
  <course>246.98</course>
  <speed>0.022360679774997897</speed>
  <fix>3d</fix>
</trkpt>
<trkpt lat="40.0713749" lon="-105.229789">
  <ele>1583.0</ele>
  <time>2026-08-28T17:50:48Z</time>
  <course>0.0</course>
  <speed>0.0</speed>
  <fix>3d</fix>
</trkpt>
<trkpt lat="40.0713751" lon="-105.2297889">
  <ele>1583.03</ele>
  <time>2026-08-28T17:50:48Z</time>
  <course>246.98</course>
  <speed>0.022360679774997897</speed>
  <fix>3d</fix>
</trkpt>
<trkpt lat="40.0713749" lon="-105.229789">
  <ele>1583.0</ele>
  <time>2026-08-28T17:50:48Z</time>
  <course>0.0</course>
  <speed>0.0</speed>
  <fix>3d</fix>
</trkpt>
<trkpt lat="40.0713751" lon="-105.2297889">
  <ele>1583.03</ele>
  <time>2026-08-28T17:50:48Z</time>
  <course>246.98</course>
  <speed>0.022360679774997897</speed>
  <fix>3d</fix>
</trkpt>
<trkpt lat="40.0713749" lon="-105.229789">
  <ele>1583.0</ele>
  <time>2026-08-28T17:50:48Z</time>
  <course>0.0</course>
  <speed>0.0</speed>
  <fix>3d</fix>
</trkpt>
<trkpt lat="40.0713751" lon="-105.2297889">
  <ele>1583.03</ele>
  <time>2026-08-28T17:50:48Z</time>
  <course>246.98</course>
  <speed>0.022360679774997897</speed>
  <fix>3d</fix>
</trkpt>
<trkpt lat="40.0713749" lon="-105.229789">
  <ele>1583.0</ele>
  <time>2026-08-28T17:50:48Z</time>
  <course>0.0</course>
  <speed>0.0</speed>
  <fix>3d</fix>
</trkpt>
<trkpt lat="40.0713751" lon="-105.2297889">
  <ele>1583.03</ele>
  <time>2026-08-28T17:50:48Z</time>
  <course>246.98</course>
  <speed>0.022360679774997897</speed>
  <fix>3d</fix>
</trkpt>
<trkpt lat="40.0713749" lon="-105.229789">
  <ele>1583.0</ele>
  <time>2026-08-28T17:50:48Z</time>
  <course>0.0</course>
  <speed>0.0</speed>
  <fix>3d</fix>
</trkpt>
<trkpt lat="40.0713751" lon="-105.2297889">
  <ele>1583.04</ele>
  <time>2026-08-28T17:50:48Z</time>
  <course>246.98</course>
  <speed>0.022360679774997897</speed>
  <fix>3d</fix>
</trkpt>
<trkpt lat="40.0713749" lon="-105.229789">
  <ele>1583.0</ele>
  <time>2026-08-28T17:50:48Z</time>
  <course>0.0</course>
  <speed>0.0</speed>
  <fix>3d</fix>
</trkpt>
<trkpt lat="40.0713751" lon="-105.2297889">
  <ele>1583.04</ele>
  <time>2026-08-28T17:50:48Z</time>
  <course>246.98</course>
  <speed>0.022360679774997897</speed>
  <fix>3d</fix>
</trkpt>
<trkpt lat="40.0713749" lon="-105.229789">
  <ele>1583.0</ele>
  <time>2026-08-28T17:50:48Z</time>
  <course>0.0</course>
  <speed>0.0</speed>
  <fix>3d</fix>
</trkpt>
<trkpt lat="40.071375" lon="-105.2297889">
  <ele>1583.04</ele>
  <time>2026-08-28T17:50:48Z</time>
  <course>246.98</course>
  <speed>0.022360679774997897</speed>
  <fix>3d</fix>
</trkpt>
<trkpt lat="40.0713749" lon="-105.229789">
  <ele>1583.0</ele>
  <time>2026-08-28T17:50:48Z</time>
  <course>0.0</course>
  <speed>0.0</speed>
  <fix>3d</fix>
</trkpt>
<trkpt lat="40.0713751" lon="-105.2297889">
  <ele>1583.04</ele>
  <time>2026-08-28T17:50:48Z</time>
  <course>246.98</course>
  <speed>0.022360679774997897</speed>
  <fix>3d</fix>
</trkpt>
<trkpt lat="40.0713749" lon="-105.229789">
  <ele>1583.0</ele>
  <time>2026-08-28T17:50:48Z</time>
  <course>0.0</course>
  <speed>0.0</speed>
  <fix>3d</fix>
</trkpt>
<trkpt lat="40.071375" lon="-105.2297889">
  <ele>1583.05</ele>
  <time>2026-08-28T17:50:48Z</time>
  <course>246.98</course>
  <speed>0.022360679774997897</speed>
  <fix>3d</fix>
</trkpt>
<trkpt lat="40.0713749" lon="-105.229789">
  <ele>1583.0</ele>
  <time>2026-08-28T17:50:48Z</time>
  <course>0.0</course>
  <speed>0.0</speed>
  <fix>3d</fix>
</trkpt>
<trkpt lat="40.0713751" lon="-105.2297889">
  <ele>1583.05</ele>
  <time>2026-08-28T17:50:48Z</time>
  <course>246.98</course>
  <speed>0.022360679774997897</speed>
  <fix>3d</fix>
</trkpt>
<trkpt lat="40.0713749" lon="-105.229789">
  <ele>1583.0</ele>
  <time>2026-08-28T17:50:48Z</time>
  <course>0.0</course>
  <speed>0.0</speed>
  <fix>3d</fix>
</trkpt>
<trkpt lat="40.071375" lon="-105.2297889">
  <ele>1583.05</ele>
  <time>2026-08-28T17:50:48Z</time>
  <course>246.98</course>
  <speed>0.022360679774997897</speed>
  <fix>3d</fix>
</trkpt>
<trkpt lat="40.0713749" lon="-105.229789">
  <ele>1583.0</ele>
  <time>2026-08-28T17:50:48Z</time>
  <course>0.0</course>
  <speed>0.0</speed>
  <fix>3d</fix>
</trkpt>
<trkpt lat="40.0713751" lon="-105.2297889">
  <ele>1583.05</ele>
  <time>2026-08-28T17:50:48Z</time>
  <course>246.98</course>
  <speed>0.022360679774997897</speed>
  <fix>3d</fix>
</trkpt>
<trkpt lat="40.0713749" lon="-105.229789">
  <ele>1583.0</ele>
  <time>2026-08-28T17:50:48Z</time>
  <course>0.0</course>
  <speed>0.0</speed>
  <fix>3d</fix>
</trkpt>
<trkpt lat="40.071375" lon="-105.2297889">
  <ele>1583.05</ele>
  <time>2026-08-28T17:50:48Z</time>
  <course>246.98</course>
  <speed>0.022360679774997897</speed>
  <fix>3d</fix>
</trkpt>
<trkpt lat="40.0713749" lon="-105.229789">
  <ele>1583.0</ele>
  <time>2026-08-28T17:50:48Z</time>
  <course>0.0</course>
  <speed>0.0</speed>
  <fix>3d</fix>
</trkpt>
<trkpt lat="40.0713751" lon="-105.2297889">
  <ele>1583.04</ele>
  <time>2026-08-28T17:50:48Z</time>
  <course>246.98</course>
  <speed>0.022360679774997897</speed>
  <fix>3d</fix>
</trkpt>
<trkpt lat="40.0713749" lon="-105.229789">
  <ele>1583.0</ele>
  <time>2026-08-28T17:50:48Z</time>
  <course>0.0</course>
  <speed>0.0</speed>
  <fix>3d</fix>
</trkpt>
<trkpt lat="40.071375" lon="-105.2297889">
  <ele>1583.04</ele>
  <time>2026-08-28T17:50:48Z</time>
  <course>246.98</course>
  <speed>0.022360679774997897</speed>
  <fix>3d</fix>
</trkpt>
<trkpt lat="40.0713749" lon="-105.229789">
  <ele>1583.0</ele>
  <time>2026-08-28T17:50:48Z</time>
  <course>0.0</course>
  <speed>0.0</speed>
  <fix>3d</fix>
</trkpt>
<trkpt lat="40.0713751" lon="-105.2297889">
  <ele>1583.03</ele>
  <time>2026-08-28T17:50:48Z</time>
  <course>246.98</course>
  <speed>0.022360679774997897</speed>
  <fix>3d</fix>
</trkpt>
<trkpt lat="40.0713749" lon="-105.229789">
  <ele>1583.0</ele>
  <time>2026-08-28T17:50:48Z</time>
  <course>0.0</course>
  <speed>0.0</speed>
  <fix>3d</fix>
</trkpt>
<trkpt lat="40.071375" lon="-105.2297889">
  <ele>1583.03</ele>
  <time>2026-08-28T17:50:49Z</time>
  <course>246.98</course>
  <speed>0.022360679774997897</speed>
  <fix>3d</fix>
</trkpt>
<trkpt lat="40.0713749" lon="-105.229789">
  <ele>1583.0</ele>
  <time>2026-08-28T17:50:49Z</time>
  <course>0.0</course>
  <speed>0.0</speed>
  <fix>3d</fix>
</trkpt>
<trkpt lat="40.0713751" lon="-105.2297889">
  <ele>1583.03</ele>
  <time>2026-08-28T17:50:49Z</time>
  <course>246.98</course>
  <speed>0.022360679774997897</speed>
  <fix>3d</fix>
</trkpt>
<trkpt lat="40.0713749" lon="-105.229789">
  <ele>1583.0</ele>
  <time>2026-08-28T17:50:49Z</time>
  <course>0.0</course>
  <speed>0.0</speed>
  <fix>3d</fix>
</trkpt>
<trkpt lat="40.0713751" lon="-105.2297889">
  <ele>1583.03</ele>
  <time>2026-08-28T17:50:49Z</time>
  <course>246.98</course>
  <speed>0.022360679774997897</speed>
  <fix>3d</fix>
</trkpt>
<trkpt lat="40.0713749" lon="-105.229789">
  <ele>1583.0</ele>
  <time>2026-08-28T17:50:49Z</time>
  <course>0.0</course>
  <speed>0.0</speed>
  <fix>3d</fix>
</trkpt>
<trkpt lat="40.0713751" lon="-105.2297889">
  <ele>1583.02</ele>
  <time>2026-08-28T17:50:49Z</time>
  <course>246.98</course>
  <speed>0.022360679774997897</speed>
  <fix>3d</fix>
</trkpt>
<trkpt lat="40.0713749" lon="-105.229789">
  <ele>1583.0</ele>
  <time>2026-08-28T17:50:49Z</time>
  <course>0.0</course>
  <speed>0.0</speed>
  <fix>3d</fix>
</trkpt>
<trkpt lat="40.0713751" lon="-105.2297889">
  <ele>1583.02</ele>
  <time>2026-08-28T17:50:49Z</time>
  <course>246.98</course>
  <speed>0.022360679774997897</speed>
  <fix>3d</fix>
</trkpt>
<trkpt lat="40.0713749" lon="-105.229789">
  <ele>1583.0</ele>
  <time>2026-08-28T17:50:49Z</time>
  <course>0.0</course>
  <speed>0.0</speed>
  <fix>3d</fix>
</trkpt>
<trkpt lat="40.0713751" lon="-105.2297889">
  <ele>1583.02</ele>
  <time>2026-08-28T17:50:49Z</time>
  <course>246.98</course>
  <speed>0.022360679774997897</speed>
  <fix>3d</fix>
</trkpt>
<trkpt lat="40.0713749" lon="-105.229789">
  <ele>1583.0</ele>
  <time>2026-08-28T17:50:49Z</time>
  <course>0.0</course>
  <speed>0.0</speed>
  <fix>3d</fix>
</trkpt>
<trkpt lat="40.0713751" lon="-105.2297889">
  <ele>1583.02</ele>
  <time>2026-08-28T17:50:49Z</time>
  <course>246.98</course>
  <speed>0.022360679774997897</speed>
  <fix>3d</fix>
</trkpt>
<trkpt lat="40.0713749" lon="-105.229789">
  <ele>1583.0</ele>
  <time>2026-08-28T17:50:49Z</time>
  <course>0.0</course>
  <speed>0.0</speed>
  <fix>3d</fix>
</trkpt>
<trkpt lat="40.0713751" lon="-105.2297889">
  <ele>1583.01</ele>
  <time>2026-08-28T17:50:49Z</time>
  <course>246.98</course>
  <speed>0.022360679774997897</speed>
  <fix>3d</fix>
</trkpt>
<trkpt lat="40.0713749" lon="-105.229789">
  <ele>1583.0</ele>
  <time>2026-08-28T17:50:49Z</time>
  <course>0.0</course>
  <speed>0.0</speed>
  <fix>3d</fix>
</trkpt>
<trkpt lat="40.0713751" lon="-105.2297889">
  <ele>1583.0</ele>
  <time>2026-08-28T17:50:49Z</time>
  <course>246.98</course>
  <speed>0.022360679774997897</speed>
  <fix>3d</fix>
</trkpt>
<trkpt lat="40.0713749" lon="-105.229789">
  <ele>1583.0</ele>
  <time>2026-08-28T17:50:49Z</time>
  <course>0.0</course>
  <speed>0.0</speed>
  <fix>3d</fix>
</trkpt>
<trkpt lat="40.0713751" lon="-105.2297889">
  <ele>1583.0</ele>
  <time>2026-08-28T17:50:49Z</time>
  <course>246.98</course>
  <speed>0.022360679774997897</speed>
  <fix>3d</fix>
</trkpt>
<trkpt lat="40.0713749" lon="-105.229789">
  <ele>1583.0</ele>
  <time>2026-08-28T17:50:49Z</time>
  <course>0.0</course>
  <speed>0.0</speed>
  <fix>3d</fix>
</trkpt>
<trkpt lat="40.0713751" lon="-105.2297889">
  <ele>1582.99</ele>
  <time>2026-08-28T17:50:49Z</time>
  <course>246.98</course>
  <speed>0.022360679774997897</speed>
  <fix>3d</fix>
</trkpt>
<trkpt lat="40.0713749" lon="-105.229789">
  <ele>1583.0</ele>
  <time>2026-08-28T17:50:49Z</time>
  <course>0.0</course>
  <speed>0.0</speed>
  <fix>3d</fix>
</trkpt>
<trkpt lat="40.0713751" lon="-105.2297889">
  <ele>1582.99</ele>
  <time>2026-08-28T17:50:49Z</time>
  <course>246.98</course>
  <speed>0.022360679774997897</speed>
  <fix>3d</fix>
</trkpt>
<trkpt lat="40.0713749" lon="-105.229789">
  <ele>1583.0</ele>
  <time>2026-08-28T17:50:49Z</time>
  <course>0.0</course>
  <speed>0.0</speed>
  <fix>3d</fix>
</trkpt>
<trkpt lat="40.071375" lon="-105.2297889">
  <ele>1582.99</ele>
  <time>2026-08-28T17:50:49Z</time>
  <course>246.98</course>
  <speed>0.022360679774997897</speed>
  <fix>3d</fix>
</trkpt>
<trkpt lat="40.0713749" lon="-105.229789">
  <ele>1583.0</ele>
  <time>2026-08-28T17:50:49Z</time>
  <course>0.0</course>
  <speed>0.0</speed>
  <fix>3d</fix>
</trkpt>
<trkpt lat="40.0713751" lon="-105.2297889">
  <ele>1582.98</ele>
  <time>2026-08-28T17:50:49Z</time>
  <course>246.98</course>
  <speed>0.022360679774997897</speed>
  <fix>3d</fix>
</trkpt>
<trkpt lat="40.0713749" lon="-105.229789">
  <ele>1583.0</ele>
  <time>2026-08-28T17:50:49Z</time>
  <course>0.0</course>
  <speed>0.0</speed>
  <fix>3d</fix>
</trkpt>
<trkpt lat="40.071375" lon="-105.2297889">
  <ele>1582.98</ele>
  <time>2026-08-28T17:50:49Z</time>
  <course>246.98</course>
  <speed>0.022360679774997897</speed>
  <fix>3d</fix>
</trkpt>
<trkpt lat="40.0713749" lon="-105.229789">
  <ele>1583.0</ele>
  <time>2026-08-28T17:50:49Z</time>
  <course>0.0</course>
  <speed>0.0</speed>
  <fix>3d</fix>
</trkpt>
<trkpt lat="40.0713751" lon="-105.2297889">
  <ele>1582.98</ele>
  <time>2026-08-28T17:50:49Z</time>
  <course>246.98</course>
  <speed>0.022360679774997897</speed>
  <fix>3d</fix>
</trkpt>
<trkpt lat="40.0713749" lon="-105.229789">
  <ele>1583.0</ele>
  <time>2026-08-28T17:50:49Z</time>
  <course>0.0</course>
  <speed>0.0</speed>
  <fix>3d</fix>
</trkpt>
<trkpt lat="40.071375" lon="-105.2297889">
  <ele>1582.99</ele>
  <time>2026-08-28T17:50:49Z</time>
  <course>246.98</course>
  <speed>0.022360679774997897</speed>
  <fix>3d</fix>
</trkpt>
<trkpt lat="40.0713749" lon="-105.229789">
  <ele>1583.0</ele>
  <time>2026-08-28T17:50:49Z</time>
  <course>0.0</course>
  <speed>0.0</speed>
  <fix>3d</fix>
</trkpt>
<trkpt lat="40.0713751" lon="-105.2297889">
  <ele>1582.99</ele>
  <time>2026-08-28T17:50:49Z</time>
  <course>246.98</course>
  <speed>0.022360679774997897</speed>
  <fix>3d</fix>
</trkpt>
<trkpt lat="40.0713749" lon="-105.229789">
  <ele>1583.0</ele>
  <time>2026-08-28T17:50:49Z</time>
  <course>0.0</course>
  <speed>0.0</speed>
  <fix>3d</fix>
</trkpt>
<trkpt lat="40.071375" lon="-105.2297889">
  <ele>1582.99</ele>
  <time>2026-08-28T17:50:50Z</time>
  <course>246.98</course>
  <speed>0.022360679774997897</speed>
  <fix>3d</fix>
</trkpt>
<trkpt lat="40.0713749" lon="-105.229789">
  <ele>1583.0</ele>
  <time>2026-08-28T17:50:50Z</time>
  <course>0.0</course>
  <speed>0.0</speed>
  <fix>3d</fix>
</trkpt>
<trkpt lat="40.0713751" lon="-105.2297889">
  <ele>1583.0</ele>
  <time>2026-08-28T17:50:50Z</time>
  <course>246.98</course>
  <speed>0.022360679774997897</speed>
  <fix>3d</fix>
</trkpt>
<trkpt lat="40.0713749" lon="-105.229789">
  <ele>1583.0</ele>
  <time>2026-08-28T17:50:50Z</time>
  <course>0.0</course>
  <speed>0.0</speed>
  <fix>3d</fix>
</trkpt>
<trkpt lat="40.071375" lon="-105.2297889">
  <ele>1583.0</ele>
  <time>2026-08-28T17:50:50Z</time>
  <course>246.98</course>
  <speed>0.022360679774997897</speed>
  <fix>3d</fix>
</trkpt>
<trkpt lat="40.0713749" lon="-105.229789">
  <ele>1583.0</ele>
  <time>2026-08-28T17:50:50Z</time>
  <course>0.0</course>
  <speed>0.0</speed>
  <fix>3d</fix>
</trkpt>
<trkpt lat="40.0713751" lon="-105.2297889">
  <ele>1583.01</ele>
  <time>2026-08-28T17:50:50Z</time>
  <course>246.98</course>
  <speed>0.022360679774997897</speed>
  <fix>3d</fix>
</trkpt>
<trkpt lat="40.0713749" lon="-105.229789">
  <ele>1583.0</ele>
  <time>2026-08-28T17:50:50Z</time>
  <course>0.0</course>
  <speed>0.0</speed>
  <fix>3d</fix>
</trkpt>
<trkpt lat="40.071375" lon="-105.2297889">
  <ele>1583.01</ele>
  <time>2026-08-28T17:50:50Z</time>
  <course>246.98</course>
  <speed>0.022360679774997897</speed>
  <fix>3d</fix>
</trkpt>
<trkpt lat="40.0713749" lon="-105.229789">
  <ele>1583.0</ele>
  <time>2026-08-28T17:50:50Z</time>
  <course>0.0</course>
  <speed>0.0</speed>
  <fix>3d</fix>
</trkpt>
<trkpt lat="40.0713751" lon="-105.2297889">
  <ele>1583.01</ele>
  <time>2026-08-28T17:50:50Z</time>
  <course>246.98</course>
  <speed>0.022360679774997897</speed>
  <fix>3d</fix>
</trkpt>
<trkpt lat="40.0713749" lon="-105.229789">
  <ele>1583.0</ele>
  <time>2026-08-28T17:50:50Z</time>
  <course>0.0</course>
  <speed>0.0</speed>
  <fix>3d</fix>
</trkpt>
<trkpt lat="40.0713751" lon="-105.2297889">
  <ele>1583.01</ele>
  <time>2026-08-28T17:50:50Z</time>
  <course>246.98</course>
  <speed>0.022360679774997897</speed>
  <fix>3d</fix>
</trkpt>
<trkpt lat="40.0713749" lon="-105.229789">
  <ele>1583.0</ele>
  <time>2026-08-28T17:50:50Z</time>
  <course>0.0</course>
  <speed>0.0</speed>
  <fix>3d</fix>
</trkpt>
<trkpt lat="40.0713751" lon="-105.2297889">
  <ele>1583.01</ele>
  <time>2026-08-28T17:50:50Z</time>
  <course>246.98</course>
  <speed>0.022360679774997897</speed>
  <fix>3d</fix>
</trkpt>
<trkpt lat="40.0713749" lon="-105.229789">
  <ele>1583.0</ele>
  <time>2026-08-28T17:50:50Z</time>
  <course>0.0</course>
  <speed>0.0</speed>
  <fix>3d</fix>
</trkpt>
<trkpt lat="40.0713751" lon="-105.2297889">
  <ele>1583.01</ele>
  <time>2026-08-28T17:50:50Z</time>
  <course>246.98</course>
  <speed>0.022360679774997897</speed>
  <fix>3d</fix>
</trkpt>
<trkpt lat="40.0713749" lon="-105.229789">
  <ele>1583.0</ele>
  <time>2026-08-28T17:50:50Z</time>
  <course>0.0</course>
  <speed>0.0</speed>
  <fix>3d</fix>
</trkpt>
<trkpt lat="40.0713751" lon="-105.2297889">
  <ele>1583.0</ele>
  <time>2026-08-28T17:50:50Z</time>
  <course>246.98</course>
  <speed>0.022360679774997897</speed>
  <fix>3d</fix>
</trkpt>
<trkpt lat="40.0713749" lon="-105.229789">
  <ele>1583.0</ele>
  <time>2026-08-28T17:50:50Z</time>
  <course>0.0</course>
  <speed>0.0</speed>
  <fix>3d</fix>
</trkpt>
<trkpt lat="40.0713751" lon="-105.2297889">
  <ele>1583.0</ele>
  <time>2026-08-28T17:50:51Z</time>
  <course>246.98</course>
  <speed>0.022360679774997897</speed>
  <fix>3d</fix>
</trkpt>
<trkpt lat="40.0713749" lon="-105.229789">
  <ele>1583.0</ele>
  <time>2026-08-28T17:50:51Z</time>
  <course>0.0</course>
  <speed>0.0</speed>
  <fix>3d</fix>
</trkpt>
<trkpt lat="40.0713751" lon="-105.2297889">
  <ele>1582.99</ele>
  <time>2026-08-28T17:50:51Z</time>
  <course>246.98</course>
  <speed>0.022360679774997897</speed>
  <fix>3d</fix>
</trkpt>
<trkpt lat="40.0713749" lon="-105.229789">
  <ele>1583.0</ele>
  <time>2026-08-28T17:50:51Z</time>
  <course>0.0</course>
  <speed>0.0</speed>
  <fix>3d</fix>
</trkpt>
<trkpt lat="40.0713751" lon="-105.2297889">
  <ele>1582.98</ele>
  <time>2026-08-28T17:50:51Z</time>
  <course>246.98</course>
  <speed>0.022360679774997897</speed>
  <fix>3d</fix>
</trkpt>
<trkpt lat="40.0713749" lon="-105.229789">
  <ele>1583.0</ele>
  <time>2026-08-28T17:50:51Z</time>
  <course>0.0</course>
  <speed>0.0</speed>
  <fix>3d</fix>
</trkpt>
<trkpt lat="40.0713751" lon="-105.2297889">
  <ele>1582.98</ele>
  <time>2026-08-28T17:50:51Z</time>
  <course>246.98</course>
  <speed>0.022360679774997897</speed>
  <fix>3d</fix>
</trkpt>
<trkpt lat="40.0713749" lon="-105.229789">
  <ele>1583.0</ele>
  <time>2026-08-28T17:50:51Z</time>
  <course>0.0</course>
  <speed>0.0</speed>
  <fix>3d</fix>
</trkpt>
<trkpt lat="40.0713751" lon="-105.2297889">
  <ele>1582.97</ele>
  <time>2026-08-28T17:50:51Z</time>
  <course>246.98</course>
  <speed>0.022360679774997897</speed>
  <fix>3d</fix>
</trkpt>
<trkpt lat="40.0713749" lon="-105.229789">
  <ele>1583.0</ele>
  <time>2026-08-28T17:50:51Z</time>
  <course>0.0</course>
  <speed>0.0</speed>
  <fix>3d</fix>
</trkpt>
<trkpt lat="40.0713751" lon="-105.2297889">
  <ele>1582.97</ele>
  <time>2026-08-28T17:50:51Z</time>
  <course>246.98</course>
  <speed>0.022360679774997897</speed>
  <fix>3d</fix>
</trkpt>
<trkpt lat="40.0713749" lon="-105.229789">
  <ele>1583.0</ele>
  <time>2026-08-28T17:50:51Z</time>
  <course>0.0</course>
  <speed>0.0</speed>
  <fix>3d</fix>
</trkpt>
<trkpt lat="40.0713751" lon="-105.2297889">
  <ele>1582.97</ele>
  <time>2026-08-28T17:50:51Z</time>
  <course>246.98</course>
  <speed>0.022360679774997897</speed>
  <fix>3d</fix>
</trkpt>
<trkpt lat="40.0713749" lon="-105.229789">
  <ele>1583.0</ele>
  <time>2026-08-28T17:50:51Z</time>
  <course>0.0</course>
  <speed>0.0</speed>
  <fix>3d</fix>
</trkpt>
<trkpt lat="40.0713751" lon="-105.2297889">
  <ele>1582.98</ele>
  <time>2026-08-28T17:50:51Z</time>
  <course>246.98</course>
  <speed>0.022360679774997897</speed>
  <fix>3d</fix>
</trkpt>
<trkpt lat="40.0713749" lon="-105.229789">
  <ele>1583.0</ele>
  <time>2026-08-28T17:50:51Z</time>
  <course>0.0</course>
  <speed>0.0</speed>
  <fix>3d</fix>
</trkpt>
<trkpt lat="40.0713751" lon="-105.2297889">
  <ele>1582.99</ele>
  <time>2026-08-28T17:50:51Z</time>
  <course>246.98</course>
  <speed>0.022360679774997897</speed>
  <fix>3d</fix>
</trkpt>
<trkpt lat="40.0713749" lon="-105.229789">
  <ele>1583.0</ele>
  <time>2026-08-28T17:50:51Z</time>
  <course>0.0</course>
  <speed>0.0</speed>
  <fix>3d</fix>
</trkpt>
<trkpt lat="40.0713751" lon="-105.2297889">
  <ele>1582.99</ele>
  <time>2026-08-28T17:50:51Z</time>
  <course>246.98</course>
  <speed>0.022360679774997897</speed>
  <fix>3d</fix>
</trkpt>
<trkpt lat="40.0713749" lon="-105.229789">
  <ele>1583.0</ele>
  <time>2026-08-28T17:50:51Z</time>
  <course>0.0</course>
  <speed>0.0</speed>
  <fix>3d</fix>
</trkpt>
<trkpt lat="40.0713751" lon="-105.2297889">
  <ele>1583.0</ele>
  <time>2026-08-28T17:50:52Z</time>
  <course>246.98</course>
  <speed>0.022360679774997897</speed>
  <fix>3d</fix>
</trkpt>
<trkpt lat="40.0713749" lon="-105.229789">
  <ele>1583.0</ele>
  <time>2026-08-28T17:50:52Z</time>
  <course>0.0</course>
  <speed>0.0</speed>
  <fix>3d</fix>
</trkpt>
<trkpt lat="40.0713751" lon="-105.2297889">
  <ele>1583.01</ele>
  <time>2026-08-28T17:50:52Z</time>
  <course>246.98</course>
  <speed>0.022360679774997897</speed>
  <fix>3d</fix>
</trkpt>
<trkpt lat="40.0713749" lon="-105.229789">
  <ele>1583.0</ele>
  <time>2026-08-28T17:50:52Z</time>
  <course>0.0</course>
  <speed>0.0</speed>
  <fix>3d</fix>
</trkpt>
<trkpt lat="40.0713751" lon="-105.2297889">
  <ele>1583.02</ele>
  <time>2026-08-28T17:50:52Z</time>
  <course>246.98</course>
  <speed>0.022360679774997897</speed>
  <fix>3d</fix>
</trkpt>
<trkpt lat="40.0713749" lon="-105.229789">
  <ele>1583.0</ele>
  <time>2026-08-28T17:50:52Z</time>
  <course>0.0</course>
  <speed>0.0</speed>
  <fix>3d</fix>
</trkpt>
<trkpt lat="40.0713751" lon="-105.2297889">
  <ele>1583.03</ele>
  <time>2026-08-28T17:50:52Z</time>
  <course>246.98</course>
  <speed>0.022360679774997897</speed>
  <fix>3d</fix>
</trkpt>
<trkpt lat="40.0713749" lon="-105.229789">
  <ele>1583.0</ele>
  <time>2026-08-28T17:50:52Z</time>
  <course>0.0</course>
  <speed>0.0</speed>
  <fix>3d</fix>
</trkpt>
<trkpt lat="40.0713751" lon="-105.2297889">
  <ele>1583.04</ele>
  <time>2026-08-28T17:50:52Z</time>
  <course>246.98</course>
  <speed>0.022360679774997897</speed>
  <fix>3d</fix>
</trkpt>
<trkpt lat="40.0713749" lon="-105.229789">
  <ele>1583.0</ele>
  <time>2026-08-28T17:50:52Z</time>
  <course>0.0</course>
  <speed>0.0</speed>
  <fix>3d</fix>
</trkpt>
<trkpt lat="40.0713751" lon="-105.2297889">
  <ele>1583.04</ele>
  <time>2026-08-28T17:50:52Z</time>
  <course>246.98</course>
  <speed>0.022360679774997897</speed>
  <fix>3d</fix>
</trkpt>
<trkpt lat="40.0713749" lon="-105.229789">
  <ele>1583.0</ele>
  <time>2026-08-28T17:50:52Z</time>
  <course>0.0</course>
  <speed>0.0</speed>
  <fix>3d</fix>
</trkpt>
<trkpt lat="40.0713751" lon="-105.2297889">
  <ele>1583.04</ele>
  <time>2026-08-28T17:50:52Z</time>
  <course>246.98</course>
  <speed>0.022360679774997897</speed>
  <fix>3d</fix>
</trkpt>
<trkpt lat="40.0713749" lon="-105.229789">
  <ele>1583.0</ele>
  <time>2026-08-28T17:50:52Z</time>
  <course>0.0</course>
  <speed>0.0</speed>
  <fix>3d</fix>
</trkpt>
<trkpt lat="40.0713751" lon="-105.2297889">
  <ele>1583.05</ele>
  <time>2026-08-28T17:50:52Z</time>
  <course>246.98</course>
  <speed>0.022360679774997897</speed>
  <fix>3d</fix>
</trkpt>
<trkpt lat="40.0713749" lon="-105.229789">
  <ele>1583.0</ele>
  <time>2026-08-28T17:50:52Z</time>
  <course>0.0</course>
  <speed>0.0</speed>
  <fix>3d</fix>
</trkpt>
<trkpt lat="40.0713751" lon="-105.2297889">
  <ele>1583.05</ele>
  <time>2026-08-28T17:50:52Z</time>
  <course>246.98</course>
  <speed>0.022360679774997897</speed>
  <fix>3d</fix>
</trkpt>
<trkpt lat="40.0713749" lon="-105.229789">
  <ele>1583.0</ele>
  <time>2026-08-28T17:50:52Z</time>
  <course>0.0</course>
  <speed>0.0</speed>
  <fix>3d</fix>
</trkpt>
<trkpt lat="40.0713751" lon="-105.2297889">
  <ele>1583.06</ele>
  <time>2026-08-28T17:50:52Z</time>
  <course>246.98</course>
  <speed>0.022360679774997897</speed>
  <fix>3d</fix>
</trkpt>
<trkpt lat="40.0713749" lon="-105.229789">
  <ele>1583.0</ele>
  <time>2026-08-28T17:50:52Z</time>
  <course>0.0</course>
  <speed>0.0</speed>
  <fix>3d</fix>
</trkpt>
<trkpt lat="40.0713751" lon="-105.2297889">
  <ele>1583.06</ele>
  <time>2026-08-28T17:50:53Z</time>
  <course>246.98</course>
  <speed>0.022360679774997897</speed>
  <fix>3d</fix>
</trkpt>
<trkpt lat="40.0713749" lon="-105.229789">
  <ele>1583.0</ele>
  <time>2026-08-28T17:50:53Z</time>
  <course>0.0</course>
  <speed>0.0</speed>
  <fix>3d</fix>
</trkpt>
<trkpt lat="40.0713751" lon="-105.2297889">
  <ele>1583.06</ele>
  <time>2026-08-28T17:50:53Z</time>
  <course>246.98</course>
  <speed>0.022360679774997897</speed>
  <fix>3d</fix>
</trkpt>
<trkpt lat="40.0713749" lon="-105.229789">
  <ele>1583.0</ele>
  <time>2026-08-28T17:50:53Z</time>
  <course>0.0</course>
  <speed>0.0</speed>
  <fix>3d</fix>
</trkpt>
<trkpt lat="40.0713751" lon="-105.2297889">
  <ele>1583.06</ele>
  <time>2026-08-28T17:50:53Z</time>
  <course>246.98</course>
  <speed>0.022360679774997897</speed>
  <fix>3d</fix>
</trkpt>
<trkpt lat="40.0713749" lon="-105.229789">
  <ele>1583.0</ele>
  <time>2026-08-28T17:50:53Z</time>
  <course>0.0</course>
  <speed>0.0</speed>
  <fix>3d</fix>
</trkpt>
<trkpt lat="40.0713751" lon="-105.2297889">
  <ele>1583.07</ele>
  <time>2026-08-28T17:50:53Z</time>
  <course>246.98</course>
  <speed>0.022360679774997897</speed>
  <fix>3d</fix>
</trkpt>
<trkpt lat="40.0713749" lon="-105.229789">
  <ele>1583.0</ele>
  <time>2026-08-28T17:50:53Z</time>
  <course>0.0</course>
  <speed>0.0</speed>
  <fix>3d</fix>
</trkpt>
<trkpt lat="40.0713751" lon="-105.2297889">
  <ele>1583.07</ele>
  <time>2026-08-28T17:50:53Z</time>
  <course>246.98</course>
  <speed>0.022360679774997897</speed>
  <fix>3d</fix>
</trkpt>
<trkpt lat="40.0713749" lon="-105.229789">
  <ele>1583.0</ele>
  <time>2026-08-28T17:50:53Z</time>
  <course>0.0</course>
  <speed>0.0</speed>
  <fix>3d</fix>
</trkpt>
<trkpt lat="40.0713751" lon="-105.2297889">
  <ele>1583.07</ele>
  <time>2026-08-28T17:50:53Z</time>
  <course>246.98</course>
  <speed>0.022360679774997897</speed>
  <fix>3d</fix>
</trkpt>
<trkpt lat="40.0713749" lon="-105.229789">
  <ele>1583.0</ele>
  <time>2026-08-28T17:50:53Z</time>
  <course>0.0</course>
  <speed>0.0</speed>
  <fix>3d</fix>
</trkpt>
<trkpt lat="40.0713751" lon="-105.2297889">
  <ele>1583.07</ele>
  <time>2026-08-28T17:50:53Z</time>
  <course>246.98</course>
  <speed>0.022360679774997897</speed>
  <fix>3d</fix>
</trkpt>
<trkpt lat="40.0713749" lon="-105.229789">
  <ele>1583.0</ele>
  <time>2026-08-28T17:50:53Z</time>
  <course>0.0</course>
  <speed>0.0</speed>
  <fix>3d</fix>
</trkpt>
<trkpt lat="40.0713751" lon="-105.2297889">
  <ele>1583.06</ele>
  <time>2026-08-28T17:50:53Z</time>
  <course>246.98</course>
  <speed>0.022360679774997897</speed>
  <fix>3d</fix>
</trkpt>
<trkpt lat="40.0713749" lon="-105.229789">
  <ele>1583.0</ele>
  <time>2026-08-28T17:50:53Z</time>
  <course>0.0</course>
  <speed>0.0</speed>
  <fix>3d</fix>
</trkpt>
<trkpt lat="40.0713751" lon="-105.2297889">
  <ele>1583.05</ele>
  <time>2026-08-28T17:50:53Z</time>
  <course>246.98</course>
  <speed>0.022360679774997897</speed>
  <fix>3d</fix>
</trkpt>
<trkpt lat="40.0713749" lon="-105.229789">
  <ele>1583.0</ele>
  <time>2026-08-28T17:50:53Z</time>
  <course>0.0</course>
  <speed>0.0</speed>
  <fix>3d</fix>
</trkpt>
<trkpt lat="40.0713751" lon="-105.2297889">
  <ele>1583.05</ele>
  <time>2026-08-28T17:50:53Z</time>
  <course>246.98</course>
  <speed>0.022360679774997897</speed>
  <fix>3d</fix>
</trkpt>
<trkpt lat="40.0713749" lon="-105.229789">
  <ele>1583.0</ele>
  <time>2026-08-28T17:50:53Z</time>
  <course>0.0</course>
  <speed>0.0</speed>
  <fix>3d</fix>
</trkpt>
<trkpt lat="40.0713751" lon="-105.2297889">
  <ele>1583.04</ele>
  <time>2026-08-28T17:50:54Z</time>
  <course>246.98</course>
  <speed>0.022360679774997897</speed>
  <fix>3d</fix>
</trkpt>
<trkpt lat="40.0713749" lon="-105.229789">
  <ele>1583.0</ele>
  <time>2026-08-28T17:50:54Z</time>
  <course>0.0</course>
  <speed>0.0</speed>
  <fix>3d</fix>
</trkpt>
<trkpt lat="40.0713751" lon="-105.2297889">
  <ele>1583.03</ele>
  <time>2026-08-28T17:50:54Z</time>
  <course>246.98</course>
  <speed>0.022360679774997897</speed>
  <fix>3d</fix>
</trkpt>
<trkpt lat="40.0713749" lon="-105.229789">
  <ele>1583.0</ele>
  <time>2026-08-28T17:50:54Z</time>
  <course>0.0</course>
  <speed>0.0</speed>
  <fix>3d</fix>
</trkpt>
<trkpt lat="40.0713751" lon="-105.2297889">
  <ele>1583.03</ele>
  <time>2026-08-28T17:50:54Z</time>
  <course>246.98</course>
  <speed>0.022360679774997897</speed>
  <fix>3d</fix>
</trkpt>
<trkpt lat="40.0713749" lon="-105.229789">
  <ele>1583.0</ele>
  <time>2026-08-28T17:50:54Z</time>
  <course>0.0</course>
  <speed>0.0</speed>
  <fix>3d</fix>
</trkpt>
<trkpt lat="40.0713751" lon="-105.2297889">
  <ele>1583.02</ele>
  <time>2026-08-28T17:50:54Z</time>
  <course>246.98</course>
  <speed>0.022360679774997897</speed>
  <fix>3d</fix>
</trkpt>
<trkpt lat="40.0713749" lon="-105.229789">
  <ele>1583.0</ele>
  <time>2026-08-28T17:50:54Z</time>
  <course>0.0</course>
  <speed>0.0</speed>
  <fix>3d</fix>
</trkpt>
<trkpt lat="40.0713751" lon="-105.2297889">
  <ele>1583.01</ele>
  <time>2026-08-28T17:50:54Z</time>
  <course>246.98</course>
  <speed>0.022360679774997897</speed>
  <fix>3d</fix>
</trkpt>
<trkpt lat="40.0713749" lon="-105.229789">
  <ele>1583.0</ele>
  <time>2026-08-28T17:50:54Z</time>
  <course>0.0</course>
  <speed>0.0</speed>
  <fix>3d</fix>
</trkpt>
<trkpt lat="40.0713751" lon="-105.2297889">
  <ele>1583.01</ele>
  <time>2026-08-28T17:50:54Z</time>
  <course>246.98</course>
  <speed>0.022360679774997897</speed>
  <fix>3d</fix>
</trkpt>
<trkpt lat="40.0713749" lon="-105.229789">
  <ele>1583.0</ele>
  <time>2026-08-28T17:50:54Z</time>
  <course>0.0</course>
  <speed>0.0</speed>
  <fix>3d</fix>
</trkpt>
<trkpt lat="40.0713751" lon="-105.2297889">
  <ele>1583.01</ele>
  <time>2026-08-28T17:50:54Z</time>
  <course>246.98</course>
  <speed>0.022360679774997897</speed>
  <fix>3d</fix>
</trkpt>
<trkpt lat="40.0713749" lon="-105.229789">
  <ele>1583.0</ele>
  <time>2026-08-28T17:50:54Z</time>
  <course>0.0</course>
  <speed>0.0</speed>
  <fix>3d</fix>
</trkpt>
<trkpt lat="40.0713751" lon="-105.2297889">
  <ele>1583.0</ele>
  <time>2026-08-28T17:50:54Z</time>
  <course>246.98</course>
  <speed>0.022360679774997897</speed>
  <fix>3d</fix>
</trkpt>
<trkpt lat="40.0713749" lon="-105.229789">
  <ele>1583.0</ele>
  <time>2026-08-28T17:50:54Z</time>
  <course>0.0</course>
  <speed>0.0</speed>
  <fix>3d</fix>
</trkpt>
<trkpt lat="40.0713751" lon="-105.2297889">
  <ele>1583.0</ele>
  <time>2026-08-28T17:50:54Z</time>
  <course>246.98</course>
  <speed>0.022360679774997897</speed>
  <fix>3d</fix>
</trkpt>
<trkpt lat="40.0713749" lon="-105.229789">
  <ele>1583.0</ele>
  <time>2026-08-28T17:50:54Z</time>
  <course>0.0</course>
  <speed>0.0</speed>
  <fix>3d</fix>
</trkpt>
<trkpt lat="40.0713751" lon="-105.2297889">
  <ele>1583.0</ele>
  <time>2026-08-28T17:50:54Z</time>
  <course>246.98</course>
  <speed>0.022360679774997897</speed>
  <fix>3d</fix>
</trkpt>
<trkpt lat="40.0713749" lon="-105.229789">
  <ele>1583.0</ele>
  <time>2026-08-28T17:50:54Z</time>
  <course>0.0</course>
  <speed>0.0</speed>
  <fix>3d</fix>
</trkpt>
<trkpt lat="40.0713751" lon="-105.2297889">
  <ele>1583.0</ele>
  <time>2026-08-28T17:50:55Z</time>
  <course>246.98</course>
  <speed>0.022360679774997897</speed>
  <fix>3d</fix>
</trkpt>
<trkpt lat="40.0713749" lon="-105.229789">
  <ele>1583.0</ele>
  <time>2026-08-28T17:50:55Z</time>
  <course>0.0</course>
  <speed>0.0</speed>
  <fix>3d</fix>
</trkpt>
<trkpt lat="40.0713751" lon="-105.2297889">
  <ele>1583.0</ele>
  <time>2026-08-28T17:50:55Z</time>
  <course>246.98</course>
  <speed>0.022360679774997897</speed>
  <fix>3d</fix>
</trkpt>
<trkpt lat="40.0713749" lon="-105.229789">
  <ele>1583.0</ele>
  <time>2026-08-28T17:50:55Z</time>
  <course>0.0</course>
  <speed>0.0</speed>
  <fix>3d</fix>
</trkpt>
<trkpt lat="40.0713751" lon="-105.2297889">
  <ele>1582.99</ele>
  <time>2026-08-28T17:50:55Z</time>
  <course>246.98</course>
  <speed>0.022360679774997897</speed>
  <fix>3d</fix>
</trkpt>
<trkpt lat="40.0713749" lon="-105.229789">
  <ele>1583.0</ele>
  <time>2026-08-28T17:50:55Z</time>
  <course>0.0</course>
  <speed>0.0</speed>
  <fix>3d</fix>
</trkpt>
<trkpt lat="40.0713751" lon="-105.2297889">
  <ele>1582.99</ele>
  <time>2026-08-28T17:50:55Z</time>
  <course>246.98</course>
  <speed>0.022360679774997897</speed>
  <fix>3d</fix>
</trkpt>
<trkpt lat="40.0713749" lon="-105.229789">
  <ele>1583.0</ele>
  <time>2026-08-28T17:50:55Z</time>
  <course>0.0</course>
  <speed>0.0</speed>
  <fix>3d</fix>
</trkpt>
<trkpt lat="40.0713751" lon="-105.2297889">
  <ele>1582.99</ele>
  <time>2026-08-28T17:50:55Z</time>
  <course>246.98</course>
  <speed>0.022360679774997897</speed>
  <fix>3d</fix>
</trkpt>
<trkpt lat="40.0713749" lon="-105.229789">
  <ele>1583.0</ele>
  <time>2026-08-28T17:50:55Z</time>
  <course>0.0</course>
  <speed>0.0</speed>
  <fix>3d</fix>
</trkpt>
<trkpt lat="40.0713751" lon="-105.2297889">
  <ele>1582.99</ele>
  <time>2026-08-28T17:50:55Z</time>
  <course>246.98</course>
  <speed>0.022360679774997897</speed>
  <fix>3d</fix>
</trkpt>
<trkpt lat="40.0713749" lon="-105.229789">
  <ele>1583.0</ele>
  <time>2026-08-28T17:50:55Z</time>
  <course>0.0</course>
  <speed>0.0</speed>
  <fix>3d</fix>
</trkpt>
<trkpt lat="40.0713751" lon="-105.2297889">
  <ele>1582.99</ele>
  <time>2026-08-28T17:50:55Z</time>
  <course>246.98</course>
  <speed>0.022360679774997897</speed>
  <fix>3d</fix>
</trkpt>
<trkpt lat="40.0713749" lon="-105.229789">
  <ele>1583.0</ele>
  <time>2026-08-28T17:50:55Z</time>
  <course>0.0</course>
  <speed>0.0</speed>
  <fix>3d</fix>
</trkpt>
<trkpt lat="40.0713751" lon="-105.2297889">
  <ele>1582.99</ele>
  <time>2026-08-28T17:50:55Z</time>
  <course>246.98</course>
  <speed>0.022360679774997897</speed>
  <fix>3d</fix>
</trkpt>
<trkpt lat="40.0713749" lon="-105.229789">
  <ele>1583.0</ele>
  <time>2026-08-28T17:50:55Z</time>
  <course>0.0</course>
  <speed>0.0</speed>
  <fix>3d</fix>
</trkpt>
<trkpt lat="40.0713751" lon="-105.2297889">
  <ele>1582.99</ele>
  <time>2026-08-28T17:50:55Z</time>
  <course>246.98</course>
  <speed>0.022360679774997897</speed>
  <fix>3d</fix>
</trkpt>
<trkpt lat="40.0713749" lon="-105.229789">
  <ele>1583.0</ele>
  <time>2026-08-28T17:50:55Z</time>
  <course>0.0</course>
  <speed>0.0</speed>
  <fix>3d</fix>
</trkpt>
<trkpt lat="40.0713751" lon="-105.2297889">
  <ele>1583.0</ele>
  <time>2026-08-28T17:50:55Z</time>
  <course>246.98</course>
  <speed>0.022360679774997897</speed>
  <fix>3d</fix>
</trkpt>
<trkpt lat="40.0713749" lon="-105.229789">
  <ele>1583.0</ele>
  <time>2026-08-28T17:50:55Z</time>
  <course>0.0</course>
  <speed>0.0</speed>
  <fix>3d</fix>
</trkpt>
<trkpt lat="40.0713751" lon="-105.2297889">
  <ele>1583.0</ele>
  <time>2026-08-28T17:50:56Z</time>
  <course>246.98</course>
  <speed>0.022360679774997897</speed>
  <fix>3d</fix>
</trkpt>
<trkpt lat="40.0713749" lon="-105.229789">
  <ele>1583.0</ele>
  <time>2026-08-28T17:50:56Z</time>
  <course>0.0</course>
  <speed>0.0</speed>
  <fix>3d</fix>
</trkpt>
<trkpt lat="40.0713751" lon="-105.2297889">
  <ele>1583.01</ele>
  <time>2026-08-28T17:50:56Z</time>
  <course>246.98</course>
  <speed>0.022360679774997897</speed>
  <fix>3d</fix>
</trkpt>
<trkpt lat="40.0713749" lon="-105.229789">
  <ele>1583.0</ele>
  <time>2026-08-28T17:50:56Z</time>
  <course>0.0</course>
  <speed>0.0</speed>
  <fix>3d</fix>
</trkpt>
<trkpt lat="40.0713751" lon="-105.2297889">
  <ele>1583.01</ele>
  <time>2026-08-28T17:50:56Z</time>
  <course>246.98</course>
  <speed>0.022360679774997897</speed>
  <fix>3d</fix>
</trkpt>
<trkpt lat="40.0713749" lon="-105.229789">
  <ele>1583.0</ele>
  <time>2026-08-28T17:50:56Z</time>
  <course>0.0</course>
  <speed>0.0</speed>
  <fix>3d</fix>
</trkpt>
<trkpt lat="40.0713751" lon="-105.2297889">
  <ele>1583.02</ele>
  <time>2026-08-28T17:50:56Z</time>
  <course>246.98</course>
  <speed>0.022360679774997897</speed>
  <fix>3d</fix>
</trkpt>
<trkpt lat="40.0713749" lon="-105.229789">
  <ele>1583.0</ele>
  <time>2026-08-28T17:50:56Z</time>
  <course>0.0</course>
  <speed>0.0</speed>
  <fix>3d</fix>
</trkpt>
<trkpt lat="40.0713751" lon="-105.2297889">
  <ele>1583.02</ele>
  <time>2026-08-28T17:50:56Z</time>
  <course>246.98</course>
  <speed>0.022360679774997897</speed>
  <fix>3d</fix>
</trkpt>
<trkpt lat="40.0713749" lon="-105.229789">
  <ele>1583.0</ele>
  <time>2026-08-28T17:50:56Z</time>
  <course>0.0</course>
  <speed>0.0</speed>
  <fix>3d</fix>
</trkpt>
<trkpt lat="40.0713751" lon="-105.2297889">
  <ele>1583.03</ele>
  <time>2026-08-28T17:50:56Z</time>
  <course>246.98</course>
  <speed>0.022360679774997897</speed>
  <fix>3d</fix>
</trkpt>
<trkpt lat="40.0713749" lon="-105.229789">
  <ele>1583.0</ele>
  <time>2026-08-28T17:50:56Z</time>
  <course>0.0</course>
  <speed>0.0</speed>
  <fix>3d</fix>
</trkpt>
<trkpt lat="40.0713751" lon="-105.2297889">
  <ele>1583.04</ele>
  <time>2026-08-28T17:50:56Z</time>
  <course>246.98</course>
  <speed>0.022360679774997897</speed>
  <fix>3d</fix>
</trkpt>
<trkpt lat="40.0713749" lon="-105.229789">
  <ele>1583.0</ele>
  <time>2026-08-28T17:50:56Z</time>
  <course>0.0</course>
  <speed>0.0</speed>
  <fix>3d</fix>
</trkpt>
<trkpt lat="40.0713751" lon="-105.2297889">
  <ele>1583.04</ele>
  <time>2026-08-28T17:50:56Z</time>
  <course>246.98</course>
  <speed>0.022360679774997897</speed>
  <fix>3d</fix>
</trkpt>
<trkpt lat="40.0713749" lon="-105.229789">
  <ele>1583.0</ele>
  <time>2026-08-28T17:50:56Z</time>
  <course>0.0</course>
  <speed>0.0</speed>
  <fix>3d</fix>
</trkpt>
<trkpt lat="40.0713751" lon="-105.2297889">
  <ele>1583.04</ele>
  <time>2026-08-28T17:50:56Z</time>
  <course>246.98</course>
  <speed>0.022360679774997897</speed>
  <fix>3d</fix>
</trkpt>
<trkpt lat="40.0713749" lon="-105.229789">
  <ele>1583.0</ele>
  <time>2026-08-28T17:50:56Z</time>
  <course>0.0</course>
  <speed>0.0</speed>
  <fix>3d</fix>
</trkpt>
<trkpt lat="40.0713751" lon="-105.2297889">
  <ele>1583.05</ele>
  <time>2026-08-28T17:50:56Z</time>
  <course>246.98</course>
  <speed>0.022360679774997897</speed>
  <fix>3d</fix>
</trkpt>
<trkpt lat="40.0713749" lon="-105.229789">
  <ele>1583.0</ele>
  <time>2026-08-28T17:50:56Z</time>
  <course>0.0</course>
  <speed>0.0</speed>
  <fix>3d</fix>
</trkpt>
<trkpt lat="40.0713751" lon="-105.2297889">
  <ele>1583.05</ele>
  <time>2026-08-28T17:50:57Z</time>
  <course>246.98</course>
  <speed>0.022360679774997897</speed>
  <fix>3d</fix>
</trkpt>
<trkpt lat="40.0713749" lon="-105.229789">
  <ele>1583.0</ele>
  <time>2026-08-28T17:50:57Z</time>
  <course>0.0</course>
  <speed>0.0</speed>
  <fix>3d</fix>
</trkpt>
<trkpt lat="40.0713751" lon="-105.2297889">
  <ele>1583.05</ele>
  <time>2026-08-28T17:50:57Z</time>
  <course>246.98</course>
  <speed>0.022360679774997897</speed>
  <fix>3d</fix>
</trkpt>
<trkpt lat="40.0713749" lon="-105.229789">
  <ele>1583.0</ele>
  <time>2026-08-28T17:50:57Z</time>
  <course>0.0</course>
  <speed>0.0</speed>
  <fix>3d</fix>
</trkpt>
<trkpt lat="40.0713751" lon="-105.2297889">
  <ele>1583.05</ele>
  <time>2026-08-28T17:50:57Z</time>
  <course>246.98</course>
  <speed>0.022360679774997897</speed>
  <fix>3d</fix>
</trkpt>
<trkpt lat="40.0713749" lon="-105.229789">
  <ele>1583.0</ele>
  <time>2026-08-28T17:50:57Z</time>
  <course>0.0</course>
  <speed>0.0</speed>
  <fix>3d</fix>
</trkpt>
<trkpt lat="40.0713751" lon="-105.2297889">
  <ele>1583.06</ele>
  <time>2026-08-28T17:50:57Z</time>
  <course>246.98</course>
  <speed>0.022360679774997897</speed>
  <fix>3d</fix>
</trkpt>
<trkpt lat="40.0713749" lon="-105.229789">
  <ele>1583.0</ele>
  <time>2026-08-28T17:50:57Z</time>
  <course>0.0</course>
  <speed>0.0</speed>
  <fix>3d</fix>
</trkpt>
<trkpt lat="40.0713751" lon="-105.2297889">
  <ele>1583.06</ele>
  <time>2026-08-28T17:50:57Z</time>
  <course>246.98</course>
  <speed>0.022360679774997897</speed>
  <fix>3d</fix>
</trkpt>
<trkpt lat="40.0713749" lon="-105.229789">
  <ele>1583.0</ele>
  <time>2026-08-28T17:50:57Z</time>
  <course>0.0</course>
  <speed>0.0</speed>
  <fix>3d</fix>
</trkpt>
<trkpt lat="40.0713751" lon="-105.2297889">
  <ele>1583.06</ele>
  <time>2026-08-28T17:50:57Z</time>
  <course>246.98</course>
  <speed>0.022360679774997897</speed>
  <fix>3d</fix>
</trkpt>
<trkpt lat="40.0713749" lon="-105.229789">
  <ele>1583.0</ele>
  <time>2026-08-28T17:50:57Z</time>
  <course>0.0</course>
  <speed>0.0</speed>
  <fix>3d</fix>
</trkpt>
<trkpt lat="40.071375" lon="-105.2297889">
  <ele>1583.05</ele>
  <time>2026-08-28T17:50:57Z</time>
  <course>246.98</course>
  <speed>0.022360679774997897</speed>
  <fix>3d</fix>
</trkpt>
<trkpt lat="40.0713749" lon="-105.229789">
  <ele>1583.0</ele>
  <time>2026-08-28T17:50:57Z</time>
  <course>0.0</course>
  <speed>0.0</speed>
  <fix>3d</fix>
</trkpt>
<trkpt lat="40.0713751" lon="-105.2297889">
  <ele>1583.05</ele>
  <time>2026-08-28T17:50:57Z</time>
  <course>246.98</course>
  <speed>0.022360679774997897</speed>
  <fix>3d</fix>
</trkpt>
<trkpt lat="40.0713749" lon="-105.229789">
  <ele>1583.0</ele>
  <time>2026-08-28T17:50:57Z</time>
  <course>0.0</course>
  <speed>0.0</speed>
  <fix>3d</fix>
</trkpt>
<trkpt lat="40.071375" lon="-105.2297889">
  <ele>1583.04</ele>
  <time>2026-08-28T17:50:57Z</time>
  <course>246.98</course>
  <speed>0.022360679774997897</speed>
  <fix>3d</fix>
</trkpt>
<trkpt lat="40.0713749" lon="-105.229789">
  <ele>1583.0</ele>
  <time>2026-08-28T17:50:57Z</time>
  <course>0.0</course>
  <speed>0.0</speed>
  <fix>3d</fix>
</trkpt>
<trkpt lat="40.0713751" lon="-105.2297889">
  <ele>1583.04</ele>
  <time>2026-08-28T17:50:57Z</time>
  <course>246.98</course>
  <speed>0.022360679774997897</speed>
  <fix>3d</fix>
</trkpt>
<trkpt lat="40.0713749" lon="-105.229789">
  <ele>1583.0</ele>
  <time>2026-08-28T17:50:57Z</time>
  <course>0.0</course>
  <speed>0.0</speed>
  <fix>3d</fix>
</trkpt>
<trkpt lat="40.071375" lon="-105.2297889">
  <ele>1583.03</ele>
  <time>2026-08-28T17:50:58Z</time>
  <course>246.98</course>
  <speed>0.022360679774997897</speed>
  <fix>3d</fix>
</trkpt>
<trkpt lat="40.0713749" lon="-105.229789">
  <ele>1583.0</ele>
  <time>2026-08-28T17:50:58Z</time>
  <course>0.0</course>
  <speed>0.0</speed>
  <fix>3d</fix>
</trkpt>
<trkpt lat="40.0713751" lon="-105.2297889">
  <ele>1583.02</ele>
  <time>2026-08-28T17:50:58Z</time>
  <course>246.98</course>
  <speed>0.022360679774997897</speed>
  <fix>3d</fix>
</trkpt>
<trkpt lat="40.0713749" lon="-105.229789">
  <ele>1583.0</ele>
  <time>2026-08-28T17:50:58Z</time>
  <course>0.0</course>
  <speed>0.0</speed>
  <fix>3d</fix>
</trkpt>
<trkpt lat="40.071375" lon="-105.2297889">
  <ele>1583.01</ele>
  <time>2026-08-28T17:50:58Z</time>
  <course>246.98</course>
  <speed>0.022360679774997897</speed>
  <fix>3d</fix>
</trkpt>
<trkpt lat="40.0713749" lon="-105.229789">
  <ele>1583.0</ele>
  <time>2026-08-28T17:50:58Z</time>
  <course>0.0</course>
  <speed>0.0</speed>
  <fix>3d</fix>
</trkpt>
<trkpt lat="40.0713751" lon="-105.2297889">
  <ele>1583.01</ele>
  <time>2026-08-28T17:50:58Z</time>
  <course>246.98</course>
  <speed>0.022360679774997897</speed>
  <fix>3d</fix>
</trkpt>
<trkpt lat="40.0713749" lon="-105.229789">
  <ele>1583.0</ele>
  <time>2026-08-28T17:50:58Z</time>
  <course>0.0</course>
  <speed>0.0</speed>
  <fix>3d</fix>
</trkpt>
<trkpt lat="40.071375" lon="-105.2297889">
  <ele>1583.01</ele>
  <time>2026-08-28T17:50:58Z</time>
  <course>246.98</course>
  <speed>0.022360679774997897</speed>
  <fix>3d</fix>
</trkpt>
<trkpt lat="40.0713749" lon="-105.229789">
  <ele>1583.0</ele>
  <time>2026-08-28T17:50:58Z</time>
  <course>0.0</course>
  <speed>0.0</speed>
  <fix>3d</fix>
</trkpt>
<trkpt lat="40.0713751" lon="-105.2297889">
  <ele>1583.0</ele>
  <time>2026-08-28T17:50:58Z</time>
  <course>246.98</course>
  <speed>0.022360679774997897</speed>
  <fix>3d</fix>
</trkpt>
<trkpt lat="40.0713749" lon="-105.229789">
  <ele>1583.0</ele>
  <time>2026-08-28T17:50:58Z</time>
  <course>0.0</course>
  <speed>0.0</speed>
  <fix>3d</fix>
</trkpt>
<trkpt lat="40.071375" lon="-105.2297889">
  <ele>1583.0</ele>
  <time>2026-08-28T17:50:58Z</time>
  <course>246.98</course>
  <speed>0.022360679774997897</speed>
  <fix>3d</fix>
</trkpt>
<trkpt lat="40.0713749" lon="-105.229789">
  <ele>1583.0</ele>
  <time>2026-08-28T17:50:58Z</time>
  <course>0.0</course>
  <speed>0.0</speed>
  <fix>3d</fix>
</trkpt>
<trkpt lat="40.0713751" lon="-105.2297889">
  <ele>1582.99</ele>
  <time>2026-08-28T17:50:58Z</time>
  <course>246.98</course>
  <speed>0.022360679774997897</speed>
  <fix>3d</fix>
</trkpt>
<trkpt lat="40.0713749" lon="-105.229789">
  <ele>1583.0</ele>
  <time>2026-08-28T17:50:58Z</time>
  <course>0.0</course>
  <speed>0.0</speed>
  <fix>3d</fix>
</trkpt>
<trkpt lat="40.0713751" lon="-105.2297889">
  <ele>1582.98</ele>
  <time>2026-08-28T17:50:58Z</time>
  <course>246.98</course>
  <speed>0.022360679774997897</speed>
  <fix>3d</fix>
</trkpt>
<trkpt lat="40.0713749" lon="-105.229789">
  <ele>1583.0</ele>
  <time>2026-08-28T17:50:58Z</time>
  <course>0.0</course>
  <speed>0.0</speed>
  <fix>3d</fix>
</trkpt>
<trkpt lat="40.0713751" lon="-105.2297889">
  <ele>1582.97</ele>
  <time>2026-08-28T17:50:58Z</time>
  <course>246.98</course>
  <speed>0.022360679774997897</speed>
  <fix>3d</fix>
</trkpt>
<trkpt lat="40.0713749" lon="-105.229789">
  <ele>1583.0</ele>
  <time>2026-08-28T17:50:58Z</time>
  <course>0.0</course>
  <speed>0.0</speed>
  <fix>3d</fix>
</trkpt>
<trkpt lat="40.0713751" lon="-105.2297889">
  <ele>1582.96</ele>
  <time>2026-08-28T17:50:59Z</time>
  <course>246.98</course>
  <speed>0.022360679774997897</speed>
  <fix>3d</fix>
</trkpt>
<trkpt lat="40.0713749" lon="-105.229789">
  <ele>1583.0</ele>
  <time>2026-08-28T17:50:59Z</time>
  <course>0.0</course>
  <speed>0.0</speed>
  <fix>3d</fix>
</trkpt>
<trkpt lat="40.0713751" lon="-105.2297889">
  <ele>1582.96</ele>
  <time>2026-08-28T17:50:59Z</time>
  <course>246.98</course>
  <speed>0.022360679774997897</speed>
  <fix>3d</fix>
</trkpt>
<trkpt lat="40.0713749" lon="-105.229789">
  <ele>1583.0</ele>
  <time>2026-08-28T17:50:59Z</time>
  <course>0.0</course>
  <speed>0.0</speed>
  <fix>3d</fix>
</trkpt>
<trkpt lat="40.0713751" lon="-105.2297889">
  <ele>1582.95</ele>
  <time>2026-08-28T17:50:59Z</time>
  <course>246.98</course>
  <speed>0.022360679774997897</speed>
  <fix>3d</fix>
</trkpt>
<trkpt lat="40.0713749" lon="-105.229789">
  <ele>1583.0</ele>
  <time>2026-08-28T17:50:59Z</time>
  <course>0.0</course>
  <speed>0.0</speed>
  <fix>3d</fix>
</trkpt>
<trkpt lat="40.0713751" lon="-105.2297889">
  <ele>1582.95</ele>
  <time>2026-08-28T17:50:59Z</time>
  <course>246.98</course>
  <speed>0.022360679774997897</speed>
  <fix>3d</fix>
</trkpt>
<trkpt lat="40.0713749" lon="-105.229789">
  <ele>1583.0</ele>
  <time>2026-08-28T17:50:59Z</time>
  <course>0.0</course>
  <speed>0.0</speed>
  <fix>3d</fix>
</trkpt>
<trkpt lat="40.0713751" lon="-105.2297889">
  <ele>1582.94</ele>
  <time>2026-08-28T17:50:59Z</time>
  <course>246.98</course>
  <speed>0.022360679774997897</speed>
  <fix>3d</fix>
</trkpt>
<trkpt lat="40.0713749" lon="-105.229789">
  <ele>1583.0</ele>
  <time>2026-08-28T17:50:59Z</time>
  <course>0.0</course>
  <speed>0.0</speed>
  <fix>3d</fix>
</trkpt>
<trkpt lat="40.0713751" lon="-105.2297889">
  <ele>1582.94</ele>
  <time>2026-08-28T17:50:59Z</time>
  <course>246.98</course>
  <speed>0.022360679774997897</speed>
  <fix>3d</fix>
</trkpt>
<trkpt lat="40.0713749" lon="-105.229789">
  <ele>1583.0</ele>
  <time>2026-08-28T17:50:59Z</time>
  <course>0.0</course>
  <speed>0.0</speed>
  <fix>3d</fix>
</trkpt>
<trkpt lat="40.071375" lon="-105.2297889">
  <ele>1582.94</ele>
  <time>2026-08-28T17:50:59Z</time>
  <course>246.98</course>
  <speed>0.022360679774997897</speed>
  <fix>3d</fix>
</trkpt>
<trkpt lat="40.0713749" lon="-105.229789">
  <ele>1583.0</ele>
  <time>2026-08-28T17:50:59Z</time>
  <course>0.0</course>
  <speed>0.0</speed>
  <fix>3d</fix>
</trkpt>
<trkpt lat="40.0713751" lon="-105.2297889">
  <ele>1582.94</ele>
  <time>2026-08-28T17:50:59Z</time>
  <course>246.98</course>
  <speed>0.022360679774997897</speed>
  <fix>3d</fix>
</trkpt>
<trkpt lat="40.0713749" lon="-105.229789">
  <ele>1583.0</ele>
  <time>2026-08-28T17:50:59Z</time>
  <course>0.0</course>
  <speed>0.0</speed>
  <fix>3d</fix>
</trkpt>
<trkpt lat="40.071375" lon="-105.2297889">
  <ele>1582.93</ele>
  <time>2026-08-28T17:50:59Z</time>
  <course>246.98</course>
  <speed>0.022360679774997897</speed>
  <fix>3d</fix>
</trkpt>
<trkpt lat="40.0713749" lon="-105.229789">
  <ele>1583.0</ele>
  <time>2026-08-28T17:50:59Z</time>
  <course>0.0</course>
  <speed>0.0</speed>
  <fix>3d</fix>
</trkpt>
<trkpt lat="40.0713751" lon="-105.2297889">
  <ele>1582.93</ele>
  <time>2026-08-28T17:50:59Z</time>
  <course>246.98</course>
  <speed>0.022360679774997897</speed>
  <fix>3d</fix>
</trkpt>
<trkpt lat="40.0713749" lon="-105.229789">
  <ele>1583.0</ele>
  <time>2026-08-28T17:50:59Z</time>
  <course>0.0</course>
  <speed>0.0</speed>
  <fix>3d</fix>
</trkpt>
<trkpt lat="40.071375" lon="-105.2297889">
  <ele>1582.93</ele>
  <time>2026-08-28T17:51:00Z</time>
  <course>246.98</course>
  <speed>0.022360679774997897</speed>
  <fix>3d</fix>
</trkpt>
<trkpt lat="40.0713749" lon="-105.229789">
  <ele>1583.0</ele>
  <time>2026-08-28T17:51:00Z</time>
  <course>0.0</course>
  <speed>0.0</speed>
  <fix>3d</fix>
</trkpt>
<trkpt lat="40.0713751" lon="-105.2297889">
  <ele>1582.92</ele>
  <time>2026-08-28T17:51:00Z</time>
  <course>246.98</course>
  <speed>0.022360679774997897</speed>
  <fix>3d</fix>
</trkpt>
<trkpt lat="40.0713749" lon="-105.229789">
  <ele>1583.0</ele>
  <time>2026-08-28T17:51:00Z</time>
  <course>0.0</course>
  <speed>0.0</speed>
  <fix>3d</fix>
</trkpt>
<trkpt lat="40.071375" lon="-105.2297889">
  <ele>1582.92</ele>
  <time>2026-08-28T17:51:00Z</time>
  <course>246.98</course>
  <speed>0.022360679774997897</speed>
  <fix>3d</fix>
</trkpt>
<trkpt lat="40.0713749" lon="-105.229789">
  <ele>1583.0</ele>
  <time>2026-08-28T17:51:00Z</time>
  <course>0.0</course>
  <speed>0.0</speed>
  <fix>3d</fix>
</trkpt>
<trkpt lat="40.0713751" lon="-105.2297889">
  <ele>1582.92</ele>
  <time>2026-08-28T17:51:00Z</time>
  <course>246.98</course>
  <speed>0.022360679774997897</speed>
  <fix>3d</fix>
</trkpt>
<trkpt lat="40.0713749" lon="-105.229789">
  <ele>1583.0</ele>
  <time>2026-08-28T17:51:00Z</time>
  <course>0.0</course>
  <speed>0.0</speed>
  <fix>3d</fix>
</trkpt>
<trkpt lat="40.071375" lon="-105.2297889">
  <ele>1582.92</ele>
  <time>2026-08-28T17:51:00Z</time>
  <course>246.98</course>
  <speed>0.022360679774997897</speed>
  <fix>3d</fix>
</trkpt>
<trkpt lat="40.0713749" lon="-105.229789">
  <ele>1583.0</ele>
  <time>2026-08-28T17:51:00Z</time>
  <course>0.0</course>
  <speed>0.0</speed>
  <fix>3d</fix>
</trkpt>
<trkpt lat="40.0713751" lon="-105.2297889">
  <ele>1582.92</ele>
  <time>2026-08-28T17:51:00Z</time>
  <course>246.98</course>
  <speed>0.022360679774997897</speed>
  <fix>3d</fix>
</trkpt>
<trkpt lat="40.0713749" lon="-105.229789">
  <ele>1583.0</ele>
  <time>2026-08-28T17:51:00Z</time>
  <course>0.0</course>
  <speed>0.0</speed>
  <fix>3d</fix>
</trkpt>
<trkpt lat="40.071375" lon="-105.2297889">
  <ele>1582.92</ele>
  <time>2026-08-28T17:51:00Z</time>
  <course>246.98</course>
  <speed>0.022360679774997897</speed>
  <fix>3d</fix>
</trkpt>
<trkpt lat="40.0713749" lon="-105.229789">
  <ele>1583.0</ele>
  <time>2026-08-28T17:51:00Z</time>
  <course>0.0</course>
  <speed>0.0</speed>
  <fix>3d</fix>
</trkpt>
<trkpt lat="40.0713751" lon="-105.2297889">
  <ele>1582.92</ele>
  <time>2026-08-28T17:51:00Z</time>
  <course>246.98</course>
  <speed>0.022360679774997897</speed>
  <fix>3d</fix>
</trkpt>
<trkpt lat="40.0713749" lon="-105.229789">
  <ele>1583.0</ele>
  <time>2026-08-28T17:51:00Z</time>
  <course>0.0</course>
  <speed>0.0</speed>
  <fix>3d</fix>
</trkpt>
<trkpt lat="40.071375" lon="-105.2297889">
  <ele>1582.92</ele>
  <time>2026-08-28T17:51:00Z</time>
  <course>246.98</course>
  <speed>0.022360679774997897</speed>
  <fix>3d</fix>
</trkpt>
<trkpt lat="40.0713749" lon="-105.229789">
  <ele>1583.0</ele>
  <time>2026-08-28T17:51:00Z</time>
  <course>0.0</course>
  <speed>0.0</speed>
  <fix>3d</fix>
</trkpt>
<trkpt lat="40.0713751" lon="-105.2297889">
  <ele>1582.91</ele>
  <time>2026-08-28T17:51:00Z</time>
  <course>246.98</course>
  <speed>0.022360679774997897</speed>
  <fix>3d</fix>
</trkpt>
<trkpt lat="40.0713749" lon="-105.229789">
  <ele>1583.0</ele>
  <time>2026-08-28T17:51:00Z</time>
  <course>0.0</course>
  <speed>0.0</speed>
  <fix>3d</fix>
</trkpt>
<trkpt lat="40.0713751" lon="-105.2297889">
  <ele>1582.91</ele>
  <time>2026-08-28T17:51:01Z</time>
  <course>246.98</course>
  <speed>0.022360679774997897</speed>
  <fix>3d</fix>
</trkpt>
<trkpt lat="40.0713749" lon="-105.229789">
  <ele>1583.0</ele>
  <time>2026-08-28T17:51:01Z</time>
  <course>0.0</course>
  <speed>0.0</speed>
  <fix>3d</fix>
</trkpt>
<trkpt lat="40.0713751" lon="-105.2297889">
  <ele>1582.91</ele>
  <time>2026-08-28T17:51:01Z</time>
  <course>246.98</course>
  <speed>0.022360679774997897</speed>
  <fix>3d</fix>
</trkpt>
<trkpt lat="40.0713749" lon="-105.229789">
  <ele>1583.0</ele>
  <time>2026-08-28T17:51:01Z</time>
  <course>0.0</course>
  <speed>0.0</speed>
  <fix>3d</fix>
</trkpt>
<trkpt lat="40.0713751" lon="-105.2297889">
  <ele>1582.91</ele>
  <time>2026-08-28T17:51:01Z</time>
  <course>246.98</course>
  <speed>0.022360679774997897</speed>
  <fix>3d</fix>
</trkpt>
<trkpt lat="40.0713749" lon="-105.229789">
  <ele>1583.0</ele>
  <time>2026-08-28T17:51:01Z</time>
  <course>0.0</course>
  <speed>0.0</speed>
  <fix>3d</fix>
</trkpt>
<trkpt lat="40.0713751" lon="-105.2297889">
  <ele>1582.9</ele>
  <time>2026-08-28T17:51:01Z</time>
  <course>246.98</course>
  <speed>0.022360679774997897</speed>
  <fix>3d</fix>
</trkpt>
<trkpt lat="40.0713749" lon="-105.229789">
  <ele>1583.0</ele>
  <time>2026-08-28T17:51:01Z</time>
  <course>0.0</course>
  <speed>0.0</speed>
  <fix>3d</fix>
</trkpt>
<trkpt lat="40.0713751" lon="-105.2297889">
  <ele>1582.9</ele>
  <time>2026-08-28T17:51:01Z</time>
  <course>246.98</course>
  <speed>0.022360679774997897</speed>
  <fix>3d</fix>
</trkpt>
<trkpt lat="40.0713749" lon="-105.229789">
  <ele>1583.0</ele>
  <time>2026-08-28T17:51:01Z</time>
  <course>0.0</course>
  <speed>0.0</speed>
  <fix>3d</fix>
</trkpt>
<trkpt lat="40.0713751" lon="-105.2297889">
  <ele>1582.9</ele>
  <time>2026-08-28T17:51:01Z</time>
  <course>246.98</course>
  <speed>0.022360679774997897</speed>
  <fix>3d</fix>
</trkpt>
<trkpt lat="40.0713749" lon="-105.229789">
  <ele>1583.0</ele>
  <time>2026-08-28T17:51:01Z</time>
  <course>0.0</course>
  <speed>0.0</speed>
  <fix>3d</fix>
</trkpt>
<trkpt lat="40.071375" lon="-105.2297889">
  <ele>1582.9</ele>
  <time>2026-08-28T17:51:01Z</time>
  <course>246.98</course>
  <speed>0.022360679774997897</speed>
  <fix>3d</fix>
</trkpt>
<trkpt lat="40.0713749" lon="-105.229789">
  <ele>1583.0</ele>
  <time>2026-08-28T17:51:01Z</time>
  <course>0.0</course>
  <speed>0.0</speed>
  <fix>3d</fix>
</trkpt>
<trkpt lat="40.0713751" lon="-105.2297889">
  <ele>1582.9</ele>
  <time>2026-08-28T17:51:01Z</time>
  <course>246.98</course>
  <speed>0.022360679774997897</speed>
  <fix>3d</fix>
</trkpt>
<trkpt lat="40.0713749" lon="-105.229789">
  <ele>1583.0</ele>
  <time>2026-08-28T17:51:01Z</time>
  <course>0.0</course>
  <speed>0.0</speed>
  <fix>3d</fix>
</trkpt>
<trkpt lat="40.071375" lon="-105.2297889">
  <ele>1582.9</ele>
  <time>2026-08-28T17:51:01Z</time>
  <course>246.98</course>
  <speed>0.022360679774997897</speed>
  <fix>3d</fix>
</trkpt>
<trkpt lat="40.0713749" lon="-105.229789">
  <ele>1583.0</ele>
  <time>2026-08-28T17:51:01Z</time>
  <course>0.0</course>
  <speed>0.0</speed>
  <fix>3d</fix>
</trkpt>
<trkpt lat="40.0713751" lon="-105.2297889">
  <ele>1582.91</ele>
  <time>2026-08-28T17:51:01Z</time>
  <course>246.98</course>
  <speed>0.022360679774997897</speed>
  <fix>3d</fix>
</trkpt>
<trkpt lat="40.0713749" lon="-105.229789">
  <ele>1583.0</ele>
  <time>2026-08-28T17:51:01Z</time>
  <course>0.0</course>
  <speed>0.0</speed>
  <fix>3d</fix>
</trkpt>
<trkpt lat="40.071375" lon="-105.2297889">
  <ele>1582.91</ele>
  <time>2026-08-28T17:51:02Z</time>
  <course>246.98</course>
  <speed>0.022360679774997897</speed>
  <fix>3d</fix>
</trkpt>
<trkpt lat="40.0713749" lon="-105.229789">
  <ele>1583.0</ele>
  <time>2026-08-28T17:51:02Z</time>
  <course>0.0</course>
  <speed>0.0</speed>
  <fix>3d</fix>
</trkpt>
<trkpt lat="40.0713751" lon="-105.2297889">
  <ele>1582.92</ele>
  <time>2026-08-28T17:51:02Z</time>
  <course>246.98</course>
  <speed>0.022360679774997897</speed>
  <fix>3d</fix>
</trkpt>
<trkpt lat="40.0713749" lon="-105.229789">
  <ele>1583.0</ele>
  <time>2026-08-28T17:51:02Z</time>
  <course>0.0</course>
  <speed>0.0</speed>
  <fix>3d</fix>
</trkpt>
<trkpt lat="40.071375" lon="-105.2297889">
  <ele>1582.92</ele>
  <time>2026-08-28T17:51:02Z</time>
  <course>246.98</course>
  <speed>0.022360679774997897</speed>
  <fix>3d</fix>
</trkpt>
<trkpt lat="40.0713749" lon="-105.229789">
  <ele>1583.0</ele>
  <time>2026-08-28T17:51:02Z</time>
  <course>0.0</course>
  <speed>0.0</speed>
  <fix>3d</fix>
</trkpt>
<trkpt lat="40.0713751" lon="-105.2297889">
  <ele>1582.92</ele>
  <time>2026-08-28T17:51:02Z</time>
  <course>246.98</course>
  <speed>0.022360679774997897</speed>
  <fix>3d</fix>
</trkpt>
<trkpt lat="40.0713749" lon="-105.229789">
  <ele>1583.0</ele>
  <time>2026-08-28T17:51:02Z</time>
  <course>0.0</course>
  <speed>0.0</speed>
  <fix>3d</fix>
</trkpt>
<trkpt lat="40.071375" lon="-105.2297889">
  <ele>1582.92</ele>
  <time>2026-08-28T17:51:02Z</time>
  <course>246.98</course>
  <speed>0.022360679774997897</speed>
  <fix>3d</fix>
</trkpt>
<trkpt lat="40.0713749" lon="-105.229789">
  <ele>1583.0</ele>
  <time>2026-08-28T17:51:02Z</time>
  <course>0.0</course>
  <speed>0.0</speed>
  <fix>3d</fix>
</trkpt>
<trkpt lat="40.0713751" lon="-105.2297889">
  <ele>1582.92</ele>
  <time>2026-08-28T17:51:02Z</time>
  <course>246.98</course>
  <speed>0.022360679774997897</speed>
  <fix>3d</fix>
</trkpt>
<trkpt lat="40.0713749" lon="-105.229789">
  <ele>1583.0</ele>
  <time>2026-08-28T17:51:02Z</time>
  <course>0.0</course>
  <speed>0.0</speed>
  <fix>3d</fix>
</trkpt>
<trkpt lat="40.071375" lon="-105.2297889">
  <ele>1582.92</ele>
  <time>2026-08-28T17:51:02Z</time>
  <course>246.98</course>
  <speed>0.022360679774997897</speed>
  <fix>3d</fix>
</trkpt>
<trkpt lat="40.0713749" lon="-105.229789">
  <ele>1583.0</ele>
  <time>2026-08-28T17:51:02Z</time>
  <course>0.0</course>
  <speed>0.0</speed>
  <fix>3d</fix>
</trkpt>
<trkpt lat="40.0713751" lon="-105.2297889">
  <ele>1582.92</ele>
  <time>2026-08-28T17:51:02Z</time>
  <course>246.98</course>
  <speed>0.022360679774997897</speed>
  <fix>3d</fix>
</trkpt>
<trkpt lat="40.0713749" lon="-105.229789">
  <ele>1583.0</ele>
  <time>2026-08-28T17:51:02Z</time>
  <course>0.0</course>
  <speed>0.0</speed>
  <fix>3d</fix>
</trkpt>
<trkpt lat="40.071375" lon="-105.2297889">
  <ele>1582.93</ele>
  <time>2026-08-28T17:51:02Z</time>
  <course>246.98</course>
  <speed>0.022360679774997897</speed>
  <fix>3d</fix>
</trkpt>
<trkpt lat="40.0713749" lon="-105.229789">
  <ele>1583.0</ele>
  <time>2026-08-28T17:51:02Z</time>
  <course>0.0</course>
  <speed>0.0</speed>
  <fix>3d</fix>
</trkpt>
<trkpt lat="40.0713751" lon="-105.2297889">
  <ele>1582.93</ele>
  <time>2026-08-28T17:51:02Z</time>
  <course>246.98</course>
  <speed>0.022360679774997897</speed>
  <fix>3d</fix>
</trkpt>
<trkpt lat="40.0713749" lon="-105.229789">
  <ele>1583.0</ele>
  <time>2026-08-28T17:51:02Z</time>
  <course>0.0</course>
  <speed>0.0</speed>
  <fix>3d</fix>
</trkpt>
<trkpt lat="40.0713751" lon="-105.2297889">
  <ele>1582.93</ele>
  <time>2026-08-28T17:51:03Z</time>
  <course>246.98</course>
  <speed>0.022360679774997897</speed>
  <fix>3d</fix>
</trkpt>
<trkpt lat="40.0713749" lon="-105.229789">
  <ele>1583.0</ele>
  <time>2026-08-28T17:51:03Z</time>
  <course>0.0</course>
  <speed>0.0</speed>
  <fix>3d</fix>
</trkpt>
<trkpt lat="40.0713751" lon="-105.2297889">
  <ele>1582.93</ele>
  <time>2026-08-28T17:51:03Z</time>
  <course>246.98</course>
  <speed>0.022360679774997897</speed>
  <fix>3d</fix>
</trkpt>
<trkpt lat="40.0713749" lon="-105.229789">
  <ele>1583.0</ele>
  <time>2026-08-28T17:51:03Z</time>
  <course>0.0</course>
  <speed>0.0</speed>
  <fix>3d</fix>
</trkpt>
<trkpt lat="40.0713751" lon="-105.2297889">
  <ele>1582.93</ele>
  <time>2026-08-28T17:51:03Z</time>
  <course>246.98</course>
  <speed>0.022360679774997897</speed>
  <fix>3d</fix>
</trkpt>
<trkpt lat="40.0713749" lon="-105.229789">
  <ele>1583.0</ele>
  <time>2026-08-28T17:51:03Z</time>
  <course>0.0</course>
  <speed>0.0</speed>
  <fix>3d</fix>
</trkpt>
<trkpt lat="40.0713751" lon="-105.2297889">
  <ele>1582.94</ele>
  <time>2026-08-28T17:51:03Z</time>
  <course>246.98</course>
  <speed>0.022360679774997897</speed>
  <fix>3d</fix>
</trkpt>
<trkpt lat="40.0713749" lon="-105.229789">
  <ele>1583.0</ele>
  <time>2026-08-28T17:51:03Z</time>
  <course>0.0</course>
  <speed>0.0</speed>
  <fix>3d</fix>
</trkpt>
<trkpt lat="40.0713751" lon="-105.2297889">
  <ele>1582.94</ele>
  <time>2026-08-28T17:51:03Z</time>
  <course>246.98</course>
  <speed>0.022360679774997897</speed>
  <fix>3d</fix>
</trkpt>
<trkpt lat="40.0713749" lon="-105.229789">
  <ele>1583.0</ele>
  <time>2026-08-28T17:51:03Z</time>
  <course>0.0</course>
  <speed>0.0</speed>
  <fix>3d</fix>
</trkpt>
<trkpt lat="40.0713751" lon="-105.2297889">
  <ele>1582.94</ele>
  <time>2026-08-28T17:51:03Z</time>
  <course>246.98</course>
  <speed>0.022360679774997897</speed>
  <fix>3d</fix>
</trkpt>
<trkpt lat="40.0713749" lon="-105.229789">
  <ele>1583.0</ele>
  <time>2026-08-28T17:51:03Z</time>
  <course>0.0</course>
  <speed>0.0</speed>
  <fix>3d</fix>
</trkpt>
<trkpt lat="40.0713751" lon="-105.2297889">
  <ele>1582.94</ele>
  <time>2026-08-28T17:51:03Z</time>
  <course>246.98</course>
  <speed>0.022360679774997897</speed>
  <fix>3d</fix>
</trkpt>
<trkpt lat="40.0713749" lon="-105.229789">
  <ele>1583.0</ele>
  <time>2026-08-28T17:51:03Z</time>
  <course>0.0</course>
  <speed>0.0</speed>
  <fix>3d</fix>
</trkpt>
<trkpt lat="40.0713751" lon="-105.2297889">
  <ele>1582.94</ele>
  <time>2026-08-28T17:51:03Z</time>
  <course>246.98</course>
  <speed>0.022360679774997897</speed>
  <fix>3d</fix>
</trkpt>
<trkpt lat="40.0713749" lon="-105.229789">
  <ele>1583.0</ele>
  <time>2026-08-28T17:51:03Z</time>
  <course>0.0</course>
  <speed>0.0</speed>
  <fix>3d</fix>
</trkpt>
<trkpt lat="40.0713751" lon="-105.2297889">
  <ele>1582.94</ele>
  <time>2026-08-28T17:51:03Z</time>
  <course>246.98</course>
  <speed>0.022360679774997897</speed>
  <fix>3d</fix>
</trkpt>
<trkpt lat="40.0713749" lon="-105.229789">
  <ele>1583.0</ele>
  <time>2026-08-28T17:51:03Z</time>
  <course>0.0</course>
  <speed>0.0</speed>
  <fix>3d</fix>
</trkpt>
<trkpt lat="40.0713751" lon="-105.2297889">
  <ele>1582.95</ele>
  <time>2026-08-28T17:51:03Z</time>
  <course>246.98</course>
  <speed>0.022360679774997897</speed>
  <fix>3d</fix>
</trkpt>
<trkpt lat="40.0713749" lon="-105.229789">
  <ele>1583.0</ele>
  <time>2026-08-28T17:51:03Z</time>
  <course>0.0</course>
  <speed>0.0</speed>
  <fix>3d</fix>
</trkpt>
<trkpt lat="40.071375" lon="-105.2297889">
  <ele>1582.95</ele>
  <time>2026-08-28T17:51:04Z</time>
  <course>246.98</course>
  <speed>0.022360679774997897</speed>
  <fix>3d</fix>
</trkpt>
<trkpt lat="40.0713749" lon="-105.229789">
  <ele>1583.0</ele>
  <time>2026-08-28T17:51:04Z</time>
  <course>0.0</course>
  <speed>0.0</speed>
  <fix>3d</fix>
</trkpt>
<trkpt lat="40.0713751" lon="-105.2297889">
  <ele>1582.95</ele>
  <time>2026-08-28T17:51:04Z</time>
  <course>246.98</course>
  <speed>0.022360679774997897</speed>
  <fix>3d</fix>
</trkpt>
<trkpt lat="40.0713749" lon="-105.229789">
  <ele>1583.0</ele>
  <time>2026-08-28T17:51:04Z</time>
  <course>0.0</course>
  <speed>0.0</speed>
  <fix>3d</fix>
</trkpt>
<trkpt lat="40.071375" lon="-105.2297889">
  <ele>1582.95</ele>
  <time>2026-08-28T17:51:04Z</time>
  <course>246.98</course>
  <speed>0.022360679774997897</speed>
  <fix>3d</fix>
</trkpt>
<trkpt lat="40.0713749" lon="-105.229789">
  <ele>1583.0</ele>
  <time>2026-08-28T17:51:04Z</time>
  <course>0.0</course>
  <speed>0.0</speed>
  <fix>3d</fix>
</trkpt>
<trkpt lat="40.0713751" lon="-105.2297889">
  <ele>1582.95</ele>
  <time>2026-08-28T17:51:04Z</time>
  <course>246.98</course>
  <speed>0.022360679774997897</speed>
  <fix>3d</fix>
</trkpt>
<trkpt lat="40.0713749" lon="-105.229789">
  <ele>1583.0</ele>
  <time>2026-08-28T17:51:04Z</time>
  <course>0.0</course>
  <speed>0.0</speed>
  <fix>3d</fix>
</trkpt>
<trkpt lat="40.071375" lon="-105.2297889">
  <ele>1582.95</ele>
  <time>2026-08-28T17:51:04Z</time>
  <course>246.98</course>
  <speed>0.022360679774997897</speed>
  <fix>3d</fix>
</trkpt>
<trkpt lat="40.0713749" lon="-105.229789">
  <ele>1583.0</ele>
  <time>2026-08-28T17:51:04Z</time>
  <course>0.0</course>
  <speed>0.0</speed>
  <fix>3d</fix>
</trkpt>
<trkpt lat="40.0713751" lon="-105.2297889">
  <ele>1582.95</ele>
  <time>2026-08-28T17:51:04Z</time>
  <course>246.98</course>
  <speed>0.022360679774997897</speed>
  <fix>3d</fix>
</trkpt>
<trkpt lat="40.0713749" lon="-105.229789">
  <ele>1583.0</ele>
  <time>2026-08-28T17:51:04Z</time>
  <course>0.0</course>
  <speed>0.0</speed>
  <fix>3d</fix>
</trkpt>
<trkpt lat="40.071375" lon="-105.2297889">
  <ele>1582.95</ele>
  <time>2026-08-28T17:51:04Z</time>
  <course>246.98</course>
  <speed>0.022360679774997897</speed>
  <fix>3d</fix>
</trkpt>
<trkpt lat="40.0713749" lon="-105.229789">
  <ele>1583.0</ele>
  <time>2026-08-28T17:51:04Z</time>
  <course>0.0</course>
  <speed>0.0</speed>
  <fix>3d</fix>
</trkpt>
<trkpt lat="40.0713751" lon="-105.2297889">
  <ele>1582.95</ele>
  <time>2026-08-28T17:51:04Z</time>
  <course>246.98</course>
  <speed>0.022360679774997897</speed>
  <fix>3d</fix>
</trkpt>
<trkpt lat="40.0713749" lon="-105.229789">
  <ele>1583.0</ele>
  <time>2026-08-28T17:51:04Z</time>
  <course>0.0</course>
  <speed>0.0</speed>
  <fix>3d</fix>
</trkpt>
<trkpt lat="40.0713751" lon="-105.2297889">
  <ele>1582.94</ele>
  <time>2026-08-28T17:51:04Z</time>
  <course>246.98</course>
  <speed>0.022360679774997897</speed>
  <fix>3d</fix>
</trkpt>
<trkpt lat="40.0713749" lon="-105.229789">
  <ele>1583.0</ele>
  <time>2026-08-28T17:51:04Z</time>
  <course>0.0</course>
  <speed>0.0</speed>
  <fix>3d</fix>
</trkpt>
<trkpt lat="40.0713751" lon="-105.2297889">
  <ele>1582.94</ele>
  <time>2026-08-28T17:51:04Z</time>
  <course>246.98</course>
  <speed>0.022360679774997897</speed>
  <fix>3d</fix>
</trkpt>
<trkpt lat="40.0713749" lon="-105.229789">
  <ele>1583.0</ele>
  <time>2026-08-28T17:51:04Z</time>
  <course>0.0</course>
  <speed>0.0</speed>
  <fix>3d</fix>
</trkpt>
<trkpt lat="40.0713751" lon="-105.2297889">
  <ele>1582.94</ele>
  <time>2026-08-28T17:51:05Z</time>
  <course>246.98</course>
  <speed>0.022360679774997897</speed>
  <fix>3d</fix>
</trkpt>
<trkpt lat="40.0713749" lon="-105.229789">
  <ele>1583.0</ele>
  <time>2026-08-28T17:51:05Z</time>
  <course>0.0</course>
  <speed>0.0</speed>
  <fix>3d</fix>
</trkpt>
<trkpt lat="40.0713751" lon="-105.2297889">
  <ele>1582.93</ele>
  <time>2026-08-28T17:51:05Z</time>
  <course>246.98</course>
  <speed>0.022360679774997897</speed>
  <fix>3d</fix>
</trkpt>
<trkpt lat="40.0713749" lon="-105.229789">
  <ele>1583.0</ele>
  <time>2026-08-28T17:51:05Z</time>
  <course>0.0</course>
  <speed>0.0</speed>
  <fix>3d</fix>
</trkpt>
<trkpt lat="40.0713751" lon="-105.2297889">
  <ele>1582.93</ele>
  <time>2026-08-28T17:51:05Z</time>
  <course>246.98</course>
  <speed>0.022360679774997897</speed>
  <fix>3d</fix>
</trkpt>
<trkpt lat="40.0713749" lon="-105.229789">
  <ele>1583.0</ele>
  <time>2026-08-28T17:51:05Z</time>
  <course>0.0</course>
  <speed>0.0</speed>
  <fix>3d</fix>
</trkpt>
<trkpt lat="40.0713751" lon="-105.2297889">
  <ele>1582.93</ele>
  <time>2026-08-28T17:51:05Z</time>
  <course>246.98</course>
  <speed>0.022360679774997897</speed>
  <fix>3d</fix>
</trkpt>
<trkpt lat="40.0713749" lon="-105.229789">
  <ele>1583.0</ele>
  <time>2026-08-28T17:51:05Z</time>
  <course>0.0</course>
  <speed>0.0</speed>
  <fix>3d</fix>
</trkpt>
<trkpt lat="40.0713751" lon="-105.2297889">
  <ele>1582.93</ele>
  <time>2026-08-28T17:51:05Z</time>
  <course>246.98</course>
  <speed>0.022360679774997897</speed>
  <fix>3d</fix>
</trkpt>
<trkpt lat="40.0713749" lon="-105.229789">
  <ele>1583.0</ele>
  <time>2026-08-28T17:51:05Z</time>
  <course>0.0</course>
  <speed>0.0</speed>
  <fix>3d</fix>
</trkpt>
<trkpt lat="40.0713751" lon="-105.2297889">
  <ele>1582.93</ele>
  <time>2026-08-28T17:51:05Z</time>
  <course>246.98</course>
  <speed>0.022360679774997897</speed>
  <fix>3d</fix>
</trkpt>
<trkpt lat="40.0713749" lon="-105.229789">
  <ele>1583.0</ele>
  <time>2026-08-28T17:51:05Z</time>
  <course>0.0</course>
  <speed>0.0</speed>
  <fix>3d</fix>
</trkpt>
<trkpt lat="40.0713751" lon="-105.2297889">
  <ele>1582.93</ele>
  <time>2026-08-28T17:51:05Z</time>
  <course>246.98</course>
  <speed>0.022360679774997897</speed>
  <fix>3d</fix>
</trkpt>
<trkpt lat="40.0713749" lon="-105.229789">
  <ele>1583.0</ele>
  <time>2026-08-28T17:51:05Z</time>
  <course>0.0</course>
  <speed>0.0</speed>
  <fix>3d</fix>
</trkpt>
<trkpt lat="40.0713751" lon="-105.2297889">
  <ele>1582.93</ele>
  <time>2026-08-28T17:51:05Z</time>
  <course>246.98</course>
  <speed>0.022360679774997897</speed>
  <fix>3d</fix>
</trkpt>
<trkpt lat="40.0713749" lon="-105.229789">
  <ele>1583.0</ele>
  <time>2026-08-28T17:51:05Z</time>
  <course>0.0</course>
  <speed>0.0</speed>
  <fix>3d</fix>
</trkpt>
<trkpt lat="40.0713751" lon="-105.2297889">
  <ele>1582.93</ele>
  <time>2026-08-28T17:51:05Z</time>
  <course>246.98</course>
  <speed>0.022360679774997897</speed>
  <fix>3d</fix>
</trkpt>
<trkpt lat="40.0713749" lon="-105.229789">
  <ele>1583.0</ele>
  <time>2026-08-28T17:51:05Z</time>
  <course>0.0</course>
  <speed>0.0</speed>
  <fix>3d</fix>
</trkpt>
<trkpt lat="40.0713751" lon="-105.2297889">
  <ele>1582.93</ele>
  <time>2026-08-28T17:51:05Z</time>
  <course>246.98</course>
  <speed>0.022360679774997897</speed>
  <fix>3d</fix>
</trkpt>
<trkpt lat="40.0713749" lon="-105.229789">
  <ele>1583.0</ele>
  <time>2026-08-28T17:51:05Z</time>
  <course>0.0</course>
  <speed>0.0</speed>
  <fix>3d</fix>
</trkpt>
<trkpt lat="40.071375" lon="-105.2297889">
  <ele>1582.93</ele>
  <time>2026-08-28T17:51:06Z</time>
  <course>246.98</course>
  <speed>0.022360679774997897</speed>
  <fix>3d</fix>
</trkpt>
<trkpt lat="40.0713749" lon="-105.229789">
  <ele>1583.0</ele>
  <time>2026-08-28T17:51:06Z</time>
  <course>0.0</course>
  <speed>0.0</speed>
  <fix>3d</fix>
</trkpt>
<trkpt lat="40.0713751" lon="-105.2297889">
  <ele>1582.93</ele>
  <time>2026-08-28T17:51:06Z</time>
  <course>246.98</course>
  <speed>0.022360679774997897</speed>
  <fix>3d</fix>
</trkpt>
<trkpt lat="40.0713749" lon="-105.229789">
  <ele>1583.0</ele>
  <time>2026-08-28T17:51:06Z</time>
  <course>0.0</course>
  <speed>0.0</speed>
  <fix>3d</fix>
</trkpt>
<trkpt lat="40.071375" lon="-105.2297889">
  <ele>1582.93</ele>
  <time>2026-08-28T17:51:06Z</time>
  <course>246.98</course>
  <speed>0.022360679774997897</speed>
  <fix>3d</fix>
</trkpt>
<trkpt lat="40.0713749" lon="-105.229789">
  <ele>1583.0</ele>
  <time>2026-08-28T17:51:06Z</time>
  <course>0.0</course>
  <speed>0.0</speed>
  <fix>3d</fix>
</trkpt>
<trkpt lat="40.0713751" lon="-105.2297889">
  <ele>1582.93</ele>
  <time>2026-08-28T17:51:06Z</time>
  <course>246.98</course>
  <speed>0.022360679774997897</speed>
  <fix>3d</fix>
</trkpt>
<trkpt lat="40.0713749" lon="-105.229789">
  <ele>1583.0</ele>
  <time>2026-08-28T17:51:06Z</time>
  <course>0.0</course>
  <speed>0.0</speed>
  <fix>3d</fix>
</trkpt>
<trkpt lat="40.071375" lon="-105.2297889">
  <ele>1582.93</ele>
  <time>2026-08-28T17:51:06Z</time>
  <course>246.98</course>
  <speed>0.022360679774997897</speed>
  <fix>3d</fix>
</trkpt>
<trkpt lat="40.0713749" lon="-105.229789">
  <ele>1583.0</ele>
  <time>2026-08-28T17:51:06Z</time>
  <course>0.0</course>
  <speed>0.0</speed>
  <fix>3d</fix>
</trkpt>
<trkpt lat="40.0713751" lon="-105.2297889">
  <ele>1582.94</ele>
  <time>2026-08-28T17:51:06Z</time>
  <course>246.98</course>
  <speed>0.022360679774997897</speed>
  <fix>3d</fix>
</trkpt>
<trkpt lat="40.0713749" lon="-105.229789">
  <ele>1583.0</ele>
  <time>2026-08-28T17:51:06Z</time>
  <course>0.0</course>
  <speed>0.0</speed>
  <fix>3d</fix>
</trkpt>
<trkpt lat="40.071375" lon="-105.2297889">
  <ele>1582.94</ele>
  <time>2026-08-28T17:51:06Z</time>
  <course>246.98</course>
  <speed>0.022360679774997897</speed>
  <fix>3d</fix>
</trkpt>
<trkpt lat="40.0713749" lon="-105.229789">
  <ele>1583.0</ele>
  <time>2026-08-28T17:51:06Z</time>
  <course>0.0</course>
  <speed>0.0</speed>
  <fix>3d</fix>
</trkpt>
<trkpt lat="40.0713751" lon="-105.2297889">
  <ele>1582.94</ele>
  <time>2026-08-28T17:51:06Z</time>
  <course>246.98</course>
  <speed>0.022360679774997897</speed>
  <fix>3d</fix>
</trkpt>
<trkpt lat="40.0713749" lon="-105.229789">
  <ele>1583.0</ele>
  <time>2026-08-28T17:51:06Z</time>
  <course>0.0</course>
  <speed>0.0</speed>
  <fix>3d</fix>
</trkpt>
<trkpt lat="40.071375" lon="-105.2297889">
  <ele>1582.95</ele>
  <time>2026-08-28T17:51:06Z</time>
  <course>246.98</course>
  <speed>0.022360679774997897</speed>
  <fix>3d</fix>
</trkpt>
<trkpt lat="40.0713749" lon="-105.229789">
  <ele>1583.0</ele>
  <time>2026-08-28T17:51:06Z</time>
  <course>0.0</course>
  <speed>0.0</speed>
  <fix>3d</fix>
</trkpt>
<trkpt lat="40.0713751" lon="-105.2297889">
  <ele>1582.96</ele>
  <time>2026-08-28T17:51:06Z</time>
  <course>246.98</course>
  <speed>0.022360679774997897</speed>
  <fix>3d</fix>
</trkpt>
<trkpt lat="40.0713749" lon="-105.229789">
  <ele>1583.0</ele>
  <time>2026-08-28T17:51:06Z</time>
  <course>0.0</course>
  <speed>0.0</speed>
  <fix>3d</fix>
</trkpt>
<trkpt lat="40.071375" lon="-105.2297889">
  <ele>1582.97</ele>
  <time>2026-08-28T17:51:07Z</time>
  <course>246.98</course>
  <speed>0.022360679774997897</speed>
  <fix>3d</fix>
</trkpt>
<trkpt lat="40.0713749" lon="-105.229789">
  <ele>1583.0</ele>
  <time>2026-08-28T17:51:07Z</time>
  <course>0.0</course>
  <speed>0.0</speed>
  <fix>3d</fix>
</trkpt>
<trkpt lat="40.0713751" lon="-105.2297889">
  <ele>1582.98</ele>
  <time>2026-08-28T17:51:07Z</time>
  <course>246.98</course>
  <speed>0.022360679774997897</speed>
  <fix>3d</fix>
</trkpt>
<trkpt lat="40.0713749" lon="-105.229789">
  <ele>1583.0</ele>
  <time>2026-08-28T17:51:07Z</time>
  <course>0.0</course>
  <speed>0.0</speed>
  <fix>3d</fix>
</trkpt>
<trkpt lat="40.0713751" lon="-105.2297889">
  <ele>1582.99</ele>
  <time>2026-08-28T17:51:07Z</time>
  <course>246.98</course>
  <speed>0.022360679774997897</speed>
  <fix>3d</fix>
</trkpt>
<trkpt lat="40.0713749" lon="-105.229789">
  <ele>1583.0</ele>
  <time>2026-08-28T17:51:07Z</time>
  <course>0.0</course>
  <speed>0.0</speed>
  <fix>3d</fix>
</trkpt>
<trkpt lat="40.0713751" lon="-105.2297889">
  <ele>1582.99</ele>
  <time>2026-08-28T17:51:07Z</time>
  <course>246.98</course>
  <speed>0.022360679774997897</speed>
  <fix>3d</fix>
</trkpt>
<trkpt lat="40.0713749" lon="-105.229789">
  <ele>1583.0</ele>
  <time>2026-08-28T17:51:07Z</time>
  <course>0.0</course>
  <speed>0.0</speed>
  <fix>3d</fix>
</trkpt>
<trkpt lat="40.0713751" lon="-105.2297889">
  <ele>1583.0</ele>
  <time>2026-08-28T17:51:07Z</time>
  <course>246.98</course>
  <speed>0.022360679774997897</speed>
  <fix>3d</fix>
</trkpt>
<trkpt lat="40.0713749" lon="-105.229789">
  <ele>1583.0</ele>
  <time>2026-08-28T17:51:07Z</time>
  <course>0.0</course>
  <speed>0.0</speed>
  <fix>3d</fix>
</trkpt>
<trkpt lat="40.0713751" lon="-105.2297889">
  <ele>1583.01</ele>
  <time>2026-08-28T17:51:07Z</time>
  <course>246.98</course>
  <speed>0.022360679774997897</speed>
  <fix>3d</fix>
</trkpt>
<trkpt lat="40.0713749" lon="-105.229789">
  <ele>1583.0</ele>
  <time>2026-08-28T17:51:07Z</time>
  <course>0.0</course>
  <speed>0.0</speed>
  <fix>3d</fix>
</trkpt>
<trkpt lat="40.0713751" lon="-105.2297889">
  <ele>1583.01</ele>
  <time>2026-08-28T17:51:07Z</time>
  <course>246.98</course>
  <speed>0.022360679774997897</speed>
  <fix>3d</fix>
</trkpt>
<trkpt lat="40.0713749" lon="-105.229789">
  <ele>1583.0</ele>
  <time>2026-08-28T17:51:07Z</time>
  <course>0.0</course>
  <speed>0.0</speed>
  <fix>3d</fix>
</trkpt>
<trkpt lat="40.0713751" lon="-105.2297889">
  <ele>1583.02</ele>
  <time>2026-08-28T17:51:07Z</time>
  <course>246.98</course>
  <speed>0.022360679774997897</speed>
  <fix>3d</fix>
</trkpt>
<trkpt lat="40.0713749" lon="-105.229789">
  <ele>1583.0</ele>
  <time>2026-08-28T17:51:07Z</time>
  <course>0.0</course>
  <speed>0.0</speed>
  <fix>3d</fix>
</trkpt>
<trkpt lat="40.071375" lon="-105.2297889">
  <ele>1583.02</ele>
  <time>2026-08-28T17:51:07Z</time>
  <course>246.98</course>
  <speed>0.022360679774997897</speed>
  <fix>3d</fix>
</trkpt>
<trkpt lat="40.0713749" lon="-105.229789">
  <ele>1583.0</ele>
  <time>2026-08-28T17:51:07Z</time>
  <course>0.0</course>
  <speed>0.0</speed>
  <fix>3d</fix>
</trkpt>
<trkpt lat="40.0713751" lon="-105.2297889">
  <ele>1583.02</ele>
  <time>2026-08-28T17:51:07Z</time>
  <course>246.98</course>
  <speed>0.022360679774997897</speed>
  <fix>3d</fix>
</trkpt>
<trkpt lat="40.0713749" lon="-105.229789">
  <ele>1583.0</ele>
  <time>2026-08-28T17:51:07Z</time>
  <course>0.0</course>
  <speed>0.0</speed>
  <fix>3d</fix>
</trkpt>
<trkpt lat="40.071375" lon="-105.2297889">
  <ele>1583.02</ele>
  <time>2026-08-28T17:51:08Z</time>
  <course>246.98</course>
  <speed>0.022360679774997897</speed>
  <fix>3d</fix>
</trkpt>
<trkpt lat="40.0713749" lon="-105.229789">
  <ele>1583.0</ele>
  <time>2026-08-28T17:51:08Z</time>
  <course>0.0</course>
  <speed>0.0</speed>
  <fix>3d</fix>
</trkpt>
<trkpt lat="40.0713751" lon="-105.2297889">
  <ele>1583.02</ele>
  <time>2026-08-28T17:51:08Z</time>
  <course>246.98</course>
  <speed>0.022360679774997897</speed>
  <fix>3d</fix>
</trkpt>
<trkpt lat="40.0713749" lon="-105.229789">
  <ele>1583.0</ele>
  <time>2026-08-28T17:51:08Z</time>
  <course>0.0</course>
  <speed>0.0</speed>
  <fix>3d</fix>
</trkpt>
<trkpt lat="40.071375" lon="-105.2297889">
  <ele>1583.03</ele>
  <time>2026-08-28T17:51:08Z</time>
  <course>246.98</course>
  <speed>0.022360679774997897</speed>
  <fix>3d</fix>
</trkpt>
<trkpt lat="40.0713749" lon="-105.229789">
  <ele>1583.0</ele>
  <time>2026-08-28T17:51:08Z</time>
  <course>0.0</course>
  <speed>0.0</speed>
  <fix>3d</fix>
</trkpt>
<trkpt lat="40.071375" lon="-105.2297889">
  <ele>1583.03</ele>
  <time>2026-08-28T17:51:08Z</time>
  <course>246.98</course>
  <speed>0.022360679774997897</speed>
  <fix>3d</fix>
</trkpt>
<trkpt lat="40.0713749" lon="-105.229789">
  <ele>1583.0</ele>
  <time>2026-08-28T17:51:08Z</time>
  <course>0.0</course>
  <speed>0.0</speed>
  <fix>3d</fix>
</trkpt>
<trkpt lat="40.071375" lon="-105.2297889">
  <ele>1583.03</ele>
  <time>2026-08-28T17:51:08Z</time>
  <course>246.98</course>
  <speed>0.022360679774997897</speed>
  <fix>3d</fix>
</trkpt>
<trkpt lat="40.0713749" lon="-105.229789">
  <ele>1583.0</ele>
  <time>2026-08-28T17:51:08Z</time>
  <course>0.0</course>
  <speed>0.0</speed>
  <fix>3d</fix>
</trkpt>
<trkpt lat="40.071375" lon="-105.2297889">
  <ele>1583.03</ele>
  <time>2026-08-28T17:51:08Z</time>
  <course>246.98</course>
  <speed>0.022360679774997897</speed>
  <fix>3d</fix>
</trkpt>
<trkpt lat="40.0713749" lon="-105.229789">
  <ele>1583.0</ele>
  <time>2026-08-28T17:51:08Z</time>
  <course>0.0</course>
  <speed>0.0</speed>
  <fix>3d</fix>
</trkpt>
<trkpt lat="40.071375" lon="-105.2297889">
  <ele>1583.03</ele>
  <time>2026-08-28T17:51:08Z</time>
  <course>246.98</course>
  <speed>0.022360679774997897</speed>
  <fix>3d</fix>
</trkpt>
<trkpt lat="40.0713749" lon="-105.229789">
  <ele>1583.0</ele>
  <time>2026-08-28T17:51:08Z</time>
  <course>0.0</course>
  <speed>0.0</speed>
  <fix>3d</fix>
</trkpt>
<trkpt lat="40.0713751" lon="-105.2297889">
  <ele>1583.02</ele>
  <time>2026-08-28T17:51:08Z</time>
  <course>246.98</course>
  <speed>0.022360679774997897</speed>
  <fix>3d</fix>
</trkpt>
<trkpt lat="40.0713749" lon="-105.229789">
  <ele>1583.0</ele>
  <time>2026-08-28T17:51:08Z</time>
  <course>0.0</course>
  <speed>0.0</speed>
  <fix>3d</fix>
</trkpt>
<trkpt lat="40.071375" lon="-105.2297889">
  <ele>1583.02</ele>
  <time>2026-08-28T17:51:08Z</time>
  <course>246.98</course>
  <speed>0.022360679774997897</speed>
  <fix>3d</fix>
</trkpt>
<trkpt lat="40.0713749" lon="-105.229789">
  <ele>1583.0</ele>
  <time>2026-08-28T17:51:08Z</time>
  <course>0.0</course>
  <speed>0.0</speed>
  <fix>3d</fix>
</trkpt>
<trkpt lat="40.0713751" lon="-105.2297889">
  <ele>1583.01</ele>
  <time>2026-08-28T17:51:08Z</time>
  <course>246.98</course>
  <speed>0.022360679774997897</speed>
  <fix>3d</fix>
</trkpt>
<trkpt lat="40.0713749" lon="-105.229789">
  <ele>1583.0</ele>
  <time>2026-08-28T17:51:08Z</time>
  <course>0.0</course>
  <speed>0.0</speed>
  <fix>3d</fix>
</trkpt>
<trkpt lat="40.071375" lon="-105.2297889">
  <ele>1583.0</ele>
  <time>2026-08-28T17:51:09Z</time>
  <course>246.98</course>
  <speed>0.022360679774997897</speed>
  <fix>3d</fix>
</trkpt>
<trkpt lat="40.0713749" lon="-105.229789">
  <ele>1583.0</ele>
  <time>2026-08-28T17:51:09Z</time>
  <course>0.0</course>
  <speed>0.0</speed>
  <fix>3d</fix>
</trkpt>
<trkpt lat="40.0713751" lon="-105.2297889">
  <ele>1582.99</ele>
  <time>2026-08-28T17:51:09Z</time>
  <course>246.98</course>
  <speed>0.022360679774997897</speed>
  <fix>3d</fix>
</trkpt>
<trkpt lat="40.0713749" lon="-105.229789">
  <ele>1583.0</ele>
  <time>2026-08-28T17:51:09Z</time>
  <course>0.0</course>
  <speed>0.0</speed>
  <fix>3d</fix>
</trkpt>
<trkpt lat="40.071375" lon="-105.2297889">
  <ele>1582.98</ele>
  <time>2026-08-28T17:51:09Z</time>
  <course>246.98</course>
  <speed>0.022360679774997897</speed>
  <fix>3d</fix>
</trkpt>
<trkpt lat="40.0713749" lon="-105.229789">
  <ele>1583.0</ele>
  <time>2026-08-28T17:51:09Z</time>
  <course>0.0</course>
  <speed>0.0</speed>
  <fix>3d</fix>
</trkpt>
<trkpt lat="40.0713751" lon="-105.2297889">
  <ele>1582.97</ele>
  <time>2026-08-28T17:51:09Z</time>
  <course>246.98</course>
  <speed>0.022360679774997897</speed>
  <fix>3d</fix>
</trkpt>
<trkpt lat="40.0713749" lon="-105.229789">
  <ele>1583.0</ele>
  <time>2026-08-28T17:51:09Z</time>
  <course>0.0</course>
  <speed>0.0</speed>
  <fix>3d</fix>
</trkpt>
<trkpt lat="40.071375" lon="-105.2297889">
  <ele>1582.96</ele>
  <time>2026-08-28T17:51:09Z</time>
  <course>246.98</course>
  <speed>0.022360679774997897</speed>
  <fix>3d</fix>
</trkpt>
<trkpt lat="40.0713749" lon="-105.229789">
  <ele>1583.0</ele>
  <time>2026-08-28T17:51:09Z</time>
  <course>0.0</course>
  <speed>0.0</speed>
  <fix>3d</fix>
</trkpt>
<trkpt lat="40.0713751" lon="-105.2297889">
  <ele>1582.96</ele>
  <time>2026-08-28T17:51:09Z</time>
  <course>246.98</course>
  <speed>0.022360679774997897</speed>
  <fix>3d</fix>
</trkpt>
<trkpt lat="40.0713749" lon="-105.229789">
  <ele>1583.0</ele>
  <time>2026-08-28T17:51:09Z</time>
  <course>0.0</course>
  <speed>0.0</speed>
  <fix>3d</fix>
</trkpt>
<trkpt lat="40.071375" lon="-105.2297889">
  <ele>1582.95</ele>
  <time>2026-08-28T17:51:09Z</time>
  <course>246.98</course>
  <speed>0.022360679774997897</speed>
  <fix>3d</fix>
</trkpt>
<trkpt lat="40.0713749" lon="-105.229789">
  <ele>1583.0</ele>
  <time>2026-08-28T17:51:09Z</time>
  <course>0.0</course>
  <speed>0.0</speed>
  <fix>3d</fix>
</trkpt>
<trkpt lat="40.0713751" lon="-105.2297889">
  <ele>1582.95</ele>
  <time>2026-08-28T17:51:09Z</time>
  <course>246.98</course>
  <speed>0.022360679774997897</speed>
  <fix>3d</fix>
</trkpt>
<trkpt lat="40.0713749" lon="-105.229789">
  <ele>1583.0</ele>
  <time>2026-08-28T17:51:09Z</time>
  <course>0.0</course>
  <speed>0.0</speed>
  <fix>3d</fix>
</trkpt>
<trkpt lat="40.071375" lon="-105.2297889">
  <ele>1582.96</ele>
  <time>2026-08-28T17:51:09Z</time>
  <course>246.98</course>
  <speed>0.022360679774997897</speed>
  <fix>3d</fix>
</trkpt>
<trkpt lat="40.0713749" lon="-105.229789">
  <ele>1583.0</ele>
  <time>2026-08-28T17:51:09Z</time>
  <course>0.0</course>
  <speed>0.0</speed>
  <fix>3d</fix>
</trkpt>
<trkpt lat="40.0713751" lon="-105.2297889">
  <ele>1582.96</ele>
  <time>2026-08-28T17:51:09Z</time>
  <course>246.98</course>
  <speed>0.022360679774997897</speed>
  <fix>3d</fix>
</trkpt>
<trkpt lat="40.0713749" lon="-105.229789">
  <ele>1583.0</ele>
  <time>2026-08-28T17:51:09Z</time>
  <course>0.0</course>
  <speed>0.0</speed>
  <fix>3d</fix>
</trkpt>
<trkpt lat="40.071375" lon="-105.2297889">
  <ele>1582.97</ele>
  <time>2026-08-28T17:51:09Z</time>
  <course>246.98</course>
  <speed>0.022360679774997897</speed>
  <fix>3d</fix>
</trkpt>
<trkpt lat="40.0713749" lon="-105.229789">
  <ele>1583.0</ele>
  <time>2026-08-28T17:51:09Z</time>
  <course>0.0</course>
  <speed>0.0</speed>
  <fix>3d</fix>
</trkpt>
<trkpt lat="40.071375" lon="-105.2297889">
  <ele>1582.98</ele>
  <time>2026-08-28T17:51:09Z</time>
  <course>246.98</course>
  <speed>0.022360679774997897</speed>
  <fix>3d</fix>
</trkpt>
<trkpt lat="40.0713749" lon="-105.229789">
  <ele>1583.0</ele>
  <time>2026-08-28T17:51:09Z</time>
  <course>0.0</course>
  <speed>0.0</speed>
  <fix>3d</fix>
</trkpt>
<trkpt lat="40.071375" lon="-105.2297889">
  <ele>1582.98</ele>
  <time>2026-08-28T17:51:09Z</time>
  <course>246.98</course>
  <speed>0.022360679774997897</speed>
  <fix>3d</fix>
</trkpt>
<trkpt lat="40.0713749" lon="-105.229789">
  <ele>1583.0</ele>
  <time>2026-08-28T17:51:09Z</time>
  <course>0.0</course>
  <speed>0.0</speed>
  <fix>3d</fix>
</trkpt>
<trkpt lat="40.071375" lon="-105.2297889">
  <ele>1582.99</ele>
  <time>2026-08-28T17:51:09Z</time>
  <course>246.98</course>
  <speed>0.022360679774997897</speed>
  <fix>3d</fix>
</trkpt>
<trkpt lat="40.0713749" lon="-105.229789">
  <ele>1583.0</ele>
  <time>2026-08-28T17:51:09Z</time>
  <course>0.0</course>
  <speed>0.0</speed>
  <fix>3d</fix>
</trkpt>
<trkpt lat="40.071375" lon="-105.2297889">
  <ele>1583.0</ele>
  <time>2026-08-28T17:51:09Z</time>
  <course>246.98</course>
  <speed>0.022360679774997897</speed>
  <fix>3d</fix>
</trkpt>
<trkpt lat="40.0713749" lon="-105.229789">
  <ele>1583.0</ele>
  <time>2026-08-28T17:51:09Z</time>
  <course>0.0</course>
  <speed>0.0</speed>
  <fix>3d</fix>
</trkpt>
<trkpt lat="40.071375" lon="-105.2297889">
  <ele>1583.01</ele>
  <time>2026-08-28T17:51:09Z</time>
  <course>246.98</course>
  <speed>0.022360679774997897</speed>
  <fix>3d</fix>
</trkpt>
<trkpt lat="40.0713749" lon="-105.229789">
  <ele>1583.0</ele>
  <time>2026-08-28T17:51:09Z</time>
  <course>0.0</course>
  <speed>0.0</speed>
  <fix>3d</fix>
</trkpt>
<trkpt lat="40.071375" lon="-105.2297889">
  <ele>1583.01</ele>
  <time>2026-08-28T17:51:09Z</time>
  <course>246.98</course>
  <speed>0.022360679774997897</speed>
  <fix>3d</fix>
</trkpt>
<trkpt lat="40.0713749" lon="-105.229789">
  <ele>1583.0</ele>
  <time>2026-08-28T17:51:09Z</time>
  <course>0.0</course>
  <speed>0.0</speed>
  <fix>3d</fix>
</trkpt>
<trkpt lat="40.071375" lon="-105.2297889">
  <ele>1583.01</ele>
  <time>2026-08-28T17:51:09Z</time>
  <course>246.98</course>
  <speed>0.022360679774997897</speed>
  <fix>3d</fix>
</trkpt>
<trkpt lat="40.0713749" lon="-105.229789">
  <ele>1583.0</ele>
  <time>2026-08-28T17:51:09Z</time>
  <course>0.0</course>
  <speed>0.0</speed>
  <fix>3d</fix>
</trkpt>
<trkpt lat="40.071375" lon="-105.2297889">
  <ele>1583.02</ele>
  <time>2026-08-28T17:51:09Z</time>
  <course>246.98</course>
  <speed>0.022360679774997897</speed>
  <fix>3d</fix>
</trkpt>
<trkpt lat="40.0713749" lon="-105.229789">
  <ele>1583.0</ele>
  <time>2026-08-28T17:51:09Z</time>
  <course>0.0</course>
  <speed>0.0</speed>
  <fix>3d</fix>
</trkpt>
<trkpt lat="40.071375" lon="-105.2297889">
  <ele>1583.02</ele>
  <time>2026-08-28T17:51:09Z</time>
  <course>246.98</course>
  <speed>0.022360679774997897</speed>
  <fix>3d</fix>
</trkpt>
<trkpt lat="40.0713749" lon="-105.229789">
  <ele>1583.0</ele>
  <time>2026-08-28T17:51:09Z</time>
  <course>0.0</course>
  <speed>0.0</speed>
  <fix>3d</fix>
</trkpt>
<trkpt lat="40.071375" lon="-105.2297889">
  <ele>1583.02</ele>
  <time>2026-08-28T17:51:09Z</time>
  <course>246.98</course>
  <speed>0.022360679774997897</speed>
  <fix>3d</fix>
</trkpt>
<trkpt lat="40.0713749" lon="-105.229789">
  <ele>1583.0</ele>
  <time>2026-08-28T17:51:09Z</time>
  <course>0.0</course>
  <speed>0.0</speed>
  <fix>3d</fix>
</trkpt>
<trkpt lat="40.071375" lon="-105.2297889">
  <ele>1583.02</ele>
  <time>2026-08-28T17:51:09Z</time>
  <course>246.98</course>
  <speed>0.022360679774997897</speed>
  <fix>3d</fix>
</trkpt>
<trkpt lat="40.0713749" lon="-105.229789">
  <ele>1583.0</ele>
  <time>2026-08-28T17:51:09Z</time>
  <course>0.0</course>
  <speed>0.0</speed>
  <fix>3d</fix>
</trkpt>
<trkpt lat="40.071375" lon="-105.2297889">
  <ele>1583.02</ele>
  <time>2026-08-28T17:51:09Z</time>
  <course>246.98</course>
  <speed>0.022360679774997897</speed>
  <fix>3d</fix>
</trkpt>
<trkpt lat="40.0713749" lon="-105.229789">
  <ele>1583.0</ele>
  <time>2026-08-28T17:51:09Z</time>
  <course>0.0</course>
  <speed>0.0</speed>
  <fix>3d</fix>
</trkpt>
<trkpt lat="40.0713751" lon="-105.2297889">
  <ele>1583.02</ele>
  <time>2026-08-28T17:51:09Z</time>
  <course>246.98</course>
  <speed>0.022360679774997897</speed>
  <fix>3d</fix>
</trkpt>
<trkpt lat="40.0713749" lon="-105.229789">
  <ele>1583.0</ele>
  <time>2026-08-28T17:51:09Z</time>
  <course>0.0</course>
  <speed>0.0</speed>
  <fix>3d</fix>
</trkpt>
<trkpt lat="40.071375" lon="-105.2297889">
  <ele>1583.02</ele>
  <time>2026-08-28T17:51:09Z</time>
  <course>246.98</course>
  <speed>0.022360679774997897</speed>
  <fix>3d</fix>
</trkpt>
<trkpt lat="40.0713749" lon="-105.229789">
  <ele>1583.0</ele>
  <time>2026-08-28T17:51:09Z</time>
  <course>0.0</course>
  <speed>0.0</speed>
  <fix>3d</fix>
</trkpt>
<trkpt lat="40.0713751" lon="-105.2297889">
  <ele>1583.01</ele>
  <time>2026-08-28T17:51:09Z</time>
  <course>246.98</course>
  <speed>0.022360679774997897</speed>
  <fix>3d</fix>
</trkpt>
<trkpt lat="40.0713749" lon="-105.229789">
  <ele>1583.0</ele>
  <time>2026-08-28T17:51:09Z</time>
  <course>0.0</course>
  <speed>0.0</speed>
  <fix>3d</fix>
</trkpt>
<trkpt lat="40.071375" lon="-105.2297889">
  <ele>1583.01</ele>
  <time>2026-08-28T17:51:09Z</time>
  <course>246.98</course>
  <speed>0.022360679774997897</speed>
  <fix>3d</fix>
</trkpt>
<trkpt lat="40.0713749" lon="-105.229789">
  <ele>1583.0</ele>
  <time>2026-08-28T17:51:09Z</time>
  <course>0.0</course>
  <speed>0.0</speed>
  <fix>3d</fix>
</trkpt>
<trkpt lat="40.0713751" lon="-105.2297889">
  <ele>1583.01</ele>
  <time>2026-08-28T17:51:09Z</time>
  <course>246.98</course>
  <speed>0.022360679774997897</speed>
  <fix>3d</fix>
</trkpt>
<trkpt lat="40.0713749" lon="-105.229789">
  <ele>1583.0</ele>
  <time>2026-08-28T17:51:09Z</time>
  <course>0.0</course>
  <speed>0.0</speed>
  <fix>3d</fix>
</trkpt>
<trkpt lat="40.071375" lon="-105.2297889">
  <ele>1583.02</ele>
  <time>2026-08-28T17:51:09Z</time>
  <course>246.98</course>
  <speed>0.022360679774997897</speed>
  <fix>3d</fix>
</trkpt>
<trkpt lat="40.0713749" lon="-105.229789">
  <ele>1583.0</ele>
  <time>2026-08-28T17:51:09Z</time>
  <course>0.0</course>
  <speed>0.0</speed>
  <fix>3d</fix>
</trkpt>
<trkpt lat="40.0713751" lon="-105.2297889">
  <ele>1583.02</ele>
  <time>2026-08-28T17:51:09Z</time>
  <course>246.98</course>
  <speed>0.022360679774997897</speed>
  <fix>3d</fix>
</trkpt>
<trkpt lat="40.0713749" lon="-105.229789">
  <ele>1583.0</ele>
  <time>2026-08-28T17:51:09Z</time>
  <course>0.0</course>
  <speed>0.0</speed>
  <fix>3d</fix>
</trkpt>
<trkpt lat="40.071375" lon="-105.2297889">
  <ele>1583.02</ele>
  <time>2026-08-28T17:51:09Z</time>
  <course>246.98</course>
  <speed>0.022360679774997897</speed>
  <fix>3d</fix>
</trkpt>
<trkpt lat="40.0713749" lon="-105.229789">
  <ele>1583.0</ele>
  <time>2026-08-28T17:51:09Z</time>
  <course>0.0</course>
  <speed>0.0</speed>
  <fix>3d</fix>
</trkpt>
<trkpt lat="40.0713751" lon="-105.2297889">
  <ele>1583.03</ele>
  <time>2026-08-28T17:51:09Z</time>
  <course>246.98</course>
  <speed>0.022360679774997897</speed>
  <fix>3d</fix>
</trkpt>
<trkpt lat="40.0713749" lon="-105.229789">
  <ele>1583.0</ele>
  <time>2026-08-28T17:51:09Z</time>
  <course>0.0</course>
  <speed>0.0</speed>
  <fix>3d</fix>
</trkpt>
<trkpt lat="40.071375" lon="-105.2297889">
  <ele>1583.03</ele>
  <time>2026-08-28T17:51:09Z</time>
  <course>246.98</course>
  <speed>0.022360679774997897</speed>
  <fix>3d</fix>
</trkpt>
<trkpt lat="40.0713749" lon="-105.229789">
  <ele>1583.0</ele>
  <time>2026-08-28T17:51:09Z</time>
  <course>0.0</course>
  <speed>0.0</speed>
  <fix>3d</fix>
</trkpt>
<trkpt lat="40.0713751" lon="-105.2297889">
  <ele>1583.03</ele>
  <time>2026-08-28T17:51:09Z</time>
  <course>246.98</course>
  <speed>0.022360679774997897</speed>
  <fix>3d</fix>
</trkpt>
<trkpt lat="40.0713749" lon="-105.229789">
  <ele>1583.0</ele>
  <time>2026-08-28T17:51:09Z</time>
  <course>0.0</course>
  <speed>0.0</speed>
  <fix>3d</fix>
</trkpt>
<trkpt lat="40.071375" lon="-105.2297889">
  <ele>1583.03</ele>
  <time>2026-08-28T17:51:09Z</time>
  <course>246.98</course>
  <speed>0.022360679774997897</speed>
  <fix>3d</fix>
</trkpt>
<trkpt lat="40.0713749" lon="-105.229789">
  <ele>1583.0</ele>
  <time>2026-08-28T17:51:09Z</time>
  <course>0.0</course>
  <speed>0.0</speed>
  <fix>3d</fix>
</trkpt>
<trkpt lat="40.0713751" lon="-105.2297889">
  <ele>1583.03</ele>
  <time>2026-08-28T17:51:09Z</time>
  <course>246.98</course>
  <speed>0.022360679774997897</speed>
  <fix>3d</fix>
</trkpt>
<trkpt lat="40.0713749" lon="-105.229789">
  <ele>1583.0</ele>
  <time>2026-08-28T17:51:09Z</time>
  <course>0.0</course>
  <speed>0.0</speed>
  <fix>3d</fix>
</trkpt>
<trkpt lat="40.071375" lon="-105.2297889">
  <ele>1583.03</ele>
  <time>2026-08-28T17:51:09Z</time>
  <course>246.98</course>
  <speed>0.022360679774997897</speed>
  <fix>3d</fix>
</trkpt>
<trkpt lat="40.0713749" lon="-105.229789">
  <ele>1583.0</ele>
  <time>2026-08-28T17:51:09Z</time>
  <course>0.0</course>
  <speed>0.0</speed>
  <fix>3d</fix>
</trkpt>
<trkpt lat="40.0713751" lon="-105.2297889">
  <ele>1583.02</ele>
  <time>2026-08-28T17:51:09Z</time>
  <course>246.98</course>
  <speed>0.022360679774997897</speed>
  <fix>3d</fix>
</trkpt>
<trkpt lat="40.0713749" lon="-105.229789">
  <ele>1583.0</ele>
  <time>2026-08-28T17:51:09Z</time>
  <course>0.0</course>
  <speed>0.0</speed>
  <fix>3d</fix>
</trkpt>
<trkpt lat="40.071375" lon="-105.2297889">
  <ele>1583.02</ele>
  <time>2026-08-28T17:51:09Z</time>
  <course>246.98</course>
  <speed>0.022360679774997897</speed>
  <fix>3d</fix>
</trkpt>
<trkpt lat="40.0713749" lon="-105.229789">
  <ele>1583.0</ele>
  <time>2026-08-28T17:51:09Z</time>
  <course>0.0</course>
  <speed>0.0</speed>
  <fix>3d</fix>
</trkpt>
<trkpt lat="40.0713751" lon="-105.2297889">
  <ele>1583.02</ele>
  <time>2026-08-28T17:51:09Z</time>
  <course>246.98</course>
  <speed>0.022360679774997897</speed>
  <fix>3d</fix>
</trkpt>
<trkpt lat="40.0713749" lon="-105.229789">
  <ele>1583.0</ele>
  <time>2026-08-28T17:51:09Z</time>
  <course>0.0</course>
  <speed>0.0</speed>
  <fix>3d</fix>
</trkpt>
<trkpt lat="40.071375" lon="-105.2297889">
  <ele>1583.02</ele>
  <time>2026-08-28T17:51:09Z</time>
  <course>246.98</course>
  <speed>0.022360679774997897</speed>
  <fix>3d</fix>
</trkpt>
<trkpt lat="40.0713749" lon="-105.229789">
  <ele>1583.0</ele>
  <time>2026-08-28T17:51:09Z</time>
  <course>0.0</course>
  <speed>0.0</speed>
  <fix>3d</fix>
</trkpt>
<trkpt lat="40.0713751" lon="-105.2297889">
  <ele>1583.02</ele>
  <time>2026-08-28T17:51:09Z</time>
  <course>246.98</course>
  <speed>0.022360679774997897</speed>
  <fix>3d</fix>
</trkpt>
<trkpt lat="40.0713749" lon="-105.229789">
  <ele>1583.0</ele>
  <time>2026-08-28T17:51:09Z</time>
  <course>0.0</course>
  <speed>0.0</speed>
  <fix>3d</fix>
</trkpt>
<trkpt lat="40.071375" lon="-105.2297889">
  <ele>1583.02</ele>
  <time>2026-08-28T17:51:09Z</time>
  <course>246.98</course>
  <speed>0.022360679774997897</speed>
  <fix>3d</fix>
</trkpt>
<trkpt lat="40.0713749" lon="-105.229789">
  <ele>1583.0</ele>
  <time>2026-08-28T17:51:09Z</time>
  <course>0.0</course>
  <speed>0.0</speed>
  <fix>3d</fix>
</trkpt>
<trkpt lat="40.0713751" lon="-105.2297889">
  <ele>1583.02</ele>
  <time>2026-08-28T17:51:09Z</time>
  <course>246.98</course>
  <speed>0.022360679774997897</speed>
  <fix>3d</fix>
</trkpt>
<trkpt lat="40.0713749" lon="-105.229789">
  <ele>1583.0</ele>
  <time>2026-08-28T17:51:09Z</time>
  <course>0.0</course>
  <speed>0.0</speed>
  <fix>3d</fix>
</trkpt>
<trkpt lat="40.0713751" lon="-105.2297889">
  <ele>1583.01</ele>
  <time>2026-08-28T17:51:09Z</time>
  <course>246.98</course>
  <speed>0.022360679774997897</speed>
  <fix>3d</fix>
</trkpt>
<trkpt lat="40.0713749" lon="-105.229789">
  <ele>1583.0</ele>
  <time>2026-08-28T17:51:09Z</time>
  <course>0.0</course>
  <speed>0.0</speed>
  <fix>3d</fix>
</trkpt>
<trkpt lat="40.0713751" lon="-105.2297889">
  <ele>1583.01</ele>
  <time>2026-08-28T17:51:09Z</time>
  <course>246.98</course>
  <speed>0.022360679774997897</speed>
  <fix>3d</fix>
</trkpt>
<trkpt lat="40.0713749" lon="-105.229789">
  <ele>1583.0</ele>
  <time>2026-08-28T17:51:09Z</time>
  <course>0.0</course>
  <speed>0.0</speed>
  <fix>3d</fix>
</trkpt>
<trkpt lat="40.0713751" lon="-105.2297889">
  <ele>1583.01</ele>
  <time>2026-08-28T17:51:09Z</time>
  <course>246.98</course>
  <speed>0.022360679774997897</speed>
  <fix>3d</fix>
</trkpt>
<trkpt lat="40.0713749" lon="-105.229789">
  <ele>1583.0</ele>
  <time>2026-08-28T17:51:09Z</time>
  <course>0.0</course>
  <speed>0.0</speed>
  <fix>3d</fix>
</trkpt>
<trkpt lat="40.0713751" lon="-105.2297889">
  <ele>1583.0</ele>
  <time>2026-08-28T17:51:09Z</time>
  <course>246.98</course>
  <speed>0.022360679774997897</speed>
  <fix>3d</fix>
</trkpt>
<trkpt lat="40.0713749" lon="-105.229789">
  <ele>1583.0</ele>
  <time>2026-08-28T17:51:09Z</time>
  <course>0.0</course>
  <speed>0.0</speed>
  <fix>3d</fix>
</trkpt>
<trkpt lat="40.0713751" lon="-105.2297889">
  <ele>1583.0</ele>
  <time>2026-08-28T17:51:09Z</time>
  <course>246.98</course>
  <speed>0.022360679774997897</speed>
  <fix>3d</fix>
</trkpt>
<trkpt lat="40.0713749" lon="-105.229789">
  <ele>1583.0</ele>
  <time>2026-08-28T17:51:09Z</time>
  <course>0.0</course>
  <speed>0.0</speed>
  <fix>3d</fix>
</trkpt>
<trkpt lat="40.0713751" lon="-105.2297889">
  <ele>1583.0</ele>
  <time>2026-08-28T17:51:09Z</time>
  <course>246.98</course>
  <speed>0.022360679774997897</speed>
  <fix>3d</fix>
</trkpt>
<trkpt lat="40.0713749" lon="-105.229789">
  <ele>1583.0</ele>
  <time>2026-08-28T17:51:09Z</time>
  <course>0.0</course>
  <speed>0.0</speed>
  <fix>3d</fix>
</trkpt>
<trkpt lat="40.0713751" lon="-105.2297889">
  <ele>1582.99</ele>
  <time>2026-08-28T17:51:09Z</time>
  <course>246.98</course>
  <speed>0.022360679774997897</speed>
  <fix>3d</fix>
</trkpt>
<trkpt lat="40.0713749" lon="-105.229789">
  <ele>1583.0</ele>
  <time>2026-08-28T17:51:09Z</time>
  <course>0.0</course>
  <speed>0.0</speed>
  <fix>3d</fix>
</trkpt>
<trkpt lat="40.0713751" lon="-105.2297889">
  <ele>1582.99</ele>
  <time>2026-08-28T17:51:09Z</time>
  <course>246.98</course>
  <speed>0.022360679774997897</speed>
  <fix>3d</fix>
</trkpt>
<trkpt lat="40.0713749" lon="-105.229789">
  <ele>1583.0</ele>
  <time>2026-08-28T17:51:09Z</time>
  <course>0.0</course>
  <speed>0.0</speed>
  <fix>3d</fix>
</trkpt>
<trkpt lat="40.071375" lon="-105.2297889">
  <ele>1582.98</ele>
  <time>2026-08-28T17:51:09Z</time>
  <course>246.98</course>
  <speed>0.022360679774997897</speed>
  <fix>3d</fix>
</trkpt>
<trkpt lat="40.0713749" lon="-105.229789">
  <ele>1583.0</ele>
  <time>2026-08-28T17:51:09Z</time>
  <course>0.0</course>
  <speed>0.0</speed>
  <fix>3d</fix>
</trkpt>
<trkpt lat="40.0713751" lon="-105.2297889">
  <ele>1582.97</ele>
  <time>2026-08-28T17:51:09Z</time>
  <course>246.98</course>
  <speed>0.022360679774997897</speed>
  <fix>3d</fix>
</trkpt>
<trkpt lat="40.0713749" lon="-105.229789">
  <ele>1583.0</ele>
  <time>2026-08-28T17:51:09Z</time>
  <course>0.0</course>
  <speed>0.0</speed>
  <fix>3d</fix>
</trkpt>
<trkpt lat="40.071375" lon="-105.2297889">
  <ele>1582.97</ele>
  <time>2026-08-28T17:51:09Z</time>
  <course>246.98</course>
  <speed>0.022360679774997897</speed>
  <fix>3d</fix>
</trkpt>
<trkpt lat="40.0713749" lon="-105.229789">
  <ele>1583.0</ele>
  <time>2026-08-28T17:51:09Z</time>
  <course>0.0</course>
  <speed>0.0</speed>
  <fix>3d</fix>
</trkpt>
<trkpt lat="40.0713751" lon="-105.2297889">
  <ele>1582.96</ele>
  <time>2026-08-28T17:51:09Z</time>
  <course>246.98</course>
  <speed>0.022360679774997897</speed>
  <fix>3d</fix>
</trkpt>
<trkpt lat="40.0713749" lon="-105.229789">
  <ele>1583.0</ele>
  <time>2026-08-28T17:51:09Z</time>
  <course>0.0</course>
  <speed>0.0</speed>
  <fix>3d</fix>
</trkpt>
<trkpt lat="40.071375" lon="-105.2297889">
  <ele>1582.96</ele>
  <time>2026-08-28T17:51:09Z</time>
  <course>246.98</course>
  <speed>0.022360679774997897</speed>
  <fix>3d</fix>
</trkpt>
<trkpt lat="40.0713749" lon="-105.229789">
  <ele>1583.0</ele>
  <time>2026-08-28T17:51:09Z</time>
  <course>0.0</course>
  <speed>0.0</speed>
  <fix>3d</fix>
</trkpt>
<trkpt lat="40.0713751" lon="-105.2297889">
  <ele>1582.96</ele>
  <time>2026-08-28T17:51:09Z</time>
  <course>246.98</course>
  <speed>0.022360679774997897</speed>
  <fix>3d</fix>
</trkpt>
<trkpt lat="40.0713749" lon="-105.229789">
  <ele>1583.0</ele>
  <time>2026-08-28T17:51:09Z</time>
  <course>0.0</course>
  <speed>0.0</speed>
  <fix>3d</fix>
</trkpt>
<trkpt lat="40.071375" lon="-105.2297889">
  <ele>1582.95</ele>
  <time>2026-08-28T17:51:09Z</time>
  <course>246.98</course>
  <speed>0.022360679774997897</speed>
  <fix>3d</fix>
</trkpt>
<trkpt lat="40.0713749" lon="-105.229789">
  <ele>1583.0</ele>
  <time>2026-08-28T17:51:09Z</time>
  <course>0.0</course>
  <speed>0.0</speed>
  <fix>3d</fix>
</trkpt>
<trkpt lat="40.0713751" lon="-105.2297889">
  <ele>1582.96</ele>
  <time>2026-08-28T17:51:09Z</time>
  <course>246.98</course>
  <speed>0.022360679774997897</speed>
  <fix>3d</fix>
</trkpt>
<trkpt lat="40.0713749" lon="-105.229789">
  <ele>1583.0</ele>
  <time>2026-08-28T17:51:09Z</time>
  <course>0.0</course>
  <speed>0.0</speed>
  <fix>3d</fix>
</trkpt>
<trkpt lat="40.071375" lon="-105.2297889">
  <ele>1582.96</ele>
  <time>2026-08-28T17:51:09Z</time>
  <course>246.98</course>
  <speed>0.022360679774997897</speed>
  <fix>3d</fix>
</trkpt>
<trkpt lat="40.0713749" lon="-105.229789">
  <ele>1583.0</ele>
  <time>2026-08-28T17:51:09Z</time>
  <course>0.0</course>
  <speed>0.0</speed>
  <fix>3d</fix>
</trkpt>
<trkpt lat="40.0713751" lon="-105.2297889">
  <ele>1582.96</ele>
  <time>2026-08-28T17:51:09Z</time>
  <course>246.98</course>
  <speed>0.022360679774997897</speed>
  <fix>3d</fix>
</trkpt>
<trkpt lat="40.0713749" lon="-105.229789">
  <ele>1583.0</ele>
  <time>2026-08-28T17:51:09Z</time>
  <course>0.0</course>
  <speed>0.0</speed>
  <fix>3d</fix>
</trkpt>
<trkpt lat="40.071375" lon="-105.2297889">
  <ele>1582.96</ele>
  <time>2026-08-28T17:51:09Z</time>
  <course>246.98</course>
  <speed>0.022360679774997897</speed>
  <fix>3d</fix>
</trkpt>
<trkpt lat="40.0713749" lon="-105.229789">
  <ele>1583.0</ele>
  <time>2026-08-28T17:51:09Z</time>
  <course>0.0</course>
  <speed>0.0</speed>
  <fix>3d</fix>
</trkpt>
<trkpt lat="40.0713751" lon="-105.2297889">
  <ele>1582.96</ele>
  <time>2026-08-28T17:51:09Z</time>
  <course>246.98</course>
  <speed>0.022360679774997897</speed>
  <fix>3d</fix>
</trkpt>
<trkpt lat="40.0713749" lon="-105.229789">
  <ele>1583.0</ele>
  <time>2026-08-28T17:51:09Z</time>
  <course>0.0</course>
  <speed>0.0</speed>
  <fix>3d</fix>
</trkpt>
<trkpt lat="40.071375" lon="-105.2297889">
  <ele>1582.96</ele>
  <time>2026-08-28T17:51:09Z</time>
  <course>246.98</course>
  <speed>0.022360679774997897</speed>
  <fix>3d</fix>
</trkpt>
<trkpt lat="40.0713749" lon="-105.229789">
  <ele>1583.0</ele>
  <time>2026-08-28T17:51:09Z</time>
  <course>0.0</course>
  <speed>0.0</speed>
  <fix>3d</fix>
</trkpt>
<trkpt lat="40.0713751" lon="-105.2297889">
  <ele>1582.96</ele>
  <time>2026-08-28T17:51:09Z</time>
  <course>246.98</course>
  <speed>0.022360679774997897</speed>
  <fix>3d</fix>
</trkpt>
<trkpt lat="40.0713749" lon="-105.229789">
  <ele>1583.0</ele>
  <time>2026-08-28T17:51:09Z</time>
  <course>0.0</course>
  <speed>0.0</speed>
  <fix>3d</fix>
</trkpt>
<trkpt lat="40.0713751" lon="-105.2297889">
  <ele>1582.96</ele>
  <time>2026-08-28T17:51:09Z</time>
  <course>246.98</course>
  <speed>0.022360679774997897</speed>
  <fix>3d</fix>
</trkpt>
<trkpt lat="40.0713749" lon="-105.229789">
  <ele>1583.0</ele>
  <time>2026-08-28T17:51:09Z</time>
  <course>0.0</course>
  <speed>0.0</speed>
  <fix>3d</fix>
</trkpt>
<trkpt lat="40.0713751" lon="-105.2297889">
  <ele>1582.96</ele>
  <time>2026-08-28T17:51:09Z</time>
  <course>246.98</course>
  <speed>0.022360679774997897</speed>
  <fix>3d</fix>
</trkpt>
<trkpt lat="40.0713749" lon="-105.229789">
  <ele>1583.0</ele>
  <time>2026-08-28T17:51:09Z</time>
  <course>0.0</course>
  <speed>0.0</speed>
  <fix>3d</fix>
</trkpt>
<trkpt lat="40.0713751" lon="-105.2297889">
  <ele>1582.95</ele>
  <time>2026-08-28T17:51:09Z</time>
  <course>246.98</course>
  <speed>0.022360679774997897</speed>
  <fix>3d</fix>
</trkpt>
<trkpt lat="40.0713749" lon="-105.229789">
  <ele>1583.0</ele>
  <time>2026-08-28T17:51:09Z</time>
  <course>0.0</course>
  <speed>0.0</speed>
  <fix>3d</fix>
</trkpt>
<trkpt lat="40.0713751" lon="-105.2297889">
  <ele>1582.95</ele>
  <time>2026-08-28T17:51:09Z</time>
  <course>246.98</course>
  <speed>0.022360679774997897</speed>
  <fix>3d</fix>
</trkpt>
<trkpt lat="40.0713749" lon="-105.229789">
  <ele>1583.0</ele>
  <time>2026-08-28T17:51:09Z</time>
  <course>0.0</course>
  <speed>0.0</speed>
  <fix>3d</fix>
</trkpt>
<trkpt lat="40.0713751" lon="-105.2297889">
  <ele>1582.95</ele>
  <time>2026-08-28T17:51:09Z</time>
  <course>246.98</course>
  <speed>0.022360679774997897</speed>
  <fix>3d</fix>
</trkpt>
<trkpt lat="40.0713749" lon="-105.229789">
  <ele>1583.0</ele>
  <time>2026-08-28T17:51:09Z</time>
  <course>0.0</course>
  <speed>0.0</speed>
  <fix>3d</fix>
</trkpt>
<trkpt lat="40.0713751" lon="-105.2297889">
  <ele>1582.95</ele>
  <time>2026-08-28T17:51:09Z</time>
  <course>246.98</course>
  <speed>0.022360679774997897</speed>
  <fix>3d</fix>
</trkpt>
<trkpt lat="40.0713749" lon="-105.229789">
  <ele>1583.0</ele>
  <time>2026-08-28T17:51:09Z</time>
  <course>0.0</course>
  <speed>0.0</speed>
  <fix>3d</fix>
</trkpt>
<trkpt lat="40.0713751" lon="-105.2297889">
  <ele>1582.95</ele>
  <time>2026-08-28T17:51:09Z</time>
  <course>246.98</course>
  <speed>0.022360679774997897</speed>
  <fix>3d</fix>
</trkpt>
<trkpt lat="40.0713749" lon="-105.229789">
  <ele>1583.0</ele>
  <time>2026-08-28T17:51:09Z</time>
  <course>0.0</course>
  <speed>0.0</speed>
  <fix>3d</fix>
</trkpt>
<trkpt lat="40.0713751" lon="-105.2297889">
  <ele>1582.95</ele>
  <time>2026-08-28T17:51:09Z</time>
  <course>246.98</course>
  <speed>0.022360679774997897</speed>
  <fix>3d</fix>
</trkpt>
<trkpt lat="40.0713749" lon="-105.229789">
  <ele>1583.0</ele>
  <time>2026-08-28T17:51:09Z</time>
  <course>0.0</course>
  <speed>0.0</speed>
  <fix>3d</fix>
</trkpt>
<trkpt lat="40.0713751" lon="-105.2297889">
  <ele>1582.95</ele>
  <time>2026-08-28T17:51:09Z</time>
  <course>246.98</course>
  <speed>0.022360679774997897</speed>
  <fix>3d</fix>
</trkpt>
<trkpt lat="40.0713749" lon="-105.229789">
  <ele>1583.0</ele>
  <time>2026-08-28T17:51:09Z</time>
  <course>0.0</course>
  <speed>0.0</speed>
  <fix>3d</fix>
</trkpt>
<trkpt lat="40.0713751" lon="-105.2297889">
  <ele>1582.95</ele>
  <time>2026-08-28T17:51:09Z</time>
  <course>246.98</course>
  <speed>0.022360679774997897</speed>
  <fix>3d</fix>
</trkpt>
<trkpt lat="40.0713749" lon="-105.229789">
  <ele>1583.0</ele>
  <time>2026-08-28T17:51:09Z</time>
  <course>0.0</course>
  <speed>0.0</speed>
  <fix>3d</fix>
</trkpt>
<trkpt lat="40.071375" lon="-105.2297889">
  <ele>1582.95</ele>
  <time>2026-08-28T17:51:09Z</time>
  <course>246.98</course>
  <speed>0.022360679774997897</speed>
  <fix>3d</fix>
</trkpt>
<trkpt lat="40.0713749" lon="-105.229789">
  <ele>1583.0</ele>
  <time>2026-08-28T17:51:09Z</time>
  <course>0.0</course>
  <speed>0.0</speed>
  <fix>3d</fix>
</trkpt>
<trkpt lat="40.0713751" lon="-105.2297889">
  <ele>1582.95</ele>
  <time>2026-08-28T17:51:09Z</time>
  <course>246.97</course>
  <speed>0.022360679774997897</speed>
  <fix>3d</fix>
</trkpt>
<trkpt lat="40.0713749" lon="-105.229789">
  <ele>1583.0</ele>
  <time>2026-08-28T17:51:09Z</time>
  <course>0.0</course>
  <speed>0.0</speed>
  <fix>3d</fix>
</trkpt>
<trkpt lat="40.071375" lon="-105.2297889">
  <ele>1582.95</ele>
  <time>2026-08-28T17:51:09Z</time>
  <course>246.97</course>
  <speed>0.022360679774997897</speed>
  <fix>3d</fix>
</trkpt>
<trkpt lat="40.0713749" lon="-105.229789">
  <ele>1583.0</ele>
  <time>2026-08-28T17:51:09Z</time>
  <course>0.0</course>
  <speed>0.0</speed>
  <fix>3d</fix>
</trkpt>
<trkpt lat="40.0713751" lon="-105.2297889">
  <ele>1582.95</ele>
  <time>2026-08-28T17:51:09Z</time>
  <course>246.97</course>
  <speed>0.022360679774997897</speed>
  <fix>3d</fix>
</trkpt>
<trkpt lat="40.0713749" lon="-105.229789">
  <ele>1583.0</ele>
  <time>2026-08-28T17:51:09Z</time>
  <course>0.0</course>
  <speed>0.0</speed>
  <fix>3d</fix>
</trkpt>
<trkpt lat="40.071375" lon="-105.2297889">
  <ele>1582.95</ele>
  <time>2026-08-28T17:51:09Z</time>
  <course>246.97</course>
  <speed>0.022360679774997897</speed>
  <fix>3d</fix>
</trkpt>
<trkpt lat="40.0713749" lon="-105.229789">
  <ele>1583.0</ele>
  <time>2026-08-28T17:51:09Z</time>
  <course>0.0</course>
  <speed>0.0</speed>
  <fix>3d</fix>
</trkpt>
<trkpt lat="40.0713751" lon="-105.2297889">
  <ele>1582.95</ele>
  <time>2026-08-28T17:51:09Z</time>
  <course>246.97</course>
  <speed>0.022360679774997897</speed>
  <fix>3d</fix>
</trkpt>
<trkpt lat="40.0713749" lon="-105.229789">
  <ele>1583.0</ele>
  <time>2026-08-28T17:51:09Z</time>
  <course>0.0</course>
  <speed>0.0</speed>
  <fix>3d</fix>
</trkpt>
<trkpt lat="40.071375" lon="-105.2297889">
  <ele>1582.95</ele>
  <time>2026-08-28T17:51:09Z</time>
  <course>246.97</course>
  <speed>0.022360679774997897</speed>
  <fix>3d</fix>
</trkpt>
<trkpt lat="40.0713749" lon="-105.229789">
  <ele>1583.0</ele>
  <time>2026-08-28T17:51:09Z</time>
  <course>0.0</course>
  <speed>0.0</speed>
  <fix>3d</fix>
</trkpt>
<trkpt lat="40.0713751" lon="-105.2297889">
  <ele>1582.94</ele>
  <time>2026-08-28T17:51:09Z</time>
  <course>246.97</course>
  <speed>0.022360679774997897</speed>
  <fix>3d</fix>
</trkpt>
<trkpt lat="40.0713749" lon="-105.229789">
  <ele>1583.0</ele>
  <time>2026-08-28T17:51:09Z</time>
  <course>0.0</course>
  <speed>0.0</speed>
  <fix>3d</fix>
</trkpt>
<trkpt lat="40.071375" lon="-105.2297889">
  <ele>1582.94</ele>
  <time>2026-08-28T17:51:09Z</time>
  <course>246.97</course>
  <speed>0.022360679774997897</speed>
  <fix>3d</fix>
</trkpt>
<trkpt lat="40.0713749" lon="-105.229789">
  <ele>1583.0</ele>
  <time>2026-08-28T17:51:09Z</time>
  <course>0.0</course>
  <speed>0.0</speed>
  <fix>3d</fix>
</trkpt>
<trkpt lat="40.0713751" lon="-105.2297889">
  <ele>1582.94</ele>
  <time>2026-08-28T17:51:10Z</time>
  <course>246.97</course>
  <speed>0.022360679774997897</speed>
  <fix>3d</fix>
</trkpt>
<trkpt lat="40.0713749" lon="-105.229789">
  <ele>1583.0</ele>
  <time>2026-08-28T17:51:10Z</time>
  <course>0.0</course>
  <speed>0.0</speed>
  <fix>3d</fix>
</trkpt>
<trkpt lat="40.0713751" lon="-105.2297889">
  <ele>1582.94</ele>
  <time>2026-08-28T17:51:10Z</time>
  <course>246.97</course>
  <speed>0.022360679774997897</speed>
  <fix>3d</fix>
</trkpt>
<trkpt lat="40.0713749" lon="-105.229789">
  <ele>1583.0</ele>
  <time>2026-08-28T17:51:10Z</time>
  <course>0.0</course>
  <speed>0.0</speed>
  <fix>3d</fix>
</trkpt>
<trkpt lat="40.0713751" lon="-105.2297889">
  <ele>1582.94</ele>
  <time>2026-08-28T17:51:10Z</time>
  <course>246.97</course>
  <speed>0.022360679774997897</speed>
  <fix>3d</fix>
</trkpt>
<trkpt lat="40.0713749" lon="-105.229789">
  <ele>1583.0</ele>
  <time>2026-08-28T17:51:10Z</time>
  <course>0.0</course>
  <speed>0.0</speed>
  <fix>3d</fix>
</trkpt>
<trkpt lat="40.0713751" lon="-105.2297889">
  <ele>1582.94</ele>
  <time>2026-08-28T17:51:10Z</time>
  <course>246.97</course>
  <speed>0.022360679774997897</speed>
  <fix>3d</fix>
</trkpt>
<trkpt lat="40.0713749" lon="-105.229789">
  <ele>1583.0</ele>
  <time>2026-08-28T17:51:10Z</time>
  <course>0.0</course>
  <speed>0.0</speed>
  <fix>3d</fix>
</trkpt>
<trkpt lat="40.0713751" lon="-105.2297889">
  <ele>1582.94</ele>
  <time>2026-08-28T17:51:10Z</time>
  <course>246.97</course>
  <speed>0.022360679774997897</speed>
  <fix>3d</fix>
</trkpt>
<trkpt lat="40.0713749" lon="-105.229789">
  <ele>1583.0</ele>
  <time>2026-08-28T17:51:10Z</time>
  <course>0.0</course>
  <speed>0.0</speed>
  <fix>3d</fix>
</trkpt>
<trkpt lat="40.0713751" lon="-105.2297889">
  <ele>1582.95</ele>
  <time>2026-08-28T17:51:10Z</time>
  <course>246.97</course>
  <speed>0.022360679774997897</speed>
  <fix>3d</fix>
</trkpt>
<trkpt lat="40.0713749" lon="-105.229789">
  <ele>1583.0</ele>
  <time>2026-08-28T17:51:10Z</time>
  <course>0.0</course>
  <speed>0.0</speed>
  <fix>3d</fix>
</trkpt>
<trkpt lat="40.0713751" lon="-105.2297889">
  <ele>1582.95</ele>
  <time>2026-08-28T17:51:10Z</time>
  <course>246.97</course>
  <speed>0.022360679774997897</speed>
  <fix>3d</fix>
</trkpt>
<trkpt lat="40.0713749" lon="-105.229789">
  <ele>1583.0</ele>
  <time>2026-08-28T17:51:10Z</time>
  <course>0.0</course>
  <speed>0.0</speed>
  <fix>3d</fix>
</trkpt>
<trkpt lat="40.0713751" lon="-105.2297889">
  <ele>1582.95</ele>
  <time>2026-08-28T17:51:10Z</time>
  <course>246.97</course>
  <speed>0.022360679774997897</speed>
  <fix>3d</fix>
</trkpt>
<trkpt lat="40.0713749" lon="-105.229789">
  <ele>1583.0</ele>
  <time>2026-08-28T17:51:10Z</time>
  <course>0.0</course>
  <speed>0.0</speed>
  <fix>3d</fix>
</trkpt>
<trkpt lat="40.0713751" lon="-105.2297889">
  <ele>1582.96</ele>
  <time>2026-08-28T17:51:10Z</time>
  <course>246.97</course>
  <speed>0.022360679774997897</speed>
  <fix>3d</fix>
</trkpt>
<trkpt lat="40.0713749" lon="-105.229789">
  <ele>1583.0</ele>
  <time>2026-08-28T17:51:10Z</time>
  <course>0.0</course>
  <speed>0.0</speed>
  <fix>3d</fix>
</trkpt>
<trkpt lat="40.071375" lon="-105.2297889">
  <ele>1582.97</ele>
  <time>2026-08-28T17:51:10Z</time>
  <course>246.97</course>
  <speed>0.02</speed>
  <fix>3d</fix>
</trkpt>
<trkpt lat="40.0713749" lon="-105.229789">
  <ele>1583.0</ele>
  <time>2026-08-28T17:51:10Z</time>
  <course>0.0</course>
  <speed>0.0</speed>
  <fix>3d</fix>
</trkpt>
<trkpt lat="40.071375" lon="-105.2297889">
  <ele>1582.97</ele>
  <time>2026-08-28T17:51:10Z</time>
  <course>246.97</course>
  <speed>0.022360679774997897</speed>
  <fix>3d</fix>
</trkpt>
<trkpt lat="40.0713749" lon="-105.229789">
  <ele>1583.0</ele>
  <time>2026-08-28T17:51:10Z</time>
  <course>0.0</course>
  <speed>0.0</speed>
  <fix>3d</fix>
</trkpt>
<trkpt lat="40.071375" lon="-105.2297889">
  <ele>1582.97</ele>
  <time>2026-08-28T17:51:10Z</time>
  <course>246.97</course>
  <speed>0.02</speed>
  <fix>3d</fix>
</trkpt>
<trkpt lat="40.0713749" lon="-105.229789">
  <ele>1583.0</ele>
  <time>2026-08-28T17:51:10Z</time>
  <course>0.0</course>
  <speed>0.0</speed>
  <fix>3d</fix>
</trkpt>
<trkpt lat="40.071375" lon="-105.2297889">
  <ele>1582.97</ele>
  <time>2026-08-28T17:51:10Z</time>
  <course>246.97</course>
  <speed>0.02</speed>
  <fix>3d</fix>
</trkpt>
<trkpt lat="40.0713749" lon="-105.229789">
  <ele>1583.0</ele>
  <time>2026-08-28T17:51:10Z</time>
  <course>0.0</course>
  <speed>0.0</speed>
  <fix>3d</fix>
</trkpt>
<trkpt lat="40.071375" lon="-105.2297889">
  <ele>1582.97</ele>
  <time>2026-08-28T17:51:10Z</time>
  <course>246.97</course>
  <speed>0.02</speed>
  <fix>3d</fix>
</trkpt>
<trkpt lat="40.0713749" lon="-105.229789">
  <ele>1583.0</ele>
  <time>2026-08-28T17:51:10Z</time>
  <course>0.0</course>
  <speed>0.0</speed>
  <fix>3d</fix>
</trkpt>
<trkpt lat="40.071375" lon="-105.2297889">
  <ele>1582.97</ele>
  <time>2026-08-28T17:51:10Z</time>
  <course>246.97</course>
  <speed>0.02</speed>
  <fix>3d</fix>
</trkpt>
<trkpt lat="40.0713749" lon="-105.229789">
  <ele>1583.0</ele>
  <time>2026-08-28T17:51:10Z</time>
  <course>0.0</course>
  <speed>0.0</speed>
  <fix>3d</fix>
</trkpt>
<trkpt lat="40.071375" lon="-105.2297889">
  <ele>1582.96</ele>
  <time>2026-08-28T17:51:10Z</time>
  <course>246.97</course>
  <speed>0.02</speed>
  <fix>3d</fix>
</trkpt>
<trkpt lat="40.0713749" lon="-105.229789">
  <ele>1583.0</ele>
  <time>2026-08-28T17:51:10Z</time>
  <course>0.0</course>
  <speed>0.0</speed>
  <fix>3d</fix>
</trkpt>
<trkpt lat="40.071375" lon="-105.2297889">
  <ele>1582.96</ele>
  <time>2026-08-28T17:51:10Z</time>
  <course>246.97</course>
  <speed>0.02</speed>
  <fix>3d</fix>
</trkpt>
<trkpt lat="40.0713749" lon="-105.229789">
  <ele>1583.0</ele>
  <time>2026-08-28T17:51:10Z</time>
  <course>0.0</course>
  <speed>0.0</speed>
  <fix>3d</fix>
</trkpt>
<trkpt lat="40.071375" lon="-105.2297889">
  <ele>1582.96</ele>
  <time>2026-08-28T17:51:10Z</time>
  <course>246.97</course>
  <speed>0.02</speed>
  <fix>3d</fix>
</trkpt>
<trkpt lat="40.0713749" lon="-105.229789">
  <ele>1583.0</ele>
  <time>2026-08-28T17:51:10Z</time>
  <course>0.0</course>
  <speed>0.0</speed>
  <fix>3d</fix>
</trkpt>
<trkpt lat="40.071375" lon="-105.2297889">
  <ele>1582.95</ele>
  <time>2026-08-28T17:51:10Z</time>
  <course>246.97</course>
  <speed>0.02</speed>
  <fix>3d</fix>
</trkpt>
<trkpt lat="40.0713749" lon="-105.229789">
  <ele>1583.0</ele>
  <time>2026-08-28T17:51:10Z</time>
  <course>0.0</course>
  <speed>0.0</speed>
  <fix>3d</fix>
</trkpt>
<trkpt lat="40.071375" lon="-105.2297889">
  <ele>1582.94</ele>
  <time>2026-08-28T17:51:10Z</time>
  <course>246.97</course>
  <speed>0.02</speed>
  <fix>3d</fix>
</trkpt>
<trkpt lat="40.0713749" lon="-105.229789">
  <ele>1583.0</ele>
  <time>2026-08-28T17:51:10Z</time>
  <course>0.0</course>
  <speed>0.0</speed>
  <fix>3d</fix>
</trkpt>
<trkpt lat="40.071375" lon="-105.2297889">
  <ele>1582.94</ele>
  <time>2026-08-28T17:51:10Z</time>
  <course>246.96</course>
  <speed>0.02</speed>
  <fix>3d</fix>
</trkpt>
<trkpt lat="40.0713749" lon="-105.229789">
  <ele>1583.0</ele>
  <time>2026-08-28T17:51:10Z</time>
  <course>0.0</course>
  <speed>0.0</speed>
  <fix>3d</fix>
</trkpt>
<trkpt lat="40.071375" lon="-105.2297889">
  <ele>1582.94</ele>
  <time>2026-08-28T17:51:10Z</time>
  <course>246.96</course>
  <speed>0.02</speed>
  <fix>3d</fix>
</trkpt>
<trkpt lat="40.0713749" lon="-105.229789">
  <ele>1583.0</ele>
  <time>2026-08-28T17:51:10Z</time>
  <course>0.0</course>
  <speed>0.0</speed>
  <fix>3d</fix>
</trkpt>
<trkpt lat="40.071375" lon="-105.2297889">
  <ele>1582.94</ele>
  <time>2026-08-28T17:51:10Z</time>
  <course>246.96</course>
  <speed>0.02</speed>
  <fix>3d</fix>
</trkpt>
<trkpt lat="40.0713749" lon="-105.229789">
  <ele>1583.0</ele>
  <time>2026-08-28T17:51:10Z</time>
  <course>0.0</course>
  <speed>0.0</speed>
  <fix>3d</fix>
</trkpt>
<trkpt lat="40.071375" lon="-105.2297889">
  <ele>1582.95</ele>
  <time>2026-08-28T17:51:10Z</time>
  <course>246.96</course>
  <speed>0.02</speed>
  <fix>3d</fix>
</trkpt>
<trkpt lat="40.0713749" lon="-105.229789">
  <ele>1583.0</ele>
  <time>2026-08-28T17:51:10Z</time>
  <course>0.0</course>
  <speed>0.0</speed>
  <fix>3d</fix>
</trkpt>
<trkpt lat="40.071375" lon="-105.2297889">
  <ele>1582.96</ele>
  <time>2026-08-28T17:51:10Z</time>
  <course>246.96</course>
  <speed>0.02</speed>
  <fix>3d</fix>
</trkpt>
<trkpt lat="40.0713749" lon="-105.229789">
  <ele>1583.0</ele>
  <time>2026-08-28T17:51:10Z</time>
  <course>0.0</course>
  <speed>0.0</speed>
  <fix>3d</fix>
</trkpt>
<trkpt lat="40.071375" lon="-105.2297889">
  <ele>1582.97</ele>
  <time>2026-08-28T17:51:10Z</time>
  <course>246.96</course>
  <speed>0.02</speed>
  <fix>3d</fix>
</trkpt>
<trkpt lat="40.0713749" lon="-105.229789">
  <ele>1583.0</ele>
  <time>2026-08-28T17:51:10Z</time>
  <course>0.0</course>
  <speed>0.0</speed>
  <fix>3d</fix>
</trkpt>
<trkpt lat="40.071375" lon="-105.2297889">
  <ele>1582.98</ele>
  <time>2026-08-28T17:51:10Z</time>
  <course>246.96</course>
  <speed>0.02</speed>
  <fix>3d</fix>
</trkpt>
<trkpt lat="40.0713749" lon="-105.229789">
  <ele>1583.0</ele>
  <time>2026-08-28T17:51:10Z</time>
  <course>0.0</course>
  <speed>0.0</speed>
  <fix>3d</fix>
</trkpt>
<trkpt lat="40.071375" lon="-105.2297889">
  <ele>1582.99</ele>
  <time>2026-08-28T17:51:10Z</time>
  <course>246.96</course>
  <speed>0.02</speed>
  <fix>3d</fix>
</trkpt>
<trkpt lat="40.0713749" lon="-105.229789">
  <ele>1583.0</ele>
  <time>2026-08-28T17:51:10Z</time>
  <course>0.0</course>
  <speed>0.0</speed>
  <fix>3d</fix>
</trkpt>
<trkpt lat="40.071375" lon="-105.2297889">
  <ele>1583.0</ele>
  <time>2026-08-28T17:51:10Z</time>
  <course>246.96</course>
  <speed>0.02</speed>
  <fix>3d</fix>
</trkpt>
<trkpt lat="40.0713749" lon="-105.229789">
  <ele>1583.0</ele>
  <time>2026-08-28T17:51:10Z</time>
  <course>0.0</course>
  <speed>0.0</speed>
  <fix>3d</fix>
</trkpt>
<trkpt lat="40.071375" lon="-105.2297889">
  <ele>1583.01</ele>
  <time>2026-08-28T17:51:10Z</time>
  <course>246.96</course>
  <speed>0.02</speed>
  <fix>3d</fix>
</trkpt>
<trkpt lat="40.0713749" lon="-105.229789">
  <ele>1583.0</ele>
  <time>2026-08-28T17:51:10Z</time>
  <course>0.0</course>
  <speed>0.0</speed>
  <fix>3d</fix>
</trkpt>
<trkpt lat="40.071375" lon="-105.2297889">
  <ele>1583.02</ele>
  <time>2026-08-28T17:51:10Z</time>
  <course>246.96</course>
  <speed>0.02</speed>
  <fix>3d</fix>
</trkpt>
<trkpt lat="40.0713749" lon="-105.229789">
  <ele>1583.0</ele>
  <time>2026-08-28T17:51:10Z</time>
  <course>0.0</course>
  <speed>0.0</speed>
  <fix>3d</fix>
</trkpt>
<trkpt lat="40.071375" lon="-105.2297889">
  <ele>1583.02</ele>
  <time>2026-08-28T17:51:10Z</time>
  <course>246.96</course>
  <speed>0.02</speed>
  <fix>3d</fix>
</trkpt>
<trkpt lat="40.0713749" lon="-105.229789">
  <ele>1583.0</ele>
  <time>2026-08-28T17:51:10Z</time>
  <course>0.0</course>
  <speed>0.0</speed>
  <fix>3d</fix>
</trkpt>
<trkpt lat="40.071375" lon="-105.2297889">
  <ele>1583.02</ele>
  <time>2026-08-28T17:51:10Z</time>
  <course>246.96</course>
  <speed>0.02</speed>
  <fix>3d</fix>
</trkpt>
<trkpt lat="40.0713749" lon="-105.229789">
  <ele>1583.0</ele>
  <time>2026-08-28T17:51:10Z</time>
  <course>0.0</course>
  <speed>0.0</speed>
  <fix>3d</fix>
</trkpt>
<trkpt lat="40.071375" lon="-105.2297889">
  <ele>1583.02</ele>
  <time>2026-08-28T17:51:10Z</time>
  <course>246.96</course>
  <speed>0.02</speed>
  <fix>3d</fix>
</trkpt>
<trkpt lat="40.0713749" lon="-105.229789">
  <ele>1583.0</ele>
  <time>2026-08-28T17:51:10Z</time>
  <course>0.0</course>
  <speed>0.0</speed>
  <fix>3d</fix>
</trkpt>
<trkpt lat="40.071375" lon="-105.2297889">
  <ele>1583.02</ele>
  <time>2026-08-28T17:51:10Z</time>
  <course>246.95</course>
  <speed>0.02</speed>
  <fix>3d</fix>
</trkpt>
<trkpt lat="40.0713749" lon="-105.229789">
  <ele>1583.0</ele>
  <time>2026-08-28T17:51:10Z</time>
  <course>0.0</course>
  <speed>0.0</speed>
  <fix>3d</fix>
</trkpt>
<trkpt lat="40.071375" lon="-105.2297889">
  <ele>1583.02</ele>
  <time>2026-08-28T17:51:10Z</time>
  <course>246.95</course>
  <speed>0.02</speed>
  <fix>3d</fix>
</trkpt>
<trkpt lat="40.0713749" lon="-105.229789">
  <ele>1583.0</ele>
  <time>2026-08-28T17:51:10Z</time>
  <course>0.0</course>
  <speed>0.0</speed>
  <fix>3d</fix>
</trkpt>
<trkpt lat="40.071375" lon="-105.2297889">
  <ele>1583.02</ele>
  <time>2026-08-28T17:51:10Z</time>
  <course>246.95</course>
  <speed>0.02</speed>
  <fix>3d</fix>
</trkpt>
<trkpt lat="40.0713749" lon="-105.229789">
  <ele>1583.0</ele>
  <time>2026-08-28T17:51:10Z</time>
  <course>0.0</course>
  <speed>0.0</speed>
  <fix>3d</fix>
</trkpt>
<trkpt lat="40.071375" lon="-105.2297889">
  <ele>1583.02</ele>
  <time>2026-08-28T17:51:10Z</time>
  <course>246.95</course>
  <speed>0.01</speed>
  <fix>3d</fix>
</trkpt>
<trkpt lat="40.0713749" lon="-105.229789">
  <ele>1583.0</ele>
  <time>2026-08-28T17:51:10Z</time>
  <course>0.0</course>
  <speed>0.0</speed>
  <fix>3d</fix>
</trkpt>
<trkpt lat="40.071375" lon="-105.2297889">
  <ele>1583.02</ele>
  <time>2026-08-28T17:51:10Z</time>
  <course>246.95</course>
  <speed>0.01</speed>
  <fix>3d</fix>
</trkpt>
<trkpt lat="40.0713749" lon="-105.229789">
  <ele>1583.0</ele>
  <time>2026-08-28T17:51:10Z</time>
  <course>0.0</course>
  <speed>0.0</speed>
  <fix>3d</fix>
</trkpt>
<trkpt lat="40.071375" lon="-105.2297889">
  <ele>1583.02</ele>
  <time>2026-08-28T17:51:10Z</time>
  <course>246.95</course>
  <speed>0.01</speed>
  <fix>3d</fix>
</trkpt>
<trkpt lat="40.0713749" lon="-105.229789">
  <ele>1583.0</ele>
  <time>2026-08-28T17:51:10Z</time>
  <course>0.0</course>
  <speed>0.0</speed>
  <fix>3d</fix>
</trkpt>
<trkpt lat="40.071375" lon="-105.2297889">
  <ele>1583.02</ele>
  <time>2026-08-28T17:51:10Z</time>
  <course>246.95</course>
  <speed>0.01</speed>
  <fix>3d</fix>
</trkpt>
<trkpt lat="40.0713749" lon="-105.229789">
  <ele>1583.0</ele>
  <time>2026-08-28T17:51:10Z</time>
  <course>0.0</course>
  <speed>0.0</speed>
  <fix>3d</fix>
</trkpt>
<trkpt lat="40.071375" lon="-105.2297889">
  <ele>1583.01</ele>
  <time>2026-08-28T17:51:10Z</time>
  <course>246.95</course>
  <speed>0.01</speed>
  <fix>3d</fix>
</trkpt>
<trkpt lat="40.0713749" lon="-105.229789">
  <ele>1583.0</ele>
  <time>2026-08-28T17:51:10Z</time>
  <course>0.0</course>
  <speed>0.0</speed>
  <fix>3d</fix>
</trkpt>
<trkpt lat="40.071375" lon="-105.2297889">
  <ele>1583.01</ele>
  <time>2026-08-28T17:51:10Z</time>
  <course>246.95</course>
  <speed>0.01</speed>
  <fix>3d</fix>
</trkpt>
<trkpt lat="40.0713749" lon="-105.229789">
  <ele>1583.0</ele>
  <time>2026-08-28T17:51:10Z</time>
  <course>0.0</course>
  <speed>0.0</speed>
  <fix>3d</fix>
</trkpt>
<trkpt lat="40.071375" lon="-105.2297889">
  <ele>1583.0</ele>
  <time>2026-08-28T17:51:10Z</time>
  <course>246.95</course>
  <speed>0.01</speed>
  <fix>3d</fix>
</trkpt>
<trkpt lat="40.0713749" lon="-105.229789">
  <ele>1583.0</ele>
  <time>2026-08-28T17:51:10Z</time>
  <course>0.0</course>
  <speed>0.0</speed>
  <fix>3d</fix>
</trkpt>
<trkpt lat="40.071375" lon="-105.2297889">
  <ele>1582.99</ele>
  <time>2026-08-28T17:51:10Z</time>
  <course>246.95</course>
  <speed>0.01</speed>
  <fix>3d</fix>
</trkpt>
<trkpt lat="40.0713749" lon="-105.229789">
  <ele>1583.0</ele>
  <time>2026-08-28T17:51:10Z</time>
  <course>0.0</course>
  <speed>0.0</speed>
  <fix>3d</fix>
</trkpt>
<trkpt lat="40.071375" lon="-105.2297889">
  <ele>1582.98</ele>
  <time>2026-08-28T17:51:10Z</time>
  <course>246.94</course>
  <speed>0.01</speed>
  <fix>3d</fix>
</trkpt>
<trkpt lat="40.0713749" lon="-105.229789">
  <ele>1583.0</ele>
  <time>2026-08-28T17:51:10Z</time>
  <course>0.0</course>
  <speed>0.0</speed>
  <fix>3d</fix>
</trkpt>
<trkpt lat="40.071375" lon="-105.2297889">
  <ele>1582.98</ele>
  <time>2026-08-28T17:51:10Z</time>
  <course>246.94</course>
  <speed>0.01</speed>
  <fix>3d</fix>
</trkpt>
<trkpt lat="40.0713749" lon="-105.229789">
  <ele>1583.0</ele>
  <time>2026-08-28T17:51:10Z</time>
  <course>0.0</course>
  <speed>0.0</speed>
  <fix>3d</fix>
</trkpt>
<trkpt lat="40.071375" lon="-105.2297889">
  <ele>1582.97</ele>
  <time>2026-08-28T17:51:10Z</time>
  <course>246.94</course>
  <speed>0.01</speed>
  <fix>3d</fix>
</trkpt>
<trkpt lat="40.0713749" lon="-105.229789">
  <ele>1583.0</ele>
  <time>2026-08-28T17:51:10Z</time>
  <course>0.0</course>
  <speed>0.0</speed>
  <fix>3d</fix>
</trkpt>
<trkpt lat="40.071375" lon="-105.2297889">
  <ele>1582.97</ele>
  <time>2026-08-28T17:51:10Z</time>
  <course>246.94</course>
  <speed>0.01</speed>
  <fix>3d</fix>
</trkpt>
<trkpt lat="40.0713749" lon="-105.229789">
  <ele>1583.0</ele>
  <time>2026-08-28T17:51:10Z</time>
  <course>0.0</course>
  <speed>0.0</speed>
  <fix>3d</fix>
</trkpt>
<trkpt lat="40.071375" lon="-105.2297889">
  <ele>1582.96</ele>
  <time>2026-08-28T17:51:10Z</time>
  <course>246.94</course>
  <speed>0.01</speed>
  <fix>3d</fix>
</trkpt>
<trkpt lat="40.0713749" lon="-105.229789">
  <ele>1583.0</ele>
  <time>2026-08-28T17:51:10Z</time>
  <course>0.0</course>
  <speed>0.0</speed>
  <fix>3d</fix>
</trkpt>
<trkpt lat="40.071375" lon="-105.2297889">
  <ele>1582.96</ele>
  <time>2026-08-28T17:51:10Z</time>
  <course>246.94</course>
  <speed>0.01</speed>
  <fix>3d</fix>
</trkpt>
<trkpt lat="40.0713749" lon="-105.229789">
  <ele>1583.0</ele>
  <time>2026-08-28T17:51:10Z</time>
  <course>0.0</course>
  <speed>0.0</speed>
  <fix>3d</fix>
</trkpt>
<trkpt lat="40.071375" lon="-105.2297889">
  <ele>1582.96</ele>
  <time>2026-08-28T17:51:10Z</time>
  <course>246.94</course>
  <speed>0.01</speed>
  <fix>3d</fix>
</trkpt>
<trkpt lat="40.0713749" lon="-105.229789">
  <ele>1583.0</ele>
  <time>2026-08-28T17:51:10Z</time>
  <course>0.0</course>
  <speed>0.0</speed>
  <fix>3d</fix>
</trkpt>
<trkpt lat="40.071375" lon="-105.2297889">
  <ele>1582.96</ele>
  <time>2026-08-28T17:51:10Z</time>
  <course>246.94</course>
  <speed>0.01</speed>
  <fix>3d</fix>
</trkpt>
<trkpt lat="40.0713749" lon="-105.229789">
  <ele>1583.0</ele>
  <time>2026-08-28T17:51:10Z</time>
  <course>0.0</course>
  <speed>0.0</speed>
  <fix>3d</fix>
</trkpt>
<trkpt lat="40.071375" lon="-105.2297889">
  <ele>1582.96</ele>
  <time>2026-08-28T17:51:10Z</time>
  <course>246.94</course>
  <speed>0.01</speed>
  <fix>3d</fix>
</trkpt>
<trkpt lat="40.0713749" lon="-105.229789">
  <ele>1583.0</ele>
  <time>2026-08-28T17:51:10Z</time>
  <course>0.0</course>
  <speed>0.0</speed>
  <fix>3d</fix>
</trkpt>
<trkpt lat="40.071375" lon="-105.2297889">
  <ele>1582.96</ele>
  <time>2026-08-28T17:51:10Z</time>
  <course>246.94</course>
  <speed>0.01</speed>
  <fix>3d</fix>
</trkpt>
<trkpt lat="40.0713749" lon="-105.229789">
  <ele>1583.0</ele>
  <time>2026-08-28T17:51:10Z</time>
  <course>0.0</course>
  <speed>0.0</speed>
  <fix>3d</fix>
</trkpt>
<trkpt lat="40.071375" lon="-105.2297889">
  <ele>1582.97</ele>
  <time>2026-08-28T17:51:10Z</time>
  <course>246.93</course>
  <speed>0.01</speed>
  <fix>3d</fix>
</trkpt>
<trkpt lat="40.0713749" lon="-105.229789">
  <ele>1583.0</ele>
  <time>2026-08-28T17:51:10Z</time>
  <course>0.0</course>
  <speed>0.0</speed>
  <fix>3d</fix>
</trkpt>
<trkpt lat="40.071375" lon="-105.2297889">
  <ele>1582.97</ele>
  <time>2026-08-28T17:51:10Z</time>
  <course>246.93</course>
  <speed>0.01</speed>
  <fix>3d</fix>
</trkpt>
<trkpt lat="40.0713749" lon="-105.229789">
  <ele>1583.0</ele>
  <time>2026-08-28T17:51:10Z</time>
  <course>0.0</course>
  <speed>0.0</speed>
  <fix>3d</fix>
</trkpt>
<trkpt lat="40.071375" lon="-105.2297889">
  <ele>1582.97</ele>
  <time>2026-08-28T17:51:10Z</time>
  <course>246.93</course>
  <speed>0.01</speed>
  <fix>3d</fix>
</trkpt>
<trkpt lat="40.0713749" lon="-105.229789">
  <ele>1583.0</ele>
  <time>2026-08-28T17:51:10Z</time>
  <course>0.0</course>
  <speed>0.0</speed>
  <fix>3d</fix>
</trkpt>
<trkpt lat="40.071375" lon="-105.2297889">
  <ele>1582.97</ele>
  <time>2026-08-28T17:51:10Z</time>
  <course>246.93</course>
  <speed>0.01</speed>
  <fix>3d</fix>
</trkpt>
<trkpt lat="40.0713749" lon="-105.229789">
  <ele>1583.0</ele>
  <time>2026-08-28T17:51:10Z</time>
  <course>0.0</course>
  <speed>0.0</speed>
  <fix>3d</fix>
</trkpt>
<trkpt lat="40.071375" lon="-105.2297889">
  <ele>1582.97</ele>
  <time>2026-08-28T17:51:10Z</time>
  <course>246.93</course>
  <speed>0.01</speed>
  <fix>3d</fix>
</trkpt>
<trkpt lat="40.0713749" lon="-105.229789">
  <ele>1583.0</ele>
  <time>2026-08-28T17:51:10Z</time>
  <course>0.0</course>
  <speed>0.0</speed>
  <fix>3d</fix>
</trkpt>
<trkpt lat="40.071375" lon="-105.2297889">
  <ele>1582.97</ele>
  <time>2026-08-28T17:51:10Z</time>
  <course>246.93</course>
  <speed>0.01</speed>
  <fix>3d</fix>
</trkpt>
<trkpt lat="40.0713749" lon="-105.229789">
  <ele>1583.0</ele>
  <time>2026-08-28T17:51:10Z</time>
  <course>0.0</course>
  <speed>0.0</speed>
  <fix>3d</fix>
</trkpt>
<trkpt lat="40.071375" lon="-105.2297889">
  <ele>1582.97</ele>
  <time>2026-08-28T17:51:10Z</time>
  <course>246.93</course>
  <speed>0.01</speed>
  <fix>3d</fix>
</trkpt>
<trkpt lat="40.0713749" lon="-105.229789">
  <ele>1583.0</ele>
  <time>2026-08-28T17:51:10Z</time>
  <course>0.0</course>
  <speed>0.0</speed>
  <fix>3d</fix>
</trkpt>
<trkpt lat="40.071375" lon="-105.2297889">
  <ele>1582.98</ele>
  <time>2026-08-28T17:51:10Z</time>
  <course>246.93</course>
  <speed>0.01</speed>
  <fix>3d</fix>
</trkpt>
<trkpt lat="40.0713749" lon="-105.229789">
  <ele>1583.0</ele>
  <time>2026-08-28T17:51:10Z</time>
  <course>0.0</course>
  <speed>0.0</speed>
  <fix>3d</fix>
</trkpt>
<trkpt lat="40.071375" lon="-105.2297889">
  <ele>1582.98</ele>
  <time>2026-08-28T17:51:10Z</time>
  <course>246.92</course>
  <speed>0.01</speed>
  <fix>3d</fix>
</trkpt>
<trkpt lat="40.0713749" lon="-105.229789">
  <ele>1583.0</ele>
  <time>2026-08-28T17:51:10Z</time>
  <course>0.0</course>
  <speed>0.0</speed>
  <fix>3d</fix>
</trkpt>
<trkpt lat="40.071375" lon="-105.2297889">
  <ele>1582.99</ele>
  <time>2026-08-28T17:51:10Z</time>
  <course>246.92</course>
  <speed>0.01</speed>
  <fix>3d</fix>
</trkpt>
<trkpt lat="40.0713749" lon="-105.229789">
  <ele>1583.0</ele>
  <time>2026-08-28T17:51:10Z</time>
  <course>0.0</course>
  <speed>0.0</speed>
  <fix>3d</fix>
</trkpt>
<trkpt lat="40.071375" lon="-105.2297889">
  <ele>1583.0</ele>
  <time>2026-08-28T17:51:10Z</time>
  <course>246.92</course>
  <speed>0.01</speed>
  <fix>3d</fix>
</trkpt>
<trkpt lat="40.0713749" lon="-105.229789">
  <ele>1583.0</ele>
  <time>2026-08-28T17:51:10Z</time>
  <course>0.0</course>
  <speed>0.0</speed>
  <fix>3d</fix>
</trkpt>
<trkpt lat="40.071375" lon="-105.2297889">
  <ele>1583.0</ele>
  <time>2026-08-28T17:51:10Z</time>
  <course>246.92</course>
  <speed>0.01</speed>
  <fix>3d</fix>
</trkpt>
<trkpt lat="40.0713749" lon="-105.229789">
  <ele>1583.0</ele>
  <time>2026-08-28T17:51:10Z</time>
  <course>0.0</course>
  <speed>0.0</speed>
  <fix>3d</fix>
</trkpt>
<trkpt lat="40.071375" lon="-105.2297889">
  <ele>1583.01</ele>
  <time>2026-08-28T17:51:10Z</time>
  <course>246.92</course>
  <speed>0.01</speed>
  <fix>3d</fix>
</trkpt>
<trkpt lat="40.0713749" lon="-105.229789">
  <ele>1583.0</ele>
  <time>2026-08-28T17:51:10Z</time>
  <course>0.0</course>
  <speed>0.0</speed>
  <fix>3d</fix>
</trkpt>
<trkpt lat="40.071375" lon="-105.2297889">
  <ele>1583.01</ele>
  <time>2026-08-28T17:51:10Z</time>
  <course>246.92</course>
  <speed>0.01</speed>
  <fix>3d</fix>
</trkpt>
<trkpt lat="40.0713749" lon="-105.229789">
  <ele>1583.0</ele>
  <time>2026-08-28T17:51:10Z</time>
  <course>0.0</course>
  <speed>0.0</speed>
  <fix>3d</fix>
</trkpt>
<trkpt lat="40.071375" lon="-105.2297889">
  <ele>1583.02</ele>
  <time>2026-08-28T17:51:10Z</time>
  <course>246.92</course>
  <speed>0.01</speed>
  <fix>3d</fix>
</trkpt>
<trkpt lat="40.0713749" lon="-105.229789">
  <ele>1583.0</ele>
  <time>2026-08-28T17:51:10Z</time>
  <course>0.0</course>
  <speed>0.0</speed>
  <fix>3d</fix>
</trkpt>
<trkpt lat="40.071375" lon="-105.2297889">
  <ele>1583.02</ele>
  <time>2026-08-28T17:51:10Z</time>
  <course>246.92</course>
  <speed>0.01</speed>
  <fix>3d</fix>
</trkpt>
<trkpt lat="40.0713749" lon="-105.229789">
  <ele>1583.0</ele>
  <time>2026-08-28T17:51:10Z</time>
  <course>0.0</course>
  <speed>0.0</speed>
  <fix>3d</fix>
</trkpt>
<trkpt lat="40.071375" lon="-105.2297889">
  <ele>1583.03</ele>
  <time>2026-08-28T17:51:10Z</time>
  <course>246.91</course>
  <speed>0.01</speed>
  <fix>3d</fix>
</trkpt>
<trkpt lat="40.0713749" lon="-105.229789">
  <ele>1583.0</ele>
  <time>2026-08-28T17:51:10Z</time>
  <course>0.0</course>
  <speed>0.0</speed>
  <fix>3d</fix>
</trkpt>
<trkpt lat="40.071375" lon="-105.2297889">
  <ele>1583.03</ele>
  <time>2026-08-28T17:51:10Z</time>
  <course>246.91</course>
  <speed>0.01</speed>
  <fix>3d</fix>
</trkpt>
<trkpt lat="40.0713749" lon="-105.229789">
  <ele>1583.0</ele>
  <time>2026-08-28T17:51:10Z</time>
  <course>0.0</course>
  <speed>0.0</speed>
  <fix>3d</fix>
</trkpt>
<trkpt lat="40.071375" lon="-105.2297889">
  <ele>1583.03</ele>
  <time>2026-08-28T17:51:10Z</time>
  <course>246.91</course>
  <speed>0.01</speed>
  <fix>3d</fix>
</trkpt>
<trkpt lat="40.0713749" lon="-105.229789">
  <ele>1583.0</ele>
  <time>2026-08-28T17:51:10Z</time>
  <course>0.0</course>
  <speed>0.0</speed>
  <fix>3d</fix>
</trkpt>
<trkpt lat="40.071375" lon="-105.2297889">
  <ele>1583.03</ele>
  <time>2026-08-28T17:51:10Z</time>
  <course>246.91</course>
  <speed>0.01</speed>
  <fix>3d</fix>
</trkpt>
<trkpt lat="40.0713749" lon="-105.229789">
  <ele>1583.0</ele>
  <time>2026-08-28T17:51:10Z</time>
  <course>0.0</course>
  <speed>0.0</speed>
  <fix>3d</fix>
</trkpt>
<trkpt lat="40.071375" lon="-105.2297889">
  <ele>1583.02</ele>
  <time>2026-08-28T17:51:10Z</time>
  <course>246.91</course>
  <speed>0.01</speed>
  <fix>3d</fix>
</trkpt>
<trkpt lat="40.0713749" lon="-105.229789">
  <ele>1583.0</ele>
  <time>2026-08-28T17:51:10Z</time>
  <course>0.0</course>
  <speed>0.0</speed>
  <fix>3d</fix>
</trkpt>
<trkpt lat="40.071375" lon="-105.2297889">
  <ele>1583.02</ele>
  <time>2026-08-28T17:51:10Z</time>
  <course>246.91</course>
  <speed>0.01</speed>
  <fix>3d</fix>
</trkpt>
<trkpt lat="40.0713749" lon="-105.229789">
  <ele>1583.0</ele>
  <time>2026-08-28T17:51:10Z</time>
  <course>0.0</course>
  <speed>0.0</speed>
  <fix>3d</fix>
</trkpt>
<trkpt lat="40.071375" lon="-105.2297889">
  <ele>1583.02</ele>
  <time>2026-08-28T17:51:10Z</time>
  <course>246.91</course>
  <speed>0.01</speed>
  <fix>3d</fix>
</trkpt>
<trkpt lat="40.0713749" lon="-105.229789">
  <ele>1583.0</ele>
  <time>2026-08-28T17:51:10Z</time>
  <course>0.0</course>
  <speed>0.0</speed>
  <fix>3d</fix>
</trkpt>
<trkpt lat="40.071375" lon="-105.2297889">
  <ele>1583.02</ele>
  <time>2026-08-28T17:51:10Z</time>
  <course>246.91</course>
  <speed>0.01</speed>
  <fix>3d</fix>
</trkpt>
<trkpt lat="40.0713749" lon="-105.229789">
  <ele>1583.0</ele>
  <time>2026-08-28T17:51:10Z</time>
  <course>0.0</course>
  <speed>0.0</speed>
  <fix>3d</fix>
</trkpt>
<trkpt lat="40.071375" lon="-105.2297889">
  <ele>1583.02</ele>
  <time>2026-08-28T17:51:10Z</time>
  <course>246.9</course>
  <speed>0.0</speed>
  <fix>3d</fix>
</trkpt>
<trkpt lat="40.0713749" lon="-105.229789">
  <ele>1583.0</ele>
  <time>2026-08-28T17:51:10Z</time>
  <course>0.0</course>
  <speed>0.0</speed>
  <fix>3d</fix>
</trkpt>
<trkpt lat="40.071375" lon="-105.2297889">
  <ele>1583.02</ele>
  <time>2026-08-28T17:51:10Z</time>
  <course>246.9</course>
  <speed>0.0</speed>
  <fix>3d</fix>
</trkpt>
<trkpt lat="40.0713749" lon="-105.229789">
  <ele>1583.0</ele>
  <time>2026-08-28T17:51:10Z</time>
  <course>0.0</course>
  <speed>0.0</speed>
  <fix>3d</fix>
</trkpt>
<trkpt lat="40.071375" lon="-105.2297889">
  <ele>1583.01</ele>
  <time>2026-08-28T17:51:10Z</time>
  <course>246.9</course>
  <speed>0.0</speed>
  <fix>3d</fix>
</trkpt>
<trkpt lat="40.0713749" lon="-105.229789">
  <ele>1583.0</ele>
  <time>2026-08-28T17:51:10Z</time>
  <course>0.0</course>
  <speed>0.0</speed>
  <fix>3d</fix>
</trkpt>
<trkpt lat="40.071375" lon="-105.2297889">
  <ele>1583.01</ele>
  <time>2026-08-28T17:51:10Z</time>
  <course>246.9</course>
  <speed>0.0</speed>
  <fix>3d</fix>
</trkpt>
<trkpt lat="40.0713749" lon="-105.229789">
  <ele>1583.0</ele>
  <time>2026-08-28T17:51:10Z</time>
  <course>0.0</course>
  <speed>0.0</speed>
  <fix>3d</fix>
</trkpt>
<trkpt lat="40.071375" lon="-105.2297889">
  <ele>1583.0</ele>
  <time>2026-08-28T17:51:10Z</time>
  <course>246.9</course>
  <speed>0.0</speed>
  <fix>3d</fix>
</trkpt>
<trkpt lat="40.0713749" lon="-105.229789">
  <ele>1583.0</ele>
  <time>2026-08-28T17:51:10Z</time>
  <course>0.0</course>
  <speed>0.0</speed>
  <fix>3d</fix>
</trkpt>
<trkpt lat="40.071375" lon="-105.2297889">
  <ele>1583.0</ele>
  <time>2026-08-28T17:51:10Z</time>
  <course>246.9</course>
  <speed>0.0</speed>
  <fix>3d</fix>
</trkpt>
<trkpt lat="40.0713749" lon="-105.229789">
  <ele>1583.0</ele>
  <time>2026-08-28T17:51:10Z</time>
  <course>0.0</course>
  <speed>0.0</speed>
  <fix>3d</fix>
</trkpt>
<trkpt lat="40.071375" lon="-105.2297889">
  <ele>1582.99</ele>
  <time>2026-08-28T17:51:10Z</time>
  <course>246.9</course>
  <speed>0.0</speed>
  <fix>3d</fix>
</trkpt>
<trkpt lat="40.0713749" lon="-105.229789">
  <ele>1583.0</ele>
  <time>2026-08-28T17:51:10Z</time>
  <course>0.0</course>
  <speed>0.0</speed>
  <fix>3d</fix>
</trkpt>
<trkpt lat="40.071375" lon="-105.2297889">
  <ele>1582.99</ele>
  <time>2026-08-28T17:51:10Z</time>
  <course>246.89</course>
  <speed>0.0</speed>
  <fix>3d</fix>
</trkpt>
<trkpt lat="40.0713749" lon="-105.229789">
  <ele>1583.0</ele>
  <time>2026-08-28T17:51:10Z</time>
  <course>0.0</course>
  <speed>0.0</speed>
  <fix>3d</fix>
</trkpt>
<trkpt lat="40.071375" lon="-105.2297889">
  <ele>1582.98</ele>
  <time>2026-08-28T17:51:10Z</time>
  <course>246.89</course>
  <speed>0.0</speed>
  <fix>3d</fix>
</trkpt>
<trkpt lat="40.0713749" lon="-105.229789">
  <ele>1583.0</ele>
  <time>2026-08-28T17:51:10Z</time>
  <course>0.0</course>
  <speed>0.0</speed>
  <fix>3d</fix>
</trkpt>
<trkpt lat="40.071375" lon="-105.2297889">
  <ele>1582.97</ele>
  <time>2026-08-28T17:51:10Z</time>
  <course>246.89</course>
  <speed>0.0</speed>
  <fix>3d</fix>
</trkpt>
<trkpt lat="40.0713749" lon="-105.229789">
  <ele>1583.0</ele>
  <time>2026-08-28T17:51:10Z</time>
  <course>0.0</course>
  <speed>0.0</speed>
  <fix>3d</fix>
</trkpt>
<trkpt lat="40.071375" lon="-105.2297889">
  <ele>1582.97</ele>
  <time>2026-08-28T17:51:10Z</time>
  <course>246.89</course>
  <speed>0.0</speed>
  <fix>3d</fix>
</trkpt>
<trkpt lat="40.0713749" lon="-105.229789">
  <ele>1583.0</ele>
  <time>2026-08-28T17:51:10Z</time>
  <course>0.0</course>
  <speed>0.0</speed>
  <fix>3d</fix>
</trkpt>
<trkpt lat="40.071375" lon="-105.2297889">
  <ele>1582.97</ele>
  <time>2026-08-28T17:51:10Z</time>
  <course>246.89</course>
  <speed>0.0</speed>
  <fix>3d</fix>
</trkpt>
<trkpt lat="40.0713749" lon="-105.229789">
  <ele>1583.0</ele>
  <time>2026-08-28T17:51:10Z</time>
  <course>0.0</course>
  <speed>0.0</speed>
  <fix>3d</fix>
</trkpt>
<trkpt lat="40.071375" lon="-105.2297889">
  <ele>1582.97</ele>
  <time>2026-08-28T17:51:10Z</time>
  <course>246.89</course>
  <speed>0.0</speed>
  <fix>3d</fix>
</trkpt>
<trkpt lat="40.0713749" lon="-105.229789">
  <ele>1583.0</ele>
  <time>2026-08-28T17:51:10Z</time>
  <course>0.0</course>
  <speed>0.0</speed>
  <fix>3d</fix>
</trkpt>
<trkpt lat="40.071375" lon="-105.2297889">
  <ele>1582.97</ele>
  <time>2026-08-28T17:51:10Z</time>
  <course>246.88</course>
  <speed>0.0</speed>
  <fix>3d</fix>
</trkpt>
<trkpt lat="40.0713749" lon="-105.229789">
  <ele>1583.0</ele>
  <time>2026-08-28T17:51:10Z</time>
  <course>0.0</course>
  <speed>0.0</speed>
  <fix>3d</fix>
</trkpt>
<trkpt lat="40.071375" lon="-105.2297889">
  <ele>1582.97</ele>
  <time>2026-08-28T17:51:10Z</time>
  <course>246.88</course>
  <speed>0.0</speed>
  <fix>3d</fix>
</trkpt>
<trkpt lat="40.0713749" lon="-105.229789">
  <ele>1583.0</ele>
  <time>2026-08-28T17:51:10Z</time>
  <course>0.0</course>
  <speed>0.0</speed>
  <fix>3d</fix>
</trkpt>
<trkpt lat="40.071375" lon="-105.2297889">
  <ele>1582.97</ele>
  <time>2026-08-28T17:51:10Z</time>
  <course>246.88</course>
  <speed>0.0</speed>
  <fix>3d</fix>
</trkpt>
<trkpt lat="40.0713749" lon="-105.229789">
  <ele>1583.0</ele>
  <time>2026-08-28T17:51:10Z</time>
  <course>0.0</course>
  <speed>0.0</speed>
  <fix>3d</fix>
</trkpt>
<trkpt lat="40.071375" lon="-105.2297889">
  <ele>1582.97</ele>
  <time>2026-08-28T17:51:10Z</time>
  <course>246.88</course>
  <speed>0.0</speed>
  <fix>3d</fix>
</trkpt>
<trkpt lat="40.0713749" lon="-105.229789">
  <ele>1583.0</ele>
  <time>2026-08-28T17:51:10Z</time>
  <course>0.0</course>
  <speed>0.0</speed>
  <fix>3d</fix>
</trkpt>
<trkpt lat="40.071375" lon="-105.2297889">
  <ele>1582.97</ele>
  <time>2026-08-28T17:51:10Z</time>
  <course>246.88</course>
  <speed>0.0</speed>
  <fix>3d</fix>
</trkpt>
<trkpt lat="40.0713749" lon="-105.229789">
  <ele>1583.0</ele>
  <time>2026-08-28T17:51:10Z</time>
  <course>0.0</course>
  <speed>0.0</speed>
  <fix>3d</fix>
</trkpt>
<trkpt lat="40.071375" lon="-105.2297889">
  <ele>1582.97</ele>
  <time>2026-08-28T17:51:10Z</time>
  <course>246.88</course>
  <speed>0.0</speed>
  <fix>3d</fix>
</trkpt>
<trkpt lat="40.0713749" lon="-105.229789">
  <ele>1583.0</ele>
  <time>2026-08-28T17:51:10Z</time>
  <course>0.0</course>
  <speed>0.0</speed>
  <fix>3d</fix>
</trkpt>
<trkpt lat="40.071375" lon="-105.2297889">
  <ele>1582.97</ele>
  <time>2026-08-28T17:51:10Z</time>
  <course>246.87</course>
  <speed>0.0</speed>
  <fix>3d</fix>
</trkpt>
<trkpt lat="40.0713749" lon="-105.229789">
  <ele>1583.0</ele>
  <time>2026-08-28T17:51:10Z</time>
  <course>0.0</course>
  <speed>0.0</speed>
  <fix>3d</fix>
</trkpt>
<trkpt lat="40.071375" lon="-105.2297889">
  <ele>1582.97</ele>
  <time>2026-08-28T17:51:10Z</time>
  <course>246.87</course>
  <speed>0.0</speed>
  <fix>3d</fix>
</trkpt>
<trkpt lat="40.0713749" lon="-105.229789">
  <ele>1583.0</ele>
  <time>2026-08-28T17:51:10Z</time>
  <course>0.0</course>
  <speed>0.0</speed>
  <fix>3d</fix>
</trkpt>
<trkpt lat="40.071375" lon="-105.2297889">
  <ele>1582.97</ele>
  <time>2026-08-28T17:51:10Z</time>
  <course>246.87</course>
  <speed>0.0</speed>
  <fix>3d</fix>
</trkpt>
<trkpt lat="40.0713749" lon="-105.229789">
  <ele>1583.0</ele>
  <time>2026-08-28T17:51:10Z</time>
  <course>0.0</course>
  <speed>0.0</speed>
  <fix>3d</fix>
</trkpt>
<trkpt lat="40.071375" lon="-105.2297889">
  <ele>1582.97</ele>
  <time>2026-08-28T17:51:10Z</time>
  <course>246.87</course>
  <speed>0.0</speed>
  <fix>3d</fix>
</trkpt>
<trkpt lat="40.0713749" lon="-105.229789">
  <ele>1583.0</ele>
  <time>2026-08-28T17:51:10Z</time>
  <course>0.0</course>
  <speed>0.0</speed>
  <fix>3d</fix>
</trkpt>
<trkpt lat="40.071375" lon="-105.2297889">
  <ele>1582.96</ele>
  <time>2026-08-28T17:51:10Z</time>
  <course>246.87</course>
  <speed>0.0</speed>
  <fix>3d</fix>
</trkpt>
<trkpt lat="40.0713749" lon="-105.229789">
  <ele>1583.0</ele>
  <time>2026-08-28T17:51:10Z</time>
  <course>0.0</course>
  <speed>0.0</speed>
  <fix>3d</fix>
</trkpt>
<trkpt lat="40.071375" lon="-105.2297889">
  <ele>1582.96</ele>
  <time>2026-08-28T17:51:10Z</time>
  <course>246.87</course>
  <speed>0.0</speed>
  <fix>3d</fix>
</trkpt>
<trkpt lat="40.0713749" lon="-105.229789">
  <ele>1583.0</ele>
  <time>2026-08-28T17:51:10Z</time>
  <course>0.0</course>
  <speed>0.0</speed>
  <fix>3d</fix>
</trkpt>
<trkpt lat="40.071375" lon="-105.2297889">
  <ele>1582.96</ele>
  <time>2026-08-28T17:51:10Z</time>
  <course>246.86</course>
  <speed>0.0</speed>
  <fix>3d</fix>
</trkpt>
<trkpt lat="40.0713749" lon="-105.229789">
  <ele>1583.0</ele>
  <time>2026-08-28T17:51:10Z</time>
  <course>0.0</course>
  <speed>0.0</speed>
  <fix>3d</fix>
</trkpt>
<trkpt lat="40.071375" lon="-105.2297889">
  <ele>1582.96</ele>
  <time>2026-08-28T17:51:10Z</time>
  <course>246.86</course>
  <speed>0.0</speed>
  <fix>3d</fix>
</trkpt>
<trkpt lat="40.0713749" lon="-105.229789">
  <ele>1583.0</ele>
  <time>2026-08-28T17:51:10Z</time>
  <course>0.0</course>
  <speed>0.0</speed>
  <fix>3d</fix>
</trkpt>
<trkpt lat="40.071375" lon="-105.2297889">
  <ele>1582.96</ele>
  <time>2026-08-28T17:51:10Z</time>
  <course>246.86</course>
  <speed>0.0</speed>
  <fix>3d</fix>
</trkpt>
<trkpt lat="40.0713749" lon="-105.229789">
  <ele>1583.0</ele>
  <time>2026-08-28T17:51:10Z</time>
  <course>0.0</course>
  <speed>0.0</speed>
  <fix>3d</fix>
</trkpt>
<trkpt lat="40.071375" lon="-105.2297889">
  <ele>1582.96</ele>
  <time>2026-08-28T17:51:10Z</time>
  <course>246.86</course>
  <speed>0.0</speed>
  <fix>3d</fix>
</trkpt>
<trkpt lat="40.0713749" lon="-105.229789">
  <ele>1583.0</ele>
  <time>2026-08-28T17:51:10Z</time>
  <course>0.0</course>
  <speed>0.0</speed>
  <fix>3d</fix>
</trkpt>
<trkpt lat="40.071375" lon="-105.2297889">
  <ele>1582.96</ele>
  <time>2026-08-28T17:51:10Z</time>
  <course>246.86</course>
  <speed>0.0</speed>
  <fix>3d</fix>
</trkpt>
<trkpt lat="40.0713749" lon="-105.229789">
  <ele>1583.0</ele>
  <time>2026-08-28T17:51:10Z</time>
  <course>0.0</course>
  <speed>0.0</speed>
  <fix>3d</fix>
</trkpt>
<trkpt lat="40.071375" lon="-105.2297889">
  <ele>1582.96</ele>
  <time>2026-08-28T17:51:10Z</time>
  <course>246.86</course>
  <speed>0.0</speed>
  <fix>3d</fix>
</trkpt>
<trkpt lat="40.0713749" lon="-105.229789">
  <ele>1583.0</ele>
  <time>2026-08-28T17:51:10Z</time>
  <course>0.0</course>
  <speed>0.0</speed>
  <fix>3d</fix>
</trkpt>
<trkpt lat="40.071375" lon="-105.2297889">
  <ele>1582.96</ele>
  <time>2026-08-28T17:51:10Z</time>
  <course>246.85</course>
  <speed>0.0</speed>
  <fix>3d</fix>
</trkpt>
<trkpt lat="40.0713749" lon="-105.229789">
  <ele>1583.0</ele>
  <time>2026-08-28T17:51:10Z</time>
  <course>0.0</course>
  <speed>0.0</speed>
  <fix>3d</fix>
</trkpt>
<trkpt lat="40.071375" lon="-105.2297889">
  <ele>1582.95</ele>
  <time>2026-08-28T17:51:10Z</time>
  <course>246.85</course>
  <speed>0.0</speed>
  <fix>3d</fix>
</trkpt>
<trkpt lat="40.0713749" lon="-105.229789">
  <ele>1583.0</ele>
  <time>2026-08-28T17:51:10Z</time>
  <course>0.0</course>
  <speed>0.0</speed>
  <fix>3d</fix>
</trkpt>
<trkpt lat="40.071375" lon="-105.2297889">
  <ele>1582.95</ele>
  <time>2026-08-28T17:51:10Z</time>
  <course>246.85</course>
  <speed>0.0</speed>
  <fix>3d</fix>
</trkpt>
<trkpt lat="40.0713749" lon="-105.229789">
  <ele>1583.0</ele>
  <time>2026-08-28T17:51:10Z</time>
  <course>0.0</course>
  <speed>0.0</speed>
  <fix>3d</fix>
</trkpt>
<trkpt lat="40.071375" lon="-105.2297889">
  <ele>1582.95</ele>
  <time>2026-08-28T17:51:10Z</time>
  <course>246.85</course>
  <speed>0.0</speed>
  <fix>3d</fix>
</trkpt>
<trkpt lat="40.0713749" lon="-105.229789">
  <ele>1583.0</ele>
  <time>2026-08-28T17:51:10Z</time>
  <course>0.0</course>
  <speed>0.0</speed>
  <fix>3d</fix>
</trkpt>
<trkpt lat="40.071375" lon="-105.2297889">
  <ele>1582.95</ele>
  <time>2026-08-28T17:51:10Z</time>
  <course>246.85</course>
  <speed>0.0</speed>
  <fix>3d</fix>
</trkpt>
<trkpt lat="40.0713749" lon="-105.229789">
  <ele>1583.0</ele>
  <time>2026-08-28T17:51:10Z</time>
  <course>0.0</course>
  <speed>0.0</speed>
  <fix>3d</fix>
</trkpt>
<trkpt lat="40.071375" lon="-105.2297889">
  <ele>1582.95</ele>
  <time>2026-08-28T17:51:10Z</time>
  <course>246.84</course>
  <speed>0.0</speed>
  <fix>3d</fix>
</trkpt>
<trkpt lat="40.0713749" lon="-105.229789">
  <ele>1583.0</ele>
  <time>2026-08-28T17:51:10Z</time>
  <course>0.0</course>
  <speed>0.0</speed>
  <fix>3d</fix>
</trkpt>
<trkpt lat="40.071375" lon="-105.2297889">
  <ele>1582.95</ele>
  <time>2026-08-28T17:51:10Z</time>
  <course>246.84</course>
  <speed>0.0</speed>
  <fix>3d</fix>
</trkpt>
<trkpt lat="40.0713749" lon="-105.229789">
  <ele>1583.0</ele>
  <time>2026-08-28T17:51:10Z</time>
  <course>0.0</course>
  <speed>0.0</speed>
  <fix>3d</fix>
</trkpt>
<trkpt lat="40.071375" lon="-105.2297889">
  <ele>1582.94</ele>
  <time>2026-08-28T17:51:10Z</time>
  <course>246.84</course>
  <speed>0.0</speed>
  <fix>3d</fix>
</trkpt>
<trkpt lat="40.0713749" lon="-105.229789">
  <ele>1583.0</ele>
  <time>2026-08-28T17:51:10Z</time>
  <course>0.0</course>
  <speed>0.0</speed>
  <fix>3d</fix>
</trkpt>
<trkpt lat="40.071375" lon="-105.2297889">
  <ele>1582.94</ele>
  <time>2026-08-28T17:51:10Z</time>
  <course>246.84</course>
  <speed>0.0</speed>
  <fix>3d</fix>
</trkpt>
<trkpt lat="40.0713749" lon="-105.229789">
  <ele>1583.0</ele>
  <time>2026-08-28T17:51:10Z</time>
  <course>0.0</course>
  <speed>0.0</speed>
  <fix>3d</fix>
</trkpt>
<trkpt lat="40.071375" lon="-105.2297889">
  <ele>1582.94</ele>
  <time>2026-08-28T17:51:10Z</time>
  <course>246.84</course>
  <speed>0.0</speed>
  <fix>3d</fix>
</trkpt>
<trkpt lat="40.0713749" lon="-105.229789">
  <ele>1583.0</ele>
  <time>2026-08-28T17:51:10Z</time>
  <course>0.0</course>
  <speed>0.0</speed>
  <fix>3d</fix>
</trkpt>
<trkpt lat="40.071375" lon="-105.2297889">
  <ele>1582.93</ele>
  <time>2026-08-28T17:51:10Z</time>
  <course>246.84</course>
  <speed>0.0</speed>
  <fix>3d</fix>
</trkpt>
<trkpt lat="40.0713749" lon="-105.229789">
  <ele>1583.0</ele>
  <time>2026-08-28T17:51:10Z</time>
  <course>0.0</course>
  <speed>0.0</speed>
  <fix>3d</fix>
</trkpt>
<trkpt lat="40.071375" lon="-105.2297889">
  <ele>1582.93</ele>
  <time>2026-08-28T17:51:10Z</time>
  <course>246.83</course>
  <speed>0.0</speed>
  <fix>3d</fix>
</trkpt>
<trkpt lat="40.0713749" lon="-105.229789">
  <ele>1583.0</ele>
  <time>2026-08-28T17:51:10Z</time>
  <course>0.0</course>
  <speed>0.0</speed>
  <fix>3d</fix>
</trkpt>
<trkpt lat="40.071375" lon="-105.2297889">
  <ele>1582.93</ele>
  <time>2026-08-28T17:51:10Z</time>
  <course>246.83</course>
  <speed>0.0</speed>
  <fix>3d</fix>
</trkpt>
<trkpt lat="40.0713749" lon="-105.229789">
  <ele>1583.0</ele>
  <time>2026-08-28T17:51:10Z</time>
  <course>0.0</course>
  <speed>0.0</speed>
  <fix>3d</fix>
</trkpt>
<trkpt lat="40.071375" lon="-105.2297889">
  <ele>1582.93</ele>
  <time>2026-08-28T17:51:10Z</time>
  <course>246.83</course>
  <speed>0.0</speed>
  <fix>3d</fix>
</trkpt>
<trkpt lat="40.0713749" lon="-105.229789">
  <ele>1583.0</ele>
  <time>2026-08-28T17:51:10Z</time>
  <course>0.0</course>
  <speed>0.0</speed>
  <fix>3d</fix>
</trkpt>
<trkpt lat="40.071375" lon="-105.2297889">
  <ele>1582.93</ele>
  <time>2026-08-28T17:51:10Z</time>
  <course>246.83</course>
  <speed>0.0</speed>
  <fix>3d</fix>
</trkpt>
<trkpt lat="40.0713749" lon="-105.229789">
  <ele>1583.0</ele>
  <time>2026-08-28T17:51:10Z</time>
  <course>0.0</course>
  <speed>0.0</speed>
  <fix>3d</fix>
</trkpt>
<trkpt lat="40.071375" lon="-105.2297889">
  <ele>1582.93</ele>
  <time>2026-08-28T17:51:10Z</time>
  <course>246.83</course>
  <speed>0.0</speed>
  <fix>3d</fix>
</trkpt>
<trkpt lat="40.0713749" lon="-105.229789">
  <ele>1583.0</ele>
  <time>2026-08-28T17:51:10Z</time>
  <course>0.0</course>
  <speed>0.0</speed>
  <fix>3d</fix>
</trkpt>
<trkpt lat="40.071375" lon="-105.2297889">
  <ele>1582.93</ele>
  <time>2026-08-28T17:51:10Z</time>
  <course>246.82</course>
  <speed>0.0</speed>
  <fix>3d</fix>
</trkpt>
<trkpt lat="40.0713749" lon="-105.229789">
  <ele>1583.0</ele>
  <time>2026-08-28T17:51:10Z</time>
  <course>0.0</course>
  <speed>0.0</speed>
  <fix>3d</fix>
</trkpt>
<trkpt lat="40.071375" lon="-105.2297889">
  <ele>1582.94</ele>
  <time>2026-08-28T17:51:10Z</time>
  <course>246.82</course>
  <speed>0.0</speed>
  <fix>3d</fix>
</trkpt>
<trkpt lat="40.0713749" lon="-105.229789">
  <ele>1583.0</ele>
  <time>2026-08-28T17:51:10Z</time>
  <course>0.0</course>
  <speed>0.0</speed>
  <fix>3d</fix>
</trkpt>
<trkpt lat="40.071375" lon="-105.2297889">
  <ele>1582.94</ele>
  <time>2026-08-28T17:51:10Z</time>
  <course>246.82</course>
  <speed>0.0</speed>
  <fix>3d</fix>
</trkpt>
<trkpt lat="40.0713749" lon="-105.229789">
  <ele>1583.0</ele>
  <time>2026-08-28T17:51:10Z</time>
  <course>0.0</course>
  <speed>0.0</speed>
  <fix>3d</fix>
</trkpt>
<trkpt lat="40.071375" lon="-105.2297889">
  <ele>1582.95</ele>
  <time>2026-08-28T17:51:10Z</time>
  <course>246.82</course>
  <speed>0.0</speed>
  <fix>3d</fix>
</trkpt>
<trkpt lat="40.0713749" lon="-105.229789">
  <ele>1583.0</ele>
  <time>2026-08-28T17:51:10Z</time>
  <course>0.0</course>
  <speed>0.0</speed>
  <fix>3d</fix>
</trkpt>
<trkpt lat="40.071375" lon="-105.2297889">
  <ele>1582.95</ele>
  <time>2026-08-28T17:51:10Z</time>
  <course>246.82</course>
  <speed>0.0</speed>
  <fix>3d</fix>
</trkpt>
<trkpt lat="40.0713749" lon="-105.229789">
  <ele>1583.0</ele>
  <time>2026-08-28T17:51:10Z</time>
  <course>0.0</course>
  <speed>0.0</speed>
  <fix>3d</fix>
</trkpt>
<trkpt lat="40.071375" lon="-105.2297889">
  <ele>1582.95</ele>
  <time>2026-08-28T17:51:10Z</time>
  <course>246.81</course>
  <speed>0.0</speed>
  <fix>3d</fix>
</trkpt>
<trkpt lat="40.0713749" lon="-105.229789">
  <ele>1583.0</ele>
  <time>2026-08-28T17:51:10Z</time>
  <course>0.0</course>
  <speed>0.0</speed>
  <fix>3d</fix>
</trkpt>
<trkpt lat="40.071375" lon="-105.2297889">
  <ele>1582.95</ele>
  <time>2026-08-28T17:51:10Z</time>
  <course>246.81</course>
  <speed>0.0</speed>
  <fix>3d</fix>
</trkpt>
<trkpt lat="40.0713749" lon="-105.229789">
  <ele>1583.0</ele>
  <time>2026-08-28T17:51:10Z</time>
  <course>0.0</course>
  <speed>0.0</speed>
  <fix>3d</fix>
</trkpt>
<trkpt lat="40.0713749" lon="-105.2297889">
  <ele>1582.95</ele>
  <time>2026-08-28T17:51:10Z</time>
  <course>246.81</course>
  <speed>0.0</speed>
  <fix>3d</fix>
</trkpt>
<trkpt lat="40.0713749" lon="-105.229789">
  <ele>1583.0</ele>
  <time>2026-08-28T17:51:10Z</time>
  <course>0.0</course>
  <speed>0.0</speed>
  <fix>3d</fix>
</trkpt>
<trkpt lat="40.0713749" lon="-105.2297889">
  <ele>1582.95</ele>
  <time>2026-08-28T17:51:10Z</time>
  <course>246.81</course>
  <speed>0.0</speed>
  <fix>3d</fix>
</trkpt>
<trkpt lat="40.0713749" lon="-105.229789">
  <ele>1583.0</ele>
  <time>2026-08-28T17:51:10Z</time>
  <course>0.0</course>
  <speed>0.0</speed>
  <fix>3d</fix>
</trkpt>
<trkpt lat="40.0713749" lon="-105.2297889">
  <ele>1582.94</ele>
  <time>2026-08-28T17:51:10Z</time>
  <course>246.81</course>
  <speed>0.0</speed>
  <fix>3d</fix>
</trkpt>
<trkpt lat="40.0713749" lon="-105.229789">
  <ele>1583.0</ele>
  <time>2026-08-28T17:51:10Z</time>
  <course>0.0</course>
  <speed>0.0</speed>
  <fix>3d</fix>
</trkpt>
<trkpt lat="40.0713749" lon="-105.2297889">
  <ele>1582.94</ele>
  <time>2026-08-28T17:51:10Z</time>
  <course>246.8</course>
  <speed>0.0</speed>
  <fix>3d</fix>
</trkpt>
<trkpt lat="40.0713749" lon="-105.229789">
  <ele>1583.0</ele>
  <time>2026-08-28T17:51:10Z</time>
  <course>0.0</course>
  <speed>0.0</speed>
  <fix>3d</fix>
</trkpt>
<trkpt lat="40.0713749" lon="-105.2297889">
  <ele>1582.94</ele>
  <time>2026-08-28T17:51:10Z</time>
  <course>246.8</course>
  <speed>0.0</speed>
  <fix>3d</fix>
</trkpt>
<trkpt lat="40.0713749" lon="-105.229789">
  <ele>1583.0</ele>
  <time>2026-08-28T17:51:10Z</time>
  <course>0.0</course>
  <speed>0.0</speed>
  <fix>3d</fix>
</trkpt>
<trkpt lat="40.0713749" lon="-105.229789">
  <ele>1582.94</ele>
  <time>2026-08-28T17:51:10Z</time>
  <course>246.8</course>
  <speed>0.0</speed>
  <fix>3d</fix>
</trkpt>
<trkpt lat="40.0713749" lon="-105.229789">
  <ele>1583.0</ele>
  <time>2026-08-28T17:51:10Z</time>
  <course>0.0</course>
  <speed>0.0</speed>
  <fix>3d</fix>
</trkpt>
<trkpt lat="40.0713749" lon="-105.229789">
  <ele>1582.94</ele>
  <time>2026-08-28T17:51:10Z</time>
  <course>246.8</course>
  <speed>0.0</speed>
  <fix>3d</fix>
</trkpt>
<trkpt lat="40.0713749" lon="-105.229789">
  <ele>1583.0</ele>
  <time>2026-08-28T17:51:10Z</time>
  <course>0.0</course>
  <speed>0.0</speed>
  <fix>3d</fix>
</trkpt>
<trkpt lat="40.0713749" lon="-105.229789">
  <ele>1582.94</ele>
  <time>2026-08-28T17:51:10Z</time>
  <course>246.8</course>
  <speed>0.0</speed>
  <fix>3d</fix>
</trkpt>
<trkpt lat="40.0713749" lon="-105.229789">
  <ele>1583.0</ele>
  <time>2026-08-28T17:51:10Z</time>
  <course>0.0</course>
  <speed>0.0</speed>
  <fix>3d</fix>
</trkpt>
<trkpt lat="40.0713749" lon="-105.229789">
  <ele>1582.94</ele>
  <time>2026-08-28T17:51:10Z</time>
  <course>246.79</course>
  <speed>0.0</speed>
  <fix>3d</fix>
</trkpt>
<trkpt lat="40.0713749" lon="-105.229789">
  <ele>1583.0</ele>
  <time>2026-08-28T17:51:10Z</time>
  <course>0.0</course>
  <speed>0.0</speed>
  <fix>3d</fix>
</trkpt>
<trkpt lat="40.0713749" lon="-105.229789">
  <ele>1582.93</ele>
  <time>2026-08-28T17:51:10Z</time>
  <course>246.79</course>
  <speed>0.0</speed>
  <fix>3d</fix>
</trkpt>
<trkpt lat="40.0713749" lon="-105.229789">
  <ele>1583.0</ele>
  <time>2026-08-28T17:51:10Z</time>
  <course>0.0</course>
  <speed>0.0</speed>
  <fix>3d</fix>
</trkpt>
<trkpt lat="40.0713749" lon="-105.229789">
  <ele>1582.93</ele>
  <time>2026-08-28T17:51:10Z</time>
  <course>246.79</course>
  <speed>0.0</speed>
  <fix>3d</fix>
</trkpt>
<trkpt lat="40.0713749" lon="-105.229789">
  <ele>1583.0</ele>
  <time>2026-08-28T17:51:10Z</time>
  <course>0.0</course>
  <speed>0.0</speed>
  <fix>3d</fix>
</trkpt>
<trkpt lat="40.0713749" lon="-105.229789">
  <ele>1582.93</ele>
  <time>2026-08-28T17:51:10Z</time>
  <course>246.79</course>
  <speed>0.0</speed>
  <fix>3d</fix>
</trkpt>
<trkpt lat="40.0713749" lon="-105.229789">
  <ele>1583.0</ele>
  <time>2026-08-28T17:51:10Z</time>
  <course>0.0</course>
  <speed>0.0</speed>
  <fix>3d</fix>
</trkpt>
<trkpt lat="40.0713749" lon="-105.229789">
  <ele>1582.93</ele>
  <time>2026-08-28T17:51:10Z</time>
  <course>246.79</course>
  <speed>0.0</speed>
  <fix>3d</fix>
</trkpt>
<trkpt lat="40.0713749" lon="-105.229789">
  <ele>1583.0</ele>
  <time>2026-08-28T17:51:10Z</time>
  <course>0.0</course>
  <speed>0.0</speed>
  <fix>3d</fix>
</trkpt>
<trkpt lat="40.0713749" lon="-105.229789">
  <ele>1582.93</ele>
  <time>2026-08-28T17:51:10Z</time>
  <course>246.78</course>
  <speed>0.0</speed>
  <fix>3d</fix>
</trkpt>
<trkpt lat="40.0713749" lon="-105.229789">
  <ele>1583.0</ele>
  <time>2026-08-28T17:51:10Z</time>
  <course>0.0</course>
  <speed>0.0</speed>
  <fix>3d</fix>
</trkpt>
<trkpt lat="40.0713749" lon="-105.229789">
  <ele>1582.93</ele>
  <time>2026-08-28T17:51:10Z</time>
  <course>246.78</course>
  <speed>0.0</speed>
  <fix>3d</fix>
</trkpt>
<trkpt lat="40.0713749" lon="-105.229789">
  <ele>1583.0</ele>
  <time>2026-08-28T17:51:10Z</time>
  <course>0.0</course>
  <speed>0.0</speed>
  <fix>3d</fix>
</trkpt>
<trkpt lat="40.0713749" lon="-105.229789">
  <ele>1582.92</ele>
  <time>2026-08-28T17:51:10Z</time>
  <course>246.78</course>
  <speed>0.0</speed>
  <fix>3d</fix>
</trkpt>
<trkpt lat="40.0713749" lon="-105.229789">
  <ele>1583.0</ele>
  <time>2026-08-28T17:51:10Z</time>
  <course>0.0</course>
  <speed>0.0</speed>
  <fix>3d</fix>
</trkpt>
<trkpt lat="40.0713749" lon="-105.229789">
  <ele>1582.92</ele>
  <time>2026-08-28T17:51:10Z</time>
  <course>246.78</course>
  <speed>0.0</speed>
  <fix>3d</fix>
</trkpt>
<trkpt lat="40.0713749" lon="-105.229789">
  <ele>1583.0</ele>
  <time>2026-08-28T17:51:10Z</time>
  <course>0.0</course>
  <speed>0.0</speed>
  <fix>3d</fix>
</trkpt>
<trkpt lat="40.0713749" lon="-105.229789">
  <ele>1582.92</ele>
  <time>2026-08-28T17:51:10Z</time>
  <course>246.78</course>
  <speed>0.0</speed>
  <fix>3d</fix>
</trkpt>
<trkpt lat="40.0713749" lon="-105.229789">
  <ele>1583.0</ele>
  <time>2026-08-28T17:51:10Z</time>
  <course>0.0</course>
  <speed>0.0</speed>
  <fix>3d</fix>
</trkpt>
<trkpt lat="40.0713749" lon="-105.229789">
  <ele>1582.91</ele>
  <time>2026-08-28T17:51:10Z</time>
  <course>246.77</course>
  <speed>0.0</speed>
  <fix>3d</fix>
</trkpt>
<trkpt lat="40.0713749" lon="-105.229789">
  <ele>1583.0</ele>
  <time>2026-08-28T17:51:10Z</time>
  <course>0.0</course>
  <speed>0.0</speed>
  <fix>3d</fix>
</trkpt>
<trkpt lat="40.0713749" lon="-105.229789">
  <ele>1582.91</ele>
  <time>2026-08-28T17:51:10Z</time>
  <course>246.77</course>
  <speed>0.0</speed>
  <fix>3d</fix>
</trkpt>
<trkpt lat="40.0713749" lon="-105.229789">
  <ele>1583.0</ele>
  <time>2026-08-28T17:51:10Z</time>
  <course>0.0</course>
  <speed>0.0</speed>
  <fix>3d</fix>
</trkpt>
<trkpt lat="40.0713749" lon="-105.229789">
  <ele>1582.91</ele>
  <time>2026-08-28T17:51:10Z</time>
  <course>246.77</course>
  <speed>0.0</speed>
  <fix>3d</fix>
</trkpt>
<trkpt lat="40.0713749" lon="-105.229789">
  <ele>1583.0</ele>
  <time>2026-08-28T17:51:10Z</time>
  <course>0.0</course>
  <speed>0.0</speed>
  <fix>3d</fix>
</trkpt>
<trkpt lat="40.0713749" lon="-105.229789">
  <ele>1582.9</ele>
  <time>2026-08-28T17:51:10Z</time>
  <course>246.77</course>
  <speed>0.0</speed>
  <fix>3d</fix>
</trkpt>
<trkpt lat="40.0713749" lon="-105.229789">
  <ele>1583.0</ele>
  <time>2026-08-28T17:51:10Z</time>
  <course>0.0</course>
  <speed>0.0</speed>
  <fix>3d</fix>
</trkpt>
<trkpt lat="40.0713749" lon="-105.229789">
  <ele>1582.9</ele>
  <time>2026-08-28T17:51:10Z</time>
  <course>246.77</course>
  <speed>0.0</speed>
  <fix>3d</fix>
</trkpt>
<trkpt lat="40.0713749" lon="-105.229789">
  <ele>1583.0</ele>
  <time>2026-08-28T17:51:10Z</time>
  <course>0.0</course>
  <speed>0.0</speed>
  <fix>3d</fix>
</trkpt>
<trkpt lat="40.0713749" lon="-105.229789">
  <ele>1582.9</ele>
  <time>2026-08-28T17:51:10Z</time>
  <course>246.76</course>
  <speed>0.0</speed>
  <fix>3d</fix>
</trkpt>
<trkpt lat="40.0713749" lon="-105.229789">
  <ele>1583.0</ele>
  <time>2026-08-28T17:51:10Z</time>
  <course>0.0</course>
  <speed>0.0</speed>
  <fix>3d</fix>
</trkpt>
<trkpt lat="40.0713749" lon="-105.229789">
  <ele>1582.9</ele>
  <time>2026-08-28T17:51:10Z</time>
  <course>246.76</course>
  <speed>0.0</speed>
  <fix>3d</fix>
</trkpt>
<trkpt lat="40.0713749" lon="-105.229789">
  <ele>1583.0</ele>
  <time>2026-08-28T17:51:10Z</time>
  <course>0.0</course>
  <speed>0.0</speed>
  <fix>3d</fix>
</trkpt>
<trkpt lat="40.0713749" lon="-105.229789">
  <ele>1582.89</ele>
  <time>2026-08-28T17:51:10Z</time>
  <course>246.76</course>
  <speed>0.0</speed>
  <fix>3d</fix>
</trkpt>
<trkpt lat="40.0713749" lon="-105.229789">
  <ele>1583.0</ele>
  <time>2026-08-28T17:51:10Z</time>
  <course>0.0</course>
  <speed>0.0</speed>
  <fix>3d</fix>
</trkpt>
<trkpt lat="40.0713749" lon="-105.229789">
  <ele>1582.89</ele>
  <time>2026-08-28T17:51:10Z</time>
  <course>246.76</course>
  <speed>0.0</speed>
  <fix>3d</fix>
</trkpt>
<trkpt lat="40.0713749" lon="-105.229789">
  <ele>1583.0</ele>
  <time>2026-08-28T17:51:10Z</time>
  <course>0.0</course>
  <speed>0.0</speed>
  <fix>3d</fix>
</trkpt>
<trkpt lat="40.0713749" lon="-105.229789">
  <ele>1582.89</ele>
  <time>2026-08-28T17:51:10Z</time>
  <course>246.75</course>
  <speed>0.0</speed>
  <fix>3d</fix>
</trkpt>
<trkpt lat="40.0713749" lon="-105.229789">
  <ele>1583.0</ele>
  <time>2026-08-28T17:51:10Z</time>
  <course>0.0</course>
  <speed>0.0</speed>
  <fix>3d</fix>
</trkpt>
<trkpt lat="40.0713749" lon="-105.229789">
  <ele>1582.89</ele>
  <time>2026-08-28T17:51:10Z</time>
  <course>246.75</course>
  <speed>0.0</speed>
  <fix>3d</fix>
</trkpt>
<trkpt lat="40.0713749" lon="-105.229789">
  <ele>1583.0</ele>
  <time>2026-08-28T17:51:10Z</time>
  <course>0.0</course>
  <speed>0.0</speed>
  <fix>3d</fix>
</trkpt>
<trkpt lat="40.0713749" lon="-105.229789">
  <ele>1582.89</ele>
  <time>2026-08-28T17:51:10Z</time>
  <course>246.75</course>
  <speed>0.0</speed>
  <fix>3d</fix>
</trkpt>
<trkpt lat="40.0713749" lon="-105.229789">
  <ele>1583.0</ele>
  <time>2026-08-28T17:51:10Z</time>
  <course>0.0</course>
  <speed>0.0</speed>
  <fix>3d</fix>
</trkpt>
<trkpt lat="40.0713749" lon="-105.229789">
  <ele>1582.89</ele>
  <time>2026-08-28T17:51:10Z</time>
  <course>246.75</course>
  <speed>0.0</speed>
  <fix>3d</fix>
</trkpt>
<trkpt lat="40.0713749" lon="-105.229789">
  <ele>1583.0</ele>
  <time>2026-08-28T17:51:10Z</time>
  <course>0.0</course>
  <speed>0.0</speed>
  <fix>3d</fix>
</trkpt>
<trkpt lat="40.0713749" lon="-105.229789">
  <ele>1582.89</ele>
  <time>2026-08-28T17:51:10Z</time>
  <course>246.75</course>
  <speed>0.0</speed>
  <fix>3d</fix>
</trkpt>
<trkpt lat="40.0713749" lon="-105.229789">
  <ele>1583.0</ele>
  <time>2026-08-28T17:51:10Z</time>
  <course>0.0</course>
  <speed>0.0</speed>
  <fix>3d</fix>
</trkpt>
<trkpt lat="40.0713749" lon="-105.229789">
  <ele>1582.89</ele>
  <time>2026-08-28T17:51:10Z</time>
  <course>246.74</course>
  <speed>0.0</speed>
  <fix>3d</fix>
</trkpt>
<trkpt lat="40.0713749" lon="-105.229789">
  <ele>1583.0</ele>
  <time>2026-08-28T17:51:10Z</time>
  <course>0.0</course>
  <speed>0.0</speed>
  <fix>3d</fix>
</trkpt>
<trkpt lat="40.0713749" lon="-105.229789">
  <ele>1582.89</ele>
  <time>2026-08-28T17:51:10Z</time>
  <course>246.74</course>
  <speed>0.0</speed>
  <fix>3d</fix>
</trkpt>
<trkpt lat="40.0713749" lon="-105.229789">
  <ele>1583.0</ele>
  <time>2026-08-28T17:51:10Z</time>
  <course>0.0</course>
  <speed>0.0</speed>
  <fix>3d</fix>
</trkpt>
<trkpt lat="40.0713749" lon="-105.229789">
  <ele>1582.89</ele>
  <time>2026-08-28T17:51:10Z</time>
  <course>246.74</course>
  <speed>0.0</speed>
  <fix>3d</fix>
</trkpt>
<trkpt lat="40.0713749" lon="-105.229789">
  <ele>1583.0</ele>
  <time>2026-08-28T17:51:10Z</time>
  <course>0.0</course>
  <speed>0.0</speed>
  <fix>3d</fix>
</trkpt>
<trkpt lat="40.0713749" lon="-105.229789">
  <ele>1582.9</ele>
  <time>2026-08-28T17:51:10Z</time>
  <course>246.74</course>
  <speed>0.0</speed>
  <fix>3d</fix>
</trkpt>
<trkpt lat="40.0713749" lon="-105.229789">
  <ele>1583.0</ele>
  <time>2026-08-28T17:51:10Z</time>
  <course>0.0</course>
  <speed>0.0</speed>
  <fix>3d</fix>
</trkpt>
<trkpt lat="40.0713749" lon="-105.229789">
  <ele>1582.9</ele>
  <time>2026-08-28T17:51:10Z</time>
  <course>246.73</course>
  <speed>0.0</speed>
  <fix>3d</fix>
</trkpt>
<trkpt lat="40.0713749" lon="-105.229789">
  <ele>1583.0</ele>
  <time>2026-08-28T17:51:10Z</time>
  <course>0.0</course>
  <speed>0.0</speed>
  <fix>3d</fix>
</trkpt>
<trkpt lat="40.0713749" lon="-105.229789">
  <ele>1582.91</ele>
  <time>2026-08-28T17:51:10Z</time>
  <course>246.73</course>
  <speed>0.0</speed>
  <fix>3d</fix>
</trkpt>
<trkpt lat="40.0713749" lon="-105.229789">
  <ele>1583.0</ele>
  <time>2026-08-28T17:51:10Z</time>
  <course>0.0</course>
  <speed>0.0</speed>
  <fix>3d</fix>
</trkpt>
<trkpt lat="40.0713749" lon="-105.229789">
  <ele>1582.91</ele>
  <time>2026-08-28T17:51:10Z</time>
  <course>246.73</course>
  <speed>0.0</speed>
  <fix>3d</fix>
</trkpt>
<trkpt lat="40.0713749" lon="-105.229789">
  <ele>1583.0</ele>
  <time>2026-08-28T17:51:10Z</time>
  <course>0.0</course>
  <speed>0.0</speed>
  <fix>3d</fix>
</trkpt>
<trkpt lat="40.0713749" lon="-105.229789">
  <ele>1582.91</ele>
  <time>2026-08-28T17:51:10Z</time>
  <course>246.73</course>
  <speed>0.0</speed>
  <fix>3d</fix>
</trkpt>
<trkpt lat="40.0713749" lon="-105.229789">
  <ele>1583.0</ele>
  <time>2026-08-28T17:51:10Z</time>
  <course>0.0</course>
  <speed>0.0</speed>
  <fix>3d</fix>
</trkpt>
<trkpt lat="40.0713749" lon="-105.229789">
  <ele>1582.92</ele>
  <time>2026-08-28T17:51:10Z</time>
  <course>246.72</course>
  <speed>0.0</speed>
  <fix>3d</fix>
</trkpt>
<trkpt lat="40.0713749" lon="-105.229789">
  <ele>1583.0</ele>
  <time>2026-08-28T17:51:10Z</time>
  <course>0.0</course>
  <speed>0.0</speed>
  <fix>3d</fix>
</trkpt>
<trkpt lat="40.0713749" lon="-105.229789">
  <ele>1582.92</ele>
  <time>2026-08-28T17:51:10Z</time>
  <course>246.72</course>
  <speed>0.0</speed>
  <fix>3d</fix>
</trkpt>
<trkpt lat="40.0713749" lon="-105.229789">
  <ele>1583.0</ele>
  <time>2026-08-28T17:51:10Z</time>
  <course>0.0</course>
  <speed>0.0</speed>
  <fix>3d</fix>
</trkpt>
<trkpt lat="40.0713749" lon="-105.229789">
  <ele>1582.92</ele>
  <time>2026-08-28T17:51:10Z</time>
  <course>246.72</course>
  <speed>0.0</speed>
  <fix>3d</fix>
</trkpt>
<trkpt lat="40.0713749" lon="-105.229789">
  <ele>1583.0</ele>
  <time>2026-08-28T17:51:10Z</time>
  <course>0.0</course>
  <speed>0.0</speed>
  <fix>3d</fix>
</trkpt>
<trkpt lat="40.0713749" lon="-105.229789">
  <ele>1582.92</ele>
  <time>2026-08-28T17:51:10Z</time>
  <course>246.72</course>
  <speed>0.0</speed>
  <fix>3d</fix>
</trkpt>
<trkpt lat="40.0713749" lon="-105.229789">
  <ele>1583.0</ele>
  <time>2026-08-28T17:51:10Z</time>
  <course>0.0</course>
  <speed>0.0</speed>
  <fix>3d</fix>
</trkpt>
<trkpt lat="40.0713749" lon="-105.229789">
  <ele>1582.92</ele>
  <time>2026-08-28T17:51:10Z</time>
  <course>246.72</course>
  <speed>0.0</speed>
  <fix>3d</fix>
</trkpt>
<trkpt lat="40.0713749" lon="-105.229789">
  <ele>1583.0</ele>
  <time>2026-08-28T17:51:10Z</time>
  <course>0.0</course>
  <speed>0.0</speed>
  <fix>3d</fix>
</trkpt>
<trkpt lat="40.0713749" lon="-105.229789">
  <ele>1582.92</ele>
  <time>2026-08-28T17:51:10Z</time>
  <course>246.71</course>
  <speed>0.0</speed>
  <fix>3d</fix>
</trkpt>
<trkpt lat="40.0713749" lon="-105.229789">
  <ele>1583.0</ele>
  <time>2026-08-28T17:51:10Z</time>
  <course>0.0</course>
  <speed>0.0</speed>
  <fix>3d</fix>
</trkpt>
<trkpt lat="40.0713749" lon="-105.229789">
  <ele>1582.92</ele>
  <time>2026-08-28T17:51:10Z</time>
  <course>246.71</course>
  <speed>0.0</speed>
  <fix>3d</fix>
</trkpt>
<trkpt lat="40.0713749" lon="-105.229789">
  <ele>1583.0</ele>
  <time>2026-08-28T17:51:10Z</time>
  <course>0.0</course>
  <speed>0.0</speed>
  <fix>3d</fix>
</trkpt>
<trkpt lat="40.0713749" lon="-105.229789">
  <ele>1582.93</ele>
  <time>2026-08-28T17:51:10Z</time>
  <course>246.71</course>
  <speed>0.0</speed>
  <fix>3d</fix>
</trkpt>
<trkpt lat="40.0713749" lon="-105.229789">
  <ele>1583.0</ele>
  <time>2026-08-28T17:51:10Z</time>
  <course>0.0</course>
  <speed>0.0</speed>
  <fix>3d</fix>
</trkpt>
<trkpt lat="40.0713749" lon="-105.229789">
  <ele>1582.93</ele>
  <time>2026-08-28T17:51:10Z</time>
  <course>246.71</course>
  <speed>0.0</speed>
  <fix>3d</fix>
</trkpt>
<trkpt lat="40.0713749" lon="-105.229789">
  <ele>1583.0</ele>
  <time>2026-08-28T17:51:10Z</time>
  <course>0.0</course>
  <speed>0.0</speed>
  <fix>3d</fix>
</trkpt>
<trkpt lat="40.0713749" lon="-105.229789">
  <ele>1582.94</ele>
  <time>2026-08-28T17:51:10Z</time>
  <course>246.7</course>
  <speed>0.0</speed>
  <fix>3d</fix>
</trkpt>
<trkpt lat="40.0713749" lon="-105.229789">
  <ele>1583.0</ele>
  <time>2026-08-28T17:51:10Z</time>
  <course>0.0</course>
  <speed>0.0</speed>
  <fix>3d</fix>
</trkpt>
<trkpt lat="40.0713749" lon="-105.229789">
  <ele>1582.94</ele>
  <time>2026-08-28T17:51:10Z</time>
  <course>246.7</course>
  <speed>0.0</speed>
  <fix>3d</fix>
</trkpt>
<trkpt lat="40.0713749" lon="-105.229789">
  <ele>1583.0</ele>
  <time>2026-08-28T17:51:10Z</time>
  <course>0.0</course>
  <speed>0.0</speed>
  <fix>3d</fix>
</trkpt>
<trkpt lat="40.0713749" lon="-105.229789">
  <ele>1582.94</ele>
  <time>2026-08-28T17:51:10Z</time>
  <course>246.7</course>
  <speed>0.0</speed>
  <fix>3d</fix>
</trkpt>
<trkpt lat="40.0713749" lon="-105.229789">
  <ele>1583.0</ele>
  <time>2026-08-28T17:51:10Z</time>
  <course>0.0</course>
  <speed>0.0</speed>
  <fix>3d</fix>
</trkpt>
<trkpt lat="40.0713749" lon="-105.229789">
  <ele>1582.94</ele>
  <time>2026-08-28T17:51:10Z</time>
  <course>246.7</course>
  <speed>0.0</speed>
  <fix>3d</fix>
</trkpt>
<trkpt lat="40.0713749" lon="-105.229789">
  <ele>1583.0</ele>
  <time>2026-08-28T17:51:10Z</time>
  <course>0.0</course>
  <speed>0.0</speed>
  <fix>3d</fix>
</trkpt>
<trkpt lat="40.0713749" lon="-105.229789">
  <ele>1582.95</ele>
  <time>2026-08-28T17:51:10Z</time>
  <course>246.69</course>
  <speed>0.0</speed>
  <fix>3d</fix>
</trkpt>
<trkpt lat="40.0713749" lon="-105.229789">
  <ele>1583.0</ele>
  <time>2026-08-28T17:51:10Z</time>
  <course>0.0</course>
  <speed>0.0</speed>
  <fix>3d</fix>
</trkpt>
<trkpt lat="40.0713749" lon="-105.229789">
  <ele>1582.95</ele>
  <time>2026-08-28T17:51:10Z</time>
  <course>246.69</course>
  <speed>0.0</speed>
  <fix>3d</fix>
</trkpt>
<trkpt lat="40.0713749" lon="-105.229789">
  <ele>1583.0</ele>
  <time>2026-08-28T17:51:10Z</time>
  <course>0.0</course>
  <speed>0.0</speed>
  <fix>3d</fix>
</trkpt>
<trkpt lat="40.0713749" lon="-105.229789">
  <ele>1582.95</ele>
  <time>2026-08-28T17:51:10Z</time>
  <course>246.69</course>
  <speed>0.0</speed>
  <fix>3d</fix>
</trkpt>
<trkpt lat="40.0713749" lon="-105.229789">
  <ele>1583.0</ele>
  <time>2026-08-28T17:51:10Z</time>
  <course>0.0</course>
  <speed>0.0</speed>
  <fix>3d</fix>
</trkpt>
<trkpt lat="40.0713749" lon="-105.229789">
  <ele>1582.96</ele>
  <time>2026-08-28T17:51:10Z</time>
  <course>246.69</course>
  <speed>0.0</speed>
  <fix>3d</fix>
</trkpt>
<trkpt lat="40.0713749" lon="-105.229789">
  <ele>1583.0</ele>
  <time>2026-08-28T17:51:10Z</time>
  <course>0.0</course>
  <speed>0.0</speed>
  <fix>3d</fix>
</trkpt>
<trkpt lat="40.0713749" lon="-105.229789">
  <ele>1582.96</ele>
  <time>2026-08-28T17:51:10Z</time>
  <course>246.69</course>
  <speed>0.0</speed>
  <fix>3d</fix>
</trkpt>
<trkpt lat="40.0713749" lon="-105.229789">
  <ele>1583.0</ele>
  <time>2026-08-28T17:51:10Z</time>
  <course>0.0</course>
  <speed>0.0</speed>
  <fix>3d</fix>
</trkpt>
<trkpt lat="40.0713749" lon="-105.229789">
  <ele>1582.97</ele>
  <time>2026-08-28T17:51:10Z</time>
  <course>246.68</course>
  <speed>0.0</speed>
  <fix>3d</fix>
</trkpt>
<trkpt lat="40.0713749" lon="-105.229789">
  <ele>1583.0</ele>
  <time>2026-08-28T17:51:10Z</time>
  <course>0.0</course>
  <speed>0.0</speed>
  <fix>3d</fix>
</trkpt>
<trkpt lat="40.0713749" lon="-105.229789">
  <ele>1582.97</ele>
  <time>2026-08-28T17:51:10Z</time>
  <course>246.68</course>
  <speed>0.0</speed>
  <fix>3d</fix>
</trkpt>
<trkpt lat="40.0713749" lon="-105.229789">
  <ele>1583.0</ele>
  <time>2026-08-28T17:51:10Z</time>
  <course>0.0</course>
  <speed>0.0</speed>
  <fix>3d</fix>
</trkpt>
<trkpt lat="40.0713749" lon="-105.229789">
  <ele>1582.98</ele>
  <time>2026-08-28T17:51:10Z</time>
  <course>246.68</course>
  <speed>0.0</speed>
  <fix>3d</fix>
</trkpt>
<trkpt lat="40.0713749" lon="-105.229789">
  <ele>1583.0</ele>
  <time>2026-08-28T17:51:10Z</time>
  <course>0.0</course>
  <speed>0.0</speed>
  <fix>3d</fix>
</trkpt>
<trkpt lat="40.0713749" lon="-105.229789">
  <ele>1582.98</ele>
  <time>2026-08-28T17:51:10Z</time>
  <course>246.68</course>
  <speed>0.0</speed>
  <fix>3d</fix>
</trkpt>
<trkpt lat="40.0713749" lon="-105.229789">
  <ele>1583.0</ele>
  <time>2026-08-28T17:51:10Z</time>
  <course>0.0</course>
  <speed>0.0</speed>
  <fix>3d</fix>
</trkpt>
<trkpt lat="40.0713749" lon="-105.229789">
  <ele>1582.98</ele>
  <time>2026-08-28T17:51:10Z</time>
  <course>246.67</course>
  <speed>0.0</speed>
  <fix>3d</fix>
</trkpt>
<trkpt lat="40.0713749" lon="-105.229789">
  <ele>1583.0</ele>
  <time>2026-08-28T17:51:10Z</time>
  <course>0.0</course>
  <speed>0.0</speed>
  <fix>3d</fix>
</trkpt>
<trkpt lat="40.0713749" lon="-105.229789">
  <ele>1582.99</ele>
  <time>2026-08-28T17:51:10Z</time>
  <course>246.67</course>
  <speed>0.0</speed>
  <fix>3d</fix>
</trkpt>
<trkpt lat="40.0713749" lon="-105.229789">
  <ele>1583.0</ele>
  <time>2026-08-28T17:51:10Z</time>
  <course>0.0</course>
  <speed>0.0</speed>
  <fix>3d</fix>
</trkpt>
<trkpt lat="40.0713749" lon="-105.229789">
  <ele>1582.99</ele>
  <time>2026-08-28T17:51:10Z</time>
  <course>246.67</course>
  <speed>0.0</speed>
  <fix>3d</fix>
</trkpt>
<trkpt lat="40.0713749" lon="-105.229789">
  <ele>1583.0</ele>
  <time>2026-08-28T17:51:10Z</time>
  <course>0.0</course>
  <speed>0.0</speed>
  <fix>3d</fix>
</trkpt>
<trkpt lat="40.0713749" lon="-105.229789">
  <ele>1583.0</ele>
  <time>2026-08-28T17:51:10Z</time>
  <course>246.67</course>
  <speed>0.01</speed>
  <fix>3d</fix>
</trkpt>
<trkpt lat="40.0713749" lon="-105.229789">
  <ele>1583.0</ele>
  <time>2026-08-28T17:51:10Z</time>
  <course>0.0</course>
  <speed>0.0</speed>
  <fix>3d</fix>
</trkpt>
<trkpt lat="40.0713749" lon="-105.229789">
  <ele>1583.0</ele>
  <time>2026-08-28T17:51:10Z</time>
  <course>246.66</course>
  <speed>0.01</speed>
  <fix>3d</fix>
</trkpt>
<trkpt lat="40.0713749" lon="-105.229789">
  <ele>1583.0</ele>
  <time>2026-08-28T17:51:10Z</time>
  <course>0.0</course>
  <speed>0.0</speed>
  <fix>3d</fix>
</trkpt>
<trkpt lat="40.0713749" lon="-105.229789">
  <ele>1583.01</ele>
  <time>2026-08-28T17:51:10Z</time>
  <course>246.66</course>
  <speed>0.01</speed>
  <fix>3d</fix>
</trkpt>
<trkpt lat="40.0713749" lon="-105.229789">
  <ele>1583.0</ele>
  <time>2026-08-28T17:51:10Z</time>
  <course>0.0</course>
  <speed>0.0</speed>
  <fix>3d</fix>
</trkpt>
<trkpt lat="40.0713749" lon="-105.229789">
  <ele>1583.01</ele>
  <time>2026-08-28T17:51:10Z</time>
  <course>246.66</course>
  <speed>0.01</speed>
  <fix>3d</fix>
</trkpt>
<trkpt lat="40.0713749" lon="-105.229789">
  <ele>1583.0</ele>
  <time>2026-08-28T17:51:10Z</time>
  <course>0.0</course>
  <speed>0.0</speed>
  <fix>3d</fix>
</trkpt>
<trkpt lat="40.0713749" lon="-105.229789">
  <ele>1583.02</ele>
  <time>2026-08-28T17:51:10Z</time>
  <course>246.66</course>
  <speed>0.01</speed>
  <fix>3d</fix>
</trkpt>
<trkpt lat="40.0713749" lon="-105.229789">
  <ele>1583.0</ele>
  <time>2026-08-28T17:51:10Z</time>
  <course>0.0</course>
  <speed>0.0</speed>
  <fix>3d</fix>
</trkpt>
<trkpt lat="40.0713749" lon="-105.229789">
  <ele>1583.02</ele>
  <time>2026-08-28T17:51:10Z</time>
  <course>246.65</course>
  <speed>0.01</speed>
  <fix>3d</fix>
</trkpt>
<trkpt lat="40.0713749" lon="-105.229789">
  <ele>1583.0</ele>
  <time>2026-08-28T17:51:10Z</time>
  <course>0.0</course>
  <speed>0.0</speed>
  <fix>3d</fix>
</trkpt>
<trkpt lat="40.0713749" lon="-105.229789">
  <ele>1583.03</ele>
  <time>2026-08-28T17:51:10Z</time>
  <course>246.65</course>
  <speed>0.01</speed>
  <fix>3d</fix>
</trkpt>
<trkpt lat="40.0713749" lon="-105.229789">
  <ele>1583.0</ele>
  <time>2026-08-28T17:51:10Z</time>
  <course>0.0</course>
  <speed>0.0</speed>
  <fix>3d</fix>
</trkpt>
<trkpt lat="40.0713749" lon="-105.229789">
  <ele>1583.04</ele>
  <time>2026-08-28T17:51:10Z</time>
  <course>246.65</course>
  <speed>0.01</speed>
  <fix>3d</fix>
</trkpt>
<trkpt lat="40.0713749" lon="-105.229789">
  <ele>1583.0</ele>
  <time>2026-08-28T17:51:10Z</time>
  <course>0.0</course>
  <speed>0.0</speed>
  <fix>3d</fix>
</trkpt>
<trkpt lat="40.0713749" lon="-105.229789">
  <ele>1583.05</ele>
  <time>2026-08-28T17:51:10Z</time>
  <course>246.65</course>
  <speed>0.01</speed>
  <fix>3d</fix>
</trkpt>
<trkpt lat="40.0713749" lon="-105.229789">
  <ele>1583.0</ele>
  <time>2026-08-28T17:51:10Z</time>
  <course>0.0</course>
  <speed>0.0</speed>
  <fix>3d</fix>
</trkpt>
<trkpt lat="40.0713749" lon="-105.229789">
  <ele>1583.05</ele>
  <time>2026-08-28T17:51:10Z</time>
  <course>246.64</course>
  <speed>0.01</speed>
  <fix>3d</fix>
</trkpt>
<trkpt lat="40.0713749" lon="-105.229789">
  <ele>1583.0</ele>
  <time>2026-08-28T17:51:10Z</time>
  <course>0.0</course>
  <speed>0.0</speed>
  <fix>3d</fix>
</trkpt>
<trkpt lat="40.0713749" lon="-105.229789">
  <ele>1583.06</ele>
  <time>2026-08-28T17:51:10Z</time>
  <course>246.64</course>
  <speed>0.01</speed>
  <fix>3d</fix>
</trkpt>
<trkpt lat="40.0713749" lon="-105.229789">
  <ele>1583.0</ele>
  <time>2026-08-28T17:51:10Z</time>
  <course>0.0</course>
  <speed>0.0</speed>
  <fix>3d</fix>
</trkpt>
<trkpt lat="40.0713749" lon="-105.229789">
  <ele>1583.06</ele>
  <time>2026-08-28T17:51:10Z</time>
  <course>246.64</course>
  <speed>0.01</speed>
  <fix>3d</fix>
</trkpt>
<trkpt lat="40.0713749" lon="-105.229789">
  <ele>1583.0</ele>
  <time>2026-08-28T17:51:10Z</time>
  <course>0.0</course>
  <speed>0.0</speed>
  <fix>3d</fix>
</trkpt>
<trkpt lat="40.0713749" lon="-105.229789">
  <ele>1583.07</ele>
  <time>2026-08-28T17:51:10Z</time>
  <course>246.64</course>
  <speed>0.01</speed>
  <fix>3d</fix>
</trkpt>
<trkpt lat="40.0713749" lon="-105.229789">
  <ele>1583.0</ele>
  <time>2026-08-28T17:51:10Z</time>
  <course>0.0</course>
  <speed>0.0</speed>
  <fix>3d</fix>
</trkpt>
<trkpt lat="40.0713749" lon="-105.229789">
  <ele>1583.07</ele>
  <time>2026-08-28T17:51:10Z</time>
  <course>246.63</course>
  <speed>0.01</speed>
  <fix>3d</fix>
</trkpt>
<trkpt lat="40.0713749" lon="-105.229789">
  <ele>1583.0</ele>
  <time>2026-08-28T17:51:10Z</time>
  <course>0.0</course>
  <speed>0.0</speed>
  <fix>3d</fix>
</trkpt>
<trkpt lat="40.0713749" lon="-105.229789">
  <ele>1583.07</ele>
  <time>2026-08-28T17:51:10Z</time>
  <course>246.63</course>
  <speed>0.01</speed>
  <fix>3d</fix>
</trkpt>
<trkpt lat="40.0713749" lon="-105.229789">
  <ele>1583.0</ele>
  <time>2026-08-28T17:51:10Z</time>
  <course>0.0</course>
  <speed>0.0</speed>
  <fix>3d</fix>
</trkpt>
<trkpt lat="40.0713749" lon="-105.229789">
  <ele>1583.07</ele>
  <time>2026-08-28T17:51:10Z</time>
  <course>246.63</course>
  <speed>0.01</speed>
  <fix>3d</fix>
</trkpt>
<trkpt lat="40.0713749" lon="-105.229789">
  <ele>1583.0</ele>
  <time>2026-08-28T17:51:10Z</time>
  <course>0.0</course>
  <speed>0.0</speed>
  <fix>3d</fix>
</trkpt>
<trkpt lat="40.0713749" lon="-105.229789">
  <ele>1583.06</ele>
  <time>2026-08-28T17:51:10Z</time>
  <course>246.63</course>
  <speed>0.01</speed>
  <fix>3d</fix>
</trkpt>
<trkpt lat="40.0713749" lon="-105.229789">
  <ele>1583.0</ele>
  <time>2026-08-28T17:51:10Z</time>
  <course>0.0</course>
  <speed>0.0</speed>
  <fix>3d</fix>
</trkpt>
<trkpt lat="40.0713749" lon="-105.229789">
  <ele>1583.06</ele>
  <time>2026-08-28T17:51:10Z</time>
  <course>246.62</course>
  <speed>0.01</speed>
  <fix>3d</fix>
</trkpt>
<trkpt lat="40.0713749" lon="-105.229789">
  <ele>1583.0</ele>
  <time>2026-08-28T17:51:10Z</time>
  <course>0.0</course>
  <speed>0.0</speed>
  <fix>3d</fix>
</trkpt>
<trkpt lat="40.0713749" lon="-105.229789">
  <ele>1583.05</ele>
  <time>2026-08-28T17:51:10Z</time>
  <course>246.62</course>
  <speed>0.01</speed>
  <fix>3d</fix>
</trkpt>
<trkpt lat="40.0713749" lon="-105.229789">
  <ele>1583.0</ele>
  <time>2026-08-28T17:51:10Z</time>
  <course>0.0</course>
  <speed>0.0</speed>
  <fix>3d</fix>
</trkpt>
<trkpt lat="40.0713749" lon="-105.229789">
  <ele>1583.05</ele>
  <time>2026-08-28T17:51:10Z</time>
  <course>246.62</course>
  <speed>0.01</speed>
  <fix>3d</fix>
</trkpt>
<trkpt lat="40.0713749" lon="-105.229789">
  <ele>1583.0</ele>
  <time>2026-08-28T17:51:10Z</time>
  <course>0.0</course>
  <speed>0.0</speed>
  <fix>3d</fix>
</trkpt>
<trkpt lat="40.0713749" lon="-105.229789">
  <ele>1583.04</ele>
  <time>2026-08-28T17:51:10Z</time>
  <course>246.62</course>
  <speed>0.01</speed>
  <fix>3d</fix>
</trkpt>
<trkpt lat="40.0713749" lon="-105.229789">
  <ele>1583.0</ele>
  <time>2026-08-28T17:51:10Z</time>
  <course>0.0</course>
  <speed>0.0</speed>
  <fix>3d</fix>
</trkpt>
<trkpt lat="40.0713749" lon="-105.229789">
  <ele>1583.03</ele>
  <time>2026-08-28T17:51:10Z</time>
  <course>246.61</course>
  <speed>0.01</speed>
  <fix>3d</fix>
</trkpt>
<trkpt lat="40.0713749" lon="-105.229789">
  <ele>1583.0</ele>
  <time>2026-08-28T17:51:10Z</time>
  <course>0.0</course>
  <speed>0.0</speed>
  <fix>3d</fix>
</trkpt>
<trkpt lat="40.0713749" lon="-105.229789">
  <ele>1583.03</ele>
  <time>2026-08-28T17:51:10Z</time>
  <course>246.61</course>
  <speed>0.01</speed>
  <fix>3d</fix>
</trkpt>
<trkpt lat="40.0713749" lon="-105.229789">
  <ele>1583.0</ele>
  <time>2026-08-28T17:51:10Z</time>
  <course>0.0</course>
  <speed>0.0</speed>
  <fix>3d</fix>
</trkpt>
<trkpt lat="40.0713749" lon="-105.229789">
  <ele>1583.03</ele>
  <time>2026-08-28T17:51:10Z</time>
  <course>246.61</course>
  <speed>0.01</speed>
  <fix>3d</fix>
</trkpt>
<trkpt lat="40.0713749" lon="-105.229789">
  <ele>1583.0</ele>
  <time>2026-08-28T17:51:10Z</time>
  <course>0.0</course>
  <speed>0.0</speed>
  <fix>3d</fix>
</trkpt>
<trkpt lat="40.0713749" lon="-105.229789">
  <ele>1583.04</ele>
  <time>2026-08-28T17:51:10Z</time>
  <course>246.61</course>
  <speed>0.01</speed>
  <fix>3d</fix>
</trkpt>
<trkpt lat="40.0713749" lon="-105.229789">
  <ele>1583.0</ele>
  <time>2026-08-28T17:51:10Z</time>
  <course>0.0</course>
  <speed>0.0</speed>
  <fix>3d</fix>
</trkpt>
<trkpt lat="40.0713749" lon="-105.229789">
  <ele>1583.04</ele>
  <time>2026-08-28T17:51:10Z</time>
  <course>246.6</course>
  <speed>0.01</speed>
  <fix>3d</fix>
</trkpt>
<trkpt lat="40.0713749" lon="-105.229789">
  <ele>1583.0</ele>
  <time>2026-08-28T17:51:10Z</time>
  <course>0.0</course>
  <speed>0.0</speed>
  <fix>3d</fix>
</trkpt>
<trkpt lat="40.0713749" lon="-105.229789">
  <ele>1583.04</ele>
  <time>2026-08-28T17:51:10Z</time>
  <course>246.6</course>
  <speed>0.01</speed>
  <fix>3d</fix>
</trkpt>
<trkpt lat="40.0713749" lon="-105.229789">
  <ele>1583.0</ele>
  <time>2026-08-28T17:51:10Z</time>
  <course>0.0</course>
  <speed>0.0</speed>
  <fix>3d</fix>
</trkpt>
<trkpt lat="40.0713749" lon="-105.229789">
  <ele>1583.04</ele>
  <time>2026-08-28T17:51:10Z</time>
  <course>246.6</course>
  <speed>0.01</speed>
  <fix>3d</fix>
</trkpt>
<trkpt lat="40.0713749" lon="-105.229789">
  <ele>1583.0</ele>
  <time>2026-08-28T17:51:10Z</time>
  <course>0.0</course>
  <speed>0.0</speed>
  <fix>3d</fix>
</trkpt>
<trkpt lat="40.0713749" lon="-105.229789">
  <ele>1583.04</ele>
  <time>2026-08-28T17:51:10Z</time>
  <course>246.6</course>
  <speed>0.01</speed>
  <fix>3d</fix>
</trkpt>
<trkpt lat="40.0713749" lon="-105.229789">
  <ele>1583.0</ele>
  <time>2026-08-28T17:51:10Z</time>
  <course>0.0</course>
  <speed>0.0</speed>
  <fix>3d</fix>
</trkpt>
<trkpt lat="40.0713749" lon="-105.229789">
  <ele>1583.04</ele>
  <time>2026-08-28T17:51:10Z</time>
  <course>246.59</course>
  <speed>0.01</speed>
  <fix>3d</fix>
</trkpt>
<trkpt lat="40.0713749" lon="-105.229789">
  <ele>1583.0</ele>
  <time>2026-08-28T17:51:10Z</time>
  <course>0.0</course>
  <speed>0.0</speed>
  <fix>3d</fix>
</trkpt>
<trkpt lat="40.0713749" lon="-105.229789">
  <ele>1583.04</ele>
  <time>2026-08-28T17:51:10Z</time>
  <course>246.59</course>
  <speed>0.01</speed>
  <fix>3d</fix>
</trkpt>
<trkpt lat="40.0713749" lon="-105.229789">
  <ele>1583.0</ele>
  <time>2026-08-28T17:51:10Z</time>
  <course>0.0</course>
  <speed>0.0</speed>
  <fix>3d</fix>
</trkpt>
<trkpt lat="40.0713749" lon="-105.229789">
  <ele>1583.04</ele>
  <time>2026-08-28T17:51:10Z</time>
  <course>246.59</course>
  <speed>0.01</speed>
  <fix>3d</fix>
</trkpt>
<trkpt lat="40.0713749" lon="-105.229789">
  <ele>1583.0</ele>
  <time>2026-08-28T17:51:10Z</time>
  <course>0.0</course>
  <speed>0.0</speed>
  <fix>3d</fix>
</trkpt>
<trkpt lat="40.0713749" lon="-105.229789">
  <ele>1583.04</ele>
  <time>2026-08-28T17:51:10Z</time>
  <course>246.59</course>
  <speed>0.01</speed>
  <fix>3d</fix>
</trkpt>
<trkpt lat="40.0713749" lon="-105.229789">
  <ele>1583.0</ele>
  <time>2026-08-28T17:51:10Z</time>
  <course>0.0</course>
  <speed>0.0</speed>
  <fix>3d</fix>
</trkpt>
<trkpt lat="40.0713749" lon="-105.229789">
  <ele>1583.04</ele>
  <time>2026-08-28T17:51:10Z</time>
  <course>246.58</course>
  <speed>0.01</speed>
  <fix>3d</fix>
</trkpt>
<trkpt lat="40.0713749" lon="-105.229789">
  <ele>1583.0</ele>
  <time>2026-08-28T17:51:10Z</time>
  <course>0.0</course>
  <speed>0.0</speed>
  <fix>3d</fix>
</trkpt>
<trkpt lat="40.0713748" lon="-105.229789">
  <ele>1583.04</ele>
  <time>2026-08-28T17:51:10Z</time>
  <course>246.58</course>
  <speed>0.01</speed>
  <fix>3d</fix>
</trkpt>
<trkpt lat="40.0713749" lon="-105.229789">
  <ele>1583.0</ele>
  <time>2026-08-28T17:51:10Z</time>
  <course>0.0</course>
  <speed>0.0</speed>
  <fix>3d</fix>
</trkpt>
<trkpt lat="40.0713749" lon="-105.229789">
  <ele>1583.04</ele>
  <time>2026-08-28T17:51:10Z</time>
  <course>246.58</course>
  <speed>0.01</speed>
  <fix>3d</fix>
</trkpt>
<trkpt lat="40.0713749" lon="-105.229789">
  <ele>1583.0</ele>
  <time>2026-08-28T17:51:10Z</time>
  <course>0.0</course>
  <speed>0.0</speed>
  <fix>3d</fix>
</trkpt>
<trkpt lat="40.0713748" lon="-105.229789">
  <ele>1583.04</ele>
  <time>2026-08-28T17:51:10Z</time>
  <course>246.58</course>
  <speed>0.01</speed>
  <fix>3d</fix>
</trkpt>
<trkpt lat="40.0713749" lon="-105.229789">
  <ele>1583.0</ele>
  <time>2026-08-28T17:51:10Z</time>
  <course>0.0</course>
  <speed>0.0</speed>
  <fix>3d</fix>
</trkpt>
<trkpt lat="40.0713748" lon="-105.229789">
  <ele>1583.03</ele>
  <time>2026-08-28T17:51:10Z</time>
  <course>246.57</course>
  <speed>0.01</speed>
  <fix>3d</fix>
</trkpt>
<trkpt lat="40.0713749" lon="-105.229789">
  <ele>1583.0</ele>
  <time>2026-08-28T17:51:10Z</time>
  <course>0.0</course>
  <speed>0.0</speed>
  <fix>3d</fix>
</trkpt>
<trkpt lat="40.0713748" lon="-105.229789">
  <ele>1583.03</ele>
  <time>2026-08-28T17:51:10Z</time>
  <course>246.57</course>
  <speed>0.01</speed>
  <fix>3d</fix>
</trkpt>
<trkpt lat="40.0713749" lon="-105.229789">
  <ele>1583.0</ele>
  <time>2026-08-28T17:51:10Z</time>
  <course>0.0</course>
  <speed>0.0</speed>
  <fix>3d</fix>
</trkpt>
<trkpt lat="40.0713748" lon="-105.229789">
  <ele>1583.03</ele>
  <time>2026-08-28T17:51:10Z</time>
  <course>246.57</course>
  <speed>0.01</speed>
  <fix>3d</fix>
</trkpt>
<trkpt lat="40.0713749" lon="-105.229789">
  <ele>1583.0</ele>
  <time>2026-08-28T17:51:10Z</time>
  <course>0.0</course>
  <speed>0.0</speed>
  <fix>3d</fix>
</trkpt>
<trkpt lat="40.0713748" lon="-105.229789">
  <ele>1583.02</ele>
  <time>2026-08-28T17:51:10Z</time>
  <course>246.57</course>
  <speed>0.01</speed>
  <fix>3d</fix>
</trkpt>
<trkpt lat="40.0713749" lon="-105.229789">
  <ele>1583.0</ele>
  <time>2026-08-28T17:51:10Z</time>
  <course>0.0</course>
  <speed>0.0</speed>
  <fix>3d</fix>
</trkpt>
<trkpt lat="40.0713748" lon="-105.229789">
  <ele>1583.02</ele>
  <time>2026-08-28T17:51:10Z</time>
  <course>246.56</course>
  <speed>0.01</speed>
  <fix>3d</fix>
</trkpt>
<trkpt lat="40.0713749" lon="-105.229789">
  <ele>1583.0</ele>
  <time>2026-08-28T17:51:10Z</time>
  <course>0.0</course>
  <speed>0.0</speed>
  <fix>3d</fix>
</trkpt>
<trkpt lat="40.0713748" lon="-105.229789">
  <ele>1583.02</ele>
  <time>2026-08-28T17:51:10Z</time>
  <course>246.56</course>
  <speed>0.01</speed>
  <fix>3d</fix>
</trkpt>
<trkpt lat="40.0713749" lon="-105.229789">
  <ele>1583.0</ele>
  <time>2026-08-28T17:51:10Z</time>
  <course>0.0</course>
  <speed>0.0</speed>
  <fix>3d</fix>
</trkpt>
<trkpt lat="40.0713748" lon="-105.229789">
  <ele>1583.01</ele>
  <time>2026-08-28T17:51:10Z</time>
  <course>246.56</course>
  <speed>0.01</speed>
  <fix>3d</fix>
</trkpt>
<trkpt lat="40.0713749" lon="-105.229789">
  <ele>1583.0</ele>
  <time>2026-08-28T17:51:10Z</time>
  <course>0.0</course>
  <speed>0.0</speed>
  <fix>3d</fix>
</trkpt>
<trkpt lat="40.0713748" lon="-105.229789">
  <ele>1583.01</ele>
  <time>2026-08-28T17:51:10Z</time>
  <course>246.56</course>
  <speed>0.01</speed>
  <fix>3d</fix>
</trkpt>
<trkpt lat="40.0713749" lon="-105.229789">
  <ele>1583.0</ele>
  <time>2026-08-28T17:51:10Z</time>
  <course>0.0</course>
  <speed>0.0</speed>
  <fix>3d</fix>
</trkpt>
<trkpt lat="40.0713748" lon="-105.229789">
  <ele>1583.0</ele>
  <time>2026-08-28T17:51:10Z</time>
  <course>246.55</course>
  <speed>0.01</speed>
  <fix>3d</fix>
</trkpt>
<trkpt lat="40.0713749" lon="-105.229789">
  <ele>1583.0</ele>
  <time>2026-08-28T17:51:10Z</time>
  <course>0.0</course>
  <speed>0.0</speed>
  <fix>3d</fix>
</trkpt>
<trkpt lat="40.0713748" lon="-105.229789">
  <ele>1583.0</ele>
  <time>2026-08-28T17:51:10Z</time>
  <course>246.55</course>
  <speed>0.01</speed>
  <fix>3d</fix>
</trkpt>
<trkpt lat="40.0713749" lon="-105.229789">
  <ele>1583.0</ele>
  <time>2026-08-28T17:51:10Z</time>
  <course>0.0</course>
  <speed>0.0</speed>
  <fix>3d</fix>
</trkpt>
<trkpt lat="40.0713748" lon="-105.229789">
  <ele>1582.99</ele>
  <time>2026-08-28T17:51:10Z</time>
  <course>246.55</course>
  <speed>0.01</speed>
  <fix>3d</fix>
</trkpt>
<trkpt lat="40.0713749" lon="-105.229789">
  <ele>1583.0</ele>
  <time>2026-08-28T17:51:10Z</time>
  <course>0.0</course>
  <speed>0.0</speed>
  <fix>3d</fix>
</trkpt>
<trkpt lat="40.0713748" lon="-105.229789">
  <ele>1582.98</ele>
  <time>2026-08-28T17:51:10Z</time>
  <course>246.55</course>
  <speed>0.01</speed>
  <fix>3d</fix>
</trkpt>
<trkpt lat="40.0713749" lon="-105.229789">
  <ele>1583.0</ele>
  <time>2026-08-28T17:51:10Z</time>
  <course>0.0</course>
  <speed>0.0</speed>
  <fix>3d</fix>
</trkpt>
<trkpt lat="40.0713748" lon="-105.229789">
  <ele>1582.97</ele>
  <time>2026-08-28T17:51:10Z</time>
  <course>246.54</course>
  <speed>0.01</speed>
  <fix>3d</fix>
</trkpt>
<trkpt lat="40.0713749" lon="-105.229789">
  <ele>1583.0</ele>
  <time>2026-08-28T17:51:10Z</time>
  <course>0.0</course>
  <speed>0.0</speed>
  <fix>3d</fix>
</trkpt>
<trkpt lat="40.0713748" lon="-105.229789">
  <ele>1582.96</ele>
  <time>2026-08-28T17:51:10Z</time>
  <course>246.54</course>
  <speed>0.01</speed>
  <fix>3d</fix>
</trkpt>
<trkpt lat="40.0713749" lon="-105.229789">
  <ele>1583.0</ele>
  <time>2026-08-28T17:51:10Z</time>
  <course>0.0</course>
  <speed>0.0</speed>
  <fix>3d</fix>
</trkpt>
<trkpt lat="40.0713748" lon="-105.229789">
  <ele>1582.96</ele>
  <time>2026-08-28T17:51:10Z</time>
  <course>246.54</course>
  <speed>0.01</speed>
  <fix>3d</fix>
</trkpt>
<trkpt lat="40.0713749" lon="-105.229789">
  <ele>1583.0</ele>
  <time>2026-08-28T17:51:10Z</time>
  <course>0.0</course>
  <speed>0.0</speed>
  <fix>3d</fix>
</trkpt>
<trkpt lat="40.0713748" lon="-105.229789">
  <ele>1582.95</ele>
  <time>2026-08-28T17:51:10Z</time>
  <course>246.54</course>
  <speed>0.01</speed>
  <fix>3d</fix>
</trkpt>
<trkpt lat="40.0713749" lon="-105.229789">
  <ele>1583.0</ele>
  <time>2026-08-28T17:51:10Z</time>
  <course>0.0</course>
  <speed>0.0</speed>
  <fix>3d</fix>
</trkpt>
<trkpt lat="40.0713748" lon="-105.229789">
  <ele>1582.95</ele>
  <time>2026-08-28T17:51:10Z</time>
  <course>246.53</course>
  <speed>0.01</speed>
  <fix>3d</fix>
</trkpt>
<trkpt lat="40.0713749" lon="-105.229789">
  <ele>1583.0</ele>
  <time>2026-08-28T17:51:10Z</time>
  <course>0.0</course>
  <speed>0.0</speed>
  <fix>3d</fix>
</trkpt>
<trkpt lat="40.0713748" lon="-105.229789">
  <ele>1582.94</ele>
  <time>2026-08-28T17:51:10Z</time>
  <course>246.53</course>
  <speed>0.01</speed>
  <fix>3d</fix>
</trkpt>
<trkpt lat="40.0713749" lon="-105.229789">
  <ele>1583.0</ele>
  <time>2026-08-28T17:51:10Z</time>
  <course>0.0</course>
  <speed>0.0</speed>
  <fix>3d</fix>
</trkpt>
<trkpt lat="40.0713748" lon="-105.229789">
  <ele>1582.94</ele>
  <time>2026-08-28T17:51:10Z</time>
  <course>246.53</course>
  <speed>0.01</speed>
  <fix>3d</fix>
</trkpt>
<trkpt lat="40.0713749" lon="-105.229789">
  <ele>1583.0</ele>
  <time>2026-08-28T17:51:10Z</time>
  <course>0.0</course>
  <speed>0.0</speed>
  <fix>3d</fix>
</trkpt>
<trkpt lat="40.0713748" lon="-105.229789">
  <ele>1582.93</ele>
  <time>2026-08-28T17:51:10Z</time>
  <course>246.53</course>
  <speed>0.01</speed>
  <fix>3d</fix>
</trkpt>
<trkpt lat="40.0713749" lon="-105.229789">
  <ele>1583.0</ele>
  <time>2026-08-28T17:51:10Z</time>
  <course>0.0</course>
  <speed>0.0</speed>
  <fix>3d</fix>
</trkpt>
<trkpt lat="40.0713748" lon="-105.229789">
  <ele>1582.93</ele>
  <time>2026-08-28T17:51:10Z</time>
  <course>246.52</course>
  <speed>0.01</speed>
  <fix>3d</fix>
</trkpt>
<trkpt lat="40.0713749" lon="-105.229789">
  <ele>1583.0</ele>
  <time>2026-08-28T17:51:10Z</time>
  <course>0.0</course>
  <speed>0.0</speed>
  <fix>3d</fix>
</trkpt>
<trkpt lat="40.0713748" lon="-105.229789">
  <ele>1582.93</ele>
  <time>2026-08-28T17:51:10Z</time>
  <course>246.52</course>
  <speed>0.01</speed>
  <fix>3d</fix>
</trkpt>
<trkpt lat="40.0713749" lon="-105.229789">
  <ele>1583.0</ele>
  <time>2026-08-28T17:51:10Z</time>
  <course>0.0</course>
  <speed>0.0</speed>
  <fix>3d</fix>
</trkpt>
<trkpt lat="40.0713748" lon="-105.229789">
  <ele>1582.92</ele>
  <time>2026-08-28T17:51:10Z</time>
  <course>246.52</course>
  <speed>0.01</speed>
  <fix>3d</fix>
</trkpt>
<trkpt lat="40.0713749" lon="-105.229789">
  <ele>1583.0</ele>
  <time>2026-08-28T17:51:10Z</time>
  <course>0.0</course>
  <speed>0.0</speed>
  <fix>3d</fix>
</trkpt>
<trkpt lat="40.0713748" lon="-105.229789">
  <ele>1582.92</ele>
  <time>2026-08-28T17:51:10Z</time>
  <course>246.52</course>
  <speed>0.01</speed>
  <fix>3d</fix>
</trkpt>
<trkpt lat="40.0713749" lon="-105.229789">
  <ele>1583.0</ele>
  <time>2026-08-28T17:51:10Z</time>
  <course>0.0</course>
  <speed>0.0</speed>
  <fix>3d</fix>
</trkpt>
<trkpt lat="40.0713748" lon="-105.229789">
  <ele>1582.92</ele>
  <time>2026-08-28T17:51:10Z</time>
  <course>246.51</course>
  <speed>0.01</speed>
  <fix>3d</fix>
</trkpt>
<trkpt lat="40.0713749" lon="-105.229789">
  <ele>1583.0</ele>
  <time>2026-08-28T17:51:10Z</time>
  <course>0.0</course>
  <speed>0.0</speed>
  <fix>3d</fix>
</trkpt>
<trkpt lat="40.0713748" lon="-105.229789">
  <ele>1582.92</ele>
  <time>2026-08-28T17:51:10Z</time>
  <course>246.51</course>
  <speed>0.01</speed>
  <fix>3d</fix>
</trkpt>
<trkpt lat="40.0713749" lon="-105.229789">
  <ele>1583.0</ele>
  <time>2026-08-28T17:51:10Z</time>
  <course>0.0</course>
  <speed>0.0</speed>
  <fix>3d</fix>
</trkpt>
<trkpt lat="40.0713748" lon="-105.229789">
  <ele>1582.92</ele>
  <time>2026-08-28T17:51:10Z</time>
  <course>246.51</course>
  <speed>0.01</speed>
  <fix>3d</fix>
</trkpt>
<trkpt lat="40.0713749" lon="-105.229789">
  <ele>1583.0</ele>
  <time>2026-08-28T17:51:10Z</time>
  <course>0.0</course>
  <speed>0.0</speed>
  <fix>3d</fix>
</trkpt>
<trkpt lat="40.0713748" lon="-105.229789">
  <ele>1582.91</ele>
  <time>2026-08-28T17:51:10Z</time>
  <course>246.51</course>
  <speed>0.01</speed>
  <fix>3d</fix>
</trkpt>
<trkpt lat="40.0713749" lon="-105.229789">
  <ele>1583.0</ele>
  <time>2026-08-28T17:51:10Z</time>
  <course>0.0</course>
  <speed>0.0</speed>
  <fix>3d</fix>
</trkpt>
<trkpt lat="40.0713748" lon="-105.229789">
  <ele>1582.91</ele>
  <time>2026-08-28T17:51:10Z</time>
  <course>246.5</course>
  <speed>0.01</speed>
  <fix>3d</fix>
</trkpt>
<trkpt lat="40.0713749" lon="-105.229789">
  <ele>1583.0</ele>
  <time>2026-08-28T17:51:10Z</time>
  <course>0.0</course>
  <speed>0.0</speed>
  <fix>3d</fix>
</trkpt>
<trkpt lat="40.0713748" lon="-105.229789">
  <ele>1582.9</ele>
  <time>2026-08-28T17:51:10Z</time>
  <course>246.5</course>
  <speed>0.01</speed>
  <fix>3d</fix>
</trkpt>
<trkpt lat="40.0713749" lon="-105.229789">
  <ele>1583.0</ele>
  <time>2026-08-28T17:51:10Z</time>
  <course>0.0</course>
  <speed>0.0</speed>
  <fix>3d</fix>
</trkpt>
<trkpt lat="40.0713748" lon="-105.229789">
  <ele>1582.9</ele>
  <time>2026-08-28T17:51:10Z</time>
  <course>246.5</course>
  <speed>0.01</speed>
  <fix>3d</fix>
</trkpt>
<trkpt lat="40.0713749" lon="-105.229789">
  <ele>1583.0</ele>
  <time>2026-08-28T17:51:10Z</time>
  <course>0.0</course>
  <speed>0.0</speed>
  <fix>3d</fix>
</trkpt>
<trkpt lat="40.0713748" lon="-105.229789">
  <ele>1582.89</ele>
  <time>2026-08-28T17:51:10Z</time>
  <course>246.49</course>
  <speed>0.01</speed>
  <fix>3d</fix>
</trkpt>
<trkpt lat="40.0713749" lon="-105.229789">
  <ele>1583.0</ele>
  <time>2026-08-28T17:51:10Z</time>
  <course>0.0</course>
  <speed>0.0</speed>
  <fix>3d</fix>
</trkpt>
<trkpt lat="40.0713748" lon="-105.229789">
  <ele>1582.88</ele>
  <time>2026-08-28T17:51:10Z</time>
  <course>246.49</course>
  <speed>0.01</speed>
  <fix>3d</fix>
</trkpt>
<trkpt lat="40.0713749" lon="-105.229789">
  <ele>1583.0</ele>
  <time>2026-08-28T17:51:10Z</time>
  <course>0.0</course>
  <speed>0.0</speed>
  <fix>3d</fix>
</trkpt>
<trkpt lat="40.0713748" lon="-105.229789">
  <ele>1582.87</ele>
  <time>2026-08-28T17:51:10Z</time>
  <course>246.49</course>
  <speed>0.01</speed>
  <fix>3d</fix>
</trkpt>
<trkpt lat="40.0713749" lon="-105.229789">
  <ele>1583.0</ele>
  <time>2026-08-28T17:51:10Z</time>
  <course>0.0</course>
  <speed>0.0</speed>
  <fix>3d</fix>
</trkpt>
<trkpt lat="40.0713748" lon="-105.229789">
  <ele>1582.87</ele>
  <time>2026-08-28T17:51:10Z</time>
  <course>246.49</course>
  <speed>0.01</speed>
  <fix>3d</fix>
</trkpt>
<trkpt lat="40.0713749" lon="-105.229789">
  <ele>1583.0</ele>
  <time>2026-08-28T17:51:10Z</time>
  <course>0.0</course>
  <speed>0.0</speed>
  <fix>3d</fix>
</trkpt>
<trkpt lat="40.0713748" lon="-105.229789">
  <ele>1582.86</ele>
  <time>2026-08-28T17:51:10Z</time>
  <course>246.48</course>
  <speed>0.01</speed>
  <fix>3d</fix>
</trkpt>
<trkpt lat="40.0713749" lon="-105.229789">
  <ele>1583.0</ele>
  <time>2026-08-28T17:51:10Z</time>
  <course>0.0</course>
  <speed>0.0</speed>
  <fix>3d</fix>
</trkpt>
<trkpt lat="40.0713748" lon="-105.229789">
  <ele>1582.86</ele>
  <time>2026-08-28T17:51:10Z</time>
  <course>246.48</course>
  <speed>0.01</speed>
  <fix>3d</fix>
</trkpt>
<trkpt lat="40.0713749" lon="-105.229789">
  <ele>1583.0</ele>
  <time>2026-08-28T17:51:10Z</time>
  <course>0.0</course>
  <speed>0.0</speed>
  <fix>3d</fix>
</trkpt>
<trkpt lat="40.0713748" lon="-105.229789">
  <ele>1582.86</ele>
  <time>2026-08-28T17:51:10Z</time>
  <course>246.48</course>
  <speed>0.01</speed>
  <fix>3d</fix>
</trkpt>
<trkpt lat="40.0713749" lon="-105.229789">
  <ele>1583.0</ele>
  <time>2026-08-28T17:51:10Z</time>
  <course>0.0</course>
  <speed>0.0</speed>
  <fix>3d</fix>
</trkpt>
<trkpt lat="40.0713748" lon="-105.229789">
  <ele>1582.86</ele>
  <time>2026-08-28T17:51:10Z</time>
  <course>246.48</course>
  <speed>0.01</speed>
  <fix>3d</fix>
</trkpt>
<trkpt lat="40.0713749" lon="-105.229789">
  <ele>1583.0</ele>
  <time>2026-08-28T17:51:10Z</time>
  <course>0.0</course>
  <speed>0.0</speed>
  <fix>3d</fix>
</trkpt>
<trkpt lat="40.0713748" lon="-105.229789">
  <ele>1582.86</ele>
  <time>2026-08-28T17:51:10Z</time>
  <course>246.47</course>
  <speed>0.01</speed>
  <fix>3d</fix>
</trkpt>
<trkpt lat="40.0713749" lon="-105.229789">
  <ele>1583.0</ele>
  <time>2026-08-28T17:51:10Z</time>
  <course>0.0</course>
  <speed>0.0</speed>
  <fix>3d</fix>
</trkpt>
<trkpt lat="40.0713748" lon="-105.229789">
  <ele>1582.86</ele>
  <time>2026-08-28T17:51:10Z</time>
  <course>246.47</course>
  <speed>0.01</speed>
  <fix>3d</fix>
</trkpt>
<trkpt lat="40.0713749" lon="-105.229789">
  <ele>1583.0</ele>
  <time>2026-08-28T17:51:10Z</time>
  <course>0.0</course>
  <speed>0.0</speed>
  <fix>3d</fix>
</trkpt>
<trkpt lat="40.0713748" lon="-105.229789">
  <ele>1582.86</ele>
  <time>2026-08-28T17:51:10Z</time>
  <course>246.47</course>
  <speed>0.01</speed>
  <fix>3d</fix>
</trkpt>
<trkpt lat="40.0713749" lon="-105.229789">
  <ele>1583.0</ele>
  <time>2026-08-28T17:51:10Z</time>
  <course>0.0</course>
  <speed>0.0</speed>
  <fix>3d</fix>
</trkpt>
<trkpt lat="40.0713748" lon="-105.229789">
  <ele>1582.87</ele>
  <time>2026-08-28T17:51:10Z</time>
  <course>246.46</course>
  <speed>0.01</speed>
  <fix>3d</fix>
</trkpt>
<trkpt lat="40.0713749" lon="-105.229789">
  <ele>1583.0</ele>
  <time>2026-08-28T17:51:10Z</time>
  <course>0.0</course>
  <speed>0.0</speed>
  <fix>3d</fix>
</trkpt>
<trkpt lat="40.0713748" lon="-105.229789">
  <ele>1582.87</ele>
  <time>2026-08-28T17:51:10Z</time>
  <course>246.46</course>
  <speed>0.01</speed>
  <fix>3d</fix>
</trkpt>
<trkpt lat="40.0713749" lon="-105.229789">
  <ele>1583.0</ele>
  <time>2026-08-28T17:51:10Z</time>
  <course>0.0</course>
  <speed>0.0</speed>
  <fix>3d</fix>
</trkpt>
<trkpt lat="40.0713748" lon="-105.229789">
  <ele>1582.87</ele>
  <time>2026-08-28T17:51:10Z</time>
  <course>246.46</course>
  <speed>0.01</speed>
  <fix>3d</fix>
</trkpt>
<trkpt lat="40.0713749" lon="-105.229789">
  <ele>1583.0</ele>
  <time>2026-08-28T17:51:10Z</time>
  <course>0.0</course>
  <speed>0.0</speed>
  <fix>3d</fix>
</trkpt>
<trkpt lat="40.0713748" lon="-105.229789">
  <ele>1582.87</ele>
  <time>2026-08-28T17:51:10Z</time>
  <course>246.46</course>
  <speed>0.01</speed>
  <fix>3d</fix>
</trkpt>
<trkpt lat="40.0713749" lon="-105.229789">
  <ele>1583.0</ele>
  <time>2026-08-28T17:51:10Z</time>
  <course>0.0</course>
  <speed>0.0</speed>
  <fix>3d</fix>
</trkpt>
<trkpt lat="40.0713748" lon="-105.229789">
  <ele>1582.88</ele>
  <time>2026-08-28T17:51:10Z</time>
  <course>246.45</course>
  <speed>0.01</speed>
  <fix>3d</fix>
</trkpt>
<trkpt lat="40.0713749" lon="-105.229789">
  <ele>1583.0</ele>
  <time>2026-08-28T17:51:10Z</time>
  <course>0.0</course>
  <speed>0.0</speed>
  <fix>3d</fix>
</trkpt>
<trkpt lat="40.0713748" lon="-105.229789">
  <ele>1582.88</ele>
  <time>2026-08-28T17:51:10Z</time>
  <course>246.45</course>
  <speed>0.01</speed>
  <fix>3d</fix>
</trkpt>
<trkpt lat="40.0713749" lon="-105.229789">
  <ele>1583.0</ele>
  <time>2026-08-28T17:51:10Z</time>
  <course>0.0</course>
  <speed>0.0</speed>
  <fix>3d</fix>
</trkpt>
<trkpt lat="40.0713748" lon="-105.229789">
  <ele>1582.89</ele>
  <time>2026-08-28T17:51:10Z</time>
  <course>246.45</course>
  <speed>0.01</speed>
  <fix>3d</fix>
</trkpt>
<trkpt lat="40.0713749" lon="-105.229789">
  <ele>1583.0</ele>
  <time>2026-08-28T17:51:10Z</time>
  <course>0.0</course>
  <speed>0.0</speed>
  <fix>3d</fix>
</trkpt>
<trkpt lat="40.0713748" lon="-105.229789">
  <ele>1582.89</ele>
  <time>2026-08-28T17:51:10Z</time>
  <course>246.45</course>
  <speed>0.01</speed>
  <fix>3d</fix>
</trkpt>
<trkpt lat="40.0713749" lon="-105.229789">
  <ele>1583.0</ele>
  <time>2026-08-28T17:51:10Z</time>
  <course>0.0</course>
  <speed>0.0</speed>
  <fix>3d</fix>
</trkpt>
<trkpt lat="40.0713748" lon="-105.229789">
  <ele>1582.89</ele>
  <time>2026-08-28T17:51:10Z</time>
  <course>246.44</course>
  <speed>0.01</speed>
  <fix>3d</fix>
</trkpt>
<trkpt lat="40.0713749" lon="-105.229789">
  <ele>1583.0</ele>
  <time>2026-08-28T17:51:10Z</time>
  <course>0.0</course>
  <speed>0.0</speed>
  <fix>3d</fix>
</trkpt>
<trkpt lat="40.0713748" lon="-105.229789">
  <ele>1582.89</ele>
  <time>2026-08-28T17:51:10Z</time>
  <course>246.44</course>
  <speed>0.01</speed>
  <fix>3d</fix>
</trkpt>
<trkpt lat="40.0713749" lon="-105.229789">
  <ele>1583.0</ele>
  <time>2026-08-28T17:51:10Z</time>
  <course>0.0</course>
  <speed>0.0</speed>
  <fix>3d</fix>
</trkpt>
<trkpt lat="40.0713748" lon="-105.229789">
  <ele>1582.89</ele>
  <time>2026-08-28T17:51:10Z</time>
  <course>246.44</course>
  <speed>0.01</speed>
  <fix>3d</fix>
</trkpt>
<trkpt lat="40.0713749" lon="-105.229789">
  <ele>1583.0</ele>
  <time>2026-08-28T17:51:10Z</time>
  <course>0.0</course>
  <speed>0.0</speed>
  <fix>3d</fix>
</trkpt>
<trkpt lat="40.0713748" lon="-105.229789">
  <ele>1582.89</ele>
  <time>2026-08-28T17:51:10Z</time>
  <course>246.44</course>
  <speed>0.01</speed>
  <fix>3d</fix>
</trkpt>
<trkpt lat="40.0713749" lon="-105.229789">
  <ele>1583.0</ele>
  <time>2026-08-28T17:51:10Z</time>
  <course>0.0</course>
  <speed>0.0</speed>
  <fix>3d</fix>
</trkpt>
<trkpt lat="40.0713748" lon="-105.229789">
  <ele>1582.89</ele>
  <time>2026-08-28T17:51:10Z</time>
  <course>246.43</course>
  <speed>0.01</speed>
  <fix>3d</fix>
</trkpt>
<trkpt lat="40.0713749" lon="-105.229789">
  <ele>1583.0</ele>
  <time>2026-08-28T17:51:10Z</time>
  <course>0.0</course>
  <speed>0.0</speed>
  <fix>3d</fix>
</trkpt>
<trkpt lat="40.0713748" lon="-105.229789">
  <ele>1582.89</ele>
  <time>2026-08-28T17:51:10Z</time>
  <course>246.43</course>
  <speed>0.01</speed>
  <fix>3d</fix>
</trkpt>
<trkpt lat="40.0713749" lon="-105.229789">
  <ele>1583.0</ele>
  <time>2026-08-28T17:51:10Z</time>
  <course>0.0</course>
  <speed>0.0</speed>
  <fix>3d</fix>
</trkpt>
<trkpt lat="40.0713748" lon="-105.229789">
  <ele>1582.9</ele>
  <time>2026-08-28T17:51:10Z</time>
  <course>246.43</course>
  <speed>0.01</speed>
  <fix>3d</fix>
</trkpt>
<trkpt lat="40.0713749" lon="-105.229789">
  <ele>1583.0</ele>
  <time>2026-08-28T17:51:10Z</time>
  <course>0.0</course>
  <speed>0.0</speed>
  <fix>3d</fix>
</trkpt>
<trkpt lat="40.0713748" lon="-105.229789">
  <ele>1582.9</ele>
  <time>2026-08-28T17:51:10Z</time>
  <course>246.43</course>
  <speed>0.01</speed>
  <fix>3d</fix>
</trkpt>
<trkpt lat="40.0713749" lon="-105.229789">
  <ele>1583.0</ele>
  <time>2026-08-28T17:51:10Z</time>
  <course>0.0</course>
  <speed>0.0</speed>
  <fix>3d</fix>
</trkpt>
<trkpt lat="40.0713748" lon="-105.229789">
  <ele>1582.91</ele>
  <time>2026-08-28T17:51:10Z</time>
  <course>246.42</course>
  <speed>0.01</speed>
  <fix>3d</fix>
</trkpt>
<trkpt lat="40.0713749" lon="-105.229789">
  <ele>1583.0</ele>
  <time>2026-08-28T17:51:10Z</time>
  <course>0.0</course>
  <speed>0.0</speed>
  <fix>3d</fix>
</trkpt>
<trkpt lat="40.0713748" lon="-105.229789">
  <ele>1582.91</ele>
  <time>2026-08-28T17:51:10Z</time>
  <course>246.42</course>
  <speed>0.01</speed>
  <fix>3d</fix>
</trkpt>
<trkpt lat="40.0713749" lon="-105.229789">
  <ele>1583.0</ele>
  <time>2026-08-28T17:51:10Z</time>
  <course>0.0</course>
  <speed>0.0</speed>
  <fix>3d</fix>
</trkpt>
<trkpt lat="40.0713748" lon="-105.229789">
  <ele>1582.92</ele>
  <time>2026-08-28T17:51:10Z</time>
  <course>246.42</course>
  <speed>0.01</speed>
  <fix>3d</fix>
</trkpt>
<trkpt lat="40.0713749" lon="-105.229789">
  <ele>1583.0</ele>
  <time>2026-08-28T17:51:10Z</time>
  <course>0.0</course>
  <speed>0.0</speed>
  <fix>3d</fix>
</trkpt>
<trkpt lat="40.0713748" lon="-105.229789">
  <ele>1582.93</ele>
  <time>2026-08-28T17:51:10Z</time>
  <course>246.41</course>
  <speed>0.01</speed>
  <fix>3d</fix>
</trkpt>
<trkpt lat="40.0713749" lon="-105.229789">
  <ele>1583.0</ele>
  <time>2026-08-28T17:51:10Z</time>
  <course>0.0</course>
  <speed>0.0</speed>
  <fix>3d</fix>
</trkpt>
<trkpt lat="40.0713748" lon="-105.229789">
  <ele>1582.93</ele>
  <time>2026-08-28T17:51:10Z</time>
  <course>246.41</course>
  <speed>0.01</speed>
  <fix>3d</fix>
</trkpt>
<trkpt lat="40.0713749" lon="-105.229789">
  <ele>1583.0</ele>
  <time>2026-08-28T17:51:10Z</time>
  <course>0.0</course>
  <speed>0.0</speed>
  <fix>3d</fix>
</trkpt>
<trkpt lat="40.0713748" lon="-105.229789">
  <ele>1582.94</ele>
  <time>2026-08-28T17:51:10Z</time>
  <course>246.41</course>
  <speed>0.01</speed>
  <fix>3d</fix>
</trkpt>
<trkpt lat="40.0713749" lon="-105.229789">
  <ele>1583.0</ele>
  <time>2026-08-28T17:51:10Z</time>
  <course>0.0</course>
  <speed>0.0</speed>
  <fix>3d</fix>
</trkpt>
<trkpt lat="40.0713748" lon="-105.229789">
  <ele>1582.95</ele>
  <time>2026-08-28T17:51:10Z</time>
  <course>246.41</course>
  <speed>0.01</speed>
  <fix>3d</fix>
</trkpt>
<trkpt lat="40.0713749" lon="-105.229789">
  <ele>1583.0</ele>
  <time>2026-08-28T17:51:10Z</time>
  <course>0.0</course>
  <speed>0.0</speed>
  <fix>3d</fix>
</trkpt>
<trkpt lat="40.0713748" lon="-105.229789">
  <ele>1582.95</ele>
  <time>2026-08-28T17:51:10Z</time>
  <course>246.4</course>
  <speed>0.01</speed>
  <fix>3d</fix>
</trkpt>
<trkpt lat="40.0713749" lon="-105.229789">
  <ele>1583.0</ele>
  <time>2026-08-28T17:51:10Z</time>
  <course>0.0</course>
  <speed>0.0</speed>
  <fix>3d</fix>
</trkpt>
<trkpt lat="40.0713748" lon="-105.229789">
  <ele>1582.96</ele>
  <time>2026-08-28T17:51:10Z</time>
  <course>246.4</course>
  <speed>0.01</speed>
  <fix>3d</fix>
</trkpt>
<trkpt lat="40.0713749" lon="-105.229789">
  <ele>1583.0</ele>
  <time>2026-08-28T17:51:10Z</time>
  <course>0.0</course>
  <speed>0.0</speed>
  <fix>3d</fix>
</trkpt>
<trkpt lat="40.0713748" lon="-105.229789">
  <ele>1582.96</ele>
  <time>2026-08-28T17:51:10Z</time>
  <course>246.4</course>
  <speed>0.01</speed>
  <fix>3d</fix>
</trkpt>
<trkpt lat="40.0713749" lon="-105.229789">
  <ele>1583.0</ele>
  <time>2026-08-28T17:51:10Z</time>
  <course>0.0</course>
  <speed>0.0</speed>
  <fix>3d</fix>
</trkpt>
<trkpt lat="40.0713748" lon="-105.229789">
  <ele>1582.97</ele>
  <time>2026-08-28T17:51:10Z</time>
  <course>246.4</course>
  <speed>0.01</speed>
  <fix>3d</fix>
</trkpt>
<trkpt lat="40.0713749" lon="-105.229789">
  <ele>1583.0</ele>
  <time>2026-08-28T17:51:10Z</time>
  <course>0.0</course>
  <speed>0.0</speed>
  <fix>3d</fix>
</trkpt>
<trkpt lat="40.0713748" lon="-105.229789">
  <ele>1582.97</ele>
  <time>2026-08-28T17:51:10Z</time>
  <course>246.39</course>
  <speed>0.01</speed>
  <fix>3d</fix>
</trkpt>
<trkpt lat="40.0713749" lon="-105.229789">
  <ele>1583.0</ele>
  <time>2026-08-28T17:51:10Z</time>
  <course>0.0</course>
  <speed>0.0</speed>
  <fix>3d</fix>
</trkpt>
<trkpt lat="40.0713748" lon="-105.229789">
  <ele>1582.98</ele>
  <time>2026-08-28T17:51:10Z</time>
  <course>246.39</course>
  <speed>0.01</speed>
  <fix>3d</fix>
</trkpt>
<trkpt lat="40.0713749" lon="-105.229789">
  <ele>1583.0</ele>
  <time>2026-08-28T17:51:10Z</time>
  <course>0.0</course>
  <speed>0.0</speed>
  <fix>3d</fix>
</trkpt>
<trkpt lat="40.0713748" lon="-105.229789">
  <ele>1582.98</ele>
  <time>2026-08-28T17:51:10Z</time>
  <course>246.39</course>
  <speed>0.01</speed>
  <fix>3d</fix>
</trkpt>
<trkpt lat="40.0713749" lon="-105.229789">
  <ele>1583.0</ele>
  <time>2026-08-28T17:51:10Z</time>
  <course>0.0</course>
  <speed>0.0</speed>
  <fix>3d</fix>
</trkpt>
<trkpt lat="40.0713748" lon="-105.229789">
  <ele>1582.98</ele>
  <time>2026-08-28T17:51:10Z</time>
  <course>246.38</course>
  <speed>0.01</speed>
  <fix>3d</fix>
</trkpt>
<trkpt lat="40.0713749" lon="-105.229789">
  <ele>1583.0</ele>
  <time>2026-08-28T17:51:10Z</time>
  <course>0.0</course>
  <speed>0.0</speed>
  <fix>3d</fix>
</trkpt>
<trkpt lat="40.0713748" lon="-105.229789">
  <ele>1582.98</ele>
  <time>2026-08-28T17:51:11Z</time>
  <course>246.38</course>
  <speed>0.01</speed>
  <fix>3d</fix>
</trkpt>
<trkpt lat="40.0713749" lon="-105.229789">
  <ele>1583.0</ele>
  <time>2026-08-28T17:51:11Z</time>
  <course>0.0</course>
  <speed>0.0</speed>
  <fix>3d</fix>
</trkpt>
<trkpt lat="40.0713748" lon="-105.229789">
  <ele>1582.99</ele>
  <time>2026-08-28T17:51:11Z</time>
  <course>246.38</course>
  <speed>0.01</speed>
  <fix>3d</fix>
</trkpt>
<trkpt lat="40.0713749" lon="-105.229789">
  <ele>1583.0</ele>
  <time>2026-08-28T17:51:11Z</time>
  <course>0.0</course>
  <speed>0.0</speed>
  <fix>3d</fix>
</trkpt>
<trkpt lat="40.0713748" lon="-105.229789">
  <ele>1582.99</ele>
  <time>2026-08-28T17:51:11Z</time>
  <course>246.38</course>
  <speed>0.01</speed>
  <fix>3d</fix>
</trkpt>
<trkpt lat="40.0713749" lon="-105.229789">
  <ele>1583.0</ele>
  <time>2026-08-28T17:51:11Z</time>
  <course>0.0</course>
  <speed>0.0</speed>
  <fix>3d</fix>
</trkpt>
<trkpt lat="40.0713748" lon="-105.229789">
  <ele>1582.99</ele>
  <time>2026-08-28T17:51:11Z</time>
  <course>246.37</course>
  <speed>0.01</speed>
  <fix>3d</fix>
</trkpt>
<trkpt lat="40.0713749" lon="-105.229789">
  <ele>1583.0</ele>
  <time>2026-08-28T17:51:11Z</time>
  <course>0.0</course>
  <speed>0.0</speed>
  <fix>3d</fix>
</trkpt>
<trkpt lat="40.0713748" lon="-105.229789">
  <ele>1582.99</ele>
  <time>2026-08-28T17:51:11Z</time>
  <course>246.37</course>
  <speed>0.01</speed>
  <fix>3d</fix>
</trkpt>
<trkpt lat="40.0713749" lon="-105.229789">
  <ele>1583.0</ele>
  <time>2026-08-28T17:51:11Z</time>
  <course>0.0</course>
  <speed>0.0</speed>
  <fix>3d</fix>
</trkpt>
<trkpt lat="40.0713748" lon="-105.229789">
  <ele>1582.99</ele>
  <time>2026-08-28T17:51:11Z</time>
  <course>246.37</course>
  <speed>0.01</speed>
  <fix>3d</fix>
</trkpt>
<trkpt lat="40.0713749" lon="-105.229789">
  <ele>1583.0</ele>
  <time>2026-08-28T17:51:11Z</time>
  <course>0.0</course>
  <speed>0.0</speed>
  <fix>3d</fix>
</trkpt>
<trkpt lat="40.0713748" lon="-105.229789">
  <ele>1582.99</ele>
  <time>2026-08-28T17:51:11Z</time>
  <course>246.37</course>
  <speed>0.01</speed>
  <fix>3d</fix>
</trkpt>
<trkpt lat="40.0713749" lon="-105.229789">
  <ele>1583.0</ele>
  <time>2026-08-28T17:51:11Z</time>
  <course>0.0</course>
  <speed>0.0</speed>
  <fix>3d</fix>
</trkpt>
<trkpt lat="40.0713748" lon="-105.229789">
  <ele>1582.99</ele>
  <time>2026-08-28T17:51:11Z</time>
  <course>246.36</course>
  <speed>0.01</speed>
  <fix>3d</fix>
</trkpt>
<trkpt lat="40.0713749" lon="-105.229789">
  <ele>1583.0</ele>
  <time>2026-08-28T17:51:11Z</time>
  <course>0.0</course>
  <speed>0.0</speed>
  <fix>3d</fix>
</trkpt>
<trkpt lat="40.0713748" lon="-105.229789">
  <ele>1582.99</ele>
  <time>2026-08-28T17:51:11Z</time>
  <course>246.36</course>
  <speed>0.01</speed>
  <fix>3d</fix>
</trkpt>
<trkpt lat="40.0713749" lon="-105.229789">
  <ele>1583.0</ele>
  <time>2026-08-28T17:51:11Z</time>
  <course>0.0</course>
  <speed>0.0</speed>
  <fix>3d</fix>
</trkpt>
<trkpt lat="40.0713748" lon="-105.229789">
  <ele>1582.99</ele>
  <time>2026-08-28T17:51:11Z</time>
  <course>246.36</course>
  <speed>0.01</speed>
  <fix>3d</fix>
</trkpt>
<trkpt lat="40.0713749" lon="-105.229789">
  <ele>1583.0</ele>
  <time>2026-08-28T17:51:11Z</time>
  <course>0.0</course>
  <speed>0.0</speed>
  <fix>3d</fix>
</trkpt>
<trkpt lat="40.0713748" lon="-105.229789">
  <ele>1582.99</ele>
  <time>2026-08-28T17:51:11Z</time>
  <course>246.35</course>
  <speed>0.01</speed>
  <fix>3d</fix>
</trkpt>
<trkpt lat="40.0713749" lon="-105.229789">
  <ele>1583.0</ele>
  <time>2026-08-28T17:51:11Z</time>
  <course>0.0</course>
  <speed>0.0</speed>
  <fix>3d</fix>
</trkpt>
<trkpt lat="40.0713748" lon="-105.229789">
  <ele>1582.99</ele>
  <time>2026-08-28T17:51:11Z</time>
  <course>246.35</course>
  <speed>0.01</speed>
  <fix>3d</fix>
</trkpt>
<trkpt lat="40.0713749" lon="-105.229789">
  <ele>1583.0</ele>
  <time>2026-08-28T17:51:11Z</time>
  <course>0.0</course>
  <speed>0.0</speed>
  <fix>3d</fix>
</trkpt>
<trkpt lat="40.0713748" lon="-105.229789">
  <ele>1582.99</ele>
  <time>2026-08-28T17:51:11Z</time>
  <course>246.35</course>
  <speed>0.01</speed>
  <fix>3d</fix>
</trkpt>
<trkpt lat="40.0713749" lon="-105.229789">
  <ele>1583.0</ele>
  <time>2026-08-28T17:51:11Z</time>
  <course>0.0</course>
  <speed>0.0</speed>
  <fix>3d</fix>
</trkpt>
<trkpt lat="40.0713748" lon="-105.229789">
  <ele>1583.0</ele>
  <time>2026-08-28T17:51:11Z</time>
  <course>246.35</course>
  <speed>0.01</speed>
  <fix>3d</fix>
</trkpt>
<trkpt lat="40.0713749" lon="-105.229789">
  <ele>1583.0</ele>
  <time>2026-08-28T17:51:11Z</time>
  <course>0.0</course>
  <speed>0.0</speed>
  <fix>3d</fix>
</trkpt>
<trkpt lat="40.0713748" lon="-105.229789">
  <ele>1583.0</ele>
  <time>2026-08-28T17:51:11Z</time>
  <course>246.34</course>
  <speed>0.01</speed>
  <fix>3d</fix>
</trkpt>
<trkpt lat="40.0713749" lon="-105.229789">
  <ele>1583.0</ele>
  <time>2026-08-28T17:51:11Z</time>
  <course>0.0</course>
  <speed>0.0</speed>
  <fix>3d</fix>
</trkpt>
<trkpt lat="40.0713748" lon="-105.229789">
  <ele>1583.01</ele>
  <time>2026-08-28T17:51:11Z</time>
  <course>246.34</course>
  <speed>0.01</speed>
  <fix>3d</fix>
</trkpt>
<trkpt lat="40.0713749" lon="-105.229789">
  <ele>1583.0</ele>
  <time>2026-08-28T17:51:11Z</time>
  <course>0.0</course>
  <speed>0.0</speed>
  <fix>3d</fix>
</trkpt>
<trkpt lat="40.0713748" lon="-105.229789">
  <ele>1583.01</ele>
  <time>2026-08-28T17:51:11Z</time>
  <course>246.34</course>
  <speed>0.01</speed>
  <fix>3d</fix>
</trkpt>
<trkpt lat="40.0713749" lon="-105.229789">
  <ele>1583.0</ele>
  <time>2026-08-28T17:51:11Z</time>
  <course>0.0</course>
  <speed>0.0</speed>
  <fix>3d</fix>
</trkpt>
<trkpt lat="40.0713748" lon="-105.229789">
  <ele>1583.01</ele>
  <time>2026-08-28T17:51:11Z</time>
  <course>246.34</course>
  <speed>0.01</speed>
  <fix>3d</fix>
</trkpt>
<trkpt lat="40.0713749" lon="-105.229789">
  <ele>1583.0</ele>
  <time>2026-08-28T17:51:11Z</time>
  <course>0.0</course>
  <speed>0.0</speed>
  <fix>3d</fix>
</trkpt>
<trkpt lat="40.0713748" lon="-105.229789">
  <ele>1583.02</ele>
  <time>2026-08-28T17:51:11Z</time>
  <course>246.33</course>
  <speed>0.01</speed>
  <fix>3d</fix>
</trkpt>
<trkpt lat="40.0713749" lon="-105.229789">
  <ele>1583.0</ele>
  <time>2026-08-28T17:51:11Z</time>
  <course>0.0</course>
  <speed>0.0</speed>
  <fix>3d</fix>
</trkpt>
<trkpt lat="40.0713748" lon="-105.229789">
  <ele>1583.02</ele>
  <time>2026-08-28T17:51:11Z</time>
  <course>246.33</course>
  <speed>0.01</speed>
  <fix>3d</fix>
</trkpt>
<trkpt lat="40.0713749" lon="-105.229789">
  <ele>1583.0</ele>
  <time>2026-08-28T17:51:11Z</time>
  <course>0.0</course>
  <speed>0.0</speed>
  <fix>3d</fix>
</trkpt>
<trkpt lat="40.0713748" lon="-105.229789">
  <ele>1583.03</ele>
  <time>2026-08-28T17:51:11Z</time>
  <course>246.33</course>
  <speed>0.01</speed>
  <fix>3d</fix>
</trkpt>
<trkpt lat="40.0713749" lon="-105.229789">
  <ele>1583.0</ele>
  <time>2026-08-28T17:51:11Z</time>
  <course>0.0</course>
  <speed>0.0</speed>
  <fix>3d</fix>
</trkpt>
<trkpt lat="40.0713748" lon="-105.229789">
  <ele>1583.03</ele>
  <time>2026-08-28T17:51:11Z</time>
  <course>246.33</course>
  <speed>0.01</speed>
  <fix>3d</fix>
</trkpt>
<trkpt lat="40.0713749" lon="-105.229789">
  <ele>1583.0</ele>
  <time>2026-08-28T17:51:11Z</time>
  <course>0.0</course>
  <speed>0.0</speed>
  <fix>3d</fix>
</trkpt>
<trkpt lat="40.0713748" lon="-105.229789">
  <ele>1583.03</ele>
  <time>2026-08-28T17:51:11Z</time>
  <course>246.32</course>
  <speed>0.01</speed>
  <fix>3d</fix>
</trkpt>
<trkpt lat="40.0713749" lon="-105.229789">
  <ele>1583.0</ele>
  <time>2026-08-28T17:51:11Z</time>
  <course>0.0</course>
  <speed>0.0</speed>
  <fix>3d</fix>
</trkpt>
<trkpt lat="40.0713748" lon="-105.229789">
  <ele>1583.03</ele>
  <time>2026-08-28T17:51:11Z</time>
  <course>246.32</course>
  <speed>0.01</speed>
  <fix>3d</fix>
</trkpt>
<trkpt lat="40.0713749" lon="-105.229789">
  <ele>1583.0</ele>
  <time>2026-08-28T17:51:11Z</time>
  <course>0.0</course>
  <speed>0.0</speed>
  <fix>3d</fix>
</trkpt>
<trkpt lat="40.0713748" lon="-105.229789">
  <ele>1583.02</ele>
  <time>2026-08-28T17:51:11Z</time>
  <course>246.32</course>
  <speed>0.01</speed>
  <fix>3d</fix>
</trkpt>
<trkpt lat="40.0713749" lon="-105.229789">
  <ele>1583.0</ele>
  <time>2026-08-28T17:51:11Z</time>
  <course>0.0</course>
  <speed>0.0</speed>
  <fix>3d</fix>
</trkpt>
<trkpt lat="40.0713748" lon="-105.229789">
  <ele>1583.02</ele>
  <time>2026-08-28T17:51:11Z</time>
  <course>246.31</course>
  <speed>0.01</speed>
  <fix>3d</fix>
</trkpt>
<trkpt lat="40.0713749" lon="-105.229789">
  <ele>1583.0</ele>
  <time>2026-08-28T17:51:11Z</time>
  <course>0.0</course>
  <speed>0.0</speed>
  <fix>3d</fix>
</trkpt>
<trkpt lat="40.0713748" lon="-105.229789">
  <ele>1583.02</ele>
  <time>2026-08-28T17:51:11Z</time>
  <course>246.31</course>
  <speed>0.01</speed>
  <fix>3d</fix>
</trkpt>
<trkpt lat="40.0713749" lon="-105.229789">
  <ele>1583.0</ele>
  <time>2026-08-28T17:51:11Z</time>
  <course>0.0</course>
  <speed>0.0</speed>
  <fix>3d</fix>
</trkpt>
<trkpt lat="40.0713748" lon="-105.229789">
  <ele>1583.01</ele>
  <time>2026-08-28T17:51:11Z</time>
  <course>246.31</course>
  <speed>0.01</speed>
  <fix>3d</fix>
</trkpt>
<trkpt lat="40.0713749" lon="-105.229789">
  <ele>1583.0</ele>
  <time>2026-08-28T17:51:11Z</time>
  <course>0.0</course>
  <speed>0.0</speed>
  <fix>3d</fix>
</trkpt>
<trkpt lat="40.0713748" lon="-105.229789">
  <ele>1583.01</ele>
  <time>2026-08-28T17:51:11Z</time>
  <course>246.31</course>
  <speed>0.01</speed>
  <fix>3d</fix>
</trkpt>
<trkpt lat="40.0713749" lon="-105.229789">
  <ele>1583.0</ele>
  <time>2026-08-28T17:51:11Z</time>
  <course>0.0</course>
  <speed>0.0</speed>
  <fix>3d</fix>
</trkpt>
<trkpt lat="40.0713748" lon="-105.229789">
  <ele>1583.0</ele>
  <time>2026-08-28T17:51:11Z</time>
  <course>246.3</course>
  <speed>0.01</speed>
  <fix>3d</fix>
</trkpt>
<trkpt lat="40.0713749" lon="-105.229789">
  <ele>1583.0</ele>
  <time>2026-08-28T17:51:11Z</time>
  <course>0.0</course>
  <speed>0.0</speed>
  <fix>3d</fix>
</trkpt>
<trkpt lat="40.0713748" lon="-105.229789">
  <ele>1582.99</ele>
  <time>2026-08-28T17:51:11Z</time>
  <course>246.3</course>
  <speed>0.01</speed>
  <fix>3d</fix>
</trkpt>
<trkpt lat="40.0713749" lon="-105.229789">
  <ele>1583.0</ele>
  <time>2026-08-28T17:51:11Z</time>
  <course>0.0</course>
  <speed>0.0</speed>
  <fix>3d</fix>
</trkpt>
<trkpt lat="40.0713748" lon="-105.229789">
  <ele>1582.99</ele>
  <time>2026-08-28T17:51:11Z</time>
  <course>246.3</course>
  <speed>0.01</speed>
  <fix>3d</fix>
</trkpt>
<trkpt lat="40.0713749" lon="-105.229789">
  <ele>1583.0</ele>
  <time>2026-08-28T17:51:11Z</time>
  <course>0.0</course>
  <speed>0.0</speed>
  <fix>3d</fix>
</trkpt>
<trkpt lat="40.0713748" lon="-105.229789">
  <ele>1582.99</ele>
  <time>2026-08-28T17:51:11Z</time>
  <course>246.3</course>
  <speed>0.02</speed>
  <fix>3d</fix>
</trkpt>
<trkpt lat="40.0713749" lon="-105.229789">
  <ele>1583.0</ele>
  <time>2026-08-28T17:51:11Z</time>
  <course>0.0</course>
  <speed>0.0</speed>
  <fix>3d</fix>
</trkpt>
<trkpt lat="40.0713748" lon="-105.229789">
  <ele>1582.99</ele>
  <time>2026-08-28T17:51:11Z</time>
  <course>246.29</course>
  <speed>0.01</speed>
  <fix>3d</fix>
</trkpt>
<trkpt lat="40.0713749" lon="-105.229789">
  <ele>1583.0</ele>
  <time>2026-08-28T17:51:11Z</time>
  <course>0.0</course>
  <speed>0.0</speed>
  <fix>3d</fix>
</trkpt>
<trkpt lat="40.0713748" lon="-105.229789">
  <ele>1582.99</ele>
  <time>2026-08-28T17:51:11Z</time>
  <course>246.29</course>
  <speed>0.01</speed>
  <fix>3d</fix>
</trkpt>
<trkpt lat="40.0713749" lon="-105.229789">
  <ele>1583.0</ele>
  <time>2026-08-28T17:51:11Z</time>
  <course>0.0</course>
  <speed>0.0</speed>
  <fix>3d</fix>
</trkpt>
<trkpt lat="40.0713748" lon="-105.229789">
  <ele>1582.99</ele>
  <time>2026-08-28T17:51:11Z</time>
  <course>246.29</course>
  <speed>0.01</speed>
  <fix>3d</fix>
</trkpt>
<trkpt lat="40.0713749" lon="-105.229789">
  <ele>1583.0</ele>
  <time>2026-08-28T17:51:11Z</time>
  <course>0.0</course>
  <speed>0.0</speed>
  <fix>3d</fix>
</trkpt>
<trkpt lat="40.0713748" lon="-105.229789">
  <ele>1583.0</ele>
  <time>2026-08-28T17:51:11Z</time>
  <course>246.29</course>
  <speed>0.01</speed>
  <fix>3d</fix>
</trkpt>
<trkpt lat="40.0713749" lon="-105.229789">
  <ele>1583.0</ele>
  <time>2026-08-28T17:51:11Z</time>
  <course>0.0</course>
  <speed>0.0</speed>
  <fix>3d</fix>
</trkpt>
<trkpt lat="40.0713748" lon="-105.229789">
  <ele>1583.0</ele>
  <time>2026-08-28T17:51:11Z</time>
  <course>246.28</course>
  <speed>0.01</speed>
  <fix>3d</fix>
</trkpt>
<trkpt lat="40.0713749" lon="-105.229789">
  <ele>1583.0</ele>
  <time>2026-08-28T17:51:11Z</time>
  <course>0.0</course>
  <speed>0.0</speed>
  <fix>3d</fix>
</trkpt>
<trkpt lat="40.0713748" lon="-105.229789">
  <ele>1583.0</ele>
  <time>2026-08-28T17:51:11Z</time>
  <course>246.28</course>
  <speed>0.02</speed>
  <fix>3d</fix>
</trkpt>
<trkpt lat="40.0713749" lon="-105.229789">
  <ele>1583.0</ele>
  <time>2026-08-28T17:51:11Z</time>
  <course>0.0</course>
  <speed>0.0</speed>
  <fix>3d</fix>
</trkpt>
<trkpt lat="40.0713748" lon="-105.229789">
  <ele>1583.01</ele>
  <time>2026-08-28T17:51:11Z</time>
  <course>246.28</course>
  <speed>0.01</speed>
  <fix>3d</fix>
</trkpt>
<trkpt lat="40.0713749" lon="-105.229789">
  <ele>1583.0</ele>
  <time>2026-08-28T17:51:11Z</time>
  <course>0.0</course>
  <speed>0.0</speed>
  <fix>3d</fix>
</trkpt>
<trkpt lat="40.0713748" lon="-105.229789">
  <ele>1583.01</ele>
  <time>2026-08-28T17:51:11Z</time>
  <course>246.27</course>
  <speed>0.02</speed>
  <fix>3d</fix>
</trkpt>
<trkpt lat="40.0713749" lon="-105.229789">
  <ele>1583.0</ele>
  <time>2026-08-28T17:51:11Z</time>
  <course>0.0</course>
  <speed>0.0</speed>
  <fix>3d</fix>
</trkpt>
<trkpt lat="40.0713748" lon="-105.229789">
  <ele>1583.02</ele>
  <time>2026-08-28T17:51:11Z</time>
  <course>246.27</course>
  <speed>0.02</speed>
  <fix>3d</fix>
</trkpt>
<trkpt lat="40.0713749" lon="-105.229789">
  <ele>1583.0</ele>
  <time>2026-08-28T17:51:11Z</time>
  <course>0.0</course>
  <speed>0.0</speed>
  <fix>3d</fix>
</trkpt>
<trkpt lat="40.0713748" lon="-105.229789">
  <ele>1583.02</ele>
  <time>2026-08-28T17:51:11Z</time>
  <course>246.27</course>
  <speed>0.02</speed>
  <fix>3d</fix>
</trkpt>
<trkpt lat="40.0713749" lon="-105.229789">
  <ele>1583.0</ele>
  <time>2026-08-28T17:51:11Z</time>
  <course>0.0</course>
  <speed>0.0</speed>
  <fix>3d</fix>
</trkpt>
<trkpt lat="40.0713748" lon="-105.229789">
  <ele>1583.02</ele>
  <time>2026-08-28T17:51:11Z</time>
  <course>246.27</course>
  <speed>0.02</speed>
  <fix>3d</fix>
</trkpt>
<trkpt lat="40.0713749" lon="-105.229789">
  <ele>1583.0</ele>
  <time>2026-08-28T17:51:11Z</time>
  <course>0.0</course>
  <speed>0.0</speed>
  <fix>3d</fix>
</trkpt>
<trkpt lat="40.0713748" lon="-105.229789">
  <ele>1583.02</ele>
  <time>2026-08-28T17:51:11Z</time>
  <course>246.26</course>
  <speed>0.02</speed>
  <fix>3d</fix>
</trkpt>
<trkpt lat="40.0713749" lon="-105.229789">
  <ele>1583.0</ele>
  <time>2026-08-28T17:51:11Z</time>
  <course>0.0</course>
  <speed>0.0</speed>
  <fix>3d</fix>
</trkpt>
<trkpt lat="40.0713748" lon="-105.229789">
  <ele>1583.01</ele>
  <time>2026-08-28T17:51:11Z</time>
  <course>246.26</course>
  <speed>0.02</speed>
  <fix>3d</fix>
</trkpt>
<trkpt lat="40.0713749" lon="-105.229789">
  <ele>1583.0</ele>
  <time>2026-08-28T17:51:11Z</time>
  <course>0.0</course>
  <speed>0.0</speed>
  <fix>3d</fix>
</trkpt>
<trkpt lat="40.0713748" lon="-105.229789">
  <ele>1583.01</ele>
  <time>2026-08-28T17:51:11Z</time>
  <course>246.26</course>
  <speed>0.02</speed>
  <fix>3d</fix>
</trkpt>
<trkpt lat="40.0713749" lon="-105.229789">
  <ele>1583.0</ele>
  <time>2026-08-28T17:51:11Z</time>
  <course>0.0</course>
  <speed>0.0</speed>
  <fix>3d</fix>
</trkpt>
<trkpt lat="40.0713748" lon="-105.229789">
  <ele>1583.0</ele>
  <time>2026-08-28T17:51:11Z</time>
  <course>246.26</course>
  <speed>0.02</speed>
  <fix>3d</fix>
</trkpt>
<trkpt lat="40.0713749" lon="-105.229789">
  <ele>1583.0</ele>
  <time>2026-08-28T17:51:11Z</time>
  <course>0.0</course>
  <speed>0.0</speed>
  <fix>3d</fix>
</trkpt>
<trkpt lat="40.0713748" lon="-105.229789">
  <ele>1583.0</ele>
  <time>2026-08-28T17:51:11Z</time>
  <course>246.25</course>
  <speed>0.02</speed>
  <fix>3d</fix>
</trkpt>
<trkpt lat="40.0713749" lon="-105.229789">
  <ele>1583.0</ele>
  <time>2026-08-28T17:51:11Z</time>
  <course>0.0</course>
  <speed>0.0</speed>
  <fix>3d</fix>
</trkpt>
<trkpt lat="40.0713748" lon="-105.229789">
  <ele>1582.99</ele>
  <time>2026-08-28T17:51:11Z</time>
  <course>246.25</course>
  <speed>0.02</speed>
  <fix>3d</fix>
</trkpt>
<trkpt lat="40.0713749" lon="-105.229789">
  <ele>1583.0</ele>
  <time>2026-08-28T17:51:11Z</time>
  <course>0.0</course>
  <speed>0.0</speed>
  <fix>3d</fix>
</trkpt>
<trkpt lat="40.0713748" lon="-105.229789">
  <ele>1582.98</ele>
  <time>2026-08-28T17:51:11Z</time>
  <course>246.25</course>
  <speed>0.02</speed>
  <fix>3d</fix>
</trkpt>
<trkpt lat="40.0713749" lon="-105.229789">
  <ele>1583.0</ele>
  <time>2026-08-28T17:51:11Z</time>
  <course>0.0</course>
  <speed>0.0</speed>
  <fix>3d</fix>
</trkpt>
<trkpt lat="40.0713748" lon="-105.229789">
  <ele>1582.97</ele>
  <time>2026-08-28T17:51:11Z</time>
  <course>246.24</course>
  <speed>0.02</speed>
  <fix>3d</fix>
</trkpt>
<trkpt lat="40.0713749" lon="-105.229789">
  <ele>1583.0</ele>
  <time>2026-08-28T17:51:11Z</time>
  <course>0.0</course>
  <speed>0.0</speed>
  <fix>3d</fix>
</trkpt>
<trkpt lat="40.0713748" lon="-105.229789">
  <ele>1582.97</ele>
  <time>2026-08-28T17:51:11Z</time>
  <course>246.24</course>
  <speed>0.02</speed>
  <fix>3d</fix>
</trkpt>
<trkpt lat="40.0713749" lon="-105.229789">
  <ele>1583.0</ele>
  <time>2026-08-28T17:51:11Z</time>
  <course>0.0</course>
  <speed>0.0</speed>
  <fix>3d</fix>
</trkpt>
<trkpt lat="40.0713748" lon="-105.229789">
  <ele>1582.96</ele>
  <time>2026-08-28T17:51:11Z</time>
  <course>246.24</course>
  <speed>0.02</speed>
  <fix>3d</fix>
</trkpt>
<trkpt lat="40.0713749" lon="-105.229789">
  <ele>1583.0</ele>
  <time>2026-08-28T17:51:11Z</time>
  <course>0.0</course>
  <speed>0.0</speed>
  <fix>3d</fix>
</trkpt>
<trkpt lat="40.0713748" lon="-105.229789">
  <ele>1582.96</ele>
  <time>2026-08-28T17:51:11Z</time>
  <course>246.24</course>
  <speed>0.02</speed>
  <fix>3d</fix>
</trkpt>
<trkpt lat="40.0713749" lon="-105.229789">
  <ele>1583.0</ele>
  <time>2026-08-28T17:51:11Z</time>
  <course>0.0</course>
  <speed>0.0</speed>
  <fix>3d</fix>
</trkpt>
<trkpt lat="40.0713748" lon="-105.229789">
  <ele>1582.96</ele>
  <time>2026-08-28T17:51:11Z</time>
  <course>246.23</course>
  <speed>0.02</speed>
  <fix>3d</fix>
</trkpt>
<trkpt lat="40.0713749" lon="-105.229789">
  <ele>1583.0</ele>
  <time>2026-08-28T17:51:11Z</time>
  <course>0.0</course>
  <speed>0.0</speed>
  <fix>3d</fix>
</trkpt>
<trkpt lat="40.0713748" lon="-105.229789">
  <ele>1582.95</ele>
  <time>2026-08-28T17:51:11Z</time>
  <course>246.23</course>
  <speed>0.02</speed>
  <fix>3d</fix>
</trkpt>
<trkpt lat="40.0713749" lon="-105.229789">
  <ele>1583.0</ele>
  <time>2026-08-28T17:51:11Z</time>
  <course>0.0</course>
  <speed>0.0</speed>
  <fix>3d</fix>
</trkpt>
<trkpt lat="40.0713748" lon="-105.229789">
  <ele>1582.95</ele>
  <time>2026-08-28T17:51:11Z</time>
  <course>246.23</course>
  <speed>0.02</speed>
  <fix>3d</fix>
</trkpt>
<trkpt lat="40.0713749" lon="-105.229789">
  <ele>1583.0</ele>
  <time>2026-08-28T17:51:11Z</time>
  <course>0.0</course>
  <speed>0.0</speed>
  <fix>3d</fix>
</trkpt>
<trkpt lat="40.0713748" lon="-105.229789">
  <ele>1582.95</ele>
  <time>2026-08-28T17:51:11Z</time>
  <course>246.22</course>
  <speed>0.02</speed>
  <fix>3d</fix>
</trkpt>
<trkpt lat="40.0713749" lon="-105.229789">
  <ele>1583.0</ele>
  <time>2026-08-28T17:51:11Z</time>
  <course>0.0</course>
  <speed>0.0</speed>
  <fix>3d</fix>
</trkpt>
<trkpt lat="40.0713748" lon="-105.229789">
  <ele>1582.95</ele>
  <time>2026-08-28T17:51:11Z</time>
  <course>246.22</course>
  <speed>0.02</speed>
  <fix>3d</fix>
</trkpt>
<trkpt lat="40.0713749" lon="-105.229789">
  <ele>1583.0</ele>
  <time>2026-08-28T17:51:11Z</time>
  <course>0.0</course>
  <speed>0.0</speed>
  <fix>3d</fix>
</trkpt>
<trkpt lat="40.0713748" lon="-105.229789">
  <ele>1582.95</ele>
  <time>2026-08-28T17:51:11Z</time>
  <course>246.22</course>
  <speed>0.02</speed>
  <fix>3d</fix>
</trkpt>
<trkpt lat="40.0713749" lon="-105.229789">
  <ele>1583.0</ele>
  <time>2026-08-28T17:51:11Z</time>
  <course>0.0</course>
  <speed>0.0</speed>
  <fix>3d</fix>
</trkpt>
<trkpt lat="40.0713748" lon="-105.229789">
  <ele>1582.95</ele>
  <time>2026-08-28T17:51:11Z</time>
  <course>246.22</course>
  <speed>0.02</speed>
  <fix>3d</fix>
</trkpt>
<trkpt lat="40.0713749" lon="-105.229789">
  <ele>1583.0</ele>
  <time>2026-08-28T17:51:11Z</time>
  <course>0.0</course>
  <speed>0.0</speed>
  <fix>3d</fix>
</trkpt>
<trkpt lat="40.0713748" lon="-105.229789">
  <ele>1582.95</ele>
  <time>2026-08-28T17:51:11Z</time>
  <course>246.21</course>
  <speed>0.02</speed>
  <fix>3d</fix>
</trkpt>
<trkpt lat="40.0713749" lon="-105.229789">
  <ele>1583.0</ele>
  <time>2026-08-28T17:51:11Z</time>
  <course>0.0</course>
  <speed>0.0</speed>
  <fix>3d</fix>
</trkpt>
<trkpt lat="40.0713748" lon="-105.229789">
  <ele>1582.95</ele>
  <time>2026-08-28T17:51:11Z</time>
  <course>246.21</course>
  <speed>0.02</speed>
  <fix>3d</fix>
</trkpt>
<trkpt lat="40.0713749" lon="-105.229789">
  <ele>1583.0</ele>
  <time>2026-08-28T17:51:11Z</time>
  <course>0.0</course>
  <speed>0.0</speed>
  <fix>3d</fix>
</trkpt>
<trkpt lat="40.0713748" lon="-105.229789">
  <ele>1582.96</ele>
  <time>2026-08-28T17:51:11Z</time>
  <course>246.21</course>
  <speed>0.02</speed>
  <fix>3d</fix>
</trkpt>
<trkpt lat="40.0713749" lon="-105.229789">
  <ele>1583.0</ele>
  <time>2026-08-28T17:51:11Z</time>
  <course>0.0</course>
  <speed>0.0</speed>
  <fix>3d</fix>
</trkpt>
<trkpt lat="40.0713748" lon="-105.229789">
  <ele>1582.96</ele>
  <time>2026-08-28T17:51:11Z</time>
  <course>246.21</course>
  <speed>0.02</speed>
  <fix>3d</fix>
</trkpt>
<trkpt lat="40.0713749" lon="-105.229789">
  <ele>1583.0</ele>
  <time>2026-08-28T17:51:11Z</time>
  <course>0.0</course>
  <speed>0.0</speed>
  <fix>3d</fix>
</trkpt>
<trkpt lat="40.0713748" lon="-105.229789">
  <ele>1582.97</ele>
  <time>2026-08-28T17:51:11Z</time>
  <course>246.2</course>
  <speed>0.02</speed>
  <fix>3d</fix>
</trkpt>
<trkpt lat="40.0713749" lon="-105.229789">
  <ele>1583.0</ele>
  <time>2026-08-28T17:51:11Z</time>
  <course>0.0</course>
  <speed>0.0</speed>
  <fix>3d</fix>
</trkpt>
<trkpt lat="40.0713748" lon="-105.229789">
  <ele>1582.98</ele>
  <time>2026-08-28T17:51:11Z</time>
  <course>246.2</course>
  <speed>0.02</speed>
  <fix>3d</fix>
</trkpt>
<trkpt lat="40.0713749" lon="-105.229789">
  <ele>1583.0</ele>
  <time>2026-08-28T17:51:11Z</time>
  <course>0.0</course>
  <speed>0.0</speed>
  <fix>3d</fix>
</trkpt>
<trkpt lat="40.0713748" lon="-105.229789">
  <ele>1582.98</ele>
  <time>2026-08-28T17:51:11Z</time>
  <course>246.2</course>
  <speed>0.02</speed>
  <fix>3d</fix>
</trkpt>
<trkpt lat="40.0713749" lon="-105.229789">
  <ele>1583.0</ele>
  <time>2026-08-28T17:51:11Z</time>
  <course>0.0</course>
  <speed>0.0</speed>
  <fix>3d</fix>
</trkpt>
<trkpt lat="40.0713748" lon="-105.229789">
  <ele>1582.99</ele>
  <time>2026-08-28T17:51:11Z</time>
  <course>246.19</course>
  <speed>0.02</speed>
  <fix>3d</fix>
</trkpt>
<trkpt lat="40.0713749" lon="-105.229789">
  <ele>1583.0</ele>
  <time>2026-08-28T17:51:11Z</time>
  <course>0.0</course>
  <speed>0.0</speed>
  <fix>3d</fix>
</trkpt>
<trkpt lat="40.0713748" lon="-105.229789">
  <ele>1583.0</ele>
  <time>2026-08-28T17:51:11Z</time>
  <course>246.19</course>
  <speed>0.02</speed>
  <fix>3d</fix>
</trkpt>
<trkpt lat="40.0713749" lon="-105.229789">
  <ele>1583.0</ele>
  <time>2026-08-28T17:51:11Z</time>
  <course>0.0</course>
  <speed>0.0</speed>
  <fix>3d</fix>
</trkpt>
<trkpt lat="40.0713748" lon="-105.229789">
  <ele>1583.01</ele>
  <time>2026-08-28T17:51:11Z</time>
  <course>246.19</course>
  <speed>0.02</speed>
  <fix>3d</fix>
</trkpt>
<trkpt lat="40.0713749" lon="-105.229789">
  <ele>1583.0</ele>
  <time>2026-08-28T17:51:11Z</time>
  <course>0.0</course>
  <speed>0.0</speed>
  <fix>3d</fix>
</trkpt>
<trkpt lat="40.0713748" lon="-105.229789">
  <ele>1583.02</ele>
  <time>2026-08-28T17:51:11Z</time>
  <course>246.19</course>
  <speed>0.02</speed>
  <fix>3d</fix>
</trkpt>
<trkpt lat="40.0713749" lon="-105.229789">
  <ele>1583.0</ele>
  <time>2026-08-28T17:51:11Z</time>
  <course>0.0</course>
  <speed>0.0</speed>
  <fix>3d</fix>
</trkpt>
<trkpt lat="40.0713748" lon="-105.229789">
  <ele>1583.02</ele>
  <time>2026-08-28T17:51:11Z</time>
  <course>246.18</course>
  <speed>0.02</speed>
  <fix>3d</fix>
</trkpt>
<trkpt lat="40.0713749" lon="-105.229789">
  <ele>1583.0</ele>
  <time>2026-08-28T17:51:11Z</time>
  <course>0.0</course>
  <speed>0.0</speed>
  <fix>3d</fix>
</trkpt>
<trkpt lat="40.0713748" lon="-105.229789">
  <ele>1583.03</ele>
  <time>2026-08-28T17:51:11Z</time>
  <course>246.18</course>
  <speed>0.02</speed>
  <fix>3d</fix>
</trkpt>
<trkpt lat="40.0713749" lon="-105.229789">
  <ele>1583.0</ele>
  <time>2026-08-28T17:51:11Z</time>
  <course>0.0</course>
  <speed>0.0</speed>
  <fix>3d</fix>
</trkpt>
<trkpt lat="40.0713748" lon="-105.229789">
  <ele>1583.03</ele>
  <time>2026-08-28T17:51:11Z</time>
  <course>246.18</course>
  <speed>0.02</speed>
  <fix>3d</fix>
</trkpt>
<trkpt lat="40.0713749" lon="-105.229789">
  <ele>1583.0</ele>
  <time>2026-08-28T17:51:11Z</time>
  <course>0.0</course>
  <speed>0.0</speed>
  <fix>3d</fix>
</trkpt>
<trkpt lat="40.0713748" lon="-105.229789">
  <ele>1583.03</ele>
  <time>2026-08-28T17:51:11Z</time>
  <course>246.18</course>
  <speed>0.02</speed>
  <fix>3d</fix>
</trkpt>
<trkpt lat="40.0713749" lon="-105.229789">
  <ele>1583.0</ele>
  <time>2026-08-28T17:51:11Z</time>
  <course>0.0</course>
  <speed>0.0</speed>
  <fix>3d</fix>
</trkpt>
<trkpt lat="40.0713748" lon="-105.229789">
  <ele>1583.03</ele>
  <time>2026-08-28T17:51:11Z</time>
  <course>246.17</course>
  <speed>0.02</speed>
  <fix>3d</fix>
</trkpt>
<trkpt lat="40.0713749" lon="-105.229789">
  <ele>1583.0</ele>
  <time>2026-08-28T17:51:11Z</time>
  <course>0.0</course>
  <speed>0.0</speed>
  <fix>3d</fix>
</trkpt>
<trkpt lat="40.0713748" lon="-105.229789">
  <ele>1583.03</ele>
  <time>2026-08-28T17:51:11Z</time>
  <course>246.17</course>
  <speed>0.02</speed>
  <fix>3d</fix>
</trkpt>
<trkpt lat="40.0713749" lon="-105.229789">
  <ele>1583.0</ele>
  <time>2026-08-28T17:51:11Z</time>
  <course>0.0</course>
  <speed>0.0</speed>
  <fix>3d</fix>
</trkpt>
<trkpt lat="40.0713748" lon="-105.229789">
  <ele>1583.03</ele>
  <time>2026-08-28T17:51:11Z</time>
  <course>246.17</course>
  <speed>0.02</speed>
  <fix>3d</fix>
</trkpt>
<trkpt lat="40.0713749" lon="-105.229789">
  <ele>1583.0</ele>
  <time>2026-08-28T17:51:11Z</time>
  <course>0.0</course>
  <speed>0.0</speed>
  <fix>3d</fix>
</trkpt>
<trkpt lat="40.0713748" lon="-105.229789">
  <ele>1583.03</ele>
  <time>2026-08-28T17:51:11Z</time>
  <course>246.16</course>
  <speed>0.02</speed>
  <fix>3d</fix>
</trkpt>
<trkpt lat="40.0713749" lon="-105.229789">
  <ele>1583.0</ele>
  <time>2026-08-28T17:51:11Z</time>
  <course>0.0</course>
  <speed>0.0</speed>
  <fix>3d</fix>
</trkpt>
<trkpt lat="40.0713748" lon="-105.229789">
  <ele>1583.03</ele>
  <time>2026-08-28T17:51:11Z</time>
  <course>246.16</course>
  <speed>0.02</speed>
  <fix>3d</fix>
</trkpt>
<trkpt lat="40.0713749" lon="-105.229789">
  <ele>1583.0</ele>
  <time>2026-08-28T17:51:11Z</time>
  <course>0.0</course>
  <speed>0.0</speed>
  <fix>3d</fix>
</trkpt>
<trkpt lat="40.0713748" lon="-105.229789">
  <ele>1583.03</ele>
  <time>2026-08-28T17:51:11Z</time>
  <course>246.16</course>
  <speed>0.02</speed>
  <fix>3d</fix>
</trkpt>
<trkpt lat="40.0713749" lon="-105.229789">
  <ele>1583.0</ele>
  <time>2026-08-28T17:51:11Z</time>
  <course>0.0</course>
  <speed>0.0</speed>
  <fix>3d</fix>
</trkpt>
<trkpt lat="40.0713748" lon="-105.229789">
  <ele>1583.03</ele>
  <time>2026-08-28T17:51:11Z</time>
  <course>246.16</course>
  <speed>0.02</speed>
  <fix>3d</fix>
</trkpt>
<trkpt lat="40.0713749" lon="-105.229789">
  <ele>1583.0</ele>
  <time>2026-08-28T17:51:11Z</time>
  <course>0.0</course>
  <speed>0.0</speed>
  <fix>3d</fix>
</trkpt>
<trkpt lat="40.0713748" lon="-105.229789">
  <ele>1583.03</ele>
  <time>2026-08-28T17:51:11Z</time>
  <course>246.15</course>
  <speed>0.02</speed>
  <fix>3d</fix>
</trkpt>
<trkpt lat="40.0713749" lon="-105.229789">
  <ele>1583.0</ele>
  <time>2026-08-28T17:51:11Z</time>
  <course>0.0</course>
  <speed>0.0</speed>
  <fix>3d</fix>
</trkpt>
<trkpt lat="40.0713748" lon="-105.229789">
  <ele>1583.03</ele>
  <time>2026-08-28T17:51:11Z</time>
  <course>246.15</course>
  <speed>0.02</speed>
  <fix>3d</fix>
</trkpt>
<trkpt lat="40.0713749" lon="-105.229789">
  <ele>1583.0</ele>
  <time>2026-08-28T17:51:11Z</time>
  <course>0.0</course>
  <speed>0.0</speed>
  <fix>3d</fix>
</trkpt>
<trkpt lat="40.0713748" lon="-105.229789">
  <ele>1583.03</ele>
  <time>2026-08-28T17:51:11Z</time>
  <course>246.15</course>
  <speed>0.02</speed>
  <fix>3d</fix>
</trkpt>
<trkpt lat="40.0713749" lon="-105.229789">
  <ele>1583.0</ele>
  <time>2026-08-28T17:51:11Z</time>
  <course>0.0</course>
  <speed>0.0</speed>
  <fix>3d</fix>
</trkpt>
<trkpt lat="40.0713748" lon="-105.229789">
  <ele>1583.03</ele>
  <time>2026-08-28T17:51:11Z</time>
  <course>246.15</course>
  <speed>0.02</speed>
  <fix>3d</fix>
</trkpt>
<trkpt lat="40.0713749" lon="-105.229789">
  <ele>1583.0</ele>
  <time>2026-08-28T17:51:11Z</time>
  <course>0.0</course>
  <speed>0.0</speed>
  <fix>3d</fix>
</trkpt>
<trkpt lat="40.0713748" lon="-105.229789">
  <ele>1583.03</ele>
  <time>2026-08-28T17:51:11Z</time>
  <course>246.14</course>
  <speed>0.02</speed>
  <fix>3d</fix>
</trkpt>
<trkpt lat="40.0713749" lon="-105.229789">
  <ele>1583.0</ele>
  <time>2026-08-28T17:51:11Z</time>
  <course>0.0</course>
  <speed>0.0</speed>
  <fix>3d</fix>
</trkpt>
<trkpt lat="40.0713748" lon="-105.229789">
  <ele>1583.02</ele>
  <time>2026-08-28T17:51:11Z</time>
  <course>246.14</course>
  <speed>0.02</speed>
  <fix>3d</fix>
</trkpt>
<trkpt lat="40.0713749" lon="-105.229789">
  <ele>1583.0</ele>
  <time>2026-08-28T17:51:11Z</time>
  <course>0.0</course>
  <speed>0.0</speed>
  <fix>3d</fix>
</trkpt>
<trkpt lat="40.0713748" lon="-105.229789">
  <ele>1583.02</ele>
  <time>2026-08-28T17:51:11Z</time>
  <course>246.14</course>
  <speed>0.02</speed>
  <fix>3d</fix>
</trkpt>
<trkpt lat="40.0713749" lon="-105.229789">
  <ele>1583.0</ele>
  <time>2026-08-28T17:51:11Z</time>
  <course>0.0</course>
  <speed>0.0</speed>
  <fix>3d</fix>
</trkpt>
<trkpt lat="40.0713748" lon="-105.229789">
  <ele>1583.02</ele>
  <time>2026-08-28T17:51:11Z</time>
  <course>246.13</course>
  <speed>0.02</speed>
  <fix>3d</fix>
</trkpt>
<trkpt lat="40.0713749" lon="-105.229789">
  <ele>1583.0</ele>
  <time>2026-08-28T17:51:11Z</time>
  <course>0.0</course>
  <speed>0.0</speed>
  <fix>3d</fix>
</trkpt>
<trkpt lat="40.0713748" lon="-105.229789">
  <ele>1583.01</ele>
  <time>2026-08-28T17:51:11Z</time>
  <course>246.13</course>
  <speed>0.02</speed>
  <fix>3d</fix>
</trkpt>
<trkpt lat="40.0713749" lon="-105.229789">
  <ele>1583.0</ele>
  <time>2026-08-28T17:51:11Z</time>
  <course>0.0</course>
  <speed>0.0</speed>
  <fix>3d</fix>
</trkpt>
<trkpt lat="40.0713748" lon="-105.229789">
  <ele>1583.01</ele>
  <time>2026-08-28T17:51:11Z</time>
  <course>246.13</course>
  <speed>0.02</speed>
  <fix>3d</fix>
</trkpt>
<trkpt lat="40.0713749" lon="-105.229789">
  <ele>1583.0</ele>
  <time>2026-08-28T17:51:11Z</time>
  <course>0.0</course>
  <speed>0.0</speed>
  <fix>3d</fix>
</trkpt>
<trkpt lat="40.0713748" lon="-105.229789">
  <ele>1583.01</ele>
  <time>2026-08-28T17:51:11Z</time>
  <course>246.13</course>
  <speed>0.02</speed>
  <fix>3d</fix>
</trkpt>
<trkpt lat="40.0713749" lon="-105.229789">
  <ele>1583.0</ele>
  <time>2026-08-28T17:51:11Z</time>
  <course>0.0</course>
  <speed>0.0</speed>
  <fix>3d</fix>
</trkpt>
<trkpt lat="40.0713748" lon="-105.229789">
  <ele>1583.01</ele>
  <time>2026-08-28T17:51:11Z</time>
  <course>246.12</course>
  <speed>0.02</speed>
  <fix>3d</fix>
</trkpt>
<trkpt lat="40.0713749" lon="-105.229789">
  <ele>1583.0</ele>
  <time>2026-08-28T17:51:11Z</time>
  <course>0.0</course>
  <speed>0.0</speed>
  <fix>3d</fix>
</trkpt>
<trkpt lat="40.0713748" lon="-105.229789">
  <ele>1583.01</ele>
  <time>2026-08-28T17:51:11Z</time>
  <course>246.12</course>
  <speed>0.02</speed>
  <fix>3d</fix>
</trkpt>
<trkpt lat="40.0713749" lon="-105.229789">
  <ele>1583.0</ele>
  <time>2026-08-28T17:51:11Z</time>
  <course>0.0</course>
  <speed>0.0</speed>
  <fix>3d</fix>
</trkpt>
<trkpt lat="40.0713748" lon="-105.229789">
  <ele>1583.01</ele>
  <time>2026-08-28T17:51:11Z</time>
  <course>246.12</course>
  <speed>0.02</speed>
  <fix>3d</fix>
</trkpt>
<trkpt lat="40.0713749" lon="-105.229789">
  <ele>1583.0</ele>
  <time>2026-08-28T17:51:11Z</time>
  <course>0.0</course>
  <speed>0.0</speed>
  <fix>3d</fix>
</trkpt>
<trkpt lat="40.0713748" lon="-105.229789">
  <ele>1583.01</ele>
  <time>2026-08-28T17:51:11Z</time>
  <course>246.12</course>
  <speed>0.02</speed>
  <fix>3d</fix>
</trkpt>
<trkpt lat="40.0713749" lon="-105.229789">
  <ele>1583.0</ele>
  <time>2026-08-28T17:51:11Z</time>
  <course>0.0</course>
  <speed>0.0</speed>
  <fix>3d</fix>
</trkpt>
<trkpt lat="40.0713748" lon="-105.229789">
  <ele>1583.02</ele>
  <time>2026-08-28T17:51:11Z</time>
  <course>246.11</course>
  <speed>0.02</speed>
  <fix>3d</fix>
</trkpt>
<trkpt lat="40.0713749" lon="-105.229789">
  <ele>1583.0</ele>
  <time>2026-08-28T17:51:11Z</time>
  <course>0.0</course>
  <speed>0.0</speed>
  <fix>3d</fix>
</trkpt>
<trkpt lat="40.0713748" lon="-105.229789">
  <ele>1583.02</ele>
  <time>2026-08-28T17:51:11Z</time>
  <course>246.11</course>
  <speed>0.02</speed>
  <fix>3d</fix>
</trkpt>
<trkpt lat="40.0713749" lon="-105.229789">
  <ele>1583.0</ele>
  <time>2026-08-28T17:51:11Z</time>
  <course>0.0</course>
  <speed>0.0</speed>
  <fix>3d</fix>
</trkpt>
<trkpt lat="40.0713748" lon="-105.229789">
  <ele>1583.02</ele>
  <time>2026-08-28T17:51:11Z</time>
  <course>246.11</course>
  <speed>0.02</speed>
  <fix>3d</fix>
</trkpt>
<trkpt lat="40.0713749" lon="-105.229789">
  <ele>1583.0</ele>
  <time>2026-08-28T17:51:11Z</time>
  <course>0.0</course>
  <speed>0.0</speed>
  <fix>3d</fix>
</trkpt>
<trkpt lat="40.0713748" lon="-105.229789">
  <ele>1583.02</ele>
  <time>2026-08-28T17:51:11Z</time>
  <course>246.1</course>
  <speed>0.02</speed>
  <fix>3d</fix>
</trkpt>
<trkpt lat="40.0713749" lon="-105.229789">
  <ele>1583.0</ele>
  <time>2026-08-28T17:51:11Z</time>
  <course>0.0</course>
  <speed>0.0</speed>
  <fix>3d</fix>
</trkpt>
<trkpt lat="40.0713748" lon="-105.229789">
  <ele>1583.02</ele>
  <time>2026-08-28T17:51:11Z</time>
  <course>246.1</course>
  <speed>0.02</speed>
  <fix>3d</fix>
</trkpt>
<trkpt lat="40.0713749" lon="-105.229789">
  <ele>1583.0</ele>
  <time>2026-08-28T17:51:11Z</time>
  <course>0.0</course>
  <speed>0.0</speed>
  <fix>3d</fix>
</trkpt>
<trkpt lat="40.0713748" lon="-105.229789">
  <ele>1583.03</ele>
  <time>2026-08-28T17:51:11Z</time>
  <course>246.1</course>
  <speed>0.02</speed>
  <fix>3d</fix>
</trkpt>
<trkpt lat="40.0713749" lon="-105.229789">
  <ele>1583.0</ele>
  <time>2026-08-28T17:51:11Z</time>
  <course>0.0</course>
  <speed>0.0</speed>
  <fix>3d</fix>
</trkpt>
<trkpt lat="40.0713748" lon="-105.229789">
  <ele>1583.03</ele>
  <time>2026-08-28T17:51:11Z</time>
  <course>246.1</course>
  <speed>0.02</speed>
  <fix>3d</fix>
</trkpt>
<trkpt lat="40.0713749" lon="-105.229789">
  <ele>1583.0</ele>
  <time>2026-08-28T17:51:11Z</time>
  <course>0.0</course>
  <speed>0.0</speed>
  <fix>3d</fix>
</trkpt>
<trkpt lat="40.0713748" lon="-105.229789">
  <ele>1583.04</ele>
  <time>2026-08-28T17:51:11Z</time>
  <course>246.09</course>
  <speed>0.02</speed>
  <fix>3d</fix>
</trkpt>
<trkpt lat="40.0713749" lon="-105.229789">
  <ele>1583.0</ele>
  <time>2026-08-28T17:51:11Z</time>
  <course>0.0</course>
  <speed>0.0</speed>
  <fix>3d</fix>
</trkpt>
<trkpt lat="40.0713748" lon="-105.229789">
  <ele>1583.04</ele>
  <time>2026-08-28T17:51:11Z</time>
  <course>246.09</course>
  <speed>0.02</speed>
  <fix>3d</fix>
</trkpt>
<trkpt lat="40.0713749" lon="-105.229789">
  <ele>1583.0</ele>
  <time>2026-08-28T17:51:11Z</time>
  <course>0.0</course>
  <speed>0.0</speed>
  <fix>3d</fix>
</trkpt>
<trkpt lat="40.0713748" lon="-105.229789">
  <ele>1583.04</ele>
  <time>2026-08-28T17:51:11Z</time>
  <course>246.09</course>
  <speed>0.02</speed>
  <fix>3d</fix>
</trkpt>
<trkpt lat="40.0713749" lon="-105.229789">
  <ele>1583.0</ele>
  <time>2026-08-28T17:51:11Z</time>
  <course>0.0</course>
  <speed>0.0</speed>
  <fix>3d</fix>
</trkpt>
<trkpt lat="40.0713748" lon="-105.229789">
  <ele>1583.05</ele>
  <time>2026-08-28T17:51:11Z</time>
  <course>246.09</course>
  <speed>0.02</speed>
  <fix>3d</fix>
</trkpt>
<trkpt lat="40.0713749" lon="-105.229789">
  <ele>1583.0</ele>
  <time>2026-08-28T17:51:11Z</time>
  <course>0.0</course>
  <speed>0.0</speed>
  <fix>3d</fix>
</trkpt>
<trkpt lat="40.0713748" lon="-105.229789">
  <ele>1583.05</ele>
  <time>2026-08-28T17:51:11Z</time>
  <course>246.08</course>
  <speed>0.02</speed>
  <fix>3d</fix>
</trkpt>
<trkpt lat="40.0713749" lon="-105.229789">
  <ele>1583.0</ele>
  <time>2026-08-28T17:51:11Z</time>
  <course>0.0</course>
  <speed>0.0</speed>
  <fix>3d</fix>
</trkpt>
<trkpt lat="40.0713748" lon="-105.229789">
  <ele>1583.06</ele>
  <time>2026-08-28T17:51:11Z</time>
  <course>246.08</course>
  <speed>0.02</speed>
  <fix>3d</fix>
</trkpt>
<trkpt lat="40.0713749" lon="-105.229789">
  <ele>1583.0</ele>
  <time>2026-08-28T17:51:11Z</time>
  <course>0.0</course>
  <speed>0.0</speed>
  <fix>3d</fix>
</trkpt>
<trkpt lat="40.0713748" lon="-105.229789">
  <ele>1583.06</ele>
  <time>2026-08-28T17:51:11Z</time>
  <course>246.08</course>
  <speed>0.02</speed>
  <fix>3d</fix>
</trkpt>
<trkpt lat="40.0713749" lon="-105.229789">
  <ele>1583.0</ele>
  <time>2026-08-28T17:51:11Z</time>
  <course>0.0</course>
  <speed>0.0</speed>
  <fix>3d</fix>
</trkpt>
<trkpt lat="40.0713748" lon="-105.229789">
  <ele>1583.05</ele>
  <time>2026-08-28T17:51:11Z</time>
  <course>246.08</course>
  <speed>0.02</speed>
  <fix>3d</fix>
</trkpt>
<trkpt lat="40.0713749" lon="-105.229789">
  <ele>1583.0</ele>
  <time>2026-08-28T17:51:11Z</time>
  <course>0.0</course>
  <speed>0.0</speed>
  <fix>3d</fix>
</trkpt>
<trkpt lat="40.0713748" lon="-105.229789">
  <ele>1583.05</ele>
  <time>2026-08-28T17:51:11Z</time>
  <course>246.07</course>
  <speed>0.02</speed>
  <fix>3d</fix>
</trkpt>
<trkpt lat="40.0713749" lon="-105.229789">
  <ele>1583.0</ele>
  <time>2026-08-28T17:51:11Z</time>
  <course>0.0</course>
  <speed>0.0</speed>
  <fix>3d</fix>
</trkpt>
<trkpt lat="40.0713748" lon="-105.229789">
  <ele>1583.04</ele>
  <time>2026-08-28T17:51:11Z</time>
  <course>246.07</course>
  <speed>0.02</speed>
  <fix>3d</fix>
</trkpt>
<trkpt lat="40.0713749" lon="-105.229789">
  <ele>1583.0</ele>
  <time>2026-08-28T17:51:11Z</time>
  <course>0.0</course>
  <speed>0.0</speed>
  <fix>3d</fix>
</trkpt>
<trkpt lat="40.0713748" lon="-105.229789">
  <ele>1583.04</ele>
  <time>2026-08-28T17:51:11Z</time>
  <course>246.07</course>
  <speed>0.02</speed>
  <fix>3d</fix>
</trkpt>
<trkpt lat="40.0713749" lon="-105.229789">
  <ele>1583.0</ele>
  <time>2026-08-28T17:51:11Z</time>
  <course>0.0</course>
  <speed>0.0</speed>
  <fix>3d</fix>
</trkpt>
<trkpt lat="40.0713748" lon="-105.229789">
  <ele>1583.04</ele>
  <time>2026-08-28T17:51:11Z</time>
  <course>246.07</course>
  <speed>0.02</speed>
  <fix>3d</fix>
</trkpt>
<trkpt lat="40.0713749" lon="-105.229789">
  <ele>1583.0</ele>
  <time>2026-08-28T17:51:11Z</time>
  <course>0.0</course>
  <speed>0.0</speed>
  <fix>3d</fix>
</trkpt>
<trkpt lat="40.0713748" lon="-105.229789">
  <ele>1583.04</ele>
  <time>2026-08-28T17:51:11Z</time>
  <course>246.06</course>
  <speed>0.02</speed>
  <fix>3d</fix>
</trkpt>
<trkpt lat="40.0713749" lon="-105.229789">
  <ele>1583.0</ele>
  <time>2026-08-28T17:51:11Z</time>
  <course>0.0</course>
  <speed>0.0</speed>
  <fix>3d</fix>
</trkpt>
<trkpt lat="40.0713748" lon="-105.229789">
  <ele>1583.03</ele>
  <time>2026-08-28T17:51:11Z</time>
  <course>246.06</course>
  <speed>0.02</speed>
  <fix>3d</fix>
</trkpt>
<trkpt lat="40.0713749" lon="-105.229789">
  <ele>1583.0</ele>
  <time>2026-08-28T17:51:11Z</time>
  <course>0.0</course>
  <speed>0.0</speed>
  <fix>3d</fix>
</trkpt>
<trkpt lat="40.0713748" lon="-105.229789">
  <ele>1583.03</ele>
  <time>2026-08-28T17:51:11Z</time>
  <course>246.06</course>
  <speed>0.02</speed>
  <fix>3d</fix>
</trkpt>
<trkpt lat="40.0713749" lon="-105.229789">
  <ele>1583.0</ele>
  <time>2026-08-28T17:51:11Z</time>
  <course>0.0</course>
  <speed>0.0</speed>
  <fix>3d</fix>
</trkpt>
<trkpt lat="40.0713748" lon="-105.229789">
  <ele>1583.03</ele>
  <time>2026-08-28T17:51:11Z</time>
  <course>246.05</course>
  <speed>0.02</speed>
  <fix>3d</fix>
</trkpt>
<trkpt lat="40.0713749" lon="-105.229789">
  <ele>1583.0</ele>
  <time>2026-08-28T17:51:11Z</time>
  <course>0.0</course>
  <speed>0.0</speed>
  <fix>3d</fix>
</trkpt>
<trkpt lat="40.0713748" lon="-105.229789">
  <ele>1583.02</ele>
  <time>2026-08-28T17:51:11Z</time>
  <course>246.05</course>
  <speed>0.02</speed>
  <fix>3d</fix>
</trkpt>
<trkpt lat="40.0713749" lon="-105.229789">
  <ele>1583.0</ele>
  <time>2026-08-28T17:51:11Z</time>
  <course>0.0</course>
  <speed>0.0</speed>
  <fix>3d</fix>
</trkpt>
<trkpt lat="40.0713748" lon="-105.229789">
  <ele>1583.02</ele>
  <time>2026-08-28T17:51:11Z</time>
  <course>246.05</course>
  <speed>0.02</speed>
  <fix>3d</fix>
</trkpt>
<trkpt lat="40.0713749" lon="-105.229789">
  <ele>1583.0</ele>
  <time>2026-08-28T17:51:11Z</time>
  <course>0.0</course>
  <speed>0.0</speed>
  <fix>3d</fix>
</trkpt>
<trkpt lat="40.0713748" lon="-105.229789">
  <ele>1583.02</ele>
  <time>2026-08-28T17:51:11Z</time>
  <course>246.05</course>
  <speed>0.02</speed>
  <fix>3d</fix>
</trkpt>
<trkpt lat="40.0713749" lon="-105.229789">
  <ele>1583.0</ele>
  <time>2026-08-28T17:51:11Z</time>
  <course>0.0</course>
  <speed>0.0</speed>
  <fix>3d</fix>
</trkpt>
<trkpt lat="40.0713748" lon="-105.229789">
  <ele>1583.01</ele>
  <time>2026-08-28T17:51:11Z</time>
  <course>246.04</course>
  <speed>0.02</speed>
  <fix>3d</fix>
</trkpt>
<trkpt lat="40.0713749" lon="-105.229789">
  <ele>1583.0</ele>
  <time>2026-08-28T17:51:11Z</time>
  <course>0.0</course>
  <speed>0.0</speed>
  <fix>3d</fix>
</trkpt>
<trkpt lat="40.0713748" lon="-105.229789">
  <ele>1583.0</ele>
  <time>2026-08-28T17:51:11Z</time>
  <course>246.04</course>
  <speed>0.02</speed>
  <fix>3d</fix>
</trkpt>
<trkpt lat="40.0713749" lon="-105.229789">
  <ele>1583.0</ele>
  <time>2026-08-28T17:51:11Z</time>
  <course>0.0</course>
  <speed>0.0</speed>
  <fix>3d</fix>
</trkpt>
<trkpt lat="40.0713748" lon="-105.229789">
  <ele>1583.0</ele>
  <time>2026-08-28T17:51:11Z</time>
  <course>246.04</course>
  <speed>0.02</speed>
  <fix>3d</fix>
</trkpt>
<trkpt lat="40.0713749" lon="-105.229789">
  <ele>1583.0</ele>
  <time>2026-08-28T17:51:11Z</time>
  <course>0.0</course>
  <speed>0.0</speed>
  <fix>3d</fix>
</trkpt>
<trkpt lat="40.0713748" lon="-105.229789">
  <ele>1582.99</ele>
  <time>2026-08-28T17:51:11Z</time>
  <course>246.04</course>
  <speed>0.02</speed>
  <fix>3d</fix>
</trkpt>
<trkpt lat="40.0713749" lon="-105.229789">
  <ele>1583.0</ele>
  <time>2026-08-28T17:51:11Z</time>
  <course>0.0</course>
  <speed>0.0</speed>
  <fix>3d</fix>
</trkpt>
<trkpt lat="40.0713748" lon="-105.229789">
  <ele>1582.99</ele>
  <time>2026-08-28T17:51:11Z</time>
  <course>246.03</course>
  <speed>0.02</speed>
  <fix>3d</fix>
</trkpt>
<trkpt lat="40.0713749" lon="-105.229789">
  <ele>1583.0</ele>
  <time>2026-08-28T17:51:11Z</time>
  <course>0.0</course>
  <speed>0.0</speed>
  <fix>3d</fix>
</trkpt>
<trkpt lat="40.0713748" lon="-105.229789">
  <ele>1582.98</ele>
  <time>2026-08-28T17:51:11Z</time>
  <course>246.03</course>
  <speed>0.02</speed>
  <fix>3d</fix>
</trkpt>
<trkpt lat="40.0713749" lon="-105.229789">
  <ele>1583.0</ele>
  <time>2026-08-28T17:51:11Z</time>
  <course>0.0</course>
  <speed>0.0</speed>
  <fix>3d</fix>
</trkpt>
<trkpt lat="40.0713748" lon="-105.229789">
  <ele>1582.98</ele>
  <time>2026-08-28T17:51:11Z</time>
  <course>246.03</course>
  <speed>0.02</speed>
  <fix>3d</fix>
</trkpt>
<trkpt lat="40.0713749" lon="-105.229789">
  <ele>1583.0</ele>
  <time>2026-08-28T17:51:11Z</time>
  <course>0.0</course>
  <speed>0.0</speed>
  <fix>3d</fix>
</trkpt>
<trkpt lat="40.0713748" lon="-105.229789">
  <ele>1582.97</ele>
  <time>2026-08-28T17:51:11Z</time>
  <course>246.03</course>
  <speed>0.02</speed>
  <fix>3d</fix>
</trkpt>
<trkpt lat="40.0713749" lon="-105.229789">
  <ele>1583.0</ele>
  <time>2026-08-28T17:51:11Z</time>
  <course>0.0</course>
  <speed>0.0</speed>
  <fix>3d</fix>
</trkpt>
<trkpt lat="40.0713748" lon="-105.229789">
  <ele>1582.97</ele>
  <time>2026-08-28T17:51:11Z</time>
  <course>246.02</course>
  <speed>0.02</speed>
  <fix>3d</fix>
</trkpt>
<trkpt lat="40.0713749" lon="-105.229789">
  <ele>1583.0</ele>
  <time>2026-08-28T17:51:11Z</time>
  <course>0.0</course>
  <speed>0.0</speed>
  <fix>3d</fix>
</trkpt>
<trkpt lat="40.0713748" lon="-105.229789">
  <ele>1582.96</ele>
  <time>2026-08-28T17:51:11Z</time>
  <course>246.02</course>
  <speed>0.02</speed>
  <fix>3d</fix>
</trkpt>
<trkpt lat="40.0713749" lon="-105.229789">
  <ele>1583.0</ele>
  <time>2026-08-28T17:51:11Z</time>
  <course>0.0</course>
  <speed>0.0</speed>
  <fix>3d</fix>
</trkpt>
<trkpt lat="40.0713748" lon="-105.229789">
  <ele>1582.96</ele>
  <time>2026-08-28T17:51:11Z</time>
  <course>246.02</course>
  <speed>0.02</speed>
  <fix>3d</fix>
</trkpt>
<trkpt lat="40.0713749" lon="-105.229789">
  <ele>1583.0</ele>
  <time>2026-08-28T17:51:11Z</time>
  <course>0.0</course>
  <speed>0.0</speed>
  <fix>3d</fix>
</trkpt>
<trkpt lat="40.0713748" lon="-105.229789">
  <ele>1582.96</ele>
  <time>2026-08-28T17:51:11Z</time>
  <course>246.02</course>
  <speed>0.02</speed>
  <fix>3d</fix>
</trkpt>
<trkpt lat="40.0713749" lon="-105.229789">
  <ele>1583.0</ele>
  <time>2026-08-28T17:51:11Z</time>
  <course>0.0</course>
  <speed>0.0</speed>
  <fix>3d</fix>
</trkpt>
<trkpt lat="40.0713748" lon="-105.229789">
  <ele>1582.95</ele>
  <time>2026-08-28T17:51:11Z</time>
  <course>246.01</course>
  <speed>0.02</speed>
  <fix>3d</fix>
</trkpt>
<trkpt lat="40.0713749" lon="-105.229789">
  <ele>1583.0</ele>
  <time>2026-08-28T17:51:11Z</time>
  <course>0.0</course>
  <speed>0.0</speed>
  <fix>3d</fix>
</trkpt>
<trkpt lat="40.0713748" lon="-105.229789">
  <ele>1582.95</ele>
  <time>2026-08-28T17:51:11Z</time>
  <course>246.01</course>
  <speed>0.02</speed>
  <fix>3d</fix>
</trkpt>
<trkpt lat="40.0713749" lon="-105.229789">
  <ele>1583.0</ele>
  <time>2026-08-28T17:51:11Z</time>
  <course>0.0</course>
  <speed>0.0</speed>
  <fix>3d</fix>
</trkpt>
<trkpt lat="40.0713748" lon="-105.229789">
  <ele>1582.94</ele>
  <time>2026-08-28T17:51:11Z</time>
  <course>246.01</course>
  <speed>0.02</speed>
  <fix>3d</fix>
</trkpt>
<trkpt lat="40.0713749" lon="-105.229789">
  <ele>1583.0</ele>
  <time>2026-08-28T17:51:11Z</time>
  <course>0.0</course>
  <speed>0.0</speed>
  <fix>3d</fix>
</trkpt>
<trkpt lat="40.0713748" lon="-105.229789">
  <ele>1582.94</ele>
  <time>2026-08-28T17:51:11Z</time>
  <course>246.0</course>
  <speed>0.02</speed>
  <fix>3d</fix>
</trkpt>
<trkpt lat="40.0713749" lon="-105.229789">
  <ele>1583.0</ele>
  <time>2026-08-28T17:51:11Z</time>
  <course>0.0</course>
  <speed>0.0</speed>
  <fix>3d</fix>
</trkpt>
<trkpt lat="40.0713748" lon="-105.229789">
  <ele>1582.94</ele>
  <time>2026-08-28T17:51:11Z</time>
  <course>246.0</course>
  <speed>0.02</speed>
  <fix>3d</fix>
</trkpt>
<trkpt lat="40.0713749" lon="-105.229789">
  <ele>1583.0</ele>
  <time>2026-08-28T17:51:11Z</time>
  <course>0.0</course>
  <speed>0.0</speed>
  <fix>3d</fix>
</trkpt>
<trkpt lat="40.0713748" lon="-105.229789">
  <ele>1582.94</ele>
  <time>2026-08-28T17:51:11Z</time>
  <course>246.0</course>
  <speed>0.02</speed>
  <fix>3d</fix>
</trkpt>
<trkpt lat="40.0713749" lon="-105.229789">
  <ele>1583.0</ele>
  <time>2026-08-28T17:51:11Z</time>
  <course>0.0</course>
  <speed>0.0</speed>
  <fix>3d</fix>
</trkpt>
<trkpt lat="40.0713748" lon="-105.229789">
  <ele>1582.94</ele>
  <time>2026-08-28T17:51:11Z</time>
  <course>246.0</course>
  <speed>0.02</speed>
  <fix>3d</fix>
</trkpt>
<trkpt lat="40.0713749" lon="-105.229789">
  <ele>1583.0</ele>
  <time>2026-08-28T17:51:11Z</time>
  <course>0.0</course>
  <speed>0.0</speed>
  <fix>3d</fix>
</trkpt>
<trkpt lat="40.0713748" lon="-105.229789">
  <ele>1582.94</ele>
  <time>2026-08-28T17:51:11Z</time>
  <course>245.99</course>
  <speed>0.02</speed>
  <fix>3d</fix>
</trkpt>
<trkpt lat="40.0713749" lon="-105.229789">
  <ele>1583.0</ele>
  <time>2026-08-28T17:51:11Z</time>
  <course>0.0</course>
  <speed>0.0</speed>
  <fix>3d</fix>
</trkpt>
<trkpt lat="40.0713748" lon="-105.229789">
  <ele>1582.95</ele>
  <time>2026-08-28T17:51:11Z</time>
  <course>245.99</course>
  <speed>0.02</speed>
  <fix>3d</fix>
</trkpt>
<trkpt lat="40.0713749" lon="-105.229789">
  <ele>1583.0</ele>
  <time>2026-08-28T17:51:11Z</time>
  <course>0.0</course>
  <speed>0.0</speed>
  <fix>3d</fix>
</trkpt>
<trkpt lat="40.0713748" lon="-105.229789">
  <ele>1582.95</ele>
  <time>2026-08-28T17:51:11Z</time>
  <course>245.99</course>
  <speed>0.02</speed>
  <fix>3d</fix>
</trkpt>
<trkpt lat="40.0713749" lon="-105.229789">
  <ele>1583.0</ele>
  <time>2026-08-28T17:51:11Z</time>
  <course>0.0</course>
  <speed>0.0</speed>
  <fix>3d</fix>
</trkpt>
<trkpt lat="40.0713748" lon="-105.229789">
  <ele>1582.95</ele>
  <time>2026-08-28T17:51:11Z</time>
  <course>245.99</course>
  <speed>0.02</speed>
  <fix>3d</fix>
</trkpt>
<trkpt lat="40.0713749" lon="-105.229789">
  <ele>1583.0</ele>
  <time>2026-08-28T17:51:11Z</time>
  <course>0.0</course>
  <speed>0.0</speed>
  <fix>3d</fix>
</trkpt>
<trkpt lat="40.0713748" lon="-105.229789">
  <ele>1582.95</ele>
  <time>2026-08-28T17:51:11Z</time>
  <course>245.98</course>
  <speed>0.02</speed>
  <fix>3d</fix>
</trkpt>
<trkpt lat="40.0713749" lon="-105.229789">
  <ele>1583.0</ele>
  <time>2026-08-28T17:51:11Z</time>
  <course>0.0</course>
  <speed>0.0</speed>
  <fix>3d</fix>
</trkpt>
<trkpt lat="40.0713748" lon="-105.229789">
  <ele>1582.95</ele>
  <time>2026-08-28T17:51:11Z</time>
  <course>245.98</course>
  <speed>0.02</speed>
  <fix>3d</fix>
</trkpt>
<trkpt lat="40.0713749" lon="-105.229789">
  <ele>1583.0</ele>
  <time>2026-08-28T17:51:11Z</time>
  <course>0.0</course>
  <speed>0.0</speed>
  <fix>3d</fix>
</trkpt>
<trkpt lat="40.0713748" lon="-105.229789">
  <ele>1582.95</ele>
  <time>2026-08-28T17:51:11Z</time>
  <course>245.98</course>
  <speed>0.02</speed>
  <fix>3d</fix>
</trkpt>
<trkpt lat="40.0713749" lon="-105.229789">
  <ele>1583.0</ele>
  <time>2026-08-28T17:51:11Z</time>
  <course>0.0</course>
  <speed>0.0</speed>
  <fix>3d</fix>
</trkpt>
<trkpt lat="40.0713748" lon="-105.229789">
  <ele>1582.96</ele>
  <time>2026-08-28T17:51:11Z</time>
  <course>245.98</course>
  <speed>0.02</speed>
  <fix>3d</fix>
</trkpt>
<trkpt lat="40.0713749" lon="-105.229789">
  <ele>1583.0</ele>
  <time>2026-08-28T17:51:11Z</time>
  <course>0.0</course>
  <speed>0.0</speed>
  <fix>3d</fix>
</trkpt>
<trkpt lat="40.0713748" lon="-105.229789">
  <ele>1582.96</ele>
  <time>2026-08-28T17:51:11Z</time>
  <course>245.97</course>
  <speed>0.02</speed>
  <fix>3d</fix>
</trkpt>
<trkpt lat="40.0713749" lon="-105.229789">
  <ele>1583.0</ele>
  <time>2026-08-28T17:51:11Z</time>
  <course>0.0</course>
  <speed>0.0</speed>
  <fix>3d</fix>
</trkpt>
<trkpt lat="40.0713748" lon="-105.229789">
  <ele>1582.96</ele>
  <time>2026-08-28T17:51:11Z</time>
  <course>245.97</course>
  <speed>0.02</speed>
  <fix>3d</fix>
</trkpt>
<trkpt lat="40.0713749" lon="-105.229789">
  <ele>1583.0</ele>
  <time>2026-08-28T17:51:11Z</time>
  <course>0.0</course>
  <speed>0.0</speed>
  <fix>3d</fix>
</trkpt>
<trkpt lat="40.0713748" lon="-105.229789">
  <ele>1582.96</ele>
  <time>2026-08-28T17:51:11Z</time>
  <course>245.97</course>
  <speed>0.02</speed>
  <fix>3d</fix>
</trkpt>
<trkpt lat="40.0713749" lon="-105.229789">
  <ele>1583.0</ele>
  <time>2026-08-28T17:51:11Z</time>
  <course>0.0</course>
  <speed>0.0</speed>
  <fix>3d</fix>
</trkpt>
<trkpt lat="40.0713748" lon="-105.229789">
  <ele>1582.96</ele>
  <time>2026-08-28T17:51:11Z</time>
  <course>245.97</course>
  <speed>0.02</speed>
  <fix>3d</fix>
</trkpt>
<trkpt lat="40.0713749" lon="-105.229789">
  <ele>1583.0</ele>
  <time>2026-08-28T17:51:11Z</time>
  <course>0.0</course>
  <speed>0.0</speed>
  <fix>3d</fix>
</trkpt>
<trkpt lat="40.0713748" lon="-105.229789">
  <ele>1582.95</ele>
  <time>2026-08-28T17:51:11Z</time>
  <course>245.96</course>
  <speed>0.02</speed>
  <fix>3d</fix>
</trkpt>
<trkpt lat="40.0713749" lon="-105.229789">
  <ele>1583.0</ele>
  <time>2026-08-28T17:51:11Z</time>
  <course>0.0</course>
  <speed>0.0</speed>
  <fix>3d</fix>
</trkpt>
<trkpt lat="40.0713748" lon="-105.229789">
  <ele>1582.95</ele>
  <time>2026-08-28T17:51:11Z</time>
  <course>245.96</course>
  <speed>0.02</speed>
  <fix>3d</fix>
</trkpt>
<trkpt lat="40.0713749" lon="-105.229789">
  <ele>1583.0</ele>
  <time>2026-08-28T17:51:11Z</time>
  <course>0.0</course>
  <speed>0.0</speed>
  <fix>3d</fix>
</trkpt>
<trkpt lat="40.0713748" lon="-105.229789">
  <ele>1582.95</ele>
  <time>2026-08-28T17:51:11Z</time>
  <course>245.96</course>
  <speed>0.02</speed>
  <fix>3d</fix>
</trkpt>
<trkpt lat="40.0713749" lon="-105.229789">
  <ele>1583.0</ele>
  <time>2026-08-28T17:51:11Z</time>
  <course>0.0</course>
  <speed>0.0</speed>
  <fix>3d</fix>
</trkpt>
<trkpt lat="40.0713748" lon="-105.229789">
  <ele>1582.94</ele>
  <time>2026-08-28T17:51:11Z</time>
  <course>245.96</course>
  <speed>0.02</speed>
  <fix>3d</fix>
</trkpt>
<trkpt lat="40.0713749" lon="-105.229789">
  <ele>1583.0</ele>
  <time>2026-08-28T17:51:11Z</time>
  <course>0.0</course>
  <speed>0.0</speed>
  <fix>3d</fix>
</trkpt>
<trkpt lat="40.0713748" lon="-105.229789">
  <ele>1582.94</ele>
  <time>2026-08-28T17:51:11Z</time>
  <course>245.95</course>
  <speed>0.02</speed>
  <fix>3d</fix>
</trkpt>
<trkpt lat="40.0713749" lon="-105.229789">
  <ele>1583.0</ele>
  <time>2026-08-28T17:51:11Z</time>
  <course>0.0</course>
  <speed>0.0</speed>
  <fix>3d</fix>
</trkpt>
<trkpt lat="40.0713748" lon="-105.229789">
  <ele>1582.94</ele>
  <time>2026-08-28T17:51:11Z</time>
  <course>245.95</course>
  <speed>0.02</speed>
  <fix>3d</fix>
</trkpt>
<trkpt lat="40.0713749" lon="-105.229789">
  <ele>1583.0</ele>
  <time>2026-08-28T17:51:11Z</time>
  <course>0.0</course>
  <speed>0.0</speed>
  <fix>3d</fix>
</trkpt>
<trkpt lat="40.0713748" lon="-105.229789">
  <ele>1582.94</ele>
  <time>2026-08-28T17:51:11Z</time>
  <course>245.95</course>
  <speed>0.02</speed>
  <fix>3d</fix>
</trkpt>
<trkpt lat="40.0713749" lon="-105.229789">
  <ele>1583.0</ele>
  <time>2026-08-28T17:51:11Z</time>
  <course>0.0</course>
  <speed>0.0</speed>
  <fix>3d</fix>
</trkpt>
<trkpt lat="40.0713748" lon="-105.229789">
  <ele>1582.94</ele>
  <time>2026-08-28T17:51:11Z</time>
  <course>245.95</course>
  <speed>0.02</speed>
  <fix>3d</fix>
</trkpt>
<trkpt lat="40.0713749" lon="-105.229789">
  <ele>1583.0</ele>
  <time>2026-08-28T17:51:11Z</time>
  <course>0.0</course>
  <speed>0.0</speed>
  <fix>3d</fix>
</trkpt>
<trkpt lat="40.0713748" lon="-105.229789">
  <ele>1582.94</ele>
  <time>2026-08-28T17:51:11Z</time>
  <course>245.94</course>
  <speed>0.02</speed>
  <fix>3d</fix>
</trkpt>
<trkpt lat="40.0713749" lon="-105.229789">
  <ele>1583.0</ele>
  <time>2026-08-28T17:51:11Z</time>
  <course>0.0</course>
  <speed>0.0</speed>
  <fix>3d</fix>
</trkpt>
<trkpt lat="40.0713748" lon="-105.229789">
  <ele>1582.94</ele>
  <time>2026-08-28T17:51:11Z</time>
  <course>245.94</course>
  <speed>0.02</speed>
  <fix>3d</fix>
</trkpt>
<trkpt lat="40.0713749" lon="-105.229789">
  <ele>1583.0</ele>
  <time>2026-08-28T17:51:11Z</time>
  <course>0.0</course>
  <speed>0.0</speed>
  <fix>3d</fix>
</trkpt>
<trkpt lat="40.0713748" lon="-105.229789">
  <ele>1582.94</ele>
  <time>2026-08-28T17:51:11Z</time>
  <course>245.94</course>
  <speed>0.02</speed>
  <fix>3d</fix>
</trkpt>
<trkpt lat="40.0713749" lon="-105.229789">
  <ele>1583.0</ele>
  <time>2026-08-28T17:51:11Z</time>
  <course>0.0</course>
  <speed>0.0</speed>
  <fix>3d</fix>
</trkpt>
<trkpt lat="40.0713748" lon="-105.229789">
  <ele>1582.93</ele>
  <time>2026-08-28T17:51:11Z</time>
  <course>245.94</course>
  <speed>0.02</speed>
  <fix>3d</fix>
</trkpt>
<trkpt lat="40.0713749" lon="-105.229789">
  <ele>1583.0</ele>
  <time>2026-08-28T17:51:11Z</time>
  <course>0.0</course>
  <speed>0.0</speed>
  <fix>3d</fix>
</trkpt>
<trkpt lat="40.0713748" lon="-105.229789">
  <ele>1582.92</ele>
  <time>2026-08-28T17:51:11Z</time>
  <course>245.93</course>
  <speed>0.02</speed>
  <fix>3d</fix>
</trkpt>
<trkpt lat="40.0713749" lon="-105.229789">
  <ele>1583.0</ele>
  <time>2026-08-28T17:51:11Z</time>
  <course>0.0</course>
  <speed>0.0</speed>
  <fix>3d</fix>
</trkpt>
<trkpt lat="40.0713748" lon="-105.229789">
  <ele>1582.92</ele>
  <time>2026-08-28T17:51:11Z</time>
  <course>245.93</course>
  <speed>0.02</speed>
  <fix>3d</fix>
</trkpt>
<trkpt lat="40.0713749" lon="-105.229789">
  <ele>1583.0</ele>
  <time>2026-08-28T17:51:11Z</time>
  <course>0.0</course>
  <speed>0.0</speed>
  <fix>3d</fix>
</trkpt>
<trkpt lat="40.0713748" lon="-105.229789">
  <ele>1582.92</ele>
  <time>2026-08-28T17:51:11Z</time>
  <course>245.93</course>
  <speed>0.02</speed>
  <fix>3d</fix>
</trkpt>
<trkpt lat="40.0713749" lon="-105.229789">
  <ele>1583.0</ele>
  <time>2026-08-28T17:51:11Z</time>
  <course>0.0</course>
  <speed>0.0</speed>
  <fix>3d</fix>
</trkpt>
<trkpt lat="40.0713748" lon="-105.229789">
  <ele>1582.91</ele>
  <time>2026-08-28T17:51:11Z</time>
  <course>245.93</course>
  <speed>0.02</speed>
  <fix>3d</fix>
</trkpt>
<trkpt lat="40.0713749" lon="-105.229789">
  <ele>1583.0</ele>
  <time>2026-08-28T17:51:11Z</time>
  <course>0.0</course>
  <speed>0.0</speed>
  <fix>3d</fix>
</trkpt>
<trkpt lat="40.0713748" lon="-105.229789">
  <ele>1582.91</ele>
  <time>2026-08-28T17:51:11Z</time>
  <course>245.92</course>
  <speed>0.02</speed>
  <fix>3d</fix>
</trkpt>
<trkpt lat="40.0713749" lon="-105.229789">
  <ele>1583.0</ele>
  <time>2026-08-28T17:51:11Z</time>
  <course>0.0</course>
  <speed>0.0</speed>
  <fix>3d</fix>
</trkpt>
<trkpt lat="40.0713748" lon="-105.229789">
  <ele>1582.91</ele>
  <time>2026-08-28T17:51:11Z</time>
  <course>245.92</course>
  <speed>0.02</speed>
  <fix>3d</fix>
</trkpt>
<trkpt lat="40.0713749" lon="-105.229789">
  <ele>1583.0</ele>
  <time>2026-08-28T17:51:11Z</time>
  <course>0.0</course>
  <speed>0.0</speed>
  <fix>3d</fix>
</trkpt>
<trkpt lat="40.0713748" lon="-105.229789">
  <ele>1582.91</ele>
  <time>2026-08-28T17:51:11Z</time>
  <course>245.92</course>
  <speed>0.02</speed>
  <fix>3d</fix>
</trkpt>
<trkpt lat="40.0713749" lon="-105.229789">
  <ele>1583.0</ele>
  <time>2026-08-28T17:51:11Z</time>
  <course>0.0</course>
  <speed>0.0</speed>
  <fix>3d</fix>
</trkpt>
<trkpt lat="40.0713748" lon="-105.229789">
  <ele>1582.91</ele>
  <time>2026-08-28T17:51:11Z</time>
  <course>245.91</course>
  <speed>0.02</speed>
  <fix>3d</fix>
</trkpt>
<trkpt lat="40.0713749" lon="-105.229789">
  <ele>1583.0</ele>
  <time>2026-08-28T17:51:11Z</time>
  <course>0.0</course>
  <speed>0.0</speed>
  <fix>3d</fix>
</trkpt>
<trkpt lat="40.0713748" lon="-105.229789">
  <ele>1582.91</ele>
  <time>2026-08-28T17:51:11Z</time>
  <course>245.91</course>
  <speed>0.02</speed>
  <fix>3d</fix>
</trkpt>
<trkpt lat="40.0713749" lon="-105.229789">
  <ele>1583.0</ele>
  <time>2026-08-28T17:51:11Z</time>
  <course>0.0</course>
  <speed>0.0</speed>
  <fix>3d</fix>
</trkpt>
<trkpt lat="40.0713748" lon="-105.229789">
  <ele>1582.91</ele>
  <time>2026-08-28T17:51:11Z</time>
  <course>245.91</course>
  <speed>0.02</speed>
  <fix>3d</fix>
</trkpt>
<trkpt lat="40.0713749" lon="-105.229789">
  <ele>1583.0</ele>
  <time>2026-08-28T17:51:11Z</time>
  <course>0.0</course>
  <speed>0.0</speed>
  <fix>3d</fix>
</trkpt>
<trkpt lat="40.0713748" lon="-105.229789">
  <ele>1582.91</ele>
  <time>2026-08-28T17:51:11Z</time>
  <course>245.91</course>
  <speed>0.02</speed>
  <fix>3d</fix>
</trkpt>
<trkpt lat="40.0713749" lon="-105.229789">
  <ele>1583.0</ele>
  <time>2026-08-28T17:51:11Z</time>
  <course>0.0</course>
  <speed>0.0</speed>
  <fix>3d</fix>
</trkpt>
<trkpt lat="40.0713748" lon="-105.229789">
  <ele>1582.91</ele>
  <time>2026-08-28T17:51:11Z</time>
  <course>245.9</course>
  <speed>0.02</speed>
  <fix>3d</fix>
</trkpt>
<trkpt lat="40.0713749" lon="-105.229789">
  <ele>1583.0</ele>
  <time>2026-08-28T17:51:11Z</time>
  <course>0.0</course>
  <speed>0.0</speed>
  <fix>3d</fix>
</trkpt>
<trkpt lat="40.0713748" lon="-105.229789">
  <ele>1582.91</ele>
  <time>2026-08-28T17:51:11Z</time>
  <course>245.9</course>
  <speed>0.02</speed>
  <fix>3d</fix>
</trkpt>
<trkpt lat="40.0713749" lon="-105.229789">
  <ele>1583.0</ele>
  <time>2026-08-28T17:51:11Z</time>
  <course>0.0</course>
  <speed>0.0</speed>
  <fix>3d</fix>
</trkpt>
<trkpt lat="40.0713748" lon="-105.229789">
  <ele>1582.92</ele>
  <time>2026-08-28T17:51:11Z</time>
  <course>245.9</course>
  <speed>0.02</speed>
  <fix>3d</fix>
</trkpt>
<trkpt lat="40.0713749" lon="-105.229789">
  <ele>1583.0</ele>
  <time>2026-08-28T17:51:11Z</time>
  <course>0.0</course>
  <speed>0.0</speed>
  <fix>3d</fix>
</trkpt>
<trkpt lat="40.0713748" lon="-105.229789">
  <ele>1582.92</ele>
  <time>2026-08-28T17:51:11Z</time>
  <course>245.9</course>
  <speed>0.02</speed>
  <fix>3d</fix>
</trkpt>
<trkpt lat="40.0713749" lon="-105.229789">
  <ele>1583.0</ele>
  <time>2026-08-28T17:51:11Z</time>
  <course>0.0</course>
  <speed>0.0</speed>
  <fix>3d</fix>
</trkpt>
<trkpt lat="40.0713748" lon="-105.229789">
  <ele>1582.92</ele>
  <time>2026-08-28T17:51:11Z</time>
  <course>245.89</course>
  <speed>0.02</speed>
  <fix>3d</fix>
</trkpt>
<trkpt lat="40.0713749" lon="-105.229789">
  <ele>1583.0</ele>
  <time>2026-08-28T17:51:11Z</time>
  <course>0.0</course>
  <speed>0.0</speed>
  <fix>3d</fix>
</trkpt>
<trkpt lat="40.0713748" lon="-105.229789">
  <ele>1582.92</ele>
  <time>2026-08-28T17:51:11Z</time>
  <course>245.89</course>
  <speed>0.02</speed>
  <fix>3d</fix>
</trkpt>
<trkpt lat="40.0713749" lon="-105.229789">
  <ele>1583.0</ele>
  <time>2026-08-28T17:51:11Z</time>
  <course>0.0</course>
  <speed>0.0</speed>
  <fix>3d</fix>
</trkpt>
<trkpt lat="40.0713748" lon="-105.229789">
  <ele>1582.91</ele>
  <time>2026-08-28T17:51:11Z</time>
  <course>245.89</course>
  <speed>0.02</speed>
  <fix>3d</fix>
</trkpt>
<trkpt lat="40.0713749" lon="-105.229789">
  <ele>1583.0</ele>
  <time>2026-08-28T17:51:11Z</time>
  <course>0.0</course>
  <speed>0.0</speed>
  <fix>3d</fix>
</trkpt>
<trkpt lat="40.0713748" lon="-105.229789">
  <ele>1582.91</ele>
  <time>2026-08-28T17:51:11Z</time>
  <course>245.89</course>
  <speed>0.02</speed>
  <fix>3d</fix>
</trkpt>
<trkpt lat="40.0713749" lon="-105.229789">
  <ele>1583.0</ele>
  <time>2026-08-28T17:51:11Z</time>
  <course>0.0</course>
  <speed>0.0</speed>
  <fix>3d</fix>
</trkpt>
<trkpt lat="40.0713748" lon="-105.229789">
  <ele>1582.91</ele>
  <time>2026-08-28T17:51:11Z</time>
  <course>245.89</course>
  <speed>0.02</speed>
  <fix>3d</fix>
</trkpt>
<trkpt lat="40.0713749" lon="-105.229789">
  <ele>1583.0</ele>
  <time>2026-08-28T17:51:11Z</time>
  <course>0.0</course>
  <speed>0.0</speed>
  <fix>3d</fix>
</trkpt>
<trkpt lat="40.0713748" lon="-105.229789">
  <ele>1582.91</ele>
  <time>2026-08-28T17:51:11Z</time>
  <course>245.88</course>
  <speed>0.02</speed>
  <fix>3d</fix>
</trkpt>
<trkpt lat="40.0713749" lon="-105.229789">
  <ele>1583.0</ele>
  <time>2026-08-28T17:51:11Z</time>
  <course>0.0</course>
  <speed>0.0</speed>
  <fix>3d</fix>
</trkpt>
<trkpt lat="40.0713748" lon="-105.229789">
  <ele>1582.91</ele>
  <time>2026-08-28T17:51:11Z</time>
  <course>245.88</course>
  <speed>0.02</speed>
  <fix>3d</fix>
</trkpt>
<trkpt lat="40.0713749" lon="-105.229789">
  <ele>1583.0</ele>
  <time>2026-08-28T17:51:11Z</time>
  <course>0.0</course>
  <speed>0.0</speed>
  <fix>3d</fix>
</trkpt>
<trkpt lat="40.0713748" lon="-105.229789">
  <ele>1582.91</ele>
  <time>2026-08-28T17:51:11Z</time>
  <course>245.88</course>
  <speed>0.02</speed>
  <fix>3d</fix>
</trkpt>
<trkpt lat="40.0713749" lon="-105.229789">
  <ele>1583.0</ele>
  <time>2026-08-28T17:51:11Z</time>
  <course>0.0</course>
  <speed>0.0</speed>
  <fix>3d</fix>
</trkpt>
<trkpt lat="40.0713748" lon="-105.229789">
  <ele>1582.91</ele>
  <time>2026-08-28T17:51:11Z</time>
  <course>245.88</course>
  <speed>0.02</speed>
  <fix>3d</fix>
</trkpt>
<trkpt lat="40.0713749" lon="-105.229789">
  <ele>1583.0</ele>
  <time>2026-08-28T17:51:11Z</time>
  <course>0.0</course>
  <speed>0.0</speed>
  <fix>3d</fix>
</trkpt>
<trkpt lat="40.0713748" lon="-105.229789">
  <ele>1582.91</ele>
  <time>2026-08-28T17:51:11Z</time>
  <course>245.87</course>
  <speed>0.02</speed>
  <fix>3d</fix>
</trkpt>
<trkpt lat="40.0713749" lon="-105.229789">
  <ele>1583.0</ele>
  <time>2026-08-28T17:51:11Z</time>
  <course>0.0</course>
  <speed>0.0</speed>
  <fix>3d</fix>
</trkpt>
<trkpt lat="40.0713748" lon="-105.229789">
  <ele>1582.91</ele>
  <time>2026-08-28T17:51:11Z</time>
  <course>245.87</course>
  <speed>0.02</speed>
  <fix>3d</fix>
</trkpt>
<trkpt lat="40.0713749" lon="-105.229789">
  <ele>1583.0</ele>
  <time>2026-08-28T17:51:11Z</time>
  <course>0.0</course>
  <speed>0.0</speed>
  <fix>3d</fix>
</trkpt>
<trkpt lat="40.0713748" lon="-105.229789">
  <ele>1582.91</ele>
  <time>2026-08-28T17:51:11Z</time>
  <course>245.87</course>
  <speed>0.02</speed>
  <fix>3d</fix>
</trkpt>
<trkpt lat="40.0713749" lon="-105.229789">
  <ele>1583.0</ele>
  <time>2026-08-28T17:51:11Z</time>
  <course>0.0</course>
  <speed>0.0</speed>
  <fix>3d</fix>
</trkpt>
<trkpt lat="40.0713748" lon="-105.229789">
  <ele>1582.91</ele>
  <time>2026-08-28T17:51:11Z</time>
  <course>245.87</course>
  <speed>0.02</speed>
  <fix>3d</fix>
</trkpt>
<trkpt lat="40.0713749" lon="-105.229789">
  <ele>1583.0</ele>
  <time>2026-08-28T17:51:11Z</time>
  <course>0.0</course>
  <speed>0.0</speed>
  <fix>3d</fix>
</trkpt>
<trkpt lat="40.0713748" lon="-105.229789">
  <ele>1582.91</ele>
  <time>2026-08-28T17:51:11Z</time>
  <course>245.86</course>
  <speed>0.02</speed>
  <fix>3d</fix>
</trkpt>
<trkpt lat="40.0713749" lon="-105.229789">
  <ele>1583.0</ele>
  <time>2026-08-28T17:51:11Z</time>
  <course>0.0</course>
  <speed>0.0</speed>
  <fix>3d</fix>
</trkpt>
<trkpt lat="40.0713748" lon="-105.229789">
  <ele>1582.91</ele>
  <time>2026-08-28T17:51:11Z</time>
  <course>245.86</course>
  <speed>0.02</speed>
  <fix>3d</fix>
</trkpt>
<trkpt lat="40.0713749" lon="-105.229789">
  <ele>1583.0</ele>
  <time>2026-08-28T17:51:11Z</time>
  <course>0.0</course>
  <speed>0.0</speed>
  <fix>3d</fix>
</trkpt>
<trkpt lat="40.0713748" lon="-105.229789">
  <ele>1582.92</ele>
  <time>2026-08-28T17:51:11Z</time>
  <course>245.86</course>
  <speed>0.02</speed>
  <fix>3d</fix>
</trkpt>
<trkpt lat="40.0713749" lon="-105.229789">
  <ele>1583.0</ele>
  <time>2026-08-28T17:51:11Z</time>
  <course>0.0</course>
  <speed>0.0</speed>
  <fix>3d</fix>
</trkpt>
<trkpt lat="40.0713748" lon="-105.229789">
  <ele>1582.92</ele>
  <time>2026-08-28T17:51:11Z</time>
  <course>245.86</course>
  <speed>0.02</speed>
  <fix>3d</fix>
</trkpt>
<trkpt lat="40.0713749" lon="-105.229789">
  <ele>1583.0</ele>
  <time>2026-08-28T17:51:11Z</time>
  <course>0.0</course>
  <speed>0.0</speed>
  <fix>3d</fix>
</trkpt>
<trkpt lat="40.0713748" lon="-105.229789">
  <ele>1582.92</ele>
  <time>2026-08-28T17:51:11Z</time>
  <course>245.85</course>
  <speed>0.02</speed>
  <fix>3d</fix>
</trkpt>
<trkpt lat="40.0713749" lon="-105.229789">
  <ele>1583.0</ele>
  <time>2026-08-28T17:51:11Z</time>
  <course>0.0</course>
  <speed>0.0</speed>
  <fix>3d</fix>
</trkpt>
<trkpt lat="40.0713748" lon="-105.229789">
  <ele>1582.93</ele>
  <time>2026-08-28T17:51:11Z</time>
  <course>245.85</course>
  <speed>0.02</speed>
  <fix>3d</fix>
</trkpt>
<trkpt lat="40.0713749" lon="-105.229789">
  <ele>1583.0</ele>
  <time>2026-08-28T17:51:11Z</time>
  <course>0.0</course>
  <speed>0.0</speed>
  <fix>3d</fix>
</trkpt>
<trkpt lat="40.0713748" lon="-105.229789">
  <ele>1582.93</ele>
  <time>2026-08-28T17:51:11Z</time>
  <course>245.85</course>
  <speed>0.02</speed>
  <fix>3d</fix>
</trkpt>
<trkpt lat="40.0713749" lon="-105.229789">
  <ele>1583.0</ele>
  <time>2026-08-28T17:51:11Z</time>
  <course>0.0</course>
  <speed>0.0</speed>
  <fix>3d</fix>
</trkpt>
<trkpt lat="40.0713748" lon="-105.229789">
  <ele>1582.93</ele>
  <time>2026-08-28T17:51:11Z</time>
  <course>245.85</course>
  <speed>0.02</speed>
  <fix>3d</fix>
</trkpt>
<trkpt lat="40.0713749" lon="-105.229789">
  <ele>1583.0</ele>
  <time>2026-08-28T17:51:11Z</time>
  <course>0.0</course>
  <speed>0.0</speed>
  <fix>3d</fix>
</trkpt>
<trkpt lat="40.0713748" lon="-105.229789">
  <ele>1582.93</ele>
  <time>2026-08-28T17:51:11Z</time>
  <course>245.84</course>
  <speed>0.02</speed>
  <fix>3d</fix>
</trkpt>
<trkpt lat="40.0713749" lon="-105.229789">
  <ele>1583.0</ele>
  <time>2026-08-28T17:51:11Z</time>
  <course>0.0</course>
  <speed>0.0</speed>
  <fix>3d</fix>
</trkpt>
<trkpt lat="40.0713748" lon="-105.229789">
  <ele>1582.92</ele>
  <time>2026-08-28T17:51:11Z</time>
  <course>245.84</course>
  <speed>0.02</speed>
  <fix>3d</fix>
</trkpt>
<trkpt lat="40.0713749" lon="-105.229789">
  <ele>1583.0</ele>
  <time>2026-08-28T17:51:11Z</time>
  <course>0.0</course>
  <speed>0.0</speed>
  <fix>3d</fix>
</trkpt>
<trkpt lat="40.0713748" lon="-105.229789">
  <ele>1582.92</ele>
  <time>2026-08-28T17:51:11Z</time>
  <course>245.84</course>
  <speed>0.02</speed>
  <fix>3d</fix>
</trkpt>
<trkpt lat="40.0713749" lon="-105.229789">
  <ele>1583.0</ele>
  <time>2026-08-28T17:51:11Z</time>
  <course>0.0</course>
  <speed>0.0</speed>
  <fix>3d</fix>
</trkpt>
<trkpt lat="40.0713748" lon="-105.229789">
  <ele>1582.91</ele>
  <time>2026-08-28T17:51:11Z</time>
  <course>245.84</course>
  <speed>0.02</speed>
  <fix>3d</fix>
</trkpt>
<trkpt lat="40.0713749" lon="-105.229789">
  <ele>1583.0</ele>
  <time>2026-08-28T17:51:11Z</time>
  <course>0.0</course>
  <speed>0.0</speed>
  <fix>3d</fix>
</trkpt>
<trkpt lat="40.0713748" lon="-105.229789">
  <ele>1582.91</ele>
  <time>2026-08-28T17:51:11Z</time>
  <course>245.83</course>
  <speed>0.02</speed>
  <fix>3d</fix>
</trkpt>
<trkpt lat="40.0713749" lon="-105.229789">
  <ele>1583.0</ele>
  <time>2026-08-28T17:51:11Z</time>
  <course>0.0</course>
  <speed>0.0</speed>
  <fix>3d</fix>
</trkpt>
<trkpt lat="40.0713748" lon="-105.229789">
  <ele>1582.91</ele>
  <time>2026-08-28T17:51:11Z</time>
  <course>245.83</course>
  <speed>0.02</speed>
  <fix>3d</fix>
</trkpt>
<trkpt lat="40.0713749" lon="-105.229789">
  <ele>1583.0</ele>
  <time>2026-08-28T17:51:11Z</time>
  <course>0.0</course>
  <speed>0.0</speed>
  <fix>3d</fix>
</trkpt>
<trkpt lat="40.0713748" lon="-105.229789">
  <ele>1582.9</ele>
  <time>2026-08-28T17:51:11Z</time>
  <course>245.83</course>
  <speed>0.02</speed>
  <fix>3d</fix>
</trkpt>
<trkpt lat="40.0713749" lon="-105.229789">
  <ele>1583.0</ele>
  <time>2026-08-28T17:51:11Z</time>
  <course>0.0</course>
  <speed>0.0</speed>
  <fix>3d</fix>
</trkpt>
<trkpt lat="40.0713748" lon="-105.229789">
  <ele>1582.9</ele>
  <time>2026-08-28T17:51:11Z</time>
  <course>245.83</course>
  <speed>0.02</speed>
  <fix>3d</fix>
</trkpt>
<trkpt lat="40.0713749" lon="-105.229789">
  <ele>1583.0</ele>
  <time>2026-08-28T17:51:11Z</time>
  <course>0.0</course>
  <speed>0.0</speed>
  <fix>3d</fix>
</trkpt>
<trkpt lat="40.0713748" lon="-105.229789">
  <ele>1582.9</ele>
  <time>2026-08-28T17:51:11Z</time>
  <course>245.82</course>
  <speed>0.02</speed>
  <fix>3d</fix>
</trkpt>
<trkpt lat="40.0713749" lon="-105.229789">
  <ele>1583.0</ele>
  <time>2026-08-28T17:51:11Z</time>
  <course>0.0</course>
  <speed>0.0</speed>
  <fix>3d</fix>
</trkpt>
<trkpt lat="40.0713748" lon="-105.229789">
  <ele>1582.9</ele>
  <time>2026-08-28T17:51:11Z</time>
  <course>245.82</course>
  <speed>0.02</speed>
  <fix>3d</fix>
</trkpt>
<trkpt lat="40.0713749" lon="-105.229789">
  <ele>1583.0</ele>
  <time>2026-08-28T17:51:11Z</time>
  <course>0.0</course>
  <speed>0.0</speed>
  <fix>3d</fix>
</trkpt>
<trkpt lat="40.0713748" lon="-105.229789">
  <ele>1582.91</ele>
  <time>2026-08-28T17:51:11Z</time>
  <course>245.82</course>
  <speed>0.02</speed>
  <fix>3d</fix>
</trkpt>
<trkpt lat="40.0713749" lon="-105.229789">
  <ele>1583.0</ele>
  <time>2026-08-28T17:51:11Z</time>
  <course>0.0</course>
  <speed>0.0</speed>
  <fix>3d</fix>
</trkpt>
<trkpt lat="40.0713748" lon="-105.229789">
  <ele>1582.91</ele>
  <time>2026-08-28T17:51:11Z</time>
  <course>245.82</course>
  <speed>0.02</speed>
  <fix>3d</fix>
</trkpt>
<trkpt lat="40.0713749" lon="-105.229789">
  <ele>1583.0</ele>
  <time>2026-08-28T17:51:11Z</time>
  <course>0.0</course>
  <speed>0.0</speed>
  <fix>3d</fix>
</trkpt>
<trkpt lat="40.0713748" lon="-105.229789">
  <ele>1582.92</ele>
  <time>2026-08-28T17:51:11Z</time>
  <course>245.82</course>
  <speed>0.02</speed>
  <fix>3d</fix>
</trkpt>
<trkpt lat="40.0713749" lon="-105.229789">
  <ele>1583.0</ele>
  <time>2026-08-28T17:51:11Z</time>
  <course>0.0</course>
  <speed>0.0</speed>
  <fix>3d</fix>
</trkpt>
<trkpt lat="40.0713748" lon="-105.229789">
  <ele>1582.93</ele>
  <time>2026-08-28T17:51:11Z</time>
  <course>245.81</course>
  <speed>0.02</speed>
  <fix>3d</fix>
</trkpt>
<trkpt lat="40.0713749" lon="-105.229789">
  <ele>1583.0</ele>
  <time>2026-08-28T17:51:11Z</time>
  <course>0.0</course>
  <speed>0.0</speed>
  <fix>3d</fix>
</trkpt>
<trkpt lat="40.0713748" lon="-105.229789">
  <ele>1582.93</ele>
  <time>2026-08-28T17:51:11Z</time>
  <course>245.81</course>
  <speed>0.02</speed>
  <fix>3d</fix>
</trkpt>
<trkpt lat="40.0713749" lon="-105.229789">
  <ele>1583.0</ele>
  <time>2026-08-28T17:51:11Z</time>
  <course>0.0</course>
  <speed>0.0</speed>
  <fix>3d</fix>
</trkpt>
<trkpt lat="40.0713748" lon="-105.229789">
  <ele>1582.93</ele>
  <time>2026-08-28T17:51:11Z</time>
  <course>245.81</course>
  <speed>0.02</speed>
  <fix>3d</fix>
</trkpt>
<trkpt lat="40.0713749" lon="-105.229789">
  <ele>1583.0</ele>
  <time>2026-08-28T17:51:11Z</time>
  <course>0.0</course>
  <speed>0.0</speed>
  <fix>3d</fix>
</trkpt>
<trkpt lat="40.0713748" lon="-105.229789">
  <ele>1582.94</ele>
  <time>2026-08-28T17:51:11Z</time>
  <course>245.81</course>
  <speed>0.02</speed>
  <fix>3d</fix>
</trkpt>
<trkpt lat="40.0713749" lon="-105.229789">
  <ele>1583.0</ele>
  <time>2026-08-28T17:51:11Z</time>
  <course>0.0</course>
  <speed>0.0</speed>
  <fix>3d</fix>
</trkpt>
<trkpt lat="40.0713748" lon="-105.229789">
  <ele>1582.94</ele>
  <time>2026-08-28T17:51:11Z</time>
  <course>245.8</course>
  <speed>0.02</speed>
  <fix>3d</fix>
</trkpt>
<trkpt lat="40.0713749" lon="-105.229789">
  <ele>1583.0</ele>
  <time>2026-08-28T17:51:11Z</time>
  <course>0.0</course>
  <speed>0.0</speed>
  <fix>3d</fix>
</trkpt>
<trkpt lat="40.0713748" lon="-105.229789">
  <ele>1582.95</ele>
  <time>2026-08-28T17:51:11Z</time>
  <course>245.8</course>
  <speed>0.02</speed>
  <fix>3d</fix>
</trkpt>
<trkpt lat="40.0713749" lon="-105.229789">
  <ele>1583.0</ele>
  <time>2026-08-28T17:51:11Z</time>
  <course>0.0</course>
  <speed>0.0</speed>
  <fix>3d</fix>
</trkpt>
<trkpt lat="40.0713748" lon="-105.229789">
  <ele>1582.95</ele>
  <time>2026-08-28T17:51:11Z</time>
  <course>245.8</course>
  <speed>0.02</speed>
  <fix>3d</fix>
</trkpt>
<trkpt lat="40.0713749" lon="-105.229789">
  <ele>1583.0</ele>
  <time>2026-08-28T17:51:11Z</time>
  <course>0.0</course>
  <speed>0.0</speed>
  <fix>3d</fix>
</trkpt>
<trkpt lat="40.0713748" lon="-105.229789">
  <ele>1582.96</ele>
  <time>2026-08-28T17:51:11Z</time>
  <course>245.8</course>
  <speed>0.02</speed>
  <fix>3d</fix>
</trkpt>
<trkpt lat="40.0713749" lon="-105.229789">
  <ele>1583.0</ele>
  <time>2026-08-28T17:51:11Z</time>
  <course>0.0</course>
  <speed>0.0</speed>
  <fix>3d</fix>
</trkpt>
<trkpt lat="40.0713748" lon="-105.229789">
  <ele>1582.97</ele>
  <time>2026-08-28T17:51:11Z</time>
  <course>245.79</course>
  <speed>0.02</speed>
  <fix>3d</fix>
</trkpt>
<trkpt lat="40.0713749" lon="-105.229789">
  <ele>1583.0</ele>
  <time>2026-08-28T17:51:11Z</time>
  <course>0.0</course>
  <speed>0.0</speed>
  <fix>3d</fix>
</trkpt>
<trkpt lat="40.0713748" lon="-105.229789">
  <ele>1582.98</ele>
  <time>2026-08-28T17:51:11Z</time>
  <course>245.79</course>
  <speed>0.02</speed>
  <fix>3d</fix>
</trkpt>
<trkpt lat="40.0713749" lon="-105.229789">
  <ele>1583.0</ele>
  <time>2026-08-28T17:51:11Z</time>
  <course>0.0</course>
  <speed>0.0</speed>
  <fix>3d</fix>
</trkpt>
<trkpt lat="40.0713748" lon="-105.229789">
  <ele>1582.98</ele>
  <time>2026-08-28T17:51:11Z</time>
  <course>245.79</course>
  <speed>0.02</speed>
  <fix>3d</fix>
</trkpt>
<trkpt lat="40.0713749" lon="-105.229789">
  <ele>1583.0</ele>
  <time>2026-08-28T17:51:11Z</time>
  <course>0.0</course>
  <speed>0.0</speed>
  <fix>3d</fix>
</trkpt>
<trkpt lat="40.0713748" lon="-105.229789">
  <ele>1582.99</ele>
  <time>2026-08-28T17:51:11Z</time>
  <course>245.79</course>
  <speed>0.02</speed>
  <fix>3d</fix>
</trkpt>
<trkpt lat="40.0713749" lon="-105.229789">
  <ele>1583.0</ele>
  <time>2026-08-28T17:51:11Z</time>
  <course>0.0</course>
  <speed>0.0</speed>
  <fix>3d</fix>
</trkpt>
<trkpt lat="40.0713748" lon="-105.229789">
  <ele>1582.99</ele>
  <time>2026-08-28T17:51:11Z</time>
  <course>245.79</course>
  <speed>0.02</speed>
  <fix>3d</fix>
</trkpt>
<trkpt lat="40.0713749" lon="-105.229789">
  <ele>1583.0</ele>
  <time>2026-08-28T17:51:11Z</time>
  <course>0.0</course>
  <speed>0.0</speed>
  <fix>3d</fix>
</trkpt>
<trkpt lat="40.0713748" lon="-105.229789">
  <ele>1583.0</ele>
  <time>2026-08-28T17:51:11Z</time>
  <course>245.78</course>
  <speed>0.02</speed>
  <fix>3d</fix>
</trkpt>
<trkpt lat="40.0713749" lon="-105.229789">
  <ele>1583.0</ele>
  <time>2026-08-28T17:51:11Z</time>
  <course>0.0</course>
  <speed>0.0</speed>
  <fix>3d</fix>
</trkpt>
<trkpt lat="40.0713748" lon="-105.229789">
  <ele>1583.0</ele>
  <time>2026-08-28T17:51:11Z</time>
  <course>245.78</course>
  <speed>0.02</speed>
  <fix>3d</fix>
</trkpt>
<trkpt lat="40.0713749" lon="-105.229789">
  <ele>1583.0</ele>
  <time>2026-08-28T17:51:11Z</time>
  <course>0.0</course>
  <speed>0.0</speed>
  <fix>3d</fix>
</trkpt>
<trkpt lat="40.0713748" lon="-105.229789">
  <ele>1583.01</ele>
  <time>2026-08-28T17:51:11Z</time>
  <course>245.78</course>
  <speed>0.02</speed>
  <fix>3d</fix>
</trkpt>
<trkpt lat="40.0713749" lon="-105.229789">
  <ele>1583.0</ele>
  <time>2026-08-28T17:51:11Z</time>
  <course>0.0</course>
  <speed>0.0</speed>
  <fix>3d</fix>
</trkpt>
<trkpt lat="40.0713748" lon="-105.229789">
  <ele>1583.01</ele>
  <time>2026-08-28T17:51:11Z</time>
  <course>245.78</course>
  <speed>0.02</speed>
  <fix>3d</fix>
</trkpt>
<trkpt lat="40.0713749" lon="-105.229789">
  <ele>1583.0</ele>
  <time>2026-08-28T17:51:11Z</time>
  <course>0.0</course>
  <speed>0.0</speed>
  <fix>3d</fix>
</trkpt>
<trkpt lat="40.0713748" lon="-105.229789">
  <ele>1583.01</ele>
  <time>2026-08-28T17:51:11Z</time>
  <course>245.77</course>
  <speed>0.02</speed>
  <fix>3d</fix>
</trkpt>
<trkpt lat="40.0713749" lon="-105.229789">
  <ele>1583.0</ele>
  <time>2026-08-28T17:51:11Z</time>
  <course>0.0</course>
  <speed>0.0</speed>
  <fix>3d</fix>
</trkpt>
<trkpt lat="40.0713748" lon="-105.229789">
  <ele>1583.02</ele>
  <time>2026-08-28T17:51:11Z</time>
  <course>245.77</course>
  <speed>0.02</speed>
  <fix>3d</fix>
</trkpt>
<trkpt lat="40.0713749" lon="-105.229789">
  <ele>1583.0</ele>
  <time>2026-08-28T17:51:11Z</time>
  <course>0.0</course>
  <speed>0.0</speed>
  <fix>3d</fix>
</trkpt>
<trkpt lat="40.0713748" lon="-105.229789">
  <ele>1583.02</ele>
  <time>2026-08-28T17:51:11Z</time>
  <course>245.77</course>
  <speed>0.02</speed>
  <fix>3d</fix>
</trkpt>
<trkpt lat="40.0713749" lon="-105.229789">
  <ele>1583.0</ele>
  <time>2026-08-28T17:51:11Z</time>
  <course>0.0</course>
  <speed>0.0</speed>
  <fix>3d</fix>
</trkpt>
<trkpt lat="40.0713748" lon="-105.229789">
  <ele>1583.03</ele>
  <time>2026-08-28T17:51:11Z</time>
  <course>245.77</course>
  <speed>0.02</speed>
  <fix>3d</fix>
</trkpt>
<trkpt lat="40.0713749" lon="-105.229789">
  <ele>1583.0</ele>
  <time>2026-08-28T17:51:11Z</time>
  <course>0.0</course>
  <speed>0.0</speed>
  <fix>3d</fix>
</trkpt>
<trkpt lat="40.0713748" lon="-105.229789">
  <ele>1583.04</ele>
  <time>2026-08-28T17:51:11Z</time>
  <course>245.76</course>
  <speed>0.02</speed>
  <fix>3d</fix>
</trkpt>
<trkpt lat="40.0713749" lon="-105.229789">
  <ele>1583.0</ele>
  <time>2026-08-28T17:51:11Z</time>
  <course>0.0</course>
  <speed>0.0</speed>
  <fix>3d</fix>
</trkpt>
<trkpt lat="40.0713748" lon="-105.229789">
  <ele>1583.04</ele>
  <time>2026-08-28T17:51:11Z</time>
  <course>245.76</course>
  <speed>0.02</speed>
  <fix>3d</fix>
</trkpt>
<trkpt lat="40.0713749" lon="-105.229789">
  <ele>1583.0</ele>
  <time>2026-08-28T17:51:11Z</time>
  <course>0.0</course>
  <speed>0.0</speed>
  <fix>3d</fix>
</trkpt>
<trkpt lat="40.0713748" lon="-105.229789">
  <ele>1583.05</ele>
  <time>2026-08-28T17:51:11Z</time>
  <course>245.76</course>
  <speed>0.02</speed>
  <fix>3d</fix>
</trkpt>
<trkpt lat="40.0713749" lon="-105.229789">
  <ele>1583.0</ele>
  <time>2026-08-28T17:51:11Z</time>
  <course>0.0</course>
  <speed>0.0</speed>
  <fix>3d</fix>
</trkpt>
<trkpt lat="40.0713748" lon="-105.229789">
  <ele>1583.05</ele>
  <time>2026-08-28T17:51:11Z</time>
  <course>245.76</course>
  <speed>0.02</speed>
  <fix>3d</fix>
</trkpt>
<trkpt lat="40.0713749" lon="-105.229789">
  <ele>1583.0</ele>
  <time>2026-08-28T17:51:11Z</time>
  <course>0.0</course>
  <speed>0.0</speed>
  <fix>3d</fix>
</trkpt>
<trkpt lat="40.0713748" lon="-105.229789">
  <ele>1583.05</ele>
  <time>2026-08-28T17:51:11Z</time>
  <course>245.75</course>
  <speed>0.02</speed>
  <fix>3d</fix>
</trkpt>
<trkpt lat="40.0713749" lon="-105.229789">
  <ele>1583.0</ele>
  <time>2026-08-28T17:51:11Z</time>
  <course>0.0</course>
  <speed>0.0</speed>
  <fix>3d</fix>
</trkpt>
<trkpt lat="40.0713748" lon="-105.229789">
  <ele>1583.05</ele>
  <time>2026-08-28T17:51:11Z</time>
  <course>245.75</course>
  <speed>0.02</speed>
  <fix>3d</fix>
</trkpt>
<trkpt lat="40.0713749" lon="-105.229789">
  <ele>1583.0</ele>
  <time>2026-08-28T17:51:11Z</time>
  <course>0.0</course>
  <speed>0.0</speed>
  <fix>3d</fix>
</trkpt>
<trkpt lat="40.0713748" lon="-105.229789">
  <ele>1583.05</ele>
  <time>2026-08-28T17:51:11Z</time>
  <course>245.75</course>
  <speed>0.02</speed>
  <fix>3d</fix>
</trkpt>
<trkpt lat="40.0713749" lon="-105.229789">
  <ele>1583.0</ele>
  <time>2026-08-28T17:51:11Z</time>
  <course>0.0</course>
  <speed>0.0</speed>
  <fix>3d</fix>
</trkpt>
<trkpt lat="40.0713748" lon="-105.229789">
  <ele>1583.05</ele>
  <time>2026-08-28T17:51:11Z</time>
  <course>245.75</course>
  <speed>0.02</speed>
  <fix>3d</fix>
</trkpt>
<trkpt lat="40.0713749" lon="-105.229789">
  <ele>1583.0</ele>
  <time>2026-08-28T17:51:11Z</time>
  <course>0.0</course>
  <speed>0.0</speed>
  <fix>3d</fix>
</trkpt>
<trkpt lat="40.0713748" lon="-105.229789">
  <ele>1583.04</ele>
  <time>2026-08-28T17:51:11Z</time>
  <course>245.75</course>
  <speed>0.02</speed>
  <fix>3d</fix>
</trkpt>
<trkpt lat="40.0713749" lon="-105.229789">
  <ele>1583.0</ele>
  <time>2026-08-28T17:51:11Z</time>
  <course>0.0</course>
  <speed>0.0</speed>
  <fix>3d</fix>
</trkpt>
<trkpt lat="40.0713748" lon="-105.229789">
  <ele>1583.04</ele>
  <time>2026-08-28T17:51:11Z</time>
  <course>245.74</course>
  <speed>0.02</speed>
  <fix>3d</fix>
</trkpt>
<trkpt lat="40.0713749" lon="-105.229789">
  <ele>1583.0</ele>
  <time>2026-08-28T17:51:11Z</time>
  <course>0.0</course>
  <speed>0.0</speed>
  <fix>3d</fix>
</trkpt>
<trkpt lat="40.0713748" lon="-105.229789">
  <ele>1583.03</ele>
  <time>2026-08-28T17:51:11Z</time>
  <course>245.74</course>
  <speed>0.02</speed>
  <fix>3d</fix>
</trkpt>
<trkpt lat="40.0713749" lon="-105.229789">
  <ele>1583.0</ele>
  <time>2026-08-28T17:51:11Z</time>
  <course>0.0</course>
  <speed>0.0</speed>
  <fix>3d</fix>
</trkpt>
<trkpt lat="40.0713748" lon="-105.229789">
  <ele>1583.02</ele>
  <time>2026-08-28T17:51:11Z</time>
  <course>245.74</course>
  <speed>0.02</speed>
  <fix>3d</fix>
</trkpt>
<trkpt lat="40.0713749" lon="-105.229789">
  <ele>1583.0</ele>
  <time>2026-08-28T17:51:11Z</time>
  <course>0.0</course>
  <speed>0.0</speed>
  <fix>3d</fix>
</trkpt>
<trkpt lat="40.0713748" lon="-105.229789">
  <ele>1583.01</ele>
  <time>2026-08-28T17:51:11Z</time>
  <course>245.74</course>
  <speed>0.02</speed>
  <fix>3d</fix>
</trkpt>
<trkpt lat="40.0713749" lon="-105.229789">
  <ele>1583.0</ele>
  <time>2026-08-28T17:51:11Z</time>
  <course>0.0</course>
  <speed>0.0</speed>
  <fix>3d</fix>
</trkpt>
<trkpt lat="40.0713748" lon="-105.229789">
  <ele>1583.01</ele>
  <time>2026-08-28T17:51:11Z</time>
  <course>245.73</course>
  <speed>0.02</speed>
  <fix>3d</fix>
</trkpt>
<trkpt lat="40.0713749" lon="-105.229789">
  <ele>1583.0</ele>
  <time>2026-08-28T17:51:11Z</time>
  <course>0.0</course>
  <speed>0.0</speed>
  <fix>3d</fix>
</trkpt>
<trkpt lat="40.0713748" lon="-105.229789">
  <ele>1583.0</ele>
  <time>2026-08-28T17:51:11Z</time>
  <course>245.73</course>
  <speed>0.02</speed>
  <fix>3d</fix>
</trkpt>
<trkpt lat="40.0713749" lon="-105.229789">
  <ele>1583.0</ele>
  <time>2026-08-28T17:51:11Z</time>
  <course>0.0</course>
  <speed>0.0</speed>
  <fix>3d</fix>
</trkpt>
<trkpt lat="40.0713748" lon="-105.229789">
  <ele>1583.0</ele>
  <time>2026-08-28T17:51:11Z</time>
  <course>245.73</course>
  <speed>0.02</speed>
  <fix>3d</fix>
</trkpt>
<trkpt lat="40.0713749" lon="-105.229789">
  <ele>1583.0</ele>
  <time>2026-08-28T17:51:11Z</time>
  <course>0.0</course>
  <speed>0.0</speed>
  <fix>3d</fix>
</trkpt>
<trkpt lat="40.0713748" lon="-105.229789">
  <ele>1583.0</ele>
  <time>2026-08-28T17:51:11Z</time>
  <course>245.73</course>
  <speed>0.02</speed>
  <fix>3d</fix>
</trkpt>
<trkpt lat="40.0713749" lon="-105.229789">
  <ele>1583.0</ele>
  <time>2026-08-28T17:51:11Z</time>
  <course>0.0</course>
  <speed>0.0</speed>
  <fix>3d</fix>
</trkpt>
<trkpt lat="40.0713748" lon="-105.229789">
  <ele>1582.99</ele>
  <time>2026-08-28T17:51:11Z</time>
  <course>245.73</course>
  <speed>0.02</speed>
  <fix>3d</fix>
</trkpt>
<trkpt lat="40.0713749" lon="-105.229789">
  <ele>1583.0</ele>
  <time>2026-08-28T17:51:11Z</time>
  <course>0.0</course>
  <speed>0.0</speed>
  <fix>3d</fix>
</trkpt>
<trkpt lat="40.0713748" lon="-105.229789">
  <ele>1582.99</ele>
  <time>2026-08-28T17:51:11Z</time>
  <course>245.72</course>
  <speed>0.02</speed>
  <fix>3d</fix>
</trkpt>
<trkpt lat="40.0713749" lon="-105.229789">
  <ele>1583.0</ele>
  <time>2026-08-28T17:51:11Z</time>
  <course>0.0</course>
  <speed>0.0</speed>
  <fix>3d</fix>
</trkpt>
<trkpt lat="40.0713748" lon="-105.229789">
  <ele>1582.99</ele>
  <time>2026-08-28T17:51:11Z</time>
  <course>245.72</course>
  <speed>0.02</speed>
  <fix>3d</fix>
</trkpt>
<trkpt lat="40.0713749" lon="-105.229789">
  <ele>1583.0</ele>
  <time>2026-08-28T17:51:11Z</time>
  <course>0.0</course>
  <speed>0.0</speed>
  <fix>3d</fix>
</trkpt>
<trkpt lat="40.0713748" lon="-105.229789">
  <ele>1582.99</ele>
  <time>2026-08-28T17:51:11Z</time>
  <course>245.72</course>
  <speed>0.02</speed>
  <fix>3d</fix>
</trkpt>
<trkpt lat="40.0713749" lon="-105.229789">
  <ele>1583.0</ele>
  <time>2026-08-28T17:51:11Z</time>
  <course>0.0</course>
  <speed>0.0</speed>
  <fix>3d</fix>
</trkpt>
<trkpt lat="40.0713748" lon="-105.229789">
  <ele>1582.99</ele>
  <time>2026-08-28T17:51:11Z</time>
  <course>245.72</course>
  <speed>0.02</speed>
  <fix>3d</fix>
</trkpt>
<trkpt lat="40.0713749" lon="-105.229789">
  <ele>1583.0</ele>
  <time>2026-08-28T17:51:11Z</time>
  <course>0.0</course>
  <speed>0.0</speed>
  <fix>3d</fix>
</trkpt>
<trkpt lat="40.0713748" lon="-105.229789">
  <ele>1582.99</ele>
  <time>2026-08-28T17:51:11Z</time>
  <course>245.71</course>
  <speed>0.02</speed>
  <fix>3d</fix>
</trkpt>
<trkpt lat="40.0713749" lon="-105.229789">
  <ele>1583.0</ele>
  <time>2026-08-28T17:51:11Z</time>
  <course>0.0</course>
  <speed>0.0</speed>
  <fix>3d</fix>
</trkpt>
<trkpt lat="40.0713748" lon="-105.229789">
  <ele>1582.99</ele>
  <time>2026-08-28T17:51:11Z</time>
  <course>245.71</course>
  <speed>0.02</speed>
  <fix>3d</fix>
</trkpt>
<trkpt lat="40.0713749" lon="-105.229789">
  <ele>1583.0</ele>
  <time>2026-08-28T17:51:11Z</time>
  <course>0.0</course>
  <speed>0.0</speed>
  <fix>3d</fix>
</trkpt>
<trkpt lat="40.0713748" lon="-105.229789">
  <ele>1582.99</ele>
  <time>2026-08-28T17:51:11Z</time>
  <course>245.71</course>
  <speed>0.02</speed>
  <fix>3d</fix>
</trkpt>
<trkpt lat="40.0713749" lon="-105.229789">
  <ele>1583.0</ele>
  <time>2026-08-28T17:51:11Z</time>
  <course>0.0</course>
  <speed>0.0</speed>
  <fix>3d</fix>
</trkpt>
<trkpt lat="40.0713748" lon="-105.229789">
  <ele>1582.99</ele>
  <time>2026-08-28T17:51:11Z</time>
  <course>245.71</course>
  <speed>0.02</speed>
  <fix>3d</fix>
</trkpt>
<trkpt lat="40.0713749" lon="-105.229789">
  <ele>1583.0</ele>
  <time>2026-08-28T17:51:11Z</time>
  <course>0.0</course>
  <speed>0.0</speed>
  <fix>3d</fix>
</trkpt>
<trkpt lat="40.0713748" lon="-105.229789">
  <ele>1582.99</ele>
  <time>2026-08-28T17:51:11Z</time>
  <course>245.7</course>
  <speed>0.02</speed>
  <fix>3d</fix>
</trkpt>
<trkpt lat="40.0713749" lon="-105.229789">
  <ele>1583.0</ele>
  <time>2026-08-28T17:51:11Z</time>
  <course>0.0</course>
  <speed>0.0</speed>
  <fix>3d</fix>
</trkpt>
<trkpt lat="40.0713748" lon="-105.229789">
  <ele>1582.99</ele>
  <time>2026-08-28T17:51:11Z</time>
  <course>245.7</course>
  <speed>0.02</speed>
  <fix>3d</fix>
</trkpt>
<trkpt lat="40.0713749" lon="-105.229789">
  <ele>1583.0</ele>
  <time>2026-08-28T17:51:11Z</time>
  <course>0.0</course>
  <speed>0.0</speed>
  <fix>3d</fix>
</trkpt>
<trkpt lat="40.0713748" lon="-105.229789">
  <ele>1582.98</ele>
  <time>2026-08-28T17:51:11Z</time>
  <course>245.7</course>
  <speed>0.02</speed>
  <fix>3d</fix>
</trkpt>
<trkpt lat="40.0713749" lon="-105.229789">
  <ele>1583.0</ele>
  <time>2026-08-28T17:51:11Z</time>
  <course>0.0</course>
  <speed>0.0</speed>
  <fix>3d</fix>
</trkpt>
<trkpt lat="40.0713748" lon="-105.229789">
  <ele>1582.98</ele>
  <time>2026-08-28T17:51:11Z</time>
  <course>245.7</course>
  <speed>0.02</speed>
  <fix>3d</fix>
</trkpt>
<trkpt lat="40.0713749" lon="-105.229789">
  <ele>1583.0</ele>
  <time>2026-08-28T17:51:11Z</time>
  <course>0.0</course>
  <speed>0.0</speed>
  <fix>3d</fix>
</trkpt>
<trkpt lat="40.0713748" lon="-105.229789">
  <ele>1582.98</ele>
  <time>2026-08-28T17:51:11Z</time>
  <course>245.7</course>
  <speed>0.02</speed>
  <fix>3d</fix>
</trkpt>
<trkpt lat="40.0713749" lon="-105.229789">
  <ele>1583.0</ele>
  <time>2026-08-28T17:51:11Z</time>
  <course>0.0</course>
  <speed>0.0</speed>
  <fix>3d</fix>
</trkpt>
<trkpt lat="40.0713748" lon="-105.229789">
  <ele>1582.97</ele>
  <time>2026-08-28T17:51:11Z</time>
  <course>245.69</course>
  <speed>0.02</speed>
  <fix>3d</fix>
</trkpt>
<trkpt lat="40.0713749" lon="-105.229789">
  <ele>1583.0</ele>
  <time>2026-08-28T17:51:11Z</time>
  <course>0.0</course>
  <speed>0.0</speed>
  <fix>3d</fix>
</trkpt>
<trkpt lat="40.0713748" lon="-105.229789">
  <ele>1582.96</ele>
  <time>2026-08-28T17:51:11Z</time>
  <course>245.69</course>
  <speed>0.02</speed>
  <fix>3d</fix>
</trkpt>
<trkpt lat="40.0713749" lon="-105.229789">
  <ele>1583.0</ele>
  <time>2026-08-28T17:51:11Z</time>
  <course>0.0</course>
  <speed>0.0</speed>
  <fix>3d</fix>
</trkpt>
<trkpt lat="40.0713748" lon="-105.229789">
  <ele>1582.96</ele>
  <time>2026-08-28T17:51:11Z</time>
  <course>245.69</course>
  <speed>0.02</speed>
  <fix>3d</fix>
</trkpt>
<trkpt lat="40.0713749" lon="-105.229789">
  <ele>1583.0</ele>
  <time>2026-08-28T17:51:11Z</time>
  <course>0.0</course>
  <speed>0.0</speed>
  <fix>3d</fix>
</trkpt>
<trkpt lat="40.0713748" lon="-105.229789">
  <ele>1582.95</ele>
  <time>2026-08-28T17:51:11Z</time>
  <course>245.69</course>
  <speed>0.02</speed>
  <fix>3d</fix>
</trkpt>
<trkpt lat="40.0713749" lon="-105.229789">
  <ele>1583.0</ele>
  <time>2026-08-28T17:51:11Z</time>
  <course>0.0</course>
  <speed>0.0</speed>
  <fix>3d</fix>
</trkpt>
<trkpt lat="40.0713748" lon="-105.229789">
  <ele>1582.95</ele>
  <time>2026-08-28T17:51:11Z</time>
  <course>245.68</course>
  <speed>0.02</speed>
  <fix>3d</fix>
</trkpt>
<trkpt lat="40.0713749" lon="-105.229789">
  <ele>1583.0</ele>
  <time>2026-08-28T17:51:11Z</time>
  <course>0.0</course>
  <speed>0.0</speed>
  <fix>3d</fix>
</trkpt>
<trkpt lat="40.0713748" lon="-105.229789">
  <ele>1582.96</ele>
  <time>2026-08-28T17:51:11Z</time>
  <course>245.68</course>
  <speed>0.02</speed>
  <fix>3d</fix>
</trkpt>
<trkpt lat="40.0713749" lon="-105.229789">
  <ele>1583.0</ele>
  <time>2026-08-28T17:51:11Z</time>
  <course>0.0</course>
  <speed>0.0</speed>
  <fix>3d</fix>
</trkpt>
<trkpt lat="40.0713748" lon="-105.229789">
  <ele>1582.96</ele>
  <time>2026-08-28T17:51:11Z</time>
  <course>245.68</course>
  <speed>0.02</speed>
  <fix>3d</fix>
</trkpt>
<trkpt lat="40.0713749" lon="-105.229789">
  <ele>1583.0</ele>
  <time>2026-08-28T17:51:11Z</time>
  <course>0.0</course>
  <speed>0.0</speed>
  <fix>3d</fix>
</trkpt>
<trkpt lat="40.0713748" lon="-105.229789">
  <ele>1582.96</ele>
  <time>2026-08-28T17:51:11Z</time>
  <course>245.68</course>
  <speed>0.02</speed>
  <fix>3d</fix>
</trkpt>
<trkpt lat="40.0713749" lon="-105.229789">
  <ele>1583.0</ele>
  <time>2026-08-28T17:51:11Z</time>
  <course>0.0</course>
  <speed>0.0</speed>
  <fix>3d</fix>
</trkpt>
<trkpt lat="40.0713748" lon="-105.229789">
  <ele>1582.97</ele>
  <time>2026-08-28T17:51:11Z</time>
  <course>245.68</course>
  <speed>0.02</speed>
  <fix>3d</fix>
</trkpt>
<trkpt lat="40.0713749" lon="-105.229789">
  <ele>1583.0</ele>
  <time>2026-08-28T17:51:11Z</time>
  <course>0.0</course>
  <speed>0.0</speed>
  <fix>3d</fix>
</trkpt>
<trkpt lat="40.0713748" lon="-105.229789">
  <ele>1582.97</ele>
  <time>2026-08-28T17:51:11Z</time>
  <course>245.67</course>
  <speed>0.02</speed>
  <fix>3d</fix>
</trkpt>
<trkpt lat="40.0713749" lon="-105.229789">
  <ele>1583.0</ele>
  <time>2026-08-28T17:51:11Z</time>
  <course>0.0</course>
  <speed>0.0</speed>
  <fix>3d</fix>
</trkpt>
<trkpt lat="40.0713748" lon="-105.229789">
  <ele>1582.98</ele>
  <time>2026-08-28T17:51:11Z</time>
  <course>245.67</course>
  <speed>0.02</speed>
  <fix>3d</fix>
</trkpt>
<trkpt lat="40.0713749" lon="-105.229789">
  <ele>1583.0</ele>
  <time>2026-08-28T17:51:11Z</time>
  <course>0.0</course>
  <speed>0.0</speed>
  <fix>3d</fix>
</trkpt>
<trkpt lat="40.0713748" lon="-105.229789">
  <ele>1582.99</ele>
  <time>2026-08-28T17:51:11Z</time>
  <course>245.67</course>
  <speed>0.02</speed>
  <fix>3d</fix>
</trkpt>
<trkpt lat="40.0713749" lon="-105.229789">
  <ele>1583.0</ele>
  <time>2026-08-28T17:51:11Z</time>
  <course>0.0</course>
  <speed>0.0</speed>
  <fix>3d</fix>
</trkpt>
<trkpt lat="40.0713748" lon="-105.229789">
  <ele>1583.0</ele>
  <time>2026-08-28T17:51:11Z</time>
  <course>245.67</course>
  <speed>0.02</speed>
  <fix>3d</fix>
</trkpt>
<trkpt lat="40.0713749" lon="-105.229789">
  <ele>1583.0</ele>
  <time>2026-08-28T17:51:11Z</time>
  <course>0.0</course>
  <speed>0.0</speed>
  <fix>3d</fix>
</trkpt>
<trkpt lat="40.0713748" lon="-105.229789">
  <ele>1583.0</ele>
  <time>2026-08-28T17:51:11Z</time>
  <course>245.67</course>
  <speed>0.02</speed>
  <fix>3d</fix>
</trkpt>
<trkpt lat="40.0713749" lon="-105.229789">
  <ele>1583.0</ele>
  <time>2026-08-28T17:51:11Z</time>
  <course>0.0</course>
  <speed>0.0</speed>
  <fix>3d</fix>
</trkpt>
<trkpt lat="40.0713748" lon="-105.229789">
  <ele>1583.01</ele>
  <time>2026-08-28T17:51:11Z</time>
  <course>245.66</course>
  <speed>0.02</speed>
  <fix>3d</fix>
</trkpt>
<trkpt lat="40.0713749" lon="-105.229789">
  <ele>1583.0</ele>
  <time>2026-08-28T17:51:11Z</time>
  <course>0.0</course>
  <speed>0.0</speed>
  <fix>3d</fix>
</trkpt>
<trkpt lat="40.0713748" lon="-105.229789">
  <ele>1583.01</ele>
  <time>2026-08-28T17:51:11Z</time>
  <course>245.66</course>
  <speed>0.02</speed>
  <fix>3d</fix>
</trkpt>
<trkpt lat="40.0713749" lon="-105.229789">
  <ele>1583.0</ele>
  <time>2026-08-28T17:51:11Z</time>
  <course>0.0</course>
  <speed>0.0</speed>
  <fix>3d</fix>
</trkpt>
<trkpt lat="40.0713748" lon="-105.229789">
  <ele>1583.02</ele>
  <time>2026-08-28T17:51:11Z</time>
  <course>245.66</course>
  <speed>0.02</speed>
  <fix>3d</fix>
</trkpt>
<trkpt lat="40.0713749" lon="-105.229789">
  <ele>1583.0</ele>
  <time>2026-08-28T17:51:11Z</time>
  <course>0.0</course>
  <speed>0.0</speed>
  <fix>3d</fix>
</trkpt>
<trkpt lat="40.0713748" lon="-105.229789">
  <ele>1583.02</ele>
  <time>2026-08-28T17:51:11Z</time>
  <course>245.66</course>
  <speed>0.02</speed>
  <fix>3d</fix>
</trkpt>
<trkpt lat="40.0713749" lon="-105.229789">
  <ele>1583.0</ele>
  <time>2026-08-28T17:51:11Z</time>
  <course>0.0</course>
  <speed>0.0</speed>
  <fix>3d</fix>
</trkpt>
<trkpt lat="40.0713748" lon="-105.229789">
  <ele>1583.02</ele>
  <time>2026-08-28T17:51:11Z</time>
  <course>245.66</course>
  <speed>0.02</speed>
  <fix>3d</fix>
</trkpt>
<trkpt lat="40.0713749" lon="-105.229789">
  <ele>1583.0</ele>
  <time>2026-08-28T17:51:11Z</time>
  <course>0.0</course>
  <speed>0.0</speed>
  <fix>3d</fix>
</trkpt>
<trkpt lat="40.0713748" lon="-105.229789">
  <ele>1583.02</ele>
  <time>2026-08-28T17:51:11Z</time>
  <course>245.65</course>
  <speed>0.02</speed>
  <fix>3d</fix>
</trkpt>
<trkpt lat="40.0713749" lon="-105.229789">
  <ele>1583.0</ele>
  <time>2026-08-28T17:51:11Z</time>
  <course>0.0</course>
  <speed>0.0</speed>
  <fix>3d</fix>
</trkpt>
<trkpt lat="40.0713748" lon="-105.229789">
  <ele>1583.02</ele>
  <time>2026-08-28T17:51:11Z</time>
  <course>245.65</course>
  <speed>0.02</speed>
  <fix>3d</fix>
</trkpt>
<trkpt lat="40.0713749" lon="-105.229789">
  <ele>1583.0</ele>
  <time>2026-08-28T17:51:11Z</time>
  <course>0.0</course>
  <speed>0.0</speed>
  <fix>3d</fix>
</trkpt>
<trkpt lat="40.0713748" lon="-105.229789">
  <ele>1583.02</ele>
  <time>2026-08-28T17:51:11Z</time>
  <course>245.65</course>
  <speed>0.02</speed>
  <fix>3d</fix>
</trkpt>
<trkpt lat="40.0713749" lon="-105.229789">
  <ele>1583.0</ele>
  <time>2026-08-28T17:51:11Z</time>
  <course>0.0</course>
  <speed>0.0</speed>
  <fix>3d</fix>
</trkpt>
<trkpt lat="40.0713748" lon="-105.229789">
  <ele>1583.02</ele>
  <time>2026-08-28T17:51:11Z</time>
  <course>245.65</course>
  <speed>0.02</speed>
  <fix>3d</fix>
</trkpt>
<trkpt lat="40.0713749" lon="-105.229789">
  <ele>1583.0</ele>
  <time>2026-08-28T17:51:11Z</time>
  <course>0.0</course>
  <speed>0.0</speed>
  <fix>3d</fix>
</trkpt>
<trkpt lat="40.0713748" lon="-105.229789">
  <ele>1583.02</ele>
  <time>2026-08-28T17:51:11Z</time>
  <course>245.64</course>
  <speed>0.02</speed>
  <fix>3d</fix>
</trkpt>
<trkpt lat="40.0713749" lon="-105.229789">
  <ele>1583.0</ele>
  <time>2026-08-28T17:51:11Z</time>
  <course>0.0</course>
  <speed>0.0</speed>
  <fix>3d</fix>
</trkpt>
<trkpt lat="40.0713748" lon="-105.229789">
  <ele>1583.02</ele>
  <time>2026-08-28T17:51:11Z</time>
  <course>245.64</course>
  <speed>0.02</speed>
  <fix>3d</fix>
</trkpt>
<trkpt lat="40.0713749" lon="-105.229789">
  <ele>1583.0</ele>
  <time>2026-08-28T17:51:11Z</time>
  <course>0.0</course>
  <speed>0.0</speed>
  <fix>3d</fix>
</trkpt>
<trkpt lat="40.0713748" lon="-105.229789">
  <ele>1583.02</ele>
  <time>2026-08-28T17:51:11Z</time>
  <course>245.64</course>
  <speed>0.02</speed>
  <fix>3d</fix>
</trkpt>
<trkpt lat="40.0713749" lon="-105.229789">
  <ele>1583.0</ele>
  <time>2026-08-28T17:51:11Z</time>
  <course>0.0</course>
  <speed>0.0</speed>
  <fix>3d</fix>
</trkpt>
<trkpt lat="40.0713748" lon="-105.229789">
  <ele>1583.02</ele>
  <time>2026-08-28T17:51:11Z</time>
  <course>245.64</course>
  <speed>0.02</speed>
  <fix>3d</fix>
</trkpt>
<trkpt lat="40.0713749" lon="-105.229789">
  <ele>1583.0</ele>
  <time>2026-08-28T17:51:11Z</time>
  <course>0.0</course>
  <speed>0.0</speed>
  <fix>3d</fix>
</trkpt>
<trkpt lat="40.0713748" lon="-105.2297891">
  <ele>1583.02</ele>
  <time>2026-08-28T17:51:11Z</time>
  <course>245.64</course>
  <speed>0.02</speed>
  <fix>3d</fix>
</trkpt>
<trkpt lat="40.0713749" lon="-105.229789">
  <ele>1583.0</ele>
  <time>2026-08-28T17:51:11Z</time>
  <course>0.0</course>
  <speed>0.0</speed>
  <fix>3d</fix>
</trkpt>
<trkpt lat="40.0713748" lon="-105.229789">
  <ele>1583.02</ele>
  <time>2026-08-28T17:51:11Z</time>
  <course>245.63</course>
  <speed>0.02</speed>
  <fix>3d</fix>
</trkpt>
<trkpt lat="40.0713749" lon="-105.229789">
  <ele>1583.0</ele>
  <time>2026-08-28T17:51:11Z</time>
  <course>0.0</course>
  <speed>0.0</speed>
  <fix>3d</fix>
</trkpt>
<trkpt lat="40.0713748" lon="-105.2297891">
  <ele>1583.02</ele>
  <time>2026-08-28T17:51:11Z</time>
  <course>245.63</course>
  <speed>0.02</speed>
  <fix>3d</fix>
</trkpt>
<trkpt lat="40.0713749" lon="-105.229789">
  <ele>1583.0</ele>
  <time>2026-08-28T17:51:11Z</time>
  <course>0.0</course>
  <speed>0.0</speed>
  <fix>3d</fix>
</trkpt>
<trkpt lat="40.0713748" lon="-105.229789">
  <ele>1583.03</ele>
  <time>2026-08-28T17:51:11Z</time>
  <course>245.63</course>
  <speed>0.02</speed>
  <fix>3d</fix>
</trkpt>
<trkpt lat="40.0713749" lon="-105.229789">
  <ele>1583.0</ele>
  <time>2026-08-28T17:51:11Z</time>
  <course>0.0</course>
  <speed>0.0</speed>
  <fix>3d</fix>
</trkpt>
<trkpt lat="40.0713748" lon="-105.2297891">
  <ele>1583.03</ele>
  <time>2026-08-28T17:51:11Z</time>
  <course>245.63</course>
  <speed>0.02</speed>
  <fix>3d</fix>
</trkpt>
<trkpt lat="40.0713749" lon="-105.229789">
  <ele>1583.0</ele>
  <time>2026-08-28T17:51:11Z</time>
  <course>0.0</course>
  <speed>0.0</speed>
  <fix>3d</fix>
</trkpt>
<trkpt lat="40.0713748" lon="-105.229789">
  <ele>1583.03</ele>
  <time>2026-08-28T17:51:11Z</time>
  <course>245.63</course>
  <speed>0.02</speed>
  <fix>3d</fix>
</trkpt>
<trkpt lat="40.0713749" lon="-105.229789">
  <ele>1583.0</ele>
  <time>2026-08-28T17:51:11Z</time>
  <course>0.0</course>
  <speed>0.0</speed>
  <fix>3d</fix>
</trkpt>
<trkpt lat="40.0713748" lon="-105.2297891">
  <ele>1583.03</ele>
  <time>2026-08-28T17:51:11Z</time>
  <course>245.62</course>
  <speed>0.02</speed>
  <fix>3d</fix>
</trkpt>
<trkpt lat="40.0713749" lon="-105.229789">
  <ele>1583.0</ele>
  <time>2026-08-28T17:51:11Z</time>
  <course>0.0</course>
  <speed>0.0</speed>
  <fix>3d</fix>
</trkpt>
<trkpt lat="40.0713748" lon="-105.229789">
  <ele>1583.03</ele>
  <time>2026-08-28T17:51:11Z</time>
  <course>245.62</course>
  <speed>0.02</speed>
  <fix>3d</fix>
</trkpt>
<trkpt lat="40.0713749" lon="-105.229789">
  <ele>1583.0</ele>
  <time>2026-08-28T17:51:11Z</time>
  <course>0.0</course>
  <speed>0.0</speed>
  <fix>3d</fix>
</trkpt>
<trkpt lat="40.0713748" lon="-105.2297891">
  <ele>1583.03</ele>
  <time>2026-08-28T17:51:11Z</time>
  <course>245.62</course>
  <speed>0.02</speed>
  <fix>3d</fix>
</trkpt>
<trkpt lat="40.0713749" lon="-105.229789">
  <ele>1583.0</ele>
  <time>2026-08-28T17:51:11Z</time>
  <course>0.0</course>
  <speed>0.0</speed>
  <fix>3d</fix>
</trkpt>
<trkpt lat="40.0713748" lon="-105.229789">
  <ele>1583.03</ele>
  <time>2026-08-28T17:51:11Z</time>
  <course>245.62</course>
  <speed>0.02</speed>
  <fix>3d</fix>
</trkpt>
<trkpt lat="40.0713749" lon="-105.229789">
  <ele>1583.0</ele>
  <time>2026-08-28T17:51:11Z</time>
  <course>0.0</course>
  <speed>0.0</speed>
  <fix>3d</fix>
</trkpt>
<trkpt lat="40.0713748" lon="-105.229789">
  <ele>1583.03</ele>
  <time>2026-08-28T17:51:11Z</time>
  <course>245.62</course>
  <speed>0.02</speed>
  <fix>3d</fix>
</trkpt>
<trkpt lat="40.0713749" lon="-105.229789">
  <ele>1583.0</ele>
  <time>2026-08-28T17:51:11Z</time>
  <course>0.0</course>
  <speed>0.0</speed>
  <fix>3d</fix>
</trkpt>
<trkpt lat="40.0713748" lon="-105.229789">
  <ele>1583.03</ele>
  <time>2026-08-28T17:51:11Z</time>
  <course>245.61</course>
  <speed>0.02</speed>
  <fix>3d</fix>
</trkpt>
<trkpt lat="40.0713749" lon="-105.229789">
  <ele>1583.0</ele>
  <time>2026-08-28T17:51:11Z</time>
  <course>0.0</course>
  <speed>0.0</speed>
  <fix>3d</fix>
</trkpt>
<trkpt lat="40.0713748" lon="-105.229789">
  <ele>1583.03</ele>
  <time>2026-08-28T17:51:12Z</time>
  <course>245.61</course>
  <speed>0.02</speed>
  <fix>3d</fix>
</trkpt>
<trkpt lat="40.0713749" lon="-105.229789">
  <ele>1583.0</ele>
  <time>2026-08-28T17:51:12Z</time>
  <course>0.0</course>
  <speed>0.0</speed>
  <fix>3d</fix>
</trkpt>
<trkpt lat="40.0713748" lon="-105.229789">
  <ele>1583.03</ele>
  <time>2026-08-28T17:51:12Z</time>
  <course>245.61</course>
  <speed>0.02</speed>
  <fix>3d</fix>
</trkpt>
<trkpt lat="40.0713749" lon="-105.229789">
  <ele>1583.0</ele>
  <time>2026-08-28T17:51:12Z</time>
  <course>0.0</course>
  <speed>0.0</speed>
  <fix>3d</fix>
</trkpt>
<trkpt lat="40.0713748" lon="-105.229789">
  <ele>1583.03</ele>
  <time>2026-08-28T17:51:12Z</time>
  <course>245.61</course>
  <speed>0.02</speed>
  <fix>3d</fix>
</trkpt>
<trkpt lat="40.0713749" lon="-105.229789">
  <ele>1583.0</ele>
  <time>2026-08-28T17:51:12Z</time>
  <course>0.0</course>
  <speed>0.0</speed>
  <fix>3d</fix>
</trkpt>
<trkpt lat="40.0713748" lon="-105.229789">
  <ele>1583.03</ele>
  <time>2026-08-28T17:51:12Z</time>
  <course>245.61</course>
  <speed>0.02</speed>
  <fix>3d</fix>
</trkpt>
<trkpt lat="40.0713749" lon="-105.229789">
  <ele>1583.0</ele>
  <time>2026-08-28T17:51:12Z</time>
  <course>0.0</course>
  <speed>0.0</speed>
  <fix>3d</fix>
</trkpt>
<trkpt lat="40.0713748" lon="-105.229789">
  <ele>1583.03</ele>
  <time>2026-08-28T17:51:12Z</time>
  <course>245.6</course>
  <speed>0.02</speed>
  <fix>3d</fix>
</trkpt>
<trkpt lat="40.0713749" lon="-105.229789">
  <ele>1583.0</ele>
  <time>2026-08-28T17:51:12Z</time>
  <course>0.0</course>
  <speed>0.0</speed>
  <fix>3d</fix>
</trkpt>
<trkpt lat="40.0713748" lon="-105.229789">
  <ele>1583.03</ele>
  <time>2026-08-28T17:51:12Z</time>
  <course>245.6</course>
  <speed>0.02</speed>
  <fix>3d</fix>
</trkpt>
<trkpt lat="40.0713749" lon="-105.229789">
  <ele>1583.0</ele>
  <time>2026-08-28T17:51:12Z</time>
  <course>0.0</course>
  <speed>0.0</speed>
  <fix>3d</fix>
</trkpt>
<trkpt lat="40.0713748" lon="-105.229789">
  <ele>1583.02</ele>
  <time>2026-08-28T17:51:12Z</time>
  <course>245.6</course>
  <speed>0.02</speed>
  <fix>3d</fix>
</trkpt>
<trkpt lat="40.0713749" lon="-105.229789">
  <ele>1583.0</ele>
  <time>2026-08-28T17:51:12Z</time>
  <course>0.0</course>
  <speed>0.0</speed>
  <fix>3d</fix>
</trkpt>
<trkpt lat="40.0713748" lon="-105.229789">
  <ele>1583.02</ele>
  <time>2026-08-28T17:51:12Z</time>
  <course>245.6</course>
  <speed>0.02</speed>
  <fix>3d</fix>
</trkpt>
<trkpt lat="40.0713749" lon="-105.229789">
  <ele>1583.0</ele>
  <time>2026-08-28T17:51:12Z</time>
  <course>0.0</course>
  <speed>0.0</speed>
  <fix>3d</fix>
</trkpt>
<trkpt lat="40.0713748" lon="-105.229789">
  <ele>1583.01</ele>
  <time>2026-08-28T17:51:12Z</time>
  <course>245.59</course>
  <speed>0.02</speed>
  <fix>3d</fix>
</trkpt>
<trkpt lat="40.0713749" lon="-105.229789">
  <ele>1583.0</ele>
  <time>2026-08-28T17:51:12Z</time>
  <course>0.0</course>
  <speed>0.0</speed>
  <fix>3d</fix>
</trkpt>
<trkpt lat="40.0713748" lon="-105.229789">
  <ele>1583.0</ele>
  <time>2026-08-28T17:51:12Z</time>
  <course>245.59</course>
  <speed>0.02</speed>
  <fix>3d</fix>
</trkpt>
<trkpt lat="40.0713749" lon="-105.229789">
  <ele>1583.0</ele>
  <time>2026-08-28T17:51:12Z</time>
  <course>0.0</course>
  <speed>0.0</speed>
  <fix>3d</fix>
</trkpt>
<trkpt lat="40.0713747" lon="-105.229789">
  <ele>1582.99</ele>
  <time>2026-08-28T17:51:12Z</time>
  <course>245.59</course>
  <speed>0.02</speed>
  <fix>3d</fix>
</trkpt>
<trkpt lat="40.0713749" lon="-105.229789">
  <ele>1583.0</ele>
  <time>2026-08-28T17:51:12Z</time>
  <course>0.0</course>
  <speed>0.0</speed>
  <fix>3d</fix>
</trkpt>
<trkpt lat="40.0713748" lon="-105.229789">
  <ele>1582.99</ele>
  <time>2026-08-28T17:51:12Z</time>
  <course>245.59</course>
  <speed>0.02</speed>
  <fix>3d</fix>
</trkpt>
<trkpt lat="40.0713749" lon="-105.229789">
  <ele>1583.0</ele>
  <time>2026-08-28T17:51:12Z</time>
  <course>0.0</course>
  <speed>0.0</speed>
  <fix>3d</fix>
</trkpt>
<trkpt lat="40.0713747" lon="-105.229789">
  <ele>1582.98</ele>
  <time>2026-08-28T17:51:12Z</time>
  <course>245.59</course>
  <speed>0.02</speed>
  <fix>3d</fix>
</trkpt>
<trkpt lat="40.0713749" lon="-105.229789">
  <ele>1583.0</ele>
  <time>2026-08-28T17:51:12Z</time>
  <course>0.0</course>
  <speed>0.0</speed>
  <fix>3d</fix>
</trkpt>
<trkpt lat="40.0713748" lon="-105.229789">
  <ele>1582.98</ele>
  <time>2026-08-28T17:51:12Z</time>
  <course>245.58</course>
  <speed>0.02</speed>
  <fix>3d</fix>
</trkpt>
<trkpt lat="40.0713749" lon="-105.229789">
  <ele>1583.0</ele>
  <time>2026-08-28T17:51:12Z</time>
  <course>0.0</course>
  <speed>0.0</speed>
  <fix>3d</fix>
</trkpt>
<trkpt lat="40.0713747" lon="-105.229789">
  <ele>1582.97</ele>
  <time>2026-08-28T17:51:12Z</time>
  <course>245.58</course>
  <speed>0.02</speed>
  <fix>3d</fix>
</trkpt>
<trkpt lat="40.0713749" lon="-105.229789">
  <ele>1583.0</ele>
  <time>2026-08-28T17:51:12Z</time>
  <course>0.0</course>
  <speed>0.0</speed>
  <fix>3d</fix>
</trkpt>
<trkpt lat="40.0713748" lon="-105.229789">
  <ele>1582.97</ele>
  <time>2026-08-28T17:51:12Z</time>
  <course>245.58</course>
  <speed>0.02</speed>
  <fix>3d</fix>
</trkpt>
<trkpt lat="40.0713749" lon="-105.229789">
  <ele>1583.0</ele>
  <time>2026-08-28T17:51:12Z</time>
  <course>0.0</course>
  <speed>0.0</speed>
  <fix>3d</fix>
</trkpt>
<trkpt lat="40.0713747" lon="-105.229789">
  <ele>1582.96</ele>
  <time>2026-08-28T17:51:12Z</time>
  <course>245.58</course>
  <speed>0.02</speed>
  <fix>3d</fix>
</trkpt>
<trkpt lat="40.0713749" lon="-105.229789">
  <ele>1583.0</ele>
  <time>2026-08-28T17:51:12Z</time>
  <course>0.0</course>
  <speed>0.0</speed>
  <fix>3d</fix>
</trkpt>
<trkpt lat="40.0713748" lon="-105.229789">
  <ele>1582.96</ele>
  <time>2026-08-28T17:51:12Z</time>
  <course>245.58</course>
  <speed>0.02</speed>
  <fix>3d</fix>
</trkpt>
<trkpt lat="40.0713749" lon="-105.229789">
  <ele>1583.0</ele>
  <time>2026-08-28T17:51:12Z</time>
  <course>0.0</course>
  <speed>0.0</speed>
  <fix>3d</fix>
</trkpt>
<trkpt lat="40.0713748" lon="-105.229789">
  <ele>1582.95</ele>
  <time>2026-08-28T17:51:12Z</time>
  <course>245.57</course>
  <speed>0.02</speed>
  <fix>3d</fix>
</trkpt>
<trkpt lat="40.0713749" lon="-105.229789">
  <ele>1583.0</ele>
  <time>2026-08-28T17:51:12Z</time>
  <course>0.0</course>
  <speed>0.0</speed>
  <fix>3d</fix>
</trkpt>
<trkpt lat="40.0713748" lon="-105.229789">
  <ele>1582.95</ele>
  <time>2026-08-28T17:51:12Z</time>
  <course>245.57</course>
  <speed>0.02</speed>
  <fix>3d</fix>
</trkpt>
<trkpt lat="40.0713749" lon="-105.229789">
  <ele>1583.0</ele>
  <time>2026-08-28T17:51:12Z</time>
  <course>0.0</course>
  <speed>0.0</speed>
  <fix>3d</fix>
</trkpt>
<trkpt lat="40.0713748" lon="-105.229789">
  <ele>1582.95</ele>
  <time>2026-08-28T17:51:12Z</time>
  <course>245.57</course>
  <speed>0.02</speed>
  <fix>3d</fix>
</trkpt>
<trkpt lat="40.0713749" lon="-105.229789">
  <ele>1583.0</ele>
  <time>2026-08-28T17:51:12Z</time>
  <course>0.0</course>
  <speed>0.0</speed>
  <fix>3d</fix>
</trkpt>
<trkpt lat="40.0713748" lon="-105.229789">
  <ele>1582.94</ele>
  <time>2026-08-28T17:51:12Z</time>
  <course>245.57</course>
  <speed>0.02</speed>
  <fix>3d</fix>
</trkpt>
<trkpt lat="40.0713749" lon="-105.229789">
  <ele>1583.0</ele>
  <time>2026-08-28T17:51:12Z</time>
  <course>0.0</course>
  <speed>0.0</speed>
  <fix>3d</fix>
</trkpt>
<trkpt lat="40.0713748" lon="-105.229789">
  <ele>1582.93</ele>
  <time>2026-08-28T17:51:12Z</time>
  <course>245.57</course>
  <speed>0.02</speed>
  <fix>3d</fix>
</trkpt>
<trkpt lat="40.0713749" lon="-105.229789">
  <ele>1583.0</ele>
  <time>2026-08-28T17:51:12Z</time>
  <course>0.0</course>
  <speed>0.0</speed>
  <fix>3d</fix>
</trkpt>
<trkpt lat="40.0713748" lon="-105.229789">
  <ele>1582.93</ele>
  <time>2026-08-28T17:51:12Z</time>
  <course>245.56</course>
  <speed>0.02</speed>
  <fix>3d</fix>
</trkpt>
<trkpt lat="40.0713749" lon="-105.229789">
  <ele>1583.0</ele>
  <time>2026-08-28T17:51:12Z</time>
  <course>0.0</course>
  <speed>0.0</speed>
  <fix>3d</fix>
</trkpt>
<trkpt lat="40.0713748" lon="-105.229789">
  <ele>1582.92</ele>
  <time>2026-08-28T17:51:12Z</time>
  <course>245.56</course>
  <speed>0.02</speed>
  <fix>3d</fix>
</trkpt>
<trkpt lat="40.0713749" lon="-105.229789">
  <ele>1583.0</ele>
  <time>2026-08-28T17:51:12Z</time>
  <course>0.0</course>
  <speed>0.0</speed>
  <fix>3d</fix>
</trkpt>
<trkpt lat="40.0713748" lon="-105.229789">
  <ele>1582.92</ele>
  <time>2026-08-28T17:51:12Z</time>
  <course>245.56</course>
  <speed>0.02</speed>
  <fix>3d</fix>
</trkpt>
<trkpt lat="40.0713749" lon="-105.229789">
  <ele>1583.0</ele>
  <time>2026-08-28T17:51:12Z</time>
  <course>0.0</course>
  <speed>0.0</speed>
  <fix>3d</fix>
</trkpt>
<trkpt lat="40.0713748" lon="-105.229789">
  <ele>1582.93</ele>
  <time>2026-08-28T17:51:12Z</time>
  <course>245.56</course>
  <speed>0.02</speed>
  <fix>3d</fix>
</trkpt>
<trkpt lat="40.0713749" lon="-105.229789">
  <ele>1583.0</ele>
  <time>2026-08-28T17:51:12Z</time>
  <course>0.0</course>
  <speed>0.0</speed>
  <fix>3d</fix>
</trkpt>
<trkpt lat="40.0713748" lon="-105.229789">
  <ele>1582.94</ele>
  <time>2026-08-28T17:51:12Z</time>
  <course>245.56</course>
  <speed>0.02</speed>
  <fix>3d</fix>
</trkpt>
<trkpt lat="40.0713749" lon="-105.229789">
  <ele>1583.0</ele>
  <time>2026-08-28T17:51:12Z</time>
  <course>0.0</course>
  <speed>0.0</speed>
  <fix>3d</fix>
</trkpt>
<trkpt lat="40.0713748" lon="-105.229789">
  <ele>1582.94</ele>
  <time>2026-08-28T17:51:12Z</time>
  <course>245.55</course>
  <speed>0.02</speed>
  <fix>3d</fix>
</trkpt>
<trkpt lat="40.0713749" lon="-105.229789">
  <ele>1583.0</ele>
  <time>2026-08-28T17:51:12Z</time>
  <course>0.0</course>
  <speed>0.0</speed>
  <fix>3d</fix>
</trkpt>
<trkpt lat="40.0713748" lon="-105.229789">
  <ele>1582.95</ele>
  <time>2026-08-28T17:51:12Z</time>
  <course>245.55</course>
  <speed>0.02</speed>
  <fix>3d</fix>
</trkpt>
<trkpt lat="40.0713749" lon="-105.229789">
  <ele>1583.0</ele>
  <time>2026-08-28T17:51:12Z</time>
  <course>0.0</course>
  <speed>0.0</speed>
  <fix>3d</fix>
</trkpt>
<trkpt lat="40.0713748" lon="-105.229789">
  <ele>1582.96</ele>
  <time>2026-08-28T17:51:12Z</time>
  <course>245.55</course>
  <speed>0.02</speed>
  <fix>3d</fix>
</trkpt>
<trkpt lat="40.0713749" lon="-105.229789">
  <ele>1583.0</ele>
  <time>2026-08-28T17:51:12Z</time>
  <course>0.0</course>
  <speed>0.0</speed>
  <fix>3d</fix>
</trkpt>
<trkpt lat="40.0713748" lon="-105.229789">
  <ele>1582.97</ele>
  <time>2026-08-28T17:51:12Z</time>
  <course>245.55</course>
  <speed>0.02</speed>
  <fix>3d</fix>
</trkpt>
<trkpt lat="40.0713749" lon="-105.229789">
  <ele>1583.0</ele>
  <time>2026-08-28T17:51:12Z</time>
  <course>0.0</course>
  <speed>0.0</speed>
  <fix>3d</fix>
</trkpt>
<trkpt lat="40.0713747" lon="-105.229789">
  <ele>1582.98</ele>
  <time>2026-08-28T17:51:12Z</time>
  <course>245.55</course>
  <speed>0.02</speed>
  <fix>3d</fix>
</trkpt>
<trkpt lat="40.0713749" lon="-105.229789">
  <ele>1583.0</ele>
  <time>2026-08-28T17:51:12Z</time>
  <course>0.0</course>
  <speed>0.0</speed>
  <fix>3d</fix>
</trkpt>
<trkpt lat="40.0713748" lon="-105.229789">
  <ele>1582.99</ele>
  <time>2026-08-28T17:51:12Z</time>
  <course>245.54</course>
  <speed>0.02</speed>
  <fix>3d</fix>
</trkpt>
<trkpt lat="40.0713749" lon="-105.229789">
  <ele>1583.0</ele>
  <time>2026-08-28T17:51:12Z</time>
  <course>0.0</course>
  <speed>0.0</speed>
  <fix>3d</fix>
</trkpt>
<trkpt lat="40.0713747" lon="-105.229789">
  <ele>1582.99</ele>
  <time>2026-08-28T17:51:12Z</time>
  <course>245.54</course>
  <speed>0.02</speed>
  <fix>3d</fix>
</trkpt>
<trkpt lat="40.0713749" lon="-105.229789">
  <ele>1583.0</ele>
  <time>2026-08-28T17:51:12Z</time>
  <course>0.0</course>
  <speed>0.0</speed>
  <fix>3d</fix>
</trkpt>
<trkpt lat="40.0713748" lon="-105.229789">
  <ele>1583.0</ele>
  <time>2026-08-28T17:51:12Z</time>
  <course>245.54</course>
  <speed>0.02</speed>
  <fix>3d</fix>
</trkpt>
<trkpt lat="40.0713749" lon="-105.229789">
  <ele>1583.0</ele>
  <time>2026-08-28T17:51:12Z</time>
  <course>0.0</course>
  <speed>0.0</speed>
  <fix>3d</fix>
</trkpt>
<trkpt lat="40.0713747" lon="-105.229789">
  <ele>1583.0</ele>
  <time>2026-08-28T17:51:12Z</time>
  <course>245.54</course>
  <speed>0.02</speed>
  <fix>3d</fix>
</trkpt>
<trkpt lat="40.0713749" lon="-105.229789">
  <ele>1583.0</ele>
  <time>2026-08-28T17:51:12Z</time>
  <course>0.0</course>
  <speed>0.0</speed>
  <fix>3d</fix>
</trkpt>
<trkpt lat="40.0713748" lon="-105.229789">
  <ele>1583.0</ele>
  <time>2026-08-28T17:51:12Z</time>
  <course>245.54</course>
  <speed>0.02</speed>
  <fix>3d</fix>
</trkpt>
<trkpt lat="40.0713749" lon="-105.229789">
  <ele>1583.0</ele>
  <time>2026-08-28T17:51:12Z</time>
  <course>0.0</course>
  <speed>0.0</speed>
  <fix>3d</fix>
</trkpt>
<trkpt lat="40.0713748" lon="-105.229789">
  <ele>1583.0</ele>
  <time>2026-08-28T17:51:12Z</time>
  <course>245.53</course>
  <speed>0.02</speed>
  <fix>3d</fix>
</trkpt>
<trkpt lat="40.0713749" lon="-105.229789">
  <ele>1583.0</ele>
  <time>2026-08-28T17:51:12Z</time>
  <course>0.0</course>
  <speed>0.0</speed>
  <fix>3d</fix>
</trkpt>
<trkpt lat="40.0713748" lon="-105.229789">
  <ele>1583.01</ele>
  <time>2026-08-28T17:51:12Z</time>
  <course>245.53</course>
  <speed>0.02</speed>
  <fix>3d</fix>
</trkpt>
<trkpt lat="40.0713749" lon="-105.229789">
  <ele>1583.0</ele>
  <time>2026-08-28T17:51:12Z</time>
  <course>0.0</course>
  <speed>0.0</speed>
  <fix>3d</fix>
</trkpt>
<trkpt lat="40.0713748" lon="-105.229789">
  <ele>1583.01</ele>
  <time>2026-08-28T17:51:12Z</time>
  <course>245.53</course>
  <speed>0.02</speed>
  <fix>3d</fix>
</trkpt>
<trkpt lat="40.0713749" lon="-105.229789">
  <ele>1583.0</ele>
  <time>2026-08-28T17:51:12Z</time>
  <course>0.0</course>
  <speed>0.0</speed>
  <fix>3d</fix>
</trkpt>
<trkpt lat="40.0713748" lon="-105.229789">
  <ele>1583.02</ele>
  <time>2026-08-28T17:51:12Z</time>
  <course>245.53</course>
  <speed>0.02</speed>
  <fix>3d</fix>
</trkpt>
<trkpt lat="40.0713749" lon="-105.229789">
  <ele>1583.0</ele>
  <time>2026-08-28T17:51:12Z</time>
  <course>0.0</course>
  <speed>0.0</speed>
  <fix>3d</fix>
</trkpt>
<trkpt lat="40.0713748" lon="-105.229789">
  <ele>1583.02</ele>
  <time>2026-08-28T17:51:12Z</time>
  <course>245.53</course>
  <speed>0.02</speed>
  <fix>3d</fix>
</trkpt>
<trkpt lat="40.0713749" lon="-105.229789">
  <ele>1583.0</ele>
  <time>2026-08-28T17:51:12Z</time>
  <course>0.0</course>
  <speed>0.0</speed>
  <fix>3d</fix>
</trkpt>
<trkpt lat="40.0713748" lon="-105.229789">
  <ele>1583.03</ele>
  <time>2026-08-28T17:51:12Z</time>
  <course>245.53</course>
  <speed>0.02</speed>
  <fix>3d</fix>
</trkpt>
<trkpt lat="40.0713749" lon="-105.229789">
  <ele>1583.0</ele>
  <time>2026-08-28T17:51:12Z</time>
  <course>0.0</course>
  <speed>0.0</speed>
  <fix>3d</fix>
</trkpt>
<trkpt lat="40.0713748" lon="-105.229789">
  <ele>1583.03</ele>
  <time>2026-08-28T17:51:12Z</time>
  <course>245.52</course>
  <speed>0.02</speed>
  <fix>3d</fix>
</trkpt>
<trkpt lat="40.0713749" lon="-105.229789">
  <ele>1583.0</ele>
  <time>2026-08-28T17:51:12Z</time>
  <course>0.0</course>
  <speed>0.0</speed>
  <fix>3d</fix>
</trkpt>
<trkpt lat="40.0713748" lon="-105.229789">
  <ele>1583.04</ele>
  <time>2026-08-28T17:51:12Z</time>
  <course>245.52</course>
  <speed>0.02</speed>
  <fix>3d</fix>
</trkpt>
<trkpt lat="40.0713749" lon="-105.229789">
  <ele>1583.0</ele>
  <time>2026-08-28T17:51:12Z</time>
  <course>0.0</course>
  <speed>0.0</speed>
  <fix>3d</fix>
</trkpt>
<trkpt lat="40.0713748" lon="-105.229789">
  <ele>1583.04</ele>
  <time>2026-08-28T17:51:12Z</time>
  <course>245.52</course>
  <speed>0.02</speed>
  <fix>3d</fix>
</trkpt>
<trkpt lat="40.0713749" lon="-105.229789">
  <ele>1583.0</ele>
  <time>2026-08-28T17:51:12Z</time>
  <course>0.0</course>
  <speed>0.0</speed>
  <fix>3d</fix>
</trkpt>
<trkpt lat="40.0713748" lon="-105.229789">
  <ele>1583.03</ele>
  <time>2026-08-28T17:51:12Z</time>
  <course>245.52</course>
  <speed>0.02</speed>
  <fix>3d</fix>
</trkpt>
<trkpt lat="40.0713749" lon="-105.229789">
  <ele>1583.0</ele>
  <time>2026-08-28T17:51:12Z</time>
  <course>0.0</course>
  <speed>0.0</speed>
  <fix>3d</fix>
</trkpt>
<trkpt lat="40.0713748" lon="-105.229789">
  <ele>1583.03</ele>
  <time>2026-08-28T17:51:12Z</time>
  <course>245.52</course>
  <speed>0.02</speed>
  <fix>3d</fix>
</trkpt>
<trkpt lat="40.0713749" lon="-105.229789">
  <ele>1583.0</ele>
  <time>2026-08-28T17:51:12Z</time>
  <course>0.0</course>
  <speed>0.0</speed>
  <fix>3d</fix>
</trkpt>
<trkpt lat="40.0713748" lon="-105.229789">
  <ele>1583.02</ele>
  <time>2026-08-28T17:51:12Z</time>
  <course>245.51</course>
  <speed>0.02</speed>
  <fix>3d</fix>
</trkpt>
<trkpt lat="40.0713749" lon="-105.229789">
  <ele>1583.0</ele>
  <time>2026-08-28T17:51:12Z</time>
  <course>0.0</course>
  <speed>0.0</speed>
  <fix>3d</fix>
</trkpt>
<trkpt lat="40.0713748" lon="-105.229789">
  <ele>1583.02</ele>
  <time>2026-08-28T17:51:12Z</time>
  <course>245.51</course>
  <speed>0.02</speed>
  <fix>3d</fix>
</trkpt>
<trkpt lat="40.0713749" lon="-105.229789">
  <ele>1583.0</ele>
  <time>2026-08-28T17:51:12Z</time>
  <course>0.0</course>
  <speed>0.0</speed>
  <fix>3d</fix>
</trkpt>
<trkpt lat="40.0713748" lon="-105.229789">
  <ele>1583.02</ele>
  <time>2026-08-28T17:51:12Z</time>
  <course>245.51</course>
  <speed>0.02</speed>
  <fix>3d</fix>
</trkpt>
<trkpt lat="40.0713749" lon="-105.229789">
  <ele>1583.0</ele>
  <time>2026-08-28T17:51:12Z</time>
  <course>0.0</course>
  <speed>0.0</speed>
  <fix>3d</fix>
</trkpt>
<trkpt lat="40.0713747" lon="-105.229789">
  <ele>1583.01</ele>
  <time>2026-08-28T17:51:12Z</time>
  <course>245.51</course>
  <speed>0.02</speed>
  <fix>3d</fix>
</trkpt>
<trkpt lat="40.0713749" lon="-105.229789">
  <ele>1583.0</ele>
  <time>2026-08-28T17:51:12Z</time>
  <course>0.0</course>
  <speed>0.0</speed>
  <fix>3d</fix>
</trkpt>
<trkpt lat="40.0713748" lon="-105.229789">
  <ele>1583.0</ele>
  <time>2026-08-28T17:51:12Z</time>
  <course>245.51</course>
  <speed>0.02</speed>
  <fix>3d</fix>
</trkpt>
<trkpt lat="40.0713749" lon="-105.229789">
  <ele>1583.0</ele>
  <time>2026-08-28T17:51:12Z</time>
  <course>0.0</course>
  <speed>0.0</speed>
  <fix>3d</fix>
</trkpt>
<trkpt lat="40.0713747" lon="-105.229789">
  <ele>1583.0</ele>
  <time>2026-08-28T17:51:12Z</time>
  <course>245.5</course>
  <speed>0.02</speed>
  <fix>3d</fix>
</trkpt>
<trkpt lat="40.0713749" lon="-105.229789">
  <ele>1583.0</ele>
  <time>2026-08-28T17:51:12Z</time>
  <course>0.0</course>
  <speed>0.0</speed>
  <fix>3d</fix>
</trkpt>
<trkpt lat="40.0713748" lon="-105.229789">
  <ele>1583.0</ele>
  <time>2026-08-28T17:51:12Z</time>
  <course>245.5</course>
  <speed>0.02</speed>
  <fix>3d</fix>
</trkpt>
<trkpt lat="40.0713749" lon="-105.229789">
  <ele>1583.0</ele>
  <time>2026-08-28T17:51:12Z</time>
  <course>0.0</course>
  <speed>0.0</speed>
  <fix>3d</fix>
</trkpt>
<trkpt lat="40.0713747" lon="-105.229789">
  <ele>1583.0</ele>
  <time>2026-08-28T17:51:12Z</time>
  <course>245.5</course>
  <speed>0.02</speed>
  <fix>3d</fix>
</trkpt>
<trkpt lat="40.0713749" lon="-105.229789">
  <ele>1583.0</ele>
  <time>2026-08-28T17:51:12Z</time>
  <course>0.0</course>
  <speed>0.0</speed>
  <fix>3d</fix>
</trkpt>
<trkpt lat="40.0713748" lon="-105.229789">
  <ele>1583.0</ele>
  <time>2026-08-28T17:51:12Z</time>
  <course>245.5</course>
  <speed>0.02</speed>
  <fix>3d</fix>
</trkpt>
<trkpt lat="40.0713749" lon="-105.229789">
  <ele>1583.0</ele>
  <time>2026-08-28T17:51:12Z</time>
  <course>0.0</course>
  <speed>0.0</speed>
  <fix>3d</fix>
</trkpt>
<trkpt lat="40.0713747" lon="-105.229789">
  <ele>1583.01</ele>
  <time>2026-08-28T17:51:12Z</time>
  <course>245.5</course>
  <speed>0.02</speed>
  <fix>3d</fix>
</trkpt>
<trkpt lat="40.0713749" lon="-105.229789">
  <ele>1583.0</ele>
  <time>2026-08-28T17:51:12Z</time>
  <course>0.0</course>
  <speed>0.0</speed>
  <fix>3d</fix>
</trkpt>
<trkpt lat="40.0713748" lon="-105.229789">
  <ele>1583.02</ele>
  <time>2026-08-28T17:51:12Z</time>
  <course>245.5</course>
  <speed>0.02</speed>
  <fix>3d</fix>
</trkpt>
<trkpt lat="40.0713749" lon="-105.229789">
  <ele>1583.0</ele>
  <time>2026-08-28T17:51:12Z</time>
  <course>0.0</course>
  <speed>0.0</speed>
  <fix>3d</fix>
</trkpt>
<trkpt lat="40.0713748" lon="-105.229789">
  <ele>1583.03</ele>
  <time>2026-08-28T17:51:12Z</time>
  <course>245.49</course>
  <speed>0.02</speed>
  <fix>3d</fix>
</trkpt>
<trkpt lat="40.0713749" lon="-105.229789">
  <ele>1583.0</ele>
  <time>2026-08-28T17:51:12Z</time>
  <course>0.0</course>
  <speed>0.0</speed>
  <fix>3d</fix>
</trkpt>
<trkpt lat="40.0713748" lon="-105.229789">
  <ele>1583.03</ele>
  <time>2026-08-28T17:51:12Z</time>
  <course>245.49</course>
  <speed>0.02</speed>
  <fix>3d</fix>
</trkpt>
<trkpt lat="40.0713749" lon="-105.229789">
  <ele>1583.0</ele>
  <time>2026-08-28T17:51:12Z</time>
  <course>0.0</course>
  <speed>0.0</speed>
  <fix>3d</fix>
</trkpt>
<trkpt lat="40.0713748" lon="-105.229789">
  <ele>1583.04</ele>
  <time>2026-08-28T17:51:12Z</time>
  <course>245.49</course>
  <speed>0.02</speed>
  <fix>3d</fix>
</trkpt>
<trkpt lat="40.0713749" lon="-105.229789">
  <ele>1583.0</ele>
  <time>2026-08-28T17:51:12Z</time>
  <course>0.0</course>
  <speed>0.0</speed>
  <fix>3d</fix>
</trkpt>
<trkpt lat="40.0713748" lon="-105.229789">
  <ele>1583.05</ele>
  <time>2026-08-28T17:51:12Z</time>
  <course>245.49</course>
  <speed>0.02</speed>
  <fix>3d</fix>
</trkpt>
<trkpt lat="40.0713749" lon="-105.229789">
  <ele>1583.0</ele>
  <time>2026-08-28T17:51:12Z</time>
  <course>0.0</course>
  <speed>0.0</speed>
  <fix>3d</fix>
</trkpt>
<trkpt lat="40.0713748" lon="-105.229789">
  <ele>1583.05</ele>
  <time>2026-08-28T17:51:12Z</time>
  <course>245.49</course>
  <speed>0.02</speed>
  <fix>3d</fix>
</trkpt>
<trkpt lat="40.0713749" lon="-105.229789">
  <ele>1583.0</ele>
  <time>2026-08-28T17:51:12Z</time>
  <course>0.0</course>
  <speed>0.0</speed>
  <fix>3d</fix>
</trkpt>
<trkpt lat="40.0713748" lon="-105.229789">
  <ele>1583.05</ele>
  <time>2026-08-28T17:51:12Z</time>
  <course>245.48</course>
  <speed>0.02</speed>
  <fix>3d</fix>
</trkpt>
<trkpt lat="40.0713749" lon="-105.229789">
  <ele>1583.0</ele>
  <time>2026-08-28T17:51:12Z</time>
  <course>0.0</course>
  <speed>0.0</speed>
  <fix>3d</fix>
</trkpt>
<trkpt lat="40.0713748" lon="-105.229789">
  <ele>1583.05</ele>
  <time>2026-08-28T17:51:12Z</time>
  <course>245.48</course>
  <speed>0.02</speed>
  <fix>3d</fix>
</trkpt>
<trkpt lat="40.0713749" lon="-105.229789">
  <ele>1583.0</ele>
  <time>2026-08-28T17:51:12Z</time>
  <course>0.0</course>
  <speed>0.0</speed>
  <fix>3d</fix>
</trkpt>
<trkpt lat="40.0713748" lon="-105.229789">
  <ele>1583.05</ele>
  <time>2026-08-28T17:51:12Z</time>
  <course>245.48</course>
  <speed>0.02</speed>
  <fix>3d</fix>
</trkpt>
<trkpt lat="40.0713749" lon="-105.229789">
  <ele>1583.0</ele>
  <time>2026-08-28T17:51:12Z</time>
  <course>0.0</course>
  <speed>0.0</speed>
  <fix>3d</fix>
</trkpt>
<trkpt lat="40.0713748" lon="-105.229789">
  <ele>1583.04</ele>
  <time>2026-08-28T17:51:12Z</time>
  <course>245.48</course>
  <speed>0.02</speed>
  <fix>3d</fix>
</trkpt>
<trkpt lat="40.0713749" lon="-105.229789">
  <ele>1583.0</ele>
  <time>2026-08-28T17:51:12Z</time>
  <course>0.0</course>
  <speed>0.0</speed>
  <fix>3d</fix>
</trkpt>
<trkpt lat="40.0713748" lon="-105.229789">
  <ele>1583.04</ele>
  <time>2026-08-28T17:51:12Z</time>
  <course>245.48</course>
  <speed>0.02</speed>
  <fix>3d</fix>
</trkpt>
<trkpt lat="40.0713749" lon="-105.229789">
  <ele>1583.0</ele>
  <time>2026-08-28T17:51:12Z</time>
  <course>0.0</course>
  <speed>0.0</speed>
  <fix>3d</fix>
</trkpt>
<trkpt lat="40.0713747" lon="-105.229789">
  <ele>1583.03</ele>
  <time>2026-08-28T17:51:12Z</time>
  <course>245.48</course>
  <speed>0.02</speed>
  <fix>3d</fix>
</trkpt>
<trkpt lat="40.0713749" lon="-105.229789">
  <ele>1583.0</ele>
  <time>2026-08-28T17:51:12Z</time>
  <course>0.0</course>
  <speed>0.0</speed>
  <fix>3d</fix>
</trkpt>
<trkpt lat="40.0713748" lon="-105.229789">
  <ele>1583.03</ele>
  <time>2026-08-28T17:51:12Z</time>
  <course>245.47</course>
  <speed>0.02</speed>
  <fix>3d</fix>
</trkpt>
<trkpt lat="40.0713749" lon="-105.229789">
  <ele>1583.0</ele>
  <time>2026-08-28T17:51:12Z</time>
  <course>0.0</course>
  <speed>0.0</speed>
  <fix>3d</fix>
</trkpt>
<trkpt lat="40.0713747" lon="-105.229789">
  <ele>1583.02</ele>
  <time>2026-08-28T17:51:12Z</time>
  <course>245.47</course>
  <speed>0.02</speed>
  <fix>3d</fix>
</trkpt>
<trkpt lat="40.0713749" lon="-105.229789">
  <ele>1583.0</ele>
  <time>2026-08-28T17:51:12Z</time>
  <course>0.0</course>
  <speed>0.0</speed>
  <fix>3d</fix>
</trkpt>
<trkpt lat="40.0713748" lon="-105.229789">
  <ele>1583.02</ele>
  <time>2026-08-28T17:51:12Z</time>
  <course>245.47</course>
  <speed>0.02</speed>
  <fix>3d</fix>
</trkpt>
<trkpt lat="40.0713749" lon="-105.229789">
  <ele>1583.0</ele>
  <time>2026-08-28T17:51:12Z</time>
  <course>0.0</course>
  <speed>0.0</speed>
  <fix>3d</fix>
</trkpt>
<trkpt lat="40.0713747" lon="-105.229789">
  <ele>1583.01</ele>
  <time>2026-08-28T17:51:12Z</time>
  <course>245.47</course>
  <speed>0.02</speed>
  <fix>3d</fix>
</trkpt>
<trkpt lat="40.0713749" lon="-105.229789">
  <ele>1583.0</ele>
  <time>2026-08-28T17:51:12Z</time>
  <course>0.0</course>
  <speed>0.0</speed>
  <fix>3d</fix>
</trkpt>
<trkpt lat="40.0713748" lon="-105.229789">
  <ele>1583.01</ele>
  <time>2026-08-28T17:51:12Z</time>
  <course>245.47</course>
  <speed>0.02</speed>
  <fix>3d</fix>
</trkpt>
<trkpt lat="40.0713749" lon="-105.229789">
  <ele>1583.0</ele>
  <time>2026-08-28T17:51:12Z</time>
  <course>0.0</course>
  <speed>0.0</speed>
  <fix>3d</fix>
</trkpt>
<trkpt lat="40.0713747" lon="-105.229789">
  <ele>1583.01</ele>
  <time>2026-08-28T17:51:12Z</time>
  <course>245.46</course>
  <speed>0.02</speed>
  <fix>3d</fix>
</trkpt>
<trkpt lat="40.0713749" lon="-105.229789">
  <ele>1583.0</ele>
  <time>2026-08-28T17:51:12Z</time>
  <course>0.0</course>
  <speed>0.0</speed>
  <fix>3d</fix>
</trkpt>
<trkpt lat="40.0713748" lon="-105.229789">
  <ele>1583.01</ele>
  <time>2026-08-28T17:51:12Z</time>
  <course>245.46</course>
  <speed>0.02</speed>
  <fix>3d</fix>
</trkpt>
<trkpt lat="40.0713749" lon="-105.229789">
  <ele>1583.0</ele>
  <time>2026-08-28T17:51:12Z</time>
  <course>0.0</course>
  <speed>0.0</speed>
  <fix>3d</fix>
</trkpt>
<trkpt lat="40.0713747" lon="-105.229789">
  <ele>1583.01</ele>
  <time>2026-08-28T17:51:12Z</time>
  <course>245.46</course>
  <speed>0.02</speed>
  <fix>3d</fix>
</trkpt>
<trkpt lat="40.0713749" lon="-105.229789">
  <ele>1583.0</ele>
  <time>2026-08-28T17:51:12Z</time>
  <course>0.0</course>
  <speed>0.0</speed>
  <fix>3d</fix>
</trkpt>
<trkpt lat="40.0713748" lon="-105.229789">
  <ele>1583.01</ele>
  <time>2026-08-28T17:51:12Z</time>
  <course>245.46</course>
  <speed>0.02</speed>
  <fix>3d</fix>
</trkpt>
<trkpt lat="40.0713749" lon="-105.229789">
  <ele>1583.0</ele>
  <time>2026-08-28T17:51:12Z</time>
  <course>0.0</course>
  <speed>0.0</speed>
  <fix>3d</fix>
</trkpt>
<trkpt lat="40.0713747" lon="-105.229789">
  <ele>1583.02</ele>
  <time>2026-08-28T17:51:12Z</time>
  <course>245.46</course>
  <speed>0.02</speed>
  <fix>3d</fix>
</trkpt>
<trkpt lat="40.0713749" lon="-105.229789">
  <ele>1583.0</ele>
  <time>2026-08-28T17:51:12Z</time>
  <course>0.0</course>
  <speed>0.0</speed>
  <fix>3d</fix>
</trkpt>
<trkpt lat="40.0713748" lon="-105.229789">
  <ele>1583.02</ele>
  <time>2026-08-28T17:51:12Z</time>
  <course>245.46</course>
  <speed>0.02</speed>
  <fix>3d</fix>
</trkpt>
<trkpt lat="40.0713749" lon="-105.229789">
  <ele>1583.0</ele>
  <time>2026-08-28T17:51:12Z</time>
  <course>0.0</course>
  <speed>0.0</speed>
  <fix>3d</fix>
</trkpt>
<trkpt lat="40.0713748" lon="-105.229789">
  <ele>1583.03</ele>
  <time>2026-08-28T17:51:12Z</time>
  <course>245.45</course>
  <speed>0.02</speed>
  <fix>3d</fix>
</trkpt>
<trkpt lat="40.0713749" lon="-105.229789">
  <ele>1583.0</ele>
  <time>2026-08-28T17:51:12Z</time>
  <course>0.0</course>
  <speed>0.0</speed>
  <fix>3d</fix>
</trkpt>
<trkpt lat="40.0713748" lon="-105.229789">
  <ele>1583.04</ele>
  <time>2026-08-28T17:51:12Z</time>
  <course>245.45</course>
  <speed>0.02</speed>
  <fix>3d</fix>
</trkpt>
<trkpt lat="40.0713749" lon="-105.229789">
  <ele>1583.0</ele>
  <time>2026-08-28T17:51:12Z</time>
  <course>0.0</course>
  <speed>0.0</speed>
  <fix>3d</fix>
</trkpt>
<trkpt lat="40.0713748" lon="-105.229789">
  <ele>1583.04</ele>
  <time>2026-08-28T17:51:12Z</time>
  <course>245.45</course>
  <speed>0.02</speed>
  <fix>3d</fix>
</trkpt>
<trkpt lat="40.0713749" lon="-105.229789">
  <ele>1583.0</ele>
  <time>2026-08-28T17:51:12Z</time>
  <course>0.0</course>
  <speed>0.0</speed>
  <fix>3d</fix>
</trkpt>
<trkpt lat="40.0713748" lon="-105.229789">
  <ele>1583.04</ele>
  <time>2026-08-28T17:51:12Z</time>
  <course>245.45</course>
  <speed>0.02</speed>
  <fix>3d</fix>
</trkpt>
<trkpt lat="40.0713749" lon="-105.229789">
  <ele>1583.0</ele>
  <time>2026-08-28T17:51:12Z</time>
  <course>0.0</course>
  <speed>0.0</speed>
  <fix>3d</fix>
</trkpt>
<trkpt lat="40.0713748" lon="-105.229789">
  <ele>1583.05</ele>
  <time>2026-08-28T17:51:12Z</time>
  <course>245.45</course>
  <speed>0.02</speed>
  <fix>3d</fix>
</trkpt>
<trkpt lat="40.0713749" lon="-105.229789">
  <ele>1583.0</ele>
  <time>2026-08-28T17:51:12Z</time>
  <course>0.0</course>
  <speed>0.0</speed>
  <fix>3d</fix>
</trkpt>
<trkpt lat="40.0713748" lon="-105.229789">
  <ele>1583.05</ele>
  <time>2026-08-28T17:51:12Z</time>
  <course>245.44</course>
  <speed>0.02</speed>
  <fix>3d</fix>
</trkpt>
<trkpt lat="40.0713749" lon="-105.229789">
  <ele>1583.0</ele>
  <time>2026-08-28T17:51:12Z</time>
  <course>0.0</course>
  <speed>0.0</speed>
  <fix>3d</fix>
</trkpt>
<trkpt lat="40.0713748" lon="-105.229789">
  <ele>1583.05</ele>
  <time>2026-08-28T17:51:12Z</time>
  <course>245.44</course>
  <speed>0.02</speed>
  <fix>3d</fix>
</trkpt>
<trkpt lat="40.0713749" lon="-105.229789">
  <ele>1583.0</ele>
  <time>2026-08-28T17:51:12Z</time>
  <course>0.0</course>
  <speed>0.0</speed>
  <fix>3d</fix>
</trkpt>
<trkpt lat="40.0713748" lon="-105.229789">
  <ele>1583.05</ele>
  <time>2026-08-28T17:51:12Z</time>
  <course>245.44</course>
  <speed>0.02</speed>
  <fix>3d</fix>
</trkpt>
<trkpt lat="40.0713749" lon="-105.229789">
  <ele>1583.0</ele>
  <time>2026-08-28T17:51:12Z</time>
  <course>0.0</course>
  <speed>0.0</speed>
  <fix>3d</fix>
</trkpt>
<trkpt lat="40.0713747" lon="-105.229789">
  <ele>1583.05</ele>
  <time>2026-08-28T17:51:12Z</time>
  <course>245.44</course>
  <speed>0.02</speed>
  <fix>3d</fix>
</trkpt>
<trkpt lat="40.0713749" lon="-105.229789">
  <ele>1583.0</ele>
  <time>2026-08-28T17:51:12Z</time>
  <course>0.0</course>
  <speed>0.0</speed>
  <fix>3d</fix>
</trkpt>
<trkpt lat="40.0713748" lon="-105.229789">
  <ele>1583.05</ele>
  <time>2026-08-28T17:51:12Z</time>
  <course>245.44</course>
  <speed>0.02</speed>
  <fix>3d</fix>
</trkpt>
<trkpt lat="40.0713749" lon="-105.229789">
  <ele>1583.0</ele>
  <time>2026-08-28T17:51:12Z</time>
  <course>0.0</course>
  <speed>0.0</speed>
  <fix>3d</fix>
</trkpt>
<trkpt lat="40.0713747" lon="-105.229789">
  <ele>1583.04</ele>
  <time>2026-08-28T17:51:12Z</time>
  <course>245.44</course>
  <speed>0.02</speed>
  <fix>3d</fix>
</trkpt>
<trkpt lat="40.0713749" lon="-105.229789">
  <ele>1583.0</ele>
  <time>2026-08-28T17:51:12Z</time>
  <course>0.0</course>
  <speed>0.0</speed>
  <fix>3d</fix>
</trkpt>
<trkpt lat="40.0713748" lon="-105.229789">
  <ele>1583.04</ele>
  <time>2026-08-28T17:51:12Z</time>
  <course>245.43</course>
  <speed>0.02</speed>
  <fix>3d</fix>
</trkpt>
<trkpt lat="40.0713749" lon="-105.229789">
  <ele>1583.0</ele>
  <time>2026-08-28T17:51:12Z</time>
  <course>0.0</course>
  <speed>0.0</speed>
  <fix>3d</fix>
</trkpt>
<trkpt lat="40.0713747" lon="-105.229789">
  <ele>1583.04</ele>
  <time>2026-08-28T17:51:12Z</time>
  <course>245.43</course>
  <speed>0.02</speed>
  <fix>3d</fix>
</trkpt>
<trkpt lat="40.0713749" lon="-105.229789">
  <ele>1583.0</ele>
  <time>2026-08-28T17:51:12Z</time>
  <course>0.0</course>
  <speed>0.0</speed>
  <fix>3d</fix>
</trkpt>
<trkpt lat="40.0713748" lon="-105.229789">
  <ele>1583.04</ele>
  <time>2026-08-28T17:51:12Z</time>
  <course>245.43</course>
  <speed>0.02</speed>
  <fix>3d</fix>
</trkpt>
<trkpt lat="40.0713749" lon="-105.229789">
  <ele>1583.0</ele>
  <time>2026-08-28T17:51:12Z</time>
  <course>0.0</course>
  <speed>0.0</speed>
  <fix>3d</fix>
</trkpt>
<trkpt lat="40.0713747" lon="-105.229789">
  <ele>1583.03</ele>
  <time>2026-08-28T17:51:12Z</time>
  <course>245.43</course>
  <speed>0.02</speed>
  <fix>3d</fix>
</trkpt>
<trkpt lat="40.0713749" lon="-105.229789">
  <ele>1583.0</ele>
  <time>2026-08-28T17:51:12Z</time>
  <course>0.0</course>
  <speed>0.0</speed>
  <fix>3d</fix>
</trkpt>
<trkpt lat="40.0713748" lon="-105.229789">
  <ele>1583.03</ele>
  <time>2026-08-28T17:51:12Z</time>
  <course>245.43</course>
  <speed>0.02</speed>
  <fix>3d</fix>
</trkpt>
<trkpt lat="40.0713749" lon="-105.229789">
  <ele>1583.0</ele>
  <time>2026-08-28T17:51:12Z</time>
  <course>0.0</course>
  <speed>0.0</speed>
  <fix>3d</fix>
</trkpt>
<trkpt lat="40.0713747" lon="-105.229789">
  <ele>1583.03</ele>
  <time>2026-08-28T17:51:12Z</time>
  <course>245.43</course>
  <speed>0.02</speed>
  <fix>3d</fix>
</trkpt>
<trkpt lat="40.0713749" lon="-105.229789">
  <ele>1583.0</ele>
  <time>2026-08-28T17:51:12Z</time>
  <course>0.0</course>
  <speed>0.0</speed>
  <fix>3d</fix>
</trkpt>
<trkpt lat="40.0713748" lon="-105.229789">
  <ele>1583.03</ele>
  <time>2026-08-28T17:51:12Z</time>
  <course>245.42</course>
  <speed>0.02</speed>
  <fix>3d</fix>
</trkpt>
<trkpt lat="40.0713749" lon="-105.229789">
  <ele>1583.0</ele>
  <time>2026-08-28T17:51:12Z</time>
  <course>0.0</course>
  <speed>0.0</speed>
  <fix>3d</fix>
</trkpt>
<trkpt lat="40.0713747" lon="-105.229789">
  <ele>1583.03</ele>
  <time>2026-08-28T17:51:12Z</time>
  <course>245.42</course>
  <speed>0.02</speed>
  <fix>3d</fix>
</trkpt>
<trkpt lat="40.0713749" lon="-105.229789">
  <ele>1583.0</ele>
  <time>2026-08-28T17:51:12Z</time>
  <course>0.0</course>
  <speed>0.0</speed>
  <fix>3d</fix>
</trkpt>
<trkpt lat="40.0713748" lon="-105.229789">
  <ele>1583.02</ele>
  <time>2026-08-28T17:51:12Z</time>
  <course>245.42</course>
  <speed>0.02</speed>
  <fix>3d</fix>
</trkpt>
<trkpt lat="40.0713749" lon="-105.229789">
  <ele>1583.0</ele>
  <time>2026-08-28T17:51:12Z</time>
  <course>0.0</course>
  <speed>0.0</speed>
  <fix>3d</fix>
</trkpt>
<trkpt lat="40.0713747" lon="-105.229789">
  <ele>1583.02</ele>
  <time>2026-08-28T17:51:12Z</time>
  <course>245.42</course>
  <speed>0.02</speed>
  <fix>3d</fix>
</trkpt>
<trkpt lat="40.0713749" lon="-105.229789">
  <ele>1583.0</ele>
  <time>2026-08-28T17:51:12Z</time>
  <course>0.0</course>
  <speed>0.0</speed>
  <fix>3d</fix>
</trkpt>
<trkpt lat="40.0713748" lon="-105.229789">
  <ele>1583.01</ele>
  <time>2026-08-28T17:51:12Z</time>
  <course>245.42</course>
  <speed>0.02</speed>
  <fix>3d</fix>
</trkpt>
<trkpt lat="40.0713749" lon="-105.229789">
  <ele>1583.0</ele>
  <time>2026-08-28T17:51:12Z</time>
  <course>0.0</course>
  <speed>0.0</speed>
  <fix>3d</fix>
</trkpt>
<trkpt lat="40.0713748" lon="-105.229789">
  <ele>1583.01</ele>
  <time>2026-08-28T17:51:12Z</time>
  <course>245.42</course>
  <speed>0.02</speed>
  <fix>3d</fix>
</trkpt>
<trkpt lat="40.0713749" lon="-105.229789">
  <ele>1583.0</ele>
  <time>2026-08-28T17:51:12Z</time>
  <course>0.0</course>
  <speed>0.0</speed>
  <fix>3d</fix>
</trkpt>
<trkpt lat="40.0713748" lon="-105.229789">
  <ele>1583.01</ele>
  <time>2026-08-28T17:51:12Z</time>
  <course>245.41</course>
  <speed>0.02</speed>
  <fix>3d</fix>
</trkpt>
<trkpt lat="40.0713749" lon="-105.229789">
  <ele>1583.0</ele>
  <time>2026-08-28T17:51:12Z</time>
  <course>0.0</course>
  <speed>0.0</speed>
  <fix>3d</fix>
</trkpt>
<trkpt lat="40.0713748" lon="-105.229789">
  <ele>1583.02</ele>
  <time>2026-08-28T17:51:12Z</time>
  <course>245.41</course>
  <speed>0.02</speed>
  <fix>3d</fix>
</trkpt>
<trkpt lat="40.0713749" lon="-105.229789">
  <ele>1583.0</ele>
  <time>2026-08-28T17:51:12Z</time>
  <course>0.0</course>
  <speed>0.0</speed>
  <fix>3d</fix>
</trkpt>
<trkpt lat="40.0713748" lon="-105.229789">
  <ele>1583.02</ele>
  <time>2026-08-28T17:51:12Z</time>
  <course>245.41</course>
  <speed>0.02</speed>
  <fix>3d</fix>
</trkpt>
<trkpt lat="40.0713749" lon="-105.229789">
  <ele>1583.0</ele>
  <time>2026-08-28T17:51:12Z</time>
  <course>0.0</course>
  <speed>0.0</speed>
  <fix>3d</fix>
</trkpt>
<trkpt lat="40.0713747" lon="-105.229789">
  <ele>1583.03</ele>
  <time>2026-08-28T17:51:12Z</time>
  <course>245.41</course>
  <speed>0.02</speed>
  <fix>3d</fix>
</trkpt>
<trkpt lat="40.0713749" lon="-105.229789">
  <ele>1583.0</ele>
  <time>2026-08-28T17:51:12Z</time>
  <course>0.0</course>
  <speed>0.0</speed>
  <fix>3d</fix>
</trkpt>
<trkpt lat="40.0713748" lon="-105.229789">
  <ele>1583.03</ele>
  <time>2026-08-28T17:51:12Z</time>
  <course>245.41</course>
  <speed>0.02</speed>
  <fix>3d</fix>
</trkpt>
<trkpt lat="40.0713749" lon="-105.229789">
  <ele>1583.0</ele>
  <time>2026-08-28T17:51:12Z</time>
  <course>0.0</course>
  <speed>0.0</speed>
  <fix>3d</fix>
</trkpt>
<trkpt lat="40.0713747" lon="-105.229789">
  <ele>1583.04</ele>
  <time>2026-08-28T17:51:12Z</time>
  <course>245.41</course>
  <speed>0.02</speed>
  <fix>3d</fix>
</trkpt>
<trkpt lat="40.0713749" lon="-105.229789">
  <ele>1583.0</ele>
  <time>2026-08-28T17:51:12Z</time>
  <course>0.0</course>
  <speed>0.0</speed>
  <fix>3d</fix>
</trkpt>
<trkpt lat="40.0713748" lon="-105.229789">
  <ele>1583.04</ele>
  <time>2026-08-28T17:51:12Z</time>
  <course>245.4</course>
  <speed>0.02</speed>
  <fix>3d</fix>
</trkpt>
<trkpt lat="40.0713749" lon="-105.229789">
  <ele>1583.0</ele>
  <time>2026-08-28T17:51:12Z</time>
  <course>0.0</course>
  <speed>0.0</speed>
  <fix>3d</fix>
</trkpt>
<trkpt lat="40.0713747" lon="-105.229789">
  <ele>1583.05</ele>
  <time>2026-08-28T17:51:12Z</time>
  <course>245.4</course>
  <speed>0.02</speed>
  <fix>3d</fix>
</trkpt>
<trkpt lat="40.0713749" lon="-105.229789">
  <ele>1583.0</ele>
  <time>2026-08-28T17:51:12Z</time>
  <course>0.0</course>
  <speed>0.0</speed>
  <fix>3d</fix>
</trkpt>
<trkpt lat="40.0713748" lon="-105.229789">
  <ele>1583.05</ele>
  <time>2026-08-28T17:51:12Z</time>
  <course>245.4</course>
  <speed>0.02</speed>
  <fix>3d</fix>
</trkpt>
<trkpt lat="40.0713749" lon="-105.229789">
  <ele>1583.0</ele>
  <time>2026-08-28T17:51:12Z</time>
  <course>0.0</course>
  <speed>0.0</speed>
  <fix>3d</fix>
</trkpt>
<trkpt lat="40.0713747" lon="-105.229789">
  <ele>1583.05</ele>
  <time>2026-08-28T17:51:12Z</time>
  <course>245.4</course>
  <speed>0.02</speed>
  <fix>3d</fix>
</trkpt>
<trkpt lat="40.0713749" lon="-105.229789">
  <ele>1583.0</ele>
  <time>2026-08-28T17:51:12Z</time>
  <course>0.0</course>
  <speed>0.0</speed>
  <fix>3d</fix>
</trkpt>
<trkpt lat="40.0713747" lon="-105.229789">
  <ele>1583.05</ele>
  <time>2026-08-28T17:51:12Z</time>
  <course>245.4</course>
  <speed>0.02</speed>
  <fix>3d</fix>
</trkpt>
<trkpt lat="40.0713749" lon="-105.229789">
  <ele>1583.0</ele>
  <time>2026-08-28T17:51:12Z</time>
  <course>0.0</course>
  <speed>0.0</speed>
  <fix>3d</fix>
</trkpt>
<trkpt lat="40.0713747" lon="-105.229789">
  <ele>1583.05</ele>
  <time>2026-08-28T17:51:12Z</time>
  <course>245.4</course>
  <speed>0.02</speed>
  <fix>3d</fix>
</trkpt>
<trkpt lat="40.0713749" lon="-105.229789">
  <ele>1583.0</ele>
  <time>2026-08-28T17:51:12Z</time>
  <course>0.0</course>
  <speed>0.0</speed>
  <fix>3d</fix>
</trkpt>
<trkpt lat="40.0713747" lon="-105.229789">
  <ele>1583.05</ele>
  <time>2026-08-28T17:51:12Z</time>
  <course>245.39</course>
  <speed>0.02</speed>
  <fix>3d</fix>
</trkpt>
<trkpt lat="40.0713749" lon="-105.229789">
  <ele>1583.0</ele>
  <time>2026-08-28T17:51:12Z</time>
  <course>0.0</course>
  <speed>0.0</speed>
  <fix>3d</fix>
</trkpt>
<trkpt lat="40.0713747" lon="-105.229789">
  <ele>1583.05</ele>
  <time>2026-08-28T17:51:12Z</time>
  <course>245.39</course>
  <speed>0.02</speed>
  <fix>3d</fix>
</trkpt>
<trkpt lat="40.0713749" lon="-105.229789">
  <ele>1583.0</ele>
  <time>2026-08-28T17:51:12Z</time>
  <course>0.0</course>
  <speed>0.0</speed>
  <fix>3d</fix>
</trkpt>
<trkpt lat="40.0713747" lon="-105.229789">
  <ele>1583.06</ele>
  <time>2026-08-28T17:51:12Z</time>
  <course>245.39</course>
  <speed>0.02</speed>
  <fix>3d</fix>
</trkpt>
<trkpt lat="40.0713749" lon="-105.229789">
  <ele>1583.0</ele>
  <time>2026-08-28T17:51:12Z</time>
  <course>0.0</course>
  <speed>0.0</speed>
  <fix>3d</fix>
</trkpt>
<trkpt lat="40.0713747" lon="-105.229789">
  <ele>1583.06</ele>
  <time>2026-08-28T17:51:12Z</time>
  <course>245.39</course>
  <speed>0.02</speed>
  <fix>3d</fix>
</trkpt>
<trkpt lat="40.0713749" lon="-105.229789">
  <ele>1583.0</ele>
  <time>2026-08-28T17:51:12Z</time>
  <course>0.0</course>
  <speed>0.0</speed>
  <fix>3d</fix>
</trkpt>
<trkpt lat="40.0713748" lon="-105.229789">
  <ele>1583.07</ele>
  <time>2026-08-28T17:51:12Z</time>
  <course>245.39</course>
  <speed>0.02</speed>
  <fix>3d</fix>
</trkpt>
<trkpt lat="40.0713749" lon="-105.229789">
  <ele>1583.0</ele>
  <time>2026-08-28T17:51:12Z</time>
  <course>0.0</course>
  <speed>0.0</speed>
  <fix>3d</fix>
</trkpt>
<trkpt lat="40.0713747" lon="-105.229789">
  <ele>1583.07</ele>
  <time>2026-08-28T17:51:12Z</time>
  <course>245.39</course>
  <speed>0.02</speed>
  <fix>3d</fix>
</trkpt>
<trkpt lat="40.0713749" lon="-105.229789">
  <ele>1583.0</ele>
  <time>2026-08-28T17:51:12Z</time>
  <course>0.0</course>
  <speed>0.0</speed>
  <fix>3d</fix>
</trkpt>
<trkpt lat="40.0713748" lon="-105.229789">
  <ele>1583.08</ele>
  <time>2026-08-28T17:51:12Z</time>
  <course>245.38</course>
  <speed>0.02</speed>
  <fix>3d</fix>
</trkpt>
<trkpt lat="40.0713749" lon="-105.229789">
  <ele>1583.0</ele>
  <time>2026-08-28T17:51:12Z</time>
  <course>0.0</course>
  <speed>0.0</speed>
  <fix>3d</fix>
</trkpt>
<trkpt lat="40.0713747" lon="-105.229789">
  <ele>1583.08</ele>
  <time>2026-08-28T17:51:12Z</time>
  <course>245.38</course>
  <speed>0.02</speed>
  <fix>3d</fix>
</trkpt>
<trkpt lat="40.0713749" lon="-105.229789">
  <ele>1583.0</ele>
  <time>2026-08-28T17:51:12Z</time>
  <course>0.0</course>
  <speed>0.0</speed>
  <fix>3d</fix>
</trkpt>
<trkpt lat="40.0713748" lon="-105.229789">
  <ele>1583.09</ele>
  <time>2026-08-28T17:51:12Z</time>
  <course>245.38</course>
  <speed>0.02</speed>
  <fix>3d</fix>
</trkpt>
<trkpt lat="40.0713749" lon="-105.229789">
  <ele>1583.0</ele>
  <time>2026-08-28T17:51:12Z</time>
  <course>0.0</course>
  <speed>0.0</speed>
  <fix>3d</fix>
</trkpt>
<trkpt lat="40.0713747" lon="-105.229789">
  <ele>1583.09</ele>
  <time>2026-08-28T17:51:12Z</time>
  <course>245.38</course>
  <speed>0.02</speed>
  <fix>3d</fix>
</trkpt>
<trkpt lat="40.0713749" lon="-105.229789">
  <ele>1583.0</ele>
  <time>2026-08-28T17:51:12Z</time>
  <course>0.0</course>
  <speed>0.0</speed>
  <fix>3d</fix>
</trkpt>
<trkpt lat="40.0713748" lon="-105.229789">
  <ele>1583.1</ele>
  <time>2026-08-28T17:51:12Z</time>
  <course>245.38</course>
  <speed>0.02</speed>
  <fix>3d</fix>
</trkpt>
<trkpt lat="40.0713749" lon="-105.229789">
  <ele>1583.0</ele>
  <time>2026-08-28T17:51:12Z</time>
  <course>0.0</course>
  <speed>0.0</speed>
  <fix>3d</fix>
</trkpt>
<trkpt lat="40.0713747" lon="-105.229789">
  <ele>1583.11</ele>
  <time>2026-08-28T17:51:12Z</time>
  <course>245.38</course>
  <speed>0.02</speed>
  <fix>3d</fix>
</trkpt>
<trkpt lat="40.0713749" lon="-105.229789">
  <ele>1583.0</ele>
  <time>2026-08-28T17:51:12Z</time>
  <course>0.0</course>
  <speed>0.0</speed>
  <fix>3d</fix>
</trkpt>
<trkpt lat="40.0713748" lon="-105.229789">
  <ele>1583.12</ele>
  <time>2026-08-28T17:51:12Z</time>
  <course>245.37</course>
  <speed>0.02</speed>
  <fix>3d</fix>
</trkpt>
<trkpt lat="40.0713749" lon="-105.229789">
  <ele>1583.0</ele>
  <time>2026-08-28T17:51:12Z</time>
  <course>0.0</course>
  <speed>0.0</speed>
  <fix>3d</fix>
</trkpt>
<trkpt lat="40.0713747" lon="-105.229789">
  <ele>1583.12</ele>
  <time>2026-08-28T17:51:12Z</time>
  <course>245.37</course>
  <speed>0.02</speed>
  <fix>3d</fix>
</trkpt>
<trkpt lat="40.0713749" lon="-105.229789">
  <ele>1583.0</ele>
  <time>2026-08-28T17:51:12Z</time>
  <course>0.0</course>
  <speed>0.0</speed>
  <fix>3d</fix>
</trkpt>
<trkpt lat="40.0713748" lon="-105.229789">
  <ele>1583.13</ele>
  <time>2026-08-28T17:51:12Z</time>
  <course>245.37</course>
  <speed>0.02</speed>
  <fix>3d</fix>
</trkpt>
<trkpt lat="40.0713749" lon="-105.229789">
  <ele>1583.0</ele>
  <time>2026-08-28T17:51:12Z</time>
  <course>0.0</course>
  <speed>0.0</speed>
  <fix>3d</fix>
</trkpt>
<trkpt lat="40.0713747" lon="-105.229789">
  <ele>1583.13</ele>
  <time>2026-08-28T17:51:12Z</time>
  <course>245.37</course>
  <speed>0.02</speed>
  <fix>3d</fix>
</trkpt>
<trkpt lat="40.0713749" lon="-105.229789">
  <ele>1583.0</ele>
  <time>2026-08-28T17:51:12Z</time>
  <course>0.0</course>
  <speed>0.0</speed>
  <fix>3d</fix>
</trkpt>
<trkpt lat="40.0713748" lon="-105.229789">
  <ele>1583.14</ele>
  <time>2026-08-28T17:51:12Z</time>
  <course>245.37</course>
  <speed>0.02</speed>
  <fix>3d</fix>
</trkpt>
<trkpt lat="40.0713749" lon="-105.229789">
  <ele>1583.0</ele>
  <time>2026-08-28T17:51:12Z</time>
  <course>0.0</course>
  <speed>0.0</speed>
  <fix>3d</fix>
</trkpt>
<trkpt lat="40.0713747" lon="-105.229789">
  <ele>1583.14</ele>
  <time>2026-08-28T17:51:12Z</time>
  <course>245.37</course>
  <speed>0.02</speed>
  <fix>3d</fix>
</trkpt>
<trkpt lat="40.0713749" lon="-105.229789">
  <ele>1583.0</ele>
  <time>2026-08-28T17:51:12Z</time>
  <course>0.0</course>
  <speed>0.0</speed>
  <fix>3d</fix>
</trkpt>
<trkpt lat="40.0713747" lon="-105.229789">
  <ele>1583.14</ele>
  <time>2026-08-28T17:51:12Z</time>
  <course>245.36</course>
  <speed>0.02</speed>
  <fix>3d</fix>
</trkpt>
<trkpt lat="40.0713749" lon="-105.229789">
  <ele>1583.0</ele>
  <time>2026-08-28T17:51:12Z</time>
  <course>0.0</course>
  <speed>0.0</speed>
  <fix>3d</fix>
</trkpt>
<trkpt lat="40.0713747" lon="-105.229789">
  <ele>1583.14</ele>
  <time>2026-08-28T17:51:12Z</time>
  <course>245.36</course>
  <speed>0.02</speed>
  <fix>3d</fix>
</trkpt>
<trkpt lat="40.0713749" lon="-105.229789">
  <ele>1583.0</ele>
  <time>2026-08-28T17:51:12Z</time>
  <course>0.0</course>
  <speed>0.0</speed>
  <fix>3d</fix>
</trkpt>
<trkpt lat="40.0713747" lon="-105.229789">
  <ele>1583.13</ele>
  <time>2026-08-28T17:51:12Z</time>
  <course>245.36</course>
  <speed>0.02</speed>
  <fix>3d</fix>
</trkpt>
<trkpt lat="40.0713749" lon="-105.229789">
  <ele>1583.0</ele>
  <time>2026-08-28T17:51:12Z</time>
  <course>0.0</course>
  <speed>0.0</speed>
  <fix>3d</fix>
</trkpt>
<trkpt lat="40.0713747" lon="-105.229789">
  <ele>1583.13</ele>
  <time>2026-08-28T17:51:12Z</time>
  <course>245.36</course>
  <speed>0.02</speed>
  <fix>3d</fix>
</trkpt>
<trkpt lat="40.0713749" lon="-105.229789">
  <ele>1583.0</ele>
  <time>2026-08-28T17:51:12Z</time>
  <course>0.0</course>
  <speed>0.0</speed>
  <fix>3d</fix>
</trkpt>
<trkpt lat="40.0713747" lon="-105.229789">
  <ele>1583.12</ele>
  <time>2026-08-28T17:51:12Z</time>
  <course>245.36</course>
  <speed>0.02</speed>
  <fix>3d</fix>
</trkpt>
<trkpt lat="40.0713749" lon="-105.229789">
  <ele>1583.0</ele>
  <time>2026-08-28T17:51:12Z</time>
  <course>0.0</course>
  <speed>0.0</speed>
  <fix>3d</fix>
</trkpt>
<trkpt lat="40.0713747" lon="-105.229789">
  <ele>1583.11</ele>
  <time>2026-08-28T17:51:12Z</time>
  <course>245.36</course>
  <speed>0.02</speed>
  <fix>3d</fix>
</trkpt>
<trkpt lat="40.0713749" lon="-105.229789">
  <ele>1583.0</ele>
  <time>2026-08-28T17:51:12Z</time>
  <course>0.0</course>
  <speed>0.0</speed>
  <fix>3d</fix>
</trkpt>
<trkpt lat="40.0713748" lon="-105.229789">
  <ele>1583.1</ele>
  <time>2026-08-28T17:51:12Z</time>
  <course>245.36</course>
  <speed>0.02</speed>
  <fix>3d</fix>
</trkpt>
<trkpt lat="40.0713749" lon="-105.229789">
  <ele>1583.0</ele>
  <time>2026-08-28T17:51:12Z</time>
  <course>0.0</course>
  <speed>0.0</speed>
  <fix>3d</fix>
</trkpt>
<trkpt lat="40.0713747" lon="-105.229789">
  <ele>1583.1</ele>
  <time>2026-08-28T17:51:12Z</time>
  <course>245.35</course>
  <speed>0.02</speed>
  <fix>3d</fix>
</trkpt>
<trkpt lat="40.0713749" lon="-105.229789">
  <ele>1583.0</ele>
  <time>2026-08-28T17:51:12Z</time>
  <course>0.0</course>
  <speed>0.0</speed>
  <fix>3d</fix>
</trkpt>
<trkpt lat="40.0713748" lon="-105.229789">
  <ele>1583.09</ele>
  <time>2026-08-28T17:51:12Z</time>
  <course>245.35</course>
  <speed>0.02</speed>
  <fix>3d</fix>
</trkpt>
<trkpt lat="40.0713749" lon="-105.229789">
  <ele>1583.0</ele>
  <time>2026-08-28T17:51:12Z</time>
  <course>0.0</course>
  <speed>0.0</speed>
  <fix>3d</fix>
</trkpt>
<trkpt lat="40.0713747" lon="-105.229789">
  <ele>1583.08</ele>
  <time>2026-08-28T17:51:12Z</time>
  <course>245.35</course>
  <speed>0.02</speed>
  <fix>3d</fix>
</trkpt>
<trkpt lat="40.0713749" lon="-105.229789">
  <ele>1583.0</ele>
  <time>2026-08-28T17:51:12Z</time>
  <course>0.0</course>
  <speed>0.0</speed>
  <fix>3d</fix>
</trkpt>
<trkpt lat="40.0713748" lon="-105.229789">
  <ele>1583.07</ele>
  <time>2026-08-28T17:51:12Z</time>
  <course>245.35</course>
  <speed>0.02</speed>
  <fix>3d</fix>
</trkpt>
<trkpt lat="40.0713749" lon="-105.229789">
  <ele>1583.0</ele>
  <time>2026-08-28T17:51:12Z</time>
  <course>0.0</course>
  <speed>0.0</speed>
  <fix>3d</fix>
</trkpt>
<trkpt lat="40.0713747" lon="-105.229789">
  <ele>1583.06</ele>
  <time>2026-08-28T17:51:12Z</time>
  <course>245.35</course>
  <speed>0.02</speed>
  <fix>3d</fix>
</trkpt>
<trkpt lat="40.0713749" lon="-105.229789">
  <ele>1583.0</ele>
  <time>2026-08-28T17:51:12Z</time>
  <course>0.0</course>
  <speed>0.0</speed>
  <fix>3d</fix>
</trkpt>
<trkpt lat="40.0713748" lon="-105.229789">
  <ele>1583.05</ele>
  <time>2026-08-28T17:51:12Z</time>
  <course>245.35</course>
  <speed>0.02</speed>
  <fix>3d</fix>
</trkpt>
<trkpt lat="40.0713749" lon="-105.229789">
  <ele>1583.0</ele>
  <time>2026-08-28T17:51:12Z</time>
  <course>0.0</course>
  <speed>0.0</speed>
  <fix>3d</fix>
</trkpt>
<trkpt lat="40.0713747" lon="-105.229789">
  <ele>1583.04</ele>
  <time>2026-08-28T17:51:12Z</time>
  <course>245.34</course>
  <speed>0.02</speed>
  <fix>3d</fix>
</trkpt>
<trkpt lat="40.0713749" lon="-105.229789">
  <ele>1583.0</ele>
  <time>2026-08-28T17:51:12Z</time>
  <course>0.0</course>
  <speed>0.0</speed>
  <fix>3d</fix>
</trkpt>
<trkpt lat="40.0713748" lon="-105.229789">
  <ele>1583.04</ele>
  <time>2026-08-28T17:51:12Z</time>
  <course>245.34</course>
  <speed>0.02</speed>
  <fix>3d</fix>
</trkpt>
<trkpt lat="40.0713749" lon="-105.229789">
  <ele>1583.0</ele>
  <time>2026-08-28T17:51:12Z</time>
  <course>0.0</course>
  <speed>0.0</speed>
  <fix>3d</fix>
</trkpt>
<trkpt lat="40.0713747" lon="-105.229789">
  <ele>1583.03</ele>
  <time>2026-08-28T17:51:12Z</time>
  <course>245.34</course>
  <speed>0.02</speed>
  <fix>3d</fix>
</trkpt>
<trkpt lat="40.0713749" lon="-105.229789">
  <ele>1583.0</ele>
  <time>2026-08-28T17:51:12Z</time>
  <course>0.0</course>
  <speed>0.0</speed>
  <fix>3d</fix>
</trkpt>
<trkpt lat="40.0713748" lon="-105.229789">
  <ele>1583.03</ele>
  <time>2026-08-28T17:51:12Z</time>
  <course>245.34</course>
  <speed>0.02</speed>
  <fix>3d</fix>
</trkpt>
<trkpt lat="40.0713749" lon="-105.229789">
  <ele>1583.0</ele>
  <time>2026-08-28T17:51:12Z</time>
  <course>0.0</course>
  <speed>0.0</speed>
  <fix>3d</fix>
</trkpt>
<trkpt lat="40.0713747" lon="-105.229789">
  <ele>1583.02</ele>
  <time>2026-08-28T17:51:12Z</time>
  <course>245.34</course>
  <speed>0.02</speed>
  <fix>3d</fix>
</trkpt>
<trkpt lat="40.0713749" lon="-105.229789">
  <ele>1583.0</ele>
  <time>2026-08-28T17:51:12Z</time>
  <course>0.0</course>
  <speed>0.0</speed>
  <fix>3d</fix>
</trkpt>
<trkpt lat="40.0713748" lon="-105.229789">
  <ele>1583.01</ele>
  <time>2026-08-28T17:51:12Z</time>
  <course>245.34</course>
  <speed>0.02</speed>
  <fix>3d</fix>
</trkpt>
<trkpt lat="40.0713749" lon="-105.229789">
  <ele>1583.0</ele>
  <time>2026-08-28T17:51:12Z</time>
  <course>0.0</course>
  <speed>0.0</speed>
  <fix>3d</fix>
</trkpt>
<trkpt lat="40.0713747" lon="-105.2297891">
  <ele>1583.01</ele>
  <time>2026-08-28T17:51:12Z</time>
  <course>245.34</course>
  <speed>0.02</speed>
  <fix>3d</fix>
</trkpt>
<trkpt lat="40.0713749" lon="-105.229789">
  <ele>1583.0</ele>
  <time>2026-08-28T17:51:12Z</time>
  <course>0.0</course>
  <speed>0.0</speed>
  <fix>3d</fix>
</trkpt>
<trkpt lat="40.0713747" lon="-105.229789">
  <ele>1583.0</ele>
  <time>2026-08-28T17:51:12Z</time>
  <course>245.33</course>
  <speed>0.02</speed>
  <fix>3d</fix>
</trkpt>
<trkpt lat="40.0713749" lon="-105.229789">
  <ele>1583.0</ele>
  <time>2026-08-28T17:51:12Z</time>
  <course>0.0</course>
  <speed>0.0</speed>
  <fix>3d</fix>
</trkpt>
<trkpt lat="40.0713747" lon="-105.2297891">
  <ele>1583.0</ele>
  <time>2026-08-28T17:51:12Z</time>
  <course>245.33</course>
  <speed>0.02</speed>
  <fix>3d</fix>
</trkpt>
<trkpt lat="40.0713749" lon="-105.229789">
  <ele>1583.0</ele>
  <time>2026-08-28T17:51:12Z</time>
  <course>0.0</course>
  <speed>0.0</speed>
  <fix>3d</fix>
</trkpt>
<trkpt lat="40.0713747" lon="-105.2297891">
  <ele>1583.0</ele>
  <time>2026-08-28T17:51:12Z</time>
  <course>245.33</course>
  <speed>0.02</speed>
  <fix>3d</fix>
</trkpt>
<trkpt lat="40.0713749" lon="-105.229789">
  <ele>1583.0</ele>
  <time>2026-08-28T17:51:12Z</time>
  <course>0.0</course>
  <speed>0.0</speed>
  <fix>3d</fix>
</trkpt>
<trkpt lat="40.0713747" lon="-105.2297891">
  <ele>1583.0</ele>
  <time>2026-08-28T17:51:12Z</time>
  <course>245.33</course>
  <speed>0.02</speed>
  <fix>3d</fix>
</trkpt>
<trkpt lat="40.0713749" lon="-105.229789">
  <ele>1583.0</ele>
  <time>2026-08-28T17:51:12Z</time>
  <course>0.0</course>
  <speed>0.0</speed>
  <fix>3d</fix>
</trkpt>
<trkpt lat="40.0713747" lon="-105.2297891">
  <ele>1583.0</ele>
  <time>2026-08-28T17:51:12Z</time>
  <course>245.33</course>
  <speed>0.02</speed>
  <fix>3d</fix>
</trkpt>
<trkpt lat="40.0713749" lon="-105.229789">
  <ele>1583.0</ele>
  <time>2026-08-28T17:51:12Z</time>
  <course>0.0</course>
  <speed>0.0</speed>
  <fix>3d</fix>
</trkpt>
<trkpt lat="40.0713747" lon="-105.2297891">
  <ele>1583.0</ele>
  <time>2026-08-28T17:51:12Z</time>
  <course>245.33</course>
  <speed>0.022360679774997897</speed>
  <fix>3d</fix>
</trkpt>
<trkpt lat="40.0713749" lon="-105.229789">
  <ele>1583.0</ele>
  <time>2026-08-28T17:51:12Z</time>
  <course>0.0</course>
  <speed>0.0</speed>
  <fix>3d</fix>
</trkpt>
<trkpt lat="40.0713747" lon="-105.2297891">
  <ele>1583.0</ele>
  <time>2026-08-28T17:51:12Z</time>
  <course>245.33</course>
  <speed>0.02</speed>
  <fix>3d</fix>
</trkpt>
<trkpt lat="40.0713749" lon="-105.229789">
  <ele>1583.0</ele>
  <time>2026-08-28T17:51:12Z</time>
  <course>0.0</course>
  <speed>0.0</speed>
  <fix>3d</fix>
</trkpt>
<trkpt lat="39.655741" lon="-104.1383097">
  <ele>1566.58</ele>
  <time>2026-08-28T17:51:12Z</time>
  <course>0.0</course>
  <speed>0.0</speed>
  <fix>3d</fix>
</trkpt>
<trkpt lat="40.0713749" lon="-105.229789">
  <ele>1583.0</ele>
  <time>2026-08-28T17:51:12Z</time>
  <course>238.36</course>
  <speed>0.0</speed>
  <fix>3d</fix>
</trkpt>
<trkpt lat="40.0713749" lon="-105.229789">
  <ele>1583.0</ele>
  <time>2026-08-28T17:51:12Z</time>
  <course>0.0</course>
  <speed>0.0</speed>
  <fix>3d</fix>
</trkpt>
<trkpt lat="40.0713749" lon="-105.229789">
  <ele>1583.0</ele>
  <time>2026-08-28T17:51:12Z</time>
  <course>238.36</course>
  <speed>0.0</speed>
  <fix>3d</fix>
</trkpt>
<trkpt lat="40.0713749" lon="-105.229789">
  <ele>1583.0</ele>
  <time>2026-08-28T17:51:12Z</time>
  <course>0.0</course>
  <speed>0.0</speed>
  <fix>3d</fix>
</trkpt>
<trkpt lat="40.0713749" lon="-105.229789">
  <ele>1583.0</ele>
  <time>2026-08-28T17:51:12Z</time>
  <course>238.47</course>
  <speed>0.0</speed>
  <fix>3d</fix>
</trkpt>
<trkpt lat="40.0713749" lon="-105.229789">
  <ele>1583.0</ele>
  <time>2026-08-28T17:51:12Z</time>
  <course>0.0</course>
  <speed>0.0</speed>
  <fix>3d</fix>
</trkpt>
<trkpt lat="40.0713749" lon="-105.229789">
  <ele>1583.0</ele>
  <time>2026-08-28T17:51:12Z</time>
  <course>238.69</course>
  <speed>0.0</speed>
  <fix>3d</fix>
</trkpt>
<trkpt lat="40.0713749" lon="-105.229789">
  <ele>1583.0</ele>
  <time>2026-08-28T17:51:12Z</time>
  <course>0.0</course>
  <speed>0.0</speed>
  <fix>3d</fix>
</trkpt>
<trkpt lat="40.0713749" lon="-105.229789">
  <ele>1583.0</ele>
  <time>2026-08-28T17:51:12Z</time>
  <course>238.98</course>
  <speed>0.0</speed>
  <fix>3d</fix>
</trkpt>
<trkpt lat="40.0713749" lon="-105.229789">
  <ele>1583.0</ele>
  <time>2026-08-28T17:51:12Z</time>
  <course>0.0</course>
  <speed>0.0</speed>
  <fix>3d</fix>
</trkpt>
<trkpt lat="40.0713749" lon="-105.229789">
  <ele>1583.0</ele>
  <time>2026-08-28T17:51:12Z</time>
  <course>239.32</course>
  <speed>0.0</speed>
  <fix>3d</fix>
</trkpt>
<trkpt lat="40.0713749" lon="-105.229789">
  <ele>1583.0</ele>
  <time>2026-08-28T17:51:12Z</time>
  <course>0.0</course>
  <speed>0.0</speed>
  <fix>3d</fix>
</trkpt>
<trkpt lat="40.0713749" lon="-105.229789">
  <ele>1583.0</ele>
  <time>2026-08-28T17:51:12Z</time>
  <course>239.67</course>
  <speed>0.0</speed>
  <fix>3d</fix>
</trkpt>
<trkpt lat="40.0713749" lon="-105.229789">
  <ele>1583.0</ele>
  <time>2026-08-28T17:51:12Z</time>
  <course>0.0</course>
  <speed>0.0</speed>
  <fix>3d</fix>
</trkpt>
<trkpt lat="40.0713749" lon="-105.229789">
  <ele>1583.0</ele>
  <time>2026-08-28T17:51:12Z</time>
  <course>240.02</course>
  <speed>0.0</speed>
  <fix>3d</fix>
</trkpt>
<trkpt lat="40.0713749" lon="-105.229789">
  <ele>1583.0</ele>
  <time>2026-08-28T17:51:12Z</time>
  <course>0.0</course>
  <speed>0.0</speed>
  <fix>3d</fix>
</trkpt>
<trkpt lat="40.0713749" lon="-105.229789">
  <ele>1583.0</ele>
  <time>2026-08-28T17:51:12Z</time>
  <course>240.35</course>
  <speed>0.0</speed>
  <fix>3d</fix>
</trkpt>
<trkpt lat="40.0713749" lon="-105.229789">
  <ele>1583.0</ele>
  <time>2026-08-28T17:51:12Z</time>
  <course>0.0</course>
  <speed>0.0</speed>
  <fix>3d</fix>
</trkpt>
<trkpt lat="40.0713749" lon="-105.229789">
  <ele>1583.0</ele>
  <time>2026-08-28T17:51:12Z</time>
  <course>240.61</course>
  <speed>0.0</speed>
  <fix>3d</fix>
</trkpt>
<trkpt lat="40.0713749" lon="-105.229789">
  <ele>1583.0</ele>
  <time>2026-08-28T17:51:12Z</time>
  <course>0.0</course>
  <speed>0.0</speed>
  <fix>3d</fix>
</trkpt>
<trkpt lat="40.0713749" lon="-105.229789">
  <ele>1583.0</ele>
  <time>2026-08-28T17:51:12Z</time>
  <course>240.92</course>
  <speed>0.0</speed>
  <fix>3d</fix>
</trkpt>
<trkpt lat="40.0713749" lon="-105.229789">
  <ele>1583.0</ele>
  <time>2026-08-28T17:51:12Z</time>
  <course>0.0</course>
  <speed>0.0</speed>
  <fix>3d</fix>
</trkpt>
<trkpt lat="40.0713749" lon="-105.229789">
  <ele>1583.0</ele>
  <time>2026-08-28T17:51:12Z</time>
  <course>241.21</course>
  <speed>0.0</speed>
  <fix>3d</fix>
</trkpt>
<trkpt lat="40.0713749" lon="-105.229789">
  <ele>1583.0</ele>
  <time>2026-08-28T17:51:12Z</time>
  <course>0.0</course>
  <speed>0.0</speed>
  <fix>3d</fix>
</trkpt>
<trkpt lat="40.0713749" lon="-105.229789">
  <ele>1583.0</ele>
  <time>2026-08-28T17:51:12Z</time>
  <course>241.49</course>
  <speed>0.0</speed>
  <fix>3d</fix>
</trkpt>
<trkpt lat="40.0713749" lon="-105.229789">
  <ele>1583.0</ele>
  <time>2026-08-28T17:51:12Z</time>
  <course>0.0</course>
  <speed>0.0</speed>
  <fix>3d</fix>
</trkpt>
<trkpt lat="40.0713749" lon="-105.229789">
  <ele>1583.0</ele>
  <time>2026-08-28T17:51:12Z</time>
  <course>241.77</course>
  <speed>0.0</speed>
  <fix>3d</fix>
</trkpt>
<trkpt lat="40.0713749" lon="-105.229789">
  <ele>1583.0</ele>
  <time>2026-08-28T17:51:12Z</time>
  <course>0.0</course>
  <speed>0.0</speed>
  <fix>3d</fix>
</trkpt>
<trkpt lat="40.0713749" lon="-105.229789">
  <ele>1583.0</ele>
  <time>2026-08-28T17:51:12Z</time>
  <course>242.03</course>
  <speed>0.0</speed>
  <fix>3d</fix>
</trkpt>
<trkpt lat="40.0713749" lon="-105.229789">
  <ele>1583.0</ele>
  <time>2026-08-28T17:51:12Z</time>
  <course>0.0</course>
  <speed>0.0</speed>
  <fix>3d</fix>
</trkpt>
<trkpt lat="40.0713749" lon="-105.229789">
  <ele>1583.0</ele>
  <time>2026-08-28T17:51:12Z</time>
  <course>242.29</course>
  <speed>0.0</speed>
  <fix>3d</fix>
</trkpt>
<trkpt lat="40.0713749" lon="-105.229789">
  <ele>1583.0</ele>
  <time>2026-08-28T17:51:12Z</time>
  <course>0.0</course>
  <speed>0.0</speed>
  <fix>3d</fix>
</trkpt>
<trkpt lat="40.0713749" lon="-105.229789">
  <ele>1583.0</ele>
  <time>2026-08-28T17:51:12Z</time>
  <course>242.54</course>
  <speed>0.0</speed>
  <fix>3d</fix>
</trkpt>
<trkpt lat="40.0713749" lon="-105.229789">
  <ele>1583.0</ele>
  <time>2026-08-28T17:51:12Z</time>
  <course>0.0</course>
  <speed>0.0</speed>
  <fix>3d</fix>
</trkpt>
<trkpt lat="40.0713749" lon="-105.229789">
  <ele>1583.0</ele>
  <time>2026-08-28T17:51:12Z</time>
  <course>242.79</course>
  <speed>0.0</speed>
  <fix>3d</fix>
</trkpt>
<trkpt lat="40.0713749" lon="-105.229789">
  <ele>1583.0</ele>
  <time>2026-08-28T17:51:12Z</time>
  <course>0.0</course>
  <speed>0.0</speed>
  <fix>3d</fix>
</trkpt>
<trkpt lat="40.0713749" lon="-105.229789">
  <ele>1583.0</ele>
  <time>2026-08-28T17:51:12Z</time>
  <course>243.02</course>
  <speed>0.0</speed>
  <fix>3d</fix>
</trkpt>
<trkpt lat="40.0713749" lon="-105.229789">
  <ele>1583.0</ele>
  <time>2026-08-28T17:51:12Z</time>
  <course>0.0</course>
  <speed>0.0</speed>
  <fix>3d</fix>
</trkpt>
<trkpt lat="40.0713749" lon="-105.229789">
  <ele>1583.0</ele>
  <time>2026-08-28T17:51:12Z</time>
  <course>243.29</course>
  <speed>0.0</speed>
  <fix>3d</fix>
</trkpt>
<trkpt lat="40.0713749" lon="-105.229789">
  <ele>1583.0</ele>
  <time>2026-08-28T17:51:12Z</time>
  <course>0.0</course>
  <speed>0.0</speed>
  <fix>3d</fix>
</trkpt>
<trkpt lat="40.0713749" lon="-105.229789">
  <ele>1583.0</ele>
  <time>2026-08-28T17:51:12Z</time>
  <course>243.51</course>
  <speed>0.0</speed>
  <fix>3d</fix>
</trkpt>
<trkpt lat="40.0713749" lon="-105.229789">
  <ele>1583.0</ele>
  <time>2026-08-28T17:51:12Z</time>
  <course>0.0</course>
  <speed>0.0</speed>
  <fix>3d</fix>
</trkpt>
<trkpt lat="40.0713749" lon="-105.229789">
  <ele>1583.0</ele>
  <time>2026-08-28T17:51:12Z</time>
  <course>243.72</course>
  <speed>0.0</speed>
  <fix>3d</fix>
</trkpt>
<trkpt lat="40.0713749" lon="-105.229789">
  <ele>1583.0</ele>
  <time>2026-08-28T17:51:12Z</time>
  <course>0.0</course>
  <speed>0.0</speed>
  <fix>3d</fix>
</trkpt>
<trkpt lat="40.0713749" lon="-105.229789">
  <ele>1583.0</ele>
  <time>2026-08-28T17:51:12Z</time>
  <course>243.93</course>
  <speed>0.0</speed>
  <fix>3d</fix>
</trkpt>
<trkpt lat="40.0713749" lon="-105.229789">
  <ele>1583.0</ele>
  <time>2026-08-28T17:51:12Z</time>
  <course>0.0</course>
  <speed>0.0</speed>
  <fix>3d</fix>
</trkpt>
<trkpt lat="40.0713749" lon="-105.229789">
  <ele>1583.0</ele>
  <time>2026-08-28T17:51:12Z</time>
  <course>244.12</course>
  <speed>0.0</speed>
  <fix>3d</fix>
</trkpt>
<trkpt lat="40.0713749" lon="-105.229789">
  <ele>1583.0</ele>
  <time>2026-08-28T17:51:12Z</time>
  <course>0.0</course>
  <speed>0.0</speed>
  <fix>3d</fix>
</trkpt>
<trkpt lat="40.0713749" lon="-105.229789">
  <ele>1583.0</ele>
  <time>2026-08-28T17:51:12Z</time>
  <course>244.31</course>
  <speed>0.0</speed>
  <fix>3d</fix>
</trkpt>
<trkpt lat="40.0713749" lon="-105.229789">
  <ele>1583.0</ele>
  <time>2026-08-28T17:51:12Z</time>
  <course>0.0</course>
  <speed>0.0</speed>
  <fix>3d</fix>
</trkpt>
<trkpt lat="40.0713749" lon="-105.229789">
  <ele>1583.0</ele>
  <time>2026-08-28T17:51:12Z</time>
  <course>244.5</course>
  <speed>0.0</speed>
  <fix>3d</fix>
</trkpt>
<trkpt lat="40.0713749" lon="-105.229789">
  <ele>1583.0</ele>
  <time>2026-08-28T17:51:12Z</time>
  <course>0.0</course>
  <speed>0.0</speed>
  <fix>3d</fix>
</trkpt>
<trkpt lat="40.0713749" lon="-105.229789">
  <ele>1583.0</ele>
  <time>2026-08-28T17:51:12Z</time>
  <course>244.67</course>
  <speed>0.0</speed>
  <fix>3d</fix>
</trkpt>
<trkpt lat="40.0713749" lon="-105.229789">
  <ele>1583.0</ele>
  <time>2026-08-28T17:51:12Z</time>
  <course>0.0</course>
  <speed>0.0</speed>
  <fix>3d</fix>
</trkpt>
<trkpt lat="40.0713749" lon="-105.229789">
  <ele>1583.0</ele>
  <time>2026-08-28T17:51:12Z</time>
  <course>244.84</course>
  <speed>0.0</speed>
  <fix>3d</fix>
</trkpt>
<trkpt lat="40.0713749" lon="-105.229789">
  <ele>1583.0</ele>
  <time>2026-08-28T17:51:12Z</time>
  <course>0.0</course>
  <speed>0.0</speed>
  <fix>3d</fix>
</trkpt>
<trkpt lat="40.0713749" lon="-105.229789">
  <ele>1583.0</ele>
  <time>2026-08-28T17:51:12Z</time>
  <course>245.01</course>
  <speed>0.0</speed>
  <fix>3d</fix>
</trkpt>
<trkpt lat="40.0713749" lon="-105.229789">
  <ele>1583.0</ele>
  <time>2026-08-28T17:51:12Z</time>
  <course>0.0</course>
  <speed>0.0</speed>
  <fix>3d</fix>
</trkpt>
<trkpt lat="40.0713749" lon="-105.229789">
  <ele>1583.0</ele>
  <time>2026-08-28T17:51:12Z</time>
  <course>245.16</course>
  <speed>0.0</speed>
  <fix>3d</fix>
</trkpt>
<trkpt lat="40.0713749" lon="-105.229789">
  <ele>1583.0</ele>
  <time>2026-08-28T17:51:12Z</time>
  <course>0.0</course>
  <speed>0.0</speed>
  <fix>3d</fix>
</trkpt>
<trkpt lat="40.0713749" lon="-105.229789">
  <ele>1583.0</ele>
  <time>2026-08-28T17:51:12Z</time>
  <course>245.29</course>
  <speed>0.0</speed>
  <fix>3d</fix>
</trkpt>
<trkpt lat="40.0713749" lon="-105.229789">
  <ele>1583.0</ele>
  <time>2026-08-28T17:51:12Z</time>
  <course>0.0</course>
  <speed>0.0</speed>
  <fix>3d</fix>
</trkpt>
<trkpt lat="40.0713749" lon="-105.229789">
  <ele>1583.0</ele>
  <time>2026-08-28T17:51:12Z</time>
  <course>245.43</course>
  <speed>0.0</speed>
  <fix>3d</fix>
</trkpt>
<trkpt lat="40.0713749" lon="-105.229789">
  <ele>1583.0</ele>
  <time>2026-08-28T17:51:12Z</time>
  <course>0.0</course>
  <speed>0.0</speed>
  <fix>3d</fix>
</trkpt>
<trkpt lat="40.0713749" lon="-105.229789">
  <ele>1583.0</ele>
  <time>2026-08-28T17:51:12Z</time>
  <course>245.57</course>
  <speed>0.0</speed>
  <fix>3d</fix>
</trkpt>
<trkpt lat="40.0713749" lon="-105.229789">
  <ele>1583.0</ele>
  <time>2026-08-28T17:51:12Z</time>
  <course>0.0</course>
  <speed>0.0</speed>
  <fix>3d</fix>
</trkpt>
<trkpt lat="40.0713749" lon="-105.229789">
  <ele>1583.0</ele>
  <time>2026-08-28T17:51:12Z</time>
  <course>245.71</course>
  <speed>0.0</speed>
  <fix>3d</fix>
</trkpt>
<trkpt lat="40.0713749" lon="-105.229789">
  <ele>1583.0</ele>
  <time>2026-08-28T17:51:12Z</time>
  <course>0.0</course>
  <speed>0.0</speed>
  <fix>3d</fix>
</trkpt>
<trkpt lat="40.0713749" lon="-105.229789">
  <ele>1583.0</ele>
  <time>2026-08-28T17:51:12Z</time>
  <course>245.84</course>
  <speed>0.0</speed>
  <fix>3d</fix>
</trkpt>
<trkpt lat="40.0713749" lon="-105.229789">
  <ele>1583.0</ele>
  <time>2026-08-28T17:51:12Z</time>
  <course>0.0</course>
  <speed>0.0</speed>
  <fix>3d</fix>
</trkpt>
<trkpt lat="40.0713749" lon="-105.229789">
  <ele>1583.0</ele>
  <time>2026-08-28T17:51:12Z</time>
  <course>245.96</course>
  <speed>0.0</speed>
  <fix>3d</fix>
</trkpt>
<trkpt lat="40.0713749" lon="-105.229789">
  <ele>1583.0</ele>
  <time>2026-08-28T17:51:12Z</time>
  <course>0.0</course>
  <speed>0.0</speed>
  <fix>3d</fix>
</trkpt>
<trkpt lat="40.0713749" lon="-105.229789">
  <ele>1583.0</ele>
  <time>2026-08-28T17:51:12Z</time>
  <course>246.08</course>
  <speed>0.0</speed>
  <fix>3d</fix>
</trkpt>
<trkpt lat="40.0713749" lon="-105.229789">
  <ele>1583.0</ele>
  <time>2026-08-28T17:51:12Z</time>
  <course>0.0</course>
  <speed>0.0</speed>
  <fix>3d</fix>
</trkpt>
<trkpt lat="40.0713749" lon="-105.229789">
  <ele>1583.0</ele>
  <time>2026-08-28T17:51:12Z</time>
  <course>246.19</course>
  <speed>0.0</speed>
  <fix>3d</fix>
</trkpt>
<trkpt lat="40.0713749" lon="-105.229789">
  <ele>1583.0</ele>
  <time>2026-08-28T17:51:12Z</time>
  <course>0.0</course>
  <speed>0.0</speed>
  <fix>3d</fix>
</trkpt>
<trkpt lat="40.0713749" lon="-105.229789">
  <ele>1583.0</ele>
  <time>2026-08-28T17:51:12Z</time>
  <course>246.3</course>
  <speed>0.0</speed>
  <fix>3d</fix>
</trkpt>
<trkpt lat="40.0713749" lon="-105.229789">
  <ele>1583.0</ele>
  <time>2026-08-28T17:51:12Z</time>
  <course>0.0</course>
  <speed>0.0</speed>
  <fix>3d</fix>
</trkpt>
<trkpt lat="40.0713749" lon="-105.229789">
  <ele>1583.0</ele>
  <time>2026-08-28T17:51:12Z</time>
  <course>246.41</course>
  <speed>0.0</speed>
  <fix>3d</fix>
</trkpt>
<trkpt lat="40.0713749" lon="-105.229789">
  <ele>1583.0</ele>
  <time>2026-08-28T17:51:13Z</time>
  <course>0.0</course>
  <speed>0.0</speed>
  <fix>3d</fix>
</trkpt>
<trkpt lat="40.0713749" lon="-105.229789">
  <ele>1583.0</ele>
  <time>2026-08-28T17:51:13Z</time>
  <course>246.53</course>
  <speed>0.0</speed>
  <fix>3d</fix>
</trkpt>
<trkpt lat="40.0713749" lon="-105.229789">
  <ele>1583.0</ele>
  <time>2026-08-28T17:51:13Z</time>
  <course>0.0</course>
  <speed>0.0</speed>
  <fix>3d</fix>
</trkpt>
<trkpt lat="40.0713749" lon="-105.229789">
  <ele>1583.0</ele>
  <time>2026-08-28T17:51:13Z</time>
  <course>246.62</course>
  <speed>0.0</speed>
  <fix>3d</fix>
</trkpt>
<trkpt lat="40.0713749" lon="-105.229789">
  <ele>1583.0</ele>
  <time>2026-08-28T17:51:13Z</time>
  <course>0.0</course>
  <speed>0.0</speed>
  <fix>3d</fix>
</trkpt>
<trkpt lat="40.0713749" lon="-105.229789">
  <ele>1583.0</ele>
  <time>2026-08-28T17:51:13Z</time>
  <course>246.71</course>
  <speed>0.0</speed>
  <fix>3d</fix>
</trkpt>
<trkpt lat="40.0713749" lon="-105.229789">
  <ele>1583.0</ele>
  <time>2026-08-28T17:51:13Z</time>
  <course>0.0</course>
  <speed>0.0</speed>
  <fix>3d</fix>
</trkpt>
<trkpt lat="40.0713749" lon="-105.229789">
  <ele>1583.0</ele>
  <time>2026-08-28T17:51:13Z</time>
  <course>246.8</course>
  <speed>0.0</speed>
  <fix>3d</fix>
</trkpt>
<trkpt lat="40.0713749" lon="-105.229789">
  <ele>1583.0</ele>
  <time>2026-08-28T17:51:13Z</time>
  <course>0.0</course>
  <speed>0.0</speed>
  <fix>3d</fix>
</trkpt>
<trkpt lat="40.0713749" lon="-105.229789">
  <ele>1583.0</ele>
  <time>2026-08-28T17:51:13Z</time>
  <course>246.88</course>
  <speed>0.0</speed>
  <fix>3d</fix>
</trkpt>
<trkpt lat="40.0713749" lon="-105.229789">
  <ele>1583.0</ele>
  <time>2026-08-28T17:51:13Z</time>
  <course>0.0</course>
  <speed>0.0</speed>
  <fix>3d</fix>
</trkpt>
<trkpt lat="40.0713749" lon="-105.229789">
  <ele>1583.0</ele>
  <time>2026-08-28T17:51:13Z</time>
  <course>246.96</course>
  <speed>0.0</speed>
  <fix>3d</fix>
</trkpt>
<trkpt lat="40.0713749" lon="-105.229789">
  <ele>1583.0</ele>
  <time>2026-08-28T17:51:13Z</time>
  <course>0.0</course>
  <speed>0.0</speed>
  <fix>3d</fix>
</trkpt>
<trkpt lat="40.0713749" lon="-105.229789">
  <ele>1583.0</ele>
  <time>2026-08-28T17:51:13Z</time>
  <course>247.04</course>
  <speed>0.0</speed>
  <fix>3d</fix>
</trkpt>
<trkpt lat="40.0713749" lon="-105.229789">
  <ele>1583.0</ele>
  <time>2026-08-28T17:51:13Z</time>
  <course>0.0</course>
  <speed>0.0</speed>
  <fix>3d</fix>
</trkpt>
<trkpt lat="40.0713749" lon="-105.229789">
  <ele>1583.0</ele>
  <time>2026-08-28T17:51:13Z</time>
  <course>247.11</course>
  <speed>0.0</speed>
  <fix>3d</fix>
</trkpt>
<trkpt lat="40.0713749" lon="-105.229789">
  <ele>1583.0</ele>
  <time>2026-08-28T17:51:13Z</time>
  <course>0.0</course>
  <speed>0.0</speed>
  <fix>3d</fix>
</trkpt>
<trkpt lat="40.0713749" lon="-105.229789">
  <ele>1583.0</ele>
  <time>2026-08-28T17:51:13Z</time>
  <course>247.18</course>
  <speed>0.0</speed>
  <fix>3d</fix>
</trkpt>
<trkpt lat="40.0713749" lon="-105.229789">
  <ele>1583.0</ele>
  <time>2026-08-28T17:51:13Z</time>
  <course>0.0</course>
  <speed>0.0</speed>
  <fix>3d</fix>
</trkpt>
<trkpt lat="40.0713749" lon="-105.229789">
  <ele>1583.0</ele>
  <time>2026-08-28T17:51:13Z</time>
  <course>247.25</course>
  <speed>0.0</speed>
  <fix>3d</fix>
</trkpt>
<trkpt lat="40.0713749" lon="-105.229789">
  <ele>1583.0</ele>
  <time>2026-08-28T17:51:13Z</time>
  <course>0.0</course>
  <speed>0.0</speed>
  <fix>3d</fix>
</trkpt>
<trkpt lat="40.0713749" lon="-105.229789">
  <ele>1583.0</ele>
  <time>2026-08-28T17:51:13Z</time>
  <course>247.31</course>
  <speed>0.0</speed>
  <fix>3d</fix>
</trkpt>
<trkpt lat="40.0713749" lon="-105.229789">
  <ele>1583.0</ele>
  <time>2026-08-28T17:51:13Z</time>
  <course>0.0</course>
  <speed>0.0</speed>
  <fix>3d</fix>
</trkpt>
<trkpt lat="40.0713749" lon="-105.229789">
  <ele>1583.0</ele>
  <time>2026-08-28T17:51:13Z</time>
  <course>247.36</course>
  <speed>0.0</speed>
  <fix>3d</fix>
</trkpt>
<trkpt lat="40.0713749" lon="-105.229789">
  <ele>1583.0</ele>
  <time>2026-08-28T17:51:13Z</time>
  <course>0.0</course>
  <speed>0.0</speed>
  <fix>3d</fix>
</trkpt>
<trkpt lat="40.0713749" lon="-105.229789">
  <ele>1583.0</ele>
  <time>2026-08-28T17:51:13Z</time>
  <course>247.42</course>
  <speed>0.0</speed>
  <fix>3d</fix>
</trkpt>
<trkpt lat="40.0713749" lon="-105.229789">
  <ele>1583.0</ele>
  <time>2026-08-28T17:51:13Z</time>
  <course>0.0</course>
  <speed>0.0</speed>
  <fix>3d</fix>
</trkpt>
<trkpt lat="40.0713749" lon="-105.229789">
  <ele>1583.0</ele>
  <time>2026-08-28T17:51:13Z</time>
  <course>247.47</course>
  <speed>0.0</speed>
  <fix>3d</fix>
</trkpt>
<trkpt lat="40.0713749" lon="-105.229789">
  <ele>1583.0</ele>
  <time>2026-08-28T17:51:13Z</time>
  <course>0.0</course>
  <speed>0.0</speed>
  <fix>3d</fix>
</trkpt>
<trkpt lat="40.0713749" lon="-105.229789">
  <ele>1583.0</ele>
  <time>2026-08-28T17:51:13Z</time>
  <course>247.53</course>
  <speed>0.0</speed>
  <fix>3d</fix>
</trkpt>
<trkpt lat="40.0713749" lon="-105.229789">
  <ele>1583.0</ele>
  <time>2026-08-28T17:51:13Z</time>
  <course>0.0</course>
  <speed>0.0</speed>
  <fix>3d</fix>
</trkpt>
<trkpt lat="40.0713749" lon="-105.229789">
  <ele>1583.0</ele>
  <time>2026-08-28T17:51:13Z</time>
  <course>247.58</course>
  <speed>0.0</speed>
  <fix>3d</fix>
</trkpt>
<trkpt lat="40.0713749" lon="-105.229789">
  <ele>1583.0</ele>
  <time>2026-08-28T17:51:13Z</time>
  <course>0.0</course>
  <speed>0.0</speed>
  <fix>3d</fix>
</trkpt>
<trkpt lat="40.0713749" lon="-105.229789">
  <ele>1583.0</ele>
  <time>2026-08-28T17:51:13Z</time>
  <course>247.63</course>
  <speed>0.0</speed>
  <fix>3d</fix>
</trkpt>
<trkpt lat="40.0713749" lon="-105.229789">
  <ele>1583.0</ele>
  <time>2026-08-28T17:51:13Z</time>
  <course>0.0</course>
  <speed>0.0</speed>
  <fix>3d</fix>
</trkpt>
<trkpt lat="40.0713749" lon="-105.229789">
  <ele>1583.0</ele>
  <time>2026-08-28T17:51:13Z</time>
  <course>247.67</course>
  <speed>0.0</speed>
  <fix>3d</fix>
</trkpt>
<trkpt lat="40.0713749" lon="-105.229789">
  <ele>1583.0</ele>
  <time>2026-08-28T17:51:13Z</time>
  <course>0.0</course>
  <speed>0.0</speed>
  <fix>3d</fix>
</trkpt>
<trkpt lat="40.0713749" lon="-105.229789">
  <ele>1583.0</ele>
  <time>2026-08-28T17:51:13Z</time>
  <course>247.72</course>
  <speed>0.0</speed>
  <fix>3d</fix>
</trkpt>
<trkpt lat="40.0713749" lon="-105.229789">
  <ele>1583.0</ele>
  <time>2026-08-28T17:51:13Z</time>
  <course>0.0</course>
  <speed>0.0</speed>
  <fix>3d</fix>
</trkpt>
<trkpt lat="40.0713749" lon="-105.229789">
  <ele>1583.0</ele>
  <time>2026-08-28T17:51:13Z</time>
  <course>247.76</course>
  <speed>0.0</speed>
  <fix>3d</fix>
</trkpt>
<trkpt lat="40.0713749" lon="-105.229789">
  <ele>1583.0</ele>
  <time>2026-08-28T17:51:13Z</time>
  <course>0.0</course>
  <speed>0.0</speed>
  <fix>3d</fix>
</trkpt>
<trkpt lat="40.0713749" lon="-105.229789">
  <ele>1583.0</ele>
  <time>2026-08-28T17:51:13Z</time>
  <course>247.81</course>
  <speed>0.0</speed>
  <fix>3d</fix>
</trkpt>
<trkpt lat="40.0713749" lon="-105.229789">
  <ele>1583.0</ele>
  <time>2026-08-28T17:51:13Z</time>
  <course>0.0</course>
  <speed>0.0</speed>
  <fix>3d</fix>
</trkpt>
<trkpt lat="40.0713749" lon="-105.229789">
  <ele>1583.0</ele>
  <time>2026-08-28T17:51:13Z</time>
  <course>247.84</course>
  <speed>0.0</speed>
  <fix>3d</fix>
</trkpt>
<trkpt lat="40.0713749" lon="-105.229789">
  <ele>1583.0</ele>
  <time>2026-08-28T17:51:13Z</time>
  <course>0.0</course>
  <speed>0.0</speed>
  <fix>3d</fix>
</trkpt>
<trkpt lat="40.0713749" lon="-105.229789">
  <ele>1583.0</ele>
  <time>2026-08-28T17:51:13Z</time>
  <course>247.88</course>
  <speed>0.0</speed>
  <fix>3d</fix>
</trkpt>
<trkpt lat="40.0713749" lon="-105.229789">
  <ele>1583.0</ele>
  <time>2026-08-28T17:51:13Z</time>
  <course>0.0</course>
  <speed>0.0</speed>
  <fix>3d</fix>
</trkpt>
<trkpt lat="40.0713749" lon="-105.229789">
  <ele>1583.0</ele>
  <time>2026-08-28T17:51:13Z</time>
  <course>247.91</course>
  <speed>0.0</speed>
  <fix>3d</fix>
</trkpt>
<trkpt lat="40.0713749" lon="-105.229789">
  <ele>1583.0</ele>
  <time>2026-08-28T17:51:13Z</time>
  <course>0.0</course>
  <speed>0.0</speed>
  <fix>3d</fix>
</trkpt>
<trkpt lat="40.0713749" lon="-105.229789">
  <ele>1583.0</ele>
  <time>2026-08-28T17:51:13Z</time>
  <course>247.94</course>
  <speed>0.0</speed>
  <fix>3d</fix>
</trkpt>
<trkpt lat="40.0713749" lon="-105.229789">
  <ele>1583.0</ele>
  <time>2026-08-28T17:51:13Z</time>
  <course>0.0</course>
  <speed>0.0</speed>
  <fix>3d</fix>
</trkpt>
<trkpt lat="40.0713749" lon="-105.229789">
  <ele>1583.0</ele>
  <time>2026-08-28T17:51:13Z</time>
  <course>247.97</course>
  <speed>0.0</speed>
  <fix>3d</fix>
</trkpt>
<trkpt lat="40.0713749" lon="-105.229789">
  <ele>1583.0</ele>
  <time>2026-08-28T17:51:13Z</time>
  <course>0.0</course>
  <speed>0.0</speed>
  <fix>3d</fix>
</trkpt>
<trkpt lat="40.0713749" lon="-105.229789">
  <ele>1583.0</ele>
  <time>2026-08-28T17:51:13Z</time>
  <course>248.0</course>
  <speed>0.0</speed>
  <fix>3d</fix>
</trkpt>
<trkpt lat="40.0713749" lon="-105.229789">
  <ele>1583.0</ele>
  <time>2026-08-28T17:51:13Z</time>
  <course>0.0</course>
  <speed>0.0</speed>
  <fix>3d</fix>
</trkpt>
<trkpt lat="40.0713749" lon="-105.229789">
  <ele>1583.0</ele>
  <time>2026-08-28T17:51:13Z</time>
  <course>248.03</course>
  <speed>0.0</speed>
  <fix>3d</fix>
</trkpt>
<trkpt lat="40.0713749" lon="-105.229789">
  <ele>1583.0</ele>
  <time>2026-08-28T17:51:13Z</time>
  <course>0.0</course>
  <speed>0.0</speed>
  <fix>3d</fix>
</trkpt>
<trkpt lat="40.0713749" lon="-105.229789">
  <ele>1583.0</ele>
  <time>2026-08-28T17:51:13Z</time>
  <course>248.06</course>
  <speed>0.0</speed>
  <fix>3d</fix>
</trkpt>
<trkpt lat="40.0713749" lon="-105.229789">
  <ele>1583.0</ele>
  <time>2026-08-28T17:51:13Z</time>
  <course>0.0</course>
  <speed>0.0</speed>
  <fix>3d</fix>
</trkpt>
<trkpt lat="40.0713749" lon="-105.229789">
  <ele>1583.0</ele>
  <time>2026-08-28T17:51:13Z</time>
  <course>248.08</course>
  <speed>0.0</speed>
  <fix>3d</fix>
</trkpt>
<trkpt lat="40.0713749" lon="-105.229789">
  <ele>1583.0</ele>
  <time>2026-08-28T17:51:13Z</time>
  <course>0.0</course>
  <speed>0.0</speed>
  <fix>3d</fix>
</trkpt>
<trkpt lat="40.0713749" lon="-105.229789">
  <ele>1583.0</ele>
  <time>2026-08-28T17:51:13Z</time>
  <course>248.11</course>
  <speed>0.0</speed>
  <fix>3d</fix>
</trkpt>
<trkpt lat="40.0713749" lon="-105.229789">
  <ele>1583.0</ele>
  <time>2026-08-28T17:51:13Z</time>
  <course>0.0</course>
  <speed>0.0</speed>
  <fix>3d</fix>
</trkpt>
<trkpt lat="40.0713749" lon="-105.229789">
  <ele>1583.0</ele>
  <time>2026-08-28T17:51:13Z</time>
  <course>248.12</course>
  <speed>0.0</speed>
  <fix>3d</fix>
</trkpt>
<trkpt lat="40.0713749" lon="-105.229789">
  <ele>1583.0</ele>
  <time>2026-08-28T17:51:13Z</time>
  <course>0.0</course>
  <speed>0.0</speed>
  <fix>3d</fix>
</trkpt>
<trkpt lat="40.0713749" lon="-105.229789">
  <ele>1583.0</ele>
  <time>2026-08-28T17:51:13Z</time>
  <course>248.14</course>
  <speed>0.0</speed>
  <fix>3d</fix>
</trkpt>
<trkpt lat="40.0713749" lon="-105.229789">
  <ele>1583.0</ele>
  <time>2026-08-28T17:51:13Z</time>
  <course>0.0</course>
  <speed>0.0</speed>
  <fix>3d</fix>
</trkpt>
<trkpt lat="40.0713749" lon="-105.229789">
  <ele>1583.0</ele>
  <time>2026-08-28T17:51:13Z</time>
  <course>248.16</course>
  <speed>0.0</speed>
  <fix>3d</fix>
</trkpt>
<trkpt lat="40.0713749" lon="-105.229789">
  <ele>1583.0</ele>
  <time>2026-08-28T17:51:13Z</time>
  <course>0.0</course>
  <speed>0.0</speed>
  <fix>3d</fix>
</trkpt>
<trkpt lat="40.0713749" lon="-105.229789">
  <ele>1583.0</ele>
  <time>2026-08-28T17:51:13Z</time>
  <course>248.18</course>
  <speed>0.0</speed>
  <fix>3d</fix>
</trkpt>
<trkpt lat="40.0713749" lon="-105.229789">
  <ele>1583.0</ele>
  <time>2026-08-28T17:51:13Z</time>
  <course>0.0</course>
  <speed>0.0</speed>
  <fix>3d</fix>
</trkpt>
<trkpt lat="40.0713749" lon="-105.229789">
  <ele>1583.0</ele>
  <time>2026-08-28T17:51:13Z</time>
  <course>248.2</course>
  <speed>0.0</speed>
  <fix>3d</fix>
</trkpt>
<trkpt lat="40.0713749" lon="-105.229789">
  <ele>1583.0</ele>
  <time>2026-08-28T17:51:13Z</time>
  <course>0.0</course>
  <speed>0.0</speed>
  <fix>3d</fix>
</trkpt>
<trkpt lat="40.0713749" lon="-105.229789">
  <ele>1583.0</ele>
  <time>2026-08-28T17:51:13Z</time>
  <course>248.22</course>
  <speed>0.0</speed>
  <fix>3d</fix>
</trkpt>
<trkpt lat="40.0713749" lon="-105.229789">
  <ele>1583.0</ele>
  <time>2026-08-28T17:51:13Z</time>
  <course>0.0</course>
  <speed>0.0</speed>
  <fix>3d</fix>
</trkpt>
<trkpt lat="40.0713749" lon="-105.229789">
  <ele>1583.0</ele>
  <time>2026-08-28T17:51:13Z</time>
  <course>248.23</course>
  <speed>0.0</speed>
  <fix>3d</fix>
</trkpt>
<trkpt lat="40.0713749" lon="-105.229789">
  <ele>1583.0</ele>
  <time>2026-08-28T17:51:13Z</time>
  <course>0.0</course>
  <speed>0.0</speed>
  <fix>3d</fix>
</trkpt>
<trkpt lat="40.0713749" lon="-105.229789">
  <ele>1583.0</ele>
  <time>2026-08-28T17:51:13Z</time>
  <course>248.25</course>
  <speed>0.0</speed>
  <fix>3d</fix>
</trkpt>
<trkpt lat="40.0713749" lon="-105.229789">
  <ele>1583.0</ele>
  <time>2026-08-28T17:51:13Z</time>
  <course>0.0</course>
  <speed>0.0</speed>
  <fix>3d</fix>
</trkpt>
<trkpt lat="40.0713749" lon="-105.229789">
  <ele>1583.0</ele>
  <time>2026-08-28T17:51:13Z</time>
  <course>248.26</course>
  <speed>0.0</speed>
  <fix>3d</fix>
</trkpt>
<trkpt lat="40.0713749" lon="-105.229789">
  <ele>1583.0</ele>
  <time>2026-08-28T17:51:13Z</time>
  <course>0.0</course>
  <speed>0.0</speed>
  <fix>3d</fix>
</trkpt>
<trkpt lat="40.0713749" lon="-105.229789">
  <ele>1583.0</ele>
  <time>2026-08-28T17:51:13Z</time>
  <course>248.28</course>
  <speed>0.0</speed>
  <fix>3d</fix>
</trkpt>
<trkpt lat="40.0713749" lon="-105.229789">
  <ele>1583.0</ele>
  <time>2026-08-28T17:51:13Z</time>
  <course>0.0</course>
  <speed>0.0</speed>
  <fix>3d</fix>
</trkpt>
<trkpt lat="40.0713749" lon="-105.229789">
  <ele>1583.0</ele>
  <time>2026-08-28T17:51:13Z</time>
  <course>248.29</course>
  <speed>0.0</speed>
  <fix>3d</fix>
</trkpt>
<trkpt lat="40.0713749" lon="-105.229789">
  <ele>1583.0</ele>
  <time>2026-08-28T17:51:13Z</time>
  <course>0.0</course>
  <speed>0.0</speed>
  <fix>3d</fix>
</trkpt>
<trkpt lat="40.0713749" lon="-105.229789">
  <ele>1583.0</ele>
  <time>2026-08-28T17:51:13Z</time>
  <course>248.3</course>
  <speed>0.0</speed>
  <fix>3d</fix>
</trkpt>
<trkpt lat="40.0713749" lon="-105.229789">
  <ele>1583.0</ele>
  <time>2026-08-28T17:51:13Z</time>
  <course>0.0</course>
  <speed>0.0</speed>
  <fix>3d</fix>
</trkpt>
<trkpt lat="40.0713749" lon="-105.229789">
  <ele>1583.0</ele>
  <time>2026-08-28T17:51:13Z</time>
  <course>248.31</course>
  <speed>0.0</speed>
  <fix>3d</fix>
</trkpt>
<trkpt lat="40.0713749" lon="-105.229789">
  <ele>1583.0</ele>
  <time>2026-08-28T17:51:13Z</time>
  <course>0.0</course>
  <speed>0.0</speed>
  <fix>3d</fix>
</trkpt>
<trkpt lat="40.0713749" lon="-105.229789">
  <ele>1583.0</ele>
  <time>2026-08-28T17:51:13Z</time>
  <course>248.32</course>
  <speed>0.0</speed>
  <fix>3d</fix>
</trkpt>
<trkpt lat="40.0713749" lon="-105.229789">
  <ele>1583.0</ele>
  <time>2026-08-28T17:51:13Z</time>
  <course>0.0</course>
  <speed>0.0</speed>
  <fix>3d</fix>
</trkpt>
<trkpt lat="40.0713749" lon="-105.229789">
  <ele>1583.0</ele>
  <time>2026-08-28T17:51:13Z</time>
  <course>248.33</course>
  <speed>0.0</speed>
  <fix>3d</fix>
</trkpt>
<trkpt lat="40.0713749" lon="-105.229789">
  <ele>1583.0</ele>
  <time>2026-08-28T17:51:13Z</time>
  <course>0.0</course>
  <speed>0.0</speed>
  <fix>3d</fix>
</trkpt>
<trkpt lat="40.0713749" lon="-105.229789">
  <ele>1583.0</ele>
  <time>2026-08-28T17:51:13Z</time>
  <course>248.34</course>
  <speed>0.0</speed>
  <fix>3d</fix>
</trkpt>
<trkpt lat="40.0713749" lon="-105.229789">
  <ele>1583.0</ele>
  <time>2026-08-28T17:51:13Z</time>
  <course>0.0</course>
  <speed>0.0</speed>
  <fix>3d</fix>
</trkpt>
<trkpt lat="40.0713749" lon="-105.229789">
  <ele>1583.0</ele>
  <time>2026-08-28T17:51:13Z</time>
  <course>248.35</course>
  <speed>0.0</speed>
  <fix>3d</fix>
</trkpt>
<trkpt lat="40.0713749" lon="-105.229789">
  <ele>1583.0</ele>
  <time>2026-08-28T17:51:13Z</time>
  <course>0.0</course>
  <speed>0.0</speed>
  <fix>3d</fix>
</trkpt>
<trkpt lat="40.0713749" lon="-105.229789">
  <ele>1583.0</ele>
  <time>2026-08-28T17:51:13Z</time>
  <course>248.36</course>
  <speed>0.0</speed>
  <fix>3d</fix>
</trkpt>
<trkpt lat="40.0713749" lon="-105.229789">
  <ele>1583.0</ele>
  <time>2026-08-28T17:51:13Z</time>
  <course>0.0</course>
  <speed>0.0</speed>
  <fix>3d</fix>
</trkpt>
<trkpt lat="40.0713749" lon="-105.229789">
  <ele>1583.0</ele>
  <time>2026-08-28T17:51:13Z</time>
  <course>248.36</course>
  <speed>0.0</speed>
  <fix>3d</fix>
</trkpt>
<trkpt lat="40.0713749" lon="-105.229789">
  <ele>1583.0</ele>
  <time>2026-08-28T17:51:13Z</time>
  <course>0.0</course>
  <speed>0.0</speed>
  <fix>3d</fix>
</trkpt>
<trkpt lat="40.0713749" lon="-105.229789">
  <ele>1583.0</ele>
  <time>2026-08-28T17:51:13Z</time>
  <course>248.37</course>
  <speed>0.0</speed>
  <fix>3d</fix>
</trkpt>
<trkpt lat="40.0713749" lon="-105.229789">
  <ele>1583.0</ele>
  <time>2026-08-28T17:51:13Z</time>
  <course>0.0</course>
  <speed>0.0</speed>
  <fix>3d</fix>
</trkpt>
<trkpt lat="40.0713749" lon="-105.229789">
  <ele>1583.0</ele>
  <time>2026-08-28T17:51:13Z</time>
  <course>248.38</course>
  <speed>0.0</speed>
  <fix>3d</fix>
</trkpt>
<trkpt lat="40.0713749" lon="-105.229789">
  <ele>1583.0</ele>
  <time>2026-08-28T17:51:13Z</time>
  <course>0.0</course>
  <speed>0.0</speed>
  <fix>3d</fix>
</trkpt>
<trkpt lat="40.0713749" lon="-105.229789">
  <ele>1583.0</ele>
  <time>2026-08-28T17:51:13Z</time>
  <course>248.38</course>
  <speed>0.0</speed>
  <fix>3d</fix>
</trkpt>
<trkpt lat="40.0713749" lon="-105.229789">
  <ele>1583.0</ele>
  <time>2026-08-28T17:51:13Z</time>
  <course>0.0</course>
  <speed>0.0</speed>
  <fix>3d</fix>
</trkpt>
<trkpt lat="40.0713749" lon="-105.229789">
  <ele>1583.0</ele>
  <time>2026-08-28T17:51:13Z</time>
  <course>248.38</course>
  <speed>0.0</speed>
  <fix>3d</fix>
</trkpt>
<trkpt lat="40.0713749" lon="-105.229789">
  <ele>1583.0</ele>
  <time>2026-08-28T17:51:13Z</time>
  <course>0.0</course>
  <speed>0.0</speed>
  <fix>3d</fix>
</trkpt>
<trkpt lat="40.0713749" lon="-105.229789">
  <ele>1583.0</ele>
  <time>2026-08-28T17:51:13Z</time>
  <course>248.39</course>
  <speed>0.0</speed>
  <fix>3d</fix>
</trkpt>
<trkpt lat="40.0713749" lon="-105.229789">
  <ele>1583.0</ele>
  <time>2026-08-28T17:51:13Z</time>
  <course>0.0</course>
  <speed>0.0</speed>
  <fix>3d</fix>
</trkpt>
<trkpt lat="40.0713749" lon="-105.229789">
  <ele>1583.0</ele>
  <time>2026-08-28T17:51:13Z</time>
  <course>248.39</course>
  <speed>0.0</speed>
  <fix>3d</fix>
</trkpt>
<trkpt lat="40.0713749" lon="-105.229789">
  <ele>1583.0</ele>
  <time>2026-08-28T17:51:13Z</time>
  <course>0.0</course>
  <speed>0.0</speed>
  <fix>3d</fix>
</trkpt>
<trkpt lat="40.0713749" lon="-105.229789">
  <ele>1583.0</ele>
  <time>2026-08-28T17:51:13Z</time>
  <course>248.4</course>
  <speed>0.0</speed>
  <fix>3d</fix>
</trkpt>
<trkpt lat="40.0713749" lon="-105.229789">
  <ele>1583.0</ele>
  <time>2026-08-28T17:51:13Z</time>
  <course>0.0</course>
  <speed>0.0</speed>
  <fix>3d</fix>
</trkpt>
<trkpt lat="40.0713749" lon="-105.229789">
  <ele>1583.0</ele>
  <time>2026-08-28T17:51:13Z</time>
  <course>248.4</course>
  <speed>0.0</speed>
  <fix>3d</fix>
</trkpt>
<trkpt lat="40.0713749" lon="-105.229789">
  <ele>1583.0</ele>
  <time>2026-08-28T17:51:13Z</time>
  <course>0.0</course>
  <speed>0.0</speed>
  <fix>3d</fix>
</trkpt>
<trkpt lat="40.0713749" lon="-105.229789">
  <ele>1583.0</ele>
  <time>2026-08-28T17:51:13Z</time>
  <course>248.4</course>
  <speed>0.0</speed>
  <fix>3d</fix>
</trkpt>
<trkpt lat="40.0713749" lon="-105.229789">
  <ele>1583.0</ele>
  <time>2026-08-28T17:51:13Z</time>
  <course>0.0</course>
  <speed>0.0</speed>
  <fix>3d</fix>
</trkpt>
<trkpt lat="40.0713749" lon="-105.229789">
  <ele>1583.0</ele>
  <time>2026-08-28T17:51:13Z</time>
  <course>248.4</course>
  <speed>0.0</speed>
  <fix>3d</fix>
</trkpt>
<trkpt lat="40.0713749" lon="-105.229789">
  <ele>1583.0</ele>
  <time>2026-08-28T17:51:13Z</time>
  <course>0.0</course>
  <speed>0.0</speed>
  <fix>3d</fix>
</trkpt>
<trkpt lat="40.0713749" lon="-105.229789">
  <ele>1583.0</ele>
  <time>2026-08-28T17:51:13Z</time>
  <course>248.41</course>
  <speed>0.0</speed>
  <fix>3d</fix>
</trkpt>
<trkpt lat="40.0713749" lon="-105.229789">
  <ele>1583.0</ele>
  <time>2026-08-28T17:51:13Z</time>
  <course>0.0</course>
  <speed>0.0</speed>
  <fix>3d</fix>
</trkpt>
<trkpt lat="40.0713749" lon="-105.229789">
  <ele>1583.0</ele>
  <time>2026-08-28T17:51:13Z</time>
  <course>248.41</course>
  <speed>0.0</speed>
  <fix>3d</fix>
</trkpt>
<trkpt lat="40.0713749" lon="-105.229789">
  <ele>1583.0</ele>
  <time>2026-08-28T17:51:13Z</time>
  <course>0.0</course>
  <speed>0.0</speed>
  <fix>3d</fix>
</trkpt>
<trkpt lat="40.0713749" lon="-105.229789">
  <ele>1583.0</ele>
  <time>2026-08-28T17:51:13Z</time>
  <course>248.41</course>
  <speed>0.0</speed>
  <fix>3d</fix>
</trkpt>
<trkpt lat="40.0713749" lon="-105.229789">
  <ele>1583.0</ele>
  <time>2026-08-28T17:51:13Z</time>
  <course>0.0</course>
  <speed>0.0</speed>
  <fix>3d</fix>
</trkpt>
<trkpt lat="40.0713749" lon="-105.229789">
  <ele>1583.0</ele>
  <time>2026-08-28T17:51:13Z</time>
  <course>248.41</course>
  <speed>0.0</speed>
  <fix>3d</fix>
</trkpt>
<trkpt lat="40.0713749" lon="-105.229789">
  <ele>1583.0</ele>
  <time>2026-08-28T17:51:13Z</time>
  <course>0.0</course>
  <speed>0.0</speed>
  <fix>3d</fix>
</trkpt>
<trkpt lat="40.0713749" lon="-105.229789">
  <ele>1583.0</ele>
  <time>2026-08-28T17:51:13Z</time>
  <course>248.41</course>
  <speed>0.0</speed>
  <fix>3d</fix>
</trkpt>
<trkpt lat="40.0713749" lon="-105.229789">
  <ele>1583.0</ele>
  <time>2026-08-28T17:51:13Z</time>
  <course>0.0</course>
  <speed>0.0</speed>
  <fix>3d</fix>
</trkpt>
<trkpt lat="40.0713749" lon="-105.229789">
  <ele>1583.0</ele>
  <time>2026-08-28T17:51:13Z</time>
  <course>248.41</course>
  <speed>0.0</speed>
  <fix>3d</fix>
</trkpt>
<trkpt lat="40.0713749" lon="-105.229789">
  <ele>1583.0</ele>
  <time>2026-08-28T17:51:13Z</time>
  <course>0.0</course>
  <speed>0.0</speed>
  <fix>3d</fix>
</trkpt>
<trkpt lat="40.0713749" lon="-105.229789">
  <ele>1583.0</ele>
  <time>2026-08-28T17:51:13Z</time>
  <course>248.41</course>
  <speed>0.0</speed>
  <fix>3d</fix>
</trkpt>
<trkpt lat="40.0713749" lon="-105.229789">
  <ele>1583.0</ele>
  <time>2026-08-28T17:51:13Z</time>
  <course>0.0</course>
  <speed>0.0</speed>
  <fix>3d</fix>
</trkpt>
<trkpt lat="40.0713749" lon="-105.229789">
  <ele>1583.0</ele>
  <time>2026-08-28T17:51:13Z</time>
  <course>248.41</course>
  <speed>0.0</speed>
  <fix>3d</fix>
</trkpt>
<trkpt lat="40.0713749" lon="-105.229789">
  <ele>1583.0</ele>
  <time>2026-08-28T17:51:13Z</time>
  <course>0.0</course>
  <speed>0.0</speed>
  <fix>3d</fix>
</trkpt>
<trkpt lat="40.0713749" lon="-105.229789">
  <ele>1583.0</ele>
  <time>2026-08-28T17:51:13Z</time>
  <course>248.41</course>
  <speed>0.0</speed>
  <fix>3d</fix>
</trkpt>
<trkpt lat="40.0713749" lon="-105.229789">
  <ele>1583.0</ele>
  <time>2026-08-28T17:51:13Z</time>
  <course>0.0</course>
  <speed>0.0</speed>
  <fix>3d</fix>
</trkpt>
<trkpt lat="40.0713749" lon="-105.229789">
  <ele>1583.0</ele>
  <time>2026-08-28T17:51:13Z</time>
  <course>248.41</course>
  <speed>0.0</speed>
  <fix>3d</fix>
</trkpt>
<trkpt lat="40.0713749" lon="-105.229789">
  <ele>1583.0</ele>
  <time>2026-08-28T17:51:13Z</time>
  <course>0.0</course>
  <speed>0.0</speed>
  <fix>3d</fix>
</trkpt>
<trkpt lat="40.0713749" lon="-105.229789">
  <ele>1583.0</ele>
  <time>2026-08-28T17:51:13Z</time>
  <course>248.41</course>
  <speed>0.0</speed>
  <fix>3d</fix>
</trkpt>
<trkpt lat="40.0713749" lon="-105.229789">
  <ele>1583.0</ele>
  <time>2026-08-28T17:51:13Z</time>
  <course>0.0</course>
  <speed>0.0</speed>
  <fix>3d</fix>
</trkpt>
<trkpt lat="40.0713749" lon="-105.229789">
  <ele>1583.0</ele>
  <time>2026-08-28T17:51:13Z</time>
  <course>248.41</course>
  <speed>0.0</speed>
  <fix>3d</fix>
</trkpt>
<trkpt lat="40.0713749" lon="-105.229789">
  <ele>1583.0</ele>
  <time>2026-08-28T17:51:13Z</time>
  <course>0.0</course>
  <speed>0.0</speed>
  <fix>3d</fix>
</trkpt>
<trkpt lat="40.0713749" lon="-105.229789">
  <ele>1583.0</ele>
  <time>2026-08-28T17:51:13Z</time>
  <course>248.41</course>
  <speed>0.0</speed>
  <fix>3d</fix>
</trkpt>
<trkpt lat="40.0713749" lon="-105.229789">
  <ele>1583.0</ele>
  <time>2026-08-28T17:51:13Z</time>
  <course>0.0</course>
  <speed>0.0</speed>
  <fix>3d</fix>
</trkpt>
<trkpt lat="40.0713749" lon="-105.229789">
  <ele>1583.0</ele>
  <time>2026-08-28T17:51:13Z</time>
  <course>248.41</course>
  <speed>0.0</speed>
  <fix>3d</fix>
</trkpt>
<trkpt lat="40.0713749" lon="-105.229789">
  <ele>1583.0</ele>
  <time>2026-08-28T17:51:13Z</time>
  <course>0.0</course>
  <speed>0.0</speed>
  <fix>3d</fix>
</trkpt>
<trkpt lat="40.0713749" lon="-105.229789">
  <ele>1583.0</ele>
  <time>2026-08-28T17:51:13Z</time>
  <course>248.41</course>
  <speed>0.0</speed>
  <fix>3d</fix>
</trkpt>
<trkpt lat="40.0713749" lon="-105.229789">
  <ele>1583.0</ele>
  <time>2026-08-28T17:51:13Z</time>
  <course>0.0</course>
  <speed>0.0</speed>
  <fix>3d</fix>
</trkpt>
<trkpt lat="40.0713749" lon="-105.229789">
  <ele>1583.0</ele>
  <time>2026-08-28T17:51:13Z</time>
  <course>248.41</course>
  <speed>0.0</speed>
  <fix>3d</fix>
</trkpt>
<trkpt lat="40.0713749" lon="-105.229789">
  <ele>1583.0</ele>
  <time>2026-08-28T17:51:13Z</time>
  <course>0.0</course>
  <speed>0.0</speed>
  <fix>3d</fix>
</trkpt>
<trkpt lat="40.0713749" lon="-105.229789">
  <ele>1583.0</ele>
  <time>2026-08-28T17:51:13Z</time>
  <course>248.4</course>
  <speed>0.0</speed>
  <fix>3d</fix>
</trkpt>
<trkpt lat="40.0713749" lon="-105.229789">
  <ele>1583.0</ele>
  <time>2026-08-28T17:51:13Z</time>
  <course>0.0</course>
  <speed>0.0</speed>
  <fix>3d</fix>
</trkpt>
<trkpt lat="40.0713749" lon="-105.229789">
  <ele>1583.0</ele>
  <time>2026-08-28T17:51:13Z</time>
  <course>248.4</course>
  <speed>0.01</speed>
  <fix>3d</fix>
</trkpt>
<trkpt lat="40.0713749" lon="-105.229789">
  <ele>1583.0</ele>
  <time>2026-08-28T17:51:13Z</time>
  <course>0.0</course>
  <speed>0.0</speed>
  <fix>3d</fix>
</trkpt>
<trkpt lat="40.0713749" lon="-105.229789">
  <ele>1583.0</ele>
  <time>2026-08-28T17:51:13Z</time>
  <course>248.4</course>
  <speed>0.01</speed>
  <fix>3d</fix>
</trkpt>
<trkpt lat="40.0713749" lon="-105.229789">
  <ele>1583.0</ele>
  <time>2026-08-28T17:51:13Z</time>
  <course>0.0</course>
  <speed>0.0</speed>
  <fix>3d</fix>
</trkpt>
<trkpt lat="40.0713749" lon="-105.229789">
  <ele>1583.0</ele>
  <time>2026-08-28T17:51:13Z</time>
  <course>248.4</course>
  <speed>0.01</speed>
  <fix>3d</fix>
</trkpt>
<trkpt lat="40.0713749" lon="-105.229789">
  <ele>1583.0</ele>
  <time>2026-08-28T17:51:13Z</time>
  <course>0.0</course>
  <speed>0.0</speed>
  <fix>3d</fix>
</trkpt>
<trkpt lat="40.0713749" lon="-105.229789">
  <ele>1583.0</ele>
  <time>2026-08-28T17:51:13Z</time>
  <course>248.4</course>
  <speed>0.01</speed>
  <fix>3d</fix>
</trkpt>
<trkpt lat="40.0713749" lon="-105.229789">
  <ele>1583.0</ele>
  <time>2026-08-28T17:51:13Z</time>
  <course>0.0</course>
  <speed>0.0</speed>
  <fix>3d</fix>
</trkpt>
<trkpt lat="40.0713749" lon="-105.229789">
  <ele>1583.0</ele>
  <time>2026-08-28T17:51:13Z</time>
  <course>248.39</course>
  <speed>0.01</speed>
  <fix>3d</fix>
</trkpt>
<trkpt lat="40.0713749" lon="-105.229789">
  <ele>1583.0</ele>
  <time>2026-08-28T17:51:13Z</time>
  <course>0.0</course>
  <speed>0.0</speed>
  <fix>3d</fix>
</trkpt>
<trkpt lat="40.0713749" lon="-105.229789">
  <ele>1583.0</ele>
  <time>2026-08-28T17:51:13Z</time>
  <course>248.39</course>
  <speed>0.01</speed>
  <fix>3d</fix>
</trkpt>
<trkpt lat="40.0713749" lon="-105.229789">
  <ele>1583.0</ele>
  <time>2026-08-28T17:51:13Z</time>
  <course>0.0</course>
  <speed>0.0</speed>
  <fix>3d</fix>
</trkpt>
<trkpt lat="40.0713749" lon="-105.229789">
  <ele>1583.0</ele>
  <time>2026-08-28T17:51:13Z</time>
  <course>248.39</course>
  <speed>0.01</speed>
  <fix>3d</fix>
</trkpt>
<trkpt lat="40.0713749" lon="-105.229789">
  <ele>1583.0</ele>
  <time>2026-08-28T17:51:13Z</time>
  <course>0.0</course>
  <speed>0.0</speed>
  <fix>3d</fix>
</trkpt>
<trkpt lat="40.0713749" lon="-105.229789">
  <ele>1583.0</ele>
  <time>2026-08-28T17:51:13Z</time>
  <course>248.38</course>
  <speed>0.01</speed>
  <fix>3d</fix>
</trkpt>
<trkpt lat="40.0713749" lon="-105.229789">
  <ele>1583.0</ele>
  <time>2026-08-28T17:51:13Z</time>
  <course>0.0</course>
  <speed>0.0</speed>
  <fix>3d</fix>
</trkpt>
<trkpt lat="40.0713749" lon="-105.229789">
  <ele>1583.0</ele>
  <time>2026-08-28T17:51:13Z</time>
  <course>248.38</course>
  <speed>0.01</speed>
  <fix>3d</fix>
</trkpt>
<trkpt lat="40.0713749" lon="-105.229789">
  <ele>1583.0</ele>
  <time>2026-08-28T17:51:13Z</time>
  <course>0.0</course>
  <speed>0.0</speed>
  <fix>3d</fix>
</trkpt>
<trkpt lat="40.0713749" lon="-105.229789">
  <ele>1583.0</ele>
  <time>2026-08-28T17:51:13Z</time>
  <course>248.38</course>
  <speed>0.01</speed>
  <fix>3d</fix>
</trkpt>
<trkpt lat="40.0713749" lon="-105.229789">
  <ele>1583.0</ele>
  <time>2026-08-28T17:51:13Z</time>
  <course>0.0</course>
  <speed>0.0</speed>
  <fix>3d</fix>
</trkpt>
<trkpt lat="40.0713749" lon="-105.229789">
  <ele>1583.0</ele>
  <time>2026-08-28T17:51:13Z</time>
  <course>248.38</course>
  <speed>0.01</speed>
  <fix>3d</fix>
</trkpt>
<trkpt lat="40.0713749" lon="-105.229789">
  <ele>1583.0</ele>
  <time>2026-08-28T17:51:13Z</time>
  <course>0.0</course>
  <speed>0.0</speed>
  <fix>3d</fix>
</trkpt>
<trkpt lat="40.0713749" lon="-105.229789">
  <ele>1583.0</ele>
  <time>2026-08-28T17:51:13Z</time>
  <course>248.37</course>
  <speed>0.01</speed>
  <fix>3d</fix>
</trkpt>
<trkpt lat="40.0713749" lon="-105.229789">
  <ele>1583.0</ele>
  <time>2026-08-28T17:51:13Z</time>
  <course>0.0</course>
  <speed>0.0</speed>
  <fix>3d</fix>
</trkpt>
<trkpt lat="40.0713749" lon="-105.229789">
  <ele>1583.0</ele>
  <time>2026-08-28T17:51:13Z</time>
  <course>248.37</course>
  <speed>0.01</speed>
  <fix>3d</fix>
</trkpt>
<trkpt lat="40.0713749" lon="-105.229789">
  <ele>1583.0</ele>
  <time>2026-08-28T17:51:13Z</time>
  <course>0.0</course>
  <speed>0.0</speed>
  <fix>3d</fix>
</trkpt>
<trkpt lat="40.0713749" lon="-105.229789">
  <ele>1583.0</ele>
  <time>2026-08-28T17:51:13Z</time>
  <course>248.37</course>
  <speed>0.01</speed>
  <fix>3d</fix>
</trkpt>
<trkpt lat="40.0713749" lon="-105.229789">
  <ele>1583.0</ele>
  <time>2026-08-28T17:51:13Z</time>
  <course>0.0</course>
  <speed>0.0</speed>
  <fix>3d</fix>
</trkpt>
<trkpt lat="40.0713749" lon="-105.229789">
  <ele>1583.0</ele>
  <time>2026-08-28T17:51:13Z</time>
  <course>248.36</course>
  <speed>0.01</speed>
  <fix>3d</fix>
</trkpt>
<trkpt lat="40.0713749" lon="-105.229789">
  <ele>1583.0</ele>
  <time>2026-08-28T17:51:13Z</time>
  <course>0.0</course>
  <speed>0.0</speed>
  <fix>3d</fix>
</trkpt>
<trkpt lat="40.0713749" lon="-105.229789">
  <ele>1583.0</ele>
  <time>2026-08-28T17:51:13Z</time>
  <course>248.36</course>
  <speed>0.01</speed>
  <fix>3d</fix>
</trkpt>
<trkpt lat="40.0713749" lon="-105.229789">
  <ele>1583.0</ele>
  <time>2026-08-28T17:51:13Z</time>
  <course>0.0</course>
  <speed>0.0</speed>
  <fix>3d</fix>
</trkpt>
<trkpt lat="40.0713749" lon="-105.229789">
  <ele>1583.0</ele>
  <time>2026-08-28T17:51:13Z</time>
  <course>248.35</course>
  <speed>0.01</speed>
  <fix>3d</fix>
</trkpt>
<trkpt lat="40.0713749" lon="-105.229789">
  <ele>1583.0</ele>
  <time>2026-08-28T17:51:13Z</time>
  <course>0.0</course>
  <speed>0.0</speed>
  <fix>3d</fix>
</trkpt>
<trkpt lat="40.0713749" lon="-105.229789">
  <ele>1583.0</ele>
  <time>2026-08-28T17:51:13Z</time>
  <course>248.35</course>
  <speed>0.01</speed>
  <fix>3d</fix>
</trkpt>
<trkpt lat="40.0713749" lon="-105.229789">
  <ele>1583.0</ele>
  <time>2026-08-28T17:51:13Z</time>
  <course>0.0</course>
  <speed>0.0</speed>
  <fix>3d</fix>
</trkpt>
<trkpt lat="40.0713749" lon="-105.229789">
  <ele>1583.0</ele>
  <time>2026-08-28T17:51:13Z</time>
  <course>248.35</course>
  <speed>0.01</speed>
  <fix>3d</fix>
</trkpt>
<trkpt lat="40.0713749" lon="-105.229789">
  <ele>1583.0</ele>
  <time>2026-08-28T17:51:13Z</time>
  <course>0.0</course>
  <speed>0.0</speed>
  <fix>3d</fix>
</trkpt>
<trkpt lat="40.0713749" lon="-105.229789">
  <ele>1583.0</ele>
  <time>2026-08-28T17:51:13Z</time>
  <course>248.34</course>
  <speed>0.01</speed>
  <fix>3d</fix>
</trkpt>
<trkpt lat="40.0713749" lon="-105.229789">
  <ele>1583.0</ele>
  <time>2026-08-28T17:51:13Z</time>
  <course>0.0</course>
  <speed>0.0</speed>
  <fix>3d</fix>
</trkpt>
<trkpt lat="40.0713749" lon="-105.229789">
  <ele>1583.0</ele>
  <time>2026-08-28T17:51:13Z</time>
  <course>248.34</course>
  <speed>0.01</speed>
  <fix>3d</fix>
</trkpt>
<trkpt lat="40.0713749" lon="-105.229789">
  <ele>1583.0</ele>
  <time>2026-08-28T17:51:13Z</time>
  <course>0.0</course>
  <speed>0.0</speed>
  <fix>3d</fix>
</trkpt>
<trkpt lat="40.0713749" lon="-105.229789">
  <ele>1583.0</ele>
  <time>2026-08-28T17:51:13Z</time>
  <course>248.33</course>
  <speed>0.01</speed>
  <fix>3d</fix>
</trkpt>
<trkpt lat="40.0713749" lon="-105.229789">
  <ele>1583.0</ele>
  <time>2026-08-28T17:51:13Z</time>
  <course>0.0</course>
  <speed>0.0</speed>
  <fix>3d</fix>
</trkpt>
<trkpt lat="40.0713749" lon="-105.229789">
  <ele>1583.0</ele>
  <time>2026-08-28T17:51:13Z</time>
  <course>248.33</course>
  <speed>0.01</speed>
  <fix>3d</fix>
</trkpt>
<trkpt lat="40.0713749" lon="-105.229789">
  <ele>1583.0</ele>
  <time>2026-08-28T17:51:13Z</time>
  <course>0.0</course>
  <speed>0.0</speed>
  <fix>3d</fix>
</trkpt>
<trkpt lat="40.0713749" lon="-105.229789">
  <ele>1583.0</ele>
  <time>2026-08-28T17:51:13Z</time>
  <course>248.32</course>
  <speed>0.01</speed>
  <fix>3d</fix>
</trkpt>
<trkpt lat="40.0713749" lon="-105.229789">
  <ele>1583.0</ele>
  <time>2026-08-28T17:51:13Z</time>
  <course>0.0</course>
  <speed>0.0</speed>
  <fix>3d</fix>
</trkpt>
<trkpt lat="40.0713749" lon="-105.229789">
  <ele>1583.0</ele>
  <time>2026-08-28T17:51:13Z</time>
  <course>248.32</course>
  <speed>0.01</speed>
  <fix>3d</fix>
</trkpt>
<trkpt lat="40.0713749" lon="-105.229789">
  <ele>1583.0</ele>
  <time>2026-08-28T17:51:13Z</time>
  <course>0.0</course>
  <speed>0.0</speed>
  <fix>3d</fix>
</trkpt>
<trkpt lat="40.0713749" lon="-105.229789">
  <ele>1583.0</ele>
  <time>2026-08-28T17:51:13Z</time>
  <course>248.32</course>
  <speed>0.01</speed>
  <fix>3d</fix>
</trkpt>
<trkpt lat="40.0713749" lon="-105.229789">
  <ele>1583.0</ele>
  <time>2026-08-28T17:51:13Z</time>
  <course>0.0</course>
  <speed>0.0</speed>
  <fix>3d</fix>
</trkpt>
<trkpt lat="40.0713749" lon="-105.229789">
  <ele>1583.0</ele>
  <time>2026-08-28T17:51:13Z</time>
  <course>248.31</course>
  <speed>0.01</speed>
  <fix>3d</fix>
</trkpt>
<trkpt lat="40.0713749" lon="-105.229789">
  <ele>1583.0</ele>
  <time>2026-08-28T17:51:13Z</time>
  <course>0.0</course>
  <speed>0.0</speed>
  <fix>3d</fix>
</trkpt>
<trkpt lat="40.0713749" lon="-105.229789">
  <ele>1583.0</ele>
  <time>2026-08-28T17:51:13Z</time>
  <course>248.31</course>
  <speed>0.01</speed>
  <fix>3d</fix>
</trkpt>
<trkpt lat="40.0713749" lon="-105.229789">
  <ele>1583.0</ele>
  <time>2026-08-28T17:51:13Z</time>
  <course>0.0</course>
  <speed>0.0</speed>
  <fix>3d</fix>
</trkpt>
<trkpt lat="40.0713749" lon="-105.229789">
  <ele>1583.0</ele>
  <time>2026-08-28T17:51:13Z</time>
  <course>248.3</course>
  <speed>0.01</speed>
  <fix>3d</fix>
</trkpt>
<trkpt lat="40.0713749" lon="-105.229789">
  <ele>1583.0</ele>
  <time>2026-08-28T17:51:13Z</time>
  <course>0.0</course>
  <speed>0.0</speed>
  <fix>3d</fix>
</trkpt>
<trkpt lat="40.0713749" lon="-105.229789">
  <ele>1583.0</ele>
  <time>2026-08-28T17:51:13Z</time>
  <course>248.3</course>
  <speed>0.01</speed>
  <fix>3d</fix>
</trkpt>
<trkpt lat="40.0713749" lon="-105.229789">
  <ele>1583.0</ele>
  <time>2026-08-28T17:51:13Z</time>
  <course>0.0</course>
  <speed>0.0</speed>
  <fix>3d</fix>
</trkpt>
<trkpt lat="40.0713749" lon="-105.229789">
  <ele>1583.0</ele>
  <time>2026-08-28T17:51:13Z</time>
  <course>248.29</course>
  <speed>0.01</speed>
  <fix>3d</fix>
</trkpt>
<trkpt lat="40.0713749" lon="-105.229789">
  <ele>1583.0</ele>
  <time>2026-08-28T17:51:13Z</time>
  <course>0.0</course>
  <speed>0.0</speed>
  <fix>3d</fix>
</trkpt>
<trkpt lat="40.0713749" lon="-105.229789">
  <ele>1583.0</ele>
  <time>2026-08-28T17:51:13Z</time>
  <course>248.29</course>
  <speed>0.01</speed>
  <fix>3d</fix>
</trkpt>
<trkpt lat="40.0713749" lon="-105.229789">
  <ele>1583.0</ele>
  <time>2026-08-28T17:51:13Z</time>
  <course>0.0</course>
  <speed>0.0</speed>
  <fix>3d</fix>
</trkpt>
<trkpt lat="40.0713749" lon="-105.229789">
  <ele>1583.0</ele>
  <time>2026-08-28T17:51:13Z</time>
  <course>248.28</course>
  <speed>0.01</speed>
  <fix>3d</fix>
</trkpt>
<trkpt lat="40.0713749" lon="-105.229789">
  <ele>1583.0</ele>
  <time>2026-08-28T17:51:13Z</time>
  <course>0.0</course>
  <speed>0.0</speed>
  <fix>3d</fix>
</trkpt>
<trkpt lat="40.0713749" lon="-105.229789">
  <ele>1583.0</ele>
  <time>2026-08-28T17:51:13Z</time>
  <course>248.28</course>
  <speed>0.01</speed>
  <fix>3d</fix>
</trkpt>
<trkpt lat="40.0713749" lon="-105.229789">
  <ele>1583.0</ele>
  <time>2026-08-28T17:51:13Z</time>
  <course>0.0</course>
  <speed>0.0</speed>
  <fix>3d</fix>
</trkpt>
<trkpt lat="40.0713749" lon="-105.229789">
  <ele>1583.0</ele>
  <time>2026-08-28T17:51:13Z</time>
  <course>248.27</course>
  <speed>0.01</speed>
  <fix>3d</fix>
</trkpt>
<trkpt lat="40.0713749" lon="-105.229789">
  <ele>1583.0</ele>
  <time>2026-08-28T17:51:13Z</time>
  <course>0.0</course>
  <speed>0.0</speed>
  <fix>3d</fix>
</trkpt>
<trkpt lat="40.0713749" lon="-105.229789">
  <ele>1583.0</ele>
  <time>2026-08-28T17:51:13Z</time>
  <course>248.27</course>
  <speed>0.01</speed>
  <fix>3d</fix>
</trkpt>
<trkpt lat="40.0713749" lon="-105.229789">
  <ele>1583.0</ele>
  <time>2026-08-28T17:51:13Z</time>
  <course>0.0</course>
  <speed>0.0</speed>
  <fix>3d</fix>
</trkpt>
<trkpt lat="40.0713749" lon="-105.229789">
  <ele>1583.0</ele>
  <time>2026-08-28T17:51:13Z</time>
  <course>248.27</course>
  <speed>0.01</speed>
  <fix>3d</fix>
</trkpt>
<trkpt lat="40.0713749" lon="-105.229789">
  <ele>1583.0</ele>
  <time>2026-08-28T17:51:13Z</time>
  <course>0.0</course>
  <speed>0.0</speed>
  <fix>3d</fix>
</trkpt>
<trkpt lat="40.0713749" lon="-105.229789">
  <ele>1583.0</ele>
  <time>2026-08-28T17:51:13Z</time>
  <course>248.26</course>
  <speed>0.01</speed>
  <fix>3d</fix>
</trkpt>
<trkpt lat="40.0713749" lon="-105.229789">
  <ele>1583.0</ele>
  <time>2026-08-28T17:51:13Z</time>
  <course>0.0</course>
  <speed>0.0</speed>
  <fix>3d</fix>
</trkpt>
<trkpt lat="40.0713749" lon="-105.229789">
  <ele>1583.0</ele>
  <time>2026-08-28T17:51:13Z</time>
  <course>248.26</course>
  <speed>0.01</speed>
  <fix>3d</fix>
</trkpt>
<trkpt lat="40.0713749" lon="-105.229789">
  <ele>1583.0</ele>
  <time>2026-08-28T17:51:13Z</time>
  <course>0.0</course>
  <speed>0.0</speed>
  <fix>3d</fix>
</trkpt>
<trkpt lat="40.0713749" lon="-105.229789">
  <ele>1583.0</ele>
  <time>2026-08-28T17:51:13Z</time>
  <course>248.25</course>
  <speed>0.01</speed>
  <fix>3d</fix>
</trkpt>
<trkpt lat="40.0713749" lon="-105.229789">
  <ele>1583.0</ele>
  <time>2026-08-28T17:51:13Z</time>
  <course>0.0</course>
  <speed>0.0</speed>
  <fix>3d</fix>
</trkpt>
<trkpt lat="40.0713749" lon="-105.229789">
  <ele>1583.0</ele>
  <time>2026-08-28T17:51:13Z</time>
  <course>248.25</course>
  <speed>0.01</speed>
  <fix>3d</fix>
</trkpt>
<trkpt lat="40.0713749" lon="-105.229789">
  <ele>1583.0</ele>
  <time>2026-08-28T17:51:13Z</time>
  <course>0.0</course>
  <speed>0.0</speed>
  <fix>3d</fix>
</trkpt>
<trkpt lat="40.0713749" lon="-105.229789">
  <ele>1583.0</ele>
  <time>2026-08-28T17:51:13Z</time>
  <course>248.24</course>
  <speed>0.01</speed>
  <fix>3d</fix>
</trkpt>
<trkpt lat="40.0713749" lon="-105.229789">
  <ele>1583.0</ele>
  <time>2026-08-28T17:51:13Z</time>
  <course>0.0</course>
  <speed>0.0</speed>
  <fix>3d</fix>
</trkpt>
<trkpt lat="40.0713749" lon="-105.229789">
  <ele>1583.0</ele>
  <time>2026-08-28T17:51:13Z</time>
  <course>248.24</course>
  <speed>0.01</speed>
  <fix>3d</fix>
</trkpt>
<trkpt lat="40.0713749" lon="-105.229789">
  <ele>1583.0</ele>
  <time>2026-08-28T17:51:13Z</time>
  <course>0.0</course>
  <speed>0.0</speed>
  <fix>3d</fix>
</trkpt>
<trkpt lat="40.0713749" lon="-105.229789">
  <ele>1583.0</ele>
  <time>2026-08-28T17:51:13Z</time>
  <course>248.23</course>
  <speed>0.01</speed>
  <fix>3d</fix>
</trkpt>
<trkpt lat="40.0713749" lon="-105.229789">
  <ele>1583.0</ele>
  <time>2026-08-28T17:51:13Z</time>
  <course>0.0</course>
  <speed>0.0</speed>
  <fix>3d</fix>
</trkpt>
<trkpt lat="40.0713749" lon="-105.229789">
  <ele>1583.0</ele>
  <time>2026-08-28T17:51:13Z</time>
  <course>248.23</course>
  <speed>0.01</speed>
  <fix>3d</fix>
</trkpt>
<trkpt lat="40.0713749" lon="-105.229789">
  <ele>1583.0</ele>
  <time>2026-08-28T17:51:13Z</time>
  <course>0.0</course>
  <speed>0.0</speed>
  <fix>3d</fix>
</trkpt>
<trkpt lat="40.0713749" lon="-105.229789">
  <ele>1583.0</ele>
  <time>2026-08-28T17:51:13Z</time>
  <course>248.22</course>
  <speed>0.01</speed>
  <fix>3d</fix>
</trkpt>
<trkpt lat="40.0713749" lon="-105.229789">
  <ele>1583.0</ele>
  <time>2026-08-28T17:51:13Z</time>
  <course>0.0</course>
  <speed>0.0</speed>
  <fix>3d</fix>
</trkpt>
<trkpt lat="40.0713749" lon="-105.229789">
  <ele>1583.0</ele>
  <time>2026-08-28T17:51:13Z</time>
  <course>248.22</course>
  <speed>0.01</speed>
  <fix>3d</fix>
</trkpt>
<trkpt lat="40.0713749" lon="-105.229789">
  <ele>1583.0</ele>
  <time>2026-08-28T17:51:13Z</time>
  <course>0.0</course>
  <speed>0.0</speed>
  <fix>3d</fix>
</trkpt>
<trkpt lat="40.0713749" lon="-105.229789">
  <ele>1583.0</ele>
  <time>2026-08-28T17:51:13Z</time>
  <course>248.21</course>
  <speed>0.01</speed>
  <fix>3d</fix>
</trkpt>
<trkpt lat="40.0713749" lon="-105.229789">
  <ele>1583.0</ele>
  <time>2026-08-28T17:51:13Z</time>
  <course>0.0</course>
  <speed>0.0</speed>
  <fix>3d</fix>
</trkpt>
<trkpt lat="40.0713749" lon="-105.229789">
  <ele>1583.0</ele>
  <time>2026-08-28T17:51:13Z</time>
  <course>248.21</course>
  <speed>0.01</speed>
  <fix>3d</fix>
</trkpt>
<trkpt lat="40.0713749" lon="-105.229789">
  <ele>1583.0</ele>
  <time>2026-08-28T17:51:13Z</time>
  <course>0.0</course>
  <speed>0.0</speed>
  <fix>3d</fix>
</trkpt>
<trkpt lat="40.0713749" lon="-105.229789">
  <ele>1583.0</ele>
  <time>2026-08-28T17:51:13Z</time>
  <course>248.2</course>
  <speed>0.01</speed>
  <fix>3d</fix>
</trkpt>
<trkpt lat="40.0713749" lon="-105.229789">
  <ele>1583.0</ele>
  <time>2026-08-28T17:51:13Z</time>
  <course>0.0</course>
  <speed>0.0</speed>
  <fix>3d</fix>
</trkpt>
<trkpt lat="40.0713749" lon="-105.229789">
  <ele>1583.0</ele>
  <time>2026-08-28T17:51:13Z</time>
  <course>248.2</course>
  <speed>0.01</speed>
  <fix>3d</fix>
</trkpt>
<trkpt lat="40.0713749" lon="-105.229789">
  <ele>1583.0</ele>
  <time>2026-08-28T17:51:13Z</time>
  <course>0.0</course>
  <speed>0.0</speed>
  <fix>3d</fix>
</trkpt>
<trkpt lat="40.0713749" lon="-105.229789">
  <ele>1583.0</ele>
  <time>2026-08-28T17:51:13Z</time>
  <course>248.19</course>
  <speed>0.01</speed>
  <fix>3d</fix>
</trkpt>
<trkpt lat="40.0713749" lon="-105.229789">
  <ele>1583.0</ele>
  <time>2026-08-28T17:51:13Z</time>
  <course>0.0</course>
  <speed>0.0</speed>
  <fix>3d</fix>
</trkpt>
<trkpt lat="40.0713749" lon="-105.229789">
  <ele>1583.0</ele>
  <time>2026-08-28T17:51:13Z</time>
  <course>248.19</course>
  <speed>0.01</speed>
  <fix>3d</fix>
</trkpt>
<trkpt lat="40.0713749" lon="-105.229789">
  <ele>1583.0</ele>
  <time>2026-08-28T17:51:13Z</time>
  <course>0.0</course>
  <speed>0.0</speed>
  <fix>3d</fix>
</trkpt>
<trkpt lat="40.0713749" lon="-105.229789">
  <ele>1583.0</ele>
  <time>2026-08-28T17:51:13Z</time>
  <course>248.18</course>
  <speed>0.01</speed>
  <fix>3d</fix>
</trkpt>
<trkpt lat="40.0713749" lon="-105.229789">
  <ele>1583.0</ele>
  <time>2026-08-28T17:51:13Z</time>
  <course>0.0</course>
  <speed>0.0</speed>
  <fix>3d</fix>
</trkpt>
<trkpt lat="40.0713749" lon="-105.229789">
  <ele>1583.0</ele>
  <time>2026-08-28T17:51:13Z</time>
  <course>248.18</course>
  <speed>0.01</speed>
  <fix>3d</fix>
</trkpt>
<trkpt lat="40.0713749" lon="-105.229789">
  <ele>1583.0</ele>
  <time>2026-08-28T17:51:13Z</time>
  <course>0.0</course>
  <speed>0.0</speed>
  <fix>3d</fix>
</trkpt>
<trkpt lat="40.0713749" lon="-105.229789">
  <ele>1583.0</ele>
  <time>2026-08-28T17:51:13Z</time>
  <course>248.17</course>
  <speed>0.022360679774997897</speed>
  <fix>3d</fix>
</trkpt>
<trkpt lat="40.0713749" lon="-105.229789">
  <ele>1583.0</ele>
  <time>2026-08-28T17:51:13Z</time>
  <course>0.0</course>
  <speed>0.0</speed>
  <fix>3d</fix>
</trkpt>
<trkpt lat="40.0713749" lon="-105.229789">
  <ele>1583.0</ele>
  <time>2026-08-28T17:51:13Z</time>
  <course>248.17</course>
  <speed>0.022360679774997897</speed>
  <fix>3d</fix>
</trkpt>
<trkpt lat="40.0713749" lon="-105.229789">
  <ele>1583.0</ele>
  <time>2026-08-28T17:51:13Z</time>
  <course>0.0</course>
  <speed>0.0</speed>
  <fix>3d</fix>
</trkpt>
<trkpt lat="40.0713749" lon="-105.229789">
  <ele>1583.0</ele>
  <time>2026-08-28T17:51:13Z</time>
  <course>248.16</course>
  <speed>0.022360679774997897</speed>
  <fix>3d</fix>
</trkpt>
<trkpt lat="40.0713749" lon="-105.229789">
  <ele>1583.0</ele>
  <time>2026-08-28T17:51:13Z</time>
  <course>0.0</course>
  <speed>0.0</speed>
  <fix>3d</fix>
</trkpt>
<trkpt lat="40.0713749" lon="-105.229789">
  <ele>1583.0</ele>
  <time>2026-08-28T17:51:13Z</time>
  <course>248.16</course>
  <speed>0.022360679774997897</speed>
  <fix>3d</fix>
</trkpt>
<trkpt lat="40.0713749" lon="-105.229789">
  <ele>1583.0</ele>
  <time>2026-08-28T17:51:13Z</time>
  <course>0.0</course>
  <speed>0.0</speed>
  <fix>3d</fix>
</trkpt>
<trkpt lat="40.0713749" lon="-105.229789">
  <ele>1583.0</ele>
  <time>2026-08-28T17:51:13Z</time>
  <course>248.15</course>
  <speed>0.022360679774997897</speed>
  <fix>3d</fix>
</trkpt>
<trkpt lat="40.0713749" lon="-105.229789">
  <ele>1583.0</ele>
  <time>2026-08-28T17:51:13Z</time>
  <course>0.0</course>
  <speed>0.0</speed>
  <fix>3d</fix>
</trkpt>
<trkpt lat="40.0713749" lon="-105.229789">
  <ele>1583.0</ele>
  <time>2026-08-28T17:51:13Z</time>
  <course>248.15</course>
  <speed>0.022360679774997897</speed>
  <fix>3d</fix>
</trkpt>
<trkpt lat="40.0713749" lon="-105.229789">
  <ele>1583.0</ele>
  <time>2026-08-28T17:51:13Z</time>
  <course>0.0</course>
  <speed>0.0</speed>
  <fix>3d</fix>
</trkpt>
<trkpt lat="40.0713749" lon="-105.229789">
  <ele>1583.0</ele>
  <time>2026-08-28T17:51:13Z</time>
  <course>248.14</course>
  <speed>0.022360679774997897</speed>
  <fix>3d</fix>
</trkpt>
<trkpt lat="40.0713749" lon="-105.229789">
  <ele>1583.0</ele>
  <time>2026-08-28T17:51:13Z</time>
  <course>0.0</course>
  <speed>0.0</speed>
  <fix>3d</fix>
</trkpt>
<trkpt lat="40.0713749" lon="-105.229789">
  <ele>1583.0</ele>
  <time>2026-08-28T17:51:13Z</time>
  <course>248.14</course>
  <speed>0.022360679774997897</speed>
  <fix>3d</fix>
</trkpt>
<trkpt lat="40.0713749" lon="-105.229789">
  <ele>1583.0</ele>
  <time>2026-08-28T17:51:13Z</time>
  <course>0.0</course>
  <speed>0.0</speed>
  <fix>3d</fix>
</trkpt>
<trkpt lat="40.0713749" lon="-105.229789">
  <ele>1583.0</ele>
  <time>2026-08-28T17:51:13Z</time>
  <course>248.13</course>
  <speed>0.022360679774997897</speed>
  <fix>3d</fix>
</trkpt>
<trkpt lat="40.0713749" lon="-105.229789">
  <ele>1583.0</ele>
  <time>2026-08-28T17:51:13Z</time>
  <course>0.0</course>
  <speed>0.0</speed>
  <fix>3d</fix>
</trkpt>
<trkpt lat="40.0713749" lon="-105.229789">
  <ele>1583.0</ele>
  <time>2026-08-28T17:51:13Z</time>
  <course>248.13</course>
  <speed>0.022360679774997897</speed>
  <fix>3d</fix>
</trkpt>
<trkpt lat="40.0713749" lon="-105.229789">
  <ele>1583.0</ele>
  <time>2026-08-28T17:51:13Z</time>
  <course>0.0</course>
  <speed>0.0</speed>
  <fix>3d</fix>
</trkpt>
<trkpt lat="40.0713749" lon="-105.229789">
  <ele>1583.0</ele>
  <time>2026-08-28T17:51:13Z</time>
  <course>248.12</course>
  <speed>0.022360679774997897</speed>
  <fix>3d</fix>
</trkpt>
<trkpt lat="40.0713749" lon="-105.229789">
  <ele>1583.0</ele>
  <time>2026-08-28T17:51:13Z</time>
  <course>0.0</course>
  <speed>0.0</speed>
  <fix>3d</fix>
</trkpt>
<trkpt lat="40.0713749" lon="-105.229789">
  <ele>1583.0</ele>
  <time>2026-08-28T17:51:13Z</time>
  <course>248.12</course>
  <speed>0.022360679774997897</speed>
  <fix>3d</fix>
</trkpt>
<trkpt lat="40.0713749" lon="-105.229789">
  <ele>1583.0</ele>
  <time>2026-08-28T17:51:13Z</time>
  <course>0.0</course>
  <speed>0.0</speed>
  <fix>3d</fix>
</trkpt>
<trkpt lat="40.0713749" lon="-105.229789">
  <ele>1583.0</ele>
  <time>2026-08-28T17:51:13Z</time>
  <course>248.11</course>
  <speed>0.022360679774997897</speed>
  <fix>3d</fix>
</trkpt>
<trkpt lat="40.0713749" lon="-105.229789">
  <ele>1583.0</ele>
  <time>2026-08-28T17:51:13Z</time>
  <course>0.0</course>
  <speed>0.0</speed>
  <fix>3d</fix>
</trkpt>
<trkpt lat="40.0713749" lon="-105.229789">
  <ele>1583.0</ele>
  <time>2026-08-28T17:51:13Z</time>
  <course>248.11</course>
  <speed>0.022360679774997897</speed>
  <fix>3d</fix>
</trkpt>
<trkpt lat="40.0713749" lon="-105.229789">
  <ele>1583.0</ele>
  <time>2026-08-28T17:51:13Z</time>
  <course>0.0</course>
  <speed>0.0</speed>
  <fix>3d</fix>
</trkpt>
<trkpt lat="40.0713749" lon="-105.229789">
  <ele>1583.0</ele>
  <time>2026-08-28T17:51:13Z</time>
  <course>248.1</course>
  <speed>0.022360679774997897</speed>
  <fix>3d</fix>
</trkpt>
<trkpt lat="40.0713749" lon="-105.229789">
  <ele>1583.0</ele>
  <time>2026-08-28T17:51:13Z</time>
  <course>0.0</course>
  <speed>0.0</speed>
  <fix>3d</fix>
</trkpt>
<trkpt lat="40.0713749" lon="-105.229789">
  <ele>1583.0</ele>
  <time>2026-08-28T17:51:13Z</time>
  <course>248.1</course>
  <speed>0.022360679774997897</speed>
  <fix>3d</fix>
</trkpt>
<trkpt lat="40.0713749" lon="-105.229789">
  <ele>1583.0</ele>
  <time>2026-08-28T17:51:13Z</time>
  <course>0.0</course>
  <speed>0.0</speed>
  <fix>3d</fix>
</trkpt>
<trkpt lat="40.0713749" lon="-105.229789">
  <ele>1583.0</ele>
  <time>2026-08-28T17:51:13Z</time>
  <course>248.09</course>
  <speed>0.022360679774997897</speed>
  <fix>3d</fix>
</trkpt>
<trkpt lat="40.0713749" lon="-105.229789">
  <ele>1583.0</ele>
  <time>2026-08-28T17:51:13Z</time>
  <course>0.0</course>
  <speed>0.0</speed>
  <fix>3d</fix>
</trkpt>
<trkpt lat="40.0713749" lon="-105.229789">
  <ele>1583.0</ele>
  <time>2026-08-28T17:51:13Z</time>
  <course>248.09</course>
  <speed>0.022360679774997897</speed>
  <fix>3d</fix>
</trkpt>
<trkpt lat="40.0713749" lon="-105.229789">
  <ele>1583.0</ele>
  <time>2026-08-28T17:51:13Z</time>
  <course>0.0</course>
  <speed>0.0</speed>
  <fix>3d</fix>
</trkpt>
<trkpt lat="40.0713749" lon="-105.229789">
  <ele>1583.0</ele>
  <time>2026-08-28T17:51:13Z</time>
  <course>248.08</course>
  <speed>0.022360679774997897</speed>
  <fix>3d</fix>
</trkpt>
<trkpt lat="40.0713749" lon="-105.229789">
  <ele>1583.0</ele>
  <time>2026-08-28T17:51:13Z</time>
  <course>0.0</course>
  <speed>0.0</speed>
  <fix>3d</fix>
</trkpt>
<trkpt lat="40.0713749" lon="-105.229789">
  <ele>1583.0</ele>
  <time>2026-08-28T17:51:13Z</time>
  <course>248.08</course>
  <speed>0.022360679774997897</speed>
  <fix>3d</fix>
</trkpt>
<trkpt lat="40.0713749" lon="-105.229789">
  <ele>1583.0</ele>
  <time>2026-08-28T17:51:13Z</time>
  <course>0.0</course>
  <speed>0.0</speed>
  <fix>3d</fix>
</trkpt>
<trkpt lat="40.0713749" lon="-105.229789">
  <ele>1583.0</ele>
  <time>2026-08-28T17:51:13Z</time>
  <course>248.07</course>
  <speed>0.022360679774997897</speed>
  <fix>3d</fix>
</trkpt>
<trkpt lat="40.0713749" lon="-105.229789">
  <ele>1583.0</ele>
  <time>2026-08-28T17:51:13Z</time>
  <course>0.0</course>
  <speed>0.0</speed>
  <fix>3d</fix>
</trkpt>
<trkpt lat="40.0713749" lon="-105.229789">
  <ele>1583.0</ele>
  <time>2026-08-28T17:51:13Z</time>
  <course>248.07</course>
  <speed>0.022360679774997897</speed>
  <fix>3d</fix>
</trkpt>
<trkpt lat="40.0713749" lon="-105.229789">
  <ele>1583.0</ele>
  <time>2026-08-28T17:51:13Z</time>
  <course>0.0</course>
  <speed>0.0</speed>
  <fix>3d</fix>
</trkpt>
<trkpt lat="40.0713749" lon="-105.229789">
  <ele>1583.0</ele>
  <time>2026-08-28T17:51:13Z</time>
  <course>248.06</course>
  <speed>0.022360679774997897</speed>
  <fix>3d</fix>
</trkpt>
<trkpt lat="40.0713749" lon="-105.229789">
  <ele>1583.0</ele>
  <time>2026-08-28T17:51:13Z</time>
  <course>0.0</course>
  <speed>0.0</speed>
  <fix>3d</fix>
</trkpt>
<trkpt lat="40.0713749" lon="-105.229789">
  <ele>1583.0</ele>
  <time>2026-08-28T17:51:13Z</time>
  <course>248.06</course>
  <speed>0.022360679774997897</speed>
  <fix>3d</fix>
</trkpt>
<trkpt lat="40.0713749" lon="-105.229789">
  <ele>1583.0</ele>
  <time>2026-08-28T17:51:13Z</time>
  <course>0.0</course>
  <speed>0.0</speed>
  <fix>3d</fix>
</trkpt>
<trkpt lat="40.0713749" lon="-105.229789">
  <ele>1583.0</ele>
  <time>2026-08-28T17:51:13Z</time>
  <course>248.05</course>
  <speed>0.022360679774997897</speed>
  <fix>3d</fix>
</trkpt>
<trkpt lat="40.0713749" lon="-105.229789">
  <ele>1583.0</ele>
  <time>2026-08-28T17:51:13Z</time>
  <course>0.0</course>
  <speed>0.0</speed>
  <fix>3d</fix>
</trkpt>
<trkpt lat="40.0713749" lon="-105.229789">
  <ele>1583.0</ele>
  <time>2026-08-28T17:51:13Z</time>
  <course>248.05</course>
  <speed>0.022360679774997897</speed>
  <fix>3d</fix>
</trkpt>
<trkpt lat="40.0713749" lon="-105.229789">
  <ele>1583.0</ele>
  <time>2026-08-28T17:51:13Z</time>
  <course>0.0</course>
  <speed>0.0</speed>
  <fix>3d</fix>
</trkpt>
<trkpt lat="40.0713749" lon="-105.229789">
  <ele>1583.0</ele>
  <time>2026-08-28T17:51:13Z</time>
  <course>248.05</course>
  <speed>0.022360679774997897</speed>
  <fix>3d</fix>
</trkpt>
<trkpt lat="40.0713749" lon="-105.229789">
  <ele>1583.0</ele>
  <time>2026-08-28T17:51:13Z</time>
  <course>0.0</course>
  <speed>0.0</speed>
  <fix>3d</fix>
</trkpt>
<trkpt lat="40.0713749" lon="-105.229789">
  <ele>1583.0</ele>
  <time>2026-08-28T17:51:13Z</time>
  <course>248.04</course>
  <speed>0.022360679774997897</speed>
  <fix>3d</fix>
</trkpt>
<trkpt lat="40.0713749" lon="-105.229789">
  <ele>1583.0</ele>
  <time>2026-08-28T17:51:13Z</time>
  <course>0.0</course>
  <speed>0.0</speed>
  <fix>3d</fix>
</trkpt>
<trkpt lat="40.0713749" lon="-105.229789">
  <ele>1583.0</ele>
  <time>2026-08-28T17:51:13Z</time>
  <course>248.04</course>
  <speed>0.022360679774997897</speed>
  <fix>3d</fix>
</trkpt>
<trkpt lat="40.0713749" lon="-105.229789">
  <ele>1583.0</ele>
  <time>2026-08-28T17:51:13Z</time>
  <course>0.0</course>
  <speed>0.0</speed>
  <fix>3d</fix>
</trkpt>
<trkpt lat="40.0713749" lon="-105.229789">
  <ele>1583.0</ele>
  <time>2026-08-28T17:51:13Z</time>
  <course>248.03</course>
  <speed>0.022360679774997897</speed>
  <fix>3d</fix>
</trkpt>
<trkpt lat="40.0713749" lon="-105.229789">
  <ele>1583.0</ele>
  <time>2026-08-28T17:51:13Z</time>
  <course>0.0</course>
  <speed>0.0</speed>
  <fix>3d</fix>
</trkpt>
<trkpt lat="40.0713749" lon="-105.229789">
  <ele>1583.0</ele>
  <time>2026-08-28T17:51:13Z</time>
  <course>248.03</course>
  <speed>0.022360679774997897</speed>
  <fix>3d</fix>
</trkpt>
<trkpt lat="40.0713749" lon="-105.229789">
  <ele>1583.0</ele>
  <time>2026-08-28T17:51:13Z</time>
  <course>0.0</course>
  <speed>0.0</speed>
  <fix>3d</fix>
</trkpt>
<trkpt lat="40.0713749" lon="-105.229789">
  <ele>1583.0</ele>
  <time>2026-08-28T17:51:13Z</time>
  <course>248.02</course>
  <speed>0.022360679774997897</speed>
  <fix>3d</fix>
</trkpt>
<trkpt lat="40.0713749" lon="-105.229789">
  <ele>1583.0</ele>
  <time>2026-08-28T17:51:13Z</time>
  <course>0.0</course>
  <speed>0.0</speed>
  <fix>3d</fix>
</trkpt>
<trkpt lat="40.0713749" lon="-105.229789">
  <ele>1583.0</ele>
  <time>2026-08-28T17:51:13Z</time>
  <course>248.02</course>
  <speed>0.022360679774997897</speed>
  <fix>3d</fix>
</trkpt>
<trkpt lat="40.0713749" lon="-105.229789">
  <ele>1583.0</ele>
  <time>2026-08-28T17:51:13Z</time>
  <course>0.0</course>
  <speed>0.0</speed>
  <fix>3d</fix>
</trkpt>
<trkpt lat="40.0713749" lon="-105.229789">
  <ele>1583.0</ele>
  <time>2026-08-28T17:51:13Z</time>
  <course>248.01</course>
  <speed>0.022360679774997897</speed>
  <fix>3d</fix>
</trkpt>
<trkpt lat="40.0713749" lon="-105.229789">
  <ele>1583.0</ele>
  <time>2026-08-28T17:51:13Z</time>
  <course>0.0</course>
  <speed>0.0</speed>
  <fix>3d</fix>
</trkpt>
<trkpt lat="40.0713749" lon="-105.229789">
  <ele>1583.0</ele>
  <time>2026-08-28T17:51:13Z</time>
  <course>248.01</course>
  <speed>0.022360679774997897</speed>
  <fix>3d</fix>
</trkpt>
<trkpt lat="40.0713749" lon="-105.229789">
  <ele>1583.0</ele>
  <time>2026-08-28T17:51:13Z</time>
  <course>0.0</course>
  <speed>0.0</speed>
  <fix>3d</fix>
</trkpt>
<trkpt lat="40.0713749" lon="-105.229789">
  <ele>1583.0</ele>
  <time>2026-08-28T17:51:13Z</time>
  <course>248.0</course>
  <speed>0.022360679774997897</speed>
  <fix>3d</fix>
</trkpt>
<trkpt lat="40.0713749" lon="-105.229789">
  <ele>1583.0</ele>
  <time>2026-08-28T17:51:13Z</time>
  <course>0.0</course>
  <speed>0.0</speed>
  <fix>3d</fix>
</trkpt>
<trkpt lat="40.0713749" lon="-105.229789">
  <ele>1583.0</ele>
  <time>2026-08-28T17:51:13Z</time>
  <course>248.0</course>
  <speed>0.022360679774997897</speed>
  <fix>3d</fix>
</trkpt>
<trkpt lat="40.0713749" lon="-105.229789">
  <ele>1583.0</ele>
  <time>2026-08-28T17:51:13Z</time>
  <course>0.0</course>
  <speed>0.0</speed>
  <fix>3d</fix>
</trkpt>
<trkpt lat="40.0713749" lon="-105.229789">
  <ele>1583.0</ele>
  <time>2026-08-28T17:51:13Z</time>
  <course>247.99</course>
  <speed>0.022360679774997897</speed>
  <fix>3d</fix>
</trkpt>
<trkpt lat="40.0713749" lon="-105.229789">
  <ele>1583.0</ele>
  <time>2026-08-28T17:51:13Z</time>
  <course>0.0</course>
  <speed>0.0</speed>
  <fix>3d</fix>
</trkpt>
<trkpt lat="40.0713749" lon="-105.229789">
  <ele>1583.0</ele>
  <time>2026-08-28T17:51:13Z</time>
  <course>247.99</course>
  <speed>0.022360679774997897</speed>
  <fix>3d</fix>
</trkpt>
<trkpt lat="40.0713749" lon="-105.229789">
  <ele>1583.0</ele>
  <time>2026-08-28T17:51:13Z</time>
  <course>0.0</course>
  <speed>0.0</speed>
  <fix>3d</fix>
</trkpt>
<trkpt lat="40.0713749" lon="-105.229789">
  <ele>1583.0</ele>
  <time>2026-08-28T17:51:13Z</time>
  <course>247.99</course>
  <speed>0.022360679774997897</speed>
  <fix>3d</fix>
</trkpt>
<trkpt lat="40.0713749" lon="-105.229789">
  <ele>1583.0</ele>
  <time>2026-08-28T17:51:13Z</time>
  <course>0.0</course>
  <speed>0.0</speed>
  <fix>3d</fix>
</trkpt>
<trkpt lat="40.0713749" lon="-105.229789">
  <ele>1583.0</ele>
  <time>2026-08-28T17:51:13Z</time>
  <course>247.98</course>
  <speed>0.022360679774997897</speed>
  <fix>3d</fix>
</trkpt>
<trkpt lat="40.0713749" lon="-105.229789">
  <ele>1583.0</ele>
  <time>2026-08-28T17:51:13Z</time>
  <course>0.0</course>
  <speed>0.0</speed>
  <fix>3d</fix>
</trkpt>
<trkpt lat="40.0713749" lon="-105.229789">
  <ele>1583.0</ele>
  <time>2026-08-28T17:51:13Z</time>
  <course>247.98</course>
  <speed>0.022360679774997897</speed>
  <fix>3d</fix>
</trkpt>
<trkpt lat="40.0713749" lon="-105.229789">
  <ele>1583.0</ele>
  <time>2026-08-28T17:51:13Z</time>
  <course>0.0</course>
  <speed>0.0</speed>
  <fix>3d</fix>
</trkpt>
<trkpt lat="40.0713749" lon="-105.229789">
  <ele>1583.0</ele>
  <time>2026-08-28T17:51:13Z</time>
  <course>247.97</course>
  <speed>0.022360679774997897</speed>
  <fix>3d</fix>
</trkpt>
<trkpt lat="40.0713749" lon="-105.229789">
  <ele>1583.0</ele>
  <time>2026-08-28T17:51:13Z</time>
  <course>0.0</course>
  <speed>0.0</speed>
  <fix>3d</fix>
</trkpt>
<trkpt lat="40.0713749" lon="-105.229789">
  <ele>1583.0</ele>
  <time>2026-08-28T17:51:13Z</time>
  <course>247.97</course>
  <speed>0.022360679774997897</speed>
  <fix>3d</fix>
</trkpt>
<trkpt lat="40.0713749" lon="-105.229789">
  <ele>1583.0</ele>
  <time>2026-08-28T17:51:13Z</time>
  <course>0.0</course>
  <speed>0.0</speed>
  <fix>3d</fix>
</trkpt>
<trkpt lat="40.0713749" lon="-105.229789">
  <ele>1583.0</ele>
  <time>2026-08-28T17:51:13Z</time>
  <course>247.96</course>
  <speed>0.022360679774997897</speed>
  <fix>3d</fix>
</trkpt>
<trkpt lat="40.0713749" lon="-105.229789">
  <ele>1583.0</ele>
  <time>2026-08-28T17:51:13Z</time>
  <course>0.0</course>
  <speed>0.0</speed>
  <fix>3d</fix>
</trkpt>
<trkpt lat="40.0713749" lon="-105.229789">
  <ele>1583.0</ele>
  <time>2026-08-28T17:51:13Z</time>
  <course>247.96</course>
  <speed>0.022360679774997897</speed>
  <fix>3d</fix>
</trkpt>
<trkpt lat="40.0713749" lon="-105.229789">
  <ele>1583.0</ele>
  <time>2026-08-28T17:51:13Z</time>
  <course>0.0</course>
  <speed>0.0</speed>
  <fix>3d</fix>
</trkpt>
<trkpt lat="40.0713749" lon="-105.229789">
  <ele>1583.0</ele>
  <time>2026-08-28T17:51:13Z</time>
  <course>247.95</course>
  <speed>0.022360679774997897</speed>
  <fix>3d</fix>
</trkpt>
<trkpt lat="40.0713749" lon="-105.229789">
  <ele>1583.0</ele>
  <time>2026-08-28T17:51:13Z</time>
  <course>0.0</course>
  <speed>0.0</speed>
  <fix>3d</fix>
</trkpt>
<trkpt lat="40.0713749" lon="-105.229789">
  <ele>1583.0</ele>
  <time>2026-08-28T17:51:13Z</time>
  <course>247.95</course>
  <speed>0.022360679774997897</speed>
  <fix>3d</fix>
</trkpt>
<trkpt lat="40.0713749" lon="-105.229789">
  <ele>1583.0</ele>
  <time>2026-08-28T17:51:13Z</time>
  <course>0.0</course>
  <speed>0.0</speed>
  <fix>3d</fix>
</trkpt>
<trkpt lat="40.0713749" lon="-105.229789">
  <ele>1583.0</ele>
  <time>2026-08-28T17:51:13Z</time>
  <course>247.95</course>
  <speed>0.022360679774997897</speed>
  <fix>3d</fix>
</trkpt>
<trkpt lat="40.0713749" lon="-105.229789">
  <ele>1583.0</ele>
  <time>2026-08-28T17:51:13Z</time>
  <course>0.0</course>
  <speed>0.0</speed>
  <fix>3d</fix>
</trkpt>
<trkpt lat="40.0713749" lon="-105.229789">
  <ele>1583.0</ele>
  <time>2026-08-28T17:51:13Z</time>
  <course>247.94</course>
  <speed>0.022360679774997897</speed>
  <fix>3d</fix>
</trkpt>
<trkpt lat="40.0713749" lon="-105.229789">
  <ele>1583.0</ele>
  <time>2026-08-28T17:51:13Z</time>
  <course>0.0</course>
  <speed>0.0</speed>
  <fix>3d</fix>
</trkpt>
<trkpt lat="40.0713749" lon="-105.229789">
  <ele>1583.0</ele>
  <time>2026-08-28T17:51:13Z</time>
  <course>247.94</course>
  <speed>0.022360679774997897</speed>
  <fix>3d</fix>
</trkpt>
<trkpt lat="40.0713749" lon="-105.229789">
  <ele>1583.0</ele>
  <time>2026-08-28T17:51:13Z</time>
  <course>0.0</course>
  <speed>0.0</speed>
  <fix>3d</fix>
</trkpt>
<trkpt lat="40.0713749" lon="-105.229789">
  <ele>1583.0</ele>
  <time>2026-08-28T17:51:13Z</time>
  <course>247.93</course>
  <speed>0.022360679774997897</speed>
  <fix>3d</fix>
</trkpt>
<trkpt lat="40.0713749" lon="-105.229789">
  <ele>1583.0</ele>
  <time>2026-08-28T17:51:13Z</time>
  <course>0.0</course>
  <speed>0.0</speed>
  <fix>3d</fix>
</trkpt>
<trkpt lat="40.0713749" lon="-105.229789">
  <ele>1583.0</ele>
  <time>2026-08-28T17:51:13Z</time>
  <course>247.93</course>
  <speed>0.022360679774997897</speed>
  <fix>3d</fix>
</trkpt>
<trkpt lat="40.0713749" lon="-105.229789">
  <ele>1583.0</ele>
  <time>2026-08-28T17:51:13Z</time>
  <course>0.0</course>
  <speed>0.0</speed>
  <fix>3d</fix>
</trkpt>
<trkpt lat="40.0713749" lon="-105.229789">
  <ele>1583.0</ele>
  <time>2026-08-28T17:51:13Z</time>
  <course>247.92</course>
  <speed>0.022360679774997897</speed>
  <fix>3d</fix>
</trkpt>
<trkpt lat="40.0713749" lon="-105.229789">
  <ele>1583.0</ele>
  <time>2026-08-28T17:51:13Z</time>
  <course>0.0</course>
  <speed>0.0</speed>
  <fix>3d</fix>
</trkpt>
<trkpt lat="40.0713749" lon="-105.229789">
  <ele>1583.0</ele>
  <time>2026-08-28T17:51:13Z</time>
  <course>247.92</course>
  <speed>0.022360679774997897</speed>
  <fix>3d</fix>
</trkpt>
<trkpt lat="40.0713749" lon="-105.229789">
  <ele>1583.0</ele>
  <time>2026-08-28T17:51:13Z</time>
  <course>0.0</course>
  <speed>0.0</speed>
  <fix>3d</fix>
</trkpt>
<trkpt lat="40.0713749" lon="-105.229789">
  <ele>1583.0</ele>
  <time>2026-08-28T17:51:13Z</time>
  <course>247.92</course>
  <speed>0.022360679774997897</speed>
  <fix>3d</fix>
</trkpt>
<trkpt lat="40.0713749" lon="-105.229789">
  <ele>1583.0</ele>
  <time>2026-08-28T17:51:13Z</time>
  <course>0.0</course>
  <speed>0.0</speed>
  <fix>3d</fix>
</trkpt>
<trkpt lat="40.0713749" lon="-105.229789">
  <ele>1583.0</ele>
  <time>2026-08-28T17:51:13Z</time>
  <course>247.91</course>
  <speed>0.022360679774997897</speed>
  <fix>3d</fix>
</trkpt>
<trkpt lat="40.0713749" lon="-105.229789">
  <ele>1583.0</ele>
  <time>2026-08-28T17:51:13Z</time>
  <course>0.0</course>
  <speed>0.0</speed>
  <fix>3d</fix>
</trkpt>
<trkpt lat="40.0713749" lon="-105.229789">
  <ele>1583.0</ele>
  <time>2026-08-28T17:51:13Z</time>
  <course>247.91</course>
  <speed>0.022360679774997897</speed>
  <fix>3d</fix>
</trkpt>
<trkpt lat="40.0713749" lon="-105.229789">
  <ele>1583.0</ele>
  <time>2026-08-28T17:51:13Z</time>
  <course>0.0</course>
  <speed>0.0</speed>
  <fix>3d</fix>
</trkpt>
<trkpt lat="40.0713749" lon="-105.229789">
  <ele>1583.0</ele>
  <time>2026-08-28T17:51:13Z</time>
  <course>247.9</course>
  <speed>0.022360679774997897</speed>
  <fix>3d</fix>
</trkpt>
<trkpt lat="40.0713749" lon="-105.229789">
  <ele>1583.0</ele>
  <time>2026-08-28T17:51:13Z</time>
  <course>0.0</course>
  <speed>0.0</speed>
  <fix>3d</fix>
</trkpt>
<trkpt lat="40.0713749" lon="-105.229789">
  <ele>1583.0</ele>
  <time>2026-08-28T17:51:13Z</time>
  <course>247.9</course>
  <speed>0.022360679774997897</speed>
  <fix>3d</fix>
</trkpt>
<trkpt lat="40.0713749" lon="-105.229789">
  <ele>1583.0</ele>
  <time>2026-08-28T17:51:13Z</time>
  <course>0.0</course>
  <speed>0.0</speed>
  <fix>3d</fix>
</trkpt>
<trkpt lat="40.0713749" lon="-105.229789">
  <ele>1583.0</ele>
  <time>2026-08-28T17:51:13Z</time>
  <course>247.89</course>
  <speed>0.022360679774997897</speed>
  <fix>3d</fix>
</trkpt>
<trkpt lat="40.0713749" lon="-105.229789">
  <ele>1583.0</ele>
  <time>2026-08-28T17:51:13Z</time>
  <course>0.0</course>
  <speed>0.0</speed>
  <fix>3d</fix>
</trkpt>
<trkpt lat="40.0713749" lon="-105.229789">
  <ele>1583.0</ele>
  <time>2026-08-28T17:51:13Z</time>
  <course>247.89</course>
  <speed>0.022360679774997897</speed>
  <fix>3d</fix>
</trkpt>
<trkpt lat="40.0713749" lon="-105.229789">
  <ele>1583.0</ele>
  <time>2026-08-28T17:51:13Z</time>
  <course>0.0</course>
  <speed>0.0</speed>
  <fix>3d</fix>
</trkpt>
<trkpt lat="40.0713749" lon="-105.229789">
  <ele>1583.0</ele>
  <time>2026-08-28T17:51:13Z</time>
  <course>247.89</course>
  <speed>0.022360679774997897</speed>
  <fix>3d</fix>
</trkpt>
<trkpt lat="40.0713749" lon="-105.229789">
  <ele>1583.0</ele>
  <time>2026-08-28T17:51:13Z</time>
  <course>0.0</course>
  <speed>0.0</speed>
  <fix>3d</fix>
</trkpt>
<trkpt lat="40.0713749" lon="-105.229789">
  <ele>1583.0</ele>
  <time>2026-08-28T17:51:13Z</time>
  <course>247.88</course>
  <speed>0.0316227766016838</speed>
  <fix>3d</fix>
</trkpt>
<trkpt lat="40.0713749" lon="-105.229789">
  <ele>1583.0</ele>
  <time>2026-08-28T17:51:13Z</time>
  <course>0.0</course>
  <speed>0.0</speed>
  <fix>3d</fix>
</trkpt>
<trkpt lat="40.0713749" lon="-105.229789">
  <ele>1583.0</ele>
  <time>2026-08-28T17:51:13Z</time>
  <course>247.88</course>
  <speed>0.0316227766016838</speed>
  <fix>3d</fix>
</trkpt>
<trkpt lat="40.0713749" lon="-105.229789">
  <ele>1583.0</ele>
  <time>2026-08-28T17:51:13Z</time>
  <course>0.0</course>
  <speed>0.0</speed>
  <fix>3d</fix>
</trkpt>
<trkpt lat="40.0713749" lon="-105.229789">
  <ele>1583.0</ele>
  <time>2026-08-28T17:51:13Z</time>
  <course>247.87</course>
  <speed>0.0316227766016838</speed>
  <fix>3d</fix>
</trkpt>
<trkpt lat="40.0713749" lon="-105.229789">
  <ele>1583.0</ele>
  <time>2026-08-28T17:51:13Z</time>
  <course>0.0</course>
  <speed>0.0</speed>
  <fix>3d</fix>
</trkpt>
<trkpt lat="40.0713749" lon="-105.229789">
  <ele>1583.0</ele>
  <time>2026-08-28T17:51:13Z</time>
  <course>247.87</course>
  <speed>0.0316227766016838</speed>
  <fix>3d</fix>
</trkpt>
<trkpt lat="40.0713749" lon="-105.229789">
  <ele>1583.0</ele>
  <time>2026-08-28T17:51:13Z</time>
  <course>0.0</course>
  <speed>0.0</speed>
  <fix>3d</fix>
</trkpt>
<trkpt lat="40.0713749" lon="-105.229789">
  <ele>1583.0</ele>
  <time>2026-08-28T17:51:13Z</time>
  <course>247.87</course>
  <speed>0.0316227766016838</speed>
  <fix>3d</fix>
</trkpt>
<trkpt lat="40.0713749" lon="-105.229789">
  <ele>1583.0</ele>
  <time>2026-08-28T17:51:13Z</time>
  <course>0.0</course>
  <speed>0.0</speed>
  <fix>3d</fix>
</trkpt>
<trkpt lat="40.0713749" lon="-105.229789">
  <ele>1583.0</ele>
  <time>2026-08-28T17:51:13Z</time>
  <course>247.86</course>
  <speed>0.0316227766016838</speed>
  <fix>3d</fix>
</trkpt>
<trkpt lat="40.0713749" lon="-105.229789">
  <ele>1583.0</ele>
  <time>2026-08-28T17:51:13Z</time>
  <course>0.0</course>
  <speed>0.0</speed>
  <fix>3d</fix>
</trkpt>
<trkpt lat="40.0713749" lon="-105.229789">
  <ele>1583.0</ele>
  <time>2026-08-28T17:51:13Z</time>
  <course>247.86</course>
  <speed>0.0316227766016838</speed>
  <fix>3d</fix>
</trkpt>
<trkpt lat="40.0713749" lon="-105.229789">
  <ele>1583.0</ele>
  <time>2026-08-28T17:51:13Z</time>
  <course>0.0</course>
  <speed>0.0</speed>
  <fix>3d</fix>
</trkpt>
<trkpt lat="40.0713749" lon="-105.229789">
  <ele>1583.0</ele>
  <time>2026-08-28T17:51:13Z</time>
  <course>247.85</course>
  <speed>0.0316227766016838</speed>
  <fix>3d</fix>
</trkpt>
<trkpt lat="40.0713749" lon="-105.229789">
  <ele>1583.0</ele>
  <time>2026-08-28T17:51:13Z</time>
  <course>0.0</course>
  <speed>0.0</speed>
  <fix>3d</fix>
</trkpt>
<trkpt lat="40.0713749" lon="-105.229789">
  <ele>1583.0</ele>
  <time>2026-08-28T17:51:13Z</time>
  <course>247.85</course>
  <speed>0.0316227766016838</speed>
  <fix>3d</fix>
</trkpt>
<trkpt lat="40.0713749" lon="-105.229789">
  <ele>1583.0</ele>
  <time>2026-08-28T17:51:13Z</time>
  <course>0.0</course>
  <speed>0.0</speed>
  <fix>3d</fix>
</trkpt>
<trkpt lat="40.0713749" lon="-105.229789">
  <ele>1583.0</ele>
  <time>2026-08-28T17:51:13Z</time>
  <course>247.85</course>
  <speed>0.0316227766016838</speed>
  <fix>3d</fix>
</trkpt>
<trkpt lat="40.0713749" lon="-105.229789">
  <ele>1583.0</ele>
  <time>2026-08-28T17:51:13Z</time>
  <course>0.0</course>
  <speed>0.0</speed>
  <fix>3d</fix>
</trkpt>
<trkpt lat="40.0713749" lon="-105.229789">
  <ele>1583.0</ele>
  <time>2026-08-28T17:51:13Z</time>
  <course>247.84</course>
  <speed>0.0316227766016838</speed>
  <fix>3d</fix>
</trkpt>
<trkpt lat="40.0713749" lon="-105.229789">
  <ele>1583.0</ele>
  <time>2026-08-28T17:51:13Z</time>
  <course>0.0</course>
  <speed>0.0</speed>
  <fix>3d</fix>
</trkpt>
<trkpt lat="40.0713749" lon="-105.229789">
  <ele>1583.0</ele>
  <time>2026-08-28T17:51:13Z</time>
  <course>247.84</course>
  <speed>0.0316227766016838</speed>
  <fix>3d</fix>
</trkpt>
<trkpt lat="40.0713749" lon="-105.229789">
  <ele>1583.0</ele>
  <time>2026-08-28T17:51:13Z</time>
  <course>0.0</course>
  <speed>0.0</speed>
  <fix>3d</fix>
</trkpt>
<trkpt lat="40.0713749" lon="-105.229789">
  <ele>1583.0</ele>
  <time>2026-08-28T17:51:13Z</time>
  <course>247.83</course>
  <speed>0.0316227766016838</speed>
  <fix>3d</fix>
</trkpt>
<trkpt lat="40.0713749" lon="-105.229789">
  <ele>1583.0</ele>
  <time>2026-08-28T17:51:13Z</time>
  <course>0.0</course>
  <speed>0.0</speed>
  <fix>3d</fix>
</trkpt>
<trkpt lat="40.0713749" lon="-105.229789">
  <ele>1583.0</ele>
  <time>2026-08-28T17:51:13Z</time>
  <course>247.83</course>
  <speed>0.0316227766016838</speed>
  <fix>3d</fix>
</trkpt>
<trkpt lat="40.0713749" lon="-105.229789">
  <ele>1583.0</ele>
  <time>2026-08-28T17:51:13Z</time>
  <course>0.0</course>
  <speed>0.0</speed>
  <fix>3d</fix>
</trkpt>
<trkpt lat="40.0713749" lon="-105.229789">
  <ele>1583.0</ele>
  <time>2026-08-28T17:51:13Z</time>
  <course>247.83</course>
  <speed>0.0316227766016838</speed>
  <fix>3d</fix>
</trkpt>
<trkpt lat="40.0713749" lon="-105.229789">
  <ele>1583.0</ele>
  <time>2026-08-28T17:51:13Z</time>
  <course>0.0</course>
  <speed>0.0</speed>
  <fix>3d</fix>
</trkpt>
<trkpt lat="40.0713749" lon="-105.229789">
  <ele>1583.0</ele>
  <time>2026-08-28T17:51:13Z</time>
  <course>247.82</course>
  <speed>0.0316227766016838</speed>
  <fix>3d</fix>
</trkpt>
<trkpt lat="40.0713749" lon="-105.229789">
  <ele>1583.0</ele>
  <time>2026-08-28T17:51:13Z</time>
  <course>0.0</course>
  <speed>0.0</speed>
  <fix>3d</fix>
</trkpt>
<trkpt lat="40.0713749" lon="-105.229789">
  <ele>1583.0</ele>
  <time>2026-08-28T17:51:13Z</time>
  <course>247.82</course>
  <speed>0.0316227766016838</speed>
  <fix>3d</fix>
</trkpt>
<trkpt lat="40.0713749" lon="-105.229789">
  <ele>1583.0</ele>
  <time>2026-08-28T17:51:13Z</time>
  <course>0.0</course>
  <speed>0.0</speed>
  <fix>3d</fix>
</trkpt>
<trkpt lat="40.0713749" lon="-105.229789">
  <ele>1583.0</ele>
  <time>2026-08-28T17:51:13Z</time>
  <course>247.82</course>
  <speed>0.0316227766016838</speed>
  <fix>3d</fix>
</trkpt>
<trkpt lat="40.0713749" lon="-105.229789">
  <ele>1583.0</ele>
  <time>2026-08-28T17:51:13Z</time>
  <course>0.0</course>
  <speed>0.0</speed>
  <fix>3d</fix>
</trkpt>
<trkpt lat="40.0713749" lon="-105.229789">
  <ele>1583.0</ele>
  <time>2026-08-28T17:51:13Z</time>
  <course>247.81</course>
  <speed>0.0316227766016838</speed>
  <fix>3d</fix>
</trkpt>
<trkpt lat="40.0713749" lon="-105.229789">
  <ele>1583.0</ele>
  <time>2026-08-28T17:51:13Z</time>
  <course>0.0</course>
  <speed>0.0</speed>
  <fix>3d</fix>
</trkpt>
<trkpt lat="40.0713749" lon="-105.229789">
  <ele>1583.0</ele>
  <time>2026-08-28T17:51:13Z</time>
  <course>247.81</course>
  <speed>0.0316227766016838</speed>
  <fix>3d</fix>
</trkpt>
<trkpt lat="40.0713749" lon="-105.229789">
  <ele>1583.0</ele>
  <time>2026-08-28T17:51:13Z</time>
  <course>0.0</course>
  <speed>0.0</speed>
  <fix>3d</fix>
</trkpt>
<trkpt lat="40.0713749" lon="-105.229789">
  <ele>1583.0</ele>
  <time>2026-08-28T17:51:13Z</time>
  <course>247.8</course>
  <speed>0.0316227766016838</speed>
  <fix>3d</fix>
</trkpt>
<trkpt lat="40.0713749" lon="-105.229789">
  <ele>1583.0</ele>
  <time>2026-08-28T17:51:13Z</time>
  <course>0.0</course>
  <speed>0.0</speed>
  <fix>3d</fix>
</trkpt>
<trkpt lat="40.0713749" lon="-105.229789">
  <ele>1583.0</ele>
  <time>2026-08-28T17:51:13Z</time>
  <course>247.8</course>
  <speed>0.0316227766016838</speed>
  <fix>3d</fix>
</trkpt>
<trkpt lat="40.0713749" lon="-105.229789">
  <ele>1583.0</ele>
  <time>2026-08-28T17:51:13Z</time>
  <course>0.0</course>
  <speed>0.0</speed>
  <fix>3d</fix>
</trkpt>
<trkpt lat="40.0713749" lon="-105.229789">
  <ele>1583.0</ele>
  <time>2026-08-28T17:51:13Z</time>
  <course>247.8</course>
  <speed>0.0316227766016838</speed>
  <fix>3d</fix>
</trkpt>
<trkpt lat="40.0713749" lon="-105.229789">
  <ele>1583.0</ele>
  <time>2026-08-28T17:51:13Z</time>
  <course>0.0</course>
  <speed>0.0</speed>
  <fix>3d</fix>
</trkpt>
<trkpt lat="40.0713749" lon="-105.229789">
  <ele>1583.0</ele>
  <time>2026-08-28T17:51:13Z</time>
  <course>247.79</course>
  <speed>0.0316227766016838</speed>
  <fix>3d</fix>
</trkpt>
<trkpt lat="40.0713749" lon="-105.229789">
  <ele>1583.0</ele>
  <time>2026-08-28T17:51:13Z</time>
  <course>0.0</course>
  <speed>0.0</speed>
  <fix>3d</fix>
</trkpt>
<trkpt lat="40.0713749" lon="-105.229789">
  <ele>1583.0</ele>
  <time>2026-08-28T17:51:13Z</time>
  <course>247.79</course>
  <speed>0.0316227766016838</speed>
  <fix>3d</fix>
</trkpt>
<trkpt lat="40.0713749" lon="-105.229789">
  <ele>1583.0</ele>
  <time>2026-08-28T17:51:13Z</time>
  <course>0.0</course>
  <speed>0.0</speed>
  <fix>3d</fix>
</trkpt>
<trkpt lat="40.0713749" lon="-105.229789">
  <ele>1583.0</ele>
  <time>2026-08-28T17:51:13Z</time>
  <course>247.79</course>
  <speed>0.0316227766016838</speed>
  <fix>3d</fix>
</trkpt>
<trkpt lat="40.0713749" lon="-105.229789">
  <ele>1583.0</ele>
  <time>2026-08-28T17:51:13Z</time>
  <course>0.0</course>
  <speed>0.0</speed>
  <fix>3d</fix>
</trkpt>
<trkpt lat="40.0713749" lon="-105.229789">
  <ele>1583.0</ele>
  <time>2026-08-28T17:51:13Z</time>
  <course>247.78</course>
  <speed>0.0316227766016838</speed>
  <fix>3d</fix>
</trkpt>
<trkpt lat="40.0713749" lon="-105.229789">
  <ele>1583.0</ele>
  <time>2026-08-28T17:51:13Z</time>
  <course>0.0</course>
  <speed>0.0</speed>
  <fix>3d</fix>
</trkpt>
<trkpt lat="40.0713749" lon="-105.229789">
  <ele>1583.0</ele>
  <time>2026-08-28T17:51:13Z</time>
  <course>247.78</course>
  <speed>0.0316227766016838</speed>
  <fix>3d</fix>
</trkpt>
<trkpt lat="40.0713749" lon="-105.229789">
  <ele>1583.0</ele>
  <time>2026-08-28T17:51:13Z</time>
  <course>0.0</course>
  <speed>0.0</speed>
  <fix>3d</fix>
</trkpt>
<trkpt lat="40.0713749" lon="-105.229789">
  <ele>1583.0</ele>
  <time>2026-08-28T17:51:13Z</time>
  <course>247.78</course>
  <speed>0.0316227766016838</speed>
  <fix>3d</fix>
</trkpt>
<trkpt lat="40.0713749" lon="-105.229789">
  <ele>1583.0</ele>
  <time>2026-08-28T17:51:13Z</time>
  <course>0.0</course>
  <speed>0.0</speed>
  <fix>3d</fix>
</trkpt>
<trkpt lat="40.0713749" lon="-105.229789">
  <ele>1583.0</ele>
  <time>2026-08-28T17:51:13Z</time>
  <course>247.77</course>
  <speed>0.0316227766016838</speed>
  <fix>3d</fix>
</trkpt>
<trkpt lat="40.0713749" lon="-105.229789">
  <ele>1583.0</ele>
  <time>2026-08-28T17:51:13Z</time>
  <course>0.0</course>
  <speed>0.0</speed>
  <fix>3d</fix>
</trkpt>
<trkpt lat="40.0713749" lon="-105.229789">
  <ele>1583.0</ele>
  <time>2026-08-28T17:51:13Z</time>
  <course>247.77</course>
  <speed>0.0316227766016838</speed>
  <fix>3d</fix>
</trkpt>
<trkpt lat="40.0713749" lon="-105.229789">
  <ele>1583.0</ele>
  <time>2026-08-28T17:51:13Z</time>
  <course>0.0</course>
  <speed>0.0</speed>
  <fix>3d</fix>
</trkpt>
<trkpt lat="40.0713749" lon="-105.229789">
  <ele>1583.0</ele>
  <time>2026-08-28T17:51:13Z</time>
  <course>247.76</course>
  <speed>0.0316227766016838</speed>
  <fix>3d</fix>
</trkpt>
<trkpt lat="40.0713749" lon="-105.229789">
  <ele>1583.0</ele>
  <time>2026-08-28T17:51:13Z</time>
  <course>0.0</course>
  <speed>0.0</speed>
  <fix>3d</fix>
</trkpt>
<trkpt lat="40.0713749" lon="-105.229789">
  <ele>1583.0</ele>
  <time>2026-08-28T17:51:13Z</time>
  <course>247.76</course>
  <speed>0.0316227766016838</speed>
  <fix>3d</fix>
</trkpt>
<trkpt lat="40.0713749" lon="-105.229789">
  <ele>1583.0</ele>
  <time>2026-08-28T17:51:13Z</time>
  <course>0.0</course>
  <speed>0.0</speed>
  <fix>3d</fix>
</trkpt>
<trkpt lat="40.0713749" lon="-105.229789">
  <ele>1583.0</ele>
  <time>2026-08-28T17:51:13Z</time>
  <course>247.76</course>
  <speed>0.0316227766016838</speed>
  <fix>3d</fix>
</trkpt>
<trkpt lat="40.0713749" lon="-105.229789">
  <ele>1583.0</ele>
  <time>2026-08-28T17:51:13Z</time>
  <course>0.0</course>
  <speed>0.0</speed>
  <fix>3d</fix>
</trkpt>
<trkpt lat="40.0713749" lon="-105.229789">
  <ele>1583.0</ele>
  <time>2026-08-28T17:51:13Z</time>
  <course>247.75</course>
  <speed>0.0316227766016838</speed>
  <fix>3d</fix>
</trkpt>
<trkpt lat="40.0713749" lon="-105.229789">
  <ele>1583.0</ele>
  <time>2026-08-28T17:51:13Z</time>
  <course>0.0</course>
  <speed>0.0</speed>
  <fix>3d</fix>
</trkpt>
<trkpt lat="40.0713749" lon="-105.229789">
  <ele>1583.0</ele>
  <time>2026-08-28T17:51:13Z</time>
  <course>247.75</course>
  <speed>0.0316227766016838</speed>
  <fix>3d</fix>
</trkpt>
<trkpt lat="40.0713749" lon="-105.229789">
  <ele>1583.0</ele>
  <time>2026-08-28T17:51:13Z</time>
  <course>0.0</course>
  <speed>0.0</speed>
  <fix>3d</fix>
</trkpt>
<trkpt lat="40.0713749" lon="-105.229789">
  <ele>1583.0</ele>
  <time>2026-08-28T17:51:13Z</time>
  <course>247.75</course>
  <speed>0.0316227766016838</speed>
  <fix>3d</fix>
</trkpt>
<trkpt lat="40.0713749" lon="-105.229789">
  <ele>1583.0</ele>
  <time>2026-08-28T17:51:13Z</time>
  <course>0.0</course>
  <speed>0.0</speed>
  <fix>3d</fix>
</trkpt>
<trkpt lat="40.0713749" lon="-105.229789">
  <ele>1583.0</ele>
  <time>2026-08-28T17:51:13Z</time>
  <course>247.74</course>
  <speed>0.0316227766016838</speed>
  <fix>3d</fix>
</trkpt>
<trkpt lat="40.0713749" lon="-105.229789">
  <ele>1583.0</ele>
  <time>2026-08-28T17:51:13Z</time>
  <course>0.0</course>
  <speed>0.0</speed>
  <fix>3d</fix>
</trkpt>
<trkpt lat="40.0713749" lon="-105.229789">
  <ele>1583.0</ele>
  <time>2026-08-28T17:51:13Z</time>
  <course>247.74</course>
  <speed>0.0316227766016838</speed>
  <fix>3d</fix>
</trkpt>
<trkpt lat="40.0713749" lon="-105.229789">
  <ele>1583.0</ele>
  <time>2026-08-28T17:51:13Z</time>
  <course>0.0</course>
  <speed>0.0</speed>
  <fix>3d</fix>
</trkpt>
<trkpt lat="40.0713749" lon="-105.229789">
  <ele>1583.0</ele>
  <time>2026-08-28T17:51:13Z</time>
  <course>247.74</course>
  <speed>0.0316227766016838</speed>
  <fix>3d</fix>
</trkpt>
<trkpt lat="40.0713749" lon="-105.229789">
  <ele>1583.0</ele>
  <time>2026-08-28T17:51:13Z</time>
  <course>0.0</course>
  <speed>0.0</speed>
  <fix>3d</fix>
</trkpt>
<trkpt lat="40.0713749" lon="-105.229789">
  <ele>1583.0</ele>
  <time>2026-08-28T17:51:13Z</time>
  <course>247.73</course>
  <speed>0.0316227766016838</speed>
  <fix>3d</fix>
</trkpt>
<trkpt lat="40.0713749" lon="-105.229789">
  <ele>1583.0</ele>
  <time>2026-08-28T17:51:13Z</time>
  <course>0.0</course>
  <speed>0.0</speed>
  <fix>3d</fix>
</trkpt>
<trkpt lat="40.0713749" lon="-105.229789">
  <ele>1583.0</ele>
  <time>2026-08-28T17:51:13Z</time>
  <course>247.73</course>
  <speed>0.0316227766016838</speed>
  <fix>3d</fix>
</trkpt>
<trkpt lat="40.0713749" lon="-105.229789">
  <ele>1583.0</ele>
  <time>2026-08-28T17:51:13Z</time>
  <course>0.0</course>
  <speed>0.0</speed>
  <fix>3d</fix>
</trkpt>
<trkpt lat="40.0713749" lon="-105.229789">
  <ele>1583.0</ele>
  <time>2026-08-28T17:51:13Z</time>
  <course>247.73</course>
  <speed>0.0316227766016838</speed>
  <fix>3d</fix>
</trkpt>
<trkpt lat="40.0713749" lon="-105.229789">
  <ele>1583.0</ele>
  <time>2026-08-28T17:51:13Z</time>
  <course>0.0</course>
  <speed>0.0</speed>
  <fix>3d</fix>
</trkpt>
<trkpt lat="40.0713749" lon="-105.229789">
  <ele>1583.0</ele>
  <time>2026-08-28T17:51:13Z</time>
  <course>247.72</course>
  <speed>0.0316227766016838</speed>
  <fix>3d</fix>
</trkpt>
<trkpt lat="40.0713749" lon="-105.229789">
  <ele>1583.0</ele>
  <time>2026-08-28T17:51:13Z</time>
  <course>0.0</course>
  <speed>0.0</speed>
  <fix>3d</fix>
</trkpt>
<trkpt lat="40.0713749" lon="-105.229789">
  <ele>1583.0</ele>
  <time>2026-08-28T17:51:13Z</time>
  <course>247.72</course>
  <speed>0.0316227766016838</speed>
  <fix>3d</fix>
</trkpt>
<trkpt lat="40.0713749" lon="-105.229789">
  <ele>1583.0</ele>
  <time>2026-08-28T17:51:13Z</time>
  <course>0.0</course>
  <speed>0.0</speed>
  <fix>3d</fix>
</trkpt>
<trkpt lat="40.0713749" lon="-105.229789">
  <ele>1583.0</ele>
  <time>2026-08-28T17:51:13Z</time>
  <course>247.72</course>
  <speed>0.0316227766016838</speed>
  <fix>3d</fix>
</trkpt>
<trkpt lat="40.0713749" lon="-105.229789">
  <ele>1583.0</ele>
  <time>2026-08-28T17:51:13Z</time>
  <course>0.0</course>
  <speed>0.0</speed>
  <fix>3d</fix>
</trkpt>
<trkpt lat="40.0713749" lon="-105.229789">
  <ele>1583.0</ele>
  <time>2026-08-28T17:51:13Z</time>
  <course>247.71</course>
  <speed>0.0316227766016838</speed>
  <fix>3d</fix>
</trkpt>
<trkpt lat="40.0713749" lon="-105.229789">
  <ele>1583.0</ele>
  <time>2026-08-28T17:51:13Z</time>
  <course>0.0</course>
  <speed>0.0</speed>
  <fix>3d</fix>
</trkpt>
<trkpt lat="40.0713749" lon="-105.229789">
  <ele>1583.0</ele>
  <time>2026-08-28T17:51:13Z</time>
  <course>247.71</course>
  <speed>0.0316227766016838</speed>
  <fix>3d</fix>
</trkpt>
<trkpt lat="40.0713749" lon="-105.229789">
  <ele>1583.0</ele>
  <time>2026-08-28T17:51:13Z</time>
  <course>0.0</course>
  <speed>0.0</speed>
  <fix>3d</fix>
</trkpt>
<trkpt lat="40.0713749" lon="-105.229789">
  <ele>1583.0</ele>
  <time>2026-08-28T17:51:13Z</time>
  <course>247.71</course>
  <speed>0.0316227766016838</speed>
  <fix>3d</fix>
</trkpt>
<trkpt lat="40.0713749" lon="-105.229789">
  <ele>1583.0</ele>
  <time>2026-08-28T17:51:13Z</time>
  <course>0.0</course>
  <speed>0.0</speed>
  <fix>3d</fix>
</trkpt>
<trkpt lat="40.0713749" lon="-105.229789">
  <ele>1583.0</ele>
  <time>2026-08-28T17:51:13Z</time>
  <course>247.7</course>
  <speed>0.0316227766016838</speed>
  <fix>3d</fix>
</trkpt>
<trkpt lat="40.0713749" lon="-105.229789">
  <ele>1583.0</ele>
  <time>2026-08-28T17:51:13Z</time>
  <course>0.0</course>
  <speed>0.0</speed>
  <fix>3d</fix>
</trkpt>
<trkpt lat="40.0713749" lon="-105.229789">
  <ele>1583.0</ele>
  <time>2026-08-28T17:51:13Z</time>
  <course>247.7</course>
  <speed>0.0316227766016838</speed>
  <fix>3d</fix>
</trkpt>
<trkpt lat="40.0713749" lon="-105.229789">
  <ele>1583.0</ele>
  <time>2026-08-28T17:51:13Z</time>
  <course>0.0</course>
  <speed>0.0</speed>
  <fix>3d</fix>
</trkpt>
<trkpt lat="40.0713749" lon="-105.229789">
  <ele>1583.0</ele>
  <time>2026-08-28T17:51:13Z</time>
  <course>247.7</course>
  <speed>0.0316227766016838</speed>
  <fix>3d</fix>
</trkpt>
<trkpt lat="40.0713749" lon="-105.229789">
  <ele>1583.0</ele>
  <time>2026-08-28T17:51:13Z</time>
  <course>0.0</course>
  <speed>0.0</speed>
  <fix>3d</fix>
</trkpt>
<trkpt lat="40.0713749" lon="-105.229789">
  <ele>1583.0</ele>
  <time>2026-08-28T17:51:13Z</time>
  <course>247.69</course>
  <speed>0.0316227766016838</speed>
  <fix>3d</fix>
</trkpt>
<trkpt lat="40.0713749" lon="-105.229789">
  <ele>1583.0</ele>
  <time>2026-08-28T17:51:13Z</time>
  <course>0.0</course>
  <speed>0.0</speed>
  <fix>3d</fix>
</trkpt>
<trkpt lat="40.0713749" lon="-105.229789">
  <ele>1583.0</ele>
  <time>2026-08-28T17:51:13Z</time>
  <course>247.69</course>
  <speed>0.0316227766016838</speed>
  <fix>3d</fix>
</trkpt>
<trkpt lat="40.0713749" lon="-105.229789">
  <ele>1583.0</ele>
  <time>2026-08-28T17:51:13Z</time>
  <course>0.0</course>
  <speed>0.0</speed>
  <fix>3d</fix>
</trkpt>
<trkpt lat="40.0713749" lon="-105.229789">
  <ele>1583.0</ele>
  <time>2026-08-28T17:51:13Z</time>
  <course>247.69</course>
  <speed>0.0316227766016838</speed>
  <fix>3d</fix>
</trkpt>
<trkpt lat="40.0713749" lon="-105.229789">
  <ele>1583.0</ele>
  <time>2026-08-28T17:51:13Z</time>
  <course>0.0</course>
  <speed>0.0</speed>
  <fix>3d</fix>
</trkpt>
<trkpt lat="40.0713749" lon="-105.229789">
  <ele>1583.0</ele>
  <time>2026-08-28T17:51:13Z</time>
  <course>247.68</course>
  <speed>0.0316227766016838</speed>
  <fix>3d</fix>
</trkpt>
<trkpt lat="40.0713749" lon="-105.229789">
  <ele>1583.0</ele>
  <time>2026-08-28T17:51:13Z</time>
  <course>0.0</course>
  <speed>0.0</speed>
  <fix>3d</fix>
</trkpt>
<trkpt lat="40.0713749" lon="-105.229789">
  <ele>1583.0</ele>
  <time>2026-08-28T17:51:13Z</time>
  <course>247.68</course>
  <speed>0.0316227766016838</speed>
  <fix>3d</fix>
</trkpt>
<trkpt lat="40.0713749" lon="-105.229789">
  <ele>1583.0</ele>
  <time>2026-08-28T17:51:13Z</time>
  <course>0.0</course>
  <speed>0.0</speed>
  <fix>3d</fix>
</trkpt>
<trkpt lat="40.0713749" lon="-105.229789">
  <ele>1583.0</ele>
  <time>2026-08-28T17:51:13Z</time>
  <course>247.68</course>
  <speed>0.0316227766016838</speed>
  <fix>3d</fix>
</trkpt>
<trkpt lat="40.0713749" lon="-105.229789">
  <ele>1583.0</ele>
  <time>2026-08-28T17:51:13Z</time>
  <course>0.0</course>
  <speed>0.0</speed>
  <fix>3d</fix>
</trkpt>
<trkpt lat="40.0713749" lon="-105.229789">
  <ele>1583.0</ele>
  <time>2026-08-28T17:51:13Z</time>
  <course>247.67</course>
  <speed>0.0316227766016838</speed>
  <fix>3d</fix>
</trkpt>
<trkpt lat="40.0713749" lon="-105.229789">
  <ele>1583.0</ele>
  <time>2026-08-28T17:51:13Z</time>
  <course>0.0</course>
  <speed>0.0</speed>
  <fix>3d</fix>
</trkpt>
<trkpt lat="40.0713749" lon="-105.229789">
  <ele>1583.0</ele>
  <time>2026-08-28T17:51:13Z</time>
  <course>247.67</course>
  <speed>0.0316227766016838</speed>
  <fix>3d</fix>
</trkpt>
<trkpt lat="40.0713749" lon="-105.229789">
  <ele>1583.0</ele>
  <time>2026-08-28T17:51:13Z</time>
  <course>0.0</course>
  <speed>0.0</speed>
  <fix>3d</fix>
</trkpt>
<trkpt lat="40.0713749" lon="-105.229789">
  <ele>1583.0</ele>
  <time>2026-08-28T17:51:13Z</time>
  <course>247.67</course>
  <speed>0.0316227766016838</speed>
  <fix>3d</fix>
</trkpt>
<trkpt lat="40.0713749" lon="-105.229789">
  <ele>1583.0</ele>
  <time>2026-08-28T17:51:13Z</time>
  <course>0.0</course>
  <speed>0.0</speed>
  <fix>3d</fix>
</trkpt>
<trkpt lat="40.0713749" lon="-105.229789">
  <ele>1583.0</ele>
  <time>2026-08-28T17:51:13Z</time>
  <course>247.66</course>
  <speed>0.0316227766016838</speed>
  <fix>3d</fix>
</trkpt>
<trkpt lat="40.0713749" lon="-105.229789">
  <ele>1583.0</ele>
  <time>2026-08-28T17:51:13Z</time>
  <course>0.0</course>
  <speed>0.0</speed>
  <fix>3d</fix>
</trkpt>
<trkpt lat="40.0713749" lon="-105.229789">
  <ele>1583.0</ele>
  <time>2026-08-28T17:51:13Z</time>
  <course>247.66</course>
  <speed>0.0316227766016838</speed>
  <fix>3d</fix>
</trkpt>
<trkpt lat="40.0713749" lon="-105.229789">
  <ele>1583.0</ele>
  <time>2026-08-28T17:51:13Z</time>
  <course>0.0</course>
  <speed>0.0</speed>
  <fix>3d</fix>
</trkpt>
<trkpt lat="40.0713749" lon="-105.229789">
  <ele>1583.0</ele>
  <time>2026-08-28T17:51:13Z</time>
  <course>247.66</course>
  <speed>0.0316227766016838</speed>
  <fix>3d</fix>
</trkpt>
<trkpt lat="40.0713749" lon="-105.229789">
  <ele>1583.0</ele>
  <time>2026-08-28T17:51:13Z</time>
  <course>0.0</course>
  <speed>0.0</speed>
  <fix>3d</fix>
</trkpt>
<trkpt lat="40.0713749" lon="-105.229789">
  <ele>1583.0</ele>
  <time>2026-08-28T17:51:13Z</time>
  <course>247.65</course>
  <speed>0.0316227766016838</speed>
  <fix>3d</fix>
</trkpt>
<trkpt lat="40.0713749" lon="-105.229789">
  <ele>1583.0</ele>
  <time>2026-08-28T17:51:13Z</time>
  <course>0.0</course>
  <speed>0.0</speed>
  <fix>3d</fix>
</trkpt>
<trkpt lat="40.0713749" lon="-105.229789">
  <ele>1583.0</ele>
  <time>2026-08-28T17:51:13Z</time>
  <course>247.65</course>
  <speed>0.0316227766016838</speed>
  <fix>3d</fix>
</trkpt>
<trkpt lat="40.0713749" lon="-105.229789">
  <ele>1583.0</ele>
  <time>2026-08-28T17:51:13Z</time>
  <course>0.0</course>
  <speed>0.0</speed>
  <fix>3d</fix>
</trkpt>
<trkpt lat="40.0713749" lon="-105.229789">
  <ele>1583.0</ele>
  <time>2026-08-28T17:51:13Z</time>
  <course>247.65</course>
  <speed>0.0316227766016838</speed>
  <fix>3d</fix>
</trkpt>
<trkpt lat="40.0713749" lon="-105.229789">
  <ele>1583.0</ele>
  <time>2026-08-28T17:51:13Z</time>
  <course>0.0</course>
  <speed>0.0</speed>
  <fix>3d</fix>
</trkpt>
<trkpt lat="40.0713749" lon="-105.229789">
  <ele>1583.0</ele>
  <time>2026-08-28T17:51:13Z</time>
  <course>247.64</course>
  <speed>0.0316227766016838</speed>
  <fix>3d</fix>
</trkpt>
<trkpt lat="40.0713749" lon="-105.229789">
  <ele>1583.0</ele>
  <time>2026-08-28T17:51:13Z</time>
  <course>0.0</course>
  <speed>0.0</speed>
  <fix>3d</fix>
</trkpt>
<trkpt lat="40.0713749" lon="-105.229789">
  <ele>1583.0</ele>
  <time>2026-08-28T17:51:13Z</time>
  <course>247.64</course>
  <speed>0.0316227766016838</speed>
  <fix>3d</fix>
</trkpt>
<trkpt lat="40.0713749" lon="-105.229789">
  <ele>1583.0</ele>
  <time>2026-08-28T17:51:13Z</time>
  <course>0.0</course>
  <speed>0.0</speed>
  <fix>3d</fix>
</trkpt>
<trkpt lat="40.0713749" lon="-105.229789">
  <ele>1583.0</ele>
  <time>2026-08-28T17:51:13Z</time>
  <course>247.64</course>
  <speed>0.0316227766016838</speed>
  <fix>3d</fix>
</trkpt>
<trkpt lat="40.0713749" lon="-105.229789">
  <ele>1583.0</ele>
  <time>2026-08-28T17:51:13Z</time>
  <course>0.0</course>
  <speed>0.0</speed>
  <fix>3d</fix>
</trkpt>
<trkpt lat="40.0713749" lon="-105.229789">
  <ele>1583.0</ele>
  <time>2026-08-28T17:51:13Z</time>
  <course>247.64</course>
  <speed>0.0316227766016838</speed>
  <fix>3d</fix>
</trkpt>
<trkpt lat="40.0713749" lon="-105.229789">
  <ele>1583.0</ele>
  <time>2026-08-28T17:51:13Z</time>
  <course>0.0</course>
  <speed>0.0</speed>
  <fix>3d</fix>
</trkpt>
<trkpt lat="40.0713749" lon="-105.229789">
  <ele>1583.0</ele>
  <time>2026-08-28T17:51:13Z</time>
  <course>247.63</course>
  <speed>0.0316227766016838</speed>
  <fix>3d</fix>
</trkpt>
<trkpt lat="40.0713749" lon="-105.229789">
  <ele>1583.0</ele>
  <time>2026-08-28T17:51:13Z</time>
  <course>0.0</course>
  <speed>0.0</speed>
  <fix>3d</fix>
</trkpt>
<trkpt lat="40.0713749" lon="-105.229789">
  <ele>1583.0</ele>
  <time>2026-08-28T17:51:13Z</time>
  <course>247.63</course>
  <speed>0.0316227766016838</speed>
  <fix>3d</fix>
</trkpt>
<trkpt lat="40.0713749" lon="-105.229789">
  <ele>1583.0</ele>
  <time>2026-08-28T17:51:13Z</time>
  <course>0.0</course>
  <speed>0.0</speed>
  <fix>3d</fix>
</trkpt>
<trkpt lat="40.0713749" lon="-105.229789">
  <ele>1583.0</ele>
  <time>2026-08-28T17:51:13Z</time>
  <course>247.63</course>
  <speed>0.0316227766016838</speed>
  <fix>3d</fix>
</trkpt>
<trkpt lat="40.0713749" lon="-105.229789">
  <ele>1583.0</ele>
  <time>2026-08-28T17:51:13Z</time>
  <course>0.0</course>
  <speed>0.0</speed>
  <fix>3d</fix>
</trkpt>
<trkpt lat="40.0713749" lon="-105.229789">
  <ele>1583.0</ele>
  <time>2026-08-28T17:51:13Z</time>
  <course>247.62</course>
  <speed>0.0316227766016838</speed>
  <fix>3d</fix>
</trkpt>
<trkpt lat="40.0713749" lon="-105.229789">
  <ele>1583.0</ele>
  <time>2026-08-28T17:51:13Z</time>
  <course>0.0</course>
  <speed>0.0</speed>
  <fix>3d</fix>
</trkpt>
<trkpt lat="40.0713749" lon="-105.229789">
  <ele>1583.0</ele>
  <time>2026-08-28T17:51:13Z</time>
  <course>247.62</course>
  <speed>0.0316227766016838</speed>
  <fix>3d</fix>
</trkpt>
<trkpt lat="40.0713749" lon="-105.229789">
  <ele>1583.0</ele>
  <time>2026-08-28T17:51:13Z</time>
  <course>0.0</course>
  <speed>0.0</speed>
  <fix>3d</fix>
</trkpt>
<trkpt lat="40.0713749" lon="-105.229789">
  <ele>1583.0</ele>
  <time>2026-08-28T17:51:13Z</time>
  <course>247.62</course>
  <speed>0.0316227766016838</speed>
  <fix>3d</fix>
</trkpt>
<trkpt lat="40.0713749" lon="-105.229789">
  <ele>1583.0</ele>
  <time>2026-08-28T17:51:13Z</time>
  <course>0.0</course>
  <speed>0.0</speed>
  <fix>3d</fix>
</trkpt>
<trkpt lat="40.0713749" lon="-105.229789">
  <ele>1583.0</ele>
  <time>2026-08-28T17:51:13Z</time>
  <course>247.61</course>
  <speed>0.0316227766016838</speed>
  <fix>3d</fix>
</trkpt>
<trkpt lat="40.0713749" lon="-105.229789">
  <ele>1583.0</ele>
  <time>2026-08-28T17:51:13Z</time>
  <course>0.0</course>
  <speed>0.0</speed>
  <fix>3d</fix>
</trkpt>
<trkpt lat="40.0713749" lon="-105.229789">
  <ele>1583.0</ele>
  <time>2026-08-28T17:51:13Z</time>
  <course>247.6</course>
  <speed>0.0316227766016838</speed>
  <fix>3d</fix>
</trkpt>
<trkpt lat="40.0713749" lon="-105.229789">
  <ele>1583.0</ele>
  <time>2026-08-28T17:51:13Z</time>
  <course>0.0</course>
  <speed>0.0</speed>
  <fix>3d</fix>
</trkpt>
<trkpt lat="40.0713749" lon="-105.229789">
  <ele>1583.0</ele>
  <time>2026-08-28T17:51:14Z</time>
  <course>247.6</course>
  <speed>0.0316227766016838</speed>
  <fix>3d</fix>
</trkpt>
<trkpt lat="40.0713749" lon="-105.229789">
  <ele>1583.0</ele>
  <time>2026-08-28T17:51:14Z</time>
  <course>0.0</course>
  <speed>0.0</speed>
  <fix>3d</fix>
</trkpt>
<trkpt lat="40.0713749" lon="-105.229789">
  <ele>1583.0</ele>
  <time>2026-08-28T17:51:14Z</time>
  <course>247.59</course>
  <speed>0.0316227766016838</speed>
  <fix>3d</fix>
</trkpt>
<trkpt lat="40.0713749" lon="-105.229789">
  <ele>1583.0</ele>
  <time>2026-08-28T17:51:14Z</time>
  <course>0.0</course>
  <speed>0.0</speed>
  <fix>3d</fix>
</trkpt>
<trkpt lat="40.0713749" lon="-105.229789">
  <ele>1582.92</ele>
  <time>2026-08-28T17:51:14Z</time>
  <course>247.59</course>
  <speed>0.0</speed>
  <fix>3d</fix>
</trkpt>
<trkpt lat="40.0713749" lon="-105.229789">
  <ele>1583.0</ele>
  <time>2026-08-28T17:51:14Z</time>
  <course>0.0</course>
  <speed>0.0</speed>
  <fix>3d</fix>
</trkpt>
<trkpt lat="40.0713749" lon="-105.229789">
  <ele>1582.92</ele>
  <time>2026-08-28T17:51:14Z</time>
  <course>247.59</course>
  <speed>0.0</speed>
  <fix>3d</fix>
</trkpt>
<trkpt lat="40.0713749" lon="-105.229789">
  <ele>1583.0</ele>
  <time>2026-08-28T17:51:14Z</time>
  <course>0.0</course>
  <speed>0.0</speed>
  <fix>3d</fix>
</trkpt>
<trkpt lat="40.0713749" lon="-105.229789">
  <ele>1582.91</ele>
  <time>2026-08-28T17:51:14Z</time>
  <course>247.58</course>
  <speed>0.0</speed>
  <fix>3d</fix>
</trkpt>
<trkpt lat="40.0713749" lon="-105.229789">
  <ele>1583.0</ele>
  <time>2026-08-28T17:51:14Z</time>
  <course>0.0</course>
  <speed>0.0</speed>
  <fix>3d</fix>
</trkpt>
<trkpt lat="40.0713749" lon="-105.229789">
  <ele>1582.91</ele>
  <time>2026-08-28T17:51:14Z</time>
  <course>247.58</course>
  <speed>0.0</speed>
  <fix>3d</fix>
</trkpt>
<trkpt lat="40.0713749" lon="-105.229789">
  <ele>1583.0</ele>
  <time>2026-08-28T17:51:14Z</time>
  <course>0.0</course>
  <speed>0.0</speed>
  <fix>3d</fix>
</trkpt>
<trkpt lat="40.0713749" lon="-105.229789">
  <ele>1582.9</ele>
  <time>2026-08-28T17:51:14Z</time>
  <course>247.58</course>
  <speed>0.0</speed>
  <fix>3d</fix>
</trkpt>
<trkpt lat="40.0713749" lon="-105.229789">
  <ele>1583.0</ele>
  <time>2026-08-28T17:51:14Z</time>
  <course>0.0</course>
  <speed>0.0</speed>
  <fix>3d</fix>
</trkpt>
<trkpt lat="40.0713749" lon="-105.229789">
  <ele>1582.9</ele>
  <time>2026-08-28T17:51:14Z</time>
  <course>247.57</course>
  <speed>0.0</speed>
  <fix>3d</fix>
</trkpt>
<trkpt lat="40.0713749" lon="-105.229789">
  <ele>1583.0</ele>
  <time>2026-08-28T17:51:14Z</time>
  <course>0.0</course>
  <speed>0.0</speed>
  <fix>3d</fix>
</trkpt>
<trkpt lat="40.0713749" lon="-105.229789">
  <ele>1582.9</ele>
  <time>2026-08-28T17:51:14Z</time>
  <course>247.57</course>
  <speed>0.0</speed>
  <fix>3d</fix>
</trkpt>
<trkpt lat="40.0713749" lon="-105.229789">
  <ele>1583.0</ele>
  <time>2026-08-28T17:51:14Z</time>
  <course>0.0</course>
  <speed>0.0</speed>
  <fix>3d</fix>
</trkpt>
<trkpt lat="40.0713749" lon="-105.229789">
  <ele>1582.9</ele>
  <time>2026-08-28T17:51:14Z</time>
  <course>247.57</course>
  <speed>0.01</speed>
  <fix>3d</fix>
</trkpt>
<trkpt lat="40.0713749" lon="-105.229789">
  <ele>1583.0</ele>
  <time>2026-08-28T17:51:14Z</time>
  <course>0.0</course>
  <speed>0.0</speed>
  <fix>3d</fix>
</trkpt>
<trkpt lat="40.0713749" lon="-105.229789">
  <ele>1582.9</ele>
  <time>2026-08-28T17:51:14Z</time>
  <course>247.56</course>
  <speed>0.01</speed>
  <fix>3d</fix>
</trkpt>
<trkpt lat="40.0713749" lon="-105.229789">
  <ele>1583.0</ele>
  <time>2026-08-28T17:51:14Z</time>
  <course>0.0</course>
  <speed>0.0</speed>
  <fix>3d</fix>
</trkpt>
<trkpt lat="40.0713749" lon="-105.229789">
  <ele>1582.91</ele>
  <time>2026-08-28T17:51:14Z</time>
  <course>247.56</course>
  <speed>0.01</speed>
  <fix>3d</fix>
</trkpt>
<trkpt lat="40.0713749" lon="-105.229789">
  <ele>1583.0</ele>
  <time>2026-08-28T17:51:14Z</time>
  <course>0.0</course>
  <speed>0.0</speed>
  <fix>3d</fix>
</trkpt>
<trkpt lat="40.0713749" lon="-105.229789">
  <ele>1582.91</ele>
  <time>2026-08-28T17:51:14Z</time>
  <course>247.56</course>
  <speed>0.01</speed>
  <fix>3d</fix>
</trkpt>
<trkpt lat="40.0713749" lon="-105.229789">
  <ele>1583.0</ele>
  <time>2026-08-28T17:51:14Z</time>
  <course>0.0</course>
  <speed>0.0</speed>
  <fix>3d</fix>
</trkpt>
<trkpt lat="40.0713749" lon="-105.229789">
  <ele>1582.92</ele>
  <time>2026-08-28T17:51:14Z</time>
  <course>247.56</course>
  <speed>0.01</speed>
  <fix>3d</fix>
</trkpt>
<trkpt lat="40.0713749" lon="-105.229789">
  <ele>1583.0</ele>
  <time>2026-08-28T17:51:14Z</time>
  <course>0.0</course>
  <speed>0.0</speed>
  <fix>3d</fix>
</trkpt>
<trkpt lat="40.0713749" lon="-105.229789">
  <ele>1582.92</ele>
  <time>2026-08-28T17:51:14Z</time>
  <course>247.55</course>
  <speed>0.01</speed>
  <fix>3d</fix>
</trkpt>
<trkpt lat="40.0713749" lon="-105.229789">
  <ele>1583.0</ele>
  <time>2026-08-28T17:51:14Z</time>
  <course>0.0</course>
  <speed>0.0</speed>
  <fix>3d</fix>
</trkpt>
<trkpt lat="40.0713749" lon="-105.229789">
  <ele>1582.92</ele>
  <time>2026-08-28T17:51:14Z</time>
  <course>247.55</course>
  <speed>0.01</speed>
  <fix>3d</fix>
</trkpt>
<trkpt lat="40.0713749" lon="-105.229789">
  <ele>1583.0</ele>
  <time>2026-08-28T17:51:14Z</time>
  <course>0.0</course>
  <speed>0.0</speed>
  <fix>3d</fix>
</trkpt>
<trkpt lat="40.0713749" lon="-105.229789">
  <ele>1582.93</ele>
  <time>2026-08-28T17:51:14Z</time>
  <course>247.55</course>
  <speed>0.01</speed>
  <fix>3d</fix>
</trkpt>
<trkpt lat="40.0713749" lon="-105.229789">
  <ele>1583.0</ele>
  <time>2026-08-28T17:51:14Z</time>
  <course>0.0</course>
  <speed>0.0</speed>
  <fix>3d</fix>
</trkpt>
<trkpt lat="40.0713749" lon="-105.229789">
  <ele>1582.93</ele>
  <time>2026-08-28T17:51:14Z</time>
  <course>247.55</course>
  <speed>0.01</speed>
  <fix>3d</fix>
</trkpt>
<trkpt lat="40.0713749" lon="-105.229789">
  <ele>1583.0</ele>
  <time>2026-08-28T17:51:14Z</time>
  <course>0.0</course>
  <speed>0.0</speed>
  <fix>3d</fix>
</trkpt>
<trkpt lat="40.0713749" lon="-105.229789">
  <ele>1582.93</ele>
  <time>2026-08-28T17:51:14Z</time>
  <course>247.54</course>
  <speed>0.02</speed>
  <fix>3d</fix>
</trkpt>
<trkpt lat="40.0713749" lon="-105.229789">
  <ele>1583.0</ele>
  <time>2026-08-28T17:51:14Z</time>
  <course>0.0</course>
  <speed>0.0</speed>
  <fix>3d</fix>
</trkpt>
<trkpt lat="40.0713749" lon="-105.229789">
  <ele>1582.93</ele>
  <time>2026-08-28T17:51:14Z</time>
  <course>247.54</course>
  <speed>0.02</speed>
  <fix>3d</fix>
</trkpt>
<trkpt lat="40.0713749" lon="-105.229789">
  <ele>1583.0</ele>
  <time>2026-08-28T17:51:14Z</time>
  <course>0.0</course>
  <speed>0.0</speed>
  <fix>3d</fix>
</trkpt>
<trkpt lat="40.0713749" lon="-105.229789">
  <ele>1582.93</ele>
  <time>2026-08-28T17:51:14Z</time>
  <course>247.54</course>
  <speed>0.02</speed>
  <fix>3d</fix>
</trkpt>
<trkpt lat="40.0713749" lon="-105.229789">
  <ele>1583.0</ele>
  <time>2026-08-28T17:51:14Z</time>
  <course>0.0</course>
  <speed>0.0</speed>
  <fix>3d</fix>
</trkpt>
<trkpt lat="40.0713749" lon="-105.229789">
  <ele>1582.93</ele>
  <time>2026-08-28T17:51:14Z</time>
  <course>247.54</course>
  <speed>0.022360679774997897</speed>
  <fix>3d</fix>
</trkpt>
<trkpt lat="40.0713749" lon="-105.229789">
  <ele>1583.0</ele>
  <time>2026-08-28T17:51:14Z</time>
  <course>0.0</course>
  <speed>0.0</speed>
  <fix>3d</fix>
</trkpt>
<trkpt lat="40.0713749" lon="-105.229789">
  <ele>1582.94</ele>
  <time>2026-08-28T17:51:14Z</time>
  <course>247.53</course>
  <speed>0.022360679774997897</speed>
  <fix>3d</fix>
</trkpt>
<trkpt lat="40.0713749" lon="-105.229789">
  <ele>1583.0</ele>
  <time>2026-08-28T17:51:14Z</time>
  <course>0.0</course>
  <speed>0.0</speed>
  <fix>3d</fix>
</trkpt>
<trkpt lat="40.0713749" lon="-105.229789">
  <ele>1582.94</ele>
  <time>2026-08-28T17:51:14Z</time>
  <course>247.53</course>
  <speed>0.022360679774997897</speed>
  <fix>3d</fix>
</trkpt>
<trkpt lat="40.0713749" lon="-105.229789">
  <ele>1583.0</ele>
  <time>2026-08-28T17:51:14Z</time>
  <course>0.0</course>
  <speed>0.0</speed>
  <fix>3d</fix>
</trkpt>
<trkpt lat="40.071375" lon="-105.229789">
  <ele>1582.94</ele>
  <time>2026-08-28T17:51:14Z</time>
  <course>247.53</course>
  <speed>0.022360679774997897</speed>
  <fix>3d</fix>
</trkpt>
<trkpt lat="40.0713749" lon="-105.229789">
  <ele>1583.0</ele>
  <time>2026-08-28T17:51:14Z</time>
  <course>0.0</course>
  <speed>0.0</speed>
  <fix>3d</fix>
</trkpt>
<trkpt lat="40.071375" lon="-105.229789">
  <ele>1582.95</ele>
  <time>2026-08-28T17:51:14Z</time>
  <course>247.53</course>
  <speed>0.022360679774997897</speed>
  <fix>3d</fix>
</trkpt>
<trkpt lat="40.0713749" lon="-105.229789">
  <ele>1583.0</ele>
  <time>2026-08-28T17:51:14Z</time>
  <course>0.0</course>
  <speed>0.0</speed>
  <fix>3d</fix>
</trkpt>
<trkpt lat="40.071375" lon="-105.229789">
  <ele>1582.95</ele>
  <time>2026-08-28T17:51:14Z</time>
  <course>247.53</course>
  <speed>0.022360679774997897</speed>
  <fix>3d</fix>
</trkpt>
<trkpt lat="40.0713749" lon="-105.229789">
  <ele>1583.0</ele>
  <time>2026-08-28T17:51:14Z</time>
  <course>0.0</course>
  <speed>0.0</speed>
  <fix>3d</fix>
</trkpt>
<trkpt lat="40.071375" lon="-105.229789">
  <ele>1582.95</ele>
  <time>2026-08-28T17:51:14Z</time>
  <course>247.52</course>
  <speed>0.022360679774997897</speed>
  <fix>3d</fix>
</trkpt>
<trkpt lat="40.0713749" lon="-105.229789">
  <ele>1583.0</ele>
  <time>2026-08-28T17:51:14Z</time>
  <course>0.0</course>
  <speed>0.0</speed>
  <fix>3d</fix>
</trkpt>
<trkpt lat="40.071375" lon="-105.229789">
  <ele>1582.95</ele>
  <time>2026-08-28T17:51:14Z</time>
  <course>247.52</course>
  <speed>0.022360679774997897</speed>
  <fix>3d</fix>
</trkpt>
<trkpt lat="40.0713749" lon="-105.229789">
  <ele>1583.0</ele>
  <time>2026-08-28T17:51:14Z</time>
  <course>0.0</course>
  <speed>0.0</speed>
  <fix>3d</fix>
</trkpt>
<trkpt lat="40.071375" lon="-105.229789">
  <ele>1582.95</ele>
  <time>2026-08-28T17:51:14Z</time>
  <course>247.52</course>
  <speed>0.022360679774997897</speed>
  <fix>3d</fix>
</trkpt>
<trkpt lat="40.0713749" lon="-105.229789">
  <ele>1583.0</ele>
  <time>2026-08-28T17:51:14Z</time>
  <course>0.0</course>
  <speed>0.0</speed>
  <fix>3d</fix>
</trkpt>
<trkpt lat="40.071375" lon="-105.229789">
  <ele>1582.95</ele>
  <time>2026-08-28T17:51:14Z</time>
  <course>247.52</course>
  <speed>0.022360679774997897</speed>
  <fix>3d</fix>
</trkpt>
<trkpt lat="40.0713749" lon="-105.229789">
  <ele>1583.0</ele>
  <time>2026-08-28T17:51:14Z</time>
  <course>0.0</course>
  <speed>0.0</speed>
  <fix>3d</fix>
</trkpt>
<trkpt lat="40.071375" lon="-105.229789">
  <ele>1582.95</ele>
  <time>2026-08-28T17:51:14Z</time>
  <course>247.51</course>
  <speed>0.0316227766016838</speed>
  <fix>3d</fix>
</trkpt>
<trkpt lat="40.0713749" lon="-105.229789">
  <ele>1583.0</ele>
  <time>2026-08-28T17:51:14Z</time>
  <course>0.0</course>
  <speed>0.0</speed>
  <fix>3d</fix>
</trkpt>
<trkpt lat="40.071375" lon="-105.229789">
  <ele>1582.95</ele>
  <time>2026-08-28T17:51:14Z</time>
  <course>247.51</course>
  <speed>0.0316227766016838</speed>
  <fix>3d</fix>
</trkpt>
<trkpt lat="40.0713749" lon="-105.229789">
  <ele>1583.0</ele>
  <time>2026-08-28T17:51:14Z</time>
  <course>0.0</course>
  <speed>0.0</speed>
  <fix>3d</fix>
</trkpt>
<trkpt lat="40.071375" lon="-105.229789">
  <ele>1582.95</ele>
  <time>2026-08-28T17:51:14Z</time>
  <course>247.51</course>
  <speed>0.0316227766016838</speed>
  <fix>3d</fix>
</trkpt>
<trkpt lat="40.0713749" lon="-105.229789">
  <ele>1583.0</ele>
  <time>2026-08-28T17:51:14Z</time>
  <course>0.0</course>
  <speed>0.0</speed>
  <fix>3d</fix>
</trkpt>
<trkpt lat="40.071375" lon="-105.2297889">
  <ele>1582.95</ele>
  <time>2026-08-28T17:51:14Z</time>
  <course>247.51</course>
  <speed>0.0316227766016838</speed>
  <fix>3d</fix>
</trkpt>
<trkpt lat="40.0713749" lon="-105.229789">
  <ele>1583.0</ele>
  <time>2026-08-28T17:51:14Z</time>
  <course>0.0</course>
  <speed>0.0</speed>
  <fix>3d</fix>
</trkpt>
<trkpt lat="40.071375" lon="-105.2297889">
  <ele>1582.95</ele>
  <time>2026-08-28T17:51:14Z</time>
  <course>247.51</course>
  <speed>0.0316227766016838</speed>
  <fix>3d</fix>
</trkpt>
<trkpt lat="40.0713749" lon="-105.229789">
  <ele>1583.0</ele>
  <time>2026-08-28T17:51:14Z</time>
  <course>0.0</course>
  <speed>0.0</speed>
  <fix>3d</fix>
</trkpt>
<trkpt lat="39.655741" lon="-104.1383097">
  <ele>1566.58</ele>
  <time>2026-08-28T17:51:14Z</time>
  <course>0.0</course>
  <speed>0.0</speed>
  <fix>3d</fix>
</trkpt>
<trkpt lat="40.0713749" lon="-105.229789">
  <ele>1583.0</ele>
  <time>2026-08-28T17:51:14Z</time>
  <course>0.0</course>
  <speed>0.0</speed>
  <fix>3d</fix>
</trkpt>
<trkpt lat="40.0713749" lon="-105.229789">
  <ele>1583.0</ele>
  <time>2026-08-28T17:51:14Z</time>
  <course>238.36</course>
  <speed>0.0</speed>
  <fix>3d</fix>
</trkpt>
<trkpt lat="40.0713749" lon="-105.229789">
  <ele>1583.0</ele>
  <time>2026-08-28T17:51:14Z</time>
  <course>0.0</course>
  <speed>0.0</speed>
  <fix>3d</fix>
</trkpt>
<trkpt lat="40.0713749" lon="-105.229789">
  <ele>1583.0</ele>
  <time>2026-08-28T17:51:14Z</time>
  <course>238.44</course>
  <speed>0.0</speed>
  <fix>3d</fix>
</trkpt>
<trkpt lat="40.0713749" lon="-105.229789">
  <ele>1583.0</ele>
  <time>2026-08-28T17:51:14Z</time>
  <course>0.0</course>
  <speed>0.0</speed>
  <fix>3d</fix>
</trkpt>
<trkpt lat="40.0713749" lon="-105.229789">
  <ele>1583.0</ele>
  <time>2026-08-28T17:51:14Z</time>
  <course>238.64</course>
  <speed>0.0</speed>
  <fix>3d</fix>
</trkpt>
<trkpt lat="40.0713749" lon="-105.229789">
  <ele>1583.0</ele>
  <time>2026-08-28T17:51:14Z</time>
  <course>0.0</course>
  <speed>0.0</speed>
  <fix>3d</fix>
</trkpt>
<trkpt lat="40.0713749" lon="-105.229789">
  <ele>1583.0</ele>
  <time>2026-08-28T17:51:14Z</time>
  <course>238.93</course>
  <speed>0.0</speed>
  <fix>3d</fix>
</trkpt>
<trkpt lat="40.0713749" lon="-105.229789">
  <ele>1583.0</ele>
  <time>2026-08-28T17:51:14Z</time>
  <course>0.0</course>
  <speed>0.0</speed>
  <fix>3d</fix>
</trkpt>
<trkpt lat="40.0713749" lon="-105.229789">
  <ele>1583.0</ele>
  <time>2026-08-28T17:51:14Z</time>
  <course>239.26</course>
  <speed>0.0</speed>
  <fix>3d</fix>
</trkpt>
<trkpt lat="40.0713749" lon="-105.229789">
  <ele>1583.0</ele>
  <time>2026-08-28T17:51:14Z</time>
  <course>0.0</course>
  <speed>0.0</speed>
  <fix>3d</fix>
</trkpt>
<trkpt lat="40.0713749" lon="-105.229789">
  <ele>1583.0</ele>
  <time>2026-08-28T17:51:14Z</time>
  <course>239.61</course>
  <speed>0.0</speed>
  <fix>3d</fix>
</trkpt>
<trkpt lat="40.0713749" lon="-105.229789">
  <ele>1583.0</ele>
  <time>2026-08-28T17:51:14Z</time>
  <course>0.0</course>
  <speed>0.0</speed>
  <fix>3d</fix>
</trkpt>
<trkpt lat="40.0713749" lon="-105.229789">
  <ele>1583.0</ele>
  <time>2026-08-28T17:51:14Z</time>
  <course>239.96</course>
  <speed>0.0</speed>
  <fix>3d</fix>
</trkpt>
<trkpt lat="40.0713749" lon="-105.229789">
  <ele>1583.0</ele>
  <time>2026-08-28T17:51:14Z</time>
  <course>0.0</course>
  <speed>0.0</speed>
  <fix>3d</fix>
</trkpt>
<trkpt lat="40.0713749" lon="-105.229789">
  <ele>1583.0</ele>
  <time>2026-08-28T17:51:14Z</time>
  <course>240.29</course>
  <speed>0.0</speed>
  <fix>3d</fix>
</trkpt>
<trkpt lat="40.0713749" lon="-105.229789">
  <ele>1583.0</ele>
  <time>2026-08-28T17:51:14Z</time>
  <course>0.0</course>
  <speed>0.0</speed>
  <fix>3d</fix>
</trkpt>
<trkpt lat="40.0713749" lon="-105.229789">
  <ele>1583.0</ele>
  <time>2026-08-28T17:51:14Z</time>
  <course>240.61</course>
  <speed>0.0</speed>
  <fix>3d</fix>
</trkpt>
<trkpt lat="40.0713749" lon="-105.229789">
  <ele>1583.0</ele>
  <time>2026-08-28T17:51:14Z</time>
  <course>0.0</course>
  <speed>0.0</speed>
  <fix>3d</fix>
</trkpt>
<trkpt lat="40.0713749" lon="-105.229789">
  <ele>1583.0</ele>
  <time>2026-08-28T17:51:14Z</time>
  <course>240.92</course>
  <speed>0.0</speed>
  <fix>3d</fix>
</trkpt>
<trkpt lat="40.0713749" lon="-105.229789">
  <ele>1583.0</ele>
  <time>2026-08-28T17:51:14Z</time>
  <course>0.0</course>
  <speed>0.0</speed>
  <fix>3d</fix>
</trkpt>
<trkpt lat="40.0713749" lon="-105.229789">
  <ele>1583.0</ele>
  <time>2026-08-28T17:51:14Z</time>
  <course>241.21</course>
  <speed>0.0</speed>
  <fix>3d</fix>
</trkpt>
<trkpt lat="40.0713749" lon="-105.229789">
  <ele>1583.0</ele>
  <time>2026-08-28T17:51:14Z</time>
  <course>0.0</course>
  <speed>0.0</speed>
  <fix>3d</fix>
</trkpt>
<trkpt lat="40.0713749" lon="-105.229789">
  <ele>1583.0</ele>
  <time>2026-08-28T17:51:14Z</time>
  <course>241.49</course>
  <speed>0.0</speed>
  <fix>3d</fix>
</trkpt>
<trkpt lat="40.0713749" lon="-105.229789">
  <ele>1583.0</ele>
  <time>2026-08-28T17:51:14Z</time>
  <course>0.0</course>
  <speed>0.0</speed>
  <fix>3d</fix>
</trkpt>
<trkpt lat="40.0713749" lon="-105.229789">
  <ele>1583.0</ele>
  <time>2026-08-28T17:51:14Z</time>
  <course>241.77</course>
  <speed>0.0</speed>
  <fix>3d</fix>
</trkpt>
<trkpt lat="40.0713749" lon="-105.229789">
  <ele>1583.0</ele>
  <time>2026-08-28T17:51:14Z</time>
  <course>0.0</course>
  <speed>0.0</speed>
  <fix>3d</fix>
</trkpt>
<trkpt lat="40.0713749" lon="-105.229789">
  <ele>1583.0</ele>
  <time>2026-08-28T17:51:14Z</time>
  <course>242.03</course>
  <speed>0.0</speed>
  <fix>3d</fix>
</trkpt>
<trkpt lat="40.0713749" lon="-105.229789">
  <ele>1583.0</ele>
  <time>2026-08-28T17:51:14Z</time>
  <course>0.0</course>
  <speed>0.0</speed>
  <fix>3d</fix>
</trkpt>
<trkpt lat="40.0713749" lon="-105.229789">
  <ele>1583.0</ele>
  <time>2026-08-28T17:51:14Z</time>
  <course>242.29</course>
  <speed>0.0</speed>
  <fix>3d</fix>
</trkpt>
<trkpt lat="40.0713749" lon="-105.229789">
  <ele>1583.0</ele>
  <time>2026-08-28T17:51:14Z</time>
  <course>0.0</course>
  <speed>0.0</speed>
  <fix>3d</fix>
</trkpt>
<trkpt lat="40.0713749" lon="-105.229789">
  <ele>1583.0</ele>
  <time>2026-08-28T17:51:14Z</time>
  <course>242.54</course>
  <speed>0.0</speed>
  <fix>3d</fix>
</trkpt>
<trkpt lat="40.0713749" lon="-105.229789">
  <ele>1583.0</ele>
  <time>2026-08-28T17:51:14Z</time>
  <course>0.0</course>
  <speed>0.0</speed>
  <fix>3d</fix>
</trkpt>
<trkpt lat="40.0713749" lon="-105.229789">
  <ele>1583.0</ele>
  <time>2026-08-28T17:51:14Z</time>
  <course>242.79</course>
  <speed>0.0</speed>
  <fix>3d</fix>
</trkpt>
<trkpt lat="40.0713749" lon="-105.229789">
  <ele>1583.0</ele>
  <time>2026-08-28T17:51:14Z</time>
  <course>0.0</course>
  <speed>0.0</speed>
  <fix>3d</fix>
</trkpt>
<trkpt lat="40.0713749" lon="-105.229789">
  <ele>1583.0</ele>
  <time>2026-08-28T17:51:14Z</time>
  <course>243.02</course>
  <speed>0.0</speed>
  <fix>3d</fix>
</trkpt>
<trkpt lat="40.0713749" lon="-105.229789">
  <ele>1583.0</ele>
  <time>2026-08-28T17:51:14Z</time>
  <course>0.0</course>
  <speed>0.0</speed>
  <fix>3d</fix>
</trkpt>
<trkpt lat="40.0713749" lon="-105.229789">
  <ele>1583.0</ele>
  <time>2026-08-28T17:51:14Z</time>
  <course>243.25</course>
  <speed>0.0</speed>
  <fix>3d</fix>
</trkpt>
<trkpt lat="40.0713749" lon="-105.229789">
  <ele>1583.0</ele>
  <time>2026-08-28T17:51:14Z</time>
  <course>0.0</course>
  <speed>0.0</speed>
  <fix>3d</fix>
</trkpt>
<trkpt lat="40.0713749" lon="-105.229789">
  <ele>1583.0</ele>
  <time>2026-08-28T17:51:14Z</time>
  <course>243.47</course>
  <speed>0.0</speed>
  <fix>3d</fix>
</trkpt>
<trkpt lat="40.0713749" lon="-105.229789">
  <ele>1583.0</ele>
  <time>2026-08-28T17:51:14Z</time>
  <course>0.0</course>
  <speed>0.0</speed>
  <fix>3d</fix>
</trkpt>
<trkpt lat="40.0713749" lon="-105.229789">
  <ele>1583.0</ele>
  <time>2026-08-28T17:51:14Z</time>
  <course>243.68</course>
  <speed>0.0</speed>
  <fix>3d</fix>
</trkpt>
<trkpt lat="40.0713749" lon="-105.229789">
  <ele>1583.0</ele>
  <time>2026-08-28T17:51:14Z</time>
  <course>0.0</course>
  <speed>0.0</speed>
  <fix>3d</fix>
</trkpt>
<trkpt lat="40.0713749" lon="-105.229789">
  <ele>1583.0</ele>
  <time>2026-08-28T17:51:14Z</time>
  <course>243.89</course>
  <speed>0.0</speed>
  <fix>3d</fix>
</trkpt>
<trkpt lat="40.0713749" lon="-105.229789">
  <ele>1583.0</ele>
  <time>2026-08-28T17:51:14Z</time>
  <course>0.0</course>
  <speed>0.0</speed>
  <fix>3d</fix>
</trkpt>
<trkpt lat="40.0713749" lon="-105.229789">
  <ele>1583.0</ele>
  <time>2026-08-28T17:51:14Z</time>
  <course>244.09</course>
  <speed>0.0</speed>
  <fix>3d</fix>
</trkpt>
<trkpt lat="40.0713749" lon="-105.229789">
  <ele>1583.0</ele>
  <time>2026-08-28T17:51:14Z</time>
  <course>0.0</course>
  <speed>0.0</speed>
  <fix>3d</fix>
</trkpt>
<trkpt lat="40.0713749" lon="-105.229789">
  <ele>1583.0</ele>
  <time>2026-08-28T17:51:14Z</time>
  <course>244.28</course>
  <speed>0.0</speed>
  <fix>3d</fix>
</trkpt>
<trkpt lat="40.0713749" lon="-105.229789">
  <ele>1583.0</ele>
  <time>2026-08-28T17:51:14Z</time>
  <course>0.0</course>
  <speed>0.0</speed>
  <fix>3d</fix>
</trkpt>
<trkpt lat="40.0713749" lon="-105.229789">
  <ele>1583.0</ele>
  <time>2026-08-28T17:51:14Z</time>
  <course>244.46</course>
  <speed>0.0</speed>
  <fix>3d</fix>
</trkpt>
<trkpt lat="40.0713749" lon="-105.229789">
  <ele>1583.0</ele>
  <time>2026-08-28T17:51:14Z</time>
  <course>0.0</course>
  <speed>0.0</speed>
  <fix>3d</fix>
</trkpt>
<trkpt lat="40.0713749" lon="-105.229789">
  <ele>1583.0</ele>
  <time>2026-08-28T17:51:14Z</time>
  <course>244.64</course>
  <speed>0.0</speed>
  <fix>3d</fix>
</trkpt>
<trkpt lat="40.0713749" lon="-105.229789">
  <ele>1583.0</ele>
  <time>2026-08-28T17:51:14Z</time>
  <course>0.0</course>
  <speed>0.0</speed>
  <fix>3d</fix>
</trkpt>
<trkpt lat="40.0713749" lon="-105.229789">
  <ele>1583.0</ele>
  <time>2026-08-28T17:51:14Z</time>
  <course>244.81</course>
  <speed>0.0</speed>
  <fix>3d</fix>
</trkpt>
<trkpt lat="40.0713749" lon="-105.229789">
  <ele>1583.0</ele>
  <time>2026-08-28T17:51:14Z</time>
  <course>0.0</course>
  <speed>0.0</speed>
  <fix>3d</fix>
</trkpt>
<trkpt lat="40.0713749" lon="-105.229789">
  <ele>1583.0</ele>
  <time>2026-08-28T17:51:14Z</time>
  <course>244.97</course>
  <speed>0.0</speed>
  <fix>3d</fix>
</trkpt>
<trkpt lat="40.0713749" lon="-105.229789">
  <ele>1583.0</ele>
  <time>2026-08-28T17:51:14Z</time>
  <course>0.0</course>
  <speed>0.0</speed>
  <fix>3d</fix>
</trkpt>
<trkpt lat="40.0713749" lon="-105.229789">
  <ele>1583.0</ele>
  <time>2026-08-28T17:51:14Z</time>
  <course>245.13</course>
  <speed>0.0</speed>
  <fix>3d</fix>
</trkpt>
<trkpt lat="40.0713749" lon="-105.229789">
  <ele>1583.0</ele>
  <time>2026-08-28T17:51:14Z</time>
  <course>0.0</course>
  <speed>0.0</speed>
  <fix>3d</fix>
</trkpt>
<trkpt lat="40.0713749" lon="-105.229789">
  <ele>1583.0</ele>
  <time>2026-08-28T17:51:14Z</time>
  <course>245.29</course>
  <speed>0.0</speed>
  <fix>3d</fix>
</trkpt>
<trkpt lat="40.0713749" lon="-105.229789">
  <ele>1583.0</ele>
  <time>2026-08-28T17:51:14Z</time>
  <course>0.0</course>
  <speed>0.0</speed>
  <fix>3d</fix>
</trkpt>
<trkpt lat="40.0713749" lon="-105.229789">
  <ele>1583.0</ele>
  <time>2026-08-28T17:51:14Z</time>
  <course>245.43</course>
  <speed>0.0</speed>
  <fix>3d</fix>
</trkpt>
<trkpt lat="40.0713749" lon="-105.229789">
  <ele>1583.0</ele>
  <time>2026-08-28T17:51:14Z</time>
  <course>0.0</course>
  <speed>0.0</speed>
  <fix>3d</fix>
</trkpt>
<trkpt lat="40.0713749" lon="-105.229789">
  <ele>1583.0</ele>
  <time>2026-08-28T17:51:14Z</time>
  <course>245.57</course>
  <speed>0.0</speed>
  <fix>3d</fix>
</trkpt>
<trkpt lat="40.0713749" lon="-105.229789">
  <ele>1583.0</ele>
  <time>2026-08-28T17:51:14Z</time>
  <course>0.0</course>
  <speed>0.0</speed>
  <fix>3d</fix>
</trkpt>
<trkpt lat="40.0713749" lon="-105.229789">
  <ele>1583.0</ele>
  <time>2026-08-28T17:51:14Z</time>
  <course>245.71</course>
  <speed>0.0</speed>
  <fix>3d</fix>
</trkpt>
<trkpt lat="40.0713749" lon="-105.229789">
  <ele>1583.0</ele>
  <time>2026-08-28T17:51:14Z</time>
  <course>0.0</course>
  <speed>0.0</speed>
  <fix>3d</fix>
</trkpt>
<trkpt lat="40.0713749" lon="-105.229789">
  <ele>1583.0</ele>
  <time>2026-08-28T17:51:14Z</time>
  <course>245.84</course>
  <speed>0.0</speed>
  <fix>3d</fix>
</trkpt>
<trkpt lat="40.0713749" lon="-105.229789">
  <ele>1583.0</ele>
  <time>2026-08-28T17:51:14Z</time>
  <course>0.0</course>
  <speed>0.0</speed>
  <fix>3d</fix>
</trkpt>
<trkpt lat="40.0713749" lon="-105.229789">
  <ele>1583.0</ele>
  <time>2026-08-28T17:51:14Z</time>
  <course>245.96</course>
  <speed>0.0</speed>
  <fix>3d</fix>
</trkpt>
<trkpt lat="40.0713749" lon="-105.229789">
  <ele>1583.0</ele>
  <time>2026-08-28T17:51:14Z</time>
  <course>0.0</course>
  <speed>0.0</speed>
  <fix>3d</fix>
</trkpt>
<trkpt lat="40.0713749" lon="-105.229789">
  <ele>1583.0</ele>
  <time>2026-08-28T17:51:14Z</time>
  <course>246.08</course>
  <speed>0.0</speed>
  <fix>3d</fix>
</trkpt>
<trkpt lat="40.0713749" lon="-105.229789">
  <ele>1583.0</ele>
  <time>2026-08-28T17:51:14Z</time>
  <course>0.0</course>
  <speed>0.0</speed>
  <fix>3d</fix>
</trkpt>
<trkpt lat="40.0713749" lon="-105.229789">
  <ele>1583.0</ele>
  <time>2026-08-28T17:51:14Z</time>
  <course>246.19</course>
  <speed>0.0</speed>
  <fix>3d</fix>
</trkpt>
<trkpt lat="40.0713749" lon="-105.229789">
  <ele>1583.0</ele>
  <time>2026-08-28T17:51:14Z</time>
  <course>0.0</course>
  <speed>0.0</speed>
  <fix>3d</fix>
</trkpt>
<trkpt lat="40.0713749" lon="-105.229789">
  <ele>1583.0</ele>
  <time>2026-08-28T17:51:14Z</time>
  <course>246.3</course>
  <speed>0.0</speed>
  <fix>3d</fix>
</trkpt>
<trkpt lat="40.0713749" lon="-105.229789">
  <ele>1583.0</ele>
  <time>2026-08-28T17:51:14Z</time>
  <course>0.0</course>
  <speed>0.0</speed>
  <fix>3d</fix>
</trkpt>
<trkpt lat="40.0713749" lon="-105.229789">
  <ele>1583.0</ele>
  <time>2026-08-28T17:51:14Z</time>
  <course>246.41</course>
  <speed>0.0</speed>
  <fix>3d</fix>
</trkpt>
<trkpt lat="40.0713749" lon="-105.229789">
  <ele>1583.0</ele>
  <time>2026-08-28T17:51:14Z</time>
  <course>0.0</course>
  <speed>0.0</speed>
  <fix>3d</fix>
</trkpt>
<trkpt lat="40.0713749" lon="-105.229789">
  <ele>1583.0</ele>
  <time>2026-08-28T17:51:14Z</time>
  <course>246.51</course>
  <speed>0.0</speed>
  <fix>3d</fix>
</trkpt>
<trkpt lat="40.0713749" lon="-105.229789">
  <ele>1583.0</ele>
  <time>2026-08-28T17:51:14Z</time>
  <course>0.0</course>
  <speed>0.0</speed>
  <fix>3d</fix>
</trkpt>
<trkpt lat="40.0713749" lon="-105.229789">
  <ele>1583.0</ele>
  <time>2026-08-28T17:51:14Z</time>
  <course>246.6</course>
  <speed>0.0</speed>
  <fix>3d</fix>
</trkpt>
<trkpt lat="40.0713749" lon="-105.229789">
  <ele>1583.0</ele>
  <time>2026-08-28T17:51:14Z</time>
  <course>0.0</course>
  <speed>0.0</speed>
  <fix>3d</fix>
</trkpt>
<trkpt lat="40.0713749" lon="-105.229789">
  <ele>1583.0</ele>
  <time>2026-08-28T17:51:14Z</time>
  <course>246.7</course>
  <speed>0.0</speed>
  <fix>3d</fix>
</trkpt>
<trkpt lat="40.0713749" lon="-105.229789">
  <ele>1583.0</ele>
  <time>2026-08-28T17:51:14Z</time>
  <course>0.0</course>
  <speed>0.0</speed>
  <fix>3d</fix>
</trkpt>
<trkpt lat="40.0713749" lon="-105.229789">
  <ele>1583.0</ele>
  <time>2026-08-28T17:51:14Z</time>
  <course>246.78</course>
  <speed>0.0</speed>
  <fix>3d</fix>
</trkpt>
<trkpt lat="40.0713749" lon="-105.229789">
  <ele>1583.0</ele>
  <time>2026-08-28T17:51:14Z</time>
  <course>0.0</course>
  <speed>0.0</speed>
  <fix>3d</fix>
</trkpt>
<trkpt lat="40.0713749" lon="-105.229789">
  <ele>1583.0</ele>
  <time>2026-08-28T17:51:14Z</time>
  <course>246.87</course>
  <speed>0.0</speed>
  <fix>3d</fix>
</trkpt>
<trkpt lat="40.0713749" lon="-105.229789">
  <ele>1583.0</ele>
  <time>2026-08-28T17:51:14Z</time>
  <course>0.0</course>
  <speed>0.0</speed>
  <fix>3d</fix>
</trkpt>
<trkpt lat="40.0713749" lon="-105.229789">
  <ele>1583.0</ele>
  <time>2026-08-28T17:51:14Z</time>
  <course>246.95</course>
  <speed>0.0</speed>
  <fix>3d</fix>
</trkpt>
<trkpt lat="40.0713749" lon="-105.229789">
  <ele>1583.0</ele>
  <time>2026-08-28T17:51:14Z</time>
  <course>0.0</course>
  <speed>0.0</speed>
  <fix>3d</fix>
</trkpt>
<trkpt lat="40.0713749" lon="-105.229789">
  <ele>1583.0</ele>
  <time>2026-08-28T17:51:14Z</time>
  <course>247.02</course>
  <speed>0.0</speed>
  <fix>3d</fix>
</trkpt>
<trkpt lat="40.0713749" lon="-105.229789">
  <ele>1583.0</ele>
  <time>2026-08-28T17:51:14Z</time>
  <course>0.0</course>
  <speed>0.0</speed>
  <fix>3d</fix>
</trkpt>
<trkpt lat="40.0713749" lon="-105.229789">
  <ele>1583.0</ele>
  <time>2026-08-28T17:51:14Z</time>
  <course>247.1</course>
  <speed>0.0</speed>
  <fix>3d</fix>
</trkpt>
<trkpt lat="40.0713749" lon="-105.229789">
  <ele>1583.0</ele>
  <time>2026-08-28T17:51:14Z</time>
  <course>0.0</course>
  <speed>0.0</speed>
  <fix>3d</fix>
</trkpt>
<trkpt lat="40.0713749" lon="-105.229789">
  <ele>1583.0</ele>
  <time>2026-08-28T17:51:14Z</time>
  <course>247.17</course>
  <speed>0.0</speed>
  <fix>3d</fix>
</trkpt>
<trkpt lat="40.0713749" lon="-105.229789">
  <ele>1583.0</ele>
  <time>2026-08-28T17:51:14Z</time>
  <course>0.0</course>
  <speed>0.0</speed>
  <fix>3d</fix>
</trkpt>
<trkpt lat="40.0713749" lon="-105.229789">
  <ele>1583.0</ele>
  <time>2026-08-28T17:51:14Z</time>
  <course>247.24</course>
  <speed>0.0</speed>
  <fix>3d</fix>
</trkpt>
<trkpt lat="40.0713749" lon="-105.229789">
  <ele>1583.0</ele>
  <time>2026-08-28T17:51:14Z</time>
  <course>0.0</course>
  <speed>0.0</speed>
  <fix>3d</fix>
</trkpt>
<trkpt lat="40.0713749" lon="-105.229789">
  <ele>1583.0</ele>
  <time>2026-08-28T17:51:14Z</time>
  <course>247.3</course>
  <speed>0.0</speed>
  <fix>3d</fix>
</trkpt>
<trkpt lat="40.0713749" lon="-105.229789">
  <ele>1583.0</ele>
  <time>2026-08-28T17:51:14Z</time>
  <course>0.0</course>
  <speed>0.0</speed>
  <fix>3d</fix>
</trkpt>
<trkpt lat="40.0713749" lon="-105.229789">
  <ele>1583.0</ele>
  <time>2026-08-28T17:51:14Z</time>
  <course>247.36</course>
  <speed>0.0</speed>
  <fix>3d</fix>
</trkpt>
<trkpt lat="40.0713749" lon="-105.229789">
  <ele>1583.0</ele>
  <time>2026-08-28T17:51:14Z</time>
  <course>0.0</course>
  <speed>0.0</speed>
  <fix>3d</fix>
</trkpt>
<trkpt lat="40.0713749" lon="-105.229789">
  <ele>1583.0</ele>
  <time>2026-08-28T17:51:14Z</time>
  <course>247.42</course>
  <speed>0.0</speed>
  <fix>3d</fix>
</trkpt>
<trkpt lat="40.0713749" lon="-105.229789">
  <ele>1583.0</ele>
  <time>2026-08-28T17:51:14Z</time>
  <course>0.0</course>
  <speed>0.0</speed>
  <fix>3d</fix>
</trkpt>
<trkpt lat="40.0713749" lon="-105.229789">
  <ele>1583.0</ele>
  <time>2026-08-28T17:51:14Z</time>
  <course>247.47</course>
  <speed>0.0</speed>
  <fix>3d</fix>
</trkpt>
<trkpt lat="40.0713749" lon="-105.229789">
  <ele>1583.0</ele>
  <time>2026-08-28T17:51:14Z</time>
  <course>0.0</course>
  <speed>0.0</speed>
  <fix>3d</fix>
</trkpt>
<trkpt lat="40.0713749" lon="-105.229789">
  <ele>1583.0</ele>
  <time>2026-08-28T17:51:14Z</time>
  <course>247.53</course>
  <speed>0.0</speed>
  <fix>3d</fix>
</trkpt>
<trkpt lat="40.0713749" lon="-105.229789">
  <ele>1583.0</ele>
  <time>2026-08-28T17:51:14Z</time>
  <course>0.0</course>
  <speed>0.0</speed>
  <fix>3d</fix>
</trkpt>
<trkpt lat="40.0713749" lon="-105.229789">
  <ele>1583.0</ele>
  <time>2026-08-28T17:51:14Z</time>
  <course>247.58</course>
  <speed>0.0</speed>
  <fix>3d</fix>
</trkpt>
<trkpt lat="40.0713749" lon="-105.229789">
  <ele>1583.0</ele>
  <time>2026-08-28T17:51:14Z</time>
  <course>0.0</course>
  <speed>0.0</speed>
  <fix>3d</fix>
</trkpt>
<trkpt lat="40.0713749" lon="-105.229789">
  <ele>1583.0</ele>
  <time>2026-08-28T17:51:14Z</time>
  <course>247.63</course>
  <speed>0.0</speed>
  <fix>3d</fix>
</trkpt>
<trkpt lat="40.0713749" lon="-105.229789">
  <ele>1583.0</ele>
  <time>2026-08-28T17:51:14Z</time>
  <course>0.0</course>
  <speed>0.0</speed>
  <fix>3d</fix>
</trkpt>
<trkpt lat="40.0713749" lon="-105.229789">
  <ele>1583.0</ele>
  <time>2026-08-28T17:51:14Z</time>
  <course>247.67</course>
  <speed>0.0</speed>
  <fix>3d</fix>
</trkpt>
<trkpt lat="40.0713749" lon="-105.229789">
  <ele>1583.0</ele>
  <time>2026-08-28T17:51:14Z</time>
  <course>0.0</course>
  <speed>0.0</speed>
  <fix>3d</fix>
</trkpt>
<trkpt lat="40.0713749" lon="-105.229789">
  <ele>1583.0</ele>
  <time>2026-08-28T17:51:14Z</time>
  <course>247.72</course>
  <speed>0.0</speed>
  <fix>3d</fix>
</trkpt>
<trkpt lat="40.0713749" lon="-105.229789">
  <ele>1583.0</ele>
  <time>2026-08-28T17:51:14Z</time>
  <course>0.0</course>
  <speed>0.0</speed>
  <fix>3d</fix>
</trkpt>
<trkpt lat="40.0713749" lon="-105.229789">
  <ele>1583.0</ele>
  <time>2026-08-28T17:51:14Z</time>
  <course>247.76</course>
  <speed>0.0</speed>
  <fix>3d</fix>
</trkpt>
<trkpt lat="40.0713749" lon="-105.229789">
  <ele>1583.0</ele>
  <time>2026-08-28T17:51:14Z</time>
  <course>0.0</course>
  <speed>0.0</speed>
  <fix>3d</fix>
</trkpt>
<trkpt lat="40.0713749" lon="-105.229789">
  <ele>1583.0</ele>
  <time>2026-08-28T17:51:14Z</time>
  <course>247.8</course>
  <speed>0.0</speed>
  <fix>3d</fix>
</trkpt>
<trkpt lat="40.0713749" lon="-105.229789">
  <ele>1583.0</ele>
  <time>2026-08-28T17:51:14Z</time>
  <course>0.0</course>
  <speed>0.0</speed>
  <fix>3d</fix>
</trkpt>
<trkpt lat="40.0713749" lon="-105.229789">
  <ele>1583.0</ele>
  <time>2026-08-28T17:51:14Z</time>
  <course>247.83</course>
  <speed>0.0</speed>
  <fix>3d</fix>
</trkpt>
<trkpt lat="40.0713749" lon="-105.229789">
  <ele>1583.0</ele>
  <time>2026-08-28T17:51:14Z</time>
  <course>0.0</course>
  <speed>0.0</speed>
  <fix>3d</fix>
</trkpt>
<trkpt lat="40.0713749" lon="-105.229789">
  <ele>1583.0</ele>
  <time>2026-08-28T17:51:14Z</time>
  <course>247.87</course>
  <speed>0.0</speed>
  <fix>3d</fix>
</trkpt>
<trkpt lat="40.0713749" lon="-105.229789">
  <ele>1583.0</ele>
  <time>2026-08-28T17:51:14Z</time>
  <course>0.0</course>
  <speed>0.0</speed>
  <fix>3d</fix>
</trkpt>
<trkpt lat="40.0713749" lon="-105.229789">
  <ele>1583.0</ele>
  <time>2026-08-28T17:51:14Z</time>
  <course>247.9</course>
  <speed>0.0</speed>
  <fix>3d</fix>
</trkpt>
<trkpt lat="40.0713749" lon="-105.229789">
  <ele>1583.0</ele>
  <time>2026-08-28T17:51:14Z</time>
  <course>0.0</course>
  <speed>0.0</speed>
  <fix>3d</fix>
</trkpt>
<trkpt lat="40.0713749" lon="-105.229789">
  <ele>1583.0</ele>
  <time>2026-08-28T17:51:14Z</time>
  <course>247.94</course>
  <speed>0.0</speed>
  <fix>3d</fix>
</trkpt>
<trkpt lat="40.0713749" lon="-105.229789">
  <ele>1583.0</ele>
  <time>2026-08-28T17:51:14Z</time>
  <course>0.0</course>
  <speed>0.0</speed>
  <fix>3d</fix>
</trkpt>
<trkpt lat="40.0713749" lon="-105.229789">
  <ele>1583.0</ele>
  <time>2026-08-28T17:51:14Z</time>
  <course>247.97</course>
  <speed>0.0</speed>
  <fix>3d</fix>
</trkpt>
<trkpt lat="40.0713749" lon="-105.229789">
  <ele>1583.0</ele>
  <time>2026-08-28T17:51:14Z</time>
  <course>0.0</course>
  <speed>0.0</speed>
  <fix>3d</fix>
</trkpt>
<trkpt lat="40.0713749" lon="-105.229789">
  <ele>1583.0</ele>
  <time>2026-08-28T17:51:14Z</time>
  <course>248.0</course>
  <speed>0.0</speed>
  <fix>3d</fix>
</trkpt>
<trkpt lat="40.0713749" lon="-105.229789">
  <ele>1583.0</ele>
  <time>2026-08-28T17:51:14Z</time>
  <course>0.0</course>
  <speed>0.0</speed>
  <fix>3d</fix>
</trkpt>
<trkpt lat="40.0713749" lon="-105.229789">
  <ele>1583.0</ele>
  <time>2026-08-28T17:51:14Z</time>
  <course>248.02</course>
  <speed>0.0</speed>
  <fix>3d</fix>
</trkpt>
<trkpt lat="40.0713749" lon="-105.229789">
  <ele>1583.0</ele>
  <time>2026-08-28T17:51:14Z</time>
  <course>0.0</course>
  <speed>0.0</speed>
  <fix>3d</fix>
</trkpt>
<trkpt lat="40.0713749" lon="-105.229789">
  <ele>1583.0</ele>
  <time>2026-08-28T17:51:14Z</time>
  <course>248.05</course>
  <speed>0.0</speed>
  <fix>3d</fix>
</trkpt>
<trkpt lat="40.0713749" lon="-105.229789">
  <ele>1583.0</ele>
  <time>2026-08-28T17:51:14Z</time>
  <course>0.0</course>
  <speed>0.0</speed>
  <fix>3d</fix>
</trkpt>
<trkpt lat="40.0713749" lon="-105.229789">
  <ele>1583.0</ele>
  <time>2026-08-28T17:51:14Z</time>
  <course>248.08</course>
  <speed>0.0</speed>
  <fix>3d</fix>
</trkpt>
<trkpt lat="40.0713749" lon="-105.229789">
  <ele>1583.0</ele>
  <time>2026-08-28T17:51:14Z</time>
  <course>0.0</course>
  <speed>0.0</speed>
  <fix>3d</fix>
</trkpt>
<trkpt lat="40.0713749" lon="-105.229789">
  <ele>1583.0</ele>
  <time>2026-08-28T17:51:14Z</time>
  <course>248.1</course>
  <speed>0.0</speed>
  <fix>3d</fix>
</trkpt>
<trkpt lat="40.0713749" lon="-105.229789">
  <ele>1583.0</ele>
  <time>2026-08-28T17:51:14Z</time>
  <course>0.0</course>
  <speed>0.0</speed>
  <fix>3d</fix>
</trkpt>
<trkpt lat="40.0713749" lon="-105.229789">
  <ele>1583.0</ele>
  <time>2026-08-28T17:51:14Z</time>
  <course>248.12</course>
  <speed>0.0</speed>
  <fix>3d</fix>
</trkpt>
<trkpt lat="40.0713749" lon="-105.229789">
  <ele>1583.0</ele>
  <time>2026-08-28T17:51:14Z</time>
  <course>0.0</course>
  <speed>0.0</speed>
  <fix>3d</fix>
</trkpt>
<trkpt lat="40.0713749" lon="-105.229789">
  <ele>1583.0</ele>
  <time>2026-08-28T17:51:14Z</time>
  <course>248.14</course>
  <speed>0.0</speed>
  <fix>3d</fix>
</trkpt>
<trkpt lat="40.0713749" lon="-105.229789">
  <ele>1583.0</ele>
  <time>2026-08-28T17:51:14Z</time>
  <course>0.0</course>
  <speed>0.0</speed>
  <fix>3d</fix>
</trkpt>
<trkpt lat="40.0713749" lon="-105.229789">
  <ele>1583.0</ele>
  <time>2026-08-28T17:51:14Z</time>
  <course>248.16</course>
  <speed>0.0</speed>
  <fix>3d</fix>
</trkpt>
<trkpt lat="40.0713749" lon="-105.229789">
  <ele>1583.0</ele>
  <time>2026-08-28T17:51:14Z</time>
  <course>0.0</course>
  <speed>0.0</speed>
  <fix>3d</fix>
</trkpt>
<trkpt lat="40.0713749" lon="-105.229789">
  <ele>1583.0</ele>
  <time>2026-08-28T17:51:14Z</time>
  <course>248.18</course>
  <speed>0.0</speed>
  <fix>3d</fix>
</trkpt>
<trkpt lat="40.0713749" lon="-105.229789">
  <ele>1583.0</ele>
  <time>2026-08-28T17:51:14Z</time>
  <course>0.0</course>
  <speed>0.0</speed>
  <fix>3d</fix>
</trkpt>
<trkpt lat="40.0713749" lon="-105.229789">
  <ele>1583.0</ele>
  <time>2026-08-28T17:51:14Z</time>
  <course>248.2</course>
  <speed>0.0</speed>
  <fix>3d</fix>
</trkpt>
<trkpt lat="40.0713749" lon="-105.229789">
  <ele>1583.0</ele>
  <time>2026-08-28T17:51:14Z</time>
  <course>0.0</course>
  <speed>0.0</speed>
  <fix>3d</fix>
</trkpt>
<trkpt lat="40.0713749" lon="-105.229789">
  <ele>1583.0</ele>
  <time>2026-08-28T17:51:14Z</time>
  <course>248.22</course>
  <speed>0.0</speed>
  <fix>3d</fix>
</trkpt>
<trkpt lat="40.0713749" lon="-105.229789">
  <ele>1583.0</ele>
  <time>2026-08-28T17:51:14Z</time>
  <course>0.0</course>
  <speed>0.0</speed>
  <fix>3d</fix>
</trkpt>
<trkpt lat="40.0713749" lon="-105.229789">
  <ele>1583.0</ele>
  <time>2026-08-28T17:51:14Z</time>
  <course>248.23</course>
  <speed>0.0</speed>
  <fix>3d</fix>
</trkpt>
<trkpt lat="40.0713749" lon="-105.229789">
  <ele>1583.0</ele>
  <time>2026-08-28T17:51:14Z</time>
  <course>0.0</course>
  <speed>0.0</speed>
  <fix>3d</fix>
</trkpt>
<trkpt lat="40.0713749" lon="-105.229789">
  <ele>1583.0</ele>
  <time>2026-08-28T17:51:14Z</time>
  <course>248.25</course>
  <speed>0.0</speed>
  <fix>3d</fix>
</trkpt>
<trkpt lat="40.0713749" lon="-105.229789">
  <ele>1583.0</ele>
  <time>2026-08-28T17:51:14Z</time>
  <course>0.0</course>
  <speed>0.0</speed>
  <fix>3d</fix>
</trkpt>
<trkpt lat="40.0713749" lon="-105.229789">
  <ele>1583.0</ele>
  <time>2026-08-28T17:51:14Z</time>
  <course>248.26</course>
  <speed>0.0</speed>
  <fix>3d</fix>
</trkpt>
<trkpt lat="40.0713749" lon="-105.229789">
  <ele>1583.0</ele>
  <time>2026-08-28T17:51:14Z</time>
  <course>0.0</course>
  <speed>0.0</speed>
  <fix>3d</fix>
</trkpt>
<trkpt lat="40.0713749" lon="-105.229789">
  <ele>1583.0</ele>
  <time>2026-08-28T17:51:14Z</time>
  <course>248.28</course>
  <speed>0.0</speed>
  <fix>3d</fix>
</trkpt>
<trkpt lat="40.0713749" lon="-105.229789">
  <ele>1583.0</ele>
  <time>2026-08-28T17:51:14Z</time>
  <course>0.0</course>
  <speed>0.0</speed>
  <fix>3d</fix>
</trkpt>
<trkpt lat="40.0713749" lon="-105.229789">
  <ele>1583.0</ele>
  <time>2026-08-28T17:51:14Z</time>
  <course>248.29</course>
  <speed>0.0</speed>
  <fix>3d</fix>
</trkpt>
<trkpt lat="40.0713749" lon="-105.229789">
  <ele>1583.0</ele>
  <time>2026-08-28T17:51:14Z</time>
  <course>0.0</course>
  <speed>0.0</speed>
  <fix>3d</fix>
</trkpt>
<trkpt lat="40.0713749" lon="-105.229789">
  <ele>1583.0</ele>
  <time>2026-08-28T17:51:14Z</time>
  <course>248.3</course>
  <speed>0.0</speed>
  <fix>3d</fix>
</trkpt>
<trkpt lat="40.0713749" lon="-105.229789">
  <ele>1583.0</ele>
  <time>2026-08-28T17:51:14Z</time>
  <course>0.0</course>
  <speed>0.0</speed>
  <fix>3d</fix>
</trkpt>
<trkpt lat="40.0713749" lon="-105.229789">
  <ele>1583.0</ele>
  <time>2026-08-28T17:51:14Z</time>
  <course>248.31</course>
  <speed>0.0</speed>
  <fix>3d</fix>
</trkpt>
<trkpt lat="40.0713749" lon="-105.229789">
  <ele>1583.0</ele>
  <time>2026-08-28T17:51:14Z</time>
  <course>0.0</course>
  <speed>0.0</speed>
  <fix>3d</fix>
</trkpt>
<trkpt lat="40.0713749" lon="-105.229789">
  <ele>1583.0</ele>
  <time>2026-08-28T17:51:14Z</time>
  <course>248.32</course>
  <speed>0.0</speed>
  <fix>3d</fix>
</trkpt>
<trkpt lat="40.0713749" lon="-105.229789">
  <ele>1583.0</ele>
  <time>2026-08-28T17:51:14Z</time>
  <course>0.0</course>
  <speed>0.0</speed>
  <fix>3d</fix>
</trkpt>
<trkpt lat="40.0713749" lon="-105.229789">
  <ele>1583.0</ele>
  <time>2026-08-28T17:51:14Z</time>
  <course>248.33</course>
  <speed>0.0</speed>
  <fix>3d</fix>
</trkpt>
<trkpt lat="40.0713749" lon="-105.229789">
  <ele>1583.0</ele>
  <time>2026-08-28T17:51:14Z</time>
  <course>0.0</course>
  <speed>0.0</speed>
  <fix>3d</fix>
</trkpt>
<trkpt lat="40.0713749" lon="-105.229789">
  <ele>1583.0</ele>
  <time>2026-08-28T17:51:14Z</time>
  <course>248.34</course>
  <speed>0.0</speed>
  <fix>3d</fix>
</trkpt>
<trkpt lat="40.0713749" lon="-105.229789">
  <ele>1583.0</ele>
  <time>2026-08-28T17:51:14Z</time>
  <course>0.0</course>
  <speed>0.0</speed>
  <fix>3d</fix>
</trkpt>
<trkpt lat="40.0713749" lon="-105.229789">
  <ele>1583.0</ele>
  <time>2026-08-28T17:51:14Z</time>
  <course>248.35</course>
  <speed>0.0</speed>
  <fix>3d</fix>
</trkpt>
<trkpt lat="40.0713749" lon="-105.229789">
  <ele>1583.0</ele>
  <time>2026-08-28T17:51:14Z</time>
  <course>0.0</course>
  <speed>0.0</speed>
  <fix>3d</fix>
</trkpt>
<trkpt lat="40.0713749" lon="-105.229789">
  <ele>1583.0</ele>
  <time>2026-08-28T17:51:14Z</time>
  <course>248.35</course>
  <speed>0.0</speed>
  <fix>3d</fix>
</trkpt>
<trkpt lat="40.0713749" lon="-105.229789">
  <ele>1583.0</ele>
  <time>2026-08-28T17:51:14Z</time>
  <course>0.0</course>
  <speed>0.0</speed>
  <fix>3d</fix>
</trkpt>
<trkpt lat="40.0713749" lon="-105.229789">
  <ele>1583.0</ele>
  <time>2026-08-28T17:51:14Z</time>
  <course>248.36</course>
  <speed>0.0</speed>
  <fix>3d</fix>
</trkpt>
<trkpt lat="40.0713749" lon="-105.229789">
  <ele>1583.0</ele>
  <time>2026-08-28T17:51:14Z</time>
  <course>0.0</course>
  <speed>0.0</speed>
  <fix>3d</fix>
</trkpt>
<trkpt lat="40.0713749" lon="-105.229789">
  <ele>1583.0</ele>
  <time>2026-08-28T17:51:14Z</time>
  <course>248.37</course>
  <speed>0.0</speed>
  <fix>3d</fix>
</trkpt>
<trkpt lat="40.0713749" lon="-105.229789">
  <ele>1583.0</ele>
  <time>2026-08-28T17:51:14Z</time>
  <course>0.0</course>
  <speed>0.0</speed>
  <fix>3d</fix>
</trkpt>
<trkpt lat="40.0713749" lon="-105.229789">
  <ele>1583.0</ele>
  <time>2026-08-28T17:51:14Z</time>
  <course>248.37</course>
  <speed>0.0</speed>
  <fix>3d</fix>
</trkpt>
<trkpt lat="40.0713749" lon="-105.229789">
  <ele>1583.0</ele>
  <time>2026-08-28T17:51:14Z</time>
  <course>0.0</course>
  <speed>0.0</speed>
  <fix>3d</fix>
</trkpt>
<trkpt lat="40.0713749" lon="-105.229789">
  <ele>1583.0</ele>
  <time>2026-08-28T17:51:14Z</time>
  <course>248.38</course>
  <speed>0.0</speed>
  <fix>3d</fix>
</trkpt>
<trkpt lat="40.0713749" lon="-105.229789">
  <ele>1583.0</ele>
  <time>2026-08-28T17:51:14Z</time>
  <course>0.0</course>
  <speed>0.0</speed>
  <fix>3d</fix>
</trkpt>
<trkpt lat="40.0713749" lon="-105.229789">
  <ele>1583.0</ele>
  <time>2026-08-28T17:51:14Z</time>
  <course>248.38</course>
  <speed>0.0</speed>
  <fix>3d</fix>
</trkpt>
<trkpt lat="40.0713749" lon="-105.229789">
  <ele>1583.0</ele>
  <time>2026-08-28T17:51:14Z</time>
  <course>0.0</course>
  <speed>0.0</speed>
  <fix>3d</fix>
</trkpt>
<trkpt lat="40.0713749" lon="-105.229789">
  <ele>1583.0</ele>
  <time>2026-08-28T17:51:14Z</time>
  <course>248.39</course>
  <speed>0.0</speed>
  <fix>3d</fix>
</trkpt>
<trkpt lat="40.0713749" lon="-105.229789">
  <ele>1583.0</ele>
  <time>2026-08-28T17:51:14Z</time>
  <course>0.0</course>
  <speed>0.0</speed>
  <fix>3d</fix>
</trkpt>
<trkpt lat="40.0713749" lon="-105.229789">
  <ele>1583.0</ele>
  <time>2026-08-28T17:51:14Z</time>
  <course>248.39</course>
  <speed>0.0</speed>
  <fix>3d</fix>
</trkpt>
<trkpt lat="40.0713749" lon="-105.229789">
  <ele>1583.0</ele>
  <time>2026-08-28T17:51:14Z</time>
  <course>0.0</course>
  <speed>0.0</speed>
  <fix>3d</fix>
</trkpt>
<trkpt lat="39.655741" lon="-104.1383097">
  <ele>1566.58</ele>
  <time>2026-08-28T17:51:15Z</time>
  <course>0.0</course>
  <speed>0.0</speed>
  <fix>3d</fix>
</trkpt>
<trkpt lat="40.0713749" lon="-105.229789">
  <ele>1583.0</ele>
  <time>2026-08-28T17:51:15Z</time>
  <course>0.0</course>
  <speed>0.0</speed>
  <fix>3d</fix>
</trkpt>
<trkpt lat="40.0713749" lon="-105.229789">
  <ele>1583.0</ele>
  <time>2026-08-28T17:51:15Z</time>
  <course>238.36</course>
  <speed>0.0</speed>
  <fix>3d</fix>
</trkpt>
<trkpt lat="40.0713749" lon="-105.229789">
  <ele>1583.0</ele>
  <time>2026-08-28T17:51:15Z</time>
  <course>0.0</course>
  <speed>0.0</speed>
  <fix>3d</fix>
</trkpt>
<trkpt lat="40.0713749" lon="-105.229789">
  <ele>1583.0</ele>
  <time>2026-08-28T17:51:15Z</time>
  <course>238.44</course>
  <speed>0.0</speed>
  <fix>3d</fix>
</trkpt>
<trkpt lat="40.0713749" lon="-105.229789">
  <ele>1583.0</ele>
  <time>2026-08-28T17:51:15Z</time>
  <course>0.0</course>
  <speed>0.0</speed>
  <fix>3d</fix>
</trkpt>
<trkpt lat="40.0713749" lon="-105.229789">
  <ele>1583.0</ele>
  <time>2026-08-28T17:51:15Z</time>
  <course>238.64</course>
  <speed>0.0</speed>
  <fix>3d</fix>
</trkpt>
<trkpt lat="40.0713749" lon="-105.229789">
  <ele>1583.0</ele>
  <time>2026-08-28T17:51:15Z</time>
  <course>0.0</course>
  <speed>0.0</speed>
  <fix>3d</fix>
</trkpt>
<trkpt lat="40.0713749" lon="-105.229789">
  <ele>1583.0</ele>
  <time>2026-08-28T17:51:15Z</time>
  <course>238.93</course>
  <speed>0.0</speed>
  <fix>3d</fix>
</trkpt>
<trkpt lat="40.0713749" lon="-105.229789">
  <ele>1583.0</ele>
  <time>2026-08-28T17:51:15Z</time>
  <course>0.0</course>
  <speed>0.0</speed>
  <fix>3d</fix>
</trkpt>
<trkpt lat="40.0713749" lon="-105.229789">
  <ele>1583.0</ele>
  <time>2026-08-28T17:51:15Z</time>
  <course>239.26</course>
  <speed>0.0</speed>
  <fix>3d</fix>
</trkpt>
<trkpt lat="40.0713749" lon="-105.229789">
  <ele>1583.0</ele>
  <time>2026-08-28T17:51:15Z</time>
  <course>0.0</course>
  <speed>0.0</speed>
  <fix>3d</fix>
</trkpt>
<trkpt lat="40.0713749" lon="-105.229789">
  <ele>1583.0</ele>
  <time>2026-08-28T17:51:15Z</time>
  <course>239.61</course>
  <speed>0.0</speed>
  <fix>3d</fix>
</trkpt>
<trkpt lat="40.0713749" lon="-105.229789">
  <ele>1583.0</ele>
  <time>2026-08-28T17:51:15Z</time>
  <course>0.0</course>
  <speed>0.0</speed>
  <fix>3d</fix>
</trkpt>
<trkpt lat="40.0713749" lon="-105.229789">
  <ele>1583.0</ele>
  <time>2026-08-28T17:51:15Z</time>
  <course>239.96</course>
  <speed>0.0</speed>
  <fix>3d</fix>
</trkpt>
<trkpt lat="40.0713749" lon="-105.229789">
  <ele>1583.0</ele>
  <time>2026-08-28T17:51:15Z</time>
  <course>0.0</course>
  <speed>0.0</speed>
  <fix>3d</fix>
</trkpt>
<trkpt lat="40.0713749" lon="-105.229789">
  <ele>1583.0</ele>
  <time>2026-08-28T17:51:15Z</time>
  <course>240.29</course>
  <speed>0.0</speed>
  <fix>3d</fix>
</trkpt>
<trkpt lat="40.0713749" lon="-105.229789">
  <ele>1583.0</ele>
  <time>2026-08-28T17:51:15Z</time>
  <course>0.0</course>
  <speed>0.0</speed>
  <fix>3d</fix>
</trkpt>
<trkpt lat="40.0713749" lon="-105.229789">
  <ele>1583.0</ele>
  <time>2026-08-28T17:51:15Z</time>
  <course>240.61</course>
  <speed>0.0</speed>
  <fix>3d</fix>
</trkpt>
<trkpt lat="40.0713749" lon="-105.229789">
  <ele>1583.0</ele>
  <time>2026-08-28T17:51:15Z</time>
  <course>0.0</course>
  <speed>0.0</speed>
  <fix>3d</fix>
</trkpt>
<trkpt lat="40.0713749" lon="-105.229789">
  <ele>1583.0</ele>
  <time>2026-08-28T17:51:15Z</time>
  <course>240.92</course>
  <speed>0.0</speed>
  <fix>3d</fix>
</trkpt>
<trkpt lat="40.0713749" lon="-105.229789">
  <ele>1583.0</ele>
  <time>2026-08-28T17:51:15Z</time>
  <course>0.0</course>
  <speed>0.0</speed>
  <fix>3d</fix>
</trkpt>
<trkpt lat="40.0713749" lon="-105.229789">
  <ele>1583.0</ele>
  <time>2026-08-28T17:51:15Z</time>
  <course>241.21</course>
  <speed>0.0</speed>
  <fix>3d</fix>
</trkpt>
<trkpt lat="40.0713749" lon="-105.229789">
  <ele>1583.0</ele>
  <time>2026-08-28T17:51:15Z</time>
  <course>0.0</course>
  <speed>0.0</speed>
  <fix>3d</fix>
</trkpt>
<trkpt lat="40.0713749" lon="-105.229789">
  <ele>1583.0</ele>
  <time>2026-08-28T17:51:15Z</time>
  <course>241.49</course>
  <speed>0.0</speed>
  <fix>3d</fix>
</trkpt>
<trkpt lat="40.0713749" lon="-105.229789">
  <ele>1583.0</ele>
  <time>2026-08-28T17:51:15Z</time>
  <course>0.0</course>
  <speed>0.0</speed>
  <fix>3d</fix>
</trkpt>
<trkpt lat="40.0713749" lon="-105.229789">
  <ele>1583.0</ele>
  <time>2026-08-28T17:51:15Z</time>
  <course>241.77</course>
  <speed>0.0</speed>
  <fix>3d</fix>
</trkpt>
<trkpt lat="40.0713749" lon="-105.229789">
  <ele>1583.0</ele>
  <time>2026-08-28T17:51:15Z</time>
  <course>0.0</course>
  <speed>0.0</speed>
  <fix>3d</fix>
</trkpt>
<trkpt lat="40.0713749" lon="-105.229789">
  <ele>1583.0</ele>
  <time>2026-08-28T17:51:15Z</time>
  <course>242.03</course>
  <speed>0.0</speed>
  <fix>3d</fix>
</trkpt>
<trkpt lat="40.0713749" lon="-105.229789">
  <ele>1583.0</ele>
  <time>2026-08-28T17:51:15Z</time>
  <course>0.0</course>
  <speed>0.0</speed>
  <fix>3d</fix>
</trkpt>
<trkpt lat="40.0713749" lon="-105.229789">
  <ele>1583.0</ele>
  <time>2026-08-28T17:51:15Z</time>
  <course>242.29</course>
  <speed>0.0</speed>
  <fix>3d</fix>
</trkpt>
<trkpt lat="40.0713749" lon="-105.229789">
  <ele>1583.0</ele>
  <time>2026-08-28T17:51:15Z</time>
  <course>0.0</course>
  <speed>0.0</speed>
  <fix>3d</fix>
</trkpt>
<trkpt lat="40.0713749" lon="-105.229789">
  <ele>1583.0</ele>
  <time>2026-08-28T17:51:15Z</time>
  <course>242.54</course>
  <speed>0.0</speed>
  <fix>3d</fix>
</trkpt>
<trkpt lat="40.0713749" lon="-105.229789">
  <ele>1583.0</ele>
  <time>2026-08-28T17:51:15Z</time>
  <course>0.0</course>
  <speed>0.0</speed>
  <fix>3d</fix>
</trkpt>
<trkpt lat="40.0713749" lon="-105.229789">
  <ele>1583.0</ele>
  <time>2026-08-28T17:51:15Z</time>
  <course>242.79</course>
  <speed>0.0</speed>
  <fix>3d</fix>
</trkpt>
<trkpt lat="40.0713749" lon="-105.229789">
  <ele>1583.0</ele>
  <time>2026-08-28T17:51:15Z</time>
  <course>0.0</course>
  <speed>0.0</speed>
  <fix>3d</fix>
</trkpt>
<trkpt lat="40.0713749" lon="-105.229789">
  <ele>1583.0</ele>
  <time>2026-08-28T17:51:15Z</time>
  <course>243.02</course>
  <speed>0.0</speed>
  <fix>3d</fix>
</trkpt>
<trkpt lat="40.0713749" lon="-105.229789">
  <ele>1583.0</ele>
  <time>2026-08-28T17:51:15Z</time>
  <course>0.0</course>
  <speed>0.0</speed>
  <fix>3d</fix>
</trkpt>
<trkpt lat="40.0713749" lon="-105.229789">
  <ele>1583.0</ele>
  <time>2026-08-28T17:51:15Z</time>
  <course>243.25</course>
  <speed>0.0</speed>
  <fix>3d</fix>
</trkpt>
<trkpt lat="40.0713749" lon="-105.229789">
  <ele>1583.0</ele>
  <time>2026-08-28T17:51:15Z</time>
  <course>0.0</course>
  <speed>0.0</speed>
  <fix>3d</fix>
</trkpt>
<trkpt lat="40.0713749" lon="-105.229789">
  <ele>1583.0</ele>
  <time>2026-08-28T17:51:15Z</time>
  <course>243.47</course>
  <speed>0.0</speed>
  <fix>3d</fix>
</trkpt>
<trkpt lat="40.0713749" lon="-105.229789">
  <ele>1583.0</ele>
  <time>2026-08-28T17:51:15Z</time>
  <course>0.0</course>
  <speed>0.0</speed>
  <fix>3d</fix>
</trkpt>
<trkpt lat="40.0713749" lon="-105.229789">
  <ele>1583.0</ele>
  <time>2026-08-28T17:51:15Z</time>
  <course>243.68</course>
  <speed>0.0</speed>
  <fix>3d</fix>
</trkpt>
<trkpt lat="40.0713749" lon="-105.229789">
  <ele>1583.0</ele>
  <time>2026-08-28T17:51:15Z</time>
  <course>0.0</course>
  <speed>0.0</speed>
  <fix>3d</fix>
</trkpt>
<trkpt lat="40.0713749" lon="-105.229789">
  <ele>1583.0</ele>
  <time>2026-08-28T17:51:15Z</time>
  <course>243.89</course>
  <speed>0.0</speed>
  <fix>3d</fix>
</trkpt>
<trkpt lat="40.0713749" lon="-105.229789">
  <ele>1583.0</ele>
  <time>2026-08-28T17:51:15Z</time>
  <course>0.0</course>
  <speed>0.0</speed>
  <fix>3d</fix>
</trkpt>
<trkpt lat="40.0713749" lon="-105.229789">
  <ele>1583.0</ele>
  <time>2026-08-28T17:51:15Z</time>
  <course>244.09</course>
  <speed>0.0</speed>
  <fix>3d</fix>
</trkpt>
<trkpt lat="40.0713749" lon="-105.229789">
  <ele>1583.0</ele>
  <time>2026-08-28T17:51:15Z</time>
  <course>0.0</course>
  <speed>0.0</speed>
  <fix>3d</fix>
</trkpt>
<trkpt lat="40.0713749" lon="-105.229789">
  <ele>1583.0</ele>
  <time>2026-08-28T17:51:15Z</time>
  <course>244.28</course>
  <speed>0.0</speed>
  <fix>3d</fix>
</trkpt>
<trkpt lat="40.0713749" lon="-105.229789">
  <ele>1583.0</ele>
  <time>2026-08-28T17:51:15Z</time>
  <course>0.0</course>
  <speed>0.0</speed>
  <fix>3d</fix>
</trkpt>
<trkpt lat="40.0713749" lon="-105.229789">
  <ele>1583.0</ele>
  <time>2026-08-28T17:51:15Z</time>
  <course>244.46</course>
  <speed>0.0</speed>
  <fix>3d</fix>
</trkpt>
<trkpt lat="40.0713749" lon="-105.229789">
  <ele>1583.0</ele>
  <time>2026-08-28T17:51:15Z</time>
  <course>0.0</course>
  <speed>0.0</speed>
  <fix>3d</fix>
</trkpt>
<trkpt lat="40.0713749" lon="-105.229789">
  <ele>1583.0</ele>
  <time>2026-08-28T17:51:15Z</time>
  <course>244.64</course>
  <speed>0.0</speed>
  <fix>3d</fix>
</trkpt>
<trkpt lat="40.0713749" lon="-105.229789">
  <ele>1583.0</ele>
  <time>2026-08-28T17:51:15Z</time>
  <course>0.0</course>
  <speed>0.0</speed>
  <fix>3d</fix>
</trkpt>
<trkpt lat="40.0713749" lon="-105.229789">
  <ele>1583.0</ele>
  <time>2026-08-28T17:51:15Z</time>
  <course>244.81</course>
  <speed>0.0</speed>
  <fix>3d</fix>
</trkpt>
<trkpt lat="40.0713749" lon="-105.229789">
  <ele>1583.0</ele>
  <time>2026-08-28T17:51:15Z</time>
  <course>0.0</course>
  <speed>0.0</speed>
  <fix>3d</fix>
</trkpt>
<trkpt lat="40.0713749" lon="-105.229789">
  <ele>1583.0</ele>
  <time>2026-08-28T17:51:15Z</time>
  <course>244.97</course>
  <speed>0.0</speed>
  <fix>3d</fix>
</trkpt>
<trkpt lat="40.0713749" lon="-105.229789">
  <ele>1583.0</ele>
  <time>2026-08-28T17:51:15Z</time>
  <course>0.0</course>
  <speed>0.0</speed>
  <fix>3d</fix>
</trkpt>
<trkpt lat="40.0713749" lon="-105.229789">
  <ele>1583.0</ele>
  <time>2026-08-28T17:51:15Z</time>
  <course>245.13</course>
  <speed>0.0</speed>
  <fix>3d</fix>
</trkpt>
<trkpt lat="40.0713749" lon="-105.229789">
  <ele>1583.0</ele>
  <time>2026-08-28T17:51:15Z</time>
  <course>0.0</course>
  <speed>0.0</speed>
  <fix>3d</fix>
</trkpt>
<trkpt lat="40.0713749" lon="-105.229789">
  <ele>1583.0</ele>
  <time>2026-08-28T17:51:15Z</time>
  <course>245.29</course>
  <speed>0.0</speed>
  <fix>3d</fix>
</trkpt>
<trkpt lat="40.0713749" lon="-105.229789">
  <ele>1583.0</ele>
  <time>2026-08-28T17:51:15Z</time>
  <course>0.0</course>
  <speed>0.0</speed>
  <fix>3d</fix>
</trkpt>
<trkpt lat="40.0713749" lon="-105.229789">
  <ele>1583.0</ele>
  <time>2026-08-28T17:51:15Z</time>
  <course>245.43</course>
  <speed>0.0</speed>
  <fix>3d</fix>
</trkpt>
<trkpt lat="40.0713749" lon="-105.229789">
  <ele>1583.0</ele>
  <time>2026-08-28T17:51:15Z</time>
  <course>0.0</course>
  <speed>0.0</speed>
  <fix>3d</fix>
</trkpt>
<trkpt lat="40.0713749" lon="-105.229789">
  <ele>1583.0</ele>
  <time>2026-08-28T17:51:15Z</time>
  <course>245.57</course>
  <speed>0.0</speed>
  <fix>3d</fix>
</trkpt>
<trkpt lat="40.0713749" lon="-105.229789">
  <ele>1583.0</ele>
  <time>2026-08-28T17:51:15Z</time>
  <course>0.0</course>
  <speed>0.0</speed>
  <fix>3d</fix>
</trkpt>
<trkpt lat="40.0713749" lon="-105.229789">
  <ele>1583.0</ele>
  <time>2026-08-28T17:51:15Z</time>
  <course>245.71</course>
  <speed>0.0</speed>
  <fix>3d</fix>
</trkpt>
<trkpt lat="40.0713749" lon="-105.229789">
  <ele>1583.0</ele>
  <time>2026-08-28T17:51:15Z</time>
  <course>0.0</course>
  <speed>0.0</speed>
  <fix>3d</fix>
</trkpt>
<trkpt lat="40.0713749" lon="-105.229789">
  <ele>1583.0</ele>
  <time>2026-08-28T17:51:15Z</time>
  <course>245.84</course>
  <speed>0.0</speed>
  <fix>3d</fix>
</trkpt>
<trkpt lat="40.0713749" lon="-105.229789">
  <ele>1583.0</ele>
  <time>2026-08-28T17:51:15Z</time>
  <course>0.0</course>
  <speed>0.0</speed>
  <fix>3d</fix>
</trkpt>
<trkpt lat="40.0713749" lon="-105.229789">
  <ele>1583.0</ele>
  <time>2026-08-28T17:51:15Z</time>
  <course>245.96</course>
  <speed>0.0</speed>
  <fix>3d</fix>
</trkpt>
<trkpt lat="40.0713749" lon="-105.229789">
  <ele>1583.0</ele>
  <time>2026-08-28T17:51:15Z</time>
  <course>0.0</course>
  <speed>0.0</speed>
  <fix>3d</fix>
</trkpt>
<trkpt lat="40.0713749" lon="-105.229789">
  <ele>1583.0</ele>
  <time>2026-08-28T17:51:15Z</time>
  <course>246.08</course>
  <speed>0.0</speed>
  <fix>3d</fix>
</trkpt>
<trkpt lat="40.0713749" lon="-105.229789">
  <ele>1583.0</ele>
  <time>2026-08-28T17:51:15Z</time>
  <course>0.0</course>
  <speed>0.0</speed>
  <fix>3d</fix>
</trkpt>
<trkpt lat="40.0713749" lon="-105.229789">
  <ele>1583.0</ele>
  <time>2026-08-28T17:51:15Z</time>
  <course>246.19</course>
  <speed>0.0</speed>
  <fix>3d</fix>
</trkpt>
<trkpt lat="40.0713749" lon="-105.229789">
  <ele>1583.0</ele>
  <time>2026-08-28T17:51:15Z</time>
  <course>0.0</course>
  <speed>0.0</speed>
  <fix>3d</fix>
</trkpt>
<trkpt lat="40.0713749" lon="-105.229789">
  <ele>1583.0</ele>
  <time>2026-08-28T17:51:15Z</time>
  <course>246.3</course>
  <speed>0.0</speed>
  <fix>3d</fix>
</trkpt>
<trkpt lat="40.0713749" lon="-105.229789">
  <ele>1583.0</ele>
  <time>2026-08-28T17:51:15Z</time>
  <course>0.0</course>
  <speed>0.0</speed>
  <fix>3d</fix>
</trkpt>
<trkpt lat="40.0713749" lon="-105.229789">
  <ele>1583.0</ele>
  <time>2026-08-28T17:51:15Z</time>
  <course>246.41</course>
  <speed>0.0</speed>
  <fix>3d</fix>
</trkpt>
<trkpt lat="40.0713749" lon="-105.229789">
  <ele>1583.0</ele>
  <time>2026-08-28T17:51:15Z</time>
  <course>0.0</course>
  <speed>0.0</speed>
  <fix>3d</fix>
</trkpt>
<trkpt lat="40.0713749" lon="-105.229789">
  <ele>1583.0</ele>
  <time>2026-08-28T17:51:15Z</time>
  <course>246.51</course>
  <speed>0.0</speed>
  <fix>3d</fix>
</trkpt>
<trkpt lat="40.0713749" lon="-105.229789">
  <ele>1583.0</ele>
  <time>2026-08-28T17:51:15Z</time>
  <course>0.0</course>
  <speed>0.0</speed>
  <fix>3d</fix>
</trkpt>
<trkpt lat="40.0713749" lon="-105.229789">
  <ele>1583.0</ele>
  <time>2026-08-28T17:51:15Z</time>
  <course>246.6</course>
  <speed>0.0</speed>
  <fix>3d</fix>
</trkpt>
<trkpt lat="40.0713749" lon="-105.229789">
  <ele>1583.0</ele>
  <time>2026-08-28T17:51:15Z</time>
  <course>0.0</course>
  <speed>0.0</speed>
  <fix>3d</fix>
</trkpt>
<trkpt lat="40.0713749" lon="-105.229789">
  <ele>1583.0</ele>
  <time>2026-08-28T17:51:15Z</time>
  <course>246.7</course>
  <speed>0.0</speed>
  <fix>3d</fix>
</trkpt>
<trkpt lat="40.0713749" lon="-105.229789">
  <ele>1583.0</ele>
  <time>2026-08-28T17:51:15Z</time>
  <course>0.0</course>
  <speed>0.0</speed>
  <fix>3d</fix>
</trkpt>
<trkpt lat="40.0713749" lon="-105.229789">
  <ele>1583.0</ele>
  <time>2026-08-28T17:51:15Z</time>
  <course>246.78</course>
  <speed>0.0</speed>
  <fix>3d</fix>
</trkpt>
<trkpt lat="40.0713749" lon="-105.229789">
  <ele>1583.0</ele>
  <time>2026-08-28T17:51:15Z</time>
  <course>0.0</course>
  <speed>0.0</speed>
  <fix>3d</fix>
</trkpt>
<trkpt lat="40.0713749" lon="-105.229789">
  <ele>1583.0</ele>
  <time>2026-08-28T17:51:15Z</time>
  <course>246.87</course>
  <speed>0.0</speed>
  <fix>3d</fix>
</trkpt>
<trkpt lat="40.0713749" lon="-105.229789">
  <ele>1583.0</ele>
  <time>2026-08-28T17:51:15Z</time>
  <course>0.0</course>
  <speed>0.0</speed>
  <fix>3d</fix>
</trkpt>
<trkpt lat="40.0713749" lon="-105.229789">
  <ele>1583.0</ele>
  <time>2026-08-28T17:51:15Z</time>
  <course>246.95</course>
  <speed>0.0</speed>
  <fix>3d</fix>
</trkpt>
<trkpt lat="40.0713749" lon="-105.229789">
  <ele>1583.0</ele>
  <time>2026-08-28T17:51:15Z</time>
  <course>0.0</course>
  <speed>0.0</speed>
  <fix>3d</fix>
</trkpt>
<trkpt lat="40.0713749" lon="-105.229789">
  <ele>1583.0</ele>
  <time>2026-08-28T17:51:15Z</time>
  <course>247.02</course>
  <speed>0.0</speed>
  <fix>3d</fix>
</trkpt>
<trkpt lat="40.0713749" lon="-105.229789">
  <ele>1583.0</ele>
  <time>2026-08-28T17:51:15Z</time>
  <course>0.0</course>
  <speed>0.0</speed>
  <fix>3d</fix>
</trkpt>
<trkpt lat="40.0713749" lon="-105.229789">
  <ele>1583.0</ele>
  <time>2026-08-28T17:51:15Z</time>
  <course>247.1</course>
  <speed>0.0</speed>
  <fix>3d</fix>
</trkpt>
<trkpt lat="40.0713749" lon="-105.229789">
  <ele>1583.0</ele>
  <time>2026-08-28T17:51:15Z</time>
  <course>0.0</course>
  <speed>0.0</speed>
  <fix>3d</fix>
</trkpt>
<trkpt lat="40.0713749" lon="-105.229789">
  <ele>1583.0</ele>
  <time>2026-08-28T17:51:15Z</time>
  <course>247.17</course>
  <speed>0.0</speed>
  <fix>3d</fix>
</trkpt>
<trkpt lat="40.0713749" lon="-105.229789">
  <ele>1583.0</ele>
  <time>2026-08-28T17:51:15Z</time>
  <course>0.0</course>
  <speed>0.0</speed>
  <fix>3d</fix>
</trkpt>
<trkpt lat="40.0713749" lon="-105.229789">
  <ele>1583.0</ele>
  <time>2026-08-28T17:51:15Z</time>
  <course>247.24</course>
  <speed>0.0</speed>
  <fix>3d</fix>
</trkpt>
<trkpt lat="40.0713749" lon="-105.229789">
  <ele>1583.0</ele>
  <time>2026-08-28T17:51:15Z</time>
  <course>0.0</course>
  <speed>0.0</speed>
  <fix>3d</fix>
</trkpt>
<trkpt lat="40.0713749" lon="-105.229789">
  <ele>1583.0</ele>
  <time>2026-08-28T17:51:15Z</time>
  <course>247.3</course>
  <speed>0.0</speed>
  <fix>3d</fix>
</trkpt>
<trkpt lat="40.0713749" lon="-105.229789">
  <ele>1583.0</ele>
  <time>2026-08-28T17:51:15Z</time>
  <course>0.0</course>
  <speed>0.0</speed>
  <fix>3d</fix>
</trkpt>
<trkpt lat="40.0713749" lon="-105.229789">
  <ele>1583.0</ele>
  <time>2026-08-28T17:51:15Z</time>
  <course>247.36</course>
  <speed>0.0</speed>
  <fix>3d</fix>
</trkpt>
<trkpt lat="40.0713749" lon="-105.229789">
  <ele>1583.0</ele>
  <time>2026-08-28T17:51:15Z</time>
  <course>0.0</course>
  <speed>0.0</speed>
  <fix>3d</fix>
</trkpt>
<trkpt lat="40.0713749" lon="-105.229789">
  <ele>1583.0</ele>
  <time>2026-08-28T17:51:15Z</time>
  <course>247.42</course>
  <speed>0.0</speed>
  <fix>3d</fix>
</trkpt>
<trkpt lat="40.0713749" lon="-105.229789">
  <ele>1583.0</ele>
  <time>2026-08-28T17:51:15Z</time>
  <course>0.0</course>
  <speed>0.0</speed>
  <fix>3d</fix>
</trkpt>
<trkpt lat="40.0713749" lon="-105.229789">
  <ele>1583.0</ele>
  <time>2026-08-28T17:51:15Z</time>
  <course>247.47</course>
  <speed>0.0</speed>
  <fix>3d</fix>
</trkpt>
<trkpt lat="40.0713749" lon="-105.229789">
  <ele>1583.0</ele>
  <time>2026-08-28T17:51:15Z</time>
  <course>0.0</course>
  <speed>0.0</speed>
  <fix>3d</fix>
</trkpt>
<trkpt lat="40.0713749" lon="-105.229789">
  <ele>1583.0</ele>
  <time>2026-08-28T17:51:15Z</time>
  <course>247.53</course>
  <speed>0.0</speed>
  <fix>3d</fix>
</trkpt>
<trkpt lat="40.0713749" lon="-105.229789">
  <ele>1583.0</ele>
  <time>2026-08-28T17:51:15Z</time>
  <course>0.0</course>
  <speed>0.0</speed>
  <fix>3d</fix>
</trkpt>
<trkpt lat="40.0713749" lon="-105.229789">
  <ele>1583.0</ele>
  <time>2026-08-28T17:51:15Z</time>
  <course>247.58</course>
  <speed>0.0</speed>
  <fix>3d</fix>
</trkpt>
<trkpt lat="40.0713749" lon="-105.229789">
  <ele>1583.0</ele>
  <time>2026-08-28T17:51:15Z</time>
  <course>0.0</course>
  <speed>0.0</speed>
  <fix>3d</fix>
</trkpt>
<trkpt lat="40.0713749" lon="-105.229789">
  <ele>1583.0</ele>
  <time>2026-08-28T17:51:15Z</time>
  <course>247.63</course>
  <speed>0.0</speed>
  <fix>3d</fix>
</trkpt>
<trkpt lat="40.0713749" lon="-105.229789">
  <ele>1583.0</ele>
  <time>2026-08-28T17:51:15Z</time>
  <course>0.0</course>
  <speed>0.0</speed>
  <fix>3d</fix>
</trkpt>
<trkpt lat="40.0713749" lon="-105.229789">
  <ele>1583.0</ele>
  <time>2026-08-28T17:51:15Z</time>
  <course>247.67</course>
  <speed>0.0</speed>
  <fix>3d</fix>
</trkpt>
<trkpt lat="40.0713749" lon="-105.229789">
  <ele>1583.0</ele>
  <time>2026-08-28T17:51:15Z</time>
  <course>0.0</course>
  <speed>0.0</speed>
  <fix>3d</fix>
</trkpt>
<trkpt lat="40.0713749" lon="-105.229789">
  <ele>1583.0</ele>
  <time>2026-08-28T17:51:15Z</time>
  <course>247.72</course>
  <speed>0.0</speed>
  <fix>3d</fix>
</trkpt>
<trkpt lat="40.0713749" lon="-105.229789">
  <ele>1583.0</ele>
  <time>2026-08-28T17:51:15Z</time>
  <course>0.0</course>
  <speed>0.0</speed>
  <fix>3d</fix>
</trkpt>
<trkpt lat="40.0713749" lon="-105.229789">
  <ele>1583.0</ele>
  <time>2026-08-28T17:51:15Z</time>
  <course>247.76</course>
  <speed>0.0</speed>
  <fix>3d</fix>
</trkpt>
<trkpt lat="40.0713749" lon="-105.229789">
  <ele>1583.0</ele>
  <time>2026-08-28T17:51:15Z</time>
  <course>0.0</course>
  <speed>0.0</speed>
  <fix>3d</fix>
</trkpt>
<trkpt lat="40.0713749" lon="-105.229789">
  <ele>1583.0</ele>
  <time>2026-08-28T17:51:15Z</time>
  <course>247.8</course>
  <speed>0.0</speed>
  <fix>3d</fix>
</trkpt>
<trkpt lat="40.0713749" lon="-105.229789">
  <ele>1583.0</ele>
  <time>2026-08-28T17:51:15Z</time>
  <course>0.0</course>
  <speed>0.0</speed>
  <fix>3d</fix>
</trkpt>
<trkpt lat="40.0713749" lon="-105.229789">
  <ele>1583.0</ele>
  <time>2026-08-28T17:51:15Z</time>
  <course>247.83</course>
  <speed>0.0</speed>
  <fix>3d</fix>
</trkpt>
<trkpt lat="40.0713749" lon="-105.229789">
  <ele>1583.0</ele>
  <time>2026-08-28T17:51:15Z</time>
  <course>0.0</course>
  <speed>0.0</speed>
  <fix>3d</fix>
</trkpt>
<trkpt lat="40.0713749" lon="-105.229789">
  <ele>1583.0</ele>
  <time>2026-08-28T17:51:15Z</time>
  <course>247.87</course>
  <speed>0.0</speed>
  <fix>3d</fix>
</trkpt>
<trkpt lat="40.0713749" lon="-105.229789">
  <ele>1583.0</ele>
  <time>2026-08-28T17:51:15Z</time>
  <course>0.0</course>
  <speed>0.0</speed>
  <fix>3d</fix>
</trkpt>
<trkpt lat="40.0713749" lon="-105.229789">
  <ele>1583.0</ele>
  <time>2026-08-28T17:51:15Z</time>
  <course>247.9</course>
  <speed>0.0</speed>
  <fix>3d</fix>
</trkpt>
<trkpt lat="40.0713749" lon="-105.229789">
  <ele>1583.0</ele>
  <time>2026-08-28T17:51:15Z</time>
  <course>0.0</course>
  <speed>0.0</speed>
  <fix>3d</fix>
</trkpt>
<trkpt lat="40.0713749" lon="-105.229789">
  <ele>1583.0</ele>
  <time>2026-08-28T17:51:15Z</time>
  <course>247.94</course>
  <speed>0.0</speed>
  <fix>3d</fix>
</trkpt>
<trkpt lat="40.0713749" lon="-105.229789">
  <ele>1583.0</ele>
  <time>2026-08-28T17:51:15Z</time>
  <course>0.0</course>
  <speed>0.0</speed>
  <fix>3d</fix>
</trkpt>
<trkpt lat="40.0713749" lon="-105.229789">
  <ele>1583.0</ele>
  <time>2026-08-28T17:51:15Z</time>
  <course>247.97</course>
  <speed>0.0</speed>
  <fix>3d</fix>
</trkpt>
<trkpt lat="40.0713749" lon="-105.229789">
  <ele>1583.0</ele>
  <time>2026-08-28T17:51:15Z</time>
  <course>0.0</course>
  <speed>0.0</speed>
  <fix>3d</fix>
</trkpt>
<trkpt lat="40.0713749" lon="-105.229789">
  <ele>1583.0</ele>
  <time>2026-08-28T17:51:15Z</time>
  <course>248.0</course>
  <speed>0.0</speed>
  <fix>3d</fix>
</trkpt>
<trkpt lat="40.0713749" lon="-105.229789">
  <ele>1583.0</ele>
  <time>2026-08-28T17:51:15Z</time>
  <course>0.0</course>
  <speed>0.0</speed>
  <fix>3d</fix>
</trkpt>
<trkpt lat="40.0713749" lon="-105.229789">
  <ele>1583.0</ele>
  <time>2026-08-28T17:51:15Z</time>
  <course>248.02</course>
  <speed>0.0</speed>
  <fix>3d</fix>
</trkpt>
<trkpt lat="40.0713749" lon="-105.229789">
  <ele>1583.0</ele>
  <time>2026-08-28T17:51:15Z</time>
  <course>0.0</course>
  <speed>0.0</speed>
  <fix>3d</fix>
</trkpt>
<trkpt lat="40.0713749" lon="-105.229789">
  <ele>1583.0</ele>
  <time>2026-08-28T17:51:15Z</time>
  <course>248.05</course>
  <speed>0.0</speed>
  <fix>3d</fix>
</trkpt>
<trkpt lat="40.0713749" lon="-105.229789">
  <ele>1583.0</ele>
  <time>2026-08-28T17:51:15Z</time>
  <course>0.0</course>
  <speed>0.0</speed>
  <fix>3d</fix>
</trkpt>
<trkpt lat="40.0713749" lon="-105.229789">
  <ele>1583.0</ele>
  <time>2026-08-28T17:51:15Z</time>
  <course>248.08</course>
  <speed>0.0</speed>
  <fix>3d</fix>
</trkpt>
<trkpt lat="40.0713749" lon="-105.229789">
  <ele>1583.0</ele>
  <time>2026-08-28T17:51:15Z</time>
  <course>0.0</course>
  <speed>0.0</speed>
  <fix>3d</fix>
</trkpt>
<trkpt lat="40.0713749" lon="-105.229789">
  <ele>1583.0</ele>
  <time>2026-08-28T17:51:15Z</time>
  <course>248.1</course>
  <speed>0.0</speed>
  <fix>3d</fix>
</trkpt>
<trkpt lat="40.0713749" lon="-105.229789">
  <ele>1583.0</ele>
  <time>2026-08-28T17:51:15Z</time>
  <course>0.0</course>
  <speed>0.0</speed>
  <fix>3d</fix>
</trkpt>
<trkpt lat="40.0713749" lon="-105.229789">
  <ele>1583.0</ele>
  <time>2026-08-28T17:51:15Z</time>
  <course>248.12</course>
  <speed>0.0</speed>
  <fix>3d</fix>
</trkpt>
<trkpt lat="40.0713749" lon="-105.229789">
  <ele>1583.0</ele>
  <time>2026-08-28T17:51:15Z</time>
  <course>0.0</course>
  <speed>0.0</speed>
  <fix>3d</fix>
</trkpt>
<trkpt lat="40.0713749" lon="-105.229789">
  <ele>1583.0</ele>
  <time>2026-08-28T17:51:15Z</time>
  <course>248.14</course>
  <speed>0.0</speed>
  <fix>3d</fix>
</trkpt>
<trkpt lat="40.0713749" lon="-105.229789">
  <ele>1583.0</ele>
  <time>2026-08-28T17:51:15Z</time>
  <course>0.0</course>
  <speed>0.0</speed>
  <fix>3d</fix>
</trkpt>
<trkpt lat="40.0713749" lon="-105.229789">
  <ele>1583.0</ele>
  <time>2026-08-28T17:51:15Z</time>
  <course>248.16</course>
  <speed>0.0</speed>
  <fix>3d</fix>
</trkpt>
<trkpt lat="40.0713749" lon="-105.229789">
  <ele>1583.0</ele>
  <time>2026-08-28T17:51:15Z</time>
  <course>0.0</course>
  <speed>0.0</speed>
  <fix>3d</fix>
</trkpt>
<trkpt lat="40.0713749" lon="-105.229789">
  <ele>1583.0</ele>
  <time>2026-08-28T17:51:15Z</time>
  <course>248.18</course>
  <speed>0.0</speed>
  <fix>3d</fix>
</trkpt>
<trkpt lat="40.0713749" lon="-105.229789">
  <ele>1583.0</ele>
  <time>2026-08-28T17:51:15Z</time>
  <course>0.0</course>
  <speed>0.0</speed>
  <fix>3d</fix>
</trkpt>
<trkpt lat="40.0713749" lon="-105.229789">
  <ele>1583.0</ele>
  <time>2026-08-28T17:51:15Z</time>
  <course>248.2</course>
  <speed>0.0</speed>
  <fix>3d</fix>
</trkpt>
<trkpt lat="40.0713749" lon="-105.229789">
  <ele>1583.0</ele>
  <time>2026-08-28T17:51:15Z</time>
  <course>0.0</course>
  <speed>0.0</speed>
  <fix>3d</fix>
</trkpt>
<trkpt lat="40.0713749" lon="-105.229789">
  <ele>1583.0</ele>
  <time>2026-08-28T17:51:15Z</time>
  <course>248.22</course>
  <speed>0.0</speed>
  <fix>3d</fix>
</trkpt>
<trkpt lat="40.0713749" lon="-105.229789">
  <ele>1583.0</ele>
  <time>2026-08-28T17:51:15Z</time>
  <course>0.0</course>
  <speed>0.0</speed>
  <fix>3d</fix>
</trkpt>
<trkpt lat="40.0713749" lon="-105.229789">
  <ele>1583.0</ele>
  <time>2026-08-28T17:51:15Z</time>
  <course>248.23</course>
  <speed>0.0</speed>
  <fix>3d</fix>
</trkpt>
<trkpt lat="40.0713749" lon="-105.229789">
  <ele>1583.0</ele>
  <time>2026-08-28T17:51:15Z</time>
  <course>0.0</course>
  <speed>0.0</speed>
  <fix>3d</fix>
</trkpt>
<trkpt lat="40.0713749" lon="-105.229789">
  <ele>1583.0</ele>
  <time>2026-08-28T17:51:15Z</time>
  <course>248.25</course>
  <speed>0.0</speed>
  <fix>3d</fix>
</trkpt>
<trkpt lat="40.0713749" lon="-105.229789">
  <ele>1583.0</ele>
  <time>2026-08-28T17:51:15Z</time>
  <course>0.0</course>
  <speed>0.0</speed>
  <fix>3d</fix>
</trkpt>
<trkpt lat="40.0713749" lon="-105.229789">
  <ele>1583.0</ele>
  <time>2026-08-28T17:51:15Z</time>
  <course>248.26</course>
  <speed>0.0</speed>
  <fix>3d</fix>
</trkpt>
<trkpt lat="40.0713749" lon="-105.229789">
  <ele>1583.0</ele>
  <time>2026-08-28T17:51:15Z</time>
  <course>0.0</course>
  <speed>0.0</speed>
  <fix>3d</fix>
</trkpt>
<trkpt lat="40.0713749" lon="-105.229789">
  <ele>1583.0</ele>
  <time>2026-08-28T17:51:15Z</time>
  <course>248.28</course>
  <speed>0.0</speed>
  <fix>3d</fix>
</trkpt>
<trkpt lat="40.0713749" lon="-105.229789">
  <ele>1583.0</ele>
  <time>2026-08-28T17:51:15Z</time>
  <course>0.0</course>
  <speed>0.0</speed>
  <fix>3d</fix>
</trkpt>
<trkpt lat="40.0713749" lon="-105.229789">
  <ele>1583.0</ele>
  <time>2026-08-28T17:51:15Z</time>
  <course>248.29</course>
  <speed>0.0</speed>
  <fix>3d</fix>
</trkpt>
<trkpt lat="40.0713749" lon="-105.229789">
  <ele>1583.0</ele>
  <time>2026-08-28T17:51:15Z</time>
  <course>0.0</course>
  <speed>0.0</speed>
  <fix>3d</fix>
</trkpt>
<trkpt lat="40.0713749" lon="-105.229789">
  <ele>1583.0</ele>
  <time>2026-08-28T17:51:15Z</time>
  <course>248.3</course>
  <speed>0.0</speed>
  <fix>3d</fix>
</trkpt>
<trkpt lat="40.0713749" lon="-105.229789">
  <ele>1583.0</ele>
  <time>2026-08-28T17:51:15Z</time>
  <course>0.0</course>
  <speed>0.0</speed>
  <fix>3d</fix>
</trkpt>
<trkpt lat="40.0713749" lon="-105.229789">
  <ele>1583.0</ele>
  <time>2026-08-28T17:51:15Z</time>
  <course>248.31</course>
  <speed>0.0</speed>
  <fix>3d</fix>
</trkpt>
<trkpt lat="40.0713749" lon="-105.229789">
  <ele>1583.0</ele>
  <time>2026-08-28T17:51:15Z</time>
  <course>0.0</course>
  <speed>0.0</speed>
  <fix>3d</fix>
</trkpt>
<trkpt lat="40.0713749" lon="-105.229789">
  <ele>1583.0</ele>
  <time>2026-08-28T17:51:15Z</time>
  <course>248.32</course>
  <speed>0.0</speed>
  <fix>3d</fix>
</trkpt>
<trkpt lat="40.0713749" lon="-105.229789">
  <ele>1583.0</ele>
  <time>2026-08-28T17:51:15Z</time>
  <course>0.0</course>
  <speed>0.0</speed>
  <fix>3d</fix>
</trkpt>
<trkpt lat="40.0713749" lon="-105.229789">
  <ele>1583.0</ele>
  <time>2026-08-28T17:51:15Z</time>
  <course>248.33</course>
  <speed>0.0</speed>
  <fix>3d</fix>
</trkpt>
<trkpt lat="40.0713749" lon="-105.229789">
  <ele>1583.0</ele>
  <time>2026-08-28T17:51:15Z</time>
  <course>0.0</course>
  <speed>0.0</speed>
  <fix>3d</fix>
</trkpt>
<trkpt lat="40.0713749" lon="-105.229789">
  <ele>1583.0</ele>
  <time>2026-08-28T17:51:15Z</time>
  <course>248.34</course>
  <speed>0.0</speed>
  <fix>3d</fix>
</trkpt>
<trkpt lat="40.0713749" lon="-105.229789">
  <ele>1583.0</ele>
  <time>2026-08-28T17:51:15Z</time>
  <course>0.0</course>
  <speed>0.0</speed>
  <fix>3d</fix>
</trkpt>
<trkpt lat="40.0713749" lon="-105.229789">
  <ele>1583.0</ele>
  <time>2026-08-28T17:51:15Z</time>
  <course>248.35</course>
  <speed>0.0</speed>
  <fix>3d</fix>
</trkpt>
<trkpt lat="40.0713749" lon="-105.229789">
  <ele>1583.0</ele>
  <time>2026-08-28T17:51:15Z</time>
  <course>0.0</course>
  <speed>0.0</speed>
  <fix>3d</fix>
</trkpt>
<trkpt lat="40.0713749" lon="-105.229789">
  <ele>1583.0</ele>
  <time>2026-08-28T17:51:15Z</time>
  <course>248.35</course>
  <speed>0.0</speed>
  <fix>3d</fix>
</trkpt>
<trkpt lat="40.0713749" lon="-105.229789">
  <ele>1583.0</ele>
  <time>2026-08-28T17:51:15Z</time>
  <course>0.0</course>
  <speed>0.0</speed>
  <fix>3d</fix>
</trkpt>
<trkpt lat="40.0713749" lon="-105.229789">
  <ele>1583.0</ele>
  <time>2026-08-28T17:51:15Z</time>
  <course>248.36</course>
  <speed>0.0</speed>
  <fix>3d</fix>
</trkpt>
<trkpt lat="40.0713749" lon="-105.229789">
  <ele>1583.0</ele>
  <time>2026-08-28T17:51:15Z</time>
  <course>0.0</course>
  <speed>0.0</speed>
  <fix>3d</fix>
</trkpt>
<trkpt lat="40.0713749" lon="-105.229789">
  <ele>1583.0</ele>
  <time>2026-08-28T17:51:15Z</time>
  <course>248.37</course>
  <speed>0.0</speed>
  <fix>3d</fix>
</trkpt>
<trkpt lat="40.0713749" lon="-105.229789">
  <ele>1583.0</ele>
  <time>2026-08-28T17:51:15Z</time>
  <course>0.0</course>
  <speed>0.0</speed>
  <fix>3d</fix>
</trkpt>
<trkpt lat="40.0713749" lon="-105.229789">
  <ele>1583.0</ele>
  <time>2026-08-28T17:51:15Z</time>
  <course>248.37</course>
  <speed>0.0</speed>
  <fix>3d</fix>
</trkpt>
<trkpt lat="40.0713749" lon="-105.229789">
  <ele>1583.0</ele>
  <time>2026-08-28T17:51:15Z</time>
  <course>0.0</course>
  <speed>0.0</speed>
  <fix>3d</fix>
</trkpt>
<trkpt lat="40.0713749" lon="-105.229789">
  <ele>1583.0</ele>
  <time>2026-08-28T17:51:15Z</time>
  <course>248.38</course>
  <speed>0.0</speed>
  <fix>3d</fix>
</trkpt>
<trkpt lat="40.0713749" lon="-105.229789">
  <ele>1583.0</ele>
  <time>2026-08-28T17:51:15Z</time>
  <course>0.0</course>
  <speed>0.0</speed>
  <fix>3d</fix>
</trkpt>
<trkpt lat="40.0713749" lon="-105.229789">
  <ele>1583.0</ele>
  <time>2026-08-28T17:51:15Z</time>
  <course>248.38</course>
  <speed>0.0</speed>
  <fix>3d</fix>
</trkpt>
<trkpt lat="40.0713749" lon="-105.229789">
  <ele>1583.0</ele>
  <time>2026-08-28T17:51:15Z</time>
  <course>0.0</course>
  <speed>0.0</speed>
  <fix>3d</fix>
</trkpt>
<trkpt lat="40.0713749" lon="-105.229789">
  <ele>1583.0</ele>
  <time>2026-08-28T17:51:15Z</time>
  <course>248.39</course>
  <speed>0.0</speed>
  <fix>3d</fix>
</trkpt>
<trkpt lat="40.0713749" lon="-105.229789">
  <ele>1583.0</ele>
  <time>2026-08-28T17:51:15Z</time>
  <course>0.0</course>
  <speed>0.0</speed>
  <fix>3d</fix>
</trkpt>
<trkpt lat="40.0713749" lon="-105.229789">
  <ele>1583.0</ele>
  <time>2026-08-28T17:51:15Z</time>
  <course>248.39</course>
  <speed>0.0</speed>
  <fix>3d</fix>
</trkpt>
<trkpt lat="40.0713749" lon="-105.229789">
  <ele>1583.0</ele>
  <time>2026-08-28T17:51:15Z</time>
  <course>0.0</course>
  <speed>0.0</speed>
  <fix>3d</fix>
</trkpt>
<trkpt lat="40.0713749" lon="-105.229789">
  <ele>1583.0</ele>
  <time>2026-08-28T17:51:15Z</time>
  <course>248.4</course>
  <speed>0.0</speed>
  <fix>3d</fix>
</trkpt>
<trkpt lat="40.0713749" lon="-105.229789">
  <ele>1583.0</ele>
  <time>2026-08-28T17:51:15Z</time>
  <course>0.0</course>
  <speed>0.0</speed>
  <fix>3d</fix>
</trkpt>
<trkpt lat="40.0713749" lon="-105.229789">
  <ele>1583.0</ele>
  <time>2026-08-28T17:51:15Z</time>
  <course>248.4</course>
  <speed>0.0</speed>
  <fix>3d</fix>
</trkpt>
<trkpt lat="40.0713749" lon="-105.229789">
  <ele>1583.0</ele>
  <time>2026-08-28T17:51:15Z</time>
  <course>0.0</course>
  <speed>0.0</speed>
  <fix>3d</fix>
</trkpt>
<trkpt lat="40.0713749" lon="-105.229789">
  <ele>1583.0</ele>
  <time>2026-08-28T17:51:15Z</time>
  <course>248.4</course>
  <speed>0.0</speed>
  <fix>3d</fix>
</trkpt>
<trkpt lat="40.0713749" lon="-105.229789">
  <ele>1583.0</ele>
  <time>2026-08-28T17:51:15Z</time>
  <course>0.0</course>
  <speed>0.0</speed>
  <fix>3d</fix>
</trkpt>
<trkpt lat="40.0713749" lon="-105.229789">
  <ele>1583.0</ele>
  <time>2026-08-28T17:51:15Z</time>
  <course>248.4</course>
  <speed>0.0</speed>
  <fix>3d</fix>
</trkpt>
<trkpt lat="40.0713749" lon="-105.229789">
  <ele>1583.0</ele>
  <time>2026-08-28T17:51:15Z</time>
  <course>0.0</course>
  <speed>0.0</speed>
  <fix>3d</fix>
</trkpt>
<trkpt lat="40.0713749" lon="-105.229789">
  <ele>1583.0</ele>
  <time>2026-08-28T17:51:15Z</time>
  <course>248.41</course>
  <speed>0.0</speed>
  <fix>3d</fix>
</trkpt>
<trkpt lat="40.0713749" lon="-105.229789">
  <ele>1583.0</ele>
  <time>2026-08-28T17:51:15Z</time>
  <course>0.0</course>
  <speed>0.0</speed>
  <fix>3d</fix>
</trkpt>
<trkpt lat="40.0713749" lon="-105.229789">
  <ele>1583.0</ele>
  <time>2026-08-28T17:51:15Z</time>
  <course>248.41</course>
  <speed>0.0</speed>
  <fix>3d</fix>
</trkpt>
<trkpt lat="40.0713749" lon="-105.229789">
  <ele>1583.0</ele>
  <time>2026-08-28T17:51:15Z</time>
  <course>0.0</course>
  <speed>0.0</speed>
  <fix>3d</fix>
</trkpt>
<trkpt lat="40.0713749" lon="-105.229789">
  <ele>1583.0</ele>
  <time>2026-08-28T17:51:15Z</time>
  <course>248.41</course>
  <speed>0.0</speed>
  <fix>3d</fix>
</trkpt>
<trkpt lat="40.0713749" lon="-105.229789">
  <ele>1583.0</ele>
  <time>2026-08-28T17:51:15Z</time>
  <course>0.0</course>
  <speed>0.0</speed>
  <fix>3d</fix>
</trkpt>
<trkpt lat="40.0713749" lon="-105.229789">
  <ele>1583.0</ele>
  <time>2026-08-28T17:51:15Z</time>
  <course>248.41</course>
  <speed>0.0</speed>
  <fix>3d</fix>
</trkpt>
<trkpt lat="40.0713749" lon="-105.229789">
  <ele>1583.0</ele>
  <time>2026-08-28T17:51:15Z</time>
  <course>0.0</course>
  <speed>0.0</speed>
  <fix>3d</fix>
</trkpt>
<trkpt lat="40.0713749" lon="-105.229789">
  <ele>1583.0</ele>
  <time>2026-08-28T17:51:15Z</time>
  <course>248.41</course>
  <speed>0.0</speed>
  <fix>3d</fix>
</trkpt>
<trkpt lat="40.0713749" lon="-105.229789">
  <ele>1583.0</ele>
  <time>2026-08-28T17:51:15Z</time>
  <course>0.0</course>
  <speed>0.0</speed>
  <fix>3d</fix>
</trkpt>
<trkpt lat="40.0713749" lon="-105.229789">
  <ele>1583.0</ele>
  <time>2026-08-28T17:51:15Z</time>
  <course>248.41</course>
  <speed>0.0</speed>
  <fix>3d</fix>
</trkpt>
<trkpt lat="40.0713749" lon="-105.229789">
  <ele>1583.0</ele>
  <time>2026-08-28T17:51:15Z</time>
  <course>0.0</course>
  <speed>0.0</speed>
  <fix>3d</fix>
</trkpt>
<trkpt lat="40.0713749" lon="-105.229789">
  <ele>1583.0</ele>
  <time>2026-08-28T17:51:15Z</time>
  <course>248.41</course>
  <speed>0.0</speed>
  <fix>3d</fix>
</trkpt>
<trkpt lat="40.0713749" lon="-105.229789">
  <ele>1583.0</ele>
  <time>2026-08-28T17:51:15Z</time>
  <course>0.0</course>
  <speed>0.0</speed>
  <fix>3d</fix>
</trkpt>
<trkpt lat="40.0713749" lon="-105.229789">
  <ele>1583.0</ele>
  <time>2026-08-28T17:51:15Z</time>
  <course>248.41</course>
  <speed>0.0</speed>
  <fix>3d</fix>
</trkpt>
<trkpt lat="40.0713749" lon="-105.229789">
  <ele>1583.0</ele>
  <time>2026-08-28T17:51:15Z</time>
  <course>0.0</course>
  <speed>0.0</speed>
  <fix>3d</fix>
</trkpt>
<trkpt lat="40.0713749" lon="-105.229789">
  <ele>1583.0</ele>
  <time>2026-08-28T17:51:15Z</time>
  <course>248.41</course>
  <speed>0.0</speed>
  <fix>3d</fix>
</trkpt>
<trkpt lat="40.0713749" lon="-105.229789">
  <ele>1583.0</ele>
  <time>2026-08-28T17:51:15Z</time>
  <course>0.0</course>
  <speed>0.0</speed>
  <fix>3d</fix>
</trkpt>
<trkpt lat="40.0713749" lon="-105.229789">
  <ele>1583.0</ele>
  <time>2026-08-28T17:51:15Z</time>
  <course>248.41</course>
  <speed>0.0</speed>
  <fix>3d</fix>
</trkpt>
<trkpt lat="40.0713749" lon="-105.229789">
  <ele>1583.0</ele>
  <time>2026-08-28T17:51:15Z</time>
  <course>0.0</course>
  <speed>0.0</speed>
  <fix>3d</fix>
</trkpt>
<trkpt lat="40.0713749" lon="-105.229789">
  <ele>1583.0</ele>
  <time>2026-08-28T17:51:15Z</time>
  <course>248.41</course>
  <speed>0.0</speed>
  <fix>3d</fix>
</trkpt>
<trkpt lat="40.0713749" lon="-105.229789">
  <ele>1583.0</ele>
  <time>2026-08-28T17:51:15Z</time>
  <course>0.0</course>
  <speed>0.0</speed>
  <fix>3d</fix>
</trkpt>
<trkpt lat="40.0713749" lon="-105.229789">
  <ele>1583.0</ele>
  <time>2026-08-28T17:51:15Z</time>
  <course>248.41</course>
  <speed>0.0</speed>
  <fix>3d</fix>
</trkpt>
<trkpt lat="40.0713749" lon="-105.229789">
  <ele>1583.0</ele>
  <time>2026-08-28T17:51:15Z</time>
  <course>0.0</course>
  <speed>0.0</speed>
  <fix>3d</fix>
</trkpt>
<trkpt lat="40.0713749" lon="-105.229789">
  <ele>1583.0</ele>
  <time>2026-08-28T17:51:15Z</time>
  <course>248.41</course>
  <speed>0.0</speed>
  <fix>3d</fix>
</trkpt>
<trkpt lat="40.0713749" lon="-105.229789">
  <ele>1583.0</ele>
  <time>2026-08-28T17:51:15Z</time>
  <course>0.0</course>
  <speed>0.0</speed>
  <fix>3d</fix>
</trkpt>
<trkpt lat="40.0713749" lon="-105.229789">
  <ele>1583.0</ele>
  <time>2026-08-28T17:51:15Z</time>
  <course>248.41</course>
  <speed>0.0</speed>
  <fix>3d</fix>
</trkpt>
<trkpt lat="40.0713749" lon="-105.229789">
  <ele>1583.0</ele>
  <time>2026-08-28T17:51:15Z</time>
  <course>0.0</course>
  <speed>0.0</speed>
  <fix>3d</fix>
</trkpt>
<trkpt lat="40.0713749" lon="-105.229789">
  <ele>1583.0</ele>
  <time>2026-08-28T17:51:15Z</time>
  <course>248.41</course>
  <speed>0.0</speed>
  <fix>3d</fix>
</trkpt>
<trkpt lat="40.0713749" lon="-105.229789">
  <ele>1583.0</ele>
  <time>2026-08-28T17:51:15Z</time>
  <course>0.0</course>
  <speed>0.0</speed>
  <fix>3d</fix>
</trkpt>
<trkpt lat="40.0713749" lon="-105.229789">
  <ele>1583.0</ele>
  <time>2026-08-28T17:51:15Z</time>
  <course>248.41</course>
  <speed>0.0</speed>
  <fix>3d</fix>
</trkpt>
<trkpt lat="40.0713749" lon="-105.229789">
  <ele>1583.0</ele>
  <time>2026-08-28T17:51:15Z</time>
  <course>0.0</course>
  <speed>0.0</speed>
  <fix>3d</fix>
</trkpt>
<trkpt lat="40.0713749" lon="-105.229789">
  <ele>1583.0</ele>
  <time>2026-08-28T17:51:15Z</time>
  <course>248.4</course>
  <speed>0.0</speed>
  <fix>3d</fix>
</trkpt>
<trkpt lat="40.0713749" lon="-105.229789">
  <ele>1583.0</ele>
  <time>2026-08-28T17:51:15Z</time>
  <course>0.0</course>
  <speed>0.0</speed>
  <fix>3d</fix>
</trkpt>
<trkpt lat="40.0713749" lon="-105.229789">
  <ele>1583.0</ele>
  <time>2026-08-28T17:51:15Z</time>
  <course>248.4</course>
  <speed>0.01</speed>
  <fix>3d</fix>
</trkpt>
<trkpt lat="40.0713749" lon="-105.229789">
  <ele>1583.0</ele>
  <time>2026-08-28T17:51:15Z</time>
  <course>0.0</course>
  <speed>0.0</speed>
  <fix>3d</fix>
</trkpt>
<trkpt lat="40.0713749" lon="-105.229789">
  <ele>1583.0</ele>
  <time>2026-08-28T17:51:15Z</time>
  <course>248.4</course>
  <speed>0.01</speed>
  <fix>3d</fix>
</trkpt>
<trkpt lat="40.0713749" lon="-105.229789">
  <ele>1583.0</ele>
  <time>2026-08-28T17:51:15Z</time>
  <course>0.0</course>
  <speed>0.0</speed>
  <fix>3d</fix>
</trkpt>
<trkpt lat="40.0713749" lon="-105.229789">
  <ele>1583.0</ele>
  <time>2026-08-28T17:51:15Z</time>
  <course>248.4</course>
  <speed>0.01</speed>
  <fix>3d</fix>
</trkpt>
<trkpt lat="40.0713749" lon="-105.229789">
  <ele>1583.0</ele>
  <time>2026-08-28T17:51:15Z</time>
  <course>0.0</course>
  <speed>0.0</speed>
  <fix>3d</fix>
</trkpt>
<trkpt lat="40.0713749" lon="-105.229789">
  <ele>1583.0</ele>
  <time>2026-08-28T17:51:15Z</time>
  <course>248.4</course>
  <speed>0.01</speed>
  <fix>3d</fix>
</trkpt>
<trkpt lat="40.0713749" lon="-105.229789">
  <ele>1583.0</ele>
  <time>2026-08-28T17:51:15Z</time>
  <course>0.0</course>
  <speed>0.0</speed>
  <fix>3d</fix>
</trkpt>
<trkpt lat="40.0713749" lon="-105.229789">
  <ele>1583.0</ele>
  <time>2026-08-28T17:51:15Z</time>
  <course>248.39</course>
  <speed>0.01</speed>
  <fix>3d</fix>
</trkpt>
<trkpt lat="40.0713749" lon="-105.229789">
  <ele>1583.0</ele>
  <time>2026-08-28T17:51:15Z</time>
  <course>0.0</course>
  <speed>0.0</speed>
  <fix>3d</fix>
</trkpt>
<trkpt lat="40.0713749" lon="-105.229789">
  <ele>1583.0</ele>
  <time>2026-08-28T17:51:15Z</time>
  <course>248.39</course>
  <speed>0.01</speed>
  <fix>3d</fix>
</trkpt>
<trkpt lat="40.0713749" lon="-105.229789">
  <ele>1583.0</ele>
  <time>2026-08-28T17:51:15Z</time>
  <course>0.0</course>
  <speed>0.0</speed>
  <fix>3d</fix>
</trkpt>
<trkpt lat="40.0713749" lon="-105.229789">
  <ele>1583.0</ele>
  <time>2026-08-28T17:51:15Z</time>
  <course>248.39</course>
  <speed>0.01</speed>
  <fix>3d</fix>
</trkpt>
<trkpt lat="40.0713749" lon="-105.229789">
  <ele>1583.0</ele>
  <time>2026-08-28T17:51:15Z</time>
  <course>0.0</course>
  <speed>0.0</speed>
  <fix>3d</fix>
</trkpt>
<trkpt lat="40.0713749" lon="-105.229789">
  <ele>1583.0</ele>
  <time>2026-08-28T17:51:15Z</time>
  <course>248.38</course>
  <speed>0.01</speed>
  <fix>3d</fix>
</trkpt>
<trkpt lat="40.0713749" lon="-105.229789">
  <ele>1583.0</ele>
  <time>2026-08-28T17:51:15Z</time>
  <course>0.0</course>
  <speed>0.0</speed>
  <fix>3d</fix>
</trkpt>
<trkpt lat="40.0713749" lon="-105.229789">
  <ele>1583.0</ele>
  <time>2026-08-28T17:51:15Z</time>
  <course>248.38</course>
  <speed>0.01</speed>
  <fix>3d</fix>
</trkpt>
<trkpt lat="40.0713749" lon="-105.229789">
  <ele>1583.0</ele>
  <time>2026-08-28T17:51:15Z</time>
  <course>0.0</course>
  <speed>0.0</speed>
  <fix>3d</fix>
</trkpt>
<trkpt lat="40.0713749" lon="-105.229789">
  <ele>1583.0</ele>
  <time>2026-08-28T17:51:15Z</time>
  <course>248.38</course>
  <speed>0.01</speed>
  <fix>3d</fix>
</trkpt>
<trkpt lat="40.0713749" lon="-105.229789">
  <ele>1583.0</ele>
  <time>2026-08-28T17:51:15Z</time>
  <course>0.0</course>
  <speed>0.0</speed>
  <fix>3d</fix>
</trkpt>
<trkpt lat="40.0713749" lon="-105.229789">
  <ele>1583.0</ele>
  <time>2026-08-28T17:51:15Z</time>
  <course>248.37</course>
  <speed>0.01</speed>
  <fix>3d</fix>
</trkpt>
<trkpt lat="40.0713749" lon="-105.229789">
  <ele>1583.0</ele>
  <time>2026-08-28T17:51:15Z</time>
  <course>0.0</course>
  <speed>0.0</speed>
  <fix>3d</fix>
</trkpt>
<trkpt lat="40.0713749" lon="-105.229789">
  <ele>1583.0</ele>
  <time>2026-08-28T17:51:15Z</time>
  <course>248.37</course>
  <speed>0.01</speed>
  <fix>3d</fix>
</trkpt>
<trkpt lat="40.0713749" lon="-105.229789">
  <ele>1583.0</ele>
  <time>2026-08-28T17:51:15Z</time>
  <course>0.0</course>
  <speed>0.0</speed>
  <fix>3d</fix>
</trkpt>
<trkpt lat="40.0713749" lon="-105.229789">
  <ele>1583.0</ele>
  <time>2026-08-28T17:51:15Z</time>
  <course>248.37</course>
  <speed>0.01</speed>
  <fix>3d</fix>
</trkpt>
<trkpt lat="40.0713749" lon="-105.229789">
  <ele>1583.0</ele>
  <time>2026-08-28T17:51:15Z</time>
  <course>0.0</course>
  <speed>0.0</speed>
  <fix>3d</fix>
</trkpt>
<trkpt lat="40.0713749" lon="-105.229789">
  <ele>1583.0</ele>
  <time>2026-08-28T17:51:15Z</time>
  <course>248.36</course>
  <speed>0.01</speed>
  <fix>3d</fix>
</trkpt>
<trkpt lat="40.0713749" lon="-105.229789">
  <ele>1583.0</ele>
  <time>2026-08-28T17:51:15Z</time>
  <course>0.0</course>
  <speed>0.0</speed>
  <fix>3d</fix>
</trkpt>
<trkpt lat="40.0713749" lon="-105.229789">
  <ele>1583.0</ele>
  <time>2026-08-28T17:51:15Z</time>
  <course>248.36</course>
  <speed>0.01</speed>
  <fix>3d</fix>
</trkpt>
<trkpt lat="40.0713749" lon="-105.229789">
  <ele>1583.0</ele>
  <time>2026-08-28T17:51:15Z</time>
  <course>0.0</course>
  <speed>0.0</speed>
  <fix>3d</fix>
</trkpt>
<trkpt lat="40.0713749" lon="-105.229789">
  <ele>1583.0</ele>
  <time>2026-08-28T17:51:15Z</time>
  <course>248.36</course>
  <speed>0.01</speed>
  <fix>3d</fix>
</trkpt>
<trkpt lat="40.0713749" lon="-105.229789">
  <ele>1583.0</ele>
  <time>2026-08-28T17:51:15Z</time>
  <course>0.0</course>
  <speed>0.0</speed>
  <fix>3d</fix>
</trkpt>
<trkpt lat="40.0713749" lon="-105.229789">
  <ele>1583.0</ele>
  <time>2026-08-28T17:51:15Z</time>
  <course>248.35</course>
  <speed>0.01</speed>
  <fix>3d</fix>
</trkpt>
<trkpt lat="40.0713749" lon="-105.229789">
  <ele>1583.0</ele>
  <time>2026-08-28T17:51:15Z</time>
  <course>0.0</course>
  <speed>0.0</speed>
  <fix>3d</fix>
</trkpt>
<trkpt lat="40.0713749" lon="-105.229789">
  <ele>1583.0</ele>
  <time>2026-08-28T17:51:15Z</time>
  <course>248.35</course>
  <speed>0.01</speed>
  <fix>3d</fix>
</trkpt>
<trkpt lat="40.0713749" lon="-105.229789">
  <ele>1583.0</ele>
  <time>2026-08-28T17:51:15Z</time>
  <course>0.0</course>
  <speed>0.0</speed>
  <fix>3d</fix>
</trkpt>
<trkpt lat="40.0713749" lon="-105.229789">
  <ele>1583.0</ele>
  <time>2026-08-28T17:51:15Z</time>
  <course>248.35</course>
  <speed>0.01</speed>
  <fix>3d</fix>
</trkpt>
<trkpt lat="40.0713749" lon="-105.229789">
  <ele>1583.0</ele>
  <time>2026-08-28T17:51:15Z</time>
  <course>0.0</course>
  <speed>0.0</speed>
  <fix>3d</fix>
</trkpt>
<trkpt lat="40.0713749" lon="-105.229789">
  <ele>1583.0</ele>
  <time>2026-08-28T17:51:15Z</time>
  <course>248.34</course>
  <speed>0.01</speed>
  <fix>3d</fix>
</trkpt>
<trkpt lat="40.0713749" lon="-105.229789">
  <ele>1583.0</ele>
  <time>2026-08-28T17:51:15Z</time>
  <course>0.0</course>
  <speed>0.0</speed>
  <fix>3d</fix>
</trkpt>
<trkpt lat="40.0713749" lon="-105.229789">
  <ele>1583.0</ele>
  <time>2026-08-28T17:51:15Z</time>
  <course>248.34</course>
  <speed>0.01</speed>
  <fix>3d</fix>
</trkpt>
<trkpt lat="40.0713749" lon="-105.229789">
  <ele>1583.0</ele>
  <time>2026-08-28T17:51:15Z</time>
  <course>0.0</course>
  <speed>0.0</speed>
  <fix>3d</fix>
</trkpt>
<trkpt lat="40.0713749" lon="-105.229789">
  <ele>1583.0</ele>
  <time>2026-08-28T17:51:15Z</time>
  <course>248.33</course>
  <speed>0.01</speed>
  <fix>3d</fix>
</trkpt>
<trkpt lat="40.0713749" lon="-105.229789">
  <ele>1583.0</ele>
  <time>2026-08-28T17:51:15Z</time>
  <course>0.0</course>
  <speed>0.0</speed>
  <fix>3d</fix>
</trkpt>
<trkpt lat="40.0713749" lon="-105.229789">
  <ele>1583.0</ele>
  <time>2026-08-28T17:51:15Z</time>
  <course>248.33</course>
  <speed>0.01</speed>
  <fix>3d</fix>
</trkpt>
<trkpt lat="40.0713749" lon="-105.229789">
  <ele>1583.0</ele>
  <time>2026-08-28T17:51:15Z</time>
  <course>0.0</course>
  <speed>0.0</speed>
  <fix>3d</fix>
</trkpt>
<trkpt lat="40.0713749" lon="-105.229789">
  <ele>1583.0</ele>
  <time>2026-08-28T17:51:15Z</time>
  <course>248.32</course>
  <speed>0.01</speed>
  <fix>3d</fix>
</trkpt>
<trkpt lat="40.0713749" lon="-105.229789">
  <ele>1583.0</ele>
  <time>2026-08-28T17:51:15Z</time>
  <course>0.0</course>
  <speed>0.0</speed>
  <fix>3d</fix>
</trkpt>
<trkpt lat="40.0713749" lon="-105.229789">
  <ele>1583.0</ele>
  <time>2026-08-28T17:51:15Z</time>
  <course>248.32</course>
  <speed>0.01</speed>
  <fix>3d</fix>
</trkpt>
<trkpt lat="40.0713749" lon="-105.229789">
  <ele>1583.0</ele>
  <time>2026-08-28T17:51:15Z</time>
  <course>0.0</course>
  <speed>0.0</speed>
  <fix>3d</fix>
</trkpt>
<trkpt lat="40.0713749" lon="-105.229789">
  <ele>1583.0</ele>
  <time>2026-08-28T17:51:15Z</time>
  <course>248.32</course>
  <speed>0.01</speed>
  <fix>3d</fix>
</trkpt>
<trkpt lat="40.0713749" lon="-105.229789">
  <ele>1583.0</ele>
  <time>2026-08-28T17:51:15Z</time>
  <course>0.0</course>
  <speed>0.0</speed>
  <fix>3d</fix>
</trkpt>
<trkpt lat="40.0713749" lon="-105.229789">
  <ele>1583.0</ele>
  <time>2026-08-28T17:51:15Z</time>
  <course>248.31</course>
  <speed>0.01</speed>
  <fix>3d</fix>
</trkpt>
<trkpt lat="40.0713749" lon="-105.229789">
  <ele>1583.0</ele>
  <time>2026-08-28T17:51:15Z</time>
  <course>0.0</course>
  <speed>0.0</speed>
  <fix>3d</fix>
</trkpt>
<trkpt lat="40.0713749" lon="-105.229789">
  <ele>1583.0</ele>
  <time>2026-08-28T17:51:15Z</time>
  <course>248.31</course>
  <speed>0.01</speed>
  <fix>3d</fix>
</trkpt>
<trkpt lat="40.0713749" lon="-105.229789">
  <ele>1583.0</ele>
  <time>2026-08-28T17:51:15Z</time>
  <course>0.0</course>
  <speed>0.0</speed>
  <fix>3d</fix>
</trkpt>
<trkpt lat="40.0713749" lon="-105.229789">
  <ele>1583.0</ele>
  <time>2026-08-28T17:51:15Z</time>
  <course>248.3</course>
  <speed>0.01</speed>
  <fix>3d</fix>
</trkpt>
<trkpt lat="40.0713749" lon="-105.229789">
  <ele>1583.0</ele>
  <time>2026-08-28T17:51:15Z</time>
  <course>0.0</course>
  <speed>0.0</speed>
  <fix>3d</fix>
</trkpt>
<trkpt lat="40.0713749" lon="-105.229789">
  <ele>1583.0</ele>
  <time>2026-08-28T17:51:15Z</time>
  <course>248.3</course>
  <speed>0.01</speed>
  <fix>3d</fix>
</trkpt>
<trkpt lat="40.0713749" lon="-105.229789">
  <ele>1583.0</ele>
  <time>2026-08-28T17:51:15Z</time>
  <course>0.0</course>
  <speed>0.0</speed>
  <fix>3d</fix>
</trkpt>
<trkpt lat="40.0713749" lon="-105.229789">
  <ele>1583.0</ele>
  <time>2026-08-28T17:51:15Z</time>
  <course>248.29</course>
  <speed>0.01</speed>
  <fix>3d</fix>
</trkpt>
<trkpt lat="40.0713749" lon="-105.229789">
  <ele>1583.0</ele>
  <time>2026-08-28T17:51:15Z</time>
  <course>0.0</course>
  <speed>0.0</speed>
  <fix>3d</fix>
</trkpt>
<trkpt lat="40.0713749" lon="-105.229789">
  <ele>1583.0</ele>
  <time>2026-08-28T17:51:15Z</time>
  <course>248.29</course>
  <speed>0.01</speed>
  <fix>3d</fix>
</trkpt>
<trkpt lat="40.0713749" lon="-105.229789">
  <ele>1583.0</ele>
  <time>2026-08-28T17:51:15Z</time>
  <course>0.0</course>
  <speed>0.0</speed>
  <fix>3d</fix>
</trkpt>
<trkpt lat="40.0713749" lon="-105.229789">
  <ele>1583.0</ele>
  <time>2026-08-28T17:51:15Z</time>
  <course>248.28</course>
  <speed>0.01</speed>
  <fix>3d</fix>
</trkpt>
<trkpt lat="40.0713749" lon="-105.229789">
  <ele>1583.0</ele>
  <time>2026-08-28T17:51:15Z</time>
  <course>0.0</course>
  <speed>0.0</speed>
  <fix>3d</fix>
</trkpt>
<trkpt lat="40.0713749" lon="-105.229789">
  <ele>1583.0</ele>
  <time>2026-08-28T17:51:15Z</time>
  <course>248.28</course>
  <speed>0.01</speed>
  <fix>3d</fix>
</trkpt>
<trkpt lat="40.0713749" lon="-105.229789">
  <ele>1583.0</ele>
  <time>2026-08-28T17:51:15Z</time>
  <course>0.0</course>
  <speed>0.0</speed>
  <fix>3d</fix>
</trkpt>
<trkpt lat="40.0713749" lon="-105.229789">
  <ele>1583.0</ele>
  <time>2026-08-28T17:51:15Z</time>
  <course>248.27</course>
  <speed>0.01</speed>
  <fix>3d</fix>
</trkpt>
<trkpt lat="40.0713749" lon="-105.229789">
  <ele>1583.0</ele>
  <time>2026-08-28T17:51:15Z</time>
  <course>0.0</course>
  <speed>0.0</speed>
  <fix>3d</fix>
</trkpt>
<trkpt lat="40.0713749" lon="-105.229789">
  <ele>1583.0</ele>
  <time>2026-08-28T17:51:15Z</time>
  <course>248.27</course>
  <speed>0.01</speed>
  <fix>3d</fix>
</trkpt>
<trkpt lat="40.0713749" lon="-105.229789">
  <ele>1583.0</ele>
  <time>2026-08-28T17:51:15Z</time>
  <course>0.0</course>
  <speed>0.0</speed>
  <fix>3d</fix>
</trkpt>
<trkpt lat="40.0713749" lon="-105.229789">
  <ele>1583.0</ele>
  <time>2026-08-28T17:51:15Z</time>
  <course>248.26</course>
  <speed>0.01</speed>
  <fix>3d</fix>
</trkpt>
<trkpt lat="40.0713749" lon="-105.229789">
  <ele>1583.0</ele>
  <time>2026-08-28T17:51:15Z</time>
  <course>0.0</course>
  <speed>0.0</speed>
  <fix>3d</fix>
</trkpt>
<trkpt lat="40.0713749" lon="-105.229789">
  <ele>1583.0</ele>
  <time>2026-08-28T17:51:15Z</time>
  <course>248.26</course>
  <speed>0.01</speed>
  <fix>3d</fix>
</trkpt>
<trkpt lat="40.0713749" lon="-105.229789">
  <ele>1583.0</ele>
  <time>2026-08-28T17:51:15Z</time>
  <course>0.0</course>
  <speed>0.0</speed>
  <fix>3d</fix>
</trkpt>
<trkpt lat="40.0713749" lon="-105.229789">
  <ele>1583.0</ele>
  <time>2026-08-28T17:51:15Z</time>
  <course>248.26</course>
  <speed>0.01</speed>
  <fix>3d</fix>
</trkpt>
<trkpt lat="40.0713749" lon="-105.229789">
  <ele>1583.0</ele>
  <time>2026-08-28T17:51:15Z</time>
  <course>0.0</course>
  <speed>0.0</speed>
  <fix>3d</fix>
</trkpt>
<trkpt lat="40.0713749" lon="-105.229789">
  <ele>1583.0</ele>
  <time>2026-08-28T17:51:15Z</time>
  <course>248.25</course>
  <speed>0.01</speed>
  <fix>3d</fix>
</trkpt>
<trkpt lat="40.0713749" lon="-105.229789">
  <ele>1583.0</ele>
  <time>2026-08-28T17:51:15Z</time>
  <course>0.0</course>
  <speed>0.0</speed>
  <fix>3d</fix>
</trkpt>
<trkpt lat="40.0713749" lon="-105.229789">
  <ele>1583.0</ele>
  <time>2026-08-28T17:51:15Z</time>
  <course>248.25</course>
  <speed>0.01</speed>
  <fix>3d</fix>
</trkpt>
<trkpt lat="40.0713749" lon="-105.229789">
  <ele>1583.0</ele>
  <time>2026-08-28T17:51:15Z</time>
  <course>0.0</course>
  <speed>0.0</speed>
  <fix>3d</fix>
</trkpt>
<trkpt lat="40.0713749" lon="-105.229789">
  <ele>1583.0</ele>
  <time>2026-08-28T17:51:15Z</time>
  <course>248.24</course>
  <speed>0.01</speed>
  <fix>3d</fix>
</trkpt>
<trkpt lat="40.0713749" lon="-105.229789">
  <ele>1583.0</ele>
  <time>2026-08-28T17:51:15Z</time>
  <course>0.0</course>
  <speed>0.0</speed>
  <fix>3d</fix>
</trkpt>
<trkpt lat="40.0713749" lon="-105.229789">
  <ele>1583.0</ele>
  <time>2026-08-28T17:51:15Z</time>
  <course>248.24</course>
  <speed>0.01</speed>
  <fix>3d</fix>
</trkpt>
<trkpt lat="40.0713749" lon="-105.229789">
  <ele>1583.0</ele>
  <time>2026-08-28T17:51:15Z</time>
  <course>0.0</course>
  <speed>0.0</speed>
  <fix>3d</fix>
</trkpt>
<trkpt lat="40.0713749" lon="-105.229789">
  <ele>1583.0</ele>
  <time>2026-08-28T17:51:15Z</time>
  <course>248.23</course>
  <speed>0.01</speed>
  <fix>3d</fix>
</trkpt>
<trkpt lat="40.0713749" lon="-105.229789">
  <ele>1583.0</ele>
  <time>2026-08-28T17:51:15Z</time>
  <course>0.0</course>
  <speed>0.0</speed>
  <fix>3d</fix>
</trkpt>
<trkpt lat="40.0713749" lon="-105.229789">
  <ele>1583.0</ele>
  <time>2026-08-28T17:51:15Z</time>
  <course>248.23</course>
  <speed>0.01</speed>
  <fix>3d</fix>
</trkpt>
<trkpt lat="40.0713749" lon="-105.229789">
  <ele>1583.0</ele>
  <time>2026-08-28T17:51:15Z</time>
  <course>0.0</course>
  <speed>0.0</speed>
  <fix>3d</fix>
</trkpt>
<trkpt lat="40.0713749" lon="-105.229789">
  <ele>1583.0</ele>
  <time>2026-08-28T17:51:15Z</time>
  <course>248.22</course>
  <speed>0.01</speed>
  <fix>3d</fix>
</trkpt>
<trkpt lat="40.0713749" lon="-105.229789">
  <ele>1583.0</ele>
  <time>2026-08-28T17:51:15Z</time>
  <course>0.0</course>
  <speed>0.0</speed>
  <fix>3d</fix>
</trkpt>
<trkpt lat="40.0713749" lon="-105.229789">
  <ele>1583.0</ele>
  <time>2026-08-28T17:51:15Z</time>
  <course>248.22</course>
  <speed>0.01</speed>
  <fix>3d</fix>
</trkpt>
<trkpt lat="40.0713749" lon="-105.229789">
  <ele>1583.0</ele>
  <time>2026-08-28T17:51:15Z</time>
  <course>0.0</course>
  <speed>0.0</speed>
  <fix>3d</fix>
</trkpt>
<trkpt lat="40.0713749" lon="-105.229789">
  <ele>1583.0</ele>
  <time>2026-08-28T17:51:15Z</time>
  <course>248.21</course>
  <speed>0.01</speed>
  <fix>3d</fix>
</trkpt>
<trkpt lat="40.0713749" lon="-105.229789">
  <ele>1583.0</ele>
  <time>2026-08-28T17:51:15Z</time>
  <course>0.0</course>
  <speed>0.0</speed>
  <fix>3d</fix>
</trkpt>
<trkpt lat="40.0713749" lon="-105.229789">
  <ele>1583.0</ele>
  <time>2026-08-28T17:51:15Z</time>
  <course>248.21</course>
  <speed>0.01</speed>
  <fix>3d</fix>
</trkpt>
<trkpt lat="40.0713749" lon="-105.229789">
  <ele>1583.0</ele>
  <time>2026-08-28T17:51:15Z</time>
  <course>0.0</course>
  <speed>0.0</speed>
  <fix>3d</fix>
</trkpt>
<trkpt lat="40.0713749" lon="-105.229789">
  <ele>1583.0</ele>
  <time>2026-08-28T17:51:15Z</time>
  <course>248.2</course>
  <speed>0.01</speed>
  <fix>3d</fix>
</trkpt>
<trkpt lat="40.0713749" lon="-105.229789">
  <ele>1583.0</ele>
  <time>2026-08-28T17:51:15Z</time>
  <course>0.0</course>
  <speed>0.0</speed>
  <fix>3d</fix>
</trkpt>
<trkpt lat="40.0713749" lon="-105.229789">
  <ele>1583.0</ele>
  <time>2026-08-28T17:51:15Z</time>
  <course>248.2</course>
  <speed>0.01</speed>
  <fix>3d</fix>
</trkpt>
<trkpt lat="40.0713749" lon="-105.229789">
  <ele>1583.0</ele>
  <time>2026-08-28T17:51:15Z</time>
  <course>0.0</course>
  <speed>0.0</speed>
  <fix>3d</fix>
</trkpt>
<trkpt lat="40.0713749" lon="-105.229789">
  <ele>1583.0</ele>
  <time>2026-08-28T17:51:15Z</time>
  <course>248.19</course>
  <speed>0.01</speed>
  <fix>3d</fix>
</trkpt>
<trkpt lat="40.0713749" lon="-105.229789">
  <ele>1583.0</ele>
  <time>2026-08-28T17:51:15Z</time>
  <course>0.0</course>
  <speed>0.0</speed>
  <fix>3d</fix>
</trkpt>
<trkpt lat="40.0713749" lon="-105.229789">
  <ele>1583.0</ele>
  <time>2026-08-28T17:51:15Z</time>
  <course>248.19</course>
  <speed>0.01</speed>
  <fix>3d</fix>
</trkpt>
<trkpt lat="40.0713749" lon="-105.229789">
  <ele>1583.0</ele>
  <time>2026-08-28T17:51:15Z</time>
  <course>0.0</course>
  <speed>0.0</speed>
  <fix>3d</fix>
</trkpt>
<trkpt lat="40.0713749" lon="-105.229789">
  <ele>1583.0</ele>
  <time>2026-08-28T17:51:15Z</time>
  <course>248.18</course>
  <speed>0.01</speed>
  <fix>3d</fix>
</trkpt>
<trkpt lat="40.0713749" lon="-105.229789">
  <ele>1583.0</ele>
  <time>2026-08-28T17:51:15Z</time>
  <course>0.0</course>
  <speed>0.0</speed>
  <fix>3d</fix>
</trkpt>
<trkpt lat="40.0713749" lon="-105.229789">
  <ele>1583.0</ele>
  <time>2026-08-28T17:51:15Z</time>
  <course>248.18</course>
  <speed>0.01</speed>
  <fix>3d</fix>
</trkpt>
<trkpt lat="40.0713749" lon="-105.229789">
  <ele>1583.0</ele>
  <time>2026-08-28T17:51:15Z</time>
  <course>0.0</course>
  <speed>0.0</speed>
  <fix>3d</fix>
</trkpt>
<trkpt lat="40.0713749" lon="-105.229789">
  <ele>1583.0</ele>
  <time>2026-08-28T17:51:15Z</time>
  <course>248.17</course>
  <speed>0.022360679774997897</speed>
  <fix>3d</fix>
</trkpt>
<trkpt lat="40.0713749" lon="-105.229789">
  <ele>1583.0</ele>
  <time>2026-08-28T17:51:15Z</time>
  <course>0.0</course>
  <speed>0.0</speed>
  <fix>3d</fix>
</trkpt>
<trkpt lat="40.0713749" lon="-105.229789">
  <ele>1583.0</ele>
  <time>2026-08-28T17:51:15Z</time>
  <course>248.17</course>
  <speed>0.022360679774997897</speed>
  <fix>3d</fix>
</trkpt>
<trkpt lat="40.0713749" lon="-105.229789">
  <ele>1583.0</ele>
  <time>2026-08-28T17:51:15Z</time>
  <course>0.0</course>
  <speed>0.0</speed>
  <fix>3d</fix>
</trkpt>
<trkpt lat="40.0713749" lon="-105.229789">
  <ele>1583.0</ele>
  <time>2026-08-28T17:51:15Z</time>
  <course>248.16</course>
  <speed>0.022360679774997897</speed>
  <fix>3d</fix>
</trkpt>
<trkpt lat="40.0713749" lon="-105.229789">
  <ele>1583.0</ele>
  <time>2026-08-28T17:51:15Z</time>
  <course>0.0</course>
  <speed>0.0</speed>
  <fix>3d</fix>
</trkpt>
<trkpt lat="40.0713749" lon="-105.229789">
  <ele>1583.0</ele>
  <time>2026-08-28T17:51:15Z</time>
  <course>248.16</course>
  <speed>0.022360679774997897</speed>
  <fix>3d</fix>
</trkpt>
<trkpt lat="40.0713749" lon="-105.229789">
  <ele>1583.0</ele>
  <time>2026-08-28T17:51:15Z</time>
  <course>0.0</course>
  <speed>0.0</speed>
  <fix>3d</fix>
</trkpt>
<trkpt lat="40.0713749" lon="-105.229789">
  <ele>1583.0</ele>
  <time>2026-08-28T17:51:15Z</time>
  <course>248.15</course>
  <speed>0.022360679774997897</speed>
  <fix>3d</fix>
</trkpt>
<trkpt lat="40.0713749" lon="-105.229789">
  <ele>1583.0</ele>
  <time>2026-08-28T17:51:15Z</time>
  <course>0.0</course>
  <speed>0.0</speed>
  <fix>3d</fix>
</trkpt>
<trkpt lat="40.0713749" lon="-105.229789">
  <ele>1583.0</ele>
  <time>2026-08-28T17:51:15Z</time>
  <course>248.15</course>
  <speed>0.022360679774997897</speed>
  <fix>3d</fix>
</trkpt>
<trkpt lat="40.0713749" lon="-105.229789">
  <ele>1583.0</ele>
  <time>2026-08-28T17:51:15Z</time>
  <course>0.0</course>
  <speed>0.0</speed>
  <fix>3d</fix>
</trkpt>
<trkpt lat="40.0713749" lon="-105.229789">
  <ele>1583.0</ele>
  <time>2026-08-28T17:51:15Z</time>
  <course>248.14</course>
  <speed>0.022360679774997897</speed>
  <fix>3d</fix>
</trkpt>
<trkpt lat="40.0713749" lon="-105.229789">
  <ele>1583.0</ele>
  <time>2026-08-28T17:51:15Z</time>
  <course>0.0</course>
  <speed>0.0</speed>
  <fix>3d</fix>
</trkpt>
<trkpt lat="40.0713749" lon="-105.229789">
  <ele>1583.0</ele>
  <time>2026-08-28T17:51:15Z</time>
  <course>248.14</course>
  <speed>0.022360679774997897</speed>
  <fix>3d</fix>
</trkpt>
<trkpt lat="40.0713749" lon="-105.229789">
  <ele>1583.0</ele>
  <time>2026-08-28T17:51:15Z</time>
  <course>0.0</course>
  <speed>0.0</speed>
  <fix>3d</fix>
</trkpt>
<trkpt lat="40.0713749" lon="-105.229789">
  <ele>1583.0</ele>
  <time>2026-08-28T17:51:15Z</time>
  <course>248.13</course>
  <speed>0.022360679774997897</speed>
  <fix>3d</fix>
</trkpt>
<trkpt lat="40.0713749" lon="-105.229789">
  <ele>1583.0</ele>
  <time>2026-08-28T17:51:15Z</time>
  <course>0.0</course>
  <speed>0.0</speed>
  <fix>3d</fix>
</trkpt>
<trkpt lat="40.0713749" lon="-105.229789">
  <ele>1583.0</ele>
  <time>2026-08-28T17:51:15Z</time>
  <course>248.13</course>
  <speed>0.022360679774997897</speed>
  <fix>3d</fix>
</trkpt>
<trkpt lat="40.0713749" lon="-105.229789">
  <ele>1583.0</ele>
  <time>2026-08-28T17:51:15Z</time>
  <course>0.0</course>
  <speed>0.0</speed>
  <fix>3d</fix>
</trkpt>
<trkpt lat="40.0713749" lon="-105.229789">
  <ele>1583.0</ele>
  <time>2026-08-28T17:51:15Z</time>
  <course>248.12</course>
  <speed>0.022360679774997897</speed>
  <fix>3d</fix>
</trkpt>
<trkpt lat="40.0713749" lon="-105.229789">
  <ele>1583.0</ele>
  <time>2026-08-28T17:51:15Z</time>
  <course>0.0</course>
  <speed>0.0</speed>
  <fix>3d</fix>
</trkpt>
<trkpt lat="40.0713749" lon="-105.229789">
  <ele>1583.0</ele>
  <time>2026-08-28T17:51:15Z</time>
  <course>248.12</course>
  <speed>0.022360679774997897</speed>
  <fix>3d</fix>
</trkpt>
<trkpt lat="40.0713749" lon="-105.229789">
  <ele>1583.0</ele>
  <time>2026-08-28T17:51:15Z</time>
  <course>0.0</course>
  <speed>0.0</speed>
  <fix>3d</fix>
</trkpt>
<trkpt lat="40.0713749" lon="-105.229789">
  <ele>1583.0</ele>
  <time>2026-08-28T17:51:15Z</time>
  <course>248.11</course>
  <speed>0.022360679774997897</speed>
  <fix>3d</fix>
</trkpt>
<trkpt lat="40.0713749" lon="-105.229789">
  <ele>1583.0</ele>
  <time>2026-08-28T17:51:15Z</time>
  <course>0.0</course>
  <speed>0.0</speed>
  <fix>3d</fix>
</trkpt>
<trkpt lat="40.0713749" lon="-105.229789">
  <ele>1583.0</ele>
  <time>2026-08-28T17:51:15Z</time>
  <course>248.11</course>
  <speed>0.022360679774997897</speed>
  <fix>3d</fix>
</trkpt>
<trkpt lat="40.0713749" lon="-105.229789">
  <ele>1583.0</ele>
  <time>2026-08-28T17:51:15Z</time>
  <course>0.0</course>
  <speed>0.0</speed>
  <fix>3d</fix>
</trkpt>
<trkpt lat="40.0713749" lon="-105.229789">
  <ele>1583.0</ele>
  <time>2026-08-28T17:51:15Z</time>
  <course>248.1</course>
  <speed>0.022360679774997897</speed>
  <fix>3d</fix>
</trkpt>
<trkpt lat="40.0713749" lon="-105.229789">
  <ele>1583.0</ele>
  <time>2026-08-28T17:51:15Z</time>
  <course>0.0</course>
  <speed>0.0</speed>
  <fix>3d</fix>
</trkpt>
<trkpt lat="40.0713749" lon="-105.229789">
  <ele>1583.0</ele>
  <time>2026-08-28T17:51:15Z</time>
  <course>248.1</course>
  <speed>0.022360679774997897</speed>
  <fix>3d</fix>
</trkpt>
<trkpt lat="40.0713749" lon="-105.229789">
  <ele>1583.0</ele>
  <time>2026-08-28T17:51:15Z</time>
  <course>0.0</course>
  <speed>0.0</speed>
  <fix>3d</fix>
</trkpt>
<trkpt lat="40.0713749" lon="-105.229789">
  <ele>1583.0</ele>
  <time>2026-08-28T17:51:15Z</time>
  <course>248.09</course>
  <speed>0.022360679774997897</speed>
  <fix>3d</fix>
</trkpt>
<trkpt lat="40.0713749" lon="-105.229789">
  <ele>1583.0</ele>
  <time>2026-08-28T17:51:15Z</time>
  <course>0.0</course>
  <speed>0.0</speed>
  <fix>3d</fix>
</trkpt>
<trkpt lat="40.0713749" lon="-105.229789">
  <ele>1583.0</ele>
  <time>2026-08-28T17:51:15Z</time>
  <course>248.09</course>
  <speed>0.022360679774997897</speed>
  <fix>3d</fix>
</trkpt>
<trkpt lat="40.0713749" lon="-105.229789">
  <ele>1583.0</ele>
  <time>2026-08-28T17:51:15Z</time>
  <course>0.0</course>
  <speed>0.0</speed>
  <fix>3d</fix>
</trkpt>
<trkpt lat="40.0713749" lon="-105.229789">
  <ele>1583.0</ele>
  <time>2026-08-28T17:51:15Z</time>
  <course>248.08</course>
  <speed>0.022360679774997897</speed>
  <fix>3d</fix>
</trkpt>
<trkpt lat="40.0713749" lon="-105.229789">
  <ele>1583.0</ele>
  <time>2026-08-28T17:51:15Z</time>
  <course>0.0</course>
  <speed>0.0</speed>
  <fix>3d</fix>
</trkpt>
<trkpt lat="40.0713749" lon="-105.229789">
  <ele>1583.0</ele>
  <time>2026-08-28T17:51:15Z</time>
  <course>248.08</course>
  <speed>0.022360679774997897</speed>
  <fix>3d</fix>
</trkpt>
<trkpt lat="40.0713749" lon="-105.229789">
  <ele>1583.0</ele>
  <time>2026-08-28T17:51:15Z</time>
  <course>0.0</course>
  <speed>0.0</speed>
  <fix>3d</fix>
</trkpt>
<trkpt lat="40.0713749" lon="-105.229789">
  <ele>1583.0</ele>
  <time>2026-08-28T17:51:15Z</time>
  <course>248.07</course>
  <speed>0.022360679774997897</speed>
  <fix>3d</fix>
</trkpt>
<trkpt lat="40.0713749" lon="-105.229789">
  <ele>1583.0</ele>
  <time>2026-08-28T17:51:15Z</time>
  <course>0.0</course>
  <speed>0.0</speed>
  <fix>3d</fix>
</trkpt>
<trkpt lat="40.0713749" lon="-105.229789">
  <ele>1583.0</ele>
  <time>2026-08-28T17:51:15Z</time>
  <course>248.07</course>
  <speed>0.022360679774997897</speed>
  <fix>3d</fix>
</trkpt>
<trkpt lat="40.0713749" lon="-105.229789">
  <ele>1583.0</ele>
  <time>2026-08-28T17:51:15Z</time>
  <course>0.0</course>
  <speed>0.0</speed>
  <fix>3d</fix>
</trkpt>
<trkpt lat="40.0713749" lon="-105.229789">
  <ele>1583.0</ele>
  <time>2026-08-28T17:51:15Z</time>
  <course>248.06</course>
  <speed>0.022360679774997897</speed>
  <fix>3d</fix>
</trkpt>
<trkpt lat="40.0713749" lon="-105.229789">
  <ele>1583.0</ele>
  <time>2026-08-28T17:51:15Z</time>
  <course>0.0</course>
  <speed>0.0</speed>
  <fix>3d</fix>
</trkpt>
<trkpt lat="40.0713749" lon="-105.229789">
  <ele>1583.0</ele>
  <time>2026-08-28T17:51:15Z</time>
  <course>248.06</course>
  <speed>0.022360679774997897</speed>
  <fix>3d</fix>
</trkpt>
<trkpt lat="40.0713749" lon="-105.229789">
  <ele>1583.0</ele>
  <time>2026-08-28T17:51:15Z</time>
  <course>0.0</course>
  <speed>0.0</speed>
  <fix>3d</fix>
</trkpt>
<trkpt lat="40.0713749" lon="-105.229789">
  <ele>1583.0</ele>
  <time>2026-08-28T17:51:15Z</time>
  <course>248.05</course>
  <speed>0.022360679774997897</speed>
  <fix>3d</fix>
</trkpt>
<trkpt lat="40.0713749" lon="-105.229789">
  <ele>1583.0</ele>
  <time>2026-08-28T17:51:15Z</time>
  <course>0.0</course>
  <speed>0.0</speed>
  <fix>3d</fix>
</trkpt>
<trkpt lat="40.0713749" lon="-105.229789">
  <ele>1583.0</ele>
  <time>2026-08-28T17:51:15Z</time>
  <course>248.05</course>
  <speed>0.022360679774997897</speed>
  <fix>3d</fix>
</trkpt>
<trkpt lat="40.0713749" lon="-105.229789">
  <ele>1583.0</ele>
  <time>2026-08-28T17:51:15Z</time>
  <course>0.0</course>
  <speed>0.0</speed>
  <fix>3d</fix>
</trkpt>
<trkpt lat="40.0713749" lon="-105.229789">
  <ele>1583.0</ele>
  <time>2026-08-28T17:51:15Z</time>
  <course>248.05</course>
  <speed>0.022360679774997897</speed>
  <fix>3d</fix>
</trkpt>
<trkpt lat="40.0713749" lon="-105.229789">
  <ele>1583.0</ele>
  <time>2026-08-28T17:51:15Z</time>
  <course>0.0</course>
  <speed>0.0</speed>
  <fix>3d</fix>
</trkpt>
<trkpt lat="40.0713749" lon="-105.229789">
  <ele>1583.0</ele>
  <time>2026-08-28T17:51:15Z</time>
  <course>248.04</course>
  <speed>0.022360679774997897</speed>
  <fix>3d</fix>
</trkpt>
<trkpt lat="40.0713749" lon="-105.229789">
  <ele>1583.0</ele>
  <time>2026-08-28T17:51:15Z</time>
  <course>0.0</course>
  <speed>0.0</speed>
  <fix>3d</fix>
</trkpt>
<trkpt lat="40.0713749" lon="-105.229789">
  <ele>1583.0</ele>
  <time>2026-08-28T17:51:15Z</time>
  <course>248.04</course>
  <speed>0.022360679774997897</speed>
  <fix>3d</fix>
</trkpt>
<trkpt lat="40.0713749" lon="-105.229789">
  <ele>1583.0</ele>
  <time>2026-08-28T17:51:15Z</time>
  <course>0.0</course>
  <speed>0.0</speed>
  <fix>3d</fix>
</trkpt>
<trkpt lat="40.0713749" lon="-105.229789">
  <ele>1583.0</ele>
  <time>2026-08-28T17:51:15Z</time>
  <course>248.03</course>
  <speed>0.022360679774997897</speed>
  <fix>3d</fix>
</trkpt>
<trkpt lat="40.0713749" lon="-105.229789">
  <ele>1583.0</ele>
  <time>2026-08-28T17:51:15Z</time>
  <course>0.0</course>
  <speed>0.0</speed>
  <fix>3d</fix>
</trkpt>
<trkpt lat="40.0713749" lon="-105.229789">
  <ele>1583.0</ele>
  <time>2026-08-28T17:51:15Z</time>
  <course>248.03</course>
  <speed>0.022360679774997897</speed>
  <fix>3d</fix>
</trkpt>
<trkpt lat="40.0713749" lon="-105.229789">
  <ele>1583.0</ele>
  <time>2026-08-28T17:51:15Z</time>
  <course>0.0</course>
  <speed>0.0</speed>
  <fix>3d</fix>
</trkpt>
<trkpt lat="40.0713749" lon="-105.229789">
  <ele>1583.0</ele>
  <time>2026-08-28T17:51:15Z</time>
  <course>248.02</course>
  <speed>0.022360679774997897</speed>
  <fix>3d</fix>
</trkpt>
<trkpt lat="40.0713749" lon="-105.229789">
  <ele>1583.0</ele>
  <time>2026-08-28T17:51:15Z</time>
  <course>0.0</course>
  <speed>0.0</speed>
  <fix>3d</fix>
</trkpt>
<trkpt lat="40.0713749" lon="-105.229789">
  <ele>1583.0</ele>
  <time>2026-08-28T17:51:15Z</time>
  <course>248.02</course>
  <speed>0.022360679774997897</speed>
  <fix>3d</fix>
</trkpt>
<trkpt lat="40.0713749" lon="-105.229789">
  <ele>1583.0</ele>
  <time>2026-08-28T17:51:15Z</time>
  <course>0.0</course>
  <speed>0.0</speed>
  <fix>3d</fix>
</trkpt>
<trkpt lat="40.0713749" lon="-105.229789">
  <ele>1583.0</ele>
  <time>2026-08-28T17:51:15Z</time>
  <course>248.01</course>
  <speed>0.022360679774997897</speed>
  <fix>3d</fix>
</trkpt>
<trkpt lat="40.0713749" lon="-105.229789">
  <ele>1583.0</ele>
  <time>2026-08-28T17:51:15Z</time>
  <course>0.0</course>
  <speed>0.0</speed>
  <fix>3d</fix>
</trkpt>
<trkpt lat="40.0713749" lon="-105.229789">
  <ele>1583.0</ele>
  <time>2026-08-28T17:51:15Z</time>
  <course>248.01</course>
  <speed>0.022360679774997897</speed>
  <fix>3d</fix>
</trkpt>
<trkpt lat="40.0713749" lon="-105.229789">
  <ele>1583.0</ele>
  <time>2026-08-28T17:51:15Z</time>
  <course>0.0</course>
  <speed>0.0</speed>
  <fix>3d</fix>
</trkpt>
<trkpt lat="40.0713749" lon="-105.229789">
  <ele>1583.0</ele>
  <time>2026-08-28T17:51:15Z</time>
  <course>248.0</course>
  <speed>0.022360679774997897</speed>
  <fix>3d</fix>
</trkpt>
<trkpt lat="40.0713749" lon="-105.229789">
  <ele>1583.0</ele>
  <time>2026-08-28T17:51:15Z</time>
  <course>0.0</course>
  <speed>0.0</speed>
  <fix>3d</fix>
</trkpt>
<trkpt lat="40.0713749" lon="-105.229789">
  <ele>1583.0</ele>
  <time>2026-08-28T17:51:15Z</time>
  <course>248.0</course>
  <speed>0.022360679774997897</speed>
  <fix>3d</fix>
</trkpt>
<trkpt lat="40.0713749" lon="-105.229789">
  <ele>1583.0</ele>
  <time>2026-08-28T17:51:15Z</time>
  <course>0.0</course>
  <speed>0.0</speed>
  <fix>3d</fix>
</trkpt>
<trkpt lat="40.0713749" lon="-105.229789">
  <ele>1583.0</ele>
  <time>2026-08-28T17:51:15Z</time>
  <course>247.99</course>
  <speed>0.022360679774997897</speed>
  <fix>3d</fix>
</trkpt>
<trkpt lat="40.0713749" lon="-105.229789">
  <ele>1583.0</ele>
  <time>2026-08-28T17:51:15Z</time>
  <course>0.0</course>
  <speed>0.0</speed>
  <fix>3d</fix>
</trkpt>
<trkpt lat="40.0713749" lon="-105.229789">
  <ele>1583.0</ele>
  <time>2026-08-28T17:51:15Z</time>
  <course>247.99</course>
  <speed>0.022360679774997897</speed>
  <fix>3d</fix>
</trkpt>
<trkpt lat="40.0713749" lon="-105.229789">
  <ele>1583.0</ele>
  <time>2026-08-28T17:51:15Z</time>
  <course>0.0</course>
  <speed>0.0</speed>
  <fix>3d</fix>
</trkpt>
<trkpt lat="40.0713749" lon="-105.229789">
  <ele>1583.0</ele>
  <time>2026-08-28T17:51:15Z</time>
  <course>247.99</course>
  <speed>0.022360679774997897</speed>
  <fix>3d</fix>
</trkpt>
<trkpt lat="40.0713749" lon="-105.229789">
  <ele>1583.0</ele>
  <time>2026-08-28T17:51:15Z</time>
  <course>0.0</course>
  <speed>0.0</speed>
  <fix>3d</fix>
</trkpt>
<trkpt lat="40.0713749" lon="-105.229789">
  <ele>1583.0</ele>
  <time>2026-08-28T17:51:15Z</time>
  <course>247.98</course>
  <speed>0.022360679774997897</speed>
  <fix>3d</fix>
</trkpt>
<trkpt lat="40.0713749" lon="-105.229789">
  <ele>1583.0</ele>
  <time>2026-08-28T17:51:15Z</time>
  <course>0.0</course>
  <speed>0.0</speed>
  <fix>3d</fix>
</trkpt>
<trkpt lat="40.0713749" lon="-105.229789">
  <ele>1583.0</ele>
  <time>2026-08-28T17:51:15Z</time>
  <course>247.98</course>
  <speed>0.022360679774997897</speed>
  <fix>3d</fix>
</trkpt>
<trkpt lat="40.0713749" lon="-105.229789">
  <ele>1583.0</ele>
  <time>2026-08-28T17:51:15Z</time>
  <course>0.0</course>
  <speed>0.0</speed>
  <fix>3d</fix>
</trkpt>
<trkpt lat="40.0713749" lon="-105.229789">
  <ele>1583.0</ele>
  <time>2026-08-28T17:51:15Z</time>
  <course>247.97</course>
  <speed>0.022360679774997897</speed>
  <fix>3d</fix>
</trkpt>
<trkpt lat="40.0713749" lon="-105.229789">
  <ele>1583.0</ele>
  <time>2026-08-28T17:51:15Z</time>
  <course>0.0</course>
  <speed>0.0</speed>
  <fix>3d</fix>
</trkpt>
<trkpt lat="40.0713749" lon="-105.229789">
  <ele>1583.0</ele>
  <time>2026-08-28T17:51:15Z</time>
  <course>247.97</course>
  <speed>0.022360679774997897</speed>
  <fix>3d</fix>
</trkpt>
<trkpt lat="40.0713749" lon="-105.229789">
  <ele>1583.0</ele>
  <time>2026-08-28T17:51:15Z</time>
  <course>0.0</course>
  <speed>0.0</speed>
  <fix>3d</fix>
</trkpt>
<trkpt lat="40.0713749" lon="-105.229789">
  <ele>1583.0</ele>
  <time>2026-08-28T17:51:15Z</time>
  <course>247.96</course>
  <speed>0.022360679774997897</speed>
  <fix>3d</fix>
</trkpt>
<trkpt lat="40.0713749" lon="-105.229789">
  <ele>1583.0</ele>
  <time>2026-08-28T17:51:15Z</time>
  <course>0.0</course>
  <speed>0.0</speed>
  <fix>3d</fix>
</trkpt>
<trkpt lat="40.0713749" lon="-105.229789">
  <ele>1583.0</ele>
  <time>2026-08-28T17:51:15Z</time>
  <course>247.96</course>
  <speed>0.022360679774997897</speed>
  <fix>3d</fix>
</trkpt>
<trkpt lat="40.0713749" lon="-105.229789">
  <ele>1583.0</ele>
  <time>2026-08-28T17:51:15Z</time>
  <course>0.0</course>
  <speed>0.0</speed>
  <fix>3d</fix>
</trkpt>
<trkpt lat="40.0713749" lon="-105.229789">
  <ele>1583.0</ele>
  <time>2026-08-28T17:51:15Z</time>
  <course>247.95</course>
  <speed>0.022360679774997897</speed>
  <fix>3d</fix>
</trkpt>
<trkpt lat="40.0713749" lon="-105.229789">
  <ele>1583.0</ele>
  <time>2026-08-28T17:51:15Z</time>
  <course>0.0</course>
  <speed>0.0</speed>
  <fix>3d</fix>
</trkpt>
<trkpt lat="40.0713749" lon="-105.229789">
  <ele>1583.0</ele>
  <time>2026-08-28T17:51:15Z</time>
  <course>247.95</course>
  <speed>0.022360679774997897</speed>
  <fix>3d</fix>
</trkpt>
<trkpt lat="40.0713749" lon="-105.229789">
  <ele>1583.0</ele>
  <time>2026-08-28T17:51:15Z</time>
  <course>0.0</course>
  <speed>0.0</speed>
  <fix>3d</fix>
</trkpt>
<trkpt lat="40.0713749" lon="-105.229789">
  <ele>1583.0</ele>
  <time>2026-08-28T17:51:15Z</time>
  <course>247.95</course>
  <speed>0.022360679774997897</speed>
  <fix>3d</fix>
</trkpt>
<trkpt lat="40.0713749" lon="-105.229789">
  <ele>1583.0</ele>
  <time>2026-08-28T17:51:15Z</time>
  <course>0.0</course>
  <speed>0.0</speed>
  <fix>3d</fix>
</trkpt>
<trkpt lat="40.0713749" lon="-105.229789">
  <ele>1583.0</ele>
  <time>2026-08-28T17:51:15Z</time>
  <course>247.94</course>
  <speed>0.022360679774997897</speed>
  <fix>3d</fix>
</trkpt>
<trkpt lat="40.0713749" lon="-105.229789">
  <ele>1583.0</ele>
  <time>2026-08-28T17:51:15Z</time>
  <course>0.0</course>
  <speed>0.0</speed>
  <fix>3d</fix>
</trkpt>
<trkpt lat="40.0713749" lon="-105.229789">
  <ele>1583.0</ele>
  <time>2026-08-28T17:51:15Z</time>
  <course>247.94</course>
  <speed>0.022360679774997897</speed>
  <fix>3d</fix>
</trkpt>
<trkpt lat="40.0713749" lon="-105.229789">
  <ele>1583.0</ele>
  <time>2026-08-28T17:51:15Z</time>
  <course>0.0</course>
  <speed>0.0</speed>
  <fix>3d</fix>
</trkpt>
<trkpt lat="40.0713749" lon="-105.229789">
  <ele>1583.0</ele>
  <time>2026-08-28T17:51:15Z</time>
  <course>247.93</course>
  <speed>0.022360679774997897</speed>
  <fix>3d</fix>
</trkpt>
<trkpt lat="40.0713749" lon="-105.229789">
  <ele>1583.0</ele>
  <time>2026-08-28T17:51:15Z</time>
  <course>0.0</course>
  <speed>0.0</speed>
  <fix>3d</fix>
</trkpt>
<trkpt lat="40.0713749" lon="-105.229789">
  <ele>1583.0</ele>
  <time>2026-08-28T17:51:15Z</time>
  <course>247.93</course>
  <speed>0.022360679774997897</speed>
  <fix>3d</fix>
</trkpt>
<trkpt lat="40.0713749" lon="-105.229789">
  <ele>1583.0</ele>
  <time>2026-08-28T17:51:15Z</time>
  <course>0.0</course>
  <speed>0.0</speed>
  <fix>3d</fix>
</trkpt>
<trkpt lat="40.0713749" lon="-105.229789">
  <ele>1583.0</ele>
  <time>2026-08-28T17:51:15Z</time>
  <course>247.92</course>
  <speed>0.022360679774997897</speed>
  <fix>3d</fix>
</trkpt>
<trkpt lat="40.0713749" lon="-105.229789">
  <ele>1583.0</ele>
  <time>2026-08-28T17:51:15Z</time>
  <course>0.0</course>
  <speed>0.0</speed>
  <fix>3d</fix>
</trkpt>
<trkpt lat="40.0713749" lon="-105.229789">
  <ele>1583.0</ele>
  <time>2026-08-28T17:51:15Z</time>
  <course>247.92</course>
  <speed>0.022360679774997897</speed>
  <fix>3d</fix>
</trkpt>
<trkpt lat="40.0713749" lon="-105.229789">
  <ele>1583.0</ele>
  <time>2026-08-28T17:51:15Z</time>
  <course>0.0</course>
  <speed>0.0</speed>
  <fix>3d</fix>
</trkpt>
<trkpt lat="40.0713749" lon="-105.229789">
  <ele>1583.0</ele>
  <time>2026-08-28T17:51:15Z</time>
  <course>247.92</course>
  <speed>0.022360679774997897</speed>
  <fix>3d</fix>
</trkpt>
<trkpt lat="40.0713749" lon="-105.229789">
  <ele>1583.0</ele>
  <time>2026-08-28T17:51:15Z</time>
  <course>0.0</course>
  <speed>0.0</speed>
  <fix>3d</fix>
</trkpt>
<trkpt lat="40.0713749" lon="-105.229789">
  <ele>1583.0</ele>
  <time>2026-08-28T17:51:15Z</time>
  <course>247.91</course>
  <speed>0.022360679774997897</speed>
  <fix>3d</fix>
</trkpt>
<trkpt lat="40.0713749" lon="-105.229789">
  <ele>1583.0</ele>
  <time>2026-08-28T17:51:15Z</time>
  <course>0.0</course>
  <speed>0.0</speed>
  <fix>3d</fix>
</trkpt>
<trkpt lat="40.0713749" lon="-105.229789">
  <ele>1583.0</ele>
  <time>2026-08-28T17:51:15Z</time>
  <course>247.91</course>
  <speed>0.022360679774997897</speed>
  <fix>3d</fix>
</trkpt>
<trkpt lat="40.0713749" lon="-105.229789">
  <ele>1583.0</ele>
  <time>2026-08-28T17:51:15Z</time>
  <course>0.0</course>
  <speed>0.0</speed>
  <fix>3d</fix>
</trkpt>
<trkpt lat="40.0713749" lon="-105.229789">
  <ele>1583.0</ele>
  <time>2026-08-28T17:51:15Z</time>
  <course>247.9</course>
  <speed>0.022360679774997897</speed>
  <fix>3d</fix>
</trkpt>
<trkpt lat="40.0713749" lon="-105.229789">
  <ele>1583.0</ele>
  <time>2026-08-28T17:51:15Z</time>
  <course>0.0</course>
  <speed>0.0</speed>
  <fix>3d</fix>
</trkpt>
<trkpt lat="40.0713749" lon="-105.229789">
  <ele>1583.0</ele>
  <time>2026-08-28T17:51:15Z</time>
  <course>247.9</course>
  <speed>0.022360679774997897</speed>
  <fix>3d</fix>
</trkpt>
<trkpt lat="40.0713749" lon="-105.229789">
  <ele>1583.0</ele>
  <time>2026-08-28T17:51:15Z</time>
  <course>0.0</course>
  <speed>0.0</speed>
  <fix>3d</fix>
</trkpt>
<trkpt lat="40.0713749" lon="-105.229789">
  <ele>1583.0</ele>
  <time>2026-08-28T17:51:15Z</time>
  <course>247.89</course>
  <speed>0.022360679774997897</speed>
  <fix>3d</fix>
</trkpt>
<trkpt lat="40.0713749" lon="-105.229789">
  <ele>1583.0</ele>
  <time>2026-08-28T17:51:15Z</time>
  <course>0.0</course>
  <speed>0.0</speed>
  <fix>3d</fix>
</trkpt>
<trkpt lat="40.0713749" lon="-105.229789">
  <ele>1583.0</ele>
  <time>2026-08-28T17:51:15Z</time>
  <course>247.89</course>
  <speed>0.022360679774997897</speed>
  <fix>3d</fix>
</trkpt>
<trkpt lat="40.0713749" lon="-105.229789">
  <ele>1583.0</ele>
  <time>2026-08-28T17:51:15Z</time>
  <course>0.0</course>
  <speed>0.0</speed>
  <fix>3d</fix>
</trkpt>
<trkpt lat="40.0713749" lon="-105.229789">
  <ele>1583.0</ele>
  <time>2026-08-28T17:51:15Z</time>
  <course>247.89</course>
  <speed>0.022360679774997897</speed>
  <fix>3d</fix>
</trkpt>
<trkpt lat="40.0713749" lon="-105.229789">
  <ele>1583.0</ele>
  <time>2026-08-28T17:51:15Z</time>
  <course>0.0</course>
  <speed>0.0</speed>
  <fix>3d</fix>
</trkpt>
<trkpt lat="40.0713749" lon="-105.229789">
  <ele>1583.0</ele>
  <time>2026-08-28T17:51:15Z</time>
  <course>247.88</course>
  <speed>0.0316227766016838</speed>
  <fix>3d</fix>
</trkpt>
<trkpt lat="40.0713749" lon="-105.229789">
  <ele>1583.0</ele>
  <time>2026-08-28T17:51:15Z</time>
  <course>0.0</course>
  <speed>0.0</speed>
  <fix>3d</fix>
</trkpt>
<trkpt lat="40.0713749" lon="-105.229789">
  <ele>1583.0</ele>
  <time>2026-08-28T17:51:15Z</time>
  <course>247.88</course>
  <speed>0.0316227766016838</speed>
  <fix>3d</fix>
</trkpt>
<trkpt lat="40.0713749" lon="-105.229789">
  <ele>1583.0</ele>
  <time>2026-08-28T17:51:15Z</time>
  <course>0.0</course>
  <speed>0.0</speed>
  <fix>3d</fix>
</trkpt>
<trkpt lat="40.0713749" lon="-105.229789">
  <ele>1583.0</ele>
  <time>2026-08-28T17:51:15Z</time>
  <course>247.87</course>
  <speed>0.0316227766016838</speed>
  <fix>3d</fix>
</trkpt>
<trkpt lat="40.0713749" lon="-105.229789">
  <ele>1583.0</ele>
  <time>2026-08-28T17:51:15Z</time>
  <course>0.0</course>
  <speed>0.0</speed>
  <fix>3d</fix>
</trkpt>
<trkpt lat="40.0713749" lon="-105.229789">
  <ele>1583.0</ele>
  <time>2026-08-28T17:51:15Z</time>
  <course>247.87</course>
  <speed>0.0316227766016838</speed>
  <fix>3d</fix>
</trkpt>
<trkpt lat="40.0713749" lon="-105.229789">
  <ele>1583.0</ele>
  <time>2026-08-28T17:51:15Z</time>
  <course>0.0</course>
  <speed>0.0</speed>
  <fix>3d</fix>
</trkpt>
<trkpt lat="40.0713749" lon="-105.229789">
  <ele>1583.0</ele>
  <time>2026-08-28T17:51:15Z</time>
  <course>247.87</course>
  <speed>0.0316227766016838</speed>
  <fix>3d</fix>
</trkpt>
<trkpt lat="40.0713749" lon="-105.229789">
  <ele>1583.0</ele>
  <time>2026-08-28T17:51:15Z</time>
  <course>0.0</course>
  <speed>0.0</speed>
  <fix>3d</fix>
</trkpt>
<trkpt lat="40.0713749" lon="-105.229789">
  <ele>1583.0</ele>
  <time>2026-08-28T17:51:15Z</time>
  <course>247.86</course>
  <speed>0.0316227766016838</speed>
  <fix>3d</fix>
</trkpt>
<trkpt lat="40.0713749" lon="-105.229789">
  <ele>1583.0</ele>
  <time>2026-08-28T17:51:15Z</time>
  <course>0.0</course>
  <speed>0.0</speed>
  <fix>3d</fix>
</trkpt>
<trkpt lat="40.0713749" lon="-105.229789">
  <ele>1583.0</ele>
  <time>2026-08-28T17:51:15Z</time>
  <course>247.86</course>
  <speed>0.0316227766016838</speed>
  <fix>3d</fix>
</trkpt>
<trkpt lat="40.0713749" lon="-105.229789">
  <ele>1583.0</ele>
  <time>2026-08-28T17:51:15Z</time>
  <course>0.0</course>
  <speed>0.0</speed>
  <fix>3d</fix>
</trkpt>
<trkpt lat="40.0713749" lon="-105.229789">
  <ele>1583.0</ele>
  <time>2026-08-28T17:51:15Z</time>
  <course>247.85</course>
  <speed>0.0316227766016838</speed>
  <fix>3d</fix>
</trkpt>
<trkpt lat="40.0713749" lon="-105.229789">
  <ele>1583.0</ele>
  <time>2026-08-28T17:51:15Z</time>
  <course>0.0</course>
  <speed>0.0</speed>
  <fix>3d</fix>
</trkpt>
<trkpt lat="40.0713749" lon="-105.229789">
  <ele>1583.0</ele>
  <time>2026-08-28T17:51:15Z</time>
  <course>247.85</course>
  <speed>0.0316227766016838</speed>
  <fix>3d</fix>
</trkpt>
<trkpt lat="40.0713749" lon="-105.229789">
  <ele>1583.0</ele>
  <time>2026-08-28T17:51:15Z</time>
  <course>0.0</course>
  <speed>0.0</speed>
  <fix>3d</fix>
</trkpt>
<trkpt lat="40.0713749" lon="-105.229789">
  <ele>1583.0</ele>
  <time>2026-08-28T17:51:15Z</time>
  <course>247.85</course>
  <speed>0.0316227766016838</speed>
  <fix>3d</fix>
</trkpt>
<trkpt lat="40.0713749" lon="-105.229789">
  <ele>1583.0</ele>
  <time>2026-08-28T17:51:15Z</time>
  <course>0.0</course>
  <speed>0.0</speed>
  <fix>3d</fix>
</trkpt>
<trkpt lat="40.0713749" lon="-105.229789">
  <ele>1583.0</ele>
  <time>2026-08-28T17:51:15Z</time>
  <course>247.84</course>
  <speed>0.0316227766016838</speed>
  <fix>3d</fix>
</trkpt>
<trkpt lat="40.0713749" lon="-105.229789">
  <ele>1583.0</ele>
  <time>2026-08-28T17:51:15Z</time>
  <course>0.0</course>
  <speed>0.0</speed>
  <fix>3d</fix>
</trkpt>
<trkpt lat="40.0713749" lon="-105.229789">
  <ele>1583.0</ele>
  <time>2026-08-28T17:51:15Z</time>
  <course>247.84</course>
  <speed>0.0316227766016838</speed>
  <fix>3d</fix>
</trkpt>
<trkpt lat="40.0713749" lon="-105.229789">
  <ele>1583.0</ele>
  <time>2026-08-28T17:51:15Z</time>
  <course>0.0</course>
  <speed>0.0</speed>
  <fix>3d</fix>
</trkpt>
<trkpt lat="40.0713749" lon="-105.229789">
  <ele>1583.0</ele>
  <time>2026-08-28T17:51:15Z</time>
  <course>247.83</course>
  <speed>0.0316227766016838</speed>
  <fix>3d</fix>
</trkpt>
<trkpt lat="40.0713749" lon="-105.229789">
  <ele>1583.0</ele>
  <time>2026-08-28T17:51:15Z</time>
  <course>0.0</course>
  <speed>0.0</speed>
  <fix>3d</fix>
</trkpt>
<trkpt lat="40.0713749" lon="-105.229789">
  <ele>1583.0</ele>
  <time>2026-08-28T17:51:15Z</time>
  <course>247.83</course>
  <speed>0.0316227766016838</speed>
  <fix>3d</fix>
</trkpt>
<trkpt lat="40.0713749" lon="-105.229789">
  <ele>1583.0</ele>
  <time>2026-08-28T17:51:15Z</time>
  <course>0.0</course>
  <speed>0.0</speed>
  <fix>3d</fix>
</trkpt>
<trkpt lat="40.0713749" lon="-105.229789">
  <ele>1583.0</ele>
  <time>2026-08-28T17:51:15Z</time>
  <course>247.83</course>
  <speed>0.0316227766016838</speed>
  <fix>3d</fix>
</trkpt>
<trkpt lat="40.0713749" lon="-105.229789">
  <ele>1583.0</ele>
  <time>2026-08-28T17:51:15Z</time>
  <course>0.0</course>
  <speed>0.0</speed>
  <fix>3d</fix>
</trkpt>
<trkpt lat="40.0713749" lon="-105.229789">
  <ele>1583.0</ele>
  <time>2026-08-28T17:51:15Z</time>
  <course>247.82</course>
  <speed>0.0316227766016838</speed>
  <fix>3d</fix>
</trkpt>
<trkpt lat="40.0713749" lon="-105.229789">
  <ele>1583.0</ele>
  <time>2026-08-28T17:51:15Z</time>
  <course>0.0</course>
  <speed>0.0</speed>
  <fix>3d</fix>
</trkpt>
<trkpt lat="40.0713749" lon="-105.229789">
  <ele>1583.0</ele>
  <time>2026-08-28T17:51:15Z</time>
  <course>247.82</course>
  <speed>0.0316227766016838</speed>
  <fix>3d</fix>
</trkpt>
<trkpt lat="40.0713749" lon="-105.229789">
  <ele>1583.0</ele>
  <time>2026-08-28T17:51:15Z</time>
  <course>0.0</course>
  <speed>0.0</speed>
  <fix>3d</fix>
</trkpt>
<trkpt lat="40.0713749" lon="-105.229789">
  <ele>1583.0</ele>
  <time>2026-08-28T17:51:15Z</time>
  <course>247.82</course>
  <speed>0.0316227766016838</speed>
  <fix>3d</fix>
</trkpt>
<trkpt lat="40.0713749" lon="-105.229789">
  <ele>1583.0</ele>
  <time>2026-08-28T17:51:15Z</time>
  <course>0.0</course>
  <speed>0.0</speed>
  <fix>3d</fix>
</trkpt>
<trkpt lat="40.0713749" lon="-105.229789">
  <ele>1583.0</ele>
  <time>2026-08-28T17:51:15Z</time>
  <course>247.81</course>
  <speed>0.0316227766016838</speed>
  <fix>3d</fix>
</trkpt>
<trkpt lat="40.0713749" lon="-105.229789">
  <ele>1583.0</ele>
  <time>2026-08-28T17:51:15Z</time>
  <course>0.0</course>
  <speed>0.0</speed>
  <fix>3d</fix>
</trkpt>
<trkpt lat="40.0713749" lon="-105.229789">
  <ele>1583.0</ele>
  <time>2026-08-28T17:51:15Z</time>
  <course>247.81</course>
  <speed>0.0316227766016838</speed>
  <fix>3d</fix>
</trkpt>
<trkpt lat="40.0713749" lon="-105.229789">
  <ele>1583.0</ele>
  <time>2026-08-28T17:51:15Z</time>
  <course>0.0</course>
  <speed>0.0</speed>
  <fix>3d</fix>
</trkpt>
<trkpt lat="40.0713749" lon="-105.229789">
  <ele>1583.0</ele>
  <time>2026-08-28T17:51:15Z</time>
  <course>247.8</course>
  <speed>0.0316227766016838</speed>
  <fix>3d</fix>
</trkpt>
<trkpt lat="40.0713749" lon="-105.229789">
  <ele>1583.0</ele>
  <time>2026-08-28T17:51:15Z</time>
  <course>0.0</course>
  <speed>0.0</speed>
  <fix>3d</fix>
</trkpt>
<trkpt lat="40.0713749" lon="-105.229789">
  <ele>1583.0</ele>
  <time>2026-08-28T17:51:15Z</time>
  <course>247.8</course>
  <speed>0.0316227766016838</speed>
  <fix>3d</fix>
</trkpt>
<trkpt lat="40.0713749" lon="-105.229789">
  <ele>1583.0</ele>
  <time>2026-08-28T17:51:15Z</time>
  <course>0.0</course>
  <speed>0.0</speed>
  <fix>3d</fix>
</trkpt>
<trkpt lat="40.0713749" lon="-105.229789">
  <ele>1583.0</ele>
  <time>2026-08-28T17:51:15Z</time>
  <course>247.8</course>
  <speed>0.0316227766016838</speed>
  <fix>3d</fix>
</trkpt>
<trkpt lat="40.0713749" lon="-105.229789">
  <ele>1583.0</ele>
  <time>2026-08-28T17:51:15Z</time>
  <course>0.0</course>
  <speed>0.0</speed>
  <fix>3d</fix>
</trkpt>
<trkpt lat="40.0713749" lon="-105.229789">
  <ele>1583.0</ele>
  <time>2026-08-28T17:51:15Z</time>
  <course>247.79</course>
  <speed>0.0316227766016838</speed>
  <fix>3d</fix>
</trkpt>
<trkpt lat="40.0713749" lon="-105.229789">
  <ele>1583.0</ele>
  <time>2026-08-28T17:51:15Z</time>
  <course>0.0</course>
  <speed>0.0</speed>
  <fix>3d</fix>
</trkpt>
<trkpt lat="40.0713749" lon="-105.229789">
  <ele>1583.0</ele>
  <time>2026-08-28T17:51:15Z</time>
  <course>247.79</course>
  <speed>0.0316227766016838</speed>
  <fix>3d</fix>
</trkpt>
<trkpt lat="40.0713749" lon="-105.229789">
  <ele>1583.0</ele>
  <time>2026-08-28T17:51:15Z</time>
  <course>0.0</course>
  <speed>0.0</speed>
  <fix>3d</fix>
</trkpt>
<trkpt lat="40.0713749" lon="-105.229789">
  <ele>1583.0</ele>
  <time>2026-08-28T17:51:15Z</time>
  <course>247.79</course>
  <speed>0.0316227766016838</speed>
  <fix>3d</fix>
</trkpt>
<trkpt lat="40.0713749" lon="-105.229789">
  <ele>1583.0</ele>
  <time>2026-08-28T17:51:15Z</time>
  <course>0.0</course>
  <speed>0.0</speed>
  <fix>3d</fix>
</trkpt>
<trkpt lat="40.0713749" lon="-105.229789">
  <ele>1583.0</ele>
  <time>2026-08-28T17:51:15Z</time>
  <course>247.78</course>
  <speed>0.0316227766016838</speed>
  <fix>3d</fix>
</trkpt>
<trkpt lat="40.0713749" lon="-105.229789">
  <ele>1583.0</ele>
  <time>2026-08-28T17:51:15Z</time>
  <course>0.0</course>
  <speed>0.0</speed>
  <fix>3d</fix>
</trkpt>
<trkpt lat="40.0713749" lon="-105.229789">
  <ele>1583.0</ele>
  <time>2026-08-28T17:51:15Z</time>
  <course>247.78</course>
  <speed>0.0316227766016838</speed>
  <fix>3d</fix>
</trkpt>
<trkpt lat="40.0713749" lon="-105.229789">
  <ele>1583.0</ele>
  <time>2026-08-28T17:51:15Z</time>
  <course>0.0</course>
  <speed>0.0</speed>
  <fix>3d</fix>
</trkpt>
<trkpt lat="40.0713749" lon="-105.229789">
  <ele>1583.0</ele>
  <time>2026-08-28T17:51:16Z</time>
  <course>247.78</course>
  <speed>0.0316227766016838</speed>
  <fix>3d</fix>
</trkpt>
<trkpt lat="40.0713749" lon="-105.229789">
  <ele>1583.0</ele>
  <time>2026-08-28T17:51:16Z</time>
  <course>0.0</course>
  <speed>0.0</speed>
  <fix>3d</fix>
</trkpt>
<trkpt lat="40.0713749" lon="-105.229789">
  <ele>1583.0</ele>
  <time>2026-08-28T17:51:16Z</time>
  <course>247.77</course>
  <speed>0.0316227766016838</speed>
  <fix>3d</fix>
</trkpt>
<trkpt lat="40.0713749" lon="-105.229789">
  <ele>1583.0</ele>
  <time>2026-08-28T17:51:16Z</time>
  <course>0.0</course>
  <speed>0.0</speed>
  <fix>3d</fix>
</trkpt>
<trkpt lat="40.0713749" lon="-105.229789">
  <ele>1583.0</ele>
  <time>2026-08-28T17:51:16Z</time>
  <course>247.77</course>
  <speed>0.0316227766016838</speed>
  <fix>3d</fix>
</trkpt>
<trkpt lat="40.0713749" lon="-105.229789">
  <ele>1583.0</ele>
  <time>2026-08-28T17:51:16Z</time>
  <course>0.0</course>
  <speed>0.0</speed>
  <fix>3d</fix>
</trkpt>
<trkpt lat="40.0713749" lon="-105.229789">
  <ele>1583.0</ele>
  <time>2026-08-28T17:51:16Z</time>
  <course>247.76</course>
  <speed>0.0316227766016838</speed>
  <fix>3d</fix>
</trkpt>
<trkpt lat="40.0713749" lon="-105.229789">
  <ele>1583.0</ele>
  <time>2026-08-28T17:51:16Z</time>
  <course>0.0</course>
  <speed>0.0</speed>
  <fix>3d</fix>
</trkpt>
<trkpt lat="40.0713749" lon="-105.229789">
  <ele>1583.0</ele>
  <time>2026-08-28T17:51:16Z</time>
  <course>247.76</course>
  <speed>0.0316227766016838</speed>
  <fix>3d</fix>
</trkpt>
<trkpt lat="40.0713749" lon="-105.229789">
  <ele>1583.0</ele>
  <time>2026-08-28T17:51:16Z</time>
  <course>0.0</course>
  <speed>0.0</speed>
  <fix>3d</fix>
</trkpt>
<trkpt lat="40.0713749" lon="-105.229789">
  <ele>1583.0</ele>
  <time>2026-08-28T17:51:16Z</time>
  <course>247.76</course>
  <speed>0.0316227766016838</speed>
  <fix>3d</fix>
</trkpt>
<trkpt lat="40.0713749" lon="-105.229789">
  <ele>1583.0</ele>
  <time>2026-08-28T17:51:16Z</time>
  <course>0.0</course>
  <speed>0.0</speed>
  <fix>3d</fix>
</trkpt>
<trkpt lat="40.0713749" lon="-105.229789">
  <ele>1583.0</ele>
  <time>2026-08-28T17:51:16Z</time>
  <course>247.75</course>
  <speed>0.0316227766016838</speed>
  <fix>3d</fix>
</trkpt>
<trkpt lat="40.0713749" lon="-105.229789">
  <ele>1583.0</ele>
  <time>2026-08-28T17:51:16Z</time>
  <course>0.0</course>
  <speed>0.0</speed>
  <fix>3d</fix>
</trkpt>
<trkpt lat="40.0713749" lon="-105.229789">
  <ele>1583.0</ele>
  <time>2026-08-28T17:51:16Z</time>
  <course>247.75</course>
  <speed>0.0316227766016838</speed>
  <fix>3d</fix>
</trkpt>
<trkpt lat="40.0713749" lon="-105.229789">
  <ele>1583.0</ele>
  <time>2026-08-28T17:51:16Z</time>
  <course>0.0</course>
  <speed>0.0</speed>
  <fix>3d</fix>
</trkpt>
<trkpt lat="40.0713749" lon="-105.229789">
  <ele>1583.0</ele>
  <time>2026-08-28T17:51:16Z</time>
  <course>247.75</course>
  <speed>0.0316227766016838</speed>
  <fix>3d</fix>
</trkpt>
<trkpt lat="40.0713749" lon="-105.229789">
  <ele>1583.0</ele>
  <time>2026-08-28T17:51:16Z</time>
  <course>0.0</course>
  <speed>0.0</speed>
  <fix>3d</fix>
</trkpt>
<trkpt lat="40.0713749" lon="-105.229789">
  <ele>1583.0</ele>
  <time>2026-08-28T17:51:16Z</time>
  <course>247.74</course>
  <speed>0.0316227766016838</speed>
  <fix>3d</fix>
</trkpt>
<trkpt lat="40.0713749" lon="-105.229789">
  <ele>1583.0</ele>
  <time>2026-08-28T17:51:16Z</time>
  <course>0.0</course>
  <speed>0.0</speed>
  <fix>3d</fix>
</trkpt>
<trkpt lat="40.0713749" lon="-105.229789">
  <ele>1583.0</ele>
  <time>2026-08-28T17:51:16Z</time>
  <course>247.74</course>
  <speed>0.0316227766016838</speed>
  <fix>3d</fix>
</trkpt>
<trkpt lat="40.0713749" lon="-105.229789">
  <ele>1583.0</ele>
  <time>2026-08-28T17:51:16Z</time>
  <course>0.0</course>
  <speed>0.0</speed>
  <fix>3d</fix>
</trkpt>
<trkpt lat="40.0713749" lon="-105.229789">
  <ele>1583.0</ele>
  <time>2026-08-28T17:51:16Z</time>
  <course>247.74</course>
  <speed>0.0316227766016838</speed>
  <fix>3d</fix>
</trkpt>
<trkpt lat="40.0713749" lon="-105.229789">
  <ele>1583.0</ele>
  <time>2026-08-28T17:51:16Z</time>
  <course>0.0</course>
  <speed>0.0</speed>
  <fix>3d</fix>
</trkpt>
<trkpt lat="40.0713749" lon="-105.229789">
  <ele>1583.0</ele>
  <time>2026-08-28T17:51:16Z</time>
  <course>247.73</course>
  <speed>0.0316227766016838</speed>
  <fix>3d</fix>
</trkpt>
<trkpt lat="40.0713749" lon="-105.229789">
  <ele>1583.0</ele>
  <time>2026-08-28T17:51:16Z</time>
  <course>0.0</course>
  <speed>0.0</speed>
  <fix>3d</fix>
</trkpt>
<trkpt lat="40.0713749" lon="-105.229789">
  <ele>1583.0</ele>
  <time>2026-08-28T17:51:16Z</time>
  <course>247.73</course>
  <speed>0.0316227766016838</speed>
  <fix>3d</fix>
</trkpt>
<trkpt lat="40.0713749" lon="-105.229789">
  <ele>1583.0</ele>
  <time>2026-08-28T17:51:16Z</time>
  <course>0.0</course>
  <speed>0.0</speed>
  <fix>3d</fix>
</trkpt>
<trkpt lat="40.0713749" lon="-105.229789">
  <ele>1583.0</ele>
  <time>2026-08-28T17:51:16Z</time>
  <course>247.73</course>
  <speed>0.0316227766016838</speed>
  <fix>3d</fix>
</trkpt>
<trkpt lat="40.0713749" lon="-105.229789">
  <ele>1583.0</ele>
  <time>2026-08-28T17:51:16Z</time>
  <course>0.0</course>
  <speed>0.0</speed>
  <fix>3d</fix>
</trkpt>
<trkpt lat="40.0713749" lon="-105.229789">
  <ele>1583.0</ele>
  <time>2026-08-28T17:51:16Z</time>
  <course>247.72</course>
  <speed>0.0316227766016838</speed>
  <fix>3d</fix>
</trkpt>
<trkpt lat="40.0713749" lon="-105.229789">
  <ele>1583.0</ele>
  <time>2026-08-28T17:51:16Z</time>
  <course>0.0</course>
  <speed>0.0</speed>
  <fix>3d</fix>
</trkpt>
<trkpt lat="40.0713749" lon="-105.229789">
  <ele>1583.0</ele>
  <time>2026-08-28T17:51:16Z</time>
  <course>247.72</course>
  <speed>0.0316227766016838</speed>
  <fix>3d</fix>
</trkpt>
<trkpt lat="40.0713749" lon="-105.229789">
  <ele>1583.0</ele>
  <time>2026-08-28T17:51:16Z</time>
  <course>0.0</course>
  <speed>0.0</speed>
  <fix>3d</fix>
</trkpt>
<trkpt lat="40.0713749" lon="-105.229789">
  <ele>1583.0</ele>
  <time>2026-08-28T17:51:16Z</time>
  <course>247.72</course>
  <speed>0.0316227766016838</speed>
  <fix>3d</fix>
</trkpt>
<trkpt lat="40.0713749" lon="-105.229789">
  <ele>1583.0</ele>
  <time>2026-08-28T17:51:16Z</time>
  <course>0.0</course>
  <speed>0.0</speed>
  <fix>3d</fix>
</trkpt>
<trkpt lat="40.0713749" lon="-105.229789">
  <ele>1583.0</ele>
  <time>2026-08-28T17:51:16Z</time>
  <course>247.71</course>
  <speed>0.0316227766016838</speed>
  <fix>3d</fix>
</trkpt>
<trkpt lat="40.0713749" lon="-105.229789">
  <ele>1583.0</ele>
  <time>2026-08-28T17:51:16Z</time>
  <course>0.0</course>
  <speed>0.0</speed>
  <fix>3d</fix>
</trkpt>
<trkpt lat="40.0713749" lon="-105.229789">
  <ele>1583.0</ele>
  <time>2026-08-28T17:51:16Z</time>
  <course>247.71</course>
  <speed>0.0316227766016838</speed>
  <fix>3d</fix>
</trkpt>
<trkpt lat="40.0713749" lon="-105.229789">
  <ele>1583.0</ele>
  <time>2026-08-28T17:51:16Z</time>
  <course>0.0</course>
  <speed>0.0</speed>
  <fix>3d</fix>
</trkpt>
<trkpt lat="40.0713749" lon="-105.229789">
  <ele>1583.0</ele>
  <time>2026-08-28T17:51:16Z</time>
  <course>247.71</course>
  <speed>0.0316227766016838</speed>
  <fix>3d</fix>
</trkpt>
<trkpt lat="40.0713749" lon="-105.229789">
  <ele>1583.0</ele>
  <time>2026-08-28T17:51:16Z</time>
  <course>0.0</course>
  <speed>0.0</speed>
  <fix>3d</fix>
</trkpt>
<trkpt lat="40.0713749" lon="-105.229789">
  <ele>1583.0</ele>
  <time>2026-08-28T17:51:16Z</time>
  <course>247.7</course>
  <speed>0.0316227766016838</speed>
  <fix>3d</fix>
</trkpt>
<trkpt lat="40.0713749" lon="-105.229789">
  <ele>1583.0</ele>
  <time>2026-08-28T17:51:16Z</time>
  <course>0.0</course>
  <speed>0.0</speed>
  <fix>3d</fix>
</trkpt>
<trkpt lat="40.0713749" lon="-105.229789">
  <ele>1583.0</ele>
  <time>2026-08-28T17:51:16Z</time>
  <course>247.7</course>
  <speed>0.0316227766016838</speed>
  <fix>3d</fix>
</trkpt>
<trkpt lat="40.0713749" lon="-105.229789">
  <ele>1583.0</ele>
  <time>2026-08-28T17:51:16Z</time>
  <course>0.0</course>
  <speed>0.0</speed>
  <fix>3d</fix>
</trkpt>
<trkpt lat="40.0713749" lon="-105.229789">
  <ele>1583.0</ele>
  <time>2026-08-28T17:51:16Z</time>
  <course>247.7</course>
  <speed>0.0316227766016838</speed>
  <fix>3d</fix>
</trkpt>
<trkpt lat="40.0713749" lon="-105.229789">
  <ele>1583.0</ele>
  <time>2026-08-28T17:51:16Z</time>
  <course>0.0</course>
  <speed>0.0</speed>
  <fix>3d</fix>
</trkpt>
<trkpt lat="40.0713749" lon="-105.229789">
  <ele>1583.0</ele>
  <time>2026-08-28T17:51:16Z</time>
  <course>247.69</course>
  <speed>0.0316227766016838</speed>
  <fix>3d</fix>
</trkpt>
<trkpt lat="40.0713749" lon="-105.229789">
  <ele>1583.0</ele>
  <time>2026-08-28T17:51:16Z</time>
  <course>0.0</course>
  <speed>0.0</speed>
  <fix>3d</fix>
</trkpt>
<trkpt lat="40.0713749" lon="-105.229789">
  <ele>1583.0</ele>
  <time>2026-08-28T17:51:16Z</time>
  <course>247.69</course>
  <speed>0.0316227766016838</speed>
  <fix>3d</fix>
</trkpt>
<trkpt lat="40.0713749" lon="-105.229789">
  <ele>1583.0</ele>
  <time>2026-08-28T17:51:16Z</time>
  <course>0.0</course>
  <speed>0.0</speed>
  <fix>3d</fix>
</trkpt>
<trkpt lat="40.0713749" lon="-105.229789">
  <ele>1583.0</ele>
  <time>2026-08-28T17:51:16Z</time>
  <course>247.69</course>
  <speed>0.0316227766016838</speed>
  <fix>3d</fix>
</trkpt>
<trkpt lat="40.0713749" lon="-105.229789">
  <ele>1583.0</ele>
  <time>2026-08-28T17:51:16Z</time>
  <course>0.0</course>
  <speed>0.0</speed>
  <fix>3d</fix>
</trkpt>
<trkpt lat="40.0713749" lon="-105.229789">
  <ele>1583.0</ele>
  <time>2026-08-28T17:51:16Z</time>
  <course>247.68</course>
  <speed>0.0316227766016838</speed>
  <fix>3d</fix>
</trkpt>
<trkpt lat="40.0713749" lon="-105.229789">
  <ele>1583.0</ele>
  <time>2026-08-28T17:51:16Z</time>
  <course>0.0</course>
  <speed>0.0</speed>
  <fix>3d</fix>
</trkpt>
<trkpt lat="40.0713749" lon="-105.229789">
  <ele>1583.0</ele>
  <time>2026-08-28T17:51:16Z</time>
  <course>247.68</course>
  <speed>0.0316227766016838</speed>
  <fix>3d</fix>
</trkpt>
<trkpt lat="40.0713749" lon="-105.229789">
  <ele>1583.0</ele>
  <time>2026-08-28T17:51:16Z</time>
  <course>0.0</course>
  <speed>0.0</speed>
  <fix>3d</fix>
</trkpt>
<trkpt lat="40.0713749" lon="-105.229789">
  <ele>1583.0</ele>
  <time>2026-08-28T17:51:16Z</time>
  <course>247.68</course>
  <speed>0.0316227766016838</speed>
  <fix>3d</fix>
</trkpt>
<trkpt lat="40.0713749" lon="-105.229789">
  <ele>1583.0</ele>
  <time>2026-08-28T17:51:16Z</time>
  <course>0.0</course>
  <speed>0.0</speed>
  <fix>3d</fix>
</trkpt>
<trkpt lat="40.0713749" lon="-105.229789">
  <ele>1583.0</ele>
  <time>2026-08-28T17:51:16Z</time>
  <course>247.67</course>
  <speed>0.0316227766016838</speed>
  <fix>3d</fix>
</trkpt>
<trkpt lat="40.0713749" lon="-105.229789">
  <ele>1583.0</ele>
  <time>2026-08-28T17:51:16Z</time>
  <course>0.0</course>
  <speed>0.0</speed>
  <fix>3d</fix>
</trkpt>
<trkpt lat="40.0713749" lon="-105.229789">
  <ele>1583.0</ele>
  <time>2026-08-28T17:51:16Z</time>
  <course>247.67</course>
  <speed>0.0316227766016838</speed>
  <fix>3d</fix>
</trkpt>
<trkpt lat="40.0713749" lon="-105.229789">
  <ele>1583.0</ele>
  <time>2026-08-28T17:51:16Z</time>
  <course>0.0</course>
  <speed>0.0</speed>
  <fix>3d</fix>
</trkpt>
<trkpt lat="40.0713749" lon="-105.229789">
  <ele>1583.0</ele>
  <time>2026-08-28T17:51:16Z</time>
  <course>247.67</course>
  <speed>0.0316227766016838</speed>
  <fix>3d</fix>
</trkpt>
<trkpt lat="40.0713749" lon="-105.229789">
  <ele>1583.0</ele>
  <time>2026-08-28T17:51:16Z</time>
  <course>0.0</course>
  <speed>0.0</speed>
  <fix>3d</fix>
</trkpt>
<trkpt lat="40.0713749" lon="-105.229789">
  <ele>1583.0</ele>
  <time>2026-08-28T17:51:16Z</time>
  <course>247.66</course>
  <speed>0.0316227766016838</speed>
  <fix>3d</fix>
</trkpt>
<trkpt lat="40.0713749" lon="-105.229789">
  <ele>1583.0</ele>
  <time>2026-08-28T17:51:16Z</time>
  <course>0.0</course>
  <speed>0.0</speed>
  <fix>3d</fix>
</trkpt>
<trkpt lat="40.0713749" lon="-105.229789">
  <ele>1583.0</ele>
  <time>2026-08-28T17:51:16Z</time>
  <course>247.66</course>
  <speed>0.0316227766016838</speed>
  <fix>3d</fix>
</trkpt>
<trkpt lat="40.0713749" lon="-105.229789">
  <ele>1583.0</ele>
  <time>2026-08-28T17:51:16Z</time>
  <course>0.0</course>
  <speed>0.0</speed>
  <fix>3d</fix>
</trkpt>
<trkpt lat="40.0713749" lon="-105.229789">
  <ele>1583.0</ele>
  <time>2026-08-28T17:51:16Z</time>
  <course>247.66</course>
  <speed>0.0316227766016838</speed>
  <fix>3d</fix>
</trkpt>
<trkpt lat="40.0713749" lon="-105.229789">
  <ele>1583.0</ele>
  <time>2026-08-28T17:51:16Z</time>
  <course>0.0</course>
  <speed>0.0</speed>
  <fix>3d</fix>
</trkpt>
<trkpt lat="40.0713749" lon="-105.229789">
  <ele>1583.0</ele>
  <time>2026-08-28T17:51:16Z</time>
  <course>247.65</course>
  <speed>0.0316227766016838</speed>
  <fix>3d</fix>
</trkpt>
<trkpt lat="40.0713749" lon="-105.229789">
  <ele>1583.0</ele>
  <time>2026-08-28T17:51:16Z</time>
  <course>0.0</course>
  <speed>0.0</speed>
  <fix>3d</fix>
</trkpt>
<trkpt lat="40.0713749" lon="-105.229789">
  <ele>1583.0</ele>
  <time>2026-08-28T17:51:16Z</time>
  <course>247.65</course>
  <speed>0.0316227766016838</speed>
  <fix>3d</fix>
</trkpt>
<trkpt lat="40.0713749" lon="-105.229789">
  <ele>1583.0</ele>
  <time>2026-08-28T17:51:16Z</time>
  <course>0.0</course>
  <speed>0.0</speed>
  <fix>3d</fix>
</trkpt>
<trkpt lat="40.0713749" lon="-105.229789">
  <ele>1583.0</ele>
  <time>2026-08-28T17:51:16Z</time>
  <course>247.65</course>
  <speed>0.0316227766016838</speed>
  <fix>3d</fix>
</trkpt>
<trkpt lat="40.0713749" lon="-105.229789">
  <ele>1583.0</ele>
  <time>2026-08-28T17:51:16Z</time>
  <course>0.0</course>
  <speed>0.0</speed>
  <fix>3d</fix>
</trkpt>
<trkpt lat="40.0713749" lon="-105.229789">
  <ele>1583.0</ele>
  <time>2026-08-28T17:51:16Z</time>
  <course>247.64</course>
  <speed>0.0316227766016838</speed>
  <fix>3d</fix>
</trkpt>
<trkpt lat="40.0713749" lon="-105.229789">
  <ele>1583.0</ele>
  <time>2026-08-28T17:51:16Z</time>
  <course>0.0</course>
  <speed>0.0</speed>
  <fix>3d</fix>
</trkpt>
<trkpt lat="40.0713749" lon="-105.229789">
  <ele>1583.0</ele>
  <time>2026-08-28T17:51:16Z</time>
  <course>247.64</course>
  <speed>0.0316227766016838</speed>
  <fix>3d</fix>
</trkpt>
<trkpt lat="40.0713749" lon="-105.229789">
  <ele>1583.0</ele>
  <time>2026-08-28T17:51:16Z</time>
  <course>0.0</course>
  <speed>0.0</speed>
  <fix>3d</fix>
</trkpt>
<trkpt lat="40.0713749" lon="-105.229789">
  <ele>1583.0</ele>
  <time>2026-08-28T17:51:16Z</time>
  <course>247.64</course>
  <speed>0.0316227766016838</speed>
  <fix>3d</fix>
</trkpt>
<trkpt lat="40.0713749" lon="-105.229789">
  <ele>1583.0</ele>
  <time>2026-08-28T17:51:16Z</time>
  <course>0.0</course>
  <speed>0.0</speed>
  <fix>3d</fix>
</trkpt>
<trkpt lat="40.0713749" lon="-105.229789">
  <ele>1583.0</ele>
  <time>2026-08-28T17:51:16Z</time>
  <course>247.64</course>
  <speed>0.0316227766016838</speed>
  <fix>3d</fix>
</trkpt>
<trkpt lat="40.0713749" lon="-105.229789">
  <ele>1583.0</ele>
  <time>2026-08-28T17:51:16Z</time>
  <course>0.0</course>
  <speed>0.0</speed>
  <fix>3d</fix>
</trkpt>
<trkpt lat="40.0713749" lon="-105.229789">
  <ele>1583.0</ele>
  <time>2026-08-28T17:51:16Z</time>
  <course>247.63</course>
  <speed>0.0316227766016838</speed>
  <fix>3d</fix>
</trkpt>
<trkpt lat="40.0713749" lon="-105.229789">
  <ele>1583.0</ele>
  <time>2026-08-28T17:51:16Z</time>
  <course>0.0</course>
  <speed>0.0</speed>
  <fix>3d</fix>
</trkpt>
<trkpt lat="40.0713749" lon="-105.229789">
  <ele>1583.0</ele>
  <time>2026-08-28T17:51:16Z</time>
  <course>247.63</course>
  <speed>0.0316227766016838</speed>
  <fix>3d</fix>
</trkpt>
<trkpt lat="40.0713749" lon="-105.229789">
  <ele>1583.0</ele>
  <time>2026-08-28T17:51:16Z</time>
  <course>0.0</course>
  <speed>0.0</speed>
  <fix>3d</fix>
</trkpt>
<trkpt lat="40.0713749" lon="-105.229789">
  <ele>1583.0</ele>
  <time>2026-08-28T17:51:16Z</time>
  <course>247.63</course>
  <speed>0.0316227766016838</speed>
  <fix>3d</fix>
</trkpt>
<trkpt lat="40.0713749" lon="-105.229789">
  <ele>1583.0</ele>
  <time>2026-08-28T17:51:16Z</time>
  <course>0.0</course>
  <speed>0.0</speed>
  <fix>3d</fix>
</trkpt>
<trkpt lat="40.0713749" lon="-105.229789">
  <ele>1583.0</ele>
  <time>2026-08-28T17:51:16Z</time>
  <course>247.62</course>
  <speed>0.0316227766016838</speed>
  <fix>3d</fix>
</trkpt>
<trkpt lat="40.0713749" lon="-105.229789">
  <ele>1583.0</ele>
  <time>2026-08-28T17:51:16Z</time>
  <course>0.0</course>
  <speed>0.0</speed>
  <fix>3d</fix>
</trkpt>
<trkpt lat="40.0713749" lon="-105.229789">
  <ele>1583.0</ele>
  <time>2026-08-28T17:51:16Z</time>
  <course>247.62</course>
  <speed>0.0316227766016838</speed>
  <fix>3d</fix>
</trkpt>
<trkpt lat="40.0713749" lon="-105.229789">
  <ele>1583.0</ele>
  <time>2026-08-28T17:51:16Z</time>
  <course>0.0</course>
  <speed>0.0</speed>
  <fix>3d</fix>
</trkpt>
<trkpt lat="40.0713749" lon="-105.229789">
  <ele>1583.0</ele>
  <time>2026-08-28T17:51:16Z</time>
  <course>247.62</course>
  <speed>0.0316227766016838</speed>
  <fix>3d</fix>
</trkpt>
<trkpt lat="40.0713749" lon="-105.229789">
  <ele>1583.0</ele>
  <time>2026-08-28T17:51:16Z</time>
  <course>0.0</course>
  <speed>0.0</speed>
  <fix>3d</fix>
</trkpt>
<trkpt lat="40.0713749" lon="-105.229789">
  <ele>1583.0</ele>
  <time>2026-08-28T17:51:16Z</time>
  <course>247.62</course>
  <speed>0.0316227766016838</speed>
  <fix>3d</fix>
</trkpt>
<trkpt lat="40.0713749" lon="-105.229789">
  <ele>1583.0</ele>
  <time>2026-08-28T17:51:16Z</time>
  <course>0.0</course>
  <speed>0.0</speed>
  <fix>3d</fix>
</trkpt>
<trkpt lat="40.0713749" lon="-105.229789">
  <ele>1583.0</ele>
  <time>2026-08-28T17:51:16Z</time>
  <course>247.61</course>
  <speed>0.0316227766016838</speed>
  <fix>3d</fix>
</trkpt>
<trkpt lat="40.0713749" lon="-105.229789">
  <ele>1583.0</ele>
  <time>2026-08-28T17:51:16Z</time>
  <course>0.0</course>
  <speed>0.0</speed>
  <fix>3d</fix>
</trkpt>
<trkpt lat="40.0713749" lon="-105.229789">
  <ele>1583.0</ele>
  <time>2026-08-28T17:51:16Z</time>
  <course>247.61</course>
  <speed>0.0316227766016838</speed>
  <fix>3d</fix>
</trkpt>
<trkpt lat="40.0713749" lon="-105.229789">
  <ele>1583.0</ele>
  <time>2026-08-28T17:51:16Z</time>
  <course>0.0</course>
  <speed>0.0</speed>
  <fix>3d</fix>
</trkpt>
<trkpt lat="40.0713749" lon="-105.229789">
  <ele>1583.0</ele>
  <time>2026-08-28T17:51:16Z</time>
  <course>247.61</course>
  <speed>0.0316227766016838</speed>
  <fix>3d</fix>
</trkpt>
<trkpt lat="40.0713749" lon="-105.229789">
  <ele>1583.0</ele>
  <time>2026-08-28T17:51:16Z</time>
  <course>0.0</course>
  <speed>0.0</speed>
  <fix>3d</fix>
</trkpt>
<trkpt lat="40.0713749" lon="-105.229789">
  <ele>1583.0</ele>
  <time>2026-08-28T17:51:16Z</time>
  <course>247.6</course>
  <speed>0.0316227766016838</speed>
  <fix>3d</fix>
</trkpt>
<trkpt lat="40.0713749" lon="-105.229789">
  <ele>1583.0</ele>
  <time>2026-08-28T17:51:16Z</time>
  <course>0.0</course>
  <speed>0.0</speed>
  <fix>3d</fix>
</trkpt>
<trkpt lat="40.0713749" lon="-105.229789">
  <ele>1583.0</ele>
  <time>2026-08-28T17:51:16Z</time>
  <course>247.6</course>
  <speed>0.0316227766016838</speed>
  <fix>3d</fix>
</trkpt>
<trkpt lat="40.0713749" lon="-105.229789">
  <ele>1583.0</ele>
  <time>2026-08-28T17:51:16Z</time>
  <course>0.0</course>
  <speed>0.0</speed>
  <fix>3d</fix>
</trkpt>
<trkpt lat="40.0713749" lon="-105.229789">
  <ele>1583.0</ele>
  <time>2026-08-28T17:51:16Z</time>
  <course>247.6</course>
  <speed>0.0316227766016838</speed>
  <fix>3d</fix>
</trkpt>
<trkpt lat="40.0713749" lon="-105.229789">
  <ele>1583.0</ele>
  <time>2026-08-28T17:51:16Z</time>
  <course>0.0</course>
  <speed>0.0</speed>
  <fix>3d</fix>
</trkpt>
<trkpt lat="40.0713749" lon="-105.229789">
  <ele>1583.0</ele>
  <time>2026-08-28T17:51:16Z</time>
  <course>247.6</course>
  <speed>0.0316227766016838</speed>
  <fix>3d</fix>
</trkpt>
<trkpt lat="40.0713749" lon="-105.229789">
  <ele>1583.0</ele>
  <time>2026-08-28T17:51:16Z</time>
  <course>0.0</course>
  <speed>0.0</speed>
  <fix>3d</fix>
</trkpt>
<trkpt lat="40.0713749" lon="-105.229789">
  <ele>1583.0</ele>
  <time>2026-08-28T17:51:16Z</time>
  <course>247.59</course>
  <speed>0.0316227766016838</speed>
  <fix>3d</fix>
</trkpt>
<trkpt lat="40.0713749" lon="-105.229789">
  <ele>1583.0</ele>
  <time>2026-08-28T17:51:16Z</time>
  <course>0.0</course>
  <speed>0.0</speed>
  <fix>3d</fix>
</trkpt>
<trkpt lat="40.0713749" lon="-105.229789">
  <ele>1582.92</ele>
  <time>2026-08-28T17:51:16Z</time>
  <course>247.59</course>
  <speed>0.0</speed>
  <fix>3d</fix>
</trkpt>
<trkpt lat="40.0713749" lon="-105.229789">
  <ele>1583.0</ele>
  <time>2026-08-28T17:51:16Z</time>
  <course>0.0</course>
  <speed>0.0</speed>
  <fix>3d</fix>
</trkpt>
<trkpt lat="40.0713749" lon="-105.229789">
  <ele>1582.92</ele>
  <time>2026-08-28T17:51:16Z</time>
  <course>247.59</course>
  <speed>0.0</speed>
  <fix>3d</fix>
</trkpt>
<trkpt lat="40.0713749" lon="-105.229789">
  <ele>1583.0</ele>
  <time>2026-08-28T17:51:16Z</time>
  <course>0.0</course>
  <speed>0.0</speed>
  <fix>3d</fix>
</trkpt>
<trkpt lat="40.0713749" lon="-105.229789">
  <ele>1582.91</ele>
  <time>2026-08-28T17:51:16Z</time>
  <course>247.58</course>
  <speed>0.0</speed>
  <fix>3d</fix>
</trkpt>
<trkpt lat="40.0713749" lon="-105.229789">
  <ele>1583.0</ele>
  <time>2026-08-28T17:51:16Z</time>
  <course>0.0</course>
  <speed>0.0</speed>
  <fix>3d</fix>
</trkpt>
<trkpt lat="40.0713749" lon="-105.229789">
  <ele>1582.91</ele>
  <time>2026-08-28T17:51:16Z</time>
  <course>247.58</course>
  <speed>0.0</speed>
  <fix>3d</fix>
</trkpt>
<trkpt lat="40.0713749" lon="-105.229789">
  <ele>1583.0</ele>
  <time>2026-08-28T17:51:16Z</time>
  <course>0.0</course>
  <speed>0.0</speed>
  <fix>3d</fix>
</trkpt>
<trkpt lat="40.0713749" lon="-105.229789">
  <ele>1582.9</ele>
  <time>2026-08-28T17:51:16Z</time>
  <course>247.58</course>
  <speed>0.0</speed>
  <fix>3d</fix>
</trkpt>
<trkpt lat="40.0713749" lon="-105.229789">
  <ele>1583.0</ele>
  <time>2026-08-28T17:51:16Z</time>
  <course>0.0</course>
  <speed>0.0</speed>
  <fix>3d</fix>
</trkpt>
<trkpt lat="40.0713749" lon="-105.229789">
  <ele>1582.9</ele>
  <time>2026-08-28T17:51:16Z</time>
  <course>247.58</course>
  <speed>0.0</speed>
  <fix>3d</fix>
</trkpt>
<trkpt lat="40.0713749" lon="-105.229789">
  <ele>1583.0</ele>
  <time>2026-08-28T17:51:16Z</time>
  <course>0.0</course>
  <speed>0.0</speed>
  <fix>3d</fix>
</trkpt>
<trkpt lat="40.0713749" lon="-105.229789">
  <ele>1582.9</ele>
  <time>2026-08-28T17:51:16Z</time>
  <course>247.57</course>
  <speed>0.0</speed>
  <fix>3d</fix>
</trkpt>
<trkpt lat="40.0713749" lon="-105.229789">
  <ele>1583.0</ele>
  <time>2026-08-28T17:51:16Z</time>
  <course>0.0</course>
  <speed>0.0</speed>
  <fix>3d</fix>
</trkpt>
<trkpt lat="40.0713749" lon="-105.229789">
  <ele>1582.9</ele>
  <time>2026-08-28T17:51:16Z</time>
  <course>247.57</course>
  <speed>0.0</speed>
  <fix>3d</fix>
</trkpt>
<trkpt lat="40.0713749" lon="-105.229789">
  <ele>1583.0</ele>
  <time>2026-08-28T17:51:16Z</time>
  <course>0.0</course>
  <speed>0.0</speed>
  <fix>3d</fix>
</trkpt>
<trkpt lat="40.0713749" lon="-105.229789">
  <ele>1582.9</ele>
  <time>2026-08-28T17:51:16Z</time>
  <course>247.57</course>
  <speed>0.0</speed>
  <fix>3d</fix>
</trkpt>
<trkpt lat="40.0713749" lon="-105.229789">
  <ele>1583.0</ele>
  <time>2026-08-28T17:51:16Z</time>
  <course>0.0</course>
  <speed>0.0</speed>
  <fix>3d</fix>
</trkpt>
<trkpt lat="40.0713749" lon="-105.229789">
  <ele>1582.9</ele>
  <time>2026-08-28T17:51:16Z</time>
  <course>247.57</course>
  <speed>0.01</speed>
  <fix>3d</fix>
</trkpt>
<trkpt lat="40.0713749" lon="-105.229789">
  <ele>1583.0</ele>
  <time>2026-08-28T17:51:16Z</time>
  <course>0.0</course>
  <speed>0.0</speed>
  <fix>3d</fix>
</trkpt>
<trkpt lat="40.0713749" lon="-105.229789">
  <ele>1582.9</ele>
  <time>2026-08-28T17:51:16Z</time>
  <course>247.56</course>
  <speed>0.01</speed>
  <fix>3d</fix>
</trkpt>
<trkpt lat="40.0713749" lon="-105.229789">
  <ele>1583.0</ele>
  <time>2026-08-28T17:51:16Z</time>
  <course>0.0</course>
  <speed>0.0</speed>
  <fix>3d</fix>
</trkpt>
<trkpt lat="40.0713749" lon="-105.229789">
  <ele>1582.91</ele>
  <time>2026-08-28T17:51:16Z</time>
  <course>247.56</course>
  <speed>0.01</speed>
  <fix>3d</fix>
</trkpt>
<trkpt lat="40.0713749" lon="-105.229789">
  <ele>1583.0</ele>
  <time>2026-08-28T17:51:16Z</time>
  <course>0.0</course>
  <speed>0.0</speed>
  <fix>3d</fix>
</trkpt>
<trkpt lat="40.0713749" lon="-105.229789">
  <ele>1582.91</ele>
  <time>2026-08-28T17:51:16Z</time>
  <course>247.56</course>
  <speed>0.01</speed>
  <fix>3d</fix>
</trkpt>
<trkpt lat="40.0713749" lon="-105.229789">
  <ele>1583.0</ele>
  <time>2026-08-28T17:51:16Z</time>
  <course>0.0</course>
  <speed>0.0</speed>
  <fix>3d</fix>
</trkpt>
<trkpt lat="40.0713749" lon="-105.229789">
  <ele>1582.92</ele>
  <time>2026-08-28T17:51:16Z</time>
  <course>247.56</course>
  <speed>0.01</speed>
  <fix>3d</fix>
</trkpt>
<trkpt lat="40.0713749" lon="-105.229789">
  <ele>1583.0</ele>
  <time>2026-08-28T17:51:16Z</time>
  <course>0.0</course>
  <speed>0.0</speed>
  <fix>3d</fix>
</trkpt>
<trkpt lat="40.0713749" lon="-105.229789">
  <ele>1582.92</ele>
  <time>2026-08-28T17:51:16Z</time>
  <course>247.55</course>
  <speed>0.01</speed>
  <fix>3d</fix>
</trkpt>
<trkpt lat="40.0713749" lon="-105.229789">
  <ele>1583.0</ele>
  <time>2026-08-28T17:51:16Z</time>
  <course>0.0</course>
  <speed>0.0</speed>
  <fix>3d</fix>
</trkpt>
<trkpt lat="40.0713749" lon="-105.229789">
  <ele>1582.92</ele>
  <time>2026-08-28T17:51:16Z</time>
  <course>247.55</course>
  <speed>0.01</speed>
  <fix>3d</fix>
</trkpt>
<trkpt lat="40.0713749" lon="-105.229789">
  <ele>1583.0</ele>
  <time>2026-08-28T17:51:16Z</time>
  <course>0.0</course>
  <speed>0.0</speed>
  <fix>3d</fix>
</trkpt>
<trkpt lat="40.0713749" lon="-105.229789">
  <ele>1582.93</ele>
  <time>2026-08-28T17:51:16Z</time>
  <course>247.55</course>
  <speed>0.01</speed>
  <fix>3d</fix>
</trkpt>
<trkpt lat="40.0713749" lon="-105.229789">
  <ele>1583.0</ele>
  <time>2026-08-28T17:51:16Z</time>
  <course>0.0</course>
  <speed>0.0</speed>
  <fix>3d</fix>
</trkpt>
<trkpt lat="40.0713749" lon="-105.229789">
  <ele>1582.93</ele>
  <time>2026-08-28T17:51:16Z</time>
  <course>247.55</course>
  <speed>0.01</speed>
  <fix>3d</fix>
</trkpt>
<trkpt lat="40.0713749" lon="-105.229789">
  <ele>1583.0</ele>
  <time>2026-08-28T17:51:16Z</time>
  <course>0.0</course>
  <speed>0.0</speed>
  <fix>3d</fix>
</trkpt>
<trkpt lat="40.0713749" lon="-105.229789">
  <ele>1582.93</ele>
  <time>2026-08-28T17:51:16Z</time>
  <course>247.54</course>
  <speed>0.02</speed>
  <fix>3d</fix>
</trkpt>
<trkpt lat="40.0713749" lon="-105.229789">
  <ele>1583.0</ele>
  <time>2026-08-28T17:51:16Z</time>
  <course>0.0</course>
  <speed>0.0</speed>
  <fix>3d</fix>
</trkpt>
<trkpt lat="40.0713749" lon="-105.229789">
  <ele>1582.93</ele>
  <time>2026-08-28T17:51:16Z</time>
  <course>247.54</course>
  <speed>0.02</speed>
  <fix>3d</fix>
</trkpt>
<trkpt lat="40.0713749" lon="-105.229789">
  <ele>1583.0</ele>
  <time>2026-08-28T17:51:16Z</time>
  <course>0.0</course>
  <speed>0.0</speed>
  <fix>3d</fix>
</trkpt>
<trkpt lat="40.0713749" lon="-105.229789">
  <ele>1582.93</ele>
  <time>2026-08-28T17:51:16Z</time>
  <course>247.54</course>
  <speed>0.02</speed>
  <fix>3d</fix>
</trkpt>
<trkpt lat="40.0713749" lon="-105.229789">
  <ele>1583.0</ele>
  <time>2026-08-28T17:51:16Z</time>
  <course>0.0</course>
  <speed>0.0</speed>
  <fix>3d</fix>
</trkpt>
<trkpt lat="40.0713749" lon="-105.229789">
  <ele>1582.93</ele>
  <time>2026-08-28T17:51:16Z</time>
  <course>247.54</course>
  <speed>0.022360679774997897</speed>
  <fix>3d</fix>
</trkpt>
<trkpt lat="40.0713749" lon="-105.229789">
  <ele>1583.0</ele>
  <time>2026-08-28T17:51:16Z</time>
  <course>0.0</course>
  <speed>0.0</speed>
  <fix>3d</fix>
</trkpt>
<trkpt lat="40.0713749" lon="-105.229789">
  <ele>1582.94</ele>
  <time>2026-08-28T17:51:16Z</time>
  <course>247.53</course>
  <speed>0.022360679774997897</speed>
  <fix>3d</fix>
</trkpt>
<trkpt lat="40.0713749" lon="-105.229789">
  <ele>1583.0</ele>
  <time>2026-08-28T17:51:16Z</time>
  <course>0.0</course>
  <speed>0.0</speed>
  <fix>3d</fix>
</trkpt>
<trkpt lat="40.0713749" lon="-105.229789">
  <ele>1582.94</ele>
  <time>2026-08-28T17:51:16Z</time>
  <course>247.53</course>
  <speed>0.022360679774997897</speed>
  <fix>3d</fix>
</trkpt>
<trkpt lat="40.0713749" lon="-105.229789">
  <ele>1583.0</ele>
  <time>2026-08-28T17:51:16Z</time>
  <course>0.0</course>
  <speed>0.0</speed>
  <fix>3d</fix>
</trkpt>
<trkpt lat="40.071375" lon="-105.229789">
  <ele>1582.94</ele>
  <time>2026-08-28T17:51:16Z</time>
  <course>247.53</course>
  <speed>0.022360679774997897</speed>
  <fix>3d</fix>
</trkpt>
<trkpt lat="40.0713749" lon="-105.229789">
  <ele>1583.0</ele>
  <time>2026-08-28T17:51:16Z</time>
  <course>0.0</course>
  <speed>0.0</speed>
  <fix>3d</fix>
</trkpt>
<trkpt lat="40.071375" lon="-105.229789">
  <ele>1582.95</ele>
  <time>2026-08-28T17:51:16Z</time>
  <course>247.53</course>
  <speed>0.022360679774997897</speed>
  <fix>3d</fix>
</trkpt>
<trkpt lat="40.0713749" lon="-105.229789">
  <ele>1583.0</ele>
  <time>2026-08-28T17:51:16Z</time>
  <course>0.0</course>
  <speed>0.0</speed>
  <fix>3d</fix>
</trkpt>
<trkpt lat="40.071375" lon="-105.229789">
  <ele>1582.95</ele>
  <time>2026-08-28T17:51:16Z</time>
  <course>247.53</course>
  <speed>0.022360679774997897</speed>
  <fix>3d</fix>
</trkpt>
<trkpt lat="40.0713749" lon="-105.229789">
  <ele>1583.0</ele>
  <time>2026-08-28T17:51:16Z</time>
  <course>0.0</course>
  <speed>0.0</speed>
  <fix>3d</fix>
</trkpt>
<trkpt lat="40.071375" lon="-105.229789">
  <ele>1582.95</ele>
  <time>2026-08-28T17:51:16Z</time>
  <course>247.52</course>
  <speed>0.022360679774997897</speed>
  <fix>3d</fix>
</trkpt>
<trkpt lat="40.0713749" lon="-105.229789">
  <ele>1583.0</ele>
  <time>2026-08-28T17:51:16Z</time>
  <course>0.0</course>
  <speed>0.0</speed>
  <fix>3d</fix>
</trkpt>
<trkpt lat="40.071375" lon="-105.229789">
  <ele>1582.95</ele>
  <time>2026-08-28T17:51:16Z</time>
  <course>247.52</course>
  <speed>0.022360679774997897</speed>
  <fix>3d</fix>
</trkpt>
<trkpt lat="40.0713749" lon="-105.229789">
  <ele>1583.0</ele>
  <time>2026-08-28T17:51:16Z</time>
  <course>0.0</course>
  <speed>0.0</speed>
  <fix>3d</fix>
</trkpt>
<trkpt lat="40.071375" lon="-105.229789">
  <ele>1582.95</ele>
  <time>2026-08-28T17:51:16Z</time>
  <course>247.52</course>
  <speed>0.022360679774997897</speed>
  <fix>3d</fix>
</trkpt>
<trkpt lat="40.0713749" lon="-105.229789">
  <ele>1583.0</ele>
  <time>2026-08-28T17:51:16Z</time>
  <course>0.0</course>
  <speed>0.0</speed>
  <fix>3d</fix>
</trkpt>
<trkpt lat="40.071375" lon="-105.229789">
  <ele>1582.95</ele>
  <time>2026-08-28T17:51:16Z</time>
  <course>247.52</course>
  <speed>0.022360679774997897</speed>
  <fix>3d</fix>
</trkpt>
<trkpt lat="40.0713749" lon="-105.229789">
  <ele>1583.0</ele>
  <time>2026-08-28T17:51:16Z</time>
  <course>0.0</course>
  <speed>0.0</speed>
  <fix>3d</fix>
</trkpt>
<trkpt lat="40.071375" lon="-105.229789">
  <ele>1582.95</ele>
  <time>2026-08-28T17:51:16Z</time>
  <course>247.51</course>
  <speed>0.0316227766016838</speed>
  <fix>3d</fix>
</trkpt>
<trkpt lat="40.0713749" lon="-105.229789">
  <ele>1583.0</ele>
  <time>2026-08-28T17:51:16Z</time>
  <course>0.0</course>
  <speed>0.0</speed>
  <fix>3d</fix>
</trkpt>
<trkpt lat="40.071375" lon="-105.229789">
  <ele>1582.95</ele>
  <time>2026-08-28T17:51:16Z</time>
  <course>247.51</course>
  <speed>0.0316227766016838</speed>
  <fix>3d</fix>
</trkpt>
<trkpt lat="40.0713749" lon="-105.229789">
  <ele>1583.0</ele>
  <time>2026-08-28T17:51:16Z</time>
  <course>0.0</course>
  <speed>0.0</speed>
  <fix>3d</fix>
</trkpt>
<trkpt lat="40.071375" lon="-105.229789">
  <ele>1582.95</ele>
  <time>2026-08-28T17:51:16Z</time>
  <course>247.51</course>
  <speed>0.0316227766016838</speed>
  <fix>3d</fix>
</trkpt>
<trkpt lat="40.0713749" lon="-105.229789">
  <ele>1583.0</ele>
  <time>2026-08-28T17:51:16Z</time>
  <course>0.0</course>
  <speed>0.0</speed>
  <fix>3d</fix>
</trkpt>
<trkpt lat="40.071375" lon="-105.229789">
  <ele>1582.95</ele>
  <time>2026-08-28T17:51:16Z</time>
  <course>247.51</course>
  <speed>0.0316227766016838</speed>
  <fix>3d</fix>
</trkpt>
<trkpt lat="40.0713749" lon="-105.229789">
  <ele>1583.0</ele>
  <time>2026-08-28T17:51:16Z</time>
  <course>0.0</course>
  <speed>0.0</speed>
  <fix>3d</fix>
</trkpt>
<trkpt lat="40.071375" lon="-105.2297889">
  <ele>1582.95</ele>
  <time>2026-08-28T17:51:16Z</time>
  <course>247.51</course>
  <speed>0.0316227766016838</speed>
  <fix>3d</fix>
</trkpt>
<trkpt lat="40.0713749" lon="-105.229789">
  <ele>1583.0</ele>
  <time>2026-08-28T17:51:16Z</time>
  <course>0.0</course>
  <speed>0.0</speed>
  <fix>3d</fix>
</trkpt>
<trkpt lat="40.071375" lon="-105.2297889">
  <ele>1582.95</ele>
  <time>2026-08-28T17:51:16Z</time>
  <course>247.5</course>
  <speed>0.0316227766016838</speed>
  <fix>3d</fix>
</trkpt>
<trkpt lat="40.0713749" lon="-105.229789">
  <ele>1583.0</ele>
  <time>2026-08-28T17:51:16Z</time>
  <course>0.0</course>
  <speed>0.0</speed>
  <fix>3d</fix>
</trkpt>
<trkpt lat="40.071375" lon="-105.2297889">
  <ele>1582.95</ele>
  <time>2026-08-28T17:51:16Z</time>
  <course>247.5</course>
  <speed>0.0316227766016838</speed>
  <fix>3d</fix>
</trkpt>
<trkpt lat="40.0713749" lon="-105.229789">
  <ele>1583.0</ele>
  <time>2026-08-28T17:51:16Z</time>
  <course>0.0</course>
  <speed>0.0</speed>
  <fix>3d</fix>
</trkpt>
<trkpt lat="40.071375" lon="-105.2297889">
  <ele>1582.95</ele>
  <time>2026-08-28T17:51:16Z</time>
  <course>247.5</course>
  <speed>0.0316227766016838</speed>
  <fix>3d</fix>
</trkpt>
<trkpt lat="40.0713749" lon="-105.229789">
  <ele>1583.0</ele>
  <time>2026-08-28T17:51:16Z</time>
  <course>0.0</course>
  <speed>0.0</speed>
  <fix>3d</fix>
</trkpt>
<trkpt lat="40.0713751" lon="-105.2297889">
  <ele>1582.95</ele>
  <time>2026-08-28T17:51:16Z</time>
  <course>247.5</course>
  <speed>0.0316227766016838</speed>
  <fix>3d</fix>
</trkpt>
<trkpt lat="40.0713749" lon="-105.229789">
  <ele>1583.0</ele>
  <time>2026-08-28T17:51:16Z</time>
  <course>0.0</course>
  <speed>0.0</speed>
  <fix>3d</fix>
</trkpt>
<trkpt lat="40.0713751" lon="-105.2297889">
  <ele>1582.96</ele>
  <time>2026-08-28T17:51:16Z</time>
  <course>247.49</course>
  <speed>0.0316227766016838</speed>
  <fix>3d</fix>
</trkpt>
<trkpt lat="40.0713749" lon="-105.229789">
  <ele>1583.0</ele>
  <time>2026-08-28T17:51:16Z</time>
  <course>0.0</course>
  <speed>0.0</speed>
  <fix>3d</fix>
</trkpt>
<trkpt lat="40.0713751" lon="-105.2297889">
  <ele>1582.96</ele>
  <time>2026-08-28T17:51:16Z</time>
  <course>247.49</course>
  <speed>0.0316227766016838</speed>
  <fix>3d</fix>
</trkpt>
<trkpt lat="40.0713749" lon="-105.229789">
  <ele>1583.0</ele>
  <time>2026-08-28T17:51:16Z</time>
  <course>0.0</course>
  <speed>0.0</speed>
  <fix>3d</fix>
</trkpt>
<trkpt lat="40.0713751" lon="-105.2297889">
  <ele>1582.97</ele>
  <time>2026-08-28T17:51:16Z</time>
  <course>247.49</course>
  <speed>0.0316227766016838</speed>
  <fix>3d</fix>
</trkpt>
<trkpt lat="40.0713749" lon="-105.229789">
  <ele>1583.0</ele>
  <time>2026-08-28T17:51:16Z</time>
  <course>0.0</course>
  <speed>0.0</speed>
  <fix>3d</fix>
</trkpt>
<trkpt lat="40.0713751" lon="-105.2297889">
  <ele>1582.98</ele>
  <time>2026-08-28T17:51:16Z</time>
  <course>247.49</course>
  <speed>0.0316227766016838</speed>
  <fix>3d</fix>
</trkpt>
<trkpt lat="40.0713749" lon="-105.229789">
  <ele>1583.0</ele>
  <time>2026-08-28T17:51:16Z</time>
  <course>0.0</course>
  <speed>0.0</speed>
  <fix>3d</fix>
</trkpt>
<trkpt lat="40.0713751" lon="-105.2297889">
  <ele>1582.98</ele>
  <time>2026-08-28T17:51:16Z</time>
  <course>247.49</course>
  <speed>0.0316227766016838</speed>
  <fix>3d</fix>
</trkpt>
<trkpt lat="40.0713749" lon="-105.229789">
  <ele>1583.0</ele>
  <time>2026-08-28T17:51:16Z</time>
  <course>0.0</course>
  <speed>0.0</speed>
  <fix>3d</fix>
</trkpt>
<trkpt lat="40.0713751" lon="-105.2297889">
  <ele>1582.99</ele>
  <time>2026-08-28T17:51:16Z</time>
  <course>247.48</course>
  <speed>0.0316227766016838</speed>
  <fix>3d</fix>
</trkpt>
<trkpt lat="40.0713749" lon="-105.229789">
  <ele>1583.0</ele>
  <time>2026-08-28T17:51:16Z</time>
  <course>0.0</course>
  <speed>0.0</speed>
  <fix>3d</fix>
</trkpt>
<trkpt lat="40.0713751" lon="-105.2297889">
  <ele>1583.0</ele>
  <time>2026-08-28T17:51:16Z</time>
  <course>247.48</course>
  <speed>0.022360679774997897</speed>
  <fix>3d</fix>
</trkpt>
<trkpt lat="40.0713749" lon="-105.229789">
  <ele>1583.0</ele>
  <time>2026-08-28T17:51:16Z</time>
  <course>0.0</course>
  <speed>0.0</speed>
  <fix>3d</fix>
</trkpt>
<trkpt lat="40.0713751" lon="-105.2297889">
  <ele>1583.01</ele>
  <time>2026-08-28T17:51:16Z</time>
  <course>247.48</course>
  <speed>0.022360679774997897</speed>
  <fix>3d</fix>
</trkpt>
<trkpt lat="40.0713749" lon="-105.229789">
  <ele>1583.0</ele>
  <time>2026-08-28T17:51:16Z</time>
  <course>0.0</course>
  <speed>0.0</speed>
  <fix>3d</fix>
</trkpt>
<trkpt lat="40.0713751" lon="-105.2297889">
  <ele>1583.01</ele>
  <time>2026-08-28T17:51:16Z</time>
  <course>247.48</course>
  <speed>0.022360679774997897</speed>
  <fix>3d</fix>
</trkpt>
<trkpt lat="40.0713749" lon="-105.229789">
  <ele>1583.0</ele>
  <time>2026-08-28T17:51:16Z</time>
  <course>0.0</course>
  <speed>0.0</speed>
  <fix>3d</fix>
</trkpt>
<trkpt lat="40.0713751" lon="-105.2297889">
  <ele>1583.01</ele>
  <time>2026-08-28T17:51:16Z</time>
  <course>247.47</course>
  <speed>0.022360679774997897</speed>
  <fix>3d</fix>
</trkpt>
<trkpt lat="40.0713749" lon="-105.229789">
  <ele>1583.0</ele>
  <time>2026-08-28T17:51:16Z</time>
  <course>0.0</course>
  <speed>0.0</speed>
  <fix>3d</fix>
</trkpt>
<trkpt lat="40.0713751" lon="-105.2297889">
  <ele>1583.01</ele>
  <time>2026-08-28T17:51:16Z</time>
  <course>247.47</course>
  <speed>0.022360679774997897</speed>
  <fix>3d</fix>
</trkpt>
<trkpt lat="40.0713749" lon="-105.229789">
  <ele>1583.0</ele>
  <time>2026-08-28T17:51:16Z</time>
  <course>0.0</course>
  <speed>0.0</speed>
  <fix>3d</fix>
</trkpt>
<trkpt lat="40.0713751" lon="-105.2297889">
  <ele>1583.01</ele>
  <time>2026-08-28T17:51:16Z</time>
  <course>247.47</course>
  <speed>0.022360679774997897</speed>
  <fix>3d</fix>
</trkpt>
<trkpt lat="40.0713749" lon="-105.229789">
  <ele>1583.0</ele>
  <time>2026-08-28T17:51:16Z</time>
  <course>0.0</course>
  <speed>0.0</speed>
  <fix>3d</fix>
</trkpt>
<trkpt lat="40.071375" lon="-105.2297889">
  <ele>1583.0</ele>
  <time>2026-08-28T17:51:16Z</time>
  <course>247.47</course>
  <speed>0.022360679774997897</speed>
  <fix>3d</fix>
</trkpt>
<trkpt lat="40.0713749" lon="-105.229789">
  <ele>1583.0</ele>
  <time>2026-08-28T17:51:16Z</time>
  <course>0.0</course>
  <speed>0.0</speed>
  <fix>3d</fix>
</trkpt>
<trkpt lat="40.0713751" lon="-105.2297889">
  <ele>1583.0</ele>
  <time>2026-08-28T17:51:16Z</time>
  <course>247.47</course>
  <speed>0.022360679774997897</speed>
  <fix>3d</fix>
</trkpt>
<trkpt lat="40.0713749" lon="-105.229789">
  <ele>1583.0</ele>
  <time>2026-08-28T17:51:16Z</time>
  <course>0.0</course>
  <speed>0.0</speed>
  <fix>3d</fix>
</trkpt>
<trkpt lat="40.071375" lon="-105.2297889">
  <ele>1583.0</ele>
  <time>2026-08-28T17:51:16Z</time>
  <course>247.46</course>
  <speed>0.022360679774997897</speed>
  <fix>3d</fix>
</trkpt>
<trkpt lat="40.0713749" lon="-105.229789">
  <ele>1583.0</ele>
  <time>2026-08-28T17:51:16Z</time>
  <course>0.0</course>
  <speed>0.0</speed>
  <fix>3d</fix>
</trkpt>
<trkpt lat="40.071375" lon="-105.2297889">
  <ele>1582.99</ele>
  <time>2026-08-28T17:51:16Z</time>
  <course>247.46</course>
  <speed>0.022360679774997897</speed>
  <fix>3d</fix>
</trkpt>
<trkpt lat="40.0713749" lon="-105.229789">
  <ele>1583.0</ele>
  <time>2026-08-28T17:51:16Z</time>
  <course>0.0</course>
  <speed>0.0</speed>
  <fix>3d</fix>
</trkpt>
<trkpt lat="40.071375" lon="-105.2297889">
  <ele>1582.99</ele>
  <time>2026-08-28T17:51:16Z</time>
  <course>247.46</course>
  <speed>0.022360679774997897</speed>
  <fix>3d</fix>
</trkpt>
<trkpt lat="40.0713749" lon="-105.229789">
  <ele>1583.0</ele>
  <time>2026-08-28T17:51:16Z</time>
  <course>0.0</course>
  <speed>0.0</speed>
  <fix>3d</fix>
</trkpt>
<trkpt lat="40.071375" lon="-105.2297889">
  <ele>1582.99</ele>
  <time>2026-08-28T17:51:16Z</time>
  <course>247.46</course>
  <speed>0.022360679774997897</speed>
  <fix>3d</fix>
</trkpt>
<trkpt lat="40.0713749" lon="-105.229789">
  <ele>1583.0</ele>
  <time>2026-08-28T17:51:16Z</time>
  <course>0.0</course>
  <speed>0.0</speed>
  <fix>3d</fix>
</trkpt>
<trkpt lat="40.071375" lon="-105.2297889">
  <ele>1582.99</ele>
  <time>2026-08-28T17:51:16Z</time>
  <course>247.45</course>
  <speed>0.022360679774997897</speed>
  <fix>3d</fix>
</trkpt>
<trkpt lat="40.0713749" lon="-105.229789">
  <ele>1583.0</ele>
  <time>2026-08-28T17:51:16Z</time>
  <course>0.0</course>
  <speed>0.0</speed>
  <fix>3d</fix>
</trkpt>
<trkpt lat="40.071375" lon="-105.2297889">
  <ele>1582.99</ele>
  <time>2026-08-28T17:51:16Z</time>
  <course>247.45</course>
  <speed>0.022360679774997897</speed>
  <fix>3d</fix>
</trkpt>
<trkpt lat="40.0713749" lon="-105.229789">
  <ele>1583.0</ele>
  <time>2026-08-28T17:51:16Z</time>
  <course>0.0</course>
  <speed>0.0</speed>
  <fix>3d</fix>
</trkpt>
<trkpt lat="40.071375" lon="-105.2297889">
  <ele>1582.99</ele>
  <time>2026-08-28T17:51:16Z</time>
  <course>247.45</course>
  <speed>0.022360679774997897</speed>
  <fix>3d</fix>
</trkpt>
<trkpt lat="40.0713749" lon="-105.229789">
  <ele>1583.0</ele>
  <time>2026-08-28T17:51:16Z</time>
  <course>0.0</course>
  <speed>0.0</speed>
  <fix>3d</fix>
</trkpt>
<trkpt lat="40.071375" lon="-105.2297889">
  <ele>1582.99</ele>
  <time>2026-08-28T17:51:16Z</time>
  <course>247.45</course>
  <speed>0.022360679774997897</speed>
  <fix>3d</fix>
</trkpt>
<trkpt lat="40.0713749" lon="-105.229789">
  <ele>1583.0</ele>
  <time>2026-08-28T17:51:16Z</time>
  <course>0.0</course>
  <speed>0.0</speed>
  <fix>3d</fix>
</trkpt>
<trkpt lat="40.071375" lon="-105.2297889">
  <ele>1583.0</ele>
  <time>2026-08-28T17:51:16Z</time>
  <course>247.45</course>
  <speed>0.022360679774997897</speed>
  <fix>3d</fix>
</trkpt>
<trkpt lat="40.0713749" lon="-105.229789">
  <ele>1583.0</ele>
  <time>2026-08-28T17:51:16Z</time>
  <course>0.0</course>
  <speed>0.0</speed>
  <fix>3d</fix>
</trkpt>
<trkpt lat="40.071375" lon="-105.2297889">
  <ele>1583.0</ele>
  <time>2026-08-28T17:51:16Z</time>
  <course>247.44</course>
  <speed>0.022360679774997897</speed>
  <fix>3d</fix>
</trkpt>
<trkpt lat="40.0713749" lon="-105.229789">
  <ele>1583.0</ele>
  <time>2026-08-28T17:51:16Z</time>
  <course>0.0</course>
  <speed>0.0</speed>
  <fix>3d</fix>
</trkpt>
<trkpt lat="40.071375" lon="-105.229789">
  <ele>1583.0</ele>
  <time>2026-08-28T17:51:16Z</time>
  <course>247.44</course>
  <speed>0.02</speed>
  <fix>3d</fix>
</trkpt>
<trkpt lat="40.0713749" lon="-105.229789">
  <ele>1583.0</ele>
  <time>2026-08-28T17:51:16Z</time>
  <course>0.0</course>
  <speed>0.0</speed>
  <fix>3d</fix>
</trkpt>
<trkpt lat="40.071375" lon="-105.229789">
  <ele>1583.0</ele>
  <time>2026-08-28T17:51:16Z</time>
  <course>247.44</course>
  <speed>0.02</speed>
  <fix>3d</fix>
</trkpt>
<trkpt lat="40.0713749" lon="-105.229789">
  <ele>1583.0</ele>
  <time>2026-08-28T17:51:16Z</time>
  <course>0.0</course>
  <speed>0.0</speed>
  <fix>3d</fix>
</trkpt>
<trkpt lat="40.071375" lon="-105.229789">
  <ele>1583.0</ele>
  <time>2026-08-28T17:51:16Z</time>
  <course>247.44</course>
  <speed>0.02</speed>
  <fix>3d</fix>
</trkpt>
<trkpt lat="40.0713749" lon="-105.229789">
  <ele>1583.0</ele>
  <time>2026-08-28T17:51:16Z</time>
  <course>0.0</course>
  <speed>0.0</speed>
  <fix>3d</fix>
</trkpt>
<trkpt lat="40.071375" lon="-105.229789">
  <ele>1583.01</ele>
  <time>2026-08-28T17:51:16Z</time>
  <course>247.44</course>
  <speed>0.02</speed>
  <fix>3d</fix>
</trkpt>
<trkpt lat="40.0713749" lon="-105.229789">
  <ele>1583.0</ele>
  <time>2026-08-28T17:51:16Z</time>
  <course>0.0</course>
  <speed>0.0</speed>
  <fix>3d</fix>
</trkpt>
<trkpt lat="40.071375" lon="-105.229789">
  <ele>1583.01</ele>
  <time>2026-08-28T17:51:16Z</time>
  <course>247.43</course>
  <speed>0.02</speed>
  <fix>3d</fix>
</trkpt>
<trkpt lat="40.0713749" lon="-105.229789">
  <ele>1583.0</ele>
  <time>2026-08-28T17:51:16Z</time>
  <course>0.0</course>
  <speed>0.0</speed>
  <fix>3d</fix>
</trkpt>
<trkpt lat="40.071375" lon="-105.229789">
  <ele>1583.01</ele>
  <time>2026-08-28T17:51:16Z</time>
  <course>247.43</course>
  <speed>0.02</speed>
  <fix>3d</fix>
</trkpt>
<trkpt lat="40.0713749" lon="-105.229789">
  <ele>1583.0</ele>
  <time>2026-08-28T17:51:16Z</time>
  <course>0.0</course>
  <speed>0.0</speed>
  <fix>3d</fix>
</trkpt>
<trkpt lat="40.071375" lon="-105.229789">
  <ele>1583.01</ele>
  <time>2026-08-28T17:51:16Z</time>
  <course>247.43</course>
  <speed>0.02</speed>
  <fix>3d</fix>
</trkpt>
<trkpt lat="40.0713749" lon="-105.229789">
  <ele>1583.0</ele>
  <time>2026-08-28T17:51:16Z</time>
  <course>0.0</course>
  <speed>0.0</speed>
  <fix>3d</fix>
</trkpt>
<trkpt lat="40.071375" lon="-105.229789">
  <ele>1583.01</ele>
  <time>2026-08-28T17:51:16Z</time>
  <course>247.43</course>
  <speed>0.02</speed>
  <fix>3d</fix>
</trkpt>
<trkpt lat="40.0713749" lon="-105.229789">
  <ele>1583.0</ele>
  <time>2026-08-28T17:51:16Z</time>
  <course>0.0</course>
  <speed>0.0</speed>
  <fix>3d</fix>
</trkpt>
<trkpt lat="40.071375" lon="-105.229789">
  <ele>1583.01</ele>
  <time>2026-08-28T17:51:16Z</time>
  <course>247.42</course>
  <speed>0.02</speed>
  <fix>3d</fix>
</trkpt>
<trkpt lat="40.0713749" lon="-105.229789">
  <ele>1583.0</ele>
  <time>2026-08-28T17:51:16Z</time>
  <course>0.0</course>
  <speed>0.0</speed>
  <fix>3d</fix>
</trkpt>
<trkpt lat="40.071375" lon="-105.229789">
  <ele>1583.01</ele>
  <time>2026-08-28T17:51:16Z</time>
  <course>247.42</course>
  <speed>0.02</speed>
  <fix>3d</fix>
</trkpt>
<trkpt lat="40.0713749" lon="-105.229789">
  <ele>1583.0</ele>
  <time>2026-08-28T17:51:16Z</time>
  <course>0.0</course>
  <speed>0.0</speed>
  <fix>3d</fix>
</trkpt>
<trkpt lat="40.071375" lon="-105.229789">
  <ele>1583.02</ele>
  <time>2026-08-28T17:51:16Z</time>
  <course>247.42</course>
  <speed>0.02</speed>
  <fix>3d</fix>
</trkpt>
<trkpt lat="40.0713749" lon="-105.229789">
  <ele>1583.0</ele>
  <time>2026-08-28T17:51:16Z</time>
  <course>0.0</course>
  <speed>0.0</speed>
  <fix>3d</fix>
</trkpt>
<trkpt lat="40.071375" lon="-105.229789">
  <ele>1583.01</ele>
  <time>2026-08-28T17:51:16Z</time>
  <course>247.42</course>
  <speed>0.02</speed>
  <fix>3d</fix>
</trkpt>
<trkpt lat="40.0713749" lon="-105.229789">
  <ele>1583.0</ele>
  <time>2026-08-28T17:51:16Z</time>
  <course>0.0</course>
  <speed>0.0</speed>
  <fix>3d</fix>
</trkpt>
<trkpt lat="40.071375" lon="-105.229789">
  <ele>1583.01</ele>
  <time>2026-08-28T17:51:16Z</time>
  <course>247.42</course>
  <speed>0.02</speed>
  <fix>3d</fix>
</trkpt>
<trkpt lat="40.0713749" lon="-105.229789">
  <ele>1583.0</ele>
  <time>2026-08-28T17:51:16Z</time>
  <course>0.0</course>
  <speed>0.0</speed>
  <fix>3d</fix>
</trkpt>
<trkpt lat="40.071375" lon="-105.229789">
  <ele>1583.01</ele>
  <time>2026-08-28T17:51:16Z</time>
  <course>247.41</course>
  <speed>0.02</speed>
  <fix>3d</fix>
</trkpt>
<trkpt lat="40.0713749" lon="-105.229789">
  <ele>1583.0</ele>
  <time>2026-08-28T17:51:16Z</time>
  <course>0.0</course>
  <speed>0.0</speed>
  <fix>3d</fix>
</trkpt>
<trkpt lat="40.071375" lon="-105.229789">
  <ele>1583.01</ele>
  <time>2026-08-28T17:51:16Z</time>
  <course>247.41</course>
  <speed>0.02</speed>
  <fix>3d</fix>
</trkpt>
<trkpt lat="40.0713749" lon="-105.229789">
  <ele>1583.0</ele>
  <time>2026-08-28T17:51:16Z</time>
  <course>0.0</course>
  <speed>0.0</speed>
  <fix>3d</fix>
</trkpt>
<trkpt lat="40.071375" lon="-105.229789">
  <ele>1583.01</ele>
  <time>2026-08-28T17:51:16Z</time>
  <course>247.41</course>
  <speed>0.02</speed>
  <fix>3d</fix>
</trkpt>
<trkpt lat="40.0713749" lon="-105.229789">
  <ele>1583.0</ele>
  <time>2026-08-28T17:51:16Z</time>
  <course>0.0</course>
  <speed>0.0</speed>
  <fix>3d</fix>
</trkpt>
<trkpt lat="40.071375" lon="-105.229789">
  <ele>1583.01</ele>
  <time>2026-08-28T17:51:16Z</time>
  <course>247.41</course>
  <speed>0.02</speed>
  <fix>3d</fix>
</trkpt>
<trkpt lat="40.0713749" lon="-105.229789">
  <ele>1583.0</ele>
  <time>2026-08-28T17:51:16Z</time>
  <course>0.0</course>
  <speed>0.0</speed>
  <fix>3d</fix>
</trkpt>
<trkpt lat="40.071375" lon="-105.229789">
  <ele>1583.02</ele>
  <time>2026-08-28T17:51:16Z</time>
  <course>247.41</course>
  <speed>0.02</speed>
  <fix>3d</fix>
</trkpt>
<trkpt lat="40.0713749" lon="-105.229789">
  <ele>1583.0</ele>
  <time>2026-08-28T17:51:16Z</time>
  <course>0.0</course>
  <speed>0.0</speed>
  <fix>3d</fix>
</trkpt>
<trkpt lat="40.071375" lon="-105.229789">
  <ele>1583.02</ele>
  <time>2026-08-28T17:51:16Z</time>
  <course>247.4</course>
  <speed>0.02</speed>
  <fix>3d</fix>
</trkpt>
<trkpt lat="40.0713749" lon="-105.229789">
  <ele>1583.0</ele>
  <time>2026-08-28T17:51:16Z</time>
  <course>0.0</course>
  <speed>0.0</speed>
  <fix>3d</fix>
</trkpt>
<trkpt lat="40.071375" lon="-105.229789">
  <ele>1583.02</ele>
  <time>2026-08-28T17:51:16Z</time>
  <course>247.4</course>
  <speed>0.02</speed>
  <fix>3d</fix>
</trkpt>
<trkpt lat="40.0713749" lon="-105.229789">
  <ele>1583.0</ele>
  <time>2026-08-28T17:51:16Z</time>
  <course>0.0</course>
  <speed>0.0</speed>
  <fix>3d</fix>
</trkpt>
<trkpt lat="40.071375" lon="-105.229789">
  <ele>1583.02</ele>
  <time>2026-08-28T17:51:16Z</time>
  <course>247.4</course>
  <speed>0.02</speed>
  <fix>3d</fix>
</trkpt>
<trkpt lat="40.0713749" lon="-105.229789">
  <ele>1583.0</ele>
  <time>2026-08-28T17:51:16Z</time>
  <course>0.0</course>
  <speed>0.0</speed>
  <fix>3d</fix>
</trkpt>
<trkpt lat="40.071375" lon="-105.229789">
  <ele>1583.02</ele>
  <time>2026-08-28T17:51:16Z</time>
  <course>247.4</course>
  <speed>0.02</speed>
  <fix>3d</fix>
</trkpt>
<trkpt lat="40.0713749" lon="-105.229789">
  <ele>1583.0</ele>
  <time>2026-08-28T17:51:16Z</time>
  <course>0.0</course>
  <speed>0.0</speed>
  <fix>3d</fix>
</trkpt>
<trkpt lat="40.071375" lon="-105.229789">
  <ele>1583.02</ele>
  <time>2026-08-28T17:51:16Z</time>
  <course>247.4</course>
  <speed>0.02</speed>
  <fix>3d</fix>
</trkpt>
<trkpt lat="40.0713749" lon="-105.229789">
  <ele>1583.0</ele>
  <time>2026-08-28T17:51:16Z</time>
  <course>0.0</course>
  <speed>0.0</speed>
  <fix>3d</fix>
</trkpt>
<trkpt lat="40.071375" lon="-105.229789">
  <ele>1583.02</ele>
  <time>2026-08-28T17:51:16Z</time>
  <course>247.39</course>
  <speed>0.02</speed>
  <fix>3d</fix>
</trkpt>
<trkpt lat="40.0713749" lon="-105.229789">
  <ele>1583.0</ele>
  <time>2026-08-28T17:51:16Z</time>
  <course>0.0</course>
  <speed>0.0</speed>
  <fix>3d</fix>
</trkpt>
<trkpt lat="40.071375" lon="-105.229789">
  <ele>1583.03</ele>
  <time>2026-08-28T17:51:16Z</time>
  <course>247.39</course>
  <speed>0.01</speed>
  <fix>3d</fix>
</trkpt>
<trkpt lat="40.0713749" lon="-105.229789">
  <ele>1583.0</ele>
  <time>2026-08-28T17:51:16Z</time>
  <course>0.0</course>
  <speed>0.0</speed>
  <fix>3d</fix>
</trkpt>
<trkpt lat="40.071375" lon="-105.229789">
  <ele>1583.03</ele>
  <time>2026-08-28T17:51:16Z</time>
  <course>247.39</course>
  <speed>0.02</speed>
  <fix>3d</fix>
</trkpt>
<trkpt lat="40.0713749" lon="-105.229789">
  <ele>1583.0</ele>
  <time>2026-08-28T17:51:16Z</time>
  <course>0.0</course>
  <speed>0.0</speed>
  <fix>3d</fix>
</trkpt>
<trkpt lat="40.071375" lon="-105.229789">
  <ele>1583.03</ele>
  <time>2026-08-28T17:51:16Z</time>
  <course>247.39</course>
  <speed>0.01</speed>
  <fix>3d</fix>
</trkpt>
<trkpt lat="40.0713749" lon="-105.229789">
  <ele>1583.0</ele>
  <time>2026-08-28T17:51:16Z</time>
  <course>0.0</course>
  <speed>0.0</speed>
  <fix>3d</fix>
</trkpt>
<trkpt lat="40.071375" lon="-105.229789">
  <ele>1583.03</ele>
  <time>2026-08-28T17:51:16Z</time>
  <course>247.39</course>
  <speed>0.01</speed>
  <fix>3d</fix>
</trkpt>
<trkpt lat="40.0713749" lon="-105.229789">
  <ele>1583.0</ele>
  <time>2026-08-28T17:51:16Z</time>
  <course>0.0</course>
  <speed>0.0</speed>
  <fix>3d</fix>
</trkpt>
<trkpt lat="40.071375" lon="-105.229789">
  <ele>1583.04</ele>
  <time>2026-08-28T17:51:16Z</time>
  <course>247.38</course>
  <speed>0.01</speed>
  <fix>3d</fix>
</trkpt>
<trkpt lat="40.0713749" lon="-105.229789">
  <ele>1583.0</ele>
  <time>2026-08-28T17:51:16Z</time>
  <course>0.0</course>
  <speed>0.0</speed>
  <fix>3d</fix>
</trkpt>
<trkpt lat="40.071375" lon="-105.229789">
  <ele>1583.04</ele>
  <time>2026-08-28T17:51:16Z</time>
  <course>247.38</course>
  <speed>0.01</speed>
  <fix>3d</fix>
</trkpt>
<trkpt lat="40.0713749" lon="-105.229789">
  <ele>1583.0</ele>
  <time>2026-08-28T17:51:16Z</time>
  <course>0.0</course>
  <speed>0.0</speed>
  <fix>3d</fix>
</trkpt>
<trkpt lat="40.071375" lon="-105.229789">
  <ele>1583.05</ele>
  <time>2026-08-28T17:51:16Z</time>
  <course>247.38</course>
  <speed>0.01</speed>
  <fix>3d</fix>
</trkpt>
<trkpt lat="40.0713749" lon="-105.229789">
  <ele>1583.0</ele>
  <time>2026-08-28T17:51:16Z</time>
  <course>0.0</course>
  <speed>0.0</speed>
  <fix>3d</fix>
</trkpt>
<trkpt lat="40.071375" lon="-105.229789">
  <ele>1583.05</ele>
  <time>2026-08-28T17:51:16Z</time>
  <course>247.38</course>
  <speed>0.01</speed>
  <fix>3d</fix>
</trkpt>
<trkpt lat="40.0713749" lon="-105.229789">
  <ele>1583.0</ele>
  <time>2026-08-28T17:51:16Z</time>
  <course>0.0</course>
  <speed>0.0</speed>
  <fix>3d</fix>
</trkpt>
<trkpt lat="40.071375" lon="-105.229789">
  <ele>1583.05</ele>
  <time>2026-08-28T17:51:16Z</time>
  <course>247.38</course>
  <speed>0.01</speed>
  <fix>3d</fix>
</trkpt>
<trkpt lat="40.0713749" lon="-105.229789">
  <ele>1583.0</ele>
  <time>2026-08-28T17:51:16Z</time>
  <course>0.0</course>
  <speed>0.0</speed>
  <fix>3d</fix>
</trkpt>
<trkpt lat="40.071375" lon="-105.229789">
  <ele>1583.05</ele>
  <time>2026-08-28T17:51:16Z</time>
  <course>247.38</course>
  <speed>0.01</speed>
  <fix>3d</fix>
</trkpt>
<trkpt lat="40.0713749" lon="-105.229789">
  <ele>1583.0</ele>
  <time>2026-08-28T17:51:16Z</time>
  <course>0.0</course>
  <speed>0.0</speed>
  <fix>3d</fix>
</trkpt>
<trkpt lat="40.071375" lon="-105.229789">
  <ele>1583.05</ele>
  <time>2026-08-28T17:51:16Z</time>
  <course>247.37</course>
  <speed>0.01</speed>
  <fix>3d</fix>
</trkpt>
<trkpt lat="40.0713749" lon="-105.229789">
  <ele>1583.0</ele>
  <time>2026-08-28T17:51:16Z</time>
  <course>0.0</course>
  <speed>0.0</speed>
  <fix>3d</fix>
</trkpt>
<trkpt lat="40.071375" lon="-105.229789">
  <ele>1583.06</ele>
  <time>2026-08-28T17:51:16Z</time>
  <course>247.37</course>
  <speed>0.01</speed>
  <fix>3d</fix>
</trkpt>
<trkpt lat="40.0713749" lon="-105.229789">
  <ele>1583.0</ele>
  <time>2026-08-28T17:51:16Z</time>
  <course>0.0</course>
  <speed>0.0</speed>
  <fix>3d</fix>
</trkpt>
<trkpt lat="40.071375" lon="-105.229789">
  <ele>1583.06</ele>
  <time>2026-08-28T17:51:16Z</time>
  <course>247.37</course>
  <speed>0.01</speed>
  <fix>3d</fix>
</trkpt>
<trkpt lat="40.0713749" lon="-105.229789">
  <ele>1583.0</ele>
  <time>2026-08-28T17:51:16Z</time>
  <course>0.0</course>
  <speed>0.0</speed>
  <fix>3d</fix>
</trkpt>
<trkpt lat="40.071375" lon="-105.229789">
  <ele>1583.06</ele>
  <time>2026-08-28T17:51:16Z</time>
  <course>247.37</course>
  <speed>0.01</speed>
  <fix>3d</fix>
</trkpt>
<trkpt lat="40.0713749" lon="-105.229789">
  <ele>1583.0</ele>
  <time>2026-08-28T17:51:16Z</time>
  <course>0.0</course>
  <speed>0.0</speed>
  <fix>3d</fix>
</trkpt>
<trkpt lat="40.071375" lon="-105.229789">
  <ele>1583.06</ele>
  <time>2026-08-28T17:51:16Z</time>
  <course>247.37</course>
  <speed>0.01</speed>
  <fix>3d</fix>
</trkpt>
<trkpt lat="40.0713749" lon="-105.229789">
  <ele>1583.0</ele>
  <time>2026-08-28T17:51:16Z</time>
  <course>0.0</course>
  <speed>0.0</speed>
  <fix>3d</fix>
</trkpt>
<trkpt lat="40.071375" lon="-105.229789">
  <ele>1583.06</ele>
  <time>2026-08-28T17:51:16Z</time>
  <course>247.37</course>
  <speed>0.01</speed>
  <fix>3d</fix>
</trkpt>
<trkpt lat="40.0713749" lon="-105.229789">
  <ele>1583.0</ele>
  <time>2026-08-28T17:51:16Z</time>
  <course>0.0</course>
  <speed>0.0</speed>
  <fix>3d</fix>
</trkpt>
<trkpt lat="40.071375" lon="-105.229789">
  <ele>1583.06</ele>
  <time>2026-08-28T17:51:16Z</time>
  <course>247.36</course>
  <speed>0.01</speed>
  <fix>3d</fix>
</trkpt>
<trkpt lat="40.0713749" lon="-105.229789">
  <ele>1583.0</ele>
  <time>2026-08-28T17:51:16Z</time>
  <course>0.0</course>
  <speed>0.0</speed>
  <fix>3d</fix>
</trkpt>
<trkpt lat="40.071375" lon="-105.229789">
  <ele>1583.06</ele>
  <time>2026-08-28T17:51:16Z</time>
  <course>247.36</course>
  <speed>0.01</speed>
  <fix>3d</fix>
</trkpt>
<trkpt lat="40.0713749" lon="-105.229789">
  <ele>1583.0</ele>
  <time>2026-08-28T17:51:16Z</time>
  <course>0.0</course>
  <speed>0.0</speed>
  <fix>3d</fix>
</trkpt>
<trkpt lat="40.071375" lon="-105.229789">
  <ele>1583.06</ele>
  <time>2026-08-28T17:51:16Z</time>
  <course>247.36</course>
  <speed>0.01</speed>
  <fix>3d</fix>
</trkpt>
<trkpt lat="40.0713749" lon="-105.229789">
  <ele>1583.0</ele>
  <time>2026-08-28T17:51:16Z</time>
  <course>0.0</course>
  <speed>0.0</speed>
  <fix>3d</fix>
</trkpt>
<trkpt lat="40.071375" lon="-105.229789">
  <ele>1583.06</ele>
  <time>2026-08-28T17:51:16Z</time>
  <course>247.36</course>
  <speed>0.01</speed>
  <fix>3d</fix>
</trkpt>
<trkpt lat="40.0713749" lon="-105.229789">
  <ele>1583.0</ele>
  <time>2026-08-28T17:51:16Z</time>
  <course>0.0</course>
  <speed>0.0</speed>
  <fix>3d</fix>
</trkpt>
<trkpt lat="40.071375" lon="-105.229789">
  <ele>1583.06</ele>
  <time>2026-08-28T17:51:16Z</time>
  <course>247.36</course>
  <speed>0.01</speed>
  <fix>3d</fix>
</trkpt>
<trkpt lat="40.0713749" lon="-105.229789">
  <ele>1583.0</ele>
  <time>2026-08-28T17:51:16Z</time>
  <course>0.0</course>
  <speed>0.0</speed>
  <fix>3d</fix>
</trkpt>
<trkpt lat="40.071375" lon="-105.229789">
  <ele>1583.05</ele>
  <time>2026-08-28T17:51:16Z</time>
  <course>247.36</course>
  <speed>0.01</speed>
  <fix>3d</fix>
</trkpt>
<trkpt lat="40.0713749" lon="-105.229789">
  <ele>1583.0</ele>
  <time>2026-08-28T17:51:16Z</time>
  <course>0.0</course>
  <speed>0.0</speed>
  <fix>3d</fix>
</trkpt>
<trkpt lat="40.071375" lon="-105.229789">
  <ele>1583.05</ele>
  <time>2026-08-28T17:51:16Z</time>
  <course>247.35</course>
  <speed>0.01</speed>
  <fix>3d</fix>
</trkpt>
<trkpt lat="40.0713749" lon="-105.229789">
  <ele>1583.0</ele>
  <time>2026-08-28T17:51:16Z</time>
  <course>0.0</course>
  <speed>0.0</speed>
  <fix>3d</fix>
</trkpt>
<trkpt lat="40.071375" lon="-105.229789">
  <ele>1583.04</ele>
  <time>2026-08-28T17:51:16Z</time>
  <course>247.35</course>
  <speed>0.01</speed>
  <fix>3d</fix>
</trkpt>
<trkpt lat="40.0713749" lon="-105.229789">
  <ele>1583.0</ele>
  <time>2026-08-28T17:51:16Z</time>
  <course>0.0</course>
  <speed>0.0</speed>
  <fix>3d</fix>
</trkpt>
<trkpt lat="40.071375" lon="-105.229789">
  <ele>1583.04</ele>
  <time>2026-08-28T17:51:16Z</time>
  <course>247.35</course>
  <speed>0.01</speed>
  <fix>3d</fix>
</trkpt>
<trkpt lat="40.0713749" lon="-105.229789">
  <ele>1583.0</ele>
  <time>2026-08-28T17:51:16Z</time>
  <course>0.0</course>
  <speed>0.0</speed>
  <fix>3d</fix>
</trkpt>
<trkpt lat="40.071375" lon="-105.229789">
  <ele>1583.04</ele>
  <time>2026-08-28T17:51:16Z</time>
  <course>247.35</course>
  <speed>0.01</speed>
  <fix>3d</fix>
</trkpt>
<trkpt lat="40.0713749" lon="-105.229789">
  <ele>1583.0</ele>
  <time>2026-08-28T17:51:16Z</time>
  <course>0.0</course>
  <speed>0.0</speed>
  <fix>3d</fix>
</trkpt>
<trkpt lat="40.071375" lon="-105.229789">
  <ele>1583.03</ele>
  <time>2026-08-28T17:51:16Z</time>
  <course>247.35</course>
  <speed>0.01</speed>
  <fix>3d</fix>
</trkpt>
<trkpt lat="40.0713749" lon="-105.229789">
  <ele>1583.0</ele>
  <time>2026-08-28T17:51:16Z</time>
  <course>0.0</course>
  <speed>0.0</speed>
  <fix>3d</fix>
</trkpt>
<trkpt lat="40.071375" lon="-105.229789">
  <ele>1583.03</ele>
  <time>2026-08-28T17:51:16Z</time>
  <course>247.35</course>
  <speed>0.01</speed>
  <fix>3d</fix>
</trkpt>
<trkpt lat="40.0713749" lon="-105.229789">
  <ele>1583.0</ele>
  <time>2026-08-28T17:51:16Z</time>
  <course>0.0</course>
  <speed>0.0</speed>
  <fix>3d</fix>
</trkpt>
<trkpt lat="40.071375" lon="-105.229789">
  <ele>1583.02</ele>
  <time>2026-08-28T17:51:16Z</time>
  <course>247.34</course>
  <speed>0.01</speed>
  <fix>3d</fix>
</trkpt>
<trkpt lat="40.0713749" lon="-105.229789">
  <ele>1583.0</ele>
  <time>2026-08-28T17:51:16Z</time>
  <course>0.0</course>
  <speed>0.0</speed>
  <fix>3d</fix>
</trkpt>
<trkpt lat="40.071375" lon="-105.229789">
  <ele>1583.02</ele>
  <time>2026-08-28T17:51:16Z</time>
  <course>247.34</course>
  <speed>0.01</speed>
  <fix>3d</fix>
</trkpt>
<trkpt lat="40.0713749" lon="-105.229789">
  <ele>1583.0</ele>
  <time>2026-08-28T17:51:16Z</time>
  <course>0.0</course>
  <speed>0.0</speed>
  <fix>3d</fix>
</trkpt>
<trkpt lat="40.071375" lon="-105.229789">
  <ele>1583.02</ele>
  <time>2026-08-28T17:51:16Z</time>
  <course>247.34</course>
  <speed>0.01</speed>
  <fix>3d</fix>
</trkpt>
<trkpt lat="40.0713749" lon="-105.229789">
  <ele>1583.0</ele>
  <time>2026-08-28T17:51:16Z</time>
  <course>0.0</course>
  <speed>0.0</speed>
  <fix>3d</fix>
</trkpt>
<trkpt lat="40.071375" lon="-105.229789">
  <ele>1583.02</ele>
  <time>2026-08-28T17:51:16Z</time>
  <course>247.34</course>
  <speed>0.01</speed>
  <fix>3d</fix>
</trkpt>
<trkpt lat="40.0713749" lon="-105.229789">
  <ele>1583.0</ele>
  <time>2026-08-28T17:51:16Z</time>
  <course>0.0</course>
  <speed>0.0</speed>
  <fix>3d</fix>
</trkpt>
<trkpt lat="40.071375" lon="-105.229789">
  <ele>1583.01</ele>
  <time>2026-08-28T17:51:16Z</time>
  <course>247.34</course>
  <speed>0.01</speed>
  <fix>3d</fix>
</trkpt>
<trkpt lat="40.0713749" lon="-105.229789">
  <ele>1583.0</ele>
  <time>2026-08-28T17:51:16Z</time>
  <course>0.0</course>
  <speed>0.0</speed>
  <fix>3d</fix>
</trkpt>
<trkpt lat="40.071375" lon="-105.229789">
  <ele>1583.01</ele>
  <time>2026-08-28T17:51:16Z</time>
  <course>247.34</course>
  <speed>0.01</speed>
  <fix>3d</fix>
</trkpt>
<trkpt lat="40.0713749" lon="-105.229789">
  <ele>1583.0</ele>
  <time>2026-08-28T17:51:16Z</time>
  <course>0.0</course>
  <speed>0.0</speed>
  <fix>3d</fix>
</trkpt>
<trkpt lat="40.071375" lon="-105.229789">
  <ele>1583.01</ele>
  <time>2026-08-28T17:51:16Z</time>
  <course>247.33</course>
  <speed>0.02</speed>
  <fix>3d</fix>
</trkpt>
<trkpt lat="40.0713749" lon="-105.229789">
  <ele>1583.0</ele>
  <time>2026-08-28T17:51:16Z</time>
  <course>0.0</course>
  <speed>0.0</speed>
  <fix>3d</fix>
</trkpt>
<trkpt lat="40.071375" lon="-105.229789">
  <ele>1583.01</ele>
  <time>2026-08-28T17:51:16Z</time>
  <course>247.33</course>
  <speed>0.02</speed>
  <fix>3d</fix>
</trkpt>
<trkpt lat="40.0713749" lon="-105.229789">
  <ele>1583.0</ele>
  <time>2026-08-28T17:51:16Z</time>
  <course>0.0</course>
  <speed>0.0</speed>
  <fix>3d</fix>
</trkpt>
<trkpt lat="40.071375" lon="-105.229789">
  <ele>1583.01</ele>
  <time>2026-08-28T17:51:16Z</time>
  <course>247.33</course>
  <speed>0.02</speed>
  <fix>3d</fix>
</trkpt>
<trkpt lat="40.0713749" lon="-105.229789">
  <ele>1583.0</ele>
  <time>2026-08-28T17:51:16Z</time>
  <course>0.0</course>
  <speed>0.0</speed>
  <fix>3d</fix>
</trkpt>
<trkpt lat="40.071375" lon="-105.229789">
  <ele>1583.0</ele>
  <time>2026-08-28T17:51:16Z</time>
  <course>247.32</course>
  <speed>0.02</speed>
  <fix>3d</fix>
</trkpt>
<trkpt lat="40.0713749" lon="-105.229789">
  <ele>1583.0</ele>
  <time>2026-08-28T17:51:16Z</time>
  <course>0.0</course>
  <speed>0.0</speed>
  <fix>3d</fix>
</trkpt>
<trkpt lat="40.071375" lon="-105.229789">
  <ele>1583.0</ele>
  <time>2026-08-28T17:51:16Z</time>
  <course>247.32</course>
  <speed>0.02</speed>
  <fix>3d</fix>
</trkpt>
<trkpt lat="40.0713749" lon="-105.229789">
  <ele>1583.0</ele>
  <time>2026-08-28T17:51:16Z</time>
  <course>0.0</course>
  <speed>0.0</speed>
  <fix>3d</fix>
</trkpt>
<trkpt lat="40.071375" lon="-105.229789">
  <ele>1583.0</ele>
  <time>2026-08-28T17:51:16Z</time>
  <course>247.32</course>
  <speed>0.02</speed>
  <fix>3d</fix>
</trkpt>
<trkpt lat="40.0713749" lon="-105.229789">
  <ele>1583.0</ele>
  <time>2026-08-28T17:51:16Z</time>
  <course>0.0</course>
  <speed>0.0</speed>
  <fix>3d</fix>
</trkpt>
<trkpt lat="40.071375" lon="-105.229789">
  <ele>1582.99</ele>
  <time>2026-08-28T17:51:16Z</time>
  <course>247.32</course>
  <speed>0.02</speed>
  <fix>3d</fix>
</trkpt>
<trkpt lat="40.0713749" lon="-105.229789">
  <ele>1583.0</ele>
  <time>2026-08-28T17:51:16Z</time>
  <course>0.0</course>
  <speed>0.0</speed>
  <fix>3d</fix>
</trkpt>
<trkpt lat="40.071375" lon="-105.229789">
  <ele>1582.99</ele>
  <time>2026-08-28T17:51:16Z</time>
  <course>247.32</course>
  <speed>0.02</speed>
  <fix>3d</fix>
</trkpt>
<trkpt lat="40.0713749" lon="-105.229789">
  <ele>1583.0</ele>
  <time>2026-08-28T17:51:16Z</time>
  <course>0.0</course>
  <speed>0.0</speed>
  <fix>3d</fix>
</trkpt>
<trkpt lat="40.071375" lon="-105.229789">
  <ele>1582.98</ele>
  <time>2026-08-28T17:51:16Z</time>
  <course>247.32</course>
  <speed>0.02</speed>
  <fix>3d</fix>
</trkpt>
<trkpt lat="40.0713749" lon="-105.229789">
  <ele>1583.0</ele>
  <time>2026-08-28T17:51:16Z</time>
  <course>0.0</course>
  <speed>0.0</speed>
  <fix>3d</fix>
</trkpt>
<trkpt lat="40.071375" lon="-105.229789">
  <ele>1582.97</ele>
  <time>2026-08-28T17:51:16Z</time>
  <course>247.31</course>
  <speed>0.02</speed>
  <fix>3d</fix>
</trkpt>
<trkpt lat="40.0713749" lon="-105.229789">
  <ele>1583.0</ele>
  <time>2026-08-28T17:51:16Z</time>
  <course>0.0</course>
  <speed>0.0</speed>
  <fix>3d</fix>
</trkpt>
<trkpt lat="40.071375" lon="-105.229789">
  <ele>1582.97</ele>
  <time>2026-08-28T17:51:16Z</time>
  <course>247.31</course>
  <speed>0.02</speed>
  <fix>3d</fix>
</trkpt>
<trkpt lat="40.0713749" lon="-105.229789">
  <ele>1583.0</ele>
  <time>2026-08-28T17:51:16Z</time>
  <course>0.0</course>
  <speed>0.0</speed>
  <fix>3d</fix>
</trkpt>
<trkpt lat="40.071375" lon="-105.229789">
  <ele>1582.96</ele>
  <time>2026-08-28T17:51:16Z</time>
  <course>247.31</course>
  <speed>0.02</speed>
  <fix>3d</fix>
</trkpt>
<trkpt lat="40.0713749" lon="-105.229789">
  <ele>1583.0</ele>
  <time>2026-08-28T17:51:16Z</time>
  <course>0.0</course>
  <speed>0.0</speed>
  <fix>3d</fix>
</trkpt>
<trkpt lat="40.071375" lon="-105.229789">
  <ele>1582.96</ele>
  <time>2026-08-28T17:51:16Z</time>
  <course>247.31</course>
  <speed>0.02</speed>
  <fix>3d</fix>
</trkpt>
<trkpt lat="40.0713749" lon="-105.229789">
  <ele>1583.0</ele>
  <time>2026-08-28T17:51:16Z</time>
  <course>0.0</course>
  <speed>0.0</speed>
  <fix>3d</fix>
</trkpt>
<trkpt lat="40.071375" lon="-105.229789">
  <ele>1582.95</ele>
  <time>2026-08-28T17:51:16Z</time>
  <course>247.31</course>
  <speed>0.02</speed>
  <fix>3d</fix>
</trkpt>
<trkpt lat="40.0713749" lon="-105.229789">
  <ele>1583.0</ele>
  <time>2026-08-28T17:51:16Z</time>
  <course>0.0</course>
  <speed>0.0</speed>
  <fix>3d</fix>
</trkpt>
<trkpt lat="40.071375" lon="-105.229789">
  <ele>1582.95</ele>
  <time>2026-08-28T17:51:16Z</time>
  <course>247.31</course>
  <speed>0.02</speed>
  <fix>3d</fix>
</trkpt>
<trkpt lat="40.0713749" lon="-105.229789">
  <ele>1583.0</ele>
  <time>2026-08-28T17:51:16Z</time>
  <course>0.0</course>
  <speed>0.0</speed>
  <fix>3d</fix>
</trkpt>
<trkpt lat="40.071375" lon="-105.229789">
  <ele>1582.94</ele>
  <time>2026-08-28T17:51:16Z</time>
  <course>247.31</course>
  <speed>0.02</speed>
  <fix>3d</fix>
</trkpt>
<trkpt lat="40.0713749" lon="-105.229789">
  <ele>1583.0</ele>
  <time>2026-08-28T17:51:16Z</time>
  <course>0.0</course>
  <speed>0.0</speed>
  <fix>3d</fix>
</trkpt>
<trkpt lat="40.071375" lon="-105.229789">
  <ele>1582.93</ele>
  <time>2026-08-28T17:51:16Z</time>
  <course>247.31</course>
  <speed>0.02</speed>
  <fix>3d</fix>
</trkpt>
<trkpt lat="40.0713749" lon="-105.229789">
  <ele>1583.0</ele>
  <time>2026-08-28T17:51:16Z</time>
  <course>0.0</course>
  <speed>0.0</speed>
  <fix>3d</fix>
</trkpt>
<trkpt lat="40.071375" lon="-105.229789">
  <ele>1582.93</ele>
  <time>2026-08-28T17:51:16Z</time>
  <course>247.3</course>
  <speed>0.02</speed>
  <fix>3d</fix>
</trkpt>
<trkpt lat="40.0713749" lon="-105.229789">
  <ele>1583.0</ele>
  <time>2026-08-28T17:51:16Z</time>
  <course>0.0</course>
  <speed>0.0</speed>
  <fix>3d</fix>
</trkpt>
<trkpt lat="40.071375" lon="-105.229789">
  <ele>1582.92</ele>
  <time>2026-08-28T17:51:16Z</time>
  <course>247.3</course>
  <speed>0.02</speed>
  <fix>3d</fix>
</trkpt>
<trkpt lat="40.0713749" lon="-105.229789">
  <ele>1583.0</ele>
  <time>2026-08-28T17:51:16Z</time>
  <course>0.0</course>
  <speed>0.0</speed>
  <fix>3d</fix>
</trkpt>
<trkpt lat="40.071375" lon="-105.229789">
  <ele>1582.92</ele>
  <time>2026-08-28T17:51:16Z</time>
  <course>247.3</course>
  <speed>0.02</speed>
  <fix>3d</fix>
</trkpt>
<trkpt lat="40.0713749" lon="-105.229789">
  <ele>1583.0</ele>
  <time>2026-08-28T17:51:16Z</time>
  <course>0.0</course>
  <speed>0.0</speed>
  <fix>3d</fix>
</trkpt>
<trkpt lat="40.071375" lon="-105.229789">
  <ele>1582.91</ele>
  <time>2026-08-28T17:51:16Z</time>
  <course>247.3</course>
  <speed>0.02</speed>
  <fix>3d</fix>
</trkpt>
<trkpt lat="40.0713749" lon="-105.229789">
  <ele>1583.0</ele>
  <time>2026-08-28T17:51:16Z</time>
  <course>0.0</course>
  <speed>0.0</speed>
  <fix>3d</fix>
</trkpt>
<trkpt lat="40.071375" lon="-105.229789">
  <ele>1582.91</ele>
  <time>2026-08-28T17:51:16Z</time>
  <course>247.3</course>
  <speed>0.02</speed>
  <fix>3d</fix>
</trkpt>
<trkpt lat="40.0713749" lon="-105.229789">
  <ele>1583.0</ele>
  <time>2026-08-28T17:51:16Z</time>
  <course>0.0</course>
  <speed>0.0</speed>
  <fix>3d</fix>
</trkpt>
<trkpt lat="40.071375" lon="-105.229789">
  <ele>1582.91</ele>
  <time>2026-08-28T17:51:16Z</time>
  <course>247.3</course>
  <speed>0.02</speed>
  <fix>3d</fix>
</trkpt>
<trkpt lat="40.0713749" lon="-105.229789">
  <ele>1583.0</ele>
  <time>2026-08-28T17:51:16Z</time>
  <course>0.0</course>
  <speed>0.0</speed>
  <fix>3d</fix>
</trkpt>
<trkpt lat="40.071375" lon="-105.229789">
  <ele>1582.91</ele>
  <time>2026-08-28T17:51:16Z</time>
  <course>247.3</course>
  <speed>0.02</speed>
  <fix>3d</fix>
</trkpt>
<trkpt lat="40.0713749" lon="-105.229789">
  <ele>1583.0</ele>
  <time>2026-08-28T17:51:16Z</time>
  <course>0.0</course>
  <speed>0.0</speed>
  <fix>3d</fix>
</trkpt>
<trkpt lat="40.071375" lon="-105.229789">
  <ele>1582.91</ele>
  <time>2026-08-28T17:51:16Z</time>
  <course>247.29</course>
  <speed>0.02</speed>
  <fix>3d</fix>
</trkpt>
<trkpt lat="40.0713749" lon="-105.229789">
  <ele>1583.0</ele>
  <time>2026-08-28T17:51:16Z</time>
  <course>0.0</course>
  <speed>0.0</speed>
  <fix>3d</fix>
</trkpt>
<trkpt lat="40.071375" lon="-105.229789">
  <ele>1582.91</ele>
  <time>2026-08-28T17:51:16Z</time>
  <course>247.29</course>
  <speed>0.02</speed>
  <fix>3d</fix>
</trkpt>
<trkpt lat="40.0713749" lon="-105.229789">
  <ele>1583.0</ele>
  <time>2026-08-28T17:51:16Z</time>
  <course>0.0</course>
  <speed>0.0</speed>
  <fix>3d</fix>
</trkpt>
<trkpt lat="40.071375" lon="-105.229789">
  <ele>1582.9</ele>
  <time>2026-08-28T17:51:16Z</time>
  <course>247.29</course>
  <speed>0.02</speed>
  <fix>3d</fix>
</trkpt>
<trkpt lat="40.0713749" lon="-105.229789">
  <ele>1583.0</ele>
  <time>2026-08-28T17:51:16Z</time>
  <course>0.0</course>
  <speed>0.0</speed>
  <fix>3d</fix>
</trkpt>
<trkpt lat="40.071375" lon="-105.229789">
  <ele>1582.9</ele>
  <time>2026-08-28T17:51:16Z</time>
  <course>247.29</course>
  <speed>0.02</speed>
  <fix>3d</fix>
</trkpt>
<trkpt lat="40.0713749" lon="-105.229789">
  <ele>1583.0</ele>
  <time>2026-08-28T17:51:16Z</time>
  <course>0.0</course>
  <speed>0.0</speed>
  <fix>3d</fix>
</trkpt>
<trkpt lat="40.071375" lon="-105.229789">
  <ele>1582.9</ele>
  <time>2026-08-28T17:51:16Z</time>
  <course>247.29</course>
  <speed>0.02</speed>
  <fix>3d</fix>
</trkpt>
<trkpt lat="40.0713749" lon="-105.229789">
  <ele>1583.0</ele>
  <time>2026-08-28T17:51:16Z</time>
  <course>0.0</course>
  <speed>0.0</speed>
  <fix>3d</fix>
</trkpt>
<trkpt lat="40.071375" lon="-105.229789">
  <ele>1582.9</ele>
  <time>2026-08-28T17:51:16Z</time>
  <course>247.29</course>
  <speed>0.02</speed>
  <fix>3d</fix>
</trkpt>
<trkpt lat="40.0713749" lon="-105.229789">
  <ele>1583.0</ele>
  <time>2026-08-28T17:51:16Z</time>
  <course>0.0</course>
  <speed>0.0</speed>
  <fix>3d</fix>
</trkpt>
<trkpt lat="40.071375" lon="-105.229789">
  <ele>1582.89</ele>
  <time>2026-08-28T17:51:16Z</time>
  <course>247.29</course>
  <speed>0.02</speed>
  <fix>3d</fix>
</trkpt>
<trkpt lat="40.0713749" lon="-105.229789">
  <ele>1583.0</ele>
  <time>2026-08-28T17:51:16Z</time>
  <course>0.0</course>
  <speed>0.0</speed>
  <fix>3d</fix>
</trkpt>
<trkpt lat="40.071375" lon="-105.229789">
  <ele>1582.9</ele>
  <time>2026-08-28T17:51:16Z</time>
  <course>247.28</course>
  <speed>0.02</speed>
  <fix>3d</fix>
</trkpt>
<trkpt lat="40.0713749" lon="-105.229789">
  <ele>1583.0</ele>
  <time>2026-08-28T17:51:16Z</time>
  <course>0.0</course>
  <speed>0.0</speed>
  <fix>3d</fix>
</trkpt>
<trkpt lat="40.071375" lon="-105.229789">
  <ele>1582.9</ele>
  <time>2026-08-28T17:51:16Z</time>
  <course>247.28</course>
  <speed>0.02</speed>
  <fix>3d</fix>
</trkpt>
<trkpt lat="40.0713749" lon="-105.229789">
  <ele>1583.0</ele>
  <time>2026-08-28T17:51:16Z</time>
  <course>0.0</course>
  <speed>0.0</speed>
  <fix>3d</fix>
</trkpt>
<trkpt lat="40.071375" lon="-105.229789">
  <ele>1582.9</ele>
  <time>2026-08-28T17:51:16Z</time>
  <course>247.28</course>
  <speed>0.02</speed>
  <fix>3d</fix>
</trkpt>
<trkpt lat="40.0713749" lon="-105.229789">
  <ele>1583.0</ele>
  <time>2026-08-28T17:51:16Z</time>
  <course>0.0</course>
  <speed>0.0</speed>
  <fix>3d</fix>
</trkpt>
<trkpt lat="40.071375" lon="-105.229789">
  <ele>1582.91</ele>
  <time>2026-08-28T17:51:16Z</time>
  <course>247.28</course>
  <speed>0.02</speed>
  <fix>3d</fix>
</trkpt>
<trkpt lat="40.0713749" lon="-105.229789">
  <ele>1583.0</ele>
  <time>2026-08-28T17:51:16Z</time>
  <course>0.0</course>
  <speed>0.0</speed>
  <fix>3d</fix>
</trkpt>
<trkpt lat="40.071375" lon="-105.229789">
  <ele>1582.92</ele>
  <time>2026-08-28T17:51:16Z</time>
  <course>247.28</course>
  <speed>0.02</speed>
  <fix>3d</fix>
</trkpt>
<trkpt lat="40.0713749" lon="-105.229789">
  <ele>1583.0</ele>
  <time>2026-08-28T17:51:16Z</time>
  <course>0.0</course>
  <speed>0.0</speed>
  <fix>3d</fix>
</trkpt>
<trkpt lat="40.071375" lon="-105.229789">
  <ele>1582.93</ele>
  <time>2026-08-28T17:51:16Z</time>
  <course>247.28</course>
  <speed>0.02</speed>
  <fix>3d</fix>
</trkpt>
<trkpt lat="40.0713749" lon="-105.229789">
  <ele>1583.0</ele>
  <time>2026-08-28T17:51:16Z</time>
  <course>0.0</course>
  <speed>0.0</speed>
  <fix>3d</fix>
</trkpt>
<trkpt lat="40.071375" lon="-105.2297889">
  <ele>1582.93</ele>
  <time>2026-08-28T17:51:16Z</time>
  <course>247.28</course>
  <speed>0.02</speed>
  <fix>3d</fix>
</trkpt>
<trkpt lat="40.0713749" lon="-105.229789">
  <ele>1583.0</ele>
  <time>2026-08-28T17:51:16Z</time>
  <course>0.0</course>
  <speed>0.0</speed>
  <fix>3d</fix>
</trkpt>
<trkpt lat="40.071375" lon="-105.229789">
  <ele>1582.94</ele>
  <time>2026-08-28T17:51:16Z</time>
  <course>247.28</course>
  <speed>0.02</speed>
  <fix>3d</fix>
</trkpt>
<trkpt lat="40.0713749" lon="-105.229789">
  <ele>1583.0</ele>
  <time>2026-08-28T17:51:16Z</time>
  <course>0.0</course>
  <speed>0.0</speed>
  <fix>3d</fix>
</trkpt>
<trkpt lat="40.071375" lon="-105.2297889">
  <ele>1582.95</ele>
  <time>2026-08-28T17:51:16Z</time>
  <course>247.28</course>
  <speed>0.02</speed>
  <fix>3d</fix>
</trkpt>
<trkpt lat="40.0713749" lon="-105.229789">
  <ele>1583.0</ele>
  <time>2026-08-28T17:51:16Z</time>
  <course>0.0</course>
  <speed>0.0</speed>
  <fix>3d</fix>
</trkpt>
<trkpt lat="40.071375" lon="-105.229789">
  <ele>1582.95</ele>
  <time>2026-08-28T17:51:16Z</time>
  <course>247.27</course>
  <speed>0.02</speed>
  <fix>3d</fix>
</trkpt>
<trkpt lat="40.0713749" lon="-105.229789">
  <ele>1583.0</ele>
  <time>2026-08-28T17:51:16Z</time>
  <course>0.0</course>
  <speed>0.0</speed>
  <fix>3d</fix>
</trkpt>
<trkpt lat="40.071375" lon="-105.229789">
  <ele>1582.96</ele>
  <time>2026-08-28T17:51:16Z</time>
  <course>247.27</course>
  <speed>0.02</speed>
  <fix>3d</fix>
</trkpt>
<trkpt lat="40.0713749" lon="-105.229789">
  <ele>1583.0</ele>
  <time>2026-08-28T17:51:16Z</time>
  <course>0.0</course>
  <speed>0.0</speed>
  <fix>3d</fix>
</trkpt>
<trkpt lat="40.071375" lon="-105.229789">
  <ele>1582.97</ele>
  <time>2026-08-28T17:51:16Z</time>
  <course>247.27</course>
  <speed>0.02</speed>
  <fix>3d</fix>
</trkpt>
<trkpt lat="40.0713749" lon="-105.229789">
  <ele>1583.0</ele>
  <time>2026-08-28T17:51:16Z</time>
  <course>0.0</course>
  <speed>0.0</speed>
  <fix>3d</fix>
</trkpt>
<trkpt lat="40.071375" lon="-105.229789">
  <ele>1582.97</ele>
  <time>2026-08-28T17:51:16Z</time>
  <course>247.27</course>
  <speed>0.02</speed>
  <fix>3d</fix>
</trkpt>
<trkpt lat="40.0713749" lon="-105.229789">
  <ele>1583.0</ele>
  <time>2026-08-28T17:51:16Z</time>
  <course>0.0</course>
  <speed>0.0</speed>
  <fix>3d</fix>
</trkpt>
<trkpt lat="40.071375" lon="-105.229789">
  <ele>1582.98</ele>
  <time>2026-08-28T17:51:16Z</time>
  <course>247.27</course>
  <speed>0.02</speed>
  <fix>3d</fix>
</trkpt>
<trkpt lat="40.0713749" lon="-105.229789">
  <ele>1583.0</ele>
  <time>2026-08-28T17:51:16Z</time>
  <course>0.0</course>
  <speed>0.0</speed>
  <fix>3d</fix>
</trkpt>
<trkpt lat="40.071375" lon="-105.229789">
  <ele>1582.98</ele>
  <time>2026-08-28T17:51:16Z</time>
  <course>247.27</course>
  <speed>0.02</speed>
  <fix>3d</fix>
</trkpt>
<trkpt lat="40.0713749" lon="-105.229789">
  <ele>1583.0</ele>
  <time>2026-08-28T17:51:16Z</time>
  <course>0.0</course>
  <speed>0.0</speed>
  <fix>3d</fix>
</trkpt>
<trkpt lat="40.071375" lon="-105.229789">
  <ele>1582.99</ele>
  <time>2026-08-28T17:51:16Z</time>
  <course>247.27</course>
  <speed>0.02</speed>
  <fix>3d</fix>
</trkpt>
<trkpt lat="40.0713749" lon="-105.229789">
  <ele>1583.0</ele>
  <time>2026-08-28T17:51:16Z</time>
  <course>0.0</course>
  <speed>0.0</speed>
  <fix>3d</fix>
</trkpt>
<trkpt lat="40.071375" lon="-105.229789">
  <ele>1583.0</ele>
  <time>2026-08-28T17:51:16Z</time>
  <course>247.27</course>
  <speed>0.02</speed>
  <fix>3d</fix>
</trkpt>
<trkpt lat="40.0713749" lon="-105.229789">
  <ele>1583.0</ele>
  <time>2026-08-28T17:51:16Z</time>
  <course>0.0</course>
  <speed>0.0</speed>
  <fix>3d</fix>
</trkpt>
<trkpt lat="40.071375" lon="-105.229789">
  <ele>1583.01</ele>
  <time>2026-08-28T17:51:16Z</time>
  <course>247.26</course>
  <speed>0.01</speed>
  <fix>3d</fix>
</trkpt>
<trkpt lat="40.0713749" lon="-105.229789">
  <ele>1583.0</ele>
  <time>2026-08-28T17:51:16Z</time>
  <course>0.0</course>
  <speed>0.0</speed>
  <fix>3d</fix>
</trkpt>
<trkpt lat="40.071375" lon="-105.229789">
  <ele>1583.02</ele>
  <time>2026-08-28T17:51:16Z</time>
  <course>247.26</course>
  <speed>0.02</speed>
  <fix>3d</fix>
</trkpt>
<trkpt lat="40.0713749" lon="-105.229789">
  <ele>1583.0</ele>
  <time>2026-08-28T17:51:16Z</time>
  <course>246.0</course>
  <speed>0.01</speed>
  <fix>3d</fix>
</trkpt>
<trkpt lat="40.071375" lon="-105.229789">
  <ele>1583.03</ele>
  <time>2026-08-28T17:51:16Z</time>
  <course>247.26</course>
  <speed>0.06082762530298219</speed>
  <fix>3d</fix>
</trkpt>
<trkpt lat="40.0713749" lon="-105.229789">
  <ele>1583.0</ele>
  <time>2026-08-28T17:51:16Z</time>
  <course>246.0</course>
  <speed>0.01</speed>
  <fix>3d</fix>
</trkpt>
<trkpt lat="40.071375" lon="-105.2297891">
  <ele>1583.04</ele>
  <time>2026-08-28T17:51:16Z</time>
  <course>247.26</course>
  <speed>0.1264911064067352</speed>
  <fix>3d</fix>
</trkpt>
<trkpt lat="40.0713749" lon="-105.229789">
  <ele>1583.0</ele>
  <time>2026-08-28T17:51:16Z</time>
  <course>246.0</course>
  <speed>0.08</speed>
  <fix>3d</fix>
</trkpt>
<trkpt lat="40.0713749" lon="-105.2297893">
  <ele>1583.05</ele>
  <time>2026-08-28T17:51:16Z</time>
  <course>247.26</course>
  <speed>0.19924858845171275</speed>
  <fix>3d</fix>
</trkpt>
<trkpt lat="40.0713749" lon="-105.229789">
  <ele>1583.0</ele>
  <time>2026-08-28T17:51:16Z</time>
  <course>246.0</course>
  <speed>0.08</speed>
  <fix>3d</fix>
</trkpt>
<trkpt lat="40.0713748" lon="-105.2297896">
  <ele>1583.05</ele>
  <time>2026-08-28T17:51:16Z</time>
  <course>247.26</course>
  <speed>0.2785677655436824</speed>
  <fix>3d</fix>
</trkpt>
<trkpt lat="40.0713748" lon="-105.2297893">
  <ele>1583.0</ele>
  <time>2026-08-28T17:51:16Z</time>
  <course>246.0</course>
  <speed>0.2</speed>
  <fix>3d</fix>
</trkpt>
<trkpt lat="40.0713747" lon="-105.22979">
  <ele>1583.06</ele>
  <time>2026-08-28T17:51:16Z</time>
  <course>247.26</course>
  <speed>0.3769615364994153</speed>
  <fix>3d</fix>
</trkpt>
<trkpt lat="40.0713748" lon="-105.2297893">
  <ele>1583.0</ele>
  <time>2026-08-28T17:51:16Z</time>
  <course>246.0</course>
  <speed>0.2</speed>
  <fix>3d</fix>
</trkpt>
<trkpt lat="40.0713745" lon="-105.2297905">
  <ele>1583.06</ele>
  <time>2026-08-28T17:51:16Z</time>
  <course>247.26</course>
  <speed>0.4753945729601885</speed>
  <fix>3d</fix>
</trkpt>
<trkpt lat="40.0713747" lon="-105.22979">
  <ele>1583.0</ele>
  <time>2026-08-28T17:51:16Z</time>
  <course>245.99</course>
  <speed>0.36</speed>
  <fix>3d</fix>
</trkpt>
<trkpt lat="40.0713743" lon="-105.2297911">
  <ele>1583.07</ele>
  <time>2026-08-28T17:51:16Z</time>
  <course>247.25</course>
  <speed>0.58309518948453</speed>
  <fix>3d</fix>
</trkpt>
<trkpt lat="40.0713747" lon="-105.22979">
  <ele>1583.0</ele>
  <time>2026-08-28T17:51:16Z</time>
  <course>245.99</course>
  <speed>0.36</speed>
  <fix>3d</fix>
</trkpt>
<trkpt lat="40.0713741" lon="-105.2297918">
  <ele>1583.07</ele>
  <time>2026-08-28T17:51:16Z</time>
  <course>247.25</course>
  <speed>0.7038465741907111</speed>
  <fix>3d</fix>
</trkpt>
<trkpt lat="40.0713743" lon="-105.229791">
  <ele>1583.0</ele>
  <time>2026-08-28T17:51:16Z</time>
  <course>246.0</course>
  <speed>0.57</speed>
  <fix>3d</fix>
</trkpt>
<trkpt lat="40.0713738" lon="-105.2297927">
  <ele>1583.08</ele>
  <time>2026-08-28T17:51:16Z</time>
  <course>247.25</course>
  <speed>0.8207923001588161</speed>
  <fix>3d</fix>
</trkpt>
<trkpt lat="40.0713743" lon="-105.229791">
  <ele>1583.0</ele>
  <time>2026-08-28T17:51:16Z</time>
  <course>246.0</course>
  <speed>0.57</speed>
  <fix>3d</fix>
</trkpt>
<trkpt lat="40.0713735" lon="-105.2297937">
  <ele>1583.08</ele>
  <time>2026-08-28T17:51:16Z</time>
  <course>247.25</course>
  <speed>0.950789145920377</speed>
  <fix>3d</fix>
</trkpt>
<trkpt lat="40.0713739" lon="-105.2297924">
  <ele>1583.0</ele>
  <time>2026-08-28T17:51:16Z</time>
  <course>246.0</course>
  <speed>0.79</speed>
  <fix>3d</fix>
</trkpt>
<trkpt lat="40.0713731" lon="-105.2297948">
  <ele>1583.09</ele>
  <time>2026-08-28T17:51:16Z</time>
  <course>247.24</course>
  <speed>1.0715409464878138</speed>
  <fix>3d</fix>
</trkpt>
<trkpt lat="40.0713739" lon="-105.2297924">
  <ele>1583.0</ele>
  <time>2026-08-28T17:51:16Z</time>
  <course>246.0</course>
  <speed>0.79</speed>
  <fix>3d</fix>
</trkpt>
<trkpt lat="40.0713727" lon="-105.229796">
  <ele>1583.1</ele>
  <time>2026-08-28T17:51:16Z</time>
  <course>247.24</course>
  <speed>1.2054044964243331</speed>
  <fix>3d</fix>
</trkpt>
<trkpt lat="40.0713731" lon="-105.2297944">
  <ele>1583.0</ele>
  <time>2026-08-28T17:51:16Z</time>
  <course>246.0</course>
  <speed>1.04</speed>
  <fix>3d</fix>
</trkpt>
<trkpt lat="40.0713723" lon="-105.2297971">
  <ele>1583.1</ele>
  <time>2026-08-28T17:51:16Z</time>
  <course>247.24</course>
  <speed>1.3130879635424275</speed>
  <fix>3d</fix>
</trkpt>
<trkpt lat="40.0713731" lon="-105.2297944">
  <ele>1583.0</ele>
  <time>2026-08-28T17:51:16Z</time>
  <course>246.0</course>
  <speed>1.04</speed>
  <fix>3d</fix>
</trkpt>
<trkpt lat="40.0713718" lon="-105.2297986">
  <ele>1583.11</ele>
  <time>2026-08-28T17:51:16Z</time>
  <course>247.23</course>
  <speed>1.4430869689661814</speed>
  <fix>3d</fix>
</trkpt>
<trkpt lat="40.0713723" lon="-105.2297969">
  <ele>1583.0</ele>
  <time>2026-08-28T17:51:16Z</time>
  <course>246.0</course>
  <speed>1.29</speed>
  <fix>3d</fix>
</trkpt>
<trkpt lat="40.0713713" lon="-105.2298003">
  <ele>1583.12</ele>
  <time>2026-08-28T17:51:16Z</time>
  <course>247.23</course>
  <speed>1.5730861387730806</speed>
  <fix>3d</fix>
</trkpt>
<trkpt lat="40.0713723" lon="-105.2297969">
  <ele>1583.0</ele>
  <time>2026-08-28T17:51:16Z</time>
  <course>246.0</course>
  <speed>1.29</speed>
  <fix>3d</fix>
</trkpt>
<trkpt lat="40.0713707" lon="-105.2298021">
  <ele>1583.12</ele>
  <time>2026-08-28T17:51:16Z</time>
  <course>247.23</course>
  <speed>1.7069856472741651</speed>
  <fix>3d</fix>
</trkpt>
<trkpt lat="40.0713712" lon="-105.2297999">
  <ele>1583.0</ele>
  <time>2026-08-28T17:51:16Z</time>
  <course>246.0</course>
  <speed>1.55</speed>
  <fix>3d</fix>
</trkpt>
<trkpt lat="40.07137" lon="-105.229804">
  <ele>1583.13</ele>
  <time>2026-08-28T17:51:16Z</time>
  <course>247.22</course>
  <speed>1.8369812192834198</speed>
  <fix>3d</fix>
</trkpt>
<trkpt lat="40.0713712" lon="-105.2297999">
  <ele>1583.0</ele>
  <time>2026-08-28T17:51:16Z</time>
  <course>246.0</course>
  <speed>1.55</speed>
  <fix>3d</fix>
</trkpt>
<trkpt lat="40.0713693" lon="-105.2298061">
  <ele>1583.13</ele>
  <time>2026-08-28T17:51:16Z</time>
  <course>247.22</course>
  <speed>1.9669773765857095</speed>
  <fix>3d</fix>
</trkpt>
<trkpt lat="40.07137" lon="-105.2298035">
  <ele>1583.0</ele>
  <time>2026-08-28T17:51:16Z</time>
  <course>246.0</course>
  <speed>1.81</speed>
  <fix>3d</fix>
</trkpt>
<trkpt lat="40.0713685" lon="-105.2298083">
  <ele>1583.14</ele>
  <time>2026-08-28T17:51:16Z</time>
  <course>247.21</course>
  <speed>2.087773934122179</speed>
  <fix>3d</fix>
</trkpt>
<trkpt lat="40.07137" lon="-105.2298035">
  <ele>1583.0</ele>
  <time>2026-08-28T17:51:16Z</time>
  <course>246.0</course>
  <speed>1.81</speed>
  <fix>3d</fix>
</trkpt>
<trkpt lat="40.0713677" lon="-105.2298107">
  <ele>1583.14</ele>
  <time>2026-08-28T17:51:16Z</time>
  <course>247.21</course>
  <speed>2.2217110523198103</speed>
  <fix>3d</fix>
</trkpt>
<trkpt lat="40.0713686" lon="-105.2298077">
  <ele>1583.0</ele>
  <time>2026-08-28T17:51:16Z</time>
  <course>246.0</course>
  <speed>2.05</speed>
  <fix>3d</fix>
</trkpt>
<trkpt lat="40.0713669" lon="-105.2298132">
  <ele>1583.14</ele>
  <time>2026-08-28T17:51:16Z</time>
  <course>247.2</course>
  <speed>2.3425200105868895</speed>
  <fix>3d</fix>
</trkpt>
<trkpt lat="40.0713686" lon="-105.2298077">
  <ele>1583.0</ele>
  <time>2026-08-28T17:51:16Z</time>
  <course>246.0</course>
  <speed>2.05</speed>
  <fix>3d</fix>
</trkpt>
<trkpt lat="40.071366" lon="-105.2298158">
  <ele>1583.15</ele>
  <time>2026-08-28T17:51:16Z</time>
  <course>247.19</course>
  <speed>2.4593698379869586</speed>
  <fix>3d</fix>
</trkpt>
<trkpt lat="40.071367" lon="-105.2298124">
  <ele>1583.0</ele>
  <time>2026-08-28T17:51:16Z</time>
  <course>246.0</course>
  <speed>2.29</speed>
  <fix>3d</fix>
</trkpt>
<trkpt lat="40.0713649" lon="-105.2298191">
  <ele>1583.16</ele>
  <time>2026-08-28T17:51:16Z</time>
  <course>247.19</course>
  <speed>2.602498799231231</speed>
  <fix>3d</fix>
</trkpt>
<trkpt lat="40.071367" lon="-105.2298124">
  <ele>1583.0</ele>
  <time>2026-08-28T17:51:16Z</time>
  <course>246.0</course>
  <speed>2.29</speed>
  <fix>3d</fix>
</trkpt>
<trkpt lat="40.0713639" lon="-105.229822">
  <ele>1583.16</ele>
  <time>2026-08-28T17:51:16Z</time>
  <course>247.18</course>
  <speed>2.7141296947640505</speed>
  <fix>3d</fix>
</trkpt>
<trkpt lat="40.0713652" lon="-105.2298175">
  <ele>1583.0</ele>
  <time>2026-08-28T17:51:16Z</time>
  <course>246.0</course>
  <speed>2.52</speed>
  <fix>3d</fix>
</trkpt>
<trkpt lat="40.0713629" lon="-105.229825">
  <ele>1583.17</ele>
  <time>2026-08-28T17:51:16Z</time>
  <course>247.18</course>
  <speed>2.8217902119044926</speed>
  <fix>3d</fix>
</trkpt>
<trkpt lat="40.0713652" lon="-105.2298175">
  <ele>1583.0</ele>
  <time>2026-08-28T17:51:16Z</time>
  <course>246.0</course>
  <speed>2.52</speed>
  <fix>3d</fix>
</trkpt>
<trkpt lat="40.0713618" lon="-105.2298281">
  <ele>1583.18</ele>
  <time>2026-08-28T17:51:16Z</time>
  <course>247.17</course>
  <speed>2.933428028774526</speed>
  <fix>3d</fix>
</trkpt>
<trkpt lat="40.0713633" lon="-105.2298232">
  <ele>1583.0</ele>
  <time>2026-08-28T17:51:16Z</time>
  <course>246.0</course>
  <speed>2.74</speed>
  <fix>3d</fix>
</trkpt>
<trkpt lat="40.0713607" lon="-105.2298313">
  <ele>1583.19</ele>
  <time>2026-08-28T17:51:16Z</time>
  <course>247.17</course>
  <speed>3.031913587159106</speed>
  <fix>3d</fix>
</trkpt>
<trkpt lat="40.0713633" lon="-105.2298232">
  <ele>1583.0</ele>
  <time>2026-08-28T17:51:16Z</time>
  <course>246.0</course>
  <speed>2.74</speed>
  <fix>3d</fix>
</trkpt>
<trkpt lat="40.0713596" lon="-105.2298346">
  <ele>1583.19</ele>
  <time>2026-08-28T17:51:16Z</time>
  <course>247.16</course>
  <speed>3.139570034256283</speed>
  <fix>3d</fix>
</trkpt>
<trkpt lat="40.0713613" lon="-105.2298294">
  <ele>1583.0</ele>
  <time>2026-08-28T17:51:16Z</time>
  <course>246.0</course>
  <speed>2.96</speed>
  <fix>3d</fix>
</trkpt>
<trkpt lat="40.0713585" lon="-105.229838">
  <ele>1583.19</ele>
  <time>2026-08-28T17:51:16Z</time>
  <course>247.16</course>
  <speed>3.2380549717384355</speed>
  <fix>3d</fix>
</trkpt>
<trkpt lat="40.0713613" lon="-105.2298294">
  <ele>1583.0</ele>
  <time>2026-08-28T17:51:16Z</time>
  <course>246.0</course>
  <speed>2.96</speed>
  <fix>3d</fix>
</trkpt>
<trkpt lat="40.0713573" lon="-105.2298415">
  <ele>1583.2</ele>
  <time>2026-08-28T17:51:16Z</time>
  <course>247.15</course>
  <speed>3.3365401241405745</speed>
  <fix>3d</fix>
</trkpt>
<trkpt lat="40.071359" lon="-105.2298359">
  <ele>1583.0</ele>
  <time>2026-08-28T17:51:16Z</time>
  <course>246.0</course>
  <speed>3.16</speed>
  <fix>3d</fix>
</trkpt>
<trkpt lat="40.0713561" lon="-105.229845">
  <ele>1583.2</ele>
  <time>2026-08-28T17:51:16Z</time>
  <course>247.15</course>
  <speed>3.4350254729768745</speed>
  <fix>3d</fix>
</trkpt>
<trkpt lat="40.071359" lon="-105.2298359">
  <ele>1583.0</ele>
  <time>2026-08-28T17:51:16Z</time>
  <course>246.0</course>
  <speed>3.16</speed>
  <fix>3d</fix>
</trkpt>
<trkpt lat="40.0713548" lon="-105.2298487">
  <ele>1583.2</ele>
  <time>2026-08-28T17:51:16Z</time>
  <course>247.15</course>
  <speed>3.5335110018224083</speed>
  <fix>3d</fix>
</trkpt>
<trkpt lat="40.0713566" lon="-105.2298429">
  <ele>1583.0</ele>
  <time>2026-08-28T17:51:16Z</time>
  <course>246.0</course>
  <speed>3.36</speed>
  <fix>3d</fix>
</trkpt>
<trkpt lat="40.0713535" lon="-105.2298525">
  <ele>1583.2</ele>
  <time>2026-08-28T17:51:16Z</time>
  <course>247.14</course>
  <speed>3.6228303852098844</speed>
  <fix>3d</fix>
</trkpt>
<trkpt lat="40.0713566" lon="-105.2298429">
  <ele>1583.0</ele>
  <time>2026-08-28T17:51:16Z</time>
  <course>246.0</course>
  <speed>3.36</speed>
  <fix>3d</fix>
</trkpt>
<trkpt lat="40.0713524" lon="-105.2298556">
  <ele>1583.2</ele>
  <time>2026-08-28T17:51:16Z</time>
  <course>247.14</course>
  <speed>3.698986347636336</speed>
  <fix>3d</fix>
</trkpt>
<trkpt lat="40.0713541" lon="-105.2298504">
  <ele>1583.0</ele>
  <time>2026-08-28T17:51:16Z</time>
  <course>246.0</course>
  <speed>3.56</speed>
  <fix>3d</fix>
</trkpt>
<trkpt lat="40.0713511" lon="-105.2298596">
  <ele>1583.2</ele>
  <time>2026-08-28T17:51:16Z</time>
  <course>247.13</course>
  <speed>3.797472843879203</speed>
  <fix>3d</fix>
</trkpt>
<trkpt lat="40.0713541" lon="-105.2298504">
  <ele>1583.0</ele>
  <time>2026-08-28T17:51:16Z</time>
  <course>246.0</course>
  <speed>3.56</speed>
  <fix>3d</fix>
</trkpt>
<trkpt lat="40.0713497" lon="-105.2298637">
  <ele>1583.2</ele>
  <time>2026-08-28T17:51:16Z</time>
  <course>247.13</course>
  <speed>3.8959594453741433</speed>
  <fix>3d</fix>
</trkpt>
<trkpt lat="40.0713514" lon="-105.2298582">
  <ele>1583.0</ele>
  <time>2026-08-28T17:51:16Z</time>
  <course>246.0</course>
  <speed>3.76</speed>
  <fix>3d</fix>
</trkpt>
<trkpt lat="40.0713483" lon="-105.2298679">
  <ele>1583.2</ele>
  <time>2026-08-28T17:51:16Z</time>
  <course>247.12</course>
  <speed>3.994446144335908</speed>
  <fix>3d</fix>
</trkpt>
<trkpt lat="40.0713514" lon="-105.2298582">
  <ele>1583.0</ele>
  <time>2026-08-28T17:51:16Z</time>
  <course>246.0</course>
  <speed>3.76</speed>
  <fix>3d</fix>
</trkpt>
<trkpt lat="40.0713468" lon="-105.2298723">
  <ele>1583.2</ele>
  <time>2026-08-28T17:51:16Z</time>
  <course>247.12</course>
  <speed>4.092932933728575</speed>
  <fix>3d</fix>
</trkpt>
<trkpt lat="40.0713486" lon="-105.2298665">
  <ele>1583.0</ele>
  <time>2026-08-28T17:51:16Z</time>
  <course>246.0</course>
  <speed>3.95</speed>
  <fix>3d</fix>
</trkpt>
<trkpt lat="40.0713453" lon="-105.2298767">
  <ele>1583.2</ele>
  <time>2026-08-28T17:51:16Z</time>
  <course>247.12</course>
  <speed>4.191419807177516</speed>
  <fix>3d</fix>
</trkpt>
<trkpt lat="40.0713486" lon="-105.2298665">
  <ele>1583.0</ele>
  <time>2026-08-28T17:51:16Z</time>
  <course>246.0</course>
  <speed>3.95</speed>
  <fix>3d</fix>
</trkpt>
<trkpt lat="40.0713437" lon="-105.2298813">
  <ele>1583.2</ele>
  <time>2026-08-28T17:51:16Z</time>
  <course>247.11</course>
  <speed>4.280747598258976</speed>
  <fix>3d</fix>
</trkpt>
<trkpt lat="40.0713456" lon="-105.2298752">
  <ele>1583.0</ele>
  <time>2026-08-28T17:51:16Z</time>
  <course>246.0</course>
  <speed>4.14</speed>
  <fix>3d</fix>
</trkpt>
<trkpt lat="40.0713421" lon="-105.229886">
  <ele>1583.2</ele>
  <time>2026-08-28T17:51:16Z</time>
  <course>247.11</course>
  <speed>4.379235093027092</speed>
  <fix>3d</fix>
</trkpt>
<trkpt lat="40.0713456" lon="-105.2298752">
  <ele>1583.0</ele>
  <time>2026-08-28T17:51:16Z</time>
  <course>246.0</course>
  <speed>4.14</speed>
  <fix>3d</fix>
</trkpt>
<trkpt lat="40.0713405" lon="-105.2298908">
  <ele>1583.2</ele>
  <time>2026-08-28T17:51:16Z</time>
  <course>247.11</course>
  <speed>4.4777226354476225</speed>
  <fix>3d</fix>
</trkpt>
<trkpt lat="40.0713425" lon="-105.2298843">
  <ele>1583.0</ele>
  <time>2026-08-28T17:51:16Z</time>
  <course>246.0</course>
  <speed>4.34</speed>
  <fix>3d</fix>
</trkpt>
<trkpt lat="40.0713385" lon="-105.2298967">
  <ele>1583.21</ele>
  <time>2026-08-28T17:51:16Z</time>
  <course>247.1</course>
  <speed>4.598543247594829</speed>
  <fix>3d</fix>
</trkpt>
<trkpt lat="40.0713425" lon="-105.2298843">
  <ele>1583.0</ele>
  <time>2026-08-28T17:51:16Z</time>
  <course>246.0</course>
  <speed>4.34</speed>
  <fix>3d</fix>
</trkpt>
<trkpt lat="40.0713368" lon="-105.2299017">
  <ele>1583.21</ele>
  <time>2026-08-28T17:51:16Z</time>
  <course>247.1</course>
  <speed>4.697030977117353</speed>
  <fix>3d</fix>
</trkpt>
<trkpt lat="40.0713393" lon="-105.2298938">
  <ele>1583.0</ele>
  <time>2026-08-28T17:51:16Z</time>
  <course>246.0</course>
  <speed>4.53</speed>
  <fix>3d</fix>
</trkpt>
<trkpt lat="40.071335" lon="-105.2299068">
  <ele>1583.21</ele>
  <time>2026-08-28T17:51:16Z</time>
  <course>247.1</course>
  <speed>4.795518741491894</speed>
  <fix>3d</fix>
</trkpt>
<trkpt lat="40.0713393" lon="-105.2298938">
  <ele>1583.0</ele>
  <time>2026-08-28T17:51:16Z</time>
  <course>246.0</course>
  <speed>4.53</speed>
  <fix>3d</fix>
</trkpt>
<trkpt lat="40.0713333" lon="-105.229912">
  <ele>1583.21</ele>
  <time>2026-08-28T17:51:16Z</time>
  <course>247.09</course>
  <speed>4.894006538614349</speed>
  <fix>3d</fix>
</trkpt>
<trkpt lat="40.0713358" lon="-105.2299037">
  <ele>1583.0</ele>
  <time>2026-08-28T17:51:16Z</time>
  <course>246.0</course>
  <speed>4.73</speed>
  <fix>3d</fix>
</trkpt>
<trkpt lat="40.0713315" lon="-105.2299173">
  <ele>1583.2</ele>
  <time>2026-08-28T17:51:16Z</time>
  <course>247.09</course>
  <speed>4.992494366546646</speed>
  <fix>3d</fix>
</trkpt>
<trkpt lat="40.0713358" lon="-105.2299037">
  <ele>1583.0</ele>
  <time>2026-08-28T17:51:16Z</time>
  <course>246.0</course>
  <speed>4.73</speed>
  <fix>3d</fix>
</trkpt>
<trkpt lat="40.0713296" lon="-105.2299227">
  <ele>1583.2</ele>
  <time>2026-08-28T17:51:16Z</time>
  <course>247.09</course>
  <speed>5.090982223500688</speed>
  <fix>3d</fix>
</trkpt>
<trkpt lat="40.0713323" lon="-105.2299142">
  <ele>1583.0</ele>
  <time>2026-08-28T17:51:16Z</time>
  <course>246.0</course>
  <speed>4.92</speed>
  <fix>3d</fix>
</trkpt>
<trkpt lat="40.0713278" lon="-105.2299281">
  <ele>1583.2</ele>
  <time>2026-08-28T17:51:16Z</time>
  <course>247.08</course>
  <speed>5.167136537774089</speed>
  <fix>3d</fix>
</trkpt>
<trkpt lat="40.0713323" lon="-105.2299142">
  <ele>1583.0</ele>
  <time>2026-08-28T17:51:16Z</time>
  <course>246.0</course>
  <speed>4.92</speed>
  <fix>3d</fix>
</trkpt>
<trkpt lat="40.0713259" lon="-105.2299337">
  <ele>1583.2</ele>
  <time>2026-08-28T17:51:16Z</time>
  <course>247.08</course>
  <speed>5.243290951301482</speed>
  <fix>3d</fix>
</trkpt>
<trkpt lat="40.0713286" lon="-105.2299249">
  <ele>1583.0</ele>
  <time>2026-08-28T17:51:16Z</time>
  <course>246.0</course>
  <speed>5.1</speed>
  <fix>3d</fix>
</trkpt>
<trkpt lat="40.071324" lon="-105.2299391">
  <ele>1583.2</ele>
  <time>2026-08-28T17:51:16Z</time>
  <course>247.08</course>
  <speed>5.0371618993238645</speed>
  <fix>3d</fix>
</trkpt>
<trkpt lat="40.0713286" lon="-105.2299249">
  <ele>1583.0</ele>
  <time>2026-08-28T17:51:16Z</time>
  <course>246.0</course>
  <speed>5.1</speed>
  <fix>3d</fix>
</trkpt>
<trkpt lat="40.0713222" lon="-105.2299443">
  <ele>1583.2</ele>
  <time>2026-08-28T17:51:16Z</time>
  <course>247.08</course>
  <speed>4.799552062432493</speed>
  <fix>3d</fix>
</trkpt>
<trkpt lat="40.071325" lon="-105.2299358">
  <ele>1583.0</ele>
  <time>2026-08-28T17:51:16Z</time>
  <course>246.0</course>
  <speed>5.0</speed>
  <fix>3d</fix>
</trkpt>
<trkpt lat="40.0713205" lon="-105.2299492">
  <ele>1583.2</ele>
  <time>2026-08-28T17:51:16Z</time>
  <course>247.07</course>
  <speed>4.552812317677943</speed>
  <fix>3d</fix>
</trkpt>
<trkpt lat="40.071325" lon="-105.2299358">
  <ele>1583.0</ele>
  <time>2026-08-28T17:51:16Z</time>
  <course>246.0</course>
  <speed>5.0</speed>
  <fix>3d</fix>
</trkpt>
<trkpt lat="40.0713192" lon="-105.229953">
  <ele>1583.2</ele>
  <time>2026-08-28T17:51:16Z</time>
  <course>247.07</course>
  <speed>4.364974226728034</speed>
  <fix>3d</fix>
</trkpt>
<trkpt lat="40.0713214" lon="-105.2299462">
  <ele>1583.0</ele>
  <time>2026-08-28T17:51:16Z</time>
  <course>246.0</course>
  <speed>4.58</speed>
  <fix>3d</fix>
</trkpt>
<trkpt lat="40.0713177" lon="-105.2299575">
  <ele>1583.2</ele>
  <time>2026-08-28T17:51:16Z</time>
  <course>247.07</course>
  <speed>4.1497228823139505</speed>
  <fix>3d</fix>
</trkpt>
<trkpt lat="40.0713214" lon="-105.2299462">
  <ele>1583.0</ele>
  <time>2026-08-28T17:51:16Z</time>
  <course>246.0</course>
  <speed>4.58</speed>
  <fix>3d</fix>
</trkpt>
<trkpt lat="40.0713162" lon="-105.2299617">
  <ele>1583.19</ele>
  <time>2026-08-28T17:51:16Z</time>
  <course>247.07</course>
  <speed>3.94361509277972</speed>
  <fix>3d</fix>
</trkpt>
<trkpt lat="40.0713183" lon="-105.2299555">
  <ele>1583.0</ele>
  <time>2026-08-28T17:51:16Z</time>
  <course>246.0</course>
  <speed>4.14</speed>
  <fix>3d</fix>
</trkpt>
<trkpt lat="40.0713148" lon="-105.2299658">
  <ele>1583.19</ele>
  <time>2026-08-28T17:51:16Z</time>
  <course>247.07</course>
  <speed>3.7466384933697565</speed>
  <fix>3d</fix>
</trkpt>
<trkpt lat="40.0713183" lon="-105.2299555">
  <ele>1583.0</ele>
  <time>2026-08-28T17:51:16Z</time>
  <course>246.0</course>
  <speed>4.14</speed>
  <fix>3d</fix>
</trkpt>
<trkpt lat="40.0713135" lon="-105.2299696">
  <ele>1583.19</ele>
  <time>2026-08-28T17:51:16Z</time>
  <course>247.07</course>
  <speed>3.562878050116226</speed>
  <fix>3d</fix>
</trkpt>
<trkpt lat="40.0713154" lon="-105.229964">
  <ele>1583.0</ele>
  <time>2026-08-28T17:51:16Z</time>
  <course>246.0</course>
  <speed>3.75</speed>
  <fix>3d</fix>
</trkpt>
<trkpt lat="40.0713122" lon="-105.2299733">
  <ele>1583.19</ele>
  <time>2026-08-28T17:51:16Z</time>
  <course>247.07</course>
  <speed>3.3791271062213686</speed>
  <fix>3d</fix>
</trkpt>
<trkpt lat="40.0713154" lon="-105.229964">
  <ele>1583.0</ele>
  <time>2026-08-28T17:51:16Z</time>
  <course>246.0</course>
  <speed>3.75</speed>
  <fix>3d</fix>
</trkpt>
<trkpt lat="40.071311" lon="-105.2299768">
  <ele>1583.18</ele>
  <time>2026-08-28T17:51:16Z</time>
  <course>247.07</course>
  <speed>3.2177321206091722</speed>
  <fix>3d</fix>
</trkpt>
<trkpt lat="40.0713128" lon="-105.2299716">
  <ele>1583.0</ele>
  <time>2026-08-28T17:51:16Z</time>
  <course>246.0</course>
  <speed>3.39</speed>
  <fix>3d</fix>
</trkpt>
<trkpt lat="40.0713099" lon="-105.2299801">
  <ele>1583.18</ele>
  <time>2026-08-28T17:51:16Z</time>
  <course>247.07</course>
  <speed>3.052212312405544</speed>
  <fix>3d</fix>
</trkpt>
<trkpt lat="40.0713128" lon="-105.2299716">
  <ele>1583.0</ele>
  <time>2026-08-28T17:51:16Z</time>
  <course>246.0</course>
  <speed>3.39</speed>
  <fix>3d</fix>
</trkpt>
<trkpt lat="40.0713088" lon="-105.2299832">
  <ele>1583.18</ele>
  <time>2026-08-28T17:51:16Z</time>
  <course>247.07</course>
  <speed>2.890830330545188</speed>
  <fix>3d</fix>
</trkpt>
<trkpt lat="40.0713104" lon="-105.2299785">
  <ele>1583.0</ele>
  <time>2026-08-28T17:51:16Z</time>
  <course>246.0</course>
  <speed>3.07</speed>
  <fix>3d</fix>
</trkpt>
<trkpt lat="40.0713078" lon="-105.2299862">
  <ele>1583.18</ele>
  <time>2026-08-28T17:51:16Z</time>
  <course>247.06</course>
  <speed>2.747653544390195</speed>
  <fix>3d</fix>
</trkpt>
<trkpt lat="40.0713104" lon="-105.2299785">
  <ele>1583.0</ele>
  <time>2026-08-28T17:51:16Z</time>
  <course>246.0</course>
  <speed>3.07</speed>
  <fix>3d</fix>
</trkpt>
<trkpt lat="40.0713066" lon="-105.2299896">
  <ele>1583.17</ele>
  <time>2026-08-28T17:51:16Z</time>
  <course>247.06</course>
  <speed>2.5821309029559285</speed>
  <fix>3d</fix>
</trkpt>
<trkpt lat="40.0713083" lon="-105.2299847">
  <ele>1583.0</ele>
  <time>2026-08-28T17:51:16Z</time>
  <course>246.0</course>
  <speed>2.77</speed>
  <fix>3d</fix>
</trkpt>
<trkpt lat="40.0713057" lon="-105.2299922">
  <ele>1583.17</ele>
  <time>2026-08-28T17:51:16Z</time>
  <course>247.05</course>
  <speed>2.4431127685802796</speed>
  <fix>3d</fix>
</trkpt>
<trkpt lat="40.0713083" lon="-105.2299847">
  <ele>1583.0</ele>
  <time>2026-08-28T17:51:16Z</time>
  <course>246.0</course>
  <speed>2.77</speed>
  <fix>3d</fix>
</trkpt>
<trkpt lat="40.0713048" lon="-105.2299947">
  <ele>1583.17</ele>
  <time>2026-08-28T17:51:16Z</time>
  <course>247.05</course>
  <speed>2.3222833591101666</speed>
  <fix>3d</fix>
</trkpt>
<trkpt lat="40.0713064" lon="-105.2299904">
  <ele>1583.0</ele>
  <time>2026-08-28T17:51:16Z</time>
  <course>246.0</course>
  <speed>2.51</speed>
  <fix>3d</fix>
</trkpt>
<trkpt lat="40.071304" lon="-105.2299971">
  <ele>1583.16</ele>
  <time>2026-08-28T17:51:16Z</time>
  <course>247.04</course>
  <speed>2.201454064930722</speed>
  <fix>3d</fix>
</trkpt>
<trkpt lat="40.0713064" lon="-105.2299904">
  <ele>1583.0</ele>
  <time>2026-08-28T17:51:16Z</time>
  <course>246.0</course>
  <speed>2.51</speed>
  <fix>3d</fix>
</trkpt>
<trkpt lat="40.0713032" lon="-105.2299994">
  <ele>1583.16</ele>
  <time>2026-08-28T17:51:16Z</time>
  <course>247.04</course>
  <speed>2.0848261318392955</speed>
  <fix>3d</fix>
</trkpt>
<trkpt lat="40.0713046" lon="-105.2299956">
  <ele>1583.0</ele>
  <time>2026-08-28T17:51:16Z</time>
  <course>246.0</course>
  <speed>2.27</speed>
  <fix>3d</fix>
</trkpt>
<trkpt lat="40.0713024" lon="-105.2300015">
  <ele>1583.16</ele>
  <time>2026-08-28T17:51:16Z</time>
  <course>247.04</course>
  <speed>1.982145302443794</speed>
  <fix>3d</fix>
</trkpt>
<trkpt lat="40.0713046" lon="-105.2299956">
  <ele>1583.0</ele>
  <time>2026-08-28T17:51:16Z</time>
  <course>246.0</course>
  <speed>2.27</speed>
  <fix>3d</fix>
</trkpt>
<trkpt lat="40.0713017" lon="-105.2300035">
  <ele>1583.16</ele>
  <time>2026-08-28T17:51:16Z</time>
  <course>247.03</course>
  <speed>1.8745932892230248</speed>
  <fix>3d</fix>
</trkpt>
<trkpt lat="40.071303" lon="-105.2300003">
  <ele>1583.0</ele>
  <time>2026-08-28T17:51:16Z</time>
  <course>246.0</course>
  <speed>2.05</speed>
  <fix>3d</fix>
</trkpt>
<trkpt lat="40.0713011" lon="-105.2300055">
  <ele>1583.16</ele>
  <time>2026-08-28T17:51:16Z</time>
  <course>247.03</course>
  <speed>1.7761193653580833</speed>
  <fix>3d</fix>
</trkpt>
<trkpt lat="40.071303" lon="-105.2300003">
  <ele>1583.0</ele>
  <time>2026-08-28T17:51:17Z</time>
  <course>246.0</course>
  <speed>2.05</speed>
  <fix>3d</fix>
</trkpt>
<trkpt lat="40.0713004" lon="-105.2300073">
  <ele>1583.16</ele>
  <time>2026-08-28T17:51:17Z</time>
  <course>247.02</course>
  <speed>1.6867127793432999</speed>
  <fix>3d</fix>
</trkpt>
<trkpt lat="40.0713016" lon="-105.2300045">
  <ele>1583.0</ele>
  <time>2026-08-28T17:51:17Z</time>
  <course>246.0</course>
  <speed>1.86</speed>
  <fix>3d</fix>
</trkpt>
<trkpt lat="40.0712999" lon="-105.230009">
  <ele>1583.15</ele>
  <time>2026-08-28T17:51:17Z</time>
  <course>247.02</course>
  <speed>1.5973102391207539</speed>
  <fix>3d</fix>
</trkpt>
<trkpt lat="40.0713016" lon="-105.2300045">
  <ele>1583.0</ele>
  <time>2026-08-28T17:51:17Z</time>
  <course>246.0</course>
  <speed>1.86</speed>
  <fix>3d</fix>
</trkpt>
<trkpt lat="40.0712993" lon="-105.2300107">
  <ele>1583.15</ele>
  <time>2026-08-28T17:51:17Z</time>
  <course>247.01</course>
  <speed>1.5121177202850313</speed>
  <fix>3d</fix>
</trkpt>
<trkpt lat="40.0713003" lon="-105.2300083">
  <ele>1583.0</ele>
  <time>2026-08-28T17:51:17Z</time>
  <course>246.0</course>
  <speed>1.68</speed>
  <fix>3d</fix>
</trkpt>
<trkpt lat="40.0712989" lon="-105.230012">
  <ele>1583.14</ele>
  <time>2026-08-28T17:51:17Z</time>
  <course>247.01</course>
  <speed>1.4450605523645021</speed>
  <fix>3d</fix>
</trkpt>
<trkpt lat="40.0713003" lon="-105.2300083">
  <ele>1583.0</ele>
  <time>2026-08-28T17:51:17Z</time>
  <course>246.0</course>
  <speed>1.68</speed>
  <fix>3d</fix>
</trkpt>
<trkpt lat="40.0712984" lon="-105.2300135">
  <ele>1583.13</ele>
  <time>2026-08-28T17:51:17Z</time>
  <course>247.01</course>
  <speed>1.364734406395618</speed>
  <fix>3d</fix>
</trkpt>
<trkpt lat="40.0712991" lon="-105.2300117">
  <ele>1583.0</ele>
  <time>2026-08-28T17:51:17Z</time>
  <course>246.0</course>
  <speed>1.52</speed>
  <fix>3d</fix>
</trkpt>
<trkpt lat="40.0712965" lon="-105.2300189">
  <ele>1583.1</ele>
  <time>2026-08-28T17:51:17Z</time>
  <course>247.0</course>
  <speed>1.109819805193618</speed>
  <fix>3d</fix>
</trkpt>
<trkpt lat="40.0712971" lon="-105.2300176">
  <ele>1583.0</ele>
  <time>2026-08-28T17:51:17Z</time>
  <course>246.0</course>
  <speed>1.24</speed>
  <fix>3d</fix>
</trkpt>
<trkpt lat="40.0712954" lon="-105.2300224">
  <ele>1583.07</ele>
  <time>2026-08-28T17:51:17Z</time>
  <course>247.0</course>
  <speed>0.9442986815621421</speed>
  <fix>3d</fix>
</trkpt>
<trkpt lat="40.0712963" lon="-105.2300202">
  <ele>1583.0</ele>
  <time>2026-08-28T17:51:17Z</time>
  <course>246.0</course>
  <speed>1.12</speed>
  <fix>3d</fix>
</trkpt>
<trkpt lat="40.0712951" lon="-105.2300234">
  <ele>1583.06</ele>
  <time>2026-08-28T17:51:17Z</time>
  <course>247.0</course>
  <speed>0.8863972021616494</speed>
  <fix>3d</fix>
</trkpt>
<trkpt lat="40.0712955" lon="-105.2300224">
  <ele>1583.0</ele>
  <time>2026-08-28T17:51:17Z</time>
  <course>246.0</course>
  <speed>1.02</speed>
  <fix>3d</fix>
</trkpt>
<trkpt lat="40.0712947" lon="-105.2300246">
  <ele>1583.05</ele>
  <time>2026-08-28T17:51:17Z</time>
  <course>247.0</course>
  <speed>0.832586331859946</speed>
  <fix>3d</fix>
</trkpt>
<trkpt lat="40.0712955" lon="-105.2300224">
  <ele>1583.0</ele>
  <time>2026-08-28T17:51:17Z</time>
  <course>246.0</course>
  <speed>1.02</speed>
  <fix>3d</fix>
</trkpt>
<trkpt lat="40.0712944" lon="-105.2300256">
  <ele>1583.03</ele>
  <time>2026-08-28T17:51:17Z</time>
  <course>247.0</course>
  <speed>0.7879086241436883</speed>
  <fix>3d</fix>
</trkpt>
<trkpt lat="40.0712947" lon="-105.2300245">
  <ele>1583.0</ele>
  <time>2026-08-28T17:51:17Z</time>
  <course>246.0</course>
  <speed>0.92</speed>
  <fix>3d</fix>
</trkpt>
<trkpt lat="40.0712941" lon="-105.2300264">
  <ele>1583.02</ele>
  <time>2026-08-28T17:51:17Z</time>
  <course>247.0</course>
  <speed>0.7523961722390672</speed>
  <fix>3d</fix>
</trkpt>
<trkpt lat="40.0712947" lon="-105.2300245">
  <ele>1583.0</ele>
  <time>2026-08-28T17:51:17Z</time>
  <course>246.0</course>
  <speed>0.92</speed>
  <fix>3d</fix>
</trkpt>
<trkpt lat="40.0712938" lon="-105.2300273">
  <ele>1583.02</ele>
  <time>2026-08-28T17:51:17Z</time>
  <course>247.0</course>
  <speed>0.7077428911688198</speed>
  <fix>3d</fix>
</trkpt>
<trkpt lat="40.0712941" lon="-105.2300264">
  <ele>1583.0</ele>
  <time>2026-08-28T17:51:17Z</time>
  <course>246.0</course>
  <speed>0.83</speed>
  <fix>3d</fix>
</trkpt>
<trkpt lat="40.0712935" lon="-105.2300281">
  <ele>1583.01</ele>
  <time>2026-08-28T17:51:17Z</time>
  <course>247.0</course>
  <speed>0.6762396025078685</speed>
  <fix>3d</fix>
</trkpt>
<trkpt lat="40.0712941" lon="-105.2300264">
  <ele>1583.0</ele>
  <time>2026-08-28T17:51:17Z</time>
  <course>246.0</course>
  <speed>0.83</speed>
  <fix>3d</fix>
</trkpt>
<trkpt lat="40.071293" lon="-105.2300296">
  <ele>1582.99</ele>
  <time>2026-08-28T17:51:17Z</time>
  <course>247.01</course>
  <speed>0.6092618484691127</speed>
  <fix>3d</fix>
</trkpt>
<trkpt lat="40.0712935" lon="-105.2300281">
  <ele>1583.0</ele>
  <time>2026-08-28T17:51:17Z</time>
  <course>246.0</course>
  <speed>0.75</speed>
  <fix>3d</fix>
</trkpt>
<trkpt lat="40.0712928" lon="-105.2300303">
  <ele>1582.99</ele>
  <time>2026-08-28T17:51:17Z</time>
  <course>247.01</course>
  <speed>0.5738466694161429</speed>
  <fix>3d</fix>
</trkpt>
<trkpt lat="40.071293" lon="-105.2300297">
  <ele>1583.0</ele>
  <time>2026-08-28T17:51:17Z</time>
  <course>246.0</course>
  <speed>0.68</speed>
  <fix>3d</fix>
</trkpt>
<trkpt lat="40.0712926" lon="-105.2300309">
  <ele>1582.99</ele>
  <time>2026-08-28T17:51:17Z</time>
  <course>247.01</course>
  <speed>0.54230987451825</speed>
  <fix>3d</fix>
</trkpt>
<trkpt lat="40.071293" lon="-105.2300297">
  <ele>1583.0</ele>
  <time>2026-08-28T17:51:17Z</time>
  <course>246.0</course>
  <speed>0.68</speed>
  <fix>3d</fix>
</trkpt>
<trkpt lat="40.0712924" lon="-105.2300316">
  <ele>1582.99</ele>
  <time>2026-08-28T17:51:17Z</time>
  <course>247.01</course>
  <speed>0.5069516742254631</speed>
  <fix>3d</fix>
</trkpt>
<trkpt lat="40.0712925" lon="-105.2300311">
  <ele>1583.0</ele>
  <time>2026-08-28T17:51:17Z</time>
  <course>246.0</course>
  <speed>0.61</speed>
  <fix>3d</fix>
</trkpt>
<trkpt lat="40.0712922" lon="-105.2300322">
  <ele>1582.99</ele>
  <time>2026-08-28T17:51:17Z</time>
  <course>247.01</course>
  <speed>0.48466483264210536</speed>
  <fix>3d</fix>
</trkpt>
<trkpt lat="40.0712925" lon="-105.2300311">
  <ele>1583.0</ele>
  <time>2026-08-28T17:51:17Z</time>
  <course>246.0</course>
  <speed>0.61</speed>
  <fix>3d</fix>
</trkpt>
<trkpt lat="40.0712921" lon="-105.2300326">
  <ele>1582.99</ele>
  <time>2026-08-28T17:51:17Z</time>
  <course>247.02</course>
  <speed>0.46238512086787564</speed>
  <fix>3d</fix>
</trkpt>
<trkpt lat="40.071292" lon="-105.2300324">
  <ele>1583.0</ele>
  <time>2026-08-28T17:51:17Z</time>
  <course>246.0</course>
  <speed>0.56</speed>
  <fix>3d</fix>
</trkpt>
<trkpt lat="40.0712919" lon="-105.2300332">
  <ele>1582.99</ele>
  <time>2026-08-28T17:51:17Z</time>
  <course>247.02</course>
  <speed>0.44011362169330775</speed>
  <fix>3d</fix>
</trkpt>
<trkpt lat="40.071292" lon="-105.2300324">
  <ele>1583.0</ele>
  <time>2026-08-28T17:51:17Z</time>
  <course>246.0</course>
  <speed>0.56</speed>
  <fix>3d</fix>
</trkpt>
<trkpt lat="40.0712917" lon="-105.2300337">
  <ele>1582.99</ele>
  <time>2026-08-28T17:51:17Z</time>
  <course>247.02</course>
  <speed>0.41785164831552357</speed>
  <fix>3d</fix>
</trkpt>
<trkpt lat="40.0712917" lon="-105.2300335">
  <ele>1583.0</ele>
  <time>2026-08-28T17:51:17Z</time>
  <course>246.0</course>
  <speed>0.5</speed>
  <fix>3d</fix>
</trkpt>
<trkpt lat="40.0712915" lon="-105.2300342">
  <ele>1583.0</ele>
  <time>2026-08-28T17:51:17Z</time>
  <course>247.02</course>
  <speed>0.3956008088970496</speed>
  <fix>3d</fix>
</trkpt>
<trkpt lat="40.0712917" lon="-105.2300335">
  <ele>1583.0</ele>
  <time>2026-08-28T17:51:17Z</time>
  <course>246.0</course>
  <speed>0.5</speed>
  <fix>3d</fix>
</trkpt>
<trkpt lat="40.0712914" lon="-105.2300347">
  <ele>1583.0</ele>
  <time>2026-08-28T17:51:17Z</time>
  <course>247.02</course>
  <speed>0.37336309405188944</speed>
  <fix>3d</fix>
</trkpt>
<trkpt lat="40.0712913" lon="-105.2300346">
  <ele>1583.0</ele>
  <time>2026-08-28T17:51:17Z</time>
  <course>246.0</course>
  <speed>0.45</speed>
  <fix>3d</fix>
</trkpt>
<trkpt lat="40.0712912" lon="-105.2300352">
  <ele>1583.0</ele>
  <time>2026-08-28T17:51:17Z</time>
  <course>247.02</course>
  <speed>0.35114099732158877</speed>
  <fix>3d</fix>
</trkpt>
<trkpt lat="40.0712913" lon="-105.2300346">
  <ele>1583.0</ele>
  <time>2026-08-28T17:51:17Z</time>
  <course>246.0</course>
  <speed>0.45</speed>
  <fix>3d</fix>
</trkpt>
<trkpt lat="40.0712911" lon="-105.2300356">
  <ele>1583.01</ele>
  <time>2026-08-28T17:51:17Z</time>
  <course>247.02</course>
  <speed>0.33837848631377265</speed>
  <fix>3d</fix>
</trkpt>
<trkpt lat="40.071291" lon="-105.2300355">
  <ele>1583.0</ele>
  <time>2026-08-28T17:51:17Z</time>
  <course>246.0</course>
  <speed>0.41</speed>
  <fix>3d</fix>
</trkpt>
<trkpt lat="40.071291" lon="-105.2300361">
  <ele>1583.01</ele>
  <time>2026-08-28T17:51:17Z</time>
  <course>247.02</course>
  <speed>0.3195309061734092</speed>
  <fix>3d</fix>
</trkpt>
<trkpt lat="40.071291" lon="-105.2300355">
  <ele>1583.0</ele>
  <time>2026-08-28T17:51:17Z</time>
  <course>246.0</course>
  <speed>0.41</speed>
  <fix>3d</fix>
</trkpt>
<trkpt lat="40.0712908" lon="-105.2300365">
  <ele>1583.01</ele>
  <time>2026-08-28T17:51:17Z</time>
  <course>247.02</course>
  <speed>0.30675723300355934</speed>
  <fix>3d</fix>
</trkpt>
<trkpt lat="40.0712907" lon="-105.2300363">
  <ele>1583.0</ele>
  <time>2026-08-28T17:51:17Z</time>
  <course>246.0</course>
  <speed>0.37</speed>
  <fix>3d</fix>
</trkpt>
<trkpt lat="40.0712907" lon="-105.2300368">
  <ele>1583.01</ele>
  <time>2026-08-28T17:51:17Z</time>
  <course>247.02</course>
  <speed>0.28460498941515416</speed>
  <fix>3d</fix>
</trkpt>
<trkpt lat="40.0712907" lon="-105.2300363">
  <ele>1583.0</ele>
  <time>2026-08-28T17:51:17Z</time>
  <course>246.0</course>
  <speed>0.37</speed>
  <fix>3d</fix>
</trkpt>
<trkpt lat="40.0712906" lon="-105.2300373">
  <ele>1583.01</ele>
  <time>2026-08-28T17:51:17Z</time>
  <course>247.02</course>
  <speed>0.2720294101747089</speed>
  <fix>3d</fix>
</trkpt>
<trkpt lat="40.0712904" lon="-105.2300371">
  <ele>1583.0</ele>
  <time>2026-08-28T17:51:17Z</time>
  <course>246.0</course>
  <speed>0.34</speed>
  <fix>3d</fix>
</trkpt>
<trkpt lat="40.0712905" lon="-105.2300376">
  <ele>1583.01</ele>
  <time>2026-08-28T17:51:17Z</time>
  <course>247.02</course>
  <speed>0.2529822128134704</speed>
  <fix>3d</fix>
</trkpt>
<trkpt lat="40.0712904" lon="-105.2300371">
  <ele>1583.0</ele>
  <time>2026-08-28T17:51:17Z</time>
  <course>246.0</course>
  <speed>0.34</speed>
  <fix>3d</fix>
</trkpt>
<trkpt lat="40.0712904" lon="-105.2300379">
  <ele>1583.01</ele>
  <time>2026-08-28T17:51:17Z</time>
  <course>247.02</course>
  <speed>0.24041630560342614</speed>
  <fix>3d</fix>
</trkpt>
<trkpt lat="40.0712902" lon="-105.2300378">
  <ele>1583.0</ele>
  <time>2026-08-28T17:51:17Z</time>
  <course>246.0</course>
  <speed>0.3</speed>
  <fix>3d</fix>
</trkpt>
<trkpt lat="40.0712903" lon="-105.2300382">
  <ele>1583.02</ele>
  <time>2026-08-28T17:51:17Z</time>
  <course>247.02</course>
  <speed>0.22803508501982758</speed>
  <fix>3d</fix>
</trkpt>
<trkpt lat="40.0712902" lon="-105.2300378">
  <ele>1583.0</ele>
  <time>2026-08-28T17:51:17Z</time>
  <course>246.0</course>
  <speed>0.3</speed>
  <fix>3d</fix>
</trkpt>
<trkpt lat="40.0712902" lon="-105.2300385">
  <ele>1583.02</ele>
  <time>2026-08-28T17:51:17Z</time>
  <course>247.01</course>
  <speed>0.21840329667841554</speed>
  <fix>3d</fix>
</trkpt>
<trkpt lat="40.07129" lon="-105.2300384">
  <ele>1583.0</ele>
  <time>2026-08-28T17:51:17Z</time>
  <course>246.0</course>
  <speed>0.27</speed>
  <fix>3d</fix>
</trkpt>
<trkpt lat="40.0712901" lon="-105.2300388">
  <ele>1583.02</ele>
  <time>2026-08-28T17:51:17Z</time>
  <course>247.01</course>
  <speed>0.26248809496813374</speed>
  <fix>3d</fix>
</trkpt>
<trkpt lat="40.07129" lon="-105.2300384">
  <ele>1583.0</ele>
  <time>2026-08-28T17:51:17Z</time>
  <course>246.0</course>
  <speed>0.27</speed>
  <fix>3d</fix>
</trkpt>
<trkpt lat="40.0712899" lon="-105.2300392">
  <ele>1583.02</ele>
  <time>2026-08-28T17:51:17Z</time>
  <course>247.01</course>
  <speed>0.4016217125604641</speed>
  <fix>3d</fix>
</trkpt>
<trkpt lat="40.0712898" lon="-105.2300391">
  <ele>1583.0</ele>
  <time>2026-08-28T17:51:17Z</time>
  <course>246.0</course>
  <speed>0.33</speed>
  <fix>3d</fix>
</trkpt>
<trkpt lat="40.0712897" lon="-105.2300399">
  <ele>1583.02</ele>
  <time>2026-08-28T17:51:17Z</time>
  <course>247.01</course>
  <speed>0.6168468205316454</speed>
  <fix>3d</fix>
</trkpt>
<trkpt lat="40.0712898" lon="-105.2300391">
  <ele>1583.0</ele>
  <time>2026-08-28T17:51:17Z</time>
  <course>246.0</course>
  <speed>0.33</speed>
  <fix>3d</fix>
</trkpt>
<trkpt lat="40.0712895" lon="-105.2300407">
  <ele>1583.02</ele>
  <time>2026-08-28T17:51:17Z</time>
  <course>247.0</course>
  <speed>0.8134494452638098</speed>
  <fix>3d</fix>
</trkpt>
<trkpt lat="40.0712895" lon="-105.23004">
  <ele>1583.0</ele>
  <time>2026-08-28T17:51:17Z</time>
  <course>246.0</course>
  <speed>0.61</speed>
  <fix>3d</fix>
</trkpt>
<trkpt lat="40.0712891" lon="-105.2300418">
  <ele>1583.02</ele>
  <time>2026-08-28T17:51:17Z</time>
  <course>247.0</course>
  <speed>0.9879271228182774</speed>
  <fix>3d</fix>
</trkpt>
<trkpt lat="40.0712895" lon="-105.23004">
  <ele>1583.0</ele>
  <time>2026-08-28T17:51:17Z</time>
  <course>246.0</course>
  <speed>0.61</speed>
  <fix>3d</fix>
</trkpt>
<trkpt lat="40.0712887" lon="-105.230043">
  <ele>1583.01</ele>
  <time>2026-08-28T17:51:17Z</time>
  <course>246.99</course>
  <speed>1.117899816620434</speed>
  <fix>3d</fix>
</trkpt>
<trkpt lat="40.0712889" lon="-105.2300418">
  <ele>1583.0</ele>
  <time>2026-08-28T17:51:17Z</time>
  <course>246.0</course>
  <speed>0.97</speed>
  <fix>3d</fix>
</trkpt>
<trkpt lat="40.0712884" lon="-105.230044">
  <ele>1583.01</ele>
  <time>2026-08-28T17:51:17Z</time>
  <course>246.99</course>
  <speed>1.2033287165193058</speed>
  <fix>3d</fix>
</trkpt>
<trkpt lat="40.0712889" lon="-105.2300418">
  <ele>1583.0</ele>
  <time>2026-08-28T17:51:17Z</time>
  <course>246.0</course>
  <speed>0.97</speed>
  <fix>3d</fix>
</trkpt>
<trkpt lat="40.0712879" lon="-105.2300454">
  <ele>1583.01</ele>
  <time>2026-08-28T17:51:17Z</time>
  <course>247.12</course>
  <speed>1.2887590930814028</speed>
  <fix>3d</fix>
</trkpt>
<trkpt lat="40.071288" lon="-105.2300442">
  <ele>1583.0</ele>
  <time>2026-08-28T17:51:17Z</time>
  <course>246.07</course>
  <speed>1.21</speed>
  <fix>3d</fix>
</trkpt>
<trkpt lat="40.0712874" lon="-105.230047">
  <ele>1583.01</ele>
  <time>2026-08-28T17:51:17Z</time>
  <course>248.34</course>
  <speed>1.3635615130972272</speed>
  <fix>3d</fix>
</trkpt>
<trkpt lat="40.071288" lon="-105.2300442">
  <ele>1583.0</ele>
  <time>2026-08-28T17:51:17Z</time>
  <course>246.07</course>
  <speed>1.21</speed>
  <fix>3d</fix>
</trkpt>
<trkpt lat="40.071287" lon="-105.2300486">
  <ele>1583.01</ele>
  <time>2026-08-28T17:51:17Z</time>
  <course>250.66</course>
  <speed>1.4420124826089407</speed>
  <fix>3d</fix>
</trkpt>
<trkpt lat="40.0712871" lon="-105.2300469">
  <ele>1583.0</ele>
  <time>2026-08-28T17:51:17Z</time>
  <course>248.04</course>
  <speed>1.38</speed>
  <fix>3d</fix>
</trkpt>
<trkpt lat="40.0712865" lon="-105.2300503">
  <ele>1583.0</ele>
  <time>2026-08-28T17:51:17Z</time>
  <course>254.09</course>
  <speed>1.5280052355931246</speed>
  <fix>3d</fix>
</trkpt>
<trkpt lat="40.0712871" lon="-105.2300469">
  <ele>1583.0</ele>
  <time>2026-08-28T17:51:17Z</time>
  <course>248.04</course>
  <speed>1.38</speed>
  <fix>3d</fix>
</trkpt>
<trkpt lat="40.0712862" lon="-105.2300521">
  <ele>1583.0</ele>
  <time>2026-08-28T17:51:17Z</time>
  <course>258.6</course>
  <speed>1.614465855941215</speed>
  <fix>3d</fix>
</trkpt>
<trkpt lat="40.0712863" lon="-105.2300502">
  <ele>1583.0</ele>
  <time>2026-08-28T17:51:17Z</time>
  <course>253.94</course>
  <speed>1.53</speed>
  <fix>3d</fix>
</trkpt>
<trkpt lat="40.0712859" lon="-105.2300541">
  <ele>1582.99</ele>
  <time>2026-08-28T17:51:17Z</time>
  <course>264.18</course>
  <speed>1.6949926253526886</speed>
  <fix>3d</fix>
</trkpt>
<trkpt lat="40.0712863" lon="-105.2300502">
  <ele>1583.0</ele>
  <time>2026-08-28T17:51:17Z</time>
  <course>253.94</course>
  <speed>1.53</speed>
  <fix>3d</fix>
</trkpt>
<trkpt lat="40.0712859" lon="-105.2300562">
  <ele>1582.99</ele>
  <time>2026-08-28T17:51:17Z</time>
  <course>270.87</course>
  <speed>1.7910053042914194</speed>
  <fix>3d</fix>
</trkpt>
<trkpt lat="40.0712857" lon="-105.2300539">
  <ele>1583.0</ele>
  <time>2026-08-28T17:51:17Z</time>
  <course>264.14</course>
  <speed>1.69</speed>
  <fix>3d</fix>
</trkpt>
<trkpt lat="40.071286" lon="-105.2300585">
  <ele>1582.99</ele>
  <time>2026-08-28T17:51:17Z</time>
  <course>278.57</course>
  <speed>1.8856563843924483</speed>
  <fix>3d</fix>
</trkpt>
<trkpt lat="40.0712857" lon="-105.2300539">
  <ele>1583.0</ele>
  <time>2026-08-28T17:51:17Z</time>
  <course>264.14</course>
  <speed>1.69</speed>
  <fix>3d</fix>
</trkpt>
<trkpt lat="40.0712863" lon="-105.2300607">
  <ele>1582.98</ele>
  <time>2026-08-28T17:51:17Z</time>
  <course>287.3</course>
  <speed>1.979595918363139</speed>
  <fix>3d</fix>
</trkpt>
<trkpt lat="40.0712857" lon="-105.230058">
  <ele>1583.0</ele>
  <time>2026-08-28T17:51:17Z</time>
  <course>278.55</course>
  <speed>1.85</speed>
  <fix>3d</fix>
</trkpt>
<trkpt lat="40.0712872" lon="-105.2300634">
  <ele>1582.98</ele>
  <time>2026-08-28T17:51:17Z</time>
  <course>299.13</course>
  <speed>2.092510453976276</speed>
  <fix>3d</fix>
</trkpt>
<trkpt lat="40.0712857" lon="-105.230058">
  <ele>1583.0</ele>
  <time>2026-08-28T17:51:17Z</time>
  <course>278.55</course>
  <speed>1.85</speed>
  <fix>3d</fix>
</trkpt>
<trkpt lat="40.0712883" lon="-105.2300655">
  <ele>1582.97</ele>
  <time>2026-08-28T17:51:17Z</time>
  <course>309.4</course>
  <speed>2.1920994502987314</speed>
  <fix>3d</fix>
</trkpt>
<trkpt lat="40.0712867" lon="-105.2300624">
  <ele>1583.0</ele>
  <time>2026-08-28T17:51:17Z</time>
  <course>296.89</course>
  <speed>2.01</speed>
  <fix>3d</fix>
</trkpt>
<trkpt lat="40.0712898" lon="-105.2300673">
  <ele>1582.97</ele>
  <time>2026-08-28T17:51:17Z</time>
  <course>318.58</course>
  <speed>2.290785891348207</speed>
  <fix>3d</fix>
</trkpt>
<trkpt lat="40.0712867" lon="-105.2300624">
  <ele>1583.0</ele>
  <time>2026-08-28T17:51:17Z</time>
  <course>296.89</course>
  <speed>2.01</speed>
  <fix>3d</fix>
</trkpt>
<trkpt lat="40.0712915" lon="-105.230069">
  <ele>1582.96</ele>
  <time>2026-08-28T17:51:17Z</time>
  <course>326.72</course>
  <speed>2.388346708499417</speed>
  <fix>3d</fix>
</trkpt>
<trkpt lat="40.0712889" lon="-105.2300663">
  <ele>1583.0</ele>
  <time>2026-08-28T17:51:17Z</time>
  <course>315.73</course>
  <speed>2.2</speed>
  <fix>3d</fix>
</trkpt>
<trkpt lat="40.0712934" lon="-105.2300703">
  <ele>1582.96</ele>
  <time>2026-08-28T17:51:17Z</time>
  <course>333.84</course>
  <speed>2.491465432230598</speed>
  <fix>3d</fix>
</trkpt>
<trkpt lat="40.0712889" lon="-105.2300663">
  <ele>1583.0</ele>
  <time>2026-08-28T17:51:17Z</time>
  <course>315.73</course>
  <speed>2.2</speed>
  <fix>3d</fix>
</trkpt>
<trkpt lat="40.0712955" lon="-105.2300715">
  <ele>1582.96</ele>
  <time>2026-08-28T17:51:17Z</time>
  <course>339.9</course>
  <speed>2.590463279029448</speed>
  <fix>3d</fix>
</trkpt>
<trkpt lat="40.0712923" lon="-105.2300695">
  <ele>1583.0</ele>
  <time>2026-08-28T17:51:17Z</time>
  <course>331.28</course>
  <speed>2.4</speed>
  <fix>3d</fix>
</trkpt>
<trkpt lat="40.0712978" lon="-105.2300723">
  <ele>1582.96</ele>
  <time>2026-08-28T17:51:17Z</time>
  <course>344.89</course>
  <speed>2.6971281022598834</speed>
  <fix>3d</fix>
</trkpt>
<trkpt lat="40.0712923" lon="-105.2300695">
  <ele>1583.0</ele>
  <time>2026-08-28T17:51:17Z</time>
  <course>331.28</course>
  <speed>2.4</speed>
  <fix>3d</fix>
</trkpt>
<trkpt lat="40.0713002" lon="-105.230073">
  <ele>1582.96</ele>
  <time>2026-08-28T17:51:17Z</time>
  <course>348.8</course>
  <speed>2.8006070770459752</speed>
  <fix>3d</fix>
</trkpt>
<trkpt lat="40.0712965" lon="-105.2300717">
  <ele>1583.0</ele>
  <time>2026-08-28T17:51:17Z</time>
  <course>342.65</course>
  <speed>2.6</speed>
  <fix>3d</fix>
</trkpt>
<trkpt lat="40.0713026" lon="-105.2300736">
  <ele>1582.97</ele>
  <time>2026-08-28T17:51:17Z</time>
  <course>351.64</course>
  <speed>2.899137802864845</speed>
  <fix>3d</fix>
</trkpt>
<trkpt lat="40.0712965" lon="-105.2300717">
  <ele>1583.0</ele>
  <time>2026-08-28T17:51:17Z</time>
  <course>342.65</course>
  <speed>2.6</speed>
  <fix>3d</fix>
</trkpt>
<trkpt lat="40.0713052" lon="-105.230074">
  <ele>1582.96</ele>
  <time>2026-08-28T17:51:17Z</time>
  <course>353.39</course>
  <speed>2.9993332592427935</speed>
  <fix>3d</fix>
</trkpt>
<trkpt lat="40.0713012" lon="-105.2300732">
  <ele>1583.0</ele>
  <time>2026-08-28T17:51:17Z</time>
  <course>349.73</course>
  <speed>2.8</speed>
  <fix>3d</fix>
</trkpt>
<trkpt lat="40.0713079" lon="-105.2300744">
  <ele>1582.96</ele>
  <time>2026-08-28T17:51:17Z</time>
  <course>354.59</course>
  <speed>3.1035785796399615</speed>
  <fix>3d</fix>
</trkpt>
<trkpt lat="40.0713012" lon="-105.2300732">
  <ele>1583.0</ele>
  <time>2026-08-28T17:51:17Z</time>
  <course>349.73</course>
  <speed>2.8</speed>
  <fix>3d</fix>
</trkpt>
<trkpt lat="40.0713101" lon="-105.2300746">
  <ele>1582.96</ele>
  <time>2026-08-28T17:51:17Z</time>
  <course>355.44</course>
  <speed>3.1798427634082786</speed>
  <fix>3d</fix>
</trkpt>
<trkpt lat="40.0713063" lon="-105.2300741">
  <ele>1583.0</ele>
  <time>2026-08-28T17:51:17Z</time>
  <course>353.35</course>
  <speed>2.99</speed>
  <fix>3d</fix>
</trkpt>
<trkpt lat="40.071313" lon="-105.2300749">
  <ele>1582.96</ele>
  <time>2026-08-28T17:51:17Z</time>
  <course>356.33</course>
  <speed>3.286715685908959</speed>
  <fix>3d</fix>
</trkpt>
<trkpt lat="40.0713063" lon="-105.2300741">
  <ele>1583.0</ele>
  <time>2026-08-28T17:51:17Z</time>
  <course>353.35</course>
  <speed>2.99</speed>
  <fix>3d</fix>
</trkpt>
<trkpt lat="40.0713159" lon="-105.2300751">
  <ele>1582.96</ele>
  <time>2026-08-28T17:51:17Z</time>
  <course>357.08</course>
  <speed>3.394775397577872</speed>
  <fix>3d</fix>
</trkpt>
<trkpt lat="40.0713119" lon="-105.2300749">
  <ele>1583.0</ele>
  <time>2026-08-28T17:51:17Z</time>
  <course>355.33</course>
  <speed>3.19</speed>
  <fix>3d</fix>
</trkpt>
<trkpt lat="40.071319" lon="-105.2300753">
  <ele>1582.96</ele>
  <time>2026-08-28T17:51:17Z</time>
  <course>357.7</course>
  <speed>3.4932220084042758</speed>
  <fix>3d</fix>
</trkpt>
<trkpt lat="40.0713119" lon="-105.2300749">
  <ele>1583.0</ele>
  <time>2026-08-28T17:51:17Z</time>
  <course>355.33</course>
  <speed>3.19</speed>
  <fix>3d</fix>
</trkpt>
<trkpt lat="40.0713221" lon="-105.2300755">
  <ele>1582.96</ele>
  <time>2026-08-28T17:51:17Z</time>
  <course>358.22</course>
  <speed>3.5923529893372113</speed>
  <fix>3d</fix>
</trkpt>
<trkpt lat="40.0713177" lon="-105.2300754">
  <ele>1583.0</ele>
  <time>2026-08-28T17:51:17Z</time>
  <course>356.72</course>
  <speed>3.39</speed>
  <fix>3d</fix>
</trkpt>
<trkpt lat="40.0713254" lon="-105.2300757">
  <ele>1582.96</ele>
  <time>2026-08-28T17:51:17Z</time>
  <course>358.65</course>
  <speed>3.7016347739883795</speed>
  <fix>3d</fix>
</trkpt>
<trkpt lat="40.0713177" lon="-105.2300754">
  <ele>1583.0</ele>
  <time>2026-08-28T17:51:17Z</time>
  <course>356.72</course>
  <speed>3.39</speed>
  <fix>3d</fix>
</trkpt>
<trkpt lat="40.0713287" lon="-105.2300758">
  <ele>1582.95</ele>
  <time>2026-08-28T17:51:17Z</time>
  <course>359.02</course>
  <speed>3.8010656400541154</speed>
  <fix>3d</fix>
</trkpt>
<trkpt lat="40.071324" lon="-105.2300758">
  <ele>1583.0</ele>
  <time>2026-08-28T17:51:17Z</time>
  <course>357.68</course>
  <speed>3.58</speed>
  <fix>3d</fix>
</trkpt>
<trkpt lat="40.0713322" lon="-105.2300759">
  <ele>1582.95</ele>
  <time>2026-08-28T17:51:17Z</time>
  <course>359.31</course>
  <speed>3.9008204265256814</speed>
  <fix>3d</fix>
</trkpt>
<trkpt lat="40.071324" lon="-105.2300758">
  <ele>1583.0</ele>
  <time>2026-08-28T17:51:17Z</time>
  <course>357.68</course>
  <speed>3.58</speed>
  <fix>3d</fix>
</trkpt>
<trkpt lat="40.0713357" lon="-105.230076">
  <ele>1582.95</ele>
  <time>2026-08-28T17:51:17Z</time>
  <course>359.56</course>
  <speed>4.010448852684696</speed>
  <fix>3d</fix>
</trkpt>
<trkpt lat="40.0713307" lon="-105.2300761">
  <ele>1583.0</ele>
  <time>2026-08-28T17:51:17Z</time>
  <course>358.35</course>
  <speed>3.78</speed>
  <fix>3d</fix>
</trkpt>
<trkpt lat="40.0713401" lon="-105.2300762">
  <ele>1582.94</ele>
  <time>2026-08-28T17:51:17Z</time>
  <course>359.81</course>
  <speed>4.130302652348857</speed>
  <fix>3d</fix>
</trkpt>
<trkpt lat="40.0713307" lon="-105.2300761">
  <ele>1583.0</ele>
  <time>2026-08-28T17:51:17Z</time>
  <course>358.35</course>
  <speed>3.78</speed>
  <fix>3d</fix>
</trkpt>
<trkpt lat="40.0713438" lon="-105.2300762">
  <ele>1582.94</ele>
  <time>2026-08-28T17:51:17Z</time>
  <course>359.97</course>
  <speed>4.230189121067756</speed>
  <fix>3d</fix>
</trkpt>
<trkpt lat="40.0713376" lon="-105.2300764">
  <ele>1583.0</ele>
  <time>2026-08-28T17:51:17Z</time>
  <course>358.81</course>
  <speed>3.98</speed>
  <fix>3d</fix>
</trkpt>
<trkpt lat="40.0713476" lon="-105.2300763">
  <ele>1582.94</ele>
  <time>2026-08-28T17:51:17Z</time>
  <course>0.08</course>
  <speed>4.330184753564217</speed>
  <fix>3d</fix>
</trkpt>
<trkpt lat="40.0713376" lon="-105.2300764">
  <ele>1583.0</ele>
  <time>2026-08-28T17:51:17Z</time>
  <course>358.81</course>
  <speed>3.98</speed>
  <fix>3d</fix>
</trkpt>
<trkpt lat="40.0713515" lon="-105.2300764">
  <ele>1582.94</ele>
  <time>2026-08-28T17:51:17Z</time>
  <course>0.2</course>
  <speed>4.430180583226828</speed>
  <fix>3d</fix>
</trkpt>
<trkpt lat="40.0713449" lon="-105.2300765">
  <ele>1583.0</ele>
  <time>2026-08-28T17:51:17Z</time>
  <course>359.12</course>
  <speed>4.17</speed>
  <fix>3d</fix>
</trkpt>
<trkpt lat="40.0713554" lon="-105.2300765">
  <ele>1582.94</ele>
  <time>2026-08-28T17:51:17Z</time>
  <course>0.28</course>
  <speed>4.530099336659187</speed>
  <fix>3d</fix>
</trkpt>
<trkpt lat="40.0713449" lon="-105.2300765">
  <ele>1583.0</ele>
  <time>2026-08-28T17:51:17Z</time>
  <course>359.12</course>
  <speed>4.17</speed>
  <fix>3d</fix>
</trkpt>
<trkpt lat="40.0713595" lon="-105.2300765">
  <ele>1582.94</ele>
  <time>2026-08-28T17:51:17Z</time>
  <course>0.33</course>
  <speed>4.630097191204522</speed>
  <fix>3d</fix>
</trkpt>
<trkpt lat="40.0713526" lon="-105.2300766">
  <ele>1583.0</ele>
  <time>2026-08-28T17:51:17Z</time>
  <course>359.32</course>
  <speed>4.37</speed>
  <fix>3d</fix>
</trkpt>
<trkpt lat="40.0713636" lon="-105.2300766">
  <ele>1582.94</ele>
  <time>2026-08-28T17:51:17Z</time>
  <course>0.39</course>
  <speed>4.720095338020197</speed>
  <fix>3d</fix>
</trkpt>
<trkpt lat="40.0713526" lon="-105.2300766">
  <ele>1583.0</ele>
  <time>2026-08-28T17:51:17Z</time>
  <course>359.32</course>
  <speed>4.37</speed>
  <fix>3d</fix>
</trkpt>
<trkpt lat="40.0713678" lon="-105.2300766">
  <ele>1582.94</ele>
  <time>2026-08-28T17:51:17Z</time>
  <course>0.45</course>
  <speed>4.820093360091691</speed>
  <fix>3d</fix>
</trkpt>
<trkpt lat="40.0713607" lon="-105.2300767">
  <ele>1583.0</ele>
  <time>2026-08-28T17:51:17Z</time>
  <course>359.46</course>
  <speed>4.57</speed>
  <fix>3d</fix>
</trkpt>
<trkpt lat="40.071372" lon="-105.2300767">
  <ele>1582.93</ele>
  <time>2026-08-28T17:51:17Z</time>
  <course>0.48</course>
  <speed>4.9100916488391535</speed>
  <fix>3d</fix>
</trkpt>
<trkpt lat="40.0713607" lon="-105.2300767">
  <ele>1583.0</ele>
  <time>2026-08-28T17:51:17Z</time>
  <course>359.46</course>
  <speed>4.57</speed>
  <fix>3d</fix>
</trkpt>
<trkpt lat="40.0713763" lon="-105.2300767">
  <ele>1582.93</ele>
  <time>2026-08-28T17:51:17Z</time>
  <course>0.49</course>
  <speed>5.010089819554136</speed>
  <fix>3d</fix>
</trkpt>
<trkpt lat="40.0713691" lon="-105.2300768">
  <ele>1583.0</ele>
  <time>2026-08-28T17:51:17Z</time>
  <course>359.54</course>
  <speed>4.77</speed>
  <fix>3d</fix>
</trkpt>
<trkpt lat="40.0713807" lon="-105.2300768">
  <ele>1582.92</ele>
  <time>2026-08-28T17:51:17Z</time>
  <course>0.48</course>
  <speed>5.100156860332827</speed>
  <fix>3d</fix>
</trkpt>
<trkpt lat="40.0713691" lon="-105.2300768">
  <ele>1583.0</ele>
  <time>2026-08-28T17:51:17Z</time>
  <course>359.54</course>
  <speed>4.77</speed>
  <fix>3d</fix>
</trkpt>
<trkpt lat="40.0713853" lon="-105.2300769">
  <ele>1582.92</ele>
  <time>2026-08-28T17:51:17Z</time>
  <course>0.48</course>
  <speed>5.190154140292946</speed>
  <fix>3d</fix>
</trkpt>
<trkpt lat="40.0713778" lon="-105.2300769">
  <ele>1583.0</ele>
  <time>2026-08-28T17:51:17Z</time>
  <course>359.57</course>
  <speed>4.96</speed>
  <fix>3d</fix>
</trkpt>
<trkpt lat="40.0713889" lon="-105.2300769">
  <ele>1582.92</ele>
  <time>2026-08-28T17:51:17Z</time>
  <course>0.47</course>
  <speed>5.240152669531681</speed>
  <fix>3d</fix>
</trkpt>
<trkpt lat="40.0713778" lon="-105.2300769">
  <ele>1583.0</ele>
  <time>2026-08-28T17:51:17Z</time>
  <course>359.57</course>
  <speed>4.96</speed>
  <fix>3d</fix>
</trkpt>
<trkpt lat="40.0713935" lon="-105.230077">
  <ele>1582.92</ele>
  <time>2026-08-28T17:51:17Z</time>
  <course>0.47</course>
  <speed>5.290151226571883</speed>
  <fix>3d</fix>
</trkpt>
<trkpt lat="40.0713868" lon="-105.230077">
  <ele>1583.0</ele>
  <time>2026-08-28T17:51:17Z</time>
  <course>359.57</course>
  <speed>5.12</speed>
  <fix>3d</fix>
</trkpt>
<trkpt lat="40.0713982" lon="-105.230077">
  <ele>1582.92</ele>
  <time>2026-08-28T17:51:17Z</time>
  <course>0.46</course>
  <speed>5.330234516416702</speed>
  <fix>3d</fix>
</trkpt>
<trkpt lat="40.0713868" lon="-105.230077">
  <ele>1583.0</ele>
  <time>2026-08-28T17:51:17Z</time>
  <course>359.57</course>
  <speed>5.12</speed>
  <fix>3d</fix>
</trkpt>
<trkpt lat="40.0714029" lon="-105.2300771">
  <ele>1582.92</ele>
  <time>2026-08-28T17:51:17Z</time>
  <course>0.46</course>
  <speed>5.3602332038820855</speed>
  <fix>3d</fix>
</trkpt>
<trkpt lat="40.0713961" lon="-105.2300771">
  <ele>1583.0</ele>
  <time>2026-08-28T17:51:17Z</time>
  <course>359.57</course>
  <speed>5.22</speed>
  <fix>3d</fix>
</trkpt>
<trkpt lat="40.0714076" lon="-105.2300772">
  <ele>1582.92</ele>
  <time>2026-08-28T17:51:17Z</time>
  <course>0.45</course>
  <speed>5.3802323369906615</speed>
  <fix>3d</fix>
</trkpt>
<trkpt lat="40.0713961" lon="-105.2300771">
  <ele>1583.0</ele>
  <time>2026-08-28T17:51:17Z</time>
  <course>359.57</course>
  <speed>5.22</speed>
  <fix>3d</fix>
</trkpt>
<trkpt lat="40.0714124" lon="-105.2300772">
  <ele>1582.92</ele>
  <time>2026-08-28T17:51:17Z</time>
  <course>0.45</course>
  <speed>5.39033394141773</speed>
  <fix>3d</fix>
</trkpt>
<trkpt lat="40.0714056" lon="-105.2300772">
  <ele>1583.0</ele>
  <time>2026-08-28T17:51:17Z</time>
  <course>359.57</course>
  <speed>5.27</speed>
  <fix>3d</fix>
</trkpt>
<trkpt lat="40.0714172" lon="-105.2300773">
  <ele>1582.91</ele>
  <time>2026-08-28T17:51:17Z</time>
  <course>0.45</course>
  <speed>5.380334562088124</speed>
  <fix>3d</fix>
</trkpt>
<trkpt lat="40.0714056" lon="-105.2300772">
  <ele>1583.0</ele>
  <time>2026-08-28T17:51:17Z</time>
  <course>359.57</course>
  <speed>5.27</speed>
  <fix>3d</fix>
</trkpt>
<trkpt lat="40.071422" lon="-105.2300774">
  <ele>1582.91</ele>
  <time>2026-08-28T17:51:17Z</time>
  <course>0.44</course>
  <speed>5.380334562088124</speed>
  <fix>3d</fix>
</trkpt>
<trkpt lat="40.0714151" lon="-105.2300773">
  <ele>1583.0</ele>
  <time>2026-08-28T17:51:17Z</time>
  <course>359.57</course>
  <speed>5.29</speed>
  <fix>3d</fix>
</trkpt>
<trkpt lat="40.0714268" lon="-105.2300774">
  <ele>1582.91</ele>
  <time>2026-08-28T17:51:17Z</time>
  <course>0.44</course>
  <speed>5.360335810376062</speed>
  <fix>3d</fix>
</trkpt>
<trkpt lat="40.0714151" lon="-105.2300773">
  <ele>1583.0</ele>
  <time>2026-08-28T17:51:17Z</time>
  <course>359.57</course>
  <speed>5.29</speed>
  <fix>3d</fix>
</trkpt>
<trkpt lat="40.0714325" lon="-105.2300775">
  <ele>1582.91</ele>
  <time>2026-08-28T17:51:17Z</time>
  <course>0.43</course>
  <speed>5.340337068013591</speed>
  <fix>3d</fix>
</trkpt>
<trkpt lat="40.0714246" lon="-105.2300774">
  <ele>1583.0</ele>
  <time>2026-08-28T17:51:17Z</time>
  <course>359.57</course>
  <speed>5.27</speed>
  <fix>3d</fix>
</trkpt>
<trkpt lat="40.0714372" lon="-105.2300776">
  <ele>1582.91</ele>
  <time>2026-08-28T17:51:17Z</time>
  <course>0.42</course>
  <speed>5.310461373553149</speed>
  <fix>3d</fix>
</trkpt>
<trkpt lat="40.0714246" lon="-105.2300774">
  <ele>1583.0</ele>
  <time>2026-08-28T17:51:17Z</time>
  <course>359.57</course>
  <speed>5.27</speed>
  <fix>3d</fix>
</trkpt>
<trkpt lat="40.0714419" lon="-105.2300776">
  <ele>1582.91</ele>
  <time>2026-08-28T17:51:17Z</time>
  <course>0.42</course>
  <speed>5.290463117724194</speed>
  <fix>3d</fix>
</trkpt>
<trkpt lat="40.0714341" lon="-105.2300775">
  <ele>1583.0</ele>
  <time>2026-08-28T17:51:17Z</time>
  <course>359.57</course>
  <speed>5.24</speed>
  <fix>3d</fix>
</trkpt>
<trkpt lat="40.0714466" lon="-105.2300777">
  <ele>1582.91</ele>
  <time>2026-08-28T17:51:17Z</time>
  <course>0.41</course>
  <speed>5.260465758846834</speed>
  <fix>3d</fix>
</trkpt>
<trkpt lat="40.0714341" lon="-105.2300775">
  <ele>1583.0</ele>
  <time>2026-08-28T17:51:17Z</time>
  <course>359.57</course>
  <speed>5.24</speed>
  <fix>3d</fix>
</trkpt>
<trkpt lat="40.0714513" lon="-105.2300778">
  <ele>1582.92</ele>
  <time>2026-08-28T17:51:17Z</time>
  <course>0.4</course>
  <speed>5.230468430265114</speed>
  <fix>3d</fix>
</trkpt>
<trkpt lat="40.0714435" lon="-105.2300776">
  <ele>1583.0</ele>
  <time>2026-08-28T17:51:17Z</time>
  <course>359.57</course>
  <speed>5.19</speed>
  <fix>3d</fix>
</trkpt>
<trkpt lat="40.0714558" lon="-105.2300778">
  <ele>1582.92</ele>
  <time>2026-08-28T17:51:17Z</time>
  <course>0.39</course>
  <speed>5.190472040190565</speed>
  <fix>3d</fix>
</trkpt>
<trkpt lat="40.0714435" lon="-105.2300776">
  <ele>1583.0</ele>
  <time>2026-08-28T17:51:17Z</time>
  <course>359.57</course>
  <speed>5.19</speed>
  <fix>3d</fix>
</trkpt>
<trkpt lat="40.0714604" lon="-105.2300779">
  <ele>1582.92</ele>
  <time>2026-08-28T17:51:17Z</time>
  <course>0.38</course>
  <speed>5.160474784358509</speed>
  <fix>3d</fix>
</trkpt>
<trkpt lat="40.0714528" lon="-105.2300777">
  <ele>1583.0</ele>
  <time>2026-08-28T17:51:17Z</time>
  <course>359.57</course>
  <speed>5.14</speed>
  <fix>3d</fix>
</trkpt>
<trkpt lat="40.0714649" lon="-105.230078">
  <ele>1582.92</ele>
  <time>2026-08-28T17:51:17Z</time>
  <course>0.37</course>
  <speed>5.13047756061753</speed>
  <fix>3d</fix>
</trkpt>
<trkpt lat="40.0714528" lon="-105.2300777">
  <ele>1583.0</ele>
  <time>2026-08-28T17:51:17Z</time>
  <course>359.57</course>
  <speed>5.14</speed>
  <fix>3d</fix>
</trkpt>
<trkpt lat="40.0714694" lon="-105.230078">
  <ele>1582.92</ele>
  <time>2026-08-28T17:51:17Z</time>
  <course>0.36</course>
  <speed>5.100480369533834</speed>
  <fix>3d</fix>
</trkpt>
<trkpt lat="40.0714619" lon="-105.2300777">
  <ele>1583.0</ele>
  <time>2026-08-28T17:51:17Z</time>
  <course>359.57</course>
  <speed>5.08</speed>
  <fix>3d</fix>
</trkpt>
<trkpt lat="40.0714738" lon="-105.2300781">
  <ele>1582.92</ele>
  <time>2026-08-28T17:51:17Z</time>
  <course>0.34</course>
  <speed>5.070483211687028</speed>
  <fix>3d</fix>
</trkpt>
<trkpt lat="40.0714619" lon="-105.2300777">
  <ele>1583.0</ele>
  <time>2026-08-28T17:51:17Z</time>
  <course>359.57</course>
  <speed>5.08</speed>
  <fix>3d</fix>
</trkpt>
<trkpt lat="40.0714783" lon="-105.2300781">
  <ele>1582.92</ele>
  <time>2026-08-28T17:51:17Z</time>
  <course>0.33</course>
  <speed>5.040486087670513</speed>
  <fix>3d</fix>
</trkpt>
<trkpt lat="40.071471" lon="-105.2300778">
  <ele>1583.0</ele>
  <time>2026-08-28T17:51:17Z</time>
  <course>359.57</course>
  <speed>5.04</speed>
  <fix>3d</fix>
</trkpt>
<trkpt lat="40.0714818" lon="-105.2300782">
  <ele>1582.92</ele>
  <time>2026-08-28T17:51:17Z</time>
  <course>0.32</course>
  <speed>5.020488024086902</speed>
  <fix>3d</fix>
</trkpt>
<trkpt lat="40.071471" lon="-105.2300778">
  <ele>1583.0</ele>
  <time>2026-08-28T17:51:17Z</time>
  <course>359.57</course>
  <speed>5.04</speed>
  <fix>3d</fix>
</trkpt>
<trkpt lat="40.0714862" lon="-105.2300782">
  <ele>1582.92</ele>
  <time>2026-08-28T17:51:17Z</time>
  <course>0.31</course>
  <speed>5.000489975992353</speed>
  <fix>3d</fix>
</trkpt>
<trkpt lat="40.0714801" lon="-105.2300779">
  <ele>1583.0</ele>
  <time>2026-08-28T17:51:17Z</time>
  <course>359.57</course>
  <speed>5.0</speed>
  <fix>3d</fix>
</trkpt>
<trkpt lat="40.0714907" lon="-105.2300783">
  <ele>1582.92</ele>
  <time>2026-08-28T17:51:17Z</time>
  <course>0.3</course>
  <speed>4.980491943573446</speed>
  <fix>3d</fix>
</trkpt>
<trkpt lat="40.0714801" lon="-105.2300779">
  <ele>1583.0</ele>
  <time>2026-08-28T17:51:17Z</time>
  <course>359.57</course>
  <speed>5.0</speed>
  <fix>3d</fix>
</trkpt>
<trkpt lat="40.0714951" lon="-105.2300783">
  <ele>1582.92</ele>
  <time>2026-08-28T17:51:17Z</time>
  <course>0.3</course>
  <speed>4.970492933301485</speed>
  <fix>3d</fix>
</trkpt>
<trkpt lat="40.071489" lon="-105.230078">
  <ele>1583.0</ele>
  <time>2026-08-28T17:51:17Z</time>
  <course>359.57</course>
  <speed>4.97</speed>
  <fix>3d</fix>
</trkpt>
<trkpt lat="40.0714995" lon="-105.2300784">
  <ele>1582.92</ele>
  <time>2026-08-28T17:51:17Z</time>
  <course>0.29</course>
  <speed>4.960493927019768</speed>
  <fix>3d</fix>
</trkpt>
<trkpt lat="40.071489" lon="-105.230078">
  <ele>1583.0</ele>
  <time>2026-08-28T17:51:17Z</time>
  <course>359.57</course>
  <speed>4.97</speed>
  <fix>3d</fix>
</trkpt>
<trkpt lat="40.0715039" lon="-105.2300784">
  <ele>1582.92</ele>
  <time>2026-08-28T17:51:17Z</time>
  <course>0.29</course>
  <speed>4.950494924752474</speed>
  <fix>3d</fix>
</trkpt>
<trkpt lat="40.071498" lon="-105.2300781">
  <ele>1583.0</ele>
  <time>2026-08-28T17:51:17Z</time>
  <course>359.57</course>
  <speed>4.96</speed>
  <fix>3d</fix>
</trkpt>
<trkpt lat="40.0715084" lon="-105.2300784">
  <ele>1582.92</ele>
  <time>2026-08-28T17:51:17Z</time>
  <course>0.29</course>
  <speed>4.950494924752474</speed>
  <fix>3d</fix>
</trkpt>
<trkpt lat="40.071498" lon="-105.2300781">
  <ele>1583.0</ele>
  <time>2026-08-28T17:51:17Z</time>
  <course>359.57</course>
  <speed>4.96</speed>
  <fix>3d</fix>
</trkpt>
<trkpt lat="40.0715128" lon="-105.2300785">
  <ele>1582.92</ele>
  <time>2026-08-28T17:51:17Z</time>
  <course>0.28</course>
  <speed>4.940495926523976</speed>
  <fix>3d</fix>
</trkpt>
<trkpt lat="40.0715069" lon="-105.2300782">
  <ele>1583.0</ele>
  <time>2026-08-28T17:51:17Z</time>
  <course>359.57</course>
  <speed>4.95</speed>
  <fix>3d</fix>
</trkpt>
<trkpt lat="40.0715173" lon="-105.2300785">
  <ele>1582.93</ele>
  <time>2026-08-28T17:51:17Z</time>
  <course>0.28</course>
  <speed>4.940364359032642</speed>
  <fix>3d</fix>
</trkpt>
<trkpt lat="40.0715069" lon="-105.2300782">
  <ele>1583.0</ele>
  <time>2026-08-28T17:51:17Z</time>
  <course>359.57</course>
  <speed>4.95</speed>
  <fix>3d</fix>
</trkpt>
<trkpt lat="40.0715218" lon="-105.2300786">
  <ele>1582.93</ele>
  <time>2026-08-28T17:51:17Z</time>
  <course>0.28</course>
  <speed>4.940364359032642</speed>
  <fix>3d</fix>
</trkpt>
<trkpt lat="40.0715157" lon="-105.2300783">
  <ele>1583.0</ele>
  <time>2026-08-28T17:51:17Z</time>
  <course>359.57</course>
  <speed>4.94</speed>
  <fix>3d</fix>
</trkpt>
<trkpt lat="40.0715271" lon="-105.2300786">
  <ele>1582.93</ele>
  <time>2026-08-28T17:51:17Z</time>
  <course>0.27</course>
  <speed>4.940364359032642</speed>
  <fix>3d</fix>
</trkpt>
<trkpt lat="40.0715157" lon="-105.2300783">
  <ele>1583.0</ele>
  <time>2026-08-28T17:51:17Z</time>
  <course>359.57</course>
  <speed>4.94</speed>
  <fix>3d</fix>
</trkpt>
<trkpt lat="40.0715316" lon="-105.2300787">
  <ele>1582.94</ele>
  <time>2026-08-28T17:51:17Z</time>
  <course>0.27</course>
  <speed>4.940364359032642</speed>
  <fix>3d</fix>
</trkpt>
<trkpt lat="40.0715246" lon="-105.2300784">
  <ele>1583.0</ele>
  <time>2026-08-28T17:51:17Z</time>
  <course>359.57</course>
  <speed>4.94</speed>
  <fix>3d</fix>
</trkpt>
<trkpt lat="40.071536" lon="-105.2300787">
  <ele>1582.94</ele>
  <time>2026-08-28T17:51:17Z</time>
  <course>0.27</course>
  <speed>4.940364359032642</speed>
  <fix>3d</fix>
</trkpt>
<trkpt lat="40.0715246" lon="-105.2300784">
  <ele>1583.0</ele>
  <time>2026-08-28T17:51:17Z</time>
  <course>359.57</course>
  <speed>4.94</speed>
  <fix>3d</fix>
</trkpt>
<trkpt lat="40.0715405" lon="-105.2300787">
  <ele>1582.95</ele>
  <time>2026-08-28T17:51:17Z</time>
  <course>0.16</course>
  <speed>4.950494924752474</speed>
  <fix>3d</fix>
</trkpt>
<trkpt lat="40.0715335" lon="-105.2300784">
  <ele>1583.0</ele>
  <time>2026-08-28T17:51:17Z</time>
  <course>359.55</course>
  <speed>4.95</speed>
  <fix>3d</fix>
</trkpt>
<trkpt lat="40.0715449" lon="-105.2300788">
  <ele>1582.95</ele>
  <time>2026-08-28T17:51:17Z</time>
  <course>359.0</course>
  <speed>4.952918331650543</speed>
  <fix>3d</fix>
</trkpt>
<trkpt lat="40.0715335" lon="-105.2300784">
  <ele>1583.0</ele>
  <time>2026-08-28T17:51:17Z</time>
  <course>359.55</course>
  <speed>4.95</speed>
  <fix>3d</fix>
</trkpt>
<trkpt lat="40.0715494" lon="-105.2300791">
  <ele>1582.95</ele>
  <time>2026-08-28T17:51:17Z</time>
  <course>356.72</course>
  <speed>4.953100039369284</speed>
  <fix>3d</fix>
</trkpt>
<trkpt lat="40.0715424" lon="-105.2300786">
  <ele>1583.0</ele>
  <time>2026-08-28T17:51:17Z</time>
  <course>358.03</course>
  <speed>4.96</speed>
  <fix>3d</fix>
</trkpt>
<trkpt lat="40.0715538" lon="-105.2300797">
  <ele>1582.95</ele>
  <time>2026-08-28T17:51:17Z</time>
  <course>353.33</course>
  <speed>4.964070910049533</speed>
  <fix>3d</fix>
</trkpt>
<trkpt lat="40.0715424" lon="-105.2300786">
  <ele>1583.0</ele>
  <time>2026-08-28T17:51:17Z</time>
  <course>358.03</course>
  <speed>4.96</speed>
  <fix>3d</fix>
</trkpt>
<trkpt lat="40.0715581" lon="-105.2300807">
  <ele>1582.95</ele>
  <time>2026-08-28T17:51:17Z</time>
  <course>348.84</course>
  <speed>4.960252009726926</speed>
  <fix>3d</fix>
</trkpt>
<trkpt lat="40.0715514" lon="-105.2300795">
  <ele>1583.0</ele>
  <time>2026-08-28T17:51:17Z</time>
  <course>352.78</course>
  <speed>4.96</speed>
  <fix>3d</fix>
</trkpt>
<trkpt lat="40.0715624" lon="-105.2300822">
  <ele>1582.95</ele>
  <time>2026-08-28T17:51:17Z</time>
  <course>343.23</course>
  <speed>4.968229060741866</speed>
  <fix>3d</fix>
</trkpt>
<trkpt lat="40.0715514" lon="-105.2300795">
  <ele>1583.0</ele>
  <time>2026-08-28T17:51:17Z</time>
  <course>352.78</course>
  <speed>4.96</speed>
  <fix>3d</fix>
</trkpt>
<trkpt lat="40.0715665" lon="-105.2300843">
  <ele>1582.95</ele>
  <time>2026-08-28T17:51:17Z</time>
  <course>337.02</course>
  <speed>4.973178058344583</speed>
  <fix>3d</fix>
</trkpt>
<trkpt lat="40.0715601" lon="-105.2300818">
  <ele>1583.0</ele>
  <time>2026-08-28T17:51:17Z</time>
  <course>343.24</course>
  <speed>4.95</speed>
  <fix>3d</fix>
</trkpt>
<trkpt lat="40.0715704" lon="-105.2300871">
  <ele>1582.95</ele>
  <time>2026-08-28T17:51:17Z</time>
  <course>330.89</course>
  <speed>4.984014446206993</speed>
  <fix>3d</fix>
</trkpt>
<trkpt lat="40.0715601" lon="-105.2300818">
  <ele>1583.0</ele>
  <time>2026-08-28T17:51:17Z</time>
  <course>343.24</course>
  <speed>4.95</speed>
  <fix>3d</fix>
</trkpt>
<trkpt lat="40.0715734" lon="-105.2300897">
  <ele>1582.94</ele>
  <time>2026-08-28T17:51:17Z</time>
  <course>325.93</course>
  <speed>4.991693099540475</speed>
  <fix>3d</fix>
</trkpt>
<trkpt lat="40.0715682" lon="-105.2300864">
  <ele>1583.0</ele>
  <time>2026-08-28T17:51:17Z</time>
  <course>331.29</course>
  <speed>4.96</speed>
  <fix>3d</fix>
</trkpt>
<trkpt lat="40.0715769" lon="-105.2300934">
  <ele>1582.94</ele>
  <time>2026-08-28T17:51:17Z</time>
  <course>319.96</course>
  <speed>4.994366826735898</speed>
  <fix>3d</fix>
</trkpt>
<trkpt lat="40.0715682" lon="-105.2300864">
  <ele>1583.0</ele>
  <time>2026-08-28T17:51:17Z</time>
  <course>331.29</course>
  <speed>4.96</speed>
  <fix>3d</fix>
</trkpt>
<trkpt lat="40.0715801" lon="-105.2300976">
  <ele>1582.93</ele>
  <time>2026-08-28T17:51:17Z</time>
  <course>315.01</course>
  <speed>5.001049889773146</speed>
  <fix>3d</fix>
</trkpt>
<trkpt lat="40.0715756" lon="-105.230093">
  <ele>1583.0</ele>
  <time>2026-08-28T17:51:17Z</time>
  <course>319.69</course>
  <speed>4.97</speed>
  <fix>3d</fix>
</trkpt>
<trkpt lat="40.071583" lon="-105.2301021">
  <ele>1582.93</ele>
  <time>2026-08-28T17:51:17Z</time>
  <course>310.9</course>
  <speed>5.010319351099289</speed>
  <fix>3d</fix>
</trkpt>
<trkpt lat="40.0715756" lon="-105.230093">
  <ele>1583.0</ele>
  <time>2026-08-28T17:51:17Z</time>
  <course>319.69</course>
  <speed>4.97</speed>
  <fix>3d</fix>
</trkpt>
<trkpt lat="40.0715857" lon="-105.2301068">
  <ele>1582.93</ele>
  <time>2026-08-28T17:51:17Z</time>
  <course>307.42</course>
  <speed>5.014957626939633</speed>
  <fix>3d</fix>
</trkpt>
<trkpt lat="40.0715819" lon="-105.2301013">
  <ele>1583.0</ele>
  <time>2026-08-28T17:51:17Z</time>
  <course>310.42</course>
  <speed>4.98</speed>
  <fix>3d</fix>
</trkpt>
<trkpt lat="40.0715882" lon="-105.2301118">
  <ele>1582.93</ele>
  <time>2026-08-28T17:51:17Z</time>
  <course>304.52</course>
  <speed>5.020637409731956</speed>
  <fix>3d</fix>
</trkpt>
<trkpt lat="40.0715819" lon="-105.2301013">
  <ele>1583.0</ele>
  <time>2026-08-28T17:51:17Z</time>
  <course>310.42</course>
  <speed>4.98</speed>
  <fix>3d</fix>
</trkpt>
<trkpt lat="40.0715906" lon="-105.2301169">
  <ele>1582.94</ele>
  <time>2026-08-28T17:51:17Z</time>
  <course>302.1</course>
  <speed>5.014957626939633</speed>
  <fix>3d</fix>
</trkpt>
<trkpt lat="40.0715873" lon="-105.2301106">
  <ele>1583.0</ele>
  <time>2026-08-28T17:51:17Z</time>
  <course>303.95</course>
  <speed>4.99</speed>
  <fix>3d</fix>
</trkpt>
<trkpt lat="40.0715928" lon="-105.2301222">
  <ele>1582.94</ele>
  <time>2026-08-28T17:51:17Z</time>
  <course>300.04</course>
  <speed>5.015306570888763</speed>
  <fix>3d</fix>
</trkpt>
<trkpt lat="40.0715873" lon="-105.2301106">
  <ele>1583.0</ele>
  <time>2026-08-28T17:51:17Z</time>
  <course>303.95</course>
  <speed>4.99</speed>
  <fix>3d</fix>
</trkpt>
<trkpt lat="40.0715948" lon="-105.2301274">
  <ele>1582.94</ele>
  <time>2026-08-28T17:51:17Z</time>
  <course>298.36</course>
  <speed>5.0177385344395935</speed>
  <fix>3d</fix>
</trkpt>
<trkpt lat="40.0715919" lon="-105.2301206">
  <ele>1583.0</ele>
  <time>2026-08-28T17:51:17Z</time>
  <course>299.44</course>
  <speed>4.99</speed>
  <fix>3d</fix>
</trkpt>
<trkpt lat="40.0715968" lon="-105.2301328">
  <ele>1582.95</ele>
  <time>2026-08-28T17:51:17Z</time>
  <course>296.96</course>
  <speed>5.019651382317302</speed>
  <fix>3d</fix>
</trkpt>
<trkpt lat="40.0715919" lon="-105.2301206">
  <ele>1583.0</ele>
  <time>2026-08-28T17:51:17Z</time>
  <course>299.44</course>
  <speed>4.99</speed>
  <fix>3d</fix>
</trkpt>
<trkpt lat="40.071599" lon="-105.2301393">
  <ele>1582.95</ele>
  <time>2026-08-28T17:51:17Z</time>
  <course>295.59</course>
  <speed>5.010808318026145</speed>
  <fix>3d</fix>
</trkpt>
<trkpt lat="40.0715962" lon="-105.230131">
  <ele>1583.0</ele>
  <time>2026-08-28T17:51:17Z</time>
  <course>296.31</course>
  <speed>4.99</speed>
  <fix>3d</fix>
</trkpt>
<trkpt lat="40.0716008" lon="-105.2301447">
  <ele>1582.95</ele>
  <time>2026-08-28T17:51:17Z</time>
  <course>294.66</course>
  <speed>5.006925204154742</speed>
  <fix>3d</fix>
</trkpt>
<trkpt lat="40.0715962" lon="-105.230131">
  <ele>1583.0</ele>
  <time>2026-08-28T17:51:17Z</time>
  <course>296.31</course>
  <speed>4.99</speed>
  <fix>3d</fix>
</trkpt>
<trkpt lat="40.0716025" lon="-105.2301501">
  <ele>1582.95</ele>
  <time>2026-08-28T17:51:17Z</time>
  <course>293.86</course>
  <speed>5.0119257775829045</speed>
  <fix>3d</fix>
</trkpt>
<trkpt lat="40.0715999" lon="-105.2301416">
  <ele>1583.0</ele>
  <time>2026-08-28T17:51:17Z</time>
  <course>294.14</course>
  <speed>4.99</speed>
  <fix>3d</fix>
</trkpt>
<trkpt lat="40.0716042" lon="-105.2301556">
  <ele>1582.95</ele>
  <time>2026-08-28T17:51:17Z</time>
  <course>293.21</course>
  <speed>5.008492787256461</speed>
  <fix>3d</fix>
</trkpt>
<trkpt lat="40.0715999" lon="-105.2301416">
  <ele>1583.0</ele>
  <time>2026-08-28T17:51:17Z</time>
  <course>294.14</course>
  <speed>4.99</speed>
  <fix>3d</fix>
</trkpt>
<trkpt lat="40.0716058" lon="-105.2301611">
  <ele>1582.96</ele>
  <time>2026-08-28T17:51:17Z</time>
  <course>292.66</course>
  <speed>5.0</speed>
  <fix>3d</fix>
</trkpt>
<trkpt lat="40.0716035" lon="-105.2301524">
  <ele>1583.0</ele>
  <time>2026-08-28T17:51:17Z</time>
  <course>292.62</course>
  <speed>4.98</speed>
  <fix>3d</fix>
</trkpt>
<trkpt lat="40.0716074" lon="-105.2301665">
  <ele>1582.96</ele>
  <time>2026-08-28T17:51:17Z</time>
  <course>292.2</course>
  <speed>4.9954479278639266</speed>
  <fix>3d</fix>
</trkpt>
<trkpt lat="40.0716035" lon="-105.2301524">
  <ele>1583.0</ele>
  <time>2026-08-28T17:51:17Z</time>
  <course>292.62</course>
  <speed>4.98</speed>
  <fix>3d</fix>
</trkpt>
<trkpt lat="40.071609" lon="-105.230172">
  <ele>1582.96</ele>
  <time>2026-08-28T17:51:17Z</time>
  <course>291.82</course>
  <speed>4.985198090347063</speed>
  <fix>3d</fix>
</trkpt>
<trkpt lat="40.0716069" lon="-105.2301632">
  <ele>1583.0</ele>
  <time>2026-08-28T17:51:17Z</time>
  <course>291.56</course>
  <speed>4.98</speed>
  <fix>3d</fix>
</trkpt>
<trkpt lat="40.0716105" lon="-105.2301774">
  <ele>1582.97</ele>
  <time>2026-08-28T17:51:17Z</time>
  <course>291.49</course>
  <speed>4.975108039027896</speed>
  <fix>3d</fix>
</trkpt>
<trkpt lat="40.0716069" lon="-105.2301632">
  <ele>1583.0</ele>
  <time>2026-08-28T17:51:17Z</time>
  <course>291.56</course>
  <speed>4.98</speed>
  <fix>3d</fix>
</trkpt>
<trkpt lat="40.071612" lon="-105.2301828">
  <ele>1582.97</ele>
  <time>2026-08-28T17:51:17Z</time>
  <course>291.22</course>
  <speed>4.977911208529136</speed>
  <fix>3d</fix>
</trkpt>
<trkpt lat="40.0716101" lon="-105.2301741">
  <ele>1583.0</ele>
  <time>2026-08-28T17:51:17Z</time>
  <course>290.81</course>
  <speed>4.98</speed>
  <fix>3d</fix>
</trkpt>
<trkpt lat="40.0716135" lon="-105.2301882">
  <ele>1582.97</ele>
  <time>2026-08-28T17:51:17Z</time>
  <course>291.02</course>
  <speed>4.97135796337379</speed>
  <fix>3d</fix>
</trkpt>
<trkpt lat="40.0716101" lon="-105.2301741">
  <ele>1583.0</ele>
  <time>2026-08-28T17:51:17Z</time>
  <course>290.81</course>
  <speed>4.98</speed>
  <fix>3d</fix>
</trkpt>
<trkpt lat="40.071615" lon="-105.2301936">
  <ele>1582.97</ele>
  <time>2026-08-28T17:51:17Z</time>
  <course>290.81</course>
  <speed>4.968108291895417</speed>
  <fix>3d</fix>
</trkpt>
<trkpt lat="40.0716133" lon="-105.2301851">
  <ele>1583.0</ele>
  <time>2026-08-28T17:51:17Z</time>
  <course>290.3</course>
  <speed>4.98</speed>
  <fix>3d</fix>
</trkpt>
<trkpt lat="40.0716162" lon="-105.230198">
  <ele>1582.98</ele>
  <time>2026-08-28T17:51:17Z</time>
  <course>290.7</course>
  <speed>4.964876634922564</speed>
  <fix>3d</fix>
</trkpt>
<trkpt lat="40.0716133" lon="-105.2301851">
  <ele>1583.0</ele>
  <time>2026-08-28T17:51:17Z</time>
  <course>290.3</course>
  <speed>4.98</speed>
  <fix>3d</fix>
</trkpt>
<trkpt lat="40.0716177" lon="-105.2302034">
  <ele>1582.98</ele>
  <time>2026-08-28T17:51:17Z</time>
  <course>290.57</course>
  <speed>4.961663027655143</speed>
  <fix>3d</fix>
</trkpt>
<trkpt lat="40.0716163" lon="-105.2301961">
  <ele>1583.0</ele>
  <time>2026-08-28T17:51:17Z</time>
  <course>289.95</course>
  <speed>4.99</speed>
  <fix>3d</fix>
</trkpt>
<trkpt lat="40.0716192" lon="-105.2302089">
  <ele>1582.99</ele>
  <time>2026-08-28T17:51:17Z</time>
  <course>290.46</course>
  <speed>4.961663027655143</speed>
  <fix>3d</fix>
</trkpt>
<trkpt lat="40.0716163" lon="-105.2301961">
  <ele>1583.0</ele>
  <time>2026-08-28T17:51:17Z</time>
  <course>289.95</course>
  <speed>4.99</speed>
  <fix>3d</fix>
</trkpt>
<trkpt lat="40.0716207" lon="-105.2302144">
  <ele>1582.99</ele>
  <time>2026-08-28T17:51:17Z</time>
  <course>290.4</course>
  <speed>4.961663027655143</speed>
  <fix>3d</fix>
</trkpt>
<trkpt lat="40.0716194" lon="-105.2302071">
  <ele>1583.0</ele>
  <time>2026-08-28T17:51:17Z</time>
  <course>289.71</course>
  <speed>5.0</speed>
  <fix>3d</fix>
</trkpt>
<trkpt lat="40.0716222" lon="-105.2302199">
  <ele>1582.99</ele>
  <time>2026-08-28T17:51:17Z</time>
  <course>290.35</course>
  <speed>4.971136690939005</speed>
  <fix>3d</fix>
</trkpt>
<trkpt lat="40.0716194" lon="-105.2302071">
  <ele>1583.0</ele>
  <time>2026-08-28T17:51:17Z</time>
  <course>289.71</course>
  <speed>5.0</speed>
  <fix>3d</fix>
</trkpt>
<trkpt lat="40.0716237" lon="-105.2302255">
  <ele>1582.99</ele>
  <time>2026-08-28T17:51:17Z</time>
  <course>290.3</course>
  <speed>4.971136690939005</speed>
  <fix>3d</fix>
</trkpt>
<trkpt lat="40.0716224" lon="-105.2302182">
  <ele>1583.0</ele>
  <time>2026-08-28T17:51:17Z</time>
  <course>289.55</course>
  <speed>5.01</speed>
  <fix>3d</fix>
</trkpt>
<trkpt lat="40.0716252" lon="-105.230231">
  <ele>1583.0</ele>
  <time>2026-08-28T17:51:17Z</time>
  <course>290.24</course>
  <speed>4.980612412143711</speed>
  <fix>3d</fix>
</trkpt>
<trkpt lat="40.0716224" lon="-105.2302182">
  <ele>1583.0</ele>
  <time>2026-08-28T17:51:17Z</time>
  <course>289.55</course>
  <speed>5.01</speed>
  <fix>3d</fix>
</trkpt>
<trkpt lat="40.0716267" lon="-105.2302366">
  <ele>1583.0</ele>
  <time>2026-08-28T17:51:17Z</time>
  <course>290.19</course>
  <speed>4.977429055245288</speed>
  <fix>3d</fix>
</trkpt>
<trkpt lat="40.0716254" lon="-105.2302293">
  <ele>1583.0</ele>
  <time>2026-08-28T17:51:17Z</time>
  <course>289.41</course>
  <speed>5.02</speed>
  <fix>3d</fix>
</trkpt>
<trkpt lat="40.0716283" lon="-105.2302422">
  <ele>1583.0</ele>
  <time>2026-08-28T17:51:17Z</time>
  <course>290.13</course>
  <speed>4.980612412143711</speed>
  <fix>3d</fix>
</trkpt>
<trkpt lat="40.0716254" lon="-105.2302293">
  <ele>1583.0</ele>
  <time>2026-08-28T17:51:17Z</time>
  <course>289.41</course>
  <speed>5.02</speed>
  <fix>3d</fix>
</trkpt>
<trkpt lat="40.0716298" lon="-105.2302478">
  <ele>1583.0</ele>
  <time>2026-08-28T17:51:17Z</time>
  <course>290.11</course>
  <speed>4.990090179545857</speed>
  <fix>3d</fix>
</trkpt>
<trkpt lat="40.0716284" lon="-105.2302404">
  <ele>1583.0</ele>
  <time>2026-08-28T17:51:17Z</time>
  <course>289.3</course>
  <speed>5.03</speed>
  <fix>3d</fix>
</trkpt>
<trkpt lat="40.0716316" lon="-105.2302545">
  <ele>1583.0</ele>
  <time>2026-08-28T17:51:17Z</time>
  <course>290.09</course>
  <speed>4.990090179545857</speed>
  <fix>3d</fix>
</trkpt>
<trkpt lat="40.0716284" lon="-105.2302404">
  <ele>1583.0</ele>
  <time>2026-08-28T17:51:17Z</time>
  <course>289.3</course>
  <speed>5.03</speed>
  <fix>3d</fix>
</trkpt>
<trkpt lat="40.0716331" lon="-105.2302601">
  <ele>1583.0</ele>
  <time>2026-08-28T17:51:17Z</time>
  <course>290.07</course>
  <speed>4.990090179545857</speed>
  <fix>3d</fix>
</trkpt>
<trkpt lat="40.0716314" lon="-105.2302516">
  <ele>1583.0</ele>
  <time>2026-08-28T17:51:17Z</time>
  <course>289.23</course>
  <speed>5.04</speed>
  <fix>3d</fix>
</trkpt>
<trkpt lat="40.0716346" lon="-105.2302657">
  <ele>1583.0</ele>
  <time>2026-08-28T17:51:17Z</time>
  <course>290.08</course>
  <speed>4.993285491537611</speed>
  <fix>3d</fix>
</trkpt>
<trkpt lat="40.0716314" lon="-105.2302516">
  <ele>1583.0</ele>
  <time>2026-08-28T17:51:17Z</time>
  <course>289.23</course>
  <speed>5.04</speed>
  <fix>3d</fix>
</trkpt>
<trkpt lat="40.0716361" lon="-105.2302713">
  <ele>1583.0</ele>
  <time>2026-08-28T17:51:17Z</time>
  <course>290.07</course>
  <speed>4.993285491537611</speed>
  <fix>3d</fix>
</trkpt>
<trkpt lat="40.0716343" lon="-105.2302627">
  <ele>1583.0</ele>
  <time>2026-08-28T17:51:17Z</time>
  <course>289.2</course>
  <speed>5.04</speed>
  <fix>3d</fix>
</trkpt>
<trkpt lat="40.0716376" lon="-105.2302769">
  <ele>1583.0</ele>
  <time>2026-08-28T17:51:17Z</time>
  <course>290.06</course>
  <speed>4.996498774141749</speed>
  <fix>3d</fix>
</trkpt>
<trkpt lat="40.0716343" lon="-105.2302627">
  <ele>1583.0</ele>
  <time>2026-08-28T17:51:17Z</time>
  <course>289.2</course>
  <speed>5.04</speed>
  <fix>3d</fix>
</trkpt>
<trkpt lat="40.0716391" lon="-105.2302825">
  <ele>1583.0</ele>
  <time>2026-08-28T17:51:17Z</time>
  <course>290.06</course>
  <speed>4.996498774141749</speed>
  <fix>3d</fix>
</trkpt>
<trkpt lat="40.0716374" lon="-105.230274">
  <ele>1583.0</ele>
  <time>2026-08-28T17:51:17Z</time>
  <course>289.17</course>
  <speed>5.05</speed>
  <fix>3d</fix>
</trkpt>
<trkpt lat="40.0716406" lon="-105.230288">
  <ele>1583.0</ele>
  <time>2026-08-28T17:51:17Z</time>
  <course>290.05</course>
  <speed>4.996498774141749</speed>
  <fix>3d</fix>
</trkpt>
<trkpt lat="40.0716374" lon="-105.230274">
  <ele>1583.0</ele>
  <time>2026-08-28T17:51:17Z</time>
  <course>289.17</course>
  <speed>5.05</speed>
  <fix>3d</fix>
</trkpt>
<trkpt lat="40.0716421" lon="-105.2302936">
  <ele>1583.0</ele>
  <time>2026-08-28T17:51:17Z</time>
  <course>290.05</course>
  <speed>4.999729992709606</speed>
  <fix>3d</fix>
</trkpt>
<trkpt lat="40.0716403" lon="-105.2302852">
  <ele>1583.0</ele>
  <time>2026-08-28T17:51:17Z</time>
  <course>289.16</course>
  <speed>5.05</speed>
  <fix>3d</fix>
</trkpt>
<trkpt lat="40.0716436" lon="-105.2302991">
  <ele>1583.0</ele>
  <time>2026-08-28T17:51:17Z</time>
  <course>290.05</course>
  <speed>4.990270533748646</speed>
  <fix>3d</fix>
</trkpt>
<trkpt lat="40.0716403" lon="-105.2302852">
  <ele>1583.0</ele>
  <time>2026-08-28T17:51:17Z</time>
  <course>289.16</course>
  <speed>5.05</speed>
  <fix>3d</fix>
</trkpt>
<trkpt lat="40.0716451" lon="-105.2303046">
  <ele>1583.0</ele>
  <time>2026-08-28T17:51:17Z</time>
  <course>290.05</course>
  <speed>4.990270533748646</speed>
  <fix>3d</fix>
</trkpt>
<trkpt lat="40.0716434" lon="-105.2302963">
  <ele>1583.0</ele>
  <time>2026-08-28T17:51:17Z</time>
  <course>289.15</course>
  <speed>5.05</speed>
  <fix>3d</fix>
</trkpt>
<trkpt lat="40.0716466" lon="-105.2303101">
  <ele>1583.0</ele>
  <time>2026-08-28T17:51:17Z</time>
  <course>290.05</course>
  <speed>4.993525808484422</speed>
  <fix>3d</fix>
</trkpt>
<trkpt lat="40.0716434" lon="-105.2302963">
  <ele>1583.0</ele>
  <time>2026-08-28T17:51:17Z</time>
  <course>289.15</course>
  <speed>5.05</speed>
  <fix>3d</fix>
</trkpt>
<trkpt lat="40.0716479" lon="-105.2303146">
  <ele>1583.0</ele>
  <time>2026-08-28T17:51:17Z</time>
  <course>290.05</course>
  <speed>4.993525808484422</speed>
  <fix>3d</fix>
</trkpt>
<trkpt lat="40.0716463" lon="-105.2303076">
  <ele>1583.0</ele>
  <time>2026-08-28T17:51:17Z</time>
  <course>289.15</course>
  <speed>5.06</speed>
  <fix>3d</fix>
</trkpt>
<trkpt lat="40.0716494" lon="-105.2303202">
  <ele>1583.0</ele>
  <time>2026-08-28T17:51:17Z</time>
  <course>290.04</course>
  <speed>4.993525808484422</speed>
  <fix>3d</fix>
</trkpt>
<trkpt lat="40.0716463" lon="-105.2303076">
  <ele>1583.0</ele>
  <time>2026-08-28T17:51:17Z</time>
  <course>289.15</course>
  <speed>5.06</speed>
  <fix>3d</fix>
</trkpt>
<trkpt lat="40.0716509" lon="-105.2303258">
  <ele>1583.0</ele>
  <time>2026-08-28T17:51:17Z</time>
  <course>290.04</course>
  <speed>4.996798975344115</speed>
  <fix>3d</fix>
</trkpt>
<trkpt lat="40.0716493" lon="-105.2303188">
  <ele>1583.0</ele>
  <time>2026-08-28T17:51:17Z</time>
  <course>289.15</course>
  <speed>5.06</speed>
  <fix>3d</fix>
</trkpt>
<trkpt lat="40.0716524" lon="-105.2303314">
  <ele>1583.0</ele>
  <time>2026-08-28T17:51:17Z</time>
  <course>290.04</course>
  <speed>4.996798975344115</speed>
  <fix>3d</fix>
</trkpt>
<trkpt lat="40.0716493" lon="-105.2303188">
  <ele>1583.0</ele>
  <time>2026-08-28T17:51:17Z</time>
  <course>289.15</course>
  <speed>5.06</speed>
  <fix>3d</fix>
</trkpt>
<trkpt lat="40.0716539" lon="-105.230337">
  <ele>1583.0</ele>
  <time>2026-08-28T17:51:17Z</time>
  <course>290.04</course>
  <speed>4.996798975344115</speed>
  <fix>3d</fix>
</trkpt>
<trkpt lat="40.0716522" lon="-105.2303301">
  <ele>1583.0</ele>
  <time>2026-08-28T17:51:17Z</time>
  <course>289.15</course>
  <speed>5.07</speed>
  <fix>3d</fix>
</trkpt>
<trkpt lat="40.0716555" lon="-105.2303426">
  <ele>1582.99</ele>
  <time>2026-08-28T17:51:17Z</time>
  <course>290.04</course>
  <speed>5.000089999190014</speed>
  <fix>3d</fix>
</trkpt>
<trkpt lat="40.0716522" lon="-105.2303301">
  <ele>1583.0</ele>
  <time>2026-08-28T17:51:17Z</time>
  <course>289.15</course>
  <speed>5.07</speed>
  <fix>3d</fix>
</trkpt>
<trkpt lat="40.071657" lon="-105.2303482">
  <ele>1582.99</ele>
  <time>2026-08-28T17:51:17Z</time>
  <course>290.04</course>
  <speed>5.000089999190014</speed>
  <fix>3d</fix>
</trkpt>
<trkpt lat="40.0716553" lon="-105.2303413">
  <ele>1583.0</ele>
  <time>2026-08-28T17:51:17Z</time>
  <course>289.15</course>
  <speed>5.07</speed>
  <fix>3d</fix>
</trkpt>
<trkpt lat="40.0716585" lon="-105.2303539">
  <ele>1582.99</ele>
  <time>2026-08-28T17:51:17Z</time>
  <course>290.03</course>
  <speed>5.000089999190014</speed>
  <fix>3d</fix>
</trkpt>
<trkpt lat="40.0716553" lon="-105.2303413">
  <ele>1583.0</ele>
  <time>2026-08-28T17:51:17Z</time>
  <course>289.15</course>
  <speed>5.07</speed>
  <fix>3d</fix>
</trkpt>
<trkpt lat="40.07166" lon="-105.2303596">
  <ele>1583.0</ele>
  <time>2026-08-28T17:51:17Z</time>
  <course>290.03</course>
  <speed>5.003398844785412</speed>
  <fix>3d</fix>
</trkpt>
<trkpt lat="40.0716582" lon="-105.2303526">
  <ele>1583.0</ele>
  <time>2026-08-28T17:51:17Z</time>
  <course>289.15</course>
  <speed>5.07</speed>
  <fix>3d</fix>
</trkpt>
<trkpt lat="40.0716616" lon="-105.2303652">
  <ele>1583.0</ele>
  <time>2026-08-28T17:51:17Z</time>
  <course>290.03</course>
  <speed>5.012833530050644</speed>
  <fix>3d</fix>
</trkpt>
<trkpt lat="40.0716582" lon="-105.2303526">
  <ele>1583.0</ele>
  <time>2026-08-28T17:51:17Z</time>
  <course>289.15</course>
  <speed>5.07</speed>
  <fix>3d</fix>
</trkpt>
<trkpt lat="40.0716634" lon="-105.230372">
  <ele>1583.0</ele>
  <time>2026-08-28T17:51:17Z</time>
  <course>290.03</course>
  <speed>5.003398844785412</speed>
  <fix>3d</fix>
</trkpt>
<trkpt lat="40.0716613" lon="-105.2303638">
  <ele>1583.0</ele>
  <time>2026-08-28T17:51:17Z</time>
  <course>289.15</course>
  <speed>5.07</speed>
  <fix>3d</fix>
</trkpt>
<trkpt lat="40.0716649" lon="-105.2303776">
  <ele>1583.0</ele>
  <time>2026-08-28T17:51:17Z</time>
  <course>290.02</course>
  <speed>5.003398844785412</speed>
  <fix>3d</fix>
</trkpt>
<trkpt lat="40.0716613" lon="-105.2303638">
  <ele>1583.0</ele>
  <time>2026-08-28T17:51:17Z</time>
  <course>289.15</course>
  <speed>5.07</speed>
  <fix>3d</fix>
</trkpt>
<trkpt lat="40.0716664" lon="-105.2303833">
  <ele>1583.0</ele>
  <time>2026-08-28T17:51:17Z</time>
  <course>290.02</course>
  <speed>5.003398844785412</speed>
  <fix>3d</fix>
</trkpt>
<trkpt lat="40.0716642" lon="-105.2303751">
  <ele>1583.0</ele>
  <time>2026-08-28T17:51:17Z</time>
  <course>289.15</course>
  <speed>5.06</speed>
  <fix>3d</fix>
</trkpt>
<trkpt lat="40.0716679" lon="-105.2303889">
  <ele>1583.0</ele>
  <time>2026-08-28T17:51:17Z</time>
  <course>290.02</course>
  <speed>5.006725476796186</speed>
  <fix>3d</fix>
</trkpt>
<trkpt lat="40.0716642" lon="-105.2303751">
  <ele>1583.0</ele>
  <time>2026-08-28T17:51:17Z</time>
  <course>289.15</course>
  <speed>5.06</speed>
  <fix>3d</fix>
</trkpt>
<trkpt lat="40.0716695" lon="-105.2303945">
  <ele>1582.99</ele>
  <time>2026-08-28T17:51:17Z</time>
  <course>290.02</course>
  <speed>5.006725476796186</speed>
  <fix>3d</fix>
</trkpt>
<trkpt lat="40.0716673" lon="-105.2303863">
  <ele>1583.0</ele>
  <time>2026-08-28T17:51:17Z</time>
  <course>289.15</course>
  <speed>5.06</speed>
  <fix>3d</fix>
</trkpt>
<trkpt lat="40.071671" lon="-105.2304001">
  <ele>1582.99</ele>
  <time>2026-08-28T17:51:17Z</time>
  <course>290.02</course>
  <speed>5.006725476796186</speed>
  <fix>3d</fix>
</trkpt>
<trkpt lat="40.0716673" lon="-105.2303863">
  <ele>1583.0</ele>
  <time>2026-08-28T17:51:17Z</time>
  <course>289.15</course>
  <speed>5.06</speed>
  <fix>3d</fix>
</trkpt>
<trkpt lat="40.0716725" lon="-105.2304057">
  <ele>1582.99</ele>
  <time>2026-08-28T17:51:17Z</time>
  <course>290.02</course>
  <speed>5.006725476796186</speed>
  <fix>3d</fix>
</trkpt>
<trkpt lat="40.0716702" lon="-105.2303976">
  <ele>1583.0</ele>
  <time>2026-08-28T17:51:17Z</time>
  <course>289.15</course>
  <speed>5.06</speed>
  <fix>3d</fix>
</trkpt>
<trkpt lat="40.071674" lon="-105.2304112">
  <ele>1582.98</ele>
  <time>2026-08-28T17:51:17Z</time>
  <course>290.02</course>
  <speed>4.997299270606074</speed>
  <fix>3d</fix>
</trkpt>
<trkpt lat="40.0716702" lon="-105.2303976">
  <ele>1583.0</ele>
  <time>2026-08-28T17:51:17Z</time>
  <course>289.15</course>
  <speed>5.06</speed>
  <fix>3d</fix>
</trkpt>
<trkpt lat="40.0716755" lon="-105.2304168">
  <ele>1582.98</ele>
  <time>2026-08-28T17:51:17Z</time>
  <course>290.02</course>
  <speed>4.997299270606074</speed>
  <fix>3d</fix>
</trkpt>
<trkpt lat="40.0716732" lon="-105.2304087">
  <ele>1583.0</ele>
  <time>2026-08-28T17:51:17Z</time>
  <course>289.15</course>
  <speed>5.05</speed>
  <fix>3d</fix>
</trkpt>
<trkpt lat="40.0716769" lon="-105.2304223">
  <ele>1582.97</ele>
  <time>2026-08-28T17:51:17Z</time>
  <course>290.02</course>
  <speed>4.997299270606074</speed>
  <fix>3d</fix>
</trkpt>
<trkpt lat="40.0716732" lon="-105.2304087">
  <ele>1583.0</ele>
  <time>2026-08-28T17:51:17Z</time>
  <course>289.15</course>
  <speed>5.05</speed>
  <fix>3d</fix>
</trkpt>
<trkpt lat="40.0716784" lon="-105.2304278">
  <ele>1582.97</ele>
  <time>2026-08-28T17:51:17Z</time>
  <course>290.02</course>
  <speed>4.987875299162962</speed>
  <fix>3d</fix>
</trkpt>
<trkpt lat="40.0716762" lon="-105.23042">
  <ele>1583.0</ele>
  <time>2026-08-28T17:51:17Z</time>
  <course>289.15</course>
  <speed>5.05</speed>
  <fix>3d</fix>
</trkpt>
<trkpt lat="40.0716796" lon="-105.2304323">
  <ele>1582.97</ele>
  <time>2026-08-28T17:51:17Z</time>
  <course>290.05</course>
  <speed>4.987875299162962</speed>
  <fix>3d</fix>
</trkpt>
<trkpt lat="40.0716762" lon="-105.23042">
  <ele>1583.0</ele>
  <time>2026-08-28T17:51:17Z</time>
  <course>289.15</course>
  <speed>5.05</speed>
  <fix>3d</fix>
</trkpt>
<trkpt lat="40.0716811" lon="-105.2304378">
  <ele>1582.97</ele>
  <time>2026-08-28T17:51:17Z</time>
  <course>290.97</course>
  <speed>4.98712341936712</speed>
  <fix>3d</fix>
</trkpt>
<trkpt lat="40.0716792" lon="-105.2304312">
  <ele>1583.0</ele>
  <time>2026-08-28T17:51:17Z</time>
  <course>289.63</course>
  <speed>5.05</speed>
  <fix>3d</fix>
</trkpt>
<trkpt lat="40.0716828" lon="-105.2304434">
  <ele>1582.97</ele>
  <time>2026-08-28T17:51:17Z</time>
  <course>293.03</course>
  <speed>4.984616334282911</speed>
  <fix>3d</fix>
</trkpt>
<trkpt lat="40.0716792" lon="-105.2304312">
  <ele>1583.0</ele>
  <time>2026-08-28T17:51:17Z</time>
  <course>289.63</course>
  <speed>5.05</speed>
  <fix>3d</fix>
</trkpt>
<trkpt lat="40.0716846" lon="-105.2304487">
  <ele>1582.97</ele>
  <time>2026-08-28T17:51:17Z</time>
  <course>296.17</course>
  <speed>4.977881075317087</speed>
  <fix>3d</fix>
</trkpt>
<trkpt lat="40.0716824" lon="-105.2304422">
  <ele>1583.0</ele>
  <time>2026-08-28T17:51:17Z</time>
  <course>292.74</course>
  <speed>5.04</speed>
  <fix>3d</fix>
</trkpt>
<trkpt lat="40.0716868" lon="-105.230454">
  <ele>1582.97</ele>
  <time>2026-08-28T17:51:17Z</time>
  <course>300.45</course>
  <speed>4.97896575605818</speed>
  <fix>3d</fix>
</trkpt>
<trkpt lat="40.0716824" lon="-105.2304422">
  <ele>1583.0</ele>
  <time>2026-08-28T17:51:17Z</time>
  <course>292.74</course>
  <speed>5.04</speed>
  <fix>3d</fix>
</trkpt>
<trkpt lat="40.0716892" lon="-105.2304589">
  <ele>1582.97</ele>
  <time>2026-08-28T17:51:17Z</time>
  <course>305.86</course>
  <speed>4.984776825495802</speed>
  <fix>3d</fix>
</trkpt>
<trkpt lat="40.0716864" lon="-105.2304529">
  <ele>1583.0</ele>
  <time>2026-08-28T17:51:17Z</time>
  <course>300.22</course>
  <speed>5.03</speed>
  <fix>3d</fix>
</trkpt>
<trkpt lat="40.0716921" lon="-105.2304636">
  <ele>1582.97</ele>
  <time>2026-08-28T17:51:17Z</time>
  <course>312.11</course>
  <speed>4.983833865609888</speed>
  <fix>3d</fix>
</trkpt>
<trkpt lat="40.0716864" lon="-105.2304529">
  <ele>1583.0</ele>
  <time>2026-08-28T17:51:17Z</time>
  <course>300.22</course>
  <speed>5.03</speed>
  <fix>3d</fix>
</trkpt>
<trkpt lat="40.0716954" lon="-105.2304678">
  <ele>1582.96</ele>
  <time>2026-08-28T17:51:17Z</time>
  <course>318.38</course>
  <speed>4.981134408947423</speed>
  <fix>3d</fix>
</trkpt>
<trkpt lat="40.0716916" lon="-105.2304624">
  <ele>1583.0</ele>
  <time>2026-08-28T17:51:17Z</time>
  <course>311.33</course>
  <speed>5.02</speed>
  <fix>3d</fix>
</trkpt>
<trkpt lat="40.071699" lon="-105.2304714">
  <ele>1582.96</ele>
  <time>2026-08-28T17:51:17Z</time>
  <course>324.6</course>
  <speed>4.990761464947008</speed>
  <fix>3d</fix>
</trkpt>
<trkpt lat="40.0716916" lon="-105.2304624">
  <ele>1583.0</ele>
  <time>2026-08-28T17:51:17Z</time>
  <course>311.33</course>
  <speed>5.02</speed>
  <fix>3d</fix>
</trkpt>
<trkpt lat="40.0717037" lon="-105.2304751">
  <ele>1582.96</ele>
  <time>2026-08-28T17:51:17Z</time>
  <course>332.07</course>
  <speed>4.995768209194658</speed>
  <fix>3d</fix>
</trkpt>
<trkpt lat="40.0716983" lon="-105.2304704">
  <ele>1583.0</ele>
  <time>2026-08-28T17:51:17Z</time>
  <course>323.8</course>
  <speed>5.02</speed>
  <fix>3d</fix>
</trkpt>
<trkpt lat="40.0717079" lon="-105.2304775">
  <ele>1582.95</ele>
  <time>2026-08-28T17:51:17Z</time>
  <course>338.29</course>
  <speed>5.001299831043926</speed>
  <fix>3d</fix>
</trkpt>
<trkpt lat="40.0716983" lon="-105.2304704">
  <ele>1583.0</ele>
  <time>2026-08-28T17:51:17Z</time>
  <course>323.8</course>
  <speed>5.02</speed>
  <fix>3d</fix>
</trkpt>
<trkpt lat="40.0717123" lon="-105.2304793">
  <ele>1582.95</ele>
  <time>2026-08-28T17:51:17Z</time>
  <course>344.51</course>
  <speed>5.01099790460942</speed>
  <fix>3d</fix>
</trkpt>
<trkpt lat="40.0717061" lon="-105.2304762">
  <ele>1583.0</ele>
  <time>2026-08-28T17:51:17Z</time>
  <course>336.25</course>
  <speed>5.02</speed>
  <fix>3d</fix>
</trkpt>
<trkpt lat="40.0717167" lon="-105.2304805">
  <ele>1582.94</ele>
  <time>2026-08-28T17:51:17Z</time>
  <course>350.74</course>
  <speed>5.011985634456667</speed>
  <fix>3d</fix>
</trkpt>
<trkpt lat="40.0717061" lon="-105.2304762">
  <ele>1583.0</ele>
  <time>2026-08-28T17:51:17Z</time>
  <course>336.25</course>
  <speed>5.02</speed>
  <fix>3d</fix>
</trkpt>
<trkpt lat="40.0717213" lon="-105.230481">
  <ele>1582.94</ele>
  <time>2026-08-28T17:51:17Z</time>
  <course>356.96</course>
  <speed>5.0228776612615205</speed>
  <fix>3d</fix>
</trkpt>
<trkpt lat="40.0717147" lon="-105.2304798">
  <ele>1583.0</ele>
  <time>2026-08-28T17:51:17Z</time>
  <course>348.69</course>
  <speed>5.02</speed>
  <fix>3d</fix>
</trkpt>
<trkpt lat="40.0717259" lon="-105.2304808">
  <ele>1582.93</ele>
  <time>2026-08-28T17:51:17Z</time>
  <course>3.17</course>
  <speed>5.033616989799681</speed>
  <fix>3d</fix>
</trkpt>
<trkpt lat="40.0717147" lon="-105.2304798">
  <ele>1583.0</ele>
  <time>2026-08-28T17:51:17Z</time>
  <course>348.69</course>
  <speed>5.02</speed>
  <fix>3d</fix>
</trkpt>
<trkpt lat="40.0717304" lon="-105.2304801">
  <ele>1582.93</ele>
  <time>2026-08-28T17:51:17Z</time>
  <course>9.39</course>
  <speed>5.034769110892773</speed>
  <fix>3d</fix>
</trkpt>
<trkpt lat="40.0717237" lon="-105.2304809">
  <ele>1583.0</ele>
  <time>2026-08-28T17:51:17Z</time>
  <course>1.15</course>
  <speed>5.01</speed>
  <fix>3d</fix>
</trkpt>
<trkpt lat="40.0717348" lon="-105.2304787">
  <ele>1582.93</ele>
  <time>2026-08-28T17:51:17Z</time>
  <course>15.6</course>
  <speed>5.0333785869930345</speed>
  <fix>3d</fix>
</trkpt>
<trkpt lat="40.0717237" lon="-105.2304809">
  <ele>1583.0</ele>
  <time>2026-08-28T17:51:17Z</time>
  <course>1.15</course>
  <speed>5.01</speed>
  <fix>3d</fix>
</trkpt>
<trkpt lat="40.0717391" lon="-105.2304767">
  <ele>1582.92</ele>
  <time>2026-08-28T17:51:17Z</time>
  <course>21.8</course>
  <speed>5.036983224113418</speed>
  <fix>3d</fix>
</trkpt>
<trkpt lat="40.0717326" lon="-105.2304794">
  <ele>1583.0</ele>
  <time>2026-08-28T17:51:17Z</time>
  <course>13.59</course>
  <speed>5.0</speed>
  <fix>3d</fix>
</trkpt>
<trkpt lat="40.0717431" lon="-105.2304742">
  <ele>1582.92</ele>
  <time>2026-08-28T17:51:17Z</time>
  <course>27.98</course>
  <speed>5.031262267065791</speed>
  <fix>3d</fix>
</trkpt>
<trkpt lat="40.0717326" lon="-105.2304794">
  <ele>1583.0</ele>
  <time>2026-08-28T17:51:17Z</time>
  <course>13.59</course>
  <speed>5.0</speed>
  <fix>3d</fix>
</trkpt>
<trkpt lat="40.0717469" lon="-105.230471">
  <ele>1582.92</ele>
  <time>2026-08-28T17:51:17Z</time>
  <course>34.16</course>
  <speed>5.03011928287988</speed>
  <fix>3d</fix>
</trkpt>
<trkpt lat="40.071741" lon="-105.2304755">
  <ele>1583.0</ele>
  <time>2026-08-28T17:51:17Z</time>
  <course>25.98</course>
  <speed>4.99</speed>
  <fix>3d</fix>
</trkpt>
<trkpt lat="40.0717505" lon="-105.2304674">
  <ele>1582.92</ele>
  <time>2026-08-28T17:51:17Z</time>
  <course>40.26</course>
  <speed>5.030983999179485</speed>
  <fix>3d</fix>
</trkpt>
<trkpt lat="40.071741" lon="-105.2304755">
  <ele>1583.0</ele>
  <time>2026-08-28T17:51:17Z</time>
  <course>25.98</course>
  <speed>4.99</speed>
  <fix>3d</fix>
</trkpt>
<trkpt lat="40.0717531" lon="-105.2304642">
  <ele>1582.92</ele>
  <time>2026-08-28T17:51:17Z</time>
  <course>44.36</course>
  <speed>5.020537819795804</speed>
  <fix>3d</fix>
</trkpt>
<trkpt lat="40.0717486" lon="-105.2304693">
  <ele>1583.0</ele>
  <time>2026-08-28T17:51:17Z</time>
  <course>37.85</course>
  <speed>4.98</speed>
  <fix>3d</fix>
</trkpt>
<trkpt lat="40.0717561" lon="-105.2304598">
  <ele>1582.92</ele>
  <time>2026-08-28T17:51:17Z</time>
  <course>48.72</course>
  <speed>5.023086700426342</speed>
  <fix>3d</fix>
</trkpt>
<trkpt lat="40.0717486" lon="-105.2304693">
  <ele>1583.0</ele>
  <time>2026-08-28T17:51:17Z</time>
  <course>37.85</course>
  <speed>4.98</speed>
  <fix>3d</fix>
</trkpt>
<trkpt lat="40.0717589" lon="-105.2304552">
  <ele>1582.91</ele>
  <time>2026-08-28T17:51:17Z</time>
  <course>52.38</course>
  <speed>5.0160143540464475</speed>
  <fix>3d</fix>
</trkpt>
<trkpt lat="40.0717552" lon="-105.2304613">
  <ele>1583.0</ele>
  <time>2026-08-28T17:51:17Z</time>
  <course>47.53</course>
  <speed>4.98</speed>
  <fix>3d</fix>
</trkpt>
<trkpt lat="40.0717615" lon="-105.2304505">
  <ele>1582.91</ele>
  <time>2026-08-28T17:51:17Z</time>
  <course>55.39</course>
  <speed>5.008961968312397</speed>
  <fix>3d</fix>
</trkpt>
<trkpt lat="40.0717552" lon="-105.2304613">
  <ele>1583.0</ele>
  <time>2026-08-28T17:51:17Z</time>
  <course>47.53</course>
  <speed>4.98</speed>
  <fix>3d</fix>
</trkpt>
<trkpt lat="40.0717639" lon="-105.2304455">
  <ele>1582.91</ele>
  <time>2026-08-28T17:51:17Z</time>
  <course>57.92</course>
  <speed>5.007833863058957</speed>
  <fix>3d</fix>
</trkpt>
<trkpt lat="40.0717607" lon="-105.2304522">
  <ele>1583.0</ele>
  <time>2026-08-28T17:51:17Z</time>
  <course>54.31</course>
  <speed>4.97</speed>
  <fix>3d</fix>
</trkpt>
<trkpt lat="40.0717662" lon="-105.2304405">
  <ele>1582.91</ele>
  <time>2026-08-28T17:51:17Z</time>
  <course>60.02</course>
  <speed>5.00120985362542</speed>
  <fix>3d</fix>
</trkpt>
<trkpt lat="40.0717607" lon="-105.2304522">
  <ele>1583.0</ele>
  <time>2026-08-28T17:51:17Z</time>
  <course>54.31</course>
  <speed>4.97</speed>
  <fix>3d</fix>
</trkpt>
<trkpt lat="40.0717683" lon="-105.2304353">
  <ele>1582.91</ele>
  <time>2026-08-28T17:51:17Z</time>
  <course>61.77</course>
  <speed>5.0007299467177795</speed>
  <fix>3d</fix>
</trkpt>
<trkpt lat="40.0717657" lon="-105.2304425">
  <ele>1583.0</ele>
  <time>2026-08-28T17:51:17Z</time>
  <course>59.01</course>
  <speed>4.96</speed>
  <fix>3d</fix>
</trkpt>
<trkpt lat="40.0717704" lon="-105.2304301">
  <ele>1582.91</ele>
  <time>2026-08-28T17:51:17Z</time>
  <course>63.26</course>
  <speed>4.9954479278639266</speed>
  <fix>3d</fix>
</trkpt>
<trkpt lat="40.0717657" lon="-105.2304425">
  <ele>1583.0</ele>
  <time>2026-08-28T17:51:17Z</time>
  <course>59.01</course>
  <speed>4.96</speed>
  <fix>3d</fix>
</trkpt>
<trkpt lat="40.0717724" lon="-105.2304248">
  <ele>1582.91</ele>
  <time>2026-08-28T17:51:17Z</time>
  <course>64.49</course>
  <speed>4.9882361612096915</speed>
  <fix>3d</fix>
</trkpt>
<trkpt lat="40.07177" lon="-105.2304323">
  <ele>1583.0</ele>
  <time>2026-08-28T17:51:17Z</time>
  <course>62.29</course>
  <speed>4.95</speed>
  <fix>3d</fix>
</trkpt>
<trkpt lat="40.0717747" lon="-105.2304185">
  <ele>1582.91</ele>
  <time>2026-08-28T17:51:17Z</time>
  <course>65.7</course>
  <speed>4.991442677222689</speed>
  <fix>3d</fix>
</trkpt>
<trkpt lat="40.07177" lon="-105.2304323">
  <ele>1583.0</ele>
  <time>2026-08-28T17:51:17Z</time>
  <course>62.29</course>
  <speed>4.95</speed>
  <fix>3d</fix>
</trkpt>
<trkpt lat="40.0717765" lon="-105.2304131">
  <ele>1582.91</ele>
  <time>2026-08-28T17:51:17Z</time>
  <course>66.51</course>
  <speed>4.9857095783850065</speed>
  <fix>3d</fix>
</trkpt>
<trkpt lat="40.071774" lon="-105.2304219">
  <ele>1583.0</ele>
  <time>2026-08-28T17:51:17Z</time>
  <course>64.59</course>
  <speed>4.94</speed>
  <fix>3d</fix>
</trkpt>
<trkpt lat="40.0717783" lon="-105.2304078">
  <ele>1582.91</ele>
  <time>2026-08-28T17:51:17Z</time>
  <course>67.19</course>
  <speed>4.984616334282911</speed>
  <fix>3d</fix>
</trkpt>
<trkpt lat="40.071774" lon="-105.2304219">
  <ele>1583.0</ele>
  <time>2026-08-28T17:51:17Z</time>
  <course>64.59</course>
  <speed>4.94</speed>
  <fix>3d</fix>
</trkpt>
<trkpt lat="40.0717801" lon="-105.2304024">
  <ele>1582.92</ele>
  <time>2026-08-28T17:51:17Z</time>
  <course>67.77</course>
  <speed>4.978604222068672</speed>
  <fix>3d</fix>
</trkpt>
<trkpt lat="40.0717777" lon="-105.2304114">
  <ele>1583.0</ele>
  <time>2026-08-28T17:51:17Z</time>
  <course>66.18</course>
  <speed>4.94</speed>
  <fix>3d</fix>
</trkpt>
<trkpt lat="40.0717818" lon="-105.2303971">
  <ele>1582.92</ele>
  <time>2026-08-28T17:51:17Z</time>
  <course>68.25</course>
  <speed>4.972926703662543</speed>
  <fix>3d</fix>
</trkpt>
<trkpt lat="40.0717777" lon="-105.2304114">
  <ele>1583.0</ele>
  <time>2026-08-28T17:51:17Z</time>
  <course>66.18</course>
  <speed>4.94</speed>
  <fix>3d</fix>
</trkpt>
<trkpt lat="40.0717835" lon="-105.2303917">
  <ele>1582.92</ele>
  <time>2026-08-28T17:51:17Z</time>
  <course>68.64</course>
  <speed>4.974866832388582</speed>
  <fix>3d</fix>
</trkpt>
<trkpt lat="40.0717811" lon="-105.2304006">
  <ele>1583.0</ele>
  <time>2026-08-28T17:51:17Z</time>
  <course>67.29</course>
  <speed>4.94</speed>
  <fix>3d</fix>
</trkpt>
<trkpt lat="40.0717851" lon="-105.2303864">
  <ele>1582.92</ele>
  <time>2026-08-28T17:51:17Z</time>
  <course>68.98</course>
  <speed>4.9675849262997005</speed>
  <fix>3d</fix>
</trkpt>
<trkpt lat="40.0717811" lon="-105.2304006">
  <ele>1583.0</ele>
  <time>2026-08-28T17:51:17Z</time>
  <course>67.29</course>
  <speed>4.94</speed>
  <fix>3d</fix>
</trkpt>
<trkpt lat="40.0717868" lon="-105.230381">
  <ele>1582.92</ele>
  <time>2026-08-28T17:51:17Z</time>
  <course>69.25</course>
  <speed>4.960372969848135</speed>
  <fix>3d</fix>
</trkpt>
<trkpt lat="40.0717846" lon="-105.2303899">
  <ele>1583.0</ele>
  <time>2026-08-28T17:51:17Z</time>
  <course>68.05</course>
  <speed>4.94</speed>
  <fix>3d</fix>
</trkpt>
<trkpt lat="40.0717884" lon="-105.2303757">
  <ele>1582.92</ele>
  <time>2026-08-28T17:51:17Z</time>
  <course>69.47</course>
  <speed>4.956793318265348</speed>
  <fix>3d</fix>
</trkpt>
<trkpt lat="40.0717846" lon="-105.2303899">
  <ele>1583.0</ele>
  <time>2026-08-28T17:51:17Z</time>
  <course>68.05</course>
  <speed>4.94</speed>
  <fix>3d</fix>
</trkpt>
<trkpt lat="40.07179" lon="-105.2303704">
  <ele>1582.92</ele>
  <time>2026-08-28T17:51:17Z</time>
  <course>69.66</course>
  <speed>4.962579974166664</speed>
  <fix>3d</fix>
</trkpt>
<trkpt lat="40.0717879" lon="-105.230379">
  <ele>1583.0</ele>
  <time>2026-08-28T17:51:17Z</time>
  <course>68.57</course>
  <speed>4.94</speed>
  <fix>3d</fix>
</trkpt>
<trkpt lat="40.0717916" lon="-105.2303651">
  <ele>1582.92</ele>
  <time>2026-08-28T17:51:17Z</time>
  <course>69.8</course>
  <speed>4.962579974166664</speed>
  <fix>3d</fix>
</trkpt>
<trkpt lat="40.0717879" lon="-105.230379">
  <ele>1583.0</ele>
  <time>2026-08-28T17:51:17Z</time>
  <course>68.57</course>
  <speed>4.94</speed>
  <fix>3d</fix>
</trkpt>
<trkpt lat="40.0717929" lon="-105.2303607">
  <ele>1582.92</ele>
  <time>2026-08-28T17:51:17Z</time>
  <course>69.91</course>
  <speed>4.959042246240699</speed>
  <fix>3d</fix>
</trkpt>
<trkpt lat="40.0717911" lon="-105.2303683">
  <ele>1583.0</ele>
  <time>2026-08-28T17:51:17Z</time>
  <course>68.92</course>
  <speed>4.95</speed>
  <fix>3d</fix>
</trkpt>
<trkpt lat="40.0717945" lon="-105.2303554">
  <ele>1582.92</ele>
  <time>2026-08-28T17:51:17Z</time>
  <course>70.01</course>
  <speed>4.959042246240699</speed>
  <fix>3d</fix>
</trkpt>
<trkpt lat="40.0717911" lon="-105.2303683">
  <ele>1583.0</ele>
  <time>2026-08-28T17:51:17Z</time>
  <course>68.92</course>
  <speed>4.95</speed>
  <fix>3d</fix>
</trkpt>
<trkpt lat="40.0717961" lon="-105.23035">
  <ele>1582.92</ele>
  <time>2026-08-28T17:51:17Z</time>
  <course>70.08</course>
  <speed>4.962579974166664</speed>
  <fix>3d</fix>
</trkpt>
<trkpt lat="40.0717942" lon="-105.2303574">
  <ele>1583.0</ele>
  <time>2026-08-28T17:51:17Z</time>
  <course>69.13</course>
  <speed>4.95</speed>
  <fix>3d</fix>
</trkpt>
<trkpt lat="40.0717977" lon="-105.2303446">
  <ele>1582.92</ele>
  <time>2026-08-28T17:51:17Z</time>
  <course>70.15</course>
  <speed>4.962579974166664</speed>
  <fix>3d</fix>
</trkpt>
<trkpt lat="40.0717942" lon="-105.2303574">
  <ele>1583.0</ele>
  <time>2026-08-28T17:51:17Z</time>
  <course>69.13</course>
  <speed>4.95</speed>
  <fix>3d</fix>
</trkpt>
<trkpt lat="40.0717993" lon="-105.2303391">
  <ele>1582.92</ele>
  <time>2026-08-28T17:51:17Z</time>
  <course>70.22</course>
  <speed>4.971931214327085</speed>
  <fix>3d</fix>
</trkpt>
<trkpt lat="40.0717974" lon="-105.2303465">
  <ele>1583.0</ele>
  <time>2026-08-28T17:51:17Z</time>
  <course>69.28</course>
  <speed>4.97</speed>
  <fix>3d</fix>
</trkpt>
<trkpt lat="40.0718009" lon="-105.2303337">
  <ele>1582.92</ele>
  <time>2026-08-28T17:51:17Z</time>
  <course>70.29</course>
  <speed>4.971931214327085</speed>
  <fix>3d</fix>
</trkpt>
<trkpt lat="40.0717974" lon="-105.2303465">
  <ele>1583.0</ele>
  <time>2026-08-28T17:51:17Z</time>
  <course>69.28</course>
  <speed>4.97</speed>
  <fix>3d</fix>
</trkpt>
<trkpt lat="40.0718025" lon="-105.2303282">
  <ele>1582.92</ele>
  <time>2026-08-28T17:51:17Z</time>
  <course>70.31</course>
  <speed>4.981284974783113</speed>
  <fix>3d</fix>
</trkpt>
<trkpt lat="40.0718006" lon="-105.2303356">
  <ele>1583.0</ele>
  <time>2026-08-28T17:51:17Z</time>
  <course>69.39</course>
  <speed>4.98</speed>
  <fix>3d</fix>
</trkpt>
<trkpt lat="40.0718042" lon="-105.2303227">
  <ele>1582.92</ele>
  <time>2026-08-28T17:51:17Z</time>
  <course>70.32</course>
  <speed>4.984826977940157</speed>
  <fix>3d</fix>
</trkpt>
<trkpt lat="40.0718006" lon="-105.2303356">
  <ele>1583.0</ele>
  <time>2026-08-28T17:51:17Z</time>
  <course>69.39</course>
  <speed>4.98</speed>
  <fix>3d</fix>
</trkpt>
<trkpt lat="40.0718058" lon="-105.2303172">
  <ele>1582.93</ele>
  <time>2026-08-28T17:51:17Z</time>
  <course>70.33</course>
  <speed>4.984826977940157</speed>
  <fix>3d</fix>
</trkpt>
<trkpt lat="40.0718037" lon="-105.2303247">
  <ele>1583.0</ele>
  <time>2026-08-28T17:51:17Z</time>
  <course>69.44</course>
  <speed>4.99</speed>
  <fix>3d</fix>
</trkpt>
<trkpt lat="40.0718074" lon="-105.2303117">
  <ele>1582.93</ele>
  <time>2026-08-28T17:51:17Z</time>
  <course>70.33</course>
  <speed>4.988386512691253</speed>
  <fix>3d</fix>
</trkpt>
<trkpt lat="40.0718037" lon="-105.2303247">
  <ele>1583.0</ele>
  <time>2026-08-28T17:51:17Z</time>
  <course>69.44</course>
  <speed>4.99</speed>
  <fix>3d</fix>
</trkpt>
<trkpt lat="40.0718093" lon="-105.2303051">
  <ele>1582.93</ele>
  <time>2026-08-28T17:51:17Z</time>
  <course>70.33</course>
  <speed>4.988386512691253</speed>
  <fix>3d</fix>
</trkpt>
<trkpt lat="40.0718069" lon="-105.2303137">
  <ele>1583.0</ele>
  <time>2026-08-28T17:51:17Z</time>
  <course>69.44</course>
  <speed>4.99</speed>
  <fix>3d</fix>
</trkpt>
<trkpt lat="40.0718109" lon="-105.2302996">
  <ele>1582.94</ele>
  <time>2026-08-28T17:51:17Z</time>
  <course>70.33</course>
  <speed>4.991963541533532</speed>
  <fix>3d</fix>
</trkpt>
<trkpt lat="40.0718069" lon="-105.2303137">
  <ele>1583.0</ele>
  <time>2026-08-28T17:51:17Z</time>
  <course>69.44</course>
  <speed>4.99</speed>
  <fix>3d</fix>
</trkpt>
<trkpt lat="40.0718125" lon="-105.2302941">
  <ele>1582.94</ele>
  <time>2026-08-28T17:51:17Z</time>
  <course>70.33</course>
  <speed>4.991963541533532</speed>
  <fix>3d</fix>
</trkpt>
<trkpt lat="40.07181" lon="-105.2303027">
  <ele>1583.0</ele>
  <time>2026-08-28T17:51:17Z</time>
  <course>69.44</course>
  <speed>5.0</speed>
  <fix>3d</fix>
</trkpt>
<trkpt lat="40.0718141" lon="-105.2302886">
  <ele>1582.94</ele>
  <time>2026-08-28T17:51:17Z</time>
  <course>70.34</course>
  <speed>4.991963541533532</speed>
  <fix>3d</fix>
</trkpt>
<trkpt lat="40.07181" lon="-105.2303027">
  <ele>1583.0</ele>
  <time>2026-08-28T17:51:17Z</time>
  <course>69.44</course>
  <speed>5.0</speed>
  <fix>3d</fix>
</trkpt>
<trkpt lat="40.0718158" lon="-105.2302831">
  <ele>1582.95</ele>
  <time>2026-08-28T17:51:17Z</time>
  <course>70.34</course>
  <speed>4.995558026887487</speed>
  <fix>3d</fix>
</trkpt>
<trkpt lat="40.0718131" lon="-105.2302917">
  <ele>1583.0</ele>
  <time>2026-08-28T17:51:17Z</time>
  <course>69.44</course>
  <speed>5.0</speed>
  <fix>3d</fix>
</trkpt>
<trkpt lat="40.0718173" lon="-105.2302777">
  <ele>1582.95</ele>
  <time>2026-08-28T17:51:17Z</time>
  <course>70.34</course>
  <speed>4.995558026887487</speed>
  <fix>3d</fix>
</trkpt>
<trkpt lat="40.0718131" lon="-105.2302917">
  <ele>1583.0</ele>
  <time>2026-08-28T17:51:17Z</time>
  <course>69.44</course>
  <speed>5.0</speed>
  <fix>3d</fix>
</trkpt>
<trkpt lat="40.0718189" lon="-105.2302723">
  <ele>1582.96</ele>
  <time>2026-08-28T17:51:17Z</time>
  <course>70.34</course>
  <speed>4.995558026887487</speed>
  <fix>3d</fix>
</trkpt>
<trkpt lat="40.0718163" lon="-105.2302807">
  <ele>1583.0</ele>
  <time>2026-08-28T17:51:17Z</time>
  <course>69.44</course>
  <speed>5.01</speed>
  <fix>3d</fix>
</trkpt>
<trkpt lat="40.0718205" lon="-105.2302668">
  <ele>1582.96</ele>
  <time>2026-08-28T17:51:17Z</time>
  <course>70.34</course>
  <speed>4.995558026887487</speed>
  <fix>3d</fix>
</trkpt>
<trkpt lat="40.0718163" lon="-105.2302807">
  <ele>1583.0</ele>
  <time>2026-08-28T17:51:17Z</time>
  <course>69.44</course>
  <speed>5.01</speed>
  <fix>3d</fix>
</trkpt>
<trkpt lat="40.0718221" lon="-105.2302614">
  <ele>1582.96</ele>
  <time>2026-08-28T17:51:17Z</time>
  <course>70.34</course>
  <speed>4.995558026887487</speed>
  <fix>3d</fix>
</trkpt>
<trkpt lat="40.0718195" lon="-105.2302696">
  <ele>1583.0</ele>
  <time>2026-08-28T17:51:17Z</time>
  <course>69.44</course>
  <speed>5.01</speed>
  <fix>3d</fix>
</trkpt>
<trkpt lat="40.0718237" lon="-105.230256">
  <ele>1582.96</ele>
  <time>2026-08-28T17:51:17Z</time>
  <course>70.34</course>
  <speed>4.986231041578399</speed>
  <fix>3d</fix>
</trkpt>
<trkpt lat="40.0718195" lon="-105.2302696">
  <ele>1583.0</ele>
  <time>2026-08-28T17:51:17Z</time>
  <course>69.44</course>
  <speed>5.01</speed>
  <fix>3d</fix>
</trkpt>
<trkpt lat="40.0718252" lon="-105.2302505">
  <ele>1582.96</ele>
  <time>2026-08-28T17:51:17Z</time>
  <course>70.34</course>
  <speed>4.986231041578399</speed>
  <fix>3d</fix>
</trkpt>
<trkpt lat="40.0718227" lon="-105.2302586">
  <ele>1583.0</ele>
  <time>2026-08-28T17:51:17Z</time>
  <course>69.44</course>
  <speed>5.02</speed>
  <fix>3d</fix>
</trkpt>
<trkpt lat="40.0718265" lon="-105.2302462">
  <ele>1582.95</ele>
  <time>2026-08-28T17:51:17Z</time>
  <course>70.35</course>
  <speed>4.986231041578399</speed>
  <fix>3d</fix>
</trkpt>
<trkpt lat="40.0718227" lon="-105.2302586">
  <ele>1583.0</ele>
  <time>2026-08-28T17:51:17Z</time>
  <course>69.44</course>
  <speed>5.02</speed>
  <fix>3d</fix>
</trkpt>
<trkpt lat="40.0718281" lon="-105.2302407">
  <ele>1582.95</ele>
  <time>2026-08-28T17:51:17Z</time>
  <course>70.35</course>
  <speed>4.986231041578399</speed>
  <fix>3d</fix>
</trkpt>
<trkpt lat="40.0718258" lon="-105.2302476">
  <ele>1583.0</ele>
  <time>2026-08-28T17:51:17Z</time>
  <course>69.44</course>
  <speed>5.02</speed>
  <fix>3d</fix>
</trkpt>
<trkpt lat="40.0718297" lon="-105.2302352">
  <ele>1582.95</ele>
  <time>2026-08-28T17:51:17Z</time>
  <course>70.35</course>
  <speed>4.986231041578399</speed>
  <fix>3d</fix>
</trkpt>
<trkpt lat="40.0718258" lon="-105.2302476">
  <ele>1583.0</ele>
  <time>2026-08-28T17:51:17Z</time>
  <course>69.44</course>
  <speed>5.02</speed>
  <fix>3d</fix>
</trkpt>
<trkpt lat="40.0718313" lon="-105.2302298">
  <ele>1582.95</ele>
  <time>2026-08-28T17:51:17Z</time>
  <course>70.35</course>
  <speed>4.986231041578399</speed>
  <fix>3d</fix>
</trkpt>
<trkpt lat="40.0718289" lon="-105.2302365">
  <ele>1583.0</ele>
  <time>2026-08-28T17:51:17Z</time>
  <course>69.44</course>
  <speed>5.03</speed>
  <fix>3d</fix>
</trkpt>
<trkpt lat="40.0718328" lon="-105.2302242">
  <ele>1582.95</ele>
  <time>2026-08-28T17:51:17Z</time>
  <course>70.35</course>
  <speed>4.995558026887487</speed>
  <fix>3d</fix>
</trkpt>
<trkpt lat="40.0718289" lon="-105.2302365">
  <ele>1583.0</ele>
  <time>2026-08-28T17:51:17Z</time>
  <course>69.44</course>
  <speed>5.03</speed>
  <fix>3d</fix>
</trkpt>
<trkpt lat="40.0718344" lon="-105.2302187">
  <ele>1582.95</ele>
  <time>2026-08-28T17:51:17Z</time>
  <course>70.35</course>
  <speed>4.995558026887487</speed>
  <fix>3d</fix>
</trkpt>
<trkpt lat="40.0718322" lon="-105.2302254">
  <ele>1583.0</ele>
  <time>2026-08-28T17:51:17Z</time>
  <course>69.44</course>
  <speed>5.03</speed>
  <fix>3d</fix>
</trkpt>
<trkpt lat="40.071836" lon="-105.2302131">
  <ele>1582.95</ele>
  <time>2026-08-28T17:51:17Z</time>
  <course>70.36</course>
  <speed>4.995558026887487</speed>
  <fix>3d</fix>
</trkpt>
<trkpt lat="40.0718322" lon="-105.2302254">
  <ele>1583.0</ele>
  <time>2026-08-28T17:51:17Z</time>
  <course>69.44</course>
  <speed>5.03</speed>
  <fix>3d</fix>
</trkpt>
<trkpt lat="40.0718377" lon="-105.2302075">
  <ele>1582.95</ele>
  <time>2026-08-28T17:51:17Z</time>
  <course>70.36</course>
  <speed>4.995558026887487</speed>
  <fix>3d</fix>
</trkpt>
<trkpt lat="40.0718354" lon="-105.2302143">
  <ele>1583.0</ele>
  <time>2026-08-28T17:51:17Z</time>
  <course>69.44</course>
  <speed>5.04</speed>
  <fix>3d</fix>
</trkpt>
<trkpt lat="40.0718393" lon="-105.2302019">
  <ele>1582.95</ele>
  <time>2026-08-28T17:51:17Z</time>
  <course>70.36</course>
  <speed>5.004887611125748</speed>
  <fix>3d</fix>
</trkpt>
<trkpt lat="40.0718354" lon="-105.2302143">
  <ele>1583.0</ele>
  <time>2026-08-28T17:51:17Z</time>
  <course>69.44</course>
  <speed>5.04</speed>
  <fix>3d</fix>
</trkpt>
<trkpt lat="40.0718409" lon="-105.2301964">
  <ele>1582.95</ele>
  <time>2026-08-28T17:51:17Z</time>
  <course>70.36</course>
  <speed>5.004887611125748</speed>
  <fix>3d</fix>
</trkpt>
<trkpt lat="40.0718385" lon="-105.2302033">
  <ele>1583.0</ele>
  <time>2026-08-28T17:51:17Z</time>
  <course>69.44</course>
  <speed>5.04</speed>
  <fix>3d</fix>
</trkpt>
<trkpt lat="40.0718428" lon="-105.2301897">
  <ele>1582.95</ele>
  <time>2026-08-28T17:51:17Z</time>
  <course>70.37</course>
  <speed>5.004887611125748</speed>
  <fix>3d</fix>
</trkpt>
<trkpt lat="40.0718385" lon="-105.2302033">
  <ele>1583.0</ele>
  <time>2026-08-28T17:51:17Z</time>
  <course>69.44</course>
  <speed>5.04</speed>
  <fix>3d</fix>
</trkpt>
<trkpt lat="40.0718444" lon="-105.2301841">
  <ele>1582.95</ele>
  <time>2026-08-28T17:51:17Z</time>
  <course>70.37</course>
  <speed>5.004887611125748</speed>
  <fix>3d</fix>
</trkpt>
<trkpt lat="40.0718417" lon="-105.2301922">
  <ele>1583.0</ele>
  <time>2026-08-28T17:51:17Z</time>
  <course>69.44</course>
  <speed>5.04</speed>
  <fix>3d</fix>
</trkpt>
<trkpt lat="40.071846" lon="-105.2301785">
  <ele>1582.95</ele>
  <time>2026-08-28T17:51:17Z</time>
  <course>70.37</course>
  <speed>5.004887611125748</speed>
  <fix>3d</fix>
</trkpt>
<trkpt lat="40.0718417" lon="-105.2301922">
  <ele>1583.0</ele>
  <time>2026-08-28T17:51:17Z</time>
  <course>69.44</course>
  <speed>5.04</speed>
  <fix>3d</fix>
</trkpt>
<trkpt lat="40.0718476" lon="-105.230173">
  <ele>1582.95</ele>
  <time>2026-08-28T17:51:17Z</time>
  <course>70.38</course>
  <speed>5.004887611125748</speed>
  <fix>3d</fix>
</trkpt>
<trkpt lat="40.0718449" lon="-105.2301811">
  <ele>1583.0</ele>
  <time>2026-08-28T17:51:17Z</time>
  <course>69.44</course>
  <speed>5.04</speed>
  <fix>3d</fix>
</trkpt>
<trkpt lat="40.0718492" lon="-105.2301674">
  <ele>1582.96</ele>
  <time>2026-08-28T17:51:17Z</time>
  <course>70.38</course>
  <speed>5.004887611125748</speed>
  <fix>3d</fix>
</trkpt>
<trkpt lat="40.0718449" lon="-105.2301811">
  <ele>1583.0</ele>
  <time>2026-08-28T17:51:17Z</time>
  <course>69.44</course>
  <speed>5.04</speed>
  <fix>3d</fix>
</trkpt>
<trkpt lat="40.0718508" lon="-105.2301619">
  <ele>1582.96</ele>
  <time>2026-08-28T17:51:17Z</time>
  <course>70.38</course>
  <speed>5.001299831043926</speed>
  <fix>3d</fix>
</trkpt>
<trkpt lat="40.071848" lon="-105.23017">
  <ele>1583.0</ele>
  <time>2026-08-28T17:51:17Z</time>
  <course>69.44</course>
  <speed>5.04</speed>
  <fix>3d</fix>
</trkpt>
<trkpt lat="40.0718523" lon="-105.2301563">
  <ele>1582.96</ele>
  <time>2026-08-28T17:51:17Z</time>
  <course>70.38</course>
  <speed>5.001299831043926</speed>
  <fix>3d</fix>
</trkpt>
<trkpt lat="40.071848" lon="-105.23017">
  <ele>1583.0</ele>
  <time>2026-08-28T17:51:17Z</time>
  <course>69.44</course>
  <speed>5.04</speed>
  <fix>3d</fix>
</trkpt>
<trkpt lat="40.0718539" lon="-105.2301508">
  <ele>1582.96</ele>
  <time>2026-08-28T17:51:17Z</time>
  <course>70.38</course>
  <speed>5.001299831043926</speed>
  <fix>3d</fix>
</trkpt>
<trkpt lat="40.0718513" lon="-105.2301589">
  <ele>1583.0</ele>
  <time>2026-08-28T17:51:17Z</time>
  <course>69.44</course>
  <speed>5.04</speed>
  <fix>3d</fix>
</trkpt>
<trkpt lat="40.0718555" lon="-105.2301454">
  <ele>1582.96</ele>
  <time>2026-08-28T17:51:17Z</time>
  <course>70.38</course>
  <speed>5.001299831043926</speed>
  <fix>3d</fix>
</trkpt>
<trkpt lat="40.0718513" lon="-105.2301589">
  <ele>1583.0</ele>
  <time>2026-08-28T17:51:17Z</time>
  <course>69.44</course>
  <speed>5.04</speed>
  <fix>3d</fix>
</trkpt>
<trkpt lat="40.071857" lon="-105.2301399">
  <ele>1582.96</ele>
  <time>2026-08-28T17:51:17Z</time>
  <course>70.38</course>
  <speed>4.997729484475926</speed>
  <fix>3d</fix>
</trkpt>
<trkpt lat="40.0718545" lon="-105.2301478">
  <ele>1583.0</ele>
  <time>2026-08-28T17:51:17Z</time>
  <course>69.44</course>
  <speed>5.04</speed>
  <fix>3d</fix>
</trkpt>
<trkpt lat="40.0718586" lon="-105.2301344">
  <ele>1582.96</ele>
  <time>2026-08-28T17:51:17Z</time>
  <course>70.39</course>
  <speed>4.997729484475926</speed>
  <fix>3d</fix>
</trkpt>
<trkpt lat="40.0718545" lon="-105.2301478">
  <ele>1583.0</ele>
  <time>2026-08-28T17:51:17Z</time>
  <course>69.44</course>
  <speed>5.04</speed>
  <fix>3d</fix>
</trkpt>
<trkpt lat="40.0718599" lon="-105.23013">
  <ele>1582.96</ele>
  <time>2026-08-28T17:51:17Z</time>
  <course>70.43</course>
  <speed>4.997729484475926</speed>
  <fix>3d</fix>
</trkpt>
<trkpt lat="40.0718576" lon="-105.2301367">
  <ele>1583.0</ele>
  <time>2026-08-28T17:51:17Z</time>
  <course>69.47</course>
  <speed>5.04</speed>
  <fix>3d</fix>
</trkpt>
<trkpt lat="40.0718614" lon="-105.2301244">
  <ele>1582.96</ele>
  <time>2026-08-28T17:51:17Z</time>
  <course>71.39</course>
  <speed>4.985198090347063</speed>
  <fix>3d</fix>
</trkpt>
<trkpt lat="40.0718576" lon="-105.2301367">
  <ele>1583.0</ele>
  <time>2026-08-28T17:51:17Z</time>
  <course>69.47</course>
  <speed>5.04</speed>
  <fix>3d</fix>
</trkpt>
<trkpt lat="40.0718628" lon="-105.2301188">
  <ele>1582.96</ele>
  <time>2026-08-28T17:51:17Z</time>
  <course>73.49</course>
  <speed>4.984235146940802</speed>
  <fix>3d</fix>
</trkpt>
<trkpt lat="40.0718607" lon="-105.2301256">
  <ele>1583.0</ele>
  <time>2026-08-28T17:51:17Z</time>
  <course>71.02</course>
  <speed>5.03</speed>
  <fix>3d</fix>
</trkpt>
<trkpt lat="40.071864" lon="-105.2301131">
  <ele>1582.96</ele>
  <time>2026-08-28T17:51:17Z</time>
  <course>76.68</course>
  <speed>4.976946855251722</speed>
  <fix>3d</fix>
</trkpt>
<trkpt lat="40.0718607" lon="-105.2301256">
  <ele>1583.0</ele>
  <time>2026-08-28T17:51:17Z</time>
  <course>71.02</course>
  <speed>5.03</speed>
  <fix>3d</fix>
</trkpt>
<trkpt lat="40.071865" lon="-105.2301074">
  <ele>1582.95</ele>
  <time>2026-08-28T17:51:17Z</time>
  <course>81.02</course>
  <speed>4.9748969838580575</speed>
  <fix>3d</fix>
</trkpt>
<trkpt lat="40.0718632" lon="-105.2301143">
  <ele>1583.0</ele>
  <time>2026-08-28T17:51:17Z</time>
  <course>76.34</course>
  <speed>5.03</speed>
  <fix>3d</fix>
</trkpt>
<trkpt lat="40.0718654" lon="-105.2301015">
  <ele>1582.95</ele>
  <time>2026-08-28T17:51:17Z</time>
  <course>86.47</course>
  <speed>4.963809021306118</speed>
  <fix>3d</fix>
</trkpt>
<trkpt lat="40.0718632" lon="-105.2301143">
  <ele>1583.0</ele>
  <time>2026-08-28T17:51:17Z</time>
  <course>76.34</course>
  <speed>5.03</speed>
  <fix>3d</fix>
</trkpt>
<trkpt lat="40.0718655" lon="-105.2300955">
  <ele>1582.95</ele>
  <time>2026-08-28T17:51:17Z</time>
  <course>92.84</course>
  <speed>4.963265054377008</speed>
  <fix>3d</fix>
</trkpt>
<trkpt lat="40.0718647" lon="-105.2301027">
  <ele>1583.0</ele>
  <time>2026-08-28T17:51:17Z</time>
  <course>86.05</course>
  <speed>5.02</speed>
  <fix>3d</fix>
</trkpt>
<trkpt lat="40.0718649" lon="-105.2300896">
  <ele>1582.94</ele>
  <time>2026-08-28T17:51:17Z</time>
  <course>99.27</course>
  <speed>4.95858850883999</speed>
  <fix>3d</fix>
</trkpt>
<trkpt lat="40.0718647" lon="-105.2301027">
  <ele>1583.0</ele>
  <time>2026-08-28T17:51:17Z</time>
  <course>86.05</course>
  <speed>5.02</speed>
  <fix>3d</fix>
</trkpt>
<trkpt lat="40.0718639" lon="-105.2300838">
  <ele>1582.94</ele>
  <time>2026-08-28T17:51:17Z</time>
  <course>105.67</course>
  <speed>4.958911170811593</speed>
  <fix>3d</fix>
</trkpt>
<trkpt lat="40.0718644" lon="-105.2300909">
  <ele>1583.0</ele>
  <time>2026-08-28T17:51:17Z</time>
  <course>98.37</course>
  <speed>5.02</speed>
  <fix>3d</fix>
</trkpt>
<trkpt lat="40.0718623" lon="-105.2300782">
  <ele>1582.94</ele>
  <time>2026-08-28T17:51:17Z</time>
  <course>112.09</course>
  <speed>4.9618141843483015</speed>
  <fix>3d</fix>
</trkpt>
<trkpt lat="40.0718644" lon="-105.2300909">
  <ele>1583.0</ele>
  <time>2026-08-28T17:51:17Z</time>
  <course>98.37</course>
  <speed>5.02</speed>
  <fix>3d</fix>
</trkpt>
<trkpt lat="40.0718599" lon="-105.2300718">
  <ele>1582.94</ele>
  <time>2026-08-28T17:51:17Z</time>
  <course>119.73</course>
  <speed>4.963909749381026</speed>
  <fix>3d</fix>
</trkpt>
<trkpt lat="40.0718622" lon="-105.2300795">
  <ele>1583.0</ele>
  <time>2026-08-28T17:51:17Z</time>
  <course>111.16</course>
  <speed>5.03</speed>
  <fix>3d</fix>
</trkpt>
<trkpt lat="40.0718574" lon="-105.2300668">
  <ele>1582.94</ele>
  <time>2026-08-28T17:51:17Z</time>
  <course>126.11</course>
  <speed>4.982057807773812</speed>
  <fix>3d</fix>
</trkpt>
<trkpt lat="40.0718622" lon="-105.2300795">
  <ele>1583.0</ele>
  <time>2026-08-28T17:51:17Z</time>
  <course>111.16</course>
  <speed>5.03</speed>
  <fix>3d</fix>
</trkpt>
<trkpt lat="40.0718544" lon="-105.2300623">
  <ele>1582.94</ele>
  <time>2026-08-28T17:51:17Z</time>
  <course>132.49</course>
  <speed>4.987755006012224</speed>
  <fix>3d</fix>
</trkpt>
<trkpt lat="40.071858" lon="-105.2300691">
  <ele>1583.0</ele>
  <time>2026-08-28T17:51:17Z</time>
  <course>123.94</course>
  <speed>5.04</speed>
  <fix>3d</fix>
</trkpt>
<trkpt lat="40.071851" lon="-105.2300582">
  <ele>1582.93</ele>
  <time>2026-08-28T17:51:17Z</time>
  <course>138.88</course>
  <speed>5.002529360233681</speed>
  <fix>3d</fix>
</trkpt>
<trkpt lat="40.071858" lon="-105.2300691">
  <ele>1583.0</ele>
  <time>2026-08-28T17:51:17Z</time>
  <course>123.94</course>
  <speed>5.04</speed>
  <fix>3d</fix>
</trkpt>
<trkpt lat="40.0718473" lon="-105.2300546">
  <ele>1582.93</ele>
  <time>2026-08-28T17:51:17Z</time>
  <course>145.2</course>
  <speed>5.008961968312397</speed>
  <fix>3d</fix>
</trkpt>
<trkpt lat="40.0718521" lon="-105.2300601">
  <ele>1583.0</ele>
  <time>2026-08-28T17:51:17Z</time>
  <course>136.72</course>
  <speed>5.05</speed>
  <fix>3d</fix>
</trkpt>
<trkpt lat="40.0718434" lon="-105.2300515">
  <ele>1582.93</ele>
  <time>2026-08-28T17:51:17Z</time>
  <course>151.24</course>
  <speed>5.023086700426342</speed>
  <fix>3d</fix>
</trkpt>
<trkpt lat="40.0718521" lon="-105.2300601">
  <ele>1583.0</ele>
  <time>2026-08-28T17:51:17Z</time>
  <course>136.72</course>
  <speed>5.05</speed>
  <fix>3d</fix>
</trkpt>
<trkpt lat="40.0718393" lon="-105.230049">
  <ele>1582.93</ele>
  <time>2026-08-28T17:51:17Z</time>
  <course>156.17</course>
  <speed>5.029234534201005</speed>
  <fix>3d</fix>
</trkpt>
<trkpt lat="40.0718449" lon="-105.2300529">
  <ele>1583.0</ele>
  <time>2026-08-28T17:51:17Z</time>
  <course>148.76</course>
  <speed>5.05</speed>
  <fix>3d</fix>
</trkpt>
<trkpt lat="40.071835" lon="-105.2300469">
  <ele>1582.93</ele>
  <time>2026-08-28T17:51:17Z</time>
  <course>160.3</course>
  <speed>5.040674558032883</speed>
  <fix>3d</fix>
</trkpt>
<trkpt lat="40.0718449" lon="-105.2300529">
  <ele>1583.0</ele>
  <time>2026-08-28T17:51:17Z</time>
  <course>148.76</course>
  <speed>5.05</speed>
  <fix>3d</fix>
</trkpt>
<trkpt lat="40.0718306" lon="-105.2300452">
  <ele>1582.93</ele>
  <time>2026-08-28T17:51:17Z</time>
  <course>163.73</course>
  <speed>5.043114117289039</speed>
  <fix>3d</fix>
</trkpt>
<trkpt lat="40.0718367" lon="-105.2300477">
  <ele>1583.0</ele>
  <time>2026-08-28T17:51:17Z</time>
  <course>158.33</course>
  <speed>5.06</speed>
  <fix>3d</fix>
</trkpt>
<trkpt lat="40.0718262" lon="-105.2300437">
  <ele>1582.93</ele>
  <time>2026-08-28T17:51:18Z</time>
  <course>166.57</course>
  <speed>5.044779479818716</speed>
  <fix>3d</fix>
</trkpt>
<trkpt lat="40.0718367" lon="-105.2300477">
  <ele>1583.0</ele>
  <time>2026-08-28T17:51:18Z</time>
  <course>158.33</course>
  <speed>5.06</speed>
  <fix>3d</fix>
</trkpt>
<trkpt lat="40.0718218" lon="-105.2300426">
  <ele>1582.93</ele>
  <time>2026-08-28T17:51:18Z</time>
  <course>168.93</course>
  <speed>5.043857650647964</speed>
  <fix>3d</fix>
</trkpt>
<trkpt lat="40.0718281" lon="-105.2300439">
  <ele>1583.0</ele>
  <time>2026-08-28T17:51:18Z</time>
  <course>164.95</course>
  <speed>5.06</speed>
  <fix>3d</fix>
</trkpt>
<trkpt lat="40.0718182" lon="-105.2300417">
  <ele>1582.93</ele>
  <time>2026-08-28T17:51:18Z</time>
  <course>170.56</course>
  <speed>5.043114117289039</speed>
  <fix>3d</fix>
</trkpt>
<trkpt lat="40.0718281" lon="-105.2300439">
  <ele>1583.0</ele>
  <time>2026-08-28T17:51:18Z</time>
  <course>164.95</course>
  <speed>5.06</speed>
  <fix>3d</fix>
</trkpt>
<trkpt lat="40.0718137" lon="-105.2300409">
  <ele>1582.92</ele>
  <time>2026-08-28T17:51:18Z</time>
  <course>172.26</course>
  <speed>5.043461113164253</speed>
  <fix>3d</fix>
</trkpt>
<trkpt lat="40.0718192" lon="-105.2300414">
  <ele>1583.0</ele>
  <time>2026-08-28T17:51:18Z</time>
  <course>169.54</course>
  <speed>5.05</speed>
  <fix>3d</fix>
</trkpt>
<trkpt lat="40.0718091" lon="-105.2300402">
  <ele>1582.93</ele>
  <time>2026-08-28T17:51:18Z</time>
  <course>173.65</course>
  <speed>5.041953986303326</speed>
  <fix>3d</fix>
</trkpt>
<trkpt lat="40.0718192" lon="-105.2300414">
  <ele>1583.0</ele>
  <time>2026-08-28T17:51:18Z</time>
  <course>169.54</course>
  <speed>5.05</speed>
  <fix>3d</fix>
</trkpt>
<trkpt lat="40.0718046" lon="-105.2300396">
  <ele>1582.93</ele>
  <time>2026-08-28T17:51:18Z</time>
  <course>174.82</course>
  <speed>5.033616989799681</speed>
  <fix>3d</fix>
</trkpt>
<trkpt lat="40.0718102" lon="-105.2300395">
  <ele>1583.0</ele>
  <time>2026-08-28T17:51:18Z</time>
  <course>172.73</course>
  <speed>5.04</speed>
  <fix>3d</fix>
</trkpt>
<trkpt lat="40.0718001" lon="-105.2300391">
  <ele>1582.93</ele>
  <time>2026-08-28T17:51:18Z</time>
  <course>175.8</course>
  <speed>5.0383529054642455</speed>
  <fix>3d</fix>
</trkpt>
<trkpt lat="40.0718102" lon="-105.2300395">
  <ele>1583.0</ele>
  <time>2026-08-28T17:51:18Z</time>
  <course>172.73</course>
  <speed>5.04</speed>
  <fix>3d</fix>
</trkpt>
<trkpt lat="40.0717955" lon="-105.2300387">
  <ele>1582.93</ele>
  <time>2026-08-28T17:51:18Z</time>
  <course>176.62</course>
  <speed>5.034808834504047</speed>
  <fix>3d</fix>
</trkpt>
<trkpt lat="40.0718013" lon="-105.2300382">
  <ele>1583.0</ele>
  <time>2026-08-28T17:51:18Z</time>
  <course>174.95</course>
  <speed>5.03</speed>
  <fix>3d</fix>
</trkpt>
<trkpt lat="40.0717909" lon="-105.2300383">
  <ele>1582.93</ele>
  <time>2026-08-28T17:51:18Z</time>
  <course>177.29</course>
  <speed>5.032871943532837</speed>
  <fix>3d</fix>
</trkpt>
<trkpt lat="40.0718013" lon="-105.2300382">
  <ele>1583.0</ele>
  <time>2026-08-28T17:51:18Z</time>
  <course>174.95</course>
  <speed>5.03</speed>
  <fix>3d</fix>
</trkpt>
<trkpt lat="40.0717864" lon="-105.230038">
  <ele>1582.93</ele>
  <time>2026-08-28T17:51:18Z</time>
  <course>177.85</course>
  <speed>5.021434058115271</speed>
  <fix>3d</fix>
</trkpt>
<trkpt lat="40.0717923" lon="-105.2300374">
  <ele>1583.0</ele>
  <time>2026-08-28T17:51:18Z</time>
  <course>176.49</course>
  <speed>5.01</speed>
  <fix>3d</fix>
</trkpt>
<trkpt lat="40.0717818" lon="-105.2300377">
  <ele>1582.93</ele>
  <time>2026-08-28T17:51:18Z</time>
  <course>178.33</course>
  <speed>5.020806708089847</speed>
  <fix>3d</fix>
</trkpt>
<trkpt lat="40.0717923" lon="-105.2300374">
  <ele>1583.0</ele>
  <time>2026-08-28T17:51:18Z</time>
  <course>176.49</course>
  <speed>5.01</speed>
  <fix>3d</fix>
</trkpt>
<trkpt lat="40.0717773" lon="-105.2300375">
  <ele>1582.93</ele>
  <time>2026-08-28T17:51:18Z</time>
  <course>178.72</course>
  <speed>5.0103592685555</speed>
  <fix>3d</fix>
</trkpt>
<trkpt lat="40.0717832" lon="-105.2300368">
  <ele>1583.0</ele>
  <time>2026-08-28T17:51:18Z</time>
  <course>177.55</course>
  <speed>5.0</speed>
  <fix>3d</fix>
</trkpt>
<trkpt lat="40.0717718" lon="-105.2300373">
  <ele>1582.92</ele>
  <time>2026-08-28T17:51:18Z</time>
  <course>179.1</course>
  <speed>5.0101596780941025</speed>
  <fix>3d</fix>
</trkpt>
<trkpt lat="40.0717832" lon="-105.2300368">
  <ele>1583.0</ele>
  <time>2026-08-28T17:51:18Z</time>
  <course>177.55</course>
  <speed>5.0</speed>
  <fix>3d</fix>
</trkpt>
<trkpt lat="40.0717673" lon="-105.2300372">
  <ele>1582.92</ele>
  <time>2026-08-28T17:51:18Z</time>
  <course>179.37</course>
  <speed>5.000039999840001</speed>
  <fix>3d</fix>
</trkpt>
<trkpt lat="40.0717743" lon="-105.2300364">
  <ele>1583.0</ele>
  <time>2026-08-28T17:51:18Z</time>
  <course>178.3</course>
  <speed>4.98</speed>
  <fix>3d</fix>
</trkpt>
<trkpt lat="40.0717628" lon="-105.230037">
  <ele>1582.92</ele>
  <time>2026-08-28T17:51:18Z</time>
  <course>179.56</course>
  <speed>5.00000999999</speed>
  <fix>3d</fix>
</trkpt>
<trkpt lat="40.0717743" lon="-105.2300364">
  <ele>1583.0</ele>
  <time>2026-08-28T17:51:18Z</time>
  <course>178.3</course>
  <speed>4.98</speed>
  <fix>3d</fix>
</trkpt>
<trkpt lat="40.0717583" lon="-105.2300369">
  <ele>1582.92</ele>
  <time>2026-08-28T17:51:18Z</time>
  <course>179.75</course>
  <speed>5.0</speed>
  <fix>3d</fix>
</trkpt>
<trkpt lat="40.0717654" lon="-105.2300361">
  <ele>1583.0</ele>
  <time>2026-08-28T17:51:18Z</time>
  <course>178.81</course>
  <speed>4.97</speed>
  <fix>3d</fix>
</trkpt>
<trkpt lat="40.0717538" lon="-105.2300368">
  <ele>1582.92</ele>
  <time>2026-08-28T17:51:18Z</time>
  <course>179.88</course>
  <speed>4.99</speed>
  <fix>3d</fix>
</trkpt>
<trkpt lat="40.0717654" lon="-105.2300361">
  <ele>1583.0</ele>
  <time>2026-08-28T17:51:18Z</time>
  <course>178.81</course>
  <speed>4.97</speed>
  <fix>3d</fix>
</trkpt>
<trkpt lat="40.0717493" lon="-105.2300367">
  <ele>1582.92</ele>
  <time>2026-08-28T17:51:18Z</time>
  <course>180.03</course>
  <speed>4.99</speed>
  <fix>3d</fix>
</trkpt>
<trkpt lat="40.0717564" lon="-105.2300359">
  <ele>1583.0</ele>
  <time>2026-08-28T17:51:18Z</time>
  <course>179.15</course>
  <speed>4.96</speed>
  <fix>3d</fix>
</trkpt>
<trkpt lat="40.0717449" lon="-105.2300366">
  <ele>1582.93</ele>
  <time>2026-08-28T17:51:18Z</time>
  <course>180.12</course>
  <speed>4.98</speed>
  <fix>3d</fix>
</trkpt>
<trkpt lat="40.0717564" lon="-105.2300359">
  <ele>1583.0</ele>
  <time>2026-08-28T17:51:18Z</time>
  <course>179.15</course>
  <speed>4.96</speed>
  <fix>3d</fix>
</trkpt>
<trkpt lat="40.0717405" lon="-105.2300365">
  <ele>1582.93</ele>
  <time>2026-08-28T17:51:18Z</time>
  <course>180.19</course>
  <speed>4.98</speed>
  <fix>3d</fix>
</trkpt>
<trkpt lat="40.0717475" lon="-105.2300358">
  <ele>1583.0</ele>
  <time>2026-08-28T17:51:18Z</time>
  <course>179.38</course>
  <speed>4.95</speed>
  <fix>3d</fix>
</trkpt>
<trkpt lat="40.0717361" lon="-105.2300364">
  <ele>1582.94</ele>
  <time>2026-08-28T17:51:18Z</time>
  <course>180.27</course>
  <speed>4.98</speed>
  <fix>3d</fix>
</trkpt>
<trkpt lat="40.0717475" lon="-105.2300358">
  <ele>1583.0</ele>
  <time>2026-08-28T17:51:18Z</time>
  <course>179.38</course>
  <speed>4.95</speed>
  <fix>3d</fix>
</trkpt>
<trkpt lat="40.0717316" lon="-105.2300364">
  <ele>1582.94</ele>
  <time>2026-08-28T17:51:18Z</time>
  <course>180.34</course>
  <speed>4.97</speed>
  <fix>3d</fix>
</trkpt>
<trkpt lat="40.0717386" lon="-105.2300356">
  <ele>1583.0</ele>
  <time>2026-08-28T17:51:18Z</time>
  <course>179.53</course>
  <speed>4.95</speed>
  <fix>3d</fix>
</trkpt>
<trkpt lat="40.0717272" lon="-105.2300363">
  <ele>1582.94</ele>
  <time>2026-08-28T17:51:18Z</time>
  <course>180.38</course>
  <speed>4.97</speed>
  <fix>3d</fix>
</trkpt>
<trkpt lat="40.0717386" lon="-105.2300356">
  <ele>1583.0</ele>
  <time>2026-08-28T17:51:18Z</time>
  <course>179.53</course>
  <speed>4.95</speed>
  <fix>3d</fix>
</trkpt>
<trkpt lat="40.0717237" lon="-105.2300362">
  <ele>1582.95</ele>
  <time>2026-08-28T17:51:18Z</time>
  <course>180.41</course>
  <speed>4.97</speed>
  <fix>3d</fix>
</trkpt>
<trkpt lat="40.0717297" lon="-105.2300355">
  <ele>1583.0</ele>
  <time>2026-08-28T17:51:18Z</time>
  <course>179.64</course>
  <speed>4.94</speed>
  <fix>3d</fix>
</trkpt>
<trkpt lat="40.0717193" lon="-105.2300361">
  <ele>1582.95</ele>
  <time>2026-08-28T17:51:18Z</time>
  <course>180.42</course>
  <speed>4.97</speed>
  <fix>3d</fix>
</trkpt>
<trkpt lat="40.0717297" lon="-105.2300355">
  <ele>1583.0</ele>
  <time>2026-08-28T17:51:18Z</time>
  <course>179.64</course>
  <speed>4.94</speed>
  <fix>3d</fix>
</trkpt>
<trkpt lat="40.0717148" lon="-105.2300361">
  <ele>1582.95</ele>
  <time>2026-08-28T17:51:18Z</time>
  <course>180.42</course>
  <speed>4.97</speed>
  <fix>3d</fix>
</trkpt>
<trkpt lat="40.0717208" lon="-105.2300355">
  <ele>1583.0</ele>
  <time>2026-08-28T17:51:18Z</time>
  <course>179.68</course>
  <speed>4.95</speed>
  <fix>3d</fix>
</trkpt>
<trkpt lat="40.0717104" lon="-105.230036">
  <ele>1582.95</ele>
  <time>2026-08-28T17:51:18Z</time>
  <course>180.42</course>
  <speed>4.970010060351991</speed>
  <fix>3d</fix>
</trkpt>
<trkpt lat="40.0717208" lon="-105.2300355">
  <ele>1583.0</ele>
  <time>2026-08-28T17:51:18Z</time>
  <course>179.68</course>
  <speed>4.95</speed>
  <fix>3d</fix>
</trkpt>
<trkpt lat="40.0717059" lon="-105.2300359">
  <ele>1582.94</ele>
  <time>2026-08-28T17:51:18Z</time>
  <course>180.42</course>
  <speed>4.970010060351991</speed>
  <fix>3d</fix>
</trkpt>
<trkpt lat="40.0717119" lon="-105.2300354">
  <ele>1583.0</ele>
  <time>2026-08-28T17:51:18Z</time>
  <course>179.68</course>
  <speed>4.95</speed>
  <fix>3d</fix>
</trkpt>
<trkpt lat="40.0717015" lon="-105.2300358">
  <ele>1582.94</ele>
  <time>2026-08-28T17:51:18Z</time>
  <course>180.43</course>
  <speed>4.980010040150521</speed>
  <fix>3d</fix>
</trkpt>
<trkpt lat="40.0717119" lon="-105.2300354">
  <ele>1583.0</ele>
  <time>2026-08-28T17:51:18Z</time>
  <course>179.68</course>
  <speed>4.95</speed>
  <fix>3d</fix>
</trkpt>
<trkpt lat="40.071697" lon="-105.2300357">
  <ele>1582.94</ele>
  <time>2026-08-28T17:51:18Z</time>
  <course>180.43</course>
  <speed>4.980040160480636</speed>
  <fix>3d</fix>
</trkpt>
<trkpt lat="40.071703" lon="-105.2300353">
  <ele>1583.0</ele>
  <time>2026-08-28T17:51:18Z</time>
  <course>179.68</course>
  <speed>4.96</speed>
  <fix>3d</fix>
</trkpt>
<trkpt lat="40.0716925" lon="-105.2300357">
  <ele>1582.93</ele>
  <time>2026-08-28T17:51:18Z</time>
  <course>180.43</course>
  <speed>4.980040160480636</speed>
  <fix>3d</fix>
</trkpt>
<trkpt lat="40.071703" lon="-105.2300353">
  <ele>1583.0</ele>
  <time>2026-08-28T17:51:18Z</time>
  <course>179.68</course>
  <speed>4.96</speed>
  <fix>3d</fix>
</trkpt>
<trkpt lat="40.071688" lon="-105.2300356">
  <ele>1582.93</ele>
  <time>2026-08-28T17:51:18Z</time>
  <course>180.43</course>
  <speed>4.980090360626</speed>
  <fix>3d</fix>
</trkpt>
<trkpt lat="40.0716941" lon="-105.2300353">
  <ele>1583.0</ele>
  <time>2026-08-28T17:51:18Z</time>
  <course>179.68</course>
  <speed>4.96</speed>
  <fix>3d</fix>
</trkpt>
<trkpt lat="40.0716826" lon="-105.2300355">
  <ele>1582.93</ele>
  <time>2026-08-28T17:51:18Z</time>
  <course>180.43</course>
  <speed>4.980090360626</speed>
  <fix>3d</fix>
</trkpt>
<trkpt lat="40.0716941" lon="-105.2300353">
  <ele>1583.0</ele>
  <time>2026-08-28T17:51:18Z</time>
  <course>179.68</course>
  <speed>4.96</speed>
  <fix>3d</fix>
</trkpt>
<trkpt lat="40.0716781" lon="-105.2300354">
  <ele>1582.93</ele>
  <time>2026-08-28T17:51:18Z</time>
  <course>180.44</course>
  <speed>4.990090179545857</speed>
  <fix>3d</fix>
</trkpt>
<trkpt lat="40.0716852" lon="-105.2300352">
  <ele>1583.0</ele>
  <time>2026-08-28T17:51:18Z</time>
  <course>179.68</course>
  <speed>4.96</speed>
  <fix>3d</fix>
</trkpt>
<trkpt lat="40.0716736" lon="-105.2300354">
  <ele>1582.92</ele>
  <time>2026-08-28T17:51:18Z</time>
  <course>180.44</course>
  <speed>4.990090179545857</speed>
  <fix>3d</fix>
</trkpt>
<trkpt lat="40.0716852" lon="-105.2300352">
  <ele>1583.0</ele>
  <time>2026-08-28T17:51:18Z</time>
  <course>179.68</course>
  <speed>4.96</speed>
  <fix>3d</fix>
</trkpt>
<trkpt lat="40.0716692" lon="-105.2300353">
  <ele>1582.92</ele>
  <time>2026-08-28T17:51:18Z</time>
  <course>180.44</course>
  <speed>4.990160318065944</speed>
  <fix>3d</fix>
</trkpt>
<trkpt lat="40.0716762" lon="-105.2300351">
  <ele>1583.0</ele>
  <time>2026-08-28T17:51:18Z</time>
  <course>179.68</course>
  <speed>4.97</speed>
  <fix>3d</fix>
</trkpt>
<trkpt lat="40.0716647" lon="-105.2300352">
  <ele>1582.92</ele>
  <time>2026-08-28T17:51:18Z</time>
  <course>180.44</course>
  <speed>4.990160318065944</speed>
  <fix>3d</fix>
</trkpt>
<trkpt lat="40.0716762" lon="-105.2300351">
  <ele>1583.0</ele>
  <time>2026-08-28T17:51:18Z</time>
  <course>179.68</course>
  <speed>4.97</speed>
  <fix>3d</fix>
</trkpt>
<trkpt lat="40.0716602" lon="-105.2300352">
  <ele>1582.92</ele>
  <time>2026-08-28T17:51:18Z</time>
  <course>180.45</course>
  <speed>4.990160318065944</speed>
  <fix>3d</fix>
</trkpt>
<trkpt lat="40.0716673" lon="-105.2300351">
  <ele>1583.0</ele>
  <time>2026-08-28T17:51:18Z</time>
  <course>179.68</course>
  <speed>4.97</speed>
  <fix>3d</fix>
</trkpt>
<trkpt lat="40.0716558" lon="-105.2300351">
  <ele>1582.92</ele>
  <time>2026-08-28T17:51:18Z</time>
  <course>180.45</course>
  <speed>4.990160318065944</speed>
  <fix>3d</fix>
</trkpt>
<trkpt lat="40.0716673" lon="-105.2300351">
  <ele>1583.0</ele>
  <time>2026-08-28T17:51:18Z</time>
  <course>179.68</course>
  <speed>4.97</speed>
  <fix>3d</fix>
</trkpt>
<trkpt lat="40.0716513" lon="-105.230035">
  <ele>1582.92</ele>
  <time>2026-08-28T17:51:18Z</time>
  <course>180.45</course>
  <speed>4.990160318065944</speed>
  <fix>3d</fix>
</trkpt>
<trkpt lat="40.0716584" lon="-105.2300351">
  <ele>1583.0</ele>
  <time>2026-08-28T17:51:18Z</time>
  <course>179.68</course>
  <speed>4.97</speed>
  <fix>3d</fix>
</trkpt>
<trkpt lat="40.0716469" lon="-105.230035">
  <ele>1582.93</ele>
  <time>2026-08-28T17:51:18Z</time>
  <course>180.45</course>
  <speed>4.990160318065944</speed>
  <fix>3d</fix>
</trkpt>
<trkpt lat="40.0716584" lon="-105.2300351">
  <ele>1583.0</ele>
  <time>2026-08-28T17:51:18Z</time>
  <course>179.68</course>
  <speed>4.97</speed>
  <fix>3d</fix>
</trkpt>
<trkpt lat="40.0716425" lon="-105.2300349">
  <ele>1582.93</ele>
  <time>2026-08-28T17:51:18Z</time>
  <course>180.45</course>
  <speed>4.990160318065944</speed>
  <fix>3d</fix>
</trkpt>
<trkpt lat="40.0716494" lon="-105.230035">
  <ele>1583.0</ele>
  <time>2026-08-28T17:51:18Z</time>
  <course>179.68</course>
  <speed>4.98</speed>
  <fix>3d</fix>
</trkpt>
<trkpt lat="40.071638" lon="-105.2300349">
  <ele>1582.93</ele>
  <time>2026-08-28T17:51:18Z</time>
  <course>180.45</course>
  <speed>4.990160318065944</speed>
  <fix>3d</fix>
</trkpt>
<trkpt lat="40.0716494" lon="-105.230035">
  <ele>1583.0</ele>
  <time>2026-08-28T17:51:18Z</time>
  <course>179.68</course>
  <speed>4.98</speed>
  <fix>3d</fix>
</trkpt>
<trkpt lat="40.0716345" lon="-105.2300348">
  <ele>1582.94</ele>
  <time>2026-08-28T17:51:18Z</time>
  <course>180.45</course>
  <speed>4.990160318065944</speed>
  <fix>3d</fix>
</trkpt>
<trkpt lat="40.0716405" lon="-105.2300349">
  <ele>1583.0</ele>
  <time>2026-08-28T17:51:18Z</time>
  <course>179.68</course>
  <speed>4.99</speed>
  <fix>3d</fix>
</trkpt>
<trkpt lat="40.07163" lon="-105.2300348">
  <ele>1582.94</ele>
  <time>2026-08-28T17:51:18Z</time>
  <course>180.46</course>
  <speed>4.990160318065944</speed>
  <fix>3d</fix>
</trkpt>
<trkpt lat="40.0716405" lon="-105.2300349">
  <ele>1583.0</ele>
  <time>2026-08-28T17:51:18Z</time>
  <course>179.68</course>
  <speed>4.99</speed>
  <fix>3d</fix>
</trkpt>
<trkpt lat="40.0716255" lon="-105.2300347">
  <ele>1582.95</ele>
  <time>2026-08-28T17:51:18Z</time>
  <course>180.46</course>
  <speed>4.990160318065944</speed>
  <fix>3d</fix>
</trkpt>
<trkpt lat="40.0716314" lon="-105.2300348">
  <ele>1583.0</ele>
  <time>2026-08-28T17:51:18Z</time>
  <course>179.68</course>
  <speed>4.99</speed>
  <fix>3d</fix>
</trkpt>
<trkpt lat="40.071621" lon="-105.2300347">
  <ele>1582.95</ele>
  <time>2026-08-28T17:51:18Z</time>
  <course>180.46</course>
  <speed>4.990160318065944</speed>
  <fix>3d</fix>
</trkpt>
<trkpt lat="40.0716314" lon="-105.2300348">
  <ele>1583.0</ele>
  <time>2026-08-28T17:51:18Z</time>
  <course>179.68</course>
  <speed>4.99</speed>
  <fix>3d</fix>
</trkpt>
<trkpt lat="40.0716166" lon="-105.2300347">
  <ele>1582.96</ele>
  <time>2026-08-28T17:51:18Z</time>
  <course>180.47</course>
  <speed>4.990160318065944</speed>
  <fix>3d</fix>
</trkpt>
<trkpt lat="40.0716225" lon="-105.2300348">
  <ele>1583.0</ele>
  <time>2026-08-28T17:51:18Z</time>
  <course>179.68</course>
  <speed>4.99</speed>
  <fix>3d</fix>
</trkpt>
<trkpt lat="40.0716121" lon="-105.2300346">
  <ele>1582.96</ele>
  <time>2026-08-28T17:51:18Z</time>
  <course>180.47</course>
  <speed>4.990160318065944</speed>
  <fix>3d</fix>
</trkpt>
<trkpt lat="40.0716225" lon="-105.2300348">
  <ele>1583.0</ele>
  <time>2026-08-28T17:51:18Z</time>
  <course>179.68</course>
  <speed>4.99</speed>
  <fix>3d</fix>
</trkpt>
<trkpt lat="40.0716076" lon="-105.2300346">
  <ele>1582.96</ele>
  <time>2026-08-28T17:51:18Z</time>
  <course>180.47</course>
  <speed>4.990160318065944</speed>
  <fix>3d</fix>
</trkpt>
<trkpt lat="40.0716135" lon="-105.2300347">
  <ele>1583.0</ele>
  <time>2026-08-28T17:51:18Z</time>
  <course>179.68</course>
  <speed>5.0</speed>
  <fix>3d</fix>
</trkpt>
<trkpt lat="40.0716031" lon="-105.2300345">
  <ele>1582.96</ele>
  <time>2026-08-28T17:51:18Z</time>
  <course>180.48</course>
  <speed>5.000159997440082</speed>
  <fix>3d</fix>
</trkpt>
<trkpt lat="40.0716135" lon="-105.2300347">
  <ele>1583.0</ele>
  <time>2026-08-28T17:51:18Z</time>
  <course>179.68</course>
  <speed>5.0</speed>
  <fix>3d</fix>
</trkpt>
<trkpt lat="40.0715985" lon="-105.2300345">
  <ele>1582.96</ele>
  <time>2026-08-28T17:51:18Z</time>
  <course>180.48</course>
  <speed>5.000159997440082</speed>
  <fix>3d</fix>
</trkpt>
<trkpt lat="40.0716046" lon="-105.2300346">
  <ele>1583.0</ele>
  <time>2026-08-28T17:51:18Z</time>
  <course>179.68</course>
  <speed>5.0</speed>
  <fix>3d</fix>
</trkpt>
<trkpt lat="40.071594" lon="-105.2300345">
  <ele>1582.96</ele>
  <time>2026-08-28T17:51:18Z</time>
  <course>180.49</course>
  <speed>5.000159997440082</speed>
  <fix>3d</fix>
</trkpt>
<trkpt lat="40.0716046" lon="-105.2300346">
  <ele>1583.0</ele>
  <time>2026-08-28T17:51:18Z</time>
  <course>179.68</course>
  <speed>5.0</speed>
  <fix>3d</fix>
</trkpt>
<trkpt lat="40.0715886" lon="-105.2300344">
  <ele>1582.96</ele>
  <time>2026-08-28T17:51:18Z</time>
  <course>180.49</course>
  <speed>5.000159997440082</speed>
  <fix>3d</fix>
</trkpt>
<trkpt lat="40.0715955" lon="-105.2300346">
  <ele>1583.0</ele>
  <time>2026-08-28T17:51:18Z</time>
  <course>179.68</course>
  <speed>5.0</speed>
  <fix>3d</fix>
</trkpt>
<trkpt lat="40.0715841" lon="-105.2300344">
  <ele>1582.97</ele>
  <time>2026-08-28T17:51:18Z</time>
  <course>180.49</course>
  <speed>5.000159997440082</speed>
  <fix>3d</fix>
</trkpt>
<trkpt lat="40.0715955" lon="-105.2300346">
  <ele>1583.0</ele>
  <time>2026-08-28T17:51:18Z</time>
  <course>179.68</course>
  <speed>5.0</speed>
  <fix>3d</fix>
</trkpt>
<trkpt lat="40.0715796" lon="-105.2300344">
  <ele>1582.97</ele>
  <time>2026-08-28T17:51:18Z</time>
  <course>180.5</course>
  <speed>5.000159997440082</speed>
  <fix>3d</fix>
</trkpt>
<trkpt lat="40.0715866" lon="-105.2300345">
  <ele>1583.0</ele>
  <time>2026-08-28T17:51:18Z</time>
  <course>179.68</course>
  <speed>5.01</speed>
  <fix>3d</fix>
</trkpt>
<trkpt lat="40.0715751" lon="-105.2300343">
  <ele>1582.97</ele>
  <time>2026-08-28T17:51:18Z</time>
  <course>180.5</course>
  <speed>5.000159997440082</speed>
  <fix>3d</fix>
</trkpt>
<trkpt lat="40.0715866" lon="-105.2300345">
  <ele>1583.0</ele>
  <time>2026-08-28T17:51:18Z</time>
  <course>179.68</course>
  <speed>5.01</speed>
  <fix>3d</fix>
</trkpt>
<trkpt lat="40.0715705" lon="-105.2300343">
  <ele>1582.97</ele>
  <time>2026-08-28T17:51:18Z</time>
  <course>180.5</course>
  <speed>5.000089999190014</speed>
  <fix>3d</fix>
</trkpt>
<trkpt lat="40.0715776" lon="-105.2300345">
  <ele>1583.0</ele>
  <time>2026-08-28T17:51:18Z</time>
  <course>179.68</course>
  <speed>5.01</speed>
  <fix>3d</fix>
</trkpt>
<trkpt lat="40.0715661" lon="-105.2300343">
  <ele>1582.97</ele>
  <time>2026-08-28T17:51:18Z</time>
  <course>180.5</course>
  <speed>5.000089999190014</speed>
  <fix>3d</fix>
</trkpt>
<trkpt lat="40.0715776" lon="-105.2300345">
  <ele>1583.0</ele>
  <time>2026-08-28T17:51:18Z</time>
  <course>179.68</course>
  <speed>5.01</speed>
  <fix>3d</fix>
</trkpt>
<trkpt lat="40.0715616" lon="-105.2300342">
  <ele>1582.97</ele>
  <time>2026-08-28T17:51:18Z</time>
  <course>180.63</course>
  <speed>5.000039999840001</speed>
  <fix>3d</fix>
</trkpt>
<trkpt lat="40.0715685" lon="-105.2300344">
  <ele>1583.0</ele>
  <time>2026-08-28T17:51:18Z</time>
  <course>179.7</course>
  <speed>5.01</speed>
  <fix>3d</fix>
</trkpt>
<trkpt lat="40.0715572" lon="-105.2300343">
  <ele>1582.97</ele>
  <time>2026-08-28T17:51:18Z</time>
  <course>181.8</course>
  <speed>4.9906412413636785</speed>
  <fix>3d</fix>
</trkpt>
<trkpt lat="40.0715685" lon="-105.2300344">
  <ele>1583.0</ele>
  <time>2026-08-28T17:51:18Z</time>
  <course>179.7</course>
  <speed>5.01</speed>
  <fix>3d</fix>
</trkpt>
<trkpt lat="40.0715527" lon="-105.2300345">
  <ele>1582.97</ele>
  <time>2026-08-28T17:51:18Z</time>
  <course>184.09</course>
  <speed>4.98786527484454</speed>
  <fix>3d</fix>
</trkpt>
<trkpt lat="40.0715596" lon="-105.2300344">
  <ele>1583.0</ele>
  <time>2026-08-28T17:51:18Z</time>
  <course>181.24</course>
  <speed>5.01</speed>
  <fix>3d</fix>
</trkpt>
<trkpt lat="40.0715483" lon="-105.230035">
  <ele>1582.97</ele>
  <time>2026-08-28T17:51:18Z</time>
  <course>187.5</course>
  <speed>4.973932046178355</speed>
  <fix>3d</fix>
</trkpt>
<trkpt lat="40.0715596" lon="-105.2300344">
  <ele>1583.0</ele>
  <time>2026-08-28T17:51:18Z</time>
  <course>181.24</course>
  <speed>5.01</speed>
  <fix>3d</fix>
</trkpt>
<trkpt lat="40.0715439" lon="-105.2300359">
  <ele>1582.96</ele>
  <time>2026-08-28T17:51:18Z</time>
  <course>192.02</course>
  <speed>4.965662090799172</speed>
  <fix>3d</fix>
</trkpt>
<trkpt lat="40.0715505" lon="-105.2300351">
  <ele>1583.0</ele>
  <time>2026-08-28T17:51:18Z</time>
  <course>186.51</course>
  <speed>5.0</speed>
  <fix>3d</fix>
</trkpt>
<trkpt lat="40.0715405" lon="-105.230037">
  <ele>1582.96</ele>
  <time>2026-08-28T17:51:18Z</time>
  <course>196.49</course>
  <speed>4.960090724976712</speed>
  <fix>3d</fix>
</trkpt>
<trkpt lat="40.0715505" lon="-105.2300351">
  <ele>1583.0</ele>
  <time>2026-08-28T17:51:18Z</time>
  <course>186.51</course>
  <speed>5.0</speed>
  <fix>3d</fix>
</trkpt>
<trkpt lat="40.0715363" lon="-105.230039">
  <ele>1582.96</ele>
  <time>2026-08-28T17:51:18Z</time>
  <course>202.85</course>
  <speed>4.954644285920029</speed>
  <fix>3d</fix>
</trkpt>
<trkpt lat="40.0715417" lon="-105.2300373">
  <ele>1583.0</ele>
  <time>2026-08-28T17:51:18Z</time>
  <course>196.16</course>
  <speed>4.99</speed>
  <fix>3d</fix>
</trkpt>
<trkpt lat="40.0715323" lon="-105.2300417">
  <ele>1582.95</ele>
  <time>2026-08-28T17:51:18Z</time>
  <course>209.21</course>
  <speed>4.9593951244078145</speed>
  <fix>3d</fix>
</trkpt>
<trkpt lat="40.0715417" lon="-105.2300373">
  <ele>1583.0</ele>
  <time>2026-08-28T17:51:18Z</time>
  <course>196.16</course>
  <speed>4.99</speed>
  <fix>3d</fix>
</trkpt>
<trkpt lat="40.0715285" lon="-105.2300448">
  <ele>1582.95</ele>
  <time>2026-08-28T17:51:18Z</time>
  <course>215.56</course>
  <speed>4.955653337351191</speed>
  <fix>3d</fix>
</trkpt>
<trkpt lat="40.0715334" lon="-105.2300418">
  <ele>1583.0</ele>
  <time>2026-08-28T17:51:18Z</time>
  <course>208.44</course>
  <speed>5.0</speed>
  <fix>3d</fix>
</trkpt>
<trkpt lat="40.0715251" lon="-105.2300487">
  <ele>1582.94</ele>
  <time>2026-08-28T17:51:18Z</time>
  <course>221.97</course>
  <speed>4.956288934273304</speed>
  <fix>3d</fix>
</trkpt>
<trkpt lat="40.0715334" lon="-105.2300418">
  <ele>1583.0</ele>
  <time>2026-08-28T17:51:18Z</time>
  <course>208.44</course>
  <speed>5.0</speed>
  <fix>3d</fix>
</trkpt>
<trkpt lat="40.0715219" lon="-105.2300529">
  <ele>1582.94</ele>
  <time>2026-08-28T17:51:18Z</time>
  <course>228.37</course>
  <speed>4.967021240139808</speed>
  <fix>3d</fix>
</trkpt>
<trkpt lat="40.0715261" lon="-105.2300485">
  <ele>1583.0</ele>
  <time>2026-08-28T17:51:18Z</time>
  <course>221.23</course>
  <speed>5.01</speed>
  <fix>3d</fix>
</trkpt>
<trkpt lat="40.0715192" lon="-105.2300577">
  <ele>1582.94</ele>
  <time>2026-08-28T17:51:18Z</time>
  <course>234.72</course>
  <speed>4.979327263797791</speed>
  <fix>3d</fix>
</trkpt>
<trkpt lat="40.0715261" lon="-105.2300485">
  <ele>1583.0</ele>
  <time>2026-08-28T17:51:18Z</time>
  <course>221.23</course>
  <speed>5.01</speed>
  <fix>3d</fix>
</trkpt>
<trkpt lat="40.0715168" lon="-105.2300628">
  <ele>1582.94</ele>
  <time>2026-08-28T17:51:18Z</time>
  <course>241.08</course>
  <speed>4.984144861458182</speed>
  <fix>3d</fix>
</trkpt>
<trkpt lat="40.07152" lon="-105.2300571">
  <ele>1583.0</ele>
  <time>2026-08-28T17:51:18Z</time>
  <course>234.0</course>
  <speed>5.02</speed>
  <fix>3d</fix>
</trkpt>
<trkpt lat="40.0715149" lon="-105.2300683">
  <ele>1582.94</ele>
  <time>2026-08-28T17:51:18Z</time>
  <course>247.5</course>
  <speed>5.004497976820453</speed>
  <fix>3d</fix>
</trkpt>
<trkpt lat="40.07152" lon="-105.2300571">
  <ele>1583.0</ele>
  <time>2026-08-28T17:51:18Z</time>
  <course>234.0</course>
  <speed>5.02</speed>
  <fix>3d</fix>
</trkpt>
<trkpt lat="40.0715135" lon="-105.230074">
  <ele>1582.94</ele>
  <time>2026-08-28T17:51:18Z</time>
  <course>253.83</course>
  <speed>5.016771870436207</speed>
  <fix>3d</fix>
</trkpt>
<trkpt lat="40.0715156" lon="-105.2300674">
  <ele>1583.0</ele>
  <time>2026-08-28T17:51:18Z</time>
  <course>246.7</course>
  <speed>5.03</speed>
  <fix>3d</fix>
</trkpt>
<trkpt lat="40.0715125" lon="-105.2300811">
  <ele>1582.94</ele>
  <time>2026-08-28T17:51:18Z</time>
  <course>261.39</course>
  <speed>5.023544565344275</speed>
  <fix>3d</fix>
</trkpt>
<trkpt lat="40.0715156" lon="-105.2300674">
  <ele>1583.0</ele>
  <time>2026-08-28T17:51:18Z</time>
  <course>246.7</course>
  <speed>5.03</speed>
  <fix>3d</fix>
</trkpt>
<trkpt lat="40.0715121" lon="-105.2300871">
  <ele>1582.94</ele>
  <time>2026-08-28T17:51:18Z</time>
  <course>267.7</course>
  <speed>5.040991965873383</speed>
  <fix>3d</fix>
</trkpt>
<trkpt lat="40.0715129" lon="-105.2300786">
  <ele>1583.0</ele>
  <time>2026-08-28T17:51:18Z</time>
  <course>259.35</course>
  <speed>5.03</speed>
  <fix>3d</fix>
</trkpt>
<trkpt lat="40.0715123" lon="-105.2300932">
  <ele>1582.95</ele>
  <time>2026-08-28T17:51:18Z</time>
  <course>274.0</course>
  <speed>5.050089108124727</speed>
  <fix>3d</fix>
</trkpt>
<trkpt lat="40.0715129" lon="-105.2300786">
  <ele>1583.0</ele>
  <time>2026-08-28T17:51:18Z</time>
  <course>259.35</course>
  <speed>5.03</speed>
  <fix>3d</fix>
</trkpt>
<trkpt lat="40.071513" lon="-105.2300991">
  <ele>1582.94</ele>
  <time>2026-08-28T17:51:18Z</time>
  <course>280.3</course>
  <speed>5.05</speed>
  <fix>3d</fix>
</trkpt>
<trkpt lat="40.0715122" lon="-105.2300904">
  <ele>1583.0</ele>
  <time>2026-08-28T17:51:18Z</time>
  <course>271.95</course>
  <speed>5.03</speed>
  <fix>3d</fix>
</trkpt>
<trkpt lat="40.0715141" lon="-105.2301049">
  <ele>1582.94</ele>
  <time>2026-08-28T17:51:18Z</time>
  <course>286.6</course>
  <speed>5.060039525537325</speed>
  <fix>3d</fix>
</trkpt>
<trkpt lat="40.0715122" lon="-105.2300904">
  <ele>1583.0</ele>
  <time>2026-08-28T17:51:18Z</time>
  <course>271.95</course>
  <speed>5.03</speed>
  <fix>3d</fix>
</trkpt>
<trkpt lat="40.0715157" lon="-105.2301105">
  <ele>1582.95</ele>
  <time>2026-08-28T17:51:18Z</time>
  <course>292.89</course>
  <speed>5.058458263146984</speed>
  <fix>3d</fix>
</trkpt>
<trkpt lat="40.0715136" lon="-105.2301021">
  <ele>1583.0</ele>
  <time>2026-08-28T17:51:18Z</time>
  <course>284.56</course>
  <speed>5.02</speed>
  <fix>3d</fix>
</trkpt>
<trkpt lat="40.0715178" lon="-105.2301158">
  <ele>1582.95</ele>
  <time>2026-08-28T17:51:18Z</time>
  <course>299.17</course>
  <speed>5.054552403526944</speed>
  <fix>3d</fix>
</trkpt>
<trkpt lat="40.0715136" lon="-105.2301021">
  <ele>1583.0</ele>
  <time>2026-08-28T17:51:18Z</time>
  <course>284.56</course>
  <speed>5.02</speed>
  <fix>3d</fix>
</trkpt>
<trkpt lat="40.0715203" lon="-105.2301208">
  <ele>1582.95</ele>
  <time>2026-08-28T17:51:18Z</time>
  <course>305.43</course>
  <speed>5.048128366038249</speed>
  <fix>3d</fix>
</trkpt>
<trkpt lat="40.0715168" lon="-105.2301131">
  <ele>1583.0</ele>
  <time>2026-08-28T17:51:18Z</time>
  <course>297.14</course>
  <speed>5.0</speed>
  <fix>3d</fix>
</trkpt>
<trkpt lat="40.0715231" lon="-105.2301253">
  <ele>1582.94</ele>
  <time>2026-08-28T17:51:18Z</time>
  <course>311.69</course>
  <speed>5.045839870626098</speed>
  <fix>3d</fix>
</trkpt>
<trkpt lat="40.0715168" lon="-105.2301131">
  <ele>1583.0</ele>
  <time>2026-08-28T17:51:18Z</time>
  <course>297.14</course>
  <speed>5.0</speed>
  <fix>3d</fix>
</trkpt>
<trkpt lat="40.0715263" lon="-105.2301294">
  <ele>1582.94</ele>
  <time>2026-08-28T17:51:18Z</time>
  <course>318.0</course>
  <speed>5.039454335540704</speed>
  <fix>3d</fix>
</trkpt>
<trkpt lat="40.0715216" lon="-105.2301229">
  <ele>1583.0</ele>
  <time>2026-08-28T17:51:18Z</time>
  <course>309.68</course>
  <speed>4.99</speed>
  <fix>3d</fix>
</trkpt>
<trkpt lat="40.0715299" lon="-105.230133">
  <ele>1582.94</ele>
  <time>2026-08-28T17:51:18Z</time>
  <course>324.3</course>
  <speed>5.0292941850720965</speed>
  <fix>3d</fix>
</trkpt>
<trkpt lat="40.0715216" lon="-105.2301229">
  <ele>1583.0</ele>
  <time>2026-08-28T17:51:18Z</time>
  <course>309.68</course>
  <speed>4.99</speed>
  <fix>3d</fix>
</trkpt>
<trkpt lat="40.0715329" lon="-105.2301355">
  <ele>1582.94</ele>
  <time>2026-08-28T17:51:18Z</time>
  <course>329.33</course>
  <speed>5.0172203459684726</speed>
  <fix>3d</fix>
</trkpt>
<trkpt lat="40.071528" lon="-105.230131">
  <ele>1583.0</ele>
  <time>2026-08-28T17:51:18Z</time>
  <course>322.22</course>
  <speed>4.97</speed>
  <fix>3d</fix>
</trkpt>
<trkpt lat="40.0715369" lon="-105.2301381">
  <ele>1582.94</ele>
  <time>2026-08-28T17:51:18Z</time>
  <course>334.65</course>
  <speed>5.016143937328753</speed>
  <fix>3d</fix>
</trkpt>
<trkpt lat="40.071528" lon="-105.230131">
  <ele>1583.0</ele>
  <time>2026-08-28T17:51:18Z</time>
  <course>322.22</course>
  <speed>4.97</speed>
  <fix>3d</fix>
</trkpt>
<trkpt lat="40.0715411" lon="-105.2301403">
  <ele>1582.94</ele>
  <time>2026-08-28T17:51:18Z</time>
  <course>339.06</course>
  <speed>5.008283138960895</speed>
  <fix>3d</fix>
</trkpt>
<trkpt lat="40.0715356" lon="-105.2301372">
  <ele>1583.0</ele>
  <time>2026-08-28T17:51:18Z</time>
  <course>333.34</course>
  <speed>4.96</speed>
  <fix>3d</fix>
</trkpt>
<trkpt lat="40.0715453" lon="-105.2301421">
  <ele>1582.94</ele>
  <time>2026-08-28T17:51:18Z</time>
  <course>342.75</course>
  <speed>4.998899878973373</speed>
  <fix>3d</fix>
</trkpt>
<trkpt lat="40.0715356" lon="-105.2301372">
  <ele>1583.0</ele>
  <time>2026-08-28T17:51:18Z</time>
  <course>333.34</course>
  <speed>4.96</speed>
  <fix>3d</fix>
</trkpt>
<trkpt lat="40.0715496" lon="-105.2301437">
  <ele>1582.95</ele>
  <time>2026-08-28T17:51:18Z</time>
  <course>345.82</course>
  <speed>4.991482745637813</speed>
  <fix>3d</fix>
</trkpt>
<trkpt lat="40.0715438" lon="-105.2301416">
  <ele>1583.0</ele>
  <time>2026-08-28T17:51:18Z</time>
  <course>341.57</course>
  <speed>4.96</speed>
  <fix>3d</fix>
</trkpt>
<trkpt lat="40.071554" lon="-105.2301449">
  <ele>1582.95</ele>
  <time>2026-08-28T17:51:18Z</time>
  <course>348.38</course>
  <speed>4.993155315028765</speed>
  <fix>3d</fix>
</trkpt>
<trkpt lat="40.0715438" lon="-105.2301416">
  <ele>1583.0</ele>
  <time>2026-08-28T17:51:18Z</time>
  <course>341.57</course>
  <speed>4.96</speed>
  <fix>3d</fix>
</trkpt>
<trkpt lat="40.0715584" lon="-105.2301459">
  <ele>1582.95</ele>
  <time>2026-08-28T17:51:18Z</time>
  <course>350.53</course>
  <speed>4.981445573325076</speed>
  <fix>3d</fix>
</trkpt>
<trkpt lat="40.0715524" lon="-105.2301446">
  <ele>1583.0</ele>
  <time>2026-08-28T17:51:18Z</time>
  <course>347.29</course>
  <speed>4.96</speed>
  <fix>3d</fix>
</trkpt>
<trkpt lat="40.0715629" lon="-105.2301468">
  <ele>1582.95</ele>
  <time>2026-08-28T17:51:18Z</time>
  <course>352.32</course>
  <speed>4.980010040150521</speed>
  <fix>3d</fix>
</trkpt>
<trkpt lat="40.0715524" lon="-105.2301446">
  <ele>1583.0</ele>
  <time>2026-08-28T17:51:18Z</time>
  <course>347.29</course>
  <speed>4.96</speed>
  <fix>3d</fix>
</trkpt>
<trkpt lat="40.0715673" lon="-105.2301475">
  <ele>1582.95</ele>
  <time>2026-08-28T17:51:18Z</time>
  <course>353.8</course>
  <speed>4.97620337204982</speed>
  <fix>3d</fix>
</trkpt>
<trkpt lat="40.0715612" lon="-105.2301468">
  <ele>1583.0</ele>
  <time>2026-08-28T17:51:18Z</time>
  <course>351.27</course>
  <speed>4.95</speed>
  <fix>3d</fix>
</trkpt>
<trkpt lat="40.0715718" lon="-105.2301481">
  <ele>1582.95</ele>
  <time>2026-08-28T17:51:18Z</time>
  <course>355.03</course>
  <speed>4.976916716200905</speed>
  <fix>3d</fix>
</trkpt>
<trkpt lat="40.0715612" lon="-105.2301468">
  <ele>1583.0</ele>
  <time>2026-08-28T17:51:18Z</time>
  <course>351.27</course>
  <speed>4.95</speed>
  <fix>3d</fix>
</trkpt>
<trkpt lat="40.0715771" lon="-105.2301486">
  <ele>1582.95</ele>
  <time>2026-08-28T17:51:18Z</time>
  <course>356.24</course>
  <speed>4.969678057983233</speed>
  <fix>3d</fix>
</trkpt>
<trkpt lat="40.07157" lon="-105.2301483">
  <ele>1583.0</ele>
  <time>2026-08-28T17:51:18Z</time>
  <course>354.02</course>
  <speed>4.95</speed>
  <fix>3d</fix>
</trkpt>
<trkpt lat="40.0715816" lon="-105.230149">
  <ele>1582.94</ele>
  <time>2026-08-28T17:51:18Z</time>
  <course>357.06</course>
  <speed>4.966296406780408</speed>
  <fix>3d</fix>
</trkpt>
<trkpt lat="40.07157" lon="-105.2301483">
  <ele>1583.0</ele>
  <time>2026-08-28T17:51:18Z</time>
  <course>354.02</course>
  <speed>4.95</speed>
  <fix>3d</fix>
</trkpt>
<trkpt lat="40.071586" lon="-105.2301493">
  <ele>1582.94</ele>
  <time>2026-08-28T17:51:18Z</time>
  <course>357.73</course>
  <speed>4.964030620372925</speed>
  <fix>3d</fix>
</trkpt>
<trkpt lat="40.0715789" lon="-105.2301492">
  <ele>1583.0</ele>
  <time>2026-08-28T17:51:18Z</time>
  <course>355.93</course>
  <speed>4.95</speed>
  <fix>3d</fix>
</trkpt>
<trkpt lat="40.0715905" lon="-105.2301496">
  <ele>1582.94</ele>
  <time>2026-08-28T17:51:18Z</time>
  <course>358.29</course>
  <speed>4.972263066250618</speed>
  <fix>3d</fix>
</trkpt>
<trkpt lat="40.0715789" lon="-105.2301492">
  <ele>1583.0</ele>
  <time>2026-08-28T17:51:18Z</time>
  <course>355.93</course>
  <speed>4.95</speed>
  <fix>3d</fix>
</trkpt>
<trkpt lat="40.0715949" lon="-105.2301498">
  <ele>1582.94</ele>
  <time>2026-08-28T17:51:18Z</time>
  <course>358.76</course>
  <speed>4.971448481076718</speed>
  <fix>3d</fix>
</trkpt>
<trkpt lat="40.0715878" lon="-105.2301499">
  <ele>1583.0</ele>
  <time>2026-08-28T17:51:18Z</time>
  <course>357.25</course>
  <speed>4.95</speed>
  <fix>3d</fix>
</trkpt>
<trkpt lat="40.0715993" lon="-105.23015">
  <ele>1582.94</ele>
  <time>2026-08-28T17:51:18Z</time>
  <course>359.16</course>
  <speed>4.960816465058953</speed>
  <fix>3d</fix>
</trkpt>
<trkpt lat="40.0715878" lon="-105.2301499">
  <ele>1583.0</ele>
  <time>2026-08-28T17:51:18Z</time>
  <course>357.25</course>
  <speed>4.95</speed>
  <fix>3d</fix>
</trkpt>
<trkpt lat="40.0716037" lon="-105.2301501">
  <ele>1582.94</ele>
  <time>2026-08-28T17:51:18Z</time>
  <course>359.48</course>
  <speed>4.960493927019768</speed>
  <fix>3d</fix>
</trkpt>
<trkpt lat="40.0715967" lon="-105.2301504">
  <ele>1583.0</ele>
  <time>2026-08-28T17:51:18Z</time>
  <course>358.16</course>
  <speed>4.96</speed>
  <fix>3d</fix>
</trkpt>
<trkpt lat="40.0716081" lon="-105.2301503">
  <ele>1582.94</ele>
  <time>2026-08-28T17:51:18Z</time>
  <course>359.75</course>
  <speed>4.960252009726926</speed>
  <fix>3d</fix>
</trkpt>
<trkpt lat="40.0715967" lon="-105.2301504">
  <ele>1583.0</ele>
  <time>2026-08-28T17:51:18Z</time>
  <course>358.16</course>
  <speed>4.96</speed>
  <fix>3d</fix>
</trkpt>
<trkpt lat="40.0716125" lon="-105.2301504">
  <ele>1582.95</ele>
  <time>2026-08-28T17:51:18Z</time>
  <course>359.96</course>
  <speed>4.96016128770023</speed>
  <fix>3d</fix>
</trkpt>
<trkpt lat="40.0716056" lon="-105.2301507">
  <ele>1583.0</ele>
  <time>2026-08-28T17:51:18Z</time>
  <course>358.77</course>
  <speed>4.97</speed>
  <fix>3d</fix>
</trkpt>
<trkpt lat="40.0716169" lon="-105.2301505">
  <ele>1582.95</ele>
  <time>2026-08-28T17:51:18Z</time>
  <course>0.13</course>
  <speed>4.960090724976712</speed>
  <fix>3d</fix>
</trkpt>
<trkpt lat="40.0716056" lon="-105.2301507">
  <ele>1583.0</ele>
  <time>2026-08-28T17:51:18Z</time>
  <course>358.77</course>
  <speed>4.97</speed>
  <fix>3d</fix>
</trkpt>
<trkpt lat="40.0716213" lon="-105.2301506">
  <ele>1582.95</ele>
  <time>2026-08-28T17:51:18Z</time>
  <course>0.27</course>
  <speed>4.960090724976712</speed>
  <fix>3d</fix>
</trkpt>
<trkpt lat="40.0716146" lon="-105.2301509">
  <ele>1583.0</ele>
  <time>2026-08-28T17:51:18Z</time>
  <course>359.18</course>
  <speed>4.97</speed>
  <fix>3d</fix>
</trkpt>
<trkpt lat="40.0716249" lon="-105.2301506">
  <ele>1582.95</ele>
  <time>2026-08-28T17:51:18Z</time>
  <course>0.38</course>
  <speed>4.960040322416744</speed>
  <fix>3d</fix>
</trkpt>
<trkpt lat="40.0716146" lon="-105.2301509">
  <ele>1583.0</ele>
  <time>2026-08-28T17:51:18Z</time>
  <course>359.18</course>
  <speed>4.97</speed>
  <fix>3d</fix>
</trkpt>
<trkpt lat="40.0716293" lon="-105.2301507">
  <ele>1582.95</ele>
  <time>2026-08-28T17:51:18Z</time>
  <course>0.46</course>
  <speed>4.960040322416744</speed>
  <fix>3d</fix>
</trkpt>
<trkpt lat="40.0716235" lon="-105.230151">
  <ele>1583.0</ele>
  <time>2026-08-28T17:51:18Z</time>
  <course>359.45</course>
  <speed>4.99</speed>
  <fix>3d</fix>
</trkpt>
<trkpt lat="40.0716338" lon="-105.2301508">
  <ele>1582.95</ele>
  <time>2026-08-28T17:51:18Z</time>
  <course>0.53</course>
  <speed>4.970040241285778</speed>
  <fix>3d</fix>
</trkpt>
<trkpt lat="40.0716235" lon="-105.230151">
  <ele>1583.0</ele>
  <time>2026-08-28T17:51:18Z</time>
  <course>359.45</course>
  <speed>4.99</speed>
  <fix>3d</fix>
</trkpt>
<trkpt lat="40.0716382" lon="-105.2301509">
  <ele>1582.96</ele>
  <time>2026-08-28T17:51:18Z</time>
  <course>0.6</course>
  <speed>4.970040241285778</speed>
  <fix>3d</fix>
</trkpt>
<trkpt lat="40.0716324" lon="-105.2301511">
  <ele>1583.0</ele>
  <time>2026-08-28T17:51:18Z</time>
  <course>359.62</course>
  <speed>5.0</speed>
  <fix>3d</fix>
</trkpt>
<trkpt lat="40.0716427" lon="-105.2301509">
  <ele>1582.96</ele>
  <time>2026-08-28T17:51:18Z</time>
  <course>0.67</course>
  <speed>4.970040241285778</speed>
  <fix>3d</fix>
</trkpt>
<trkpt lat="40.0716324" lon="-105.2301511">
  <ele>1583.0</ele>
  <time>2026-08-28T17:51:18Z</time>
  <course>359.62</course>
  <speed>5.0</speed>
  <fix>3d</fix>
</trkpt>
<trkpt lat="40.0716472" lon="-105.230151">
  <ele>1582.96</ele>
  <time>2026-08-28T17:51:18Z</time>
  <course>0.68</course>
  <speed>4.980040160480636</speed>
  <fix>3d</fix>
</trkpt>
<trkpt lat="40.0716415" lon="-105.2301512">
  <ele>1583.0</ele>
  <time>2026-08-28T17:51:18Z</time>
  <course>359.73</course>
  <speed>5.01</speed>
  <fix>3d</fix>
</trkpt>
<trkpt lat="40.0716517" lon="-105.230151">
  <ele>1582.96</ele>
  <time>2026-08-28T17:51:18Z</time>
  <course>0.69</course>
  <speed>4.980040160480636</speed>
  <fix>3d</fix>
</trkpt>
<trkpt lat="40.0716415" lon="-105.2301512">
  <ele>1583.0</ele>
  <time>2026-08-28T17:51:18Z</time>
  <course>359.73</course>
  <speed>5.01</speed>
  <fix>3d</fix>
</trkpt>
<trkpt lat="40.0716563" lon="-105.2301511">
  <ele>1582.96</ele>
  <time>2026-08-28T17:51:18Z</time>
  <course>0.69</course>
  <speed>4.990090179545857</speed>
  <fix>3d</fix>
</trkpt>
<trkpt lat="40.0716505" lon="-105.2301512">
  <ele>1583.0</ele>
  <time>2026-08-28T17:51:18Z</time>
  <course>359.78</course>
  <speed>5.02</speed>
  <fix>3d</fix>
</trkpt>
<trkpt lat="40.0716608" lon="-105.2301511">
  <ele>1582.96</ele>
  <time>2026-08-28T17:51:18Z</time>
  <course>0.69</course>
  <speed>4.990090179545857</speed>
  <fix>3d</fix>
</trkpt>
<trkpt lat="40.0716505" lon="-105.2301512">
  <ele>1583.0</ele>
  <time>2026-08-28T17:51:18Z</time>
  <course>359.78</course>
  <speed>5.02</speed>
  <fix>3d</fix>
</trkpt>
<trkpt lat="40.0716653" lon="-105.2301512">
  <ele>1582.96</ele>
  <time>2026-08-28T17:51:18Z</time>
  <course>0.69</course>
  <speed>5.000089999190014</speed>
  <fix>3d</fix>
</trkpt>
<trkpt lat="40.0716595" lon="-105.2301512">
  <ele>1583.0</ele>
  <time>2026-08-28T17:51:18Z</time>
  <course>359.78</course>
  <speed>5.03</speed>
  <fix>3d</fix>
</trkpt>
<trkpt lat="40.0716708" lon="-105.2301513">
  <ele>1582.96</ele>
  <time>2026-08-28T17:51:18Z</time>
  <course>0.7</course>
  <speed>5.000159997440082</speed>
  <fix>3d</fix>
</trkpt>
<trkpt lat="40.0716595" lon="-105.2301512">
  <ele>1583.0</ele>
  <time>2026-08-28T17:51:18Z</time>
  <course>359.78</course>
  <speed>5.03</speed>
  <fix>3d</fix>
</trkpt>
<trkpt lat="40.0716753" lon="-105.2301513">
  <ele>1582.96</ele>
  <time>2026-08-28T17:51:18Z</time>
  <course>0.7</course>
  <speed>5.000159997440082</speed>
  <fix>3d</fix>
</trkpt>
<trkpt lat="40.0716685" lon="-105.2301513">
  <ele>1583.0</ele>
  <time>2026-08-28T17:51:18Z</time>
  <course>359.78</course>
  <speed>5.04</speed>
  <fix>3d</fix>
</trkpt>
<trkpt lat="40.0716799" lon="-105.2301514">
  <ele>1582.96</ele>
  <time>2026-08-28T17:51:18Z</time>
  <course>0.7</course>
  <speed>5.000159997440082</speed>
  <fix>3d</fix>
</trkpt>
<trkpt lat="40.0716685" lon="-105.2301513">
  <ele>1583.0</ele>
  <time>2026-08-28T17:51:18Z</time>
  <course>359.78</course>
  <speed>5.04</speed>
  <fix>3d</fix>
</trkpt>
<trkpt lat="40.0716844" lon="-105.2301514">
  <ele>1582.96</ele>
  <time>2026-08-28T17:51:18Z</time>
  <course>0.7</course>
  <speed>5.0101596780941025</speed>
  <fix>3d</fix>
</trkpt>
<trkpt lat="40.0716776" lon="-105.2301514">
  <ele>1583.0</ele>
  <time>2026-08-28T17:51:18Z</time>
  <course>359.78</course>
  <speed>5.04</speed>
  <fix>3d</fix>
</trkpt>
<trkpt lat="40.071689" lon="-105.2301514">
  <ele>1582.97</ele>
  <time>2026-08-28T17:51:18Z</time>
  <course>0.7</course>
  <speed>5.0101596780941025</speed>
  <fix>3d</fix>
</trkpt>
<trkpt lat="40.0716776" lon="-105.2301514">
  <ele>1583.0</ele>
  <time>2026-08-28T17:51:18Z</time>
  <course>359.78</course>
  <speed>5.04</speed>
  <fix>3d</fix>
</trkpt>
<trkpt lat="40.0716935" lon="-105.2301515">
  <ele>1582.97</ele>
  <time>2026-08-28T17:51:18Z</time>
  <course>0.7</course>
  <speed>5.0101596780941025</speed>
  <fix>3d</fix>
</trkpt>
<trkpt lat="40.0716867" lon="-105.2301514">
  <ele>1583.0</ele>
  <time>2026-08-28T17:51:18Z</time>
  <course>359.78</course>
  <speed>5.04</speed>
  <fix>3d</fix>
</trkpt>
<trkpt lat="40.071698" lon="-105.2301515">
  <ele>1582.97</ele>
  <time>2026-08-28T17:51:18Z</time>
  <course>0.7</course>
  <speed>5.010249494785664</speed>
  <fix>3d</fix>
</trkpt>
<trkpt lat="40.0716867" lon="-105.2301514">
  <ele>1583.0</ele>
  <time>2026-08-28T17:51:18Z</time>
  <course>359.78</course>
  <speed>5.04</speed>
  <fix>3d</fix>
</trkpt>
<trkpt lat="40.0717025" lon="-105.2301516">
  <ele>1582.97</ele>
  <time>2026-08-28T17:51:18Z</time>
  <course>0.71</course>
  <speed>5.010249494785664</speed>
  <fix>3d</fix>
</trkpt>
<trkpt lat="40.0716958" lon="-105.2301514">
  <ele>1583.0</ele>
  <time>2026-08-28T17:51:18Z</time>
  <course>359.78</course>
  <speed>5.05</speed>
  <fix>3d</fix>
</trkpt>
<trkpt lat="40.071707" lon="-105.2301516">
  <ele>1582.97</ele>
  <time>2026-08-28T17:51:18Z</time>
  <course>0.71</course>
  <speed>5.000249993750312</speed>
  <fix>3d</fix>
</trkpt>
<trkpt lat="40.0716958" lon="-105.2301514">
  <ele>1583.0</ele>
  <time>2026-08-28T17:51:18Z</time>
  <course>359.78</course>
  <speed>5.05</speed>
  <fix>3d</fix>
</trkpt>
<trkpt lat="40.0717115" lon="-105.2301517">
  <ele>1582.97</ele>
  <time>2026-08-28T17:51:18Z</time>
  <course>0.71</course>
  <speed>5.000249993750312</speed>
  <fix>3d</fix>
</trkpt>
<trkpt lat="40.0717049" lon="-105.2301515">
  <ele>1583.0</ele>
  <time>2026-08-28T17:51:18Z</time>
  <course>359.78</course>
  <speed>5.05</speed>
  <fix>3d</fix>
</trkpt>
<trkpt lat="40.0717159" lon="-105.2301517">
  <ele>1582.97</ele>
  <time>2026-08-28T17:51:18Z</time>
  <course>0.71</course>
  <speed>5.000249993750312</speed>
  <fix>3d</fix>
</trkpt>
<trkpt lat="40.0717049" lon="-105.2301515">
  <ele>1583.0</ele>
  <time>2026-08-28T17:51:18Z</time>
  <course>359.78</course>
  <speed>5.05</speed>
  <fix>3d</fix>
</trkpt>
<trkpt lat="40.0717196" lon="-105.2301517">
  <ele>1582.97</ele>
  <time>2026-08-28T17:51:18Z</time>
  <course>0.72</course>
  <speed>5.000249993750312</speed>
  <fix>3d</fix>
</trkpt>
<trkpt lat="40.071714" lon="-105.2301516">
  <ele>1583.0</ele>
  <time>2026-08-28T17:51:18Z</time>
  <course>359.78</course>
  <speed>5.05</speed>
  <fix>3d</fix>
</trkpt>
<trkpt lat="40.0717241" lon="-105.2301518">
  <ele>1582.97</ele>
  <time>2026-08-28T17:51:18Z</time>
  <course>0.72</course>
  <speed>5.000249993750312</speed>
  <fix>3d</fix>
</trkpt>
<trkpt lat="40.071714" lon="-105.2301516">
  <ele>1583.0</ele>
  <time>2026-08-28T17:51:18Z</time>
  <course>359.78</course>
  <speed>5.05</speed>
  <fix>3d</fix>
</trkpt>
<trkpt lat="40.0717286" lon="-105.2301518">
  <ele>1582.97</ele>
  <time>2026-08-28T17:51:18Z</time>
  <course>0.72</course>
  <speed>5.000249993750312</speed>
  <fix>3d</fix>
</trkpt>
<trkpt lat="40.071723" lon="-105.2301516">
  <ele>1583.0</ele>
  <time>2026-08-28T17:51:18Z</time>
  <course>359.78</course>
  <speed>5.05</speed>
  <fix>3d</fix>
</trkpt>
<trkpt lat="40.0717332" lon="-105.2301518">
  <ele>1582.96</ele>
  <time>2026-08-28T17:51:18Z</time>
  <course>0.72</course>
  <speed>5.000249993750312</speed>
  <fix>3d</fix>
</trkpt>
<trkpt lat="40.071723" lon="-105.2301516">
  <ele>1583.0</ele>
  <time>2026-08-28T17:51:18Z</time>
  <course>359.78</course>
  <speed>5.05</speed>
  <fix>3d</fix>
</trkpt>
<trkpt lat="40.0717377" lon="-105.2301519">
  <ele>1582.96</ele>
  <time>2026-08-28T17:51:18Z</time>
  <course>0.72</course>
  <speed>5.000249993750312</speed>
  <fix>3d</fix>
</trkpt>
<trkpt lat="40.0717321" lon="-105.2301516">
  <ele>1583.0</ele>
  <time>2026-08-28T17:51:18Z</time>
  <course>359.78</course>
  <speed>5.05</speed>
  <fix>3d</fix>
</trkpt>
<trkpt lat="40.0717423" lon="-105.2301519">
  <ele>1582.96</ele>
  <time>2026-08-28T17:51:18Z</time>
  <course>0.72</course>
  <speed>5.000249993750312</speed>
  <fix>3d</fix>
</trkpt>
<trkpt lat="40.0717321" lon="-105.2301516">
  <ele>1583.0</ele>
  <time>2026-08-28T17:51:18Z</time>
  <course>359.78</course>
  <speed>5.05</speed>
  <fix>3d</fix>
</trkpt>
<trkpt lat="40.0717468" lon="-105.2301519">
  <ele>1582.96</ele>
  <time>2026-08-28T17:51:18Z</time>
  <course>0.73</course>
  <speed>5.000249993750312</speed>
  <fix>3d</fix>
</trkpt>
<trkpt lat="40.0717412" lon="-105.2301516">
  <ele>1583.0</ele>
  <time>2026-08-28T17:51:18Z</time>
  <course>359.78</course>
  <speed>5.05</speed>
  <fix>3d</fix>
</trkpt>
<trkpt lat="40.0717514" lon="-105.230152">
  <ele>1582.95</ele>
  <time>2026-08-28T17:51:18Z</time>
  <course>0.73</course>
  <speed>5.000159997440082</speed>
  <fix>3d</fix>
</trkpt>
<trkpt lat="40.0717412" lon="-105.2301516">
  <ele>1583.0</ele>
  <time>2026-08-28T17:51:18Z</time>
  <course>359.78</course>
  <speed>5.05</speed>
  <fix>3d</fix>
</trkpt>
<trkpt lat="40.071756" lon="-105.230152">
  <ele>1582.96</ele>
  <time>2026-08-28T17:51:18Z</time>
  <course>0.73</course>
  <speed>5.000159997440082</speed>
  <fix>3d</fix>
</trkpt>
<trkpt lat="40.0717503" lon="-105.2301517">
  <ele>1583.0</ele>
  <time>2026-08-28T17:51:18Z</time>
  <course>359.78</course>
  <speed>5.05</speed>
  <fix>3d</fix>
</trkpt>
<trkpt lat="40.0717614" lon="-105.230152">
  <ele>1582.96</ele>
  <time>2026-08-28T17:51:18Z</time>
  <course>0.73</course>
  <speed>5.000159997440082</speed>
  <fix>3d</fix>
</trkpt>
<trkpt lat="40.0717503" lon="-105.2301517">
  <ele>1583.0</ele>
  <time>2026-08-28T17:51:18Z</time>
  <course>359.78</course>
  <speed>5.05</speed>
  <fix>3d</fix>
</trkpt>
<trkpt lat="40.071766" lon="-105.230152">
  <ele>1582.96</ele>
  <time>2026-08-28T17:51:18Z</time>
  <course>0.74</course>
  <speed>5.000159997440082</speed>
  <fix>3d</fix>
</trkpt>
<trkpt lat="40.0717594" lon="-105.2301518">
  <ele>1583.0</ele>
  <time>2026-08-28T17:51:18Z</time>
  <course>359.78</course>
  <speed>5.05</speed>
  <fix>3d</fix>
</trkpt>
<trkpt lat="40.0717706" lon="-105.230152">
  <ele>1582.96</ele>
  <time>2026-08-28T17:51:18Z</time>
  <course>0.74</course>
  <speed>5.000159997440082</speed>
  <fix>3d</fix>
</trkpt>
<trkpt lat="40.0717594" lon="-105.2301518">
  <ele>1583.0</ele>
  <time>2026-08-28T17:51:18Z</time>
  <course>359.78</course>
  <speed>5.05</speed>
  <fix>3d</fix>
</trkpt>
<trkpt lat="40.0717751" lon="-105.2301521">
  <ele>1582.96</ele>
  <time>2026-08-28T17:51:18Z</time>
  <course>0.74</course>
  <speed>5.000159997440082</speed>
  <fix>3d</fix>
</trkpt>
<trkpt lat="40.0717685" lon="-105.2301518">
  <ele>1583.0</ele>
  <time>2026-08-28T17:51:18Z</time>
  <course>359.78</course>
  <speed>5.05</speed>
  <fix>3d</fix>
</trkpt>
<trkpt lat="40.0717797" lon="-105.2301521">
  <ele>1582.97</ele>
  <time>2026-08-28T17:51:18Z</time>
  <course>0.75</course>
  <speed>5.000089999190014</speed>
  <fix>3d</fix>
</trkpt>
<trkpt lat="40.0717685" lon="-105.2301518">
  <ele>1583.0</ele>
  <time>2026-08-28T17:51:18Z</time>
  <course>359.78</course>
  <speed>5.05</speed>
  <fix>3d</fix>
</trkpt>
<trkpt lat="40.0717842" lon="-105.2301521">
  <ele>1582.97</ele>
  <time>2026-08-28T17:51:18Z</time>
  <course>0.75</course>
  <speed>5.000089999190014</speed>
  <fix>3d</fix>
</trkpt>
<trkpt lat="40.0717775" lon="-105.2301519">
  <ele>1583.0</ele>
  <time>2026-08-28T17:51:18Z</time>
  <course>359.78</course>
  <speed>5.05</speed>
  <fix>3d</fix>
</trkpt>
<trkpt lat="40.0717887" lon="-105.2301521">
  <ele>1582.97</ele>
  <time>2026-08-28T17:51:18Z</time>
  <course>0.75</course>
  <speed>5.000089999190014</speed>
  <fix>3d</fix>
</trkpt>
<trkpt lat="40.0717775" lon="-105.2301519">
  <ele>1583.0</ele>
  <time>2026-08-28T17:51:18Z</time>
  <course>359.78</course>
  <speed>5.05</speed>
  <fix>3d</fix>
</trkpt>
<trkpt lat="40.0717932" lon="-105.2301521">
  <ele>1582.97</ele>
  <time>2026-08-28T17:51:18Z</time>
  <course>0.76</course>
  <speed>5.000089999190014</speed>
  <fix>3d</fix>
</trkpt>
<trkpt lat="40.0717866" lon="-105.2301519">
  <ele>1583.0</ele>
  <time>2026-08-28T17:51:18Z</time>
  <course>359.78</course>
  <speed>5.05</speed>
  <fix>3d</fix>
</trkpt>
<trkpt lat="40.0717977" lon="-105.2301521">
  <ele>1582.97</ele>
  <time>2026-08-28T17:51:18Z</time>
  <course>0.76</course>
  <speed>5.000089999190014</speed>
  <fix>3d</fix>
</trkpt>
<trkpt lat="40.0717866" lon="-105.2301519">
  <ele>1583.0</ele>
  <time>2026-08-28T17:51:18Z</time>
  <course>359.78</course>
  <speed>5.05</speed>
  <fix>3d</fix>
</trkpt>
<trkpt lat="40.0718022" lon="-105.2301521">
  <ele>1582.97</ele>
  <time>2026-08-28T17:51:18Z</time>
  <course>0.76</course>
  <speed>4.990090179545857</speed>
  <fix>3d</fix>
</trkpt>
<trkpt lat="40.0717957" lon="-105.2301519">
  <ele>1583.0</ele>
  <time>2026-08-28T17:51:18Z</time>
  <course>359.78</course>
  <speed>5.05</speed>
  <fix>3d</fix>
</trkpt>
<trkpt lat="40.0718067" lon="-105.2301522">
  <ele>1582.97</ele>
  <time>2026-08-28T17:51:18Z</time>
  <course>0.67</course>
  <speed>4.890092023673992</speed>
  <fix>3d</fix>
</trkpt>
<trkpt lat="40.0717957" lon="-105.2301519">
  <ele>1583.0</ele>
  <time>2026-08-28T17:51:18Z</time>
  <course>359.78</course>
  <speed>5.05</speed>
  <fix>3d</fix>
</trkpt>
<trkpt lat="40.071811" lon="-105.2301522">
  <ele>1582.97</ele>
  <time>2026-08-28T17:51:18Z</time>
  <course>0.63</course>
  <speed>4.650172039828203</speed>
  <fix>3d</fix>
</trkpt>
<trkpt lat="40.0718047" lon="-105.230152">
  <ele>1583.0</ele>
  <time>2026-08-28T17:51:18Z</time>
  <course>359.72</course>
  <speed>4.9</speed>
  <fix>3d</fix>
</trkpt>
<trkpt lat="40.0718142" lon="-105.2301522">
  <ele>1582.97</ele>
  <time>2026-08-28T17:51:18Z</time>
  <course>0.58</course>
  <speed>4.4601793685904605</speed>
  <fix>3d</fix>
</trkpt>
<trkpt lat="40.0718047" lon="-105.230152">
  <ele>1583.0</ele>
  <time>2026-08-28T17:51:18Z</time>
  <course>359.72</course>
  <speed>4.9</speed>
  <fix>3d</fix>
</trkpt>
<trkpt lat="40.0718181" lon="-105.2301522">
  <ele>1582.97</ele>
  <time>2026-08-28T17:51:18Z</time>
  <course>0.55</course>
  <speed>4.230189121067756</speed>
  <fix>3d</fix>
</trkpt>
<trkpt lat="40.0718132" lon="-105.2301521">
  <ele>1583.0</ele>
  <time>2026-08-28T17:51:18Z</time>
  <course>359.61</course>
  <speed>4.52</speed>
  <fix>3d</fix>
</trkpt>
<trkpt lat="40.0718218" lon="-105.2301523">
  <ele>1582.97</ele>
  <time>2026-08-28T17:51:18Z</time>
  <course>0.53</course>
  <speed>4.02031093324882</speed>
  <fix>3d</fix>
</trkpt>
<trkpt lat="40.0718132" lon="-105.2301521">
  <ele>1583.0</ele>
  <time>2026-08-28T17:51:18Z</time>
  <course>359.61</course>
  <speed>4.52</speed>
  <fix>3d</fix>
</trkpt>
<trkpt lat="40.0718253" lon="-105.2301523">
  <ele>1582.97</ele>
  <time>2026-08-28T17:51:18Z</time>
  <course>0.51</course>
  <speed>3.8203272111168696</speed>
  <fix>3d</fix>
</trkpt>
<trkpt lat="40.071821" lon="-105.2301521">
  <ele>1583.0</ele>
  <time>2026-08-28T17:51:18Z</time>
  <course>359.54</course>
  <speed>4.09</speed>
  <fix>3d</fix>
</trkpt>
<trkpt lat="40.0718287" lon="-105.2301524">
  <ele>1582.98</ele>
  <time>2026-08-28T17:51:18Z</time>
  <course>0.5</course>
  <speed>3.6303443362854715</speed>
  <fix>3d</fix>
</trkpt>
<trkpt lat="40.071821" lon="-105.2301521">
  <ele>1583.0</ele>
  <time>2026-08-28T17:51:18Z</time>
  <course>359.54</course>
  <speed>4.09</speed>
  <fix>3d</fix>
</trkpt>
<trkpt lat="40.0718319" lon="-105.2301524">
  <ele>1582.98</ele>
  <time>2026-08-28T17:51:18Z</time>
  <course>0.48</course>
  <speed>3.4403633529032946</speed>
  <fix>3d</fix>
</trkpt>
<trkpt lat="40.0718279" lon="-105.2301522">
  <ele>1583.0</ele>
  <time>2026-08-28T17:51:18Z</time>
  <course>359.5</course>
  <speed>3.7</speed>
  <fix>3d</fix>
</trkpt>
<trkpt lat="40.071835" lon="-105.2301524">
  <ele>1582.97</ele>
  <time>2026-08-28T17:51:18Z</time>
  <course>0.47</course>
  <speed>3.2703822406562812</speed>
  <fix>3d</fix>
</trkpt>
<trkpt lat="40.0718279" lon="-105.2301522">
  <ele>1583.0</ele>
  <time>2026-08-28T17:51:18Z</time>
  <course>359.5</course>
  <speed>3.7</speed>
  <fix>3d</fix>
</trkpt>
<trkpt lat="40.0718379" lon="-105.2301525">
  <ele>1582.97</ele>
  <time>2026-08-28T17:51:18Z</time>
  <course>0.46</course>
  <speed>3.1002580537755238</speed>
  <fix>3d</fix>
</trkpt>
<trkpt lat="40.0718343" lon="-105.2301523">
  <ele>1583.0</ele>
  <time>2026-08-28T17:51:18Z</time>
  <course>359.48</course>
  <speed>3.35</speed>
  <fix>3d</fix>
</trkpt>
<trkpt lat="40.0718406" lon="-105.2301525">
  <ele>1582.97</ele>
  <time>2026-08-28T17:51:18Z</time>
  <course>0.46</course>
  <speed>2.9502711739770633</speed>
  <fix>3d</fix>
</trkpt>
<trkpt lat="40.0718343" lon="-105.2301523">
  <ele>1583.0</ele>
  <time>2026-08-28T17:51:18Z</time>
  <course>359.48</course>
  <speed>3.35</speed>
  <fix>3d</fix>
</trkpt>
<trkpt lat="40.0718437" lon="-105.2301525">
  <ele>1582.96</ele>
  <time>2026-08-28T17:51:18Z</time>
  <course>0.44</course>
  <speed>2.7702887936097924</speed>
  <fix>3d</fix>
</trkpt>
<trkpt lat="40.07184" lon="-105.2301523">
  <ele>1583.0</ele>
  <time>2026-08-28T17:51:18Z</time>
  <course>359.45</course>
  <speed>3.03</speed>
  <fix>3d</fix>
</trkpt>
<trkpt lat="40.0718462" lon="-105.2301526">
  <ele>1582.96</ele>
  <time>2026-08-28T17:51:18Z</time>
  <course>0.43</course>
  <speed>2.630304164920856</speed>
  <fix>3d</fix>
</trkpt>
<trkpt lat="40.07184" lon="-105.2301523">
  <ele>1583.0</ele>
  <time>2026-08-28T17:51:18Z</time>
  <course>359.45</course>
  <speed>3.03</speed>
  <fix>3d</fix>
</trkpt>
<trkpt lat="40.0718485" lon="-105.2301526">
  <ele>1582.96</ele>
  <time>2026-08-28T17:51:18Z</time>
  <course>0.43</course>
  <speed>2.4903212644154973</speed>
  <fix>3d</fix>
</trkpt>
<trkpt lat="40.0718452" lon="-105.2301524">
  <ele>1583.0</ele>
  <time>2026-08-28T17:51:18Z</time>
  <course>359.43</course>
  <speed>2.74</speed>
  <fix>3d</fix>
</trkpt>
<trkpt lat="40.0718508" lon="-105.2301526">
  <ele>1582.95</ele>
  <time>2026-08-28T17:51:18Z</time>
  <course>0.42</course>
  <speed>2.3701898658124416</speed>
  <fix>3d</fix>
</trkpt>
<trkpt lat="40.0718452" lon="-105.2301524">
  <ele>1583.0</ele>
  <time>2026-08-28T17:51:18Z</time>
  <course>359.43</course>
  <speed>2.74</speed>
  <fix>3d</fix>
</trkpt>
<trkpt lat="40.0718529" lon="-105.2301527">
  <ele>1582.95</ele>
  <time>2026-08-28T17:51:18Z</time>
  <course>0.41</course>
  <speed>2.2501999911119013</speed>
  <fix>3d</fix>
</trkpt>
<trkpt lat="40.0718499" lon="-105.2301524">
  <ele>1583.0</ele>
  <time>2026-08-28T17:51:18Z</time>
  <course>359.41</course>
  <speed>2.48</speed>
  <fix>3d</fix>
</trkpt>
<trkpt lat="40.0718549" lon="-105.2301527">
  <ele>1582.95</ele>
  <time>2026-08-28T17:51:18Z</time>
  <course>0.4</course>
  <speed>2.130211257129208</speed>
  <fix>3d</fix>
</trkpt>
<trkpt lat="40.0718499" lon="-105.2301524">
  <ele>1583.0</ele>
  <time>2026-08-28T17:51:18Z</time>
  <course>359.41</course>
  <speed>2.48</speed>
  <fix>3d</fix>
</trkpt>
<trkpt lat="40.0718568" lon="-105.2301527">
  <ele>1582.95</ele>
  <time>2026-08-28T17:51:18Z</time>
  <course>0.39</course>
  <speed>2.020222759994551</speed>
  <fix>3d</fix>
</trkpt>
<trkpt lat="40.0718542" lon="-105.2301525">
  <ele>1583.0</ele>
  <time>2026-08-28T17:51:18Z</time>
  <course>359.38</course>
  <speed>2.24</speed>
  <fix>3d</fix>
</trkpt>
<trkpt lat="40.0718586" lon="-105.2301527">
  <ele>1582.95</ele>
  <time>2026-08-28T17:51:18Z</time>
  <course>0.38</course>
  <speed>1.9201041638411183</speed>
  <fix>3d</fix>
</trkpt>
<trkpt lat="40.0718542" lon="-105.2301525">
  <ele>1583.0</ele>
  <time>2026-08-28T17:51:18Z</time>
  <course>359.38</course>
  <speed>2.24</speed>
  <fix>3d</fix>
</trkpt>
<trkpt lat="40.0718603" lon="-105.2301527">
  <ele>1582.94</ele>
  <time>2026-08-28T17:51:18Z</time>
  <course>0.38</course>
  <speed>1.820109886792553</speed>
  <fix>3d</fix>
</trkpt>
<trkpt lat="40.071858" lon="-105.2301526">
  <ele>1583.0</ele>
  <time>2026-08-28T17:51:18Z</time>
  <course>359.36</course>
  <speed>2.03</speed>
  <fix>3d</fix>
</trkpt>
<trkpt lat="40.0718619" lon="-105.2301527">
  <ele>1582.94</ele>
  <time>2026-08-28T17:51:18Z</time>
  <course>0.37</course>
  <speed>1.730115603073968</speed>
  <fix>3d</fix>
</trkpt>
<trkpt lat="40.071858" lon="-105.2301526">
  <ele>1583.0</ele>
  <time>2026-08-28T17:51:18Z</time>
  <course>359.36</course>
  <speed>2.03</speed>
  <fix>3d</fix>
</trkpt>
<trkpt lat="40.0718634" lon="-105.2301527">
  <ele>1582.94</ele>
  <time>2026-08-28T17:51:18Z</time>
  <course>0.36</course>
  <speed>1.6400304875214973</speed>
  <fix>3d</fix>
</trkpt>
<trkpt lat="40.0718615" lon="-105.2301526">
  <ele>1583.0</ele>
  <time>2026-08-28T17:51:18Z</time>
  <course>359.35</course>
  <speed>1.84</speed>
  <fix>3d</fix>
</trkpt>
<trkpt lat="40.0718646" lon="-105.2301527">
  <ele>1582.94</ele>
  <time>2026-08-28T17:51:18Z</time>
  <course>0.36</course>
  <speed>1.5700318468107581</speed>
  <fix>3d</fix>
</trkpt>
<trkpt lat="40.0718615" lon="-105.2301526">
  <ele>1583.0</ele>
  <time>2026-08-28T17:51:18Z</time>
  <course>359.35</course>
  <speed>1.84</speed>
  <fix>3d</fix>
</trkpt>
<trkpt lat="40.071866" lon="-105.2301527">
  <ele>1582.95</ele>
  <time>2026-08-28T17:51:18Z</time>
  <course>0.35</course>
  <speed>1.4900335566691105</speed>
  <fix>3d</fix>
</trkpt>
<trkpt lat="40.0718646" lon="-105.2301526">
  <ele>1583.0</ele>
  <time>2026-08-28T17:51:18Z</time>
  <course>359.32</course>
  <speed>1.66</speed>
  <fix>3d</fix>
</trkpt>
<trkpt lat="40.0718674" lon="-105.2301527">
  <ele>1582.95</ele>
  <time>2026-08-28T17:51:18Z</time>
  <course>0.35</course>
  <speed>1.41</speed>
  <fix>3d</fix>
</trkpt>
<trkpt lat="40.0718646" lon="-105.2301526">
  <ele>1583.0</ele>
  <time>2026-08-28T17:51:18Z</time>
  <course>359.32</course>
  <speed>1.66</speed>
  <fix>3d</fix>
</trkpt>
<trkpt lat="40.0718687" lon="-105.2301527">
  <ele>1582.96</ele>
  <time>2026-08-28T17:51:18Z</time>
  <course>0.34</course>
  <speed>1.34</speed>
  <fix>3d</fix>
</trkpt>
<trkpt lat="40.0718674" lon="-105.2301527">
  <ele>1583.0</ele>
  <time>2026-08-28T17:51:18Z</time>
  <course>359.3</course>
  <speed>1.5</speed>
  <fix>3d</fix>
</trkpt>
<trkpt lat="40.0718732" lon="-105.2301528">
  <ele>1582.99</ele>
  <time>2026-08-28T17:51:18Z</time>
  <course>0.34</course>
  <speed>1.08</speed>
  <fix>3d</fix>
</trkpt>
<trkpt lat="40.0718723" lon="-105.2301528">
  <ele>1583.0</ele>
  <time>2026-08-28T17:51:18Z</time>
  <course>359.28</course>
  <speed>1.23</speed>
  <fix>3d</fix>
</trkpt>
<trkpt lat="40.0718761" lon="-105.2301528">
  <ele>1583.0</ele>
  <time>2026-08-28T17:51:18Z</time>
  <course>0.49</course>
  <speed>0.9202173656261873</speed>
  <fix>3d</fix>
</trkpt>
<trkpt lat="40.0718744" lon="-105.2301528">
  <ele>1583.0</ele>
  <time>2026-08-28T17:51:18Z</time>
  <course>359.33</course>
  <speed>1.11</speed>
  <fix>3d</fix>
</trkpt>
<trkpt lat="40.071877" lon="-105.2301528">
  <ele>1583.0</ele>
  <time>2026-08-28T17:51:18Z</time>
  <course>0.54</course>
  <speed>0.8802272433866155</speed>
  <fix>3d</fix>
</trkpt>
<trkpt lat="40.0718763" lon="-105.2301528">
  <ele>1583.0</ele>
  <time>2026-08-28T17:51:18Z</time>
  <course>359.41</course>
  <speed>1.01</speed>
  <fix>3d</fix>
</trkpt>
<trkpt lat="40.0718778" lon="-105.2301527">
  <ele>1583.0</ele>
  <time>2026-08-28T17:51:18Z</time>
  <course>0.58</course>
  <speed>0.8305419917138447</speed>
  <fix>3d</fix>
</trkpt>
<trkpt lat="40.0718763" lon="-105.2301528">
  <ele>1583.0</ele>
  <time>2026-08-28T17:51:18Z</time>
  <course>359.41</course>
  <speed>1.01</speed>
  <fix>3d</fix>
</trkpt>
<trkpt lat="40.0718786" lon="-105.2301527">
  <ele>1583.0</ele>
  <time>2026-08-28T17:51:18Z</time>
  <course>0.62</course>
  <speed>0.7905694150420949</speed>
  <fix>3d</fix>
</trkpt>
<trkpt lat="40.0718781" lon="-105.2301528">
  <ele>1583.0</ele>
  <time>2026-08-28T17:51:18Z</time>
  <course>359.49</course>
  <speed>0.91</speed>
  <fix>3d</fix>
</trkpt>
<trkpt lat="40.0718794" lon="-105.2301527">
  <ele>1583.0</ele>
  <time>2026-08-28T17:51:18Z</time>
  <course>0.66</course>
  <speed>0.7505997601918082</speed>
  <fix>3d</fix>
</trkpt>
<trkpt lat="40.0718781" lon="-105.2301528">
  <ele>1583.0</ele>
  <time>2026-08-28T17:51:18Z</time>
  <course>359.49</course>
  <speed>0.91</speed>
  <fix>3d</fix>
</trkpt>
<trkpt lat="40.0718808" lon="-105.2301526">
  <ele>1582.99</ele>
  <time>2026-08-28T17:51:18Z</time>
  <course>0.72</course>
  <speed>0.6711929677819934</speed>
  <fix>3d</fix>
</trkpt>
<trkpt lat="40.0718797" lon="-105.2301528">
  <ele>1583.0</ele>
  <time>2026-08-28T17:51:18Z</time>
  <course>359.56</course>
  <speed>0.82</speed>
  <fix>3d</fix>
</trkpt>
<trkpt lat="40.0718814" lon="-105.2301526">
  <ele>1582.98</ele>
  <time>2026-08-28T17:51:18Z</time>
  <course>0.75</course>
  <speed>0.6412487816752559</speed>
  <fix>3d</fix>
</trkpt>
<trkpt lat="40.0718797" lon="-105.2301528">
  <ele>1583.0</ele>
  <time>2026-08-28T17:51:18Z</time>
  <course>359.56</course>
  <speed>0.82</speed>
  <fix>3d</fix>
</trkpt>
<trkpt lat="40.071882" lon="-105.2301526">
  <ele>1582.98</ele>
  <time>2026-08-28T17:51:18Z</time>
  <course>0.78</course>
  <speed>0.6020797289396147</speed>
  <fix>3d</fix>
</trkpt>
<trkpt lat="40.0718811" lon="-105.2301529">
  <ele>1583.0</ele>
  <time>2026-08-28T17:51:18Z</time>
  <course>359.62</course>
  <speed>0.74</speed>
  <fix>3d</fix>
</trkpt>
<trkpt lat="40.0718826" lon="-105.2301526">
  <ele>1582.98</ele>
  <time>2026-08-28T17:51:18Z</time>
  <course>0.8</course>
  <speed>0.5721887800367987</speed>
  <fix>3d</fix>
</trkpt>
<trkpt lat="40.0718811" lon="-105.2301529">
  <ele>1583.0</ele>
  <time>2026-08-28T17:51:18Z</time>
  <course>359.62</course>
  <speed>0.74</speed>
  <fix>3d</fix>
</trkpt>
<trkpt lat="40.0718832" lon="-105.2301525">
  <ele>1582.98</ele>
  <time>2026-08-28T17:51:18Z</time>
  <course>0.82</course>
  <speed>0.54230987451825</speed>
  <fix>3d</fix>
</trkpt>
<trkpt lat="40.0718824" lon="-105.230153">
  <ele>1583.0</ele>
  <time>2026-08-28T17:51:18Z</time>
  <course>359.67</course>
  <speed>0.67</speed>
  <fix>3d</fix>
</trkpt>
<trkpt lat="40.0718837" lon="-105.2301525">
  <ele>1582.98</ele>
  <time>2026-08-28T17:51:18Z</time>
  <course>0.84</course>
  <speed>0.5124451190127582</speed>
  <fix>3d</fix>
</trkpt>
<trkpt lat="40.0718835" lon="-105.230153">
  <ele>1583.0</ele>
  <time>2026-08-28T17:51:18Z</time>
  <course>359.71</course>
  <speed>0.61</speed>
  <fix>3d</fix>
</trkpt>
<trkpt lat="40.0718842" lon="-105.2301525">
  <ele>1582.98</ele>
  <time>2026-08-28T17:51:18Z</time>
  <course>0.85</course>
  <speed>0.4936598018878993</speed>
  <fix>3d</fix>
</trkpt>
<trkpt lat="40.0718835" lon="-105.230153">
  <ele>1583.0</ele>
  <time>2026-08-28T17:51:18Z</time>
  <course>359.71</course>
  <speed>0.61</speed>
  <fix>3d</fix>
</trkpt>
<trkpt lat="40.0718847" lon="-105.2301525">
  <ele>1582.98</ele>
  <time>2026-08-28T17:51:18Z</time>
  <course>0.87</course>
  <speed>0.46389654018972803</speed>
  <fix>3d</fix>
</trkpt>
<trkpt lat="40.0718846" lon="-105.230153">
  <ele>1583.0</ele>
  <time>2026-08-28T17:51:18Z</time>
  <course>359.74</course>
  <speed>0.55</speed>
  <fix>3d</fix>
</trkpt>
<trkpt lat="40.0718852" lon="-105.2301525">
  <ele>1582.97</ele>
  <time>2026-08-28T17:51:18Z</time>
  <course>0.89</course>
  <speed>0.4440720662234904</speed>
  <fix>3d</fix>
</trkpt>
<trkpt lat="40.0718846" lon="-105.230153">
  <ele>1583.0</ele>
  <time>2026-08-28T17:51:18Z</time>
  <course>359.74</course>
  <speed>0.55</speed>
  <fix>3d</fix>
</trkpt>
<trkpt lat="40.0718856" lon="-105.2301525">
  <ele>1582.97</ele>
  <time>2026-08-28T17:51:18Z</time>
  <course>0.9</course>
  <speed>0.4242640687119285</speed>
  <fix>3d</fix>
</trkpt>
<trkpt lat="40.0718855" lon="-105.230153">
  <ele>1583.0</ele>
  <time>2026-08-28T17:51:18Z</time>
  <course>359.76</course>
  <speed>0.5</speed>
  <fix>3d</fix>
</trkpt>
<trkpt lat="40.071886" lon="-105.2301525">
  <ele>1582.96</ele>
  <time>2026-08-28T17:51:18Z</time>
  <course>0.92</course>
  <speed>0.4044749683231337</speed>
  <fix>3d</fix>
</trkpt>
<trkpt lat="40.0718855" lon="-105.230153">
  <ele>1583.0</ele>
  <time>2026-08-28T17:51:18Z</time>
  <course>359.76</course>
  <speed>0.5</speed>
  <fix>3d</fix>
</trkpt>
<trkpt lat="40.0718864" lon="-105.2301524">
  <ele>1582.96</ele>
  <time>2026-08-28T17:51:18Z</time>
  <course>0.93</course>
  <speed>0.38470768123342686</speed>
  <fix>3d</fix>
</trkpt>
<trkpt lat="40.0718863" lon="-105.230153">
  <ele>1583.0</ele>
  <time>2026-08-28T17:51:18Z</time>
  <course>359.79</course>
  <speed>0.45</speed>
  <fix>3d</fix>
</trkpt>
<trkpt lat="40.0718868" lon="-105.2301524">
  <ele>1582.95</ele>
  <time>2026-08-28T17:51:18Z</time>
  <course>0.94</course>
  <speed>0.366742416417845</speed>
  <fix>3d</fix>
</trkpt>
<trkpt lat="40.0718863" lon="-105.230153">
  <ele>1583.0</ele>
  <time>2026-08-28T17:51:18Z</time>
  <course>359.79</course>
  <speed>0.45</speed>
  <fix>3d</fix>
</trkpt>
<trkpt lat="40.0718872" lon="-105.2301524">
  <ele>1582.95</ele>
  <time>2026-08-28T17:51:18Z</time>
  <course>0.95</course>
  <speed>0.34713109915419565</speed>
  <fix>3d</fix>
</trkpt>
<trkpt lat="40.0718872" lon="-105.230153">
  <ele>1583.0</ele>
  <time>2026-08-28T17:51:18Z</time>
  <course>359.81</course>
  <speed>0.41</speed>
  <fix>3d</fix>
</trkpt>
<trkpt lat="40.0718875" lon="-105.2301524">
  <ele>1582.95</ele>
  <time>2026-08-28T17:51:18Z</time>
  <course>0.96</course>
  <speed>0.327566787083184</speed>
  <fix>3d</fix>
</trkpt>
<trkpt lat="40.0718872" lon="-105.230153">
  <ele>1583.0</ele>
  <time>2026-08-28T17:51:18Z</time>
  <course>359.81</course>
  <speed>0.41</speed>
  <fix>3d</fix>
</trkpt>
<trkpt lat="40.0718879" lon="-105.2301524">
  <ele>1582.95</ele>
  <time>2026-08-28T17:51:18Z</time>
  <course>0.98</course>
  <speed>0.3178049716414141</speed>
  <fix>3d</fix>
</trkpt>
<trkpt lat="40.0718878" lon="-105.230153">
  <ele>1583.0</ele>
  <time>2026-08-28T17:51:18Z</time>
  <course>359.83</course>
  <speed>0.37</speed>
  <fix>3d</fix>
</trkpt>
<trkpt lat="40.0718882" lon="-105.2301524">
  <ele>1582.96</ele>
  <time>2026-08-28T17:51:18Z</time>
  <course>0.98</course>
  <speed>0.29832867780352595</speed>
  <fix>3d</fix>
</trkpt>
<trkpt lat="40.0718878" lon="-105.230153">
  <ele>1583.0</ele>
  <time>2026-08-28T17:51:18Z</time>
  <course>359.83</course>
  <speed>0.37</speed>
  <fix>3d</fix>
</trkpt>
<trkpt lat="40.0718885" lon="-105.2301524">
  <ele>1582.96</ele>
  <time>2026-08-28T17:51:18Z</time>
  <course>0.99</course>
  <speed>0.28861739379323625</speed>
  <fix>3d</fix>
</trkpt>
<trkpt lat="40.0718885" lon="-105.230153">
  <ele>1583.0</ele>
  <time>2026-08-28T17:51:18Z</time>
  <course>359.85</course>
  <speed>0.33</speed>
  <fix>3d</fix>
</trkpt>
<trkpt lat="40.0718888" lon="-105.2301524">
  <ele>1582.96</ele>
  <time>2026-08-28T17:51:18Z</time>
  <course>1.0</course>
  <speed>0.2692582403567252</speed>
  <fix>3d</fix>
</trkpt>
<trkpt lat="40.0718885" lon="-105.230153">
  <ele>1583.0</ele>
  <time>2026-08-28T17:51:18Z</time>
  <course>359.85</course>
  <speed>0.33</speed>
  <fix>3d</fix>
</trkpt>
<trkpt lat="40.0718891" lon="-105.2301523">
  <ele>1582.95</ele>
  <time>2026-08-28T17:51:18Z</time>
  <course>1.01</course>
  <speed>0.3178049716414141</speed>
  <fix>3d</fix>
</trkpt>
<trkpt lat="40.0718885" lon="-105.230153">
  <ele>1583.0</ele>
  <time>2026-08-28T17:51:18Z</time>
  <course>359.85</course>
  <speed>0.33</speed>
  <fix>3d</fix>
</trkpt>
<trkpt lat="40.0718894" lon="-105.2301523">
  <ele>1582.95</ele>
  <time>2026-08-28T17:51:18Z</time>
  <course>1.02</course>
  <speed>0.4570557952810576</speed>
  <fix>3d</fix>
</trkpt>
<trkpt lat="40.071889" lon="-105.230153">
  <ele>1583.0</ele>
  <time>2026-08-28T17:51:18Z</time>
  <course>359.87</course>
  <speed>0.33</speed>
  <fix>3d</fix>
</trkpt>
<trkpt lat="40.07189" lon="-105.2301523">
  <ele>1582.95</ele>
  <time>2026-08-28T17:51:18Z</time>
  <course>1.03</course>
  <speed>0.6846897107449476</speed>
  <fix>3d</fix>
</trkpt>
<trkpt lat="40.071889" lon="-105.230153">
  <ele>1583.0</ele>
  <time>2026-08-28T17:51:18Z</time>
  <course>359.87</course>
  <speed>0.33</speed>
  <fix>3d</fix>
</trkpt>
<trkpt lat="40.0718908" lon="-105.2301523">
  <ele>1582.96</ele>
  <time>2026-08-28T17:51:18Z</time>
  <course>1.05</course>
  <speed>0.9044888059008801</speed>
  <fix>3d</fix>
</trkpt>
<trkpt lat="40.0718898" lon="-105.230153">
  <ele>1583.0</ele>
  <time>2026-08-28T17:51:18Z</time>
  <course>359.9</course>
  <speed>0.53</speed>
  <fix>3d</fix>
</trkpt>
<trkpt lat="40.0718917" lon="-105.2301523">
  <ele>1582.96</ele>
  <time>2026-08-28T17:51:18Z</time>
  <course>1.08</course>
  <speed>1.113642671596235</speed>
  <fix>3d</fix>
</trkpt>
<trkpt lat="40.0718898" lon="-105.230153">
  <ele>1583.0</ele>
  <time>2026-08-28T17:51:18Z</time>
  <course>359.9</course>
  <speed>0.53</speed>
  <fix>3d</fix>
</trkpt>
<trkpt lat="40.0718928" lon="-105.2301522">
  <ele>1582.96</ele>
  <time>2026-08-28T17:51:18Z</time>
  <course>1.09</course>
  <speed>1.2839003076563227</speed>
  <fix>3d</fix>
</trkpt>
<trkpt lat="40.0718911" lon="-105.230153">
  <ele>1583.0</ele>
  <time>2026-08-28T17:51:18Z</time>
  <course>359.93</course>
  <speed>0.92</speed>
  <fix>3d</fix>
</trkpt>
<trkpt lat="40.0718941" lon="-105.2301522">
  <ele>1582.96</ele>
  <time>2026-08-28T17:51:18Z</time>
  <course>1.1</course>
  <speed>1.4235167719419397</speed>
  <fix>3d</fix>
</trkpt>
<trkpt lat="40.0718911" lon="-105.230153">
  <ele>1583.0</ele>
  <time>2026-08-28T17:51:18Z</time>
  <course>359.93</course>
  <speed>0.92</speed>
  <fix>3d</fix>
</trkpt>
<trkpt lat="40.0718955" lon="-105.2301522">
  <ele>1582.96</ele>
  <time>2026-08-28T17:51:18Z</time>
  <course>1.12</course>
  <speed>1.5332644912082194</speed>
  <fix>3d</fix>
</trkpt>
<trkpt lat="40.0718931" lon="-105.230153">
  <ele>1583.0</ele>
  <time>2026-08-28T17:51:18Z</time>
  <course>359.97</course>
  <speed>1.28</speed>
  <fix>3d</fix>
</trkpt>
<trkpt lat="40.071897" lon="-105.2301522">
  <ele>1582.96</ele>
  <time>2026-08-28T17:51:18Z</time>
  <course>1.13</course>
  <speed>1.6131026005806326</speed>
  <fix>3d</fix>
</trkpt>
<trkpt lat="40.0718957" lon="-105.230153">
  <ele>1583.0</ele>
  <time>2026-08-28T17:51:18Z</time>
  <course>0.01</course>
  <speed>1.53</speed>
  <fix>3d</fix>
</trkpt>
<trkpt lat="40.0718985" lon="-105.2301522">
  <ele>1582.96</ele>
  <time>2026-08-28T17:51:18Z</time>
  <course>1.14</course>
  <speed>1.6630093204789924</speed>
  <fix>3d</fix>
</trkpt>
<trkpt lat="40.0718957" lon="-105.230153">
  <ele>1583.0</ele>
  <time>2026-08-28T17:51:18Z</time>
  <course>0.01</course>
  <speed>1.53</speed>
  <fix>3d</fix>
</trkpt>
<trkpt lat="40.0719001" lon="-105.2301521">
  <ele>1582.96</ele>
  <time>2026-08-28T17:51:18Z</time>
  <course>1.15</course>
  <speed>1.682973558912914</speed>
  <fix>3d</fix>
</trkpt>
<trkpt lat="40.0718986" lon="-105.230153">
  <ele>1583.0</ele>
  <time>2026-08-28T17:51:18Z</time>
  <course>0.06</course>
  <speed>1.65</speed>
  <fix>3d</fix>
</trkpt>
<trkpt lat="40.0719017" lon="-105.2301521">
  <ele>1582.96</ele>
  <time>2026-08-28T17:51:18Z</time>
  <course>1.38</course>
  <speed>1.7035551062410632</speed>
  <fix>3d</fix>
</trkpt>
<trkpt lat="40.0718986" lon="-105.230153">
  <ele>1583.0</ele>
  <time>2026-08-28T17:51:18Z</time>
  <course>0.06</course>
  <speed>1.65</speed>
  <fix>3d</fix>
</trkpt>
<trkpt lat="40.0719032" lon="-105.2301521">
  <ele>1582.96</ele>
  <time>2026-08-28T17:51:18Z</time>
  <course>1.54</course>
  <speed>1.7235138525698017</speed>
  <fix>3d</fix>
</trkpt>
<trkpt lat="40.0719016" lon="-105.230153">
  <ele>1583.0</ele>
  <time>2026-08-28T17:51:18Z</time>
  <course>0.28</course>
  <speed>1.7</speed>
  <fix>3d</fix>
</trkpt>
<trkpt lat="40.0719048" lon="-105.2301521">
  <ele>1582.96</ele>
  <time>2026-08-28T17:51:18Z</time>
  <course>1.66</course>
  <speed>1.7434735443934903</speed>
  <fix>3d</fix>
</trkpt>
<trkpt lat="40.0719016" lon="-105.230153">
  <ele>1583.0</ele>
  <time>2026-08-28T17:51:18Z</time>
  <course>0.28</course>
  <speed>1.7</speed>
  <fix>3d</fix>
</trkpt>
<trkpt lat="40.0719065" lon="-105.230152">
  <ele>1582.96</ele>
  <time>2026-08-28T17:51:18Z</time>
  <course>1.78</course>
  <speed>1.784040358287895</speed>
  <fix>3d</fix>
</trkpt>
<trkpt lat="40.0719047" lon="-105.230153">
  <ele>1583.0</ele>
  <time>2026-08-28T17:51:18Z</time>
  <course>0.62</course>
  <speed>1.74</speed>
  <fix>3d</fix>
</trkpt>
<trkpt lat="40.0719081" lon="-105.230152">
  <ele>1582.96</ele>
  <time>2026-08-28T17:51:18Z</time>
  <course>1.86</course>
  <speed>1.8139735389470266</speed>
  <fix>3d</fix>
</trkpt>
<trkpt lat="40.0719047" lon="-105.230153">
  <ele>1583.0</ele>
  <time>2026-08-28T17:51:18Z</time>
  <course>0.62</course>
  <speed>1.74</speed>
  <fix>3d</fix>
</trkpt>
<trkpt lat="40.0719098" lon="-105.230152">
  <ele>1582.95</ele>
  <time>2026-08-28T17:51:18Z</time>
  <course>1.94</course>
  <speed>1.8339302058693512</speed>
  <fix>3d</fix>
</trkpt>
<trkpt lat="40.0719079" lon="-105.230153">
  <ele>1583.0</ele>
  <time>2026-08-28T17:51:18Z</time>
  <course>0.85</course>
  <speed>1.79</speed>
  <fix>3d</fix>
</trkpt>
<trkpt lat="40.0719115" lon="-105.230152">
  <ele>1582.95</ele>
  <time>2026-08-28T17:51:18Z</time>
  <course>2.0</course>
  <speed>1.8339302058693512</speed>
  <fix>3d</fix>
</trkpt>
<trkpt lat="40.0719079" lon="-105.230153">
  <ele>1583.0</ele>
  <time>2026-08-28T17:51:18Z</time>
  <course>0.85</course>
  <speed>1.79</speed>
  <fix>3d</fix>
</trkpt>
<trkpt lat="40.0719132" lon="-105.2301519">
  <ele>1582.95</ele>
  <time>2026-08-28T17:51:18Z</time>
  <course>2.05</course>
  <speed>1.8239517537478889</speed>
  <fix>3d</fix>
</trkpt>
<trkpt lat="40.0719111" lon="-105.2301529">
  <ele>1583.0</ele>
  <time>2026-08-28T17:51:18Z</time>
  <course>1.0</course>
  <speed>1.81</speed>
  <fix>3d</fix>
</trkpt>
<trkpt lat="40.0719148" lon="-105.2301519">
  <ele>1582.95</ele>
  <time>2026-08-28T17:51:18Z</time>
  <course>2.06</course>
  <speed>1.7933767033169579</speed>
  <fix>3d</fix>
</trkpt>
<trkpt lat="40.0719111" lon="-105.2301529">
  <ele>1583.0</ele>
  <time>2026-08-28T17:51:18Z</time>
  <course>1.0</course>
  <speed>1.81</speed>
  <fix>3d</fix>
</trkpt>
<trkpt lat="40.0719164" lon="-105.2301519">
  <ele>1582.95</ele>
  <time>2026-08-28T17:51:18Z</time>
  <course>2.06</course>
  <speed>1.7434735443934903</speed>
  <fix>3d</fix>
</trkpt>
<trkpt lat="40.0719143" lon="-105.2301528">
  <ele>1583.0</ele>
  <time>2026-08-28T17:51:18Z</time>
  <course>1.08</course>
  <speed>1.76</speed>
  <fix>3d</fix>
</trkpt>
<trkpt lat="40.071918" lon="-105.2301519">
  <ele>1582.95</ele>
  <time>2026-08-28T17:51:18Z</time>
  <course>2.03</course>
  <speed>1.6835973390332974</speed>
  <fix>3d</fix>
</trkpt>
<trkpt lat="40.0719143" lon="-105.2301528">
  <ele>1583.0</ele>
  <time>2026-08-28T17:51:18Z</time>
  <course>1.08</course>
  <speed>1.76</speed>
  <fix>3d</fix>
</trkpt>
<trkpt lat="40.0719194" lon="-105.2301518">
  <ele>1582.95</ele>
  <time>2026-08-28T17:51:18Z</time>
  <course>1.98</course>
  <speed>1.6031219541881399</speed>
  <fix>3d</fix>
</trkpt>
<trkpt lat="40.0719143" lon="-105.2301528">
  <ele>1583.0</ele>
  <time>2026-08-28T17:51:18Z</time>
  <course>1.08</course>
  <speed>1.76</speed>
  <fix>3d</fix>
</trkpt>
<trkpt lat="40.0719208" lon="-105.2301518">
  <ele>1582.95</ele>
  <time>2026-08-28T17:51:18Z</time>
  <course>1.91</course>
  <speed>1.5026975743641833</speed>
  <fix>3d</fix>
</trkpt>
<trkpt lat="40.0719174" lon="-105.2301527">
  <ele>1583.0</ele>
  <time>2026-08-28T17:51:18Z</time>
  <course>1.07</course>
  <speed>1.65</speed>
  <fix>3d</fix>
</trkpt>
<trkpt lat="40.0719221" lon="-105.2301518">
  <ele>1582.95</ele>
  <time>2026-08-28T17:51:18Z</time>
  <course>1.82</course>
  <speed>1.4028898745090437</speed>
  <fix>3d</fix>
</trkpt>
<trkpt lat="40.0719174" lon="-105.2301527">
  <ele>1583.0</ele>
  <time>2026-08-28T17:51:18Z</time>
  <course>1.07</course>
  <speed>1.65</speed>
  <fix>3d</fix>
</trkpt>
<trkpt lat="40.0719233" lon="-105.2301518">
  <ele>1582.95</ele>
  <time>2026-08-28T17:51:18Z</time>
  <course>1.73</course>
  <speed>1.2824975633505118</speed>
  <fix>3d</fix>
</trkpt>
<trkpt lat="40.0719202" lon="-105.2301526">
  <ele>1583.0</ele>
  <time>2026-08-28T17:51:18Z</time>
  <course>0.97</course>
  <speed>1.48</speed>
  <fix>3d</fix>
</trkpt>
<trkpt lat="40.0719244" lon="-105.2301518">
  <ele>1582.95</ele>
  <time>2026-08-28T17:51:18Z</time>
  <course>1.76</course>
  <speed>1.1621101496846158</speed>
  <fix>3d</fix>
</trkpt>
<trkpt lat="40.0719202" lon="-105.2301526">
  <ele>1583.0</ele>
  <time>2026-08-28T17:51:18Z</time>
  <course>0.97</course>
  <speed>1.48</speed>
  <fix>3d</fix>
</trkpt>
<trkpt lat="40.0719253" lon="-105.2301518">
  <ele>1582.95</ele>
  <time>2026-08-28T17:51:18Z</time>
  <course>2.36</course>
  <speed>1.0331021246711285</speed>
  <fix>3d</fix>
</trkpt>
<trkpt lat="40.0719227" lon="-105.2301526">
  <ele>1583.0</ele>
  <time>2026-08-28T17:51:18Z</time>
  <course>0.87</course>
  <speed>1.26</speed>
  <fix>3d</fix>
</trkpt>
<trkpt lat="40.0719261" lon="-105.2301518">
  <ele>1582.95</ele>
  <time>2026-08-28T17:51:18Z</time>
  <course>3.55</course>
  <speed>0.8945389874119517</speed>
  <fix>3d</fix>
</trkpt>
<trkpt lat="40.0719248" lon="-105.2301526">
  <ele>1583.0</ele>
  <time>2026-08-28T17:51:18Z</time>
  <course>1.63</course>
  <speed>1.01</speed>
  <fix>3d</fix>
</trkpt>
<trkpt lat="40.0719268" lon="-105.2301518">
  <ele>1582.95</ele>
  <time>2026-08-28T17:51:18Z</time>
  <course>5.15</course>
  <speed>0.7467261881037789</speed>
  <fix>3d</fix>
</trkpt>
<trkpt lat="40.0719248" lon="-105.2301526">
  <ele>1583.0</ele>
  <time>2026-08-28T17:51:18Z</time>
  <course>1.63</course>
  <speed>1.01</speed>
  <fix>3d</fix>
</trkpt>
<trkpt lat="40.0719274" lon="-105.2301518">
  <ele>1582.94</ele>
  <time>2026-08-28T17:51:18Z</time>
  <course>7.0</course>
  <speed>0.608276253029822</speed>
  <fix>3d</fix>
</trkpt>
<trkpt lat="40.0719263" lon="-105.2301525">
  <ele>1583.0</ele>
  <time>2026-08-28T17:51:18Z</time>
  <course>4.06</course>
  <speed>0.74</speed>
  <fix>3d</fix>
</trkpt>
<trkpt lat="40.0719278" lon="-105.2301517">
  <ele>1582.94</ele>
  <time>2026-08-28T17:51:18Z</time>
  <course>8.9</course>
  <speed>0.4609772228646444</speed>
  <fix>3d</fix>
</trkpt>
<trkpt lat="40.0719263" lon="-105.2301525">
  <ele>1583.0</ele>
  <time>2026-08-28T17:51:18Z</time>
  <course>4.06</course>
  <speed>0.74</speed>
  <fix>3d</fix>
</trkpt>
<trkpt lat="40.0719281" lon="-105.2301517">
  <ele>1582.94</ele>
  <time>2026-08-28T17:51:18Z</time>
  <course>10.69</course>
  <speed>0.33241540277189324</speed>
  <fix>3d</fix>
</trkpt>
<trkpt lat="40.0719275" lon="-105.2301523">
  <ele>1583.0</ele>
  <time>2026-08-28T17:51:18Z</time>
  <course>7.45</course>
  <speed>0.47</speed>
  <fix>3d</fix>
</trkpt>
<trkpt lat="40.0719283" lon="-105.2301517">
  <ele>1582.93</ele>
  <time>2026-08-28T17:51:18Z</time>
  <course>12.19</course>
  <speed>0.2340939982143925</speed>
  <fix>3d</fix>
</trkpt>
<trkpt lat="40.0719275" lon="-105.2301523">
  <ele>1583.0</ele>
  <time>2026-08-28T17:51:18Z</time>
  <course>7.45</course>
  <speed>0.47</speed>
  <fix>3d</fix>
</trkpt>
<trkpt lat="40.0719285" lon="-105.2301516">
  <ele>1582.93</ele>
  <time>2026-08-28T17:51:18Z</time>
  <course>13.24</course>
  <speed>0.15231546211727817</speed>
  <fix>3d</fix>
</trkpt>
<trkpt lat="40.071928" lon="-105.2301522">
  <ele>1583.0</ele>
  <time>2026-08-28T17:51:18Z</time>
  <course>10.63</course>
  <speed>0.24</speed>
  <fix>3d</fix>
</trkpt>
<trkpt lat="40.0719285" lon="-105.2301516">
  <ele>1582.92</ele>
  <time>2026-08-28T17:51:18Z</time>
  <course>13.99</course>
  <speed>0.09433981132056603</speed>
  <fix>3d</fix>
</trkpt>
<trkpt lat="40.071928" lon="-105.2301522">
  <ele>1583.0</ele>
  <time>2026-08-28T17:51:18Z</time>
  <course>10.63</course>
  <speed>0.24</speed>
  <fix>3d</fix>
</trkpt>
<trkpt lat="40.0719286" lon="-105.2301516">
  <ele>1582.92</ele>
  <time>2026-08-28T17:51:18Z</time>
  <course>14.56</course>
  <speed>0.07211102550927978</speed>
  <fix>3d</fix>
</trkpt>
<trkpt lat="40.0719284" lon="-105.2301521">
  <ele>1583.0</ele>
  <time>2026-08-28T17:51:18Z</time>
  <course>12.82</course>
  <speed>0.11</speed>
  <fix>3d</fix>
</trkpt>
<trkpt lat="40.0719286" lon="-105.2301516">
  <ele>1582.92</ele>
  <time>2026-08-28T17:51:18Z</time>
  <course>15.06</course>
  <speed>0.07211102550927978</speed>
  <fix>3d</fix>
</trkpt>
<trkpt lat="40.0719284" lon="-105.2301521">
  <ele>1583.0</ele>
  <time>2026-08-28T17:51:18Z</time>
  <course>12.82</course>
  <speed>0.11</speed>
  <fix>3d</fix>
</trkpt>
<trkpt lat="40.0719287" lon="-105.2301516">
  <ele>1582.92</ele>
  <time>2026-08-28T17:51:18Z</time>
  <course>15.66</course>
  <speed>0.09433981132056603</speed>
  <fix>3d</fix>
</trkpt>
<trkpt lat="40.0719285" lon="-105.2301521">
  <ele>1583.0</ele>
  <time>2026-08-28T17:51:18Z</time>
  <course>14.32</course>
  <speed>0.09</speed>
  <fix>3d</fix>
</trkpt>
<trkpt lat="40.0719288" lon="-105.2301516">
  <ele>1582.92</ele>
  <time>2026-08-28T17:51:18Z</time>
  <course>16.5</course>
  <speed>0.147648230602334</speed>
  <fix>3d</fix>
</trkpt>
<trkpt lat="40.0719285" lon="-105.2301521">
  <ele>1583.0</ele>
  <time>2026-08-28T17:51:18Z</time>
  <course>14.32</course>
  <speed>0.09</speed>
  <fix>3d</fix>
</trkpt>
<trkpt lat="40.0719289" lon="-105.2301516">
  <ele>1582.92</ele>
  <time>2026-08-28T17:51:18Z</time>
  <course>17.75</course>
  <speed>0.2193171219946131</speed>
  <fix>3d</fix>
</trkpt>
<trkpt lat="40.0719287" lon="-105.230152">
  <ele>1583.0</ele>
  <time>2026-08-28T17:51:18Z</time>
  <course>16.2</course>
  <speed>0.17</speed>
  <fix>3d</fix>
</trkpt>
<trkpt lat="40.0719291" lon="-105.2301515">
  <ele>1582.92</ele>
  <time>2026-08-28T17:51:18Z</time>
  <course>19.52</course>
  <speed>0.3087069808086626</speed>
  <fix>3d</fix>
</trkpt>
<trkpt lat="40.0719287" lon="-105.230152">
  <ele>1583.0</ele>
  <time>2026-08-28T17:51:18Z</time>
  <course>16.2</course>
  <speed>0.17</speed>
  <fix>3d</fix>
</trkpt>
<trkpt lat="40.0719294" lon="-105.2301513">
  <ele>1582.92</ele>
  <time>2026-08-28T17:51:18Z</time>
  <course>21.93</course>
  <speed>0.42485291572496003</speed>
  <fix>3d</fix>
</trkpt>
<trkpt lat="40.0719287" lon="-105.230152">
  <ele>1583.0</ele>
  <time>2026-08-28T17:51:18Z</time>
  <course>16.2</course>
  <speed>0.17</speed>
  <fix>3d</fix>
</trkpt>
<trkpt lat="40.0719298" lon="-105.2301511">
  <ele>1582.91</ele>
  <time>2026-08-28T17:51:18Z</time>
  <course>25.08</course>
  <speed>0.5458937625582473</speed>
  <fix>3d</fix>
</trkpt>
<trkpt lat="40.0719292" lon="-105.2301518">
  <ele>1583.0</ele>
  <time>2026-08-28T17:51:18Z</time>
  <course>19.59</course>
  <speed>0.33</speed>
  <fix>3d</fix>
</trkpt>
<trkpt lat="40.0719303" lon="-105.2301508">
  <ele>1582.91</ele>
  <time>2026-08-28T17:51:18Z</time>
  <course>29.04</course>
  <speed>0.6826419266350405</speed>
  <fix>3d</fix>
</trkpt>
<trkpt lat="40.0719292" lon="-105.2301518">
  <ele>1583.0</ele>
  <time>2026-08-28T17:51:18Z</time>
  <course>19.59</course>
  <speed>0.33</speed>
  <fix>3d</fix>
</trkpt>
<trkpt lat="40.0719309" lon="-105.2301503">
  <ele>1582.91</ele>
  <time>2026-08-28T17:51:18Z</time>
  <course>33.87</course>
  <speed>0.8300602387778854</speed>
  <fix>3d</fix>
</trkpt>
<trkpt lat="40.0719299" lon="-105.2301514">
  <ele>1583.0</ele>
  <time>2026-08-28T17:51:18Z</time>
  <course>25.43</course>
  <speed>0.56</speed>
  <fix>3d</fix>
</trkpt>
<trkpt lat="40.0719316" lon="-105.2301497">
  <ele>1582.91</ele>
  <time>2026-08-28T17:51:18Z</time>
  <course>39.64</course>
  <speed>0.9774456506629922</speed>
  <fix>3d</fix>
</trkpt>
<trkpt lat="40.0719299" lon="-105.2301514">
  <ele>1583.0</ele>
  <time>2026-08-28T17:51:18Z</time>
  <course>25.43</course>
  <speed>0.56</speed>
  <fix>3d</fix>
</trkpt>
<trkpt lat="40.0719323" lon="-105.2301488">
  <ele>1582.92</ele>
  <time>2026-08-28T17:51:18Z</time>
  <course>46.37</course>
  <speed>1.1402192771568107</speed>
  <fix>3d</fix>
</trkpt>
<trkpt lat="40.071931" lon="-105.2301506">
  <ele>1583.0</ele>
  <time>2026-08-28T17:51:18Z</time>
  <course>34.42</course>
  <speed>0.83</speed>
  <fix>3d</fix>
</trkpt>
<trkpt lat="40.071933" lon="-105.2301477">
  <ele>1582.92</ele>
  <time>2026-08-28T17:51:18Z</time>
  <course>54.05</course>
  <speed>1.2870508925446578</speed>
  <fix>3d</fix>
</trkpt>
<trkpt lat="40.071931" lon="-105.2301506">
  <ele>1583.0</ele>
  <time>2026-08-28T17:51:18Z</time>
  <course>34.42</course>
  <speed>0.83</speed>
  <fix>3d</fix>
</trkpt>
<trkpt lat="40.0719336" lon="-105.2301463">
  <ele>1582.92</ele>
  <time>2026-08-28T17:51:18Z</time>
  <course>62.39</course>
  <speed>1.426639407839276</speed>
  <fix>3d</fix>
</trkpt>
<trkpt lat="40.0719323" lon="-105.2301491">
  <ele>1583.0</ele>
  <time>2026-08-28T17:51:18Z</time>
  <course>46.97</course>
  <speed>1.12</speed>
  <fix>3d</fix>
</trkpt>
<trkpt lat="40.0719341" lon="-105.2301447">
  <ele>1582.92</ele>
  <time>2026-08-28T17:51:18Z</time>
  <course>70.36</course>
  <speed>1.5400324671902212</speed>
  <fix>3d</fix>
</trkpt>
<trkpt lat="40.0719336" lon="-105.2301467">
  <ele>1583.0</ele>
  <time>2026-08-28T17:51:18Z</time>
  <course>62.06</course>
  <speed>1.38</speed>
  <fix>3d</fix>
</trkpt>
<trkpt lat="40.0719345" lon="-105.2301429">
  <ele>1582.92</ele>
  <time>2026-08-28T17:51:18Z</time>
  <course>77.89</course>
  <speed>1.6493938280471405</speed>
  <fix>3d</fix>
</trkpt>
<trkpt lat="40.0719336" lon="-105.2301467">
  <ele>1583.0</ele>
  <time>2026-08-28T17:51:18Z</time>
  <course>62.06</course>
  <speed>1.38</speed>
  <fix>3d</fix>
</trkpt>
<trkpt lat="40.0719347" lon="-105.2301409">
  <ele>1582.92</ele>
  <time>2026-08-28T17:51:18Z</time>
  <course>84.62</course>
  <speed>1.7448495637160242</speed>
  <fix>3d</fix>
</trkpt>
<trkpt lat="40.0719345" lon="-105.2301434">
  <ele>1583.0</ele>
  <time>2026-08-28T17:51:18Z</time>
  <course>77.03</course>
  <speed>1.6</speed>
  <fix>3d</fix>
</trkpt>
<trkpt lat="40.0719348" lon="-105.2301388">
  <ele>1582.92</ele>
  <time>2026-08-28T17:51:18Z</time>
  <course>90.41</course>
  <speed>1.840244548966251</speed>
  <fix>3d</fix>
</trkpt>
<trkpt lat="40.0719345" lon="-105.2301434">
  <ele>1583.0</ele>
  <time>2026-08-28T17:51:18Z</time>
  <course>77.03</course>
  <speed>1.6</speed>
  <fix>3d</fix>
</trkpt>
<trkpt lat="40.0719347" lon="-105.2301366">
  <ele>1582.92</ele>
  <time>2026-08-28T17:51:18Z</time>
  <course>95.33</course>
  <speed>1.9293781381574737</speed>
  <fix>3d</fix>
</trkpt>
<trkpt lat="40.0719348" lon="-105.2301394">
  <ele>1583.0</ele>
  <time>2026-08-28T17:51:18Z</time>
  <course>89.38</course>
  <speed>1.8</speed>
  <fix>3d</fix>
</trkpt>
<trkpt lat="40.0719345" lon="-105.2301343">
  <ele>1582.92</ele>
  <time>2026-08-28T17:51:18Z</time>
  <course>99.49</course>
  <speed>2.02869416127715</speed>
  <fix>3d</fix>
</trkpt>
<trkpt lat="40.0719348" lon="-105.2301394">
  <ele>1583.0</ele>
  <time>2026-08-28T17:51:18Z</time>
  <course>89.38</course>
  <speed>1.8</speed>
  <fix>3d</fix>
</trkpt>
<trkpt lat="40.0719341" lon="-105.2301318">
  <ele>1582.92</ele>
  <time>2026-08-28T17:51:18Z</time>
  <course>103.03</course>
  <speed>2.1272047386182646</speed>
  <fix>3d</fix>
</trkpt>
<trkpt lat="40.0719346" lon="-105.2301349">
  <ele>1583.0</ele>
  <time>2026-08-28T17:51:18Z</time>
  <course>98.47</course>
  <speed>1.99</speed>
  <fix>3d</fix>
</trkpt>
<trkpt lat="40.0719336" lon="-105.2301293">
  <ele>1582.92</ele>
  <time>2026-08-28T17:51:18Z</time>
  <course>105.99</course>
  <speed>2.2280035906613795</speed>
  <fix>3d</fix>
</trkpt>
<trkpt lat="40.0719346" lon="-105.2301349">
  <ele>1583.0</ele>
  <time>2026-08-28T17:51:18Z</time>
  <course>98.47</course>
  <speed>1.99</speed>
  <fix>3d</fix>
</trkpt>
<trkpt lat="40.071933" lon="-105.2301268">
  <ele>1582.92</ele>
  <time>2026-08-28T17:51:18Z</time>
  <course>108.48</course>
  <speed>2.321120419107979</speed>
  <fix>3d</fix>
</trkpt>
<trkpt lat="40.0719339" lon="-105.2301301">
  <ele>1583.0</ele>
  <time>2026-08-28T17:51:18Z</time>
  <course>104.95</course>
  <speed>2.18</speed>
  <fix>3d</fix>
</trkpt>
<trkpt lat="40.0719323" lon="-105.2301241">
  <ele>1582.92</ele>
  <time>2026-08-28T17:51:18Z</time>
  <course>110.58</course>
  <speed>2.4239224410034246</speed>
  <fix>3d</fix>
</trkpt>
<trkpt lat="40.0719339" lon="-105.2301301">
  <ele>1583.0</ele>
  <time>2026-08-28T17:51:18Z</time>
  <course>104.95</course>
  <speed>2.18</speed>
  <fix>3d</fix>
</trkpt>
<trkpt lat="40.0719315" lon="-105.2301214">
  <ele>1582.92</ele>
  <time>2026-08-28T17:51:18Z</time>
  <course>112.35</course>
  <speed>2.5254900514553604</speed>
  <fix>3d</fix>
</trkpt>
<trkpt lat="40.0719327" lon="-105.230125">
  <ele>1583.0</ele>
  <time>2026-08-28T17:51:18Z</time>
  <course>109.56</course>
  <speed>2.38</speed>
  <fix>3d</fix>
</trkpt>
<trkpt lat="40.0719306" lon="-105.2301186">
  <ele>1582.92</ele>
  <time>2026-08-28T17:51:18Z</time>
  <course>113.85</course>
  <speed>2.628802008520231</speed>
  <fix>3d</fix>
</trkpt>
<trkpt lat="40.0719327" lon="-105.230125">
  <ele>1583.0</ele>
  <time>2026-08-28T17:51:18Z</time>
  <course>109.56</course>
  <speed>2.38</speed>
  <fix>3d</fix>
</trkpt>
<trkpt lat="40.0719296" lon="-105.2301157">
  <ele>1582.92</ele>
  <time>2026-08-28T17:51:18Z</time>
  <course>115.12</course>
  <speed>2.729468812791236</speed>
  <fix>3d</fix>
</trkpt>
<trkpt lat="40.0719311" lon="-105.2301196">
  <ele>1583.0</ele>
  <time>2026-08-28T17:51:18Z</time>
  <course>112.85</course>
  <speed>2.59</speed>
  <fix>3d</fix>
</trkpt>
<trkpt lat="40.0719286" lon="-105.2301128">
  <ele>1582.92</ele>
  <time>2026-08-28T17:51:18Z</time>
  <course>116.19</course>
  <speed>2.8311481769769666</speed>
  <fix>3d</fix>
</trkpt>
<trkpt lat="40.0719311" lon="-105.2301196">
  <ele>1583.0</ele>
  <time>2026-08-28T17:51:18Z</time>
  <course>112.85</course>
  <speed>2.59</speed>
  <fix>3d</fix>
</trkpt>
<trkpt lat="40.0719274" lon="-105.2301097">
  <ele>1582.92</ele>
  <time>2026-08-28T17:51:18Z</time>
  <course>117.1</course>
  <speed>2.929249050524725</speed>
  <fix>3d</fix>
</trkpt>
<trkpt lat="40.0719311" lon="-105.2301196">
  <ele>1583.0</ele>
  <time>2026-08-28T17:51:18Z</time>
  <course>112.85</course>
  <speed>2.59</speed>
  <fix>3d</fix>
</trkpt>
<trkpt lat="40.0719262" lon="-105.2301066">
  <ele>1582.92</ele>
  <time>2026-08-28T17:51:18Z</time>
  <course>117.87</course>
  <speed>3.0367910695337605</speed>
  <fix>3d</fix>
</trkpt>
<trkpt lat="40.0719291" lon="-105.2301138">
  <ele>1583.0</ele>
  <time>2026-08-28T17:51:18Z</time>
  <course>115.21</course>
  <speed>2.79</speed>
  <fix>3d</fix>
</trkpt>
<trkpt lat="40.071925" lon="-105.2301034">
  <ele>1582.92</ele>
  <time>2026-08-28T17:51:18Z</time>
  <course>118.51</course>
  <speed>3.1358890286488137</speed>
  <fix>3d</fix>
</trkpt>
<trkpt lat="40.0719291" lon="-105.2301138">
  <ele>1583.0</ele>
  <time>2026-08-28T17:51:18Z</time>
  <course>115.21</course>
  <speed>2.79</speed>
  <fix>3d</fix>
</trkpt>
<trkpt lat="40.0719236" lon="-105.2301001">
  <ele>1582.92</ele>
  <time>2026-08-28T17:51:18Z</time>
  <course>119.06</course>
  <speed>3.2394598315151244</speed>
  <fix>3d</fix>
</trkpt>
<trkpt lat="40.0719268" lon="-105.2301077">
  <ele>1583.0</ele>
  <time>2026-08-28T17:51:18Z</time>
  <course>116.89</course>
  <speed>3.0</speed>
  <fix>3d</fix>
</trkpt>
<trkpt lat="40.0719223" lon="-105.2300968">
  <ele>1582.92</ele>
  <time>2026-08-28T17:51:18Z</time>
  <course>119.51</course>
  <speed>3.3432020579079573</speed>
  <fix>3d</fix>
</trkpt>
<trkpt lat="40.0719268" lon="-105.2301077">
  <ele>1583.0</ele>
  <time>2026-08-28T17:51:18Z</time>
  <course>116.89</course>
  <speed>3.0</speed>
  <fix>3d</fix>
</trkpt>
<trkpt lat="40.0719208" lon="-105.2300933">
  <ele>1582.92</ele>
  <time>2026-08-28T17:51:18Z</time>
  <course>119.9</course>
  <speed>3.4383717076546567</speed>
  <fix>3d</fix>
</trkpt>
<trkpt lat="40.0719242" lon="-105.2301013">
  <ele>1583.0</ele>
  <time>2026-08-28T17:51:18Z</time>
  <course>118.08</course>
  <speed>3.2</speed>
  <fix>3d</fix>
</trkpt>
<trkpt lat="40.0719193" lon="-105.2300898">
  <ele>1582.92</ele>
  <time>2026-08-28T17:51:18Z</time>
  <course>120.21</course>
  <speed>3.546223343220221</speed>
  <fix>3d</fix>
</trkpt>
<trkpt lat="40.0719214" lon="-105.2300944">
  <ele>1583.0</ele>
  <time>2026-08-28T17:51:18Z</time>
  <course>118.92</course>
  <speed>3.41</speed>
  <fix>3d</fix>
</trkpt>
<trkpt lat="40.0719177" lon="-105.2300861">
  <ele>1582.92</ele>
  <time>2026-08-28T17:51:18Z</time>
  <course>120.47</course>
  <speed>3.6503424496887957</speed>
  <fix>3d</fix>
</trkpt>
<trkpt lat="40.0719214" lon="-105.2300944">
  <ele>1583.0</ele>
  <time>2026-08-28T17:51:18Z</time>
  <course>118.92</course>
  <speed>3.41</speed>
  <fix>3d</fix>
</trkpt>
<trkpt lat="40.0719161" lon="-105.2300823">
  <ele>1582.92</ele>
  <time>2026-08-28T17:51:18Z</time>
  <course>120.69</course>
  <speed>3.7495866438848964</speed>
  <fix>3d</fix>
</trkpt>
<trkpt lat="40.0719184" lon="-105.2300871">
  <ele>1583.0</ele>
  <time>2026-08-28T17:51:18Z</time>
  <course>119.5</course>
  <speed>3.62</speed>
  <fix>3d</fix>
</trkpt>
<trkpt lat="40.0719144" lon="-105.2300785">
  <ele>1582.92</ele>
  <time>2026-08-28T17:51:18Z</time>
  <course>120.86</course>
  <speed>3.8575251133336774</speed>
  <fix>3d</fix>
</trkpt>
<trkpt lat="40.0719184" lon="-105.2300871">
  <ele>1583.0</ele>
  <time>2026-08-28T17:51:18Z</time>
  <course>119.5</course>
  <speed>3.62</speed>
  <fix>3d</fix>
</trkpt>
<trkpt lat="40.0719126" lon="-105.2300745">
  <ele>1582.92</ele>
  <time>2026-08-28T17:51:18Z</time>
  <course>121.02</course>
  <speed>3.956829538911172</speed>
  <fix>3d</fix>
</trkpt>
<trkpt lat="40.071915" lon="-105.2300796">
  <ele>1583.0</ele>
  <time>2026-08-28T17:51:18Z</time>
  <course>119.9</course>
  <speed>3.83</speed>
  <fix>3d</fix>
</trkpt>
<trkpt lat="40.0719108" lon="-105.2300704">
  <ele>1582.92</ele>
  <time>2026-08-28T17:51:18Z</time>
  <course>121.13</course>
  <speed>4.064800118086989</speed>
  <fix>3d</fix>
</trkpt>
<trkpt lat="40.071915" lon="-105.2300796">
  <ele>1583.0</ele>
  <time>2026-08-28T17:51:18Z</time>
  <course>119.9</course>
  <speed>3.83</speed>
  <fix>3d</fix>
</trkpt>
<trkpt lat="40.071909" lon="-105.2300662">
  <ele>1582.92</ele>
  <time>2026-08-28T17:51:18Z</time>
  <course>121.24</course>
  <speed>4.167733196834941</speed>
  <fix>3d</fix>
</trkpt>
<trkpt lat="40.0719115" lon="-105.2300717">
  <ele>1583.0</ele>
  <time>2026-08-28T17:51:18Z</time>
  <course>120.17</course>
  <speed>4.03</speed>
  <fix>3d</fix>
</trkpt>
<trkpt lat="40.071907" lon="-105.2300618">
  <ele>1582.92</ele>
  <time>2026-08-28T17:51:18Z</time>
  <course>121.33</course>
  <speed>4.267083312990268</speed>
  <fix>3d</fix>
</trkpt>
<trkpt lat="40.0719115" lon="-105.2300717">
  <ele>1583.0</ele>
  <time>2026-08-28T17:51:18Z</time>
  <course>120.17</course>
  <speed>4.03</speed>
  <fix>3d</fix>
</trkpt>
<trkpt lat="40.0719051" lon="-105.2300574">
  <ele>1582.92</ele>
  <time>2026-08-28T17:51:18Z</time>
  <course>121.39</course>
  <speed>4.375077142177038</speed>
  <fix>3d</fix>
</trkpt>
<trkpt lat="40.0719077" lon="-105.2300633">
  <ele>1583.0</ele>
  <time>2026-08-28T17:51:18Z</time>
  <course>120.35</course>
  <speed>4.24</speed>
  <fix>3d</fix>
</trkpt>
<trkpt lat="40.071903" lon="-105.2300529">
  <ele>1582.92</ele>
  <time>2026-08-28T17:51:18Z</time>
  <course>121.45</course>
  <speed>4.478001786511479</speed>
  <fix>3d</fix>
</trkpt>
<trkpt lat="40.0719077" lon="-105.2300633">
  <ele>1583.0</ele>
  <time>2026-08-28T17:51:18Z</time>
  <course>120.35</course>
  <speed>4.24</speed>
  <fix>3d</fix>
</trkpt>
<trkpt lat="40.071901" lon="-105.2300483">
  <ele>1582.92</ele>
  <time>2026-08-28T17:51:18Z</time>
  <course>121.51</course>
  <speed>4.577390086064328</speed>
  <fix>3d</fix>
</trkpt>
<trkpt lat="40.0719038" lon="-105.2300545">
  <ele>1583.0</ele>
  <time>2026-08-28T17:51:18Z</time>
  <course>120.48</course>
  <speed>4.44</speed>
  <fix>3d</fix>
</trkpt>
<trkpt lat="40.0718989" lon="-105.2300436">
  <ele>1582.91</ele>
  <time>2026-08-28T17:51:18Z</time>
  <course>121.55</course>
  <speed>4.680309818804734</speed>
  <fix>3d</fix>
</trkpt>
<trkpt lat="40.0719038" lon="-105.2300545">
  <ele>1583.0</ele>
  <time>2026-08-28T17:51:18Z</time>
  <course>120.48</course>
  <speed>4.44</speed>
  <fix>3d</fix>
</trkpt>
<trkpt lat="40.0718967" lon="-105.2300388">
  <ele>1582.91</ele>
  <time>2026-08-28T17:51:18Z</time>
  <course>121.57</course>
  <speed>4.774620403759863</speed>
  <fix>3d</fix>
</trkpt>
<trkpt lat="40.0718996" lon="-105.2300453">
  <ele>1583.0</ele>
  <time>2026-08-28T17:51:18Z</time>
  <course>120.56</course>
  <speed>4.64</speed>
  <fix>3d</fix>
</trkpt>
<trkpt lat="40.0718945" lon="-105.2300339">
  <ele>1582.91</ele>
  <time>2026-08-28T17:51:18Z</time>
  <course>121.57</course>
  <speed>4.877540363748926</speed>
  <fix>3d</fix>
</trkpt>
<trkpt lat="40.0718996" lon="-105.2300453">
  <ele>1583.0</ele>
  <time>2026-08-28T17:51:18Z</time>
  <course>120.56</course>
  <speed>4.64</speed>
  <fix>3d</fix>
</trkpt>
<trkpt lat="40.0718922" lon="-105.2300289">
  <ele>1582.91</ele>
  <time>2026-08-28T17:51:18Z</time>
  <course>121.57</course>
  <speed>4.980461825975579</speed>
  <fix>3d</fix>
</trkpt>
<trkpt lat="40.0718996" lon="-105.2300453">
  <ele>1583.0</ele>
  <time>2026-08-28T17:51:18Z</time>
  <course>120.56</course>
  <speed>4.64</speed>
  <fix>3d</fix>
</trkpt>
<trkpt lat="40.0718899" lon="-105.2300239">
  <ele>1582.91</ele>
  <time>2026-08-28T17:51:18Z</time>
  <course>121.57</course>
  <speed>5.074770930790867</speed>
  <fix>3d</fix>
</trkpt>
<trkpt lat="40.0718952" lon="-105.2300357">
  <ele>1583.0</ele>
  <time>2026-08-28T17:51:18Z</time>
  <course>120.58</course>
  <speed>4.84</speed>
  <fix>3d</fix>
</trkpt>
<trkpt lat="40.0718876" lon="-105.2300187">
  <ele>1582.91</ele>
  <time>2026-08-28T17:51:18Z</time>
  <course>121.58</course>
  <speed>5.169081156259786</speed>
  <fix>3d</fix>
</trkpt>
<trkpt lat="40.0718952" lon="-105.2300357">
  <ele>1583.0</ele>
  <time>2026-08-28T17:51:18Z</time>
  <course>120.58</course>
  <speed>4.84</speed>
  <fix>3d</fix>
</trkpt>
<trkpt lat="40.0718852" lon="-105.2300135">
  <ele>1582.91</ele>
  <time>2026-08-28T17:51:18Z</time>
  <course>121.58</course>
  <speed>5.241087673374678</speed>
  <fix>3d</fix>
</trkpt>
<trkpt lat="40.0718908" lon="-105.2300257">
  <ele>1583.0</ele>
  <time>2026-08-28T17:51:18Z</time>
  <course>120.58</course>
  <speed>5.04</speed>
  <fix>3d</fix>
</trkpt>
<trkpt lat="40.0718829" lon="-105.2300082">
  <ele>1582.91</ele>
  <time>2026-08-28T17:51:18Z</time>
  <course>121.58</course>
  <speed>5.294308264542215</speed>
  <fix>3d</fix>
</trkpt>
<trkpt lat="40.0718908" lon="-105.2300257">
  <ele>1583.0</ele>
  <time>2026-08-28T17:51:18Z</time>
  <course>120.58</course>
  <speed>5.04</speed>
  <fix>3d</fix>
</trkpt>
<trkpt lat="40.0718805" lon="-105.2300029">
  <ele>1582.91</ele>
  <time>2026-08-28T17:51:18Z</time>
  <course>121.58</course>
  <speed>5.338923112388865</speed>
  <fix>3d</fix>
</trkpt>
<trkpt lat="40.0718861" lon="-105.2300152">
  <ele>1583.0</ele>
  <time>2026-08-28T17:51:18Z</time>
  <course>120.58</course>
  <speed>5.2</speed>
  <fix>3d</fix>
</trkpt>
<trkpt lat="40.071878" lon="-105.2299975">
  <ele>1582.91</ele>
  <time>2026-08-28T17:51:18Z</time>
  <course>121.58</course>
  <speed>5.366311582455868</speed>
  <fix>3d</fix>
</trkpt>
<trkpt lat="40.0718812" lon="-105.2300046">
  <ele>1583.0</ele>
  <time>2026-08-28T17:51:18Z</time>
  <course>120.58</course>
  <speed>5.31</speed>
  <fix>3d</fix>
</trkpt>
<trkpt lat="40.0718756" lon="-105.2299921">
  <ele>1582.91</ele>
  <time>2026-08-28T17:51:18Z</time>
  <course>121.59</course>
  <speed>5.38861763349377</speed>
  <fix>3d</fix>
</trkpt>
<trkpt lat="40.0718812" lon="-105.2300046">
  <ele>1583.0</ele>
  <time>2026-08-28T17:51:18Z</time>
  <course>120.58</course>
  <speed>5.31</speed>
  <fix>3d</fix>
</trkpt>
<trkpt lat="40.0718731" lon="-105.2299866">
  <ele>1582.91</ele>
  <time>2026-08-28T17:51:18Z</time>
  <course>121.59</course>
  <speed>5.397230771423434</speed>
  <fix>3d</fix>
</trkpt>
<trkpt lat="40.0718763" lon="-105.2299938">
  <ele>1583.0</ele>
  <time>2026-08-28T17:51:18Z</time>
  <course>120.58</course>
  <speed>5.36</speed>
  <fix>3d</fix>
</trkpt>
<trkpt lat="40.0718707" lon="-105.2299812">
  <ele>1582.91</ele>
  <time>2026-08-28T17:51:19Z</time>
  <course>121.59</course>
  <speed>5.397230771423434</speed>
  <fix>3d</fix>
</trkpt>
<trkpt lat="40.0718763" lon="-105.2299938">
  <ele>1583.0</ele>
  <time>2026-08-28T17:51:19Z</time>
  <course>120.58</course>
  <speed>5.36</speed>
  <fix>3d</fix>
</trkpt>
<trkpt lat="40.0718682" lon="-105.2299757">
  <ele>1582.91</ele>
  <time>2026-08-28T17:51:19Z</time>
  <course>121.59</course>
  <speed>5.397230771423434</speed>
  <fix>3d</fix>
</trkpt>
<trkpt lat="40.0718714" lon="-105.2299829">
  <ele>1583.0</ele>
  <time>2026-08-28T17:51:19Z</time>
  <course>120.58</course>
  <speed>5.38</speed>
  <fix>3d</fix>
</trkpt>
<trkpt lat="40.0718657" lon="-105.2299703">
  <ele>1582.91</ele>
  <time>2026-08-28T17:51:19Z</time>
  <course>121.6</course>
  <speed>5.3835397277256165</speed>
  <fix>3d</fix>
</trkpt>
<trkpt lat="40.0718714" lon="-105.2299829">
  <ele>1583.0</ele>
  <time>2026-08-28T17:51:19Z</time>
  <course>120.58</course>
  <speed>5.38</speed>
  <fix>3d</fix>
</trkpt>
<trkpt lat="40.0718633" lon="-105.2299648">
  <ele>1582.91</ele>
  <time>2026-08-28T17:51:19Z</time>
  <course>121.6</course>
  <speed>5.361231201878911</speed>
  <fix>3d</fix>
</trkpt>
<trkpt lat="40.0718665" lon="-105.2299721">
  <ele>1583.0</ele>
  <time>2026-08-28T17:51:19Z</time>
  <course>120.58</course>
  <speed>5.36</speed>
  <fix>3d</fix>
</trkpt>
<trkpt lat="40.0718608" lon="-105.2299594">
  <ele>1582.91</ele>
  <time>2026-08-28T17:51:19Z</time>
  <course>121.6</course>
  <speed>5.338923112388865</speed>
  <fix>3d</fix>
</trkpt>
<trkpt lat="40.0718665" lon="-105.2299721">
  <ele>1583.0</ele>
  <time>2026-08-28T17:51:19Z</time>
  <course>120.58</course>
  <speed>5.36</speed>
  <fix>3d</fix>
</trkpt>
<trkpt lat="40.0718584" lon="-105.2299539">
  <ele>1582.91</ele>
  <time>2026-08-28T17:51:19Z</time>
  <course>121.6</course>
  <speed>5.311544031635245</speed>
  <fix>3d</fix>
</trkpt>
<trkpt lat="40.0718616" lon="-105.2299612">
  <ele>1583.0</ele>
  <time>2026-08-28T17:51:19Z</time>
  <course>120.58</course>
  <speed>5.32</speed>
  <fix>3d</fix>
</trkpt>
<trkpt lat="40.0718559" lon="-105.2299486">
  <ele>1582.91</ele>
  <time>2026-08-28T17:51:19Z</time>
  <course>121.6</course>
  <speed>5.280615494428656</speed>
  <fix>3d</fix>
</trkpt>
<trkpt lat="40.0718616" lon="-105.2299612">
  <ele>1583.0</ele>
  <time>2026-08-28T17:51:19Z</time>
  <course>120.58</course>
  <speed>5.32</speed>
  <fix>3d</fix>
</trkpt>
<trkpt lat="40.0718535" lon="-105.2299432">
  <ele>1582.91</ele>
  <time>2026-08-28T17:51:19Z</time>
  <course>121.61</course>
  <speed>5.253237097257271</speed>
  <fix>3d</fix>
</trkpt>
<trkpt lat="40.0718568" lon="-105.2299506">
  <ele>1583.0</ele>
  <time>2026-08-28T17:51:19Z</time>
  <course>120.58</course>
  <speed>5.27</speed>
  <fix>3d</fix>
</trkpt>
<trkpt lat="40.0718511" lon="-105.2299379">
  <ele>1582.91</ele>
  <time>2026-08-28T17:51:19Z</time>
  <course>121.61</course>
  <speed>5.21724064999881</speed>
  <fix>3d</fix>
</trkpt>
<trkpt lat="40.0718568" lon="-105.2299506">
  <ele>1583.0</ele>
  <time>2026-08-28T17:51:19Z</time>
  <course>120.58</course>
  <speed>5.27</speed>
  <fix>3d</fix>
</trkpt>
<trkpt lat="40.0718488" lon="-105.2299327">
  <ele>1582.91</ele>
  <time>2026-08-28T17:51:19Z</time>
  <course>121.61</course>
  <speed>5.18630889940042</speed>
  <fix>3d</fix>
</trkpt>
<trkpt lat="40.071852" lon="-105.22994">
  <ele>1583.0</ele>
  <time>2026-08-28T17:51:19Z</time>
  <course>120.58</course>
  <speed>5.21</speed>
  <fix>3d</fix>
</trkpt>
<trkpt lat="40.0718464" lon="-105.2299274">
  <ele>1582.91</ele>
  <time>2026-08-28T17:51:19Z</time>
  <course>121.57</course>
  <speed>5.158933998414788</speed>
  <fix>3d</fix>
</trkpt>
<trkpt lat="40.071852" lon="-105.22994">
  <ele>1583.0</ele>
  <time>2026-08-28T17:51:19Z</time>
  <course>120.58</course>
  <speed>5.21</speed>
  <fix>3d</fix>
</trkpt>
<trkpt lat="40.0718441" lon="-105.2299222">
  <ele>1582.91</ele>
  <time>2026-08-28T17:51:19Z</time>
  <course>121.51</course>
  <speed>5.122938609821515</speed>
  <fix>3d</fix>
</trkpt>
<trkpt lat="40.071852" lon="-105.22994">
  <ele>1583.0</ele>
  <time>2026-08-28T17:51:19Z</time>
  <course>120.58</course>
  <speed>5.21</speed>
  <fix>3d</fix>
</trkpt>
<trkpt lat="40.0718418" lon="-105.2299171">
  <ele>1582.91</ele>
  <time>2026-08-28T17:51:19Z</time>
  <course>121.47</course>
  <speed>5.095576513015971</speed>
  <fix>3d</fix>
</trkpt>
<trkpt lat="40.0718472" lon="-105.2299295">
  <ele>1583.0</ele>
  <time>2026-08-28T17:51:19Z</time>
  <course>120.54</course>
  <speed>5.15</speed>
  <fix>3d</fix>
</trkpt>
<trkpt lat="40.0718395" lon="-105.229912">
  <ele>1582.9</ele>
  <time>2026-08-28T17:51:19Z</time>
  <course>121.4</course>
  <speed>5.068224541197835</speed>
  <fix>3d</fix>
</trkpt>
<trkpt lat="40.0718472" lon="-105.2299295">
  <ele>1583.0</ele>
  <time>2026-08-28T17:51:19Z</time>
  <course>120.54</course>
  <speed>5.15</speed>
  <fix>3d</fix>
</trkpt>
<trkpt lat="40.0718372" lon="-105.2299069">
  <ele>1582.91</ele>
  <time>2026-08-28T17:51:19Z</time>
  <course>121.34</course>
  <speed>5.032236083492109</speed>
  <fix>3d</fix>
</trkpt>
<trkpt lat="40.0718425" lon="-105.2299191">
  <ele>1583.0</ele>
  <time>2026-08-28T17:51:19Z</time>
  <course>120.43</course>
  <speed>5.09</speed>
  <fix>3d</fix>
</trkpt>
<trkpt lat="40.0718349" lon="-105.2299019">
  <ele>1582.9</ele>
  <time>2026-08-28T17:51:19Z</time>
  <course>121.27</course>
  <speed>5.013551635318021</speed>
  <fix>3d</fix>
</trkpt>
<trkpt lat="40.0718425" lon="-105.2299191">
  <ele>1583.0</ele>
  <time>2026-08-28T17:51:19Z</time>
  <course>120.43</course>
  <speed>5.09</speed>
  <fix>3d</fix>
</trkpt>
<trkpt lat="40.0718327" lon="-105.2298969">
  <ele>1582.9</ele>
  <time>2026-08-28T17:51:19Z</time>
  <course>121.2</course>
  <speed>4.991232312766057</speed>
  <fix>3d</fix>
</trkpt>
<trkpt lat="40.071838" lon="-105.2299088">
  <ele>1583.0</ele>
  <time>2026-08-28T17:51:19Z</time>
  <course>120.31</course>
  <speed>5.05</speed>
  <fix>3d</fix>
</trkpt>
<trkpt lat="40.0718305" lon="-105.2298919">
  <ele>1582.91</ele>
  <time>2026-08-28T17:51:19Z</time>
  <course>121.13</course>
  <speed>4.977569688110856</speed>
  <fix>3d</fix>
</trkpt>
<trkpt lat="40.071838" lon="-105.2299088">
  <ele>1583.0</ele>
  <time>2026-08-28T17:51:19Z</time>
  <course>120.31</course>
  <speed>5.05</speed>
  <fix>3d</fix>
</trkpt>
<trkpt lat="40.0718283" lon="-105.2298868">
  <ele>1582.9</ele>
  <time>2026-08-28T17:51:19Z</time>
  <course>121.06</course>
  <speed>4.958921253659913</speed>
  <fix>3d</fix>
</trkpt>
<trkpt lat="40.0718334" lon="-105.2298985">
  <ele>1583.0</ele>
  <time>2026-08-28T17:51:19Z</time>
  <course>120.17</course>
  <speed>5.01</speed>
  <fix>3d</fix>
</trkpt>
<trkpt lat="40.0718261" lon="-105.2298818">
  <ele>1582.9</ele>
  <time>2026-08-28T17:51:19Z</time>
  <course>121.0</course>
  <speed>4.945270467830855</speed>
  <fix>3d</fix>
</trkpt>
<trkpt lat="40.0718289" lon="-105.2298884">
  <ele>1583.0</ele>
  <time>2026-08-28T17:51:19Z</time>
  <course>120.04</course>
  <speed>4.99</speed>
  <fix>3d</fix>
</trkpt>
<trkpt lat="40.0718238" lon="-105.2298768">
  <ele>1582.9</ele>
  <time>2026-08-28T17:51:19Z</time>
  <course>120.93</course>
  <speed>4.931622451080375</speed>
  <fix>3d</fix>
</trkpt>
<trkpt lat="40.0718289" lon="-105.2298884">
  <ele>1583.0</ele>
  <time>2026-08-28T17:51:19Z</time>
  <course>120.04</course>
  <speed>4.99</speed>
  <fix>3d</fix>
</trkpt>
<trkpt lat="40.0718217" lon="-105.2298718">
  <ele>1582.9</ele>
  <time>2026-08-28T17:51:19Z</time>
  <course>120.87</course>
  <speed>4.931622451080375</speed>
  <fix>3d</fix>
</trkpt>
<trkpt lat="40.0718244" lon="-105.2298783">
  <ele>1583.0</ele>
  <time>2026-08-28T17:51:19Z</time>
  <course>119.9</course>
  <speed>4.97</speed>
  <fix>3d</fix>
</trkpt>
<trkpt lat="40.0718194" lon="-105.2298668">
  <ele>1582.9</ele>
  <time>2026-08-28T17:51:19Z</time>
  <course>120.8</course>
  <speed>4.926662156064692</speed>
  <fix>3d</fix>
</trkpt>
<trkpt lat="40.0718244" lon="-105.2298783">
  <ele>1583.0</ele>
  <time>2026-08-28T17:51:19Z</time>
  <course>119.9</course>
  <speed>4.97</speed>
  <fix>3d</fix>
</trkpt>
<trkpt lat="40.0718172" lon="-105.2298617">
  <ele>1582.9</ele>
  <time>2026-08-28T17:51:19Z</time>
  <course>120.74</course>
  <speed>4.926662156064692</speed>
  <fix>3d</fix>
</trkpt>
<trkpt lat="40.07182" lon="-105.2298682">
  <ele>1583.0</ele>
  <time>2026-08-28T17:51:19Z</time>
  <course>119.77</course>
  <speed>4.96</speed>
  <fix>3d</fix>
</trkpt>
<trkpt lat="40.071815" lon="-105.2298566">
  <ele>1582.91</ele>
  <time>2026-08-28T17:51:19Z</time>
  <course>120.67</course>
  <speed>4.930415803966233</speed>
  <fix>3d</fix>
</trkpt>
<trkpt lat="40.07182" lon="-105.2298682">
  <ele>1583.0</ele>
  <time>2026-08-28T17:51:19Z</time>
  <course>119.77</course>
  <speed>4.96</speed>
  <fix>3d</fix>
</trkpt>
<trkpt lat="40.0718128" lon="-105.2298515">
  <ele>1582.91</ele>
  <time>2026-08-28T17:51:19Z</time>
  <course>120.61</course>
  <speed>4.930415803966233</speed>
  <fix>3d</fix>
</trkpt>
<trkpt lat="40.0718155" lon="-105.2298581">
  <ele>1583.0</ele>
  <time>2026-08-28T17:51:19Z</time>
  <course>119.63</course>
  <speed>4.96</speed>
  <fix>3d</fix>
</trkpt>
<trkpt lat="40.0718106" lon="-105.2298464">
  <ele>1582.91</ele>
  <time>2026-08-28T17:51:19Z</time>
  <course>120.55</course>
  <speed>4.930415803966233</speed>
  <fix>3d</fix>
</trkpt>
<trkpt lat="40.0718155" lon="-105.2298581">
  <ele>1583.0</ele>
  <time>2026-08-28T17:51:19Z</time>
  <course>119.63</course>
  <speed>4.96</speed>
  <fix>3d</fix>
</trkpt>
<trkpt lat="40.0718084" lon="-105.2298413">
  <ele>1582.91</ele>
  <time>2026-08-28T17:51:19Z</time>
  <course>120.48</course>
  <speed>4.93911935470282</speed>
  <fix>3d</fix>
</trkpt>
<trkpt lat="40.0718112" lon="-105.2298479">
  <ele>1583.0</ele>
  <time>2026-08-28T17:51:19Z</time>
  <course>119.5</course>
  <speed>4.97</speed>
  <fix>3d</fix>
</trkpt>
<trkpt lat="40.0718062" lon="-105.2298362">
  <ele>1582.91</ele>
  <time>2026-08-28T17:51:19Z</time>
  <course>120.42</course>
  <speed>4.934207129823393</speed>
  <fix>3d</fix>
</trkpt>
<trkpt lat="40.0718112" lon="-105.2298479">
  <ele>1583.0</ele>
  <time>2026-08-28T17:51:19Z</time>
  <course>119.5</course>
  <speed>4.97</speed>
  <fix>3d</fix>
</trkpt>
<trkpt lat="40.071804" lon="-105.2298311">
  <ele>1582.92</ele>
  <time>2026-08-28T17:51:19Z</time>
  <course>120.35</course>
  <speed>4.9429242357131065</speed>
  <fix>3d</fix>
</trkpt>
<trkpt lat="40.0718068" lon="-105.2298377">
  <ele>1583.0</ele>
  <time>2026-08-28T17:51:19Z</time>
  <course>119.36</course>
  <speed>4.97</speed>
  <fix>3d</fix>
</trkpt>
<trkpt lat="40.0718018" lon="-105.229826">
  <ele>1582.92</ele>
  <time>2026-08-28T17:51:19Z</time>
  <course>120.29</course>
  <speed>4.951646190914694</speed>
  <fix>3d</fix>
</trkpt>
<trkpt lat="40.0718068" lon="-105.2298377">
  <ele>1583.0</ele>
  <time>2026-08-28T17:51:19Z</time>
  <course>119.36</course>
  <speed>4.97</speed>
  <fix>3d</fix>
</trkpt>
<trkpt lat="40.0717996" lon="-105.2298209">
  <ele>1582.92</ele>
  <time>2026-08-28T17:51:19Z</time>
  <course>120.22</course>
  <speed>4.951646190914694</speed>
  <fix>3d</fix>
</trkpt>
<trkpt lat="40.0718023" lon="-105.2298275">
  <ele>1583.0</ele>
  <time>2026-08-28T17:51:19Z</time>
  <course>119.23</course>
  <speed>4.98</speed>
  <fix>3d</fix>
</trkpt>
<trkpt lat="40.0717974" lon="-105.2298158">
  <ele>1582.92</ele>
  <time>2026-08-28T17:51:19Z</time>
  <course>120.16</course>
  <speed>4.960372969848135</speed>
  <fix>3d</fix>
</trkpt>
<trkpt lat="40.0718023" lon="-105.2298275">
  <ele>1583.0</ele>
  <time>2026-08-28T17:51:19Z</time>
  <course>119.23</course>
  <speed>4.98</speed>
  <fix>3d</fix>
</trkpt>
<trkpt lat="40.0717952" lon="-105.2298106">
  <ele>1582.92</ele>
  <time>2026-08-28T17:51:19Z</time>
  <course>120.1</course>
  <speed>4.960372969848135</speed>
  <fix>3d</fix>
</trkpt>
<trkpt lat="40.0718023" lon="-105.2298275">
  <ele>1583.0</ele>
  <time>2026-08-28T17:51:19Z</time>
  <course>119.23</course>
  <speed>4.98</speed>
  <fix>3d</fix>
</trkpt>
<trkpt lat="40.071793" lon="-105.2298055">
  <ele>1582.92</ele>
  <time>2026-08-28T17:51:19Z</time>
  <course>120.03</course>
  <speed>4.969104547099004</speed>
  <fix>3d</fix>
</trkpt>
<trkpt lat="40.071798" lon="-105.2298173">
  <ele>1583.0</ele>
  <time>2026-08-28T17:51:19Z</time>
  <course>119.09</course>
  <speed>4.99</speed>
  <fix>3d</fix>
</trkpt>
<trkpt lat="40.0717908" lon="-105.2298004">
  <ele>1582.92</ele>
  <time>2026-08-28T17:51:19Z</time>
  <course>119.97</course>
  <speed>4.964242137527138</speed>
  <fix>3d</fix>
</trkpt>
<trkpt lat="40.071798" lon="-105.2298173">
  <ele>1583.0</ele>
  <time>2026-08-28T17:51:19Z</time>
  <course>119.09</course>
  <speed>4.99</speed>
  <fix>3d</fix>
</trkpt>
<trkpt lat="40.0717887" lon="-105.2297953">
  <ele>1582.93</ele>
  <time>2026-08-28T17:51:19Z</time>
  <course>119.9</course>
  <speed>4.97298702994488</speed>
  <fix>3d</fix>
</trkpt>
<trkpt lat="40.0717937" lon="-105.229807">
  <ele>1583.0</ele>
  <time>2026-08-28T17:51:19Z</time>
  <course>118.95</course>
  <speed>5.0</speed>
  <fix>3d</fix>
</trkpt>
<trkpt lat="40.0717865" lon="-105.2297902">
  <ele>1582.93</ele>
  <time>2026-08-28T17:51:19Z</time>
  <course>119.83</course>
  <speed>4.97298702994488</speed>
  <fix>3d</fix>
</trkpt>
<trkpt lat="40.0717937" lon="-105.229807">
  <ele>1583.0</ele>
  <time>2026-08-28T17:51:19Z</time>
  <course>118.95</course>
  <speed>5.0</speed>
  <fix>3d</fix>
</trkpt>
<trkpt lat="40.0717844" lon="-105.2297851">
  <ele>1582.93</ele>
  <time>2026-08-28T17:51:19Z</time>
  <course>119.77</course>
  <speed>4.976906669810074</speed>
  <fix>3d</fix>
</trkpt>
<trkpt lat="40.0717893" lon="-105.2297967">
  <ele>1583.0</ele>
  <time>2026-08-28T17:51:19Z</time>
  <course>118.82</course>
  <speed>5.01</speed>
  <fix>3d</fix>
</trkpt>
<trkpt lat="40.0717822" lon="-105.22978">
  <ele>1582.93</ele>
  <time>2026-08-28T17:51:19Z</time>
  <course>119.7</course>
  <speed>4.976906669810074</speed>
  <fix>3d</fix>
</trkpt>
<trkpt lat="40.071785" lon="-105.2297864">
  <ele>1583.0</ele>
  <time>2026-08-28T17:51:19Z</time>
  <course>118.68</course>
  <speed>5.02</speed>
  <fix>3d</fix>
</trkpt>
<trkpt lat="40.07178" lon="-105.2297748">
  <ele>1582.93</ele>
  <time>2026-08-28T17:51:19Z</time>
  <course>119.64</course>
  <speed>4.98566946357257</speed>
  <fix>3d</fix>
</trkpt>
<trkpt lat="40.071785" lon="-105.2297864">
  <ele>1583.0</ele>
  <time>2026-08-28T17:51:19Z</time>
  <course>118.68</course>
  <speed>5.02</speed>
  <fix>3d</fix>
</trkpt>
<trkpt lat="40.0717779" lon="-105.2297696">
  <ele>1582.93</ele>
  <time>2026-08-28T17:51:19Z</time>
  <course>119.57</course>
  <speed>4.98566946357257</speed>
  <fix>3d</fix>
</trkpt>
<trkpt lat="40.0717806" lon="-105.2297761">
  <ele>1583.0</ele>
  <time>2026-08-28T17:51:19Z</time>
  <course>118.55</course>
  <speed>5.03</speed>
  <fix>3d</fix>
</trkpt>
<trkpt lat="40.0717757" lon="-105.2297645">
  <ele>1582.93</ele>
  <time>2026-08-28T17:51:19Z</time>
  <course>119.51</course>
  <speed>4.994436905197622</speed>
  <fix>3d</fix>
</trkpt>
<trkpt lat="40.0717806" lon="-105.2297761">
  <ele>1583.0</ele>
  <time>2026-08-28T17:51:19Z</time>
  <course>118.55</course>
  <speed>5.03</speed>
  <fix>3d</fix>
</trkpt>
<trkpt lat="40.0717736" lon="-105.2297593">
  <ele>1582.93</ele>
  <time>2026-08-28T17:51:19Z</time>
  <course>119.45</course>
  <speed>4.989639265518099</speed>
  <fix>3d</fix>
</trkpt>
<trkpt lat="40.0717763" lon="-105.2297657">
  <ele>1583.0</ele>
  <time>2026-08-28T17:51:19Z</time>
  <course>118.41</course>
  <speed>5.03</speed>
  <fix>3d</fix>
</trkpt>
<trkpt lat="40.0717714" lon="-105.2297541">
  <ele>1582.93</ele>
  <time>2026-08-28T17:51:19Z</time>
  <course>119.38</course>
  <speed>4.998419750281083</speed>
  <fix>3d</fix>
</trkpt>
<trkpt lat="40.0717763" lon="-105.2297657">
  <ele>1583.0</ele>
  <time>2026-08-28T17:51:19Z</time>
  <course>118.41</course>
  <speed>5.03</speed>
  <fix>3d</fix>
</trkpt>
<trkpt lat="40.0717692" lon="-105.2297488">
  <ele>1582.93</ele>
  <time>2026-08-28T17:51:19Z</time>
  <course>119.32</course>
  <speed>4.998419750281083</speed>
  <fix>3d</fix>
</trkpt>
<trkpt lat="40.071772" lon="-105.2297552">
  <ele>1583.0</ele>
  <time>2026-08-28T17:51:19Z</time>
  <course>118.27</course>
  <speed>5.04</speed>
  <fix>3d</fix>
</trkpt>
<trkpt lat="40.0717671" lon="-105.2297435">
  <ele>1582.93</ele>
  <time>2026-08-28T17:51:19Z</time>
  <course>119.26</course>
  <speed>5.007204809072622</speed>
  <fix>3d</fix>
</trkpt>
<trkpt lat="40.071772" lon="-105.2297552">
  <ele>1583.0</ele>
  <time>2026-08-28T17:51:19Z</time>
  <course>118.27</course>
  <speed>5.04</speed>
  <fix>3d</fix>
</trkpt>
<trkpt lat="40.0717649" lon="-105.2297383">
  <ele>1582.93</ele>
  <time>2026-08-28T17:51:19Z</time>
  <course>119.19</course>
  <speed>5.002439404930358</speed>
  <fix>3d</fix>
</trkpt>
<trkpt lat="40.0717678" lon="-105.2297448">
  <ele>1583.0</ele>
  <time>2026-08-28T17:51:19Z</time>
  <course>118.14</course>
  <speed>5.04</speed>
  <fix>3d</fix>
</trkpt>
<trkpt lat="40.0717627" lon="-105.229733">
  <ele>1582.93</ele>
  <time>2026-08-28T17:51:19Z</time>
  <course>119.14</course>
  <speed>5.002439404930358</speed>
  <fix>3d</fix>
</trkpt>
<trkpt lat="40.0717678" lon="-105.2297448">
  <ele>1583.0</ele>
  <time>2026-08-28T17:51:19Z</time>
  <course>118.14</course>
  <speed>5.04</speed>
  <fix>3d</fix>
</trkpt>
<trkpt lat="40.0717606" lon="-105.2297278">
  <ele>1582.93</ele>
  <time>2026-08-28T17:51:19Z</time>
  <course>119.09</course>
  <speed>5.002439404930358</speed>
  <fix>3d</fix>
</trkpt>
<trkpt lat="40.0717635" lon="-105.2297344">
  <ele>1583.0</ele>
  <time>2026-08-28T17:51:19Z</time>
  <course>118.01</course>
  <speed>5.04</speed>
  <fix>3d</fix>
</trkpt>
<trkpt lat="40.0717585" lon="-105.2297225">
  <ele>1582.93</ele>
  <time>2026-08-28T17:51:19Z</time>
  <course>119.04</course>
  <speed>5.006495780483591</speed>
  <fix>3d</fix>
</trkpt>
<trkpt lat="40.0717635" lon="-105.2297344">
  <ele>1583.0</ele>
  <time>2026-08-28T17:51:19Z</time>
  <course>118.01</course>
  <speed>5.04</speed>
  <fix>3d</fix>
</trkpt>
<trkpt lat="40.0717563" lon="-105.2297173">
  <ele>1582.93</ele>
  <time>2026-08-28T17:51:19Z</time>
  <course>119.01</course>
  <speed>5.006495780483591</speed>
  <fix>3d</fix>
</trkpt>
<trkpt lat="40.0717592" lon="-105.2297239">
  <ele>1583.0</ele>
  <time>2026-08-28T17:51:19Z</time>
  <course>117.91</course>
  <speed>5.04</speed>
  <fix>3d</fix>
</trkpt>
<trkpt lat="40.0717542" lon="-105.229712">
  <ele>1582.93</ele>
  <time>2026-08-28T17:51:19Z</time>
  <course>118.98</course>
  <speed>5.006495780483591</speed>
  <fix>3d</fix>
</trkpt>
<trkpt lat="40.0717592" lon="-105.2297239">
  <ele>1583.0</ele>
  <time>2026-08-28T17:51:19Z</time>
  <course>117.91</course>
  <speed>5.04</speed>
  <fix>3d</fix>
</trkpt>
<trkpt lat="40.0717521" lon="-105.2297068">
  <ele>1582.93</ele>
  <time>2026-08-28T17:51:19Z</time>
  <course>118.92</course>
  <speed>5.006495780483591</speed>
  <fix>3d</fix>
</trkpt>
<trkpt lat="40.0717592" lon="-105.2297239">
  <ele>1583.0</ele>
  <time>2026-08-28T17:51:19Z</time>
  <course>117.91</course>
  <speed>5.04</speed>
  <fix>3d</fix>
</trkpt>
<trkpt lat="40.0717499" lon="-105.2297016">
  <ele>1582.93</ele>
  <time>2026-08-28T17:51:19Z</time>
  <course>118.89</course>
  <speed>5.001769686820856</speed>
  <fix>3d</fix>
</trkpt>
<trkpt lat="40.071755" lon="-105.2297134">
  <ele>1583.0</ele>
  <time>2026-08-28T17:51:19Z</time>
  <course>117.82</course>
  <speed>5.04</speed>
  <fix>3d</fix>
</trkpt>
<trkpt lat="40.0717478" lon="-105.2296964">
  <ele>1582.94</ele>
  <time>2026-08-28T17:51:19Z</time>
  <course>118.87</course>
  <speed>5.001769686820856</speed>
  <fix>3d</fix>
</trkpt>
<trkpt lat="40.071755" lon="-105.2297134">
  <ele>1583.0</ele>
  <time>2026-08-28T17:51:19Z</time>
  <course>117.82</course>
  <speed>5.04</speed>
  <fix>3d</fix>
</trkpt>
<trkpt lat="40.0717458" lon="-105.2296912">
  <ele>1582.94</ele>
  <time>2026-08-28T17:51:19Z</time>
  <course>118.82</course>
  <speed>5.001769686820856</speed>
  <fix>3d</fix>
</trkpt>
<trkpt lat="40.0717508" lon="-105.2297029">
  <ele>1583.0</ele>
  <time>2026-08-28T17:51:19Z</time>
  <course>117.74</course>
  <speed>5.04</speed>
  <fix>3d</fix>
</trkpt>
<trkpt lat="40.0717437" lon="-105.229686">
  <ele>1582.94</ele>
  <time>2026-08-28T17:51:19Z</time>
  <course>118.79</course>
  <speed>4.997059135131383</speed>
  <fix>3d</fix>
</trkpt>
<trkpt lat="40.0717508" lon="-105.2297029">
  <ele>1583.0</ele>
  <time>2026-08-28T17:51:19Z</time>
  <course>117.74</course>
  <speed>5.04</speed>
  <fix>3d</fix>
</trkpt>
<trkpt lat="40.0717416" lon="-105.2296808">
  <ele>1582.95</ele>
  <time>2026-08-28T17:51:19Z</time>
  <course>118.77</course>
  <speed>4.997059135131383</speed>
  <fix>3d</fix>
</trkpt>
<trkpt lat="40.0717466" lon="-105.2296925">
  <ele>1583.0</ele>
  <time>2026-08-28T17:51:19Z</time>
  <course>117.67</course>
  <speed>5.04</speed>
  <fix>3d</fix>
</trkpt>
<trkpt lat="40.0717395" lon="-105.2296757">
  <ele>1582.95</ele>
  <time>2026-08-28T17:51:19Z</time>
  <course>118.71</course>
  <speed>4.9882361612096915</speed>
  <fix>3d</fix>
</trkpt>
<trkpt lat="40.0717466" lon="-105.2296925">
  <ele>1583.0</ele>
  <time>2026-08-28T17:51:19Z</time>
  <course>117.67</course>
  <speed>5.04</speed>
  <fix>3d</fix>
</trkpt>
<trkpt lat="40.0717374" lon="-105.2296704">
  <ele>1582.95</ele>
  <time>2026-08-28T17:51:19Z</time>
  <course>118.7</course>
  <speed>4.9882361612096915</speed>
  <fix>3d</fix>
</trkpt>
<trkpt lat="40.0717424" lon="-105.229682">
  <ele>1583.0</ele>
  <time>2026-08-28T17:51:19Z</time>
  <course>117.59</course>
  <speed>5.04</speed>
  <fix>3d</fix>
</trkpt>
<trkpt lat="40.0717354" lon="-105.2296653">
  <ele>1582.95</ele>
  <time>2026-08-28T17:51:19Z</time>
  <course>118.68</course>
  <speed>4.983532883407111</speed>
  <fix>3d</fix>
</trkpt>
<trkpt lat="40.0717382" lon="-105.2296715">
  <ele>1583.0</ele>
  <time>2026-08-28T17:51:19Z</time>
  <course>117.53</course>
  <speed>5.04</speed>
  <fix>3d</fix>
</trkpt>
<trkpt lat="40.0717333" lon="-105.22966">
  <ele>1582.94</ele>
  <time>2026-08-28T17:51:19Z</time>
  <course>118.64</course>
  <speed>4.983532883407111</speed>
  <fix>3d</fix>
</trkpt>
<trkpt lat="40.0717382" lon="-105.2296715">
  <ele>1583.0</ele>
  <time>2026-08-28T17:51:19Z</time>
  <course>117.53</course>
  <speed>5.04</speed>
  <fix>3d</fix>
</trkpt>
<trkpt lat="40.0717312" lon="-105.2296548">
  <ele>1582.94</ele>
  <time>2026-08-28T17:51:19Z</time>
  <course>118.62</course>
  <speed>4.983532883407111</speed>
  <fix>3d</fix>
</trkpt>
<trkpt lat="40.0717339" lon="-105.229661">
  <ele>1583.0</ele>
  <time>2026-08-28T17:51:19Z</time>
  <course>117.47</course>
  <speed>5.04</speed>
  <fix>3d</fix>
</trkpt>
<trkpt lat="40.0717291" lon="-105.2296496">
  <ele>1582.94</ele>
  <time>2026-08-28T17:51:19Z</time>
  <course>118.61</course>
  <speed>4.992364169409118</speed>
  <fix>3d</fix>
</trkpt>
<trkpt lat="40.0717339" lon="-105.229661">
  <ele>1583.0</ele>
  <time>2026-08-28T17:51:19Z</time>
  <course>117.47</course>
  <speed>5.04</speed>
  <fix>3d</fix>
</trkpt>
<trkpt lat="40.071727" lon="-105.2296443">
  <ele>1582.94</ele>
  <time>2026-08-28T17:51:19Z</time>
  <course>118.57</course>
  <speed>4.992364169409118</speed>
  <fix>3d</fix>
</trkpt>
<trkpt lat="40.0717298" lon="-105.2296505">
  <ele>1583.0</ele>
  <time>2026-08-28T17:51:19Z</time>
  <course>117.41</course>
  <speed>5.04</speed>
  <fix>3d</fix>
</trkpt>
<trkpt lat="40.0717249" lon="-105.229639">
  <ele>1582.94</ele>
  <time>2026-08-28T17:51:19Z</time>
  <course>118.56</course>
  <speed>4.992364169409118</speed>
  <fix>3d</fix>
</trkpt>
<trkpt lat="40.0717298" lon="-105.2296505">
  <ele>1583.0</ele>
  <time>2026-08-28T17:51:19Z</time>
  <course>117.41</course>
  <speed>5.04</speed>
  <fix>3d</fix>
</trkpt>
<trkpt lat="40.0717228" lon="-105.2296337">
  <ele>1582.94</ele>
  <time>2026-08-28T17:51:19Z</time>
  <course>118.55</course>
  <speed>4.992364169409118</speed>
  <fix>3d</fix>
</trkpt>
<trkpt lat="40.0717257" lon="-105.22964">
  <ele>1583.0</ele>
  <time>2026-08-28T17:51:19Z</time>
  <course>117.37</course>
  <speed>5.04</speed>
  <fix>3d</fix>
</trkpt>
<trkpt lat="40.0717207" lon="-105.2296284">
  <ele>1582.93</ele>
  <time>2026-08-28T17:51:19Z</time>
  <course>118.54</course>
  <speed>5.00119985603455</speed>
  <fix>3d</fix>
</trkpt>
<trkpt lat="40.0717257" lon="-105.22964">
  <ele>1583.0</ele>
  <time>2026-08-28T17:51:19Z</time>
  <course>117.37</course>
  <speed>5.04</speed>
  <fix>3d</fix>
</trkpt>
<trkpt lat="40.0717186" lon="-105.2296231">
  <ele>1582.93</ele>
  <time>2026-08-28T17:51:19Z</time>
  <course>118.54</course>
  <speed>5.00119985603455</speed>
  <fix>3d</fix>
</trkpt>
<trkpt lat="40.0717214" lon="-105.2296295">
  <ele>1583.0</ele>
  <time>2026-08-28T17:51:19Z</time>
  <course>117.35</course>
  <speed>5.04</speed>
  <fix>3d</fix>
</trkpt>
<trkpt lat="40.0717165" lon="-105.2296178">
  <ele>1582.93</ele>
  <time>2026-08-28T17:51:19Z</time>
  <course>118.54</course>
  <speed>5.00119985603455</speed>
  <fix>3d</fix>
</trkpt>
<trkpt lat="40.0717214" lon="-105.2296295">
  <ele>1583.0</ele>
  <time>2026-08-28T17:51:19Z</time>
  <course>117.35</course>
  <speed>5.04</speed>
  <fix>3d</fix>
</trkpt>
<trkpt lat="40.0717144" lon="-105.2296126">
  <ele>1582.93</ele>
  <time>2026-08-28T17:51:19Z</time>
  <course>118.53</course>
  <speed>5.00119985603455</speed>
  <fix>3d</fix>
</trkpt>
<trkpt lat="40.0717173" lon="-105.229619">
  <ele>1583.0</ele>
  <time>2026-08-28T17:51:19Z</time>
  <course>117.34</course>
  <speed>5.03</speed>
  <fix>3d</fix>
</trkpt>
<trkpt lat="40.0717123" lon="-105.2296073">
  <ele>1582.92</ele>
  <time>2026-08-28T17:51:19Z</time>
  <course>118.53</course>
  <speed>5.00119985603455</speed>
  <fix>3d</fix>
</trkpt>
<trkpt lat="40.0717173" lon="-105.229619">
  <ele>1583.0</ele>
  <time>2026-08-28T17:51:19Z</time>
  <course>117.34</course>
  <speed>5.03</speed>
  <fix>3d</fix>
</trkpt>
<trkpt lat="40.0717102" lon="-105.229602">
  <ele>1582.92</ele>
  <time>2026-08-28T17:51:19Z</time>
  <course>118.52</course>
  <speed>5.00119985603455</speed>
  <fix>3d</fix>
</trkpt>
<trkpt lat="40.0717132" lon="-105.2296085">
  <ele>1583.0</ele>
  <time>2026-08-28T17:51:19Z</time>
  <course>117.32</course>
  <speed>5.03</speed>
  <fix>3d</fix>
</trkpt>
<trkpt lat="40.0717081" lon="-105.2295967">
  <ele>1582.93</ele>
  <time>2026-08-28T17:51:19Z</time>
  <course>118.52</course>
  <speed>5.00119985603455</speed>
  <fix>3d</fix>
</trkpt>
<trkpt lat="40.0717132" lon="-105.2296085">
  <ele>1583.0</ele>
  <time>2026-08-28T17:51:19Z</time>
  <course>117.32</course>
  <speed>5.03</speed>
  <fix>3d</fix>
</trkpt>
<trkpt lat="40.071706" lon="-105.2295915">
  <ele>1582.93</ele>
  <time>2026-08-28T17:51:19Z</time>
  <course>118.52</course>
  <speed>5.00119985603455</speed>
  <fix>3d</fix>
</trkpt>
<trkpt lat="40.0717132" lon="-105.2296085">
  <ele>1583.0</ele>
  <time>2026-08-28T17:51:19Z</time>
  <course>117.32</course>
  <speed>5.03</speed>
  <fix>3d</fix>
</trkpt>
<trkpt lat="40.0717039" lon="-105.2295862">
  <ele>1582.93</ele>
  <time>2026-08-28T17:51:19Z</time>
  <course>118.51</course>
  <speed>4.992364169409118</speed>
  <fix>3d</fix>
</trkpt>
<trkpt lat="40.071709" lon="-105.229598">
  <ele>1583.0</ele>
  <time>2026-08-28T17:51:19Z</time>
  <course>117.32</course>
  <speed>5.03</speed>
  <fix>3d</fix>
</trkpt>
<trkpt lat="40.0717019" lon="-105.229581">
  <ele>1582.93</ele>
  <time>2026-08-28T17:51:19Z</time>
  <course>118.51</course>
  <speed>4.978845247645281</speed>
  <fix>3d</fix>
</trkpt>
<trkpt lat="40.071709" lon="-105.229598">
  <ele>1583.0</ele>
  <time>2026-08-28T17:51:19Z</time>
  <course>117.32</course>
  <speed>5.03</speed>
  <fix>3d</fix>
</trkpt>
<trkpt lat="40.0716998" lon="-105.2295758">
  <ele>1582.93</ele>
  <time>2026-08-28T17:51:19Z</time>
  <course>118.51</course>
  <speed>4.956490694029395</speed>
  <fix>3d</fix>
</trkpt>
<trkpt lat="40.0717049" lon="-105.2295874">
  <ele>1583.0</ele>
  <time>2026-08-28T17:51:19Z</time>
  <course>117.31</course>
  <speed>5.02</speed>
  <fix>3d</fix>
</trkpt>
<trkpt lat="40.0716978" lon="-105.2295707">
  <ele>1582.93</ele>
  <time>2026-08-28T17:51:19Z</time>
  <course>118.51</course>
  <speed>4.925302021196264</speed>
  <fix>3d</fix>
</trkpt>
<trkpt lat="40.0717049" lon="-105.2295874">
  <ele>1583.0</ele>
  <time>2026-08-28T17:51:19Z</time>
  <course>117.31</course>
  <speed>5.02</speed>
  <fix>3d</fix>
</trkpt>
<trkpt lat="40.0716958" lon="-105.2295656">
  <ele>1582.93</ele>
  <time>2026-08-28T17:51:19Z</time>
  <course>118.51</course>
  <speed>4.875910171444917</speed>
  <fix>3d</fix>
</trkpt>
<trkpt lat="40.0717007" lon="-105.229577">
  <ele>1583.0</ele>
  <time>2026-08-28T17:51:19Z</time>
  <course>117.3</course>
  <speed>4.99</speed>
  <fix>3d</fix>
</trkpt>
<trkpt lat="40.0716938" lon="-105.2295605">
  <ele>1582.93</ele>
  <time>2026-08-28T17:51:19Z</time>
  <course>118.51</course>
  <speed>4.822364565231459</speed>
  <fix>3d</fix>
</trkpt>
<trkpt lat="40.0716966" lon="-105.2295666">
  <ele>1583.0</ele>
  <time>2026-08-28T17:51:19Z</time>
  <course>117.3</course>
  <speed>4.91</speed>
  <fix>3d</fix>
</trkpt>
<trkpt lat="40.0716918" lon="-105.2295555">
  <ele>1582.93</ele>
  <time>2026-08-28T17:51:19Z</time>
  <course>118.51</course>
  <speed>4.750621012036216</speed>
  <fix>3d</fix>
</trkpt>
<trkpt lat="40.0716966" lon="-105.2295666">
  <ele>1583.0</ele>
  <time>2026-08-28T17:51:19Z</time>
  <course>117.3</course>
  <speed>4.91</speed>
  <fix>3d</fix>
</trkpt>
<trkpt lat="40.0716898" lon="-105.2295505">
  <ele>1582.93</ele>
  <time>2026-08-28T17:51:19Z</time>
  <course>118.51</course>
  <speed>4.683556341072455</speed>
  <fix>3d</fix>
</trkpt>
<trkpt lat="40.0716927" lon="-105.2295566">
  <ele>1583.0</ele>
  <time>2026-08-28T17:51:19Z</time>
  <course>117.3</course>
  <speed>4.79</speed>
  <fix>3d</fix>
</trkpt>
<trkpt lat="40.0716879" lon="-105.2295457">
  <ele>1582.92</ele>
  <time>2026-08-28T17:51:19Z</time>
  <course>118.51</course>
  <speed>4.5941375686846815</speed>
  <fix>3d</fix>
</trkpt>
<trkpt lat="40.0716927" lon="-105.2295566">
  <ele>1583.0</ele>
  <time>2026-08-28T17:51:19Z</time>
  <course>117.3</course>
  <speed>4.79</speed>
  <fix>3d</fix>
</trkpt>
<trkpt lat="40.071686" lon="-105.2295409">
  <ele>1582.92</ele>
  <time>2026-08-28T17:51:19Z</time>
  <course>118.51</course>
  <speed>4.500044444224968</speed>
  <fix>3d</fix>
</trkpt>
<trkpt lat="40.0716887" lon="-105.2295467">
  <ele>1583.0</ele>
  <time>2026-08-28T17:51:19Z</time>
  <course>117.3</course>
  <speed>4.63</speed>
  <fix>3d</fix>
</trkpt>
<trkpt lat="40.0716842" lon="-105.2295362">
  <ele>1582.92</ele>
  <time>2026-08-28T17:51:19Z</time>
  <course>118.52</course>
  <speed>4.4017837293533635</speed>
  <fix>3d</fix>
</trkpt>
<trkpt lat="40.0716887" lon="-105.2295467">
  <ele>1583.0</ele>
  <time>2026-08-28T17:51:19Z</time>
  <course>117.3</course>
  <speed>4.63</speed>
  <fix>3d</fix>
</trkpt>
<trkpt lat="40.0716824" lon="-105.2295316">
  <ele>1582.92</ele>
  <time>2026-08-28T17:51:19Z</time>
  <course>118.52</course>
  <speed>4.29884868307783</speed>
  <fix>3d</fix>
</trkpt>
<trkpt lat="40.071685" lon="-105.2295372">
  <ele>1583.0</ele>
  <time>2026-08-28T17:51:19Z</time>
  <course>117.3</course>
  <speed>4.44</speed>
  <fix>3d</fix>
</trkpt>
<trkpt lat="40.0716806" lon="-105.2295271">
  <ele>1582.92</ele>
  <time>2026-08-28T17:51:19Z</time>
  <course>118.52</course>
  <speed>4.182403615147634</speed>
  <fix>3d</fix>
</trkpt>
<trkpt lat="40.071685" lon="-105.2295372">
  <ele>1583.0</ele>
  <time>2026-08-28T17:51:19Z</time>
  <course>117.3</course>
  <speed>4.44</speed>
  <fix>3d</fix>
</trkpt>
<trkpt lat="40.0716789" lon="-105.2295227">
  <ele>1582.92</ele>
  <time>2026-08-28T17:51:19Z</time>
  <course>118.52</course>
  <speed>4.070626487409524</speed>
  <fix>3d</fix>
</trkpt>
<trkpt lat="40.0716814" lon="-105.2295282">
  <ele>1583.0</ele>
  <time>2026-08-28T17:51:19Z</time>
  <course>117.3</course>
  <speed>4.22</speed>
  <fix>3d</fix>
</trkpt>
<trkpt lat="40.0716772" lon="-105.2295185">
  <ele>1582.92</ele>
  <time>2026-08-28T17:51:19Z</time>
  <course>118.52</course>
  <speed>3.945339022188081</speed>
  <fix>3d</fix>
</trkpt>
<trkpt lat="40.0716814" lon="-105.2295282">
  <ele>1583.0</ele>
  <time>2026-08-28T17:51:19Z</time>
  <course>117.3</course>
  <speed>4.22</speed>
  <fix>3d</fix>
</trkpt>
<trkpt lat="40.0716756" lon="-105.2295144">
  <ele>1582.92</ele>
  <time>2026-08-28T17:51:19Z</time>
  <course>118.52</course>
  <speed>3.820052355662158</speed>
  <fix>3d</fix>
</trkpt>
<trkpt lat="40.0716781" lon="-105.2295196">
  <ele>1583.0</ele>
  <time>2026-08-28T17:51:19Z</time>
  <course>117.3</course>
  <speed>3.98</speed>
  <fix>3d</fix>
</trkpt>
<trkpt lat="40.0716741" lon="-105.2295105">
  <ele>1582.92</ele>
  <time>2026-08-28T17:51:19Z</time>
  <course>118.53</course>
  <speed>3.6947665690811915</speed>
  <fix>3d</fix>
</trkpt>
<trkpt lat="40.0716781" lon="-105.2295196">
  <ele>1583.0</ele>
  <time>2026-08-28T17:51:19Z</time>
  <course>117.3</course>
  <speed>3.98</speed>
  <fix>3d</fix>
</trkpt>
<trkpt lat="40.0716726" lon="-105.2295067">
  <ele>1582.91</ele>
  <time>2026-08-28T17:51:19Z</time>
  <course>118.53</course>
  <speed>3.5694817551011524</speed>
  <fix>3d</fix>
</trkpt>
<trkpt lat="40.0716749" lon="-105.2295116">
  <ele>1583.0</ele>
  <time>2026-08-28T17:51:19Z</time>
  <course>117.3</course>
  <speed>3.74</speed>
  <fix>3d</fix>
</trkpt>
<trkpt lat="40.0716712" lon="-105.229503">
  <ele>1582.91</ele>
  <time>2026-08-28T17:51:19Z</time>
  <course>118.53</course>
  <speed>3.435345688573422</speed>
  <fix>3d</fix>
</trkpt>
<trkpt lat="40.0716749" lon="-105.2295116">
  <ele>1583.0</ele>
  <time>2026-08-28T17:51:19Z</time>
  <course>117.3</course>
  <speed>3.74</speed>
  <fix>3d</fix>
</trkpt>
<trkpt lat="40.0716698" lon="-105.2294994">
  <ele>1582.91</ele>
  <time>2026-08-28T17:51:19Z</time>
  <course>118.54</course>
  <speed>3.3100604224092347</speed>
  <fix>3d</fix>
</trkpt>
<trkpt lat="40.0716749" lon="-105.2295116">
  <ele>1583.0</ele>
  <time>2026-08-28T17:51:19Z</time>
  <course>117.3</course>
  <speed>3.74</speed>
  <fix>3d</fix>
</trkpt>
<trkpt lat="40.0716684" lon="-105.229496">
  <ele>1582.91</ele>
  <time>2026-08-28T17:51:19Z</time>
  <course>118.54</course>
  <speed>3.1847762872767063</speed>
  <fix>3d</fix>
</trkpt>
<trkpt lat="40.0716719" lon="-105.229504">
  <ele>1583.0</ele>
  <time>2026-08-28T17:51:19Z</time>
  <course>117.3</course>
  <speed>3.48</speed>
  <fix>3d</fix>
</trkpt>
<trkpt lat="40.0716672" lon="-105.2294928">
  <ele>1582.91</ele>
  <time>2026-08-28T17:51:19Z</time>
  <course>118.54</course>
  <speed>3.050639277266324</speed>
  <fix>3d</fix>
</trkpt>
<trkpt lat="40.0716719" lon="-105.229504">
  <ele>1583.0</ele>
  <time>2026-08-28T17:51:19Z</time>
  <course>117.3</course>
  <speed>3.48</speed>
  <fix>3d</fix>
</trkpt>
<trkpt lat="40.071666" lon="-105.2294897">
  <ele>1582.91</ele>
  <time>2026-08-28T17:51:19Z</time>
  <course>118.54</course>
  <speed>2.9253546793508645</speed>
  <fix>3d</fix>
</trkpt>
<trkpt lat="40.0716691" lon="-105.229497">
  <ele>1583.0</ele>
  <time>2026-08-28T17:51:19Z</time>
  <course>117.3</course>
  <speed>3.23</speed>
  <fix>3d</fix>
</trkpt>
<trkpt lat="40.0716648" lon="-105.2294867">
  <ele>1582.91</ele>
  <time>2026-08-28T17:51:19Z</time>
  <course>118.55</course>
  <speed>2.800071427660373</speed>
  <fix>3d</fix>
</trkpt>
<trkpt lat="40.0716691" lon="-105.229497">
  <ele>1583.0</ele>
  <time>2026-08-28T17:51:19Z</time>
  <course>117.3</course>
  <speed>3.23</speed>
  <fix>3d</fix>
</trkpt>
<trkpt lat="40.0716637" lon="-105.2294839">
  <ele>1582.91</ele>
  <time>2026-08-28T17:51:19Z</time>
  <course>118.55</course>
  <speed>2.688289418942834</speed>
  <fix>3d</fix>
</trkpt>
<trkpt lat="40.0716666" lon="-105.2294905">
  <ele>1583.0</ele>
  <time>2026-08-28T17:51:19Z</time>
  <course>117.3</course>
  <speed>2.98</speed>
  <fix>3d</fix>
</trkpt>
<trkpt lat="40.0716626" lon="-105.2294811">
  <ele>1582.91</ele>
  <time>2026-08-28T17:51:19Z</time>
  <course>118.55</course>
  <speed>2.5630060475933334</speed>
  <fix>3d</fix>
</trkpt>
<trkpt lat="40.0716666" lon="-105.2294905">
  <ele>1583.0</ele>
  <time>2026-08-28T17:51:19Z</time>
  <course>117.3</course>
  <speed>2.98</speed>
  <fix>3d</fix>
</trkpt>
<trkpt lat="40.0716616" lon="-105.2294785">
  <ele>1582.9</ele>
  <time>2026-08-28T17:51:19Z</time>
  <course>118.56</course>
  <speed>2.4512241839538054</speed>
  <fix>3d</fix>
</trkpt>
<trkpt lat="40.0716642" lon="-105.2294845">
  <ele>1583.0</ele>
  <time>2026-08-28T17:51:19Z</time>
  <course>117.3</course>
  <speed>2.74</speed>
  <fix>3d</fix>
</trkpt>
<trkpt lat="40.0716606" lon="-105.229476">
  <ele>1582.9</ele>
  <time>2026-08-28T17:51:19Z</time>
  <course>118.56</course>
  <speed>2.334801918793113</speed>
  <fix>3d</fix>
</trkpt>
<trkpt lat="40.071662" lon="-105.229479">
  <ele>1583.0</ele>
  <time>2026-08-28T17:51:19Z</time>
  <course>117.3</course>
  <speed>2.51</speed>
  <fix>3d</fix>
</trkpt>
<trkpt lat="40.0716597" lon="-105.2294736">
  <ele>1582.9</ele>
  <time>2026-08-28T17:51:19Z</time>
  <course>118.56</course>
  <speed>2.2230159693533467</speed>
  <fix>3d</fix>
</trkpt>
<trkpt lat="40.071662" lon="-105.229479">
  <ele>1583.0</ele>
  <time>2026-08-28T17:51:19Z</time>
  <course>117.3</course>
  <speed>2.51</speed>
  <fix>3d</fix>
</trkpt>
<trkpt lat="40.0716588" lon="-105.2294713">
  <ele>1582.91</ele>
  <time>2026-08-28T17:51:19Z</time>
  <course>118.58</course>
  <speed>2.1200943375236867</speed>
  <fix>3d</fix>
</trkpt>
<trkpt lat="40.07166" lon="-105.229474">
  <ele>1583.0</ele>
  <time>2026-08-28T17:51:19Z</time>
  <course>117.31</course>
  <speed>2.29</speed>
  <fix>3d</fix>
</trkpt>
<trkpt lat="40.0716579" lon="-105.2294691">
  <ele>1582.91</ele>
  <time>2026-08-28T17:51:19Z</time>
  <course>118.61</course>
  <speed>2.0129580224137813</speed>
  <fix>3d</fix>
</trkpt>
<trkpt lat="40.07166" lon="-105.229474">
  <ele>1583.0</ele>
  <time>2026-08-28T17:51:19Z</time>
  <course>117.31</course>
  <speed>2.29</speed>
  <fix>3d</fix>
</trkpt>
<trkpt lat="40.0716571" lon="-105.229467">
  <ele>1582.91</ele>
  <time>2026-08-28T17:51:19Z</time>
  <course>118.64</course>
  <speed>1.910026177831079</speed>
  <fix>3d</fix>
</trkpt>
<trkpt lat="40.0716582" lon="-105.2294694">
  <ele>1583.0</ele>
  <time>2026-08-28T17:51:19Z</time>
  <course>117.34</course>
  <speed>2.08</speed>
  <fix>3d</fix>
</trkpt>
<trkpt lat="40.0716563" lon="-105.2294651">
  <ele>1582.91</ele>
  <time>2026-08-28T17:51:19Z</time>
  <course>118.67</course>
  <speed>1.807097119692243</speed>
  <fix>3d</fix>
</trkpt>
<trkpt lat="40.0716582" lon="-105.2294694">
  <ele>1583.0</ele>
  <time>2026-08-28T17:51:19Z</time>
  <course>117.34</course>
  <speed>2.08</speed>
  <fix>3d</fix>
</trkpt>
<trkpt lat="40.0716556" lon="-105.2294632">
  <ele>1582.9</ele>
  <time>2026-08-28T17:51:19Z</time>
  <course>118.7</course>
  <speed>1.7088300090997932</speed>
  <fix>3d</fix>
</trkpt>
<trkpt lat="40.0716566" lon="-105.2294653">
  <ele>1583.0</ele>
  <time>2026-08-28T17:51:19Z</time>
  <course>117.39</course>
  <speed>1.88</speed>
  <fix>3d</fix>
</trkpt>
<trkpt lat="40.0716549" lon="-105.2294614">
  <ele>1582.9</ele>
  <time>2026-08-28T17:51:19Z</time>
  <course>118.73</course>
  <speed>1.6147445618425227</speed>
  <fix>3d</fix>
</trkpt>
<trkpt lat="40.0716566" lon="-105.2294653">
  <ele>1583.0</ele>
  <time>2026-08-28T17:51:19Z</time>
  <course>117.39</course>
  <speed>1.88</speed>
  <fix>3d</fix>
</trkpt>
<trkpt lat="40.0716542" lon="-105.2294597">
  <ele>1582.9</ele>
  <time>2026-08-28T17:51:19Z</time>
  <course>118.77</course>
  <speed>1.5164761785138596</speed>
  <fix>3d</fix>
</trkpt>
<trkpt lat="40.0716551" lon="-105.2294616">
  <ele>1583.0</ele>
  <time>2026-08-28T17:51:19Z</time>
  <course>117.46</course>
  <speed>1.68</speed>
  <fix>3d</fix>
</trkpt>
<trkpt lat="40.0716536" lon="-105.2294581">
  <ele>1582.9</ele>
  <time>2026-08-28T17:51:19Z</time>
  <course>118.82</course>
  <speed>1.4182383438618489</speed>
  <fix>3d</fix>
</trkpt>
<trkpt lat="40.0716551" lon="-105.2294616">
  <ele>1583.0</ele>
  <time>2026-08-28T17:51:19Z</time>
  <course>117.46</course>
  <speed>1.68</speed>
  <fix>3d</fix>
</trkpt>
<trkpt lat="40.071653" lon="-105.2294567">
  <ele>1582.9</ele>
  <time>2026-08-28T17:51:19Z</time>
  <course>118.87</course>
  <speed>1.328834075421006</speed>
  <fix>3d</fix>
</trkpt>
<trkpt lat="40.0716538" lon="-105.2294583">
  <ele>1583.0</ele>
  <time>2026-08-28T17:51:19Z</time>
  <course>117.54</course>
  <speed>1.49</speed>
  <fix>3d</fix>
</trkpt>
<trkpt lat="40.0716525" lon="-105.2294553">
  <ele>1582.91</ele>
  <time>2026-08-28T17:51:19Z</time>
  <course>118.93</course>
  <speed>1.2258874336577563</speed>
  <fix>3d</fix>
</trkpt>
<trkpt lat="40.0716538" lon="-105.2294583">
  <ele>1583.0</ele>
  <time>2026-08-28T17:51:19Z</time>
  <course>117.54</course>
  <speed>1.49</speed>
  <fix>3d</fix>
</trkpt>
<trkpt lat="40.071652" lon="-105.229454">
  <ele>1582.9</ele>
  <time>2026-08-28T17:51:19Z</time>
  <course>118.99</course>
  <speed>1.12769676775275</speed>
  <fix>3d</fix>
</trkpt>
<trkpt lat="40.0716538" lon="-105.2294583">
  <ele>1583.0</ele>
  <time>2026-08-28T17:51:19Z</time>
  <course>117.54</course>
  <speed>1.49</speed>
  <fix>3d</fix>
</trkpt>
<trkpt lat="40.0716515" lon="-105.2294529">
  <ele>1582.9</ele>
  <time>2026-08-28T17:51:19Z</time>
  <course>119.06</course>
  <speed>1.0383159442096612</speed>
  <fix>3d</fix>
</trkpt>
<trkpt lat="40.0716526" lon="-105.2294553">
  <ele>1583.0</ele>
  <time>2026-08-28T17:51:19Z</time>
  <course>117.64</course>
  <speed>1.3</speed>
  <fix>3d</fix>
</trkpt>
<trkpt lat="40.0716511" lon="-105.2294518">
  <ele>1582.9</ele>
  <time>2026-08-28T17:51:19Z</time>
  <course>119.14</course>
  <speed>0.9353608929178086</speed>
  <fix>3d</fix>
</trkpt>
<trkpt lat="40.0716526" lon="-105.2294553">
  <ele>1583.0</ele>
  <time>2026-08-28T17:51:19Z</time>
  <course>117.64</course>
  <speed>1.3</speed>
  <fix>3d</fix>
</trkpt>
<trkpt lat="40.0716507" lon="-105.2294508">
  <ele>1582.9</ele>
  <time>2026-08-28T17:51:19Z</time>
  <course>119.2</course>
  <speed>0.8459905436823747</speed>
  <fix>3d</fix>
</trkpt>
<trkpt lat="40.0716516" lon="-105.2294528">
  <ele>1583.0</ele>
  <time>2026-08-28T17:51:19Z</time>
  <course>117.76</course>
  <speed>1.11</speed>
  <fix>3d</fix>
</trkpt>
<trkpt lat="40.0716503" lon="-105.22945">
  <ele>1582.9</ele>
  <time>2026-08-28T17:51:19Z</time>
  <course>119.24</course>
  <speed>0.7566372975210779</speed>
  <fix>3d</fix>
</trkpt>
<trkpt lat="40.0716516" lon="-105.2294528">
  <ele>1583.0</ele>
  <time>2026-08-28T17:51:19Z</time>
  <course>117.76</course>
  <speed>1.11</speed>
  <fix>3d</fix>
</trkpt>
<trkpt lat="40.07165" lon="-105.2294492">
  <ele>1582.9</ele>
  <time>2026-08-28T17:51:19Z</time>
  <course>119.27</course>
  <speed>0.6673080248281148</speed>
  <fix>3d</fix>
</trkpt>
<trkpt lat="40.0716508" lon="-105.2294507">
  <ele>1583.0</ele>
  <time>2026-08-28T17:51:19Z</time>
  <course>117.89</course>
  <speed>0.92</speed>
  <fix>3d</fix>
</trkpt>
<trkpt lat="40.0716497" lon="-105.2294485">
  <ele>1582.89</ele>
  <time>2026-08-28T17:51:19Z</time>
  <course>119.29</course>
  <speed>0.578013840664737</speed>
  <fix>3d</fix>
</trkpt>
<trkpt lat="40.0716508" lon="-105.2294507">
  <ele>1583.0</ele>
  <time>2026-08-28T17:51:19Z</time>
  <course>117.89</course>
  <speed>0.92</speed>
  <fix>3d</fix>
</trkpt>
<trkpt lat="40.0716495" lon="-105.2294479">
  <ele>1582.89</ele>
  <time>2026-08-28T17:51:19Z</time>
  <course>119.29</course>
  <speed>0.4973932046178355</speed>
  <fix>3d</fix>
</trkpt>
<trkpt lat="40.0716501" lon="-105.229449">
  <ele>1583.0</ele>
  <time>2026-08-28T17:51:19Z</time>
  <course>117.96</course>
  <speed>0.74</speed>
  <fix>3d</fix>
</trkpt>
<trkpt lat="40.0716493" lon="-105.2294474">
  <ele>1582.89</ele>
  <time>2026-08-28T17:51:19Z</time>
  <course>119.29</course>
  <speed>0.4219004621945798</speed>
  <fix>3d</fix>
</trkpt>
<trkpt lat="40.0716495" lon="-105.2294477">
  <ele>1583.0</ele>
  <time>2026-08-28T17:51:19Z</time>
  <course>117.98</course>
  <speed>0.57</speed>
  <fix>3d</fix>
</trkpt>
<trkpt lat="40.0716491" lon="-105.229447">
  <ele>1582.89</ele>
  <time>2026-08-28T17:51:19Z</time>
  <course>119.28</course>
  <speed>0.35510561809129404</speed>
  <fix>3d</fix>
</trkpt>
<trkpt lat="40.0716495" lon="-105.2294477">
  <ele>1583.0</ele>
  <time>2026-08-28T17:51:19Z</time>
  <course>117.98</course>
  <speed>0.57</speed>
  <fix>3d</fix>
</trkpt>
<trkpt lat="40.0716489" lon="-105.2294466">
  <ele>1582.89</ele>
  <time>2026-08-28T17:51:19Z</time>
  <course>119.27</course>
  <speed>0.2968164415931166</speed>
  <fix>3d</fix>
</trkpt>
<trkpt lat="40.0716491" lon="-105.2294466">
  <ele>1583.0</ele>
  <time>2026-08-28T17:51:19Z</time>
  <course>117.96</course>
  <speed>0.43</speed>
  <fix>3d</fix>
</trkpt>
<trkpt lat="40.0716488" lon="-105.2294463">
  <ele>1582.89</ele>
  <time>2026-08-28T17:51:19Z</time>
  <course>119.26</course>
  <speed>0.23853720883753127</speed>
  <fix>3d</fix>
</trkpt>
<trkpt lat="40.0716491" lon="-105.2294466">
  <ele>1583.0</ele>
  <time>2026-08-28T17:51:19Z</time>
  <course>117.96</course>
  <speed>0.43</speed>
  <fix>3d</fix>
</trkpt>
<trkpt lat="40.0716487" lon="-105.229446">
  <ele>1582.89</ele>
  <time>2026-08-28T17:51:19Z</time>
  <course>119.24</course>
  <speed>0.194164878389476</speed>
  <fix>3d</fix>
</trkpt>
<trkpt lat="40.0716488" lon="-105.2294458">
  <ele>1583.0</ele>
  <time>2026-08-28T17:51:19Z</time>
  <course>117.93</course>
  <speed>0.31</speed>
  <fix>3d</fix>
</trkpt>
<trkpt lat="40.0716486" lon="-105.2294458">
  <ele>1582.89</ele>
  <time>2026-08-28T17:51:19Z</time>
  <course>119.22</course>
  <speed>0.15620499351813308</speed>
  <fix>3d</fix>
</trkpt>
<trkpt lat="40.0716488" lon="-105.2294458">
  <ele>1583.0</ele>
  <time>2026-08-28T17:51:19Z</time>
  <course>117.93</course>
  <speed>0.31</speed>
  <fix>3d</fix>
</trkpt>
<trkpt lat="40.0716485" lon="-105.2294456">
  <ele>1582.89</ele>
  <time>2026-08-28T17:51:19Z</time>
  <course>119.2</course>
  <speed>0.12041594578792296</speed>
  <fix>3d</fix>
</trkpt>
<trkpt lat="40.0716485" lon="-105.2294453">
  <ele>1583.0</ele>
  <time>2026-08-28T17:51:19Z</time>
  <course>117.89</course>
  <speed>0.22</speed>
  <fix>3d</fix>
</trkpt>
<trkpt lat="40.0716484" lon="-105.2294454">
  <ele>1582.89</ele>
  <time>2026-08-28T17:51:19Z</time>
  <course>119.18</course>
  <speed>0.09219544457292887</speed>
  <fix>3d</fix>
</trkpt>
<trkpt lat="40.0716485" lon="-105.2294453">
  <ele>1583.0</ele>
  <time>2026-08-28T17:51:19Z</time>
  <course>117.89</course>
  <speed>0.22</speed>
  <fix>3d</fix>
</trkpt>
<trkpt lat="40.0716484" lon="-105.2294453">
  <ele>1582.89</ele>
  <time>2026-08-28T17:51:19Z</time>
  <course>119.16</course>
  <speed>0.07211102550927978</speed>
  <fix>3d</fix>
</trkpt>
<trkpt lat="40.0716484" lon="-105.2294449">
  <ele>1583.0</ele>
  <time>2026-08-28T17:51:19Z</time>
  <course>117.85</course>
  <speed>0.16</speed>
  <fix>3d</fix>
</trkpt>
<trkpt lat="40.0716483" lon="-105.2294452">
  <ele>1582.9</ele>
  <time>2026-08-28T17:51:19Z</time>
  <course>119.14</course>
  <speed>0.0670820393249937</speed>
  <fix>3d</fix>
</trkpt>
<trkpt lat="40.0716484" lon="-105.2294449">
  <ele>1583.0</ele>
  <time>2026-08-28T17:51:19Z</time>
  <course>117.85</course>
  <speed>0.16</speed>
  <fix>3d</fix>
</trkpt>
<trkpt lat="40.0716482" lon="-105.2294451">
  <ele>1582.9</ele>
  <time>2026-08-28T17:51:19Z</time>
  <course>119.12</course>
  <speed>0.053851648071345036</speed>
  <fix>3d</fix>
</trkpt>
<trkpt lat="40.0716483" lon="-105.2294445">
  <ele>1583.0</ele>
  <time>2026-08-28T17:51:19Z</time>
  <course>117.8</course>
  <speed>0.12</speed>
  <fix>3d</fix>
</trkpt>
<trkpt lat="40.0716482" lon="-105.229445">
  <ele>1582.9</ele>
  <time>2026-08-28T17:51:19Z</time>
  <course>119.1</course>
  <speed>0.05099019513592785</speed>
  <fix>3d</fix>
</trkpt>
<trkpt lat="40.0716483" lon="-105.2294445">
  <ele>1583.0</ele>
  <time>2026-08-28T17:51:19Z</time>
  <course>117.8</course>
  <speed>0.12</speed>
  <fix>3d</fix>
</trkpt>
<trkpt lat="40.0716481" lon="-105.2294449">
  <ele>1582.9</ele>
  <time>2026-08-28T17:51:19Z</time>
  <course>119.08</course>
  <speed>0.05</speed>
  <fix>3d</fix>
</trkpt>
<trkpt lat="40.0716482" lon="-105.2294444">
  <ele>1583.0</ele>
  <time>2026-08-28T17:51:19Z</time>
  <course>117.76</course>
  <speed>0.09</speed>
  <fix>3d</fix>
</trkpt>
<trkpt lat="40.0716481" lon="-105.2294448">
  <ele>1582.9</ele>
  <time>2026-08-28T17:51:19Z</time>
  <course>119.06</course>
  <speed>0.05</speed>
  <fix>3d</fix>
</trkpt>
<trkpt lat="40.0716482" lon="-105.2294444">
  <ele>1583.0</ele>
  <time>2026-08-28T17:51:19Z</time>
  <course>117.76</course>
  <speed>0.09</speed>
  <fix>3d</fix>
</trkpt>
<trkpt lat="40.0716481" lon="-105.2294448">
  <ele>1582.9</ele>
  <time>2026-08-28T17:51:19Z</time>
  <course>119.04</course>
  <speed>0.05</speed>
  <fix>3d</fix>
</trkpt>
<trkpt lat="40.0716482" lon="-105.2294444">
  <ele>1583.0</ele>
  <time>2026-08-28T17:51:19Z</time>
  <course>117.76</course>
  <speed>0.09</speed>
  <fix>3d</fix>
</trkpt>
<trkpt lat="40.071648" lon="-105.2294447">
  <ele>1582.9</ele>
  <time>2026-08-28T17:51:19Z</time>
  <course>119.02</course>
  <speed>0.06</speed>
  <fix>3d</fix>
</trkpt>
<trkpt lat="40.0716481" lon="-105.2294441">
  <ele>1583.0</ele>
  <time>2026-08-28T17:51:19Z</time>
  <course>117.71</course>
  <speed>0.08</speed>
  <fix>3d</fix>
</trkpt>
<trkpt lat="40.071648" lon="-105.2294446">
  <ele>1582.9</ele>
  <time>2026-08-28T17:51:19Z</time>
  <course>119.0</course>
  <speed>0.06082762530298219</speed>
  <fix>3d</fix>
</trkpt>
<trkpt lat="40.0716481" lon="-105.2294441">
  <ele>1583.0</ele>
  <time>2026-08-28T17:51:19Z</time>
  <course>117.71</course>
  <speed>0.08</speed>
  <fix>3d</fix>
</trkpt>
<trkpt lat="40.0716479" lon="-105.2294445">
  <ele>1582.91</ele>
  <time>2026-08-28T17:51:19Z</time>
  <course>118.97</course>
  <speed>0.07071067811865475</speed>
  <fix>3d</fix>
</trkpt>
<trkpt lat="40.071648" lon="-105.229444">
  <ele>1583.0</ele>
  <time>2026-08-28T17:51:19Z</time>
  <course>117.67</course>
  <speed>0.08</speed>
  <fix>3d</fix>
</trkpt>
<trkpt lat="40.0716478" lon="-105.2294444">
  <ele>1582.91</ele>
  <time>2026-08-28T17:51:19Z</time>
  <course>118.94</course>
  <speed>0.07280109889280519</speed>
  <fix>3d</fix>
</trkpt>
<trkpt lat="40.071648" lon="-105.229444">
  <ele>1583.0</ele>
  <time>2026-08-28T17:51:19Z</time>
  <course>117.67</course>
  <speed>0.08</speed>
  <fix>3d</fix>
</trkpt>
<trkpt lat="40.0716478" lon="-105.2294443">
  <ele>1582.92</ele>
  <time>2026-08-28T17:51:19Z</time>
  <course>118.9</course>
  <speed>0.0824621125123532</speed>
  <fix>3d</fix>
</trkpt>
<trkpt lat="40.0716479" lon="-105.2294437">
  <ele>1583.0</ele>
  <time>2026-08-28T17:51:19Z</time>
  <course>117.61</course>
  <speed>0.09</speed>
  <fix>3d</fix>
</trkpt>
<trkpt lat="40.0716477" lon="-105.2294442">
  <ele>1582.92</ele>
  <time>2026-08-28T17:51:19Z</time>
  <course>118.86</course>
  <speed>0.0854400374531753</speed>
  <fix>3d</fix>
</trkpt>
<trkpt lat="40.0716478" lon="-105.2294436">
  <ele>1583.0</ele>
  <time>2026-08-28T17:51:19Z</time>
  <course>117.55</course>
  <speed>0.1</speed>
  <fix>3d</fix>
</trkpt>
<trkpt lat="40.0716476" lon="-105.229444">
  <ele>1582.92</ele>
  <time>2026-08-28T17:51:19Z</time>
  <course>118.82</course>
  <speed>0.09848857801796104</speed>
  <fix>3d</fix>
</trkpt>
<trkpt lat="40.0716478" lon="-105.2294436">
  <ele>1583.0</ele>
  <time>2026-08-28T17:51:19Z</time>
  <course>117.55</course>
  <speed>0.1</speed>
  <fix>3d</fix>
</trkpt>
<trkpt lat="40.0716476" lon="-105.2294439">
  <ele>1582.92</ele>
  <time>2026-08-28T17:51:19Z</time>
  <course>118.77</course>
  <speed>0.10295630140987001</speed>
  <fix>3d</fix>
</trkpt>
<trkpt lat="40.0716477" lon="-105.2294433">
  <ele>1583.0</ele>
  <time>2026-08-28T17:51:19Z</time>
  <course>117.47</course>
  <speed>0.12</speed>
  <fix>3d</fix>
</trkpt>
<trkpt lat="40.0716475" lon="-105.2294437">
  <ele>1582.92</ele>
  <time>2026-08-28T17:51:19Z</time>
  <course>118.72</course>
  <speed>0.1118033988749895</speed>
  <fix>3d</fix>
</trkpt>
<trkpt lat="40.0716477" lon="-105.2294433">
  <ele>1583.0</ele>
  <time>2026-08-28T17:51:19Z</time>
  <course>117.47</course>
  <speed>0.12</speed>
  <fix>3d</fix>
</trkpt>
<trkpt lat="40.0716474" lon="-105.2294436">
  <ele>1582.92</ele>
  <time>2026-08-28T17:51:19Z</time>
  <course>118.67</course>
  <speed>0.11661903789690602</speed>
  <fix>3d</fix>
</trkpt>
<trkpt lat="40.0716476" lon="-105.229443">
  <ele>1583.0</ele>
  <time>2026-08-28T17:51:19Z</time>
  <course>117.38</course>
  <speed>0.13</speed>
  <fix>3d</fix>
</trkpt>
<trkpt lat="40.0716473" lon="-105.2294434">
  <ele>1582.92</ele>
  <time>2026-08-28T17:51:19Z</time>
  <course>118.61</course>
  <speed>0.12529964086141668</speed>
  <fix>3d</fix>
</trkpt>
<trkpt lat="40.0716476" lon="-105.229443">
  <ele>1583.0</ele>
  <time>2026-08-28T17:51:19Z</time>
  <course>117.38</course>
  <speed>0.13</speed>
  <fix>3d</fix>
</trkpt>
<trkpt lat="40.0716473" lon="-105.2294433">
  <ele>1582.92</ele>
  <time>2026-08-28T17:51:19Z</time>
  <course>118.55</course>
  <speed>0.130384048104053</speed>
  <fix>3d</fix>
</trkpt>
<trkpt lat="40.0716475" lon="-105.2294427">
  <ele>1583.0</ele>
  <time>2026-08-28T17:51:19Z</time>
  <course>117.28</course>
  <speed>0.14</speed>
  <fix>3d</fix>
</trkpt>
<trkpt lat="40.0716472" lon="-105.2294431">
  <ele>1582.91</ele>
  <time>2026-08-28T17:51:19Z</time>
  <course>118.48</course>
  <speed>0.130384048104053</speed>
  <fix>3d</fix>
</trkpt>
<trkpt lat="40.0716475" lon="-105.2294427">
  <ele>1583.0</ele>
  <time>2026-08-28T17:51:19Z</time>
  <course>117.28</course>
  <speed>0.14</speed>
  <fix>3d</fix>
</trkpt>
<trkpt lat="40.0716471" lon="-105.2294429">
  <ele>1582.91</ele>
  <time>2026-08-28T17:51:19Z</time>
  <course>118.42</course>
  <speed>0.13601470508735444</speed>
  <fix>3d</fix>
</trkpt>
<trkpt lat="40.0716474" lon="-105.2294424">
  <ele>1583.0</ele>
  <time>2026-08-28T17:51:19Z</time>
  <course>117.17</course>
  <speed>0.15</speed>
  <fix>3d</fix>
</trkpt>
<trkpt lat="40.071647" lon="-105.2294428">
  <ele>1582.91</ele>
  <time>2026-08-28T17:51:19Z</time>
  <course>118.35</course>
  <speed>0.14422205101855956</speed>
  <fix>3d</fix>
</trkpt>
<trkpt lat="40.0716474" lon="-105.2294424">
  <ele>1583.0</ele>
  <time>2026-08-28T17:51:19Z</time>
  <course>117.17</course>
  <speed>0.15</speed>
  <fix>3d</fix>
</trkpt>
<trkpt lat="40.0716469" lon="-105.2294426">
  <ele>1582.91</ele>
  <time>2026-08-28T17:51:19Z</time>
  <course>118.29</course>
  <speed>0.14422205101855956</speed>
  <fix>3d</fix>
</trkpt>
<trkpt lat="40.0716473" lon="-105.2294421">
  <ele>1583.0</ele>
  <time>2026-08-28T17:51:19Z</time>
  <course>117.06</course>
  <speed>0.15</speed>
  <fix>3d</fix>
</trkpt>
<trkpt lat="40.0716469" lon="-105.2294424">
  <ele>1582.9</ele>
  <time>2026-08-28T17:51:19Z</time>
  <course>118.22</course>
  <speed>0.14422205101855956</speed>
  <fix>3d</fix>
</trkpt>
<trkpt lat="40.0716473" lon="-105.2294421">
  <ele>1583.0</ele>
  <time>2026-08-28T17:51:19Z</time>
  <course>117.06</course>
  <speed>0.15</speed>
  <fix>3d</fix>
</trkpt>
<trkpt lat="40.0716468" lon="-105.2294422">
  <ele>1582.9</ele>
  <time>2026-08-28T17:51:19Z</time>
  <course>118.16</course>
  <speed>0.14422205101855956</speed>
  <fix>3d</fix>
</trkpt>
<trkpt lat="40.0716472" lon="-105.2294418">
  <ele>1583.0</ele>
  <time>2026-08-28T17:51:19Z</time>
  <course>116.94</course>
  <speed>0.15</speed>
  <fix>3d</fix>
</trkpt>
<trkpt lat="40.0716467" lon="-105.2294421">
  <ele>1582.9</ele>
  <time>2026-08-28T17:51:19Z</time>
  <course>118.09</course>
  <speed>0.13601470508735444</speed>
  <fix>3d</fix>
</trkpt>
<trkpt lat="40.0716472" lon="-105.2294418">
  <ele>1583.0</ele>
  <time>2026-08-28T17:51:19Z</time>
  <course>116.94</course>
  <speed>0.15</speed>
  <fix>3d</fix>
</trkpt>
<trkpt lat="40.0716467" lon="-105.2294419">
  <ele>1582.9</ele>
  <time>2026-08-28T17:51:19Z</time>
  <course>118.03</course>
  <speed>0.13601470508735444</speed>
  <fix>3d</fix>
</trkpt>
<trkpt lat="40.0716472" lon="-105.2294418">
  <ele>1583.0</ele>
  <time>2026-08-28T17:51:19Z</time>
  <course>116.94</course>
  <speed>0.15</speed>
  <fix>3d</fix>
</trkpt>
<trkpt lat="40.0716466" lon="-105.2294417">
  <ele>1582.9</ele>
  <time>2026-08-28T17:51:19Z</time>
  <course>117.96</course>
  <speed>0.13601470508735444</speed>
  <fix>3d</fix>
</trkpt>
<trkpt lat="40.071647" lon="-105.2294415">
  <ele>1583.0</ele>
  <time>2026-08-28T17:51:19Z</time>
  <course>116.82</course>
  <speed>0.14</speed>
  <fix>3d</fix>
</trkpt>
<trkpt lat="40.0716465" lon="-105.2294416">
  <ele>1582.91</ele>
  <time>2026-08-28T17:51:19Z</time>
  <course>117.9</course>
  <speed>0.130384048104053</speed>
  <fix>3d</fix>
</trkpt>
<trkpt lat="40.071647" lon="-105.2294415">
  <ele>1583.0</ele>
  <time>2026-08-28T17:51:19Z</time>
  <course>116.82</course>
  <speed>0.14</speed>
  <fix>3d</fix>
</trkpt>
<trkpt lat="40.0716465" lon="-105.2294414">
  <ele>1582.91</ele>
  <time>2026-08-28T17:51:19Z</time>
  <course>117.84</course>
  <speed>0.130384048104053</speed>
  <fix>3d</fix>
</trkpt>
<trkpt lat="40.0716469" lon="-105.2294412">
  <ele>1583.0</ele>
  <time>2026-08-28T17:51:19Z</time>
  <course>116.71</course>
  <speed>0.14</speed>
  <fix>3d</fix>
</trkpt>
<trkpt lat="40.0716464" lon="-105.2294413">
  <ele>1582.91</ele>
  <time>2026-08-28T17:51:19Z</time>
  <course>117.79</course>
  <speed>0.11661903789690602</speed>
  <fix>3d</fix>
</trkpt>
<trkpt lat="40.0716469" lon="-105.2294412">
  <ele>1583.0</ele>
  <time>2026-08-28T17:51:19Z</time>
  <course>116.71</course>
  <speed>0.14</speed>
  <fix>3d</fix>
</trkpt>
<trkpt lat="40.0716464" lon="-105.2294412">
  <ele>1582.92</ele>
  <time>2026-08-28T17:51:19Z</time>
  <course>117.74</course>
  <speed>0.10295630140987001</speed>
  <fix>3d</fix>
</trkpt>
<trkpt lat="40.0716468" lon="-105.2294409">
  <ele>1583.0</ele>
  <time>2026-08-28T17:51:19Z</time>
  <course>116.61</course>
  <speed>0.12</speed>
  <fix>3d</fix>
</trkpt>
<trkpt lat="40.0716463" lon="-105.2294411">
  <ele>1582.92</ele>
  <time>2026-08-28T17:51:19Z</time>
  <course>117.7</course>
  <speed>0.09486832980505139</speed>
  <fix>3d</fix>
</trkpt>
<trkpt lat="40.0716468" lon="-105.2294409">
  <ele>1583.0</ele>
  <time>2026-08-28T17:51:19Z</time>
  <course>116.61</course>
  <speed>0.12</speed>
  <fix>3d</fix>
</trkpt>
<trkpt lat="40.0716463" lon="-105.229441">
  <ele>1582.92</ele>
  <time>2026-08-28T17:51:19Z</time>
  <course>117.66</course>
  <speed>0.0854400374531753</speed>
  <fix>3d</fix>
</trkpt>
<trkpt lat="40.0716467" lon="-105.2294407">
  <ele>1583.0</ele>
  <time>2026-08-28T17:51:19Z</time>
  <course>116.52</course>
  <speed>0.1</speed>
  <fix>3d</fix>
</trkpt>
<trkpt lat="40.0716463" lon="-105.2294409">
  <ele>1582.92</ele>
  <time>2026-08-28T17:51:19Z</time>
  <course>117.64</course>
  <speed>0.0824621125123532</speed>
  <fix>3d</fix>
</trkpt>
<trkpt lat="40.0716466" lon="-105.2294405">
  <ele>1583.0</ele>
  <time>2026-08-28T17:51:19Z</time>
  <course>116.46</course>
  <speed>0.08</speed>
  <fix>3d</fix>
</trkpt>
<trkpt lat="40.0716462" lon="-105.2294408">
  <ele>1582.92</ele>
  <time>2026-08-28T17:51:19Z</time>
  <course>117.61</course>
  <speed>0.0824621125123532</speed>
  <fix>3d</fix>
</trkpt>
<trkpt lat="40.0716466" lon="-105.2294405">
  <ele>1583.0</ele>
  <time>2026-08-28T17:51:19Z</time>
  <course>116.46</course>
  <speed>0.08</speed>
  <fix>3d</fix>
</trkpt>
<trkpt lat="40.0716462" lon="-105.2294407">
  <ele>1582.92</ele>
  <time>2026-08-28T17:51:19Z</time>
  <course>117.59</course>
  <speed>0.0824621125123532</speed>
  <fix>3d</fix>
</trkpt>
<trkpt lat="40.0716466" lon="-105.2294402">
  <ele>1583.0</ele>
  <time>2026-08-28T17:51:19Z</time>
  <course>116.42</course>
  <speed>0.07</speed>
  <fix>3d</fix>
</trkpt>
<trkpt lat="40.0716462" lon="-105.2294406">
  <ele>1582.92</ele>
  <time>2026-08-28T17:51:19Z</time>
  <course>117.57</course>
  <speed>0.0854400374531753</speed>
  <fix>3d</fix>
</trkpt>
<trkpt lat="40.0716466" lon="-105.2294402">
  <ele>1583.0</ele>
  <time>2026-08-28T17:51:19Z</time>
  <course>116.42</course>
  <speed>0.07</speed>
  <fix>3d</fix>
</trkpt>
<trkpt lat="40.0716461" lon="-105.2294405">
  <ele>1582.92</ele>
  <time>2026-08-28T17:51:19Z</time>
  <course>117.56</course>
  <speed>0.08944271909999159</speed>
  <fix>3d</fix>
</trkpt>
<trkpt lat="40.0716465" lon="-105.2294401">
  <ele>1583.0</ele>
  <time>2026-08-28T17:51:19Z</time>
  <course>116.4</course>
  <speed>0.08</speed>
  <fix>3d</fix>
</trkpt>
<trkpt lat="40.0716461" lon="-105.2294404">
  <ele>1582.92</ele>
  <time>2026-08-28T17:51:19Z</time>
  <course>117.54</course>
  <speed>0.10295630140987001</speed>
  <fix>3d</fix>
</trkpt>
<trkpt lat="40.0716465" lon="-105.2294401">
  <ele>1583.0</ele>
  <time>2026-08-28T17:51:19Z</time>
  <course>116.4</course>
  <speed>0.08</speed>
  <fix>3d</fix>
</trkpt>
<trkpt lat="40.0716461" lon="-105.2294403">
  <ele>1582.92</ele>
  <time>2026-08-28T17:51:19Z</time>
  <course>117.53</course>
  <speed>0.12206555615733702</speed>
  <fix>3d</fix>
</trkpt>
<trkpt lat="40.0716464" lon="-105.2294399">
  <ele>1583.0</ele>
  <time>2026-08-28T17:51:19Z</time>
  <course>116.38</course>
  <speed>0.1</speed>
  <fix>3d</fix>
</trkpt>
<trkpt lat="40.071646" lon="-105.2294401">
  <ele>1582.92</ele>
  <time>2026-08-28T17:51:19Z</time>
  <course>117.52</course>
  <speed>0.14212670403551894</speed>
  <fix>3d</fix>
</trkpt>
<trkpt lat="40.0716464" lon="-105.2294399">
  <ele>1583.0</ele>
  <time>2026-08-28T17:51:19Z</time>
  <course>116.38</course>
  <speed>0.1</speed>
  <fix>3d</fix>
</trkpt>
<trkpt lat="40.0716459" lon="-105.2294399">
  <ele>1582.91</ele>
  <time>2026-08-28T17:51:19Z</time>
  <course>117.52</course>
  <speed>0.16278820596099705</speed>
  <fix>3d</fix>
</trkpt>
<trkpt lat="40.0716463" lon="-105.2294397">
  <ele>1583.0</ele>
  <time>2026-08-28T17:51:19Z</time>
  <course>116.38</course>
  <speed>0.14</speed>
  <fix>3d</fix>
</trkpt>
<trkpt lat="40.0716459" lon="-105.2294397">
  <ele>1582.91</ele>
  <time>2026-08-28T17:51:19Z</time>
  <course>117.51</course>
  <speed>0.191049731745428</speed>
  <fix>3d</fix>
</trkpt>
<trkpt lat="40.0716463" lon="-105.2294397">
  <ele>1583.0</ele>
  <time>2026-08-28T17:51:19Z</time>
  <course>116.38</course>
  <speed>0.14</speed>
  <fix>3d</fix>
</trkpt>
<trkpt lat="40.0716458" lon="-105.2294395">
  <ele>1582.91</ele>
  <time>2026-08-28T17:51:19Z</time>
  <course>117.52</course>
  <speed>0.212602916254693</speed>
  <fix>3d</fix>
</trkpt>
<trkpt lat="40.0716462" lon="-105.2294393">
  <ele>1583.0</ele>
  <time>2026-08-28T17:51:19Z</time>
  <course>116.39</course>
  <speed>0.19</speed>
  <fix>3d</fix>
</trkpt>
<trkpt lat="40.0716457" lon="-105.2294392">
  <ele>1582.91</ele>
  <time>2026-08-28T17:51:19Z</time>
  <course>117.53</course>
  <speed>0.24839484696748443</speed>
  <fix>3d</fix>
</trkpt>
<trkpt lat="40.0716462" lon="-105.2294393">
  <ele>1583.0</ele>
  <time>2026-08-28T17:51:19Z</time>
  <course>116.39</course>
  <speed>0.19</speed>
  <fix>3d</fix>
</trkpt>
<trkpt lat="40.0716456" lon="-105.2294389">
  <ele>1582.91</ele>
  <time>2026-08-28T17:51:19Z</time>
  <course>117.55</course>
  <speed>0.2780287754891569</speed>
  <fix>3d</fix>
</trkpt>
<trkpt lat="40.071646" lon="-105.2294388">
  <ele>1583.0</ele>
  <time>2026-08-28T17:51:19Z</time>
  <course>116.43</course>
  <speed>0.25</speed>
  <fix>3d</fix>
</trkpt>
<trkpt lat="40.0716455" lon="-105.2294386">
  <ele>1582.91</ele>
  <time>2026-08-28T17:51:19Z</time>
  <course>117.58</course>
  <speed>0.3080584360149873</speed>
  <fix>3d</fix>
</trkpt>
<trkpt lat="40.071646" lon="-105.2294388">
  <ele>1583.0</ele>
  <time>2026-08-28T17:51:19Z</time>
  <course>116.43</course>
  <speed>0.25</speed>
  <fix>3d</fix>
</trkpt>
<trkpt lat="40.0716453" lon="-105.2294382">
  <ele>1582.91</ele>
  <time>2026-08-28T17:51:19Z</time>
  <course>117.62</course>
  <speed>0.33600595232822883</speed>
  <fix>3d</fix>
</trkpt>
<trkpt lat="40.071646" lon="-105.2294388">
  <ele>1583.0</ele>
  <time>2026-08-28T17:51:19Z</time>
  <course>116.43</course>
  <speed>0.25</speed>
  <fix>3d</fix>
</trkpt>
<trkpt lat="40.0716452" lon="-105.2294379">
  <ele>1582.91</ele>
  <time>2026-08-28T17:51:19Z</time>
  <course>117.68</course>
  <speed>0.3661966684720111</speed>
  <fix>3d</fix>
</trkpt>
<trkpt lat="40.0716458" lon="-105.2294383">
  <ele>1583.0</ele>
  <time>2026-08-28T17:51:19Z</time>
  <course>116.5</course>
  <speed>0.31</speed>
  <fix>3d</fix>
</trkpt>
<trkpt lat="40.071645" lon="-105.2294374">
  <ele>1582.91</ele>
  <time>2026-08-28T17:51:19Z</time>
  <course>117.75</course>
  <speed>0.4022437072223753</speed>
  <fix>3d</fix>
</trkpt>
<trkpt lat="40.0716458" lon="-105.2294383">
  <ele>1583.0</ele>
  <time>2026-08-28T17:51:19Z</time>
  <course>116.5</course>
  <speed>0.31</speed>
  <fix>3d</fix>
</trkpt>
<trkpt lat="40.0716448" lon="-105.229437">
  <ele>1582.91</ele>
  <time>2026-08-28T17:51:19Z</time>
  <course>117.84</course>
  <speed>0.43266615305567874</speed>
  <fix>3d</fix>
</trkpt>
<trkpt lat="40.0716455" lon="-105.2294376">
  <ele>1583.0</ele>
  <time>2026-08-28T17:51:19Z</time>
  <course>116.61</course>
  <speed>0.37</speed>
  <fix>3d</fix>
</trkpt>
<trkpt lat="40.0716446" lon="-105.2294365">
  <ele>1582.91</ele>
  <time>2026-08-28T17:51:19Z</time>
  <course>117.94</course>
  <speed>0.45486261662176636</speed>
  <fix>3d</fix>
</trkpt>
<trkpt lat="40.0716455" lon="-105.2294376">
  <ele>1583.0</ele>
  <time>2026-08-28T17:51:19Z</time>
  <course>116.61</course>
  <speed>0.37</speed>
  <fix>3d</fix>
</trkpt>
<trkpt lat="40.0716445" lon="-105.229436">
  <ele>1582.91</ele>
  <time>2026-08-28T17:51:19Z</time>
  <course>118.07</course>
  <speed>0.4854894437575342</speed>
  <fix>3d</fix>
</trkpt>
<trkpt lat="40.0716452" lon="-105.2294367">
  <ele>1583.0</ele>
  <time>2026-08-28T17:51:19Z</time>
  <course>116.79</course>
  <speed>0.43</speed>
  <fix>3d</fix>
</trkpt>
<trkpt lat="40.0716442" lon="-105.2294355">
  <ele>1582.92</ele>
  <time>2026-08-28T17:51:19Z</time>
  <course>118.22</course>
  <speed>0.5131276644267</speed>
  <fix>3d</fix>
</trkpt>
<trkpt lat="40.0716448" lon="-105.2294357">
  <ele>1583.0</ele>
  <time>2026-08-28T17:51:19Z</time>
  <course>117.04</course>
  <speed>0.49</speed>
  <fix>3d</fix>
</trkpt>
<trkpt lat="40.071644" lon="-105.2294349">
  <ele>1582.92</ele>
  <time>2026-08-28T17:51:19Z</time>
  <course>118.4</course>
  <speed>0.5353503525729669</speed>
  <fix>3d</fix>
</trkpt>
<trkpt lat="40.0716448" lon="-105.2294357">
  <ele>1583.0</ele>
  <time>2026-08-28T17:51:19Z</time>
  <course>117.04</course>
  <speed>0.49</speed>
  <fix>3d</fix>
</trkpt>
<trkpt lat="40.0716438" lon="-105.2294343">
  <ele>1582.92</ele>
  <time>2026-08-28T17:51:19Z</time>
  <course>118.61</course>
  <speed>0.5575840743780259</speed>
  <fix>3d</fix>
</trkpt>
<trkpt lat="40.0716444" lon="-105.2294346">
  <ele>1583.0</ele>
  <time>2026-08-28T17:51:19Z</time>
  <course>117.38</course>
  <speed>0.54</speed>
  <fix>3d</fix>
</trkpt>
<trkpt lat="40.0716436" lon="-105.2294337">
  <ele>1582.92</ele>
  <time>2026-08-28T17:51:19Z</time>
  <course>118.85</course>
  <speed>0.5852349955359812</speed>
  <fix>3d</fix>
</trkpt>
<trkpt lat="40.0716444" lon="-105.2294346">
  <ele>1583.0</ele>
  <time>2026-08-28T17:51:19Z</time>
  <course>117.38</course>
  <speed>0.54</speed>
  <fix>3d</fix>
</trkpt>
<trkpt lat="40.0716433" lon="-105.229433">
  <ele>1582.92</ele>
  <time>2026-08-28T17:51:19Z</time>
  <course>119.14</course>
  <speed>0.6074537019394977</speed>
  <fix>3d</fix>
</trkpt>
<trkpt lat="40.0716439" lon="-105.2294335">
  <ele>1583.0</ele>
  <time>2026-08-28T17:51:19Z</time>
  <course>117.86</course>
  <speed>0.59</speed>
  <fix>3d</fix>
</trkpt>
<trkpt lat="40.071643" lon="-105.2294324">
  <ele>1582.92</ele>
  <time>2026-08-28T17:51:19Z</time>
  <course>119.47</course>
  <speed>0.6296824596572467</speed>
  <fix>3d</fix>
</trkpt>
<trkpt lat="40.0716439" lon="-105.2294335">
  <ele>1583.0</ele>
  <time>2026-08-28T17:51:19Z</time>
  <course>117.86</course>
  <speed>0.59</speed>
  <fix>3d</fix>
</trkpt>
<trkpt lat="40.0716428" lon="-105.2294317">
  <ele>1582.92</ele>
  <time>2026-08-28T17:51:19Z</time>
  <course>119.86</course>
  <speed>0.6435060217278468</speed>
  <fix>3d</fix>
</trkpt>
<trkpt lat="40.0716434" lon="-105.2294322">
  <ele>1583.0</ele>
  <time>2026-08-28T17:51:19Z</time>
  <course>118.5</course>
  <speed>0.63</speed>
  <fix>3d</fix>
</trkpt>
<trkpt lat="40.0716425" lon="-105.229431">
  <ele>1582.92</ele>
  <time>2026-08-28T17:51:19Z</time>
  <course>120.31</course>
  <speed>0.6711929677819934</speed>
  <fix>3d</fix>
</trkpt>
<trkpt lat="40.0716434" lon="-105.2294322">
  <ele>1583.0</ele>
  <time>2026-08-28T17:51:19Z</time>
  <course>118.5</course>
  <speed>0.63</speed>
  <fix>3d</fix>
</trkpt>
<trkpt lat="40.0716422" lon="-105.2294303">
  <ele>1582.92</ele>
  <time>2026-08-28T17:51:19Z</time>
  <course>120.83</course>
  <speed>0.685054742338158</speed>
  <fix>3d</fix>
</trkpt>
<trkpt lat="40.0716429" lon="-105.2294309">
  <ele>1583.0</ele>
  <time>2026-08-28T17:51:19Z</time>
  <course>119.36</course>
  <speed>0.67</speed>
  <fix>3d</fix>
</trkpt>
<trkpt lat="40.0716418" lon="-105.2294296">
  <ele>1582.92</ele>
  <time>2026-08-28T17:51:19Z</time>
  <course>121.43</course>
  <speed>0.7128113354878693</speed>
  <fix>3d</fix>
</trkpt>
<trkpt lat="40.0716429" lon="-105.2294309">
  <ele>1583.0</ele>
  <time>2026-08-28T17:51:19Z</time>
  <course>119.36</course>
  <speed>0.67</speed>
  <fix>3d</fix>
</trkpt>
<trkpt lat="40.0716415" lon="-105.2294288">
  <ele>1582.92</ele>
  <time>2026-08-28T17:51:19Z</time>
  <course>122.12</course>
  <speed>0.7267048919609665</speed>
  <fix>3d</fix>
</trkpt>
<trkpt lat="40.0716422" lon="-105.2294294">
  <ele>1583.0</ele>
  <time>2026-08-28T17:51:19Z</time>
  <course>120.5</course>
  <speed>0.71</speed>
  <fix>3d</fix>
</trkpt>
<trkpt lat="40.0716412" lon="-105.2294281">
  <ele>1582.92</ele>
  <time>2026-08-28T17:51:19Z</time>
  <course>122.92</course>
  <speed>0.7463243262818117</speed>
  <fix>3d</fix>
</trkpt>
<trkpt lat="40.0716422" lon="-105.2294294">
  <ele>1583.0</ele>
  <time>2026-08-28T17:51:19Z</time>
  <course>120.5</course>
  <speed>0.71</speed>
  <fix>3d</fix>
</trkpt>
<trkpt lat="40.0716408" lon="-105.2294273">
  <ele>1582.92</ele>
  <time>2026-08-28T17:51:19Z</time>
  <course>123.86</course>
  <speed>0.758023746329889</speed>
  <fix>3d</fix>
</trkpt>
<trkpt lat="40.0716415" lon="-105.229428">
  <ele>1583.0</ele>
  <time>2026-08-28T17:51:19Z</time>
  <course>122.03</course>
  <speed>0.74</speed>
  <fix>3d</fix>
</trkpt>
<trkpt lat="40.0716404" lon="-105.2294265">
  <ele>1582.92</ele>
  <time>2026-08-28T17:51:19Z</time>
  <course>124.94</course>
  <speed>0.7780102827083971</speed>
  <fix>3d</fix>
</trkpt>
<trkpt lat="40.0716415" lon="-105.229428">
  <ele>1583.0</ele>
  <time>2026-08-28T17:51:19Z</time>
  <course>122.03</course>
  <speed>0.74</speed>
  <fix>3d</fix>
</trkpt>
<trkpt lat="40.07164" lon="-105.2294258">
  <ele>1582.92</ele>
  <time>2026-08-28T17:51:19Z</time>
  <course>126.19</course>
  <speed>0.7902531240052139</speed>
  <fix>3d</fix>
</trkpt>
<trkpt lat="40.0716415" lon="-105.229428">
  <ele>1583.0</ele>
  <time>2026-08-28T17:51:19Z</time>
  <course>122.03</course>
  <speed>0.74</speed>
  <fix>3d</fix>
</trkpt>
<trkpt lat="40.0716396" lon="-105.229425">
  <ele>1582.92</ele>
  <time>2026-08-28T17:51:19Z</time>
  <course>127.65</course>
  <speed>0.802807573457052</speed>
  <fix>3d</fix>
</trkpt>
<trkpt lat="40.0716408" lon="-105.2294264">
  <ele>1583.0</ele>
  <time>2026-08-28T17:51:19Z</time>
  <course>124.09</course>
  <speed>0.77</speed>
  <fix>3d</fix>
</trkpt>
<trkpt lat="40.0716391" lon="-105.2294242">
  <ele>1582.92</ele>
  <time>2026-08-28T17:51:19Z</time>
  <course>129.34</course>
  <speed>0.8221921916437787</speed>
  <fix>3d</fix>
</trkpt>
<trkpt lat="40.0716408" lon="-105.2294264">
  <ele>1583.0</ele>
  <time>2026-08-28T17:51:19Z</time>
  <course>124.09</course>
  <speed>0.77</speed>
  <fix>3d</fix>
</trkpt>
<trkpt lat="40.0716387" lon="-105.2294235">
  <ele>1582.93</ele>
  <time>2026-08-28T17:51:19Z</time>
  <course>131.3</course>
  <speed>0.8348652585896721</speed>
  <fix>3d</fix>
</trkpt>
<trkpt lat="40.07164" lon="-105.2294249">
  <ele>1583.0</ele>
  <time>2026-08-28T17:51:19Z</time>
  <course>126.85</course>
  <speed>0.8</speed>
  <fix>3d</fix>
</trkpt>
<trkpt lat="40.0716382" lon="-105.2294227">
  <ele>1582.93</ele>
  <time>2026-08-28T17:51:19Z</time>
  <course>133.6</course>
  <speed>0.8556284240252892</speed>
  <fix>3d</fix>
</trkpt>
<trkpt lat="40.07164" lon="-105.2294249">
  <ele>1583.0</ele>
  <time>2026-08-28T17:51:19Z</time>
  <course>126.85</course>
  <speed>0.8</speed>
  <fix>3d</fix>
</trkpt>
<trkpt lat="40.0716377" lon="-105.229422">
  <ele>1582.93</ele>
  <time>2026-08-28T17:51:19Z</time>
  <course>136.27</course>
  <speed>0.8637129152675673</speed>
  <fix>3d</fix>
</trkpt>
<trkpt lat="40.0716391" lon="-105.2294234">
  <ele>1583.0</ele>
  <time>2026-08-28T17:51:19Z</time>
  <course>130.58</course>
  <speed>0.83</speed>
  <fix>3d</fix>
</trkpt>
<trkpt lat="40.0716371" lon="-105.2294213">
  <ele>1582.94</ele>
  <time>2026-08-28T17:51:19Z</time>
  <course>139.38</course>
  <speed>0.8809086218218095</speed>
  <fix>3d</fix>
</trkpt>
<trkpt lat="40.0716391" lon="-105.2294234">
  <ele>1583.0</ele>
  <time>2026-08-28T17:51:19Z</time>
  <course>130.58</course>
  <speed>0.83</speed>
  <fix>3d</fix>
</trkpt>
<trkpt lat="40.0716365" lon="-105.2294206">
  <ele>1582.94</ele>
  <time>2026-08-28T17:51:19Z</time>
  <course>143.02</course>
  <speed>0.8962700485902673</speed>
  <fix>3d</fix>
</trkpt>
<trkpt lat="40.071638" lon="-105.229422">
  <ele>1583.0</ele>
  <time>2026-08-28T17:51:19Z</time>
  <course>135.62</course>
  <speed>0.86</speed>
  <fix>3d</fix>
</trkpt>
<trkpt lat="40.0716358" lon="-105.22942">
  <ele>1582.94</ele>
  <time>2026-08-28T17:51:19Z</time>
  <course>147.2</course>
  <speed>0.9158602513484249</speed>
  <fix>3d</fix>
</trkpt>
<trkpt lat="40.0716368" lon="-105.2294206">
  <ele>1583.0</ele>
  <time>2026-08-28T17:51:19Z</time>
  <course>142.44</course>
  <speed>0.89</speed>
  <fix>3d</fix>
</trkpt>
<trkpt lat="40.0716351" lon="-105.2294195">
  <ele>1582.94</ele>
  <time>2026-08-28T17:51:19Z</time>
  <course>152.01</course>
  <speed>0.9302150289046076</speed>
  <fix>3d</fix>
</trkpt>
<trkpt lat="40.0716368" lon="-105.2294206">
  <ele>1583.0</ele>
  <time>2026-08-28T17:51:19Z</time>
  <course>142.44</course>
  <speed>0.89</speed>
  <fix>3d</fix>
</trkpt>
<trkpt lat="40.0716344" lon="-105.229419">
  <ele>1582.94</ele>
  <time>2026-08-28T17:51:19Z</time>
  <course>157.47</course>
  <speed>0.9433981132056605</speed>
  <fix>3d</fix>
</trkpt>
<trkpt lat="40.0716355" lon="-105.2294194">
  <ele>1583.0</ele>
  <time>2026-08-28T17:51:19Z</time>
  <course>151.53</course>
  <speed>0.92</speed>
  <fix>3d</fix>
</trkpt>
<trkpt lat="40.0716336" lon="-105.2294186">
  <ele>1582.94</ele>
  <time>2026-08-28T17:51:19Z</time>
  <course>163.5</course>
  <speed>0.9656603957913983</speed>
  <fix>3d</fix>
</trkpt>
<trkpt lat="40.0716355" lon="-105.2294194">
  <ele>1583.0</ele>
  <time>2026-08-28T17:51:19Z</time>
  <course>151.53</course>
  <speed>0.92</speed>
  <fix>3d</fix>
</trkpt>
<trkpt lat="40.0716327" lon="-105.2294184">
  <ele>1582.94</ele>
  <time>2026-08-28T17:51:19Z</time>
  <course>169.65</course>
  <speed>0.9732420048477151</speed>
  <fix>3d</fix>
</trkpt>
<trkpt lat="40.0716339" lon="-105.2294186">
  <ele>1583.0</ele>
  <time>2026-08-28T17:51:19Z</time>
  <course>162.8</course>
  <speed>0.95</speed>
  <fix>3d</fix>
</trkpt>
<trkpt lat="40.0716319" lon="-105.2294182">
  <ele>1582.94</ele>
  <time>2026-08-28T17:51:19Z</time>
  <course>175.9</course>
  <speed>0.9912618221237011</speed>
  <fix>3d</fix>
</trkpt>
<trkpt lat="40.0716339" lon="-105.2294186">
  <ele>1583.0</ele>
  <time>2026-08-28T17:51:19Z</time>
  <course>162.8</course>
  <speed>0.95</speed>
  <fix>3d</fix>
</trkpt>
<trkpt lat="40.071631" lon="-105.2294182">
  <ele>1582.93</ele>
  <time>2026-08-28T17:51:19Z</time>
  <course>182.3</course>
  <speed>1.011236866416568</speed>
  <fix>3d</fix>
</trkpt>
<trkpt lat="40.0716321" lon="-105.2294182">
  <ele>1583.0</ele>
  <time>2026-08-28T17:51:19Z</time>
  <course>175.19</course>
  <speed>0.98</speed>
  <fix>3d</fix>
</trkpt>
<trkpt lat="40.0716301" lon="-105.2294183">
  <ele>1582.93</ele>
  <time>2026-08-28T17:51:19Z</time>
  <course>188.72</course>
  <speed>1.0225947388873073</speed>
  <fix>3d</fix>
</trkpt>
<trkpt lat="40.0716321" lon="-105.2294182">
  <ele>1583.0</ele>
  <time>2026-08-28T17:51:19Z</time>
  <course>175.19</course>
  <speed>0.98</speed>
  <fix>3d</fix>
</trkpt>
<trkpt lat="40.0716292" lon="-105.2294185">
  <ele>1582.94</ele>
  <time>2026-08-28T17:51:19Z</time>
  <course>195.23</course>
  <speed>1.0288342918079665</speed>
  <fix>3d</fix>
</trkpt>
<trkpt lat="40.0716304" lon="-105.2294182">
  <ele>1583.0</ele>
  <time>2026-08-28T17:51:19Z</time>
  <course>187.94</course>
  <speed>1.0</speed>
  <fix>3d</fix>
</trkpt>
<trkpt lat="40.0716283" lon="-105.2294189">
  <ele>1582.94</ele>
  <time>2026-08-28T17:51:19Z</time>
  <course>201.82</course>
  <speed>1.0361949623502327</speed>
  <fix>3d</fix>
</trkpt>
<trkpt lat="40.0716304" lon="-105.2294182">
  <ele>1583.0</ele>
  <time>2026-08-28T17:51:19Z</time>
  <course>187.94</course>
  <speed>1.0</speed>
  <fix>3d</fix>
</trkpt>
<trkpt lat="40.0716274" lon="-105.2294194">
  <ele>1582.94</ele>
  <time>2026-08-28T17:51:19Z</time>
  <course>208.46</course>
  <speed>1.047091209016674</speed>
  <fix>3d</fix>
</trkpt>
<trkpt lat="40.0716286" lon="-105.2294187">
  <ele>1583.0</ele>
  <time>2026-08-28T17:51:19Z</time>
  <course>201.01</course>
  <speed>1.03</speed>
  <fix>3d</fix>
</trkpt>
<trkpt lat="40.0716266" lon="-105.2294201">
  <ele>1582.94</ele>
  <time>2026-08-28T17:51:19Z</time>
  <course>215.16</course>
  <speed>1.054371850914088</speed>
  <fix>3d</fix>
</trkpt>
<trkpt lat="40.0716286" lon="-105.2294187">
  <ele>1583.0</ele>
  <time>2026-08-28T17:51:19Z</time>
  <course>201.01</course>
  <speed>1.03</speed>
  <fix>3d</fix>
</trkpt>
<trkpt lat="40.0716259" lon="-105.2294209">
  <ele>1582.95</ele>
  <time>2026-08-28T17:51:19Z</time>
  <course>221.91</course>
  <speed>1.0621675950620975</speed>
  <fix>3d</fix>
</trkpt>
<trkpt lat="40.071627" lon="-105.2294199">
  <ele>1583.0</ele>
  <time>2026-08-28T17:51:19Z</time>
  <course>214.33</course>
  <speed>1.04</speed>
  <fix>3d</fix>
</trkpt>
<trkpt lat="40.0716252" lon="-105.2294218">
  <ele>1582.95</ele>
  <time>2026-08-28T17:51:19Z</time>
  <course>228.7</course>
  <speed>1.0630145812734648</speed>
  <fix>3d</fix>
</trkpt>
<trkpt lat="40.071627" lon="-105.2294199">
  <ele>1583.0</ele>
  <time>2026-08-28T17:51:19Z</time>
  <course>214.33</course>
  <speed>1.04</speed>
  <fix>3d</fix>
</trkpt>
<trkpt lat="40.0716246" lon="-105.2294228">
  <ele>1582.95</ele>
  <time>2026-08-28T17:51:19Z</time>
  <course>235.51</course>
  <speed>1.065082156455548</speed>
  <fix>3d</fix>
</trkpt>
<trkpt lat="40.071627" lon="-105.2294199">
  <ele>1583.0</ele>
  <time>2026-08-28T17:51:19Z</time>
  <course>214.33</course>
  <speed>1.04</speed>
  <fix>3d</fix>
</trkpt>
<trkpt lat="40.0716242" lon="-105.2294239">
  <ele>1582.95</ele>
  <time>2026-08-28T17:51:19Z</time>
  <course>242.33</course>
  <speed>1.0600471687618434</speed>
  <fix>3d</fix>
</trkpt>
<trkpt lat="40.0716255" lon="-105.2294215">
  <ele>1583.0</ele>
  <time>2026-08-28T17:51:19Z</time>
  <course>227.86</course>
  <speed>1.06</speed>
  <fix>3d</fix>
</trkpt>
<trkpt lat="40.0716238" lon="-105.229425">
  <ele>1582.96</ele>
  <time>2026-08-28T17:51:19Z</time>
  <course>249.15</course>
  <speed>1.0604244433244643</speed>
  <fix>3d</fix>
</trkpt>
<trkpt lat="40.0716255" lon="-105.2294215">
  <ele>1583.0</ele>
  <time>2026-08-28T17:51:19Z</time>
  <course>227.86</course>
  <speed>1.06</speed>
  <fix>3d</fix>
</trkpt>
<trkpt lat="40.0716235" lon="-105.2294262">
  <ele>1582.96</ele>
  <time>2026-08-28T17:51:19Z</time>
  <course>255.97</course>
  <speed>1.0501904589168576</speed>
  <fix>3d</fix>
</trkpt>
<trkpt lat="40.0716244" lon="-105.2294235">
  <ele>1583.0</ele>
  <time>2026-08-28T17:51:19Z</time>
  <course>241.49</course>
  <speed>1.06</speed>
  <fix>3d</fix>
</trkpt>
<trkpt lat="40.0716234" lon="-105.2294274">
  <ele>1582.96</ele>
  <time>2026-08-28T17:51:19Z</time>
  <course>262.77</course>
  <speed>1.0480935072788113</speed>
  <fix>3d</fix>
</trkpt>
<trkpt lat="40.0716244" lon="-105.2294235">
  <ele>1583.0</ele>
  <time>2026-08-28T17:51:19Z</time>
  <course>241.49</course>
  <speed>1.06</speed>
  <fix>3d</fix>
</trkpt>
<trkpt lat="40.0716233" lon="-105.2294286">
  <ele>1582.96</ele>
  <time>2026-08-28T17:51:19Z</time>
  <course>269.13</course>
  <speed>1.050047617967871</speed>
  <fix>3d</fix>
</trkpt>
<trkpt lat="40.0716237" lon="-105.2294259">
  <ele>1583.0</ele>
  <time>2026-08-28T17:51:19Z</time>
  <course>255.11</course>
  <speed>1.06</speed>
  <fix>3d</fix>
</trkpt>
<trkpt lat="40.0716234" lon="-105.2294299">
  <ele>1582.96</ele>
  <time>2026-08-28T17:51:19Z</time>
  <course>274.63</course>
  <speed>1.043072384832424</speed>
  <fix>3d</fix>
</trkpt>
<trkpt lat="40.0716235" lon="-105.2294283">
  <ele>1583.0</ele>
  <time>2026-08-28T17:51:19Z</time>
  <course>267.83</course>
  <speed>1.06</speed>
  <fix>3d</fix>
</trkpt>
<trkpt lat="40.0716235" lon="-105.2294311">
  <ele>1582.96</ele>
  <time>2026-08-28T17:51:19Z</time>
  <course>279.37</course>
  <speed>1.0538026380684382</speed>
  <fix>3d</fix>
</trkpt>
<trkpt lat="40.0716235" lon="-105.2294283">
  <ele>1583.0</ele>
  <time>2026-08-28T17:51:19Z</time>
  <course>267.83</course>
  <speed>1.06</speed>
  <fix>3d</fix>
</trkpt>
<trkpt lat="40.0716237" lon="-105.2294323">
  <ele>1582.96</ele>
  <time>2026-08-28T17:51:19Z</time>
  <course>283.39</course>
  <speed>1.0575916035975323</speed>
  <fix>3d</fix>
</trkpt>
<trkpt lat="40.0716235" lon="-105.2294308">
  <ele>1583.0</ele>
  <time>2026-08-28T17:51:19Z</time>
  <course>278.12</course>
  <speed>1.07</speed>
  <fix>3d</fix>
</trkpt>
<trkpt lat="40.071624" lon="-105.2294335">
  <ele>1582.96</ele>
  <time>2026-08-28T17:51:19Z</time>
  <course>286.74</course>
  <speed>1.0756393447619885</speed>
  <fix>3d</fix>
</trkpt>
<trkpt lat="40.0716235" lon="-105.2294308">
  <ele>1583.0</ele>
  <time>2026-08-28T17:51:19Z</time>
  <course>278.12</course>
  <speed>1.07</speed>
  <fix>3d</fix>
</trkpt>
<trkpt lat="40.0716243" lon="-105.2294347">
  <ele>1582.96</ele>
  <time>2026-08-28T17:51:19Z</time>
  <course>289.55</course>
  <speed>1.0816653826391969</speed>
  <fix>3d</fix>
</trkpt>
<trkpt lat="40.0716239" lon="-105.2294333">
  <ele>1583.0</ele>
  <time>2026-08-28T17:51:19Z</time>
  <course>285.6</course>
  <speed>1.1</speed>
  <fix>3d</fix>
</trkpt>
<trkpt lat="40.0716247" lon="-105.229436">
  <ele>1582.96</ele>
  <time>2026-08-28T17:51:19Z</time>
  <course>291.88</course>
  <speed>1.1086027241532468</speed>
  <fix>3d</fix>
</trkpt>
<trkpt lat="40.0716239" lon="-105.2294333">
  <ele>1583.0</ele>
  <time>2026-08-28T17:51:19Z</time>
  <course>285.6</course>
  <speed>1.1</speed>
  <fix>3d</fix>
</trkpt>
<trkpt lat="40.071625" lon="-105.2294372">
  <ele>1582.96</ele>
  <time>2026-08-28T17:51:19Z</time>
  <course>293.79</course>
  <speed>1.13718951806636</speed>
  <fix>3d</fix>
</trkpt>
<trkpt lat="40.0716245" lon="-105.2294358">
  <ele>1583.0</ele>
  <time>2026-08-28T17:51:19Z</time>
  <course>290.82</course>
  <speed>1.14</speed>
  <fix>3d</fix>
</trkpt>
<trkpt lat="40.0716254" lon="-105.2294385">
  <ele>1582.96</ele>
  <time>2026-08-28T17:51:19Z</time>
  <course>295.37</course>
  <speed>1.1720068259186889</speed>
  <fix>3d</fix>
</trkpt>
<trkpt lat="40.0716245" lon="-105.2294358">
  <ele>1583.0</ele>
  <time>2026-08-28T17:51:19Z</time>
  <course>290.82</course>
  <speed>1.14</speed>
  <fix>3d</fix>
</trkpt>
<trkpt lat="40.0716259" lon="-105.2294398">
  <ele>1582.96</ele>
  <time>2026-08-28T17:51:19Z</time>
  <course>296.64</course>
  <speed>1.2164292005702593</speed>
  <fix>3d</fix>
</trkpt>
<trkpt lat="40.0716253" lon="-105.2294383">
  <ele>1583.0</ele>
  <time>2026-08-28T17:51:19Z</time>
  <course>294.35</course>
  <speed>1.21</speed>
  <fix>3d</fix>
</trkpt>
<trkpt lat="40.0716264" lon="-105.2294411">
  <ele>1582.96</ele>
  <time>2026-08-28T17:51:19Z</time>
  <course>297.67</course>
  <speed>1.261269202034205</speed>
  <fix>3d</fix>
</trkpt>
<trkpt lat="40.0716253" lon="-105.2294383">
  <ele>1583.0</ele>
  <time>2026-08-28T17:51:19Z</time>
  <course>294.35</course>
  <speed>1.21</speed>
  <fix>3d</fix>
</trkpt>
<trkpt lat="40.071627" lon="-105.2294425">
  <ele>1582.95</ele>
  <time>2026-08-28T17:51:19Z</time>
  <course>298.5</course>
  <speed>1.3152946437965907</speed>
  <fix>3d</fix>
</trkpt>
<trkpt lat="40.0716263" lon="-105.229441">
  <ele>1583.0</ele>
  <time>2026-08-28T17:51:19Z</time>
  <course>296.69</course>
  <speed>1.29</speed>
  <fix>3d</fix>
</trkpt>
<trkpt lat="40.0716275" lon="-105.2294439">
  <ele>1582.95</ele>
  <time>2026-08-28T17:51:19Z</time>
  <course>299.16</course>
  <speed>1.3695254652615991</speed>
  <fix>3d</fix>
</trkpt>
<trkpt lat="40.0716263" lon="-105.229441">
  <ele>1583.0</ele>
  <time>2026-08-28T17:51:19Z</time>
  <course>296.69</course>
  <speed>1.29</speed>
  <fix>3d</fix>
</trkpt>
<trkpt lat="40.0716282" lon="-105.2294454">
  <ele>1582.95</ele>
  <time>2026-08-28T17:51:19Z</time>
  <course>299.68</course>
  <speed>1.4326548781894402</speed>
  <fix>3d</fix>
</trkpt>
<trkpt lat="40.0716275" lon="-105.2294438">
  <ele>1583.0</ele>
  <time>2026-08-28T17:51:19Z</time>
  <course>298.21</course>
  <speed>1.41</speed>
  <fix>3d</fix>
</trkpt>
<trkpt lat="40.0716288" lon="-105.229447">
  <ele>1582.94</ele>
  <time>2026-08-28T17:51:19Z</time>
  <course>300.09</course>
  <speed>1.5095032295427526</speed>
  <fix>3d</fix>
</trkpt>
<trkpt lat="40.0716275" lon="-105.2294438">
  <ele>1583.0</ele>
  <time>2026-08-28T17:51:19Z</time>
  <course>298.21</course>
  <speed>1.41</speed>
  <fix>3d</fix>
</trkpt>
<trkpt lat="40.0716295" lon="-105.2294486">
  <ele>1582.94</ele>
  <time>2026-08-28T17:51:19Z</time>
  <course>300.4</course>
  <speed>1.5814550262337528</speed>
  <fix>3d</fix>
</trkpt>
<trkpt lat="40.0716275" lon="-105.2294438">
  <ele>1583.0</ele>
  <time>2026-08-28T17:51:19Z</time>
  <course>298.21</course>
  <speed>1.41</speed>
  <fix>3d</fix>
</trkpt>
<trkpt lat="40.0716303" lon="-105.2294503">
  <ele>1582.95</ele>
  <time>2026-08-28T17:51:19Z</time>
  <course>300.63</course>
  <speed>1.653420696616563</speed>
  <fix>3d</fix>
</trkpt>
<trkpt lat="40.0716287" lon="-105.2294469">
  <ele>1583.0</ele>
  <time>2026-08-28T17:51:19Z</time>
  <course>299.16</course>
  <speed>1.54</speed>
  <fix>3d</fix>
</trkpt>
<trkpt lat="40.071631" lon="-105.2294521">
  <ele>1582.95</ele>
  <time>2026-08-28T17:51:19Z</time>
  <course>300.79</course>
  <speed>1.7340415219942111</speed>
  <fix>3d</fix>
</trkpt>
<trkpt lat="40.0716287" lon="-105.2294469">
  <ele>1583.0</ele>
  <time>2026-08-28T17:51:19Z</time>
  <course>299.16</course>
  <speed>1.54</speed>
  <fix>3d</fix>
</trkpt>
<trkpt lat="40.0716319" lon="-105.2294539">
  <ele>1582.95</ele>
  <time>2026-08-28T17:51:19Z</time>
  <course>300.89</course>
  <speed>1.8196977771047589</speed>
  <fix>3d</fix>
</trkpt>
<trkpt lat="40.0716301" lon="-105.2294502">
  <ele>1583.0</ele>
  <time>2026-08-28T17:51:19Z</time>
  <course>299.7</course>
  <speed>1.68</speed>
  <fix>3d</fix>
</trkpt>
<trkpt lat="40.0716327" lon="-105.2294558">
  <ele>1582.95</ele>
  <time>2026-08-28T17:51:19Z</time>
  <course>300.95</course>
  <speed>1.9003157632351526</speed>
  <fix>3d</fix>
</trkpt>
<trkpt lat="40.0716301" lon="-105.2294502">
  <ele>1583.0</ele>
  <time>2026-08-28T17:51:19Z</time>
  <course>299.7</course>
  <speed>1.68</speed>
  <fix>3d</fix>
</trkpt>
<trkpt lat="40.0716336" lon="-105.2294578">
  <ele>1582.95</ele>
  <time>2026-08-28T17:51:19Z</time>
  <course>300.96</course>
  <speed>1.9946177578674065</speed>
  <fix>3d</fix>
</trkpt>
<trkpt lat="40.0716317" lon="-105.2294537">
  <ele>1583.0</ele>
  <time>2026-08-28T17:51:19Z</time>
  <course>299.97</course>
  <speed>1.85</speed>
  <fix>3d</fix>
</trkpt>
<trkpt lat="40.0716345" lon="-105.2294599">
  <ele>1582.95</ele>
  <time>2026-08-28T17:51:19Z</time>
  <course>300.96</course>
  <speed>2.0838665984174707</speed>
  <fix>3d</fix>
</trkpt>
<trkpt lat="40.0716335" lon="-105.2294577">
  <ele>1583.0</ele>
  <time>2026-08-28T17:51:19Z</time>
  <course>300.06</course>
  <speed>2.02</speed>
  <fix>3d</fix>
</trkpt>
<trkpt lat="40.0716355" lon="-105.2294622">
  <ele>1582.95</ele>
  <time>2026-08-28T17:51:19Z</time>
  <course>300.94</course>
  <speed>2.178164364780583</speed>
  <fix>3d</fix>
</trkpt>
<trkpt lat="40.0716335" lon="-105.2294577">
  <ele>1583.0</ele>
  <time>2026-08-28T17:51:19Z</time>
  <course>300.06</course>
  <speed>2.02</speed>
  <fix>3d</fix>
</trkpt>
<trkpt lat="40.0716365" lon="-105.2294645">
  <ele>1582.95</ele>
  <time>2026-08-28T17:51:19Z</time>
  <course>300.89</course>
  <speed>2.2810962276940443</speed>
  <fix>3d</fix>
</trkpt>
<trkpt lat="40.0716354" lon="-105.229462">
  <ele>1583.0</ele>
  <time>2026-08-28T17:51:19Z</time>
  <course>300.03</course>
  <speed>2.21</speed>
  <fix>3d</fix>
</trkpt>
<trkpt lat="40.0716376" lon="-105.2294669">
  <ele>1582.94</ele>
  <time>2026-08-28T17:51:19Z</time>
  <course>300.82</course>
  <speed>2.3703586226560738</speed>
  <fix>3d</fix>
</trkpt>
<trkpt lat="40.0716354" lon="-105.229462">
  <ele>1583.0</ele>
  <time>2026-08-28T17:51:19Z</time>
  <course>300.03</course>
  <speed>2.21</speed>
  <fix>3d</fix>
</trkpt>
<trkpt lat="40.0716387" lon="-105.2294694">
  <ele>1582.94</ele>
  <time>2026-08-28T17:51:19Z</time>
  <course>300.73</course>
  <speed>2.47329739416836</speed>
  <fix>3d</fix>
</trkpt>
<trkpt lat="40.0716374" lon="-105.2294667">
  <ele>1583.0</ele>
  <time>2026-08-28T17:51:19Z</time>
  <course>299.92</course>
  <speed>2.4</speed>
  <fix>3d</fix>
</trkpt>
<trkpt lat="40.0716399" lon="-105.2294721">
  <ele>1582.94</ele>
  <time>2026-08-28T17:51:19Z</time>
  <course>300.63</course>
  <speed>2.5712448347055554</speed>
  <fix>3d</fix>
</trkpt>
<trkpt lat="40.0716374" lon="-105.2294667">
  <ele>1583.0</ele>
  <time>2026-08-28T17:51:19Z</time>
  <course>299.92</course>
  <speed>2.4</speed>
  <fix>3d</fix>
</trkpt>
<trkpt lat="40.0716411" lon="-105.2294748">
  <ele>1582.93</ele>
  <time>2026-08-28T17:51:19Z</time>
  <course>300.52</course>
  <speed>2.6741914665932205</speed>
  <fix>3d</fix>
</trkpt>
<trkpt lat="40.0716397" lon="-105.2294718">
  <ele>1583.0</ele>
  <time>2026-08-28T17:51:19Z</time>
  <course>299.74</course>
  <speed>2.59</speed>
  <fix>3d</fix>
</trkpt>
<trkpt lat="40.0716423" lon="-105.2294777">
  <ele>1582.93</ele>
  <time>2026-08-28T17:51:19Z</time>
  <course>300.4</course>
  <speed>2.7721832551258223</speed>
  <fix>3d</fix>
</trkpt>
<trkpt lat="40.0716397" lon="-105.2294718">
  <ele>1583.0</ele>
  <time>2026-08-28T17:51:19Z</time>
  <course>299.74</course>
  <speed>2.59</speed>
  <fix>3d</fix>
</trkpt>
<trkpt lat="40.0716436" lon="-105.2294807">
  <ele>1582.93</ele>
  <time>2026-08-28T17:51:19Z</time>
  <course>300.28</course>
  <speed>2.8751347794494784</speed>
  <fix>3d</fix>
</trkpt>
<trkpt lat="40.0716421" lon="-105.2294773">
  <ele>1583.0</ele>
  <time>2026-08-28T17:51:19Z</time>
  <course>299.52</course>
  <speed>2.79</speed>
  <fix>3d</fix>
</trkpt>
<trkpt lat="40.0716449" lon="-105.2294838">
  <ele>1582.93</ele>
  <time>2026-08-28T17:51:19Z</time>
  <course>300.16</course>
  <speed>2.9731632985761145</speed>
  <fix>3d</fix>
</trkpt>
<trkpt lat="40.0716421" lon="-105.2294773">
  <ele>1583.0</ele>
  <time>2026-08-28T17:51:19Z</time>
  <course>299.52</course>
  <speed>2.79</speed>
  <fix>3d</fix>
</trkpt>
<trkpt lat="40.0716463" lon="-105.2294869">
  <ele>1582.93</ele>
  <time>2026-08-28T17:51:19Z</time>
  <course>300.04</course>
  <speed>3.0712212554617424</speed>
  <fix>3d</fix>
</trkpt>
<trkpt lat="40.0716447" lon="-105.2294832">
  <ele>1583.0</ele>
  <time>2026-08-28T17:51:19Z</time>
  <course>299.29</course>
  <speed>2.98</speed>
  <fix>3d</fix>
</trkpt>
<trkpt lat="40.0716477" lon="-105.2294902">
  <ele>1582.93</ele>
  <time>2026-08-28T17:51:19Z</time>
  <course>299.91</course>
  <speed>3.1741770587035627</speed>
  <fix>3d</fix>
</trkpt>
<trkpt lat="40.0716447" lon="-105.2294832">
  <ele>1583.0</ele>
  <time>2026-08-28T17:51:19Z</time>
  <course>299.29</course>
  <speed>2.98</speed>
  <fix>3d</fix>
</trkpt>
<trkpt lat="40.0716491" lon="-105.2294936">
  <ele>1582.93</ele>
  <time>2026-08-28T17:51:19Z</time>
  <course>299.78</course>
  <speed>3.2722622144320894</speed>
  <fix>3d</fix>
</trkpt>
<trkpt lat="40.0716474" lon="-105.2294895">
  <ele>1583.0</ele>
  <time>2026-08-28T17:51:19Z</time>
  <course>299.04</course>
  <speed>3.18</speed>
  <fix>3d</fix>
</trkpt>
<trkpt lat="40.0716506" lon="-105.2294971">
  <ele>1582.93</ele>
  <time>2026-08-28T17:51:19Z</time>
  <course>299.64</course>
  <speed>3.370370899470858</speed>
  <fix>3d</fix>
</trkpt>
<trkpt lat="40.0716474" lon="-105.2294895">
  <ele>1583.0</ele>
  <time>2026-08-28T17:51:19Z</time>
  <course>299.04</course>
  <speed>3.18</speed>
  <fix>3d</fix>
</trkpt>
<trkpt lat="40.0716521" lon="-105.2295006">
  <ele>1582.93</ele>
  <time>2026-08-28T17:51:19Z</time>
  <course>299.5</course>
  <speed>3.468501117197456</speed>
  <fix>3d</fix>
</trkpt>
<trkpt lat="40.0716474" lon="-105.2294895">
  <ele>1583.0</ele>
  <time>2026-08-28T17:51:19Z</time>
  <course>299.04</course>
  <speed>3.18</speed>
  <fix>3d</fix>
</trkpt>
<trkpt lat="40.0716536" lon="-105.2295043">
  <ele>1582.93</ele>
  <time>2026-08-28T17:51:19Z</time>
  <course>299.36</course>
  <speed>3.5578785814021257</speed>
  <fix>3d</fix>
</trkpt>
<trkpt lat="40.0716502" lon="-105.2294962">
  <ele>1583.0</ele>
  <time>2026-08-28T17:51:19Z</time>
  <course>298.77</course>
  <speed>3.37</speed>
  <fix>3d</fix>
</trkpt>
<trkpt lat="40.0716552" lon="-105.229508">
  <ele>1582.93</ele>
  <time>2026-08-28T17:51:19Z</time>
  <course>299.21</course>
  <speed>3.651260056473655</speed>
  <fix>3d</fix>
</trkpt>
<trkpt lat="40.0716502" lon="-105.2294962">
  <ele>1583.0</ele>
  <time>2026-08-28T17:51:19Z</time>
  <course>298.77</course>
  <speed>3.37</speed>
  <fix>3d</fix>
</trkpt>
<trkpt lat="40.0716567" lon="-105.2295119">
  <ele>1582.92</ele>
  <time>2026-08-28T17:51:19Z</time>
  <course>299.06</course>
  <speed>3.7494532934815976</speed>
  <fix>3d</fix>
</trkpt>
<trkpt lat="40.0716532" lon="-105.2295034">
  <ele>1583.0</ele>
  <time>2026-08-28T17:51:19Z</time>
  <course>298.49</course>
  <speed>3.56</speed>
  <fix>3d</fix>
</trkpt>
<trkpt lat="40.0716584" lon="-105.2295158">
  <ele>1582.92</ele>
  <time>2026-08-28T17:51:19Z</time>
  <course>298.91</course>
  <speed>3.8429415816533044</speed>
  <fix>3d</fix>
</trkpt>
<trkpt lat="40.0716532" lon="-105.2295034">
  <ele>1583.0</ele>
  <time>2026-08-28T17:51:19Z</time>
  <course>298.49</course>
  <speed>3.56</speed>
  <fix>3d</fix>
</trkpt>
<trkpt lat="40.07166" lon="-105.2295198">
  <ele>1582.92</ele>
  <time>2026-08-28T17:51:19Z</time>
  <course>298.75</course>
  <speed>3.932352985173127</speed>
  <fix>3d</fix>
</trkpt>
<trkpt lat="40.0716563" lon="-105.229511">
  <ele>1583.0</ele>
  <time>2026-08-28T17:51:19Z</time>
  <course>298.19</course>
  <speed>3.75</speed>
  <fix>3d</fix>
</trkpt>
<trkpt lat="40.0716617" lon="-105.229524">
  <ele>1582.92</ele>
  <time>2026-08-28T17:51:19Z</time>
  <course>298.6</course>
  <speed>4.025916044827563</speed>
  <fix>3d</fix>
</trkpt>
<trkpt lat="40.0716563" lon="-105.229511">
  <ele>1583.0</ele>
  <time>2026-08-28T17:51:19Z</time>
  <course>298.19</course>
  <speed>3.75</speed>
  <fix>3d</fix>
</trkpt>
<trkpt lat="40.0716634" lon="-105.2295282">
  <ele>1582.92</ele>
  <time>2026-08-28T17:51:19Z</time>
  <course>298.46</course>
  <speed>4.124184767926868</speed>
  <fix>3d</fix>
</trkpt>
<trkpt lat="40.0716595" lon="-105.229519">
  <ele>1583.0</ele>
  <time>2026-08-28T17:51:19Z</time>
  <course>297.88</course>
  <speed>3.94</speed>
  <fix>3d</fix>
</trkpt>
<trkpt lat="40.0716651" lon="-105.2295326">
  <ele>1582.92</ele>
  <time>2026-08-28T17:51:19Z</time>
  <course>298.35</course>
  <speed>4.2224637357827</speed>
  <fix>3d</fix>
</trkpt>
<trkpt lat="40.0716629" lon="-105.2295274">
  <ele>1583.0</ele>
  <time>2026-08-28T17:51:19Z</time>
  <course>297.6</course>
  <speed>4.13</speed>
  <fix>3d</fix>
</trkpt>
<trkpt lat="40.0716669" lon="-105.2295371">
  <ele>1582.92</ele>
  <time>2026-08-28T17:51:19Z</time>
  <course>298.24</course>
  <speed>4.316132528085763</speed>
  <fix>3d</fix>
</trkpt>
<trkpt lat="40.0716629" lon="-105.2295274">
  <ele>1583.0</ele>
  <time>2026-08-28T17:51:19Z</time>
  <course>297.6</course>
  <speed>4.13</speed>
  <fix>3d</fix>
</trkpt>
<trkpt lat="40.0716687" lon="-105.2295416">
  <ele>1582.92</ele>
  <time>2026-08-28T17:51:19Z</time>
  <course>298.12</course>
  <speed>4.414442207119717</speed>
  <fix>3d</fix>
</trkpt>
<trkpt lat="40.0716664" lon="-105.2295362">
  <ele>1583.0</ele>
  <time>2026-08-28T17:51:19Z</time>
  <course>297.36</course>
  <speed>4.32</speed>
  <fix>3d</fix>
</trkpt>
<trkpt lat="40.0716705" lon="-105.2295464">
  <ele>1582.92</ele>
  <time>2026-08-28T17:51:19Z</time>
  <course>298.0</course>
  <speed>4.508181451538968</speed>
  <fix>3d</fix>
</trkpt>
<trkpt lat="40.0716664" lon="-105.2295362">
  <ele>1583.0</ele>
  <time>2026-08-28T17:51:19Z</time>
  <course>297.36</course>
  <speed>4.32</speed>
  <fix>3d</fix>
</trkpt>
<trkpt lat="40.0716724" lon="-105.2295512">
  <ele>1582.92</ele>
  <time>2026-08-28T17:51:19Z</time>
  <course>297.87</course>
  <speed>4.606517122512408</speed>
  <fix>3d</fix>
</trkpt>
<trkpt lat="40.07167" lon="-105.2295454">
  <ele>1583.0</ele>
  <time>2026-08-28T17:51:19Z</time>
  <course>297.12</course>
  <speed>4.51</speed>
  <fix>3d</fix>
</trkpt>
<trkpt lat="40.0716743" lon="-105.2295562">
  <ele>1582.92</ele>
  <time>2026-08-28T17:51:19Z</time>
  <course>297.75</course>
  <speed>4.7048591902415104</speed>
  <fix>3d</fix>
</trkpt>
<trkpt lat="40.07167" lon="-105.2295454">
  <ele>1583.0</ele>
  <time>2026-08-28T17:51:19Z</time>
  <course>297.12</course>
  <speed>4.51</speed>
  <fix>3d</fix>
</trkpt>
<trkpt lat="40.0716763" lon="-105.2295612">
  <ele>1582.92</ele>
  <time>2026-08-28T17:51:19Z</time>
  <course>297.62</course>
  <speed>4.7986769009801025</speed>
  <fix>3d</fix>
</trkpt>
<trkpt lat="40.0716738" lon="-105.229555">
  <ele>1583.0</ele>
  <time>2026-08-28T17:51:19Z</time>
  <course>296.87</course>
  <speed>4.7</speed>
  <fix>3d</fix>
</trkpt>
<trkpt lat="40.0716783" lon="-105.2295664">
  <ele>1582.92</ele>
  <time>2026-08-28T17:51:19Z</time>
  <course>297.55</course>
  <speed>4.89703992223874</speed>
  <fix>3d</fix>
</trkpt>
<trkpt lat="40.0716738" lon="-105.229555">
  <ele>1583.0</ele>
  <time>2026-08-28T17:51:19Z</time>
  <course>296.87</course>
  <speed>4.7</speed>
  <fix>3d</fix>
</trkpt>
<trkpt lat="40.0716803" lon="-105.2295716">
  <ele>1582.92</ele>
  <time>2026-08-28T17:51:19Z</time>
  <course>297.49</course>
  <speed>4.981977519017925</speed>
  <fix>3d</fix>
</trkpt>
<trkpt lat="40.0716777" lon="-105.2295651">
  <ele>1583.0</ele>
  <time>2026-08-28T17:51:19Z</time>
  <course>296.68</course>
  <speed>4.88</speed>
  <fix>3d</fix>
</trkpt>
<trkpt lat="40.0716823" lon="-105.229577">
  <ele>1582.92</ele>
  <time>2026-08-28T17:51:19Z</time>
  <course>297.42</course>
  <speed>5.057993673384734</speed>
  <fix>3d</fix>
</trkpt>
<trkpt lat="40.0716777" lon="-105.2295651">
  <ele>1583.0</ele>
  <time>2026-08-28T17:51:19Z</time>
  <course>296.68</course>
  <speed>4.88</speed>
  <fix>3d</fix>
</trkpt>
<trkpt lat="40.0716844" lon="-105.2295824">
  <ele>1582.92</ele>
  <time>2026-08-28T17:51:19Z</time>
  <course>297.35</course>
  <speed>5.134014024133553</speed>
  <fix>3d</fix>
</trkpt>
<trkpt lat="40.0716817" lon="-105.2295755">
  <ele>1583.0</ele>
  <time>2026-08-28T17:51:19Z</time>
  <course>296.55</course>
  <speed>5.04</speed>
  <fix>3d</fix>
</trkpt>
<trkpt lat="40.0716865" lon="-105.2295879">
  <ele>1582.92</ele>
  <time>2026-08-28T17:51:19Z</time>
  <course>297.28</course>
  <speed>5.21003838757451</speed>
  <fix>3d</fix>
</trkpt>
<trkpt lat="40.0716817" lon="-105.2295755">
  <ele>1583.0</ele>
  <time>2026-08-28T17:51:19Z</time>
  <course>296.55</course>
  <speed>5.04</speed>
  <fix>3d</fix>
</trkpt>
<trkpt lat="40.0716886" lon="-105.2295934">
  <ele>1582.92</ele>
  <time>2026-08-28T17:51:19Z</time>
  <course>297.21</course>
  <speed>5.259248995816798</speed>
  <fix>3d</fix>
</trkpt>
<trkpt lat="40.0716858" lon="-105.2295862">
  <ele>1583.0</ele>
  <time>2026-08-28T17:51:19Z</time>
  <course>296.41</course>
  <speed>5.18</speed>
  <fix>3d</fix>
</trkpt>
<trkpt lat="40.0716907" lon="-105.2295991">
  <ele>1582.92</ele>
  <time>2026-08-28T17:51:19Z</time>
  <course>297.14</course>
  <speed>5.303970211077735</speed>
  <fix>3d</fix>
</trkpt>
<trkpt lat="40.0716858" lon="-105.2295862">
  <ele>1583.0</ele>
  <time>2026-08-28T17:51:19Z</time>
  <course>296.41</course>
  <speed>5.18</speed>
  <fix>3d</fix>
</trkpt>
<trkpt lat="40.0716929" lon="-105.2296047">
  <ele>1582.92</ele>
  <time>2026-08-28T17:51:19Z</time>
  <course>297.07</course>
  <speed>5.335288183406778</speed>
  <fix>3d</fix>
</trkpt>
<trkpt lat="40.0716858" lon="-105.2295862">
  <ele>1583.0</ele>
  <time>2026-08-28T17:51:19Z</time>
  <course>296.41</course>
  <speed>5.18</speed>
  <fix>3d</fix>
</trkpt>
<trkpt lat="40.071695" lon="-105.2296103">
  <ele>1582.92</ele>
  <time>2026-08-28T17:51:19Z</time>
  <course>297.04</course>
  <speed>5.353213987876816</speed>
  <fix>3d</fix>
</trkpt>
<trkpt lat="40.07169" lon="-105.2295973">
  <ele>1583.0</ele>
  <time>2026-08-28T17:51:19Z</time>
  <course>296.27</course>
  <speed>5.28</speed>
  <fix>3d</fix>
</trkpt>
<trkpt lat="40.0716971" lon="-105.2296159">
  <ele>1582.92</ele>
  <time>2026-08-28T17:51:19Z</time>
  <course>296.98</course>
  <speed>5.362182391526793</speed>
  <fix>3d</fix>
</trkpt>
<trkpt lat="40.07169" lon="-105.2295973">
  <ele>1583.0</ele>
  <time>2026-08-28T17:51:19Z</time>
  <course>296.27</course>
  <speed>5.28</speed>
  <fix>3d</fix>
</trkpt>
<trkpt lat="40.0716992" lon="-105.2296215">
  <ele>1582.92</ele>
  <time>2026-08-28T17:51:19Z</time>
  <course>296.93</course>
  <speed>5.3577700585224814</speed>
  <fix>3d</fix>
</trkpt>
<trkpt lat="40.0716942" lon="-105.2296084">
  <ele>1583.0</ele>
  <time>2026-08-28T17:51:19Z</time>
  <course>296.15</course>
  <speed>5.33</speed>
  <fix>3d</fix>
</trkpt>
<trkpt lat="40.0717013" lon="-105.2296271">
  <ele>1582.92</ele>
  <time>2026-08-28T17:51:19Z</time>
  <course>296.9</course>
  <speed>5.3487942566526145</speed>
  <fix>3d</fix>
</trkpt>
<trkpt lat="40.0716942" lon="-105.2296084">
  <ele>1583.0</ele>
  <time>2026-08-28T17:51:19Z</time>
  <course>296.15</course>
  <speed>5.33</speed>
  <fix>3d</fix>
</trkpt>
<trkpt lat="40.0717034" lon="-105.2296327">
  <ele>1582.93</ele>
  <time>2026-08-28T17:51:19Z</time>
  <course>296.83</course>
  <speed>5.331013036937726</speed>
  <fix>3d</fix>
</trkpt>
<trkpt lat="40.0716984" lon="-105.2296197">
  <ele>1583.0</ele>
  <time>2026-08-28T17:51:19Z</time>
  <course>296.07</course>
  <speed>5.34</speed>
  <fix>3d</fix>
</trkpt>
<trkpt lat="40.0717054" lon="-105.2296383">
  <ele>1582.93</ele>
  <time>2026-08-28T17:51:19Z</time>
  <course>296.8</course>
  <speed>5.317640454186424</speed>
  <fix>3d</fix>
</trkpt>
<trkpt lat="40.0717027" lon="-105.229631">
  <ele>1583.0</ele>
  <time>2026-08-28T17:51:19Z</time>
  <course>295.99</course>
  <speed>5.33</speed>
  <fix>3d</fix>
</trkpt>
<trkpt lat="40.0717075" lon="-105.2296439">
  <ele>1582.93</ele>
  <time>2026-08-28T17:51:19Z</time>
  <course>296.76</course>
  <speed>5.295280917949491</speed>
  <fix>3d</fix>
</trkpt>
<trkpt lat="40.0717027" lon="-105.229631">
  <ele>1583.0</ele>
  <time>2026-08-28T17:51:19Z</time>
  <course>295.99</course>
  <speed>5.33</speed>
  <fix>3d</fix>
</trkpt>
<trkpt lat="40.0717096" lon="-105.2296495">
  <ele>1582.93</ele>
  <time>2026-08-28T17:51:19Z</time>
  <course>296.7</course>
  <speed>5.259553212964006</speed>
  <fix>3d</fix>
</trkpt>
<trkpt lat="40.0717068" lon="-105.2296423">
  <ele>1583.0</ele>
  <time>2026-08-28T17:51:19Z</time>
  <course>295.89</course>
  <speed>5.29</speed>
  <fix>3d</fix>
</trkpt>
<trkpt lat="40.0717116" lon="-105.229655">
  <ele>1582.93</ele>
  <time>2026-08-28T17:51:19Z</time>
  <course>296.67</course>
  <speed>5.232829062753723</speed>
  <fix>3d</fix>
</trkpt>
<trkpt lat="40.0717068" lon="-105.2296423">
  <ele>1583.0</ele>
  <time>2026-08-28T17:51:19Z</time>
  <course>295.89</course>
  <speed>5.29</speed>
  <fix>3d</fix>
</trkpt>
<trkpt lat="40.0717137" lon="-105.2296606">
  <ele>1582.93</ele>
  <time>2026-08-28T17:51:19Z</time>
  <course>296.63</course>
  <speed>5.201470945799851</speed>
  <fix>3d</fix>
</trkpt>
<trkpt lat="40.0717109" lon="-105.2296533">
  <ele>1583.0</ele>
  <time>2026-08-28T17:51:19Z</time>
  <course>295.8</course>
  <speed>5.24</speed>
  <fix>3d</fix>
</trkpt>
<trkpt lat="40.0717157" lon="-105.2296661">
  <ele>1582.92</ele>
  <time>2026-08-28T17:51:19Z</time>
  <course>296.58</course>
  <speed>5.174756032896624</speed>
  <fix>3d</fix>
</trkpt>
<trkpt lat="40.0717109" lon="-105.2296533">
  <ele>1583.0</ele>
  <time>2026-08-28T17:51:19Z</time>
  <course>295.8</course>
  <speed>5.24</speed>
  <fix>3d</fix>
</trkpt>
<trkpt lat="40.0717177" lon="-105.2296716">
  <ele>1582.92</ele>
  <time>2026-08-28T17:51:19Z</time>
  <course>296.55</course>
  <speed>5.139046604186422</speed>
  <fix>3d</fix>
</trkpt>
<trkpt lat="40.071715" lon="-105.2296643">
  <ele>1583.0</ele>
  <time>2026-08-28T17:51:19Z</time>
  <course>295.72</course>
  <speed>5.18</speed>
  <fix>3d</fix>
</trkpt>
<trkpt lat="40.0717197" lon="-105.2296771">
  <ele>1582.93</ele>
  <time>2026-08-28T17:51:19Z</time>
  <course>296.53</course>
  <speed>5.103342042230757</speed>
  <fix>3d</fix>
</trkpt>
<trkpt lat="40.071715" lon="-105.2296643">
  <ele>1583.0</ele>
  <time>2026-08-28T17:51:19Z</time>
  <course>295.72</course>
  <speed>5.18</speed>
  <fix>3d</fix>
</trkpt>
<trkpt lat="40.0717217" lon="-105.2296825">
  <ele>1582.93</ele>
  <time>2026-08-28T17:51:19Z</time>
  <course>296.46</course>
  <speed>5.076662289339326</speed>
  <fix>3d</fix>
</trkpt>
<trkpt lat="40.071719" lon="-105.2296753">
  <ele>1583.0</ele>
  <time>2026-08-28T17:51:19Z</time>
  <course>295.63</course>
  <speed>5.11</speed>
  <fix>3d</fix>
</trkpt>
<trkpt lat="40.0717237" lon="-105.2296879">
  <ele>1582.93</ele>
  <time>2026-08-28T17:51:19Z</time>
  <course>296.43</course>
  <speed>5.045284927533825</speed>
  <fix>3d</fix>
</trkpt>
<trkpt lat="40.071719" lon="-105.2296753">
  <ele>1583.0</ele>
  <time>2026-08-28T17:51:19Z</time>
  <course>295.63</course>
  <speed>5.11</speed>
  <fix>3d</fix>
</trkpt>
<trkpt lat="40.0717256" lon="-105.2296932">
  <ele>1582.93</ele>
  <time>2026-08-28T17:51:19Z</time>
  <course>296.41</course>
  <speed>5.0186153468860315</speed>
  <fix>3d</fix>
</trkpt>
<trkpt lat="40.071723" lon="-105.229686">
  <ele>1583.0</ele>
  <time>2026-08-28T17:51:19Z</time>
  <course>295.56</course>
  <speed>5.05</speed>
  <fix>3d</fix>
</trkpt>
<trkpt lat="40.0717276" lon="-105.2296985">
  <ele>1582.93</ele>
  <time>2026-08-28T17:51:19Z</time>
  <course>296.35</course>
  <speed>4.987233702163956</speed>
  <fix>3d</fix>
</trkpt>
<trkpt lat="40.071723" lon="-105.229686">
  <ele>1583.0</ele>
  <time>2026-08-28T17:51:19Z</time>
  <course>295.56</course>
  <speed>5.05</speed>
  <fix>3d</fix>
</trkpt>
<trkpt lat="40.0717295" lon="-105.2297038">
  <ele>1582.92</ele>
  <time>2026-08-28T17:51:19Z</time>
  <course>296.31</course>
  <speed>4.96960763038693</speed>
  <fix>3d</fix>
</trkpt>
<trkpt lat="40.0717269" lon="-105.2296966">
  <ele>1583.0</ele>
  <time>2026-08-28T17:51:19Z</time>
  <course>295.48</course>
  <speed>5.0</speed>
  <fix>3d</fix>
</trkpt>
<trkpt lat="40.0717314" lon="-105.2297091">
  <ele>1582.92</ele>
  <time>2026-08-28T17:51:19Z</time>
  <course>296.29</course>
  <speed>4.947251762342401</speed>
  <fix>3d</fix>
</trkpt>
<trkpt lat="40.0717269" lon="-105.2296966">
  <ele>1583.0</ele>
  <time>2026-08-28T17:51:19Z</time>
  <course>295.48</course>
  <speed>5.0</speed>
  <fix>3d</fix>
</trkpt>
<trkpt lat="40.0717333" lon="-105.2297144">
  <ele>1582.92</ele>
  <time>2026-08-28T17:51:19Z</time>
  <course>296.22</course>
  <speed>4.924895937986913</speed>
  <fix>3d</fix>
</trkpt>
<trkpt lat="40.0717269" lon="-105.2296966">
  <ele>1583.0</ele>
  <time>2026-08-28T17:51:19Z</time>
  <course>295.48</course>
  <speed>5.0</speed>
  <fix>3d</fix>
</trkpt>
<trkpt lat="40.0717352" lon="-105.2297196">
  <ele>1582.92</ele>
  <time>2026-08-28T17:51:19Z</time>
  <course>296.2</course>
  <speed>4.911578157781875</speed>
  <fix>3d</fix>
</trkpt>
<trkpt lat="40.0717307" lon="-105.2297073">
  <ele>1583.0</ele>
  <time>2026-08-28T17:51:19Z</time>
  <course>295.39</course>
  <speed>4.96</speed>
  <fix>3d</fix>
</trkpt>
<trkpt lat="40.0717371" lon="-105.2297247">
  <ele>1582.91</ele>
  <time>2026-08-28T17:51:19Z</time>
  <course>296.16</course>
  <speed>4.898264998956263</speed>
  <fix>3d</fix>
</trkpt>
<trkpt lat="40.0717307" lon="-105.2297073">
  <ele>1583.0</ele>
  <time>2026-08-28T17:51:19Z</time>
  <course>295.39</course>
  <speed>4.96</speed>
  <fix>3d</fix>
</trkpt>
<trkpt lat="40.0717389" lon="-105.2297299">
  <ele>1582.91</ele>
  <time>2026-08-28T17:51:19Z</time>
  <course>296.11</course>
  <speed>4.884956499294543</speed>
  <fix>3d</fix>
</trkpt>
<trkpt lat="40.0717346" lon="-105.2297178">
  <ele>1583.0</ele>
  <time>2026-08-28T17:51:19Z</time>
  <course>295.31</course>
  <speed>4.93</speed>
  <fix>3d</fix>
</trkpt>
<trkpt lat="40.0717408" lon="-105.229735">
  <ele>1582.91</ele>
  <time>2026-08-28T17:51:20Z</time>
  <course>296.08</course>
  <speed>4.875910171444917</speed>
  <fix>3d</fix>
</trkpt>
<trkpt lat="40.0717346" lon="-105.2297178">
  <ele>1583.0</ele>
  <time>2026-08-28T17:51:20Z</time>
  <course>295.31</course>
  <speed>4.93</speed>
  <fix>3d</fix>
</trkpt>
<trkpt lat="40.0717426" lon="-105.2297402">
  <ele>1582.91</ele>
  <time>2026-08-28T17:51:20Z</time>
  <course>296.04</course>
  <speed>4.871652696980769</speed>
  <fix>3d</fix>
</trkpt>
<trkpt lat="40.0717383" lon="-105.2297283">
  <ele>1583.0</ele>
  <time>2026-08-28T17:51:20Z</time>
  <course>295.23</course>
  <speed>4.91</speed>
  <fix>3d</fix>
</trkpt>
<trkpt lat="40.0717445" lon="-105.2297453">
  <ele>1582.91</ele>
  <time>2026-08-28T17:51:20Z</time>
  <course>295.99</course>
  <speed>4.871652696980769</speed>
  <fix>3d</fix>
</trkpt>
<trkpt lat="40.0717383" lon="-105.2297283">
  <ele>1583.0</ele>
  <time>2026-08-28T17:51:20Z</time>
  <course>295.23</course>
  <speed>4.91</speed>
  <fix>3d</fix>
</trkpt>
<trkpt lat="40.0717463" lon="-105.2297505">
  <ele>1582.91</ele>
  <time>2026-08-28T17:51:20Z</time>
  <course>295.97</course>
  <speed>4.871652696980769</speed>
  <fix>3d</fix>
</trkpt>
<trkpt lat="40.071742" lon="-105.2297386">
  <ele>1583.0</ele>
  <time>2026-08-28T17:51:20Z</time>
  <course>295.15</course>
  <speed>4.9</speed>
  <fix>3d</fix>
</trkpt>
<trkpt lat="40.0717482" lon="-105.2297557">
  <ele>1582.91</ele>
  <time>2026-08-28T17:51:20Z</time>
  <course>295.94</course>
  <speed>4.871652696980769</speed>
  <fix>3d</fix>
</trkpt>
<trkpt lat="40.0717458" lon="-105.2297491">
  <ele>1583.0</ele>
  <time>2026-08-28T17:51:20Z</time>
  <course>295.07</course>
  <speed>4.91</speed>
  <fix>3d</fix>
</trkpt>
<trkpt lat="40.07175" lon="-105.2297609">
  <ele>1582.91</ele>
  <time>2026-08-28T17:51:20Z</time>
  <course>295.89</course>
  <speed>4.8807069160112455</speed>
  <fix>3d</fix>
</trkpt>
<trkpt lat="40.0717458" lon="-105.2297491">
  <ele>1583.0</ele>
  <time>2026-08-28T17:51:20Z</time>
  <course>295.07</course>
  <speed>4.91</speed>
  <fix>3d</fix>
</trkpt>
<trkpt lat="40.0717519" lon="-105.229766">
  <ele>1582.9</ele>
  <time>2026-08-28T17:51:20Z</time>
  <course>295.85</course>
  <speed>4.889764820520512</speed>
  <fix>3d</fix>
</trkpt>
<trkpt lat="40.0717495" lon="-105.2297596">
  <ele>1583.0</ele>
  <time>2026-08-28T17:51:20Z</time>
  <course>295.0</course>
  <speed>4.92</speed>
  <fix>3d</fix>
</trkpt>
<trkpt lat="40.0717538" lon="-105.2297713">
  <ele>1582.9</ele>
  <time>2026-08-28T17:51:20Z</time>
  <course>295.83</course>
  <speed>4.889764820520512</speed>
  <fix>3d</fix>
</trkpt>
<trkpt lat="40.0717495" lon="-105.2297596">
  <ele>1583.0</ele>
  <time>2026-08-28T17:51:20Z</time>
  <course>295.0</course>
  <speed>4.92</speed>
  <fix>3d</fix>
</trkpt>
<trkpt lat="40.0717556" lon="-105.2297766">
  <ele>1582.9</ele>
  <time>2026-08-28T17:51:20Z</time>
  <course>295.81</course>
  <speed>4.8988263900652775</speed>
  <fix>3d</fix>
</trkpt>
<trkpt lat="40.0717533" lon="-105.22977">
  <ele>1583.0</ele>
  <time>2026-08-28T17:51:20Z</time>
  <course>294.93</course>
  <speed>4.93</speed>
  <fix>3d</fix>
</trkpt>
<trkpt lat="40.0717575" lon="-105.2297819">
  <ele>1582.9</ele>
  <time>2026-08-28T17:51:20Z</time>
  <course>295.79</course>
  <speed>4.907891604344986</speed>
  <fix>3d</fix>
</trkpt>
<trkpt lat="40.0717533" lon="-105.22977">
  <ele>1583.0</ele>
  <time>2026-08-28T17:51:20Z</time>
  <course>294.93</course>
  <speed>4.93</speed>
  <fix>3d</fix>
</trkpt>
<trkpt lat="40.0717594" lon="-105.2297872">
  <ele>1582.9</ele>
  <time>2026-08-28T17:51:20Z</time>
  <course>295.75</course>
  <speed>4.916960443200657</speed>
  <fix>3d</fix>
</trkpt>
<trkpt lat="40.071757" lon="-105.2297806">
  <ele>1583.0</ele>
  <time>2026-08-28T17:51:20Z</time>
  <course>294.87</course>
  <speed>4.95</speed>
  <fix>3d</fix>
</trkpt>
<trkpt lat="40.0717613" lon="-105.2297925">
  <ele>1582.9</ele>
  <time>2026-08-28T17:51:20Z</time>
  <course>295.71</course>
  <speed>4.930243401699352</speed>
  <fix>3d</fix>
</trkpt>
<trkpt lat="40.071757" lon="-105.2297806">
  <ele>1583.0</ele>
  <time>2026-08-28T17:51:20Z</time>
  <course>294.87</course>
  <speed>4.95</speed>
  <fix>3d</fix>
</trkpt>
<trkpt lat="40.0717632" lon="-105.2297978">
  <ele>1582.9</ele>
  <time>2026-08-28T17:51:20Z</time>
  <course>295.69</course>
  <speed>4.939311692938602</speed>
  <fix>3d</fix>
</trkpt>
<trkpt lat="40.0717608" lon="-105.2297911">
  <ele>1583.0</ele>
  <time>2026-08-28T17:51:20Z</time>
  <course>294.8</course>
  <speed>4.97</speed>
  <fix>3d</fix>
</trkpt>
<trkpt lat="40.0717651" lon="-105.2298032">
  <ele>1582.9</ele>
  <time>2026-08-28T17:51:20Z</time>
  <course>295.67</course>
  <speed>4.948383574461462</speed>
  <fix>3d</fix>
</trkpt>
<trkpt lat="40.0717608" lon="-105.2297911">
  <ele>1583.0</ele>
  <time>2026-08-28T17:51:20Z</time>
  <course>294.8</course>
  <speed>4.97</speed>
  <fix>3d</fix>
</trkpt>
<trkpt lat="40.0717669" lon="-105.2298085">
  <ele>1582.9</ele>
  <time>2026-08-28T17:51:20Z</time>
  <course>295.64</course>
  <speed>4.948383574461462</speed>
  <fix>3d</fix>
</trkpt>
<trkpt lat="40.0717645" lon="-105.2298017">
  <ele>1583.0</ele>
  <time>2026-08-28T17:51:20Z</time>
  <course>294.74</course>
  <speed>4.98</speed>
  <fix>3d</fix>
</trkpt>
<trkpt lat="40.0717688" lon="-105.2298139">
  <ele>1582.9</ele>
  <time>2026-08-28T17:51:20Z</time>
  <course>295.6</course>
  <speed>4.957459026557859</speed>
  <fix>3d</fix>
</trkpt>
<trkpt lat="40.0717645" lon="-105.2298017">
  <ele>1583.0</ele>
  <time>2026-08-28T17:51:20Z</time>
  <course>294.74</course>
  <speed>4.98</speed>
  <fix>3d</fix>
</trkpt>
<trkpt lat="40.0717707" lon="-105.2298192">
  <ele>1582.9</ele>
  <time>2026-08-28T17:51:20Z</time>
  <course>295.57</course>
  <speed>4.966538029654057</speed>
  <fix>3d</fix>
</trkpt>
<trkpt lat="40.0717683" lon="-105.2298124">
  <ele>1583.0</ele>
  <time>2026-08-28T17:51:20Z</time>
  <course>294.67</course>
  <speed>4.99</speed>
  <fix>3d</fix>
</trkpt>
<trkpt lat="40.0717726" lon="-105.2298246">
  <ele>1582.9</ele>
  <time>2026-08-28T17:51:20Z</time>
  <course>295.56</course>
  <speed>4.966538029654057</speed>
  <fix>3d</fix>
</trkpt>
<trkpt lat="40.0717683" lon="-105.2298124">
  <ele>1583.0</ele>
  <time>2026-08-28T17:51:20Z</time>
  <course>294.67</course>
  <speed>4.99</speed>
  <fix>3d</fix>
</trkpt>
<trkpt lat="40.0717745" lon="-105.2298299">
  <ele>1582.9</ele>
  <time>2026-08-28T17:51:20Z</time>
  <course>295.53</course>
  <speed>4.979809233293983</speed>
  <fix>3d</fix>
</trkpt>
<trkpt lat="40.0717683" lon="-105.2298124">
  <ele>1583.0</ele>
  <time>2026-08-28T17:51:20Z</time>
  <course>294.67</course>
  <speed>4.99</speed>
  <fix>3d</fix>
</trkpt>
<trkpt lat="40.0717764" lon="-105.2298353">
  <ele>1582.9</ele>
  <time>2026-08-28T17:51:20Z</time>
  <course>295.49</course>
  <speed>4.975620564311551</speed>
  <fix>3d</fix>
</trkpt>
<trkpt lat="40.071772" lon="-105.2298231">
  <ele>1583.0</ele>
  <time>2026-08-28T17:51:20Z</time>
  <course>294.61</course>
  <speed>5.0</speed>
  <fix>3d</fix>
</trkpt>
<trkpt lat="40.0717782" lon="-105.2298406">
  <ele>1582.9</ele>
  <time>2026-08-28T17:51:20Z</time>
  <course>295.47</course>
  <speed>4.975620564311551</speed>
  <fix>3d</fix>
</trkpt>
<trkpt lat="40.071772" lon="-105.2298231">
  <ele>1583.0</ele>
  <time>2026-08-28T17:51:20Z</time>
  <course>294.61</course>
  <speed>5.0</speed>
  <fix>3d</fix>
</trkpt>
<trkpt lat="40.0717801" lon="-105.2298459">
  <ele>1582.9</ele>
  <time>2026-08-28T17:51:20Z</time>
  <course>295.46</course>
  <speed>4.975620564311551</speed>
  <fix>3d</fix>
</trkpt>
<trkpt lat="40.0717758" lon="-105.2298338">
  <ele>1583.0</ele>
  <time>2026-08-28T17:51:20Z</time>
  <course>294.55</course>
  <speed>5.01</speed>
  <fix>3d</fix>
</trkpt>
<trkpt lat="40.071782" lon="-105.2298512">
  <ele>1582.9</ele>
  <time>2026-08-28T17:51:20Z</time>
  <course>295.42</course>
  <speed>4.975620564311551</speed>
  <fix>3d</fix>
</trkpt>
<trkpt lat="40.0717758" lon="-105.2298338">
  <ele>1583.0</ele>
  <time>2026-08-28T17:51:20Z</time>
  <course>294.55</course>
  <speed>5.01</speed>
  <fix>3d</fix>
</trkpt>
<trkpt lat="40.0717838" lon="-105.2298565">
  <ele>1582.9</ele>
  <time>2026-08-28T17:51:20Z</time>
  <course>295.38</course>
  <speed>4.971448481076718</speed>
  <fix>3d</fix>
</trkpt>
<trkpt lat="40.0717795" lon="-105.2298445">
  <ele>1583.0</ele>
  <time>2026-08-28T17:51:20Z</time>
  <course>294.49</course>
  <speed>5.01</speed>
  <fix>3d</fix>
</trkpt>
<trkpt lat="40.0717857" lon="-105.2298619">
  <ele>1582.91</ele>
  <time>2026-08-28T17:51:20Z</time>
  <course>295.37</course>
  <speed>4.971448481076718</speed>
  <fix>3d</fix>
</trkpt>
<trkpt lat="40.0717832" lon="-105.2298552">
  <ele>1583.0</ele>
  <time>2026-08-28T17:51:20Z</time>
  <course>294.44</course>
  <speed>5.01</speed>
  <fix>3d</fix>
</trkpt>
<trkpt lat="40.0717875" lon="-105.2298672">
  <ele>1582.91</ele>
  <time>2026-08-28T17:51:20Z</time>
  <course>295.35</course>
  <speed>4.971448481076718</speed>
  <fix>3d</fix>
</trkpt>
<trkpt lat="40.0717832" lon="-105.2298552">
  <ele>1583.0</ele>
  <time>2026-08-28T17:51:20Z</time>
  <course>294.44</course>
  <speed>5.01</speed>
  <fix>3d</fix>
</trkpt>
<trkpt lat="40.0717894" lon="-105.2298726">
  <ele>1582.92</ele>
  <time>2026-08-28T17:51:20Z</time>
  <course>295.31</course>
  <speed>4.971448481076718</speed>
  <fix>3d</fix>
</trkpt>
<trkpt lat="40.0717869" lon="-105.2298659">
  <ele>1583.0</ele>
  <time>2026-08-28T17:51:20Z</time>
  <course>294.38</course>
  <speed>5.02</speed>
  <fix>3d</fix>
</trkpt>
<trkpt lat="40.0717912" lon="-105.2298779">
  <ele>1582.92</ele>
  <time>2026-08-28T17:51:20Z</time>
  <course>295.31</course>
  <speed>4.980542139165173</speed>
  <fix>3d</fix>
</trkpt>
<trkpt lat="40.0717869" lon="-105.2298659">
  <ele>1583.0</ele>
  <time>2026-08-28T17:51:20Z</time>
  <course>294.38</course>
  <speed>5.02</speed>
  <fix>3d</fix>
</trkpt>
<trkpt lat="40.0717931" lon="-105.2298833">
  <ele>1582.93</ele>
  <time>2026-08-28T17:51:20Z</time>
  <course>295.29</course>
  <speed>4.980542139165173</speed>
  <fix>3d</fix>
</trkpt>
<trkpt lat="40.0717906" lon="-105.2298767">
  <ele>1583.0</ele>
  <time>2026-08-28T17:51:20Z</time>
  <course>294.33</course>
  <speed>5.02</speed>
  <fix>3d</fix>
</trkpt>
<trkpt lat="40.071795" lon="-105.2298887">
  <ele>1582.93</ele>
  <time>2026-08-28T17:51:20Z</time>
  <course>295.26</course>
  <speed>4.980542139165173</speed>
  <fix>3d</fix>
</trkpt>
<trkpt lat="40.0717906" lon="-105.2298767">
  <ele>1583.0</ele>
  <time>2026-08-28T17:51:20Z</time>
  <course>294.33</course>
  <speed>5.02</speed>
  <fix>3d</fix>
</trkpt>
<trkpt lat="40.0717968" lon="-105.2298941">
  <ele>1582.93</ele>
  <time>2026-08-28T17:51:20Z</time>
  <course>295.26</course>
  <speed>4.980542139165173</speed>
  <fix>3d</fix>
</trkpt>
<trkpt lat="40.0717944" lon="-105.2298874">
  <ele>1583.0</ele>
  <time>2026-08-28T17:51:20Z</time>
  <course>294.3</course>
  <speed>5.02</speed>
  <fix>3d</fix>
</trkpt>
<trkpt lat="40.0717987" lon="-105.2298995">
  <ele>1582.93</ele>
  <time>2026-08-28T17:51:20Z</time>
  <course>295.24</course>
  <speed>4.980542139165173</speed>
  <fix>3d</fix>
</trkpt>
<trkpt lat="40.0717944" lon="-105.2298874">
  <ele>1583.0</ele>
  <time>2026-08-28T17:51:20Z</time>
  <course>294.3</course>
  <speed>5.02</speed>
  <fix>3d</fix>
</trkpt>
<trkpt lat="40.0718006" lon="-105.2299049">
  <ele>1582.93</ele>
  <time>2026-08-28T17:51:20Z</time>
  <course>295.22</course>
  <speed>4.980542139165173</speed>
  <fix>3d</fix>
</trkpt>
<trkpt lat="40.0717981" lon="-105.2298982">
  <ele>1583.0</ele>
  <time>2026-08-28T17:51:20Z</time>
  <course>294.25</course>
  <speed>5.02</speed>
  <fix>3d</fix>
</trkpt>
<trkpt lat="40.0718024" lon="-105.2299103">
  <ele>1582.92</ele>
  <time>2026-08-28T17:51:20Z</time>
  <course>295.2</course>
  <speed>4.97639427698409</speed>
  <fix>3d</fix>
</trkpt>
<trkpt lat="40.0717981" lon="-105.2298982">
  <ele>1583.0</ele>
  <time>2026-08-28T17:51:20Z</time>
  <course>294.25</course>
  <speed>5.02</speed>
  <fix>3d</fix>
</trkpt>
<trkpt lat="40.0718043" lon="-105.2299157">
  <ele>1582.92</ele>
  <time>2026-08-28T17:51:20Z</time>
  <course>295.2</course>
  <speed>4.97639427698409</speed>
  <fix>3d</fix>
</trkpt>
<trkpt lat="40.0718018" lon="-105.2299089">
  <ele>1583.0</ele>
  <time>2026-08-28T17:51:20Z</time>
  <course>294.22</course>
  <speed>5.01</speed>
  <fix>3d</fix>
</trkpt>
<trkpt lat="40.0718062" lon="-105.2299211">
  <ele>1582.91</ele>
  <time>2026-08-28T17:51:20Z</time>
  <course>295.17</course>
  <speed>4.97639427698409</speed>
  <fix>3d</fix>
</trkpt>
<trkpt lat="40.0718018" lon="-105.2299089">
  <ele>1583.0</ele>
  <time>2026-08-28T17:51:20Z</time>
  <course>294.22</course>
  <speed>5.01</speed>
  <fix>3d</fix>
</trkpt>
<trkpt lat="40.071808" lon="-105.2299265">
  <ele>1582.91</ele>
  <time>2026-08-28T17:51:20Z</time>
  <course>295.15</course>
  <speed>4.97639427698409</speed>
  <fix>3d</fix>
</trkpt>
<trkpt lat="40.0718055" lon="-105.2299196">
  <ele>1583.0</ele>
  <time>2026-08-28T17:51:20Z</time>
  <course>294.18</course>
  <speed>5.01</speed>
  <fix>3d</fix>
</trkpt>
<trkpt lat="40.0718099" lon="-105.2299319">
  <ele>1582.91</ele>
  <time>2026-08-28T17:51:20Z</time>
  <course>295.15</course>
  <speed>4.97639427698409</speed>
  <fix>3d</fix>
</trkpt>
<trkpt lat="40.0718055" lon="-105.2299196">
  <ele>1583.0</ele>
  <time>2026-08-28T17:51:20Z</time>
  <course>294.18</course>
  <speed>5.01</speed>
  <fix>3d</fix>
</trkpt>
<trkpt lat="40.0718117" lon="-105.2299373">
  <ele>1582.91</ele>
  <time>2026-08-28T17:51:20Z</time>
  <course>295.12</course>
  <speed>4.97639427698409</speed>
  <fix>3d</fix>
</trkpt>
<trkpt lat="40.0718055" lon="-105.2299196">
  <ele>1583.0</ele>
  <time>2026-08-28T17:51:20Z</time>
  <course>294.18</course>
  <speed>5.01</speed>
  <fix>3d</fix>
</trkpt>
<trkpt lat="40.0718135" lon="-105.2299426">
  <ele>1582.9</ele>
  <time>2026-08-28T17:51:20Z</time>
  <course>295.1</course>
  <speed>4.972263066250618</speed>
  <fix>3d</fix>
</trkpt>
<trkpt lat="40.0718092" lon="-105.2299304">
  <ele>1583.0</ele>
  <time>2026-08-28T17:51:20Z</time>
  <course>294.14</course>
  <speed>5.0</speed>
  <fix>3d</fix>
</trkpt>
<trkpt lat="40.0718154" lon="-105.2299479">
  <ele>1582.9</ele>
  <time>2026-08-28T17:51:20Z</time>
  <course>295.1</course>
  <speed>4.963154238989556</speed>
  <fix>3d</fix>
</trkpt>
<trkpt lat="40.0718092" lon="-105.2299304">
  <ele>1583.0</ele>
  <time>2026-08-28T17:51:20Z</time>
  <course>294.14</course>
  <speed>5.0</speed>
  <fix>3d</fix>
</trkpt>
<trkpt lat="40.0718172" lon="-105.2299532">
  <ele>1582.9</ele>
  <time>2026-08-28T17:51:20Z</time>
  <course>295.08</course>
  <speed>4.963154238989556</speed>
  <fix>3d</fix>
</trkpt>
<trkpt lat="40.0718129" lon="-105.2299411">
  <ele>1583.0</ele>
  <time>2026-08-28T17:51:20Z</time>
  <course>294.11</course>
  <speed>5.0</speed>
  <fix>3d</fix>
</trkpt>
<trkpt lat="40.071819" lon="-105.2299585">
  <ele>1582.9</ele>
  <time>2026-08-28T17:51:20Z</time>
  <course>295.05</course>
  <speed>4.963154238989556</speed>
  <fix>3d</fix>
</trkpt>
<trkpt lat="40.0718129" lon="-105.2299411">
  <ele>1583.0</ele>
  <time>2026-08-28T17:51:20Z</time>
  <course>294.11</course>
  <speed>5.0</speed>
  <fix>3d</fix>
</trkpt>
<trkpt lat="40.0718208" lon="-105.2299638">
  <ele>1582.9</ele>
  <time>2026-08-28T17:51:20Z</time>
  <course>295.05</course>
  <speed>4.949919191259591</speed>
  <fix>3d</fix>
</trkpt>
<trkpt lat="40.0718165" lon="-105.2299519">
  <ele>1583.0</ele>
  <time>2026-08-28T17:51:20Z</time>
  <course>294.07</course>
  <speed>4.99</speed>
  <fix>3d</fix>
</trkpt>
<trkpt lat="40.0718227" lon="-105.2299692">
  <ele>1582.9</ele>
  <time>2026-08-28T17:51:20Z</time>
  <course>295.03</course>
  <speed>4.949919191259591</speed>
  <fix>3d</fix>
</trkpt>
<trkpt lat="40.0718202" lon="-105.2299626">
  <ele>1583.0</ele>
  <time>2026-08-28T17:51:20Z</time>
  <course>294.03</course>
  <speed>4.99</speed>
  <fix>3d</fix>
</trkpt>
<trkpt lat="40.0718245" lon="-105.2299745">
  <ele>1582.9</ele>
  <time>2026-08-28T17:51:20Z</time>
  <course>295.03</course>
  <speed>4.949919191259591</speed>
  <fix>3d</fix>
</trkpt>
<trkpt lat="40.0718202" lon="-105.2299626">
  <ele>1583.0</ele>
  <time>2026-08-28T17:51:20Z</time>
  <course>294.03</course>
  <speed>4.99</speed>
  <fix>3d</fix>
</trkpt>
<trkpt lat="40.0718263" lon="-105.2299799">
  <ele>1582.9</ele>
  <time>2026-08-28T17:51:20Z</time>
  <course>295.0</course>
  <speed>4.949919191259591</speed>
  <fix>3d</fix>
</trkpt>
<trkpt lat="40.0718239" lon="-105.2299733">
  <ele>1583.0</ele>
  <time>2026-08-28T17:51:20Z</time>
  <course>294.0</course>
  <speed>4.99</speed>
  <fix>3d</fix>
</trkpt>
<trkpt lat="40.0718281" lon="-105.2299852">
  <ele>1582.9</ele>
  <time>2026-08-28T17:51:20Z</time>
  <course>295.0</course>
  <speed>4.959032163638384</speed>
  <fix>3d</fix>
</trkpt>
<trkpt lat="40.0718239" lon="-105.2299733">
  <ele>1583.0</ele>
  <time>2026-08-28T17:51:20Z</time>
  <course>294.0</course>
  <speed>4.99</speed>
  <fix>3d</fix>
</trkpt>
<trkpt lat="40.07183" lon="-105.2299906">
  <ele>1582.9</ele>
  <time>2026-08-28T17:51:20Z</time>
  <course>294.99</course>
  <speed>4.959032163638384</speed>
  <fix>3d</fix>
</trkpt>
<trkpt lat="40.0718275" lon="-105.229984">
  <ele>1583.0</ele>
  <time>2026-08-28T17:51:20Z</time>
  <course>293.98</course>
  <speed>4.99</speed>
  <fix>3d</fix>
</trkpt>
<trkpt lat="40.0718318" lon="-105.229996">
  <ele>1582.9</ele>
  <time>2026-08-28T17:51:20Z</time>
  <course>294.98</course>
  <speed>4.959032163638384</speed>
  <fix>3d</fix>
</trkpt>
<trkpt lat="40.0718275" lon="-105.229984">
  <ele>1583.0</ele>
  <time>2026-08-28T17:51:20Z</time>
  <course>293.98</course>
  <speed>4.99</speed>
  <fix>3d</fix>
</trkpt>
<trkpt lat="40.0718336" lon="-105.2300013">
  <ele>1582.9</ele>
  <time>2026-08-28T17:51:20Z</time>
  <course>294.98</course>
  <speed>4.959032163638384</speed>
  <fix>3d</fix>
</trkpt>
<trkpt lat="40.0718312" lon="-105.2299947">
  <ele>1583.0</ele>
  <time>2026-08-28T17:51:20Z</time>
  <course>293.97</course>
  <speed>4.99</speed>
  <fix>3d</fix>
</trkpt>
<trkpt lat="40.0718355" lon="-105.2300067">
  <ele>1582.9</ele>
  <time>2026-08-28T17:51:20Z</time>
  <course>294.98</course>
  <speed>4.959032163638384</speed>
  <fix>3d</fix>
</trkpt>
<trkpt lat="40.0718312" lon="-105.2299947">
  <ele>1583.0</ele>
  <time>2026-08-28T17:51:20Z</time>
  <course>293.97</course>
  <speed>4.99</speed>
  <fix>3d</fix>
</trkpt>
<trkpt lat="40.0718373" lon="-105.2300121">
  <ele>1582.9</ele>
  <time>2026-08-28T17:51:20Z</time>
  <course>294.98</course>
  <speed>4.949919191259591</speed>
  <fix>3d</fix>
</trkpt>
<trkpt lat="40.0718348" lon="-105.2300054">
  <ele>1583.0</ele>
  <time>2026-08-28T17:51:20Z</time>
  <course>293.96</course>
  <speed>4.99</speed>
  <fix>3d</fix>
</trkpt>
<trkpt lat="40.0718391" lon="-105.2300175">
  <ele>1582.9</ele>
  <time>2026-08-28T17:51:20Z</time>
  <course>294.98</course>
  <speed>4.945806304335017</speed>
  <fix>3d</fix>
</trkpt>
<trkpt lat="40.0718348" lon="-105.2300054">
  <ele>1583.0</ele>
  <time>2026-08-28T17:51:20Z</time>
  <course>293.96</course>
  <speed>4.99</speed>
  <fix>3d</fix>
</trkpt>
<trkpt lat="40.071841" lon="-105.2300229">
  <ele>1582.9</ele>
  <time>2026-08-28T17:51:20Z</time>
  <course>294.99</course>
  <speed>4.927575468726989</speed>
  <fix>3d</fix>
</trkpt>
<trkpt lat="40.0718384" lon="-105.2300161">
  <ele>1583.0</ele>
  <time>2026-08-28T17:51:20Z</time>
  <course>293.96</course>
  <speed>4.97</speed>
  <fix>3d</fix>
</trkpt>
<trkpt lat="40.0718428" lon="-105.2300282">
  <ele>1582.9</ele>
  <time>2026-08-28T17:51:20Z</time>
  <course>294.99</course>
  <speed>4.905231900736193</speed>
  <fix>3d</fix>
</trkpt>
<trkpt lat="40.0718384" lon="-105.2300161">
  <ele>1583.0</ele>
  <time>2026-08-28T17:51:20Z</time>
  <course>293.96</course>
  <speed>4.97</speed>
  <fix>3d</fix>
</trkpt>
<trkpt lat="40.0718446" lon="-105.2300335">
  <ele>1582.9</ele>
  <time>2026-08-28T17:51:20Z</time>
  <course>294.99</course>
  <speed>4.860545236905012</speed>
  <fix>3d</fix>
</trkpt>
<trkpt lat="40.0718421" lon="-105.2300267">
  <ele>1583.0</ele>
  <time>2026-08-28T17:51:20Z</time>
  <course>293.96</course>
  <speed>4.92</speed>
  <fix>3d</fix>
</trkpt>
<trkpt lat="40.0718464" lon="-105.2300387">
  <ele>1582.9</ele>
  <time>2026-08-28T17:51:20Z</time>
  <course>294.99</course>
  <speed>4.8158592172114005</speed>
  <fix>3d</fix>
</trkpt>
<trkpt lat="40.0718421" lon="-105.2300267">
  <ele>1583.0</ele>
  <time>2026-08-28T17:51:20Z</time>
  <course>293.96</course>
  <speed>4.92</speed>
  <fix>3d</fix>
</trkpt>
<trkpt lat="40.0718481" lon="-105.2300439">
  <ele>1582.91</ele>
  <time>2026-08-28T17:51:20Z</time>
  <course>294.99</course>
  <speed>4.762058378474586</speed>
  <fix>3d</fix>
</trkpt>
<trkpt lat="40.0718421" lon="-105.2300267">
  <ele>1583.0</ele>
  <time>2026-08-28T17:51:20Z</time>
  <course>293.96</course>
  <speed>4.92</speed>
  <fix>3d</fix>
</trkpt>
<trkpt lat="40.0718499" lon="-105.230049">
  <ele>1582.91</ele>
  <time>2026-08-28T17:51:20Z</time>
  <course>294.99</course>
  <speed>4.695029286383632</speed>
  <fix>3d</fix>
</trkpt>
<trkpt lat="40.0718456" lon="-105.2300372">
  <ele>1583.0</ele>
  <time>2026-08-28T17:51:20Z</time>
  <course>293.96</course>
  <speed>4.84</speed>
  <fix>3d</fix>
</trkpt>
<trkpt lat="40.0718516" lon="-105.230054">
  <ele>1582.91</ele>
  <time>2026-08-28T17:51:20Z</time>
  <course>294.99</course>
  <speed>4.6097722286464435</speed>
  <fix>3d</fix>
</trkpt>
<trkpt lat="40.0718456" lon="-105.2300372">
  <ele>1583.0</ele>
  <time>2026-08-28T17:51:20Z</time>
  <course>293.96</course>
  <speed>4.84</speed>
  <fix>3d</fix>
</trkpt>
<trkpt lat="40.0718532" lon="-105.2300588">
  <ele>1582.91</ele>
  <time>2026-08-28T17:51:20Z</time>
  <course>294.99</course>
  <speed>4.520398212547209</speed>
  <fix>3d</fix>
</trkpt>
<trkpt lat="40.0718491" lon="-105.2300475">
  <ele>1583.0</ele>
  <time>2026-08-28T17:51:20Z</time>
  <course>293.96</course>
  <speed>4.71</speed>
  <fix>3d</fix>
</trkpt>
<trkpt lat="40.0718548" lon="-105.2300636">
  <ele>1582.91</ele>
  <time>2026-08-28T17:51:20Z</time>
  <course>294.99</course>
  <speed>4.421911351440687</speed>
  <fix>3d</fix>
</trkpt>
<trkpt lat="40.0718491" lon="-105.2300475">
  <ele>1583.0</ele>
  <time>2026-08-28T17:51:20Z</time>
  <course>293.96</course>
  <speed>4.71</speed>
  <fix>3d</fix>
</trkpt>
<trkpt lat="40.0718564" lon="-105.2300683">
  <ele>1582.92</ele>
  <time>2026-08-28T17:51:20Z</time>
  <course>295.0</course>
  <speed>4.310197211265397</speed>
  <fix>3d</fix>
</trkpt>
<trkpt lat="40.0718525" lon="-105.2300574">
  <ele>1583.0</ele>
  <time>2026-08-28T17:51:20Z</time>
  <course>293.96</course>
  <speed>4.54</speed>
  <fix>3d</fix>
</trkpt>
<trkpt lat="40.0718579" lon="-105.2300728">
  <ele>1582.92</ele>
  <time>2026-08-28T17:51:20Z</time>
  <course>295.0</course>
  <speed>4.198487823014377</speed>
  <fix>3d</fix>
</trkpt>
<trkpt lat="40.0718525" lon="-105.2300574">
  <ele>1583.0</ele>
  <time>2026-08-28T17:51:20Z</time>
  <course>293.96</course>
  <speed>4.54</speed>
  <fix>3d</fix>
</trkpt>
<trkpt lat="40.0718594" lon="-105.2300773">
  <ele>1582.92</ele>
  <time>2026-08-28T17:51:20Z</time>
  <course>295.0</course>
  <speed>4.077658641916952</speed>
  <fix>3d</fix>
</trkpt>
<trkpt lat="40.0718557" lon="-105.230067">
  <ele>1583.0</ele>
  <time>2026-08-28T17:51:20Z</time>
  <course>293.96</course>
  <speed>4.34</speed>
  <fix>3d</fix>
</trkpt>
<trkpt lat="40.0718609" lon="-105.2300815">
  <ele>1582.92</ele>
  <time>2026-08-28T17:51:20Z</time>
  <course>295.0</course>
  <speed>3.956829538911172</speed>
  <fix>3d</fix>
</trkpt>
<trkpt lat="40.0718588" lon="-105.230076">
  <ele>1583.0</ele>
  <time>2026-08-28T17:51:20Z</time>
  <course>293.96</course>
  <speed>4.12</speed>
  <fix>3d</fix>
</trkpt>
<trkpt lat="40.0718623" lon="-105.2300857">
  <ele>1582.92</ele>
  <time>2026-08-28T17:51:20Z</time>
  <course>295.0</course>
  <speed>3.836000521376398</speed>
  <fix>3d</fix>
</trkpt>
<trkpt lat="40.0718588" lon="-105.230076">
  <ele>1583.0</ele>
  <time>2026-08-28T17:51:20Z</time>
  <course>293.96</course>
  <speed>4.12</speed>
  <fix>3d</fix>
</trkpt>
<trkpt lat="40.0718637" lon="-105.2300897">
  <ele>1582.92</ele>
  <time>2026-08-28T17:51:20Z</time>
  <course>295.0</course>
  <speed>3.7060491092266976</speed>
  <fix>3d</fix>
</trkpt>
<trkpt lat="40.0718617" lon="-105.2300846">
  <ele>1583.0</ele>
  <time>2026-08-28T17:51:20Z</time>
  <course>293.96</course>
  <speed>3.88</speed>
  <fix>3d</fix>
</trkpt>
<trkpt lat="40.071865" lon="-105.2300937">
  <ele>1582.92</ele>
  <time>2026-08-28T17:51:20Z</time>
  <course>294.91</course>
  <speed>3.523251339317137</speed>
  <fix>3d</fix>
</trkpt>
<trkpt lat="40.0718617" lon="-105.2300846">
  <ele>1583.0</ele>
  <time>2026-08-28T17:51:20Z</time>
  <course>293.96</course>
  <speed>3.88</speed>
  <fix>3d</fix>
</trkpt>
<trkpt lat="40.0718662" lon="-105.2300974">
  <ele>1582.92</ele>
  <time>2026-08-28T17:51:20Z</time>
  <course>294.86</course>
  <speed>3.3486116526106757</speed>
  <fix>3d</fix>
</trkpt>
<trkpt lat="40.0718644" lon="-105.2300927">
  <ele>1583.0</ele>
  <time>2026-08-28T17:51:20Z</time>
  <course>293.89</course>
  <speed>3.57</speed>
  <fix>3d</fix>
</trkpt>
<trkpt lat="40.0718674" lon="-105.2301009">
  <ele>1582.92</ele>
  <time>2026-08-28T17:51:20Z</time>
  <course>294.82</course>
  <speed>3.179072191693671</speed>
  <fix>3d</fix>
</trkpt>
<trkpt lat="40.0718644" lon="-105.2300927">
  <ele>1583.0</ele>
  <time>2026-08-28T17:51:20Z</time>
  <course>293.89</course>
  <speed>3.57</speed>
  <fix>3d</fix>
</trkpt>
<trkpt lat="40.0718685" lon="-105.2301043">
  <ele>1582.92</ele>
  <time>2026-08-28T17:51:20Z</time>
  <course>294.77</course>
  <speed>3.017614952242913</speed>
  <fix>3d</fix>
</trkpt>
<trkpt lat="40.0718669" lon="-105.2300999">
  <ele>1583.0</ele>
  <time>2026-08-28T17:51:20Z</time>
  <course>293.77</course>
  <speed>3.23</speed>
  <fix>3d</fix>
</trkpt>
<trkpt lat="40.0718696" lon="-105.2301075">
  <ele>1582.92</ele>
  <time>2026-08-28T17:51:20Z</time>
  <course>294.73</course>
  <speed>2.870435507026765</speed>
  <fix>3d</fix>
</trkpt>
<trkpt lat="40.0718669" lon="-105.2300999">
  <ele>1583.0</ele>
  <time>2026-08-28T17:51:20Z</time>
  <course>293.77</course>
  <speed>3.23</speed>
  <fix>3d</fix>
</trkpt>
<trkpt lat="40.0718706" lon="-105.2301105">
  <ele>1582.92</ele>
  <time>2026-08-28T17:51:20Z</time>
  <course>294.7</course>
  <speed>2.727288030260097</speed>
  <fix>3d</fix>
</trkpt>
<trkpt lat="40.0718691" lon="-105.2301066">
  <ele>1583.0</ele>
  <time>2026-08-28T17:51:20Z</time>
  <course>293.68</course>
  <speed>2.93</speed>
  <fix>3d</fix>
</trkpt>
<trkpt lat="40.0718715" lon="-105.2301134">
  <ele>1582.92</ele>
  <time>2026-08-28T17:51:20Z</time>
  <course>294.66</course>
  <speed>2.584143958838207</speed>
  <fix>3d</fix>
</trkpt>
<trkpt lat="40.0718691" lon="-105.2301066">
  <ele>1583.0</ele>
  <time>2026-08-28T17:51:20Z</time>
  <course>293.68</course>
  <speed>2.93</speed>
  <fix>3d</fix>
</trkpt>
<trkpt lat="40.0718724" lon="-105.2301161">
  <ele>1582.92</ele>
  <time>2026-08-28T17:51:20Z</time>
  <course>294.63</course>
  <speed>2.454159734002659</speed>
  <fix>3d</fix>
</trkpt>
<trkpt lat="40.0718712" lon="-105.2301126">
  <ele>1583.0</ele>
  <time>2026-08-28T17:51:20Z</time>
  <course>293.61</course>
  <speed>2.65</speed>
  <fix>3d</fix>
</trkpt>
<trkpt lat="40.0718733" lon="-105.2301188">
  <ele>1582.91</ele>
  <time>2026-08-28T17:51:20Z</time>
  <course>294.6</course>
  <speed>2.3333452380648687</speed>
  <fix>3d</fix>
</trkpt>
<trkpt lat="40.0718712" lon="-105.2301126">
  <ele>1583.0</ele>
  <time>2026-08-28T17:51:20Z</time>
  <course>293.61</course>
  <speed>2.65</speed>
  <fix>3d</fix>
</trkpt>
<trkpt lat="40.0718741" lon="-105.2301212">
  <ele>1582.91</ele>
  <time>2026-08-28T17:51:20Z</time>
  <course>294.57</course>
  <speed>2.2125324856372166</speed>
  <fix>3d</fix>
</trkpt>
<trkpt lat="40.071873" lon="-105.230118">
  <ele>1583.0</ele>
  <time>2026-08-28T17:51:20Z</time>
  <course>293.54</course>
  <speed>2.39</speed>
  <fix>3d</fix>
</trkpt>
<trkpt lat="40.0718748" lon="-105.2301236">
  <ele>1582.91</ele>
  <time>2026-08-28T17:51:20Z</time>
  <course>294.54</course>
  <speed>2.1009045670853306</speed>
  <fix>3d</fix>
</trkpt>
<trkpt lat="40.071873" lon="-105.230118">
  <ele>1583.0</ele>
  <time>2026-08-28T17:51:20Z</time>
  <course>293.54</course>
  <speed>2.39</speed>
  <fix>3d</fix>
</trkpt>
<trkpt lat="40.0718756" lon="-105.2301258">
  <ele>1582.91</ele>
  <time>2026-08-28T17:51:20Z</time>
  <course>294.51</course>
  <speed>1.9932385707686877</speed>
  <fix>3d</fix>
</trkpt>
<trkpt lat="40.071873" lon="-105.230118">
  <ele>1583.0</ele>
  <time>2026-08-28T17:51:20Z</time>
  <course>293.54</course>
  <speed>2.39</speed>
  <fix>3d</fix>
</trkpt>
<trkpt lat="40.0718763" lon="-105.2301279">
  <ele>1582.9</ele>
  <time>2026-08-28T17:51:20Z</time>
  <course>294.48</course>
  <speed>1.8947559209565754</speed>
  <fix>3d</fix>
</trkpt>
<trkpt lat="40.0718746" lon="-105.2301229">
  <ele>1583.0</ele>
  <time>2026-08-28T17:51:20Z</time>
  <course>293.48</course>
  <speed>2.17</speed>
  <fix>3d</fix>
</trkpt>
<trkpt lat="40.0718769" lon="-105.2301299">
  <ele>1582.9</ele>
  <time>2026-08-28T17:51:20Z</time>
  <course>294.46</course>
  <speed>1.7962739212046697</speed>
  <fix>3d</fix>
</trkpt>
<trkpt lat="40.0718746" lon="-105.2301229">
  <ele>1583.0</ele>
  <time>2026-08-28T17:51:20Z</time>
  <course>293.48</course>
  <speed>2.17</speed>
  <fix>3d</fix>
</trkpt>
<trkpt lat="40.0718775" lon="-105.2301318">
  <ele>1582.89</ele>
  <time>2026-08-28T17:51:20Z</time>
  <course>294.44</course>
  <speed>1.7069856472741651</speed>
  <fix>3d</fix>
</trkpt>
<trkpt lat="40.0718761" lon="-105.2301273">
  <ele>1583.0</ele>
  <time>2026-08-28T17:51:20Z</time>
  <course>293.42</course>
  <speed>1.96</speed>
  <fix>3d</fix>
</trkpt>
<trkpt lat="40.0718781" lon="-105.2301336">
  <ele>1582.89</ele>
  <time>2026-08-28T17:51:20Z</time>
  <course>294.41</course>
  <speed>1.6124515496597098</speed>
  <fix>3d</fix>
</trkpt>
<trkpt lat="40.0718761" lon="-105.2301273">
  <ele>1583.0</ele>
  <time>2026-08-28T17:51:20Z</time>
  <course>293.42</course>
  <speed>1.96</speed>
  <fix>3d</fix>
</trkpt>
<trkpt lat="40.0718787" lon="-105.2301353">
  <ele>1582.89</ele>
  <time>2026-08-28T17:51:20Z</time>
  <course>294.39</course>
  <speed>1.5323511346946561</speed>
  <fix>3d</fix>
</trkpt>
<trkpt lat="40.0718774" lon="-105.2301314">
  <ele>1583.0</ele>
  <time>2026-08-28T17:51:20Z</time>
  <course>293.37</course>
  <speed>1.77</speed>
  <fix>3d</fix>
</trkpt>
<trkpt lat="40.0718792" lon="-105.2301369">
  <ele>1582.88</ele>
  <time>2026-08-28T17:51:20Z</time>
  <course>294.37</course>
  <speed>1.4469968901141426</speed>
  <fix>3d</fix>
</trkpt>
<trkpt lat="40.0718786" lon="-105.2301351">
  <ele>1583.0</ele>
  <time>2026-08-28T17:51:20Z</time>
  <course>293.32</course>
  <speed>1.6</speed>
  <fix>3d</fix>
</trkpt>
<trkpt lat="40.0718797" lon="-105.2301385">
  <ele>1582.87</ele>
  <time>2026-08-28T17:51:20Z</time>
  <course>294.35</course>
  <speed>1.3800362314084367</speed>
  <fix>3d</fix>
</trkpt>
<trkpt lat="40.0718786" lon="-105.2301351">
  <ele>1583.0</ele>
  <time>2026-08-28T17:51:20Z</time>
  <course>293.32</course>
  <speed>1.6</speed>
  <fix>3d</fix>
</trkpt>
<trkpt lat="40.0718802" lon="-105.23014">
  <ele>1582.87</ele>
  <time>2026-08-28T17:51:20Z</time>
  <course>294.34</course>
  <speed>1.3038788287260439</speed>
  <fix>3d</fix>
</trkpt>
<trkpt lat="40.0718797" lon="-105.2301383">
  <ele>1583.0</ele>
  <time>2026-08-28T17:51:20Z</time>
  <course>293.28</course>
  <speed>1.45</speed>
  <fix>3d</fix>
</trkpt>
<trkpt lat="40.0718807" lon="-105.2301414">
  <ele>1582.87</ele>
  <time>2026-08-28T17:51:20Z</time>
  <course>294.32</course>
  <speed>1.2408464852672147</speed>
  <fix>3d</fix>
</trkpt>
<trkpt lat="40.0718797" lon="-105.2301383">
  <ele>1583.0</ele>
  <time>2026-08-28T17:51:20Z</time>
  <course>293.28</course>
  <speed>1.45</speed>
  <fix>3d</fix>
</trkpt>
<trkpt lat="40.0718811" lon="-105.2301427">
  <ele>1582.86</ele>
  <time>2026-08-28T17:51:20Z</time>
  <course>294.3</course>
  <speed>1.1738824472663352</speed>
  <fix>3d</fix>
</trkpt>
<trkpt lat="40.0718807" lon="-105.2301413">
  <ele>1583.0</ele>
  <time>2026-08-28T17:51:20Z</time>
  <course>293.24</course>
  <speed>1.31</speed>
  <fix>3d</fix>
</trkpt>
<trkpt lat="40.0718816" lon="-105.230144">
  <ele>1582.86</ele>
  <time>2026-08-28T17:51:20Z</time>
  <course>294.29</course>
  <speed>1.1108555261599051</speed>
  <fix>3d</fix>
</trkpt>
<trkpt lat="40.0718807" lon="-105.2301413">
  <ele>1583.0</ele>
  <time>2026-08-28T17:51:20Z</time>
  <course>293.24</course>
  <speed>1.31</speed>
  <fix>3d</fix>
</trkpt>
<trkpt lat="40.071882" lon="-105.2301452">
  <ele>1582.86</ele>
  <time>2026-08-28T17:51:20Z</time>
  <course>294.27</course>
  <speed>1.057024124606435</speed>
  <fix>3d</fix>
</trkpt>
<trkpt lat="40.0718816" lon="-105.230144">
  <ele>1583.0</ele>
  <time>2026-08-28T17:51:20Z</time>
  <course>293.21</course>
  <speed>1.19</speed>
  <fix>3d</fix>
</trkpt>
<trkpt lat="40.0718824" lon="-105.2301464">
  <ele>1582.86</ele>
  <time>2026-08-28T17:51:20Z</time>
  <course>294.26</course>
  <speed>1.0031948963187562</speed>
  <fix>3d</fix>
</trkpt>
<trkpt lat="40.0718816" lon="-105.230144">
  <ele>1583.0</ele>
  <time>2026-08-28T17:51:20Z</time>
  <course>293.21</course>
  <speed>1.19</speed>
  <fix>3d</fix>
</trkpt>
<trkpt lat="40.0718827" lon="-105.2301475">
  <ele>1582.86</ele>
  <time>2026-08-28T17:51:20Z</time>
  <course>294.25</course>
  <speed>0.9493682109698007</speed>
  <fix>3d</fix>
</trkpt>
<trkpt lat="40.0718823" lon="-105.2301465">
  <ele>1583.0</ele>
  <time>2026-08-28T17:51:20Z</time>
  <course>293.18</course>
  <speed>1.07</speed>
  <fix>3d</fix>
</trkpt>
<trkpt lat="40.0718831" lon="-105.2301486">
  <ele>1582.87</ele>
  <time>2026-08-28T17:51:20Z</time>
  <course>294.24</course>
  <speed>0.9047098982546836</speed>
  <fix>3d</fix>
</trkpt>
<trkpt lat="40.0718823" lon="-105.2301465">
  <ele>1583.0</ele>
  <time>2026-08-28T17:51:20Z</time>
  <course>293.18</course>
  <speed>1.07</speed>
  <fix>3d</fix>
</trkpt>
<trkpt lat="40.0718834" lon="-105.2301496">
  <ele>1582.87</ele>
  <time>2026-08-28T17:51:20Z</time>
  <course>294.22</course>
  <speed>0.850881895447306</speed>
  <fix>3d</fix>
</trkpt>
<trkpt lat="40.0718831" lon="-105.2301487">
  <ele>1583.0</ele>
  <time>2026-08-28T17:51:20Z</time>
  <course>293.15</course>
  <speed>0.97</speed>
  <fix>3d</fix>
</trkpt>
<trkpt lat="40.0718837" lon="-105.2301505">
  <ele>1582.88</ele>
  <time>2026-08-28T17:51:20Z</time>
  <course>294.21</course>
  <speed>0.8102468759581859</speed>
  <fix>3d</fix>
</trkpt>
<trkpt lat="40.0718831" lon="-105.2301487">
  <ele>1583.0</ele>
  <time>2026-08-28T17:51:20Z</time>
  <course>293.15</course>
  <speed>0.97</speed>
  <fix>3d</fix>
</trkpt>
<trkpt lat="40.071884" lon="-105.2301514">
  <ele>1582.89</ele>
  <time>2026-08-28T17:51:20Z</time>
  <course>294.21</course>
  <speed>0.7655716818169281</speed>
  <fix>3d</fix>
</trkpt>
<trkpt lat="40.0718837" lon="-105.2301507">
  <ele>1583.0</ele>
  <time>2026-08-28T17:51:20Z</time>
  <course>293.13</course>
  <speed>0.88</speed>
  <fix>3d</fix>
</trkpt>
<trkpt lat="40.0718851" lon="-105.2301546">
  <ele>1582.94</ele>
  <time>2026-08-28T17:51:20Z</time>
  <course>294.17</course>
  <speed>0.6174139616173252</speed>
  <fix>3d</fix>
</trkpt>
<trkpt lat="40.0718844" lon="-105.2301525">
  <ele>1583.0</ele>
  <time>2026-08-28T17:51:20Z</time>
  <course>293.1</course>
  <speed>0.79</speed>
  <fix>3d</fix>
</trkpt>
<trkpt lat="40.0718858" lon="-105.2301566">
  <ele>1582.96</ele>
  <time>2026-08-28T17:51:20Z</time>
  <course>294.15</course>
  <speed>0.5322593352868505</speed>
  <fix>3d</fix>
</trkpt>
<trkpt lat="40.0718854" lon="-105.2301557">
  <ele>1583.0</ele>
  <time>2026-08-28T17:51:20Z</time>
  <course>293.07</course>
  <speed>0.65</speed>
  <fix>3d</fix>
</trkpt>
<trkpt lat="40.071886" lon="-105.2301572">
  <ele>1582.97</ele>
  <time>2026-08-28T17:51:20Z</time>
  <course>294.14</course>
  <speed>0.5008991914547277</speed>
  <fix>3d</fix>
</trkpt>
<trkpt lat="40.0718854" lon="-105.2301557">
  <ele>1583.0</ele>
  <time>2026-08-28T17:51:20Z</time>
  <course>293.07</course>
  <speed>0.65</speed>
  <fix>3d</fix>
</trkpt>
<trkpt lat="40.0718862" lon="-105.2301578">
  <ele>1582.97</ele>
  <time>2026-08-28T17:51:20Z</time>
  <course>294.13</course>
  <speed>0.47853944456021597</speed>
  <fix>3d</fix>
</trkpt>
<trkpt lat="40.0718858" lon="-105.230157">
  <ele>1583.0</ele>
  <time>2026-08-28T17:51:20Z</time>
  <course>293.05</course>
  <speed>0.59</speed>
  <fix>3d</fix>
</trkpt>
<trkpt lat="40.0718864" lon="-105.2301584">
  <ele>1582.96</ele>
  <time>2026-08-28T17:51:20Z</time>
  <course>294.13</course>
  <speed>0.447213595499958</speed>
  <fix>3d</fix>
</trkpt>
<trkpt lat="40.0718862" lon="-105.2301582">
  <ele>1583.0</ele>
  <time>2026-08-28T17:51:20Z</time>
  <course>293.03</course>
  <speed>0.53</speed>
  <fix>3d</fix>
</trkpt>
<trkpt lat="40.0718866" lon="-105.2301589">
  <ele>1582.96</ele>
  <time>2026-08-28T17:51:20Z</time>
  <course>294.12</course>
  <speed>0.42485291572496003</speed>
  <fix>3d</fix>
</trkpt>
<trkpt lat="40.0718862" lon="-105.2301582">
  <ele>1583.0</ele>
  <time>2026-08-28T17:51:20Z</time>
  <course>293.03</course>
  <speed>0.53</speed>
  <fix>3d</fix>
</trkpt>
<trkpt lat="40.0718867" lon="-105.2301594">
  <ele>1582.96</ele>
  <time>2026-08-28T17:51:20Z</time>
  <course>294.11</course>
  <speed>0.40249223594996214</speed>
  <fix>3d</fix>
</trkpt>
<trkpt lat="40.0718866" lon="-105.2301593">
  <ele>1583.0</ele>
  <time>2026-08-28T17:51:20Z</time>
  <course>293.02</course>
  <speed>0.48</speed>
  <fix>3d</fix>
</trkpt>
<trkpt lat="40.0718871" lon="-105.2301603">
  <ele>1582.95</ele>
  <time>2026-08-28T17:51:20Z</time>
  <course>294.1</course>
  <speed>0.36235341863986875</speed>
  <fix>3d</fix>
</trkpt>
<trkpt lat="40.0718869" lon="-105.2301603">
  <ele>1583.0</ele>
  <time>2026-08-28T17:51:20Z</time>
  <course>293.01</course>
  <speed>0.43</speed>
  <fix>3d</fix>
</trkpt>
<trkpt lat="40.0718872" lon="-105.2301608">
  <ele>1582.95</ele>
  <time>2026-08-28T17:51:20Z</time>
  <course>294.1</course>
  <speed>0.3488552708502482</speed>
  <fix>3d</fix>
</trkpt>
<trkpt lat="40.0718869" lon="-105.2301603">
  <ele>1583.0</ele>
  <time>2026-08-28T17:51:20Z</time>
  <course>293.01</course>
  <speed>0.43</speed>
  <fix>3d</fix>
</trkpt>
<trkpt lat="40.0718874" lon="-105.2301612">
  <ele>1582.95</ele>
  <time>2026-08-28T17:51:20Z</time>
  <course>294.09</course>
  <speed>0.3312099032335839</speed>
  <fix>3d</fix>
</trkpt>
<trkpt lat="40.0718872" lon="-105.2301612">
  <ele>1583.0</ele>
  <time>2026-08-28T17:51:20Z</time>
  <course>293.0</course>
  <speed>0.39</speed>
  <fix>3d</fix>
</trkpt>
<trkpt lat="40.0718875" lon="-105.2301616">
  <ele>1582.95</ele>
  <time>2026-08-28T17:51:20Z</time>
  <course>294.08</course>
  <speed>0.30886890422961</speed>
  <fix>3d</fix>
</trkpt>
<trkpt lat="40.0718872" lon="-105.2301612">
  <ele>1583.0</ele>
  <time>2026-08-28T17:51:20Z</time>
  <course>293.0</course>
  <speed>0.39</speed>
  <fix>3d</fix>
</trkpt>
<trkpt lat="40.0718876" lon="-105.230162">
  <ele>1582.95</ele>
  <time>2026-08-28T17:51:20Z</time>
  <course>294.08</course>
  <speed>0.30016662039607267</speed>
  <fix>3d</fix>
</trkpt>
<trkpt lat="40.0718875" lon="-105.230162">
  <ele>1583.0</ele>
  <time>2026-08-28T17:51:20Z</time>
  <course>292.99</course>
  <speed>0.35</speed>
  <fix>3d</fix>
</trkpt>
<trkpt lat="40.0718878" lon="-105.2301623">
  <ele>1582.95</ele>
  <time>2026-08-28T17:51:20Z</time>
  <course>294.07</course>
  <speed>0.2778488797889961</speed>
  <fix>3d</fix>
</trkpt>
<trkpt lat="40.0718875" lon="-105.230162">
  <ele>1583.0</ele>
  <time>2026-08-28T17:51:20Z</time>
  <course>292.99</course>
  <speed>0.35</speed>
  <fix>3d</fix>
</trkpt>
<trkpt lat="40.0718879" lon="-105.2301627">
  <ele>1582.95</ele>
  <time>2026-08-28T17:51:20Z</time>
  <course>294.07</course>
  <speed>0.2692582403567252</speed>
  <fix>3d</fix>
</trkpt>
<trkpt lat="40.0718877" lon="-105.2301627">
  <ele>1583.0</ele>
  <time>2026-08-28T17:51:20Z</time>
  <course>292.98</course>
  <speed>0.32</speed>
  <fix>3d</fix>
</trkpt>
<trkpt lat="40.0718881" lon="-105.2301631">
  <ele>1582.96</ele>
  <time>2026-08-28T17:51:20Z</time>
  <course>294.07</course>
  <speed>0.24698178070456936</speed>
  <fix>3d</fix>
</trkpt>
<trkpt lat="40.0718877" lon="-105.2301627">
  <ele>1583.0</ele>
  <time>2026-08-28T17:51:20Z</time>
  <course>292.98</course>
  <speed>0.32</speed>
  <fix>3d</fix>
</trkpt>
<trkpt lat="40.0718881" lon="-105.2301633">
  <ele>1582.96</ele>
  <time>2026-08-28T17:51:20Z</time>
  <course>294.06</course>
  <speed>0.23853720883753127</speed>
  <fix>3d</fix>
</trkpt>
<trkpt lat="40.0718879" lon="-105.2301634">
  <ele>1583.0</ele>
  <time>2026-08-28T17:51:20Z</time>
  <course>292.98</course>
  <speed>0.29</speed>
  <fix>3d</fix>
</trkpt>
<trkpt lat="40.0718882" lon="-105.2301636">
  <ele>1582.96</ele>
  <time>2026-08-28T17:51:20Z</time>
  <course>294.06</course>
  <speed>0.22472205054244232</speed>
  <fix>3d</fix>
</trkpt>
<trkpt lat="40.0718879" lon="-105.2301634">
  <ele>1583.0</ele>
  <time>2026-08-28T17:51:20Z</time>
  <course>292.98</course>
  <speed>0.29</speed>
  <fix>3d</fix>
</trkpt>
<trkpt lat="40.0718883" lon="-105.2301639">
  <ele>1582.97</ele>
  <time>2026-08-28T17:51:20Z</time>
  <course>294.06</course>
  <speed>0.21633307652783937</speed>
  <fix>3d</fix>
</trkpt>
<trkpt lat="40.0718879" lon="-105.2301634">
  <ele>1583.0</ele>
  <time>2026-08-28T17:51:20Z</time>
  <course>292.98</course>
  <speed>0.29</speed>
  <fix>3d</fix>
</trkpt>
<trkpt lat="40.0718884" lon="-105.2301641">
  <ele>1582.97</ele>
  <time>2026-08-28T17:51:20Z</time>
  <course>294.06</course>
  <speed>0.20808652046684814</speed>
  <fix>3d</fix>
</trkpt>
<trkpt lat="40.0718881" lon="-105.2301641">
  <ele>1583.0</ele>
  <time>2026-08-28T17:51:20Z</time>
  <course>292.98</course>
  <speed>0.26</speed>
  <fix>3d</fix>
</trkpt>
<trkpt lat="40.0718885" lon="-105.2301644">
  <ele>1582.98</ele>
  <time>2026-08-28T17:51:20Z</time>
  <course>294.05</course>
  <speed>0.194164878389476</speed>
  <fix>3d</fix>
</trkpt>
<trkpt lat="40.0718881" lon="-105.2301641">
  <ele>1583.0</ele>
  <time>2026-08-28T17:51:20Z</time>
  <course>292.98</course>
  <speed>0.26</speed>
  <fix>3d</fix>
</trkpt>
<trkpt lat="40.0718886" lon="-105.2301646">
  <ele>1582.98</ele>
  <time>2026-08-28T17:51:20Z</time>
  <course>294.05</course>
  <speed>0.18601075237738274</speed>
  <fix>3d</fix>
</trkpt>
<trkpt lat="40.0718883" lon="-105.2301646">
  <ele>1583.0</ele>
  <time>2026-08-28T17:51:20Z</time>
  <course>292.98</course>
  <speed>0.24</speed>
  <fix>3d</fix>
</trkpt>
<trkpt lat="40.0718887" lon="-105.2301649">
  <ele>1582.98</ele>
  <time>2026-08-28T17:51:20Z</time>
  <course>294.04</course>
  <speed>0.17804493814764857</speed>
  <fix>3d</fix>
</trkpt>
<trkpt lat="40.0718883" lon="-105.2301646">
  <ele>1583.0</ele>
  <time>2026-08-28T17:51:20Z</time>
  <course>292.98</course>
  <speed>0.24</speed>
  <fix>3d</fix>
</trkpt>
<trkpt lat="40.0718888" lon="-105.2301651">
  <ele>1582.98</ele>
  <time>2026-08-28T17:51:20Z</time>
  <course>294.04</course>
  <speed>0.17204650534085253</speed>
  <fix>3d</fix>
</trkpt>
<trkpt lat="40.0718885" lon="-105.230165">
  <ele>1583.0</ele>
  <time>2026-08-28T17:51:20Z</time>
  <course>292.98</course>
  <speed>0.21</speed>
  <fix>3d</fix>
</trkpt>
<trkpt lat="40.0718888" lon="-105.2301653">
  <ele>1582.98</ele>
  <time>2026-08-28T17:51:20Z</time>
  <course>294.04</course>
  <speed>0.16401219466856726</speed>
  <fix>3d</fix>
</trkpt>
<trkpt lat="40.0718886" lon="-105.2301655">
  <ele>1583.0</ele>
  <time>2026-08-28T17:51:20Z</time>
  <course>292.98</course>
  <speed>0.19</speed>
  <fix>3d</fix>
</trkpt>
<trkpt lat="40.0718889" lon="-105.2301655">
  <ele>1582.99</ele>
  <time>2026-08-28T17:51:20Z</time>
  <course>294.03</course>
  <speed>0.15620499351813308</speed>
  <fix>3d</fix>
</trkpt>
<trkpt lat="40.0718886" lon="-105.2301655">
  <ele>1583.0</ele>
  <time>2026-08-28T17:51:20Z</time>
  <course>292.98</course>
  <speed>0.19</speed>
  <fix>3d</fix>
</trkpt>
<trkpt lat="40.071889" lon="-105.2301657">
  <ele>1582.99</ele>
  <time>2026-08-28T17:51:20Z</time>
  <course>294.03</course>
  <speed>0.14212670403551894</speed>
  <fix>3d</fix>
</trkpt>
<trkpt lat="40.0718887" lon="-105.2301659">
  <ele>1583.0</ele>
  <time>2026-08-28T17:51:20Z</time>
  <course>292.98</course>
  <speed>0.17</speed>
  <fix>3d</fix>
</trkpt>
<trkpt lat="40.071889" lon="-105.2301659">
  <ele>1582.99</ele>
  <time>2026-08-28T17:51:20Z</time>
  <course>294.02</course>
  <speed>0.14212670403551894</speed>
  <fix>3d</fix>
</trkpt>
<trkpt lat="40.0718887" lon="-105.2301659">
  <ele>1583.0</ele>
  <time>2026-08-28T17:51:20Z</time>
  <course>292.98</course>
  <speed>0.17</speed>
  <fix>3d</fix>
</trkpt>
<trkpt lat="40.0718891" lon="-105.230166">
  <ele>1582.99</ele>
  <time>2026-08-28T17:51:20Z</time>
  <course>294.02</course>
  <speed>0.1345362404707371</speed>
  <fix>3d</fix>
</trkpt>
<trkpt lat="40.0718888" lon="-105.2301662">
  <ele>1583.0</ele>
  <time>2026-08-28T17:51:20Z</time>
  <course>292.98</course>
  <speed>0.16</speed>
  <fix>3d</fix>
</trkpt>
<trkpt lat="40.0718891" lon="-105.2301662">
  <ele>1582.99</ele>
  <time>2026-08-28T17:51:20Z</time>
  <course>294.01</course>
  <speed>0.12041594578792296</speed>
  <fix>3d</fix>
</trkpt>
<trkpt lat="40.0718888" lon="-105.2301662">
  <ele>1583.0</ele>
  <time>2026-08-28T17:51:20Z</time>
  <course>292.98</course>
  <speed>0.16</speed>
  <fix>3d</fix>
</trkpt>
<trkpt lat="40.0718892" lon="-105.2301664">
  <ele>1582.98</ele>
  <time>2026-08-28T17:51:20Z</time>
  <course>294.01</course>
  <speed>0.12041594578792296</speed>
  <fix>3d</fix>
</trkpt>
<trkpt lat="40.0718889" lon="-105.2301666">
  <ele>1583.0</ele>
  <time>2026-08-28T17:51:20Z</time>
  <course>292.98</course>
  <speed>0.14</speed>
  <fix>3d</fix>
</trkpt>
<trkpt lat="40.0718892" lon="-105.2301665">
  <ele>1582.98</ele>
  <time>2026-08-28T17:51:20Z</time>
  <course>294.0</course>
  <speed>0.1131370849898476</speed>
  <fix>3d</fix>
</trkpt>
<trkpt lat="40.0718889" lon="-105.2301666">
  <ele>1583.0</ele>
  <time>2026-08-28T17:51:20Z</time>
  <course>292.98</course>
  <speed>0.14</speed>
  <fix>3d</fix>
</trkpt>
<trkpt lat="40.0718893" lon="-105.2301666">
  <ele>1582.98</ele>
  <time>2026-08-28T17:51:20Z</time>
  <course>294.0</course>
  <speed>0.1131370849898476</speed>
  <fix>3d</fix>
</trkpt>
<trkpt lat="40.071889" lon="-105.2301669">
  <ele>1583.0</ele>
  <time>2026-08-28T17:51:20Z</time>
  <course>292.99</course>
  <speed>0.13</speed>
  <fix>3d</fix>
</trkpt>
<trkpt lat="40.0718893" lon="-105.2301668">
  <ele>1582.98</ele>
  <time>2026-08-28T17:51:20Z</time>
  <course>293.99</course>
  <speed>0.09899494936611665</speed>
  <fix>3d</fix>
</trkpt>
<trkpt lat="40.071889" lon="-105.2301669">
  <ele>1583.0</ele>
  <time>2026-08-28T17:51:20Z</time>
  <course>292.99</course>
  <speed>0.13</speed>
  <fix>3d</fix>
</trkpt>
<trkpt lat="40.0718894" lon="-105.2301669">
  <ele>1582.99</ele>
  <time>2026-08-28T17:51:20Z</time>
  <course>293.98</course>
  <speed>0.09899494936611665</speed>
  <fix>3d</fix>
</trkpt>
<trkpt lat="40.0718891" lon="-105.2301672">
  <ele>1583.0</ele>
  <time>2026-08-28T17:51:20Z</time>
  <course>292.99</course>
  <speed>0.11</speed>
  <fix>3d</fix>
</trkpt>
<trkpt lat="40.0718895" lon="-105.2301674">
  <ele>1583.0</ele>
  <time>2026-08-28T17:51:20Z</time>
  <course>293.96</course>
  <speed>0.07810249675906654</speed>
  <fix>3d</fix>
</trkpt>
<trkpt lat="40.0718892" lon="-105.2301674">
  <ele>1583.0</ele>
  <time>2026-08-28T17:51:20Z</time>
  <course>292.99</course>
  <speed>0.1</speed>
  <fix>3d</fix>
</trkpt>
<trkpt lat="40.0718896" lon="-105.2301677">
  <ele>1583.01</ele>
  <time>2026-08-28T17:51:20Z</time>
  <course>293.95</course>
  <speed>0.07211102550927978</speed>
  <fix>3d</fix>
</trkpt>
<trkpt lat="40.0718893" lon="-105.2301679">
  <ele>1583.0</ele>
  <time>2026-08-28T17:51:20Z</time>
  <course>292.99</course>
  <speed>0.08</speed>
  <fix>3d</fix>
</trkpt>
<trkpt lat="40.0718896" lon="-105.2301678">
  <ele>1583.02</ele>
  <time>2026-08-28T17:51:20Z</time>
  <course>293.94</course>
  <speed>0.07211102550927978</speed>
  <fix>3d</fix>
</trkpt>
<trkpt lat="40.0718893" lon="-105.2301679">
  <ele>1583.0</ele>
  <time>2026-08-28T17:51:20Z</time>
  <course>292.99</course>
  <speed>0.08</speed>
  <fix>3d</fix>
</trkpt>
<trkpt lat="40.0718897" lon="-105.2301679">
  <ele>1583.02</ele>
  <time>2026-08-28T17:51:20Z</time>
  <course>293.94</course>
  <speed>0.07211102550927978</speed>
  <fix>3d</fix>
</trkpt>
<trkpt lat="40.0718894" lon="-105.230168">
  <ele>1583.0</ele>
  <time>2026-08-28T17:51:20Z</time>
  <course>292.99</course>
  <speed>0.08</speed>
  <fix>3d</fix>
</trkpt>
<trkpt lat="40.0718897" lon="-105.2301679">
  <ele>1583.02</ele>
  <time>2026-08-28T17:51:20Z</time>
  <course>293.93</course>
  <speed>0.05830951894845301</speed>
  <fix>3d</fix>
</trkpt>
<trkpt lat="40.0718894" lon="-105.230168">
  <ele>1583.0</ele>
  <time>2026-08-28T17:51:20Z</time>
  <course>292.99</course>
  <speed>0.08</speed>
  <fix>3d</fix>
</trkpt>
<trkpt lat="40.0718897" lon="-105.230168">
  <ele>1583.01</ele>
  <time>2026-08-28T17:51:20Z</time>
  <course>293.93</course>
  <speed>0.05830951894845301</speed>
  <fix>3d</fix>
</trkpt>
<trkpt lat="40.0718895" lon="-105.2301682">
  <ele>1583.0</ele>
  <time>2026-08-28T17:51:20Z</time>
  <course>293.0</course>
  <speed>0.07</speed>
  <fix>3d</fix>
</trkpt>
<trkpt lat="40.0718897" lon="-105.2301682">
  <ele>1583.01</ele>
  <time>2026-08-28T17:51:20Z</time>
  <course>293.92</course>
  <speed>0.053851648071345036</speed>
  <fix>3d</fix>
</trkpt>
<trkpt lat="40.0718895" lon="-105.2301684">
  <ele>1583.0</ele>
  <time>2026-08-28T17:51:20Z</time>
  <course>293.0</course>
  <speed>0.06</speed>
  <fix>3d</fix>
</trkpt>
<trkpt lat="40.0718898" lon="-105.2301682">
  <ele>1583.0</ele>
  <time>2026-08-28T17:51:20Z</time>
  <course>293.91</course>
  <speed>0.053851648071345036</speed>
  <fix>3d</fix>
</trkpt>
<trkpt lat="40.0718896" lon="-105.2301685">
  <ele>1583.0</ele>
  <time>2026-08-28T17:51:20Z</time>
  <course>293.0</course>
  <speed>0.05</speed>
  <fix>3d</fix>
</trkpt>
<trkpt lat="40.0718898" lon="-105.2301683">
  <ele>1583.0</ele>
  <time>2026-08-28T17:51:20Z</time>
  <course>293.91</course>
  <speed>0.053851648071345036</speed>
  <fix>3d</fix>
</trkpt>
<trkpt lat="40.0718896" lon="-105.2301685">
  <ele>1583.0</ele>
  <time>2026-08-28T17:51:20Z</time>
  <course>293.0</course>
  <speed>0.05</speed>
  <fix>3d</fix>
</trkpt>
<trkpt lat="40.0718898" lon="-105.2301684">
  <ele>1583.0</ele>
  <time>2026-08-28T17:51:20Z</time>
  <course>293.91</course>
  <speed>0.053851648071345036</speed>
  <fix>3d</fix>
</trkpt>
<trkpt lat="40.0718896" lon="-105.2301686">
  <ele>1583.0</ele>
  <time>2026-08-28T17:51:20Z</time>
  <course>293.0</course>
  <speed>0.05</speed>
  <fix>3d</fix>
</trkpt>
<trkpt lat="40.0718898" lon="-105.2301684">
  <ele>1583.0</ele>
  <time>2026-08-28T17:51:20Z</time>
  <course>293.9</course>
  <speed>0.044721359549995794</speed>
  <fix>3d</fix>
</trkpt>
<trkpt lat="40.0718896" lon="-105.2301686">
  <ele>1583.0</ele>
  <time>2026-08-28T17:51:20Z</time>
  <course>293.0</course>
  <speed>0.05</speed>
  <fix>3d</fix>
</trkpt>
<trkpt lat="40.0718898" lon="-105.2301685">
  <ele>1583.0</ele>
  <time>2026-08-28T17:51:20Z</time>
  <course>293.9</course>
  <speed>0.0412310562561766</speed>
  <fix>3d</fix>
</trkpt>
<trkpt lat="40.0718897" lon="-105.2301687">
  <ele>1583.0</ele>
  <time>2026-08-28T17:51:20Z</time>
  <course>293.01</course>
  <speed>0.04</speed>
  <fix>3d</fix>
</trkpt>
<trkpt lat="40.0718899" lon="-105.2301685">
  <ele>1583.0</ele>
  <time>2026-08-28T17:51:20Z</time>
  <course>293.89</course>
  <speed>0.0412310562561766</speed>
  <fix>3d</fix>
</trkpt>
<trkpt lat="40.0718897" lon="-105.2301687">
  <ele>1583.0</ele>
  <time>2026-08-28T17:51:20Z</time>
  <course>293.01</course>
  <speed>0.04</speed>
  <fix>3d</fix>
</trkpt>
<trkpt lat="40.0718899" lon="-105.2301686">
  <ele>1583.0</ele>
  <time>2026-08-28T17:51:20Z</time>
  <course>293.89</course>
  <speed>0.0412310562561766</speed>
  <fix>3d</fix>
</trkpt>
<trkpt lat="40.0718897" lon="-105.2301688">
  <ele>1583.0</ele>
  <time>2026-08-28T17:51:20Z</time>
  <course>293.01</course>
  <speed>0.04</speed>
  <fix>3d</fix>
</trkpt>
<trkpt lat="40.0718899" lon="-105.2301686">
  <ele>1583.0</ele>
  <time>2026-08-28T17:51:20Z</time>
  <course>293.89</course>
  <speed>0.0412310562561766</speed>
  <fix>3d</fix>
</trkpt>
<trkpt lat="40.0718897" lon="-105.2301688">
  <ele>1583.0</ele>
  <time>2026-08-28T17:51:20Z</time>
  <course>293.01</course>
  <speed>0.04</speed>
  <fix>3d</fix>
</trkpt>
<trkpt lat="40.0718899" lon="-105.2301687">
  <ele>1583.0</ele>
  <time>2026-08-28T17:51:20Z</time>
  <course>293.88</course>
  <speed>0.0412310562561766</speed>
  <fix>3d</fix>
</trkpt>
<trkpt lat="40.0718897" lon="-105.2301689">
  <ele>1583.0</ele>
  <time>2026-08-28T17:51:20Z</time>
  <course>293.02</course>
  <speed>0.03</speed>
  <fix>3d</fix>
</trkpt>
<trkpt lat="40.0718899" lon="-105.2301687">
  <ele>1583.0</ele>
  <time>2026-08-28T17:51:20Z</time>
  <course>293.88</course>
  <speed>0.0412310562561766</speed>
  <fix>3d</fix>
</trkpt>
<trkpt lat="40.0718897" lon="-105.2301689">
  <ele>1583.0</ele>
  <time>2026-08-28T17:51:20Z</time>
  <course>293.02</course>
  <speed>0.03</speed>
  <fix>3d</fix>
</trkpt>
<trkpt lat="40.0718899" lon="-105.2301687">
  <ele>1583.0</ele>
  <time>2026-08-28T17:51:20Z</time>
  <course>293.88</course>
  <speed>0.04</speed>
  <fix>3d</fix>
</trkpt>
<trkpt lat="40.0718897" lon="-105.2301689">
  <ele>1583.0</ele>
  <time>2026-08-28T17:51:20Z</time>
  <course>293.02</course>
  <speed>0.03</speed>
  <fix>3d</fix>
</trkpt>
<trkpt lat="40.0718899" lon="-105.2301688">
  <ele>1583.01</ele>
  <time>2026-08-28T17:51:20Z</time>
  <course>293.87</course>
  <speed>0.04</speed>
  <fix>3d</fix>
</trkpt>
<trkpt lat="40.0718897" lon="-105.230169">
  <ele>1583.0</ele>
  <time>2026-08-28T17:51:20Z</time>
  <course>293.02</course>
  <speed>0.03</speed>
  <fix>3d</fix>
</trkpt>
<trkpt lat="40.07189" lon="-105.2301688">
  <ele>1583.01</ele>
  <time>2026-08-28T17:51:20Z</time>
  <course>293.87</course>
  <speed>0.04</speed>
  <fix>3d</fix>
</trkpt>
<trkpt lat="40.0718897" lon="-105.230169">
  <ele>1583.0</ele>
  <time>2026-08-28T17:51:20Z</time>
  <course>293.02</course>
  <speed>0.03</speed>
  <fix>3d</fix>
</trkpt>
<trkpt lat="40.07189" lon="-105.2301689">
  <ele>1583.01</ele>
  <time>2026-08-28T17:51:20Z</time>
  <course>293.87</course>
  <speed>0.03</speed>
  <fix>3d</fix>
</trkpt>
<trkpt lat="40.0718898" lon="-105.2301691">
  <ele>1583.0</ele>
  <time>2026-08-28T17:51:20Z</time>
  <course>293.02</course>
  <speed>0.03</speed>
  <fix>3d</fix>
</trkpt>
<trkpt lat="40.07189" lon="-105.2301689">
  <ele>1583.02</ele>
  <time>2026-08-28T17:51:20Z</time>
  <course>293.86</course>
  <speed>0.03</speed>
  <fix>3d</fix>
</trkpt>
<trkpt lat="40.0718898" lon="-105.2301691">
  <ele>1583.0</ele>
  <time>2026-08-28T17:51:20Z</time>
  <course>293.02</course>
  <speed>0.03</speed>
  <fix>3d</fix>
</trkpt>
<trkpt lat="40.07189" lon="-105.2301689">
  <ele>1583.02</ele>
  <time>2026-08-28T17:51:20Z</time>
  <course>293.86</course>
  <speed>0.03</speed>
  <fix>3d</fix>
</trkpt>
<trkpt lat="40.0718898" lon="-105.2301691">
  <ele>1583.0</ele>
  <time>2026-08-28T17:51:20Z</time>
  <course>293.03</course>
  <speed>0.02</speed>
  <fix>3d</fix>
</trkpt>
<trkpt lat="40.07189" lon="-105.2301689">
  <ele>1583.03</ele>
  <time>2026-08-28T17:51:20Z</time>
  <course>293.86</course>
  <speed>0.03</speed>
  <fix>3d</fix>
</trkpt>
<trkpt lat="40.0718898" lon="-105.2301691">
  <ele>1583.0</ele>
  <time>2026-08-28T17:51:20Z</time>
  <course>293.03</course>
  <speed>0.02</speed>
  <fix>3d</fix>
</trkpt>
<trkpt lat="40.07189" lon="-105.230169">
  <ele>1583.03</ele>
  <time>2026-08-28T17:51:20Z</time>
  <course>293.85</course>
  <speed>0.03</speed>
  <fix>3d</fix>
</trkpt>
<trkpt lat="40.0718898" lon="-105.2301692">
  <ele>1583.0</ele>
  <time>2026-08-28T17:51:20Z</time>
  <course>293.04</course>
  <speed>0.02</speed>
  <fix>3d</fix>
</trkpt>
<trkpt lat="40.07189" lon="-105.230169">
  <ele>1583.04</ele>
  <time>2026-08-28T17:51:20Z</time>
  <course>293.85</course>
  <speed>0.03</speed>
  <fix>3d</fix>
</trkpt>
<trkpt lat="40.0718898" lon="-105.2301693">
  <ele>1583.0</ele>
  <time>2026-08-28T17:51:20Z</time>
  <course>293.04</course>
  <speed>0.02</speed>
  <fix>3d</fix>
</trkpt>
<trkpt lat="40.07189" lon="-105.230169">
  <ele>1583.04</ele>
  <time>2026-08-28T17:51:20Z</time>
  <course>293.85</course>
  <speed>0.03</speed>
  <fix>3d</fix>
</trkpt>
<trkpt lat="40.0718898" lon="-105.2301693">
  <ele>1583.0</ele>
  <time>2026-08-28T17:51:20Z</time>
  <course>293.04</course>
  <speed>0.02</speed>
  <fix>3d</fix>
</trkpt>
<trkpt lat="40.07189" lon="-105.2301691">
  <ele>1583.04</ele>
  <time>2026-08-28T17:51:20Z</time>
  <course>293.85</course>
  <speed>0.03</speed>
  <fix>3d</fix>
</trkpt>
<trkpt lat="40.0718898" lon="-105.2301693">
  <ele>1583.0</ele>
  <time>2026-08-28T17:51:20Z</time>
  <course>293.05</course>
  <speed>0.02</speed>
  <fix>3d</fix>
</trkpt>
<trkpt lat="40.07189" lon="-105.2301691">
  <ele>1583.05</ele>
  <time>2026-08-28T17:51:20Z</time>
  <course>293.84</course>
  <speed>0.03</speed>
  <fix>3d</fix>
</trkpt>
<trkpt lat="40.0718898" lon="-105.2301693">
  <ele>1583.0</ele>
  <time>2026-08-28T17:51:20Z</time>
  <course>293.05</course>
  <speed>0.02</speed>
  <fix>3d</fix>
</trkpt>
<trkpt lat="40.07189" lon="-105.2301691">
  <ele>1583.05</ele>
  <time>2026-08-28T17:51:20Z</time>
  <course>293.84</course>
  <speed>0.03</speed>
  <fix>3d</fix>
</trkpt>
<trkpt lat="40.0718898" lon="-105.2301694">
  <ele>1583.0</ele>
  <time>2026-08-28T17:51:20Z</time>
  <course>293.06</course>
  <speed>0.01</speed>
  <fix>3d</fix>
</trkpt>
<trkpt lat="40.07189" lon="-105.2301691">
  <ele>1583.04</ele>
  <time>2026-08-28T17:51:20Z</time>
  <course>293.84</course>
  <speed>0.03</speed>
  <fix>3d</fix>
</trkpt>
<trkpt lat="40.0718898" lon="-105.2301694">
  <ele>1583.0</ele>
  <time>2026-08-28T17:51:20Z</time>
  <course>293.06</course>
  <speed>0.01</speed>
  <fix>3d</fix>
</trkpt>
<trkpt lat="40.07189" lon="-105.2301691">
  <ele>1583.04</ele>
  <time>2026-08-28T17:51:20Z</time>
  <course>293.84</course>
  <speed>0.02</speed>
  <fix>3d</fix>
</trkpt>
<trkpt lat="40.0718898" lon="-105.2301694">
  <ele>1583.0</ele>
  <time>2026-08-28T17:51:20Z</time>
  <course>293.07</course>
  <speed>0.01</speed>
  <fix>3d</fix>
</trkpt>
<trkpt lat="40.07189" lon="-105.2301692">
  <ele>1583.03</ele>
  <time>2026-08-28T17:51:20Z</time>
  <course>293.84</course>
  <speed>0.02</speed>
  <fix>3d</fix>
</trkpt>
<trkpt lat="40.0718898" lon="-105.2301694">
  <ele>1583.0</ele>
  <time>2026-08-28T17:51:20Z</time>
  <course>293.07</course>
  <speed>0.01</speed>
  <fix>3d</fix>
</trkpt>
<trkpt lat="40.07189" lon="-105.2301692">
  <ele>1583.03</ele>
  <time>2026-08-28T17:51:20Z</time>
  <course>293.83</course>
  <speed>0.02</speed>
  <fix>3d</fix>
</trkpt>
<trkpt lat="40.0718898" lon="-105.2301694">
  <ele>1583.0</ele>
  <time>2026-08-28T17:51:20Z</time>
  <course>293.08</course>
  <speed>0.01</speed>
  <fix>3d</fix>
</trkpt>
<trkpt lat="40.07189" lon="-105.2301692">
  <ele>1583.02</ele>
  <time>2026-08-28T17:51:20Z</time>
  <course>293.83</course>
  <speed>0.02</speed>
  <fix>3d</fix>
</trkpt>
<trkpt lat="40.0718898" lon="-105.2301694">
  <ele>1583.0</ele>
  <time>2026-08-28T17:51:20Z</time>
  <course>293.08</course>
  <speed>0.01</speed>
  <fix>3d</fix>
</trkpt>
<trkpt lat="40.07189" lon="-105.2301692">
  <ele>1583.01</ele>
  <time>2026-08-28T17:51:20Z</time>
  <course>293.83</course>
  <speed>0.02</speed>
  <fix>3d</fix>
</trkpt>
<trkpt lat="40.0718898" lon="-105.2301694">
  <ele>1583.0</ele>
  <time>2026-08-28T17:51:20Z</time>
  <course>293.09</course>
  <speed>0.01</speed>
  <fix>3d</fix>
</trkpt>
<trkpt lat="40.07189" lon="-105.2301692">
  <ele>1583.0</ele>
  <time>2026-08-28T17:51:20Z</time>
  <course>293.83</course>
  <speed>0.02</speed>
  <fix>3d</fix>
</trkpt>
<trkpt lat="40.0718898" lon="-105.2301694">
  <ele>1583.0</ele>
  <time>2026-08-28T17:51:20Z</time>
  <course>293.09</course>
  <speed>0.01</speed>
  <fix>3d</fix>
</trkpt>
<trkpt lat="40.07189" lon="-105.2301692">
  <ele>1583.0</ele>
  <time>2026-08-28T17:51:20Z</time>
  <course>293.83</course>
  <speed>0.022360679774997897</speed>
  <fix>3d</fix>
</trkpt>
<trkpt lat="40.0718898" lon="-105.2301694">
  <ele>1583.0</ele>
  <time>2026-08-28T17:51:20Z</time>
  <course>293.1</course>
  <speed>0.01</speed>
  <fix>3d</fix>
</trkpt>
<trkpt lat="40.07189" lon="-105.2301692">
  <ele>1582.99</ele>
  <time>2026-08-28T17:51:20Z</time>
  <course>293.83</course>
  <speed>0.022360679774997897</speed>
  <fix>3d</fix>
</trkpt>
<trkpt lat="40.0718898" lon="-105.2301694">
  <ele>1583.0</ele>
  <time>2026-08-28T17:51:20Z</time>
  <course>293.1</course>
  <speed>0.01</speed>
  <fix>3d</fix>
</trkpt>
<trkpt lat="40.07189" lon="-105.2301692">
  <ele>1582.99</ele>
  <time>2026-08-28T17:51:20Z</time>
  <course>293.82</course>
  <speed>0.022360679774997897</speed>
  <fix>3d</fix>
</trkpt>
<trkpt lat="40.0718898" lon="-105.2301694">
  <ele>1583.0</ele>
  <time>2026-08-28T17:51:20Z</time>
  <course>293.1</course>
  <speed>0.01</speed>
  <fix>3d</fix>
</trkpt>
<trkpt lat="40.07189" lon="-105.2301693">
  <ele>1582.98</ele>
  <time>2026-08-28T17:51:20Z</time>
  <course>293.81</course>
  <speed>0.022360679774997897</speed>
  <fix>3d</fix>
</trkpt>
<trkpt lat="40.0718898" lon="-105.2301695">
  <ele>1583.0</ele>
  <time>2026-08-28T17:51:20Z</time>
  <course>293.11</course>
  <speed>0.01</speed>
  <fix>3d</fix>
</trkpt>
<trkpt lat="40.07189" lon="-105.2301693">
  <ele>1582.98</ele>
  <time>2026-08-28T17:51:20Z</time>
  <course>293.83</course>
  <speed>0.02</speed>
  <fix>3d</fix>
</trkpt>
<trkpt lat="40.0718898" lon="-105.2301695">
  <ele>1583.0</ele>
  <time>2026-08-28T17:51:20Z</time>
  <course>293.11</course>
  <speed>0.01</speed>
  <fix>3d</fix>
</trkpt>
<trkpt lat="40.07189" lon="-105.2301693">
  <ele>1582.98</ele>
  <time>2026-08-28T17:51:20Z</time>
  <course>293.9</course>
  <speed>0.02</speed>
  <fix>3d</fix>
</trkpt>
<trkpt lat="40.0718898" lon="-105.2301696">
  <ele>1583.0</ele>
  <time>2026-08-28T17:51:20Z</time>
  <course>293.08</course>
  <speed>0.01</speed>
  <fix>3d</fix>
</trkpt>
<trkpt lat="40.07189" lon="-105.2301693">
  <ele>1582.97</ele>
  <time>2026-08-28T17:51:20Z</time>
  <course>294.03</course>
  <speed>0.03605551275463989</speed>
  <fix>3d</fix>
</trkpt>
<trkpt lat="40.0718898" lon="-105.2301696">
  <ele>1583.0</ele>
  <time>2026-08-28T17:51:20Z</time>
  <course>293.08</course>
  <speed>0.01</speed>
  <fix>3d</fix>
</trkpt>
<trkpt lat="40.07189" lon="-105.2301694">
  <ele>1582.98</ele>
  <time>2026-08-28T17:51:20Z</time>
  <course>294.26</course>
  <speed>0.0565685424949238</speed>
  <fix>3d</fix>
</trkpt>
<trkpt lat="40.0718899" lon="-105.2301696">
  <ele>1583.0</ele>
  <time>2026-08-28T17:51:20Z</time>
  <course>293.17</course>
  <speed>0.03</speed>
  <fix>3d</fix>
</trkpt>
<trkpt lat="40.07189" lon="-105.2301695">
  <ele>1582.97</ele>
  <time>2026-08-28T17:51:20Z</time>
  <course>294.67</course>
  <speed>0.08602325267042626</speed>
  <fix>3d</fix>
</trkpt>
<trkpt lat="40.0718899" lon="-105.2301697">
  <ele>1583.0</ele>
  <time>2026-08-28T17:51:20Z</time>
  <course>293.64</course>
  <speed>0.07</speed>
  <fix>3d</fix>
</trkpt>
<trkpt lat="40.0718901" lon="-105.2301696">
  <ele>1582.98</ele>
  <time>2026-08-28T17:51:20Z</time>
  <course>295.31</course>
  <speed>0.12206555615733702</speed>
  <fix>3d</fix>
</trkpt>
<trkpt lat="40.0718899" lon="-105.2301697">
  <ele>1583.0</ele>
  <time>2026-08-28T17:51:20Z</time>
  <course>293.64</course>
  <speed>0.07</speed>
  <fix>3d</fix>
</trkpt>
<trkpt lat="40.0718901" lon="-105.2301698">
  <ele>1582.98</ele>
  <time>2026-08-28T17:51:20Z</time>
  <course>296.25</course>
  <speed>0.1664331697709324</speed>
  <fix>3d</fix>
</trkpt>
<trkpt lat="40.07189" lon="-105.2301699">
  <ele>1583.0</ele>
  <time>2026-08-28T17:51:20Z</time>
  <course>294.85</course>
  <speed>0.14</speed>
  <fix>3d</fix>
</trkpt>
<trkpt lat="40.0718902" lon="-105.23017">
  <ele>1582.97</ele>
  <time>2026-08-28T17:51:20Z</time>
  <course>297.53</course>
  <speed>0.21633307652783937</speed>
  <fix>3d</fix>
</trkpt>
<trkpt lat="40.07189" lon="-105.2301699">
  <ele>1583.0</ele>
  <time>2026-08-28T17:51:20Z</time>
  <course>294.85</course>
  <speed>0.14</speed>
  <fix>3d</fix>
</trkpt>
<trkpt lat="40.0718903" lon="-105.2301703">
  <ele>1582.97</ele>
  <time>2026-08-28T17:51:20Z</time>
  <course>299.18</course>
  <speed>0.2745906043549196</speed>
  <fix>3d</fix>
</trkpt>
<trkpt lat="40.0718902" lon="-105.2301703">
  <ele>1583.0</ele>
  <time>2026-08-28T17:51:20Z</time>
  <course>297.21</course>
  <speed>0.23</speed>
  <fix>3d</fix>
</trkpt>
<trkpt lat="40.0718905" lon="-105.2301707">
  <ele>1582.97</ele>
  <time>2026-08-28T17:51:20Z</time>
  <course>301.2</course>
  <speed>0.3301514803843835</speed>
  <fix>3d</fix>
</trkpt>
<trkpt lat="40.0718902" lon="-105.2301703">
  <ele>1583.0</ele>
  <time>2026-08-28T17:51:20Z</time>
  <course>297.21</course>
  <speed>0.23</speed>
  <fix>3d</fix>
</trkpt>
<trkpt lat="40.0718907" lon="-105.230171">
  <ele>1582.96</ele>
  <time>2026-08-28T17:51:20Z</time>
  <course>303.6</course>
  <speed>0.4</speed>
  <fix>3d</fix>
</trkpt>
<trkpt lat="40.0718904" lon="-105.2301709">
  <ele>1583.0</ele>
  <time>2026-08-28T17:51:20Z</time>
  <course>300.97</course>
  <speed>0.34</speed>
  <fix>3d</fix>
</trkpt>
<trkpt lat="40.0718909" lon="-105.2301715">
  <ele>1582.97</ele>
  <time>2026-08-28T17:51:20Z</time>
  <course>306.44</course>
  <speed>0.46861498055439926</speed>
  <fix>3d</fix>
</trkpt>
<trkpt lat="40.0718904" lon="-105.2301709">
  <ele>1583.0</ele>
  <time>2026-08-28T17:51:20Z</time>
  <course>300.97</course>
  <speed>0.34</speed>
  <fix>3d</fix>
</trkpt>
<trkpt lat="40.0718912" lon="-105.230172">
  <ele>1582.97</ele>
  <time>2026-08-28T17:51:20Z</time>
  <course>309.69</course>
  <speed>0.5381449618829484</speed>
  <fix>3d</fix>
</trkpt>
<trkpt lat="40.0718908" lon="-105.2301717">
  <ele>1583.0</ele>
  <time>2026-08-28T17:51:20Z</time>
  <course>306.26</course>
  <speed>0.47</speed>
  <fix>3d</fix>
</trkpt>
<trkpt lat="40.0718916" lon="-105.2301725">
  <ele>1582.97</ele>
  <time>2026-08-28T17:51:20Z</time>
  <course>313.38</course>
  <speed>0.6152235366108809</speed>
  <fix>3d</fix>
</trkpt>
<trkpt lat="40.0718908" lon="-105.2301717">
  <ele>1583.0</ele>
  <time>2026-08-28T17:51:20Z</time>
  <course>306.26</course>
  <speed>0.47</speed>
  <fix>3d</fix>
</trkpt>
<trkpt lat="40.071892" lon="-105.2301731">
  <ele>1582.97</ele>
  <time>2026-08-28T17:51:20Z</time>
  <course>317.52</course>
  <speed>0.6811754546370561</speed>
  <fix>3d</fix>
</trkpt>
<trkpt lat="40.0718914" lon="-105.2301727">
  <ele>1583.0</ele>
  <time>2026-08-28T17:51:20Z</time>
  <course>313.23</course>
  <speed>0.61</speed>
  <fix>3d</fix>
</trkpt>
<trkpt lat="40.0718925" lon="-105.2301736">
  <ele>1582.97</ele>
  <time>2026-08-28T17:51:20Z</time>
  <course>322.11</course>
  <speed>0.7521303078589507</speed>
  <fix>3d</fix>
</trkpt>
<trkpt lat="40.0718914" lon="-105.2301727">
  <ele>1583.0</ele>
  <time>2026-08-28T17:51:20Z</time>
  <course>313.23</course>
  <speed>0.61</speed>
  <fix>3d</fix>
</trkpt>
<trkpt lat="40.0718931" lon="-105.2301742">
  <ele>1582.97</ele>
  <time>2026-08-28T17:51:20Z</time>
  <course>326.95</course>
  <speed>0.8300602387778854</speed>
  <fix>3d</fix>
</trkpt>
<trkpt lat="40.0718924" lon="-105.2301738">
  <ele>1583.0</ele>
  <time>2026-08-28T17:51:20Z</time>
  <course>321.86</course>
  <speed>0.75</speed>
  <fix>3d</fix>
</trkpt>
<trkpt lat="40.0718938" lon="-105.2301747">
  <ele>1582.97</ele>
  <time>2026-08-28T17:51:20Z</time>
  <course>331.78</course>
  <speed>0.9078546139112804</speed>
  <fix>3d</fix>
</trkpt>
<trkpt lat="40.0718924" lon="-105.2301738">
  <ele>1583.0</ele>
  <time>2026-08-28T17:51:20Z</time>
  <course>321.86</course>
  <speed>0.75</speed>
  <fix>3d</fix>
</trkpt>
<trkpt lat="40.0718946" lon="-105.2301752">
  <ele>1582.97</ele>
  <time>2026-08-28T17:51:20Z</time>
  <course>336.43</course>
  <speed>0.982344135219425</speed>
  <fix>3d</fix>
</trkpt>
<trkpt lat="40.0718924" lon="-105.2301738">
  <ele>1583.0</ele>
  <time>2026-08-28T17:51:20Z</time>
  <course>321.86</course>
  <speed>0.75</speed>
  <fix>3d</fix>
</trkpt>
<trkpt lat="40.0718954" lon="-105.2301757">
  <ele>1582.97</ele>
  <time>2026-08-28T17:51:20Z</time>
  <course>340.53</course>
  <speed>1.0530432089900206</speed>
  <fix>3d</fix>
</trkpt>
<trkpt lat="40.0718936" lon="-105.2301749">
  <ele>1583.0</ele>
  <time>2026-08-28T17:51:20Z</time>
  <course>331.28</course>
  <speed>0.89</speed>
  <fix>3d</fix>
</trkpt>
<trkpt lat="40.0718964" lon="-105.2301761">
  <ele>1582.97</ele>
  <time>2026-08-28T17:51:20Z</time>
  <course>343.97</course>
  <speed>1.127918436767482</speed>
  <fix>3d</fix>
</trkpt>
<trkpt lat="40.0718936" lon="-105.2301749">
  <ele>1583.0</ele>
  <time>2026-08-28T17:51:20Z</time>
  <course>331.28</course>
  <speed>0.89</speed>
  <fix>3d</fix>
</trkpt>
<trkpt lat="40.0718974" lon="-105.2301764">
  <ele>1582.97</ele>
  <time>2026-08-28T17:51:20Z</time>
  <course>346.87</course>
  <speed>1.1964113005150028</speed>
  <fix>3d</fix>
</trkpt>
<trkpt lat="40.0718952" lon="-105.2301758">
  <ele>1583.0</ele>
  <time>2026-08-28T17:51:20Z</time>
  <course>339.68</course>
  <speed>1.04</speed>
  <fix>3d</fix>
</trkpt>
<trkpt lat="40.0718985" lon="-105.2301767">
  <ele>1582.97</ele>
  <time>2026-08-28T17:51:20Z</time>
  <course>349.31</course>
  <speed>1.2790621564255584</speed>
  <fix>3d</fix>
</trkpt>
<trkpt lat="40.0718952" lon="-105.2301758">
  <ele>1583.0</ele>
  <time>2026-08-28T17:51:20Z</time>
  <course>339.68</course>
  <speed>1.04</speed>
  <fix>3d</fix>
</trkpt>
<trkpt lat="40.0718996" lon="-105.230177">
  <ele>1582.96</ele>
  <time>2026-08-28T17:51:20Z</time>
  <course>351.36</course>
  <speed>1.3520355024924455</speed>
  <fix>3d</fix>
</trkpt>
<trkpt lat="40.0718971" lon="-105.2301765">
  <ele>1583.0</ele>
  <time>2026-08-28T17:51:20Z</time>
  <course>346.02</course>
  <speed>1.18</speed>
  <fix>3d</fix>
</trkpt>
<trkpt lat="40.0719009" lon="-105.2301772">
  <ele>1582.96</ele>
  <time>2026-08-28T17:51:20Z</time>
  <course>353.1</course>
  <speed>1.4279005567615695</speed>
  <fix>3d</fix>
</trkpt>
<trkpt lat="40.0718971" lon="-105.2301765">
  <ele>1583.0</ele>
  <time>2026-08-28T17:51:20Z</time>
  <course>346.02</course>
  <speed>1.18</speed>
  <fix>3d</fix>
</trkpt>
<trkpt lat="40.0719022" lon="-105.2301774">
  <ele>1582.96</ele>
  <time>2026-08-28T17:51:20Z</time>
  <course>354.58</course>
  <speed>1.5056227947264877</speed>
  <fix>3d</fix>
</trkpt>
<trkpt lat="40.0718994" lon="-105.2301771">
  <ele>1583.0</ele>
  <time>2026-08-28T17:51:20Z</time>
  <course>350.52</course>
  <speed>1.33</speed>
  <fix>3d</fix>
</trkpt>
<trkpt lat="40.0719036" lon="-105.2301775">
  <ele>1582.96</ele>
  <time>2026-08-28T17:51:20Z</time>
  <course>355.82</course>
  <speed>1.583161394173064</speed>
  <fix>3d</fix>
</trkpt>
<trkpt lat="40.0719019" lon="-105.2301776">
  <ele>1583.0</ele>
  <time>2026-08-28T17:51:20Z</time>
  <course>353.73</course>
  <speed>1.49</speed>
  <fix>3d</fix>
</trkpt>
<trkpt lat="40.071905" lon="-105.2301777">
  <ele>1582.96</ele>
  <time>2026-08-28T17:51:20Z</time>
  <course>356.88</course>
  <speed>1.6619265928433782</speed>
  <fix>3d</fix>
</trkpt>
<trkpt lat="40.0719019" lon="-105.2301776">
  <ele>1583.0</ele>
  <time>2026-08-28T17:51:20Z</time>
  <course>353.73</course>
  <speed>1.49</speed>
  <fix>3d</fix>
</trkpt>
<trkpt lat="40.0719065" lon="-105.2301778">
  <ele>1582.96</ele>
  <time>2026-08-28T17:51:20Z</time>
  <course>357.78</course>
  <speed>1.741034175425629</speed>
  <fix>3d</fix>
</trkpt>
<trkpt lat="40.0719047" lon="-105.2301779">
  <ele>1583.0</ele>
  <time>2026-08-28T17:51:20Z</time>
  <course>356.05</course>
  <speed>1.64</speed>
  <fix>3d</fix>
</trkpt>
<trkpt lat="40.0719082" lon="-105.2301779">
  <ele>1582.97</ele>
  <time>2026-08-28T17:51:20Z</time>
  <course>358.54</course>
  <speed>1.8204395073717774</speed>
  <fix>3d</fix>
</trkpt>
<trkpt lat="40.0719047" lon="-105.2301779">
  <ele>1583.0</ele>
  <time>2026-08-28T17:51:20Z</time>
  <course>356.05</course>
  <speed>1.64</speed>
  <fix>3d</fix>
</trkpt>
<trkpt lat="40.0719099" lon="-105.2301779">
  <ele>1582.97</ele>
  <time>2026-08-28T17:51:20Z</time>
  <course>359.19</course>
  <speed>1.910104709171725</speed>
  <fix>3d</fix>
</trkpt>
<trkpt lat="40.0719078" lon="-105.2301781">
  <ele>1583.0</ele>
  <time>2026-08-28T17:51:20Z</time>
  <course>357.73</course>
  <speed>1.8</speed>
  <fix>3d</fix>
</trkpt>
<trkpt lat="40.0719116" lon="-105.230178">
  <ele>1582.97</ele>
  <time>2026-08-28T17:51:20Z</time>
  <course>359.75</course>
  <speed>1.99</speed>
  <fix>3d</fix>
</trkpt>
<trkpt lat="40.0719078" lon="-105.2301781">
  <ele>1583.0</ele>
  <time>2026-08-28T17:51:20Z</time>
  <course>357.73</course>
  <speed>1.8</speed>
  <fix>3d</fix>
</trkpt>
<trkpt lat="40.0719135" lon="-105.230178">
  <ele>1582.97</ele>
  <time>2026-08-28T17:51:20Z</time>
  <course>0.22</course>
  <speed>2.08</speed>
  <fix>3d</fix>
</trkpt>
<trkpt lat="40.0719111" lon="-105.2301783">
  <ele>1583.0</ele>
  <time>2026-08-28T17:51:20Z</time>
  <course>358.94</course>
  <speed>1.97</speed>
  <fix>3d</fix>
</trkpt>
<trkpt lat="40.0719154" lon="-105.230178">
  <ele>1582.97</ele>
  <time>2026-08-28T17:51:20Z</time>
  <course>0.61</course>
  <speed>2.1700921639414306</speed>
  <fix>3d</fix>
</trkpt>
<trkpt lat="40.0719111" lon="-105.2301783">
  <ele>1583.0</ele>
  <time>2026-08-28T17:51:20Z</time>
  <course>358.94</course>
  <speed>1.97</speed>
  <fix>3d</fix>
</trkpt>
<trkpt lat="40.0719174" lon="-105.230178">
  <ele>1582.98</ele>
  <time>2026-08-28T17:51:20Z</time>
  <course>0.96</course>
  <speed>2.2601991062736047</speed>
  <fix>3d</fix>
</trkpt>
<trkpt lat="40.0719148" lon="-105.2301784">
  <ele>1583.0</ele>
  <time>2026-08-28T17:51:20Z</time>
  <course>359.82</course>
  <speed>2.15</speed>
  <fix>3d</fix>
</trkpt>
<trkpt lat="40.0719195" lon="-105.230178">
  <ele>1582.98</ele>
  <time>2026-08-28T17:51:20Z</time>
  <course>1.24</course>
  <speed>2.3603389587091086</speed>
  <fix>3d</fix>
</trkpt>
<trkpt lat="40.0719148" lon="-105.2301784">
  <ele>1583.0</ele>
  <time>2026-08-28T17:51:20Z</time>
  <course>359.82</course>
  <speed>2.15</speed>
  <fix>3d</fix>
</trkpt>
<trkpt lat="40.0719217" lon="-105.230178">
  <ele>1582.98</ele>
  <time>2026-08-28T17:51:20Z</time>
  <course>1.49</course>
  <speed>2.450510150968569</speed>
  <fix>3d</fix>
</trkpt>
<trkpt lat="40.0719189" lon="-105.2301783">
  <ele>1583.0</ele>
  <time>2026-08-28T17:51:20Z</time>
  <course>0.46</course>
  <speed>2.33</speed>
  <fix>3d</fix>
</trkpt>
<trkpt lat="40.071924" lon="-105.230178">
  <ele>1582.98</ele>
  <time>2026-08-28T17:51:20Z</time>
  <course>1.69</course>
  <speed>2.550705784679997</speed>
  <fix>3d</fix>
</trkpt>
<trkpt lat="40.0719189" lon="-105.2301783">
  <ele>1583.0</ele>
  <time>2026-08-28T17:51:20Z</time>
  <course>0.46</course>
  <speed>2.33</speed>
  <fix>3d</fix>
</trkpt>
<trkpt lat="40.0719263" lon="-105.230178">
  <ele>1582.97</ele>
  <time>2026-08-28T17:51:20Z</time>
  <course>1.87</course>
  <speed>2.6509243670840554</speed>
  <fix>3d</fix>
</trkpt>
<trkpt lat="40.0719232" lon="-105.2301782">
  <ele>1583.0</ele>
  <time>2026-08-28T17:51:20Z</time>
  <course>0.92</course>
  <speed>2.52</speed>
  <fix>3d</fix>
</trkpt>
<trkpt lat="40.0719288" lon="-105.2301779">
  <ele>1582.97</ele>
  <time>2026-08-28T17:51:20Z</time>
  <course>2.01</course>
  <speed>2.741167634421507</speed>
  <fix>3d</fix>
</trkpt>
<trkpt lat="40.0719232" lon="-105.2301782">
  <ele>1583.0</ele>
  <time>2026-08-28T17:51:20Z</time>
  <course>0.92</course>
  <speed>2.52</speed>
  <fix>3d</fix>
</trkpt>
<trkpt lat="40.0719313" lon="-105.2301778">
  <ele>1582.97</ele>
  <time>2026-08-28T17:51:20Z</time>
  <course>2.13</course>
  <speed>2.8414256984830697</speed>
  <fix>3d</fix>
</trkpt>
<trkpt lat="40.0719232" lon="-105.2301782">
  <ele>1583.0</ele>
  <time>2026-08-28T17:51:20Z</time>
  <course>0.92</course>
  <speed>2.52</speed>
  <fix>3d</fix>
</trkpt>
<trkpt lat="40.0719339" lon="-105.2301778">
  <ele>1582.97</ele>
  <time>2026-08-28T17:51:20Z</time>
  <course>2.24</course>
  <speed>2.9413772284424855</speed>
  <fix>3d</fix>
</trkpt>
<trkpt lat="40.071928" lon="-105.2301782">
  <ele>1583.0</ele>
  <time>2026-08-28T17:51:20Z</time>
  <course>1.24</course>
  <speed>2.71</speed>
  <fix>3d</fix>
</trkpt>
<trkpt lat="40.0719365" lon="-105.2301777">
  <ele>1582.97</ele>
  <time>2026-08-28T17:51:20Z</time>
  <course>2.32</course>
  <speed>3.041644292155149</speed>
  <fix>3d</fix>
</trkpt>
<trkpt lat="40.071928" lon="-105.2301782">
  <ele>1583.0</ele>
  <time>2026-08-28T17:51:20Z</time>
  <course>1.24</course>
  <speed>2.71</speed>
  <fix>3d</fix>
</trkpt>
<trkpt lat="40.0719393" lon="-105.2301776">
  <ele>1582.97</ele>
  <time>2026-08-28T17:51:20Z</time>
  <course>2.39</course>
  <speed>3.141926160812822</speed>
  <fix>3d</fix>
</trkpt>
<trkpt lat="40.071933" lon="-105.230178">
  <ele>1583.0</ele>
  <time>2026-08-28T17:51:20Z</time>
  <course>1.47</course>
  <speed>2.91</speed>
  <fix>3d</fix>
</trkpt>
<trkpt lat="40.0719421" lon="-105.2301775">
  <ele>1582.97</ele>
  <time>2026-08-28T17:51:20Z</time>
  <course>2.43</course>
  <speed>3.2418667461818966</speed>
  <fix>3d</fix>
</trkpt>
<trkpt lat="40.071933" lon="-105.230178">
  <ele>1583.0</ele>
  <time>2026-08-28T17:51:20Z</time>
  <course>1.47</course>
  <speed>2.91</speed>
  <fix>3d</fix>
</trkpt>
<trkpt lat="40.0719451" lon="-105.2301774">
  <ele>1582.97</ele>
  <time>2026-08-28T17:51:20Z</time>
  <course>2.47</course>
  <speed>3.3421549934136805</speed>
  <fix>3d</fix>
</trkpt>
<trkpt lat="40.0719385" lon="-105.2301779">
  <ele>1583.0</ele>
  <time>2026-08-28T17:51:20Z</time>
  <course>1.62</course>
  <speed>3.11</speed>
  <fix>3d</fix>
</trkpt>
<trkpt lat="40.0719481" lon="-105.2301772">
  <ele>1582.97</ele>
  <time>2026-08-28T17:51:20Z</time>
  <course>2.52</course>
  <speed>3.4420923869065456</speed>
  <fix>3d</fix>
</trkpt>
<trkpt lat="40.0719443" lon="-105.2301776">
  <ele>1583.0</ele>
  <time>2026-08-28T17:51:20Z</time>
  <course>1.72</course>
  <speed>3.32</speed>
  <fix>3d</fix>
</trkpt>
<trkpt lat="40.0719513" lon="-105.2301771">
  <ele>1582.98</ele>
  <time>2026-08-28T17:51:20Z</time>
  <course>2.51</course>
  <speed>3.552027589982938</speed>
  <fix>3d</fix>
</trkpt>
<trkpt lat="40.0719443" lon="-105.2301776">
  <ele>1583.0</ele>
  <time>2026-08-28T17:51:20Z</time>
  <course>1.72</course>
  <speed>3.32</speed>
  <fix>3d</fix>
</trkpt>
<trkpt lat="40.0719545" lon="-105.230177">
  <ele>1582.98</ele>
  <time>2026-08-28T17:51:20Z</time>
  <course>2.51</course>
  <speed>3.652314334774596</speed>
  <fix>3d</fix>
</trkpt>
<trkpt lat="40.0719504" lon="-105.2301774">
  <ele>1583.0</ele>
  <time>2026-08-28T17:51:20Z</time>
  <course>1.76</course>
  <speed>3.52</speed>
  <fix>3d</fix>
</trkpt>
<trkpt lat="40.0719578" lon="-105.2301769">
  <ele>1582.98</ele>
  <time>2026-08-28T17:51:20Z</time>
  <course>2.51</course>
  <speed>3.7522526567383494</speed>
  <fix>3d</fix>
</trkpt>
<trkpt lat="40.0719504" lon="-105.2301774">
  <ele>1583.0</ele>
  <time>2026-08-28T17:51:20Z</time>
  <course>1.76</course>
  <speed>3.52</speed>
  <fix>3d</fix>
</trkpt>
<trkpt lat="40.0719613" lon="-105.2301768">
  <ele>1582.97</ele>
  <time>2026-08-28T17:51:20Z</time>
  <course>2.51</course>
  <speed>3.8621884987659523</speed>
  <fix>3d</fix>
</trkpt>
<trkpt lat="40.0719569" lon="-105.2301771">
  <ele>1583.0</ele>
  <time>2026-08-28T17:51:20Z</time>
  <course>1.76</course>
  <speed>3.73</speed>
  <fix>3d</fix>
</trkpt>
<trkpt lat="40.0719648" lon="-105.2301766">
  <ele>1582.97</ele>
  <time>2026-08-28T17:51:20Z</time>
  <course>2.5</course>
  <speed>3.9621332637860633</speed>
  <fix>3d</fix>
</trkpt>
<trkpt lat="40.0719569" lon="-105.2301771">
  <ele>1583.0</ele>
  <time>2026-08-28T17:51:20Z</time>
  <course>1.76</course>
  <speed>3.73</speed>
  <fix>3d</fix>
</trkpt>
<trkpt lat="40.0719685" lon="-105.2301765">
  <ele>1582.97</ele>
  <time>2026-08-28T17:51:20Z</time>
  <course>2.5</course>
  <speed>4.062413075993134</speed>
  <fix>3d</fix>
</trkpt>
<trkpt lat="40.0719638" lon="-105.2301769">
  <ele>1583.0</ele>
  <time>2026-08-28T17:51:20Z</time>
  <course>1.76</course>
  <speed>3.93</speed>
  <fix>3d</fix>
</trkpt>
<trkpt lat="40.0719722" lon="-105.2301763">
  <ele>1582.97</ele>
  <time>2026-08-28T17:51:20Z</time>
  <course>2.5</course>
  <speed>4.172349458039199</speed>
  <fix>3d</fix>
</trkpt>
<trkpt lat="40.0719638" lon="-105.2301769">
  <ele>1583.0</ele>
  <time>2026-08-28T17:51:20Z</time>
  <course>1.76</course>
  <speed>3.93</speed>
  <fix>3d</fix>
</trkpt>
<trkpt lat="40.071976" lon="-105.2301762">
  <ele>1582.97</ele>
  <time>2026-08-28T17:51:20Z</time>
  <course>2.5</course>
  <speed>4.272294465506796</speed>
  <fix>3d</fix>
</trkpt>
<trkpt lat="40.0719711" lon="-105.2301766">
  <ele>1583.0</ele>
  <time>2026-08-28T17:51:20Z</time>
  <course>1.76</course>
  <speed>4.14</speed>
  <fix>3d</fix>
</trkpt>
<trkpt lat="40.07198" lon="-105.230176">
  <ele>1582.97</ele>
  <time>2026-08-28T17:51:20Z</time>
  <course>2.49</course>
  <speed>4.372573612873773</speed>
  <fix>3d</fix>
</trkpt>
<trkpt lat="40.0719711" lon="-105.2301766">
  <ele>1583.0</ele>
  <time>2026-08-28T17:51:20Z</time>
  <course>1.76</course>
  <speed>4.14</speed>
  <fix>3d</fix>
</trkpt>
<trkpt lat="40.0719839" lon="-105.2301759">
  <ele>1582.97</ele>
  <time>2026-08-28T17:51:20Z</time>
  <course>2.49</course>
  <speed>4.472516070401537</speed>
  <fix>3d</fix>
</trkpt>
<trkpt lat="40.0719787" lon="-105.2301763">
  <ele>1583.0</ele>
  <time>2026-08-28T17:51:20Z</time>
  <course>1.76</course>
  <speed>4.34</speed>
  <fix>3d</fix>
</trkpt>
<trkpt lat="40.071988" lon="-105.2301757">
  <ele>1582.97</ele>
  <time>2026-08-28T17:51:20Z</time>
  <course>2.49</course>
  <speed>4.572461044120551</speed>
  <fix>3d</fix>
</trkpt>
<trkpt lat="40.0719787" lon="-105.2301763">
  <ele>1583.0</ele>
  <time>2026-08-28T17:51:20Z</time>
  <course>1.76</course>
  <speed>4.34</speed>
  <fix>3d</fix>
</trkpt>
<trkpt lat="40.0719922" lon="-105.2301756">
  <ele>1582.97</ele>
  <time>2026-08-28T17:51:20Z</time>
  <course>2.49</course>
  <speed>4.67240837256334</speed>
  <fix>3d</fix>
</trkpt>
<trkpt lat="40.0719866" lon="-105.2301759">
  <ele>1583.0</ele>
  <time>2026-08-28T17:51:20Z</time>
  <course>1.76</course>
  <speed>4.54</speed>
  <fix>3d</fix>
</trkpt>
<trkpt lat="40.0719965" lon="-105.2301754">
  <ele>1582.97</ele>
  <time>2026-08-28T17:51:20Z</time>
  <course>2.49</course>
  <speed>4.7626883164868135</speed>
  <fix>3d</fix>
</trkpt>
<trkpt lat="40.0719866" lon="-105.2301759">
  <ele>1583.0</ele>
  <time>2026-08-28T17:51:20Z</time>
  <course>1.76</course>
  <speed>4.54</speed>
  <fix>3d</fix>
</trkpt>
<trkpt lat="40.0720008" lon="-105.2301752">
  <ele>1582.97</ele>
  <time>2026-08-28T17:51:20Z</time>
  <course>2.49</course>
  <speed>4.852638457581607</speed>
  <fix>3d</fix>
</trkpt>
<trkpt lat="40.0719866" lon="-105.2301759">
  <ele>1583.0</ele>
  <time>2026-08-28T17:51:20Z</time>
  <course>1.76</course>
  <speed>4.54</speed>
  <fix>3d</fix>
</trkpt>
<trkpt lat="40.0720052" lon="-105.2301751">
  <ele>1582.97</ele>
  <time>2026-08-28T17:51:20Z</time>
  <course>2.49</course>
  <speed>4.9325956655700045</speed>
  <fix>3d</fix>
</trkpt>
<trkpt lat="40.071995" lon="-105.2301756">
  <ele>1583.0</ele>
  <time>2026-08-28T17:51:20Z</time>
  <course>1.76</course>
  <speed>4.72</speed>
  <fix>3d</fix>
</trkpt>
<trkpt lat="40.0720096" lon="-105.2301749">
  <ele>1582.97</ele>
  <time>2026-08-28T17:51:20Z</time>
  <course>2.49</course>
  <speed>5.00255934497533</speed>
  <fix>3d</fix>
</trkpt>
<trkpt lat="40.071995" lon="-105.2301756">
  <ele>1583.0</ele>
  <time>2026-08-28T17:51:20Z</time>
  <course>1.76</course>
  <speed>4.72</speed>
  <fix>3d</fix>
</trkpt>
<trkpt lat="40.0720141" lon="-105.2301747">
  <ele>1582.97</ele>
  <time>2026-08-28T17:51:20Z</time>
  <course>2.48</course>
  <speed>5.062529012262547</speed>
  <fix>3d</fix>
</trkpt>
<trkpt lat="40.0720036" lon="-105.2301753">
  <ele>1583.0</ele>
  <time>2026-08-28T17:51:20Z</time>
  <course>1.76</course>
  <speed>4.89</speed>
  <fix>3d</fix>
</trkpt>
<trkpt lat="40.0720186" lon="-105.2301745">
  <ele>1582.97</ele>
  <time>2026-08-28T17:51:20Z</time>
  <course>2.48</course>
  <speed>5.112827006656885</speed>
  <fix>3d</fix>
</trkpt>
<trkpt lat="40.0720036" lon="-105.2301753">
  <ele>1583.0</ele>
  <time>2026-08-28T17:51:20Z</time>
  <course>1.76</course>
  <speed>4.89</speed>
  <fix>3d</fix>
</trkpt>
<trkpt lat="40.0720232" lon="-105.2301744">
  <ele>1582.96</ele>
  <time>2026-08-28T17:51:20Z</time>
  <course>2.48</course>
  <speed>5.152805061323395</speed>
  <fix>3d</fix>
</trkpt>
<trkpt lat="40.0720125" lon="-105.2301749">
  <ele>1583.0</ele>
  <time>2026-08-28T17:51:20Z</time>
  <course>1.76</course>
  <speed>5.03</speed>
  <fix>3d</fix>
</trkpt>
<trkpt lat="40.0720278" lon="-105.2301742">
  <ele>1582.96</ele>
  <time>2026-08-28T17:51:20Z</time>
  <course>2.48</course>
  <speed>5.18278882456154</speed>
  <fix>3d</fix>
</trkpt>
<trkpt lat="40.0720125" lon="-105.2301749">
  <ele>1583.0</ele>
  <time>2026-08-28T17:51:20Z</time>
  <course>1.76</course>
  <speed>5.03</speed>
  <fix>3d</fix>
</trkpt>
<trkpt lat="40.0720324" lon="-105.230174">
  <ele>1582.96</ele>
  <time>2026-08-28T17:51:20Z</time>
  <course>2.48</course>
  <speed>5.202778104051719</speed>
  <fix>3d</fix>
</trkpt>
<trkpt lat="40.0720216" lon="-105.2301745">
  <ele>1583.0</ele>
  <time>2026-08-28T17:51:20Z</time>
  <course>1.76</course>
  <speed>5.13</speed>
  <fix>3d</fix>
</trkpt>
<trkpt lat="40.072037" lon="-105.2301738">
  <ele>1582.96</ele>
  <time>2026-08-28T17:51:20Z</time>
  <course>2.48</course>
  <speed>5.212772774637314</speed>
  <fix>3d</fix>
</trkpt>
<trkpt lat="40.0720309" lon="-105.2301741">
  <ele>1583.0</ele>
  <time>2026-08-28T17:51:20Z</time>
  <course>1.76</course>
  <speed>5.18</speed>
  <fix>3d</fix>
</trkpt>
<trkpt lat="40.0720417" lon="-105.2301736">
  <ele>1582.96</ele>
  <time>2026-08-28T17:51:20Z</time>
  <course>2.48</course>
  <speed>5.2124562348282595</speed>
  <fix>3d</fix>
</trkpt>
<trkpt lat="40.0720309" lon="-105.2301741">
  <ele>1583.0</ele>
  <time>2026-08-28T17:51:20Z</time>
  <course>1.76</course>
  <speed>5.18</speed>
  <fix>3d</fix>
</trkpt>
<trkpt lat="40.0720463" lon="-105.2301734">
  <ele>1582.97</ele>
  <time>2026-08-28T17:51:20Z</time>
  <course>2.48</course>
  <speed>5.2124562348282595</speed>
  <fix>3d</fix>
</trkpt>
<trkpt lat="40.0720403" lon="-105.2301737">
  <ele>1583.0</ele>
  <time>2026-08-28T17:51:20Z</time>
  <course>1.76</course>
  <speed>5.2</speed>
  <fix>3d</fix>
</trkpt>
<trkpt lat="40.072051" lon="-105.2301733">
  <ele>1582.97</ele>
  <time>2026-08-28T17:51:20Z</time>
  <course>2.48</course>
  <speed>5.192465695601657</speed>
  <fix>3d</fix>
</trkpt>
<trkpt lat="40.0720403" lon="-105.2301737">
  <ele>1583.0</ele>
  <time>2026-08-28T17:51:20Z</time>
  <course>1.76</course>
  <speed>5.2</speed>
  <fix>3d</fix>
</trkpt>
<trkpt lat="40.0720557" lon="-105.2301731">
  <ele>1582.97</ele>
  <time>2026-08-28T17:51:20Z</time>
  <course>2.48</course>
  <speed>5.172475229520196</speed>
  <fix>3d</fix>
</trkpt>
<trkpt lat="40.0720496" lon="-105.2301734">
  <ele>1583.0</ele>
  <time>2026-08-28T17:51:20Z</time>
  <course>1.76</course>
  <speed>5.18</speed>
  <fix>3d</fix>
</trkpt>
<trkpt lat="40.0720604" lon="-105.2301729">
  <ele>1582.97</ele>
  <time>2026-08-28T17:51:20Z</time>
  <course>2.48</course>
  <speed>5.152484837435235</speed>
  <fix>3d</fix>
</trkpt>
<trkpt lat="40.0720496" lon="-105.2301734">
  <ele>1583.0</ele>
  <time>2026-08-28T17:51:20Z</time>
  <course>1.76</course>
  <speed>5.18</speed>
  <fix>3d</fix>
</trkpt>
<trkpt lat="40.072065" lon="-105.2301727">
  <ele>1582.98</ele>
  <time>2026-08-28T17:51:20Z</time>
  <course>2.48</course>
  <speed>5.122499389946279</speed>
  <fix>3d</fix>
</trkpt>
<trkpt lat="40.0720589" lon="-105.230173">
  <ele>1583.0</ele>
  <time>2026-08-28T17:51:20Z</time>
  <course>1.76</course>
  <speed>5.14</speed>
  <fix>3d</fix>
</trkpt>
<trkpt lat="40.0720696" lon="-105.2301725">
  <ele>1582.98</ele>
  <time>2026-08-28T17:51:20Z</time>
  <course>2.48</course>
  <speed>5.092514113873421</speed>
  <fix>3d</fix>
</trkpt>
<trkpt lat="40.0720589" lon="-105.230173">
  <ele>1583.0</ele>
  <time>2026-08-28T17:51:20Z</time>
  <course>1.76</course>
  <speed>5.14</speed>
  <fix>3d</fix>
</trkpt>
<trkpt lat="40.0720742" lon="-105.2301724">
  <ele>1582.98</ele>
  <time>2026-08-28T17:51:20Z</time>
  <course>2.49</course>
  <speed>5.0622228319188</speed>
  <fix>3d</fix>
</trkpt>
<trkpt lat="40.072068" lon="-105.2301727">
  <ele>1583.0</ele>
  <time>2026-08-28T17:51:20Z</time>
  <course>1.76</course>
  <speed>5.09</speed>
  <fix>3d</fix>
</trkpt>
<trkpt lat="40.0720788" lon="-105.2301722">
  <ele>1582.98</ele>
  <time>2026-08-28T17:51:20Z</time>
  <course>2.49</course>
  <speed>5.032236083492109</speed>
  <fix>3d</fix>
</trkpt>
<trkpt lat="40.072068" lon="-105.2301727">
  <ele>1583.0</ele>
  <time>2026-08-28T17:51:20Z</time>
  <course>1.76</course>
  <speed>5.09</speed>
  <fix>3d</fix>
</trkpt>
<trkpt lat="40.0720833" lon="-105.230172">
  <ele>1582.98</ele>
  <time>2026-08-28T17:51:20Z</time>
  <course>2.49</course>
  <speed>5.0022494939776845</speed>
  <fix>3d</fix>
</trkpt>
<trkpt lat="40.0720771" lon="-105.2301722">
  <ele>1583.0</ele>
  <time>2026-08-28T17:51:20Z</time>
  <course>1.76</course>
  <speed>5.03</speed>
  <fix>3d</fix>
</trkpt>
<trkpt lat="40.0720878" lon="-105.2301718">
  <ele>1582.98</ele>
  <time>2026-08-28T17:51:20Z</time>
  <course>2.49</course>
  <speed>4.962267626801279</speed>
  <fix>3d</fix>
</trkpt>
<trkpt lat="40.0720771" lon="-105.2301722">
  <ele>1583.0</ele>
  <time>2026-08-28T17:51:20Z</time>
  <course>1.76</course>
  <speed>5.03</speed>
  <fix>3d</fix>
</trkpt>
<trkpt lat="40.0720922" lon="-105.2301717">
  <ele>1582.98</ele>
  <time>2026-08-28T17:51:20Z</time>
  <course>2.49</course>
  <speed>4.932281419383934</speed>
  <fix>3d</fix>
</trkpt>
<trkpt lat="40.0720861" lon="-105.2301719">
  <ele>1583.0</ele>
  <time>2026-08-28T17:51:20Z</time>
  <course>1.76</course>
  <speed>4.96</speed>
  <fix>3d</fix>
</trkpt>
<trkpt lat="40.0720966" lon="-105.2301715">
  <ele>1582.98</ele>
  <time>2026-08-28T17:51:20Z</time>
  <course>2.49</course>
  <speed>4.902295380737477</speed>
  <fix>3d</fix>
</trkpt>
<trkpt lat="40.0720861" lon="-105.2301719">
  <ele>1583.0</ele>
  <time>2026-08-28T17:51:20Z</time>
  <course>1.76</course>
  <speed>4.96</speed>
  <fix>3d</fix>
</trkpt>
<trkpt lat="40.072101" lon="-105.2301713">
  <ele>1582.98</ele>
  <time>2026-08-28T17:51:20Z</time>
  <course>2.49</course>
  <speed>4.87201190474736</speed>
  <fix>3d</fix>
</trkpt>
<trkpt lat="40.0720861" lon="-105.2301719">
  <ele>1583.0</ele>
  <time>2026-08-28T17:51:20Z</time>
  <course>1.76</course>
  <speed>4.96</speed>
  <fix>3d</fix>
</trkpt>
<trkpt lat="40.0721054" lon="-105.2301711">
  <ele>1582.98</ele>
  <time>2026-08-28T17:51:20Z</time>
  <course>2.49</course>
  <speed>4.8520201978145145</speed>
  <fix>3d</fix>
</trkpt>
<trkpt lat="40.072095" lon="-105.2301715">
  <ele>1583.0</ele>
  <time>2026-08-28T17:51:20Z</time>
  <course>1.76</course>
  <speed>4.91</speed>
  <fix>3d</fix>
</trkpt>
<trkpt lat="40.0721097" lon="-105.230171">
  <ele>1582.97</ele>
  <time>2026-08-28T17:51:20Z</time>
  <course>2.49</course>
  <speed>4.832028559518249</speed>
  <fix>3d</fix>
</trkpt>
<trkpt lat="40.072095" lon="-105.2301715">
  <ele>1583.0</ele>
  <time>2026-08-28T17:51:20Z</time>
  <course>1.76</course>
  <speed>4.91</speed>
  <fix>3d</fix>
</trkpt>
<trkpt lat="40.072114" lon="-105.2301708">
  <ele>1582.97</ele>
  <time>2026-08-28T17:51:20Z</time>
  <course>2.47</course>
  <speed>4.802041232642635</speed>
  <fix>3d</fix>
</trkpt>
<trkpt lat="40.0721038" lon="-105.2301712">
  <ele>1583.0</ele>
  <time>2026-08-28T17:51:20Z</time>
  <course>1.76</course>
  <speed>4.86</speed>
  <fix>3d</fix>
</trkpt>
<trkpt lat="40.0721182" lon="-105.2301706">
  <ele>1582.97</ele>
  <time>2026-08-28T17:51:20Z</time>
  <course>2.46</course>
  <speed>4.792045492271542</speed>
  <fix>3d</fix>
</trkpt>
<trkpt lat="40.0721038" lon="-105.2301712">
  <ele>1583.0</ele>
  <time>2026-08-28T17:51:20Z</time>
  <course>1.76</course>
  <speed>4.86</speed>
  <fix>3d</fix>
</trkpt>
<trkpt lat="40.0721225" lon="-105.2301705">
  <ele>1582.97</ele>
  <time>2026-08-28T17:51:20Z</time>
  <course>2.43</course>
  <speed>4.772054065075122</speed>
  <fix>3d</fix>
</trkpt>
<trkpt lat="40.0721125" lon="-105.2301708">
  <ele>1583.0</ele>
  <time>2026-08-28T17:51:20Z</time>
  <course>1.74</course>
  <speed>4.82</speed>
  <fix>3d</fix>
</trkpt>
<trkpt lat="40.0721268" lon="-105.2301703">
  <ele>1582.97</ele>
  <time>2026-08-28T17:51:20Z</time>
  <course>2.38</course>
  <speed>4.761774879181081</speed>
  <fix>3d</fix>
</trkpt>
<trkpt lat="40.0721212" lon="-105.2301705">
  <ele>1583.0</ele>
  <time>2026-08-28T17:51:20Z</time>
  <course>1.69</course>
  <speed>4.8</speed>
  <fix>3d</fix>
</trkpt>
<trkpt lat="40.072131" lon="-105.2301702">
  <ele>1582.97</ele>
  <time>2026-08-28T17:51:20Z</time>
  <course>2.36</course>
  <speed>4.761774879181081</speed>
  <fix>3d</fix>
</trkpt>
<trkpt lat="40.0721212" lon="-105.2301705">
  <ele>1583.0</ele>
  <time>2026-08-28T17:51:20Z</time>
  <course>1.69</course>
  <speed>4.8</speed>
  <fix>3d</fix>
</trkpt>
<trkpt lat="40.0721353" lon="-105.23017">
  <ele>1582.97</ele>
  <time>2026-08-28T17:51:20Z</time>
  <course>2.32</course>
  <speed>4.761774879181081</speed>
  <fix>3d</fix>
</trkpt>
<trkpt lat="40.0721298" lon="-105.2301702">
  <ele>1583.0</ele>
  <time>2026-08-28T17:51:20Z</time>
  <course>1.61</course>
  <speed>4.79</speed>
  <fix>3d</fix>
</trkpt>
<trkpt lat="40.0721396" lon="-105.2301698">
  <ele>1582.97</ele>
  <time>2026-08-28T17:51:20Z</time>
  <course>2.27</course>
  <speed>4.761512364784954</speed>
  <fix>3d</fix>
</trkpt>
<trkpt lat="40.0721298" lon="-105.2301702">
  <ele>1583.0</ele>
  <time>2026-08-28T17:51:20Z</time>
  <course>1.61</course>
  <speed>4.79</speed>
  <fix>3d</fix>
</trkpt>
<trkpt lat="40.0721439" lon="-105.2301697">
  <ele>1582.97</ele>
  <time>2026-08-28T17:51:20Z</time>
  <course>2.24</course>
  <speed>4.761512364784954</speed>
  <fix>3d</fix>
</trkpt>
<trkpt lat="40.0721384" lon="-105.2301699">
  <ele>1583.0</ele>
  <time>2026-08-28T17:51:20Z</time>
  <course>1.54</course>
  <speed>4.79</speed>
  <fix>3d</fix>
</trkpt>
<trkpt lat="40.0721482" lon="-105.2301696">
  <ele>1582.97</ele>
  <time>2026-08-28T17:51:20Z</time>
  <course>2.2</course>
  <speed>4.761512364784954</speed>
  <fix>3d</fix>
</trkpt>
<trkpt lat="40.0721384" lon="-105.2301699">
  <ele>1583.0</ele>
  <time>2026-08-28T17:51:20Z</time>
  <course>1.54</course>
  <speed>4.79</speed>
  <fix>3d</fix>
</trkpt>
<trkpt lat="40.0721525" lon="-105.2301694">
  <ele>1582.98</ele>
  <time>2026-08-28T17:51:20Z</time>
  <course>2.17</course>
  <speed>4.771268175233917</speed>
  <fix>3d</fix>
</trkpt>
<trkpt lat="40.072147" lon="-105.2301696">
  <ele>1583.0</ele>
  <time>2026-08-28T17:51:20Z</time>
  <course>1.45</course>
  <speed>4.8</speed>
  <fix>3d</fix>
</trkpt>
<trkpt lat="40.0721569" lon="-105.2301693">
  <ele>1582.98</ele>
  <time>2026-08-28T17:51:20Z</time>
  <course>2.12</course>
  <speed>4.781265522850618</speed>
  <fix>3d</fix>
</trkpt>
<trkpt lat="40.072147" lon="-105.2301696">
  <ele>1583.0</ele>
  <time>2026-08-28T17:51:20Z</time>
  <course>1.45</course>
  <speed>4.8</speed>
  <fix>3d</fix>
</trkpt>
<trkpt lat="40.0721612" lon="-105.2301692">
  <ele>1582.98</ele>
  <time>2026-08-28T17:51:20Z</time>
  <course>2.08</course>
  <speed>4.781265522850618</speed>
  <fix>3d</fix>
</trkpt>
<trkpt lat="40.0721556" lon="-105.2301693">
  <ele>1583.0</ele>
  <time>2026-08-28T17:51:20Z</time>
  <course>1.37</course>
  <speed>4.81</speed>
  <fix>3d</fix>
</trkpt>
<trkpt lat="40.0721656" lon="-105.230169">
  <ele>1582.98</ele>
  <time>2026-08-28T17:51:20Z</time>
  <course>2.06</course>
  <speed>4.791262881537602</speed>
  <fix>3d</fix>
</trkpt>
<trkpt lat="40.0721556" lon="-105.2301693">
  <ele>1583.0</ele>
  <time>2026-08-28T17:51:20Z</time>
  <course>1.37</course>
  <speed>4.81</speed>
  <fix>3d</fix>
</trkpt>
<trkpt lat="40.0721699" lon="-105.2301689">
  <ele>1582.98</ele>
  <time>2026-08-28T17:51:20Z</time>
  <course>2.0</course>
  <speed>4.801041553663122</speed>
  <fix>3d</fix>
</trkpt>
<trkpt lat="40.0721643" lon="-105.230169">
  <ele>1583.0</ele>
  <time>2026-08-28T17:51:20Z</time>
  <course>1.28</course>
  <speed>4.82</speed>
  <fix>3d</fix>
</trkpt>
<trkpt lat="40.0721743" lon="-105.2301688">
  <ele>1582.98</ele>
  <time>2026-08-28T17:51:20Z</time>
  <course>1.97</course>
  <speed>4.811039388739195</speed>
  <fix>3d</fix>
</trkpt>
<trkpt lat="40.0721643" lon="-105.230169">
  <ele>1583.0</ele>
  <time>2026-08-28T17:51:20Z</time>
  <course>1.28</course>
  <speed>4.82</speed>
  <fix>3d</fix>
</trkpt>
<trkpt lat="40.0721786" lon="-105.2301687">
  <ele>1582.98</ele>
  <time>2026-08-28T17:51:20Z</time>
  <course>1.94</course>
  <speed>4.821037232795449</speed>
  <fix>3d</fix>
</trkpt>
<trkpt lat="40.0721729" lon="-105.2301688">
  <ele>1583.0</ele>
  <time>2026-08-28T17:51:20Z</time>
  <course>1.2</course>
  <speed>4.84</speed>
  <fix>3d</fix>
</trkpt>
<trkpt lat="40.072183" lon="-105.2301685">
  <ele>1582.98</ele>
  <time>2026-08-28T17:51:20Z</time>
  <course>1.89</course>
  <speed>4.830838436544944</speed>
  <fix>3d</fix>
</trkpt>
<trkpt lat="40.0721729" lon="-105.2301688">
  <ele>1583.0</ele>
  <time>2026-08-28T17:51:20Z</time>
  <course>1.2</course>
  <speed>4.84</speed>
  <fix>3d</fix>
</trkpt>
<trkpt lat="40.0721874" lon="-105.2301684">
  <ele>1582.98</ele>
  <time>2026-08-28T17:51:20Z</time>
  <course>1.87</course>
  <speed>4.84083670453776</speed>
  <fix>3d</fix>
</trkpt>
<trkpt lat="40.0721729" lon="-105.2301688">
  <ele>1583.0</ele>
  <time>2026-08-28T17:51:20Z</time>
  <course>1.2</course>
  <speed>4.84</speed>
  <fix>3d</fix>
</trkpt>
<trkpt lat="40.0721917" lon="-105.2301683">
  <ele>1582.98</ele>
  <time>2026-08-28T17:51:20Z</time>
  <course>1.82</course>
  <speed>4.84083670453776</speed>
  <fix>3d</fix>
</trkpt>
<trkpt lat="40.0721817" lon="-105.2301685">
  <ele>1583.0</ele>
  <time>2026-08-28T17:51:20Z</time>
  <course>1.12</course>
  <speed>4.86</speed>
  <fix>3d</fix>
</trkpt>
<trkpt lat="40.0721961" lon="-105.2301682">
  <ele>1582.98</ele>
  <time>2026-08-28T17:51:20Z</time>
  <course>1.78</course>
  <speed>4.850834979671026</speed>
  <fix>3d</fix>
</trkpt>
<trkpt lat="40.0721817" lon="-105.2301685">
  <ele>1583.0</ele>
  <time>2026-08-28T17:51:20Z</time>
  <course>1.12</course>
  <speed>4.86</speed>
  <fix>3d</fix>
</trkpt>
<trkpt lat="40.0722004" lon="-105.2301681">
  <ele>1582.98</ele>
  <time>2026-08-28T17:51:20Z</time>
  <course>1.75</course>
  <speed>4.850834979671026</speed>
  <fix>3d</fix>
</trkpt>
<trkpt lat="40.0721905" lon="-105.2301684">
  <ele>1583.0</ele>
  <time>2026-08-28T17:51:20Z</time>
  <course>1.04</course>
  <speed>4.87</speed>
  <fix>3d</fix>
</trkpt>
<trkpt lat="40.0722048" lon="-105.230168">
  <ele>1582.97</ele>
  <time>2026-08-28T17:51:20Z</time>
  <course>1.7</course>
  <speed>4.860658391617333</speed>
  <fix>3d</fix>
</trkpt>
<trkpt lat="40.0721905" lon="-105.2301684">
  <ele>1583.0</ele>
  <time>2026-08-28T17:51:20Z</time>
  <course>1.04</course>
  <speed>4.87</speed>
  <fix>3d</fix>
</trkpt>
<trkpt lat="40.0722091" lon="-105.2301679">
  <ele>1582.97</ele>
  <time>2026-08-28T17:51:20Z</time>
  <course>1.67</course>
  <speed>4.860658391617333</speed>
  <fix>3d</fix>
</trkpt>
<trkpt lat="40.0721992" lon="-105.2301682">
  <ele>1583.0</ele>
  <time>2026-08-28T17:51:20Z</time>
  <course>0.95</course>
  <speed>4.89</speed>
  <fix>3d</fix>
</trkpt>
<trkpt lat="40.0722135" lon="-105.2301678">
  <ele>1582.97</ele>
  <time>2026-08-28T17:51:20Z</time>
  <course>1.64</course>
  <speed>4.870657039866388</speed>
  <fix>3d</fix>
</trkpt>
<trkpt lat="40.072208" lon="-105.2301679">
  <ele>1583.0</ele>
  <time>2026-08-28T17:51:20Z</time>
  <course>0.88</course>
  <speed>4.9</speed>
  <fix>3d</fix>
</trkpt>
<trkpt lat="40.0722179" lon="-105.2301677">
  <ele>1582.96</ele>
  <time>2026-08-28T17:51:20Z</time>
  <course>1.61</course>
  <speed>4.870503054100264</speed>
  <fix>3d</fix>
</trkpt>
<trkpt lat="40.072208" lon="-105.2301679">
  <ele>1583.0</ele>
  <time>2026-08-28T17:51:20Z</time>
  <course>0.88</course>
  <speed>4.9</speed>
  <fix>3d</fix>
</trkpt>
<trkpt lat="40.0722223" lon="-105.2301677">
  <ele>1582.96</ele>
  <time>2026-08-28T17:51:21Z</time>
  <course>1.56</course>
  <speed>4.8805020233578436</speed>
  <fix>3d</fix>
</trkpt>
<trkpt lat="40.0722169" lon="-105.2301678">
  <ele>1583.0</ele>
  <time>2026-08-28T17:51:21Z</time>
  <course>0.8</course>
  <speed>4.91</speed>
  <fix>3d</fix>
</trkpt>
<trkpt lat="40.0722268" lon="-105.2301676">
  <ele>1582.96</ele>
  <time>2026-08-28T17:51:21Z</time>
  <course>1.54</course>
  <speed>4.8805020233578436</speed>
  <fix>3d</fix>
</trkpt>
<trkpt lat="40.0722169" lon="-105.2301678">
  <ele>1583.0</ele>
  <time>2026-08-28T17:51:21Z</time>
  <course>0.8</course>
  <speed>4.91</speed>
  <fix>3d</fix>
</trkpt>
<trkpt lat="40.0722312" lon="-105.2301675">
  <ele>1582.96</ele>
  <time>2026-08-28T17:51:21Z</time>
  <course>1.51</course>
  <speed>4.890500996830488</speed>
  <fix>3d</fix>
</trkpt>
<trkpt lat="40.0722257" lon="-105.2301677">
  <ele>1583.0</ele>
  <time>2026-08-28T17:51:21Z</time>
  <course>0.73</course>
  <speed>4.92</speed>
  <fix>3d</fix>
</trkpt>
<trkpt lat="40.0722356" lon="-105.2301674">
  <ele>1582.96</ele>
  <time>2026-08-28T17:51:21Z</time>
  <course>1.48</course>
  <speed>4.890368084306129</speed>
  <fix>3d</fix>
</trkpt>
<trkpt lat="40.0722257" lon="-105.2301677">
  <ele>1583.0</ele>
  <time>2026-08-28T17:51:21Z</time>
  <course>0.73</course>
  <speed>4.92</speed>
  <fix>3d</fix>
</trkpt>
<trkpt lat="40.0722401" lon="-105.2301674">
  <ele>1582.96</ele>
  <time>2026-08-28T17:51:21Z</time>
  <course>1.44</course>
  <speed>4.890368084306129</speed>
  <fix>3d</fix>
</trkpt>
<trkpt lat="40.0722345" lon="-105.2301675">
  <ele>1583.0</ele>
  <time>2026-08-28T17:51:21Z</time>
  <course>0.66</course>
  <speed>4.93</speed>
  <fix>3d</fix>
</trkpt>
<trkpt lat="40.0722445" lon="-105.2301673">
  <ele>1582.96</ele>
  <time>2026-08-28T17:51:21Z</time>
  <course>1.41</course>
  <speed>4.900367333170035</speed>
  <fix>3d</fix>
</trkpt>
<trkpt lat="40.0722345" lon="-105.2301675">
  <ele>1583.0</ele>
  <time>2026-08-28T17:51:21Z</time>
  <course>0.66</course>
  <speed>4.93</speed>
  <fix>3d</fix>
</trkpt>
<trkpt lat="40.072249" lon="-105.2301672">
  <ele>1582.96</ele>
  <time>2026-08-28T17:51:21Z</time>
  <course>1.39</course>
  <speed>4.900367333170035</speed>
  <fix>3d</fix>
</trkpt>
<trkpt lat="40.0722434" lon="-105.2301674">
  <ele>1583.0</ele>
  <time>2026-08-28T17:51:21Z</time>
  <course>0.59</course>
  <speed>4.93</speed>
  <fix>3d</fix>
</trkpt>
<trkpt lat="40.0722535" lon="-105.2301672">
  <ele>1582.96</ele>
  <time>2026-08-28T17:51:21Z</time>
  <course>1.38</course>
  <speed>4.900367333170035</speed>
  <fix>3d</fix>
</trkpt>
<trkpt lat="40.0722434" lon="-105.2301674">
  <ele>1583.0</ele>
  <time>2026-08-28T17:51:21Z</time>
  <course>0.59</course>
  <speed>4.93</speed>
  <fix>3d</fix>
</trkpt>
<trkpt lat="40.0722579" lon="-105.2301671">
  <ele>1582.96</ele>
  <time>2026-08-28T17:51:21Z</time>
  <course>1.34</course>
  <speed>4.900255095400647</speed>
  <fix>3d</fix>
</trkpt>
<trkpt lat="40.0722523" lon="-105.2301672">
  <ele>1583.0</ele>
  <time>2026-08-28T17:51:21Z</time>
  <course>0.53</course>
  <speed>4.93</speed>
  <fix>3d</fix>
</trkpt>
<trkpt lat="40.0722624" lon="-105.2301671">
  <ele>1582.96</ele>
  <time>2026-08-28T17:51:21Z</time>
  <course>1.32</course>
  <speed>4.900255095400647</speed>
  <fix>3d</fix>
</trkpt>
<trkpt lat="40.0722523" lon="-105.2301672">
  <ele>1583.0</ele>
  <time>2026-08-28T17:51:21Z</time>
  <course>0.53</course>
  <speed>4.93</speed>
  <fix>3d</fix>
</trkpt>
<trkpt lat="40.0722668" lon="-105.230167">
  <ele>1582.96</ele>
  <time>2026-08-28T17:51:21Z</time>
  <course>1.31</course>
  <speed>4.900255095400647</speed>
  <fix>3d</fix>
</trkpt>
<trkpt lat="40.0722611" lon="-105.2301671">
  <ele>1583.0</ele>
  <time>2026-08-28T17:51:21Z</time>
  <course>0.48</course>
  <speed>4.93</speed>
  <fix>3d</fix>
</trkpt>
<trkpt lat="40.0722713" lon="-105.230167">
  <ele>1582.97</ele>
  <time>2026-08-28T17:51:21Z</time>
  <course>1.29</course>
  <speed>4.900255095400647</speed>
  <fix>3d</fix>
</trkpt>
<trkpt lat="40.0722611" lon="-105.2301671">
  <ele>1583.0</ele>
  <time>2026-08-28T17:51:21Z</time>
  <course>0.48</course>
  <speed>4.93</speed>
  <fix>3d</fix>
</trkpt>
<trkpt lat="40.0722757" lon="-105.2301669">
  <ele>1582.97</ele>
  <time>2026-08-28T17:51:21Z</time>
  <course>1.27</course>
  <speed>4.900255095400647</speed>
  <fix>3d</fix>
</trkpt>
<trkpt lat="40.0722611" lon="-105.2301671">
  <ele>1583.0</ele>
  <time>2026-08-28T17:51:21Z</time>
  <course>0.48</course>
  <speed>4.93</speed>
  <fix>3d</fix>
</trkpt>
<trkpt lat="40.0722801" lon="-105.2301669">
  <ele>1582.97</ele>
  <time>2026-08-28T17:51:21Z</time>
  <course>1.27</course>
  <speed>4.890255617040892</speed>
  <fix>3d</fix>
</trkpt>
<trkpt lat="40.07227" lon="-105.230167">
  <ele>1583.0</ele>
  <time>2026-08-28T17:51:21Z</time>
  <course>0.43</course>
  <speed>4.93</speed>
  <fix>3d</fix>
</trkpt>
<trkpt lat="40.0722845" lon="-105.2301668">
  <ele>1582.97</ele>
  <time>2026-08-28T17:51:21Z</time>
  <course>1.24</course>
  <speed>4.890255617040892</speed>
  <fix>3d</fix>
</trkpt>
<trkpt lat="40.07227" lon="-105.230167">
  <ele>1583.0</ele>
  <time>2026-08-28T17:51:21Z</time>
  <course>0.43</course>
  <speed>4.93</speed>
  <fix>3d</fix>
</trkpt>
<trkpt lat="40.0722889" lon="-105.2301668">
  <ele>1582.97</ele>
  <time>2026-08-28T17:51:21Z</time>
  <course>1.22</course>
  <speed>4.8901635964454195</speed>
  <fix>3d</fix>
</trkpt>
<trkpt lat="40.0722789" lon="-105.230167">
  <ele>1583.0</ele>
  <time>2026-08-28T17:51:21Z</time>
  <course>0.39</course>
  <speed>4.92</speed>
  <fix>3d</fix>
</trkpt>
<trkpt lat="40.0722933" lon="-105.2301667">
  <ele>1582.96</ele>
  <time>2026-08-28T17:51:21Z</time>
  <course>1.22</course>
  <speed>4.880163931672787</speed>
  <fix>3d</fix>
</trkpt>
<trkpt lat="40.0722789" lon="-105.230167">
  <ele>1583.0</ele>
  <time>2026-08-28T17:51:21Z</time>
  <course>0.39</course>
  <speed>4.92</speed>
  <fix>3d</fix>
</trkpt>
<trkpt lat="40.0722977" lon="-105.2301667">
  <ele>1582.96</ele>
  <time>2026-08-28T17:51:21Z</time>
  <course>1.2</course>
  <speed>4.880163931672787</speed>
  <fix>3d</fix>
</trkpt>
<trkpt lat="40.0722877" lon="-105.2301669">
  <ele>1583.0</ele>
  <time>2026-08-28T17:51:21Z</time>
  <course>0.37</course>
  <speed>4.92</speed>
  <fix>3d</fix>
</trkpt>
<trkpt lat="40.0723021" lon="-105.2301667">
  <ele>1582.96</ele>
  <time>2026-08-28T17:51:21Z</time>
  <course>1.18</course>
  <speed>4.880163931672787</speed>
  <fix>3d</fix>
</trkpt>
<trkpt lat="40.0722877" lon="-105.2301669">
  <ele>1583.0</ele>
  <time>2026-08-28T17:51:21Z</time>
  <course>0.37</course>
  <speed>4.92</speed>
  <fix>3d</fix>
</trkpt>
<trkpt lat="40.0723065" lon="-105.2301666">
  <ele>1582.96</ele>
  <time>2026-08-28T17:51:21Z</time>
  <course>1.18</course>
  <speed>4.880163931672787</speed>
  <fix>3d</fix>
</trkpt>
<trkpt lat="40.0722966" lon="-105.2301668">
  <ele>1583.0</ele>
  <time>2026-08-28T17:51:21Z</time>
  <course>0.32</course>
  <speed>4.92</speed>
  <fix>3d</fix>
</trkpt>
<trkpt lat="40.0723108" lon="-105.2301666">
  <ele>1582.96</ele>
  <time>2026-08-28T17:51:21Z</time>
  <course>1.16</course>
  <speed>4.880163931672787</speed>
  <fix>3d</fix>
</trkpt>
<trkpt lat="40.0723054" lon="-105.2301667">
  <ele>1583.0</ele>
  <time>2026-08-28T17:51:21Z</time>
  <course>0.29</course>
  <speed>4.92</speed>
  <fix>3d</fix>
</trkpt>
<trkpt lat="40.0723153" lon="-105.2301666">
  <ele>1582.97</ele>
  <time>2026-08-28T17:51:21Z</time>
  <course>1.15</course>
  <speed>4.880163931672787</speed>
  <fix>3d</fix>
</trkpt>
<trkpt lat="40.0723054" lon="-105.2301667">
  <ele>1583.0</ele>
  <time>2026-08-28T17:51:21Z</time>
  <course>0.29</course>
  <speed>4.92</speed>
  <fix>3d</fix>
</trkpt>
<trkpt lat="40.0723196" lon="-105.2301665">
  <ele>1582.97</ele>
  <time>2026-08-28T17:51:21Z</time>
  <course>1.14</course>
  <speed>4.880163931672787</speed>
  <fix>3d</fix>
</trkpt>
<trkpt lat="40.0723143" lon="-105.2301667">
  <ele>1583.0</ele>
  <time>2026-08-28T17:51:21Z</time>
  <course>0.26</course>
  <speed>4.93</speed>
  <fix>3d</fix>
</trkpt>
<trkpt lat="40.0723241" lon="-105.2301665">
  <ele>1582.97</ele>
  <time>2026-08-28T17:51:21Z</time>
  <course>1.11</course>
  <speed>4.8901635964454195</speed>
  <fix>3d</fix>
</trkpt>
<trkpt lat="40.0723143" lon="-105.2301667">
  <ele>1583.0</ele>
  <time>2026-08-28T17:51:21Z</time>
  <course>0.26</course>
  <speed>4.93</speed>
  <fix>3d</fix>
</trkpt>
<trkpt lat="40.0723285" lon="-105.2301665">
  <ele>1582.97</ele>
  <time>2026-08-28T17:51:21Z</time>
  <course>1.12</course>
  <speed>4.8901635964454195</speed>
  <fix>3d</fix>
</trkpt>
<trkpt lat="40.0723231" lon="-105.2301667">
  <ele>1583.0</ele>
  <time>2026-08-28T17:51:21Z</time>
  <course>0.23</course>
  <speed>4.93</speed>
  <fix>3d</fix>
</trkpt>
<trkpt lat="40.072333" lon="-105.2301664">
  <ele>1582.97</ele>
  <time>2026-08-28T17:51:21Z</time>
  <course>1.1</course>
  <speed>4.890092023673992</speed>
  <fix>3d</fix>
</trkpt>
<trkpt lat="40.0723231" lon="-105.2301667">
  <ele>1583.0</ele>
  <time>2026-08-28T17:51:21Z</time>
  <course>0.23</course>
  <speed>4.93</speed>
  <fix>3d</fix>
</trkpt>
<trkpt lat="40.0723375" lon="-105.2301664">
  <ele>1582.98</ele>
  <time>2026-08-28T17:51:21Z</time>
  <course>1.09</course>
  <speed>4.890092023673992</speed>
  <fix>3d</fix>
</trkpt>
<trkpt lat="40.072332" lon="-105.2301666">
  <ele>1583.0</ele>
  <time>2026-08-28T17:51:21Z</time>
  <course>0.2</course>
  <speed>4.93</speed>
  <fix>3d</fix>
</trkpt>
<trkpt lat="40.072342" lon="-105.2301664">
  <ele>1582.98</ele>
  <time>2026-08-28T17:51:21Z</time>
  <course>1.08</course>
  <speed>4.900091835874099</speed>
  <fix>3d</fix>
</trkpt>
<trkpt lat="40.072332" lon="-105.2301666">
  <ele>1583.0</ele>
  <time>2026-08-28T17:51:21Z</time>
  <course>0.2</course>
  <speed>4.93</speed>
  <fix>3d</fix>
</trkpt>
<trkpt lat="40.0723464" lon="-105.2301664">
  <ele>1582.98</ele>
  <time>2026-08-28T17:51:21Z</time>
  <course>1.07</course>
  <speed>4.900091835874099</speed>
  <fix>3d</fix>
</trkpt>
<trkpt lat="40.0723409" lon="-105.2301665">
  <ele>1583.0</ele>
  <time>2026-08-28T17:51:21Z</time>
  <course>0.16</course>
  <speed>4.93</speed>
  <fix>3d</fix>
</trkpt>
<trkpt lat="40.0723509" lon="-105.2301664">
  <ele>1582.98</ele>
  <time>2026-08-28T17:51:21Z</time>
  <course>1.07</course>
  <speed>4.900091835874099</speed>
  <fix>3d</fix>
</trkpt>
<trkpt lat="40.0723409" lon="-105.2301665">
  <ele>1583.0</ele>
  <time>2026-08-28T17:51:21Z</time>
  <course>0.16</course>
  <speed>4.93</speed>
  <fix>3d</fix>
</trkpt>
<trkpt lat="40.0723553" lon="-105.2301663">
  <ele>1582.98</ele>
  <time>2026-08-28T17:51:21Z</time>
  <course>1.05</course>
  <speed>4.900091835874099</speed>
  <fix>3d</fix>
</trkpt>
<trkpt lat="40.0723497" lon="-105.2301665">
  <ele>1583.0</ele>
  <time>2026-08-28T17:51:21Z</time>
  <course>0.14</course>
  <speed>4.93</speed>
  <fix>3d</fix>
</trkpt>
<trkpt lat="40.0723598" lon="-105.2301663">
  <ele>1582.98</ele>
  <time>2026-08-28T17:51:21Z</time>
  <course>1.04</course>
  <speed>4.900091835874099</speed>
  <fix>3d</fix>
</trkpt>
<trkpt lat="40.0723497" lon="-105.2301665">
  <ele>1583.0</ele>
  <time>2026-08-28T17:51:21Z</time>
  <course>0.14</course>
  <speed>4.93</speed>
  <fix>3d</fix>
</trkpt>
<trkpt lat="40.0723643" lon="-105.2301663">
  <ele>1582.98</ele>
  <time>2026-08-28T17:51:21Z</time>
  <course>1.04</course>
  <speed>4.900091835874099</speed>
  <fix>3d</fix>
</trkpt>
<trkpt lat="40.0723586" lon="-105.2301665">
  <ele>1583.0</ele>
  <time>2026-08-28T17:51:21Z</time>
  <course>0.12</course>
  <speed>4.93</speed>
  <fix>3d</fix>
</trkpt>
<trkpt lat="40.0723687" lon="-105.2301663">
  <ele>1582.98</ele>
  <time>2026-08-28T17:51:21Z</time>
  <course>1.02</course>
  <speed>4.900091835874099</speed>
  <fix>3d</fix>
</trkpt>
<trkpt lat="40.0723586" lon="-105.2301665">
  <ele>1583.0</ele>
  <time>2026-08-28T17:51:21Z</time>
  <course>0.12</course>
  <speed>4.93</speed>
  <fix>3d</fix>
</trkpt>
<trkpt lat="40.0723732" lon="-105.2301663">
  <ele>1582.98</ele>
  <time>2026-08-28T17:51:21Z</time>
  <course>1.02</course>
  <speed>4.900091835874099</speed>
  <fix>3d</fix>
</trkpt>
<trkpt lat="40.0723586" lon="-105.2301665">
  <ele>1583.0</ele>
  <time>2026-08-28T17:51:21Z</time>
  <course>0.12</course>
  <speed>4.93</speed>
  <fix>3d</fix>
</trkpt>
<trkpt lat="40.0723776" lon="-105.2301663">
  <ele>1582.98</ele>
  <time>2026-08-28T17:51:21Z</time>
  <course>1.0</course>
  <speed>4.900091835874099</speed>
  <fix>3d</fix>
</trkpt>
<trkpt lat="40.0723675" lon="-105.2301665">
  <ele>1583.0</ele>
  <time>2026-08-28T17:51:21Z</time>
  <course>0.1</course>
  <speed>4.93</speed>
  <fix>3d</fix>
</trkpt>
<trkpt lat="40.072382" lon="-105.2301663">
  <ele>1582.98</ele>
  <time>2026-08-28T17:51:21Z</time>
  <course>1.0</course>
  <speed>4.890092023673992</speed>
  <fix>3d</fix>
</trkpt>
<trkpt lat="40.0723675" lon="-105.2301665">
  <ele>1583.0</ele>
  <time>2026-08-28T17:51:21Z</time>
  <course>0.1</course>
  <speed>4.93</speed>
  <fix>3d</fix>
</trkpt>
<trkpt lat="40.0723864" lon="-105.2301662">
  <ele>1582.98</ele>
  <time>2026-08-28T17:51:21Z</time>
  <course>0.99</course>
  <speed>4.89004089962446</speed>
  <fix>3d</fix>
</trkpt>
<trkpt lat="40.0723763" lon="-105.2301665">
  <ele>1583.0</ele>
  <time>2026-08-28T17:51:21Z</time>
  <course>0.07</course>
  <speed>4.92</speed>
  <fix>3d</fix>
</trkpt>
<trkpt lat="40.0723908" lon="-105.2301662">
  <ele>1582.98</ele>
  <time>2026-08-28T17:51:21Z</time>
  <course>0.99</course>
  <speed>4.890092023673992</speed>
  <fix>3d</fix>
</trkpt>
<trkpt lat="40.0723763" lon="-105.2301665">
  <ele>1583.0</ele>
  <time>2026-08-28T17:51:21Z</time>
  <course>0.07</course>
  <speed>4.92</speed>
  <fix>3d</fix>
</trkpt>
<trkpt lat="40.0723951" lon="-105.2301662">
  <ele>1582.97</ele>
  <time>2026-08-28T17:51:21Z</time>
  <course>0.98</course>
  <speed>4.89004089962446</speed>
  <fix>3d</fix>
</trkpt>
<trkpt lat="40.0723852" lon="-105.2301665">
  <ele>1583.0</ele>
  <time>2026-08-28T17:51:21Z</time>
  <course>0.05</course>
  <speed>4.92</speed>
  <fix>3d</fix>
</trkpt>
<trkpt lat="40.0723996" lon="-105.2301662">
  <ele>1582.97</ele>
  <time>2026-08-28T17:51:21Z</time>
  <course>0.98</course>
  <speed>4.89004089962446</speed>
  <fix>3d</fix>
</trkpt>
<trkpt lat="40.072394" lon="-105.2301665">
  <ele>1583.0</ele>
  <time>2026-08-28T17:51:21Z</time>
  <course>0.04</course>
  <speed>4.92</speed>
  <fix>3d</fix>
</trkpt>
<trkpt lat="40.072404" lon="-105.2301662">
  <ele>1582.97</ele>
  <time>2026-08-28T17:51:21Z</time>
  <course>0.97</course>
  <speed>4.89004089962446</speed>
  <fix>3d</fix>
</trkpt>
<trkpt lat="40.072394" lon="-105.2301665">
  <ele>1583.0</ele>
  <time>2026-08-28T17:51:21Z</time>
  <course>0.04</course>
  <speed>4.92</speed>
  <fix>3d</fix>
</trkpt>
<trkpt lat="40.0724084" lon="-105.2301662">
  <ele>1582.96</ele>
  <time>2026-08-28T17:51:21Z</time>
  <course>0.97</course>
  <speed>4.89004089962446</speed>
  <fix>3d</fix>
</trkpt>
<trkpt lat="40.0724029" lon="-105.2301665">
  <ele>1583.0</ele>
  <time>2026-08-28T17:51:21Z</time>
  <course>0.02</course>
  <speed>4.92</speed>
  <fix>3d</fix>
</trkpt>
<trkpt lat="40.0724128" lon="-105.2301662">
  <ele>1582.96</ele>
  <time>2026-08-28T17:51:21Z</time>
  <course>0.96</course>
  <speed>4.89004089962446</speed>
  <fix>3d</fix>
</trkpt>
<trkpt lat="40.0724029" lon="-105.2301665">
  <ele>1583.0</ele>
  <time>2026-08-28T17:51:21Z</time>
  <course>0.02</course>
  <speed>4.92</speed>
  <fix>3d</fix>
</trkpt>
<trkpt lat="40.0724172" lon="-105.2301662">
  <ele>1582.96</ele>
  <time>2026-08-28T17:51:21Z</time>
  <course>0.96</course>
  <speed>4.89004089962446</speed>
  <fix>3d</fix>
</trkpt>
<trkpt lat="40.0724118" lon="-105.2301665">
  <ele>1583.0</ele>
  <time>2026-08-28T17:51:21Z</time>
  <course>0.01</course>
  <speed>4.93</speed>
  <fix>3d</fix>
</trkpt>
<trkpt lat="40.0724217" lon="-105.2301662">
  <ele>1582.96</ele>
  <time>2026-08-28T17:51:21Z</time>
  <course>0.97</course>
  <speed>4.900040816156535</speed>
  <fix>3d</fix>
</trkpt>
<trkpt lat="40.0724118" lon="-105.2301665">
  <ele>1583.0</ele>
  <time>2026-08-28T17:51:21Z</time>
  <course>0.01</course>
  <speed>4.93</speed>
  <fix>3d</fix>
</trkpt>
<trkpt lat="40.0724262" lon="-105.2301662">
  <ele>1582.96</ele>
  <time>2026-08-28T17:51:21Z</time>
  <course>0.96</course>
  <speed>4.900040816156535</speed>
  <fix>3d</fix>
</trkpt>
<trkpt lat="40.0724206" lon="-105.2301665">
  <ele>1583.0</ele>
  <time>2026-08-28T17:51:21Z</time>
  <course>0.0</course>
  <speed>4.93</speed>
  <fix>3d</fix>
</trkpt>
<trkpt lat="40.0724307" lon="-105.2301662">
  <ele>1582.96</ele>
  <time>2026-08-28T17:51:21Z</time>
  <course>0.96</course>
  <speed>4.900040816156535</speed>
  <fix>3d</fix>
</trkpt>
<trkpt lat="40.0724206" lon="-105.2301665">
  <ele>1583.0</ele>
  <time>2026-08-28T17:51:21Z</time>
  <course>0.0</course>
  <speed>4.93</speed>
  <fix>3d</fix>
</trkpt>
<trkpt lat="40.0724351" lon="-105.2301662">
  <ele>1582.97</ele>
  <time>2026-08-28T17:51:21Z</time>
  <course>0.96</course>
  <speed>4.900040816156535</speed>
  <fix>3d</fix>
</trkpt>
<trkpt lat="40.0724295" lon="-105.2301665">
  <ele>1583.0</ele>
  <time>2026-08-28T17:51:21Z</time>
  <course>359.99</course>
  <speed>4.93</speed>
  <fix>3d</fix>
</trkpt>
<trkpt lat="40.0724396" lon="-105.2301663">
  <ele>1582.97</ele>
  <time>2026-08-28T17:51:21Z</time>
  <course>0.96</course>
  <speed>4.900040816156535</speed>
  <fix>3d</fix>
</trkpt>
<trkpt lat="40.0724295" lon="-105.2301665">
  <ele>1583.0</ele>
  <time>2026-08-28T17:51:21Z</time>
  <course>359.99</course>
  <speed>4.93</speed>
  <fix>3d</fix>
</trkpt>
<trkpt lat="40.072444" lon="-105.2301663">
  <ele>1582.97</ele>
  <time>2026-08-28T17:51:21Z</time>
  <course>0.95</course>
  <speed>4.900040816156535</speed>
  <fix>3d</fix>
</trkpt>
<trkpt lat="40.0724383" lon="-105.2301665">
  <ele>1583.0</ele>
  <time>2026-08-28T17:51:21Z</time>
  <course>359.98</course>
  <speed>4.93</speed>
  <fix>3d</fix>
</trkpt>
<trkpt lat="40.0724485" lon="-105.2301663">
  <ele>1582.97</ele>
  <time>2026-08-28T17:51:21Z</time>
  <course>0.95</course>
  <speed>4.900040816156535</speed>
  <fix>3d</fix>
</trkpt>
<trkpt lat="40.0724383" lon="-105.2301665">
  <ele>1583.0</ele>
  <time>2026-08-28T17:51:21Z</time>
  <course>359.98</course>
  <speed>4.93</speed>
  <fix>3d</fix>
</trkpt>
<trkpt lat="40.0724529" lon="-105.2301663">
  <ele>1582.97</ele>
  <time>2026-08-28T17:51:21Z</time>
  <course>0.96</course>
  <speed>4.900040816156535</speed>
  <fix>3d</fix>
</trkpt>
<trkpt lat="40.0724472" lon="-105.2301665">
  <ele>1583.0</ele>
  <time>2026-08-28T17:51:21Z</time>
  <course>359.98</course>
  <speed>4.92</speed>
  <fix>3d</fix>
</trkpt>
<trkpt lat="40.0724574" lon="-105.2301663">
  <ele>1582.96</ele>
  <time>2026-08-28T17:51:21Z</time>
  <course>0.96</course>
  <speed>4.900040816156535</speed>
  <fix>3d</fix>
</trkpt>
<trkpt lat="40.0724472" lon="-105.2301665">
  <ele>1583.0</ele>
  <time>2026-08-28T17:51:21Z</time>
  <course>359.98</course>
  <speed>4.92</speed>
  <fix>3d</fix>
</trkpt>
<trkpt lat="40.0724618" lon="-105.2301663">
  <ele>1582.96</ele>
  <time>2026-08-28T17:51:21Z</time>
  <course>0.95</course>
  <speed>4.900040816156535</speed>
  <fix>3d</fix>
</trkpt>
<trkpt lat="40.0724472" lon="-105.2301665">
  <ele>1583.0</ele>
  <time>2026-08-28T17:51:21Z</time>
  <course>359.98</course>
  <speed>4.92</speed>
  <fix>3d</fix>
</trkpt>
<trkpt lat="40.0724662" lon="-105.2301663">
  <ele>1582.96</ele>
  <time>2026-08-28T17:51:21Z</time>
  <course>0.95</course>
  <speed>4.900040816156535</speed>
  <fix>3d</fix>
</trkpt>
<trkpt lat="40.072456" lon="-105.2301665">
  <ele>1583.0</ele>
  <time>2026-08-28T17:51:21Z</time>
  <course>359.97</course>
  <speed>4.92</speed>
  <fix>3d</fix>
</trkpt>
<trkpt lat="40.0724706" lon="-105.2301663">
  <ele>1582.96</ele>
  <time>2026-08-28T17:51:21Z</time>
  <course>0.95</course>
  <speed>4.900040816156535</speed>
  <fix>3d</fix>
</trkpt>
<trkpt lat="40.072456" lon="-105.2301665">
  <ele>1583.0</ele>
  <time>2026-08-28T17:51:21Z</time>
  <course>359.97</course>
  <speed>4.92</speed>
  <fix>3d</fix>
</trkpt>
<trkpt lat="40.072475" lon="-105.2301663">
  <ele>1582.96</ele>
  <time>2026-08-28T17:51:21Z</time>
  <course>0.94</course>
  <speed>4.900040816156535</speed>
  <fix>3d</fix>
</trkpt>
<trkpt lat="40.0724649" lon="-105.2301665">
  <ele>1583.0</ele>
  <time>2026-08-28T17:51:21Z</time>
  <course>359.96</course>
  <speed>4.92</speed>
  <fix>3d</fix>
</trkpt>
<trkpt lat="40.0724794" lon="-105.2301663">
  <ele>1582.97</ele>
  <time>2026-08-28T17:51:21Z</time>
  <course>0.94</course>
  <speed>4.89004089962446</speed>
  <fix>3d</fix>
</trkpt>
<trkpt lat="40.0724649" lon="-105.2301665">
  <ele>1583.0</ele>
  <time>2026-08-28T17:51:21Z</time>
  <course>359.96</course>
  <speed>4.92</speed>
  <fix>3d</fix>
</trkpt>
<trkpt lat="40.0724838" lon="-105.2301663">
  <ele>1582.97</ele>
  <time>2026-08-28T17:51:21Z</time>
  <course>0.94</course>
  <speed>4.89004089962446</speed>
  <fix>3d</fix>
</trkpt>
<trkpt lat="40.0724738" lon="-105.2301665">
  <ele>1583.0</ele>
  <time>2026-08-28T17:51:21Z</time>
  <course>359.96</course>
  <speed>4.92</speed>
  <fix>3d</fix>
</trkpt>
<trkpt lat="40.0724882" lon="-105.2301663">
  <ele>1582.97</ele>
  <time>2026-08-28T17:51:21Z</time>
  <course>0.94</course>
  <speed>4.89004089962446</speed>
  <fix>3d</fix>
</trkpt>
<trkpt lat="40.0724738" lon="-105.2301665">
  <ele>1583.0</ele>
  <time>2026-08-28T17:51:21Z</time>
  <course>359.96</course>
  <speed>4.92</speed>
  <fix>3d</fix>
</trkpt>
<trkpt lat="40.0724926" lon="-105.2301663">
  <ele>1582.97</ele>
  <time>2026-08-28T17:51:21Z</time>
  <course>0.93</course>
  <speed>4.89004089962446</speed>
  <fix>3d</fix>
</trkpt>
<trkpt lat="40.0724826" lon="-105.2301665">
  <ele>1583.0</ele>
  <time>2026-08-28T17:51:21Z</time>
  <course>359.95</course>
  <speed>4.92</speed>
  <fix>3d</fix>
</trkpt>
<trkpt lat="40.072497" lon="-105.2301663">
  <ele>1582.97</ele>
  <time>2026-08-28T17:51:21Z</time>
  <course>0.93</course>
  <speed>4.89004089962446</speed>
  <fix>3d</fix>
</trkpt>
<trkpt lat="40.0724915" lon="-105.2301665">
  <ele>1583.0</ele>
  <time>2026-08-28T17:51:21Z</time>
  <course>359.94</course>
  <speed>4.92</speed>
  <fix>3d</fix>
</trkpt>
<trkpt lat="40.0725014" lon="-105.2301663">
  <ele>1582.98</ele>
  <time>2026-08-28T17:51:21Z</time>
  <course>0.93</course>
  <speed>4.89004089962446</speed>
  <fix>3d</fix>
</trkpt>
<trkpt lat="40.0724915" lon="-105.2301665">
  <ele>1583.0</ele>
  <time>2026-08-28T17:51:21Z</time>
  <course>359.94</course>
  <speed>4.92</speed>
  <fix>3d</fix>
</trkpt>
<trkpt lat="40.0725058" lon="-105.2301663">
  <ele>1582.98</ele>
  <time>2026-08-28T17:51:21Z</time>
  <course>0.93</course>
  <speed>4.900040816156535</speed>
  <fix>3d</fix>
</trkpt>
<trkpt lat="40.0725003" lon="-105.2301665">
  <ele>1583.0</ele>
  <time>2026-08-28T17:51:21Z</time>
  <course>359.94</course>
  <speed>4.93</speed>
  <fix>3d</fix>
</trkpt>
<trkpt lat="40.0725102" lon="-105.2301663">
  <ele>1582.98</ele>
  <time>2026-08-28T17:51:21Z</time>
  <course>0.93</course>
  <speed>4.900040816156535</speed>
  <fix>3d</fix>
</trkpt>
<trkpt lat="40.0725003" lon="-105.2301665">
  <ele>1583.0</ele>
  <time>2026-08-28T17:51:21Z</time>
  <course>359.94</course>
  <speed>4.93</speed>
  <fix>3d</fix>
</trkpt>
<trkpt lat="40.0725147" lon="-105.2301663">
  <ele>1582.98</ele>
  <time>2026-08-28T17:51:21Z</time>
  <course>0.92</course>
  <speed>4.900040816156535</speed>
  <fix>3d</fix>
</trkpt>
<trkpt lat="40.0725092" lon="-105.2301665">
  <ele>1583.0</ele>
  <time>2026-08-28T17:51:21Z</time>
  <course>359.93</course>
  <speed>4.93</speed>
  <fix>3d</fix>
</trkpt>
<trkpt lat="40.0725191" lon="-105.2301663">
  <ele>1582.98</ele>
  <time>2026-08-28T17:51:21Z</time>
  <course>0.92</course>
  <speed>4.900040816156535</speed>
  <fix>3d</fix>
</trkpt>
<trkpt lat="40.0725092" lon="-105.2301665">
  <ele>1583.0</ele>
  <time>2026-08-28T17:51:21Z</time>
  <course>359.93</course>
  <speed>4.93</speed>
  <fix>3d</fix>
</trkpt>
<trkpt lat="40.0725236" lon="-105.2301663">
  <ele>1582.98</ele>
  <time>2026-08-28T17:51:21Z</time>
  <course>0.93</course>
  <speed>4.910040733028597</speed>
  <fix>3d</fix>
</trkpt>
<trkpt lat="40.072518" lon="-105.2301665">
  <ele>1583.0</ele>
  <time>2026-08-28T17:51:21Z</time>
  <course>359.92</course>
  <speed>4.93</speed>
  <fix>3d</fix>
</trkpt>
<trkpt lat="40.0725281" lon="-105.2301663">
  <ele>1582.98</ele>
  <time>2026-08-28T17:51:21Z</time>
  <course>0.93</course>
  <speed>4.910040733028597</speed>
  <fix>3d</fix>
</trkpt>
<trkpt lat="40.072518" lon="-105.2301665">
  <ele>1583.0</ele>
  <time>2026-08-28T17:51:21Z</time>
  <course>359.92</course>
  <speed>4.93</speed>
  <fix>3d</fix>
</trkpt>
<trkpt lat="40.0725326" lon="-105.2301663">
  <ele>1582.99</ele>
  <time>2026-08-28T17:51:21Z</time>
  <course>0.92</course>
  <speed>4.910010183288829</speed>
  <fix>3d</fix>
</trkpt>
<trkpt lat="40.0725269" lon="-105.2301665">
  <ele>1583.0</ele>
  <time>2026-08-28T17:51:21Z</time>
  <course>359.92</course>
  <speed>4.93</speed>
  <fix>3d</fix>
</trkpt>
<trkpt lat="40.072537" lon="-105.2301663">
  <ele>1582.99</ele>
  <time>2026-08-28T17:51:21Z</time>
  <course>0.92</course>
  <speed>4.910010183288829</speed>
  <fix>3d</fix>
</trkpt>
<trkpt lat="40.0725269" lon="-105.2301665">
  <ele>1583.0</ele>
  <time>2026-08-28T17:51:21Z</time>
  <course>359.92</course>
  <speed>4.93</speed>
  <fix>3d</fix>
</trkpt>
<trkpt lat="40.0725415" lon="-105.2301663">
  <ele>1582.99</ele>
  <time>2026-08-28T17:51:21Z</time>
  <course>0.92</course>
  <speed>4.910010183288829</speed>
  <fix>3d</fix>
</trkpt>
<trkpt lat="40.0725358" lon="-105.2301665">
  <ele>1583.0</ele>
  <time>2026-08-28T17:51:21Z</time>
  <course>359.91</course>
  <speed>4.93</speed>
  <fix>3d</fix>
</trkpt>
<trkpt lat="40.072546" lon="-105.2301663">
  <ele>1582.99</ele>
  <time>2026-08-28T17:51:21Z</time>
  <course>0.92</course>
  <speed>4.92001016259113</speed>
  <fix>3d</fix>
</trkpt>
<trkpt lat="40.0725358" lon="-105.2301665">
  <ele>1583.0</ele>
  <time>2026-08-28T17:51:21Z</time>
  <course>359.91</course>
  <speed>4.93</speed>
  <fix>3d</fix>
</trkpt>
<trkpt lat="40.0725504" lon="-105.2301663">
  <ele>1582.99</ele>
  <time>2026-08-28T17:51:21Z</time>
  <course>0.92</course>
  <speed>4.920040650238573</speed>
  <fix>3d</fix>
</trkpt>
<trkpt lat="40.0725446" lon="-105.2301665">
  <ele>1583.0</ele>
  <time>2026-08-28T17:51:21Z</time>
  <course>359.91</course>
  <speed>4.93</speed>
  <fix>3d</fix>
</trkpt>
<trkpt lat="40.0725549" lon="-105.2301663">
  <ele>1582.99</ele>
  <time>2026-08-28T17:51:21Z</time>
  <course>0.91</course>
  <speed>4.92001016259113</speed>
  <fix>3d</fix>
</trkpt>
<trkpt lat="40.0725446" lon="-105.2301665">
  <ele>1583.0</ele>
  <time>2026-08-28T17:51:21Z</time>
  <course>359.91</course>
  <speed>4.93</speed>
  <fix>3d</fix>
</trkpt>
<trkpt lat="40.0725593" lon="-105.2301663">
  <ele>1582.99</ele>
  <time>2026-08-28T17:51:21Z</time>
  <course>0.91</course>
  <speed>4.92001016259113</speed>
  <fix>3d</fix>
</trkpt>
<trkpt lat="40.0725446" lon="-105.2301665">
  <ele>1583.0</ele>
  <time>2026-08-28T17:51:21Z</time>
  <course>359.91</course>
  <speed>4.93</speed>
  <fix>3d</fix>
</trkpt>
<trkpt lat="40.0725637" lon="-105.2301663">
  <ele>1582.99</ele>
  <time>2026-08-28T17:51:21Z</time>
  <course>0.91</course>
  <speed>4.910010183288829</speed>
  <fix>3d</fix>
</trkpt>
<trkpt lat="40.0725535" lon="-105.2301665">
  <ele>1583.0</ele>
  <time>2026-08-28T17:51:21Z</time>
  <course>359.9</course>
  <speed>4.93</speed>
  <fix>3d</fix>
</trkpt>
<trkpt lat="40.0725682" lon="-105.2301663">
  <ele>1582.98</ele>
  <time>2026-08-28T17:51:21Z</time>
  <course>0.9</course>
  <speed>4.910010183288829</speed>
  <fix>3d</fix>
</trkpt>
<trkpt lat="40.0725535" lon="-105.2301665">
  <ele>1583.0</ele>
  <time>2026-08-28T17:51:21Z</time>
  <course>359.9</course>
  <speed>4.93</speed>
  <fix>3d</fix>
</trkpt>
<trkpt lat="40.0725725" lon="-105.2301663">
  <ele>1582.98</ele>
  <time>2026-08-28T17:51:21Z</time>
  <course>0.9</course>
  <speed>4.910010183288829</speed>
  <fix>3d</fix>
</trkpt>
<trkpt lat="40.0725624" lon="-105.2301665">
  <ele>1583.0</ele>
  <time>2026-08-28T17:51:21Z</time>
  <course>359.89</course>
  <speed>4.93</speed>
  <fix>3d</fix>
</trkpt>
<trkpt lat="40.0725769" lon="-105.2301663">
  <ele>1582.98</ele>
  <time>2026-08-28T17:51:21Z</time>
  <course>0.9</course>
  <speed>4.900010204071008</speed>
  <fix>3d</fix>
</trkpt>
<trkpt lat="40.0725624" lon="-105.2301665">
  <ele>1583.0</ele>
  <time>2026-08-28T17:51:21Z</time>
  <course>359.89</course>
  <speed>4.93</speed>
  <fix>3d</fix>
</trkpt>
<trkpt lat="40.0725813" lon="-105.2301663">
  <ele>1582.98</ele>
  <time>2026-08-28T17:51:21Z</time>
  <course>0.9</course>
  <speed>4.900010204071008</speed>
  <fix>3d</fix>
</trkpt>
<trkpt lat="40.0725713" lon="-105.2301665">
  <ele>1583.0</ele>
  <time>2026-08-28T17:51:21Z</time>
  <course>359.88</course>
  <speed>4.93</speed>
  <fix>3d</fix>
</trkpt>
<trkpt lat="40.0725857" lon="-105.2301663">
  <ele>1582.98</ele>
  <time>2026-08-28T17:51:21Z</time>
  <course>0.9</course>
  <speed>4.880010245890883</speed>
  <fix>3d</fix>
</trkpt>
<trkpt lat="40.0725801" lon="-105.2301665">
  <ele>1583.0</ele>
  <time>2026-08-28T17:51:21Z</time>
  <course>359.88</course>
  <speed>4.92</speed>
  <fix>3d</fix>
</trkpt>
<trkpt lat="40.0725901" lon="-105.2301663">
  <ele>1582.98</ele>
  <time>2026-08-28T17:51:21Z</time>
  <course>0.9</course>
  <speed>4.870010266929629</speed>
  <fix>3d</fix>
</trkpt>
<trkpt lat="40.0725801" lon="-105.2301665">
  <ele>1583.0</ele>
  <time>2026-08-28T17:51:21Z</time>
  <course>359.88</course>
  <speed>4.92</speed>
  <fix>3d</fix>
</trkpt>
<trkpt lat="40.0725945" lon="-105.2301663">
  <ele>1582.98</ele>
  <time>2026-08-28T17:51:21Z</time>
  <course>0.9</course>
  <speed>4.8400103305674875</speed>
  <fix>3d</fix>
</trkpt>
<trkpt lat="40.0725889" lon="-105.2301665">
  <ele>1583.0</ele>
  <time>2026-08-28T17:51:21Z</time>
  <course>359.88</course>
  <speed>4.89</speed>
  <fix>3d</fix>
</trkpt>
<trkpt lat="40.0725988" lon="-105.2301663">
  <ele>1582.98</ele>
  <time>2026-08-28T17:51:21Z</time>
  <course>0.91</course>
  <speed>4.810010394999162</speed>
  <fix>3d</fix>
</trkpt>
<trkpt lat="40.0725889" lon="-105.2301665">
  <ele>1583.0</ele>
  <time>2026-08-28T17:51:21Z</time>
  <course>359.88</course>
  <speed>4.89</speed>
  <fix>3d</fix>
</trkpt>
<trkpt lat="40.0726032" lon="-105.2301663">
  <ele>1582.97</ele>
  <time>2026-08-28T17:51:21Z</time>
  <course>0.91</course>
  <speed>4.770010482168776</speed>
  <fix>3d</fix>
</trkpt>
<trkpt lat="40.0725977" lon="-105.2301665">
  <ele>1583.0</ele>
  <time>2026-08-28T17:51:21Z</time>
  <course>359.88</course>
  <speed>4.83</speed>
  <fix>3d</fix>
</trkpt>
<trkpt lat="40.0726075" lon="-105.2301663">
  <ele>1582.97</ele>
  <time>2026-08-28T17:51:21Z</time>
  <course>0.91</course>
  <speed>4.7200105932084515</speed>
  <fix>3d</fix>
</trkpt>
<trkpt lat="40.0725977" lon="-105.2301665">
  <ele>1583.0</ele>
  <time>2026-08-28T17:51:21Z</time>
  <course>359.88</course>
  <speed>4.83</speed>
  <fix>3d</fix>
</trkpt>
<trkpt lat="40.0726117" lon="-105.2301663">
  <ele>1582.97</ele>
  <time>2026-08-28T17:51:21Z</time>
  <course>0.91</course>
  <speed>4.6500107526757395</speed>
  <fix>3d</fix>
</trkpt>
<trkpt lat="40.0726063" lon="-105.2301666">
  <ele>1583.0</ele>
  <time>2026-08-28T17:51:21Z</time>
  <course>359.88</course>
  <speed>4.74</speed>
  <fix>3d</fix>
</trkpt>
<trkpt lat="40.072616" lon="-105.2301663">
  <ele>1582.97</ele>
  <time>2026-08-28T17:51:21Z</time>
  <course>0.91</course>
  <speed>4.580010917017557</speed>
  <fix>3d</fix>
</trkpt>
<trkpt lat="40.0726063" lon="-105.2301666">
  <ele>1583.0</ele>
  <time>2026-08-28T17:51:21Z</time>
  <course>359.88</course>
  <speed>4.74</speed>
  <fix>3d</fix>
</trkpt>
<trkpt lat="40.0726201" lon="-105.2301663">
  <ele>1582.97</ele>
  <time>2026-08-28T17:51:21Z</time>
  <course>0.91</course>
  <speed>4.490011135843652</speed>
  <fix>3d</fix>
</trkpt>
<trkpt lat="40.0726147" lon="-105.2301667">
  <ele>1583.0</ele>
  <time>2026-08-28T17:51:21Z</time>
  <course>359.88</course>
  <speed>4.6</speed>
  <fix>3d</fix>
</trkpt>
<trkpt lat="40.0726241" lon="-105.2301663">
  <ele>1582.98</ele>
  <time>2026-08-28T17:51:21Z</time>
  <course>0.91</course>
  <speed>4.390011389506865</speed>
  <fix>3d</fix>
</trkpt>
<trkpt lat="40.0726147" lon="-105.2301667">
  <ele>1583.0</ele>
  <time>2026-08-28T17:51:21Z</time>
  <course>359.88</course>
  <speed>4.6</speed>
  <fix>3d</fix>
</trkpt>
<trkpt lat="40.072628" lon="-105.2301664">
  <ele>1582.98</ele>
  <time>2026-08-28T17:51:21Z</time>
  <course>0.92</course>
  <speed>4.290011654995823</speed>
  <fix>3d</fix>
</trkpt>
<trkpt lat="40.0726228" lon="-105.2301667">
  <ele>1583.0</ele>
  <time>2026-08-28T17:51:21Z</time>
  <course>359.88</course>
  <speed>4.42</speed>
  <fix>3d</fix>
</trkpt>
<trkpt lat="40.0726318" lon="-105.2301664">
  <ele>1582.98</ele>
  <time>2026-08-28T17:51:21Z</time>
  <course>0.92</course>
  <speed>4.18</speed>
  <fix>3d</fix>
</trkpt>
<trkpt lat="40.0726228" lon="-105.2301667">
  <ele>1583.0</ele>
  <time>2026-08-28T17:51:21Z</time>
  <course>359.88</course>
  <speed>4.42</speed>
  <fix>3d</fix>
</trkpt>
<trkpt lat="40.0726356" lon="-105.2301664">
  <ele>1582.99</ele>
  <time>2026-08-28T17:51:21Z</time>
  <course>0.92</course>
  <speed>4.06</speed>
  <fix>3d</fix>
</trkpt>
<trkpt lat="40.0726305" lon="-105.2301667">
  <ele>1583.0</ele>
  <time>2026-08-28T17:51:21Z</time>
  <course>359.88</course>
  <speed>4.2</speed>
  <fix>3d</fix>
</trkpt>
<trkpt lat="40.0726392" lon="-105.2301664">
  <ele>1582.99</ele>
  <time>2026-08-28T17:51:21Z</time>
  <course>0.92</course>
  <speed>3.94</speed>
  <fix>3d</fix>
</trkpt>
<trkpt lat="40.0726305" lon="-105.2301667">
  <ele>1583.0</ele>
  <time>2026-08-28T17:51:21Z</time>
  <course>359.88</course>
  <speed>4.2</speed>
  <fix>3d</fix>
</trkpt>
<trkpt lat="40.0726427" lon="-105.2301664">
  <ele>1582.99</ele>
  <time>2026-08-28T17:51:21Z</time>
  <course>0.92</course>
  <speed>3.82</speed>
  <fix>3d</fix>
</trkpt>
<trkpt lat="40.0726305" lon="-105.2301667">
  <ele>1583.0</ele>
  <time>2026-08-28T17:51:21Z</time>
  <course>359.88</course>
  <speed>4.2</speed>
  <fix>3d</fix>
</trkpt>
<trkpt lat="40.072646" lon="-105.2301665">
  <ele>1582.98</ele>
  <time>2026-08-28T17:51:21Z</time>
  <course>0.93</course>
  <speed>3.69</speed>
  <fix>3d</fix>
</trkpt>
<trkpt lat="40.0726379" lon="-105.2301667">
  <ele>1583.0</ele>
  <time>2026-08-28T17:51:21Z</time>
  <course>359.88</course>
  <speed>3.97</speed>
  <fix>3d</fix>
</trkpt>
<trkpt lat="40.0726493" lon="-105.2301665">
  <ele>1582.98</ele>
  <time>2026-08-28T17:51:21Z</time>
  <course>0.93</course>
  <speed>3.56</speed>
  <fix>3d</fix>
</trkpt>
<trkpt lat="40.0726379" lon="-105.2301667">
  <ele>1583.0</ele>
  <time>2026-08-28T17:51:21Z</time>
  <course>359.88</course>
  <speed>3.97</speed>
  <fix>3d</fix>
</trkpt>
<trkpt lat="40.0726524" lon="-105.2301665">
  <ele>1582.98</ele>
  <time>2026-08-28T17:51:21Z</time>
  <course>0.93</course>
  <speed>3.43</speed>
  <fix>3d</fix>
</trkpt>
<trkpt lat="40.0726448" lon="-105.2301667">
  <ele>1583.0</ele>
  <time>2026-08-28T17:51:21Z</time>
  <course>359.88</course>
  <speed>3.72</speed>
  <fix>3d</fix>
</trkpt>
<trkpt lat="40.0726554" lon="-105.2301665">
  <ele>1582.98</ele>
  <time>2026-08-28T17:51:21Z</time>
  <course>0.98</course>
  <speed>3.3</speed>
  <fix>3d</fix>
</trkpt>
<trkpt lat="40.0726448" lon="-105.2301667">
  <ele>1583.0</ele>
  <time>2026-08-28T17:51:21Z</time>
  <course>359.88</course>
  <speed>3.72</speed>
  <fix>3d</fix>
</trkpt>
<trkpt lat="40.0726582" lon="-105.2301665">
  <ele>1582.98</ele>
  <time>2026-08-28T17:51:21Z</time>
  <course>1.03</course>
  <speed>3.17</speed>
  <fix>3d</fix>
</trkpt>
<trkpt lat="40.0726512" lon="-105.2301667">
  <ele>1583.0</ele>
  <time>2026-08-28T17:51:21Z</time>
  <course>359.91</course>
  <speed>3.46</speed>
  <fix>3d</fix>
</trkpt>
<trkpt lat="40.072661" lon="-105.2301666">
  <ele>1582.98</ele>
  <time>2026-08-28T17:51:21Z</time>
  <course>1.07</course>
  <speed>3.03</speed>
  <fix>3d</fix>
</trkpt>
<trkpt lat="40.0726573" lon="-105.2301667">
  <ele>1583.0</ele>
  <time>2026-08-28T17:51:21Z</time>
  <course>359.97</course>
  <speed>3.21</speed>
  <fix>3d</fix>
</trkpt>
<trkpt lat="40.0726637" lon="-105.2301666">
  <ele>1582.98</ele>
  <time>2026-08-28T17:51:21Z</time>
  <course>1.14</course>
  <speed>2.91</speed>
  <fix>3d</fix>
</trkpt>
<trkpt lat="40.0726573" lon="-105.2301667">
  <ele>1583.0</ele>
  <time>2026-08-28T17:51:21Z</time>
  <course>359.97</course>
  <speed>3.21</speed>
  <fix>3d</fix>
</trkpt>
<trkpt lat="40.0726662" lon="-105.2301666">
  <ele>1582.98</ele>
  <time>2026-08-28T17:51:21Z</time>
  <course>1.22</course>
  <speed>2.78</speed>
  <fix>3d</fix>
</trkpt>
<trkpt lat="40.0726628" lon="-105.2301667">
  <ele>1583.0</ele>
  <time>2026-08-28T17:51:21Z</time>
  <course>0.09</course>
  <speed>2.96</speed>
  <fix>3d</fix>
</trkpt>
<trkpt lat="40.0726686" lon="-105.2301666">
  <ele>1582.98</ele>
  <time>2026-08-28T17:51:21Z</time>
  <course>1.3</course>
  <speed>2.66</speed>
  <fix>3d</fix>
</trkpt>
<trkpt lat="40.0726628" lon="-105.2301667">
  <ele>1583.0</ele>
  <time>2026-08-28T17:51:21Z</time>
  <course>0.09</course>
  <speed>2.96</speed>
  <fix>3d</fix>
</trkpt>
<trkpt lat="40.072671" lon="-105.2301666">
  <ele>1582.98</ele>
  <time>2026-08-28T17:51:21Z</time>
  <course>1.41</course>
  <speed>2.540019684963091</speed>
  <fix>3d</fix>
</trkpt>
<trkpt lat="40.0726679" lon="-105.2301667">
  <ele>1583.0</ele>
  <time>2026-08-28T17:51:21Z</time>
  <course>0.25</course>
  <speed>2.72</speed>
  <fix>3d</fix>
</trkpt>
<trkpt lat="40.0726732" lon="-105.2301666">
  <ele>1582.98</ele>
  <time>2026-08-28T17:51:21Z</time>
  <course>1.53</course>
  <speed>2.4200206610688264</speed>
  <fix>3d</fix>
</trkpt>
<trkpt lat="40.0726679" lon="-105.2301667">
  <ele>1583.0</ele>
  <time>2026-08-28T17:51:21Z</time>
  <course>0.25</course>
  <speed>2.72</speed>
  <fix>3d</fix>
</trkpt>
<trkpt lat="40.0726754" lon="-105.2301665">
  <ele>1582.98</ele>
  <time>2026-08-28T17:51:21Z</time>
  <course>1.67</course>
  <speed>2.310086578464106</speed>
  <fix>3d</fix>
</trkpt>
<trkpt lat="40.0726726" lon="-105.2301667">
  <ele>1583.0</ele>
  <time>2026-08-28T17:51:21Z</time>
  <course>0.47</course>
  <speed>2.48</speed>
  <fix>3d</fix>
</trkpt>
<trkpt lat="40.0726774" lon="-105.2301665">
  <ele>1582.98</ele>
  <time>2026-08-28T17:51:21Z</time>
  <course>1.84</course>
  <speed>2.2000909072126995</speed>
  <fix>3d</fix>
</trkpt>
<trkpt lat="40.0726726" lon="-105.2301667">
  <ele>1583.0</ele>
  <time>2026-08-28T17:51:21Z</time>
  <course>0.47</course>
  <speed>2.48</speed>
  <fix>3d</fix>
</trkpt>
<trkpt lat="40.0726794" lon="-105.2301665">
  <ele>1582.98</ele>
  <time>2026-08-28T17:51:21Z</time>
  <course>2.04</course>
  <speed>2.080216334903656</speed>
  <fix>3d</fix>
</trkpt>
<trkpt lat="40.0726769" lon="-105.2301667">
  <ele>1583.0</ele>
  <time>2026-08-28T17:51:21Z</time>
  <course>0.78</course>
  <speed>2.26</speed>
  <fix>3d</fix>
</trkpt>
<trkpt lat="40.0726812" lon="-105.2301665">
  <ele>1582.98</ele>
  <time>2026-08-28T17:51:21Z</time>
  <course>2.27</course>
  <speed>1.98022725968511</speed>
  <fix>3d</fix>
</trkpt>
<trkpt lat="40.0726769" lon="-105.2301667">
  <ele>1583.0</ele>
  <time>2026-08-28T17:51:21Z</time>
  <course>0.78</course>
  <speed>2.26</speed>
  <fix>3d</fix>
</trkpt>
<trkpt lat="40.072683" lon="-105.2301665">
  <ele>1582.98</ele>
  <time>2026-08-28T17:51:21Z</time>
  <course>2.56</course>
  <speed>1.8704277585621958</speed>
  <fix>3d</fix>
</trkpt>
<trkpt lat="40.0726808" lon="-105.2301666">
  <ele>1583.0</ele>
  <time>2026-08-28T17:51:21Z</time>
  <course>1.22</course>
  <speed>2.04</speed>
  <fix>3d</fix>
</trkpt>
<trkpt lat="40.0726846" lon="-105.2301665">
  <ele>1582.98</ele>
  <time>2026-08-28T17:51:21Z</time>
  <course>2.91</course>
  <speed>1.770706073858674</speed>
  <fix>3d</fix>
</trkpt>
<trkpt lat="40.0726808" lon="-105.2301666">
  <ele>1583.0</ele>
  <time>2026-08-28T17:51:21Z</time>
  <course>1.22</course>
  <speed>2.04</speed>
  <fix>3d</fix>
</trkpt>
<trkpt lat="40.0726862" lon="-105.2301664">
  <ele>1582.99</ele>
  <time>2026-08-28T17:51:21Z</time>
  <course>3.35</course>
  <speed>1.6610839834276894</speed>
  <fix>3d</fix>
</trkpt>
<trkpt lat="40.0726842" lon="-105.2301665">
  <ele>1583.0</ele>
  <time>2026-08-28T17:51:21Z</time>
  <course>1.86</course>
  <speed>1.83</speed>
  <fix>3d</fix>
</trkpt>
<trkpt lat="40.0726877" lon="-105.2301663">
  <ele>1582.99</ele>
  <time>2026-08-28T17:51:21Z</time>
  <course>3.92</course>
  <speed>1.561569723067145</speed>
  <fix>3d</fix>
</trkpt>
<trkpt lat="40.0726842" lon="-105.2301665">
  <ele>1583.0</ele>
  <time>2026-08-28T17:51:21Z</time>
  <course>1.86</course>
  <speed>1.83</speed>
  <fix>3d</fix>
</trkpt>
<trkpt lat="40.072689" lon="-105.2301662">
  <ele>1582.99</ele>
  <time>2026-08-28T17:51:21Z</time>
  <course>4.65</course>
  <speed>1.4621901381147393</speed>
  <fix>3d</fix>
</trkpt>
<trkpt lat="40.0726842" lon="-105.2301665">
  <ele>1583.0</ele>
  <time>2026-08-28T17:51:21Z</time>
  <course>1.86</course>
  <speed>1.83</speed>
  <fix>3d</fix>
</trkpt>
<trkpt lat="40.0726903" lon="-105.2301661">
  <ele>1582.99</ele>
  <time>2026-08-28T17:51:21Z</time>
  <course>5.63</course>
  <speed>1.3636715146984628</speed>
  <fix>3d</fix>
</trkpt>
<trkpt lat="40.0726873" lon="-105.2301664">
  <ele>1583.0</ele>
  <time>2026-08-28T17:51:21Z</time>
  <course>2.89</course>
  <speed>1.63</speed>
  <fix>3d</fix>
</trkpt>
<trkpt lat="40.0726915" lon="-105.230166">
  <ele>1582.99</ele>
  <time>2026-08-28T17:51:21Z</time>
  <course>6.95</course>
  <speed>1.2666885963013956</speed>
  <fix>3d</fix>
</trkpt>
<trkpt lat="40.0726873" lon="-105.2301664">
  <ele>1583.0</ele>
  <time>2026-08-28T17:51:21Z</time>
  <course>2.89</course>
  <speed>1.63</speed>
  <fix>3d</fix>
</trkpt>
<trkpt lat="40.0726926" lon="-105.2301658">
  <ele>1582.99</ele>
  <time>2026-08-28T17:51:21Z</time>
  <course>8.8</course>
  <speed>1.1709824934643558</speed>
  <fix>3d</fix>
</trkpt>
<trkpt lat="40.0726901" lon="-105.2301661">
  <ele>1583.0</ele>
  <time>2026-08-28T17:51:21Z</time>
  <course>4.66</course>
  <speed>1.43</speed>
  <fix>3d</fix>
</trkpt>
<trkpt lat="40.0726936" lon="-105.2301656">
  <ele>1582.99</ele>
  <time>2026-08-28T17:51:21Z</time>
  <course>11.37</course>
  <speed>1.067052013727541</speed>
  <fix>3d</fix>
</trkpt>
<trkpt lat="40.0726901" lon="-105.2301661">
  <ele>1583.0</ele>
  <time>2026-08-28T17:51:21Z</time>
  <course>4.66</course>
  <speed>1.43</speed>
  <fix>3d</fix>
</trkpt>
<trkpt lat="40.0726946" lon="-105.2301653">
  <ele>1583.0</ele>
  <time>2026-08-28T17:51:21Z</time>
  <course>14.53</course>
  <speed>1.0089598604503551</speed>
  <fix>3d</fix>
</trkpt>
<trkpt lat="40.0726925" lon="-105.2301658">
  <ele>1583.0</ele>
  <time>2026-08-28T17:51:21Z</time>
  <course>7.94</course>
  <speed>1.24</speed>
  <fix>3d</fix>
</trkpt>
<trkpt lat="40.0726954" lon="-105.230165">
  <ele>1583.0</ele>
  <time>2026-08-28T17:51:21Z</time>
  <course>18.31</course>
  <speed>0.9676776322722356</speed>
  <fix>3d</fix>
</trkpt>
<trkpt lat="40.0726925" lon="-105.2301658">
  <ele>1583.0</ele>
  <time>2026-08-28T17:51:21Z</time>
  <course>7.94</course>
  <speed>1.24</speed>
  <fix>3d</fix>
</trkpt>
<trkpt lat="40.0726963" lon="-105.2301646">
  <ele>1583.0</ele>
  <time>2026-08-28T17:51:21Z</time>
  <course>22.73</course>
  <speed>0.9677293009927931</speed>
  <fix>3d</fix>
</trkpt>
<trkpt lat="40.0726946" lon="-105.2301653">
  <ele>1583.0</ele>
  <time>2026-08-28T17:51:21Z</time>
  <course>13.65</course>
  <speed>1.09</speed>
  <fix>3d</fix>
</trkpt>
<trkpt lat="40.0726971" lon="-105.2301641">
  <ele>1583.0</ele>
  <time>2026-08-28T17:51:21Z</time>
  <course>27.94</course>
  <speed>0.9800510190801294</speed>
  <fix>3d</fix>
</trkpt>
<trkpt lat="40.0726964" lon="-105.2301645">
  <ele>1583.0</ele>
  <time>2026-08-28T17:51:21Z</time>
  <course>22.12</course>
  <speed>1.05</speed>
  <fix>3d</fix>
</trkpt>
<trkpt lat="40.0726979" lon="-105.2301634">
  <ele>1583.0</ele>
  <time>2026-08-28T17:51:21Z</time>
  <course>34.26</course>
  <speed>1.0183319694480775</speed>
  <fix>3d</fix>
</trkpt>
<trkpt lat="40.0726964" lon="-105.2301645">
  <ele>1583.0</ele>
  <time>2026-08-28T17:51:21Z</time>
  <course>22.12</course>
  <speed>1.05</speed>
  <fix>3d</fix>
</trkpt>
<trkpt lat="40.0726987" lon="-105.2301626">
  <ele>1583.0</ele>
  <time>2026-08-28T17:51:21Z</time>
  <course>41.26</course>
  <speed>1.061037228376083</speed>
  <fix>3d</fix>
</trkpt>
<trkpt lat="40.072698" lon="-105.2301634">
  <ele>1583.0</ele>
  <time>2026-08-28T17:51:21Z</time>
  <course>33.8</course>
  <speed>1.09</speed>
  <fix>3d</fix>
</trkpt>
<trkpt lat="40.0726994" lon="-105.2301616">
  <ele>1583.01</ele>
  <time>2026-08-28T17:51:21Z</time>
  <course>48.58</course>
  <speed>1.108873302050329</speed>
  <fix>3d</fix>
</trkpt>
<trkpt lat="40.072698" lon="-105.2301634">
  <ele>1583.0</ele>
  <time>2026-08-28T17:51:21Z</time>
  <course>33.8</course>
  <speed>1.09</speed>
  <fix>3d</fix>
</trkpt>
<trkpt lat="40.0727" lon="-105.2301605">
  <ele>1583.01</ele>
  <time>2026-08-28T17:51:21Z</time>
  <course>56.18</course>
  <speed>1.16619037896906</speed>
  <fix>3d</fix>
</trkpt>
<trkpt lat="40.0726996" lon="-105.2301617">
  <ele>1583.0</ele>
  <time>2026-08-28T17:51:21Z</time>
  <course>48.05</course>
  <speed>1.16</speed>
  <fix>3d</fix>
</trkpt>
<trkpt lat="40.0727006" lon="-105.2301592">
  <ele>1583.01</ele>
  <time>2026-08-28T17:51:21Z</time>
  <course>64.08</course>
  <speed>1.2277214667830811</speed>
  <fix>3d</fix>
</trkpt>
<trkpt lat="40.0726996" lon="-105.2301617">
  <ele>1583.0</ele>
  <time>2026-08-28T17:51:21Z</time>
  <course>48.05</course>
  <speed>1.16</speed>
  <fix>3d</fix>
</trkpt>
<trkpt lat="40.072701" lon="-105.2301578">
  <ele>1583.01</ele>
  <time>2026-08-28T17:51:21Z</time>
  <course>72.35</course>
  <speed>1.2806248474865698</speed>
  <fix>3d</fix>
</trkpt>
<trkpt lat="40.0727009" lon="-105.2301593">
  <ele>1583.0</ele>
  <time>2026-08-28T17:51:21Z</time>
  <course>63.6</course>
  <speed>1.25</speed>
  <fix>3d</fix>
</trkpt>
<trkpt lat="40.0727012" lon="-105.2301562">
  <ele>1583.01</ele>
  <time>2026-08-28T17:51:21Z</time>
  <course>80.84</course>
  <speed>1.3373481222179961</speed>
  <fix>3d</fix>
</trkpt>
<trkpt lat="40.0727009" lon="-105.2301593">
  <ele>1583.0</ele>
  <time>2026-08-28T17:51:21Z</time>
  <course>63.6</course>
  <speed>1.25</speed>
  <fix>3d</fix>
</trkpt>
<trkpt lat="40.0727013" lon="-105.2301545">
  <ele>1583.01</ele>
  <time>2026-08-28T17:51:21Z</time>
  <course>89.61</course>
  <speed>1.3908989898623119</speed>
  <fix>3d</fix>
</trkpt>
<trkpt lat="40.0727016" lon="-105.2301564">
  <ele>1583.0</ele>
  <time>2026-08-28T17:51:21Z</time>
  <course>80.28</course>
  <speed>1.34</speed>
  <fix>3d</fix>
</trkpt>
<trkpt lat="40.0727012" lon="-105.2301528">
  <ele>1583.0</ele>
  <time>2026-08-28T17:51:21Z</time>
  <course>98.66</course>
  <speed>1.44734239211045</speed>
  <fix>3d</fix>
</trkpt>
<trkpt lat="40.0727016" lon="-105.2301564">
  <ele>1583.0</ele>
  <time>2026-08-28T17:51:21Z</time>
  <course>80.28</course>
  <speed>1.34</speed>
  <fix>3d</fix>
</trkpt>
<trkpt lat="40.0727009" lon="-105.2301511">
  <ele>1583.0</ele>
  <time>2026-08-28T17:51:21Z</time>
  <course>107.95</course>
  <speed>1.4934523762075578</speed>
  <fix>3d</fix>
</trkpt>
<trkpt lat="40.0727016" lon="-105.2301531">
  <ele>1583.0</ele>
  <time>2026-08-28T17:51:21Z</time>
  <course>98.07</course>
  <speed>1.42</speed>
  <fix>3d</fix>
</trkpt>
<trkpt lat="40.0727004" lon="-105.2301495">
  <ele>1583.0</ele>
  <time>2026-08-28T17:51:21Z</time>
  <course>117.47</course>
  <speed>1.540519392932137</speed>
  <fix>3d</fix>
</trkpt>
<trkpt lat="40.0727016" lon="-105.2301531">
  <ele>1583.0</ele>
  <time>2026-08-28T17:51:21Z</time>
  <course>98.07</course>
  <speed>1.42</speed>
  <fix>3d</fix>
</trkpt>
<trkpt lat="40.0726996" lon="-105.2301479">
  <ele>1583.0</ele>
  <time>2026-08-28T17:51:21Z</time>
  <course>127.19</course>
  <speed>1.5711460785044782</speed>
  <fix>3d</fix>
</trkpt>
<trkpt lat="40.0727009" lon="-105.2301499">
  <ele>1583.0</ele>
  <time>2026-08-28T17:51:21Z</time>
  <course>116.82</course>
  <speed>1.49</speed>
  <fix>3d</fix>
</trkpt>
<trkpt lat="40.0726987" lon="-105.2301466">
  <ele>1583.0</ele>
  <time>2026-08-28T17:51:21Z</time>
  <course>137.1</course>
  <speed>1.6011246047700347</speed>
  <fix>3d</fix>
</trkpt>
<trkpt lat="40.0727009" lon="-105.2301499">
  <ele>1583.0</ele>
  <time>2026-08-28T17:51:21Z</time>
  <course>116.82</course>
  <speed>1.49</speed>
  <fix>3d</fix>
</trkpt>
<trkpt lat="40.0726975" lon="-105.2301454">
  <ele>1583.0</ele>
  <time>2026-08-28T17:51:21Z</time>
  <course>146.73</course>
  <speed>1.631349134918703</speed>
  <fix>3d</fix>
</trkpt>
<trkpt lat="40.0727009" lon="-105.2301499">
  <ele>1583.0</ele>
  <time>2026-08-28T17:51:21Z</time>
  <course>116.82</course>
  <speed>1.49</speed>
  <fix>3d</fix>
</trkpt>
<trkpt lat="40.0726963" lon="-105.2301445">
  <ele>1583.0</ele>
  <time>2026-08-28T17:51:21Z</time>
  <course>155.39</course>
  <speed>1.670269439342048</speed>
  <fix>3d</fix>
</trkpt>
<trkpt lat="40.0726992" lon="-105.230147">
  <ele>1583.0</ele>
  <time>2026-08-28T17:51:21Z</time>
  <course>136.23</course>
  <speed>1.54</speed>
  <fix>3d</fix>
</trkpt>
<trkpt lat="40.0726948" lon="-105.2301439">
  <ele>1582.99</ele>
  <time>2026-08-28T17:51:21Z</time>
  <course>163.11</course>
  <speed>1.7280046296234277</speed>
  <fix>3d</fix>
</trkpt>
<trkpt lat="40.0726992" lon="-105.230147">
  <ele>1583.0</ele>
  <time>2026-08-28T17:51:21Z</time>
  <course>136.23</course>
  <speed>1.54</speed>
  <fix>3d</fix>
</trkpt>
<trkpt lat="40.0726933" lon="-105.2301434">
  <ele>1582.99</ele>
  <time>2026-08-28T17:51:21Z</time>
  <course>169.85</course>
  <speed>1.7952437160452615</speed>
  <fix>3d</fix>
</trkpt>
<trkpt lat="40.0726969" lon="-105.2301449">
  <ele>1583.0</ele>
  <time>2026-08-28T17:51:21Z</time>
  <course>154.28</course>
  <speed>1.63</speed>
  <fix>3d</fix>
</trkpt>
<trkpt lat="40.0726917" lon="-105.2301432">
  <ele>1582.99</ele>
  <time>2026-08-28T17:51:21Z</time>
  <course>175.59</course>
  <speed>1.8645374761586317</speed>
  <fix>3d</fix>
</trkpt>
<trkpt lat="40.0726969" lon="-105.2301449">
  <ele>1583.0</ele>
  <time>2026-08-28T17:51:21Z</time>
  <course>154.28</course>
  <speed>1.63</speed>
  <fix>3d</fix>
</trkpt>
<trkpt lat="40.0726901" lon="-105.2301431">
  <ele>1582.99</ele>
  <time>2026-08-28T17:51:21Z</time>
  <course>180.29</course>
  <speed>1.9500256408570633</speed>
  <fix>3d</fix>
</trkpt>
<trkpt lat="40.072694" lon="-105.2301437">
  <ele>1583.0</ele>
  <time>2026-08-28T17:51:21Z</time>
  <course>168.69</course>
  <speed>1.76</speed>
  <fix>3d</fix>
</trkpt>
<trkpt lat="40.0726883" lon="-105.2301432">
  <ele>1582.99</ele>
  <time>2026-08-28T17:51:21Z</time>
  <course>183.96</course>
  <speed>2.044798278559526</speed>
  <fix>3d</fix>
</trkpt>
<trkpt lat="40.0726907" lon="-105.2301433">
  <ele>1583.0</ele>
  <time>2026-08-28T17:51:21Z</time>
  <course>179.02</course>
  <speed>1.93</speed>
  <fix>3d</fix>
</trkpt>
<trkpt lat="40.0726864" lon="-105.2301434">
  <ele>1582.99</ele>
  <time>2026-08-28T17:51:21Z</time>
  <course>186.52</course>
  <speed>2.1434784813475503</speed>
  <fix>3d</fix>
</trkpt>
<trkpt lat="40.0726907" lon="-105.2301433">
  <ele>1583.0</ele>
  <time>2026-08-28T17:51:21Z</time>
  <course>179.02</course>
  <speed>1.93</speed>
  <fix>3d</fix>
</trkpt>
<trkpt lat="40.0726845" lon="-105.2301437">
  <ele>1582.99</ele>
  <time>2026-08-28T17:51:21Z</time>
  <course>187.98</course>
  <speed>2.2500888871331286</speed>
  <fix>3d</fix>
</trkpt>
<trkpt lat="40.072687" lon="-105.2301435">
  <ele>1583.0</ele>
  <time>2026-08-28T17:51:21Z</time>
  <course>185.07</course>
  <speed>2.13</speed>
  <fix>3d</fix>
</trkpt>
<trkpt lat="40.0726824" lon="-105.2301441">
  <ele>1582.99</ele>
  <time>2026-08-28T17:51:21Z</time>
  <course>188.34</course>
  <speed>2.3631546711969573</speed>
  <fix>3d</fix>
</trkpt>
<trkpt lat="40.072687" lon="-105.2301435">
  <ele>1583.0</ele>
  <time>2026-08-28T17:51:21Z</time>
  <course>185.07</course>
  <speed>2.13</speed>
  <fix>3d</fix>
</trkpt>
<trkpt lat="40.0726803" lon="-105.2301445">
  <ele>1582.99</ele>
  <time>2026-08-28T17:51:21Z</time>
  <course>187.79</course>
  <speed>2.480725700274015</speed>
  <fix>3d</fix>
</trkpt>
<trkpt lat="40.072683" lon="-105.230144">
  <ele>1583.0</ele>
  <time>2026-08-28T17:51:21Z</time>
  <course>186.87</course>
  <speed>2.35</speed>
  <fix>3d</fix>
</trkpt>
<trkpt lat="40.072678" lon="-105.2301449">
  <ele>1582.99</ele>
  <time>2026-08-28T17:51:21Z</time>
  <course>187.31</course>
  <speed>2.6084861510078987</speed>
  <fix>3d</fix>
</trkpt>
<trkpt lat="40.072683" lon="-105.230144">
  <ele>1583.0</ele>
  <time>2026-08-28T17:51:21Z</time>
  <course>186.87</course>
  <speed>2.35</speed>
  <fix>3d</fix>
</trkpt>
<trkpt lat="40.0726756" lon="-105.2301453">
  <ele>1582.98</ele>
  <time>2026-08-28T17:51:21Z</time>
  <course>186.91</course>
  <speed>2.7276730009295473</speed>
  <fix>3d</fix>
</trkpt>
<trkpt lat="40.0726787" lon="-105.2301447">
  <ele>1583.0</ele>
  <time>2026-08-28T17:51:21Z</time>
  <course>186.32</course>
  <speed>2.6</speed>
  <fix>3d</fix>
</trkpt>
<trkpt lat="40.072673" lon="-105.2301456">
  <ele>1582.98</ele>
  <time>2026-08-28T17:51:21Z</time>
  <course>186.57</course>
  <speed>2.855801113523139</speed>
  <fix>3d</fix>
</trkpt>
<trkpt lat="40.0726787" lon="-105.2301447">
  <ele>1583.0</ele>
  <time>2026-08-28T17:51:21Z</time>
  <course>186.32</course>
  <speed>2.6</speed>
  <fix>3d</fix>
</trkpt>
<trkpt lat="40.0726704" lon="-105.2301459">
  <ele>1582.98</ele>
  <time>2026-08-28T17:51:21Z</time>
  <course>186.28</course>
  <speed>2.9851130631853793</speed>
  <fix>3d</fix>
</trkpt>
<trkpt lat="40.0726738" lon="-105.2301453">
  <ele>1583.0</ele>
  <time>2026-08-28T17:51:21Z</time>
  <course>185.58</course>
  <speed>2.85</speed>
  <fix>3d</fix>
</trkpt>
<trkpt lat="40.0726676" lon="-105.2301463">
  <ele>1582.98</ele>
  <time>2026-08-28T17:51:21Z</time>
  <course>186.03</course>
  <speed>3.1135349684883904</speed>
  <fix>3d</fix>
</trkpt>
<trkpt lat="40.0726738" lon="-105.2301453">
  <ele>1583.0</ele>
  <time>2026-08-28T17:51:21Z</time>
  <course>185.58</course>
  <speed>2.85</speed>
  <fix>3d</fix>
</trkpt>
<trkpt lat="40.0726648" lon="-105.2301466">
  <ele>1582.98</ele>
  <time>2026-08-28T17:51:21Z</time>
  <course>185.83</course>
  <speed>3.2429924452579284</speed>
  <fix>3d</fix>
</trkpt>
<trkpt lat="40.0726685" lon="-105.2301459">
  <ele>1583.0</ele>
  <time>2026-08-28T17:51:21Z</time>
  <course>185.05</course>
  <speed>3.1</speed>
  <fix>3d</fix>
</trkpt>
<trkpt lat="40.0726618" lon="-105.2301469">
  <ele>1582.98</ele>
  <time>2026-08-28T17:51:21Z</time>
  <course>185.64</course>
  <speed>3.362528810285497</speed>
  <fix>3d</fix>
</trkpt>
<trkpt lat="40.0726685" lon="-105.2301459">
  <ele>1583.0</ele>
  <time>2026-08-28T17:51:21Z</time>
  <course>185.05</course>
  <speed>3.1</speed>
  <fix>3d</fix>
</trkpt>
<trkpt lat="40.0726587" lon="-105.2301472">
  <ele>1582.98</ele>
  <time>2026-08-28T17:51:21Z</time>
  <course>185.49</course>
  <speed>3.4920624278497656</speed>
  <fix>3d</fix>
</trkpt>
<trkpt lat="40.0726626" lon="-105.2301466">
  <ele>1583.0</ele>
  <time>2026-08-28T17:51:21Z</time>
  <course>184.67</course>
  <speed>3.35</speed>
  <fix>3d</fix>
</trkpt>
<trkpt lat="40.0726555" lon="-105.2301475">
  <ele>1582.98</ele>
  <time>2026-08-28T17:51:21Z</time>
  <course>185.35</course>
  <speed>3.6116616674323194</speed>
  <fix>3d</fix>
</trkpt>
<trkpt lat="40.0726626" lon="-105.2301466">
  <ele>1583.0</ele>
  <time>2026-08-28T17:51:21Z</time>
  <course>184.67</course>
  <speed>3.35</speed>
  <fix>3d</fix>
</trkpt>
<trkpt lat="40.0726521" lon="-105.2301478">
  <ele>1582.98</ele>
  <time>2026-08-28T17:51:21Z</time>
  <course>185.24</course>
  <speed>3.7412564734324216</speed>
  <fix>3d</fix>
</trkpt>
<trkpt lat="40.0726626" lon="-105.2301466">
  <ele>1583.0</ele>
  <time>2026-08-28T17:51:21Z</time>
  <course>184.67</course>
  <speed>3.35</speed>
  <fix>3d</fix>
</trkpt>
<trkpt lat="40.0726487" lon="-105.2301482">
  <ele>1582.98</ele>
  <time>2026-08-28T17:51:21Z</time>
  <course>185.14</course>
  <speed>3.8509349514111504</speed>
  <fix>3d</fix>
</trkpt>
<trkpt lat="40.0726564" lon="-105.2301473">
  <ele>1583.0</ele>
  <time>2026-08-28T17:51:21Z</time>
  <course>184.39</course>
  <speed>3.6</speed>
  <fix>3d</fix>
</trkpt>
<trkpt lat="40.0726452" lon="-105.2301485">
  <ele>1582.98</ele>
  <time>2026-08-28T17:51:21Z</time>
  <course>185.04</course>
  <speed>3.9706044879841658</speed>
  <fix>3d</fix>
</trkpt>
<trkpt lat="40.0726564" lon="-105.2301473">
  <ele>1583.0</ele>
  <time>2026-08-28T17:51:21Z</time>
  <course>184.39</course>
  <speed>3.6</speed>
  <fix>3d</fix>
</trkpt>
<trkpt lat="40.0726416" lon="-105.2301488">
  <ele>1582.99</ele>
  <time>2026-08-28T17:51:21Z</time>
  <course>184.98</course>
  <speed>4.080318615010352</speed>
  <fix>3d</fix>
</trkpt>
<trkpt lat="40.0726497" lon="-105.2301479">
  <ele>1583.0</ele>
  <time>2026-08-28T17:51:21Z</time>
  <course>184.16</course>
  <speed>3.84</speed>
  <fix>3d</fix>
</trkpt>
<trkpt lat="40.0726379" lon="-105.2301491">
  <ele>1582.99</ele>
  <time>2026-08-28T17:51:21Z</time>
  <course>184.93</course>
  <speed>4.200023809456322</speed>
  <fix>3d</fix>
</trkpt>
<trkpt lat="40.0726497" lon="-105.2301479">
  <ele>1583.0</ele>
  <time>2026-08-28T17:51:21Z</time>
  <course>184.16</course>
  <speed>3.84</speed>
  <fix>3d</fix>
</trkpt>
<trkpt lat="40.0726341" lon="-105.2301495">
  <ele>1582.99</ele>
  <time>2026-08-28T17:51:21Z</time>
  <course>184.87</course>
  <speed>4.309767975193096</speed>
  <fix>3d</fix>
</trkpt>
<trkpt lat="40.0726426" lon="-105.2301486">
  <ele>1583.0</ele>
  <time>2026-08-28T17:51:21Z</time>
  <course>184.0</course>
  <speed>4.07</speed>
  <fix>3d</fix>
</trkpt>
<trkpt lat="40.0726302" lon="-105.2301498">
  <ele>1583.0</ele>
  <time>2026-08-28T17:51:21Z</time>
  <course>184.81</course>
  <speed>4.410215414239989</speed>
  <fix>3d</fix>
</trkpt>
<trkpt lat="40.0726426" lon="-105.2301486">
  <ele>1583.0</ele>
  <time>2026-08-28T17:51:21Z</time>
  <course>184.0</course>
  <speed>4.07</speed>
  <fix>3d</fix>
</trkpt>
<trkpt lat="40.0726262" lon="-105.2301501">
  <ele>1583.0</ele>
  <time>2026-08-28T17:51:21Z</time>
  <course>184.75</course>
  <speed>4.519966814037466</speed>
  <fix>3d</fix>
</trkpt>
<trkpt lat="40.0726351" lon="-105.2301492">
  <ele>1583.0</ele>
  <time>2026-08-28T17:51:21Z</time>
  <course>183.89</course>
  <speed>4.3</speed>
  <fix>3d</fix>
</trkpt>
<trkpt lat="40.0726221" lon="-105.2301505">
  <ele>1582.99</ele>
  <time>2026-08-28T17:51:21Z</time>
  <course>184.69</course>
  <speed>4.619751075545088</speed>
  <fix>3d</fix>
</trkpt>
<trkpt lat="40.0726272" lon="-105.2301499">
  <ele>1583.0</ele>
  <time>2026-08-28T17:51:21Z</time>
  <course>183.77</course>
  <speed>4.52</speed>
  <fix>3d</fix>
</trkpt>
<trkpt lat="40.0726179" lon="-105.2301508">
  <ele>1582.99</ele>
  <time>2026-08-28T17:51:21Z</time>
  <course>184.63</course>
  <speed>4.719544469543644</speed>
  <fix>3d</fix>
</trkpt>
<trkpt lat="40.0726272" lon="-105.2301499">
  <ele>1583.0</ele>
  <time>2026-08-28T17:51:21Z</time>
  <course>183.77</course>
  <speed>4.52</speed>
  <fix>3d</fix>
</trkpt>
<trkpt lat="40.0726136" lon="-105.2301511">
  <ele>1582.99</ele>
  <time>2026-08-28T17:51:21Z</time>
  <course>184.56</course>
  <speed>4.809365862564419</speed>
  <fix>3d</fix>
</trkpt>
<trkpt lat="40.0726189" lon="-105.2301506">
  <ele>1583.0</ele>
  <time>2026-08-28T17:51:21Z</time>
  <course>183.64</course>
  <speed>4.71</speed>
  <fix>3d</fix>
</trkpt>
<trkpt lat="40.0726092" lon="-105.2301515">
  <ele>1582.99</ele>
  <time>2026-08-28T17:51:21Z</time>
  <course>184.5</course>
  <speed>4.899193811230578</speed>
  <fix>3d</fix>
</trkpt>
<trkpt lat="40.0726189" lon="-105.2301506">
  <ele>1583.0</ele>
  <time>2026-08-28T17:51:21Z</time>
  <course>183.64</course>
  <speed>4.71</speed>
  <fix>3d</fix>
</trkpt>
<trkpt lat="40.0726048" lon="-105.2301518">
  <ele>1582.99</ele>
  <time>2026-08-28T17:51:21Z</time>
  <course>184.43</course>
  <speed>4.978453575157651</speed>
  <fix>3d</fix>
</trkpt>
<trkpt lat="40.0726104" lon="-105.2301513">
  <ele>1583.0</ele>
  <time>2026-08-28T17:51:21Z</time>
  <course>183.51</course>
  <speed>4.89</speed>
  <fix>3d</fix>
</trkpt>
<trkpt lat="40.0726002" lon="-105.2301521">
  <ele>1582.99</ele>
  <time>2026-08-28T17:51:21Z</time>
  <course>184.36</course>
  <speed>5.0583198791693675</speed>
  <fix>3d</fix>
</trkpt>
<trkpt lat="40.0726104" lon="-105.2301513">
  <ele>1583.0</ele>
  <time>2026-08-28T17:51:21Z</time>
  <course>183.51</course>
  <speed>4.89</speed>
  <fix>3d</fix>
</trkpt>
<trkpt lat="40.0725956" lon="-105.2301525">
  <ele>1582.99</ele>
  <time>2026-08-28T17:51:21Z</time>
  <course>184.29</course>
  <speed>5.128206314102427</speed>
  <fix>3d</fix>
</trkpt>
<trkpt lat="40.0726014" lon="-105.230152">
  <ele>1583.0</ele>
  <time>2026-08-28T17:51:21Z</time>
  <course>183.38</course>
  <speed>5.05</speed>
  <fix>3d</fix>
</trkpt>
<trkpt lat="40.0725909" lon="-105.2301528">
  <ele>1582.98</ele>
  <time>2026-08-28T17:51:21Z</time>
  <course>184.22</course>
  <speed>5.187562047821693</speed>
  <fix>3d</fix>
</trkpt>
<trkpt lat="40.0726014" lon="-105.230152">
  <ele>1583.0</ele>
  <time>2026-08-28T17:51:21Z</time>
  <course>183.38</course>
  <speed>5.05</speed>
  <fix>3d</fix>
</trkpt>
<trkpt lat="40.0725862" lon="-105.2301532">
  <ele>1582.98</ele>
  <time>2026-08-28T17:51:21Z</time>
  <course>184.18</course>
  <speed>5.237489856792088</speed>
  <fix>3d</fix>
</trkpt>
<trkpt lat="40.0725922" lon="-105.2301527">
  <ele>1583.0</ele>
  <time>2026-08-28T17:51:21Z</time>
  <course>183.26</course>
  <speed>5.18</speed>
  <fix>3d</fix>
</trkpt>
<trkpt lat="40.0725814" lon="-105.2301535">
  <ele>1582.99</ele>
  <time>2026-08-28T17:51:21Z</time>
  <course>184.14</course>
  <speed>5.287419030112897</speed>
  <fix>3d</fix>
</trkpt>
<trkpt lat="40.0725922" lon="-105.2301527">
  <ele>1583.0</ele>
  <time>2026-08-28T17:51:21Z</time>
  <course>183.26</course>
  <speed>5.18</speed>
  <fix>3d</fix>
</trkpt>
<trkpt lat="40.0725766" lon="-105.2301538">
  <ele>1582.99</ele>
  <time>2026-08-28T17:51:21Z</time>
  <course>184.14</course>
  <speed>5.317377173005504</speed>
  <fix>3d</fix>
</trkpt>
<trkpt lat="40.0725828" lon="-105.2301534">
  <ele>1583.0</ele>
  <time>2026-08-28T17:51:21Z</time>
  <course>183.18</course>
  <speed>5.27</speed>
  <fix>3d</fix>
</trkpt>
<trkpt lat="40.0725718" lon="-105.2301542">
  <ele>1582.99</ele>
  <time>2026-08-28T17:51:21Z</time>
  <course>184.12</course>
  <speed>5.347335785229875</speed>
  <fix>3d</fix>
</trkpt>
<trkpt lat="40.0725828" lon="-105.2301534">
  <ele>1583.0</ele>
  <time>2026-08-28T17:51:21Z</time>
  <course>183.18</course>
  <speed>5.27</speed>
  <fix>3d</fix>
</trkpt>
<trkpt lat="40.0725669" lon="-105.2301545">
  <ele>1582.99</ele>
  <time>2026-08-28T17:51:21Z</time>
  <course>184.12</course>
  <speed>5.357322092239741</speed>
  <fix>3d</fix>
</trkpt>
<trkpt lat="40.0725733" lon="-105.2301541">
  <ele>1583.0</ele>
  <time>2026-08-28T17:51:21Z</time>
  <course>183.15</course>
  <speed>5.33</speed>
  <fix>3d</fix>
</trkpt>
<trkpt lat="40.0725621" lon="-105.2301548">
  <ele>1582.99</ele>
  <time>2026-08-28T17:51:21Z</time>
  <course>184.1</course>
  <speed>5.357322092239741</speed>
  <fix>3d</fix>
</trkpt>
<trkpt lat="40.0725733" lon="-105.2301541">
  <ele>1583.0</ele>
  <time>2026-08-28T17:51:21Z</time>
  <course>183.15</course>
  <speed>5.33</speed>
  <fix>3d</fix>
</trkpt>
<trkpt lat="40.0725572" lon="-105.2301552">
  <ele>1582.99</ele>
  <time>2026-08-28T17:51:21Z</time>
  <course>184.1</course>
  <speed>5.35680875148628</speed>
  <fix>3d</fix>
</trkpt>
<trkpt lat="40.0725733" lon="-105.2301541">
  <ele>1583.0</ele>
  <time>2026-08-28T17:51:21Z</time>
  <course>183.15</course>
  <speed>5.33</speed>
  <fix>3d</fix>
</trkpt>
<trkpt lat="40.0725525" lon="-105.2301555">
  <ele>1582.99</ele>
  <time>2026-08-28T17:51:21Z</time>
  <course>184.1</course>
  <speed>5.336834267615961</speed>
  <fix>3d</fix>
</trkpt>
<trkpt lat="40.0725637" lon="-105.2301548">
  <ele>1583.0</ele>
  <time>2026-08-28T17:51:21Z</time>
  <course>183.13</course>
  <speed>5.35</speed>
  <fix>3d</fix>
</trkpt>
<trkpt lat="40.0725477" lon="-105.2301558">
  <ele>1583.0</ele>
  <time>2026-08-28T17:51:21Z</time>
  <course>184.1</course>
  <speed>5.30687290219014</speed>
  <fix>3d</fix>
</trkpt>
<trkpt lat="40.0725637" lon="-105.2301548">
  <ele>1583.0</ele>
  <time>2026-08-28T17:51:21Z</time>
  <course>183.13</course>
  <speed>5.35</speed>
  <fix>3d</fix>
</trkpt>
<trkpt lat="40.072543" lon="-105.2301561">
  <ele>1583.0</ele>
  <time>2026-08-28T17:51:21Z</time>
  <course>184.1</course>
  <speed>5.266925099144661</speed>
  <fix>3d</fix>
</trkpt>
<trkpt lat="40.0725541" lon="-105.2301555">
  <ele>1583.0</ele>
  <time>2026-08-28T17:51:21Z</time>
  <course>183.11</course>
  <speed>5.33</speed>
  <fix>3d</fix>
</trkpt>
<trkpt lat="40.0725383" lon="-105.2301565">
  <ele>1583.0</ele>
  <time>2026-08-28T17:51:21Z</time>
  <course>184.1</course>
  <speed>5.226471084776036</speed>
  <fix>3d</fix>
</trkpt>
<trkpt lat="40.0725541" lon="-105.2301555">
  <ele>1583.0</ele>
  <time>2026-08-28T17:51:21Z</time>
  <course>183.11</course>
  <speed>5.33</speed>
  <fix>3d</fix>
</trkpt>
<trkpt lat="40.0725337" lon="-105.2301568">
  <ele>1583.0</ele>
  <time>2026-08-28T17:51:21Z</time>
  <course>184.1</course>
  <speed>5.166546235155551</speed>
  <fix>3d</fix>
</trkpt>
<trkpt lat="40.0725446" lon="-105.2301562">
  <ele>1583.0</ele>
  <time>2026-08-28T17:51:21Z</time>
  <course>183.11</course>
  <speed>5.27</speed>
  <fix>3d</fix>
</trkpt>
<trkpt lat="40.0725291" lon="-105.2301571">
  <ele>1583.0</ele>
  <time>2026-08-28T17:51:21Z</time>
  <course>184.1</course>
  <speed>5.096135790969467</speed>
  <fix>3d</fix>
</trkpt>
<trkpt lat="40.0725352" lon="-105.2301569">
  <ele>1583.0</ele>
  <time>2026-08-28T17:51:21Z</time>
  <course>183.11</course>
  <speed>5.17</speed>
  <fix>3d</fix>
</trkpt>
<trkpt lat="40.0725246" lon="-105.2301574">
  <ele>1583.0</ele>
  <time>2026-08-28T17:51:21Z</time>
  <course>184.1</course>
  <speed>5.02622124463299</speed>
  <fix>3d</fix>
</trkpt>
<trkpt lat="40.0725352" lon="-105.2301569">
  <ele>1583.0</ele>
  <time>2026-08-28T17:51:21Z</time>
  <course>183.11</course>
  <speed>5.17</speed>
  <fix>3d</fix>
</trkpt>
<trkpt lat="40.0725201" lon="-105.2301577">
  <ele>1582.99</ele>
  <time>2026-08-28T17:51:21Z</time>
  <course>184.1</course>
  <speed>4.935838327984416</speed>
  <fix>3d</fix>
</trkpt>
<trkpt lat="40.072526" lon="-105.2301575">
  <ele>1583.0</ele>
  <time>2026-08-28T17:51:21Z</time>
  <course>183.11</course>
  <speed>5.04</speed>
  <fix>3d</fix>
</trkpt>
<trkpt lat="40.0725158" lon="-105.230158">
  <ele>1582.99</ele>
  <time>2026-08-28T17:51:21Z</time>
  <course>184.1</course>
  <speed>4.8459467599221515</speed>
  <fix>3d</fix>
</trkpt>
<trkpt lat="40.072526" lon="-105.2301575">
  <ele>1583.0</ele>
  <time>2026-08-28T17:51:21Z</time>
  <course>183.11</course>
  <speed>5.04</speed>
  <fix>3d</fix>
</trkpt>
<trkpt lat="40.0725114" lon="-105.2301583">
  <ele>1582.99</ele>
  <time>2026-08-28T17:51:21Z</time>
  <course>184.09</course>
  <speed>4.745576888008454</speed>
  <fix>3d</fix>
</trkpt>
<trkpt lat="40.0725171" lon="-105.2301582">
  <ele>1583.0</ele>
  <time>2026-08-28T17:51:21Z</time>
  <course>183.11</course>
  <speed>4.87</speed>
  <fix>3d</fix>
</trkpt>
<trkpt lat="40.0725072" lon="-105.2301586">
  <ele>1582.99</ele>
  <time>2026-08-28T17:51:21Z</time>
  <course>184.09</course>
  <speed>4.635223834940445</speed>
  <fix>3d</fix>
</trkpt>
<trkpt lat="40.0725171" lon="-105.2301582">
  <ele>1583.0</ele>
  <time>2026-08-28T17:51:21Z</time>
  <course>183.11</course>
  <speed>4.87</speed>
  <fix>3d</fix>
</trkpt>
<trkpt lat="40.0725031" lon="-105.2301589">
  <ele>1583.0</ele>
  <time>2026-08-28T17:51:21Z</time>
  <course>184.09</course>
  <speed>4.514886488052607</speed>
  <fix>3d</fix>
</trkpt>
<trkpt lat="40.0725086" lon="-105.2301588">
  <ele>1583.0</ele>
  <time>2026-08-28T17:51:21Z</time>
  <course>183.11</course>
  <speed>4.66</speed>
  <fix>3d</fix>
</trkpt>
<trkpt lat="40.0724991" lon="-105.2301592">
  <ele>1583.0</ele>
  <time>2026-08-28T17:51:21Z</time>
  <course>184.09</course>
  <speed>4.385031356786403</speed>
  <fix>3d</fix>
</trkpt>
<trkpt lat="40.0725086" lon="-105.2301588">
  <ele>1583.0</ele>
  <time>2026-08-28T17:51:21Z</time>
  <course>183.11</course>
  <speed>4.66</speed>
  <fix>3d</fix>
</trkpt>
<trkpt lat="40.0724952" lon="-105.2301595">
  <ele>1583.0</ele>
  <time>2026-08-28T17:51:21Z</time>
  <course>184.08</course>
  <speed>4.254703279900962</speed>
  <fix>3d</fix>
</trkpt>
<trkpt lat="40.0725004" lon="-105.2301593">
  <ele>1583.0</ele>
  <time>2026-08-28T17:51:21Z</time>
  <course>183.11</course>
  <speed>4.42</speed>
  <fix>3d</fix>
</trkpt>
<trkpt lat="40.0724914" lon="-105.2301597">
  <ele>1583.0</ele>
  <time>2026-08-28T17:51:21Z</time>
  <course>184.08</course>
  <speed>4.124378741095439</speed>
  <fix>3d</fix>
</trkpt>
<trkpt lat="40.0725004" lon="-105.2301593">
  <ele>1583.0</ele>
  <time>2026-08-28T17:51:21Z</time>
  <course>183.11</course>
  <speed>4.42</speed>
  <fix>3d</fix>
</trkpt>
<trkpt lat="40.0724878" lon="-105.23016">
  <ele>1583.0</ele>
  <time>2026-08-28T17:51:21Z</time>
  <course>184.08</course>
  <speed>3.984068272507388</speed>
  <fix>3d</fix>
</trkpt>
<trkpt lat="40.0724928" lon="-105.2301598">
  <ele>1583.0</ele>
  <time>2026-08-28T17:51:21Z</time>
  <course>183.11</course>
  <speed>4.16</speed>
  <fix>3d</fix>
</trkpt>
<trkpt lat="40.0724842" lon="-105.2301602">
  <ele>1583.01</ele>
  <time>2026-08-28T17:51:21Z</time>
  <course>184.07</course>
  <speed>3.8437611788455324</speed>
  <fix>3d</fix>
</trkpt>
<trkpt lat="40.0724928" lon="-105.2301598">
  <ele>1583.0</ele>
  <time>2026-08-28T17:51:21Z</time>
  <course>183.11</course>
  <speed>4.16</speed>
  <fix>3d</fix>
</trkpt>
<trkpt lat="40.0724808" lon="-105.2301604">
  <ele>1583.01</ele>
  <time>2026-08-28T17:51:21Z</time>
  <course>184.09</course>
  <speed>3.703903346471125</speed>
  <fix>3d</fix>
</trkpt>
<trkpt lat="40.0724855" lon="-105.2301604">
  <ele>1583.0</ele>
  <time>2026-08-28T17:51:21Z</time>
  <course>183.12</course>
  <speed>3.89</speed>
  <fix>3d</fix>
</trkpt>
<trkpt lat="40.0724776" lon="-105.2301607">
  <ele>1583.01</ele>
  <time>2026-08-28T17:51:21Z</time>
  <course>184.13</course>
  <speed>3.573583635512117</speed>
  <fix>3d</fix>
</trkpt>
<trkpt lat="40.0724855" lon="-105.2301604">
  <ele>1583.0</ele>
  <time>2026-08-28T17:51:21Z</time>
  <course>183.12</course>
  <speed>3.89</speed>
  <fix>3d</fix>
</trkpt>
<trkpt lat="40.0724744" lon="-105.2301609">
  <ele>1583.01</ele>
  <time>2026-08-28T17:51:21Z</time>
  <course>184.17</course>
  <speed>3.433729750577351</speed>
  <fix>3d</fix>
</trkpt>
<trkpt lat="40.0724855" lon="-105.2301604">
  <ele>1583.0</ele>
  <time>2026-08-28T17:51:21Z</time>
  <course>183.12</course>
  <speed>3.89</speed>
  <fix>3d</fix>
</trkpt>
<trkpt lat="40.0724714" lon="-105.2301611">
  <ele>1583.01</ele>
  <time>2026-08-28T17:51:21Z</time>
  <course>184.25</course>
  <speed>3.2938882798297815</speed>
  <fix>3d</fix>
</trkpt>
<trkpt lat="40.0724788" lon="-105.2301609">
  <ele>1583.0</ele>
  <time>2026-08-28T17:51:21Z</time>
  <course>183.18</course>
  <speed>3.62</speed>
  <fix>3d</fix>
</trkpt>
<trkpt lat="40.0724685" lon="-105.2301613">
  <ele>1583.01</ele>
  <time>2026-08-28T17:51:21Z</time>
  <course>184.34</course>
  <speed>3.163558123379433</speed>
  <fix>3d</fix>
</trkpt>
<trkpt lat="40.0724788" lon="-105.2301609">
  <ele>1583.0</ele>
  <time>2026-08-28T17:51:21Z</time>
  <course>183.18</course>
  <speed>3.62</speed>
  <fix>3d</fix>
</trkpt>
<trkpt lat="40.0724658" lon="-105.2301615">
  <ele>1583.01</ele>
  <time>2026-08-28T17:51:21Z</time>
  <course>184.46</course>
  <speed>3.033710599249704</speed>
  <fix>3d</fix>
</trkpt>
<trkpt lat="40.0724724" lon="-105.2301613">
  <ele>1583.0</ele>
  <time>2026-08-28T17:51:21Z</time>
  <course>183.32</course>
  <speed>3.36</speed>
  <fix>3d</fix>
</trkpt>
<trkpt lat="40.0724631" lon="-105.2301618">
  <ele>1583.01</ele>
  <time>2026-08-28T17:51:21Z</time>
  <course>184.61</course>
  <speed>2.9038767191463206</speed>
  <fix>3d</fix>
</trkpt>
<trkpt lat="40.0724724" lon="-105.2301613">
  <ele>1583.0</ele>
  <time>2026-08-28T17:51:21Z</time>
  <course>183.32</course>
  <speed>3.36</speed>
  <fix>3d</fix>
</trkpt>
<trkpt lat="40.0724606" lon="-105.230162">
  <ele>1583.01</ele>
  <time>2026-08-28T17:51:21Z</time>
  <course>184.8</course>
  <speed>2.7846005099475217</speed>
  <fix>3d</fix>
</trkpt>
<trkpt lat="40.0724667" lon="-105.2301618">
  <ele>1583.0</ele>
  <time>2026-08-28T17:51:21Z</time>
  <course>183.55</course>
  <speed>3.1</speed>
  <fix>3d</fix>
</trkpt>
<trkpt lat="40.0724582" lon="-105.2301622">
  <ele>1583.02</ele>
  <time>2026-08-28T17:51:21Z</time>
  <course>185.02</course>
  <speed>2.6548257946614875</speed>
  <fix>3d</fix>
</trkpt>
<trkpt lat="40.0724667" lon="-105.2301618">
  <ele>1583.0</ele>
  <time>2026-08-28T17:51:21Z</time>
  <course>183.55</course>
  <speed>3.1</speed>
  <fix>3d</fix>
</trkpt>
<trkpt lat="40.0724558" lon="-105.2301624">
  <ele>1583.01</ele>
  <time>2026-08-28T17:51:21Z</time>
  <course>185.27</course>
  <speed>2.535705030164195</speed>
  <fix>3d</fix>
</trkpt>
<trkpt lat="40.0724613" lon="-105.2301622">
  <ele>1583.0</ele>
  <time>2026-08-28T17:51:21Z</time>
  <course>183.9</course>
  <speed>2.86</speed>
  <fix>3d</fix>
</trkpt>
<trkpt lat="40.0724536" lon="-105.2301627">
  <ele>1583.01</ele>
  <time>2026-08-28T17:51:21Z</time>
  <course>185.56</course>
  <speed>2.425963726027246</speed>
  <fix>3d</fix>
</trkpt>
<trkpt lat="40.0724564" lon="-105.2301627">
  <ele>1583.0</ele>
  <time>2026-08-28T17:51:21Z</time>
  <course>184.39</course>
  <speed>2.62</speed>
  <fix>3d</fix>
</trkpt>
<trkpt lat="40.0724515" lon="-105.2301629">
  <ele>1583.01</ele>
  <time>2026-08-28T17:51:21Z</time>
  <course>185.89</course>
  <speed>2.3170023737579557</speed>
  <fix>3d</fix>
</trkpt>
<trkpt lat="40.0724564" lon="-105.2301627">
  <ele>1583.0</ele>
  <time>2026-08-28T17:51:21Z</time>
  <course>184.39</course>
  <speed>2.62</speed>
  <fix>3d</fix>
</trkpt>
<trkpt lat="40.0724495" lon="-105.2301632">
  <ele>1583.01</ele>
  <time>2026-08-28T17:51:21Z</time>
  <course>186.28</course>
  <speed>2.20818930347921</speed>
  <fix>3d</fix>
</trkpt>
<trkpt lat="40.0724519" lon="-105.2301632">
  <ele>1583.0</ele>
  <time>2026-08-28T17:51:21Z</time>
  <course>185.03</course>
  <speed>2.4</speed>
  <fix>3d</fix>
</trkpt>
<trkpt lat="40.0724475" lon="-105.2301634">
  <ele>1583.0</ele>
  <time>2026-08-28T17:51:21Z</time>
  <course>186.75</course>
  <speed>2.0995475703112803</speed>
  <fix>3d</fix>
</trkpt>
<trkpt lat="40.0724519" lon="-105.2301632">
  <ele>1583.0</ele>
  <time>2026-08-28T17:51:21Z</time>
  <course>185.03</course>
  <speed>2.4</speed>
  <fix>3d</fix>
</trkpt>
<trkpt lat="40.0724456" lon="-105.2301637">
  <ele>1583.0</ele>
  <time>2026-08-28T17:51:21Z</time>
  <course>187.3</course>
  <speed>1.991105220725414</speed>
  <fix>3d</fix>
</trkpt>
<trkpt lat="40.0724478" lon="-105.2301637">
  <ele>1583.0</ele>
  <time>2026-08-28T17:51:21Z</time>
  <course>185.9</course>
  <speed>2.19</speed>
  <fix>3d</fix>
</trkpt>
<trkpt lat="40.0724439" lon="-105.230164">
  <ele>1583.0</ele>
  <time>2026-08-28T17:51:21Z</time>
  <course>187.96</course>
  <speed>1.892828571212935</speed>
  <fix>3d</fix>
</trkpt>
<trkpt lat="40.0724478" lon="-105.2301637">
  <ele>1583.0</ele>
  <time>2026-08-28T17:51:21Z</time>
  <course>185.9</course>
  <speed>2.19</speed>
  <fix>3d</fix>
</trkpt>
<trkpt lat="40.0724422" lon="-105.2301643">
  <ele>1583.0</ele>
  <time>2026-08-28T17:51:21Z</time>
  <course>188.79</course>
  <speed>1.7961069010501576</speed>
  <fix>3d</fix>
</trkpt>
<trkpt lat="40.0724441" lon="-105.2301643">
  <ele>1583.0</ele>
  <time>2026-08-28T17:51:21Z</time>
  <course>187.15</course>
  <speed>1.99</speed>
  <fix>3d</fix>
</trkpt>
<trkpt lat="40.0724406" lon="-105.2301647">
  <ele>1583.0</ele>
  <time>2026-08-28T17:51:21Z</time>
  <course>189.81</course>
  <speed>1.7</speed>
  <fix>3d</fix>
</trkpt>
<trkpt lat="40.0724441" lon="-105.2301643">
  <ele>1583.0</ele>
  <time>2026-08-28T17:51:21Z</time>
  <course>187.15</course>
  <speed>1.99</speed>
  <fix>3d</fix>
</trkpt>
<trkpt lat="40.0724391" lon="-105.230165">
  <ele>1583.0</ele>
  <time>2026-08-28T17:51:21Z</time>
  <course>191.09</course>
  <speed>1.5947727110782903</speed>
  <fix>3d</fix>
</trkpt>
<trkpt lat="40.0724407" lon="-105.2301649">
  <ele>1583.0</ele>
  <time>2026-08-28T17:51:21Z</time>
  <course>189.03</course>
  <speed>1.79</speed>
  <fix>3d</fix>
</trkpt>
<trkpt lat="40.0724376" lon="-105.2301654">
  <ele>1583.0</ele>
  <time>2026-08-28T17:51:21Z</time>
  <course>192.74</course>
  <speed>1.5023315213360866</speed>
  <fix>3d</fix>
</trkpt>
<trkpt lat="40.0724407" lon="-105.2301649">
  <ele>1583.0</ele>
  <time>2026-08-28T17:51:21Z</time>
  <course>189.03</course>
  <speed>1.79</speed>
  <fix>3d</fix>
</trkpt>
<trkpt lat="40.0724363" lon="-105.2301659">
  <ele>1583.0</ele>
  <time>2026-08-28T17:51:21Z</time>
  <course>194.91</course>
  <speed>1.4043147795277242</speed>
  <fix>3d</fix>
</trkpt>
<trkpt lat="40.0724378" lon="-105.2301655">
  <ele>1583.0</ele>
  <time>2026-08-28T17:51:21Z</time>
  <course>192.06</course>
  <speed>1.6</speed>
  <fix>3d</fix>
</trkpt>
<trkpt lat="40.0724351" lon="-105.2301663">
  <ele>1583.0</ele>
  <time>2026-08-28T17:51:21Z</time>
  <course>197.82</course>
  <speed>1.3124404748406686</speed>
  <fix>3d</fix>
</trkpt>
<trkpt lat="40.0724378" lon="-105.2301655">
  <ele>1583.0</ele>
  <time>2026-08-28T17:51:21Z</time>
  <course>192.06</course>
  <speed>1.6</speed>
  <fix>3d</fix>
</trkpt>
<trkpt lat="40.072434" lon="-105.2301669">
  <ele>1583.01</ele>
  <time>2026-08-28T17:51:21Z</time>
  <course>201.75</course>
  <speed>1.2200409829181968</speed>
  <fix>3d</fix>
</trkpt>
<trkpt lat="40.0724378" lon="-105.2301655">
  <ele>1583.0</ele>
  <time>2026-08-28T17:51:21Z</time>
  <course>192.06</course>
  <speed>1.6</speed>
  <fix>3d</fix>
</trkpt>
<trkpt lat="40.072433" lon="-105.2301675">
  <ele>1583.01</ele>
  <time>2026-08-28T17:51:21Z</time>
  <course>206.81</course>
  <speed>1.1317685275708986</speed>
  <fix>3d</fix>
</trkpt>
<trkpt lat="40.0724351" lon="-105.2301665">
  <ele>1583.0</ele>
  <time>2026-08-28T17:51:21Z</time>
  <course>197.31</course>
  <speed>1.41</speed>
  <fix>3d</fix>
</trkpt>
<trkpt lat="40.0724321" lon="-105.2301682">
  <ele>1583.01</ele>
  <time>2026-08-28T17:51:21Z</time>
  <course>212.95</course>
  <speed>1.0486181383134663</speed>
  <fix>3d</fix>
</trkpt>
<trkpt lat="40.0724351" lon="-105.2301665">
  <ele>1583.0</ele>
  <time>2026-08-28T17:51:21Z</time>
  <course>197.31</course>
  <speed>1.41</speed>
  <fix>3d</fix>
</trkpt>
<trkpt lat="40.0724314" lon="-105.230169">
  <ele>1583.01</ele>
  <time>2026-08-28T17:51:21Z</time>
  <course>219.89</course>
  <speed>0.9908582138732059</speed>
  <fix>3d</fix>
</trkpt>
<trkpt lat="40.0724329" lon="-105.2301676">
  <ele>1583.0</ele>
  <time>2026-08-28T17:51:21Z</time>
  <course>206.19</course>
  <speed>1.22</speed>
  <fix>3d</fix>
</trkpt>
<trkpt lat="40.0724307" lon="-105.2301698">
  <ele>1583.01</ele>
  <time>2026-08-28T17:51:21Z</time>
  <course>226.69</course>
  <speed>0.9730878685915265</speed>
  <fix>3d</fix>
</trkpt>
<trkpt lat="40.0724329" lon="-105.2301676">
  <ele>1583.0</ele>
  <time>2026-08-28T17:51:21Z</time>
  <course>206.19</course>
  <speed>1.22</speed>
  <fix>3d</fix>
</trkpt>
<trkpt lat="40.0724301" lon="-105.2301708">
  <ele>1583.01</ele>
  <time>2026-08-28T17:51:21Z</time>
  <course>233.4</course>
  <speed>0.9847842403288144</speed>
  <fix>3d</fix>
</trkpt>
<trkpt lat="40.0724311" lon="-105.230169">
  <ele>1583.0</ele>
  <time>2026-08-28T17:51:21Z</time>
  <course>218.83</course>
  <speed>1.09</speed>
  <fix>3d</fix>
</trkpt>
<trkpt lat="40.0724297" lon="-105.2301719">
  <ele>1583.01</ele>
  <time>2026-08-28T17:51:21Z</time>
  <course>240.2</course>
  <speed>1.019803902718557</speed>
  <fix>3d</fix>
</trkpt>
<trkpt lat="40.0724311" lon="-105.230169">
  <ele>1583.0</ele>
  <time>2026-08-28T17:51:21Z</time>
  <course>218.83</course>
  <speed>1.09</speed>
  <fix>3d</fix>
</trkpt>
<trkpt lat="40.0724292" lon="-105.230173">
  <ele>1583.0</ele>
  <time>2026-08-28T17:51:21Z</time>
  <course>247.23</course>
  <speed>1.0625441167311596</speed>
  <fix>3d</fix>
</trkpt>
<trkpt lat="40.0724298" lon="-105.2301708">
  <ele>1583.0</ele>
  <time>2026-08-28T17:51:21Z</time>
  <course>232.81</course>
  <speed>1.06</speed>
  <fix>3d</fix>
</trkpt>
<trkpt lat="40.0724289" lon="-105.2301743">
  <ele>1583.0</ele>
  <time>2026-08-28T17:51:21Z</time>
  <course>254.42</course>
  <speed>1.119866063420086</speed>
  <fix>3d</fix>
</trkpt>
<trkpt lat="40.0724289" lon="-105.2301731">
  <ele>1583.0</ele>
  <time>2026-08-28T17:51:21Z</time>
  <course>246.8</course>
  <speed>1.1</speed>
  <fix>3d</fix>
</trkpt>
<trkpt lat="40.0724288" lon="-105.2301757">
  <ele>1583.0</ele>
  <time>2026-08-28T17:51:21Z</time>
  <course>261.86</course>
  <speed>1.172092146548214</speed>
  <fix>3d</fix>
</trkpt>
<trkpt lat="40.0724289" lon="-105.2301731">
  <ele>1583.0</ele>
  <time>2026-08-28T17:51:21Z</time>
  <course>246.8</course>
  <speed>1.1</speed>
  <fix>3d</fix>
</trkpt>
<trkpt lat="40.0724287" lon="-105.2301771">
  <ele>1582.99</ele>
  <time>2026-08-28T17:51:21Z</time>
  <course>269.49</course>
  <speed>1.2325988804148738</speed>
  <fix>3d</fix>
</trkpt>
<trkpt lat="40.0724283" lon="-105.2301756">
  <ele>1583.0</ele>
  <time>2026-08-28T17:51:21Z</time>
  <course>261.51</course>
  <speed>1.18</speed>
  <fix>3d</fix>
</trkpt>
<trkpt lat="40.0724288" lon="-105.2301786">
  <ele>1582.99</ele>
  <time>2026-08-28T17:51:21Z</time>
  <course>277.45</course>
  <speed>1.284562182223967</speed>
  <fix>3d</fix>
</trkpt>
<trkpt lat="40.0724283" lon="-105.2301756">
  <ele>1583.0</ele>
  <time>2026-08-28T17:51:21Z</time>
  <course>261.51</course>
  <speed>1.18</speed>
  <fix>3d</fix>
</trkpt>
<trkpt lat="40.0724291" lon="-105.2301802">
  <ele>1582.99</ele>
  <time>2026-08-28T17:51:21Z</time>
  <course>285.68</course>
  <speed>1.3346160496562296</speed>
  <fix>3d</fix>
</trkpt>
<trkpt lat="40.0724282" lon="-105.2301784">
  <ele>1583.0</ele>
  <time>2026-08-28T17:51:21Z</time>
  <course>277.2</course>
  <speed>1.26</speed>
  <fix>3d</fix>
</trkpt>
<trkpt lat="40.0724295" lon="-105.2301817">
  <ele>1582.98</ele>
  <time>2026-08-28T17:51:21Z</time>
  <course>294.17</course>
  <speed>1.3865424623862048</speed>
  <fix>3d</fix>
</trkpt>
<trkpt lat="40.0724282" lon="-105.2301784">
  <ele>1583.0</ele>
  <time>2026-08-28T17:51:21Z</time>
  <course>277.2</course>
  <speed>1.26</speed>
  <fix>3d</fix>
</trkpt>
<trkpt lat="40.0724301" lon="-105.2301831">
  <ele>1582.98</ele>
  <time>2026-08-28T17:51:21Z</time>
  <course>302.9</course>
  <speed>1.4403124660989366</speed>
  <fix>3d</fix>
</trkpt>
<trkpt lat="40.0724288" lon="-105.2301814">
  <ele>1583.0</ele>
  <time>2026-08-28T17:51:21Z</time>
  <course>293.91</course>
  <speed>1.33</speed>
  <fix>3d</fix>
</trkpt>
<trkpt lat="40.0724308" lon="-105.2301845">
  <ele>1582.98</ele>
  <time>2026-08-28T17:51:21Z</time>
  <course>311.94</course>
  <speed>1.4780054127099804</speed>
  <fix>3d</fix>
</trkpt>
<trkpt lat="40.0724288" lon="-105.2301814">
  <ele>1583.0</ele>
  <time>2026-08-28T17:51:21Z</time>
  <course>293.91</course>
  <speed>1.33</speed>
  <fix>3d</fix>
</trkpt>
<trkpt lat="40.0724318" lon="-105.2301857">
  <ele>1582.98</ele>
  <time>2026-08-28T17:51:21Z</time>
  <course>321.12</course>
  <speed>1.514001321003387</speed>
  <fix>3d</fix>
</trkpt>
<trkpt lat="40.0724301" lon="-105.2301841">
  <ele>1583.0</ele>
  <time>2026-08-28T17:51:21Z</time>
  <course>311.58</course>
  <speed>1.4</speed>
  <fix>3d</fix>
</trkpt>
<trkpt lat="40.0724329" lon="-105.2301866">
  <ele>1582.98</ele>
  <time>2026-08-28T17:51:21Z</time>
  <course>329.96</course>
  <speed>1.5530936868070773</speed>
  <fix>3d</fix>
</trkpt>
<trkpt lat="40.0724301" lon="-105.2301841">
  <ele>1583.0</ele>
  <time>2026-08-28T17:51:21Z</time>
  <course>311.58</course>
  <speed>1.4</speed>
  <fix>3d</fix>
</trkpt>
<trkpt lat="40.0724342" lon="-105.2301874">
  <ele>1582.98</ele>
  <time>2026-08-28T17:51:21Z</time>
  <course>337.83</course>
  <speed>1.5989058759038945</speed>
  <fix>3d</fix>
</trkpt>
<trkpt lat="40.0724321" lon="-105.2301862">
  <ele>1583.0</ele>
  <time>2026-08-28T17:51:21Z</time>
  <course>329.02</course>
  <speed>1.48</speed>
  <fix>3d</fix>
</trkpt>
<trkpt lat="40.0724355" lon="-105.230188">
  <ele>1582.98</ele>
  <time>2026-08-28T17:51:21Z</time>
  <course>344.77</course>
  <speed>1.6638810053606599</speed>
  <fix>3d</fix>
</trkpt>
<trkpt lat="40.0724321" lon="-105.2301862">
  <ele>1583.0</ele>
  <time>2026-08-28T17:51:21Z</time>
  <course>329.02</course>
  <speed>1.48</speed>
  <fix>3d</fix>
</trkpt>
<trkpt lat="40.072437" lon="-105.2301884">
  <ele>1582.98</ele>
  <time>2026-08-28T17:51:21Z</time>
  <course>350.74</course>
  <speed>1.7311845655504212</speed>
  <fix>3d</fix>
</trkpt>
<trkpt lat="40.0724347" lon="-105.2301876">
  <ele>1583.0</ele>
  <time>2026-08-28T17:51:21Z</time>
  <course>343.86</course>
  <speed>1.59</speed>
  <fix>3d</fix>
</trkpt>
<trkpt lat="40.0724385" lon="-105.2301886">
  <ele>1582.98</ele>
  <time>2026-08-28T17:51:21Z</time>
  <course>355.71</course>
  <speed>1.8146625030566979</speed>
  <fix>3d</fix>
</trkpt>
<trkpt lat="40.0724347" lon="-105.2301876">
  <ele>1583.0</ele>
  <time>2026-08-28T17:51:21Z</time>
  <course>343.86</course>
  <speed>1.59</speed>
  <fix>3d</fix>
</trkpt>
<trkpt lat="40.0724402" lon="-105.2301886">
  <ele>1582.98</ele>
  <time>2026-08-28T17:51:21Z</time>
  <course>359.64</course>
  <speed>1.900026315607234</speed>
  <fix>3d</fix>
</trkpt>
<trkpt lat="40.0724347" lon="-105.2301876">
  <ele>1583.0</ele>
  <time>2026-08-28T17:51:21Z</time>
  <course>343.86</course>
  <speed>1.59</speed>
  <fix>3d</fix>
</trkpt>
<trkpt lat="40.0724419" lon="-105.2301886">
  <ele>1582.99</ele>
  <time>2026-08-28T17:51:21Z</time>
  <course>2.51</course>
  <speed>2.001224625073357</speed>
  <fix>3d</fix>
</trkpt>
<trkpt lat="40.0724376" lon="-105.2301884">
  <ele>1583.0</ele>
  <time>2026-08-28T17:51:21Z</time>
  <course>354.72</course>
  <speed>1.75</speed>
  <fix>3d</fix>
</trkpt>
<trkpt lat="40.0724437" lon="-105.2301884">
  <ele>1582.99</ele>
  <time>2026-08-28T17:51:21Z</time>
  <course>4.31</course>
  <speed>2.104661492972207</speed>
  <fix>3d</fix>
</trkpt>
<trkpt lat="40.0724376" lon="-105.2301884">
  <ele>1583.0</ele>
  <time>2026-08-28T17:51:21Z</time>
  <course>354.72</course>
  <speed>1.75</speed>
  <fix>3d</fix>
</trkpt>
<trkpt lat="40.0724456" lon="-105.2301882">
  <ele>1582.98</ele>
  <time>2026-08-28T17:51:21Z</time>
  <course>5.03</course>
  <speed>2.2173181999884455</speed>
  <fix>3d</fix>
</trkpt>
<trkpt lat="40.072441" lon="-105.2301885">
  <ele>1583.0</ele>
  <time>2026-08-28T17:51:21Z</time>
  <course>1.41</course>
  <speed>1.95</speed>
  <fix>3d</fix>
</trkpt>
<trkpt lat="40.0724476" lon="-105.2301881">
  <ele>1582.98</ele>
  <time>2026-08-28T17:51:21Z</time>
  <course>5.03</course>
  <speed>2.3369424468736923</speed>
  <fix>3d</fix>
</trkpt>
<trkpt lat="40.072441" lon="-105.2301885">
  <ele>1583.0</ele>
  <time>2026-08-28T17:51:21Z</time>
  <course>1.41</course>
  <speed>1.95</speed>
  <fix>3d</fix>
</trkpt>
<trkpt lat="40.0724497" lon="-105.2301879">
  <ele>1582.98</ele>
  <time>2026-08-28T17:51:21Z</time>
  <course>5.07</course>
  <speed>2.4573563030216032</speed>
  <fix>3d</fix>
</trkpt>
<trkpt lat="40.0724447" lon="-105.2301883">
  <ele>1583.0</ele>
  <time>2026-08-28T17:51:21Z</time>
  <course>3.98</course>
  <speed>2.18</speed>
  <fix>3d</fix>
</trkpt>
<trkpt lat="40.0724519" lon="-105.2301876">
  <ele>1582.98</ele>
  <time>2026-08-28T17:51:21Z</time>
  <course>5.08</course>
  <speed>2.5777703543954416</speed>
  <fix>3d</fix>
</trkpt>
<trkpt lat="40.0724488" lon="-105.2301879">
  <ele>1583.0</ele>
  <time>2026-08-28T17:51:21Z</time>
  <course>4.34</course>
  <speed>2.42</speed>
  <fix>3d</fix>
</trkpt>
<trkpt lat="40.0724542" lon="-105.2301874">
  <ele>1582.97</ele>
  <time>2026-08-28T17:51:21Z</time>
  <course>5.08</course>
  <speed>2.7081543530604013</speed>
  <fix>3d</fix>
</trkpt>
<trkpt lat="40.0724488" lon="-105.2301879">
  <ele>1583.0</ele>
  <time>2026-08-28T17:51:21Z</time>
  <course>4.34</course>
  <speed>2.42</speed>
  <fix>3d</fix>
</trkpt>
<trkpt lat="40.0724567" lon="-105.2301871">
  <ele>1582.97</ele>
  <time>2026-08-28T17:51:21Z</time>
  <course>5.08</course>
  <speed>2.838538356267183</speed>
  <fix>3d</fix>
</trkpt>
<trkpt lat="40.0724534" lon="-105.2301874">
  <ele>1583.0</ele>
  <time>2026-08-28T17:51:21Z</time>
  <course>4.37</course>
  <speed>2.68</speed>
  <fix>3d</fix>
</trkpt>
<trkpt lat="40.0724593" lon="-105.2301869">
  <ele>1582.97</ele>
  <time>2026-08-28T17:51:21Z</time>
  <course>5.08</course>
  <speed>2.968922363417407</speed>
  <fix>3d</fix>
</trkpt>
<trkpt lat="40.0724534" lon="-105.2301874">
  <ele>1583.0</ele>
  <time>2026-08-28T17:51:21Z</time>
  <course>4.37</course>
  <speed>2.68</speed>
  <fix>3d</fix>
</trkpt>
<trkpt lat="40.072462" lon="-105.2301866">
  <ele>1582.97</ele>
  <time>2026-08-28T17:51:21Z</time>
  <course>5.08</course>
  <speed>3.099306374013386</speed>
  <fix>3d</fix>
</trkpt>
<trkpt lat="40.0724584" lon="-105.2301869">
  <ele>1583.0</ele>
  <time>2026-08-28T17:51:21Z</time>
  <course>4.37</course>
  <speed>2.94</speed>
  <fix>3d</fix>
</trkpt>
<trkpt lat="40.0724648" lon="-105.2301863">
  <ele>1582.97</ele>
  <time>2026-08-28T17:51:21Z</time>
  <course>5.08</course>
  <speed>3.22893171188243</speed>
  <fix>3d</fix>
</trkpt>
<trkpt lat="40.0724584" lon="-105.2301869">
  <ele>1583.0</ele>
  <time>2026-08-28T17:51:21Z</time>
  <course>4.37</course>
  <speed>2.94</speed>
  <fix>3d</fix>
</trkpt>
<trkpt lat="40.0724678" lon="-105.230186">
  <ele>1582.96</ele>
  <time>2026-08-28T17:51:21Z</time>
  <course>5.08</course>
  <speed>3.359315406448165</speed>
  <fix>3d</fix>
</trkpt>
<trkpt lat="40.0724639" lon="-105.2301863">
  <ele>1583.0</ele>
  <time>2026-08-28T17:51:21Z</time>
  <course>4.37</course>
  <speed>3.2</speed>
  <fix>3d</fix>
</trkpt>
<trkpt lat="40.0724709" lon="-105.2301857">
  <ele>1582.96</ele>
  <time>2026-08-28T17:51:21Z</time>
  <course>5.08</course>
  <speed>3.479727000786125</speed>
  <fix>3d</fix>
</trkpt>
<trkpt lat="40.0724639" lon="-105.2301863">
  <ele>1583.0</ele>
  <time>2026-08-28T17:51:21Z</time>
  <course>4.37</course>
  <speed>3.2</speed>
  <fix>3d</fix>
</trkpt>
<trkpt lat="40.0724741" lon="-105.2301854">
  <ele>1582.96</ele>
  <time>2026-08-28T17:51:21Z</time>
  <course>5.09</course>
  <speed>3.6101108016236845</speed>
  <fix>3d</fix>
</trkpt>
<trkpt lat="40.0724699" lon="-105.2301857">
  <ele>1583.0</ele>
  <time>2026-08-28T17:51:21Z</time>
  <course>4.37</course>
  <speed>3.45</speed>
  <fix>3d</fix>
</trkpt>
<trkpt lat="40.0724774" lon="-105.230185">
  <ele>1582.96</ele>
  <time>2026-08-28T17:51:21Z</time>
  <course>5.09</course>
  <speed>3.7305227515724924</speed>
  <fix>3d</fix>
</trkpt>
<trkpt lat="40.0724699" lon="-105.2301857">
  <ele>1583.0</ele>
  <time>2026-08-28T17:51:21Z</time>
  <course>4.37</course>
  <speed>3.45</speed>
  <fix>3d</fix>
</trkpt>
<trkpt lat="40.0724808" lon="-105.2301847">
  <ele>1582.95</ele>
  <time>2026-08-28T17:51:21Z</time>
  <course>5.09</course>
  <speed>3.8509349514111504</speed>
  <fix>3d</fix>
</trkpt>
<trkpt lat="40.0724763" lon="-105.2301851">
  <ele>1583.0</ele>
  <time>2026-08-28T17:51:21Z</time>
  <course>4.37</course>
  <speed>3.7</speed>
  <fix>3d</fix>
</trkpt>
<trkpt lat="40.0724844" lon="-105.2301844">
  <ele>1582.95</ele>
  <time>2026-08-28T17:51:21Z</time>
  <course>5.09</course>
  <speed>3.9713473784094986</speed>
  <fix>3d</fix>
</trkpt>
<trkpt lat="40.0724763" lon="-105.2301851">
  <ele>1583.0</ele>
  <time>2026-08-28T17:51:21Z</time>
  <course>4.37</course>
  <speed>3.7</speed>
  <fix>3d</fix>
</trkpt>
<trkpt lat="40.072488" lon="-105.230184">
  <ele>1582.95</ele>
  <time>2026-08-28T17:51:21Z</time>
  <course>5.09</course>
  <speed>4.091014544095389</speed>
  <fix>3d</fix>
</trkpt>
<trkpt lat="40.0724831" lon="-105.2301845">
  <ele>1583.0</ele>
  <time>2026-08-28T17:51:21Z</time>
  <course>4.37</course>
  <speed>3.94</speed>
  <fix>3d</fix>
</trkpt>
<trkpt lat="40.0724917" lon="-105.2301836">
  <ele>1582.95</ele>
  <time>2026-08-28T17:51:21Z</time>
  <course>5.09</course>
  <speed>4.201452129918892</speed>
  <fix>3d</fix>
</trkpt>
<trkpt lat="40.0724831" lon="-105.2301845">
  <ele>1583.0</ele>
  <time>2026-08-28T17:51:21Z</time>
  <course>4.37</course>
  <speed>3.94</speed>
  <fix>3d</fix>
</trkpt>
<trkpt lat="40.0724955" lon="-105.2301833">
  <ele>1582.94</ele>
  <time>2026-08-28T17:51:21Z</time>
  <course>5.05</course>
  <speed>4.311890536643991</speed>
  <fix>3d</fix>
</trkpt>
<trkpt lat="40.0724831" lon="-105.2301845">
  <ele>1583.0</ele>
  <time>2026-08-28T17:51:21Z</time>
  <course>4.37</course>
  <speed>3.94</speed>
  <fix>3d</fix>
</trkpt>
<trkpt lat="40.0724994" lon="-105.2301829">
  <ele>1582.94</ele>
  <time>2026-08-28T17:51:21Z</time>
  <course>5.0</course>
  <speed>4.421594734934445</speed>
  <fix>3d</fix>
</trkpt>
<trkpt lat="40.0724904" lon="-105.2301837">
  <ele>1583.0</ele>
  <time>2026-08-28T17:51:21Z</time>
  <course>4.34</course>
  <speed>4.17</speed>
  <fix>3d</fix>
</trkpt>
<trkpt lat="40.0725034" lon="-105.2301825">
  <ele>1582.94</ele>
  <time>2026-08-28T17:51:21Z</time>
  <course>4.94</course>
  <speed>4.52133829745132</speed>
  <fix>3d</fix>
</trkpt>
<trkpt lat="40.0724904" lon="-105.2301837">
  <ele>1583.0</ele>
  <time>2026-08-28T17:51:21Z</time>
  <course>4.34</course>
  <speed>4.17</speed>
  <fix>3d</fix>
</trkpt>
<trkpt lat="40.0725075" lon="-105.2301821">
  <ele>1582.94</ele>
  <time>2026-08-28T17:51:21Z</time>
  <course>4.88</course>
  <speed>4.6210929443152295</speed>
  <fix>3d</fix>
</trkpt>
<trkpt lat="40.0724981" lon="-105.230183">
  <ele>1583.0</ele>
  <time>2026-08-28T17:51:21Z</time>
  <course>4.27</course>
  <speed>4.39</speed>
  <fix>3d</fix>
</trkpt>
<trkpt lat="40.0725116" lon="-105.2301817">
  <ele>1582.94</ele>
  <time>2026-08-28T17:51:21Z</time>
  <course>4.82</course>
  <speed>4.721546356862336</speed>
  <fix>3d</fix>
</trkpt>
<trkpt lat="40.0724981" lon="-105.230183">
  <ele>1583.0</ele>
  <time>2026-08-28T17:51:21Z</time>
  <course>4.27</course>
  <speed>4.39</speed>
  <fix>3d</fix>
</trkpt>
<trkpt lat="40.0725159" lon="-105.2301813">
  <ele>1582.93</ele>
  <time>2026-08-28T17:51:21Z</time>
  <course>4.76</course>
  <speed>4.811330377348868</speed>
  <fix>3d</fix>
</trkpt>
<trkpt lat="40.0725062" lon="-105.2301822">
  <ele>1583.0</ele>
  <time>2026-08-28T17:51:21Z</time>
  <course>4.15</course>
  <speed>4.6</speed>
  <fix>3d</fix>
</trkpt>
<trkpt lat="40.0725202" lon="-105.230181">
  <ele>1582.93</ele>
  <time>2026-08-28T17:51:21Z</time>
  <course>4.69</course>
  <speed>4.901122320448654</speed>
  <fix>3d</fix>
</trkpt>
<trkpt lat="40.0725062" lon="-105.2301822">
  <ele>1583.0</ele>
  <time>2026-08-28T17:51:21Z</time>
  <course>4.15</course>
  <speed>4.6</speed>
  <fix>3d</fix>
</trkpt>
<trkpt lat="40.0725246" lon="-105.2301806">
  <ele>1582.93</ele>
  <time>2026-08-28T17:51:21Z</time>
  <course>4.63</course>
  <speed>4.980943685688486</speed>
  <fix>3d</fix>
</trkpt>
<trkpt lat="40.0725146" lon="-105.2301814">
  <ele>1583.0</ele>
  <time>2026-08-28T17:51:21Z</time>
  <course>4.02</course>
  <speed>4.79</speed>
  <fix>3d</fix>
</trkpt>
<trkpt lat="40.0725291" lon="-105.2301802">
  <ele>1582.93</ele>
  <time>2026-08-28T17:51:21Z</time>
  <course>4.59</course>
  <speed>5.060770692295789</speed>
  <fix>3d</fix>
</trkpt>
<trkpt lat="40.0725233" lon="-105.2301807">
  <ele>1583.0</ele>
  <time>2026-08-28T17:51:21Z</time>
  <course>3.9</course>
  <speed>4.97</speed>
  <fix>3d</fix>
</trkpt>
<trkpt lat="40.0725337" lon="-105.2301798">
  <ele>1582.93</ele>
  <time>2026-08-28T17:51:21Z</time>
  <course>4.55</course>
  <speed>5.130623743756698</speed>
  <fix>3d</fix>
</trkpt>
<trkpt lat="40.0725233" lon="-105.2301807">
  <ele>1583.0</ele>
  <time>2026-08-28T17:51:21Z</time>
  <course>3.9</course>
  <speed>4.97</speed>
  <fix>3d</fix>
</trkpt>
<trkpt lat="40.0725383" lon="-105.2301794">
  <ele>1582.93</ele>
  <time>2026-08-28T17:51:21Z</time>
  <course>4.51</course>
  <speed>5.19050093921579</speed>
  <fix>3d</fix>
</trkpt>
<trkpt lat="40.0725324" lon="-105.2301799">
  <ele>1583.0</ele>
  <time>2026-08-28T17:51:21Z</time>
  <course>3.81</course>
  <speed>5.12</speed>
  <fix>3d</fix>
</trkpt>
<trkpt lat="40.072543" lon="-105.230179">
  <ele>1582.93</ele>
  <time>2026-08-28T17:51:21Z</time>
  <course>4.49</course>
  <speed>5.240400748034448</speed>
  <fix>3d</fix>
</trkpt>
<trkpt lat="40.0725324" lon="-105.2301799">
  <ele>1583.0</ele>
  <time>2026-08-28T17:51:21Z</time>
  <course>3.81</course>
  <speed>5.12</speed>
  <fix>3d</fix>
</trkpt>
<trkpt lat="40.0725477" lon="-105.2301786">
  <ele>1582.93</ele>
  <time>2026-08-28T17:51:21Z</time>
  <course>4.47</course>
  <speed>5.290302448820861</speed>
  <fix>3d</fix>
</trkpt>
<trkpt lat="40.0725417" lon="-105.230179">
  <ele>1583.0</ele>
  <time>2026-08-28T17:51:21Z</time>
  <course>3.75</course>
  <speed>5.23</speed>
  <fix>3d</fix>
</trkpt>
<trkpt lat="40.0725525" lon="-105.2301782">
  <ele>1582.92</ele>
  <time>2026-08-28T17:51:21Z</time>
  <course>4.46</course>
  <speed>5.320244355290459</speed>
  <fix>3d</fix>
</trkpt>
<trkpt lat="40.0725417" lon="-105.230179">
  <ele>1583.0</ele>
  <time>2026-08-28T17:51:21Z</time>
  <course>3.75</course>
  <speed>5.23</speed>
  <fix>3d</fix>
</trkpt>
<trkpt lat="40.0725574" lon="-105.2301778">
  <ele>1582.92</ele>
  <time>2026-08-28T17:51:21Z</time>
  <course>4.44</course>
  <speed>5.340205988536398</speed>
  <fix>3d</fix>
</trkpt>
<trkpt lat="40.0725512" lon="-105.2301783">
  <ele>1583.0</ele>
  <time>2026-08-28T17:51:21Z</time>
  <course>3.71</course>
  <speed>5.31</speed>
  <fix>3d</fix>
</trkpt>
<trkpt lat="40.0725622" lon="-105.2301774">
  <ele>1582.92</ele>
  <time>2026-08-28T17:51:21Z</time>
  <course>4.43</course>
  <speed>5.360167907817814</speed>
  <fix>3d</fix>
</trkpt>
<trkpt lat="40.0725512" lon="-105.2301783">
  <ele>1583.0</ele>
  <time>2026-08-28T17:51:21Z</time>
  <course>3.71</course>
  <speed>5.31</speed>
  <fix>3d</fix>
</trkpt>
<trkpt lat="40.0725671" lon="-105.230177">
  <ele>1582.91</ele>
  <time>2026-08-28T17:51:21Z</time>
  <course>4.4</course>
  <speed>5.359561549231429</speed>
  <fix>3d</fix>
</trkpt>
<trkpt lat="40.0725608" lon="-105.2301775">
  <ele>1583.0</ele>
  <time>2026-08-28T17:51:21Z</time>
  <course>3.68</course>
  <speed>5.35</speed>
  <fix>3d</fix>
</trkpt>
<trkpt lat="40.0725719" lon="-105.2301766">
  <ele>1582.91</ele>
  <time>2026-08-28T17:51:21Z</time>
  <course>4.37</course>
  <speed>5.349579422721004</speed>
  <fix>3d</fix>
</trkpt>
<trkpt lat="40.0725608" lon="-105.2301775">
  <ele>1583.0</ele>
  <time>2026-08-28T17:51:21Z</time>
  <course>3.68</course>
  <speed>5.35</speed>
  <fix>3d</fix>
</trkpt>
<trkpt lat="40.0725767" lon="-105.2301762">
  <ele>1582.91</ele>
  <time>2026-08-28T17:51:21Z</time>
  <course>4.37</course>
  <speed>5.3296153707373675</speed>
  <fix>3d</fix>
</trkpt>
<trkpt lat="40.0725703" lon="-105.2301766">
  <ele>1583.0</ele>
  <time>2026-08-28T17:51:21Z</time>
  <course>3.64</course>
  <speed>5.34</speed>
  <fix>3d</fix>
</trkpt>
<trkpt lat="40.0725815" lon="-105.2301759">
  <ele>1582.91</ele>
  <time>2026-08-28T17:51:21Z</time>
  <course>4.38</course>
  <speed>5.299669801034778</speed>
  <fix>3d</fix>
</trkpt>
<trkpt lat="40.0725703" lon="-105.2301766">
  <ele>1583.0</ele>
  <time>2026-08-28T17:51:21Z</time>
  <course>3.64</course>
  <speed>5.34</speed>
  <fix>3d</fix>
</trkpt>
<trkpt lat="40.0725863" lon="-105.2301755">
  <ele>1582.92</ele>
  <time>2026-08-28T17:51:21Z</time>
  <course>4.38</course>
  <speed>5.249161837855641</speed>
  <fix>3d</fix>
</trkpt>
<trkpt lat="40.0725798" lon="-105.2301759">
  <ele>1583.0</ele>
  <time>2026-08-28T17:51:21Z</time>
  <course>3.62</course>
  <speed>5.29</speed>
  <fix>3d</fix>
</trkpt>
<trkpt lat="40.072591" lon="-105.2301751">
  <ele>1582.92</ele>
  <time>2026-08-28T17:51:21Z</time>
  <course>4.38</course>
  <speed>5.19924994590566</speed>
  <fix>3d</fix>
</trkpt>
<trkpt lat="40.0725798" lon="-105.2301759">
  <ele>1583.0</ele>
  <time>2026-08-28T17:51:21Z</time>
  <course>3.62</course>
  <speed>5.29</speed>
  <fix>3d</fix>
</trkpt>
<trkpt lat="40.0725956" lon="-105.2301747">
  <ele>1582.92</ele>
  <time>2026-08-28T17:51:21Z</time>
  <course>4.38</course>
  <speed>5.138764442937621</speed>
  <fix>3d</fix>
</trkpt>
<trkpt lat="40.0725798" lon="-105.2301759">
  <ele>1583.0</ele>
  <time>2026-08-28T17:51:21Z</time>
  <course>3.62</course>
  <speed>5.29</speed>
  <fix>3d</fix>
</trkpt>
<trkpt lat="40.0726002" lon="-105.2301743">
  <ele>1582.92</ele>
  <time>2026-08-28T17:51:21Z</time>
  <course>4.38</course>
  <speed>5.0589030431507584</speed>
  <fix>3d</fix>
</trkpt>
<trkpt lat="40.0725893" lon="-105.2301751">
  <ele>1583.0</ele>
  <time>2026-08-28T17:51:21Z</time>
  <course>3.62</course>
  <speed>5.2</speed>
  <fix>3d</fix>
</trkpt>
<trkpt lat="40.0726046" lon="-105.230174">
  <ele>1582.92</ele>
  <time>2026-08-28T17:51:21Z</time>
  <course>4.38</course>
  <speed>4.978453575157651</speed>
  <fix>3d</fix>
</trkpt>
<trkpt lat="40.0725893" lon="-105.2301751">
  <ele>1583.0</ele>
  <time>2026-08-28T17:51:21Z</time>
  <course>3.62</course>
  <speed>5.2</speed>
  <fix>3d</fix>
</trkpt>
<trkpt lat="40.072609" lon="-105.2301736">
  <ele>1582.93</ele>
  <time>2026-08-28T17:51:21Z</time>
  <course>4.38</course>
  <speed>4.878042640240038</speed>
  <fix>3d</fix>
</trkpt>
<trkpt lat="40.0725985" lon="-105.2301742">
  <ele>1583.0</ele>
  <time>2026-08-28T17:51:21Z</time>
  <course>3.62</course>
  <speed>5.06</speed>
  <fix>3d</fix>
</trkpt>
<trkpt lat="40.0726133" lon="-105.2301733">
  <ele>1582.93</ele>
  <time>2026-08-28T17:51:21Z</time>
  <course>4.38</course>
  <speed>4.778210962274478</speed>
  <fix>3d</fix>
</trkpt>
<trkpt lat="40.0725985" lon="-105.2301742">
  <ele>1583.0</ele>
  <time>2026-08-28T17:51:21Z</time>
  <course>3.62</course>
  <speed>5.06</speed>
  <fix>3d</fix>
</trkpt>
<trkpt lat="40.0726175" lon="-105.2301729">
  <ele>1582.93</ele>
  <time>2026-08-28T17:51:21Z</time>
  <course>4.38</course>
  <speed>4.6578321137627965</speed>
  <fix>3d</fix>
</trkpt>
<trkpt lat="40.0726074" lon="-105.2301735">
  <ele>1583.0</ele>
  <time>2026-08-28T17:51:21Z</time>
  <course>3.62</course>
  <speed>4.89</speed>
  <fix>3d</fix>
</trkpt>
<trkpt lat="40.0726216" lon="-105.2301726">
  <ele>1582.93</ele>
  <time>2026-08-28T17:51:21Z</time>
  <course>4.38</course>
  <speed>4.537455233938953</speed>
  <fix>3d</fix>
</trkpt>
<trkpt lat="40.0726161" lon="-105.2301728">
  <ele>1583.0</ele>
  <time>2026-08-28T17:51:21Z</time>
  <course>3.62</course>
  <speed>4.68</speed>
  <fix>3d</fix>
</trkpt>
<trkpt lat="40.0726256" lon="-105.2301723">
  <ele>1582.93</ele>
  <time>2026-08-28T17:51:21Z</time>
  <course>4.38</course>
  <speed>4.407096549884062</speed>
  <fix>3d</fix>
</trkpt>
<trkpt lat="40.0726161" lon="-105.2301728">
  <ele>1583.0</ele>
  <time>2026-08-28T17:51:21Z</time>
  <course>3.62</course>
  <speed>4.68</speed>
  <fix>3d</fix>
</trkpt>
<trkpt lat="40.0726294" lon="-105.230172">
  <ele>1582.93</ele>
  <time>2026-08-28T17:51:21Z</time>
  <course>4.38</course>
  <speed>4.2767394122158064</speed>
  <fix>3d</fix>
</trkpt>
<trkpt lat="40.0726242" lon="-105.2301722">
  <ele>1583.0</ele>
  <time>2026-08-28T17:51:21Z</time>
  <course>3.62</course>
  <speed>4.44</speed>
  <fix>3d</fix>
</trkpt>
<trkpt lat="40.0726332" lon="-105.2301716">
  <ele>1582.93</ele>
  <time>2026-08-28T17:51:21Z</time>
  <course>4.38</course>
  <speed>4.146383966783588</speed>
  <fix>3d</fix>
</trkpt>
<trkpt lat="40.0726242" lon="-105.2301722">
  <ele>1583.0</ele>
  <time>2026-08-28T17:51:21Z</time>
  <course>3.62</course>
  <speed>4.44</speed>
  <fix>3d</fix>
</trkpt>
<trkpt lat="40.0726368" lon="-105.2301714">
  <ele>1582.93</ele>
  <time>2026-08-28T17:51:21Z</time>
  <course>4.38</course>
  <speed>4.0066070433722345</speed>
  <fix>3d</fix>
</trkpt>
<trkpt lat="40.0726319" lon="-105.2301715">
  <ele>1583.0</ele>
  <time>2026-08-28T17:51:21Z</time>
  <course>3.62</course>
  <speed>4.18</speed>
  <fix>3d</fix>
</trkpt>
<trkpt lat="40.0726404" lon="-105.2301711">
  <ele>1582.93</ele>
  <time>2026-08-28T17:51:21Z</time>
  <course>4.37</course>
  <speed>3.8662643468857634</speed>
  <fix>3d</fix>
</trkpt>
<trkpt lat="40.0726319" lon="-105.2301715">
  <ele>1583.0</ele>
  <time>2026-08-28T17:51:21Z</time>
  <course>3.62</course>
  <speed>4.18</speed>
  <fix>3d</fix>
</trkpt>
<trkpt lat="40.0726438" lon="-105.2301708">
  <ele>1582.93</ele>
  <time>2026-08-28T17:51:21Z</time>
  <course>4.37</course>
  <speed>3.725922704512266</speed>
  <fix>3d</fix>
</trkpt>
<trkpt lat="40.0726392" lon="-105.2301708">
  <ele>1583.0</ele>
  <time>2026-08-28T17:51:21Z</time>
  <course>3.62</course>
  <speed>3.92</speed>
  <fix>3d</fix>
</trkpt>
<trkpt lat="40.0726471" lon="-105.2301705">
  <ele>1582.94</ele>
  <time>2026-08-28T17:51:21Z</time>
  <course>4.37</course>
  <speed>3.59556671471967</speed>
  <fix>3d</fix>
</trkpt>
<trkpt lat="40.0726392" lon="-105.2301708">
  <ele>1583.0</ele>
  <time>2026-08-28T17:51:21Z</time>
  <course>3.62</course>
  <speed>3.92</speed>
  <fix>3d</fix>
</trkpt>
<trkpt lat="40.0726503" lon="-105.2301702">
  <ele>1582.94</ele>
  <time>2026-08-28T17:51:21Z</time>
  <course>4.38</course>
  <speed>3.4552279230175253</speed>
  <fix>3d</fix>
</trkpt>
<trkpt lat="40.072646" lon="-105.2301703">
  <ele>1583.0</ele>
  <time>2026-08-28T17:51:21Z</time>
  <course>3.63</course>
  <speed>3.65</speed>
  <fix>3d</fix>
</trkpt>
<trkpt lat="40.0726533" lon="-105.23017">
  <ele>1582.94</ele>
  <time>2026-08-28T17:51:21Z</time>
  <course>4.43</course>
  <speed>3.3154486875836278</speed>
  <fix>3d</fix>
</trkpt>
<trkpt lat="40.072646" lon="-105.2301703">
  <ele>1583.0</ele>
  <time>2026-08-28T17:51:21Z</time>
  <course>3.63</course>
  <speed>3.65</speed>
  <fix>3d</fix>
</trkpt>
<trkpt lat="40.0726563" lon="-105.2301697">
  <ele>1582.94</ele>
  <time>2026-08-28T17:51:21Z</time>
  <course>4.48</course>
  <speed>3.1850902655968794</speed>
  <fix>3d</fix>
</trkpt>
<trkpt lat="40.0726523" lon="-105.2301698">
  <ele>1583.0</ele>
  <time>2026-08-28T17:51:21Z</time>
  <course>3.68</course>
  <speed>3.38</speed>
  <fix>3d</fix>
</trkpt>
<trkpt lat="40.0726591" lon="-105.2301695">
  <ele>1582.94</ele>
  <time>2026-08-28T17:51:21Z</time>
  <course>4.56</course>
  <speed>3.055306858565928</speed>
  <fix>3d</fix>
</trkpt>
<trkpt lat="40.0726523" lon="-105.2301698">
  <ele>1583.0</ele>
  <time>2026-08-28T17:51:21Z</time>
  <course>3.68</course>
  <speed>3.38</speed>
  <fix>3d</fix>
</trkpt>
<trkpt lat="40.0726618" lon="-105.2301692">
  <ele>1582.95</ele>
  <time>2026-08-28T17:51:21Z</time>
  <course>4.68</course>
  <speed>2.9255426846997126</speed>
  <fix>3d</fix>
</trkpt>
<trkpt lat="40.0726581" lon="-105.2301693">
  <ele>1583.0</ele>
  <time>2026-08-28T17:51:21Z</time>
  <course>3.83</course>
  <speed>3.12</speed>
  <fix>3d</fix>
</trkpt>
<trkpt lat="40.0726643" lon="-105.230169">
  <ele>1582.95</ele>
  <time>2026-08-28T17:51:21Z</time>
  <course>4.83</course>
  <speed>2.8057797490180874</speed>
  <fix>3d</fix>
</trkpt>
<trkpt lat="40.0726581" lon="-105.2301693">
  <ele>1583.0</ele>
  <time>2026-08-28T17:51:21Z</time>
  <course>3.83</course>
  <speed>3.12</speed>
  <fix>3d</fix>
</trkpt>
<trkpt lat="40.0726668" lon="-105.2301688">
  <ele>1582.95</ele>
  <time>2026-08-28T17:51:21Z</time>
  <course>5.01</course>
  <speed>2.676060537431842</speed>
  <fix>3d</fix>
</trkpt>
<trkpt lat="40.0726581" lon="-105.2301693">
  <ele>1583.0</ele>
  <time>2026-08-28T17:51:21Z</time>
  <course>3.83</course>
  <speed>3.12</speed>
  <fix>3d</fix>
</trkpt>
<trkpt lat="40.0726692" lon="-105.2301685">
  <ele>1582.95</ele>
  <time>2026-08-28T17:51:21Z</time>
  <course>5.22</course>
  <speed>2.5563450471327225</speed>
  <fix>3d</fix>
</trkpt>
<trkpt lat="40.0726636" lon="-105.2301688">
  <ele>1583.0</ele>
  <time>2026-08-28T17:51:21Z</time>
  <course>4.1</course>
  <speed>2.87</speed>
  <fix>3d</fix>
</trkpt>
<trkpt lat="40.0726714" lon="-105.2301683">
  <ele>1582.96</ele>
  <time>2026-08-28T17:51:21Z</time>
  <course>5.46</course>
  <speed>2.446630335788388</speed>
  <fix>3d</fix>
</trkpt>
<trkpt lat="40.0726636" lon="-105.2301688">
  <ele>1583.0</ele>
  <time>2026-08-28T17:51:21Z</time>
  <course>4.1</course>
  <speed>2.87</speed>
  <fix>3d</fix>
</trkpt>
<trkpt lat="40.0726735" lon="-105.230168">
  <ele>1582.96</ele>
  <time>2026-08-28T17:51:22Z</time>
  <course>5.75</course>
  <speed>2.327767170487633</speed>
  <fix>3d</fix>
</trkpt>
<trkpt lat="40.0726685" lon="-105.2301683">
  <ele>1583.0</ele>
  <time>2026-08-28T17:51:22Z</time>
  <course>4.49</course>
  <speed>2.64</speed>
  <fix>3d</fix>
</trkpt>
<trkpt lat="40.0726756" lon="-105.2301678">
  <ele>1582.96</ele>
  <time>2026-08-28T17:51:22Z</time>
  <course>6.09</course>
  <speed>2.2181523843054607</speed>
  <fix>3d</fix>
</trkpt>
<trkpt lat="40.0726685" lon="-105.2301683">
  <ele>1583.0</ele>
  <time>2026-08-28T17:51:22Z</time>
  <course>4.49</course>
  <speed>2.64</speed>
  <fix>3d</fix>
</trkpt>
<trkpt lat="40.0726775" lon="-105.2301675">
  <ele>1582.96</ele>
  <time>2026-08-28T17:51:22Z</time>
  <course>6.5</course>
  <speed>2.1095023109728985</speed>
  <fix>3d</fix>
</trkpt>
<trkpt lat="40.072673" lon="-105.2301678">
  <ele>1583.0</ele>
  <time>2026-08-28T17:51:22Z</time>
  <course>5.04</course>
  <speed>2.41</speed>
  <fix>3d</fix>
</trkpt>
<trkpt lat="40.0726794" lon="-105.2301672">
  <ele>1582.96</ele>
  <time>2026-08-28T17:51:22Z</time>
  <course>6.98</course>
  <speed>2.0010497245196084</speed>
  <fix>3d</fix>
</trkpt>
<trkpt lat="40.072673" lon="-105.2301678">
  <ele>1583.0</ele>
  <time>2026-08-28T17:51:22Z</time>
  <course>5.04</course>
  <speed>2.41</speed>
  <fix>3d</fix>
</trkpt>
<trkpt lat="40.0726811" lon="-105.230167">
  <ele>1582.96</ele>
  <time>2026-08-28T17:51:22Z</time>
  <course>7.57</course>
  <speed>1.902761151589973</speed>
  <fix>3d</fix>
</trkpt>
<trkpt lat="40.0726771" lon="-105.2301673">
  <ele>1583.0</ele>
  <time>2026-08-28T17:51:22Z</time>
  <course>5.79</course>
  <speed>2.2</speed>
  <fix>3d</fix>
</trkpt>
<trkpt lat="40.0726828" lon="-105.2301667">
  <ele>1582.96</ele>
  <time>2026-08-28T17:51:22Z</time>
  <course>8.3</course>
  <speed>1.7947980387776223</speed>
  <fix>3d</fix>
</trkpt>
<trkpt lat="40.0726808" lon="-105.2301668">
  <ele>1583.0</ele>
  <time>2026-08-28T17:51:22Z</time>
  <course>6.88</course>
  <speed>1.99</speed>
  <fix>3d</fix>
</trkpt>
<trkpt lat="40.0726844" lon="-105.2301663">
  <ele>1582.95</ele>
  <time>2026-08-28T17:51:22Z</time>
  <course>9.19</course>
  <speed>1.6984993376507393</speed>
  <fix>3d</fix>
</trkpt>
<trkpt lat="40.0726808" lon="-105.2301668">
  <ele>1583.0</ele>
  <time>2026-08-28T17:51:22Z</time>
  <course>6.88</course>
  <speed>1.99</speed>
  <fix>3d</fix>
</trkpt>
<trkpt lat="40.0726859" lon="-105.230166">
  <ele>1582.95</ele>
  <time>2026-08-28T17:51:22Z</time>
  <course>10.33</course>
  <speed>1.6029036153181513</speed>
  <fix>3d</fix>
</trkpt>
<trkpt lat="40.0726843" lon="-105.2301662">
  <ele>1583.0</ele>
  <time>2026-08-28T17:51:22Z</time>
  <course>8.54</course>
  <speed>1.8</speed>
  <fix>3d</fix>
</trkpt>
<trkpt lat="40.0726873" lon="-105.2301656">
  <ele>1582.95</ele>
  <time>2026-08-28T17:51:22Z</time>
  <course>11.79</course>
  <speed>1.5100993344810134</speed>
  <fix>3d</fix>
</trkpt>
<trkpt lat="40.0726843" lon="-105.2301662">
  <ele>1583.0</ele>
  <time>2026-08-28T17:51:22Z</time>
  <course>8.54</course>
  <speed>1.8</speed>
  <fix>3d</fix>
</trkpt>
<trkpt lat="40.0726886" lon="-105.2301653">
  <ele>1582.95</ele>
  <time>2026-08-28T17:51:22Z</time>
  <course>13.72</course>
  <speed>1.4189080308462563</speed>
  <fix>3d</fix>
</trkpt>
<trkpt lat="40.0726873" lon="-105.2301655">
  <ele>1583.0</ele>
  <time>2026-08-28T17:51:22Z</time>
  <course>11.22</course>
  <speed>1.61</speed>
  <fix>3d</fix>
</trkpt>
<trkpt lat="40.0726899" lon="-105.2301648">
  <ele>1582.95</ele>
  <time>2026-08-28T17:51:22Z</time>
  <course>16.29</course>
  <speed>1.322800060477773</speed>
  <fix>3d</fix>
</trkpt>
<trkpt lat="40.0726873" lon="-105.2301655">
  <ele>1583.0</ele>
  <time>2026-08-28T17:51:22Z</time>
  <course>11.22</course>
  <speed>1.61</speed>
  <fix>3d</fix>
</trkpt>
<trkpt lat="40.072691" lon="-105.2301643">
  <ele>1582.96</ele>
  <time>2026-08-28T17:51:22Z</time>
  <course>18.92</course>
  <speed>1.2525174649480941</speed>
  <fix>3d</fix>
</trkpt>
<trkpt lat="40.0726899" lon="-105.2301647">
  <ele>1583.0</ele>
  <time>2026-08-28T17:51:22Z</time>
  <course>15.46</course>
  <speed>1.43</speed>
  <fix>3d</fix>
</trkpt>
<trkpt lat="40.0726921" lon="-105.2301638">
  <ele>1582.96</ele>
  <time>2026-08-28T17:51:22Z</time>
  <course>19.76</course>
  <speed>1.186802426691149</speed>
  <fix>3d</fix>
</trkpt>
<trkpt lat="40.0726899" lon="-105.2301647">
  <ele>1583.0</ele>
  <time>2026-08-28T17:51:22Z</time>
  <course>15.46</course>
  <speed>1.43</speed>
  <fix>3d</fix>
</trkpt>
<trkpt lat="40.0726931" lon="-105.2301633">
  <ele>1582.96</ele>
  <time>2026-08-28T17:51:22Z</time>
  <course>19.7</course>
  <speed>1.1236102527122116</speed>
  <fix>3d</fix>
</trkpt>
<trkpt lat="40.0726923" lon="-105.2301638">
  <ele>1583.0</ele>
  <time>2026-08-28T17:51:22Z</time>
  <course>18.56</course>
  <speed>1.29</speed>
  <fix>3d</fix>
</trkpt>
<trkpt lat="40.0726941" lon="-105.2301628">
  <ele>1582.96</ele>
  <time>2026-08-28T17:51:22Z</time>
  <course>19.73</course>
  <speed>1.0697663296253066</speed>
  <fix>3d</fix>
</trkpt>
<trkpt lat="40.0726923" lon="-105.2301638">
  <ele>1583.0</ele>
  <time>2026-08-28T17:51:22Z</time>
  <course>18.56</course>
  <speed>1.29</speed>
  <fix>3d</fix>
</trkpt>
<trkpt lat="40.0726951" lon="-105.2301623">
  <ele>1582.96</ele>
  <time>2026-08-28T17:51:22Z</time>
  <course>19.74</course>
  <speed>1.0159232254457027</speed>
  <fix>3d</fix>
</trkpt>
<trkpt lat="40.0726944" lon="-105.2301628">
  <ele>1583.0</ele>
  <time>2026-08-28T17:51:22Z</time>
  <course>18.99</course>
  <speed>1.16</speed>
  <fix>3d</fix>
</trkpt>
<trkpt lat="40.072696" lon="-105.2301619">
  <ele>1582.96</ele>
  <time>2026-08-28T17:51:22Z</time>
  <course>19.75</course>
  <speed>0.9656603957913983</speed>
  <fix>3d</fix>
</trkpt>
<trkpt lat="40.0726944" lon="-105.2301628">
  <ele>1583.0</ele>
  <time>2026-08-28T17:51:22Z</time>
  <course>18.99</course>
  <speed>1.16</speed>
  <fix>3d</fix>
</trkpt>
<trkpt lat="40.0726968" lon="-105.2301615">
  <ele>1582.96</ele>
  <time>2026-08-28T17:51:22Z</time>
  <course>19.76</course>
  <speed>0.9118113840043894</speed>
  <fix>3d</fix>
</trkpt>
<trkpt lat="40.0726963" lon="-105.2301619">
  <ele>1583.0</ele>
  <time>2026-08-28T17:51:22Z</time>
  <course>19.02</course>
  <speed>1.05</speed>
  <fix>3d</fix>
</trkpt>
<trkpt lat="40.0726976" lon="-105.2301611">
  <ele>1582.96</ele>
  <time>2026-08-28T17:51:22Z</time>
  <course>19.77</course>
  <speed>0.8616263691415206</speed>
  <fix>3d</fix>
</trkpt>
<trkpt lat="40.0726963" lon="-105.2301619">
  <ele>1583.0</ele>
  <time>2026-08-28T17:51:22Z</time>
  <course>19.02</course>
  <speed>1.05</speed>
  <fix>3d</fix>
</trkpt>
<trkpt lat="40.0726984" lon="-105.2301607">
  <ele>1582.96</ele>
  <time>2026-08-28T17:51:22Z</time>
  <course>19.78</course>
  <speed>0.8170679286326198</speed>
  <fix>3d</fix>
</trkpt>
<trkpt lat="40.0726963" lon="-105.2301619">
  <ele>1583.0</ele>
  <time>2026-08-28T17:51:22Z</time>
  <course>19.02</course>
  <speed>1.05</speed>
  <fix>3d</fix>
</trkpt>
<trkpt lat="40.0726991" lon="-105.2301604">
  <ele>1582.96</ele>
  <time>2026-08-28T17:51:22Z</time>
  <course>19.79</course>
  <speed>0.7762087348130012</speed>
  <fix>3d</fix>
</trkpt>
<trkpt lat="40.072698" lon="-105.2301612">
  <ele>1583.0</ele>
  <time>2026-08-28T17:51:22Z</time>
  <course>19.03</course>
  <speed>0.95</speed>
  <fix>3d</fix>
</trkpt>
<trkpt lat="40.0726998" lon="-105.23016">
  <ele>1582.96</ele>
  <time>2026-08-28T17:51:22Z</time>
  <course>19.8</course>
  <speed>0.7353910524340094</speed>
  <fix>3d</fix>
</trkpt>
<trkpt lat="40.072698" lon="-105.2301612">
  <ele>1583.0</ele>
  <time>2026-08-28T17:51:22Z</time>
  <course>19.03</course>
  <speed>0.95</speed>
  <fix>3d</fix>
</trkpt>
<trkpt lat="40.0727005" lon="-105.2301597">
  <ele>1582.96</ele>
  <time>2026-08-28T17:51:22Z</time>
  <course>19.81</course>
  <speed>0.7038465741907111</speed>
  <fix>3d</fix>
</trkpt>
<trkpt lat="40.0726995" lon="-105.2301605">
  <ele>1583.0</ele>
  <time>2026-08-28T17:51:22Z</time>
  <course>19.05</course>
  <speed>0.86</speed>
  <fix>3d</fix>
</trkpt>
<trkpt lat="40.0727011" lon="-105.2301594">
  <ele>1582.96</ele>
  <time>2026-08-28T17:51:22Z</time>
  <course>19.82</course>
  <speed>0.6630987860040162</speed>
  <fix>3d</fix>
</trkpt>
<trkpt lat="40.0726995" lon="-105.2301605">
  <ele>1583.0</ele>
  <time>2026-08-28T17:51:22Z</time>
  <course>19.05</course>
  <speed>0.86</speed>
  <fix>3d</fix>
</trkpt>
<trkpt lat="40.0727017" lon="-105.2301591">
  <ele>1582.96</ele>
  <time>2026-08-28T17:51:22Z</time>
  <course>19.83</course>
  <speed>0.6315853069855251</speed>
  <fix>3d</fix>
</trkpt>
<trkpt lat="40.0727009" lon="-105.2301598">
  <ele>1583.0</ele>
  <time>2026-08-28T17:51:22Z</time>
  <course>19.06</course>
  <speed>0.78</speed>
  <fix>3d</fix>
</trkpt>
<trkpt lat="40.0727023" lon="-105.2301589">
  <ele>1582.96</ele>
  <time>2026-08-28T17:51:22Z</time>
  <course>19.83</course>
  <speed>0.6000833275470999</speed>
  <fix>3d</fix>
</trkpt>
<trkpt lat="40.0727021" lon="-105.2301593">
  <ele>1583.0</ele>
  <time>2026-08-28T17:51:22Z</time>
  <course>19.07</course>
  <speed>0.7</speed>
  <fix>3d</fix>
</trkpt>
<trkpt lat="40.0727029" lon="-105.2301586">
  <ele>1582.96</ele>
  <time>2026-08-28T17:51:22Z</time>
  <course>19.84</course>
  <speed>0.56859475903318</speed>
  <fix>3d</fix>
</trkpt>
<trkpt lat="40.0727021" lon="-105.2301593">
  <ele>1583.0</ele>
  <time>2026-08-28T17:51:22Z</time>
  <course>19.07</course>
  <speed>0.7</speed>
  <fix>3d</fix>
</trkpt>
<trkpt lat="40.0727034" lon="-105.2301583">
  <ele>1582.96</ele>
  <time>2026-08-28T17:51:22Z</time>
  <course>19.85</course>
  <speed>0.5371219600798314</speed>
  <fix>3d</fix>
</trkpt>
<trkpt lat="40.0727033" lon="-105.2301588">
  <ele>1583.0</ele>
  <time>2026-08-28T17:51:22Z</time>
  <course>19.07</course>
  <speed>0.64</speed>
  <fix>3d</fix>
</trkpt>
<trkpt lat="40.0727039" lon="-105.2301581">
  <ele>1582.96</ele>
  <time>2026-08-28T17:51:22Z</time>
  <course>19.85</course>
  <speed>0.51478150704935</speed>
  <fix>3d</fix>
</trkpt>
<trkpt lat="40.0727033" lon="-105.2301588">
  <ele>1583.0</ele>
  <time>2026-08-28T17:51:22Z</time>
  <course>19.07</course>
  <speed>0.64</speed>
  <fix>3d</fix>
</trkpt>
<trkpt lat="40.0727043" lon="-105.2301579">
  <ele>1582.96</ele>
  <time>2026-08-28T17:51:22Z</time>
  <course>19.86</course>
  <speed>0.4833218389437829</speed>
  <fix>3d</fix>
</trkpt>
<trkpt lat="40.0727044" lon="-105.2301583">
  <ele>1583.0</ele>
  <time>2026-08-28T17:51:22Z</time>
  <course>19.08</course>
  <speed>0.58</speed>
  <fix>3d</fix>
</trkpt>
<trkpt lat="40.0727048" lon="-105.2301577">
  <ele>1582.96</ele>
  <time>2026-08-28T17:51:22Z</time>
  <course>19.86</course>
  <speed>0.4609772228646444</speed>
  <fix>3d</fix>
</trkpt>
<trkpt lat="40.0727044" lon="-105.2301583">
  <ele>1583.0</ele>
  <time>2026-08-28T17:51:22Z</time>
  <course>19.08</course>
  <speed>0.58</speed>
  <fix>3d</fix>
</trkpt>
<trkpt lat="40.0727052" lon="-105.2301575">
  <ele>1582.96</ele>
  <time>2026-08-28T17:51:22Z</time>
  <course>19.86</course>
  <speed>0.4338202392696773</speed>
  <fix>3d</fix>
</trkpt>
<trkpt lat="40.0727053" lon="-105.2301579">
  <ele>1583.0</ele>
  <time>2026-08-28T17:51:22Z</time>
  <course>19.08</course>
  <speed>0.52</speed>
  <fix>3d</fix>
</trkpt>
<trkpt lat="40.0727057" lon="-105.2301573">
  <ele>1582.96</ele>
  <time>2026-08-28T17:51:22Z</time>
  <course>19.87</course>
  <speed>0.4114608122288197</speed>
  <fix>3d</fix>
</trkpt>
<trkpt lat="40.0727053" lon="-105.2301579">
  <ele>1583.0</ele>
  <time>2026-08-28T17:51:22Z</time>
  <course>19.08</course>
  <speed>0.52</speed>
  <fix>3d</fix>
</trkpt>
<trkpt lat="40.0727061" lon="-105.2301571">
  <ele>1582.96</ele>
  <time>2026-08-28T17:51:22Z</time>
  <course>19.87</course>
  <speed>0.38910152916687435</speed>
  <fix>3d</fix>
</trkpt>
<trkpt lat="40.0727062" lon="-105.2301575">
  <ele>1583.0</ele>
  <time>2026-08-28T17:51:22Z</time>
  <course>19.08</course>
  <speed>0.47</speed>
  <fix>3d</fix>
</trkpt>
<trkpt lat="40.0727064" lon="-105.2301569">
  <ele>1582.96</ele>
  <time>2026-08-28T17:51:22Z</time>
  <course>19.87</course>
  <speed>0.38013155617496425</speed>
  <fix>3d</fix>
</trkpt>
<trkpt lat="40.0727062" lon="-105.2301575">
  <ele>1583.0</ele>
  <time>2026-08-28T17:51:22Z</time>
  <course>19.08</course>
  <speed>0.47</speed>
  <fix>3d</fix>
</trkpt>
<trkpt lat="40.0727068" lon="-105.2301567">
  <ele>1582.96</ele>
  <time>2026-08-28T17:51:22Z</time>
  <course>19.87</course>
  <speed>0.35777087639996635</speed>
  <fix>3d</fix>
</trkpt>
<trkpt lat="40.0727069" lon="-105.2301571">
  <ele>1583.0</ele>
  <time>2026-08-28T17:51:22Z</time>
  <course>19.08</course>
  <speed>0.42</speed>
  <fix>3d</fix>
</trkpt>
<trkpt lat="40.0727081" lon="-105.2301561">
  <ele>1582.94</ele>
  <time>2026-08-28T17:51:22Z</time>
  <course>19.88</course>
  <speed>0.295296461204668</speed>
  <fix>3d</fix>
</trkpt>
<trkpt lat="40.0727076" lon="-105.2301568">
  <ele>1583.0</ele>
  <time>2026-08-28T17:51:22Z</time>
  <course>19.08</course>
  <speed>0.38</speed>
  <fix>3d</fix>
</trkpt>
<trkpt lat="40.0727089" lon="-105.2301557">
  <ele>1582.93</ele>
  <time>2026-08-28T17:51:22Z</time>
  <course>19.88</course>
  <speed>0.25553864678361277</speed>
  <fix>3d</fix>
</trkpt>
<trkpt lat="40.0727088" lon="-105.2301563">
  <ele>1583.0</ele>
  <time>2026-08-28T17:51:22Z</time>
  <course>19.08</course>
  <speed>0.31</speed>
  <fix>3d</fix>
</trkpt>
<trkpt lat="40.0727091" lon="-105.2301556">
  <ele>1582.93</ele>
  <time>2026-08-28T17:51:22Z</time>
  <course>19.88</course>
  <speed>0.24186773244895649</speed>
  <fix>3d</fix>
</trkpt>
<trkpt lat="40.0727088" lon="-105.2301563">
  <ele>1583.0</ele>
  <time>2026-08-28T17:51:22Z</time>
  <course>19.08</course>
  <speed>0.31</speed>
  <fix>3d</fix>
</trkpt>
<trkpt lat="40.0727094" lon="-105.2301555">
  <ele>1582.93</ele>
  <time>2026-08-28T17:51:22Z</time>
  <course>19.88</course>
  <speed>0.23323807579381203</speed>
  <fix>3d</fix>
</trkpt>
<trkpt lat="40.0727093" lon="-105.230156">
  <ele>1583.0</ele>
  <time>2026-08-28T17:51:22Z</time>
  <course>19.09</course>
  <speed>0.28</speed>
  <fix>3d</fix>
</trkpt>
<trkpt lat="40.0727096" lon="-105.2301554">
  <ele>1582.92</ele>
  <time>2026-08-28T17:51:22Z</time>
  <course>19.88</course>
  <speed>0.21633307652783937</speed>
  <fix>3d</fix>
</trkpt>
<trkpt lat="40.0727098" lon="-105.2301559">
  <ele>1583.0</ele>
  <time>2026-08-28T17:51:22Z</time>
  <course>19.09</course>
  <speed>0.26</speed>
  <fix>3d</fix>
</trkpt>
<trkpt lat="40.0727098" lon="-105.2301553">
  <ele>1582.92</ele>
  <time>2026-08-28T17:51:22Z</time>
  <course>19.88</course>
  <speed>0.2109502310972899</speed>
  <fix>3d</fix>
</trkpt>
<trkpt lat="40.0727098" lon="-105.2301559">
  <ele>1583.0</ele>
  <time>2026-08-28T17:51:22Z</time>
  <course>19.09</course>
  <speed>0.26</speed>
  <fix>3d</fix>
</trkpt>
<trkpt lat="40.0727102" lon="-105.2301551">
  <ele>1582.91</ele>
  <time>2026-08-28T17:51:22Z</time>
  <course>19.88</course>
  <speed>0.18867962264113206</speed>
  <fix>3d</fix>
</trkpt>
<trkpt lat="40.0727102" lon="-105.2301556">
  <ele>1583.0</ele>
  <time>2026-08-28T17:51:22Z</time>
  <course>19.09</course>
  <speed>0.23</speed>
  <fix>3d</fix>
</trkpt>
<trkpt lat="40.0727104" lon="-105.230155">
  <ele>1582.91</ele>
  <time>2026-08-28T17:51:22Z</time>
  <course>19.88</course>
  <speed>0.18027756377319945</speed>
  <fix>3d</fix>
</trkpt>
<trkpt lat="40.0727105" lon="-105.2301555">
  <ele>1583.0</ele>
  <time>2026-08-28T17:51:22Z</time>
  <course>19.09</course>
  <speed>0.21</speed>
  <fix>3d</fix>
</trkpt>
<trkpt lat="40.0727106" lon="-105.230155">
  <ele>1582.91</ele>
  <time>2026-08-28T17:51:22Z</time>
  <course>19.88</course>
  <speed>0.17204650534085253</speed>
  <fix>3d</fix>
</trkpt>
<trkpt lat="40.0727105" lon="-105.2301555">
  <ele>1583.0</ele>
  <time>2026-08-28T17:51:22Z</time>
  <course>19.09</course>
  <speed>0.21</speed>
  <fix>3d</fix>
</trkpt>
<trkpt lat="40.0727107" lon="-105.2301549">
  <ele>1582.9</ele>
  <time>2026-08-28T17:51:22Z</time>
  <course>19.87</course>
  <speed>0.16401219466856726</speed>
  <fix>3d</fix>
</trkpt>
<trkpt lat="40.0727109" lon="-105.2301554">
  <ele>1583.0</ele>
  <time>2026-08-28T17:51:22Z</time>
  <course>19.09</course>
  <speed>0.19</speed>
  <fix>3d</fix>
</trkpt>
<trkpt lat="40.0727109" lon="-105.2301548">
  <ele>1582.91</ele>
  <time>2026-08-28T17:51:22Z</time>
  <course>19.87</course>
  <speed>0.15811388300841897</speed>
  <fix>3d</fix>
</trkpt>
<trkpt lat="40.0727109" lon="-105.2301554">
  <ele>1583.0</ele>
  <time>2026-08-28T17:51:22Z</time>
  <course>19.09</course>
  <speed>0.19</speed>
  <fix>3d</fix>
</trkpt>
<trkpt lat="40.072711" lon="-105.2301548">
  <ele>1582.91</ele>
  <time>2026-08-28T17:51:22Z</time>
  <course>19.87</course>
  <speed>0.15</speed>
  <fix>3d</fix>
</trkpt>
<trkpt lat="40.0727112" lon="-105.2301552">
  <ele>1583.0</ele>
  <time>2026-08-28T17:51:22Z</time>
  <course>19.09</course>
  <speed>0.17</speed>
  <fix>3d</fix>
</trkpt>
<trkpt lat="40.0727112" lon="-105.2301547">
  <ele>1582.91</ele>
  <time>2026-08-28T17:51:22Z</time>
  <course>19.87</course>
  <speed>0.14212670403551894</speed>
  <fix>3d</fix>
</trkpt>
<trkpt lat="40.0727112" lon="-105.2301552">
  <ele>1583.0</ele>
  <time>2026-08-28T17:51:22Z</time>
  <course>19.09</course>
  <speed>0.17</speed>
  <fix>3d</fix>
</trkpt>
<trkpt lat="40.0727113" lon="-105.2301546">
  <ele>1582.92</ele>
  <time>2026-08-28T17:51:22Z</time>
  <course>19.87</course>
  <speed>0.13601470508735444</speed>
  <fix>3d</fix>
</trkpt>
<trkpt lat="40.0727115" lon="-105.2301551">
  <ele>1583.0</ele>
  <time>2026-08-28T17:51:22Z</time>
  <course>19.09</course>
  <speed>0.15</speed>
  <fix>3d</fix>
</trkpt>
<trkpt lat="40.0727115" lon="-105.2301546">
  <ele>1582.92</ele>
  <time>2026-08-28T17:51:22Z</time>
  <course>19.86</course>
  <speed>0.12806248474865697</speed>
  <fix>3d</fix>
</trkpt>
<trkpt lat="40.0727115" lon="-105.2301551">
  <ele>1583.0</ele>
  <time>2026-08-28T17:51:22Z</time>
  <course>19.09</course>
  <speed>0.15</speed>
  <fix>3d</fix>
</trkpt>
<trkpt lat="40.0727116" lon="-105.2301545">
  <ele>1582.93</ele>
  <time>2026-08-28T17:51:22Z</time>
  <course>19.86</course>
  <speed>0.12041594578792296</speed>
  <fix>3d</fix>
</trkpt>
<trkpt lat="40.0727118" lon="-105.230155">
  <ele>1583.0</ele>
  <time>2026-08-28T17:51:22Z</time>
  <course>19.09</course>
  <speed>0.14</speed>
  <fix>3d</fix>
</trkpt>
<trkpt lat="40.0727117" lon="-105.2301545">
  <ele>1582.93</ele>
  <time>2026-08-28T17:51:22Z</time>
  <course>19.86</course>
  <speed>0.12041594578792296</speed>
  <fix>3d</fix>
</trkpt>
<trkpt lat="40.0727118" lon="-105.230155">
  <ele>1583.0</ele>
  <time>2026-08-28T17:51:22Z</time>
  <course>19.09</course>
  <speed>0.14</speed>
  <fix>3d</fix>
</trkpt>
<trkpt lat="40.0727118" lon="-105.2301544">
  <ele>1582.94</ele>
  <time>2026-08-28T17:51:22Z</time>
  <course>19.85</course>
  <speed>0.1131370849898476</speed>
  <fix>3d</fix>
</trkpt>
<trkpt lat="40.0727118" lon="-105.230155">
  <ele>1583.0</ele>
  <time>2026-08-28T17:51:22Z</time>
  <course>19.09</course>
  <speed>0.14</speed>
  <fix>3d</fix>
</trkpt>
<trkpt lat="40.0727119" lon="-105.2301544">
  <ele>1582.94</ele>
  <time>2026-08-28T17:51:22Z</time>
  <course>19.85</course>
  <speed>0.1063014581273465</speed>
  <fix>3d</fix>
</trkpt>
<trkpt lat="40.072712" lon="-105.2301549">
  <ele>1583.0</ele>
  <time>2026-08-28T17:51:22Z</time>
  <course>19.09</course>
  <speed>0.12</speed>
  <fix>3d</fix>
</trkpt>
<trkpt lat="40.072712" lon="-105.2301544">
  <ele>1582.95</ele>
  <time>2026-08-28T17:51:22Z</time>
  <course>19.85</course>
  <speed>0.09899494936611665</speed>
  <fix>3d</fix>
</trkpt>
<trkpt lat="40.072712" lon="-105.2301549">
  <ele>1583.0</ele>
  <time>2026-08-28T17:51:22Z</time>
  <course>19.09</course>
  <speed>0.12</speed>
  <fix>3d</fix>
</trkpt>
<trkpt lat="40.0727121" lon="-105.2301543">
  <ele>1582.95</ele>
  <time>2026-08-28T17:51:22Z</time>
  <course>19.85</course>
  <speed>0.09899494936611665</speed>
  <fix>3d</fix>
</trkpt>
<trkpt lat="40.0727123" lon="-105.2301548">
  <ele>1583.0</ele>
  <time>2026-08-28T17:51:22Z</time>
  <course>19.09</course>
  <speed>0.11</speed>
  <fix>3d</fix>
</trkpt>
<trkpt lat="40.0727122" lon="-105.2301543">
  <ele>1582.95</ele>
  <time>2026-08-28T17:51:22Z</time>
  <course>19.84</course>
  <speed>0.09899494936611665</speed>
  <fix>3d</fix>
</trkpt>
<trkpt lat="40.0727123" lon="-105.2301548">
  <ele>1583.0</ele>
  <time>2026-08-28T17:51:22Z</time>
  <course>19.09</course>
  <speed>0.11</speed>
  <fix>3d</fix>
</trkpt>
<trkpt lat="40.0727123" lon="-105.2301543">
  <ele>1582.96</ele>
  <time>2026-08-28T17:51:22Z</time>
  <course>19.84</course>
  <speed>0.0848528137423857</speed>
  <fix>3d</fix>
</trkpt>
<trkpt lat="40.0727124" lon="-105.2301547">
  <ele>1583.0</ele>
  <time>2026-08-28T17:51:22Z</time>
  <course>19.1</course>
  <speed>0.1</speed>
  <fix>3d</fix>
</trkpt>
<trkpt lat="40.0727124" lon="-105.2301542">
  <ele>1582.96</ele>
  <time>2026-08-28T17:51:22Z</time>
  <course>19.84</course>
  <speed>0.0848528137423857</speed>
  <fix>3d</fix>
</trkpt>
<trkpt lat="40.0727124" lon="-105.2301547">
  <ele>1583.0</ele>
  <time>2026-08-28T17:51:22Z</time>
  <course>19.1</course>
  <speed>0.1</speed>
  <fix>3d</fix>
</trkpt>
<trkpt lat="40.0727125" lon="-105.2301542">
  <ele>1582.96</ele>
  <time>2026-08-28T17:51:22Z</time>
  <course>19.83</course>
  <speed>0.07810249675906654</speed>
  <fix>3d</fix>
</trkpt>
<trkpt lat="40.0727126" lon="-105.2301546">
  <ele>1583.0</ele>
  <time>2026-08-28T17:51:22Z</time>
  <course>19.1</course>
  <speed>0.09</speed>
  <fix>3d</fix>
</trkpt>
<trkpt lat="40.0727126" lon="-105.2301542">
  <ele>1582.97</ele>
  <time>2026-08-28T17:51:22Z</time>
  <course>19.83</course>
  <speed>0.07810249675906654</speed>
  <fix>3d</fix>
</trkpt>
<trkpt lat="40.0727127" lon="-105.2301545">
  <ele>1583.0</ele>
  <time>2026-08-28T17:51:22Z</time>
  <course>19.1</course>
  <speed>0.08</speed>
  <fix>3d</fix>
</trkpt>
<trkpt lat="40.0727126" lon="-105.2301541">
  <ele>1582.98</ele>
  <time>2026-08-28T17:51:22Z</time>
  <course>19.83</course>
  <speed>0.07810249675906654</speed>
  <fix>3d</fix>
</trkpt>
<trkpt lat="40.0727127" lon="-105.2301545">
  <ele>1583.0</ele>
  <time>2026-08-28T17:51:22Z</time>
  <course>19.1</course>
  <speed>0.08</speed>
  <fix>3d</fix>
</trkpt>
<trkpt lat="40.0727127" lon="-105.2301541">
  <ele>1582.98</ele>
  <time>2026-08-28T17:51:22Z</time>
  <course>19.83</course>
  <speed>0.07810249675906654</speed>
  <fix>3d</fix>
</trkpt>
<trkpt lat="40.0727129" lon="-105.2301545">
  <ele>1583.0</ele>
  <time>2026-08-28T17:51:22Z</time>
  <course>19.1</course>
  <speed>0.07</speed>
  <fix>3d</fix>
</trkpt>
<trkpt lat="40.0727128" lon="-105.2301541">
  <ele>1582.98</ele>
  <time>2026-08-28T17:51:22Z</time>
  <course>19.82</course>
  <speed>0.06403124237432849</speed>
  <fix>3d</fix>
</trkpt>
<trkpt lat="40.0727129" lon="-105.2301545">
  <ele>1583.0</ele>
  <time>2026-08-28T17:51:22Z</time>
  <course>19.1</course>
  <speed>0.07</speed>
  <fix>3d</fix>
</trkpt>
<trkpt lat="40.0727128" lon="-105.2301541">
  <ele>1582.99</ele>
  <time>2026-08-28T17:51:22Z</time>
  <course>19.82</course>
  <speed>0.06403124237432849</speed>
  <fix>3d</fix>
</trkpt>
<trkpt lat="40.072713" lon="-105.2301544">
  <ele>1583.0</ele>
  <time>2026-08-28T17:51:22Z</time>
  <course>19.1</course>
  <speed>0.07</speed>
  <fix>3d</fix>
</trkpt>
<trkpt lat="40.0727129" lon="-105.230154">
  <ele>1582.99</ele>
  <time>2026-08-28T17:51:22Z</time>
  <course>19.82</course>
  <speed>0.06403124237432849</speed>
  <fix>3d</fix>
</trkpt>
<trkpt lat="40.072713" lon="-105.2301544">
  <ele>1583.0</ele>
  <time>2026-08-28T17:51:22Z</time>
  <course>19.1</course>
  <speed>0.07</speed>
  <fix>3d</fix>
</trkpt>
<trkpt lat="40.072713" lon="-105.230154">
  <ele>1583.0</ele>
  <time>2026-08-28T17:51:22Z</time>
  <course>19.82</course>
  <speed>0.05830951894845301</speed>
  <fix>3d</fix>
</trkpt>
<trkpt lat="40.0727131" lon="-105.2301543">
  <ele>1583.0</ele>
  <time>2026-08-28T17:51:22Z</time>
  <course>19.11</course>
  <speed>0.06</speed>
  <fix>3d</fix>
</trkpt>
<trkpt lat="40.072713" lon="-105.230154">
  <ele>1583.0</ele>
  <time>2026-08-28T17:51:22Z</time>
  <course>19.81</course>
  <speed>0.05830951894845301</speed>
  <fix>3d</fix>
</trkpt>
<trkpt lat="40.0727131" lon="-105.2301543">
  <ele>1583.0</ele>
  <time>2026-08-28T17:51:22Z</time>
  <course>19.11</course>
  <speed>0.06</speed>
  <fix>3d</fix>
</trkpt>
<trkpt lat="40.0727131" lon="-105.230154">
  <ele>1583.01</ele>
  <time>2026-08-28T17:51:22Z</time>
  <course>19.81</course>
  <speed>0.05830951894845301</speed>
  <fix>3d</fix>
</trkpt>
<trkpt lat="40.0727132" lon="-105.2301543">
  <ele>1583.0</ele>
  <time>2026-08-28T17:51:22Z</time>
  <course>19.11</course>
  <speed>0.05</speed>
  <fix>3d</fix>
</trkpt>
<trkpt lat="40.0727131" lon="-105.230154">
  <ele>1583.01</ele>
  <time>2026-08-28T17:51:22Z</time>
  <course>19.81</course>
  <speed>0.05830951894845301</speed>
  <fix>3d</fix>
</trkpt>
<trkpt lat="40.0727131" lon="-105.230154">
  <ele>1583.01</ele>
  <time>2026-08-28T17:51:22Z</time>
  <course>19.81</course>
  <speed>0.05830951894845301</speed>
  <fix>3d</fix>
</trkpt>
<trkpt lat="40.0727132" lon="-105.2301543">
  <ele>1583.0</ele>
  <time>2026-08-28T17:51:22Z</time>
  <course>19.11</course>
  <speed>0.05</speed>
  <fix>3d</fix>
</trkpt>
<trkpt lat="40.0727132" lon="-105.2301539">
  <ele>1583.02</ele>
  <time>2026-08-28T17:51:22Z</time>
  <course>19.8</course>
  <speed>0.05830951894845301</speed>
  <fix>3d</fix>
</trkpt>
<trkpt lat="40.0727133" lon="-105.2301543">
  <ele>1583.0</ele>
  <time>2026-08-28T17:51:22Z</time>
  <course>19.11</course>
  <speed>0.05</speed>
  <fix>3d</fix>
</trkpt>
<trkpt lat="40.0727132" lon="-105.2301539">
  <ele>1583.02</ele>
  <time>2026-08-28T17:51:22Z</time>
  <course>19.77</course>
  <speed>0.05830951894845301</speed>
  <fix>3d</fix>
</trkpt>
<trkpt lat="40.0727133" lon="-105.2301543">
  <ele>1583.0</ele>
  <time>2026-08-28T17:51:22Z</time>
  <course>19.11</course>
  <speed>0.05</speed>
  <fix>3d</fix>
</trkpt>
<trkpt lat="40.0727133" lon="-105.2301539">
  <ele>1583.03</ele>
  <time>2026-08-28T17:51:22Z</time>
  <course>19.71</course>
  <speed>0.05830951894845301</speed>
  <fix>3d</fix>
</trkpt>
<trkpt lat="40.0727134" lon="-105.2301543">
  <ele>1583.0</ele>
  <time>2026-08-28T17:51:22Z</time>
  <course>19.06</course>
  <speed>0.05</speed>
  <fix>3d</fix>
</trkpt>
<trkpt lat="40.0727133" lon="-105.2301539">
  <ele>1583.03</ele>
  <time>2026-08-28T17:51:22Z</time>
  <course>19.61</course>
  <speed>0.05830951894845301</speed>
  <fix>3d</fix>
</trkpt>
<trkpt lat="40.0727134" lon="-105.2301543">
  <ele>1583.0</ele>
  <time>2026-08-28T17:51:22Z</time>
  <course>19.06</course>
  <speed>0.05</speed>
  <fix>3d</fix>
</trkpt>
<trkpt lat="40.0727134" lon="-105.2301539">
  <ele>1583.03</ele>
  <time>2026-08-28T17:51:22Z</time>
  <course>19.48</course>
  <speed>0.06403124237432849</speed>
  <fix>3d</fix>
</trkpt>
<trkpt lat="40.0727134" lon="-105.2301543">
  <ele>1583.0</ele>
  <time>2026-08-28T17:51:22Z</time>
  <course>19.06</course>
  <speed>0.05</speed>
  <fix>3d</fix>
</trkpt>
<trkpt lat="40.0727134" lon="-105.2301538">
  <ele>1583.03</ele>
  <time>2026-08-28T17:51:22Z</time>
  <course>19.32</course>
  <speed>0.07071067811865475</speed>
  <fix>3d</fix>
</trkpt>
<trkpt lat="40.0727135" lon="-105.2301542">
  <ele>1583.0</ele>
  <time>2026-08-28T17:51:22Z</time>
  <course>18.9</course>
  <speed>0.05</speed>
  <fix>3d</fix>
</trkpt>
<trkpt lat="40.0727135" lon="-105.2301538">
  <ele>1583.03</ele>
  <time>2026-08-28T17:51:22Z</time>
  <course>19.12</course>
  <speed>0.0848528137423857</speed>
  <fix>3d</fix>
</trkpt>
<trkpt lat="40.0727135" lon="-105.2301542">
  <ele>1583.0</ele>
  <time>2026-08-28T17:51:22Z</time>
  <course>18.9</course>
  <speed>0.05</speed>
  <fix>3d</fix>
</trkpt>
<trkpt lat="40.0727136" lon="-105.2301538">
  <ele>1583.04</ele>
  <time>2026-08-28T17:51:22Z</time>
  <course>18.87</course>
  <speed>0.11401754250991379</speed>
  <fix>3d</fix>
</trkpt>
<trkpt lat="40.0727136" lon="-105.2301542">
  <ele>1583.0</ele>
  <time>2026-08-28T17:51:22Z</time>
  <course>18.57</course>
  <speed>0.07</speed>
  <fix>3d</fix>
</trkpt>
<trkpt lat="40.0727137" lon="-105.2301537">
  <ele>1583.04</ele>
  <time>2026-08-28T17:51:22Z</time>
  <course>18.54</course>
  <speed>0.14422205101855956</speed>
  <fix>3d</fix>
</trkpt>
<trkpt lat="40.0727136" lon="-105.2301542">
  <ele>1583.0</ele>
  <time>2026-08-28T17:51:22Z</time>
  <course>18.57</course>
  <speed>0.07</speed>
  <fix>3d</fix>
</trkpt>
<trkpt lat="40.0727139" lon="-105.2301537">
  <ele>1583.04</ele>
  <time>2026-08-28T17:51:22Z</time>
  <course>18.11</course>
  <speed>0.19235384061671343</speed>
  <fix>3d</fix>
</trkpt>
<trkpt lat="40.0727138" lon="-105.2301541">
  <ele>1583.0</ele>
  <time>2026-08-28T17:51:22Z</time>
  <course>18.06</course>
  <speed>0.12</speed>
  <fix>3d</fix>
</trkpt>
<trkpt lat="40.0727141" lon="-105.2301536">
  <ele>1583.05</ele>
  <time>2026-08-28T17:51:22Z</time>
  <course>17.54</course>
  <speed>0.24166091947189144</speed>
  <fix>3d</fix>
</trkpt>
<trkpt lat="40.0727141" lon="-105.230154">
  <ele>1583.0</ele>
  <time>2026-08-28T17:51:22Z</time>
  <course>17.21</course>
  <speed>0.2</speed>
  <fix>3d</fix>
</trkpt>
<trkpt lat="40.0727143" lon="-105.2301535">
  <ele>1583.05</ele>
  <time>2026-08-28T17:51:22Z</time>
  <course>16.76</course>
  <speed>0.3138470965295043</speed>
  <fix>3d</fix>
</trkpt>
<trkpt lat="40.0727141" lon="-105.230154">
  <ele>1583.0</ele>
  <time>2026-08-28T17:51:22Z</time>
  <course>17.21</course>
  <speed>0.2</speed>
  <fix>3d</fix>
</trkpt>
<trkpt lat="40.0727146" lon="-105.2301534">
  <ele>1583.05</ele>
  <time>2026-08-28T17:51:22Z</time>
  <course>15.74</course>
  <speed>0.3827531841800928</speed>
  <fix>3d</fix>
</trkpt>
<trkpt lat="40.0727145" lon="-105.2301537">
  <ele>1583.0</ele>
  <time>2026-08-28T17:51:22Z</time>
  <course>15.74</course>
  <speed>0.32</speed>
  <fix>3d</fix>
</trkpt>
<trkpt lat="40.072715" lon="-105.2301533">
  <ele>1583.05</ele>
  <time>2026-08-28T17:51:22Z</time>
  <course>14.5</course>
  <speed>0.4743416490252569</speed>
  <fix>3d</fix>
</trkpt>
<trkpt lat="40.0727145" lon="-105.2301537">
  <ele>1583.0</ele>
  <time>2026-08-28T17:51:22Z</time>
  <course>15.74</course>
  <speed>0.32</speed>
  <fix>3d</fix>
</trkpt>
<trkpt lat="40.0727155" lon="-105.2301531">
  <ele>1583.05</ele>
  <time>2026-08-28T17:51:22Z</time>
  <course>13.03</course>
  <speed>0.5728001396647874</speed>
  <fix>3d</fix>
</trkpt>
<trkpt lat="40.0727152" lon="-105.2301535">
  <ele>1583.0</ele>
  <time>2026-08-28T17:51:22Z</time>
  <course>13.42</course>
  <speed>0.49</speed>
  <fix>3d</fix>
</trkpt>
<trkpt lat="40.0727161" lon="-105.230153">
  <ele>1583.05</ele>
  <time>2026-08-28T17:51:22Z</time>
  <course>11.39</course>
  <speed>0.6791170738539859</speed>
  <fix>3d</fix>
</trkpt>
<trkpt lat="40.0727152" lon="-105.2301535">
  <ele>1583.0</ele>
  <time>2026-08-28T17:51:22Z</time>
  <course>13.42</course>
  <speed>0.49</speed>
  <fix>3d</fix>
</trkpt>
<trkpt lat="40.0727168" lon="-105.2301528">
  <ele>1583.05</ele>
  <time>2026-08-28T17:51:22Z</time>
  <course>9.73</course>
  <speed>0.7864477096412705</speed>
  <fix>3d</fix>
</trkpt>
<trkpt lat="40.0727162" lon="-105.2301532">
  <ele>1583.0</ele>
  <time>2026-08-28T17:51:22Z</time>
  <course>10.4</course>
  <speed>0.69</speed>
  <fix>3d</fix>
</trkpt>
<trkpt lat="40.0727176" lon="-105.2301526">
  <ele>1583.05</ele>
  <time>2026-08-28T17:51:22Z</time>
  <course>8.15</course>
  <speed>0.902551937563706</speed>
  <fix>3d</fix>
</trkpt>
<trkpt lat="40.0727162" lon="-105.2301532">
  <ele>1583.0</ele>
  <time>2026-08-28T17:51:22Z</time>
  <course>10.4</course>
  <speed>0.69</speed>
  <fix>3d</fix>
</trkpt>
<trkpt lat="40.0727185" lon="-105.2301525">
  <ele>1583.05</ele>
  <time>2026-08-28T17:51:22Z</time>
  <course>6.71</course>
  <speed>1.0295630140987</speed>
  <fix>3d</fix>
</trkpt>
<trkpt lat="40.0727177" lon="-105.230153">
  <ele>1583.0</ele>
  <time>2026-08-28T17:51:22Z</time>
  <course>7.32</course>
  <speed>0.91</speed>
  <fix>3d</fix>
</trkpt>
<trkpt lat="40.0727195" lon="-105.2301524">
  <ele>1583.05</ele>
  <time>2026-08-28T17:51:22Z</time>
  <course>5.51</course>
  <speed>1.1573245007343447</speed>
  <fix>3d</fix>
</trkpt>
<trkpt lat="40.0727177" lon="-105.230153">
  <ele>1583.0</ele>
  <time>2026-08-28T17:51:22Z</time>
  <course>7.32</course>
  <speed>0.91</speed>
  <fix>3d</fix>
</trkpt>
<trkpt lat="40.0727206" lon="-105.2301522">
  <ele>1583.06</ele>
  <time>2026-08-28T17:51:22Z</time>
  <course>4.52</course>
  <speed>1.2756566936288147</speed>
  <fix>3d</fix>
</trkpt>
<trkpt lat="40.0727195" lon="-105.2301527">
  <ele>1583.0</ele>
  <time>2026-08-28T17:51:22Z</time>
  <course>4.8</course>
  <speed>1.16</speed>
  <fix>3d</fix>
</trkpt>
<trkpt lat="40.0727219" lon="-105.2301521">
  <ele>1583.06</ele>
  <time>2026-08-28T17:51:22Z</time>
  <course>3.69</course>
  <speed>1.4142842712835353</speed>
  <fix>3d</fix>
</trkpt>
<trkpt lat="40.0727195" lon="-105.2301527">
  <ele>1583.0</ele>
  <time>2026-08-28T17:51:22Z</time>
  <course>4.8</course>
  <speed>1.16</speed>
  <fix>3d</fix>
</trkpt>
<trkpt lat="40.0727233" lon="-105.2301521">
  <ele>1583.07</ele>
  <time>2026-08-28T17:51:22Z</time>
  <course>3.0</course>
  <speed>1.543243337908834</speed>
  <fix>3d</fix>
</trkpt>
<trkpt lat="40.0727218" lon="-105.2301525">
  <ele>1583.0</ele>
  <time>2026-08-28T17:51:22Z</time>
  <course>3.01</course>
  <speed>1.41</speed>
  <fix>3d</fix>
</trkpt>
<trkpt lat="40.0727248" lon="-105.230152">
  <ele>1583.07</ele>
  <time>2026-08-28T17:51:22Z</time>
  <course>2.42</course>
  <speed>1.672423391369542</speed>
  <fix>3d</fix>
</trkpt>
<trkpt lat="40.0727218" lon="-105.2301525">
  <ele>1583.0</ele>
  <time>2026-08-28T17:51:22Z</time>
  <course>3.01</course>
  <speed>1.41</speed>
  <fix>3d</fix>
</trkpt>
<trkpt lat="40.0727264" lon="-105.2301519">
  <ele>1583.08</ele>
  <time>2026-08-28T17:51:22Z</time>
  <course>1.94</course>
  <speed>1.8017769007288333</speed>
  <fix>3d</fix>
</trkpt>
<trkpt lat="40.0727218" lon="-105.2301525">
  <ele>1583.0</ele>
  <time>2026-08-28T17:51:22Z</time>
  <course>3.01</course>
  <speed>1.41</speed>
  <fix>3d</fix>
</trkpt>
<trkpt lat="40.0727281" lon="-105.2301519">
  <ele>1583.09</ele>
  <time>2026-08-28T17:51:22Z</time>
  <course>1.53</course>
  <speed>1.9212756179163883</speed>
  <fix>3d</fix>
</trkpt>
<trkpt lat="40.0727246" lon="-105.2301524">
  <ele>1583.0</ele>
  <time>2026-08-28T17:51:22Z</time>
  <course>1.75</course>
  <speed>1.66</speed>
  <fix>3d</fix>
</trkpt>
<trkpt lat="40.0727299" lon="-105.2301519">
  <ele>1583.09</ele>
  <time>2026-08-28T17:51:22Z</time>
  <course>1.18</course>
  <speed>2.050877860819605</speed>
  <fix>3d</fix>
</trkpt>
<trkpt lat="40.0727246" lon="-105.2301524">
  <ele>1583.0</ele>
  <time>2026-08-28T17:51:22Z</time>
  <course>1.75</course>
  <speed>1.66</speed>
  <fix>3d</fix>
</trkpt>
<trkpt lat="40.0727318" lon="-105.2301518">
  <ele>1583.1</ele>
  <time>2026-08-28T17:51:22Z</time>
  <course>0.9</course>
  <speed>2.1705759604307793</speed>
  <fix>3d</fix>
</trkpt>
<trkpt lat="40.0727278" lon="-105.2301523">
  <ele>1583.0</ele>
  <time>2026-08-28T17:51:22Z</time>
  <course>0.87</course>
  <speed>1.92</speed>
  <fix>3d</fix>
</trkpt>
<trkpt lat="40.0727338" lon="-105.2301518">
  <ele>1583.1</ele>
  <time>2026-08-28T17:51:22Z</time>
  <course>0.65</course>
  <speed>2.300347799790284</speed>
  <fix>3d</fix>
</trkpt>
<trkpt lat="40.0727278" lon="-105.2301523">
  <ele>1583.0</ele>
  <time>2026-08-28T17:51:22Z</time>
  <course>0.87</course>
  <speed>1.92</speed>
  <fix>3d</fix>
</trkpt>
<trkpt lat="40.072736" lon="-105.2301518">
  <ele>1583.1</ele>
  <time>2026-08-28T17:51:22Z</time>
  <course>0.45</course>
  <speed>2.420185943269649</speed>
  <fix>3d</fix>
</trkpt>
<trkpt lat="40.0727315" lon="-105.2301523">
  <ele>1583.0</ele>
  <time>2026-08-28T17:51:22Z</time>
  <course>0.25</course>
  <speed>2.16</speed>
  <fix>3d</fix>
</trkpt>
<trkpt lat="40.0727382" lon="-105.2301519">
  <ele>1583.1</ele>
  <time>2026-08-28T17:51:22Z</time>
  <course>0.28</course>
  <speed>2.530177859360879</speed>
  <fix>3d</fix>
</trkpt>
<trkpt lat="40.0727315" lon="-105.2301523">
  <ele>1583.0</ele>
  <time>2026-08-28T17:51:22Z</time>
  <course>0.25</course>
  <speed>2.16</speed>
  <fix>3d</fix>
</trkpt>
<trkpt lat="40.0727406" lon="-105.2301519">
  <ele>1583.11</ele>
  <time>2026-08-28T17:51:22Z</time>
  <course>0.13</course>
  <speed>2.650075470623431</speed>
  <fix>3d</fix>
</trkpt>
<trkpt lat="40.0727356" lon="-105.2301523">
  <ele>1583.0</ele>
  <time>2026-08-28T17:51:22Z</time>
  <course>359.81</course>
  <speed>2.41</speed>
  <fix>3d</fix>
</trkpt>
<trkpt lat="40.072743" lon="-105.2301519">
  <ele>1583.11</ele>
  <time>2026-08-28T17:51:22Z</time>
  <course>0.02</course>
  <speed>2.760018115882575</speed>
  <fix>3d</fix>
</trkpt>
<trkpt lat="40.0727402" lon="-105.2301523">
  <ele>1583.0</ele>
  <time>2026-08-28T17:51:22Z</time>
  <course>359.51</course>
  <speed>2.64</speed>
  <fix>3d</fix>
</trkpt>
<trkpt lat="40.0727456" lon="-105.230152">
  <ele>1583.11</ele>
  <time>2026-08-28T17:51:22Z</time>
  <course>359.94</course>
  <speed>2.880017361058784</speed>
  <fix>3d</fix>
</trkpt>
<trkpt lat="40.0727402" lon="-105.2301523">
  <ele>1583.0</ele>
  <time>2026-08-28T17:51:22Z</time>
  <course>359.51</course>
  <speed>2.64</speed>
  <fix>3d</fix>
</trkpt>
<trkpt lat="40.0727482" lon="-105.230152">
  <ele>1583.12</ele>
  <time>2026-08-28T17:51:22Z</time>
  <course>359.85</course>
  <speed>2.99</speed>
  <fix>3d</fix>
</trkpt>
<trkpt lat="40.0727451" lon="-105.2301523">
  <ele>1583.0</ele>
  <time>2026-08-28T17:51:22Z</time>
  <course>359.31</course>
  <speed>2.86</speed>
  <fix>3d</fix>
</trkpt>
<trkpt lat="40.072751" lon="-105.230152">
  <ele>1583.12</ele>
  <time>2026-08-28T17:51:22Z</time>
  <course>359.8</course>
  <speed>3.1</speed>
  <fix>3d</fix>
</trkpt>
<trkpt lat="40.0727451" lon="-105.2301523">
  <ele>1583.0</ele>
  <time>2026-08-28T17:51:22Z</time>
  <course>359.31</course>
  <speed>2.86</speed>
  <fix>3d</fix>
</trkpt>
<trkpt lat="40.0727539" lon="-105.230152">
  <ele>1583.12</ele>
  <time>2026-08-28T17:51:22Z</time>
  <course>359.76</course>
  <speed>3.2</speed>
  <fix>3d</fix>
</trkpt>
<trkpt lat="40.0727505" lon="-105.2301523">
  <ele>1583.0</ele>
  <time>2026-08-28T17:51:22Z</time>
  <course>359.19</course>
  <speed>3.08</speed>
  <fix>3d</fix>
</trkpt>
<trkpt lat="40.0727569" lon="-105.2301521">
  <ele>1583.12</ele>
  <time>2026-08-28T17:51:22Z</time>
  <course>359.71</course>
  <speed>3.31</speed>
  <fix>3d</fix>
</trkpt>
<trkpt lat="40.0727505" lon="-105.2301523">
  <ele>1583.0</ele>
  <time>2026-08-28T17:51:22Z</time>
  <course>359.19</course>
  <speed>3.08</speed>
  <fix>3d</fix>
</trkpt>
<trkpt lat="40.0727599" lon="-105.2301521">
  <ele>1583.12</ele>
  <time>2026-08-28T17:51:22Z</time>
  <course>359.7</course>
  <speed>3.41</speed>
  <fix>3d</fix>
</trkpt>
<trkpt lat="40.0727562" lon="-105.2301524">
  <ele>1583.0</ele>
  <time>2026-08-28T17:51:22Z</time>
  <course>359.12</course>
  <speed>3.29</speed>
  <fix>3d</fix>
</trkpt>
<trkpt lat="40.0727631" lon="-105.2301522">
  <ele>1583.12</ele>
  <time>2026-08-28T17:51:22Z</time>
  <course>359.7</course>
  <speed>3.5100142449853395</speed>
  <fix>3d</fix>
</trkpt>
<trkpt lat="40.0727562" lon="-105.2301524">
  <ele>1583.0</ele>
  <time>2026-08-28T17:51:22Z</time>
  <course>359.12</course>
  <speed>3.29</speed>
  <fix>3d</fix>
</trkpt>
<trkpt lat="40.0727663" lon="-105.2301522">
  <ele>1583.12</ele>
  <time>2026-08-28T17:51:22Z</time>
  <course>359.69</course>
  <speed>3.6100138503889427</speed>
  <fix>3d</fix>
</trkpt>
<trkpt lat="40.0727623" lon="-105.2301526">
  <ele>1583.0</ele>
  <time>2026-08-28T17:51:22Z</time>
  <course>359.1</course>
  <speed>3.49</speed>
  <fix>3d</fix>
</trkpt>
<trkpt lat="40.0727697" lon="-105.2301523">
  <ele>1583.12</ele>
  <time>2026-08-28T17:51:22Z</time>
  <course>359.69</course>
  <speed>3.71001347706447</speed>
  <fix>3d</fix>
</trkpt>
<trkpt lat="40.0727623" lon="-105.2301526">
  <ele>1583.0</ele>
  <time>2026-08-28T17:51:22Z</time>
  <course>359.1</course>
  <speed>3.49</speed>
  <fix>3d</fix>
</trkpt>
<trkpt lat="40.0727731" lon="-105.2301524">
  <ele>1583.12</ele>
  <time>2026-08-28T17:51:22Z</time>
  <course>359.68</course>
  <speed>3.8100131233369785</speed>
  <fix>3d</fix>
</trkpt>
<trkpt lat="40.0727687" lon="-105.2301527">
  <ele>1583.0</ele>
  <time>2026-08-28T17:51:22Z</time>
  <course>359.1</course>
  <speed>3.68</speed>
  <fix>3d</fix>
</trkpt>
<trkpt lat="40.0727766" lon="-105.2301524">
  <ele>1583.12</ele>
  <time>2026-08-28T17:51:22Z</time>
  <course>359.68</course>
  <speed>3.910012787702874</speed>
  <fix>3d</fix>
</trkpt>
<trkpt lat="40.0727687" lon="-105.2301527">
  <ele>1583.0</ele>
  <time>2026-08-28T17:51:22Z</time>
  <course>359.1</course>
  <speed>3.68</speed>
  <fix>3d</fix>
</trkpt>
<trkpt lat="40.0727802" lon="-105.2301525">
  <ele>1583.12</ele>
  <time>2026-08-28T17:51:22Z</time>
  <course>359.67</course>
  <speed>4.010012468808545</speed>
  <fix>3d</fix>
</trkpt>
<trkpt lat="40.0727755" lon="-105.2301528">
  <ele>1583.0</ele>
  <time>2026-08-28T17:51:22Z</time>
  <course>359.1</course>
  <speed>3.88</speed>
  <fix>3d</fix>
</trkpt>
<trkpt lat="40.0727839" lon="-105.2301526">
  <ele>1583.12</ele>
  <time>2026-08-28T17:51:22Z</time>
  <course>359.67</course>
  <speed>4.100048780197621</speed>
  <fix>3d</fix>
</trkpt>
<trkpt lat="40.0727755" lon="-105.2301528">
  <ele>1583.0</ele>
  <time>2026-08-28T17:51:22Z</time>
  <course>359.1</course>
  <speed>3.88</speed>
  <fix>3d</fix>
</trkpt>
<trkpt lat="40.0727876" lon="-105.2301526">
  <ele>1583.12</ele>
  <time>2026-08-28T17:51:22Z</time>
  <course>359.67</course>
  <speed>4.200047618777673</speed>
  <fix>3d</fix>
</trkpt>
<trkpt lat="40.0727755" lon="-105.2301528">
  <ele>1583.0</ele>
  <time>2026-08-28T17:51:22Z</time>
  <course>359.1</course>
  <speed>3.88</speed>
  <fix>3d</fix>
</trkpt>
<trkpt lat="40.0727914" lon="-105.2301527">
  <ele>1583.12</ele>
  <time>2026-08-28T17:51:22Z</time>
  <course>359.66</course>
  <speed>4.290046619793309</speed>
  <fix>3d</fix>
</trkpt>
<trkpt lat="40.0727827" lon="-105.230153">
  <ele>1583.0</ele>
  <time>2026-08-28T17:51:22Z</time>
  <course>359.1</course>
  <speed>4.07</speed>
  <fix>3d</fix>
</trkpt>
<trkpt lat="40.0727953" lon="-105.2301528">
  <ele>1583.12</ele>
  <time>2026-08-28T17:51:22Z</time>
  <course>359.66</course>
  <speed>4.380045661862442</speed>
  <fix>3d</fix>
</trkpt>
<trkpt lat="40.0727827" lon="-105.230153">
  <ele>1583.0</ele>
  <time>2026-08-28T17:51:22Z</time>
  <course>359.1</course>
  <speed>4.07</speed>
  <fix>3d</fix>
</trkpt>
<trkpt lat="40.0727992" lon="-105.2301529">
  <ele>1583.12</ele>
  <time>2026-08-28T17:51:22Z</time>
  <course>359.66</course>
  <speed>4.470044742505381</speed>
  <fix>3d</fix>
</trkpt>
<trkpt lat="40.0727902" lon="-105.2301531">
  <ele>1583.0</ele>
  <time>2026-08-28T17:51:22Z</time>
  <course>359.1</course>
  <speed>4.25</speed>
  <fix>3d</fix>
</trkpt>
<trkpt lat="40.0728033" lon="-105.2301529">
  <ele>1583.12</ele>
  <time>2026-08-28T17:51:22Z</time>
  <course>359.65</course>
  <speed>4.550043955831636</speed>
  <fix>3d</fix>
</trkpt>
<trkpt lat="40.0727902" lon="-105.2301531">
  <ele>1583.0</ele>
  <time>2026-08-28T17:51:22Z</time>
  <course>359.1</course>
  <speed>4.25</speed>
  <fix>3d</fix>
</trkpt>
<trkpt lat="40.0728074" lon="-105.230153">
  <ele>1583.12</ele>
  <time>2026-08-28T17:51:22Z</time>
  <course>359.65</course>
  <speed>4.620097401570664</speed>
  <fix>3d</fix>
</trkpt>
<trkpt lat="40.0727979" lon="-105.2301532">
  <ele>1583.0</ele>
  <time>2026-08-28T17:51:22Z</time>
  <course>359.1</course>
  <speed>4.43</speed>
  <fix>3d</fix>
</trkpt>
<trkpt lat="40.0728115" lon="-105.2301531">
  <ele>1583.12</ele>
  <time>2026-08-28T17:51:22Z</time>
  <course>359.65</course>
  <speed>4.690095947845844</speed>
  <fix>3d</fix>
</trkpt>
<trkpt lat="40.0728061" lon="-105.2301535">
  <ele>1583.0</ele>
  <time>2026-08-28T17:51:22Z</time>
  <course>359.1</course>
  <speed>4.59</speed>
  <fix>3d</fix>
</trkpt>
<trkpt lat="40.0728158" lon="-105.2301532">
  <ele>1583.12</ele>
  <time>2026-08-28T17:51:22Z</time>
  <course>359.65</course>
  <speed>4.760094536876342</speed>
  <fix>3d</fix>
</trkpt>
<trkpt lat="40.0728061" lon="-105.2301535">
  <ele>1583.0</ele>
  <time>2026-08-28T17:51:22Z</time>
  <course>359.1</course>
  <speed>4.59</speed>
  <fix>3d</fix>
</trkpt>
<trkpt lat="40.0728201" lon="-105.2301533">
  <ele>1583.12</ele>
  <time>2026-08-28T17:51:22Z</time>
  <course>359.64</course>
  <speed>4.820093360091691</speed>
  <fix>3d</fix>
</trkpt>
<trkpt lat="40.0728145" lon="-105.2301536">
  <ele>1583.0</ele>
  <time>2026-08-28T17:51:22Z</time>
  <course>359.1</course>
  <speed>4.73</speed>
  <fix>3d</fix>
</trkpt>
<trkpt lat="40.0728244" lon="-105.2301534">
  <ele>1583.12</ele>
  <time>2026-08-28T17:51:22Z</time>
  <course>359.64</course>
  <speed>4.870092401587469</speed>
  <fix>3d</fix>
</trkpt>
<trkpt lat="40.0728145" lon="-105.2301536">
  <ele>1583.0</ele>
  <time>2026-08-28T17:51:22Z</time>
  <course>359.1</course>
  <speed>4.73</speed>
  <fix>3d</fix>
</trkpt>
<trkpt lat="40.0728288" lon="-105.2301535">
  <ele>1583.12</ele>
  <time>2026-08-28T17:51:22Z</time>
  <course>359.64</course>
  <speed>4.9100916488391535</speed>
  <fix>3d</fix>
</trkpt>
<trkpt lat="40.0728231" lon="-105.2301537">
  <ele>1583.0</ele>
  <time>2026-08-28T17:51:22Z</time>
  <course>359.1</course>
  <speed>4.84</speed>
  <fix>3d</fix>
</trkpt>
<trkpt lat="40.0728333" lon="-105.2301536">
  <ele>1583.12</ele>
  <time>2026-08-28T17:51:22Z</time>
  <course>359.63</course>
  <speed>4.95016161352334</speed>
  <fix>3d</fix>
</trkpt>
<trkpt lat="40.0728231" lon="-105.2301537">
  <ele>1583.0</ele>
  <time>2026-08-28T17:51:22Z</time>
  <course>359.1</course>
  <speed>4.84</speed>
  <fix>3d</fix>
</trkpt>
<trkpt lat="40.0728378" lon="-105.2301536">
  <ele>1583.12</ele>
  <time>2026-08-28T17:51:22Z</time>
  <course>359.63</course>
  <speed>4.980160639979397</speed>
  <fix>3d</fix>
</trkpt>
<trkpt lat="40.0728319" lon="-105.230154">
  <ele>1583.0</ele>
  <time>2026-08-28T17:51:22Z</time>
  <course>359.1</course>
  <speed>4.93</speed>
  <fix>3d</fix>
</trkpt>
<trkpt lat="40.0728423" lon="-105.2301537">
  <ele>1583.12</ele>
  <time>2026-08-28T17:51:22Z</time>
  <course>359.63</course>
  <speed>5.0101596780941025</speed>
  <fix>3d</fix>
</trkpt>
<trkpt lat="40.0728319" lon="-105.230154">
  <ele>1583.0</ele>
  <time>2026-08-28T17:51:22Z</time>
  <course>359.1</course>
  <speed>4.93</speed>
  <fix>3d</fix>
</trkpt>
<trkpt lat="40.0728469" lon="-105.2301538">
  <ele>1583.12</ele>
  <time>2026-08-28T17:51:22Z</time>
  <course>359.63</course>
  <speed>5.030159043211258</speed>
  <fix>3d</fix>
</trkpt>
<trkpt lat="40.0728408" lon="-105.2301541">
  <ele>1583.0</ele>
  <time>2026-08-28T17:51:22Z</time>
  <course>359.1</course>
  <speed>4.98</speed>
  <fix>3d</fix>
</trkpt>
<trkpt lat="40.0728514" lon="-105.2301539">
  <ele>1583.12</ele>
  <time>2026-08-28T17:51:22Z</time>
  <course>359.63</course>
  <speed>5.0401587276592785</speed>
  <fix>3d</fix>
</trkpt>
<trkpt lat="40.0728408" lon="-105.2301541">
  <ele>1583.0</ele>
  <time>2026-08-28T17:51:22Z</time>
  <course>359.1</course>
  <speed>4.98</speed>
  <fix>3d</fix>
</trkpt>
<trkpt lat="40.0728559" lon="-105.230154">
  <ele>1583.12</ele>
  <time>2026-08-28T17:51:22Z</time>
  <course>359.63</course>
  <speed>5.050158413356951</speed>
  <fix>3d</fix>
</trkpt>
<trkpt lat="40.0728498" lon="-105.2301544">
  <ele>1583.0</ele>
  <time>2026-08-28T17:51:22Z</time>
  <course>359.1</course>
  <speed>5.02</speed>
  <fix>3d</fix>
</trkpt>
<trkpt lat="40.0728605" lon="-105.2301541">
  <ele>1583.12</ele>
  <time>2026-08-28T17:51:22Z</time>
  <course>359.63</course>
  <speed>5.050158413356951</speed>
  <fix>3d</fix>
</trkpt>
<trkpt lat="40.0728498" lon="-105.2301544">
  <ele>1583.0</ele>
  <time>2026-08-28T17:51:22Z</time>
  <course>359.1</course>
  <speed>5.02</speed>
  <fix>3d</fix>
</trkpt>
<trkpt lat="40.072865" lon="-105.2301542">
  <ele>1583.11</ele>
  <time>2026-08-28T17:51:22Z</time>
  <course>359.63</course>
  <speed>5.050158413356951</speed>
  <fix>3d</fix>
</trkpt>
<trkpt lat="40.0728588" lon="-105.2301545">
  <ele>1583.0</ele>
  <time>2026-08-28T17:51:22Z</time>
  <course>359.1</course>
  <speed>5.03</speed>
  <fix>3d</fix>
</trkpt>
<trkpt lat="40.0728696" lon="-105.2301543">
  <ele>1583.11</ele>
  <time>2026-08-28T17:51:22Z</time>
  <course>359.64</course>
  <speed>5.050158413356951</speed>
  <fix>3d</fix>
</trkpt>
<trkpt lat="40.0728588" lon="-105.2301545">
  <ele>1583.0</ele>
  <time>2026-08-28T17:51:22Z</time>
  <course>359.1</course>
  <speed>5.03</speed>
  <fix>3d</fix>
</trkpt>
<trkpt lat="40.0728741" lon="-105.2301544">
  <ele>1583.11</ele>
  <time>2026-08-28T17:51:22Z</time>
  <course>359.66</course>
  <speed>5.0401587276592785</speed>
  <fix>3d</fix>
</trkpt>
<trkpt lat="40.0728588" lon="-105.2301545">
  <ele>1583.0</ele>
  <time>2026-08-28T17:51:22Z</time>
  <course>359.1</course>
  <speed>5.03</speed>
  <fix>3d</fix>
</trkpt>
<trkpt lat="40.0728786" lon="-105.2301545">
  <ele>1583.1</ele>
  <time>2026-08-28T17:51:22Z</time>
  <course>359.69</course>
  <speed>5.030159043211258</speed>
  <fix>3d</fix>
</trkpt>
<trkpt lat="40.0728679" lon="-105.2301547">
  <ele>1583.0</ele>
  <time>2026-08-28T17:51:22Z</time>
  <course>359.12</course>
  <speed>5.03</speed>
  <fix>3d</fix>
</trkpt>
<trkpt lat="40.0728831" lon="-105.2301546">
  <ele>1583.1</ele>
  <time>2026-08-28T17:51:22Z</time>
  <course>359.73</course>
  <speed>5.020159360020357</speed>
  <fix>3d</fix>
</trkpt>
<trkpt lat="40.0728679" lon="-105.2301547">
  <ele>1583.0</ele>
  <time>2026-08-28T17:51:22Z</time>
  <course>359.12</course>
  <speed>5.03</speed>
  <fix>3d</fix>
</trkpt>
<trkpt lat="40.0728875" lon="-105.2301547">
  <ele>1583.1</ele>
  <time>2026-08-28T17:51:22Z</time>
  <course>359.74</course>
  <speed>5.0101596780941025</speed>
  <fix>3d</fix>
</trkpt>
<trkpt lat="40.072877" lon="-105.2301549">
  <ele>1583.0</ele>
  <time>2026-08-28T17:51:22Z</time>
  <course>359.16</course>
  <speed>5.01</speed>
  <fix>3d</fix>
</trkpt>
<trkpt lat="40.072892" lon="-105.2301548">
  <ele>1583.09</ele>
  <time>2026-08-28T17:51:22Z</time>
  <course>359.77</course>
  <speed>4.990160318065944</speed>
  <fix>3d</fix>
</trkpt>
<trkpt lat="40.072877" lon="-105.2301549">
  <ele>1583.0</ele>
  <time>2026-08-28T17:51:22Z</time>
  <course>359.16</course>
  <speed>5.01</speed>
  <fix>3d</fix>
</trkpt>
<trkpt lat="40.0728964" lon="-105.2301549">
  <ele>1583.09</ele>
  <time>2026-08-28T17:51:22Z</time>
  <course>359.82</course>
  <speed>4.980090360626</speed>
  <fix>3d</fix>
</trkpt>
<trkpt lat="40.0728859" lon="-105.230155">
  <ele>1583.0</ele>
  <time>2026-08-28T17:51:22Z</time>
  <course>359.22</course>
  <speed>5.0</speed>
  <fix>3d</fix>
</trkpt>
<trkpt lat="40.0729009" lon="-105.2301549">
  <ele>1583.09</ele>
  <time>2026-08-28T17:51:22Z</time>
  <course>359.85</course>
  <speed>4.960090724976712</speed>
  <fix>3d</fix>
</trkpt>
<trkpt lat="40.0728949" lon="-105.2301552">
  <ele>1583.0</ele>
  <time>2026-08-28T17:51:22Z</time>
  <course>359.27</course>
  <speed>4.98</speed>
  <fix>3d</fix>
</trkpt>
<trkpt lat="40.0729053" lon="-105.230155">
  <ele>1583.09</ele>
  <time>2026-08-28T17:51:22Z</time>
  <course>359.85</course>
  <speed>4.95009090825613</speed>
  <fix>3d</fix>
</trkpt>
<trkpt lat="40.0728949" lon="-105.2301552">
  <ele>1583.0</ele>
  <time>2026-08-28T17:51:22Z</time>
  <course>359.27</course>
  <speed>4.98</speed>
  <fix>3d</fix>
</trkpt>
<trkpt lat="40.0729097" lon="-105.2301551">
  <ele>1583.09</ele>
  <time>2026-08-28T17:51:22Z</time>
  <course>359.87</course>
  <speed>4.9100916488391535</speed>
  <fix>3d</fix>
</trkpt>
<trkpt lat="40.0729038" lon="-105.2301554">
  <ele>1583.0</ele>
  <time>2026-08-28T17:51:22Z</time>
  <course>359.31</course>
  <speed>4.94</speed>
  <fix>3d</fix>
</trkpt>
<trkpt lat="40.0729141" lon="-105.2301552">
  <ele>1583.09</ele>
  <time>2026-08-28T17:51:22Z</time>
  <course>359.88</course>
  <speed>4.860092591710574</speed>
  <fix>3d</fix>
</trkpt>
<trkpt lat="40.0729038" lon="-105.2301554">
  <ele>1583.0</ele>
  <time>2026-08-28T17:51:22Z</time>
  <course>359.31</course>
  <speed>4.94</speed>
  <fix>3d</fix>
</trkpt>
<trkpt lat="40.0729184" lon="-105.2301552">
  <ele>1583.09</ele>
  <time>2026-08-28T17:51:22Z</time>
  <course>359.94</course>
  <speed>4.800093749084491</speed>
  <fix>3d</fix>
</trkpt>
<trkpt lat="40.0729126" lon="-105.2301555">
  <ele>1583.0</ele>
  <time>2026-08-28T17:51:22Z</time>
  <course>359.35</course>
  <speed>4.86</speed>
  <fix>3d</fix>
</trkpt>
<trkpt lat="40.0729227" lon="-105.2301553">
  <ele>1583.1</ele>
  <time>2026-08-28T17:51:22Z</time>
  <course>359.97</course>
  <speed>4.720095338020197</speed>
  <fix>3d</fix>
</trkpt>
<trkpt lat="40.0729126" lon="-105.2301555">
  <ele>1583.0</ele>
  <time>2026-08-28T17:51:22Z</time>
  <course>359.35</course>
  <speed>4.86</speed>
  <fix>3d</fix>
</trkpt>
<trkpt lat="40.0729269" lon="-105.2301554">
  <ele>1583.1</ele>
  <time>2026-08-28T17:51:22Z</time>
  <course>0.01</course>
  <speed>4.630043196342773</speed>
  <fix>3d</fix>
</trkpt>
<trkpt lat="40.0729213" lon="-105.2301556">
  <ele>1583.0</ele>
  <time>2026-08-28T17:51:22Z</time>
  <course>359.42</course>
  <speed>4.73</speed>
  <fix>3d</fix>
</trkpt>
<trkpt lat="40.072931" lon="-105.2301554">
  <ele>1583.1</ele>
  <time>2026-08-28T17:51:22Z</time>
  <course>0.06</course>
  <speed>4.53004414989523</speed>
  <fix>3d</fix>
</trkpt>
<trkpt lat="40.0729213" lon="-105.2301556">
  <ele>1583.0</ele>
  <time>2026-08-28T17:51:22Z</time>
  <course>359.42</course>
  <speed>4.73</speed>
  <fix>3d</fix>
</trkpt>
<trkpt lat="40.0729351" lon="-105.2301555">
  <ele>1583.1</ele>
  <time>2026-08-28T17:51:22Z</time>
  <course>0.13</course>
  <speed>4.430011286667337</speed>
  <fix>3d</fix>
</trkpt>
<trkpt lat="40.0729296" lon="-105.2301557">
  <ele>1583.0</ele>
  <time>2026-08-28T17:51:22Z</time>
  <course>359.52</course>
  <speed>4.55</speed>
  <fix>3d</fix>
</trkpt>
<trkpt lat="40.072939" lon="-105.2301555">
  <ele>1583.1</ele>
  <time>2026-08-28T17:51:22Z</time>
  <course>0.19</course>
  <speed>4.310011600912461</speed>
  <fix>3d</fix>
</trkpt>
<trkpt lat="40.0729296" lon="-105.2301557">
  <ele>1583.0</ele>
  <time>2026-08-28T17:51:22Z</time>
  <course>359.52</course>
  <speed>4.55</speed>
  <fix>3d</fix>
</trkpt>
<trkpt lat="40.0729429" lon="-105.2301556">
  <ele>1583.11</ele>
  <time>2026-08-28T17:51:22Z</time>
  <course>0.25</course>
  <speed>4.190011933157232</speed>
  <fix>3d</fix>
</trkpt>
<trkpt lat="40.0729376" lon="-105.2301557">
  <ele>1583.0</ele>
  <time>2026-08-28T17:51:22Z</time>
  <course>359.63</course>
  <speed>4.33</speed>
  <fix>3d</fix>
</trkpt>
<trkpt lat="40.0729466" lon="-105.2301556">
  <ele>1583.11</ele>
  <time>2026-08-28T17:51:22Z</time>
  <course>0.32</course>
  <speed>4.07</speed>
  <fix>3d</fix>
</trkpt>
<trkpt lat="40.0729376" lon="-105.2301557">
  <ele>1583.0</ele>
  <time>2026-08-28T17:51:22Z</time>
  <course>359.63</course>
  <speed>4.33</speed>
  <fix>3d</fix>
</trkpt>
<trkpt lat="40.0729502" lon="-105.2301556">
  <ele>1583.11</ele>
  <time>2026-08-28T17:51:22Z</time>
  <course>0.37</course>
  <speed>3.94</speed>
  <fix>3d</fix>
</trkpt>
<trkpt lat="40.0729452" lon="-105.2301558">
  <ele>1583.0</ele>
  <time>2026-08-28T17:51:22Z</time>
  <course>359.74</course>
  <speed>4.09</speed>
  <fix>3d</fix>
</trkpt>
<trkpt lat="40.0729536" lon="-105.2301557">
  <ele>1583.11</ele>
  <time>2026-08-28T17:51:22Z</time>
  <course>0.43</course>
  <speed>3.8</speed>
  <fix>3d</fix>
</trkpt>
<trkpt lat="40.0729452" lon="-105.2301558">
  <ele>1583.0</ele>
  <time>2026-08-28T17:51:22Z</time>
  <course>359.74</course>
  <speed>4.09</speed>
  <fix>3d</fix>
</trkpt>
<trkpt lat="40.072957" lon="-105.2301557">
  <ele>1583.11</ele>
  <time>2026-08-28T17:51:22Z</time>
  <course>0.49</course>
  <speed>3.67</speed>
  <fix>3d</fix>
</trkpt>
<trkpt lat="40.0729452" lon="-105.2301558">
  <ele>1583.0</ele>
  <time>2026-08-28T17:51:22Z</time>
  <course>359.74</course>
  <speed>4.09</speed>
  <fix>3d</fix>
</trkpt>
<trkpt lat="40.0729602" lon="-105.2301557">
  <ele>1583.11</ele>
  <time>2026-08-28T17:51:22Z</time>
  <course>0.54</course>
  <speed>3.53</speed>
  <fix>3d</fix>
</trkpt>
<trkpt lat="40.0729523" lon="-105.2301559">
  <ele>1583.0</ele>
  <time>2026-08-28T17:51:22Z</time>
  <course>359.85</course>
  <speed>3.83</speed>
  <fix>3d</fix>
</trkpt>
<trkpt lat="40.0729633" lon="-105.2301557">
  <ele>1583.11</ele>
  <time>2026-08-28T17:51:22Z</time>
  <course>0.59</course>
  <speed>3.4</speed>
  <fix>3d</fix>
</trkpt>
<trkpt lat="40.0729523" lon="-105.2301559">
  <ele>1583.0</ele>
  <time>2026-08-28T17:51:22Z</time>
  <course>359.85</course>
  <speed>3.83</speed>
  <fix>3d</fix>
</trkpt>
<trkpt lat="40.0729663" lon="-105.2301557">
  <ele>1583.11</ele>
  <time>2026-08-28T17:51:22Z</time>
  <course>0.64</course>
  <speed>3.26</speed>
  <fix>3d</fix>
</trkpt>
<trkpt lat="40.072959" lon="-105.2301559">
  <ele>1583.0</ele>
  <time>2026-08-28T17:51:22Z</time>
  <course>359.95</course>
  <speed>3.57</speed>
  <fix>3d</fix>
</trkpt>
<trkpt lat="40.0729691" lon="-105.2301557">
  <ele>1583.11</ele>
  <time>2026-08-28T17:51:22Z</time>
  <course>0.69</course>
  <speed>3.13</speed>
  <fix>3d</fix>
</trkpt>
<trkpt lat="40.072959" lon="-105.2301559">
  <ele>1583.0</ele>
  <time>2026-08-28T17:51:22Z</time>
  <course>359.95</course>
  <speed>3.57</speed>
  <fix>3d</fix>
</trkpt>
<trkpt lat="40.0729718" lon="-105.2301557">
  <ele>1583.11</ele>
  <time>2026-08-28T17:51:22Z</time>
  <course>0.74</course>
  <speed>3.0</speed>
  <fix>3d</fix>
</trkpt>
<trkpt lat="40.0729652" lon="-105.2301559">
  <ele>1583.0</ele>
  <time>2026-08-28T17:51:22Z</time>
  <course>0.05</course>
  <speed>3.31</speed>
  <fix>3d</fix>
</trkpt>
<trkpt lat="40.0729744" lon="-105.2301557">
  <ele>1583.11</ele>
  <time>2026-08-28T17:51:22Z</time>
  <course>0.78</course>
  <speed>2.89</speed>
  <fix>3d</fix>
</trkpt>
<trkpt lat="40.0729652" lon="-105.2301559">
  <ele>1583.0</ele>
  <time>2026-08-28T17:51:22Z</time>
  <course>0.05</course>
  <speed>3.31</speed>
  <fix>3d</fix>
</trkpt>
<trkpt lat="40.072977" lon="-105.2301557">
  <ele>1583.11</ele>
  <time>2026-08-28T17:51:22Z</time>
  <course>0.83</course>
  <speed>2.79</speed>
  <fix>3d</fix>
</trkpt>
<trkpt lat="40.0729709" lon="-105.2301559">
  <ele>1583.0</ele>
  <time>2026-08-28T17:51:22Z</time>
  <course>0.13</course>
  <speed>3.06</speed>
  <fix>3d</fix>
</trkpt>
<trkpt lat="40.0729794" lon="-105.2301557">
  <ele>1583.1</ele>
  <time>2026-08-28T17:51:22Z</time>
  <course>0.86</course>
  <speed>2.710018450121696</speed>
  <fix>3d</fix>
</trkpt>
<trkpt lat="40.0729762" lon="-105.2301559">
  <ele>1583.0</ele>
  <time>2026-08-28T17:51:22Z</time>
  <course>0.21</course>
  <speed>2.86</speed>
  <fix>3d</fix>
</trkpt>
<trkpt lat="40.0729818" lon="-105.2301557">
  <ele>1583.1</ele>
  <time>2026-08-28T17:51:22Z</time>
  <course>0.89</course>
  <speed>2.650018867857359</speed>
  <fix>3d</fix>
</trkpt>
<trkpt lat="40.0729762" lon="-105.2301559">
  <ele>1583.0</ele>
  <time>2026-08-28T17:51:22Z</time>
  <course>0.21</course>
  <speed>2.86</speed>
  <fix>3d</fix>
</trkpt>
<trkpt lat="40.0729842" lon="-105.2301557">
  <ele>1583.1</ele>
  <time>2026-08-28T17:51:22Z</time>
  <course>0.89</course>
  <speed>2.6000192306981114</speed>
  <fix>3d</fix>
</trkpt>
<trkpt lat="40.0729812" lon="-105.2301559">
  <ele>1583.0</ele>
  <time>2026-08-28T17:51:22Z</time>
  <course>0.26</course>
  <speed>2.72</speed>
  <fix>3d</fix>
</trkpt>
<trkpt lat="40.0729865" lon="-105.2301557">
  <ele>1583.1</ele>
  <time>2026-08-28T17:51:22Z</time>
  <course>0.9</course>
  <speed>2.5700194551792794</speed>
  <fix>3d</fix>
</trkpt>
<trkpt lat="40.0729812" lon="-105.2301559">
  <ele>1583.0</ele>
  <time>2026-08-28T17:51:22Z</time>
  <course>0.26</course>
  <speed>2.72</speed>
  <fix>3d</fix>
</trkpt>
<trkpt lat="40.0729888" lon="-105.2301557">
  <ele>1583.1</ele>
  <time>2026-08-28T17:51:22Z</time>
  <course>0.91</course>
  <speed>2.550019607767752</speed>
  <fix>3d</fix>
</trkpt>
<trkpt lat="40.072986" lon="-105.2301559">
  <ele>1583.0</ele>
  <time>2026-08-28T17:51:22Z</time>
  <course>0.27</course>
  <speed>2.64</speed>
  <fix>3d</fix>
</trkpt>
<trkpt lat="40.0729912" lon="-105.2301557">
  <ele>1583.1</ele>
  <time>2026-08-28T17:51:22Z</time>
  <course>0.91</course>
  <speed>2.540019684963091</speed>
  <fix>3d</fix>
</trkpt>
<trkpt lat="40.072986" lon="-105.2301559">
  <ele>1583.0</ele>
  <time>2026-08-28T17:51:22Z</time>
  <course>0.27</course>
  <speed>2.64</speed>
  <fix>3d</fix>
</trkpt>
<trkpt lat="40.0729935" lon="-105.2301557">
  <ele>1583.1</ele>
  <time>2026-08-28T17:51:22Z</time>
  <course>0.91</course>
  <speed>2.540019684963091</speed>
  <fix>3d</fix>
</trkpt>
<trkpt lat="40.0729907" lon="-105.2301559">
  <ele>1583.0</ele>
  <time>2026-08-28T17:51:22Z</time>
  <course>0.28</course>
  <speed>2.62</speed>
  <fix>3d</fix>
</trkpt>
<trkpt lat="40.0729959" lon="-105.2301557">
  <ele>1583.1</ele>
  <time>2026-08-28T17:51:22Z</time>
  <course>0.92</course>
  <speed>2.5600195311754947</speed>
  <fix>3d</fix>
</trkpt>
<trkpt lat="40.0729907" lon="-105.2301559">
  <ele>1583.0</ele>
  <time>2026-08-28T17:51:22Z</time>
  <course>0.28</course>
  <speed>2.62</speed>
  <fix>3d</fix>
</trkpt>
<trkpt lat="40.0729982" lon="-105.2301557">
  <ele>1583.1</ele>
  <time>2026-08-28T17:51:22Z</time>
  <course>0.92</course>
  <speed>2.5700194551792794</speed>
  <fix>3d</fix>
</trkpt>
<trkpt lat="40.0729954" lon="-105.2301558">
  <ele>1583.0</ele>
  <time>2026-08-28T17:51:22Z</time>
  <course>0.28</course>
  <speed>2.63</speed>
  <fix>3d</fix>
</trkpt>
<trkpt lat="40.0730006" lon="-105.2301557">
  <ele>1583.09</ele>
  <time>2026-08-28T17:51:22Z</time>
  <course>0.92</course>
  <speed>2.6000192306981114</speed>
  <fix>3d</fix>
</trkpt>
<trkpt lat="40.0729954" lon="-105.2301558">
  <ele>1583.0</ele>
  <time>2026-08-28T17:51:22Z</time>
  <course>0.28</course>
  <speed>2.63</speed>
  <fix>3d</fix>
</trkpt>
<trkpt lat="40.073003" lon="-105.2301557">
  <ele>1583.09</ele>
  <time>2026-08-28T17:51:22Z</time>
  <course>0.93</course>
  <speed>2.6300190113381308</speed>
  <fix>3d</fix>
</trkpt>
<trkpt lat="40.0730001" lon="-105.2301557">
  <ele>1583.0</ele>
  <time>2026-08-28T17:51:22Z</time>
  <course>0.28</course>
  <speed>2.67</speed>
  <fix>3d</fix>
</trkpt>
<trkpt lat="40.0730054" lon="-105.2301557">
  <ele>1583.09</ele>
  <time>2026-08-28T17:51:22Z</time>
  <course>0.93</course>
  <speed>2.660018796926067</speed>
  <fix>3d</fix>
</trkpt>
<trkpt lat="40.0730001" lon="-105.2301557">
  <ele>1583.0</ele>
  <time>2026-08-28T17:51:22Z</time>
  <course>0.28</course>
  <speed>2.67</speed>
  <fix>3d</fix>
</trkpt>
<trkpt lat="40.0730079" lon="-105.2301557">
  <ele>1583.1</ele>
  <time>2026-08-28T17:51:22Z</time>
  <course>0.93</course>
  <speed>2.690074348414928</speed>
  <fix>3d</fix>
</trkpt>
<trkpt lat="40.073005" lon="-105.2301557">
  <ele>1583.0</ele>
  <time>2026-08-28T17:51:22Z</time>
  <course>0.28</course>
  <speed>2.72</speed>
  <fix>3d</fix>
</trkpt>
<trkpt lat="40.0730104" lon="-105.2301557">
  <ele>1583.1</ele>
  <time>2026-08-28T17:51:22Z</time>
  <course>0.94</course>
  <speed>2.7300732590903123</speed>
  <fix>3d</fix>
</trkpt>
<trkpt lat="40.073005" lon="-105.2301557">
  <ele>1583.0</ele>
  <time>2026-08-28T17:51:22Z</time>
  <course>0.28</course>
  <speed>2.72</speed>
  <fix>3d</fix>
</trkpt>
<trkpt lat="40.0730129" lon="-105.2301557">
  <ele>1583.1</ele>
  <time>2026-08-28T17:51:22Z</time>
  <course>0.94</course>
  <speed>2.7600724628168734</speed>
  <fix>3d</fix>
</trkpt>
<trkpt lat="40.073005" lon="-105.2301557">
  <ele>1583.0</ele>
  <time>2026-08-28T17:51:22Z</time>
  <course>0.28</course>
  <speed>2.72</speed>
  <fix>3d</fix>
</trkpt>
<trkpt lat="40.0730154" lon="-105.2301556">
  <ele>1583.1</ele>
  <time>2026-08-28T17:51:22Z</time>
  <course>0.94</course>
  <speed>2.800071427660373</speed>
  <fix>3d</fix>
</trkpt>
<trkpt lat="40.07301" lon="-105.2301557">
  <ele>1583.0</ele>
  <time>2026-08-28T17:51:22Z</time>
  <course>0.28</course>
  <speed>2.79</speed>
  <fix>3d</fix>
</trkpt>
<trkpt lat="40.073018" lon="-105.2301556">
  <ele>1583.1</ele>
  <time>2026-08-28T17:51:22Z</time>
  <course>0.95</course>
  <speed>2.830070670495703</speed>
  <fix>3d</fix>
</trkpt>
<trkpt lat="40.07301" lon="-105.2301557">
  <ele>1583.0</ele>
  <time>2026-08-28T17:51:22Z</time>
  <course>0.28</course>
  <speed>2.79</speed>
  <fix>3d</fix>
</trkpt>
<trkpt lat="40.0730206" lon="-105.2301556">
  <ele>1583.1</ele>
  <time>2026-08-28T17:51:22Z</time>
  <course>0.95</course>
  <speed>2.860069929215018</speed>
  <fix>3d</fix>
</trkpt>
<trkpt lat="40.0730151" lon="-105.2301557">
  <ele>1583.0</ele>
  <time>2026-08-28T17:51:22Z</time>
  <course>0.28</course>
  <speed>2.85</speed>
  <fix>3d</fix>
</trkpt>
<trkpt lat="40.0730232" lon="-105.2301556">
  <ele>1583.1</ele>
  <time>2026-08-28T17:51:22Z</time>
  <course>0.95</course>
  <speed>2.890155705148081</speed>
  <fix>3d</fix>
</trkpt>
<trkpt lat="40.0730151" lon="-105.2301557">
  <ele>1583.0</ele>
  <time>2026-08-28T17:51:22Z</time>
  <course>0.28</course>
  <speed>2.85</speed>
  <fix>3d</fix>
</trkpt>
<trkpt lat="40.0730259" lon="-105.2301555">
  <ele>1583.1</ele>
  <time>2026-08-28T17:51:22Z</time>
  <course>0.96</course>
  <speed>2.9201541055225153</speed>
  <fix>3d</fix>
</trkpt>
<trkpt lat="40.0730202" lon="-105.2301557">
  <ele>1583.0</ele>
  <time>2026-08-28T17:51:22Z</time>
  <course>0.28</course>
  <speed>2.92</speed>
  <fix>3d</fix>
</trkpt>
<trkpt lat="40.0730285" lon="-105.2301555">
  <ele>1583.1</ele>
  <time>2026-08-28T17:51:22Z</time>
  <course>0.96</course>
  <speed>2.940153057240388</speed>
  <fix>3d</fix>
</trkpt>
<trkpt lat="40.0730255" lon="-105.2301557">
  <ele>1583.0</ele>
  <time>2026-08-28T17:51:22Z</time>
  <course>0.28</course>
  <speed>2.97</speed>
  <fix>3d</fix>
</trkpt>
<trkpt lat="40.0730313" lon="-105.2301555">
  <ele>1583.1</ele>
  <time>2026-08-28T17:51:22Z</time>
  <course>0.97</course>
  <speed>2.9701515112869243</speed>
  <fix>3d</fix>
</trkpt>
<trkpt lat="40.0730255" lon="-105.2301557">
  <ele>1583.0</ele>
  <time>2026-08-28T17:51:22Z</time>
  <course>0.28</course>
  <speed>2.97</speed>
  <fix>3d</fix>
</trkpt>
<trkpt lat="40.073034" lon="-105.2301555">
  <ele>1583.1</ele>
  <time>2026-08-28T17:51:22Z</time>
  <course>0.97</course>
  <speed>2.99015049788468</speed>
  <fix>3d</fix>
</trkpt>
<trkpt lat="40.073031" lon="-105.2301556">
  <ele>1583.0</ele>
  <time>2026-08-28T17:51:22Z</time>
  <course>0.28</course>
  <speed>3.02</speed>
  <fix>3d</fix>
</trkpt>
<trkpt lat="40.0730367" lon="-105.2301555">
  <ele>1583.1</ele>
  <time>2026-08-28T17:51:22Z</time>
  <course>0.97</course>
  <speed>3.0101494979485652</speed>
  <fix>3d</fix>
</trkpt>
<trkpt lat="40.073031" lon="-105.2301556">
  <ele>1583.0</ele>
  <time>2026-08-28T17:51:22Z</time>
  <course>0.28</course>
  <speed>3.02</speed>
  <fix>3d</fix>
</trkpt>
<trkpt lat="40.0730395" lon="-105.2301554">
  <ele>1583.1</ele>
  <time>2026-08-28T17:51:22Z</time>
  <course>0.98</course>
  <speed>3.020149002946709</speed>
  <fix>3d</fix>
</trkpt>
<trkpt lat="40.0730364" lon="-105.2301555">
  <ele>1583.0</ele>
  <time>2026-08-28T17:51:22Z</time>
  <course>0.28</course>
  <speed>3.05</speed>
  <fix>3d</fix>
</trkpt>
<trkpt lat="40.0730423" lon="-105.2301554">
  <ele>1583.1</ele>
  <time>2026-08-28T17:51:22Z</time>
  <course>0.98</course>
  <speed>3.040148022712052</speed>
  <fix>3d</fix>
</trkpt>
<trkpt lat="40.0730364" lon="-105.2301555">
  <ele>1583.0</ele>
  <time>2026-08-28T17:51:22Z</time>
  <course>0.28</course>
  <speed>3.05</speed>
  <fix>3d</fix>
</trkpt>
<trkpt lat="40.0730451" lon="-105.2301554">
  <ele>1583.1</ele>
  <time>2026-08-28T17:51:22Z</time>
  <course>0.98</course>
  <speed>3.050147537415199</speed>
  <fix>3d</fix>
</trkpt>
<trkpt lat="40.073042" lon="-105.2301555">
  <ele>1583.0</ele>
  <time>2026-08-28T17:51:22Z</time>
  <course>0.28</course>
  <speed>3.08</speed>
  <fix>3d</fix>
</trkpt>
<trkpt lat="40.0730479" lon="-105.2301554">
  <ele>1583.1</ele>
  <time>2026-08-28T17:51:22Z</time>
  <course>0.99</course>
  <speed>3.0601470552899905</speed>
  <fix>3d</fix>
</trkpt>
<trkpt lat="40.073042" lon="-105.2301555">
  <ele>1583.0</ele>
  <time>2026-08-28T17:51:22Z</time>
  <course>0.28</course>
  <speed>3.08</speed>
  <fix>3d</fix>
</trkpt>
<trkpt lat="40.0730507" lon="-105.2301553">
  <ele>1583.1</ele>
  <time>2026-08-28T17:51:22Z</time>
  <course>0.97</course>
  <speed>3.0601470552899905</speed>
  <fix>3d</fix>
</trkpt>
<trkpt lat="40.0730475" lon="-105.2301555">
  <ele>1583.0</ele>
  <time>2026-08-28T17:51:22Z</time>
  <course>0.27</course>
  <speed>3.09</speed>
  <fix>3d</fix>
</trkpt>
<trkpt lat="40.0730536" lon="-105.2301553">
  <ele>1583.1</ele>
  <time>2026-08-28T17:51:22Z</time>
  <course>0.97</course>
  <speed>3.0701465763054374</speed>
  <fix>3d</fix>
</trkpt>
<trkpt lat="40.0730475" lon="-105.2301555">
  <ele>1583.0</ele>
  <time>2026-08-28T17:51:22Z</time>
  <course>0.27</course>
  <speed>3.09</speed>
  <fix>3d</fix>
</trkpt>
<trkpt lat="40.0730564" lon="-105.2301553">
  <ele>1583.1</ele>
  <time>2026-08-28T17:51:22Z</time>
  <course>0.95</course>
  <speed>3.0701465763054374</speed>
  <fix>3d</fix>
</trkpt>
<trkpt lat="40.073053" lon="-105.2301555">
  <ele>1583.0</ele>
  <time>2026-08-28T17:51:22Z</time>
  <course>0.25</course>
  <speed>3.1</speed>
  <fix>3d</fix>
</trkpt>
<trkpt lat="40.0730592" lon="-105.2301553">
  <ele>1583.1</ele>
  <time>2026-08-28T17:51:22Z</time>
  <course>0.95</course>
  <speed>3.0701465763054374</speed>
  <fix>3d</fix>
</trkpt>
<trkpt lat="40.073053" lon="-105.2301555">
  <ele>1583.0</ele>
  <time>2026-08-28T17:51:22Z</time>
  <course>0.25</course>
  <speed>3.1</speed>
  <fix>3d</fix>
</trkpt>
<trkpt lat="40.073062" lon="-105.2301552">
  <ele>1583.1</ele>
  <time>2026-08-28T17:51:22Z</time>
  <course>0.93</course>
  <speed>3.0701465763054374</speed>
  <fix>3d</fix>
</trkpt>
<trkpt lat="40.0730587" lon="-105.2301554">
  <ele>1583.0</ele>
  <time>2026-08-28T17:51:22Z</time>
  <course>0.22</course>
  <speed>3.1</speed>
  <fix>3d</fix>
</trkpt>
<trkpt lat="40.0730648" lon="-105.2301552">
  <ele>1583.1</ele>
  <time>2026-08-28T17:51:22Z</time>
  <course>0.91</course>
  <speed>3.0701465763054374</speed>
  <fix>3d</fix>
</trkpt>
<trkpt lat="40.0730587" lon="-105.2301554">
  <ele>1583.0</ele>
  <time>2026-08-28T17:51:22Z</time>
  <course>0.22</course>
  <speed>3.1</speed>
  <fix>3d</fix>
</trkpt>
<trkpt lat="40.0730676" lon="-105.2301552">
  <ele>1583.1</ele>
  <time>2026-08-28T17:51:22Z</time>
  <course>0.91</course>
  <speed>3.0601470552899905</speed>
  <fix>3d</fix>
</trkpt>
<trkpt lat="40.0730587" lon="-105.2301554">
  <ele>1583.0</ele>
  <time>2026-08-28T17:51:22Z</time>
  <course>0.22</course>
  <speed>3.1</speed>
  <fix>3d</fix>
</trkpt>
<trkpt lat="40.0730704" lon="-105.2301552">
  <ele>1583.1</ele>
  <time>2026-08-28T17:51:22Z</time>
  <course>0.89</course>
  <speed>3.0601470552899905</speed>
  <fix>3d</fix>
</trkpt>
<trkpt lat="40.0730643" lon="-105.2301554">
  <ele>1583.0</ele>
  <time>2026-08-28T17:51:22Z</time>
  <course>0.2</course>
  <speed>3.09</speed>
  <fix>3d</fix>
</trkpt>
<trkpt lat="40.0730732" lon="-105.2301552">
  <ele>1583.1</ele>
  <time>2026-08-28T17:51:22Z</time>
  <course>0.87</course>
  <speed>3.050147537415199</speed>
  <fix>3d</fix>
</trkpt>
<trkpt lat="40.0730643" lon="-105.2301554">
  <ele>1583.0</ele>
  <time>2026-08-28T17:51:22Z</time>
  <course>0.2</course>
  <speed>3.09</speed>
  <fix>3d</fix>
</trkpt>
<trkpt lat="40.0730759" lon="-105.2301552">
  <ele>1583.1</ele>
  <time>2026-08-28T17:51:22Z</time>
  <course>0.87</course>
  <speed>3.040148022712052</speed>
  <fix>3d</fix>
</trkpt>
<trkpt lat="40.0730698" lon="-105.2301554">
  <ele>1583.0</ele>
  <time>2026-08-28T17:51:22Z</time>
  <course>0.16</course>
  <speed>3.08</speed>
  <fix>3d</fix>
</trkpt>
<trkpt lat="40.0730787" lon="-105.2301551">
  <ele>1583.1</ele>
  <time>2026-08-28T17:51:22Z</time>
  <course>0.84</course>
  <speed>3.040148022712052</speed>
  <fix>3d</fix>
</trkpt>
<trkpt lat="40.0730698" lon="-105.2301554">
  <ele>1583.0</ele>
  <time>2026-08-28T17:51:22Z</time>
  <course>0.16</course>
  <speed>3.08</speed>
  <fix>3d</fix>
</trkpt>
<trkpt lat="40.0730814" lon="-105.2301551">
  <ele>1583.1</ele>
  <time>2026-08-28T17:51:22Z</time>
  <course>0.84</course>
  <speed>3.03014851121195</speed>
  <fix>3d</fix>
</trkpt>
<trkpt lat="40.0730753" lon="-105.2301554">
  <ele>1583.0</ele>
  <time>2026-08-28T17:51:22Z</time>
  <course>0.12</course>
  <speed>3.07</speed>
  <fix>3d</fix>
</trkpt>
<trkpt lat="40.0730841" lon="-105.2301551">
  <ele>1583.1</ele>
  <time>2026-08-28T17:51:22Z</time>
  <course>0.83</course>
  <speed>3.020149002946709</speed>
  <fix>3d</fix>
</trkpt>
<trkpt lat="40.0730753" lon="-105.2301554">
  <ele>1583.0</ele>
  <time>2026-08-28T17:51:22Z</time>
  <course>0.12</course>
  <speed>3.07</speed>
  <fix>3d</fix>
</trkpt>
<trkpt lat="40.0730869" lon="-105.2301551">
  <ele>1583.1</ele>
  <time>2026-08-28T17:51:22Z</time>
  <course>0.82</course>
  <speed>3.020149002946709</speed>
  <fix>3d</fix>
</trkpt>
<trkpt lat="40.0730808" lon="-105.2301554">
  <ele>1583.0</ele>
  <time>2026-08-28T17:51:22Z</time>
  <course>0.1</course>
  <speed>3.05</speed>
  <fix>3d</fix>
</trkpt>
<trkpt lat="40.0730896" lon="-105.2301551">
  <ele>1583.09</ele>
  <time>2026-08-28T17:51:22Z</time>
  <course>0.81</course>
  <speed>3.0101494979485652</speed>
  <fix>3d</fix>
</trkpt>
<trkpt lat="40.0730863" lon="-105.2301554">
  <ele>1583.0</ele>
  <time>2026-08-28T17:51:22Z</time>
  <course>0.08</course>
  <speed>3.04</speed>
  <fix>3d</fix>
</trkpt>
<trkpt lat="40.0730923" lon="-105.2301551">
  <ele>1583.09</ele>
  <time>2026-08-28T17:51:22Z</time>
  <course>0.8</course>
  <speed>3.010066444449358</speed>
  <fix>3d</fix>
</trkpt>
<trkpt lat="40.0730863" lon="-105.2301554">
  <ele>1583.0</ele>
  <time>2026-08-28T17:51:22Z</time>
  <course>0.08</course>
  <speed>3.04</speed>
  <fix>3d</fix>
</trkpt>
<trkpt lat="40.073095" lon="-105.2301551">
  <ele>1583.1</ele>
  <time>2026-08-28T17:51:22Z</time>
  <course>0.8</course>
  <speed>3.010066444449358</speed>
  <fix>3d</fix>
</trkpt>
<trkpt lat="40.0730918" lon="-105.2301554">
  <ele>1583.0</ele>
  <time>2026-08-28T17:51:22Z</time>
  <course>0.06</course>
  <speed>3.03</speed>
  <fix>3d</fix>
</trkpt>
<trkpt lat="40.0730978" lon="-105.2301551">
  <ele>1583.1</ele>
  <time>2026-08-28T17:51:22Z</time>
  <course>0.8</course>
  <speed>3.0000666659259423</speed>
  <fix>3d</fix>
</trkpt>
<trkpt lat="40.0730918" lon="-105.2301554">
  <ele>1583.0</ele>
  <time>2026-08-28T17:51:22Z</time>
  <course>0.06</course>
  <speed>3.03</speed>
  <fix>3d</fix>
</trkpt>
<trkpt lat="40.0731005" lon="-105.2301551">
  <ele>1583.09</ele>
  <time>2026-08-28T17:51:22Z</time>
  <course>0.79</course>
  <speed>3.0000666659259423</speed>
  <fix>3d</fix>
</trkpt>
<trkpt lat="40.0730972" lon="-105.2301553">
  <ele>1583.0</ele>
  <time>2026-08-28T17:51:22Z</time>
  <course>0.05</course>
  <speed>3.03</speed>
  <fix>3d</fix>
</trkpt>
<trkpt lat="40.0731032" lon="-105.2301551">
  <ele>1583.1</ele>
  <time>2026-08-28T17:51:22Z</time>
  <course>0.79</course>
  <speed>3.0000666659259423</speed>
  <fix>3d</fix>
</trkpt>
<trkpt lat="40.0730972" lon="-105.2301553">
  <ele>1583.0</ele>
  <time>2026-08-28T17:51:22Z</time>
  <course>0.05</course>
  <speed>3.03</speed>
  <fix>3d</fix>
</trkpt>
<trkpt lat="40.073106" lon="-105.2301551">
  <ele>1583.1</ele>
  <time>2026-08-28T17:51:22Z</time>
  <course>0.76</course>
  <speed>3.0000666659259423</speed>
  <fix>3d</fix>
</trkpt>
<trkpt lat="40.0731026" lon="-105.2301552">
  <ele>1583.0</ele>
  <time>2026-08-28T17:51:22Z</time>
  <course>0.03</course>
  <speed>3.02</speed>
  <fix>3d</fix>
</trkpt>
<trkpt lat="40.0731088" lon="-105.2301551">
  <ele>1583.1</ele>
  <time>2026-08-28T17:51:22Z</time>
  <course>0.75</course>
  <speed>3.03006600588172</speed>
  <fix>3d</fix>
</trkpt>
<trkpt lat="40.0731026" lon="-105.2301552">
  <ele>1583.0</ele>
  <time>2026-08-28T17:51:22Z</time>
  <course>0.03</course>
  <speed>3.02</speed>
  <fix>3d</fix>
</trkpt>
<trkpt lat="40.0731115" lon="-105.2301551">
  <ele>1583.1</ele>
  <time>2026-08-28T17:51:22Z</time>
  <course>0.73</course>
  <speed>3.0600653587791227</speed>
  <fix>3d</fix>
</trkpt>
<trkpt lat="40.0731081" lon="-105.2301552">
  <ele>1583.0</ele>
  <time>2026-08-28T17:51:22Z</time>
  <course>359.99</course>
  <speed>3.05</speed>
  <fix>3d</fix>
</trkpt>
<trkpt lat="40.0731143" lon="-105.2301551">
  <ele>1583.1</ele>
  <time>2026-08-28T17:51:22Z</time>
  <course>0.71</course>
  <speed>3.110064308016797</speed>
  <fix>3d</fix>
</trkpt>
<trkpt lat="40.0731081" lon="-105.2301552">
  <ele>1583.0</ele>
  <time>2026-08-28T17:51:22Z</time>
  <course>359.99</course>
  <speed>3.05</speed>
  <fix>3d</fix>
</trkpt>
<trkpt lat="40.0731172" lon="-105.2301551">
  <ele>1583.1</ele>
  <time>2026-08-28T17:51:22Z</time>
  <course>0.68</course>
  <speed>3.1600632905054287</speed>
  <fix>3d</fix>
</trkpt>
<trkpt lat="40.0731136" lon="-105.2301553">
  <ele>1583.0</ele>
  <time>2026-08-28T17:51:22Z</time>
  <course>359.95</course>
  <speed>3.13</speed>
  <fix>3d</fix>
</trkpt>
<trkpt lat="40.0731201" lon="-105.2301551">
  <ele>1583.09</ele>
  <time>2026-08-28T17:51:22Z</time>
  <course>0.65</course>
  <speed>3.210062304691297</speed>
  <fix>3d</fix>
</trkpt>
<trkpt lat="40.0731136" lon="-105.2301553">
  <ele>1583.0</ele>
  <time>2026-08-28T17:51:22Z</time>
  <course>359.95</course>
  <speed>3.13</speed>
  <fix>3d</fix>
</trkpt>
<trkpt lat="40.073123" lon="-105.2301551">
  <ele>1583.09</ele>
  <time>2026-08-28T17:51:22Z</time>
  <course>0.63</course>
  <speed>3.2700611615075337</speed>
  <fix>3d</fix>
</trkpt>
<trkpt lat="40.0731193" lon="-105.2301554">
  <ele>1583.0</ele>
  <time>2026-08-28T17:51:22Z</time>
  <course>359.9</course>
  <speed>3.23</speed>
  <fix>3d</fix>
</trkpt>
<trkpt lat="40.0731261" lon="-105.2301551">
  <ele>1583.09</ele>
  <time>2026-08-28T17:51:22Z</time>
  <course>0.63</course>
  <speed>3.3300600595184466</speed>
  <fix>3d</fix>
</trkpt>
<trkpt lat="40.0731193" lon="-105.2301554">
  <ele>1583.0</ele>
  <time>2026-08-28T17:51:22Z</time>
  <course>359.9</course>
  <speed>3.23</speed>
  <fix>3d</fix>
</trkpt>
<trkpt lat="40.0731291" lon="-105.2301551">
  <ele>1583.09</ele>
  <time>2026-08-28T17:51:22Z</time>
  <course>0.6</course>
  <speed>3.410058650522011</speed>
  <fix>3d</fix>
</trkpt>
<trkpt lat="40.0731193" lon="-105.2301554">
  <ele>1583.0</ele>
  <time>2026-08-28T17:51:22Z</time>
  <course>359.9</course>
  <speed>3.23</speed>
  <fix>3d</fix>
</trkpt>
<trkpt lat="40.0731322" lon="-105.2301551">
  <ele>1583.1</ele>
  <time>2026-08-28T17:51:22Z</time>
  <course>0.58</course>
  <speed>3.480057470789814</speed>
  <fix>3d</fix>
</trkpt>
<trkpt lat="40.0731253" lon="-105.2301554">
  <ele>1583.0</ele>
  <time>2026-08-28T17:51:22Z</time>
  <course>359.85</course>
  <speed>3.35</speed>
  <fix>3d</fix>
</trkpt>
<trkpt lat="40.0731354" lon="-105.2301551">
  <ele>1583.1</ele>
  <time>2026-08-28T17:51:22Z</time>
  <course>0.58</course>
  <speed>3.5700560219694033</speed>
  <fix>3d</fix>
</trkpt>
<trkpt lat="40.0731253" lon="-105.2301554">
  <ele>1583.0</ele>
  <time>2026-08-28T17:51:22Z</time>
  <course>359.85</course>
  <speed>3.35</speed>
  <fix>3d</fix>
</trkpt>
<trkpt lat="40.0731387" lon="-105.2301551">
  <ele>1583.1</ele>
  <time>2026-08-28T17:51:22Z</time>
  <course>0.57</course>
  <speed>3.670054495508207</speed>
  <fix>3d</fix>
</trkpt>
<trkpt lat="40.0731315" lon="-105.2301554">
  <ele>1583.0</ele>
  <time>2026-08-28T17:51:22Z</time>
  <course>359.83</course>
  <speed>3.5</speed>
  <fix>3d</fix>
</trkpt>
<trkpt lat="40.073142" lon="-105.2301551">
  <ele>1583.1</ele>
  <time>2026-08-28T17:51:22Z</time>
  <course>0.57</course>
  <speed>3.7700530500246283</speed>
  <fix>3d</fix>
</trkpt>
<trkpt lat="40.0731315" lon="-105.2301554">
  <ele>1583.0</ele>
  <time>2026-08-28T17:51:22Z</time>
  <course>359.83</course>
  <speed>3.5</speed>
  <fix>3d</fix>
</trkpt>
<trkpt lat="40.0731455" lon="-105.2301551">
  <ele>1583.1</ele>
  <time>2026-08-28T17:51:22Z</time>
  <course>0.57</course>
  <speed>3.8800515460493563</speed>
  <fix>3d</fix>
</trkpt>
<trkpt lat="40.073138" lon="-105.2301554">
  <ele>1583.0</ele>
  <time>2026-08-28T17:51:22Z</time>
  <course>359.81</course>
  <speed>3.68</speed>
  <fix>3d</fix>
</trkpt>
<trkpt lat="40.073149" lon="-105.2301551">
  <ele>1583.1</ele>
  <time>2026-08-28T17:51:22Z</time>
  <course>0.57</course>
  <speed>3.9900501249984317</speed>
  <fix>3d</fix>
</trkpt>
<trkpt lat="40.0731447" lon="-105.2301554">
  <ele>1583.0</ele>
  <time>2026-08-28T17:51:22Z</time>
  <course>359.81</course>
  <speed>3.89</speed>
  <fix>3d</fix>
</trkpt>
<trkpt lat="40.0731527" lon="-105.2301551">
  <ele>1583.1</ele>
  <time>2026-08-28T17:51:22Z</time>
  <course>0.57</course>
  <speed>4.110048661512415</speed>
  <fix>3d</fix>
</trkpt>
<trkpt lat="40.0731447" lon="-105.2301554">
  <ele>1583.0</ele>
  <time>2026-08-28T17:51:22Z</time>
  <course>359.81</course>
  <speed>3.89</speed>
  <fix>3d</fix>
</trkpt>
<trkpt lat="40.0731565" lon="-105.2301551">
  <ele>1583.1</ele>
  <time>2026-08-28T17:51:22Z</time>
  <course>0.57</course>
  <speed>4.230047281059633</speed>
  <fix>3d</fix>
</trkpt>
<trkpt lat="40.0731519" lon="-105.2301554">
  <ele>1583.0</ele>
  <time>2026-08-28T17:51:22Z</time>
  <course>359.81</course>
  <speed>4.11</speed>
  <fix>3d</fix>
</trkpt>
<trkpt lat="40.0731604" lon="-105.2301551">
  <ele>1583.1</ele>
  <time>2026-08-28T17:51:22Z</time>
  <course>0.57</course>
  <speed>4.350045976768522</speed>
  <fix>3d</fix>
</trkpt>
<trkpt lat="40.0731519" lon="-105.2301554">
  <ele>1583.0</ele>
  <time>2026-08-28T17:51:22Z</time>
  <course>359.81</course>
  <speed>4.11</speed>
  <fix>3d</fix>
</trkpt>
<trkpt lat="40.0731644" lon="-105.2301551">
  <ele>1583.09</ele>
  <time>2026-08-28T17:51:22Z</time>
  <course>0.57</course>
  <speed>4.480044642634714</speed>
  <fix>3d</fix>
</trkpt>
<trkpt lat="40.0731595" lon="-105.2301554">
  <ele>1583.0</ele>
  <time>2026-08-28T17:51:22Z</time>
  <course>359.81</course>
  <speed>4.35</speed>
  <fix>3d</fix>
</trkpt>
<trkpt lat="40.0731685" lon="-105.2301551">
  <ele>1583.1</ele>
  <time>2026-08-28T17:51:22Z</time>
  <course>0.57</course>
  <speed>4.600043478055398</speed>
  <fix>3d</fix>
</trkpt>
<trkpt lat="40.0731595" lon="-105.2301554">
  <ele>1583.0</ele>
  <time>2026-08-28T17:51:22Z</time>
  <course>359.81</course>
  <speed>4.35</speed>
  <fix>3d</fix>
</trkpt>
<trkpt lat="40.0731728" lon="-105.2301551">
  <ele>1583.1</ele>
  <time>2026-08-28T17:51:22Z</time>
  <course>0.57</course>
  <speed>4.730042283109105</speed>
  <fix>3d</fix>
</trkpt>
<trkpt lat="40.0731676" lon="-105.2301554">
  <ele>1583.0</ele>
  <time>2026-08-28T17:51:22Z</time>
  <course>359.81</course>
  <speed>4.6</speed>
  <fix>3d</fix>
</trkpt>
<trkpt lat="40.0731772" lon="-105.2301551">
  <ele>1583.09</ele>
  <time>2026-08-28T17:51:22Z</time>
  <course>0.56</course>
  <speed>4.860041152089146</speed>
  <fix>3d</fix>
</trkpt>
<trkpt lat="40.0731676" lon="-105.2301554">
  <ele>1583.0</ele>
  <time>2026-08-28T17:51:22Z</time>
  <course>359.81</course>
  <speed>4.6</speed>
  <fix>3d</fix>
</trkpt>
<trkpt lat="40.0731817" lon="-105.2301551">
  <ele>1583.1</ele>
  <time>2026-08-28T17:51:22Z</time>
  <course>0.56</course>
  <speed>4.980040160480636</speed>
  <fix>3d</fix>
</trkpt>
<trkpt lat="40.073176" lon="-105.2301555">
  <ele>1583.0</ele>
  <time>2026-08-28T17:51:22Z</time>
  <course>359.81</course>
  <speed>4.84</speed>
  <fix>3d</fix>
</trkpt>
<trkpt lat="40.0731863" lon="-105.2301552">
  <ele>1583.1</ele>
  <time>2026-08-28T17:51:22Z</time>
  <course>0.56</course>
  <speed>5.100039215535504</speed>
  <fix>3d</fix>
</trkpt>
<trkpt lat="40.073176" lon="-105.2301555">
  <ele>1583.0</ele>
  <time>2026-08-28T17:51:22Z</time>
  <course>359.81</course>
  <speed>4.84</speed>
  <fix>3d</fix>
</trkpt>
<trkpt lat="40.0731909" lon="-105.2301552">
  <ele>1583.1</ele>
  <time>2026-08-28T17:51:22Z</time>
  <course>0.55</course>
  <speed>5.220038314035636</speed>
  <fix>3d</fix>
</trkpt>
<trkpt lat="40.0731849" lon="-105.2301555">
  <ele>1583.0</ele>
  <time>2026-08-28T17:51:22Z</time>
  <course>359.81</course>
  <speed>5.08</speed>
  <fix>3d</fix>
</trkpt>
<trkpt lat="40.0731957" lon="-105.2301552">
  <ele>1583.1</ele>
  <time>2026-08-28T17:51:22Z</time>
  <course>0.55</course>
  <speed>5.330037523320075</speed>
  <fix>3d</fix>
</trkpt>
<trkpt lat="40.0731849" lon="-105.2301555">
  <ele>1583.0</ele>
  <time>2026-08-28T17:51:22Z</time>
  <course>359.81</course>
  <speed>5.08</speed>
  <fix>3d</fix>
</trkpt>
<trkpt lat="40.0732006" lon="-105.2301552">
  <ele>1583.11</ele>
  <time>2026-08-28T17:51:22Z</time>
  <course>0.55</course>
  <speed>5.450036697124158</speed>
  <fix>3d</fix>
</trkpt>
<trkpt lat="40.0731943" lon="-105.2301555">
  <ele>1583.0</ele>
  <time>2026-08-28T17:51:22Z</time>
  <course>359.81</course>
  <speed>5.31</speed>
  <fix>3d</fix>
</trkpt>
<trkpt lat="40.0732056" lon="-105.2301552">
  <ele>1583.11</ele>
  <time>2026-08-28T17:51:22Z</time>
  <course>0.54</course>
  <speed>5.560035971106662</speed>
  <fix>3d</fix>
</trkpt>
<trkpt lat="40.0731943" lon="-105.2301555">
  <ele>1583.0</ele>
  <time>2026-08-28T17:51:22Z</time>
  <course>359.81</course>
  <speed>5.31</speed>
  <fix>3d</fix>
</trkpt>
<trkpt lat="40.0732107" lon="-105.2301552">
  <ele>1583.11</ele>
  <time>2026-08-28T17:51:22Z</time>
  <course>0.54</course>
  <speed>5.670035273258889</speed>
  <fix>3d</fix>
</trkpt>
<trkpt lat="40.0731943" lon="-105.2301555">
  <ele>1583.0</ele>
  <time>2026-08-28T17:51:22Z</time>
  <course>359.81</course>
  <speed>5.31</speed>
  <fix>3d</fix>
</trkpt>
<trkpt lat="40.0732158" lon="-105.2301552">
  <ele>1583.1</ele>
  <time>2026-08-28T17:51:22Z</time>
  <course>0.54</course>
  <speed>5.770034661940949</speed>
  <fix>3d</fix>
</trkpt>
<trkpt lat="40.0732041" lon="-105.2301555">
  <ele>1583.0</ele>
  <time>2026-08-28T17:51:22Z</time>
  <course>359.81</course>
  <speed>5.53</speed>
  <fix>3d</fix>
</trkpt>
<trkpt lat="40.073221" lon="-105.2301552">
  <ele>1583.1</ele>
  <time>2026-08-28T17:51:22Z</time>
  <course>0.53</course>
  <speed>5.870034071451374</speed>
  <fix>3d</fix>
</trkpt>
<trkpt lat="40.0732041" lon="-105.2301555">
  <ele>1583.0</ele>
  <time>2026-08-28T17:51:22Z</time>
  <course>359.81</course>
  <speed>5.53</speed>
  <fix>3d</fix>
</trkpt>
<trkpt lat="40.0732263" lon="-105.2301552">
  <ele>1583.09</ele>
  <time>2026-08-28T17:51:22Z</time>
  <course>0.53</course>
  <speed>5.970033500743527</speed>
  <fix>3d</fix>
</trkpt>
<trkpt lat="40.0732142" lon="-105.2301556">
  <ele>1583.0</ele>
  <time>2026-08-28T17:51:22Z</time>
  <course>359.81</course>
  <speed>5.74</speed>
  <fix>3d</fix>
</trkpt>
<trkpt lat="40.0732317" lon="-105.2301552">
  <ele>1583.09</ele>
  <time>2026-08-28T17:51:22Z</time>
  <course>0.52</course>
  <speed>6.070032948839735</speed>
  <fix>3d</fix>
</trkpt>
<trkpt lat="40.0732142" lon="-105.2301556">
  <ele>1583.0</ele>
  <time>2026-08-28T17:51:22Z</time>
  <course>359.81</course>
  <speed>5.74</speed>
  <fix>3d</fix>
</trkpt>
<trkpt lat="40.0732371" lon="-105.2301553">
  <ele>1583.08</ele>
  <time>2026-08-28T17:51:22Z</time>
  <course>0.52</course>
  <speed>6.160032467446905</speed>
  <fix>3d</fix>
</trkpt>
<trkpt lat="40.0732247" lon="-105.2301557">
  <ele>1583.0</ele>
  <time>2026-08-28T17:51:22Z</time>
  <course>359.81</course>
  <speed>5.94</speed>
  <fix>3d</fix>
</trkpt>
<trkpt lat="40.0732427" lon="-105.2301553">
  <ele>1583.08</ele>
  <time>2026-08-28T17:51:22Z</time>
  <course>0.51</course>
  <speed>6.260031948800262</speed>
  <fix>3d</fix>
</trkpt>
<trkpt lat="40.0732247" lon="-105.2301557">
  <ele>1583.0</ele>
  <time>2026-08-28T17:51:22Z</time>
  <course>359.81</course>
  <speed>5.94</speed>
  <fix>3d</fix>
</trkpt>
<trkpt lat="40.0732484" lon="-105.2301553">
  <ele>1583.07</ele>
  <time>2026-08-28T17:51:22Z</time>
  <course>0.51</course>
  <speed>6.350031495984882</speed>
  <fix>3d</fix>
</trkpt>
<trkpt lat="40.0732355" lon="-105.2301557">
  <ele>1583.0</ele>
  <time>2026-08-28T17:51:22Z</time>
  <course>359.81</course>
  <speed>6.13</speed>
  <fix>3d</fix>
</trkpt>
<trkpt lat="40.0732541" lon="-105.2301553">
  <ele>1583.06</ele>
  <time>2026-08-28T17:51:22Z</time>
  <course>0.5</course>
  <speed>6.44003105582574</speed>
  <fix>3d</fix>
</trkpt>
<trkpt lat="40.0732467" lon="-105.2301557">
  <ele>1583.0</ele>
  <time>2026-08-28T17:51:22Z</time>
  <course>359.81</course>
  <speed>6.33</speed>
  <fix>3d</fix>
</trkpt>
<trkpt lat="40.0732599" lon="-105.2301553">
  <ele>1583.06</ele>
  <time>2026-08-28T17:51:22Z</time>
  <course>0.5</course>
  <speed>6.530030627799536</speed>
  <fix>3d</fix>
</trkpt>
<trkpt lat="40.0732467" lon="-105.2301557">
  <ele>1583.0</ele>
  <time>2026-08-28T17:51:22Z</time>
  <course>359.81</course>
  <speed>6.33</speed>
  <fix>3d</fix>
</trkpt>
<trkpt lat="40.0732658" lon="-105.2301553">
  <ele>1583.05</ele>
  <time>2026-08-28T17:51:22Z</time>
  <course>0.49</course>
  <speed>6.620030211411425</speed>
  <fix>3d</fix>
</trkpt>
<trkpt lat="40.0732583" lon="-105.2301558">
  <ele>1583.0</ele>
  <time>2026-08-28T17:51:22Z</time>
  <course>359.81</course>
  <speed>6.51</speed>
  <fix>3d</fix>
</trkpt>
<trkpt lat="40.0732718" lon="-105.2301554">
  <ele>1583.05</ele>
  <time>2026-08-28T17:51:22Z</time>
  <course>0.49</course>
  <speed>6.700007462682411</speed>
  <fix>3d</fix>
</trkpt>
<trkpt lat="40.0732583" lon="-105.2301558">
  <ele>1583.0</ele>
  <time>2026-08-28T17:51:22Z</time>
  <course>359.81</course>
  <speed>6.51</speed>
  <fix>3d</fix>
</trkpt>
<trkpt lat="40.0732779" lon="-105.2301554">
  <ele>1583.05</ele>
  <time>2026-08-28T17:51:22Z</time>
  <course>0.49</course>
  <speed>6.7800073746272576</speed>
  <fix>3d</fix>
</trkpt>
<trkpt lat="40.0732701" lon="-105.2301559">
  <ele>1583.0</ele>
  <time>2026-08-28T17:51:22Z</time>
  <course>359.81</course>
  <speed>6.67</speed>
  <fix>3d</fix>
</trkpt>
<trkpt lat="40.0732841" lon="-105.2301554">
  <ele>1583.05</ele>
  <time>2026-08-28T17:51:22Z</time>
  <course>0.48</course>
  <speed>6.850007299266184</speed>
  <fix>3d</fix>
</trkpt>
<trkpt lat="40.0732701" lon="-105.2301559">
  <ele>1583.0</ele>
  <time>2026-08-28T17:51:22Z</time>
  <course>359.81</course>
  <speed>6.67</speed>
  <fix>3d</fix>
</trkpt>
<trkpt lat="40.0732903" lon="-105.2301555">
  <ele>1583.05</ele>
  <time>2026-08-28T17:51:22Z</time>
  <course>0.48</course>
  <speed>6.9100072358862255</speed>
  <fix>3d</fix>
</trkpt>
<trkpt lat="40.0732822" lon="-105.2301559">
  <ele>1583.0</ele>
  <time>2026-08-28T17:51:22Z</time>
  <course>359.81</course>
  <speed>6.82</speed>
  <fix>3d</fix>
</trkpt>
<trkpt lat="40.0732966" lon="-105.2301556">
  <ele>1583.05</ele>
  <time>2026-08-28T17:51:22Z</time>
  <course>0.47</course>
  <speed>6.960007183904338</speed>
  <fix>3d</fix>
</trkpt>
<trkpt lat="40.0732822" lon="-105.2301559">
  <ele>1583.0</ele>
  <time>2026-08-28T17:51:22Z</time>
  <course>359.81</course>
  <speed>6.82</speed>
  <fix>3d</fix>
</trkpt>
<trkpt lat="40.0733029" lon="-105.2301556">
  <ele>1583.05</ele>
  <time>2026-08-28T17:51:22Z</time>
  <course>0.47</course>
  <speed>7.010007132663989</speed>
  <fix>3d</fix>
</trkpt>
<trkpt lat="40.0732946" lon="-105.2301559">
  <ele>1583.0</ele>
  <time>2026-08-28T17:51:22Z</time>
  <course>359.81</course>
  <speed>6.93</speed>
  <fix>3d</fix>
</trkpt>
<trkpt lat="40.0733093" lon="-105.2301556">
  <ele>1583.06</ele>
  <time>2026-08-28T17:51:22Z</time>
  <course>0.47</course>
  <speed>7.050007092195014</speed>
  <fix>3d</fix>
</trkpt>
<trkpt lat="40.0732946" lon="-105.2301559">
  <ele>1583.0</ele>
  <time>2026-08-28T17:51:22Z</time>
  <course>359.81</course>
  <speed>6.93</speed>
  <fix>3d</fix>
</trkpt>
<trkpt lat="40.0733156" lon="-105.2301556">
  <ele>1583.06</ele>
  <time>2026-08-28T17:51:22Z</time>
  <course>0.46</course>
  <speed>7.08000706214337</speed>
  <fix>3d</fix>
</trkpt>
<trkpt lat="40.0733072" lon="-105.230156">
  <ele>1583.0</ele>
  <time>2026-08-28T17:51:22Z</time>
  <course>359.81</course>
  <speed>7.01</speed>
  <fix>3d</fix>
</trkpt>
<trkpt lat="40.073322" lon="-105.2301556">
  <ele>1583.06</ele>
  <time>2026-08-28T17:51:22Z</time>
  <course>0.46</course>
  <speed>7.1</speed>
  <fix>3d</fix>
</trkpt>
<trkpt lat="40.0733072" lon="-105.230156">
  <ele>1583.0</ele>
  <time>2026-08-28T17:51:22Z</time>
  <course>359.81</course>
  <speed>7.01</speed>
  <fix>3d</fix>
</trkpt>
<trkpt lat="40.0733285" lon="-105.2301557">
  <ele>1583.07</ele>
  <time>2026-08-28T17:51:22Z</time>
  <course>0.46</course>
  <speed>7.12</speed>
  <fix>3d</fix>
</trkpt>
<trkpt lat="40.0733072" lon="-105.230156">
  <ele>1583.0</ele>
  <time>2026-08-28T17:51:22Z</time>
  <course>359.81</course>
  <speed>7.01</speed>
  <fix>3d</fix>
</trkpt>
<trkpt lat="40.0733348" lon="-105.2301557">
  <ele>1583.07</ele>
  <time>2026-08-28T17:51:22Z</time>
  <course>0.46</course>
  <speed>7.13</speed>
  <fix>3d</fix>
</trkpt>
<trkpt lat="40.0733198" lon="-105.2301561">
  <ele>1583.0</ele>
  <time>2026-08-28T17:51:22Z</time>
  <course>359.81</course>
  <speed>7.06</speed>
  <fix>3d</fix>
</trkpt>
<trkpt lat="40.0733412" lon="-105.2301557">
  <ele>1583.07</ele>
  <time>2026-08-28T17:51:22Z</time>
  <course>0.46</course>
  <speed>7.13</speed>
  <fix>3d</fix>
</trkpt>
<trkpt lat="40.0733198" lon="-105.2301561">
  <ele>1583.0</ele>
  <time>2026-08-28T17:51:22Z</time>
  <course>359.81</course>
  <speed>7.06</speed>
  <fix>3d</fix>
</trkpt>
<trkpt lat="40.0733475" lon="-105.2301558">
  <ele>1583.08</ele>
  <time>2026-08-28T17:51:22Z</time>
  <course>0.46</course>
  <speed>7.13</speed>
  <fix>3d</fix>
</trkpt>
<trkpt lat="40.0733326" lon="-105.2301561">
  <ele>1583.0</ele>
  <time>2026-08-28T17:51:22Z</time>
  <course>359.81</course>
  <speed>7.09</speed>
  <fix>3d</fix>
</trkpt>
<trkpt lat="40.0733539" lon="-105.2301558">
  <ele>1583.08</ele>
  <time>2026-08-28T17:51:22Z</time>
  <course>0.46</course>
  <speed>7.13</speed>
  <fix>3d</fix>
</trkpt>
<trkpt lat="40.0733326" lon="-105.2301561">
  <ele>1583.0</ele>
  <time>2026-08-28T17:51:22Z</time>
  <course>359.81</course>
  <speed>7.09</speed>
  <fix>3d</fix>
</trkpt>
<trkpt lat="40.0733602" lon="-105.2301559">
  <ele>1583.08</ele>
  <time>2026-08-28T17:51:22Z</time>
  <course>0.45</course>
  <speed>7.12</speed>
  <fix>3d</fix>
</trkpt>
<trkpt lat="40.0733453" lon="-105.2301562">
  <ele>1583.0</ele>
  <time>2026-08-28T17:51:22Z</time>
  <course>359.81</course>
  <speed>7.1</speed>
  <fix>3d</fix>
</trkpt>
<trkpt lat="40.0733665" lon="-105.2301559">
  <ele>1583.08</ele>
  <time>2026-08-28T17:51:22Z</time>
  <course>0.45</course>
  <speed>7.11</speed>
  <fix>3d</fix>
</trkpt>
<trkpt lat="40.0733453" lon="-105.2301562">
  <ele>1583.0</ele>
  <time>2026-08-28T17:51:22Z</time>
  <course>359.81</course>
  <speed>7.1</speed>
  <fix>3d</fix>
</trkpt>
<trkpt lat="40.0733729" lon="-105.2301559">
  <ele>1583.08</ele>
  <time>2026-08-28T17:51:22Z</time>
  <course>0.45</course>
  <speed>7.1</speed>
  <fix>3d</fix>
</trkpt>
<trkpt lat="40.0733581" lon="-105.2301562">
  <ele>1583.0</ele>
  <time>2026-08-28T17:51:22Z</time>
  <course>359.81</course>
  <speed>7.1</speed>
  <fix>3d</fix>
</trkpt>
<trkpt lat="40.0733792" lon="-105.230156">
  <ele>1583.08</ele>
  <time>2026-08-28T17:51:22Z</time>
  <course>0.46</course>
  <speed>7.09</speed>
  <fix>3d</fix>
</trkpt>
<trkpt lat="40.0733709" lon="-105.2301562">
  <ele>1583.0</ele>
  <time>2026-08-28T17:51:22Z</time>
  <course>359.81</course>
  <speed>7.09</speed>
  <fix>3d</fix>
</trkpt>
<trkpt lat="40.0733855" lon="-105.230156">
  <ele>1583.08</ele>
  <time>2026-08-28T17:51:22Z</time>
  <course>0.46</course>
  <speed>7.08</speed>
  <fix>3d</fix>
</trkpt>
<trkpt lat="40.0733709" lon="-105.2301562">
  <ele>1583.0</ele>
  <time>2026-08-28T17:51:22Z</time>
  <course>359.81</course>
  <speed>7.09</speed>
  <fix>3d</fix>
</trkpt>
<trkpt lat="40.0733918" lon="-105.230156">
  <ele>1583.08</ele>
  <time>2026-08-28T17:51:22Z</time>
  <course>0.46</course>
  <speed>7.07</speed>
  <fix>3d</fix>
</trkpt>
<trkpt lat="40.0733836" lon="-105.2301563">
  <ele>1583.0</ele>
  <time>2026-08-28T17:51:22Z</time>
  <course>359.81</course>
  <speed>7.08</speed>
  <fix>3d</fix>
</trkpt>
<trkpt lat="40.0733982" lon="-105.2301561">
  <ele>1583.08</ele>
  <time>2026-08-28T17:51:22Z</time>
  <course>0.46</course>
  <speed>7.06</speed>
  <fix>3d</fix>
</trkpt>
<trkpt lat="40.0733836" lon="-105.2301563">
  <ele>1583.0</ele>
  <time>2026-08-28T17:51:22Z</time>
  <course>359.81</course>
  <speed>7.08</speed>
  <fix>3d</fix>
</trkpt>
<trkpt lat="40.0734046" lon="-105.2301561">
  <ele>1583.08</ele>
  <time>2026-08-28T17:51:22Z</time>
  <course>0.46</course>
  <speed>7.05</speed>
  <fix>3d</fix>
</trkpt>
<trkpt lat="40.0733963" lon="-105.2301564">
  <ele>1583.0</ele>
  <time>2026-08-28T17:51:22Z</time>
  <course>359.81</course>
  <speed>7.06</speed>
  <fix>3d</fix>
</trkpt>
<trkpt lat="40.0734109" lon="-105.2301561">
  <ele>1583.08</ele>
  <time>2026-08-28T17:51:22Z</time>
  <course>0.46</course>
  <speed>7.04</speed>
  <fix>3d</fix>
</trkpt>
<trkpt lat="40.0733963" lon="-105.2301564">
  <ele>1583.0</ele>
  <time>2026-08-28T17:51:22Z</time>
  <course>359.81</course>
  <speed>7.06</speed>
  <fix>3d</fix>
</trkpt>
<trkpt lat="40.0734173" lon="-105.2301562">
  <ele>1583.08</ele>
  <time>2026-08-28T17:51:22Z</time>
  <course>0.46</course>
  <speed>7.03</speed>
  <fix>3d</fix>
</trkpt>
<trkpt lat="40.073409" lon="-105.2301564">
  <ele>1583.0</ele>
  <time>2026-08-28T17:51:22Z</time>
  <course>359.81</course>
  <speed>7.04</speed>
  <fix>3d</fix>
</trkpt>
<trkpt lat="40.0734237" lon="-105.2301562">
  <ele>1583.08</ele>
  <time>2026-08-28T17:51:22Z</time>
  <course>0.47</course>
  <speed>7.02</speed>
  <fix>3d</fix>
</trkpt>
<trkpt lat="40.073409" lon="-105.2301564">
  <ele>1583.0</ele>
  <time>2026-08-28T17:51:22Z</time>
  <course>359.81</course>
  <speed>7.04</speed>
  <fix>3d</fix>
</trkpt>
<trkpt lat="40.07343" lon="-105.2301563">
  <ele>1583.08</ele>
  <time>2026-08-28T17:51:22Z</time>
  <course>0.47</course>
  <speed>7.010007132663989</speed>
  <fix>3d</fix>
</trkpt>
<trkpt lat="40.0734216" lon="-105.2301565">
  <ele>1583.0</ele>
  <time>2026-08-28T17:51:22Z</time>
  <course>359.81</course>
  <speed>7.02</speed>
  <fix>3d</fix>
</trkpt>
<trkpt lat="40.0734364" lon="-105.2301563">
  <ele>1583.08</ele>
  <time>2026-08-28T17:51:22Z</time>
  <course>0.47</course>
  <speed>7.000007142853499</speed>
  <fix>3d</fix>
</trkpt>
<trkpt lat="40.0734216" lon="-105.2301565">
  <ele>1583.0</ele>
  <time>2026-08-28T17:51:22Z</time>
  <course>359.81</course>
  <speed>7.02</speed>
  <fix>3d</fix>
</trkpt>
<trkpt lat="40.0734427" lon="-105.2301563">
  <ele>1583.08</ele>
  <time>2026-08-28T17:51:22Z</time>
  <course>0.47</course>
  <speed>7.000007142853499</speed>
  <fix>3d</fix>
</trkpt>
<trkpt lat="40.0734341" lon="-105.2301566">
  <ele>1583.0</ele>
  <time>2026-08-28T17:51:22Z</time>
  <course>359.81</course>
  <speed>7.0</speed>
  <fix>3d</fix>
</trkpt>
<trkpt lat="40.073449" lon="-105.2301564">
  <ele>1583.08</ele>
  <time>2026-08-28T17:51:22Z</time>
  <course>0.48</course>
  <speed>6.990007153072163</speed>
  <fix>3d</fix>
</trkpt>
<trkpt lat="40.0734341" lon="-105.2301566">
  <ele>1583.0</ele>
  <time>2026-08-28T17:51:22Z</time>
  <course>359.81</course>
  <speed>7.0</speed>
  <fix>3d</fix>
</trkpt>
<trkpt lat="40.0734553" lon="-105.2301564">
  <ele>1583.08</ele>
  <time>2026-08-28T17:51:22Z</time>
  <course>0.48</course>
  <speed>6.980007163320106</speed>
  <fix>3d</fix>
</trkpt>
<trkpt lat="40.0734468" lon="-105.2301566">
  <ele>1583.0</ele>
  <time>2026-08-28T17:51:22Z</time>
  <course>359.81</course>
  <speed>6.99</speed>
  <fix>3d</fix>
</trkpt>
<trkpt lat="40.0734616" lon="-105.2301564">
  <ele>1583.08</ele>
  <time>2026-08-28T17:51:22Z</time>
  <course>0.48</course>
  <speed>6.980007163320106</speed>
  <fix>3d</fix>
</trkpt>
<trkpt lat="40.0734468" lon="-105.2301566">
  <ele>1583.0</ele>
  <time>2026-08-28T17:51:22Z</time>
  <course>359.81</course>
  <speed>6.99</speed>
  <fix>3d</fix>
</trkpt>
<trkpt lat="40.0734678" lon="-105.2301565">
  <ele>1583.08</ele>
  <time>2026-08-28T17:51:22Z</time>
  <course>0.48</course>
  <speed>6.970007173597456</speed>
  <fix>3d</fix>
</trkpt>
<trkpt lat="40.0734468" lon="-105.2301566">
  <ele>1583.0</ele>
  <time>2026-08-28T17:51:22Z</time>
  <course>359.81</course>
  <speed>6.99</speed>
  <fix>3d</fix>
</trkpt>
<trkpt lat="40.0734741" lon="-105.2301565">
  <ele>1583.07</ele>
  <time>2026-08-28T17:51:22Z</time>
  <course>0.49</course>
  <speed>6.960007183904338</speed>
  <fix>3d</fix>
</trkpt>
<trkpt lat="40.0734594" lon="-105.2301567">
  <ele>1583.0</ele>
  <time>2026-08-28T17:51:22Z</time>
  <course>359.81</course>
  <speed>6.97</speed>
  <fix>3d</fix>
</trkpt>
<trkpt lat="40.0734803" lon="-105.2301566">
  <ele>1583.07</ele>
  <time>2026-08-28T17:51:22Z</time>
  <course>0.49</course>
  <speed>6.960007183904338</speed>
  <fix>3d</fix>
</trkpt>
<trkpt lat="40.0734594" lon="-105.2301567">
  <ele>1583.0</ele>
  <time>2026-08-28T17:51:22Z</time>
  <course>359.81</course>
  <speed>6.97</speed>
  <fix>3d</fix>
</trkpt>
<trkpt lat="40.0734865" lon="-105.2301566">
  <ele>1583.07</ele>
  <time>2026-08-28T17:51:22Z</time>
  <course>0.49</course>
  <speed>6.9500071942408805</speed>
  <fix>3d</fix>
</trkpt>
<trkpt lat="40.0734719" lon="-105.2301567">
  <ele>1583.0</ele>
  <time>2026-08-28T17:51:22Z</time>
  <course>359.81</course>
  <speed>6.97</speed>
  <fix>3d</fix>
</trkpt>
<trkpt lat="40.0734927" lon="-105.2301566">
  <ele>1583.07</ele>
  <time>2026-08-28T17:51:22Z</time>
  <course>0.5</course>
  <speed>6.9500071942408805</speed>
  <fix>3d</fix>
</trkpt>
<trkpt lat="40.0734719" lon="-105.2301567">
  <ele>1583.0</ele>
  <time>2026-08-28T17:51:22Z</time>
  <course>359.81</course>
  <speed>6.97</speed>
  <fix>3d</fix>
</trkpt>
<trkpt lat="40.0734989" lon="-105.2301567">
  <ele>1583.07</ele>
  <time>2026-08-28T17:51:22Z</time>
  <course>0.5</course>
  <speed>6.9500071942408805</speed>
  <fix>3d</fix>
</trkpt>
<trkpt lat="40.0734844" lon="-105.2301567">
  <ele>1583.0</ele>
  <time>2026-08-28T17:51:22Z</time>
  <course>359.81</course>
  <speed>6.96</speed>
  <fix>3d</fix>
</trkpt>
<trkpt lat="40.0735051" lon="-105.2301567">
  <ele>1583.07</ele>
  <time>2026-08-28T17:51:22Z</time>
  <course>0.5</course>
  <speed>6.9500071942408805</speed>
  <fix>3d</fix>
</trkpt>
<trkpt lat="40.0734969" lon="-105.2301568">
  <ele>1583.0</ele>
  <time>2026-08-28T17:51:22Z</time>
  <course>359.81</course>
  <speed>6.97</speed>
  <fix>3d</fix>
</trkpt>
<trkpt lat="40.0735113" lon="-105.2301567">
  <ele>1583.07</ele>
  <time>2026-08-28T17:51:23Z</time>
  <course>0.51</course>
  <speed>6.9500071942408805</speed>
  <fix>3d</fix>
</trkpt>
<trkpt lat="40.0734969" lon="-105.2301568">
  <ele>1583.0</ele>
  <time>2026-08-28T17:51:23Z</time>
  <course>359.81</course>
  <speed>6.97</speed>
  <fix>3d</fix>
</trkpt>
<trkpt lat="40.0735176" lon="-105.2301567">
  <ele>1583.07</ele>
  <time>2026-08-28T17:51:23Z</time>
  <course>0.51</course>
  <speed>6.9500071942408805</speed>
  <fix>3d</fix>
</trkpt>
<trkpt lat="40.0735094" lon="-105.2301569">
  <ele>1583.0</ele>
  <time>2026-08-28T17:51:23Z</time>
  <course>359.81</course>
  <speed>6.97</speed>
  <fix>3d</fix>
</trkpt>
<trkpt lat="40.0735238" lon="-105.2301568">
  <ele>1583.07</ele>
  <time>2026-08-28T17:51:23Z</time>
  <course>0.51</course>
  <speed>6.960007183904338</speed>
  <fix>3d</fix>
</trkpt>
<trkpt lat="40.0735094" lon="-105.2301569">
  <ele>1583.0</ele>
  <time>2026-08-28T17:51:23Z</time>
  <course>359.81</course>
  <speed>6.97</speed>
  <fix>3d</fix>
</trkpt>
<trkpt lat="40.0735301" lon="-105.2301568">
  <ele>1583.07</ele>
  <time>2026-08-28T17:51:23Z</time>
  <course>0.52</course>
  <speed>6.960007183904338</speed>
  <fix>3d</fix>
</trkpt>
<trkpt lat="40.0735219" lon="-105.2301569">
  <ele>1583.0</ele>
  <time>2026-08-28T17:51:23Z</time>
  <course>359.81</course>
  <speed>6.98</speed>
  <fix>3d</fix>
</trkpt>
<trkpt lat="40.0735364" lon="-105.2301568">
  <ele>1583.06</ele>
  <time>2026-08-28T17:51:23Z</time>
  <course>0.52</course>
  <speed>6.970007173597456</speed>
  <fix>3d</fix>
</trkpt>
<trkpt lat="40.0735219" lon="-105.2301569">
  <ele>1583.0</ele>
  <time>2026-08-28T17:51:23Z</time>
  <course>359.81</course>
  <speed>6.98</speed>
  <fix>3d</fix>
</trkpt>
<trkpt lat="40.0735427" lon="-105.2301569">
  <ele>1583.06</ele>
  <time>2026-08-28T17:51:23Z</time>
  <course>0.52</course>
  <speed>6.980007163320106</speed>
  <fix>3d</fix>
</trkpt>
<trkpt lat="40.0735346" lon="-105.2301569">
  <ele>1583.0</ele>
  <time>2026-08-28T17:51:23Z</time>
  <course>359.81</course>
  <speed>6.99</speed>
  <fix>3d</fix>
</trkpt>
<trkpt lat="40.0735491" lon="-105.2301569">
  <ele>1583.06</ele>
  <time>2026-08-28T17:51:23Z</time>
  <course>0.53</course>
  <speed>6.980007163320106</speed>
  <fix>3d</fix>
</trkpt>
<trkpt lat="40.0735346" lon="-105.2301569">
  <ele>1583.0</ele>
  <time>2026-08-28T17:51:23Z</time>
  <course>359.81</course>
  <speed>6.99</speed>
  <fix>3d</fix>
</trkpt>
<trkpt lat="40.0735554" lon="-105.2301569">
  <ele>1583.06</ele>
  <time>2026-08-28T17:51:23Z</time>
  <course>0.53</course>
  <speed>6.980007163320106</speed>
  <fix>3d</fix>
</trkpt>
<trkpt lat="40.0735471" lon="-105.230157">
  <ele>1583.0</ele>
  <time>2026-08-28T17:51:23Z</time>
  <course>359.81</course>
  <speed>7.0</speed>
  <fix>3d</fix>
</trkpt>
<trkpt lat="40.0735617" lon="-105.2301569">
  <ele>1583.05</ele>
  <time>2026-08-28T17:51:23Z</time>
  <course>0.53</course>
  <speed>6.990007153072163</speed>
  <fix>3d</fix>
</trkpt>
<trkpt lat="40.0735471" lon="-105.230157">
  <ele>1583.0</ele>
  <time>2026-08-28T17:51:23Z</time>
  <course>359.81</course>
  <speed>7.0</speed>
  <fix>3d</fix>
</trkpt>
<trkpt lat="40.073568" lon="-105.230157">
  <ele>1583.05</ele>
  <time>2026-08-28T17:51:23Z</time>
  <course>0.53</course>
  <speed>6.990007153072163</speed>
  <fix>3d</fix>
</trkpt>
<trkpt lat="40.0735598" lon="-105.2301571">
  <ele>1583.0</ele>
  <time>2026-08-28T17:51:23Z</time>
  <course>359.81</course>
  <speed>7.01</speed>
  <fix>3d</fix>
</trkpt>
<trkpt lat="40.0735744" lon="-105.230157">
  <ele>1583.05</ele>
  <time>2026-08-28T17:51:23Z</time>
  <course>0.54</course>
  <speed>7.000007142853499</speed>
  <fix>3d</fix>
</trkpt>
<trkpt lat="40.0735598" lon="-105.2301571">
  <ele>1583.0</ele>
  <time>2026-08-28T17:51:23Z</time>
  <course>359.81</course>
  <speed>7.01</speed>
  <fix>3d</fix>
</trkpt>
<trkpt lat="40.0735807" lon="-105.230157">
  <ele>1583.05</ele>
  <time>2026-08-28T17:51:23Z</time>
  <course>0.54</course>
  <speed>7.000007142853499</speed>
  <fix>3d</fix>
</trkpt>
<trkpt lat="40.0735724" lon="-105.2301571">
  <ele>1583.0</ele>
  <time>2026-08-28T17:51:23Z</time>
  <course>359.81</course>
  <speed>7.01</speed>
  <fix>3d</fix>
</trkpt>
<trkpt lat="40.0735871" lon="-105.230157">
  <ele>1583.05</ele>
  <time>2026-08-28T17:51:23Z</time>
  <course>0.54</course>
  <speed>7.000007142853499</speed>
  <fix>3d</fix>
</trkpt>
<trkpt lat="40.0735724" lon="-105.2301571">
  <ele>1583.0</ele>
  <time>2026-08-28T17:51:23Z</time>
  <course>359.81</course>
  <speed>7.01</speed>
  <fix>3d</fix>
</trkpt>
<trkpt lat="40.0735934" lon="-105.2301571">
  <ele>1583.05</ele>
  <time>2026-08-28T17:51:23Z</time>
  <course>0.55</course>
  <speed>7.000007142853499</speed>
  <fix>3d</fix>
</trkpt>
<trkpt lat="40.0735724" lon="-105.2301571">
  <ele>1583.0</ele>
  <time>2026-08-28T17:51:23Z</time>
  <course>359.81</course>
  <speed>7.01</speed>
  <fix>3d</fix>
</trkpt>
<trkpt lat="40.0735997" lon="-105.2301571">
  <ele>1583.06</ele>
  <time>2026-08-28T17:51:23Z</time>
  <course>0.55</course>
  <speed>7.000007142853499</speed>
  <fix>3d</fix>
</trkpt>
<trkpt lat="40.0735849" lon="-105.2301572">
  <ele>1583.0</ele>
  <time>2026-08-28T17:51:23Z</time>
  <course>359.81</course>
  <speed>7.02</speed>
  <fix>3d</fix>
</trkpt>
<trkpt lat="40.0736059" lon="-105.2301571">
  <ele>1583.06</ele>
  <time>2026-08-28T17:51:23Z</time>
  <course>0.55</course>
  <speed>7.000007142853499</speed>
  <fix>3d</fix>
</trkpt>
<trkpt lat="40.0735849" lon="-105.2301572">
  <ele>1583.0</ele>
  <time>2026-08-28T17:51:23Z</time>
  <course>359.81</course>
  <speed>7.02</speed>
  <fix>3d</fix>
</trkpt>
<trkpt lat="40.0736122" lon="-105.2301572">
  <ele>1583.06</ele>
  <time>2026-08-28T17:51:23Z</time>
  <course>0.56</course>
  <speed>7.000007142853499</speed>
  <fix>3d</fix>
</trkpt>
<trkpt lat="40.0735976" lon="-105.2301573">
  <ele>1583.0</ele>
  <time>2026-08-28T17:51:23Z</time>
  <course>359.81</course>
  <speed>7.02</speed>
  <fix>3d</fix>
</trkpt>
<trkpt lat="40.0736184" lon="-105.2301572">
  <ele>1583.06</ele>
  <time>2026-08-28T17:51:23Z</time>
  <course>0.56</course>
  <speed>7.010007132663989</speed>
  <fix>3d</fix>
</trkpt>
<trkpt lat="40.0735976" lon="-105.2301573">
  <ele>1583.0</ele>
  <time>2026-08-28T17:51:23Z</time>
  <course>359.81</course>
  <speed>7.02</speed>
  <fix>3d</fix>
</trkpt>
<trkpt lat="40.0736247" lon="-105.2301572">
  <ele>1583.07</ele>
  <time>2026-08-28T17:51:23Z</time>
  <course>0.57</course>
  <speed>7.020007122503509</speed>
  <fix>3d</fix>
</trkpt>
<trkpt lat="40.0736102" lon="-105.2301573">
  <ele>1583.0</ele>
  <time>2026-08-28T17:51:23Z</time>
  <course>359.81</course>
  <speed>7.03</speed>
  <fix>3d</fix>
</trkpt>
<trkpt lat="40.073631" lon="-105.2301572">
  <ele>1583.07</ele>
  <time>2026-08-28T17:51:23Z</time>
  <course>0.57</course>
  <speed>7.040007102269145</speed>
  <fix>3d</fix>
</trkpt>
<trkpt lat="40.0736102" lon="-105.2301573">
  <ele>1583.0</ele>
  <time>2026-08-28T17:51:23Z</time>
  <course>359.81</course>
  <speed>7.03</speed>
  <fix>3d</fix>
</trkpt>
<trkpt lat="40.0736373" lon="-105.2301573">
  <ele>1583.07</ele>
  <time>2026-08-28T17:51:23Z</time>
  <course>0.57</course>
  <speed>7.070007072132248</speed>
  <fix>3d</fix>
</trkpt>
<trkpt lat="40.0736229" lon="-105.2301574">
  <ele>1583.0</ele>
  <time>2026-08-28T17:51:23Z</time>
  <course>359.81</course>
  <speed>7.06</speed>
  <fix>3d</fix>
</trkpt>
<trkpt lat="40.0736437" lon="-105.2301573">
  <ele>1583.07</ele>
  <time>2026-08-28T17:51:23Z</time>
  <course>0.58</course>
  <speed>7.110007032345327</speed>
  <fix>3d</fix>
</trkpt>
<trkpt lat="40.0736356" lon="-105.2301574">
  <ele>1583.0</ele>
  <time>2026-08-28T17:51:23Z</time>
  <course>359.81</course>
  <speed>7.12</speed>
  <fix>3d</fix>
</trkpt>
<trkpt lat="40.0736501" lon="-105.2301573">
  <ele>1583.07</ele>
  <time>2026-08-28T17:51:23Z</time>
  <course>0.58</course>
  <speed>7.170006973497307</speed>
  <fix>3d</fix>
</trkpt>
<trkpt lat="40.0736356" lon="-105.2301574">
  <ele>1583.0</ele>
  <time>2026-08-28T17:51:23Z</time>
  <course>359.81</course>
  <speed>7.12</speed>
  <fix>3d</fix>
</trkpt>
<trkpt lat="40.0736565" lon="-105.2301573">
  <ele>1583.07</ele>
  <time>2026-08-28T17:51:23Z</time>
  <course>0.58</course>
  <speed>7.2300069156260145</speed>
  <fix>3d</fix>
</trkpt>
<trkpt lat="40.0736485" lon="-105.2301574">
  <ele>1583.0</ele>
  <time>2026-08-28T17:51:23Z</time>
  <course>359.81</course>
  <speed>7.21</speed>
  <fix>3d</fix>
</trkpt>
<trkpt lat="40.0736632" lon="-105.2301574">
  <ele>1583.07</ele>
  <time>2026-08-28T17:51:23Z</time>
  <course>0.59</course>
  <speed>7.31</speed>
  <fix>3d</fix>
</trkpt>
<trkpt lat="40.0736485" lon="-105.2301574">
  <ele>1583.0</ele>
  <time>2026-08-28T17:51:23Z</time>
  <course>359.81</course>
  <speed>7.21</speed>
  <fix>3d</fix>
</trkpt>
<trkpt lat="40.0736698" lon="-105.2301574">
  <ele>1583.06</ele>
  <time>2026-08-28T17:51:23Z</time>
  <course>0.59</course>
  <speed>7.4</speed>
  <fix>3d</fix>
</trkpt>
<trkpt lat="40.0736615" lon="-105.2301575">
  <ele>1583.0</ele>
  <time>2026-08-28T17:51:23Z</time>
  <course>359.81</course>
  <speed>7.36</speed>
  <fix>3d</fix>
</trkpt>
<trkpt lat="40.0736766" lon="-105.2301574">
  <ele>1583.06</ele>
  <time>2026-08-28T17:51:23Z</time>
  <course>0.59</course>
  <speed>7.5</speed>
  <fix>3d</fix>
</trkpt>
<trkpt lat="40.0736615" lon="-105.2301575">
  <ele>1583.0</ele>
  <time>2026-08-28T17:51:23Z</time>
  <course>359.81</course>
  <speed>7.36</speed>
  <fix>3d</fix>
</trkpt>
<trkpt lat="40.0736835" lon="-105.2301574">
  <ele>1583.06</ele>
  <time>2026-08-28T17:51:23Z</time>
  <course>0.59</course>
  <speed>7.61</speed>
  <fix>3d</fix>
</trkpt>
<trkpt lat="40.0736749" lon="-105.2301576">
  <ele>1583.0</ele>
  <time>2026-08-28T17:51:23Z</time>
  <course>359.81</course>
  <speed>7.54</speed>
  <fix>3d</fix>
</trkpt>
<trkpt lat="40.0736905" lon="-105.2301574">
  <ele>1583.05</ele>
  <time>2026-08-28T17:51:23Z</time>
  <course>0.6</course>
  <speed>7.72</speed>
  <fix>3d</fix>
</trkpt>
<trkpt lat="40.0736749" lon="-105.2301576">
  <ele>1583.0</ele>
  <time>2026-08-28T17:51:23Z</time>
  <course>359.81</course>
  <speed>7.54</speed>
  <fix>3d</fix>
</trkpt>
<trkpt lat="40.0736976" lon="-105.2301575">
  <ele>1583.05</ele>
  <time>2026-08-28T17:51:23Z</time>
  <course>0.6</course>
  <speed>7.84</speed>
  <fix>3d</fix>
</trkpt>
<trkpt lat="40.0736887" lon="-105.2301576">
  <ele>1583.0</ele>
  <time>2026-08-28T17:51:23Z</time>
  <course>359.81</course>
  <speed>7.75</speed>
  <fix>3d</fix>
</trkpt>
<trkpt lat="40.0737048" lon="-105.2301575">
  <ele>1583.05</ele>
  <time>2026-08-28T17:51:23Z</time>
  <course>0.6</course>
  <speed>7.96</speed>
  <fix>3d</fix>
</trkpt>
<trkpt lat="40.0736887" lon="-105.2301576">
  <ele>1583.0</ele>
  <time>2026-08-28T17:51:23Z</time>
  <course>359.81</course>
  <speed>7.75</speed>
  <fix>3d</fix>
</trkpt>
<trkpt lat="40.0737121" lon="-105.2301575">
  <ele>1583.05</ele>
  <time>2026-08-28T17:51:23Z</time>
  <course>0.6</course>
  <speed>8.09</speed>
  <fix>3d</fix>
</trkpt>
<trkpt lat="40.0737028" lon="-105.2301577">
  <ele>1583.0</ele>
  <time>2026-08-28T17:51:23Z</time>
  <course>359.81</course>
  <speed>7.98</speed>
  <fix>3d</fix>
</trkpt>
<trkpt lat="40.0737195" lon="-105.2301575">
  <ele>1583.05</ele>
  <time>2026-08-28T17:51:23Z</time>
  <course>0.61</course>
  <speed>8.21</speed>
  <fix>3d</fix>
</trkpt>
<trkpt lat="40.0737028" lon="-105.2301577">
  <ele>1583.0</ele>
  <time>2026-08-28T17:51:23Z</time>
  <course>359.81</course>
  <speed>7.98</speed>
  <fix>3d</fix>
</trkpt>
<trkpt lat="40.073727" lon="-105.2301575">
  <ele>1583.05</ele>
  <time>2026-08-28T17:51:23Z</time>
  <course>0.61</course>
  <speed>8.34</speed>
  <fix>3d</fix>
</trkpt>
<trkpt lat="40.0737174" lon="-105.2301578">
  <ele>1583.0</ele>
  <time>2026-08-28T17:51:23Z</time>
  <course>359.81</course>
  <speed>8.22</speed>
  <fix>3d</fix>
</trkpt>
<trkpt lat="40.0737346" lon="-105.2301576">
  <ele>1583.05</ele>
  <time>2026-08-28T17:51:23Z</time>
  <course>0.61</course>
  <speed>8.47</speed>
  <fix>3d</fix>
</trkpt>
<trkpt lat="40.0737174" lon="-105.2301578">
  <ele>1583.0</ele>
  <time>2026-08-28T17:51:23Z</time>
  <course>359.81</course>
  <speed>8.22</speed>
  <fix>3d</fix>
</trkpt>
<trkpt lat="40.0737424" lon="-105.2301576">
  <ele>1583.06</ele>
  <time>2026-08-28T17:51:23Z</time>
  <course>0.61</course>
  <speed>8.6</speed>
  <fix>3d</fix>
</trkpt>
<trkpt lat="40.0737174" lon="-105.2301578">
  <ele>1583.0</ele>
  <time>2026-08-28T17:51:23Z</time>
  <course>359.81</course>
  <speed>8.22</speed>
  <fix>3d</fix>
</trkpt>
<trkpt lat="40.0737502" lon="-105.2301576">
  <ele>1583.06</ele>
  <time>2026-08-28T17:51:23Z</time>
  <course>0.61</course>
  <speed>8.73</speed>
  <fix>3d</fix>
</trkpt>
<trkpt lat="40.0737324" lon="-105.2301578">
  <ele>1583.0</ele>
  <time>2026-08-28T17:51:23Z</time>
  <course>359.81</course>
  <speed>8.47</speed>
  <fix>3d</fix>
</trkpt>
<trkpt lat="40.0737581" lon="-105.2301576">
  <ele>1583.06</ele>
  <time>2026-08-28T17:51:23Z</time>
  <course>0.61</course>
  <speed>8.85</speed>
  <fix>3d</fix>
</trkpt>
<trkpt lat="40.0737324" lon="-105.2301578">
  <ele>1583.0</ele>
  <time>2026-08-28T17:51:23Z</time>
  <course>359.81</course>
  <speed>8.47</speed>
  <fix>3d</fix>
</trkpt>
<trkpt lat="40.0737661" lon="-105.2301576">
  <ele>1583.06</ele>
  <time>2026-08-28T17:51:23Z</time>
  <course>0.62</course>
  <speed>8.97</speed>
  <fix>3d</fix>
</trkpt>
<trkpt lat="40.0737479" lon="-105.2301579">
  <ele>1583.0</ele>
  <time>2026-08-28T17:51:23Z</time>
  <course>359.81</course>
  <speed>8.72</speed>
  <fix>3d</fix>
</trkpt>
<trkpt lat="40.0737741" lon="-105.2301577">
  <ele>1583.06</ele>
  <time>2026-08-28T17:51:23Z</time>
  <course>0.62</course>
  <speed>9.09</speed>
  <fix>3d</fix>
</trkpt>
<trkpt lat="40.0737479" lon="-105.2301579">
  <ele>1583.0</ele>
  <time>2026-08-28T17:51:23Z</time>
  <course>359.81</course>
  <speed>8.72</speed>
  <fix>3d</fix>
</trkpt>
<trkpt lat="40.0737823" lon="-105.2301577">
  <ele>1583.06</ele>
  <time>2026-08-28T17:51:23Z</time>
  <course>0.62</course>
  <speed>9.21</speed>
  <fix>3d</fix>
</trkpt>
<trkpt lat="40.0737637" lon="-105.2301579">
  <ele>1583.0</ele>
  <time>2026-08-28T17:51:23Z</time>
  <course>359.81</course>
  <speed>8.97</speed>
  <fix>3d</fix>
</trkpt>
<trkpt lat="40.0737907" lon="-105.2301577">
  <ele>1583.06</ele>
  <time>2026-08-28T17:51:23Z</time>
  <course>0.62</course>
  <speed>9.33</speed>
  <fix>3d</fix>
</trkpt>
<trkpt lat="40.0737801" lon="-105.230158">
  <ele>1583.0</ele>
  <time>2026-08-28T17:51:23Z</time>
  <course>359.81</course>
  <speed>9.22</speed>
  <fix>3d</fix>
</trkpt>
<trkpt lat="40.0737992" lon="-105.2301577">
  <ele>1583.05</ele>
  <time>2026-08-28T17:51:23Z</time>
  <course>0.61</course>
  <speed>9.45</speed>
  <fix>3d</fix>
</trkpt>
<trkpt lat="40.0737801" lon="-105.230158">
  <ele>1583.0</ele>
  <time>2026-08-28T17:51:23Z</time>
  <course>359.81</course>
  <speed>9.22</speed>
  <fix>3d</fix>
</trkpt>
<trkpt lat="40.0738077" lon="-105.2301578">
  <ele>1583.05</ele>
  <time>2026-08-28T17:51:23Z</time>
  <course>0.61</course>
  <speed>9.57</speed>
  <fix>3d</fix>
</trkpt>
<trkpt lat="40.0737969" lon="-105.2301581">
  <ele>1583.0</ele>
  <time>2026-08-28T17:51:23Z</time>
  <course>359.81</course>
  <speed>9.45</speed>
  <fix>3d</fix>
</trkpt>
<trkpt lat="40.0738164" lon="-105.2301578">
  <ele>1583.05</ele>
  <time>2026-08-28T17:51:23Z</time>
  <course>0.61</course>
  <speed>9.68</speed>
  <fix>3d</fix>
</trkpt>
<trkpt lat="40.0737969" lon="-105.2301581">
  <ele>1583.0</ele>
  <time>2026-08-28T17:51:23Z</time>
  <course>359.81</course>
  <speed>9.45</speed>
  <fix>3d</fix>
</trkpt>
<trkpt lat="40.0738252" lon="-105.2301578">
  <ele>1583.05</ele>
  <time>2026-08-28T17:51:23Z</time>
  <course>0.61</course>
  <speed>9.8</speed>
  <fix>3d</fix>
</trkpt>
<trkpt lat="40.073814" lon="-105.2301582">
  <ele>1583.0</ele>
  <time>2026-08-28T17:51:23Z</time>
  <course>359.81</course>
  <speed>9.68</speed>
  <fix>3d</fix>
</trkpt>
<trkpt lat="40.0738342" lon="-105.2301578">
  <ele>1583.05</ele>
  <time>2026-08-28T17:51:23Z</time>
  <course>0.61</course>
  <speed>9.91</speed>
  <fix>3d</fix>
</trkpt>
<trkpt lat="40.073814" lon="-105.2301582">
  <ele>1583.0</ele>
  <time>2026-08-28T17:51:23Z</time>
  <course>359.81</course>
  <speed>9.68</speed>
  <fix>3d</fix>
</trkpt>
<trkpt lat="40.0738432" lon="-105.2301579">
  <ele>1583.05</ele>
  <time>2026-08-28T17:51:23Z</time>
  <course>0.61</course>
  <speed>10.02</speed>
  <fix>3d</fix>
</trkpt>
<trkpt lat="40.0738317" lon="-105.2301583">
  <ele>1583.0</ele>
  <time>2026-08-28T17:51:23Z</time>
  <course>359.81</course>
  <speed>9.9</speed>
  <fix>3d</fix>
</trkpt>
<trkpt lat="40.0738524" lon="-105.2301579">
  <ele>1583.05</ele>
  <time>2026-08-28T17:51:23Z</time>
  <course>0.6</course>
  <speed>10.13</speed>
  <fix>3d</fix>
</trkpt>
<trkpt lat="40.0738317" lon="-105.2301583">
  <ele>1583.0</ele>
  <time>2026-08-28T17:51:23Z</time>
  <course>359.81</course>
  <speed>9.9</speed>
  <fix>3d</fix>
</trkpt>
<trkpt lat="40.0738616" lon="-105.2301579">
  <ele>1583.05</ele>
  <time>2026-08-28T17:51:23Z</time>
  <course>0.6</course>
  <speed>10.24</speed>
  <fix>3d</fix>
</trkpt>
<trkpt lat="40.0738496" lon="-105.2301583">
  <ele>1583.0</ele>
  <time>2026-08-28T17:51:23Z</time>
  <course>359.81</course>
  <speed>10.11</speed>
  <fix>3d</fix>
</trkpt>
<trkpt lat="40.073871" lon="-105.230158">
  <ele>1583.05</ele>
  <time>2026-08-28T17:51:23Z</time>
  <course>0.6</course>
  <speed>10.34</speed>
  <fix>3d</fix>
</trkpt>
<trkpt lat="40.0738496" lon="-105.2301583">
  <ele>1583.0</ele>
  <time>2026-08-28T17:51:23Z</time>
  <course>359.81</course>
  <speed>10.11</speed>
  <fix>3d</fix>
</trkpt>
<trkpt lat="40.0738804" lon="-105.230158">
  <ele>1583.05</ele>
  <time>2026-08-28T17:51:23Z</time>
  <course>0.59</course>
  <speed>10.44</speed>
  <fix>3d</fix>
</trkpt>
<trkpt lat="40.073868" lon="-105.2301584">
  <ele>1583.0</ele>
  <time>2026-08-28T17:51:23Z</time>
  <course>359.81</course>
  <speed>10.31</speed>
  <fix>3d</fix>
</trkpt>
<trkpt lat="40.0738899" lon="-105.2301581">
  <ele>1583.06</ele>
  <time>2026-08-28T17:51:23Z</time>
  <course>0.59</course>
  <speed>10.54</speed>
  <fix>3d</fix>
</trkpt>
<trkpt lat="40.073868" lon="-105.2301584">
  <ele>1583.0</ele>
  <time>2026-08-28T17:51:23Z</time>
  <course>359.81</course>
  <speed>10.31</speed>
  <fix>3d</fix>
</trkpt>
<trkpt lat="40.0738994" lon="-105.2301581">
  <ele>1583.06</ele>
  <time>2026-08-28T17:51:23Z</time>
  <course>0.59</course>
  <speed>10.64</speed>
  <fix>3d</fix>
</trkpt>
<trkpt lat="40.0738867" lon="-105.2301585">
  <ele>1583.0</ele>
  <time>2026-08-28T17:51:23Z</time>
  <course>359.81</course>
  <speed>10.51</speed>
  <fix>3d</fix>
</trkpt>
<trkpt lat="40.0739091" lon="-105.2301581">
  <ele>1583.06</ele>
  <time>2026-08-28T17:51:23Z</time>
  <course>0.58</course>
  <speed>10.74</speed>
  <fix>3d</fix>
</trkpt>
<trkpt lat="40.0738867" lon="-105.2301585">
  <ele>1583.0</ele>
  <time>2026-08-28T17:51:23Z</time>
  <course>359.81</course>
  <speed>10.51</speed>
  <fix>3d</fix>
</trkpt>
<trkpt lat="40.0739188" lon="-105.2301582">
  <ele>1583.05</ele>
  <time>2026-08-28T17:51:23Z</time>
  <course>0.58</course>
  <speed>10.84</speed>
  <fix>3d</fix>
</trkpt>
<trkpt lat="40.0738867" lon="-105.2301585">
  <ele>1583.0</ele>
  <time>2026-08-28T17:51:23Z</time>
  <course>359.81</course>
  <speed>10.51</speed>
  <fix>3d</fix>
</trkpt>
<trkpt lat="40.0739286" lon="-105.2301582">
  <ele>1583.05</ele>
  <time>2026-08-28T17:51:23Z</time>
  <course>0.58</course>
  <speed>10.93</speed>
  <fix>3d</fix>
</trkpt>
<trkpt lat="40.0739058" lon="-105.2301586">
  <ele>1583.0</ele>
  <time>2026-08-28T17:51:23Z</time>
  <course>359.81</course>
  <speed>10.7</speed>
  <fix>3d</fix>
</trkpt>
<trkpt lat="40.0739384" lon="-105.2301583">
  <ele>1583.06</ele>
  <time>2026-08-28T17:51:23Z</time>
  <course>0.58</course>
  <speed>11.02</speed>
  <fix>3d</fix>
</trkpt>
<trkpt lat="40.0739058" lon="-105.2301586">
  <ele>1583.0</ele>
  <time>2026-08-28T17:51:23Z</time>
  <course>359.81</course>
  <speed>10.7</speed>
  <fix>3d</fix>
</trkpt>
<trkpt lat="40.0739482" lon="-105.2301583">
  <ele>1583.06</ele>
  <time>2026-08-28T17:51:23Z</time>
  <course>0.57</course>
  <speed>11.11</speed>
  <fix>3d</fix>
</trkpt>
<trkpt lat="40.0739253" lon="-105.2301586">
  <ele>1583.0</ele>
  <time>2026-08-28T17:51:23Z</time>
  <course>359.81</course>
  <speed>10.89</speed>
  <fix>3d</fix>
</trkpt>
<trkpt lat="40.0739582" lon="-105.2301583">
  <ele>1583.07</ele>
  <time>2026-08-28T17:51:23Z</time>
  <course>0.57</course>
  <speed>11.2</speed>
  <fix>3d</fix>
</trkpt>
<trkpt lat="40.0739253" lon="-105.2301586">
  <ele>1583.0</ele>
  <time>2026-08-28T17:51:23Z</time>
  <course>359.81</course>
  <speed>10.89</speed>
  <fix>3d</fix>
</trkpt>
<trkpt lat="40.0739682" lon="-105.2301584">
  <ele>1583.07</ele>
  <time>2026-08-28T17:51:23Z</time>
  <course>0.57</course>
  <speed>11.28</speed>
  <fix>3d</fix>
</trkpt>
<trkpt lat="40.073945" lon="-105.2301587">
  <ele>1583.0</ele>
  <time>2026-08-28T17:51:23Z</time>
  <course>359.81</course>
  <speed>11.08</speed>
  <fix>3d</fix>
</trkpt>
<trkpt lat="40.0739783" lon="-105.2301584">
  <ele>1583.07</ele>
  <time>2026-08-28T17:51:23Z</time>
  <course>0.57</course>
  <speed>11.37</speed>
  <fix>3d</fix>
</trkpt>
<trkpt lat="40.073945" lon="-105.2301587">
  <ele>1583.0</ele>
  <time>2026-08-28T17:51:23Z</time>
  <course>359.81</course>
  <speed>11.08</speed>
  <fix>3d</fix>
</trkpt>
<trkpt lat="40.0739885" lon="-105.2301585">
  <ele>1583.07</ele>
  <time>2026-08-28T17:51:23Z</time>
  <course>0.56</course>
  <speed>11.45</speed>
  <fix>3d</fix>
</trkpt>
<trkpt lat="40.073965" lon="-105.2301588">
  <ele>1583.0</ele>
  <time>2026-08-28T17:51:23Z</time>
  <course>359.81</course>
  <speed>11.26</speed>
  <fix>3d</fix>
</trkpt>
<trkpt lat="40.0739988" lon="-105.2301585">
  <ele>1583.08</ele>
  <time>2026-08-28T17:51:23Z</time>
  <course>0.56</course>
  <speed>11.53</speed>
  <fix>3d</fix>
</trkpt>
<trkpt lat="40.0739855" lon="-105.2301589">
  <ele>1583.0</ele>
  <time>2026-08-28T17:51:23Z</time>
  <course>359.81</course>
  <speed>11.44</speed>
  <fix>3d</fix>
</trkpt>
<trkpt lat="40.0740092" lon="-105.2301586">
  <ele>1583.08</ele>
  <time>2026-08-28T17:51:23Z</time>
  <course>0.56</course>
  <speed>11.61</speed>
  <fix>3d</fix>
</trkpt>
<trkpt lat="40.0739855" lon="-105.2301589">
  <ele>1583.0</ele>
  <time>2026-08-28T17:51:23Z</time>
  <course>359.81</course>
  <speed>11.44</speed>
  <fix>3d</fix>
</trkpt>
<trkpt lat="40.0740196" lon="-105.2301586">
  <ele>1583.08</ele>
  <time>2026-08-28T17:51:23Z</time>
  <course>0.56</course>
  <speed>11.69</speed>
  <fix>3d</fix>
</trkpt>
<trkpt lat="40.0740062" lon="-105.230159">
  <ele>1583.0</ele>
  <time>2026-08-28T17:51:23Z</time>
  <course>359.81</course>
  <speed>11.6</speed>
  <fix>3d</fix>
</trkpt>
<trkpt lat="40.0740302" lon="-105.2301587">
  <ele>1583.08</ele>
  <time>2026-08-28T17:51:23Z</time>
  <course>0.55</course>
  <speed>11.76</speed>
  <fix>3d</fix>
</trkpt>
<trkpt lat="40.0740062" lon="-105.230159">
  <ele>1583.0</ele>
  <time>2026-08-28T17:51:23Z</time>
  <course>359.81</course>
  <speed>11.6</speed>
  <fix>3d</fix>
</trkpt>
<trkpt lat="40.0740408" lon="-105.2301587">
  <ele>1583.08</ele>
  <time>2026-08-28T17:51:23Z</time>
  <course>0.55</course>
  <speed>11.82</speed>
  <fix>3d</fix>
</trkpt>
<trkpt lat="40.0740271" lon="-105.2301591">
  <ele>1583.0</ele>
  <time>2026-08-28T17:51:23Z</time>
  <course>359.81</course>
  <speed>11.74</speed>
  <fix>3d</fix>
</trkpt>
<trkpt lat="40.0740515" lon="-105.2301588">
  <ele>1583.08</ele>
  <time>2026-08-28T17:51:23Z</time>
  <course>0.55</course>
  <speed>11.87</speed>
  <fix>3d</fix>
</trkpt>
<trkpt lat="40.0740271" lon="-105.2301591">
  <ele>1583.0</ele>
  <time>2026-08-28T17:51:23Z</time>
  <course>359.81</course>
  <speed>11.74</speed>
  <fix>3d</fix>
</trkpt>
<trkpt lat="40.0740624" lon="-105.2301588">
  <ele>1583.09</ele>
  <time>2026-08-28T17:51:23Z</time>
  <course>0.55</course>
  <speed>11.920004194630135</speed>
  <fix>3d</fix>
</trkpt>
<trkpt lat="40.0740483" lon="-105.2301592">
  <ele>1583.0</ele>
  <time>2026-08-28T17:51:23Z</time>
  <course>359.81</course>
  <speed>11.85</speed>
  <fix>3d</fix>
</trkpt>
<trkpt lat="40.0740732" lon="-105.2301589">
  <ele>1583.09</ele>
  <time>2026-08-28T17:51:23Z</time>
  <course>0.54</course>
  <speed>11.960004180601278</speed>
  <fix>3d</fix>
</trkpt>
<trkpt lat="40.0740483" lon="-105.2301592">
  <ele>1583.0</ele>
  <time>2026-08-28T17:51:23Z</time>
  <course>359.81</course>
  <speed>11.85</speed>
  <fix>3d</fix>
</trkpt>
<trkpt lat="40.074084" lon="-105.2301589">
  <ele>1583.09</ele>
  <time>2026-08-28T17:51:23Z</time>
  <course>0.54</course>
  <speed>11.99000417014106</speed>
  <fix>3d</fix>
</trkpt>
<trkpt lat="40.0740697" lon="-105.2301593">
  <ele>1583.0</ele>
  <time>2026-08-28T17:51:23Z</time>
  <course>359.81</course>
  <speed>11.93</speed>
  <fix>3d</fix>
</trkpt>
<trkpt lat="40.0740948" lon="-105.230159">
  <ele>1583.09</ele>
  <time>2026-08-28T17:51:23Z</time>
  <course>0.54</course>
  <speed>12.020004159733057</speed>
  <fix>3d</fix>
</trkpt>
<trkpt lat="40.0740697" lon="-105.2301593">
  <ele>1583.0</ele>
  <time>2026-08-28T17:51:23Z</time>
  <course>359.81</course>
  <speed>11.93</speed>
  <fix>3d</fix>
</trkpt>
<trkpt lat="40.0741057" lon="-105.2301591">
  <ele>1583.08</ele>
  <time>2026-08-28T17:51:23Z</time>
  <course>0.54</course>
  <speed>12.03000415627526</speed>
  <fix>3d</fix>
</trkpt>
<trkpt lat="40.0740912" lon="-105.2301593">
  <ele>1583.0</ele>
  <time>2026-08-28T17:51:23Z</time>
  <course>359.81</course>
  <speed>11.99</speed>
  <fix>3d</fix>
</trkpt>
<trkpt lat="40.0741166" lon="-105.2301591">
  <ele>1583.08</ele>
  <time>2026-08-28T17:51:23Z</time>
  <course>0.54</course>
  <speed>12.05000414937688</speed>
  <fix>3d</fix>
</trkpt>
<trkpt lat="40.0740912" lon="-105.2301593">
  <ele>1583.0</ele>
  <time>2026-08-28T17:51:23Z</time>
  <course>359.81</course>
  <speed>11.99</speed>
  <fix>3d</fix>
</trkpt>
<trkpt lat="40.0741274" lon="-105.2301592">
  <ele>1583.08</ele>
  <time>2026-08-28T17:51:23Z</time>
  <course>0.54</course>
  <speed>12.05000414937688</speed>
  <fix>3d</fix>
</trkpt>
<trkpt lat="40.0741127" lon="-105.2301594">
  <ele>1583.0</ele>
  <time>2026-08-28T17:51:23Z</time>
  <course>359.81</course>
  <speed>12.01</speed>
  <fix>3d</fix>
</trkpt>
<trkpt lat="40.0741383" lon="-105.2301592">
  <ele>1583.08</ele>
  <time>2026-08-28T17:51:23Z</time>
  <course>0.54</course>
  <speed>12.05000414937688</speed>
  <fix>3d</fix>
</trkpt>
<trkpt lat="40.0741127" lon="-105.2301594">
  <ele>1583.0</ele>
  <time>2026-08-28T17:51:23Z</time>
  <course>359.81</course>
  <speed>12.01</speed>
  <fix>3d</fix>
</trkpt>
<trkpt lat="40.0741492" lon="-105.2301593">
  <ele>1583.08</ele>
  <time>2026-08-28T17:51:23Z</time>
  <course>0.54</course>
  <speed>12.050016597498944</speed>
  <fix>3d</fix>
</trkpt>
<trkpt lat="40.0741127" lon="-105.2301594">
  <ele>1583.0</ele>
  <time>2026-08-28T17:51:23Z</time>
  <course>359.81</course>
  <speed>12.01</speed>
  <fix>3d</fix>
</trkpt>
<trkpt lat="40.0741599" lon="-105.2301593">
  <ele>1583.08</ele>
  <time>2026-08-28T17:51:23Z</time>
  <course>0.54</course>
  <speed>12.040016611284223</speed>
  <fix>3d</fix>
</trkpt>
<trkpt lat="40.0741344" lon="-105.2301595">
  <ele>1583.0</ele>
  <time>2026-08-28T17:51:23Z</time>
  <course>359.81</course>
  <speed>12.02</speed>
  <fix>3d</fix>
</trkpt>
<trkpt lat="40.0741707" lon="-105.2301594">
  <ele>1583.09</ele>
  <time>2026-08-28T17:51:23Z</time>
  <course>0.54</course>
  <speed>12.030016625092419</speed>
  <fix>3d</fix>
</trkpt>
<trkpt lat="40.0741344" lon="-105.2301595">
  <ele>1583.0</ele>
  <time>2026-08-28T17:51:23Z</time>
  <course>359.81</course>
  <speed>12.02</speed>
  <fix>3d</fix>
</trkpt>
<trkpt lat="40.0741813" lon="-105.2301594">
  <ele>1583.09</ele>
  <time>2026-08-28T17:51:23Z</time>
  <course>0.54</course>
  <speed>12.010016652777797</speed>
  <fix>3d</fix>
</trkpt>
<trkpt lat="40.074156" lon="-105.2301596">
  <ele>1583.0</ele>
  <time>2026-08-28T17:51:23Z</time>
  <course>359.81</course>
  <speed>12.01</speed>
  <fix>3d</fix>
</trkpt>
<trkpt lat="40.074192" lon="-105.2301595">
  <ele>1583.09</ele>
  <time>2026-08-28T17:51:23Z</time>
  <course>0.55</course>
  <speed>12.000016666655092</speed>
  <fix>3d</fix>
</trkpt>
<trkpt lat="40.074156" lon="-105.2301596">
  <ele>1583.0</ele>
  <time>2026-08-28T17:51:23Z</time>
  <course>359.81</course>
  <speed>12.01</speed>
  <fix>3d</fix>
</trkpt>
<trkpt lat="40.0742027" lon="-105.2301595">
  <ele>1583.09</ele>
  <time>2026-08-28T17:51:23Z</time>
  <course>0.55</course>
  <speed>11.980016694479186</speed>
  <fix>3d</fix>
</trkpt>
<trkpt lat="40.0741776" lon="-105.2301597">
  <ele>1583.0</ele>
  <time>2026-08-28T17:51:23Z</time>
  <course>359.81</course>
  <speed>12.0</speed>
  <fix>3d</fix>
</trkpt>
<trkpt lat="40.0742134" lon="-105.2301596">
  <ele>1583.09</ele>
  <time>2026-08-28T17:51:23Z</time>
  <course>0.55</course>
  <speed>11.960016722396336</speed>
  <fix>3d</fix>
</trkpt>
<trkpt lat="40.0741991" lon="-105.2301598">
  <ele>1583.0</ele>
  <time>2026-08-28T17:51:23Z</time>
  <course>359.81</course>
  <speed>11.98</speed>
  <fix>3d</fix>
</trkpt>
<trkpt lat="40.0742241" lon="-105.2301597">
  <ele>1583.09</ele>
  <time>2026-08-28T17:51:23Z</time>
  <course>0.55</course>
  <speed>11.950016736389953</speed>
  <fix>3d</fix>
</trkpt>
<trkpt lat="40.0741991" lon="-105.2301598">
  <ele>1583.0</ele>
  <time>2026-08-28T17:51:23Z</time>
  <course>359.81</course>
  <speed>11.98</speed>
  <fix>3d</fix>
</trkpt>
<trkpt lat="40.0742348" lon="-105.2301597">
  <ele>1583.09</ele>
  <time>2026-08-28T17:51:23Z</time>
  <course>0.55</course>
  <speed>11.950016736389953</speed>
  <fix>3d</fix>
</trkpt>
<trkpt lat="40.0742206" lon="-105.2301599">
  <ele>1583.0</ele>
  <time>2026-08-28T17:51:23Z</time>
  <course>359.81</course>
  <speed>11.96</speed>
  <fix>3d</fix>
</trkpt>
<trkpt lat="40.0742455" lon="-105.2301598">
  <ele>1583.09</ele>
  <time>2026-08-28T17:51:23Z</time>
  <course>0.56</course>
  <speed>11.940037688382729</speed>
  <fix>3d</fix>
</trkpt>
<trkpt lat="40.0742206" lon="-105.2301599">
  <ele>1583.0</ele>
  <time>2026-08-28T17:51:23Z</time>
  <course>359.81</course>
  <speed>11.96</speed>
  <fix>3d</fix>
</trkpt>
<trkpt lat="40.0742562" lon="-105.2301598">
  <ele>1583.09</ele>
  <time>2026-08-28T17:51:23Z</time>
  <course>0.56</course>
  <speed>11.930037719973898</speed>
  <fix>3d</fix>
</trkpt>
<trkpt lat="40.0742421" lon="-105.23016">
  <ele>1583.0</ele>
  <time>2026-08-28T17:51:23Z</time>
  <course>359.81</course>
  <speed>11.95</speed>
  <fix>3d</fix>
</trkpt>
<trkpt lat="40.074267" lon="-105.2301599">
  <ele>1583.09</ele>
  <time>2026-08-28T17:51:23Z</time>
  <course>0.56</course>
  <speed>11.930037719973898</speed>
  <fix>3d</fix>
</trkpt>
<trkpt lat="40.0742421" lon="-105.23016">
  <ele>1583.0</ele>
  <time>2026-08-28T17:51:23Z</time>
  <course>359.81</course>
  <speed>11.95</speed>
  <fix>3d</fix>
</trkpt>
<trkpt lat="40.0742778" lon="-105.2301599">
  <ele>1583.09</ele>
  <time>2026-08-28T17:51:23Z</time>
  <course>0.56</course>
  <speed>11.930037719973898</speed>
  <fix>3d</fix>
</trkpt>
<trkpt lat="40.0742636" lon="-105.2301601">
  <ele>1583.0</ele>
  <time>2026-08-28T17:51:23Z</time>
  <course>359.81</course>
  <speed>11.94</speed>
  <fix>3d</fix>
</trkpt>
<trkpt lat="40.0742886" lon="-105.23016">
  <ele>1583.09</ele>
  <time>2026-08-28T17:51:23Z</time>
  <course>0.57</course>
  <speed>11.920037751618072</speed>
  <fix>3d</fix>
</trkpt>
<trkpt lat="40.0742636" lon="-105.2301601">
  <ele>1583.0</ele>
  <time>2026-08-28T17:51:23Z</time>
  <course>359.81</course>
  <speed>11.94</speed>
  <fix>3d</fix>
</trkpt>
<trkpt lat="40.0742994" lon="-105.2301601">
  <ele>1583.09</ele>
  <time>2026-08-28T17:51:23Z</time>
  <course>0.57</course>
  <speed>11.920037751618072</speed>
  <fix>3d</fix>
</trkpt>
<trkpt lat="40.0742851" lon="-105.2301602">
  <ele>1583.0</ele>
  <time>2026-08-28T17:51:23Z</time>
  <course>359.81</course>
  <speed>11.93</speed>
  <fix>3d</fix>
</trkpt>
<trkpt lat="40.0743102" lon="-105.2301601">
  <ele>1583.09</ele>
  <time>2026-08-28T17:51:23Z</time>
  <course>0.57</course>
  <speed>11.920037751618072</speed>
  <fix>3d</fix>
</trkpt>
<trkpt lat="40.0742851" lon="-105.2301602">
  <ele>1583.0</ele>
  <time>2026-08-28T17:51:23Z</time>
  <course>359.81</course>
  <speed>11.93</speed>
  <fix>3d</fix>
</trkpt>
<trkpt lat="40.0743209" lon="-105.2301602">
  <ele>1583.1</ele>
  <time>2026-08-28T17:51:23Z</time>
  <course>0.57</course>
  <speed>11.910037783315383</speed>
  <fix>3d</fix>
</trkpt>
<trkpt lat="40.0743065" lon="-105.2301603">
  <ele>1583.0</ele>
  <time>2026-08-28T17:51:23Z</time>
  <course>359.81</course>
  <speed>11.92</speed>
  <fix>3d</fix>
</trkpt>
<trkpt lat="40.0743317" lon="-105.2301602">
  <ele>1583.09</ele>
  <time>2026-08-28T17:51:23Z</time>
  <course>0.58</course>
  <speed>11.910037783315383</speed>
  <fix>3d</fix>
</trkpt>
<trkpt lat="40.0743065" lon="-105.2301603">
  <ele>1583.0</ele>
  <time>2026-08-28T17:51:23Z</time>
  <course>359.81</course>
  <speed>11.92</speed>
  <fix>3d</fix>
</trkpt>
<trkpt lat="40.0743424" lon="-105.2301603">
  <ele>1583.09</ele>
  <time>2026-08-28T17:51:23Z</time>
  <course>0.58</course>
  <speed>11.910037783315383</speed>
  <fix>3d</fix>
</trkpt>
<trkpt lat="40.0743279" lon="-105.2301604">
  <ele>1583.0</ele>
  <time>2026-08-28T17:51:23Z</time>
  <course>359.81</course>
  <speed>11.91</speed>
  <fix>3d</fix>
</trkpt>
<trkpt lat="40.0743531" lon="-105.2301603">
  <ele>1583.09</ele>
  <time>2026-08-28T17:51:23Z</time>
  <course>0.58</course>
  <speed>11.910037783315383</speed>
  <fix>3d</fix>
</trkpt>
<trkpt lat="40.0743279" lon="-105.2301604">
  <ele>1583.0</ele>
  <time>2026-08-28T17:51:23Z</time>
  <course>359.81</course>
  <speed>11.91</speed>
  <fix>3d</fix>
</trkpt>
<trkpt lat="40.0743639" lon="-105.2301604">
  <ele>1583.09</ele>
  <time>2026-08-28T17:51:23Z</time>
  <course>0.58</course>
  <speed>11.900037815065966</speed>
  <fix>3d</fix>
</trkpt>
<trkpt lat="40.0743279" lon="-105.2301604">
  <ele>1583.0</ele>
  <time>2026-08-28T17:51:23Z</time>
  <course>359.81</course>
  <speed>11.91</speed>
  <fix>3d</fix>
</trkpt>
<trkpt lat="40.0743745" lon="-105.2301604">
  <ele>1583.09</ele>
  <time>2026-08-28T17:51:23Z</time>
  <course>0.59</course>
  <speed>11.900037815065966</speed>
  <fix>3d</fix>
</trkpt>
<trkpt lat="40.0743493" lon="-105.2301605">
  <ele>1583.0</ele>
  <time>2026-08-28T17:51:23Z</time>
  <course>359.81</course>
  <speed>11.91</speed>
  <fix>3d</fix>
</trkpt>
<trkpt lat="40.0743851" lon="-105.2301605">
  <ele>1583.1</ele>
  <time>2026-08-28T17:51:23Z</time>
  <course>0.59</course>
  <speed>11.890037846869959</speed>
  <fix>3d</fix>
</trkpt>
<trkpt lat="40.0743493" lon="-105.2301605">
  <ele>1583.0</ele>
  <time>2026-08-28T17:51:23Z</time>
  <course>359.81</course>
  <speed>11.91</speed>
  <fix>3d</fix>
</trkpt>
<trkpt lat="40.0743957" lon="-105.2301606">
  <ele>1583.1</ele>
  <time>2026-08-28T17:51:23Z</time>
  <course>0.59</course>
  <speed>11.890037846869959</speed>
  <fix>3d</fix>
</trkpt>
<trkpt lat="40.0743707" lon="-105.2301605">
  <ele>1583.0</ele>
  <time>2026-08-28T17:51:23Z</time>
  <course>359.81</course>
  <speed>11.9</speed>
  <fix>3d</fix>
</trkpt>
<trkpt lat="40.0744063" lon="-105.2301606">
  <ele>1583.1</ele>
  <time>2026-08-28T17:51:23Z</time>
  <course>0.59</course>
  <speed>11.890037846869959</speed>
  <fix>3d</fix>
</trkpt>
<trkpt lat="40.0743707" lon="-105.2301605">
  <ele>1583.0</ele>
  <time>2026-08-28T17:51:23Z</time>
  <course>359.81</course>
  <speed>11.9</speed>
  <fix>3d</fix>
</trkpt>
<trkpt lat="40.0744169" lon="-105.2301606">
  <ele>1583.1</ele>
  <time>2026-08-28T17:51:23Z</time>
  <course>0.6</course>
  <speed>11.890037846869959</speed>
  <fix>3d</fix>
</trkpt>
<trkpt lat="40.0743922" lon="-105.2301606">
  <ele>1583.0</ele>
  <time>2026-08-28T17:51:23Z</time>
  <course>359.81</course>
  <speed>11.91</speed>
  <fix>3d</fix>
</trkpt>
<trkpt lat="40.0744276" lon="-105.2301607">
  <ele>1583.1</ele>
  <time>2026-08-28T17:51:23Z</time>
  <course>0.63</course>
  <speed>11.890016820845965</speed>
  <fix>3d</fix>
</trkpt>
<trkpt lat="40.0744136" lon="-105.2301607">
  <ele>1583.0</ele>
  <time>2026-08-28T17:51:23Z</time>
  <course>359.82</course>
  <speed>11.91</speed>
  <fix>3d</fix>
</trkpt>
<trkpt lat="40.0744382" lon="-105.2301607">
  <ele>1583.1</ele>
  <time>2026-08-28T17:51:23Z</time>
  <course>0.63</course>
  <speed>11.890016820845965</speed>
  <fix>3d</fix>
</trkpt>
<trkpt lat="40.0744136" lon="-105.2301607">
  <ele>1583.0</ele>
  <time>2026-08-28T17:51:23Z</time>
  <course>359.82</course>
  <speed>11.91</speed>
  <fix>3d</fix>
</trkpt>
<trkpt lat="40.0744489" lon="-105.2301608">
  <ele>1583.11</ele>
  <time>2026-08-28T17:51:23Z</time>
  <course>0.64</course>
  <speed>11.900016806710822</speed>
  <fix>3d</fix>
</trkpt>
<trkpt lat="40.0744349" lon="-105.2301608">
  <ele>1583.0</ele>
  <time>2026-08-28T17:51:23Z</time>
  <course>359.84</course>
  <speed>11.93</speed>
  <fix>3d</fix>
</trkpt>
<trkpt lat="40.0744596" lon="-105.2301608">
  <ele>1583.11</ele>
  <time>2026-08-28T17:51:23Z</time>
  <course>0.67</course>
  <speed>11.910016792599412</speed>
  <fix>3d</fix>
</trkpt>
<trkpt lat="40.0744349" lon="-105.2301608">
  <ele>1583.0</ele>
  <time>2026-08-28T17:51:23Z</time>
  <course>359.84</course>
  <speed>11.93</speed>
  <fix>3d</fix>
</trkpt>
<trkpt lat="40.0744703" lon="-105.2301608">
  <ele>1583.1</ele>
  <time>2026-08-28T17:51:23Z</time>
  <course>0.67</course>
  <speed>11.92001677851168</speed>
  <fix>3d</fix>
</trkpt>
<trkpt lat="40.0744564" lon="-105.2301609">
  <ele>1583.0</ele>
  <time>2026-08-28T17:51:23Z</time>
  <course>359.86</course>
  <speed>11.94</speed>
  <fix>3d</fix>
</trkpt>
<trkpt lat="40.0744811" lon="-105.2301609">
  <ele>1583.1</ele>
  <time>2026-08-28T17:51:23Z</time>
  <course>0.68</course>
  <speed>11.930016764447567</speed>
  <fix>3d</fix>
</trkpt>
<trkpt lat="40.0744564" lon="-105.2301609">
  <ele>1583.0</ele>
  <time>2026-08-28T17:51:23Z</time>
  <course>359.86</course>
  <speed>11.94</speed>
  <fix>3d</fix>
</trkpt>
<trkpt lat="40.0744919" lon="-105.2301609">
  <ele>1583.1</ele>
  <time>2026-08-28T17:51:23Z</time>
  <course>0.68</course>
  <speed>11.930016764447567</speed>
  <fix>3d</fix>
</trkpt>
<trkpt lat="40.0744779" lon="-105.230161">
  <ele>1583.0</ele>
  <time>2026-08-28T17:51:23Z</time>
  <course>359.87</course>
  <speed>11.96</speed>
  <fix>3d</fix>
</trkpt>
<trkpt lat="40.0745027" lon="-105.2301609">
  <ele>1583.09</ele>
  <time>2026-08-28T17:51:23Z</time>
  <course>0.72</course>
  <speed>11.940004187603956</speed>
  <fix>3d</fix>
</trkpt>
<trkpt lat="40.0744779" lon="-105.230161">
  <ele>1583.0</ele>
  <time>2026-08-28T17:51:23Z</time>
  <course>359.87</course>
  <speed>11.96</speed>
  <fix>3d</fix>
</trkpt>
<trkpt lat="40.0745136" lon="-105.2301609">
  <ele>1583.09</ele>
  <time>2026-08-28T17:51:23Z</time>
  <course>0.72</course>
  <speed>11.950004184099686</speed>
  <fix>3d</fix>
</trkpt>
<trkpt lat="40.0744994" lon="-105.230161">
  <ele>1583.0</ele>
  <time>2026-08-28T17:51:23Z</time>
  <course>359.89</course>
  <speed>11.97</speed>
  <fix>3d</fix>
</trkpt>
<trkpt lat="40.0745244" lon="-105.230161">
  <ele>1583.09</ele>
  <time>2026-08-28T17:51:23Z</time>
  <course>0.72</course>
  <speed>11.950004184099686</speed>
  <fix>3d</fix>
</trkpt>
<trkpt lat="40.0744994" lon="-105.230161">
  <ele>1583.0</ele>
  <time>2026-08-28T17:51:23Z</time>
  <course>359.89</course>
  <speed>11.97</speed>
  <fix>3d</fix>
</trkpt>
<trkpt lat="40.0745352" lon="-105.230161">
  <ele>1583.09</ele>
  <time>2026-08-28T17:51:23Z</time>
  <course>0.76</course>
  <speed>11.96</speed>
  <fix>3d</fix>
</trkpt>
<trkpt lat="40.0745209" lon="-105.230161">
  <ele>1583.0</ele>
  <time>2026-08-28T17:51:23Z</time>
  <course>359.92</course>
  <speed>11.98</speed>
  <fix>3d</fix>
</trkpt>
<trkpt lat="40.074546" lon="-105.230161">
  <ele>1583.09</ele>
  <time>2026-08-28T17:51:23Z</time>
  <course>0.76</course>
  <speed>11.96</speed>
  <fix>3d</fix>
</trkpt>
<trkpt lat="40.0745209" lon="-105.230161">
  <ele>1583.0</ele>
  <time>2026-08-28T17:51:23Z</time>
  <course>359.92</course>
  <speed>11.98</speed>
  <fix>3d</fix>
</trkpt>
<trkpt lat="40.0745569" lon="-105.230161">
  <ele>1583.09</ele>
  <time>2026-08-28T17:51:23Z</time>
  <course>0.76</course>
  <speed>11.96</speed>
  <fix>3d</fix>
</trkpt>
<trkpt lat="40.0745424" lon="-105.230161">
  <ele>1583.0</ele>
  <time>2026-08-28T17:51:23Z</time>
  <course>359.94</course>
  <speed>11.98</speed>
  <fix>3d</fix>
</trkpt>
<trkpt lat="40.0745677" lon="-105.230161">
  <ele>1583.09</ele>
  <time>2026-08-28T17:51:23Z</time>
  <course>0.76</course>
  <speed>11.97</speed>
  <fix>3d</fix>
</trkpt>
<trkpt lat="40.0745424" lon="-105.230161">
  <ele>1583.0</ele>
  <time>2026-08-28T17:51:23Z</time>
  <course>359.94</course>
  <speed>11.98</speed>
  <fix>3d</fix>
</trkpt>
<trkpt lat="40.0745785" lon="-105.230161">
  <ele>1583.1</ele>
  <time>2026-08-28T17:51:23Z</time>
  <course>0.9</course>
  <speed>11.960016722396336</speed>
  <fix>3d</fix>
</trkpt>
<trkpt lat="40.0745424" lon="-105.230161">
  <ele>1583.0</ele>
  <time>2026-08-28T17:51:23Z</time>
  <course>359.94</course>
  <speed>11.98</speed>
  <fix>3d</fix>
</trkpt>
<trkpt lat="40.0745892" lon="-105.230161">
  <ele>1583.1</ele>
  <time>2026-08-28T17:51:23Z</time>
  <course>0.93</course>
  <speed>11.930016764447567</speed>
  <fix>3d</fix>
</trkpt>
<trkpt lat="40.0745639" lon="-105.230161">
  <ele>1583.0</ele>
  <time>2026-08-28T17:51:23Z</time>
  <course>0.0</course>
  <speed>11.98</speed>
  <fix>3d</fix>
</trkpt>
<trkpt lat="40.0745998" lon="-105.230161">
  <ele>1583.1</ele>
  <time>2026-08-28T17:51:23Z</time>
  <course>1.03</course>
  <speed>11.880105218389271</speed>
  <fix>3d</fix>
</trkpt>
<trkpt lat="40.0745639" lon="-105.230161">
  <ele>1583.0</ele>
  <time>2026-08-28T17:51:23Z</time>
  <course>0.0</course>
  <speed>11.98</speed>
  <fix>3d</fix>
</trkpt>
<trkpt lat="40.0746104" lon="-105.2301609">
  <ele>1583.1</ele>
  <time>2026-08-28T17:51:23Z</time>
  <course>1.1</course>
  <speed>11.820152283282987</speed>
  <fix>3d</fix>
</trkpt>
<trkpt lat="40.0745855" lon="-105.230161">
  <ele>1583.0</ele>
  <time>2026-08-28T17:51:23Z</time>
  <course>0.13</course>
  <speed>11.94</speed>
  <fix>3d</fix>
</trkpt>
<trkpt lat="40.0746209" lon="-105.2301608">
  <ele>1583.1</ele>
  <time>2026-08-28T17:51:23Z</time>
  <course>1.16</course>
  <speed>11.75020850878826</speed>
  <fix>3d</fix>
</trkpt>
<trkpt lat="40.0745855" lon="-105.230161">
  <ele>1583.0</ele>
  <time>2026-08-28T17:51:23Z</time>
  <course>0.13</course>
  <speed>11.94</speed>
  <fix>3d</fix>
</trkpt>
<trkpt lat="40.0746313" lon="-105.2301608">
  <ele>1583.1</ele>
  <time>2026-08-28T17:51:23Z</time>
  <course>1.26</course>
  <speed>11.670347038541742</speed>
  <fix>3d</fix>
</trkpt>
<trkpt lat="40.0746069" lon="-105.230161">
  <ele>1583.0</ele>
  <time>2026-08-28T17:51:23Z</time>
  <course>0.26</course>
  <speed>11.85</speed>
  <fix>3d</fix>
</trkpt>
<trkpt lat="40.0746416" lon="-105.2301606">
  <ele>1583.1</ele>
  <time>2026-08-28T17:51:23Z</time>
  <course>1.29</course>
  <speed>11.5703500379202</speed>
  <fix>3d</fix>
</trkpt>
<trkpt lat="40.0746069" lon="-105.230161">
  <ele>1583.0</ele>
  <time>2026-08-28T17:51:23Z</time>
  <course>0.26</course>
  <speed>11.85</speed>
  <fix>3d</fix>
</trkpt>
<trkpt lat="40.074652" lon="-105.2301605">
  <ele>1583.1</ele>
  <time>2026-08-28T17:51:23Z</time>
  <course>1.42</course>
  <speed>11.470627707322732</speed>
  <fix>3d</fix>
</trkpt>
<trkpt lat="40.0746281" lon="-105.230161">
  <ele>1583.0</ele>
  <time>2026-08-28T17:51:23Z</time>
  <course>0.39</course>
  <speed>11.7</speed>
  <fix>3d</fix>
</trkpt>
<trkpt lat="40.0746622" lon="-105.2301604">
  <ele>1583.1</ele>
  <time>2026-08-28T17:51:23Z</time>
  <course>1.43</course>
  <speed>11.360633785137166</speed>
  <fix>3d</fix>
</trkpt>
<trkpt lat="40.0746489" lon="-105.2301607">
  <ele>1583.0</ele>
  <time>2026-08-28T17:51:23Z</time>
  <course>0.52</course>
  <speed>11.52</speed>
  <fix>3d</fix>
</trkpt>
<trkpt lat="40.0746723" lon="-105.2301603">
  <ele>1583.1</ele>
  <time>2026-08-28T17:51:23Z</time>
  <course>1.56</course>
  <speed>11.250871077387743</speed>
  <fix>3d</fix>
</trkpt>
<trkpt lat="40.0746489" lon="-105.2301607">
  <ele>1583.0</ele>
  <time>2026-08-28T17:51:23Z</time>
  <course>0.52</course>
  <speed>11.52</speed>
  <fix>3d</fix>
</trkpt>
<trkpt lat="40.0746823" lon="-105.2301601">
  <ele>1583.09</ele>
  <time>2026-08-28T17:51:23Z</time>
  <course>1.62</course>
  <speed>11.131010735777771</speed>
  <fix>3d</fix>
</trkpt>
<trkpt lat="40.0746694" lon="-105.2301604">
  <ele>1583.0</ele>
  <time>2026-08-28T17:51:23Z</time>
  <course>0.67</course>
  <speed>11.3</speed>
  <fix>3d</fix>
</trkpt>
<trkpt lat="40.0746923" lon="-105.2301599">
  <ele>1583.09</ele>
  <time>2026-08-28T17:51:23Z</time>
  <course>1.68</course>
  <speed>11.011021750954813</speed>
  <fix>3d</fix>
</trkpt>
<trkpt lat="40.0746694" lon="-105.2301604">
  <ele>1583.0</ele>
  <time>2026-08-28T17:51:23Z</time>
  <course>0.67</course>
  <speed>11.3</speed>
  <fix>3d</fix>
</trkpt>
<trkpt lat="40.0747022" lon="-105.2301598">
  <ele>1583.09</ele>
  <time>2026-08-28T17:51:23Z</time>
  <course>1.77</course>
  <speed>10.881328043947576</speed>
  <fix>3d</fix>
</trkpt>
<trkpt lat="40.0746895" lon="-105.23016">
  <ele>1583.0</ele>
  <time>2026-08-28T17:51:23Z</time>
  <course>0.84</course>
  <speed>11.07</speed>
  <fix>3d</fix>
</trkpt>
<trkpt lat="40.074712" lon="-105.2301596">
  <ele>1583.09</ele>
  <time>2026-08-28T17:51:23Z</time>
  <course>1.81</course>
  <speed>10.761342853008635</speed>
  <fix>3d</fix>
</trkpt>
<trkpt lat="40.0746895" lon="-105.23016">
  <ele>1583.0</ele>
  <time>2026-08-28T17:51:23Z</time>
  <course>0.84</course>
  <speed>11.07</speed>
  <fix>3d</fix>
</trkpt>
<trkpt lat="40.0747217" lon="-105.2301593">
  <ele>1583.09</ele>
  <time>2026-08-28T17:51:23Z</time>
  <course>1.92</course>
  <speed>10.631697888860463</speed>
  <fix>3d</fix>
</trkpt>
<trkpt lat="40.0747092" lon="-105.2301597">
  <ele>1583.0</ele>
  <time>2026-08-28T17:51:23Z</time>
  <course>0.99</course>
  <speed>10.82</speed>
  <fix>3d</fix>
</trkpt>
<trkpt lat="40.0747313" lon="-105.2301591">
  <ele>1583.09</ele>
  <time>2026-08-28T17:51:23Z</time>
  <course>1.93</course>
  <speed>10.501718906921859</speed>
  <fix>3d</fix>
</trkpt>
<trkpt lat="40.0747092" lon="-105.2301597">
  <ele>1583.0</ele>
  <time>2026-08-28T17:51:23Z</time>
  <course>0.99</course>
  <speed>10.82</speed>
  <fix>3d</fix>
</trkpt>
<trkpt lat="40.0747408" lon="-105.2301589">
  <ele>1583.09</ele>
  <time>2026-08-28T17:51:23Z</time>
  <course>2.01</course>
  <speed>10.371928460995091</speed>
  <fix>3d</fix>
</trkpt>
<trkpt lat="40.0747284" lon="-105.2301592">
  <ele>1583.0</ele>
  <time>2026-08-28T17:51:23Z</time>
  <course>1.1</course>
  <speed>10.56</speed>
  <fix>3d</fix>
</trkpt>
<trkpt lat="40.0747501" lon="-105.2301587">
  <ele>1583.09</ele>
  <time>2026-08-28T17:51:23Z</time>
  <course>2.07</course>
  <speed>10.241952938771004</speed>
  <fix>3d</fix>
</trkpt>
<trkpt lat="40.0747284" lon="-105.2301592">
  <ele>1583.0</ele>
  <time>2026-08-28T17:51:23Z</time>
  <course>1.1</course>
  <speed>10.56</speed>
  <fix>3d</fix>
</trkpt>
<trkpt lat="40.0747593" lon="-105.2301584">
  <ele>1583.09</ele>
  <time>2026-08-28T17:51:23Z</time>
  <course>2.1</course>
  <speed>10.112180773700596</speed>
  <fix>3d</fix>
</trkpt>
<trkpt lat="40.0747471" lon="-105.2301587">
  <ele>1583.0</ele>
  <time>2026-08-28T17:51:23Z</time>
  <course>1.19</course>
  <speed>10.3</speed>
  <fix>3d</fix>
</trkpt>
<trkpt lat="40.0747684" lon="-105.2301581">
  <ele>1583.09</ele>
  <time>2026-08-28T17:51:23Z</time>
  <course>2.18</course>
  <speed>9.992422128793399</speed>
  <fix>3d</fix>
</trkpt>
<trkpt lat="40.0747471" lon="-105.2301587">
  <ele>1583.0</ele>
  <time>2026-08-28T17:51:23Z</time>
  <course>1.19</course>
  <speed>10.3</speed>
  <fix>3d</fix>
</trkpt>
<trkpt lat="40.0747773" lon="-105.2301579">
  <ele>1583.09</ele>
  <time>2026-08-28T17:51:23Z</time>
  <course>2.18</course>
  <speed>9.86223605476973</speed>
  <fix>3d</fix>
</trkpt>
<trkpt lat="40.0747653" lon="-105.2301582">
  <ele>1583.0</ele>
  <time>2026-08-28T17:51:23Z</time>
  <course>1.27</course>
  <speed>10.04</speed>
  <fix>3d</fix>
</trkpt>
<trkpt lat="40.0747862" lon="-105.2301576">
  <ele>1583.09</ele>
  <time>2026-08-28T17:51:23Z</time>
  <course>2.24</course>
  <speed>9.742484282768949</speed>
  <fix>3d</fix>
</trkpt>
<trkpt lat="40.0747653" lon="-105.2301582">
  <ele>1583.0</ele>
  <time>2026-08-28T17:51:23Z</time>
  <course>1.27</course>
  <speed>10.04</speed>
  <fix>3d</fix>
</trkpt>
<trkpt lat="40.0747949" lon="-105.2301574">
  <ele>1583.09</ele>
  <time>2026-08-28T17:51:23Z</time>
  <course>2.24</course>
  <speed>9.612517880347479</speed>
  <fix>3d</fix>
</trkpt>
<trkpt lat="40.0747653" lon="-105.2301582">
  <ele>1583.0</ele>
  <time>2026-08-28T17:51:23Z</time>
  <course>1.27</course>
  <speed>10.04</speed>
  <fix>3d</fix>
</trkpt>
<trkpt lat="40.0748035" lon="-105.2301571">
  <ele>1583.09</ele>
  <time>2026-08-28T17:51:23Z</time>
  <course>2.29</course>
  <speed>9.492549710167443</speed>
  <fix>3d</fix>
</trkpt>
<trkpt lat="40.0747832" lon="-105.2301576">
  <ele>1583.0</ele>
  <time>2026-08-28T17:51:23Z</time>
  <course>1.34</course>
  <speed>9.79</speed>
  <fix>3d</fix>
</trkpt>
<trkpt lat="40.0748119" lon="-105.2301568">
  <ele>1583.09</ele>
  <time>2026-08-28T17:51:23Z</time>
  <course>2.29</course>
  <speed>9.372582354932923</speed>
  <fix>3d</fix>
</trkpt>
<trkpt lat="40.0747832" lon="-105.2301576">
  <ele>1583.0</ele>
  <time>2026-08-28T17:51:23Z</time>
  <course>1.34</course>
  <speed>9.79</speed>
  <fix>3d</fix>
</trkpt>
<trkpt lat="40.0748202" lon="-105.2301566">
  <ele>1583.08</ele>
  <time>2026-08-28T17:51:23Z</time>
  <course>2.35</course>
  <speed>9.252615846343131</speed>
  <fix>3d</fix>
</trkpt>
<trkpt lat="40.0748006" lon="-105.2301571">
  <ele>1583.0</ele>
  <time>2026-08-28T17:51:23Z</time>
  <course>1.39</course>
  <speed>9.55</speed>
  <fix>3d</fix>
</trkpt>
<trkpt lat="40.0748284" lon="-105.2301563">
  <ele>1583.09</ele>
  <time>2026-08-28T17:51:23Z</time>
  <course>2.35</course>
  <speed>9.13265021776264</speed>
  <fix>3d</fix>
</trkpt>
<trkpt lat="40.0748006" lon="-105.2301571">
  <ele>1583.0</ele>
  <time>2026-08-28T17:51:23Z</time>
  <course>1.39</course>
  <speed>9.55</speed>
  <fix>3d</fix>
</trkpt>
<trkpt lat="40.0748365" lon="-105.230156">
  <ele>1583.09</ele>
  <time>2026-08-28T17:51:23Z</time>
  <course>2.35</course>
  <speed>9.022682527940347</speed>
  <fix>3d</fix>
</trkpt>
<trkpt lat="40.0748176" lon="-105.2301565">
  <ele>1583.0</ele>
  <time>2026-08-28T17:51:23Z</time>
  <course>1.44</course>
  <speed>9.32</speed>
  <fix>3d</fix>
</trkpt>
<trkpt lat="40.0748446" lon="-105.2301557">
  <ele>1583.09</ele>
  <time>2026-08-28T17:51:23Z</time>
  <course>2.35</course>
  <speed>8.912474403890313</speed>
  <fix>3d</fix>
</trkpt>
<trkpt lat="40.0748341" lon="-105.230156">
  <ele>1583.0</ele>
  <time>2026-08-28T17:51:23Z</time>
  <course>1.47</course>
  <speed>9.1</speed>
  <fix>3d</fix>
</trkpt>
<trkpt lat="40.0748525" lon="-105.2301555">
  <ele>1583.09</ele>
  <time>2026-08-28T17:51:23Z</time>
  <course>2.35</course>
  <speed>8.802505325190097</speed>
  <fix>3d</fix>
</trkpt>
<trkpt lat="40.0748341" lon="-105.230156">
  <ele>1583.0</ele>
  <time>2026-08-28T17:51:23Z</time>
  <course>1.47</course>
  <speed>9.1</speed>
  <fix>3d</fix>
</trkpt>
<trkpt lat="40.0748604" lon="-105.2301552">
  <ele>1583.09</ele>
  <time>2026-08-28T17:51:23Z</time>
  <course>2.36</course>
  <speed>8.702534113693552</speed>
  <fix>3d</fix>
</trkpt>
<trkpt lat="40.0748502" lon="-105.2301555">
  <ele>1583.0</ele>
  <time>2026-08-28T17:51:23Z</time>
  <course>1.47</course>
  <speed>8.89</speed>
  <fix>3d</fix>
</trkpt>
<trkpt lat="40.0748682" lon="-105.230155">
  <ele>1583.09</ele>
  <time>2026-08-28T17:51:23Z</time>
  <course>2.36</course>
  <speed>8.602563571401259</speed>
  <fix>3d</fix>
</trkpt>
<trkpt lat="40.0748502" lon="-105.2301555">
  <ele>1583.0</ele>
  <time>2026-08-28T17:51:23Z</time>
  <course>1.47</course>
  <speed>8.89</speed>
  <fix>3d</fix>
</trkpt>
<trkpt lat="40.0748759" lon="-105.2301547">
  <ele>1583.09</ele>
  <time>2026-08-28T17:51:23Z</time>
  <course>2.36</course>
  <speed>8.502593721918036</speed>
  <fix>3d</fix>
</trkpt>
<trkpt lat="40.074866" lon="-105.2301549">
  <ele>1583.0</ele>
  <time>2026-08-28T17:51:23Z</time>
  <course>1.47</course>
  <speed>8.68</speed>
  <fix>3d</fix>
</trkpt>
<trkpt lat="40.0748836" lon="-105.2301544">
  <ele>1583.09</ele>
  <time>2026-08-28T17:51:23Z</time>
  <course>2.36</course>
  <speed>8.412377785144935</speed>
  <fix>3d</fix>
</trkpt>
<trkpt lat="40.074866" lon="-105.2301549">
  <ele>1583.0</ele>
  <time>2026-08-28T17:51:23Z</time>
  <course>1.47</course>
  <speed>8.68</speed>
  <fix>3d</fix>
</trkpt>
<trkpt lat="40.0748911" lon="-105.2301542">
  <ele>1583.09</ele>
  <time>2026-08-28T17:51:23Z</time>
  <course>2.36</course>
  <speed>8.312406390450361</speed>
  <fix>3d</fix>
</trkpt>
<trkpt lat="40.0748815" lon="-105.2301544">
  <ele>1583.0</ele>
  <time>2026-08-28T17:51:23Z</time>
  <course>1.47</course>
  <speed>8.49</speed>
  <fix>3d</fix>
</trkpt>
<trkpt lat="40.0748987" lon="-105.2301539">
  <ele>1583.09</ele>
  <time>2026-08-28T17:51:23Z</time>
  <course>2.36</course>
  <speed>8.212435692290077</speed>
  <fix>3d</fix>
</trkpt>
<trkpt lat="40.0748815" lon="-105.2301544">
  <ele>1583.0</ele>
  <time>2026-08-28T17:51:23Z</time>
  <course>1.47</course>
  <speed>8.49</speed>
  <fix>3d</fix>
</trkpt>
<trkpt lat="40.0749061" lon="-105.2301537">
  <ele>1583.09</ele>
  <time>2026-08-28T17:51:23Z</time>
  <course>2.36</course>
  <speed>8.122462680739137</speed>
  <fix>3d</fix>
</trkpt>
<trkpt lat="40.0748965" lon="-105.2301539">
  <ele>1583.0</ele>
  <time>2026-08-28T17:51:23Z</time>
  <course>1.47</course>
  <speed>8.29</speed>
  <fix>3d</fix>
</trkpt>
<trkpt lat="40.0749134" lon="-105.2301534">
  <ele>1583.09</ele>
  <time>2026-08-28T17:51:23Z</time>
  <course>2.36</course>
  <speed>8.032490273881445</speed>
  <fix>3d</fix>
</trkpt>
<trkpt lat="40.0748965" lon="-105.2301539">
  <ele>1583.0</ele>
  <time>2026-08-28T17:51:23Z</time>
  <course>1.47</course>
  <speed>8.29</speed>
  <fix>3d</fix>
</trkpt>
<trkpt lat="40.0749207" lon="-105.2301532">
  <ele>1583.09</ele>
  <time>2026-08-28T17:51:23Z</time>
  <course>2.36</course>
  <speed>7.932275839883532</speed>
  <fix>3d</fix>
</trkpt>
<trkpt lat="40.0749112" lon="-105.2301534">
  <ele>1583.0</ele>
  <time>2026-08-28T17:51:23Z</time>
  <course>1.47</course>
  <speed>8.1</speed>
  <fix>3d</fix>
</trkpt>
<trkpt lat="40.0749278" lon="-105.2301529">
  <ele>1583.08</ele>
  <time>2026-08-28T17:51:23Z</time>
  <course>2.36</course>
  <speed>7.842301957971269</speed>
  <fix>3d</fix>
</trkpt>
<trkpt lat="40.0749112" lon="-105.2301534">
  <ele>1583.0</ele>
  <time>2026-08-28T17:51:23Z</time>
  <course>1.47</course>
  <speed>8.1</speed>
  <fix>3d</fix>
</trkpt>
<trkpt lat="40.0749349" lon="-105.2301527">
  <ele>1583.08</ele>
  <time>2026-08-28T17:51:23Z</time>
  <course>2.36</course>
  <speed>7.742331690130564</speed>
  <fix>3d</fix>
</trkpt>
<trkpt lat="40.0749256" lon="-105.2301529">
  <ele>1583.0</ele>
  <time>2026-08-28T17:51:23Z</time>
  <course>1.47</course>
  <speed>7.91</speed>
  <fix>3d</fix>
</trkpt>
<trkpt lat="40.0749418" lon="-105.2301525">
  <ele>1583.08</ele>
  <time>2026-08-28T17:51:23Z</time>
  <course>2.37</course>
  <speed>7.65235911337151</speed>
  <fix>3d</fix>
</trkpt>
<trkpt lat="40.0749256" lon="-105.2301529">
  <ele>1583.0</ele>
  <time>2026-08-28T17:51:23Z</time>
  <course>1.47</course>
  <speed>7.91</speed>
  <fix>3d</fix>
</trkpt>
<trkpt lat="40.0749487" lon="-105.2301522">
  <ele>1583.08</ele>
  <time>2026-08-28T17:51:23Z</time>
  <course>2.37</course>
  <speed>7.552390350081224</speed>
  <fix>3d</fix>
</trkpt>
<trkpt lat="40.0749256" lon="-105.2301529">
  <ele>1583.0</ele>
  <time>2026-08-28T17:51:23Z</time>
  <course>1.47</course>
  <speed>7.91</speed>
  <fix>3d</fix>
</trkpt>
<trkpt lat="40.0749555" lon="-105.230152">
  <ele>1583.07</ele>
  <time>2026-08-28T17:51:23Z</time>
  <course>2.37</course>
  <speed>7.452422424956868</speed>
  <fix>3d</fix>
</trkpt>
<trkpt lat="40.0749397" lon="-105.2301524">
  <ele>1583.0</ele>
  <time>2026-08-28T17:51:23Z</time>
  <course>1.47</course>
  <speed>7.71</speed>
  <fix>3d</fix>
</trkpt>
<trkpt lat="40.0749621" lon="-105.2301518">
  <ele>1583.07</ele>
  <time>2026-08-28T17:51:23Z</time>
  <course>2.37</course>
  <speed>7.35220375125717</speed>
  <fix>3d</fix>
</trkpt>
<trkpt lat="40.0749397" lon="-105.2301524">
  <ele>1583.0</ele>
  <time>2026-08-28T17:51:23Z</time>
  <course>1.47</course>
  <speed>7.71</speed>
  <fix>3d</fix>
</trkpt>
<trkpt lat="40.0749686" lon="-105.2301515">
  <ele>1583.07</ele>
  <time>2026-08-28T17:51:23Z</time>
  <course>2.37</course>
  <speed>7.252234138525865</speed>
  <fix>3d</fix>
</trkpt>
<trkpt lat="40.0749534" lon="-105.230152">
  <ele>1583.0</ele>
  <time>2026-08-28T17:51:23Z</time>
  <course>1.47</course>
  <speed>7.52</speed>
  <fix>3d</fix>
</trkpt>
<trkpt lat="40.0749751" lon="-105.2301513">
  <ele>1583.07</ele>
  <time>2026-08-28T17:51:23Z</time>
  <course>2.38</course>
  <speed>7.152265375389814</speed>
  <fix>3d</fix>
</trkpt>
<trkpt lat="40.0749534" lon="-105.230152">
  <ele>1583.0</ele>
  <time>2026-08-28T17:51:23Z</time>
  <course>1.47</course>
  <speed>7.52</speed>
  <fix>3d</fix>
</trkpt>
<trkpt lat="40.0749814" lon="-105.2301511">
  <ele>1583.07</ele>
  <time>2026-08-28T17:51:23Z</time>
  <course>2.38</course>
  <speed>7.0622942447904276</speed>
  <fix>3d</fix>
</trkpt>
<trkpt lat="40.0749667" lon="-105.2301515">
  <ele>1583.0</ele>
  <time>2026-08-28T17:51:23Z</time>
  <course>1.47</course>
  <speed>7.33</speed>
  <fix>3d</fix>
</trkpt>
<trkpt lat="40.0749877" lon="-105.2301509">
  <ele>1583.07</ele>
  <time>2026-08-28T17:51:23Z</time>
  <course>2.38</course>
  <speed>6.962327197137463</speed>
  <fix>3d</fix>
</trkpt>
<trkpt lat="40.0749667" lon="-105.2301515">
  <ele>1583.0</ele>
  <time>2026-08-28T17:51:23Z</time>
  <course>1.47</course>
  <speed>7.33</speed>
  <fix>3d</fix>
</trkpt>
<trkpt lat="40.0749939" lon="-105.2301507">
  <ele>1583.07</ele>
  <time>2026-08-28T17:51:23Z</time>
  <course>2.39</course>
  <speed>6.86236110970561</speed>
  <fix>3d</fix>
</trkpt>
<trkpt lat="40.0749797" lon="-105.2301511">
  <ele>1583.0</ele>
  <time>2026-08-28T17:51:23Z</time>
  <course>1.47</course>
  <speed>7.13</speed>
  <fix>3d</fix>
</trkpt>
<trkpt lat="40.075" lon="-105.2301505">
  <ele>1583.06</ele>
  <time>2026-08-28T17:51:23Z</time>
  <course>2.39</course>
  <speed>6.76213723611108</speed>
  <fix>3d</fix>
</trkpt>
<trkpt lat="40.0749923" lon="-105.2301507">
  <ele>1583.0</ele>
  <time>2026-08-28T17:51:23Z</time>
  <course>1.47</course>
  <speed>6.94</speed>
  <fix>3d</fix>
</trkpt>
<trkpt lat="40.0750061" lon="-105.2301502">
  <ele>1583.06</ele>
  <time>2026-08-28T17:51:23Z</time>
  <course>2.39</course>
  <speed>6.662169316371358</speed>
  <fix>3d</fix>
</trkpt>
<trkpt lat="40.0749923" lon="-105.2301507">
  <ele>1583.0</ele>
  <time>2026-08-28T17:51:23Z</time>
  <course>1.47</course>
  <speed>6.94</speed>
  <fix>3d</fix>
</trkpt>
<trkpt lat="40.075012" lon="-105.23015">
  <ele>1583.06</ele>
  <time>2026-08-28T17:51:23Z</time>
  <course>2.39</course>
  <speed>6.562202374203343</speed>
  <fix>3d</fix>
</trkpt>
<trkpt lat="40.0750046" lon="-105.2301502">
  <ele>1583.0</ele>
  <time>2026-08-28T17:51:23Z</time>
  <course>1.47</course>
  <speed>6.75</speed>
  <fix>3d</fix>
</trkpt>
<trkpt lat="40.0750179" lon="-105.2301498">
  <ele>1583.06</ele>
  <time>2026-08-28T17:51:23Z</time>
  <course>2.4</course>
  <speed>6.472232999514156</speed>
  <fix>3d</fix>
</trkpt>
<trkpt lat="40.0750046" lon="-105.2301502">
  <ele>1583.0</ele>
  <time>2026-08-28T17:51:23Z</time>
  <course>1.47</course>
  <speed>6.75</speed>
  <fix>3d</fix>
</trkpt>
<trkpt lat="40.0750238" lon="-105.2301496">
  <ele>1583.06</ele>
  <time>2026-08-28T17:51:23Z</time>
  <course>2.4</course>
  <speed>6.372268042071049</speed>
  <fix>3d</fix>
</trkpt>
<trkpt lat="40.0750166" lon="-105.2301498">
  <ele>1583.0</ele>
  <time>2026-08-28T17:51:23Z</time>
  <course>1.47</course>
  <speed>6.55</speed>
  <fix>3d</fix>
</trkpt>
<trkpt lat="40.0750295" lon="-105.2301494">
  <ele>1583.06</ele>
  <time>2026-08-28T17:51:23Z</time>
  <course>2.4</course>
  <speed>6.282037885909317</speed>
  <fix>3d</fix>
</trkpt>
<trkpt lat="40.0750166" lon="-105.2301498">
  <ele>1583.0</ele>
  <time>2026-08-28T17:51:23Z</time>
  <course>1.47</course>
  <speed>6.55</speed>
  <fix>3d</fix>
</trkpt>
<trkpt lat="40.0750352" lon="-105.2301492">
  <ele>1583.06</ele>
  <time>2026-08-28T17:51:23Z</time>
  <course>2.41</course>
  <speed>6.1820708504513275</speed>
  <fix>3d</fix>
</trkpt>
<trkpt lat="40.0750282" lon="-105.2301495">
  <ele>1583.0</ele>
  <time>2026-08-28T17:51:23Z</time>
  <course>1.47</course>
  <speed>6.35</speed>
  <fix>3d</fix>
</trkpt>
<trkpt lat="40.0750408" lon="-105.230149">
  <ele>1583.05</ele>
  <time>2026-08-28T17:51:23Z</time>
  <course>2.41</course>
  <speed>6.082104898799428</speed>
  <fix>3d</fix>
</trkpt>
<trkpt lat="40.0750282" lon="-105.2301495">
  <ele>1583.0</ele>
  <time>2026-08-28T17:51:23Z</time>
  <course>1.47</course>
  <speed>6.35</speed>
  <fix>3d</fix>
</trkpt>
<trkpt lat="40.0750463" lon="-105.2301488">
  <ele>1583.05</ele>
  <time>2026-08-28T17:51:23Z</time>
  <course>2.41</course>
  <speed>5.982140085287204</speed>
  <fix>3d</fix>
</trkpt>
<trkpt lat="40.0750394" lon="-105.230149">
  <ele>1583.0</ele>
  <time>2026-08-28T17:51:23Z</time>
  <course>1.47</course>
  <speed>6.15</speed>
  <fix>3d</fix>
</trkpt>
<trkpt lat="40.0750517" lon="-105.2301487">
  <ele>1583.05</ele>
  <time>2026-08-28T17:51:23Z</time>
  <course>2.42</course>
  <speed>5.882176467941097</speed>
  <fix>3d</fix>
</trkpt>
<trkpt lat="40.0750394" lon="-105.230149">
  <ele>1583.0</ele>
  <time>2026-08-28T17:51:23Z</time>
  <course>1.47</course>
  <speed>6.15</speed>
  <fix>3d</fix>
</trkpt>
<trkpt lat="40.075057" lon="-105.2301485">
  <ele>1583.05</ele>
  <time>2026-08-28T17:51:23Z</time>
  <course>2.42</course>
  <speed>5.791942679274373</speed>
  <fix>3d</fix>
</trkpt>
<trkpt lat="40.0750503" lon="-105.2301487">
  <ele>1583.0</ele>
  <time>2026-08-28T17:51:23Z</time>
  <course>1.47</course>
  <speed>5.95</speed>
  <fix>3d</fix>
</trkpt>
<trkpt lat="40.0750622" lon="-105.2301483">
  <ele>1583.05</ele>
  <time>2026-08-28T17:51:23Z</time>
  <course>2.42</course>
  <speed>5.691976809510031</speed>
  <fix>3d</fix>
</trkpt>
<trkpt lat="40.0750503" lon="-105.2301487">
  <ele>1583.0</ele>
  <time>2026-08-28T17:51:23Z</time>
  <course>1.47</course>
  <speed>5.95</speed>
  <fix>3d</fix>
</trkpt>
<trkpt lat="40.0750674" lon="-105.2301481">
  <ele>1583.06</ele>
  <time>2026-08-28T17:51:23Z</time>
  <course>2.43</course>
  <speed>5.592012160215677</speed>
  <fix>3d</fix>
</trkpt>
<trkpt lat="40.0750608" lon="-105.2301483">
  <ele>1583.0</ele>
  <time>2026-08-28T17:51:23Z</time>
  <course>1.47</course>
  <speed>5.75</speed>
  <fix>3d</fix>
</trkpt>
<trkpt lat="40.0750724" lon="-105.2301479">
  <ele>1583.06</ele>
  <time>2026-08-28T17:51:23Z</time>
  <course>2.43</course>
  <speed>5.492048798035211</speed>
  <fix>3d</fix>
</trkpt>
<trkpt lat="40.0750608" lon="-105.2301483">
  <ele>1583.0</ele>
  <time>2026-08-28T17:51:23Z</time>
  <course>1.47</course>
  <speed>5.75</speed>
  <fix>3d</fix>
</trkpt>
<trkpt lat="40.0750773" lon="-105.2301477">
  <ele>1583.06</ele>
  <time>2026-08-28T17:51:23Z</time>
  <course>2.39</course>
  <speed>5.3818212530703775</speed>
  <fix>3d</fix>
</trkpt>
<trkpt lat="40.0750608" lon="-105.2301483">
  <ele>1583.0</ele>
  <time>2026-08-28T17:51:23Z</time>
  <course>1.47</course>
  <speed>5.75</speed>
  <fix>3d</fix>
</trkpt>
<trkpt lat="40.0750821" lon="-105.2301476">
  <ele>1583.06</ele>
  <time>2026-08-28T17:51:23Z</time>
  <course>2.36</course>
  <speed>5.281855734493323</speed>
  <fix>3d</fix>
</trkpt>
<trkpt lat="40.0750709" lon="-105.230148">
  <ele>1583.0</ele>
  <time>2026-08-28T17:51:23Z</time>
  <course>1.45</course>
  <speed>5.55</speed>
  <fix>3d</fix>
</trkpt>
<trkpt lat="40.0750868" lon="-105.2301474">
  <ele>1583.07</ele>
  <time>2026-08-28T17:51:23Z</time>
  <course>2.29</course>
  <speed>5.181631017353513</speed>
  <fix>3d</fix>
</trkpt>
<trkpt lat="40.0750709" lon="-105.230148">
  <ele>1583.0</ele>
  <time>2026-08-28T17:51:23Z</time>
  <course>1.45</course>
  <speed>5.55</speed>
  <fix>3d</fix>
</trkpt>
<trkpt lat="40.0750914" lon="-105.2301473">
  <ele>1583.07</ele>
  <time>2026-08-28T17:51:23Z</time>
  <course>2.23</course>
  <speed>5.071419919509722</speed>
  <fix>3d</fix>
</trkpt>
<trkpt lat="40.0750807" lon="-105.2301477">
  <ele>1583.0</ele>
  <time>2026-08-28T17:51:23Z</time>
  <course>1.37</course>
  <speed>5.34</speed>
  <fix>3d</fix>
</trkpt>
<trkpt lat="40.0750959" lon="-105.2301472">
  <ele>1583.07</ele>
  <time>2026-08-28T17:51:23Z</time>
  <course>2.16</course>
  <speed>4.971217154782116</speed>
  <fix>3d</fix>
</trkpt>
<trkpt lat="40.0750807" lon="-105.2301477">
  <ele>1583.0</ele>
  <time>2026-08-28T17:51:23Z</time>
  <course>1.37</course>
  <speed>5.34</speed>
  <fix>3d</fix>
</trkpt>
<trkpt lat="40.0751003" lon="-105.230147">
  <ele>1583.08</ele>
  <time>2026-08-28T17:51:23Z</time>
  <course>2.1</course>
  <speed>4.871026585844097</speed>
  <fix>3d</fix>
</trkpt>
<trkpt lat="40.0750902" lon="-105.2301474">
  <ele>1583.0</ele>
  <time>2026-08-28T17:51:23Z</time>
  <course>1.25</course>
  <speed>5.14</speed>
  <fix>3d</fix>
</trkpt>
<trkpt lat="40.0751047" lon="-105.2301469">
  <ele>1583.08</ele>
  <time>2026-08-28T17:51:23Z</time>
  <course>2.03</course>
  <speed>4.77104810288054</speed>
  <fix>3d</fix>
</trkpt>
<trkpt lat="40.0750992" lon="-105.2301472">
  <ele>1583.0</ele>
  <time>2026-08-28T17:51:23Z</time>
  <course>1.12</course>
  <speed>4.93</speed>
  <fix>3d</fix>
</trkpt>
<trkpt lat="40.075109" lon="-105.2301468">
  <ele>1583.08</ele>
  <time>2026-08-28T17:51:23Z</time>
  <course>1.97</course>
  <speed>4.670867157177562</speed>
  <fix>3d</fix>
</trkpt>
<trkpt lat="40.0750992" lon="-105.2301472">
  <ele>1583.0</ele>
  <time>2026-08-28T17:51:23Z</time>
  <course>1.12</course>
  <speed>4.93</speed>
  <fix>3d</fix>
</trkpt>
<trkpt lat="40.0751131" lon="-105.2301467">
  <ele>1583.08</ele>
  <time>2026-08-28T17:51:23Z</time>
  <course>1.91</course>
  <speed>4.570700165182573</speed>
  <fix>3d</fix>
</trkpt>
<trkpt lat="40.0751079" lon="-105.2301469">
  <ele>1583.0</ele>
  <time>2026-08-28T17:51:23Z</time>
  <course>0.99</course>
  <speed>4.73</speed>
  <fix>3d</fix>
</trkpt>
<trkpt lat="40.0751172" lon="-105.2301467">
  <ele>1583.08</ele>
  <time>2026-08-28T17:51:23Z</time>
  <course>1.84</course>
  <speed>4.470715826352643</speed>
  <fix>3d</fix>
</trkpt>
<trkpt lat="40.0751079" lon="-105.2301469">
  <ele>1583.0</ele>
  <time>2026-08-28T17:51:23Z</time>
  <course>0.99</course>
  <speed>4.73</speed>
  <fix>3d</fix>
</trkpt>
<trkpt lat="40.0751212" lon="-105.2301466">
  <ele>1583.09</ele>
  <time>2026-08-28T17:51:23Z</time>
  <course>1.75</course>
  <speed>4.3705606047737176</speed>
  <fix>3d</fix>
</trkpt>
<trkpt lat="40.0751163" lon="-105.2301468">
  <ele>1583.0</ele>
  <time>2026-08-28T17:51:23Z</time>
  <course>0.84</course>
  <speed>4.53</speed>
  <fix>3d</fix>
</trkpt>
<trkpt lat="40.0751251" lon="-105.2301465">
  <ele>1583.08</ele>
  <time>2026-08-28T17:51:23Z</time>
  <course>1.63</course>
  <speed>4.270421524861451</speed>
  <fix>3d</fix>
</trkpt>
<trkpt lat="40.0751163" lon="-105.2301468">
  <ele>1583.0</ele>
  <time>2026-08-28T17:51:23Z</time>
  <course>0.84</course>
  <speed>4.53</speed>
  <fix>3d</fix>
</trkpt>
<trkpt lat="40.075129" lon="-105.2301465">
  <ele>1583.08</ele>
  <time>2026-08-28T17:51:23Z</time>
  <course>1.52</course>
  <speed>4.1702997494185</speed>
  <fix>3d</fix>
</trkpt>
<trkpt lat="40.0751242" lon="-105.2301467">
  <ele>1583.0</ele>
  <time>2026-08-28T17:51:23Z</time>
  <course>0.63</course>
  <speed>4.33</speed>
  <fix>3d</fix>
</trkpt>
<trkpt lat="40.0751328" lon="-105.2301464">
  <ele>1583.08</ele>
  <time>2026-08-28T17:51:23Z</time>
  <course>1.41</course>
  <speed>4.070196555450363</speed>
  <fix>3d</fix>
</trkpt>
<trkpt lat="40.0751242" lon="-105.2301467">
  <ele>1583.0</ele>
  <time>2026-08-28T17:51:23Z</time>
  <course>0.63</course>
  <speed>4.33</speed>
  <fix>3d</fix>
</trkpt>
<trkpt lat="40.0751364" lon="-105.2301464">
  <ele>1583.08</ele>
  <time>2026-08-28T17:51:23Z</time>
  <course>1.3</course>
  <speed>3.970113348507823</speed>
  <fix>3d</fix>
</trkpt>
<trkpt lat="40.0751318" lon="-105.2301466">
  <ele>1583.0</ele>
  <time>2026-08-28T17:51:23Z</time>
  <course>0.4</course>
  <speed>4.13</speed>
  <fix>3d</fix>
</trkpt>
<trkpt lat="40.07514" lon="-105.2301464">
  <ele>1583.08</ele>
  <time>2026-08-28T17:51:23Z</time>
  <course>1.2</course>
  <speed>3.8700516792415063</speed>
  <fix>3d</fix>
</trkpt>
<trkpt lat="40.0751318" lon="-105.2301466">
  <ele>1583.0</ele>
  <time>2026-08-28T17:51:23Z</time>
  <course>0.4</course>
  <speed>4.13</speed>
  <fix>3d</fix>
</trkpt>
<trkpt lat="40.0751435" lon="-105.2301464">
  <ele>1583.08</ele>
  <time>2026-08-28T17:51:23Z</time>
  <course>1.1</course>
  <speed>3.790052770081177</speed>
  <fix>3d</fix>
</trkpt>
<trkpt lat="40.0751391" lon="-105.2301465">
  <ele>1583.0</ele>
  <time>2026-08-28T17:51:23Z</time>
  <course>0.19</course>
  <speed>3.94</speed>
  <fix>3d</fix>
</trkpt>
<trkpt lat="40.0751469" lon="-105.2301464">
  <ele>1583.08</ele>
  <time>2026-08-28T17:51:23Z</time>
  <course>1.0</course>
  <speed>3.7200134408359333</speed>
  <fix>3d</fix>
</trkpt>
<trkpt lat="40.0751391" lon="-105.2301465">
  <ele>1583.0</ele>
  <time>2026-08-28T17:51:23Z</time>
  <course>0.19</course>
  <speed>3.94</speed>
  <fix>3d</fix>
</trkpt>
<trkpt lat="40.0751503" lon="-105.2301464">
  <ele>1583.08</ele>
  <time>2026-08-28T17:51:23Z</time>
  <course>0.9</course>
  <speed>3.67</speed>
  <fix>3d</fix>
</trkpt>
<trkpt lat="40.075146" lon="-105.2301464">
  <ele>1583.0</ele>
  <time>2026-08-28T17:51:23Z</time>
  <course>359.98</course>
  <speed>3.78</speed>
  <fix>3d</fix>
</trkpt>
<trkpt lat="40.0751536" lon="-105.2301464">
  <ele>1583.08</ele>
  <time>2026-08-28T17:51:23Z</time>
  <course>0.8</course>
  <speed>3.63</speed>
  <fix>3d</fix>
</trkpt>
<trkpt lat="40.075146" lon="-105.2301464">
  <ele>1583.0</ele>
  <time>2026-08-28T17:51:23Z</time>
  <course>359.98</course>
  <speed>3.78</speed>
  <fix>3d</fix>
</trkpt>
<trkpt lat="40.0751569" lon="-105.2301464">
  <ele>1583.09</ele>
  <time>2026-08-28T17:51:23Z</time>
  <course>0.7</course>
  <speed>3.6</speed>
  <fix>3d</fix>
</trkpt>
<trkpt lat="40.075146" lon="-105.2301464">
  <ele>1583.0</ele>
  <time>2026-08-28T17:51:23Z</time>
  <course>359.98</course>
  <speed>3.78</speed>
  <fix>3d</fix>
</trkpt>
<trkpt lat="40.0751601" lon="-105.2301464">
  <ele>1583.09</ele>
  <time>2026-08-28T17:51:23Z</time>
  <course>0.61</course>
  <speed>3.59</speed>
  <fix>3d</fix>
</trkpt>
<trkpt lat="40.0751527" lon="-105.2301464">
  <ele>1583.0</ele>
  <time>2026-08-28T17:51:23Z</time>
  <course>359.77</course>
  <speed>3.69</speed>
  <fix>3d</fix>
</trkpt>
<trkpt lat="40.0751634" lon="-105.2301464">
  <ele>1583.09</ele>
  <time>2026-08-28T17:51:23Z</time>
  <course>0.51</course>
  <speed>3.58</speed>
  <fix>3d</fix>
</trkpt>
<trkpt lat="40.0751527" lon="-105.2301464">
  <ele>1583.0</ele>
  <time>2026-08-28T17:51:23Z</time>
  <course>359.77</course>
  <speed>3.69</speed>
  <fix>3d</fix>
</trkpt>
<trkpt lat="40.0751666" lon="-105.2301465">
  <ele>1583.09</ele>
  <time>2026-08-28T17:51:23Z</time>
  <course>0.42</course>
  <speed>3.580013966453204</speed>
  <fix>3d</fix>
</trkpt>
<trkpt lat="40.0751593" lon="-105.2301464">
  <ele>1583.0</ele>
  <time>2026-08-28T17:51:23Z</time>
  <course>359.57</course>
  <speed>3.64</speed>
  <fix>3d</fix>
</trkpt>
<trkpt lat="40.0751698" lon="-105.2301465">
  <ele>1583.09</ele>
  <time>2026-08-28T17:51:23Z</time>
  <course>0.32</course>
  <speed>3.5900139275495855</speed>
  <fix>3d</fix>
</trkpt>
<trkpt lat="40.0751593" lon="-105.2301464">
  <ele>1583.0</ele>
  <time>2026-08-28T17:51:23Z</time>
  <course>359.57</course>
  <speed>3.64</speed>
  <fix>3d</fix>
</trkpt>
<trkpt lat="40.0751731" lon="-105.2301465">
  <ele>1583.09</ele>
  <time>2026-08-28T17:51:23Z</time>
  <course>0.22</course>
  <speed>3.6100554012369397</speed>
  <fix>3d</fix>
</trkpt>
<trkpt lat="40.0751658" lon="-105.2301465">
  <ele>1583.0</ele>
  <time>2026-08-28T17:51:23Z</time>
  <course>359.37</course>
  <speed>3.64</speed>
  <fix>3d</fix>
</trkpt>
<trkpt lat="40.0751763" lon="-105.2301465">
  <ele>1583.09</ele>
  <time>2026-08-28T17:51:23Z</time>
  <course>0.16</course>
  <speed>3.63005509600061</speed>
  <fix>3d</fix>
</trkpt>
<trkpt lat="40.0751724" lon="-105.2301467">
  <ele>1583.0</ele>
  <time>2026-08-28T17:51:23Z</time>
  <course>359.19</course>
  <speed>3.66</speed>
  <fix>3d</fix>
</trkpt>
<trkpt lat="40.0751797" lon="-105.2301465">
  <ele>1583.09</ele>
  <time>2026-08-28T17:51:23Z</time>
  <course>0.08</course>
  <speed>3.660054644400818</speed>
  <fix>3d</fix>
</trkpt>
<trkpt lat="40.0751724" lon="-105.2301467">
  <ele>1583.0</ele>
  <time>2026-08-28T17:51:23Z</time>
  <course>359.19</course>
  <speed>3.66</speed>
  <fix>3d</fix>
</trkpt>
<trkpt lat="40.075183" lon="-105.2301466">
  <ele>1583.09</ele>
  <time>2026-08-28T17:51:23Z</time>
  <course>0.03</course>
  <speed>3.6900542001439494</speed>
  <fix>3d</fix>
</trkpt>
<trkpt lat="40.075179" lon="-105.2301468">
  <ele>1583.0</ele>
  <time>2026-08-28T17:51:23Z</time>
  <course>359.04</course>
  <speed>3.7</speed>
  <fix>3d</fix>
</trkpt>
<trkpt lat="40.0751864" lon="-105.2301467">
  <ele>1583.1</ele>
  <time>2026-08-28T17:51:23Z</time>
  <course>359.99</course>
  <speed>3.7201209657751724</speed>
  <fix>3d</fix>
</trkpt>
<trkpt lat="40.075179" lon="-105.2301468">
  <ele>1583.0</ele>
  <time>2026-08-28T17:51:23Z</time>
  <course>359.04</course>
  <speed>3.7</speed>
  <fix>3d</fix>
</trkpt>
<trkpt lat="40.0751898" lon="-105.2301467">
  <ele>1583.1</ele>
  <time>2026-08-28T17:51:23Z</time>
  <course>359.94</course>
  <speed>3.750119998080061</speed>
  <fix>3d</fix>
</trkpt>
<trkpt lat="40.0751857" lon="-105.2301469">
  <ele>1583.0</ele>
  <time>2026-08-28T17:51:23Z</time>
  <course>358.93</course>
  <speed>3.76</speed>
  <fix>3d</fix>
</trkpt>
<trkpt lat="40.0751932" lon="-105.2301468">
  <ele>1583.1</ele>
  <time>2026-08-28T17:51:23Z</time>
  <course>359.89</course>
  <speed>3.780119045744459</speed>
  <fix>3d</fix>
</trkpt>
<trkpt lat="40.0751857" lon="-105.2301469">
  <ele>1583.0</ele>
  <time>2026-08-28T17:51:23Z</time>
  <course>358.93</course>
  <speed>3.76</speed>
  <fix>3d</fix>
</trkpt>
<trkpt lat="40.0751967" lon="-105.2301469">
  <ele>1583.1</ele>
  <time>2026-08-28T17:51:23Z</time>
  <course>359.84</course>
  <speed>3.820117799230804</speed>
  <fix>3d</fix>
</trkpt>
<trkpt lat="40.0751925" lon="-105.2301472">
  <ele>1583.0</ele>
  <time>2026-08-28T17:51:23Z</time>
  <course>358.82</course>
  <speed>3.82</speed>
  <fix>3d</fix>
</trkpt>
<trkpt lat="40.0752002" lon="-105.230147">
  <ele>1583.1</ele>
  <time>2026-08-28T17:51:23Z</time>
  <course>359.78</course>
  <speed>3.8501168813426947</speed>
  <fix>3d</fix>
</trkpt>
<trkpt lat="40.0751925" lon="-105.2301472">
  <ele>1583.0</ele>
  <time>2026-08-28T17:51:23Z</time>
  <course>358.82</course>
  <speed>3.82</speed>
  <fix>3d</fix>
</trkpt>
<trkpt lat="40.0752037" lon="-105.230147">
  <ele>1583.11</ele>
  <time>2026-08-28T17:51:23Z</time>
  <course>359.73</course>
  <speed>3.880206180088888</speed>
  <fix>3d</fix>
</trkpt>
<trkpt lat="40.0751994" lon="-105.2301473">
  <ele>1583.0</ele>
  <time>2026-08-28T17:51:23Z</time>
  <course>358.72</course>
  <speed>3.88</speed>
  <fix>3d</fix>
</trkpt>
<trkpt lat="40.0752073" lon="-105.2301471">
  <ele>1583.11</ele>
  <time>2026-08-28T17:51:23Z</time>
  <course>359.67</course>
  <speed>3.910204598227566</speed>
  <fix>3d</fix>
</trkpt>
<trkpt lat="40.0751994" lon="-105.2301473">
  <ele>1583.0</ele>
  <time>2026-08-28T17:51:23Z</time>
  <course>358.72</course>
  <speed>3.88</speed>
  <fix>3d</fix>
</trkpt>
<trkpt lat="40.0752109" lon="-105.2301472">
  <ele>1583.11</ele>
  <time>2026-08-28T17:51:23Z</time>
  <course>359.62</course>
  <speed>3.930203557069277</speed>
  <fix>3d</fix>
</trkpt>
<trkpt lat="40.0752064" lon="-105.2301476">
  <ele>1583.0</ele>
  <time>2026-08-28T17:51:23Z</time>
  <course>358.61</course>
  <speed>3.93</speed>
  <fix>3d</fix>
</trkpt>
<trkpt lat="40.0752145" lon="-105.2301473">
  <ele>1583.1</ele>
  <time>2026-08-28T17:51:23Z</time>
  <course>359.56</course>
  <speed>3.960315643985969</speed>
  <fix>3d</fix>
</trkpt>
<trkpt lat="40.0752064" lon="-105.2301476">
  <ele>1583.0</ele>
  <time>2026-08-28T17:51:23Z</time>
  <course>358.61</course>
  <speed>3.93</speed>
  <fix>3d</fix>
</trkpt>
<trkpt lat="40.0752181" lon="-105.2301474">
  <ele>1583.1</ele>
  <time>2026-08-28T17:51:23Z</time>
  <course>359.53</course>
  <speed>3.980314057960753</speed>
  <fix>3d</fix>
</trkpt>
<trkpt lat="40.0752136" lon="-105.2301478">
  <ele>1583.0</ele>
  <time>2026-08-28T17:51:23Z</time>
  <course>358.52</course>
  <speed>3.97</speed>
  <fix>3d</fix>
</trkpt>
<trkpt lat="40.0752217" lon="-105.2301476">
  <ele>1583.1</ele>
  <time>2026-08-28T17:51:23Z</time>
  <course>359.51</course>
  <speed>4.000312487793923</speed>
  <fix>3d</fix>
</trkpt>
<trkpt lat="40.0752136" lon="-105.2301478">
  <ele>1583.0</ele>
  <time>2026-08-28T17:51:23Z</time>
  <course>358.52</course>
  <speed>3.97</speed>
  <fix>3d</fix>
</trkpt>
<trkpt lat="40.0752254" lon="-105.2301477">
  <ele>1583.1</ele>
  <time>2026-08-28T17:51:23Z</time>
  <course>359.48</course>
  <speed>4.010311708583262</speed>
  <fix>3d</fix>
</trkpt>
<trkpt lat="40.0752136" lon="-105.2301478">
  <ele>1583.0</ele>
  <time>2026-08-28T17:51:23Z</time>
  <course>358.52</course>
  <speed>3.97</speed>
  <fix>3d</fix>
</trkpt>
<trkpt lat="40.075229" lon="-105.2301478">
  <ele>1583.1</ele>
  <time>2026-08-28T17:51:23Z</time>
  <course>359.48</course>
  <speed>4.02031093324882</speed>
  <fix>3d</fix>
</trkpt>
<trkpt lat="40.0752207" lon="-105.230148">
  <ele>1583.0</ele>
  <time>2026-08-28T17:51:23Z</time>
  <course>358.46</course>
  <speed>4.01</speed>
  <fix>3d</fix>
</trkpt>
<trkpt lat="40.0752326" lon="-105.2301479">
  <ele>1583.1</ele>
  <time>2026-08-28T17:51:23Z</time>
  <course>359.47</course>
  <speed>4.030310161761747</speed>
  <fix>3d</fix>
</trkpt>
<trkpt lat="40.0752207" lon="-105.230148">
  <ele>1583.0</ele>
  <time>2026-08-28T17:51:23Z</time>
  <course>358.46</course>
  <speed>4.01</speed>
  <fix>3d</fix>
</trkpt>
<trkpt lat="40.0752362" lon="-105.2301481">
  <ele>1583.1</ele>
  <time>2026-08-28T17:51:23Z</time>
  <course>359.47</course>
  <speed>4.040309394093477</speed>
  <fix>3d</fix>
</trkpt>
<trkpt lat="40.075228" lon="-105.2301483">
  <ele>1583.0</ele>
  <time>2026-08-28T17:51:23Z</time>
  <course>358.44</course>
  <speed>4.03</speed>
  <fix>3d</fix>
</trkpt>
<trkpt lat="40.0752399" lon="-105.2301482">
  <ele>1583.1</ele>
  <time>2026-08-28T17:51:23Z</time>
  <course>359.46</course>
  <speed>4.040309394093477</speed>
  <fix>3d</fix>
</trkpt>
<trkpt lat="40.075228" lon="-105.2301483">
  <ele>1583.0</ele>
  <time>2026-08-28T17:51:23Z</time>
  <course>358.44</course>
  <speed>4.03</speed>
  <fix>3d</fix>
</trkpt>
<trkpt lat="40.0752435" lon="-105.2301483">
  <ele>1583.1</ele>
  <time>2026-08-28T17:51:23Z</time>
  <course>359.46</course>
  <speed>4.050308630215727</speed>
  <fix>3d</fix>
</trkpt>
<trkpt lat="40.0752353" lon="-105.2301485">
  <ele>1583.0</ele>
  <time>2026-08-28T17:51:23Z</time>
  <course>358.44</course>
  <speed>4.05</speed>
  <fix>3d</fix>
</trkpt>
<trkpt lat="40.0752471" lon="-105.2301484">
  <ele>1583.1</ele>
  <time>2026-08-28T17:51:23Z</time>
  <course>359.45</course>
  <speed>4.050308630215727</speed>
  <fix>3d</fix>
</trkpt>
<trkpt lat="40.0752353" lon="-105.2301485">
  <ele>1583.0</ele>
  <time>2026-08-28T17:51:23Z</time>
  <course>358.44</course>
  <speed>4.05</speed>
  <fix>3d</fix>
</trkpt>
<trkpt lat="40.0752508" lon="-105.2301485">
  <ele>1583.11</ele>
  <time>2026-08-28T17:51:23Z</time>
  <course>359.45</course>
  <speed>4.050308630215727</speed>
  <fix>3d</fix>
</trkpt>
<trkpt lat="40.0752426" lon="-105.2301488">
  <ele>1583.0</ele>
  <time>2026-08-28T17:51:23Z</time>
  <course>358.44</course>
  <speed>4.06</speed>
  <fix>3d</fix>
</trkpt>
<trkpt lat="40.0752544" lon="-105.2301487">
  <ele>1583.11</ele>
  <time>2026-08-28T17:51:23Z</time>
  <course>359.44</course>
  <speed>4.050444420060594</speed>
  <fix>3d</fix>
</trkpt>
<trkpt lat="40.0752499" lon="-105.230149">
  <ele>1583.0</ele>
  <time>2026-08-28T17:51:23Z</time>
  <course>358.44</course>
  <speed>4.06</speed>
  <fix>3d</fix>
</trkpt>
<trkpt lat="40.0752581" lon="-105.2301488">
  <ele>1583.11</ele>
  <time>2026-08-28T17:51:23Z</time>
  <course>359.43</course>
  <speed>4.050444420060594</speed>
  <fix>3d</fix>
</trkpt>
<trkpt lat="40.0752499" lon="-105.230149">
  <ele>1583.0</ele>
  <time>2026-08-28T17:51:23Z</time>
  <course>358.44</course>
  <speed>4.06</speed>
  <fix>3d</fix>
</trkpt>
<trkpt lat="40.0752617" lon="-105.2301489">
  <ele>1583.11</ele>
  <time>2026-08-28T17:51:23Z</time>
  <course>359.43</course>
  <speed>4.050444420060594</speed>
  <fix>3d</fix>
</trkpt>
<trkpt lat="40.0752572" lon="-105.2301493">
  <ele>1583.0</ele>
  <time>2026-08-28T17:51:23Z</time>
  <course>358.44</course>
  <speed>4.06</speed>
  <fix>3d</fix>
</trkpt>
<trkpt lat="40.0752654" lon="-105.2301491">
  <ele>1583.11</ele>
  <time>2026-08-28T17:51:23Z</time>
  <course>359.42</course>
  <speed>4.050444420060594</speed>
  <fix>3d</fix>
</trkpt>
<trkpt lat="40.0752572" lon="-105.2301493">
  <ele>1583.0</ele>
  <time>2026-08-28T17:51:23Z</time>
  <course>358.44</course>
  <speed>4.06</speed>
  <fix>3d</fix>
</trkpt>
<trkpt lat="40.075269" lon="-105.2301492">
  <ele>1583.11</ele>
  <time>2026-08-28T17:51:23Z</time>
  <course>359.42</course>
  <speed>4.040445519989102</speed>
  <fix>3d</fix>
</trkpt>
<trkpt lat="40.0752645" lon="-105.2301496">
  <ele>1583.0</ele>
  <time>2026-08-28T17:51:23Z</time>
  <course>358.44</course>
  <speed>4.06</speed>
  <fix>3d</fix>
</trkpt>
<trkpt lat="40.0752727" lon="-105.2301493">
  <ele>1583.11</ele>
  <time>2026-08-28T17:51:23Z</time>
  <course>359.41</course>
  <speed>4.040445519989102</speed>
  <fix>3d</fix>
</trkpt>
<trkpt lat="40.0752645" lon="-105.2301496">
  <ele>1583.0</ele>
  <time>2026-08-28T17:51:23Z</time>
  <course>358.44</course>
  <speed>4.06</speed>
  <fix>3d</fix>
</trkpt>
<trkpt lat="40.0752764" lon="-105.2301495">
  <ele>1583.1</ele>
  <time>2026-08-28T17:51:23Z</time>
  <course>359.4</course>
  <speed>4.040445519989102</speed>
  <fix>3d</fix>
</trkpt>
<trkpt lat="40.0752717" lon="-105.2301498">
  <ele>1583.0</ele>
  <time>2026-08-28T17:51:23Z</time>
  <course>358.44</course>
  <speed>4.05</speed>
  <fix>3d</fix>
</trkpt>
<trkpt lat="40.0752801" lon="-105.2301496">
  <ele>1583.1</ele>
  <time>2026-08-28T17:51:23Z</time>
  <course>359.4</course>
  <speed>4.040445519989102</speed>
  <fix>3d</fix>
</trkpt>
<trkpt lat="40.0752717" lon="-105.2301498">
  <ele>1583.0</ele>
  <time>2026-08-28T17:51:23Z</time>
  <course>358.44</course>
  <speed>4.05</speed>
  <fix>3d</fix>
</trkpt>
<trkpt lat="40.0752837" lon="-105.2301497">
  <ele>1583.1</ele>
  <time>2026-08-28T17:51:23Z</time>
  <course>359.39</course>
  <speed>4.030446625375406</speed>
  <fix>3d</fix>
</trkpt>
<trkpt lat="40.075279" lon="-105.2301501">
  <ele>1583.0</ele>
  <time>2026-08-28T17:51:23Z</time>
  <course>358.44</course>
  <speed>4.04</speed>
  <fix>3d</fix>
</trkpt>
<trkpt lat="40.0752874" lon="-105.2301499">
  <ele>1583.1</ele>
  <time>2026-08-28T17:51:23Z</time>
  <course>359.39</course>
  <speed>4.030446625375406</speed>
  <fix>3d</fix>
</trkpt>
<trkpt lat="40.075279" lon="-105.2301501">
  <ele>1583.0</ele>
  <time>2026-08-28T17:51:23Z</time>
  <course>358.44</course>
  <speed>4.04</speed>
  <fix>3d</fix>
</trkpt>
<trkpt lat="40.075291" lon="-105.23015">
  <ele>1583.09</ele>
  <time>2026-08-28T17:51:23Z</time>
  <course>359.39</course>
  <speed>4.020447736260229</speed>
  <fix>3d</fix>
</trkpt>
<trkpt lat="40.0752863" lon="-105.2301503">
  <ele>1583.0</ele>
  <time>2026-08-28T17:51:23Z</time>
  <course>358.44</course>
  <speed>4.03</speed>
  <fix>3d</fix>
</trkpt>
<trkpt lat="40.0752947" lon="-105.2301501">
  <ele>1583.09</ele>
  <time>2026-08-28T17:51:23Z</time>
  <course>359.38</course>
  <speed>4.020447736260229</speed>
  <fix>3d</fix>
</trkpt>
<trkpt lat="40.0752863" lon="-105.2301503">
  <ele>1583.0</ele>
  <time>2026-08-28T17:51:23Z</time>
  <course>358.44</course>
  <speed>4.03</speed>
  <fix>3d</fix>
</trkpt>
<trkpt lat="40.0752983" lon="-105.2301503">
  <ele>1583.09</ele>
  <time>2026-08-28T17:51:23Z</time>
  <course>359.38</course>
  <speed>4.010448852684696</speed>
  <fix>3d</fix>
</trkpt>
<trkpt lat="40.0752935" lon="-105.2301506">
  <ele>1583.0</ele>
  <time>2026-08-28T17:51:23Z</time>
  <course>358.44</course>
  <speed>4.02</speed>
  <fix>3d</fix>
</trkpt>
<trkpt lat="40.0753019" lon="-105.2301504">
  <ele>1583.08</ele>
  <time>2026-08-28T17:51:23Z</time>
  <course>359.37</course>
  <speed>4.010610926031095</speed>
  <fix>3d</fix>
</trkpt>
<trkpt lat="40.0752935" lon="-105.2301506">
  <ele>1583.0</ele>
  <time>2026-08-28T17:51:23Z</time>
  <course>358.44</course>
  <speed>4.02</speed>
  <fix>3d</fix>
</trkpt>
<trkpt lat="40.0753056" lon="-105.2301505">
  <ele>1583.08</ele>
  <time>2026-08-28T17:51:23Z</time>
  <course>359.37</course>
  <speed>4.010610926031095</speed>
  <fix>3d</fix>
</trkpt>
<trkpt lat="40.0752935" lon="-105.2301506">
  <ele>1583.0</ele>
  <time>2026-08-28T17:51:23Z</time>
  <course>358.44</course>
  <speed>4.02</speed>
  <fix>3d</fix>
</trkpt>
<trkpt lat="40.0753091" lon="-105.2301507">
  <ele>1583.07</ele>
  <time>2026-08-28T17:51:23Z</time>
  <course>359.37</course>
  <speed>3.9906139878469826</speed>
  <fix>3d</fix>
</trkpt>
<trkpt lat="40.0753008" lon="-105.2301508">
  <ele>1583.0</ele>
  <time>2026-08-28T17:51:23Z</time>
  <course>358.44</course>
  <speed>4.01</speed>
  <fix>3d</fix>
</trkpt>
<trkpt lat="40.0753127" lon="-105.2301508">
  <ele>1583.07</ele>
  <time>2026-08-28T17:51:23Z</time>
  <course>359.36</course>
  <speed>3.9606186385462565</speed>
  <fix>3d</fix>
</trkpt>
<trkpt lat="40.0753008" lon="-105.2301508">
  <ele>1583.0</ele>
  <time>2026-08-28T17:51:23Z</time>
  <course>358.44</course>
  <speed>4.01</speed>
  <fix>3d</fix>
</trkpt>
<trkpt lat="40.0753162" lon="-105.2301509">
  <ele>1583.07</ele>
  <time>2026-08-28T17:51:23Z</time>
  <course>359.36</course>
  <speed>3.9206249501833255</speed>
  <fix>3d</fix>
</trkpt>
<trkpt lat="40.075308" lon="-105.2301511">
  <ele>1583.0</ele>
  <time>2026-08-28T17:51:23Z</time>
  <course>358.44</course>
  <speed>3.98</speed>
  <fix>3d</fix>
</trkpt>
<trkpt lat="40.0753197" lon="-105.2301511">
  <ele>1583.07</ele>
  <time>2026-08-28T17:51:23Z</time>
  <course>359.36</course>
  <speed>3.860634662850138</speed>
  <fix>3d</fix>
</trkpt>
<trkpt lat="40.075308" lon="-105.2301511">
  <ele>1583.0</ele>
  <time>2026-08-28T17:51:23Z</time>
  <course>358.44</course>
  <speed>3.98</speed>
  <fix>3d</fix>
</trkpt>
<trkpt lat="40.0753231" lon="-105.2301512">
  <ele>1583.07</ele>
  <time>2026-08-28T17:51:23Z</time>
  <course>359.36</course>
  <speed>3.790646382874562</speed>
  <fix>3d</fix>
</trkpt>
<trkpt lat="40.0753151" lon="-105.2301513">
  <ele>1583.0</ele>
  <time>2026-08-28T17:51:23Z</time>
  <course>358.44</course>
  <speed>3.91</speed>
  <fix>3d</fix>
</trkpt>
<trkpt lat="40.0753265" lon="-105.2301513">
  <ele>1583.07</ele>
  <time>2026-08-28T17:51:23Z</time>
  <course>359.35</course>
  <speed>3.7106603185956</speed>
  <fix>3d</fix>
</trkpt>
<trkpt lat="40.075322" lon="-105.2301516">
  <ele>1583.0</ele>
  <time>2026-08-28T17:51:23Z</time>
  <course>358.44</course>
  <speed>3.79</speed>
  <fix>3d</fix>
</trkpt>
<trkpt lat="40.0753298" lon="-105.2301514">
  <ele>1583.07</ele>
  <time>2026-08-28T17:51:23Z</time>
  <course>359.35</course>
  <speed>3.62067673232505</speed>
  <fix>3d</fix>
</trkpt>
<trkpt lat="40.075322" lon="-105.2301516">
  <ele>1583.0</ele>
  <time>2026-08-28T17:51:23Z</time>
  <course>358.44</course>
  <speed>3.79</speed>
  <fix>3d</fix>
</trkpt>
<trkpt lat="40.075333" lon="-105.2301516">
  <ele>1583.07</ele>
  <time>2026-08-28T17:51:23Z</time>
  <course>359.35</course>
  <speed>3.5206959539272913</speed>
  <fix>3d</fix>
</trkpt>
<trkpt lat="40.0753287" lon="-105.2301519">
  <ele>1583.0</ele>
  <time>2026-08-28T17:51:23Z</time>
  <course>358.44</course>
  <speed>3.62</speed>
  <fix>3d</fix>
</trkpt>
<trkpt lat="40.075336" lon="-105.2301517">
  <ele>1583.07</ele>
  <time>2026-08-28T17:51:23Z</time>
  <course>359.35</course>
  <speed>3.4105278183882333</speed>
  <fix>3d</fix>
</trkpt>
<trkpt lat="40.0753287" lon="-105.2301519">
  <ele>1583.0</ele>
  <time>2026-08-28T17:51:23Z</time>
  <course>358.44</course>
  <speed>3.62</speed>
  <fix>3d</fix>
</trkpt>
<trkpt lat="40.0753391" lon="-105.2301518">
  <ele>1583.07</ele>
  <time>2026-08-28T17:51:23Z</time>
  <course>359.36</course>
  <speed>3.300545409474016</speed>
  <fix>3d</fix>
</trkpt>
<trkpt lat="40.075335" lon="-105.2301521">
  <ele>1583.0</ele>
  <time>2026-08-28T17:51:23Z</time>
  <course>358.44</course>
  <speed>3.42</speed>
  <fix>3d</fix>
</trkpt>
<trkpt lat="40.075342" lon="-105.2301519">
  <ele>1583.07</ele>
  <time>2026-08-28T17:51:23Z</time>
  <course>359.37</course>
  <speed>3.190564213426835</speed>
  <fix>3d</fix>
</trkpt>
<trkpt lat="40.075335" lon="-105.2301521">
  <ele>1583.0</ele>
  <time>2026-08-28T17:51:23Z</time>
  <course>358.44</course>
  <speed>3.42</speed>
  <fix>3d</fix>
</trkpt>
<trkpt lat="40.0753448" lon="-105.2301521">
  <ele>1583.07</ele>
  <time>2026-08-28T17:51:23Z</time>
  <course>359.4</course>
  <speed>3.090582469373694</speed>
  <fix>3d</fix>
</trkpt>
<trkpt lat="40.0753409" lon="-105.2301522">
  <ele>1583.0</ele>
  <time>2026-08-28T17:51:23Z</time>
  <course>358.47</course>
  <speed>3.21</speed>
  <fix>3d</fix>
</trkpt>
<trkpt lat="40.0753476" lon="-105.2301522">
  <ele>1583.07</ele>
  <time>2026-08-28T17:51:23Z</time>
  <course>359.43</course>
  <speed>3.000599940011997</speed>
  <fix>3d</fix>
</trkpt>
<trkpt lat="40.0753409" lon="-105.2301522">
  <ele>1583.0</ele>
  <time>2026-08-28T17:51:23Z</time>
  <course>358.47</course>
  <speed>3.21</speed>
  <fix>3d</fix>
</trkpt>
<trkpt lat="40.0753502" lon="-105.2301523">
  <ele>1583.07</ele>
  <time>2026-08-28T17:51:23Z</time>
  <course>359.46</course>
  <speed>2.9304265901059523</speed>
  <fix>3d</fix>
</trkpt>
<trkpt lat="40.0753466" lon="-105.2301525">
  <ele>1583.0</ele>
  <time>2026-08-28T17:51:23Z</time>
  <course>358.52</course>
  <speed>3.03</speed>
  <fix>3d</fix>
</trkpt>
<trkpt lat="40.0753528" lon="-105.2301524">
  <ele>1583.07</ele>
  <time>2026-08-28T17:51:23Z</time>
  <course>359.5</course>
  <speed>2.8604370295463593</speed>
  <fix>3d</fix>
</trkpt>
<trkpt lat="40.0753466" lon="-105.2301525">
  <ele>1583.0</ele>
  <time>2026-08-28T17:51:23Z</time>
  <course>358.52</course>
  <speed>3.03</speed>
  <fix>3d</fix>
</trkpt>
<trkpt lat="40.0753554" lon="-105.2301525">
  <ele>1583.07</ele>
  <time>2026-08-28T17:51:23Z</time>
  <course>359.52</course>
  <speed>2.8104448046528154</speed>
  <fix>3d</fix>
</trkpt>
<trkpt lat="40.0753519" lon="-105.2301526">
  <ele>1583.0</ele>
  <time>2026-08-28T17:51:23Z</time>
  <course>358.58</course>
  <speed>2.89</speed>
  <fix>3d</fix>
</trkpt>
<trkpt lat="40.0753579" lon="-105.2301526">
  <ele>1583.07</ele>
  <time>2026-08-28T17:51:23Z</time>
  <course>359.55</course>
  <speed>2.7704512267859904</speed>
  <fix>3d</fix>
</trkpt>
<trkpt lat="40.0753519" lon="-105.2301526">
  <ele>1583.0</ele>
  <time>2026-08-28T17:51:23Z</time>
  <course>358.58</course>
  <speed>2.89</speed>
  <fix>3d</fix>
</trkpt>
<trkpt lat="40.0753604" lon="-105.2301526">
  <ele>1583.07</ele>
  <time>2026-08-28T17:51:23Z</time>
  <course>359.57</course>
  <speed>2.7404561664073372</speed>
  <fix>3d</fix>
</trkpt>
<trkpt lat="40.0753569" lon="-105.2301528">
  <ele>1583.0</ele>
  <time>2026-08-28T17:51:23Z</time>
  <course>358.64</course>
  <speed>2.8</speed>
  <fix>3d</fix>
</trkpt>
<trkpt lat="40.0753628" lon="-105.2301527">
  <ele>1583.07</ele>
  <time>2026-08-28T17:51:23Z</time>
  <course>359.6</course>
  <speed>2.720459520007603</speed>
  <fix>3d</fix>
</trkpt>
<trkpt lat="40.0753569" lon="-105.2301528">
  <ele>1583.0</ele>
  <time>2026-08-28T17:51:23Z</time>
  <course>358.64</course>
  <speed>2.8</speed>
  <fix>3d</fix>
</trkpt>
<trkpt lat="40.0753653" lon="-105.2301528">
  <ele>1583.07</ele>
  <time>2026-08-28T17:51:23Z</time>
  <course>359.61</course>
  <speed>2.700296280040396</speed>
  <fix>3d</fix>
</trkpt>
<trkpt lat="40.0753569" lon="-105.2301528">
  <ele>1583.0</ele>
  <time>2026-08-28T17:51:23Z</time>
  <course>358.64</course>
  <speed>2.8</speed>
  <fix>3d</fix>
</trkpt>
<trkpt lat="40.0753677" lon="-105.2301529">
  <ele>1583.07</ele>
  <time>2026-08-28T17:51:23Z</time>
  <course>359.63</course>
  <speed>2.700296280040396</speed>
  <fix>3d</fix>
</trkpt>
<trkpt lat="40.075362" lon="-105.230153">
  <ele>1583.0</ele>
  <time>2026-08-28T17:51:23Z</time>
  <course>358.68</course>
  <speed>2.75</speed>
  <fix>3d</fix>
</trkpt>
<trkpt lat="40.0753701" lon="-105.230153">
  <ele>1583.07</ele>
  <time>2026-08-28T17:51:23Z</time>
  <course>359.65</course>
  <speed>2.700296280040396</speed>
  <fix>3d</fix>
</trkpt>
<trkpt lat="40.075362" lon="-105.230153">
  <ele>1583.0</ele>
  <time>2026-08-28T17:51:23Z</time>
  <course>358.68</course>
  <speed>2.75</speed>
  <fix>3d</fix>
</trkpt>
<trkpt lat="40.0753725" lon="-105.230153">
  <ele>1583.07</ele>
  <time>2026-08-28T17:51:23Z</time>
  <course>359.66</course>
  <speed>2.700296280040396</speed>
  <fix>3d</fix>
</trkpt>
<trkpt lat="40.0753669" lon="-105.2301531">
  <ele>1583.0</ele>
  <time>2026-08-28T17:51:23Z</time>
  <course>358.71</course>
  <speed>2.73</speed>
  <fix>3d</fix>
</trkpt>
<trkpt lat="40.0753749" lon="-105.2301531">
  <ele>1583.07</ele>
  <time>2026-08-28T17:51:23Z</time>
  <course>359.68</course>
  <speed>2.700296280040396</speed>
  <fix>3d</fix>
</trkpt>
<trkpt lat="40.0753669" lon="-105.2301531">
  <ele>1583.0</ele>
  <time>2026-08-28T17:51:23Z</time>
  <course>358.71</course>
  <speed>2.73</speed>
  <fix>3d</fix>
</trkpt>
<trkpt lat="40.0753773" lon="-105.2301532">
  <ele>1583.07</ele>
  <time>2026-08-28T17:51:23Z</time>
  <course>359.71</course>
  <speed>2.6902973813316624</speed>
  <fix>3d</fix>
</trkpt>
<trkpt lat="40.0753718" lon="-105.2301532">
  <ele>1583.0</ele>
  <time>2026-08-28T17:51:23Z</time>
  <course>358.74</course>
  <speed>2.73</speed>
  <fix>3d</fix>
</trkpt>
<trkpt lat="40.0753797" lon="-105.2301532">
  <ele>1583.07</ele>
  <time>2026-08-28T17:51:23Z</time>
  <course>359.72</course>
  <speed>2.6702996086581745</speed>
  <fix>3d</fix>
</trkpt>
<trkpt lat="40.0753718" lon="-105.2301532">
  <ele>1583.0</ele>
  <time>2026-08-28T17:51:23Z</time>
  <course>358.74</course>
  <speed>2.73</speed>
  <fix>3d</fix>
</trkpt>
<trkpt lat="40.0753821" lon="-105.2301533">
  <ele>1583.06</ele>
  <time>2026-08-28T17:51:23Z</time>
  <course>359.74</course>
  <speed>2.630304164920856</speed>
  <fix>3d</fix>
</trkpt>
<trkpt lat="40.0753767" lon="-105.2301534">
  <ele>1583.0</ele>
  <time>2026-08-28T17:51:23Z</time>
  <course>358.77</course>
  <speed>2.71</speed>
  <fix>3d</fix>
</trkpt>
<trkpt lat="40.0753845" lon="-105.2301534">
  <ele>1583.06</ele>
  <time>2026-08-28T17:51:23Z</time>
  <course>359.78</course>
  <speed>2.5801744127093422</speed>
  <fix>3d</fix>
</trkpt>
<trkpt lat="40.0753816" lon="-105.2301535">
  <ele>1583.0</ele>
  <time>2026-08-28T17:51:23Z</time>
  <course>358.82</course>
  <speed>2.66</speed>
  <fix>3d</fix>
</trkpt>
<trkpt lat="40.0753868" lon="-105.2301534">
  <ele>1583.06</ele>
  <time>2026-08-28T17:51:23Z</time>
  <course>359.8</course>
  <speed>2.5201785651020843</speed>
  <fix>3d</fix>
</trkpt>
<trkpt lat="40.0753816" lon="-105.2301535">
  <ele>1583.0</ele>
  <time>2026-08-28T17:51:23Z</time>
  <course>358.82</course>
  <speed>2.66</speed>
  <fix>3d</fix>
</trkpt>
<trkpt lat="40.075389" lon="-105.2301535">
  <ele>1583.06</ele>
  <time>2026-08-28T17:51:23Z</time>
  <course>359.84</course>
  <speed>2.4601829200285086</speed>
  <fix>3d</fix>
</trkpt>
<trkpt lat="40.0753863" lon="-105.2301536">
  <ele>1583.0</ele>
  <time>2026-08-28T17:51:23Z</time>
  <course>358.87</course>
  <speed>2.55</speed>
  <fix>3d</fix>
</trkpt>
<trkpt lat="40.0753912" lon="-105.2301536">
  <ele>1583.05</ele>
  <time>2026-08-28T17:51:23Z</time>
  <course>359.87</course>
  <speed>2.38018906812043</speed>
  <fix>3d</fix>
</trkpt>
<trkpt lat="40.0753863" lon="-105.2301536">
  <ele>1583.0</ele>
  <time>2026-08-28T17:51:23Z</time>
  <course>358.87</course>
  <speed>2.55</speed>
  <fix>3d</fix>
</trkpt>
<trkpt lat="40.0753933" lon="-105.2301536">
  <ele>1583.05</ele>
  <time>2026-08-28T17:51:23Z</time>
  <course>359.91</course>
  <speed>2.3000869548780107</speed>
  <fix>3d</fix>
</trkpt>
<trkpt lat="40.0753907" lon="-105.2301537">
  <ele>1583.0</ele>
  <time>2026-08-28T17:51:23Z</time>
  <course>358.93</course>
  <speed>2.41</speed>
  <fix>3d</fix>
</trkpt>
<trkpt lat="40.0753954" lon="-105.2301537">
  <ele>1583.05</ele>
  <time>2026-08-28T17:51:23Z</time>
  <course>359.94</course>
  <speed>2.2000909072126995</speed>
  <fix>3d</fix>
</trkpt>
<trkpt lat="40.0753907" lon="-105.2301537">
  <ele>1583.0</ele>
  <time>2026-08-28T17:51:23Z</time>
  <course>358.93</course>
  <speed>2.41</speed>
  <fix>3d</fix>
</trkpt>
<trkpt lat="40.0753974" lon="-105.2301537">
  <ele>1583.05</ele>
  <time>2026-08-28T17:51:23Z</time>
  <course>359.97</course>
  <speed>2.100095235935742</speed>
  <fix>3d</fix>
</trkpt>
<trkpt lat="40.0753949" lon="-105.2301538">
  <ele>1583.0</ele>
  <time>2026-08-28T17:51:23Z</time>
  <course>358.99</course>
  <speed>2.24</speed>
  <fix>3d</fix>
</trkpt>
<trkpt lat="40.0753992" lon="-105.2301537">
  <ele>1583.05</ele>
  <time>2026-08-28T17:51:23Z</time>
  <course>0.0</course>
  <speed>2.000099997500125</speed>
  <fix>3d</fix>
</trkpt>
<trkpt lat="40.0753949" lon="-105.2301538">
  <ele>1583.0</ele>
  <time>2026-08-28T17:51:23Z</time>
  <course>358.99</course>
  <speed>2.24</speed>
  <fix>3d</fix>
</trkpt>
<trkpt lat="40.075401" lon="-105.2301538">
  <ele>1583.05</ele>
  <time>2026-08-28T17:51:23Z</time>
  <course>0.02</course>
  <speed>1.8901058171435798</speed>
  <fix>3d</fix>
</trkpt>
<trkpt lat="40.0753987" lon="-105.2301539">
  <ele>1583.0</ele>
  <time>2026-08-28T17:51:23Z</time>
  <course>359.05</course>
  <speed>2.03</speed>
  <fix>3d</fix>
</trkpt>
<trkpt lat="40.0754027" lon="-105.2301538">
  <ele>1583.05</ele>
  <time>2026-08-28T17:51:23Z</time>
  <course>0.05</course>
  <speed>1.7801123560045304</speed>
  <fix>3d</fix>
</trkpt>
<trkpt lat="40.0753987" lon="-105.2301539">
  <ele>1583.0</ele>
  <time>2026-08-28T17:51:23Z</time>
  <course>359.05</course>
  <speed>2.03</speed>
  <fix>3d</fix>
</trkpt>
<trkpt lat="40.0754042" lon="-105.2301539">
  <ele>1583.05</ele>
  <time>2026-08-28T17:51:23Z</time>
  <course>0.08</course>
  <speed>1.6600301202086667</speed>
  <fix>3d</fix>
</trkpt>
<trkpt lat="40.0754022" lon="-105.230154">
  <ele>1583.0</ele>
  <time>2026-08-28T17:51:23Z</time>
  <course>359.1</course>
  <speed>1.81</speed>
  <fix>3d</fix>
</trkpt>
<trkpt lat="40.0754057" lon="-105.2301539">
  <ele>1583.05</ele>
  <time>2026-08-28T17:51:23Z</time>
  <course>0.12</course>
  <speed>1.5400324671902212</speed>
  <fix>3d</fix>
</trkpt>
<trkpt lat="40.0754022" lon="-105.230154">
  <ele>1583.0</ele>
  <time>2026-08-28T17:51:23Z</time>
  <course>359.1</course>
  <speed>1.81</speed>
  <fix>3d</fix>
</trkpt>
<trkpt lat="40.075407" lon="-105.2301539">
  <ele>1583.06</ele>
  <time>2026-08-28T17:51:23Z</time>
  <course>0.16</course>
  <speed>1.4200352108310554</speed>
  <fix>3d</fix>
</trkpt>
<trkpt lat="40.0754053" lon="-105.230154">
  <ele>1583.0</ele>
  <time>2026-08-28T17:51:23Z</time>
  <course>359.17</course>
  <speed>1.58</speed>
  <fix>3d</fix>
</trkpt>
<trkpt lat="40.0754083" lon="-105.2301539">
  <ele>1583.06</ele>
  <time>2026-08-28T17:51:23Z</time>
  <course>0.2</course>
  <speed>1.3000384609695206</speed>
  <fix>3d</fix>
</trkpt>
<trkpt lat="40.0754053" lon="-105.230154">
  <ele>1583.0</ele>
  <time>2026-08-28T17:51:23Z</time>
  <course>359.17</course>
  <speed>1.58</speed>
  <fix>3d</fix>
</trkpt>
<trkpt lat="40.0754094" lon="-105.230154">
  <ele>1583.06</ele>
  <time>2026-08-28T17:51:23Z</time>
  <course>0.26</course>
  <speed>1.1800423721205946</speed>
  <fix>3d</fix>
</trkpt>
<trkpt lat="40.0754053" lon="-105.230154">
  <ele>1583.0</ele>
  <time>2026-08-28T17:51:23Z</time>
  <course>359.17</course>
  <speed>1.58</speed>
  <fix>3d</fix>
</trkpt>
<trkpt lat="40.0754104" lon="-105.230154">
  <ele>1583.06</ele>
  <time>2026-08-28T17:51:23Z</time>
  <course>0.32</course>
  <speed>1.050047617967871</speed>
  <fix>3d</fix>
</trkpt>
<trkpt lat="40.0754079" lon="-105.2301541">
  <ele>1583.0</ele>
  <time>2026-08-28T17:51:23Z</time>
  <course>359.25</course>
  <speed>1.34</speed>
  <fix>3d</fix>
</trkpt>
<trkpt lat="40.0754113" lon="-105.230154">
  <ele>1583.06</ele>
  <time>2026-08-28T17:51:23Z</time>
  <course>0.37</course>
  <speed>0.93</speed>
  <fix>3d</fix>
</trkpt>
<trkpt lat="40.0754079" lon="-105.2301541">
  <ele>1583.0</ele>
  <time>2026-08-28T17:51:23Z</time>
  <course>359.25</course>
  <speed>1.34</speed>
  <fix>3d</fix>
</trkpt>
<trkpt lat="40.0754121" lon="-105.230154">
  <ele>1583.07</ele>
  <time>2026-08-28T17:51:23Z</time>
  <course>0.42</course>
  <speed>0.81</speed>
  <fix>3d</fix>
</trkpt>
<trkpt lat="40.0754101" lon="-105.2301542">
  <ele>1583.0</ele>
  <time>2026-08-28T17:51:23Z</time>
  <course>359.35</course>
  <speed>1.1</speed>
  <fix>3d</fix>
</trkpt>
<trkpt lat="40.0754127" lon="-105.2301541">
  <ele>1583.06</ele>
  <time>2026-08-28T17:51:23Z</time>
  <course>0.47</course>
  <speed>0.69</speed>
  <fix>3d</fix>
</trkpt>
<trkpt lat="40.0754101" lon="-105.2301542">
  <ele>1583.0</ele>
  <time>2026-08-28T17:51:23Z</time>
  <course>359.35</course>
  <speed>1.1</speed>
  <fix>3d</fix>
</trkpt>
<trkpt lat="40.0754133" lon="-105.2301541">
  <ele>1583.06</ele>
  <time>2026-08-28T17:51:23Z</time>
  <course>0.52</course>
  <speed>0.57</speed>
  <fix>3d</fix>
</trkpt>
<trkpt lat="40.0754119" lon="-105.2301542">
  <ele>1583.0</ele>
  <time>2026-08-28T17:51:23Z</time>
  <course>359.45</course>
  <speed>0.86</speed>
  <fix>3d</fix>
</trkpt>
<trkpt lat="40.0754138" lon="-105.2301541">
  <ele>1583.06</ele>
  <time>2026-08-28T17:51:23Z</time>
  <course>0.56</course>
  <speed>0.45</speed>
  <fix>3d</fix>
</trkpt>
<trkpt lat="40.0754132" lon="-105.2301542">
  <ele>1583.0</ele>
  <time>2026-08-28T17:51:23Z</time>
  <course>359.54</course>
  <speed>0.62</speed>
  <fix>3d</fix>
</trkpt>
<trkpt lat="40.0754141" lon="-105.2301541">
  <ele>1583.06</ele>
  <time>2026-08-28T17:51:23Z</time>
  <course>0.59</course>
  <speed>0.33</speed>
  <fix>3d</fix>
</trkpt>
<trkpt lat="40.0754132" lon="-105.2301542">
  <ele>1583.0</ele>
  <time>2026-08-28T17:51:23Z</time>
  <course>359.54</course>
  <speed>0.62</speed>
  <fix>3d</fix>
</trkpt>
<trkpt lat="40.0754144" lon="-105.2301541">
  <ele>1583.06</ele>
  <time>2026-08-28T17:51:23Z</time>
  <course>0.62</course>
  <speed>0.22</speed>
  <fix>3d</fix>
</trkpt>
<trkpt lat="40.0754141" lon="-105.2301542">
  <ele>1583.0</ele>
  <time>2026-08-28T17:51:23Z</time>
  <course>359.61</course>
  <speed>0.39</speed>
  <fix>3d</fix>
</trkpt>
<trkpt lat="40.0754146" lon="-105.2301541">
  <ele>1583.05</ele>
  <time>2026-08-28T17:51:23Z</time>
  <course>0.64</course>
  <speed>0.12</speed>
  <fix>3d</fix>
</trkpt>
<trkpt lat="40.0754141" lon="-105.2301542">
  <ele>1583.0</ele>
  <time>2026-08-28T17:51:23Z</time>
  <course>359.61</course>
  <speed>0.39</speed>
  <fix>3d</fix>
</trkpt>
<trkpt lat="40.0754146" lon="-105.2301541">
  <ele>1583.05</ele>
  <time>2026-08-28T17:51:23Z</time>
  <course>0.66</course>
  <speed>0.06</speed>
  <fix>3d</fix>
</trkpt>
<trkpt lat="40.0754146" lon="-105.2301542">
  <ele>1583.0</ele>
  <time>2026-08-28T17:51:23Z</time>
  <course>359.66</course>
  <speed>0.2</speed>
  <fix>3d</fix>
</trkpt>
<trkpt lat="40.0754147" lon="-105.2301541">
  <ele>1583.05</ele>
  <time>2026-08-28T17:51:23Z</time>
  <course>0.67</course>
  <speed>0.03</speed>
  <fix>3d</fix>
</trkpt>
<trkpt lat="40.0754146" lon="-105.2301542">
  <ele>1583.0</ele>
  <time>2026-08-28T17:51:23Z</time>
  <course>359.66</course>
  <speed>0.2</speed>
  <fix>3d</fix>
</trkpt>
<trkpt lat="40.0754147" lon="-105.2301541">
  <ele>1583.06</ele>
  <time>2026-08-28T17:51:23Z</time>
  <course>0.68</course>
  <speed>0.02</speed>
  <fix>3d</fix>
</trkpt>
<trkpt lat="40.0754149" lon="-105.2301542">
  <ele>1583.0</ele>
  <time>2026-08-28T17:51:23Z</time>
  <course>359.7</course>
  <speed>0.1</speed>
  <fix>3d</fix>
</trkpt>
<trkpt lat="40.0754148" lon="-105.2301541">
  <ele>1583.06</ele>
  <time>2026-08-28T17:51:23Z</time>
  <course>0.69</course>
  <speed>0.05</speed>
  <fix>3d</fix>
</trkpt>
<trkpt lat="40.0754149" lon="-105.2301542">
  <ele>1583.0</ele>
  <time>2026-08-28T17:51:23Z</time>
  <course>359.7</course>
  <speed>0.1</speed>
  <fix>3d</fix>
</trkpt>
<trkpt lat="40.0754149" lon="-105.2301541">
  <ele>1583.06</ele>
  <time>2026-08-28T17:51:23Z</time>
  <course>0.7</course>
  <speed>0.1</speed>
  <fix>3d</fix>
</trkpt>
<trkpt lat="40.0754151" lon="-105.2301542">
  <ele>1583.0</ele>
  <time>2026-08-28T17:51:23Z</time>
  <course>359.72</course>
  <speed>0.12</speed>
  <fix>3d</fix>
</trkpt>
<trkpt lat="40.0754151" lon="-105.2301541">
  <ele>1583.06</ele>
  <time>2026-08-28T17:51:23Z</time>
  <course>0.72</course>
  <speed>0.17</speed>
  <fix>3d</fix>
</trkpt>
<trkpt lat="40.0754151" lon="-105.2301542">
  <ele>1583.0</ele>
  <time>2026-08-28T17:51:23Z</time>
  <course>359.72</course>
  <speed>0.12</speed>
  <fix>3d</fix>
</trkpt>
<trkpt lat="40.0754153" lon="-105.2301541">
  <ele>1583.07</ele>
  <time>2026-08-28T17:51:23Z</time>
  <course>0.75</course>
  <speed>0.27018512172212594</speed>
  <fix>3d</fix>
</trkpt>
<trkpt lat="40.0754154" lon="-105.2301542">
  <ele>1583.0</ele>
  <time>2026-08-28T17:51:23Z</time>
  <course>359.74</course>
  <speed>0.24</speed>
  <fix>3d</fix>
</trkpt>
<trkpt lat="40.0754156" lon="-105.2301541">
  <ele>1583.07</ele>
  <time>2026-08-28T17:51:23Z</time>
  <course>0.78</course>
  <speed>0.38013155617496425</speed>
  <fix>3d</fix>
</trkpt>
<trkpt lat="40.0754154" lon="-105.2301542">
  <ele>1583.0</ele>
  <time>2026-08-28T17:51:23Z</time>
  <course>359.74</course>
  <speed>0.24</speed>
  <fix>3d</fix>
</trkpt>
<trkpt lat="40.0754161" lon="-105.2301541">
  <ele>1583.07</ele>
  <time>2026-08-28T17:51:23Z</time>
  <course>0.82</course>
  <speed>0.510098029794274</speed>
  <fix>3d</fix>
</trkpt>
<trkpt lat="40.0754161" lon="-105.2301542">
  <ele>1583.0</ele>
  <time>2026-08-28T17:51:23Z</time>
  <course>359.8</course>
  <speed>0.44</speed>
  <fix>3d</fix>
</trkpt>
<trkpt lat="40.0754167" lon="-105.2301541">
  <ele>1583.07</ele>
  <time>2026-08-28T17:51:23Z</time>
  <course>0.88</course>
  <speed>0.6503076195155643</speed>
  <fix>3d</fix>
</trkpt>
<trkpt lat="40.0754161" lon="-105.2301542">
  <ele>1583.0</ele>
  <time>2026-08-28T17:51:23Z</time>
  <course>359.8</course>
  <speed>0.44</speed>
  <fix>3d</fix>
</trkpt>
<trkpt lat="40.0754174" lon="-105.2301541">
  <ele>1583.07</ele>
  <time>2026-08-28T17:51:23Z</time>
  <course>0.94</course>
  <speed>0.8002499609497022</speed>
  <fix>3d</fix>
</trkpt>
<trkpt lat="40.0754161" lon="-105.2301542">
  <ele>1583.0</ele>
  <time>2026-08-28T17:51:23Z</time>
  <course>359.8</course>
  <speed>0.44</speed>
  <fix>3d</fix>
</trkpt>
<trkpt lat="40.0754183" lon="-105.2301541">
  <ele>1583.07</ele>
  <time>2026-08-28T17:51:23Z</time>
  <course>1.03</course>
  <speed>0.9604686356149272</speed>
  <fix>3d</fix>
</trkpt>
<trkpt lat="40.075417" lon="-105.2301542">
  <ele>1583.0</ele>
  <time>2026-08-28T17:51:23Z</time>
  <course>359.89</course>
  <speed>0.7</speed>
  <fix>3d</fix>
</trkpt>
<trkpt lat="40.0754192" lon="-105.2301541">
  <ele>1583.07</ele>
  <time>2026-08-28T17:51:23Z</time>
  <course>1.15</course>
  <speed>1.1204017136723774</speed>
  <fix>3d</fix>
</trkpt>
<trkpt lat="40.075417" lon="-105.2301542">
  <ele>1583.0</ele>
  <time>2026-08-28T17:51:23Z</time>
  <course>359.89</course>
  <speed>0.7</speed>
  <fix>3d</fix>
</trkpt>
<trkpt lat="40.0754204" lon="-105.2301541">
  <ele>1583.07</ele>
  <time>2026-08-28T17:51:24Z</time>
  <course>1.28</course>
  <speed>1.2706297651164953</speed>
  <fix>3d</fix>
</trkpt>
<trkpt lat="40.0754185" lon="-105.2301542">
  <ele>1583.0</ele>
  <time>2026-08-28T17:51:24Z</time>
  <course>0.05</course>
  <speed>1.0</speed>
  <fix>3d</fix>
</trkpt>
<trkpt lat="40.0754216" lon="-105.230154">
  <ele>1583.07</ele>
  <time>2026-08-28T17:51:24Z</time>
  <course>1.44</course>
  <speed>1.40089257261219</speed>
  <fix>3d</fix>
</trkpt>
<trkpt lat="40.0754185" lon="-105.2301542">
  <ele>1583.0</ele>
  <time>2026-08-28T17:51:24Z</time>
  <course>0.05</course>
  <speed>1.0</speed>
  <fix>3d</fix>
</trkpt>
<trkpt lat="40.075423" lon="-105.230154">
  <ele>1583.07</ele>
  <time>2026-08-28T17:51:24Z</time>
  <course>1.63</course>
  <speed>1.5211837495845133</speed>
  <fix>3d</fix>
</trkpt>
<trkpt lat="40.0754206" lon="-105.2301542">
  <ele>1583.0</ele>
  <time>2026-08-28T17:51:24Z</time>
  <course>0.3</course>
  <speed>1.3</speed>
  <fix>3d</fix>
</trkpt>
<trkpt lat="40.0754245" lon="-105.2301539">
  <ele>1583.07</ele>
  <time>2026-08-28T17:51:24Z</time>
  <course>1.86</course>
  <speed>1.631502375113196</speed>
  <fix>3d</fix>
</trkpt>
<trkpt lat="40.0754206" lon="-105.2301542">
  <ele>1583.0</ele>
  <time>2026-08-28T17:51:24Z</time>
  <course>0.3</course>
  <speed>1.3</speed>
  <fix>3d</fix>
</trkpt>
<trkpt lat="40.075426" lon="-105.2301539">
  <ele>1583.07</ele>
  <time>2026-08-28T17:51:24Z</time>
  <course>2.14</course>
  <speed>1.7218594600024708</speed>
  <fix>3d</fix>
</trkpt>
<trkpt lat="40.0754233" lon="-105.2301542">
  <ele>1583.0</ele>
  <time>2026-08-28T17:51:24Z</time>
  <course>0.65</course>
  <speed>1.55</speed>
  <fix>3d</fix>
</trkpt>
<trkpt lat="40.0754277" lon="-105.2301538">
  <ele>1583.08</ele>
  <time>2026-08-28T17:51:24Z</time>
  <course>2.5</course>
  <speed>1.8022485955050707</speed>
  <fix>3d</fix>
</trkpt>
<trkpt lat="40.0754262" lon="-105.2301542">
  <ele>1583.0</ele>
  <time>2026-08-28T17:51:24Z</time>
  <course>1.18</course>
  <speed>1.74</speed>
  <fix>3d</fix>
</trkpt>
<trkpt lat="40.0754294" lon="-105.2301537">
  <ele>1583.08</ele>
  <time>2026-08-28T17:51:24Z</time>
  <course>2.93</course>
  <speed>1.863249849054066</speed>
  <fix>3d</fix>
</trkpt>
<trkpt lat="40.0754262" lon="-105.2301542">
  <ele>1583.0</ele>
  <time>2026-08-28T17:51:24Z</time>
  <course>1.18</course>
  <speed>1.74</speed>
  <fix>3d</fix>
</trkpt>
<trkpt lat="40.0754311" lon="-105.2301536">
  <ele>1583.08</ele>
  <time>2026-08-28T17:51:24Z</time>
  <course>3.44</course>
  <speed>1.9144189719076647</speed>
  <fix>3d</fix>
</trkpt>
<trkpt lat="40.0754295" lon="-105.2301541">
  <ele>1583.0</ele>
  <time>2026-08-28T17:51:24Z</time>
  <course>1.98</course>
  <speed>1.87</speed>
  <fix>3d</fix>
</trkpt>
<trkpt lat="40.0754329" lon="-105.2301535">
  <ele>1583.08</ele>
  <time>2026-08-28T17:51:24Z</time>
  <course>4.05</course>
  <speed>1.9457903278616635</speed>
  <fix>3d</fix>
</trkpt>
<trkpt lat="40.0754295" lon="-105.2301541">
  <ele>1583.0</ele>
  <time>2026-08-28T17:51:24Z</time>
  <course>1.98</course>
  <speed>1.87</speed>
  <fix>3d</fix>
</trkpt>
<trkpt lat="40.0754347" lon="-105.2301533">
  <ele>1583.08</ele>
  <time>2026-08-28T17:51:24Z</time>
  <course>4.8</course>
  <speed>1.9782062582046394</speed>
  <fix>3d</fix>
</trkpt>
<trkpt lat="40.0754329" lon="-105.2301539">
  <ele>1583.0</ele>
  <time>2026-08-28T17:51:24Z</time>
  <course>3.14</course>
  <speed>1.95</speed>
  <fix>3d</fix>
</trkpt>
<trkpt lat="40.0754366" lon="-105.2301531">
  <ele>1583.08</ele>
  <time>2026-08-28T17:51:24Z</time>
  <course>5.68</course>
  <speed>1.991105220725414</speed>
  <fix>3d</fix>
</trkpt>
<trkpt lat="40.0754329" lon="-105.2301539">
  <ele>1583.0</ele>
  <time>2026-08-28T17:51:24Z</time>
  <course>3.14</course>
  <speed>1.95</speed>
  <fix>3d</fix>
</trkpt>
<trkpt lat="40.0754384" lon="-105.2301529">
  <ele>1583.08</ele>
  <time>2026-08-28T17:51:24Z</time>
  <course>6.75</course>
  <speed>1.995720421301541</speed>
  <fix>3d</fix>
</trkpt>
<trkpt lat="40.0754364" lon="-105.2301536">
  <ele>1583.0</ele>
  <time>2026-08-28T17:51:24Z</time>
  <course>4.79</course>
  <speed>1.99</speed>
  <fix>3d</fix>
</trkpt>
<trkpt lat="40.0754403" lon="-105.2301526">
  <ele>1583.08</ele>
  <time>2026-08-28T17:51:24Z</time>
  <course>8.01</course>
  <speed>1.9912307751739877</speed>
  <fix>3d</fix>
</trkpt>
<trkpt lat="40.0754364" lon="-105.2301536">
  <ele>1583.0</ele>
  <time>2026-08-28T17:51:24Z</time>
  <course>4.79</course>
  <speed>1.99</speed>
  <fix>3d</fix>
</trkpt>
<trkpt lat="40.0754421" lon="-105.2301523">
  <ele>1583.08</ele>
  <time>2026-08-28T17:51:24Z</time>
  <course>9.52</course>
  <speed>1.9892712233378333</speed>
  <fix>3d</fix>
</trkpt>
<trkpt lat="40.07544" lon="-105.2301531">
  <ele>1583.0</ele>
  <time>2026-08-28T17:51:24Z</time>
  <course>7.15</course>
  <speed>1.99</speed>
  <fix>3d</fix>
</trkpt>
<trkpt lat="40.0754439" lon="-105.2301519">
  <ele>1583.09</ele>
  <time>2026-08-28T17:51:24Z</time>
  <course>11.31</course>
  <speed>1.97101496696499</speed>
  <fix>3d</fix>
</trkpt>
<trkpt lat="40.07544" lon="-105.2301531">
  <ele>1583.0</ele>
  <time>2026-08-28T17:51:24Z</time>
  <course>7.15</course>
  <speed>1.99</speed>
  <fix>3d</fix>
</trkpt>
<trkpt lat="40.0754456" lon="-105.2301514">
  <ele>1583.09</ele>
  <time>2026-08-28T17:51:24Z</time>
  <course>13.43</course>
  <speed>1.9548913013259843</speed>
  <fix>3d</fix>
</trkpt>
<trkpt lat="40.0754436" lon="-105.2301524">
  <ele>1583.0</ele>
  <time>2026-08-28T17:51:24Z</time>
  <course>10.49</course>
  <speed>1.97</speed>
  <fix>3d</fix>
</trkpt>
<trkpt lat="40.0754473" lon="-105.2301509">
  <ele>1583.09</ele>
  <time>2026-08-28T17:51:24Z</time>
  <course>15.95</course>
  <speed>1.927200041511</speed>
  <fix>3d</fix>
</trkpt>
<trkpt lat="40.0754436" lon="-105.2301524">
  <ele>1583.0</ele>
  <time>2026-08-28T17:51:24Z</time>
  <course>10.49</course>
  <speed>1.97</speed>
  <fix>3d</fix>
</trkpt>
<trkpt lat="40.075449" lon="-105.2301502">
  <ele>1583.09</ele>
  <time>2026-08-28T17:51:24Z</time>
  <course>18.92</course>
  <speed>1.903785702225962</speed>
  <fix>3d</fix>
</trkpt>
<trkpt lat="40.0754436" lon="-105.2301524">
  <ele>1583.0</ele>
  <time>2026-08-28T17:51:24Z</time>
  <course>10.49</course>
  <speed>1.97</speed>
  <fix>3d</fix>
</trkpt>
<trkpt lat="40.0754506" lon="-105.2301495">
  <ele>1583.09</ele>
  <time>2026-08-28T17:51:24Z</time>
  <course>22.43</course>
  <speed>1.873846311734236</speed>
  <fix>3d</fix>
</trkpt>
<trkpt lat="40.0754469" lon="-105.2301513">
  <ele>1583.0</ele>
  <time>2026-08-28T17:51:24Z</time>
  <course>15.19</course>
  <speed>1.92</speed>
  <fix>3d</fix>
</trkpt>
<trkpt lat="40.0754521" lon="-105.2301486">
  <ele>1583.1</ele>
  <time>2026-08-28T17:51:24Z</time>
  <course>26.54</course>
  <speed>1.8380696395947569</speed>
  <fix>3d</fix>
</trkpt>
<trkpt lat="40.0754469" lon="-105.2301513">
  <ele>1583.0</ele>
  <time>2026-08-28T17:51:24Z</time>
  <course>15.19</course>
  <speed>1.92</speed>
  <fix>3d</fix>
</trkpt>
<trkpt lat="40.0754536" lon="-105.2301476">
  <ele>1583.1</ele>
  <time>2026-08-28T17:51:24Z</time>
  <course>31.32</course>
  <speed>1.809447429465692</speed>
  <fix>3d</fix>
</trkpt>
<trkpt lat="40.0754502" lon="-105.23015">
  <ele>1583.0</ele>
  <time>2026-08-28T17:51:24Z</time>
  <course>21.75</course>
  <speed>1.86</speed>
  <fix>3d</fix>
</trkpt>
<trkpt lat="40.0754549" lon="-105.2301464">
  <ele>1583.1</ele>
  <time>2026-08-28T17:51:24Z</time>
  <course>36.85</course>
  <speed>1.778004499431877</speed>
  <fix>3d</fix>
</trkpt>
<trkpt lat="40.0754502" lon="-105.23015">
  <ele>1583.0</ele>
  <time>2026-08-28T17:51:24Z</time>
  <course>21.75</course>
  <speed>1.86</speed>
  <fix>3d</fix>
</trkpt>
<trkpt lat="40.0754561" lon="-105.2301451">
  <ele>1583.1</ele>
  <time>2026-08-28T17:51:24Z</time>
  <course>43.19</course>
  <speed>1.7472549899771355</speed>
  <fix>3d</fix>
</trkpt>
<trkpt lat="40.0754532" lon="-105.2301481">
  <ele>1583.0</ele>
  <time>2026-08-28T17:51:24Z</time>
  <course>30.72</course>
  <speed>1.8</speed>
  <fix>3d</fix>
</trkpt>
<trkpt lat="40.0754571" lon="-105.2301437">
  <ele>1583.1</ele>
  <time>2026-08-28T17:51:24Z</time>
  <course>50.34</course>
  <speed>1.7195929750961418</speed>
  <fix>3d</fix>
</trkpt>
<trkpt lat="40.0754532" lon="-105.2301481">
  <ele>1583.0</ele>
  <time>2026-08-28T17:51:24Z</time>
  <course>30.72</course>
  <speed>1.8</speed>
  <fix>3d</fix>
</trkpt>
<trkpt lat="40.075458" lon="-105.230142">
  <ele>1583.11</ele>
  <time>2026-08-28T17:51:24Z</time>
  <course>58.37</course>
  <speed>1.6961426826773742</speed>
  <fix>3d</fix>
</trkpt>
<trkpt lat="40.0754557" lon="-105.2301456">
  <ele>1583.0</ele>
  <time>2026-08-28T17:51:24Z</time>
  <course>42.62</course>
  <speed>1.74</speed>
  <fix>3d</fix>
</trkpt>
<trkpt lat="40.0754587" lon="-105.2301403">
  <ele>1583.11</ele>
  <time>2026-08-28T17:51:24Z</time>
  <course>67.07</course>
  <speed>1.6676930173146374</speed>
  <fix>3d</fix>
</trkpt>
<trkpt lat="40.0754577" lon="-105.2301425">
  <ele>1583.0</ele>
  <time>2026-08-28T17:51:24Z</time>
  <course>57.7</course>
  <speed>1.69</speed>
  <fix>3d</fix>
</trkpt>
<trkpt lat="40.0754591" lon="-105.2301384">
  <ele>1583.11</ele>
  <time>2026-08-28T17:51:24Z</time>
  <course>76.35</course>
  <speed>1.6519685227025362</speed>
  <fix>3d</fix>
</trkpt>
<trkpt lat="40.0754577" lon="-105.2301425">
  <ele>1583.0</ele>
  <time>2026-08-28T17:51:24Z</time>
  <course>57.7</course>
  <speed>1.69</speed>
  <fix>3d</fix>
</trkpt>
<trkpt lat="40.0754593" lon="-105.2301365">
  <ele>1583.1</ele>
  <time>2026-08-28T17:51:24Z</time>
  <course>85.96</course>
  <speed>1.6324827717314507</speed>
  <fix>3d</fix>
</trkpt>
<trkpt lat="40.0754589" lon="-105.230139">
  <ele>1583.0</ele>
  <time>2026-08-28T17:51:24Z</time>
  <course>75.53</course>
  <speed>1.64</speed>
  <fix>3d</fix>
</trkpt>
<trkpt lat="40.0754593" lon="-105.2301346">
  <ele>1583.1</ele>
  <time>2026-08-28T17:51:24Z</time>
  <course>95.82</course>
  <speed>1.6200308639035246</speed>
  <fix>3d</fix>
</trkpt>
<trkpt lat="40.0754589" lon="-105.230139">
  <ele>1583.0</ele>
  <time>2026-08-28T17:51:24Z</time>
  <course>75.53</course>
  <speed>1.64</speed>
  <fix>3d</fix>
</trkpt>
<trkpt lat="40.0754589" lon="-105.2301328">
  <ele>1583.1</ele>
  <time>2026-08-28T17:51:24Z</time>
  <course>105.61</course>
  <speed>1.604400199451496</speed>
  <fix>3d</fix>
</trkpt>
<trkpt lat="40.0754592" lon="-105.2301351">
  <ele>1583.0</ele>
  <time>2026-08-28T17:51:24Z</time>
  <course>94.86</course>
  <speed>1.6</speed>
  <fix>3d</fix>
</trkpt>
<trkpt lat="40.0754584" lon="-105.230131">
  <ele>1583.1</ele>
  <time>2026-08-28T17:51:24Z</time>
  <course>115.1</course>
  <speed>1.5921369287847074</speed>
  <fix>3d</fix>
</trkpt>
<trkpt lat="40.0754592" lon="-105.2301351">
  <ele>1583.0</ele>
  <time>2026-08-28T17:51:24Z</time>
  <course>94.86</course>
  <speed>1.6</speed>
  <fix>3d</fix>
</trkpt>
<trkpt lat="40.0754577" lon="-105.2301294">
  <ele>1583.09</ele>
  <time>2026-08-28T17:51:24Z</time>
  <course>124.07</course>
  <speed>1.5868522300453813</speed>
  <fix>3d</fix>
</trkpt>
<trkpt lat="40.0754585" lon="-105.2301315">
  <ele>1583.0</ele>
  <time>2026-08-28T17:51:24Z</time>
  <course>113.93</course>
  <speed>1.58</speed>
  <fix>3d</fix>
</trkpt>
<trkpt lat="40.0754568" lon="-105.2301279">
  <ele>1583.09</ele>
  <time>2026-08-28T17:51:24Z</time>
  <course>132.37</course>
  <speed>1.5844872987815333</speed>
  <fix>3d</fix>
</trkpt>
<trkpt lat="40.0754585" lon="-105.2301315">
  <ele>1583.0</ele>
  <time>2026-08-28T17:51:24Z</time>
  <course>113.93</course>
  <speed>1.58</speed>
  <fix>3d</fix>
</trkpt>
<trkpt lat="40.0754557" lon="-105.2301267">
  <ele>1583.09</ele>
  <time>2026-08-28T17:51:24Z</time>
  <course>139.57</course>
  <speed>1.5915401345866211</speed>
  <fix>3d</fix>
</trkpt>
<trkpt lat="40.075457" lon="-105.2301284">
  <ele>1583.0</ele>
  <time>2026-08-28T17:51:24Z</time>
  <course>130.93</course>
  <speed>1.58</speed>
  <fix>3d</fix>
</trkpt>
<trkpt lat="40.0754545" lon="-105.2301255">
  <ele>1583.09</ele>
  <time>2026-08-28T17:51:24Z</time>
  <course>145.74</course>
  <speed>1.6253307355735325</speed>
  <fix>3d</fix>
</trkpt>
<trkpt lat="40.075457" lon="-105.2301284">
  <ele>1583.0</ele>
  <time>2026-08-28T17:51:24Z</time>
  <course>130.93</course>
  <speed>1.58</speed>
  <fix>3d</fix>
</trkpt>
<trkpt lat="40.0754532" lon="-105.2301246">
  <ele>1583.09</ele>
  <time>2026-08-28T17:51:24Z</time>
  <course>150.89</course>
  <speed>1.6688319268278635</speed>
  <fix>3d</fix>
</trkpt>
<trkpt lat="40.0754548" lon="-105.2301259">
  <ele>1583.0</ele>
  <time>2026-08-28T17:51:24Z</time>
  <course>144.4</course>
  <speed>1.63</speed>
  <fix>3d</fix>
</trkpt>
<trkpt lat="40.0754518" lon="-105.2301237">
  <ele>1583.09</ele>
  <time>2026-08-28T17:51:24Z</time>
  <course>155.26</course>
  <speed>1.7372679701185998</speed>
  <fix>3d</fix>
</trkpt>
<trkpt lat="40.0754548" lon="-105.2301259">
  <ele>1583.0</ele>
  <time>2026-08-28T17:51:24Z</time>
  <course>144.4</course>
  <speed>1.63</speed>
  <fix>3d</fix>
</trkpt>
<trkpt lat="40.0754503" lon="-105.2301229">
  <ele>1583.09</ele>
  <time>2026-08-28T17:51:24Z</time>
  <course>159.01</course>
  <speed>1.8095303258028033</speed>
  <fix>3d</fix>
</trkpt>
<trkpt lat="40.0754522" lon="-105.2301239">
  <ele>1583.0</ele>
  <time>2026-08-28T17:51:24Z</time>
  <course>154.13</course>
  <speed>1.73</speed>
  <fix>3d</fix>
</trkpt>
<trkpt lat="40.0754487" lon="-105.2301222">
  <ele>1583.09</ele>
  <time>2026-08-28T17:51:24Z</time>
  <course>162.22</course>
  <speed>1.891718795170149</speed>
  <fix>3d</fix>
</trkpt>
<trkpt lat="40.0754522" lon="-105.2301239">
  <ele>1583.0</ele>
  <time>2026-08-28T17:51:24Z</time>
  <course>154.13</course>
  <speed>1.73</speed>
  <fix>3d</fix>
</trkpt>
<trkpt lat="40.075447" lon="-105.2301216">
  <ele>1583.09</ele>
  <time>2026-08-28T17:51:24Z</time>
  <course>164.99</course>
  <speed>1.9912307751739877</speed>
  <fix>3d</fix>
</trkpt>
<trkpt lat="40.0754522" lon="-105.2301239">
  <ele>1583.0</ele>
  <time>2026-08-28T17:51:24Z</time>
  <course>154.13</course>
  <speed>1.73</speed>
  <fix>3d</fix>
</trkpt>
<trkpt lat="40.0754453" lon="-105.230121">
  <ele>1583.09</ele>
  <time>2026-08-28T17:51:24Z</time>
  <course>167.39</course>
  <speed>2.094612135933524</speed>
  <fix>3d</fix>
</trkpt>
<trkpt lat="40.0754493" lon="-105.2301224">
  <ele>1583.0</ele>
  <time>2026-08-28T17:51:24Z</time>
  <course>161.18</course>
  <speed>1.89</speed>
  <fix>3d</fix>
</trkpt>
<trkpt lat="40.0754434" lon="-105.2301205">
  <ele>1583.09</ele>
  <time>2026-08-28T17:51:24Z</time>
  <course>169.47</course>
  <speed>2.2030206535572923</speed>
  <fix>3d</fix>
</trkpt>
<trkpt lat="40.0754493" lon="-105.2301224">
  <ele>1583.0</ele>
  <time>2026-08-28T17:51:24Z</time>
  <course>161.18</course>
  <speed>1.89</speed>
  <fix>3d</fix>
</trkpt>
<trkpt lat="40.0754414" lon="-105.2301201">
  <ele>1583.09</ele>
  <time>2026-08-28T17:51:24Z</time>
  <course>171.29</course>
  <speed>2.3235533133543544</speed>
  <fix>3d</fix>
</trkpt>
<trkpt lat="40.0754458" lon="-105.230121">
  <ele>1583.0</ele>
  <time>2026-08-28T17:51:24Z</time>
  <course>166.4</course>
  <speed>2.09</speed>
  <fix>3d</fix>
</trkpt>
<trkpt lat="40.0754393" lon="-105.2301197">
  <ele>1583.09</ele>
  <time>2026-08-28T17:51:24Z</time>
  <course>172.9</course>
  <speed>2.446078494243388</speed>
  <fix>3d</fix>
</trkpt>
<trkpt lat="40.0754458" lon="-105.230121">
  <ele>1583.0</ele>
  <time>2026-08-28T17:51:24Z</time>
  <course>166.4</course>
  <speed>2.09</speed>
  <fix>3d</fix>
</trkpt>
<trkpt lat="40.075437" lon="-105.2301194">
  <ele>1583.09</ele>
  <time>2026-08-28T17:51:24Z</time>
  <course>174.31</course>
  <speed>2.5712253887981116</speed>
  <fix>3d</fix>
</trkpt>
<trkpt lat="40.0754419" lon="-105.23012">
  <ele>1583.0</ele>
  <time>2026-08-28T17:51:24Z</time>
  <course>170.33</course>
  <speed>2.32</speed>
  <fix>3d</fix>
</trkpt>
<trkpt lat="40.0754346" lon="-105.2301191">
  <ele>1583.09</ele>
  <time>2026-08-28T17:51:24Z</time>
  <course>175.58</course>
  <speed>2.7073972741361767</speed>
  <fix>3d</fix>
</trkpt>
<trkpt lat="40.0754376" lon="-105.2301192">
  <ele>1583.0</ele>
  <time>2026-08-28T17:51:24Z</time>
  <course>173.36</course>
  <speed>2.57</speed>
  <fix>3d</fix>
</trkpt>
<trkpt lat="40.0754321" lon="-105.2301188">
  <ele>1583.08</ele>
  <time>2026-08-28T17:51:24Z</time>
  <course>176.72</course>
  <speed>2.82398654387729</speed>
  <fix>3d</fix>
</trkpt>
<trkpt lat="40.0754376" lon="-105.2301192">
  <ele>1583.0</ele>
  <time>2026-08-28T17:51:24Z</time>
  <course>173.36</course>
  <speed>2.57</speed>
  <fix>3d</fix>
</trkpt>
<trkpt lat="40.0754295" lon="-105.2301186">
  <ele>1583.08</ele>
  <time>2026-08-28T17:51:24Z</time>
  <course>177.76</course>
  <speed>2.942057103456696</speed>
  <fix>3d</fix>
</trkpt>
<trkpt lat="40.0754327" lon="-105.2301186">
  <ele>1583.0</ele>
  <time>2026-08-28T17:51:24Z</time>
  <course>175.78</course>
  <speed>2.82</speed>
  <fix>3d</fix>
</trkpt>
<trkpt lat="40.0754268" lon="-105.2301185">
  <ele>1583.08</ele>
  <time>2026-08-28T17:51:24Z</time>
  <course>178.71</course>
  <speed>3.0305940011819468</speed>
  <fix>3d</fix>
</trkpt>
<trkpt lat="40.0754327" lon="-105.2301186">
  <ele>1583.0</ele>
  <time>2026-08-28T17:51:24Z</time>
  <course>175.78</course>
  <speed>2.82</speed>
  <fix>3d</fix>
</trkpt>
<trkpt lat="40.075424" lon="-105.2301184">
  <ele>1583.08</ele>
  <time>2026-08-28T17:51:24Z</time>
  <course>179.57</course>
  <speed>3.1200641019056</speed>
  <fix>3d</fix>
</trkpt>
<trkpt lat="40.0754275" lon="-105.2301182">
  <ele>1583.0</ele>
  <time>2026-08-28T17:51:24Z</time>
  <course>177.77</course>
  <speed>3.02</speed>
  <fix>3d</fix>
</trkpt>
<trkpt lat="40.0754212" lon="-105.2301184">
  <ele>1583.08</ele>
  <time>2026-08-28T17:51:24Z</time>
  <course>180.38</course>
  <speed>3.1900156739426846</speed>
  <fix>3d</fix>
</trkpt>
<trkpt lat="40.0754275" lon="-105.2301182">
  <ele>1583.0</ele>
  <time>2026-08-28T17:51:24Z</time>
  <course>177.77</course>
  <speed>3.02</speed>
  <fix>3d</fix>
</trkpt>
<trkpt lat="40.0754182" lon="-105.2301184">
  <ele>1583.08</ele>
  <time>2026-08-28T17:51:24Z</time>
  <course>181.1</course>
  <speed>3.240385779502188</speed>
  <fix>3d</fix>
</trkpt>
<trkpt lat="40.0754219" lon="-105.2301181">
  <ele>1583.0</ele>
  <time>2026-08-28T17:51:24Z</time>
  <course>179.43</course>
  <speed>3.17</speed>
  <fix>3d</fix>
</trkpt>
<trkpt lat="40.0754152" lon="-105.2301183">
  <ele>1583.08</ele>
  <time>2026-08-28T17:51:24Z</time>
  <course>181.76</course>
  <speed>3.2909725006447563</speed>
  <fix>3d</fix>
</trkpt>
<trkpt lat="40.0754219" lon="-105.2301181">
  <ele>1583.0</ele>
  <time>2026-08-28T17:51:24Z</time>
  <course>179.43</course>
  <speed>3.17</speed>
  <fix>3d</fix>
</trkpt>
<trkpt lat="40.0754123" lon="-105.2301184">
  <ele>1583.07</ele>
  <time>2026-08-28T17:51:24Z</time>
  <course>182.37</course>
  <speed>3.3218217893198307</speed>
  <fix>3d</fix>
</trkpt>
<trkpt lat="40.0754161" lon="-105.2301181">
  <ele>1583.0</ele>
  <time>2026-08-28T17:51:24Z</time>
  <course>180.82</course>
  <speed>3.27</speed>
  <fix>3d</fix>
</trkpt>
<trkpt lat="40.0754092" lon="-105.2301185">
  <ele>1583.07</ele>
  <time>2026-08-28T17:51:24Z</time>
  <course>182.92</course>
  <speed>3.3429328440756927</speed>
  <fix>3d</fix>
</trkpt>
<trkpt lat="40.0754161" lon="-105.2301181">
  <ele>1583.0</ele>
  <time>2026-08-28T17:51:24Z</time>
  <course>180.82</course>
  <speed>3.27</speed>
  <fix>3d</fix>
</trkpt>
<trkpt lat="40.0754062" lon="-105.2301187">
  <ele>1583.07</ele>
  <time>2026-08-28T17:51:24Z</time>
  <course>183.43</course>
  <speed>3.35431065943511</speed>
  <fix>3d</fix>
</trkpt>
<trkpt lat="40.0754102" lon="-105.2301181">
  <ele>1583.0</ele>
  <time>2026-08-28T17:51:24Z</time>
  <course>181.98</course>
  <speed>3.32</speed>
  <fix>3d</fix>
</trkpt>
<trkpt lat="40.0754032" lon="-105.2301189">
  <ele>1583.07</ele>
  <time>2026-08-28T17:51:24Z</time>
  <course>183.88</course>
  <speed>3.35538373364359</speed>
  <fix>3d</fix>
</trkpt>
<trkpt lat="40.0754102" lon="-105.2301181">
  <ele>1583.0</ele>
  <time>2026-08-28T17:51:24Z</time>
  <course>181.98</course>
  <speed>3.32</speed>
  <fix>3d</fix>
</trkpt>
<trkpt lat="40.0754002" lon="-105.2301191">
  <ele>1583.08</ele>
  <time>2026-08-28T17:51:24Z</time>
  <course>184.3</course>
  <speed>3.3472376670920756</speed>
  <fix>3d</fix>
</trkpt>
<trkpt lat="40.0754042" lon="-105.2301185">
  <ele>1583.0</ele>
  <time>2026-08-28T17:51:24Z</time>
  <course>182.95</course>
  <speed>3.34</speed>
  <fix>3d</fix>
</trkpt>
<trkpt lat="40.0753971" lon="-105.2301193">
  <ele>1583.08</ele>
  <time>2026-08-28T17:51:24Z</time>
  <course>184.68</course>
  <speed>3.337933492447086</speed>
  <fix>3d</fix>
</trkpt>
<trkpt lat="40.0754042" lon="-105.2301185">
  <ele>1583.0</ele>
  <time>2026-08-28T17:51:24Z</time>
  <course>182.95</course>
  <speed>3.34</speed>
  <fix>3d</fix>
</trkpt>
<trkpt lat="40.0753941" lon="-105.2301196">
  <ele>1583.08</ele>
  <time>2026-08-28T17:51:24Z</time>
  <course>185.03</course>
  <speed>3.3194276615103395</speed>
  <fix>3d</fix>
</trkpt>
<trkpt lat="40.0754042" lon="-105.2301185">
  <ele>1583.0</ele>
  <time>2026-08-28T17:51:24Z</time>
  <course>182.95</course>
  <speed>3.34</speed>
  <fix>3d</fix>
</trkpt>
<trkpt lat="40.0753912" lon="-105.2301198">
  <ele>1583.07</ele>
  <time>2026-08-28T17:51:24Z</time>
  <course>185.34</course>
  <speed>3.3002575657060462</speed>
  <fix>3d</fix>
</trkpt>
<trkpt lat="40.0753981" lon="-105.230119">
  <ele>1583.0</ele>
  <time>2026-08-28T17:51:24Z</time>
  <course>183.75</course>
  <speed>3.33</speed>
  <fix>3d</fix>
</trkpt>
<trkpt lat="40.0753883" lon="-105.2301201">
  <ele>1583.07</ele>
  <time>2026-08-28T17:51:24Z</time>
  <course>185.63</course>
  <speed>3.271161873096469</speed>
  <fix>3d</fix>
</trkpt>
<trkpt lat="40.0753981" lon="-105.230119">
  <ele>1583.0</ele>
  <time>2026-08-28T17:51:24Z</time>
  <course>183.75</course>
  <speed>3.33</speed>
  <fix>3d</fix>
</trkpt>
<trkpt lat="40.0753854" lon="-105.2301204">
  <ele>1583.07</ele>
  <time>2026-08-28T17:51:24Z</time>
  <course>185.9</course>
  <speed>3.2520762598684554</speed>
  <fix>3d</fix>
</trkpt>
<trkpt lat="40.0753922" lon="-105.2301196">
  <ele>1583.0</ele>
  <time>2026-08-28T17:51:24Z</time>
  <course>184.42</course>
  <speed>3.29</speed>
  <fix>3d</fix>
</trkpt>
<trkpt lat="40.0753825" lon="-105.2301208">
  <ele>1583.07</ele>
  <time>2026-08-28T17:51:24Z</time>
  <course>186.12</course>
  <speed>3.223073067741406</speed>
  <fix>3d</fix>
</trkpt>
<trkpt lat="40.0753922" lon="-105.2301196">
  <ele>1583.0</ele>
  <time>2026-08-28T17:51:24Z</time>
  <course>184.42</course>
  <speed>3.29</speed>
  <fix>3d</fix>
</trkpt>
<trkpt lat="40.0753797" lon="-105.2301211">
  <ele>1583.07</ele>
  <time>2026-08-28T17:51:24Z</time>
  <course>186.34</course>
  <speed>3.1941195970094793</speed>
  <fix>3d</fix>
</trkpt>
<trkpt lat="40.0753864" lon="-105.2301201">
  <ele>1583.0</ele>
  <time>2026-08-28T17:51:24Z</time>
  <course>184.96</course>
  <speed>3.25</speed>
  <fix>3d</fix>
</trkpt>
<trkpt lat="40.0753769" lon="-105.2301214">
  <ele>1583.07</ele>
  <time>2026-08-28T17:51:24Z</time>
  <course>186.52</course>
  <speed>3.164253466459348</speed>
  <fix>3d</fix>
</trkpt>
<trkpt lat="40.0753864" lon="-105.2301201">
  <ele>1583.0</ele>
  <time>2026-08-28T17:51:24Z</time>
  <course>184.96</course>
  <speed>3.25</speed>
  <fix>3d</fix>
</trkpt>
<trkpt lat="40.075374" lon="-105.2301218">
  <ele>1583.07</ele>
  <time>2026-08-28T17:51:24Z</time>
  <course>186.69</course>
  <speed>3.1353628179207584</speed>
  <fix>3d</fix>
</trkpt>
<trkpt lat="40.0753806" lon="-105.2301208">
  <ele>1583.0</ele>
  <time>2026-08-28T17:51:24Z</time>
  <course>185.4</course>
  <speed>3.2</speed>
  <fix>3d</fix>
</trkpt>
<trkpt lat="40.0753713" lon="-105.2301221">
  <ele>1583.07</ele>
  <time>2026-08-28T17:51:24Z</time>
  <course>186.83</course>
  <speed>3.1055112300553676</speed>
  <fix>3d</fix>
</trkpt>
<trkpt lat="40.0753749" lon="-105.2301215">
  <ele>1583.0</ele>
  <time>2026-08-28T17:51:24Z</time>
  <course>185.75</course>
  <speed>3.15</speed>
  <fix>3d</fix>
</trkpt>
<trkpt lat="40.0753685" lon="-105.2301225">
  <ele>1583.07</ele>
  <time>2026-08-28T17:51:24Z</time>
  <course>186.96</course>
  <speed>3.085611770783875</speed>
  <fix>3d</fix>
</trkpt>
<trkpt lat="40.0753749" lon="-105.2301215">
  <ele>1583.0</ele>
  <time>2026-08-28T17:51:24Z</time>
  <course>185.75</course>
  <speed>3.15</speed>
  <fix>3d</fix>
</trkpt>
<trkpt lat="40.0753658" lon="-105.2301228">
  <ele>1583.07</ele>
  <time>2026-08-28T17:51:24Z</time>
  <course>187.07</course>
  <speed>3.065713620023893</speed>
  <fix>3d</fix>
</trkpt>
<trkpt lat="40.0753693" lon="-105.2301224">
  <ele>1583.0</ele>
  <time>2026-08-28T17:51:24Z</time>
  <course>186.02</course>
  <speed>3.1</speed>
  <fix>3d</fix>
</trkpt>
<trkpt lat="40.0753631" lon="-105.2301232">
  <ele>1583.07</ele>
  <time>2026-08-28T17:51:24Z</time>
  <course>187.16</course>
  <speed>3.0358689036254516</speed>
  <fix>3d</fix>
</trkpt>
<trkpt lat="40.0753693" lon="-105.2301224">
  <ele>1583.0</ele>
  <time>2026-08-28T17:51:24Z</time>
  <course>186.02</course>
  <speed>3.1</speed>
  <fix>3d</fix>
</trkpt>
<trkpt lat="40.0753603" lon="-105.2301236">
  <ele>1583.07</ele>
  <time>2026-08-28T17:51:24Z</time>
  <course>187.24</course>
  <speed>3.0259213472924245</speed>
  <fix>3d</fix>
</trkpt>
<trkpt lat="40.0753638" lon="-105.2301231">
  <ele>1583.0</ele>
  <time>2026-08-28T17:51:24Z</time>
  <course>186.23</course>
  <speed>3.07</speed>
  <fix>3d</fix>
</trkpt>
<trkpt lat="40.0753576" lon="-105.2301239">
  <ele>1583.07</ele>
  <time>2026-08-28T17:51:24Z</time>
  <course>187.32</course>
  <speed>3.007074990750979</speed>
  <fix>3d</fix>
</trkpt>
<trkpt lat="40.0753638" lon="-105.2301231">
  <ele>1583.0</ele>
  <time>2026-08-28T17:51:24Z</time>
  <course>186.23</course>
  <speed>3.07</speed>
  <fix>3d</fix>
</trkpt>
<trkpt lat="40.0753549" lon="-105.2301243">
  <ele>1583.07</ele>
  <time>2026-08-28T17:51:24Z</time>
  <course>187.36</course>
  <speed>2.997131962393381</speed>
  <fix>3d</fix>
</trkpt>
<trkpt lat="40.0753584" lon="-105.2301239">
  <ele>1583.0</ele>
  <time>2026-08-28T17:51:24Z</time>
  <course>186.37</course>
  <speed>3.03</speed>
  <fix>3d</fix>
</trkpt>
<trkpt lat="40.0753522" lon="-105.2301247">
  <ele>1583.07</ele>
  <time>2026-08-28T17:51:24Z</time>
  <course>187.4</course>
  <speed>2.9772470505485433</speed>
  <fix>3d</fix>
</trkpt>
<trkpt lat="40.0753584" lon="-105.2301239">
  <ele>1583.0</ele>
  <time>2026-08-28T17:51:24Z</time>
  <course>186.37</course>
  <speed>3.03</speed>
  <fix>3d</fix>
</trkpt>
<trkpt lat="40.0753495" lon="-105.2301251">
  <ele>1583.07</ele>
  <time>2026-08-28T17:51:24Z</time>
  <course>187.44</course>
  <speed>2.9673051747334656</speed>
  <fix>3d</fix>
</trkpt>
<trkpt lat="40.0753529" lon="-105.2301247">
  <ele>1583.0</ele>
  <time>2026-08-28T17:51:24Z</time>
  <course>186.47</course>
  <speed>3.01</speed>
  <fix>3d</fix>
</trkpt>
<trkpt lat="40.0753468" lon="-105.2301255">
  <ele>1583.07</ele>
  <time>2026-08-28T17:51:24Z</time>
  <course>187.45</course>
  <speed>2.9673051747334656</speed>
  <fix>3d</fix>
</trkpt>
<trkpt lat="40.0753529" lon="-105.2301247">
  <ele>1583.0</ele>
  <time>2026-08-28T17:51:24Z</time>
  <course>186.47</course>
  <speed>3.01</speed>
  <fix>3d</fix>
</trkpt>
<trkpt lat="40.0753442" lon="-105.2301259">
  <ele>1583.08</ele>
  <time>2026-08-28T17:51:24Z</time>
  <course>187.45</course>
  <speed>2.9562983611266302</speed>
  <fix>3d</fix>
</trkpt>
<trkpt lat="40.0753476" lon="-105.2301254">
  <ele>1583.0</ele>
  <time>2026-08-28T17:51:24Z</time>
  <course>186.51</course>
  <speed>2.99</speed>
  <fix>3d</fix>
</trkpt>
<trkpt lat="40.0753415" lon="-105.2301263">
  <ele>1583.08</ele>
  <time>2026-08-28T17:51:24Z</time>
  <course>187.45</course>
  <speed>2.9463536787018625</speed>
  <fix>3d</fix>
</trkpt>
<trkpt lat="40.0753476" lon="-105.2301254">
  <ele>1583.0</ele>
  <time>2026-08-28T17:51:24Z</time>
  <course>186.51</course>
  <speed>2.99</speed>
  <fix>3d</fix>
</trkpt>
<trkpt lat="40.0753388" lon="-105.2301266">
  <ele>1583.08</ele>
  <time>2026-08-28T17:51:24Z</time>
  <course>187.45</course>
  <speed>2.9463536787018625</speed>
  <fix>3d</fix>
</trkpt>
<trkpt lat="40.0753422" lon="-105.2301263">
  <ele>1583.0</ele>
  <time>2026-08-28T17:51:24Z</time>
  <course>186.52</course>
  <speed>2.98</speed>
  <fix>3d</fix>
</trkpt>
<trkpt lat="40.0753362" lon="-105.230127">
  <ele>1583.09</ele>
  <time>2026-08-28T17:51:24Z</time>
  <course>187.45</course>
  <speed>2.9463536787018625</speed>
  <fix>3d</fix>
</trkpt>
<trkpt lat="40.0753422" lon="-105.2301263">
  <ele>1583.0</ele>
  <time>2026-08-28T17:51:24Z</time>
  <course>186.52</course>
  <speed>2.98</speed>
  <fix>3d</fix>
</trkpt>
<trkpt lat="40.0753335" lon="-105.2301274">
  <ele>1583.09</ele>
  <time>2026-08-28T17:51:24Z</time>
  <course>187.45</course>
  <speed>2.9463536787018625</speed>
  <fix>3d</fix>
</trkpt>
<trkpt lat="40.0753422" lon="-105.2301263">
  <ele>1583.0</ele>
  <time>2026-08-28T17:51:24Z</time>
  <course>186.52</course>
  <speed>2.98</speed>
  <fix>3d</fix>
</trkpt>
<trkpt lat="40.0753309" lon="-105.2301278">
  <ele>1583.09</ele>
  <time>2026-08-28T17:51:24Z</time>
  <course>187.45</course>
  <speed>2.9463536787018625</speed>
  <fix>3d</fix>
</trkpt>
<trkpt lat="40.0753369" lon="-105.2301271">
  <ele>1583.0</ele>
  <time>2026-08-28T17:51:24Z</time>
  <course>186.52</course>
  <speed>2.97</speed>
  <fix>3d</fix>
</trkpt>
<trkpt lat="40.0753282" lon="-105.2301282">
  <ele>1583.09</ele>
  <time>2026-08-28T17:51:24Z</time>
  <course>187.45</course>
  <speed>2.9463536787018625</speed>
  <fix>3d</fix>
</trkpt>
<trkpt lat="40.0753369" lon="-105.2301271">
  <ele>1583.0</ele>
  <time>2026-08-28T17:51:24Z</time>
  <course>186.52</course>
  <speed>2.97</speed>
  <fix>3d</fix>
</trkpt>
<trkpt lat="40.0753256" lon="-105.2301286">
  <ele>1583.09</ele>
  <time>2026-08-28T17:51:24Z</time>
  <course>187.41</course>
  <speed>2.9463536787018625</speed>
  <fix>3d</fix>
</trkpt>
<trkpt lat="40.0753316" lon="-105.2301278">
  <ele>1583.0</ele>
  <time>2026-08-28T17:51:24Z</time>
  <course>186.52</course>
  <speed>2.97</speed>
  <fix>3d</fix>
</trkpt>
<trkpt lat="40.075323" lon="-105.230129">
  <ele>1583.09</ele>
  <time>2026-08-28T17:51:24Z</time>
  <course>187.37</course>
  <speed>2.9463536787018625</speed>
  <fix>3d</fix>
</trkpt>
<trkpt lat="40.0753316" lon="-105.2301278">
  <ele>1583.0</ele>
  <time>2026-08-28T17:51:24Z</time>
  <course>186.52</course>
  <speed>2.97</speed>
  <fix>3d</fix>
</trkpt>
<trkpt lat="40.0753203" lon="-105.2301294">
  <ele>1583.09</ele>
  <time>2026-08-28T17:51:24Z</time>
  <course>187.33</course>
  <speed>2.9463536787018625</speed>
  <fix>3d</fix>
</trkpt>
<trkpt lat="40.0753263" lon="-105.2301287">
  <ele>1583.0</ele>
  <time>2026-08-28T17:51:24Z</time>
  <course>186.48</course>
  <speed>2.98</speed>
  <fix>3d</fix>
</trkpt>
<trkpt lat="40.0753177" lon="-105.2301297">
  <ele>1583.09</ele>
  <time>2026-08-28T17:51:24Z</time>
  <course>187.29</course>
  <speed>2.9463536787018625</speed>
  <fix>3d</fix>
</trkpt>
<trkpt lat="40.0753209" lon="-105.2301295">
  <ele>1583.0</ele>
  <time>2026-08-28T17:51:24Z</time>
  <course>186.39</course>
  <speed>2.98</speed>
  <fix>3d</fix>
</trkpt>
<trkpt lat="40.075315" lon="-105.2301301">
  <ele>1583.09</ele>
  <time>2026-08-28T17:51:24Z</time>
  <course>187.25</course>
  <speed>2.9562983611266302</speed>
  <fix>3d</fix>
</trkpt>
<trkpt lat="40.0753209" lon="-105.2301295">
  <ele>1583.0</ele>
  <time>2026-08-28T17:51:24Z</time>
  <course>186.39</course>
  <speed>2.98</speed>
  <fix>3d</fix>
</trkpt>
<trkpt lat="40.0753124" lon="-105.2301305">
  <ele>1583.09</ele>
  <time>2026-08-28T17:51:24Z</time>
  <course>187.2</course>
  <speed>2.9562983611266302</speed>
  <fix>3d</fix>
</trkpt>
<trkpt lat="40.0753156" lon="-105.2301302">
  <ele>1583.0</ele>
  <time>2026-08-28T17:51:24Z</time>
  <course>186.31</course>
  <speed>2.99</speed>
  <fix>3d</fix>
</trkpt>
<trkpt lat="40.0753097" lon="-105.2301309">
  <ele>1583.09</ele>
  <time>2026-08-28T17:51:24Z</time>
  <course>187.13</course>
  <speed>2.9662434155004878</speed>
  <fix>3d</fix>
</trkpt>
<trkpt lat="40.0753156" lon="-105.2301302">
  <ele>1583.0</ele>
  <time>2026-08-28T17:51:24Z</time>
  <course>186.31</course>
  <speed>2.99</speed>
  <fix>3d</fix>
</trkpt>
<trkpt lat="40.075307" lon="-105.2301313">
  <ele>1583.09</ele>
  <time>2026-08-28T17:51:24Z</time>
  <course>187.05</course>
  <speed>2.9652150006365474</speed>
  <fix>3d</fix>
</trkpt>
<trkpt lat="40.0753103" lon="-105.230131">
  <ele>1583.0</ele>
  <time>2026-08-28T17:51:24Z</time>
  <course>186.19</course>
  <speed>3.0</speed>
  <fix>3d</fix>
</trkpt>
<trkpt lat="40.0753043" lon="-105.2301317">
  <ele>1583.1</ele>
  <time>2026-08-28T17:51:24Z</time>
  <course>186.97</course>
  <speed>2.9652150006365474</speed>
  <fix>3d</fix>
</trkpt>
<trkpt lat="40.0753103" lon="-105.230131">
  <ele>1583.0</ele>
  <time>2026-08-28T17:51:24Z</time>
  <course>186.19</course>
  <speed>3.0</speed>
  <fix>3d</fix>
</trkpt>
<trkpt lat="40.0753016" lon="-105.230132">
  <ele>1583.09</ele>
  <time>2026-08-28T17:51:24Z</time>
  <course>186.89</course>
  <speed>2.97516386103354</speed>
  <fix>3d</fix>
</trkpt>
<trkpt lat="40.0753048" lon="-105.2301318">
  <ele>1583.0</ele>
  <time>2026-08-28T17:51:24Z</time>
  <course>186.04</course>
  <speed>3.01</speed>
  <fix>3d</fix>
</trkpt>
<trkpt lat="40.0752989" lon="-105.2301324">
  <ele>1583.09</ele>
  <time>2026-08-28T17:51:24Z</time>
  <course>186.81</course>
  <speed>2.97516386103354</speed>
  <fix>3d</fix>
</trkpt>
<trkpt lat="40.0753048" lon="-105.2301318">
  <ele>1583.0</ele>
  <time>2026-08-28T17:51:24Z</time>
  <course>186.04</course>
  <speed>3.01</speed>
  <fix>3d</fix>
</trkpt>
<trkpt lat="40.0752962" lon="-105.2301328">
  <ele>1583.09</ele>
  <time>2026-08-28T17:51:24Z</time>
  <course>186.73</course>
  <speed>2.9841246622753546</speed>
  <fix>3d</fix>
</trkpt>
<trkpt lat="40.0752995" lon="-105.2301325">
  <ele>1583.0</ele>
  <time>2026-08-28T17:51:24Z</time>
  <course>185.87</course>
  <speed>3.01</speed>
  <fix>3d</fix>
</trkpt>
<trkpt lat="40.0752935" lon="-105.2301332">
  <ele>1583.09</ele>
  <time>2026-08-28T17:51:24Z</time>
  <course>186.65</course>
  <speed>2.9841246622753546</speed>
  <fix>3d</fix>
</trkpt>
<trkpt lat="40.0752995" lon="-105.2301325">
  <ele>1583.0</ele>
  <time>2026-08-28T17:51:24Z</time>
  <course>185.87</course>
  <speed>3.01</speed>
  <fix>3d</fix>
</trkpt>
<trkpt lat="40.0752907" lon="-105.2301335">
  <ele>1583.09</ele>
  <time>2026-08-28T17:51:24Z</time>
  <course>186.36</course>
  <speed>2.99312545677591</speed>
  <fix>3d</fix>
</trkpt>
<trkpt lat="40.075294" lon="-105.2301332">
  <ele>1583.0</ele>
  <time>2026-08-28T17:51:24Z</time>
  <course>185.6</course>
  <speed>3.02</speed>
  <fix>3d</fix>
</trkpt>
<trkpt lat="40.075288" lon="-105.2301338">
  <ele>1583.09</ele>
  <time>2026-08-28T17:51:24Z</time>
  <course>186.04</course>
  <speed>3.0212083675244914</speed>
  <fix>3d</fix>
</trkpt>
<trkpt lat="40.075294" lon="-105.2301332">
  <ele>1583.0</ele>
  <time>2026-08-28T17:51:24Z</time>
  <course>185.6</course>
  <speed>3.02</speed>
  <fix>3d</fix>
</trkpt>
<trkpt lat="40.0752852" lon="-105.2301342">
  <ele>1583.09</ele>
  <time>2026-08-28T17:51:24Z</time>
  <course>185.76</course>
  <speed>3.07019543351885</speed>
  <fix>3d</fix>
</trkpt>
<trkpt lat="40.0752887" lon="-105.2301339">
  <ele>1583.0</ele>
  <time>2026-08-28T17:51:24Z</time>
  <course>185.11</course>
  <speed>3.06</speed>
  <fix>3d</fix>
</trkpt>
<trkpt lat="40.0752824" lon="-105.2301345">
  <ele>1583.09</ele>
  <time>2026-08-28T17:51:24Z</time>
  <course>185.51</course>
  <speed>3.1200320511174238</speed>
  <fix>3d</fix>
</trkpt>
<trkpt lat="40.0752887" lon="-105.2301339">
  <ele>1583.0</ele>
  <time>2026-08-28T17:51:24Z</time>
  <course>185.11</course>
  <speed>3.06</speed>
  <fix>3d</fix>
</trkpt>
<trkpt lat="40.0752795" lon="-105.2301348">
  <ele>1583.09</ele>
  <time>2026-08-28T17:51:24Z</time>
  <course>185.28</course>
  <speed>3.1890437438203945</speed>
  <fix>3d</fix>
</trkpt>
<trkpt lat="40.0752887" lon="-105.2301339">
  <ele>1583.0</ele>
  <time>2026-08-28T17:51:24Z</time>
  <course>185.11</course>
  <speed>3.06</speed>
  <fix>3d</fix>
</trkpt>
<trkpt lat="40.0752766" lon="-105.2301351">
  <ele>1583.09</ele>
  <time>2026-08-28T17:51:24Z</time>
  <course>185.06</course>
  <speed>3.2688224179358536</speed>
  <fix>3d</fix>
</trkpt>
<trkpt lat="40.0752831" lon="-105.2301344">
  <ele>1583.0</ele>
  <time>2026-08-28T17:51:24Z</time>
  <course>184.57</course>
  <speed>3.16</speed>
  <fix>3d</fix>
</trkpt>
<trkpt lat="40.0752736" lon="-105.2301354">
  <ele>1583.09</ele>
  <time>2026-08-28T17:51:24Z</time>
  <course>184.86</course>
  <speed>3.3578862398836566</speed>
  <fix>3d</fix>
</trkpt>
<trkpt lat="40.0752831" lon="-105.2301344">
  <ele>1583.0</ele>
  <time>2026-08-28T17:51:24Z</time>
  <course>184.57</course>
  <speed>3.16</speed>
  <fix>3d</fix>
</trkpt>
<trkpt lat="40.0752706" lon="-105.2301356">
  <ele>1583.09</ele>
  <time>2026-08-28T17:51:24Z</time>
  <course>184.68</course>
  <speed>3.457658167025769</speed>
  <fix>3d</fix>
</trkpt>
<trkpt lat="40.0752773" lon="-105.2301351">
  <ele>1583.0</ele>
  <time>2026-08-28T17:51:24Z</time>
  <course>184.11</course>
  <speed>3.3</speed>
  <fix>3d</fix>
</trkpt>
<trkpt lat="40.0752674" lon="-105.2301359">
  <ele>1583.09</ele>
  <time>2026-08-28T17:51:24Z</time>
  <course>184.49</course>
  <speed>3.5674220383913084</speed>
  <fix>3d</fix>
</trkpt>
<trkpt lat="40.0752773" lon="-105.2301351">
  <ele>1583.0</ele>
  <time>2026-08-28T17:51:24Z</time>
  <course>184.11</course>
  <speed>3.3</speed>
  <fix>3d</fix>
</trkpt>
<trkpt lat="40.0752641" lon="-105.2301362">
  <ele>1583.09</ele>
  <time>2026-08-28T17:51:24Z</time>
  <course>184.33</course>
  <speed>3.6772000217556835</speed>
  <fix>3d</fix>
</trkpt>
<trkpt lat="40.0752712" lon="-105.2301356">
  <ele>1583.0</ele>
  <time>2026-08-28T17:51:24Z</time>
  <course>183.71</course>
  <speed>3.49</speed>
  <fix>3d</fix>
</trkpt>
<trkpt lat="40.0752608" lon="-105.2301365">
  <ele>1583.09</ele>
  <time>2026-08-28T17:51:24Z</time>
  <course>184.18</course>
  <speed>3.796972478172577</speed>
  <fix>3d</fix>
</trkpt>
<trkpt lat="40.0752712" lon="-105.2301356">
  <ele>1583.0</ele>
  <time>2026-08-28T17:51:24Z</time>
  <course>183.71</course>
  <speed>3.49</speed>
  <fix>3d</fix>
</trkpt>
<trkpt lat="40.0752573" lon="-105.2301367">
  <ele>1583.09</ele>
  <time>2026-08-28T17:51:24Z</time>
  <course>184.02</course>
  <speed>3.916758864163072</speed>
  <fix>3d</fix>
</trkpt>
<trkpt lat="40.0752647" lon="-105.2301361">
  <ele>1583.0</ele>
  <time>2026-08-28T17:51:24Z</time>
  <course>183.37</course>
  <speed>3.71</speed>
  <fix>3d</fix>
</trkpt>
<trkpt lat="40.0752537" lon="-105.230137">
  <ele>1583.09</ele>
  <time>2026-08-28T17:51:24Z</time>
  <course>183.91</course>
  <speed>4.046541733381728</speed>
  <fix>3d</fix>
</trkpt>
<trkpt lat="40.0752578" lon="-105.2301366">
  <ele>1583.0</ele>
  <time>2026-08-28T17:51:24Z</time>
  <course>183.07</course>
  <speed>3.95</speed>
  <fix>3d</fix>
</trkpt>
<trkpt lat="40.0752499" lon="-105.2301372">
  <ele>1583.09</ele>
  <time>2026-08-28T17:51:24Z</time>
  <course>183.8</course>
  <speed>4.176338108917907</speed>
  <fix>3d</fix>
</trkpt>
<trkpt lat="40.0752578" lon="-105.2301366">
  <ele>1583.0</ele>
  <time>2026-08-28T17:51:24Z</time>
  <course>183.07</course>
  <speed>3.95</speed>
  <fix>3d</fix>
</trkpt>
<trkpt lat="40.0752461" lon="-105.2301375">
  <ele>1583.09</ele>
  <time>2026-08-28T17:51:24Z</time>
  <course>183.69</course>
  <speed>4.306146769444813</speed>
  <fix>3d</fix>
</trkpt>
<trkpt lat="40.0752505" lon="-105.2301371">
  <ele>1583.0</ele>
  <time>2026-08-28T17:51:24Z</time>
  <course>182.82</course>
  <speed>4.2</speed>
  <fix>3d</fix>
</trkpt>
<trkpt lat="40.0752421" lon="-105.2301378">
  <ele>1583.1</ele>
  <time>2026-08-28T17:51:24Z</time>
  <course>183.57</course>
  <speed>4.4359666364840935</speed>
  <fix>3d</fix>
</trkpt>
<trkpt lat="40.0752505" lon="-105.2301371">
  <ele>1583.0</ele>
  <time>2026-08-28T17:51:24Z</time>
  <course>182.82</course>
  <speed>4.2</speed>
  <fix>3d</fix>
</trkpt>
<trkpt lat="40.075238" lon="-105.230138">
  <ele>1583.09</ele>
  <time>2026-08-28T17:51:24Z</time>
  <course>183.48</course>
  <speed>4.575784085815239</speed>
  <fix>3d</fix>
</trkpt>
<trkpt lat="40.0752428" lon="-105.2301376">
  <ele>1583.0</ele>
  <time>2026-08-28T17:51:24Z</time>
  <course>182.6</course>
  <speed>4.46</speed>
  <fix>3d</fix>
</trkpt>
<trkpt lat="40.0752337" lon="-105.2301383">
  <ele>1583.09</ele>
  <time>2026-08-28T17:51:24Z</time>
  <course>183.42</course>
  <speed>4.705624294394953</speed>
  <fix>3d</fix>
</trkpt>
<trkpt lat="40.0752428" lon="-105.2301376">
  <ele>1583.0</ele>
  <time>2026-08-28T17:51:24Z</time>
  <course>182.6</course>
  <speed>4.46</speed>
  <fix>3d</fix>
</trkpt>
<trkpt lat="40.0752293" lon="-105.2301385">
  <ele>1583.09</ele>
  <time>2026-08-28T17:51:24Z</time>
  <course>183.36</course>
  <speed>4.835473089574586</speed>
  <fix>3d</fix>
</trkpt>
<trkpt lat="40.0752345" lon="-105.230138">
  <ele>1583.0</ele>
  <time>2026-08-28T17:51:24Z</time>
  <course>182.43</course>
  <speed>4.72</speed>
  <fix>3d</fix>
</trkpt>
<trkpt lat="40.0752248" lon="-105.2301388">
  <ele>1583.09</ele>
  <time>2026-08-28T17:51:24Z</time>
  <course>183.29</course>
  <speed>4.965803056908318</speed>
  <fix>3d</fix>
</trkpt>
<trkpt lat="40.0752345" lon="-105.230138">
  <ele>1583.0</ele>
  <time>2026-08-28T17:51:24Z</time>
  <course>182.43</course>
  <speed>4.72</speed>
  <fix>3d</fix>
</trkpt>
<trkpt lat="40.0752202" lon="-105.2301391">
  <ele>1583.09</ele>
  <time>2026-08-28T17:51:24Z</time>
  <course>183.22</course>
  <speed>5.095655011870407</speed>
  <fix>3d</fix>
</trkpt>
<trkpt lat="40.0752258" lon="-105.2301385">
  <ele>1583.0</ele>
  <time>2026-08-28T17:51:24Z</time>
  <course>182.3</course>
  <speed>4.97</speed>
  <fix>3d</fix>
</trkpt>
<trkpt lat="40.0752155" lon="-105.2301393">
  <ele>1583.09</ele>
  <time>2026-08-28T17:51:24Z</time>
  <course>183.15</course>
  <speed>5.2155249016757645</speed>
  <fix>3d</fix>
</trkpt>
<trkpt lat="40.0752258" lon="-105.2301385">
  <ele>1583.0</ele>
  <time>2026-08-28T17:51:24Z</time>
  <course>182.3</course>
  <speed>4.97</speed>
  <fix>3d</fix>
</trkpt>
<trkpt lat="40.0752107" lon="-105.2301396">
  <ele>1583.08</ele>
  <time>2026-08-28T17:51:24Z</time>
  <course>183.08</course>
  <speed>5.3354006410015735</speed>
  <fix>3d</fix>
</trkpt>
<trkpt lat="40.0752167" lon="-105.230139">
  <ele>1583.0</ele>
  <time>2026-08-28T17:51:24Z</time>
  <course>182.16</course>
  <speed>5.22</speed>
  <fix>3d</fix>
</trkpt>
<trkpt lat="40.0752058" lon="-105.2301398">
  <ele>1583.08</ele>
  <time>2026-08-28T17:51:24Z</time>
  <course>183.01</course>
  <speed>5.454851052045326</speed>
  <fix>3d</fix>
</trkpt>
<trkpt lat="40.0752167" lon="-105.230139">
  <ele>1583.0</ele>
  <time>2026-08-28T17:51:24Z</time>
  <course>182.16</course>
  <speed>5.22</speed>
  <fix>3d</fix>
</trkpt>
<trkpt lat="40.0752008" lon="-105.2301401">
  <ele>1583.08</ele>
  <time>2026-08-28T17:51:24Z</time>
  <course>182.93</course>
  <speed>5.574746631013826</speed>
  <fix>3d</fix>
</trkpt>
<trkpt lat="40.0752071" lon="-105.2301394">
  <ele>1583.0</ele>
  <time>2026-08-28T17:51:24Z</time>
  <course>182.01</course>
  <speed>5.45</speed>
  <fix>3d</fix>
</trkpt>
<trkpt lat="40.0751956" lon="-105.2301403">
  <ele>1583.08</ele>
  <time>2026-08-28T17:51:24Z</time>
  <course>182.85</course>
  <speed>5.694646608877499</speed>
  <fix>3d</fix>
</trkpt>
<trkpt lat="40.0752071" lon="-105.2301394">
  <ele>1583.0</ele>
  <time>2026-08-28T17:51:24Z</time>
  <course>182.01</course>
  <speed>5.45</speed>
  <fix>3d</fix>
</trkpt>
<trkpt lat="40.0751904" lon="-105.2301405">
  <ele>1583.08</ele>
  <time>2026-08-28T17:51:24Z</time>
  <course>182.79</course>
  <speed>5.804558553412999</speed>
  <fix>3d</fix>
</trkpt>
<trkpt lat="40.0752071" lon="-105.2301394">
  <ele>1583.0</ele>
  <time>2026-08-28T17:51:24Z</time>
  <course>182.01</course>
  <speed>5.45</speed>
  <fix>3d</fix>
</trkpt>
<trkpt lat="40.0751852" lon="-105.2301408">
  <ele>1583.08</ele>
  <time>2026-08-28T17:51:24Z</time>
  <course>182.75</course>
  <speed>5.904481348941666</speed>
  <fix>3d</fix>
</trkpt>
<trkpt lat="40.075197" lon="-105.2301399">
  <ele>1583.0</ele>
  <time>2026-08-28T17:51:24Z</time>
  <course>181.87</course>
  <speed>5.68</speed>
  <fix>3d</fix>
</trkpt>
<trkpt lat="40.0751798" lon="-105.230141">
  <ele>1583.08</ele>
  <time>2026-08-28T17:51:24Z</time>
  <course>182.7</course>
  <speed>6.014399388135112</speed>
  <fix>3d</fix>
</trkpt>
<trkpt lat="40.075197" lon="-105.2301399">
  <ele>1583.0</ele>
  <time>2026-08-28T17:51:24Z</time>
  <course>181.87</course>
  <speed>5.68</speed>
  <fix>3d</fix>
</trkpt>
<trkpt lat="40.0751744" lon="-105.2301412">
  <ele>1583.08</ele>
  <time>2026-08-28T17:51:24Z</time>
  <course>182.66</course>
  <speed>6.11432743643976</speed>
  <fix>3d</fix>
</trkpt>
<trkpt lat="40.0751867" lon="-105.2301404">
  <ele>1583.0</ele>
  <time>2026-08-28T17:51:24Z</time>
  <course>181.76</course>
  <speed>5.89</speed>
  <fix>3d</fix>
</trkpt>
<trkpt lat="40.0751689" lon="-105.2301414">
  <ele>1583.08</ele>
  <time>2026-08-28T17:51:24Z</time>
  <course>182.64</course>
  <speed>6.214257799608896</speed>
  <fix>3d</fix>
</trkpt>
<trkpt lat="40.0751867" lon="-105.2301404">
  <ele>1583.0</ele>
  <time>2026-08-28T17:51:24Z</time>
  <course>181.76</course>
  <speed>5.89</speed>
  <fix>3d</fix>
</trkpt>
<trkpt lat="40.0751633" lon="-105.2301417">
  <ele>1583.08</ele>
  <time>2026-08-28T17:51:24Z</time>
  <course>182.61</course>
  <speed>6.314190367735201</speed>
  <fix>3d</fix>
</trkpt>
<trkpt lat="40.0751759" lon="-105.2301407">
  <ele>1583.0</ele>
  <time>2026-08-28T17:51:24Z</time>
  <course>181.7</course>
  <speed>6.1</speed>
  <fix>3d</fix>
</trkpt>
<trkpt lat="40.0751575" lon="-105.2301419">
  <ele>1583.08</ele>
  <time>2026-08-28T17:51:24Z</time>
  <course>182.57</course>
  <speed>6.414125037758463</speed>
  <fix>3d</fix>
</trkpt>
<trkpt lat="40.0751647" lon="-105.2301411">
  <ele>1583.0</ele>
  <time>2026-08-28T17:51:24Z</time>
  <course>181.65</course>
  <speed>6.3</speed>
  <fix>3d</fix>
</trkpt>
<trkpt lat="40.0751517" lon="-105.2301421">
  <ele>1583.08</ele>
  <time>2026-08-28T17:51:24Z</time>
  <course>182.56</course>
  <speed>6.5140617129407055</speed>
  <fix>3d</fix>
</trkpt>
<trkpt lat="40.0751647" lon="-105.2301411">
  <ele>1583.0</ele>
  <time>2026-08-28T17:51:24Z</time>
  <course>181.65</course>
  <speed>6.3</speed>
  <fix>3d</fix>
</trkpt>
<trkpt lat="40.0751458" lon="-105.2301423">
  <ele>1583.08</ele>
  <time>2026-08-28T17:51:24Z</time>
  <course>182.52</course>
  <speed>6.614000302388865</speed>
  <fix>3d</fix>
</trkpt>
<trkpt lat="40.0751532" lon="-105.2301416">
  <ele>1583.0</ele>
  <time>2026-08-28T17:51:24Z</time>
  <course>181.6</course>
  <speed>6.5</speed>
  <fix>3d</fix>
</trkpt>
<trkpt lat="40.0751398" lon="-105.2301425">
  <ele>1583.08</ele>
  <time>2026-08-28T17:51:24Z</time>
  <course>182.52</course>
  <speed>6.703946598832661</speed>
  <fix>3d</fix>
</trkpt>
<trkpt lat="40.0751532" lon="-105.2301416">
  <ele>1583.0</ele>
  <time>2026-08-28T17:51:24Z</time>
  <course>181.6</course>
  <speed>6.5</speed>
  <fix>3d</fix>
</trkpt>
<trkpt lat="40.0751337" lon="-105.2301428">
  <ele>1583.08</ele>
  <time>2026-08-28T17:51:24Z</time>
  <course>182.51</course>
  <speed>6.804233975988774</speed>
  <fix>3d</fix>
</trkpt>
<trkpt lat="40.0751414" lon="-105.2301421">
  <ele>1583.0</ele>
  <time>2026-08-28T17:51:24Z</time>
  <course>181.59</course>
  <speed>6.7</speed>
  <fix>3d</fix>
</trkpt>
<trkpt lat="40.0751274" lon="-105.230143">
  <ele>1583.08</ele>
  <time>2026-08-28T17:51:24Z</time>
  <course>182.51</course>
  <speed>6.904172651375399</speed>
  <fix>3d</fix>
</trkpt>
<trkpt lat="40.0751414" lon="-105.2301421">
  <ele>1583.0</ele>
  <time>2026-08-28T17:51:24Z</time>
  <course>181.59</course>
  <speed>6.7</speed>
  <fix>3d</fix>
</trkpt>
<trkpt lat="40.0751211" lon="-105.2301432">
  <ele>1583.08</ele>
  <time>2026-08-28T17:51:24Z</time>
  <course>182.5</course>
  <speed>7.004113077328206</speed>
  <fix>3d</fix>
</trkpt>
<trkpt lat="40.0751292" lon="-105.2301425">
  <ele>1583.0</ele>
  <time>2026-08-28T17:51:24Z</time>
  <course>181.59</course>
  <speed>6.89</speed>
  <fix>3d</fix>
</trkpt>
<trkpt lat="40.0751147" lon="-105.2301435">
  <ele>1583.08</ele>
  <time>2026-08-28T17:51:24Z</time>
  <course>182.5</course>
  <speed>7.104055179965876</speed>
  <fix>3d</fix>
</trkpt>
<trkpt lat="40.0751292" lon="-105.2301425">
  <ele>1583.0</ele>
  <time>2026-08-28T17:51:24Z</time>
  <course>181.59</course>
  <speed>6.89</speed>
  <fix>3d</fix>
</trkpt>
<trkpt lat="40.0751082" lon="-105.2301437">
  <ele>1583.07</ele>
  <time>2026-08-28T17:51:24Z</time>
  <course>182.49</course>
  <speed>7.194345001457743</speed>
  <fix>3d</fix>
</trkpt>
<trkpt lat="40.0751166" lon="-105.230143">
  <ele>1583.0</ele>
  <time>2026-08-28T17:51:24Z</time>
  <course>181.59</course>
  <speed>7.08</speed>
  <fix>3d</fix>
</trkpt>
<trkpt lat="40.0751017" lon="-105.2301439">
  <ele>1583.07</ele>
  <time>2026-08-28T17:51:24Z</time>
  <course>182.49</course>
  <speed>7.264303132441541</speed>
  <fix>3d</fix>
</trkpt>
<trkpt lat="40.0751166" lon="-105.230143">
  <ele>1583.0</ele>
  <time>2026-08-28T17:51:24Z</time>
  <course>181.59</course>
  <speed>7.08</speed>
  <fix>3d</fix>
</trkpt>
<trkpt lat="40.0750951" lon="-105.2301442">
  <ele>1583.07</ele>
  <time>2026-08-28T17:51:24Z</time>
  <course>182.48</course>
  <speed>7.324267881501877</speed>
  <fix>3d</fix>
</trkpt>
<trkpt lat="40.0751037" lon="-105.2301434">
  <ele>1583.0</ele>
  <time>2026-08-28T17:51:24Z</time>
  <course>181.59</course>
  <speed>7.23</speed>
  <fix>3d</fix>
</trkpt>
<trkpt lat="40.0750884" lon="-105.2301444">
  <ele>1583.07</ele>
  <time>2026-08-28T17:51:24Z</time>
  <course>182.48</course>
  <speed>7.364244699899644</speed>
  <fix>3d</fix>
</trkpt>
<trkpt lat="40.0751037" lon="-105.2301434">
  <ele>1583.0</ele>
  <time>2026-08-28T17:51:24Z</time>
  <course>181.59</course>
  <speed>7.23</speed>
  <fix>3d</fix>
</trkpt>
<trkpt lat="40.0750818" lon="-105.2301447">
  <ele>1583.07</ele>
  <time>2026-08-28T17:51:24Z</time>
  <course>182.47</course>
  <speed>7.394227478242741</speed>
  <fix>3d</fix>
</trkpt>
<trkpt lat="40.0750906" lon="-105.2301439">
  <ele>1583.0</ele>
  <time>2026-08-28T17:51:24Z</time>
  <course>181.59</course>
  <speed>7.33</speed>
  <fix>3d</fix>
</trkpt>
<trkpt lat="40.0750751" lon="-105.2301449">
  <ele>1583.07</ele>
  <time>2026-08-28T17:51:24Z</time>
  <course>182.44</course>
  <speed>7.4138856209143125</speed>
  <fix>3d</fix>
</trkpt>
<trkpt lat="40.0750906" lon="-105.2301439">
  <ele>1583.0</ele>
  <time>2026-08-28T17:51:24Z</time>
  <course>181.59</course>
  <speed>7.33</speed>
  <fix>3d</fix>
</trkpt>
<trkpt lat="40.0750684" lon="-105.2301451">
  <ele>1583.07</ele>
  <time>2026-08-28T17:51:24Z</time>
  <course>182.44</course>
  <speed>7.4138856209143125</speed>
  <fix>3d</fix>
</trkpt>
<trkpt lat="40.0750906" lon="-105.2301439">
  <ele>1583.0</ele>
  <time>2026-08-28T17:51:24Z</time>
  <course>181.59</course>
  <speed>7.33</speed>
  <fix>3d</fix>
</trkpt>
<trkpt lat="40.0750618" lon="-105.2301454">
  <ele>1583.07</ele>
  <time>2026-08-28T17:51:24Z</time>
  <course>182.41</course>
  <speed>7.4138856209143125</speed>
  <fix>3d</fix>
</trkpt>
<trkpt lat="40.0750774" lon="-105.2301444">
  <ele>1583.0</ele>
  <time>2026-08-28T17:51:24Z</time>
  <course>181.58</course>
  <speed>7.38</speed>
  <fix>3d</fix>
</trkpt>
<trkpt lat="40.0750552" lon="-105.2301456">
  <ele>1583.07</ele>
  <time>2026-08-28T17:51:24Z</time>
  <course>182.39</course>
  <speed>7.403573461511677</speed>
  <fix>3d</fix>
</trkpt>
<trkpt lat="40.0750774" lon="-105.2301444">
  <ele>1583.0</ele>
  <time>2026-08-28T17:51:24Z</time>
  <course>181.58</course>
  <speed>7.38</speed>
  <fix>3d</fix>
</trkpt>
<trkpt lat="40.0750486" lon="-105.2301458">
  <ele>1583.07</ele>
  <time>2026-08-28T17:51:24Z</time>
  <course>182.37</course>
  <speed>7.383583140995976</speed>
  <fix>3d</fix>
</trkpt>
<trkpt lat="40.0750641" lon="-105.2301449">
  <ele>1583.0</ele>
  <time>2026-08-28T17:51:24Z</time>
  <course>181.55</course>
  <speed>7.38</speed>
  <fix>3d</fix>
</trkpt>
<trkpt lat="40.075042" lon="-105.230146">
  <ele>1583.07</ele>
  <time>2026-08-28T17:51:24Z</time>
  <course>182.36</course>
  <speed>7.3535977589204595</speed>
  <fix>3d</fix>
</trkpt>
<trkpt lat="40.0750641" lon="-105.2301449">
  <ele>1583.0</ele>
  <time>2026-08-28T17:51:24Z</time>
  <course>181.55</course>
  <speed>7.38</speed>
  <fix>3d</fix>
</trkpt>
<trkpt lat="40.0750355" lon="-105.2301463">
  <ele>1583.07</ele>
  <time>2026-08-28T17:51:24Z</time>
  <course>182.32</course>
  <speed>7.323305264701179</speed>
  <fix>3d</fix>
</trkpt>
<trkpt lat="40.0750508" lon="-105.2301453">
  <ele>1583.0</ele>
  <time>2026-08-28T17:51:24Z</time>
  <course>181.52</course>
  <speed>7.36</speed>
  <fix>3d</fix>
</trkpt>
<trkpt lat="40.075029" lon="-105.2301465">
  <ele>1583.07</ele>
  <time>2026-08-28T17:51:24Z</time>
  <course>182.27</course>
  <speed>7.293024064131422</speed>
  <fix>3d</fix>
</trkpt>
<trkpt lat="40.0750377" lon="-105.2301458">
  <ele>1583.0</ele>
  <time>2026-08-28T17:51:24Z</time>
  <course>181.47</course>
  <speed>7.31</speed>
  <fix>3d</fix>
</trkpt>
<trkpt lat="40.0750225" lon="-105.2301467">
  <ele>1583.07</ele>
  <time>2026-08-28T17:51:24Z</time>
  <course>182.27</course>
  <speed>7.263036555050511</speed>
  <fix>3d</fix>
</trkpt>
<trkpt lat="40.0750377" lon="-105.2301458">
  <ele>1583.0</ele>
  <time>2026-08-28T17:51:24Z</time>
  <course>181.47</course>
  <speed>7.31</speed>
  <fix>3d</fix>
</trkpt>
<trkpt lat="40.075016" lon="-105.2301469">
  <ele>1583.07</ele>
  <time>2026-08-28T17:51:24Z</time>
  <course>182.23</course>
  <speed>7.23276572273705</speed>
  <fix>3d</fix>
</trkpt>
<trkpt lat="40.0750246" lon="-105.2301461">
  <ele>1583.0</ele>
  <time>2026-08-28T17:51:24Z</time>
  <course>181.41</course>
  <speed>7.26</speed>
  <fix>3d</fix>
</trkpt>
<trkpt lat="40.0750095" lon="-105.230147">
  <ele>1583.06</ele>
  <time>2026-08-28T17:51:24Z</time>
  <course>182.23</course>
  <speed>7.202777242147643</speed>
  <fix>3d</fix>
</trkpt>
<trkpt lat="40.0750246" lon="-105.2301461">
  <ele>1583.0</ele>
  <time>2026-08-28T17:51:24Z</time>
  <course>181.41</course>
  <speed>7.26</speed>
  <fix>3d</fix>
</trkpt>
<trkpt lat="40.0750031" lon="-105.2301472">
  <ele>1583.06</ele>
  <time>2026-08-28T17:51:24Z</time>
  <course>182.19</course>
  <speed>7.172516991963143</speed>
  <fix>3d</fix>
</trkpt>
<trkpt lat="40.0750116" lon="-105.2301466">
  <ele>1583.0</ele>
  <time>2026-08-28T17:51:24Z</time>
  <course>181.37</course>
  <speed>7.2</speed>
  <fix>3d</fix>
</trkpt>
<trkpt lat="40.0749966" lon="-105.2301474">
  <ele>1583.06</ele>
  <time>2026-08-28T17:51:24Z</time>
  <course>182.19</course>
  <speed>7.142527563825008</speed>
  <fix>3d</fix>
</trkpt>
<trkpt lat="40.0750116" lon="-105.2301466">
  <ele>1583.0</ele>
  <time>2026-08-28T17:51:24Z</time>
  <course>181.37</course>
  <speed>7.2</speed>
  <fix>3d</fix>
</trkpt>
<trkpt lat="40.0749902" lon="-105.2301476">
  <ele>1583.06</ele>
  <time>2026-08-28T17:51:24Z</time>
  <course>182.15</course>
  <speed>7.112278116046926</speed>
  <fix>3d</fix>
</trkpt>
<trkpt lat="40.0749988" lon="-105.230147">
  <ele>1583.0</ele>
  <time>2026-08-28T17:51:24Z</time>
  <course>181.33</course>
  <speed>7.14</speed>
  <fix>3d</fix>
</trkpt>
<trkpt lat="40.0749838" lon="-105.2301477">
  <ele>1583.06</ele>
  <time>2026-08-28T17:51:24Z</time>
  <course>182.13</course>
  <speed>7.092284540259225</speed>
  <fix>3d</fix>
</trkpt>
<trkpt lat="40.0749988" lon="-105.230147">
  <ele>1583.0</ele>
  <time>2026-08-28T17:51:24Z</time>
  <course>181.33</course>
  <speed>7.14</speed>
  <fix>3d</fix>
</trkpt>
<trkpt lat="40.0749774" lon="-105.2301479">
  <ele>1583.06</ele>
  <time>2026-08-28T17:51:24Z</time>
  <course>182.11</course>
  <speed>7.062046445613339</speed>
  <fix>3d</fix>
</trkpt>
<trkpt lat="40.0749859" lon="-105.2301473">
  <ele>1583.0</ele>
  <time>2026-08-28T17:51:24Z</time>
  <course>181.29</course>
  <speed>7.09</speed>
  <fix>3d</fix>
</trkpt>
<trkpt lat="40.074971" lon="-105.2301481">
  <ele>1583.06</ele>
  <time>2026-08-28T17:51:24Z</time>
  <course>182.09</course>
  <speed>7.042052257687385</speed>
  <fix>3d</fix>
</trkpt>
<trkpt lat="40.0749859" lon="-105.2301473">
  <ele>1583.0</ele>
  <time>2026-08-28T17:51:24Z</time>
  <course>181.29</course>
  <speed>7.09</speed>
  <fix>3d</fix>
</trkpt>
<trkpt lat="40.0749647" lon="-105.2301483">
  <ele>1583.06</ele>
  <time>2026-08-28T17:51:24Z</time>
  <course>182.08</course>
  <speed>7.022058102864146</speed>
  <fix>3d</fix>
</trkpt>
<trkpt lat="40.0749732" lon="-105.2301478">
  <ele>1583.0</ele>
  <time>2026-08-28T17:51:24Z</time>
  <course>181.25</course>
  <speed>7.05</speed>
  <fix>3d</fix>
</trkpt>
<trkpt lat="40.0749583" lon="-105.2301484">
  <ele>1583.06</ele>
  <time>2026-08-28T17:51:24Z</time>
  <course>182.06</course>
  <speed>7.001828332657121</speed>
  <fix>3d</fix>
</trkpt>
<trkpt lat="40.0749732" lon="-105.2301478">
  <ele>1583.0</ele>
  <time>2026-08-28T17:51:24Z</time>
  <course>181.25</course>
  <speed>7.05</speed>
  <fix>3d</fix>
</trkpt>
<trkpt lat="40.074952" lon="-105.2301486">
  <ele>1583.06</ele>
  <time>2026-08-28T17:51:24Z</time>
  <course>182.02</course>
  <speed>6.991830947613079</speed>
  <fix>3d</fix>
</trkpt>
<trkpt lat="40.0749607" lon="-105.2301481">
  <ele>1583.0</ele>
  <time>2026-08-28T17:51:24Z</time>
  <course>181.2</course>
  <speed>7.01</speed>
  <fix>3d</fix>
</trkpt>
<trkpt lat="40.0749458" lon="-105.2301487">
  <ele>1583.06</ele>
  <time>2026-08-28T17:51:24Z</time>
  <course>182.02</course>
  <speed>6.971836200026504</speed>
  <fix>3d</fix>
</trkpt>
<trkpt lat="40.0749607" lon="-105.2301481">
  <ele>1583.0</ele>
  <time>2026-08-28T17:51:24Z</time>
  <course>181.2</course>
  <speed>7.01</speed>
  <fix>3d</fix>
</trkpt>
<trkpt lat="40.0749395" lon="-105.2301489">
  <ele>1583.06</ele>
  <time>2026-08-28T17:51:24Z</time>
  <course>181.99</course>
  <speed>6.9616161916612445</speed>
  <fix>3d</fix>
</trkpt>
<trkpt lat="40.0749607" lon="-105.2301481">
  <ele>1583.0</ele>
  <time>2026-08-28T17:51:24Z</time>
  <course>181.2</course>
  <speed>7.01</speed>
  <fix>3d</fix>
</trkpt>
<trkpt lat="40.0749333" lon="-105.230149">
  <ele>1583.05</ele>
  <time>2026-08-28T17:51:24Z</time>
  <course>181.99</course>
  <speed>6.9516185165758335</speed>
  <fix>3d</fix>
</trkpt>
<trkpt lat="40.0749481" lon="-105.2301485">
  <ele>1583.0</ele>
  <time>2026-08-28T17:51:24Z</time>
  <course>181.16</course>
  <speed>6.98</speed>
  <fix>3d</fix>
</trkpt>
<trkpt lat="40.0749271" lon="-105.2301492">
  <ele>1583.05</ele>
  <time>2026-08-28T17:51:24Z</time>
  <course>181.95</course>
  <speed>6.941411960113014</speed>
  <fix>3d</fix>
</trkpt>
<trkpt lat="40.0749481" lon="-105.2301485">
  <ele>1583.0</ele>
  <time>2026-08-28T17:51:24Z</time>
  <course>181.16</course>
  <speed>6.98</speed>
  <fix>3d</fix>
</trkpt>
<trkpt lat="40.0749209" lon="-105.2301493">
  <ele>1583.05</ele>
  <time>2026-08-28T17:51:24Z</time>
  <course>181.92</course>
  <speed>6.931413997158155</speed>
  <fix>3d</fix>
</trkpt>
<trkpt lat="40.0749355" lon="-105.2301488">
  <ele>1583.0</ele>
  <time>2026-08-28T17:51:24Z</time>
  <course>181.12</course>
  <speed>6.96</speed>
  <fix>3d</fix>
</trkpt>
<trkpt lat="40.0749147" lon="-105.2301495">
  <ele>1583.05</ele>
  <time>2026-08-28T17:51:24Z</time>
  <course>181.92</course>
  <speed>6.921416040088907</speed>
  <fix>3d</fix>
</trkpt>
<trkpt lat="40.0749355" lon="-105.2301488">
  <ele>1583.0</ele>
  <time>2026-08-28T17:51:24Z</time>
  <course>181.12</course>
  <speed>6.96</speed>
  <fix>3d</fix>
</trkpt>
<trkpt lat="40.0749086" lon="-105.2301496">
  <ele>1583.04</ele>
  <time>2026-08-28T17:51:24Z</time>
  <course>181.88</course>
  <speed>6.921220990547838</speed>
  <fix>3d</fix>
</trkpt>
<trkpt lat="40.074923" lon="-105.2301491">
  <ele>1583.0</ele>
  <time>2026-08-28T17:51:24Z</time>
  <course>181.08</course>
  <speed>6.95</speed>
  <fix>3d</fix>
</trkpt>
<trkpt lat="40.0749024" lon="-105.2301498">
  <ele>1583.04</ele>
  <time>2026-08-28T17:51:24Z</time>
  <course>181.89</course>
  <speed>6.921220990547838</speed>
  <fix>3d</fix>
</trkpt>
<trkpt lat="40.074923" lon="-105.2301491">
  <ele>1583.0</ele>
  <time>2026-08-28T17:51:24Z</time>
  <course>181.08</course>
  <speed>6.95</speed>
  <fix>3d</fix>
</trkpt>
<trkpt lat="40.0748962" lon="-105.2301499">
  <ele>1583.04</ele>
  <time>2026-08-28T17:51:24Z</time>
  <course>181.85</course>
  <speed>6.921220990547838</speed>
  <fix>3d</fix>
</trkpt>
<trkpt lat="40.0749105" lon="-105.2301494">
  <ele>1583.0</ele>
  <time>2026-08-28T17:51:24Z</time>
  <course>181.04</course>
  <speed>6.95</speed>
  <fix>3d</fix>
</trkpt>
<trkpt lat="40.07489" lon="-105.23015">
  <ele>1583.04</ele>
  <time>2026-08-28T17:51:24Z</time>
  <course>181.83</course>
  <speed>6.921220990547838</speed>
  <fix>3d</fix>
</trkpt>
<trkpt lat="40.074898" lon="-105.2301497">
  <ele>1583.0</ele>
  <time>2026-08-28T17:51:24Z</time>
  <course>181.0</course>
  <speed>6.96</speed>
  <fix>3d</fix>
</trkpt>
<trkpt lat="40.0748838" lon="-105.2301502">
  <ele>1583.04</ele>
  <time>2026-08-28T17:51:24Z</time>
  <course>181.82</course>
  <speed>6.921220990547838</speed>
  <fix>3d</fix>
</trkpt>
<trkpt lat="40.074898" lon="-105.2301497">
  <ele>1583.0</ele>
  <time>2026-08-28T17:51:24Z</time>
  <course>181.0</course>
  <speed>6.96</speed>
  <fix>3d</fix>
</trkpt>
<trkpt lat="40.0748776" lon="-105.2301503">
  <ele>1583.04</ele>
  <time>2026-08-28T17:51:24Z</time>
  <course>181.8</course>
  <speed>6.9310388831689576</speed>
  <fix>3d</fix>
</trkpt>
<trkpt lat="40.0748855" lon="-105.23015">
  <ele>1583.0</ele>
  <time>2026-08-28T17:51:24Z</time>
  <course>180.95</course>
  <speed>6.97</speed>
  <fix>3d</fix>
</trkpt>
<trkpt lat="40.0748713" lon="-105.2301504">
  <ele>1583.04</ele>
  <time>2026-08-28T17:51:24Z</time>
  <course>181.77</course>
  <speed>6.941037386443038</speed>
  <fix>3d</fix>
</trkpt>
<trkpt lat="40.0748855" lon="-105.23015">
  <ele>1583.0</ele>
  <time>2026-08-28T17:51:24Z</time>
  <course>180.95</course>
  <speed>6.97</speed>
  <fix>3d</fix>
</trkpt>
<trkpt lat="40.074865" lon="-105.2301505">
  <ele>1583.04</ele>
  <time>2026-08-28T17:51:24Z</time>
  <course>181.77</course>
  <speed>6.941037386443038</speed>
  <fix>3d</fix>
</trkpt>
<trkpt lat="40.0748729" lon="-105.2301502">
  <ele>1583.0</ele>
  <time>2026-08-28T17:51:24Z</time>
  <course>180.91</course>
  <speed>6.98</speed>
  <fix>3d</fix>
</trkpt>
<trkpt lat="40.0748587" lon="-105.2301507">
  <ele>1583.05</ele>
  <time>2026-08-28T17:51:24Z</time>
  <course>181.73</course>
  <speed>6.951035894023279</speed>
  <fix>3d</fix>
</trkpt>
<trkpt lat="40.0748729" lon="-105.2301502">
  <ele>1583.0</ele>
  <time>2026-08-28T17:51:24Z</time>
  <course>180.91</course>
  <speed>6.98</speed>
  <fix>3d</fix>
</trkpt>
<trkpt lat="40.0748524" lon="-105.2301508">
  <ele>1583.05</ele>
  <time>2026-08-28T17:51:24Z</time>
  <course>181.73</course>
  <speed>6.961034405891124</speed>
  <fix>3d</fix>
</trkpt>
<trkpt lat="40.0748604" lon="-105.2301505">
  <ele>1583.0</ele>
  <time>2026-08-28T17:51:24Z</time>
  <course>180.87</course>
  <speed>6.99</speed>
  <fix>3d</fix>
</trkpt>
<trkpt lat="40.074846" lon="-105.2301509">
  <ele>1583.05</ele>
  <time>2026-08-28T17:51:24Z</time>
  <course>181.7</course>
  <speed>6.970867951697263</speed>
  <fix>3d</fix>
</trkpt>
<trkpt lat="40.0748604" lon="-105.2301505">
  <ele>1583.0</ele>
  <time>2026-08-28T17:51:24Z</time>
  <course>180.87</course>
  <speed>6.99</speed>
  <fix>3d</fix>
</trkpt>
<trkpt lat="40.0748397" lon="-105.230151">
  <ele>1583.05</ele>
  <time>2026-08-28T17:51:24Z</time>
  <course>181.68</course>
  <speed>6.980866708367952</speed>
  <fix>3d</fix>
</trkpt>
<trkpt lat="40.0748478" lon="-105.2301507">
  <ele>1583.0</ele>
  <time>2026-08-28T17:51:24Z</time>
  <course>180.83</course>
  <speed>7.01</speed>
  <fix>3d</fix>
</trkpt>
<trkpt lat="40.0748334" lon="-105.2301511">
  <ele>1583.05</ele>
  <time>2026-08-28T17:51:24Z</time>
  <course>181.67</course>
  <speed>6.980866708367952</speed>
  <fix>3d</fix>
</trkpt>
<trkpt lat="40.0748478" lon="-105.2301507">
  <ele>1583.0</ele>
  <time>2026-08-28T17:51:24Z</time>
  <course>180.83</course>
  <speed>7.01</speed>
  <fix>3d</fix>
</trkpt>
<trkpt lat="40.074827" lon="-105.2301512">
  <ele>1583.05</ele>
  <time>2026-08-28T17:51:24Z</time>
  <course>181.65</course>
  <speed>6.9908654685954295</speed>
  <fix>3d</fix>
</trkpt>
<trkpt lat="40.0748353" lon="-105.230151">
  <ele>1583.0</ele>
  <time>2026-08-28T17:51:24Z</time>
  <course>180.78</course>
  <speed>7.02</speed>
  <fix>3d</fix>
</trkpt>
<trkpt lat="40.0748207" lon="-105.2301514">
  <ele>1583.05</ele>
  <time>2026-08-28T17:51:24Z</time>
  <course>181.65</course>
  <speed>6.9908654685954295</speed>
  <fix>3d</fix>
</trkpt>
<trkpt lat="40.0748353" lon="-105.230151">
  <ele>1583.0</ele>
  <time>2026-08-28T17:51:24Z</time>
  <course>180.78</course>
  <speed>7.02</speed>
  <fix>3d</fix>
</trkpt>
<trkpt lat="40.0748143" lon="-105.2301515">
  <ele>1583.05</ele>
  <time>2026-08-28T17:51:24Z</time>
  <course>181.56</course>
  <speed>7.010713230478052</speed>
  <fix>3d</fix>
</trkpt>
<trkpt lat="40.0748226" lon="-105.2301512">
  <ele>1583.0</ele>
  <time>2026-08-28T17:51:24Z</time>
  <course>180.71</course>
  <speed>7.03</speed>
  <fix>3d</fix>
</trkpt>
<trkpt lat="40.074808" lon="-105.2301516">
  <ele>1583.04</ele>
  <time>2026-08-28T17:51:24Z</time>
  <course>181.46</course>
  <speed>7.030455177298267</speed>
  <fix>3d</fix>
</trkpt>
<trkpt lat="40.0748226" lon="-105.2301512">
  <ele>1583.0</ele>
  <time>2026-08-28T17:51:24Z</time>
  <course>180.71</course>
  <speed>7.03</speed>
  <fix>3d</fix>
</trkpt>
<trkpt lat="40.0748016" lon="-105.2301516">
  <ele>1583.04</ele>
  <time>2026-08-28T17:51:24Z</time>
  <course>181.39</course>
  <speed>7.080451962975245</speed>
  <fix>3d</fix>
</trkpt>
<trkpt lat="40.0748226" lon="-105.2301512">
  <ele>1583.0</ele>
  <time>2026-08-28T17:51:24Z</time>
  <course>180.71</course>
  <speed>7.03</speed>
  <fix>3d</fix>
</trkpt>
<trkpt lat="40.0747952" lon="-105.2301517">
  <ele>1583.04</ele>
  <time>2026-08-28T17:51:24Z</time>
  <course>181.33</course>
  <speed>7.130343610233662</speed>
  <fix>3d</fix>
</trkpt>
<trkpt lat="40.0748099" lon="-105.2301513">
  <ele>1583.0</ele>
  <time>2026-08-28T17:51:24Z</time>
  <course>180.58</course>
  <speed>7.07</speed>
  <fix>3d</fix>
</trkpt>
<trkpt lat="40.0747888" lon="-105.2301518">
  <ele>1583.04</ele>
  <time>2026-08-28T17:51:24Z</time>
  <course>181.28</course>
  <speed>7.200249995659873</speed>
  <fix>3d</fix>
</trkpt>
<trkpt lat="40.0748099" lon="-105.2301513">
  <ele>1583.0</ele>
  <time>2026-08-28T17:51:24Z</time>
  <course>180.58</course>
  <speed>7.07</speed>
  <fix>3d</fix>
</trkpt>
<trkpt lat="40.0747823" lon="-105.2301518">
  <ele>1583.04</ele>
  <time>2026-08-28T17:51:24Z</time>
  <course>181.28</course>
  <speed>7.270336993565016</speed>
  <fix>3d</fix>
</trkpt>
<trkpt lat="40.0747971" lon="-105.2301515">
  <ele>1583.0</ele>
  <time>2026-08-28T17:51:24Z</time>
  <course>180.43</course>
  <speed>7.17</speed>
  <fix>3d</fix>
</trkpt>
<trkpt lat="40.0747757" lon="-105.2301519">
  <ele>1583.04</ele>
  <time>2026-08-28T17:51:24Z</time>
  <course>181.24</course>
  <speed>7.360244561154201</speed>
  <fix>3d</fix>
</trkpt>
<trkpt lat="40.0747971" lon="-105.2301515">
  <ele>1583.0</ele>
  <time>2026-08-28T17:51:24Z</time>
  <course>180.43</course>
  <speed>7.17</speed>
  <fix>3d</fix>
</trkpt>
<trkpt lat="40.0747691" lon="-105.2301519">
  <ele>1583.04</ele>
  <time>2026-08-28T17:51:24Z</time>
  <course>181.2</course>
  <speed>7.460241282961295</speed>
  <fix>3d</fix>
</trkpt>
<trkpt lat="40.0747841" lon="-105.2301516">
  <ele>1583.0</ele>
  <time>2026-08-28T17:51:24Z</time>
  <course>180.35</course>
  <speed>7.31</speed>
  <fix>3d</fix>
</trkpt>
<trkpt lat="40.0747623" lon="-105.230152">
  <ele>1583.05</ele>
  <time>2026-08-28T17:51:24Z</time>
  <course>181.21</course>
  <speed>7.560238091488918</speed>
  <fix>3d</fix>
</trkpt>
<trkpt lat="40.0747708" lon="-105.2301517">
  <ele>1583.0</ele>
  <time>2026-08-28T17:51:24Z</time>
  <course>180.31</course>
  <speed>7.5</speed>
  <fix>3d</fix>
</trkpt>
<trkpt lat="40.0747554" lon="-105.230152">
  <ele>1583.05</ele>
  <time>2026-08-28T17:51:24Z</time>
  <course>181.17</course>
  <speed>7.680234371423831</speed>
  <fix>3d</fix>
</trkpt>
<trkpt lat="40.0747708" lon="-105.2301517">
  <ele>1583.0</ele>
  <time>2026-08-28T17:51:24Z</time>
  <course>180.31</course>
  <speed>7.5</speed>
  <fix>3d</fix>
</trkpt>
<trkpt lat="40.0747484" lon="-105.2301521">
  <ele>1583.05</ele>
  <time>2026-08-28T17:51:24Z</time>
  <course>181.17</course>
  <speed>7.800230765817124</speed>
  <fix>3d</fix>
</trkpt>
<trkpt lat="40.0747571" lon="-105.2301518">
  <ele>1583.0</ele>
  <time>2026-08-28T17:51:24Z</time>
  <course>180.27</course>
  <speed>7.72</speed>
  <fix>3d</fix>
</trkpt>
<trkpt lat="40.0747413" lon="-105.2301521">
  <ele>1583.06</ele>
  <time>2026-08-28T17:51:24Z</time>
  <course>181.17</course>
  <speed>7.920227269466451</speed>
  <fix>3d</fix>
</trkpt>
<trkpt lat="40.0747571" lon="-105.2301518">
  <ele>1583.0</ele>
  <time>2026-08-28T17:51:24Z</time>
  <course>180.27</course>
  <speed>7.72</speed>
  <fix>3d</fix>
</trkpt>
<trkpt lat="40.0747341" lon="-105.2301522">
  <ele>1583.06</ele>
  <time>2026-08-28T17:51:24Z</time>
  <course>181.15</course>
  <speed>8.050223599379088</speed>
  <fix>3d</fix>
</trkpt>
<trkpt lat="40.074743" lon="-105.2301519">
  <ele>1583.0</ele>
  <time>2026-08-28T17:51:24Z</time>
  <course>180.24</course>
  <speed>7.96</speed>
  <fix>3d</fix>
</trkpt>
<trkpt lat="40.0747267" lon="-105.2301522">
  <ele>1583.06</ele>
  <time>2026-08-28T17:51:24Z</time>
  <course>181.15</course>
  <speed>8.190299139836103</speed>
  <fix>3d</fix>
</trkpt>
<trkpt lat="40.074743" lon="-105.2301519">
  <ele>1583.0</ele>
  <time>2026-08-28T17:51:24Z</time>
  <course>180.24</course>
  <speed>7.96</speed>
  <fix>3d</fix>
</trkpt>
<trkpt lat="40.0747192" lon="-105.2301523">
  <ele>1583.06</ele>
  <time>2026-08-28T17:51:24Z</time>
  <course>181.15</course>
  <speed>8.320294465942897</speed>
  <fix>3d</fix>
</trkpt>
<trkpt lat="40.0747285" lon="-105.230152">
  <ele>1583.0</ele>
  <time>2026-08-28T17:51:24Z</time>
  <course>180.23</course>
  <speed>8.21</speed>
  <fix>3d</fix>
</trkpt>
<trkpt lat="40.0747115" lon="-105.2301523">
  <ele>1583.06</ele>
  <time>2026-08-28T17:51:24Z</time>
  <course>181.15</course>
  <speed>8.460289593152234</speed>
  <fix>3d</fix>
</trkpt>
<trkpt lat="40.0747285" lon="-105.230152">
  <ele>1583.0</ele>
  <time>2026-08-28T17:51:24Z</time>
  <course>180.23</course>
  <speed>8.21</speed>
  <fix>3d</fix>
</trkpt>
<trkpt lat="40.0747037" lon="-105.2301524">
  <ele>1583.06</ele>
  <time>2026-08-28T17:51:24Z</time>
  <course>181.15</course>
  <speed>8.590285210631833</speed>
  <fix>3d</fix>
</trkpt>
<trkpt lat="40.0747135" lon="-105.2301521">
  <ele>1583.0</ele>
  <time>2026-08-28T17:51:24Z</time>
  <course>180.23</course>
  <speed>8.47</speed>
  <fix>3d</fix>
</trkpt>
<trkpt lat="40.0746958" lon="-105.2301524">
  <ele>1583.06</ele>
  <time>2026-08-28T17:51:24Z</time>
  <course>181.15</course>
  <speed>8.7202809587765</speed>
  <fix>3d</fix>
</trkpt>
<trkpt lat="40.0747135" lon="-105.2301521">
  <ele>1583.0</ele>
  <time>2026-08-28T17:51:24Z</time>
  <course>180.23</course>
  <speed>8.47</speed>
  <fix>3d</fix>
</trkpt>
<trkpt lat="40.0746879" lon="-105.2301525">
  <ele>1583.06</ele>
  <time>2026-08-28T17:51:24Z</time>
  <course>181.15</course>
  <speed>8.85036157453468</speed>
  <fix>3d</fix>
</trkpt>
<trkpt lat="40.0746981" lon="-105.2301521">
  <ele>1583.0</ele>
  <time>2026-08-28T17:51:24Z</time>
  <course>180.23</course>
  <speed>8.72</speed>
  <fix>3d</fix>
</trkpt>
<trkpt lat="40.0746797" lon="-105.2301526">
  <ele>1583.07</ele>
  <time>2026-08-28T17:51:24Z</time>
  <course>181.14</course>
  <speed>8.980356340368683</speed>
  <fix>3d</fix>
</trkpt>
<trkpt lat="40.0746981" lon="-105.2301521">
  <ele>1583.0</ele>
  <time>2026-08-28T17:51:24Z</time>
  <course>180.23</course>
  <speed>8.72</speed>
  <fix>3d</fix>
</trkpt>
<trkpt lat="40.0746716" lon="-105.2301526">
  <ele>1583.07</ele>
  <time>2026-08-28T17:51:24Z</time>
  <course>181.14</course>
  <speed>9.100351641557594</speed>
  <fix>3d</fix>
</trkpt>
<trkpt lat="40.0746822" lon="-105.2301522">
  <ele>1583.0</ele>
  <time>2026-08-28T17:51:24Z</time>
  <course>180.23</course>
  <speed>8.97</speed>
  <fix>3d</fix>
</trkpt>
<trkpt lat="40.0746632" lon="-105.2301527">
  <ele>1583.07</ele>
  <time>2026-08-28T17:51:24Z</time>
  <course>181.14</course>
  <speed>9.23034668904695</speed>
  <fix>3d</fix>
</trkpt>
<trkpt lat="40.0746822" lon="-105.2301522">
  <ele>1583.0</ele>
  <time>2026-08-28T17:51:24Z</time>
  <course>180.23</course>
  <speed>8.97</speed>
  <fix>3d</fix>
</trkpt>
<trkpt lat="40.0746548" lon="-105.2301527">
  <ele>1583.07</ele>
  <time>2026-08-28T17:51:24Z</time>
  <course>181.13</course>
  <speed>9.350342239725773</speed>
  <fix>3d</fix>
</trkpt>
<trkpt lat="40.0746822" lon="-105.2301522">
  <ele>1583.0</ele>
  <time>2026-08-28T17:51:24Z</time>
  <course>180.23</course>
  <speed>8.97</speed>
  <fix>3d</fix>
</trkpt>
<trkpt lat="40.0746464" lon="-105.2301528">
  <ele>1583.07</ele>
  <time>2026-08-28T17:51:24Z</time>
  <course>181.13</course>
  <speed>9.460338260337206</speed>
  <fix>3d</fix>
</trkpt>
<trkpt lat="40.0746658" lon="-105.2301523">
  <ele>1583.0</ele>
  <time>2026-08-28T17:51:24Z</time>
  <course>180.23</course>
  <speed>9.22</speed>
  <fix>3d</fix>
</trkpt>
<trkpt lat="40.0746378" lon="-105.2301529">
  <ele>1583.08</ele>
  <time>2026-08-28T17:51:24Z</time>
  <course>181.13</course>
  <speed>9.570334372423986</speed>
  <fix>3d</fix>
</trkpt>
<trkpt lat="40.0746658" lon="-105.2301523">
  <ele>1583.0</ele>
  <time>2026-08-28T17:51:24Z</time>
  <course>180.23</course>
  <speed>9.22</speed>
  <fix>3d</fix>
</trkpt>
<trkpt lat="40.0746292" lon="-105.2301529">
  <ele>1583.08</ele>
  <time>2026-08-28T17:51:24Z</time>
  <course>181.12</course>
  <speed>9.680418379388362</speed>
  <fix>3d</fix>
</trkpt>
<trkpt lat="40.074649" lon="-105.2301524">
  <ele>1583.0</ele>
  <time>2026-08-28T17:51:24Z</time>
  <course>180.23</course>
  <speed>9.45</speed>
  <fix>3d</fix>
</trkpt>
<trkpt lat="40.0746205" lon="-105.230153">
  <ele>1583.08</ele>
  <time>2026-08-28T17:51:24Z</time>
  <course>181.12</course>
  <speed>9.790413678696115</speed>
  <fix>3d</fix>
</trkpt>
<trkpt lat="40.074649" lon="-105.2301524">
  <ele>1583.0</ele>
  <time>2026-08-28T17:51:24Z</time>
  <course>180.23</course>
  <speed>9.45</speed>
  <fix>3d</fix>
</trkpt>
<trkpt lat="40.0746117" lon="-105.230153">
  <ele>1583.08</ele>
  <time>2026-08-28T17:51:24Z</time>
  <course>181.11</course>
  <speed>9.890409496072445</speed>
  <fix>3d</fix>
</trkpt>
<trkpt lat="40.0746319" lon="-105.2301525">
  <ele>1583.0</ele>
  <time>2026-08-28T17:51:24Z</time>
  <course>180.23</course>
  <speed>9.67</speed>
  <fix>3d</fix>
</trkpt>
<trkpt lat="40.0746029" lon="-105.2301531">
  <ele>1583.09</ele>
  <time>2026-08-28T17:51:24Z</time>
  <course>181.1</course>
  <speed>10.000404991799082</speed>
  <fix>3d</fix>
</trkpt>
<trkpt lat="40.0746319" lon="-105.2301525">
  <ele>1583.0</ele>
  <time>2026-08-28T17:51:24Z</time>
  <course>180.23</course>
  <speed>9.67</speed>
  <fix>3d</fix>
</trkpt>
<trkpt lat="40.0745938" lon="-105.2301531">
  <ele>1583.09</ele>
  <time>2026-08-28T17:51:24Z</time>
  <course>181.1</course>
  <speed>10.100400982139274</speed>
  <fix>3d</fix>
</trkpt>
<trkpt lat="40.0746142" lon="-105.2301526">
  <ele>1583.0</ele>
  <time>2026-08-28T17:51:24Z</time>
  <course>180.23</course>
  <speed>9.89</speed>
  <fix>3d</fix>
</trkpt>
<trkpt lat="40.0745847" lon="-105.2301532">
  <ele>1583.09</ele>
  <time>2026-08-28T17:51:24Z</time>
  <course>181.09</course>
  <speed>10.20039705109561</speed>
  <fix>3d</fix>
</trkpt>
<trkpt lat="40.0745962" lon="-105.2301527">
  <ele>1583.0</ele>
  <time>2026-08-28T17:51:24Z</time>
  <course>180.23</course>
  <speed>10.1</speed>
  <fix>3d</fix>
</trkpt>
<trkpt lat="40.0745755" lon="-105.2301532">
  <ele>1583.1</ele>
  <time>2026-08-28T17:51:24Z</time>
  <course>181.09</course>
  <speed>10.300393196378478</speed>
  <fix>3d</fix>
</trkpt>
<trkpt lat="40.0745962" lon="-105.2301527">
  <ele>1583.0</ele>
  <time>2026-08-28T17:51:24Z</time>
  <course>180.23</course>
  <speed>10.1</speed>
  <fix>3d</fix>
</trkpt>
<trkpt lat="40.0745662" lon="-105.2301533">
  <ele>1583.1</ele>
  <time>2026-08-28T17:51:24Z</time>
  <course>181.08</course>
  <speed>10.410389041721736</speed>
  <fix>3d</fix>
</trkpt>
<trkpt lat="40.0745779" lon="-105.2301528">
  <ele>1583.0</ele>
  <time>2026-08-28T17:51:24Z</time>
  <course>180.23</course>
  <speed>10.31</speed>
  <fix>3d</fix>
</trkpt>
<trkpt lat="40.0745567" lon="-105.2301533">
  <ele>1583.1</ele>
  <time>2026-08-28T17:51:24Z</time>
  <course>181.07</course>
  <speed>10.510385340224211</speed>
  <fix>3d</fix>
</trkpt>
<trkpt lat="40.0745779" lon="-105.2301528">
  <ele>1583.0</ele>
  <time>2026-08-28T17:51:24Z</time>
  <course>180.23</course>
  <speed>10.31</speed>
  <fix>3d</fix>
</trkpt>
<trkpt lat="40.0745472" lon="-105.2301534">
  <ele>1583.1</ele>
  <time>2026-08-28T17:51:24Z</time>
  <course>181.06</course>
  <speed>10.610381708496636</speed>
  <fix>3d</fix>
</trkpt>
<trkpt lat="40.0745592" lon="-105.2301529">
  <ele>1583.0</ele>
  <time>2026-08-28T17:51:24Z</time>
  <course>180.23</course>
  <speed>10.51</speed>
  <fix>3d</fix>
</trkpt>
<trkpt lat="40.0745375" lon="-105.2301534">
  <ele>1583.1</ele>
  <time>2026-08-28T17:51:24Z</time>
  <course>181.05</course>
  <speed>10.720377791850435</speed>
  <fix>3d</fix>
</trkpt>
<trkpt lat="40.0745592" lon="-105.2301529">
  <ele>1583.0</ele>
  <time>2026-08-28T17:51:24Z</time>
  <course>180.23</course>
  <speed>10.51</speed>
  <fix>3d</fix>
</trkpt>
<trkpt lat="40.0745277" lon="-105.2301535">
  <ele>1583.1</ele>
  <time>2026-08-28T17:51:24Z</time>
  <course>181.05</course>
  <speed>10.820374300365028</speed>
  <fix>3d</fix>
</trkpt>
<trkpt lat="40.0745402" lon="-105.230153">
  <ele>1583.0</ele>
  <time>2026-08-28T17:51:24Z</time>
  <course>180.23</course>
  <speed>10.71</speed>
  <fix>3d</fix>
</trkpt>
<trkpt lat="40.0745178" lon="-105.2301535">
  <ele>1583.1</ele>
  <time>2026-08-28T17:51:24Z</time>
  <course>181.04</course>
  <speed>10.920370872822955</speed>
  <fix>3d</fix>
</trkpt>
<trkpt lat="40.0745402" lon="-105.230153">
  <ele>1583.0</ele>
  <time>2026-08-28T17:51:24Z</time>
  <course>180.23</course>
  <speed>10.71</speed>
  <fix>3d</fix>
</trkpt>
<trkpt lat="40.0745079" lon="-105.2301536">
  <ele>1583.1</ele>
  <time>2026-08-28T17:51:24Z</time>
  <course>181.03</course>
  <speed>11.020367507483586</speed>
  <fix>3d</fix>
</trkpt>
<trkpt lat="40.0745208" lon="-105.2301531">
  <ele>1583.0</ele>
  <time>2026-08-28T17:51:24Z</time>
  <course>180.23</course>
  <speed>10.9</speed>
  <fix>3d</fix>
</trkpt>
<trkpt lat="40.0744978" lon="-105.2301536">
  <ele>1583.11</ele>
  <time>2026-08-28T17:51:24Z</time>
  <course>181.03</course>
  <speed>11.120364202668904</speed>
  <fix>3d</fix>
</trkpt>
<trkpt lat="40.0745208" lon="-105.2301531">
  <ele>1583.0</ele>
  <time>2026-08-28T17:51:24Z</time>
  <course>180.23</course>
  <speed>10.9</speed>
  <fix>3d</fix>
</trkpt>
<trkpt lat="40.0744877" lon="-105.2301537">
  <ele>1583.11</ele>
  <time>2026-08-28T17:51:24Z</time>
  <course>181.02</course>
  <speed>11.210361278745658</speed>
  <fix>3d</fix>
</trkpt>
<trkpt lat="40.074501" lon="-105.2301532">
  <ele>1583.0</ele>
  <time>2026-08-28T17:51:24Z</time>
  <course>180.23</course>
  <speed>11.09</speed>
  <fix>3d</fix>
</trkpt>
<trkpt lat="40.0744775" lon="-105.2301538">
  <ele>1583.11</ele>
  <time>2026-08-28T17:51:24Z</time>
  <course>181.01</course>
  <speed>11.310358084517041</speed>
  <fix>3d</fix>
</trkpt>
<trkpt lat="40.074501" lon="-105.2301532">
  <ele>1583.0</ele>
  <time>2026-08-28T17:51:24Z</time>
  <course>180.23</course>
  <speed>11.09</speed>
  <fix>3d</fix>
</trkpt>
<trkpt lat="40.0744673" lon="-105.2301538">
  <ele>1583.11</ele>
  <time>2026-08-28T17:51:24Z</time>
  <course>181.01</course>
  <speed>11.400355257622458</speed>
  <fix>3d</fix>
</trkpt>
<trkpt lat="40.0744809" lon="-105.2301533">
  <ele>1583.0</ele>
  <time>2026-08-28T17:51:24Z</time>
  <course>180.23</course>
  <speed>11.28</speed>
  <fix>3d</fix>
</trkpt>
<trkpt lat="40.0744569" lon="-105.2301539">
  <ele>1583.11</ele>
  <time>2026-08-28T17:51:24Z</time>
  <course>181.0</course>
  <speed>11.500352168520754</speed>
  <fix>3d</fix>
</trkpt>
<trkpt lat="40.0744809" lon="-105.2301533">
  <ele>1583.0</ele>
  <time>2026-08-28T17:51:24Z</time>
  <course>180.23</course>
  <speed>11.28</speed>
  <fix>3d</fix>
</trkpt>
<trkpt lat="40.0744465" lon="-105.2301539">
  <ele>1583.11</ele>
  <time>2026-08-28T17:51:24Z</time>
  <course>180.99</course>
  <speed>11.600349132677</speed>
  <fix>3d</fix>
</trkpt>
<trkpt lat="40.0744809" lon="-105.2301533">
  <ele>1583.0</ele>
  <time>2026-08-28T17:51:24Z</time>
  <course>180.23</course>
  <speed>11.28</speed>
  <fix>3d</fix>
</trkpt>
<trkpt lat="40.0744361" lon="-105.230154">
  <ele>1583.11</ele>
  <time>2026-08-28T17:51:24Z</time>
  <course>180.99</course>
  <speed>11.690346444823609</speed>
  <fix>3d</fix>
</trkpt>
<trkpt lat="40.0744604" lon="-105.2301534">
  <ele>1583.0</ele>
  <time>2026-08-28T17:51:24Z</time>
  <course>180.23</course>
  <speed>11.46</speed>
  <fix>3d</fix>
</trkpt>
<trkpt lat="40.0744256" lon="-105.230154">
  <ele>1583.11</ele>
  <time>2026-08-28T17:51:24Z</time>
  <course>180.98</course>
  <speed>11.780343798039173</speed>
  <fix>3d</fix>
</trkpt>
<trkpt lat="40.0744604" lon="-105.2301534">
  <ele>1583.0</ele>
  <time>2026-08-28T17:51:24Z</time>
  <course>180.23</course>
  <speed>11.46</speed>
  <fix>3d</fix>
</trkpt>
<trkpt lat="40.074415" lon="-105.2301541">
  <ele>1583.11</ele>
  <time>2026-08-28T17:51:24Z</time>
  <course>180.98</course>
  <speed>11.870269584133293</speed>
  <fix>3d</fix>
</trkpt>
<trkpt lat="40.0744396" lon="-105.2301536">
  <ele>1583.0</ele>
  <time>2026-08-28T17:51:24Z</time>
  <course>180.23</course>
  <speed>11.65</speed>
  <fix>3d</fix>
</trkpt>
<trkpt lat="40.0744044" lon="-105.2301541">
  <ele>1583.1</ele>
  <time>2026-08-28T17:51:24Z</time>
  <course>180.98</course>
  <speed>11.960338623968806</speed>
  <fix>3d</fix>
</trkpt>
<trkpt lat="40.0744396" lon="-105.2301536">
  <ele>1583.0</ele>
  <time>2026-08-28T17:51:24Z</time>
  <course>180.23</course>
  <speed>11.65</speed>
  <fix>3d</fix>
</trkpt>
<trkpt lat="40.0743937" lon="-105.2301542">
  <ele>1583.1</ele>
  <time>2026-08-28T17:51:24Z</time>
  <course>180.97</course>
  <speed>12.050265557239806</speed>
  <fix>3d</fix>
</trkpt>
<trkpt lat="40.0744185" lon="-105.2301537">
  <ele>1583.0</ele>
  <time>2026-08-28T17:51:24Z</time>
  <course>180.23</course>
  <speed>11.84</speed>
  <fix>3d</fix>
</trkpt>
<trkpt lat="40.0743829" lon="-105.2301542">
  <ele>1583.1</ele>
  <time>2026-08-28T17:51:24Z</time>
  <course>180.97</course>
  <speed>12.140263588571708</speed>
  <fix>3d</fix>
</trkpt>
<trkpt lat="40.0743971" lon="-105.2301538">
  <ele>1583.0</ele>
  <time>2026-08-28T17:51:24Z</time>
  <course>180.23</course>
  <speed>12.03</speed>
  <fix>3d</fix>
</trkpt>
<trkpt lat="40.0743719" lon="-105.2301543">
  <ele>1583.1</ele>
  <time>2026-08-28T17:51:24Z</time>
  <course>180.96</course>
  <speed>12.210262077449443</speed>
  <fix>3d</fix>
</trkpt>
<trkpt lat="40.0743971" lon="-105.2301538">
  <ele>1583.0</ele>
  <time>2026-08-28T17:51:24Z</time>
  <course>180.23</course>
  <speed>12.03</speed>
  <fix>3d</fix>
</trkpt>
<trkpt lat="40.0743609" lon="-105.2301543">
  <ele>1583.1</ele>
  <time>2026-08-28T17:51:24Z</time>
  <course>180.96</course>
  <speed>12.270260795924427</speed>
  <fix>3d</fix>
</trkpt>
<trkpt lat="40.0743753" lon="-105.2301539">
  <ele>1583.0</ele>
  <time>2026-08-28T17:51:24Z</time>
  <course>180.23</course>
  <speed>12.19</speed>
  <fix>3d</fix>
</trkpt>
<trkpt lat="40.0743499" lon="-105.2301544">
  <ele>1583.1</ele>
  <time>2026-08-28T17:51:24Z</time>
  <course>180.95</course>
  <speed>12.32025973752177</speed>
  <fix>3d</fix>
</trkpt>
<trkpt lat="40.0743753" lon="-105.2301539">
  <ele>1583.0</ele>
  <time>2026-08-28T17:51:24Z</time>
  <course>180.23</course>
  <speed>12.19</speed>
  <fix>3d</fix>
</trkpt>
<trkpt lat="40.0743388" lon="-105.2301545">
  <ele>1583.1</ele>
  <time>2026-08-28T17:51:24Z</time>
  <course>180.95</course>
  <speed>12.350259106593676</speed>
  <fix>3d</fix>
</trkpt>
<trkpt lat="40.0743533" lon="-105.230154">
  <ele>1583.0</ele>
  <time>2026-08-28T17:51:24Z</time>
  <course>180.23</course>
  <speed>12.3</speed>
  <fix>3d</fix>
</trkpt>
<trkpt lat="40.0743276" lon="-105.2301545">
  <ele>1583.1</ele>
  <time>2026-08-28T17:51:24Z</time>
  <course>180.94</course>
  <speed>12.380258478723295</speed>
  <fix>3d</fix>
</trkpt>
<trkpt lat="40.0743533" lon="-105.230154">
  <ele>1583.0</ele>
  <time>2026-08-28T17:51:24Z</time>
  <course>180.23</course>
  <speed>12.3</speed>
  <fix>3d</fix>
</trkpt>
<trkpt lat="40.0743165" lon="-105.2301546">
  <ele>1583.1</ele>
  <time>2026-08-28T17:51:24Z</time>
  <course>180.94</course>
  <speed>12.39025827010882</speed>
  <fix>3d</fix>
</trkpt>
<trkpt lat="40.0743312" lon="-105.2301541">
  <ele>1583.0</ele>
  <time>2026-08-28T17:51:24Z</time>
  <course>180.23</course>
  <speed>12.35</speed>
  <fix>3d</fix>
</trkpt>
<trkpt lat="40.0743052" lon="-105.2301546">
  <ele>1583.1</ele>
  <time>2026-08-28T17:51:24Z</time>
  <course>180.93</course>
  <speed>12.40025806183081</speed>
  <fix>3d</fix>
</trkpt>
<trkpt lat="40.0743312" lon="-105.2301541">
  <ele>1583.0</ele>
  <time>2026-08-28T17:51:24Z</time>
  <course>180.23</course>
  <speed>12.35</speed>
  <fix>3d</fix>
</trkpt>
<trkpt lat="40.074294" lon="-105.2301547">
  <ele>1583.1</ele>
  <time>2026-08-28T17:51:24Z</time>
  <course>180.93</course>
  <speed>12.39025827010882</speed>
  <fix>3d</fix>
</trkpt>
<trkpt lat="40.074309" lon="-105.2301543">
  <ele>1583.0</ele>
  <time>2026-08-28T17:51:24Z</time>
  <course>180.23</course>
  <speed>12.37</speed>
  <fix>3d</fix>
</trkpt>
<trkpt lat="40.0742828" lon="-105.2301547">
  <ele>1583.11</ele>
  <time>2026-08-28T17:51:24Z</time>
  <course>180.93</course>
  <speed>12.380197898256716</speed>
  <fix>3d</fix>
</trkpt>
<trkpt lat="40.074309" lon="-105.2301543">
  <ele>1583.0</ele>
  <time>2026-08-28T17:51:24Z</time>
  <course>180.23</course>
  <speed>12.37</speed>
  <fix>3d</fix>
</trkpt>
<trkpt lat="40.0742717" lon="-105.2301548">
  <ele>1583.11</ele>
  <time>2026-08-28T17:51:24Z</time>
  <course>180.93</course>
  <speed>12.3601982184753</speed>
  <fix>3d</fix>
</trkpt>
<trkpt lat="40.0742867" lon="-105.2301544">
  <ele>1583.0</ele>
  <time>2026-08-28T17:51:24Z</time>
  <course>180.23</course>
  <speed>12.35</speed>
  <fix>3d</fix>
</trkpt>
<trkpt lat="40.0742605" lon="-105.2301548">
  <ele>1583.11</ele>
  <time>2026-08-28T17:51:24Z</time>
  <course>180.93</course>
  <speed>12.340198539731846</speed>
  <fix>3d</fix>
</trkpt>
<trkpt lat="40.0742867" lon="-105.2301544">
  <ele>1583.0</ele>
  <time>2026-08-28T17:51:24Z</time>
  <course>180.23</course>
  <speed>12.35</speed>
  <fix>3d</fix>
</trkpt>
<trkpt lat="40.0742494" lon="-105.2301549">
  <ele>1583.11</ele>
  <time>2026-08-28T17:51:24Z</time>
  <course>180.92</course>
  <speed>12.310199023573908</speed>
  <fix>3d</fix>
</trkpt>
<trkpt lat="40.0742646" lon="-105.2301545">
  <ele>1583.0</ele>
  <time>2026-08-28T17:51:24Z</time>
  <course>180.23</course>
  <speed>12.31</speed>
  <fix>3d</fix>
</trkpt>
<trkpt lat="40.0742383" lon="-105.2301549">
  <ele>1583.11</ele>
  <time>2026-08-28T17:51:24Z</time>
  <course>180.92</course>
  <speed>12.290199347447542</speed>
  <fix>3d</fix>
</trkpt>
<trkpt lat="40.0742646" lon="-105.2301545">
  <ele>1583.0</ele>
  <time>2026-08-28T17:51:24Z</time>
  <course>180.23</course>
  <speed>12.31</speed>
  <fix>3d</fix>
</trkpt>
<trkpt lat="40.0742273" lon="-105.230155">
  <ele>1583.11</ele>
  <time>2026-08-28T17:51:24Z</time>
  <course>180.92</course>
  <speed>12.250199998367373</speed>
  <fix>3d</fix>
</trkpt>
<trkpt lat="40.0742646" lon="-105.2301545">
  <ele>1583.0</ele>
  <time>2026-08-28T17:51:24Z</time>
  <course>180.23</course>
  <speed>12.31</speed>
  <fix>3d</fix>
</trkpt>
<trkpt lat="40.0742164" lon="-105.230155">
  <ele>1583.11</ele>
  <time>2026-08-28T17:51:24Z</time>
  <course>180.92</course>
  <speed>12.22014729862124</speed>
  <fix>3d</fix>
</trkpt>
<trkpt lat="40.0742425" lon="-105.2301546">
  <ele>1583.0</ele>
  <time>2026-08-28T17:51:24Z</time>
  <course>180.23</course>
  <speed>12.26</speed>
  <fix>3d</fix>
</trkpt>
<trkpt lat="40.0742055" lon="-105.230155">
  <ele>1583.11</ele>
  <time>2026-08-28T17:51:24Z</time>
  <course>180.92</course>
  <speed>12.180147782354695</speed>
  <fix>3d</fix>
</trkpt>
<trkpt lat="40.0742425" lon="-105.2301546">
  <ele>1583.0</ele>
  <time>2026-08-28T17:51:24Z</time>
  <course>180.23</course>
  <speed>12.26</speed>
  <fix>3d</fix>
</trkpt>
<trkpt lat="40.0741947" lon="-105.2301551">
  <ele>1583.11</ele>
  <time>2026-08-28T17:51:24Z</time>
  <course>180.93</course>
  <speed>12.140148269275791</speed>
  <fix>3d</fix>
</trkpt>
<trkpt lat="40.0742204" lon="-105.2301547">
  <ele>1583.0</ele>
  <time>2026-08-28T17:51:24Z</time>
  <course>180.23</course>
  <speed>12.2</speed>
  <fix>3d</fix>
</trkpt>
<trkpt lat="40.0741839" lon="-105.2301551">
  <ele>1583.11</ele>
  <time>2026-08-28T17:51:24Z</time>
  <course>180.93</course>
  <speed>12.110148636577506</speed>
  <fix>3d</fix>
</trkpt>
<trkpt lat="40.0742204" lon="-105.2301547">
  <ele>1583.0</ele>
  <time>2026-08-28T17:51:24Z</time>
  <course>180.23</course>
  <speed>12.2</speed>
  <fix>3d</fix>
</trkpt>
<trkpt lat="40.0741732" lon="-105.2301552">
  <ele>1583.11</ele>
  <time>2026-08-28T17:51:24Z</time>
  <course>180.93</course>
  <speed>12.08014900570353</speed>
  <fix>3d</fix>
</trkpt>
<trkpt lat="40.0741985" lon="-105.2301549">
  <ele>1583.0</ele>
  <time>2026-08-28T17:51:24Z</time>
  <course>180.23</course>
  <speed>12.14</speed>
  <fix>3d</fix>
</trkpt>
<trkpt lat="40.0741625" lon="-105.2301552">
  <ele>1583.11</ele>
  <time>2026-08-28T17:51:24Z</time>
  <course>180.93</course>
  <speed>12.050149376667493</speed>
  <fix>3d</fix>
</trkpt>
<trkpt lat="40.0741985" lon="-105.2301549">
  <ele>1583.0</ele>
  <time>2026-08-28T17:51:24Z</time>
  <course>180.23</course>
  <speed>12.14</speed>
  <fix>3d</fix>
</trkpt>
<trkpt lat="40.0741517" lon="-105.2301553">
  <ele>1583.11</ele>
  <time>2026-08-28T17:51:24Z</time>
  <course>180.93</course>
  <speed>12.020149749483158</speed>
  <fix>3d</fix>
</trkpt>
<trkpt lat="40.0741768" lon="-105.230155">
  <ele>1583.0</ele>
  <time>2026-08-28T17:51:24Z</time>
  <course>180.23</course>
  <speed>12.09</speed>
  <fix>3d</fix>
</trkpt>
<trkpt lat="40.074141" lon="-105.2301553">
  <ele>1583.11</ele>
  <time>2026-08-28T17:51:24Z</time>
  <course>180.93</course>
  <speed>12.000104166214557</speed>
  <fix>3d</fix>
</trkpt>
<trkpt lat="40.0741552" lon="-105.2301551">
  <ele>1583.0</ele>
  <time>2026-08-28T17:51:24Z</time>
  <course>180.23</course>
  <speed>12.05</speed>
  <fix>3d</fix>
</trkpt>
<trkpt lat="40.0741303" lon="-105.2301554">
  <ele>1583.12</ele>
  <time>2026-08-28T17:51:24Z</time>
  <course>180.94</course>
  <speed>11.980104340113236</speed>
  <fix>3d</fix>
</trkpt>
<trkpt lat="40.0741552" lon="-105.2301551">
  <ele>1583.0</ele>
  <time>2026-08-28T17:51:24Z</time>
  <course>180.23</course>
  <speed>12.05</speed>
  <fix>3d</fix>
</trkpt>
<trkpt lat="40.0741196" lon="-105.2301554">
  <ele>1583.12</ele>
  <time>2026-08-28T17:51:24Z</time>
  <course>180.94</course>
  <speed>11.970104427280491</speed>
  <fix>3d</fix>
</trkpt>
<trkpt lat="40.0741335" lon="-105.2301552">
  <ele>1583.0</ele>
  <time>2026-08-28T17:51:24Z</time>
  <course>180.23</course>
  <speed>12.01</speed>
  <fix>3d</fix>
</trkpt>
<trkpt lat="40.0741088" lon="-105.2301555">
  <ele>1583.12</ele>
  <time>2026-08-28T17:51:24Z</time>
  <course>180.94</course>
  <speed>11.960104514593509</speed>
  <fix>3d</fix>
</trkpt>
<trkpt lat="40.0741335" lon="-105.2301552">
  <ele>1583.0</ele>
  <time>2026-08-28T17:51:24Z</time>
  <course>180.23</course>
  <speed>12.01</speed>
  <fix>3d</fix>
</trkpt>
<trkpt lat="40.074098" lon="-105.2301555">
  <ele>1583.12</ele>
  <time>2026-08-28T17:51:24Z</time>
  <course>180.94</course>
  <speed>11.950104602052654</speed>
  <fix>3d</fix>
</trkpt>
<trkpt lat="40.074112" lon="-105.2301553">
  <ele>1583.0</ele>
  <time>2026-08-28T17:51:24Z</time>
  <course>180.23</course>
  <speed>11.99</speed>
  <fix>3d</fix>
</trkpt>
<trkpt lat="40.0740872" lon="-105.2301556">
  <ele>1583.12</ele>
  <time>2026-08-28T17:51:24Z</time>
  <course>180.94</course>
  <speed>11.950104602052654</speed>
  <fix>3d</fix>
</trkpt>
<trkpt lat="40.074112" lon="-105.2301553">
  <ele>1583.0</ele>
  <time>2026-08-28T17:51:24Z</time>
  <course>180.23</course>
  <speed>11.99</speed>
  <fix>3d</fix>
</trkpt>
<trkpt lat="40.0740763" lon="-105.2301556">
  <ele>1583.12</ele>
  <time>2026-08-28T17:51:24Z</time>
  <course>180.94</course>
  <speed>11.950104602052654</speed>
  <fix>3d</fix>
</trkpt>
<trkpt lat="40.0740904" lon="-105.2301554">
  <ele>1583.0</ele>
  <time>2026-08-28T17:51:24Z</time>
  <course>180.23</course>
  <speed>11.98</speed>
  <fix>3d</fix>
</trkpt>
<trkpt lat="40.0740655" lon="-105.2301556">
  <ele>1583.13</ele>
  <time>2026-08-28T17:51:24Z</time>
  <course>180.94</course>
  <speed>11.950104602052654</speed>
  <fix>3d</fix>
</trkpt>
<trkpt lat="40.0740904" lon="-105.2301554">
  <ele>1583.0</ele>
  <time>2026-08-28T17:51:24Z</time>
  <course>180.23</course>
  <speed>11.98</speed>
  <fix>3d</fix>
</trkpt>
<trkpt lat="40.0740547" lon="-105.2301557">
  <ele>1583.12</ele>
  <time>2026-08-28T17:51:24Z</time>
  <course>180.95</course>
  <speed>11.950104602052654</speed>
  <fix>3d</fix>
</trkpt>
<trkpt lat="40.0740689" lon="-105.2301555">
  <ele>1583.0</ele>
  <time>2026-08-28T17:51:24Z</time>
  <course>180.23</course>
  <speed>11.97</speed>
  <fix>3d</fix>
</trkpt>
<trkpt lat="40.0740439" lon="-105.2301557">
  <ele>1583.12</ele>
  <time>2026-08-28T17:51:24Z</time>
  <course>180.95</course>
  <speed>11.950104602052654</speed>
  <fix>3d</fix>
</trkpt>
<trkpt lat="40.0740689" lon="-105.2301555">
  <ele>1583.0</ele>
  <time>2026-08-28T17:51:24Z</time>
  <course>180.23</course>
  <speed>11.97</speed>
  <fix>3d</fix>
</trkpt>
<trkpt lat="40.0740331" lon="-105.2301558">
  <ele>1583.12</ele>
  <time>2026-08-28T17:51:24Z</time>
  <course>180.95</course>
  <speed>11.950104602052654</speed>
  <fix>3d</fix>
</trkpt>
<trkpt lat="40.0740474" lon="-105.2301557">
  <ele>1583.0</ele>
  <time>2026-08-28T17:51:24Z</time>
  <course>180.23</course>
  <speed>11.97</speed>
  <fix>3d</fix>
</trkpt>
<trkpt lat="40.0740223" lon="-105.2301558">
  <ele>1583.12</ele>
  <time>2026-08-28T17:51:24Z</time>
  <course>180.95</course>
  <speed>11.950104602052654</speed>
  <fix>3d</fix>
</trkpt>
<trkpt lat="40.0740474" lon="-105.2301557">
  <ele>1583.0</ele>
  <time>2026-08-28T17:51:24Z</time>
  <course>180.23</course>
  <speed>11.97</speed>
  <fix>3d</fix>
</trkpt>
<trkpt lat="40.0740115" lon="-105.2301559">
  <ele>1583.11</ele>
  <time>2026-08-28T17:51:24Z</time>
  <course>180.95</course>
  <speed>11.960104514593509</speed>
  <fix>3d</fix>
</trkpt>
<trkpt lat="40.0740474" lon="-105.2301557">
  <ele>1583.0</ele>
  <time>2026-08-28T17:51:24Z</time>
  <course>180.23</course>
  <speed>11.97</speed>
  <fix>3d</fix>
</trkpt>
<trkpt lat="40.0740008" lon="-105.230156">
  <ele>1583.11</ele>
  <time>2026-08-28T17:51:24Z</time>
  <course>180.95</course>
  <speed>11.950104602052654</speed>
  <fix>3d</fix>
</trkpt>
<trkpt lat="40.0740258" lon="-105.2301558">
  <ele>1583.0</ele>
  <time>2026-08-28T17:51:24Z</time>
  <course>180.23</course>
  <speed>11.97</speed>
  <fix>3d</fix>
</trkpt>
<trkpt lat="40.0739901" lon="-105.230156">
  <ele>1583.1</ele>
  <time>2026-08-28T17:51:24Z</time>
  <course>180.95</course>
  <speed>11.950104602052654</speed>
  <fix>3d</fix>
</trkpt>
<trkpt lat="40.0740258" lon="-105.2301558">
  <ele>1583.0</ele>
  <time>2026-08-28T17:51:24Z</time>
  <course>180.23</course>
  <speed>11.97</speed>
  <fix>3d</fix>
</trkpt>
<trkpt lat="40.0739794" lon="-105.2301561">
  <ele>1583.1</ele>
  <time>2026-08-28T17:51:24Z</time>
  <course>180.96</course>
  <speed>11.950104602052654</speed>
  <fix>3d</fix>
</trkpt>
<trkpt lat="40.0740043" lon="-105.2301559">
  <ele>1583.0</ele>
  <time>2026-08-28T17:51:24Z</time>
  <course>180.23</course>
  <speed>11.97</speed>
  <fix>3d</fix>
</trkpt>
<trkpt lat="40.0739687" lon="-105.2301561">
  <ele>1583.1</ele>
  <time>2026-08-28T17:51:24Z</time>
  <course>180.96</course>
  <speed>11.950104602052654</speed>
  <fix>3d</fix>
</trkpt>
<trkpt lat="40.0740043" lon="-105.2301559">
  <ele>1583.0</ele>
  <time>2026-08-28T17:51:24Z</time>
  <course>180.23</course>
  <speed>11.97</speed>
  <fix>3d</fix>
</trkpt>
<trkpt lat="40.0739581" lon="-105.2301562">
  <ele>1583.1</ele>
  <time>2026-08-28T17:51:24Z</time>
  <course>180.96</course>
  <speed>11.950104602052654</speed>
  <fix>3d</fix>
</trkpt>
<trkpt lat="40.0739828" lon="-105.230156">
  <ele>1583.0</ele>
  <time>2026-08-28T17:51:24Z</time>
  <course>180.23</course>
  <speed>11.98</speed>
  <fix>3d</fix>
</trkpt>
<trkpt lat="40.0739474" lon="-105.2301562">
  <ele>1583.11</ele>
  <time>2026-08-28T17:51:24Z</time>
  <course>180.96</course>
  <speed>11.950104602052654</speed>
  <fix>3d</fix>
</trkpt>
<trkpt lat="40.0739828" lon="-105.230156">
  <ele>1583.0</ele>
  <time>2026-08-28T17:51:24Z</time>
  <course>180.23</course>
  <speed>11.98</speed>
  <fix>3d</fix>
</trkpt>
<trkpt lat="40.0739367" lon="-105.2301563">
  <ele>1583.11</ele>
  <time>2026-08-28T17:51:24Z</time>
  <course>180.96</course>
  <speed>11.950104602052654</speed>
  <fix>3d</fix>
</trkpt>
<trkpt lat="40.0739613" lon="-105.2301561">
  <ele>1583.0</ele>
  <time>2026-08-28T17:51:24Z</time>
  <course>180.23</course>
  <speed>11.99</speed>
  <fix>3d</fix>
</trkpt>
<trkpt lat="40.073926" lon="-105.2301563">
  <ele>1583.11</ele>
  <time>2026-08-28T17:51:24Z</time>
  <course>180.97</course>
  <speed>11.950104602052654</speed>
  <fix>3d</fix>
</trkpt>
<trkpt lat="40.0739398" lon="-105.2301562">
  <ele>1583.0</ele>
  <time>2026-08-28T17:51:24Z</time>
  <course>180.23</course>
  <speed>12.0</speed>
  <fix>3d</fix>
</trkpt>
<trkpt lat="40.0739152" lon="-105.2301564">
  <ele>1583.11</ele>
  <time>2026-08-28T17:51:24Z</time>
  <course>180.97</course>
  <speed>11.960104514593509</speed>
  <fix>3d</fix>
</trkpt>
<trkpt lat="40.0739398" lon="-105.2301562">
  <ele>1583.0</ele>
  <time>2026-08-28T17:51:24Z</time>
  <course>180.23</course>
  <speed>12.0</speed>
  <fix>3d</fix>
</trkpt>
<trkpt lat="40.0739046" lon="-105.2301565">
  <ele>1583.11</ele>
  <time>2026-08-28T17:51:24Z</time>
  <course>180.97</course>
  <speed>11.970104427280491</speed>
  <fix>3d</fix>
</trkpt>
<trkpt lat="40.0739181" lon="-105.2301564">
  <ele>1583.0</ele>
  <time>2026-08-28T17:51:24Z</time>
  <course>180.23</course>
  <speed>12.01</speed>
  <fix>3d</fix>
</trkpt>
<trkpt lat="40.0738937" lon="-105.2301565">
  <ele>1583.11</ele>
  <time>2026-08-28T17:51:24Z</time>
  <course>180.97</course>
  <speed>11.980104340113236</speed>
  <fix>3d</fix>
</trkpt>
<trkpt lat="40.0739181" lon="-105.2301564">
  <ele>1583.0</ele>
  <time>2026-08-28T17:51:24Z</time>
  <course>180.23</course>
  <speed>12.01</speed>
  <fix>3d</fix>
</trkpt>
<trkpt lat="40.0738829" lon="-105.2301566">
  <ele>1583.1</ele>
  <time>2026-08-28T17:51:24Z</time>
  <course>180.97</course>
  <speed>11.970104427280491</speed>
  <fix>3d</fix>
</trkpt>
<trkpt lat="40.0738966" lon="-105.2301565">
  <ele>1583.0</ele>
  <time>2026-08-28T17:51:24Z</time>
  <course>180.23</course>
  <speed>12.02</speed>
  <fix>3d</fix>
</trkpt>
<trkpt lat="40.073872" lon="-105.2301566">
  <ele>1583.1</ele>
  <time>2026-08-28T17:51:24Z</time>
  <course>180.97</course>
  <speed>11.950104602052654</speed>
  <fix>3d</fix>
</trkpt>
<trkpt lat="40.0738966" lon="-105.2301565">
  <ele>1583.0</ele>
  <time>2026-08-28T17:51:24Z</time>
  <course>180.23</course>
  <speed>12.02</speed>
  <fix>3d</fix>
</trkpt>
<trkpt lat="40.0738612" lon="-105.2301567">
  <ele>1583.1</ele>
  <time>2026-08-28T17:51:24Z</time>
  <course>180.97</course>
  <speed>11.910104953357884</speed>
  <fix>3d</fix>
</trkpt>
<trkpt lat="40.073875" lon="-105.2301566">
  <ele>1583.0</ele>
  <time>2026-08-28T17:51:24Z</time>
  <course>180.23</course>
  <speed>11.98</speed>
  <fix>3d</fix>
</trkpt>
<trkpt lat="40.0738503" lon="-105.2301568">
  <ele>1583.1</ele>
  <time>2026-08-28T17:51:24Z</time>
  <course>180.97</course>
  <speed>11.860105395821742</speed>
  <fix>3d</fix>
</trkpt>
<trkpt lat="40.073875" lon="-105.2301566">
  <ele>1583.0</ele>
  <time>2026-08-28T17:51:24Z</time>
  <course>180.23</course>
  <speed>11.98</speed>
  <fix>3d</fix>
</trkpt>
<trkpt lat="40.0738396" lon="-105.2301568">
  <ele>1583.09</ele>
  <time>2026-08-28T17:51:24Z</time>
  <course>180.98</course>
  <speed>11.790106021575887</speed>
  <fix>3d</fix>
</trkpt>
<trkpt lat="40.0738535" lon="-105.2301567">
  <ele>1583.0</ele>
  <time>2026-08-28T17:51:24Z</time>
  <course>180.23</course>
  <speed>11.88</speed>
  <fix>3d</fix>
</trkpt>
<trkpt lat="40.073829" lon="-105.2301569">
  <ele>1583.09</ele>
  <time>2026-08-28T17:51:24Z</time>
  <course>180.98</course>
  <speed>11.710106745884087</speed>
  <fix>3d</fix>
</trkpt>
<trkpt lat="40.0738535" lon="-105.2301567">
  <ele>1583.0</ele>
  <time>2026-08-28T17:51:24Z</time>
  <course>180.23</course>
  <speed>11.88</speed>
  <fix>3d</fix>
</trkpt>
<trkpt lat="40.0738184" lon="-105.2301569">
  <ele>1583.09</ele>
  <time>2026-08-28T17:51:24Z</time>
  <course>180.98</course>
  <speed>11.620107572651811</speed>
  <fix>3d</fix>
</trkpt>
<trkpt lat="40.0738324" lon="-105.2301568">
  <ele>1583.0</ele>
  <time>2026-08-28T17:51:24Z</time>
  <course>180.23</course>
  <speed>11.73</speed>
  <fix>3d</fix>
</trkpt>
<trkpt lat="40.073808" lon="-105.230157">
  <ele>1583.09</ele>
  <time>2026-08-28T17:51:24Z</time>
  <course>180.98</course>
  <speed>11.520108506433434</speed>
  <fix>3d</fix>
</trkpt>
<trkpt lat="40.0738324" lon="-105.2301568">
  <ele>1583.0</ele>
  <time>2026-08-28T17:51:24Z</time>
  <course>180.23</course>
  <speed>11.73</speed>
  <fix>3d</fix>
</trkpt>
<trkpt lat="40.0737976" lon="-105.230157">
  <ele>1583.09</ele>
  <time>2026-08-28T17:51:24Z</time>
  <course>180.98</course>
  <speed>11.410070113719723</speed>
  <fix>3d</fix>
</trkpt>
<trkpt lat="40.0738115" lon="-105.2301569">
  <ele>1583.0</ele>
  <time>2026-08-28T17:51:24Z</time>
  <course>180.23</course>
  <speed>11.54</speed>
  <fix>3d</fix>
</trkpt>
<trkpt lat="40.0737874" lon="-105.2301571">
  <ele>1583.09</ele>
  <time>2026-08-28T17:51:24Z</time>
  <course>180.98</course>
  <speed>11.29007085894504</speed>
  <fix>3d</fix>
</trkpt>
<trkpt lat="40.0738115" lon="-105.2301569">
  <ele>1583.0</ele>
  <time>2026-08-28T17:51:24Z</time>
  <course>180.23</course>
  <speed>11.54</speed>
  <fix>3d</fix>
</trkpt>
<trkpt lat="40.0737772" lon="-105.2301571">
  <ele>1583.08</ele>
  <time>2026-08-28T17:51:24Z</time>
  <course>180.98</course>
  <speed>11.17007162018221</speed>
  <fix>3d</fix>
</trkpt>
<trkpt lat="40.0738115" lon="-105.2301569">
  <ele>1583.0</ele>
  <time>2026-08-28T17:51:24Z</time>
  <course>180.23</course>
  <speed>11.54</speed>
  <fix>3d</fix>
</trkpt>
<trkpt lat="40.0737673" lon="-105.2301572">
  <ele>1583.08</ele>
  <time>2026-08-28T17:51:24Z</time>
  <course>180.98</course>
  <speed>11.0400724635303</speed>
  <fix>3d</fix>
</trkpt>
<trkpt lat="40.0737909" lon="-105.230157">
  <ele>1583.0</ele>
  <time>2026-08-28T17:51:24Z</time>
  <course>180.23</course>
  <speed>11.31</speed>
  <fix>3d</fix>
</trkpt>
<trkpt lat="40.0737575" lon="-105.2301572">
  <ele>1583.07</ele>
  <time>2026-08-28T17:51:24Z</time>
  <course>180.98</course>
  <speed>10.910073326976311</speed>
  <fix>3d</fix>
</trkpt>
<trkpt lat="40.0737909" lon="-105.230157">
  <ele>1583.0</ele>
  <time>2026-08-28T17:51:24Z</time>
  <course>180.23</course>
  <speed>11.31</speed>
  <fix>3d</fix>
</trkpt>
<trkpt lat="40.0737478" lon="-105.2301572">
  <ele>1583.07</ele>
  <time>2026-08-28T17:51:24Z</time>
  <course>180.98</course>
  <speed>10.77007428015239</speed>
  <fix>3d</fix>
</trkpt>
<trkpt lat="40.0737707" lon="-105.2301572">
  <ele>1583.0</ele>
  <time>2026-08-28T17:51:24Z</time>
  <course>180.23</course>
  <speed>11.06</speed>
  <fix>3d</fix>
</trkpt>
<trkpt lat="40.0737383" lon="-105.2301573">
  <ele>1583.06</ele>
  <time>2026-08-28T17:51:24Z</time>
  <course>180.98</course>
  <speed>10.630042332935462</speed>
  <fix>3d</fix>
</trkpt>
<trkpt lat="40.0737707" lon="-105.2301572">
  <ele>1583.0</ele>
  <time>2026-08-28T17:51:24Z</time>
  <course>180.23</course>
  <speed>11.06</speed>
  <fix>3d</fix>
</trkpt>
<trkpt lat="40.0737289" lon="-105.2301573">
  <ele>1583.06</ele>
  <time>2026-08-28T17:51:24Z</time>
  <course>180.98</course>
  <speed>10.49004289791038</speed>
  <fix>3d</fix>
</trkpt>
<trkpt lat="40.073751" lon="-105.2301573">
  <ele>1583.0</ele>
  <time>2026-08-28T17:51:24Z</time>
  <course>180.23</course>
  <speed>10.8</speed>
  <fix>3d</fix>
</trkpt>
<trkpt lat="40.0737195" lon="-105.2301574">
  <ele>1583.06</ele>
  <time>2026-08-28T17:51:24Z</time>
  <course>180.98</course>
  <speed>10.36004343620238</speed>
  <fix>3d</fix>
</trkpt>
<trkpt lat="40.0737319" lon="-105.2301574">
  <ele>1583.0</ele>
  <time>2026-08-28T17:51:24Z</time>
  <course>180.23</course>
  <speed>10.54</speed>
  <fix>3d</fix>
</trkpt>
<trkpt lat="40.0737103" lon="-105.2301574">
  <ele>1583.06</ele>
  <time>2026-08-28T17:51:24Z</time>
  <course>180.98</course>
  <speed>10.230043988175222</speed>
  <fix>3d</fix>
</trkpt>
<trkpt lat="40.0737319" lon="-105.2301574">
  <ele>1583.0</ele>
  <time>2026-08-28T17:51:24Z</time>
  <course>180.23</course>
  <speed>10.54</speed>
  <fix>3d</fix>
</trkpt>
<trkpt lat="40.0737012" lon="-105.2301575">
  <ele>1583.06</ele>
  <time>2026-08-28T17:51:24Z</time>
  <course>180.98</course>
  <speed>10.100044554357174</speed>
  <fix>3d</fix>
</trkpt>
<trkpt lat="40.0737132" lon="-105.2301575">
  <ele>1583.0</ele>
  <time>2026-08-28T17:51:24Z</time>
  <course>180.23</course>
  <speed>10.28</speed>
  <fix>3d</fix>
</trkpt>
<trkpt lat="40.0736922" lon="-105.2301575">
  <ele>1583.06</ele>
  <time>2026-08-28T17:51:24Z</time>
  <course>180.98</course>
  <speed>9.970045135304053</speed>
  <fix>3d</fix>
</trkpt>
<trkpt lat="40.0737132" lon="-105.2301575">
  <ele>1583.0</ele>
  <time>2026-08-28T17:51:24Z</time>
  <course>180.23</course>
  <speed>10.28</speed>
  <fix>3d</fix>
</trkpt>
<trkpt lat="40.0736833" lon="-105.2301576">
  <ele>1583.06</ele>
  <time>2026-08-28T17:51:24Z</time>
  <course>180.98</course>
  <speed>9.850045685173242</speed>
  <fix>3d</fix>
</trkpt>
<trkpt lat="40.073695" lon="-105.2301576">
  <ele>1583.0</ele>
  <time>2026-08-28T17:51:24Z</time>
  <course>180.23</course>
  <speed>10.03</speed>
  <fix>3d</fix>
</trkpt>
<trkpt lat="40.0736744" lon="-105.2301576">
  <ele>1583.06</ele>
  <time>2026-08-28T17:51:24Z</time>
  <course>180.98</course>
  <speed>9.7300462486054</speed>
  <fix>3d</fix>
</trkpt>
<trkpt lat="40.073695" lon="-105.2301576">
  <ele>1583.0</ele>
  <time>2026-08-28T17:51:24Z</time>
  <course>180.23</course>
  <speed>10.03</speed>
  <fix>3d</fix>
</trkpt>
<trkpt lat="40.0736657" lon="-105.2301576">
  <ele>1583.05</ele>
  <time>2026-08-28T17:51:24Z</time>
  <course>180.98</course>
  <speed>9.6100468261086</speed>
  <fix>3d</fix>
</trkpt>
<trkpt lat="40.0736771" lon="-105.2301576">
  <ele>1583.0</ele>
  <time>2026-08-28T17:51:24Z</time>
  <course>180.23</course>
  <speed>9.78</speed>
  <fix>3d</fix>
</trkpt>
<trkpt lat="40.073657" lon="-105.2301577">
  <ele>1583.05</ele>
  <time>2026-08-28T17:51:24Z</time>
  <course>180.98</course>
  <speed>9.490021074792194</speed>
  <fix>3d</fix>
</trkpt>
<trkpt lat="40.0736771" lon="-105.2301576">
  <ele>1583.0</ele>
  <time>2026-08-28T17:51:24Z</time>
  <course>180.23</course>
  <speed>9.78</speed>
  <fix>3d</fix>
</trkpt>
<trkpt lat="40.0736485" lon="-105.2301577">
  <ele>1583.05</ele>
  <time>2026-08-28T17:51:24Z</time>
  <course>180.98</course>
  <speed>9.380021321937386</speed>
  <fix>3d</fix>
</trkpt>
<trkpt lat="40.0736598" lon="-105.2301577">
  <ele>1583.0</ele>
  <time>2026-08-28T17:51:24Z</time>
  <course>180.23</course>
  <speed>9.55</speed>
  <fix>3d</fix>
</trkpt>
<trkpt lat="40.0736401" lon="-105.2301578">
  <ele>1583.05</ele>
  <time>2026-08-28T17:51:24Z</time>
  <course>180.98</course>
  <speed>9.270021574947924</speed>
  <fix>3d</fix>
</trkpt>
<trkpt lat="40.0736598" lon="-105.2301577">
  <ele>1583.0</ele>
  <time>2026-08-28T17:51:24Z</time>
  <course>180.23</course>
  <speed>9.55</speed>
  <fix>3d</fix>
</trkpt>
<trkpt lat="40.0736317" lon="-105.2301578">
  <ele>1583.05</ele>
  <time>2026-08-28T17:51:24Z</time>
  <course>180.98</course>
  <speed>9.160021834035113</speed>
  <fix>3d</fix>
</trkpt>
<trkpt lat="40.0736428" lon="-105.2301578">
  <ele>1583.0</ele>
  <time>2026-08-28T17:51:24Z</time>
  <course>180.23</course>
  <speed>9.32</speed>
  <fix>3d</fix>
</trkpt>
<trkpt lat="40.0736235" lon="-105.2301578">
  <ele>1583.05</ele>
  <time>2026-08-28T17:51:24Z</time>
  <course>180.98</course>
  <speed>9.05002209942053</speed>
  <fix>3d</fix>
</trkpt>
<trkpt lat="40.0736428" lon="-105.2301578">
  <ele>1583.0</ele>
  <time>2026-08-28T17:51:24Z</time>
  <course>180.23</course>
  <speed>9.32</speed>
  <fix>3d</fix>
</trkpt>
<trkpt lat="40.0736154" lon="-105.2301579">
  <ele>1583.05</ele>
  <time>2026-08-28T17:51:25Z</time>
  <course>180.97</course>
  <speed>8.940022371336662</speed>
  <fix>3d</fix>
</trkpt>
<trkpt lat="40.0736263" lon="-105.2301579">
  <ele>1583.0</ele>
  <time>2026-08-28T17:51:25Z</time>
  <course>180.23</course>
  <speed>9.1</speed>
  <fix>3d</fix>
</trkpt>
<trkpt lat="40.0736074" lon="-105.2301579">
  <ele>1583.05</ele>
  <time>2026-08-28T17:51:25Z</time>
  <course>180.97</course>
  <speed>8.840022624405437</speed>
  <fix>3d</fix>
</trkpt>
<trkpt lat="40.0736263" lon="-105.2301579">
  <ele>1583.0</ele>
  <time>2026-08-28T17:51:25Z</time>
  <course>180.23</course>
  <speed>9.1</speed>
  <fix>3d</fix>
</trkpt>
<trkpt lat="40.0735994" lon="-105.2301579">
  <ele>1583.05</ele>
  <time>2026-08-28T17:51:25Z</time>
  <course>180.97</course>
  <speed>8.730022909477386</speed>
  <fix>3d</fix>
</trkpt>
<trkpt lat="40.0736263" lon="-105.2301579">
  <ele>1583.0</ele>
  <time>2026-08-28T17:51:25Z</time>
  <course>180.23</course>
  <speed>9.1</speed>
  <fix>3d</fix>
</trkpt>
<trkpt lat="40.0735917" lon="-105.230158">
  <ele>1583.05</ele>
  <time>2026-08-28T17:51:25Z</time>
  <course>180.97</course>
  <speed>8.630023174939915</speed>
  <fix>3d</fix>
</trkpt>
<trkpt lat="40.0736102" lon="-105.230158">
  <ele>1583.0</ele>
  <time>2026-08-28T17:51:25Z</time>
  <course>180.23</course>
  <speed>8.89</speed>
  <fix>3d</fix>
</trkpt>
<trkpt lat="40.073584" lon="-105.230158">
  <ele>1583.05</ele>
  <time>2026-08-28T17:51:25Z</time>
  <course>180.97</course>
  <speed>8.520023474146065</speed>
  <fix>3d</fix>
</trkpt>
<trkpt lat="40.0736102" lon="-105.230158">
  <ele>1583.0</ele>
  <time>2026-08-28T17:51:25Z</time>
  <course>180.23</course>
  <speed>8.89</speed>
  <fix>3d</fix>
</trkpt>
<trkpt lat="40.0735764" lon="-105.2301581">
  <ele>1583.05</ele>
  <time>2026-08-28T17:51:25Z</time>
  <course>180.97</course>
  <speed>8.420023752935617</speed>
  <fix>3d</fix>
</trkpt>
<trkpt lat="40.0735944" lon="-105.2301581">
  <ele>1583.0</ele>
  <time>2026-08-28T17:51:25Z</time>
  <course>180.23</course>
  <speed>8.68</speed>
  <fix>3d</fix>
</trkpt>
<trkpt lat="40.073569" lon="-105.2301581">
  <ele>1583.06</ele>
  <time>2026-08-28T17:51:25Z</time>
  <course>180.97</course>
  <speed>8.320024038426812</speed>
  <fix>3d</fix>
</trkpt>
<trkpt lat="40.0735944" lon="-105.2301581">
  <ele>1583.0</ele>
  <time>2026-08-28T17:51:25Z</time>
  <course>180.23</course>
  <speed>8.68</speed>
  <fix>3d</fix>
</trkpt>
<trkpt lat="40.0735616" lon="-105.2301581">
  <ele>1583.06</ele>
  <time>2026-08-28T17:51:25Z</time>
  <course>180.96</course>
  <speed>8.220024330864234</speed>
  <fix>3d</fix>
</trkpt>
<trkpt lat="40.0735789" lon="-105.2301582">
  <ele>1583.0</ele>
  <time>2026-08-28T17:51:25Z</time>
  <course>180.23</course>
  <speed>8.48</speed>
  <fix>3d</fix>
</trkpt>
<trkpt lat="40.0735543" lon="-105.2301582">
  <ele>1583.06</ele>
  <time>2026-08-28T17:51:25Z</time>
  <course>180.96</course>
  <speed>8.120024630504517</speed>
  <fix>3d</fix>
</trkpt>
<trkpt lat="40.0735789" lon="-105.2301582">
  <ele>1583.0</ele>
  <time>2026-08-28T17:51:25Z</time>
  <course>180.23</course>
  <speed>8.48</speed>
  <fix>3d</fix>
</trkpt>
<trkpt lat="40.0735471" lon="-105.2301582">
  <ele>1583.06</ele>
  <time>2026-08-28T17:51:25Z</time>
  <course>180.96</course>
  <speed>8.02002493761709</speed>
  <fix>3d</fix>
</trkpt>
<trkpt lat="40.0735638" lon="-105.2301583">
  <ele>1583.0</ele>
  <time>2026-08-28T17:51:25Z</time>
  <course>180.23</course>
  <speed>8.29</speed>
  <fix>3d</fix>
</trkpt>
<trkpt lat="40.0735399" lon="-105.2301583">
  <ele>1583.06</ele>
  <time>2026-08-28T17:51:25Z</time>
  <course>180.96</course>
  <speed>7.930025220640853</speed>
  <fix>3d</fix>
</trkpt>
<trkpt lat="40.0735491" lon="-105.2301583">
  <ele>1583.0</ele>
  <time>2026-08-28T17:51:25Z</time>
  <course>180.23</course>
  <speed>8.1</speed>
  <fix>3d</fix>
</trkpt>
<trkpt lat="40.0735328" lon="-105.2301583">
  <ele>1583.06</ele>
  <time>2026-08-28T17:51:25Z</time>
  <course>180.96</course>
  <speed>7.830025542742501</speed>
  <fix>3d</fix>
</trkpt>
<trkpt lat="40.0735491" lon="-105.2301583">
  <ele>1583.0</ele>
  <time>2026-08-28T17:51:25Z</time>
  <course>180.23</course>
  <speed>8.1</speed>
  <fix>3d</fix>
</trkpt>
<trkpt lat="40.0735259" lon="-105.2301583">
  <ele>1583.06</ele>
  <time>2026-08-28T17:51:25Z</time>
  <course>180.96</course>
  <speed>7.740025839750149</speed>
  <fix>3d</fix>
</trkpt>
<trkpt lat="40.0735348" lon="-105.2301584">
  <ele>1583.0</ele>
  <time>2026-08-28T17:51:25Z</time>
  <course>180.23</course>
  <speed>7.91</speed>
  <fix>3d</fix>
</trkpt>
<trkpt lat="40.0735189" lon="-105.2301584">
  <ele>1583.06</ele>
  <time>2026-08-28T17:51:25Z</time>
  <course>180.95</course>
  <speed>7.650026143746177</speed>
  <fix>3d</fix>
</trkpt>
<trkpt lat="40.0735348" lon="-105.2301584">
  <ele>1583.0</ele>
  <time>2026-08-28T17:51:25Z</time>
  <course>180.23</course>
  <speed>7.91</speed>
  <fix>3d</fix>
</trkpt>
<trkpt lat="40.073512" lon="-105.2301584">
  <ele>1583.06</ele>
  <time>2026-08-28T17:51:25Z</time>
  <course>180.95</course>
  <speed>7.560026454980167</speed>
  <fix>3d</fix>
</trkpt>
<trkpt lat="40.0735207" lon="-105.2301585">
  <ele>1583.0</ele>
  <time>2026-08-28T17:51:25Z</time>
  <course>180.23</course>
  <speed>7.72</speed>
  <fix>3d</fix>
</trkpt>
<trkpt lat="40.0735052" lon="-105.2301585">
  <ele>1583.06</ele>
  <time>2026-08-28T17:51:25Z</time>
  <course>180.95</course>
  <speed>7.470026773713732</speed>
  <fix>3d</fix>
</trkpt>
<trkpt lat="40.0735207" lon="-105.2301585">
  <ele>1583.0</ele>
  <time>2026-08-28T17:51:25Z</time>
  <course>180.23</course>
  <speed>7.72</speed>
  <fix>3d</fix>
</trkpt>
<trkpt lat="40.0734984" lon="-105.2301585">
  <ele>1583.05</ele>
  <time>2026-08-28T17:51:25Z</time>
  <course>180.95</course>
  <speed>7.3700271369921015</speed>
  <fix>3d</fix>
</trkpt>
<trkpt lat="40.073507" lon="-105.2301586">
  <ele>1583.0</ele>
  <time>2026-08-28T17:51:25Z</time>
  <course>180.23</course>
  <speed>7.54</speed>
  <fix>3d</fix>
</trkpt>
<trkpt lat="40.0734918" lon="-105.2301585">
  <ele>1583.05</ele>
  <time>2026-08-28T17:51:25Z</time>
  <course>180.95</course>
  <speed>7.280027472475637</speed>
  <fix>3d</fix>
</trkpt>
<trkpt lat="40.073507" lon="-105.2301586">
  <ele>1583.0</ele>
  <time>2026-08-28T17:51:25Z</time>
  <course>180.23</course>
  <speed>7.54</speed>
  <fix>3d</fix>
</trkpt>
<trkpt lat="40.0734852" lon="-105.2301586">
  <ele>1583.05</ele>
  <time>2026-08-28T17:51:25Z</time>
  <course>180.95</course>
  <speed>7.180027855099171</speed>
  <fix>3d</fix>
</trkpt>
<trkpt lat="40.0734937" lon="-105.2301586">
  <ele>1583.0</ele>
  <time>2026-08-28T17:51:25Z</time>
  <course>180.23</course>
  <speed>7.34</speed>
  <fix>3d</fix>
</trkpt>
<trkpt lat="40.0734787" lon="-105.2301586">
  <ele>1583.05</ele>
  <time>2026-08-28T17:51:25Z</time>
  <course>180.95</course>
  <speed>7.090028208688595</speed>
  <fix>3d</fix>
</trkpt>
<trkpt lat="40.0734937" lon="-105.2301586">
  <ele>1583.0</ele>
  <time>2026-08-28T17:51:25Z</time>
  <course>180.23</course>
  <speed>7.34</speed>
  <fix>3d</fix>
</trkpt>
<trkpt lat="40.0734723" lon="-105.2301587">
  <ele>1583.05</ele>
  <time>2026-08-28T17:51:25Z</time>
  <course>180.95</course>
  <speed>6.990028612244731</speed>
  <fix>3d</fix>
</trkpt>
<trkpt lat="40.0734806" lon="-105.2301587">
  <ele>1583.0</ele>
  <time>2026-08-28T17:51:25Z</time>
  <course>180.23</course>
  <speed>7.15</speed>
  <fix>3d</fix>
</trkpt>
<trkpt lat="40.073466" lon="-105.2301587">
  <ele>1583.05</ele>
  <time>2026-08-28T17:51:25Z</time>
  <course>180.95</course>
  <speed>6.900028985446365</speed>
  <fix>3d</fix>
</trkpt>
<trkpt lat="40.0734806" lon="-105.2301587">
  <ele>1583.0</ele>
  <time>2026-08-28T17:51:25Z</time>
  <course>180.23</course>
  <speed>7.15</speed>
  <fix>3d</fix>
</trkpt>
<trkpt lat="40.0734598" lon="-105.2301587">
  <ele>1583.05</ele>
  <time>2026-08-28T17:51:25Z</time>
  <course>180.95</course>
  <speed>6.800029411701099</speed>
  <fix>3d</fix>
</trkpt>
<trkpt lat="40.0734679" lon="-105.2301588">
  <ele>1583.0</ele>
  <time>2026-08-28T17:51:25Z</time>
  <course>180.23</course>
  <speed>6.95</speed>
  <fix>3d</fix>
</trkpt>
<trkpt lat="40.0734537" lon="-105.2301588">
  <ele>1583.05</ele>
  <time>2026-08-28T17:51:25Z</time>
  <course>180.95</course>
  <speed>6.700029850679772</speed>
  <fix>3d</fix>
</trkpt>
<trkpt lat="40.0734679" lon="-105.2301588">
  <ele>1583.0</ele>
  <time>2026-08-28T17:51:25Z</time>
  <course>180.23</course>
  <speed>6.95</speed>
  <fix>3d</fix>
</trkpt>
<trkpt lat="40.0734477" lon="-105.2301588">
  <ele>1583.05</ele>
  <time>2026-08-28T17:51:25Z</time>
  <course>180.95</course>
  <speed>6.600030302960737</speed>
  <fix>3d</fix>
</trkpt>
<trkpt lat="40.0734679" lon="-105.2301588">
  <ele>1583.0</ele>
  <time>2026-08-28T17:51:25Z</time>
  <course>180.23</course>
  <speed>6.95</speed>
  <fix>3d</fix>
</trkpt>
<trkpt lat="40.0734418" lon="-105.2301588">
  <ele>1583.05</ele>
  <time>2026-08-28T17:51:25Z</time>
  <course>180.94</course>
  <speed>6.500030769157942</speed>
  <fix>3d</fix>
</trkpt>
<trkpt lat="40.0734555" lon="-105.2301588">
  <ele>1583.0</ele>
  <time>2026-08-28T17:51:25Z</time>
  <course>180.23</course>
  <speed>6.75</speed>
  <fix>3d</fix>
</trkpt>
<trkpt lat="40.073436" lon="-105.2301589">
  <ele>1583.05</ele>
  <time>2026-08-28T17:51:25Z</time>
  <course>180.94</course>
  <speed>6.400031249923707</speed>
  <fix>3d</fix>
</trkpt>
<trkpt lat="40.0734555" lon="-105.2301588">
  <ele>1583.0</ele>
  <time>2026-08-28T17:51:25Z</time>
  <course>180.23</course>
  <speed>6.75</speed>
  <fix>3d</fix>
</trkpt>
<trkpt lat="40.0734303" lon="-105.2301589">
  <ele>1583.05</ele>
  <time>2026-08-28T17:51:25Z</time>
  <course>180.94</course>
  <speed>6.300031745951761</speed>
  <fix>3d</fix>
</trkpt>
<trkpt lat="40.0734436" lon="-105.2301589">
  <ele>1583.0</ele>
  <time>2026-08-28T17:51:25Z</time>
  <course>180.23</course>
  <speed>6.55</speed>
  <fix>3d</fix>
</trkpt>
<trkpt lat="40.0734247" lon="-105.2301589">
  <ele>1583.05</ele>
  <time>2026-08-28T17:51:25Z</time>
  <course>180.94</course>
  <speed>6.190032310093382</speed>
  <fix>3d</fix>
</trkpt>
<trkpt lat="40.0734436" lon="-105.2301589">
  <ele>1583.0</ele>
  <time>2026-08-28T17:51:25Z</time>
  <course>180.23</course>
  <speed>6.55</speed>
  <fix>3d</fix>
</trkpt>
<trkpt lat="40.0734192" lon="-105.230159">
  <ele>1583.05</ele>
  <time>2026-08-28T17:51:25Z</time>
  <course>180.94</course>
  <speed>6.090032840633949</speed>
  <fix>3d</fix>
</trkpt>
<trkpt lat="40.0734319" lon="-105.230159">
  <ele>1583.0</ele>
  <time>2026-08-28T17:51:25Z</time>
  <course>180.23</course>
  <speed>6.35</speed>
  <fix>3d</fix>
</trkpt>
<trkpt lat="40.0734138" lon="-105.230159">
  <ele>1583.05</ele>
  <time>2026-08-28T17:51:25Z</time>
  <course>180.94</course>
  <speed>5.9900333888885795</speed>
  <fix>3d</fix>
</trkpt>
<trkpt lat="40.0734208" lon="-105.2301591">
  <ele>1583.0</ele>
  <time>2026-08-28T17:51:25Z</time>
  <course>180.23</course>
  <speed>6.15</speed>
  <fix>3d</fix>
</trkpt>
<trkpt lat="40.0734084" lon="-105.2301591">
  <ele>1583.06</ele>
  <time>2026-08-28T17:51:25Z</time>
  <course>180.91</course>
  <speed>5.890033955759508</speed>
  <fix>3d</fix>
</trkpt>
<trkpt lat="40.0734208" lon="-105.2301591">
  <ele>1583.0</ele>
  <time>2026-08-28T17:51:25Z</time>
  <course>180.23</course>
  <speed>6.15</speed>
  <fix>3d</fix>
</trkpt>
<trkpt lat="40.0734032" lon="-105.2301591">
  <ele>1583.06</ele>
  <time>2026-08-28T17:51:25Z</time>
  <course>180.89</course>
  <speed>5.790034542211298</speed>
  <fix>3d</fix>
</trkpt>
<trkpt lat="40.0734099" lon="-105.2301591">
  <ele>1583.0</ele>
  <time>2026-08-28T17:51:25Z</time>
  <course>180.21</course>
  <speed>5.95</speed>
  <fix>3d</fix>
</trkpt>
<trkpt lat="40.073398" lon="-105.2301591">
  <ele>1583.06</ele>
  <time>2026-08-28T17:51:25Z</time>
  <course>180.86</course>
  <speed>5.690008787339436</speed>
  <fix>3d</fix>
</trkpt>
<trkpt lat="40.0734099" lon="-105.2301591">
  <ele>1583.0</ele>
  <time>2026-08-28T17:51:25Z</time>
  <course>180.21</course>
  <speed>5.95</speed>
  <fix>3d</fix>
</trkpt>
<trkpt lat="40.0733929" lon="-105.2301591">
  <ele>1583.07</ele>
  <time>2026-08-28T17:51:25Z</time>
  <course>180.81</course>
  <speed>5.590008944536672</speed>
  <fix>3d</fix>
</trkpt>
<trkpt lat="40.0733994" lon="-105.2301591">
  <ele>1583.0</ele>
  <time>2026-08-28T17:51:25Z</time>
  <course>180.14</course>
  <speed>5.75</speed>
  <fix>3d</fix>
</trkpt>
<trkpt lat="40.0733879" lon="-105.2301591">
  <ele>1583.07</ele>
  <time>2026-08-28T17:51:25Z</time>
  <course>180.8</course>
  <speed>5.49000910746057</speed>
  <fix>3d</fix>
</trkpt>
<trkpt lat="40.0733994" lon="-105.2301591">
  <ele>1583.0</ele>
  <time>2026-08-28T17:51:25Z</time>
  <course>180.14</course>
  <speed>5.75</speed>
  <fix>3d</fix>
</trkpt>
<trkpt lat="40.0733829" lon="-105.2301592">
  <ele>1583.07</ele>
  <time>2026-08-28T17:51:25Z</time>
  <course>180.77</course>
  <speed>5.390009276429866</speed>
  <fix>3d</fix>
</trkpt>
<trkpt lat="40.0733892" lon="-105.2301591">
  <ele>1583.0</ele>
  <time>2026-08-28T17:51:25Z</time>
  <course>180.08</course>
  <speed>5.54</speed>
  <fix>3d</fix>
</trkpt>
<trkpt lat="40.073378" lon="-105.2301592">
  <ele>1583.07</ele>
  <time>2026-08-28T17:51:25Z</time>
  <course>180.71</course>
  <speed>5.29</speed>
  <fix>3d</fix>
</trkpt>
<trkpt lat="40.0733892" lon="-105.2301591">
  <ele>1583.0</ele>
  <time>2026-08-28T17:51:25Z</time>
  <course>180.08</course>
  <speed>5.54</speed>
  <fix>3d</fix>
</trkpt>
<trkpt lat="40.0733733" lon="-105.2301592">
  <ele>1583.07</ele>
  <time>2026-08-28T17:51:25Z</time>
  <course>180.69</course>
  <speed>5.19</speed>
  <fix>3d</fix>
</trkpt>
<trkpt lat="40.0733795" lon="-105.2301591">
  <ele>1583.0</ele>
  <time>2026-08-28T17:51:25Z</time>
  <course>180.02</course>
  <speed>5.34</speed>
  <fix>3d</fix>
</trkpt>
<trkpt lat="40.0733686" lon="-105.2301592">
  <ele>1583.07</ele>
  <time>2026-08-28T17:51:25Z</time>
  <course>180.65</course>
  <speed>5.09</speed>
  <fix>3d</fix>
</trkpt>
<trkpt lat="40.0733795" lon="-105.2301591">
  <ele>1583.0</ele>
  <time>2026-08-28T17:51:25Z</time>
  <course>180.02</course>
  <speed>5.34</speed>
  <fix>3d</fix>
</trkpt>
<trkpt lat="40.0733641" lon="-105.2301591">
  <ele>1583.07</ele>
  <time>2026-08-28T17:51:25Z</time>
  <course>180.61</course>
  <speed>4.99</speed>
  <fix>3d</fix>
</trkpt>
<trkpt lat="40.07337" lon="-105.2301591">
  <ele>1583.0</ele>
  <time>2026-08-28T17:51:25Z</time>
  <course>179.95</course>
  <speed>5.14</speed>
  <fix>3d</fix>
</trkpt>
<trkpt lat="40.0733596" lon="-105.2301591">
  <ele>1583.08</ele>
  <time>2026-08-28T17:51:25Z</time>
  <course>180.59</course>
  <speed>4.89</speed>
  <fix>3d</fix>
</trkpt>
<trkpt lat="40.07337" lon="-105.2301591">
  <ele>1583.0</ele>
  <time>2026-08-28T17:51:25Z</time>
  <course>179.95</course>
  <speed>5.14</speed>
  <fix>3d</fix>
</trkpt>
<trkpt lat="40.0733552" lon="-105.2301591">
  <ele>1583.07</ele>
  <time>2026-08-28T17:51:25Z</time>
  <course>180.54</course>
  <speed>4.79</speed>
  <fix>3d</fix>
</trkpt>
<trkpt lat="40.073361" lon="-105.2301591">
  <ele>1583.0</ele>
  <time>2026-08-28T17:51:25Z</time>
  <course>179.87</course>
  <speed>4.94</speed>
  <fix>3d</fix>
</trkpt>
<trkpt lat="40.0733509" lon="-105.2301591">
  <ele>1583.07</ele>
  <time>2026-08-28T17:51:25Z</time>
  <course>180.51</course>
  <speed>4.690010660968693</speed>
  <fix>3d</fix>
</trkpt>
<trkpt lat="40.073361" lon="-105.2301591">
  <ele>1583.0</ele>
  <time>2026-08-28T17:51:25Z</time>
  <course>179.87</course>
  <speed>4.94</speed>
  <fix>3d</fix>
</trkpt>
<trkpt lat="40.0733467" lon="-105.2301591">
  <ele>1583.07</ele>
  <time>2026-08-28T17:51:25Z</time>
  <course>180.49</course>
  <speed>4.590010893233261</speed>
  <fix>3d</fix>
</trkpt>
<trkpt lat="40.073361" lon="-105.2301591">
  <ele>1583.0</ele>
  <time>2026-08-28T17:51:25Z</time>
  <course>179.87</course>
  <speed>4.94</speed>
  <fix>3d</fix>
</trkpt>
<trkpt lat="40.0733426" lon="-105.2301591">
  <ele>1583.07</ele>
  <time>2026-08-28T17:51:25Z</time>
  <course>180.44</course>
  <speed>4.490011135843652</speed>
  <fix>3d</fix>
</trkpt>
<trkpt lat="40.0733522" lon="-105.2301591">
  <ele>1583.0</ele>
  <time>2026-08-28T17:51:25Z</time>
  <course>179.81</course>
  <speed>4.73</speed>
  <fix>3d</fix>
</trkpt>
<trkpt lat="40.0733387" lon="-105.2301591">
  <ele>1583.07</ele>
  <time>2026-08-28T17:51:25Z</time>
  <course>180.42</course>
  <speed>4.390011389506865</speed>
  <fix>3d</fix>
</trkpt>
<trkpt lat="40.0733522" lon="-105.2301591">
  <ele>1583.0</ele>
  <time>2026-08-28T17:51:25Z</time>
  <course>179.81</course>
  <speed>4.73</speed>
  <fix>3d</fix>
</trkpt>
<trkpt lat="40.0733348" lon="-105.2301591">
  <ele>1583.07</ele>
  <time>2026-08-28T17:51:25Z</time>
  <course>180.37</course>
  <speed>4.280011682227047</speed>
  <fix>3d</fix>
</trkpt>
<trkpt lat="40.0733439" lon="-105.2301591">
  <ele>1583.0</ele>
  <time>2026-08-28T17:51:25Z</time>
  <course>179.75</course>
  <speed>4.53</speed>
  <fix>3d</fix>
</trkpt>
<trkpt lat="40.073331" lon="-105.2301591">
  <ele>1583.07</ele>
  <time>2026-08-28T17:51:25Z</time>
  <course>180.34</course>
  <speed>4.180047846616112</speed>
  <fix>3d</fix>
</trkpt>
<trkpt lat="40.0733439" lon="-105.2301591">
  <ele>1583.0</ele>
  <time>2026-08-28T17:51:25Z</time>
  <course>179.75</course>
  <speed>4.53</speed>
  <fix>3d</fix>
</trkpt>
<trkpt lat="40.0733273" lon="-105.230159">
  <ele>1583.07</ele>
  <time>2026-08-28T17:51:25Z</time>
  <course>180.31</course>
  <speed>4.080049019313371</speed>
  <fix>3d</fix>
</trkpt>
<trkpt lat="40.073336" lon="-105.2301591">
  <ele>1583.0</ele>
  <time>2026-08-28T17:51:25Z</time>
  <course>179.68</course>
  <speed>4.32</speed>
  <fix>3d</fix>
</trkpt>
<trkpt lat="40.0733237" lon="-105.230159">
  <ele>1583.07</ele>
  <time>2026-08-28T17:51:25Z</time>
  <course>180.26</course>
  <speed>3.9800502509390507</speed>
  <fix>3d</fix>
</trkpt>
<trkpt lat="40.073336" lon="-105.2301591">
  <ele>1583.0</ele>
  <time>2026-08-28T17:51:25Z</time>
  <course>179.68</course>
  <speed>4.32</speed>
  <fix>3d</fix>
</trkpt>
<trkpt lat="40.0733202" lon="-105.230159">
  <ele>1583.07</ele>
  <time>2026-08-28T17:51:25Z</time>
  <course>180.23</course>
  <speed>3.8800515460493563</speed>
  <fix>3d</fix>
</trkpt>
<trkpt lat="40.0733283" lon="-105.2301591">
  <ele>1583.0</ele>
  <time>2026-08-28T17:51:25Z</time>
  <course>179.6</course>
  <speed>4.12</speed>
  <fix>3d</fix>
</trkpt>
<trkpt lat="40.0733167" lon="-105.230159">
  <ele>1583.07</ele>
  <time>2026-08-28T17:51:25Z</time>
  <course>180.2</course>
  <speed>3.790052770081177</speed>
  <fix>3d</fix>
</trkpt>
<trkpt lat="40.0733211" lon="-105.230159">
  <ele>1583.0</ele>
  <time>2026-08-28T17:51:25Z</time>
  <course>179.54</course>
  <speed>3.93</speed>
  <fix>3d</fix>
</trkpt>
<trkpt lat="40.0733134" lon="-105.2301589">
  <ele>1583.07</ele>
  <time>2026-08-28T17:51:25Z</time>
  <course>180.16</course>
  <speed>3.720053763052357</speed>
  <fix>3d</fix>
</trkpt>
<trkpt lat="40.0733211" lon="-105.230159">
  <ele>1583.0</ele>
  <time>2026-08-28T17:51:25Z</time>
  <course>179.54</course>
  <speed>3.93</speed>
  <fix>3d</fix>
</trkpt>
<trkpt lat="40.07331" lon="-105.2301589">
  <ele>1583.07</ele>
  <time>2026-08-28T17:51:25Z</time>
  <course>180.14</course>
  <speed>3.670054495508207</speed>
  <fix>3d</fix>
</trkpt>
<trkpt lat="40.0733142" lon="-105.2301589">
  <ele>1583.0</ele>
  <time>2026-08-28T17:51:25Z</time>
  <course>179.48</course>
  <speed>3.78</speed>
  <fix>3d</fix>
</trkpt>
<trkpt lat="40.0733067" lon="-105.2301589">
  <ele>1583.07</ele>
  <time>2026-08-28T17:51:25Z</time>
  <course>180.12</course>
  <speed>3.63005509600061</speed>
  <fix>3d</fix>
</trkpt>
<trkpt lat="40.0733142" lon="-105.2301589">
  <ele>1583.0</ele>
  <time>2026-08-28T17:51:25Z</time>
  <course>179.48</course>
  <speed>3.78</speed>
  <fix>3d</fix>
</trkpt>
<trkpt lat="40.0733035" lon="-105.2301588">
  <ele>1583.08</ele>
  <time>2026-08-28T17:51:25Z</time>
  <course>180.09</course>
  <speed>3.6000555551268927</speed>
  <fix>3d</fix>
</trkpt>
<trkpt lat="40.0733075" lon="-105.2301588">
  <ele>1583.0</ele>
  <time>2026-08-28T17:51:25Z</time>
  <course>179.42</course>
  <speed>3.68</speed>
  <fix>3d</fix>
</trkpt>
<trkpt lat="40.0733002" lon="-105.2301588">
  <ele>1583.08</ele>
  <time>2026-08-28T17:51:25Z</time>
  <course>180.06</course>
  <speed>3.590055709874152</speed>
  <fix>3d</fix>
</trkpt>
<trkpt lat="40.0733075" lon="-105.2301588">
  <ele>1583.0</ele>
  <time>2026-08-28T17:51:25Z</time>
  <course>179.42</course>
  <speed>3.68</speed>
  <fix>3d</fix>
</trkpt>
<trkpt lat="40.0732969" lon="-105.2301588">
  <ele>1583.07</ele>
  <time>2026-08-28T17:51:25Z</time>
  <course>180.05</course>
  <speed>3.5800558654859005</speed>
  <fix>3d</fix>
</trkpt>
<trkpt lat="40.073301" lon="-105.2301588">
  <ele>1583.0</ele>
  <time>2026-08-28T17:51:25Z</time>
  <course>179.38</course>
  <speed>3.63</speed>
  <fix>3d</fix>
</trkpt>
<trkpt lat="40.0732936" lon="-105.2301587">
  <ele>1583.07</ele>
  <time>2026-08-28T17:51:25Z</time>
  <course>180.03</course>
  <speed>3.590055709874152</speed>
  <fix>3d</fix>
</trkpt>
<trkpt lat="40.073301" lon="-105.2301588">
  <ele>1583.0</ele>
  <time>2026-08-28T17:51:25Z</time>
  <course>179.38</course>
  <speed>3.63</speed>
  <fix>3d</fix>
</trkpt>
<trkpt lat="40.0732903" lon="-105.2301587">
  <ele>1583.07</ele>
  <time>2026-08-28T17:51:25Z</time>
  <course>180.01</course>
  <speed>3.6000555551268927</speed>
  <fix>3d</fix>
</trkpt>
<trkpt lat="40.0732944" lon="-105.2301587">
  <ele>1583.0</ele>
  <time>2026-08-28T17:51:25Z</time>
  <course>179.35</course>
  <speed>3.63</speed>
  <fix>3d</fix>
</trkpt>
<trkpt lat="40.0732871" lon="-105.2301587">
  <ele>1583.07</ele>
  <time>2026-08-28T17:51:25Z</time>
  <course>180.01</course>
  <speed>3.6200552481971875</speed>
  <fix>3d</fix>
</trkpt>
<trkpt lat="40.0732944" lon="-105.2301587">
  <ele>1583.0</ele>
  <time>2026-08-28T17:51:25Z</time>
  <course>179.35</course>
  <speed>3.63</speed>
  <fix>3d</fix>
</trkpt>
<trkpt lat="40.0732838" lon="-105.2301586">
  <ele>1583.07</ele>
  <time>2026-08-28T17:51:25Z</time>
  <course>179.98</course>
  <speed>3.640054944640259</speed>
  <fix>3d</fix>
</trkpt>
<trkpt lat="40.0732879" lon="-105.2301586">
  <ele>1583.0</ele>
  <time>2026-08-28T17:51:25Z</time>
  <course>179.32</course>
  <speed>3.65</speed>
  <fix>3d</fix>
</trkpt>
<trkpt lat="40.0732804" lon="-105.2301586">
  <ele>1583.07</ele>
  <time>2026-08-28T17:51:25Z</time>
  <course>179.98</course>
  <speed>3.670054495508207</speed>
  <fix>3d</fix>
</trkpt>
<trkpt lat="40.0732879" lon="-105.2301586">
  <ele>1583.0</ele>
  <time>2026-08-28T17:51:25Z</time>
  <course>179.32</course>
  <speed>3.65</speed>
  <fix>3d</fix>
</trkpt>
<trkpt lat="40.0732771" lon="-105.2301586">
  <ele>1583.07</ele>
  <time>2026-08-28T17:51:25Z</time>
  <course>179.96</course>
  <speed>3.6900542001439494</speed>
  <fix>3d</fix>
</trkpt>
<trkpt lat="40.0732813" lon="-105.2301585">
  <ele>1583.0</ele>
  <time>2026-08-28T17:51:25Z</time>
  <course>179.31</course>
  <speed>3.69</speed>
  <fix>3d</fix>
</trkpt>
<trkpt lat="40.0732737" lon="-105.2301585">
  <ele>1583.06</ele>
  <time>2026-08-28T17:51:25Z</time>
  <course>179.96</course>
  <speed>3.730053618917562</speed>
  <fix>3d</fix>
</trkpt>
<trkpt lat="40.0732813" lon="-105.2301585">
  <ele>1583.0</ele>
  <time>2026-08-28T17:51:25Z</time>
  <course>179.31</course>
  <speed>3.69</speed>
  <fix>3d</fix>
</trkpt>
<trkpt lat="40.0732703" lon="-105.2301585">
  <ele>1583.06</ele>
  <time>2026-08-28T17:51:25Z</time>
  <course>179.96</course>
  <speed>3.760053191113126</speed>
  <fix>3d</fix>
</trkpt>
<trkpt lat="40.0732813" lon="-105.2301585">
  <ele>1583.0</ele>
  <time>2026-08-28T17:51:25Z</time>
  <course>179.31</course>
  <speed>3.69</speed>
  <fix>3d</fix>
</trkpt>
<trkpt lat="40.0732669" lon="-105.2301584">
  <ele>1583.06</ele>
  <time>2026-08-28T17:51:25Z</time>
  <course>179.96</course>
  <speed>3.790052770081177</speed>
  <fix>3d</fix>
</trkpt>
<trkpt lat="40.0732746" lon="-105.2301583">
  <ele>1583.0</ele>
  <time>2026-08-28T17:51:25Z</time>
  <course>179.3</course>
  <speed>3.74</speed>
  <fix>3d</fix>
</trkpt>
<trkpt lat="40.0732635" lon="-105.2301584">
  <ele>1583.06</ele>
  <time>2026-08-28T17:51:25Z</time>
  <course>179.95</course>
  <speed>3.820052355662158</speed>
  <fix>3d</fix>
</trkpt>
<trkpt lat="40.0732746" lon="-105.2301583">
  <ele>1583.0</ele>
  <time>2026-08-28T17:51:25Z</time>
  <course>179.3</course>
  <speed>3.74</speed>
  <fix>3d</fix>
</trkpt>
<trkpt lat="40.07326" lon="-105.2301583">
  <ele>1583.06</ele>
  <time>2026-08-28T17:51:25Z</time>
  <course>179.95</course>
  <speed>3.8500519477014854</speed>
  <fix>3d</fix>
</trkpt>
<trkpt lat="40.0732678" lon="-105.2301582">
  <ele>1583.0</ele>
  <time>2026-08-28T17:51:25Z</time>
  <course>179.3</course>
  <speed>3.8</speed>
  <fix>3d</fix>
</trkpt>
<trkpt lat="40.0732566" lon="-105.2301583">
  <ele>1583.06</ele>
  <time>2026-08-28T17:51:25Z</time>
  <course>179.95</course>
  <speed>3.8700516792415063</speed>
  <fix>3d</fix>
</trkpt>
<trkpt lat="40.0732678" lon="-105.2301582">
  <ele>1583.0</ele>
  <time>2026-08-28T17:51:25Z</time>
  <course>179.3</course>
  <speed>3.8</speed>
  <fix>3d</fix>
</trkpt>
<trkpt lat="40.073253" lon="-105.2301582">
  <ele>1583.06</ele>
  <time>2026-08-28T17:51:25Z</time>
  <course>179.94</course>
  <speed>3.9000512817141266</speed>
  <fix>3d</fix>
</trkpt>
<trkpt lat="40.0732609" lon="-105.2301581">
  <ele>1583.0</ele>
  <time>2026-08-28T17:51:25Z</time>
  <course>179.3</course>
  <speed>3.86</speed>
  <fix>3d</fix>
</trkpt>
<trkpt lat="40.0732495" lon="-105.2301582">
  <ele>1583.06</ele>
  <time>2026-08-28T17:51:25Z</time>
  <course>179.94</course>
  <speed>3.920051020076142</speed>
  <fix>3d</fix>
</trkpt>
<trkpt lat="40.073254" lon="-105.230158">
  <ele>1583.0</ele>
  <time>2026-08-28T17:51:25Z</time>
  <course>179.3</course>
  <speed>3.91</speed>
  <fix>3d</fix>
</trkpt>
<trkpt lat="40.073246" lon="-105.2301581">
  <ele>1583.06</ele>
  <time>2026-08-28T17:51:25Z</time>
  <course>179.93</course>
  <speed>3.9500506325868785</speed>
  <fix>3d</fix>
</trkpt>
<trkpt lat="40.073254" lon="-105.230158">
  <ele>1583.0</ele>
  <time>2026-08-28T17:51:25Z</time>
  <course>179.3</course>
  <speed>3.91</speed>
  <fix>3d</fix>
</trkpt>
<trkpt lat="40.0732424" lon="-105.2301581">
  <ele>1583.06</ele>
  <time>2026-08-28T17:51:25Z</time>
  <course>179.93</course>
  <speed>3.970050377514119</speed>
  <fix>3d</fix>
</trkpt>
<trkpt lat="40.0732469" lon="-105.2301579">
  <ele>1583.0</ele>
  <time>2026-08-28T17:51:25Z</time>
  <course>179.3</course>
  <speed>3.95</speed>
  <fix>3d</fix>
</trkpt>
<trkpt lat="40.0732388" lon="-105.230158">
  <ele>1583.06</ele>
  <time>2026-08-28T17:51:25Z</time>
  <course>179.92</course>
  <speed>3.9900501249984317</speed>
  <fix>3d</fix>
</trkpt>
<trkpt lat="40.0732469" lon="-105.2301579">
  <ele>1583.0</ele>
  <time>2026-08-28T17:51:25Z</time>
  <course>179.3</course>
  <speed>3.95</speed>
  <fix>3d</fix>
</trkpt>
<trkpt lat="40.0732352" lon="-105.230158">
  <ele>1583.06</ele>
  <time>2026-08-28T17:51:25Z</time>
  <course>179.92</course>
  <speed>4.010049875001557</speed>
  <fix>3d</fix>
</trkpt>
<trkpt lat="40.0732397" lon="-105.2301578">
  <ele>1583.0</ele>
  <time>2026-08-28T17:51:25Z</time>
  <course>179.3</course>
  <speed>3.99</speed>
  <fix>3d</fix>
</trkpt>
<trkpt lat="40.0732315" lon="-105.2301579">
  <ele>1583.06</ele>
  <time>2026-08-28T17:51:25Z</time>
  <course>179.91</course>
  <speed>4.020049750935926</speed>
  <fix>3d</fix>
</trkpt>
<trkpt lat="40.0732397" lon="-105.2301578">
  <ele>1583.0</ele>
  <time>2026-08-28T17:51:25Z</time>
  <course>179.3</course>
  <speed>3.99</speed>
  <fix>3d</fix>
</trkpt>
<trkpt lat="40.0732279" lon="-105.2301579">
  <ele>1583.06</ele>
  <time>2026-08-28T17:51:25Z</time>
  <course>179.91</course>
  <speed>4.030049627485995</speed>
  <fix>3d</fix>
</trkpt>
<trkpt lat="40.0732326" lon="-105.2301577">
  <ele>1583.0</ele>
  <time>2026-08-28T17:51:25Z</time>
  <course>179.3</course>
  <speed>4.02</speed>
  <fix>3d</fix>
</trkpt>
<trkpt lat="40.0732242" lon="-105.2301578">
  <ele>1583.06</ele>
  <time>2026-08-28T17:51:25Z</time>
  <course>179.91</course>
  <speed>4.04004950464719</speed>
  <fix>3d</fix>
</trkpt>
<trkpt lat="40.0732326" lon="-105.2301577">
  <ele>1583.0</ele>
  <time>2026-08-28T17:51:25Z</time>
  <course>179.3</course>
  <speed>4.02</speed>
  <fix>3d</fix>
</trkpt>
<trkpt lat="40.0732205" lon="-105.2301578">
  <ele>1583.06</ele>
  <time>2026-08-28T17:51:25Z</time>
  <course>179.9</course>
  <speed>4.0500493824149855</speed>
  <fix>3d</fix>
</trkpt>
<trkpt lat="40.0732253" lon="-105.2301576">
  <ele>1583.0</ele>
  <time>2026-08-28T17:51:25Z</time>
  <course>179.3</course>
  <speed>4.03</speed>
  <fix>3d</fix>
</trkpt>
<trkpt lat="40.0732169" lon="-105.2301577">
  <ele>1583.06</ele>
  <time>2026-08-28T17:51:25Z</time>
  <course>179.9</course>
  <speed>4.060049260784899</speed>
  <fix>3d</fix>
</trkpt>
<trkpt lat="40.0732253" lon="-105.2301576">
  <ele>1583.0</ele>
  <time>2026-08-28T17:51:25Z</time>
  <course>179.3</course>
  <speed>4.03</speed>
  <fix>3d</fix>
</trkpt>
<trkpt lat="40.0732132" lon="-105.2301577">
  <ele>1583.06</ele>
  <time>2026-08-28T17:51:25Z</time>
  <course>179.89</course>
  <speed>4.060049260784899</speed>
  <fix>3d</fix>
</trkpt>
<trkpt lat="40.073218" lon="-105.2301574">
  <ele>1583.0</ele>
  <time>2026-08-28T17:51:25Z</time>
  <course>179.3</course>
  <speed>4.04</speed>
  <fix>3d</fix>
</trkpt>
<trkpt lat="40.0732095" lon="-105.2301576">
  <ele>1583.07</ele>
  <time>2026-08-28T17:51:25Z</time>
  <course>179.89</course>
  <speed>4.060049260784899</speed>
  <fix>3d</fix>
</trkpt>
<trkpt lat="40.073218" lon="-105.2301574">
  <ele>1583.0</ele>
  <time>2026-08-28T17:51:25Z</time>
  <course>179.3</course>
  <speed>4.04</speed>
  <fix>3d</fix>
</trkpt>
<trkpt lat="40.0732059" lon="-105.2301575">
  <ele>1583.07</ele>
  <time>2026-08-28T17:51:25Z</time>
  <course>179.88</course>
  <speed>4.060049260784899</speed>
  <fix>3d</fix>
</trkpt>
<trkpt lat="40.0732108" lon="-105.2301573">
  <ele>1583.0</ele>
  <time>2026-08-28T17:51:25Z</time>
  <course>179.3</course>
  <speed>4.04</speed>
  <fix>3d</fix>
</trkpt>
<trkpt lat="40.0732022" lon="-105.2301575">
  <ele>1583.08</ele>
  <time>2026-08-28T17:51:25Z</time>
  <course>179.88</course>
  <speed>4.060049260784899</speed>
  <fix>3d</fix>
</trkpt>
<trkpt lat="40.0732108" lon="-105.2301573">
  <ele>1583.0</ele>
  <time>2026-08-28T17:51:25Z</time>
  <course>179.3</course>
  <speed>4.04</speed>
  <fix>3d</fix>
</trkpt>
<trkpt lat="40.0731985" lon="-105.2301574">
  <ele>1583.08</ele>
  <time>2026-08-28T17:51:25Z</time>
  <course>179.87</course>
  <speed>4.060049260784899</speed>
  <fix>3d</fix>
</trkpt>
<trkpt lat="40.0732108" lon="-105.2301573">
  <ele>1583.0</ele>
  <time>2026-08-28T17:51:25Z</time>
  <course>179.3</course>
  <speed>4.04</speed>
  <fix>3d</fix>
</trkpt>
<trkpt lat="40.0731949" lon="-105.2301573">
  <ele>1583.08</ele>
  <time>2026-08-28T17:51:25Z</time>
  <course>179.87</course>
  <speed>4.0500493824149855</speed>
  <fix>3d</fix>
</trkpt>
<trkpt lat="40.0732035" lon="-105.2301572">
  <ele>1583.0</ele>
  <time>2026-08-28T17:51:25Z</time>
  <course>179.3</course>
  <speed>4.04</speed>
  <fix>3d</fix>
</trkpt>
<trkpt lat="40.0731913" lon="-105.2301573">
  <ele>1583.08</ele>
  <time>2026-08-28T17:51:25Z</time>
  <course>179.86</course>
  <speed>4.050111109586995</speed>
  <fix>3d</fix>
</trkpt>
<trkpt lat="40.0732035" lon="-105.2301572">
  <ele>1583.0</ele>
  <time>2026-08-28T17:51:25Z</time>
  <course>179.3</course>
  <speed>4.04</speed>
  <fix>3d</fix>
</trkpt>
<trkpt lat="40.0731877" lon="-105.2301572">
  <ele>1583.08</ele>
  <time>2026-08-28T17:51:25Z</time>
  <course>179.86</course>
  <speed>4.0401113846031524</speed>
  <fix>3d</fix>
</trkpt>
<trkpt lat="40.0731962" lon="-105.2301571">
  <ele>1583.0</ele>
  <time>2026-08-28T17:51:25Z</time>
  <course>179.3</course>
  <speed>4.03</speed>
  <fix>3d</fix>
</trkpt>
<trkpt lat="40.0731841" lon="-105.2301572">
  <ele>1583.09</ele>
  <time>2026-08-28T17:51:25Z</time>
  <course>179.85</course>
  <speed>4.0301116609840975</speed>
  <fix>3d</fix>
</trkpt>
<trkpt lat="40.0731962" lon="-105.2301571">
  <ele>1583.0</ele>
  <time>2026-08-28T17:51:25Z</time>
  <course>179.3</course>
  <speed>4.03</speed>
  <fix>3d</fix>
</trkpt>
<trkpt lat="40.0731805" lon="-105.2301571">
  <ele>1583.09</ele>
  <time>2026-08-28T17:51:25Z</time>
  <course>179.85</course>
  <speed>4.0301116609840975</speed>
  <fix>3d</fix>
</trkpt>
<trkpt lat="40.073189" lon="-105.230157">
  <ele>1583.0</ele>
  <time>2026-08-28T17:51:25Z</time>
  <course>179.3</course>
  <speed>4.02</speed>
  <fix>3d</fix>
</trkpt>
<trkpt lat="40.0731769" lon="-105.230157">
  <ele>1583.09</ele>
  <time>2026-08-28T17:51:25Z</time>
  <course>179.85</course>
  <speed>4.020111938740015</speed>
  <fix>3d</fix>
</trkpt>
<trkpt lat="40.0731818" lon="-105.2301569">
  <ele>1583.0</ele>
  <time>2026-08-28T17:51:25Z</time>
  <course>179.3</course>
  <speed>4.01</speed>
  <fix>3d</fix>
</trkpt>
<trkpt lat="40.0731734" lon="-105.230157">
  <ele>1583.09</ele>
  <time>2026-08-28T17:51:25Z</time>
  <course>179.84</course>
  <speed>4.020111938740015</speed>
  <fix>3d</fix>
</trkpt>
<trkpt lat="40.0731818" lon="-105.2301569">
  <ele>1583.0</ele>
  <time>2026-08-28T17:51:25Z</time>
  <course>179.3</course>
  <speed>4.01</speed>
  <fix>3d</fix>
</trkpt>
<trkpt lat="40.0731698" lon="-105.2301569">
  <ele>1583.09</ele>
  <time>2026-08-28T17:51:25Z</time>
  <course>179.84</course>
  <speed>4.01011221788119</speed>
  <fix>3d</fix>
</trkpt>
<trkpt lat="40.0731746" lon="-105.2301568">
  <ele>1583.0</ele>
  <time>2026-08-28T17:51:25Z</time>
  <course>179.3</course>
  <speed>4.0</speed>
  <fix>3d</fix>
</trkpt>
<trkpt lat="40.0731662" lon="-105.2301569">
  <ele>1583.09</ele>
  <time>2026-08-28T17:51:25Z</time>
  <course>179.84</course>
  <speed>4.01011221788119</speed>
  <fix>3d</fix>
</trkpt>
<trkpt lat="40.0731746" lon="-105.2301568">
  <ele>1583.0</ele>
  <time>2026-08-28T17:51:25Z</time>
  <course>179.3</course>
  <speed>4.0</speed>
  <fix>3d</fix>
</trkpt>
<trkpt lat="40.0731626" lon="-105.2301568">
  <ele>1583.09</ele>
  <time>2026-08-28T17:51:25Z</time>
  <course>179.83</course>
  <speed>4.01011221788119</speed>
  <fix>3d</fix>
</trkpt>
<trkpt lat="40.0731673" lon="-105.2301567">
  <ele>1583.0</ele>
  <time>2026-08-28T17:51:25Z</time>
  <course>179.3</course>
  <speed>3.99</speed>
  <fix>3d</fix>
</trkpt>
<trkpt lat="40.073159" lon="-105.2301567">
  <ele>1583.09</ele>
  <time>2026-08-28T17:51:25Z</time>
  <course>179.83</course>
  <speed>4.000112498418013</speed>
  <fix>3d</fix>
</trkpt>
<trkpt lat="40.0731673" lon="-105.2301567">
  <ele>1583.0</ele>
  <time>2026-08-28T17:51:25Z</time>
  <course>179.3</course>
  <speed>3.99</speed>
  <fix>3d</fix>
</trkpt>
<trkpt lat="40.0731554" lon="-105.2301567">
  <ele>1583.1</ele>
  <time>2026-08-28T17:51:25Z</time>
  <course>179.83</course>
  <speed>3.990112780360976</speed>
  <fix>3d</fix>
</trkpt>
<trkpt lat="40.0731602" lon="-105.2301565">
  <ele>1583.0</ele>
  <time>2026-08-28T17:51:25Z</time>
  <course>179.3</course>
  <speed>3.98</speed>
  <fix>3d</fix>
</trkpt>
<trkpt lat="40.0731518" lon="-105.2301566">
  <ele>1583.09</ele>
  <time>2026-08-28T17:51:25Z</time>
  <course>179.82</course>
  <speed>3.970113348507823</speed>
  <fix>3d</fix>
</trkpt>
<trkpt lat="40.0731602" lon="-105.2301565">
  <ele>1583.0</ele>
  <time>2026-08-28T17:51:25Z</time>
  <course>179.3</course>
  <speed>3.98</speed>
  <fix>3d</fix>
</trkpt>
<trkpt lat="40.0731482" lon="-105.2301566">
  <ele>1583.09</ele>
  <time>2026-08-28T17:51:25Z</time>
  <course>179.82</course>
  <speed>3.9301145021487605</speed>
  <fix>3d</fix>
</trkpt>
<trkpt lat="40.0731531" lon="-105.2301564">
  <ele>1583.0</ele>
  <time>2026-08-28T17:51:25Z</time>
  <course>179.3</course>
  <speed>3.94</speed>
  <fix>3d</fix>
</trkpt>
<trkpt lat="40.0731447" lon="-105.2301565">
  <ele>1583.09</ele>
  <time>2026-08-28T17:51:25Z</time>
  <course>179.82</course>
  <speed>3.8701162773229436</speed>
  <fix>3d</fix>
</trkpt>
<trkpt lat="40.0731531" lon="-105.2301564">
  <ele>1583.0</ele>
  <time>2026-08-28T17:51:25Z</time>
  <course>179.3</course>
  <speed>3.94</speed>
  <fix>3d</fix>
</trkpt>
<trkpt lat="40.0731413" lon="-105.2301564">
  <ele>1583.09</ele>
  <time>2026-08-28T17:51:25Z</time>
  <course>179.81</course>
  <speed>3.8001184192074855</speed>
  <fix>3d</fix>
</trkpt>
<trkpt lat="40.0731461" lon="-105.2301563">
  <ele>1583.0</ele>
  <time>2026-08-28T17:51:25Z</time>
  <course>179.3</course>
  <speed>3.84</speed>
  <fix>3d</fix>
</trkpt>
<trkpt lat="40.0731379" lon="-105.2301564">
  <ele>1583.08</ele>
  <time>2026-08-28T17:51:25Z</time>
  <course>179.81</course>
  <speed>3.7201209657751724</speed>
  <fix>3d</fix>
</trkpt>
<trkpt lat="40.0731461" lon="-105.2301563">
  <ele>1583.0</ele>
  <time>2026-08-28T17:51:25Z</time>
  <course>179.3</course>
  <speed>3.84</speed>
  <fix>3d</fix>
</trkpt>
<trkpt lat="40.0731346" lon="-105.2301563">
  <ele>1583.08</ele>
  <time>2026-08-28T17:51:25Z</time>
  <course>179.81</course>
  <speed>3.6301239648254437</speed>
  <fix>3d</fix>
</trkpt>
<trkpt lat="40.0731393" lon="-105.2301562">
  <ele>1583.0</ele>
  <time>2026-08-28T17:51:25Z</time>
  <course>179.3</course>
  <speed>3.69</speed>
  <fix>3d</fix>
</trkpt>
<trkpt lat="40.0731314" lon="-105.2301562">
  <ele>1583.08</ele>
  <time>2026-08-28T17:51:25Z</time>
  <course>179.81</course>
  <speed>3.5302266216207703</speed>
  <fix>3d</fix>
</trkpt>
<trkpt lat="40.0731393" lon="-105.2301562">
  <ele>1583.0</ele>
  <time>2026-08-28T17:51:25Z</time>
  <course>179.3</course>
  <speed>3.69</speed>
  <fix>3d</fix>
</trkpt>
<trkpt lat="40.0731283" lon="-105.2301562">
  <ele>1583.08</ele>
  <time>2026-08-28T17:51:25Z</time>
  <course>179.81</course>
  <speed>3.42023391012954</speed>
  <fix>3d</fix>
</trkpt>
<trkpt lat="40.0731393" lon="-105.2301562">
  <ele>1583.0</ele>
  <time>2026-08-28T17:51:25Z</time>
  <course>179.3</course>
  <speed>3.69</speed>
  <fix>3d</fix>
</trkpt>
<trkpt lat="40.0731253" lon="-105.2301561">
  <ele>1583.08</ele>
  <time>2026-08-28T17:51:25Z</time>
  <course>179.8</course>
  <speed>3.3102416830195347</speed>
  <fix>3d</fix>
</trkpt>
<trkpt lat="40.0731328" lon="-105.2301561">
  <ele>1583.0</ele>
  <time>2026-08-28T17:51:25Z</time>
  <course>179.3</course>
  <speed>3.5</speed>
  <fix>3d</fix>
</trkpt>
<trkpt lat="40.0731225" lon="-105.2301561">
  <ele>1583.08</ele>
  <time>2026-08-28T17:51:25Z</time>
  <course>179.8</course>
  <speed>3.180251562376788</speed>
  <fix>3d</fix>
</trkpt>
<trkpt lat="40.0731328" lon="-105.2301561">
  <ele>1583.0</ele>
  <time>2026-08-28T17:51:25Z</time>
  <course>179.3</course>
  <speed>3.5</speed>
  <fix>3d</fix>
</trkpt>
<trkpt lat="40.0731197" lon="-105.230156">
  <ele>1583.08</ele>
  <time>2026-08-28T17:51:25Z</time>
  <course>179.83</course>
  <speed>3.0601470552899905</speed>
  <fix>3d</fix>
</trkpt>
<trkpt lat="40.0731267" lon="-105.230156">
  <ele>1583.0</ele>
  <time>2026-08-28T17:51:25Z</time>
  <course>179.3</course>
  <speed>3.28</speed>
  <fix>3d</fix>
</trkpt>
<trkpt lat="40.0731171" lon="-105.230156">
  <ele>1583.08</ele>
  <time>2026-08-28T17:51:25Z</time>
  <course>179.87</course>
  <speed>2.9301535795927145</speed>
  <fix>3d</fix>
</trkpt>
<trkpt lat="40.0731267" lon="-105.230156">
  <ele>1583.0</ele>
  <time>2026-08-28T17:51:25Z</time>
  <course>179.3</course>
  <speed>3.28</speed>
  <fix>3d</fix>
</trkpt>
<trkpt lat="40.0731146" lon="-105.2301559">
  <ele>1583.08</ele>
  <time>2026-08-28T17:51:25Z</time>
  <course>179.9</course>
  <speed>2.8001607096736434</speed>
  <fix>3d</fix>
</trkpt>
<trkpt lat="40.073121" lon="-105.2301559">
  <ele>1583.0</ele>
  <time>2026-08-28T17:51:25Z</time>
  <course>179.33</course>
  <speed>3.04</speed>
  <fix>3d</fix>
</trkpt>
<trkpt lat="40.0731122" lon="-105.2301559">
  <ele>1583.08</ele>
  <time>2026-08-28T17:51:25Z</time>
  <course>179.94</course>
  <speed>2.6701685340067955</speed>
  <fix>3d</fix>
</trkpt>
<trkpt lat="40.073121" lon="-105.2301559">
  <ele>1583.0</ele>
  <time>2026-08-28T17:51:25Z</time>
  <course>179.33</course>
  <speed>3.04</speed>
  <fix>3d</fix>
</trkpt>
<trkpt lat="40.0731099" lon="-105.2301558">
  <ele>1583.08</ele>
  <time>2026-08-28T17:51:25Z</time>
  <course>179.97</course>
  <speed>2.530177859360879</speed>
  <fix>3d</fix>
</trkpt>
<trkpt lat="40.0731157" lon="-105.2301559">
  <ele>1583.0</ele>
  <time>2026-08-28T17:51:25Z</time>
  <course>179.4</course>
  <speed>2.79</speed>
  <fix>3d</fix>
</trkpt>
<trkpt lat="40.0731077" lon="-105.2301558">
  <ele>1583.08</ele>
  <time>2026-08-28T17:51:25Z</time>
  <course>180.02</course>
  <speed>2.4000833318866244</speed>
  <fix>3d</fix>
</trkpt>
<trkpt lat="40.073111" lon="-105.2301558">
  <ele>1583.0</ele>
  <time>2026-08-28T17:51:25Z</time>
  <course>179.48</course>
  <speed>2.53</speed>
  <fix>3d</fix>
</trkpt>
<trkpt lat="40.0731057" lon="-105.2301558">
  <ele>1583.08</ele>
  <time>2026-08-28T17:51:25Z</time>
  <course>180.05</course>
  <speed>2.280087717610882</speed>
  <fix>3d</fix>
</trkpt>
<trkpt lat="40.073111" lon="-105.2301558">
  <ele>1583.0</ele>
  <time>2026-08-28T17:51:25Z</time>
  <course>179.48</course>
  <speed>2.53</speed>
  <fix>3d</fix>
</trkpt>
<trkpt lat="40.0731038" lon="-105.2301557">
  <ele>1583.08</ele>
  <time>2026-08-28T17:51:25Z</time>
  <course>180.08</course>
  <speed>2.1500930212435</speed>
  <fix>3d</fix>
</trkpt>
<trkpt lat="40.0731066" lon="-105.2301557">
  <ele>1583.0</ele>
  <time>2026-08-28T17:51:25Z</time>
  <course>179.54</course>
  <speed>2.28</speed>
  <fix>3d</fix>
</trkpt>
<trkpt lat="40.0731019" lon="-105.2301557">
  <ele>1583.08</ele>
  <time>2026-08-28T17:51:25Z</time>
  <course>180.1</course>
  <speed>2.020099007474634</speed>
  <fix>3d</fix>
</trkpt>
<trkpt lat="40.0731066" lon="-105.2301557">
  <ele>1583.0</ele>
  <time>2026-08-28T17:51:25Z</time>
  <course>179.54</course>
  <speed>2.28</speed>
  <fix>3d</fix>
</trkpt>
<trkpt lat="40.0731002" lon="-105.2301557">
  <ele>1583.08</ele>
  <time>2026-08-28T17:51:25Z</time>
  <course>180.13</course>
  <speed>1.910104709171725</speed>
  <fix>3d</fix>
</trkpt>
<trkpt lat="40.0731028" lon="-105.2301557">
  <ele>1583.0</ele>
  <time>2026-08-28T17:51:25Z</time>
  <course>179.6</course>
  <speed>2.04</speed>
  <fix>3d</fix>
</trkpt>
<trkpt lat="40.0730985" lon="-105.2301557">
  <ele>1583.08</ele>
  <time>2026-08-28T17:51:25Z</time>
  <course>180.15</course>
  <speed>1.8301092863542332</speed>
  <fix>3d</fix>
</trkpt>
<trkpt lat="40.0731028" lon="-105.2301557">
  <ele>1583.0</ele>
  <time>2026-08-28T17:51:25Z</time>
  <course>179.6</course>
  <speed>2.04</speed>
  <fix>3d</fix>
</trkpt>
<trkpt lat="40.0730969" lon="-105.2301556">
  <ele>1583.08</ele>
  <time>2026-08-28T17:51:25Z</time>
  <course>180.17</course>
  <speed>1.7801123560045304</speed>
  <fix>3d</fix>
</trkpt>
<trkpt lat="40.0730992" lon="-105.2301557">
  <ele>1583.0</ele>
  <time>2026-08-28T17:51:25Z</time>
  <course>179.65</course>
  <speed>1.86</speed>
  <fix>3d</fix>
</trkpt>
<trkpt lat="40.0730953" lon="-105.2301556">
  <ele>1583.08</ele>
  <time>2026-08-28T17:51:25Z</time>
  <course>180.2</course>
  <speed>1.760113632695344</speed>
  <fix>3d</fix>
</trkpt>
<trkpt lat="40.0730992" lon="-105.2301557">
  <ele>1583.0</ele>
  <time>2026-08-28T17:51:25Z</time>
  <course>179.65</course>
  <speed>1.86</speed>
  <fix>3d</fix>
</trkpt>
<trkpt lat="40.0730938" lon="-105.2301556">
  <ele>1583.08</ele>
  <time>2026-08-28T17:51:25Z</time>
  <course>180.2</course>
  <speed>1.7801123560045304</speed>
  <fix>3d</fix>
</trkpt>
<trkpt lat="40.0730959" lon="-105.2301557">
  <ele>1583.0</ele>
  <time>2026-08-28T17:51:25Z</time>
  <course>179.69</course>
  <speed>1.79</speed>
  <fix>3d</fix>
</trkpt>
<trkpt lat="40.0730921" lon="-105.2301556">
  <ele>1583.08</ele>
  <time>2026-08-28T17:51:25Z</time>
  <course>180.2</course>
  <speed>1.8101104938649464</speed>
  <fix>3d</fix>
</trkpt>
<trkpt lat="40.0730959" lon="-105.2301557">
  <ele>1583.0</ele>
  <time>2026-08-28T17:51:25Z</time>
  <course>179.69</course>
  <speed>1.79</speed>
  <fix>3d</fix>
</trkpt>
<trkpt lat="40.0730905" lon="-105.2301556">
  <ele>1583.08</ele>
  <time>2026-08-28T17:51:25Z</time>
  <course>180.2</course>
  <speed>1.8701069488133562</speed>
  <fix>3d</fix>
</trkpt>
<trkpt lat="40.0730927" lon="-105.2301557">
  <ele>1583.0</ele>
  <time>2026-08-28T17:51:25Z</time>
  <course>179.71</course>
  <speed>1.84</speed>
  <fix>3d</fix>
</trkpt>
<trkpt lat="40.0730888" lon="-105.2301556">
  <ele>1583.08</ele>
  <time>2026-08-28T17:51:25Z</time>
  <course>180.19</course>
  <speed>1.9500256408570633</speed>
  <fix>3d</fix>
</trkpt>
<trkpt lat="40.0730927" lon="-105.2301557">
  <ele>1583.0</ele>
  <time>2026-08-28T17:51:25Z</time>
  <course>179.71</course>
  <speed>1.84</speed>
  <fix>3d</fix>
</trkpt>
<trkpt lat="40.073087" lon="-105.2301556">
  <ele>1583.08</ele>
  <time>2026-08-28T17:51:25Z</time>
  <course>180.19</course>
  <speed>2.0500243900988107</speed>
  <fix>3d</fix>
</trkpt>
<trkpt lat="40.0730893" lon="-105.2301556">
  <ele>1583.0</ele>
  <time>2026-08-28T17:51:25Z</time>
  <course>179.71</course>
  <speed>1.97</speed>
  <fix>3d</fix>
</trkpt>
<trkpt lat="40.073085" lon="-105.2301555">
  <ele>1583.08</ele>
  <time>2026-08-28T17:51:25Z</time>
  <course>180.19</course>
  <speed>2.160023148024113</speed>
  <fix>3d</fix>
</trkpt>
<trkpt lat="40.0730893" lon="-105.2301556">
  <ele>1583.0</ele>
  <time>2026-08-28T17:51:25Z</time>
  <course>179.71</course>
  <speed>1.97</speed>
  <fix>3d</fix>
</trkpt>
<trkpt lat="40.073083" lon="-105.2301555">
  <ele>1583.08</ele>
  <time>2026-08-28T17:51:25Z</time>
  <course>180.19</course>
  <speed>2.2800219297190982</speed>
  <fix>3d</fix>
</trkpt>
<trkpt lat="40.0730893" lon="-105.2301556">
  <ele>1583.0</ele>
  <time>2026-08-28T17:51:25Z</time>
  <course>179.71</course>
  <speed>1.97</speed>
  <fix>3d</fix>
</trkpt>
<trkpt lat="40.0730809" lon="-105.2301555">
  <ele>1583.08</ele>
  <time>2026-08-28T17:51:25Z</time>
  <course>180.19</course>
  <speed>2.4100207467986663</speed>
  <fix>3d</fix>
</trkpt>
<trkpt lat="40.0730856" lon="-105.2301555">
  <ele>1583.0</ele>
  <time>2026-08-28T17:51:25Z</time>
  <course>179.71</course>
  <speed>2.18</speed>
  <fix>3d</fix>
</trkpt>
<trkpt lat="40.0730787" lon="-105.2301555">
  <ele>1583.08</ele>
  <time>2026-08-28T17:51:25Z</time>
  <course>180.19</course>
  <speed>2.540019684963091</speed>
  <fix>3d</fix>
</trkpt>
<trkpt lat="40.0730856" lon="-105.2301555">
  <ele>1583.0</ele>
  <time>2026-08-28T17:51:25Z</time>
  <course>179.71</course>
  <speed>2.18</speed>
  <fix>3d</fix>
</trkpt>
<trkpt lat="40.0730763" lon="-105.2301555">
  <ele>1583.07</ele>
  <time>2026-08-28T17:51:25Z</time>
  <course>180.19</course>
  <speed>2.6800186566514794</speed>
  <fix>3d</fix>
</trkpt>
<trkpt lat="40.0730815" lon="-105.2301555">
  <ele>1583.0</ele>
  <time>2026-08-28T17:51:25Z</time>
  <course>179.71</course>
  <speed>2.42</speed>
  <fix>3d</fix>
</trkpt>
<trkpt lat="40.0730738" lon="-105.2301555">
  <ele>1583.07</ele>
  <time>2026-08-28T17:51:25Z</time>
  <course>180.18</course>
  <speed>2.8200177304407146</speed>
  <fix>3d</fix>
</trkpt>
<trkpt lat="40.0730815" lon="-105.2301555">
  <ele>1583.0</ele>
  <time>2026-08-28T17:51:25Z</time>
  <course>179.71</course>
  <speed>2.42</speed>
  <fix>3d</fix>
</trkpt>
<trkpt lat="40.0730712" lon="-105.2301555">
  <ele>1583.07</ele>
  <time>2026-08-28T17:51:25Z</time>
  <course>180.18</course>
  <speed>2.9600168918436935</speed>
  <fix>3d</fix>
</trkpt>
<trkpt lat="40.0730768" lon="-105.2301555">
  <ele>1583.0</ele>
  <time>2026-08-28T17:51:25Z</time>
  <course>179.71</course>
  <speed>2.69</speed>
  <fix>3d</fix>
</trkpt>
<trkpt lat="40.0730685" lon="-105.2301555">
  <ele>1583.07</ele>
  <time>2026-08-28T17:51:25Z</time>
  <course>180.18</course>
  <speed>3.100016128990299</speed>
  <fix>3d</fix>
</trkpt>
<trkpt lat="40.0730717" lon="-105.2301555">
  <ele>1583.0</ele>
  <time>2026-08-28T17:51:25Z</time>
  <course>179.71</course>
  <speed>2.97</speed>
  <fix>3d</fix>
</trkpt>
<trkpt lat="40.0730656" lon="-105.2301555">
  <ele>1583.06</ele>
  <time>2026-08-28T17:51:25Z</time>
  <course>180.18</course>
  <speed>3.2400154320620143</speed>
  <fix>3d</fix>
</trkpt>
<trkpt lat="40.0730717" lon="-105.2301555">
  <ele>1583.0</ele>
  <time>2026-08-28T17:51:25Z</time>
  <course>179.71</course>
  <speed>2.97</speed>
  <fix>3d</fix>
</trkpt>
<trkpt lat="40.0730626" lon="-105.2301554">
  <ele>1583.06</ele>
  <time>2026-08-28T17:51:25Z</time>
  <course>180.18</course>
  <speed>3.3800147928670374</speed>
  <fix>3d</fix>
</trkpt>
<trkpt lat="40.0730662" lon="-105.2301555">
  <ele>1583.0</ele>
  <time>2026-08-28T17:51:25Z</time>
  <course>179.71</course>
  <speed>3.24</speed>
  <fix>3d</fix>
</trkpt>
<trkpt lat="40.0730595" lon="-105.2301554">
  <ele>1583.05</ele>
  <time>2026-08-28T17:51:25Z</time>
  <course>180.18</course>
  <speed>3.5100142449853395</speed>
  <fix>3d</fix>
</trkpt>
<trkpt lat="40.0730662" lon="-105.2301555">
  <ele>1583.0</ele>
  <time>2026-08-28T17:51:25Z</time>
  <course>179.71</course>
  <speed>3.24</speed>
  <fix>3d</fix>
</trkpt>
<trkpt lat="40.0730562" lon="-105.2301554">
  <ele>1583.05</ele>
  <time>2026-08-28T17:51:25Z</time>
  <course>180.18</course>
  <speed>3.6400137362378184</speed>
  <fix>3d</fix>
</trkpt>
<trkpt lat="40.0730601" lon="-105.2301554">
  <ele>1583.0</ele>
  <time>2026-08-28T17:51:25Z</time>
  <course>179.71</course>
  <speed>3.5</speed>
  <fix>3d</fix>
</trkpt>
<trkpt lat="40.0730528" lon="-105.2301554">
  <ele>1583.05</ele>
  <time>2026-08-28T17:51:25Z</time>
  <course>180.17</course>
  <speed>3.7600132978488254</speed>
  <fix>3d</fix>
</trkpt>
<trkpt lat="40.0730601" lon="-105.2301554">
  <ele>1583.0</ele>
  <time>2026-08-28T17:51:25Z</time>
  <course>179.71</course>
  <speed>3.5</speed>
  <fix>3d</fix>
</trkpt>
<trkpt lat="40.0730493" lon="-105.2301554">
  <ele>1583.05</ele>
  <time>2026-08-28T17:51:25Z</time>
  <course>180.17</course>
  <speed>3.8800128865765378</speed>
  <fix>3d</fix>
</trkpt>
<trkpt lat="40.0730536" lon="-105.2301554">
  <ele>1583.0</ele>
  <time>2026-08-28T17:51:25Z</time>
  <course>179.71</course>
  <speed>3.74</speed>
  <fix>3d</fix>
</trkpt>
<trkpt lat="40.0730457" lon="-105.2301554">
  <ele>1583.05</ele>
  <time>2026-08-28T17:51:25Z</time>
  <course>180.17</course>
  <speed>3.9900125313086425</speed>
  <fix>3d</fix>
</trkpt>
<trkpt lat="40.0730536" lon="-105.2301554">
  <ele>1583.0</ele>
  <time>2026-08-28T17:51:25Z</time>
  <course>179.71</course>
  <speed>3.74</speed>
  <fix>3d</fix>
</trkpt>
<trkpt lat="40.073042" lon="-105.2301554">
  <ele>1583.05</ele>
  <time>2026-08-28T17:51:25Z</time>
  <course>180.17</course>
  <speed>4.100012195103814</speed>
  <fix>3d</fix>
</trkpt>
<trkpt lat="40.0730467" lon="-105.2301553">
  <ele>1583.0</ele>
  <time>2026-08-28T17:51:25Z</time>
  <course>179.71</course>
  <speed>3.97</speed>
  <fix>3d</fix>
</trkpt>
<trkpt lat="40.0730383" lon="-105.2301554">
  <ele>1583.05</ele>
  <time>2026-08-28T17:51:25Z</time>
  <course>180.17</course>
  <speed>4.200011904745033</speed>
  <fix>3d</fix>
</trkpt>
<trkpt lat="40.0730467" lon="-105.2301553">
  <ele>1583.0</ele>
  <time>2026-08-28T17:51:25Z</time>
  <course>179.71</course>
  <speed>3.97</speed>
  <fix>3d</fix>
</trkpt>
<trkpt lat="40.0730344" lon="-105.2301553">
  <ele>1583.05</ele>
  <time>2026-08-28T17:51:25Z</time>
  <course>180.16</course>
  <speed>4.300011627891255</speed>
  <fix>3d</fix>
</trkpt>
<trkpt lat="40.0730393" lon="-105.2301552">
  <ele>1583.0</ele>
  <time>2026-08-28T17:51:25Z</time>
  <course>179.71</course>
  <speed>4.17</speed>
  <fix>3d</fix>
</trkpt>
<trkpt lat="40.0730304" lon="-105.2301553">
  <ele>1583.06</ele>
  <time>2026-08-28T17:51:25Z</time>
  <course>180.16</course>
  <speed>4.400011363621689</speed>
  <fix>3d</fix>
</trkpt>
<trkpt lat="40.0730393" lon="-105.2301552">
  <ele>1583.0</ele>
  <time>2026-08-28T17:51:25Z</time>
  <course>179.71</course>
  <speed>4.17</speed>
  <fix>3d</fix>
</trkpt>
<trkpt lat="40.0730264" lon="-105.2301553">
  <ele>1583.06</ele>
  <time>2026-08-28T17:51:25Z</time>
  <course>180.16</course>
  <speed>4.490011135843652</speed>
  <fix>3d</fix>
</trkpt>
<trkpt lat="40.0730317" lon="-105.2301552">
  <ele>1583.0</ele>
  <time>2026-08-28T17:51:25Z</time>
  <course>179.71</course>
  <speed>4.36</speed>
  <fix>3d</fix>
</trkpt>
<trkpt lat="40.0730223" lon="-105.2301553">
  <ele>1583.06</ele>
  <time>2026-08-28T17:51:25Z</time>
  <course>180.16</course>
  <speed>4.580010917017557</speed>
  <fix>3d</fix>
</trkpt>
<trkpt lat="40.0730317" lon="-105.2301552">
  <ele>1583.0</ele>
  <time>2026-08-28T17:51:25Z</time>
  <course>179.71</course>
  <speed>4.36</speed>
  <fix>3d</fix>
</trkpt>
<trkpt lat="40.0730181" lon="-105.2301552">
  <ele>1583.07</ele>
  <time>2026-08-28T17:51:25Z</time>
  <course>180.15</course>
  <speed>4.670010706625843</speed>
  <fix>3d</fix>
</trkpt>
<trkpt lat="40.0730317" lon="-105.2301552">
  <ele>1583.0</ele>
  <time>2026-08-28T17:51:25Z</time>
  <course>179.71</course>
  <speed>4.36</speed>
  <fix>3d</fix>
</trkpt>
<trkpt lat="40.0730139" lon="-105.2301552">
  <ele>1583.07</ele>
  <time>2026-08-28T17:51:25Z</time>
  <course>180.15</course>
  <speed>4.750010526304126</speed>
  <fix>3d</fix>
</trkpt>
<trkpt lat="40.0730236" lon="-105.2301552">
  <ele>1583.0</ele>
  <time>2026-08-28T17:51:25Z</time>
  <course>179.71</course>
  <speed>4.53</speed>
  <fix>3d</fix>
</trkpt>
<trkpt lat="40.0730096" lon="-105.2301552">
  <ele>1583.07</ele>
  <time>2026-08-28T17:51:25Z</time>
  <course>180.15</course>
  <speed>4.830010351955781</speed>
  <fix>3d</fix>
</trkpt>
<trkpt lat="40.0730236" lon="-105.2301552">
  <ele>1583.0</ele>
  <time>2026-08-28T17:51:25Z</time>
  <course>179.71</course>
  <speed>4.53</speed>
  <fix>3d</fix>
</trkpt>
<trkpt lat="40.0730053" lon="-105.2301552">
  <ele>1583.08</ele>
  <time>2026-08-28T17:51:25Z</time>
  <course>180.15</course>
  <speed>4.910010183288829</speed>
  <fix>3d</fix>
</trkpt>
<trkpt lat="40.0730153" lon="-105.2301551">
  <ele>1583.0</ele>
  <time>2026-08-28T17:51:25Z</time>
  <course>179.71</course>
  <speed>4.7</speed>
  <fix>3d</fix>
</trkpt>
<trkpt lat="40.0730009" lon="-105.2301551">
  <ele>1583.08</ele>
  <time>2026-08-28T17:51:25Z</time>
  <course>180.15</course>
  <speed>4.980010040150521</speed>
  <fix>3d</fix>
</trkpt>
<trkpt lat="40.0730153" lon="-105.2301551">
  <ele>1583.0</ele>
  <time>2026-08-28T17:51:25Z</time>
  <course>179.71</course>
  <speed>4.7</speed>
  <fix>3d</fix>
</trkpt>
<trkpt lat="40.0729964" lon="-105.2301551">
  <ele>1583.08</ele>
  <time>2026-08-28T17:51:25Z</time>
  <course>180.14</course>
  <speed>5.060009881413277</speed>
  <fix>3d</fix>
</trkpt>
<trkpt lat="40.0730068" lon="-105.230155">
  <ele>1583.0</ele>
  <time>2026-08-28T17:51:25Z</time>
  <course>179.71</course>
  <speed>4.86</speed>
  <fix>3d</fix>
</trkpt>
<trkpt lat="40.0729919" lon="-105.2301551">
  <ele>1583.08</ele>
  <time>2026-08-28T17:51:25Z</time>
  <course>180.14</course>
  <speed>5.130009746579435</speed>
  <fix>3d</fix>
</trkpt>
<trkpt lat="40.0730068" lon="-105.230155">
  <ele>1583.0</ele>
  <time>2026-08-28T17:51:25Z</time>
  <course>179.71</course>
  <speed>4.86</speed>
  <fix>3d</fix>
</trkpt>
<trkpt lat="40.0729873" lon="-105.230155">
  <ele>1583.08</ele>
  <time>2026-08-28T17:51:25Z</time>
  <course>180.14</course>
  <speed>5.200009615375725</speed>
  <fix>3d</fix>
</trkpt>
<trkpt lat="40.0729979" lon="-105.230155">
  <ele>1583.0</ele>
  <time>2026-08-28T17:51:25Z</time>
  <course>179.71</course>
  <speed>5.01</speed>
  <fix>3d</fix>
</trkpt>
<trkpt lat="40.0729826" lon="-105.230155">
  <ele>1583.08</ele>
  <time>2026-08-28T17:51:25Z</time>
  <course>180.14</course>
  <speed>5.250038095099882</speed>
  <fix>3d</fix>
</trkpt>
<trkpt lat="40.0729887" lon="-105.230155">
  <ele>1583.0</ele>
  <time>2026-08-28T17:51:25Z</time>
  <course>179.71</course>
  <speed>5.15</speed>
  <fix>3d</fix>
</trkpt>
<trkpt lat="40.0729779" lon="-105.230155">
  <ele>1583.08</ele>
  <time>2026-08-28T17:51:25Z</time>
  <course>180.13</course>
  <speed>5.290037807048264</speed>
  <fix>3d</fix>
</trkpt>
<trkpt lat="40.0729887" lon="-105.230155">
  <ele>1583.0</ele>
  <time>2026-08-28T17:51:25Z</time>
  <course>179.71</course>
  <speed>5.15</speed>
  <fix>3d</fix>
</trkpt>
<trkpt lat="40.0729732" lon="-105.2301549">
  <ele>1583.08</ele>
  <time>2026-08-28T17:51:25Z</time>
  <course>180.13</course>
  <speed>5.320037593852134</speed>
  <fix>3d</fix>
</trkpt>
<trkpt lat="40.0729793" lon="-105.2301549">
  <ele>1583.0</ele>
  <time>2026-08-28T17:51:25Z</time>
  <course>179.71</course>
  <speed>5.25</speed>
  <fix>3d</fix>
</trkpt>
<trkpt lat="40.0729684" lon="-105.2301549">
  <ele>1583.08</ele>
  <time>2026-08-28T17:51:25Z</time>
  <course>180.13</course>
  <speed>5.350037383046963</speed>
  <fix>3d</fix>
</trkpt>
<trkpt lat="40.0729793" lon="-105.2301549">
  <ele>1583.0</ele>
  <time>2026-08-28T17:51:25Z</time>
  <course>179.71</course>
  <speed>5.25</speed>
  <fix>3d</fix>
</trkpt>
<trkpt lat="40.0729635" lon="-105.2301549">
  <ele>1583.08</ele>
  <time>2026-08-28T17:51:25Z</time>
  <course>180.13</course>
  <speed>5.360037313302959</speed>
  <fix>3d</fix>
</trkpt>
<trkpt lat="40.0729699" lon="-105.2301548">
  <ele>1583.0</ele>
  <time>2026-08-28T17:51:25Z</time>
  <course>179.71</course>
  <speed>5.3</speed>
  <fix>3d</fix>
</trkpt>
<trkpt lat="40.0729587" lon="-105.2301548">
  <ele>1583.08</ele>
  <time>2026-08-28T17:51:25Z</time>
  <course>180.13</course>
  <speed>5.360037313302959</speed>
  <fix>3d</fix>
</trkpt>
<trkpt lat="40.0729699" lon="-105.2301548">
  <ele>1583.0</ele>
  <time>2026-08-28T17:51:25Z</time>
  <course>179.71</course>
  <speed>5.3</speed>
  <fix>3d</fix>
</trkpt>
<trkpt lat="40.0729539" lon="-105.2301548">
  <ele>1583.08</ele>
  <time>2026-08-28T17:51:25Z</time>
  <course>180.12</course>
  <speed>5.360037313302959</speed>
  <fix>3d</fix>
</trkpt>
<trkpt lat="40.0729604" lon="-105.2301547">
  <ele>1583.0</ele>
  <time>2026-08-28T17:51:25Z</time>
  <course>179.71</course>
  <speed>5.31</speed>
  <fix>3d</fix>
</trkpt>
<trkpt lat="40.072949" lon="-105.2301548">
  <ele>1583.08</ele>
  <time>2026-08-28T17:51:25Z</time>
  <course>180.12</course>
  <speed>5.340037453052179</speed>
  <fix>3d</fix>
</trkpt>
<trkpt lat="40.0729604" lon="-105.2301547">
  <ele>1583.0</ele>
  <time>2026-08-28T17:51:25Z</time>
  <course>179.71</course>
  <speed>5.31</speed>
  <fix>3d</fix>
</trkpt>
<trkpt lat="40.0729442" lon="-105.2301547">
  <ele>1583.08</ele>
  <time>2026-08-28T17:51:25Z</time>
  <course>180.12</course>
  <speed>5.330037523320075</speed>
  <fix>3d</fix>
</trkpt>
<trkpt lat="40.0729508" lon="-105.2301547">
  <ele>1583.0</ele>
  <time>2026-08-28T17:51:25Z</time>
  <course>179.71</course>
  <speed>5.29</speed>
  <fix>3d</fix>
</trkpt>
<trkpt lat="40.0729395" lon="-105.2301547">
  <ele>1583.08</ele>
  <time>2026-08-28T17:51:25Z</time>
  <course>180.12</course>
  <speed>5.310037664649847</speed>
  <fix>3d</fix>
</trkpt>
<trkpt lat="40.0729508" lon="-105.2301547">
  <ele>1583.0</ele>
  <time>2026-08-28T17:51:25Z</time>
  <course>179.71</course>
  <speed>5.29</speed>
  <fix>3d</fix>
</trkpt>
<trkpt lat="40.0729347" lon="-105.2301547">
  <ele>1583.07</ele>
  <time>2026-08-28T17:51:25Z</time>
  <course>180.12</course>
  <speed>5.280085226584889</speed>
  <fix>3d</fix>
</trkpt>
<trkpt lat="40.0729414" lon="-105.2301547">
  <ele>1583.0</ele>
  <time>2026-08-28T17:51:25Z</time>
  <course>179.71</course>
  <speed>5.26</speed>
  <fix>3d</fix>
</trkpt>
<trkpt lat="40.07293" lon="-105.2301546">
  <ele>1583.07</ele>
  <time>2026-08-28T17:51:25Z</time>
  <course>180.12</course>
  <speed>5.260085550635084</speed>
  <fix>3d</fix>
</trkpt>
<trkpt lat="40.0729414" lon="-105.2301547">
  <ele>1583.0</ele>
  <time>2026-08-28T17:51:25Z</time>
  <course>179.71</course>
  <speed>5.26</speed>
  <fix>3d</fix>
</trkpt>
<trkpt lat="40.0729253" lon="-105.2301546">
  <ele>1583.07</ele>
  <time>2026-08-28T17:51:25Z</time>
  <course>180.11</course>
  <speed>5.2300860413572545</speed>
  <fix>3d</fix>
</trkpt>
<trkpt lat="40.0729319" lon="-105.2301546">
  <ele>1583.0</ele>
  <time>2026-08-28T17:51:25Z</time>
  <course>179.71</course>
  <speed>5.21</speed>
  <fix>3d</fix>
</trkpt>
<trkpt lat="40.0729206" lon="-105.2301545">
  <ele>1583.06</ele>
  <time>2026-08-28T17:51:25Z</time>
  <course>180.11</course>
  <speed>5.200086537741463</speed>
  <fix>3d</fix>
</trkpt>
<trkpt lat="40.0729319" lon="-105.2301546">
  <ele>1583.0</ele>
  <time>2026-08-28T17:51:25Z</time>
  <course>179.71</course>
  <speed>5.21</speed>
  <fix>3d</fix>
</trkpt>
<trkpt lat="40.072916" lon="-105.2301545">
  <ele>1583.06</ele>
  <time>2026-08-28T17:51:25Z</time>
  <course>180.11</course>
  <speed>5.170087039886273</speed>
  <fix>3d</fix>
</trkpt>
<trkpt lat="40.0729319" lon="-105.2301546">
  <ele>1583.0</ele>
  <time>2026-08-28T17:51:25Z</time>
  <course>179.71</course>
  <speed>5.21</speed>
  <fix>3d</fix>
</trkpt>
<trkpt lat="40.0729114" lon="-105.2301545">
  <ele>1583.06</ele>
  <time>2026-08-28T17:51:25Z</time>
  <course>180.11</course>
  <speed>5.140087547892546</speed>
  <fix>3d</fix>
</trkpt>
<trkpt lat="40.0729226" lon="-105.2301545">
  <ele>1583.0</ele>
  <time>2026-08-28T17:51:25Z</time>
  <course>179.71</course>
  <speed>5.15</speed>
  <fix>3d</fix>
</trkpt>
<trkpt lat="40.0729069" lon="-105.2301544">
  <ele>1583.06</ele>
  <time>2026-08-28T17:51:25Z</time>
  <course>180.13</course>
  <speed>5.110088061863514</speed>
  <fix>3d</fix>
</trkpt>
<trkpt lat="40.0729226" lon="-105.2301545">
  <ele>1583.0</ele>
  <time>2026-08-28T17:51:25Z</time>
  <course>179.71</course>
  <speed>5.15</speed>
  <fix>3d</fix>
</trkpt>
<trkpt lat="40.0729024" lon="-105.2301544">
  <ele>1583.06</ele>
  <time>2026-08-28T17:51:25Z</time>
  <course>180.12</course>
  <speed>5.080088581904847</speed>
  <fix>3d</fix>
</trkpt>
<trkpt lat="40.0729134" lon="-105.2301545">
  <ele>1583.0</ele>
  <time>2026-08-28T17:51:25Z</time>
  <course>179.71</course>
  <speed>5.1</speed>
  <fix>3d</fix>
</trkpt>
<trkpt lat="40.0728979" lon="-105.2301544">
  <ele>1583.06</ele>
  <time>2026-08-28T17:51:25Z</time>
  <course>180.15</course>
  <speed>5.060088932024812</speed>
  <fix>3d</fix>
</trkpt>
<trkpt lat="40.0729134" lon="-105.2301545">
  <ele>1583.0</ele>
  <time>2026-08-28T17:51:25Z</time>
  <course>179.71</course>
  <speed>5.1</speed>
  <fix>3d</fix>
</trkpt>
<trkpt lat="40.0728935" lon="-105.2301543">
  <ele>1583.06</ele>
  <time>2026-08-28T17:51:25Z</time>
  <course>180.18</course>
  <speed>5.030089462425097</speed>
  <fix>3d</fix>
</trkpt>
<trkpt lat="40.0729043" lon="-105.2301544">
  <ele>1583.0</ele>
  <time>2026-08-28T17:51:25Z</time>
  <course>179.73</course>
  <speed>5.05</speed>
  <fix>3d</fix>
</trkpt>
<trkpt lat="40.072889" lon="-105.2301543">
  <ele>1583.06</ele>
  <time>2026-08-28T17:51:25Z</time>
  <course>180.18</course>
  <speed>5.010089819554136</speed>
  <fix>3d</fix>
</trkpt>
<trkpt lat="40.0728953" lon="-105.2301543">
  <ele>1583.0</ele>
  <time>2026-08-28T17:51:25Z</time>
  <course>179.76</course>
  <speed>5.01</speed>
  <fix>3d</fix>
</trkpt>
<trkpt lat="40.0728845" lon="-105.2301543">
  <ele>1583.06</ele>
  <time>2026-08-28T17:51:25Z</time>
  <course>180.2</course>
  <speed>5.000039999840001</speed>
  <fix>3d</fix>
</trkpt>
<trkpt lat="40.0728953" lon="-105.2301543">
  <ele>1583.0</ele>
  <time>2026-08-28T17:51:25Z</time>
  <course>179.76</course>
  <speed>5.01</speed>
  <fix>3d</fix>
</trkpt>
<trkpt lat="40.0728801" lon="-105.2301543">
  <ele>1583.06</ele>
  <time>2026-08-28T17:51:25Z</time>
  <course>180.23</course>
  <speed>4.980040160480636</speed>
  <fix>3d</fix>
</trkpt>
<trkpt lat="40.0728862" lon="-105.2301543">
  <ele>1583.0</ele>
  <time>2026-08-28T17:51:25Z</time>
  <course>179.8</course>
  <speed>4.97</speed>
  <fix>3d</fix>
</trkpt>
<trkpt lat="40.0728757" lon="-105.2301542">
  <ele>1583.06</ele>
  <time>2026-08-28T17:51:25Z</time>
  <course>180.23</course>
  <speed>4.970040241285778</speed>
  <fix>3d</fix>
</trkpt>
<trkpt lat="40.0728862" lon="-105.2301543">
  <ele>1583.0</ele>
  <time>2026-08-28T17:51:25Z</time>
  <course>179.8</course>
  <speed>4.97</speed>
  <fix>3d</fix>
</trkpt>
<trkpt lat="40.0728712" lon="-105.2301542">
  <ele>1583.06</ele>
  <time>2026-08-28T17:51:25Z</time>
  <course>180.25</course>
  <speed>4.960040322416744</speed>
  <fix>3d</fix>
</trkpt>
<trkpt lat="40.0728773" lon="-105.2301543">
  <ele>1583.0</ele>
  <time>2026-08-28T17:51:25Z</time>
  <course>179.84</course>
  <speed>4.95</speed>
  <fix>3d</fix>
</trkpt>
<trkpt lat="40.0728668" lon="-105.2301542">
  <ele>1583.06</ele>
  <time>2026-08-28T17:51:25Z</time>
  <course>180.26</course>
  <speed>4.950040403875508</speed>
  <fix>3d</fix>
</trkpt>
<trkpt lat="40.0728773" lon="-105.2301543">
  <ele>1583.0</ele>
  <time>2026-08-28T17:51:25Z</time>
  <course>179.84</course>
  <speed>4.95</speed>
  <fix>3d</fix>
</trkpt>
<trkpt lat="40.0728624" lon="-105.2301542">
  <ele>1583.06</ele>
  <time>2026-08-28T17:51:25Z</time>
  <course>180.27</course>
  <speed>4.950040403875508</speed>
  <fix>3d</fix>
</trkpt>
<trkpt lat="40.0728685" lon="-105.2301543">
  <ele>1583.0</ele>
  <time>2026-08-28T17:51:25Z</time>
  <course>179.87</course>
  <speed>4.93</speed>
  <fix>3d</fix>
</trkpt>
<trkpt lat="40.0728579" lon="-105.2301542">
  <ele>1583.06</ele>
  <time>2026-08-28T17:51:25Z</time>
  <course>180.3</course>
  <speed>4.950040403875508</speed>
  <fix>3d</fix>
</trkpt>
<trkpt lat="40.0728685" lon="-105.2301543">
  <ele>1583.0</ele>
  <time>2026-08-28T17:51:25Z</time>
  <course>179.87</course>
  <speed>4.93</speed>
  <fix>3d</fix>
</trkpt>
<trkpt lat="40.0728534" lon="-105.2301541">
  <ele>1583.06</ele>
  <time>2026-08-28T17:51:25Z</time>
  <course>180.3</course>
  <speed>4.94004048566406</speed>
  <fix>3d</fix>
</trkpt>
<trkpt lat="40.0728596" lon="-105.2301543">
  <ele>1583.0</ele>
  <time>2026-08-28T17:51:25Z</time>
  <course>179.9</course>
  <speed>4.93</speed>
  <fix>3d</fix>
</trkpt>
<trkpt lat="40.072849" lon="-105.2301541">
  <ele>1583.05</ele>
  <time>2026-08-28T17:51:25Z</time>
  <course>180.31</course>
  <speed>4.94004048566406</speed>
  <fix>3d</fix>
</trkpt>
<trkpt lat="40.0728596" lon="-105.2301543">
  <ele>1583.0</ele>
  <time>2026-08-28T17:51:25Z</time>
  <course>179.9</course>
  <speed>4.93</speed>
  <fix>3d</fix>
</trkpt>
<trkpt lat="40.0728446" lon="-105.2301541">
  <ele>1583.05</ele>
  <time>2026-08-28T17:51:25Z</time>
  <course>180.31</course>
  <speed>4.94004048566406</speed>
  <fix>3d</fix>
</trkpt>
<trkpt lat="40.0728507" lon="-105.2301542">
  <ele>1583.0</ele>
  <time>2026-08-28T17:51:25Z</time>
  <course>179.92</course>
  <speed>4.92</speed>
  <fix>3d</fix>
</trkpt>
<trkpt lat="40.0728401" lon="-105.2301541">
  <ele>1583.05</ele>
  <time>2026-08-28T17:51:25Z</time>
  <course>180.32</course>
  <speed>4.94004048566406</speed>
  <fix>3d</fix>
</trkpt>
<trkpt lat="40.0728507" lon="-105.2301542">
  <ele>1583.0</ele>
  <time>2026-08-28T17:51:25Z</time>
  <course>179.92</course>
  <speed>4.92</speed>
  <fix>3d</fix>
</trkpt>
<trkpt lat="40.0728357" lon="-105.2301541">
  <ele>1583.05</ele>
  <time>2026-08-28T17:51:25Z</time>
  <course>180.33</course>
  <speed>4.950010100999795</speed>
  <fix>3d</fix>
</trkpt>
<trkpt lat="40.0728419" lon="-105.2301542">
  <ele>1583.0</ele>
  <time>2026-08-28T17:51:25Z</time>
  <course>179.94</course>
  <speed>4.93</speed>
  <fix>3d</fix>
</trkpt>
<trkpt lat="40.0728313" lon="-105.2301541">
  <ele>1583.05</ele>
  <time>2026-08-28T17:51:25Z</time>
  <course>180.34</course>
  <speed>4.950010100999795</speed>
  <fix>3d</fix>
</trkpt>
<trkpt lat="40.0728419" lon="-105.2301542">
  <ele>1583.0</ele>
  <time>2026-08-28T17:51:25Z</time>
  <course>179.94</course>
  <speed>4.93</speed>
  <fix>3d</fix>
</trkpt>
<trkpt lat="40.0728268" lon="-105.2301541">
  <ele>1583.05</ele>
  <time>2026-08-28T17:51:25Z</time>
  <course>180.37</course>
  <speed>4.950010100999795</speed>
  <fix>3d</fix>
</trkpt>
<trkpt lat="40.0728419" lon="-105.2301542">
  <ele>1583.0</ele>
  <time>2026-08-28T17:51:25Z</time>
  <course>179.94</course>
  <speed>4.93</speed>
  <fix>3d</fix>
</trkpt>
<trkpt lat="40.0728224" lon="-105.2301541">
  <ele>1583.05</ele>
  <time>2026-08-28T17:51:25Z</time>
  <course>180.39</course>
  <speed>4.950010100999795</speed>
  <fix>3d</fix>
</trkpt>
<trkpt lat="40.072833" lon="-105.2301542">
  <ele>1583.0</ele>
  <time>2026-08-28T17:51:25Z</time>
  <course>179.97</course>
  <speed>4.93</speed>
  <fix>3d</fix>
</trkpt>
<trkpt lat="40.072818" lon="-105.2301541">
  <ele>1583.05</ele>
  <time>2026-08-28T17:51:25Z</time>
  <course>180.4</course>
  <speed>4.930010141977398</speed>
  <fix>3d</fix>
</trkpt>
<trkpt lat="40.072833" lon="-105.2301542">
  <ele>1583.0</ele>
  <time>2026-08-28T17:51:25Z</time>
  <course>179.97</course>
  <speed>4.93</speed>
  <fix>3d</fix>
</trkpt>
<trkpt lat="40.0728137" lon="-105.2301541">
  <ele>1583.05</ele>
  <time>2026-08-28T17:51:25Z</time>
  <course>180.41</course>
  <speed>4.910010183288829</speed>
  <fix>3d</fix>
</trkpt>
<trkpt lat="40.0728241" lon="-105.2301542">
  <ele>1583.0</ele>
  <time>2026-08-28T17:51:25Z</time>
  <course>180.01</course>
  <speed>4.93</speed>
  <fix>3d</fix>
</trkpt>
<trkpt lat="40.0728093" lon="-105.2301541">
  <ele>1583.05</ele>
  <time>2026-08-28T17:51:25Z</time>
  <course>180.45</course>
  <speed>4.87</speed>
  <fix>3d</fix>
</trkpt>
<trkpt lat="40.0728241" lon="-105.2301542">
  <ele>1583.0</ele>
  <time>2026-08-28T17:51:25Z</time>
  <course>180.01</course>
  <speed>4.93</speed>
  <fix>3d</fix>
</trkpt>
<trkpt lat="40.072805" lon="-105.2301541">
  <ele>1583.05</ele>
  <time>2026-08-28T17:51:25Z</time>
  <course>180.49</course>
  <speed>4.82</speed>
  <fix>3d</fix>
</trkpt>
<trkpt lat="40.0728153" lon="-105.2301542">
  <ele>1583.0</ele>
  <time>2026-08-28T17:51:25Z</time>
  <course>180.06</course>
  <speed>4.89</speed>
  <fix>3d</fix>
</trkpt>
<trkpt lat="40.0728007" lon="-105.2301541">
  <ele>1583.05</ele>
  <time>2026-08-28T17:51:25Z</time>
  <course>180.52</course>
  <speed>4.75</speed>
  <fix>3d</fix>
</trkpt>
<trkpt lat="40.0728066" lon="-105.2301542">
  <ele>1583.0</ele>
  <time>2026-08-28T17:51:25Z</time>
  <course>180.12</course>
  <speed>4.81</speed>
  <fix>3d</fix>
</trkpt>
<trkpt lat="40.0727965" lon="-105.2301541">
  <ele>1583.06</ele>
  <time>2026-08-28T17:51:25Z</time>
  <course>180.53</course>
  <speed>4.68</speed>
  <fix>3d</fix>
</trkpt>
<trkpt lat="40.0728066" lon="-105.2301542">
  <ele>1583.0</ele>
  <time>2026-08-28T17:51:25Z</time>
  <course>180.12</course>
  <speed>4.81</speed>
  <fix>3d</fix>
</trkpt>
<trkpt lat="40.0727924" lon="-105.2301542">
  <ele>1583.06</ele>
  <time>2026-08-28T17:51:25Z</time>
  <course>180.58</course>
  <speed>4.6</speed>
  <fix>3d</fix>
</trkpt>
<trkpt lat="40.0727981" lon="-105.2301542">
  <ele>1583.0</ele>
  <time>2026-08-28T17:51:25Z</time>
  <course>180.19</course>
  <speed>4.68</speed>
  <fix>3d</fix>
</trkpt>
<trkpt lat="40.0727884" lon="-105.2301542">
  <ele>1583.06</ele>
  <time>2026-08-28T17:51:25Z</time>
  <course>180.62</course>
  <speed>4.5</speed>
  <fix>3d</fix>
</trkpt>
<trkpt lat="40.0727981" lon="-105.2301542">
  <ele>1583.0</ele>
  <time>2026-08-28T17:51:25Z</time>
  <course>180.19</course>
  <speed>4.68</speed>
  <fix>3d</fix>
</trkpt>
<trkpt lat="40.0727844" lon="-105.2301542">
  <ele>1583.06</ele>
  <time>2026-08-28T17:51:25Z</time>
  <course>180.64</course>
  <speed>4.4</speed>
  <fix>3d</fix>
</trkpt>
<trkpt lat="40.0727898" lon="-105.2301542">
  <ele>1583.0</ele>
  <time>2026-08-28T17:51:25Z</time>
  <course>180.26</course>
  <speed>4.5</speed>
  <fix>3d</fix>
</trkpt>
<trkpt lat="40.0727805" lon="-105.2301542">
  <ele>1583.07</ele>
  <time>2026-08-28T17:51:25Z</time>
  <course>180.68</course>
  <speed>4.29</speed>
  <fix>3d</fix>
</trkpt>
<trkpt lat="40.0727898" lon="-105.2301542">
  <ele>1583.0</ele>
  <time>2026-08-28T17:51:25Z</time>
  <course>180.26</course>
  <speed>4.5</speed>
  <fix>3d</fix>
</trkpt>
<trkpt lat="40.0727767" lon="-105.2301542">
  <ele>1583.07</ele>
  <time>2026-08-28T17:51:25Z</time>
  <course>180.73</course>
  <speed>4.18</speed>
  <fix>3d</fix>
</trkpt>
<trkpt lat="40.0727818" lon="-105.2301542">
  <ele>1583.0</ele>
  <time>2026-08-28T17:51:25Z</time>
  <course>180.33</course>
  <speed>4.3</speed>
  <fix>3d</fix>
</trkpt>
<trkpt lat="40.072773" lon="-105.2301542">
  <ele>1583.07</ele>
  <time>2026-08-28T17:51:25Z</time>
  <course>180.76</course>
  <speed>4.06</speed>
  <fix>3d</fix>
</trkpt>
<trkpt lat="40.0727818" lon="-105.2301542">
  <ele>1583.0</ele>
  <time>2026-08-28T17:51:25Z</time>
  <course>180.33</course>
  <speed>4.3</speed>
  <fix>3d</fix>
</trkpt>
<trkpt lat="40.0727693" lon="-105.2301542">
  <ele>1583.07</ele>
  <time>2026-08-28T17:51:25Z</time>
  <course>180.81</course>
  <speed>3.94</speed>
  <fix>3d</fix>
</trkpt>
<trkpt lat="40.0727743" lon="-105.2301543">
  <ele>1583.0</ele>
  <time>2026-08-28T17:51:25Z</time>
  <course>180.42</course>
  <speed>4.07</speed>
  <fix>3d</fix>
</trkpt>
<trkpt lat="40.0727659" lon="-105.2301542">
  <ele>1583.07</ele>
  <time>2026-08-28T17:51:25Z</time>
  <course>180.86</course>
  <speed>3.8100131233369785</speed>
  <fix>3d</fix>
</trkpt>
<trkpt lat="40.0727743" lon="-105.2301543">
  <ele>1583.0</ele>
  <time>2026-08-28T17:51:25Z</time>
  <course>180.42</course>
  <speed>4.07</speed>
  <fix>3d</fix>
</trkpt>
<trkpt lat="40.0727625" lon="-105.2301542">
  <ele>1583.06</ele>
  <time>2026-08-28T17:51:25Z</time>
  <course>180.9</course>
  <speed>3.6800135869314397</speed>
  <fix>3d</fix>
</trkpt>
<trkpt lat="40.0727672" lon="-105.2301544">
  <ele>1583.0</ele>
  <time>2026-08-28T17:51:25Z</time>
  <course>180.52</course>
  <speed>3.82</speed>
  <fix>3d</fix>
</trkpt>
<trkpt lat="40.0727593" lon="-105.2301543">
  <ele>1583.06</ele>
  <time>2026-08-28T17:51:25Z</time>
  <course>180.95</course>
  <speed>3.5500140844791024</speed>
  <fix>3d</fix>
</trkpt>
<trkpt lat="40.0727672" lon="-105.2301544">
  <ele>1583.0</ele>
  <time>2026-08-28T17:51:25Z</time>
  <course>180.52</course>
  <speed>3.82</speed>
  <fix>3d</fix>
</trkpt>
<trkpt lat="40.0727561" lon="-105.2301543">
  <ele>1583.06</ele>
  <time>2026-08-28T17:51:25Z</time>
  <course>180.99</course>
  <speed>3.430014577228499</speed>
  <fix>3d</fix>
</trkpt>
<trkpt lat="40.0727607" lon="-105.2301545">
  <ele>1583.0</ele>
  <time>2026-08-28T17:51:25Z</time>
  <course>180.62</course>
  <speed>3.57</speed>
  <fix>3d</fix>
</trkpt>
<trkpt lat="40.0727531" lon="-105.2301544">
  <ele>1583.06</ele>
  <time>2026-08-28T17:51:25Z</time>
  <course>181.03</course>
  <speed>3.3000151514803684</speed>
  <fix>3d</fix>
</trkpt>
<trkpt lat="40.0727607" lon="-105.2301545">
  <ele>1583.0</ele>
  <time>2026-08-28T17:51:25Z</time>
  <course>180.62</course>
  <speed>3.57</speed>
  <fix>3d</fix>
</trkpt>
<trkpt lat="40.0727503" lon="-105.2301544">
  <ele>1583.06</ele>
  <time>2026-08-28T17:51:25Z</time>
  <course>181.07</course>
  <speed>3.170015772831422</speed>
  <fix>3d</fix>
</trkpt>
<trkpt lat="40.0727607" lon="-105.2301545">
  <ele>1583.0</ele>
  <time>2026-08-28T17:51:25Z</time>
  <course>180.62</course>
  <speed>3.57</speed>
  <fix>3d</fix>
</trkpt>
<trkpt lat="40.0727475" lon="-105.2301544">
  <ele>1583.06</ele>
  <time>2026-08-28T17:51:25Z</time>
  <course>181.11</course>
  <speed>3.040016447323928</speed>
  <fix>3d</fix>
</trkpt>
<trkpt lat="40.0727545" lon="-105.2301545">
  <ele>1583.0</ele>
  <time>2026-08-28T17:51:25Z</time>
  <course>180.71</course>
  <speed>3.31</speed>
  <fix>3d</fix>
</trkpt>
<trkpt lat="40.0727449" lon="-105.2301545">
  <ele>1583.06</ele>
  <time>2026-08-28T17:51:25Z</time>
  <course>181.15</course>
  <speed>2.890017300986276</speed>
  <fix>3d</fix>
</trkpt>
<trkpt lat="40.0727545" lon="-105.2301545">
  <ele>1583.0</ele>
  <time>2026-08-28T17:51:25Z</time>
  <course>180.71</course>
  <speed>3.31</speed>
  <fix>3d</fix>
</trkpt>
<trkpt lat="40.0727424" lon="-105.2301545">
  <ele>1583.06</ele>
  <time>2026-08-28T17:51:25Z</time>
  <course>181.18</course>
  <speed>2.7400182481144175</speed>
  <fix>3d</fix>
</trkpt>
<trkpt lat="40.0727487" lon="-105.2301546">
  <ele>1583.0</ele>
  <time>2026-08-28T17:51:25Z</time>
  <course>180.8</course>
  <speed>3.05</speed>
  <fix>3d</fix>
</trkpt>
<trkpt lat="40.0727401" lon="-105.2301546">
  <ele>1583.06</ele>
  <time>2026-08-28T17:51:25Z</time>
  <course>181.2</course>
  <speed>2.6000192306981114</speed>
  <fix>3d</fix>
</trkpt>
<trkpt lat="40.0727487" lon="-105.2301546">
  <ele>1583.0</ele>
  <time>2026-08-28T17:51:25Z</time>
  <course>180.8</course>
  <speed>3.05</speed>
  <fix>3d</fix>
</trkpt>
<trkpt lat="40.0727378" lon="-105.2301546">
  <ele>1583.06</ele>
  <time>2026-08-28T17:51:25Z</time>
  <course>181.23</course>
  <speed>2.47002024283203</speed>
  <fix>3d</fix>
</trkpt>
<trkpt lat="40.0727435" lon="-105.2301547">
  <ele>1583.0</ele>
  <time>2026-08-28T17:51:25Z</time>
  <course>180.87</course>
  <speed>2.77</speed>
  <fix>3d</fix>
</trkpt>
<trkpt lat="40.0727357" lon="-105.2301546">
  <ele>1583.06</ele>
  <time>2026-08-28T17:51:25Z</time>
  <course>181.25</course>
  <speed>2.3500212764994277</speed>
  <fix>3d</fix>
</trkpt>
<trkpt lat="40.0727435" lon="-105.2301547">
  <ele>1583.0</ele>
  <time>2026-08-28T17:51:25Z</time>
  <course>180.87</course>
  <speed>2.77</speed>
  <fix>3d</fix>
</trkpt>
<trkpt lat="40.0727337" lon="-105.2301547">
  <ele>1583.06</ele>
  <time>2026-08-28T17:51:25Z</time>
  <course>181.27</course>
  <speed>2.230022421411946</speed>
  <fix>3d</fix>
</trkpt>
<trkpt lat="40.0727387" lon="-105.2301548">
  <ele>1583.0</ele>
  <time>2026-08-28T17:51:25Z</time>
  <course>180.94</course>
  <speed>2.5</speed>
  <fix>3d</fix>
</trkpt>
<trkpt lat="40.0727318" lon="-105.2301547">
  <ele>1583.06</ele>
  <time>2026-08-28T17:51:25Z</time>
  <course>181.29</course>
  <speed>2.1100236965494013</speed>
  <fix>3d</fix>
</trkpt>
<trkpt lat="40.0727344" lon="-105.2301549">
  <ele>1583.0</ele>
  <time>2026-08-28T17:51:25Z</time>
  <course>181.0</course>
  <speed>2.27</speed>
  <fix>3d</fix>
</trkpt>
<trkpt lat="40.0727299" lon="-105.2301547">
  <ele>1583.07</ele>
  <time>2026-08-28T17:51:25Z</time>
  <course>181.3</course>
  <speed>2.010024875467963</speed>
  <fix>3d</fix>
</trkpt>
<trkpt lat="40.0727344" lon="-105.2301549">
  <ele>1583.0</ele>
  <time>2026-08-28T17:51:25Z</time>
  <course>181.0</course>
  <speed>2.27</speed>
  <fix>3d</fix>
</trkpt>
<trkpt lat="40.0727282" lon="-105.2301548">
  <ele>1583.06</ele>
  <time>2026-08-28T17:51:25Z</time>
  <course>181.32</course>
  <speed>1.91</speed>
  <fix>3d</fix>
</trkpt>
<trkpt lat="40.0727306" lon="-105.230155">
  <ele>1583.0</ele>
  <time>2026-08-28T17:51:25Z</time>
  <course>181.04</course>
  <speed>2.05</speed>
  <fix>3d</fix>
</trkpt>
<trkpt lat="40.0727265" lon="-105.2301548">
  <ele>1583.06</ele>
  <time>2026-08-28T17:51:25Z</time>
  <course>181.32</course>
  <speed>1.81</speed>
  <fix>3d</fix>
</trkpt>
<trkpt lat="40.0727306" lon="-105.230155">
  <ele>1583.0</ele>
  <time>2026-08-28T17:51:25Z</time>
  <course>181.04</course>
  <speed>2.05</speed>
  <fix>3d</fix>
</trkpt>
<trkpt lat="40.072725" lon="-105.2301549">
  <ele>1583.06</ele>
  <time>2026-08-28T17:51:25Z</time>
  <course>181.34</course>
  <speed>1.72</speed>
  <fix>3d</fix>
</trkpt>
<trkpt lat="40.072727" lon="-105.2301551">
  <ele>1583.0</ele>
  <time>2026-08-28T17:51:25Z</time>
  <course>181.08</course>
  <speed>1.85</speed>
  <fix>3d</fix>
</trkpt>
<trkpt lat="40.0727234" lon="-105.2301549">
  <ele>1583.06</ele>
  <time>2026-08-28T17:51:25Z</time>
  <course>181.35</course>
  <speed>1.63</speed>
  <fix>3d</fix>
</trkpt>
<trkpt lat="40.072727" lon="-105.2301551">
  <ele>1583.0</ele>
  <time>2026-08-28T17:51:25Z</time>
  <course>181.08</course>
  <speed>1.85</speed>
  <fix>3d</fix>
</trkpt>
<trkpt lat="40.072722" lon="-105.2301549">
  <ele>1583.06</ele>
  <time>2026-08-28T17:51:25Z</time>
  <course>181.35</course>
  <speed>1.55</speed>
  <fix>3d</fix>
</trkpt>
<trkpt lat="40.0727239" lon="-105.2301552">
  <ele>1583.0</ele>
  <time>2026-08-28T17:51:25Z</time>
  <course>181.11</course>
  <speed>1.68</speed>
  <fix>3d</fix>
</trkpt>
<trkpt lat="40.0727206" lon="-105.230155">
  <ele>1583.06</ele>
  <time>2026-08-28T17:51:25Z</time>
  <course>181.36</course>
  <speed>1.47</speed>
  <fix>3d</fix>
</trkpt>
<trkpt lat="40.0727239" lon="-105.2301552">
  <ele>1583.0</ele>
  <time>2026-08-28T17:51:25Z</time>
  <course>181.11</course>
  <speed>1.68</speed>
  <fix>3d</fix>
</trkpt>
<trkpt lat="40.0727193" lon="-105.230155">
  <ele>1583.05</ele>
  <time>2026-08-28T17:51:25Z</time>
  <course>181.37</course>
  <speed>1.4</speed>
  <fix>3d</fix>
</trkpt>
<trkpt lat="40.072721" lon="-105.2301553">
  <ele>1583.0</ele>
  <time>2026-08-28T17:51:25Z</time>
  <course>181.13</course>
  <speed>1.52</speed>
  <fix>3d</fix>
</trkpt>
<trkpt lat="40.0727181" lon="-105.230155">
  <ele>1583.05</ele>
  <time>2026-08-28T17:51:25Z</time>
  <course>181.37</course>
  <speed>1.33</speed>
  <fix>3d</fix>
</trkpt>
<trkpt lat="40.072721" lon="-105.2301553">
  <ele>1583.0</ele>
  <time>2026-08-28T17:51:25Z</time>
  <course>181.13</course>
  <speed>1.52</speed>
  <fix>3d</fix>
</trkpt>
<trkpt lat="40.0727169" lon="-105.2301551">
  <ele>1583.04</ele>
  <time>2026-08-28T17:51:25Z</time>
  <course>181.38</course>
  <speed>1.26</speed>
  <fix>3d</fix>
</trkpt>
<trkpt lat="40.0727184" lon="-105.2301554">
  <ele>1583.0</ele>
  <time>2026-08-28T17:51:25Z</time>
  <course>181.16</course>
  <speed>1.37</speed>
  <fix>3d</fix>
</trkpt>
<trkpt lat="40.0727158" lon="-105.2301551">
  <ele>1583.03</ele>
  <time>2026-08-28T17:51:25Z</time>
  <course>181.38</course>
  <speed>1.2</speed>
  <fix>3d</fix>
</trkpt>
<trkpt lat="40.0727184" lon="-105.2301554">
  <ele>1583.0</ele>
  <time>2026-08-28T17:51:25Z</time>
  <course>181.16</course>
  <speed>1.37</speed>
  <fix>3d</fix>
</trkpt>
<trkpt lat="40.0727147" lon="-105.2301552">
  <ele>1583.03</ele>
  <time>2026-08-28T17:51:25Z</time>
  <course>181.38</course>
  <speed>1.14</speed>
  <fix>3d</fix>
</trkpt>
<trkpt lat="40.072716" lon="-105.2301554">
  <ele>1583.0</ele>
  <time>2026-08-28T17:51:25Z</time>
  <course>181.18</course>
  <speed>1.24</speed>
  <fix>3d</fix>
</trkpt>
<trkpt lat="40.0727137" lon="-105.2301552">
  <ele>1583.03</ele>
  <time>2026-08-28T17:51:25Z</time>
  <course>181.39</course>
  <speed>1.08</speed>
  <fix>3d</fix>
</trkpt>
<trkpt lat="40.072716" lon="-105.2301554">
  <ele>1583.0</ele>
  <time>2026-08-28T17:51:25Z</time>
  <course>181.18</course>
  <speed>1.24</speed>
  <fix>3d</fix>
</trkpt>
<trkpt lat="40.0727127" lon="-105.2301552">
  <ele>1583.03</ele>
  <time>2026-08-28T17:51:25Z</time>
  <course>181.39</course>
  <speed>1.03</speed>
  <fix>3d</fix>
</trkpt>
<trkpt lat="40.072716" lon="-105.2301554">
  <ele>1583.0</ele>
  <time>2026-08-28T17:51:25Z</time>
  <course>181.18</course>
  <speed>1.24</speed>
  <fix>3d</fix>
</trkpt>
<trkpt lat="40.0727118" lon="-105.2301553">
  <ele>1583.03</ele>
  <time>2026-08-28T17:51:25Z</time>
  <course>181.39</course>
  <speed>0.97</speed>
  <fix>3d</fix>
</trkpt>
<trkpt lat="40.0727139" lon="-105.2301555">
  <ele>1583.0</ele>
  <time>2026-08-28T17:51:25Z</time>
  <course>181.2</course>
  <speed>1.12</speed>
  <fix>3d</fix>
</trkpt>
<trkpt lat="40.072711" lon="-105.2301553">
  <ele>1583.03</ele>
  <time>2026-08-28T17:51:25Z</time>
  <course>181.4</course>
  <speed>0.92</speed>
  <fix>3d</fix>
</trkpt>
<trkpt lat="40.0727139" lon="-105.2301555">
  <ele>1583.0</ele>
  <time>2026-08-28T17:51:25Z</time>
  <course>181.2</course>
  <speed>1.12</speed>
  <fix>3d</fix>
</trkpt>
<trkpt lat="40.0727079" lon="-105.2301554">
  <ele>1583.03</ele>
  <time>2026-08-28T17:51:25Z</time>
  <course>181.4</course>
  <speed>0.75</speed>
  <fix>3d</fix>
</trkpt>
<trkpt lat="40.0727086" lon="-105.2301556">
  <ele>1583.0</ele>
  <time>2026-08-28T17:51:25Z</time>
  <course>181.24</course>
  <speed>0.83</speed>
  <fix>3d</fix>
</trkpt>
<trkpt lat="40.0727059" lon="-105.2301555">
  <ele>1583.04</ele>
  <time>2026-08-28T17:51:25Z</time>
  <course>181.41</course>
  <speed>0.65</speed>
  <fix>3d</fix>
</trkpt>
<trkpt lat="40.0727072" lon="-105.2301557">
  <ele>1583.0</ele>
  <time>2026-08-28T17:51:25Z</time>
  <course>181.25</course>
  <speed>0.75</speed>
  <fix>3d</fix>
</trkpt>
<trkpt lat="40.0727053" lon="-105.2301555">
  <ele>1583.04</ele>
  <time>2026-08-28T17:51:25Z</time>
  <course>181.41</course>
  <speed>0.62</speed>
  <fix>3d</fix>
</trkpt>
<trkpt lat="40.0727059" lon="-105.2301557">
  <ele>1583.0</ele>
  <time>2026-08-28T17:51:25Z</time>
  <course>181.26</course>
  <speed>0.68</speed>
  <fix>3d</fix>
</trkpt>
<trkpt lat="40.0727048" lon="-105.2301555">
  <ele>1583.04</ele>
  <time>2026-08-28T17:51:25Z</time>
  <course>181.41</course>
  <speed>0.59</speed>
  <fix>3d</fix>
</trkpt>
<trkpt lat="40.0727059" lon="-105.2301557">
  <ele>1583.0</ele>
  <time>2026-08-28T17:51:25Z</time>
  <course>181.26</course>
  <speed>0.68</speed>
  <fix>3d</fix>
</trkpt>
<trkpt lat="40.0727042" lon="-105.2301555">
  <ele>1583.04</ele>
  <time>2026-08-28T17:51:25Z</time>
  <course>181.41</course>
  <speed>0.56</speed>
  <fix>3d</fix>
</trkpt>
<trkpt lat="40.0727048" lon="-105.2301557">
  <ele>1583.0</ele>
  <time>2026-08-28T17:51:25Z</time>
  <course>181.27</course>
  <speed>0.61</speed>
  <fix>3d</fix>
</trkpt>
<trkpt lat="40.0727037" lon="-105.2301556">
  <ele>1583.04</ele>
  <time>2026-08-28T17:51:25Z</time>
  <course>181.41</course>
  <speed>0.53</speed>
  <fix>3d</fix>
</trkpt>
<trkpt lat="40.0727048" lon="-105.2301557">
  <ele>1583.0</ele>
  <time>2026-08-28T17:51:25Z</time>
  <course>181.27</course>
  <speed>0.61</speed>
  <fix>3d</fix>
</trkpt>
<trkpt lat="40.0727028" lon="-105.2301556">
  <ele>1583.04</ele>
  <time>2026-08-28T17:51:25Z</time>
  <course>181.41</course>
  <speed>0.48</speed>
  <fix>3d</fix>
</trkpt>
<trkpt lat="40.0727037" lon="-105.2301557">
  <ele>1583.0</ele>
  <time>2026-08-28T17:51:25Z</time>
  <course>181.28</course>
  <speed>0.55</speed>
  <fix>3d</fix>
</trkpt>
<trkpt lat="40.0727022" lon="-105.2301556">
  <ele>1583.04</ele>
  <time>2026-08-28T17:51:25Z</time>
  <course>181.41</course>
  <speed>0.45</speed>
  <fix>3d</fix>
</trkpt>
<trkpt lat="40.0727027" lon="-105.2301557">
  <ele>1583.0</ele>
  <time>2026-08-28T17:51:25Z</time>
  <course>181.28</course>
  <speed>0.5</speed>
  <fix>3d</fix>
</trkpt>
<trkpt lat="40.0727018" lon="-105.2301556">
  <ele>1583.04</ele>
  <time>2026-08-28T17:51:25Z</time>
  <course>181.41</course>
  <speed>0.43</speed>
  <fix>3d</fix>
</trkpt>
<trkpt lat="40.0727027" lon="-105.2301557">
  <ele>1583.0</ele>
  <time>2026-08-28T17:51:25Z</time>
  <course>181.28</course>
  <speed>0.5</speed>
  <fix>3d</fix>
</trkpt>
<trkpt lat="40.0727014" lon="-105.2301556">
  <ele>1583.04</ele>
  <time>2026-08-28T17:51:25Z</time>
  <course>181.42</course>
  <speed>0.41</speed>
  <fix>3d</fix>
</trkpt>
<trkpt lat="40.0727019" lon="-105.2301558">
  <ele>1583.0</ele>
  <time>2026-08-28T17:51:25Z</time>
  <course>181.29</course>
  <speed>0.45</speed>
  <fix>3d</fix>
</trkpt>
<trkpt lat="40.072701" lon="-105.2301556">
  <ele>1583.04</ele>
  <time>2026-08-28T17:51:25Z</time>
  <course>181.41</course>
  <speed>0.39</speed>
  <fix>3d</fix>
</trkpt>
<trkpt lat="40.0727019" lon="-105.2301558">
  <ele>1583.0</ele>
  <time>2026-08-28T17:51:25Z</time>
  <course>181.29</course>
  <speed>0.45</speed>
  <fix>3d</fix>
</trkpt>
<trkpt lat="40.0727007" lon="-105.2301556">
  <ele>1583.03</ele>
  <time>2026-08-28T17:51:25Z</time>
  <course>181.42</course>
  <speed>0.37</speed>
  <fix>3d</fix>
</trkpt>
<trkpt lat="40.0727011" lon="-105.2301559">
  <ele>1583.0</ele>
  <time>2026-08-28T17:51:25Z</time>
  <course>181.3</course>
  <speed>0.41</speed>
  <fix>3d</fix>
</trkpt>
<trkpt lat="40.0727003" lon="-105.2301557">
  <ele>1583.03</ele>
  <time>2026-08-28T17:51:25Z</time>
  <course>181.41</course>
  <speed>0.35</speed>
  <fix>3d</fix>
</trkpt>
<trkpt lat="40.0727011" lon="-105.2301559">
  <ele>1583.0</ele>
  <time>2026-08-28T17:51:25Z</time>
  <course>181.3</course>
  <speed>0.41</speed>
  <fix>3d</fix>
</trkpt>
<trkpt lat="40.0727" lon="-105.2301557">
  <ele>1583.03</ele>
  <time>2026-08-28T17:51:25Z</time>
  <course>181.41</course>
  <speed>0.34</speed>
  <fix>3d</fix>
</trkpt>
<trkpt lat="40.0727004" lon="-105.2301559">
  <ele>1583.0</ele>
  <time>2026-08-28T17:51:25Z</time>
  <course>181.3</course>
  <speed>0.37</speed>
  <fix>3d</fix>
</trkpt>
<trkpt lat="40.0726997" lon="-105.2301557">
  <ele>1583.03</ele>
  <time>2026-08-28T17:51:25Z</time>
  <course>181.41</course>
  <speed>0.32</speed>
  <fix>3d</fix>
</trkpt>
<trkpt lat="40.0727004" lon="-105.2301559">
  <ele>1583.0</ele>
  <time>2026-08-28T17:51:25Z</time>
  <course>181.3</course>
  <speed>0.37</speed>
  <fix>3d</fix>
</trkpt>
<trkpt lat="40.0726993" lon="-105.2301557">
  <ele>1583.02</ele>
  <time>2026-08-28T17:51:25Z</time>
  <course>181.41</course>
  <speed>0.3</speed>
  <fix>3d</fix>
</trkpt>
<trkpt lat="40.0726997" lon="-105.2301559">
  <ele>1583.0</ele>
  <time>2026-08-28T17:51:25Z</time>
  <course>181.3</course>
  <speed>0.33</speed>
  <fix>3d</fix>
</trkpt>
<trkpt lat="40.0726991" lon="-105.2301557">
  <ele>1583.02</ele>
  <time>2026-08-28T17:51:25Z</time>
  <course>181.41</course>
  <speed>0.29</speed>
  <fix>3d</fix>
</trkpt>
<trkpt lat="40.0726997" lon="-105.2301559">
  <ele>1583.0</ele>
  <time>2026-08-28T17:51:25Z</time>
  <course>181.3</course>
  <speed>0.33</speed>
  <fix>3d</fix>
</trkpt>
<trkpt lat="40.0726989" lon="-105.2301557">
  <ele>1583.02</ele>
  <time>2026-08-28T17:51:25Z</time>
  <course>181.41</course>
  <speed>0.28</speed>
  <fix>3d</fix>
</trkpt>
<trkpt lat="40.0726992" lon="-105.2301559">
  <ele>1583.0</ele>
  <time>2026-08-28T17:51:25Z</time>
  <course>181.3</course>
  <speed>0.3</speed>
  <fix>3d</fix>
</trkpt>
<trkpt lat="40.0726987" lon="-105.2301558">
  <ele>1583.02</ele>
  <time>2026-08-28T17:51:25Z</time>
  <course>181.4</course>
  <speed>0.27</speed>
  <fix>3d</fix>
</trkpt>
<trkpt lat="40.0726992" lon="-105.2301559">
  <ele>1583.0</ele>
  <time>2026-08-28T17:51:25Z</time>
  <course>181.3</course>
  <speed>0.3</speed>
  <fix>3d</fix>
</trkpt>
<trkpt lat="40.0726984" lon="-105.2301558">
  <ele>1583.02</ele>
  <time>2026-08-28T17:51:25Z</time>
  <course>181.4</course>
  <speed>0.26</speed>
  <fix>3d</fix>
</trkpt>
<trkpt lat="40.0726986" lon="-105.2301559">
  <ele>1583.0</ele>
  <time>2026-08-28T17:51:25Z</time>
  <course>181.3</course>
  <speed>0.27</speed>
  <fix>3d</fix>
</trkpt>
<trkpt lat="40.0726982" lon="-105.2301558">
  <ele>1583.02</ele>
  <time>2026-08-28T17:51:25Z</time>
  <course>181.4</course>
  <speed>0.25</speed>
  <fix>3d</fix>
</trkpt>
<trkpt lat="40.0726986" lon="-105.2301559">
  <ele>1583.0</ele>
  <time>2026-08-28T17:51:25Z</time>
  <course>181.3</course>
  <speed>0.27</speed>
  <fix>3d</fix>
</trkpt>
<trkpt lat="40.072698" lon="-105.2301558">
  <ele>1583.02</ele>
  <time>2026-08-28T17:51:25Z</time>
  <course>181.4</course>
  <speed>0.23</speed>
  <fix>3d</fix>
</trkpt>
<trkpt lat="40.0726982" lon="-105.2301559">
  <ele>1583.0</ele>
  <time>2026-08-28T17:51:25Z</time>
  <course>181.3</course>
  <speed>0.25</speed>
  <fix>3d</fix>
</trkpt>
<trkpt lat="40.0726977" lon="-105.2301558">
  <ele>1583.03</ele>
  <time>2026-08-28T17:51:25Z</time>
  <course>181.4</course>
  <speed>0.22</speed>
  <fix>3d</fix>
</trkpt>
<trkpt lat="40.0726982" lon="-105.2301559">
  <ele>1583.0</ele>
  <time>2026-08-28T17:51:25Z</time>
  <course>181.3</course>
  <speed>0.25</speed>
  <fix>3d</fix>
</trkpt>
<trkpt lat="40.0726975" lon="-105.2301558">
  <ele>1583.03</ele>
  <time>2026-08-28T17:51:25Z</time>
  <course>181.4</course>
  <speed>0.21</speed>
  <fix>3d</fix>
</trkpt>
<trkpt lat="40.0726978" lon="-105.2301559">
  <ele>1583.0</ele>
  <time>2026-08-28T17:51:25Z</time>
  <course>181.3</course>
  <speed>0.22</speed>
  <fix>3d</fix>
</trkpt>
<trkpt lat="40.0726974" lon="-105.2301558">
  <ele>1583.03</ele>
  <time>2026-08-28T17:51:25Z</time>
  <course>181.4</course>
  <speed>0.21</speed>
  <fix>3d</fix>
</trkpt>
<trkpt lat="40.0726978" lon="-105.2301559">
  <ele>1583.0</ele>
  <time>2026-08-28T17:51:25Z</time>
  <course>181.3</course>
  <speed>0.22</speed>
  <fix>3d</fix>
</trkpt>
<trkpt lat="40.0726972" lon="-105.2301558">
  <ele>1583.03</ele>
  <time>2026-08-28T17:51:25Z</time>
  <course>181.4</course>
  <speed>0.2</speed>
  <fix>3d</fix>
</trkpt>
<trkpt lat="40.0726973" lon="-105.2301559">
  <ele>1583.0</ele>
  <time>2026-08-28T17:51:25Z</time>
  <course>181.3</course>
  <speed>0.2</speed>
  <fix>3d</fix>
</trkpt>
<trkpt lat="40.072697" lon="-105.2301558">
  <ele>1583.03</ele>
  <time>2026-08-28T17:51:25Z</time>
  <course>181.4</course>
  <speed>0.19</speed>
  <fix>3d</fix>
</trkpt>
<trkpt lat="40.0726973" lon="-105.2301559">
  <ele>1583.0</ele>
  <time>2026-08-28T17:51:25Z</time>
  <course>181.3</course>
  <speed>0.2</speed>
  <fix>3d</fix>
</trkpt>
<trkpt lat="40.0726968" lon="-105.2301558">
  <ele>1583.04</ele>
  <time>2026-08-28T17:51:25Z</time>
  <course>181.39</course>
  <speed>0.18</speed>
  <fix>3d</fix>
</trkpt>
<trkpt lat="40.072697" lon="-105.2301559">
  <ele>1583.0</ele>
  <time>2026-08-28T17:51:25Z</time>
  <course>181.3</course>
  <speed>0.18</speed>
  <fix>3d</fix>
</trkpt>
<trkpt lat="40.0726966" lon="-105.2301558">
  <ele>1583.04</ele>
  <time>2026-08-28T17:51:25Z</time>
  <course>181.39</course>
  <speed>0.17</speed>
  <fix>3d</fix>
</trkpt>
<trkpt lat="40.072697" lon="-105.2301559">
  <ele>1583.0</ele>
  <time>2026-08-28T17:51:25Z</time>
  <course>181.3</course>
  <speed>0.18</speed>
  <fix>3d</fix>
</trkpt>
<trkpt lat="40.0726965" lon="-105.2301558">
  <ele>1583.04</ele>
  <time>2026-08-28T17:51:25Z</time>
  <course>181.39</course>
  <speed>0.16</speed>
  <fix>3d</fix>
</trkpt>
<trkpt lat="40.0726967" lon="-105.2301559">
  <ele>1583.0</ele>
  <time>2026-08-28T17:51:25Z</time>
  <course>181.31</course>
  <speed>0.16</speed>
  <fix>3d</fix>
</trkpt>
<trkpt lat="40.0726963" lon="-105.2301558">
  <ele>1583.03</ele>
  <time>2026-08-28T17:51:25Z</time>
  <course>181.39</course>
  <speed>0.16</speed>
  <fix>3d</fix>
</trkpt>
<trkpt lat="40.0726967" lon="-105.2301559">
  <ele>1583.0</ele>
  <time>2026-08-28T17:51:25Z</time>
  <course>181.31</course>
  <speed>0.16</speed>
  <fix>3d</fix>
</trkpt>
<trkpt lat="40.0726962" lon="-105.2301558">
  <ele>1583.03</ele>
  <time>2026-08-28T17:51:25Z</time>
  <course>181.39</course>
  <speed>0.15</speed>
  <fix>3d</fix>
</trkpt>
<trkpt lat="40.0726964" lon="-105.2301559">
  <ele>1583.0</ele>
  <time>2026-08-28T17:51:25Z</time>
  <course>181.31</course>
  <speed>0.15</speed>
  <fix>3d</fix>
</trkpt>
<trkpt lat="40.0726961" lon="-105.2301558">
  <ele>1583.02</ele>
  <time>2026-08-28T17:51:25Z</time>
  <course>181.39</course>
  <speed>0.14</speed>
  <fix>3d</fix>
</trkpt>
<trkpt lat="40.0726964" lon="-105.2301559">
  <ele>1583.0</ele>
  <time>2026-08-28T17:51:25Z</time>
  <course>181.31</course>
  <speed>0.15</speed>
  <fix>3d</fix>
</trkpt>
<trkpt lat="40.0726959" lon="-105.2301558">
  <ele>1583.02</ele>
  <time>2026-08-28T17:51:25Z</time>
  <course>181.39</course>
  <speed>0.14</speed>
  <fix>3d</fix>
</trkpt>
<trkpt lat="40.0726961" lon="-105.2301559">
  <ele>1583.0</ele>
  <time>2026-08-28T17:51:25Z</time>
  <course>181.31</course>
  <speed>0.13</speed>
  <fix>3d</fix>
</trkpt>
<trkpt lat="40.0726958" lon="-105.2301558">
  <ele>1583.01</ele>
  <time>2026-08-28T17:51:25Z</time>
  <course>181.39</course>
  <speed>0.13</speed>
  <fix>3d</fix>
</trkpt>
<trkpt lat="40.0726961" lon="-105.2301559">
  <ele>1583.0</ele>
  <time>2026-08-28T17:51:25Z</time>
  <course>181.31</course>
  <speed>0.13</speed>
  <fix>3d</fix>
</trkpt>
<trkpt lat="40.0726957" lon="-105.2301558">
  <ele>1583.01</ele>
  <time>2026-08-28T17:51:25Z</time>
  <course>181.39</course>
  <speed>0.12</speed>
  <fix>3d</fix>
</trkpt>
<trkpt lat="40.0726959" lon="-105.2301559">
  <ele>1583.0</ele>
  <time>2026-08-28T17:51:25Z</time>
  <course>181.31</course>
  <speed>0.12</speed>
  <fix>3d</fix>
</trkpt>
<trkpt lat="40.0726956" lon="-105.2301558">
  <ele>1583.0</ele>
  <time>2026-08-28T17:51:25Z</time>
  <course>181.4</course>
  <speed>0.11</speed>
  <fix>3d</fix>
</trkpt>
<trkpt lat="40.0726959" lon="-105.2301559">
  <ele>1583.0</ele>
  <time>2026-08-28T17:51:25Z</time>
  <course>181.31</course>
  <speed>0.12</speed>
  <fix>3d</fix>
</trkpt>
<trkpt lat="40.0726955" lon="-105.2301558">
  <ele>1582.99</ele>
  <time>2026-08-28T17:51:25Z</time>
  <course>181.41</course>
  <speed>0.1</speed>
  <fix>3d</fix>
</trkpt>
<trkpt lat="40.0726957" lon="-105.2301559">
  <ele>1583.0</ele>
  <time>2026-08-28T17:51:25Z</time>
  <course>181.33</course>
  <speed>0.1</speed>
  <fix>3d</fix>
</trkpt>
<trkpt lat="40.0726954" lon="-105.2301558">
  <ele>1582.98</ele>
  <time>2026-08-28T17:51:25Z</time>
  <course>181.41</course>
  <speed>0.1</speed>
  <fix>3d</fix>
</trkpt>
<trkpt lat="40.0726957" lon="-105.2301559">
  <ele>1583.0</ele>
  <time>2026-08-28T17:51:25Z</time>
  <course>181.33</course>
  <speed>0.1</speed>
  <fix>3d</fix>
</trkpt>
<trkpt lat="40.0726954" lon="-105.2301558">
  <ele>1582.98</ele>
  <time>2026-08-28T17:51:25Z</time>
  <course>181.42</course>
  <speed>0.09</speed>
  <fix>3d</fix>
</trkpt>
<trkpt lat="40.0726955" lon="-105.2301559">
  <ele>1583.0</ele>
  <time>2026-08-28T17:51:25Z</time>
  <course>181.34</course>
  <speed>0.08</speed>
  <fix>3d</fix>
</trkpt>
<trkpt lat="40.0726953" lon="-105.2301558">
  <ele>1582.97</ele>
  <time>2026-08-28T17:51:25Z</time>
  <course>181.43</course>
  <speed>0.09</speed>
  <fix>3d</fix>
</trkpt>
<trkpt lat="40.0726955" lon="-105.2301559">
  <ele>1583.0</ele>
  <time>2026-08-28T17:51:25Z</time>
  <course>181.34</course>
  <speed>0.08</speed>
  <fix>3d</fix>
</trkpt>
<trkpt lat="40.0726952" lon="-105.2301558">
  <ele>1582.97</ele>
  <time>2026-08-28T17:51:25Z</time>
  <course>181.43</course>
  <speed>0.09</speed>
  <fix>3d</fix>
</trkpt>
<trkpt lat="40.0726954" lon="-105.2301559">
  <ele>1583.0</ele>
  <time>2026-08-28T17:51:25Z</time>
  <course>181.36</course>
  <speed>0.07</speed>
  <fix>3d</fix>
</trkpt>
<trkpt lat="40.0726952" lon="-105.2301558">
  <ele>1582.97</ele>
  <time>2026-08-28T17:51:25Z</time>
  <course>181.44</course>
  <speed>0.08</speed>
  <fix>3d</fix>
</trkpt>
<trkpt lat="40.0726954" lon="-105.2301559">
  <ele>1583.0</ele>
  <time>2026-08-28T17:51:25Z</time>
  <course>181.36</course>
  <speed>0.07</speed>
  <fix>3d</fix>
</trkpt>
<trkpt lat="40.0726951" lon="-105.2301558">
  <ele>1582.96</ele>
  <time>2026-08-28T17:51:25Z</time>
  <course>181.44</course>
  <speed>0.08</speed>
  <fix>3d</fix>
</trkpt>
<trkpt lat="40.0726953" lon="-105.230156">
  <ele>1583.0</ele>
  <time>2026-08-28T17:51:25Z</time>
  <course>181.38</course>
  <speed>0.06</speed>
  <fix>3d</fix>
</trkpt>
<trkpt lat="40.072695" lon="-105.2301558">
  <ele>1582.95</ele>
  <time>2026-08-28T17:51:25Z</time>
  <course>181.45</course>
  <speed>0.08</speed>
  <fix>3d</fix>
</trkpt>
<trkpt lat="40.0726953" lon="-105.230156">
  <ele>1583.0</ele>
  <time>2026-08-28T17:51:25Z</time>
  <course>181.38</course>
  <speed>0.06</speed>
  <fix>3d</fix>
</trkpt>
<trkpt lat="40.072695" lon="-105.2301558">
  <ele>1582.95</ele>
  <time>2026-08-28T17:51:25Z</time>
  <course>181.45</course>
  <speed>0.08</speed>
  <fix>3d</fix>
</trkpt>
<trkpt lat="40.0726951" lon="-105.2301561">
  <ele>1583.0</ele>
  <time>2026-08-28T17:51:25Z</time>
  <course>181.39</course>
  <speed>0.06</speed>
  <fix>3d</fix>
</trkpt>
<trkpt lat="40.0726949" lon="-105.2301558">
  <ele>1582.94</ele>
  <time>2026-08-28T17:51:26Z</time>
  <course>181.45</course>
  <speed>0.08</speed>
  <fix>3d</fix>
</trkpt>
<trkpt lat="40.0726951" lon="-105.2301561">
  <ele>1583.0</ele>
  <time>2026-08-28T17:51:26Z</time>
  <course>181.39</course>
  <speed>0.06</speed>
  <fix>3d</fix>
</trkpt>
<trkpt lat="40.0726948" lon="-105.2301558">
  <ele>1582.94</ele>
  <time>2026-08-28T17:51:26Z</time>
  <course>181.45</course>
  <speed>0.08</speed>
  <fix>3d</fix>
</trkpt>
<trkpt lat="40.072695" lon="-105.2301561">
  <ele>1583.0</ele>
  <time>2026-08-28T17:51:26Z</time>
  <course>181.4</course>
  <speed>0.06</speed>
  <fix>3d</fix>
</trkpt>
<trkpt lat="40.0726948" lon="-105.2301558">
  <ele>1582.94</ele>
  <time>2026-08-28T17:51:26Z</time>
  <course>181.45</course>
  <speed>0.07</speed>
  <fix>3d</fix>
</trkpt>
<trkpt lat="40.072695" lon="-105.2301561">
  <ele>1583.0</ele>
  <time>2026-08-28T17:51:26Z</time>
  <course>181.4</course>
  <speed>0.06</speed>
  <fix>3d</fix>
</trkpt>
<trkpt lat="40.0726947" lon="-105.2301559">
  <ele>1582.93</ele>
  <time>2026-08-28T17:51:26Z</time>
  <course>181.45</course>
  <speed>0.07</speed>
  <fix>3d</fix>
</trkpt>
<trkpt lat="40.0726949" lon="-105.2301561">
  <ele>1583.0</ele>
  <time>2026-08-28T17:51:26Z</time>
  <course>181.4</course>
  <speed>0.05</speed>
  <fix>3d</fix>
</trkpt>
<trkpt lat="40.0726947" lon="-105.2301559">
  <ele>1582.93</ele>
  <time>2026-08-28T17:51:26Z</time>
  <course>181.46</course>
  <speed>0.06</speed>
  <fix>3d</fix>
</trkpt>
<trkpt lat="40.0726949" lon="-105.2301561">
  <ele>1583.0</ele>
  <time>2026-08-28T17:51:26Z</time>
  <course>181.4</course>
  <speed>0.05</speed>
  <fix>3d</fix>
</trkpt>
<trkpt lat="40.0726946" lon="-105.2301559">
  <ele>1582.93</ele>
  <time>2026-08-28T17:51:26Z</time>
  <course>181.46</course>
  <speed>0.05</speed>
  <fix>3d</fix>
</trkpt>
<trkpt lat="40.0726948" lon="-105.2301561">
  <ele>1583.0</ele>
  <time>2026-08-28T17:51:26Z</time>
  <course>181.42</course>
  <speed>0.04</speed>
  <fix>3d</fix>
</trkpt>
<trkpt lat="40.0726946" lon="-105.2301559">
  <ele>1582.93</ele>
  <time>2026-08-28T17:51:26Z</time>
  <course>181.46</course>
  <speed>0.05</speed>
  <fix>3d</fix>
</trkpt>
<trkpt lat="40.0726948" lon="-105.2301561">
  <ele>1583.0</ele>
  <time>2026-08-28T17:51:26Z</time>
  <course>181.42</course>
  <speed>0.04</speed>
  <fix>3d</fix>
</trkpt>
<trkpt lat="40.0726946" lon="-105.2301559">
  <ele>1582.92</ele>
  <time>2026-08-28T17:51:26Z</time>
  <course>181.46</course>
  <speed>0.05</speed>
  <fix>3d</fix>
</trkpt>
<trkpt lat="40.0726948" lon="-105.2301561">
  <ele>1583.0</ele>
  <time>2026-08-28T17:51:26Z</time>
  <course>181.44</course>
  <speed>0.03</speed>
  <fix>3d</fix>
</trkpt>
<trkpt lat="40.0726946" lon="-105.2301559">
  <ele>1582.92</ele>
  <time>2026-08-28T17:51:26Z</time>
  <course>181.47</course>
  <speed>0.05</speed>
  <fix>3d</fix>
</trkpt>
<trkpt lat="40.0726948" lon="-105.2301561">
  <ele>1583.0</ele>
  <time>2026-08-28T17:51:26Z</time>
  <course>181.44</course>
  <speed>0.03</speed>
  <fix>3d</fix>
</trkpt>
<trkpt lat="40.0726945" lon="-105.2301559">
  <ele>1582.91</ele>
  <time>2026-08-28T17:51:26Z</time>
  <course>181.47</course>
  <speed>0.05</speed>
  <fix>3d</fix>
</trkpt>
<trkpt lat="40.0726947" lon="-105.2301561">
  <ele>1583.0</ele>
  <time>2026-08-28T17:51:26Z</time>
  <course>181.45</course>
  <speed>0.03</speed>
  <fix>3d</fix>
</trkpt>
<trkpt lat="40.0726945" lon="-105.2301559">
  <ele>1582.91</ele>
  <time>2026-08-28T17:51:26Z</time>
  <course>181.47</course>
  <speed>0.06</speed>
  <fix>3d</fix>
</trkpt>
<trkpt lat="40.0726947" lon="-105.2301561">
  <ele>1583.0</ele>
  <time>2026-08-28T17:51:26Z</time>
  <course>181.45</course>
  <speed>0.03</speed>
  <fix>3d</fix>
</trkpt>
<trkpt lat="40.0726945" lon="-105.2301559">
  <ele>1582.91</ele>
  <time>2026-08-28T17:51:26Z</time>
  <course>181.48</course>
  <speed>0.07</speed>
  <fix>3d</fix>
</trkpt>
<trkpt lat="40.0726946" lon="-105.2301561">
  <ele>1583.0</ele>
  <time>2026-08-28T17:51:26Z</time>
  <course>181.44</course>
  <speed>0.04</speed>
  <fix>3d</fix>
</trkpt>
<trkpt lat="40.0726944" lon="-105.2301559">
  <ele>1582.9</ele>
  <time>2026-08-28T17:51:26Z</time>
  <course>181.49</course>
  <speed>0.09</speed>
  <fix>3d</fix>
</trkpt>
<trkpt lat="40.0726946" lon="-105.2301561">
  <ele>1583.0</ele>
  <time>2026-08-28T17:51:26Z</time>
  <course>181.44</course>
  <speed>0.04</speed>
  <fix>3d</fix>
</trkpt>
<trkpt lat="40.0726943" lon="-105.2301559">
  <ele>1582.9</ele>
  <time>2026-08-28T17:51:26Z</time>
  <course>181.5</course>
  <speed>0.11</speed>
  <fix>3d</fix>
</trkpt>
<trkpt lat="40.0726945" lon="-105.2301561">
  <ele>1583.0</ele>
  <time>2026-08-28T17:51:26Z</time>
  <course>181.44</course>
  <speed>0.06</speed>
  <fix>3d</fix>
</trkpt>
<trkpt lat="40.0726942" lon="-105.2301559">
  <ele>1582.9</ele>
  <time>2026-08-28T17:51:26Z</time>
  <course>181.51</course>
  <speed>0.13</speed>
  <fix>3d</fix>
</trkpt>
<trkpt lat="40.0726945" lon="-105.2301561">
  <ele>1583.0</ele>
  <time>2026-08-28T17:51:26Z</time>
  <course>181.44</course>
  <speed>0.06</speed>
  <fix>3d</fix>
</trkpt>
<trkpt lat="40.0726941" lon="-105.2301559">
  <ele>1582.89</ele>
  <time>2026-08-28T17:51:26Z</time>
  <course>181.53</course>
  <speed>0.15</speed>
  <fix>3d</fix>
</trkpt>
<trkpt lat="40.0726943" lon="-105.2301561">
  <ele>1583.0</ele>
  <time>2026-08-28T17:51:26Z</time>
  <course>181.46</course>
  <speed>0.1</speed>
  <fix>3d</fix>
</trkpt>
<trkpt lat="40.072694" lon="-105.2301559">
  <ele>1582.89</ele>
  <time>2026-08-28T17:51:26Z</time>
  <course>181.56</course>
  <speed>0.17</speed>
  <fix>3d</fix>
</trkpt>
<trkpt lat="40.0726943" lon="-105.2301561">
  <ele>1583.0</ele>
  <time>2026-08-28T17:51:26Z</time>
  <course>181.46</course>
  <speed>0.1</speed>
  <fix>3d</fix>
</trkpt>
<trkpt lat="40.0726938" lon="-105.230156">
  <ele>1582.89</ele>
  <time>2026-08-28T17:51:26Z</time>
  <course>181.59</course>
  <speed>0.2</speed>
  <fix>3d</fix>
</trkpt>
<trkpt lat="40.0726942" lon="-105.2301561">
  <ele>1583.0</ele>
  <time>2026-08-28T17:51:26Z</time>
  <course>181.5</course>
  <speed>0.15</speed>
  <fix>3d</fix>
</trkpt>
<trkpt lat="40.0726937" lon="-105.230156">
  <ele>1582.89</ele>
  <time>2026-08-28T17:51:26Z</time>
  <course>181.63</course>
  <speed>0.23</speed>
  <fix>3d</fix>
</trkpt>
<trkpt lat="40.0726942" lon="-105.2301561">
  <ele>1583.0</ele>
  <time>2026-08-28T17:51:26Z</time>
  <course>181.5</course>
  <speed>0.15</speed>
  <fix>3d</fix>
</trkpt>
<trkpt lat="40.0726935" lon="-105.230156">
  <ele>1582.89</ele>
  <time>2026-08-28T17:51:26Z</time>
  <course>181.67</course>
  <speed>0.26</speed>
  <fix>3d</fix>
</trkpt>
<trkpt lat="40.0726939" lon="-105.2301561">
  <ele>1583.0</ele>
  <time>2026-08-28T17:51:26Z</time>
  <course>181.57</course>
  <speed>0.2</speed>
  <fix>3d</fix>
</trkpt>
<trkpt lat="40.0726932" lon="-105.230156">
  <ele>1582.89</ele>
  <time>2026-08-28T17:51:26Z</time>
  <course>181.73</course>
  <speed>0.28</speed>
  <fix>3d</fix>
</trkpt>
<trkpt lat="40.0726939" lon="-105.2301561">
  <ele>1583.0</ele>
  <time>2026-08-28T17:51:26Z</time>
  <course>181.57</course>
  <speed>0.2</speed>
  <fix>3d</fix>
</trkpt>
<trkpt lat="40.072693" lon="-105.230156">
  <ele>1582.88</ele>
  <time>2026-08-28T17:51:26Z</time>
  <course>181.79</course>
  <speed>0.31</speed>
  <fix>3d</fix>
</trkpt>
<trkpt lat="40.0726934" lon="-105.2301561">
  <ele>1583.0</ele>
  <time>2026-08-28T17:51:26Z</time>
  <course>181.67</course>
  <speed>0.26</speed>
  <fix>3d</fix>
</trkpt>
<trkpt lat="40.0726927" lon="-105.230156">
  <ele>1582.88</ele>
  <time>2026-08-28T17:51:26Z</time>
  <course>181.87</course>
  <speed>0.34</speed>
  <fix>3d</fix>
</trkpt>
<trkpt lat="40.0726934" lon="-105.2301561">
  <ele>1583.0</ele>
  <time>2026-08-28T17:51:26Z</time>
  <course>181.67</course>
  <speed>0.26</speed>
  <fix>3d</fix>
</trkpt>
<trkpt lat="40.0726923" lon="-105.230156">
  <ele>1582.88</ele>
  <time>2026-08-28T17:51:26Z</time>
  <course>181.97</course>
  <speed>0.37</speed>
  <fix>3d</fix>
</trkpt>
<trkpt lat="40.0726929" lon="-105.2301561">
  <ele>1583.0</ele>
  <time>2026-08-28T17:51:26Z</time>
  <course>181.82</course>
  <speed>0.31</speed>
  <fix>3d</fix>
</trkpt>
<trkpt lat="40.072692" lon="-105.230156">
  <ele>1582.87</ele>
  <time>2026-08-28T17:51:26Z</time>
  <course>182.07</course>
  <speed>0.4</speed>
  <fix>3d</fix>
</trkpt>
<trkpt lat="40.0726929" lon="-105.2301561">
  <ele>1583.0</ele>
  <time>2026-08-28T17:51:26Z</time>
  <course>181.82</course>
  <speed>0.31</speed>
  <fix>3d</fix>
</trkpt>
<trkpt lat="40.0726916" lon="-105.230156">
  <ele>1582.87</ele>
  <time>2026-08-28T17:51:26Z</time>
  <course>182.19</course>
  <speed>0.43</speed>
  <fix>3d</fix>
</trkpt>
<trkpt lat="40.0726923" lon="-105.2301561">
  <ele>1583.0</ele>
  <time>2026-08-28T17:51:26Z</time>
  <course>182.0</course>
  <speed>0.37</speed>
  <fix>3d</fix>
</trkpt>
<trkpt lat="40.0726912" lon="-105.2301561">
  <ele>1582.87</ele>
  <time>2026-08-28T17:51:26Z</time>
  <course>182.32</course>
  <speed>0.45</speed>
  <fix>3d</fix>
</trkpt>
<trkpt lat="40.0726923" lon="-105.2301561">
  <ele>1583.0</ele>
  <time>2026-08-28T17:51:26Z</time>
  <course>182.0</course>
  <speed>0.37</speed>
  <fix>3d</fix>
</trkpt>
<trkpt lat="40.0726908" lon="-105.2301561">
  <ele>1582.87</ele>
  <time>2026-08-28T17:51:26Z</time>
  <course>182.48</course>
  <speed>0.48</speed>
  <fix>3d</fix>
</trkpt>
<trkpt lat="40.0726916" lon="-105.2301562">
  <ele>1583.0</ele>
  <time>2026-08-28T17:51:26Z</time>
  <course>182.25</course>
  <speed>0.42</speed>
  <fix>3d</fix>
</trkpt>
<trkpt lat="40.0726904" lon="-105.2301561">
  <ele>1582.86</ele>
  <time>2026-08-28T17:51:26Z</time>
  <course>182.65</course>
  <speed>0.5000999900019995</speed>
  <fix>3d</fix>
</trkpt>
<trkpt lat="40.0726916" lon="-105.2301562">
  <ele>1583.0</ele>
  <time>2026-08-28T17:51:26Z</time>
  <course>182.25</course>
  <speed>0.42</speed>
  <fix>3d</fix>
</trkpt>
<trkpt lat="40.07269" lon="-105.2301561">
  <ele>1582.86</ele>
  <time>2026-08-28T17:51:26Z</time>
  <course>182.84</course>
  <speed>0.5200961449578337</speed>
  <fix>3d</fix>
</trkpt>
<trkpt lat="40.0726908" lon="-105.2301562">
  <ele>1583.0</ele>
  <time>2026-08-28T17:51:26Z</time>
  <course>182.58</course>
  <speed>0.46</speed>
  <fix>3d</fix>
</trkpt>
<trkpt lat="40.0726895" lon="-105.2301561">
  <ele>1582.86</ele>
  <time>2026-08-28T17:51:26Z</time>
  <course>183.06</course>
  <speed>0.540092584655631</speed>
  <fix>3d</fix>
</trkpt>
<trkpt lat="40.0726908" lon="-105.2301562">
  <ele>1583.0</ele>
  <time>2026-08-28T17:51:26Z</time>
  <course>182.58</course>
  <speed>0.46</speed>
  <fix>3d</fix>
</trkpt>
<trkpt lat="40.0726891" lon="-105.2301562">
  <ele>1582.86</ele>
  <time>2026-08-28T17:51:26Z</time>
  <course>183.31</course>
  <speed>0.5600892785976178</speed>
  <fix>3d</fix>
</trkpt>
<trkpt lat="40.0726899" lon="-105.2301562">
  <ele>1583.0</ele>
  <time>2026-08-28T17:51:26Z</time>
  <course>182.99</course>
  <speed>0.51</speed>
  <fix>3d</fix>
</trkpt>
<trkpt lat="40.0726886" lon="-105.2301562">
  <ele>1582.86</ele>
  <time>2026-08-28T17:51:26Z</time>
  <course>183.6</course>
  <speed>0.5803447251418763</speed>
  <fix>3d</fix>
</trkpt>
<trkpt lat="40.0726899" lon="-105.2301562">
  <ele>1583.0</ele>
  <time>2026-08-28T17:51:26Z</time>
  <course>182.99</course>
  <speed>0.51</speed>
  <fix>3d</fix>
</trkpt>
<trkpt lat="40.0726881" lon="-105.2301562">
  <ele>1582.86</ele>
  <time>2026-08-28T17:51:26Z</time>
  <course>183.91</course>
  <speed>0.5903388857258176</speed>
  <fix>3d</fix>
</trkpt>
<trkpt lat="40.0726889" lon="-105.2301563">
  <ele>1583.0</ele>
  <time>2026-08-28T17:51:26Z</time>
  <course>183.51</course>
  <speed>0.55</speed>
  <fix>3d</fix>
</trkpt>
<trkpt lat="40.0726876" lon="-105.2301563">
  <ele>1582.86</ele>
  <time>2026-08-28T17:51:26Z</time>
  <course>184.2</course>
  <speed>0.6107372593840988</speed>
  <fix>3d</fix>
</trkpt>
<trkpt lat="40.0726889" lon="-105.2301563">
  <ele>1583.0</ele>
  <time>2026-08-28T17:51:26Z</time>
  <course>183.51</course>
  <speed>0.55</speed>
  <fix>3d</fix>
</trkpt>
<trkpt lat="40.0726871" lon="-105.2301563">
  <ele>1582.86</ele>
  <time>2026-08-28T17:51:26Z</time>
  <course>184.6</course>
  <speed>0.6207253821135398</speed>
  <fix>3d</fix>
</trkpt>
<trkpt lat="40.0726879" lon="-105.2301564">
  <ele>1583.0</ele>
  <time>2026-08-28T17:51:26Z</time>
  <course>184.18</course>
  <speed>0.58</speed>
  <fix>3d</fix>
</trkpt>
<trkpt lat="40.0726866" lon="-105.2301564">
  <ele>1582.86</ele>
  <time>2026-08-28T17:51:26Z</time>
  <course>185.04</course>
  <speed>0.6412487816752559</speed>
  <fix>3d</fix>
</trkpt>
<trkpt lat="40.0726879" lon="-105.2301564">
  <ele>1583.0</ele>
  <time>2026-08-28T17:51:26Z</time>
  <course>184.18</course>
  <speed>0.58</speed>
  <fix>3d</fix>
</trkpt>
<trkpt lat="40.072686" lon="-105.2301564">
  <ele>1582.86</ele>
  <time>2026-08-28T17:51:26Z</time>
  <course>185.54</course>
  <speed>0.6512296062065974</speed>
  <fix>3d</fix>
</trkpt>
<trkpt lat="40.0726868" lon="-105.2301565">
  <ele>1583.0</ele>
  <time>2026-08-28T17:51:26Z</time>
  <course>185.03</course>
  <speed>0.61</speed>
  <fix>3d</fix>
</trkpt>
<trkpt lat="40.0726854" lon="-105.2301565">
  <ele>1582.86</ele>
  <time>2026-08-28T17:51:26Z</time>
  <course>186.11</course>
  <speed>0.671863081289633</speed>
  <fix>3d</fix>
</trkpt>
<trkpt lat="40.0726868" lon="-105.2301565">
  <ele>1583.0</ele>
  <time>2026-08-28T17:51:26Z</time>
  <course>185.03</course>
  <speed>0.61</speed>
  <fix>3d</fix>
</trkpt>
<trkpt lat="40.0726848" lon="-105.2301566">
  <ele>1582.85</ele>
  <time>2026-08-28T17:51:26Z</time>
  <course>186.76</course>
  <speed>0.6826419266350405</speed>
  <fix>3d</fix>
</trkpt>
<trkpt lat="40.0726857" lon="-105.2301567">
  <ele>1583.0</ele>
  <time>2026-08-28T17:51:26Z</time>
  <course>186.12</course>
  <speed>0.64</speed>
  <fix>3d</fix>
</trkpt>
<trkpt lat="40.0726842" lon="-105.2301567">
  <ele>1582.85</ele>
  <time>2026-08-28T17:51:26Z</time>
  <course>187.49</course>
  <speed>0.7034912934784623</speed>
  <fix>3d</fix>
</trkpt>
<trkpt lat="40.0726857" lon="-105.2301567">
  <ele>1583.0</ele>
  <time>2026-08-28T17:51:26Z</time>
  <course>186.12</course>
  <speed>0.64</speed>
  <fix>3d</fix>
</trkpt>
<trkpt lat="40.0726836" lon="-105.2301568">
  <ele>1582.85</ele>
  <time>2026-08-28T17:51:26Z</time>
  <course>188.33</course>
  <speed>0.7144928271158499</speed>
  <fix>3d</fix>
</trkpt>
<trkpt lat="40.0726845" lon="-105.2301569">
  <ele>1583.0</ele>
  <time>2026-08-28T17:51:26Z</time>
  <course>187.52</course>
  <speed>0.67</speed>
  <fix>3d</fix>
</trkpt>
<trkpt lat="40.072683" lon="-105.2301569">
  <ele>1582.85</ele>
  <time>2026-08-28T17:51:26Z</time>
  <course>189.28</course>
  <speed>0.7256031973468694</speed>
  <fix>3d</fix>
</trkpt>
<trkpt lat="40.0726845" lon="-105.2301569">
  <ele>1583.0</ele>
  <time>2026-08-28T17:51:26Z</time>
  <course>187.52</course>
  <speed>0.67</speed>
  <fix>3d</fix>
</trkpt>
<trkpt lat="40.0726823" lon="-105.2301571">
  <ele>1582.85</ele>
  <time>2026-08-28T17:51:26Z</time>
  <course>190.37</course>
  <speed>0.7382411530116699</speed>
  <fix>3d</fix>
</trkpt>
<trkpt lat="40.0726833" lon="-105.2301571">
  <ele>1583.0</ele>
  <time>2026-08-28T17:51:26Z</time>
  <course>189.33</course>
  <speed>0.7</speed>
  <fix>3d</fix>
</trkpt>
<trkpt lat="40.0726815" lon="-105.2301573">
  <ele>1582.85</ele>
  <time>2026-08-28T17:51:26Z</time>
  <course>191.87</course>
  <speed>0.7513321502504735</speed>
  <fix>3d</fix>
</trkpt>
<trkpt lat="40.0726833" lon="-105.2301571">
  <ele>1583.0</ele>
  <time>2026-08-28T17:51:26Z</time>
  <course>189.33</course>
  <speed>0.7</speed>
  <fix>3d</fix>
</trkpt>
<trkpt lat="40.0726809" lon="-105.2301575">
  <ele>1582.85</ele>
  <time>2026-08-28T17:51:26Z</time>
  <course>193.32</course>
  <speed>0.7648529270389177</speed>
  <fix>3d</fix>
</trkpt>
<trkpt lat="40.072682" lon="-105.2301574">
  <ele>1583.0</ele>
  <time>2026-08-28T17:51:26Z</time>
  <course>191.67</course>
  <speed>0.73</speed>
  <fix>3d</fix>
</trkpt>
<trkpt lat="40.0726802" lon="-105.2301577">
  <ele>1582.85</ele>
  <time>2026-08-28T17:51:26Z</time>
  <course>194.99</course>
  <speed>0.7810249675906654</speed>
  <fix>3d</fix>
</trkpt>
<trkpt lat="40.072682" lon="-105.2301574">
  <ele>1583.0</ele>
  <time>2026-08-28T17:51:26Z</time>
  <course>191.67</course>
  <speed>0.73</speed>
  <fix>3d</fix>
</trkpt>
<trkpt lat="40.0726795" lon="-105.230158">
  <ele>1582.86</ele>
  <time>2026-08-28T17:51:26Z</time>
  <course>196.9</course>
  <speed>0.7981227975693966</speed>
  <fix>3d</fix>
</trkpt>
<trkpt lat="40.0726807" lon="-105.2301578">
  <ele>1583.0</ele>
  <time>2026-08-28T17:51:26Z</time>
  <course>194.75</course>
  <speed>0.75</speed>
  <fix>3d</fix>
</trkpt>
<trkpt lat="40.0726789" lon="-105.2301582">
  <ele>1582.86</ele>
  <time>2026-08-28T17:51:26Z</time>
  <course>199.09</course>
  <speed>0.8065358020571685</speed>
  <fix>3d</fix>
</trkpt>
<trkpt lat="40.0726807" lon="-105.2301578">
  <ele>1583.0</ele>
  <time>2026-08-28T17:51:26Z</time>
  <course>194.75</course>
  <speed>0.75</speed>
  <fix>3d</fix>
</trkpt>
<trkpt lat="40.0726782" lon="-105.2301586">
  <ele>1582.86</ele>
  <time>2026-08-28T17:51:26Z</time>
  <course>201.62</course>
  <speed>0.8287339742040264</speed>
  <fix>3d</fix>
</trkpt>
<trkpt lat="40.0726794" lon="-105.2301583">
  <ele>1583.0</ele>
  <time>2026-08-28T17:51:26Z</time>
  <course>198.81</course>
  <speed>0.78</speed>
  <fix>3d</fix>
</trkpt>
<trkpt lat="40.0726775" lon="-105.230159">
  <ele>1582.86</ele>
  <time>2026-08-28T17:51:26Z</time>
  <course>204.53</course>
  <speed>0.8338465086573187</speed>
  <fix>3d</fix>
</trkpt>
<trkpt lat="40.0726794" lon="-105.2301583">
  <ele>1583.0</ele>
  <time>2026-08-28T17:51:26Z</time>
  <course>198.81</course>
  <speed>0.78</speed>
  <fix>3d</fix>
</trkpt>
<trkpt lat="40.0726768" lon="-105.2301594">
  <ele>1582.86</ele>
  <time>2026-08-28T17:51:26Z</time>
  <course>207.87</course>
  <speed>0.8452810183601664</speed>
  <fix>3d</fix>
</trkpt>
<trkpt lat="40.0726781" lon="-105.230159">
  <ele>1583.0</ele>
  <time>2026-08-28T17:51:26Z</time>
  <course>204.19</course>
  <speed>0.81</speed>
  <fix>3d</fix>
</trkpt>
<trkpt lat="40.0726762" lon="-105.2301599">
  <ele>1582.86</ele>
  <time>2026-08-28T17:51:26Z</time>
  <course>211.71</course>
  <speed>0.8645229898620395</speed>
  <fix>3d</fix>
</trkpt>
<trkpt lat="40.0726781" lon="-105.230159">
  <ele>1583.0</ele>
  <time>2026-08-28T17:51:26Z</time>
  <course>204.19</course>
  <speed>0.81</speed>
  <fix>3d</fix>
</trkpt>
<trkpt lat="40.0726755" lon="-105.2301604">
  <ele>1582.86</ele>
  <time>2026-08-28T17:51:26Z</time>
  <course>216.1</course>
  <speed>0.8792041856133307</speed>
  <fix>3d</fix>
</trkpt>
<trkpt lat="40.0726767" lon="-105.2301599">
  <ele>1583.0</ele>
  <time>2026-08-28T17:51:26Z</time>
  <course>211.26</course>
  <speed>0.84</speed>
  <fix>3d</fix>
</trkpt>
<trkpt lat="40.0726749" lon="-105.2301611">
  <ele>1582.86</ele>
  <time>2026-08-28T17:51:26Z</time>
  <course>221.09</course>
  <speed>0.8886506625215557</speed>
  <fix>3d</fix>
</trkpt>
<trkpt lat="40.0726767" lon="-105.2301599">
  <ele>1583.0</ele>
  <time>2026-08-28T17:51:26Z</time>
  <course>211.26</course>
  <speed>0.84</speed>
  <fix>3d</fix>
</trkpt>
<trkpt lat="40.0726745" lon="-105.2301617">
  <ele>1582.85</ele>
  <time>2026-08-28T17:51:26Z</time>
  <course>225.57</course>
  <speed>0.898276126811795</speed>
  <fix>3d</fix>
</trkpt>
<trkpt lat="40.0726754" lon="-105.2301611">
  <ele>1583.0</ele>
  <time>2026-08-28T17:51:26Z</time>
  <course>220.48</course>
  <speed>0.87</speed>
  <fix>3d</fix>
</trkpt>
<trkpt lat="40.072674" lon="-105.2301625">
  <ele>1582.85</ele>
  <time>2026-08-28T17:51:26Z</time>
  <course>231.34</course>
  <speed>0.9154780172128657</speed>
  <fix>3d</fix>
</trkpt>
<trkpt lat="40.0726754" lon="-105.2301611">
  <ele>1583.0</ele>
  <time>2026-08-28T17:51:26Z</time>
  <course>220.48</course>
  <speed>0.87</speed>
  <fix>3d</fix>
</trkpt>
<trkpt lat="40.0726735" lon="-105.2301634">
  <ele>1582.85</ele>
  <time>2026-08-28T17:51:26Z</time>
  <course>237.23</course>
  <speed>0.9291393867445293</speed>
  <fix>3d</fix>
</trkpt>
<trkpt lat="40.0726743" lon="-105.2301626">
  <ele>1583.0</ele>
  <time>2026-08-28T17:51:26Z</time>
  <course>231.5</course>
  <speed>0.91</speed>
  <fix>3d</fix>
</trkpt>
<trkpt lat="40.0726731" lon="-105.2301644">
  <ele>1582.85</ele>
  <time>2026-08-28T17:51:26Z</time>
  <course>243.17</course>
  <speed>0.9441398201537736</speed>
  <fix>3d</fix>
</trkpt>
<trkpt lat="40.0726743" lon="-105.2301626">
  <ele>1583.0</ele>
  <time>2026-08-28T17:51:26Z</time>
  <course>231.5</course>
  <speed>0.91</speed>
  <fix>3d</fix>
</trkpt>
<trkpt lat="40.0726727" lon="-105.2301654">
  <ele>1582.85</ele>
  <time>2026-08-28T17:51:26Z</time>
  <course>249.27</course>
  <speed>0.950789145920377</speed>
  <fix>3d</fix>
</trkpt>
<trkpt lat="40.0726734" lon="-105.2301645">
  <ele>1583.0</ele>
  <time>2026-08-28T17:51:26Z</time>
  <course>243.38</course>
  <speed>0.94</speed>
  <fix>3d</fix>
</trkpt>
<trkpt lat="40.0726725" lon="-105.2301666">
  <ele>1582.85</ele>
  <time>2026-08-28T17:51:26Z</time>
  <course>255.46</course>
  <speed>0.9656603957913983</speed>
  <fix>3d</fix>
</trkpt>
<trkpt lat="40.0726734" lon="-105.2301645">
  <ele>1583.0</ele>
  <time>2026-08-28T17:51:26Z</time>
  <course>243.38</course>
  <speed>0.94</speed>
  <fix>3d</fix>
</trkpt>
<trkpt lat="40.0726723" lon="-105.2301677">
  <ele>1582.85</ele>
  <time>2026-08-28T17:51:26Z</time>
  <course>261.76</course>
  <speed>0.9831073186585481</speed>
  <fix>3d</fix>
</trkpt>
<trkpt lat="40.0726729" lon="-105.2301665">
  <ele>1583.0</ele>
  <time>2026-08-28T17:51:26Z</time>
  <course>255.67</course>
  <speed>0.97</speed>
  <fix>3d</fix>
</trkpt>
<trkpt lat="40.0726723" lon="-105.2301689">
  <ele>1582.85</ele>
  <time>2026-08-28T17:51:26Z</time>
  <course>268.2</course>
  <speed>0.9912618221237011</speed>
  <fix>3d</fix>
</trkpt>
<trkpt lat="40.0726729" lon="-105.2301665">
  <ele>1583.0</ele>
  <time>2026-08-28T17:51:26Z</time>
  <course>255.67</course>
  <speed>0.97</speed>
  <fix>3d</fix>
</trkpt>
<trkpt lat="40.0726723" lon="-105.2301701">
  <ele>1582.85</ele>
  <time>2026-08-28T17:51:26Z</time>
  <course>274.67</course>
  <speed>1.0017983829094554</speed>
  <fix>3d</fix>
</trkpt>
<trkpt lat="40.0726726" lon="-105.2301689">
  <ele>1583.0</ele>
  <time>2026-08-28T17:51:26Z</time>
  <course>268.34</course>
  <speed>1.0</speed>
  <fix>3d</fix>
</trkpt>
<trkpt lat="40.0726724" lon="-105.2301714">
  <ele>1582.85</ele>
  <time>2026-08-28T17:51:26Z</time>
  <course>281.22</course>
  <speed>1.016070863670443</speed>
  <fix>3d</fix>
</trkpt>
<trkpt lat="40.0726726" lon="-105.2301689">
  <ele>1583.0</ele>
  <time>2026-08-28T17:51:26Z</time>
  <course>268.34</course>
  <speed>1.0</speed>
  <fix>3d</fix>
</trkpt>
<trkpt lat="40.0726727" lon="-105.2301728">
  <ele>1582.85</ele>
  <time>2026-08-28T17:51:26Z</time>
  <course>289.17</course>
  <speed>1.021420579389313</speed>
  <fix>3d</fix>
</trkpt>
<trkpt lat="40.0726727" lon="-105.2301712">
  <ele>1583.0</ele>
  <time>2026-08-28T17:51:26Z</time>
  <course>281.34</course>
  <speed>1.02</speed>
  <fix>3d</fix>
</trkpt>
<trkpt lat="40.0726731" lon="-105.2301739">
  <ele>1582.85</ele>
  <time>2026-08-28T17:51:26Z</time>
  <course>295.86</course>
  <speed>1.0288342918079665</speed>
  <fix>3d</fix>
</trkpt>
<trkpt lat="40.0726727" lon="-105.2301712">
  <ele>1583.0</ele>
  <time>2026-08-28T17:51:26Z</time>
  <course>281.34</course>
  <speed>1.02</speed>
  <fix>3d</fix>
</trkpt>
<trkpt lat="40.0726736" lon="-105.230175">
  <ele>1582.85</ele>
  <time>2026-08-28T17:51:26Z</time>
  <course>302.59</course>
  <speed>1.029271587094485</speed>
  <fix>3d</fix>
</trkpt>
<trkpt lat="40.0726733" lon="-105.2301735">
  <ele>1583.0</ele>
  <time>2026-08-28T17:51:26Z</time>
  <course>294.61</course>
  <speed>1.04</speed>
  <fix>3d</fix>
</trkpt>
<trkpt lat="40.0726742" lon="-105.230176">
  <ele>1582.85</ele>
  <time>2026-08-28T17:51:26Z</time>
  <course>309.35</course>
  <speed>1.0307764064044151</speed>
  <fix>3d</fix>
</trkpt>
<trkpt lat="40.0726733" lon="-105.2301735">
  <ele>1583.0</ele>
  <time>2026-08-28T17:51:26Z</time>
  <course>294.61</course>
  <speed>1.04</speed>
  <fix>3d</fix>
</trkpt>
<trkpt lat="40.0726749" lon="-105.2301769">
  <ele>1582.85</ele>
  <time>2026-08-28T17:51:26Z</time>
  <course>316.12</course>
  <speed>1.0327632836231155</speed>
  <fix>3d</fix>
</trkpt>
<trkpt lat="40.0726742" lon="-105.2301756">
  <ele>1583.0</ele>
  <time>2026-08-28T17:51:26Z</time>
  <course>308.07</course>
  <speed>1.05</speed>
  <fix>3d</fix>
</trkpt>
<trkpt lat="40.0726756" lon="-105.2301777">
  <ele>1582.85</ele>
  <time>2026-08-28T17:51:26Z</time>
  <course>322.9</course>
  <speed>1.0360019305001318</speed>
  <fix>3d</fix>
</trkpt>
<trkpt lat="40.0726742" lon="-105.2301756">
  <ele>1583.0</ele>
  <time>2026-08-28T17:51:26Z</time>
  <course>308.07</course>
  <speed>1.05</speed>
  <fix>3d</fix>
</trkpt>
<trkpt lat="40.0726764" lon="-105.2301784">
  <ele>1582.86</ele>
  <time>2026-08-28T17:51:26Z</time>
  <course>329.67</course>
  <speed>1.0257680049601858</speed>
  <fix>3d</fix>
</trkpt>
<trkpt lat="40.0726755" lon="-105.2301774">
  <ele>1583.0</ele>
  <time>2026-08-28T17:51:26Z</time>
  <course>321.63</course>
  <speed>1.05</speed>
  <fix>3d</fix>
</trkpt>
<trkpt lat="40.0726773" lon="-105.2301789">
  <ele>1582.86</ele>
  <time>2026-08-28T17:51:26Z</time>
  <course>335.99</course>
  <speed>1.0346980235798269</speed>
  <fix>3d</fix>
</trkpt>
<trkpt lat="40.0726755" lon="-105.2301774">
  <ele>1583.0</ele>
  <time>2026-08-28T17:51:26Z</time>
  <course>321.63</course>
  <speed>1.05</speed>
  <fix>3d</fix>
</trkpt>
<trkpt lat="40.0726782" lon="-105.2301794">
  <ele>1582.85</ele>
  <time>2026-08-28T17:51:26Z</time>
  <course>341.5</course>
  <speed>1.027861858422619</speed>
  <fix>3d</fix>
</trkpt>
<trkpt lat="40.0726772" lon="-105.2301787">
  <ele>1583.0</ele>
  <time>2026-08-28T17:51:26Z</time>
  <course>334.48</course>
  <speed>1.05</speed>
  <fix>3d</fix>
</trkpt>
<trkpt lat="40.0726791" lon="-105.2301797">
  <ele>1582.85</ele>
  <time>2026-08-28T17:51:26Z</time>
  <course>346.21</course>
  <speed>1.035857133006285</speed>
  <fix>3d</fix>
</trkpt>
<trkpt lat="40.0726772" lon="-105.2301787">
  <ele>1583.0</ele>
  <time>2026-08-28T17:51:26Z</time>
  <course>334.48</course>
  <speed>1.05</speed>
  <fix>3d</fix>
</trkpt>
<trkpt lat="40.07268" lon="-105.2301799">
  <ele>1582.85</ele>
  <time>2026-08-28T17:51:26Z</time>
  <course>350.18</course>
  <speed>1.0423531071570709</speed>
  <fix>3d</fix>
</trkpt>
<trkpt lat="40.0726789" lon="-105.2301795">
  <ele>1583.0</ele>
  <time>2026-08-28T17:51:26Z</time>
  <course>345.05</course>
  <speed>1.06</speed>
  <fix>3d</fix>
</trkpt>
<trkpt lat="40.0726808" lon="-105.23018">
  <ele>1582.85</ele>
  <time>2026-08-28T17:51:26Z</time>
  <course>352.91</course>
  <speed>1.0557461816175324</speed>
  <fix>3d</fix>
</trkpt>
<trkpt lat="40.0726789" lon="-105.2301795">
  <ele>1583.0</ele>
  <time>2026-08-28T17:51:26Z</time>
  <course>345.05</course>
  <speed>1.06</speed>
  <fix>3d</fix>
</trkpt>
<trkpt lat="40.0726818" lon="-105.2301801">
  <ele>1582.85</ele>
  <time>2026-08-28T17:51:26Z</time>
  <course>355.76</course>
  <speed>1.0716809226630846</speed>
  <fix>3d</fix>
</trkpt>
<trkpt lat="40.0726808" lon="-105.23018">
  <ele>1583.0</ele>
  <time>2026-08-28T17:51:26Z</time>
  <course>352.7</course>
  <speed>1.09</speed>
  <fix>3d</fix>
</trkpt>
<trkpt lat="40.0726828" lon="-105.2301802">
  <ele>1582.84</ele>
  <time>2026-08-28T17:51:26Z</time>
  <course>358.11</course>
  <speed>1.1000454536063498</speed>
  <fix>3d</fix>
</trkpt>
<trkpt lat="40.0726808" lon="-105.23018">
  <ele>1583.0</ele>
  <time>2026-08-28T17:51:26Z</time>
  <course>352.7</course>
  <speed>1.09</speed>
  <fix>3d</fix>
</trkpt>
<trkpt lat="40.0726838" lon="-105.2301802">
  <ele>1582.84</ele>
  <time>2026-08-28T17:51:26Z</time>
  <course>0.0</course>
  <speed>1.120044641967453</speed>
  <fix>3d</fix>
</trkpt>
<trkpt lat="40.0726829" lon="-105.2301802">
  <ele>1583.0</ele>
  <time>2026-08-28T17:51:26Z</time>
  <course>357.99</course>
  <speed>1.13</speed>
  <fix>3d</fix>
</trkpt>
<trkpt lat="40.0726849" lon="-105.2301801">
  <ele>1582.84</ele>
  <time>2026-08-28T17:51:26Z</time>
  <course>1.56</course>
  <speed>1.161077086157504</speed>
  <fix>3d</fix>
</trkpt>
<trkpt lat="40.0726829" lon="-105.2301802">
  <ele>1583.0</ele>
  <time>2026-08-28T17:51:26Z</time>
  <course>357.99</course>
  <speed>1.13</speed>
  <fix>3d</fix>
</trkpt>
<trkpt lat="40.072686" lon="-105.2301801">
  <ele>1582.84</ele>
  <time>2026-08-28T17:51:26Z</time>
  <course>2.82</course>
  <speed>1.192057045614848</speed>
  <fix>3d</fix>
</trkpt>
<trkpt lat="40.0726849" lon="-105.2301802">
  <ele>1583.0</ele>
  <time>2026-08-28T17:51:26Z</time>
  <course>1.53</course>
  <speed>1.19</speed>
  <fix>3d</fix>
</trkpt>
<trkpt lat="40.0726871" lon="-105.23018">
  <ele>1582.84</ele>
  <time>2026-08-28T17:51:26Z</time>
  <course>3.83</course>
  <speed>1.244025723206719</speed>
  <fix>3d</fix>
</trkpt>
<trkpt lat="40.0726849" lon="-105.2301802">
  <ele>1583.0</ele>
  <time>2026-08-28T17:51:26Z</time>
  <course>1.53</course>
  <speed>1.19</speed>
  <fix>3d</fix>
</trkpt>
<trkpt lat="40.0726883" lon="-105.2301798">
  <ele>1582.84</ele>
  <time>2026-08-28T17:51:26Z</time>
  <course>4.65</course>
  <speed>1.2955693729013509</speed>
  <fix>3d</fix>
</trkpt>
<trkpt lat="40.0726871" lon="-105.2301801">
  <ele>1583.0</ele>
  <time>2026-08-28T17:51:26Z</time>
  <course>3.86</course>
  <speed>1.27</speed>
  <fix>3d</fix>
</trkpt>
<trkpt lat="40.0726896" lon="-105.2301798">
  <ele>1582.85</ele>
  <time>2026-08-28T17:51:26Z</time>
  <course>5.28</course>
  <speed>1.3572398461583715</speed>
  <fix>3d</fix>
</trkpt>
<trkpt lat="40.0726871" lon="-105.2301801">
  <ele>1583.0</ele>
  <time>2026-08-28T17:51:26Z</time>
  <course>3.86</course>
  <speed>1.27</speed>
  <fix>3d</fix>
</trkpt>
<trkpt lat="40.0726908" lon="-105.2301796">
  <ele>1582.85</ele>
  <time>2026-08-28T17:51:26Z</time>
  <course>5.78</course>
  <speed>1.417956275771577</speed>
  <fix>3d</fix>
</trkpt>
<trkpt lat="40.0726895" lon="-105.2301799">
  <ele>1583.0</ele>
  <time>2026-08-28T17:51:26Z</time>
  <course>5.33</course>
  <speed>1.38</speed>
  <fix>3d</fix>
</trkpt>
<trkpt lat="40.0726925" lon="-105.2301794">
  <ele>1582.85</ele>
  <time>2026-08-28T17:51:26Z</time>
  <course>6.23</course>
  <speed>1.4996666296213967</speed>
  <fix>3d</fix>
</trkpt>
<trkpt lat="40.0726895" lon="-105.2301799">
  <ele>1583.0</ele>
  <time>2026-08-28T17:51:26Z</time>
  <course>5.33</course>
  <speed>1.38</speed>
  <fix>3d</fix>
</trkpt>
<trkpt lat="40.0726939" lon="-105.2301792">
  <ele>1582.85</ele>
  <time>2026-08-28T17:51:26Z</time>
  <course>6.5</course>
  <speed>1.570350279396288</speed>
  <fix>3d</fix>
</trkpt>
<trkpt lat="40.0726921" lon="-105.2301796">
  <ele>1583.0</ele>
  <time>2026-08-28T17:51:26Z</time>
  <course>6.24</course>
  <speed>1.5</speed>
  <fix>3d</fix>
</trkpt>
<trkpt lat="40.0726953" lon="-105.230179">
  <ele>1582.85</ele>
  <time>2026-08-28T17:51:26Z</time>
  <course>6.7</course>
  <speed>1.6422241016377759</speed>
  <fix>3d</fix>
</trkpt>
<trkpt lat="40.0726921" lon="-105.2301796">
  <ele>1583.0</ele>
  <time>2026-08-28T17:51:26Z</time>
  <course>6.24</course>
  <speed>1.5</speed>
  <fix>3d</fix>
</trkpt>
<trkpt lat="40.0726969" lon="-105.2301787">
  <ele>1582.85</ele>
  <time>2026-08-28T17:51:26Z</time>
  <course>6.83</course>
  <speed>1.7228464818433473</speed>
  <fix>3d</fix>
</trkpt>
<trkpt lat="40.0726949" lon="-105.2301792">
  <ele>1583.0</ele>
  <time>2026-08-28T17:51:26Z</time>
  <course>6.76</course>
  <speed>1.64</speed>
  <fix>3d</fix>
</trkpt>
<trkpt lat="40.0726985" lon="-105.2301785">
  <ele>1582.86</ele>
  <time>2026-08-28T17:51:26Z</time>
  <course>6.91</course>
  <speed>1.8034688796871432</speed>
  <fix>3d</fix>
</trkpt>
<trkpt lat="40.0726949" lon="-105.2301792">
  <ele>1583.0</ele>
  <time>2026-08-28T17:51:26Z</time>
  <course>6.76</course>
  <speed>1.64</speed>
  <fix>3d</fix>
</trkpt>
<trkpt lat="40.0727002" lon="-105.2301782">
  <ele>1582.86</ele>
  <time>2026-08-28T17:51:26Z</time>
  <course>6.94</course>
  <speed>1.8940168953839878</speed>
  <fix>3d</fix>
</trkpt>
<trkpt lat="40.072698" lon="-105.2301787">
  <ele>1583.0</ele>
  <time>2026-08-28T17:51:26Z</time>
  <course>7.01</course>
  <speed>1.8</speed>
  <fix>3d</fix>
</trkpt>
<trkpt lat="40.072702" lon="-105.230178">
  <ele>1582.86</ele>
  <time>2026-08-28T17:51:26Z</time>
  <course>6.94</course>
  <speed>1.9845654436173175</speed>
  <fix>3d</fix>
</trkpt>
<trkpt lat="40.072698" lon="-105.2301787">
  <ele>1583.0</ele>
  <time>2026-08-28T17:51:26Z</time>
  <course>7.01</course>
  <speed>1.8</speed>
  <fix>3d</fix>
</trkpt>
<trkpt lat="40.0727038" lon="-105.2301777">
  <ele>1582.86</ele>
  <time>2026-08-28T17:51:26Z</time>
  <course>6.94</course>
  <speed>2.0751144546747295</speed>
  <fix>3d</fix>
</trkpt>
<trkpt lat="40.0727014" lon="-105.2301782">
  <ele>1583.0</ele>
  <time>2026-08-28T17:51:26Z</time>
  <course>7.08</course>
  <speed>1.98</speed>
  <fix>3d</fix>
</trkpt>
<trkpt lat="40.0727057" lon="-105.2301774">
  <ele>1582.86</ele>
  <time>2026-08-28T17:51:26Z</time>
  <course>6.91</course>
  <speed>2.1644860821913365</speed>
  <fix>3d</fix>
</trkpt>
<trkpt lat="40.0727014" lon="-105.2301782">
  <ele>1583.0</ele>
  <time>2026-08-28T17:51:26Z</time>
  <course>7.08</course>
  <speed>1.98</speed>
  <fix>3d</fix>
</trkpt>
<trkpt lat="40.0727077" lon="-105.2301771">
  <ele>1582.86</ele>
  <time>2026-08-28T17:51:26Z</time>
  <course>6.84</course>
  <speed>2.2649724060129297</speed>
  <fix>3d</fix>
</trkpt>
<trkpt lat="40.0727051" lon="-105.2301775">
  <ele>1583.0</ele>
  <time>2026-08-28T17:51:26Z</time>
  <course>7.05</course>
  <speed>2.16</speed>
  <fix>3d</fix>
</trkpt>
<trkpt lat="40.0727098" lon="-105.2301768">
  <ele>1582.86</ele>
  <time>2026-08-28T17:51:26Z</time>
  <course>6.78</course>
  <speed>2.3654597861726585</speed>
  <fix>3d</fix>
</trkpt>
<trkpt lat="40.0727051" lon="-105.2301775">
  <ele>1583.0</ele>
  <time>2026-08-28T17:51:26Z</time>
  <course>7.05</course>
  <speed>2.16</speed>
  <fix>3d</fix>
</trkpt>
<trkpt lat="40.0727116" lon="-105.2301765">
  <ele>1582.86</ele>
  <time>2026-08-28T17:51:26Z</time>
  <course>6.69</course>
  <speed>2.4449539872971027</speed>
  <fix>3d</fix>
</trkpt>
<trkpt lat="40.0727091" lon="-105.2301769">
  <ele>1583.0</ele>
  <time>2026-08-28T17:51:26Z</time>
  <course>6.93</course>
  <speed>2.35</speed>
  <fix>3d</fix>
</trkpt>
<trkpt lat="40.0727138" lon="-105.2301762">
  <ele>1582.86</ele>
  <time>2026-08-28T17:51:26Z</time>
  <course>6.59</course>
  <speed>2.5454469155729806</speed>
  <fix>3d</fix>
</trkpt>
<trkpt lat="40.0727091" lon="-105.2301769">
  <ele>1583.0</ele>
  <time>2026-08-28T17:51:26Z</time>
  <course>6.93</course>
  <speed>2.35</speed>
  <fix>3d</fix>
</trkpt>
<trkpt lat="40.0727162" lon="-105.2301759">
  <ele>1582.86</ele>
  <time>2026-08-28T17:51:26Z</time>
  <course>6.48</course>
  <speed>2.6448629454094594</speed>
  <fix>3d</fix>
</trkpt>
<trkpt lat="40.0727135" lon="-105.2301762">
  <ele>1583.0</ele>
  <time>2026-08-28T17:51:26Z</time>
  <course>6.75</course>
  <speed>2.54</speed>
  <fix>3d</fix>
</trkpt>
<trkpt lat="40.0727186" lon="-105.2301755">
  <ele>1582.85</ele>
  <time>2026-08-28T17:51:26Z</time>
  <course>6.37</course>
  <speed>2.745359721420856</speed>
  <fix>3d</fix>
</trkpt>
<trkpt lat="40.0727135" lon="-105.2301762">
  <ele>1583.0</ele>
  <time>2026-08-28T17:51:26Z</time>
  <course>6.75</course>
  <speed>2.54</speed>
  <fix>3d</fix>
</trkpt>
<trkpt lat="40.0727212" lon="-105.2301751">
  <ele>1582.86</ele>
  <time>2026-08-28T17:51:26Z</time>
  <course>6.25</course>
  <speed>2.844819853699</speed>
  <fix>3d</fix>
</trkpt>
<trkpt lat="40.0727182" lon="-105.2301755">
  <ele>1583.0</ele>
  <time>2026-08-28T17:51:26Z</time>
  <course>6.53</course>
  <speed>2.74</speed>
  <fix>3d</fix>
</trkpt>
<trkpt lat="40.0727238" lon="-105.2301748">
  <ele>1582.86</ele>
  <time>2026-08-28T17:51:26Z</time>
  <course>6.11</course>
  <speed>2.945318318959769</speed>
  <fix>3d</fix>
</trkpt>
<trkpt lat="40.0727182" lon="-105.2301755">
  <ele>1583.0</ele>
  <time>2026-08-28T17:51:26Z</time>
  <course>6.53</course>
  <speed>2.74</speed>
  <fix>3d</fix>
</trkpt>
<trkpt lat="40.0727265" lon="-105.2301744">
  <ele>1582.86</ele>
  <time>2026-08-28T17:51:26Z</time>
  <course>5.97</course>
  <speed>3.0448152653322005</speed>
  <fix>3d</fix>
</trkpt>
<trkpt lat="40.0727232" lon="-105.2301747">
  <ele>1583.0</ele>
  <time>2026-08-28T17:51:26Z</time>
  <course>6.28</course>
  <speed>2.94</speed>
  <fix>3d</fix>
</trkpt>
<trkpt lat="40.0727294" lon="-105.230174">
  <ele>1582.86</ele>
  <time>2026-08-28T17:51:26Z</time>
  <course>5.84</course>
  <speed>3.1542986542177647</speed>
  <fix>3d</fix>
</trkpt>
<trkpt lat="40.0727232" lon="-105.2301747">
  <ele>1583.0</ele>
  <time>2026-08-28T17:51:26Z</time>
  <course>6.28</course>
  <speed>2.94</speed>
  <fix>3d</fix>
</trkpt>
<trkpt lat="40.0727323" lon="-105.2301737">
  <ele>1582.86</ele>
  <time>2026-08-28T17:51:26Z</time>
  <course>5.69</course>
  <speed>3.2538592471094994</speed>
  <fix>3d</fix>
</trkpt>
<trkpt lat="40.0727287" lon="-105.230174">
  <ele>1583.0</ele>
  <time>2026-08-28T17:51:26Z</time>
  <course>6.01</course>
  <speed>3.13</speed>
  <fix>3d</fix>
</trkpt>
<trkpt lat="40.0727353" lon="-105.2301733">
  <ele>1582.86</ele>
  <time>2026-08-28T17:51:26Z</time>
  <course>5.69</course>
  <speed>3.2846613219630423</speed>
  <fix>3d</fix>
</trkpt>
<trkpt lat="40.0727287" lon="-105.230174">
  <ele>1583.0</ele>
  <time>2026-08-28T17:51:26Z</time>
  <course>6.01</course>
  <speed>3.13</speed>
  <fix>3d</fix>
</trkpt>
<trkpt lat="40.0727388" lon="-105.2301728">
  <ele>1582.86</ele>
  <time>2026-08-28T17:51:26Z</time>
  <course>5.69</course>
  <speed>3.2040755296965147</speed>
  <fix>3d</fix>
</trkpt>
<trkpt lat="40.0727344" lon="-105.2301732">
  <ele>1583.0</ele>
  <time>2026-08-28T17:51:26Z</time>
  <course>5.88</course>
  <speed>3.22</speed>
  <fix>3d</fix>
</trkpt>
<trkpt lat="40.0727416" lon="-105.2301724">
  <ele>1582.86</ele>
  <time>2026-08-28T17:51:26Z</time>
  <course>5.69</course>
  <speed>3.0528675044947495</speed>
  <fix>3d</fix>
</trkpt>
<trkpt lat="40.0727344" lon="-105.2301732">
  <ele>1583.0</ele>
  <time>2026-08-28T17:51:26Z</time>
  <course>5.88</course>
  <speed>3.22</speed>
  <fix>3d</fix>
</trkpt>
<trkpt lat="40.0727443" lon="-105.2301721">
  <ele>1582.86</ele>
  <time>2026-08-28T17:51:26Z</time>
  <course>5.69</course>
  <speed>2.9025850547399985</speed>
  <fix>3d</fix>
</trkpt>
<trkpt lat="40.07274" lon="-105.2301724">
  <ele>1583.0</ele>
  <time>2026-08-28T17:51:26Z</time>
  <course>5.88</course>
  <speed>3.06</speed>
  <fix>3d</fix>
</trkpt>
<trkpt lat="40.0727468" lon="-105.2301718">
  <ele>1582.86</ele>
  <time>2026-08-28T17:51:26Z</time>
  <course>5.68</course>
  <speed>2.7613402542968153</speed>
  <fix>3d</fix>
</trkpt>
<trkpt lat="40.07274" lon="-105.2301724">
  <ele>1583.0</ele>
  <time>2026-08-28T17:51:26Z</time>
  <course>5.88</course>
  <speed>3.06</speed>
  <fix>3d</fix>
</trkpt>
<trkpt lat="40.0727492" lon="-105.2301715">
  <ele>1582.86</ele>
  <time>2026-08-28T17:51:26Z</time>
  <course>5.68</course>
  <speed>2.6309694030908077</speed>
  <fix>3d</fix>
</trkpt>
<trkpt lat="40.0727452" lon="-105.2301717">
  <ele>1583.0</ele>
  <time>2026-08-28T17:51:26Z</time>
  <course>5.88</course>
  <speed>2.77</speed>
  <fix>3d</fix>
</trkpt>
<trkpt lat="40.0727515" lon="-105.2301712">
  <ele>1582.86</ele>
  <time>2026-08-28T17:51:26Z</time>
  <course>5.68</course>
  <speed>2.4996999819978396</speed>
  <fix>3d</fix>
</trkpt>
<trkpt lat="40.0727452" lon="-105.2301717">
  <ele>1583.0</ele>
  <time>2026-08-28T17:51:26Z</time>
  <course>5.88</course>
  <speed>2.77</speed>
  <fix>3d</fix>
</trkpt>
<trkpt lat="40.0727536" lon="-105.2301709">
  <ele>1582.86</ele>
  <time>2026-08-28T17:51:26Z</time>
  <course>5.67</course>
  <speed>2.369324798333905</speed>
  <fix>3d</fix>
</trkpt>
<trkpt lat="40.07275" lon="-105.230171">
  <ele>1583.0</ele>
  <time>2026-08-28T17:51:26Z</time>
  <course>5.88</course>
  <speed>2.5</speed>
  <fix>3d</fix>
</trkpt>
<trkpt lat="40.0727556" lon="-105.2301706">
  <ele>1582.86</ele>
  <time>2026-08-28T17:51:26Z</time>
  <course>5.67</course>
  <speed>2.2489108474992956</speed>
  <fix>3d</fix>
</trkpt>
<trkpt lat="40.07275" lon="-105.230171">
  <ele>1583.0</ele>
  <time>2026-08-28T17:51:26Z</time>
  <course>5.88</course>
  <speed>2.5</speed>
  <fix>3d</fix>
</trkpt>
<trkpt lat="40.0727575" lon="-105.2301704">
  <ele>1582.86</ele>
  <time>2026-08-28T17:51:26Z</time>
  <course>5.67</course>
  <speed>2.138457387931777</speed>
  <fix>3d</fix>
</trkpt>
<trkpt lat="40.0727543" lon="-105.2301705">
  <ele>1583.0</ele>
  <time>2026-08-28T17:51:26Z</time>
  <course>5.88</course>
  <speed>2.27</speed>
  <fix>3d</fix>
</trkpt>
<trkpt lat="40.0727593" lon="-105.2301701">
  <ele>1582.86</ele>
  <time>2026-08-28T17:51:26Z</time>
  <course>5.66</course>
  <speed>2.0379646709401023</speed>
  <fix>3d</fix>
</trkpt>
<trkpt lat="40.0727543" lon="-105.2301705">
  <ele>1583.0</ele>
  <time>2026-08-28T17:51:26Z</time>
  <course>5.88</course>
  <speed>2.27</speed>
  <fix>3d</fix>
</trkpt>
<trkpt lat="40.0727611" lon="-105.2301699">
  <ele>1582.86</ele>
  <time>2026-08-28T17:51:26Z</time>
  <course>5.66</course>
  <speed>1.9275113488641253</speed>
  <fix>3d</fix>
</trkpt>
<trkpt lat="40.0727581" lon="-105.23017">
  <ele>1583.0</ele>
  <time>2026-08-28T17:51:26Z</time>
  <course>5.88</course>
  <speed>2.05</speed>
  <fix>3d</fix>
</trkpt>
<trkpt lat="40.0727624" lon="-105.2301697">
  <ele>1582.86</ele>
  <time>2026-08-28T17:51:26Z</time>
  <course>5.65</course>
  <speed>1.8569060288555261</speed>
  <fix>3d</fix>
</trkpt>
<trkpt lat="40.0727581" lon="-105.23017">
  <ele>1583.0</ele>
  <time>2026-08-28T17:51:26Z</time>
  <course>5.88</course>
  <speed>2.05</speed>
  <fix>3d</fix>
</trkpt>
<trkpt lat="40.072764" lon="-105.2301695">
  <ele>1582.86</ele>
  <time>2026-08-28T17:51:26Z</time>
  <course>5.65</course>
  <speed>1.7564168070250294</speed>
  <fix>3d</fix>
</trkpt>
<trkpt lat="40.0727616" lon="-105.2301695">
  <ele>1583.0</ele>
  <time>2026-08-28T17:51:26Z</time>
  <course>5.88</course>
  <speed>1.85</speed>
  <fix>3d</fix>
</trkpt>
<trkpt lat="40.0727655" lon="-105.2301693">
  <ele>1582.85</ele>
  <time>2026-08-28T17:51:26Z</time>
  <course>5.64</course>
  <speed>1.6658931538367039</speed>
  <fix>3d</fix>
</trkpt>
<trkpt lat="40.0727616" lon="-105.2301695">
  <ele>1583.0</ele>
  <time>2026-08-28T17:51:26Z</time>
  <course>5.88</course>
  <speed>1.85</speed>
  <fix>3d</fix>
</trkpt>
<trkpt lat="40.0727669" lon="-105.2301691">
  <ele>1582.85</ele>
  <time>2026-08-28T17:51:26Z</time>
  <course>5.64</course>
  <speed>1.5853390804493528</speed>
  <fix>3d</fix>
</trkpt>
<trkpt lat="40.0727648" lon="-105.2301691">
  <ele>1583.0</ele>
  <time>2026-08-28T17:51:26Z</time>
  <course>5.88</course>
  <speed>1.68</speed>
  <fix>3d</fix>
</trkpt>
<trkpt lat="40.0727682" lon="-105.2301689">
  <ele>1582.86</ele>
  <time>2026-08-28T17:51:26Z</time>
  <course>5.63</course>
  <speed>1.5047923444781344</speed>
  <fix>3d</fix>
</trkpt>
<trkpt lat="40.0727648" lon="-105.2301691">
  <ele>1583.0</ele>
  <time>2026-08-28T17:51:26Z</time>
  <course>5.88</course>
  <speed>1.68</speed>
  <fix>3d</fix>
</trkpt>
<trkpt lat="40.0727695" lon="-105.2301688">
  <ele>1582.86</ele>
  <time>2026-08-28T17:51:26Z</time>
  <course>5.62</course>
  <speed>1.4342245291445825</speed>
  <fix>3d</fix>
</trkpt>
<trkpt lat="40.0727676" lon="-105.2301687">
  <ele>1583.0</ele>
  <time>2026-08-28T17:51:26Z</time>
  <course>5.88</course>
  <speed>1.52</speed>
  <fix>3d</fix>
</trkpt>
<trkpt lat="40.0727708" lon="-105.2301686">
  <ele>1582.86</ele>
  <time>2026-08-28T17:51:26Z</time>
  <course>5.62</course>
  <speed>1.36444127759314</speed>
  <fix>3d</fix>
</trkpt>
<trkpt lat="40.0727676" lon="-105.2301687">
  <ele>1583.0</ele>
  <time>2026-08-28T17:51:26Z</time>
  <course>5.88</course>
  <speed>1.52</speed>
  <fix>3d</fix>
</trkpt>
<trkpt lat="40.0727719" lon="-105.2301684">
  <ele>1582.86</ele>
  <time>2026-08-28T17:51:26Z</time>
  <course>5.61</course>
  <speed>1.2938701635017325</speed>
  <fix>3d</fix>
</trkpt>
<trkpt lat="40.0727702" lon="-105.2301684">
  <ele>1583.0</ele>
  <time>2026-08-28T17:51:26Z</time>
  <course>5.88</course>
  <speed>1.37</speed>
  <fix>3d</fix>
</trkpt>
<trkpt lat="40.0727731" lon="-105.2301683">
  <ele>1582.87</ele>
  <time>2026-08-28T17:51:26Z</time>
  <course>5.6</course>
  <speed>1.223315167894194</speed>
  <fix>3d</fix>
</trkpt>
<trkpt lat="40.0727702" lon="-105.2301684">
  <ele>1583.0</ele>
  <time>2026-08-28T17:51:26Z</time>
  <course>5.88</course>
  <speed>1.37</speed>
  <fix>3d</fix>
</trkpt>
<trkpt lat="40.0727743" lon="-105.2301681">
  <ele>1582.87</ele>
  <time>2026-08-28T17:51:26Z</time>
  <course>5.59</course>
  <speed>1.1535163631262453</speed>
  <fix>3d</fix>
</trkpt>
<trkpt lat="40.0727725" lon="-105.230168">
  <ele>1583.0</ele>
  <time>2026-08-28T17:51:26Z</time>
  <course>5.88</course>
  <speed>1.24</speed>
  <fix>3d</fix>
</trkpt>
<trkpt lat="40.0727753" lon="-105.230168">
  <ele>1582.87</ele>
  <time>2026-08-28T17:51:26Z</time>
  <course>5.58</course>
  <speed>1.092931836849856</speed>
  <fix>3d</fix>
</trkpt>
<trkpt lat="40.0727725" lon="-105.230168">
  <ele>1583.0</ele>
  <time>2026-08-28T17:51:26Z</time>
  <course>5.88</course>
  <speed>1.24</speed>
  <fix>3d</fix>
</trkpt>
<trkpt lat="40.0727763" lon="-105.2301679">
  <ele>1582.87</ele>
  <time>2026-08-28T17:51:26Z</time>
  <course>5.58</course>
  <speed>1.0423531071570709</speed>
  <fix>3d</fix>
</trkpt>
<trkpt lat="40.0727746" lon="-105.2301678">
  <ele>1583.0</ele>
  <time>2026-08-28T17:51:26Z</time>
  <course>5.88</course>
  <speed>1.12</speed>
  <fix>3d</fix>
</trkpt>
<trkpt lat="40.0727771" lon="-105.2301677">
  <ele>1582.87</ele>
  <time>2026-08-28T17:51:26Z</time>
  <course>5.57</course>
  <speed>0.9824968193332739</speed>
  <fix>3d</fix>
</trkpt>
<trkpt lat="40.0727746" lon="-105.2301678">
  <ele>1583.0</ele>
  <time>2026-08-28T17:51:26Z</time>
  <course>5.88</course>
  <speed>1.12</speed>
  <fix>3d</fix>
</trkpt>
<trkpt lat="40.072778" lon="-105.2301676">
  <ele>1582.87</ele>
  <time>2026-08-28T17:51:26Z</time>
  <course>5.56</course>
  <speed>0.931933474020544</speed>
  <fix>3d</fix>
</trkpt>
<trkpt lat="40.0727766" lon="-105.2301675">
  <ele>1583.0</ele>
  <time>2026-08-28T17:51:26Z</time>
  <course>5.88</course>
  <speed>1.02</speed>
  <fix>3d</fix>
</trkpt>
<trkpt lat="40.0727788" lon="-105.2301675">
  <ele>1582.87</ele>
  <time>2026-08-28T17:51:26Z</time>
  <course>5.62</course>
  <speed>0.9119758768739444</speed>
  <fix>3d</fix>
</trkpt>
<trkpt lat="40.0727766" lon="-105.2301675">
  <ele>1583.0</ele>
  <time>2026-08-28T17:51:26Z</time>
  <course>5.88</course>
  <speed>1.02</speed>
  <fix>3d</fix>
</trkpt>
<trkpt lat="40.0727796" lon="-105.2301674">
  <ele>1582.87</ele>
  <time>2026-08-28T17:51:26Z</time>
  <course>5.67</course>
  <speed>0.9019977827023744</speed>
  <fix>3d</fix>
</trkpt>
<trkpt lat="40.0727783" lon="-105.2301673">
  <ele>1583.0</ele>
  <time>2026-08-28T17:51:26Z</time>
  <course>5.94</course>
  <speed>0.94</speed>
  <fix>3d</fix>
</trkpt>
<trkpt lat="40.0727804" lon="-105.2301673">
  <ele>1582.87</ele>
  <time>2026-08-28T17:51:26Z</time>
  <course>5.67</course>
  <speed>0.872066511224918</speed>
  <fix>3d</fix>
</trkpt>
<trkpt lat="40.0727783" lon="-105.2301673">
  <ele>1583.0</ele>
  <time>2026-08-28T17:51:26Z</time>
  <course>5.94</course>
  <speed>0.94</speed>
  <fix>3d</fix>
</trkpt>
<trkpt lat="40.0727812" lon="-105.2301672">
  <ele>1582.87</ele>
  <time>2026-08-28T17:51:26Z</time>
  <course>5.61</course>
  <speed>0.8315046602394962</speed>
  <fix>3d</fix>
</trkpt>
<trkpt lat="40.0727799" lon="-105.230167">
  <ele>1583.0</ele>
  <time>2026-08-28T17:51:26Z</time>
  <course>5.99</course>
  <speed>0.89</speed>
  <fix>3d</fix>
</trkpt>
<trkpt lat="40.0727819" lon="-105.2301671">
  <ele>1582.87</ele>
  <time>2026-08-28T17:51:26Z</time>
  <course>5.51</course>
  <speed>0.771621668954417</speed>
  <fix>3d</fix>
</trkpt>
<trkpt lat="40.0727799" lon="-105.230167">
  <ele>1583.0</ele>
  <time>2026-08-28T17:51:26Z</time>
  <course>5.99</course>
  <speed>0.89</speed>
  <fix>3d</fix>
</trkpt>
<trkpt lat="40.0727825" lon="-105.230167">
  <ele>1582.87</ele>
  <time>2026-08-28T17:51:26Z</time>
  <course>5.37</course>
  <speed>0.711125867902441</speed>
  <fix>3d</fix>
</trkpt>
<trkpt lat="40.0727815" lon="-105.2301669">
  <ele>1583.0</ele>
  <time>2026-08-28T17:51:26Z</time>
  <course>5.87</course>
  <speed>0.8</speed>
  <fix>3d</fix>
</trkpt>
<trkpt lat="40.072783" lon="-105.230167">
  <ele>1582.87</ele>
  <time>2026-08-28T17:51:26Z</time>
  <course>5.22</course>
  <speed>0.6407027391856539</speed>
  <fix>3d</fix>
</trkpt>
<trkpt lat="40.0727815" lon="-105.2301669">
  <ele>1583.0</ele>
  <time>2026-08-28T17:51:26Z</time>
  <course>5.87</course>
  <speed>0.8</speed>
  <fix>3d</fix>
</trkpt>
<trkpt lat="40.0727835" lon="-105.2301669">
  <ele>1582.87</ele>
  <time>2026-08-28T17:51:26Z</time>
  <course>5.03</course>
  <speed>0.5503635162326805</speed>
  <fix>3d</fix>
</trkpt>
<trkpt lat="40.0727829" lon="-105.2301666">
  <ele>1583.0</ele>
  <time>2026-08-28T17:51:26Z</time>
  <course>5.6</course>
  <speed>0.66</speed>
  <fix>3d</fix>
</trkpt>
<trkpt lat="40.072784" lon="-105.2301668">
  <ele>1582.86</ele>
  <time>2026-08-28T17:51:26Z</time>
  <course>4.82</course>
  <speed>0.47010637094172636</speed>
  <fix>3d</fix>
</trkpt>
<trkpt lat="40.0727829" lon="-105.2301666">
  <ele>1583.0</ele>
  <time>2026-08-28T17:51:26Z</time>
  <course>5.6</course>
  <speed>0.66</speed>
  <fix>3d</fix>
</trkpt>
<trkpt lat="40.0727844" lon="-105.2301668">
  <ele>1582.87</ele>
  <time>2026-08-28T17:51:26Z</time>
  <course>4.6</course>
  <speed>0.41</speed>
  <fix>3d</fix>
</trkpt>
<trkpt lat="40.0727839" lon="-105.2301665">
  <ele>1583.0</ele>
  <time>2026-08-28T17:51:26Z</time>
  <course>5.23</course>
  <speed>0.5</speed>
  <fix>3d</fix>
</trkpt>
<trkpt lat="40.0727847" lon="-105.2301668">
  <ele>1582.87</ele>
  <time>2026-08-28T17:51:26Z</time>
  <course>4.38</course>
  <speed>0.37</speed>
  <fix>3d</fix>
</trkpt>
<trkpt lat="40.0727839" lon="-105.2301665">
  <ele>1583.0</ele>
  <time>2026-08-28T17:51:26Z</time>
  <course>5.23</course>
  <speed>0.5</speed>
  <fix>3d</fix>
</trkpt>
<trkpt lat="40.0727851" lon="-105.2301667">
  <ele>1582.87</ele>
  <time>2026-08-28T17:51:26Z</time>
  <course>4.17</course>
  <speed>0.35</speed>
  <fix>3d</fix>
</trkpt>
<trkpt lat="40.0727847" lon="-105.2301664">
  <ele>1583.0</ele>
  <time>2026-08-28T17:51:26Z</time>
  <course>4.8</course>
  <speed>0.4</speed>
  <fix>3d</fix>
</trkpt>
<trkpt lat="40.0727854" lon="-105.2301667">
  <ele>1582.87</ele>
  <time>2026-08-28T17:51:26Z</time>
  <course>3.95</course>
  <speed>0.35</speed>
  <fix>3d</fix>
</trkpt>
<trkpt lat="40.0727847" lon="-105.2301664">
  <ele>1583.0</ele>
  <time>2026-08-28T17:51:26Z</time>
  <course>4.8</course>
  <speed>0.4</speed>
  <fix>3d</fix>
</trkpt>
<trkpt lat="40.0727857" lon="-105.2301667">
  <ele>1582.87</ele>
  <time>2026-08-28T17:51:26Z</time>
  <course>3.72</course>
  <speed>0.37</speed>
  <fix>3d</fix>
</trkpt>
<trkpt lat="40.0727854" lon="-105.2301664">
  <ele>1583.0</ele>
  <time>2026-08-28T17:51:26Z</time>
  <course>4.35</course>
  <speed>0.38</speed>
  <fix>3d</fix>
</trkpt>
<trkpt lat="40.0727861" lon="-105.2301666">
  <ele>1582.87</ele>
  <time>2026-08-28T17:51:26Z</time>
  <course>3.48</course>
  <speed>0.42</speed>
  <fix>3d</fix>
</trkpt>
<trkpt lat="40.0727854" lon="-105.2301664">
  <ele>1583.0</ele>
  <time>2026-08-28T17:51:26Z</time>
  <course>4.35</course>
  <speed>0.38</speed>
  <fix>3d</fix>
</trkpt>
<trkpt lat="40.0727865" lon="-105.2301666">
  <ele>1582.87</ele>
  <time>2026-08-28T17:51:26Z</time>
  <course>3.21</course>
  <speed>0.47</speed>
  <fix>3d</fix>
</trkpt>
<trkpt lat="40.0727861" lon="-105.2301663">
  <ele>1583.0</ele>
  <time>2026-08-28T17:51:26Z</time>
  <course>3.87</course>
  <speed>0.44</speed>
  <fix>3d</fix>
</trkpt>
<trkpt lat="40.0727871" lon="-105.2301665">
  <ele>1582.87</ele>
  <time>2026-08-28T17:51:26Z</time>
  <course>2.88</course>
  <speed>0.56</speed>
  <fix>3d</fix>
</trkpt>
<trkpt lat="40.0727861" lon="-105.2301663">
  <ele>1583.0</ele>
  <time>2026-08-28T17:51:26Z</time>
  <course>3.87</course>
  <speed>0.44</speed>
  <fix>3d</fix>
</trkpt>
<trkpt lat="40.0727877" lon="-105.2301665">
  <ele>1582.87</ele>
  <time>2026-08-28T17:51:26Z</time>
  <course>2.6</course>
  <speed>0.65</speed>
  <fix>3d</fix>
</trkpt>
<trkpt lat="40.072787" lon="-105.2301662">
  <ele>1583.0</ele>
  <time>2026-08-28T17:51:26Z</time>
  <course>3.34</course>
  <speed>0.57</speed>
  <fix>3d</fix>
</trkpt>
<trkpt lat="40.0727883" lon="-105.2301665">
  <ele>1582.87</ele>
  <time>2026-08-28T17:51:26Z</time>
  <course>2.33</course>
  <speed>0.75</speed>
  <fix>3d</fix>
</trkpt>
<trkpt lat="40.072787" lon="-105.2301662">
  <ele>1583.0</ele>
  <time>2026-08-28T17:51:26Z</time>
  <course>3.34</course>
  <speed>0.57</speed>
  <fix>3d</fix>
</trkpt>
<trkpt lat="40.0727891" lon="-105.2301664">
  <ele>1582.88</ele>
  <time>2026-08-28T17:51:26Z</time>
  <course>2.08</course>
  <speed>0.86</speed>
  <fix>3d</fix>
</trkpt>
<trkpt lat="40.0727882" lon="-105.2301661">
  <ele>1583.0</ele>
  <time>2026-08-28T17:51:26Z</time>
  <course>2.81</course>
  <speed>0.74</speed>
  <fix>3d</fix>
</trkpt>
<trkpt lat="40.0727899" lon="-105.2301664">
  <ele>1582.88</ele>
  <time>2026-08-28T17:51:26Z</time>
  <course>1.83</course>
  <speed>0.97</speed>
  <fix>3d</fix>
</trkpt>
<trkpt lat="40.0727882" lon="-105.2301661">
  <ele>1583.0</ele>
  <time>2026-08-28T17:51:26Z</time>
  <course>2.81</course>
  <speed>0.74</speed>
  <fix>3d</fix>
</trkpt>
<trkpt lat="40.0727909" lon="-105.2301664">
  <ele>1582.88</ele>
  <time>2026-08-28T17:51:26Z</time>
  <course>1.61</course>
  <speed>1.08</speed>
  <fix>3d</fix>
</trkpt>
<trkpt lat="40.0727897" lon="-105.230166">
  <ele>1583.0</ele>
  <time>2026-08-28T17:51:26Z</time>
  <course>2.32</course>
  <speed>0.95</speed>
  <fix>3d</fix>
</trkpt>
<trkpt lat="40.0727919" lon="-105.2301663">
  <ele>1582.88</ele>
  <time>2026-08-28T17:51:26Z</time>
  <course>1.43</course>
  <speed>1.2</speed>
  <fix>3d</fix>
</trkpt>
<trkpt lat="40.0727897" lon="-105.230166">
  <ele>1583.0</ele>
  <time>2026-08-28T17:51:26Z</time>
  <course>2.32</course>
  <speed>0.95</speed>
  <fix>3d</fix>
</trkpt>
<trkpt lat="40.0727931" lon="-105.2301663">
  <ele>1582.87</ele>
  <time>2026-08-28T17:51:26Z</time>
  <course>1.27</course>
  <speed>1.32</speed>
  <fix>3d</fix>
</trkpt>
<trkpt lat="40.0727916" lon="-105.230166">
  <ele>1583.0</ele>
  <time>2026-08-28T17:51:26Z</time>
  <course>1.93</course>
  <speed>1.18</speed>
  <fix>3d</fix>
</trkpt>
<trkpt lat="40.0727943" lon="-105.2301662">
  <ele>1582.87</ele>
  <time>2026-08-28T17:51:26Z</time>
  <course>1.14</course>
  <speed>1.44</speed>
  <fix>3d</fix>
</trkpt>
<trkpt lat="40.0727916" lon="-105.230166">
  <ele>1583.0</ele>
  <time>2026-08-28T17:51:26Z</time>
  <course>1.93</course>
  <speed>1.18</speed>
  <fix>3d</fix>
</trkpt>
<trkpt lat="40.0727957" lon="-105.2301662">
  <ele>1582.87</ele>
  <time>2026-08-28T17:51:26Z</time>
  <course>1.02</course>
  <speed>1.56</speed>
  <fix>3d</fix>
</trkpt>
<trkpt lat="40.072794" lon="-105.2301659">
  <ele>1583.0</ele>
  <time>2026-08-28T17:51:26Z</time>
  <course>1.64</course>
  <speed>1.41</speed>
  <fix>3d</fix>
</trkpt>
<trkpt lat="40.0727972" lon="-105.2301662">
  <ele>1582.87</ele>
  <time>2026-08-28T17:51:26Z</time>
  <course>0.92</course>
  <speed>1.68</speed>
  <fix>3d</fix>
</trkpt>
<trkpt lat="40.072794" lon="-105.2301659">
  <ele>1583.0</ele>
  <time>2026-08-28T17:51:26Z</time>
  <course>1.64</course>
  <speed>1.41</speed>
  <fix>3d</fix>
</trkpt>
<trkpt lat="40.0727984" lon="-105.2301661">
  <ele>1582.87</ele>
  <time>2026-08-28T17:51:26Z</time>
  <course>0.84</course>
  <speed>1.77</speed>
  <fix>3d</fix>
</trkpt>
<trkpt lat="40.0727967" lon="-105.2301658">
  <ele>1583.0</ele>
  <time>2026-08-28T17:51:26Z</time>
  <course>1.42</course>
  <speed>1.65</speed>
  <fix>3d</fix>
</trkpt>
<trkpt lat="40.0728001" lon="-105.2301661">
  <ele>1582.86</ele>
  <time>2026-08-28T17:51:26Z</time>
  <course>0.77</course>
  <speed>1.89</speed>
  <fix>3d</fix>
</trkpt>
<trkpt lat="40.0727967" lon="-105.2301658">
  <ele>1583.0</ele>
  <time>2026-08-28T17:51:26Z</time>
  <course>1.42</course>
  <speed>1.65</speed>
  <fix>3d</fix>
</trkpt>
<trkpt lat="40.0728019" lon="-105.2301661">
  <ele>1582.86</ele>
  <time>2026-08-28T17:51:26Z</time>
  <course>0.69</course>
  <speed>2.0</speed>
  <fix>3d</fix>
</trkpt>
<trkpt lat="40.0727999" lon="-105.2301657">
  <ele>1583.0</ele>
  <time>2026-08-28T17:51:26Z</time>
  <course>1.25</course>
  <speed>1.87</speed>
  <fix>3d</fix>
</trkpt>
<trkpt lat="40.0728038" lon="-105.230166">
  <ele>1582.87</ele>
  <time>2026-08-28T17:51:26Z</time>
  <course>0.64</course>
  <speed>2.11</speed>
  <fix>3d</fix>
</trkpt>
<trkpt lat="40.0727999" lon="-105.2301657">
  <ele>1583.0</ele>
  <time>2026-08-28T17:51:26Z</time>
  <course>1.25</course>
  <speed>1.87</speed>
  <fix>3d</fix>
</trkpt>
<trkpt lat="40.0728058" lon="-105.230166">
  <ele>1582.87</ele>
  <time>2026-08-28T17:51:26Z</time>
  <course>0.58</course>
  <speed>2.22</speed>
  <fix>3d</fix>
</trkpt>
<trkpt lat="40.0728035" lon="-105.2301656">
  <ele>1583.0</ele>
  <time>2026-08-28T17:51:26Z</time>
  <course>1.12</course>
  <speed>2.09</speed>
  <fix>3d</fix>
</trkpt>
<trkpt lat="40.0728079" lon="-105.2301659">
  <ele>1582.87</ele>
  <time>2026-08-28T17:51:26Z</time>
  <course>0.52</course>
  <speed>2.33</speed>
  <fix>3d</fix>
</trkpt>
<trkpt lat="40.0728035" lon="-105.2301656">
  <ele>1583.0</ele>
  <time>2026-08-28T17:51:26Z</time>
  <course>1.12</course>
  <speed>2.09</speed>
  <fix>3d</fix>
</trkpt>
<trkpt lat="40.07281" lon="-105.2301659">
  <ele>1582.87</ele>
  <time>2026-08-28T17:51:26Z</time>
  <course>0.49</course>
  <speed>2.44</speed>
  <fix>3d</fix>
</trkpt>
<trkpt lat="40.0728074" lon="-105.2301655">
  <ele>1583.0</ele>
  <time>2026-08-28T17:51:26Z</time>
  <course>1.02</course>
  <speed>2.3</speed>
  <fix>3d</fix>
</trkpt>
<trkpt lat="40.0728123" lon="-105.2301659">
  <ele>1582.86</ele>
  <time>2026-08-28T17:51:26Z</time>
  <course>0.46</course>
  <speed>2.54</speed>
  <fix>3d</fix>
</trkpt>
<trkpt lat="40.0728074" lon="-105.2301655">
  <ele>1583.0</ele>
  <time>2026-08-28T17:51:26Z</time>
  <course>1.02</course>
  <speed>2.3</speed>
  <fix>3d</fix>
</trkpt>
<trkpt lat="40.0728147" lon="-105.2301658">
  <ele>1582.86</ele>
  <time>2026-08-28T17:51:26Z</time>
  <course>0.43</course>
  <speed>2.64</speed>
  <fix>3d</fix>
</trkpt>
<trkpt lat="40.0728117" lon="-105.2301654">
  <ele>1583.0</ele>
  <time>2026-08-28T17:51:26Z</time>
  <course>0.94</course>
  <speed>2.5</speed>
  <fix>3d</fix>
</trkpt>
<trkpt lat="40.0728171" lon="-105.2301658">
  <ele>1582.86</ele>
  <time>2026-08-28T17:51:26Z</time>
  <course>0.4</course>
  <speed>2.74</speed>
  <fix>3d</fix>
</trkpt>
<trkpt lat="40.0728117" lon="-105.2301654">
  <ele>1583.0</ele>
  <time>2026-08-28T17:51:26Z</time>
  <course>0.94</course>
  <speed>2.5</speed>
  <fix>3d</fix>
</trkpt>
<trkpt lat="40.0728202" lon="-105.2301657">
  <ele>1582.86</ele>
  <time>2026-08-28T17:51:26Z</time>
  <course>0.36</course>
  <speed>2.85</speed>
  <fix>3d</fix>
</trkpt>
<trkpt lat="40.0728164" lon="-105.2301653">
  <ele>1583.0</ele>
  <time>2026-08-28T17:51:26Z</time>
  <course>0.87</course>
  <speed>2.69</speed>
  <fix>3d</fix>
</trkpt>
<trkpt lat="40.0728228" lon="-105.2301657">
  <ele>1582.86</ele>
  <time>2026-08-28T17:51:26Z</time>
  <course>0.32</course>
  <speed>2.95</speed>
  <fix>3d</fix>
</trkpt>
<trkpt lat="40.0728164" lon="-105.2301653">
  <ele>1583.0</ele>
  <time>2026-08-28T17:51:26Z</time>
  <course>0.87</course>
  <speed>2.69</speed>
  <fix>3d</fix>
</trkpt>
<trkpt lat="40.0728255" lon="-105.2301656">
  <ele>1582.86</ele>
  <time>2026-08-28T17:51:26Z</time>
  <course>0.28</course>
  <speed>3.04</speed>
  <fix>3d</fix>
</trkpt>
<trkpt lat="40.0728215" lon="-105.2301652">
  <ele>1583.0</ele>
  <time>2026-08-28T17:51:26Z</time>
  <course>0.79</course>
  <speed>2.88</speed>
  <fix>3d</fix>
</trkpt>
<trkpt lat="40.0728283" lon="-105.2301656">
  <ele>1582.86</ele>
  <time>2026-08-28T17:51:26Z</time>
  <course>0.25</course>
  <speed>3.13</speed>
  <fix>3d</fix>
</trkpt>
<trkpt lat="40.0728215" lon="-105.2301652">
  <ele>1583.0</ele>
  <time>2026-08-28T17:51:26Z</time>
  <course>0.79</course>
  <speed>2.88</speed>
  <fix>3d</fix>
</trkpt>
<trkpt lat="40.0728312" lon="-105.2301655">
  <ele>1582.86</ele>
  <time>2026-08-28T17:51:26Z</time>
  <course>0.21</course>
  <speed>3.22</speed>
  <fix>3d</fix>
</trkpt>
<trkpt lat="40.0728268" lon="-105.2301651">
  <ele>1583.0</ele>
  <time>2026-08-28T17:51:26Z</time>
  <course>0.71</course>
  <speed>3.06</speed>
  <fix>3d</fix>
</trkpt>
<trkpt lat="40.072834" lon="-105.2301655">
  <ele>1582.86</ele>
  <time>2026-08-28T17:51:26Z</time>
  <course>0.21</course>
  <speed>3.07</speed>
  <fix>3d</fix>
</trkpt>
<trkpt lat="40.0728268" lon="-105.2301651">
  <ele>1583.0</ele>
  <time>2026-08-28T17:51:26Z</time>
  <course>0.71</course>
  <speed>3.06</speed>
  <fix>3d</fix>
</trkpt>
<trkpt lat="40.0728366" lon="-105.2301655">
  <ele>1582.86</ele>
  <time>2026-08-28T17:51:26Z</time>
  <course>0.22</course>
  <speed>2.92</speed>
  <fix>3d</fix>
</trkpt>
<trkpt lat="40.0728323" lon="-105.230165">
  <ele>1583.0</ele>
  <time>2026-08-28T17:51:26Z</time>
  <course>0.66</course>
  <speed>3.02</speed>
  <fix>3d</fix>
</trkpt>
<trkpt lat="40.0728391" lon="-105.2301654">
  <ele>1582.86</ele>
  <time>2026-08-28T17:51:26Z</time>
  <course>0.22</course>
  <speed>2.78</speed>
  <fix>3d</fix>
</trkpt>
<trkpt lat="40.0728323" lon="-105.230165">
  <ele>1583.0</ele>
  <time>2026-08-28T17:51:26Z</time>
  <course>0.66</course>
  <speed>3.02</speed>
  <fix>3d</fix>
</trkpt>
<trkpt lat="40.0728415" lon="-105.2301654">
  <ele>1582.86</ele>
  <time>2026-08-28T17:51:26Z</time>
  <course>0.23</course>
  <speed>2.65</speed>
  <fix>3d</fix>
</trkpt>
<trkpt lat="40.0728375" lon="-105.2301649">
  <ele>1583.0</ele>
  <time>2026-08-28T17:51:26Z</time>
  <course>0.66</course>
  <speed>2.75</speed>
  <fix>3d</fix>
</trkpt>
<trkpt lat="40.0728438" lon="-105.2301653">
  <ele>1582.87</ele>
  <time>2026-08-28T17:51:26Z</time>
  <course>0.23</course>
  <speed>2.52</speed>
  <fix>3d</fix>
</trkpt>
<trkpt lat="40.0728375" lon="-105.2301649">
  <ele>1583.0</ele>
  <time>2026-08-28T17:51:26Z</time>
  <course>0.66</course>
  <speed>2.75</speed>
  <fix>3d</fix>
</trkpt>
<trkpt lat="40.0728459" lon="-105.2301653">
  <ele>1582.86</ele>
  <time>2026-08-28T17:51:26Z</time>
  <course>0.23</course>
  <speed>2.39</speed>
  <fix>3d</fix>
</trkpt>
<trkpt lat="40.0728422" lon="-105.2301648">
  <ele>1583.0</ele>
  <time>2026-08-28T17:51:26Z</time>
  <course>0.66</course>
  <speed>2.49</speed>
  <fix>3d</fix>
</trkpt>
<trkpt lat="40.0728476" lon="-105.2301652">
  <ele>1582.86</ele>
  <time>2026-08-28T17:51:26Z</time>
  <course>0.24</course>
  <speed>2.3</speed>
  <fix>3d</fix>
</trkpt>
<trkpt lat="40.0728422" lon="-105.2301648">
  <ele>1583.0</ele>
  <time>2026-08-28T17:51:26Z</time>
  <course>0.66</course>
  <speed>2.49</speed>
  <fix>3d</fix>
</trkpt>
<trkpt lat="40.0728495" lon="-105.2301652">
  <ele>1582.86</ele>
  <time>2026-08-28T17:51:26Z</time>
  <course>0.24</course>
  <speed>2.18</speed>
  <fix>3d</fix>
</trkpt>
<trkpt lat="40.0728465" lon="-105.2301648">
  <ele>1583.0</ele>
  <time>2026-08-28T17:51:26Z</time>
  <course>0.66</course>
  <speed>2.25</speed>
  <fix>3d</fix>
</trkpt>
<trkpt lat="40.0728514" lon="-105.2301651">
  <ele>1582.86</ele>
  <time>2026-08-28T17:51:26Z</time>
  <course>0.24</course>
  <speed>2.08</speed>
  <fix>3d</fix>
</trkpt>
<trkpt lat="40.0728465" lon="-105.2301648">
  <ele>1583.0</ele>
  <time>2026-08-28T17:51:26Z</time>
  <course>0.66</course>
  <speed>2.25</speed>
  <fix>3d</fix>
</trkpt>
<trkpt lat="40.0728531" lon="-105.2301651">
  <ele>1582.86</ele>
  <time>2026-08-28T17:51:26Z</time>
  <course>0.24</course>
  <speed>1.98</speed>
  <fix>3d</fix>
</trkpt>
<trkpt lat="40.0728503" lon="-105.2301648">
  <ele>1583.0</ele>
  <time>2026-08-28T17:51:26Z</time>
  <course>0.66</course>
  <speed>2.04</speed>
  <fix>3d</fix>
</trkpt>
<trkpt lat="40.0728548" lon="-105.230165">
  <ele>1582.87</ele>
  <time>2026-08-28T17:51:26Z</time>
  <course>0.24</course>
  <speed>1.88</speed>
  <fix>3d</fix>
</trkpt>
<trkpt lat="40.0728503" lon="-105.2301648">
  <ele>1583.0</ele>
  <time>2026-08-28T17:51:26Z</time>
  <course>0.66</course>
  <speed>2.04</speed>
  <fix>3d</fix>
</trkpt>
<trkpt lat="40.0728564" lon="-105.230165">
  <ele>1582.88</ele>
  <time>2026-08-28T17:51:26Z</time>
  <course>0.24</course>
  <speed>1.79</speed>
  <fix>3d</fix>
</trkpt>
<trkpt lat="40.0728538" lon="-105.2301647">
  <ele>1583.0</ele>
  <time>2026-08-28T17:51:26Z</time>
  <course>0.66</course>
  <speed>1.84</speed>
  <fix>3d</fix>
</trkpt>
<trkpt lat="40.0728579" lon="-105.230165">
  <ele>1582.89</ele>
  <time>2026-08-28T17:51:26Z</time>
  <course>0.24</course>
  <speed>1.7</speed>
  <fix>3d</fix>
</trkpt>
<trkpt lat="40.0728538" lon="-105.2301647">
  <ele>1583.0</ele>
  <time>2026-08-28T17:51:26Z</time>
  <course>0.66</course>
  <speed>1.84</speed>
  <fix>3d</fix>
</trkpt>
<trkpt lat="40.0728593" lon="-105.2301649">
  <ele>1582.9</ele>
  <time>2026-08-28T17:51:26Z</time>
  <course>0.24</course>
  <speed>1.61</speed>
  <fix>3d</fix>
</trkpt>
<trkpt lat="40.072857" lon="-105.2301646">
  <ele>1583.0</ele>
  <time>2026-08-28T17:51:26Z</time>
  <course>0.66</course>
  <speed>1.67</speed>
  <fix>3d</fix>
</trkpt>
<trkpt lat="40.0728607" lon="-105.2301649">
  <ele>1582.91</ele>
  <time>2026-08-28T17:51:26Z</time>
  <course>0.24</course>
  <speed>1.53</speed>
  <fix>3d</fix>
</trkpt>
<trkpt lat="40.072857" lon="-105.2301646">
  <ele>1583.0</ele>
  <time>2026-08-28T17:51:26Z</time>
  <course>0.66</course>
  <speed>1.67</speed>
  <fix>3d</fix>
</trkpt>
<trkpt lat="40.072862" lon="-105.2301649">
  <ele>1582.91</ele>
  <time>2026-08-28T17:51:26Z</time>
  <course>0.24</course>
  <speed>1.46</speed>
  <fix>3d</fix>
</trkpt>
<trkpt lat="40.0728598" lon="-105.2301646">
  <ele>1583.0</ele>
  <time>2026-08-28T17:51:26Z</time>
  <course>0.66</course>
  <speed>1.51</speed>
  <fix>3d</fix>
</trkpt>
<trkpt lat="40.0728635" lon="-105.2301648">
  <ele>1582.92</ele>
  <time>2026-08-28T17:51:26Z</time>
  <course>0.24</course>
  <speed>1.37</speed>
  <fix>3d</fix>
</trkpt>
<trkpt lat="40.0728598" lon="-105.2301646">
  <ele>1583.0</ele>
  <time>2026-08-28T17:51:26Z</time>
  <course>0.66</course>
  <speed>1.51</speed>
  <fix>3d</fix>
</trkpt>
<trkpt lat="40.0728646" lon="-105.2301648">
  <ele>1582.93</ele>
  <time>2026-08-28T17:51:26Z</time>
  <course>0.24</course>
  <speed>1.3</speed>
  <fix>3d</fix>
</trkpt>
<trkpt lat="40.0728624" lon="-105.2301646">
  <ele>1583.0</ele>
  <time>2026-08-28T17:51:26Z</time>
  <course>0.66</course>
  <speed>1.36</speed>
  <fix>3d</fix>
</trkpt>
<trkpt lat="40.0728657" lon="-105.2301648">
  <ele>1582.94</ele>
  <time>2026-08-28T17:51:26Z</time>
  <course>0.23</course>
  <speed>1.24</speed>
  <fix>3d</fix>
</trkpt>
<trkpt lat="40.0728624" lon="-105.2301646">
  <ele>1583.0</ele>
  <time>2026-08-28T17:51:26Z</time>
  <course>0.66</course>
  <speed>1.36</speed>
  <fix>3d</fix>
</trkpt>
<trkpt lat="40.0728668" lon="-105.2301648">
  <ele>1582.94</ele>
  <time>2026-08-28T17:51:26Z</time>
  <course>0.23</course>
  <speed>1.18</speed>
  <fix>3d</fix>
</trkpt>
<trkpt lat="40.0728648" lon="-105.2301646">
  <ele>1583.0</ele>
  <time>2026-08-28T17:51:26Z</time>
  <course>0.66</course>
  <speed>1.23</speed>
  <fix>3d</fix>
</trkpt>
<trkpt lat="40.0728678" lon="-105.2301647">
  <ele>1582.95</ele>
  <time>2026-08-28T17:51:26Z</time>
  <course>0.23</course>
  <speed>1.12</speed>
  <fix>3d</fix>
</trkpt>
<trkpt lat="40.0728648" lon="-105.2301646">
  <ele>1583.0</ele>
  <time>2026-08-28T17:51:26Z</time>
  <course>0.66</course>
  <speed>1.23</speed>
  <fix>3d</fix>
</trkpt>
<trkpt lat="40.0728687" lon="-105.2301647">
  <ele>1582.96</ele>
  <time>2026-08-28T17:51:26Z</time>
  <course>0.23</course>
  <speed>1.06</speed>
  <fix>3d</fix>
</trkpt>
<trkpt lat="40.0728668" lon="-105.2301645">
  <ele>1583.0</ele>
  <time>2026-08-28T17:51:26Z</time>
  <course>0.66</course>
  <speed>1.12</speed>
  <fix>3d</fix>
</trkpt>
<trkpt lat="40.0728696" lon="-105.2301647">
  <ele>1582.96</ele>
  <time>2026-08-28T17:51:26Z</time>
  <course>0.22</course>
  <speed>1.01</speed>
  <fix>3d</fix>
</trkpt>
<trkpt lat="40.0728668" lon="-105.2301645">
  <ele>1583.0</ele>
  <time>2026-08-28T17:51:26Z</time>
  <course>0.66</course>
  <speed>1.12</speed>
  <fix>3d</fix>
</trkpt>
<trkpt lat="40.0728704" lon="-105.2301647">
  <ele>1582.97</ele>
  <time>2026-08-28T17:51:26Z</time>
  <course>0.22</course>
  <speed>0.96</speed>
  <fix>3d</fix>
</trkpt>
<trkpt lat="40.0728688" lon="-105.2301645">
  <ele>1583.0</ele>
  <time>2026-08-28T17:51:26Z</time>
  <course>0.66</course>
  <speed>1.01</speed>
  <fix>3d</fix>
</trkpt>
<trkpt lat="40.0728733" lon="-105.2301646">
  <ele>1583.0</ele>
  <time>2026-08-28T17:51:26Z</time>
  <course>0.21</course>
  <speed>0.78</speed>
  <fix>3d</fix>
</trkpt>
<trkpt lat="40.0728721" lon="-105.2301644">
  <ele>1583.0</ele>
  <time>2026-08-28T17:51:26Z</time>
  <course>0.66</course>
  <speed>0.83</speed>
  <fix>3d</fix>
</trkpt>
<trkpt lat="40.0728745" lon="-105.2301646">
  <ele>1583.01</ele>
  <time>2026-08-28T17:51:26Z</time>
  <course>0.2</course>
  <speed>0.71</speed>
  <fix>3d</fix>
</trkpt>
<trkpt lat="40.0728735" lon="-105.2301643">
  <ele>1583.0</ele>
  <time>2026-08-28T17:51:26Z</time>
  <course>0.66</course>
  <speed>0.75</speed>
  <fix>3d</fix>
</trkpt>
<trkpt lat="40.0728745" lon="-105.2301646">
  <ele>1583.01</ele>
  <time>2026-08-28T17:51:26Z</time>
  <course>0.2</course>
  <speed>0.71</speed>
  <fix>3d</fix>
</trkpt>
<trkpt lat="40.0728735" lon="-105.2301643">
  <ele>1583.0</ele>
  <time>2026-08-28T17:51:26Z</time>
  <course>0.66</course>
  <speed>0.75</speed>
  <fix>3d</fix>
</trkpt>
<trkpt lat="40.0728751" lon="-105.2301646">
  <ele>1583.01</ele>
  <time>2026-08-28T17:51:26Z</time>
  <course>0.2</course>
  <speed>0.67</speed>
  <fix>3d</fix>
</trkpt>
<trkpt lat="40.0728735" lon="-105.2301643">
  <ele>1583.0</ele>
  <time>2026-08-28T17:51:26Z</time>
  <course>0.66</course>
  <speed>0.75</speed>
  <fix>3d</fix>
</trkpt>
<trkpt lat="40.0728757" lon="-105.2301646">
  <ele>1583.01</ele>
  <time>2026-08-28T17:51:26Z</time>
  <course>0.19</course>
  <speed>0.64</speed>
  <fix>3d</fix>
</trkpt>
<trkpt lat="40.0728748" lon="-105.2301643">
  <ele>1583.0</ele>
  <time>2026-08-28T17:51:26Z</time>
  <course>0.66</course>
  <speed>0.68</speed>
  <fix>3d</fix>
</trkpt>
<trkpt lat="40.0728763" lon="-105.2301645">
  <ele>1583.01</ele>
  <time>2026-08-28T17:51:26Z</time>
  <course>0.19</course>
  <speed>0.61</speed>
  <fix>3d</fix>
</trkpt>
<trkpt lat="40.0728748" lon="-105.2301643">
  <ele>1583.0</ele>
  <time>2026-08-28T17:51:26Z</time>
  <course>0.66</course>
  <speed>0.68</speed>
  <fix>3d</fix>
</trkpt>
<trkpt lat="40.0728768" lon="-105.2301645">
  <ele>1583.01</ele>
  <time>2026-08-28T17:51:26Z</time>
  <course>0.19</course>
  <speed>0.57</speed>
  <fix>3d</fix>
</trkpt>
<trkpt lat="40.072876" lon="-105.2301643">
  <ele>1583.0</ele>
  <time>2026-08-28T17:51:26Z</time>
  <course>0.66</course>
  <speed>0.61</speed>
  <fix>3d</fix>
</trkpt>
<trkpt lat="40.0728773" lon="-105.2301645">
  <ele>1583.01</ele>
  <time>2026-08-28T17:51:26Z</time>
  <course>0.18</course>
  <speed>0.55</speed>
  <fix>3d</fix>
</trkpt>
<trkpt lat="40.072876" lon="-105.2301643">
  <ele>1583.0</ele>
  <time>2026-08-28T17:51:26Z</time>
  <course>0.66</course>
  <speed>0.61</speed>
  <fix>3d</fix>
</trkpt>
<trkpt lat="40.0728782" lon="-105.2301645">
  <ele>1583.0</ele>
  <time>2026-08-28T17:51:26Z</time>
  <course>0.18</course>
  <speed>0.49</speed>
  <fix>3d</fix>
</trkpt>
<trkpt lat="40.0728771" lon="-105.2301643">
  <ele>1583.0</ele>
  <time>2026-08-28T17:51:26Z</time>
  <course>0.66</course>
  <speed>0.55</speed>
  <fix>3d</fix>
</trkpt>
<trkpt lat="40.0728787" lon="-105.2301645">
  <ele>1582.99</ele>
  <time>2026-08-28T17:51:26Z</time>
  <course>0.17</course>
  <speed>0.46</speed>
  <fix>3d</fix>
</trkpt>
<trkpt lat="40.072878" lon="-105.2301643">
  <ele>1583.0</ele>
  <time>2026-08-28T17:51:26Z</time>
  <course>0.66</course>
  <speed>0.5</speed>
  <fix>3d</fix>
</trkpt>
<trkpt lat="40.0728791" lon="-105.2301645">
  <ele>1582.99</ele>
  <time>2026-08-28T17:51:26Z</time>
  <course>0.17</course>
  <speed>0.44</speed>
  <fix>3d</fix>
</trkpt>
<trkpt lat="40.072878" lon="-105.2301643">
  <ele>1583.0</ele>
  <time>2026-08-28T17:51:26Z</time>
  <course>0.66</course>
  <speed>0.5</speed>
  <fix>3d</fix>
</trkpt>
<trkpt lat="40.0728795" lon="-105.2301645">
  <ele>1582.98</ele>
  <time>2026-08-28T17:51:26Z</time>
  <course>0.17</course>
  <speed>0.42</speed>
  <fix>3d</fix>
</trkpt>
<trkpt lat="40.0728789" lon="-105.2301643">
  <ele>1583.0</ele>
  <time>2026-08-28T17:51:26Z</time>
  <course>0.66</course>
  <speed>0.45</speed>
  <fix>3d</fix>
</trkpt>
<trkpt lat="40.0728798" lon="-105.2301644">
  <ele>1582.98</ele>
  <time>2026-08-28T17:51:26Z</time>
  <course>0.16</course>
  <speed>0.4</speed>
  <fix>3d</fix>
</trkpt>
<trkpt lat="40.0728789" lon="-105.2301643">
  <ele>1583.0</ele>
  <time>2026-08-28T17:51:26Z</time>
  <course>0.66</course>
  <speed>0.45</speed>
  <fix>3d</fix>
</trkpt>
<trkpt lat="40.0728802" lon="-105.2301644">
  <ele>1582.98</ele>
  <time>2026-08-28T17:51:26Z</time>
  <course>0.16</course>
  <speed>0.38</speed>
  <fix>3d</fix>
</trkpt>
<trkpt lat="40.0728796" lon="-105.2301643">
  <ele>1583.0</ele>
  <time>2026-08-28T17:51:26Z</time>
  <course>0.66</course>
  <speed>0.41</speed>
  <fix>3d</fix>
</trkpt>
<trkpt lat="40.0728805" lon="-105.2301644">
  <ele>1582.98</ele>
  <time>2026-08-28T17:51:26Z</time>
  <course>0.16</course>
  <speed>0.36</speed>
  <fix>3d</fix>
</trkpt>
<trkpt lat="40.0728796" lon="-105.2301643">
  <ele>1583.0</ele>
  <time>2026-08-28T17:51:26Z</time>
  <course>0.66</course>
  <speed>0.41</speed>
  <fix>3d</fix>
</trkpt>
<trkpt lat="40.0728808" lon="-105.2301644">
  <ele>1582.98</ele>
  <time>2026-08-28T17:51:26Z</time>
  <course>0.15</course>
  <speed>0.34</speed>
  <fix>3d</fix>
</trkpt>
<trkpt lat="40.0728803" lon="-105.2301643">
  <ele>1583.0</ele>
  <time>2026-08-28T17:51:26Z</time>
  <course>0.67</course>
  <speed>0.37</speed>
  <fix>3d</fix>
</trkpt>
<trkpt lat="40.0728811" lon="-105.2301644">
  <ele>1582.98</ele>
  <time>2026-08-28T17:51:26Z</time>
  <course>0.15</course>
  <speed>0.32015621187164245</speed>
  <fix>3d</fix>
</trkpt>
<trkpt lat="40.0728803" lon="-105.2301643">
  <ele>1583.0</ele>
  <time>2026-08-28T17:51:26Z</time>
  <course>0.67</course>
  <speed>0.37</speed>
  <fix>3d</fix>
</trkpt>
<trkpt lat="40.0728814" lon="-105.2301644">
  <ele>1582.98</ele>
  <time>2026-08-28T17:51:26Z</time>
  <course>0.14</course>
  <speed>0.3101612483854165</speed>
  <fix>3d</fix>
</trkpt>
<trkpt lat="40.0728809" lon="-105.2301643">
  <ele>1583.0</ele>
  <time>2026-08-28T17:51:26Z</time>
  <course>0.67</course>
  <speed>0.33</speed>
  <fix>3d</fix>
</trkpt>
<trkpt lat="40.0728817" lon="-105.2301644">
  <ele>1582.98</ele>
  <time>2026-08-28T17:51:26Z</time>
  <course>0.14</course>
  <speed>0.29017236257093815</speed>
  <fix>3d</fix>
</trkpt>
<trkpt lat="40.0728809" lon="-105.2301643">
  <ele>1583.0</ele>
  <time>2026-08-28T17:51:26Z</time>
  <course>0.67</course>
  <speed>0.33</speed>
  <fix>3d</fix>
</trkpt>
<trkpt lat="40.0728819" lon="-105.2301644">
  <ele>1582.98</ele>
  <time>2026-08-28T17:51:26Z</time>
  <course>0.14</course>
  <speed>0.280178514522438</speed>
  <fix>3d</fix>
</trkpt>
<trkpt lat="40.0728816" lon="-105.2301643">
  <ele>1583.0</ele>
  <time>2026-08-28T17:51:26Z</time>
  <course>0.67</course>
  <speed>0.3</speed>
  <fix>3d</fix>
</trkpt>
<trkpt lat="40.0728821" lon="-105.2301644">
  <ele>1582.98</ele>
  <time>2026-08-28T17:51:26Z</time>
  <course>0.14</course>
  <speed>0.27018512172212594</speed>
  <fix>3d</fix>
</trkpt>
<trkpt lat="40.0728816" lon="-105.2301643">
  <ele>1583.0</ele>
  <time>2026-08-28T17:51:26Z</time>
  <course>0.67</course>
  <speed>0.3</speed>
  <fix>3d</fix>
</trkpt>
<trkpt lat="40.0728823" lon="-105.2301644">
  <ele>1582.98</ele>
  <time>2026-08-28T17:51:26Z</time>
  <course>0.13</course>
  <speed>0.2501999200639361</speed>
  <fix>3d</fix>
</trkpt>
<trkpt lat="40.0728821" lon="-105.2301643">
  <ele>1583.0</ele>
  <time>2026-08-28T17:51:26Z</time>
  <course>0.67</course>
  <speed>0.27</speed>
  <fix>3d</fix>
</trkpt>
<trkpt lat="40.0728826" lon="-105.2301644">
  <ele>1582.98</ele>
  <time>2026-08-28T17:51:26Z</time>
  <course>0.13</course>
  <speed>0.24020824298928628</speed>
  <fix>3d</fix>
</trkpt>
<trkpt lat="40.0728821" lon="-105.2301643">
  <ele>1583.0</ele>
  <time>2026-08-28T17:51:26Z</time>
  <course>0.67</course>
  <speed>0.27</speed>
  <fix>3d</fix>
</trkpt>
<trkpt lat="40.0728828" lon="-105.2301645">
  <ele>1582.98</ele>
  <time>2026-08-28T17:51:26Z</time>
  <course>0.13</course>
  <speed>0.23021728866442676</speed>
  <fix>3d</fix>
</trkpt>
<trkpt lat="40.0728825" lon="-105.2301643">
  <ele>1583.0</ele>
  <time>2026-08-28T17:51:26Z</time>
  <course>0.67</course>
  <speed>0.25</speed>
  <fix>3d</fix>
</trkpt>
<trkpt lat="40.072883" lon="-105.2301645">
  <ele>1582.98</ele>
  <time>2026-08-28T17:51:26Z</time>
  <course>0.12</course>
  <speed>0.22022715545545238</speed>
  <fix>3d</fix>
</trkpt>
<trkpt lat="40.0728825" lon="-105.2301643">
  <ele>1583.0</ele>
  <time>2026-08-28T17:51:26Z</time>
  <course>0.67</course>
  <speed>0.25</speed>
  <fix>3d</fix>
</trkpt>
<trkpt lat="40.0728832" lon="-105.2301645">
  <ele>1582.98</ele>
  <time>2026-08-28T17:51:26Z</time>
  <course>0.12</course>
  <speed>0.2102379604162864</speed>
  <fix>3d</fix>
</trkpt>
<trkpt lat="40.072883" lon="-105.2301643">
  <ele>1583.0</ele>
  <time>2026-08-28T17:51:26Z</time>
  <course>0.67</course>
  <speed>0.22</speed>
  <fix>3d</fix>
</trkpt>
<trkpt lat="40.0728834" lon="-105.2301645">
  <ele>1582.98</ele>
  <time>2026-08-28T17:51:26Z</time>
  <course>0.12</course>
  <speed>0.2002498439450079</speed>
  <fix>3d</fix>
</trkpt>
<trkpt lat="40.072883" lon="-105.2301643">
  <ele>1583.0</ele>
  <time>2026-08-28T17:51:26Z</time>
  <course>0.67</course>
  <speed>0.22</speed>
  <fix>3d</fix>
</trkpt>
<trkpt lat="40.0728836" lon="-105.2301645">
  <ele>1582.97</ele>
  <time>2026-08-28T17:51:26Z</time>
  <course>0.11</course>
  <speed>0.19026297590440447</speed>
  <fix>3d</fix>
</trkpt>
<trkpt lat="40.0728833" lon="-105.2301643">
  <ele>1583.0</ele>
  <time>2026-08-28T17:51:26Z</time>
  <course>0.67</course>
  <speed>0.2</speed>
  <fix>3d</fix>
</trkpt>
<trkpt lat="40.0728837" lon="-105.2301645">
  <ele>1582.97</ele>
  <time>2026-08-28T17:51:26Z</time>
  <course>0.11</course>
  <speed>0.18027756377319945</speed>
  <fix>3d</fix>
</trkpt>
<trkpt lat="40.0728833" lon="-105.2301643">
  <ele>1583.0</ele>
  <time>2026-08-28T17:51:26Z</time>
  <course>0.67</course>
  <speed>0.2</speed>
  <fix>3d</fix>
</trkpt>
<trkpt lat="40.0728839" lon="-105.2301645">
  <ele>1582.96</ele>
  <time>2026-08-28T17:51:26Z</time>
  <course>0.11</course>
  <speed>0.17029386365926402</speed>
  <fix>3d</fix>
</trkpt>
<trkpt lat="40.0728837" lon="-105.2301643">
  <ele>1583.0</ele>
  <time>2026-08-28T17:51:26Z</time>
  <course>0.67</course>
  <speed>0.18</speed>
  <fix>3d</fix>
</trkpt>
<trkpt lat="40.0728841" lon="-105.2301645">
  <ele>1582.96</ele>
  <time>2026-08-28T17:51:26Z</time>
  <course>0.11</course>
  <speed>0.16031219541881397</speed>
  <fix>3d</fix>
</trkpt>
<trkpt lat="40.0728837" lon="-105.2301643">
  <ele>1583.0</ele>
  <time>2026-08-28T17:51:26Z</time>
  <course>0.67</course>
  <speed>0.18</speed>
  <fix>3d</fix>
</trkpt>
<trkpt lat="40.0728842" lon="-105.2301645">
  <ele>1582.96</ele>
  <time>2026-08-28T17:51:26Z</time>
  <course>0.1</course>
  <speed>0.15132745950421556</speed>
  <fix>3d</fix>
</trkpt>
<trkpt lat="40.072884" lon="-105.2301643">
  <ele>1583.0</ele>
  <time>2026-08-28T17:51:26Z</time>
  <course>0.67</course>
  <speed>0.16</speed>
  <fix>3d</fix>
</trkpt>
<trkpt lat="40.0728843" lon="-105.2301645">
  <ele>1582.96</ele>
  <time>2026-08-28T17:51:26Z</time>
  <course>0.1</course>
  <speed>0.15132745950421556</speed>
  <fix>3d</fix>
</trkpt>
<trkpt lat="40.072884" lon="-105.2301643">
  <ele>1583.0</ele>
  <time>2026-08-28T17:51:26Z</time>
  <course>0.67</course>
  <speed>0.16</speed>
  <fix>3d</fix>
</trkpt>
<trkpt lat="40.0728845" lon="-105.2301645">
  <ele>1582.96</ele>
  <time>2026-08-28T17:51:26Z</time>
  <course>0.1</course>
  <speed>0.1414213562373095</speed>
  <fix>3d</fix>
</trkpt>
<trkpt lat="40.0728843" lon="-105.2301643">
  <ele>1583.0</ele>
  <time>2026-08-28T17:51:26Z</time>
  <course>0.67</course>
  <speed>0.15</speed>
  <fix>3d</fix>
</trkpt>
<trkpt lat="40.0728846" lon="-105.2301645">
  <ele>1582.96</ele>
  <time>2026-08-28T17:51:26Z</time>
  <course>0.1</course>
  <speed>0.13152946437965907</speed>
  <fix>3d</fix>
</trkpt>
<trkpt lat="40.0728843" lon="-105.2301643">
  <ele>1583.0</ele>
  <time>2026-08-28T17:51:26Z</time>
  <course>0.67</course>
  <speed>0.15</speed>
  <fix>3d</fix>
</trkpt>
<trkpt lat="40.0728847" lon="-105.2301645">
  <ele>1582.97</ele>
  <time>2026-08-28T17:51:26Z</time>
  <course>0.09</course>
  <speed>0.13152946437965907</speed>
  <fix>3d</fix>
</trkpt>
<trkpt lat="40.0728845" lon="-105.2301643">
  <ele>1583.0</ele>
  <time>2026-08-28T17:51:26Z</time>
  <course>0.67</course>
  <speed>0.13</speed>
  <fix>3d</fix>
</trkpt>
<trkpt lat="40.0728848" lon="-105.2301645">
  <ele>1582.97</ele>
  <time>2026-08-28T17:51:26Z</time>
  <course>0.09</course>
  <speed>0.12165525060596438</speed>
  <fix>3d</fix>
</trkpt>
<trkpt lat="40.0728845" lon="-105.2301643">
  <ele>1583.0</ele>
  <time>2026-08-28T17:51:26Z</time>
  <course>0.67</course>
  <speed>0.13</speed>
  <fix>3d</fix>
</trkpt>
<trkpt lat="40.0728849" lon="-105.2301645">
  <ele>1582.98</ele>
  <time>2026-08-28T17:51:26Z</time>
  <course>0.09</course>
  <speed>0.12165525060596438</speed>
  <fix>3d</fix>
</trkpt>
<trkpt lat="40.0728848" lon="-105.2301643">
  <ele>1583.0</ele>
  <time>2026-08-28T17:51:26Z</time>
  <course>0.68</course>
  <speed>0.12</speed>
  <fix>3d</fix>
</trkpt>
<trkpt lat="40.072885" lon="-105.2301645">
  <ele>1582.99</ele>
  <time>2026-08-28T17:51:26Z</time>
  <course>0.09</course>
  <speed>0.1118033988749895</speed>
  <fix>3d</fix>
</trkpt>
<trkpt lat="40.0728848" lon="-105.2301643">
  <ele>1583.0</ele>
  <time>2026-08-28T17:51:26Z</time>
  <course>0.68</course>
  <speed>0.12</speed>
  <fix>3d</fix>
</trkpt>
<trkpt lat="40.0728851" lon="-105.2301645">
  <ele>1583.0</ele>
  <time>2026-08-28T17:51:26Z</time>
  <course>0.08</course>
  <speed>0.1118033988749895</speed>
  <fix>3d</fix>
</trkpt>
<trkpt lat="40.072885" lon="-105.2301643">
  <ele>1583.0</ele>
  <time>2026-08-28T17:51:26Z</time>
  <course>0.68</course>
  <speed>0.11</speed>
  <fix>3d</fix>
</trkpt>
<trkpt lat="40.0728852" lon="-105.2301645">
  <ele>1583.0</ele>
  <time>2026-08-28T17:51:26Z</time>
  <course>0.08</course>
  <speed>0.1019803902718557</speed>
  <fix>3d</fix>
</trkpt>
<trkpt lat="40.072885" lon="-105.2301643">
  <ele>1583.0</ele>
  <time>2026-08-28T17:51:26Z</time>
  <course>0.68</course>
  <speed>0.11</speed>
  <fix>3d</fix>
</trkpt>
<trkpt lat="40.0728853" lon="-105.2301645">
  <ele>1583.01</ele>
  <time>2026-08-28T17:51:26Z</time>
  <course>0.08</course>
  <speed>0.1019803902718557</speed>
  <fix>3d</fix>
</trkpt>
<trkpt lat="40.0728852" lon="-105.2301643">
  <ele>1583.0</ele>
  <time>2026-08-28T17:51:26Z</time>
  <course>0.68</course>
  <speed>0.1</speed>
  <fix>3d</fix>
</trkpt>
<trkpt lat="40.0728854" lon="-105.2301645">
  <ele>1583.01</ele>
  <time>2026-08-28T17:51:26Z</time>
  <course>0.08</course>
  <speed>0.1019803902718557</speed>
  <fix>3d</fix>
</trkpt>
<trkpt lat="40.0728852" lon="-105.2301643">
  <ele>1583.0</ele>
  <time>2026-08-28T17:51:26Z</time>
  <course>0.68</course>
  <speed>0.1</speed>
  <fix>3d</fix>
</trkpt>
<trkpt lat="40.0728855" lon="-105.2301645">
  <ele>1583.02</ele>
  <time>2026-08-28T17:51:26Z</time>
  <course>0.08</course>
  <speed>0.09219544457292887</speed>
  <fix>3d</fix>
</trkpt>
<trkpt lat="40.0728853" lon="-105.2301643">
  <ele>1583.0</ele>
  <time>2026-08-28T17:51:26Z</time>
  <course>0.68</course>
  <speed>0.09</speed>
  <fix>3d</fix>
</trkpt>
<trkpt lat="40.0728855" lon="-105.2301645">
  <ele>1583.02</ele>
  <time>2026-08-28T17:51:26Z</time>
  <course>0.08</course>
  <speed>0.09219544457292887</speed>
  <fix>3d</fix>
</trkpt>
<trkpt lat="40.0728853" lon="-105.2301643">
  <ele>1583.0</ele>
  <time>2026-08-28T17:51:26Z</time>
  <course>0.68</course>
  <speed>0.09</speed>
  <fix>3d</fix>
</trkpt>
<trkpt lat="40.0728856" lon="-105.2301645">
  <ele>1583.02</ele>
  <time>2026-08-28T17:51:26Z</time>
  <course>0.07</course>
  <speed>0.09219544457292887</speed>
  <fix>3d</fix>
</trkpt>
<trkpt lat="40.0728855" lon="-105.2301642">
  <ele>1583.0</ele>
  <time>2026-08-28T17:51:26Z</time>
  <course>0.68</course>
  <speed>0.08</speed>
  <fix>3d</fix>
</trkpt>
<trkpt lat="40.0728857" lon="-105.2301645">
  <ele>1583.02</ele>
  <time>2026-08-28T17:51:26Z</time>
  <course>0.07</course>
  <speed>0.0824621125123532</speed>
  <fix>3d</fix>
</trkpt>
<trkpt lat="40.0728855" lon="-105.2301642">
  <ele>1583.0</ele>
  <time>2026-08-28T17:51:26Z</time>
  <course>0.68</course>
  <speed>0.08</speed>
  <fix>3d</fix>
</trkpt>
<trkpt lat="40.0728858" lon="-105.2301645">
  <ele>1583.02</ele>
  <time>2026-08-28T17:51:26Z</time>
  <course>0.07</course>
  <speed>0.0824621125123532</speed>
  <fix>3d</fix>
</trkpt>
<trkpt lat="40.0728857" lon="-105.2301641">
  <ele>1583.0</ele>
  <time>2026-08-28T17:51:26Z</time>
  <course>0.69</course>
  <speed>0.07</speed>
  <fix>3d</fix>
</trkpt>
<trkpt lat="40.0728858" lon="-105.2301645">
  <ele>1583.02</ele>
  <time>2026-08-28T17:51:26Z</time>
  <course>0.07</course>
  <speed>0.0824621125123532</speed>
  <fix>3d</fix>
</trkpt>
<trkpt lat="40.0728857" lon="-105.2301641">
  <ele>1583.0</ele>
  <time>2026-08-28T17:51:26Z</time>
  <course>0.69</course>
  <speed>0.07</speed>
  <fix>3d</fix>
</trkpt>
<trkpt lat="40.0728859" lon="-105.2301645">
  <ele>1583.03</ele>
  <time>2026-08-28T17:51:26Z</time>
  <course>0.07</course>
  <speed>0.07280109889280519</speed>
  <fix>3d</fix>
</trkpt>
<trkpt lat="40.0728858" lon="-105.2301641">
  <ele>1583.0</ele>
  <time>2026-08-28T17:51:26Z</time>
  <course>0.69</course>
  <speed>0.06</speed>
  <fix>3d</fix>
</trkpt>
<trkpt lat="40.072886" lon="-105.2301645">
  <ele>1583.03</ele>
  <time>2026-08-28T17:51:26Z</time>
  <course>0.07</course>
  <speed>0.07280109889280519</speed>
  <fix>3d</fix>
</trkpt>
<trkpt lat="40.0728858" lon="-105.2301641">
  <ele>1583.0</ele>
  <time>2026-08-28T17:51:26Z</time>
  <course>0.69</course>
  <speed>0.06</speed>
  <fix>3d</fix>
</trkpt>
<trkpt lat="40.072886" lon="-105.2301645">
  <ele>1583.03</ele>
  <time>2026-08-28T17:51:26Z</time>
  <course>0.07</course>
  <speed>0.07280109889280519</speed>
  <fix>3d</fix>
</trkpt>
<trkpt lat="40.0728859" lon="-105.2301641">
  <ele>1583.0</ele>
  <time>2026-08-28T17:51:26Z</time>
  <course>0.69</course>
  <speed>0.06</speed>
  <fix>3d</fix>
</trkpt>
<trkpt lat="40.0728861" lon="-105.2301645">
  <ele>1583.03</ele>
  <time>2026-08-28T17:51:26Z</time>
  <course>0.06</course>
  <speed>0.07280109889280519</speed>
  <fix>3d</fix>
</trkpt>
<trkpt lat="40.0728859" lon="-105.2301641">
  <ele>1583.0</ele>
  <time>2026-08-28T17:51:26Z</time>
  <course>0.69</course>
  <speed>0.06</speed>
  <fix>3d</fix>
</trkpt>
<trkpt lat="40.0728861" lon="-105.2301645">
  <ele>1583.03</ele>
  <time>2026-08-28T17:51:26Z</time>
  <course>0.06</course>
  <speed>0.0632455532033676</speed>
  <fix>3d</fix>
</trkpt>
<trkpt lat="40.072886" lon="-105.2301641">
  <ele>1583.0</ele>
  <time>2026-08-28T17:51:26Z</time>
  <course>0.7</course>
  <speed>0.05</speed>
  <fix>3d</fix>
</trkpt>
<trkpt lat="40.0728862" lon="-105.2301645">
  <ele>1583.03</ele>
  <time>2026-08-28T17:51:26Z</time>
  <course>0.06</course>
  <speed>0.0632455532033676</speed>
  <fix>3d</fix>
</trkpt>
<trkpt lat="40.072886" lon="-105.2301641">
  <ele>1583.0</ele>
  <time>2026-08-28T17:51:26Z</time>
  <course>0.7</course>
  <speed>0.05</speed>
  <fix>3d</fix>
</trkpt>
<trkpt lat="40.0728862" lon="-105.2301645">
  <ele>1583.03</ele>
  <time>2026-08-28T17:51:26Z</time>
  <course>0.06</course>
  <speed>0.0632455532033676</speed>
  <fix>3d</fix>
</trkpt>
<trkpt lat="40.0728861" lon="-105.2301641">
  <ele>1583.0</ele>
  <time>2026-08-28T17:51:26Z</time>
  <course>0.7</course>
  <speed>0.05</speed>
  <fix>3d</fix>
</trkpt>
<trkpt lat="40.0728863" lon="-105.2301645">
  <ele>1583.03</ele>
  <time>2026-08-28T17:51:26Z</time>
  <course>0.06</course>
  <speed>0.0632455532033676</speed>
  <fix>3d</fix>
</trkpt>
<trkpt lat="40.0728861" lon="-105.2301641">
  <ele>1583.0</ele>
  <time>2026-08-28T17:51:26Z</time>
  <course>0.7</course>
  <speed>0.05</speed>
  <fix>3d</fix>
</trkpt>
<trkpt lat="40.0728863" lon="-105.2301645">
  <ele>1583.03</ele>
  <time>2026-08-28T17:51:26Z</time>
  <course>0.06</course>
  <speed>0.0632455532033676</speed>
  <fix>3d</fix>
</trkpt>
<trkpt lat="40.0728862" lon="-105.2301641">
  <ele>1583.0</ele>
  <time>2026-08-28T17:51:26Z</time>
  <course>0.71</course>
  <speed>0.04</speed>
  <fix>3d</fix>
</trkpt>
<trkpt lat="40.0728864" lon="-105.2301645">
  <ele>1583.03</ele>
  <time>2026-08-28T17:51:26Z</time>
  <course>0.06</course>
  <speed>0.053851648071345036</speed>
  <fix>3d</fix>
</trkpt>
<trkpt lat="40.0728862" lon="-105.2301641">
  <ele>1583.0</ele>
  <time>2026-08-28T17:51:26Z</time>
  <course>0.71</course>
  <speed>0.04</speed>
  <fix>3d</fix>
</trkpt>
<trkpt lat="40.0728864" lon="-105.2301645">
  <ele>1583.03</ele>
  <time>2026-08-28T17:51:26Z</time>
  <course>0.06</course>
  <speed>0.053851648071345036</speed>
  <fix>3d</fix>
</trkpt>
<trkpt lat="40.0728863" lon="-105.2301641">
  <ele>1583.0</ele>
  <time>2026-08-28T17:51:26Z</time>
  <course>0.71</course>
  <speed>0.04</speed>
  <fix>3d</fix>
</trkpt>
<trkpt lat="40.0728864" lon="-105.2301645">
  <ele>1583.03</ele>
  <time>2026-08-28T17:51:26Z</time>
  <course>0.06</course>
  <speed>0.053851648071345036</speed>
  <fix>3d</fix>
</trkpt>
<trkpt lat="40.0728863" lon="-105.2301641">
  <ele>1583.0</ele>
  <time>2026-08-28T17:51:26Z</time>
  <course>0.71</course>
  <speed>0.04</speed>
  <fix>3d</fix>
</trkpt>
<trkpt lat="40.0728865" lon="-105.2301645">
  <ele>1583.03</ele>
  <time>2026-08-28T17:51:26Z</time>
  <course>0.05</course>
  <speed>0.053851648071345036</speed>
  <fix>3d</fix>
</trkpt>
<trkpt lat="40.0728864" lon="-105.2301641">
  <ele>1583.0</ele>
  <time>2026-08-28T17:51:26Z</time>
  <course>0.72</course>
  <speed>0.03</speed>
  <fix>3d</fix>
</trkpt>
<trkpt lat="40.0728865" lon="-105.2301644">
  <ele>1583.04</ele>
  <time>2026-08-28T17:51:26Z</time>
  <course>0.05</course>
  <speed>0.053851648071345036</speed>
  <fix>3d</fix>
</trkpt>
<trkpt lat="40.0728864" lon="-105.2301641">
  <ele>1583.0</ele>
  <time>2026-08-28T17:51:26Z</time>
  <course>0.72</course>
  <speed>0.03</speed>
  <fix>3d</fix>
</trkpt>
<trkpt lat="40.0728865" lon="-105.2301644">
  <ele>1583.04</ele>
  <time>2026-08-28T17:51:26Z</time>
  <course>0.05</course>
  <speed>0.053851648071345036</speed>
  <fix>3d</fix>
</trkpt>
<trkpt lat="40.0728864" lon="-105.2301641">
  <ele>1583.0</ele>
  <time>2026-08-28T17:51:26Z</time>
  <course>0.72</course>
  <speed>0.03</speed>
  <fix>3d</fix>
</trkpt>
<trkpt lat="40.0728866" lon="-105.2301644">
  <ele>1583.04</ele>
  <time>2026-08-28T17:51:26Z</time>
  <course>0.05</course>
  <speed>0.053851648071345036</speed>
  <fix>3d</fix>
</trkpt>
<trkpt lat="40.0728864" lon="-105.2301641">
  <ele>1583.0</ele>
  <time>2026-08-28T17:51:26Z</time>
  <course>0.72</course>
  <speed>0.03</speed>
  <fix>3d</fix>
</trkpt>
<trkpt lat="40.0728866" lon="-105.2301644">
  <ele>1583.04</ele>
  <time>2026-08-28T17:51:26Z</time>
  <course>0.05</course>
  <speed>0.053851648071345036</speed>
  <fix>3d</fix>
</trkpt>
<trkpt lat="40.0728864" lon="-105.2301641">
  <ele>1583.0</ele>
  <time>2026-08-28T17:51:26Z</time>
  <course>0.73</course>
  <speed>0.03</speed>
  <fix>3d</fix>
</trkpt>
<trkpt lat="40.0728866" lon="-105.2301644">
  <ele>1583.03</ele>
  <time>2026-08-28T17:51:26Z</time>
  <course>0.05</course>
  <speed>0.044721359549995794</speed>
  <fix>3d</fix>
</trkpt>
<trkpt lat="40.0728864" lon="-105.2301641">
  <ele>1583.0</ele>
  <time>2026-08-28T17:51:26Z</time>
  <course>0.73</course>
  <speed>0.03</speed>
  <fix>3d</fix>
</trkpt>
<trkpt lat="40.0728867" lon="-105.2301644">
  <ele>1583.04</ele>
  <time>2026-08-28T17:51:26Z</time>
  <course>0.05</course>
  <speed>0.044721359549995794</speed>
  <fix>3d</fix>
</trkpt>
<trkpt lat="40.0728865" lon="-105.2301641">
  <ele>1583.0</ele>
  <time>2026-08-28T17:51:26Z</time>
  <course>0.73</course>
  <speed>0.02</speed>
  <fix>3d</fix>
</trkpt>
<trkpt lat="40.0728867" lon="-105.2301644">
  <ele>1583.04</ele>
  <time>2026-08-28T17:51:26Z</time>
  <course>0.05</course>
  <speed>0.044721359549995794</speed>
  <fix>3d</fix>
</trkpt>
<trkpt lat="40.0728865" lon="-105.2301641">
  <ele>1583.0</ele>
  <time>2026-08-28T17:51:26Z</time>
  <course>0.73</course>
  <speed>0.02</speed>
  <fix>3d</fix>
</trkpt>
<trkpt lat="40.0728867" lon="-105.2301644">
  <ele>1583.04</ele>
  <time>2026-08-28T17:51:26Z</time>
  <course>0.05</course>
  <speed>0.044721359549995794</speed>
  <fix>3d</fix>
</trkpt>
<trkpt lat="40.0728865" lon="-105.2301641">
  <ele>1583.0</ele>
  <time>2026-08-28T17:51:26Z</time>
  <course>0.74</course>
  <speed>0.02</speed>
  <fix>3d</fix>
</trkpt>
<trkpt lat="40.0728867" lon="-105.2301644">
  <ele>1583.04</ele>
  <time>2026-08-28T17:51:26Z</time>
  <course>0.05</course>
  <speed>0.044721359549995794</speed>
  <fix>3d</fix>
</trkpt>
<trkpt lat="40.0728865" lon="-105.2301641">
  <ele>1583.0</ele>
  <time>2026-08-28T17:51:26Z</time>
  <course>0.74</course>
  <speed>0.02</speed>
  <fix>3d</fix>
</trkpt>
<trkpt lat="40.0728867" lon="-105.2301644">
  <ele>1583.04</ele>
  <time>2026-08-28T17:51:26Z</time>
  <course>0.04</course>
  <speed>0.044721359549995794</speed>
  <fix>3d</fix>
</trkpt>
<trkpt lat="40.0728866" lon="-105.2301641">
  <ele>1583.0</ele>
  <time>2026-08-28T17:51:26Z</time>
  <course>0.75</course>
  <speed>0.02</speed>
  <fix>3d</fix>
</trkpt>
<trkpt lat="40.0728868" lon="-105.2301644">
  <ele>1583.04</ele>
  <time>2026-08-28T17:51:26Z</time>
  <course>0.04</course>
  <speed>0.044721359549995794</speed>
  <fix>3d</fix>
</trkpt>
<trkpt lat="40.0728866" lon="-105.2301641">
  <ele>1583.0</ele>
  <time>2026-08-28T17:51:26Z</time>
  <course>0.75</course>
  <speed>0.02</speed>
  <fix>3d</fix>
</trkpt>
<trkpt lat="40.0728868" lon="-105.2301643">
  <ele>1583.03</ele>
  <time>2026-08-28T17:51:26Z</time>
  <course>0.04</course>
  <speed>0.044721359549995794</speed>
  <fix>3d</fix>
</trkpt>
<trkpt lat="40.0728867" lon="-105.2301641">
  <ele>1583.0</ele>
  <time>2026-08-28T17:51:26Z</time>
  <course>0.76</course>
  <speed>0.02</speed>
  <fix>3d</fix>
</trkpt>
<trkpt lat="40.0728868" lon="-105.2301643">
  <ele>1583.02</ele>
  <time>2026-08-28T17:51:26Z</time>
  <course>0.04</course>
  <speed>0.044721359549995794</speed>
  <fix>3d</fix>
</trkpt>
<trkpt lat="40.0728867" lon="-105.2301641">
  <ele>1583.0</ele>
  <time>2026-08-28T17:51:26Z</time>
  <course>0.76</course>
  <speed>0.02</speed>
  <fix>3d</fix>
</trkpt>
<trkpt lat="40.0728868" lon="-105.2301643">
  <ele>1583.02</ele>
  <time>2026-08-28T17:51:26Z</time>
  <course>0.04</course>
  <speed>0.03605551275463989</speed>
  <fix>3d</fix>
</trkpt>
<trkpt lat="40.0728867" lon="-105.2301641">
  <ele>1583.0</ele>
  <time>2026-08-28T17:51:26Z</time>
  <course>0.77</course>
  <speed>0.01</speed>
  <fix>3d</fix>
</trkpt>
<trkpt lat="40.0728868" lon="-105.2301643">
  <ele>1583.01</ele>
  <time>2026-08-28T17:51:26Z</time>
  <course>0.04</course>
  <speed>0.03605551275463989</speed>
  <fix>3d</fix>
</trkpt>
<trkpt lat="40.0728867" lon="-105.2301641">
  <ele>1583.0</ele>
  <time>2026-08-28T17:51:26Z</time>
  <course>0.77</course>
  <speed>0.01</speed>
  <fix>3d</fix>
</trkpt>
<trkpt lat="40.0728869" lon="-105.2301643">
  <ele>1583.0</ele>
  <time>2026-08-28T17:51:26Z</time>
  <course>0.04</course>
  <speed>0.03605551275463989</speed>
  <fix>3d</fix>
</trkpt>
<trkpt lat="40.0728867" lon="-105.2301641">
  <ele>1583.0</ele>
  <time>2026-08-28T17:51:26Z</time>
  <course>0.78</course>
  <speed>0.01</speed>
  <fix>3d</fix>
</trkpt>
<trkpt lat="40.0728869" lon="-105.2301643">
  <ele>1583.0</ele>
  <time>2026-08-28T17:51:26Z</time>
  <course>0.04</course>
  <speed>0.03605551275463989</speed>
  <fix>3d</fix>
</trkpt>
<trkpt lat="40.0728867" lon="-105.2301641">
  <ele>1583.0</ele>
  <time>2026-08-28T17:51:26Z</time>
  <course>0.78</course>
  <speed>0.01</speed>
  <fix>3d</fix>
</trkpt>
<trkpt lat="40.0728869" lon="-105.2301643">
  <ele>1582.99</ele>
  <time>2026-08-28T17:51:26Z</time>
  <course>0.04</course>
  <speed>0.03605551275463989</speed>
  <fix>3d</fix>
</trkpt>
<trkpt lat="40.0728868" lon="-105.2301641">
  <ele>1583.0</ele>
  <time>2026-08-28T17:51:26Z</time>
  <course>0.8</course>
  <speed>0.01</speed>
  <fix>3d</fix>
</trkpt>
<trkpt lat="40.0728869" lon="-105.2301643">
  <ele>1582.99</ele>
  <time>2026-08-28T17:51:26Z</time>
  <course>0.03</course>
  <speed>0.03605551275463989</speed>
  <fix>3d</fix>
</trkpt>
<trkpt lat="40.0728868" lon="-105.2301641">
  <ele>1583.0</ele>
  <time>2026-08-28T17:51:26Z</time>
  <course>0.8</course>
  <speed>0.01</speed>
  <fix>3d</fix>
</trkpt>
<trkpt lat="40.0728869" lon="-105.2301643">
  <ele>1582.98</ele>
  <time>2026-08-28T17:51:26Z</time>
  <course>0.03</course>
  <speed>0.03605551275463989</speed>
  <fix>3d</fix>
</trkpt>
<trkpt lat="40.0728868" lon="-105.2301641">
  <ele>1583.0</ele>
  <time>2026-08-28T17:51:26Z</time>
  <course>0.81</course>
  <speed>0.01</speed>
  <fix>3d</fix>
</trkpt>
<trkpt lat="40.0728869" lon="-105.2301643">
  <ele>1582.98</ele>
  <time>2026-08-28T17:51:26Z</time>
  <course>0.03</course>
  <speed>0.03605551275463989</speed>
  <fix>3d</fix>
</trkpt>
<trkpt lat="40.0728868" lon="-105.2301641">
  <ele>1583.0</ele>
  <time>2026-08-28T17:51:26Z</time>
  <course>0.81</course>
  <speed>0.01</speed>
  <fix>3d</fix>
</trkpt>
<trkpt lat="40.0728869" lon="-105.2301643">
  <ele>1582.97</ele>
  <time>2026-08-28T17:51:26Z</time>
  <course>0.03</course>
  <speed>0.03605551275463989</speed>
  <fix>3d</fix>
</trkpt>
<trkpt lat="40.0728868" lon="-105.2301641">
  <ele>1583.0</ele>
  <time>2026-08-28T17:51:26Z</time>
  <course>0.83</course>
  <speed>0.01</speed>
  <fix>3d</fix>
</trkpt>
<trkpt lat="40.072887" lon="-105.2301643">
  <ele>1582.97</ele>
  <time>2026-08-28T17:51:26Z</time>
  <course>0.03</course>
  <speed>0.03605551275463989</speed>
  <fix>3d</fix>
</trkpt>
<trkpt lat="40.0728868" lon="-105.2301641">
  <ele>1583.0</ele>
  <time>2026-08-28T17:51:26Z</time>
  <course>0.83</course>
  <speed>0.01</speed>
  <fix>3d</fix>
</trkpt>
<trkpt lat="40.072887" lon="-105.2301643">
  <ele>1582.97</ele>
  <time>2026-08-28T17:51:26Z</time>
  <course>0.03</course>
  <speed>0.03605551275463989</speed>
  <fix>3d</fix>
</trkpt>
<trkpt lat="40.0728869" lon="-105.2301641">
  <ele>1583.0</ele>
  <time>2026-08-28T17:51:26Z</time>
  <course>0.84</course>
  <speed>0.01</speed>
  <fix>3d</fix>
</trkpt>
<trkpt lat="40.072887" lon="-105.2301643">
  <ele>1582.96</ele>
  <time>2026-08-28T17:51:26Z</time>
  <course>0.03</course>
  <speed>0.03605551275463989</speed>
  <fix>3d</fix>
</trkpt>
<trkpt lat="40.0728869" lon="-105.2301641">
  <ele>1583.0</ele>
  <time>2026-08-28T17:51:26Z</time>
  <course>0.84</course>
  <speed>0.01</speed>
  <fix>3d</fix>
</trkpt>
<trkpt lat="40.072887" lon="-105.2301643">
  <ele>1582.96</ele>
  <time>2026-08-28T17:51:26Z</time>
  <course>0.03</course>
  <speed>0.03605551275463989</speed>
  <fix>3d</fix>
</trkpt>
<trkpt lat="40.0728869" lon="-105.2301641">
  <ele>1583.0</ele>
  <time>2026-08-28T17:51:26Z</time>
  <course>0.86</course>
  <speed>0.01</speed>
  <fix>3d</fix>
</trkpt>
<trkpt lat="40.072887" lon="-105.2301643">
  <ele>1582.95</ele>
  <time>2026-08-28T17:51:26Z</time>
  <course>0.02</course>
  <speed>0.03605551275463989</speed>
  <fix>3d</fix>
</trkpt>
<trkpt lat="40.0728869" lon="-105.2301641">
  <ele>1583.0</ele>
  <time>2026-08-28T17:51:26Z</time>
  <course>0.86</course>
  <speed>0.01</speed>
  <fix>3d</fix>
</trkpt>
<trkpt lat="40.072887" lon="-105.2301643">
  <ele>1582.94</ele>
  <time>2026-08-28T17:51:26Z</time>
  <course>0.02</course>
  <speed>0.03605551275463989</speed>
  <fix>3d</fix>
</trkpt>
<trkpt lat="40.0728869" lon="-105.2301641">
  <ele>1583.0</ele>
  <time>2026-08-28T17:51:26Z</time>
  <course>0.89</course>
  <speed>0.0</speed>
  <fix>3d</fix>
</trkpt>
<trkpt lat="40.072887" lon="-105.2301643">
  <ele>1582.94</ele>
  <time>2026-08-28T17:51:26Z</time>
  <course>0.02</course>
  <speed>0.03605551275463989</speed>
  <fix>3d</fix>
</trkpt>
<trkpt lat="40.0728869" lon="-105.2301641">
  <ele>1583.0</ele>
  <time>2026-08-28T17:51:26Z</time>
  <course>0.89</course>
  <speed>0.0</speed>
  <fix>3d</fix>
</trkpt>
<trkpt lat="40.072887" lon="-105.2301643">
  <ele>1582.93</ele>
  <time>2026-08-28T17:51:26Z</time>
  <course>0.02</course>
  <speed>0.03605551275463989</speed>
  <fix>3d</fix>
</trkpt>
<trkpt lat="40.0728869" lon="-105.2301641">
  <ele>1583.0</ele>
  <time>2026-08-28T17:51:26Z</time>
  <course>0.91</course>
  <speed>0.0</speed>
  <fix>3d</fix>
</trkpt>
<trkpt lat="40.0728871" lon="-105.2301643">
  <ele>1582.94</ele>
  <time>2026-08-28T17:51:26Z</time>
  <course>0.02</course>
  <speed>0.03605551275463989</speed>
  <fix>3d</fix>
</trkpt>
<trkpt lat="40.0728869" lon="-105.2301641">
  <ele>1583.0</ele>
  <time>2026-08-28T17:51:26Z</time>
  <course>0.91</course>
  <speed>0.0</speed>
  <fix>3d</fix>
</trkpt>
<trkpt lat="40.0728871" lon="-105.2301643">
  <ele>1582.94</ele>
  <time>2026-08-28T17:51:26Z</time>
  <course>0.02</course>
  <speed>0.03605551275463989</speed>
  <fix>3d</fix>
</trkpt>
<trkpt lat="40.0728869" lon="-105.2301641">
  <ele>1583.0</ele>
  <time>2026-08-28T17:51:26Z</time>
  <course>0.94</course>
  <speed>0.0</speed>
  <fix>3d</fix>
</trkpt>
<trkpt lat="40.0728871" lon="-105.2301643">
  <ele>1582.95</ele>
  <time>2026-08-28T17:51:26Z</time>
  <course>0.02</course>
  <speed>0.03605551275463989</speed>
  <fix>3d</fix>
</trkpt>
<trkpt lat="40.0728869" lon="-105.2301641">
  <ele>1583.0</ele>
  <time>2026-08-28T17:51:26Z</time>
  <course>0.94</course>
  <speed>0.0</speed>
  <fix>3d</fix>
</trkpt>
<trkpt lat="40.0728871" lon="-105.2301643">
  <ele>1582.95</ele>
  <time>2026-08-28T17:51:26Z</time>
  <course>0.01</course>
  <speed>0.03605551275463989</speed>
  <fix>3d</fix>
</trkpt>
<trkpt lat="40.0728869" lon="-105.2301641">
  <ele>1583.0</ele>
  <time>2026-08-28T17:51:26Z</time>
  <course>0.96</course>
  <speed>0.0</speed>
  <fix>3d</fix>
</trkpt>
<trkpt lat="40.0728871" lon="-105.2301643">
  <ele>1582.96</ele>
  <time>2026-08-28T17:51:26Z</time>
  <course>0.01</course>
  <speed>0.03605551275463989</speed>
  <fix>3d</fix>
</trkpt>
<trkpt lat="40.0728869" lon="-105.2301641">
  <ele>1583.0</ele>
  <time>2026-08-28T17:51:26Z</time>
  <course>0.96</course>
  <speed>0.0</speed>
  <fix>3d</fix>
</trkpt>
<trkpt lat="40.0728871" lon="-105.2301643">
  <ele>1582.97</ele>
  <time>2026-08-28T17:51:26Z</time>
  <course>0.01</course>
  <speed>0.03605551275463989</speed>
  <fix>3d</fix>
</trkpt>
<trkpt lat="40.0728869" lon="-105.2301641">
  <ele>1583.0</ele>
  <time>2026-08-28T17:51:26Z</time>
  <course>1.0</course>
  <speed>0.0</speed>
  <fix>3d</fix>
</trkpt>
<trkpt lat="40.0728871" lon="-105.2301643">
  <ele>1582.98</ele>
  <time>2026-08-28T17:51:26Z</time>
  <course>0.01</course>
  <speed>0.0282842712474619</speed>
  <fix>3d</fix>
</trkpt>
<trkpt lat="40.0728869" lon="-105.2301641">
  <ele>1583.0</ele>
  <time>2026-08-28T17:51:26Z</time>
  <course>1.0</course>
  <speed>0.0</speed>
  <fix>3d</fix>
</trkpt>
<trkpt lat="40.0728871" lon="-105.2301643">
  <ele>1582.99</ele>
  <time>2026-08-28T17:51:26Z</time>
  <course>0.01</course>
  <speed>0.0282842712474619</speed>
  <fix>3d</fix>
</trkpt>
<trkpt lat="40.072887" lon="-105.2301641">
  <ele>1583.0</ele>
  <time>2026-08-28T17:51:26Z</time>
  <course>1.03</course>
  <speed>0.0</speed>
  <fix>3d</fix>
</trkpt>
<trkpt lat="40.0728871" lon="-105.2301643">
  <ele>1582.99</ele>
  <time>2026-08-28T17:51:26Z</time>
  <course>0.01</course>
  <speed>0.0282842712474619</speed>
  <fix>3d</fix>
</trkpt>
<trkpt lat="40.072887" lon="-105.2301641">
  <ele>1583.0</ele>
  <time>2026-08-28T17:51:26Z</time>
  <course>1.03</course>
  <speed>0.0</speed>
  <fix>3d</fix>
</trkpt>
<trkpt lat="40.0728871" lon="-105.2301643">
  <ele>1583.0</ele>
  <time>2026-08-28T17:51:26Z</time>
  <course>0.0</course>
  <speed>0.0282842712474619</speed>
  <fix>3d</fix>
</trkpt>
<trkpt lat="40.072887" lon="-105.2301641">
  <ele>1583.0</ele>
  <time>2026-08-28T17:51:26Z</time>
  <course>1.07</course>
  <speed>0.0</speed>
  <fix>3d</fix>
</trkpt>
<trkpt lat="40.0728871" lon="-105.2301643">
  <ele>1583.0</ele>
  <time>2026-08-28T17:51:26Z</time>
  <course>0.0</course>
  <speed>0.0282842712474619</speed>
  <fix>3d</fix>
</trkpt>
<trkpt lat="40.072887" lon="-105.2301641">
  <ele>1583.0</ele>
  <time>2026-08-28T17:51:26Z</time>
  <course>1.07</course>
  <speed>0.0</speed>
  <fix>3d</fix>
</trkpt>
<trkpt lat="40.0728871" lon="-105.2301643">
  <ele>1583.01</ele>
  <time>2026-08-28T17:51:26Z</time>
  <course>0.0</course>
  <speed>0.0282842712474619</speed>
  <fix>3d</fix>
</trkpt>
<trkpt lat="40.072887" lon="-105.2301641">
  <ele>1583.0</ele>
  <time>2026-08-28T17:51:26Z</time>
  <course>1.12</course>
  <speed>0.0</speed>
  <fix>3d</fix>
</trkpt>
<trkpt lat="40.0728871" lon="-105.2301643">
  <ele>1583.01</ele>
  <time>2026-08-28T17:51:26Z</time>
  <course>0.0</course>
  <speed>0.0282842712474619</speed>
  <fix>3d</fix>
</trkpt>
<trkpt lat="40.072887" lon="-105.2301641">
  <ele>1583.0</ele>
  <time>2026-08-28T17:51:26Z</time>
  <course>1.12</course>
  <speed>0.0</speed>
  <fix>3d</fix>
</trkpt>
<trkpt lat="40.0728871" lon="-105.2301643">
  <ele>1583.01</ele>
  <time>2026-08-28T17:51:26Z</time>
  <course>0.0</course>
  <speed>0.0282842712474619</speed>
  <fix>3d</fix>
</trkpt>
<trkpt lat="40.072887" lon="-105.2301641">
  <ele>1583.0</ele>
  <time>2026-08-28T17:51:27Z</time>
  <course>1.16</course>
  <speed>0.0</speed>
  <fix>3d</fix>
</trkpt>
<trkpt lat="40.0728871" lon="-105.2301643">
  <ele>1583.01</ele>
  <time>2026-08-28T17:51:27Z</time>
  <course>0.0</course>
  <speed>0.0282842712474619</speed>
  <fix>3d</fix>
</trkpt>
<trkpt lat="40.072887" lon="-105.2301641">
  <ele>1583.0</ele>
  <time>2026-08-28T17:51:27Z</time>
  <course>1.16</course>
  <speed>0.0</speed>
  <fix>3d</fix>
</trkpt>
<trkpt lat="40.0728871" lon="-105.2301643">
  <ele>1583.02</ele>
  <time>2026-08-28T17:51:27Z</time>
  <course>0.0</course>
  <speed>0.0282842712474619</speed>
  <fix>3d</fix>
</trkpt>
<trkpt lat="40.072887" lon="-105.2301641">
  <ele>1583.0</ele>
  <time>2026-08-28T17:51:27Z</time>
  <course>1.22</course>
  <speed>0.0</speed>
  <fix>3d</fix>
</trkpt>
<trkpt lat="40.0728871" lon="-105.2301643">
  <ele>1583.02</ele>
  <time>2026-08-28T17:51:27Z</time>
  <course>0.0</course>
  <speed>0.0282842712474619</speed>
  <fix>3d</fix>
</trkpt>
<trkpt lat="40.072887" lon="-105.2301641">
  <ele>1583.0</ele>
  <time>2026-08-28T17:51:27Z</time>
  <course>1.22</course>
  <speed>0.0</speed>
  <fix>3d</fix>
</trkpt>
<trkpt lat="40.0728871" lon="-105.2301643">
  <ele>1583.03</ele>
  <time>2026-08-28T17:51:27Z</time>
  <course>0.0</course>
  <speed>0.0282842712474619</speed>
  <fix>3d</fix>
</trkpt>
<trkpt lat="40.072887" lon="-105.2301641">
  <ele>1583.0</ele>
  <time>2026-08-28T17:51:27Z</time>
  <course>1.27</course>
  <speed>0.0</speed>
  <fix>3d</fix>
</trkpt>
<trkpt lat="40.0728871" lon="-105.2301643">
  <ele>1583.03</ele>
  <time>2026-08-28T17:51:27Z</time>
  <course>0.0</course>
  <speed>0.0282842712474619</speed>
  <fix>3d</fix>
</trkpt>
<trkpt lat="40.072887" lon="-105.2301641">
  <ele>1583.0</ele>
  <time>2026-08-28T17:51:27Z</time>
  <course>1.27</course>
  <speed>0.0</speed>
  <fix>3d</fix>
</trkpt>
<trkpt lat="40.0728871" lon="-105.2301643">
  <ele>1583.04</ele>
  <time>2026-08-28T17:51:27Z</time>
  <course>0.0</course>
  <speed>0.0282842712474619</speed>
  <fix>3d</fix>
</trkpt>
<trkpt lat="40.072887" lon="-105.2301641">
  <ele>1583.0</ele>
  <time>2026-08-28T17:51:27Z</time>
  <course>1.34</course>
  <speed>0.0</speed>
  <fix>3d</fix>
</trkpt>
<trkpt lat="40.0728871" lon="-105.2301643">
  <ele>1583.04</ele>
  <time>2026-08-28T17:51:27Z</time>
  <course>0.0</course>
  <speed>0.0282842712474619</speed>
  <fix>3d</fix>
</trkpt>
<trkpt lat="40.072887" lon="-105.2301641">
  <ele>1583.0</ele>
  <time>2026-08-28T17:51:27Z</time>
  <course>1.34</course>
  <speed>0.0</speed>
  <fix>3d</fix>
</trkpt>
<trkpt lat="40.0728872" lon="-105.2301643">
  <ele>1583.04</ele>
  <time>2026-08-28T17:51:27Z</time>
  <course>359.99</course>
  <speed>0.0282842712474619</speed>
  <fix>3d</fix>
</trkpt>
<trkpt lat="40.072887" lon="-105.2301641">
  <ele>1583.0</ele>
  <time>2026-08-28T17:51:27Z</time>
  <course>1.41</course>
  <speed>0.0</speed>
  <fix>3d</fix>
</trkpt>
<trkpt lat="40.0728871" lon="-105.2301643">
  <ele>1583.04</ele>
  <time>2026-08-28T17:51:27Z</time>
  <course>359.99</course>
  <speed>0.0282842712474619</speed>
  <fix>3d</fix>
</trkpt>
<trkpt lat="40.072887" lon="-105.2301641">
  <ele>1583.0</ele>
  <time>2026-08-28T17:51:27Z</time>
  <course>1.41</course>
  <speed>0.0</speed>
  <fix>3d</fix>
</trkpt>
<trkpt lat="40.0728872" lon="-105.2301643">
  <ele>1583.03</ele>
  <time>2026-08-28T17:51:27Z</time>
  <course>359.99</course>
  <speed>0.0282842712474619</speed>
  <fix>3d</fix>
</trkpt>
<trkpt lat="40.072887" lon="-105.2301641">
  <ele>1583.0</ele>
  <time>2026-08-28T17:51:27Z</time>
  <course>1.49</course>
  <speed>0.0</speed>
  <fix>3d</fix>
</trkpt>
<trkpt lat="40.0728871" lon="-105.2301643">
  <ele>1583.03</ele>
  <time>2026-08-28T17:51:27Z</time>
  <course>359.99</course>
  <speed>0.0282842712474619</speed>
  <fix>3d</fix>
</trkpt>
<trkpt lat="40.072887" lon="-105.2301641">
  <ele>1583.0</ele>
  <time>2026-08-28T17:51:27Z</time>
  <course>1.49</course>
  <speed>0.0</speed>
  <fix>3d</fix>
</trkpt>
<trkpt lat="40.0728872" lon="-105.2301643">
  <ele>1583.02</ele>
  <time>2026-08-28T17:51:27Z</time>
  <course>359.99</course>
  <speed>0.0282842712474619</speed>
  <fix>3d</fix>
</trkpt>
<trkpt lat="40.072887" lon="-105.2301641">
  <ele>1583.0</ele>
  <time>2026-08-28T17:51:27Z</time>
  <course>1.58</course>
  <speed>0.0</speed>
  <fix>3d</fix>
</trkpt>
<trkpt lat="40.0728872" lon="-105.2301643">
  <ele>1583.02</ele>
  <time>2026-08-28T17:51:27Z</time>
  <course>359.98</course>
  <speed>0.0282842712474619</speed>
  <fix>3d</fix>
</trkpt>
<trkpt lat="40.072887" lon="-105.2301641">
  <ele>1583.0</ele>
  <time>2026-08-28T17:51:27Z</time>
  <course>1.58</course>
  <speed>0.0</speed>
  <fix>3d</fix>
</trkpt>
<trkpt lat="40.0728872" lon="-105.2301643">
  <ele>1583.01</ele>
  <time>2026-08-28T17:51:27Z</time>
  <course>359.98</course>
  <speed>0.0282842712474619</speed>
  <fix>3d</fix>
</trkpt>
<trkpt lat="40.072887" lon="-105.2301641">
  <ele>1583.0</ele>
  <time>2026-08-28T17:51:27Z</time>
  <course>1.67</course>
  <speed>0.0</speed>
  <fix>3d</fix>
</trkpt>
<trkpt lat="40.0728871" lon="-105.2301643">
  <ele>1583.01</ele>
  <time>2026-08-28T17:51:27Z</time>
  <course>359.98</course>
  <speed>0.0282842712474619</speed>
  <fix>3d</fix>
</trkpt>
<trkpt lat="40.072887" lon="-105.2301641">
  <ele>1583.0</ele>
  <time>2026-08-28T17:51:27Z</time>
  <course>1.67</course>
  <speed>0.0</speed>
  <fix>3d</fix>
</trkpt>
<trkpt lat="40.0728872" lon="-105.2301643">
  <ele>1583.0</ele>
  <time>2026-08-28T17:51:27Z</time>
  <course>359.98</course>
  <speed>0.0282842712474619</speed>
  <fix>3d</fix>
</trkpt>
<trkpt lat="40.072887" lon="-105.2301641">
  <ele>1583.0</ele>
  <time>2026-08-28T17:51:27Z</time>
  <course>1.78</course>
  <speed>0.0</speed>
  <fix>3d</fix>
</trkpt>
<trkpt lat="40.0728871" lon="-105.2301643">
  <ele>1583.0</ele>
  <time>2026-08-28T17:51:27Z</time>
  <course>359.98</course>
  <speed>0.0282842712474619</speed>
  <fix>3d</fix>
</trkpt>
<trkpt lat="40.072887" lon="-105.2301641">
  <ele>1583.0</ele>
  <time>2026-08-28T17:51:27Z</time>
  <course>1.78</course>
  <speed>0.0</speed>
  <fix>3d</fix>
</trkpt>
<trkpt lat="40.0728871" lon="-105.2301643">
  <ele>1583.0</ele>
  <time>2026-08-28T17:51:27Z</time>
  <course>359.97</course>
  <speed>0.0282842712474619</speed>
  <fix>3d</fix>
</trkpt>
<trkpt lat="40.072887" lon="-105.2301641">
  <ele>1583.0</ele>
  <time>2026-08-28T17:51:27Z</time>
  <course>1.9</course>
  <speed>0.0</speed>
  <fix>3d</fix>
</trkpt>
<trkpt lat="40.0728871" lon="-105.2301643">
  <ele>1583.01</ele>
  <time>2026-08-28T17:51:27Z</time>
  <course>359.97</course>
  <speed>0.0282842712474619</speed>
  <fix>3d</fix>
</trkpt>
<trkpt lat="40.072887" lon="-105.2301641">
  <ele>1583.0</ele>
  <time>2026-08-28T17:51:27Z</time>
  <course>1.9</course>
  <speed>0.0</speed>
  <fix>3d</fix>
</trkpt>
<trkpt lat="40.0728871" lon="-105.2301643">
  <ele>1583.01</ele>
  <time>2026-08-28T17:51:27Z</time>
  <course>359.97</course>
  <speed>0.0282842712474619</speed>
  <fix>3d</fix>
</trkpt>
<trkpt lat="40.072887" lon="-105.2301641">
  <ele>1583.0</ele>
  <time>2026-08-28T17:51:27Z</time>
  <course>2.03</course>
  <speed>0.0</speed>
  <fix>3d</fix>
</trkpt>
<trkpt lat="40.0728871" lon="-105.2301643">
  <ele>1583.02</ele>
  <time>2026-08-28T17:51:27Z</time>
  <course>359.97</course>
  <speed>0.0282842712474619</speed>
  <fix>3d</fix>
</trkpt>
<trkpt lat="40.072887" lon="-105.2301641">
  <ele>1583.0</ele>
  <time>2026-08-28T17:51:27Z</time>
  <course>2.03</course>
  <speed>0.0</speed>
  <fix>3d</fix>
</trkpt>
<trkpt lat="40.0728871" lon="-105.2301643">
  <ele>1583.03</ele>
  <time>2026-08-28T17:51:27Z</time>
  <course>359.97</course>
  <speed>0.0282842712474619</speed>
  <fix>3d</fix>
</trkpt>
<trkpt lat="40.072887" lon="-105.2301641">
  <ele>1583.0</ele>
  <time>2026-08-28T17:51:27Z</time>
  <course>2.17</course>
  <speed>0.0</speed>
  <fix>3d</fix>
</trkpt>
<trkpt lat="40.0728871" lon="-105.2301643">
  <ele>1583.04</ele>
  <time>2026-08-28T17:51:27Z</time>
  <course>359.96</course>
  <speed>0.0282842712474619</speed>
  <fix>3d</fix>
</trkpt>
<trkpt lat="40.072887" lon="-105.2301641">
  <ele>1583.0</ele>
  <time>2026-08-28T17:51:27Z</time>
  <course>2.17</course>
  <speed>0.0</speed>
  <fix>3d</fix>
</trkpt>
<trkpt lat="40.0728871" lon="-105.2301643">
  <ele>1583.04</ele>
  <time>2026-08-28T17:51:27Z</time>
  <course>359.96</course>
  <speed>0.0282842712474619</speed>
  <fix>3d</fix>
</trkpt>
<trkpt lat="40.072887" lon="-105.2301641">
  <ele>1583.0</ele>
  <time>2026-08-28T17:51:27Z</time>
  <course>2.33</course>
  <speed>0.0</speed>
  <fix>3d</fix>
</trkpt>
<trkpt lat="40.0728871" lon="-105.2301643">
  <ele>1583.05</ele>
  <time>2026-08-28T17:51:27Z</time>
  <course>359.96</course>
  <speed>0.022360679774997897</speed>
  <fix>3d</fix>
</trkpt>
<trkpt lat="40.072887" lon="-105.2301641">
  <ele>1583.0</ele>
  <time>2026-08-28T17:51:27Z</time>
  <course>2.33</course>
  <speed>0.0</speed>
  <fix>3d</fix>
</trkpt>
<trkpt lat="40.0728871" lon="-105.2301643">
  <ele>1583.05</ele>
  <time>2026-08-28T17:51:27Z</time>
  <course>359.96</course>
  <speed>0.022360679774997897</speed>
  <fix>3d</fix>
</trkpt>
<trkpt lat="40.072887" lon="-105.2301641">
  <ele>1583.0</ele>
  <time>2026-08-28T17:51:27Z</time>
  <course>2.51</course>
  <speed>0.0</speed>
  <fix>3d</fix>
</trkpt>
<trkpt lat="40.0728871" lon="-105.2301643">
  <ele>1583.05</ele>
  <time>2026-08-28T17:51:27Z</time>
  <course>359.96</course>
  <speed>0.022360679774997897</speed>
  <fix>3d</fix>
</trkpt>
<trkpt lat="40.072887" lon="-105.2301641">
  <ele>1583.0</ele>
  <time>2026-08-28T17:51:27Z</time>
  <course>2.51</course>
  <speed>0.0</speed>
  <fix>3d</fix>
</trkpt>
<trkpt lat="40.0728871" lon="-105.2301643">
  <ele>1583.05</ele>
  <time>2026-08-28T17:51:27Z</time>
  <course>359.96</course>
  <speed>0.022360679774997897</speed>
  <fix>3d</fix>
</trkpt>
<trkpt lat="40.072887" lon="-105.2301641">
  <ele>1583.0</ele>
  <time>2026-08-28T17:51:27Z</time>
  <course>2.7</course>
  <speed>0.0</speed>
  <fix>3d</fix>
</trkpt>
<trkpt lat="40.0728871" lon="-105.2301643">
  <ele>1583.05</ele>
  <time>2026-08-28T17:51:27Z</time>
  <course>359.95</course>
  <speed>0.022360679774997897</speed>
  <fix>3d</fix>
</trkpt>
<trkpt lat="40.072887" lon="-105.2301641">
  <ele>1583.0</ele>
  <time>2026-08-28T17:51:27Z</time>
  <course>2.7</course>
  <speed>0.0</speed>
  <fix>3d</fix>
</trkpt>
<trkpt lat="40.0728871" lon="-105.2301643">
  <ele>1583.04</ele>
  <time>2026-08-28T17:51:27Z</time>
  <course>359.95</course>
  <speed>0.022360679774997897</speed>
  <fix>3d</fix>
</trkpt>
<trkpt lat="40.072887" lon="-105.2301641">
  <ele>1583.0</ele>
  <time>2026-08-28T17:51:27Z</time>
  <course>2.92</course>
  <speed>0.0</speed>
  <fix>3d</fix>
</trkpt>
<trkpt lat="40.0728871" lon="-105.2301643">
  <ele>1583.04</ele>
  <time>2026-08-28T17:51:27Z</time>
  <course>359.95</course>
  <speed>0.022360679774997897</speed>
  <fix>3d</fix>
</trkpt>
<trkpt lat="40.072887" lon="-105.2301641">
  <ele>1583.0</ele>
  <time>2026-08-28T17:51:27Z</time>
  <course>2.92</course>
  <speed>0.0</speed>
  <fix>3d</fix>
</trkpt>
<trkpt lat="40.0728871" lon="-105.2301643">
  <ele>1583.03</ele>
  <time>2026-08-28T17:51:27Z</time>
  <course>359.95</course>
  <speed>0.022360679774997897</speed>
  <fix>3d</fix>
</trkpt>
<trkpt lat="40.072887" lon="-105.2301641">
  <ele>1583.0</ele>
  <time>2026-08-28T17:51:27Z</time>
  <course>3.15</course>
  <speed>0.0</speed>
  <fix>3d</fix>
</trkpt>
<trkpt lat="40.0728871" lon="-105.2301643">
  <ele>1583.03</ele>
  <time>2026-08-28T17:51:27Z</time>
  <course>359.95</course>
  <speed>0.022360679774997897</speed>
  <fix>3d</fix>
</trkpt>
<trkpt lat="40.072887" lon="-105.2301641">
  <ele>1583.0</ele>
  <time>2026-08-28T17:51:27Z</time>
  <course>3.15</course>
  <speed>0.0</speed>
  <fix>3d</fix>
</trkpt>
<trkpt lat="40.0728871" lon="-105.2301643">
  <ele>1583.02</ele>
  <time>2026-08-28T17:51:27Z</time>
  <course>359.94</course>
  <speed>0.022360679774997897</speed>
  <fix>3d</fix>
</trkpt>
<trkpt lat="40.072887" lon="-105.2301641">
  <ele>1583.0</ele>
  <time>2026-08-28T17:51:27Z</time>
  <course>3.42</course>
  <speed>0.0</speed>
  <fix>3d</fix>
</trkpt>
<trkpt lat="40.0728871" lon="-105.2301643">
  <ele>1583.02</ele>
  <time>2026-08-28T17:51:27Z</time>
  <course>359.94</course>
  <speed>0.022360679774997897</speed>
  <fix>3d</fix>
</trkpt>
<trkpt lat="40.072887" lon="-105.2301641">
  <ele>1583.0</ele>
  <time>2026-08-28T17:51:27Z</time>
  <course>3.42</course>
  <speed>0.0</speed>
  <fix>3d</fix>
</trkpt>
<trkpt lat="40.0728871" lon="-105.2301643">
  <ele>1583.01</ele>
  <time>2026-08-28T17:51:27Z</time>
  <course>359.94</course>
  <speed>0.022360679774997897</speed>
  <fix>3d</fix>
</trkpt>
<trkpt lat="40.072887" lon="-105.2301641">
  <ele>1583.0</ele>
  <time>2026-08-28T17:51:27Z</time>
  <course>3.71</course>
  <speed>0.0</speed>
  <fix>3d</fix>
</trkpt>
<trkpt lat="40.0728871" lon="-105.2301643">
  <ele>1583.01</ele>
  <time>2026-08-28T17:51:27Z</time>
  <course>359.94</course>
  <speed>0.022360679774997897</speed>
  <fix>3d</fix>
</trkpt>
<trkpt lat="40.072887" lon="-105.2301641">
  <ele>1583.0</ele>
  <time>2026-08-28T17:51:27Z</time>
  <course>3.71</course>
  <speed>0.0</speed>
  <fix>3d</fix>
</trkpt>
<trkpt lat="40.0728871" lon="-105.2301643">
  <ele>1583.01</ele>
  <time>2026-08-28T17:51:27Z</time>
  <course>359.94</course>
  <speed>0.022360679774997897</speed>
  <fix>3d</fix>
</trkpt>
<trkpt lat="40.072887" lon="-105.2301641">
  <ele>1583.0</ele>
  <time>2026-08-28T17:51:27Z</time>
  <course>4.03</course>
  <speed>0.0</speed>
  <fix>3d</fix>
</trkpt>
<trkpt lat="40.0728871" lon="-105.2301643">
  <ele>1583.01</ele>
  <time>2026-08-28T17:51:27Z</time>
  <course>359.93</course>
  <speed>0.022360679774997897</speed>
  <fix>3d</fix>
</trkpt>
<trkpt lat="40.072887" lon="-105.2301641">
  <ele>1583.0</ele>
  <time>2026-08-28T17:51:27Z</time>
  <course>4.03</course>
  <speed>0.0</speed>
  <fix>3d</fix>
</trkpt>
<trkpt lat="40.0728871" lon="-105.2301643">
  <ele>1583.01</ele>
  <time>2026-08-28T17:51:27Z</time>
  <course>359.93</course>
  <speed>0.022360679774997897</speed>
  <fix>3d</fix>
</trkpt>
<trkpt lat="40.072887" lon="-105.2301641">
  <ele>1583.0</ele>
  <time>2026-08-28T17:51:27Z</time>
  <course>4.38</course>
  <speed>0.0</speed>
  <fix>3d</fix>
</trkpt>
<trkpt lat="40.0728871" lon="-105.2301643">
  <ele>1583.01</ele>
  <time>2026-08-28T17:51:27Z</time>
  <course>359.93</course>
  <speed>0.022360679774997897</speed>
  <fix>3d</fix>
</trkpt>
<trkpt lat="40.072887" lon="-105.2301641">
  <ele>1583.0</ele>
  <time>2026-08-28T17:51:27Z</time>
  <course>4.38</course>
  <speed>0.0</speed>
  <fix>3d</fix>
</trkpt>
<trkpt lat="40.0728871" lon="-105.2301643">
  <ele>1583.02</ele>
  <time>2026-08-28T17:51:27Z</time>
  <course>359.93</course>
  <speed>0.022360679774997897</speed>
  <fix>3d</fix>
</trkpt>
<trkpt lat="40.072887" lon="-105.2301641">
  <ele>1583.0</ele>
  <time>2026-08-28T17:51:27Z</time>
  <course>4.77</course>
  <speed>0.0</speed>
  <fix>3d</fix>
</trkpt>
<trkpt lat="40.0728871" lon="-105.2301643">
  <ele>1583.02</ele>
  <time>2026-08-28T17:51:27Z</time>
  <course>359.93</course>
  <speed>0.022360679774997897</speed>
  <fix>3d</fix>
</trkpt>
<trkpt lat="40.072887" lon="-105.2301641">
  <ele>1583.0</ele>
  <time>2026-08-28T17:51:27Z</time>
  <course>4.77</course>
  <speed>0.0</speed>
  <fix>3d</fix>
</trkpt>
<trkpt lat="40.0728871" lon="-105.2301643">
  <ele>1583.03</ele>
  <time>2026-08-28T17:51:27Z</time>
  <course>359.92</course>
  <speed>0.022360679774997897</speed>
  <fix>3d</fix>
</trkpt>
<trkpt lat="40.072887" lon="-105.2301641">
  <ele>1583.0</ele>
  <time>2026-08-28T17:51:27Z</time>
  <course>5.2</course>
  <speed>0.0</speed>
  <fix>3d</fix>
</trkpt>
<trkpt lat="40.0728871" lon="-105.2301643">
  <ele>1583.04</ele>
  <time>2026-08-28T17:51:27Z</time>
  <course>359.92</course>
  <speed>0.022360679774997897</speed>
  <fix>3d</fix>
</trkpt>
<trkpt lat="40.072887" lon="-105.2301641">
  <ele>1583.0</ele>
  <time>2026-08-28T17:51:27Z</time>
  <course>5.2</course>
  <speed>0.0</speed>
  <fix>3d</fix>
</trkpt>
<trkpt lat="40.0728871" lon="-105.2301643">
  <ele>1583.04</ele>
  <time>2026-08-28T17:51:27Z</time>
  <course>359.92</course>
  <speed>0.022360679774997897</speed>
  <fix>3d</fix>
</trkpt>
<trkpt lat="40.072887" lon="-105.2301641">
  <ele>1583.0</ele>
  <time>2026-08-28T17:51:27Z</time>
  <course>5.67</course>
  <speed>0.0</speed>
  <fix>3d</fix>
</trkpt>
<trkpt lat="40.0728871" lon="-105.2301643">
  <ele>1583.04</ele>
  <time>2026-08-28T17:51:27Z</time>
  <course>359.92</course>
  <speed>0.022360679774997897</speed>
  <fix>3d</fix>
</trkpt>
<trkpt lat="40.072887" lon="-105.2301641">
  <ele>1583.0</ele>
  <time>2026-08-28T17:51:27Z</time>
  <course>5.67</course>
  <speed>0.0</speed>
  <fix>3d</fix>
</trkpt>
<trkpt lat="40.0728871" lon="-105.2301643">
  <ele>1583.05</ele>
  <time>2026-08-28T17:51:27Z</time>
  <course>359.92</course>
  <speed>0.022360679774997897</speed>
  <fix>3d</fix>
</trkpt>
<trkpt lat="40.072887" lon="-105.2301641">
  <ele>1583.0</ele>
  <time>2026-08-28T17:51:27Z</time>
  <course>6.2</course>
  <speed>0.0</speed>
  <fix>3d</fix>
</trkpt>
<trkpt lat="40.0728871" lon="-105.2301643">
  <ele>1583.05</ele>
  <time>2026-08-28T17:51:27Z</time>
  <course>359.91</course>
  <speed>0.022360679774997897</speed>
  <fix>3d</fix>
</trkpt>
<trkpt lat="40.072887" lon="-105.2301641">
  <ele>1583.0</ele>
  <time>2026-08-28T17:51:27Z</time>
  <course>6.2</course>
  <speed>0.0</speed>
  <fix>3d</fix>
</trkpt>
<trkpt lat="40.0728871" lon="-105.2301643">
  <ele>1583.05</ele>
  <time>2026-08-28T17:51:27Z</time>
  <course>359.91</course>
  <speed>0.022360679774997897</speed>
  <fix>3d</fix>
</trkpt>
<trkpt lat="40.072887" lon="-105.2301641">
  <ele>1583.0</ele>
  <time>2026-08-28T17:51:27Z</time>
  <course>6.78</course>
  <speed>0.0</speed>
  <fix>3d</fix>
</trkpt>
<trkpt lat="40.0728871" lon="-105.2301643">
  <ele>1583.05</ele>
  <time>2026-08-28T17:51:27Z</time>
  <course>359.91</course>
  <speed>0.022360679774997897</speed>
  <fix>3d</fix>
</trkpt>
<trkpt lat="40.072887" lon="-105.2301641">
  <ele>1583.0</ele>
  <time>2026-08-28T17:51:27Z</time>
  <course>6.78</course>
  <speed>0.0</speed>
  <fix>3d</fix>
</trkpt>
<trkpt lat="40.0728871" lon="-105.2301643">
  <ele>1583.05</ele>
  <time>2026-08-28T17:51:27Z</time>
  <course>359.91</course>
  <speed>0.022360679774997897</speed>
  <fix>3d</fix>
</trkpt>
<trkpt lat="40.072887" lon="-105.2301641">
  <ele>1583.0</ele>
  <time>2026-08-28T17:51:27Z</time>
  <course>7.41</course>
  <speed>0.0</speed>
  <fix>3d</fix>
</trkpt>
<trkpt lat="40.0728871" lon="-105.2301643">
  <ele>1583.05</ele>
  <time>2026-08-28T17:51:27Z</time>
  <course>359.91</course>
  <speed>0.022360679774997897</speed>
  <fix>3d</fix>
</trkpt>
<trkpt lat="40.072887" lon="-105.2301641">
  <ele>1583.0</ele>
  <time>2026-08-28T17:51:27Z</time>
  <course>7.41</course>
  <speed>0.0</speed>
  <fix>3d</fix>
</trkpt>
<trkpt lat="40.0728871" lon="-105.2301643">
  <ele>1583.04</ele>
  <time>2026-08-28T17:51:27Z</time>
  <course>359.9</course>
  <speed>0.022360679774997897</speed>
  <fix>3d</fix>
</trkpt>
<trkpt lat="40.072887" lon="-105.2301641">
  <ele>1583.0</ele>
  <time>2026-08-28T17:51:27Z</time>
  <course>8.12</course>
  <speed>0.0</speed>
  <fix>3d</fix>
</trkpt>
<trkpt lat="40.0728871" lon="-105.2301643">
  <ele>1583.04</ele>
  <time>2026-08-28T17:51:27Z</time>
  <course>359.9</course>
  <speed>0.022360679774997897</speed>
  <fix>3d</fix>
</trkpt>
<trkpt lat="40.072887" lon="-105.2301641">
  <ele>1583.0</ele>
  <time>2026-08-28T17:51:27Z</time>
  <course>8.12</course>
  <speed>0.0</speed>
  <fix>3d</fix>
</trkpt>
<trkpt lat="40.0728871" lon="-105.2301643">
  <ele>1583.04</ele>
  <time>2026-08-28T17:51:27Z</time>
  <course>359.9</course>
  <speed>0.022360679774997897</speed>
  <fix>3d</fix>
</trkpt>
<trkpt lat="40.072887" lon="-105.2301641">
  <ele>1583.0</ele>
  <time>2026-08-28T17:51:27Z</time>
  <course>8.89</course>
  <speed>0.0</speed>
  <fix>3d</fix>
</trkpt>
<trkpt lat="40.0728871" lon="-105.2301643">
  <ele>1583.04</ele>
  <time>2026-08-28T17:51:27Z</time>
  <course>359.9</course>
  <speed>0.022360679774997897</speed>
  <fix>3d</fix>
</trkpt>
<trkpt lat="40.072887" lon="-105.2301641">
  <ele>1583.0</ele>
  <time>2026-08-28T17:51:27Z</time>
  <course>8.89</course>
  <speed>0.0</speed>
  <fix>3d</fix>
</trkpt>
<trkpt lat="40.0728871" lon="-105.2301643">
  <ele>1583.03</ele>
  <time>2026-08-28T17:51:27Z</time>
  <course>359.9</course>
  <speed>0.022360679774997897</speed>
  <fix>3d</fix>
</trkpt>
<trkpt lat="40.072887" lon="-105.2301641">
  <ele>1583.0</ele>
  <time>2026-08-28T17:51:27Z</time>
  <course>9.74</course>
  <speed>0.0</speed>
  <fix>3d</fix>
</trkpt>
<trkpt lat="40.0728871" lon="-105.2301643">
  <ele>1583.03</ele>
  <time>2026-08-28T17:51:27Z</time>
  <course>359.89</course>
  <speed>0.022360679774997897</speed>
  <fix>3d</fix>
</trkpt>
<trkpt lat="40.072887" lon="-105.2301641">
  <ele>1583.0</ele>
  <time>2026-08-28T17:51:27Z</time>
  <course>9.74</course>
  <speed>0.0</speed>
  <fix>3d</fix>
</trkpt>
<trkpt lat="40.0728871" lon="-105.2301643">
  <ele>1583.03</ele>
  <time>2026-08-28T17:51:27Z</time>
  <course>359.89</course>
  <speed>0.022360679774997897</speed>
  <fix>3d</fix>
</trkpt>
<trkpt lat="40.072887" lon="-105.2301641">
  <ele>1583.0</ele>
  <time>2026-08-28T17:51:27Z</time>
  <course>10.68</course>
  <speed>0.0</speed>
  <fix>3d</fix>
</trkpt>
<trkpt lat="40.0728871" lon="-105.2301643">
  <ele>1583.03</ele>
  <time>2026-08-28T17:51:27Z</time>
  <course>359.89</course>
  <speed>0.022360679774997897</speed>
  <fix>3d</fix>
</trkpt>
<trkpt lat="40.072887" lon="-105.2301641">
  <ele>1583.0</ele>
  <time>2026-08-28T17:51:27Z</time>
  <course>10.68</course>
  <speed>0.0</speed>
  <fix>3d</fix>
</trkpt>
<trkpt lat="40.0728871" lon="-105.2301643">
  <ele>1583.03</ele>
  <time>2026-08-28T17:51:27Z</time>
  <course>359.89</course>
  <speed>0.022360679774997897</speed>
  <fix>3d</fix>
</trkpt>
<trkpt lat="40.072887" lon="-105.2301641">
  <ele>1583.0</ele>
  <time>2026-08-28T17:51:27Z</time>
  <course>11.71</course>
  <speed>0.0</speed>
  <fix>3d</fix>
</trkpt>
<trkpt lat="40.0728871" lon="-105.2301643">
  <ele>1583.02</ele>
  <time>2026-08-28T17:51:27Z</time>
  <course>359.89</course>
  <speed>0.022360679774997897</speed>
  <fix>3d</fix>
</trkpt>
<trkpt lat="40.072887" lon="-105.2301641">
  <ele>1583.0</ele>
  <time>2026-08-28T17:51:27Z</time>
  <course>11.71</course>
  <speed>0.0</speed>
  <fix>3d</fix>
</trkpt>
<trkpt lat="40.0728871" lon="-105.2301643">
  <ele>1583.02</ele>
  <time>2026-08-28T17:51:27Z</time>
  <course>359.88</course>
  <speed>0.022360679774997897</speed>
  <fix>3d</fix>
</trkpt>
<trkpt lat="40.072887" lon="-105.2301641">
  <ele>1583.0</ele>
  <time>2026-08-28T17:51:27Z</time>
  <course>12.84</course>
  <speed>0.0</speed>
  <fix>3d</fix>
</trkpt>
<trkpt lat="40.0728871" lon="-105.2301643">
  <ele>1583.02</ele>
  <time>2026-08-28T17:51:27Z</time>
  <course>359.88</course>
  <speed>0.022360679774997897</speed>
  <fix>3d</fix>
</trkpt>
<trkpt lat="40.072887" lon="-105.2301641">
  <ele>1583.0</ele>
  <time>2026-08-28T17:51:27Z</time>
  <course>12.84</course>
  <speed>0.0</speed>
  <fix>3d</fix>
</trkpt>
<trkpt lat="40.0728871" lon="-105.2301643">
  <ele>1583.01</ele>
  <time>2026-08-28T17:51:27Z</time>
  <course>359.88</course>
  <speed>0.022360679774997897</speed>
  <fix>3d</fix>
</trkpt>
<trkpt lat="40.072887" lon="-105.2301641">
  <ele>1583.0</ele>
  <time>2026-08-28T17:51:27Z</time>
  <course>14.08</course>
  <speed>0.0</speed>
  <fix>3d</fix>
</trkpt>
<trkpt lat="40.0728871" lon="-105.2301643">
  <ele>1583.02</ele>
  <time>2026-08-28T17:51:27Z</time>
  <course>359.88</course>
  <speed>0.022360679774997897</speed>
  <fix>3d</fix>
</trkpt>
<trkpt lat="40.072887" lon="-105.2301641">
  <ele>1583.0</ele>
  <time>2026-08-28T17:51:27Z</time>
  <course>14.08</course>
  <speed>0.0</speed>
  <fix>3d</fix>
</trkpt>
<trkpt lat="40.0728871" lon="-105.2301643">
  <ele>1583.02</ele>
  <time>2026-08-28T17:51:27Z</time>
  <course>359.88</course>
  <speed>0.022360679774997897</speed>
  <fix>3d</fix>
</trkpt>
<trkpt lat="40.072887" lon="-105.2301641">
  <ele>1583.0</ele>
  <time>2026-08-28T17:51:27Z</time>
  <course>15.43</course>
  <speed>0.0</speed>
  <fix>3d</fix>
</trkpt>
<trkpt lat="40.0728871" lon="-105.2301643">
  <ele>1583.02</ele>
  <time>2026-08-28T17:51:27Z</time>
  <course>359.87</course>
  <speed>0.022360679774997897</speed>
  <fix>3d</fix>
</trkpt>
<trkpt lat="40.072887" lon="-105.2301641">
  <ele>1583.0</ele>
  <time>2026-08-28T17:51:27Z</time>
  <course>15.43</course>
  <speed>0.0</speed>
  <fix>3d</fix>
</trkpt>
<trkpt lat="40.0728871" lon="-105.2301643">
  <ele>1583.03</ele>
  <time>2026-08-28T17:51:27Z</time>
  <course>359.87</course>
  <speed>0.022360679774997897</speed>
  <fix>3d</fix>
</trkpt>
<trkpt lat="40.072887" lon="-105.2301641">
  <ele>1583.0</ele>
  <time>2026-08-28T17:51:27Z</time>
  <course>16.9</course>
  <speed>0.0</speed>
  <fix>3d</fix>
</trkpt>
<trkpt lat="40.0728871" lon="-105.2301643">
  <ele>1583.03</ele>
  <time>2026-08-28T17:51:27Z</time>
  <course>359.87</course>
  <speed>0.022360679774997897</speed>
  <fix>3d</fix>
</trkpt>
<trkpt lat="40.072887" lon="-105.2301641">
  <ele>1583.0</ele>
  <time>2026-08-28T17:51:27Z</time>
  <course>16.9</course>
  <speed>0.0</speed>
  <fix>3d</fix>
</trkpt>
<trkpt lat="40.0728871" lon="-105.2301643">
  <ele>1583.04</ele>
  <time>2026-08-28T17:51:27Z</time>
  <course>359.87</course>
  <speed>0.022360679774997897</speed>
  <fix>3d</fix>
</trkpt>
<trkpt lat="40.072887" lon="-105.2301641">
  <ele>1583.0</ele>
  <time>2026-08-28T17:51:27Z</time>
  <course>18.51</course>
  <speed>0.0</speed>
  <fix>3d</fix>
</trkpt>
<trkpt lat="40.0728871" lon="-105.2301643">
  <ele>1583.04</ele>
  <time>2026-08-28T17:51:27Z</time>
  <course>359.87</course>
  <speed>0.022360679774997897</speed>
  <fix>3d</fix>
</trkpt>
<trkpt lat="40.072887" lon="-105.2301641">
  <ele>1583.0</ele>
  <time>2026-08-28T17:51:27Z</time>
  <course>18.51</course>
  <speed>0.0</speed>
  <fix>3d</fix>
</trkpt>
<trkpt lat="40.0728871" lon="-105.2301643">
  <ele>1583.05</ele>
  <time>2026-08-28T17:51:27Z</time>
  <course>359.86</course>
  <speed>0.022360679774997897</speed>
  <fix>3d</fix>
</trkpt>
<trkpt lat="40.072887" lon="-105.2301641">
  <ele>1583.0</ele>
  <time>2026-08-28T17:51:27Z</time>
  <course>20.25</course>
  <speed>0.0</speed>
  <fix>3d</fix>
</trkpt>
<trkpt lat="40.0728871" lon="-105.2301643">
  <ele>1583.05</ele>
  <time>2026-08-28T17:51:27Z</time>
  <course>359.86</course>
  <speed>0.022360679774997897</speed>
  <fix>3d</fix>
</trkpt>
<trkpt lat="40.072887" lon="-105.2301641">
  <ele>1583.0</ele>
  <time>2026-08-28T17:51:27Z</time>
  <course>20.25</course>
  <speed>0.0</speed>
  <fix>3d</fix>
</trkpt>
<trkpt lat="40.0728871" lon="-105.2301643">
  <ele>1583.05</ele>
  <time>2026-08-28T17:51:27Z</time>
  <course>359.86</course>
  <speed>0.022360679774997897</speed>
  <fix>3d</fix>
</trkpt>
<trkpt lat="40.072887" lon="-105.2301641">
  <ele>1583.0</ele>
  <time>2026-08-28T17:51:27Z</time>
  <course>22.13</course>
  <speed>0.0</speed>
  <fix>3d</fix>
</trkpt>
<trkpt lat="40.0728871" lon="-105.2301643">
  <ele>1583.05</ele>
  <time>2026-08-28T17:51:27Z</time>
  <course>359.86</course>
  <speed>0.022360679774997897</speed>
  <fix>3d</fix>
</trkpt>
<trkpt lat="40.072887" lon="-105.2301641">
  <ele>1583.0</ele>
  <time>2026-08-28T17:51:27Z</time>
  <course>22.13</course>
  <speed>0.0</speed>
  <fix>3d</fix>
</trkpt>
<trkpt lat="40.0728871" lon="-105.2301643">
  <ele>1583.05</ele>
  <time>2026-08-28T17:51:27Z</time>
  <course>359.86</course>
  <speed>0.022360679774997897</speed>
  <fix>3d</fix>
</trkpt>
<trkpt lat="40.072887" lon="-105.2301641">
  <ele>1583.0</ele>
  <time>2026-08-28T17:51:27Z</time>
  <course>24.16</course>
  <speed>0.0</speed>
  <fix>3d</fix>
</trkpt>
<trkpt lat="40.0728871" lon="-105.2301643">
  <ele>1583.05</ele>
  <time>2026-08-28T17:51:27Z</time>
  <course>359.86</course>
  <speed>0.022360679774997897</speed>
  <fix>3d</fix>
</trkpt>
<trkpt lat="40.072887" lon="-105.2301641">
  <ele>1583.0</ele>
  <time>2026-08-28T17:51:27Z</time>
  <course>24.16</course>
  <speed>0.0</speed>
  <fix>3d</fix>
</trkpt>
<trkpt lat="40.0728871" lon="-105.2301643">
  <ele>1583.05</ele>
  <time>2026-08-28T17:51:27Z</time>
  <course>359.85</course>
  <speed>0.022360679774997897</speed>
  <fix>3d</fix>
</trkpt>
<trkpt lat="40.072887" lon="-105.2301641">
  <ele>1583.0</ele>
  <time>2026-08-28T17:51:27Z</time>
  <course>26.32</course>
  <speed>0.0</speed>
  <fix>3d</fix>
</trkpt>
<trkpt lat="40.0728871" lon="-105.2301643">
  <ele>1583.05</ele>
  <time>2026-08-28T17:51:27Z</time>
  <course>359.85</course>
  <speed>0.022360679774997897</speed>
  <fix>3d</fix>
</trkpt>
<trkpt lat="40.072887" lon="-105.2301641">
  <ele>1583.0</ele>
  <time>2026-08-28T17:51:27Z</time>
  <course>26.32</course>
  <speed>0.0</speed>
  <fix>3d</fix>
</trkpt>
<trkpt lat="40.0728871" lon="-105.2301643">
  <ele>1583.06</ele>
  <time>2026-08-28T17:51:27Z</time>
  <course>359.85</course>
  <speed>0.022360679774997897</speed>
  <fix>3d</fix>
</trkpt>
<trkpt lat="40.072887" lon="-105.2301641">
  <ele>1583.0</ele>
  <time>2026-08-28T17:51:27Z</time>
  <course>28.63</course>
  <speed>0.0</speed>
  <fix>3d</fix>
</trkpt>
<trkpt lat="40.0728871" lon="-105.2301643">
  <ele>1583.07</ele>
  <time>2026-08-28T17:51:27Z</time>
  <course>359.85</course>
  <speed>0.022360679774997897</speed>
  <fix>3d</fix>
</trkpt>
<trkpt lat="40.072887" lon="-105.2301641">
  <ele>1583.0</ele>
  <time>2026-08-28T17:51:27Z</time>
  <course>28.63</course>
  <speed>0.0</speed>
  <fix>3d</fix>
</trkpt>
<trkpt lat="40.0728871" lon="-105.2301643">
  <ele>1583.07</ele>
  <time>2026-08-28T17:51:27Z</time>
  <course>359.85</course>
  <speed>0.022360679774997897</speed>
  <fix>3d</fix>
</trkpt>
<trkpt lat="40.072887" lon="-105.2301641">
  <ele>1583.0</ele>
  <time>2026-08-28T17:51:27Z</time>
  <course>31.07</course>
  <speed>0.0</speed>
  <fix>3d</fix>
</trkpt>
<trkpt lat="40.0728871" lon="-105.2301643">
  <ele>1583.07</ele>
  <time>2026-08-28T17:51:27Z</time>
  <course>359.85</course>
  <speed>0.022360679774997897</speed>
  <fix>3d</fix>
</trkpt>
<trkpt lat="40.072887" lon="-105.2301641">
  <ele>1583.0</ele>
  <time>2026-08-28T17:51:27Z</time>
  <course>31.07</course>
  <speed>0.0</speed>
  <fix>3d</fix>
</trkpt>
<trkpt lat="40.0728871" lon="-105.2301643">
  <ele>1583.08</ele>
  <time>2026-08-28T17:51:27Z</time>
  <course>359.84</course>
  <speed>0.022360679774997897</speed>
  <fix>3d</fix>
</trkpt>
<trkpt lat="40.072887" lon="-105.2301641">
  <ele>1583.0</ele>
  <time>2026-08-28T17:51:27Z</time>
  <course>33.63</course>
  <speed>0.0</speed>
  <fix>3d</fix>
</trkpt>
<trkpt lat="40.0728871" lon="-105.2301643">
  <ele>1583.08</ele>
  <time>2026-08-28T17:51:27Z</time>
  <course>359.84</course>
  <speed>0.022360679774997897</speed>
  <fix>3d</fix>
</trkpt>
<trkpt lat="40.072887" lon="-105.2301641">
  <ele>1583.0</ele>
  <time>2026-08-28T17:51:27Z</time>
  <course>33.63</course>
  <speed>0.0</speed>
  <fix>3d</fix>
</trkpt>
<trkpt lat="40.0728871" lon="-105.2301643">
  <ele>1583.09</ele>
  <time>2026-08-28T17:51:27Z</time>
  <course>359.84</course>
  <speed>0.022360679774997897</speed>
  <fix>3d</fix>
</trkpt>
<trkpt lat="40.072887" lon="-105.2301641">
  <ele>1583.0</ele>
  <time>2026-08-28T17:51:27Z</time>
  <course>36.29</course>
  <speed>0.0</speed>
  <fix>3d</fix>
</trkpt>
<trkpt lat="40.0728871" lon="-105.2301643">
  <ele>1583.1</ele>
  <time>2026-08-28T17:51:27Z</time>
  <course>359.84</course>
  <speed>0.022360679774997897</speed>
  <fix>3d</fix>
</trkpt>
<trkpt lat="40.072887" lon="-105.2301641">
  <ele>1583.0</ele>
  <time>2026-08-28T17:51:27Z</time>
  <course>36.29</course>
  <speed>0.0</speed>
  <fix>3d</fix>
</trkpt>
<trkpt lat="40.0728871" lon="-105.2301643">
  <ele>1583.1</ele>
  <time>2026-08-28T17:51:27Z</time>
  <course>359.84</course>
  <speed>0.022360679774997897</speed>
  <fix>3d</fix>
</trkpt>
<trkpt lat="40.072887" lon="-105.2301641">
  <ele>1583.0</ele>
  <time>2026-08-28T17:51:27Z</time>
  <course>39.04</course>
  <speed>0.0</speed>
  <fix>3d</fix>
</trkpt>
<trkpt lat="40.0728871" lon="-105.2301643">
  <ele>1583.11</ele>
  <time>2026-08-28T17:51:27Z</time>
  <course>359.83</course>
  <speed>0.022360679774997897</speed>
  <fix>3d</fix>
</trkpt>
<trkpt lat="40.072887" lon="-105.2301641">
  <ele>1583.0</ele>
  <time>2026-08-28T17:51:27Z</time>
  <course>39.04</course>
  <speed>0.0</speed>
  <fix>3d</fix>
</trkpt>
<trkpt lat="40.0728871" lon="-105.2301643">
  <ele>1583.12</ele>
  <time>2026-08-28T17:51:27Z</time>
  <course>359.83</course>
  <speed>0.022360679774997897</speed>
  <fix>3d</fix>
</trkpt>
<trkpt lat="40.072887" lon="-105.2301641">
  <ele>1583.0</ele>
  <time>2026-08-28T17:51:27Z</time>
  <course>41.86</course>
  <speed>0.0</speed>
  <fix>3d</fix>
</trkpt>
<trkpt lat="40.0728871" lon="-105.2301643">
  <ele>1583.13</ele>
  <time>2026-08-28T17:51:27Z</time>
  <course>359.83</course>
  <speed>0.022360679774997897</speed>
  <fix>3d</fix>
</trkpt>
<trkpt lat="40.072887" lon="-105.2301641">
  <ele>1583.0</ele>
  <time>2026-08-28T17:51:27Z</time>
  <course>41.86</course>
  <speed>0.0</speed>
  <fix>3d</fix>
</trkpt>
<trkpt lat="40.0728871" lon="-105.2301643">
  <ele>1583.13</ele>
  <time>2026-08-28T17:51:27Z</time>
  <course>359.83</course>
  <speed>0.022360679774997897</speed>
  <fix>3d</fix>
</trkpt>
<trkpt lat="40.072887" lon="-105.2301641">
  <ele>1583.0</ele>
  <time>2026-08-28T17:51:27Z</time>
  <course>44.71</course>
  <speed>0.0</speed>
  <fix>3d</fix>
</trkpt>
<trkpt lat="40.0728871" lon="-105.2301643">
  <ele>1583.14</ele>
  <time>2026-08-28T17:51:27Z</time>
  <course>359.83</course>
  <speed>0.022360679774997897</speed>
  <fix>3d</fix>
</trkpt>
<trkpt lat="40.072887" lon="-105.2301641">
  <ele>1583.0</ele>
  <time>2026-08-28T17:51:27Z</time>
  <course>44.71</course>
  <speed>0.0</speed>
  <fix>3d</fix>
</trkpt>
<trkpt lat="40.0728871" lon="-105.2301643">
  <ele>1583.14</ele>
  <time>2026-08-28T17:51:27Z</time>
  <course>359.83</course>
  <speed>0.022360679774997897</speed>
  <fix>3d</fix>
</trkpt>
<trkpt lat="40.072887" lon="-105.2301641">
  <ele>1583.0</ele>
  <time>2026-08-28T17:51:27Z</time>
  <course>47.58</course>
  <speed>0.0</speed>
  <fix>3d</fix>
</trkpt>
<trkpt lat="40.0728871" lon="-105.2301643">
  <ele>1583.14</ele>
  <time>2026-08-28T17:51:27Z</time>
  <course>359.82</course>
  <speed>0.022360679774997897</speed>
  <fix>3d</fix>
</trkpt>
<trkpt lat="40.072887" lon="-105.2301641">
  <ele>1583.0</ele>
  <time>2026-08-28T17:51:27Z</time>
  <course>47.58</course>
  <speed>0.0</speed>
  <fix>3d</fix>
</trkpt>
<trkpt lat="40.0728871" lon="-105.2301643">
  <ele>1583.13</ele>
  <time>2026-08-28T17:51:27Z</time>
  <course>359.82</course>
  <speed>0.022360679774997897</speed>
  <fix>3d</fix>
</trkpt>
<trkpt lat="40.072887" lon="-105.2301641">
  <ele>1583.0</ele>
  <time>2026-08-28T17:51:27Z</time>
  <course>50.43</course>
  <speed>0.0</speed>
  <fix>3d</fix>
</trkpt>
<trkpt lat="40.0728871" lon="-105.2301643">
  <ele>1583.13</ele>
  <time>2026-08-28T17:51:27Z</time>
  <course>359.82</course>
  <speed>0.022360679774997897</speed>
  <fix>3d</fix>
</trkpt>
<trkpt lat="40.072887" lon="-105.2301641">
  <ele>1583.0</ele>
  <time>2026-08-28T17:51:27Z</time>
  <course>50.43</course>
  <speed>0.0</speed>
  <fix>3d</fix>
</trkpt>
<trkpt lat="40.0728871" lon="-105.2301643">
  <ele>1583.12</ele>
  <time>2026-08-28T17:51:27Z</time>
  <course>359.82</course>
  <speed>0.022360679774997897</speed>
  <fix>3d</fix>
</trkpt>
<trkpt lat="40.072887" lon="-105.2301641">
  <ele>1583.0</ele>
  <time>2026-08-28T17:51:27Z</time>
  <course>53.23</course>
  <speed>0.0</speed>
  <fix>3d</fix>
</trkpt>
<trkpt lat="40.0728871" lon="-105.2301643">
  <ele>1583.12</ele>
  <time>2026-08-28T17:51:27Z</time>
  <course>359.82</course>
  <speed>0.022360679774997897</speed>
  <fix>3d</fix>
</trkpt>
<trkpt lat="40.072887" lon="-105.2301641">
  <ele>1583.0</ele>
  <time>2026-08-28T17:51:27Z</time>
  <course>53.23</course>
  <speed>0.0</speed>
  <fix>3d</fix>
</trkpt>
<trkpt lat="40.0728871" lon="-105.2301643">
  <ele>1583.11</ele>
  <time>2026-08-28T17:51:27Z</time>
  <course>359.82</course>
  <speed>0.022360679774997897</speed>
  <fix>3d</fix>
</trkpt>
<trkpt lat="40.072887" lon="-105.2301641">
  <ele>1583.0</ele>
  <time>2026-08-28T17:51:27Z</time>
  <course>55.95</course>
  <speed>0.0</speed>
  <fix>3d</fix>
</trkpt>
<trkpt lat="40.0728871" lon="-105.2301643">
  <ele>1583.1</ele>
  <time>2026-08-28T17:51:27Z</time>
  <course>359.81</course>
  <speed>0.022360679774997897</speed>
  <fix>3d</fix>
</trkpt>
<trkpt lat="40.072887" lon="-105.2301641">
  <ele>1583.0</ele>
  <time>2026-08-28T17:51:27Z</time>
  <course>55.95</course>
  <speed>0.0</speed>
  <fix>3d</fix>
</trkpt>
<trkpt lat="40.0728871" lon="-105.2301643">
  <ele>1583.1</ele>
  <time>2026-08-28T17:51:27Z</time>
  <course>359.81</course>
  <speed>0.022360679774997897</speed>
  <fix>3d</fix>
</trkpt>
<trkpt lat="40.072887" lon="-105.2301641">
  <ele>1583.0</ele>
  <time>2026-08-28T17:51:27Z</time>
  <course>58.58</course>
  <speed>0.0</speed>
  <fix>3d</fix>
</trkpt>
<trkpt lat="40.0728871" lon="-105.2301643">
  <ele>1583.09</ele>
  <time>2026-08-28T17:51:27Z</time>
  <course>359.81</course>
  <speed>0.022360679774997897</speed>
  <fix>3d</fix>
</trkpt>
<trkpt lat="40.072887" lon="-105.2301641">
  <ele>1583.0</ele>
  <time>2026-08-28T17:51:27Z</time>
  <course>58.58</course>
  <speed>0.0</speed>
  <fix>3d</fix>
</trkpt>
<trkpt lat="40.0728871" lon="-105.2301643">
  <ele>1583.08</ele>
  <time>2026-08-28T17:51:27Z</time>
  <course>359.81</course>
  <speed>0.022360679774997897</speed>
  <fix>3d</fix>
</trkpt>
<trkpt lat="40.072887" lon="-105.2301641">
  <ele>1583.0</ele>
  <time>2026-08-28T17:51:27Z</time>
  <course>61.1</course>
  <speed>0.0</speed>
  <fix>3d</fix>
</trkpt>
<trkpt lat="40.0728871" lon="-105.2301643">
  <ele>1583.07</ele>
  <time>2026-08-28T17:51:27Z</time>
  <course>359.81</course>
  <speed>0.022360679774997897</speed>
  <fix>3d</fix>
</trkpt>
<trkpt lat="40.072887" lon="-105.2301641">
  <ele>1583.0</ele>
  <time>2026-08-28T17:51:27Z</time>
  <course>61.1</course>
  <speed>0.0</speed>
  <fix>3d</fix>
</trkpt>
<trkpt lat="40.0728871" lon="-105.2301643">
  <ele>1583.06</ele>
  <time>2026-08-28T17:51:27Z</time>
  <course>359.81</course>
  <speed>0.022360679774997897</speed>
  <fix>3d</fix>
</trkpt>
<trkpt lat="40.072887" lon="-105.2301641">
  <ele>1583.0</ele>
  <time>2026-08-28T17:51:27Z</time>
  <course>63.5</course>
  <speed>0.0</speed>
  <fix>3d</fix>
</trkpt>
<trkpt lat="40.0728871" lon="-105.2301643">
  <ele>1583.05</ele>
  <time>2026-08-28T17:51:27Z</time>
  <course>359.8</course>
  <speed>0.022360679774997897</speed>
  <fix>3d</fix>
</trkpt>
<trkpt lat="40.072887" lon="-105.2301641">
  <ele>1583.0</ele>
  <time>2026-08-28T17:51:27Z</time>
  <course>63.5</course>
  <speed>0.0</speed>
  <fix>3d</fix>
</trkpt>
<trkpt lat="40.0728871" lon="-105.2301643">
  <ele>1583.05</ele>
  <time>2026-08-28T17:51:27Z</time>
  <course>359.8</course>
  <speed>0.022360679774997897</speed>
  <fix>3d</fix>
</trkpt>
<trkpt lat="40.072887" lon="-105.2301641">
  <ele>1583.0</ele>
  <time>2026-08-28T17:51:27Z</time>
  <course>65.75</course>
  <speed>0.0</speed>
  <fix>3d</fix>
</trkpt>
<trkpt lat="40.0728871" lon="-105.2301643">
  <ele>1583.04</ele>
  <time>2026-08-28T17:51:27Z</time>
  <course>359.8</course>
  <speed>0.022360679774997897</speed>
  <fix>3d</fix>
</trkpt>
<trkpt lat="40.072887" lon="-105.2301641">
  <ele>1583.0</ele>
  <time>2026-08-28T17:51:27Z</time>
  <course>65.75</course>
  <speed>0.0</speed>
  <fix>3d</fix>
</trkpt>
<trkpt lat="40.0728871" lon="-105.2301643">
  <ele>1583.03</ele>
  <time>2026-08-28T17:51:27Z</time>
  <course>359.8</course>
  <speed>0.022360679774997897</speed>
  <fix>3d</fix>
</trkpt>
<trkpt lat="40.072887" lon="-105.2301641">
  <ele>1583.0</ele>
  <time>2026-08-28T17:51:27Z</time>
  <course>67.87</course>
  <speed>0.0</speed>
  <fix>3d</fix>
</trkpt>
<trkpt lat="40.0728871" lon="-105.2301643">
  <ele>1583.03</ele>
  <time>2026-08-28T17:51:27Z</time>
  <course>359.8</course>
  <speed>0.01414213562373095</speed>
  <fix>3d</fix>
</trkpt>
<trkpt lat="40.072887" lon="-105.2301641">
  <ele>1583.0</ele>
  <time>2026-08-28T17:51:27Z</time>
  <course>67.87</course>
  <speed>0.0</speed>
  <fix>3d</fix>
</trkpt>
<trkpt lat="40.0728871" lon="-105.2301643">
  <ele>1583.02</ele>
  <time>2026-08-28T17:51:27Z</time>
  <course>359.8</course>
  <speed>0.022360679774997897</speed>
  <fix>3d</fix>
</trkpt>
<trkpt lat="40.072887" lon="-105.2301641">
  <ele>1583.0</ele>
  <time>2026-08-28T17:51:27Z</time>
  <course>69.84</course>
  <speed>0.0</speed>
  <fix>3d</fix>
</trkpt>
<trkpt lat="40.0728871" lon="-105.2301643">
  <ele>1583.01</ele>
  <time>2026-08-28T17:51:27Z</time>
  <course>359.8</course>
  <speed>0.01414213562373095</speed>
  <fix>3d</fix>
</trkpt>
<trkpt lat="40.072887" lon="-105.2301641">
  <ele>1583.0</ele>
  <time>2026-08-28T17:51:27Z</time>
  <course>69.84</course>
  <speed>0.0</speed>
  <fix>3d</fix>
</trkpt>
<trkpt lat="40.0728871" lon="-105.2301643">
  <ele>1583.01</ele>
  <time>2026-08-28T17:51:27Z</time>
  <course>359.79</course>
  <speed>0.022360679774997897</speed>
  <fix>3d</fix>
</trkpt>
<trkpt lat="40.072887" lon="-105.2301641">
  <ele>1583.0</ele>
  <time>2026-08-28T17:51:27Z</time>
  <course>71.68</course>
  <speed>0.0</speed>
  <fix>3d</fix>
</trkpt>
<trkpt lat="40.0728871" lon="-105.2301643">
  <ele>1583.0</ele>
  <time>2026-08-28T17:51:27Z</time>
  <course>359.79</course>
  <speed>0.022360679774997897</speed>
  <fix>3d</fix>
</trkpt>
<trkpt lat="40.072887" lon="-105.2301641">
  <ele>1583.0</ele>
  <time>2026-08-28T17:51:27Z</time>
  <course>71.68</course>
  <speed>0.0</speed>
  <fix>3d</fix>
</trkpt>
<trkpt lat="40.0728871" lon="-105.2301643">
  <ele>1583.0</ele>
  <time>2026-08-28T17:51:27Z</time>
  <course>359.79</course>
  <speed>0.022360679774997897</speed>
  <fix>3d</fix>
</trkpt>
<trkpt lat="40.072887" lon="-105.2301641">
  <ele>1583.0</ele>
  <time>2026-08-28T17:51:27Z</time>
  <course>73.38</course>
  <speed>0.0</speed>
  <fix>3d</fix>
</trkpt>
<trkpt lat="40.0728871" lon="-105.2301643">
  <ele>1583.0</ele>
  <time>2026-08-28T17:51:27Z</time>
  <course>359.79</course>
  <speed>0.022360679774997897</speed>
  <fix>3d</fix>
</trkpt>
<trkpt lat="40.072887" lon="-105.2301641">
  <ele>1583.0</ele>
  <time>2026-08-28T17:51:27Z</time>
  <course>73.38</course>
  <speed>0.0</speed>
  <fix>3d</fix>
</trkpt>
<trkpt lat="40.0728871" lon="-105.2301643">
  <ele>1583.0</ele>
  <time>2026-08-28T17:51:27Z</time>
  <course>359.79</course>
  <speed>0.022360679774997897</speed>
  <fix>3d</fix>
</trkpt>
<trkpt lat="40.072887" lon="-105.2301641">
  <ele>1583.0</ele>
  <time>2026-08-28T17:51:27Z</time>
  <course>74.94</course>
  <speed>0.0</speed>
  <fix>3d</fix>
</trkpt>
<trkpt lat="40.0728871" lon="-105.2301643">
  <ele>1583.0</ele>
  <time>2026-08-28T17:51:27Z</time>
  <course>359.79</course>
  <speed>0.022360679774997897</speed>
  <fix>3d</fix>
</trkpt>
<trkpt lat="40.072887" lon="-105.2301641">
  <ele>1583.0</ele>
  <time>2026-08-28T17:51:27Z</time>
  <course>74.94</course>
  <speed>0.0</speed>
  <fix>3d</fix>
</trkpt>
<trkpt lat="40.0728871" lon="-105.2301643">
  <ele>1583.0</ele>
  <time>2026-08-28T17:51:27Z</time>
  <course>359.78</course>
  <speed>0.0282842712474619</speed>
  <fix>3d</fix>
</trkpt>
<trkpt lat="40.072887" lon="-105.2301641">
  <ele>1583.0</ele>
  <time>2026-08-28T17:51:27Z</time>
  <course>76.37</course>
  <speed>0.0</speed>
  <fix>3d</fix>
</trkpt>
<trkpt lat="40.0728871" lon="-105.2301643">
  <ele>1583.0</ele>
  <time>2026-08-28T17:51:27Z</time>
  <course>359.78</course>
  <speed>0.022360679774997897</speed>
  <fix>3d</fix>
</trkpt>
<trkpt lat="40.072887" lon="-105.2301641">
  <ele>1583.0</ele>
  <time>2026-08-28T17:51:27Z</time>
  <course>76.37</course>
  <speed>0.0</speed>
  <fix>3d</fix>
</trkpt>
<trkpt lat="40.0728871" lon="-105.2301643">
  <ele>1583.0</ele>
  <time>2026-08-28T17:51:27Z</time>
  <course>359.78</course>
  <speed>0.022360679774997897</speed>
  <fix>3d</fix>
</trkpt>
<trkpt lat="40.072887" lon="-105.2301641">
  <ele>1583.0</ele>
  <time>2026-08-28T17:51:27Z</time>
  <course>77.68</course>
  <speed>0.0</speed>
  <fix>3d</fix>
</trkpt>
<trkpt lat="40.0728871" lon="-105.2301643">
  <ele>1583.0</ele>
  <time>2026-08-28T17:51:27Z</time>
  <course>359.78</course>
  <speed>0.022360679774997897</speed>
  <fix>3d</fix>
</trkpt>
<trkpt lat="40.072887" lon="-105.2301641">
  <ele>1583.0</ele>
  <time>2026-08-28T17:51:27Z</time>
  <course>77.68</course>
  <speed>0.0</speed>
  <fix>3d</fix>
</trkpt>
<trkpt lat="40.0728871" lon="-105.2301643">
  <ele>1583.0</ele>
  <time>2026-08-28T17:51:27Z</time>
  <course>359.78</course>
  <speed>0.022360679774997897</speed>
  <fix>3d</fix>
</trkpt>
<trkpt lat="40.072887" lon="-105.2301641">
  <ele>1583.0</ele>
  <time>2026-08-28T17:51:27Z</time>
  <course>78.88</course>
  <speed>0.0</speed>
  <fix>3d</fix>
</trkpt>
<trkpt lat="40.0728871" lon="-105.2301643">
  <ele>1582.99</ele>
  <time>2026-08-28T17:51:27Z</time>
  <course>359.78</course>
  <speed>0.022360679774997897</speed>
  <fix>3d</fix>
</trkpt>
<trkpt lat="40.072887" lon="-105.2301641">
  <ele>1583.0</ele>
  <time>2026-08-28T17:51:27Z</time>
  <course>78.88</course>
  <speed>0.0</speed>
  <fix>3d</fix>
</trkpt>
<trkpt lat="40.0728871" lon="-105.2301643">
  <ele>1582.99</ele>
  <time>2026-08-28T17:51:27Z</time>
  <course>359.78</course>
  <speed>0.022360679774997897</speed>
  <fix>3d</fix>
</trkpt>
<trkpt lat="40.072887" lon="-105.2301641">
  <ele>1583.0</ele>
  <time>2026-08-28T17:51:27Z</time>
  <course>79.97</course>
  <speed>0.0</speed>
  <fix>3d</fix>
</trkpt>
<trkpt lat="40.0728871" lon="-105.2301643">
  <ele>1582.99</ele>
  <time>2026-08-28T17:51:27Z</time>
  <course>359.77</course>
  <speed>0.022360679774997897</speed>
  <fix>3d</fix>
</trkpt>
<trkpt lat="40.072887" lon="-105.2301641">
  <ele>1583.0</ele>
  <time>2026-08-28T17:51:27Z</time>
  <course>79.97</course>
  <speed>0.0</speed>
  <fix>3d</fix>
</trkpt>
<trkpt lat="40.0728871" lon="-105.2301643">
  <ele>1582.98</ele>
  <time>2026-08-28T17:51:27Z</time>
  <course>359.77</course>
  <speed>0.0282842712474619</speed>
  <fix>3d</fix>
</trkpt>
<trkpt lat="40.072887" lon="-105.2301641">
  <ele>1583.0</ele>
  <time>2026-08-28T17:51:27Z</time>
  <course>80.97</course>
  <speed>0.0</speed>
  <fix>3d</fix>
</trkpt>
<trkpt lat="40.0728871" lon="-105.2301643">
  <ele>1582.97</ele>
  <time>2026-08-28T17:51:27Z</time>
  <course>359.77</course>
  <speed>0.022360679774997897</speed>
  <fix>3d</fix>
</trkpt>
<trkpt lat="40.072887" lon="-105.2301641">
  <ele>1583.0</ele>
  <time>2026-08-28T17:51:27Z</time>
  <course>80.97</course>
  <speed>0.0</speed>
  <fix>3d</fix>
</trkpt>
<trkpt lat="40.0728871" lon="-105.2301643">
  <ele>1582.96</ele>
  <time>2026-08-28T17:51:27Z</time>
  <course>359.77</course>
  <speed>0.0282842712474619</speed>
  <fix>3d</fix>
</trkpt>
<trkpt lat="40.072887" lon="-105.2301641">
  <ele>1583.0</ele>
  <time>2026-08-28T17:51:27Z</time>
  <course>81.88</course>
  <speed>0.0</speed>
  <fix>3d</fix>
</trkpt>
<trkpt lat="40.0728871" lon="-105.2301643">
  <ele>1582.96</ele>
  <time>2026-08-28T17:51:27Z</time>
  <course>359.77</course>
  <speed>0.022360679774997897</speed>
  <fix>3d</fix>
</trkpt>
<trkpt lat="40.072887" lon="-105.2301641">
  <ele>1583.0</ele>
  <time>2026-08-28T17:51:27Z</time>
  <course>81.88</course>
  <speed>0.0</speed>
  <fix>3d</fix>
</trkpt>
<trkpt lat="40.0728871" lon="-105.2301643">
  <ele>1582.95</ele>
  <time>2026-08-28T17:51:27Z</time>
  <course>359.77</course>
  <speed>0.022360679774997897</speed>
  <fix>3d</fix>
</trkpt>
<trkpt lat="40.072887" lon="-105.2301641">
  <ele>1583.0</ele>
  <time>2026-08-28T17:51:27Z</time>
  <course>82.7</course>
  <speed>0.0</speed>
  <fix>3d</fix>
</trkpt>
<trkpt lat="40.0728871" lon="-105.2301643">
  <ele>1582.95</ele>
  <time>2026-08-28T17:51:27Z</time>
  <course>359.76</course>
  <speed>0.022360679774997897</speed>
  <fix>3d</fix>
</trkpt>
<trkpt lat="40.072887" lon="-105.2301641">
  <ele>1583.0</ele>
  <time>2026-08-28T17:51:27Z</time>
  <course>82.7</course>
  <speed>0.0</speed>
  <fix>3d</fix>
</trkpt>
<trkpt lat="40.0728871" lon="-105.2301643">
  <ele>1582.95</ele>
  <time>2026-08-28T17:51:27Z</time>
  <course>359.76</course>
  <speed>0.022360679774997897</speed>
  <fix>3d</fix>
</trkpt>
<trkpt lat="40.072887" lon="-105.2301641">
  <ele>1583.0</ele>
  <time>2026-08-28T17:51:27Z</time>
  <course>83.45</course>
  <speed>0.0</speed>
  <fix>3d</fix>
</trkpt>
<trkpt lat="40.0728871" lon="-105.2301643">
  <ele>1582.95</ele>
  <time>2026-08-28T17:51:27Z</time>
  <course>359.76</course>
  <speed>0.022360679774997897</speed>
  <fix>3d</fix>
</trkpt>
<trkpt lat="40.072887" lon="-105.2301641">
  <ele>1583.0</ele>
  <time>2026-08-28T17:51:27Z</time>
  <course>83.45</course>
  <speed>0.0</speed>
  <fix>3d</fix>
</trkpt>
<trkpt lat="40.0728871" lon="-105.2301643">
  <ele>1582.95</ele>
  <time>2026-08-28T17:51:27Z</time>
  <course>359.76</course>
  <speed>0.0282842712474619</speed>
  <fix>3d</fix>
</trkpt>
<trkpt lat="40.072887" lon="-105.2301641">
  <ele>1583.0</ele>
  <time>2026-08-28T17:51:27Z</time>
  <course>84.13</course>
  <speed>0.0</speed>
  <fix>3d</fix>
</trkpt>
<trkpt lat="40.0728871" lon="-105.2301643">
  <ele>1582.95</ele>
  <time>2026-08-28T17:51:27Z</time>
  <course>359.76</course>
  <speed>0.022360679774997897</speed>
  <fix>3d</fix>
</trkpt>
<trkpt lat="40.072887" lon="-105.2301641">
  <ele>1583.0</ele>
  <time>2026-08-28T17:51:27Z</time>
  <course>84.13</course>
  <speed>0.0</speed>
  <fix>3d</fix>
</trkpt>
<trkpt lat="40.0728871" lon="-105.2301643">
  <ele>1582.95</ele>
  <time>2026-08-28T17:51:27Z</time>
  <course>359.76</course>
  <speed>0.0282842712474619</speed>
  <fix>3d</fix>
</trkpt>
<trkpt lat="40.072887" lon="-105.2301641">
  <ele>1583.0</ele>
  <time>2026-08-28T17:51:27Z</time>
  <course>84.75</course>
  <speed>0.0</speed>
  <fix>3d</fix>
</trkpt>
<trkpt lat="40.0728871" lon="-105.2301643">
  <ele>1582.95</ele>
  <time>2026-08-28T17:51:27Z</time>
  <course>359.76</course>
  <speed>0.022360679774997897</speed>
  <fix>3d</fix>
</trkpt>
<trkpt lat="40.072887" lon="-105.2301641">
  <ele>1583.0</ele>
  <time>2026-08-28T17:51:27Z</time>
  <course>84.75</course>
  <speed>0.0</speed>
  <fix>3d</fix>
</trkpt>
<trkpt lat="40.0728871" lon="-105.2301643">
  <ele>1582.95</ele>
  <time>2026-08-28T17:51:27Z</time>
  <course>359.75</course>
  <speed>0.0282842712474619</speed>
  <fix>3d</fix>
</trkpt>
<trkpt lat="40.072887" lon="-105.2301641">
  <ele>1583.0</ele>
  <time>2026-08-28T17:51:27Z</time>
  <course>85.31</course>
  <speed>0.0</speed>
  <fix>3d</fix>
</trkpt>
<trkpt lat="40.0728871" lon="-105.2301643">
  <ele>1582.94</ele>
  <time>2026-08-28T17:51:27Z</time>
  <course>359.75</course>
  <speed>0.022360679774997897</speed>
  <fix>3d</fix>
</trkpt>
<trkpt lat="40.072887" lon="-105.2301641">
  <ele>1583.0</ele>
  <time>2026-08-28T17:51:27Z</time>
  <course>85.31</course>
  <speed>0.0</speed>
  <fix>3d</fix>
</trkpt>
<trkpt lat="40.0728871" lon="-105.2301643">
  <ele>1582.94</ele>
  <time>2026-08-28T17:51:27Z</time>
  <course>359.75</course>
  <speed>0.0282842712474619</speed>
  <fix>3d</fix>
</trkpt>
<trkpt lat="40.072887" lon="-105.2301641">
  <ele>1583.0</ele>
  <time>2026-08-28T17:51:27Z</time>
  <course>85.81</course>
  <speed>0.0</speed>
  <fix>3d</fix>
</trkpt>
<trkpt lat="40.0728871" lon="-105.2301643">
  <ele>1582.94</ele>
  <time>2026-08-28T17:51:27Z</time>
  <course>359.75</course>
  <speed>0.022360679774997897</speed>
  <fix>3d</fix>
</trkpt>
<trkpt lat="40.072887" lon="-105.2301641">
  <ele>1583.0</ele>
  <time>2026-08-28T17:51:27Z</time>
  <course>85.81</course>
  <speed>0.0</speed>
  <fix>3d</fix>
</trkpt>
<trkpt lat="40.0728871" lon="-105.2301643">
  <ele>1582.94</ele>
  <time>2026-08-28T17:51:27Z</time>
  <course>359.75</course>
  <speed>0.022360679774997897</speed>
  <fix>3d</fix>
</trkpt>
<trkpt lat="40.072887" lon="-105.2301641">
  <ele>1583.0</ele>
  <time>2026-08-28T17:51:27Z</time>
  <course>86.27</course>
  <speed>0.0</speed>
  <fix>3d</fix>
</trkpt>
<trkpt lat="40.0728871" lon="-105.2301643">
  <ele>1582.93</ele>
  <time>2026-08-28T17:51:27Z</time>
  <course>359.75</course>
  <speed>0.022360679774997897</speed>
  <fix>3d</fix>
</trkpt>
<trkpt lat="40.072887" lon="-105.2301641">
  <ele>1583.0</ele>
  <time>2026-08-28T17:51:27Z</time>
  <course>86.27</course>
  <speed>0.0</speed>
  <fix>3d</fix>
</trkpt>
<trkpt lat="40.0728871" lon="-105.2301643">
  <ele>1582.93</ele>
  <time>2026-08-28T17:51:27Z</time>
  <course>359.75</course>
  <speed>0.022360679774997897</speed>
  <fix>3d</fix>
</trkpt>
<trkpt lat="40.072887" lon="-105.2301641">
  <ele>1583.0</ele>
  <time>2026-08-28T17:51:27Z</time>
  <course>86.69</course>
  <speed>0.0</speed>
  <fix>3d</fix>
</trkpt>
<trkpt lat="40.0728871" lon="-105.2301643">
  <ele>1582.92</ele>
  <time>2026-08-28T17:51:27Z</time>
  <course>359.75</course>
  <speed>0.01414213562373095</speed>
  <fix>3d</fix>
</trkpt>
<trkpt lat="40.072887" lon="-105.2301641">
  <ele>1583.0</ele>
  <time>2026-08-28T17:51:27Z</time>
  <course>86.69</course>
  <speed>0.0</speed>
  <fix>3d</fix>
</trkpt>
<trkpt lat="40.0728871" lon="-105.2301643">
  <ele>1582.92</ele>
  <time>2026-08-28T17:51:27Z</time>
  <course>359.74</course>
  <speed>0.022360679774997897</speed>
  <fix>3d</fix>
</trkpt>
<trkpt lat="40.072887" lon="-105.2301641">
  <ele>1583.0</ele>
  <time>2026-08-28T17:51:27Z</time>
  <course>87.07</course>
  <speed>0.0</speed>
  <fix>3d</fix>
</trkpt>
<trkpt lat="40.0728871" lon="-105.2301643">
  <ele>1582.92</ele>
  <time>2026-08-28T17:51:27Z</time>
  <course>359.74</course>
  <speed>0.01414213562373095</speed>
  <fix>3d</fix>
</trkpt>
<trkpt lat="40.072887" lon="-105.2301641">
  <ele>1583.0</ele>
  <time>2026-08-28T17:51:27Z</time>
  <course>87.07</course>
  <speed>0.0</speed>
  <fix>3d</fix>
</trkpt>
<trkpt lat="40.0728871" lon="-105.2301643">
  <ele>1582.91</ele>
  <time>2026-08-28T17:51:27Z</time>
  <course>359.74</course>
  <speed>0.022360679774997897</speed>
  <fix>3d</fix>
</trkpt>
<trkpt lat="40.072887" lon="-105.2301641">
  <ele>1583.0</ele>
  <time>2026-08-28T17:51:27Z</time>
  <course>87.41</course>
  <speed>0.0</speed>
  <fix>3d</fix>
</trkpt>
<trkpt lat="40.0728871" lon="-105.2301643">
  <ele>1582.91</ele>
  <time>2026-08-28T17:51:27Z</time>
  <course>359.74</course>
  <speed>0.01414213562373095</speed>
  <fix>3d</fix>
</trkpt>
<trkpt lat="40.072887" lon="-105.2301641">
  <ele>1583.0</ele>
  <time>2026-08-28T17:51:27Z</time>
  <course>87.41</course>
  <speed>0.0</speed>
  <fix>3d</fix>
</trkpt>
<trkpt lat="40.0728871" lon="-105.2301643">
  <ele>1582.91</ele>
  <time>2026-08-28T17:51:27Z</time>
  <course>359.74</course>
  <speed>0.01414213562373095</speed>
  <fix>3d</fix>
</trkpt>
<trkpt lat="40.072887" lon="-105.2301641">
  <ele>1583.0</ele>
  <time>2026-08-28T17:51:27Z</time>
  <course>87.72</course>
  <speed>0.0</speed>
  <fix>3d</fix>
</trkpt>
<trkpt lat="40.0728871" lon="-105.2301643">
  <ele>1582.91</ele>
  <time>2026-08-28T17:51:27Z</time>
  <course>359.74</course>
  <speed>0.01414213562373095</speed>
  <fix>3d</fix>
</trkpt>
<trkpt lat="40.072887" lon="-105.2301641">
  <ele>1583.0</ele>
  <time>2026-08-28T17:51:27Z</time>
  <course>87.72</course>
  <speed>0.0</speed>
  <fix>3d</fix>
</trkpt>
<trkpt lat="40.0728871" lon="-105.2301643">
  <ele>1582.91</ele>
  <time>2026-08-28T17:51:27Z</time>
  <course>359.74</course>
  <speed>0.01414213562373095</speed>
  <fix>3d</fix>
</trkpt>
<trkpt lat="40.072887" lon="-105.2301641">
  <ele>1583.0</ele>
  <time>2026-08-28T17:51:27Z</time>
  <course>88.0</course>
  <speed>0.0</speed>
  <fix>3d</fix>
</trkpt>
<trkpt lat="40.0728871" lon="-105.2301643">
  <ele>1582.91</ele>
  <time>2026-08-28T17:51:27Z</time>
  <course>359.73</course>
  <speed>0.01414213562373095</speed>
  <fix>3d</fix>
</trkpt>
<trkpt lat="40.072887" lon="-105.2301641">
  <ele>1583.0</ele>
  <time>2026-08-28T17:51:27Z</time>
  <course>88.0</course>
  <speed>0.0</speed>
  <fix>3d</fix>
</trkpt>
<trkpt lat="40.0728871" lon="-105.2301643">
  <ele>1582.91</ele>
  <time>2026-08-28T17:51:27Z</time>
  <course>359.73</course>
  <speed>0.022360679774997897</speed>
  <fix>3d</fix>
</trkpt>
<trkpt lat="40.072887" lon="-105.2301641">
  <ele>1583.0</ele>
  <time>2026-08-28T17:51:27Z</time>
  <course>88.25</course>
  <speed>0.0</speed>
  <fix>3d</fix>
</trkpt>
<trkpt lat="40.0728871" lon="-105.2301643">
  <ele>1582.91</ele>
  <time>2026-08-28T17:51:27Z</time>
  <course>359.73</course>
  <speed>0.01414213562373095</speed>
  <fix>3d</fix>
</trkpt>
<trkpt lat="40.072887" lon="-105.2301641">
  <ele>1583.0</ele>
  <time>2026-08-28T17:51:27Z</time>
  <course>88.25</course>
  <speed>0.0</speed>
  <fix>3d</fix>
</trkpt>
<trkpt lat="40.0728871" lon="-105.2301643">
  <ele>1582.91</ele>
  <time>2026-08-28T17:51:27Z</time>
  <course>359.73</course>
  <speed>0.022360679774997897</speed>
  <fix>3d</fix>
</trkpt>
<trkpt lat="40.072887" lon="-105.2301641">
  <ele>1583.0</ele>
  <time>2026-08-28T17:51:27Z</time>
  <course>88.48</course>
  <speed>0.0</speed>
  <fix>3d</fix>
</trkpt>
<trkpt lat="40.0728871" lon="-105.2301643">
  <ele>1582.91</ele>
  <time>2026-08-28T17:51:27Z</time>
  <course>359.73</course>
  <speed>0.01414213562373095</speed>
  <fix>3d</fix>
</trkpt>
<trkpt lat="40.072887" lon="-105.2301641">
  <ele>1583.0</ele>
  <time>2026-08-28T17:51:27Z</time>
  <course>88.48</course>
  <speed>0.0</speed>
  <fix>3d</fix>
</trkpt>
<trkpt lat="40.0728871" lon="-105.2301643">
  <ele>1582.9</ele>
  <time>2026-08-28T17:51:27Z</time>
  <course>359.73</course>
  <speed>0.022360679774997897</speed>
  <fix>3d</fix>
</trkpt>
<trkpt lat="40.072887" lon="-105.2301641">
  <ele>1583.0</ele>
  <time>2026-08-28T17:51:27Z</time>
  <course>88.69</course>
  <speed>0.0</speed>
  <fix>3d</fix>
</trkpt>
<trkpt lat="40.0728871" lon="-105.2301643">
  <ele>1582.9</ele>
  <time>2026-08-28T17:51:27Z</time>
  <course>359.73</course>
  <speed>0.01414213562373095</speed>
  <fix>3d</fix>
</trkpt>
<trkpt lat="40.072887" lon="-105.2301641">
  <ele>1583.0</ele>
  <time>2026-08-28T17:51:27Z</time>
  <course>88.69</course>
  <speed>0.0</speed>
  <fix>3d</fix>
</trkpt>
<trkpt lat="40.0728871" lon="-105.2301643">
  <ele>1582.9</ele>
  <time>2026-08-28T17:51:27Z</time>
  <course>359.73</course>
  <speed>0.01414213562373095</speed>
  <fix>3d</fix>
</trkpt>
<trkpt lat="40.072887" lon="-105.2301641">
  <ele>1583.0</ele>
  <time>2026-08-28T17:51:27Z</time>
  <course>88.87</course>
  <speed>0.0</speed>
  <fix>3d</fix>
</trkpt>
<trkpt lat="40.0728871" lon="-105.2301643">
  <ele>1582.9</ele>
  <time>2026-08-28T17:51:27Z</time>
  <course>359.72</course>
  <speed>0.01414213562373095</speed>
  <fix>3d</fix>
</trkpt>
<trkpt lat="40.072887" lon="-105.2301641">
  <ele>1583.0</ele>
  <time>2026-08-28T17:51:27Z</time>
  <course>88.87</course>
  <speed>0.0</speed>
  <fix>3d</fix>
</trkpt>
<trkpt lat="40.0728871" lon="-105.2301643">
  <ele>1582.89</ele>
  <time>2026-08-28T17:51:27Z</time>
  <course>359.72</course>
  <speed>0.01414213562373095</speed>
  <fix>3d</fix>
</trkpt>
<trkpt lat="40.072887" lon="-105.2301641">
  <ele>1583.0</ele>
  <time>2026-08-28T17:51:27Z</time>
  <course>89.04</course>
  <speed>0.0</speed>
  <fix>3d</fix>
</trkpt>
<trkpt lat="40.0728871" lon="-105.2301643">
  <ele>1582.89</ele>
  <time>2026-08-28T17:51:27Z</time>
  <course>359.72</course>
  <speed>0.01414213562373095</speed>
  <fix>3d</fix>
</trkpt>
<trkpt lat="40.072887" lon="-105.2301641">
  <ele>1583.0</ele>
  <time>2026-08-28T17:51:27Z</time>
  <course>89.04</course>
  <speed>0.0</speed>
  <fix>3d</fix>
</trkpt>
<trkpt lat="40.0728871" lon="-105.2301643">
  <ele>1582.89</ele>
  <time>2026-08-28T17:51:27Z</time>
  <course>359.72</course>
  <speed>0.01414213562373095</speed>
  <fix>3d</fix>
</trkpt>
<trkpt lat="40.072887" lon="-105.2301641">
  <ele>1583.0</ele>
  <time>2026-08-28T17:51:27Z</time>
  <course>89.2</course>
  <speed>0.0</speed>
  <fix>3d</fix>
</trkpt>
<trkpt lat="40.0728871" lon="-105.2301643">
  <ele>1582.89</ele>
  <time>2026-08-28T17:51:27Z</time>
  <course>359.72</course>
  <speed>0.01414213562373095</speed>
  <fix>3d</fix>
</trkpt>
<trkpt lat="40.072887" lon="-105.2301641">
  <ele>1583.0</ele>
  <time>2026-08-28T17:51:27Z</time>
  <course>89.2</course>
  <speed>0.0</speed>
  <fix>3d</fix>
</trkpt>
<trkpt lat="40.0728871" lon="-105.2301643">
  <ele>1582.88</ele>
  <time>2026-08-28T17:51:27Z</time>
  <course>359.72</course>
  <speed>0.01414213562373095</speed>
  <fix>3d</fix>
</trkpt>
<trkpt lat="40.072887" lon="-105.2301641">
  <ele>1583.0</ele>
  <time>2026-08-28T17:51:27Z</time>
  <course>89.34</course>
  <speed>0.0</speed>
  <fix>3d</fix>
</trkpt>
<trkpt lat="40.0728871" lon="-105.2301643">
  <ele>1582.88</ele>
  <time>2026-08-28T17:51:27Z</time>
  <course>359.72</course>
  <speed>0.01414213562373095</speed>
  <fix>3d</fix>
</trkpt>
<trkpt lat="40.072887" lon="-105.2301641">
  <ele>1583.0</ele>
  <time>2026-08-28T17:51:27Z</time>
  <course>89.34</course>
  <speed>0.0</speed>
  <fix>3d</fix>
</trkpt>
<trkpt lat="40.0728871" lon="-105.2301643">
  <ele>1582.88</ele>
  <time>2026-08-28T17:51:27Z</time>
  <course>359.72</course>
  <speed>0.01414213562373095</speed>
  <fix>3d</fix>
</trkpt>
<trkpt lat="40.072887" lon="-105.2301641">
  <ele>1583.0</ele>
  <time>2026-08-28T17:51:27Z</time>
  <course>89.46</course>
  <speed>0.0</speed>
  <fix>3d</fix>
</trkpt>
<trkpt lat="40.0728871" lon="-105.2301643">
  <ele>1582.88</ele>
  <time>2026-08-28T17:51:27Z</time>
  <course>359.71</course>
  <speed>0.01414213562373095</speed>
  <fix>3d</fix>
</trkpt>
<trkpt lat="40.072887" lon="-105.2301641">
  <ele>1583.0</ele>
  <time>2026-08-28T17:51:27Z</time>
  <course>89.46</course>
  <speed>0.0</speed>
  <fix>3d</fix>
</trkpt>
<trkpt lat="40.0728871" lon="-105.2301643">
  <ele>1582.87</ele>
  <time>2026-08-28T17:51:27Z</time>
  <course>359.71</course>
  <speed>0.01414213562373095</speed>
  <fix>3d</fix>
</trkpt>
<trkpt lat="40.072887" lon="-105.2301641">
  <ele>1583.0</ele>
  <time>2026-08-28T17:51:27Z</time>
  <course>89.58</course>
  <speed>0.0</speed>
  <fix>3d</fix>
</trkpt>
<trkpt lat="40.0728871" lon="-105.2301643">
  <ele>1582.87</ele>
  <time>2026-08-28T17:51:27Z</time>
  <course>359.71</course>
  <speed>0.01414213562373095</speed>
  <fix>3d</fix>
</trkpt>
<trkpt lat="40.072887" lon="-105.2301641">
  <ele>1583.0</ele>
  <time>2026-08-28T17:51:27Z</time>
  <course>89.58</course>
  <speed>0.0</speed>
  <fix>3d</fix>
</trkpt>
<trkpt lat="40.0728871" lon="-105.2301643">
  <ele>1582.87</ele>
  <time>2026-08-28T17:51:27Z</time>
  <course>359.71</course>
  <speed>0.01414213562373095</speed>
  <fix>3d</fix>
</trkpt>
<trkpt lat="40.072887" lon="-105.2301641">
  <ele>1583.0</ele>
  <time>2026-08-28T17:51:27Z</time>
  <course>89.68</course>
  <speed>0.0</speed>
  <fix>3d</fix>
</trkpt>
<trkpt lat="40.0728871" lon="-105.2301643">
  <ele>1582.87</ele>
  <time>2026-08-28T17:51:27Z</time>
  <course>359.71</course>
  <speed>0.01414213562373095</speed>
  <fix>3d</fix>
</trkpt>
<trkpt lat="40.072887" lon="-105.2301641">
  <ele>1583.0</ele>
  <time>2026-08-28T17:51:27Z</time>
  <course>89.68</course>
  <speed>0.0</speed>
  <fix>3d</fix>
</trkpt>
<trkpt lat="40.0728871" lon="-105.2301643">
  <ele>1582.87</ele>
  <time>2026-08-28T17:51:27Z</time>
  <course>359.71</course>
  <speed>0.01414213562373095</speed>
  <fix>3d</fix>
</trkpt>
<trkpt lat="40.072887" lon="-105.2301641">
  <ele>1583.0</ele>
  <time>2026-08-28T17:51:27Z</time>
  <course>89.77</course>
  <speed>0.0</speed>
  <fix>3d</fix>
</trkpt>
<trkpt lat="40.0728871" lon="-105.2301643">
  <ele>1582.87</ele>
  <time>2026-08-28T17:51:27Z</time>
  <course>359.71</course>
  <speed>0.01414213562373095</speed>
  <fix>3d</fix>
</trkpt>
<trkpt lat="40.072887" lon="-105.2301641">
  <ele>1583.0</ele>
  <time>2026-08-28T17:51:27Z</time>
  <course>89.77</course>
  <speed>0.0</speed>
  <fix>3d</fix>
</trkpt>
<trkpt lat="40.0728871" lon="-105.2301643">
  <ele>1582.87</ele>
  <time>2026-08-28T17:51:27Z</time>
  <course>359.71</course>
  <speed>0.01414213562373095</speed>
  <fix>3d</fix>
</trkpt>
<trkpt lat="40.072887" lon="-105.2301641">
  <ele>1583.0</ele>
  <time>2026-08-28T17:51:27Z</time>
  <course>89.86</course>
  <speed>0.0</speed>
  <fix>3d</fix>
</trkpt>
<trkpt lat="40.0728871" lon="-105.2301643">
  <ele>1582.87</ele>
  <time>2026-08-28T17:51:27Z</time>
  <course>359.7</course>
  <speed>0.01414213562373095</speed>
  <fix>3d</fix>
</trkpt>
<trkpt lat="40.072887" lon="-105.2301641">
  <ele>1583.0</ele>
  <time>2026-08-28T17:51:27Z</time>
  <course>89.86</course>
  <speed>0.0</speed>
  <fix>3d</fix>
</trkpt>
<trkpt lat="40.0728871" lon="-105.2301643">
  <ele>1582.87</ele>
  <time>2026-08-28T17:51:27Z</time>
  <course>359.7</course>
  <speed>0.01414213562373095</speed>
  <fix>3d</fix>
</trkpt>
<trkpt lat="40.072887" lon="-105.2301641">
  <ele>1583.0</ele>
  <time>2026-08-28T17:51:27Z</time>
  <course>89.93</course>
  <speed>0.0</speed>
  <fix>3d</fix>
</trkpt>
<trkpt lat="40.0728871" lon="-105.2301643">
  <ele>1582.87</ele>
  <time>2026-08-28T17:51:27Z</time>
  <course>359.7</course>
  <speed>0.01414213562373095</speed>
  <fix>3d</fix>
</trkpt>
<trkpt lat="40.072887" lon="-105.2301641">
  <ele>1583.0</ele>
  <time>2026-08-28T17:51:27Z</time>
  <course>89.93</course>
  <speed>0.0</speed>
  <fix>3d</fix>
</trkpt>
<trkpt lat="40.0728871" lon="-105.2301643">
  <ele>1582.87</ele>
  <time>2026-08-28T17:51:27Z</time>
  <course>359.7</course>
  <speed>0.01414213562373095</speed>
  <fix>3d</fix>
</trkpt>
<trkpt lat="40.072887" lon="-105.2301641">
  <ele>1583.0</ele>
  <time>2026-08-28T17:51:27Z</time>
  <course>90.0</course>
  <speed>0.0</speed>
  <fix>3d</fix>
</trkpt>
<trkpt lat="40.0728871" lon="-105.2301643">
  <ele>1582.87</ele>
  <time>2026-08-28T17:51:27Z</time>
  <course>359.7</course>
  <speed>0.01414213562373095</speed>
  <fix>3d</fix>
</trkpt>
<trkpt lat="40.072887" lon="-105.2301641">
  <ele>1583.0</ele>
  <time>2026-08-28T17:51:27Z</time>
  <course>90.0</course>
  <speed>0.0</speed>
  <fix>3d</fix>
</trkpt>
<trkpt lat="40.0728871" lon="-105.2301643">
  <ele>1582.87</ele>
  <time>2026-08-28T17:51:27Z</time>
  <course>359.7</course>
  <speed>0.01414213562373095</speed>
  <fix>3d</fix>
</trkpt>
<trkpt lat="40.072887" lon="-105.2301641">
  <ele>1583.0</ele>
  <time>2026-08-28T17:51:27Z</time>
  <course>90.06</course>
  <speed>0.0</speed>
  <fix>3d</fix>
</trkpt>
<trkpt lat="40.0728871" lon="-105.2301643">
  <ele>1582.87</ele>
  <time>2026-08-28T17:51:27Z</time>
  <course>359.7</course>
  <speed>0.01414213562373095</speed>
  <fix>3d</fix>
</trkpt>
<trkpt lat="40.072887" lon="-105.2301641">
  <ele>1583.0</ele>
  <time>2026-08-28T17:51:27Z</time>
  <course>90.06</course>
  <speed>0.0</speed>
  <fix>3d</fix>
</trkpt>
<trkpt lat="40.0728871" lon="-105.2301643">
  <ele>1582.88</ele>
  <time>2026-08-28T17:51:27Z</time>
  <course>359.7</course>
  <speed>0.01414213562373095</speed>
  <fix>3d</fix>
</trkpt>
<trkpt lat="40.072887" lon="-105.2301641">
  <ele>1583.0</ele>
  <time>2026-08-28T17:51:27Z</time>
  <course>90.12</course>
  <speed>0.0</speed>
  <fix>3d</fix>
</trkpt>
<trkpt lat="40.0728871" lon="-105.2301643">
  <ele>1582.89</ele>
  <time>2026-08-28T17:51:27Z</time>
  <course>359.69</course>
  <speed>0.01414213562373095</speed>
  <fix>3d</fix>
</trkpt>
<trkpt lat="40.072887" lon="-105.2301641">
  <ele>1583.0</ele>
  <time>2026-08-28T17:51:27Z</time>
  <course>90.12</course>
  <speed>0.0</speed>
  <fix>3d</fix>
</trkpt>
<trkpt lat="40.0728871" lon="-105.2301643">
  <ele>1582.89</ele>
  <time>2026-08-28T17:51:27Z</time>
  <course>359.69</course>
  <speed>0.01414213562373095</speed>
  <fix>3d</fix>
</trkpt>
<trkpt lat="40.072887" lon="-105.2301641">
  <ele>1583.0</ele>
  <time>2026-08-28T17:51:27Z</time>
  <course>90.17</course>
  <speed>0.0</speed>
  <fix>3d</fix>
</trkpt>
<trkpt lat="40.0728871" lon="-105.2301643">
  <ele>1582.9</ele>
  <time>2026-08-28T17:51:27Z</time>
  <course>359.69</course>
  <speed>0.01414213562373095</speed>
  <fix>3d</fix>
</trkpt>
<trkpt lat="40.072887" lon="-105.2301641">
  <ele>1583.0</ele>
  <time>2026-08-28T17:51:27Z</time>
  <course>90.17</course>
  <speed>0.0</speed>
  <fix>3d</fix>
</trkpt>
<trkpt lat="40.0728871" lon="-105.2301643">
  <ele>1582.91</ele>
  <time>2026-08-28T17:51:27Z</time>
  <course>359.69</course>
  <speed>0.01414213562373095</speed>
  <fix>3d</fix>
</trkpt>
<trkpt lat="40.072887" lon="-105.2301641">
  <ele>1583.0</ele>
  <time>2026-08-28T17:51:27Z</time>
  <course>90.22</course>
  <speed>0.0</speed>
  <fix>3d</fix>
</trkpt>
<trkpt lat="40.0728871" lon="-105.2301643">
  <ele>1582.92</ele>
  <time>2026-08-28T17:51:27Z</time>
  <course>359.69</course>
  <speed>0.01414213562373095</speed>
  <fix>3d</fix>
</trkpt>
<trkpt lat="40.072887" lon="-105.2301641">
  <ele>1583.0</ele>
  <time>2026-08-28T17:51:27Z</time>
  <course>90.22</course>
  <speed>0.0</speed>
  <fix>3d</fix>
</trkpt>
<trkpt lat="39.655741" lon="-104.1383097">
  <ele>1566.58</ele>
  <time>2026-08-28T17:51:27Z</time>
  <course>0.0</course>
  <speed>0.0</speed>
  <fix>3d</fix>
</trkpt>
<trkpt lat="40.0713749" lon="-105.229789">
  <ele>1583.0</ele>
  <time>2026-08-28T17:51:27Z</time>
  <course>0.0</course>
  <speed>0.0</speed>
  <fix>3d</fix>
</trkpt>
<trkpt lat="40.0713749" lon="-105.229789">
  <ele>1583.0</ele>
  <time>2026-08-28T17:51:27Z</time>
  <course>238.36</course>
  <speed>0.0</speed>
  <fix>3d</fix>
</trkpt>
<trkpt lat="40.0713749" lon="-105.229789">
  <ele>1583.0</ele>
  <time>2026-08-28T17:51:27Z</time>
  <course>0.0</course>
  <speed>0.0</speed>
  <fix>3d</fix>
</trkpt>
<trkpt lat="40.0713749" lon="-105.229789">
  <ele>1583.0</ele>
  <time>2026-08-28T17:51:27Z</time>
  <course>238.44</course>
  <speed>0.0</speed>
  <fix>3d</fix>
</trkpt>
<trkpt lat="40.0713749" lon="-105.229789">
  <ele>1583.0</ele>
  <time>2026-08-28T17:51:27Z</time>
  <course>0.0</course>
  <speed>0.0</speed>
  <fix>3d</fix>
</trkpt>
<trkpt lat="40.0713749" lon="-105.229789">
  <ele>1583.0</ele>
  <time>2026-08-28T17:51:27Z</time>
  <course>238.64</course>
  <speed>0.0</speed>
  <fix>3d</fix>
</trkpt>
<trkpt lat="40.0713749" lon="-105.229789">
  <ele>1583.0</ele>
  <time>2026-08-28T17:51:27Z</time>
  <course>0.0</course>
  <speed>0.0</speed>
  <fix>3d</fix>
</trkpt>
<trkpt lat="40.0713749" lon="-105.229789">
  <ele>1583.0</ele>
  <time>2026-08-28T17:51:27Z</time>
  <course>238.93</course>
  <speed>0.0</speed>
  <fix>3d</fix>
</trkpt>
<trkpt lat="40.0713749" lon="-105.229789">
  <ele>1583.0</ele>
  <time>2026-08-28T17:51:27Z</time>
  <course>0.0</course>
  <speed>0.0</speed>
  <fix>3d</fix>
</trkpt>
<trkpt lat="40.0713749" lon="-105.229789">
  <ele>1583.0</ele>
  <time>2026-08-28T17:51:27Z</time>
  <course>239.26</course>
  <speed>0.0</speed>
  <fix>3d</fix>
</trkpt>
<trkpt lat="40.0713749" lon="-105.229789">
  <ele>1583.0</ele>
  <time>2026-08-28T17:51:27Z</time>
  <course>0.0</course>
  <speed>0.0</speed>
  <fix>3d</fix>
</trkpt>
<trkpt lat="40.0713749" lon="-105.229789">
  <ele>1583.0</ele>
  <time>2026-08-28T17:51:27Z</time>
  <course>239.61</course>
  <speed>0.0</speed>
  <fix>3d</fix>
</trkpt>
<trkpt lat="40.0713749" lon="-105.229789">
  <ele>1583.0</ele>
  <time>2026-08-28T17:51:27Z</time>
  <course>0.0</course>
  <speed>0.0</speed>
  <fix>3d</fix>
</trkpt>
<trkpt lat="40.0713749" lon="-105.229789">
  <ele>1583.0</ele>
  <time>2026-08-28T17:51:27Z</time>
  <course>239.96</course>
  <speed>0.0</speed>
  <fix>3d</fix>
</trkpt>
<trkpt lat="40.0713749" lon="-105.229789">
  <ele>1583.0</ele>
  <time>2026-08-28T17:51:27Z</time>
  <course>0.0</course>
  <speed>0.0</speed>
  <fix>3d</fix>
</trkpt>
<trkpt lat="40.0713749" lon="-105.229789">
  <ele>1583.0</ele>
  <time>2026-08-28T17:51:27Z</time>
  <course>240.29</course>
  <speed>0.0</speed>
  <fix>3d</fix>
</trkpt>
<trkpt lat="40.0713749" lon="-105.229789">
  <ele>1583.0</ele>
  <time>2026-08-28T17:51:27Z</time>
  <course>0.0</course>
  <speed>0.0</speed>
  <fix>3d</fix>
</trkpt>
<trkpt lat="40.0713749" lon="-105.229789">
  <ele>1583.0</ele>
  <time>2026-08-28T17:51:27Z</time>
  <course>240.61</course>
  <speed>0.0</speed>
  <fix>3d</fix>
</trkpt>
<trkpt lat="40.0713749" lon="-105.229789">
  <ele>1583.0</ele>
  <time>2026-08-28T17:51:27Z</time>
  <course>0.0</course>
  <speed>0.0</speed>
  <fix>3d</fix>
</trkpt>
<trkpt lat="40.0713749" lon="-105.229789">
  <ele>1583.0</ele>
  <time>2026-08-28T17:51:27Z</time>
  <course>240.92</course>
  <speed>0.0</speed>
  <fix>3d</fix>
</trkpt>
<trkpt lat="40.0713749" lon="-105.229789">
  <ele>1583.0</ele>
  <time>2026-08-28T17:51:27Z</time>
  <course>0.0</course>
  <speed>0.0</speed>
  <fix>3d</fix>
</trkpt>
<trkpt lat="40.0713749" lon="-105.229789">
  <ele>1583.0</ele>
  <time>2026-08-28T17:51:28Z</time>
  <course>241.21</course>
  <speed>0.0</speed>
  <fix>3d</fix>
</trkpt>
<trkpt lat="40.0713749" lon="-105.229789">
  <ele>1583.0</ele>
  <time>2026-08-28T17:51:28Z</time>
  <course>0.0</course>
  <speed>0.0</speed>
  <fix>3d</fix>
</trkpt>
<trkpt lat="40.0713749" lon="-105.229789">
  <ele>1583.0</ele>
  <time>2026-08-28T17:51:28Z</time>
  <course>241.49</course>
  <speed>0.0</speed>
  <fix>3d</fix>
</trkpt>
<trkpt lat="40.0713749" lon="-105.229789">
  <ele>1583.0</ele>
  <time>2026-08-28T17:51:28Z</time>
  <course>0.0</course>
  <speed>0.0</speed>
  <fix>3d</fix>
</trkpt>
<trkpt lat="40.0713749" lon="-105.229789">
  <ele>1583.0</ele>
  <time>2026-08-28T17:51:28Z</time>
  <course>241.77</course>
  <speed>0.0</speed>
  <fix>3d</fix>
</trkpt>
<trkpt lat="40.0713749" lon="-105.229789">
  <ele>1583.0</ele>
  <time>2026-08-28T17:51:28Z</time>
  <course>0.0</course>
  <speed>0.0</speed>
  <fix>3d</fix>
</trkpt>
<trkpt lat="40.0713749" lon="-105.229789">
  <ele>1583.0</ele>
  <time>2026-08-28T17:51:28Z</time>
  <course>242.03</course>
  <speed>0.0</speed>
  <fix>3d</fix>
</trkpt>
<trkpt lat="40.0713749" lon="-105.229789">
  <ele>1583.0</ele>
  <time>2026-08-28T17:51:28Z</time>
  <course>0.0</course>
  <speed>0.0</speed>
  <fix>3d</fix>
</trkpt>
<trkpt lat="40.0713749" lon="-105.229789">
  <ele>1583.0</ele>
  <time>2026-08-28T17:51:28Z</time>
  <course>242.29</course>
  <speed>0.0</speed>
  <fix>3d</fix>
</trkpt>
<trkpt lat="40.0713749" lon="-105.229789">
  <ele>1583.0</ele>
  <time>2026-08-28T17:51:28Z</time>
  <course>0.0</course>
  <speed>0.0</speed>
  <fix>3d</fix>
</trkpt>
<trkpt lat="40.0713749" lon="-105.229789">
  <ele>1583.0</ele>
  <time>2026-08-28T17:51:28Z</time>
  <course>242.54</course>
  <speed>0.0</speed>
  <fix>3d</fix>
</trkpt>
<trkpt lat="40.0713749" lon="-105.229789">
  <ele>1583.0</ele>
  <time>2026-08-28T17:51:28Z</time>
  <course>0.0</course>
  <speed>0.0</speed>
  <fix>3d</fix>
</trkpt>
<trkpt lat="40.0713749" lon="-105.229789">
  <ele>1583.0</ele>
  <time>2026-08-28T17:51:28Z</time>
  <course>242.79</course>
  <speed>0.0</speed>
  <fix>3d</fix>
</trkpt>
<trkpt lat="40.0713749" lon="-105.229789">
  <ele>1583.0</ele>
  <time>2026-08-28T17:51:28Z</time>
  <course>0.0</course>
  <speed>0.0</speed>
  <fix>3d</fix>
</trkpt>
<trkpt lat="40.0713749" lon="-105.229789">
  <ele>1583.0</ele>
  <time>2026-08-28T17:51:28Z</time>
  <course>243.02</course>
  <speed>0.0</speed>
  <fix>3d</fix>
</trkpt>
<trkpt lat="40.0713749" lon="-105.229789">
  <ele>1583.0</ele>
  <time>2026-08-28T17:51:28Z</time>
  <course>0.0</course>
  <speed>0.0</speed>
  <fix>3d</fix>
</trkpt>
<trkpt lat="40.0713749" lon="-105.229789">
  <ele>1583.0</ele>
  <time>2026-08-28T17:51:28Z</time>
  <course>243.25</course>
  <speed>0.0</speed>
  <fix>3d</fix>
</trkpt>
<trkpt lat="40.0713749" lon="-105.229789">
  <ele>1583.0</ele>
  <time>2026-08-28T17:51:28Z</time>
  <course>0.0</course>
  <speed>0.0</speed>
  <fix>3d</fix>
</trkpt>
<trkpt lat="40.0713749" lon="-105.229789">
  <ele>1583.0</ele>
  <time>2026-08-28T17:51:28Z</time>
  <course>243.47</course>
  <speed>0.0</speed>
  <fix>3d</fix>
</trkpt>
<trkpt lat="40.0713749" lon="-105.229789">
  <ele>1583.0</ele>
  <time>2026-08-28T17:51:28Z</time>
  <course>0.0</course>
  <speed>0.0</speed>
  <fix>3d</fix>
</trkpt>
<trkpt lat="40.0713749" lon="-105.229789">
  <ele>1583.0</ele>
  <time>2026-08-28T17:51:28Z</time>
  <course>243.68</course>
  <speed>0.0</speed>
  <fix>3d</fix>
</trkpt>
<trkpt lat="40.0713749" lon="-105.229789">
  <ele>1583.0</ele>
  <time>2026-08-28T17:51:28Z</time>
  <course>0.0</course>
  <speed>0.0</speed>
  <fix>3d</fix>
</trkpt>
<trkpt lat="40.0713749" lon="-105.229789">
  <ele>1583.0</ele>
  <time>2026-08-28T17:51:28Z</time>
  <course>243.89</course>
  <speed>0.0</speed>
  <fix>3d</fix>
</trkpt>
<trkpt lat="40.0713749" lon="-105.229789">
  <ele>1583.0</ele>
  <time>2026-08-28T17:51:28Z</time>
  <course>0.0</course>
  <speed>0.0</speed>
  <fix>3d</fix>
</trkpt>
<trkpt lat="40.0713749" lon="-105.229789">
  <ele>1583.0</ele>
  <time>2026-08-28T17:51:28Z</time>
  <course>244.09</course>
  <speed>0.0</speed>
  <fix>3d</fix>
</trkpt>
<trkpt lat="40.0713749" lon="-105.229789">
  <ele>1583.0</ele>
  <time>2026-08-28T17:51:28Z</time>
  <course>0.0</course>
  <speed>0.0</speed>
  <fix>3d</fix>
</trkpt>
<trkpt lat="40.0713749" lon="-105.229789">
  <ele>1583.0</ele>
  <time>2026-08-28T17:51:28Z</time>
  <course>244.28</course>
  <speed>0.0</speed>
  <fix>3d</fix>
</trkpt>
<trkpt lat="40.0713749" lon="-105.229789">
  <ele>1583.0</ele>
  <time>2026-08-28T17:51:28Z</time>
  <course>0.0</course>
  <speed>0.0</speed>
  <fix>3d</fix>
</trkpt>
<trkpt lat="40.0713749" lon="-105.229789">
  <ele>1583.0</ele>
  <time>2026-08-28T17:51:28Z</time>
  <course>244.46</course>
  <speed>0.0</speed>
  <fix>3d</fix>
</trkpt>
<trkpt lat="40.0713749" lon="-105.229789">
  <ele>1583.0</ele>
  <time>2026-08-28T17:51:28Z</time>
  <course>0.0</course>
  <speed>0.0</speed>
  <fix>3d</fix>
</trkpt>
<trkpt lat="40.0713749" lon="-105.229789">
  <ele>1583.0</ele>
  <time>2026-08-28T17:51:28Z</time>
  <course>244.64</course>
  <speed>0.0</speed>
  <fix>3d</fix>
</trkpt>
<trkpt lat="40.0713749" lon="-105.229789">
  <ele>1583.0</ele>
  <time>2026-08-28T17:51:28Z</time>
  <course>0.0</course>
  <speed>0.0</speed>
  <fix>3d</fix>
</trkpt>
<trkpt lat="40.0713749" lon="-105.229789">
  <ele>1583.0</ele>
  <time>2026-08-28T17:51:28Z</time>
  <course>244.81</course>
  <speed>0.0</speed>
  <fix>3d</fix>
</trkpt>
<trkpt lat="40.0713749" lon="-105.229789">
  <ele>1583.0</ele>
  <time>2026-08-28T17:51:28Z</time>
  <course>0.0</course>
  <speed>0.0</speed>
  <fix>3d</fix>
</trkpt>
<trkpt lat="40.0713749" lon="-105.229789">
  <ele>1583.0</ele>
  <time>2026-08-28T17:51:28Z</time>
  <course>244.97</course>
  <speed>0.0</speed>
  <fix>3d</fix>
</trkpt>
<trkpt lat="40.0713749" lon="-105.229789">
  <ele>1583.0</ele>
  <time>2026-08-28T17:51:28Z</time>
  <course>0.0</course>
  <speed>0.0</speed>
  <fix>3d</fix>
</trkpt>
<trkpt lat="40.0713749" lon="-105.229789">
  <ele>1583.0</ele>
  <time>2026-08-28T17:51:28Z</time>
  <course>245.13</course>
  <speed>0.0</speed>
  <fix>3d</fix>
</trkpt>
<trkpt lat="40.0713749" lon="-105.229789">
  <ele>1583.0</ele>
  <time>2026-08-28T17:51:28Z</time>
  <course>0.0</course>
  <speed>0.0</speed>
  <fix>3d</fix>
</trkpt>
<trkpt lat="40.0713749" lon="-105.229789">
  <ele>1583.0</ele>
  <time>2026-08-28T17:51:28Z</time>
  <course>245.29</course>
  <speed>0.0</speed>
  <fix>3d</fix>
</trkpt>
<trkpt lat="40.0713749" lon="-105.229789">
  <ele>1583.0</ele>
  <time>2026-08-28T17:51:28Z</time>
  <course>0.0</course>
  <speed>0.0</speed>
  <fix>3d</fix>
</trkpt>
<trkpt lat="40.0713749" lon="-105.229789">
  <ele>1583.0</ele>
  <time>2026-08-28T17:51:28Z</time>
  <course>245.43</course>
  <speed>0.0</speed>
  <fix>3d</fix>
</trkpt>
<trkpt lat="40.0713749" lon="-105.229789">
  <ele>1583.0</ele>
  <time>2026-08-28T17:51:28Z</time>
  <course>0.0</course>
  <speed>0.0</speed>
  <fix>3d</fix>
</trkpt>
<trkpt lat="40.0713749" lon="-105.229789">
  <ele>1583.0</ele>
  <time>2026-08-28T17:51:28Z</time>
  <course>245.57</course>
  <speed>0.0</speed>
  <fix>3d</fix>
</trkpt>
<trkpt lat="40.0713749" lon="-105.229789">
  <ele>1583.0</ele>
  <time>2026-08-28T17:51:28Z</time>
  <course>0.0</course>
  <speed>0.0</speed>
  <fix>3d</fix>
</trkpt>
<trkpt lat="40.0713749" lon="-105.229789">
  <ele>1583.0</ele>
  <time>2026-08-28T17:51:28Z</time>
  <course>245.71</course>
  <speed>0.0</speed>
  <fix>3d</fix>
</trkpt>
<trkpt lat="40.0713749" lon="-105.229789">
  <ele>1583.0</ele>
  <time>2026-08-28T17:51:28Z</time>
  <course>0.0</course>
  <speed>0.0</speed>
  <fix>3d</fix>
</trkpt>
<trkpt lat="40.0713749" lon="-105.229789">
  <ele>1583.0</ele>
  <time>2026-08-28T17:51:28Z</time>
  <course>245.84</course>
  <speed>0.0</speed>
  <fix>3d</fix>
</trkpt>
<trkpt lat="40.0713749" lon="-105.229789">
  <ele>1583.0</ele>
  <time>2026-08-28T17:51:28Z</time>
  <course>0.0</course>
  <speed>0.0</speed>
  <fix>3d</fix>
</trkpt>
<trkpt lat="40.0713749" lon="-105.229789">
  <ele>1583.0</ele>
  <time>2026-08-28T17:51:28Z</time>
  <course>245.96</course>
  <speed>0.0</speed>
  <fix>3d</fix>
</trkpt>
<trkpt lat="40.0713749" lon="-105.229789">
  <ele>1583.0</ele>
  <time>2026-08-28T17:51:28Z</time>
  <course>0.0</course>
  <speed>0.0</speed>
  <fix>3d</fix>
</trkpt>
<trkpt lat="40.0713749" lon="-105.229789">
  <ele>1583.0</ele>
  <time>2026-08-28T17:51:28Z</time>
  <course>246.08</course>
  <speed>0.0</speed>
  <fix>3d</fix>
</trkpt>
<trkpt lat="40.0713749" lon="-105.229789">
  <ele>1583.0</ele>
  <time>2026-08-28T17:51:28Z</time>
  <course>0.0</course>
  <speed>0.0</speed>
  <fix>3d</fix>
</trkpt>
<trkpt lat="40.0713749" lon="-105.229789">
  <ele>1583.0</ele>
  <time>2026-08-28T17:51:28Z</time>
  <course>246.19</course>
  <speed>0.0</speed>
  <fix>3d</fix>
</trkpt>
<trkpt lat="40.0713749" lon="-105.229789">
  <ele>1583.0</ele>
  <time>2026-08-28T17:51:28Z</time>
  <course>0.0</course>
  <speed>0.0</speed>
  <fix>3d</fix>
</trkpt>
<trkpt lat="40.0713749" lon="-105.229789">
  <ele>1583.0</ele>
  <time>2026-08-28T17:51:28Z</time>
  <course>246.3</course>
  <speed>0.0</speed>
  <fix>3d</fix>
</trkpt>
<trkpt lat="40.0713749" lon="-105.229789">
  <ele>1583.0</ele>
  <time>2026-08-28T17:51:28Z</time>
  <course>0.0</course>
  <speed>0.0</speed>
  <fix>3d</fix>
</trkpt>
<trkpt lat="40.0713749" lon="-105.229789">
  <ele>1583.0</ele>
  <time>2026-08-28T17:51:28Z</time>
  <course>246.41</course>
  <speed>0.0</speed>
  <fix>3d</fix>
</trkpt>
<trkpt lat="40.0713749" lon="-105.229789">
  <ele>1583.0</ele>
  <time>2026-08-28T17:51:28Z</time>
  <course>0.0</course>
  <speed>0.0</speed>
  <fix>3d</fix>
</trkpt>
<trkpt lat="40.0713749" lon="-105.229789">
  <ele>1583.0</ele>
  <time>2026-08-28T17:51:28Z</time>
  <course>246.51</course>
  <speed>0.0</speed>
  <fix>3d</fix>
</trkpt>
<trkpt lat="40.0713749" lon="-105.229789">
  <ele>1583.0</ele>
  <time>2026-08-28T17:51:28Z</time>
  <course>0.0</course>
  <speed>0.0</speed>
  <fix>3d</fix>
</trkpt>
<trkpt lat="40.0713749" lon="-105.229789">
  <ele>1583.0</ele>
  <time>2026-08-28T17:51:28Z</time>
  <course>246.6</course>
  <speed>0.0</speed>
  <fix>3d</fix>
</trkpt>
<trkpt lat="40.0713749" lon="-105.229789">
  <ele>1583.0</ele>
  <time>2026-08-28T17:51:28Z</time>
  <course>0.0</course>
  <speed>0.0</speed>
  <fix>3d</fix>
</trkpt>
<trkpt lat="40.0713749" lon="-105.229789">
  <ele>1583.0</ele>
  <time>2026-08-28T17:51:28Z</time>
  <course>246.7</course>
  <speed>0.0</speed>
  <fix>3d</fix>
</trkpt>
<trkpt lat="40.0713749" lon="-105.229789">
  <ele>1583.0</ele>
  <time>2026-08-28T17:51:28Z</time>
  <course>0.0</course>
  <speed>0.0</speed>
  <fix>3d</fix>
</trkpt>
<trkpt lat="40.0713749" lon="-105.229789">
  <ele>1583.0</ele>
  <time>2026-08-28T17:51:28Z</time>
  <course>246.78</course>
  <speed>0.0</speed>
  <fix>3d</fix>
</trkpt>
<trkpt lat="40.0713749" lon="-105.229789">
  <ele>1583.0</ele>
  <time>2026-08-28T17:51:28Z</time>
  <course>0.0</course>
  <speed>0.0</speed>
  <fix>3d</fix>
</trkpt>
<trkpt lat="40.0713749" lon="-105.229789">
  <ele>1583.0</ele>
  <time>2026-08-28T17:51:28Z</time>
  <course>246.87</course>
  <speed>0.0</speed>
  <fix>3d</fix>
</trkpt>
<trkpt lat="40.0713749" lon="-105.229789">
  <ele>1583.0</ele>
  <time>2026-08-28T17:51:28Z</time>
  <course>0.0</course>
  <speed>0.0</speed>
  <fix>3d</fix>
</trkpt>
<trkpt lat="40.0713749" lon="-105.229789">
  <ele>1583.0</ele>
  <time>2026-08-28T17:51:28Z</time>
  <course>246.95</course>
  <speed>0.0</speed>
  <fix>3d</fix>
</trkpt>
<trkpt lat="40.0713749" lon="-105.229789">
  <ele>1583.0</ele>
  <time>2026-08-28T17:51:28Z</time>
  <course>0.0</course>
  <speed>0.0</speed>
  <fix>3d</fix>
</trkpt>
<trkpt lat="40.0713749" lon="-105.229789">
  <ele>1583.0</ele>
  <time>2026-08-28T17:51:28Z</time>
  <course>247.02</course>
  <speed>0.0</speed>
  <fix>3d</fix>
</trkpt>
<trkpt lat="40.0713749" lon="-105.229789">
  <ele>1583.0</ele>
  <time>2026-08-28T17:51:28Z</time>
  <course>0.0</course>
  <speed>0.0</speed>
  <fix>3d</fix>
</trkpt>
<trkpt lat="40.0713749" lon="-105.229789">
  <ele>1583.0</ele>
  <time>2026-08-28T17:51:28Z</time>
  <course>247.1</course>
  <speed>0.0</speed>
  <fix>3d</fix>
</trkpt>
<trkpt lat="40.0713749" lon="-105.229789">
  <ele>1583.0</ele>
  <time>2026-08-28T17:51:28Z</time>
  <course>0.0</course>
  <speed>0.0</speed>
  <fix>3d</fix>
</trkpt>
<trkpt lat="40.0713749" lon="-105.229789">
  <ele>1583.0</ele>
  <time>2026-08-28T17:51:28Z</time>
  <course>247.17</course>
  <speed>0.0</speed>
  <fix>3d</fix>
</trkpt>
<trkpt lat="40.0713749" lon="-105.229789">
  <ele>1583.0</ele>
  <time>2026-08-28T17:51:28Z</time>
  <course>0.0</course>
  <speed>0.0</speed>
  <fix>3d</fix>
</trkpt>
<trkpt lat="40.0713749" lon="-105.229789">
  <ele>1583.0</ele>
  <time>2026-08-28T17:51:28Z</time>
  <course>247.24</course>
  <speed>0.0</speed>
  <fix>3d</fix>
</trkpt>
<trkpt lat="40.0713749" lon="-105.229789">
  <ele>1583.0</ele>
  <time>2026-08-28T17:51:28Z</time>
  <course>0.0</course>
  <speed>0.0</speed>
  <fix>3d</fix>
</trkpt>
<trkpt lat="40.0713749" lon="-105.229789">
  <ele>1583.0</ele>
  <time>2026-08-28T17:51:28Z</time>
  <course>247.3</course>
  <speed>0.0</speed>
  <fix>3d</fix>
</trkpt>
<trkpt lat="40.0713749" lon="-105.229789">
  <ele>1583.0</ele>
  <time>2026-08-28T17:51:28Z</time>
  <course>0.0</course>
  <speed>0.0</speed>
  <fix>3d</fix>
</trkpt>
<trkpt lat="40.0713749" lon="-105.229789">
  <ele>1583.0</ele>
  <time>2026-08-28T17:51:28Z</time>
  <course>247.36</course>
  <speed>0.0</speed>
  <fix>3d</fix>
</trkpt>
<trkpt lat="40.0713749" lon="-105.229789">
  <ele>1583.0</ele>
  <time>2026-08-28T17:51:28Z</time>
  <course>0.0</course>
  <speed>0.0</speed>
  <fix>3d</fix>
</trkpt>
<trkpt lat="40.0713749" lon="-105.229789">
  <ele>1583.0</ele>
  <time>2026-08-28T17:51:28Z</time>
  <course>247.42</course>
  <speed>0.0</speed>
  <fix>3d</fix>
</trkpt>
<trkpt lat="40.0713749" lon="-105.229789">
  <ele>1583.0</ele>
  <time>2026-08-28T17:51:28Z</time>
  <course>0.0</course>
  <speed>0.0</speed>
  <fix>3d</fix>
</trkpt>
<trkpt lat="40.0713749" lon="-105.229789">
  <ele>1583.0</ele>
  <time>2026-08-28T17:51:28Z</time>
  <course>247.47</course>
  <speed>0.0</speed>
  <fix>3d</fix>
</trkpt>
<trkpt lat="40.0713749" lon="-105.229789">
  <ele>1583.0</ele>
  <time>2026-08-28T17:51:28Z</time>
  <course>0.0</course>
  <speed>0.0</speed>
  <fix>3d</fix>
</trkpt>
<trkpt lat="40.0713749" lon="-105.229789">
  <ele>1583.0</ele>
  <time>2026-08-28T17:51:28Z</time>
  <course>247.53</course>
  <speed>0.0</speed>
  <fix>3d</fix>
</trkpt>
<trkpt lat="40.0713749" lon="-105.229789">
  <ele>1583.0</ele>
  <time>2026-08-28T17:51:28Z</time>
  <course>0.0</course>
  <speed>0.0</speed>
  <fix>3d</fix>
</trkpt>
<trkpt lat="40.0713749" lon="-105.229789">
  <ele>1583.0</ele>
  <time>2026-08-28T17:51:28Z</time>
  <course>247.58</course>
  <speed>0.0</speed>
  <fix>3d</fix>
</trkpt>
<trkpt lat="40.0713749" lon="-105.229789">
  <ele>1583.0</ele>
  <time>2026-08-28T17:51:28Z</time>
  <course>0.0</course>
  <speed>0.0</speed>
  <fix>3d</fix>
</trkpt>
<trkpt lat="40.0713749" lon="-105.229789">
  <ele>1583.0</ele>
  <time>2026-08-28T17:51:28Z</time>
  <course>247.63</course>
  <speed>0.0</speed>
  <fix>3d</fix>
</trkpt>
<trkpt lat="40.0713749" lon="-105.229789">
  <ele>1583.0</ele>
  <time>2026-08-28T17:51:28Z</time>
  <course>0.0</course>
  <speed>0.0</speed>
  <fix>3d</fix>
</trkpt>
<trkpt lat="40.0713749" lon="-105.229789">
  <ele>1583.0</ele>
  <time>2026-08-28T17:51:28Z</time>
  <course>247.67</course>
  <speed>0.0</speed>
  <fix>3d</fix>
</trkpt>
<trkpt lat="40.0713749" lon="-105.229789">
  <ele>1583.0</ele>
  <time>2026-08-28T17:51:28Z</time>
  <course>0.0</course>
  <speed>0.0</speed>
  <fix>3d</fix>
</trkpt>
<trkpt lat="40.0713749" lon="-105.229789">
  <ele>1583.0</ele>
  <time>2026-08-28T17:51:28Z</time>
  <course>247.72</course>
  <speed>0.0</speed>
  <fix>3d</fix>
</trkpt>
<trkpt lat="40.0713749" lon="-105.229789">
  <ele>1583.0</ele>
  <time>2026-08-28T17:51:28Z</time>
  <course>0.0</course>
  <speed>0.0</speed>
  <fix>3d</fix>
</trkpt>
<trkpt lat="40.0713749" lon="-105.229789">
  <ele>1583.0</ele>
  <time>2026-08-28T17:51:28Z</time>
  <course>247.76</course>
  <speed>0.0</speed>
  <fix>3d</fix>
</trkpt>
<trkpt lat="40.0713749" lon="-105.229789">
  <ele>1583.0</ele>
  <time>2026-08-28T17:51:28Z</time>
  <course>0.0</course>
  <speed>0.0</speed>
  <fix>3d</fix>
</trkpt>
<trkpt lat="40.0713749" lon="-105.229789">
  <ele>1583.0</ele>
  <time>2026-08-28T17:51:28Z</time>
  <course>247.8</course>
  <speed>0.0</speed>
  <fix>3d</fix>
</trkpt>
<trkpt lat="40.0713749" lon="-105.229789">
  <ele>1583.0</ele>
  <time>2026-08-28T17:51:28Z</time>
  <course>0.0</course>
  <speed>0.0</speed>
  <fix>3d</fix>
</trkpt>
<trkpt lat="40.0713749" lon="-105.229789">
  <ele>1583.0</ele>
  <time>2026-08-28T17:51:28Z</time>
  <course>247.83</course>
  <speed>0.0</speed>
  <fix>3d</fix>
</trkpt>
<trkpt lat="40.0713749" lon="-105.229789">
  <ele>1583.0</ele>
  <time>2026-08-28T17:51:28Z</time>
  <course>0.0</course>
  <speed>0.0</speed>
  <fix>3d</fix>
</trkpt>
<trkpt lat="40.0713749" lon="-105.229789">
  <ele>1583.0</ele>
  <time>2026-08-28T17:51:28Z</time>
  <course>247.87</course>
  <speed>0.0</speed>
  <fix>3d</fix>
</trkpt>
<trkpt lat="40.0713749" lon="-105.229789">
  <ele>1583.0</ele>
  <time>2026-08-28T17:51:28Z</time>
  <course>0.0</course>
  <speed>0.0</speed>
  <fix>3d</fix>
</trkpt>
<trkpt lat="40.0713749" lon="-105.229789">
  <ele>1583.0</ele>
  <time>2026-08-28T17:51:28Z</time>
  <course>247.9</course>
  <speed>0.0</speed>
  <fix>3d</fix>
</trkpt>
<trkpt lat="40.0713749" lon="-105.229789">
  <ele>1583.0</ele>
  <time>2026-08-28T17:51:28Z</time>
  <course>0.0</course>
  <speed>0.0</speed>
  <fix>3d</fix>
</trkpt>
<trkpt lat="40.0713749" lon="-105.229789">
  <ele>1583.0</ele>
  <time>2026-08-28T17:51:28Z</time>
  <course>247.94</course>
  <speed>0.0</speed>
  <fix>3d</fix>
</trkpt>
<trkpt lat="40.0713749" lon="-105.229789">
  <ele>1583.0</ele>
  <time>2026-08-28T17:51:28Z</time>
  <course>0.0</course>
  <speed>0.0</speed>
  <fix>3d</fix>
</trkpt>
<trkpt lat="40.0713749" lon="-105.229789">
  <ele>1583.0</ele>
  <time>2026-08-28T17:51:28Z</time>
  <course>247.97</course>
  <speed>0.0</speed>
  <fix>3d</fix>
</trkpt>
<trkpt lat="40.0713749" lon="-105.229789">
  <ele>1583.0</ele>
  <time>2026-08-28T17:51:28Z</time>
  <course>0.0</course>
  <speed>0.0</speed>
  <fix>3d</fix>
</trkpt>
<trkpt lat="40.0713749" lon="-105.229789">
  <ele>1583.0</ele>
  <time>2026-08-28T17:51:28Z</time>
  <course>248.0</course>
  <speed>0.0</speed>
  <fix>3d</fix>
</trkpt>
<trkpt lat="40.0713749" lon="-105.229789">
  <ele>1583.0</ele>
  <time>2026-08-28T17:51:28Z</time>
  <course>0.0</course>
  <speed>0.0</speed>
  <fix>3d</fix>
</trkpt>
<trkpt lat="40.0713749" lon="-105.229789">
  <ele>1583.0</ele>
  <time>2026-08-28T17:51:28Z</time>
  <course>248.02</course>
  <speed>0.0</speed>
  <fix>3d</fix>
</trkpt>
<trkpt lat="40.0713749" lon="-105.229789">
  <ele>1583.0</ele>
  <time>2026-08-28T17:51:28Z</time>
  <course>0.0</course>
  <speed>0.0</speed>
  <fix>3d</fix>
</trkpt>
<trkpt lat="40.0713749" lon="-105.229789">
  <ele>1583.0</ele>
  <time>2026-08-28T17:51:28Z</time>
  <course>248.05</course>
  <speed>0.0</speed>
  <fix>3d</fix>
</trkpt>
<trkpt lat="40.0713749" lon="-105.229789">
  <ele>1583.0</ele>
  <time>2026-08-28T17:51:28Z</time>
  <course>0.0</course>
  <speed>0.0</speed>
  <fix>3d</fix>
</trkpt>
<trkpt lat="40.0713749" lon="-105.229789">
  <ele>1583.0</ele>
  <time>2026-08-28T17:51:28Z</time>
  <course>248.08</course>
  <speed>0.0</speed>
  <fix>3d</fix>
</trkpt>
<trkpt lat="40.0713749" lon="-105.229789">
  <ele>1583.0</ele>
  <time>2026-08-28T17:51:28Z</time>
  <course>0.0</course>
  <speed>0.0</speed>
  <fix>3d</fix>
</trkpt>
<trkpt lat="40.0713749" lon="-105.229789">
  <ele>1583.0</ele>
  <time>2026-08-28T17:51:28Z</time>
  <course>248.1</course>
  <speed>0.0</speed>
  <fix>3d</fix>
</trkpt>
<trkpt lat="40.0713749" lon="-105.229789">
  <ele>1583.0</ele>
  <time>2026-08-28T17:51:28Z</time>
  <course>0.0</course>
  <speed>0.0</speed>
  <fix>3d</fix>
</trkpt>
<trkpt lat="40.0713749" lon="-105.229789">
  <ele>1583.0</ele>
  <time>2026-08-28T17:51:28Z</time>
  <course>248.12</course>
  <speed>0.0</speed>
  <fix>3d</fix>
</trkpt>
<trkpt lat="40.0713749" lon="-105.229789">
  <ele>1583.0</ele>
  <time>2026-08-28T17:51:28Z</time>
  <course>0.0</course>
  <speed>0.0</speed>
  <fix>3d</fix>
</trkpt>
<trkpt lat="40.0713749" lon="-105.229789">
  <ele>1583.0</ele>
  <time>2026-08-28T17:51:28Z</time>
  <course>248.14</course>
  <speed>0.0</speed>
  <fix>3d</fix>
</trkpt>
<trkpt lat="40.0713749" lon="-105.229789">
  <ele>1583.0</ele>
  <time>2026-08-28T17:51:28Z</time>
  <course>0.0</course>
  <speed>0.0</speed>
  <fix>3d</fix>
</trkpt>
<trkpt lat="40.0713749" lon="-105.229789">
  <ele>1583.0</ele>
  <time>2026-08-28T17:51:28Z</time>
  <course>248.16</course>
  <speed>0.0</speed>
  <fix>3d</fix>
</trkpt>
<trkpt lat="40.0713749" lon="-105.229789">
  <ele>1583.0</ele>
  <time>2026-08-28T17:51:28Z</time>
  <course>0.0</course>
  <speed>0.0</speed>
  <fix>3d</fix>
</trkpt>
<trkpt lat="40.0713749" lon="-105.229789">
  <ele>1583.0</ele>
  <time>2026-08-28T17:51:28Z</time>
  <course>248.18</course>
  <speed>0.0</speed>
  <fix>3d</fix>
</trkpt>
<trkpt lat="40.0713749" lon="-105.229789">
  <ele>1583.0</ele>
  <time>2026-08-28T17:51:28Z</time>
  <course>0.0</course>
  <speed>0.0</speed>
  <fix>3d</fix>
</trkpt>
<trkpt lat="40.0713749" lon="-105.229789">
  <ele>1583.0</ele>
  <time>2026-08-28T17:51:28Z</time>
  <course>248.2</course>
  <speed>0.0</speed>
  <fix>3d</fix>
</trkpt>
<trkpt lat="40.0713749" lon="-105.229789">
  <ele>1583.0</ele>
  <time>2026-08-28T17:51:28Z</time>
  <course>0.0</course>
  <speed>0.0</speed>
  <fix>3d</fix>
</trkpt>
<trkpt lat="40.0713749" lon="-105.229789">
  <ele>1583.0</ele>
  <time>2026-08-28T17:51:28Z</time>
  <course>248.22</course>
  <speed>0.0</speed>
  <fix>3d</fix>
</trkpt>
<trkpt lat="40.0713749" lon="-105.229789">
  <ele>1583.0</ele>
  <time>2026-08-28T17:51:28Z</time>
  <course>0.0</course>
  <speed>0.0</speed>
  <fix>3d</fix>
</trkpt>
<trkpt lat="40.0713749" lon="-105.229789">
  <ele>1583.0</ele>
  <time>2026-08-28T17:51:28Z</time>
  <course>248.23</course>
  <speed>0.0</speed>
  <fix>3d</fix>
</trkpt>
<trkpt lat="40.0713749" lon="-105.229789">
  <ele>1583.0</ele>
  <time>2026-08-28T17:51:28Z</time>
  <course>0.0</course>
  <speed>0.0</speed>
  <fix>3d</fix>
</trkpt>
<trkpt lat="40.0713749" lon="-105.229789">
  <ele>1583.0</ele>
  <time>2026-08-28T17:51:28Z</time>
  <course>248.25</course>
  <speed>0.0</speed>
  <fix>3d</fix>
</trkpt>
<trkpt lat="40.0713749" lon="-105.229789">
  <ele>1583.0</ele>
  <time>2026-08-28T17:51:28Z</time>
  <course>0.0</course>
  <speed>0.0</speed>
  <fix>3d</fix>
</trkpt>
<trkpt lat="40.0713749" lon="-105.229789">
  <ele>1583.0</ele>
  <time>2026-08-28T17:51:28Z</time>
  <course>248.26</course>
  <speed>0.0</speed>
  <fix>3d</fix>
</trkpt>
<trkpt lat="40.0713749" lon="-105.229789">
  <ele>1583.0</ele>
  <time>2026-08-28T17:51:28Z</time>
  <course>0.0</course>
  <speed>0.0</speed>
  <fix>3d</fix>
</trkpt>
<trkpt lat="40.0713749" lon="-105.229789">
  <ele>1583.0</ele>
  <time>2026-08-28T17:51:28Z</time>
  <course>248.28</course>
  <speed>0.0</speed>
  <fix>3d</fix>
</trkpt>
<trkpt lat="40.0713749" lon="-105.229789">
  <ele>1583.0</ele>
  <time>2026-08-28T17:51:28Z</time>
  <course>0.0</course>
  <speed>0.0</speed>
  <fix>3d</fix>
</trkpt>
<trkpt lat="40.0713749" lon="-105.229789">
  <ele>1583.0</ele>
  <time>2026-08-28T17:51:28Z</time>
  <course>248.29</course>
  <speed>0.0</speed>
  <fix>3d</fix>
</trkpt>
<trkpt lat="40.0713749" lon="-105.229789">
  <ele>1583.0</ele>
  <time>2026-08-28T17:51:28Z</time>
  <course>0.0</course>
  <speed>0.0</speed>
  <fix>3d</fix>
</trkpt>
<trkpt lat="40.0713749" lon="-105.229789">
  <ele>1583.0</ele>
  <time>2026-08-28T17:51:28Z</time>
  <course>248.3</course>
  <speed>0.0</speed>
  <fix>3d</fix>
</trkpt>
<trkpt lat="40.0713749" lon="-105.229789">
  <ele>1583.0</ele>
  <time>2026-08-28T17:51:28Z</time>
  <course>0.0</course>
  <speed>0.0</speed>
  <fix>3d</fix>
</trkpt>
<trkpt lat="40.0713749" lon="-105.229789">
  <ele>1583.0</ele>
  <time>2026-08-28T17:51:28Z</time>
  <course>248.31</course>
  <speed>0.0</speed>
  <fix>3d</fix>
</trkpt>
<trkpt lat="40.0713749" lon="-105.229789">
  <ele>1583.0</ele>
  <time>2026-08-28T17:51:28Z</time>
  <course>0.0</course>
  <speed>0.0</speed>
  <fix>3d</fix>
</trkpt>
<trkpt lat="40.0713749" lon="-105.229789">
  <ele>1583.0</ele>
  <time>2026-08-28T17:51:28Z</time>
  <course>248.32</course>
  <speed>0.0</speed>
  <fix>3d</fix>
</trkpt>
<trkpt lat="40.0713749" lon="-105.229789">
  <ele>1583.0</ele>
  <time>2026-08-28T17:51:28Z</time>
  <course>0.0</course>
  <speed>0.0</speed>
  <fix>3d</fix>
</trkpt>
<trkpt lat="40.0713749" lon="-105.229789">
  <ele>1583.0</ele>
  <time>2026-08-28T17:51:28Z</time>
  <course>248.33</course>
  <speed>0.0</speed>
  <fix>3d</fix>
</trkpt>
<trkpt lat="40.0713749" lon="-105.229789">
  <ele>1583.0</ele>
  <time>2026-08-28T17:51:28Z</time>
  <course>0.0</course>
  <speed>0.0</speed>
  <fix>3d</fix>
</trkpt>
<trkpt lat="40.0713749" lon="-105.229789">
  <ele>1583.0</ele>
  <time>2026-08-28T17:51:28Z</time>
  <course>248.34</course>
  <speed>0.0</speed>
  <fix>3d</fix>
</trkpt>
<trkpt lat="40.0713749" lon="-105.229789">
  <ele>1583.0</ele>
  <time>2026-08-28T17:51:28Z</time>
  <course>0.0</course>
  <speed>0.0</speed>
  <fix>3d</fix>
</trkpt>
<trkpt lat="40.0713749" lon="-105.229789">
  <ele>1583.0</ele>
  <time>2026-08-28T17:51:28Z</time>
  <course>248.35</course>
  <speed>0.0</speed>
  <fix>3d</fix>
</trkpt>
<trkpt lat="40.0713749" lon="-105.229789">
  <ele>1583.0</ele>
  <time>2026-08-28T17:51:28Z</time>
  <course>0.0</course>
  <speed>0.0</speed>
  <fix>3d</fix>
</trkpt>
<trkpt lat="40.0713749" lon="-105.229789">
  <ele>1583.0</ele>
  <time>2026-08-28T17:51:28Z</time>
  <course>248.35</course>
  <speed>0.0</speed>
  <fix>3d</fix>
</trkpt>
<trkpt lat="40.0713749" lon="-105.229789">
  <ele>1583.0</ele>
  <time>2026-08-28T17:51:28Z</time>
  <course>0.0</course>
  <speed>0.0</speed>
  <fix>3d</fix>
</trkpt>
<trkpt lat="40.0713749" lon="-105.229789">
  <ele>1583.0</ele>
  <time>2026-08-28T17:51:28Z</time>
  <course>248.36</course>
  <speed>0.0</speed>
  <fix>3d</fix>
</trkpt>
<trkpt lat="40.0713749" lon="-105.229789">
  <ele>1583.0</ele>
  <time>2026-08-28T17:51:28Z</time>
  <course>0.0</course>
  <speed>0.0</speed>
  <fix>3d</fix>
</trkpt>
<trkpt lat="40.0713749" lon="-105.229789">
  <ele>1583.0</ele>
  <time>2026-08-28T17:51:28Z</time>
  <course>248.37</course>
  <speed>0.0</speed>
  <fix>3d</fix>
</trkpt>
<trkpt lat="40.0713749" lon="-105.229789">
  <ele>1583.0</ele>
  <time>2026-08-28T17:51:28Z</time>
  <course>0.0</course>
  <speed>0.0</speed>
  <fix>3d</fix>
</trkpt>
<trkpt lat="40.0713749" lon="-105.229789">
  <ele>1583.0</ele>
  <time>2026-08-28T17:51:28Z</time>
  <course>248.37</course>
  <speed>0.0</speed>
  <fix>3d</fix>
</trkpt>
<trkpt lat="40.0713749" lon="-105.229789">
  <ele>1583.0</ele>
  <time>2026-08-28T17:51:28Z</time>
  <course>0.0</course>
  <speed>0.0</speed>
  <fix>3d</fix>
</trkpt>
<trkpt lat="40.0713749" lon="-105.229789">
  <ele>1583.0</ele>
  <time>2026-08-28T17:51:28Z</time>
  <course>248.38</course>
  <speed>0.0</speed>
  <fix>3d</fix>
</trkpt>
<trkpt lat="40.0713749" lon="-105.229789">
  <ele>1583.0</ele>
  <time>2026-08-28T17:51:28Z</time>
  <course>0.0</course>
  <speed>0.0</speed>
  <fix>3d</fix>
</trkpt>
<trkpt lat="40.0713749" lon="-105.229789">
  <ele>1583.0</ele>
  <time>2026-08-28T17:51:28Z</time>
  <course>248.38</course>
  <speed>0.0</speed>
  <fix>3d</fix>
</trkpt>
<trkpt lat="40.0713749" lon="-105.229789">
  <ele>1583.0</ele>
  <time>2026-08-28T17:51:28Z</time>
  <course>0.0</course>
  <speed>0.0</speed>
  <fix>3d</fix>
</trkpt>
<trkpt lat="40.0713749" lon="-105.229789">
  <ele>1583.0</ele>
  <time>2026-08-28T17:51:28Z</time>
  <course>248.39</course>
  <speed>0.0</speed>
  <fix>3d</fix>
</trkpt>
<trkpt lat="40.0713749" lon="-105.229789">
  <ele>1583.0</ele>
  <time>2026-08-28T17:51:28Z</time>
  <course>0.0</course>
  <speed>0.0</speed>
  <fix>3d</fix>
</trkpt>
<trkpt lat="40.0713749" lon="-105.229789">
  <ele>1583.0</ele>
  <time>2026-08-28T17:51:28Z</time>
  <course>248.39</course>
  <speed>0.0</speed>
  <fix>3d</fix>
</trkpt>
<trkpt lat="40.0713749" lon="-105.229789">
  <ele>1583.0</ele>
  <time>2026-08-28T17:51:28Z</time>
  <course>0.0</course>
  <speed>0.0</speed>
  <fix>3d</fix>
</trkpt>
<trkpt lat="40.0713749" lon="-105.229789">
  <ele>1583.0</ele>
  <time>2026-08-28T17:51:28Z</time>
  <course>248.4</course>
  <speed>0.0</speed>
  <fix>3d</fix>
</trkpt>
<trkpt lat="40.0713749" lon="-105.229789">
  <ele>1583.0</ele>
  <time>2026-08-28T17:51:28Z</time>
  <course>0.0</course>
  <speed>0.0</speed>
  <fix>3d</fix>
</trkpt>
<trkpt lat="40.0713749" lon="-105.229789">
  <ele>1583.0</ele>
  <time>2026-08-28T17:51:28Z</time>
  <course>248.4</course>
  <speed>0.0</speed>
  <fix>3d</fix>
</trkpt>
<trkpt lat="40.0713749" lon="-105.229789">
  <ele>1583.0</ele>
  <time>2026-08-28T17:51:28Z</time>
  <course>0.0</course>
  <speed>0.0</speed>
  <fix>3d</fix>
</trkpt>
<trkpt lat="40.0713749" lon="-105.229789">
  <ele>1583.0</ele>
  <time>2026-08-28T17:51:28Z</time>
  <course>248.4</course>
  <speed>0.0</speed>
  <fix>3d</fix>
</trkpt>
<trkpt lat="40.0713749" lon="-105.229789">
  <ele>1583.0</ele>
  <time>2026-08-28T17:51:28Z</time>
  <course>0.0</course>
  <speed>0.0</speed>
  <fix>3d</fix>
</trkpt>
<trkpt lat="40.0713749" lon="-105.229789">
  <ele>1583.0</ele>
  <time>2026-08-28T17:51:28Z</time>
  <course>248.4</course>
  <speed>0.0</speed>
  <fix>3d</fix>
</trkpt>
<trkpt lat="40.0713749" lon="-105.229789">
  <ele>1583.0</ele>
  <time>2026-08-28T17:51:28Z</time>
  <course>0.0</course>
  <speed>0.0</speed>
  <fix>3d</fix>
</trkpt>
<trkpt lat="40.0713749" lon="-105.229789">
  <ele>1583.0</ele>
  <time>2026-08-28T17:51:28Z</time>
  <course>248.41</course>
  <speed>0.0</speed>
  <fix>3d</fix>
</trkpt>
<trkpt lat="40.0713749" lon="-105.229789">
  <ele>1583.0</ele>
  <time>2026-08-28T17:51:28Z</time>
  <course>0.0</course>
  <speed>0.0</speed>
  <fix>3d</fix>
</trkpt>
<trkpt lat="40.0713749" lon="-105.229789">
  <ele>1583.0</ele>
  <time>2026-08-28T17:51:28Z</time>
  <course>248.41</course>
  <speed>0.0</speed>
  <fix>3d</fix>
</trkpt>
<trkpt lat="40.0713749" lon="-105.229789">
  <ele>1583.0</ele>
  <time>2026-08-28T17:51:28Z</time>
  <course>0.0</course>
  <speed>0.0</speed>
  <fix>3d</fix>
</trkpt>
<trkpt lat="40.0713749" lon="-105.229789">
  <ele>1583.0</ele>
  <time>2026-08-28T17:51:28Z</time>
  <course>248.41</course>
  <speed>0.0</speed>
  <fix>3d</fix>
</trkpt>
<trkpt lat="40.0713749" lon="-105.229789">
  <ele>1583.0</ele>
  <time>2026-08-28T17:51:28Z</time>
  <course>0.0</course>
  <speed>0.0</speed>
  <fix>3d</fix>
</trkpt>
<trkpt lat="40.0713749" lon="-105.229789">
  <ele>1583.0</ele>
  <time>2026-08-28T17:51:28Z</time>
  <course>248.41</course>
  <speed>0.0</speed>
  <fix>3d</fix>
</trkpt>
<trkpt lat="40.0713749" lon="-105.229789">
  <ele>1583.0</ele>
  <time>2026-08-28T17:51:28Z</time>
  <course>0.0</course>
  <speed>0.0</speed>
  <fix>3d</fix>
</trkpt>
<trkpt lat="40.0713749" lon="-105.229789">
  <ele>1583.0</ele>
  <time>2026-08-28T17:51:28Z</time>
  <course>248.41</course>
  <speed>0.0</speed>
  <fix>3d</fix>
</trkpt>
<trkpt lat="40.0713749" lon="-105.229789">
  <ele>1583.0</ele>
  <time>2026-08-28T17:51:28Z</time>
  <course>0.0</course>
  <speed>0.0</speed>
  <fix>3d</fix>
</trkpt>
<trkpt lat="40.0713749" lon="-105.229789">
  <ele>1583.0</ele>
  <time>2026-08-28T17:51:28Z</time>
  <course>248.41</course>
  <speed>0.0</speed>
  <fix>3d</fix>
</trkpt>
<trkpt lat="40.0713749" lon="-105.229789">
  <ele>1583.0</ele>
  <time>2026-08-28T17:51:28Z</time>
  <course>0.0</course>
  <speed>0.0</speed>
  <fix>3d</fix>
</trkpt>
<trkpt lat="40.0713749" lon="-105.229789">
  <ele>1583.0</ele>
  <time>2026-08-28T17:51:28Z</time>
  <course>248.41</course>
  <speed>0.0</speed>
  <fix>3d</fix>
</trkpt>
<trkpt lat="40.0713749" lon="-105.229789">
  <ele>1583.0</ele>
  <time>2026-08-28T17:51:28Z</time>
  <course>0.0</course>
  <speed>0.0</speed>
  <fix>3d</fix>
</trkpt>
<trkpt lat="40.0713749" lon="-105.229789">
  <ele>1583.0</ele>
  <time>2026-08-28T17:51:28Z</time>
  <course>248.41</course>
  <speed>0.0</speed>
  <fix>3d</fix>
</trkpt>
<trkpt lat="40.0713749" lon="-105.229789">
  <ele>1583.0</ele>
  <time>2026-08-28T17:51:28Z</time>
  <course>0.0</course>
  <speed>0.0</speed>
  <fix>3d</fix>
</trkpt>
<trkpt lat="40.0713749" lon="-105.229789">
  <ele>1583.0</ele>
  <time>2026-08-28T17:51:28Z</time>
  <course>248.41</course>
  <speed>0.0</speed>
  <fix>3d</fix>
</trkpt>
<trkpt lat="40.0713749" lon="-105.229789">
  <ele>1583.0</ele>
  <time>2026-08-28T17:51:28Z</time>
  <course>0.0</course>
  <speed>0.0</speed>
  <fix>3d</fix>
</trkpt>
<trkpt lat="40.0713749" lon="-105.229789">
  <ele>1583.0</ele>
  <time>2026-08-28T17:51:28Z</time>
  <course>248.41</course>
  <speed>0.0</speed>
  <fix>3d</fix>
</trkpt>
<trkpt lat="40.0713749" lon="-105.229789">
  <ele>1583.0</ele>
  <time>2026-08-28T17:51:28Z</time>
  <course>0.0</course>
  <speed>0.0</speed>
  <fix>3d</fix>
</trkpt>
<trkpt lat="40.0713749" lon="-105.229789">
  <ele>1583.0</ele>
  <time>2026-08-28T17:51:28Z</time>
  <course>248.41</course>
  <speed>0.0</speed>
  <fix>3d</fix>
</trkpt>
<trkpt lat="40.0713749" lon="-105.229789">
  <ele>1583.0</ele>
  <time>2026-08-28T17:51:28Z</time>
  <course>0.0</course>
  <speed>0.0</speed>
  <fix>3d</fix>
</trkpt>
<trkpt lat="40.0713749" lon="-105.229789">
  <ele>1583.0</ele>
  <time>2026-08-28T17:51:28Z</time>
  <course>248.41</course>
  <speed>0.0</speed>
  <fix>3d</fix>
</trkpt>
<trkpt lat="40.0713749" lon="-105.229789">
  <ele>1583.0</ele>
  <time>2026-08-28T17:51:28Z</time>
  <course>0.0</course>
  <speed>0.0</speed>
  <fix>3d</fix>
</trkpt>
<trkpt lat="40.0713749" lon="-105.229789">
  <ele>1583.0</ele>
  <time>2026-08-28T17:51:28Z</time>
  <course>248.41</course>
  <speed>0.0</speed>
  <fix>3d</fix>
</trkpt>
<trkpt lat="40.0713749" lon="-105.229789">
  <ele>1583.0</ele>
  <time>2026-08-28T17:51:28Z</time>
  <course>0.0</course>
  <speed>0.0</speed>
  <fix>3d</fix>
</trkpt>
<trkpt lat="40.0713749" lon="-105.229789">
  <ele>1583.0</ele>
  <time>2026-08-28T17:51:28Z</time>
  <course>248.41</course>
  <speed>0.0</speed>
  <fix>3d</fix>
</trkpt>
<trkpt lat="40.0713749" lon="-105.229789">
  <ele>1583.0</ele>
  <time>2026-08-28T17:51:28Z</time>
  <course>0.0</course>
  <speed>0.0</speed>
  <fix>3d</fix>
</trkpt>
<trkpt lat="40.0713749" lon="-105.229789">
  <ele>1583.0</ele>
  <time>2026-08-28T17:51:28Z</time>
  <course>248.41</course>
  <speed>0.0</speed>
  <fix>3d</fix>
</trkpt>
<trkpt lat="40.0713749" lon="-105.229789">
  <ele>1583.0</ele>
  <time>2026-08-28T17:51:28Z</time>
  <course>0.0</course>
  <speed>0.0</speed>
  <fix>3d</fix>
</trkpt>
<trkpt lat="40.0713749" lon="-105.229789">
  <ele>1583.0</ele>
  <time>2026-08-28T17:51:28Z</time>
  <course>248.41</course>
  <speed>0.0</speed>
  <fix>3d</fix>
</trkpt>
<trkpt lat="40.0713749" lon="-105.229789">
  <ele>1583.0</ele>
  <time>2026-08-28T17:51:28Z</time>
  <course>0.0</course>
  <speed>0.0</speed>
  <fix>3d</fix>
</trkpt>
<trkpt lat="40.0713749" lon="-105.229789">
  <ele>1583.0</ele>
  <time>2026-08-28T17:51:28Z</time>
  <course>248.4</course>
  <speed>0.0</speed>
  <fix>3d</fix>
</trkpt>
<trkpt lat="40.0713749" lon="-105.229789">
  <ele>1583.0</ele>
  <time>2026-08-28T17:51:28Z</time>
  <course>0.0</course>
  <speed>0.0</speed>
  <fix>3d</fix>
</trkpt>
<trkpt lat="40.0713749" lon="-105.229789">
  <ele>1583.0</ele>
  <time>2026-08-28T17:51:28Z</time>
  <course>248.4</course>
  <speed>0.01</speed>
  <fix>3d</fix>
</trkpt>
<trkpt lat="40.0713749" lon="-105.229789">
  <ele>1583.0</ele>
  <time>2026-08-28T17:51:28Z</time>
  <course>0.0</course>
  <speed>0.0</speed>
  <fix>3d</fix>
</trkpt>
<trkpt lat="40.0713749" lon="-105.229789">
  <ele>1583.0</ele>
  <time>2026-08-28T17:51:28Z</time>
  <course>248.4</course>
  <speed>0.01</speed>
  <fix>3d</fix>
</trkpt>
<trkpt lat="40.0713749" lon="-105.229789">
  <ele>1583.0</ele>
  <time>2026-08-28T17:51:28Z</time>
  <course>0.0</course>
  <speed>0.0</speed>
  <fix>3d</fix>
</trkpt>
<trkpt lat="40.0713749" lon="-105.229789">
  <ele>1583.0</ele>
  <time>2026-08-28T17:51:28Z</time>
  <course>248.4</course>
  <speed>0.01</speed>
  <fix>3d</fix>
</trkpt>
<trkpt lat="40.0713749" lon="-105.229789">
  <ele>1583.0</ele>
  <time>2026-08-28T17:51:28Z</time>
  <course>0.0</course>
  <speed>0.0</speed>
  <fix>3d</fix>
</trkpt>
<trkpt lat="40.0713749" lon="-105.229789">
  <ele>1583.0</ele>
  <time>2026-08-28T17:51:28Z</time>
  <course>248.4</course>
  <speed>0.01</speed>
  <fix>3d</fix>
</trkpt>
<trkpt lat="40.0713749" lon="-105.229789">
  <ele>1583.0</ele>
  <time>2026-08-28T17:51:28Z</time>
  <course>0.0</course>
  <speed>0.0</speed>
  <fix>3d</fix>
</trkpt>
<trkpt lat="40.0713749" lon="-105.229789">
  <ele>1583.0</ele>
  <time>2026-08-28T17:51:28Z</time>
  <course>248.39</course>
  <speed>0.01</speed>
  <fix>3d</fix>
</trkpt>
<trkpt lat="40.0713749" lon="-105.229789">
  <ele>1583.0</ele>
  <time>2026-08-28T17:51:28Z</time>
  <course>0.0</course>
  <speed>0.0</speed>
  <fix>3d</fix>
</trkpt>
<trkpt lat="40.0713749" lon="-105.229789">
  <ele>1583.0</ele>
  <time>2026-08-28T17:51:28Z</time>
  <course>248.39</course>
  <speed>0.01</speed>
  <fix>3d</fix>
</trkpt>
<trkpt lat="40.0713749" lon="-105.229789">
  <ele>1583.0</ele>
  <time>2026-08-28T17:51:28Z</time>
  <course>0.0</course>
  <speed>0.0</speed>
  <fix>3d</fix>
</trkpt>
<trkpt lat="40.0713749" lon="-105.229789">
  <ele>1583.0</ele>
  <time>2026-08-28T17:51:28Z</time>
  <course>248.39</course>
  <speed>0.01</speed>
  <fix>3d</fix>
</trkpt>
<trkpt lat="40.0713749" lon="-105.229789">
  <ele>1583.0</ele>
  <time>2026-08-28T17:51:28Z</time>
  <course>0.0</course>
  <speed>0.0</speed>
  <fix>3d</fix>
</trkpt>
<trkpt lat="40.0713749" lon="-105.229789">
  <ele>1583.0</ele>
  <time>2026-08-28T17:51:28Z</time>
  <course>248.38</course>
  <speed>0.01</speed>
  <fix>3d</fix>
</trkpt>
<trkpt lat="40.0713749" lon="-105.229789">
  <ele>1583.0</ele>
  <time>2026-08-28T17:51:28Z</time>
  <course>0.0</course>
  <speed>0.0</speed>
  <fix>3d</fix>
</trkpt>
<trkpt lat="40.0713749" lon="-105.229789">
  <ele>1583.0</ele>
  <time>2026-08-28T17:51:28Z</time>
  <course>248.38</course>
  <speed>0.01</speed>
  <fix>3d</fix>
</trkpt>
<trkpt lat="40.0713749" lon="-105.229789">
  <ele>1583.0</ele>
  <time>2026-08-28T17:51:28Z</time>
  <course>0.0</course>
  <speed>0.0</speed>
  <fix>3d</fix>
</trkpt>
<trkpt lat="40.0713749" lon="-105.229789">
  <ele>1583.0</ele>
  <time>2026-08-28T17:51:28Z</time>
  <course>248.38</course>
  <speed>0.01</speed>
  <fix>3d</fix>
</trkpt>
<trkpt lat="40.0713749" lon="-105.229789">
  <ele>1583.0</ele>
  <time>2026-08-28T17:51:28Z</time>
  <course>0.0</course>
  <speed>0.0</speed>
  <fix>3d</fix>
</trkpt>
<trkpt lat="40.0713749" lon="-105.229789">
  <ele>1583.0</ele>
  <time>2026-08-28T17:51:28Z</time>
  <course>248.37</course>
  <speed>0.01</speed>
  <fix>3d</fix>
</trkpt>
<trkpt lat="40.0713749" lon="-105.229789">
  <ele>1583.0</ele>
  <time>2026-08-28T17:51:28Z</time>
  <course>0.0</course>
  <speed>0.0</speed>
  <fix>3d</fix>
</trkpt>
<trkpt lat="40.0713749" lon="-105.229789">
  <ele>1583.0</ele>
  <time>2026-08-28T17:51:28Z</time>
  <course>248.37</course>
  <speed>0.01</speed>
  <fix>3d</fix>
</trkpt>
<trkpt lat="40.0713749" lon="-105.229789">
  <ele>1583.0</ele>
  <time>2026-08-28T17:51:28Z</time>
  <course>0.0</course>
  <speed>0.0</speed>
  <fix>3d</fix>
</trkpt>
<trkpt lat="40.0713749" lon="-105.229789">
  <ele>1583.0</ele>
  <time>2026-08-28T17:51:28Z</time>
  <course>248.37</course>
  <speed>0.01</speed>
  <fix>3d</fix>
</trkpt>
<trkpt lat="40.0713749" lon="-105.229789">
  <ele>1583.0</ele>
  <time>2026-08-28T17:51:28Z</time>
  <course>0.0</course>
  <speed>0.0</speed>
  <fix>3d</fix>
</trkpt>
<trkpt lat="40.0713749" lon="-105.229789">
  <ele>1583.0</ele>
  <time>2026-08-28T17:51:28Z</time>
  <course>248.36</course>
  <speed>0.01</speed>
  <fix>3d</fix>
</trkpt>
<trkpt lat="40.0713749" lon="-105.229789">
  <ele>1583.0</ele>
  <time>2026-08-28T17:51:28Z</time>
  <course>0.0</course>
  <speed>0.0</speed>
  <fix>3d</fix>
</trkpt>
<trkpt lat="40.0713749" lon="-105.229789">
  <ele>1583.0</ele>
  <time>2026-08-28T17:51:28Z</time>
  <course>248.36</course>
  <speed>0.01</speed>
  <fix>3d</fix>
</trkpt>
<trkpt lat="40.0713749" lon="-105.229789">
  <ele>1583.0</ele>
  <time>2026-08-28T17:51:28Z</time>
  <course>0.0</course>
  <speed>0.0</speed>
  <fix>3d</fix>
</trkpt>
<trkpt lat="40.0713749" lon="-105.229789">
  <ele>1583.0</ele>
  <time>2026-08-28T17:51:28Z</time>
  <course>248.36</course>
  <speed>0.01</speed>
  <fix>3d</fix>
</trkpt>
<trkpt lat="40.0713749" lon="-105.229789">
  <ele>1583.0</ele>
  <time>2026-08-28T17:51:28Z</time>
  <course>0.0</course>
  <speed>0.0</speed>
  <fix>3d</fix>
</trkpt>
<trkpt lat="40.0713749" lon="-105.229789">
  <ele>1583.0</ele>
  <time>2026-08-28T17:51:28Z</time>
  <course>248.35</course>
  <speed>0.01</speed>
  <fix>3d</fix>
</trkpt>
<trkpt lat="40.0713749" lon="-105.229789">
  <ele>1583.0</ele>
  <time>2026-08-28T17:51:28Z</time>
  <course>0.0</course>
  <speed>0.0</speed>
  <fix>3d</fix>
</trkpt>
<trkpt lat="40.0713749" lon="-105.229789">
  <ele>1583.0</ele>
  <time>2026-08-28T17:51:28Z</time>
  <course>248.35</course>
  <speed>0.01</speed>
  <fix>3d</fix>
</trkpt>
<trkpt lat="40.0713749" lon="-105.229789">
  <ele>1583.0</ele>
  <time>2026-08-28T17:51:28Z</time>
  <course>0.0</course>
  <speed>0.0</speed>
  <fix>3d</fix>
</trkpt>
<trkpt lat="40.0713749" lon="-105.229789">
  <ele>1583.0</ele>
  <time>2026-08-28T17:51:28Z</time>
  <course>248.35</course>
  <speed>0.01</speed>
  <fix>3d</fix>
</trkpt>
<trkpt lat="40.0713749" lon="-105.229789">
  <ele>1583.0</ele>
  <time>2026-08-28T17:51:28Z</time>
  <course>0.0</course>
  <speed>0.0</speed>
  <fix>3d</fix>
</trkpt>
<trkpt lat="40.0713749" lon="-105.229789">
  <ele>1583.0</ele>
  <time>2026-08-28T17:51:28Z</time>
  <course>248.34</course>
  <speed>0.01</speed>
  <fix>3d</fix>
</trkpt>
<trkpt lat="40.0713749" lon="-105.229789">
  <ele>1583.0</ele>
  <time>2026-08-28T17:51:28Z</time>
  <course>0.0</course>
  <speed>0.0</speed>
  <fix>3d</fix>
</trkpt>
<trkpt lat="40.0713749" lon="-105.229789">
  <ele>1583.0</ele>
  <time>2026-08-28T17:51:28Z</time>
  <course>248.34</course>
  <speed>0.01</speed>
  <fix>3d</fix>
</trkpt>
<trkpt lat="40.0713749" lon="-105.229789">
  <ele>1583.0</ele>
  <time>2026-08-28T17:51:28Z</time>
  <course>0.0</course>
  <speed>0.0</speed>
  <fix>3d</fix>
</trkpt>
<trkpt lat="40.0713749" lon="-105.229789">
  <ele>1583.0</ele>
  <time>2026-08-28T17:51:28Z</time>
  <course>248.33</course>
  <speed>0.01</speed>
  <fix>3d</fix>
</trkpt>
<trkpt lat="40.0713749" lon="-105.229789">
  <ele>1583.0</ele>
  <time>2026-08-28T17:51:28Z</time>
  <course>0.0</course>
  <speed>0.0</speed>
  <fix>3d</fix>
</trkpt>
<trkpt lat="40.0713749" lon="-105.229789">
  <ele>1583.0</ele>
  <time>2026-08-28T17:51:28Z</time>
  <course>248.33</course>
  <speed>0.01</speed>
  <fix>3d</fix>
</trkpt>
<trkpt lat="40.0713749" lon="-105.229789">
  <ele>1583.0</ele>
  <time>2026-08-28T17:51:28Z</time>
  <course>0.0</course>
  <speed>0.0</speed>
  <fix>3d</fix>
</trkpt>
<trkpt lat="40.0713749" lon="-105.229789">
  <ele>1583.0</ele>
  <time>2026-08-28T17:51:28Z</time>
  <course>248.32</course>
  <speed>0.01</speed>
  <fix>3d</fix>
</trkpt>
<trkpt lat="40.0713749" lon="-105.229789">
  <ele>1583.0</ele>
  <time>2026-08-28T17:51:28Z</time>
  <course>0.0</course>
  <speed>0.0</speed>
  <fix>3d</fix>
</trkpt>
<trkpt lat="40.0713749" lon="-105.229789">
  <ele>1583.0</ele>
  <time>2026-08-28T17:51:28Z</time>
  <course>248.32</course>
  <speed>0.01</speed>
  <fix>3d</fix>
</trkpt>
<trkpt lat="40.0713749" lon="-105.229789">
  <ele>1583.0</ele>
  <time>2026-08-28T17:51:28Z</time>
  <course>0.0</course>
  <speed>0.0</speed>
  <fix>3d</fix>
</trkpt>
<trkpt lat="40.0713749" lon="-105.229789">
  <ele>1583.0</ele>
  <time>2026-08-28T17:51:28Z</time>
  <course>248.32</course>
  <speed>0.01</speed>
  <fix>3d</fix>
</trkpt>
<trkpt lat="40.0713749" lon="-105.229789">
  <ele>1583.0</ele>
  <time>2026-08-28T17:51:28Z</time>
  <course>0.0</course>
  <speed>0.0</speed>
  <fix>3d</fix>
</trkpt>
<trkpt lat="40.0713749" lon="-105.229789">
  <ele>1583.0</ele>
  <time>2026-08-28T17:51:28Z</time>
  <course>248.31</course>
  <speed>0.01</speed>
  <fix>3d</fix>
</trkpt>
<trkpt lat="40.0713749" lon="-105.229789">
  <ele>1583.0</ele>
  <time>2026-08-28T17:51:28Z</time>
  <course>0.0</course>
  <speed>0.0</speed>
  <fix>3d</fix>
</trkpt>
<trkpt lat="40.0713749" lon="-105.229789">
  <ele>1583.0</ele>
  <time>2026-08-28T17:51:28Z</time>
  <course>248.31</course>
  <speed>0.01</speed>
  <fix>3d</fix>
</trkpt>
<trkpt lat="40.0713749" lon="-105.229789">
  <ele>1583.0</ele>
  <time>2026-08-28T17:51:28Z</time>
  <course>0.0</course>
  <speed>0.0</speed>
  <fix>3d</fix>
</trkpt>
<trkpt lat="40.0713749" lon="-105.229789">
  <ele>1583.0</ele>
  <time>2026-08-28T17:51:28Z</time>
  <course>248.3</course>
  <speed>0.01</speed>
  <fix>3d</fix>
</trkpt>
<trkpt lat="40.0713749" lon="-105.229789">
  <ele>1583.0</ele>
  <time>2026-08-28T17:51:28Z</time>
  <course>0.0</course>
  <speed>0.0</speed>
  <fix>3d</fix>
</trkpt>
<trkpt lat="40.0713749" lon="-105.229789">
  <ele>1583.0</ele>
  <time>2026-08-28T17:51:28Z</time>
  <course>248.3</course>
  <speed>0.01</speed>
  <fix>3d</fix>
</trkpt>
<trkpt lat="40.0713749" lon="-105.229789">
  <ele>1583.0</ele>
  <time>2026-08-28T17:51:28Z</time>
  <course>0.0</course>
  <speed>0.0</speed>
  <fix>3d</fix>
</trkpt>
<trkpt lat="40.0713749" lon="-105.229789">
  <ele>1583.0</ele>
  <time>2026-08-28T17:51:28Z</time>
  <course>248.29</course>
  <speed>0.01</speed>
  <fix>3d</fix>
</trkpt>
<trkpt lat="40.0713749" lon="-105.229789">
  <ele>1583.0</ele>
  <time>2026-08-28T17:51:28Z</time>
  <course>0.0</course>
  <speed>0.0</speed>
  <fix>3d</fix>
</trkpt>
<trkpt lat="40.0713749" lon="-105.229789">
  <ele>1583.0</ele>
  <time>2026-08-28T17:51:28Z</time>
  <course>248.29</course>
  <speed>0.01</speed>
  <fix>3d</fix>
</trkpt>
<trkpt lat="40.0713749" lon="-105.229789">
  <ele>1583.0</ele>
  <time>2026-08-28T17:51:28Z</time>
  <course>0.0</course>
  <speed>0.0</speed>
  <fix>3d</fix>
</trkpt>
<trkpt lat="40.0713749" lon="-105.229789">
  <ele>1583.0</ele>
  <time>2026-08-28T17:51:28Z</time>
  <course>248.28</course>
  <speed>0.01</speed>
  <fix>3d</fix>
</trkpt>
<trkpt lat="40.0713749" lon="-105.229789">
  <ele>1583.0</ele>
  <time>2026-08-28T17:51:28Z</time>
  <course>0.0</course>
  <speed>0.0</speed>
  <fix>3d</fix>
</trkpt>
<trkpt lat="40.0713749" lon="-105.229789">
  <ele>1583.0</ele>
  <time>2026-08-28T17:51:28Z</time>
  <course>248.28</course>
  <speed>0.01</speed>
  <fix>3d</fix>
</trkpt>
<trkpt lat="40.0713749" lon="-105.229789">
  <ele>1583.0</ele>
  <time>2026-08-28T17:51:28Z</time>
  <course>0.0</course>
  <speed>0.0</speed>
  <fix>3d</fix>
</trkpt>
<trkpt lat="40.0713749" lon="-105.229789">
  <ele>1583.0</ele>
  <time>2026-08-28T17:51:28Z</time>
  <course>248.27</course>
  <speed>0.01</speed>
  <fix>3d</fix>
</trkpt>
<trkpt lat="40.0713749" lon="-105.229789">
  <ele>1583.0</ele>
  <time>2026-08-28T17:51:28Z</time>
  <course>0.0</course>
  <speed>0.0</speed>
  <fix>3d</fix>
</trkpt>
<trkpt lat="40.0713749" lon="-105.229789">
  <ele>1583.0</ele>
  <time>2026-08-28T17:51:28Z</time>
  <course>248.27</course>
  <speed>0.01</speed>
  <fix>3d</fix>
</trkpt>
<trkpt lat="40.0713749" lon="-105.229789">
  <ele>1583.0</ele>
  <time>2026-08-28T17:51:28Z</time>
  <course>0.0</course>
  <speed>0.0</speed>
  <fix>3d</fix>
</trkpt>
<trkpt lat="40.0713749" lon="-105.229789">
  <ele>1583.0</ele>
  <time>2026-08-28T17:51:28Z</time>
  <course>248.26</course>
  <speed>0.01</speed>
  <fix>3d</fix>
</trkpt>
<trkpt lat="40.0713749" lon="-105.229789">
  <ele>1583.0</ele>
  <time>2026-08-28T17:51:28Z</time>
  <course>0.0</course>
  <speed>0.0</speed>
  <fix>3d</fix>
</trkpt>
<trkpt lat="40.0713749" lon="-105.229789">
  <ele>1583.0</ele>
  <time>2026-08-28T17:51:28Z</time>
  <course>248.26</course>
  <speed>0.01</speed>
  <fix>3d</fix>
</trkpt>
<trkpt lat="40.0713749" lon="-105.229789">
  <ele>1583.0</ele>
  <time>2026-08-28T17:51:28Z</time>
  <course>0.0</course>
  <speed>0.0</speed>
  <fix>3d</fix>
</trkpt>
<trkpt lat="40.0713749" lon="-105.229789">
  <ele>1583.0</ele>
  <time>2026-08-28T17:51:28Z</time>
  <course>248.26</course>
  <speed>0.01</speed>
  <fix>3d</fix>
</trkpt>
<trkpt lat="40.0713749" lon="-105.229789">
  <ele>1583.0</ele>
  <time>2026-08-28T17:51:28Z</time>
  <course>0.0</course>
  <speed>0.0</speed>
  <fix>3d</fix>
</trkpt>
<trkpt lat="40.0713749" lon="-105.229789">
  <ele>1583.0</ele>
  <time>2026-08-28T17:51:28Z</time>
  <course>248.25</course>
  <speed>0.01</speed>
  <fix>3d</fix>
</trkpt>
<trkpt lat="40.0713749" lon="-105.229789">
  <ele>1583.0</ele>
  <time>2026-08-28T17:51:28Z</time>
  <course>0.0</course>
  <speed>0.0</speed>
  <fix>3d</fix>
</trkpt>
<trkpt lat="40.0713749" lon="-105.229789">
  <ele>1583.0</ele>
  <time>2026-08-28T17:51:28Z</time>
  <course>248.25</course>
  <speed>0.01</speed>
  <fix>3d</fix>
</trkpt>
<trkpt lat="40.0713749" lon="-105.229789">
  <ele>1583.0</ele>
  <time>2026-08-28T17:51:28Z</time>
  <course>0.0</course>
  <speed>0.0</speed>
  <fix>3d</fix>
</trkpt>
<trkpt lat="40.0713749" lon="-105.229789">
  <ele>1583.0</ele>
  <time>2026-08-28T17:51:28Z</time>
  <course>248.24</course>
  <speed>0.01</speed>
  <fix>3d</fix>
</trkpt>
<trkpt lat="40.0713749" lon="-105.229789">
  <ele>1583.0</ele>
  <time>2026-08-28T17:51:28Z</time>
  <course>0.0</course>
  <speed>0.0</speed>
  <fix>3d</fix>
</trkpt>
<trkpt lat="40.0713749" lon="-105.229789">
  <ele>1583.0</ele>
  <time>2026-08-28T17:51:28Z</time>
  <course>248.24</course>
  <speed>0.01</speed>
  <fix>3d</fix>
</trkpt>
<trkpt lat="40.0713749" lon="-105.229789">
  <ele>1583.0</ele>
  <time>2026-08-28T17:51:28Z</time>
  <course>0.0</course>
  <speed>0.0</speed>
  <fix>3d</fix>
</trkpt>
<trkpt lat="40.0713749" lon="-105.229789">
  <ele>1583.0</ele>
  <time>2026-08-28T17:51:28Z</time>
  <course>248.23</course>
  <speed>0.01</speed>
  <fix>3d</fix>
</trkpt>
<trkpt lat="40.0713749" lon="-105.229789">
  <ele>1583.0</ele>
  <time>2026-08-28T17:51:28Z</time>
  <course>0.0</course>
  <speed>0.0</speed>
  <fix>3d</fix>
</trkpt>
<trkpt lat="40.0713749" lon="-105.229789">
  <ele>1583.0</ele>
  <time>2026-08-28T17:51:28Z</time>
  <course>248.23</course>
  <speed>0.01</speed>
  <fix>3d</fix>
</trkpt>
<trkpt lat="40.0713749" lon="-105.229789">
  <ele>1583.0</ele>
  <time>2026-08-28T17:51:28Z</time>
  <course>0.0</course>
  <speed>0.0</speed>
  <fix>3d</fix>
</trkpt>
<trkpt lat="40.0713749" lon="-105.229789">
  <ele>1583.0</ele>
  <time>2026-08-28T17:51:28Z</time>
  <course>248.22</course>
  <speed>0.01</speed>
  <fix>3d</fix>
</trkpt>
<trkpt lat="40.0713749" lon="-105.229789">
  <ele>1583.0</ele>
  <time>2026-08-28T17:51:28Z</time>
  <course>0.0</course>
  <speed>0.0</speed>
  <fix>3d</fix>
</trkpt>
<trkpt lat="40.0713749" lon="-105.229789">
  <ele>1583.0</ele>
  <time>2026-08-28T17:51:28Z</time>
  <course>248.22</course>
  <speed>0.01</speed>
  <fix>3d</fix>
</trkpt>
<trkpt lat="40.0713749" lon="-105.229789">
  <ele>1583.0</ele>
  <time>2026-08-28T17:51:28Z</time>
  <course>0.0</course>
  <speed>0.0</speed>
  <fix>3d</fix>
</trkpt>
<trkpt lat="40.0713749" lon="-105.229789">
  <ele>1583.0</ele>
  <time>2026-08-28T17:51:28Z</time>
  <course>248.21</course>
  <speed>0.01</speed>
  <fix>3d</fix>
</trkpt>
<trkpt lat="40.0713749" lon="-105.229789">
  <ele>1583.0</ele>
  <time>2026-08-28T17:51:28Z</time>
  <course>0.0</course>
  <speed>0.0</speed>
  <fix>3d</fix>
</trkpt>
<trkpt lat="40.0713749" lon="-105.229789">
  <ele>1583.0</ele>
  <time>2026-08-28T17:51:28Z</time>
  <course>248.21</course>
  <speed>0.01</speed>
  <fix>3d</fix>
</trkpt>
<trkpt lat="40.0713749" lon="-105.229789">
  <ele>1583.0</ele>
  <time>2026-08-28T17:51:28Z</time>
  <course>0.0</course>
  <speed>0.0</speed>
  <fix>3d</fix>
</trkpt>
<trkpt lat="40.0713749" lon="-105.229789">
  <ele>1583.0</ele>
  <time>2026-08-28T17:51:28Z</time>
  <course>248.2</course>
  <speed>0.01</speed>
  <fix>3d</fix>
</trkpt>
<trkpt lat="40.0713749" lon="-105.229789">
  <ele>1583.0</ele>
  <time>2026-08-28T17:51:28Z</time>
  <course>0.0</course>
  <speed>0.0</speed>
  <fix>3d</fix>
</trkpt>
<trkpt lat="40.0713749" lon="-105.229789">
  <ele>1583.0</ele>
  <time>2026-08-28T17:51:28Z</time>
  <course>248.2</course>
  <speed>0.01</speed>
  <fix>3d</fix>
</trkpt>
<trkpt lat="40.0713749" lon="-105.229789">
  <ele>1583.0</ele>
  <time>2026-08-28T17:51:28Z</time>
  <course>0.0</course>
  <speed>0.0</speed>
  <fix>3d</fix>
</trkpt>
<trkpt lat="40.0713749" lon="-105.229789">
  <ele>1583.0</ele>
  <time>2026-08-28T17:51:28Z</time>
  <course>248.19</course>
  <speed>0.01</speed>
  <fix>3d</fix>
</trkpt>
<trkpt lat="40.0713749" lon="-105.229789">
  <ele>1583.0</ele>
  <time>2026-08-28T17:51:28Z</time>
  <course>0.0</course>
  <speed>0.0</speed>
  <fix>3d</fix>
</trkpt>
<trkpt lat="40.0713749" lon="-105.229789">
  <ele>1583.0</ele>
  <time>2026-08-28T17:51:28Z</time>
  <course>248.19</course>
  <speed>0.01</speed>
  <fix>3d</fix>
</trkpt>
<trkpt lat="40.0713749" lon="-105.229789">
  <ele>1583.0</ele>
  <time>2026-08-28T17:51:28Z</time>
  <course>0.0</course>
  <speed>0.0</speed>
  <fix>3d</fix>
</trkpt>
<trkpt lat="40.0713749" lon="-105.229789">
  <ele>1583.0</ele>
  <time>2026-08-28T17:51:28Z</time>
  <course>248.18</course>
  <speed>0.01</speed>
  <fix>3d</fix>
</trkpt>
<trkpt lat="40.0713749" lon="-105.229789">
  <ele>1583.0</ele>
  <time>2026-08-28T17:51:28Z</time>
  <course>0.0</course>
  <speed>0.0</speed>
  <fix>3d</fix>
</trkpt>
<trkpt lat="40.0713749" lon="-105.229789">
  <ele>1583.0</ele>
  <time>2026-08-28T17:51:28Z</time>
  <course>248.18</course>
  <speed>0.01</speed>
  <fix>3d</fix>
</trkpt>
<trkpt lat="40.0713749" lon="-105.229789">
  <ele>1583.0</ele>
  <time>2026-08-28T17:51:28Z</time>
  <course>0.0</course>
  <speed>0.0</speed>
  <fix>3d</fix>
</trkpt>
<trkpt lat="40.0713749" lon="-105.229789">
  <ele>1583.0</ele>
  <time>2026-08-28T17:51:28Z</time>
  <course>248.17</course>
  <speed>0.022360679774997897</speed>
  <fix>3d</fix>
</trkpt>
<trkpt lat="40.0713749" lon="-105.229789">
  <ele>1583.0</ele>
  <time>2026-08-28T17:51:28Z</time>
  <course>0.0</course>
  <speed>0.0</speed>
  <fix>3d</fix>
</trkpt>
<trkpt lat="40.0713749" lon="-105.229789">
  <ele>1583.0</ele>
  <time>2026-08-28T17:51:28Z</time>
  <course>248.17</course>
  <speed>0.022360679774997897</speed>
  <fix>3d</fix>
</trkpt>
<trkpt lat="40.0713749" lon="-105.229789">
  <ele>1583.0</ele>
  <time>2026-08-28T17:51:28Z</time>
  <course>0.0</course>
  <speed>0.0</speed>
  <fix>3d</fix>
</trkpt>
<trkpt lat="40.0713749" lon="-105.229789">
  <ele>1583.0</ele>
  <time>2026-08-28T17:51:28Z</time>
  <course>248.16</course>
  <speed>0.022360679774997897</speed>
  <fix>3d</fix>
</trkpt>
<trkpt lat="40.0713749" lon="-105.229789">
  <ele>1583.0</ele>
  <time>2026-08-28T17:51:28Z</time>
  <course>0.0</course>
  <speed>0.0</speed>
  <fix>3d</fix>
</trkpt>
<trkpt lat="40.0713749" lon="-105.229789">
  <ele>1583.0</ele>
  <time>2026-08-28T17:51:28Z</time>
  <course>248.16</course>
  <speed>0.022360679774997897</speed>
  <fix>3d</fix>
</trkpt>
<trkpt lat="40.0713749" lon="-105.229789">
  <ele>1583.0</ele>
  <time>2026-08-28T17:51:28Z</time>
  <course>0.0</course>
  <speed>0.0</speed>
  <fix>3d</fix>
</trkpt>
<trkpt lat="40.0713749" lon="-105.229789">
  <ele>1583.0</ele>
  <time>2026-08-28T17:51:28Z</time>
  <course>248.15</course>
  <speed>0.022360679774997897</speed>
  <fix>3d</fix>
</trkpt>
<trkpt lat="40.0713749" lon="-105.229789">
  <ele>1583.0</ele>
  <time>2026-08-28T17:51:28Z</time>
  <course>0.0</course>
  <speed>0.0</speed>
  <fix>3d</fix>
</trkpt>
<trkpt lat="40.0713749" lon="-105.229789">
  <ele>1583.0</ele>
  <time>2026-08-28T17:51:28Z</time>
  <course>248.15</course>
  <speed>0.022360679774997897</speed>
  <fix>3d</fix>
</trkpt>
<trkpt lat="40.0713749" lon="-105.229789">
  <ele>1583.0</ele>
  <time>2026-08-28T17:51:28Z</time>
  <course>0.0</course>
  <speed>0.0</speed>
  <fix>3d</fix>
</trkpt>
<trkpt lat="40.0713749" lon="-105.229789">
  <ele>1583.0</ele>
  <time>2026-08-28T17:51:28Z</time>
  <course>248.14</course>
  <speed>0.022360679774997897</speed>
  <fix>3d</fix>
</trkpt>
<trkpt lat="40.0713749" lon="-105.229789">
  <ele>1583.0</ele>
  <time>2026-08-28T17:51:28Z</time>
  <course>0.0</course>
  <speed>0.0</speed>
  <fix>3d</fix>
</trkpt>
<trkpt lat="40.0713749" lon="-105.229789">
  <ele>1583.0</ele>
  <time>2026-08-28T17:51:28Z</time>
  <course>248.14</course>
  <speed>0.022360679774997897</speed>
  <fix>3d</fix>
</trkpt>
<trkpt lat="40.0713749" lon="-105.229789">
  <ele>1583.0</ele>
  <time>2026-08-28T17:51:28Z</time>
  <course>0.0</course>
  <speed>0.0</speed>
  <fix>3d</fix>
</trkpt>
<trkpt lat="40.0713749" lon="-105.229789">
  <ele>1583.0</ele>
  <time>2026-08-28T17:51:28Z</time>
  <course>248.13</course>
  <speed>0.022360679774997897</speed>
  <fix>3d</fix>
</trkpt>
<trkpt lat="40.0713749" lon="-105.229789">
  <ele>1583.0</ele>
  <time>2026-08-28T17:51:28Z</time>
  <course>0.0</course>
  <speed>0.0</speed>
  <fix>3d</fix>
</trkpt>
<trkpt lat="40.0713749" lon="-105.229789">
  <ele>1583.0</ele>
  <time>2026-08-28T17:51:28Z</time>
  <course>248.13</course>
  <speed>0.022360679774997897</speed>
  <fix>3d</fix>
</trkpt>
<trkpt lat="40.0713749" lon="-105.229789">
  <ele>1583.0</ele>
  <time>2026-08-28T17:51:28Z</time>
  <course>0.0</course>
  <speed>0.0</speed>
  <fix>3d</fix>
</trkpt>
<trkpt lat="40.0713749" lon="-105.229789">
  <ele>1583.0</ele>
  <time>2026-08-28T17:51:28Z</time>
  <course>248.12</course>
  <speed>0.022360679774997897</speed>
  <fix>3d</fix>
</trkpt>
<trkpt lat="40.0713749" lon="-105.229789">
  <ele>1583.0</ele>
  <time>2026-08-28T17:51:28Z</time>
  <course>0.0</course>
  <speed>0.0</speed>
  <fix>3d</fix>
</trkpt>
<trkpt lat="40.0713749" lon="-105.229789">
  <ele>1583.0</ele>
  <time>2026-08-28T17:51:28Z</time>
  <course>248.12</course>
  <speed>0.022360679774997897</speed>
  <fix>3d</fix>
</trkpt>
<trkpt lat="40.0713749" lon="-105.229789">
  <ele>1583.0</ele>
  <time>2026-08-28T17:51:28Z</time>
  <course>0.0</course>
  <speed>0.0</speed>
  <fix>3d</fix>
</trkpt>
<trkpt lat="40.0713749" lon="-105.229789">
  <ele>1583.0</ele>
  <time>2026-08-28T17:51:28Z</time>
  <course>248.11</course>
  <speed>0.022360679774997897</speed>
  <fix>3d</fix>
</trkpt>
<trkpt lat="40.0713749" lon="-105.229789">
  <ele>1583.0</ele>
  <time>2026-08-28T17:51:28Z</time>
  <course>0.0</course>
  <speed>0.0</speed>
  <fix>3d</fix>
</trkpt>
<trkpt lat="40.0713749" lon="-105.229789">
  <ele>1583.0</ele>
  <time>2026-08-28T17:51:28Z</time>
  <course>248.11</course>
  <speed>0.022360679774997897</speed>
  <fix>3d</fix>
</trkpt>
<trkpt lat="40.0713749" lon="-105.229789">
  <ele>1583.0</ele>
  <time>2026-08-28T17:51:28Z</time>
  <course>0.0</course>
  <speed>0.0</speed>
  <fix>3d</fix>
</trkpt>
<trkpt lat="40.0713749" lon="-105.229789">
  <ele>1583.0</ele>
  <time>2026-08-28T17:51:28Z</time>
  <course>248.1</course>
  <speed>0.022360679774997897</speed>
  <fix>3d</fix>
</trkpt>
<trkpt lat="40.0713749" lon="-105.229789">
  <ele>1583.0</ele>
  <time>2026-08-28T17:51:28Z</time>
  <course>0.0</course>
  <speed>0.0</speed>
  <fix>3d</fix>
</trkpt>
<trkpt lat="40.0713749" lon="-105.229789">
  <ele>1583.0</ele>
  <time>2026-08-28T17:51:28Z</time>
  <course>248.1</course>
  <speed>0.022360679774997897</speed>
  <fix>3d</fix>
</trkpt>
<trkpt lat="40.0713749" lon="-105.229789">
  <ele>1583.0</ele>
  <time>2026-08-28T17:51:28Z</time>
  <course>0.0</course>
  <speed>0.0</speed>
  <fix>3d</fix>
</trkpt>
<trkpt lat="40.0713749" lon="-105.229789">
  <ele>1583.0</ele>
  <time>2026-08-28T17:51:28Z</time>
  <course>248.09</course>
  <speed>0.022360679774997897</speed>
  <fix>3d</fix>
</trkpt>
<trkpt lat="40.0713749" lon="-105.229789">
  <ele>1583.0</ele>
  <time>2026-08-28T17:51:28Z</time>
  <course>0.0</course>
  <speed>0.0</speed>
  <fix>3d</fix>
</trkpt>
<trkpt lat="40.0713749" lon="-105.229789">
  <ele>1583.0</ele>
  <time>2026-08-28T17:51:28Z</time>
  <course>248.09</course>
  <speed>0.022360679774997897</speed>
  <fix>3d</fix>
</trkpt>
<trkpt lat="40.0713749" lon="-105.229789">
  <ele>1583.0</ele>
  <time>2026-08-28T17:51:28Z</time>
  <course>0.0</course>
  <speed>0.0</speed>
  <fix>3d</fix>
</trkpt>
<trkpt lat="40.0713749" lon="-105.229789">
  <ele>1583.0</ele>
  <time>2026-08-28T17:51:28Z</time>
  <course>248.08</course>
  <speed>0.022360679774997897</speed>
  <fix>3d</fix>
</trkpt>
<trkpt lat="40.0713749" lon="-105.229789">
  <ele>1583.0</ele>
  <time>2026-08-28T17:51:28Z</time>
  <course>0.0</course>
  <speed>0.0</speed>
  <fix>3d</fix>
</trkpt>
<trkpt lat="40.0713749" lon="-105.229789">
  <ele>1583.0</ele>
  <time>2026-08-28T17:51:28Z</time>
  <course>248.08</course>
  <speed>0.022360679774997897</speed>
  <fix>3d</fix>
</trkpt>
<trkpt lat="40.0713749" lon="-105.229789">
  <ele>1583.0</ele>
  <time>2026-08-28T17:51:28Z</time>
  <course>0.0</course>
  <speed>0.0</speed>
  <fix>3d</fix>
</trkpt>
<trkpt lat="40.0713749" lon="-105.229789">
  <ele>1583.0</ele>
  <time>2026-08-28T17:51:28Z</time>
  <course>248.07</course>
  <speed>0.022360679774997897</speed>
  <fix>3d</fix>
</trkpt>
<trkpt lat="40.0713749" lon="-105.229789">
  <ele>1583.0</ele>
  <time>2026-08-28T17:51:28Z</time>
  <course>0.0</course>
  <speed>0.0</speed>
  <fix>3d</fix>
</trkpt>
<trkpt lat="40.0713749" lon="-105.229789">
  <ele>1583.0</ele>
  <time>2026-08-28T17:51:28Z</time>
  <course>248.07</course>
  <speed>0.022360679774997897</speed>
  <fix>3d</fix>
</trkpt>
<trkpt lat="40.0713749" lon="-105.229789">
  <ele>1583.0</ele>
  <time>2026-08-28T17:51:28Z</time>
  <course>0.0</course>
  <speed>0.0</speed>
  <fix>3d</fix>
</trkpt>
<trkpt lat="40.0713749" lon="-105.229789">
  <ele>1583.0</ele>
  <time>2026-08-28T17:51:28Z</time>
  <course>248.06</course>
  <speed>0.022360679774997897</speed>
  <fix>3d</fix>
</trkpt>
<trkpt lat="40.0713749" lon="-105.229789">
  <ele>1583.0</ele>
  <time>2026-08-28T17:51:28Z</time>
  <course>0.0</course>
  <speed>0.0</speed>
  <fix>3d</fix>
</trkpt>
<trkpt lat="40.0713749" lon="-105.229789">
  <ele>1583.0</ele>
  <time>2026-08-28T17:51:28Z</time>
  <course>248.06</course>
  <speed>0.022360679774997897</speed>
  <fix>3d</fix>
</trkpt>
<trkpt lat="40.0713749" lon="-105.229789">
  <ele>1583.0</ele>
  <time>2026-08-28T17:51:28Z</time>
  <course>0.0</course>
  <speed>0.0</speed>
  <fix>3d</fix>
</trkpt>
<trkpt lat="40.0713749" lon="-105.229789">
  <ele>1583.0</ele>
  <time>2026-08-28T17:51:28Z</time>
  <course>248.05</course>
  <speed>0.022360679774997897</speed>
  <fix>3d</fix>
</trkpt>
<trkpt lat="40.0713749" lon="-105.229789">
  <ele>1583.0</ele>
  <time>2026-08-28T17:51:28Z</time>
  <course>0.0</course>
  <speed>0.0</speed>
  <fix>3d</fix>
</trkpt>
<trkpt lat="40.0713749" lon="-105.229789">
  <ele>1583.0</ele>
  <time>2026-08-28T17:51:28Z</time>
  <course>248.05</course>
  <speed>0.022360679774997897</speed>
  <fix>3d</fix>
</trkpt>
<trkpt lat="40.0713749" lon="-105.229789">
  <ele>1583.0</ele>
  <time>2026-08-28T17:51:28Z</time>
  <course>0.0</course>
  <speed>0.0</speed>
  <fix>3d</fix>
</trkpt>
<trkpt lat="40.0713749" lon="-105.229789">
  <ele>1583.0</ele>
  <time>2026-08-28T17:51:28Z</time>
  <course>248.05</course>
  <speed>0.022360679774997897</speed>
  <fix>3d</fix>
</trkpt>
<trkpt lat="40.0713749" lon="-105.229789">
  <ele>1583.0</ele>
  <time>2026-08-28T17:51:28Z</time>
  <course>0.0</course>
  <speed>0.0</speed>
  <fix>3d</fix>
</trkpt>
<trkpt lat="40.0713749" lon="-105.229789">
  <ele>1583.0</ele>
  <time>2026-08-28T17:51:28Z</time>
  <course>248.04</course>
  <speed>0.022360679774997897</speed>
  <fix>3d</fix>
</trkpt>
<trkpt lat="40.0713749" lon="-105.229789">
  <ele>1583.0</ele>
  <time>2026-08-28T17:51:28Z</time>
  <course>0.0</course>
  <speed>0.0</speed>
  <fix>3d</fix>
</trkpt>
<trkpt lat="40.0713749" lon="-105.229789">
  <ele>1583.0</ele>
  <time>2026-08-28T17:51:28Z</time>
  <course>248.04</course>
  <speed>0.022360679774997897</speed>
  <fix>3d</fix>
</trkpt>
<trkpt lat="40.0713749" lon="-105.229789">
  <ele>1583.0</ele>
  <time>2026-08-28T17:51:28Z</time>
  <course>0.0</course>
  <speed>0.0</speed>
  <fix>3d</fix>
</trkpt>
<trkpt lat="40.0713749" lon="-105.229789">
  <ele>1583.0</ele>
  <time>2026-08-28T17:51:28Z</time>
  <course>248.03</course>
  <speed>0.022360679774997897</speed>
  <fix>3d</fix>
</trkpt>
<trkpt lat="40.0713749" lon="-105.229789">
  <ele>1583.0</ele>
  <time>2026-08-28T17:51:28Z</time>
  <course>0.0</course>
  <speed>0.0</speed>
  <fix>3d</fix>
</trkpt>
<trkpt lat="40.0713749" lon="-105.229789">
  <ele>1583.0</ele>
  <time>2026-08-28T17:51:28Z</time>
  <course>248.03</course>
  <speed>0.022360679774997897</speed>
  <fix>3d</fix>
</trkpt>
<trkpt lat="40.0713749" lon="-105.229789">
  <ele>1583.0</ele>
  <time>2026-08-28T17:51:28Z</time>
  <course>0.0</course>
  <speed>0.0</speed>
  <fix>3d</fix>
</trkpt>
<trkpt lat="40.0713749" lon="-105.229789">
  <ele>1583.0</ele>
  <time>2026-08-28T17:51:28Z</time>
  <course>248.02</course>
  <speed>0.022360679774997897</speed>
  <fix>3d</fix>
</trkpt>
<trkpt lat="40.0713749" lon="-105.229789">
  <ele>1583.0</ele>
  <time>2026-08-28T17:51:28Z</time>
  <course>0.0</course>
  <speed>0.0</speed>
  <fix>3d</fix>
</trkpt>
<trkpt lat="40.0713749" lon="-105.229789">
  <ele>1583.0</ele>
  <time>2026-08-28T17:51:28Z</time>
  <course>248.02</course>
  <speed>0.022360679774997897</speed>
  <fix>3d</fix>
</trkpt>
<trkpt lat="40.0713749" lon="-105.229789">
  <ele>1583.0</ele>
  <time>2026-08-28T17:51:28Z</time>
  <course>0.0</course>
  <speed>0.0</speed>
  <fix>3d</fix>
</trkpt>
<trkpt lat="40.0713749" lon="-105.229789">
  <ele>1583.0</ele>
  <time>2026-08-28T17:51:28Z</time>
  <course>248.01</course>
  <speed>0.022360679774997897</speed>
  <fix>3d</fix>
</trkpt>
<trkpt lat="40.0713749" lon="-105.229789">
  <ele>1583.0</ele>
  <time>2026-08-28T17:51:28Z</time>
  <course>0.0</course>
  <speed>0.0</speed>
  <fix>3d</fix>
</trkpt>
<trkpt lat="40.0713749" lon="-105.229789">
  <ele>1583.0</ele>
  <time>2026-08-28T17:51:28Z</time>
  <course>248.01</course>
  <speed>0.022360679774997897</speed>
  <fix>3d</fix>
</trkpt>
<trkpt lat="40.0713749" lon="-105.229789">
  <ele>1583.0</ele>
  <time>2026-08-28T17:51:28Z</time>
  <course>0.0</course>
  <speed>0.0</speed>
  <fix>3d</fix>
</trkpt>
<trkpt lat="40.0713749" lon="-105.229789">
  <ele>1583.0</ele>
  <time>2026-08-28T17:51:28Z</time>
  <course>248.0</course>
  <speed>0.022360679774997897</speed>
  <fix>3d</fix>
</trkpt>
<trkpt lat="40.0713749" lon="-105.229789">
  <ele>1583.0</ele>
  <time>2026-08-28T17:51:28Z</time>
  <course>0.0</course>
  <speed>0.0</speed>
  <fix>3d</fix>
</trkpt>
<trkpt lat="40.0713749" lon="-105.229789">
  <ele>1583.0</ele>
  <time>2026-08-28T17:51:28Z</time>
  <course>248.0</course>
  <speed>0.022360679774997897</speed>
  <fix>3d</fix>
</trkpt>
<trkpt lat="40.0713749" lon="-105.229789">
  <ele>1583.0</ele>
  <time>2026-08-28T17:51:28Z</time>
  <course>0.0</course>
  <speed>0.0</speed>
  <fix>3d</fix>
</trkpt>
<trkpt lat="40.0713749" lon="-105.229789">
  <ele>1583.0</ele>
  <time>2026-08-28T17:51:28Z</time>
  <course>247.99</course>
  <speed>0.022360679774997897</speed>
  <fix>3d</fix>
</trkpt>
<trkpt lat="40.0713749" lon="-105.229789">
  <ele>1583.0</ele>
  <time>2026-08-28T17:51:28Z</time>
  <course>0.0</course>
  <speed>0.0</speed>
  <fix>3d</fix>
</trkpt>
<trkpt lat="40.0713749" lon="-105.229789">
  <ele>1583.0</ele>
  <time>2026-08-28T17:51:28Z</time>
  <course>247.99</course>
  <speed>0.022360679774997897</speed>
  <fix>3d</fix>
</trkpt>
<trkpt lat="40.0713749" lon="-105.229789">
  <ele>1583.0</ele>
  <time>2026-08-28T17:51:28Z</time>
  <course>0.0</course>
  <speed>0.0</speed>
  <fix>3d</fix>
</trkpt>
<trkpt lat="40.0713749" lon="-105.229789">
  <ele>1583.0</ele>
  <time>2026-08-28T17:51:28Z</time>
  <course>247.99</course>
  <speed>0.022360679774997897</speed>
  <fix>3d</fix>
</trkpt>
<trkpt lat="40.0713749" lon="-105.229789">
  <ele>1583.0</ele>
  <time>2026-08-28T17:51:28Z</time>
  <course>0.0</course>
  <speed>0.0</speed>
  <fix>3d</fix>
</trkpt>
<trkpt lat="40.0713749" lon="-105.229789">
  <ele>1583.0</ele>
  <time>2026-08-28T17:51:28Z</time>
  <course>247.98</course>
  <speed>0.022360679774997897</speed>
  <fix>3d</fix>
</trkpt>
<trkpt lat="40.0713749" lon="-105.229789">
  <ele>1583.0</ele>
  <time>2026-08-28T17:51:28Z</time>
  <course>0.0</course>
  <speed>0.0</speed>
  <fix>3d</fix>
</trkpt>
<trkpt lat="40.0713749" lon="-105.229789">
  <ele>1583.0</ele>
  <time>2026-08-28T17:51:28Z</time>
  <course>247.98</course>
  <speed>0.022360679774997897</speed>
  <fix>3d</fix>
</trkpt>
<trkpt lat="40.0713749" lon="-105.229789">
  <ele>1583.0</ele>
  <time>2026-08-28T17:51:28Z</time>
  <course>0.0</course>
  <speed>0.0</speed>
  <fix>3d</fix>
</trkpt>
<trkpt lat="40.0713749" lon="-105.229789">
  <ele>1583.0</ele>
  <time>2026-08-28T17:51:28Z</time>
  <course>247.97</course>
  <speed>0.022360679774997897</speed>
  <fix>3d</fix>
</trkpt>
<trkpt lat="40.0713749" lon="-105.229789">
  <ele>1583.0</ele>
  <time>2026-08-28T17:51:28Z</time>
  <course>0.0</course>
  <speed>0.0</speed>
  <fix>3d</fix>
</trkpt>
<trkpt lat="40.0713749" lon="-105.229789">
  <ele>1583.0</ele>
  <time>2026-08-28T17:51:28Z</time>
  <course>247.97</course>
  <speed>0.022360679774997897</speed>
  <fix>3d</fix>
</trkpt>
<trkpt lat="40.0713749" lon="-105.229789">
  <ele>1583.0</ele>
  <time>2026-08-28T17:51:28Z</time>
  <course>0.0</course>
  <speed>0.0</speed>
  <fix>3d</fix>
</trkpt>
<trkpt lat="40.0713749" lon="-105.229789">
  <ele>1583.0</ele>
  <time>2026-08-28T17:51:28Z</time>
  <course>247.96</course>
  <speed>0.022360679774997897</speed>
  <fix>3d</fix>
</trkpt>
<trkpt lat="40.0713749" lon="-105.229789">
  <ele>1583.0</ele>
  <time>2026-08-28T17:51:28Z</time>
  <course>0.0</course>
  <speed>0.0</speed>
  <fix>3d</fix>
</trkpt>
<trkpt lat="40.0713749" lon="-105.229789">
  <ele>1583.0</ele>
  <time>2026-08-28T17:51:28Z</time>
  <course>247.96</course>
  <speed>0.022360679774997897</speed>
  <fix>3d</fix>
</trkpt>
<trkpt lat="40.0713749" lon="-105.229789">
  <ele>1583.0</ele>
  <time>2026-08-28T17:51:28Z</time>
  <course>0.0</course>
  <speed>0.0</speed>
  <fix>3d</fix>
</trkpt>
<trkpt lat="40.0713749" lon="-105.229789">
  <ele>1583.0</ele>
  <time>2026-08-28T17:51:28Z</time>
  <course>247.95</course>
  <speed>0.022360679774997897</speed>
  <fix>3d</fix>
</trkpt>
<trkpt lat="40.0713749" lon="-105.229789">
  <ele>1583.0</ele>
  <time>2026-08-28T17:51:28Z</time>
  <course>0.0</course>
  <speed>0.0</speed>
  <fix>3d</fix>
</trkpt>
<trkpt lat="40.0713749" lon="-105.229789">
  <ele>1583.0</ele>
  <time>2026-08-28T17:51:28Z</time>
  <course>247.95</course>
  <speed>0.022360679774997897</speed>
  <fix>3d</fix>
</trkpt>
<trkpt lat="40.0713749" lon="-105.229789">
  <ele>1583.0</ele>
  <time>2026-08-28T17:51:28Z</time>
  <course>0.0</course>
  <speed>0.0</speed>
  <fix>3d</fix>
</trkpt>
<trkpt lat="40.0713749" lon="-105.229789">
  <ele>1583.0</ele>
  <time>2026-08-28T17:51:28Z</time>
  <course>247.95</course>
  <speed>0.022360679774997897</speed>
  <fix>3d</fix>
</trkpt>
<trkpt lat="40.0713749" lon="-105.229789">
  <ele>1583.0</ele>
  <time>2026-08-28T17:51:28Z</time>
  <course>0.0</course>
  <speed>0.0</speed>
  <fix>3d</fix>
</trkpt>
<trkpt lat="40.0713749" lon="-105.229789">
  <ele>1583.0</ele>
  <time>2026-08-28T17:51:28Z</time>
  <course>247.94</course>
  <speed>0.022360679774997897</speed>
  <fix>3d</fix>
</trkpt>
<trkpt lat="40.0713749" lon="-105.229789">
  <ele>1583.0</ele>
  <time>2026-08-28T17:51:28Z</time>
  <course>0.0</course>
  <speed>0.0</speed>
  <fix>3d</fix>
</trkpt>
<trkpt lat="40.0713749" lon="-105.229789">
  <ele>1583.0</ele>
  <time>2026-08-28T17:51:28Z</time>
  <course>247.94</course>
  <speed>0.022360679774997897</speed>
  <fix>3d</fix>
</trkpt>
<trkpt lat="40.0713749" lon="-105.229789">
  <ele>1583.0</ele>
  <time>2026-08-28T17:51:28Z</time>
  <course>0.0</course>
  <speed>0.0</speed>
  <fix>3d</fix>
</trkpt>
<trkpt lat="40.0713749" lon="-105.229789">
  <ele>1583.0</ele>
  <time>2026-08-28T17:51:28Z</time>
  <course>247.93</course>
  <speed>0.022360679774997897</speed>
  <fix>3d</fix>
</trkpt>
<trkpt lat="40.0713749" lon="-105.229789">
  <ele>1583.0</ele>
  <time>2026-08-28T17:51:28Z</time>
  <course>0.0</course>
  <speed>0.0</speed>
  <fix>3d</fix>
</trkpt>
<trkpt lat="40.0713749" lon="-105.229789">
  <ele>1583.0</ele>
  <time>2026-08-28T17:51:28Z</time>
  <course>247.93</course>
  <speed>0.022360679774997897</speed>
  <fix>3d</fix>
</trkpt>
<trkpt lat="40.0713749" lon="-105.229789">
  <ele>1583.0</ele>
  <time>2026-08-28T17:51:28Z</time>
  <course>0.0</course>
  <speed>0.0</speed>
  <fix>3d</fix>
</trkpt>
<trkpt lat="40.0713749" lon="-105.229789">
  <ele>1583.0</ele>
  <time>2026-08-28T17:51:28Z</time>
  <course>247.92</course>
  <speed>0.022360679774997897</speed>
  <fix>3d</fix>
</trkpt>
<trkpt lat="40.0713749" lon="-105.229789">
  <ele>1583.0</ele>
  <time>2026-08-28T17:51:28Z</time>
  <course>0.0</course>
  <speed>0.0</speed>
  <fix>3d</fix>
</trkpt>
<trkpt lat="40.0713749" lon="-105.229789">
  <ele>1583.0</ele>
  <time>2026-08-28T17:51:28Z</time>
  <course>247.92</course>
  <speed>0.022360679774997897</speed>
  <fix>3d</fix>
</trkpt>
<trkpt lat="40.0713749" lon="-105.229789">
  <ele>1583.0</ele>
  <time>2026-08-28T17:51:28Z</time>
  <course>0.0</course>
  <speed>0.0</speed>
  <fix>3d</fix>
</trkpt>
<trkpt lat="40.0713749" lon="-105.229789">
  <ele>1583.0</ele>
  <time>2026-08-28T17:51:28Z</time>
  <course>247.92</course>
  <speed>0.022360679774997897</speed>
  <fix>3d</fix>
</trkpt>
<trkpt lat="40.0713749" lon="-105.229789">
  <ele>1583.0</ele>
  <time>2026-08-28T17:51:28Z</time>
  <course>0.0</course>
  <speed>0.0</speed>
  <fix>3d</fix>
</trkpt>
<trkpt lat="40.0713749" lon="-105.229789">
  <ele>1583.0</ele>
  <time>2026-08-28T17:51:28Z</time>
  <course>247.91</course>
  <speed>0.022360679774997897</speed>
  <fix>3d</fix>
</trkpt>
<trkpt lat="40.0713749" lon="-105.229789">
  <ele>1583.0</ele>
  <time>2026-08-28T17:51:28Z</time>
  <course>0.0</course>
  <speed>0.0</speed>
  <fix>3d</fix>
</trkpt>
<trkpt lat="40.0713749" lon="-105.229789">
  <ele>1583.0</ele>
  <time>2026-08-28T17:51:28Z</time>
  <course>247.91</course>
  <speed>0.022360679774997897</speed>
  <fix>3d</fix>
</trkpt>
<trkpt lat="40.0713749" lon="-105.229789">
  <ele>1583.0</ele>
  <time>2026-08-28T17:51:28Z</time>
  <course>0.0</course>
  <speed>0.0</speed>
  <fix>3d</fix>
</trkpt>
<trkpt lat="40.0713749" lon="-105.229789">
  <ele>1583.0</ele>
  <time>2026-08-28T17:51:28Z</time>
  <course>247.9</course>
  <speed>0.022360679774997897</speed>
  <fix>3d</fix>
</trkpt>
<trkpt lat="40.0713749" lon="-105.229789">
  <ele>1583.0</ele>
  <time>2026-08-28T17:51:28Z</time>
  <course>0.0</course>
  <speed>0.0</speed>
  <fix>3d</fix>
</trkpt>
<trkpt lat="40.0713749" lon="-105.229789">
  <ele>1583.0</ele>
  <time>2026-08-28T17:51:28Z</time>
  <course>247.9</course>
  <speed>0.022360679774997897</speed>
  <fix>3d</fix>
</trkpt>
<trkpt lat="40.0713749" lon="-105.229789">
  <ele>1583.0</ele>
  <time>2026-08-28T17:51:28Z</time>
  <course>0.0</course>
  <speed>0.0</speed>
  <fix>3d</fix>
</trkpt>
<trkpt lat="40.0713749" lon="-105.229789">
  <ele>1583.0</ele>
  <time>2026-08-28T17:51:28Z</time>
  <course>247.89</course>
  <speed>0.022360679774997897</speed>
  <fix>3d</fix>
</trkpt>
<trkpt lat="40.0713749" lon="-105.229789">
  <ele>1583.0</ele>
  <time>2026-08-28T17:51:28Z</time>
  <course>0.0</course>
  <speed>0.0</speed>
  <fix>3d</fix>
</trkpt>
<trkpt lat="40.0713749" lon="-105.229789">
  <ele>1583.0</ele>
  <time>2026-08-28T17:51:28Z</time>
  <course>247.89</course>
  <speed>0.022360679774997897</speed>
  <fix>3d</fix>
</trkpt>
<trkpt lat="40.0713749" lon="-105.229789">
  <ele>1583.0</ele>
  <time>2026-08-28T17:51:28Z</time>
  <course>0.0</course>
  <speed>0.0</speed>
  <fix>3d</fix>
</trkpt>
<trkpt lat="40.0713749" lon="-105.229789">
  <ele>1583.0</ele>
  <time>2026-08-28T17:51:28Z</time>
  <course>247.89</course>
  <speed>0.022360679774997897</speed>
  <fix>3d</fix>
</trkpt>
<trkpt lat="40.0713749" lon="-105.229789">
  <ele>1583.0</ele>
  <time>2026-08-28T17:51:28Z</time>
  <course>0.0</course>
  <speed>0.0</speed>
  <fix>3d</fix>
</trkpt>
<trkpt lat="40.0713749" lon="-105.229789">
  <ele>1583.0</ele>
  <time>2026-08-28T17:51:28Z</time>
  <course>247.88</course>
  <speed>0.0316227766016838</speed>
  <fix>3d</fix>
</trkpt>
<trkpt lat="40.0713749" lon="-105.229789">
  <ele>1583.0</ele>
  <time>2026-08-28T17:51:28Z</time>
  <course>0.0</course>
  <speed>0.0</speed>
  <fix>3d</fix>
</trkpt>
<trkpt lat="40.0713749" lon="-105.229789">
  <ele>1583.0</ele>
  <time>2026-08-28T17:51:28Z</time>
  <course>247.88</course>
  <speed>0.0316227766016838</speed>
  <fix>3d</fix>
</trkpt>
<trkpt lat="40.0713749" lon="-105.229789">
  <ele>1583.0</ele>
  <time>2026-08-28T17:51:28Z</time>
  <course>0.0</course>
  <speed>0.0</speed>
  <fix>3d</fix>
</trkpt>
<trkpt lat="40.0713749" lon="-105.229789">
  <ele>1583.0</ele>
  <time>2026-08-28T17:51:28Z</time>
  <course>247.87</course>
  <speed>0.0316227766016838</speed>
  <fix>3d</fix>
</trkpt>
<trkpt lat="40.0713749" lon="-105.229789">
  <ele>1583.0</ele>
  <time>2026-08-28T17:51:28Z</time>
  <course>0.0</course>
  <speed>0.0</speed>
  <fix>3d</fix>
</trkpt>
<trkpt lat="40.0713749" lon="-105.229789">
  <ele>1583.0</ele>
  <time>2026-08-28T17:51:28Z</time>
  <course>247.87</course>
  <speed>0.0316227766016838</speed>
  <fix>3d</fix>
</trkpt>
<trkpt lat="40.0713749" lon="-105.229789">
  <ele>1583.0</ele>
  <time>2026-08-28T17:51:28Z</time>
  <course>0.0</course>
  <speed>0.0</speed>
  <fix>3d</fix>
</trkpt>
<trkpt lat="40.0713749" lon="-105.229789">
  <ele>1583.0</ele>
  <time>2026-08-28T17:51:28Z</time>
  <course>247.87</course>
  <speed>0.0316227766016838</speed>
  <fix>3d</fix>
</trkpt>
<trkpt lat="40.0713749" lon="-105.229789">
  <ele>1583.0</ele>
  <time>2026-08-28T17:51:28Z</time>
  <course>0.0</course>
  <speed>0.0</speed>
  <fix>3d</fix>
</trkpt>
<trkpt lat="40.0713749" lon="-105.229789">
  <ele>1583.0</ele>
  <time>2026-08-28T17:51:28Z</time>
  <course>247.86</course>
  <speed>0.0316227766016838</speed>
  <fix>3d</fix>
</trkpt>
<trkpt lat="40.0713749" lon="-105.229789">
  <ele>1583.0</ele>
  <time>2026-08-28T17:51:28Z</time>
  <course>0.0</course>
  <speed>0.0</speed>
  <fix>3d</fix>
</trkpt>
<trkpt lat="40.0713749" lon="-105.229789">
  <ele>1583.0</ele>
  <time>2026-08-28T17:51:28Z</time>
  <course>247.86</course>
  <speed>0.0316227766016838</speed>
  <fix>3d</fix>
</trkpt>
<trkpt lat="40.0713749" lon="-105.229789">
  <ele>1583.0</ele>
  <time>2026-08-28T17:51:28Z</time>
  <course>0.0</course>
  <speed>0.0</speed>
  <fix>3d</fix>
</trkpt>
<trkpt lat="40.0713749" lon="-105.229789">
  <ele>1583.0</ele>
  <time>2026-08-28T17:51:28Z</time>
  <course>247.85</course>
  <speed>0.0316227766016838</speed>
  <fix>3d</fix>
</trkpt>
<trkpt lat="40.0713749" lon="-105.229789">
  <ele>1583.0</ele>
  <time>2026-08-28T17:51:28Z</time>
  <course>0.0</course>
  <speed>0.0</speed>
  <fix>3d</fix>
</trkpt>
<trkpt lat="40.0713749" lon="-105.229789">
  <ele>1583.0</ele>
  <time>2026-08-28T17:51:28Z</time>
  <course>247.85</course>
  <speed>0.0316227766016838</speed>
  <fix>3d</fix>
</trkpt>
<trkpt lat="40.0713749" lon="-105.229789">
  <ele>1583.0</ele>
  <time>2026-08-28T17:51:28Z</time>
  <course>0.0</course>
  <speed>0.0</speed>
  <fix>3d</fix>
</trkpt>
<trkpt lat="40.0713749" lon="-105.229789">
  <ele>1583.0</ele>
  <time>2026-08-28T17:51:28Z</time>
  <course>247.85</course>
  <speed>0.0316227766016838</speed>
  <fix>3d</fix>
</trkpt>
<trkpt lat="40.0713749" lon="-105.229789">
  <ele>1583.0</ele>
  <time>2026-08-28T17:51:28Z</time>
  <course>0.0</course>
  <speed>0.0</speed>
  <fix>3d</fix>
</trkpt>
<trkpt lat="40.0713749" lon="-105.229789">
  <ele>1583.0</ele>
  <time>2026-08-28T17:51:28Z</time>
  <course>247.84</course>
  <speed>0.0316227766016838</speed>
  <fix>3d</fix>
</trkpt>
<trkpt lat="40.0713749" lon="-105.229789">
  <ele>1583.0</ele>
  <time>2026-08-28T17:51:28Z</time>
  <course>0.0</course>
  <speed>0.0</speed>
  <fix>3d</fix>
</trkpt>
<trkpt lat="40.0713749" lon="-105.229789">
  <ele>1583.0</ele>
  <time>2026-08-28T17:51:28Z</time>
  <course>247.84</course>
  <speed>0.0316227766016838</speed>
  <fix>3d</fix>
</trkpt>
<trkpt lat="40.0713749" lon="-105.229789">
  <ele>1583.0</ele>
  <time>2026-08-28T17:51:28Z</time>
  <course>0.0</course>
  <speed>0.0</speed>
  <fix>3d</fix>
</trkpt>
<trkpt lat="40.0713749" lon="-105.229789">
  <ele>1583.0</ele>
  <time>2026-08-28T17:51:28Z</time>
  <course>247.83</course>
  <speed>0.0316227766016838</speed>
  <fix>3d</fix>
</trkpt>
<trkpt lat="40.0713749" lon="-105.229789">
  <ele>1583.0</ele>
  <time>2026-08-28T17:51:28Z</time>
  <course>0.0</course>
  <speed>0.0</speed>
  <fix>3d</fix>
</trkpt>
<trkpt lat="40.0713749" lon="-105.229789">
  <ele>1583.0</ele>
  <time>2026-08-28T17:51:28Z</time>
  <course>247.83</course>
  <speed>0.0316227766016838</speed>
  <fix>3d</fix>
</trkpt>
<trkpt lat="40.0713749" lon="-105.229789">
  <ele>1583.0</ele>
  <time>2026-08-28T17:51:28Z</time>
  <course>0.0</course>
  <speed>0.0</speed>
  <fix>3d</fix>
</trkpt>
<trkpt lat="40.0713749" lon="-105.229789">
  <ele>1583.0</ele>
  <time>2026-08-28T17:51:28Z</time>
  <course>247.83</course>
  <speed>0.0316227766016838</speed>
  <fix>3d</fix>
</trkpt>
<trkpt lat="40.0713749" lon="-105.229789">
  <ele>1583.0</ele>
  <time>2026-08-28T17:51:28Z</time>
  <course>0.0</course>
  <speed>0.0</speed>
  <fix>3d</fix>
</trkpt>
<trkpt lat="40.0713749" lon="-105.229789">
  <ele>1583.0</ele>
  <time>2026-08-28T17:51:28Z</time>
  <course>247.82</course>
  <speed>0.0316227766016838</speed>
  <fix>3d</fix>
</trkpt>
<trkpt lat="40.0713749" lon="-105.229789">
  <ele>1583.0</ele>
  <time>2026-08-28T17:51:28Z</time>
  <course>0.0</course>
  <speed>0.0</speed>
  <fix>3d</fix>
</trkpt>
<trkpt lat="40.0713749" lon="-105.229789">
  <ele>1583.0</ele>
  <time>2026-08-28T17:51:28Z</time>
  <course>247.82</course>
  <speed>0.0316227766016838</speed>
  <fix>3d</fix>
</trkpt>
<trkpt lat="40.0713749" lon="-105.229789">
  <ele>1583.0</ele>
  <time>2026-08-28T17:51:28Z</time>
  <course>0.0</course>
  <speed>0.0</speed>
  <fix>3d</fix>
</trkpt>
<trkpt lat="40.0713749" lon="-105.229789">
  <ele>1583.0</ele>
  <time>2026-08-28T17:51:28Z</time>
  <course>247.82</course>
  <speed>0.0316227766016838</speed>
  <fix>3d</fix>
</trkpt>
<trkpt lat="40.0713749" lon="-105.229789">
  <ele>1583.0</ele>
  <time>2026-08-28T17:51:28Z</time>
  <course>0.0</course>
  <speed>0.0</speed>
  <fix>3d</fix>
</trkpt>
<trkpt lat="40.0713749" lon="-105.229789">
  <ele>1583.0</ele>
  <time>2026-08-28T17:51:28Z</time>
  <course>247.81</course>
  <speed>0.0316227766016838</speed>
  <fix>3d</fix>
</trkpt>
<trkpt lat="40.0713749" lon="-105.229789">
  <ele>1583.0</ele>
  <time>2026-08-28T17:51:28Z</time>
  <course>0.0</course>
  <speed>0.0</speed>
  <fix>3d</fix>
</trkpt>
<trkpt lat="40.0713749" lon="-105.229789">
  <ele>1583.0</ele>
  <time>2026-08-28T17:51:28Z</time>
  <course>247.81</course>
  <speed>0.0316227766016838</speed>
  <fix>3d</fix>
</trkpt>
<trkpt lat="40.0713749" lon="-105.229789">
  <ele>1583.0</ele>
  <time>2026-08-28T17:51:28Z</time>
  <course>0.0</course>
  <speed>0.0</speed>
  <fix>3d</fix>
</trkpt>
<trkpt lat="40.0713749" lon="-105.229789">
  <ele>1583.0</ele>
  <time>2026-08-28T17:51:28Z</time>
  <course>247.8</course>
  <speed>0.0316227766016838</speed>
  <fix>3d</fix>
</trkpt>
<trkpt lat="40.0713749" lon="-105.229789">
  <ele>1583.0</ele>
  <time>2026-08-28T17:51:28Z</time>
  <course>0.0</course>
  <speed>0.0</speed>
  <fix>3d</fix>
</trkpt>
<trkpt lat="40.0713749" lon="-105.229789">
  <ele>1583.0</ele>
  <time>2026-08-28T17:51:28Z</time>
  <course>247.8</course>
  <speed>0.0316227766016838</speed>
  <fix>3d</fix>
</trkpt>
<trkpt lat="40.0713749" lon="-105.229789">
  <ele>1583.0</ele>
  <time>2026-08-28T17:51:28Z</time>
  <course>0.0</course>
  <speed>0.0</speed>
  <fix>3d</fix>
</trkpt>
<trkpt lat="40.0713749" lon="-105.229789">
  <ele>1583.0</ele>
  <time>2026-08-28T17:51:28Z</time>
  <course>247.8</course>
  <speed>0.0316227766016838</speed>
  <fix>3d</fix>
</trkpt>
<trkpt lat="40.0713749" lon="-105.229789">
  <ele>1583.0</ele>
  <time>2026-08-28T17:51:28Z</time>
  <course>0.0</course>
  <speed>0.0</speed>
  <fix>3d</fix>
</trkpt>
<trkpt lat="40.0713749" lon="-105.229789">
  <ele>1583.0</ele>
  <time>2026-08-28T17:51:28Z</time>
  <course>247.79</course>
  <speed>0.0316227766016838</speed>
  <fix>3d</fix>
</trkpt>
<trkpt lat="40.0713749" lon="-105.229789">
  <ele>1583.0</ele>
  <time>2026-08-28T17:51:28Z</time>
  <course>0.0</course>
  <speed>0.0</speed>
  <fix>3d</fix>
</trkpt>
<trkpt lat="40.0713749" lon="-105.229789">
  <ele>1583.0</ele>
  <time>2026-08-28T17:51:28Z</time>
  <course>247.79</course>
  <speed>0.0316227766016838</speed>
  <fix>3d</fix>
</trkpt>
<trkpt lat="40.0713749" lon="-105.229789">
  <ele>1583.0</ele>
  <time>2026-08-28T17:51:28Z</time>
  <course>0.0</course>
  <speed>0.0</speed>
  <fix>3d</fix>
</trkpt>
<trkpt lat="40.0713749" lon="-105.229789">
  <ele>1583.0</ele>
  <time>2026-08-28T17:51:28Z</time>
  <course>247.79</course>
  <speed>0.0316227766016838</speed>
  <fix>3d</fix>
</trkpt>
<trkpt lat="40.0713749" lon="-105.229789">
  <ele>1583.0</ele>
  <time>2026-08-28T17:51:28Z</time>
  <course>0.0</course>
  <speed>0.0</speed>
  <fix>3d</fix>
</trkpt>
<trkpt lat="40.0713749" lon="-105.229789">
  <ele>1583.0</ele>
  <time>2026-08-28T17:51:28Z</time>
  <course>247.78</course>
  <speed>0.0316227766016838</speed>
  <fix>3d</fix>
</trkpt>
<trkpt lat="40.0713749" lon="-105.229789">
  <ele>1583.0</ele>
  <time>2026-08-28T17:51:28Z</time>
  <course>0.0</course>
  <speed>0.0</speed>
  <fix>3d</fix>
</trkpt>
<trkpt lat="40.0713749" lon="-105.229789">
  <ele>1583.0</ele>
  <time>2026-08-28T17:51:28Z</time>
  <course>247.78</course>
  <speed>0.0316227766016838</speed>
  <fix>3d</fix>
</trkpt>
<trkpt lat="40.0713749" lon="-105.229789">
  <ele>1583.0</ele>
  <time>2026-08-28T17:51:28Z</time>
  <course>0.0</course>
  <speed>0.0</speed>
  <fix>3d</fix>
</trkpt>
<trkpt lat="40.0713749" lon="-105.229789">
  <ele>1583.0</ele>
  <time>2026-08-28T17:51:28Z</time>
  <course>247.78</course>
  <speed>0.0316227766016838</speed>
  <fix>3d</fix>
</trkpt>
<trkpt lat="40.0713749" lon="-105.229789">
  <ele>1583.0</ele>
  <time>2026-08-28T17:51:28Z</time>
  <course>0.0</course>
  <speed>0.0</speed>
  <fix>3d</fix>
</trkpt>
<trkpt lat="40.0713749" lon="-105.229789">
  <ele>1583.0</ele>
  <time>2026-08-28T17:51:28Z</time>
  <course>247.77</course>
  <speed>0.0316227766016838</speed>
  <fix>3d</fix>
</trkpt>
<trkpt lat="40.0713749" lon="-105.229789">
  <ele>1583.0</ele>
  <time>2026-08-28T17:51:28Z</time>
  <course>0.0</course>
  <speed>0.0</speed>
  <fix>3d</fix>
</trkpt>
<trkpt lat="40.0713749" lon="-105.229789">
  <ele>1583.0</ele>
  <time>2026-08-28T17:51:28Z</time>
  <course>247.77</course>
  <speed>0.0316227766016838</speed>
  <fix>3d</fix>
</trkpt>
<trkpt lat="40.0713749" lon="-105.229789">
  <ele>1583.0</ele>
  <time>2026-08-28T17:51:28Z</time>
  <course>0.0</course>
  <speed>0.0</speed>
  <fix>3d</fix>
</trkpt>
<trkpt lat="40.0713749" lon="-105.229789">
  <ele>1583.0</ele>
  <time>2026-08-28T17:51:28Z</time>
  <course>247.76</course>
  <speed>0.0316227766016838</speed>
  <fix>3d</fix>
</trkpt>
<trkpt lat="40.0713749" lon="-105.229789">
  <ele>1583.0</ele>
  <time>2026-08-28T17:51:28Z</time>
  <course>0.0</course>
  <speed>0.0</speed>
  <fix>3d</fix>
</trkpt>
<trkpt lat="40.0713749" lon="-105.229789">
  <ele>1583.0</ele>
  <time>2026-08-28T17:51:28Z</time>
  <course>247.76</course>
  <speed>0.0316227766016838</speed>
  <fix>3d</fix>
</trkpt>
<trkpt lat="40.0713749" lon="-105.229789">
  <ele>1583.0</ele>
  <time>2026-08-28T17:51:28Z</time>
  <course>0.0</course>
  <speed>0.0</speed>
  <fix>3d</fix>
</trkpt>
<trkpt lat="40.0713749" lon="-105.229789">
  <ele>1583.0</ele>
  <time>2026-08-28T17:51:28Z</time>
  <course>247.76</course>
  <speed>0.0316227766016838</speed>
  <fix>3d</fix>
</trkpt>
<trkpt lat="40.0713749" lon="-105.229789">
  <ele>1583.0</ele>
  <time>2026-08-28T17:51:28Z</time>
  <course>0.0</course>
  <speed>0.0</speed>
  <fix>3d</fix>
</trkpt>
<trkpt lat="40.0713749" lon="-105.229789">
  <ele>1583.0</ele>
  <time>2026-08-28T17:51:28Z</time>
  <course>247.75</course>
  <speed>0.0316227766016838</speed>
  <fix>3d</fix>
</trkpt>
<trkpt lat="40.0713749" lon="-105.229789">
  <ele>1583.0</ele>
  <time>2026-08-28T17:51:28Z</time>
  <course>0.0</course>
  <speed>0.0</speed>
  <fix>3d</fix>
</trkpt>
<trkpt lat="40.0713749" lon="-105.229789">
  <ele>1583.0</ele>
  <time>2026-08-28T17:51:28Z</time>
  <course>247.75</course>
  <speed>0.0316227766016838</speed>
  <fix>3d</fix>
</trkpt>
<trkpt lat="40.0713749" lon="-105.229789">
  <ele>1583.0</ele>
  <time>2026-08-28T17:51:28Z</time>
  <course>0.0</course>
  <speed>0.0</speed>
  <fix>3d</fix>
</trkpt>
<trkpt lat="40.0713749" lon="-105.229789">
  <ele>1583.0</ele>
  <time>2026-08-28T17:51:28Z</time>
  <course>247.75</course>
  <speed>0.0316227766016838</speed>
  <fix>3d</fix>
</trkpt>
<trkpt lat="40.0713749" lon="-105.229789">
  <ele>1583.0</ele>
  <time>2026-08-28T17:51:28Z</time>
  <course>0.0</course>
  <speed>0.0</speed>
  <fix>3d</fix>
</trkpt>
<trkpt lat="40.0713749" lon="-105.229789">
  <ele>1583.0</ele>
  <time>2026-08-28T17:51:28Z</time>
  <course>247.74</course>
  <speed>0.0316227766016838</speed>
  <fix>3d</fix>
</trkpt>
<trkpt lat="40.0713749" lon="-105.229789">
  <ele>1583.0</ele>
  <time>2026-08-28T17:51:28Z</time>
  <course>0.0</course>
  <speed>0.0</speed>
  <fix>3d</fix>
</trkpt>
<trkpt lat="40.0713749" lon="-105.229789">
  <ele>1583.0</ele>
  <time>2026-08-28T17:51:28Z</time>
  <course>247.74</course>
  <speed>0.0316227766016838</speed>
  <fix>3d</fix>
</trkpt>
<trkpt lat="40.0713749" lon="-105.229789">
  <ele>1583.0</ele>
  <time>2026-08-28T17:51:28Z</time>
  <course>0.0</course>
  <speed>0.0</speed>
  <fix>3d</fix>
</trkpt>
<trkpt lat="40.0713749" lon="-105.229789">
  <ele>1583.0</ele>
  <time>2026-08-28T17:51:28Z</time>
  <course>247.74</course>
  <speed>0.0316227766016838</speed>
  <fix>3d</fix>
</trkpt>
<trkpt lat="40.0713749" lon="-105.229789">
  <ele>1583.0</ele>
  <time>2026-08-28T17:51:28Z</time>
  <course>0.0</course>
  <speed>0.0</speed>
  <fix>3d</fix>
</trkpt>
<trkpt lat="40.0713749" lon="-105.229789">
  <ele>1583.0</ele>
  <time>2026-08-28T17:51:28Z</time>
  <course>247.73</course>
  <speed>0.0316227766016838</speed>
  <fix>3d</fix>
</trkpt>
<trkpt lat="40.0713749" lon="-105.229789">
  <ele>1583.0</ele>
  <time>2026-08-28T17:51:28Z</time>
  <course>0.0</course>
  <speed>0.0</speed>
  <fix>3d</fix>
</trkpt>
<trkpt lat="40.0713749" lon="-105.229789">
  <ele>1583.0</ele>
  <time>2026-08-28T17:51:28Z</time>
  <course>247.73</course>
  <speed>0.0316227766016838</speed>
  <fix>3d</fix>
</trkpt>
<trkpt lat="40.0713749" lon="-105.229789">
  <ele>1583.0</ele>
  <time>2026-08-28T17:51:28Z</time>
  <course>0.0</course>
  <speed>0.0</speed>
  <fix>3d</fix>
</trkpt>
<trkpt lat="40.0713749" lon="-105.229789">
  <ele>1583.0</ele>
  <time>2026-08-28T17:51:28Z</time>
  <course>247.73</course>
  <speed>0.0316227766016838</speed>
  <fix>3d</fix>
</trkpt>
<trkpt lat="40.0713749" lon="-105.229789">
  <ele>1583.0</ele>
  <time>2026-08-28T17:51:28Z</time>
  <course>0.0</course>
  <speed>0.0</speed>
  <fix>3d</fix>
</trkpt>
<trkpt lat="40.0713749" lon="-105.229789">
  <ele>1583.0</ele>
  <time>2026-08-28T17:51:28Z</time>
  <course>247.72</course>
  <speed>0.0316227766016838</speed>
  <fix>3d</fix>
</trkpt>
<trkpt lat="40.0713749" lon="-105.229789">
  <ele>1583.0</ele>
  <time>2026-08-28T17:51:28Z</time>
  <course>0.0</course>
  <speed>0.0</speed>
  <fix>3d</fix>
</trkpt>
<trkpt lat="40.0713749" lon="-105.229789">
  <ele>1583.0</ele>
  <time>2026-08-28T17:51:28Z</time>
  <course>247.72</course>
  <speed>0.0316227766016838</speed>
  <fix>3d</fix>
</trkpt>
<trkpt lat="40.0713749" lon="-105.229789">
  <ele>1583.0</ele>
  <time>2026-08-28T17:51:28Z</time>
  <course>0.0</course>
  <speed>0.0</speed>
  <fix>3d</fix>
</trkpt>
<trkpt lat="40.0713749" lon="-105.229789">
  <ele>1583.0</ele>
  <time>2026-08-28T17:51:28Z</time>
  <course>247.72</course>
  <speed>0.0316227766016838</speed>
  <fix>3d</fix>
</trkpt>
<trkpt lat="40.0713749" lon="-105.229789">
  <ele>1583.0</ele>
  <time>2026-08-28T17:51:28Z</time>
  <course>0.0</course>
  <speed>0.0</speed>
  <fix>3d</fix>
</trkpt>
<trkpt lat="40.0713749" lon="-105.229789">
  <ele>1583.0</ele>
  <time>2026-08-28T17:51:28Z</time>
  <course>247.71</course>
  <speed>0.0316227766016838</speed>
  <fix>3d</fix>
</trkpt>
<trkpt lat="40.0713749" lon="-105.229789">
  <ele>1583.0</ele>
  <time>2026-08-28T17:51:28Z</time>
  <course>0.0</course>
  <speed>0.0</speed>
  <fix>3d</fix>
</trkpt>
<trkpt lat="40.0713749" lon="-105.229789">
  <ele>1583.0</ele>
  <time>2026-08-28T17:51:28Z</time>
  <course>247.71</course>
  <speed>0.0316227766016838</speed>
  <fix>3d</fix>
</trkpt>
<trkpt lat="40.0713749" lon="-105.229789">
  <ele>1583.0</ele>
  <time>2026-08-28T17:51:28Z</time>
  <course>0.0</course>
  <speed>0.0</speed>
  <fix>3d</fix>
</trkpt>
<trkpt lat="40.0713749" lon="-105.229789">
  <ele>1583.0</ele>
  <time>2026-08-28T17:51:28Z</time>
  <course>247.71</course>
  <speed>0.0316227766016838</speed>
  <fix>3d</fix>
</trkpt>
<trkpt lat="40.0713749" lon="-105.229789">
  <ele>1583.0</ele>
  <time>2026-08-28T17:51:28Z</time>
  <course>0.0</course>
  <speed>0.0</speed>
  <fix>3d</fix>
</trkpt>
<trkpt lat="40.0713749" lon="-105.229789">
  <ele>1583.0</ele>
  <time>2026-08-28T17:51:28Z</time>
  <course>247.7</course>
  <speed>0.0316227766016838</speed>
  <fix>3d</fix>
</trkpt>
<trkpt lat="40.0713749" lon="-105.229789">
  <ele>1583.0</ele>
  <time>2026-08-28T17:51:28Z</time>
  <course>0.0</course>
  <speed>0.0</speed>
  <fix>3d</fix>
</trkpt>
<trkpt lat="40.0713749" lon="-105.229789">
  <ele>1583.0</ele>
  <time>2026-08-28T17:51:28Z</time>
  <course>247.7</course>
  <speed>0.0316227766016838</speed>
  <fix>3d</fix>
</trkpt>
<trkpt lat="40.0713749" lon="-105.229789">
  <ele>1583.0</ele>
  <time>2026-08-28T17:51:28Z</time>
  <course>0.0</course>
  <speed>0.0</speed>
  <fix>3d</fix>
</trkpt>
<trkpt lat="40.0713749" lon="-105.229789">
  <ele>1583.0</ele>
  <time>2026-08-28T17:51:28Z</time>
  <course>247.7</course>
  <speed>0.0316227766016838</speed>
  <fix>3d</fix>
</trkpt>
<trkpt lat="40.0713749" lon="-105.229789">
  <ele>1583.0</ele>
  <time>2026-08-28T17:51:28Z</time>
  <course>0.0</course>
  <speed>0.0</speed>
  <fix>3d</fix>
</trkpt>
<trkpt lat="40.0713749" lon="-105.229789">
  <ele>1583.0</ele>
  <time>2026-08-28T17:51:28Z</time>
  <course>247.69</course>
  <speed>0.0316227766016838</speed>
  <fix>3d</fix>
</trkpt>
<trkpt lat="40.0713749" lon="-105.229789">
  <ele>1583.0</ele>
  <time>2026-08-28T17:51:28Z</time>
  <course>0.0</course>
  <speed>0.0</speed>
  <fix>3d</fix>
</trkpt>
<trkpt lat="40.0713749" lon="-105.229789">
  <ele>1583.0</ele>
  <time>2026-08-28T17:51:28Z</time>
  <course>247.69</course>
  <speed>0.0316227766016838</speed>
  <fix>3d</fix>
</trkpt>
<trkpt lat="40.0713749" lon="-105.229789">
  <ele>1583.0</ele>
  <time>2026-08-28T17:51:28Z</time>
  <course>0.0</course>
  <speed>0.0</speed>
  <fix>3d</fix>
</trkpt>
<trkpt lat="40.0713749" lon="-105.229789">
  <ele>1583.0</ele>
  <time>2026-08-28T17:51:28Z</time>
  <course>247.69</course>
  <speed>0.0316227766016838</speed>
  <fix>3d</fix>
</trkpt>
<trkpt lat="40.0713749" lon="-105.229789">
  <ele>1583.0</ele>
  <time>2026-08-28T17:51:28Z</time>
  <course>0.0</course>
  <speed>0.0</speed>
  <fix>3d</fix>
</trkpt>
<trkpt lat="40.0713749" lon="-105.229789">
  <ele>1583.0</ele>
  <time>2026-08-28T17:51:28Z</time>
  <course>247.68</course>
  <speed>0.0316227766016838</speed>
  <fix>3d</fix>
</trkpt>
<trkpt lat="40.0713749" lon="-105.229789">
  <ele>1583.0</ele>
  <time>2026-08-28T17:51:28Z</time>
  <course>0.0</course>
  <speed>0.0</speed>
  <fix>3d</fix>
</trkpt>
<trkpt lat="40.0713749" lon="-105.229789">
  <ele>1583.0</ele>
  <time>2026-08-28T17:51:28Z</time>
  <course>247.68</course>
  <speed>0.0316227766016838</speed>
  <fix>3d</fix>
</trkpt>
<trkpt lat="40.0713749" lon="-105.229789">
  <ele>1583.0</ele>
  <time>2026-08-28T17:51:28Z</time>
  <course>0.0</course>
  <speed>0.0</speed>
  <fix>3d</fix>
</trkpt>
<trkpt lat="40.0713749" lon="-105.229789">
  <ele>1583.0</ele>
  <time>2026-08-28T17:51:28Z</time>
  <course>247.68</course>
  <speed>0.0316227766016838</speed>
  <fix>3d</fix>
</trkpt>
<trkpt lat="40.0713749" lon="-105.229789">
  <ele>1583.0</ele>
  <time>2026-08-28T17:51:28Z</time>
  <course>0.0</course>
  <speed>0.0</speed>
  <fix>3d</fix>
</trkpt>
<trkpt lat="40.0713749" lon="-105.229789">
  <ele>1583.0</ele>
  <time>2026-08-28T17:51:28Z</time>
  <course>247.67</course>
  <speed>0.0316227766016838</speed>
  <fix>3d</fix>
</trkpt>
<trkpt lat="40.0713749" lon="-105.229789">
  <ele>1583.0</ele>
  <time>2026-08-28T17:51:28Z</time>
  <course>0.0</course>
  <speed>0.0</speed>
  <fix>3d</fix>
</trkpt>
<trkpt lat="40.0713749" lon="-105.229789">
  <ele>1583.0</ele>
  <time>2026-08-28T17:51:28Z</time>
  <course>247.67</course>
  <speed>0.0316227766016838</speed>
  <fix>3d</fix>
</trkpt>
<trkpt lat="40.0713749" lon="-105.229789">
  <ele>1583.0</ele>
  <time>2026-08-28T17:51:28Z</time>
  <course>0.0</course>
  <speed>0.0</speed>
  <fix>3d</fix>
</trkpt>
<trkpt lat="40.0713749" lon="-105.229789">
  <ele>1583.0</ele>
  <time>2026-08-28T17:51:28Z</time>
  <course>247.67</course>
  <speed>0.0316227766016838</speed>
  <fix>3d</fix>
</trkpt>
<trkpt lat="40.0713749" lon="-105.229789">
  <ele>1583.0</ele>
  <time>2026-08-28T17:51:28Z</time>
  <course>0.0</course>
  <speed>0.0</speed>
  <fix>3d</fix>
</trkpt>
<trkpt lat="40.0713749" lon="-105.229789">
  <ele>1583.0</ele>
  <time>2026-08-28T17:51:28Z</time>
  <course>247.66</course>
  <speed>0.0316227766016838</speed>
  <fix>3d</fix>
</trkpt>
<trkpt lat="40.0713749" lon="-105.229789">
  <ele>1583.0</ele>
  <time>2026-08-28T17:51:28Z</time>
  <course>0.0</course>
  <speed>0.0</speed>
  <fix>3d</fix>
</trkpt>
<trkpt lat="40.0713749" lon="-105.229789">
  <ele>1583.0</ele>
  <time>2026-08-28T17:51:28Z</time>
  <course>247.66</course>
  <speed>0.0316227766016838</speed>
  <fix>3d</fix>
</trkpt>
<trkpt lat="40.0713749" lon="-105.229789">
  <ele>1583.0</ele>
  <time>2026-08-28T17:51:28Z</time>
  <course>0.0</course>
  <speed>0.0</speed>
  <fix>3d</fix>
</trkpt>
<trkpt lat="40.0713749" lon="-105.229789">
  <ele>1583.0</ele>
  <time>2026-08-28T17:51:28Z</time>
  <course>247.66</course>
  <speed>0.0316227766016838</speed>
  <fix>3d</fix>
</trkpt>
<trkpt lat="40.0713749" lon="-105.229789">
  <ele>1583.0</ele>
  <time>2026-08-28T17:51:28Z</time>
  <course>0.0</course>
  <speed>0.0</speed>
  <fix>3d</fix>
</trkpt>
<trkpt lat="40.0713749" lon="-105.229789">
  <ele>1583.0</ele>
  <time>2026-08-28T17:51:28Z</time>
  <course>247.65</course>
  <speed>0.0316227766016838</speed>
  <fix>3d</fix>
</trkpt>
<trkpt lat="40.0713749" lon="-105.229789">
  <ele>1583.0</ele>
  <time>2026-08-28T17:51:28Z</time>
  <course>0.0</course>
  <speed>0.0</speed>
  <fix>3d</fix>
</trkpt>
<trkpt lat="40.0713749" lon="-105.229789">
  <ele>1583.0</ele>
  <time>2026-08-28T17:51:28Z</time>
  <course>247.65</course>
  <speed>0.0316227766016838</speed>
  <fix>3d</fix>
</trkpt>
<trkpt lat="40.0713749" lon="-105.229789">
  <ele>1583.0</ele>
  <time>2026-08-28T17:51:28Z</time>
  <course>0.0</course>
  <speed>0.0</speed>
  <fix>3d</fix>
</trkpt>
<trkpt lat="40.0713749" lon="-105.229789">
  <ele>1583.0</ele>
  <time>2026-08-28T17:51:28Z</time>
  <course>247.65</course>
  <speed>0.0316227766016838</speed>
  <fix>3d</fix>
</trkpt>
<trkpt lat="40.0713749" lon="-105.229789">
  <ele>1583.0</ele>
  <time>2026-08-28T17:51:28Z</time>
  <course>0.0</course>
  <speed>0.0</speed>
  <fix>3d</fix>
</trkpt>
<trkpt lat="40.0713749" lon="-105.229789">
  <ele>1583.0</ele>
  <time>2026-08-28T17:51:28Z</time>
  <course>247.64</course>
  <speed>0.0316227766016838</speed>
  <fix>3d</fix>
</trkpt>
<trkpt lat="40.0713749" lon="-105.229789">
  <ele>1583.0</ele>
  <time>2026-08-28T17:51:28Z</time>
  <course>0.0</course>
  <speed>0.0</speed>
  <fix>3d</fix>
</trkpt>
<trkpt lat="40.0713749" lon="-105.229789">
  <ele>1583.0</ele>
  <time>2026-08-28T17:51:28Z</time>
  <course>247.64</course>
  <speed>0.0316227766016838</speed>
  <fix>3d</fix>
</trkpt>
<trkpt lat="40.0713749" lon="-105.229789">
  <ele>1583.0</ele>
  <time>2026-08-28T17:51:28Z</time>
  <course>0.0</course>
  <speed>0.0</speed>
  <fix>3d</fix>
</trkpt>
<trkpt lat="40.0713749" lon="-105.229789">
  <ele>1583.0</ele>
  <time>2026-08-28T17:51:28Z</time>
  <course>247.64</course>
  <speed>0.0316227766016838</speed>
  <fix>3d</fix>
</trkpt>
<trkpt lat="40.0713749" lon="-105.229789">
  <ele>1583.0</ele>
  <time>2026-08-28T17:51:28Z</time>
  <course>0.0</course>
  <speed>0.0</speed>
  <fix>3d</fix>
</trkpt>
<trkpt lat="40.0713749" lon="-105.229789">
  <ele>1583.0</ele>
  <time>2026-08-28T17:51:28Z</time>
  <course>247.64</course>
  <speed>0.0316227766016838</speed>
  <fix>3d</fix>
</trkpt>
<trkpt lat="40.0713749" lon="-105.229789">
  <ele>1583.0</ele>
  <time>2026-08-28T17:51:28Z</time>
  <course>0.0</course>
  <speed>0.0</speed>
  <fix>3d</fix>
</trkpt>
<trkpt lat="40.0713749" lon="-105.229789">
  <ele>1583.0</ele>
  <time>2026-08-28T17:51:28Z</time>
  <course>247.63</course>
  <speed>0.0316227766016838</speed>
  <fix>3d</fix>
</trkpt>
<trkpt lat="40.0713749" lon="-105.229789">
  <ele>1583.0</ele>
  <time>2026-08-28T17:51:28Z</time>
  <course>0.0</course>
  <speed>0.0</speed>
  <fix>3d</fix>
</trkpt>
<trkpt lat="40.0713749" lon="-105.229789">
  <ele>1583.0</ele>
  <time>2026-08-28T17:51:28Z</time>
  <course>247.63</course>
  <speed>0.0316227766016838</speed>
  <fix>3d</fix>
</trkpt>
<trkpt lat="40.0713749" lon="-105.229789">
  <ele>1583.0</ele>
  <time>2026-08-28T17:51:28Z</time>
  <course>0.0</course>
  <speed>0.0</speed>
  <fix>3d</fix>
</trkpt>
<trkpt lat="40.0713749" lon="-105.229789">
  <ele>1583.0</ele>
  <time>2026-08-28T17:51:28Z</time>
  <course>247.63</course>
  <speed>0.0316227766016838</speed>
  <fix>3d</fix>
</trkpt>
<trkpt lat="40.0713749" lon="-105.229789">
  <ele>1583.0</ele>
  <time>2026-08-28T17:51:28Z</time>
  <course>0.0</course>
  <speed>0.0</speed>
  <fix>3d</fix>
</trkpt>
<trkpt lat="40.0713749" lon="-105.229789">
  <ele>1583.0</ele>
  <time>2026-08-28T17:51:28Z</time>
  <course>247.62</course>
  <speed>0.0316227766016838</speed>
  <fix>3d</fix>
</trkpt>
<trkpt lat="40.0713749" lon="-105.229789">
  <ele>1583.0</ele>
  <time>2026-08-28T17:51:28Z</time>
  <course>0.0</course>
  <speed>0.0</speed>
  <fix>3d</fix>
</trkpt>
<trkpt lat="40.0713749" lon="-105.229789">
  <ele>1583.0</ele>
  <time>2026-08-28T17:51:28Z</time>
  <course>247.62</course>
  <speed>0.0316227766016838</speed>
  <fix>3d</fix>
</trkpt>
<trkpt lat="40.0713749" lon="-105.229789">
  <ele>1583.0</ele>
  <time>2026-08-28T17:51:28Z</time>
  <course>0.0</course>
  <speed>0.0</speed>
  <fix>3d</fix>
</trkpt>
<trkpt lat="40.0713749" lon="-105.229789">
  <ele>1583.0</ele>
  <time>2026-08-28T17:51:28Z</time>
  <course>247.62</course>
  <speed>0.0316227766016838</speed>
  <fix>3d</fix>
</trkpt>
<trkpt lat="40.0713749" lon="-105.229789">
  <ele>1583.0</ele>
  <time>2026-08-28T17:51:28Z</time>
  <course>0.0</course>
  <speed>0.0</speed>
  <fix>3d</fix>
</trkpt>
<trkpt lat="40.0713749" lon="-105.229789">
  <ele>1583.0</ele>
  <time>2026-08-28T17:51:28Z</time>
  <course>247.62</course>
  <speed>0.0316227766016838</speed>
  <fix>3d</fix>
</trkpt>
<trkpt lat="40.0713749" lon="-105.229789">
  <ele>1583.0</ele>
  <time>2026-08-28T17:51:28Z</time>
  <course>0.0</course>
  <speed>0.0</speed>
  <fix>3d</fix>
</trkpt>
<trkpt lat="40.0713749" lon="-105.229789">
  <ele>1583.0</ele>
  <time>2026-08-28T17:51:28Z</time>
  <course>247.61</course>
  <speed>0.0316227766016838</speed>
  <fix>3d</fix>
</trkpt>
<trkpt lat="40.0713749" lon="-105.229789">
  <ele>1583.0</ele>
  <time>2026-08-28T17:51:28Z</time>
  <course>0.0</course>
  <speed>0.0</speed>
  <fix>3d</fix>
</trkpt>
<trkpt lat="40.0713749" lon="-105.229789">
  <ele>1583.0</ele>
  <time>2026-08-28T17:51:28Z</time>
  <course>247.61</course>
  <speed>0.0316227766016838</speed>
  <fix>3d</fix>
</trkpt>
<trkpt lat="40.0713749" lon="-105.229789">
  <ele>1583.0</ele>
  <time>2026-08-28T17:51:28Z</time>
  <course>0.0</course>
  <speed>0.0</speed>
  <fix>3d</fix>
</trkpt>
<trkpt lat="40.0713749" lon="-105.229789">
  <ele>1583.0</ele>
  <time>2026-08-28T17:51:28Z</time>
  <course>247.61</course>
  <speed>0.0316227766016838</speed>
  <fix>3d</fix>
</trkpt>
<trkpt lat="40.0713749" lon="-105.229789">
  <ele>1583.0</ele>
  <time>2026-08-28T17:51:28Z</time>
  <course>0.0</course>
  <speed>0.0</speed>
  <fix>3d</fix>
</trkpt>
<trkpt lat="40.0713749" lon="-105.229789">
  <ele>1583.0</ele>
  <time>2026-08-28T17:51:28Z</time>
  <course>247.6</course>
  <speed>0.0316227766016838</speed>
  <fix>3d</fix>
</trkpt>
<trkpt lat="40.0713749" lon="-105.229789">
  <ele>1583.0</ele>
  <time>2026-08-28T17:51:28Z</time>
  <course>0.0</course>
  <speed>0.0</speed>
  <fix>3d</fix>
</trkpt>
<trkpt lat="40.0713749" lon="-105.229789">
  <ele>1583.0</ele>
  <time>2026-08-28T17:51:28Z</time>
  <course>247.6</course>
  <speed>0.0316227766016838</speed>
  <fix>3d</fix>
</trkpt>
<trkpt lat="40.0713749" lon="-105.229789">
  <ele>1583.0</ele>
  <time>2026-08-28T17:51:28Z</time>
  <course>0.0</course>
  <speed>0.0</speed>
  <fix>3d</fix>
</trkpt>
<trkpt lat="40.0713749" lon="-105.229789">
  <ele>1583.0</ele>
  <time>2026-08-28T17:51:29Z</time>
  <course>247.6</course>
  <speed>0.0316227766016838</speed>
  <fix>3d</fix>
</trkpt>
<trkpt lat="40.0713749" lon="-105.229789">
  <ele>1583.0</ele>
  <time>2026-08-28T17:51:29Z</time>
  <course>0.0</course>
  <speed>0.0</speed>
  <fix>3d</fix>
</trkpt>
<trkpt lat="40.0713749" lon="-105.229789">
  <ele>1583.0</ele>
  <time>2026-08-28T17:51:29Z</time>
  <course>247.6</course>
  <speed>0.0316227766016838</speed>
  <fix>3d</fix>
</trkpt>
<trkpt lat="40.0713749" lon="-105.229789">
  <ele>1583.0</ele>
  <time>2026-08-28T17:51:29Z</time>
  <course>0.0</course>
  <speed>0.0</speed>
  <fix>3d</fix>
</trkpt>
<trkpt lat="40.0713749" lon="-105.229789">
  <ele>1583.0</ele>
  <time>2026-08-28T17:51:29Z</time>
  <course>247.59</course>
  <speed>0.0316227766016838</speed>
  <fix>3d</fix>
</trkpt>
<trkpt lat="40.0713749" lon="-105.229789">
  <ele>1583.0</ele>
  <time>2026-08-28T17:51:29Z</time>
  <course>0.0</course>
  <speed>0.0</speed>
  <fix>3d</fix>
</trkpt>
<trkpt lat="40.0713749" lon="-105.229789">
  <ele>1582.92</ele>
  <time>2026-08-28T17:51:29Z</time>
  <course>247.59</course>
  <speed>0.0</speed>
  <fix>3d</fix>
</trkpt>
<trkpt lat="40.0713749" lon="-105.229789">
  <ele>1583.0</ele>
  <time>2026-08-28T17:51:29Z</time>
  <course>0.0</course>
  <speed>0.0</speed>
  <fix>3d</fix>
</trkpt>
<trkpt lat="40.0713749" lon="-105.229789">
  <ele>1582.92</ele>
  <time>2026-08-28T17:51:29Z</time>
  <course>247.59</course>
  <speed>0.0</speed>
  <fix>3d</fix>
</trkpt>
<trkpt lat="40.0713749" lon="-105.229789">
  <ele>1583.0</ele>
  <time>2026-08-28T17:51:29Z</time>
  <course>0.0</course>
  <speed>0.0</speed>
  <fix>3d</fix>
</trkpt>
<trkpt lat="40.0713749" lon="-105.229789">
  <ele>1582.91</ele>
  <time>2026-08-28T17:51:29Z</time>
  <course>247.58</course>
  <speed>0.0</speed>
  <fix>3d</fix>
</trkpt>
<trkpt lat="40.0713749" lon="-105.229789">
  <ele>1583.0</ele>
  <time>2026-08-28T17:51:29Z</time>
  <course>0.0</course>
  <speed>0.0</speed>
  <fix>3d</fix>
</trkpt>
<trkpt lat="40.0713749" lon="-105.229789">
  <ele>1582.91</ele>
  <time>2026-08-28T17:51:29Z</time>
  <course>247.58</course>
  <speed>0.0</speed>
  <fix>3d</fix>
</trkpt>
<trkpt lat="40.0713749" lon="-105.229789">
  <ele>1583.0</ele>
  <time>2026-08-28T17:51:29Z</time>
  <course>0.0</course>
  <speed>0.0</speed>
  <fix>3d</fix>
</trkpt>
<trkpt lat="40.0713749" lon="-105.229789">
  <ele>1582.9</ele>
  <time>2026-08-28T17:51:29Z</time>
  <course>247.58</course>
  <speed>0.0</speed>
  <fix>3d</fix>
</trkpt>
<trkpt lat="40.0713749" lon="-105.229789">
  <ele>1583.0</ele>
  <time>2026-08-28T17:51:29Z</time>
  <course>0.0</course>
  <speed>0.0</speed>
  <fix>3d</fix>
</trkpt>
<trkpt lat="40.0713749" lon="-105.229789">
  <ele>1582.9</ele>
  <time>2026-08-28T17:51:29Z</time>
  <course>247.58</course>
  <speed>0.0</speed>
  <fix>3d</fix>
</trkpt>
<trkpt lat="40.0713749" lon="-105.229789">
  <ele>1583.0</ele>
  <time>2026-08-28T17:51:29Z</time>
  <course>0.0</course>
  <speed>0.0</speed>
  <fix>3d</fix>
</trkpt>
<trkpt lat="40.0713749" lon="-105.229789">
  <ele>1582.9</ele>
  <time>2026-08-28T17:51:29Z</time>
  <course>247.57</course>
  <speed>0.0</speed>
  <fix>3d</fix>
</trkpt>
<trkpt lat="40.0713749" lon="-105.229789">
  <ele>1583.0</ele>
  <time>2026-08-28T17:51:29Z</time>
  <course>0.0</course>
  <speed>0.0</speed>
  <fix>3d</fix>
</trkpt>
<trkpt lat="40.0713749" lon="-105.229789">
  <ele>1582.9</ele>
  <time>2026-08-28T17:51:29Z</time>
  <course>247.57</course>
  <speed>0.0</speed>
  <fix>3d</fix>
</trkpt>
<trkpt lat="40.0713749" lon="-105.229789">
  <ele>1583.0</ele>
  <time>2026-08-28T17:51:29Z</time>
  <course>0.0</course>
  <speed>0.0</speed>
  <fix>3d</fix>
</trkpt>
<trkpt lat="40.0713749" lon="-105.229789">
  <ele>1582.9</ele>
  <time>2026-08-28T17:51:29Z</time>
  <course>247.57</course>
  <speed>0.0</speed>
  <fix>3d</fix>
</trkpt>
<trkpt lat="40.0713749" lon="-105.229789">
  <ele>1583.0</ele>
  <time>2026-08-28T17:51:29Z</time>
  <course>0.0</course>
  <speed>0.0</speed>
  <fix>3d</fix>
</trkpt>
<trkpt lat="40.0713749" lon="-105.229789">
  <ele>1582.9</ele>
  <time>2026-08-28T17:51:29Z</time>
  <course>247.57</course>
  <speed>0.01</speed>
  <fix>3d</fix>
</trkpt>
<trkpt lat="40.0713749" lon="-105.229789">
  <ele>1583.0</ele>
  <time>2026-08-28T17:51:29Z</time>
  <course>0.0</course>
  <speed>0.0</speed>
  <fix>3d</fix>
</trkpt>
<trkpt lat="40.0713749" lon="-105.229789">
  <ele>1582.9</ele>
  <time>2026-08-28T17:51:29Z</time>
  <course>247.56</course>
  <speed>0.01</speed>
  <fix>3d</fix>
</trkpt>
<trkpt lat="40.0713749" lon="-105.229789">
  <ele>1583.0</ele>
  <time>2026-08-28T17:51:29Z</time>
  <course>0.0</course>
  <speed>0.0</speed>
  <fix>3d</fix>
</trkpt>
<trkpt lat="40.0713749" lon="-105.229789">
  <ele>1582.91</ele>
  <time>2026-08-28T17:51:29Z</time>
  <course>247.56</course>
  <speed>0.01</speed>
  <fix>3d</fix>
</trkpt>
<trkpt lat="40.0713749" lon="-105.229789">
  <ele>1583.0</ele>
  <time>2026-08-28T17:51:29Z</time>
  <course>0.0</course>
  <speed>0.0</speed>
  <fix>3d</fix>
</trkpt>
<trkpt lat="40.0713749" lon="-105.229789">
  <ele>1582.91</ele>
  <time>2026-08-28T17:51:29Z</time>
  <course>247.56</course>
  <speed>0.01</speed>
  <fix>3d</fix>
</trkpt>
<trkpt lat="40.0713749" lon="-105.229789">
  <ele>1583.0</ele>
  <time>2026-08-28T17:51:29Z</time>
  <course>0.0</course>
  <speed>0.0</speed>
  <fix>3d</fix>
</trkpt>
<trkpt lat="40.0713749" lon="-105.229789">
  <ele>1582.92</ele>
  <time>2026-08-28T17:51:29Z</time>
  <course>247.56</course>
  <speed>0.01</speed>
  <fix>3d</fix>
</trkpt>
<trkpt lat="40.0713749" lon="-105.229789">
  <ele>1583.0</ele>
  <time>2026-08-28T17:51:29Z</time>
  <course>0.0</course>
  <speed>0.0</speed>
  <fix>3d</fix>
</trkpt>
<trkpt lat="40.0713749" lon="-105.229789">
  <ele>1582.92</ele>
  <time>2026-08-28T17:51:29Z</time>
  <course>247.55</course>
  <speed>0.01</speed>
  <fix>3d</fix>
</trkpt>
<trkpt lat="40.0713749" lon="-105.229789">
  <ele>1583.0</ele>
  <time>2026-08-28T17:51:29Z</time>
  <course>0.0</course>
  <speed>0.0</speed>
  <fix>3d</fix>
</trkpt>
<trkpt lat="40.0713749" lon="-105.229789">
  <ele>1582.92</ele>
  <time>2026-08-28T17:51:29Z</time>
  <course>247.55</course>
  <speed>0.01</speed>
  <fix>3d</fix>
</trkpt>
<trkpt lat="40.0713749" lon="-105.229789">
  <ele>1583.0</ele>
  <time>2026-08-28T17:51:29Z</time>
  <course>0.0</course>
  <speed>0.0</speed>
  <fix>3d</fix>
</trkpt>
<trkpt lat="40.0713749" lon="-105.229789">
  <ele>1582.93</ele>
  <time>2026-08-28T17:51:29Z</time>
  <course>247.55</course>
  <speed>0.01</speed>
  <fix>3d</fix>
</trkpt>
<trkpt lat="40.0713749" lon="-105.229789">
  <ele>1583.0</ele>
  <time>2026-08-28T17:51:29Z</time>
  <course>0.0</course>
  <speed>0.0</speed>
  <fix>3d</fix>
</trkpt>
<trkpt lat="40.0713749" lon="-105.229789">
  <ele>1582.93</ele>
  <time>2026-08-28T17:51:29Z</time>
  <course>247.55</course>
  <speed>0.01</speed>
  <fix>3d</fix>
</trkpt>
<trkpt lat="40.0713749" lon="-105.229789">
  <ele>1583.0</ele>
  <time>2026-08-28T17:51:29Z</time>
  <course>0.0</course>
  <speed>0.0</speed>
  <fix>3d</fix>
</trkpt>
<trkpt lat="40.0713749" lon="-105.229789">
  <ele>1582.93</ele>
  <time>2026-08-28T17:51:29Z</time>
  <course>247.54</course>
  <speed>0.02</speed>
  <fix>3d</fix>
</trkpt>
<trkpt lat="40.0713749" lon="-105.229789">
  <ele>1583.0</ele>
  <time>2026-08-28T17:51:29Z</time>
  <course>0.0</course>
  <speed>0.0</speed>
  <fix>3d</fix>
</trkpt>
<trkpt lat="40.0713749" lon="-105.229789">
  <ele>1582.93</ele>
  <time>2026-08-28T17:51:29Z</time>
  <course>247.54</course>
  <speed>0.02</speed>
  <fix>3d</fix>
</trkpt>
<trkpt lat="40.0713749" lon="-105.229789">
  <ele>1583.0</ele>
  <time>2026-08-28T17:51:29Z</time>
  <course>0.0</course>
  <speed>0.0</speed>
  <fix>3d</fix>
</trkpt>
<trkpt lat="40.0713749" lon="-105.229789">
  <ele>1582.93</ele>
  <time>2026-08-28T17:51:29Z</time>
  <course>247.54</course>
  <speed>0.02</speed>
  <fix>3d</fix>
</trkpt>
<trkpt lat="40.0713749" lon="-105.229789">
  <ele>1583.0</ele>
  <time>2026-08-28T17:51:29Z</time>
  <course>0.0</course>
  <speed>0.0</speed>
  <fix>3d</fix>
</trkpt>
<trkpt lat="40.0713749" lon="-105.229789">
  <ele>1582.93</ele>
  <time>2026-08-28T17:51:29Z</time>
  <course>247.54</course>
  <speed>0.022360679774997897</speed>
  <fix>3d</fix>
</trkpt>
<trkpt lat="40.0713749" lon="-105.229789">
  <ele>1583.0</ele>
  <time>2026-08-28T17:51:29Z</time>
  <course>0.0</course>
  <speed>0.0</speed>
  <fix>3d</fix>
</trkpt>
<trkpt lat="40.0713749" lon="-105.229789">
  <ele>1582.94</ele>
  <time>2026-08-28T17:51:29Z</time>
  <course>247.53</course>
  <speed>0.022360679774997897</speed>
  <fix>3d</fix>
</trkpt>
<trkpt lat="40.0713749" lon="-105.229789">
  <ele>1583.0</ele>
  <time>2026-08-28T17:51:29Z</time>
  <course>0.0</course>
  <speed>0.0</speed>
  <fix>3d</fix>
</trkpt>
<trkpt lat="40.0713749" lon="-105.229789">
  <ele>1582.94</ele>
  <time>2026-08-28T17:51:29Z</time>
  <course>247.53</course>
  <speed>0.022360679774997897</speed>
  <fix>3d</fix>
</trkpt>
<trkpt lat="40.0713749" lon="-105.229789">
  <ele>1583.0</ele>
  <time>2026-08-28T17:51:29Z</time>
  <course>0.0</course>
  <speed>0.0</speed>
  <fix>3d</fix>
</trkpt>
<trkpt lat="40.071375" lon="-105.229789">
  <ele>1582.94</ele>
  <time>2026-08-28T17:51:29Z</time>
  <course>247.53</course>
  <speed>0.022360679774997897</speed>
  <fix>3d</fix>
</trkpt>
<trkpt lat="40.0713749" lon="-105.229789">
  <ele>1583.0</ele>
  <time>2026-08-28T17:51:29Z</time>
  <course>0.0</course>
  <speed>0.0</speed>
  <fix>3d</fix>
</trkpt>
<trkpt lat="40.071375" lon="-105.229789">
  <ele>1582.95</ele>
  <time>2026-08-28T17:51:29Z</time>
  <course>247.53</course>
  <speed>0.022360679774997897</speed>
  <fix>3d</fix>
</trkpt>
<trkpt lat="40.0713749" lon="-105.229789">
  <ele>1583.0</ele>
  <time>2026-08-28T17:51:29Z</time>
  <course>0.0</course>
  <speed>0.0</speed>
  <fix>3d</fix>
</trkpt>
<trkpt lat="40.071375" lon="-105.229789">
  <ele>1582.95</ele>
  <time>2026-08-28T17:51:29Z</time>
  <course>247.53</course>
  <speed>0.022360679774997897</speed>
  <fix>3d</fix>
</trkpt>
<trkpt lat="40.0713749" lon="-105.229789">
  <ele>1583.0</ele>
  <time>2026-08-28T17:51:29Z</time>
  <course>0.0</course>
  <speed>0.0</speed>
  <fix>3d</fix>
</trkpt>
<trkpt lat="40.071375" lon="-105.229789">
  <ele>1582.95</ele>
  <time>2026-08-28T17:51:29Z</time>
  <course>247.52</course>
  <speed>0.022360679774997897</speed>
  <fix>3d</fix>
</trkpt>
<trkpt lat="40.0713749" lon="-105.229789">
  <ele>1583.0</ele>
  <time>2026-08-28T17:51:29Z</time>
  <course>0.0</course>
  <speed>0.0</speed>
  <fix>3d</fix>
</trkpt>
<trkpt lat="40.071375" lon="-105.229789">
  <ele>1582.95</ele>
  <time>2026-08-28T17:51:29Z</time>
  <course>247.52</course>
  <speed>0.022360679774997897</speed>
  <fix>3d</fix>
</trkpt>
<trkpt lat="40.0713749" lon="-105.229789">
  <ele>1583.0</ele>
  <time>2026-08-28T17:51:29Z</time>
  <course>0.0</course>
  <speed>0.0</speed>
  <fix>3d</fix>
</trkpt>
<trkpt lat="40.071375" lon="-105.229789">
  <ele>1582.95</ele>
  <time>2026-08-28T17:51:29Z</time>
  <course>247.52</course>
  <speed>0.022360679774997897</speed>
  <fix>3d</fix>
</trkpt>
<trkpt lat="40.0713749" lon="-105.229789">
  <ele>1583.0</ele>
  <time>2026-08-28T17:51:29Z</time>
  <course>0.0</course>
  <speed>0.0</speed>
  <fix>3d</fix>
</trkpt>
<trkpt lat="40.071375" lon="-105.229789">
  <ele>1582.95</ele>
  <time>2026-08-28T17:51:29Z</time>
  <course>247.52</course>
  <speed>0.022360679774997897</speed>
  <fix>3d</fix>
</trkpt>
<trkpt lat="40.0713749" lon="-105.229789">
  <ele>1583.0</ele>
  <time>2026-08-28T17:51:29Z</time>
  <course>0.0</course>
  <speed>0.0</speed>
  <fix>3d</fix>
</trkpt>
<trkpt lat="40.071375" lon="-105.229789">
  <ele>1582.95</ele>
  <time>2026-08-28T17:51:29Z</time>
  <course>247.51</course>
  <speed>0.0316227766016838</speed>
  <fix>3d</fix>
</trkpt>
<trkpt lat="40.0713749" lon="-105.229789">
  <ele>1583.0</ele>
  <time>2026-08-28T17:51:29Z</time>
  <course>0.0</course>
  <speed>0.0</speed>
  <fix>3d</fix>
</trkpt>
<trkpt lat="40.071375" lon="-105.229789">
  <ele>1582.95</ele>
  <time>2026-08-28T17:51:29Z</time>
  <course>247.51</course>
  <speed>0.0316227766016838</speed>
  <fix>3d</fix>
</trkpt>
<trkpt lat="40.0713749" lon="-105.229789">
  <ele>1583.0</ele>
  <time>2026-08-28T17:51:29Z</time>
  <course>0.0</course>
  <speed>0.0</speed>
  <fix>3d</fix>
</trkpt>
<trkpt lat="40.071375" lon="-105.229789">
  <ele>1582.95</ele>
  <time>2026-08-28T17:51:29Z</time>
  <course>247.51</course>
  <speed>0.0316227766016838</speed>
  <fix>3d</fix>
</trkpt>
<trkpt lat="40.0713749" lon="-105.229789">
  <ele>1583.0</ele>
  <time>2026-08-28T17:51:29Z</time>
  <course>0.0</course>
  <speed>0.0</speed>
  <fix>3d</fix>
</trkpt>
<trkpt lat="40.071375" lon="-105.229789">
  <ele>1582.95</ele>
  <time>2026-08-28T17:51:29Z</time>
  <course>247.51</course>
  <speed>0.0316227766016838</speed>
  <fix>3d</fix>
</trkpt>
<trkpt lat="40.0713749" lon="-105.229789">
  <ele>1583.0</ele>
  <time>2026-08-28T17:51:29Z</time>
  <course>0.0</course>
  <speed>0.0</speed>
  <fix>3d</fix>
</trkpt>
<trkpt lat="40.071375" lon="-105.2297889">
  <ele>1582.95</ele>
  <time>2026-08-28T17:51:29Z</time>
  <course>247.51</course>
  <speed>0.0316227766016838</speed>
  <fix>3d</fix>
</trkpt>
<trkpt lat="40.0713749" lon="-105.229789">
  <ele>1583.0</ele>
  <time>2026-08-28T17:51:29Z</time>
  <course>0.0</course>
  <speed>0.0</speed>
  <fix>3d</fix>
</trkpt>
<trkpt lat="40.071375" lon="-105.2297889">
  <ele>1582.95</ele>
  <time>2026-08-28T17:51:29Z</time>
  <course>247.5</course>
  <speed>0.0316227766016838</speed>
  <fix>3d</fix>
</trkpt>
<trkpt lat="40.0713749" lon="-105.229789">
  <ele>1583.0</ele>
  <time>2026-08-28T17:51:29Z</time>
  <course>0.0</course>
  <speed>0.0</speed>
  <fix>3d</fix>
</trkpt>
<trkpt lat="40.071375" lon="-105.2297889">
  <ele>1582.95</ele>
  <time>2026-08-28T17:51:29Z</time>
  <course>247.5</course>
  <speed>0.0316227766016838</speed>
  <fix>3d</fix>
</trkpt>
<trkpt lat="40.0713749" lon="-105.229789">
  <ele>1583.0</ele>
  <time>2026-08-28T17:51:29Z</time>
  <course>0.0</course>
  <speed>0.0</speed>
  <fix>3d</fix>
</trkpt>
<trkpt lat="40.071375" lon="-105.2297889">
  <ele>1582.95</ele>
  <time>2026-08-28T17:51:29Z</time>
  <course>247.5</course>
  <speed>0.0316227766016838</speed>
  <fix>3d</fix>
</trkpt>
<trkpt lat="40.0713749" lon="-105.229789">
  <ele>1583.0</ele>
  <time>2026-08-28T17:51:29Z</time>
  <course>0.0</course>
  <speed>0.0</speed>
  <fix>3d</fix>
</trkpt>
<trkpt lat="40.0713751" lon="-105.2297889">
  <ele>1582.95</ele>
  <time>2026-08-28T17:51:29Z</time>
  <course>247.5</course>
  <speed>0.0316227766016838</speed>
  <fix>3d</fix>
</trkpt>
<trkpt lat="40.0713749" lon="-105.229789">
  <ele>1583.0</ele>
  <time>2026-08-28T17:51:29Z</time>
  <course>0.0</course>
  <speed>0.0</speed>
  <fix>3d</fix>
</trkpt>
<trkpt lat="40.0713751" lon="-105.2297889">
  <ele>1582.96</ele>
  <time>2026-08-28T17:51:29Z</time>
  <course>247.49</course>
  <speed>0.0316227766016838</speed>
  <fix>3d</fix>
</trkpt>
<trkpt lat="40.0713749" lon="-105.229789">
  <ele>1583.0</ele>
  <time>2026-08-28T17:51:29Z</time>
  <course>0.0</course>
  <speed>0.0</speed>
  <fix>3d</fix>
</trkpt>
<trkpt lat="40.0713751" lon="-105.2297889">
  <ele>1582.96</ele>
  <time>2026-08-28T17:51:29Z</time>
  <course>247.49</course>
  <speed>0.0316227766016838</speed>
  <fix>3d</fix>
</trkpt>
<trkpt lat="40.0713749" lon="-105.229789">
  <ele>1583.0</ele>
  <time>2026-08-28T17:51:29Z</time>
  <course>0.0</course>
  <speed>0.0</speed>
  <fix>3d</fix>
</trkpt>
<trkpt lat="40.0713751" lon="-105.2297889">
  <ele>1582.97</ele>
  <time>2026-08-28T17:51:29Z</time>
  <course>247.49</course>
  <speed>0.0316227766016838</speed>
  <fix>3d</fix>
</trkpt>
<trkpt lat="40.0713749" lon="-105.229789">
  <ele>1583.0</ele>
  <time>2026-08-28T17:51:29Z</time>
  <course>0.0</course>
  <speed>0.0</speed>
  <fix>3d</fix>
</trkpt>
<trkpt lat="40.0713751" lon="-105.2297889">
  <ele>1582.98</ele>
  <time>2026-08-28T17:51:29Z</time>
  <course>247.49</course>
  <speed>0.0316227766016838</speed>
  <fix>3d</fix>
</trkpt>
<trkpt lat="40.0713749" lon="-105.229789">
  <ele>1583.0</ele>
  <time>2026-08-28T17:51:29Z</time>
  <course>0.0</course>
  <speed>0.0</speed>
  <fix>3d</fix>
</trkpt>
<trkpt lat="40.0713751" lon="-105.2297889">
  <ele>1582.98</ele>
  <time>2026-08-28T17:51:29Z</time>
  <course>247.49</course>
  <speed>0.0316227766016838</speed>
  <fix>3d</fix>
</trkpt>
<trkpt lat="40.0713749" lon="-105.229789">
  <ele>1583.0</ele>
  <time>2026-08-28T17:51:29Z</time>
  <course>0.0</course>
  <speed>0.0</speed>
  <fix>3d</fix>
</trkpt>
<trkpt lat="39.655741" lon="-104.1383097">
  <ele>1566.58</ele>
  <time>2026-08-28T17:51:30Z</time>
  <course>0.0</course>
  <speed>0.0</speed>
  <fix>3d</fix>
</trkpt>
<trkpt lat="40.0713749" lon="-105.229789">
  <ele>1583.0</ele>
  <time>2026-08-28T17:51:30Z</time>
  <course>238.36</course>
  <speed>0.0</speed>
  <fix>3d</fix>
</trkpt>
<trkpt lat="40.0713749" lon="-105.229789">
  <ele>1583.0</ele>
  <time>2026-08-28T17:51:30Z</time>
  <course>0.0</course>
  <speed>0.0</speed>
  <fix>3d</fix>
</trkpt>
<trkpt lat="40.0713749" lon="-105.229789">
  <ele>1583.0</ele>
  <time>2026-08-28T17:51:30Z</time>
  <course>238.36</course>
  <speed>0.0</speed>
  <fix>3d</fix>
</trkpt>
<trkpt lat="40.0713749" lon="-105.229789">
  <ele>1583.0</ele>
  <time>2026-08-28T17:51:30Z</time>
  <course>0.0</course>
  <speed>0.0</speed>
  <fix>3d</fix>
</trkpt>
<trkpt lat="40.0713749" lon="-105.229789">
  <ele>1583.0</ele>
  <time>2026-08-28T17:51:30Z</time>
  <course>238.47</course>
  <speed>0.0</speed>
  <fix>3d</fix>
</trkpt>
<trkpt lat="40.0713749" lon="-105.229789">
  <ele>1583.0</ele>
  <time>2026-08-28T17:51:30Z</time>
  <course>0.0</course>
  <speed>0.0</speed>
  <fix>3d</fix>
</trkpt>
<trkpt lat="40.0713749" lon="-105.229789">
  <ele>1583.0</ele>
  <time>2026-08-28T17:51:30Z</time>
  <course>238.69</course>
  <speed>0.0</speed>
  <fix>3d</fix>
</trkpt>
<trkpt lat="40.0713749" lon="-105.229789">
  <ele>1583.0</ele>
  <time>2026-08-28T17:51:30Z</time>
  <course>0.0</course>
  <speed>0.0</speed>
  <fix>3d</fix>
</trkpt>
<trkpt lat="40.0713749" lon="-105.229789">
  <ele>1583.0</ele>
  <time>2026-08-28T17:51:30Z</time>
  <course>238.98</course>
  <speed>0.0</speed>
  <fix>3d</fix>
</trkpt>
<trkpt lat="40.0713749" lon="-105.229789">
  <ele>1583.0</ele>
  <time>2026-08-28T17:51:30Z</time>
  <course>0.0</course>
  <speed>0.0</speed>
  <fix>3d</fix>
</trkpt>
<trkpt lat="40.0713749" lon="-105.229789">
  <ele>1583.0</ele>
  <time>2026-08-28T17:51:30Z</time>
  <course>239.32</course>
  <speed>0.0</speed>
  <fix>3d</fix>
</trkpt>
<trkpt lat="40.0713749" lon="-105.229789">
  <ele>1583.0</ele>
  <time>2026-08-28T17:51:30Z</time>
  <course>0.0</course>
  <speed>0.0</speed>
  <fix>3d</fix>
</trkpt>
<trkpt lat="40.0713749" lon="-105.229789">
  <ele>1583.0</ele>
  <time>2026-08-28T17:51:30Z</time>
  <course>239.67</course>
  <speed>0.0</speed>
  <fix>3d</fix>
</trkpt>
<trkpt lat="40.0713749" lon="-105.229789">
  <ele>1583.0</ele>
  <time>2026-08-28T17:51:30Z</time>
  <course>0.0</course>
  <speed>0.0</speed>
  <fix>3d</fix>
</trkpt>
<trkpt lat="40.0713749" lon="-105.229789">
  <ele>1583.0</ele>
  <time>2026-08-28T17:51:30Z</time>
  <course>240.02</course>
  <speed>0.0</speed>
  <fix>3d</fix>
</trkpt>
<trkpt lat="40.0713749" lon="-105.229789">
  <ele>1583.0</ele>
  <time>2026-08-28T17:51:30Z</time>
  <course>0.0</course>
  <speed>0.0</speed>
  <fix>3d</fix>
</trkpt>
<trkpt lat="40.0713749" lon="-105.229789">
  <ele>1583.0</ele>
  <time>2026-08-28T17:51:30Z</time>
  <course>240.35</course>
  <speed>0.0</speed>
  <fix>3d</fix>
</trkpt>
<trkpt lat="40.0713749" lon="-105.229789">
  <ele>1583.0</ele>
  <time>2026-08-28T17:51:30Z</time>
  <course>0.0</course>
  <speed>0.0</speed>
  <fix>3d</fix>
</trkpt>
<trkpt lat="40.0713749" lon="-105.229789">
  <ele>1583.0</ele>
  <time>2026-08-28T17:51:30Z</time>
  <course>240.61</course>
  <speed>0.0</speed>
  <fix>3d</fix>
</trkpt>
<trkpt lat="40.0713749" lon="-105.229789">
  <ele>1583.0</ele>
  <time>2026-08-28T17:51:30Z</time>
  <course>0.0</course>
  <speed>0.0</speed>
  <fix>3d</fix>
</trkpt>
<trkpt lat="40.0713749" lon="-105.229789">
  <ele>1583.0</ele>
  <time>2026-08-28T17:51:30Z</time>
  <course>240.92</course>
  <speed>0.0</speed>
  <fix>3d</fix>
</trkpt>
<trkpt lat="40.0713749" lon="-105.229789">
  <ele>1583.0</ele>
  <time>2026-08-28T17:51:30Z</time>
  <course>0.0</course>
  <speed>0.0</speed>
  <fix>3d</fix>
</trkpt>
<trkpt lat="40.0713749" lon="-105.229789">
  <ele>1583.0</ele>
  <time>2026-08-28T17:51:30Z</time>
  <course>241.21</course>
  <speed>0.0</speed>
  <fix>3d</fix>
</trkpt>
<trkpt lat="40.0713749" lon="-105.229789">
  <ele>1583.0</ele>
  <time>2026-08-28T17:51:30Z</time>
  <course>0.0</course>
  <speed>0.0</speed>
  <fix>3d</fix>
</trkpt>
<trkpt lat="40.0713749" lon="-105.229789">
  <ele>1583.0</ele>
  <time>2026-08-28T17:51:30Z</time>
  <course>241.49</course>
  <speed>0.0</speed>
  <fix>3d</fix>
</trkpt>
<trkpt lat="40.0713749" lon="-105.229789">
  <ele>1583.0</ele>
  <time>2026-08-28T17:51:30Z</time>
  <course>0.0</course>
  <speed>0.0</speed>
  <fix>3d</fix>
</trkpt>
<trkpt lat="40.0713749" lon="-105.229789">
  <ele>1583.0</ele>
  <time>2026-08-28T17:51:30Z</time>
  <course>241.77</course>
  <speed>0.0</speed>
  <fix>3d</fix>
</trkpt>
<trkpt lat="40.0713749" lon="-105.229789">
  <ele>1583.0</ele>
  <time>2026-08-28T17:51:30Z</time>
  <course>0.0</course>
  <speed>0.0</speed>
  <fix>3d</fix>
</trkpt>
<trkpt lat="40.0713749" lon="-105.229789">
  <ele>1583.0</ele>
  <time>2026-08-28T17:51:30Z</time>
  <course>242.03</course>
  <speed>0.0</speed>
  <fix>3d</fix>
</trkpt>
<trkpt lat="40.0713749" lon="-105.229789">
  <ele>1583.0</ele>
  <time>2026-08-28T17:51:30Z</time>
  <course>0.0</course>
  <speed>0.0</speed>
  <fix>3d</fix>
</trkpt>
<trkpt lat="40.0713749" lon="-105.229789">
  <ele>1583.0</ele>
  <time>2026-08-28T17:51:30Z</time>
  <course>242.29</course>
  <speed>0.0</speed>
  <fix>3d</fix>
</trkpt>
<trkpt lat="40.0713749" lon="-105.229789">
  <ele>1583.0</ele>
  <time>2026-08-28T17:51:30Z</time>
  <course>0.0</course>
  <speed>0.0</speed>
  <fix>3d</fix>
</trkpt>
<trkpt lat="40.0713749" lon="-105.229789">
  <ele>1583.0</ele>
  <time>2026-08-28T17:51:30Z</time>
  <course>242.54</course>
  <speed>0.0</speed>
  <fix>3d</fix>
</trkpt>
<trkpt lat="40.0713749" lon="-105.229789">
  <ele>1583.0</ele>
  <time>2026-08-28T17:51:30Z</time>
  <course>0.0</course>
  <speed>0.0</speed>
  <fix>3d</fix>
</trkpt>
<trkpt lat="40.0713749" lon="-105.229789">
  <ele>1583.0</ele>
  <time>2026-08-28T17:51:30Z</time>
  <course>242.79</course>
  <speed>0.0</speed>
  <fix>3d</fix>
</trkpt>
<trkpt lat="40.0713749" lon="-105.229789">
  <ele>1583.0</ele>
  <time>2026-08-28T17:51:30Z</time>
  <course>0.0</course>
  <speed>0.0</speed>
  <fix>3d</fix>
</trkpt>
<trkpt lat="40.0713749" lon="-105.229789">
  <ele>1583.0</ele>
  <time>2026-08-28T17:51:30Z</time>
  <course>243.02</course>
  <speed>0.0</speed>
  <fix>3d</fix>
</trkpt>
<trkpt lat="40.0713749" lon="-105.229789">
  <ele>1583.0</ele>
  <time>2026-08-28T17:51:30Z</time>
  <course>0.0</course>
  <speed>0.0</speed>
  <fix>3d</fix>
</trkpt>
<trkpt lat="40.0713749" lon="-105.229789">
  <ele>1583.0</ele>
  <time>2026-08-28T17:51:30Z</time>
  <course>243.29</course>
  <speed>0.0</speed>
  <fix>3d</fix>
</trkpt>
<trkpt lat="40.0713749" lon="-105.229789">
  <ele>1583.0</ele>
  <time>2026-08-28T17:51:30Z</time>
  <course>0.0</course>
  <speed>0.0</speed>
  <fix>3d</fix>
</trkpt>
<trkpt lat="40.0713749" lon="-105.229789">
  <ele>1583.0</ele>
  <time>2026-08-28T17:51:30Z</time>
  <course>243.51</course>
  <speed>0.0</speed>
  <fix>3d</fix>
</trkpt>
<trkpt lat="40.0713749" lon="-105.229789">
  <ele>1583.0</ele>
  <time>2026-08-28T17:51:30Z</time>
  <course>0.0</course>
  <speed>0.0</speed>
  <fix>3d</fix>
</trkpt>
<trkpt lat="40.0713749" lon="-105.229789">
  <ele>1583.0</ele>
  <time>2026-08-28T17:51:30Z</time>
  <course>243.72</course>
  <speed>0.0</speed>
  <fix>3d</fix>
</trkpt>
<trkpt lat="40.0713749" lon="-105.229789">
  <ele>1583.0</ele>
  <time>2026-08-28T17:51:30Z</time>
  <course>0.0</course>
  <speed>0.0</speed>
  <fix>3d</fix>
</trkpt>
<trkpt lat="40.0713749" lon="-105.229789">
  <ele>1583.0</ele>
  <time>2026-08-28T17:51:30Z</time>
  <course>243.93</course>
  <speed>0.0</speed>
  <fix>3d</fix>
</trkpt>
<trkpt lat="40.0713749" lon="-105.229789">
  <ele>1583.0</ele>
  <time>2026-08-28T17:51:30Z</time>
  <course>0.0</course>
  <speed>0.0</speed>
  <fix>3d</fix>
</trkpt>
<trkpt lat="40.0713749" lon="-105.229789">
  <ele>1583.0</ele>
  <time>2026-08-28T17:51:30Z</time>
  <course>244.12</course>
  <speed>0.0</speed>
  <fix>3d</fix>
</trkpt>
<trkpt lat="40.0713749" lon="-105.229789">
  <ele>1583.0</ele>
  <time>2026-08-28T17:51:30Z</time>
  <course>0.0</course>
  <speed>0.0</speed>
  <fix>3d</fix>
</trkpt>
<trkpt lat="40.0713749" lon="-105.229789">
  <ele>1583.0</ele>
  <time>2026-08-28T17:51:30Z</time>
  <course>244.31</course>
  <speed>0.0</speed>
  <fix>3d</fix>
</trkpt>
<trkpt lat="40.0713749" lon="-105.229789">
  <ele>1583.0</ele>
  <time>2026-08-28T17:51:30Z</time>
  <course>0.0</course>
  <speed>0.0</speed>
  <fix>3d</fix>
</trkpt>
<trkpt lat="40.0713749" lon="-105.229789">
  <ele>1583.0</ele>
  <time>2026-08-28T17:51:30Z</time>
  <course>244.5</course>
  <speed>0.0</speed>
  <fix>3d</fix>
</trkpt>
<trkpt lat="40.0713749" lon="-105.229789">
  <ele>1583.0</ele>
  <time>2026-08-28T17:51:30Z</time>
  <course>0.0</course>
  <speed>0.0</speed>
  <fix>3d</fix>
</trkpt>
<trkpt lat="40.0713749" lon="-105.229789">
  <ele>1583.0</ele>
  <time>2026-08-28T17:51:30Z</time>
  <course>244.67</course>
  <speed>0.0</speed>
  <fix>3d</fix>
</trkpt>
<trkpt lat="40.0713749" lon="-105.229789">
  <ele>1583.0</ele>
  <time>2026-08-28T17:51:30Z</time>
  <course>0.0</course>
  <speed>0.0</speed>
  <fix>3d</fix>
</trkpt>
<trkpt lat="40.0713749" lon="-105.229789">
  <ele>1583.0</ele>
  <time>2026-08-28T17:51:30Z</time>
  <course>244.84</course>
  <speed>0.0</speed>
  <fix>3d</fix>
</trkpt>
<trkpt lat="40.0713749" lon="-105.229789">
  <ele>1583.0</ele>
  <time>2026-08-28T17:51:30Z</time>
  <course>0.0</course>
  <speed>0.0</speed>
  <fix>3d</fix>
</trkpt>
<trkpt lat="40.0713749" lon="-105.229789">
  <ele>1583.0</ele>
  <time>2026-08-28T17:51:30Z</time>
  <course>245.01</course>
  <speed>0.0</speed>
  <fix>3d</fix>
</trkpt>
<trkpt lat="40.0713749" lon="-105.229789">
  <ele>1583.0</ele>
  <time>2026-08-28T17:51:30Z</time>
  <course>0.0</course>
  <speed>0.0</speed>
  <fix>3d</fix>
</trkpt>
<trkpt lat="40.0713749" lon="-105.229789">
  <ele>1583.0</ele>
  <time>2026-08-28T17:51:30Z</time>
  <course>245.16</course>
  <speed>0.0</speed>
  <fix>3d</fix>
</trkpt>
<trkpt lat="40.0713749" lon="-105.229789">
  <ele>1583.0</ele>
  <time>2026-08-28T17:51:30Z</time>
  <course>0.0</course>
  <speed>0.0</speed>
  <fix>3d</fix>
</trkpt>
<trkpt lat="40.0713749" lon="-105.229789">
  <ele>1583.0</ele>
  <time>2026-08-28T17:51:30Z</time>
  <course>245.29</course>
  <speed>0.0</speed>
  <fix>3d</fix>
</trkpt>
<trkpt lat="40.0713749" lon="-105.229789">
  <ele>1583.0</ele>
  <time>2026-08-28T17:51:30Z</time>
  <course>0.0</course>
  <speed>0.0</speed>
  <fix>3d</fix>
</trkpt>
<trkpt lat="40.0713749" lon="-105.229789">
  <ele>1583.0</ele>
  <time>2026-08-28T17:51:30Z</time>
  <course>245.43</course>
  <speed>0.0</speed>
  <fix>3d</fix>
</trkpt>
<trkpt lat="40.0713749" lon="-105.229789">
  <ele>1583.0</ele>
  <time>2026-08-28T17:51:30Z</time>
  <course>0.0</course>
  <speed>0.0</speed>
  <fix>3d</fix>
</trkpt>
<trkpt lat="40.0713749" lon="-105.229789">
  <ele>1583.0</ele>
  <time>2026-08-28T17:51:30Z</time>
  <course>245.57</course>
  <speed>0.0</speed>
  <fix>3d</fix>
</trkpt>
<trkpt lat="40.0713749" lon="-105.229789">
  <ele>1583.0</ele>
  <time>2026-08-28T17:51:30Z</time>
  <course>0.0</course>
  <speed>0.0</speed>
  <fix>3d</fix>
</trkpt>
<trkpt lat="40.0713749" lon="-105.229789">
  <ele>1583.0</ele>
  <time>2026-08-28T17:51:30Z</time>
  <course>245.71</course>
  <speed>0.0</speed>
  <fix>3d</fix>
</trkpt>
<trkpt lat="40.0713749" lon="-105.229789">
  <ele>1583.0</ele>
  <time>2026-08-28T17:51:30Z</time>
  <course>0.0</course>
  <speed>0.0</speed>
  <fix>3d</fix>
</trkpt>
<trkpt lat="40.0713749" lon="-105.229789">
  <ele>1583.0</ele>
  <time>2026-08-28T17:51:30Z</time>
  <course>245.84</course>
  <speed>0.0</speed>
  <fix>3d</fix>
</trkpt>
<trkpt lat="40.0713749" lon="-105.229789">
  <ele>1583.0</ele>
  <time>2026-08-28T17:51:30Z</time>
  <course>0.0</course>
  <speed>0.0</speed>
  <fix>3d</fix>
</trkpt>
<trkpt lat="40.0713749" lon="-105.229789">
  <ele>1583.0</ele>
  <time>2026-08-28T17:51:30Z</time>
  <course>245.96</course>
  <speed>0.0</speed>
  <fix>3d</fix>
</trkpt>
<trkpt lat="40.0713749" lon="-105.229789">
  <ele>1583.0</ele>
  <time>2026-08-28T17:51:30Z</time>
  <course>0.0</course>
  <speed>0.0</speed>
  <fix>3d</fix>
</trkpt>
<trkpt lat="40.0713749" lon="-105.229789">
  <ele>1583.0</ele>
  <time>2026-08-28T17:51:30Z</time>
  <course>246.08</course>
  <speed>0.0</speed>
  <fix>3d</fix>
</trkpt>
<trkpt lat="40.0713749" lon="-105.229789">
  <ele>1583.0</ele>
  <time>2026-08-28T17:51:30Z</time>
  <course>0.0</course>
  <speed>0.0</speed>
  <fix>3d</fix>
</trkpt>
<trkpt lat="40.0713749" lon="-105.229789">
  <ele>1583.0</ele>
  <time>2026-08-28T17:51:30Z</time>
  <course>246.19</course>
  <speed>0.0</speed>
  <fix>3d</fix>
</trkpt>
<trkpt lat="40.0713749" lon="-105.229789">
  <ele>1583.0</ele>
  <time>2026-08-28T17:51:30Z</time>
  <course>0.0</course>
  <speed>0.0</speed>
  <fix>3d</fix>
</trkpt>
<trkpt lat="40.0713749" lon="-105.229789">
  <ele>1583.0</ele>
  <time>2026-08-28T17:51:30Z</time>
  <course>246.3</course>
  <speed>0.0</speed>
  <fix>3d</fix>
</trkpt>
<trkpt lat="40.0713749" lon="-105.229789">
  <ele>1583.0</ele>
  <time>2026-08-28T17:51:30Z</time>
  <course>0.0</course>
  <speed>0.0</speed>
  <fix>3d</fix>
</trkpt>
<trkpt lat="40.0713749" lon="-105.229789">
  <ele>1583.0</ele>
  <time>2026-08-28T17:51:30Z</time>
  <course>246.41</course>
  <speed>0.0</speed>
  <fix>3d</fix>
</trkpt>
<trkpt lat="40.0713749" lon="-105.229789">
  <ele>1583.0</ele>
  <time>2026-08-28T17:51:30Z</time>
  <course>0.0</course>
  <speed>0.0</speed>
  <fix>3d</fix>
</trkpt>
<trkpt lat="40.0713749" lon="-105.229789">
  <ele>1583.0</ele>
  <time>2026-08-28T17:51:30Z</time>
  <course>246.53</course>
  <speed>0.0</speed>
  <fix>3d</fix>
</trkpt>
<trkpt lat="40.0713749" lon="-105.229789">
  <ele>1583.0</ele>
  <time>2026-08-28T17:51:30Z</time>
  <course>0.0</course>
  <speed>0.0</speed>
  <fix>3d</fix>
</trkpt>
<trkpt lat="40.0713749" lon="-105.229789">
  <ele>1583.0</ele>
  <time>2026-08-28T17:51:30Z</time>
  <course>246.62</course>
  <speed>0.0</speed>
  <fix>3d</fix>
</trkpt>
<trkpt lat="40.0713749" lon="-105.229789">
  <ele>1583.0</ele>
  <time>2026-08-28T17:51:30Z</time>
  <course>0.0</course>
  <speed>0.0</speed>
  <fix>3d</fix>
</trkpt>
<trkpt lat="40.0713749" lon="-105.229789">
  <ele>1583.0</ele>
  <time>2026-08-28T17:51:30Z</time>
  <course>246.71</course>
  <speed>0.0</speed>
  <fix>3d</fix>
</trkpt>
<trkpt lat="40.0713749" lon="-105.229789">
  <ele>1583.0</ele>
  <time>2026-08-28T17:51:30Z</time>
  <course>0.0</course>
  <speed>0.0</speed>
  <fix>3d</fix>
</trkpt>
<trkpt lat="40.0713749" lon="-105.229789">
  <ele>1583.0</ele>
  <time>2026-08-28T17:51:30Z</time>
  <course>246.8</course>
  <speed>0.0</speed>
  <fix>3d</fix>
</trkpt>
<trkpt lat="40.0713749" lon="-105.229789">
  <ele>1583.0</ele>
  <time>2026-08-28T17:51:30Z</time>
  <course>0.0</course>
  <speed>0.0</speed>
  <fix>3d</fix>
</trkpt>
<trkpt lat="40.0713749" lon="-105.229789">
  <ele>1583.0</ele>
  <time>2026-08-28T17:51:30Z</time>
  <course>246.88</course>
  <speed>0.0</speed>
  <fix>3d</fix>
</trkpt>
<trkpt lat="40.0713749" lon="-105.229789">
  <ele>1583.0</ele>
  <time>2026-08-28T17:51:30Z</time>
  <course>0.0</course>
  <speed>0.0</speed>
  <fix>3d</fix>
</trkpt>
<trkpt lat="40.0713749" lon="-105.229789">
  <ele>1583.0</ele>
  <time>2026-08-28T17:51:30Z</time>
  <course>246.96</course>
  <speed>0.0</speed>
  <fix>3d</fix>
</trkpt>
<trkpt lat="40.0713749" lon="-105.229789">
  <ele>1583.0</ele>
  <time>2026-08-28T17:51:30Z</time>
  <course>0.0</course>
  <speed>0.0</speed>
  <fix>3d</fix>
</trkpt>
<trkpt lat="40.0713749" lon="-105.229789">
  <ele>1583.0</ele>
  <time>2026-08-28T17:51:30Z</time>
  <course>247.04</course>
  <speed>0.0</speed>
  <fix>3d</fix>
</trkpt>
<trkpt lat="40.0713749" lon="-105.229789">
  <ele>1583.0</ele>
  <time>2026-08-28T17:51:30Z</time>
  <course>0.0</course>
  <speed>0.0</speed>
  <fix>3d</fix>
</trkpt>
<trkpt lat="40.0713749" lon="-105.229789">
  <ele>1583.0</ele>
  <time>2026-08-28T17:51:30Z</time>
  <course>247.11</course>
  <speed>0.0</speed>
  <fix>3d</fix>
</trkpt>
<trkpt lat="40.0713749" lon="-105.229789">
  <ele>1583.0</ele>
  <time>2026-08-28T17:51:30Z</time>
  <course>0.0</course>
  <speed>0.0</speed>
  <fix>3d</fix>
</trkpt>
<trkpt lat="40.0713749" lon="-105.229789">
  <ele>1583.0</ele>
  <time>2026-08-28T17:51:30Z</time>
  <course>247.18</course>
  <speed>0.0</speed>
  <fix>3d</fix>
</trkpt>
<trkpt lat="40.0713749" lon="-105.229789">
  <ele>1583.0</ele>
  <time>2026-08-28T17:51:30Z</time>
  <course>0.0</course>
  <speed>0.0</speed>
  <fix>3d</fix>
</trkpt>
<trkpt lat="40.0713749" lon="-105.229789">
  <ele>1583.0</ele>
  <time>2026-08-28T17:51:30Z</time>
  <course>247.25</course>
  <speed>0.0</speed>
  <fix>3d</fix>
</trkpt>
<trkpt lat="40.0713749" lon="-105.229789">
  <ele>1583.0</ele>
  <time>2026-08-28T17:51:30Z</time>
  <course>0.0</course>
  <speed>0.0</speed>
  <fix>3d</fix>
</trkpt>
<trkpt lat="40.0713749" lon="-105.229789">
  <ele>1583.0</ele>
  <time>2026-08-28T17:51:30Z</time>
  <course>247.31</course>
  <speed>0.0</speed>
  <fix>3d</fix>
</trkpt>
<trkpt lat="40.0713749" lon="-105.229789">
  <ele>1583.0</ele>
  <time>2026-08-28T17:51:30Z</time>
  <course>0.0</course>
  <speed>0.0</speed>
  <fix>3d</fix>
</trkpt>
<trkpt lat="40.0713749" lon="-105.229789">
  <ele>1583.0</ele>
  <time>2026-08-28T17:51:30Z</time>
  <course>247.36</course>
  <speed>0.0</speed>
  <fix>3d</fix>
</trkpt>
<trkpt lat="40.0713749" lon="-105.229789">
  <ele>1583.0</ele>
  <time>2026-08-28T17:51:30Z</time>
  <course>0.0</course>
  <speed>0.0</speed>
  <fix>3d</fix>
</trkpt>
<trkpt lat="40.0713749" lon="-105.229789">
  <ele>1583.0</ele>
  <time>2026-08-28T17:51:30Z</time>
  <course>247.42</course>
  <speed>0.0</speed>
  <fix>3d</fix>
</trkpt>
<trkpt lat="40.0713749" lon="-105.229789">
  <ele>1583.0</ele>
  <time>2026-08-28T17:51:30Z</time>
  <course>0.0</course>
  <speed>0.0</speed>
  <fix>3d</fix>
</trkpt>
<trkpt lat="40.0713749" lon="-105.229789">
  <ele>1583.0</ele>
  <time>2026-08-28T17:51:30Z</time>
  <course>247.47</course>
  <speed>0.0</speed>
  <fix>3d</fix>
</trkpt>
<trkpt lat="40.0713749" lon="-105.229789">
  <ele>1583.0</ele>
  <time>2026-08-28T17:51:30Z</time>
  <course>0.0</course>
  <speed>0.0</speed>
  <fix>3d</fix>
</trkpt>
<trkpt lat="40.0713749" lon="-105.229789">
  <ele>1583.0</ele>
  <time>2026-08-28T17:51:30Z</time>
  <course>247.53</course>
  <speed>0.0</speed>
  <fix>3d</fix>
</trkpt>
<trkpt lat="40.0713749" lon="-105.229789">
  <ele>1583.0</ele>
  <time>2026-08-28T17:51:30Z</time>
  <course>0.0</course>
  <speed>0.0</speed>
  <fix>3d</fix>
</trkpt>
<trkpt lat="40.0713749" lon="-105.229789">
  <ele>1583.0</ele>
  <time>2026-08-28T17:51:30Z</time>
  <course>247.58</course>
  <speed>0.0</speed>
  <fix>3d</fix>
</trkpt>
<trkpt lat="40.0713749" lon="-105.229789">
  <ele>1583.0</ele>
  <time>2026-08-28T17:51:30Z</time>
  <course>0.0</course>
  <speed>0.0</speed>
  <fix>3d</fix>
</trkpt>
<trkpt lat="40.0713749" lon="-105.229789">
  <ele>1583.0</ele>
  <time>2026-08-28T17:51:30Z</time>
  <course>247.63</course>
  <speed>0.0</speed>
  <fix>3d</fix>
</trkpt>
<trkpt lat="40.0713749" lon="-105.229789">
  <ele>1583.0</ele>
  <time>2026-08-28T17:51:30Z</time>
  <course>0.0</course>
  <speed>0.0</speed>
  <fix>3d</fix>
</trkpt>
<trkpt lat="40.0713749" lon="-105.229789">
  <ele>1583.0</ele>
  <time>2026-08-28T17:51:30Z</time>
  <course>247.67</course>
  <speed>0.0</speed>
  <fix>3d</fix>
</trkpt>
<trkpt lat="40.0713749" lon="-105.229789">
  <ele>1583.0</ele>
  <time>2026-08-28T17:51:30Z</time>
  <course>0.0</course>
  <speed>0.0</speed>
  <fix>3d</fix>
</trkpt>
<trkpt lat="40.0713749" lon="-105.229789">
  <ele>1583.0</ele>
  <time>2026-08-28T17:51:30Z</time>
  <course>247.72</course>
  <speed>0.0</speed>
  <fix>3d</fix>
</trkpt>
<trkpt lat="40.0713749" lon="-105.229789">
  <ele>1583.0</ele>
  <time>2026-08-28T17:51:30Z</time>
  <course>0.0</course>
  <speed>0.0</speed>
  <fix>3d</fix>
</trkpt>
<trkpt lat="40.0713749" lon="-105.229789">
  <ele>1583.0</ele>
  <time>2026-08-28T17:51:30Z</time>
  <course>247.76</course>
  <speed>0.0</speed>
  <fix>3d</fix>
</trkpt>
<trkpt lat="40.0713749" lon="-105.229789">
  <ele>1583.0</ele>
  <time>2026-08-28T17:51:30Z</time>
  <course>0.0</course>
  <speed>0.0</speed>
  <fix>3d</fix>
</trkpt>
<trkpt lat="40.0713749" lon="-105.229789">
  <ele>1583.0</ele>
  <time>2026-08-28T17:51:30Z</time>
  <course>247.81</course>
  <speed>0.0</speed>
  <fix>3d</fix>
</trkpt>
<trkpt lat="40.0713749" lon="-105.229789">
  <ele>1583.0</ele>
  <time>2026-08-28T17:51:30Z</time>
  <course>0.0</course>
  <speed>0.0</speed>
  <fix>3d</fix>
</trkpt>
<trkpt lat="40.0713749" lon="-105.229789">
  <ele>1583.0</ele>
  <time>2026-08-28T17:51:30Z</time>
  <course>247.84</course>
  <speed>0.0</speed>
  <fix>3d</fix>
</trkpt>
<trkpt lat="40.0713749" lon="-105.229789">
  <ele>1583.0</ele>
  <time>2026-08-28T17:51:30Z</time>
  <course>0.0</course>
  <speed>0.0</speed>
  <fix>3d</fix>
</trkpt>
<trkpt lat="40.0713749" lon="-105.229789">
  <ele>1583.0</ele>
  <time>2026-08-28T17:51:30Z</time>
  <course>247.88</course>
  <speed>0.0</speed>
  <fix>3d</fix>
</trkpt>
<trkpt lat="40.0713749" lon="-105.229789">
  <ele>1583.0</ele>
  <time>2026-08-28T17:51:30Z</time>
  <course>0.0</course>
  <speed>0.0</speed>
  <fix>3d</fix>
</trkpt>
<trkpt lat="40.0713749" lon="-105.229789">
  <ele>1583.0</ele>
  <time>2026-08-28T17:51:30Z</time>
  <course>247.91</course>
  <speed>0.0</speed>
  <fix>3d</fix>
</trkpt>
<trkpt lat="40.0713749" lon="-105.229789">
  <ele>1583.0</ele>
  <time>2026-08-28T17:51:30Z</time>
  <course>0.0</course>
  <speed>0.0</speed>
  <fix>3d</fix>
</trkpt>
<trkpt lat="40.0713749" lon="-105.229789">
  <ele>1583.0</ele>
  <time>2026-08-28T17:51:30Z</time>
  <course>247.94</course>
  <speed>0.0</speed>
  <fix>3d</fix>
</trkpt>
<trkpt lat="40.0713749" lon="-105.229789">
  <ele>1583.0</ele>
  <time>2026-08-28T17:51:30Z</time>
  <course>0.0</course>
  <speed>0.0</speed>
  <fix>3d</fix>
</trkpt>
<trkpt lat="40.0713749" lon="-105.229789">
  <ele>1583.0</ele>
  <time>2026-08-28T17:51:30Z</time>
  <course>247.97</course>
  <speed>0.0</speed>
  <fix>3d</fix>
</trkpt>
<trkpt lat="40.0713749" lon="-105.229789">
  <ele>1583.0</ele>
  <time>2026-08-28T17:51:30Z</time>
  <course>0.0</course>
  <speed>0.0</speed>
  <fix>3d</fix>
</trkpt>
<trkpt lat="40.0713749" lon="-105.229789">
  <ele>1583.0</ele>
  <time>2026-08-28T17:51:30Z</time>
  <course>248.0</course>
  <speed>0.0</speed>
  <fix>3d</fix>
</trkpt>
<trkpt lat="40.0713749" lon="-105.229789">
  <ele>1583.0</ele>
  <time>2026-08-28T17:51:30Z</time>
  <course>0.0</course>
  <speed>0.0</speed>
  <fix>3d</fix>
</trkpt>
<trkpt lat="40.0713749" lon="-105.229789">
  <ele>1583.0</ele>
  <time>2026-08-28T17:51:30Z</time>
  <course>248.03</course>
  <speed>0.0</speed>
  <fix>3d</fix>
</trkpt>
<trkpt lat="40.0713749" lon="-105.229789">
  <ele>1583.0</ele>
  <time>2026-08-28T17:51:30Z</time>
  <course>0.0</course>
  <speed>0.0</speed>
  <fix>3d</fix>
</trkpt>
<trkpt lat="40.0713749" lon="-105.229789">
  <ele>1583.0</ele>
  <time>2026-08-28T17:51:30Z</time>
  <course>248.06</course>
  <speed>0.0</speed>
  <fix>3d</fix>
</trkpt>
<trkpt lat="40.0713749" lon="-105.229789">
  <ele>1583.0</ele>
  <time>2026-08-28T17:51:30Z</time>
  <course>0.0</course>
  <speed>0.0</speed>
  <fix>3d</fix>
</trkpt>
<trkpt lat="40.0713749" lon="-105.229789">
  <ele>1583.0</ele>
  <time>2026-08-28T17:51:30Z</time>
  <course>248.08</course>
  <speed>0.0</speed>
  <fix>3d</fix>
</trkpt>
<trkpt lat="40.0713749" lon="-105.229789">
  <ele>1583.0</ele>
  <time>2026-08-28T17:51:30Z</time>
  <course>0.0</course>
  <speed>0.0</speed>
  <fix>3d</fix>
</trkpt>
<trkpt lat="40.0713749" lon="-105.229789">
  <ele>1583.0</ele>
  <time>2026-08-28T17:51:30Z</time>
  <course>248.11</course>
  <speed>0.0</speed>
  <fix>3d</fix>
</trkpt>
<trkpt lat="40.0713749" lon="-105.229789">
  <ele>1583.0</ele>
  <time>2026-08-28T17:51:30Z</time>
  <course>0.0</course>
  <speed>0.0</speed>
  <fix>3d</fix>
</trkpt>
<trkpt lat="40.0713749" lon="-105.229789">
  <ele>1583.0</ele>
  <time>2026-08-28T17:51:30Z</time>
  <course>248.12</course>
  <speed>0.0</speed>
  <fix>3d</fix>
</trkpt>
<trkpt lat="40.0713749" lon="-105.229789">
  <ele>1583.0</ele>
  <time>2026-08-28T17:51:30Z</time>
  <course>0.0</course>
  <speed>0.0</speed>
  <fix>3d</fix>
</trkpt>
<trkpt lat="40.0713749" lon="-105.229789">
  <ele>1583.0</ele>
  <time>2026-08-28T17:51:30Z</time>
  <course>248.14</course>
  <speed>0.0</speed>
  <fix>3d</fix>
</trkpt>
<trkpt lat="40.0713749" lon="-105.229789">
  <ele>1583.0</ele>
  <time>2026-08-28T17:51:30Z</time>
  <course>0.0</course>
  <speed>0.0</speed>
  <fix>3d</fix>
</trkpt>
<trkpt lat="40.0713749" lon="-105.229789">
  <ele>1583.0</ele>
  <time>2026-08-28T17:51:30Z</time>
  <course>248.16</course>
  <speed>0.0</speed>
  <fix>3d</fix>
</trkpt>
<trkpt lat="40.0713749" lon="-105.229789">
  <ele>1583.0</ele>
  <time>2026-08-28T17:51:30Z</time>
  <course>0.0</course>
  <speed>0.0</speed>
  <fix>3d</fix>
</trkpt>
<trkpt lat="40.0713749" lon="-105.229789">
  <ele>1583.0</ele>
  <time>2026-08-28T17:51:30Z</time>
  <course>248.18</course>
  <speed>0.0</speed>
  <fix>3d</fix>
</trkpt>
<trkpt lat="40.0713749" lon="-105.229789">
  <ele>1583.0</ele>
  <time>2026-08-28T17:51:30Z</time>
  <course>0.0</course>
  <speed>0.0</speed>
  <fix>3d</fix>
</trkpt>
<trkpt lat="40.0713749" lon="-105.229789">
  <ele>1583.0</ele>
  <time>2026-08-28T17:51:30Z</time>
  <course>248.2</course>
  <speed>0.0</speed>
  <fix>3d</fix>
</trkpt>
<trkpt lat="40.0713749" lon="-105.229789">
  <ele>1583.0</ele>
  <time>2026-08-28T17:51:30Z</time>
  <course>0.0</course>
  <speed>0.0</speed>
  <fix>3d</fix>
</trkpt>
<trkpt lat="40.0713749" lon="-105.229789">
  <ele>1583.0</ele>
  <time>2026-08-28T17:51:30Z</time>
  <course>248.22</course>
  <speed>0.0</speed>
  <fix>3d</fix>
</trkpt>
<trkpt lat="40.0713749" lon="-105.229789">
  <ele>1583.0</ele>
  <time>2026-08-28T17:51:30Z</time>
  <course>0.0</course>
  <speed>0.0</speed>
  <fix>3d</fix>
</trkpt>
<trkpt lat="40.0713749" lon="-105.229789">
  <ele>1583.0</ele>
  <time>2026-08-28T17:51:30Z</time>
  <course>248.23</course>
  <speed>0.0</speed>
  <fix>3d</fix>
</trkpt>
<trkpt lat="40.0713749" lon="-105.229789">
  <ele>1583.0</ele>
  <time>2026-08-28T17:51:30Z</time>
  <course>0.0</course>
  <speed>0.0</speed>
  <fix>3d</fix>
</trkpt>
<trkpt lat="40.0713749" lon="-105.229789">
  <ele>1583.0</ele>
  <time>2026-08-28T17:51:30Z</time>
  <course>248.25</course>
  <speed>0.0</speed>
  <fix>3d</fix>
</trkpt>
<trkpt lat="40.0713749" lon="-105.229789">
  <ele>1583.0</ele>
  <time>2026-08-28T17:51:30Z</time>
  <course>0.0</course>
  <speed>0.0</speed>
  <fix>3d</fix>
</trkpt>
<trkpt lat="40.0713749" lon="-105.229789">
  <ele>1583.0</ele>
  <time>2026-08-28T17:51:30Z</time>
  <course>248.26</course>
  <speed>0.0</speed>
  <fix>3d</fix>
</trkpt>
<trkpt lat="40.0713749" lon="-105.229789">
  <ele>1583.0</ele>
  <time>2026-08-28T17:51:30Z</time>
  <course>0.0</course>
  <speed>0.0</speed>
  <fix>3d</fix>
</trkpt>
<trkpt lat="40.0713749" lon="-105.229789">
  <ele>1583.0</ele>
  <time>2026-08-28T17:51:30Z</time>
  <course>248.28</course>
  <speed>0.0</speed>
  <fix>3d</fix>
</trkpt>
<trkpt lat="40.0713749" lon="-105.229789">
  <ele>1583.0</ele>
  <time>2026-08-28T17:51:30Z</time>
  <course>0.0</course>
  <speed>0.0</speed>
  <fix>3d</fix>
</trkpt>
<trkpt lat="40.0713749" lon="-105.229789">
  <ele>1583.0</ele>
  <time>2026-08-28T17:51:30Z</time>
  <course>248.29</course>
  <speed>0.0</speed>
  <fix>3d</fix>
</trkpt>
<trkpt lat="40.0713749" lon="-105.229789">
  <ele>1583.0</ele>
  <time>2026-08-28T17:51:30Z</time>
  <course>0.0</course>
  <speed>0.0</speed>
  <fix>3d</fix>
</trkpt>
<trkpt lat="40.0713749" lon="-105.229789">
  <ele>1583.0</ele>
  <time>2026-08-28T17:51:30Z</time>
  <course>248.3</course>
  <speed>0.0</speed>
  <fix>3d</fix>
</trkpt>
<trkpt lat="40.0713749" lon="-105.229789">
  <ele>1583.0</ele>
  <time>2026-08-28T17:51:30Z</time>
  <course>0.0</course>
  <speed>0.0</speed>
  <fix>3d</fix>
</trkpt>
<trkpt lat="40.0713749" lon="-105.229789">
  <ele>1583.0</ele>
  <time>2026-08-28T17:51:30Z</time>
  <course>248.31</course>
  <speed>0.0</speed>
  <fix>3d</fix>
</trkpt>
<trkpt lat="40.0713749" lon="-105.229789">
  <ele>1583.0</ele>
  <time>2026-08-28T17:51:30Z</time>
  <course>0.0</course>
  <speed>0.0</speed>
  <fix>3d</fix>
</trkpt>
<trkpt lat="40.0713749" lon="-105.229789">
  <ele>1583.0</ele>
  <time>2026-08-28T17:51:30Z</time>
  <course>248.32</course>
  <speed>0.0</speed>
  <fix>3d</fix>
</trkpt>
<trkpt lat="40.0713749" lon="-105.229789">
  <ele>1583.0</ele>
  <time>2026-08-28T17:51:30Z</time>
  <course>0.0</course>
  <speed>0.0</speed>
  <fix>3d</fix>
</trkpt>
<trkpt lat="40.0713749" lon="-105.229789">
  <ele>1583.0</ele>
  <time>2026-08-28T17:51:30Z</time>
  <course>248.33</course>
  <speed>0.0</speed>
  <fix>3d</fix>
</trkpt>
<trkpt lat="40.0713749" lon="-105.229789">
  <ele>1583.0</ele>
  <time>2026-08-28T17:51:30Z</time>
  <course>0.0</course>
  <speed>0.0</speed>
  <fix>3d</fix>
</trkpt>
<trkpt lat="40.0713749" lon="-105.229789">
  <ele>1583.0</ele>
  <time>2026-08-28T17:51:30Z</time>
  <course>248.34</course>
  <speed>0.0</speed>
  <fix>3d</fix>
</trkpt>
<trkpt lat="40.0713749" lon="-105.229789">
  <ele>1583.0</ele>
  <time>2026-08-28T17:51:30Z</time>
  <course>0.0</course>
  <speed>0.0</speed>
  <fix>3d</fix>
</trkpt>
<trkpt lat="40.0713749" lon="-105.229789">
  <ele>1583.0</ele>
  <time>2026-08-28T17:51:30Z</time>
  <course>248.35</course>
  <speed>0.0</speed>
  <fix>3d</fix>
</trkpt>
<trkpt lat="40.0713749" lon="-105.229789">
  <ele>1583.0</ele>
  <time>2026-08-28T17:51:30Z</time>
  <course>0.0</course>
  <speed>0.0</speed>
  <fix>3d</fix>
</trkpt>
<trkpt lat="40.0713749" lon="-105.229789">
  <ele>1583.0</ele>
  <time>2026-08-28T17:51:30Z</time>
  <course>248.36</course>
  <speed>0.0</speed>
  <fix>3d</fix>
</trkpt>
<trkpt lat="40.0713749" lon="-105.229789">
  <ele>1583.0</ele>
  <time>2026-08-28T17:51:30Z</time>
  <course>0.0</course>
  <speed>0.0</speed>
  <fix>3d</fix>
</trkpt>
<trkpt lat="40.0713749" lon="-105.229789">
  <ele>1583.0</ele>
  <time>2026-08-28T17:51:30Z</time>
  <course>248.36</course>
  <speed>0.0</speed>
  <fix>3d</fix>
</trkpt>
<trkpt lat="40.0713749" lon="-105.229789">
  <ele>1583.0</ele>
  <time>2026-08-28T17:51:30Z</time>
  <course>0.0</course>
  <speed>0.0</speed>
  <fix>3d</fix>
</trkpt>
<trkpt lat="40.0713749" lon="-105.229789">
  <ele>1583.0</ele>
  <time>2026-08-28T17:51:30Z</time>
  <course>248.37</course>
  <speed>0.0</speed>
  <fix>3d</fix>
</trkpt>
<trkpt lat="40.0713749" lon="-105.229789">
  <ele>1583.0</ele>
  <time>2026-08-28T17:51:30Z</time>
  <course>0.0</course>
  <speed>0.0</speed>
  <fix>3d</fix>
</trkpt>
<trkpt lat="40.0713749" lon="-105.229789">
  <ele>1583.0</ele>
  <time>2026-08-28T17:51:30Z</time>
  <course>248.38</course>
  <speed>0.0</speed>
  <fix>3d</fix>
</trkpt>
<trkpt lat="40.0713749" lon="-105.229789">
  <ele>1583.0</ele>
  <time>2026-08-28T17:51:30Z</time>
  <course>0.0</course>
  <speed>0.0</speed>
  <fix>3d</fix>
</trkpt>
<trkpt lat="40.0713749" lon="-105.229789">
  <ele>1583.0</ele>
  <time>2026-08-28T17:51:30Z</time>
  <course>248.38</course>
  <speed>0.0</speed>
  <fix>3d</fix>
</trkpt>
<trkpt lat="40.0713749" lon="-105.229789">
  <ele>1583.0</ele>
  <time>2026-08-28T17:51:30Z</time>
  <course>0.0</course>
  <speed>0.0</speed>
  <fix>3d</fix>
</trkpt>
<trkpt lat="40.0713749" lon="-105.229789">
  <ele>1583.0</ele>
  <time>2026-08-28T17:51:30Z</time>
  <course>248.38</course>
  <speed>0.0</speed>
  <fix>3d</fix>
</trkpt>
<trkpt lat="40.0713749" lon="-105.229789">
  <ele>1583.0</ele>
  <time>2026-08-28T17:51:30Z</time>
  <course>0.0</course>
  <speed>0.0</speed>
  <fix>3d</fix>
</trkpt>
<trkpt lat="40.0713749" lon="-105.229789">
  <ele>1583.0</ele>
  <time>2026-08-28T17:51:30Z</time>
  <course>248.39</course>
  <speed>0.0</speed>
  <fix>3d</fix>
</trkpt>
<trkpt lat="40.0713749" lon="-105.229789">
  <ele>1583.0</ele>
  <time>2026-08-28T17:51:30Z</time>
  <course>0.0</course>
  <speed>0.0</speed>
  <fix>3d</fix>
</trkpt>
<trkpt lat="40.0713749" lon="-105.229789">
  <ele>1583.0</ele>
  <time>2026-08-28T17:51:30Z</time>
  <course>248.39</course>
  <speed>0.0</speed>
  <fix>3d</fix>
</trkpt>
<trkpt lat="40.0713749" lon="-105.229789">
  <ele>1583.0</ele>
  <time>2026-08-28T17:51:30Z</time>
  <course>0.0</course>
  <speed>0.0</speed>
  <fix>3d</fix>
</trkpt>
<trkpt lat="40.0713749" lon="-105.229789">
  <ele>1583.0</ele>
  <time>2026-08-28T17:51:30Z</time>
  <course>248.4</course>
  <speed>0.0</speed>
  <fix>3d</fix>
</trkpt>
<trkpt lat="40.0713749" lon="-105.229789">
  <ele>1583.0</ele>
  <time>2026-08-28T17:51:30Z</time>
  <course>0.0</course>
  <speed>0.0</speed>
  <fix>3d</fix>
</trkpt>
<trkpt lat="40.0713749" lon="-105.229789">
  <ele>1583.0</ele>
  <time>2026-08-28T17:51:30Z</time>
  <course>248.4</course>
  <speed>0.0</speed>
  <fix>3d</fix>
</trkpt>
<trkpt lat="40.0713749" lon="-105.229789">
  <ele>1583.0</ele>
  <time>2026-08-28T17:51:30Z</time>
  <course>0.0</course>
  <speed>0.0</speed>
  <fix>3d</fix>
</trkpt>
<trkpt lat="40.0713749" lon="-105.229789">
  <ele>1583.0</ele>
  <time>2026-08-28T17:51:30Z</time>
  <course>248.4</course>
  <speed>0.0</speed>
  <fix>3d</fix>
</trkpt>
<trkpt lat="40.0713749" lon="-105.229789">
  <ele>1583.0</ele>
  <time>2026-08-28T17:51:30Z</time>
  <course>0.0</course>
  <speed>0.0</speed>
  <fix>3d</fix>
</trkpt>
<trkpt lat="40.0713749" lon="-105.229789">
  <ele>1583.0</ele>
  <time>2026-08-28T17:51:30Z</time>
  <course>248.4</course>
  <speed>0.0</speed>
  <fix>3d</fix>
</trkpt>
<trkpt lat="40.0713749" lon="-105.229789">
  <ele>1583.0</ele>
  <time>2026-08-28T17:51:30Z</time>
  <course>0.0</course>
  <speed>0.0</speed>
  <fix>3d</fix>
</trkpt>
<trkpt lat="40.0713749" lon="-105.229789">
  <ele>1583.0</ele>
  <time>2026-08-28T17:51:30Z</time>
  <course>248.41</course>
  <speed>0.0</speed>
  <fix>3d</fix>
</trkpt>
<trkpt lat="40.0713749" lon="-105.229789">
  <ele>1583.0</ele>
  <time>2026-08-28T17:51:30Z</time>
  <course>0.0</course>
  <speed>0.0</speed>
  <fix>3d</fix>
</trkpt>
<trkpt lat="40.0713749" lon="-105.229789">
  <ele>1583.0</ele>
  <time>2026-08-28T17:51:30Z</time>
  <course>248.41</course>
  <speed>0.0</speed>
  <fix>3d</fix>
</trkpt>
<trkpt lat="40.0713749" lon="-105.229789">
  <ele>1583.0</ele>
  <time>2026-08-28T17:51:30Z</time>
  <course>0.0</course>
  <speed>0.0</speed>
  <fix>3d</fix>
</trkpt>
<trkpt lat="40.0713749" lon="-105.229789">
  <ele>1583.0</ele>
  <time>2026-08-28T17:51:30Z</time>
  <course>248.41</course>
  <speed>0.0</speed>
  <fix>3d</fix>
</trkpt>
<trkpt lat="40.0713749" lon="-105.229789">
  <ele>1583.0</ele>
  <time>2026-08-28T17:51:30Z</time>
  <course>0.0</course>
  <speed>0.0</speed>
  <fix>3d</fix>
</trkpt>
<trkpt lat="40.0713749" lon="-105.229789">
  <ele>1583.0</ele>
  <time>2026-08-28T17:51:30Z</time>
  <course>248.41</course>
  <speed>0.0</speed>
  <fix>3d</fix>
</trkpt>
<trkpt lat="40.0713749" lon="-105.229789">
  <ele>1583.0</ele>
  <time>2026-08-28T17:51:30Z</time>
  <course>0.0</course>
  <speed>0.0</speed>
  <fix>3d</fix>
</trkpt>
<trkpt lat="40.0713749" lon="-105.229789">
  <ele>1583.0</ele>
  <time>2026-08-28T17:51:30Z</time>
  <course>248.41</course>
  <speed>0.0</speed>
  <fix>3d</fix>
</trkpt>
<trkpt lat="40.0713749" lon="-105.229789">
  <ele>1583.0</ele>
  <time>2026-08-28T17:51:30Z</time>
  <course>0.0</course>
  <speed>0.0</speed>
  <fix>3d</fix>
</trkpt>
<trkpt lat="40.0713749" lon="-105.229789">
  <ele>1583.0</ele>
  <time>2026-08-28T17:51:30Z</time>
  <course>248.41</course>
  <speed>0.0</speed>
  <fix>3d</fix>
</trkpt>
<trkpt lat="40.0713749" lon="-105.229789">
  <ele>1583.0</ele>
  <time>2026-08-28T17:51:30Z</time>
  <course>0.0</course>
  <speed>0.0</speed>
  <fix>3d</fix>
</trkpt>
<trkpt lat="40.0713749" lon="-105.229789">
  <ele>1583.0</ele>
  <time>2026-08-28T17:51:30Z</time>
  <course>248.41</course>
  <speed>0.0</speed>
  <fix>3d</fix>
</trkpt>
<trkpt lat="40.0713749" lon="-105.229789">
  <ele>1583.0</ele>
  <time>2026-08-28T17:51:30Z</time>
  <course>0.0</course>
  <speed>0.0</speed>
  <fix>3d</fix>
</trkpt>
<trkpt lat="40.0713749" lon="-105.229789">
  <ele>1583.0</ele>
  <time>2026-08-28T17:51:30Z</time>
  <course>248.41</course>
  <speed>0.0</speed>
  <fix>3d</fix>
</trkpt>
<trkpt lat="40.0713749" lon="-105.229789">
  <ele>1583.0</ele>
  <time>2026-08-28T17:51:30Z</time>
  <course>0.0</course>
  <speed>0.0</speed>
  <fix>3d</fix>
</trkpt>
<trkpt lat="40.0713749" lon="-105.229789">
  <ele>1583.0</ele>
  <time>2026-08-28T17:51:30Z</time>
  <course>248.41</course>
  <speed>0.0</speed>
  <fix>3d</fix>
</trkpt>
<trkpt lat="40.0713749" lon="-105.229789">
  <ele>1583.0</ele>
  <time>2026-08-28T17:51:30Z</time>
  <course>0.0</course>
  <speed>0.0</speed>
  <fix>3d</fix>
</trkpt>
<trkpt lat="40.0713749" lon="-105.229789">
  <ele>1583.0</ele>
  <time>2026-08-28T17:51:30Z</time>
  <course>248.41</course>
  <speed>0.0</speed>
  <fix>3d</fix>
</trkpt>
<trkpt lat="40.0713749" lon="-105.229789">
  <ele>1583.0</ele>
  <time>2026-08-28T17:51:30Z</time>
  <course>0.0</course>
  <speed>0.0</speed>
  <fix>3d</fix>
</trkpt>
<trkpt lat="40.0713749" lon="-105.229789">
  <ele>1583.0</ele>
  <time>2026-08-28T17:51:30Z</time>
  <course>248.41</course>
  <speed>0.0</speed>
  <fix>3d</fix>
</trkpt>
<trkpt lat="40.0713749" lon="-105.229789">
  <ele>1583.0</ele>
  <time>2026-08-28T17:51:30Z</time>
  <course>0.0</course>
  <speed>0.0</speed>
  <fix>3d</fix>
</trkpt>
<trkpt lat="40.0713749" lon="-105.229789">
  <ele>1583.0</ele>
  <time>2026-08-28T17:51:30Z</time>
  <course>248.41</course>
  <speed>0.0</speed>
  <fix>3d</fix>
</trkpt>
<trkpt lat="40.0713749" lon="-105.229789">
  <ele>1583.0</ele>
  <time>2026-08-28T17:51:30Z</time>
  <course>0.0</course>
  <speed>0.0</speed>
  <fix>3d</fix>
</trkpt>
<trkpt lat="40.0713749" lon="-105.229789">
  <ele>1583.0</ele>
  <time>2026-08-28T17:51:30Z</time>
  <course>248.41</course>
  <speed>0.0</speed>
  <fix>3d</fix>
</trkpt>
<trkpt lat="40.0713749" lon="-105.229789">
  <ele>1583.0</ele>
  <time>2026-08-28T17:51:30Z</time>
  <course>0.0</course>
  <speed>0.0</speed>
  <fix>3d</fix>
</trkpt>
<trkpt lat="40.0713749" lon="-105.229789">
  <ele>1583.0</ele>
  <time>2026-08-28T17:51:30Z</time>
  <course>248.41</course>
  <speed>0.0</speed>
  <fix>3d</fix>
</trkpt>
<trkpt lat="40.0713749" lon="-105.229789">
  <ele>1583.0</ele>
  <time>2026-08-28T17:51:30Z</time>
  <course>0.0</course>
  <speed>0.0</speed>
  <fix>3d</fix>
</trkpt>
<trkpt lat="40.0713749" lon="-105.229789">
  <ele>1583.0</ele>
  <time>2026-08-28T17:51:30Z</time>
  <course>248.41</course>
  <speed>0.0</speed>
  <fix>3d</fix>
</trkpt>
<trkpt lat="40.0713749" lon="-105.229789">
  <ele>1583.0</ele>
  <time>2026-08-28T17:51:30Z</time>
  <course>0.0</course>
  <speed>0.0</speed>
  <fix>3d</fix>
</trkpt>
<trkpt lat="40.0713749" lon="-105.229789">
  <ele>1583.0</ele>
  <time>2026-08-28T17:51:30Z</time>
  <course>248.41</course>
  <speed>0.0</speed>
  <fix>3d</fix>
</trkpt>
<trkpt lat="40.0713749" lon="-105.229789">
  <ele>1583.0</ele>
  <time>2026-08-28T17:51:30Z</time>
  <course>0.0</course>
  <speed>0.0</speed>
  <fix>3d</fix>
</trkpt>
<trkpt lat="40.0713749" lon="-105.229789">
  <ele>1583.0</ele>
  <time>2026-08-28T17:51:30Z</time>
  <course>248.4</course>
  <speed>0.0</speed>
  <fix>3d</fix>
</trkpt>
<trkpt lat="40.0713749" lon="-105.229789">
  <ele>1583.0</ele>
  <time>2026-08-28T17:51:30Z</time>
  <course>0.0</course>
  <speed>0.0</speed>
  <fix>3d</fix>
</trkpt>
<trkpt lat="40.0713749" lon="-105.229789">
  <ele>1583.0</ele>
  <time>2026-08-28T17:51:30Z</time>
  <course>248.4</course>
  <speed>0.01</speed>
  <fix>3d</fix>
</trkpt>
<trkpt lat="40.0713749" lon="-105.229789">
  <ele>1583.0</ele>
  <time>2026-08-28T17:51:30Z</time>
  <course>0.0</course>
  <speed>0.0</speed>
  <fix>3d</fix>
</trkpt>
<trkpt lat="40.0713749" lon="-105.229789">
  <ele>1583.0</ele>
  <time>2026-08-28T17:51:30Z</time>
  <course>248.4</course>
  <speed>0.01</speed>
  <fix>3d</fix>
</trkpt>
<trkpt lat="40.0713749" lon="-105.229789">
  <ele>1583.0</ele>
  <time>2026-08-28T17:51:30Z</time>
  <course>0.0</course>
  <speed>0.0</speed>
  <fix>3d</fix>
</trkpt>
<trkpt lat="40.0713749" lon="-105.229789">
  <ele>1583.0</ele>
  <time>2026-08-28T17:51:30Z</time>
  <course>248.4</course>
  <speed>0.01</speed>
  <fix>3d</fix>
</trkpt>
<trkpt lat="40.0713749" lon="-105.229789">
  <ele>1583.0</ele>
  <time>2026-08-28T17:51:30Z</time>
  <course>0.0</course>
  <speed>0.0</speed>
  <fix>3d</fix>
</trkpt>
<trkpt lat="40.0713749" lon="-105.229789">
  <ele>1583.0</ele>
  <time>2026-08-28T17:51:30Z</time>
  <course>248.4</course>
  <speed>0.01</speed>
  <fix>3d</fix>
</trkpt>
<trkpt lat="40.0713749" lon="-105.229789">
  <ele>1583.0</ele>
  <time>2026-08-28T17:51:30Z</time>
  <course>0.0</course>
  <speed>0.0</speed>
  <fix>3d</fix>
</trkpt>
<trkpt lat="40.0713749" lon="-105.229789">
  <ele>1583.0</ele>
  <time>2026-08-28T17:51:30Z</time>
  <course>248.39</course>
  <speed>0.01</speed>
  <fix>3d</fix>
</trkpt>
<trkpt lat="40.0713749" lon="-105.229789">
  <ele>1583.0</ele>
  <time>2026-08-28T17:51:30Z</time>
  <course>0.0</course>
  <speed>0.0</speed>
  <fix>3d</fix>
</trkpt>
<trkpt lat="40.0713749" lon="-105.229789">
  <ele>1583.0</ele>
  <time>2026-08-28T17:51:30Z</time>
  <course>248.39</course>
  <speed>0.01</speed>
  <fix>3d</fix>
</trkpt>
<trkpt lat="40.0713749" lon="-105.229789">
  <ele>1583.0</ele>
  <time>2026-08-28T17:51:30Z</time>
  <course>0.0</course>
  <speed>0.0</speed>
  <fix>3d</fix>
</trkpt>
<trkpt lat="40.0713749" lon="-105.229789">
  <ele>1583.0</ele>
  <time>2026-08-28T17:51:30Z</time>
  <course>248.39</course>
  <speed>0.01</speed>
  <fix>3d</fix>
</trkpt>
<trkpt lat="40.0713749" lon="-105.229789">
  <ele>1583.0</ele>
  <time>2026-08-28T17:51:30Z</time>
  <course>0.0</course>
  <speed>0.0</speed>
  <fix>3d</fix>
</trkpt>
<trkpt lat="40.0713749" lon="-105.229789">
  <ele>1583.0</ele>
  <time>2026-08-28T17:51:30Z</time>
  <course>248.38</course>
  <speed>0.01</speed>
  <fix>3d</fix>
</trkpt>
<trkpt lat="40.0713749" lon="-105.229789">
  <ele>1583.0</ele>
  <time>2026-08-28T17:51:30Z</time>
  <course>0.0</course>
  <speed>0.0</speed>
  <fix>3d</fix>
</trkpt>
<trkpt lat="40.0713749" lon="-105.229789">
  <ele>1583.0</ele>
  <time>2026-08-28T17:51:30Z</time>
  <course>248.38</course>
  <speed>0.01</speed>
  <fix>3d</fix>
</trkpt>
<trkpt lat="40.0713749" lon="-105.229789">
  <ele>1583.0</ele>
  <time>2026-08-28T17:51:30Z</time>
  <course>0.0</course>
  <speed>0.0</speed>
  <fix>3d</fix>
</trkpt>
<trkpt lat="40.0713749" lon="-105.229789">
  <ele>1583.0</ele>
  <time>2026-08-28T17:51:30Z</time>
  <course>248.38</course>
  <speed>0.01</speed>
  <fix>3d</fix>
</trkpt>
<trkpt lat="40.0713749" lon="-105.229789">
  <ele>1583.0</ele>
  <time>2026-08-28T17:51:30Z</time>
  <course>0.0</course>
  <speed>0.0</speed>
  <fix>3d</fix>
</trkpt>
<trkpt lat="40.0713749" lon="-105.229789">
  <ele>1583.0</ele>
  <time>2026-08-28T17:51:30Z</time>
  <course>248.38</course>
  <speed>0.01</speed>
  <fix>3d</fix>
</trkpt>
<trkpt lat="40.0713749" lon="-105.229789">
  <ele>1583.0</ele>
  <time>2026-08-28T17:51:30Z</time>
  <course>0.0</course>
  <speed>0.0</speed>
  <fix>3d</fix>
</trkpt>
<trkpt lat="40.0713749" lon="-105.229789">
  <ele>1583.0</ele>
  <time>2026-08-28T17:51:30Z</time>
  <course>248.37</course>
  <speed>0.01</speed>
  <fix>3d</fix>
</trkpt>
<trkpt lat="40.0713749" lon="-105.229789">
  <ele>1583.0</ele>
  <time>2026-08-28T17:51:30Z</time>
  <course>0.0</course>
  <speed>0.0</speed>
  <fix>3d</fix>
</trkpt>
<trkpt lat="40.0713749" lon="-105.229789">
  <ele>1583.0</ele>
  <time>2026-08-28T17:51:30Z</time>
  <course>248.37</course>
  <speed>0.01</speed>
  <fix>3d</fix>
</trkpt>
<trkpt lat="40.0713749" lon="-105.229789">
  <ele>1583.0</ele>
  <time>2026-08-28T17:51:30Z</time>
  <course>0.0</course>
  <speed>0.0</speed>
  <fix>3d</fix>
</trkpt>
<trkpt lat="40.0713749" lon="-105.229789">
  <ele>1583.0</ele>
  <time>2026-08-28T17:51:30Z</time>
  <course>248.37</course>
  <speed>0.01</speed>
  <fix>3d</fix>
</trkpt>
<trkpt lat="40.0713749" lon="-105.229789">
  <ele>1583.0</ele>
  <time>2026-08-28T17:51:30Z</time>
  <course>0.0</course>
  <speed>0.0</speed>
  <fix>3d</fix>
</trkpt>
<trkpt lat="40.0713749" lon="-105.229789">
  <ele>1583.0</ele>
  <time>2026-08-28T17:51:30Z</time>
  <course>248.36</course>
  <speed>0.01</speed>
  <fix>3d</fix>
</trkpt>
<trkpt lat="40.0713749" lon="-105.229789">
  <ele>1583.0</ele>
  <time>2026-08-28T17:51:30Z</time>
  <course>0.0</course>
  <speed>0.0</speed>
  <fix>3d</fix>
</trkpt>
<trkpt lat="40.0713749" lon="-105.229789">
  <ele>1583.0</ele>
  <time>2026-08-28T17:51:30Z</time>
  <course>248.36</course>
  <speed>0.01</speed>
  <fix>3d</fix>
</trkpt>
<trkpt lat="40.0713749" lon="-105.229789">
  <ele>1583.0</ele>
  <time>2026-08-28T17:51:30Z</time>
  <course>0.0</course>
  <speed>0.0</speed>
  <fix>3d</fix>
</trkpt>
<trkpt lat="40.0713749" lon="-105.229789">
  <ele>1583.0</ele>
  <time>2026-08-28T17:51:30Z</time>
  <course>248.35</course>
  <speed>0.01</speed>
  <fix>3d</fix>
</trkpt>
<trkpt lat="40.0713749" lon="-105.229789">
  <ele>1583.0</ele>
  <time>2026-08-28T17:51:30Z</time>
  <course>0.0</course>
  <speed>0.0</speed>
  <fix>3d</fix>
</trkpt>
<trkpt lat="40.0713749" lon="-105.229789">
  <ele>1583.0</ele>
  <time>2026-08-28T17:51:30Z</time>
  <course>248.35</course>
  <speed>0.01</speed>
  <fix>3d</fix>
</trkpt>
<trkpt lat="40.0713749" lon="-105.229789">
  <ele>1583.0</ele>
  <time>2026-08-28T17:51:30Z</time>
  <course>0.0</course>
  <speed>0.0</speed>
  <fix>3d</fix>
</trkpt>
<trkpt lat="40.0713749" lon="-105.229789">
  <ele>1583.0</ele>
  <time>2026-08-28T17:51:30Z</time>
  <course>248.35</course>
  <speed>0.01</speed>
  <fix>3d</fix>
</trkpt>
<trkpt lat="40.0713749" lon="-105.229789">
  <ele>1583.0</ele>
  <time>2026-08-28T17:51:30Z</time>
  <course>0.0</course>
  <speed>0.0</speed>
  <fix>3d</fix>
</trkpt>
<trkpt lat="40.0713749" lon="-105.229789">
  <ele>1583.0</ele>
  <time>2026-08-28T17:51:30Z</time>
  <course>248.34</course>
  <speed>0.01</speed>
  <fix>3d</fix>
</trkpt>
<trkpt lat="40.0713749" lon="-105.229789">
  <ele>1583.0</ele>
  <time>2026-08-28T17:51:30Z</time>
  <course>0.0</course>
  <speed>0.0</speed>
  <fix>3d</fix>
</trkpt>
<trkpt lat="40.0713749" lon="-105.229789">
  <ele>1583.0</ele>
  <time>2026-08-28T17:51:30Z</time>
  <course>248.34</course>
  <speed>0.01</speed>
  <fix>3d</fix>
</trkpt>
<trkpt lat="40.0713749" lon="-105.229789">
  <ele>1583.0</ele>
  <time>2026-08-28T17:51:30Z</time>
  <course>0.0</course>
  <speed>0.0</speed>
  <fix>3d</fix>
</trkpt>
<trkpt lat="40.0713749" lon="-105.229789">
  <ele>1583.0</ele>
  <time>2026-08-28T17:51:30Z</time>
  <course>248.33</course>
  <speed>0.01</speed>
  <fix>3d</fix>
</trkpt>
<trkpt lat="40.0713749" lon="-105.229789">
  <ele>1583.0</ele>
  <time>2026-08-28T17:51:30Z</time>
  <course>0.0</course>
  <speed>0.0</speed>
  <fix>3d</fix>
</trkpt>
<trkpt lat="40.0713749" lon="-105.229789">
  <ele>1583.0</ele>
  <time>2026-08-28T17:51:30Z</time>
  <course>248.33</course>
  <speed>0.01</speed>
  <fix>3d</fix>
</trkpt>
<trkpt lat="40.0713749" lon="-105.229789">
  <ele>1583.0</ele>
  <time>2026-08-28T17:51:30Z</time>
  <course>0.0</course>
  <speed>0.0</speed>
  <fix>3d</fix>
</trkpt>
<trkpt lat="40.0713749" lon="-105.229789">
  <ele>1583.0</ele>
  <time>2026-08-28T17:51:30Z</time>
  <course>248.32</course>
  <speed>0.01</speed>
  <fix>3d</fix>
</trkpt>
<trkpt lat="40.0713749" lon="-105.229789">
  <ele>1583.0</ele>
  <time>2026-08-28T17:51:30Z</time>
  <course>0.0</course>
  <speed>0.0</speed>
  <fix>3d</fix>
</trkpt>
<trkpt lat="40.0713749" lon="-105.229789">
  <ele>1583.0</ele>
  <time>2026-08-28T17:51:30Z</time>
  <course>248.32</course>
  <speed>0.01</speed>
  <fix>3d</fix>
</trkpt>
<trkpt lat="40.0713749" lon="-105.229789">
  <ele>1583.0</ele>
  <time>2026-08-28T17:51:30Z</time>
  <course>0.0</course>
  <speed>0.0</speed>
  <fix>3d</fix>
</trkpt>
<trkpt lat="40.0713749" lon="-105.229789">
  <ele>1583.0</ele>
  <time>2026-08-28T17:51:30Z</time>
  <course>248.32</course>
  <speed>0.01</speed>
  <fix>3d</fix>
</trkpt>
<trkpt lat="40.0713749" lon="-105.229789">
  <ele>1583.0</ele>
  <time>2026-08-28T17:51:30Z</time>
  <course>0.0</course>
  <speed>0.0</speed>
  <fix>3d</fix>
</trkpt>
<trkpt lat="40.0713749" lon="-105.229789">
  <ele>1583.0</ele>
  <time>2026-08-28T17:51:30Z</time>
  <course>248.31</course>
  <speed>0.01</speed>
  <fix>3d</fix>
</trkpt>
<trkpt lat="40.0713749" lon="-105.229789">
  <ele>1583.0</ele>
  <time>2026-08-28T17:51:30Z</time>
  <course>0.0</course>
  <speed>0.0</speed>
  <fix>3d</fix>
</trkpt>
<trkpt lat="40.0713749" lon="-105.229789">
  <ele>1583.0</ele>
  <time>2026-08-28T17:51:30Z</time>
  <course>248.31</course>
  <speed>0.01</speed>
  <fix>3d</fix>
</trkpt>
<trkpt lat="40.0713749" lon="-105.229789">
  <ele>1583.0</ele>
  <time>2026-08-28T17:51:30Z</time>
  <course>0.0</course>
  <speed>0.0</speed>
  <fix>3d</fix>
</trkpt>
<trkpt lat="40.0713749" lon="-105.229789">
  <ele>1583.0</ele>
  <time>2026-08-28T17:51:30Z</time>
  <course>248.3</course>
  <speed>0.01</speed>
  <fix>3d</fix>
</trkpt>
<trkpt lat="40.0713749" lon="-105.229789">
  <ele>1583.0</ele>
  <time>2026-08-28T17:51:30Z</time>
  <course>0.0</course>
  <speed>0.0</speed>
  <fix>3d</fix>
</trkpt>
<trkpt lat="40.0713749" lon="-105.229789">
  <ele>1583.0</ele>
  <time>2026-08-28T17:51:30Z</time>
  <course>248.3</course>
  <speed>0.01</speed>
  <fix>3d</fix>
</trkpt>
<trkpt lat="40.0713749" lon="-105.229789">
  <ele>1583.0</ele>
  <time>2026-08-28T17:51:30Z</time>
  <course>0.0</course>
  <speed>0.0</speed>
  <fix>3d</fix>
</trkpt>
<trkpt lat="40.0713749" lon="-105.229789">
  <ele>1583.0</ele>
  <time>2026-08-28T17:51:30Z</time>
  <course>248.29</course>
  <speed>0.01</speed>
  <fix>3d</fix>
</trkpt>
<trkpt lat="40.0713749" lon="-105.229789">
  <ele>1583.0</ele>
  <time>2026-08-28T17:51:30Z</time>
  <course>0.0</course>
  <speed>0.0</speed>
  <fix>3d</fix>
</trkpt>
<trkpt lat="40.0713749" lon="-105.229789">
  <ele>1583.0</ele>
  <time>2026-08-28T17:51:30Z</time>
  <course>248.29</course>
  <speed>0.01</speed>
  <fix>3d</fix>
</trkpt>
<trkpt lat="40.0713749" lon="-105.229789">
  <ele>1583.0</ele>
  <time>2026-08-28T17:51:30Z</time>
  <course>0.0</course>
  <speed>0.0</speed>
  <fix>3d</fix>
</trkpt>
<trkpt lat="40.0713749" lon="-105.229789">
  <ele>1583.0</ele>
  <time>2026-08-28T17:51:30Z</time>
  <course>248.28</course>
  <speed>0.01</speed>
  <fix>3d</fix>
</trkpt>
<trkpt lat="40.0713749" lon="-105.229789">
  <ele>1583.0</ele>
  <time>2026-08-28T17:51:30Z</time>
  <course>0.0</course>
  <speed>0.0</speed>
  <fix>3d</fix>
</trkpt>
<trkpt lat="40.0713749" lon="-105.229789">
  <ele>1583.0</ele>
  <time>2026-08-28T17:51:30Z</time>
  <course>248.28</course>
  <speed>0.01</speed>
  <fix>3d</fix>
</trkpt>
<trkpt lat="40.0713749" lon="-105.229789">
  <ele>1583.0</ele>
  <time>2026-08-28T17:51:30Z</time>
  <course>0.0</course>
  <speed>0.0</speed>
  <fix>3d</fix>
</trkpt>
<trkpt lat="40.0713749" lon="-105.229789">
  <ele>1583.0</ele>
  <time>2026-08-28T17:51:30Z</time>
  <course>248.27</course>
  <speed>0.01</speed>
  <fix>3d</fix>
</trkpt>
<trkpt lat="40.0713749" lon="-105.229789">
  <ele>1583.0</ele>
  <time>2026-08-28T17:51:30Z</time>
  <course>0.0</course>
  <speed>0.0</speed>
  <fix>3d</fix>
</trkpt>
<trkpt lat="40.0713749" lon="-105.229789">
  <ele>1583.0</ele>
  <time>2026-08-28T17:51:30Z</time>
  <course>248.27</course>
  <speed>0.01</speed>
  <fix>3d</fix>
</trkpt>
<trkpt lat="40.0713749" lon="-105.229789">
  <ele>1583.0</ele>
  <time>2026-08-28T17:51:30Z</time>
  <course>0.0</course>
  <speed>0.0</speed>
  <fix>3d</fix>
</trkpt>
<trkpt lat="40.0713749" lon="-105.229789">
  <ele>1583.0</ele>
  <time>2026-08-28T17:51:30Z</time>
  <course>248.27</course>
  <speed>0.01</speed>
  <fix>3d</fix>
</trkpt>
<trkpt lat="40.0713749" lon="-105.229789">
  <ele>1583.0</ele>
  <time>2026-08-28T17:51:30Z</time>
  <course>0.0</course>
  <speed>0.0</speed>
  <fix>3d</fix>
</trkpt>
<trkpt lat="40.0713749" lon="-105.229789">
  <ele>1583.0</ele>
  <time>2026-08-28T17:51:30Z</time>
  <course>248.26</course>
  <speed>0.01</speed>
  <fix>3d</fix>
</trkpt>
<trkpt lat="40.0713749" lon="-105.229789">
  <ele>1583.0</ele>
  <time>2026-08-28T17:51:30Z</time>
  <course>0.0</course>
  <speed>0.0</speed>
  <fix>3d</fix>
</trkpt>
<trkpt lat="40.0713749" lon="-105.229789">
  <ele>1583.0</ele>
  <time>2026-08-28T17:51:30Z</time>
  <course>248.26</course>
  <speed>0.01</speed>
  <fix>3d</fix>
</trkpt>
<trkpt lat="40.0713749" lon="-105.229789">
  <ele>1583.0</ele>
  <time>2026-08-28T17:51:30Z</time>
  <course>0.0</course>
  <speed>0.0</speed>
  <fix>3d</fix>
</trkpt>
<trkpt lat="40.0713749" lon="-105.229789">
  <ele>1583.0</ele>
  <time>2026-08-28T17:51:30Z</time>
  <course>248.25</course>
  <speed>0.01</speed>
  <fix>3d</fix>
</trkpt>
<trkpt lat="40.0713749" lon="-105.229789">
  <ele>1583.0</ele>
  <time>2026-08-28T17:51:30Z</time>
  <course>0.0</course>
  <speed>0.0</speed>
  <fix>3d</fix>
</trkpt>
<trkpt lat="40.0713749" lon="-105.229789">
  <ele>1583.0</ele>
  <time>2026-08-28T17:51:30Z</time>
  <course>248.25</course>
  <speed>0.01</speed>
  <fix>3d</fix>
</trkpt>
<trkpt lat="40.0713749" lon="-105.229789">
  <ele>1583.0</ele>
  <time>2026-08-28T17:51:30Z</time>
  <course>0.0</course>
  <speed>0.0</speed>
  <fix>3d</fix>
</trkpt>
<trkpt lat="40.0713749" lon="-105.229789">
  <ele>1583.0</ele>
  <time>2026-08-28T17:51:30Z</time>
  <course>248.24</course>
  <speed>0.01</speed>
  <fix>3d</fix>
</trkpt>
<trkpt lat="40.0713749" lon="-105.229789">
  <ele>1583.0</ele>
  <time>2026-08-28T17:51:30Z</time>
  <course>0.0</course>
  <speed>0.0</speed>
  <fix>3d</fix>
</trkpt>
<trkpt lat="40.0713749" lon="-105.229789">
  <ele>1583.0</ele>
  <time>2026-08-28T17:51:30Z</time>
  <course>248.24</course>
  <speed>0.01</speed>
  <fix>3d</fix>
</trkpt>
<trkpt lat="40.0713749" lon="-105.229789">
  <ele>1583.0</ele>
  <time>2026-08-28T17:51:30Z</time>
  <course>0.0</course>
  <speed>0.0</speed>
  <fix>3d</fix>
</trkpt>
<trkpt lat="40.0713749" lon="-105.229789">
  <ele>1583.0</ele>
  <time>2026-08-28T17:51:30Z</time>
  <course>248.23</course>
  <speed>0.01</speed>
  <fix>3d</fix>
</trkpt>
<trkpt lat="40.0713749" lon="-105.229789">
  <ele>1583.0</ele>
  <time>2026-08-28T17:51:30Z</time>
  <course>0.0</course>
  <speed>0.0</speed>
  <fix>3d</fix>
</trkpt>
<trkpt lat="40.0713749" lon="-105.229789">
  <ele>1583.0</ele>
  <time>2026-08-28T17:51:30Z</time>
  <course>248.23</course>
  <speed>0.01</speed>
  <fix>3d</fix>
</trkpt>
<trkpt lat="40.0713749" lon="-105.229789">
  <ele>1583.0</ele>
  <time>2026-08-28T17:51:30Z</time>
  <course>0.0</course>
  <speed>0.0</speed>
  <fix>3d</fix>
</trkpt>
<trkpt lat="40.0713749" lon="-105.229789">
  <ele>1583.0</ele>
  <time>2026-08-28T17:51:30Z</time>
  <course>248.22</course>
  <speed>0.01</speed>
  <fix>3d</fix>
</trkpt>
<trkpt lat="40.0713749" lon="-105.229789">
  <ele>1583.0</ele>
  <time>2026-08-28T17:51:30Z</time>
  <course>0.0</course>
  <speed>0.0</speed>
  <fix>3d</fix>
</trkpt>
<trkpt lat="40.0713749" lon="-105.229789">
  <ele>1583.0</ele>
  <time>2026-08-28T17:51:30Z</time>
  <course>248.22</course>
  <speed>0.01</speed>
  <fix>3d</fix>
</trkpt>
<trkpt lat="40.0713749" lon="-105.229789">
  <ele>1583.0</ele>
  <time>2026-08-28T17:51:30Z</time>
  <course>0.0</course>
  <speed>0.0</speed>
  <fix>3d</fix>
</trkpt>
<trkpt lat="40.0713749" lon="-105.229789">
  <ele>1583.0</ele>
  <time>2026-08-28T17:51:30Z</time>
  <course>248.21</course>
  <speed>0.01</speed>
  <fix>3d</fix>
</trkpt>
<trkpt lat="40.0713749" lon="-105.229789">
  <ele>1583.0</ele>
  <time>2026-08-28T17:51:30Z</time>
  <course>0.0</course>
  <speed>0.0</speed>
  <fix>3d</fix>
</trkpt>
<trkpt lat="40.0713749" lon="-105.229789">
  <ele>1583.0</ele>
  <time>2026-08-28T17:51:30Z</time>
  <course>248.21</course>
  <speed>0.01</speed>
  <fix>3d</fix>
</trkpt>
<trkpt lat="40.0713749" lon="-105.229789">
  <ele>1583.0</ele>
  <time>2026-08-28T17:51:30Z</time>
  <course>0.0</course>
  <speed>0.0</speed>
  <fix>3d</fix>
</trkpt>
<trkpt lat="40.0713749" lon="-105.229789">
  <ele>1583.0</ele>
  <time>2026-08-28T17:51:30Z</time>
  <course>248.2</course>
  <speed>0.01</speed>
  <fix>3d</fix>
</trkpt>
<trkpt lat="40.0713749" lon="-105.229789">
  <ele>1583.0</ele>
  <time>2026-08-28T17:51:30Z</time>
  <course>0.0</course>
  <speed>0.0</speed>
  <fix>3d</fix>
</trkpt>
<trkpt lat="40.0713749" lon="-105.229789">
  <ele>1583.0</ele>
  <time>2026-08-28T17:51:30Z</time>
  <course>248.2</course>
  <speed>0.01</speed>
  <fix>3d</fix>
</trkpt>
<trkpt lat="40.0713749" lon="-105.229789">
  <ele>1583.0</ele>
  <time>2026-08-28T17:51:30Z</time>
  <course>0.0</course>
  <speed>0.0</speed>
  <fix>3d</fix>
</trkpt>
<trkpt lat="40.0713749" lon="-105.229789">
  <ele>1583.0</ele>
  <time>2026-08-28T17:51:30Z</time>
  <course>248.19</course>
  <speed>0.01</speed>
  <fix>3d</fix>
</trkpt>
<trkpt lat="40.0713749" lon="-105.229789">
  <ele>1583.0</ele>
  <time>2026-08-28T17:51:30Z</time>
  <course>0.0</course>
  <speed>0.0</speed>
  <fix>3d</fix>
</trkpt>
<trkpt lat="40.0713749" lon="-105.229789">
  <ele>1583.0</ele>
  <time>2026-08-28T17:51:30Z</time>
  <course>248.19</course>
  <speed>0.01</speed>
  <fix>3d</fix>
</trkpt>
<trkpt lat="40.0713749" lon="-105.229789">
  <ele>1583.0</ele>
  <time>2026-08-28T17:51:30Z</time>
  <course>0.0</course>
  <speed>0.0</speed>
  <fix>3d</fix>
</trkpt>
<trkpt lat="40.0713749" lon="-105.229789">
  <ele>1583.0</ele>
  <time>2026-08-28T17:51:30Z</time>
  <course>248.18</course>
  <speed>0.01</speed>
  <fix>3d</fix>
</trkpt>
<trkpt lat="40.0713749" lon="-105.229789">
  <ele>1583.0</ele>
  <time>2026-08-28T17:51:30Z</time>
  <course>0.0</course>
  <speed>0.0</speed>
  <fix>3d</fix>
</trkpt>
<trkpt lat="40.0713749" lon="-105.229789">
  <ele>1583.0</ele>
  <time>2026-08-28T17:51:30Z</time>
  <course>248.18</course>
  <speed>0.01</speed>
  <fix>3d</fix>
</trkpt>
<trkpt lat="40.0713749" lon="-105.229789">
  <ele>1583.0</ele>
  <time>2026-08-28T17:51:30Z</time>
  <course>0.0</course>
  <speed>0.0</speed>
  <fix>3d</fix>
</trkpt>
<trkpt lat="40.0713749" lon="-105.229789">
  <ele>1583.0</ele>
  <time>2026-08-28T17:51:30Z</time>
  <course>248.17</course>
  <speed>0.022360679774997897</speed>
  <fix>3d</fix>
</trkpt>
<trkpt lat="40.0713749" lon="-105.229789">
  <ele>1583.0</ele>
  <time>2026-08-28T17:51:30Z</time>
  <course>0.0</course>
  <speed>0.0</speed>
  <fix>3d</fix>
</trkpt>
<trkpt lat="40.0713749" lon="-105.229789">
  <ele>1583.0</ele>
  <time>2026-08-28T17:51:30Z</time>
  <course>248.17</course>
  <speed>0.022360679774997897</speed>
  <fix>3d</fix>
</trkpt>
<trkpt lat="40.0713749" lon="-105.229789">
  <ele>1583.0</ele>
  <time>2026-08-28T17:51:30Z</time>
  <course>0.0</course>
  <speed>0.0</speed>
  <fix>3d</fix>
</trkpt>
<trkpt lat="40.0713749" lon="-105.229789">
  <ele>1583.0</ele>
  <time>2026-08-28T17:51:30Z</time>
  <course>248.16</course>
  <speed>0.022360679774997897</speed>
  <fix>3d</fix>
</trkpt>
<trkpt lat="40.0713749" lon="-105.229789">
  <ele>1583.0</ele>
  <time>2026-08-28T17:51:30Z</time>
  <course>0.0</course>
  <speed>0.0</speed>
  <fix>3d</fix>
</trkpt>
<trkpt lat="40.0713749" lon="-105.229789">
  <ele>1583.0</ele>
  <time>2026-08-28T17:51:30Z</time>
  <course>248.16</course>
  <speed>0.022360679774997897</speed>
  <fix>3d</fix>
</trkpt>
<trkpt lat="40.0713749" lon="-105.229789">
  <ele>1583.0</ele>
  <time>2026-08-28T17:51:30Z</time>
  <course>0.0</course>
  <speed>0.0</speed>
  <fix>3d</fix>
</trkpt>
<trkpt lat="40.0713749" lon="-105.229789">
  <ele>1583.0</ele>
  <time>2026-08-28T17:51:30Z</time>
  <course>248.15</course>
  <speed>0.022360679774997897</speed>
  <fix>3d</fix>
</trkpt>
<trkpt lat="40.0713749" lon="-105.229789">
  <ele>1583.0</ele>
  <time>2026-08-28T17:51:30Z</time>
  <course>0.0</course>
  <speed>0.0</speed>
  <fix>3d</fix>
</trkpt>
<trkpt lat="40.0713749" lon="-105.229789">
  <ele>1583.0</ele>
  <time>2026-08-28T17:51:30Z</time>
  <course>248.15</course>
  <speed>0.022360679774997897</speed>
  <fix>3d</fix>
</trkpt>
<trkpt lat="40.0713749" lon="-105.229789">
  <ele>1583.0</ele>
  <time>2026-08-28T17:51:30Z</time>
  <course>0.0</course>
  <speed>0.0</speed>
  <fix>3d</fix>
</trkpt>
<trkpt lat="40.0713749" lon="-105.229789">
  <ele>1583.0</ele>
  <time>2026-08-28T17:51:30Z</time>
  <course>248.14</course>
  <speed>0.022360679774997897</speed>
  <fix>3d</fix>
</trkpt>
<trkpt lat="40.0713749" lon="-105.229789">
  <ele>1583.0</ele>
  <time>2026-08-28T17:51:30Z</time>
  <course>0.0</course>
  <speed>0.0</speed>
  <fix>3d</fix>
</trkpt>
<trkpt lat="40.0713749" lon="-105.229789">
  <ele>1583.0</ele>
  <time>2026-08-28T17:51:30Z</time>
  <course>248.14</course>
  <speed>0.022360679774997897</speed>
  <fix>3d</fix>
</trkpt>
<trkpt lat="40.0713749" lon="-105.229789">
  <ele>1583.0</ele>
  <time>2026-08-28T17:51:30Z</time>
  <course>0.0</course>
  <speed>0.0</speed>
  <fix>3d</fix>
</trkpt>
<trkpt lat="40.0713749" lon="-105.229789">
  <ele>1583.0</ele>
  <time>2026-08-28T17:51:30Z</time>
  <course>248.13</course>
  <speed>0.022360679774997897</speed>
  <fix>3d</fix>
</trkpt>
<trkpt lat="40.0713749" lon="-105.229789">
  <ele>1583.0</ele>
  <time>2026-08-28T17:51:30Z</time>
  <course>0.0</course>
  <speed>0.0</speed>
  <fix>3d</fix>
</trkpt>
<trkpt lat="40.0713749" lon="-105.229789">
  <ele>1583.0</ele>
  <time>2026-08-28T17:51:30Z</time>
  <course>248.13</course>
  <speed>0.022360679774997897</speed>
  <fix>3d</fix>
</trkpt>
<trkpt lat="40.0713749" lon="-105.229789">
  <ele>1583.0</ele>
  <time>2026-08-28T17:51:30Z</time>
  <course>0.0</course>
  <speed>0.0</speed>
  <fix>3d</fix>
</trkpt>
<trkpt lat="40.0713749" lon="-105.229789">
  <ele>1583.0</ele>
  <time>2026-08-28T17:51:30Z</time>
  <course>248.12</course>
  <speed>0.022360679774997897</speed>
  <fix>3d</fix>
</trkpt>
<trkpt lat="40.0713749" lon="-105.229789">
  <ele>1583.0</ele>
  <time>2026-08-28T17:51:30Z</time>
  <course>0.0</course>
  <speed>0.0</speed>
  <fix>3d</fix>
</trkpt>
<trkpt lat="40.0713749" lon="-105.229789">
  <ele>1583.0</ele>
  <time>2026-08-28T17:51:30Z</time>
  <course>248.12</course>
  <speed>0.022360679774997897</speed>
  <fix>3d</fix>
</trkpt>
<trkpt lat="40.0713749" lon="-105.229789">
  <ele>1583.0</ele>
  <time>2026-08-28T17:51:30Z</time>
  <course>0.0</course>
  <speed>0.0</speed>
  <fix>3d</fix>
</trkpt>
<trkpt lat="40.0713749" lon="-105.229789">
  <ele>1583.0</ele>
  <time>2026-08-28T17:51:30Z</time>
  <course>248.11</course>
  <speed>0.022360679774997897</speed>
  <fix>3d</fix>
</trkpt>
<trkpt lat="40.0713749" lon="-105.229789">
  <ele>1583.0</ele>
  <time>2026-08-28T17:51:30Z</time>
  <course>0.0</course>
  <speed>0.0</speed>
  <fix>3d</fix>
</trkpt>
<trkpt lat="40.0713749" lon="-105.229789">
  <ele>1583.0</ele>
  <time>2026-08-28T17:51:30Z</time>
  <course>248.11</course>
  <speed>0.022360679774997897</speed>
  <fix>3d</fix>
</trkpt>
<trkpt lat="40.0713749" lon="-105.229789">
  <ele>1583.0</ele>
  <time>2026-08-28T17:51:30Z</time>
  <course>0.0</course>
  <speed>0.0</speed>
  <fix>3d</fix>
</trkpt>
<trkpt lat="40.0713749" lon="-105.229789">
  <ele>1583.0</ele>
  <time>2026-08-28T17:51:30Z</time>
  <course>248.1</course>
  <speed>0.022360679774997897</speed>
  <fix>3d</fix>
</trkpt>
<trkpt lat="40.0713749" lon="-105.229789">
  <ele>1583.0</ele>
  <time>2026-08-28T17:51:30Z</time>
  <course>0.0</course>
  <speed>0.0</speed>
  <fix>3d</fix>
</trkpt>
<trkpt lat="40.0713749" lon="-105.229789">
  <ele>1583.0</ele>
  <time>2026-08-28T17:51:31Z</time>
  <course>248.1</course>
  <speed>0.022360679774997897</speed>
  <fix>3d</fix>
</trkpt>
<trkpt lat="40.0713749" lon="-105.229789">
  <ele>1583.0</ele>
  <time>2026-08-28T17:51:31Z</time>
  <course>0.0</course>
  <speed>0.0</speed>
  <fix>3d</fix>
</trkpt>
<trkpt lat="40.0713749" lon="-105.229789">
  <ele>1583.0</ele>
  <time>2026-08-28T17:51:31Z</time>
  <course>248.09</course>
  <speed>0.022360679774997897</speed>
  <fix>3d</fix>
</trkpt>
<trkpt lat="40.0713749" lon="-105.229789">
  <ele>1583.0</ele>
  <time>2026-08-28T17:51:31Z</time>
  <course>0.0</course>
  <speed>0.0</speed>
  <fix>3d</fix>
</trkpt>
<trkpt lat="40.0713749" lon="-105.229789">
  <ele>1583.0</ele>
  <time>2026-08-28T17:51:31Z</time>
  <course>248.09</course>
  <speed>0.022360679774997897</speed>
  <fix>3d</fix>
</trkpt>
<trkpt lat="40.0713749" lon="-105.229789">
  <ele>1583.0</ele>
  <time>2026-08-28T17:51:31Z</time>
  <course>0.0</course>
  <speed>0.0</speed>
  <fix>3d</fix>
</trkpt>
<trkpt lat="40.0713749" lon="-105.229789">
  <ele>1583.0</ele>
  <time>2026-08-28T17:51:31Z</time>
  <course>248.08</course>
  <speed>0.022360679774997897</speed>
  <fix>3d</fix>
</trkpt>
<trkpt lat="40.0713749" lon="-105.229789">
  <ele>1583.0</ele>
  <time>2026-08-28T17:51:31Z</time>
  <course>0.0</course>
  <speed>0.0</speed>
  <fix>3d</fix>
</trkpt>
<trkpt lat="40.0713749" lon="-105.229789">
  <ele>1583.0</ele>
  <time>2026-08-28T17:51:31Z</time>
  <course>248.08</course>
  <speed>0.022360679774997897</speed>
  <fix>3d</fix>
</trkpt>
<trkpt lat="40.0713749" lon="-105.229789">
  <ele>1583.0</ele>
  <time>2026-08-28T17:51:31Z</time>
  <course>0.0</course>
  <speed>0.0</speed>
  <fix>3d</fix>
</trkpt>
<trkpt lat="40.0713749" lon="-105.229789">
  <ele>1583.0</ele>
  <time>2026-08-28T17:51:31Z</time>
  <course>248.07</course>
  <speed>0.022360679774997897</speed>
  <fix>3d</fix>
</trkpt>
<trkpt lat="40.0713749" lon="-105.229789">
  <ele>1583.0</ele>
  <time>2026-08-28T17:51:31Z</time>
  <course>0.0</course>
  <speed>0.0</speed>
  <fix>3d</fix>
</trkpt>
<trkpt lat="40.0713749" lon="-105.229789">
  <ele>1583.0</ele>
  <time>2026-08-28T17:51:31Z</time>
  <course>248.07</course>
  <speed>0.022360679774997897</speed>
  <fix>3d</fix>
</trkpt>
<trkpt lat="40.0713749" lon="-105.229789">
  <ele>1583.0</ele>
  <time>2026-08-28T17:51:31Z</time>
  <course>0.0</course>
  <speed>0.0</speed>
  <fix>3d</fix>
</trkpt>
<trkpt lat="40.0713749" lon="-105.229789">
  <ele>1583.0</ele>
  <time>2026-08-28T17:51:31Z</time>
  <course>248.06</course>
  <speed>0.022360679774997897</speed>
  <fix>3d</fix>
</trkpt>
<trkpt lat="40.0713749" lon="-105.229789">
  <ele>1583.0</ele>
  <time>2026-08-28T17:51:31Z</time>
  <course>0.0</course>
  <speed>0.0</speed>
  <fix>3d</fix>
</trkpt>
<trkpt lat="40.0713749" lon="-105.229789">
  <ele>1583.0</ele>
  <time>2026-08-28T17:51:31Z</time>
  <course>248.06</course>
  <speed>0.022360679774997897</speed>
  <fix>3d</fix>
</trkpt>
<trkpt lat="40.0713749" lon="-105.229789">
  <ele>1583.0</ele>
  <time>2026-08-28T17:51:31Z</time>
  <course>0.0</course>
  <speed>0.0</speed>
  <fix>3d</fix>
</trkpt>
<trkpt lat="40.0713749" lon="-105.229789">
  <ele>1583.0</ele>
  <time>2026-08-28T17:51:31Z</time>
  <course>248.05</course>
  <speed>0.022360679774997897</speed>
  <fix>3d</fix>
</trkpt>
<trkpt lat="40.0713749" lon="-105.229789">
  <ele>1583.0</ele>
  <time>2026-08-28T17:51:31Z</time>
  <course>0.0</course>
  <speed>0.0</speed>
  <fix>3d</fix>
</trkpt>
<trkpt lat="40.0713749" lon="-105.229789">
  <ele>1583.0</ele>
  <time>2026-08-28T17:51:31Z</time>
  <course>248.05</course>
  <speed>0.022360679774997897</speed>
  <fix>3d</fix>
</trkpt>
<trkpt lat="40.0713749" lon="-105.229789">
  <ele>1583.0</ele>
  <time>2026-08-28T17:51:31Z</time>
  <course>0.0</course>
  <speed>0.0</speed>
  <fix>3d</fix>
</trkpt>
<trkpt lat="40.0713749" lon="-105.229789">
  <ele>1583.0</ele>
  <time>2026-08-28T17:51:31Z</time>
  <course>248.05</course>
  <speed>0.022360679774997897</speed>
  <fix>3d</fix>
</trkpt>
<trkpt lat="40.0713749" lon="-105.229789">
  <ele>1583.0</ele>
  <time>2026-08-28T17:51:31Z</time>
  <course>0.0</course>
  <speed>0.0</speed>
  <fix>3d</fix>
</trkpt>
<trkpt lat="40.0713749" lon="-105.229789">
  <ele>1583.0</ele>
  <time>2026-08-28T17:51:31Z</time>
  <course>248.04</course>
  <speed>0.022360679774997897</speed>
  <fix>3d</fix>
</trkpt>
<trkpt lat="40.0713749" lon="-105.229789">
  <ele>1583.0</ele>
  <time>2026-08-28T17:51:31Z</time>
  <course>0.0</course>
  <speed>0.0</speed>
  <fix>3d</fix>
</trkpt>
<trkpt lat="40.0713749" lon="-105.229789">
  <ele>1583.0</ele>
  <time>2026-08-28T17:51:31Z</time>
  <course>248.04</course>
  <speed>0.022360679774997897</speed>
  <fix>3d</fix>
</trkpt>
<trkpt lat="40.0713749" lon="-105.229789">
  <ele>1583.0</ele>
  <time>2026-08-28T17:51:31Z</time>
  <course>0.0</course>
  <speed>0.0</speed>
  <fix>3d</fix>
</trkpt>
<trkpt lat="40.0713749" lon="-105.229789">
  <ele>1583.0</ele>
  <time>2026-08-28T17:51:31Z</time>
  <course>248.03</course>
  <speed>0.022360679774997897</speed>
  <fix>3d</fix>
</trkpt>
<trkpt lat="40.0713749" lon="-105.229789">
  <ele>1583.0</ele>
  <time>2026-08-28T17:51:31Z</time>
  <course>0.0</course>
  <speed>0.0</speed>
  <fix>3d</fix>
</trkpt>
<trkpt lat="40.0713749" lon="-105.229789">
  <ele>1583.0</ele>
  <time>2026-08-28T17:51:31Z</time>
  <course>248.03</course>
  <speed>0.022360679774997897</speed>
  <fix>3d</fix>
</trkpt>
<trkpt lat="40.0713749" lon="-105.229789">
  <ele>1583.0</ele>
  <time>2026-08-28T17:51:31Z</time>
  <course>0.0</course>
  <speed>0.0</speed>
  <fix>3d</fix>
</trkpt>
<trkpt lat="40.0713749" lon="-105.229789">
  <ele>1583.0</ele>
  <time>2026-08-28T17:51:31Z</time>
  <course>248.02</course>
  <speed>0.022360679774997897</speed>
  <fix>3d</fix>
</trkpt>
<trkpt lat="40.0713749" lon="-105.229789">
  <ele>1583.0</ele>
  <time>2026-08-28T17:51:31Z</time>
  <course>0.0</course>
  <speed>0.0</speed>
  <fix>3d</fix>
</trkpt>
<trkpt lat="40.0713749" lon="-105.229789">
  <ele>1583.0</ele>
  <time>2026-08-28T17:51:31Z</time>
  <course>248.02</course>
  <speed>0.022360679774997897</speed>
  <fix>3d</fix>
</trkpt>
<trkpt lat="40.0713749" lon="-105.229789">
  <ele>1583.0</ele>
  <time>2026-08-28T17:51:31Z</time>
  <course>0.0</course>
  <speed>0.0</speed>
  <fix>3d</fix>
</trkpt>
<trkpt lat="40.0713749" lon="-105.229789">
  <ele>1583.0</ele>
  <time>2026-08-28T17:51:31Z</time>
  <course>248.01</course>
  <speed>0.022360679774997897</speed>
  <fix>3d</fix>
</trkpt>
<trkpt lat="40.0713749" lon="-105.229789">
  <ele>1583.0</ele>
  <time>2026-08-28T17:51:31Z</time>
  <course>0.0</course>
  <speed>0.0</speed>
  <fix>3d</fix>
</trkpt>
<trkpt lat="40.0713749" lon="-105.229789">
  <ele>1583.0</ele>
  <time>2026-08-28T17:51:31Z</time>
  <course>248.01</course>
  <speed>0.022360679774997897</speed>
  <fix>3d</fix>
</trkpt>
<trkpt lat="40.0713749" lon="-105.229789">
  <ele>1583.0</ele>
  <time>2026-08-28T17:51:31Z</time>
  <course>0.0</course>
  <speed>0.0</speed>
  <fix>3d</fix>
</trkpt>
<trkpt lat="40.0713749" lon="-105.229789">
  <ele>1583.0</ele>
  <time>2026-08-28T17:51:31Z</time>
  <course>248.0</course>
  <speed>0.022360679774997897</speed>
  <fix>3d</fix>
</trkpt>
<trkpt lat="40.0713749" lon="-105.229789">
  <ele>1583.0</ele>
  <time>2026-08-28T17:51:31Z</time>
  <course>0.0</course>
  <speed>0.0</speed>
  <fix>3d</fix>
</trkpt>
<trkpt lat="40.0713749" lon="-105.229789">
  <ele>1583.0</ele>
  <time>2026-08-28T17:51:31Z</time>
  <course>248.0</course>
  <speed>0.022360679774997897</speed>
  <fix>3d</fix>
</trkpt>
<trkpt lat="40.0713749" lon="-105.229789">
  <ele>1583.0</ele>
  <time>2026-08-28T17:51:31Z</time>
  <course>0.0</course>
  <speed>0.0</speed>
  <fix>3d</fix>
</trkpt>
<trkpt lat="40.0713749" lon="-105.229789">
  <ele>1583.0</ele>
  <time>2026-08-28T17:51:31Z</time>
  <course>247.99</course>
  <speed>0.022360679774997897</speed>
  <fix>3d</fix>
</trkpt>
<trkpt lat="40.0713749" lon="-105.229789">
  <ele>1583.0</ele>
  <time>2026-08-28T17:51:31Z</time>
  <course>0.0</course>
  <speed>0.0</speed>
  <fix>3d</fix>
</trkpt>
<trkpt lat="40.0713749" lon="-105.229789">
  <ele>1583.0</ele>
  <time>2026-08-28T17:51:31Z</time>
  <course>247.99</course>
  <speed>0.022360679774997897</speed>
  <fix>3d</fix>
</trkpt>
<trkpt lat="40.0713749" lon="-105.229789">
  <ele>1583.0</ele>
  <time>2026-08-28T17:51:31Z</time>
  <course>0.0</course>
  <speed>0.0</speed>
  <fix>3d</fix>
</trkpt>
<trkpt lat="40.0713749" lon="-105.229789">
  <ele>1583.0</ele>
  <time>2026-08-28T17:51:31Z</time>
  <course>247.99</course>
  <speed>0.022360679774997897</speed>
  <fix>3d</fix>
</trkpt>
<trkpt lat="40.0713749" lon="-105.229789">
  <ele>1583.0</ele>
  <time>2026-08-28T17:51:31Z</time>
  <course>0.0</course>
  <speed>0.0</speed>
  <fix>3d</fix>
</trkpt>
<trkpt lat="40.0713749" lon="-105.229789">
  <ele>1583.0</ele>
  <time>2026-08-28T17:51:31Z</time>
  <course>247.98</course>
  <speed>0.022360679774997897</speed>
  <fix>3d</fix>
</trkpt>
<trkpt lat="40.0713749" lon="-105.229789">
  <ele>1583.0</ele>
  <time>2026-08-28T17:51:31Z</time>
  <course>0.0</course>
  <speed>0.0</speed>
  <fix>3d</fix>
</trkpt>
<trkpt lat="40.0713749" lon="-105.229789">
  <ele>1583.0</ele>
  <time>2026-08-28T17:51:31Z</time>
  <course>247.98</course>
  <speed>0.022360679774997897</speed>
  <fix>3d</fix>
</trkpt>
<trkpt lat="40.0713749" lon="-105.229789">
  <ele>1583.0</ele>
  <time>2026-08-28T17:51:31Z</time>
  <course>0.0</course>
  <speed>0.0</speed>
  <fix>3d</fix>
</trkpt>
<trkpt lat="40.0713749" lon="-105.229789">
  <ele>1583.0</ele>
  <time>2026-08-28T17:51:31Z</time>
  <course>247.97</course>
  <speed>0.022360679774997897</speed>
  <fix>3d</fix>
</trkpt>
<trkpt lat="40.0713749" lon="-105.229789">
  <ele>1583.0</ele>
  <time>2026-08-28T17:51:31Z</time>
  <course>0.0</course>
  <speed>0.0</speed>
  <fix>3d</fix>
</trkpt>
<trkpt lat="40.0713749" lon="-105.229789">
  <ele>1583.0</ele>
  <time>2026-08-28T17:51:31Z</time>
  <course>247.97</course>
  <speed>0.022360679774997897</speed>
  <fix>3d</fix>
</trkpt>
<trkpt lat="40.0713749" lon="-105.229789">
  <ele>1583.0</ele>
  <time>2026-08-28T17:51:31Z</time>
  <course>0.0</course>
  <speed>0.0</speed>
  <fix>3d</fix>
</trkpt>
<trkpt lat="40.0713749" lon="-105.229789">
  <ele>1583.0</ele>
  <time>2026-08-28T17:51:31Z</time>
  <course>247.96</course>
  <speed>0.022360679774997897</speed>
  <fix>3d</fix>
</trkpt>
<trkpt lat="40.0713749" lon="-105.229789">
  <ele>1583.0</ele>
  <time>2026-08-28T17:51:31Z</time>
  <course>0.0</course>
  <speed>0.0</speed>
  <fix>3d</fix>
</trkpt>
<trkpt lat="40.0713749" lon="-105.229789">
  <ele>1583.0</ele>
  <time>2026-08-28T17:51:31Z</time>
  <course>247.96</course>
  <speed>0.022360679774997897</speed>
  <fix>3d</fix>
</trkpt>
<trkpt lat="40.0713749" lon="-105.229789">
  <ele>1583.0</ele>
  <time>2026-08-28T17:51:31Z</time>
  <course>0.0</course>
  <speed>0.0</speed>
  <fix>3d</fix>
</trkpt>
<trkpt lat="40.0713749" lon="-105.229789">
  <ele>1583.0</ele>
  <time>2026-08-28T17:51:31Z</time>
  <course>247.95</course>
  <speed>0.022360679774997897</speed>
  <fix>3d</fix>
</trkpt>
<trkpt lat="40.0713749" lon="-105.229789">
  <ele>1583.0</ele>
  <time>2026-08-28T17:51:31Z</time>
  <course>0.0</course>
  <speed>0.0</speed>
  <fix>3d</fix>
</trkpt>
<trkpt lat="40.0713749" lon="-105.229789">
  <ele>1583.0</ele>
  <time>2026-08-28T17:51:31Z</time>
  <course>247.95</course>
  <speed>0.022360679774997897</speed>
  <fix>3d</fix>
</trkpt>
<trkpt lat="40.0713749" lon="-105.229789">
  <ele>1583.0</ele>
  <time>2026-08-28T17:51:31Z</time>
  <course>0.0</course>
  <speed>0.0</speed>
  <fix>3d</fix>
</trkpt>
<trkpt lat="40.0713749" lon="-105.229789">
  <ele>1583.0</ele>
  <time>2026-08-28T17:51:31Z</time>
  <course>247.95</course>
  <speed>0.022360679774997897</speed>
  <fix>3d</fix>
</trkpt>
<trkpt lat="40.0713749" lon="-105.229789">
  <ele>1583.0</ele>
  <time>2026-08-28T17:51:31Z</time>
  <course>0.0</course>
  <speed>0.0</speed>
  <fix>3d</fix>
</trkpt>
<trkpt lat="40.0713749" lon="-105.229789">
  <ele>1583.0</ele>
  <time>2026-08-28T17:51:31Z</time>
  <course>247.94</course>
  <speed>0.022360679774997897</speed>
  <fix>3d</fix>
</trkpt>
<trkpt lat="40.0713749" lon="-105.229789">
  <ele>1583.0</ele>
  <time>2026-08-28T17:51:31Z</time>
  <course>0.0</course>
  <speed>0.0</speed>
  <fix>3d</fix>
</trkpt>
<trkpt lat="40.0713749" lon="-105.229789">
  <ele>1583.0</ele>
  <time>2026-08-28T17:51:31Z</time>
  <course>247.94</course>
  <speed>0.022360679774997897</speed>
  <fix>3d</fix>
</trkpt>
<trkpt lat="40.0713749" lon="-105.229789">
  <ele>1583.0</ele>
  <time>2026-08-28T17:51:31Z</time>
  <course>0.0</course>
  <speed>0.0</speed>
  <fix>3d</fix>
</trkpt>
<trkpt lat="40.0713749" lon="-105.229789">
  <ele>1583.0</ele>
  <time>2026-08-28T17:51:31Z</time>
  <course>247.93</course>
  <speed>0.022360679774997897</speed>
  <fix>3d</fix>
</trkpt>
<trkpt lat="40.0713749" lon="-105.229789">
  <ele>1583.0</ele>
  <time>2026-08-28T17:51:31Z</time>
  <course>0.0</course>
  <speed>0.0</speed>
  <fix>3d</fix>
</trkpt>
<trkpt lat="40.0713749" lon="-105.229789">
  <ele>1583.0</ele>
  <time>2026-08-28T17:51:31Z</time>
  <course>247.93</course>
  <speed>0.022360679774997897</speed>
  <fix>3d</fix>
</trkpt>
<trkpt lat="40.0713749" lon="-105.229789">
  <ele>1583.0</ele>
  <time>2026-08-28T17:51:31Z</time>
  <course>0.0</course>
  <speed>0.0</speed>
  <fix>3d</fix>
</trkpt>
<trkpt lat="40.0713749" lon="-105.229789">
  <ele>1583.0</ele>
  <time>2026-08-28T17:51:31Z</time>
  <course>247.92</course>
  <speed>0.022360679774997897</speed>
  <fix>3d</fix>
</trkpt>
<trkpt lat="40.0713749" lon="-105.229789">
  <ele>1583.0</ele>
  <time>2026-08-28T17:51:31Z</time>
  <course>0.0</course>
  <speed>0.0</speed>
  <fix>3d</fix>
</trkpt>
<trkpt lat="40.0713749" lon="-105.229789">
  <ele>1583.0</ele>
  <time>2026-08-28T17:51:31Z</time>
  <course>247.92</course>
  <speed>0.022360679774997897</speed>
  <fix>3d</fix>
</trkpt>
<trkpt lat="40.0713749" lon="-105.229789">
  <ele>1583.0</ele>
  <time>2026-08-28T17:51:31Z</time>
  <course>0.0</course>
  <speed>0.0</speed>
  <fix>3d</fix>
</trkpt>
<trkpt lat="40.0713749" lon="-105.229789">
  <ele>1583.0</ele>
  <time>2026-08-28T17:51:31Z</time>
  <course>247.92</course>
  <speed>0.022360679774997897</speed>
  <fix>3d</fix>
</trkpt>
<trkpt lat="40.0713749" lon="-105.229789">
  <ele>1583.0</ele>
  <time>2026-08-28T17:51:31Z</time>
  <course>0.0</course>
  <speed>0.0</speed>
  <fix>3d</fix>
</trkpt>
<trkpt lat="40.0713749" lon="-105.229789">
  <ele>1583.0</ele>
  <time>2026-08-28T17:51:31Z</time>
  <course>247.91</course>
  <speed>0.022360679774997897</speed>
  <fix>3d</fix>
</trkpt>
<trkpt lat="40.0713749" lon="-105.229789">
  <ele>1583.0</ele>
  <time>2026-08-28T17:51:31Z</time>
  <course>0.0</course>
  <speed>0.0</speed>
  <fix>3d</fix>
</trkpt>
<trkpt lat="40.0713749" lon="-105.229789">
  <ele>1583.0</ele>
  <time>2026-08-28T17:51:31Z</time>
  <course>247.91</course>
  <speed>0.022360679774997897</speed>
  <fix>3d</fix>
</trkpt>
<trkpt lat="40.0713749" lon="-105.229789">
  <ele>1583.0</ele>
  <time>2026-08-28T17:51:31Z</time>
  <course>0.0</course>
  <speed>0.0</speed>
  <fix>3d</fix>
</trkpt>
<trkpt lat="40.0713749" lon="-105.229789">
  <ele>1583.0</ele>
  <time>2026-08-28T17:51:31Z</time>
  <course>247.9</course>
  <speed>0.022360679774997897</speed>
  <fix>3d</fix>
</trkpt>
<trkpt lat="40.0713749" lon="-105.229789">
  <ele>1583.0</ele>
  <time>2026-08-28T17:51:31Z</time>
  <course>0.0</course>
  <speed>0.0</speed>
  <fix>3d</fix>
</trkpt>
<trkpt lat="40.0713749" lon="-105.229789">
  <ele>1583.0</ele>
  <time>2026-08-28T17:51:31Z</time>
  <course>247.9</course>
  <speed>0.022360679774997897</speed>
  <fix>3d</fix>
</trkpt>
<trkpt lat="40.0713749" lon="-105.229789">
  <ele>1583.0</ele>
  <time>2026-08-28T17:51:31Z</time>
  <course>0.0</course>
  <speed>0.0</speed>
  <fix>3d</fix>
</trkpt>
<trkpt lat="40.0713749" lon="-105.229789">
  <ele>1583.0</ele>
  <time>2026-08-28T17:51:31Z</time>
  <course>247.89</course>
  <speed>0.022360679774997897</speed>
  <fix>3d</fix>
</trkpt>
<trkpt lat="40.0713749" lon="-105.229789">
  <ele>1583.0</ele>
  <time>2026-08-28T17:51:31Z</time>
  <course>0.0</course>
  <speed>0.0</speed>
  <fix>3d</fix>
</trkpt>
<trkpt lat="40.0713749" lon="-105.229789">
  <ele>1583.0</ele>
  <time>2026-08-28T17:51:31Z</time>
  <course>247.89</course>
  <speed>0.022360679774997897</speed>
  <fix>3d</fix>
</trkpt>
<trkpt lat="40.0713749" lon="-105.229789">
  <ele>1583.0</ele>
  <time>2026-08-28T17:51:31Z</time>
  <course>0.0</course>
  <speed>0.0</speed>
  <fix>3d</fix>
</trkpt>
<trkpt lat="40.0713749" lon="-105.229789">
  <ele>1583.0</ele>
  <time>2026-08-28T17:51:31Z</time>
  <course>247.89</course>
  <speed>0.022360679774997897</speed>
  <fix>3d</fix>
</trkpt>
<trkpt lat="40.0713749" lon="-105.229789">
  <ele>1583.0</ele>
  <time>2026-08-28T17:51:31Z</time>
  <course>0.0</course>
  <speed>0.0</speed>
  <fix>3d</fix>
</trkpt>
<trkpt lat="40.0713749" lon="-105.229789">
  <ele>1583.0</ele>
  <time>2026-08-28T17:51:31Z</time>
  <course>247.88</course>
  <speed>0.0316227766016838</speed>
  <fix>3d</fix>
</trkpt>
<trkpt lat="40.0713749" lon="-105.229789">
  <ele>1583.0</ele>
  <time>2026-08-28T17:51:31Z</time>
  <course>0.0</course>
  <speed>0.0</speed>
  <fix>3d</fix>
</trkpt>
<trkpt lat="40.0713749" lon="-105.229789">
  <ele>1583.0</ele>
  <time>2026-08-28T17:51:31Z</time>
  <course>247.88</course>
  <speed>0.0316227766016838</speed>
  <fix>3d</fix>
</trkpt>
<trkpt lat="40.0713749" lon="-105.229789">
  <ele>1583.0</ele>
  <time>2026-08-28T17:51:31Z</time>
  <course>0.0</course>
  <speed>0.0</speed>
  <fix>3d</fix>
</trkpt>
<trkpt lat="40.0713749" lon="-105.229789">
  <ele>1583.0</ele>
  <time>2026-08-28T17:51:31Z</time>
  <course>247.87</course>
  <speed>0.0316227766016838</speed>
  <fix>3d</fix>
</trkpt>
<trkpt lat="40.0713749" lon="-105.229789">
  <ele>1583.0</ele>
  <time>2026-08-28T17:51:31Z</time>
  <course>0.0</course>
  <speed>0.0</speed>
  <fix>3d</fix>
</trkpt>
<trkpt lat="40.0713749" lon="-105.229789">
  <ele>1583.0</ele>
  <time>2026-08-28T17:51:31Z</time>
  <course>247.87</course>
  <speed>0.0316227766016838</speed>
  <fix>3d</fix>
</trkpt>
<trkpt lat="40.0713749" lon="-105.229789">
  <ele>1583.0</ele>
  <time>2026-08-28T17:51:31Z</time>
  <course>0.0</course>
  <speed>0.0</speed>
  <fix>3d</fix>
</trkpt>
<trkpt lat="40.0713749" lon="-105.229789">
  <ele>1583.0</ele>
  <time>2026-08-28T17:51:31Z</time>
  <course>247.87</course>
  <speed>0.0316227766016838</speed>
  <fix>3d</fix>
</trkpt>
<trkpt lat="40.0713749" lon="-105.229789">
  <ele>1583.0</ele>
  <time>2026-08-28T17:51:31Z</time>
  <course>0.0</course>
  <speed>0.0</speed>
  <fix>3d</fix>
</trkpt>
<trkpt lat="40.0713749" lon="-105.229789">
  <ele>1583.0</ele>
  <time>2026-08-28T17:51:31Z</time>
  <course>247.86</course>
  <speed>0.0316227766016838</speed>
  <fix>3d</fix>
</trkpt>
<trkpt lat="40.0713749" lon="-105.229789">
  <ele>1583.0</ele>
  <time>2026-08-28T17:51:31Z</time>
  <course>0.0</course>
  <speed>0.0</speed>
  <fix>3d</fix>
</trkpt>
<trkpt lat="40.0713749" lon="-105.229789">
  <ele>1583.0</ele>
  <time>2026-08-28T17:51:31Z</time>
  <course>247.86</course>
  <speed>0.0316227766016838</speed>
  <fix>3d</fix>
</trkpt>
<trkpt lat="40.0713749" lon="-105.229789">
  <ele>1583.0</ele>
  <time>2026-08-28T17:51:31Z</time>
  <course>0.0</course>
  <speed>0.0</speed>
  <fix>3d</fix>
</trkpt>
<trkpt lat="40.0713749" lon="-105.229789">
  <ele>1583.0</ele>
  <time>2026-08-28T17:51:31Z</time>
  <course>247.85</course>
  <speed>0.0316227766016838</speed>
  <fix>3d</fix>
</trkpt>
<trkpt lat="40.0713749" lon="-105.229789">
  <ele>1583.0</ele>
  <time>2026-08-28T17:51:31Z</time>
  <course>0.0</course>
  <speed>0.0</speed>
  <fix>3d</fix>
</trkpt>
<trkpt lat="40.0713749" lon="-105.229789">
  <ele>1583.0</ele>
  <time>2026-08-28T17:51:31Z</time>
  <course>247.85</course>
  <speed>0.0316227766016838</speed>
  <fix>3d</fix>
</trkpt>
<trkpt lat="40.0713749" lon="-105.229789">
  <ele>1583.0</ele>
  <time>2026-08-28T17:51:31Z</time>
  <course>0.0</course>
  <speed>0.0</speed>
  <fix>3d</fix>
</trkpt>
<trkpt lat="40.0713749" lon="-105.229789">
  <ele>1583.0</ele>
  <time>2026-08-28T17:51:31Z</time>
  <course>247.85</course>
  <speed>0.0316227766016838</speed>
  <fix>3d</fix>
</trkpt>
<trkpt lat="40.0713749" lon="-105.229789">
  <ele>1583.0</ele>
  <time>2026-08-28T17:51:31Z</time>
  <course>0.0</course>
  <speed>0.0</speed>
  <fix>3d</fix>
</trkpt>
<trkpt lat="40.0713749" lon="-105.229789">
  <ele>1583.0</ele>
  <time>2026-08-28T17:51:31Z</time>
  <course>247.84</course>
  <speed>0.0316227766016838</speed>
  <fix>3d</fix>
</trkpt>
<trkpt lat="40.0713749" lon="-105.229789">
  <ele>1583.0</ele>
  <time>2026-08-28T17:51:31Z</time>
  <course>0.0</course>
  <speed>0.0</speed>
  <fix>3d</fix>
</trkpt>
<trkpt lat="40.0713749" lon="-105.229789">
  <ele>1583.0</ele>
  <time>2026-08-28T17:51:31Z</time>
  <course>247.84</course>
  <speed>0.0316227766016838</speed>
  <fix>3d</fix>
</trkpt>
<trkpt lat="40.0713749" lon="-105.229789">
  <ele>1583.0</ele>
  <time>2026-08-28T17:51:31Z</time>
  <course>0.0</course>
  <speed>0.0</speed>
  <fix>3d</fix>
</trkpt>
<trkpt lat="40.0713749" lon="-105.229789">
  <ele>1583.0</ele>
  <time>2026-08-28T17:51:31Z</time>
  <course>247.83</course>
  <speed>0.0316227766016838</speed>
  <fix>3d</fix>
</trkpt>
<trkpt lat="40.0713749" lon="-105.229789">
  <ele>1583.0</ele>
  <time>2026-08-28T17:51:31Z</time>
  <course>0.0</course>
  <speed>0.0</speed>
  <fix>3d</fix>
</trkpt>
<trkpt lat="40.0713749" lon="-105.229789">
  <ele>1583.0</ele>
  <time>2026-08-28T17:51:31Z</time>
  <course>247.83</course>
  <speed>0.0316227766016838</speed>
  <fix>3d</fix>
</trkpt>
<trkpt lat="40.0713749" lon="-105.229789">
  <ele>1583.0</ele>
  <time>2026-08-28T17:51:31Z</time>
  <course>0.0</course>
  <speed>0.0</speed>
  <fix>3d</fix>
</trkpt>
<trkpt lat="40.0713749" lon="-105.229789">
  <ele>1583.0</ele>
  <time>2026-08-28T17:51:31Z</time>
  <course>247.83</course>
  <speed>0.0316227766016838</speed>
  <fix>3d</fix>
</trkpt>
<trkpt lat="40.0713749" lon="-105.229789">
  <ele>1583.0</ele>
  <time>2026-08-28T17:51:31Z</time>
  <course>0.0</course>
  <speed>0.0</speed>
  <fix>3d</fix>
</trkpt>
<trkpt lat="40.0713749" lon="-105.229789">
  <ele>1583.0</ele>
  <time>2026-08-28T17:51:31Z</time>
  <course>247.82</course>
  <speed>0.0316227766016838</speed>
  <fix>3d</fix>
</trkpt>
<trkpt lat="40.0713749" lon="-105.229789">
  <ele>1583.0</ele>
  <time>2026-08-28T17:51:31Z</time>
  <course>0.0</course>
  <speed>0.0</speed>
  <fix>3d</fix>
</trkpt>
<trkpt lat="40.0713749" lon="-105.229789">
  <ele>1583.0</ele>
  <time>2026-08-28T17:51:31Z</time>
  <course>247.82</course>
  <speed>0.0316227766016838</speed>
  <fix>3d</fix>
</trkpt>
<trkpt lat="40.0713749" lon="-105.229789">
  <ele>1583.0</ele>
  <time>2026-08-28T17:51:31Z</time>
  <course>0.0</course>
  <speed>0.0</speed>
  <fix>3d</fix>
</trkpt>
<trkpt lat="40.0713749" lon="-105.229789">
  <ele>1583.0</ele>
  <time>2026-08-28T17:51:31Z</time>
  <course>247.82</course>
  <speed>0.0316227766016838</speed>
  <fix>3d</fix>
</trkpt>
<trkpt lat="40.0713749" lon="-105.229789">
  <ele>1583.0</ele>
  <time>2026-08-28T17:51:31Z</time>
  <course>0.0</course>
  <speed>0.0</speed>
  <fix>3d</fix>
</trkpt>
<trkpt lat="40.0713749" lon="-105.229789">
  <ele>1583.0</ele>
  <time>2026-08-28T17:51:31Z</time>
  <course>247.81</course>
  <speed>0.0316227766016838</speed>
  <fix>3d</fix>
</trkpt>
<trkpt lat="40.0713749" lon="-105.229789">
  <ele>1583.0</ele>
  <time>2026-08-28T17:51:31Z</time>
  <course>0.0</course>
  <speed>0.0</speed>
  <fix>3d</fix>
</trkpt>
<trkpt lat="40.0713749" lon="-105.229789">
  <ele>1583.0</ele>
  <time>2026-08-28T17:51:31Z</time>
  <course>247.81</course>
  <speed>0.0316227766016838</speed>
  <fix>3d</fix>
</trkpt>
<trkpt lat="40.0713749" lon="-105.229789">
  <ele>1583.0</ele>
  <time>2026-08-28T17:51:31Z</time>
  <course>0.0</course>
  <speed>0.0</speed>
  <fix>3d</fix>
</trkpt>
<trkpt lat="40.0713749" lon="-105.229789">
  <ele>1583.0</ele>
  <time>2026-08-28T17:51:31Z</time>
  <course>247.8</course>
  <speed>0.0316227766016838</speed>
  <fix>3d</fix>
</trkpt>
<trkpt lat="40.0713749" lon="-105.229789">
  <ele>1583.0</ele>
  <time>2026-08-28T17:51:31Z</time>
  <course>0.0</course>
  <speed>0.0</speed>
  <fix>3d</fix>
</trkpt>
<trkpt lat="40.0713749" lon="-105.229789">
  <ele>1583.0</ele>
  <time>2026-08-28T17:51:31Z</time>
  <course>247.8</course>
  <speed>0.0316227766016838</speed>
  <fix>3d</fix>
</trkpt>
<trkpt lat="40.0713749" lon="-105.229789">
  <ele>1583.0</ele>
  <time>2026-08-28T17:51:31Z</time>
  <course>0.0</course>
  <speed>0.0</speed>
  <fix>3d</fix>
</trkpt>
<trkpt lat="40.0713749" lon="-105.229789">
  <ele>1583.0</ele>
  <time>2026-08-28T17:51:31Z</time>
  <course>247.8</course>
  <speed>0.0316227766016838</speed>
  <fix>3d</fix>
</trkpt>
<trkpt lat="40.0713749" lon="-105.229789">
  <ele>1583.0</ele>
  <time>2026-08-28T17:51:31Z</time>
  <course>0.0</course>
  <speed>0.0</speed>
  <fix>3d</fix>
</trkpt>
<trkpt lat="40.0713749" lon="-105.229789">
  <ele>1583.0</ele>
  <time>2026-08-28T17:51:31Z</time>
  <course>247.79</course>
  <speed>0.0316227766016838</speed>
  <fix>3d</fix>
</trkpt>
<trkpt lat="40.0713749" lon="-105.229789">
  <ele>1583.0</ele>
  <time>2026-08-28T17:51:31Z</time>
  <course>0.0</course>
  <speed>0.0</speed>
  <fix>3d</fix>
</trkpt>
<trkpt lat="40.0713749" lon="-105.229789">
  <ele>1583.0</ele>
  <time>2026-08-28T17:51:31Z</time>
  <course>247.79</course>
  <speed>0.0316227766016838</speed>
  <fix>3d</fix>
</trkpt>
<trkpt lat="40.0713749" lon="-105.229789">
  <ele>1583.0</ele>
  <time>2026-08-28T17:51:31Z</time>
  <course>0.0</course>
  <speed>0.0</speed>
  <fix>3d</fix>
</trkpt>
<trkpt lat="40.0713749" lon="-105.229789">
  <ele>1583.0</ele>
  <time>2026-08-28T17:51:31Z</time>
  <course>247.79</course>
  <speed>0.0316227766016838</speed>
  <fix>3d</fix>
</trkpt>
<trkpt lat="40.0713749" lon="-105.229789">
  <ele>1583.0</ele>
  <time>2026-08-28T17:51:31Z</time>
  <course>0.0</course>
  <speed>0.0</speed>
  <fix>3d</fix>
</trkpt>
<trkpt lat="40.0713749" lon="-105.229789">
  <ele>1583.0</ele>
  <time>2026-08-28T17:51:31Z</time>
  <course>247.78</course>
  <speed>0.0316227766016838</speed>
  <fix>3d</fix>
</trkpt>
<trkpt lat="40.0713749" lon="-105.229789">
  <ele>1583.0</ele>
  <time>2026-08-28T17:51:31Z</time>
  <course>0.0</course>
  <speed>0.0</speed>
  <fix>3d</fix>
</trkpt>
<trkpt lat="40.0713749" lon="-105.229789">
  <ele>1583.0</ele>
  <time>2026-08-28T17:51:31Z</time>
  <course>247.78</course>
  <speed>0.0316227766016838</speed>
  <fix>3d</fix>
</trkpt>
<trkpt lat="40.0713749" lon="-105.229789">
  <ele>1583.0</ele>
  <time>2026-08-28T17:51:31Z</time>
  <course>0.0</course>
  <speed>0.0</speed>
  <fix>3d</fix>
</trkpt>
<trkpt lat="40.0713749" lon="-105.229789">
  <ele>1583.0</ele>
  <time>2026-08-28T17:51:31Z</time>
  <course>247.78</course>
  <speed>0.0316227766016838</speed>
  <fix>3d</fix>
</trkpt>
<trkpt lat="40.0713749" lon="-105.229789">
  <ele>1583.0</ele>
  <time>2026-08-28T17:51:31Z</time>
  <course>0.0</course>
  <speed>0.0</speed>
  <fix>3d</fix>
</trkpt>
<trkpt lat="40.0713749" lon="-105.229789">
  <ele>1583.0</ele>
  <time>2026-08-28T17:51:31Z</time>
  <course>247.77</course>
  <speed>0.0316227766016838</speed>
  <fix>3d</fix>
</trkpt>
<trkpt lat="40.0713749" lon="-105.229789">
  <ele>1583.0</ele>
  <time>2026-08-28T17:51:31Z</time>
  <course>0.0</course>
  <speed>0.0</speed>
  <fix>3d</fix>
</trkpt>
<trkpt lat="40.0713749" lon="-105.229789">
  <ele>1583.0</ele>
  <time>2026-08-28T17:51:31Z</time>
  <course>247.77</course>
  <speed>0.0316227766016838</speed>
  <fix>3d</fix>
</trkpt>
<trkpt lat="40.0713749" lon="-105.229789">
  <ele>1583.0</ele>
  <time>2026-08-28T17:51:31Z</time>
  <course>0.0</course>
  <speed>0.0</speed>
  <fix>3d</fix>
</trkpt>
<trkpt lat="40.0713749" lon="-105.229789">
  <ele>1583.0</ele>
  <time>2026-08-28T17:51:31Z</time>
  <course>247.76</course>
  <speed>0.0316227766016838</speed>
  <fix>3d</fix>
</trkpt>
<trkpt lat="40.0713749" lon="-105.229789">
  <ele>1583.0</ele>
  <time>2026-08-28T17:51:31Z</time>
  <course>0.0</course>
  <speed>0.0</speed>
  <fix>3d</fix>
</trkpt>
<trkpt lat="40.0713749" lon="-105.229789">
  <ele>1583.0</ele>
  <time>2026-08-28T17:51:31Z</time>
  <course>247.76</course>
  <speed>0.0316227766016838</speed>
  <fix>3d</fix>
</trkpt>
<trkpt lat="40.0713749" lon="-105.229789">
  <ele>1583.0</ele>
  <time>2026-08-28T17:51:31Z</time>
  <course>0.0</course>
  <speed>0.0</speed>
  <fix>3d</fix>
</trkpt>
<trkpt lat="40.0713749" lon="-105.229789">
  <ele>1583.0</ele>
  <time>2026-08-28T17:51:31Z</time>
  <course>247.76</course>
  <speed>0.0316227766016838</speed>
  <fix>3d</fix>
</trkpt>
<trkpt lat="40.0713749" lon="-105.229789">
  <ele>1583.0</ele>
  <time>2026-08-28T17:51:31Z</time>
  <course>0.0</course>
  <speed>0.0</speed>
  <fix>3d</fix>
</trkpt>
<trkpt lat="40.0713749" lon="-105.229789">
  <ele>1583.0</ele>
  <time>2026-08-28T17:51:31Z</time>
  <course>247.75</course>
  <speed>0.0316227766016838</speed>
  <fix>3d</fix>
</trkpt>
<trkpt lat="40.0713749" lon="-105.229789">
  <ele>1583.0</ele>
  <time>2026-08-28T17:51:31Z</time>
  <course>0.0</course>
  <speed>0.0</speed>
  <fix>3d</fix>
</trkpt>
<trkpt lat="40.0713749" lon="-105.229789">
  <ele>1583.0</ele>
  <time>2026-08-28T17:51:31Z</time>
  <course>247.75</course>
  <speed>0.0316227766016838</speed>
  <fix>3d</fix>
</trkpt>
<trkpt lat="40.0713749" lon="-105.229789">
  <ele>1583.0</ele>
  <time>2026-08-28T17:51:31Z</time>
  <course>0.0</course>
  <speed>0.0</speed>
  <fix>3d</fix>
</trkpt>
<trkpt lat="40.0713749" lon="-105.229789">
  <ele>1583.0</ele>
  <time>2026-08-28T17:51:31Z</time>
  <course>247.75</course>
  <speed>0.0316227766016838</speed>
  <fix>3d</fix>
</trkpt>
<trkpt lat="40.0713749" lon="-105.229789">
  <ele>1583.0</ele>
  <time>2026-08-28T17:51:31Z</time>
  <course>0.0</course>
  <speed>0.0</speed>
  <fix>3d</fix>
</trkpt>
<trkpt lat="40.0713749" lon="-105.229789">
  <ele>1583.0</ele>
  <time>2026-08-28T17:51:31Z</time>
  <course>247.74</course>
  <speed>0.0316227766016838</speed>
  <fix>3d</fix>
</trkpt>
<trkpt lat="40.0713749" lon="-105.229789">
  <ele>1583.0</ele>
  <time>2026-08-28T17:51:31Z</time>
  <course>0.0</course>
  <speed>0.0</speed>
  <fix>3d</fix>
</trkpt>
<trkpt lat="40.0713749" lon="-105.229789">
  <ele>1583.0</ele>
  <time>2026-08-28T17:51:31Z</time>
  <course>247.74</course>
  <speed>0.0316227766016838</speed>
  <fix>3d</fix>
</trkpt>
<trkpt lat="40.0713749" lon="-105.229789">
  <ele>1583.0</ele>
  <time>2026-08-28T17:51:31Z</time>
  <course>0.0</course>
  <speed>0.0</speed>
  <fix>3d</fix>
</trkpt>
<trkpt lat="40.0713749" lon="-105.229789">
  <ele>1583.0</ele>
  <time>2026-08-28T17:51:31Z</time>
  <course>247.74</course>
  <speed>0.0316227766016838</speed>
  <fix>3d</fix>
</trkpt>
<trkpt lat="40.0713749" lon="-105.229789">
  <ele>1583.0</ele>
  <time>2026-08-28T17:51:31Z</time>
  <course>0.0</course>
  <speed>0.0</speed>
  <fix>3d</fix>
</trkpt>
<trkpt lat="40.0713749" lon="-105.229789">
  <ele>1583.0</ele>
  <time>2026-08-28T17:51:31Z</time>
  <course>247.73</course>
  <speed>0.0316227766016838</speed>
  <fix>3d</fix>
</trkpt>
<trkpt lat="40.0713749" lon="-105.229789">
  <ele>1583.0</ele>
  <time>2026-08-28T17:51:31Z</time>
  <course>0.0</course>
  <speed>0.0</speed>
  <fix>3d</fix>
</trkpt>
<trkpt lat="40.0713749" lon="-105.229789">
  <ele>1583.0</ele>
  <time>2026-08-28T17:51:31Z</time>
  <course>247.73</course>
  <speed>0.0316227766016838</speed>
  <fix>3d</fix>
</trkpt>
<trkpt lat="40.0713749" lon="-105.229789">
  <ele>1583.0</ele>
  <time>2026-08-28T17:51:31Z</time>
  <course>0.0</course>
  <speed>0.0</speed>
  <fix>3d</fix>
</trkpt>
<trkpt lat="40.0713749" lon="-105.229789">
  <ele>1583.0</ele>
  <time>2026-08-28T17:51:31Z</time>
  <course>247.73</course>
  <speed>0.0316227766016838</speed>
  <fix>3d</fix>
</trkpt>
<trkpt lat="40.0713749" lon="-105.229789">
  <ele>1583.0</ele>
  <time>2026-08-28T17:51:31Z</time>
  <course>0.0</course>
  <speed>0.0</speed>
  <fix>3d</fix>
</trkpt>
<trkpt lat="40.0713749" lon="-105.229789">
  <ele>1583.0</ele>
  <time>2026-08-28T17:51:31Z</time>
  <course>247.72</course>
  <speed>0.0316227766016838</speed>
  <fix>3d</fix>
</trkpt>
<trkpt lat="40.0713749" lon="-105.229789">
  <ele>1583.0</ele>
  <time>2026-08-28T17:51:31Z</time>
  <course>0.0</course>
  <speed>0.0</speed>
  <fix>3d</fix>
</trkpt>
<trkpt lat="40.0713749" lon="-105.229789">
  <ele>1583.0</ele>
  <time>2026-08-28T17:51:31Z</time>
  <course>247.72</course>
  <speed>0.0316227766016838</speed>
  <fix>3d</fix>
</trkpt>
<trkpt lat="40.0713749" lon="-105.229789">
  <ele>1583.0</ele>
  <time>2026-08-28T17:51:31Z</time>
  <course>0.0</course>
  <speed>0.0</speed>
  <fix>3d</fix>
</trkpt>
<trkpt lat="40.0713749" lon="-105.229789">
  <ele>1583.0</ele>
  <time>2026-08-28T17:51:31Z</time>
  <course>247.72</course>
  <speed>0.0316227766016838</speed>
  <fix>3d</fix>
</trkpt>
<trkpt lat="40.0713749" lon="-105.229789">
  <ele>1583.0</ele>
  <time>2026-08-28T17:51:31Z</time>
  <course>0.0</course>
  <speed>0.0</speed>
  <fix>3d</fix>
</trkpt>
<trkpt lat="40.0713749" lon="-105.229789">
  <ele>1583.0</ele>
  <time>2026-08-28T17:51:31Z</time>
  <course>247.71</course>
  <speed>0.0316227766016838</speed>
  <fix>3d</fix>
</trkpt>
<trkpt lat="40.0713749" lon="-105.229789">
  <ele>1583.0</ele>
  <time>2026-08-28T17:51:31Z</time>
  <course>0.0</course>
  <speed>0.0</speed>
  <fix>3d</fix>
</trkpt>
<trkpt lat="40.0713749" lon="-105.229789">
  <ele>1583.0</ele>
  <time>2026-08-28T17:51:31Z</time>
  <course>247.71</course>
  <speed>0.0316227766016838</speed>
  <fix>3d</fix>
</trkpt>
<trkpt lat="40.0713749" lon="-105.229789">
  <ele>1583.0</ele>
  <time>2026-08-28T17:51:31Z</time>
  <course>0.0</course>
  <speed>0.0</speed>
  <fix>3d</fix>
</trkpt>
<trkpt lat="40.0713749" lon="-105.229789">
  <ele>1583.0</ele>
  <time>2026-08-28T17:51:31Z</time>
  <course>247.71</course>
  <speed>0.0316227766016838</speed>
  <fix>3d</fix>
</trkpt>
<trkpt lat="40.0713749" lon="-105.229789">
  <ele>1583.0</ele>
  <time>2026-08-28T17:51:31Z</time>
  <course>0.0</course>
  <speed>0.0</speed>
  <fix>3d</fix>
</trkpt>
<trkpt lat="40.0713749" lon="-105.229789">
  <ele>1583.0</ele>
  <time>2026-08-28T17:51:31Z</time>
  <course>247.7</course>
  <speed>0.0316227766016838</speed>
  <fix>3d</fix>
</trkpt>
<trkpt lat="40.0713749" lon="-105.229789">
  <ele>1583.0</ele>
  <time>2026-08-28T17:51:31Z</time>
  <course>0.0</course>
  <speed>0.0</speed>
  <fix>3d</fix>
</trkpt>
<trkpt lat="40.0713749" lon="-105.229789">
  <ele>1583.0</ele>
  <time>2026-08-28T17:51:31Z</time>
  <course>247.7</course>
  <speed>0.0316227766016838</speed>
  <fix>3d</fix>
</trkpt>
<trkpt lat="40.0713749" lon="-105.229789">
  <ele>1583.0</ele>
  <time>2026-08-28T17:51:31Z</time>
  <course>0.0</course>
  <speed>0.0</speed>
  <fix>3d</fix>
</trkpt>
<trkpt lat="40.0713749" lon="-105.229789">
  <ele>1583.0</ele>
  <time>2026-08-28T17:51:31Z</time>
  <course>247.7</course>
  <speed>0.0316227766016838</speed>
  <fix>3d</fix>
</trkpt>
<trkpt lat="40.0713749" lon="-105.229789">
  <ele>1583.0</ele>
  <time>2026-08-28T17:51:31Z</time>
  <course>0.0</course>
  <speed>0.0</speed>
  <fix>3d</fix>
</trkpt>
<trkpt lat="40.0713749" lon="-105.229789">
  <ele>1583.0</ele>
  <time>2026-08-28T17:51:31Z</time>
  <course>247.69</course>
  <speed>0.0316227766016838</speed>
  <fix>3d</fix>
</trkpt>
<trkpt lat="40.0713749" lon="-105.229789">
  <ele>1583.0</ele>
  <time>2026-08-28T17:51:31Z</time>
  <course>0.0</course>
  <speed>0.0</speed>
  <fix>3d</fix>
</trkpt>
<trkpt lat="40.0713749" lon="-105.229789">
  <ele>1583.0</ele>
  <time>2026-08-28T17:51:31Z</time>
  <course>247.69</course>
  <speed>0.0316227766016838</speed>
  <fix>3d</fix>
</trkpt>
<trkpt lat="40.0713749" lon="-105.229789">
  <ele>1583.0</ele>
  <time>2026-08-28T17:51:31Z</time>
  <course>0.0</course>
  <speed>0.0</speed>
  <fix>3d</fix>
</trkpt>
<trkpt lat="40.0713749" lon="-105.229789">
  <ele>1583.0</ele>
  <time>2026-08-28T17:51:31Z</time>
  <course>247.69</course>
  <speed>0.0316227766016838</speed>
  <fix>3d</fix>
</trkpt>
<trkpt lat="40.0713749" lon="-105.229789">
  <ele>1583.0</ele>
  <time>2026-08-28T17:51:31Z</time>
  <course>0.0</course>
  <speed>0.0</speed>
  <fix>3d</fix>
</trkpt>
<trkpt lat="40.0713749" lon="-105.229789">
  <ele>1583.0</ele>
  <time>2026-08-28T17:51:31Z</time>
  <course>247.68</course>
  <speed>0.0316227766016838</speed>
  <fix>3d</fix>
</trkpt>
<trkpt lat="40.0713749" lon="-105.229789">
  <ele>1583.0</ele>
  <time>2026-08-28T17:51:31Z</time>
  <course>0.0</course>
  <speed>0.0</speed>
  <fix>3d</fix>
</trkpt>
<trkpt lat="40.0713749" lon="-105.229789">
  <ele>1583.0</ele>
  <time>2026-08-28T17:51:31Z</time>
  <course>247.68</course>
  <speed>0.0316227766016838</speed>
  <fix>3d</fix>
</trkpt>
<trkpt lat="40.0713749" lon="-105.229789">
  <ele>1583.0</ele>
  <time>2026-08-28T17:51:31Z</time>
  <course>0.0</course>
  <speed>0.0</speed>
  <fix>3d</fix>
</trkpt>
<trkpt lat="40.0713749" lon="-105.229789">
  <ele>1583.0</ele>
  <time>2026-08-28T17:51:31Z</time>
  <course>247.68</course>
  <speed>0.0316227766016838</speed>
  <fix>3d</fix>
</trkpt>
<trkpt lat="40.0713749" lon="-105.229789">
  <ele>1583.0</ele>
  <time>2026-08-28T17:51:31Z</time>
  <course>0.0</course>
  <speed>0.0</speed>
  <fix>3d</fix>
</trkpt>
<trkpt lat="40.0713749" lon="-105.229789">
  <ele>1583.0</ele>
  <time>2026-08-28T17:51:31Z</time>
  <course>247.67</course>
  <speed>0.0316227766016838</speed>
  <fix>3d</fix>
</trkpt>
<trkpt lat="40.0713749" lon="-105.229789">
  <ele>1583.0</ele>
  <time>2026-08-28T17:51:31Z</time>
  <course>0.0</course>
  <speed>0.0</speed>
  <fix>3d</fix>
</trkpt>
<trkpt lat="40.0713749" lon="-105.229789">
  <ele>1583.0</ele>
  <time>2026-08-28T17:51:31Z</time>
  <course>247.67</course>
  <speed>0.0316227766016838</speed>
  <fix>3d</fix>
</trkpt>
<trkpt lat="40.0713749" lon="-105.229789">
  <ele>1583.0</ele>
  <time>2026-08-28T17:51:31Z</time>
  <course>0.0</course>
  <speed>0.0</speed>
  <fix>3d</fix>
</trkpt>
<trkpt lat="40.0713749" lon="-105.229789">
  <ele>1583.0</ele>
  <time>2026-08-28T17:51:31Z</time>
  <course>247.67</course>
  <speed>0.0316227766016838</speed>
  <fix>3d</fix>
</trkpt>
<trkpt lat="40.0713749" lon="-105.229789">
  <ele>1583.0</ele>
  <time>2026-08-28T17:51:31Z</time>
  <course>0.0</course>
  <speed>0.0</speed>
  <fix>3d</fix>
</trkpt>
<trkpt lat="40.0713749" lon="-105.229789">
  <ele>1583.0</ele>
  <time>2026-08-28T17:51:31Z</time>
  <course>247.66</course>
  <speed>0.0316227766016838</speed>
  <fix>3d</fix>
</trkpt>
<trkpt lat="40.0713749" lon="-105.229789">
  <ele>1583.0</ele>
  <time>2026-08-28T17:51:31Z</time>
  <course>0.0</course>
  <speed>0.0</speed>
  <fix>3d</fix>
</trkpt>
<trkpt lat="40.0713749" lon="-105.229789">
  <ele>1583.0</ele>
  <time>2026-08-28T17:51:31Z</time>
  <course>247.66</course>
  <speed>0.0316227766016838</speed>
  <fix>3d</fix>
</trkpt>
<trkpt lat="40.0713749" lon="-105.229789">
  <ele>1583.0</ele>
  <time>2026-08-28T17:51:31Z</time>
  <course>0.0</course>
  <speed>0.0</speed>
  <fix>3d</fix>
</trkpt>
<trkpt lat="40.0713749" lon="-105.229789">
  <ele>1583.0</ele>
  <time>2026-08-28T17:51:31Z</time>
  <course>247.66</course>
  <speed>0.0316227766016838</speed>
  <fix>3d</fix>
</trkpt>
<trkpt lat="40.0713749" lon="-105.229789">
  <ele>1583.0</ele>
  <time>2026-08-28T17:51:31Z</time>
  <course>0.0</course>
  <speed>0.0</speed>
  <fix>3d</fix>
</trkpt>
<trkpt lat="40.0713749" lon="-105.229789">
  <ele>1583.0</ele>
  <time>2026-08-28T17:51:31Z</time>
  <course>247.65</course>
  <speed>0.0316227766016838</speed>
  <fix>3d</fix>
</trkpt>
<trkpt lat="40.0713749" lon="-105.229789">
  <ele>1583.0</ele>
  <time>2026-08-28T17:51:31Z</time>
  <course>0.0</course>
  <speed>0.0</speed>
  <fix>3d</fix>
</trkpt>
<trkpt lat="40.0713749" lon="-105.229789">
  <ele>1583.0</ele>
  <time>2026-08-28T17:51:31Z</time>
  <course>247.65</course>
  <speed>0.0316227766016838</speed>
  <fix>3d</fix>
</trkpt>
<trkpt lat="40.0713749" lon="-105.229789">
  <ele>1583.0</ele>
  <time>2026-08-28T17:51:31Z</time>
  <course>0.0</course>
  <speed>0.0</speed>
  <fix>3d</fix>
</trkpt>
<trkpt lat="40.0713749" lon="-105.229789">
  <ele>1583.0</ele>
  <time>2026-08-28T17:51:31Z</time>
  <course>247.65</course>
  <speed>0.0316227766016838</speed>
  <fix>3d</fix>
</trkpt>
<trkpt lat="40.0713749" lon="-105.229789">
  <ele>1583.0</ele>
  <time>2026-08-28T17:51:31Z</time>
  <course>0.0</course>
  <speed>0.0</speed>
  <fix>3d</fix>
</trkpt>
<trkpt lat="40.0713749" lon="-105.229789">
  <ele>1583.0</ele>
  <time>2026-08-28T17:51:31Z</time>
  <course>247.64</course>
  <speed>0.0316227766016838</speed>
  <fix>3d</fix>
</trkpt>
<trkpt lat="40.0713749" lon="-105.229789">
  <ele>1583.0</ele>
  <time>2026-08-28T17:51:31Z</time>
  <course>0.0</course>
  <speed>0.0</speed>
  <fix>3d</fix>
</trkpt>
<trkpt lat="40.0713749" lon="-105.229789">
  <ele>1583.0</ele>
  <time>2026-08-28T17:51:31Z</time>
  <course>247.64</course>
  <speed>0.0316227766016838</speed>
  <fix>3d</fix>
</trkpt>
<trkpt lat="40.0713749" lon="-105.229789">
  <ele>1583.0</ele>
  <time>2026-08-28T17:51:31Z</time>
  <course>0.0</course>
  <speed>0.0</speed>
  <fix>3d</fix>
</trkpt>
<trkpt lat="40.0713749" lon="-105.229789">
  <ele>1583.0</ele>
  <time>2026-08-28T17:51:31Z</time>
  <course>247.64</course>
  <speed>0.0316227766016838</speed>
  <fix>3d</fix>
</trkpt>
<trkpt lat="40.0713749" lon="-105.229789">
  <ele>1583.0</ele>
  <time>2026-08-28T17:51:31Z</time>
  <course>0.0</course>
  <speed>0.0</speed>
  <fix>3d</fix>
</trkpt>
<trkpt lat="40.0713749" lon="-105.229789">
  <ele>1583.0</ele>
  <time>2026-08-28T17:51:31Z</time>
  <course>247.64</course>
  <speed>0.0316227766016838</speed>
  <fix>3d</fix>
</trkpt>
<trkpt lat="40.0713749" lon="-105.229789">
  <ele>1583.0</ele>
  <time>2026-08-28T17:51:31Z</time>
  <course>0.0</course>
  <speed>0.0</speed>
  <fix>3d</fix>
</trkpt>
<trkpt lat="40.0713749" lon="-105.229789">
  <ele>1583.0</ele>
  <time>2026-08-28T17:51:31Z</time>
  <course>247.63</course>
  <speed>0.0316227766016838</speed>
  <fix>3d</fix>
</trkpt>
<trkpt lat="40.0713749" lon="-105.229789">
  <ele>1583.0</ele>
  <time>2026-08-28T17:51:31Z</time>
  <course>0.0</course>
  <speed>0.0</speed>
  <fix>3d</fix>
</trkpt>
<trkpt lat="40.0713749" lon="-105.229789">
  <ele>1583.0</ele>
  <time>2026-08-28T17:51:31Z</time>
  <course>247.63</course>
  <speed>0.0316227766016838</speed>
  <fix>3d</fix>
</trkpt>
<trkpt lat="40.0713749" lon="-105.229789">
  <ele>1583.0</ele>
  <time>2026-08-28T17:51:31Z</time>
  <course>0.0</course>
  <speed>0.0</speed>
  <fix>3d</fix>
</trkpt>
<trkpt lat="40.0713749" lon="-105.229789">
  <ele>1583.0</ele>
  <time>2026-08-28T17:51:31Z</time>
  <course>247.63</course>
  <speed>0.0316227766016838</speed>
  <fix>3d</fix>
</trkpt>
<trkpt lat="40.0713749" lon="-105.229789">
  <ele>1583.0</ele>
  <time>2026-08-28T17:51:31Z</time>
  <course>0.0</course>
  <speed>0.0</speed>
  <fix>3d</fix>
</trkpt>
<trkpt lat="40.0713749" lon="-105.229789">
  <ele>1583.0</ele>
  <time>2026-08-28T17:51:31Z</time>
  <course>247.62</course>
  <speed>0.0316227766016838</speed>
  <fix>3d</fix>
</trkpt>
<trkpt lat="40.0713749" lon="-105.229789">
  <ele>1583.0</ele>
  <time>2026-08-28T17:51:31Z</time>
  <course>0.0</course>
  <speed>0.0</speed>
  <fix>3d</fix>
</trkpt>
<trkpt lat="40.0713749" lon="-105.229789">
  <ele>1583.0</ele>
  <time>2026-08-28T17:51:31Z</time>
  <course>247.62</course>
  <speed>0.0316227766016838</speed>
  <fix>3d</fix>
</trkpt>
<trkpt lat="40.0713749" lon="-105.229789">
  <ele>1583.0</ele>
  <time>2026-08-28T17:51:31Z</time>
  <course>0.0</course>
  <speed>0.0</speed>
  <fix>3d</fix>
</trkpt>
<trkpt lat="40.0713749" lon="-105.229789">
  <ele>1583.0</ele>
  <time>2026-08-28T17:51:31Z</time>
  <course>247.62</course>
  <speed>0.0316227766016838</speed>
  <fix>3d</fix>
</trkpt>
<trkpt lat="40.0713749" lon="-105.229789">
  <ele>1583.0</ele>
  <time>2026-08-28T17:51:31Z</time>
  <course>0.0</course>
  <speed>0.0</speed>
  <fix>3d</fix>
</trkpt>
<trkpt lat="40.0713749" lon="-105.229789">
  <ele>1583.0</ele>
  <time>2026-08-28T17:51:31Z</time>
  <course>247.61</course>
  <speed>0.0316227766016838</speed>
  <fix>3d</fix>
</trkpt>
<trkpt lat="40.0713749" lon="-105.229789">
  <ele>1583.0</ele>
  <time>2026-08-28T17:51:31Z</time>
  <course>0.0</course>
  <speed>0.0</speed>
  <fix>3d</fix>
</trkpt>
<trkpt lat="40.0713749" lon="-105.229789">
  <ele>1583.0</ele>
  <time>2026-08-28T17:51:31Z</time>
  <course>247.61</course>
  <speed>0.0316227766016838</speed>
  <fix>3d</fix>
</trkpt>
<trkpt lat="40.0713749" lon="-105.229789">
  <ele>1583.0</ele>
  <time>2026-08-28T17:51:31Z</time>
  <course>0.0</course>
  <speed>0.0</speed>
  <fix>3d</fix>
</trkpt>
<trkpt lat="40.0713749" lon="-105.229789">
  <ele>1583.0</ele>
  <time>2026-08-28T17:51:31Z</time>
  <course>247.61</course>
  <speed>0.0316227766016838</speed>
  <fix>3d</fix>
</trkpt>
<trkpt lat="40.0713749" lon="-105.229789">
  <ele>1583.0</ele>
  <time>2026-08-28T17:51:31Z</time>
  <course>0.0</course>
  <speed>0.0</speed>
  <fix>3d</fix>
</trkpt>
<trkpt lat="40.0713749" lon="-105.229789">
  <ele>1583.0</ele>
  <time>2026-08-28T17:51:31Z</time>
  <course>247.61</course>
  <speed>0.0316227766016838</speed>
  <fix>3d</fix>
</trkpt>
<trkpt lat="40.0713749" lon="-105.229789">
  <ele>1583.0</ele>
  <time>2026-08-28T17:51:31Z</time>
  <course>0.0</course>
  <speed>0.0</speed>
  <fix>3d</fix>
</trkpt>
<trkpt lat="40.0713749" lon="-105.229789">
  <ele>1583.0</ele>
  <time>2026-08-28T17:51:31Z</time>
  <course>247.6</course>
  <speed>0.0316227766016838</speed>
  <fix>3d</fix>
</trkpt>
<trkpt lat="40.0713749" lon="-105.229789">
  <ele>1583.0</ele>
  <time>2026-08-28T17:51:31Z</time>
  <course>0.0</course>
  <speed>0.0</speed>
  <fix>3d</fix>
</trkpt>
<trkpt lat="40.0713749" lon="-105.229789">
  <ele>1583.0</ele>
  <time>2026-08-28T17:51:31Z</time>
  <course>247.6</course>
  <speed>0.0316227766016838</speed>
  <fix>3d</fix>
</trkpt>
<trkpt lat="40.0713749" lon="-105.229789">
  <ele>1583.0</ele>
  <time>2026-08-28T17:51:31Z</time>
  <course>0.0</course>
  <speed>0.0</speed>
  <fix>3d</fix>
</trkpt>
<trkpt lat="40.0713749" lon="-105.229789">
  <ele>1583.0</ele>
  <time>2026-08-28T17:51:31Z</time>
  <course>247.6</course>
  <speed>0.0316227766016838</speed>
  <fix>3d</fix>
</trkpt>
<trkpt lat="40.0713749" lon="-105.229789">
  <ele>1583.0</ele>
  <time>2026-08-28T17:51:31Z</time>
  <course>0.0</course>
  <speed>0.0</speed>
  <fix>3d</fix>
</trkpt>
<trkpt lat="40.0713749" lon="-105.229789">
  <ele>1583.0</ele>
  <time>2026-08-28T17:51:31Z</time>
  <course>247.6</course>
  <speed>0.0316227766016838</speed>
  <fix>3d</fix>
</trkpt>
<trkpt lat="40.0713749" lon="-105.229789">
  <ele>1583.0</ele>
  <time>2026-08-28T17:51:31Z</time>
  <course>0.0</course>
  <speed>0.0</speed>
  <fix>3d</fix>
</trkpt>
<trkpt lat="40.0713749" lon="-105.229789">
  <ele>1583.0</ele>
  <time>2026-08-28T17:51:31Z</time>
  <course>247.59</course>
  <speed>0.0316227766016838</speed>
  <fix>3d</fix>
</trkpt>
<trkpt lat="40.0713749" lon="-105.229789">
  <ele>1583.0</ele>
  <time>2026-08-28T17:51:31Z</time>
  <course>0.0</course>
  <speed>0.0</speed>
  <fix>3d</fix>
</trkpt>
<trkpt lat="40.0713749" lon="-105.229789">
  <ele>1582.92</ele>
  <time>2026-08-28T17:51:31Z</time>
  <course>247.59</course>
  <speed>0.0</speed>
  <fix>3d</fix>
</trkpt>
<trkpt lat="40.0713749" lon="-105.229789">
  <ele>1583.0</ele>
  <time>2026-08-28T17:51:31Z</time>
  <course>0.0</course>
  <speed>0.0</speed>
  <fix>3d</fix>
</trkpt>
<trkpt lat="40.0713749" lon="-105.229789">
  <ele>1582.92</ele>
  <time>2026-08-28T17:51:31Z</time>
  <course>247.59</course>
  <speed>0.0</speed>
  <fix>3d</fix>
</trkpt>
<trkpt lat="40.0713749" lon="-105.229789">
  <ele>1583.0</ele>
  <time>2026-08-28T17:51:31Z</time>
  <course>0.0</course>
  <speed>0.0</speed>
  <fix>3d</fix>
</trkpt>
<trkpt lat="40.0713749" lon="-105.229789">
  <ele>1582.91</ele>
  <time>2026-08-28T17:51:31Z</time>
  <course>247.58</course>
  <speed>0.0</speed>
  <fix>3d</fix>
</trkpt>
<trkpt lat="40.0713749" lon="-105.229789">
  <ele>1583.0</ele>
  <time>2026-08-28T17:51:31Z</time>
  <course>0.0</course>
  <speed>0.0</speed>
  <fix>3d</fix>
</trkpt>
<trkpt lat="40.0713749" lon="-105.229789">
  <ele>1582.91</ele>
  <time>2026-08-28T17:51:31Z</time>
  <course>247.58</course>
  <speed>0.0</speed>
  <fix>3d</fix>
</trkpt>
<trkpt lat="40.0713749" lon="-105.229789">
  <ele>1583.0</ele>
  <time>2026-08-28T17:51:31Z</time>
  <course>0.0</course>
  <speed>0.0</speed>
  <fix>3d</fix>
</trkpt>
<trkpt lat="40.0713749" lon="-105.229789">
  <ele>1582.9</ele>
  <time>2026-08-28T17:51:31Z</time>
  <course>247.58</course>
  <speed>0.0</speed>
  <fix>3d</fix>
</trkpt>
<trkpt lat="40.0713749" lon="-105.229789">
  <ele>1583.0</ele>
  <time>2026-08-28T17:51:31Z</time>
  <course>0.0</course>
  <speed>0.0</speed>
  <fix>3d</fix>
</trkpt>
<trkpt lat="40.0713749" lon="-105.229789">
  <ele>1582.9</ele>
  <time>2026-08-28T17:51:31Z</time>
  <course>247.58</course>
  <speed>0.0</speed>
  <fix>3d</fix>
</trkpt>
<trkpt lat="40.0713749" lon="-105.229789">
  <ele>1583.0</ele>
  <time>2026-08-28T17:51:31Z</time>
  <course>0.0</course>
  <speed>0.0</speed>
  <fix>3d</fix>
</trkpt>
<trkpt lat="40.0713749" lon="-105.229789">
  <ele>1582.9</ele>
  <time>2026-08-28T17:51:31Z</time>
  <course>247.57</course>
  <speed>0.0</speed>
  <fix>3d</fix>
</trkpt>
<trkpt lat="40.0713749" lon="-105.229789">
  <ele>1583.0</ele>
  <time>2026-08-28T17:51:31Z</time>
  <course>0.0</course>
  <speed>0.0</speed>
  <fix>3d</fix>
</trkpt>
<trkpt lat="40.0713749" lon="-105.229789">
  <ele>1582.9</ele>
  <time>2026-08-28T17:51:31Z</time>
  <course>247.57</course>
  <speed>0.0</speed>
  <fix>3d</fix>
</trkpt>
<trkpt lat="40.0713749" lon="-105.229789">
  <ele>1583.0</ele>
  <time>2026-08-28T17:51:31Z</time>
  <course>0.0</course>
  <speed>0.0</speed>
  <fix>3d</fix>
</trkpt>
<trkpt lat="40.0713749" lon="-105.229789">
  <ele>1582.9</ele>
  <time>2026-08-28T17:51:31Z</time>
  <course>247.57</course>
  <speed>0.0</speed>
  <fix>3d</fix>
</trkpt>
<trkpt lat="40.0713749" lon="-105.229789">
  <ele>1583.0</ele>
  <time>2026-08-28T17:51:31Z</time>
  <course>0.0</course>
  <speed>0.0</speed>
  <fix>3d</fix>
</trkpt>
<trkpt lat="40.0713749" lon="-105.229789">
  <ele>1582.9</ele>
  <time>2026-08-28T17:51:31Z</time>
  <course>247.57</course>
  <speed>0.01</speed>
  <fix>3d</fix>
</trkpt>
<trkpt lat="40.0713749" lon="-105.229789">
  <ele>1583.0</ele>
  <time>2026-08-28T17:51:31Z</time>
  <course>0.0</course>
  <speed>0.0</speed>
  <fix>3d</fix>
</trkpt>
<trkpt lat="40.0713749" lon="-105.229789">
  <ele>1582.91</ele>
  <time>2026-08-28T17:51:31Z</time>
  <course>247.56</course>
  <speed>0.01</speed>
  <fix>3d</fix>
</trkpt>
<trkpt lat="40.0713749" lon="-105.229789">
  <ele>1583.0</ele>
  <time>2026-08-28T17:51:31Z</time>
  <course>0.0</course>
  <speed>0.0</speed>
  <fix>3d</fix>
</trkpt>
<trkpt lat="40.0713749" lon="-105.229789">
  <ele>1582.91</ele>
  <time>2026-08-28T17:51:31Z</time>
  <course>247.56</course>
  <speed>0.01</speed>
  <fix>3d</fix>
</trkpt>
<trkpt lat="40.0713749" lon="-105.229789">
  <ele>1583.0</ele>
  <time>2026-08-28T17:51:31Z</time>
  <course>0.0</course>
  <speed>0.0</speed>
  <fix>3d</fix>
</trkpt>
<trkpt lat="40.0713749" lon="-105.229789">
  <ele>1582.91</ele>
  <time>2026-08-28T17:51:31Z</time>
  <course>247.56</course>
  <speed>0.01</speed>
  <fix>3d</fix>
</trkpt>
<trkpt lat="40.0713749" lon="-105.229789">
  <ele>1583.0</ele>
  <time>2026-08-28T17:51:31Z</time>
  <course>0.0</course>
  <speed>0.0</speed>
  <fix>3d</fix>
</trkpt>
<trkpt lat="40.0713749" lon="-105.229789">
  <ele>1582.92</ele>
  <time>2026-08-28T17:51:31Z</time>
  <course>247.56</course>
  <speed>0.01</speed>
  <fix>3d</fix>
</trkpt>
<trkpt lat="40.0713749" lon="-105.229789">
  <ele>1583.0</ele>
  <time>2026-08-28T17:51:31Z</time>
  <course>0.0</course>
  <speed>0.0</speed>
  <fix>3d</fix>
</trkpt>
<trkpt lat="40.0713749" lon="-105.229789">
  <ele>1582.92</ele>
  <time>2026-08-28T17:51:31Z</time>
  <course>247.55</course>
  <speed>0.01</speed>
  <fix>3d</fix>
</trkpt>
<trkpt lat="40.0713749" lon="-105.229789">
  <ele>1583.0</ele>
  <time>2026-08-28T17:51:31Z</time>
  <course>0.0</course>
  <speed>0.0</speed>
  <fix>3d</fix>
</trkpt>
<trkpt lat="40.0713749" lon="-105.229789">
  <ele>1582.92</ele>
  <time>2026-08-28T17:51:31Z</time>
  <course>247.55</course>
  <speed>0.01</speed>
  <fix>3d</fix>
</trkpt>
<trkpt lat="40.0713749" lon="-105.229789">
  <ele>1583.0</ele>
  <time>2026-08-28T17:51:31Z</time>
  <course>0.0</course>
  <speed>0.0</speed>
  <fix>3d</fix>
</trkpt>
<trkpt lat="40.0713749" lon="-105.229789">
  <ele>1582.93</ele>
  <time>2026-08-28T17:51:31Z</time>
  <course>247.55</course>
  <speed>0.01</speed>
  <fix>3d</fix>
</trkpt>
<trkpt lat="40.0713749" lon="-105.229789">
  <ele>1583.0</ele>
  <time>2026-08-28T17:51:31Z</time>
  <course>0.0</course>
  <speed>0.0</speed>
  <fix>3d</fix>
</trkpt>
<trkpt lat="40.0713749" lon="-105.229789">
  <ele>1582.93</ele>
  <time>2026-08-28T17:51:31Z</time>
  <course>247.55</course>
  <speed>0.02</speed>
  <fix>3d</fix>
</trkpt>
<trkpt lat="40.0713749" lon="-105.229789">
  <ele>1583.0</ele>
  <time>2026-08-28T17:51:31Z</time>
  <course>0.0</course>
  <speed>0.0</speed>
  <fix>3d</fix>
</trkpt>
<trkpt lat="40.0713749" lon="-105.229789">
  <ele>1582.93</ele>
  <time>2026-08-28T17:51:31Z</time>
  <course>247.54</course>
  <speed>0.02</speed>
  <fix>3d</fix>
</trkpt>
<trkpt lat="40.0713749" lon="-105.229789">
  <ele>1583.0</ele>
  <time>2026-08-28T17:51:31Z</time>
  <course>0.0</course>
  <speed>0.0</speed>
  <fix>3d</fix>
</trkpt>
<trkpt lat="40.0713749" lon="-105.229789">
  <ele>1582.93</ele>
  <time>2026-08-28T17:51:31Z</time>
  <course>247.54</course>
  <speed>0.02</speed>
  <fix>3d</fix>
</trkpt>
<trkpt lat="40.0713749" lon="-105.229789">
  <ele>1583.0</ele>
  <time>2026-08-28T17:51:31Z</time>
  <course>0.0</course>
  <speed>0.0</speed>
  <fix>3d</fix>
</trkpt>
<trkpt lat="40.0713749" lon="-105.229789">
  <ele>1582.93</ele>
  <time>2026-08-28T17:51:31Z</time>
  <course>247.54</course>
  <speed>0.02</speed>
  <fix>3d</fix>
</trkpt>
<trkpt lat="40.0713749" lon="-105.229789">
  <ele>1583.0</ele>
  <time>2026-08-28T17:51:31Z</time>
  <course>0.0</course>
  <speed>0.0</speed>
  <fix>3d</fix>
</trkpt>
<trkpt lat="40.0713749" lon="-105.229789">
  <ele>1582.93</ele>
  <time>2026-08-28T17:51:31Z</time>
  <course>247.54</course>
  <speed>0.022360679774997897</speed>
  <fix>3d</fix>
</trkpt>
<trkpt lat="40.0713749" lon="-105.229789">
  <ele>1583.0</ele>
  <time>2026-08-28T17:51:31Z</time>
  <course>0.0</course>
  <speed>0.0</speed>
  <fix>3d</fix>
</trkpt>
<trkpt lat="40.0713749" lon="-105.229789">
  <ele>1582.94</ele>
  <time>2026-08-28T17:51:31Z</time>
  <course>247.53</course>
  <speed>0.022360679774997897</speed>
  <fix>3d</fix>
</trkpt>
<trkpt lat="40.0713749" lon="-105.229789">
  <ele>1583.0</ele>
  <time>2026-08-28T17:51:31Z</time>
  <course>0.0</course>
  <speed>0.0</speed>
  <fix>3d</fix>
</trkpt>
<trkpt lat="40.0713749" lon="-105.229789">
  <ele>1582.94</ele>
  <time>2026-08-28T17:51:31Z</time>
  <course>247.53</course>
  <speed>0.022360679774997897</speed>
  <fix>3d</fix>
</trkpt>
<trkpt lat="40.0713749" lon="-105.229789">
  <ele>1583.0</ele>
  <time>2026-08-28T17:51:31Z</time>
  <course>0.0</course>
  <speed>0.0</speed>
  <fix>3d</fix>
</trkpt>
<trkpt lat="40.071375" lon="-105.229789">
  <ele>1582.94</ele>
  <time>2026-08-28T17:51:31Z</time>
  <course>247.53</course>
  <speed>0.022360679774997897</speed>
  <fix>3d</fix>
</trkpt>
<trkpt lat="40.0713749" lon="-105.229789">
  <ele>1583.0</ele>
  <time>2026-08-28T17:51:31Z</time>
  <course>0.0</course>
  <speed>0.0</speed>
  <fix>3d</fix>
</trkpt>
<trkpt lat="40.071375" lon="-105.229789">
  <ele>1582.95</ele>
  <time>2026-08-28T17:51:31Z</time>
  <course>247.53</course>
  <speed>0.022360679774997897</speed>
  <fix>3d</fix>
</trkpt>
<trkpt lat="40.0713749" lon="-105.229789">
  <ele>1583.0</ele>
  <time>2026-08-28T17:51:31Z</time>
  <course>0.0</course>
  <speed>0.0</speed>
  <fix>3d</fix>
</trkpt>
<trkpt lat="40.071375" lon="-105.229789">
  <ele>1582.95</ele>
  <time>2026-08-28T17:51:31Z</time>
  <course>247.53</course>
  <speed>0.022360679774997897</speed>
  <fix>3d</fix>
</trkpt>
<trkpt lat="40.0713749" lon="-105.229789">
  <ele>1583.0</ele>
  <time>2026-08-28T17:51:31Z</time>
  <course>0.0</course>
  <speed>0.0</speed>
  <fix>3d</fix>
</trkpt>
<trkpt lat="40.071375" lon="-105.229789">
  <ele>1582.95</ele>
  <time>2026-08-28T17:51:31Z</time>
  <course>247.52</course>
  <speed>0.022360679774997897</speed>
  <fix>3d</fix>
</trkpt>
<trkpt lat="40.0713749" lon="-105.229789">
  <ele>1583.0</ele>
  <time>2026-08-28T17:51:31Z</time>
  <course>0.0</course>
  <speed>0.0</speed>
  <fix>3d</fix>
</trkpt>
<trkpt lat="40.071375" lon="-105.229789">
  <ele>1582.95</ele>
  <time>2026-08-28T17:51:31Z</time>
  <course>247.52</course>
  <speed>0.022360679774997897</speed>
  <fix>3d</fix>
</trkpt>
<trkpt lat="40.0713749" lon="-105.229789">
  <ele>1583.0</ele>
  <time>2026-08-28T17:51:31Z</time>
  <course>0.0</course>
  <speed>0.0</speed>
  <fix>3d</fix>
</trkpt>
<trkpt lat="40.071375" lon="-105.229789">
  <ele>1582.95</ele>
  <time>2026-08-28T17:51:31Z</time>
  <course>247.52</course>
  <speed>0.022360679774997897</speed>
  <fix>3d</fix>
</trkpt>
<trkpt lat="40.0713749" lon="-105.229789">
  <ele>1583.0</ele>
  <time>2026-08-28T17:51:31Z</time>
  <course>0.0</course>
  <speed>0.0</speed>
  <fix>3d</fix>
</trkpt>
<trkpt lat="40.071375" lon="-105.229789">
  <ele>1582.95</ele>
  <time>2026-08-28T17:51:31Z</time>
  <course>247.52</course>
  <speed>0.022360679774997897</speed>
  <fix>3d</fix>
</trkpt>
<trkpt lat="40.0713749" lon="-105.229789">
  <ele>1583.0</ele>
  <time>2026-08-28T17:51:31Z</time>
  <course>0.0</course>
  <speed>0.0</speed>
  <fix>3d</fix>
</trkpt>
<trkpt lat="40.071375" lon="-105.229789">
  <ele>1582.95</ele>
  <time>2026-08-28T17:51:31Z</time>
  <course>247.51</course>
  <speed>0.0316227766016838</speed>
  <fix>3d</fix>
</trkpt>
<trkpt lat="40.0713749" lon="-105.229789">
  <ele>1583.0</ele>
  <time>2026-08-28T17:51:31Z</time>
  <course>0.0</course>
  <speed>0.0</speed>
  <fix>3d</fix>
</trkpt>
<trkpt lat="40.071375" lon="-105.229789">
  <ele>1582.95</ele>
  <time>2026-08-28T17:51:31Z</time>
  <course>247.51</course>
  <speed>0.0316227766016838</speed>
  <fix>3d</fix>
</trkpt>
<trkpt lat="40.071375" lon="-105.229789">
  <ele>1582.95</ele>
  <time>2026-08-28T17:51:31Z</time>
  <course>247.51</course>
  <speed>0.0316227766016838</speed>
  <fix>3d</fix>
</trkpt>
<trkpt lat="40.0713749" lon="-105.229789">
  <ele>1583.0</ele>
  <time>2026-08-28T17:51:31Z</time>
  <course>0.0</course>
  <speed>0.0</speed>
  <fix>3d</fix>
</trkpt>
<trkpt lat="40.071375" lon="-105.229789">
  <ele>1582.95</ele>
  <time>2026-08-28T17:51:31Z</time>
  <course>247.51</course>
  <speed>0.0316227766016838</speed>
  <fix>3d</fix>
</trkpt>
<trkpt lat="40.0713749" lon="-105.229789">
  <ele>1583.0</ele>
  <time>2026-08-28T17:51:32Z</time>
  <course>0.0</course>
  <speed>0.0</speed>
  <fix>3d</fix>
</trkpt>
<trkpt lat="40.071375" lon="-105.2297889">
  <ele>1582.95</ele>
  <time>2026-08-28T17:51:32Z</time>
  <course>247.51</course>
  <speed>0.0316227766016838</speed>
  <fix>3d</fix>
</trkpt>
<trkpt lat="40.0713749" lon="-105.229789">
  <ele>1583.0</ele>
  <time>2026-08-28T17:51:32Z</time>
  <course>0.0</course>
  <speed>0.0</speed>
  <fix>3d</fix>
</trkpt>
<trkpt lat="40.071375" lon="-105.2297889">
  <ele>1582.95</ele>
  <time>2026-08-28T17:51:32Z</time>
  <course>247.5</course>
  <speed>0.0316227766016838</speed>
  <fix>3d</fix>
</trkpt>
<trkpt lat="40.0713749" lon="-105.229789">
  <ele>1583.0</ele>
  <time>2026-08-28T17:51:32Z</time>
  <course>0.0</course>
  <speed>0.0</speed>
  <fix>3d</fix>
</trkpt>
<trkpt lat="40.071375" lon="-105.2297889">
  <ele>1582.95</ele>
  <time>2026-08-28T17:51:32Z</time>
  <course>247.5</course>
  <speed>0.0316227766016838</speed>
  <fix>3d</fix>
</trkpt>
<trkpt lat="40.0713749" lon="-105.229789">
  <ele>1583.0</ele>
  <time>2026-08-28T17:51:32Z</time>
  <course>0.0</course>
  <speed>0.0</speed>
  <fix>3d</fix>
</trkpt>
<trkpt lat="40.0713751" lon="-105.2297889">
  <ele>1582.95</ele>
  <time>2026-08-28T17:51:32Z</time>
  <course>247.5</course>
  <speed>0.0316227766016838</speed>
  <fix>3d</fix>
</trkpt>
<trkpt lat="40.0713749" lon="-105.229789">
  <ele>1583.0</ele>
  <time>2026-08-28T17:51:32Z</time>
  <course>0.0</course>
  <speed>0.0</speed>
  <fix>3d</fix>
</trkpt>
<trkpt lat="40.0713751" lon="-105.2297889">
  <ele>1582.95</ele>
  <time>2026-08-28T17:51:32Z</time>
  <course>247.5</course>
  <speed>0.0316227766016838</speed>
  <fix>3d</fix>
</trkpt>
<trkpt lat="40.0713749" lon="-105.229789">
  <ele>1583.0</ele>
  <time>2026-08-28T17:51:32Z</time>
  <course>0.0</course>
  <speed>0.0</speed>
  <fix>3d</fix>
</trkpt>
<trkpt lat="40.0713751" lon="-105.2297889">
  <ele>1582.95</ele>
  <time>2026-08-28T17:51:32Z</time>
  <course>247.5</course>
  <speed>0.0316227766016838</speed>
  <fix>3d</fix>
</trkpt>
<trkpt lat="40.0713749" lon="-105.229789">
  <ele>1583.0</ele>
  <time>2026-08-28T17:51:32Z</time>
  <course>0.0</course>
  <speed>0.0</speed>
  <fix>3d</fix>
</trkpt>
<trkpt lat="40.0713751" lon="-105.2297889">
  <ele>1582.96</ele>
  <time>2026-08-28T17:51:32Z</time>
  <course>247.49</course>
  <speed>0.0316227766016838</speed>
  <fix>3d</fix>
</trkpt>
<trkpt lat="40.0713749" lon="-105.229789">
  <ele>1583.0</ele>
  <time>2026-08-28T17:51:32Z</time>
  <course>0.0</course>
  <speed>0.0</speed>
  <fix>3d</fix>
</trkpt>
<trkpt lat="40.0713751" lon="-105.2297889">
  <ele>1582.96</ele>
  <time>2026-08-28T17:51:32Z</time>
  <course>247.49</course>
  <speed>0.0316227766016838</speed>
  <fix>3d</fix>
</trkpt>
<trkpt lat="40.0713749" lon="-105.229789">
  <ele>1583.0</ele>
  <time>2026-08-28T17:51:32Z</time>
  <course>0.0</course>
  <speed>0.0</speed>
  <fix>3d</fix>
</trkpt>
<trkpt lat="40.0713751" lon="-105.2297889">
  <ele>1582.97</ele>
  <time>2026-08-28T17:51:32Z</time>
  <course>247.49</course>
  <speed>0.0316227766016838</speed>
  <fix>3d</fix>
</trkpt>
<trkpt lat="40.0713749" lon="-105.229789">
  <ele>1583.0</ele>
  <time>2026-08-28T17:51:32Z</time>
  <course>0.0</course>
  <speed>0.0</speed>
  <fix>3d</fix>
</trkpt>
<trkpt lat="40.0713751" lon="-105.2297889">
  <ele>1582.98</ele>
  <time>2026-08-28T17:51:32Z</time>
  <course>247.49</course>
  <speed>0.0316227766016838</speed>
  <fix>3d</fix>
</trkpt>
<trkpt lat="40.0713749" lon="-105.229789">
  <ele>1583.0</ele>
  <time>2026-08-28T17:51:32Z</time>
  <course>0.0</course>
  <speed>0.0</speed>
  <fix>3d</fix>
</trkpt>
<trkpt lat="40.0713751" lon="-105.2297889">
  <ele>1582.98</ele>
  <time>2026-08-28T17:51:32Z</time>
  <course>247.49</course>
  <speed>0.0316227766016838</speed>
  <fix>3d</fix>
</trkpt>
<trkpt lat="40.0713749" lon="-105.229789">
  <ele>1583.0</ele>
  <time>2026-08-28T17:51:32Z</time>
  <course>0.0</course>
  <speed>0.0</speed>
  <fix>3d</fix>
</trkpt>
<trkpt lat="40.0713751" lon="-105.2297889">
  <ele>1582.99</ele>
  <time>2026-08-28T17:51:32Z</time>
  <course>247.48</course>
  <speed>0.0316227766016838</speed>
  <fix>3d</fix>
</trkpt>
<trkpt lat="40.0713749" lon="-105.229789">
  <ele>1583.0</ele>
  <time>2026-08-28T17:51:32Z</time>
  <course>0.0</course>
  <speed>0.0</speed>
  <fix>3d</fix>
</trkpt>
<trkpt lat="40.0713751" lon="-105.2297889">
  <ele>1583.0</ele>
  <time>2026-08-28T17:51:32Z</time>
  <course>247.48</course>
  <speed>0.022360679774997897</speed>
  <fix>3d</fix>
</trkpt>
<trkpt lat="40.0713749" lon="-105.229789">
  <ele>1583.0</ele>
  <time>2026-08-28T17:51:32Z</time>
  <course>0.0</course>
  <speed>0.0</speed>
  <fix>3d</fix>
</trkpt>
<trkpt lat="40.0713751" lon="-105.2297889">
  <ele>1583.01</ele>
  <time>2026-08-28T17:51:32Z</time>
  <course>247.48</course>
  <speed>0.022360679774997897</speed>
  <fix>3d</fix>
</trkpt>
<trkpt lat="40.0713749" lon="-105.229789">
  <ele>1583.0</ele>
  <time>2026-08-28T17:51:32Z</time>
  <course>0.0</course>
  <speed>0.0</speed>
  <fix>3d</fix>
</trkpt>
<trkpt lat="40.0713751" lon="-105.2297889">
  <ele>1583.01</ele>
  <time>2026-08-28T17:51:32Z</time>
  <course>247.48</course>
  <speed>0.022360679774997897</speed>
  <fix>3d</fix>
</trkpt>
<trkpt lat="40.0713749" lon="-105.229789">
  <ele>1583.0</ele>
  <time>2026-08-28T17:51:32Z</time>
  <course>0.0</course>
  <speed>0.0</speed>
  <fix>3d</fix>
</trkpt>
<trkpt lat="40.0713751" lon="-105.2297889">
  <ele>1583.01</ele>
  <time>2026-08-28T17:51:32Z</time>
  <course>247.47</course>
  <speed>0.022360679774997897</speed>
  <fix>3d</fix>
</trkpt>
<trkpt lat="40.0713749" lon="-105.229789">
  <ele>1583.0</ele>
  <time>2026-08-28T17:51:32Z</time>
  <course>0.0</course>
  <speed>0.0</speed>
  <fix>3d</fix>
</trkpt>
<trkpt lat="40.0713751" lon="-105.2297889">
  <ele>1583.01</ele>
  <time>2026-08-28T17:51:32Z</time>
  <course>247.47</course>
  <speed>0.022360679774997897</speed>
  <fix>3d</fix>
</trkpt>
<trkpt lat="40.0713749" lon="-105.229789">
  <ele>1583.0</ele>
  <time>2026-08-28T17:51:32Z</time>
  <course>0.0</course>
  <speed>0.0</speed>
  <fix>3d</fix>
</trkpt>
<trkpt lat="40.0713751" lon="-105.2297889">
  <ele>1583.01</ele>
  <time>2026-08-28T17:51:32Z</time>
  <course>247.47</course>
  <speed>0.022360679774997897</speed>
  <fix>3d</fix>
</trkpt>
<trkpt lat="40.0713749" lon="-105.229789">
  <ele>1583.0</ele>
  <time>2026-08-28T17:51:32Z</time>
  <course>0.0</course>
  <speed>0.0</speed>
  <fix>3d</fix>
</trkpt>
<trkpt lat="40.071375" lon="-105.2297889">
  <ele>1583.0</ele>
  <time>2026-08-28T17:51:32Z</time>
  <course>247.47</course>
  <speed>0.022360679774997897</speed>
  <fix>3d</fix>
</trkpt>
<trkpt lat="40.0713749" lon="-105.229789">
  <ele>1583.0</ele>
  <time>2026-08-28T17:51:32Z</time>
  <course>0.0</course>
  <speed>0.0</speed>
  <fix>3d</fix>
</trkpt>
<trkpt lat="40.071375" lon="-105.2297889">
  <ele>1583.0</ele>
  <time>2026-08-28T17:51:32Z</time>
  <course>247.47</course>
  <speed>0.022360679774997897</speed>
  <fix>3d</fix>
</trkpt>
<trkpt lat="40.0713749" lon="-105.229789">
  <ele>1583.0</ele>
  <time>2026-08-28T17:51:32Z</time>
  <course>0.0</course>
  <speed>0.0</speed>
  <fix>3d</fix>
</trkpt>
<trkpt lat="40.071375" lon="-105.2297889">
  <ele>1582.99</ele>
  <time>2026-08-28T17:51:32Z</time>
  <course>247.46</course>
  <speed>0.022360679774997897</speed>
  <fix>3d</fix>
</trkpt>
<trkpt lat="40.0713749" lon="-105.229789">
  <ele>1583.0</ele>
  <time>2026-08-28T17:51:32Z</time>
  <course>0.0</course>
  <speed>0.0</speed>
  <fix>3d</fix>
</trkpt>
<trkpt lat="40.071375" lon="-105.2297889">
  <ele>1582.99</ele>
  <time>2026-08-28T17:51:32Z</time>
  <course>247.47</course>
  <speed>0.01</speed>
  <fix>3d</fix>
</trkpt>
<trkpt lat="40.0713749" lon="-105.229789">
  <ele>1583.0</ele>
  <time>2026-08-28T17:51:32Z</time>
  <course>246.0</course>
  <speed>0.0</speed>
  <fix>3d</fix>
</trkpt>
<trkpt lat="40.071375" lon="-105.229789">
  <ele>1582.99</ele>
  <time>2026-08-28T17:51:32Z</time>
  <course>247.56</course>
  <speed>0.04</speed>
  <fix>3d</fix>
</trkpt>
<trkpt lat="40.0713749" lon="-105.229789">
  <ele>1583.0</ele>
  <time>2026-08-28T17:51:32Z</time>
  <course>246.0</course>
  <speed>0.0</speed>
  <fix>3d</fix>
</trkpt>
<trkpt lat="40.071375" lon="-105.229789">
  <ele>1582.99</ele>
  <time>2026-08-28T17:51:32Z</time>
  <course>247.75</course>
  <speed>0.07071067811865475</speed>
  <fix>3d</fix>
</trkpt>
<trkpt lat="40.0713749" lon="-105.229789">
  <ele>1583.0</ele>
  <time>2026-08-28T17:51:32Z</time>
  <course>246.21</course>
  <speed>0.04</speed>
  <fix>3d</fix>
</trkpt>
<trkpt lat="40.071375" lon="-105.2297891">
  <ele>1582.99</ele>
  <time>2026-08-28T17:51:32Z</time>
  <course>248.01</course>
  <speed>0.1118033988749895</speed>
  <fix>3d</fix>
</trkpt>
<trkpt lat="40.0713749" lon="-105.229789">
  <ele>1583.0</ele>
  <time>2026-08-28T17:51:32Z</time>
  <course>246.21</course>
  <speed>0.04</speed>
  <fix>3d</fix>
</trkpt>
<trkpt lat="40.071375" lon="-105.2297893">
  <ele>1582.98</ele>
  <time>2026-08-28T17:51:32Z</time>
  <course>248.36</course>
  <speed>0.14317821063276354</speed>
  <fix>3d</fix>
</trkpt>
<trkpt lat="40.0713749" lon="-105.2297892">
  <ele>1583.0</ele>
  <time>2026-08-28T17:51:32Z</time>
  <course>246.62</course>
  <speed>0.12</speed>
  <fix>3d</fix>
</trkpt>
<trkpt lat="40.0713749" lon="-105.2297895">
  <ele>1582.98</ele>
  <time>2026-08-28T17:51:32Z</time>
  <course>248.78</course>
  <speed>0.1772004514666935</speed>
  <fix>3d</fix>
</trkpt>
<trkpt lat="40.0713749" lon="-105.2297892">
  <ele>1583.0</ele>
  <time>2026-08-28T17:51:32Z</time>
  <course>246.62</course>
  <speed>0.12</speed>
  <fix>3d</fix>
</trkpt>
<trkpt lat="40.0713749" lon="-105.2297897">
  <ele>1582.98</ele>
  <time>2026-08-28T17:51:32Z</time>
  <course>249.28</course>
  <speed>0.208806130178211</speed>
  <fix>3d</fix>
</trkpt>
<trkpt lat="40.0713748" lon="-105.2297895">
  <ele>1583.0</ele>
  <time>2026-08-28T17:51:32Z</time>
  <course>247.36</course>
  <speed>0.18</speed>
  <fix>3d</fix>
</trkpt>
<trkpt lat="40.0713748" lon="-105.22979">
  <ele>1582.97</ele>
  <time>2026-08-28T17:51:32Z</time>
  <course>249.85</course>
  <speed>0.24041630560342614</speed>
  <fix>3d</fix>
</trkpt>
<trkpt lat="40.0713748" lon="-105.2297895">
  <ele>1583.0</ele>
  <time>2026-08-28T17:51:32Z</time>
  <course>247.36</course>
  <speed>0.18</speed>
  <fix>3d</fix>
</trkpt>
<trkpt lat="40.0713747" lon="-105.2297902">
  <ele>1582.97</ele>
  <time>2026-08-28T17:51:32Z</time>
  <course>250.36</course>
  <speed>0.2596150997149434</speed>
  <fix>3d</fix>
</trkpt>
<trkpt lat="40.0713747" lon="-105.22979">
  <ele>1583.0</ele>
  <time>2026-08-28T17:51:32Z</time>
  <course>248.39</course>
  <speed>0.24</speed>
  <fix>3d</fix>
</trkpt>
<trkpt lat="40.0713746" lon="-105.2297905">
  <ele>1582.97</ele>
  <time>2026-08-28T17:51:32Z</time>
  <course>251.04</course>
  <speed>0.2816025568065745</speed>
  <fix>3d</fix>
</trkpt>
<trkpt lat="40.0713747" lon="-105.22979">
  <ele>1583.0</ele>
  <time>2026-08-28T17:51:32Z</time>
  <course>248.39</course>
  <speed>0.24</speed>
  <fix>3d</fix>
</trkpt>
<trkpt lat="40.0713745" lon="-105.2297909">
  <ele>1582.96</ele>
  <time>2026-08-28T17:51:32Z</time>
  <course>251.79</course>
  <speed>0.3132091952673165</speed>
  <fix>3d</fix>
</trkpt>
<trkpt lat="40.0713745" lon="-105.2297906">
  <ele>1583.0</ele>
  <time>2026-08-28T17:51:32Z</time>
  <course>249.7</course>
  <speed>0.29</speed>
  <fix>3d</fix>
</trkpt>
<trkpt lat="40.0713744" lon="-105.2297913">
  <ele>1582.96</ele>
  <time>2026-08-28T17:51:32Z</time>
  <course>252.59</course>
  <speed>0.3420526275297414</speed>
  <fix>3d</fix>
</trkpt>
<trkpt lat="40.0713745" lon="-105.2297906">
  <ele>1583.0</ele>
  <time>2026-08-28T17:51:32Z</time>
  <course>249.7</course>
  <speed>0.29</speed>
  <fix>3d</fix>
</trkpt>
<trkpt lat="40.0713743" lon="-105.2297917">
  <ele>1582.96</ele>
  <time>2026-08-28T17:51:32Z</time>
  <course>253.44</course>
  <speed>0.36138621999185305</speed>
  <fix>3d</fix>
</trkpt>
<trkpt lat="40.0713743" lon="-105.2297912">
  <ele>1583.0</ele>
  <time>2026-08-28T17:51:32Z</time>
  <course>251.24</course>
  <speed>0.34</speed>
  <fix>3d</fix>
</trkpt>
<trkpt lat="40.0713742" lon="-105.2297921">
  <ele>1582.96</ele>
  <time>2026-08-28T17:51:32Z</time>
  <course>254.36</course>
  <speed>0.383275357934736</speed>
  <fix>3d</fix>
</trkpt>
<trkpt lat="40.0713743" lon="-105.2297912">
  <ele>1583.0</ele>
  <time>2026-08-28T17:51:32Z</time>
  <course>251.24</course>
  <speed>0.34</speed>
  <fix>3d</fix>
</trkpt>
<trkpt lat="40.0713741" lon="-105.2297926">
  <ele>1582.97</ele>
  <time>2026-08-28T17:51:32Z</time>
  <course>255.32</course>
  <speed>0.4026164427839479</speed>
  <fix>3d</fix>
</trkpt>
<trkpt lat="40.0713741" lon="-105.2297921">
  <ele>1583.0</ele>
  <time>2026-08-28T17:51:32Z</time>
  <course>253.01</course>
  <speed>0.38</speed>
  <fix>3d</fix>
</trkpt>
<trkpt lat="40.071374" lon="-105.2297931">
  <ele>1582.97</ele>
  <time>2026-08-28T17:51:32Z</time>
  <course>256.33</course>
  <speed>0.431740662898458</speed>
  <fix>3d</fix>
</trkpt>
<trkpt lat="40.0713741" lon="-105.2297921">
  <ele>1583.0</ele>
  <time>2026-08-28T17:51:32Z</time>
  <course>253.01</course>
  <speed>0.38</speed>
  <fix>3d</fix>
</trkpt>
<trkpt lat="40.0713739" lon="-105.2297936">
  <ele>1582.97</ele>
  <time>2026-08-28T17:51:32Z</time>
  <course>257.39</course>
  <speed>0.4491102314577124</speed>
  <fix>3d</fix>
</trkpt>
<trkpt lat="40.0713739" lon="-105.229793">
  <ele>1583.0</ele>
  <time>2026-08-28T17:51:32Z</time>
  <course>254.99</course>
  <speed>0.42</speed>
  <fix>3d</fix>
</trkpt>
<trkpt lat="40.0713738" lon="-105.2297942">
  <ele>1582.97</ele>
  <time>2026-08-28T17:51:32Z</time>
  <course>258.48</course>
  <speed>0.4687216658103186</speed>
  <fix>3d</fix>
</trkpt>
<trkpt lat="40.0713739" lon="-105.229793">
  <ele>1583.0</ele>
  <time>2026-08-28T17:51:32Z</time>
  <course>254.99</course>
  <speed>0.42</speed>
  <fix>3d</fix>
</trkpt>
<trkpt lat="40.0713737" lon="-105.2297948">
  <ele>1582.97</ele>
  <time>2026-08-28T17:51:32Z</time>
  <course>259.85</course>
  <speed>0.48662100242385753</speed>
  <fix>3d</fix>
</trkpt>
<trkpt lat="40.0713737" lon="-105.229794">
  <ele>1583.0</ele>
  <time>2026-08-28T17:51:32Z</time>
  <course>257.14</course>
  <speed>0.46</speed>
  <fix>3d</fix>
</trkpt>
<trkpt lat="40.0713736" lon="-105.2297954">
  <ele>1582.97</ele>
  <time>2026-08-28T17:51:32Z</time>
  <course>261.04</course>
  <speed>0.5063595560468865</speed>
  <fix>3d</fix>
</trkpt>
<trkpt lat="40.0713737" lon="-105.229794">
  <ele>1583.0</ele>
  <time>2026-08-28T17:51:32Z</time>
  <course>257.14</course>
  <speed>0.46</speed>
  <fix>3d</fix>
</trkpt>
<trkpt lat="40.0713735" lon="-105.229796">
  <ele>1582.97</ele>
  <time>2026-08-28T17:51:32Z</time>
  <course>262.26</course>
  <speed>0.51478150704935</speed>
  <fix>3d</fix>
</trkpt>
<trkpt lat="40.0713736" lon="-105.2297951">
  <ele>1583.0</ele>
  <time>2026-08-28T17:51:32Z</time>
  <course>259.45</course>
  <speed>0.49</speed>
  <fix>3d</fix>
</trkpt>
<trkpt lat="40.0713734" lon="-105.2297966">
  <ele>1582.96</ele>
  <time>2026-08-28T17:51:32Z</time>
  <course>263.51</course>
  <speed>0.5333854141237835</speed>
  <fix>3d</fix>
</trkpt>
<trkpt lat="40.0713736" lon="-105.2297951">
  <ele>1583.0</ele>
  <time>2026-08-28T17:51:32Z</time>
  <course>259.45</course>
  <speed>0.49</speed>
  <fix>3d</fix>
</trkpt>
<trkpt lat="40.0713734" lon="-105.2297973">
  <ele>1582.96</ele>
  <time>2026-08-28T17:51:32Z</time>
  <course>264.8</course>
  <speed>0.54230987451825</speed>
  <fix>3d</fix>
</trkpt>
<trkpt lat="40.0713734" lon="-105.2297963">
  <ele>1583.0</ele>
  <time>2026-08-28T17:51:32Z</time>
  <course>261.92</course>
  <speed>0.52</speed>
  <fix>3d</fix>
</trkpt>
<trkpt lat="40.0713733" lon="-105.2297979">
  <ele>1582.96</ele>
  <time>2026-08-28T17:51:32Z</time>
  <course>266.12</course>
  <speed>0.561426753904728</speed>
  <fix>3d</fix>
</trkpt>
<trkpt lat="40.0713734" lon="-105.2297963">
  <ele>1583.0</ele>
  <time>2026-08-28T17:51:32Z</time>
  <course>261.92</course>
  <speed>0.52</speed>
  <fix>3d</fix>
</trkpt>
<trkpt lat="40.0713733" lon="-105.2297986">
  <ele>1582.96</ele>
  <time>2026-08-28T17:51:32Z</time>
  <course>267.47</course>
  <speed>0.5707889277132134</speed>
  <fix>3d</fix>
</trkpt>
<trkpt lat="40.0713733" lon="-105.2297975">
  <ele>1583.0</ele>
  <time>2026-08-28T17:51:32Z</time>
  <course>264.52</course>
  <speed>0.55</speed>
  <fix>3d</fix>
</trkpt>
<trkpt lat="40.0713733" lon="-105.2297992">
  <ele>1582.96</ele>
  <time>2026-08-28T17:51:32Z</time>
  <course>268.85</course>
  <speed>0.5800862004909271</speed>
  <fix>3d</fix>
</trkpt>
<trkpt lat="40.0713733" lon="-105.2297975">
  <ele>1583.0</ele>
  <time>2026-08-28T17:51:32Z</time>
  <course>264.52</course>
  <speed>0.55</speed>
  <fix>3d</fix>
</trkpt>
<trkpt lat="40.0713732" lon="-105.2297999">
  <ele>1582.96</ele>
  <time>2026-08-28T17:51:32Z</time>
  <course>270.25</course>
  <speed>0.59</speed>
  <fix>3d</fix>
</trkpt>
<trkpt lat="40.0713732" lon="-105.2297988">
  <ele>1583.0</ele>
  <time>2026-08-28T17:51:32Z</time>
  <course>267.24</course>
  <speed>0.57</speed>
  <fix>3d</fix>
</trkpt>
<trkpt lat="40.0713732" lon="-105.2298006">
  <ele>1582.96</ele>
  <time>2026-08-28T17:51:32Z</time>
  <course>271.68</course>
  <speed>0.6000833275470999</speed>
  <fix>3d</fix>
</trkpt>
<trkpt lat="40.0713732" lon="-105.2297988">
  <ele>1583.0</ele>
  <time>2026-08-28T17:51:32Z</time>
  <course>267.24</course>
  <speed>0.57</speed>
  <fix>3d</fix>
</trkpt>
<trkpt lat="40.0713733" lon="-105.2298013">
  <ele>1582.96</ele>
  <time>2026-08-28T17:51:32Z</time>
  <course>273.15</course>
  <speed>0.6103277807866851</speed>
  <fix>3d</fix>
</trkpt>
<trkpt lat="40.0713731" lon="-105.2298002">
  <ele>1583.0</ele>
  <time>2026-08-28T17:51:32Z</time>
  <course>270.07</course>
  <speed>0.59</speed>
  <fix>3d</fix>
</trkpt>
<trkpt lat="40.0713733" lon="-105.2298018">
  <ele>1582.95</ele>
  <time>2026-08-28T17:51:32Z</time>
  <course>274.33</course>
  <speed>0.6207253821135398</speed>
  <fix>3d</fix>
</trkpt>
<trkpt lat="40.0713731" lon="-105.2298002">
  <ele>1583.0</ele>
  <time>2026-08-28T17:51:32Z</time>
  <course>270.07</course>
  <speed>0.59</speed>
  <fix>3d</fix>
</trkpt>
<trkpt lat="40.0713733" lon="-105.2298026">
  <ele>1582.95</ele>
  <time>2026-08-28T17:51:32Z</time>
  <course>275.83</course>
  <speed>0.6220128616033594</speed>
  <fix>3d</fix>
</trkpt>
<trkpt lat="40.0713731" lon="-105.2298017">
  <ele>1583.0</ele>
  <time>2026-08-28T17:51:32Z</time>
  <course>273.0</course>
  <speed>0.61</speed>
  <fix>3d</fix>
</trkpt>
<trkpt lat="40.0713734" lon="-105.2298033">
  <ele>1582.95</ele>
  <time>2026-08-28T17:51:32Z</time>
  <course>277.34</course>
  <speed>0.6338769596696191</speed>
  <fix>3d</fix>
</trkpt>
<trkpt lat="40.0713731" lon="-105.2298017">
  <ele>1583.0</ele>
  <time>2026-08-28T17:51:32Z</time>
  <course>273.0</course>
  <speed>0.61</speed>
  <fix>3d</fix>
</trkpt>
<trkpt lat="40.0713734" lon="-105.229804">
  <ele>1582.95</ele>
  <time>2026-08-28T17:51:32Z</time>
  <course>278.87</course>
  <speed>0.646297145282261</speed>
  <fix>3d</fix>
</trkpt>
<trkpt lat="40.0713732" lon="-105.2298031">
  <ele>1583.0</ele>
  <time>2026-08-28T17:51:32Z</time>
  <course>276.02</course>
  <speed>0.63</speed>
  <fix>3d</fix>
</trkpt>
<trkpt lat="40.0713734" lon="-105.2298048">
  <ele>1582.95</ele>
  <time>2026-08-28T17:51:32Z</time>
  <course>280.43</course>
  <speed>0.6477653896280658</speed>
  <fix>3d</fix>
</trkpt>
<trkpt lat="40.0713732" lon="-105.2298031">
  <ele>1583.0</ele>
  <time>2026-08-28T17:51:32Z</time>
  <course>276.02</course>
  <speed>0.63</speed>
  <fix>3d</fix>
</trkpt>
<trkpt lat="40.0713735" lon="-105.2298056">
  <ele>1582.95</ele>
  <time>2026-08-28T17:51:32Z</time>
  <course>282.0</course>
  <speed>0.6609841147864296</speed>
  <fix>3d</fix>
</trkpt>
<trkpt lat="40.0713734" lon="-105.2298046">
  <ele>1583.0</ele>
  <time>2026-08-28T17:51:32Z</time>
  <course>279.12</course>
  <speed>0.64</speed>
  <fix>3d</fix>
</trkpt>
<trkpt lat="40.0713736" lon="-105.2298063">
  <ele>1582.94</ele>
  <time>2026-08-28T17:51:32Z</time>
  <course>283.6</course>
  <speed>0.6649060083951716</speed>
  <fix>3d</fix>
</trkpt>
<trkpt lat="40.0713734" lon="-105.2298046">
  <ele>1583.0</ele>
  <time>2026-08-28T17:51:32Z</time>
  <course>279.12</course>
  <speed>0.64</speed>
  <fix>3d</fix>
</trkpt>
<trkpt lat="40.0713738" lon="-105.2298071">
  <ele>1582.94</ele>
  <time>2026-08-28T17:51:32Z</time>
  <course>285.22</course>
  <speed>0.6694027188471824</speed>
  <fix>3d</fix>
</trkpt>
<trkpt lat="40.0713736" lon="-105.2298061">
  <ele>1583.0</ele>
  <time>2026-08-28T17:51:32Z</time>
  <course>282.29</course>
  <speed>0.66</speed>
  <fix>3d</fix>
</trkpt>
<trkpt lat="40.0713739" lon="-105.2298079">
  <ele>1582.94</ele>
  <time>2026-08-28T17:51:32Z</time>
  <course>286.84</course>
  <speed>0.6744627491566899</speed>
  <fix>3d</fix>
</trkpt>
<trkpt lat="40.0713736" lon="-105.2298061">
  <ele>1583.0</ele>
  <time>2026-08-28T17:51:32Z</time>
  <course>282.29</course>
  <speed>0.66</speed>
  <fix>3d</fix>
</trkpt>
<trkpt lat="40.0713741" lon="-105.2298088">
  <ele>1582.94</ele>
  <time>2026-08-28T17:51:32Z</time>
  <course>288.82</course>
  <speed>0.6830812543175226</speed>
  <fix>3d</fix>
</trkpt>
<trkpt lat="40.0713739" lon="-105.2298076">
  <ele>1583.0</ele>
  <time>2026-08-28T17:51:32Z</time>
  <course>285.53</course>
  <speed>0.67</speed>
  <fix>3d</fix>
</trkpt>
<trkpt lat="40.0713743" lon="-105.2298096">
  <ele>1582.95</ele>
  <time>2026-08-28T17:51:32Z</time>
  <course>290.47</course>
  <speed>0.6894925670375279</speed>
  <fix>3d</fix>
</trkpt>
<trkpt lat="40.0713739" lon="-105.2298076">
  <ele>1583.0</ele>
  <time>2026-08-28T17:51:32Z</time>
  <course>285.53</course>
  <speed>0.67</speed>
  <fix>3d</fix>
</trkpt>
<trkpt lat="40.0713746" lon="-105.2298103">
  <ele>1582.94</ele>
  <time>2026-08-28T17:51:32Z</time>
  <course>292.15</course>
  <speed>0.696419413859206</speed>
  <fix>3d</fix>
</trkpt>
<trkpt lat="40.0713743" lon="-105.2298092">
  <ele>1583.0</ele>
  <time>2026-08-28T17:51:32Z</time>
  <course>288.83</course>
  <speed>0.68</speed>
  <fix>3d</fix>
</trkpt>
<trkpt lat="40.0713748" lon="-105.2298111">
  <ele>1582.94</ele>
  <time>2026-08-28T17:51:32Z</time>
  <course>293.83</course>
  <speed>0.7038465741907111</speed>
  <fix>3d</fix>
</trkpt>
<trkpt lat="40.0713743" lon="-105.2298092">
  <ele>1583.0</ele>
  <time>2026-08-28T17:51:32Z</time>
  <course>288.83</course>
  <speed>0.68</speed>
  <fix>3d</fix>
</trkpt>
<trkpt lat="40.0713751" lon="-105.2298119">
  <ele>1582.94</ele>
  <time>2026-08-28T17:51:32Z</time>
  <course>295.53</course>
  <speed>0.7068238818828917</speed>
  <fix>3d</fix>
</trkpt>
<trkpt lat="40.0713746" lon="-105.2298107">
  <ele>1583.0</ele>
  <time>2026-08-28T17:51:32Z</time>
  <course>292.18</course>
  <speed>0.69</speed>
  <fix>3d</fix>
</trkpt>
<trkpt lat="40.0713753" lon="-105.2298126">
  <ele>1582.94</ele>
  <time>2026-08-28T17:51:32Z</time>
  <course>297.23</course>
  <speed>0.7155417527999327</speed>
  <fix>3d</fix>
</trkpt>
<trkpt lat="40.0713746" lon="-105.2298107">
  <ele>1583.0</ele>
  <time>2026-08-28T17:51:32Z</time>
  <course>292.18</course>
  <speed>0.69</speed>
  <fix>3d</fix>
</trkpt>
<trkpt lat="40.0713756" lon="-105.2298134">
  <ele>1582.95</ele>
  <time>2026-08-28T17:51:32Z</time>
  <course>298.95</course>
  <speed>0.7158910531638176</speed>
  <fix>3d</fix>
</trkpt>
<trkpt lat="40.0713751" lon="-105.2298122">
  <ele>1583.0</ele>
  <time>2026-08-28T17:51:32Z</time>
  <course>295.59</course>
  <speed>0.7</speed>
  <fix>3d</fix>
</trkpt>
<trkpt lat="40.0713759" lon="-105.2298141">
  <ele>1582.95</ele>
  <time>2026-08-28T17:51:32Z</time>
  <course>300.68</course>
  <speed>0.7169379331573968</speed>
  <fix>3d</fix>
</trkpt>
<trkpt lat="40.0713751" lon="-105.2298122">
  <ele>1583.0</ele>
  <time>2026-08-28T17:51:32Z</time>
  <course>295.59</course>
  <speed>0.7</speed>
  <fix>3d</fix>
</trkpt>
<trkpt lat="40.0713763" lon="-105.2298148">
  <ele>1582.95</ele>
  <time>2026-08-28T17:51:32Z</time>
  <course>302.42</course>
  <speed>0.7271863585079137</speed>
  <fix>3d</fix>
</trkpt>
<trkpt lat="40.0713758" lon="-105.2298137">
  <ele>1583.0</ele>
  <time>2026-08-28T17:51:32Z</time>
  <course>299.05</course>
  <speed>0.71</speed>
  <fix>3d</fix>
</trkpt>
<trkpt lat="40.0713766" lon="-105.2298155">
  <ele>1582.95</ele>
  <time>2026-08-28T17:51:32Z</time>
  <course>304.17</course>
  <speed>0.7294518489934754</speed>
  <fix>3d</fix>
</trkpt>
<trkpt lat="40.0713758" lon="-105.2298137">
  <ele>1583.0</ele>
  <time>2026-08-28T17:51:32Z</time>
  <course>299.05</course>
  <speed>0.71</speed>
  <fix>3d</fix>
</trkpt>
<trkpt lat="40.071377" lon="-105.2298162">
  <ele>1582.95</ele>
  <time>2026-08-28T17:51:32Z</time>
  <course>305.93</course>
  <speed>0.7323933369440222</speed>
  <fix>3d</fix>
</trkpt>
<trkpt lat="40.0713764" lon="-105.2298151">
  <ele>1583.0</ele>
  <time>2026-08-28T17:51:32Z</time>
  <course>302.53</course>
  <speed>0.72</speed>
  <fix>3d</fix>
</trkpt>
<trkpt lat="40.0713774" lon="-105.2298169">
  <ele>1582.95</ele>
  <time>2026-08-28T17:51:32Z</time>
  <course>307.71</course>
  <speed>0.7360027173862879</speed>
  <fix>3d</fix>
</trkpt>
<trkpt lat="40.0713764" lon="-105.2298151">
  <ele>1583.0</ele>
  <time>2026-08-28T17:51:32Z</time>
  <course>302.53</course>
  <speed>0.72</speed>
  <fix>3d</fix>
</trkpt>
<trkpt lat="40.0713777" lon="-105.2298175">
  <ele>1582.95</ele>
  <time>2026-08-28T17:51:32Z</time>
  <course>309.13</course>
  <speed>0.7402702209328699</speed>
  <fix>3d</fix>
</trkpt>
<trkpt lat="40.0713772" lon="-105.2298165">
  <ele>1583.0</ele>
  <time>2026-08-28T17:51:32Z</time>
  <course>306.06</course>
  <speed>0.73</speed>
  <fix>3d</fix>
</trkpt>
<trkpt lat="40.0713781" lon="-105.2298181">
  <ele>1582.95</ele>
  <time>2026-08-28T17:51:32Z</time>
  <course>310.92</course>
  <speed>0.737563556583431</speed>
  <fix>3d</fix>
</trkpt>
<trkpt lat="40.0713772" lon="-105.2298165">
  <ele>1583.0</ele>
  <time>2026-08-28T17:51:32Z</time>
  <course>306.06</course>
  <speed>0.73</speed>
  <fix>3d</fix>
</trkpt>
<trkpt lat="40.0713785" lon="-105.2298188">
  <ele>1582.95</ele>
  <time>2026-08-28T17:51:32Z</time>
  <course>312.7</course>
  <speed>0.7433034373659253</speed>
  <fix>3d</fix>
</trkpt>
<trkpt lat="40.0713779" lon="-105.2298179">
  <ele>1583.0</ele>
  <time>2026-08-28T17:51:32Z</time>
  <course>309.62</course>
  <speed>0.73</speed>
  <fix>3d</fix>
</trkpt>
<trkpt lat="40.071379" lon="-105.2298194">
  <ele>1582.95</ele>
  <time>2026-08-28T17:51:32Z</time>
  <course>314.49</course>
  <speed>0.7496665925596525</speed>
  <fix>3d</fix>
</trkpt>
<trkpt lat="40.0713779" lon="-105.2298179">
  <ele>1583.0</ele>
  <time>2026-08-28T17:51:32Z</time>
  <course>309.62</course>
  <speed>0.73</speed>
  <fix>3d</fix>
</trkpt>
<trkpt lat="40.0713795" lon="-105.22982">
  <ele>1582.95</ele>
  <time>2026-08-28T17:51:32Z</time>
  <course>316.29</course>
  <speed>0.7496665925596525</speed>
  <fix>3d</fix>
</trkpt>
<trkpt lat="40.0713788" lon="-105.2298192">
  <ele>1583.0</ele>
  <time>2026-08-28T17:51:32Z</time>
  <course>313.21</course>
  <speed>0.74</speed>
  <fix>3d</fix>
</trkpt>
<trkpt lat="40.07138" lon="-105.2298206">
  <ele>1582.95</ele>
  <time>2026-08-28T17:51:32Z</time>
  <course>318.1</course>
  <speed>0.757429864739964</speed>
  <fix>3d</fix>
</trkpt>
<trkpt lat="40.0713788" lon="-105.2298192">
  <ele>1583.0</ele>
  <time>2026-08-28T17:51:32Z</time>
  <course>313.21</course>
  <speed>0.74</speed>
  <fix>3d</fix>
</trkpt>
<trkpt lat="40.0713805" lon="-105.2298212">
  <ele>1582.95</ele>
  <time>2026-08-28T17:51:32Z</time>
  <course>319.91</course>
  <speed>0.7592759709091287</speed>
  <fix>3d</fix>
</trkpt>
<trkpt lat="40.0713798" lon="-105.2298204">
  <ele>1583.0</ele>
  <time>2026-08-28T17:51:32Z</time>
  <course>316.82</course>
  <speed>0.74</speed>
  <fix>3d</fix>
</trkpt>
<trkpt lat="40.071381" lon="-105.2298218">
  <ele>1582.95</ele>
  <time>2026-08-28T17:51:32Z</time>
  <course>321.75</course>
  <speed>0.7621679604916491</speed>
  <fix>3d</fix>
</trkpt>
<trkpt lat="40.0713798" lon="-105.2298204">
  <ele>1583.0</ele>
  <time>2026-08-28T17:51:32Z</time>
  <course>316.82</course>
  <speed>0.74</speed>
  <fix>3d</fix>
</trkpt>
<trkpt lat="40.0713815" lon="-105.2298223">
  <ele>1582.95</ele>
  <time>2026-08-28T17:51:32Z</time>
  <course>323.58</course>
  <speed>0.758023746329889</speed>
  <fix>3d</fix>
</trkpt>
<trkpt lat="40.0713808" lon="-105.2298216">
  <ele>1583.0</ele>
  <time>2026-08-28T17:51:32Z</time>
  <course>320.46</course>
  <speed>0.75</speed>
  <fix>3d</fix>
</trkpt>
<trkpt lat="40.0713822" lon="-105.229823">
  <ele>1582.95</ele>
  <time>2026-08-28T17:51:32Z</time>
  <course>325.78</course>
  <speed>0.7627581530209953</speed>
  <fix>3d</fix>
</trkpt>
<trkpt lat="40.0713808" lon="-105.2298216">
  <ele>1583.0</ele>
  <time>2026-08-28T17:51:32Z</time>
  <course>320.46</course>
  <speed>0.75</speed>
  <fix>3d</fix>
</trkpt>
<trkpt lat="40.0713828" lon="-105.2298235">
  <ele>1582.95</ele>
  <time>2026-08-28T17:51:32Z</time>
  <course>327.61</course>
  <speed>0.768505042273634</speed>
  <fix>3d</fix>
</trkpt>
<trkpt lat="40.0713819" lon="-105.2298227">
  <ele>1583.0</ele>
  <time>2026-08-28T17:51:32Z</time>
  <course>324.12</course>
  <speed>0.75</speed>
  <fix>3d</fix>
</trkpt>
<trkpt lat="40.0713834" lon="-105.2298239">
  <ele>1582.95</ele>
  <time>2026-08-28T17:51:32Z</time>
  <course>329.46</course>
  <speed>0.7752418977325722</speed>
  <fix>3d</fix>
</trkpt>
<trkpt lat="40.0713819" lon="-105.2298227">
  <ele>1583.0</ele>
  <time>2026-08-28T17:51:32Z</time>
  <course>324.12</course>
  <speed>0.75</speed>
  <fix>3d</fix>
</trkpt>
<trkpt lat="40.071384" lon="-105.2298244">
  <ele>1582.95</ele>
  <time>2026-08-28T17:51:32Z</time>
  <course>331.31</course>
  <speed>0.7741446893184762</speed>
  <fix>3d</fix>
</trkpt>
<trkpt lat="40.071383" lon="-105.2298237">
  <ele>1583.0</ele>
  <time>2026-08-28T17:51:32Z</time>
  <course>327.8</course>
  <speed>0.76</speed>
  <fix>3d</fix>
</trkpt>
<trkpt lat="40.0713846" lon="-105.2298248">
  <ele>1582.96</ele>
  <time>2026-08-28T17:51:32Z</time>
  <course>333.16</course>
  <speed>0.773692445355388</speed>
  <fix>3d</fix>
</trkpt>
<trkpt lat="40.071383" lon="-105.2298237">
  <ele>1583.0</ele>
  <time>2026-08-28T17:51:32Z</time>
  <course>327.8</course>
  <speed>0.76</speed>
  <fix>3d</fix>
</trkpt>
<trkpt lat="40.0713852" lon="-105.2298252">
  <ele>1582.96</ele>
  <time>2026-08-28T17:51:32Z</time>
  <course>335.01</course>
  <speed>0.7829431652425353</speed>
  <fix>3d</fix>
</trkpt>
<trkpt lat="40.0713842" lon="-105.2298246">
  <ele>1583.0</ele>
  <time>2026-08-28T17:51:32Z</time>
  <course>331.51</course>
  <speed>0.76</speed>
  <fix>3d</fix>
</trkpt>
<trkpt lat="40.0713858" lon="-105.2298256">
  <ele>1582.96</ele>
  <time>2026-08-28T17:51:32Z</time>
  <course>336.87</course>
  <speed>0.7839005038906405</speed>
  <fix>3d</fix>
</trkpt>
<trkpt lat="40.0713842" lon="-105.2298246">
  <ele>1583.0</ele>
  <time>2026-08-28T17:51:32Z</time>
  <course>331.51</course>
  <speed>0.76</speed>
  <fix>3d</fix>
</trkpt>
<trkpt lat="40.0713865" lon="-105.2298259">
  <ele>1582.96</ele>
  <time>2026-08-28T17:51:32Z</time>
  <course>338.74</course>
  <speed>0.7818567643756751</speed>
  <fix>3d</fix>
</trkpt>
<trkpt lat="40.0713854" lon="-105.2298254">
  <ele>1583.0</ele>
  <time>2026-08-28T17:51:32Z</time>
  <course>335.23</course>
  <speed>0.76</speed>
  <fix>3d</fix>
</trkpt>
<trkpt lat="40.0713871" lon="-105.2298262">
  <ele>1582.96</ele>
  <time>2026-08-28T17:51:32Z</time>
  <course>340.61</course>
  <speed>0.7843468620451032</speed>
  <fix>3d</fix>
</trkpt>
<trkpt lat="40.0713854" lon="-105.2298254">
  <ele>1583.0</ele>
  <time>2026-08-28T17:51:32Z</time>
  <course>335.23</course>
  <speed>0.76</speed>
  <fix>3d</fix>
</trkpt>
<trkpt lat="40.0713878" lon="-105.2298265">
  <ele>1582.96</ele>
  <time>2026-08-28T17:51:32Z</time>
  <course>342.48</course>
  <speed>0.7874642849044012</speed>
  <fix>3d</fix>
</trkpt>
<trkpt lat="40.0713867" lon="-105.2298261">
  <ele>1583.0</ele>
  <time>2026-08-28T17:51:32Z</time>
  <course>338.96</course>
  <speed>0.77</speed>
  <fix>3d</fix>
</trkpt>
<trkpt lat="40.0713884" lon="-105.2298268">
  <ele>1582.96</ele>
  <time>2026-08-28T17:51:32Z</time>
  <course>344.35</course>
  <speed>0.7884795495128583</speed>
  <fix>3d</fix>
</trkpt>
<trkpt lat="40.0713867" lon="-105.2298261">
  <ele>1583.0</ele>
  <time>2026-08-28T17:51:32Z</time>
  <course>338.96</course>
  <speed>0.77</speed>
  <fix>3d</fix>
</trkpt>
<trkpt lat="40.071389" lon="-105.229827">
  <ele>1582.96</ele>
  <time>2026-08-28T17:51:32Z</time>
  <course>345.87</course>
  <speed>0.7833900688673555</speed>
  <fix>3d</fix>
</trkpt>
<trkpt lat="40.071388" lon="-105.2298267">
  <ele>1583.0</ele>
  <time>2026-08-28T17:51:32Z</time>
  <course>342.71</course>
  <speed>0.77</speed>
  <fix>3d</fix>
</trkpt>
<trkpt lat="40.0713896" lon="-105.2298272">
  <ele>1582.97</ele>
  <time>2026-08-28T17:51:32Z</time>
  <course>347.75</course>
  <speed>0.7885429601486529</speed>
  <fix>3d</fix>
</trkpt>
<trkpt lat="40.071388" lon="-105.2298267">
  <ele>1583.0</ele>
  <time>2026-08-28T17:51:32Z</time>
  <course>342.71</course>
  <speed>0.77</speed>
  <fix>3d</fix>
</trkpt>
<trkpt lat="40.0713903" lon="-105.2298274">
  <ele>1582.97</ele>
  <time>2026-08-28T17:51:32Z</time>
  <course>349.63</course>
  <speed>0.792464510246358</speed>
  <fix>3d</fix>
</trkpt>
<trkpt lat="40.0713894" lon="-105.2298272">
  <ele>1583.0</ele>
  <time>2026-08-28T17:51:32Z</time>
  <course>346.47</course>
  <speed>0.77</speed>
  <fix>3d</fix>
</trkpt>
<trkpt lat="40.071391" lon="-105.2298275">
  <ele>1582.97</ele>
  <time>2026-08-28T17:51:32Z</time>
  <course>351.5</course>
  <speed>0.7891767862779544</speed>
  <fix>3d</fix>
</trkpt>
<trkpt lat="40.0713894" lon="-105.2298272">
  <ele>1583.0</ele>
  <time>2026-08-28T17:51:32Z</time>
  <course>346.47</course>
  <speed>0.77</speed>
  <fix>3d</fix>
</trkpt>
<trkpt lat="40.0713917" lon="-105.2298277">
  <ele>1582.97</ele>
  <time>2026-08-28T17:51:32Z</time>
  <course>353.39</course>
  <speed>0.7951100552753688</speed>
  <fix>3d</fix>
</trkpt>
<trkpt lat="40.0713907" lon="-105.2298276">
  <ele>1583.0</ele>
  <time>2026-08-28T17:51:32Z</time>
  <course>350.23</course>
  <speed>0.77</speed>
  <fix>3d</fix>
</trkpt>
<trkpt lat="40.0713924" lon="-105.2298278">
  <ele>1582.98</ele>
  <time>2026-08-28T17:51:32Z</time>
  <course>355.27</course>
  <speed>0.7930952023559341</speed>
  <fix>3d</fix>
</trkpt>
<trkpt lat="40.0713907" lon="-105.2298276">
  <ele>1583.0</ele>
  <time>2026-08-28T17:51:32Z</time>
  <course>350.23</course>
  <speed>0.77</speed>
  <fix>3d</fix>
</trkpt>
<trkpt lat="40.0713931" lon="-105.2298278">
  <ele>1582.98</ele>
  <time>2026-08-28T17:51:32Z</time>
  <course>357.17</course>
  <speed>0.7910120100226039</speed>
  <fix>3d</fix>
</trkpt>
<trkpt lat="40.0713922" lon="-105.2298279">
  <ele>1583.0</ele>
  <time>2026-08-28T17:51:32Z</time>
  <course>354.01</course>
  <speed>0.78</speed>
  <fix>3d</fix>
</trkpt>
<trkpt lat="40.0713938" lon="-105.2298279">
  <ele>1582.98</ele>
  <time>2026-08-28T17:51:32Z</time>
  <course>359.06</course>
  <speed>0.8000624975587844</speed>
  <fix>3d</fix>
</trkpt>
<trkpt lat="40.0713922" lon="-105.2298279">
  <ele>1583.0</ele>
  <time>2026-08-28T17:51:32Z</time>
  <course>354.01</course>
  <speed>0.78</speed>
  <fix>3d</fix>
</trkpt>
<trkpt lat="40.0713945" lon="-105.2298279">
  <ele>1582.98</ele>
  <time>2026-08-28T17:51:32Z</time>
  <course>0.96</course>
  <speed>0.8</speed>
  <fix>3d</fix>
</trkpt>
<trkpt lat="40.0713936" lon="-105.229828">
  <ele>1583.0</ele>
  <time>2026-08-28T17:51:32Z</time>
  <course>357.8</course>
  <speed>0.78</speed>
  <fix>3d</fix>
</trkpt>
<trkpt lat="40.0713953" lon="-105.2298279">
  <ele>1582.98</ele>
  <time>2026-08-28T17:51:32Z</time>
  <course>2.86</course>
  <speed>0.8005623023850174</speed>
  <fix>3d</fix>
</trkpt>
<trkpt lat="40.0713936" lon="-105.229828">
  <ele>1583.0</ele>
  <time>2026-08-28T17:51:32Z</time>
  <course>357.8</course>
  <speed>0.78</speed>
  <fix>3d</fix>
</trkpt>
<trkpt lat="40.0713961" lon="-105.2298278">
  <ele>1582.98</ele>
  <time>2026-08-28T17:51:32Z</time>
  <course>5.14</course>
  <speed>0.8022468448052632</speed>
  <fix>3d</fix>
</trkpt>
<trkpt lat="40.0713949" lon="-105.229828">
  <ele>1583.0</ele>
  <time>2026-08-28T17:51:32Z</time>
  <course>1.59</course>
  <speed>0.78</speed>
  <fix>3d</fix>
</trkpt>
<trkpt lat="40.0713968" lon="-105.2298277">
  <ele>1582.98</ele>
  <time>2026-08-28T17:51:32Z</time>
  <course>7.03</course>
  <speed>0.7840918313565064</speed>
  <fix>3d</fix>
</trkpt>
<trkpt lat="40.0713949" lon="-105.229828">
  <ele>1583.0</ele>
  <time>2026-08-28T17:51:32Z</time>
  <course>1.59</course>
  <speed>0.78</speed>
  <fix>3d</fix>
</trkpt>
<trkpt lat="40.0713975" lon="-105.2298276">
  <ele>1582.98</ele>
  <time>2026-08-28T17:51:32Z</time>
  <course>8.84</course>
  <speed>0.7467261881037789</speed>
  <fix>3d</fix>
</trkpt>
<trkpt lat="40.0713963" lon="-105.2298279">
  <ele>1583.0</ele>
  <time>2026-08-28T17:51:32Z</time>
  <course>5.29</course>
  <speed>0.76</speed>
  <fix>3d</fix>
</trkpt>
<trkpt lat="40.0713981" lon="-105.2298275">
  <ele>1582.98</ele>
  <time>2026-08-28T17:51:32Z</time>
  <course>9.89</course>
  <speed>0.708590149522275</speed>
  <fix>3d</fix>
</trkpt>
<trkpt lat="40.0713963" lon="-105.2298279">
  <ele>1583.0</ele>
  <time>2026-08-28T17:51:32Z</time>
  <course>5.29</course>
  <speed>0.76</speed>
  <fix>3d</fix>
</trkpt>
<trkpt lat="40.0713987" lon="-105.2298275">
  <ele>1582.98</ele>
  <time>2026-08-28T17:51:32Z</time>
  <course>9.89</course>
  <speed>0.6675327707311455</speed>
  <fix>3d</fix>
</trkpt>
<trkpt lat="40.0713976" lon="-105.2298278">
  <ele>1583.0</ele>
  <time>2026-08-28T17:51:32Z</time>
  <course>7.88</course>
  <speed>0.7</speed>
  <fix>3d</fix>
</trkpt>
<trkpt lat="40.0713993" lon="-105.2298274">
  <ele>1582.98</ele>
  <time>2026-08-28T17:51:32Z</time>
  <course>9.89</course>
  <speed>0.6477653896280658</speed>
  <fix>3d</fix>
</trkpt>
<trkpt lat="40.0713976" lon="-105.2298278">
  <ele>1583.0</ele>
  <time>2026-08-28T17:51:32Z</time>
  <course>7.88</course>
  <speed>0.7</speed>
  <fix>3d</fix>
</trkpt>
<trkpt lat="40.0713998" lon="-105.2298273">
  <ele>1582.97</ele>
  <time>2026-08-28T17:51:32Z</time>
  <course>9.89</course>
  <speed>0.7184705978674423</speed>
  <fix>3d</fix>
</trkpt>
<trkpt lat="40.0713989" lon="-105.2298275">
  <ele>1583.0</ele>
  <time>2026-08-28T17:51:32Z</time>
  <course>8.61</course>
  <speed>0.67</speed>
  <fix>3d</fix>
</trkpt>
<trkpt lat="40.0714005" lon="-105.2298271">
  <ele>1582.97</ele>
  <time>2026-08-28T17:51:32Z</time>
  <course>9.89</course>
  <speed>0.8811923740024082</speed>
  <fix>3d</fix>
</trkpt>
<trkpt lat="40.0713989" lon="-105.2298275">
  <ele>1583.0</ele>
  <time>2026-08-28T17:51:32Z</time>
  <course>8.61</course>
  <speed>0.67</speed>
  <fix>3d</fix>
</trkpt>
<trkpt lat="40.0714014" lon="-105.2298269">
  <ele>1582.97</ele>
  <time>2026-08-28T17:51:32Z</time>
  <course>9.89</course>
  <speed>1.1244998888394786</speed>
  <fix>3d</fix>
</trkpt>
<trkpt lat="40.0714002" lon="-105.2298272">
  <ele>1583.0</ele>
  <time>2026-08-28T17:51:32Z</time>
  <course>8.61</course>
  <speed>0.87</speed>
  <fix>3d</fix>
</trkpt>
<trkpt lat="40.0714025" lon="-105.2298267">
  <ele>1582.97</ele>
  <time>2026-08-28T17:51:32Z</time>
  <course>9.89</course>
  <speed>1.4286357128393508</speed>
  <fix>3d</fix>
</trkpt>
<trkpt lat="40.0714002" lon="-105.2298272">
  <ele>1583.0</ele>
  <time>2026-08-28T17:51:32Z</time>
  <course>8.61</course>
  <speed>0.87</speed>
  <fix>3d</fix>
</trkpt>
<trkpt lat="40.0714039" lon="-105.2298264">
  <ele>1582.97</ele>
  <time>2026-08-28T17:51:32Z</time>
  <course>9.89</course>
  <speed>1.7130382365843442</speed>
  <fix>3d</fix>
</trkpt>
<trkpt lat="40.0714022" lon="-105.2298268">
  <ele>1583.0</ele>
  <time>2026-08-28T17:51:32Z</time>
  <course>8.61</course>
  <speed>1.35</speed>
  <fix>3d</fix>
</trkpt>
<trkpt lat="40.0714053" lon="-105.2298261">
  <ele>1582.97</ele>
  <time>2026-08-28T17:51:32Z</time>
  <course>9.89</course>
  <speed>1.936620768245554</speed>
  <fix>3d</fix>
</trkpt>
<trkpt lat="40.0714022" lon="-105.2298268">
  <ele>1583.0</ele>
  <time>2026-08-28T17:51:32Z</time>
  <course>8.61</course>
  <speed>1.35</speed>
  <fix>3d</fix>
</trkpt>
<trkpt lat="40.0714071" lon="-105.2298257">
  <ele>1582.97</ele>
  <time>2026-08-28T17:51:32Z</time>
  <course>9.89</course>
  <speed>2.189794510907359</speed>
  <fix>3d</fix>
</trkpt>
<trkpt lat="40.0714051" lon="-105.2298263">
  <ele>1583.0</ele>
  <time>2026-08-28T17:51:32Z</time>
  <course>8.61</course>
  <speed>1.9</speed>
  <fix>3d</fix>
</trkpt>
<trkpt lat="40.0714092" lon="-105.2298253">
  <ele>1582.97</ele>
  <time>2026-08-28T17:51:32Z</time>
  <course>9.89</course>
  <speed>2.4429695045169924</speed>
  <fix>3d</fix>
</trkpt>
<trkpt lat="40.0714051" lon="-105.2298263">
  <ele>1583.0</ele>
  <time>2026-08-28T17:51:32Z</time>
  <course>8.61</course>
  <speed>1.9</speed>
  <fix>3d</fix>
</trkpt>
<trkpt lat="40.0714115" lon="-105.2298248">
  <ele>1582.97</ele>
  <time>2026-08-28T17:51:32Z</time>
  <course>9.89</course>
  <speed>2.676415513331216</speed>
  <fix>3d</fix>
</trkpt>
<trkpt lat="40.0714089" lon="-105.2298255">
  <ele>1583.0</ele>
  <time>2026-08-28T17:51:32Z</time>
  <course>8.61</course>
  <speed>2.41</speed>
  <fix>3d</fix>
</trkpt>
<trkpt lat="40.0714141" lon="-105.2298243">
  <ele>1582.97</ele>
  <time>2026-08-28T17:51:32Z</time>
  <course>9.88</course>
  <speed>2.9098625397087057</speed>
  <fix>3d</fix>
</trkpt>
<trkpt lat="40.0714089" lon="-105.2298255">
  <ele>1583.0</ele>
  <time>2026-08-28T17:51:32Z</time>
  <course>8.61</course>
  <speed>2.41</speed>
  <fix>3d</fix>
</trkpt>
<trkpt lat="40.0714168" lon="-105.2298237">
  <ele>1582.97</ele>
  <time>2026-08-28T17:51:32Z</time>
  <course>9.87</course>
  <speed>3.1219385003551876</speed>
  <fix>3d</fix>
</trkpt>
<trkpt lat="40.0714136" lon="-105.2298246">
  <ele>1583.0</ele>
  <time>2026-08-28T17:51:32Z</time>
  <course>8.61</course>
  <speed>2.86</speed>
  <fix>3d</fix>
</trkpt>
<trkpt lat="40.0714197" lon="-105.2298231">
  <ele>1582.97</ele>
  <time>2026-08-28T17:51:32Z</time>
  <course>9.86</course>
  <speed>3.325793138485916</speed>
  <fix>3d</fix>
</trkpt>
<trkpt lat="40.0714136" lon="-105.2298246">
  <ele>1583.0</ele>
  <time>2026-08-28T17:51:32Z</time>
  <course>8.61</course>
  <speed>2.86</speed>
  <fix>3d</fix>
</trkpt>
<trkpt lat="40.0714228" lon="-105.2298225">
  <ele>1582.96</ele>
  <time>2026-08-28T17:51:32Z</time>
  <course>9.85</course>
  <speed>3.528002267572967</speed>
  <fix>3d</fix>
</trkpt>
<trkpt lat="40.0714191" lon="-105.2298235">
  <ele>1583.0</ele>
  <time>2026-08-28T17:51:32Z</time>
  <course>8.61</course>
  <speed>3.27</speed>
  <fix>3d</fix>
</trkpt>
<trkpt lat="40.0714261" lon="-105.2298218">
  <ele>1582.96</ele>
  <time>2026-08-28T17:51:32Z</time>
  <course>9.84</course>
  <speed>3.710485143481914</speed>
  <fix>3d</fix>
</trkpt>
<trkpt lat="40.0714191" lon="-105.2298235">
  <ele>1583.0</ele>
  <time>2026-08-28T17:51:32Z</time>
  <course>8.61</course>
  <speed>3.27</speed>
  <fix>3d</fix>
</trkpt>
<trkpt lat="40.0714295" lon="-105.2298211">
  <ele>1582.96</ele>
  <time>2026-08-28T17:51:32Z</time>
  <course>9.82</course>
  <speed>3.8913365313218544</speed>
  <fix>3d</fix>
</trkpt>
<trkpt lat="40.0714252" lon="-105.2298223">
  <ele>1583.0</ele>
  <time>2026-08-28T17:51:32Z</time>
  <course>8.61</course>
  <speed>3.65</speed>
  <fix>3d</fix>
</trkpt>
<trkpt lat="40.0714338" lon="-105.2298202">
  <ele>1582.96</ele>
  <time>2026-08-28T17:51:32Z</time>
  <course>9.8</course>
  <speed>4.093555911429573</speed>
  <fix>3d</fix>
</trkpt>
<trkpt lat="40.0714252" lon="-105.2298223">
  <ele>1583.0</ele>
  <time>2026-08-28T17:51:32Z</time>
  <course>8.61</course>
  <speed>3.65</speed>
  <fix>3d</fix>
</trkpt>
<trkpt lat="40.0714376" lon="-105.2298195">
  <ele>1582.95</ele>
  <time>2026-08-28T17:51:32Z</time>
  <course>9.79</course>
  <speed>4.2464337979061915</speed>
  <fix>3d</fix>
</trkpt>
<trkpt lat="40.071432" lon="-105.229821">
  <ele>1583.0</ele>
  <time>2026-08-28T17:51:32Z</time>
  <course>8.61</course>
  <speed>3.98</speed>
  <fix>3d</fix>
</trkpt>
<trkpt lat="40.0714414" lon="-105.2298187">
  <ele>1582.95</ele>
  <time>2026-08-28T17:51:32Z</time>
  <course>9.77</course>
  <speed>4.397692576795245</speed>
  <fix>3d</fix>
</trkpt>
<trkpt lat="40.071432" lon="-105.229821">
  <ele>1583.0</ele>
  <time>2026-08-28T17:51:32Z</time>
  <course>8.61</course>
  <speed>3.98</speed>
  <fix>3d</fix>
</trkpt>
<trkpt lat="40.0714454" lon="-105.2298179">
  <ele>1582.95</ele>
  <time>2026-08-28T17:51:32Z</time>
  <course>9.75</course>
  <speed>4.539085811041691</speed>
  <fix>3d</fix>
</trkpt>
<trkpt lat="40.0714394" lon="-105.2298195">
  <ele>1583.0</ele>
  <time>2026-08-28T17:51:32Z</time>
  <course>8.61</course>
  <speed>4.29</speed>
  <fix>3d</fix>
</trkpt>
<trkpt lat="40.0714495" lon="-105.2298171">
  <ele>1582.95</ele>
  <time>2026-08-28T17:51:32Z</time>
  <course>9.73</course>
  <speed>4.670610238502031</speed>
  <fix>3d</fix>
</trkpt>
<trkpt lat="40.0714394" lon="-105.2298195">
  <ele>1583.0</ele>
  <time>2026-08-28T17:51:32Z</time>
  <course>8.61</course>
  <speed>4.29</speed>
  <fix>3d</fix>
</trkpt>
<trkpt lat="40.0714538" lon="-105.2298163">
  <ele>1582.94</ele>
  <time>2026-08-28T17:51:32Z</time>
  <course>9.71</course>
  <speed>4.802134941877415</speed>
  <fix>3d</fix>
</trkpt>
<trkpt lat="40.0714473" lon="-105.229818">
  <ele>1583.0</ele>
  <time>2026-08-28T17:51:32Z</time>
  <course>8.61</course>
  <speed>4.57</speed>
  <fix>3d</fix>
</trkpt>
<trkpt lat="40.071458" lon="-105.2298154">
  <ele>1582.94</ele>
  <time>2026-08-28T17:51:32Z</time>
  <course>9.69</course>
  <speed>4.922194632478484</speed>
  <fix>3d</fix>
</trkpt>
<trkpt lat="40.0714473" lon="-105.229818">
  <ele>1583.0</ele>
  <time>2026-08-28T17:51:32Z</time>
  <course>8.61</course>
  <speed>4.57</speed>
  <fix>3d</fix>
</trkpt>
<trkpt lat="40.0714624" lon="-105.2298146">
  <ele>1582.94</ele>
  <time>2026-08-28T17:51:32Z</time>
  <course>9.68</course>
  <speed>5.033974572840034</speed>
  <fix>3d</fix>
</trkpt>
<trkpt lat="40.0714556" lon="-105.2298163">
  <ele>1583.0</ele>
  <time>2026-08-28T17:51:32Z</time>
  <course>8.61</course>
  <speed>4.82</speed>
  <fix>3d</fix>
</trkpt>
<trkpt lat="40.0714669" lon="-105.2298137">
  <ele>1582.94</ele>
  <time>2026-08-28T17:51:32Z</time>
  <course>9.66</course>
  <speed>5.144171459039833</speed>
  <fix>3d</fix>
</trkpt>
<trkpt lat="40.0714556" lon="-105.2298163">
  <ele>1583.0</ele>
  <time>2026-08-28T17:51:32Z</time>
  <course>8.61</course>
  <speed>4.82</speed>
  <fix>3d</fix>
</trkpt>
<trkpt lat="40.0714714" lon="-105.2298128">
  <ele>1582.93</ele>
  <time>2026-08-28T17:51:32Z</time>
  <course>9.64</course>
  <speed>5.246074723066762</speed>
  <fix>3d</fix>
</trkpt>
<trkpt lat="40.0714643" lon="-105.2298146">
  <ele>1583.0</ele>
  <time>2026-08-28T17:51:32Z</time>
  <course>8.61</course>
  <speed>5.04</speed>
  <fix>3d</fix>
</trkpt>
<trkpt lat="40.071476" lon="-105.2298119">
  <ele>1582.93</ele>
  <time>2026-08-28T17:51:32Z</time>
  <course>9.62</course>
  <speed>5.336525086608326</speed>
  <fix>3d</fix>
</trkpt>
<trkpt lat="40.0714643" lon="-105.2298146">
  <ele>1583.0</ele>
  <time>2026-08-28T17:51:32Z</time>
  <course>8.61</course>
  <speed>5.04</speed>
  <fix>3d</fix>
</trkpt>
<trkpt lat="40.0714799" lon="-105.2298111">
  <ele>1582.93</ele>
  <time>2026-08-28T17:51:32Z</time>
  <course>9.61</course>
  <speed>5.40722664588789</speed>
  <fix>3d</fix>
</trkpt>
<trkpt lat="40.0714735" lon="-105.2298127">
  <ele>1583.0</ele>
  <time>2026-08-28T17:51:32Z</time>
  <course>8.61</course>
  <speed>5.25</speed>
  <fix>3d</fix>
</trkpt>
<trkpt lat="40.0714847" lon="-105.2298102">
  <ele>1582.93</ele>
  <time>2026-08-28T17:51:32Z</time>
  <course>9.59</course>
  <speed>5.4976813294333455</speed>
  <fix>3d</fix>
</trkpt>
<trkpt lat="40.0714735" lon="-105.2298127">
  <ele>1583.0</ele>
  <time>2026-08-28T17:51:32Z</time>
  <course>8.61</course>
  <speed>5.25</speed>
  <fix>3d</fix>
</trkpt>
<trkpt lat="40.0714896" lon="-105.2298092">
  <ele>1582.92</ele>
  <time>2026-08-28T17:51:32Z</time>
  <course>9.58</course>
  <speed>5.57826137788469</speed>
  <fix>3d</fix>
</trkpt>
<trkpt lat="40.071483" lon="-105.2298108">
  <ele>1583.0</ele>
  <time>2026-08-28T17:51:32Z</time>
  <course>8.61</course>
  <speed>5.43</speed>
  <fix>3d</fix>
</trkpt>
<trkpt lat="40.0714945" lon="-105.2298083">
  <ele>1582.92</ele>
  <time>2026-08-28T17:51:32Z</time>
  <course>9.57</course>
  <speed>5.658842637854494</speed>
  <fix>3d</fix>
</trkpt>
<trkpt lat="40.071483" lon="-105.2298108">
  <ele>1583.0</ele>
  <time>2026-08-28T17:51:32Z</time>
  <course>8.61</course>
  <speed>5.43</speed>
  <fix>3d</fix>
</trkpt>
<trkpt lat="40.0714996" lon="-105.2298073">
  <ele>1582.91</ele>
  <time>2026-08-28T17:51:32Z</time>
  <course>9.56</course>
  <speed>5.739425058313768</speed>
  <fix>3d</fix>
</trkpt>
<trkpt lat="40.0714928" lon="-105.2298089">
  <ele>1583.0</ele>
  <time>2026-08-28T17:51:32Z</time>
  <course>8.61</course>
  <speed>5.6</speed>
  <fix>3d</fix>
</trkpt>
<trkpt lat="40.0715047" lon="-105.2298063">
  <ele>1582.91</ele>
  <time>2026-08-28T17:51:32Z</time>
  <course>9.55</course>
  <speed>5.810129086345672</speed>
  <fix>3d</fix>
</trkpt>
<trkpt lat="40.0714928" lon="-105.2298089">
  <ele>1583.0</ele>
  <time>2026-08-28T17:51:32Z</time>
  <course>8.61</course>
  <speed>5.6</speed>
  <fix>3d</fix>
</trkpt>
<trkpt lat="40.0715099" lon="-105.2298052">
  <ele>1582.91</ele>
  <time>2026-08-28T17:51:32Z</time>
  <course>9.54</course>
  <speed>5.880833274290302</speed>
  <fix>3d</fix>
</trkpt>
<trkpt lat="40.0715029" lon="-105.2298069">
  <ele>1583.0</ele>
  <time>2026-08-28T17:51:32Z</time>
  <course>8.61</course>
  <speed>5.75</speed>
  <fix>3d</fix>
</trkpt>
<trkpt lat="40.0715152" lon="-105.2298042">
  <ele>1582.91</ele>
  <time>2026-08-28T17:51:32Z</time>
  <course>9.53</course>
  <speed>5.951537616448374</speed>
  <fix>3d</fix>
</trkpt>
<trkpt lat="40.0715029" lon="-105.2298069">
  <ele>1583.0</ele>
  <time>2026-08-28T17:51:32Z</time>
  <course>8.61</course>
  <speed>5.75</speed>
  <fix>3d</fix>
</trkpt>
<trkpt lat="40.0715205" lon="-105.2298032">
  <ele>1582.91</ele>
  <time>2026-08-28T17:51:32Z</time>
  <course>9.53</course>
  <speed>6.010823570859487</speed>
  <fix>3d</fix>
</trkpt>
<trkpt lat="40.0715132" lon="-105.2298049">
  <ele>1583.0</ele>
  <time>2026-08-28T17:51:32Z</time>
  <course>8.61</course>
  <speed>5.89</speed>
  <fix>3d</fix>
</trkpt>
<trkpt lat="40.0715259" lon="-105.2298021">
  <ele>1582.92</ele>
  <time>2026-08-28T17:51:32Z</time>
  <course>9.52</course>
  <speed>6.071647222953586</speed>
  <fix>3d</fix>
</trkpt>
<trkpt lat="40.0715132" lon="-105.2298049">
  <ele>1583.0</ele>
  <time>2026-08-28T17:51:32Z</time>
  <course>8.61</course>
  <speed>5.89</speed>
  <fix>3d</fix>
</trkpt>
<trkpt lat="40.0715324" lon="-105.2298008">
  <ele>1582.92</ele>
  <time>2026-08-28T17:51:32Z</time>
  <course>9.51</course>
  <speed>6.142352969343263</speed>
  <fix>3d</fix>
</trkpt>
<trkpt lat="40.0715238" lon="-105.2298027">
  <ele>1583.0</ele>
  <time>2026-08-28T17:51:32Z</time>
  <course>8.61</course>
  <speed>6.01</speed>
  <fix>3d</fix>
</trkpt>
<trkpt lat="40.0715379" lon="-105.2297998">
  <ele>1582.92</ele>
  <time>2026-08-28T17:51:32Z</time>
  <course>9.51</course>
  <speed>6.193294761272065</speed>
  <fix>3d</fix>
</trkpt>
<trkpt lat="40.0715238" lon="-105.2298027">
  <ele>1583.0</ele>
  <time>2026-08-28T17:51:32Z</time>
  <course>8.61</course>
  <speed>6.01</speed>
  <fix>3d</fix>
</trkpt>
<trkpt lat="40.0715434" lon="-105.2297987">
  <ele>1582.92</ele>
  <time>2026-08-28T17:51:32Z</time>
  <course>9.5</course>
  <speed>6.242707745842344</speed>
  <fix>3d</fix>
</trkpt>
<trkpt lat="40.0715346" lon="-105.2298006">
  <ele>1583.0</ele>
  <time>2026-08-28T17:51:32Z</time>
  <course>8.61</course>
  <speed>6.13</speed>
  <fix>3d</fix>
</trkpt>
<trkpt lat="40.0715489" lon="-105.2297976">
  <ele>1582.92</ele>
  <time>2026-08-28T17:51:32Z</time>
  <course>9.5</course>
  <speed>6.293647591023825</speed>
  <fix>3d</fix>
</trkpt>
<trkpt lat="40.0715346" lon="-105.2298006">
  <ele>1583.0</ele>
  <time>2026-08-28T17:51:32Z</time>
  <course>8.61</course>
  <speed>6.13</speed>
  <fix>3d</fix>
</trkpt>
<trkpt lat="40.0715545" lon="-105.2297965">
  <ele>1582.92</ele>
  <time>2026-08-28T17:51:32Z</time>
  <course>9.5</course>
  <speed>6.334705991598979</speed>
  <fix>3d</fix>
</trkpt>
<trkpt lat="40.0715456" lon="-105.2297984">
  <ele>1583.0</ele>
  <time>2026-08-28T17:51:32Z</time>
  <course>8.61</course>
  <speed>6.23</speed>
  <fix>3d</fix>
</trkpt>
<trkpt lat="40.0715601" lon="-105.2297954">
  <ele>1582.92</ele>
  <time>2026-08-28T17:51:32Z</time>
  <course>9.49</course>
  <speed>6.37423720926669</speed>
  <fix>3d</fix>
</trkpt>
<trkpt lat="40.0715456" lon="-105.2297984">
  <ele>1583.0</ele>
  <time>2026-08-28T17:51:32Z</time>
  <course>8.61</course>
  <speed>6.23</speed>
  <fix>3d</fix>
</trkpt>
<trkpt lat="40.0715657" lon="-105.2297942">
  <ele>1582.92</ele>
  <time>2026-08-28T17:51:32Z</time>
  <course>9.49</course>
  <speed>6.41529422552076</speed>
  <fix>3d</fix>
</trkpt>
<trkpt lat="40.0715568" lon="-105.2297963">
  <ele>1583.0</ele>
  <time>2026-08-28T17:51:32Z</time>
  <course>8.61</course>
  <speed>6.32</speed>
  <fix>3d</fix>
</trkpt>
<trkpt lat="40.0715713" lon="-105.2297932">
  <ele>1582.92</ele>
  <time>2026-08-28T17:51:32Z</time>
  <course>9.48</course>
  <speed>6.444943754603294</speed>
  <fix>3d</fix>
</trkpt>
<trkpt lat="40.0715568" lon="-105.2297963">
  <ele>1583.0</ele>
  <time>2026-08-28T17:51:32Z</time>
  <course>8.61</course>
  <speed>6.32</speed>
  <fix>3d</fix>
</trkpt>
<trkpt lat="40.071577" lon="-105.229792">
  <ele>1582.92</ele>
  <time>2026-08-28T17:51:32Z</time>
  <course>9.48</course>
  <speed>6.474596512524931</speed>
  <fix>3d</fix>
</trkpt>
<trkpt lat="40.0715682" lon="-105.229794">
  <ele>1583.0</ele>
  <time>2026-08-28T17:51:32Z</time>
  <course>8.61</course>
  <speed>6.4</speed>
  <fix>3d</fix>
</trkpt>
<trkpt lat="40.0715827" lon="-105.2297909">
  <ele>1582.92</ele>
  <time>2026-08-28T17:51:32Z</time>
  <course>9.47</course>
  <speed>6.5057666727296635</speed>
  <fix>3d</fix>
</trkpt>
<trkpt lat="40.0715682" lon="-105.229794">
  <ele>1583.0</ele>
  <time>2026-08-28T17:51:32Z</time>
  <course>8.61</course>
  <speed>6.4</speed>
  <fix>3d</fix>
</trkpt>
<trkpt lat="40.0715884" lon="-105.2297898">
  <ele>1582.92</ele>
  <time>2026-08-28T17:51:32Z</time>
  <course>9.47</course>
  <speed>6.535418884815265</speed>
  <fix>3d</fix>
</trkpt>
<trkpt lat="40.0715796" lon="-105.2297917">
  <ele>1583.0</ele>
  <time>2026-08-28T17:51:32Z</time>
  <course>8.61</course>
  <speed>6.48</speed>
  <fix>3d</fix>
</trkpt>
<trkpt lat="40.0715931" lon="-105.2297889">
  <ele>1582.92</ele>
  <time>2026-08-28T17:51:32Z</time>
  <course>9.46</course>
  <speed>6.565074257005781</speed>
  <fix>3d</fix>
</trkpt>
<trkpt lat="40.0715796" lon="-105.2297917">
  <ele>1583.0</ele>
  <time>2026-08-28T17:51:32Z</time>
  <course>8.61</course>
  <speed>6.48</speed>
  <fix>3d</fix>
</trkpt>
<trkpt lat="40.0715988" lon="-105.2297878">
  <ele>1582.93</ele>
  <time>2026-08-28T17:51:32Z</time>
  <course>9.46</course>
  <speed>6.586357111484315</speed>
  <fix>3d</fix>
</trkpt>
<trkpt lat="40.0715912" lon="-105.2297894">
  <ele>1583.0</ele>
  <time>2026-08-28T17:51:32Z</time>
  <course>8.61</course>
  <speed>6.55</speed>
  <fix>3d</fix>
</trkpt>
<trkpt lat="40.0716047" lon="-105.2297866">
  <ele>1582.93</ele>
  <time>2026-08-28T17:51:32Z</time>
  <course>9.46</course>
  <speed>6.616010882699635</speed>
  <fix>3d</fix>
</trkpt>
<trkpt lat="40.0715912" lon="-105.2297894">
  <ele>1583.0</ele>
  <time>2026-08-28T17:51:32Z</time>
  <course>8.61</course>
  <speed>6.55</speed>
  <fix>3d</fix>
</trkpt>
<trkpt lat="40.0716105" lon="-105.2297855">
  <ele>1582.93</ele>
  <time>2026-08-28T17:51:32Z</time>
  <course>9.47</course>
  <speed>6.6456677617828595</speed>
  <fix>3d</fix>
</trkpt>
<trkpt lat="40.0716028" lon="-105.2297871">
  <ele>1583.0</ele>
  <time>2026-08-28T17:51:32Z</time>
  <course>8.61</course>
  <speed>6.61</speed>
  <fix>3d</fix>
</trkpt>
<trkpt lat="40.0716164" lon="-105.2297843">
  <ele>1582.93</ele>
  <time>2026-08-28T17:51:32Z</time>
  <course>9.47</course>
  <speed>6.666948327383376</speed>
  <fix>3d</fix>
</trkpt>
<trkpt lat="40.0716028" lon="-105.2297871">
  <ele>1583.0</ele>
  <time>2026-08-28T17:51:32Z</time>
  <course>8.61</course>
  <speed>6.61</speed>
  <fix>3d</fix>
</trkpt>
<trkpt lat="40.0716224" lon="-105.2297831">
  <ele>1582.93</ele>
  <time>2026-08-28T17:51:32Z</time>
  <course>9.48</course>
  <speed>6.696603616759768</speed>
  <fix>3d</fix>
</trkpt>
<trkpt lat="40.0716146" lon="-105.2297847">
  <ele>1583.0</ele>
  <time>2026-08-28T17:51:32Z</time>
  <course>8.61</course>
  <speed>6.66</speed>
  <fix>3d</fix>
</trkpt>
<trkpt lat="40.0716284" lon="-105.2297819">
  <ele>1582.93</ele>
  <time>2026-08-28T17:51:32Z</time>
  <course>9.48</course>
  <speed>6.716375510645604</speed>
  <fix>3d</fix>
</trkpt>
<trkpt lat="40.0716146" lon="-105.2297847">
  <ele>1583.0</ele>
  <time>2026-08-28T17:51:32Z</time>
  <course>8.61</course>
  <speed>6.66</speed>
  <fix>3d</fix>
</trkpt>
<trkpt lat="40.0716344" lon="-105.2297807">
  <ele>1582.93</ele>
  <time>2026-08-28T17:51:32Z</time>
  <course>9.49</course>
  <speed>6.737655378542302</speed>
  <fix>3d</fix>
</trkpt>
<trkpt lat="40.0716265" lon="-105.2297824">
  <ele>1583.0</ele>
  <time>2026-08-28T17:51:32Z</time>
  <course>8.61</course>
  <speed>6.72</speed>
  <fix>3d</fix>
</trkpt>
<trkpt lat="40.0716405" lon="-105.2297795">
  <ele>1582.93</ele>
  <time>2026-08-28T17:51:32Z</time>
  <course>9.49</course>
  <speed>6.7574255452798</speed>
  <fix>3d</fix>
</trkpt>
<trkpt lat="40.0716265" lon="-105.2297824">
  <ele>1583.0</ele>
  <time>2026-08-28T17:51:32Z</time>
  <course>8.61</course>
  <speed>6.72</speed>
  <fix>3d</fix>
</trkpt>
<trkpt lat="40.0716465" lon="-105.2297783">
  <ele>1582.94</ele>
  <time>2026-08-28T17:51:32Z</time>
  <course>9.5</course>
  <speed>6.787083320543515</speed>
  <fix>3d</fix>
</trkpt>
<trkpt lat="40.0716385" lon="-105.2297801">
  <ele>1583.0</ele>
  <time>2026-08-28T17:51:32Z</time>
  <course>8.61</course>
  <speed>6.76</speed>
  <fix>3d</fix>
</trkpt>
<trkpt lat="40.0716538" lon="-105.2297769">
  <ele>1582.94</ele>
  <time>2026-08-28T17:51:32Z</time>
  <course>9.5</course>
  <speed>6.80685683704307</speed>
  <fix>3d</fix>
</trkpt>
<trkpt lat="40.0716385" lon="-105.2297801">
  <ele>1583.0</ele>
  <time>2026-08-28T17:51:32Z</time>
  <course>8.61</course>
  <speed>6.76</speed>
  <fix>3d</fix>
</trkpt>
<trkpt lat="40.0716599" lon="-105.2297757">
  <ele>1582.94</ele>
  <time>2026-08-28T17:51:32Z</time>
  <course>9.51</course>
  <speed>6.828132980544535</speed>
  <fix>3d</fix>
</trkpt>
<trkpt lat="40.0716505" lon="-105.2297777">
  <ele>1583.0</ele>
  <time>2026-08-28T17:51:32Z</time>
  <course>8.61</course>
  <speed>6.8</speed>
  <fix>3d</fix>
</trkpt>
<trkpt lat="40.071666" lon="-105.2297745">
  <ele>1582.95</ele>
  <time>2026-08-28T17:51:32Z</time>
  <course>9.51</course>
  <speed>6.838018718898041</speed>
  <fix>3d</fix>
</trkpt>
<trkpt lat="40.0716505" lon="-105.2297777">
  <ele>1583.0</ele>
  <time>2026-08-28T17:51:32Z</time>
  <course>8.61</course>
  <speed>6.8</speed>
  <fix>3d</fix>
</trkpt>
<trkpt lat="40.0716721" lon="-105.2297733">
  <ele>1582.95</ele>
  <time>2026-08-28T17:51:32Z</time>
  <course>9.52</course>
  <speed>6.857791189588671</speed>
  <fix>3d</fix>
</trkpt>
<trkpt lat="40.0716627" lon="-105.2297753">
  <ele>1583.0</ele>
  <time>2026-08-28T17:51:32Z</time>
  <course>8.61</course>
  <speed>6.84</speed>
  <fix>3d</fix>
</trkpt>
<trkpt lat="40.0716782" lon="-105.2297721">
  <ele>1582.95</ele>
  <time>2026-08-28T17:51:32Z</time>
  <course>9.52</course>
  <speed>6.877564976065294</speed>
  <fix>3d</fix>
</trkpt>
<trkpt lat="40.0716627" lon="-105.2297753">
  <ele>1583.0</ele>
  <time>2026-08-28T17:51:32Z</time>
  <course>8.61</course>
  <speed>6.84</speed>
  <fix>3d</fix>
</trkpt>
<trkpt lat="40.0716843" lon="-105.2297709">
  <ele>1582.96</ele>
  <time>2026-08-28T17:51:32Z</time>
  <course>9.53</course>
  <speed>6.887452359181876</speed>
  <fix>3d</fix>
</trkpt>
<trkpt lat="40.0716749" lon="-105.2297729">
  <ele>1583.0</ele>
  <time>2026-08-28T17:51:32Z</time>
  <course>8.61</course>
  <speed>6.87</speed>
  <fix>3d</fix>
</trkpt>
<trkpt lat="40.0716904" lon="-105.2297697">
  <ele>1582.96</ele>
  <time>2026-08-28T17:51:32Z</time>
  <course>9.53</course>
  <speed>6.898840482283962</speed>
  <fix>3d</fix>
</trkpt>
<trkpt lat="40.0716749" lon="-105.2297729">
  <ele>1583.0</ele>
  <time>2026-08-28T17:51:32Z</time>
  <course>8.61</course>
  <speed>6.87</speed>
  <fix>3d</fix>
</trkpt>
<trkpt lat="40.0716965" lon="-105.2297685">
  <ele>1582.96</ele>
  <time>2026-08-28T17:51:32Z</time>
  <course>9.53</course>
  <speed>6.908726365980925</speed>
  <fix>3d</fix>
</trkpt>
<trkpt lat="40.0716871" lon="-105.2297704">
  <ele>1583.0</ele>
  <time>2026-08-28T17:51:32Z</time>
  <course>8.61</course>
  <speed>6.9</speed>
  <fix>3d</fix>
</trkpt>
<trkpt lat="40.0717026" lon="-105.2297673">
  <ele>1582.96</ele>
  <time>2026-08-28T17:51:32Z</time>
  <course>9.53</course>
  <speed>6.918612577677695</speed>
  <fix>3d</fix>
</trkpt>
<trkpt lat="40.0716871" lon="-105.2297704">
  <ele>1583.0</ele>
  <time>2026-08-28T17:51:32Z</time>
  <course>8.61</course>
  <speed>6.9</speed>
  <fix>3d</fix>
</trkpt>
<trkpt lat="40.0717087" lon="-105.2297661">
  <ele>1582.96</ele>
  <time>2026-08-28T17:51:32Z</time>
  <course>9.54</course>
  <speed>6.928499115970211</speed>
  <fix>3d</fix>
</trkpt>
<trkpt lat="40.0716994" lon="-105.2297679">
  <ele>1583.0</ele>
  <time>2026-08-28T17:51:32Z</time>
  <course>8.61</course>
  <speed>6.93</speed>
  <fix>3d</fix>
</trkpt>
<trkpt lat="40.0717149" lon="-105.2297649">
  <ele>1582.96</ele>
  <time>2026-08-28T17:51:32Z</time>
  <course>9.54</course>
  <speed>6.928499115970211</speed>
  <fix>3d</fix>
</trkpt>
<trkpt lat="40.0716994" lon="-105.2297679">
  <ele>1583.0</ele>
  <time>2026-08-28T17:51:32Z</time>
  <course>8.61</course>
  <speed>6.93</speed>
  <fix>3d</fix>
</trkpt>
<trkpt lat="40.0717198" lon="-105.2297639">
  <ele>1582.96</ele>
  <time>2026-08-28T17:51:32Z</time>
  <course>9.54</course>
  <speed>6.938385979462371</speed>
  <fix>3d</fix>
</trkpt>
<trkpt lat="40.0717118" lon="-105.2297655">
  <ele>1583.0</ele>
  <time>2026-08-28T17:51:32Z</time>
  <course>8.61</course>
  <speed>6.96</speed>
  <fix>3d</fix>
</trkpt>
<trkpt lat="40.0717259" lon="-105.2297627">
  <ele>1582.95</ele>
  <time>2026-08-28T17:51:32Z</time>
  <course>9.55</course>
  <speed>6.948273166765969</speed>
  <fix>3d</fix>
</trkpt>
<trkpt lat="40.0717118" lon="-105.2297655">
  <ele>1583.0</ele>
  <time>2026-08-28T17:51:32Z</time>
  <course>8.61</course>
  <speed>6.96</speed>
  <fix>3d</fix>
</trkpt>
<trkpt lat="40.0717321" lon="-105.2297615">
  <ele>1582.95</ele>
  <time>2026-08-28T17:51:32Z</time>
  <course>9.55</course>
  <speed>6.9581606765006505</speed>
  <fix>3d</fix>
</trkpt>
<trkpt lat="40.0717242" lon="-105.2297631">
  <ele>1583.0</ele>
  <time>2026-08-28T17:51:32Z</time>
  <course>8.61</course>
  <speed>6.98</speed>
  <fix>3d</fix>
</trkpt>
<trkpt lat="40.0717383" lon="-105.2297602">
  <ele>1582.95</ele>
  <time>2026-08-28T17:51:32Z</time>
  <course>9.56</course>
  <speed>6.96954804847488</speed>
  <fix>3d</fix>
</trkpt>
<trkpt lat="40.0717242" lon="-105.2297631">
  <ele>1583.0</ele>
  <time>2026-08-28T17:51:32Z</time>
  <course>8.61</course>
  <speed>6.98</speed>
  <fix>3d</fix>
</trkpt>
<trkpt lat="40.0717445" lon="-105.229759">
  <ele>1582.94</ele>
  <time>2026-08-28T17:51:32Z</time>
  <course>9.57</course>
  <speed>6.979434074479105</speed>
  <fix>3d</fix>
</trkpt>
<trkpt lat="40.0717365" lon="-105.2297606">
  <ele>1583.0</ele>
  <time>2026-08-28T17:51:32Z</time>
  <course>8.61</course>
  <speed>7.0</speed>
  <fix>3d</fix>
</trkpt>
<trkpt lat="40.0717508" lon="-105.2297578">
  <ele>1582.94</ele>
  <time>2026-08-28T17:51:32Z</time>
  <course>9.58</course>
  <speed>6.989320424762338</speed>
  <fix>3d</fix>
</trkpt>
<trkpt lat="40.0717365" lon="-105.2297606">
  <ele>1583.0</ele>
  <time>2026-08-28T17:51:32Z</time>
  <course>8.61</course>
  <speed>7.0</speed>
  <fix>3d</fix>
</trkpt>
<trkpt lat="40.071757" lon="-105.2297565">
  <ele>1582.94</ele>
  <time>2026-08-28T17:51:32Z</time>
  <course>9.58</course>
  <speed>6.989320424762338</speed>
  <fix>3d</fix>
</trkpt>
<trkpt lat="40.071749" lon="-105.2297581">
  <ele>1583.0</ele>
  <time>2026-08-28T17:51:32Z</time>
  <course>8.61</course>
  <speed>7.02</speed>
  <fix>3d</fix>
</trkpt>
<trkpt lat="40.0717634" lon="-105.2297553">
  <ele>1582.94</ele>
  <time>2026-08-28T17:51:32Z</time>
  <course>9.59</course>
  <speed>6.999207097950452</speed>
  <fix>3d</fix>
</trkpt>
<trkpt lat="40.071749" lon="-105.2297581">
  <ele>1583.0</ele>
  <time>2026-08-28T17:51:32Z</time>
  <course>8.61</course>
  <speed>7.02</speed>
  <fix>3d</fix>
</trkpt>
<trkpt lat="40.0717696" lon="-105.229754">
  <ele>1582.94</ele>
  <time>2026-08-28T17:51:32Z</time>
  <course>9.6</course>
  <speed>7.009094092677027</speed>
  <fix>3d</fix>
</trkpt>
<trkpt lat="40.0717615" lon="-105.2297557">
  <ele>1583.0</ele>
  <time>2026-08-28T17:51:32Z</time>
  <course>8.61</course>
  <speed>7.04</speed>
  <fix>3d</fix>
</trkpt>
<trkpt lat="40.0717772" lon="-105.2297525">
  <ele>1582.95</ele>
  <time>2026-08-28T17:51:32Z</time>
  <course>9.6</course>
  <speed>7.018981407583296</speed>
  <fix>3d</fix>
</trkpt>
<trkpt lat="40.0717615" lon="-105.2297557">
  <ele>1583.0</ele>
  <time>2026-08-28T17:51:32Z</time>
  <course>8.61</course>
  <speed>7.04</speed>
  <fix>3d</fix>
</trkpt>
<trkpt lat="40.0717835" lon="-105.2297513">
  <ele>1582.95</ele>
  <time>2026-08-28T17:51:32Z</time>
  <course>9.61</course>
  <speed>7.030369833799641</speed>
  <fix>3d</fix>
</trkpt>
<trkpt lat="40.071774" lon="-105.2297532">
  <ele>1583.0</ele>
  <time>2026-08-28T17:51:32Z</time>
  <course>8.61</course>
  <speed>7.05</speed>
  <fix>3d</fix>
</trkpt>
<trkpt lat="40.0717898" lon="-105.22975">
  <ele>1582.94</ele>
  <time>2026-08-28T17:51:32Z</time>
  <course>9.62</course>
  <speed>7.0402556771753675</speed>
  <fix>3d</fix>
</trkpt>
<trkpt lat="40.071774" lon="-105.2297532">
  <ele>1583.0</ele>
  <time>2026-08-28T17:51:32Z</time>
  <course>8.61</course>
  <speed>7.05</speed>
  <fix>3d</fix>
</trkpt>
<trkpt lat="40.0717961" lon="-105.2297488">
  <ele>1582.94</ele>
  <time>2026-08-28T17:51:32Z</time>
  <course>9.62</course>
  <speed>7.0402556771753675</speed>
  <fix>3d</fix>
</trkpt>
<trkpt lat="40.0717865" lon="-105.2297507">
  <ele>1583.0</ele>
  <time>2026-08-28T17:51:32Z</time>
  <course>8.61</course>
  <speed>7.06</speed>
  <fix>3d</fix>
</trkpt>
<trkpt lat="40.0718024" lon="-105.2297475">
  <ele>1582.94</ele>
  <time>2026-08-28T17:51:32Z</time>
  <course>9.63</course>
  <speed>7.05014184254473</speed>
  <fix>3d</fix>
</trkpt>
<trkpt lat="40.0717865" lon="-105.2297507">
  <ele>1583.0</ele>
  <time>2026-08-28T17:51:32Z</time>
  <course>8.61</course>
  <speed>7.06</speed>
  <fix>3d</fix>
</trkpt>
<trkpt lat="40.0718087" lon="-105.2297463">
  <ele>1582.94</ele>
  <time>2026-08-28T17:51:32Z</time>
  <course>9.63</course>
  <speed>7.05014184254473</speed>
  <fix>3d</fix>
</trkpt>
<trkpt lat="40.0717992" lon="-105.2297482">
  <ele>1583.0</ele>
  <time>2026-08-28T17:51:32Z</time>
  <course>8.61</course>
  <speed>7.08</speed>
  <fix>3d</fix>
</trkpt>
<trkpt lat="40.071815" lon="-105.2297451">
  <ele>1582.94</ele>
  <time>2026-08-28T17:51:32Z</time>
  <course>9.64</course>
  <speed>7.060028328555063</speed>
  <fix>3d</fix>
</trkpt>
<trkpt lat="40.0717992" lon="-105.2297482">
  <ele>1583.0</ele>
  <time>2026-08-28T17:51:32Z</time>
  <course>8.61</course>
  <speed>7.08</speed>
  <fix>3d</fix>
</trkpt>
<trkpt lat="40.0718212" lon="-105.2297438">
  <ele>1582.94</ele>
  <time>2026-08-28T17:51:32Z</time>
  <course>9.64</course>
  <speed>7.060028328555063</speed>
  <fix>3d</fix>
</trkpt>
<trkpt lat="40.0718118" lon="-105.2297457">
  <ele>1583.0</ele>
  <time>2026-08-28T17:51:32Z</time>
  <course>8.61</course>
  <speed>7.09</speed>
  <fix>3d</fix>
</trkpt>
<trkpt lat="40.0718275" lon="-105.2297426">
  <ele>1582.93</ele>
  <time>2026-08-28T17:51:32Z</time>
  <course>9.65</course>
  <speed>7.060028328555063</speed>
  <fix>3d</fix>
</trkpt>
<trkpt lat="40.0718118" lon="-105.2297457">
  <ele>1583.0</ele>
  <time>2026-08-28T17:51:32Z</time>
  <course>8.61</course>
  <speed>7.09</speed>
  <fix>3d</fix>
</trkpt>
<trkpt lat="40.0718337" lon="-105.2297413">
  <ele>1582.93</ele>
  <time>2026-08-28T17:51:32Z</time>
  <course>9.65</course>
  <speed>7.0402556771753675</speed>
  <fix>3d</fix>
</trkpt>
<trkpt lat="40.0718243" lon="-105.2297432">
  <ele>1583.0</ele>
  <time>2026-08-28T17:51:32Z</time>
  <course>8.61</course>
  <speed>7.09</speed>
  <fix>3d</fix>
</trkpt>
<trkpt lat="40.0718399" lon="-105.2297401">
  <ele>1582.93</ele>
  <time>2026-08-28T17:51:32Z</time>
  <course>9.65</course>
  <speed>6.918612577677695</speed>
  <fix>3d</fix>
</trkpt>
<trkpt lat="40.0718243" lon="-105.2297432">
  <ele>1583.0</ele>
  <time>2026-08-28T17:51:32Z</time>
  <course>8.61</course>
  <speed>7.09</speed>
  <fix>3d</fix>
</trkpt>
<trkpt lat="40.0718448" lon="-105.2297391">
  <ele>1582.93</ele>
  <time>2026-08-28T17:51:32Z</time>
  <course>9.66</course>
  <speed>6.755923326977594</speed>
  <fix>3d</fix>
</trkpt>
<trkpt lat="40.0718368" lon="-105.2297408">
  <ele>1583.0</ele>
  <time>2026-08-28T17:51:32Z</time>
  <course>8.61</course>
  <speed>6.95</speed>
  <fix>3d</fix>
</trkpt>
<trkpt lat="40.0718506" lon="-105.229738">
  <ele>1582.93</ele>
  <time>2026-08-28T17:51:32Z</time>
  <course>9.66</course>
  <speed>6.48297771089798</speed>
  <fix>3d</fix>
</trkpt>
<trkpt lat="40.0718368" lon="-105.2297408">
  <ele>1583.0</ele>
  <time>2026-08-28T17:51:32Z</time>
  <course>8.61</course>
  <speed>6.95</speed>
  <fix>3d</fix>
</trkpt>
<trkpt lat="40.0718563" lon="-105.2297369">
  <ele>1582.92</ele>
  <time>2026-08-28T17:51:32Z</time>
  <course>9.67</course>
  <speed>6.238212885113812</speed>
  <fix>3d</fix>
</trkpt>
<trkpt lat="40.0718489" lon="-105.2297384">
  <ele>1583.0</ele>
  <time>2026-08-28T17:51:32Z</time>
  <course>8.61</course>
  <speed>6.55</speed>
  <fix>3d</fix>
</trkpt>
<trkpt lat="40.0718618" lon="-105.2297358">
  <ele>1582.92</ele>
  <time>2026-08-28T17:51:32Z</time>
  <course>9.74</course>
  <speed>6.108166664392844</speed>
  <fix>3d</fix>
</trkpt>
<trkpt lat="40.0718489" lon="-105.2297384">
  <ele>1583.0</ele>
  <time>2026-08-28T17:51:32Z</time>
  <course>8.61</course>
  <speed>6.55</speed>
  <fix>3d</fix>
</trkpt>
<trkpt lat="40.0718672" lon="-105.2297348">
  <ele>1582.92</ele>
  <time>2026-08-28T17:51:32Z</time>
  <course>9.83</course>
  <speed>6.078503105206083</speed>
  <fix>3d</fix>
</trkpt>
<trkpt lat="40.0718602" lon="-105.2297361">
  <ele>1583.0</ele>
  <time>2026-08-28T17:51:32Z</time>
  <course>8.69</course>
  <speed>6.22</speed>
  <fix>3d</fix>
</trkpt>
<trkpt lat="40.0718726" lon="-105.2297336">
  <ele>1582.91</ele>
  <time>2026-08-28T17:51:32Z</time>
  <course>10.0</course>
  <speed>6.122589321520756</speed>
  <fix>3d</fix>
</trkpt>
<trkpt lat="40.0718602" lon="-105.2297361">
  <ele>1583.0</ele>
  <time>2026-08-28T17:51:32Z</time>
  <course>8.69</course>
  <speed>6.22</speed>
  <fix>3d</fix>
</trkpt>
<trkpt lat="40.0718781" lon="-105.2297325">
  <ele>1582.91</ele>
  <time>2026-08-28T17:51:32Z</time>
  <course>10.17</course>
  <speed>6.166765764969512</speed>
  <fix>3d</fix>
</trkpt>
<trkpt lat="40.0718711" lon="-105.2297339">
  <ele>1583.0</ele>
  <time>2026-08-28T17:51:32Z</time>
  <course>8.93</course>
  <speed>6.18</speed>
  <fix>3d</fix>
</trkpt>
<trkpt lat="40.0718837" lon="-105.2297313">
  <ele>1582.91</ele>
  <time>2026-08-28T17:51:32Z</time>
  <course>10.41</course>
  <speed>6.181423784210236</speed>
  <fix>3d</fix>
</trkpt>
<trkpt lat="40.0718711" lon="-105.2297339">
  <ele>1583.0</ele>
  <time>2026-08-28T17:51:32Z</time>
  <course>8.93</course>
  <speed>6.18</speed>
  <fix>3d</fix>
</trkpt>
<trkpt lat="40.0718892" lon="-105.2297301">
  <ele>1582.91</ele>
  <time>2026-08-28T17:51:32Z</time>
  <course>10.67</course>
  <speed>6.174827932825335</speed>
  <fix>3d</fix>
</trkpt>
<trkpt lat="40.0718822" lon="-105.2297315">
  <ele>1583.0</ele>
  <time>2026-08-28T17:51:32Z</time>
  <course>9.34</course>
  <speed>6.23</speed>
  <fix>3d</fix>
</trkpt>
<trkpt lat="40.0718948" lon="-105.2297289">
  <ele>1582.91</ele>
  <time>2026-08-28T17:51:32Z</time>
  <course>10.95</course>
  <speed>6.140439723668004</speed>
  <fix>3d</fix>
</trkpt>
<trkpt lat="40.0718822" lon="-105.2297315">
  <ele>1583.0</ele>
  <time>2026-08-28T17:51:32Z</time>
  <course>9.34</course>
  <speed>6.23</speed>
  <fix>3d</fix>
</trkpt>
<trkpt lat="40.0719013" lon="-105.2297273">
  <ele>1582.91</ele>
  <time>2026-08-28T17:51:32Z</time>
  <course>11.36</course>
  <speed>6.076742548438267</speed>
  <fix>3d</fix>
</trkpt>
<trkpt lat="40.0718933" lon="-105.2297291">
  <ele>1583.0</ele>
  <time>2026-08-28T17:51:32Z</time>
  <course>9.9</course>
  <speed>6.2</speed>
  <fix>3d</fix>
</trkpt>
<trkpt lat="40.0719067" lon="-105.229726">
  <ele>1582.91</ele>
  <time>2026-08-28T17:51:32Z</time>
  <course>11.7</course>
  <speed>6.0133351810788</speed>
  <fix>3d</fix>
</trkpt>
<trkpt lat="40.0718933" lon="-105.2297291">
  <ele>1583.0</ele>
  <time>2026-08-28T17:51:32Z</time>
  <course>9.9</course>
  <speed>6.2</speed>
  <fix>3d</fix>
</trkpt>
<trkpt lat="40.0719121" lon="-105.2297247">
  <ele>1582.91</ele>
  <time>2026-08-28T17:51:32Z</time>
  <course>12.11</course>
  <speed>5.918868135040685</speed>
  <fix>3d</fix>
</trkpt>
<trkpt lat="40.0719041" lon="-105.2297265">
  <ele>1583.0</ele>
  <time>2026-08-28T17:51:32Z</time>
  <course>10.58</course>
  <speed>6.08</speed>
  <fix>3d</fix>
</trkpt>
<trkpt lat="40.0719173" lon="-105.2297233">
  <ele>1582.91</ele>
  <time>2026-08-28T17:51:32Z</time>
  <course>12.52</course>
  <speed>5.824654496191169</speed>
  <fix>3d</fix>
</trkpt>
<trkpt lat="40.0719041" lon="-105.2297265">
  <ele>1583.0</ele>
  <time>2026-08-28T17:51:32Z</time>
  <course>10.58</course>
  <speed>6.08</speed>
  <fix>3d</fix>
</trkpt>
<trkpt lat="40.0719224" lon="-105.2297219">
  <ele>1582.91</ele>
  <time>2026-08-28T17:51:32Z</time>
  <course>12.98</course>
  <speed>5.713186501419326</speed>
  <fix>3d</fix>
</trkpt>
<trkpt lat="40.0719147" lon="-105.2297239">
  <ele>1583.0</ele>
  <time>2026-08-28T17:51:32Z</time>
  <course>11.37</course>
  <speed>5.9</speed>
  <fix>3d</fix>
</trkpt>
<trkpt lat="40.0719274" lon="-105.2297205">
  <ele>1582.91</ele>
  <time>2026-08-28T17:51:32Z</time>
  <course>13.44</course>
  <speed>5.580546568213546</speed>
  <fix>3d</fix>
</trkpt>
<trkpt lat="40.0719147" lon="-105.2297239">
  <ele>1583.0</ele>
  <time>2026-08-28T17:51:32Z</time>
  <course>11.37</course>
  <speed>5.9</speed>
  <fix>3d</fix>
</trkpt>
<trkpt lat="40.0719322" lon="-105.2297191">
  <ele>1582.92</ele>
  <time>2026-08-28T17:51:32Z</time>
  <course>13.93</course>
  <speed>5.446117883410164</speed>
  <fix>3d</fix>
</trkpt>
<trkpt lat="40.0719249" lon="-105.2297211">
  <ele>1583.0</ele>
  <time>2026-08-28T17:51:32Z</time>
  <course>12.27</course>
  <speed>5.67</speed>
  <fix>3d</fix>
</trkpt>
<trkpt lat="40.0719369" lon="-105.2297176">
  <ele>1582.92</ele>
  <time>2026-08-28T17:51:32Z</time>
  <course>14.45</course>
  <speed>5.304573498406822</speed>
  <fix>3d</fix>
</trkpt>
<trkpt lat="40.0719249" lon="-105.2297211">
  <ele>1583.0</ele>
  <time>2026-08-28T17:51:32Z</time>
  <course>12.27</course>
  <speed>5.67</speed>
  <fix>3d</fix>
</trkpt>
<trkpt lat="40.0719415" lon="-105.2297162">
  <ele>1582.92</ele>
  <time>2026-08-28T17:51:32Z</time>
  <course>14.98</course>
  <speed>5.161172347442004</speed>
  <fix>3d</fix>
</trkpt>
<trkpt lat="40.0719346" lon="-105.2297182">
  <ele>1583.0</ele>
  <time>2026-08-28T17:51:32Z</time>
  <course>13.25</course>
  <speed>5.41</speed>
  <fix>3d</fix>
</trkpt>
<trkpt lat="40.0719459" lon="-105.2297147">
  <ele>1582.93</ele>
  <time>2026-08-28T17:51:32Z</time>
  <course>15.55</course>
  <speed>5.018176959813195</speed>
  <fix>3d</fix>
</trkpt>
<trkpt lat="40.0719346" lon="-105.2297182">
  <ele>1583.0</ele>
  <time>2026-08-28T17:51:32Z</time>
  <course>13.25</course>
  <speed>5.41</speed>
  <fix>3d</fix>
</trkpt>
<trkpt lat="40.0719501" lon="-105.2297132">
  <ele>1582.93</ele>
  <time>2026-08-28T17:51:32Z</time>
  <course>16.13</course>
  <speed>4.865963419509028</speed>
  <fix>3d</fix>
</trkpt>
<trkpt lat="40.0719438" lon="-105.2297153">
  <ele>1583.0</ele>
  <time>2026-08-28T17:51:32Z</time>
  <course>14.34</course>
  <speed>5.12</speed>
  <fix>3d</fix>
</trkpt>
<trkpt lat="40.0719535" lon="-105.229712">
  <ele>1582.93</ele>
  <time>2026-08-28T17:51:32Z</time>
  <course>16.62</course>
  <speed>4.74318458422187</speed>
  <fix>3d</fix>
</trkpt>
<trkpt lat="40.0719438" lon="-105.2297153">
  <ele>1583.0</ele>
  <time>2026-08-28T17:51:32Z</time>
  <course>14.34</course>
  <speed>5.12</speed>
  <fix>3d</fix>
</trkpt>
<trkpt lat="40.0719575" lon="-105.2297105">
  <ele>1582.93</ele>
  <time>2026-08-28T17:51:32Z</time>
  <course>17.24</course>
  <speed>4.601608414456841</speed>
  <fix>3d</fix>
</trkpt>
<trkpt lat="40.0719524" lon="-105.2297122">
  <ele>1583.0</ele>
  <time>2026-08-28T17:51:32Z</time>
  <course>15.52</course>
  <speed>4.83</speed>
  <fix>3d</fix>
</trkpt>
<trkpt lat="40.0719615" lon="-105.229709">
  <ele>1582.93</ele>
  <time>2026-08-28T17:51:32Z</time>
  <course>17.86</course>
  <speed>4.451033587831033</speed>
  <fix>3d</fix>
</trkpt>
<trkpt lat="40.0719524" lon="-105.2297122">
  <ele>1583.0</ele>
  <time>2026-08-28T17:51:32Z</time>
  <course>15.52</course>
  <speed>4.83</speed>
  <fix>3d</fix>
</trkpt>
<trkpt lat="40.0719652" lon="-105.2297074">
  <ele>1582.93</ele>
  <time>2026-08-28T17:51:32Z</time>
  <course>18.52</course>
  <speed>4.307690796703032</speed>
  <fix>3d</fix>
</trkpt>
<trkpt lat="40.0719606" lon="-105.2297092">
  <ele>1583.0</ele>
  <time>2026-08-28T17:51:32Z</time>
  <course>16.77</course>
  <speed>4.55</speed>
  <fix>3d</fix>
</trkpt>
<trkpt lat="40.0719689" lon="-105.2297059">
  <ele>1582.93</ele>
  <time>2026-08-28T17:51:32Z</time>
  <course>19.2</course>
  <speed>4.167925143281726</speed>
  <fix>3d</fix>
</trkpt>
<trkpt lat="40.0719606" lon="-105.2297092">
  <ele>1583.0</ele>
  <time>2026-08-28T17:51:32Z</time>
  <course>16.77</course>
  <speed>4.55</speed>
  <fix>3d</fix>
</trkpt>
<trkpt lat="40.0719724" lon="-105.2297043">
  <ele>1582.93</ele>
  <time>2026-08-28T17:51:32Z</time>
  <course>19.9</course>
  <speed>4.0256800667713275</speed>
  <fix>3d</fix>
</trkpt>
<trkpt lat="40.0719681" lon="-105.2297061">
  <ele>1583.0</ele>
  <time>2026-08-28T17:51:32Z</time>
  <course>18.11</course>
  <speed>4.26</speed>
  <fix>3d</fix>
</trkpt>
<trkpt lat="40.0719758" lon="-105.2297027">
  <ele>1582.93</ele>
  <time>2026-08-28T17:51:32Z</time>
  <course>20.61</course>
  <speed>3.896793553679743</speed>
  <fix>3d</fix>
</trkpt>
<trkpt lat="40.0719681" lon="-105.2297061">
  <ele>1583.0</ele>
  <time>2026-08-28T17:51:32Z</time>
  <course>18.11</course>
  <speed>4.26</speed>
  <fix>3d</fix>
</trkpt>
<trkpt lat="40.0719791" lon="-105.2297012">
  <ele>1582.93</ele>
  <time>2026-08-28T17:51:32Z</time>
  <course>21.35</course>
  <speed>3.7652357163928</speed>
  <fix>3d</fix>
</trkpt>
<trkpt lat="40.0719751" lon="-105.229703">
  <ele>1583.0</ele>
  <time>2026-08-28T17:51:32Z</time>
  <course>19.54</course>
  <speed>3.99</speed>
  <fix>3d</fix>
</trkpt>
<trkpt lat="40.0719823" lon="-105.2296996">
  <ele>1582.94</ele>
  <time>2026-08-28T17:51:32Z</time>
  <course>22.13</course>
  <speed>3.6379252328765634</speed>
  <fix>3d</fix>
</trkpt>
<trkpt lat="40.0719751" lon="-105.229703">
  <ele>1583.0</ele>
  <time>2026-08-28T17:51:32Z</time>
  <course>19.54</course>
  <speed>3.99</speed>
  <fix>3d</fix>
</trkpt>
<trkpt lat="40.0719853" lon="-105.229698">
  <ele>1582.94</ele>
  <time>2026-08-28T17:51:32Z</time>
  <course>22.92</course>
  <speed>3.5078340895772135</speed>
  <fix>3d</fix>
</trkpt>
<trkpt lat="40.0719816" lon="-105.2296998">
  <ele>1583.0</ele>
  <time>2026-08-28T17:51:32Z</time>
  <course>21.05</course>
  <speed>3.73</speed>
  <fix>3d</fix>
</trkpt>
<trkpt lat="40.0719888" lon="-105.2296961">
  <ele>1582.94</ele>
  <time>2026-08-28T17:51:32Z</time>
  <course>23.91</course>
  <speed>3.3693322780634145</speed>
  <fix>3d</fix>
</trkpt>
<trkpt lat="40.0719816" lon="-105.2296998">
  <ele>1583.0</ele>
  <time>2026-08-28T17:51:32Z</time>
  <course>21.05</course>
  <speed>3.73</speed>
  <fix>3d</fix>
</trkpt>
<trkpt lat="40.0719916" lon="-105.2296945">
  <ele>1582.93</ele>
  <time>2026-08-28T17:51:32Z</time>
  <course>24.77</course>
  <speed>3.250123074592715</speed>
  <fix>3d</fix>
</trkpt>
<trkpt lat="40.0719876" lon="-105.2296967">
  <ele>1583.0</ele>
  <time>2026-08-28T17:51:32Z</time>
  <course>22.67</course>
  <speed>3.49</speed>
  <fix>3d</fix>
</trkpt>
<trkpt lat="40.0719943" lon="-105.2296929">
  <ele>1582.94</ele>
  <time>2026-08-28T17:51:32Z</time>
  <course>25.66</course>
  <speed>3.131772660970141</speed>
  <fix>3d</fix>
</trkpt>
<trkpt lat="40.0719876" lon="-105.2296967">
  <ele>1583.0</ele>
  <time>2026-08-28T17:51:32Z</time>
  <course>22.67</course>
  <speed>3.49</speed>
  <fix>3d</fix>
</trkpt>
<trkpt lat="40.0719968" lon="-105.2296913">
  <ele>1582.94</ele>
  <time>2026-08-28T17:51:32Z</time>
  <course>26.58</course>
  <speed>3.023375596911505</speed>
  <fix>3d</fix>
</trkpt>
<trkpt lat="40.0719932" lon="-105.2296935">
  <ele>1583.0</ele>
  <time>2026-08-28T17:51:32Z</time>
  <course>24.41</course>
  <speed>3.25</speed>
  <fix>3d</fix>
</trkpt>
<trkpt lat="40.0719993" lon="-105.2296897">
  <ele>1582.94</ele>
  <time>2026-08-28T17:51:32Z</time>
  <course>27.53</course>
  <speed>2.9158875149772157</speed>
  <fix>3d</fix>
</trkpt>
<trkpt lat="40.0719932" lon="-105.2296935">
  <ele>1583.0</ele>
  <time>2026-08-28T17:51:32Z</time>
  <course>24.41</course>
  <speed>3.25</speed>
  <fix>3d</fix>
</trkpt>
<trkpt lat="40.0720016" lon="-105.2296881">
  <ele>1582.95</ele>
  <time>2026-08-28T17:51:32Z</time>
  <course>28.54</course>
  <speed>2.80941275002446</speed>
  <fix>3d</fix>
</trkpt>
<trkpt lat="40.0719983" lon="-105.2296904">
  <ele>1583.0</ele>
  <time>2026-08-28T17:51:32Z</time>
  <course>26.28</course>
  <speed>3.03</speed>
  <fix>3d</fix>
</trkpt>
<trkpt lat="40.0720038" lon="-105.2296865">
  <ele>1582.95</ele>
  <time>2026-08-28T17:51:32Z</time>
  <course>29.57</course>
  <speed>2.712802978470792</speed>
  <fix>3d</fix>
</trkpt>
<trkpt lat="40.0719983" lon="-105.2296904">
  <ele>1583.0</ele>
  <time>2026-08-28T17:51:32Z</time>
  <course>26.28</course>
  <speed>3.03</speed>
  <fix>3d</fix>
</trkpt>
<trkpt lat="40.0720059" lon="-105.229685">
  <ele>1582.95</ele>
  <time>2026-08-28T17:51:32Z</time>
  <course>30.67</course>
  <speed>2.6035744659986197</speed>
  <fix>3d</fix>
</trkpt>
<trkpt lat="40.072003" lon="-105.2296872">
  <ele>1583.0</ele>
  <time>2026-08-28T17:51:32Z</time>
  <course>28.31</course>
  <speed>2.82</speed>
  <fix>3d</fix>
</trkpt>
<trkpt lat="40.0720079" lon="-105.2296834">
  <ele>1582.95</ele>
  <time>2026-08-28T17:51:32Z</time>
  <course>31.81</course>
  <speed>2.509123352886422</speed>
  <fix>3d</fix>
</trkpt>
<trkpt lat="40.072003" lon="-105.2296872">
  <ele>1583.0</ele>
  <time>2026-08-28T17:51:32Z</time>
  <course>28.31</course>
  <speed>2.82</speed>
  <fix>3d</fix>
</trkpt>
<trkpt lat="40.0720098" lon="-105.2296819">
  <ele>1582.95</ele>
  <time>2026-08-28T17:51:32Z</time>
  <course>33.03</course>
  <speed>2.410580842867544</speed>
  <fix>3d</fix>
</trkpt>
<trkpt lat="40.0720072" lon="-105.229684">
  <ele>1583.0</ele>
  <time>2026-08-28T17:51:32Z</time>
  <course>30.53</course>
  <speed>2.62</speed>
  <fix>3d</fix>
</trkpt>
<trkpt lat="40.0720116" lon="-105.2296804">
  <ele>1582.95</ele>
  <time>2026-08-28T17:51:32Z</time>
  <course>34.3</course>
  <speed>2.3187065359807826</speed>
  <fix>3d</fix>
</trkpt>
<trkpt lat="40.0720072" lon="-105.229684">
  <ele>1583.0</ele>
  <time>2026-08-28T17:51:32Z</time>
  <course>30.53</course>
  <speed>2.62</speed>
  <fix>3d</fix>
</trkpt>
<trkpt lat="40.072013" lon="-105.2296791">
  <ele>1582.94</ele>
  <time>2026-08-28T17:51:32Z</time>
  <course>35.38</course>
  <speed>2.238972978845435</speed>
  <fix>3d</fix>
</trkpt>
<trkpt lat="40.0720111" lon="-105.2296809">
  <ele>1583.0</ele>
  <time>2026-08-28T17:51:32Z</time>
  <course>32.98</course>
  <speed>2.42</speed>
  <fix>3d</fix>
</trkpt>
<trkpt lat="40.0720146" lon="-105.2296776">
  <ele>1582.94</ele>
  <time>2026-08-28T17:51:32Z</time>
  <course>36.8</course>
  <speed>2.1440149253211835</speed>
  <fix>3d</fix>
</trkpt>
<trkpt lat="40.0720111" lon="-105.2296809">
  <ele>1583.0</ele>
  <time>2026-08-28T17:51:32Z</time>
  <course>32.98</course>
  <speed>2.42</speed>
  <fix>3d</fix>
</trkpt>
<trkpt lat="40.0720162" lon="-105.229676">
  <ele>1582.94</ele>
  <time>2026-08-28T17:51:32Z</time>
  <course>38.31</course>
  <speed>2.0506096654409878</speed>
  <fix>3d</fix>
</trkpt>
<trkpt lat="40.0720146" lon="-105.2296778">
  <ele>1583.0</ele>
  <time>2026-08-28T17:51:32Z</time>
  <course>35.73</course>
  <speed>2.23</speed>
  <fix>3d</fix>
</trkpt>
<trkpt lat="40.0720176" lon="-105.2296745">
  <ele>1582.94</ele>
  <time>2026-08-28T17:51:32Z</time>
  <course>39.9</course>
  <speed>1.958979326077741</speed>
  <fix>3d</fix>
</trkpt>
<trkpt lat="40.0720146" lon="-105.2296778">
  <ele>1583.0</ele>
  <time>2026-08-28T17:51:32Z</time>
  <course>35.73</course>
  <speed>2.23</speed>
  <fix>3d</fix>
</trkpt>
<trkpt lat="40.072019" lon="-105.229673">
  <ele>1582.94</ele>
  <time>2026-08-28T17:51:32Z</time>
  <course>41.63</course>
  <speed>1.8693849255838133</speed>
  <fix>3d</fix>
</trkpt>
<trkpt lat="40.0720177" lon="-105.2296748">
  <ele>1583.0</ele>
  <time>2026-08-28T17:51:32Z</time>
  <course>38.85</course>
  <speed>2.04</speed>
  <fix>3d</fix>
</trkpt>
<trkpt lat="40.0720202" lon="-105.2296715">
  <ele>1582.93</ele>
  <time>2026-08-28T17:51:32Z</time>
  <course>43.48</course>
  <speed>1.7751901306620652</speed>
  <fix>3d</fix>
</trkpt>
<trkpt lat="40.0720177" lon="-105.2296748">
  <ele>1583.0</ele>
  <time>2026-08-28T17:51:32Z</time>
  <course>38.85</course>
  <speed>2.04</speed>
  <fix>3d</fix>
</trkpt>
<trkpt lat="40.0720214" lon="-105.2296701">
  <ele>1582.93</ele>
  <time>2026-08-28T17:51:32Z</time>
  <course>45.49</course>
  <speed>1.6903549923019128</speed>
  <fix>3d</fix>
</trkpt>
<trkpt lat="40.0720203" lon="-105.2296719">
  <ele>1583.0</ele>
  <time>2026-08-28T17:51:32Z</time>
  <course>42.43</course>
  <speed>1.85</speed>
  <fix>3d</fix>
</trkpt>
<trkpt lat="40.0720224" lon="-105.2296686">
  <ele>1582.93</ele>
  <time>2026-08-28T17:51:32Z</time>
  <course>47.69</course>
  <speed>1.5870097668256489</speed>
  <fix>3d</fix>
</trkpt>
<trkpt lat="40.0720203" lon="-105.2296719">
  <ele>1583.0</ele>
  <time>2026-08-28T17:51:32Z</time>
  <course>42.43</course>
  <speed>1.85</speed>
  <fix>3d</fix>
</trkpt>
<trkpt lat="40.0720234" lon="-105.2296672">
  <ele>1582.93</ele>
  <time>2026-08-28T17:51:32Z</time>
  <course>50.09</course>
  <speed>1.5008331019803633</speed>
  <fix>3d</fix>
</trkpt>
<trkpt lat="40.0720225" lon="-105.229669">
  <ele>1583.0</ele>
  <time>2026-08-28T17:51:32Z</time>
  <course>46.62</course>
  <speed>1.66</speed>
  <fix>3d</fix>
</trkpt>
<trkpt lat="40.0720242" lon="-105.2296658">
  <ele>1582.92</ele>
  <time>2026-08-28T17:51:32Z</time>
  <course>52.78</course>
  <speed>1.4101418368376992</speed>
  <fix>3d</fix>
</trkpt>
<trkpt lat="40.0720225" lon="-105.229669">
  <ele>1583.0</ele>
  <time>2026-08-28T17:51:32Z</time>
  <course>46.62</course>
  <speed>1.66</speed>
  <fix>3d</fix>
</trkpt>
<trkpt lat="40.0720251" lon="-105.2296642">
  <ele>1582.92</ele>
  <time>2026-08-28T17:51:32Z</time>
  <course>56.51</course>
  <speed>1.2984991336154215</speed>
  <fix>3d</fix>
</trkpt>
<trkpt lat="40.0720244" lon="-105.2296662">
  <ele>1583.0</ele>
  <time>2026-08-28T17:51:32Z</time>
  <course>51.73</course>
  <speed>1.47</speed>
  <fix>3d</fix>
</trkpt>
<trkpt lat="40.0720257" lon="-105.2296629">
  <ele>1582.92</ele>
  <time>2026-08-28T17:51:32Z</time>
  <course>60.16</course>
  <speed>1.1988327656516566</speed>
  <fix>3d</fix>
</trkpt>
<trkpt lat="40.0720244" lon="-105.2296662">
  <ele>1583.0</ele>
  <time>2026-08-28T17:51:32Z</time>
  <course>51.73</course>
  <speed>1.47</speed>
  <fix>3d</fix>
</trkpt>
<trkpt lat="40.0720262" lon="-105.2296617">
  <ele>1582.92</ele>
  <time>2026-08-28T17:51:32Z</time>
  <course>64.43</course>
  <speed>1.1108555261599051</speed>
  <fix>3d</fix>
</trkpt>
<trkpt lat="40.0720259" lon="-105.2296636">
  <ele>1583.0</ele>
  <time>2026-08-28T17:51:32Z</time>
  <course>58.33</course>
  <speed>1.27</speed>
  <fix>3d</fix>
</trkpt>
<trkpt lat="40.0720266" lon="-105.2296605">
  <ele>1582.92</ele>
  <time>2026-08-28T17:51:32Z</time>
  <course>69.39</course>
  <speed>1.0183319694480775</speed>
  <fix>3d</fix>
</trkpt>
<trkpt lat="40.0720259" lon="-105.2296636">
  <ele>1583.0</ele>
  <time>2026-08-28T17:51:32Z</time>
  <course>58.33</course>
  <speed>1.27</speed>
  <fix>3d</fix>
</trkpt>
<trkpt lat="40.0720269" lon="-105.2296594">
  <ele>1582.92</ele>
  <time>2026-08-28T17:51:32Z</time>
  <course>75.0</course>
  <speed>0.9198369420718001</speed>
  <fix>3d</fix>
</trkpt>
<trkpt lat="40.0720268" lon="-105.2296611">
  <ele>1583.0</ele>
  <time>2026-08-28T17:51:32Z</time>
  <course>67.18</course>
  <speed>1.07</speed>
  <fix>3d</fix>
</trkpt>
<trkpt lat="40.072027" lon="-105.2296584">
  <ele>1582.92</ele>
  <time>2026-08-28T17:51:32Z</time>
  <course>80.46</course>
  <speed>0.8249242389456137</speed>
  <fix>3d</fix>
</trkpt>
<trkpt lat="40.0720268" lon="-105.2296611">
  <ele>1583.0</ele>
  <time>2026-08-28T17:51:32Z</time>
  <course>67.18</course>
  <speed>1.07</speed>
  <fix>3d</fix>
</trkpt>
<trkpt lat="40.0720271" lon="-105.2296575">
  <ele>1582.92</ele>
  <time>2026-08-28T17:51:32Z</time>
  <course>85.58</course>
  <speed>0.73</speed>
  <fix>3d</fix>
</trkpt>
<trkpt lat="40.0720273" lon="-105.2296589">
  <ele>1583.0</ele>
  <time>2026-08-28T17:51:32Z</time>
  <course>77.59</course>
  <speed>0.87</speed>
  <fix>3d</fix>
</trkpt>
<trkpt lat="40.0720271" lon="-105.2296567">
  <ele>1582.92</ele>
  <time>2026-08-28T17:51:32Z</time>
  <course>90.09</course>
  <speed>0.6312685640834652</speed>
  <fix>3d</fix>
</trkpt>
<trkpt lat="40.0720273" lon="-105.2296589">
  <ele>1583.0</ele>
  <time>2026-08-28T17:51:32Z</time>
  <course>77.59</course>
  <speed>0.87</speed>
  <fix>3d</fix>
</trkpt>
<trkpt lat="40.0720271" lon="-105.229656">
  <ele>1582.92</ele>
  <time>2026-08-28T17:51:32Z</time>
  <course>93.94</course>
  <speed>0.5360037313302959</speed>
  <fix>3d</fix>
</trkpt>
<trkpt lat="40.0720276" lon="-105.2296571">
  <ele>1583.0</ele>
  <time>2026-08-28T17:51:32Z</time>
  <course>87.21</course>
  <speed>0.67</speed>
  <fix>3d</fix>
</trkpt>
<trkpt lat="40.0720271" lon="-105.2296554">
  <ele>1582.92</ele>
  <time>2026-08-28T17:51:32Z</time>
  <course>97.21</course>
  <speed>0.4609772228646444</speed>
  <fix>3d</fix>
</trkpt>
<trkpt lat="40.0720276" lon="-105.2296571">
  <ele>1583.0</ele>
  <time>2026-08-28T17:51:32Z</time>
  <course>87.21</course>
  <speed>0.67</speed>
  <fix>3d</fix>
</trkpt>
<trkpt lat="40.0720271" lon="-105.229655">
  <ele>1582.92</ele>
  <time>2026-08-28T17:51:32Z</time>
  <course>100.03</course>
  <speed>0.4052159917870962</speed>
  <fix>3d</fix>
</trkpt>
<trkpt lat="40.0720275" lon="-105.2296557">
  <ele>1583.0</ele>
  <time>2026-08-28T17:51:32Z</time>
  <course>94.82</course>
  <speed>0.49</speed>
  <fix>3d</fix>
</trkpt>
<trkpt lat="40.0720271" lon="-105.2296546">
  <ele>1582.92</ele>
  <time>2026-08-28T17:51:32Z</time>
  <course>102.09</course>
  <speed>0.3764306044943742</speed>
  <fix>3d</fix>
</trkpt>
<trkpt lat="40.0720275" lon="-105.2296557">
  <ele>1583.0</ele>
  <time>2026-08-28T17:51:32Z</time>
  <course>94.82</course>
  <speed>0.49</speed>
  <fix>3d</fix>
</trkpt>
<trkpt lat="40.072027" lon="-105.2296542">
  <ele>1582.93</ele>
  <time>2026-08-28T17:51:32Z</time>
  <course>104.48</course>
  <speed>0.3605551275463989</speed>
  <fix>3d</fix>
</trkpt>
<trkpt lat="40.0720275" lon="-105.2296547">
  <ele>1583.0</ele>
  <time>2026-08-28T17:51:32Z</time>
  <course>100.69</course>
  <speed>0.39</speed>
  <fix>3d</fix>
</trkpt>
<trkpt lat="40.0720269" lon="-105.2296538">
  <ele>1582.93</ele>
  <time>2026-08-28T17:51:32Z</time>
  <course>106.8</course>
  <speed>0.3640054944640259</speed>
  <fix>3d</fix>
</trkpt>
<trkpt lat="40.0720275" lon="-105.2296547">
  <ele>1583.0</ele>
  <time>2026-08-28T17:51:32Z</time>
  <course>100.69</course>
  <speed>0.39</speed>
  <fix>3d</fix>
</trkpt>
<trkpt lat="40.0720269" lon="-105.2296534">
  <ele>1582.93</ele>
  <time>2026-08-28T17:51:32Z</time>
  <course>109.18</course>
  <speed>0.39</speed>
  <fix>3d</fix>
</trkpt>
<trkpt lat="40.0720273" lon="-105.2296538">
  <ele>1583.0</ele>
  <time>2026-08-28T17:51:32Z</time>
  <course>105.77</course>
  <speed>0.37</speed>
  <fix>3d</fix>
</trkpt>
<trkpt lat="40.0720267" lon="-105.2296529">
  <ele>1582.93</ele>
  <time>2026-08-28T17:51:32Z</time>
  <course>111.77</course>
  <speed>0.4295346318982906</speed>
  <fix>3d</fix>
</trkpt>
<trkpt lat="40.0720273" lon="-105.2296538">
  <ele>1583.0</ele>
  <time>2026-08-28T17:51:32Z</time>
  <course>105.77</course>
  <speed>0.37</speed>
  <fix>3d</fix>
</trkpt>
<trkpt lat="40.0720266" lon="-105.2296524">
  <ele>1582.93</ele>
  <time>2026-08-28T17:51:32Z</time>
  <course>114.65</course>
  <speed>0.49193495504995377</speed>
  <fix>3d</fix>
</trkpt>
<trkpt lat="40.0720271" lon="-105.229653">
  <ele>1583.0</ele>
  <time>2026-08-28T17:51:32Z</time>
  <course>111.08</course>
  <speed>0.43</speed>
  <fix>3d</fix>
</trkpt>
<trkpt lat="40.0720264" lon="-105.2296519">
  <ele>1582.92</ele>
  <time>2026-08-28T17:51:32Z</time>
  <course>117.94</course>
  <speed>0.5643580423808985</speed>
  <fix>3d</fix>
</trkpt>
<trkpt lat="40.0720271" lon="-105.229653">
  <ele>1583.0</ele>
  <time>2026-08-28T17:51:32Z</time>
  <course>111.08</course>
  <speed>0.43</speed>
  <fix>3d</fix>
</trkpt>
<trkpt lat="40.0720262" lon="-105.2296512">
  <ele>1582.92</ele>
  <time>2026-08-28T17:51:32Z</time>
  <course>121.75</course>
  <speed>0.6519202405202649</speed>
  <fix>3d</fix>
</trkpt>
<trkpt lat="40.0720268" lon="-105.2296519">
  <ele>1583.0</ele>
  <time>2026-08-28T17:51:32Z</time>
  <course>117.53</course>
  <speed>0.55</speed>
  <fix>3d</fix>
</trkpt>
<trkpt lat="40.0720258" lon="-105.2296505">
  <ele>1582.92</ele>
  <time>2026-08-28T17:51:32Z</time>
  <course>126.09</course>
  <speed>0.75</speed>
  <fix>3d</fix>
</trkpt>
<trkpt lat="40.0720268" lon="-105.2296519">
  <ele>1583.0</ele>
  <time>2026-08-28T17:51:32Z</time>
  <course>117.53</course>
  <speed>0.55</speed>
  <fix>3d</fix>
</trkpt>
<trkpt lat="40.0720254" lon="-105.2296498">
  <ele>1582.92</ele>
  <time>2026-08-28T17:51:32Z</time>
  <course>130.83</course>
  <speed>0.850411665018772</speed>
  <fix>3d</fix>
</trkpt>
<trkpt lat="40.0720261" lon="-105.2296506">
  <ele>1583.0</ele>
  <time>2026-08-28T17:51:32Z</time>
  <course>125.72</course>
  <speed>0.73</speed>
  <fix>3d</fix>
</trkpt>
<trkpt lat="40.0720247" lon="-105.2296488">
  <ele>1582.92</ele>
  <time>2026-08-28T17:51:32Z</time>
  <course>136.49</course>
  <speed>0.9903534722511957</speed>
  <fix>3d</fix>
</trkpt>
<trkpt lat="40.0720261" lon="-105.2296506">
  <ele>1583.0</ele>
  <time>2026-08-28T17:51:32Z</time>
  <course>125.72</course>
  <speed>0.73</speed>
  <fix>3d</fix>
</trkpt>
<trkpt lat="40.072024" lon="-105.229648">
  <ele>1582.92</ele>
  <time>2026-08-28T17:51:32Z</time>
  <course>140.9</course>
  <speed>1.101135777277262</speed>
  <fix>3d</fix>
</trkpt>
<trkpt lat="40.0720252" lon="-105.2296492">
  <ele>1583.0</ele>
  <time>2026-08-28T17:51:32Z</time>
  <course>134.81</course>
  <speed>0.93</speed>
  <fix>3d</fix>
</trkpt>
<trkpt lat="40.0720232" lon="-105.2296472">
  <ele>1582.92</ele>
  <time>2026-08-28T17:51:32Z</time>
  <course>144.72</course>
  <speed>1.2182774724995944</speed>
  <fix>3d</fix>
</trkpt>
<trkpt lat="40.0720252" lon="-105.2296492">
  <ele>1583.0</ele>
  <time>2026-08-28T17:51:32Z</time>
  <course>134.81</course>
  <speed>0.93</speed>
  <fix>3d</fix>
</trkpt>
<trkpt lat="40.0720223" lon="-105.2296463">
  <ele>1582.92</ele>
  <time>2026-08-28T17:51:32Z</time>
  <course>148.15</course>
  <speed>1.3398880550254935</speed>
  <fix>3d</fix>
</trkpt>
<trkpt lat="40.0720237" lon="-105.2296475">
  <ele>1583.0</ele>
  <time>2026-08-28T17:51:32Z</time>
  <course>142.96</course>
  <speed>1.16</speed>
  <fix>3d</fix>
</trkpt>
<trkpt lat="40.0720212" lon="-105.2296454">
  <ele>1582.92</ele>
  <time>2026-08-28T17:51:32Z</time>
  <course>151.2</course>
  <speed>1.4462710672622887</speed>
  <fix>3d</fix>
</trkpt>
<trkpt lat="40.0720237" lon="-105.2296475">
  <ele>1583.0</ele>
  <time>2026-08-28T17:51:32Z</time>
  <course>142.96</course>
  <speed>1.16</speed>
  <fix>3d</fix>
</trkpt>
<trkpt lat="40.07202" lon="-105.2296446">
  <ele>1582.93</ele>
  <time>2026-08-28T17:51:32Z</time>
  <course>153.81</course>
  <speed>1.538473269186046</speed>
  <fix>3d</fix>
</trkpt>
<trkpt lat="40.0720218" lon="-105.2296459">
  <ele>1583.0</ele>
  <time>2026-08-28T17:51:32Z</time>
  <course>149.44</course>
  <speed>1.38</speed>
  <fix>3d</fix>
</trkpt>
<trkpt lat="40.0720187" lon="-105.2296438">
  <ele>1582.93</ele>
  <time>2026-08-28T17:51:32Z</time>
  <course>155.97</course>
  <speed>1.6420109622045769</speed>
  <fix>3d</fix>
</trkpt>
<trkpt lat="40.0720218" lon="-105.2296459">
  <ele>1583.0</ele>
  <time>2026-08-28T17:51:32Z</time>
  <course>149.44</course>
  <speed>1.38</speed>
  <fix>3d</fix>
</trkpt>
<trkpt lat="40.0720173" lon="-105.229643">
  <ele>1582.93</ele>
  <time>2026-08-28T17:51:32Z</time>
  <course>157.76</course>
  <speed>1.7516278143486987</speed>
  <fix>3d</fix>
</trkpt>
<trkpt lat="40.0720194" lon="-105.2296442">
  <ele>1583.0</ele>
  <time>2026-08-28T17:51:32Z</time>
  <course>154.32</course>
  <speed>1.59</speed>
  <fix>3d</fix>
</trkpt>
<trkpt lat="40.0720159" lon="-105.2296422">
  <ele>1582.94</ele>
  <time>2026-08-28T17:51:32Z</time>
  <course>159.24</course>
  <speed>1.8625251676151922</speed>
  <fix>3d</fix>
</trkpt>
<trkpt lat="40.0720194" lon="-105.2296442">
  <ele>1583.0</ele>
  <time>2026-08-28T17:51:32Z</time>
  <course>154.32</course>
  <speed>1.59</speed>
  <fix>3d</fix>
</trkpt>
<trkpt lat="40.0720143" lon="-105.2296414">
  <ele>1582.94</ele>
  <time>2026-08-28T17:51:32Z</time>
  <course>160.46</course>
  <speed>1.9651208614230322</speed>
  <fix>3d</fix>
</trkpt>
<trkpt lat="40.0720166" lon="-105.2296427">
  <ele>1583.0</ele>
  <time>2026-08-28T17:51:32Z</time>
  <course>157.72</course>
  <speed>1.8</speed>
  <fix>3d</fix>
</trkpt>
<trkpt lat="40.0720126" lon="-105.2296406">
  <ele>1582.94</ele>
  <time>2026-08-28T17:51:32Z</time>
  <course>161.47</course>
  <speed>2.0779076014106113</speed>
  <fix>3d</fix>
</trkpt>
<trkpt lat="40.0720166" lon="-105.2296427">
  <ele>1583.0</ele>
  <time>2026-08-28T17:51:32Z</time>
  <course>157.72</course>
  <speed>1.8</speed>
  <fix>3d</fix>
</trkpt>
<trkpt lat="40.0720111" lon="-105.2296399">
  <ele>1582.94</ele>
  <time>2026-08-28T17:51:32Z</time>
  <course>162.15</course>
  <speed>2.1756838005555865</speed>
  <fix>3d</fix>
</trkpt>
<trkpt lat="40.0720135" lon="-105.229641">
  <ele>1583.0</ele>
  <time>2026-08-28T17:51:32Z</time>
  <course>160.03</course>
  <speed>2.03</speed>
  <fix>3d</fix>
</trkpt>
<trkpt lat="40.0720092" lon="-105.2296391">
  <ele>1582.95</ele>
  <time>2026-08-28T17:51:32Z</time>
  <course>162.85</course>
  <speed>2.292705825002414</speed>
  <fix>3d</fix>
</trkpt>
<trkpt lat="40.0720135" lon="-105.229641">
  <ele>1583.0</ele>
  <time>2026-08-28T17:51:32Z</time>
  <course>160.03</course>
  <speed>2.03</speed>
  <fix>3d</fix>
</trkpt>
<trkpt lat="40.0720072" lon="-105.2296383">
  <ele>1582.95</ele>
  <time>2026-08-28T17:51:32Z</time>
  <course>163.4</course>
  <speed>2.41306858584666</speed>
  <fix>3d</fix>
</trkpt>
<trkpt lat="40.0720098" lon="-105.2296394">
  <ele>1583.0</ele>
  <time>2026-08-28T17:51:32Z</time>
  <course>161.57</course>
  <speed>2.26</speed>
  <fix>3d</fix>
</trkpt>
<trkpt lat="40.0720051" lon="-105.2296374">
  <ele>1582.95</ele>
  <time>2026-08-28T17:51:32Z</time>
  <course>163.83</course>
  <speed>2.5240047543536837</speed>
  <fix>3d</fix>
</trkpt>
<trkpt lat="40.0720098" lon="-105.2296394">
  <ele>1583.0</ele>
  <time>2026-08-28T17:51:32Z</time>
  <course>161.57</course>
  <speed>2.26</speed>
  <fix>3d</fix>
</trkpt>
<trkpt lat="40.0720029" lon="-105.2296365">
  <ele>1582.95</ele>
  <time>2026-08-28T17:51:32Z</time>
  <course>164.17</course>
  <speed>2.6445793616376876</speed>
  <fix>3d</fix>
</trkpt>
<trkpt lat="40.0720058" lon="-105.2296377">
  <ele>1583.0</ele>
  <time>2026-08-28T17:51:32Z</time>
  <course>162.56</course>
  <speed>2.49</speed>
  <fix>3d</fix>
</trkpt>
<trkpt lat="40.0720005" lon="-105.2296356">
  <ele>1582.95</ele>
  <time>2026-08-28T17:51:32Z</time>
  <course>164.41</course>
  <speed>2.755666888431909</speed>
  <fix>3d</fix>
</trkpt>
<trkpt lat="40.0720058" lon="-105.2296377">
  <ele>1583.0</ele>
  <time>2026-08-28T17:51:32Z</time>
  <course>162.56</course>
  <speed>2.49</speed>
  <fix>3d</fix>
</trkpt>
<trkpt lat="40.0719981" lon="-105.2296346">
  <ele>1582.95</ele>
  <time>2026-08-28T17:51:32Z</time>
  <course>164.6</course>
  <speed>2.8792360097775935</speed>
  <fix>3d</fix>
</trkpt>
<trkpt lat="40.0720013" lon="-105.2296359">
  <ele>1583.0</ele>
  <time>2026-08-28T17:51:32Z</time>
  <course>163.15</course>
  <speed>2.72</speed>
  <fix>3d</fix>
</trkpt>
<trkpt lat="40.0719955" lon="-105.2296337">
  <ele>1582.95</ele>
  <time>2026-08-28T17:51:32Z</time>
  <course>164.72</course>
  <speed>2.9904013108611363</speed>
  <fix>3d</fix>
</trkpt>
<trkpt lat="40.0720013" lon="-105.2296359">
  <ele>1583.0</ele>
  <time>2026-08-28T17:51:32Z</time>
  <course>163.15</course>
  <speed>2.72</speed>
  <fix>3d</fix>
</trkpt>
<trkpt lat="40.0719929" lon="-105.2296326">
  <ele>1582.94</ele>
  <time>2026-08-28T17:51:32Z</time>
  <course>164.78</course>
  <speed>3.094802093834111</speed>
  <fix>3d</fix>
</trkpt>
<trkpt lat="40.0719964" lon="-105.229634">
  <ele>1583.0</ele>
  <time>2026-08-28T17:51:32Z</time>
  <course>163.44</course>
  <speed>2.94</speed>
  <fix>3d</fix>
</trkpt>
<trkpt lat="40.0719896" lon="-105.2296314">
  <ele>1582.95</ele>
  <time>2026-08-28T17:51:32Z</time>
  <course>164.79</course>
  <speed>3.2212109524214645</speed>
  <fix>3d</fix>
</trkpt>
<trkpt lat="40.0719964" lon="-105.229634">
  <ele>1583.0</ele>
  <time>2026-08-28T17:51:32Z</time>
  <course>163.44</course>
  <speed>2.94</speed>
  <fix>3d</fix>
</trkpt>
<trkpt lat="40.0719868" lon="-105.2296303">
  <ele>1582.95</ele>
  <time>2026-08-28T17:51:32Z</time>
  <course>164.79</course>
  <speed>3.335206140555633</speed>
  <fix>3d</fix>
</trkpt>
<trkpt lat="40.0719911" lon="-105.2296319">
  <ele>1583.0</ele>
  <time>2026-08-28T17:51:32Z</time>
  <course>163.53</course>
  <speed>3.16</speed>
  <fix>3d</fix>
</trkpt>
<trkpt lat="40.0719839" lon="-105.2296292">
  <ele>1582.94</ele>
  <time>2026-08-28T17:51:32Z</time>
  <course>164.76</course>
  <speed>3.430014577228499</speed>
  <fix>3d</fix>
</trkpt>
<trkpt lat="40.0719911" lon="-105.2296319">
  <ele>1583.0</ele>
  <time>2026-08-28T17:51:32Z</time>
  <course>163.53</course>
  <speed>3.16</speed>
  <fix>3d</fix>
</trkpt>
<trkpt lat="40.0719808" lon="-105.229628">
  <ele>1582.94</ele>
  <time>2026-08-28T17:51:32Z</time>
  <course>164.7</course>
  <speed>3.534416500640523</speed>
  <fix>3d</fix>
</trkpt>
<trkpt lat="40.0719854" lon="-105.2296297">
  <ele>1583.0</ele>
  <time>2026-08-28T17:51:32Z</time>
  <course>163.49</course>
  <speed>3.36</speed>
  <fix>3d</fix>
</trkpt>
<trkpt lat="40.0719777" lon="-105.2296268">
  <ele>1582.94</ele>
  <time>2026-08-28T17:51:32Z</time>
  <course>164.6</course>
  <speed>3.62922856816707</speed>
  <fix>3d</fix>
</trkpt>
<trkpt lat="40.0719854" lon="-105.2296297">
  <ele>1583.0</ele>
  <time>2026-08-28T17:51:32Z</time>
  <course>163.49</course>
  <speed>3.36</speed>
  <fix>3d</fix>
</trkpt>
<trkpt lat="40.0719746" lon="-105.2296256">
  <ele>1582.94</ele>
  <time>2026-08-28T17:51:32Z</time>
  <course>164.51</course>
  <speed>3.736482302915404</speed>
  <fix>3d</fix>
</trkpt>
<trkpt lat="40.0719795" lon="-105.2296274">
  <ele>1583.0</ele>
  <time>2026-08-28T17:51:32Z</time>
  <course>163.35</course>
  <speed>3.56</speed>
  <fix>3d</fix>
</trkpt>
<trkpt lat="40.0719713" lon="-105.2296243">
  <ele>1582.94</ele>
  <time>2026-08-28T17:51:32Z</time>
  <course>164.36</course>
  <speed>3.824617627946616</speed>
  <fix>3d</fix>
</trkpt>
<trkpt lat="40.0719795" lon="-105.2296274">
  <ele>1583.0</ele>
  <time>2026-08-28T17:51:32Z</time>
  <course>163.35</course>
  <speed>3.56</speed>
  <fix>3d</fix>
</trkpt>
<trkpt lat="40.071968" lon="-105.229623">
  <ele>1582.94</ele>
  <time>2026-08-28T17:51:32Z</time>
  <course>164.2</course>
  <speed>3.9194514922371475</speed>
  <fix>3d</fix>
</trkpt>
<trkpt lat="40.0719732" lon="-105.2296249">
  <ele>1583.0</ele>
  <time>2026-08-28T17:51:32Z</time>
  <course>163.11</course>
  <speed>3.76</speed>
  <fix>3d</fix>
</trkpt>
<trkpt lat="40.0719647" lon="-105.2296216">
  <ele>1582.94</ele>
  <time>2026-08-28T17:51:32Z</time>
  <course>164.04</course>
  <speed>4.01721296423279</speed>
  <fix>3d</fix>
</trkpt>
<trkpt lat="40.0719732" lon="-105.2296249">
  <ele>1583.0</ele>
  <time>2026-08-28T17:51:32Z</time>
  <course>163.11</course>
  <speed>3.76</speed>
  <fix>3d</fix>
</trkpt>
<trkpt lat="40.0719612" lon="-105.2296202">
  <ele>1582.94</ele>
  <time>2026-08-28T17:51:32Z</time>
  <course>163.88</course>
  <speed>4.115009112991125</speed>
  <fix>3d</fix>
</trkpt>
<trkpt lat="40.0719665" lon="-105.2296222">
  <ele>1583.0</ele>
  <time>2026-08-28T17:51:32Z</time>
  <course>162.8</course>
  <speed>3.95</speed>
  <fix>3d</fix>
</trkpt>
<trkpt lat="40.0719577" lon="-105.2296187">
  <ele>1582.93</ele>
  <time>2026-08-28T17:51:32Z</time>
  <course>163.71</course>
  <speed>4.203296325504544</speed>
  <fix>3d</fix>
</trkpt>
<trkpt lat="40.0719665" lon="-105.2296222">
  <ele>1583.0</ele>
  <time>2026-08-28T17:51:32Z</time>
  <course>162.8</course>
  <speed>3.95</speed>
  <fix>3d</fix>
</trkpt>
<trkpt lat="40.0719541" lon="-105.2296172">
  <ele>1582.93</ele>
  <time>2026-08-28T17:51:32Z</time>
  <course>163.54</course>
  <speed>4.301162633521313</speed>
  <fix>3d</fix>
</trkpt>
<trkpt lat="40.0719596" lon="-105.2296194">
  <ele>1583.0</ele>
  <time>2026-08-28T17:51:32Z</time>
  <course>162.47</course>
  <speed>4.14</speed>
  <fix>3d</fix>
</trkpt>
<trkpt lat="40.0719512" lon="-105.229616">
  <ele>1582.93</ele>
  <time>2026-08-28T17:51:32Z</time>
  <course>163.4</course>
  <speed>4.380011415510238</speed>
  <fix>3d</fix>
</trkpt>
<trkpt lat="40.0719596" lon="-105.2296194">
  <ele>1583.0</ele>
  <time>2026-08-28T17:51:32Z</time>
  <course>162.47</course>
  <speed>4.14</speed>
  <fix>3d</fix>
</trkpt>
<trkpt lat="40.0719474" lon="-105.2296144">
  <ele>1582.94</ele>
  <time>2026-08-28T17:51:32Z</time>
  <course>163.23</course>
  <speed>4.468433730066946</speed>
  <fix>3d</fix>
</trkpt>
<trkpt lat="40.0719524" lon="-105.2296164">
  <ele>1583.0</ele>
  <time>2026-08-28T17:51:32Z</time>
  <course>162.12</course>
  <speed>4.34</speed>
  <fix>3d</fix>
</trkpt>
<trkpt lat="40.0719436" lon="-105.2296128">
  <ele>1582.94</ele>
  <time>2026-08-28T17:51:32Z</time>
  <course>163.08</course>
  <speed>4.566399018920707</speed>
  <fix>3d</fix>
</trkpt>
<trkpt lat="40.0719524" lon="-105.2296164">
  <ele>1583.0</ele>
  <time>2026-08-28T17:51:32Z</time>
  <course>162.12</course>
  <speed>4.34</speed>
  <fix>3d</fix>
</trkpt>
<trkpt lat="40.0719397" lon="-105.2296111">
  <ele>1582.94</ele>
  <time>2026-08-28T17:51:32Z</time>
  <course>162.96</course>
  <speed>4.654889902027759</speed>
  <fix>3d</fix>
</trkpt>
<trkpt lat="40.0719448" lon="-105.2296131">
  <ele>1583.0</ele>
  <time>2026-08-28T17:51:32Z</time>
  <course>161.81</course>
  <speed>4.53</speed>
  <fix>3d</fix>
</trkpt>
<trkpt lat="40.0719357" lon="-105.2296093">
  <ele>1582.93</ele>
  <time>2026-08-28T17:51:32Z</time>
  <course>162.83</course>
  <speed>4.74026370574465</speed>
  <fix>3d</fix>
</trkpt>
<trkpt lat="40.0719448" lon="-105.2296131">
  <ele>1583.0</ele>
  <time>2026-08-28T17:51:32Z</time>
  <course>161.81</course>
  <speed>4.53</speed>
  <fix>3d</fix>
</trkpt>
<trkpt lat="40.0719316" lon="-105.2296075">
  <ele>1582.93</ele>
  <time>2026-08-28T17:51:32Z</time>
  <course>162.71</course>
  <speed>4.819315304065507</speed>
  <fix>3d</fix>
</trkpt>
<trkpt lat="40.0719369" lon="-105.2296097">
  <ele>1583.0</ele>
  <time>2026-08-28T17:51:32Z</time>
  <course>161.55</course>
  <speed>4.7</speed>
  <fix>3d</fix>
</trkpt>
<trkpt lat="40.0719274" lon="-105.2296057">
  <ele>1582.93</ele>
  <time>2026-08-28T17:51:32Z</time>
  <course>162.58</course>
  <speed>4.885744569663871</speed>
  <fix>3d</fix>
</trkpt>
<trkpt lat="40.0719369" lon="-105.2296097">
  <ele>1583.0</ele>
  <time>2026-08-28T17:51:32Z</time>
  <course>161.55</course>
  <speed>4.7</speed>
  <fix>3d</fix>
</trkpt>
<trkpt lat="40.0719232" lon="-105.2296038">
  <ele>1582.92</ele>
  <time>2026-08-28T17:51:32Z</time>
  <course>162.49</course>
  <speed>4.9521914341026845</speed>
  <fix>3d</fix>
</trkpt>
<trkpt lat="40.0719287" lon="-105.2296062">
  <ele>1583.0</ele>
  <time>2026-08-28T17:51:32Z</time>
  <course>161.31</course>
  <speed>4.85</speed>
  <fix>3d</fix>
</trkpt>
<trkpt lat="40.0719189" lon="-105.2296019">
  <ele>1582.92</ele>
  <time>2026-08-28T17:51:32Z</time>
  <course>162.42</course>
  <speed>5.005966440159183</speed>
  <fix>3d</fix>
</trkpt>
<trkpt lat="40.0719287" lon="-105.2296062">
  <ele>1583.0</ele>
  <time>2026-08-28T17:51:32Z</time>
  <course>161.31</course>
  <speed>4.85</speed>
  <fix>3d</fix>
</trkpt>
<trkpt lat="40.0719138" lon="-105.2295996">
  <ele>1582.92</ele>
  <time>2026-08-28T17:51:32Z</time>
  <course>162.34</course>
  <speed>5.053513629149524</speed>
  <fix>3d</fix>
</trkpt>
<trkpt lat="40.0719204" lon="-105.2296025">
  <ele>1583.0</ele>
  <time>2026-08-28T17:51:32Z</time>
  <course>161.13</course>
  <speed>4.96</speed>
  <fix>3d</fix>
</trkpt>
<trkpt lat="40.0719095" lon="-105.2295976">
  <ele>1582.92</ele>
  <time>2026-08-28T17:51:32Z</time>
  <course>162.27</course>
  <speed>5.07567729470659</speed>
  <fix>3d</fix>
</trkpt>
<trkpt lat="40.0719204" lon="-105.2296025">
  <ele>1583.0</ele>
  <time>2026-08-28T17:51:32Z</time>
  <course>161.13</course>
  <speed>4.96</speed>
  <fix>3d</fix>
</trkpt>
<trkpt lat="40.0719051" lon="-105.2295957">
  <ele>1582.93</ele>
  <time>2026-08-28T17:51:32Z</time>
  <course>162.21</course>
  <speed>5.097842680977906</speed>
  <fix>3d</fix>
</trkpt>
<trkpt lat="40.0719119" lon="-105.2295987">
  <ele>1583.0</ele>
  <time>2026-08-28T17:51:32Z</time>
  <course>161.0</course>
  <speed>5.03</speed>
  <fix>3d</fix>
</trkpt>
<trkpt lat="40.0719008" lon="-105.2295937">
  <ele>1582.93</ele>
  <time>2026-08-28T17:51:32Z</time>
  <course>162.11</course>
  <speed>5.101107722838247</speed>
  <fix>3d</fix>
</trkpt>
<trkpt lat="40.0719119" lon="-105.2295987">
  <ele>1583.0</ele>
  <time>2026-08-28T17:51:32Z</time>
  <course>161.0</course>
  <speed>5.03</speed>
  <fix>3d</fix>
</trkpt>
<trkpt lat="40.0718965" lon="-105.2295917">
  <ele>1582.93</ele>
  <time>2026-08-28T17:51:32Z</time>
  <course>162.0</course>
  <speed>5.094948478640387</speed>
  <fix>3d</fix>
</trkpt>
<trkpt lat="40.0719033" lon="-105.2295948">
  <ele>1583.0</ele>
  <time>2026-08-28T17:51:32Z</time>
  <course>160.83</course>
  <speed>5.06</speed>
  <fix>3d</fix>
</trkpt>
<trkpt lat="40.0718922" lon="-105.2295898">
  <ele>1582.93</ele>
  <time>2026-08-28T17:51:32Z</time>
  <course>161.9</course>
  <speed>5.088821081547278</speed>
  <fix>3d</fix>
</trkpt>
<trkpt lat="40.0719033" lon="-105.2295948">
  <ele>1583.0</ele>
  <time>2026-08-28T17:51:32Z</time>
  <course>160.83</course>
  <speed>5.06</speed>
  <fix>3d</fix>
</trkpt>
<trkpt lat="40.0718879" lon="-105.2295878">
  <ele>1582.93</ele>
  <time>2026-08-28T17:51:32Z</time>
  <course>161.76</course>
  <speed>5.0605335687059725</speed>
  <fix>3d</fix>
</trkpt>
<trkpt lat="40.0718947" lon="-105.2295909">
  <ele>1583.0</ele>
  <time>2026-08-28T17:51:33Z</time>
  <course>160.62</course>
  <speed>5.05</speed>
  <fix>3d</fix>
</trkpt>
<trkpt lat="40.0718837" lon="-105.2295858">
  <ele>1582.93</ele>
  <time>2026-08-28T17:51:33Z</time>
  <course>161.65</course>
  <speed>5.045047076093542</speed>
  <fix>3d</fix>
</trkpt>
<trkpt lat="40.0718947" lon="-105.2295909">
  <ele>1583.0</ele>
  <time>2026-08-28T17:51:33Z</time>
  <course>160.62</course>
  <speed>5.05</speed>
  <fix>3d</fix>
</trkpt>
<trkpt lat="40.0718795" lon="-105.2295839">
  <ele>1582.93</ele>
  <time>2026-08-28T17:51:33Z</time>
  <course>161.52</course>
  <speed>5.016811736551412</speed>
  <fix>3d</fix>
</trkpt>
<trkpt lat="40.0718862" lon="-105.2295869">
  <ele>1583.0</ele>
  <time>2026-08-28T17:51:33Z</time>
  <course>160.38</course>
  <speed>5.02</speed>
  <fix>3d</fix>
</trkpt>
<trkpt lat="40.0718754" lon="-105.2295819">
  <ele>1582.93</ele>
  <time>2026-08-28T17:51:33Z</time>
  <course>161.4</course>
  <speed>4.988596997152606</speed>
  <fix>3d</fix>
</trkpt>
<trkpt lat="40.0718862" lon="-105.2295869">
  <ele>1583.0</ele>
  <time>2026-08-28T17:51:33Z</time>
  <course>160.38</course>
  <speed>5.02</speed>
  <fix>3d</fix>
</trkpt>
<trkpt lat="40.0718712" lon="-105.2295799">
  <ele>1582.93</ele>
  <time>2026-08-28T17:51:33Z</time>
  <course>161.27</course>
  <speed>4.951009997970111</speed>
  <fix>3d</fix>
</trkpt>
<trkpt lat="40.0718777" lon="-105.2295829">
  <ele>1583.0</ele>
  <time>2026-08-28T17:51:33Z</time>
  <course>160.14</course>
  <speed>4.98</speed>
  <fix>3d</fix>
</trkpt>
<trkpt lat="40.0718679" lon="-105.2295783">
  <ele>1582.93</ele>
  <time>2026-08-28T17:51:33Z</time>
  <course>161.16</course>
  <speed>4.932230732640151</speed>
  <fix>3d</fix>
</trkpt>
<trkpt lat="40.0718777" lon="-105.2295829">
  <ele>1583.0</ele>
  <time>2026-08-28T17:51:33Z</time>
  <course>160.14</course>
  <speed>4.98</speed>
  <fix>3d</fix>
</trkpt>
<trkpt lat="40.0718638" lon="-105.2295763">
  <ele>1582.93</ele>
  <time>2026-08-28T17:51:33Z</time>
  <course>161.05</course>
  <speed>4.904079934095692</speed>
  <fix>3d</fix>
</trkpt>
<trkpt lat="40.0718693" lon="-105.229579">
  <ele>1583.0</ele>
  <time>2026-08-28T17:51:33Z</time>
  <course>159.9</course>
  <speed>4.93</speed>
  <fix>3d</fix>
</trkpt>
<trkpt lat="40.0718597" lon="-105.2295744">
  <ele>1582.93</ele>
  <time>2026-08-28T17:51:33Z</time>
  <course>160.92</course>
  <speed>4.875951189255282</speed>
  <fix>3d</fix>
</trkpt>
<trkpt lat="40.0718693" lon="-105.229579">
  <ele>1583.0</ele>
  <time>2026-08-28T17:51:33Z</time>
  <course>159.9</course>
  <speed>4.93</speed>
  <fix>3d</fix>
</trkpt>
<trkpt lat="40.0718557" lon="-105.2295724">
  <ele>1582.93</ele>
  <time>2026-08-28T17:51:33Z</time>
  <course>160.81</course>
  <speed>4.847844882006849</speed>
  <fix>3d</fix>
</trkpt>
<trkpt lat="40.0718611" lon="-105.229575">
  <ele>1583.0</ele>
  <time>2026-08-28T17:51:33Z</time>
  <course>159.67</course>
  <speed>4.88</speed>
  <fix>3d</fix>
</trkpt>
<trkpt lat="40.0718516" lon="-105.2295704">
  <ele>1582.93</ele>
  <time>2026-08-28T17:51:33Z</time>
  <course>160.68</course>
  <speed>4.823297627142658</speed>
  <fix>3d</fix>
</trkpt>
<trkpt lat="40.0718611" lon="-105.229575">
  <ele>1583.0</ele>
  <time>2026-08-28T17:51:33Z</time>
  <course>159.67</course>
  <speed>4.88</speed>
  <fix>3d</fix>
</trkpt>
<trkpt lat="40.0718476" lon="-105.2295684">
  <ele>1582.93</ele>
  <time>2026-08-28T17:51:33Z</time>
  <course>160.58</course>
  <speed>4.804601960620672</speed>
  <fix>3d</fix>
</trkpt>
<trkpt lat="40.0718529" lon="-105.2295709">
  <ele>1583.0</ele>
  <time>2026-08-28T17:51:33Z</time>
  <course>159.43</course>
  <speed>4.83</speed>
  <fix>3d</fix>
</trkpt>
<trkpt lat="40.0718435" lon="-105.2295664">
  <ele>1582.93</ele>
  <time>2026-08-28T17:51:33Z</time>
  <course>160.47</course>
  <speed>4.785916840063145</speed>
  <fix>3d</fix>
</trkpt>
<trkpt lat="40.0718529" lon="-105.2295709">
  <ele>1583.0</ele>
  <time>2026-08-28T17:51:33Z</time>
  <course>159.43</course>
  <speed>4.83</speed>
  <fix>3d</fix>
</trkpt>
<trkpt lat="40.0718395" lon="-105.2295643">
  <ele>1582.93</ele>
  <time>2026-08-28T17:51:33Z</time>
  <course>160.35</course>
  <speed>4.767242389474234</speed>
  <fix>3d</fix>
</trkpt>
<trkpt lat="40.0718448" lon="-105.229567">
  <ele>1583.0</ele>
  <time>2026-08-28T17:51:33Z</time>
  <course>159.2</course>
  <speed>4.8</speed>
  <fix>3d</fix>
</trkpt>
<trkpt lat="40.0718355" lon="-105.2295623">
  <ele>1582.94</ele>
  <time>2026-08-28T17:51:33Z</time>
  <course>160.24</course>
  <speed>4.752188969306671</speed>
  <fix>3d</fix>
</trkpt>
<trkpt lat="40.0718448" lon="-105.229567">
  <ele>1583.0</ele>
  <time>2026-08-28T17:51:33Z</time>
  <course>159.2</course>
  <speed>4.8</speed>
  <fix>3d</fix>
</trkpt>
<trkpt lat="40.0718315" lon="-105.2295603">
  <ele>1582.94</ele>
  <time>2026-08-28T17:51:33Z</time>
  <course>160.14</course>
  <speed>4.742868330451521</speed>
  <fix>3d</fix>
</trkpt>
<trkpt lat="40.0718368" lon="-105.2295629">
  <ele>1583.0</ele>
  <time>2026-08-28T17:51:33Z</time>
  <course>158.98</course>
  <speed>4.77</speed>
  <fix>3d</fix>
</trkpt>
<trkpt lat="40.0718267" lon="-105.2295578">
  <ele>1582.94</ele>
  <time>2026-08-28T17:51:33Z</time>
  <course>160.01</course>
  <speed>4.737193261837646</speed>
  <fix>3d</fix>
</trkpt>
<trkpt lat="40.0718368" lon="-105.2295629">
  <ele>1583.0</ele>
  <time>2026-08-28T17:51:33Z</time>
  <course>158.98</course>
  <speed>4.77</speed>
  <fix>3d</fix>
</trkpt>
<trkpt lat="40.0718227" lon="-105.2295558">
  <ele>1582.95</ele>
  <time>2026-08-28T17:51:33Z</time>
  <course>159.91</course>
  <speed>4.727885362400404</speed>
  <fix>3d</fix>
</trkpt>
<trkpt lat="40.0718288" lon="-105.229559">
  <ele>1583.0</ele>
  <time>2026-08-28T17:51:33Z</time>
  <course>158.77</course>
  <speed>4.75</speed>
  <fix>3d</fix>
</trkpt>
<trkpt lat="40.0718187" lon="-105.2295538">
  <ele>1582.95</ele>
  <time>2026-08-28T17:51:33Z</time>
  <course>159.8</course>
  <speed>4.7222558168739655</speed>
  <fix>3d</fix>
</trkpt>
<trkpt lat="40.0718288" lon="-105.229559">
  <ele>1583.0</ele>
  <time>2026-08-28T17:51:33Z</time>
  <course>158.77</course>
  <speed>4.75</speed>
  <fix>3d</fix>
</trkpt>
<trkpt lat="40.0718148" lon="-105.2295517">
  <ele>1582.95</ele>
  <time>2026-08-28T17:51:33Z</time>
  <course>159.71</course>
  <speed>4.7222558168739655</speed>
  <fix>3d</fix>
</trkpt>
<trkpt lat="40.0718209" lon="-105.2295549">
  <ele>1583.0</ele>
  <time>2026-08-28T17:51:33Z</time>
  <course>158.56</course>
  <speed>4.74</speed>
  <fix>3d</fix>
</trkpt>
<trkpt lat="40.0718108" lon="-105.2295497">
  <ele>1582.96</ele>
  <time>2026-08-28T17:51:33Z</time>
  <course>159.6</course>
  <speed>4.716661955239108</speed>
  <fix>3d</fix>
</trkpt>
<trkpt lat="40.0718209" lon="-105.2295549">
  <ele>1583.0</ele>
  <time>2026-08-28T17:51:33Z</time>
  <course>158.56</course>
  <speed>4.74</speed>
  <fix>3d</fix>
</trkpt>
<trkpt lat="40.0718069" lon="-105.2295476">
  <ele>1582.96</ele>
  <time>2026-08-28T17:51:33Z</time>
  <course>159.5</course>
  <speed>4.720381340527479</speed>
  <fix>3d</fix>
</trkpt>
<trkpt lat="40.0718129" lon="-105.2295508">
  <ele>1583.0</ele>
  <time>2026-08-28T17:51:33Z</time>
  <course>158.36</course>
  <speed>4.74</speed>
  <fix>3d</fix>
</trkpt>
<trkpt lat="40.0718029" lon="-105.2295455">
  <ele>1582.96</ele>
  <time>2026-08-28T17:51:33Z</time>
  <course>159.4</course>
  <speed>4.720381340527479</speed>
  <fix>3d</fix>
</trkpt>
<trkpt lat="40.0718129" lon="-105.2295508">
  <ele>1583.0</ele>
  <time>2026-08-28T17:51:33Z</time>
  <course>158.36</course>
  <speed>4.74</speed>
  <fix>3d</fix>
</trkpt>
<trkpt lat="40.071799" lon="-105.2295435">
  <ele>1582.96</ele>
  <time>2026-08-28T17:51:33Z</time>
  <course>159.31</course>
  <speed>4.724118965479172</speed>
  <fix>3d</fix>
</trkpt>
<trkpt lat="40.071805" lon="-105.2295467">
  <ele>1583.0</ele>
  <time>2026-08-28T17:51:33Z</time>
  <course>158.16</course>
  <speed>4.74</speed>
  <fix>3d</fix>
</trkpt>
<trkpt lat="40.0717951" lon="-105.2295414">
  <ele>1582.95</ele>
  <time>2026-08-28T17:51:33Z</time>
  <course>159.22</course>
  <speed>4.727874786836047</speed>
  <fix>3d</fix>
</trkpt>
<trkpt lat="40.071805" lon="-105.2295467">
  <ele>1583.0</ele>
  <time>2026-08-28T17:51:33Z</time>
  <course>158.16</course>
  <speed>4.74</speed>
  <fix>3d</fix>
</trkpt>
<trkpt lat="40.0717912" lon="-105.2295393">
  <ele>1582.95</ele>
  <time>2026-08-28T17:51:33Z</time>
  <course>159.11</course>
  <speed>4.740907086201965</speed>
  <fix>3d</fix>
</trkpt>
<trkpt lat="40.0717971" lon="-105.2295426">
  <ele>1583.0</ele>
  <time>2026-08-28T17:51:33Z</time>
  <course>157.97</course>
  <speed>4.76</speed>
  <fix>3d</fix>
</trkpt>
<trkpt lat="40.0717873" lon="-105.2295373">
  <ele>1582.95</ele>
  <time>2026-08-28T17:51:33Z</time>
  <course>159.01</course>
  <speed>4.744691770810829</speed>
  <fix>3d</fix>
</trkpt>
<trkpt lat="40.0717971" lon="-105.2295426">
  <ele>1583.0</ele>
  <time>2026-08-28T17:51:33Z</time>
  <course>157.97</course>
  <speed>4.76</speed>
  <fix>3d</fix>
</trkpt>
<trkpt lat="40.0717841" lon="-105.2295356">
  <ele>1582.95</ele>
  <time>2026-08-28T17:51:33Z</time>
  <course>158.95</course>
  <speed>4.7539457296018846</speed>
  <fix>3d</fix>
</trkpt>
<trkpt lat="40.0717891" lon="-105.2295383">
  <ele>1583.0</ele>
  <time>2026-08-28T17:51:33Z</time>
  <course>157.78</course>
  <speed>4.78</speed>
  <fix>3d</fix>
</trkpt>
<trkpt lat="40.0717801" lon="-105.2295335">
  <ele>1582.94</ele>
  <time>2026-08-28T17:51:33Z</time>
  <course>158.85</course>
  <speed>4.757741060629509</speed>
  <fix>3d</fix>
</trkpt>
<trkpt lat="40.0717891" lon="-105.2295383">
  <ele>1583.0</ele>
  <time>2026-08-28T17:51:33Z</time>
  <course>157.78</course>
  <speed>4.78</speed>
  <fix>3d</fix>
</trkpt>
<trkpt lat="40.0717761" lon="-105.2295313">
  <ele>1582.94</ele>
  <time>2026-08-28T17:51:33Z</time>
  <course>158.76</course>
  <speed>4.770796579188847</speed>
  <fix>3d</fix>
</trkpt>
<trkpt lat="40.0717812" lon="-105.229534">
  <ele>1583.0</ele>
  <time>2026-08-28T17:51:33Z</time>
  <course>157.6</course>
  <speed>4.8</speed>
  <fix>3d</fix>
</trkpt>
<trkpt lat="40.0717722" lon="-105.2295292">
  <ele>1582.93</ele>
  <time>2026-08-28T17:51:33Z</time>
  <course>158.68</course>
  <speed>4.783858275492701</speed>
  <fix>3d</fix>
</trkpt>
<trkpt lat="40.0717812" lon="-105.229534">
  <ele>1583.0</ele>
  <time>2026-08-28T17:51:33Z</time>
  <course>157.6</course>
  <speed>4.8</speed>
  <fix>3d</fix>
</trkpt>
<trkpt lat="40.0717682" lon="-105.229527">
  <ele>1582.93</ele>
  <time>2026-08-28T17:51:33Z</time>
  <course>158.6</course>
  <speed>4.796926099076366</speed>
  <fix>3d</fix>
</trkpt>
<trkpt lat="40.0717731" lon="-105.2295297">
  <ele>1583.0</ele>
  <time>2026-08-28T17:51:33Z</time>
  <course>157.42</course>
  <speed>4.83</speed>
  <fix>3d</fix>
</trkpt>
<trkpt lat="40.0717641" lon="-105.2295248">
  <ele>1582.93</ele>
  <time>2026-08-28T17:51:33Z</time>
  <course>158.53</course>
  <speed>4.81</speed>
  <fix>3d</fix>
</trkpt>
<trkpt lat="40.0717731" lon="-105.2295297">
  <ele>1583.0</ele>
  <time>2026-08-28T17:51:33Z</time>
  <course>157.42</course>
  <speed>4.83</speed>
  <fix>3d</fix>
</trkpt>
<trkpt lat="40.0717601" lon="-105.2295226">
  <ele>1582.94</ele>
  <time>2026-08-28T17:51:33Z</time>
  <course>158.46</course>
  <speed>4.823079928842151</speed>
  <fix>3d</fix>
</trkpt>
<trkpt lat="40.0717651" lon="-105.2295254">
  <ele>1583.0</ele>
  <time>2026-08-28T17:51:33Z</time>
  <course>157.26</course>
  <speed>4.85</speed>
  <fix>3d</fix>
</trkpt>
<trkpt lat="40.071756" lon="-105.2295204">
  <ele>1582.94</ele>
  <time>2026-08-28T17:51:33Z</time>
  <course>158.38</course>
  <speed>4.836165836693361</speed>
  <fix>3d</fix>
</trkpt>
<trkpt lat="40.0717651" lon="-105.2295254">
  <ele>1583.0</ele>
  <time>2026-08-28T17:51:33Z</time>
  <course>157.26</course>
  <speed>4.85</speed>
  <fix>3d</fix>
</trkpt>
<trkpt lat="40.0717519" lon="-105.2295181">
  <ele>1582.94</ele>
  <time>2026-08-28T17:51:33Z</time>
  <course>158.29</course>
  <speed>4.840041322137653</speed>
  <fix>3d</fix>
</trkpt>
<trkpt lat="40.0717571" lon="-105.2295209">
  <ele>1583.0</ele>
  <time>2026-08-28T17:51:33Z</time>
  <course>157.1</course>
  <speed>4.87</speed>
  <fix>3d</fix>
</trkpt>
<trkpt lat="40.0717479" lon="-105.2295159">
  <ele>1582.95</ele>
  <time>2026-08-28T17:51:33Z</time>
  <course>158.23</course>
  <speed>4.849257675149878</speed>
  <fix>3d</fix>
</trkpt>
<trkpt lat="40.0717571" lon="-105.2295209">
  <ele>1583.0</ele>
  <time>2026-08-28T17:51:33Z</time>
  <course>157.1</course>
  <speed>4.87</speed>
  <fix>3d</fix>
</trkpt>
<trkpt lat="40.071743" lon="-105.2295132">
  <ele>1582.95</ele>
  <time>2026-08-28T17:51:33Z</time>
  <course>158.14</course>
  <speed>4.853143311298359</speed>
  <fix>3d</fix>
</trkpt>
<trkpt lat="40.071749" lon="-105.2295164">
  <ele>1583.0</ele>
  <time>2026-08-28T17:51:33Z</time>
  <course>156.95</course>
  <speed>4.89</speed>
  <fix>3d</fix>
</trkpt>
<trkpt lat="40.0717389" lon="-105.2295109">
  <ele>1582.95</ele>
  <time>2026-08-28T17:51:33Z</time>
  <course>158.07</course>
  <speed>4.866251123811841</speed>
  <fix>3d</fix>
</trkpt>
<trkpt lat="40.071749" lon="-105.2295164">
  <ele>1583.0</ele>
  <time>2026-08-28T17:51:33Z</time>
  <course>156.95</course>
  <speed>4.89</speed>
  <fix>3d</fix>
</trkpt>
<trkpt lat="40.0717349" lon="-105.2295087">
  <ele>1582.95</ele>
  <time>2026-08-28T17:51:33Z</time>
  <course>158.01</course>
  <speed>4.87016426827679</speed>
  <fix>3d</fix>
</trkpt>
<trkpt lat="40.0717409" lon="-105.2295119">
  <ele>1583.0</ele>
  <time>2026-08-28T17:51:33Z</time>
  <course>156.81</course>
  <speed>4.9</speed>
  <fix>3d</fix>
</trkpt>
<trkpt lat="40.0717308" lon="-105.2295064">
  <ele>1582.95</ele>
  <time>2026-08-28T17:51:33Z</time>
  <course>157.94</course>
  <speed>4.87016426827679</speed>
  <fix>3d</fix>
</trkpt>
<trkpt lat="40.0717409" lon="-105.2295119">
  <ele>1583.0</ele>
  <time>2026-08-28T17:51:33Z</time>
  <course>156.81</course>
  <speed>4.9</speed>
  <fix>3d</fix>
</trkpt>
<trkpt lat="40.0717267" lon="-105.2295041">
  <ele>1582.95</ele>
  <time>2026-08-28T17:51:33Z</time>
  <course>157.88</course>
  <speed>4.8740947877529015</speed>
  <fix>3d</fix>
</trkpt>
<trkpt lat="40.0717328" lon="-105.2295073">
  <ele>1583.0</ele>
  <time>2026-08-28T17:51:33Z</time>
  <course>156.67</course>
  <speed>4.91</speed>
  <fix>3d</fix>
</trkpt>
<trkpt lat="40.0717227" lon="-105.2295018">
  <ele>1582.96</ele>
  <time>2026-08-28T17:51:33Z</time>
  <course>157.81</course>
  <speed>4.8740947877529015</speed>
  <fix>3d</fix>
</trkpt>
<trkpt lat="40.0717328" lon="-105.2295073">
  <ele>1583.0</ele>
  <time>2026-08-28T17:51:33Z</time>
  <course>156.67</course>
  <speed>4.91</speed>
  <fix>3d</fix>
</trkpt>
<trkpt lat="40.0717187" lon="-105.2294995">
  <ele>1582.96</ele>
  <time>2026-08-28T17:51:33Z</time>
  <course>157.75</course>
  <speed>4.878042640240038</speed>
  <fix>3d</fix>
</trkpt>
<trkpt lat="40.0717247" lon="-105.2295028">
  <ele>1583.0</ele>
  <time>2026-08-28T17:51:33Z</time>
  <course>156.54</course>
  <speed>4.91</speed>
  <fix>3d</fix>
</trkpt>
<trkpt lat="40.0717147" lon="-105.2294973">
  <ele>1582.96</ele>
  <time>2026-08-28T17:51:33Z</time>
  <course>157.68</course>
  <speed>4.878042640240038</speed>
  <fix>3d</fix>
</trkpt>
<trkpt lat="40.0717247" lon="-105.2295028">
  <ele>1583.0</ele>
  <time>2026-08-28T17:51:33Z</time>
  <course>156.54</course>
  <speed>4.91</speed>
  <fix>3d</fix>
</trkpt>
<trkpt lat="40.0717107" lon="-105.229495">
  <ele>1582.96</ele>
  <time>2026-08-28T17:51:33Z</time>
  <course>157.61</course>
  <speed>4.868860236235992</speed>
  <fix>3d</fix>
</trkpt>
<trkpt lat="40.0717166" lon="-105.2294982">
  <ele>1583.0</ele>
  <time>2026-08-28T17:51:33Z</time>
  <course>156.41</course>
  <speed>4.92</speed>
  <fix>3d</fix>
</trkpt>
<trkpt lat="40.0717067" lon="-105.2294927">
  <ele>1582.96</ele>
  <time>2026-08-28T17:51:33Z</time>
  <course>157.54</course>
  <speed>4.8728328516377415</speed>
  <fix>3d</fix>
</trkpt>
<trkpt lat="40.0717166" lon="-105.2294982">
  <ele>1583.0</ele>
  <time>2026-08-28T17:51:33Z</time>
  <course>156.41</course>
  <speed>4.92</speed>
  <fix>3d</fix>
</trkpt>
<trkpt lat="40.0717026" lon="-105.2294904">
  <ele>1582.96</ele>
  <time>2026-08-28T17:51:33Z</time>
  <course>157.48</course>
  <speed>4.8728328516377415</speed>
  <fix>3d</fix>
</trkpt>
<trkpt lat="40.0717085" lon="-105.2294935">
  <ele>1583.0</ele>
  <time>2026-08-28T17:51:33Z</time>
  <course>156.27</course>
  <speed>4.92</speed>
  <fix>3d</fix>
</trkpt>
<trkpt lat="40.0716994" lon="-105.2294885">
  <ele>1582.97</ele>
  <time>2026-08-28T17:51:33Z</time>
  <course>157.42</course>
  <speed>4.8768227361674725</speed>
  <fix>3d</fix>
</trkpt>
<trkpt lat="40.0717085" lon="-105.2294935">
  <ele>1583.0</ele>
  <time>2026-08-28T17:51:33Z</time>
  <course>156.27</course>
  <speed>4.92</speed>
  <fix>3d</fix>
</trkpt>
<trkpt lat="40.0716954" lon="-105.2294862">
  <ele>1582.97</ele>
  <time>2026-08-28T17:51:33Z</time>
  <course>157.35</course>
  <speed>4.8768227361674725</speed>
  <fix>3d</fix>
</trkpt>
<trkpt lat="40.0717004" lon="-105.2294889">
  <ele>1583.0</ele>
  <time>2026-08-28T17:51:33Z</time>
  <course>156.14</course>
  <speed>4.93</speed>
  <fix>3d</fix>
</trkpt>
<trkpt lat="40.0716914" lon="-105.2294839">
  <ele>1582.98</ele>
  <time>2026-08-28T17:51:33Z</time>
  <course>157.29</course>
  <speed>4.88082984747471</speed>
  <fix>3d</fix>
</trkpt>
<trkpt lat="40.0717004" lon="-105.2294889">
  <ele>1583.0</ele>
  <time>2026-08-28T17:51:33Z</time>
  <course>156.14</course>
  <speed>4.93</speed>
  <fix>3d</fix>
</trkpt>
<trkpt lat="40.0716873" lon="-105.2294816">
  <ele>1582.98</ele>
  <time>2026-08-28T17:51:33Z</time>
  <course>157.22</course>
  <speed>4.88082984747471</speed>
  <fix>3d</fix>
</trkpt>
<trkpt lat="40.0716922" lon="-105.2294842">
  <ele>1583.0</ele>
  <time>2026-08-28T17:51:33Z</time>
  <course>156.0</course>
  <speed>4.93</speed>
  <fix>3d</fix>
</trkpt>
<trkpt lat="40.0716833" lon="-105.2294792">
  <ele>1582.98</ele>
  <time>2026-08-28T17:51:33Z</time>
  <course>157.15</course>
  <speed>4.884854143165382</speed>
  <fix>3d</fix>
</trkpt>
<trkpt lat="40.0716922" lon="-105.2294842">
  <ele>1583.0</ele>
  <time>2026-08-28T17:51:33Z</time>
  <course>156.0</course>
  <speed>4.93</speed>
  <fix>3d</fix>
</trkpt>
<trkpt lat="40.0716792" lon="-105.2294768">
  <ele>1582.98</ele>
  <time>2026-08-28T17:51:33Z</time>
  <course>157.09</course>
  <speed>4.884854143165382</speed>
  <fix>3d</fix>
</trkpt>
<trkpt lat="40.0716841" lon="-105.2294794">
  <ele>1583.0</ele>
  <time>2026-08-28T17:51:33Z</time>
  <course>155.87</course>
  <speed>4.94</speed>
  <fix>3d</fix>
</trkpt>
<trkpt lat="40.0716751" lon="-105.2294744">
  <ele>1582.98</ele>
  <time>2026-08-28T17:51:33Z</time>
  <course>157.02</course>
  <speed>4.888895580803501</speed>
  <fix>3d</fix>
</trkpt>
<trkpt lat="40.0716841" lon="-105.2294794">
  <ele>1583.0</ele>
  <time>2026-08-28T17:51:33Z</time>
  <course>155.87</course>
  <speed>4.94</speed>
  <fix>3d</fix>
</trkpt>
<trkpt lat="40.071671" lon="-105.229472">
  <ele>1582.98</ele>
  <time>2026-08-28T17:51:33Z</time>
  <course>156.95</course>
  <speed>4.892954117912818</speed>
  <fix>3d</fix>
</trkpt>
<trkpt lat="40.0716761" lon="-105.2294747">
  <ele>1583.0</ele>
  <time>2026-08-28T17:51:33Z</time>
  <course>155.74</course>
  <speed>4.94</speed>
  <fix>3d</fix>
</trkpt>
<trkpt lat="40.0716669" lon="-105.2294696">
  <ele>1582.98</ele>
  <time>2026-08-28T17:51:33Z</time>
  <course>156.89</course>
  <speed>4.892954117912818</speed>
  <fix>3d</fix>
</trkpt>
<trkpt lat="40.0716761" lon="-105.2294747">
  <ele>1583.0</ele>
  <time>2026-08-28T17:51:33Z</time>
  <course>155.74</course>
  <speed>4.94</speed>
  <fix>3d</fix>
</trkpt>
<trkpt lat="40.0716629" lon="-105.2294672">
  <ele>1582.98</ele>
  <time>2026-08-28T17:51:33Z</time>
  <course>156.82</course>
  <speed>4.897029711978477</speed>
  <fix>3d</fix>
</trkpt>
<trkpt lat="40.071668" lon="-105.2294699">
  <ele>1583.0</ele>
  <time>2026-08-28T17:51:33Z</time>
  <course>155.6</course>
  <speed>4.94</speed>
  <fix>3d</fix>
</trkpt>
<trkpt lat="40.071658" lon="-105.2294643">
  <ele>1582.98</ele>
  <time>2026-08-28T17:51:33Z</time>
  <course>156.74</course>
  <speed>4.887903436034718</speed>
  <fix>3d</fix>
</trkpt>
<trkpt lat="40.071668" lon="-105.2294699">
  <ele>1583.0</ele>
  <time>2026-08-28T17:51:33Z</time>
  <course>155.6</course>
  <speed>4.94</speed>
  <fix>3d</fix>
</trkpt>
<trkpt lat="40.0716539" lon="-105.2294619">
  <ele>1582.99</ele>
  <time>2026-08-28T17:51:33Z</time>
  <course>156.71</course>
  <speed>4.878780585351221</speed>
  <fix>3d</fix>
</trkpt>
<trkpt lat="40.0716599" lon="-105.2294651">
  <ele>1583.0</ele>
  <time>2026-08-28T17:51:33Z</time>
  <course>155.49</course>
  <speed>4.93</speed>
  <fix>3d</fix>
</trkpt>
<trkpt lat="40.0716499" lon="-105.2294595">
  <ele>1582.98</ele>
  <time>2026-08-28T17:51:33Z</time>
  <course>156.68</course>
  <speed>4.865562660165831</speed>
  <fix>3d</fix>
</trkpt>
<trkpt lat="40.0716599" lon="-105.2294651">
  <ele>1583.0</ele>
  <time>2026-08-28T17:51:33Z</time>
  <course>155.49</course>
  <speed>4.93</speed>
  <fix>3d</fix>
</trkpt>
<trkpt lat="40.0716459" lon="-105.2294571">
  <ele>1582.98</ele>
  <time>2026-08-28T17:51:33Z</time>
  <course>156.68</course>
  <speed>4.843222068003903</speed>
  <fix>3d</fix>
</trkpt>
<trkpt lat="40.0716518" lon="-105.2294603">
  <ele>1583.0</ele>
  <time>2026-08-28T17:51:33Z</time>
  <course>155.42</course>
  <speed>4.9</speed>
  <fix>3d</fix>
</trkpt>
<trkpt lat="40.0716419" lon="-105.2294547">
  <ele>1582.98</ele>
  <time>2026-08-28T17:51:33Z</time>
  <course>156.68</course>
  <speed>4.811756436063654</speed>
  <fix>3d</fix>
</trkpt>
<trkpt lat="40.0716518" lon="-105.2294603">
  <ele>1583.0</ele>
  <time>2026-08-28T17:51:33Z</time>
  <course>155.42</course>
  <speed>4.9</speed>
  <fix>3d</fix>
</trkpt>
<trkpt lat="40.0716379" lon="-105.2294523">
  <ele>1582.98</ele>
  <time>2026-08-28T17:51:33Z</time>
  <course>156.68</course>
  <speed>4.767074574621211</speed>
  <fix>3d</fix>
</trkpt>
<trkpt lat="40.0716439" lon="-105.2294555">
  <ele>1583.0</ele>
  <time>2026-08-28T17:51:33Z</time>
  <course>155.4</course>
  <speed>4.85</speed>
  <fix>3d</fix>
</trkpt>
<trkpt lat="40.071634" lon="-105.22945">
  <ele>1582.98</ele>
  <time>2026-08-28T17:51:33Z</time>
  <course>156.68</course>
  <speed>4.7132685049761385</speed>
  <fix>3d</fix>
</trkpt>
<trkpt lat="40.0716439" lon="-105.2294555">
  <ele>1583.0</ele>
  <time>2026-08-28T17:51:33Z</time>
  <course>155.4</course>
  <speed>4.85</speed>
  <fix>3d</fix>
</trkpt>
<trkpt lat="40.0716302" lon="-105.2294477">
  <ele>1582.98</ele>
  <time>2026-08-28T17:51:33Z</time>
  <course>156.68</course>
  <speed>4.646245796339233</speed>
  <fix>3d</fix>
</trkpt>
<trkpt lat="40.071636" lon="-105.2294508">
  <ele>1583.0</ele>
  <time>2026-08-28T17:51:33Z</time>
  <course>155.4</course>
  <speed>4.75</speed>
  <fix>3d</fix>
</trkpt>
<trkpt lat="40.0716264" lon="-105.2294455">
  <ele>1582.98</ele>
  <time>2026-08-28T17:51:33Z</time>
  <course>156.68</course>
  <speed>4.560975772792484</speed>
  <fix>3d</fix>
</trkpt>
<trkpt lat="40.071636" lon="-105.2294508">
  <ele>1583.0</ele>
  <time>2026-08-28T17:51:33Z</time>
  <course>155.4</course>
  <speed>4.75</speed>
  <fix>3d</fix>
</trkpt>
<trkpt lat="40.0716228" lon="-105.2294433">
  <ele>1582.98</ele>
  <time>2026-08-28T17:51:33Z</time>
  <course>156.67</course>
  <speed>4.4757122338237965</speed>
  <fix>3d</fix>
</trkpt>
<trkpt lat="40.0716283" lon="-105.2294462">
  <ele>1583.0</ele>
  <time>2026-08-28T17:51:33Z</time>
  <course>155.4</course>
  <speed>4.62</speed>
  <fix>3d</fix>
</trkpt>
<trkpt lat="40.0716192" lon="-105.2294411">
  <ele>1582.98</ele>
  <time>2026-08-28T17:51:33Z</time>
  <course>156.67</course>
  <speed>4.377225148424513</speed>
  <fix>3d</fix>
</trkpt>
<trkpt lat="40.0716283" lon="-105.2294462">
  <ele>1583.0</ele>
  <time>2026-08-28T17:51:33Z</time>
  <course>155.4</course>
  <speed>4.62</speed>
  <fix>3d</fix>
</trkpt>
<trkpt lat="40.0716163" lon="-105.2294394">
  <ele>1582.98</ele>
  <time>2026-08-28T17:51:33Z</time>
  <course>156.67</course>
  <speed>4.296975680638651</speed>
  <fix>3d</fix>
</trkpt>
<trkpt lat="40.0716209" lon="-105.2294418">
  <ele>1583.0</ele>
  <time>2026-08-28T17:51:33Z</time>
  <course>155.4</course>
  <speed>4.44</speed>
  <fix>3d</fix>
</trkpt>
<trkpt lat="40.0716128" lon="-105.2294373">
  <ele>1582.98</ele>
  <time>2026-08-28T17:51:33Z</time>
  <course>156.67</course>
  <speed>4.189367494025799</speed>
  <fix>3d</fix>
</trkpt>
<trkpt lat="40.0716209" lon="-105.2294418">
  <ele>1583.0</ele>
  <time>2026-08-28T17:51:33Z</time>
  <course>155.4</course>
  <speed>4.44</speed>
  <fix>3d</fix>
</trkpt>
<trkpt lat="40.0716094" lon="-105.2294352">
  <ele>1582.98</ele>
  <time>2026-08-28T17:51:33Z</time>
  <course>156.67</course>
  <speed>4.068537820888483</speed>
  <fix>3d</fix>
</trkpt>
<trkpt lat="40.0716138" lon="-105.2294376">
  <ele>1583.0</ele>
  <time>2026-08-28T17:51:33Z</time>
  <course>155.4</course>
  <speed>4.23</speed>
  <fix>3d</fix>
</trkpt>
<trkpt lat="40.0716062" lon="-105.2294333">
  <ele>1582.98</ele>
  <time>2026-08-28T17:51:33Z</time>
  <course>156.67</course>
  <speed>3.951822364428847</speed>
  <fix>3d</fix>
</trkpt>
<trkpt lat="40.0716138" lon="-105.2294376">
  <ele>1583.0</ele>
  <time>2026-08-28T17:51:33Z</time>
  <course>155.4</course>
  <speed>4.23</speed>
  <fix>3d</fix>
</trkpt>
<trkpt lat="40.071603" lon="-105.2294314">
  <ele>1582.98</ele>
  <time>2026-08-28T17:51:33Z</time>
  <course>156.67</course>
  <speed>3.8309920386239384</speed>
  <fix>3d</fix>
</trkpt>
<trkpt lat="40.071607" lon="-105.2294335">
  <ele>1583.0</ele>
  <time>2026-08-28T17:51:33Z</time>
  <course>155.4</course>
  <speed>4.0</speed>
  <fix>3d</fix>
</trkpt>
<trkpt lat="40.0715998" lon="-105.2294295">
  <ele>1582.98</ele>
  <time>2026-08-28T17:51:33Z</time>
  <course>156.67</course>
  <speed>3.710161721542607</speed>
  <fix>3d</fix>
</trkpt>
<trkpt lat="40.071607" lon="-105.2294335">
  <ele>1583.0</ele>
  <time>2026-08-28T17:51:33Z</time>
  <course>155.4</course>
  <speed>4.0</speed>
  <fix>3d</fix>
</trkpt>
<trkpt lat="40.0715968" lon="-105.2294277">
  <ele>1582.97</ele>
  <time>2026-08-28T17:51:33Z</time>
  <course>156.67</course>
  <speed>3.580223456713282</speed>
  <fix>3d</fix>
</trkpt>
<trkpt lat="40.0716007" lon="-105.2294297">
  <ele>1583.0</ele>
  <time>2026-08-28T17:51:33Z</time>
  <course>155.4</course>
  <speed>3.76</speed>
  <fix>3d</fix>
</trkpt>
<trkpt lat="40.0715939" lon="-105.2294259">
  <ele>1582.98</ele>
  <time>2026-08-28T17:51:33Z</time>
  <course>156.67</course>
  <speed>3.4461572802180696</speed>
  <fix>3d</fix>
</trkpt>
<trkpt lat="40.0716007" lon="-105.2294297">
  <ele>1583.0</ele>
  <time>2026-08-28T17:51:33Z</time>
  <course>155.4</course>
  <speed>3.76</speed>
  <fix>3d</fix>
</trkpt>
<trkpt lat="40.0715911" lon="-105.2294242">
  <ele>1582.98</ele>
  <time>2026-08-28T17:51:33Z</time>
  <course>156.67</course>
  <speed>3.3162177250596803</speed>
  <fix>3d</fix>
</trkpt>
<trkpt lat="40.0715948" lon="-105.2294261">
  <ele>1583.0</ele>
  <time>2026-08-28T17:51:33Z</time>
  <course>155.4</course>
  <speed>3.5</speed>
  <fix>3d</fix>
</trkpt>
<trkpt lat="40.0715884" lon="-105.2294226">
  <ele>1582.98</ele>
  <time>2026-08-28T17:51:33Z</time>
  <course>156.67</course>
  <speed>3.195387300469225</speed>
  <fix>3d</fix>
</trkpt>
<trkpt lat="40.0715948" lon="-105.2294261">
  <ele>1583.0</ele>
  <time>2026-08-28T17:51:33Z</time>
  <course>155.4</course>
  <speed>3.5</speed>
  <fix>3d</fix>
</trkpt>
<trkpt lat="40.0715854" lon="-105.2294207">
  <ele>1582.98</ele>
  <time>2026-08-28T17:51:33Z</time>
  <course>156.66</course>
  <speed>3.034007251144928</speed>
  <fix>3d</fix>
</trkpt>
<trkpt lat="40.0715893" lon="-105.2294229">
  <ele>1583.0</ele>
  <time>2026-08-28T17:51:33Z</time>
  <course>155.4</course>
  <speed>3.25</speed>
  <fix>3d</fix>
</trkpt>
<trkpt lat="40.0715829" lon="-105.2294192">
  <ele>1582.98</ele>
  <time>2026-08-28T17:51:33Z</time>
  <course>156.66</course>
  <speed>2.913176959952828</speed>
  <fix>3d</fix>
</trkpt>
<trkpt lat="40.0715893" lon="-105.2294229">
  <ele>1583.0</ele>
  <time>2026-08-28T17:51:33Z</time>
  <course>155.4</course>
  <speed>3.25</speed>
  <fix>3d</fix>
</trkpt>
<trkpt lat="40.0715806" lon="-105.2294178">
  <ele>1582.98</ele>
  <time>2026-08-28T17:51:33Z</time>
  <course>156.66</course>
  <speed>2.779100573926752</speed>
  <fix>3d</fix>
</trkpt>
<trkpt lat="40.0715842" lon="-105.2294198">
  <ele>1583.0</ele>
  <time>2026-08-28T17:51:33Z</time>
  <course>155.4</course>
  <speed>3.0</speed>
  <fix>3d</fix>
</trkpt>
<trkpt lat="40.0715783" lon="-105.2294165">
  <ele>1582.98</ele>
  <time>2026-08-28T17:51:33Z</time>
  <course>156.66</course>
  <speed>2.6582701141908056</speed>
  <fix>3d</fix>
</trkpt>
<trkpt lat="40.0715842" lon="-105.2294198">
  <ele>1583.0</ele>
  <time>2026-08-28T17:51:33Z</time>
  <course>155.4</course>
  <speed>3.0</speed>
  <fix>3d</fix>
</trkpt>
<trkpt lat="40.0715762" lon="-105.2294152">
  <ele>1582.97</ele>
  <time>2026-08-28T17:51:33Z</time>
  <course>156.66</course>
  <speed>2.53743965445486</speed>
  <fix>3d</fix>
</trkpt>
<trkpt lat="40.0715795" lon="-105.229417">
  <ele>1583.0</ele>
  <time>2026-08-28T17:51:33Z</time>
  <course>155.4</course>
  <speed>2.75</speed>
  <fix>3d</fix>
</trkpt>
<trkpt lat="40.0715742" lon="-105.229414">
  <ele>1582.97</ele>
  <time>2026-08-28T17:51:33Z</time>
  <course>156.66</course>
  <speed>2.4166091947189146</speed>
  <fix>3d</fix>
</trkpt>
<trkpt lat="40.0715795" lon="-105.229417">
  <ele>1583.0</ele>
  <time>2026-08-28T17:51:33Z</time>
  <course>155.4</course>
  <speed>2.75</speed>
  <fix>3d</fix>
</trkpt>
<trkpt lat="40.0715722" lon="-105.2294128">
  <ele>1582.97</ele>
  <time>2026-08-28T17:51:33Z</time>
  <course>156.66</course>
  <speed>2.2999347816840374</speed>
  <fix>3d</fix>
</trkpt>
<trkpt lat="40.0715751" lon="-105.2294144">
  <ele>1583.0</ele>
  <time>2026-08-28T17:51:33Z</time>
  <course>155.4</course>
  <speed>2.51</speed>
  <fix>3d</fix>
</trkpt>
<trkpt lat="40.0715704" lon="-105.2294117">
  <ele>1582.96</ele>
  <time>2026-08-28T17:51:33Z</time>
  <course>156.67</course>
  <speed>2.1881956036881163</speed>
  <fix>3d</fix>
</trkpt>
<trkpt lat="40.0715751" lon="-105.2294144">
  <ele>1583.0</ele>
  <time>2026-08-28T17:51:33Z</time>
  <course>155.4</course>
  <speed>2.51</speed>
  <fix>3d</fix>
</trkpt>
<trkpt lat="40.0715687" lon="-105.2294106">
  <ele>1582.96</ele>
  <time>2026-08-28T17:51:33Z</time>
  <course>156.7</course>
  <speed>2.0764633394307737</speed>
  <fix>3d</fix>
</trkpt>
<trkpt lat="40.0715712" lon="-105.229412">
  <ele>1583.0</ele>
  <time>2026-08-28T17:51:33Z</time>
  <course>155.42</course>
  <speed>2.28</speed>
  <fix>3d</fix>
</trkpt>
<trkpt lat="40.071567" lon="-105.2294096">
  <ele>1582.95</ele>
  <time>2026-08-28T17:51:33Z</time>
  <course>156.73</course>
  <speed>1.964739168439414</speed>
  <fix>3d</fix>
</trkpt>
<trkpt lat="40.0715712" lon="-105.229412">
  <ele>1583.0</ele>
  <time>2026-08-28T17:51:33Z</time>
  <course>155.42</course>
  <speed>2.28</speed>
  <fix>3d</fix>
</trkpt>
<trkpt lat="40.0715654" lon="-105.2294087">
  <ele>1582.95</ele>
  <time>2026-08-28T17:51:33Z</time>
  <course>156.75</course>
  <speed>1.8571483516402236</speed>
  <fix>3d</fix>
</trkpt>
<trkpt lat="40.0715677" lon="-105.22941">
  <ele>1583.0</ele>
  <time>2026-08-28T17:51:33Z</time>
  <course>155.46</course>
  <speed>2.06</speed>
  <fix>3d</fix>
</trkpt>
<trkpt lat="40.0715642" lon="-105.229408">
  <ele>1582.95</ele>
  <time>2026-08-28T17:51:33Z</time>
  <course>156.77</course>
  <speed>1.7768792868397112</speed>
  <fix>3d</fix>
</trkpt>
<trkpt lat="40.0715677" lon="-105.22941">
  <ele>1583.0</ele>
  <time>2026-08-28T17:51:33Z</time>
  <course>155.46</course>
  <speed>2.06</speed>
  <fix>3d</fix>
</trkpt>
<trkpt lat="40.0715628" lon="-105.2294071">
  <ele>1582.95</ele>
  <time>2026-08-28T17:51:33Z</time>
  <course>156.8</course>
  <speed>1.6692812824685959</speed>
  <fix>3d</fix>
</trkpt>
<trkpt lat="40.0715644" lon="-105.2294081">
  <ele>1583.0</ele>
  <time>2026-08-28T17:51:33Z</time>
  <course>155.52</course>
  <speed>1.85</speed>
  <fix>3d</fix>
</trkpt>
<trkpt lat="40.0715614" lon="-105.2294063">
  <ele>1582.95</ele>
  <time>2026-08-28T17:51:33Z</time>
  <course>156.83</course>
  <speed>1.5707959765672945</speed>
  <fix>3d</fix>
</trkpt>
<trkpt lat="40.0715644" lon="-105.2294081">
  <ele>1583.0</ele>
  <time>2026-08-28T17:51:33Z</time>
  <course>155.52</course>
  <speed>1.85</speed>
  <fix>3d</fix>
</trkpt>
<trkpt lat="40.0715602" lon="-105.2294056">
  <ele>1582.95</ele>
  <time>2026-08-28T17:51:33Z</time>
  <course>156.87</course>
  <speed>1.4681961721786363</speed>
  <fix>3d</fix>
</trkpt>
<trkpt lat="40.0715616" lon="-105.2294063">
  <ele>1583.0</ele>
  <time>2026-08-28T17:51:33Z</time>
  <course>155.58</course>
  <speed>1.65</speed>
  <fix>3d</fix>
</trkpt>
<trkpt lat="40.071559" lon="-105.2294049">
  <ele>1582.95</ele>
  <time>2026-08-28T17:51:33Z</time>
  <course>156.91</course>
  <speed>1.3697079980784226</speed>
  <fix>3d</fix>
</trkpt>
<trkpt lat="40.0715616" lon="-105.2294063">
  <ele>1583.0</ele>
  <time>2026-08-28T17:51:33Z</time>
  <course>155.58</course>
  <speed>1.65</speed>
  <fix>3d</fix>
</trkpt>
<trkpt lat="40.0715579" lon="-105.2294042">
  <ele>1582.95</ele>
  <time>2026-08-28T17:51:33Z</time>
  <course>156.96</course>
  <speed>1.2803515142334936</speed>
  <fix>3d</fix>
</trkpt>
<trkpt lat="40.0715591" lon="-105.2294048">
  <ele>1583.0</ele>
  <time>2026-08-28T17:51:33Z</time>
  <course>155.66</course>
  <speed>1.45</speed>
  <fix>3d</fix>
</trkpt>
<trkpt lat="40.0715568" lon="-105.2294036">
  <ele>1582.95</ele>
  <time>2026-08-28T17:51:33Z</time>
  <course>157.01</course>
  <speed>1.1818629362155326</speed>
  <fix>3d</fix>
</trkpt>
<trkpt lat="40.0715591" lon="-105.2294048">
  <ele>1583.0</ele>
  <time>2026-08-28T17:51:33Z</time>
  <course>155.66</course>
  <speed>1.45</speed>
  <fix>3d</fix>
</trkpt>
<trkpt lat="40.0715558" lon="-105.229403">
  <ele>1582.94</ele>
  <time>2026-08-28T17:51:33Z</time>
  <course>157.07</course>
  <speed>1.0833743581975714</speed>
  <fix>3d</fix>
</trkpt>
<trkpt lat="40.0715568" lon="-105.2294035">
  <ele>1583.0</ele>
  <time>2026-08-28T17:51:33Z</time>
  <course>155.76</course>
  <speed>1.26</speed>
  <fix>3d</fix>
</trkpt>
<trkpt lat="40.0715549" lon="-105.2294025">
  <ele>1582.94</ele>
  <time>2026-08-28T17:51:33Z</time>
  <course>157.13</course>
  <speed>0.9940321926376429</speed>
  <fix>3d</fix>
</trkpt>
<trkpt lat="40.0715568" lon="-105.2294035">
  <ele>1583.0</ele>
  <time>2026-08-28T17:51:33Z</time>
  <course>155.76</course>
  <speed>1.26</speed>
  <fix>3d</fix>
</trkpt>
<trkpt lat="40.071554" lon="-105.2294019">
  <ele>1582.94</ele>
  <time>2026-08-28T17:51:33Z</time>
  <course>157.22</course>
  <speed>0.8823831367382311</speed>
  <fix>3d</fix>
</trkpt>
<trkpt lat="40.0715549" lon="-105.2294024">
  <ele>1583.0</ele>
  <time>2026-08-28T17:51:33Z</time>
  <course>155.89</course>
  <speed>1.07</speed>
  <fix>3d</fix>
</trkpt>
<trkpt lat="40.0715532" lon="-105.2294015">
  <ele>1582.94</ele>
  <time>2026-08-28T17:51:33Z</time>
  <course>157.29</course>
  <speed>0.7930952023559341</speed>
  <fix>3d</fix>
</trkpt>
<trkpt lat="40.0715549" lon="-105.2294024">
  <ele>1583.0</ele>
  <time>2026-08-28T17:51:33Z</time>
  <course>155.89</course>
  <speed>1.07</speed>
  <fix>3d</fix>
</trkpt>
<trkpt lat="40.0715526" lon="-105.2294011">
  <ele>1582.93</ele>
  <time>2026-08-28T17:51:33Z</time>
  <course>157.37</course>
  <speed>0.6946221994724903</speed>
  <fix>3d</fix>
</trkpt>
<trkpt lat="40.0715533" lon="-105.2294015">
  <ele>1583.0</ele>
  <time>2026-08-28T17:51:33Z</time>
  <course>156.03</course>
  <speed>0.89</speed>
  <fix>3d</fix>
</trkpt>
<trkpt lat="40.071552" lon="-105.2294008">
  <ele>1582.93</ele>
  <time>2026-08-28T17:51:33Z</time>
  <course>157.44</course>
  <speed>0.6053924347066124</speed>
  <fix>3d</fix>
</trkpt>
<trkpt lat="40.0715533" lon="-105.2294015">
  <ele>1583.0</ele>
  <time>2026-08-28T17:51:33Z</time>
  <course>156.03</course>
  <speed>0.89</speed>
  <fix>3d</fix>
</trkpt>
<trkpt lat="40.0715515" lon="-105.2294005">
  <ele>1582.93</ele>
  <time>2026-08-28T17:51:33Z</time>
  <course>157.51</course>
  <speed>0.52</speed>
  <fix>3d</fix>
</trkpt>
<trkpt lat="40.0715519" lon="-105.2294007">
  <ele>1583.0</ele>
  <time>2026-08-28T17:51:33Z</time>
  <course>156.18</course>
  <speed>0.71</speed>
  <fix>3d</fix>
</trkpt>
<trkpt lat="40.071551" lon="-105.2294003">
  <ele>1582.92</ele>
  <time>2026-08-28T17:51:33Z</time>
  <course>157.57</course>
  <speed>0.4308131845707603</speed>
  <fix>3d</fix>
</trkpt>
<trkpt lat="40.0715519" lon="-105.2294007">
  <ele>1583.0</ele>
  <time>2026-08-28T17:51:33Z</time>
  <course>156.18</course>
  <speed>0.71</speed>
  <fix>3d</fix>
</trkpt>
<trkpt lat="40.0715507" lon="-105.2294001">
  <ele>1582.92</ele>
  <time>2026-08-28T17:51:33Z</time>
  <course>157.63</course>
  <speed>0.3417601498127012</speed>
  <fix>3d</fix>
</trkpt>
<trkpt lat="40.0715509" lon="-105.2294001">
  <ele>1583.0</ele>
  <time>2026-08-28T17:51:33Z</time>
  <course>156.31</course>
  <speed>0.53</speed>
  <fix>3d</fix>
</trkpt>
<trkpt lat="40.0715504" lon="-105.2293999">
  <ele>1582.92</ele>
  <time>2026-08-28T17:51:33Z</time>
  <course>157.68</course>
  <speed>0.2529822128134704</speed>
  <fix>3d</fix>
</trkpt>
<trkpt lat="40.0715509" lon="-105.2294001">
  <ele>1583.0</ele>
  <time>2026-08-28T17:51:33Z</time>
  <course>156.31</course>
  <speed>0.53</speed>
  <fix>3d</fix>
</trkpt>
<trkpt lat="40.0715502" lon="-105.2293998">
  <ele>1582.92</ele>
  <time>2026-08-28T17:51:33Z</time>
  <course>157.71</course>
  <speed>0.1676305461424021</speed>
  <fix>3d</fix>
</trkpt>
<trkpt lat="40.0715502" lon="-105.2293997">
  <ele>1583.0</ele>
  <time>2026-08-28T17:51:33Z</time>
  <course>156.41</course>
  <speed>0.35</speed>
  <fix>3d</fix>
</trkpt>
<trkpt lat="40.07155" lon="-105.2293997">
  <ele>1582.92</ele>
  <time>2026-08-28T17:51:33Z</time>
  <course>157.73</course>
  <speed>0.08062257748298549</speed>
  <fix>3d</fix>
</trkpt>
<trkpt lat="40.0715502" lon="-105.2293997">
  <ele>1583.0</ele>
  <time>2026-08-28T17:51:33Z</time>
  <course>156.41</course>
  <speed>0.35</speed>
  <fix>3d</fix>
</trkpt>
<trkpt lat="40.07155" lon="-105.2293997">
  <ele>1582.92</ele>
  <time>2026-08-28T17:51:33Z</time>
  <course>157.74</course>
  <speed>0.01</speed>
  <fix>3d</fix>
</trkpt>
<trkpt lat="40.0715498" lon="-105.2293995">
  <ele>1583.0</ele>
  <time>2026-08-28T17:51:33Z</time>
  <course>156.47</course>
  <speed>0.17</speed>
  <fix>3d</fix>
</trkpt>
<trkpt lat="40.07155" lon="-105.2293997">
  <ele>1582.92</ele>
  <time>2026-08-28T17:51:33Z</time>
  <course>157.74</course>
  <speed>0.07211102550927978</speed>
  <fix>3d</fix>
</trkpt>
<trkpt lat="40.0715498" lon="-105.2293995">
  <ele>1583.0</ele>
  <time>2026-08-28T17:51:33Z</time>
  <course>156.47</course>
  <speed>0.17</speed>
  <fix>3d</fix>
</trkpt>
<trkpt lat="40.07155" lon="-105.2293997">
  <ele>1582.91</ele>
  <time>2026-08-28T17:51:33Z</time>
  <course>157.74</course>
  <speed>0.12529964086141668</speed>
  <fix>3d</fix>
</trkpt>
<trkpt lat="40.0715497" lon="-105.2293993">
  <ele>1583.0</ele>
  <time>2026-08-28T17:51:33Z</time>
  <course>156.26</course>
  <speed>0.01</speed>
  <fix>3d</fix>
</trkpt>
<trkpt lat="40.0715501" lon="-105.2293998">
  <ele>1582.91</ele>
  <time>2026-08-28T17:51:33Z</time>
  <course>157.74</course>
  <speed>0.1835755975068582</speed>
  <fix>3d</fix>
</trkpt>
<trkpt lat="40.0715497" lon="-105.2293993">
  <ele>1583.0</ele>
  <time>2026-08-28T17:51:33Z</time>
  <course>156.26</course>
  <speed>0.01</speed>
  <fix>3d</fix>
</trkpt>
<trkpt lat="40.0715502" lon="-105.2293999">
  <ele>1582.91</ele>
  <time>2026-08-28T17:51:33Z</time>
  <course>157.74</course>
  <speed>0.23706539182259395</speed>
  <fix>3d</fix>
</trkpt>
<trkpt lat="40.0715497" lon="-105.2293994">
  <ele>1583.0</ele>
  <time>2026-08-28T17:51:33Z</time>
  <course>336.55</course>
  <speed>0.11</speed>
  <fix>3d</fix>
</trkpt>
<trkpt lat="40.0715504" lon="-105.2294">
  <ele>1582.91</ele>
  <time>2026-08-28T17:51:33Z</time>
  <course>157.73</course>
  <speed>0.28178005607210743</speed>
  <fix>3d</fix>
</trkpt>
<trkpt lat="40.0715497" lon="-105.2293994">
  <ele>1583.0</ele>
  <time>2026-08-28T17:51:33Z</time>
  <course>336.55</course>
  <speed>0.11</speed>
  <fix>3d</fix>
</trkpt>
<trkpt lat="40.0715505" lon="-105.2294">
  <ele>1582.91</ele>
  <time>2026-08-28T17:51:33Z</time>
  <course>157.71</course>
  <speed>0.31304951684997057</speed>
  <fix>3d</fix>
</trkpt>
<trkpt lat="40.0715499" lon="-105.2293995">
  <ele>1583.0</ele>
  <time>2026-08-28T17:51:33Z</time>
  <course>336.52</course>
  <speed>0.21</speed>
  <fix>3d</fix>
</trkpt>
<trkpt lat="40.0715507" lon="-105.2294002">
  <ele>1582.91</ele>
  <time>2026-08-28T17:51:33Z</time>
  <course>157.68</course>
  <speed>0.32649655434629016</speed>
  <fix>3d</fix>
</trkpt>
<trkpt lat="40.0715499" lon="-105.2293995">
  <ele>1583.0</ele>
  <time>2026-08-28T17:51:33Z</time>
  <course>336.52</course>
  <speed>0.21</speed>
  <fix>3d</fix>
</trkpt>
<trkpt lat="40.071551" lon="-105.2294003">
  <ele>1582.91</ele>
  <time>2026-08-28T17:51:33Z</time>
  <course>157.65</course>
  <speed>0.34</speed>
  <fix>3d</fix>
</trkpt>
<trkpt lat="40.0715503" lon="-105.2293996">
  <ele>1583.0</ele>
  <time>2026-08-28T17:51:33Z</time>
  <course>336.48</course>
  <speed>0.26</speed>
  <fix>3d</fix>
</trkpt>
<trkpt lat="40.0715512" lon="-105.2294004">
  <ele>1582.91</ele>
  <time>2026-08-28T17:51:33Z</time>
  <course>157.61</course>
  <speed>0.3312099032335839</speed>
  <fix>3d</fix>
</trkpt>
<trkpt lat="40.0715503" lon="-105.2293996">
  <ele>1583.0</ele>
  <time>2026-08-28T17:51:33Z</time>
  <course>336.48</course>
  <speed>0.26</speed>
  <fix>3d</fix>
</trkpt>
<trkpt lat="40.0715514" lon="-105.2294006">
  <ele>1582.91</ele>
  <time>2026-08-28T17:51:33Z</time>
  <course>157.56</course>
  <speed>0.32249030993194194</speed>
  <fix>3d</fix>
</trkpt>
<trkpt lat="40.0715507" lon="-105.2293999">
  <ele>1583.0</ele>
  <time>2026-08-28T17:51:33Z</time>
  <course>336.41</course>
  <speed>0.27</speed>
  <fix>3d</fix>
</trkpt>
<trkpt lat="40.0715517" lon="-105.2294007">
  <ele>1582.91</ele>
  <time>2026-08-28T17:51:33Z</time>
  <course>157.5</course>
  <speed>0.30886890422961</speed>
  <fix>3d</fix>
</trkpt>
<trkpt lat="40.0715507" lon="-105.2293999">
  <ele>1583.0</ele>
  <time>2026-08-28T17:51:33Z</time>
  <course>336.41</course>
  <speed>0.27</speed>
  <fix>3d</fix>
</trkpt>
<trkpt lat="40.0715518" lon="-105.2294009">
  <ele>1582.91</ele>
  <time>2026-08-28T17:51:33Z</time>
  <course>157.44</course>
  <speed>0.291547594742265</speed>
  <fix>3d</fix>
</trkpt>
<trkpt lat="40.0715512" lon="-105.2294001">
  <ele>1583.0</ele>
  <time>2026-08-28T17:51:33Z</time>
  <course>336.31</course>
  <speed>0.25</speed>
  <fix>3d</fix>
</trkpt>
<trkpt lat="40.071552" lon="-105.229401">
  <ele>1582.91</ele>
  <time>2026-08-28T17:51:33Z</time>
  <course>157.38</course>
  <speed>0.2692582403567252</speed>
  <fix>3d</fix>
</trkpt>
<trkpt lat="40.0715512" lon="-105.2294001">
  <ele>1583.0</ele>
  <time>2026-08-28T17:51:33Z</time>
  <course>336.31</course>
  <speed>0.25</speed>
  <fix>3d</fix>
</trkpt>
<trkpt lat="40.0715522" lon="-105.2294011">
  <ele>1582.91</ele>
  <time>2026-08-28T17:51:33Z</time>
  <course>157.33</course>
  <speed>0.24698178070456936</speed>
  <fix>3d</fix>
</trkpt>
<trkpt lat="40.0715516" lon="-105.2294004">
  <ele>1583.0</ele>
  <time>2026-08-28T17:51:33Z</time>
  <course>336.21</course>
  <speed>0.22</speed>
  <fix>3d</fix>
</trkpt>
<trkpt lat="40.0715523" lon="-105.2294012">
  <ele>1582.91</ele>
  <time>2026-08-28T17:51:33Z</time>
  <course>157.27</course>
  <speed>0.2220360331117452</speed>
  <fix>3d</fix>
</trkpt>
<trkpt lat="40.0715516" lon="-105.2294004">
  <ele>1583.0</ele>
  <time>2026-08-28T17:51:33Z</time>
  <course>336.21</course>
  <speed>0.22</speed>
  <fix>3d</fix>
</trkpt>
<trkpt lat="40.0715524" lon="-105.2294013">
  <ele>1582.91</ele>
  <time>2026-08-28T17:51:33Z</time>
  <course>157.22</course>
  <speed>0.2</speed>
  <fix>3d</fix>
</trkpt>
<trkpt lat="40.0715519" lon="-105.2294005">
  <ele>1583.0</ele>
  <time>2026-08-28T17:51:33Z</time>
  <course>336.12</course>
  <speed>0.18</speed>
  <fix>3d</fix>
</trkpt>
<trkpt lat="40.0715525" lon="-105.2294013">
  <ele>1582.91</ele>
  <time>2026-08-28T17:51:33Z</time>
  <course>157.22</course>
  <speed>0.17804493814764857</speed>
  <fix>3d</fix>
</trkpt>
<trkpt lat="40.0715519" lon="-105.2294005">
  <ele>1583.0</ele>
  <time>2026-08-28T17:51:33Z</time>
  <course>336.12</course>
  <speed>0.18</speed>
  <fix>3d</fix>
</trkpt>
<trkpt lat="40.0715526" lon="-105.2294014">
  <ele>1582.91</ele>
  <time>2026-08-28T17:51:33Z</time>
  <course>157.21</course>
  <speed>0.15620499351813308</speed>
  <fix>3d</fix>
</trkpt>
<trkpt lat="40.0715522" lon="-105.2294007">
  <ele>1583.0</ele>
  <time>2026-08-28T17:51:33Z</time>
  <course>336.06</course>
  <speed>0.13</speed>
  <fix>3d</fix>
</trkpt>
<trkpt lat="40.0715527" lon="-105.2294014">
  <ele>1582.91</ele>
  <time>2026-08-28T17:51:33Z</time>
  <course>157.2</course>
  <speed>0.12727922061357855</speed>
  <fix>3d</fix>
</trkpt>
<trkpt lat="40.0715522" lon="-105.2294007">
  <ele>1583.0</ele>
  <time>2026-08-28T17:51:33Z</time>
  <course>336.06</course>
  <speed>0.13</speed>
  <fix>3d</fix>
</trkpt>
<trkpt lat="40.0715527" lon="-105.2294015">
  <ele>1582.91</ele>
  <time>2026-08-28T17:51:33Z</time>
  <course>157.2</course>
  <speed>0.11401754250991379</speed>
  <fix>3d</fix>
</trkpt>
<trkpt lat="40.0715524" lon="-105.2294008">
  <ele>1583.0</ele>
  <time>2026-08-28T17:51:33Z</time>
  <course>336.07</course>
  <speed>0.09</speed>
  <fix>3d</fix>
</trkpt>
<trkpt lat="40.0715527" lon="-105.2294015">
  <ele>1582.91</ele>
  <time>2026-08-28T17:51:33Z</time>
  <course>157.19</course>
  <speed>0.1</speed>
  <fix>3d</fix>
</trkpt>
<trkpt lat="40.0715524" lon="-105.2294008">
  <ele>1583.0</ele>
  <time>2026-08-28T17:51:33Z</time>
  <course>336.07</course>
  <speed>0.09</speed>
  <fix>3d</fix>
</trkpt>
<trkpt lat="40.0715528" lon="-105.2294015">
  <ele>1582.91</ele>
  <time>2026-08-28T17:51:33Z</time>
  <course>157.18</course>
  <speed>0.1</speed>
  <fix>3d</fix>
</trkpt>
<trkpt lat="40.0715525" lon="-105.2294009">
  <ele>1583.0</ele>
  <time>2026-08-28T17:51:33Z</time>
  <course>336.09</course>
  <speed>0.06</speed>
  <fix>3d</fix>
</trkpt>
<trkpt lat="40.0715528" lon="-105.2294015">
  <ele>1582.91</ele>
  <time>2026-08-28T17:51:33Z</time>
  <course>157.17</course>
  <speed>0.09433981132056603</speed>
  <fix>3d</fix>
</trkpt>
<trkpt lat="40.0715525" lon="-105.2294009">
  <ele>1583.0</ele>
  <time>2026-08-28T17:51:33Z</time>
  <course>336.09</course>
  <speed>0.06</speed>
  <fix>3d</fix>
</trkpt>
<trkpt lat="40.0715528" lon="-105.2294016">
  <ele>1582.91</ele>
  <time>2026-08-28T17:51:33Z</time>
  <course>157.16</course>
  <speed>0.09433981132056603</speed>
  <fix>3d</fix>
</trkpt>
<trkpt lat="40.0715526" lon="-105.229401">
  <ele>1583.0</ele>
  <time>2026-08-28T17:51:33Z</time>
  <course>336.11</course>
  <speed>0.05</speed>
  <fix>3d</fix>
</trkpt>
<trkpt lat="40.0715528" lon="-105.2294016">
  <ele>1582.91</ele>
  <time>2026-08-28T17:51:33Z</time>
  <course>157.15</course>
  <speed>0.08062257748298549</speed>
  <fix>3d</fix>
</trkpt>
<trkpt lat="40.0715526" lon="-105.229401">
  <ele>1583.0</ele>
  <time>2026-08-28T17:51:33Z</time>
  <course>336.11</course>
  <speed>0.05</speed>
  <fix>3d</fix>
</trkpt>
<trkpt lat="40.0715529" lon="-105.2294016">
  <ele>1582.91</ele>
  <time>2026-08-28T17:51:33Z</time>
  <course>157.15</course>
  <speed>0.08062257748298549</speed>
  <fix>3d</fix>
</trkpt>
<trkpt lat="40.0715527" lon="-105.229401">
  <ele>1583.0</ele>
  <time>2026-08-28T17:51:33Z</time>
  <course>336.11</course>
  <speed>0.05</speed>
  <fix>3d</fix>
</trkpt>
<trkpt lat="40.0715529" lon="-105.2294016">
  <ele>1582.91</ele>
  <time>2026-08-28T17:51:33Z</time>
  <course>157.13</course>
  <speed>0.08062257748298549</speed>
  <fix>3d</fix>
</trkpt>
<trkpt lat="40.0715527" lon="-105.229401">
  <ele>1583.0</ele>
  <time>2026-08-28T17:51:33Z</time>
  <course>336.11</course>
  <speed>0.05</speed>
  <fix>3d</fix>
</trkpt>
<trkpt lat="40.0715529" lon="-105.2294016">
  <ele>1582.91</ele>
  <time>2026-08-28T17:51:33Z</time>
  <course>157.13</course>
  <speed>0.07615773105863909</speed>
  <fix>3d</fix>
</trkpt>
<trkpt lat="40.0715527" lon="-105.229401">
  <ele>1583.0</ele>
  <time>2026-08-28T17:51:33Z</time>
  <course>336.12</course>
  <speed>0.04</speed>
  <fix>3d</fix>
</trkpt>
<trkpt lat="40.0715529" lon="-105.2294016">
  <ele>1582.91</ele>
  <time>2026-08-28T17:51:33Z</time>
  <course>157.11</course>
  <speed>0.07615773105863909</speed>
  <fix>3d</fix>
</trkpt>
<trkpt lat="40.0715527" lon="-105.229401">
  <ele>1583.0</ele>
  <time>2026-08-28T17:51:33Z</time>
  <course>336.12</course>
  <speed>0.04</speed>
  <fix>3d</fix>
</trkpt>
<trkpt lat="40.0715529" lon="-105.2294017">
  <ele>1582.91</ele>
  <time>2026-08-28T17:51:33Z</time>
  <course>157.11</course>
  <speed>0.07615773105863909</speed>
  <fix>3d</fix>
</trkpt>
<trkpt lat="40.0715528" lon="-105.2294011">
  <ele>1583.0</ele>
  <time>2026-08-28T17:51:33Z</time>
  <course>336.13</course>
  <speed>0.04</speed>
  <fix>3d</fix>
</trkpt>
<trkpt lat="40.0715529" lon="-105.2294017">
  <ele>1582.91</ele>
  <time>2026-08-28T17:51:33Z</time>
  <course>157.09</course>
  <speed>0.0632455532033676</speed>
  <fix>3d</fix>
</trkpt>
<trkpt lat="40.0715528" lon="-105.2294011">
  <ele>1583.0</ele>
  <time>2026-08-28T17:51:33Z</time>
  <course>336.13</course>
  <speed>0.04</speed>
  <fix>3d</fix>
</trkpt>
<trkpt lat="40.071553" lon="-105.2294017">
  <ele>1582.91</ele>
  <time>2026-08-28T17:51:33Z</time>
  <course>157.08</course>
  <speed>0.0632455532033676</speed>
  <fix>3d</fix>
</trkpt>
<trkpt lat="40.0715529" lon="-105.2294012">
  <ele>1583.0</ele>
  <time>2026-08-28T17:51:33Z</time>
  <course>336.14</course>
  <speed>0.03</speed>
  <fix>3d</fix>
</trkpt>
<trkpt lat="40.071553" lon="-105.2294017">
  <ele>1582.92</ele>
  <time>2026-08-28T17:51:33Z</time>
  <course>157.07</course>
  <speed>0.0632455532033676</speed>
  <fix>3d</fix>
</trkpt>
<trkpt lat="40.0715529" lon="-105.2294012">
  <ele>1583.0</ele>
  <time>2026-08-28T17:51:33Z</time>
  <course>336.14</course>
  <speed>0.03</speed>
  <fix>3d</fix>
</trkpt>
<trkpt lat="40.071553" lon="-105.2294017">
  <ele>1582.92</ele>
  <time>2026-08-28T17:51:33Z</time>
  <course>157.06</course>
  <speed>0.06082762530298219</speed>
  <fix>3d</fix>
</trkpt>
<trkpt lat="40.0715529" lon="-105.2294012">
  <ele>1583.0</ele>
  <time>2026-08-28T17:51:33Z</time>
  <course>336.16</course>
  <speed>0.03</speed>
  <fix>3d</fix>
</trkpt>
<trkpt lat="40.071553" lon="-105.2294017">
  <ele>1582.93</ele>
  <time>2026-08-28T17:51:33Z</time>
  <course>157.05</course>
  <speed>0.06082762530298219</speed>
  <fix>3d</fix>
</trkpt>
<trkpt lat="40.0715529" lon="-105.2294012">
  <ele>1583.0</ele>
  <time>2026-08-28T17:51:33Z</time>
  <course>336.16</course>
  <speed>0.03</speed>
  <fix>3d</fix>
</trkpt>
<trkpt lat="40.071553" lon="-105.2294017">
  <ele>1582.93</ele>
  <time>2026-08-28T17:51:33Z</time>
  <course>157.04</course>
  <speed>0.06082762530298219</speed>
  <fix>3d</fix>
</trkpt>
<trkpt lat="40.071553" lon="-105.2294012">
  <ele>1583.0</ele>
  <time>2026-08-28T17:51:33Z</time>
  <course>336.17</course>
  <speed>0.03</speed>
  <fix>3d</fix>
</trkpt>
<trkpt lat="40.071553" lon="-105.2294017">
  <ele>1582.94</ele>
  <time>2026-08-28T17:51:33Z</time>
  <course>157.03</course>
  <speed>0.05099019513592785</speed>
  <fix>3d</fix>
</trkpt>
<trkpt lat="40.071553" lon="-105.2294012">
  <ele>1583.0</ele>
  <time>2026-08-28T17:51:33Z</time>
  <course>336.17</course>
  <speed>0.03</speed>
  <fix>3d</fix>
</trkpt>
<trkpt lat="40.071553" lon="-105.2294017">
  <ele>1582.94</ele>
  <time>2026-08-28T17:51:33Z</time>
  <course>157.02</course>
  <speed>0.05099019513592785</speed>
  <fix>3d</fix>
</trkpt>
<trkpt lat="40.071553" lon="-105.2294012">
  <ele>1583.0</ele>
  <time>2026-08-28T17:51:33Z</time>
  <course>336.19</course>
  <speed>0.02</speed>
  <fix>3d</fix>
</trkpt>
<trkpt lat="40.071553" lon="-105.2294017">
  <ele>1582.94</ele>
  <time>2026-08-28T17:51:33Z</time>
  <course>157.01</course>
  <speed>0.05099019513592785</speed>
  <fix>3d</fix>
</trkpt>
<trkpt lat="40.071553" lon="-105.2294012">
  <ele>1583.0</ele>
  <time>2026-08-28T17:51:33Z</time>
  <course>336.19</course>
  <speed>0.02</speed>
  <fix>3d</fix>
</trkpt>
<trkpt lat="40.071553" lon="-105.2294017">
  <ele>1582.94</ele>
  <time>2026-08-28T17:51:33Z</time>
  <course>157.0</course>
  <speed>0.05</speed>
  <fix>3d</fix>
</trkpt>
<trkpt lat="40.071553" lon="-105.2294012">
  <ele>1583.0</ele>
  <time>2026-08-28T17:51:33Z</time>
  <course>336.2</course>
  <speed>0.02</speed>
  <fix>3d</fix>
</trkpt>
<trkpt lat="40.071553" lon="-105.2294017">
  <ele>1582.94</ele>
  <time>2026-08-28T17:51:33Z</time>
  <course>156.99</course>
  <speed>0.05</speed>
  <fix>3d</fix>
</trkpt>
<trkpt lat="40.071553" lon="-105.2294012">
  <ele>1583.0</ele>
  <time>2026-08-28T17:51:33Z</time>
  <course>336.2</course>
  <speed>0.02</speed>
  <fix>3d</fix>
</trkpt>
<trkpt lat="40.0715531" lon="-105.2294017">
  <ele>1582.94</ele>
  <time>2026-08-28T17:51:33Z</time>
  <course>156.98</course>
  <speed>0.05</speed>
  <fix>3d</fix>
</trkpt>
<trkpt lat="40.0715531" lon="-105.2294012">
  <ele>1583.0</ele>
  <time>2026-08-28T17:51:33Z</time>
  <course>336.22</course>
  <speed>0.02</speed>
  <fix>3d</fix>
</trkpt>
<trkpt lat="40.0715531" lon="-105.2294017">
  <ele>1582.93</ele>
  <time>2026-08-28T17:51:33Z</time>
  <course>156.98</course>
  <speed>0.04</speed>
  <fix>3d</fix>
</trkpt>
<trkpt lat="40.0715531" lon="-105.2294012">
  <ele>1583.0</ele>
  <time>2026-08-28T17:51:33Z</time>
  <course>336.22</course>
  <speed>0.02</speed>
  <fix>3d</fix>
</trkpt>
<trkpt lat="40.0715531" lon="-105.2294017">
  <ele>1582.93</ele>
  <time>2026-08-28T17:51:33Z</time>
  <course>156.97</course>
  <speed>0.04</speed>
  <fix>3d</fix>
</trkpt>
<trkpt lat="40.0715531" lon="-105.2294013">
  <ele>1583.0</ele>
  <time>2026-08-28T17:51:33Z</time>
  <course>336.24</course>
  <speed>0.02</speed>
  <fix>3d</fix>
</trkpt>
<trkpt lat="40.0715531" lon="-105.2294017">
  <ele>1582.93</ele>
  <time>2026-08-28T17:51:33Z</time>
  <course>156.96</course>
  <speed>0.04</speed>
  <fix>3d</fix>
</trkpt>
<trkpt lat="40.0715531" lon="-105.2294013">
  <ele>1583.0</ele>
  <time>2026-08-28T17:51:33Z</time>
  <course>336.24</course>
  <speed>0.02</speed>
  <fix>3d</fix>
</trkpt>
<trkpt lat="40.0715531" lon="-105.2294017">
  <ele>1582.92</ele>
  <time>2026-08-28T17:51:33Z</time>
  <course>156.95</course>
  <speed>0.04</speed>
  <fix>3d</fix>
</trkpt>
<trkpt lat="40.0715531" lon="-105.2294014">
  <ele>1583.0</ele>
  <time>2026-08-28T17:51:33Z</time>
  <course>336.26</course>
  <speed>0.01</speed>
  <fix>3d</fix>
</trkpt>
<trkpt lat="40.0715531" lon="-105.2294017">
  <ele>1582.93</ele>
  <time>2026-08-28T17:51:33Z</time>
  <course>156.94</course>
  <speed>0.04</speed>
  <fix>3d</fix>
</trkpt>
<trkpt lat="40.0715531" lon="-105.2294014">
  <ele>1583.0</ele>
  <time>2026-08-28T17:51:33Z</time>
  <course>336.26</course>
  <speed>0.01</speed>
  <fix>3d</fix>
</trkpt>
<trkpt lat="40.0715531" lon="-105.2294017">
  <ele>1582.93</ele>
  <time>2026-08-28T17:51:33Z</time>
  <course>156.93</course>
  <speed>0.04</speed>
  <fix>3d</fix>
</trkpt>
<trkpt lat="40.0715532" lon="-105.2294014">
  <ele>1583.0</ele>
  <time>2026-08-28T17:51:33Z</time>
  <course>336.29</course>
  <speed>0.01</speed>
  <fix>3d</fix>
</trkpt>
<trkpt lat="40.0715531" lon="-105.2294017">
  <ele>1582.93</ele>
  <time>2026-08-28T17:51:33Z</time>
  <course>156.93</course>
  <speed>0.04</speed>
  <fix>3d</fix>
</trkpt>
<trkpt lat="40.0715532" lon="-105.2294014">
  <ele>1583.0</ele>
  <time>2026-08-28T17:51:33Z</time>
  <course>336.29</course>
  <speed>0.01</speed>
  <fix>3d</fix>
</trkpt>
<trkpt lat="40.0715531" lon="-105.2294017">
  <ele>1582.93</ele>
  <time>2026-08-28T17:51:33Z</time>
  <course>156.92</course>
  <speed>0.04</speed>
  <fix>3d</fix>
</trkpt>
<trkpt lat="40.0715533" lon="-105.2294014">
  <ele>1583.0</ele>
  <time>2026-08-28T17:51:33Z</time>
  <course>336.32</course>
  <speed>0.01</speed>
  <fix>3d</fix>
</trkpt>
<trkpt lat="40.0715531" lon="-105.2294017">
  <ele>1582.93</ele>
  <time>2026-08-28T17:51:33Z</time>
  <course>156.91</course>
  <speed>0.04</speed>
  <fix>3d</fix>
</trkpt>
<trkpt lat="40.0715533" lon="-105.2294014">
  <ele>1583.0</ele>
  <time>2026-08-28T17:51:33Z</time>
  <course>336.32</course>
  <speed>0.01</speed>
  <fix>3d</fix>
</trkpt>
<trkpt lat="40.0715531" lon="-105.2294017">
  <ele>1582.93</ele>
  <time>2026-08-28T17:51:33Z</time>
  <course>156.91</course>
  <speed>0.03</speed>
  <fix>3d</fix>
</trkpt>
<trkpt lat="40.0715533" lon="-105.2294014">
  <ele>1583.0</ele>
  <time>2026-08-28T17:51:33Z</time>
  <course>336.35</course>
  <speed>0.01</speed>
  <fix>3d</fix>
</trkpt>
<trkpt lat="40.0715531" lon="-105.2294017">
  <ele>1582.93</ele>
  <time>2026-08-28T17:51:33Z</time>
  <course>156.9</course>
  <speed>0.03</speed>
  <fix>3d</fix>
</trkpt>
<trkpt lat="40.0715533" lon="-105.2294014">
  <ele>1583.0</ele>
  <time>2026-08-28T17:51:33Z</time>
  <course>336.35</course>
  <speed>0.01</speed>
  <fix>3d</fix>
</trkpt>
<trkpt lat="40.0715531" lon="-105.2294017">
  <ele>1582.93</ele>
  <time>2026-08-28T17:51:33Z</time>
  <course>156.89</course>
  <speed>0.03</speed>
  <fix>3d</fix>
</trkpt>
<trkpt lat="40.0715533" lon="-105.2294014">
  <ele>1583.0</ele>
  <time>2026-08-28T17:51:33Z</time>
  <course>336.38</course>
  <speed>0.01</speed>
  <fix>3d</fix>
</trkpt>
<trkpt lat="40.0715532" lon="-105.2294017">
  <ele>1582.93</ele>
  <time>2026-08-28T17:51:33Z</time>
  <course>156.89</course>
  <speed>0.03</speed>
  <fix>3d</fix>
</trkpt>
<trkpt lat="40.0715533" lon="-105.2294014">
  <ele>1583.0</ele>
  <time>2026-08-28T17:51:33Z</time>
  <course>336.38</course>
  <speed>0.01</speed>
  <fix>3d</fix>
</trkpt>
<trkpt lat="40.0715532" lon="-105.2294017">
  <ele>1582.93</ele>
  <time>2026-08-28T17:51:33Z</time>
  <course>156.88</course>
  <speed>0.03</speed>
  <fix>3d</fix>
</trkpt>
<trkpt lat="40.0715533" lon="-105.2294014">
  <ele>1583.0</ele>
  <time>2026-08-28T17:51:33Z</time>
  <course>336.42</course>
  <speed>0.01</speed>
  <fix>3d</fix>
</trkpt>
<trkpt lat="40.0715532" lon="-105.2294017">
  <ele>1582.94</ele>
  <time>2026-08-28T17:51:33Z</time>
  <course>156.87</course>
  <speed>0.03</speed>
  <fix>3d</fix>
</trkpt>
<trkpt lat="40.0715533" lon="-105.2294014">
  <ele>1583.0</ele>
  <time>2026-08-28T17:51:33Z</time>
  <course>336.42</course>
  <speed>0.01</speed>
  <fix>3d</fix>
</trkpt>
<trkpt lat="40.0715532" lon="-105.2294017">
  <ele>1582.94</ele>
  <time>2026-08-28T17:51:33Z</time>
  <course>156.87</course>
  <speed>0.03</speed>
  <fix>3d</fix>
</trkpt>
<trkpt lat="40.0715533" lon="-105.2294015">
  <ele>1583.0</ele>
  <time>2026-08-28T17:51:33Z</time>
  <course>336.46</course>
  <speed>0.01</speed>
  <fix>3d</fix>
</trkpt>
<trkpt lat="40.0715532" lon="-105.2294017">
  <ele>1582.94</ele>
  <time>2026-08-28T17:51:33Z</time>
  <course>156.86</course>
  <speed>0.03</speed>
  <fix>3d</fix>
</trkpt>
<trkpt lat="40.0715533" lon="-105.2294015">
  <ele>1583.0</ele>
  <time>2026-08-28T17:51:33Z</time>
  <course>336.46</course>
  <speed>0.01</speed>
  <fix>3d</fix>
</trkpt>
<trkpt lat="40.0715532" lon="-105.2294017">
  <ele>1582.94</ele>
  <time>2026-08-28T17:51:33Z</time>
  <course>156.86</course>
  <speed>0.03</speed>
  <fix>3d</fix>
</trkpt>
<trkpt lat="40.0715534" lon="-105.2294015">
  <ele>1583.0</ele>
  <time>2026-08-28T17:51:33Z</time>
  <course>336.51</course>
  <speed>0.0</speed>
  <fix>3d</fix>
</trkpt>
<trkpt lat="40.0715532" lon="-105.2294017">
  <ele>1582.94</ele>
  <time>2026-08-28T17:51:33Z</time>
  <course>156.86</course>
  <speed>0.03</speed>
  <fix>3d</fix>
</trkpt>
<trkpt lat="40.0715534" lon="-105.2294015">
  <ele>1583.0</ele>
  <time>2026-08-28T17:51:33Z</time>
  <course>336.51</course>
  <speed>0.0</speed>
  <fix>3d</fix>
</trkpt>
<trkpt lat="40.0715532" lon="-105.2294017">
  <ele>1582.94</ele>
  <time>2026-08-28T17:51:33Z</time>
  <course>156.85</course>
  <speed>0.03</speed>
  <fix>3d</fix>
</trkpt>
<trkpt lat="40.0715534" lon="-105.2294015">
  <ele>1583.0</ele>
  <time>2026-08-28T17:51:33Z</time>
  <course>336.56</course>
  <speed>0.0</speed>
  <fix>3d</fix>
</trkpt>
<trkpt lat="40.0715532" lon="-105.2294017">
  <ele>1582.94</ele>
  <time>2026-08-28T17:51:33Z</time>
  <course>156.85</course>
  <speed>0.03</speed>
  <fix>3d</fix>
</trkpt>
<trkpt lat="40.0715534" lon="-105.2294015">
  <ele>1583.0</ele>
  <time>2026-08-28T17:51:33Z</time>
  <course>336.56</course>
  <speed>0.0</speed>
  <fix>3d</fix>
</trkpt>
<trkpt lat="40.0715533" lon="-105.2294017">
  <ele>1582.94</ele>
  <time>2026-08-28T17:51:33Z</time>
  <course>156.84</course>
  <speed>0.03</speed>
  <fix>3d</fix>
</trkpt>
<trkpt lat="40.0715534" lon="-105.2294015">
  <ele>1583.0</ele>
  <time>2026-08-28T17:51:33Z</time>
  <course>336.61</course>
  <speed>0.0</speed>
  <fix>3d</fix>
</trkpt>
<trkpt lat="40.0715533" lon="-105.2294017">
  <ele>1582.94</ele>
  <time>2026-08-28T17:51:33Z</time>
  <course>156.84</course>
  <speed>0.03</speed>
  <fix>3d</fix>
</trkpt>
<trkpt lat="40.0715534" lon="-105.2294015">
  <ele>1583.0</ele>
  <time>2026-08-28T17:51:33Z</time>
  <course>336.61</course>
  <speed>0.0</speed>
  <fix>3d</fix>
</trkpt>
<trkpt lat="40.0715533" lon="-105.2294017">
  <ele>1582.94</ele>
  <time>2026-08-28T17:51:33Z</time>
  <course>156.84</course>
  <speed>0.03</speed>
  <fix>3d</fix>
</trkpt>
<trkpt lat="40.0715534" lon="-105.2294015">
  <ele>1583.0</ele>
  <time>2026-08-28T17:51:33Z</time>
  <course>336.67</course>
  <speed>0.0</speed>
  <fix>3d</fix>
</trkpt>
<trkpt lat="40.0715533" lon="-105.2294017">
  <ele>1582.93</ele>
  <time>2026-08-28T17:51:33Z</time>
  <course>156.83</course>
  <speed>0.03</speed>
  <fix>3d</fix>
</trkpt>
<trkpt lat="40.0715534" lon="-105.2294015">
  <ele>1583.0</ele>
  <time>2026-08-28T17:51:33Z</time>
  <course>336.67</course>
  <speed>0.0</speed>
  <fix>3d</fix>
</trkpt>
<trkpt lat="40.0715533" lon="-105.2294018">
  <ele>1582.93</ele>
  <time>2026-08-28T17:51:33Z</time>
  <course>156.83</course>
  <speed>0.03</speed>
  <fix>3d</fix>
</trkpt>
<trkpt lat="40.0715534" lon="-105.2294015">
  <ele>1583.0</ele>
  <time>2026-08-28T17:51:33Z</time>
  <course>336.74</course>
  <speed>0.0</speed>
  <fix>3d</fix>
</trkpt>
<trkpt lat="40.0715533" lon="-105.2294017">
  <ele>1582.93</ele>
  <time>2026-08-28T17:51:33Z</time>
  <course>156.83</course>
  <speed>0.03</speed>
  <fix>3d</fix>
</trkpt>
<trkpt lat="40.0715534" lon="-105.2294015">
  <ele>1583.0</ele>
  <time>2026-08-28T17:51:33Z</time>
  <course>336.74</course>
  <speed>0.0</speed>
  <fix>3d</fix>
</trkpt>
<trkpt lat="40.0715533" lon="-105.2294018">
  <ele>1582.93</ele>
  <time>2026-08-28T17:51:33Z</time>
  <course>156.82</course>
  <speed>0.03</speed>
  <fix>3d</fix>
</trkpt>
<trkpt lat="40.0715534" lon="-105.2294015">
  <ele>1583.0</ele>
  <time>2026-08-28T17:51:33Z</time>
  <course>336.82</course>
  <speed>0.0</speed>
  <fix>3d</fix>
</trkpt>
<trkpt lat="40.0715533" lon="-105.2294017">
  <ele>1582.92</ele>
  <time>2026-08-28T17:51:33Z</time>
  <course>156.82</course>
  <speed>0.03</speed>
  <fix>3d</fix>
</trkpt>
<trkpt lat="40.0715534" lon="-105.2294015">
  <ele>1583.0</ele>
  <time>2026-08-28T17:51:33Z</time>
  <course>336.82</course>
  <speed>0.0</speed>
  <fix>3d</fix>
</trkpt>
<trkpt lat="40.0715533" lon="-105.2294018">
  <ele>1582.92</ele>
  <time>2026-08-28T17:51:33Z</time>
  <course>156.82</course>
  <speed>0.03</speed>
  <fix>3d</fix>
</trkpt>
<trkpt lat="40.0715534" lon="-105.2294015">
  <ele>1583.0</ele>
  <time>2026-08-28T17:51:33Z</time>
  <course>336.9</course>
  <speed>0.0</speed>
  <fix>3d</fix>
</trkpt>
<trkpt lat="40.0715533" lon="-105.2294018">
  <ele>1582.92</ele>
  <time>2026-08-28T17:51:33Z</time>
  <course>156.82</course>
  <speed>0.02</speed>
  <fix>3d</fix>
</trkpt>
<trkpt lat="40.0715534" lon="-105.2294015">
  <ele>1583.0</ele>
  <time>2026-08-28T17:51:33Z</time>
  <course>336.9</course>
  <speed>0.0</speed>
  <fix>3d</fix>
</trkpt>
<trkpt lat="40.0715534" lon="-105.2294018">
  <ele>1582.92</ele>
  <time>2026-08-28T17:51:33Z</time>
  <course>156.81</course>
  <speed>0.02</speed>
  <fix>3d</fix>
</trkpt>
<trkpt lat="40.0715534" lon="-105.2294015">
  <ele>1583.0</ele>
  <time>2026-08-28T17:51:33Z</time>
  <course>336.99</course>
  <speed>0.0</speed>
  <fix>3d</fix>
</trkpt>
<trkpt lat="40.0715534" lon="-105.2294018">
  <ele>1582.92</ele>
  <time>2026-08-28T17:51:33Z</time>
  <course>156.81</course>
  <speed>0.02</speed>
  <fix>3d</fix>
</trkpt>
<trkpt lat="40.0715534" lon="-105.2294015">
  <ele>1583.0</ele>
  <time>2026-08-28T17:51:33Z</time>
  <course>336.99</course>
  <speed>0.0</speed>
  <fix>3d</fix>
</trkpt>
<trkpt lat="40.0715534" lon="-105.2294018">
  <ele>1582.92</ele>
  <time>2026-08-28T17:51:33Z</time>
  <course>156.81</course>
  <speed>0.02</speed>
  <fix>3d</fix>
</trkpt>
<trkpt lat="40.0715535" lon="-105.2294015">
  <ele>1583.0</ele>
  <time>2026-08-28T17:51:33Z</time>
  <course>337.09</course>
  <speed>0.0</speed>
  <fix>3d</fix>
</trkpt>
<trkpt lat="40.0715534" lon="-105.2294018">
  <ele>1582.92</ele>
  <time>2026-08-28T17:51:33Z</time>
  <course>156.81</course>
  <speed>0.02</speed>
  <fix>3d</fix>
</trkpt>
<trkpt lat="40.0715535" lon="-105.2294015">
  <ele>1583.0</ele>
  <time>2026-08-28T17:51:33Z</time>
  <course>337.09</course>
  <speed>0.0</speed>
  <fix>3d</fix>
</trkpt>
<trkpt lat="40.0715534" lon="-105.2294018">
  <ele>1582.92</ele>
  <time>2026-08-28T17:51:33Z</time>
  <course>156.81</course>
  <speed>0.02</speed>
  <fix>3d</fix>
</trkpt>
<trkpt lat="40.0715535" lon="-105.2294015">
  <ele>1583.0</ele>
  <time>2026-08-28T17:51:33Z</time>
  <course>337.21</course>
  <speed>0.0</speed>
  <fix>3d</fix>
</trkpt>
<trkpt lat="40.0715534" lon="-105.2294018">
  <ele>1582.92</ele>
  <time>2026-08-28T17:51:33Z</time>
  <course>156.81</course>
  <speed>0.02</speed>
  <fix>3d</fix>
</trkpt>
<trkpt lat="40.0715535" lon="-105.2294015">
  <ele>1583.0</ele>
  <time>2026-08-28T17:51:33Z</time>
  <course>337.21</course>
  <speed>0.0</speed>
  <fix>3d</fix>
</trkpt>
<trkpt lat="40.0715534" lon="-105.2294018">
  <ele>1582.92</ele>
  <time>2026-08-28T17:51:33Z</time>
  <course>156.8</course>
  <speed>0.02</speed>
  <fix>3d</fix>
</trkpt>
<trkpt lat="40.0715535" lon="-105.2294015">
  <ele>1583.0</ele>
  <time>2026-08-28T17:51:33Z</time>
  <course>337.33</course>
  <speed>0.0</speed>
  <fix>3d</fix>
</trkpt>
<trkpt lat="40.0715534" lon="-105.2294018">
  <ele>1582.92</ele>
  <time>2026-08-28T17:51:33Z</time>
  <course>156.8</course>
  <speed>0.02</speed>
  <fix>3d</fix>
</trkpt>
<trkpt lat="40.0715535" lon="-105.2294015">
  <ele>1583.0</ele>
  <time>2026-08-28T17:51:33Z</time>
  <course>337.33</course>
  <speed>0.0</speed>
  <fix>3d</fix>
</trkpt>
<trkpt lat="40.0715534" lon="-105.2294018">
  <ele>1582.92</ele>
  <time>2026-08-28T17:51:33Z</time>
  <course>156.8</course>
  <speed>0.02</speed>
  <fix>3d</fix>
</trkpt>
<trkpt lat="40.0715535" lon="-105.2294015">
  <ele>1583.0</ele>
  <time>2026-08-28T17:51:33Z</time>
  <course>337.47</course>
  <speed>0.0</speed>
  <fix>3d</fix>
</trkpt>
<trkpt lat="40.0715534" lon="-105.2294017">
  <ele>1582.92</ele>
  <time>2026-08-28T17:51:33Z</time>
  <course>156.8</course>
  <speed>0.02</speed>
  <fix>3d</fix>
</trkpt>
<trkpt lat="40.0715535" lon="-105.2294015">
  <ele>1583.0</ele>
  <time>2026-08-28T17:51:33Z</time>
  <course>337.47</course>
  <speed>0.0</speed>
  <fix>3d</fix>
</trkpt>
<trkpt lat="40.0715534" lon="-105.2294018">
  <ele>1582.92</ele>
  <time>2026-08-28T17:51:33Z</time>
  <course>156.8</course>
  <speed>0.02</speed>
  <fix>3d</fix>
</trkpt>
<trkpt lat="40.0715535" lon="-105.2294015">
  <ele>1583.0</ele>
  <time>2026-08-28T17:51:33Z</time>
  <course>337.62</course>
  <speed>0.0</speed>
  <fix>3d</fix>
</trkpt>
<trkpt lat="40.0715534" lon="-105.2294017">
  <ele>1582.92</ele>
  <time>2026-08-28T17:51:33Z</time>
  <course>156.8</course>
  <speed>0.02</speed>
  <fix>3d</fix>
</trkpt>
<trkpt lat="40.0715535" lon="-105.2294015">
  <ele>1583.0</ele>
  <time>2026-08-28T17:51:33Z</time>
  <course>337.62</course>
  <speed>0.0</speed>
  <fix>3d</fix>
</trkpt>
<trkpt lat="40.0715535" lon="-105.2294017">
  <ele>1582.92</ele>
  <time>2026-08-28T17:51:33Z</time>
  <course>156.8</course>
  <speed>0.02</speed>
  <fix>3d</fix>
</trkpt>
<trkpt lat="40.0715535" lon="-105.2294015">
  <ele>1583.0</ele>
  <time>2026-08-28T17:51:33Z</time>
  <course>337.79</course>
  <speed>0.0</speed>
  <fix>3d</fix>
</trkpt>
<trkpt lat="40.0715535" lon="-105.2294017">
  <ele>1582.92</ele>
  <time>2026-08-28T17:51:33Z</time>
  <course>156.8</course>
  <speed>0.02</speed>
  <fix>3d</fix>
</trkpt>
<trkpt lat="40.0715535" lon="-105.2294015">
  <ele>1583.0</ele>
  <time>2026-08-28T17:51:33Z</time>
  <course>337.79</course>
  <speed>0.0</speed>
  <fix>3d</fix>
</trkpt>
<trkpt lat="40.0715535" lon="-105.2294017">
  <ele>1582.92</ele>
  <time>2026-08-28T17:51:33Z</time>
  <course>156.8</course>
  <speed>0.02</speed>
  <fix>3d</fix>
</trkpt>
<trkpt lat="40.0715535" lon="-105.2294015">
  <ele>1583.0</ele>
  <time>2026-08-28T17:51:33Z</time>
  <course>337.97</course>
  <speed>0.0</speed>
  <fix>3d</fix>
</trkpt>
<trkpt lat="40.0715535" lon="-105.2294017">
  <ele>1582.92</ele>
  <time>2026-08-28T17:51:33Z</time>
  <course>156.8</course>
  <speed>0.02</speed>
  <fix>3d</fix>
</trkpt>
<trkpt lat="40.0715535" lon="-105.2294015">
  <ele>1583.0</ele>
  <time>2026-08-28T17:51:33Z</time>
  <course>337.97</course>
  <speed>0.0</speed>
  <fix>3d</fix>
</trkpt>
<trkpt lat="40.0715535" lon="-105.2294017">
  <ele>1582.93</ele>
  <time>2026-08-28T17:51:33Z</time>
  <course>156.8</course>
  <speed>0.02</speed>
  <fix>3d</fix>
</trkpt>
<trkpt lat="40.0715535" lon="-105.2294015">
  <ele>1583.0</ele>
  <time>2026-08-28T17:51:33Z</time>
  <course>338.18</course>
  <speed>0.0</speed>
  <fix>3d</fix>
</trkpt>
<trkpt lat="40.0715535" lon="-105.2294017">
  <ele>1582.93</ele>
  <time>2026-08-28T17:51:33Z</time>
  <course>156.8</course>
  <speed>0.02</speed>
  <fix>3d</fix>
</trkpt>
<trkpt lat="40.0715535" lon="-105.2294015">
  <ele>1583.0</ele>
  <time>2026-08-28T17:51:33Z</time>
  <course>338.18</course>
  <speed>0.0</speed>
  <fix>3d</fix>
</trkpt>
<trkpt lat="40.0715535" lon="-105.2294017">
  <ele>1582.93</ele>
  <time>2026-08-28T17:51:33Z</time>
  <course>156.79</course>
  <speed>0.02</speed>
  <fix>3d</fix>
</trkpt>
<trkpt lat="40.0715535" lon="-105.2294015">
  <ele>1583.0</ele>
  <time>2026-08-28T17:51:33Z</time>
  <course>338.4</course>
  <speed>0.0</speed>
  <fix>3d</fix>
</trkpt>
<trkpt lat="40.0715535" lon="-105.2294017">
  <ele>1582.94</ele>
  <time>2026-08-28T17:51:33Z</time>
  <course>156.79</course>
  <speed>0.02</speed>
  <fix>3d</fix>
</trkpt>
<trkpt lat="40.0715535" lon="-105.2294015">
  <ele>1583.0</ele>
  <time>2026-08-28T17:51:33Z</time>
  <course>338.4</course>
  <speed>0.0</speed>
  <fix>3d</fix>
</trkpt>
<trkpt lat="40.0715535" lon="-105.2294017">
  <ele>1582.94</ele>
  <time>2026-08-28T17:51:33Z</time>
  <course>156.8</course>
  <speed>0.022360679774997897</speed>
  <fix>3d</fix>
</trkpt>
<trkpt lat="40.0715535" lon="-105.2294015">
  <ele>1583.0</ele>
  <time>2026-08-28T17:51:33Z</time>
  <course>338.65</course>
  <speed>0.0</speed>
  <fix>3d</fix>
</trkpt>
<trkpt lat="40.0715535" lon="-105.2294017">
  <ele>1582.95</ele>
  <time>2026-08-28T17:51:33Z</time>
  <course>156.8</course>
  <speed>0.022360679774997897</speed>
  <fix>3d</fix>
</trkpt>
<trkpt lat="40.0715535" lon="-105.2294015">
  <ele>1583.0</ele>
  <time>2026-08-28T17:51:33Z</time>
  <course>338.65</course>
  <speed>0.0</speed>
  <fix>3d</fix>
</trkpt>
<trkpt lat="40.0715535" lon="-105.2294017">
  <ele>1582.95</ele>
  <time>2026-08-28T17:51:33Z</time>
  <course>156.8</course>
  <speed>0.022360679774997897</speed>
  <fix>3d</fix>
</trkpt>
<trkpt lat="40.0715535" lon="-105.2294015">
  <ele>1583.0</ele>
  <time>2026-08-28T17:51:33Z</time>
  <course>338.93</course>
  <speed>0.0</speed>
  <fix>3d</fix>
</trkpt>
<trkpt lat="40.0715535" lon="-105.2294017">
  <ele>1582.95</ele>
  <time>2026-08-28T17:51:33Z</time>
  <course>156.8</course>
  <speed>0.022360679774997897</speed>
  <fix>3d</fix>
</trkpt>
<trkpt lat="40.0715535" lon="-105.2294015">
  <ele>1583.0</ele>
  <time>2026-08-28T17:51:33Z</time>
  <course>338.93</course>
  <speed>0.0</speed>
  <fix>3d</fix>
</trkpt>
<trkpt lat="40.0715535" lon="-105.2294017">
  <ele>1582.96</ele>
  <time>2026-08-28T17:51:33Z</time>
  <course>156.8</course>
  <speed>0.022360679774997897</speed>
  <fix>3d</fix>
</trkpt>
<trkpt lat="40.0715535" lon="-105.2294015">
  <ele>1583.0</ele>
  <time>2026-08-28T17:51:33Z</time>
  <course>339.23</course>
  <speed>0.0</speed>
  <fix>3d</fix>
</trkpt>
<trkpt lat="40.0715535" lon="-105.2294017">
  <ele>1582.97</ele>
  <time>2026-08-28T17:51:33Z</time>
  <course>156.8</course>
  <speed>0.022360679774997897</speed>
  <fix>3d</fix>
</trkpt>
<trkpt lat="40.0715535" lon="-105.2294015">
  <ele>1583.0</ele>
  <time>2026-08-28T17:51:33Z</time>
  <course>339.23</course>
  <speed>0.0</speed>
  <fix>3d</fix>
</trkpt>
<trkpt lat="40.0715535" lon="-105.2294017">
  <ele>1582.97</ele>
  <time>2026-08-28T17:51:33Z</time>
  <course>156.8</course>
  <speed>0.022360679774997897</speed>
  <fix>3d</fix>
</trkpt>
<trkpt lat="40.0715535" lon="-105.2294015">
  <ele>1583.0</ele>
  <time>2026-08-28T17:51:33Z</time>
  <course>339.57</course>
  <speed>0.0</speed>
  <fix>3d</fix>
</trkpt>
<trkpt lat="40.0715535" lon="-105.2294017">
  <ele>1582.98</ele>
  <time>2026-08-28T17:51:33Z</time>
  <course>156.8</course>
  <speed>0.022360679774997897</speed>
  <fix>3d</fix>
</trkpt>
<trkpt lat="40.0715535" lon="-105.2294015">
  <ele>1583.0</ele>
  <time>2026-08-28T17:51:33Z</time>
  <course>339.57</course>
  <speed>0.0</speed>
  <fix>3d</fix>
</trkpt>
<trkpt lat="40.0715535" lon="-105.2294017">
  <ele>1582.98</ele>
  <time>2026-08-28T17:51:33Z</time>
  <course>156.8</course>
  <speed>0.022360679774997897</speed>
  <fix>3d</fix>
</trkpt>
<trkpt lat="40.0715535" lon="-105.2294015">
  <ele>1583.0</ele>
  <time>2026-08-28T17:51:33Z</time>
  <course>339.94</course>
  <speed>0.0</speed>
  <fix>3d</fix>
</trkpt>
<trkpt lat="40.0715535" lon="-105.2294017">
  <ele>1582.99</ele>
  <time>2026-08-28T17:51:33Z</time>
  <course>156.8</course>
  <speed>0.022360679774997897</speed>
  <fix>3d</fix>
</trkpt>
<trkpt lat="40.0715535" lon="-105.2294015">
  <ele>1583.0</ele>
  <time>2026-08-28T17:51:33Z</time>
  <course>339.94</course>
  <speed>0.0</speed>
  <fix>3d</fix>
</trkpt>
<trkpt lat="40.0715535" lon="-105.2294017">
  <ele>1583.0</ele>
  <time>2026-08-28T17:51:33Z</time>
  <course>156.8</course>
  <speed>0.022360679774997897</speed>
  <fix>3d</fix>
</trkpt>
<trkpt lat="40.0715535" lon="-105.2294015">
  <ele>1583.0</ele>
  <time>2026-08-28T17:51:33Z</time>
  <course>340.35</course>
  <speed>0.0</speed>
  <fix>3d</fix>
</trkpt>
<trkpt lat="40.0715535" lon="-105.2294017">
  <ele>1583.01</ele>
  <time>2026-08-28T17:51:33Z</time>
  <course>156.8</course>
  <speed>0.022360679774997897</speed>
  <fix>3d</fix>
</trkpt>
<trkpt lat="40.0715535" lon="-105.2294015">
  <ele>1583.0</ele>
  <time>2026-08-28T17:51:33Z</time>
  <course>341.31</course>
  <speed>0.0</speed>
  <fix>3d</fix>
</trkpt>
<trkpt lat="40.0715535" lon="-105.2294017">
  <ele>1583.02</ele>
  <time>2026-08-28T17:51:33Z</time>
  <course>156.8</course>
  <speed>0.022360679774997897</speed>
  <fix>3d</fix>
</trkpt>
<trkpt lat="40.0715535" lon="-105.2294015">
  <ele>1583.0</ele>
  <time>2026-08-28T17:51:33Z</time>
  <course>341.86</course>
  <speed>0.0</speed>
  <fix>3d</fix>
</trkpt>
<trkpt lat="40.0715535" lon="-105.2294017">
  <ele>1583.02</ele>
  <time>2026-08-28T17:51:33Z</time>
  <course>156.8</course>
  <speed>0.022360679774997897</speed>
  <fix>3d</fix>
</trkpt>
<trkpt lat="40.0715535" lon="-105.2294015">
  <ele>1583.0</ele>
  <time>2026-08-28T17:51:33Z</time>
  <course>342.47</course>
  <speed>0.0</speed>
  <fix>3d</fix>
</trkpt>
<trkpt lat="40.0715535" lon="-105.2294017">
  <ele>1583.02</ele>
  <time>2026-08-28T17:51:33Z</time>
  <course>156.81</course>
  <speed>0.022360679774997897</speed>
  <fix>3d</fix>
</trkpt>
<trkpt lat="40.0715535" lon="-105.2294015">
  <ele>1583.0</ele>
  <time>2026-08-28T17:51:33Z</time>
  <course>342.47</course>
  <speed>0.0</speed>
  <fix>3d</fix>
</trkpt>
<trkpt lat="40.0715535" lon="-105.2294017">
  <ele>1583.02</ele>
  <time>2026-08-28T17:51:33Z</time>
  <course>156.81</course>
  <speed>0.022360679774997897</speed>
  <fix>3d</fix>
</trkpt>
<trkpt lat="40.0715535" lon="-105.2294015">
  <ele>1583.0</ele>
  <time>2026-08-28T17:51:33Z</time>
  <course>343.14</course>
  <speed>0.0</speed>
  <fix>3d</fix>
</trkpt>
<trkpt lat="40.0715535" lon="-105.2294017">
  <ele>1583.03</ele>
  <time>2026-08-28T17:51:33Z</time>
  <course>156.81</course>
  <speed>0.022360679774997897</speed>
  <fix>3d</fix>
</trkpt>
<trkpt lat="40.0715535" lon="-105.2294015">
  <ele>1583.0</ele>
  <time>2026-08-28T17:51:33Z</time>
  <course>343.14</course>
  <speed>0.0</speed>
  <fix>3d</fix>
</trkpt>
<trkpt lat="40.0715535" lon="-105.2294017">
  <ele>1583.03</ele>
  <time>2026-08-28T17:51:33Z</time>
  <course>156.81</course>
  <speed>0.022360679774997897</speed>
  <fix>3d</fix>
</trkpt>
<trkpt lat="40.0715535" lon="-105.2294015">
  <ele>1583.0</ele>
  <time>2026-08-28T17:51:33Z</time>
  <course>343.88</course>
  <speed>0.0</speed>
  <fix>3d</fix>
</trkpt>
<trkpt lat="40.0715535" lon="-105.2294017">
  <ele>1583.03</ele>
  <time>2026-08-28T17:51:33Z</time>
  <course>156.81</course>
  <speed>0.022360679774997897</speed>
  <fix>3d</fix>
</trkpt>
<trkpt lat="40.0715535" lon="-105.2294015">
  <ele>1583.0</ele>
  <time>2026-08-28T17:51:33Z</time>
  <course>343.88</course>
  <speed>0.0</speed>
  <fix>3d</fix>
</trkpt>
<trkpt lat="40.0715535" lon="-105.2294017">
  <ele>1583.04</ele>
  <time>2026-08-28T17:51:33Z</time>
  <course>156.81</course>
  <speed>0.022360679774997897</speed>
  <fix>3d</fix>
</trkpt>
<trkpt lat="40.0715535" lon="-105.2294015">
  <ele>1583.0</ele>
  <time>2026-08-28T17:51:33Z</time>
  <course>344.69</course>
  <speed>0.0</speed>
  <fix>3d</fix>
</trkpt>
<trkpt lat="40.0715535" lon="-105.2294017">
  <ele>1583.04</ele>
  <time>2026-08-28T17:51:33Z</time>
  <course>156.81</course>
  <speed>0.02</speed>
  <fix>3d</fix>
</trkpt>
<trkpt lat="40.0715535" lon="-105.2294015">
  <ele>1583.0</ele>
  <time>2026-08-28T17:51:33Z</time>
  <course>344.69</course>
  <speed>0.0</speed>
  <fix>3d</fix>
</trkpt>
<trkpt lat="40.0715535" lon="-105.2294017">
  <ele>1583.04</ele>
  <time>2026-08-28T17:51:33Z</time>
  <course>156.81</course>
  <speed>0.022360679774997897</speed>
  <fix>3d</fix>
</trkpt>
<trkpt lat="40.0715535" lon="-105.2294015">
  <ele>1583.0</ele>
  <time>2026-08-28T17:51:33Z</time>
  <course>345.59</course>
  <speed>0.0</speed>
  <fix>3d</fix>
</trkpt>
<trkpt lat="40.0715535" lon="-105.2294017">
  <ele>1583.04</ele>
  <time>2026-08-28T17:51:33Z</time>
  <course>156.81</course>
  <speed>0.02</speed>
  <fix>3d</fix>
</trkpt>
<trkpt lat="40.0715535" lon="-105.2294015">
  <ele>1583.0</ele>
  <time>2026-08-28T17:51:33Z</time>
  <course>345.59</course>
  <speed>0.0</speed>
  <fix>3d</fix>
</trkpt>
<trkpt lat="40.0715535" lon="-105.2294017">
  <ele>1583.05</ele>
  <time>2026-08-28T17:51:33Z</time>
  <course>156.81</course>
  <speed>0.02</speed>
  <fix>3d</fix>
</trkpt>
<trkpt lat="40.0715535" lon="-105.2294015">
  <ele>1583.0</ele>
  <time>2026-08-28T17:51:33Z</time>
  <course>346.57</course>
  <speed>0.0</speed>
  <fix>3d</fix>
</trkpt>
<trkpt lat="40.0715535" lon="-105.2294017">
  <ele>1583.05</ele>
  <time>2026-08-28T17:51:33Z</time>
  <course>156.81</course>
  <speed>0.02</speed>
  <fix>3d</fix>
</trkpt>
<trkpt lat="40.0715535" lon="-105.2294015">
  <ele>1583.0</ele>
  <time>2026-08-28T17:51:33Z</time>
  <course>346.57</course>
  <speed>0.0</speed>
  <fix>3d</fix>
</trkpt>
<trkpt lat="40.0715535" lon="-105.2294017">
  <ele>1583.06</ele>
  <time>2026-08-28T17:51:33Z</time>
  <course>156.82</course>
  <speed>0.02</speed>
  <fix>3d</fix>
</trkpt>
<trkpt lat="40.0715535" lon="-105.2294015">
  <ele>1583.0</ele>
  <time>2026-08-28T17:51:33Z</time>
  <course>347.65</course>
  <speed>0.0</speed>
  <fix>3d</fix>
</trkpt>
<trkpt lat="40.0715535" lon="-105.2294017">
  <ele>1583.06</ele>
  <time>2026-08-28T17:51:33Z</time>
  <course>156.82</course>
  <speed>0.02</speed>
  <fix>3d</fix>
</trkpt>
<trkpt lat="40.0715535" lon="-105.2294015">
  <ele>1583.0</ele>
  <time>2026-08-28T17:51:33Z</time>
  <course>347.65</course>
  <speed>0.0</speed>
  <fix>3d</fix>
</trkpt>
<trkpt lat="40.0715535" lon="-105.2294017">
  <ele>1583.07</ele>
  <time>2026-08-28T17:51:33Z</time>
  <course>156.82</course>
  <speed>0.02</speed>
  <fix>3d</fix>
</trkpt>
<trkpt lat="40.0715535" lon="-105.2294015">
  <ele>1583.0</ele>
  <time>2026-08-28T17:51:33Z</time>
  <course>348.84</course>
  <speed>0.0</speed>
  <fix>3d</fix>
</trkpt>
<trkpt lat="39.655741" lon="-104.1383097">
  <ele>1566.58</ele>
  <time>2026-08-28T17:51:34Z</time>
  <course>0.0</course>
  <speed>0.0</speed>
  <fix>3d</fix>
</trkpt>
<trkpt lat="40.0713749" lon="-105.229789">
  <ele>1583.0</ele>
  <time>2026-08-28T17:51:34Z</time>
  <course>0.0</course>
  <speed>0.0</speed>
  <fix>3d</fix>
</trkpt>
<trkpt lat="40.0713749" lon="-105.229789">
  <ele>1583.0</ele>
  <time>2026-08-28T17:51:34Z</time>
  <course>238.36</course>
  <speed>0.0</speed>
  <fix>3d</fix>
</trkpt>
<trkpt lat="40.0713749" lon="-105.229789">
  <ele>1583.0</ele>
  <time>2026-08-28T17:51:34Z</time>
  <course>0.0</course>
  <speed>0.0</speed>
  <fix>3d</fix>
</trkpt>
<trkpt lat="40.0713749" lon="-105.229789">
  <ele>1583.0</ele>
  <time>2026-08-28T17:51:34Z</time>
  <course>238.44</course>
  <speed>0.0</speed>
  <fix>3d</fix>
</trkpt>
<trkpt lat="40.0713749" lon="-105.229789">
  <ele>1583.0</ele>
  <time>2026-08-28T17:51:34Z</time>
  <course>0.0</course>
  <speed>0.0</speed>
  <fix>3d</fix>
</trkpt>
<trkpt lat="40.0713749" lon="-105.229789">
  <ele>1583.0</ele>
  <time>2026-08-28T17:51:34Z</time>
  <course>238.64</course>
  <speed>0.0</speed>
  <fix>3d</fix>
</trkpt>
<trkpt lat="40.0713749" lon="-105.229789">
  <ele>1583.0</ele>
  <time>2026-08-28T17:51:34Z</time>
  <course>0.0</course>
  <speed>0.0</speed>
  <fix>3d</fix>
</trkpt>
<trkpt lat="40.0713749" lon="-105.229789">
  <ele>1583.0</ele>
  <time>2026-08-28T17:51:34Z</time>
  <course>238.93</course>
  <speed>0.0</speed>
  <fix>3d</fix>
</trkpt>
<trkpt lat="40.0713749" lon="-105.229789">
  <ele>1583.0</ele>
  <time>2026-08-28T17:51:34Z</time>
  <course>0.0</course>
  <speed>0.0</speed>
  <fix>3d</fix>
</trkpt>
<trkpt lat="40.0713749" lon="-105.229789">
  <ele>1583.0</ele>
  <time>2026-08-28T17:51:34Z</time>
  <course>239.26</course>
  <speed>0.0</speed>
  <fix>3d</fix>
</trkpt>
<trkpt lat="40.0713749" lon="-105.229789">
  <ele>1583.0</ele>
  <time>2026-08-28T17:51:34Z</time>
  <course>0.0</course>
  <speed>0.0</speed>
  <fix>3d</fix>
</trkpt>
<trkpt lat="40.0713749" lon="-105.229789">
  <ele>1583.0</ele>
  <time>2026-08-28T17:51:34Z</time>
  <course>239.61</course>
  <speed>0.0</speed>
  <fix>3d</fix>
</trkpt>
<trkpt lat="40.0713749" lon="-105.229789">
  <ele>1583.0</ele>
  <time>2026-08-28T17:51:34Z</time>
  <course>0.0</course>
  <speed>0.0</speed>
  <fix>3d</fix>
</trkpt>
<trkpt lat="40.0713749" lon="-105.229789">
  <ele>1583.0</ele>
  <time>2026-08-28T17:51:34Z</time>
  <course>239.96</course>
  <speed>0.0</speed>
  <fix>3d</fix>
</trkpt>
<trkpt lat="40.0713749" lon="-105.229789">
  <ele>1583.0</ele>
  <time>2026-08-28T17:51:34Z</time>
  <course>0.0</course>
  <speed>0.0</speed>
  <fix>3d</fix>
</trkpt>
<trkpt lat="40.0713749" lon="-105.229789">
  <ele>1583.0</ele>
  <time>2026-08-28T17:51:34Z</time>
  <course>240.29</course>
  <speed>0.0</speed>
  <fix>3d</fix>
</trkpt>
<trkpt lat="40.0713749" lon="-105.229789">
  <ele>1583.0</ele>
  <time>2026-08-28T17:51:34Z</time>
  <course>0.0</course>
  <speed>0.0</speed>
  <fix>3d</fix>
</trkpt>
<trkpt lat="40.0713749" lon="-105.229789">
  <ele>1583.0</ele>
  <time>2026-08-28T17:51:34Z</time>
  <course>240.61</course>
  <speed>0.0</speed>
  <fix>3d</fix>
</trkpt>
<trkpt lat="40.0713749" lon="-105.229789">
  <ele>1583.0</ele>
  <time>2026-08-28T17:51:34Z</time>
  <course>0.0</course>
  <speed>0.0</speed>
  <fix>3d</fix>
</trkpt>
<trkpt lat="40.0713749" lon="-105.229789">
  <ele>1583.0</ele>
  <time>2026-08-28T17:51:34Z</time>
  <course>240.92</course>
  <speed>0.0</speed>
  <fix>3d</fix>
</trkpt>
<trkpt lat="40.0713749" lon="-105.229789">
  <ele>1583.0</ele>
  <time>2026-08-28T17:51:34Z</time>
  <course>0.0</course>
  <speed>0.0</speed>
  <fix>3d</fix>
</trkpt>
<trkpt lat="40.0713749" lon="-105.229789">
  <ele>1583.0</ele>
  <time>2026-08-28T17:51:34Z</time>
  <course>241.21</course>
  <speed>0.0</speed>
  <fix>3d</fix>
</trkpt>
<trkpt lat="40.0713749" lon="-105.229789">
  <ele>1583.0</ele>
  <time>2026-08-28T17:51:34Z</time>
  <course>0.0</course>
  <speed>0.0</speed>
  <fix>3d</fix>
</trkpt>
<trkpt lat="40.0713749" lon="-105.229789">
  <ele>1583.0</ele>
  <time>2026-08-28T17:51:34Z</time>
  <course>241.49</course>
  <speed>0.0</speed>
  <fix>3d</fix>
</trkpt>
<trkpt lat="40.0713749" lon="-105.229789">
  <ele>1583.0</ele>
  <time>2026-08-28T17:51:34Z</time>
  <course>0.0</course>
  <speed>0.0</speed>
  <fix>3d</fix>
</trkpt>
<trkpt lat="40.0713749" lon="-105.229789">
  <ele>1583.0</ele>
  <time>2026-08-28T17:51:34Z</time>
  <course>241.77</course>
  <speed>0.0</speed>
  <fix>3d</fix>
</trkpt>
<trkpt lat="40.0713749" lon="-105.229789">
  <ele>1583.0</ele>
  <time>2026-08-28T17:51:34Z</time>
  <course>0.0</course>
  <speed>0.0</speed>
  <fix>3d</fix>
</trkpt>
<trkpt lat="40.0713749" lon="-105.229789">
  <ele>1583.0</ele>
  <time>2026-08-28T17:51:34Z</time>
  <course>242.03</course>
  <speed>0.0</speed>
  <fix>3d</fix>
</trkpt>
<trkpt lat="40.0713749" lon="-105.229789">
  <ele>1583.0</ele>
  <time>2026-08-28T17:51:34Z</time>
  <course>0.0</course>
  <speed>0.0</speed>
  <fix>3d</fix>
</trkpt>
<trkpt lat="40.0713749" lon="-105.229789">
  <ele>1583.0</ele>
  <time>2026-08-28T17:51:34Z</time>
  <course>242.29</course>
  <speed>0.0</speed>
  <fix>3d</fix>
</trkpt>
<trkpt lat="40.0713749" lon="-105.229789">
  <ele>1583.0</ele>
  <time>2026-08-28T17:51:34Z</time>
  <course>0.0</course>
  <speed>0.0</speed>
  <fix>3d</fix>
</trkpt>
<trkpt lat="40.0713749" lon="-105.229789">
  <ele>1583.0</ele>
  <time>2026-08-28T17:51:34Z</time>
  <course>242.54</course>
  <speed>0.0</speed>
  <fix>3d</fix>
</trkpt>
<trkpt lat="40.0713749" lon="-105.229789">
  <ele>1583.0</ele>
  <time>2026-08-28T17:51:34Z</time>
  <course>0.0</course>
  <speed>0.0</speed>
  <fix>3d</fix>
</trkpt>
<trkpt lat="40.0713749" lon="-105.229789">
  <ele>1583.0</ele>
  <time>2026-08-28T17:51:34Z</time>
  <course>242.79</course>
  <speed>0.0</speed>
  <fix>3d</fix>
</trkpt>
<trkpt lat="40.0713749" lon="-105.229789">
  <ele>1583.0</ele>
  <time>2026-08-28T17:51:34Z</time>
  <course>0.0</course>
  <speed>0.0</speed>
  <fix>3d</fix>
</trkpt>
<trkpt lat="40.0713749" lon="-105.229789">
  <ele>1583.0</ele>
  <time>2026-08-28T17:51:34Z</time>
  <course>243.02</course>
  <speed>0.0</speed>
  <fix>3d</fix>
</trkpt>
<trkpt lat="40.0713749" lon="-105.229789">
  <ele>1583.0</ele>
  <time>2026-08-28T17:51:34Z</time>
  <course>0.0</course>
  <speed>0.0</speed>
  <fix>3d</fix>
</trkpt>
<trkpt lat="40.0713749" lon="-105.229789">
  <ele>1583.0</ele>
  <time>2026-08-28T17:51:34Z</time>
  <course>243.25</course>
  <speed>0.0</speed>
  <fix>3d</fix>
</trkpt>
<trkpt lat="40.0713749" lon="-105.229789">
  <ele>1583.0</ele>
  <time>2026-08-28T17:51:34Z</time>
  <course>0.0</course>
  <speed>0.0</speed>
  <fix>3d</fix>
</trkpt>
<trkpt lat="40.0713749" lon="-105.229789">
  <ele>1583.0</ele>
  <time>2026-08-28T17:51:34Z</time>
  <course>243.47</course>
  <speed>0.0</speed>
  <fix>3d</fix>
</trkpt>
<trkpt lat="40.0713749" lon="-105.229789">
  <ele>1583.0</ele>
  <time>2026-08-28T17:51:34Z</time>
  <course>0.0</course>
  <speed>0.0</speed>
  <fix>3d</fix>
</trkpt>
<trkpt lat="40.0713749" lon="-105.229789">
  <ele>1583.0</ele>
  <time>2026-08-28T17:51:34Z</time>
  <course>243.68</course>
  <speed>0.0</speed>
  <fix>3d</fix>
</trkpt>
<trkpt lat="40.0713749" lon="-105.229789">
  <ele>1583.0</ele>
  <time>2026-08-28T17:51:34Z</time>
  <course>0.0</course>
  <speed>0.0</speed>
  <fix>3d</fix>
</trkpt>
<trkpt lat="40.0713749" lon="-105.229789">
  <ele>1583.0</ele>
  <time>2026-08-28T17:51:34Z</time>
  <course>243.89</course>
  <speed>0.0</speed>
  <fix>3d</fix>
</trkpt>
<trkpt lat="40.0713749" lon="-105.229789">
  <ele>1583.0</ele>
  <time>2026-08-28T17:51:34Z</time>
  <course>0.0</course>
  <speed>0.0</speed>
  <fix>3d</fix>
</trkpt>
<trkpt lat="40.0713749" lon="-105.229789">
  <ele>1583.0</ele>
  <time>2026-08-28T17:51:34Z</time>
  <course>244.09</course>
  <speed>0.0</speed>
  <fix>3d</fix>
</trkpt>
<trkpt lat="40.0713749" lon="-105.229789">
  <ele>1583.0</ele>
  <time>2026-08-28T17:51:34Z</time>
  <course>0.0</course>
  <speed>0.0</speed>
  <fix>3d</fix>
</trkpt>
<trkpt lat="40.0713749" lon="-105.229789">
  <ele>1583.0</ele>
  <time>2026-08-28T17:51:34Z</time>
  <course>244.28</course>
  <speed>0.0</speed>
  <fix>3d</fix>
</trkpt>
<trkpt lat="40.0713749" lon="-105.229789">
  <ele>1583.0</ele>
  <time>2026-08-28T17:51:34Z</time>
  <course>0.0</course>
  <speed>0.0</speed>
  <fix>3d</fix>
</trkpt>
<trkpt lat="40.0713749" lon="-105.229789">
  <ele>1583.0</ele>
  <time>2026-08-28T17:51:34Z</time>
  <course>244.46</course>
  <speed>0.0</speed>
  <fix>3d</fix>
</trkpt>
<trkpt lat="40.0713749" lon="-105.229789">
  <ele>1583.0</ele>
  <time>2026-08-28T17:51:34Z</time>
  <course>0.0</course>
  <speed>0.0</speed>
  <fix>3d</fix>
</trkpt>
<trkpt lat="40.0713749" lon="-105.229789">
  <ele>1583.0</ele>
  <time>2026-08-28T17:51:34Z</time>
  <course>244.64</course>
  <speed>0.0</speed>
  <fix>3d</fix>
</trkpt>
<trkpt lat="40.0713749" lon="-105.229789">
  <ele>1583.0</ele>
  <time>2026-08-28T17:51:34Z</time>
  <course>0.0</course>
  <speed>0.0</speed>
  <fix>3d</fix>
</trkpt>
<trkpt lat="40.0713749" lon="-105.229789">
  <ele>1583.0</ele>
  <time>2026-08-28T17:51:34Z</time>
  <course>244.81</course>
  <speed>0.0</speed>
  <fix>3d</fix>
</trkpt>
<trkpt lat="40.0713749" lon="-105.229789">
  <ele>1583.0</ele>
  <time>2026-08-28T17:51:34Z</time>
  <course>0.0</course>
  <speed>0.0</speed>
  <fix>3d</fix>
</trkpt>
<trkpt lat="40.0713749" lon="-105.229789">
  <ele>1583.0</ele>
  <time>2026-08-28T17:51:34Z</time>
  <course>244.97</course>
  <speed>0.0</speed>
  <fix>3d</fix>
</trkpt>
<trkpt lat="40.0713749" lon="-105.229789">
  <ele>1583.0</ele>
  <time>2026-08-28T17:51:34Z</time>
  <course>0.0</course>
  <speed>0.0</speed>
  <fix>3d</fix>
</trkpt>
<trkpt lat="40.0713749" lon="-105.229789">
  <ele>1583.0</ele>
  <time>2026-08-28T17:51:34Z</time>
  <course>245.13</course>
  <speed>0.0</speed>
  <fix>3d</fix>
</trkpt>
<trkpt lat="40.0713749" lon="-105.229789">
  <ele>1583.0</ele>
  <time>2026-08-28T17:51:34Z</time>
  <course>0.0</course>
  <speed>0.0</speed>
  <fix>3d</fix>
</trkpt>
<trkpt lat="40.0713749" lon="-105.229789">
  <ele>1583.0</ele>
  <time>2026-08-28T17:51:34Z</time>
  <course>245.29</course>
  <speed>0.0</speed>
  <fix>3d</fix>
</trkpt>
<trkpt lat="40.0713749" lon="-105.229789">
  <ele>1583.0</ele>
  <time>2026-08-28T17:51:34Z</time>
  <course>0.0</course>
  <speed>0.0</speed>
  <fix>3d</fix>
</trkpt>
<trkpt lat="40.0713749" lon="-105.229789">
  <ele>1583.0</ele>
  <time>2026-08-28T17:51:34Z</time>
  <course>245.43</course>
  <speed>0.0</speed>
  <fix>3d</fix>
</trkpt>
<trkpt lat="40.0713749" lon="-105.229789">
  <ele>1583.0</ele>
  <time>2026-08-28T17:51:34Z</time>
  <course>0.0</course>
  <speed>0.0</speed>
  <fix>3d</fix>
</trkpt>
<trkpt lat="40.0713749" lon="-105.229789">
  <ele>1583.0</ele>
  <time>2026-08-28T17:51:34Z</time>
  <course>245.57</course>
  <speed>0.0</speed>
  <fix>3d</fix>
</trkpt>
<trkpt lat="40.0713749" lon="-105.229789">
  <ele>1583.0</ele>
  <time>2026-08-28T17:51:34Z</time>
  <course>0.0</course>
  <speed>0.0</speed>
  <fix>3d</fix>
</trkpt>
<trkpt lat="40.0713749" lon="-105.229789">
  <ele>1583.0</ele>
  <time>2026-08-28T17:51:34Z</time>
  <course>245.71</course>
  <speed>0.0</speed>
  <fix>3d</fix>
</trkpt>
<trkpt lat="40.0713749" lon="-105.229789">
  <ele>1583.0</ele>
  <time>2026-08-28T17:51:34Z</time>
  <course>0.0</course>
  <speed>0.0</speed>
  <fix>3d</fix>
</trkpt>
<trkpt lat="40.0713749" lon="-105.229789">
  <ele>1583.0</ele>
  <time>2026-08-28T17:51:34Z</time>
  <course>245.84</course>
  <speed>0.0</speed>
  <fix>3d</fix>
</trkpt>
<trkpt lat="40.0713749" lon="-105.229789">
  <ele>1583.0</ele>
  <time>2026-08-28T17:51:34Z</time>
  <course>0.0</course>
  <speed>0.0</speed>
  <fix>3d</fix>
</trkpt>
<trkpt lat="40.0713749" lon="-105.229789">
  <ele>1583.0</ele>
  <time>2026-08-28T17:51:34Z</time>
  <course>245.96</course>
  <speed>0.0</speed>
  <fix>3d</fix>
</trkpt>
<trkpt lat="40.0713749" lon="-105.229789">
  <ele>1583.0</ele>
  <time>2026-08-28T17:51:34Z</time>
  <course>0.0</course>
  <speed>0.0</speed>
  <fix>3d</fix>
</trkpt>
<trkpt lat="40.0713749" lon="-105.229789">
  <ele>1583.0</ele>
  <time>2026-08-28T17:51:34Z</time>
  <course>246.08</course>
  <speed>0.0</speed>
  <fix>3d</fix>
</trkpt>
<trkpt lat="40.0713749" lon="-105.229789">
  <ele>1583.0</ele>
  <time>2026-08-28T17:51:34Z</time>
  <course>0.0</course>
  <speed>0.0</speed>
  <fix>3d</fix>
</trkpt>
<trkpt lat="40.0713749" lon="-105.229789">
  <ele>1583.0</ele>
  <time>2026-08-28T17:51:34Z</time>
  <course>246.19</course>
  <speed>0.0</speed>
  <fix>3d</fix>
</trkpt>
<trkpt lat="40.0713749" lon="-105.229789">
  <ele>1583.0</ele>
  <time>2026-08-28T17:51:34Z</time>
  <course>0.0</course>
  <speed>0.0</speed>
  <fix>3d</fix>
</trkpt>
<trkpt lat="40.0713749" lon="-105.229789">
  <ele>1583.0</ele>
  <time>2026-08-28T17:51:34Z</time>
  <course>246.3</course>
  <speed>0.0</speed>
  <fix>3d</fix>
</trkpt>
<trkpt lat="40.0713749" lon="-105.229789">
  <ele>1583.0</ele>
  <time>2026-08-28T17:51:34Z</time>
  <course>0.0</course>
  <speed>0.0</speed>
  <fix>3d</fix>
</trkpt>
<trkpt lat="40.0713749" lon="-105.229789">
  <ele>1583.0</ele>
  <time>2026-08-28T17:51:34Z</time>
  <course>246.41</course>
  <speed>0.0</speed>
  <fix>3d</fix>
</trkpt>
<trkpt lat="40.0713749" lon="-105.229789">
  <ele>1583.0</ele>
  <time>2026-08-28T17:51:34Z</time>
  <course>0.0</course>
  <speed>0.0</speed>
  <fix>3d</fix>
</trkpt>
<trkpt lat="40.0713749" lon="-105.229789">
  <ele>1583.0</ele>
  <time>2026-08-28T17:51:34Z</time>
  <course>246.51</course>
  <speed>0.0</speed>
  <fix>3d</fix>
</trkpt>
<trkpt lat="40.0713749" lon="-105.229789">
  <ele>1583.0</ele>
  <time>2026-08-28T17:51:34Z</time>
  <course>0.0</course>
  <speed>0.0</speed>
  <fix>3d</fix>
</trkpt>
<trkpt lat="40.0713749" lon="-105.229789">
  <ele>1583.0</ele>
  <time>2026-08-28T17:51:34Z</time>
  <course>246.6</course>
  <speed>0.0</speed>
  <fix>3d</fix>
</trkpt>
<trkpt lat="40.0713749" lon="-105.229789">
  <ele>1583.0</ele>
  <time>2026-08-28T17:51:34Z</time>
  <course>0.0</course>
  <speed>0.0</speed>
  <fix>3d</fix>
</trkpt>
<trkpt lat="40.0713749" lon="-105.229789">
  <ele>1583.0</ele>
  <time>2026-08-28T17:51:34Z</time>
  <course>246.7</course>
  <speed>0.0</speed>
  <fix>3d</fix>
</trkpt>
<trkpt lat="40.0713749" lon="-105.229789">
  <ele>1583.0</ele>
  <time>2026-08-28T17:51:34Z</time>
  <course>0.0</course>
  <speed>0.0</speed>
  <fix>3d</fix>
</trkpt>
<trkpt lat="40.0713749" lon="-105.229789">
  <ele>1583.0</ele>
  <time>2026-08-28T17:51:34Z</time>
  <course>246.78</course>
  <speed>0.0</speed>
  <fix>3d</fix>
</trkpt>
<trkpt lat="40.0713749" lon="-105.229789">
  <ele>1583.0</ele>
  <time>2026-08-28T17:51:34Z</time>
  <course>0.0</course>
  <speed>0.0</speed>
  <fix>3d</fix>
</trkpt>
<trkpt lat="40.0713749" lon="-105.229789">
  <ele>1583.0</ele>
  <time>2026-08-28T17:51:34Z</time>
  <course>246.87</course>
  <speed>0.0</speed>
  <fix>3d</fix>
</trkpt>
<trkpt lat="40.0713749" lon="-105.229789">
  <ele>1583.0</ele>
  <time>2026-08-28T17:51:34Z</time>
  <course>0.0</course>
  <speed>0.0</speed>
  <fix>3d</fix>
</trkpt>
<trkpt lat="40.0713749" lon="-105.229789">
  <ele>1583.0</ele>
  <time>2026-08-28T17:51:34Z</time>
  <course>246.95</course>
  <speed>0.0</speed>
  <fix>3d</fix>
</trkpt>
<trkpt lat="40.0713749" lon="-105.229789">
  <ele>1583.0</ele>
  <time>2026-08-28T17:51:34Z</time>
  <course>0.0</course>
  <speed>0.0</speed>
  <fix>3d</fix>
</trkpt>
<trkpt lat="40.0713749" lon="-105.229789">
  <ele>1583.0</ele>
  <time>2026-08-28T17:51:34Z</time>
  <course>247.02</course>
  <speed>0.0</speed>
  <fix>3d</fix>
</trkpt>
<trkpt lat="40.0713749" lon="-105.229789">
  <ele>1583.0</ele>
  <time>2026-08-28T17:51:34Z</time>
  <course>0.0</course>
  <speed>0.0</speed>
  <fix>3d</fix>
</trkpt>
<trkpt lat="40.0713749" lon="-105.229789">
  <ele>1583.0</ele>
  <time>2026-08-28T17:51:34Z</time>
  <course>247.1</course>
  <speed>0.0</speed>
  <fix>3d</fix>
</trkpt>
<trkpt lat="40.0713749" lon="-105.229789">
  <ele>1583.0</ele>
  <time>2026-08-28T17:51:34Z</time>
  <course>0.0</course>
  <speed>0.0</speed>
  <fix>3d</fix>
</trkpt>
<trkpt lat="40.0713749" lon="-105.229789">
  <ele>1583.0</ele>
  <time>2026-08-28T17:51:34Z</time>
  <course>247.17</course>
  <speed>0.0</speed>
  <fix>3d</fix>
</trkpt>
<trkpt lat="40.0713749" lon="-105.229789">
  <ele>1583.0</ele>
  <time>2026-08-28T17:51:34Z</time>
  <course>0.0</course>
  <speed>0.0</speed>
  <fix>3d</fix>
</trkpt>
<trkpt lat="40.0713749" lon="-105.229789">
  <ele>1583.0</ele>
  <time>2026-08-28T17:51:34Z</time>
  <course>247.24</course>
  <speed>0.0</speed>
  <fix>3d</fix>
</trkpt>
<trkpt lat="40.0713749" lon="-105.229789">
  <ele>1583.0</ele>
  <time>2026-08-28T17:51:34Z</time>
  <course>0.0</course>
  <speed>0.0</speed>
  <fix>3d</fix>
</trkpt>
<trkpt lat="40.0713749" lon="-105.229789">
  <ele>1583.0</ele>
  <time>2026-08-28T17:51:34Z</time>
  <course>247.3</course>
  <speed>0.0</speed>
  <fix>3d</fix>
</trkpt>
<trkpt lat="40.0713749" lon="-105.229789">
  <ele>1583.0</ele>
  <time>2026-08-28T17:51:34Z</time>
  <course>0.0</course>
  <speed>0.0</speed>
  <fix>3d</fix>
</trkpt>
<trkpt lat="40.0713749" lon="-105.229789">
  <ele>1583.0</ele>
  <time>2026-08-28T17:51:34Z</time>
  <course>247.36</course>
  <speed>0.0</speed>
  <fix>3d</fix>
</trkpt>
<trkpt lat="40.0713749" lon="-105.229789">
  <ele>1583.0</ele>
  <time>2026-08-28T17:51:34Z</time>
  <course>0.0</course>
  <speed>0.0</speed>
  <fix>3d</fix>
</trkpt>
<trkpt lat="40.0713749" lon="-105.229789">
  <ele>1583.0</ele>
  <time>2026-08-28T17:51:34Z</time>
  <course>247.42</course>
  <speed>0.0</speed>
  <fix>3d</fix>
</trkpt>
<trkpt lat="40.0713749" lon="-105.229789">
  <ele>1583.0</ele>
  <time>2026-08-28T17:51:34Z</time>
  <course>0.0</course>
  <speed>0.0</speed>
  <fix>3d</fix>
</trkpt>
<trkpt lat="40.0713749" lon="-105.229789">
  <ele>1583.0</ele>
  <time>2026-08-28T17:51:34Z</time>
  <course>247.47</course>
  <speed>0.0</speed>
  <fix>3d</fix>
</trkpt>
<trkpt lat="40.0713749" lon="-105.229789">
  <ele>1583.0</ele>
  <time>2026-08-28T17:51:34Z</time>
  <course>0.0</course>
  <speed>0.0</speed>
  <fix>3d</fix>
</trkpt>
<trkpt lat="40.0713749" lon="-105.229789">
  <ele>1583.0</ele>
  <time>2026-08-28T17:51:34Z</time>
  <course>247.53</course>
  <speed>0.0</speed>
  <fix>3d</fix>
</trkpt>
<trkpt lat="40.0713749" lon="-105.229789">
  <ele>1583.0</ele>
  <time>2026-08-28T17:51:34Z</time>
  <course>0.0</course>
  <speed>0.0</speed>
  <fix>3d</fix>
</trkpt>
<trkpt lat="40.0713749" lon="-105.229789">
  <ele>1583.0</ele>
  <time>2026-08-28T17:51:34Z</time>
  <course>247.58</course>
  <speed>0.0</speed>
  <fix>3d</fix>
</trkpt>
<trkpt lat="40.0713749" lon="-105.229789">
  <ele>1583.0</ele>
  <time>2026-08-28T17:51:34Z</time>
  <course>0.0</course>
  <speed>0.0</speed>
  <fix>3d</fix>
</trkpt>
<trkpt lat="40.0713749" lon="-105.229789">
  <ele>1583.0</ele>
  <time>2026-08-28T17:51:34Z</time>
  <course>247.63</course>
  <speed>0.0</speed>
  <fix>3d</fix>
</trkpt>
<trkpt lat="40.0713749" lon="-105.229789">
  <ele>1583.0</ele>
  <time>2026-08-28T17:51:34Z</time>
  <course>0.0</course>
  <speed>0.0</speed>
  <fix>3d</fix>
</trkpt>
<trkpt lat="40.0713749" lon="-105.229789">
  <ele>1583.0</ele>
  <time>2026-08-28T17:51:34Z</time>
  <course>247.67</course>
  <speed>0.0</speed>
  <fix>3d</fix>
</trkpt>
<trkpt lat="40.0713749" lon="-105.229789">
  <ele>1583.0</ele>
  <time>2026-08-28T17:51:34Z</time>
  <course>0.0</course>
  <speed>0.0</speed>
  <fix>3d</fix>
</trkpt>
<trkpt lat="40.0713749" lon="-105.229789">
  <ele>1583.0</ele>
  <time>2026-08-28T17:51:34Z</time>
  <course>247.72</course>
  <speed>0.0</speed>
  <fix>3d</fix>
</trkpt>
<trkpt lat="40.0713749" lon="-105.229789">
  <ele>1583.0</ele>
  <time>2026-08-28T17:51:34Z</time>
  <course>0.0</course>
  <speed>0.0</speed>
  <fix>3d</fix>
</trkpt>
<trkpt lat="40.0713749" lon="-105.229789">
  <ele>1583.0</ele>
  <time>2026-08-28T17:51:34Z</time>
  <course>247.76</course>
  <speed>0.0</speed>
  <fix>3d</fix>
</trkpt>
<trkpt lat="40.0713749" lon="-105.229789">
  <ele>1583.0</ele>
  <time>2026-08-28T17:51:34Z</time>
  <course>0.0</course>
  <speed>0.0</speed>
  <fix>3d</fix>
</trkpt>
<trkpt lat="40.0713749" lon="-105.229789">
  <ele>1583.0</ele>
  <time>2026-08-28T17:51:34Z</time>
  <course>247.8</course>
  <speed>0.0</speed>
  <fix>3d</fix>
</trkpt>
<trkpt lat="40.0713749" lon="-105.229789">
  <ele>1583.0</ele>
  <time>2026-08-28T17:51:34Z</time>
  <course>0.0</course>
  <speed>0.0</speed>
  <fix>3d</fix>
</trkpt>
<trkpt lat="40.0713749" lon="-105.229789">
  <ele>1583.0</ele>
  <time>2026-08-28T17:51:34Z</time>
  <course>247.83</course>
  <speed>0.0</speed>
  <fix>3d</fix>
</trkpt>
<trkpt lat="40.0713749" lon="-105.229789">
  <ele>1583.0</ele>
  <time>2026-08-28T17:51:34Z</time>
  <course>0.0</course>
  <speed>0.0</speed>
  <fix>3d</fix>
</trkpt>
<trkpt lat="40.0713749" lon="-105.229789">
  <ele>1583.0</ele>
  <time>2026-08-28T17:51:34Z</time>
  <course>247.87</course>
  <speed>0.0</speed>
  <fix>3d</fix>
</trkpt>
<trkpt lat="40.0713749" lon="-105.229789">
  <ele>1583.0</ele>
  <time>2026-08-28T17:51:34Z</time>
  <course>0.0</course>
  <speed>0.0</speed>
  <fix>3d</fix>
</trkpt>
<trkpt lat="40.0713749" lon="-105.229789">
  <ele>1583.0</ele>
  <time>2026-08-28T17:51:34Z</time>
  <course>247.9</course>
  <speed>0.0</speed>
  <fix>3d</fix>
</trkpt>
<trkpt lat="40.0713749" lon="-105.229789">
  <ele>1583.0</ele>
  <time>2026-08-28T17:51:34Z</time>
  <course>0.0</course>
  <speed>0.0</speed>
  <fix>3d</fix>
</trkpt>
<trkpt lat="40.0713749" lon="-105.229789">
  <ele>1583.0</ele>
  <time>2026-08-28T17:51:34Z</time>
  <course>247.94</course>
  <speed>0.0</speed>
  <fix>3d</fix>
</trkpt>
<trkpt lat="40.0713749" lon="-105.229789">
  <ele>1583.0</ele>
  <time>2026-08-28T17:51:34Z</time>
  <course>0.0</course>
  <speed>0.0</speed>
  <fix>3d</fix>
</trkpt>
<trkpt lat="40.0713749" lon="-105.229789">
  <ele>1583.0</ele>
  <time>2026-08-28T17:51:34Z</time>
  <course>247.97</course>
  <speed>0.0</speed>
  <fix>3d</fix>
</trkpt>
<trkpt lat="40.0713749" lon="-105.229789">
  <ele>1583.0</ele>
  <time>2026-08-28T17:51:34Z</time>
  <course>0.0</course>
  <speed>0.0</speed>
  <fix>3d</fix>
</trkpt>
<trkpt lat="40.0713749" lon="-105.229789">
  <ele>1583.0</ele>
  <time>2026-08-28T17:51:34Z</time>
  <course>248.0</course>
  <speed>0.0</speed>
  <fix>3d</fix>
</trkpt>
<trkpt lat="40.0713749" lon="-105.229789">
  <ele>1583.0</ele>
  <time>2026-08-28T17:51:34Z</time>
  <course>0.0</course>
  <speed>0.0</speed>
  <fix>3d</fix>
</trkpt>
<trkpt lat="40.0713749" lon="-105.229789">
  <ele>1583.0</ele>
  <time>2026-08-28T17:51:34Z</time>
  <course>248.02</course>
  <speed>0.0</speed>
  <fix>3d</fix>
</trkpt>
<trkpt lat="40.0713749" lon="-105.229789">
  <ele>1583.0</ele>
  <time>2026-08-28T17:51:34Z</time>
  <course>0.0</course>
  <speed>0.0</speed>
  <fix>3d</fix>
</trkpt>
<trkpt lat="40.0713749" lon="-105.229789">
  <ele>1583.0</ele>
  <time>2026-08-28T17:51:34Z</time>
  <course>248.05</course>
  <speed>0.0</speed>
  <fix>3d</fix>
</trkpt>
<trkpt lat="40.0713749" lon="-105.229789">
  <ele>1583.0</ele>
  <time>2026-08-28T17:51:34Z</time>
  <course>0.0</course>
  <speed>0.0</speed>
  <fix>3d</fix>
</trkpt>
<trkpt lat="40.0713749" lon="-105.229789">
  <ele>1583.0</ele>
  <time>2026-08-28T17:51:34Z</time>
  <course>248.08</course>
  <speed>0.0</speed>
  <fix>3d</fix>
</trkpt>
<trkpt lat="40.0713749" lon="-105.229789">
  <ele>1583.0</ele>
  <time>2026-08-28T17:51:34Z</time>
  <course>0.0</course>
  <speed>0.0</speed>
  <fix>3d</fix>
</trkpt>
<trkpt lat="40.0713749" lon="-105.229789">
  <ele>1583.0</ele>
  <time>2026-08-28T17:51:34Z</time>
  <course>248.1</course>
  <speed>0.0</speed>
  <fix>3d</fix>
</trkpt>
<trkpt lat="40.0713749" lon="-105.229789">
  <ele>1583.0</ele>
  <time>2026-08-28T17:51:34Z</time>
  <course>0.0</course>
  <speed>0.0</speed>
  <fix>3d</fix>
</trkpt>
<trkpt lat="40.0713749" lon="-105.229789">
  <ele>1583.0</ele>
  <time>2026-08-28T17:51:34Z</time>
  <course>248.12</course>
  <speed>0.0</speed>
  <fix>3d</fix>
</trkpt>
<trkpt lat="40.0713749" lon="-105.229789">
  <ele>1583.0</ele>
  <time>2026-08-28T17:51:34Z</time>
  <course>0.0</course>
  <speed>0.0</speed>
  <fix>3d</fix>
</trkpt>
<trkpt lat="40.0713749" lon="-105.229789">
  <ele>1583.0</ele>
  <time>2026-08-28T17:51:34Z</time>
  <course>248.14</course>
  <speed>0.0</speed>
  <fix>3d</fix>
</trkpt>
<trkpt lat="40.0713749" lon="-105.229789">
  <ele>1583.0</ele>
  <time>2026-08-28T17:51:34Z</time>
  <course>0.0</course>
  <speed>0.0</speed>
  <fix>3d</fix>
</trkpt>
<trkpt lat="40.0713749" lon="-105.229789">
  <ele>1583.0</ele>
  <time>2026-08-28T17:51:34Z</time>
  <course>248.16</course>
  <speed>0.0</speed>
  <fix>3d</fix>
</trkpt>
<trkpt lat="40.0713749" lon="-105.229789">
  <ele>1583.0</ele>
  <time>2026-08-28T17:51:34Z</time>
  <course>0.0</course>
  <speed>0.0</speed>
  <fix>3d</fix>
</trkpt>
<trkpt lat="40.0713749" lon="-105.229789">
  <ele>1583.0</ele>
  <time>2026-08-28T17:51:34Z</time>
  <course>248.18</course>
  <speed>0.0</speed>
  <fix>3d</fix>
</trkpt>
<trkpt lat="40.0713749" lon="-105.229789">
  <ele>1583.0</ele>
  <time>2026-08-28T17:51:34Z</time>
  <course>0.0</course>
  <speed>0.0</speed>
  <fix>3d</fix>
</trkpt>
<trkpt lat="40.0713749" lon="-105.229789">
  <ele>1583.0</ele>
  <time>2026-08-28T17:51:34Z</time>
  <course>248.2</course>
  <speed>0.0</speed>
  <fix>3d</fix>
</trkpt>
<trkpt lat="40.0713749" lon="-105.229789">
  <ele>1583.0</ele>
  <time>2026-08-28T17:51:34Z</time>
  <course>0.0</course>
  <speed>0.0</speed>
  <fix>3d</fix>
</trkpt>
<trkpt lat="40.0713749" lon="-105.229789">
  <ele>1583.0</ele>
  <time>2026-08-28T17:51:34Z</time>
  <course>248.22</course>
  <speed>0.0</speed>
  <fix>3d</fix>
</trkpt>
<trkpt lat="40.0713749" lon="-105.229789">
  <ele>1583.0</ele>
  <time>2026-08-28T17:51:34Z</time>
  <course>0.0</course>
  <speed>0.0</speed>
  <fix>3d</fix>
</trkpt>
<trkpt lat="40.0713749" lon="-105.229789">
  <ele>1583.0</ele>
  <time>2026-08-28T17:51:34Z</time>
  <course>248.23</course>
  <speed>0.0</speed>
  <fix>3d</fix>
</trkpt>
<trkpt lat="40.0713749" lon="-105.229789">
  <ele>1583.0</ele>
  <time>2026-08-28T17:51:34Z</time>
  <course>0.0</course>
  <speed>0.0</speed>
  <fix>3d</fix>
</trkpt>
<trkpt lat="40.0713749" lon="-105.229789">
  <ele>1583.0</ele>
  <time>2026-08-28T17:51:34Z</time>
  <course>248.25</course>
  <speed>0.0</speed>
  <fix>3d</fix>
</trkpt>
<trkpt lat="40.0713749" lon="-105.229789">
  <ele>1583.0</ele>
  <time>2026-08-28T17:51:34Z</time>
  <course>0.0</course>
  <speed>0.0</speed>
  <fix>3d</fix>
</trkpt>
<trkpt lat="40.0713749" lon="-105.229789">
  <ele>1583.0</ele>
  <time>2026-08-28T17:51:34Z</time>
  <course>248.26</course>
  <speed>0.0</speed>
  <fix>3d</fix>
</trkpt>
<trkpt lat="40.0713749" lon="-105.229789">
  <ele>1583.0</ele>
  <time>2026-08-28T17:51:34Z</time>
  <course>0.0</course>
  <speed>0.0</speed>
  <fix>3d</fix>
</trkpt>
<trkpt lat="40.0713749" lon="-105.229789">
  <ele>1583.0</ele>
  <time>2026-08-28T17:51:34Z</time>
  <course>248.28</course>
  <speed>0.0</speed>
  <fix>3d</fix>
</trkpt>
<trkpt lat="40.0713749" lon="-105.229789">
  <ele>1583.0</ele>
  <time>2026-08-28T17:51:34Z</time>
  <course>0.0</course>
  <speed>0.0</speed>
  <fix>3d</fix>
</trkpt>
<trkpt lat="40.0713749" lon="-105.229789">
  <ele>1583.0</ele>
  <time>2026-08-28T17:51:34Z</time>
  <course>248.29</course>
  <speed>0.0</speed>
  <fix>3d</fix>
</trkpt>
<trkpt lat="40.0713749" lon="-105.229789">
  <ele>1583.0</ele>
  <time>2026-08-28T17:51:34Z</time>
  <course>0.0</course>
  <speed>0.0</speed>
  <fix>3d</fix>
</trkpt>
<trkpt lat="40.0713749" lon="-105.229789">
  <ele>1583.0</ele>
  <time>2026-08-28T17:51:34Z</time>
  <course>248.3</course>
  <speed>0.0</speed>
  <fix>3d</fix>
</trkpt>
<trkpt lat="40.0713749" lon="-105.229789">
  <ele>1583.0</ele>
  <time>2026-08-28T17:51:34Z</time>
  <course>0.0</course>
  <speed>0.0</speed>
  <fix>3d</fix>
</trkpt>
<trkpt lat="40.0713749" lon="-105.229789">
  <ele>1583.0</ele>
  <time>2026-08-28T17:51:34Z</time>
  <course>248.31</course>
  <speed>0.0</speed>
  <fix>3d</fix>
</trkpt>
<trkpt lat="40.0713749" lon="-105.229789">
  <ele>1583.0</ele>
  <time>2026-08-28T17:51:34Z</time>
  <course>0.0</course>
  <speed>0.0</speed>
  <fix>3d</fix>
</trkpt>
<trkpt lat="40.0713749" lon="-105.229789">
  <ele>1583.0</ele>
  <time>2026-08-28T17:51:34Z</time>
  <course>248.32</course>
  <speed>0.0</speed>
  <fix>3d</fix>
</trkpt>
<trkpt lat="40.0713749" lon="-105.229789">
  <ele>1583.0</ele>
  <time>2026-08-28T17:51:34Z</time>
  <course>0.0</course>
  <speed>0.0</speed>
  <fix>3d</fix>
</trkpt>
<trkpt lat="40.0713749" lon="-105.229789">
  <ele>1583.0</ele>
  <time>2026-08-28T17:51:34Z</time>
  <course>248.33</course>
  <speed>0.0</speed>
  <fix>3d</fix>
</trkpt>
<trkpt lat="40.0713749" lon="-105.229789">
  <ele>1583.0</ele>
  <time>2026-08-28T17:51:34Z</time>
  <course>0.0</course>
  <speed>0.0</speed>
  <fix>3d</fix>
</trkpt>
<trkpt lat="40.0713749" lon="-105.229789">
  <ele>1583.0</ele>
  <time>2026-08-28T17:51:34Z</time>
  <course>248.34</course>
  <speed>0.0</speed>
  <fix>3d</fix>
</trkpt>
<trkpt lat="40.0713749" lon="-105.229789">
  <ele>1583.0</ele>
  <time>2026-08-28T17:51:34Z</time>
  <course>0.0</course>
  <speed>0.0</speed>
  <fix>3d</fix>
</trkpt>
<trkpt lat="40.0713749" lon="-105.229789">
  <ele>1583.0</ele>
  <time>2026-08-28T17:51:34Z</time>
  <course>248.35</course>
  <speed>0.0</speed>
  <fix>3d</fix>
</trkpt>
<trkpt lat="40.0713749" lon="-105.229789">
  <ele>1583.0</ele>
  <time>2026-08-28T17:51:34Z</time>
  <course>0.0</course>
  <speed>0.0</speed>
  <fix>3d</fix>
</trkpt>
<trkpt lat="40.0713749" lon="-105.229789">
  <ele>1583.0</ele>
  <time>2026-08-28T17:51:34Z</time>
  <course>248.35</course>
  <speed>0.0</speed>
  <fix>3d</fix>
</trkpt>
<trkpt lat="40.0713749" lon="-105.229789">
  <ele>1583.0</ele>
  <time>2026-08-28T17:51:34Z</time>
  <course>0.0</course>
  <speed>0.0</speed>
  <fix>3d</fix>
</trkpt>
<trkpt lat="40.0713749" lon="-105.229789">
  <ele>1583.0</ele>
  <time>2026-08-28T17:51:34Z</time>
  <course>248.36</course>
  <speed>0.0</speed>
  <fix>3d</fix>
</trkpt>
<trkpt lat="40.0713749" lon="-105.229789">
  <ele>1583.0</ele>
  <time>2026-08-28T17:51:34Z</time>
  <course>0.0</course>
  <speed>0.0</speed>
  <fix>3d</fix>
</trkpt>
<trkpt lat="40.0713749" lon="-105.229789">
  <ele>1583.0</ele>
  <time>2026-08-28T17:51:34Z</time>
  <course>248.37</course>
  <speed>0.0</speed>
  <fix>3d</fix>
</trkpt>
<trkpt lat="40.0713749" lon="-105.229789">
  <ele>1583.0</ele>
  <time>2026-08-28T17:51:34Z</time>
  <course>0.0</course>
  <speed>0.0</speed>
  <fix>3d</fix>
</trkpt>
<trkpt lat="40.0713749" lon="-105.229789">
  <ele>1583.0</ele>
  <time>2026-08-28T17:51:34Z</time>
  <course>248.37</course>
  <speed>0.0</speed>
  <fix>3d</fix>
</trkpt>
<trkpt lat="40.0713749" lon="-105.229789">
  <ele>1583.0</ele>
  <time>2026-08-28T17:51:34Z</time>
  <course>0.0</course>
  <speed>0.0</speed>
  <fix>3d</fix>
</trkpt>
<trkpt lat="40.0713749" lon="-105.229789">
  <ele>1583.0</ele>
  <time>2026-08-28T17:51:34Z</time>
  <course>248.38</course>
  <speed>0.0</speed>
  <fix>3d</fix>
</trkpt>
<trkpt lat="40.0713749" lon="-105.229789">
  <ele>1583.0</ele>
  <time>2026-08-28T17:51:34Z</time>
  <course>0.0</course>
  <speed>0.0</speed>
  <fix>3d</fix>
</trkpt>
<trkpt lat="40.0713749" lon="-105.229789">
  <ele>1583.0</ele>
  <time>2026-08-28T17:51:34Z</time>
  <course>248.38</course>
  <speed>0.0</speed>
  <fix>3d</fix>
</trkpt>
<trkpt lat="40.0713749" lon="-105.229789">
  <ele>1583.0</ele>
  <time>2026-08-28T17:51:34Z</time>
  <course>0.0</course>
  <speed>0.0</speed>
  <fix>3d</fix>
</trkpt>
<trkpt lat="40.0713749" lon="-105.229789">
  <ele>1583.0</ele>
  <time>2026-08-28T17:51:34Z</time>
  <course>248.39</course>
  <speed>0.0</speed>
  <fix>3d</fix>
</trkpt>
<trkpt lat="40.0713749" lon="-105.229789">
  <ele>1583.0</ele>
  <time>2026-08-28T17:51:34Z</time>
  <course>0.0</course>
  <speed>0.0</speed>
  <fix>3d</fix>
</trkpt>
<trkpt lat="40.0713749" lon="-105.229789">
  <ele>1583.0</ele>
  <time>2026-08-28T17:51:34Z</time>
  <course>248.39</course>
  <speed>0.0</speed>
  <fix>3d</fix>
</trkpt>
<trkpt lat="40.0713749" lon="-105.229789">
  <ele>1583.0</ele>
  <time>2026-08-28T17:51:34Z</time>
  <course>0.0</course>
  <speed>0.0</speed>
  <fix>3d</fix>
</trkpt>
<trkpt lat="40.0713749" lon="-105.229789">
  <ele>1583.0</ele>
  <time>2026-08-28T17:51:34Z</time>
  <course>248.4</course>
  <speed>0.0</speed>
  <fix>3d</fix>
</trkpt>
<trkpt lat="40.0713749" lon="-105.229789">
  <ele>1583.0</ele>
  <time>2026-08-28T17:51:34Z</time>
  <course>0.0</course>
  <speed>0.0</speed>
  <fix>3d</fix>
</trkpt>
<trkpt lat="40.0713749" lon="-105.229789">
  <ele>1583.0</ele>
  <time>2026-08-28T17:51:34Z</time>
  <course>248.4</course>
  <speed>0.0</speed>
  <fix>3d</fix>
</trkpt>
<trkpt lat="40.0713749" lon="-105.229789">
  <ele>1583.0</ele>
  <time>2026-08-28T17:51:34Z</time>
  <course>0.0</course>
  <speed>0.0</speed>
  <fix>3d</fix>
</trkpt>
<trkpt lat="40.0713749" lon="-105.229789">
  <ele>1583.0</ele>
  <time>2026-08-28T17:51:34Z</time>
  <course>248.4</course>
  <speed>0.0</speed>
  <fix>3d</fix>
</trkpt>
<trkpt lat="40.0713749" lon="-105.229789">
  <ele>1583.0</ele>
  <time>2026-08-28T17:51:34Z</time>
  <course>0.0</course>
  <speed>0.0</speed>
  <fix>3d</fix>
</trkpt>
<trkpt lat="40.0713749" lon="-105.229789">
  <ele>1583.0</ele>
  <time>2026-08-28T17:51:34Z</time>
  <course>248.4</course>
  <speed>0.0</speed>
  <fix>3d</fix>
</trkpt>
<trkpt lat="40.0713749" lon="-105.229789">
  <ele>1583.0</ele>
  <time>2026-08-28T17:51:34Z</time>
  <course>0.0</course>
  <speed>0.0</speed>
  <fix>3d</fix>
</trkpt>
<trkpt lat="40.0713749" lon="-105.229789">
  <ele>1583.0</ele>
  <time>2026-08-28T17:51:34Z</time>
  <course>248.41</course>
  <speed>0.0</speed>
  <fix>3d</fix>
</trkpt>
<trkpt lat="40.0713749" lon="-105.229789">
  <ele>1583.0</ele>
  <time>2026-08-28T17:51:34Z</time>
  <course>0.0</course>
  <speed>0.0</speed>
  <fix>3d</fix>
</trkpt>
<trkpt lat="40.0713749" lon="-105.229789">
  <ele>1583.0</ele>
  <time>2026-08-28T17:51:34Z</time>
  <course>248.41</course>
  <speed>0.0</speed>
  <fix>3d</fix>
</trkpt>
<trkpt lat="40.0713749" lon="-105.229789">
  <ele>1583.0</ele>
  <time>2026-08-28T17:51:34Z</time>
  <course>0.0</course>
  <speed>0.0</speed>
  <fix>3d</fix>
</trkpt>
<trkpt lat="40.0713749" lon="-105.229789">
  <ele>1583.0</ele>
  <time>2026-08-28T17:51:34Z</time>
  <course>248.41</course>
  <speed>0.0</speed>
  <fix>3d</fix>
</trkpt>
<trkpt lat="40.0713749" lon="-105.229789">
  <ele>1583.0</ele>
  <time>2026-08-28T17:51:34Z</time>
  <course>0.0</course>
  <speed>0.0</speed>
  <fix>3d</fix>
</trkpt>
<trkpt lat="40.0713749" lon="-105.229789">
  <ele>1583.0</ele>
  <time>2026-08-28T17:51:34Z</time>
  <course>248.41</course>
  <speed>0.0</speed>
  <fix>3d</fix>
</trkpt>
<trkpt lat="40.0713749" lon="-105.229789">
  <ele>1583.0</ele>
  <time>2026-08-28T17:51:34Z</time>
  <course>0.0</course>
  <speed>0.0</speed>
  <fix>3d</fix>
</trkpt>
<trkpt lat="40.0713749" lon="-105.229789">
  <ele>1583.0</ele>
  <time>2026-08-28T17:51:34Z</time>
  <course>248.41</course>
  <speed>0.0</speed>
  <fix>3d</fix>
</trkpt>
<trkpt lat="40.0713749" lon="-105.229789">
  <ele>1583.0</ele>
  <time>2026-08-28T17:51:34Z</time>
  <course>0.0</course>
  <speed>0.0</speed>
  <fix>3d</fix>
</trkpt>
<trkpt lat="40.0713749" lon="-105.229789">
  <ele>1583.0</ele>
  <time>2026-08-28T17:51:34Z</time>
  <course>248.41</course>
  <speed>0.0</speed>
  <fix>3d</fix>
</trkpt>
<trkpt lat="40.0713749" lon="-105.229789">
  <ele>1583.0</ele>
  <time>2026-08-28T17:51:34Z</time>
  <course>0.0</course>
  <speed>0.0</speed>
  <fix>3d</fix>
</trkpt>
<trkpt lat="40.0713749" lon="-105.229789">
  <ele>1583.0</ele>
  <time>2026-08-28T17:51:34Z</time>
  <course>248.41</course>
  <speed>0.0</speed>
  <fix>3d</fix>
</trkpt>
<trkpt lat="40.0713749" lon="-105.229789">
  <ele>1583.0</ele>
  <time>2026-08-28T17:51:34Z</time>
  <course>0.0</course>
  <speed>0.0</speed>
  <fix>3d</fix>
</trkpt>
<trkpt lat="40.0713749" lon="-105.229789">
  <ele>1583.0</ele>
  <time>2026-08-28T17:51:34Z</time>
  <course>248.41</course>
  <speed>0.0</speed>
  <fix>3d</fix>
</trkpt>
<trkpt lat="40.0713749" lon="-105.229789">
  <ele>1583.0</ele>
  <time>2026-08-28T17:51:34Z</time>
  <course>0.0</course>
  <speed>0.0</speed>
  <fix>3d</fix>
</trkpt>
<trkpt lat="40.0713749" lon="-105.229789">
  <ele>1583.0</ele>
  <time>2026-08-28T17:51:34Z</time>
  <course>248.41</course>
  <speed>0.0</speed>
  <fix>3d</fix>
</trkpt>
<trkpt lat="40.0713749" lon="-105.229789">
  <ele>1583.0</ele>
  <time>2026-08-28T17:51:34Z</time>
  <course>0.0</course>
  <speed>0.0</speed>
  <fix>3d</fix>
</trkpt>
<trkpt lat="40.0713749" lon="-105.229789">
  <ele>1583.0</ele>
  <time>2026-08-28T17:51:34Z</time>
  <course>248.41</course>
  <speed>0.0</speed>
  <fix>3d</fix>
</trkpt>
<trkpt lat="40.0713749" lon="-105.229789">
  <ele>1583.0</ele>
  <time>2026-08-28T17:51:34Z</time>
  <course>0.0</course>
  <speed>0.0</speed>
  <fix>3d</fix>
</trkpt>
<trkpt lat="40.0713749" lon="-105.229789">
  <ele>1583.0</ele>
  <time>2026-08-28T17:51:34Z</time>
  <course>248.41</course>
  <speed>0.0</speed>
  <fix>3d</fix>
</trkpt>
<trkpt lat="40.0713749" lon="-105.229789">
  <ele>1583.0</ele>
  <time>2026-08-28T17:51:34Z</time>
  <course>0.0</course>
  <speed>0.0</speed>
  <fix>3d</fix>
</trkpt>
<trkpt lat="40.0713749" lon="-105.229789">
  <ele>1583.0</ele>
  <time>2026-08-28T17:51:34Z</time>
  <course>248.41</course>
  <speed>0.0</speed>
  <fix>3d</fix>
</trkpt>
<trkpt lat="40.0713749" lon="-105.229789">
  <ele>1583.0</ele>
  <time>2026-08-28T17:51:34Z</time>
  <course>0.0</course>
  <speed>0.0</speed>
  <fix>3d</fix>
</trkpt>
<trkpt lat="40.0713749" lon="-105.229789">
  <ele>1583.0</ele>
  <time>2026-08-28T17:51:34Z</time>
  <course>248.41</course>
  <speed>0.0</speed>
  <fix>3d</fix>
</trkpt>
<trkpt lat="40.0713749" lon="-105.229789">
  <ele>1583.0</ele>
  <time>2026-08-28T17:51:34Z</time>
  <course>0.0</course>
  <speed>0.0</speed>
  <fix>3d</fix>
</trkpt>
<trkpt lat="40.0713749" lon="-105.229789">
  <ele>1583.0</ele>
  <time>2026-08-28T17:51:34Z</time>
  <course>248.41</course>
  <speed>0.0</speed>
  <fix>3d</fix>
</trkpt>
<trkpt lat="40.0713749" lon="-105.229789">
  <ele>1583.0</ele>
  <time>2026-08-28T17:51:34Z</time>
  <course>0.0</course>
  <speed>0.0</speed>
  <fix>3d</fix>
</trkpt>
<trkpt lat="40.0713749" lon="-105.229789">
  <ele>1583.0</ele>
  <time>2026-08-28T17:51:34Z</time>
  <course>248.41</course>
  <speed>0.0</speed>
  <fix>3d</fix>
</trkpt>
<trkpt lat="40.0713749" lon="-105.229789">
  <ele>1583.0</ele>
  <time>2026-08-28T17:51:34Z</time>
  <course>0.0</course>
  <speed>0.0</speed>
  <fix>3d</fix>
</trkpt>
<trkpt lat="40.0713749" lon="-105.229789">
  <ele>1583.0</ele>
  <time>2026-08-28T17:51:34Z</time>
  <course>248.41</course>
  <speed>0.0</speed>
  <fix>3d</fix>
</trkpt>
<trkpt lat="40.0713749" lon="-105.229789">
  <ele>1583.0</ele>
  <time>2026-08-28T17:51:34Z</time>
  <course>0.0</course>
  <speed>0.0</speed>
  <fix>3d</fix>
</trkpt>
<trkpt lat="40.0713749" lon="-105.229789">
  <ele>1583.0</ele>
  <time>2026-08-28T17:51:34Z</time>
  <course>248.4</course>
  <speed>0.0</speed>
  <fix>3d</fix>
</trkpt>
<trkpt lat="40.0713749" lon="-105.229789">
  <ele>1583.0</ele>
  <time>2026-08-28T17:51:34Z</time>
  <course>0.0</course>
  <speed>0.0</speed>
  <fix>3d</fix>
</trkpt>
<trkpt lat="40.0713749" lon="-105.229789">
  <ele>1583.0</ele>
  <time>2026-08-28T17:51:34Z</time>
  <course>248.4</course>
  <speed>0.01</speed>
  <fix>3d</fix>
</trkpt>
<trkpt lat="40.0713749" lon="-105.229789">
  <ele>1583.0</ele>
  <time>2026-08-28T17:51:34Z</time>
  <course>0.0</course>
  <speed>0.0</speed>
  <fix>3d</fix>
</trkpt>
<trkpt lat="40.0713749" lon="-105.229789">
  <ele>1583.0</ele>
  <time>2026-08-28T17:51:34Z</time>
  <course>248.4</course>
  <speed>0.01</speed>
  <fix>3d</fix>
</trkpt>
<trkpt lat="40.0713749" lon="-105.229789">
  <ele>1583.0</ele>
  <time>2026-08-28T17:51:34Z</time>
  <course>0.0</course>
  <speed>0.0</speed>
  <fix>3d</fix>
</trkpt>
<trkpt lat="40.0713749" lon="-105.229789">
  <ele>1583.0</ele>
  <time>2026-08-28T17:51:34Z</time>
  <course>248.4</course>
  <speed>0.01</speed>
  <fix>3d</fix>
</trkpt>
<trkpt lat="40.0713749" lon="-105.229789">
  <ele>1583.0</ele>
  <time>2026-08-28T17:51:34Z</time>
  <course>0.0</course>
  <speed>0.0</speed>
  <fix>3d</fix>
</trkpt>
<trkpt lat="40.0713749" lon="-105.229789">
  <ele>1583.0</ele>
  <time>2026-08-28T17:51:34Z</time>
  <course>248.4</course>
  <speed>0.01</speed>
  <fix>3d</fix>
</trkpt>
<trkpt lat="40.0713749" lon="-105.229789">
  <ele>1583.0</ele>
  <time>2026-08-28T17:51:34Z</time>
  <course>0.0</course>
  <speed>0.0</speed>
  <fix>3d</fix>
</trkpt>
<trkpt lat="40.0713749" lon="-105.229789">
  <ele>1583.0</ele>
  <time>2026-08-28T17:51:34Z</time>
  <course>248.39</course>
  <speed>0.01</speed>
  <fix>3d</fix>
</trkpt>
<trkpt lat="40.0713749" lon="-105.229789">
  <ele>1583.0</ele>
  <time>2026-08-28T17:51:34Z</time>
  <course>0.0</course>
  <speed>0.0</speed>
  <fix>3d</fix>
</trkpt>
<trkpt lat="40.0713749" lon="-105.229789">
  <ele>1583.0</ele>
  <time>2026-08-28T17:51:34Z</time>
  <course>248.39</course>
  <speed>0.01</speed>
  <fix>3d</fix>
</trkpt>
<trkpt lat="40.0713749" lon="-105.229789">
  <ele>1583.0</ele>
  <time>2026-08-28T17:51:34Z</time>
  <course>0.0</course>
  <speed>0.0</speed>
  <fix>3d</fix>
</trkpt>
<trkpt lat="40.0713749" lon="-105.229789">
  <ele>1583.0</ele>
  <time>2026-08-28T17:51:34Z</time>
  <course>248.39</course>
  <speed>0.01</speed>
  <fix>3d</fix>
</trkpt>
<trkpt lat="40.0713749" lon="-105.229789">
  <ele>1583.0</ele>
  <time>2026-08-28T17:51:34Z</time>
  <course>0.0</course>
  <speed>0.0</speed>
  <fix>3d</fix>
</trkpt>
<trkpt lat="40.0713749" lon="-105.229789">
  <ele>1583.0</ele>
  <time>2026-08-28T17:51:34Z</time>
  <course>248.38</course>
  <speed>0.01</speed>
  <fix>3d</fix>
</trkpt>
<trkpt lat="40.0713749" lon="-105.229789">
  <ele>1583.0</ele>
  <time>2026-08-28T17:51:34Z</time>
  <course>0.0</course>
  <speed>0.0</speed>
  <fix>3d</fix>
</trkpt>
<trkpt lat="40.0713749" lon="-105.229789">
  <ele>1583.0</ele>
  <time>2026-08-28T17:51:34Z</time>
  <course>248.38</course>
  <speed>0.01</speed>
  <fix>3d</fix>
</trkpt>
<trkpt lat="40.0713749" lon="-105.229789">
  <ele>1583.0</ele>
  <time>2026-08-28T17:51:34Z</time>
  <course>0.0</course>
  <speed>0.0</speed>
  <fix>3d</fix>
</trkpt>
<trkpt lat="40.0713749" lon="-105.229789">
  <ele>1583.0</ele>
  <time>2026-08-28T17:51:34Z</time>
  <course>248.38</course>
  <speed>0.01</speed>
  <fix>3d</fix>
</trkpt>
<trkpt lat="40.0713749" lon="-105.229789">
  <ele>1583.0</ele>
  <time>2026-08-28T17:51:34Z</time>
  <course>0.0</course>
  <speed>0.0</speed>
  <fix>3d</fix>
</trkpt>
<trkpt lat="40.0713749" lon="-105.229789">
  <ele>1583.0</ele>
  <time>2026-08-28T17:51:34Z</time>
  <course>248.37</course>
  <speed>0.01</speed>
  <fix>3d</fix>
</trkpt>
<trkpt lat="40.0713749" lon="-105.229789">
  <ele>1583.0</ele>
  <time>2026-08-28T17:51:34Z</time>
  <course>0.0</course>
  <speed>0.0</speed>
  <fix>3d</fix>
</trkpt>
<trkpt lat="40.0713749" lon="-105.229789">
  <ele>1583.0</ele>
  <time>2026-08-28T17:51:34Z</time>
  <course>248.37</course>
  <speed>0.01</speed>
  <fix>3d</fix>
</trkpt>
<trkpt lat="40.0713749" lon="-105.229789">
  <ele>1583.0</ele>
  <time>2026-08-28T17:51:34Z</time>
  <course>0.0</course>
  <speed>0.0</speed>
  <fix>3d</fix>
</trkpt>
<trkpt lat="40.0713749" lon="-105.229789">
  <ele>1583.0</ele>
  <time>2026-08-28T17:51:34Z</time>
  <course>248.37</course>
  <speed>0.01</speed>
  <fix>3d</fix>
</trkpt>
<trkpt lat="40.0713749" lon="-105.229789">
  <ele>1583.0</ele>
  <time>2026-08-28T17:51:34Z</time>
  <course>0.0</course>
  <speed>0.0</speed>
  <fix>3d</fix>
</trkpt>
<trkpt lat="40.0713749" lon="-105.229789">
  <ele>1583.0</ele>
  <time>2026-08-28T17:51:34Z</time>
  <course>248.36</course>
  <speed>0.01</speed>
  <fix>3d</fix>
</trkpt>
<trkpt lat="40.0713749" lon="-105.229789">
  <ele>1583.0</ele>
  <time>2026-08-28T17:51:34Z</time>
  <course>0.0</course>
  <speed>0.0</speed>
  <fix>3d</fix>
</trkpt>
<trkpt lat="40.0713749" lon="-105.229789">
  <ele>1583.0</ele>
  <time>2026-08-28T17:51:34Z</time>
  <course>248.36</course>
  <speed>0.01</speed>
  <fix>3d</fix>
</trkpt>
<trkpt lat="40.0713749" lon="-105.229789">
  <ele>1583.0</ele>
  <time>2026-08-28T17:51:34Z</time>
  <course>0.0</course>
  <speed>0.0</speed>
  <fix>3d</fix>
</trkpt>
<trkpt lat="40.0713749" lon="-105.229789">
  <ele>1583.0</ele>
  <time>2026-08-28T17:51:34Z</time>
  <course>248.36</course>
  <speed>0.01</speed>
  <fix>3d</fix>
</trkpt>
<trkpt lat="40.0713749" lon="-105.229789">
  <ele>1583.0</ele>
  <time>2026-08-28T17:51:34Z</time>
  <course>0.0</course>
  <speed>0.0</speed>
  <fix>3d</fix>
</trkpt>
<trkpt lat="40.0713749" lon="-105.229789">
  <ele>1583.0</ele>
  <time>2026-08-28T17:51:34Z</time>
  <course>248.35</course>
  <speed>0.01</speed>
  <fix>3d</fix>
</trkpt>
<trkpt lat="40.0713749" lon="-105.229789">
  <ele>1583.0</ele>
  <time>2026-08-28T17:51:34Z</time>
  <course>0.0</course>
  <speed>0.0</speed>
  <fix>3d</fix>
</trkpt>
<trkpt lat="40.0713749" lon="-105.229789">
  <ele>1583.0</ele>
  <time>2026-08-28T17:51:34Z</time>
  <course>248.35</course>
  <speed>0.01</speed>
  <fix>3d</fix>
</trkpt>
<trkpt lat="40.0713749" lon="-105.229789">
  <ele>1583.0</ele>
  <time>2026-08-28T17:51:34Z</time>
  <course>0.0</course>
  <speed>0.0</speed>
  <fix>3d</fix>
</trkpt>
<trkpt lat="40.0713749" lon="-105.229789">
  <ele>1583.0</ele>
  <time>2026-08-28T17:51:34Z</time>
  <course>248.35</course>
  <speed>0.01</speed>
  <fix>3d</fix>
</trkpt>
<trkpt lat="40.0713749" lon="-105.229789">
  <ele>1583.0</ele>
  <time>2026-08-28T17:51:34Z</time>
  <course>0.0</course>
  <speed>0.0</speed>
  <fix>3d</fix>
</trkpt>
<trkpt lat="40.0713749" lon="-105.229789">
  <ele>1583.0</ele>
  <time>2026-08-28T17:51:34Z</time>
  <course>248.34</course>
  <speed>0.01</speed>
  <fix>3d</fix>
</trkpt>
<trkpt lat="40.0713749" lon="-105.229789">
  <ele>1583.0</ele>
  <time>2026-08-28T17:51:34Z</time>
  <course>0.0</course>
  <speed>0.0</speed>
  <fix>3d</fix>
</trkpt>
<trkpt lat="40.0713749" lon="-105.229789">
  <ele>1583.0</ele>
  <time>2026-08-28T17:51:34Z</time>
  <course>248.34</course>
  <speed>0.01</speed>
  <fix>3d</fix>
</trkpt>
<trkpt lat="40.0713749" lon="-105.229789">
  <ele>1583.0</ele>
  <time>2026-08-28T17:51:34Z</time>
  <course>0.0</course>
  <speed>0.0</speed>
  <fix>3d</fix>
</trkpt>
<trkpt lat="40.0713749" lon="-105.229789">
  <ele>1583.0</ele>
  <time>2026-08-28T17:51:34Z</time>
  <course>248.33</course>
  <speed>0.01</speed>
  <fix>3d</fix>
</trkpt>
<trkpt lat="40.0713749" lon="-105.229789">
  <ele>1583.0</ele>
  <time>2026-08-28T17:51:34Z</time>
  <course>0.0</course>
  <speed>0.0</speed>
  <fix>3d</fix>
</trkpt>
<trkpt lat="40.0713749" lon="-105.229789">
  <ele>1583.0</ele>
  <time>2026-08-28T17:51:34Z</time>
  <course>248.33</course>
  <speed>0.01</speed>
  <fix>3d</fix>
</trkpt>
<trkpt lat="40.0713749" lon="-105.229789">
  <ele>1583.0</ele>
  <time>2026-08-28T17:51:34Z</time>
  <course>0.0</course>
  <speed>0.0</speed>
  <fix>3d</fix>
</trkpt>
<trkpt lat="40.0713749" lon="-105.229789">
  <ele>1583.0</ele>
  <time>2026-08-28T17:51:34Z</time>
  <course>248.32</course>
  <speed>0.01</speed>
  <fix>3d</fix>
</trkpt>
<trkpt lat="40.0713749" lon="-105.229789">
  <ele>1583.0</ele>
  <time>2026-08-28T17:51:34Z</time>
  <course>0.0</course>
  <speed>0.0</speed>
  <fix>3d</fix>
</trkpt>
<trkpt lat="40.0713749" lon="-105.229789">
  <ele>1583.0</ele>
  <time>2026-08-28T17:51:34Z</time>
  <course>248.32</course>
  <speed>0.01</speed>
  <fix>3d</fix>
</trkpt>
<trkpt lat="40.0713749" lon="-105.229789">
  <ele>1583.0</ele>
  <time>2026-08-28T17:51:34Z</time>
  <course>0.0</course>
  <speed>0.0</speed>
  <fix>3d</fix>
</trkpt>
<trkpt lat="40.0713749" lon="-105.229789">
  <ele>1583.0</ele>
  <time>2026-08-28T17:51:34Z</time>
  <course>248.32</course>
  <speed>0.01</speed>
  <fix>3d</fix>
</trkpt>
<trkpt lat="40.0713749" lon="-105.229789">
  <ele>1583.0</ele>
  <time>2026-08-28T17:51:34Z</time>
  <course>0.0</course>
  <speed>0.0</speed>
  <fix>3d</fix>
</trkpt>
<trkpt lat="40.0713749" lon="-105.229789">
  <ele>1583.0</ele>
  <time>2026-08-28T17:51:34Z</time>
  <course>248.31</course>
  <speed>0.01</speed>
  <fix>3d</fix>
</trkpt>
<trkpt lat="40.0713749" lon="-105.229789">
  <ele>1583.0</ele>
  <time>2026-08-28T17:51:34Z</time>
  <course>0.0</course>
  <speed>0.0</speed>
  <fix>3d</fix>
</trkpt>
<trkpt lat="40.0713749" lon="-105.229789">
  <ele>1583.0</ele>
  <time>2026-08-28T17:51:34Z</time>
  <course>248.31</course>
  <speed>0.01</speed>
  <fix>3d</fix>
</trkpt>
<trkpt lat="40.0713749" lon="-105.229789">
  <ele>1583.0</ele>
  <time>2026-08-28T17:51:34Z</time>
  <course>0.0</course>
  <speed>0.0</speed>
  <fix>3d</fix>
</trkpt>
<trkpt lat="40.0713749" lon="-105.229789">
  <ele>1583.0</ele>
  <time>2026-08-28T17:51:34Z</time>
  <course>248.3</course>
  <speed>0.01</speed>
  <fix>3d</fix>
</trkpt>
<trkpt lat="40.0713749" lon="-105.229789">
  <ele>1583.0</ele>
  <time>2026-08-28T17:51:34Z</time>
  <course>0.0</course>
  <speed>0.0</speed>
  <fix>3d</fix>
</trkpt>
<trkpt lat="40.0713749" lon="-105.229789">
  <ele>1583.0</ele>
  <time>2026-08-28T17:51:34Z</time>
  <course>248.3</course>
  <speed>0.01</speed>
  <fix>3d</fix>
</trkpt>
<trkpt lat="40.0713749" lon="-105.229789">
  <ele>1583.0</ele>
  <time>2026-08-28T17:51:34Z</time>
  <course>0.0</course>
  <speed>0.0</speed>
  <fix>3d</fix>
</trkpt>
<trkpt lat="40.0713749" lon="-105.229789">
  <ele>1583.0</ele>
  <time>2026-08-28T17:51:34Z</time>
  <course>248.29</course>
  <speed>0.01</speed>
  <fix>3d</fix>
</trkpt>
<trkpt lat="40.0713749" lon="-105.229789">
  <ele>1583.0</ele>
  <time>2026-08-28T17:51:34Z</time>
  <course>0.0</course>
  <speed>0.0</speed>
  <fix>3d</fix>
</trkpt>
<trkpt lat="40.0713749" lon="-105.229789">
  <ele>1583.0</ele>
  <time>2026-08-28T17:51:34Z</time>
  <course>248.29</course>
  <speed>0.01</speed>
  <fix>3d</fix>
</trkpt>
<trkpt lat="40.0713749" lon="-105.229789">
  <ele>1583.0</ele>
  <time>2026-08-28T17:51:34Z</time>
  <course>0.0</course>
  <speed>0.0</speed>
  <fix>3d</fix>
</trkpt>
<trkpt lat="40.0713749" lon="-105.229789">
  <ele>1583.0</ele>
  <time>2026-08-28T17:51:34Z</time>
  <course>248.28</course>
  <speed>0.01</speed>
  <fix>3d</fix>
</trkpt>
<trkpt lat="40.0713749" lon="-105.229789">
  <ele>1583.0</ele>
  <time>2026-08-28T17:51:34Z</time>
  <course>0.0</course>
  <speed>0.0</speed>
  <fix>3d</fix>
</trkpt>
<trkpt lat="40.0713749" lon="-105.229789">
  <ele>1583.0</ele>
  <time>2026-08-28T17:51:34Z</time>
  <course>248.28</course>
  <speed>0.01</speed>
  <fix>3d</fix>
</trkpt>
<trkpt lat="40.0713749" lon="-105.229789">
  <ele>1583.0</ele>
  <time>2026-08-28T17:51:34Z</time>
  <course>0.0</course>
  <speed>0.0</speed>
  <fix>3d</fix>
</trkpt>
<trkpt lat="40.0713749" lon="-105.229789">
  <ele>1583.0</ele>
  <time>2026-08-28T17:51:34Z</time>
  <course>248.27</course>
  <speed>0.01</speed>
  <fix>3d</fix>
</trkpt>
<trkpt lat="40.0713749" lon="-105.229789">
  <ele>1583.0</ele>
  <time>2026-08-28T17:51:34Z</time>
  <course>0.0</course>
  <speed>0.0</speed>
  <fix>3d</fix>
</trkpt>
<trkpt lat="40.0713749" lon="-105.229789">
  <ele>1583.0</ele>
  <time>2026-08-28T17:51:34Z</time>
  <course>248.27</course>
  <speed>0.01</speed>
  <fix>3d</fix>
</trkpt>
<trkpt lat="40.0713749" lon="-105.229789">
  <ele>1583.0</ele>
  <time>2026-08-28T17:51:34Z</time>
  <course>0.0</course>
  <speed>0.0</speed>
  <fix>3d</fix>
</trkpt>
<trkpt lat="40.0713749" lon="-105.229789">
  <ele>1583.0</ele>
  <time>2026-08-28T17:51:34Z</time>
  <course>248.26</course>
  <speed>0.01</speed>
  <fix>3d</fix>
</trkpt>
<trkpt lat="40.0713749" lon="-105.229789">
  <ele>1583.0</ele>
  <time>2026-08-28T17:51:34Z</time>
  <course>0.0</course>
  <speed>0.0</speed>
  <fix>3d</fix>
</trkpt>
<trkpt lat="40.0713749" lon="-105.229789">
  <ele>1583.0</ele>
  <time>2026-08-28T17:51:34Z</time>
  <course>248.26</course>
  <speed>0.01</speed>
  <fix>3d</fix>
</trkpt>
<trkpt lat="40.0713749" lon="-105.229789">
  <ele>1583.0</ele>
  <time>2026-08-28T17:51:34Z</time>
  <course>0.0</course>
  <speed>0.0</speed>
  <fix>3d</fix>
</trkpt>
<trkpt lat="40.0713749" lon="-105.229789">
  <ele>1583.0</ele>
  <time>2026-08-28T17:51:34Z</time>
  <course>248.26</course>
  <speed>0.01</speed>
  <fix>3d</fix>
</trkpt>
<trkpt lat="40.0713749" lon="-105.229789">
  <ele>1583.0</ele>
  <time>2026-08-28T17:51:34Z</time>
  <course>0.0</course>
  <speed>0.0</speed>
  <fix>3d</fix>
</trkpt>
<trkpt lat="40.0713749" lon="-105.229789">
  <ele>1583.0</ele>
  <time>2026-08-28T17:51:34Z</time>
  <course>248.25</course>
  <speed>0.01</speed>
  <fix>3d</fix>
</trkpt>
<trkpt lat="40.0713749" lon="-105.229789">
  <ele>1583.0</ele>
  <time>2026-08-28T17:51:34Z</time>
  <course>0.0</course>
  <speed>0.0</speed>
  <fix>3d</fix>
</trkpt>
<trkpt lat="40.0713749" lon="-105.229789">
  <ele>1583.0</ele>
  <time>2026-08-28T17:51:34Z</time>
  <course>248.25</course>
  <speed>0.01</speed>
  <fix>3d</fix>
</trkpt>
<trkpt lat="40.0713749" lon="-105.229789">
  <ele>1583.0</ele>
  <time>2026-08-28T17:51:34Z</time>
  <course>0.0</course>
  <speed>0.0</speed>
  <fix>3d</fix>
</trkpt>
<trkpt lat="40.0713749" lon="-105.229789">
  <ele>1583.0</ele>
  <time>2026-08-28T17:51:34Z</time>
  <course>248.24</course>
  <speed>0.01</speed>
  <fix>3d</fix>
</trkpt>
<trkpt lat="40.0713749" lon="-105.229789">
  <ele>1583.0</ele>
  <time>2026-08-28T17:51:34Z</time>
  <course>0.0</course>
  <speed>0.0</speed>
  <fix>3d</fix>
</trkpt>
<trkpt lat="40.0713749" lon="-105.229789">
  <ele>1583.0</ele>
  <time>2026-08-28T17:51:34Z</time>
  <course>248.24</course>
  <speed>0.01</speed>
  <fix>3d</fix>
</trkpt>
<trkpt lat="40.0713749" lon="-105.229789">
  <ele>1583.0</ele>
  <time>2026-08-28T17:51:34Z</time>
  <course>0.0</course>
  <speed>0.0</speed>
  <fix>3d</fix>
</trkpt>
<trkpt lat="40.0713749" lon="-105.229789">
  <ele>1583.0</ele>
  <time>2026-08-28T17:51:34Z</time>
  <course>248.23</course>
  <speed>0.01</speed>
  <fix>3d</fix>
</trkpt>
<trkpt lat="40.0713749" lon="-105.229789">
  <ele>1583.0</ele>
  <time>2026-08-28T17:51:34Z</time>
  <course>0.0</course>
  <speed>0.0</speed>
  <fix>3d</fix>
</trkpt>
<trkpt lat="40.0713749" lon="-105.229789">
  <ele>1583.0</ele>
  <time>2026-08-28T17:51:34Z</time>
  <course>248.23</course>
  <speed>0.01</speed>
  <fix>3d</fix>
</trkpt>
<trkpt lat="40.0713749" lon="-105.229789">
  <ele>1583.0</ele>
  <time>2026-08-28T17:51:34Z</time>
  <course>0.0</course>
  <speed>0.0</speed>
  <fix>3d</fix>
</trkpt>
<trkpt lat="40.0713749" lon="-105.229789">
  <ele>1583.0</ele>
  <time>2026-08-28T17:51:34Z</time>
  <course>248.22</course>
  <speed>0.01</speed>
  <fix>3d</fix>
</trkpt>
<trkpt lat="40.0713749" lon="-105.229789">
  <ele>1583.0</ele>
  <time>2026-08-28T17:51:34Z</time>
  <course>0.0</course>
  <speed>0.0</speed>
  <fix>3d</fix>
</trkpt>
<trkpt lat="40.0713749" lon="-105.229789">
  <ele>1583.0</ele>
  <time>2026-08-28T17:51:34Z</time>
  <course>248.22</course>
  <speed>0.01</speed>
  <fix>3d</fix>
</trkpt>
<trkpt lat="40.0713749" lon="-105.229789">
  <ele>1583.0</ele>
  <time>2026-08-28T17:51:34Z</time>
  <course>0.0</course>
  <speed>0.0</speed>
  <fix>3d</fix>
</trkpt>
<trkpt lat="40.0713749" lon="-105.229789">
  <ele>1583.0</ele>
  <time>2026-08-28T17:51:34Z</time>
  <course>248.21</course>
  <speed>0.01</speed>
  <fix>3d</fix>
</trkpt>
<trkpt lat="40.0713749" lon="-105.229789">
  <ele>1583.0</ele>
  <time>2026-08-28T17:51:34Z</time>
  <course>0.0</course>
  <speed>0.0</speed>
  <fix>3d</fix>
</trkpt>
<trkpt lat="40.0713749" lon="-105.229789">
  <ele>1583.0</ele>
  <time>2026-08-28T17:51:34Z</time>
  <course>248.21</course>
  <speed>0.01</speed>
  <fix>3d</fix>
</trkpt>
<trkpt lat="40.0713749" lon="-105.229789">
  <ele>1583.0</ele>
  <time>2026-08-28T17:51:34Z</time>
  <course>0.0</course>
  <speed>0.0</speed>
  <fix>3d</fix>
</trkpt>
<trkpt lat="40.0713749" lon="-105.229789">
  <ele>1583.0</ele>
  <time>2026-08-28T17:51:34Z</time>
  <course>248.2</course>
  <speed>0.01</speed>
  <fix>3d</fix>
</trkpt>
<trkpt lat="40.0713749" lon="-105.229789">
  <ele>1583.0</ele>
  <time>2026-08-28T17:51:34Z</time>
  <course>0.0</course>
  <speed>0.0</speed>
  <fix>3d</fix>
</trkpt>
<trkpt lat="40.0713749" lon="-105.229789">
  <ele>1583.0</ele>
  <time>2026-08-28T17:51:34Z</time>
  <course>248.2</course>
  <speed>0.01</speed>
  <fix>3d</fix>
</trkpt>
<trkpt lat="40.0713749" lon="-105.229789">
  <ele>1583.0</ele>
  <time>2026-08-28T17:51:34Z</time>
  <course>0.0</course>
  <speed>0.0</speed>
  <fix>3d</fix>
</trkpt>
<trkpt lat="40.0713749" lon="-105.229789">
  <ele>1583.0</ele>
  <time>2026-08-28T17:51:34Z</time>
  <course>248.19</course>
  <speed>0.01</speed>
  <fix>3d</fix>
</trkpt>
<trkpt lat="40.0713749" lon="-105.229789">
  <ele>1583.0</ele>
  <time>2026-08-28T17:51:34Z</time>
  <course>0.0</course>
  <speed>0.0</speed>
  <fix>3d</fix>
</trkpt>
<trkpt lat="40.0713749" lon="-105.229789">
  <ele>1583.0</ele>
  <time>2026-08-28T17:51:34Z</time>
  <course>248.19</course>
  <speed>0.01</speed>
  <fix>3d</fix>
</trkpt>
<trkpt lat="40.0713749" lon="-105.229789">
  <ele>1583.0</ele>
  <time>2026-08-28T17:51:34Z</time>
  <course>0.0</course>
  <speed>0.0</speed>
  <fix>3d</fix>
</trkpt>
<trkpt lat="40.0713749" lon="-105.229789">
  <ele>1583.0</ele>
  <time>2026-08-28T17:51:34Z</time>
  <course>248.18</course>
  <speed>0.01</speed>
  <fix>3d</fix>
</trkpt>
<trkpt lat="40.0713749" lon="-105.229789">
  <ele>1583.0</ele>
  <time>2026-08-28T17:51:34Z</time>
  <course>0.0</course>
  <speed>0.0</speed>
  <fix>3d</fix>
</trkpt>
<trkpt lat="40.0713749" lon="-105.229789">
  <ele>1583.0</ele>
  <time>2026-08-28T17:51:34Z</time>
  <course>248.18</course>
  <speed>0.01</speed>
  <fix>3d</fix>
</trkpt>
<trkpt lat="40.0713749" lon="-105.229789">
  <ele>1583.0</ele>
  <time>2026-08-28T17:51:34Z</time>
  <course>0.0</course>
  <speed>0.0</speed>
  <fix>3d</fix>
</trkpt>
<trkpt lat="40.0713749" lon="-105.229789">
  <ele>1583.0</ele>
  <time>2026-08-28T17:51:34Z</time>
  <course>248.17</course>
  <speed>0.022360679774997897</speed>
  <fix>3d</fix>
</trkpt>
<trkpt lat="40.0713749" lon="-105.229789">
  <ele>1583.0</ele>
  <time>2026-08-28T17:51:34Z</time>
  <course>0.0</course>
  <speed>0.0</speed>
  <fix>3d</fix>
</trkpt>
<trkpt lat="40.0713749" lon="-105.229789">
  <ele>1583.0</ele>
  <time>2026-08-28T17:51:34Z</time>
  <course>248.17</course>
  <speed>0.022360679774997897</speed>
  <fix>3d</fix>
</trkpt>
<trkpt lat="40.0713749" lon="-105.229789">
  <ele>1583.0</ele>
  <time>2026-08-28T17:51:34Z</time>
  <course>0.0</course>
  <speed>0.0</speed>
  <fix>3d</fix>
</trkpt>
<trkpt lat="40.0713749" lon="-105.229789">
  <ele>1583.0</ele>
  <time>2026-08-28T17:51:34Z</time>
  <course>248.16</course>
  <speed>0.022360679774997897</speed>
  <fix>3d</fix>
</trkpt>
<trkpt lat="40.0713749" lon="-105.229789">
  <ele>1583.0</ele>
  <time>2026-08-28T17:51:34Z</time>
  <course>0.0</course>
  <speed>0.0</speed>
  <fix>3d</fix>
</trkpt>
<trkpt lat="40.0713749" lon="-105.229789">
  <ele>1583.0</ele>
  <time>2026-08-28T17:51:34Z</time>
  <course>248.16</course>
  <speed>0.022360679774997897</speed>
  <fix>3d</fix>
</trkpt>
<trkpt lat="40.0713749" lon="-105.229789">
  <ele>1583.0</ele>
  <time>2026-08-28T17:51:34Z</time>
  <course>0.0</course>
  <speed>0.0</speed>
  <fix>3d</fix>
</trkpt>
<trkpt lat="40.0713749" lon="-105.229789">
  <ele>1583.0</ele>
  <time>2026-08-28T17:51:34Z</time>
  <course>248.15</course>
  <speed>0.022360679774997897</speed>
  <fix>3d</fix>
</trkpt>
<trkpt lat="40.0713749" lon="-105.229789">
  <ele>1583.0</ele>
  <time>2026-08-28T17:51:34Z</time>
  <course>0.0</course>
  <speed>0.0</speed>
  <fix>3d</fix>
</trkpt>
<trkpt lat="40.0713749" lon="-105.229789">
  <ele>1583.0</ele>
  <time>2026-08-28T17:51:34Z</time>
  <course>248.15</course>
  <speed>0.022360679774997897</speed>
  <fix>3d</fix>
</trkpt>
<trkpt lat="40.0713749" lon="-105.229789">
  <ele>1583.0</ele>
  <time>2026-08-28T17:51:34Z</time>
  <course>0.0</course>
  <speed>0.0</speed>
  <fix>3d</fix>
</trkpt>
<trkpt lat="40.0713749" lon="-105.229789">
  <ele>1583.0</ele>
  <time>2026-08-28T17:51:34Z</time>
  <course>248.14</course>
  <speed>0.022360679774997897</speed>
  <fix>3d</fix>
</trkpt>
<trkpt lat="40.0713749" lon="-105.229789">
  <ele>1583.0</ele>
  <time>2026-08-28T17:51:34Z</time>
  <course>0.0</course>
  <speed>0.0</speed>
  <fix>3d</fix>
</trkpt>
<trkpt lat="40.0713749" lon="-105.229789">
  <ele>1583.0</ele>
  <time>2026-08-28T17:51:34Z</time>
  <course>248.14</course>
  <speed>0.022360679774997897</speed>
  <fix>3d</fix>
</trkpt>
<trkpt lat="40.0713749" lon="-105.229789">
  <ele>1583.0</ele>
  <time>2026-08-28T17:51:34Z</time>
  <course>0.0</course>
  <speed>0.0</speed>
  <fix>3d</fix>
</trkpt>
<trkpt lat="40.0713749" lon="-105.229789">
  <ele>1583.0</ele>
  <time>2026-08-28T17:51:34Z</time>
  <course>248.13</course>
  <speed>0.022360679774997897</speed>
  <fix>3d</fix>
</trkpt>
<trkpt lat="40.0713749" lon="-105.229789">
  <ele>1583.0</ele>
  <time>2026-08-28T17:51:34Z</time>
  <course>0.0</course>
  <speed>0.0</speed>
  <fix>3d</fix>
</trkpt>
<trkpt lat="40.0713749" lon="-105.229789">
  <ele>1583.0</ele>
  <time>2026-08-28T17:51:34Z</time>
  <course>248.13</course>
  <speed>0.022360679774997897</speed>
  <fix>3d</fix>
</trkpt>
<trkpt lat="40.0713749" lon="-105.229789">
  <ele>1583.0</ele>
  <time>2026-08-28T17:51:34Z</time>
  <course>0.0</course>
  <speed>0.0</speed>
  <fix>3d</fix>
</trkpt>
<trkpt lat="40.0713749" lon="-105.229789">
  <ele>1583.0</ele>
  <time>2026-08-28T17:51:34Z</time>
  <course>248.12</course>
  <speed>0.022360679774997897</speed>
  <fix>3d</fix>
</trkpt>
<trkpt lat="40.0713749" lon="-105.229789">
  <ele>1583.0</ele>
  <time>2026-08-28T17:51:34Z</time>
  <course>0.0</course>
  <speed>0.0</speed>
  <fix>3d</fix>
</trkpt>
<trkpt lat="40.0713749" lon="-105.229789">
  <ele>1583.0</ele>
  <time>2026-08-28T17:51:34Z</time>
  <course>248.12</course>
  <speed>0.022360679774997897</speed>
  <fix>3d</fix>
</trkpt>
<trkpt lat="40.0713749" lon="-105.229789">
  <ele>1583.0</ele>
  <time>2026-08-28T17:51:34Z</time>
  <course>0.0</course>
  <speed>0.0</speed>
  <fix>3d</fix>
</trkpt>
<trkpt lat="40.0713749" lon="-105.229789">
  <ele>1583.0</ele>
  <time>2026-08-28T17:51:34Z</time>
  <course>248.11</course>
  <speed>0.022360679774997897</speed>
  <fix>3d</fix>
</trkpt>
<trkpt lat="40.0713749" lon="-105.229789">
  <ele>1583.0</ele>
  <time>2026-08-28T17:51:34Z</time>
  <course>0.0</course>
  <speed>0.0</speed>
  <fix>3d</fix>
</trkpt>
<trkpt lat="40.0713749" lon="-105.229789">
  <ele>1583.0</ele>
  <time>2026-08-28T17:51:34Z</time>
  <course>248.11</course>
  <speed>0.022360679774997897</speed>
  <fix>3d</fix>
</trkpt>
<trkpt lat="40.0713749" lon="-105.229789">
  <ele>1583.0</ele>
  <time>2026-08-28T17:51:34Z</time>
  <course>0.0</course>
  <speed>0.0</speed>
  <fix>3d</fix>
</trkpt>
<trkpt lat="40.0713749" lon="-105.229789">
  <ele>1583.0</ele>
  <time>2026-08-28T17:51:34Z</time>
  <course>248.1</course>
  <speed>0.022360679774997897</speed>
  <fix>3d</fix>
</trkpt>
<trkpt lat="40.0713749" lon="-105.229789">
  <ele>1583.0</ele>
  <time>2026-08-28T17:51:34Z</time>
  <course>0.0</course>
  <speed>0.0</speed>
  <fix>3d</fix>
</trkpt>
<trkpt lat="40.0713749" lon="-105.229789">
  <ele>1583.0</ele>
  <time>2026-08-28T17:51:34Z</time>
  <course>248.1</course>
  <speed>0.022360679774997897</speed>
  <fix>3d</fix>
</trkpt>
<trkpt lat="40.0713749" lon="-105.229789">
  <ele>1583.0</ele>
  <time>2026-08-28T17:51:34Z</time>
  <course>0.0</course>
  <speed>0.0</speed>
  <fix>3d</fix>
</trkpt>
<trkpt lat="40.0713749" lon="-105.229789">
  <ele>1583.0</ele>
  <time>2026-08-28T17:51:34Z</time>
  <course>248.09</course>
  <speed>0.022360679774997897</speed>
  <fix>3d</fix>
</trkpt>
<trkpt lat="40.0713749" lon="-105.229789">
  <ele>1583.0</ele>
  <time>2026-08-28T17:51:34Z</time>
  <course>0.0</course>
  <speed>0.0</speed>
  <fix>3d</fix>
</trkpt>
<trkpt lat="40.0713749" lon="-105.229789">
  <ele>1583.0</ele>
  <time>2026-08-28T17:51:34Z</time>
  <course>248.09</course>
  <speed>0.022360679774997897</speed>
  <fix>3d</fix>
</trkpt>
<trkpt lat="40.0713749" lon="-105.229789">
  <ele>1583.0</ele>
  <time>2026-08-28T17:51:34Z</time>
  <course>0.0</course>
  <speed>0.0</speed>
  <fix>3d</fix>
</trkpt>
<trkpt lat="40.0713749" lon="-105.229789">
  <ele>1583.0</ele>
  <time>2026-08-28T17:51:34Z</time>
  <course>248.08</course>
  <speed>0.022360679774997897</speed>
  <fix>3d</fix>
</trkpt>
<trkpt lat="40.0713749" lon="-105.229789">
  <ele>1583.0</ele>
  <time>2026-08-28T17:51:34Z</time>
  <course>0.0</course>
  <speed>0.0</speed>
  <fix>3d</fix>
</trkpt>
<trkpt lat="40.0713749" lon="-105.229789">
  <ele>1583.0</ele>
  <time>2026-08-28T17:51:34Z</time>
  <course>248.08</course>
  <speed>0.022360679774997897</speed>
  <fix>3d</fix>
</trkpt>
<trkpt lat="40.0713749" lon="-105.229789">
  <ele>1583.0</ele>
  <time>2026-08-28T17:51:34Z</time>
  <course>0.0</course>
  <speed>0.0</speed>
  <fix>3d</fix>
</trkpt>
<trkpt lat="40.0713749" lon="-105.229789">
  <ele>1583.0</ele>
  <time>2026-08-28T17:51:34Z</time>
  <course>248.07</course>
  <speed>0.022360679774997897</speed>
  <fix>3d</fix>
</trkpt>
<trkpt lat="40.0713749" lon="-105.229789">
  <ele>1583.0</ele>
  <time>2026-08-28T17:51:34Z</time>
  <course>0.0</course>
  <speed>0.0</speed>
  <fix>3d</fix>
</trkpt>
<trkpt lat="40.0713749" lon="-105.229789">
  <ele>1583.0</ele>
  <time>2026-08-28T17:51:34Z</time>
  <course>248.07</course>
  <speed>0.022360679774997897</speed>
  <fix>3d</fix>
</trkpt>
<trkpt lat="40.0713749" lon="-105.229789">
  <ele>1583.0</ele>
  <time>2026-08-28T17:51:34Z</time>
  <course>0.0</course>
  <speed>0.0</speed>
  <fix>3d</fix>
</trkpt>
<trkpt lat="40.0713749" lon="-105.229789">
  <ele>1583.0</ele>
  <time>2026-08-28T17:51:34Z</time>
  <course>248.06</course>
  <speed>0.022360679774997897</speed>
  <fix>3d</fix>
</trkpt>
<trkpt lat="40.0713749" lon="-105.229789">
  <ele>1583.0</ele>
  <time>2026-08-28T17:51:34Z</time>
  <course>0.0</course>
  <speed>0.0</speed>
  <fix>3d</fix>
</trkpt>
<trkpt lat="40.0713749" lon="-105.229789">
  <ele>1583.0</ele>
  <time>2026-08-28T17:51:34Z</time>
  <course>248.06</course>
  <speed>0.022360679774997897</speed>
  <fix>3d</fix>
</trkpt>
<trkpt lat="40.0713749" lon="-105.229789">
  <ele>1583.0</ele>
  <time>2026-08-28T17:51:34Z</time>
  <course>0.0</course>
  <speed>0.0</speed>
  <fix>3d</fix>
</trkpt>
<trkpt lat="40.0713749" lon="-105.229789">
  <ele>1583.0</ele>
  <time>2026-08-28T17:51:34Z</time>
  <course>248.05</course>
  <speed>0.022360679774997897</speed>
  <fix>3d</fix>
</trkpt>
<trkpt lat="40.0713749" lon="-105.229789">
  <ele>1583.0</ele>
  <time>2026-08-28T17:51:34Z</time>
  <course>0.0</course>
  <speed>0.0</speed>
  <fix>3d</fix>
</trkpt>
<trkpt lat="40.0713749" lon="-105.229789">
  <ele>1583.0</ele>
  <time>2026-08-28T17:51:34Z</time>
  <course>248.05</course>
  <speed>0.022360679774997897</speed>
  <fix>3d</fix>
</trkpt>
<trkpt lat="40.0713749" lon="-105.229789">
  <ele>1583.0</ele>
  <time>2026-08-28T17:51:34Z</time>
  <course>0.0</course>
  <speed>0.0</speed>
  <fix>3d</fix>
</trkpt>
<trkpt lat="40.0713749" lon="-105.229789">
  <ele>1583.0</ele>
  <time>2026-08-28T17:51:34Z</time>
  <course>248.05</course>
  <speed>0.022360679774997897</speed>
  <fix>3d</fix>
</trkpt>
<trkpt lat="40.0713749" lon="-105.229789">
  <ele>1583.0</ele>
  <time>2026-08-28T17:51:34Z</time>
  <course>0.0</course>
  <speed>0.0</speed>
  <fix>3d</fix>
</trkpt>
<trkpt lat="40.0713749" lon="-105.229789">
  <ele>1583.0</ele>
  <time>2026-08-28T17:51:34Z</time>
  <course>248.04</course>
  <speed>0.022360679774997897</speed>
  <fix>3d</fix>
</trkpt>
<trkpt lat="40.0713749" lon="-105.229789">
  <ele>1583.0</ele>
  <time>2026-08-28T17:51:34Z</time>
  <course>0.0</course>
  <speed>0.0</speed>
  <fix>3d</fix>
</trkpt>
<trkpt lat="40.0713749" lon="-105.229789">
  <ele>1583.0</ele>
  <time>2026-08-28T17:51:34Z</time>
  <course>248.04</course>
  <speed>0.022360679774997897</speed>
  <fix>3d</fix>
</trkpt>
<trkpt lat="40.0713749" lon="-105.229789">
  <ele>1583.0</ele>
  <time>2026-08-28T17:51:34Z</time>
  <course>0.0</course>
  <speed>0.0</speed>
  <fix>3d</fix>
</trkpt>
<trkpt lat="40.0713749" lon="-105.229789">
  <ele>1583.0</ele>
  <time>2026-08-28T17:51:34Z</time>
  <course>248.03</course>
  <speed>0.022360679774997897</speed>
  <fix>3d</fix>
</trkpt>
<trkpt lat="40.0713749" lon="-105.229789">
  <ele>1583.0</ele>
  <time>2026-08-28T17:51:34Z</time>
  <course>0.0</course>
  <speed>0.0</speed>
  <fix>3d</fix>
</trkpt>
<trkpt lat="40.0713749" lon="-105.229789">
  <ele>1583.0</ele>
  <time>2026-08-28T17:51:34Z</time>
  <course>248.03</course>
  <speed>0.022360679774997897</speed>
  <fix>3d</fix>
</trkpt>
<trkpt lat="40.0713749" lon="-105.229789">
  <ele>1583.0</ele>
  <time>2026-08-28T17:51:34Z</time>
  <course>0.0</course>
  <speed>0.0</speed>
  <fix>3d</fix>
</trkpt>
<trkpt lat="40.0713749" lon="-105.229789">
  <ele>1583.0</ele>
  <time>2026-08-28T17:51:34Z</time>
  <course>248.02</course>
  <speed>0.022360679774997897</speed>
  <fix>3d</fix>
</trkpt>
<trkpt lat="40.0713749" lon="-105.229789">
  <ele>1583.0</ele>
  <time>2026-08-28T17:51:34Z</time>
  <course>0.0</course>
  <speed>0.0</speed>
  <fix>3d</fix>
</trkpt>
<trkpt lat="40.0713749" lon="-105.229789">
  <ele>1583.0</ele>
  <time>2026-08-28T17:51:34Z</time>
  <course>248.02</course>
  <speed>0.022360679774997897</speed>
  <fix>3d</fix>
</trkpt>
<trkpt lat="40.0713749" lon="-105.229789">
  <ele>1583.0</ele>
  <time>2026-08-28T17:51:34Z</time>
  <course>0.0</course>
  <speed>0.0</speed>
  <fix>3d</fix>
</trkpt>
<trkpt lat="40.0713749" lon="-105.229789">
  <ele>1583.0</ele>
  <time>2026-08-28T17:51:34Z</time>
  <course>248.01</course>
  <speed>0.022360679774997897</speed>
  <fix>3d</fix>
</trkpt>
<trkpt lat="40.0713749" lon="-105.229789">
  <ele>1583.0</ele>
  <time>2026-08-28T17:51:34Z</time>
  <course>0.0</course>
  <speed>0.0</speed>
  <fix>3d</fix>
</trkpt>
<trkpt lat="40.0713749" lon="-105.229789">
  <ele>1583.0</ele>
  <time>2026-08-28T17:51:34Z</time>
  <course>248.01</course>
  <speed>0.022360679774997897</speed>
  <fix>3d</fix>
</trkpt>
<trkpt lat="40.0713749" lon="-105.229789">
  <ele>1583.0</ele>
  <time>2026-08-28T17:51:34Z</time>
  <course>0.0</course>
  <speed>0.0</speed>
  <fix>3d</fix>
</trkpt>
<trkpt lat="40.0713749" lon="-105.229789">
  <ele>1583.0</ele>
  <time>2026-08-28T17:51:34Z</time>
  <course>248.0</course>
  <speed>0.022360679774997897</speed>
  <fix>3d</fix>
</trkpt>
<trkpt lat="40.0713749" lon="-105.229789">
  <ele>1583.0</ele>
  <time>2026-08-28T17:51:34Z</time>
  <course>0.0</course>
  <speed>0.0</speed>
  <fix>3d</fix>
</trkpt>
<trkpt lat="40.0713749" lon="-105.229789">
  <ele>1583.0</ele>
  <time>2026-08-28T17:51:34Z</time>
  <course>248.0</course>
  <speed>0.022360679774997897</speed>
  <fix>3d</fix>
</trkpt>
<trkpt lat="40.0713749" lon="-105.229789">
  <ele>1583.0</ele>
  <time>2026-08-28T17:51:34Z</time>
  <course>0.0</course>
  <speed>0.0</speed>
  <fix>3d</fix>
</trkpt>
<trkpt lat="40.0713749" lon="-105.229789">
  <ele>1583.0</ele>
  <time>2026-08-28T17:51:34Z</time>
  <course>247.99</course>
  <speed>0.022360679774997897</speed>
  <fix>3d</fix>
</trkpt>
<trkpt lat="40.0713749" lon="-105.229789">
  <ele>1583.0</ele>
  <time>2026-08-28T17:51:34Z</time>
  <course>0.0</course>
  <speed>0.0</speed>
  <fix>3d</fix>
</trkpt>
<trkpt lat="40.0713749" lon="-105.229789">
  <ele>1583.0</ele>
  <time>2026-08-28T17:51:34Z</time>
  <course>247.99</course>
  <speed>0.022360679774997897</speed>
  <fix>3d</fix>
</trkpt>
<trkpt lat="40.0713749" lon="-105.229789">
  <ele>1583.0</ele>
  <time>2026-08-28T17:51:34Z</time>
  <course>0.0</course>
  <speed>0.0</speed>
  <fix>3d</fix>
</trkpt>
<trkpt lat="40.0713749" lon="-105.229789">
  <ele>1583.0</ele>
  <time>2026-08-28T17:51:34Z</time>
  <course>247.99</course>
  <speed>0.022360679774997897</speed>
  <fix>3d</fix>
</trkpt>
<trkpt lat="40.0713749" lon="-105.229789">
  <ele>1583.0</ele>
  <time>2026-08-28T17:51:34Z</time>
  <course>0.0</course>
  <speed>0.0</speed>
  <fix>3d</fix>
</trkpt>
<trkpt lat="40.0713749" lon="-105.229789">
  <ele>1583.0</ele>
  <time>2026-08-28T17:51:34Z</time>
  <course>247.98</course>
  <speed>0.022360679774997897</speed>
  <fix>3d</fix>
</trkpt>
<trkpt lat="40.0713749" lon="-105.229789">
  <ele>1583.0</ele>
  <time>2026-08-28T17:51:34Z</time>
  <course>0.0</course>
  <speed>0.0</speed>
  <fix>3d</fix>
</trkpt>
<trkpt lat="40.0713749" lon="-105.229789">
  <ele>1583.0</ele>
  <time>2026-08-28T17:51:34Z</time>
  <course>247.98</course>
  <speed>0.022360679774997897</speed>
  <fix>3d</fix>
</trkpt>
<trkpt lat="40.0713749" lon="-105.229789">
  <ele>1583.0</ele>
  <time>2026-08-28T17:51:34Z</time>
  <course>0.0</course>
  <speed>0.0</speed>
  <fix>3d</fix>
</trkpt>
<trkpt lat="40.0713749" lon="-105.229789">
  <ele>1583.0</ele>
  <time>2026-08-28T17:51:34Z</time>
  <course>247.97</course>
  <speed>0.022360679774997897</speed>
  <fix>3d</fix>
</trkpt>
<trkpt lat="40.0713749" lon="-105.229789">
  <ele>1583.0</ele>
  <time>2026-08-28T17:51:34Z</time>
  <course>0.0</course>
  <speed>0.0</speed>
  <fix>3d</fix>
</trkpt>
<trkpt lat="40.0713749" lon="-105.229789">
  <ele>1583.0</ele>
  <time>2026-08-28T17:51:34Z</time>
  <course>247.97</course>
  <speed>0.022360679774997897</speed>
  <fix>3d</fix>
</trkpt>
<trkpt lat="40.0713749" lon="-105.229789">
  <ele>1583.0</ele>
  <time>2026-08-28T17:51:34Z</time>
  <course>0.0</course>
  <speed>0.0</speed>
  <fix>3d</fix>
</trkpt>
<trkpt lat="40.0713749" lon="-105.229789">
  <ele>1583.0</ele>
  <time>2026-08-28T17:51:34Z</time>
  <course>247.96</course>
  <speed>0.022360679774997897</speed>
  <fix>3d</fix>
</trkpt>
<trkpt lat="40.0713749" lon="-105.229789">
  <ele>1583.0</ele>
  <time>2026-08-28T17:51:34Z</time>
  <course>0.0</course>
  <speed>0.0</speed>
  <fix>3d</fix>
</trkpt>
<trkpt lat="40.0713749" lon="-105.229789">
  <ele>1583.0</ele>
  <time>2026-08-28T17:51:34Z</time>
  <course>247.96</course>
  <speed>0.022360679774997897</speed>
  <fix>3d</fix>
</trkpt>
<trkpt lat="40.0713749" lon="-105.229789">
  <ele>1583.0</ele>
  <time>2026-08-28T17:51:34Z</time>
  <course>0.0</course>
  <speed>0.0</speed>
  <fix>3d</fix>
</trkpt>
<trkpt lat="40.0713749" lon="-105.229789">
  <ele>1583.0</ele>
  <time>2026-08-28T17:51:34Z</time>
  <course>247.95</course>
  <speed>0.022360679774997897</speed>
  <fix>3d</fix>
</trkpt>
<trkpt lat="40.0713749" lon="-105.229789">
  <ele>1583.0</ele>
  <time>2026-08-28T17:51:34Z</time>
  <course>0.0</course>
  <speed>0.0</speed>
  <fix>3d</fix>
</trkpt>
<trkpt lat="40.0713749" lon="-105.229789">
  <ele>1583.0</ele>
  <time>2026-08-28T17:51:34Z</time>
  <course>247.95</course>
  <speed>0.022360679774997897</speed>
  <fix>3d</fix>
</trkpt>
<trkpt lat="40.0713749" lon="-105.229789">
  <ele>1583.0</ele>
  <time>2026-08-28T17:51:34Z</time>
  <course>0.0</course>
  <speed>0.0</speed>
  <fix>3d</fix>
</trkpt>
<trkpt lat="40.0713749" lon="-105.229789">
  <ele>1583.0</ele>
  <time>2026-08-28T17:51:34Z</time>
  <course>247.95</course>
  <speed>0.022360679774997897</speed>
  <fix>3d</fix>
</trkpt>
<trkpt lat="40.0713749" lon="-105.229789">
  <ele>1583.0</ele>
  <time>2026-08-28T17:51:34Z</time>
  <course>0.0</course>
  <speed>0.0</speed>
  <fix>3d</fix>
</trkpt>
<trkpt lat="40.0713749" lon="-105.229789">
  <ele>1583.0</ele>
  <time>2026-08-28T17:51:34Z</time>
  <course>247.94</course>
  <speed>0.022360679774997897</speed>
  <fix>3d</fix>
</trkpt>
<trkpt lat="40.0713749" lon="-105.229789">
  <ele>1583.0</ele>
  <time>2026-08-28T17:51:34Z</time>
  <course>0.0</course>
  <speed>0.0</speed>
  <fix>3d</fix>
</trkpt>
<trkpt lat="40.0713749" lon="-105.229789">
  <ele>1583.0</ele>
  <time>2026-08-28T17:51:34Z</time>
  <course>247.94</course>
  <speed>0.022360679774997897</speed>
  <fix>3d</fix>
</trkpt>
<trkpt lat="40.0713749" lon="-105.229789">
  <ele>1583.0</ele>
  <time>2026-08-28T17:51:34Z</time>
  <course>0.0</course>
  <speed>0.0</speed>
  <fix>3d</fix>
</trkpt>
<trkpt lat="40.0713749" lon="-105.229789">
  <ele>1583.0</ele>
  <time>2026-08-28T17:51:34Z</time>
  <course>247.93</course>
  <speed>0.022360679774997897</speed>
  <fix>3d</fix>
</trkpt>
<trkpt lat="40.0713749" lon="-105.229789">
  <ele>1583.0</ele>
  <time>2026-08-28T17:51:34Z</time>
  <course>0.0</course>
  <speed>0.0</speed>
  <fix>3d</fix>
</trkpt>
<trkpt lat="40.0713749" lon="-105.229789">
  <ele>1583.0</ele>
  <time>2026-08-28T17:51:34Z</time>
  <course>247.93</course>
  <speed>0.022360679774997897</speed>
  <fix>3d</fix>
</trkpt>
<trkpt lat="40.0713749" lon="-105.229789">
  <ele>1583.0</ele>
  <time>2026-08-28T17:51:34Z</time>
  <course>0.0</course>
  <speed>0.0</speed>
  <fix>3d</fix>
</trkpt>
<trkpt lat="40.0713749" lon="-105.229789">
  <ele>1583.0</ele>
  <time>2026-08-28T17:51:34Z</time>
  <course>247.92</course>
  <speed>0.022360679774997897</speed>
  <fix>3d</fix>
</trkpt>
<trkpt lat="40.0713749" lon="-105.229789">
  <ele>1583.0</ele>
  <time>2026-08-28T17:51:34Z</time>
  <course>0.0</course>
  <speed>0.0</speed>
  <fix>3d</fix>
</trkpt>
<trkpt lat="40.0713749" lon="-105.229789">
  <ele>1583.0</ele>
  <time>2026-08-28T17:51:34Z</time>
  <course>247.92</course>
  <speed>0.022360679774997897</speed>
  <fix>3d</fix>
</trkpt>
<trkpt lat="40.0713749" lon="-105.229789">
  <ele>1583.0</ele>
  <time>2026-08-28T17:51:34Z</time>
  <course>0.0</course>
  <speed>0.0</speed>
  <fix>3d</fix>
</trkpt>
<trkpt lat="40.0713749" lon="-105.229789">
  <ele>1583.0</ele>
  <time>2026-08-28T17:51:34Z</time>
  <course>247.92</course>
  <speed>0.022360679774997897</speed>
  <fix>3d</fix>
</trkpt>
<trkpt lat="40.0713749" lon="-105.229789">
  <ele>1583.0</ele>
  <time>2026-08-28T17:51:34Z</time>
  <course>0.0</course>
  <speed>0.0</speed>
  <fix>3d</fix>
</trkpt>
<trkpt lat="40.0713749" lon="-105.229789">
  <ele>1583.0</ele>
  <time>2026-08-28T17:51:34Z</time>
  <course>247.91</course>
  <speed>0.022360679774997897</speed>
  <fix>3d</fix>
</trkpt>
<trkpt lat="40.0713749" lon="-105.229789">
  <ele>1583.0</ele>
  <time>2026-08-28T17:51:34Z</time>
  <course>0.0</course>
  <speed>0.0</speed>
  <fix>3d</fix>
</trkpt>
<trkpt lat="40.0713749" lon="-105.229789">
  <ele>1583.0</ele>
  <time>2026-08-28T17:51:34Z</time>
  <course>247.91</course>
  <speed>0.022360679774997897</speed>
  <fix>3d</fix>
</trkpt>
<trkpt lat="40.0713749" lon="-105.229789">
  <ele>1583.0</ele>
  <time>2026-08-28T17:51:34Z</time>
  <course>0.0</course>
  <speed>0.0</speed>
  <fix>3d</fix>
</trkpt>
<trkpt lat="40.0713749" lon="-105.229789">
  <ele>1583.0</ele>
  <time>2026-08-28T17:51:34Z</time>
  <course>247.9</course>
  <speed>0.022360679774997897</speed>
  <fix>3d</fix>
</trkpt>
<trkpt lat="40.0713749" lon="-105.229789">
  <ele>1583.0</ele>
  <time>2026-08-28T17:51:34Z</time>
  <course>0.0</course>
  <speed>0.0</speed>
  <fix>3d</fix>
</trkpt>
<trkpt lat="40.0713749" lon="-105.229789">
  <ele>1583.0</ele>
  <time>2026-08-28T17:51:34Z</time>
  <course>247.9</course>
  <speed>0.022360679774997897</speed>
  <fix>3d</fix>
</trkpt>
<trkpt lat="40.0713749" lon="-105.229789">
  <ele>1583.0</ele>
  <time>2026-08-28T17:51:34Z</time>
  <course>0.0</course>
  <speed>0.0</speed>
  <fix>3d</fix>
</trkpt>
<trkpt lat="40.0713749" lon="-105.229789">
  <ele>1583.0</ele>
  <time>2026-08-28T17:51:34Z</time>
  <course>247.89</course>
  <speed>0.022360679774997897</speed>
  <fix>3d</fix>
</trkpt>
<trkpt lat="40.0713749" lon="-105.229789">
  <ele>1583.0</ele>
  <time>2026-08-28T17:51:34Z</time>
  <course>0.0</course>
  <speed>0.0</speed>
  <fix>3d</fix>
</trkpt>
<trkpt lat="40.0713749" lon="-105.229789">
  <ele>1583.0</ele>
  <time>2026-08-28T17:51:34Z</time>
  <course>247.89</course>
  <speed>0.022360679774997897</speed>
  <fix>3d</fix>
</trkpt>
<trkpt lat="40.0713749" lon="-105.229789">
  <ele>1583.0</ele>
  <time>2026-08-28T17:51:34Z</time>
  <course>0.0</course>
  <speed>0.0</speed>
  <fix>3d</fix>
</trkpt>
<trkpt lat="40.0713749" lon="-105.229789">
  <ele>1583.0</ele>
  <time>2026-08-28T17:51:34Z</time>
  <course>247.89</course>
  <speed>0.022360679774997897</speed>
  <fix>3d</fix>
</trkpt>
<trkpt lat="40.0713749" lon="-105.229789">
  <ele>1583.0</ele>
  <time>2026-08-28T17:51:34Z</time>
  <course>0.0</course>
  <speed>0.0</speed>
  <fix>3d</fix>
</trkpt>
<trkpt lat="40.0713749" lon="-105.229789">
  <ele>1583.0</ele>
  <time>2026-08-28T17:51:34Z</time>
  <course>247.88</course>
  <speed>0.0316227766016838</speed>
  <fix>3d</fix>
</trkpt>
<trkpt lat="40.0713749" lon="-105.229789">
  <ele>1583.0</ele>
  <time>2026-08-28T17:51:34Z</time>
  <course>0.0</course>
  <speed>0.0</speed>
  <fix>3d</fix>
</trkpt>
<trkpt lat="40.0713749" lon="-105.229789">
  <ele>1583.0</ele>
  <time>2026-08-28T17:51:34Z</time>
  <course>247.88</course>
  <speed>0.0316227766016838</speed>
  <fix>3d</fix>
</trkpt>
<trkpt lat="40.0713749" lon="-105.229789">
  <ele>1583.0</ele>
  <time>2026-08-28T17:51:34Z</time>
  <course>0.0</course>
  <speed>0.0</speed>
  <fix>3d</fix>
</trkpt>
<trkpt lat="40.0713749" lon="-105.229789">
  <ele>1583.0</ele>
  <time>2026-08-28T17:51:34Z</time>
  <course>247.87</course>
  <speed>0.0316227766016838</speed>
  <fix>3d</fix>
</trkpt>
<trkpt lat="40.0713749" lon="-105.229789">
  <ele>1583.0</ele>
  <time>2026-08-28T17:51:34Z</time>
  <course>0.0</course>
  <speed>0.0</speed>
  <fix>3d</fix>
</trkpt>
<trkpt lat="40.0713749" lon="-105.229789">
  <ele>1583.0</ele>
  <time>2026-08-28T17:51:34Z</time>
  <course>247.87</course>
  <speed>0.0316227766016838</speed>
  <fix>3d</fix>
</trkpt>
<trkpt lat="40.0713749" lon="-105.229789">
  <ele>1583.0</ele>
  <time>2026-08-28T17:51:34Z</time>
  <course>0.0</course>
  <speed>0.0</speed>
  <fix>3d</fix>
</trkpt>
<trkpt lat="40.0713749" lon="-105.229789">
  <ele>1583.0</ele>
  <time>2026-08-28T17:51:34Z</time>
  <course>247.87</course>
  <speed>0.0316227766016838</speed>
  <fix>3d</fix>
</trkpt>
<trkpt lat="40.0713749" lon="-105.229789">
  <ele>1583.0</ele>
  <time>2026-08-28T17:51:34Z</time>
  <course>0.0</course>
  <speed>0.0</speed>
  <fix>3d</fix>
</trkpt>
<trkpt lat="40.0713749" lon="-105.229789">
  <ele>1583.0</ele>
  <time>2026-08-28T17:51:34Z</time>
  <course>247.86</course>
  <speed>0.0316227766016838</speed>
  <fix>3d</fix>
</trkpt>
<trkpt lat="40.0713749" lon="-105.229789">
  <ele>1583.0</ele>
  <time>2026-08-28T17:51:34Z</time>
  <course>0.0</course>
  <speed>0.0</speed>
  <fix>3d</fix>
</trkpt>
<trkpt lat="40.0713749" lon="-105.229789">
  <ele>1583.0</ele>
  <time>2026-08-28T17:51:34Z</time>
  <course>247.86</course>
  <speed>0.0316227766016838</speed>
  <fix>3d</fix>
</trkpt>
<trkpt lat="40.0713749" lon="-105.229789">
  <ele>1583.0</ele>
  <time>2026-08-28T17:51:34Z</time>
  <course>0.0</course>
  <speed>0.0</speed>
  <fix>3d</fix>
</trkpt>
<trkpt lat="40.0713749" lon="-105.229789">
  <ele>1583.0</ele>
  <time>2026-08-28T17:51:34Z</time>
  <course>247.85</course>
  <speed>0.0316227766016838</speed>
  <fix>3d</fix>
</trkpt>
<trkpt lat="40.0713749" lon="-105.229789">
  <ele>1583.0</ele>
  <time>2026-08-28T17:51:34Z</time>
  <course>0.0</course>
  <speed>0.0</speed>
  <fix>3d</fix>
</trkpt>
<trkpt lat="40.0713749" lon="-105.229789">
  <ele>1583.0</ele>
  <time>2026-08-28T17:51:34Z</time>
  <course>247.85</course>
  <speed>0.0316227766016838</speed>
  <fix>3d</fix>
</trkpt>
<trkpt lat="40.0713749" lon="-105.229789">
  <ele>1583.0</ele>
  <time>2026-08-28T17:51:34Z</time>
  <course>0.0</course>
  <speed>0.0</speed>
  <fix>3d</fix>
</trkpt>
<trkpt lat="40.0713749" lon="-105.229789">
  <ele>1583.0</ele>
  <time>2026-08-28T17:51:34Z</time>
  <course>247.85</course>
  <speed>0.0316227766016838</speed>
  <fix>3d</fix>
</trkpt>
<trkpt lat="40.0713749" lon="-105.229789">
  <ele>1583.0</ele>
  <time>2026-08-28T17:51:34Z</time>
  <course>0.0</course>
  <speed>0.0</speed>
  <fix>3d</fix>
</trkpt>
<trkpt lat="40.0713749" lon="-105.229789">
  <ele>1583.0</ele>
  <time>2026-08-28T17:51:34Z</time>
  <course>247.84</course>
  <speed>0.0316227766016838</speed>
  <fix>3d</fix>
</trkpt>
<trkpt lat="40.0713749" lon="-105.229789">
  <ele>1583.0</ele>
  <time>2026-08-28T17:51:34Z</time>
  <course>0.0</course>
  <speed>0.0</speed>
  <fix>3d</fix>
</trkpt>
<trkpt lat="40.0713749" lon="-105.229789">
  <ele>1583.0</ele>
  <time>2026-08-28T17:51:35Z</time>
  <course>247.84</course>
  <speed>0.0316227766016838</speed>
  <fix>3d</fix>
</trkpt>
<trkpt lat="40.0713749" lon="-105.229789">
  <ele>1583.0</ele>
  <time>2026-08-28T17:51:35Z</time>
  <course>0.0</course>
  <speed>0.0</speed>
  <fix>3d</fix>
</trkpt>
<trkpt lat="40.0713749" lon="-105.229789">
  <ele>1583.0</ele>
  <time>2026-08-28T17:51:35Z</time>
  <course>247.83</course>
  <speed>0.0316227766016838</speed>
  <fix>3d</fix>
</trkpt>
<trkpt lat="40.0713749" lon="-105.229789">
  <ele>1583.0</ele>
  <time>2026-08-28T17:51:35Z</time>
  <course>0.0</course>
  <speed>0.0</speed>
  <fix>3d</fix>
</trkpt>
<trkpt lat="40.0713749" lon="-105.229789">
  <ele>1583.0</ele>
  <time>2026-08-28T17:51:35Z</time>
  <course>247.83</course>
  <speed>0.0316227766016838</speed>
  <fix>3d</fix>
</trkpt>
<trkpt lat="40.0713749" lon="-105.229789">
  <ele>1583.0</ele>
  <time>2026-08-28T17:51:35Z</time>
  <course>0.0</course>
  <speed>0.0</speed>
  <fix>3d</fix>
</trkpt>
<trkpt lat="40.0713749" lon="-105.229789">
  <ele>1583.0</ele>
  <time>2026-08-28T17:51:35Z</time>
  <course>247.83</course>
  <speed>0.0316227766016838</speed>
  <fix>3d</fix>
</trkpt>
<trkpt lat="40.0713749" lon="-105.229789">
  <ele>1583.0</ele>
  <time>2026-08-28T17:51:35Z</time>
  <course>0.0</course>
  <speed>0.0</speed>
  <fix>3d</fix>
</trkpt>
<trkpt lat="40.0713749" lon="-105.229789">
  <ele>1583.0</ele>
  <time>2026-08-28T17:51:35Z</time>
  <course>247.82</course>
  <speed>0.0316227766016838</speed>
  <fix>3d</fix>
</trkpt>
<trkpt lat="40.0713749" lon="-105.229789">
  <ele>1583.0</ele>
  <time>2026-08-28T17:51:35Z</time>
  <course>0.0</course>
  <speed>0.0</speed>
  <fix>3d</fix>
</trkpt>
<trkpt lat="40.0713749" lon="-105.229789">
  <ele>1583.0</ele>
  <time>2026-08-28T17:51:35Z</time>
  <course>247.82</course>
  <speed>0.0316227766016838</speed>
  <fix>3d</fix>
</trkpt>
<trkpt lat="40.0713749" lon="-105.229789">
  <ele>1583.0</ele>
  <time>2026-08-28T17:51:35Z</time>
  <course>0.0</course>
  <speed>0.0</speed>
  <fix>3d</fix>
</trkpt>
<trkpt lat="40.0713749" lon="-105.229789">
  <ele>1583.0</ele>
  <time>2026-08-28T17:51:35Z</time>
  <course>247.82</course>
  <speed>0.0316227766016838</speed>
  <fix>3d</fix>
</trkpt>
<trkpt lat="40.0713749" lon="-105.229789">
  <ele>1583.0</ele>
  <time>2026-08-28T17:51:35Z</time>
  <course>0.0</course>
  <speed>0.0</speed>
  <fix>3d</fix>
</trkpt>
<trkpt lat="40.0713749" lon="-105.229789">
  <ele>1583.0</ele>
  <time>2026-08-28T17:51:35Z</time>
  <course>247.81</course>
  <speed>0.0316227766016838</speed>
  <fix>3d</fix>
</trkpt>
<trkpt lat="40.0713749" lon="-105.229789">
  <ele>1583.0</ele>
  <time>2026-08-28T17:51:35Z</time>
  <course>0.0</course>
  <speed>0.0</speed>
  <fix>3d</fix>
</trkpt>
<trkpt lat="40.0713749" lon="-105.229789">
  <ele>1583.0</ele>
  <time>2026-08-28T17:51:35Z</time>
  <course>247.81</course>
  <speed>0.0316227766016838</speed>
  <fix>3d</fix>
</trkpt>
<trkpt lat="40.0713749" lon="-105.229789">
  <ele>1583.0</ele>
  <time>2026-08-28T17:51:35Z</time>
  <course>0.0</course>
  <speed>0.0</speed>
  <fix>3d</fix>
</trkpt>
<trkpt lat="40.0713749" lon="-105.229789">
  <ele>1583.0</ele>
  <time>2026-08-28T17:51:35Z</time>
  <course>247.8</course>
  <speed>0.0316227766016838</speed>
  <fix>3d</fix>
</trkpt>
<trkpt lat="40.0713749" lon="-105.229789">
  <ele>1583.0</ele>
  <time>2026-08-28T17:51:35Z</time>
  <course>0.0</course>
  <speed>0.0</speed>
  <fix>3d</fix>
</trkpt>
<trkpt lat="40.0713749" lon="-105.229789">
  <ele>1583.0</ele>
  <time>2026-08-28T17:51:35Z</time>
  <course>247.8</course>
  <speed>0.0316227766016838</speed>
  <fix>3d</fix>
</trkpt>
<trkpt lat="40.0713749" lon="-105.229789">
  <ele>1583.0</ele>
  <time>2026-08-28T17:51:35Z</time>
  <course>0.0</course>
  <speed>0.0</speed>
  <fix>3d</fix>
</trkpt>
<trkpt lat="40.0713749" lon="-105.229789">
  <ele>1583.0</ele>
  <time>2026-08-28T17:51:35Z</time>
  <course>247.8</course>
  <speed>0.0316227766016838</speed>
  <fix>3d</fix>
</trkpt>
<trkpt lat="40.0713749" lon="-105.229789">
  <ele>1583.0</ele>
  <time>2026-08-28T17:51:35Z</time>
  <course>0.0</course>
  <speed>0.0</speed>
  <fix>3d</fix>
</trkpt>
<trkpt lat="40.0713749" lon="-105.229789">
  <ele>1583.0</ele>
  <time>2026-08-28T17:51:35Z</time>
  <course>247.79</course>
  <speed>0.0316227766016838</speed>
  <fix>3d</fix>
</trkpt>
<trkpt lat="40.0713749" lon="-105.229789">
  <ele>1583.0</ele>
  <time>2026-08-28T17:51:35Z</time>
  <course>0.0</course>
  <speed>0.0</speed>
  <fix>3d</fix>
</trkpt>
<trkpt lat="40.0713749" lon="-105.229789">
  <ele>1583.0</ele>
  <time>2026-08-28T17:51:35Z</time>
  <course>247.79</course>
  <speed>0.0316227766016838</speed>
  <fix>3d</fix>
</trkpt>
<trkpt lat="40.0713749" lon="-105.229789">
  <ele>1583.0</ele>
  <time>2026-08-28T17:51:35Z</time>
  <course>0.0</course>
  <speed>0.0</speed>
  <fix>3d</fix>
</trkpt>
<trkpt lat="40.0713749" lon="-105.229789">
  <ele>1583.0</ele>
  <time>2026-08-28T17:51:35Z</time>
  <course>247.79</course>
  <speed>0.0316227766016838</speed>
  <fix>3d</fix>
</trkpt>
<trkpt lat="40.0713749" lon="-105.229789">
  <ele>1583.0</ele>
  <time>2026-08-28T17:51:35Z</time>
  <course>0.0</course>
  <speed>0.0</speed>
  <fix>3d</fix>
</trkpt>
<trkpt lat="40.0713749" lon="-105.229789">
  <ele>1583.0</ele>
  <time>2026-08-28T17:51:35Z</time>
  <course>247.78</course>
  <speed>0.0316227766016838</speed>
  <fix>3d</fix>
</trkpt>
<trkpt lat="40.0713749" lon="-105.229789">
  <ele>1583.0</ele>
  <time>2026-08-28T17:51:35Z</time>
  <course>0.0</course>
  <speed>0.0</speed>
  <fix>3d</fix>
</trkpt>
<trkpt lat="40.0713749" lon="-105.229789">
  <ele>1583.0</ele>
  <time>2026-08-28T17:51:35Z</time>
  <course>247.78</course>
  <speed>0.0316227766016838</speed>
  <fix>3d</fix>
</trkpt>
<trkpt lat="40.0713749" lon="-105.229789">
  <ele>1583.0</ele>
  <time>2026-08-28T17:51:35Z</time>
  <course>0.0</course>
  <speed>0.0</speed>
  <fix>3d</fix>
</trkpt>
<trkpt lat="40.0713749" lon="-105.229789">
  <ele>1583.0</ele>
  <time>2026-08-28T17:51:35Z</time>
  <course>247.78</course>
  <speed>0.0316227766016838</speed>
  <fix>3d</fix>
</trkpt>
<trkpt lat="40.0713749" lon="-105.229789">
  <ele>1583.0</ele>
  <time>2026-08-28T17:51:35Z</time>
  <course>0.0</course>
  <speed>0.0</speed>
  <fix>3d</fix>
</trkpt>
<trkpt lat="40.0713749" lon="-105.229789">
  <ele>1583.0</ele>
  <time>2026-08-28T17:51:35Z</time>
  <course>247.77</course>
  <speed>0.0316227766016838</speed>
  <fix>3d</fix>
</trkpt>
<trkpt lat="40.0713749" lon="-105.229789">
  <ele>1583.0</ele>
  <time>2026-08-28T17:51:35Z</time>
  <course>0.0</course>
  <speed>0.0</speed>
  <fix>3d</fix>
</trkpt>
<trkpt lat="40.0713749" lon="-105.229789">
  <ele>1583.0</ele>
  <time>2026-08-28T17:51:35Z</time>
  <course>247.77</course>
  <speed>0.0316227766016838</speed>
  <fix>3d</fix>
</trkpt>
<trkpt lat="40.0713749" lon="-105.229789">
  <ele>1583.0</ele>
  <time>2026-08-28T17:51:35Z</time>
  <course>0.0</course>
  <speed>0.0</speed>
  <fix>3d</fix>
</trkpt>
<trkpt lat="40.0713749" lon="-105.229789">
  <ele>1583.0</ele>
  <time>2026-08-28T17:51:35Z</time>
  <course>247.76</course>
  <speed>0.0316227766016838</speed>
  <fix>3d</fix>
</trkpt>
<trkpt lat="40.0713749" lon="-105.229789">
  <ele>1583.0</ele>
  <time>2026-08-28T17:51:35Z</time>
  <course>0.0</course>
  <speed>0.0</speed>
  <fix>3d</fix>
</trkpt>
<trkpt lat="40.0713749" lon="-105.229789">
  <ele>1583.0</ele>
  <time>2026-08-28T17:51:35Z</time>
  <course>247.76</course>
  <speed>0.0316227766016838</speed>
  <fix>3d</fix>
</trkpt>
<trkpt lat="40.0713749" lon="-105.229789">
  <ele>1583.0</ele>
  <time>2026-08-28T17:51:35Z</time>
  <course>0.0</course>
  <speed>0.0</speed>
  <fix>3d</fix>
</trkpt>
<trkpt lat="40.0713749" lon="-105.229789">
  <ele>1583.0</ele>
  <time>2026-08-28T17:51:35Z</time>
  <course>247.76</course>
  <speed>0.0316227766016838</speed>
  <fix>3d</fix>
</trkpt>
<trkpt lat="40.0713749" lon="-105.229789">
  <ele>1583.0</ele>
  <time>2026-08-28T17:51:35Z</time>
  <course>0.0</course>
  <speed>0.0</speed>
  <fix>3d</fix>
</trkpt>
<trkpt lat="40.0713749" lon="-105.229789">
  <ele>1583.0</ele>
  <time>2026-08-28T17:51:35Z</time>
  <course>247.75</course>
  <speed>0.0316227766016838</speed>
  <fix>3d</fix>
</trkpt>
<trkpt lat="40.0713749" lon="-105.229789">
  <ele>1583.0</ele>
  <time>2026-08-28T17:51:35Z</time>
  <course>0.0</course>
  <speed>0.0</speed>
  <fix>3d</fix>
</trkpt>
<trkpt lat="40.0713749" lon="-105.229789">
  <ele>1583.0</ele>
  <time>2026-08-28T17:51:35Z</time>
  <course>247.75</course>
  <speed>0.0316227766016838</speed>
  <fix>3d</fix>
</trkpt>
<trkpt lat="40.0713749" lon="-105.229789">
  <ele>1583.0</ele>
  <time>2026-08-28T17:51:35Z</time>
  <course>0.0</course>
  <speed>0.0</speed>
  <fix>3d</fix>
</trkpt>
<trkpt lat="40.0713749" lon="-105.229789">
  <ele>1583.0</ele>
  <time>2026-08-28T17:51:35Z</time>
  <course>247.75</course>
  <speed>0.0316227766016838</speed>
  <fix>3d</fix>
</trkpt>
<trkpt lat="40.0713749" lon="-105.229789">
  <ele>1583.0</ele>
  <time>2026-08-28T17:51:35Z</time>
  <course>0.0</course>
  <speed>0.0</speed>
  <fix>3d</fix>
</trkpt>
<trkpt lat="40.0713749" lon="-105.229789">
  <ele>1583.0</ele>
  <time>2026-08-28T17:51:35Z</time>
  <course>247.74</course>
  <speed>0.0316227766016838</speed>
  <fix>3d</fix>
</trkpt>
<trkpt lat="40.0713749" lon="-105.229789">
  <ele>1583.0</ele>
  <time>2026-08-28T17:51:35Z</time>
  <course>0.0</course>
  <speed>0.0</speed>
  <fix>3d</fix>
</trkpt>
<trkpt lat="40.0713749" lon="-105.229789">
  <ele>1583.0</ele>
  <time>2026-08-28T17:51:35Z</time>
  <course>247.74</course>
  <speed>0.0316227766016838</speed>
  <fix>3d</fix>
</trkpt>
<trkpt lat="40.0713749" lon="-105.229789">
  <ele>1583.0</ele>
  <time>2026-08-28T17:51:35Z</time>
  <course>0.0</course>
  <speed>0.0</speed>
  <fix>3d</fix>
</trkpt>
<trkpt lat="40.0713749" lon="-105.229789">
  <ele>1583.0</ele>
  <time>2026-08-28T17:51:35Z</time>
  <course>247.74</course>
  <speed>0.0316227766016838</speed>
  <fix>3d</fix>
</trkpt>
<trkpt lat="40.0713749" lon="-105.229789">
  <ele>1583.0</ele>
  <time>2026-08-28T17:51:35Z</time>
  <course>0.0</course>
  <speed>0.0</speed>
  <fix>3d</fix>
</trkpt>
<trkpt lat="40.0713749" lon="-105.229789">
  <ele>1583.0</ele>
  <time>2026-08-28T17:51:35Z</time>
  <course>247.73</course>
  <speed>0.0316227766016838</speed>
  <fix>3d</fix>
</trkpt>
<trkpt lat="40.0713749" lon="-105.229789">
  <ele>1583.0</ele>
  <time>2026-08-28T17:51:35Z</time>
  <course>0.0</course>
  <speed>0.0</speed>
  <fix>3d</fix>
</trkpt>
<trkpt lat="40.0713749" lon="-105.229789">
  <ele>1583.0</ele>
  <time>2026-08-28T17:51:35Z</time>
  <course>247.73</course>
  <speed>0.0316227766016838</speed>
  <fix>3d</fix>
</trkpt>
<trkpt lat="40.0713749" lon="-105.229789">
  <ele>1583.0</ele>
  <time>2026-08-28T17:51:35Z</time>
  <course>0.0</course>
  <speed>0.0</speed>
  <fix>3d</fix>
</trkpt>
<trkpt lat="40.0713749" lon="-105.229789">
  <ele>1583.0</ele>
  <time>2026-08-28T17:51:35Z</time>
  <course>247.73</course>
  <speed>0.0316227766016838</speed>
  <fix>3d</fix>
</trkpt>
<trkpt lat="40.0713749" lon="-105.229789">
  <ele>1583.0</ele>
  <time>2026-08-28T17:51:35Z</time>
  <course>0.0</course>
  <speed>0.0</speed>
  <fix>3d</fix>
</trkpt>
<trkpt lat="40.0713749" lon="-105.229789">
  <ele>1583.0</ele>
  <time>2026-08-28T17:51:35Z</time>
  <course>247.72</course>
  <speed>0.0316227766016838</speed>
  <fix>3d</fix>
</trkpt>
<trkpt lat="40.0713749" lon="-105.229789">
  <ele>1583.0</ele>
  <time>2026-08-28T17:51:35Z</time>
  <course>0.0</course>
  <speed>0.0</speed>
  <fix>3d</fix>
</trkpt>
<trkpt lat="40.0713749" lon="-105.229789">
  <ele>1583.0</ele>
  <time>2026-08-28T17:51:35Z</time>
  <course>247.72</course>
  <speed>0.0316227766016838</speed>
  <fix>3d</fix>
</trkpt>
<trkpt lat="40.0713749" lon="-105.229789">
  <ele>1583.0</ele>
  <time>2026-08-28T17:51:35Z</time>
  <course>0.0</course>
  <speed>0.0</speed>
  <fix>3d</fix>
</trkpt>
<trkpt lat="40.0713749" lon="-105.229789">
  <ele>1583.0</ele>
  <time>2026-08-28T17:51:35Z</time>
  <course>247.72</course>
  <speed>0.0316227766016838</speed>
  <fix>3d</fix>
</trkpt>
<trkpt lat="40.0713749" lon="-105.229789">
  <ele>1583.0</ele>
  <time>2026-08-28T17:51:35Z</time>
  <course>0.0</course>
  <speed>0.0</speed>
  <fix>3d</fix>
</trkpt>
<trkpt lat="40.0713749" lon="-105.229789">
  <ele>1583.0</ele>
  <time>2026-08-28T17:51:35Z</time>
  <course>247.71</course>
  <speed>0.0316227766016838</speed>
  <fix>3d</fix>
</trkpt>
<trkpt lat="40.0713749" lon="-105.229789">
  <ele>1583.0</ele>
  <time>2026-08-28T17:51:35Z</time>
  <course>0.0</course>
  <speed>0.0</speed>
  <fix>3d</fix>
</trkpt>
<trkpt lat="40.0713749" lon="-105.229789">
  <ele>1583.0</ele>
  <time>2026-08-28T17:51:35Z</time>
  <course>247.71</course>
  <speed>0.0316227766016838</speed>
  <fix>3d</fix>
</trkpt>
<trkpt lat="40.0713749" lon="-105.229789">
  <ele>1583.0</ele>
  <time>2026-08-28T17:51:35Z</time>
  <course>0.0</course>
  <speed>0.0</speed>
  <fix>3d</fix>
</trkpt>
<trkpt lat="40.0713749" lon="-105.229789">
  <ele>1583.0</ele>
  <time>2026-08-28T17:51:35Z</time>
  <course>247.71</course>
  <speed>0.0316227766016838</speed>
  <fix>3d</fix>
</trkpt>
<trkpt lat="40.0713749" lon="-105.229789">
  <ele>1583.0</ele>
  <time>2026-08-28T17:51:35Z</time>
  <course>0.0</course>
  <speed>0.0</speed>
  <fix>3d</fix>
</trkpt>
<trkpt lat="40.0713749" lon="-105.229789">
  <ele>1583.0</ele>
  <time>2026-08-28T17:51:35Z</time>
  <course>247.7</course>
  <speed>0.0316227766016838</speed>
  <fix>3d</fix>
</trkpt>
<trkpt lat="40.0713749" lon="-105.229789">
  <ele>1583.0</ele>
  <time>2026-08-28T17:51:35Z</time>
  <course>0.0</course>
  <speed>0.0</speed>
  <fix>3d</fix>
</trkpt>
<trkpt lat="40.0713749" lon="-105.229789">
  <ele>1583.0</ele>
  <time>2026-08-28T17:51:35Z</time>
  <course>247.7</course>
  <speed>0.0316227766016838</speed>
  <fix>3d</fix>
</trkpt>
<trkpt lat="40.0713749" lon="-105.229789">
  <ele>1583.0</ele>
  <time>2026-08-28T17:51:35Z</time>
  <course>0.0</course>
  <speed>0.0</speed>
  <fix>3d</fix>
</trkpt>
<trkpt lat="40.0713749" lon="-105.229789">
  <ele>1583.0</ele>
  <time>2026-08-28T17:51:35Z</time>
  <course>247.7</course>
  <speed>0.0316227766016838</speed>
  <fix>3d</fix>
</trkpt>
<trkpt lat="40.0713749" lon="-105.229789">
  <ele>1583.0</ele>
  <time>2026-08-28T17:51:35Z</time>
  <course>0.0</course>
  <speed>0.0</speed>
  <fix>3d</fix>
</trkpt>
<trkpt lat="40.0713749" lon="-105.229789">
  <ele>1583.0</ele>
  <time>2026-08-28T17:51:35Z</time>
  <course>247.69</course>
  <speed>0.0316227766016838</speed>
  <fix>3d</fix>
</trkpt>
<trkpt lat="40.0713749" lon="-105.229789">
  <ele>1583.0</ele>
  <time>2026-08-28T17:51:35Z</time>
  <course>0.0</course>
  <speed>0.0</speed>
  <fix>3d</fix>
</trkpt>
<trkpt lat="40.0713749" lon="-105.229789">
  <ele>1583.0</ele>
  <time>2026-08-28T17:51:35Z</time>
  <course>247.69</course>
  <speed>0.0316227766016838</speed>
  <fix>3d</fix>
</trkpt>
<trkpt lat="40.0713749" lon="-105.229789">
  <ele>1583.0</ele>
  <time>2026-08-28T17:51:35Z</time>
  <course>0.0</course>
  <speed>0.0</speed>
  <fix>3d</fix>
</trkpt>
<trkpt lat="40.0713749" lon="-105.229789">
  <ele>1583.0</ele>
  <time>2026-08-28T17:51:35Z</time>
  <course>247.69</course>
  <speed>0.0316227766016838</speed>
  <fix>3d</fix>
</trkpt>
<trkpt lat="40.0713749" lon="-105.229789">
  <ele>1583.0</ele>
  <time>2026-08-28T17:51:35Z</time>
  <course>0.0</course>
  <speed>0.0</speed>
  <fix>3d</fix>
</trkpt>
<trkpt lat="40.0713749" lon="-105.229789">
  <ele>1583.0</ele>
  <time>2026-08-28T17:51:35Z</time>
  <course>247.68</course>
  <speed>0.0316227766016838</speed>
  <fix>3d</fix>
</trkpt>
<trkpt lat="40.0713749" lon="-105.229789">
  <ele>1583.0</ele>
  <time>2026-08-28T17:51:35Z</time>
  <course>0.0</course>
  <speed>0.0</speed>
  <fix>3d</fix>
</trkpt>
<trkpt lat="40.0713749" lon="-105.229789">
  <ele>1583.0</ele>
  <time>2026-08-28T17:51:35Z</time>
  <course>247.68</course>
  <speed>0.0316227766016838</speed>
  <fix>3d</fix>
</trkpt>
<trkpt lat="40.0713749" lon="-105.229789">
  <ele>1583.0</ele>
  <time>2026-08-28T17:51:35Z</time>
  <course>0.0</course>
  <speed>0.0</speed>
  <fix>3d</fix>
</trkpt>
<trkpt lat="40.0713749" lon="-105.229789">
  <ele>1583.0</ele>
  <time>2026-08-28T17:51:35Z</time>
  <course>247.68</course>
  <speed>0.0316227766016838</speed>
  <fix>3d</fix>
</trkpt>
<trkpt lat="40.0713749" lon="-105.229789">
  <ele>1583.0</ele>
  <time>2026-08-28T17:51:35Z</time>
  <course>0.0</course>
  <speed>0.0</speed>
  <fix>3d</fix>
</trkpt>
<trkpt lat="40.0713749" lon="-105.229789">
  <ele>1583.0</ele>
  <time>2026-08-28T17:51:35Z</time>
  <course>247.67</course>
  <speed>0.0316227766016838</speed>
  <fix>3d</fix>
</trkpt>
<trkpt lat="40.0713749" lon="-105.229789">
  <ele>1583.0</ele>
  <time>2026-08-28T17:51:35Z</time>
  <course>0.0</course>
  <speed>0.0</speed>
  <fix>3d</fix>
</trkpt>
<trkpt lat="40.0713749" lon="-105.229789">
  <ele>1583.0</ele>
  <time>2026-08-28T17:51:35Z</time>
  <course>247.67</course>
  <speed>0.0316227766016838</speed>
  <fix>3d</fix>
</trkpt>
<trkpt lat="40.0713749" lon="-105.229789">
  <ele>1583.0</ele>
  <time>2026-08-28T17:51:35Z</time>
  <course>0.0</course>
  <speed>0.0</speed>
  <fix>3d</fix>
</trkpt>
<trkpt lat="40.0713749" lon="-105.229789">
  <ele>1583.0</ele>
  <time>2026-08-28T17:51:35Z</time>
  <course>247.67</course>
  <speed>0.0316227766016838</speed>
  <fix>3d</fix>
</trkpt>
<trkpt lat="40.0713749" lon="-105.229789">
  <ele>1583.0</ele>
  <time>2026-08-28T17:51:35Z</time>
  <course>0.0</course>
  <speed>0.0</speed>
  <fix>3d</fix>
</trkpt>
<trkpt lat="40.0713749" lon="-105.229789">
  <ele>1583.0</ele>
  <time>2026-08-28T17:51:35Z</time>
  <course>247.66</course>
  <speed>0.0316227766016838</speed>
  <fix>3d</fix>
</trkpt>
<trkpt lat="40.0713749" lon="-105.229789">
  <ele>1583.0</ele>
  <time>2026-08-28T17:51:35Z</time>
  <course>0.0</course>
  <speed>0.0</speed>
  <fix>3d</fix>
</trkpt>
<trkpt lat="40.0713749" lon="-105.229789">
  <ele>1583.0</ele>
  <time>2026-08-28T17:51:35Z</time>
  <course>247.66</course>
  <speed>0.0316227766016838</speed>
  <fix>3d</fix>
</trkpt>
<trkpt lat="40.0713749" lon="-105.229789">
  <ele>1583.0</ele>
  <time>2026-08-28T17:51:35Z</time>
  <course>0.0</course>
  <speed>0.0</speed>
  <fix>3d</fix>
</trkpt>
<trkpt lat="40.0713749" lon="-105.229789">
  <ele>1583.0</ele>
  <time>2026-08-28T17:51:35Z</time>
  <course>247.66</course>
  <speed>0.0316227766016838</speed>
  <fix>3d</fix>
</trkpt>
<trkpt lat="40.0713749" lon="-105.229789">
  <ele>1583.0</ele>
  <time>2026-08-28T17:51:35Z</time>
  <course>0.0</course>
  <speed>0.0</speed>
  <fix>3d</fix>
</trkpt>
<trkpt lat="40.0713749" lon="-105.229789">
  <ele>1583.0</ele>
  <time>2026-08-28T17:51:35Z</time>
  <course>247.65</course>
  <speed>0.0316227766016838</speed>
  <fix>3d</fix>
</trkpt>
<trkpt lat="40.0713749" lon="-105.229789">
  <ele>1583.0</ele>
  <time>2026-08-28T17:51:35Z</time>
  <course>0.0</course>
  <speed>0.0</speed>
  <fix>3d</fix>
</trkpt>
<trkpt lat="40.0713749" lon="-105.229789">
  <ele>1583.0</ele>
  <time>2026-08-28T17:51:35Z</time>
  <course>247.65</course>
  <speed>0.0316227766016838</speed>
  <fix>3d</fix>
</trkpt>
<trkpt lat="40.0713749" lon="-105.229789">
  <ele>1583.0</ele>
  <time>2026-08-28T17:51:35Z</time>
  <course>0.0</course>
  <speed>0.0</speed>
  <fix>3d</fix>
</trkpt>
<trkpt lat="40.0713749" lon="-105.229789">
  <ele>1583.0</ele>
  <time>2026-08-28T17:51:35Z</time>
  <course>247.65</course>
  <speed>0.0316227766016838</speed>
  <fix>3d</fix>
</trkpt>
<trkpt lat="40.0713749" lon="-105.229789">
  <ele>1583.0</ele>
  <time>2026-08-28T17:51:35Z</time>
  <course>0.0</course>
  <speed>0.0</speed>
  <fix>3d</fix>
</trkpt>
<trkpt lat="40.0713749" lon="-105.229789">
  <ele>1583.0</ele>
  <time>2026-08-28T17:51:35Z</time>
  <course>247.64</course>
  <speed>0.0316227766016838</speed>
  <fix>3d</fix>
</trkpt>
<trkpt lat="40.0713749" lon="-105.229789">
  <ele>1583.0</ele>
  <time>2026-08-28T17:51:35Z</time>
  <course>0.0</course>
  <speed>0.0</speed>
  <fix>3d</fix>
</trkpt>
<trkpt lat="40.0713749" lon="-105.229789">
  <ele>1583.0</ele>
  <time>2026-08-28T17:51:35Z</time>
  <course>247.64</course>
  <speed>0.0316227766016838</speed>
  <fix>3d</fix>
</trkpt>
<trkpt lat="40.0713749" lon="-105.229789">
  <ele>1583.0</ele>
  <time>2026-08-28T17:51:35Z</time>
  <course>0.0</course>
  <speed>0.0</speed>
  <fix>3d</fix>
</trkpt>
<trkpt lat="40.0713749" lon="-105.229789">
  <ele>1583.0</ele>
  <time>2026-08-28T17:51:35Z</time>
  <course>247.64</course>
  <speed>0.0316227766016838</speed>
  <fix>3d</fix>
</trkpt>
<trkpt lat="40.0713749" lon="-105.229789">
  <ele>1583.0</ele>
  <time>2026-08-28T17:51:35Z</time>
  <course>0.0</course>
  <speed>0.0</speed>
  <fix>3d</fix>
</trkpt>
<trkpt lat="40.0713749" lon="-105.229789">
  <ele>1583.0</ele>
  <time>2026-08-28T17:51:35Z</time>
  <course>247.64</course>
  <speed>0.0316227766016838</speed>
  <fix>3d</fix>
</trkpt>
<trkpt lat="40.0713749" lon="-105.229789">
  <ele>1583.0</ele>
  <time>2026-08-28T17:51:35Z</time>
  <course>0.0</course>
  <speed>0.0</speed>
  <fix>3d</fix>
</trkpt>
<trkpt lat="40.0713749" lon="-105.229789">
  <ele>1583.0</ele>
  <time>2026-08-28T17:51:35Z</time>
  <course>247.63</course>
  <speed>0.0316227766016838</speed>
  <fix>3d</fix>
</trkpt>
<trkpt lat="40.0713749" lon="-105.229789">
  <ele>1583.0</ele>
  <time>2026-08-28T17:51:35Z</time>
  <course>0.0</course>
  <speed>0.0</speed>
  <fix>3d</fix>
</trkpt>
<trkpt lat="40.0713749" lon="-105.229789">
  <ele>1583.0</ele>
  <time>2026-08-28T17:51:35Z</time>
  <course>247.63</course>
  <speed>0.0316227766016838</speed>
  <fix>3d</fix>
</trkpt>
<trkpt lat="40.0713749" lon="-105.229789">
  <ele>1583.0</ele>
  <time>2026-08-28T17:51:35Z</time>
  <course>0.0</course>
  <speed>0.0</speed>
  <fix>3d</fix>
</trkpt>
<trkpt lat="40.0713749" lon="-105.229789">
  <ele>1583.0</ele>
  <time>2026-08-28T17:51:35Z</time>
  <course>247.63</course>
  <speed>0.0316227766016838</speed>
  <fix>3d</fix>
</trkpt>
<trkpt lat="40.0713749" lon="-105.229789">
  <ele>1583.0</ele>
  <time>2026-08-28T17:51:35Z</time>
  <course>0.0</course>
  <speed>0.0</speed>
  <fix>3d</fix>
</trkpt>
<trkpt lat="40.0713749" lon="-105.229789">
  <ele>1583.0</ele>
  <time>2026-08-28T17:51:35Z</time>
  <course>247.62</course>
  <speed>0.0316227766016838</speed>
  <fix>3d</fix>
</trkpt>
<trkpt lat="40.0713749" lon="-105.229789">
  <ele>1583.0</ele>
  <time>2026-08-28T17:51:35Z</time>
  <course>0.0</course>
  <speed>0.0</speed>
  <fix>3d</fix>
</trkpt>
<trkpt lat="40.0713749" lon="-105.229789">
  <ele>1583.0</ele>
  <time>2026-08-28T17:51:35Z</time>
  <course>247.62</course>
  <speed>0.0316227766016838</speed>
  <fix>3d</fix>
</trkpt>
<trkpt lat="40.0713749" lon="-105.229789">
  <ele>1583.0</ele>
  <time>2026-08-28T17:51:35Z</time>
  <course>0.0</course>
  <speed>0.0</speed>
  <fix>3d</fix>
</trkpt>
<trkpt lat="40.0713749" lon="-105.229789">
  <ele>1583.0</ele>
  <time>2026-08-28T17:51:35Z</time>
  <course>247.62</course>
  <speed>0.0316227766016838</speed>
  <fix>3d</fix>
</trkpt>
<trkpt lat="40.0713749" lon="-105.229789">
  <ele>1583.0</ele>
  <time>2026-08-28T17:51:35Z</time>
  <course>0.0</course>
  <speed>0.0</speed>
  <fix>3d</fix>
</trkpt>
<trkpt lat="40.0713749" lon="-105.229789">
  <ele>1583.0</ele>
  <time>2026-08-28T17:51:35Z</time>
  <course>247.62</course>
  <speed>0.0316227766016838</speed>
  <fix>3d</fix>
</trkpt>
<trkpt lat="40.0713749" lon="-105.229789">
  <ele>1583.0</ele>
  <time>2026-08-28T17:51:35Z</time>
  <course>0.0</course>
  <speed>0.0</speed>
  <fix>3d</fix>
</trkpt>
<trkpt lat="40.0713749" lon="-105.229789">
  <ele>1583.0</ele>
  <time>2026-08-28T17:51:35Z</time>
  <course>247.61</course>
  <speed>0.0316227766016838</speed>
  <fix>3d</fix>
</trkpt>
<trkpt lat="40.0713749" lon="-105.229789">
  <ele>1583.0</ele>
  <time>2026-08-28T17:51:35Z</time>
  <course>0.0</course>
  <speed>0.0</speed>
  <fix>3d</fix>
</trkpt>
<trkpt lat="40.0713749" lon="-105.229789">
  <ele>1583.0</ele>
  <time>2026-08-28T17:51:35Z</time>
  <course>247.61</course>
  <speed>0.0316227766016838</speed>
  <fix>3d</fix>
</trkpt>
<trkpt lat="40.0713749" lon="-105.229789">
  <ele>1583.0</ele>
  <time>2026-08-28T17:51:35Z</time>
  <course>0.0</course>
  <speed>0.0</speed>
  <fix>3d</fix>
</trkpt>
<trkpt lat="40.0713749" lon="-105.229789">
  <ele>1583.0</ele>
  <time>2026-08-28T17:51:35Z</time>
  <course>247.61</course>
  <speed>0.0316227766016838</speed>
  <fix>3d</fix>
</trkpt>
<trkpt lat="40.0713749" lon="-105.229789">
  <ele>1583.0</ele>
  <time>2026-08-28T17:51:35Z</time>
  <course>0.0</course>
  <speed>0.0</speed>
  <fix>3d</fix>
</trkpt>
<trkpt lat="40.0713749" lon="-105.229789">
  <ele>1583.0</ele>
  <time>2026-08-28T17:51:35Z</time>
  <course>247.6</course>
  <speed>0.0316227766016838</speed>
  <fix>3d</fix>
</trkpt>
<trkpt lat="40.0713749" lon="-105.229789">
  <ele>1583.0</ele>
  <time>2026-08-28T17:51:35Z</time>
  <course>0.0</course>
  <speed>0.0</speed>
  <fix>3d</fix>
</trkpt>
<trkpt lat="40.0713749" lon="-105.229789">
  <ele>1583.0</ele>
  <time>2026-08-28T17:51:35Z</time>
  <course>247.6</course>
  <speed>0.0316227766016838</speed>
  <fix>3d</fix>
</trkpt>
<trkpt lat="40.0713749" lon="-105.229789">
  <ele>1583.0</ele>
  <time>2026-08-28T17:51:35Z</time>
  <course>0.0</course>
  <speed>0.0</speed>
  <fix>3d</fix>
</trkpt>
<trkpt lat="40.0713749" lon="-105.229789">
  <ele>1583.0</ele>
  <time>2026-08-28T17:51:35Z</time>
  <course>247.6</course>
  <speed>0.0316227766016838</speed>
  <fix>3d</fix>
</trkpt>
<trkpt lat="40.0713749" lon="-105.229789">
  <ele>1583.0</ele>
  <time>2026-08-28T17:51:35Z</time>
  <course>0.0</course>
  <speed>0.0</speed>
  <fix>3d</fix>
</trkpt>
<trkpt lat="40.0713749" lon="-105.229789">
  <ele>1583.0</ele>
  <time>2026-08-28T17:51:35Z</time>
  <course>247.6</course>
  <speed>0.0316227766016838</speed>
  <fix>3d</fix>
</trkpt>
<trkpt lat="40.0713749" lon="-105.229789">
  <ele>1583.0</ele>
  <time>2026-08-28T17:51:35Z</time>
  <course>0.0</course>
  <speed>0.0</speed>
  <fix>3d</fix>
</trkpt>
<trkpt lat="40.0713749" lon="-105.229789">
  <ele>1583.0</ele>
  <time>2026-08-28T17:51:35Z</time>
  <course>247.59</course>
  <speed>0.0316227766016838</speed>
  <fix>3d</fix>
</trkpt>
<trkpt lat="40.0713749" lon="-105.229789">
  <ele>1583.0</ele>
  <time>2026-08-28T17:51:35Z</time>
  <course>0.0</course>
  <speed>0.0</speed>
  <fix>3d</fix>
</trkpt>
<trkpt lat="40.0713749" lon="-105.229789">
  <ele>1582.92</ele>
  <time>2026-08-28T17:51:35Z</time>
  <course>247.59</course>
  <speed>0.0</speed>
  <fix>3d</fix>
</trkpt>
<trkpt lat="40.0713749" lon="-105.229789">
  <ele>1583.0</ele>
  <time>2026-08-28T17:51:35Z</time>
  <course>0.0</course>
  <speed>0.0</speed>
  <fix>3d</fix>
</trkpt>
<trkpt lat="40.0713749" lon="-105.229789">
  <ele>1582.92</ele>
  <time>2026-08-28T17:51:35Z</time>
  <course>247.59</course>
  <speed>0.0</speed>
  <fix>3d</fix>
</trkpt>
<trkpt lat="40.0713749" lon="-105.229789">
  <ele>1583.0</ele>
  <time>2026-08-28T17:51:35Z</time>
  <course>0.0</course>
  <speed>0.0</speed>
  <fix>3d</fix>
</trkpt>
<trkpt lat="40.0713749" lon="-105.229789">
  <ele>1582.91</ele>
  <time>2026-08-28T17:51:35Z</time>
  <course>247.58</course>
  <speed>0.0</speed>
  <fix>3d</fix>
</trkpt>
<trkpt lat="40.0713749" lon="-105.229789">
  <ele>1583.0</ele>
  <time>2026-08-28T17:51:35Z</time>
  <course>0.0</course>
  <speed>0.0</speed>
  <fix>3d</fix>
</trkpt>
<trkpt lat="40.0713749" lon="-105.229789">
  <ele>1582.91</ele>
  <time>2026-08-28T17:51:35Z</time>
  <course>247.58</course>
  <speed>0.0</speed>
  <fix>3d</fix>
</trkpt>
<trkpt lat="40.0713749" lon="-105.229789">
  <ele>1583.0</ele>
  <time>2026-08-28T17:51:35Z</time>
  <course>0.0</course>
  <speed>0.0</speed>
  <fix>3d</fix>
</trkpt>
<trkpt lat="40.0713749" lon="-105.229789">
  <ele>1582.9</ele>
  <time>2026-08-28T17:51:35Z</time>
  <course>247.58</course>
  <speed>0.0</speed>
  <fix>3d</fix>
</trkpt>
<trkpt lat="40.0713749" lon="-105.229789">
  <ele>1583.0</ele>
  <time>2026-08-28T17:51:35Z</time>
  <course>0.0</course>
  <speed>0.0</speed>
  <fix>3d</fix>
</trkpt>
<trkpt lat="40.0713749" lon="-105.229789">
  <ele>1582.9</ele>
  <time>2026-08-28T17:51:35Z</time>
  <course>247.58</course>
  <speed>0.0</speed>
  <fix>3d</fix>
</trkpt>
<trkpt lat="40.0713749" lon="-105.229789">
  <ele>1583.0</ele>
  <time>2026-08-28T17:51:35Z</time>
  <course>0.0</course>
  <speed>0.0</speed>
  <fix>3d</fix>
</trkpt>
<trkpt lat="40.0713749" lon="-105.229789">
  <ele>1582.9</ele>
  <time>2026-08-28T17:51:35Z</time>
  <course>247.57</course>
  <speed>0.0</speed>
  <fix>3d</fix>
</trkpt>
<trkpt lat="40.0713749" lon="-105.229789">
  <ele>1583.0</ele>
  <time>2026-08-28T17:51:35Z</time>
  <course>0.0</course>
  <speed>0.0</speed>
  <fix>3d</fix>
</trkpt>
<trkpt lat="40.0713749" lon="-105.229789">
  <ele>1582.9</ele>
  <time>2026-08-28T17:51:35Z</time>
  <course>247.57</course>
  <speed>0.0</speed>
  <fix>3d</fix>
</trkpt>
<trkpt lat="40.0713749" lon="-105.229789">
  <ele>1583.0</ele>
  <time>2026-08-28T17:51:35Z</time>
  <course>0.0</course>
  <speed>0.0</speed>
  <fix>3d</fix>
</trkpt>
<trkpt lat="40.0713749" lon="-105.229789">
  <ele>1582.9</ele>
  <time>2026-08-28T17:51:35Z</time>
  <course>247.57</course>
  <speed>0.0</speed>
  <fix>3d</fix>
</trkpt>
<trkpt lat="40.0713749" lon="-105.229789">
  <ele>1583.0</ele>
  <time>2026-08-28T17:51:35Z</time>
  <course>0.0</course>
  <speed>0.0</speed>
  <fix>3d</fix>
</trkpt>
<trkpt lat="40.0713749" lon="-105.229789">
  <ele>1582.9</ele>
  <time>2026-08-28T17:51:35Z</time>
  <course>247.57</course>
  <speed>0.01</speed>
  <fix>3d</fix>
</trkpt>
<trkpt lat="40.0713749" lon="-105.229789">
  <ele>1583.0</ele>
  <time>2026-08-28T17:51:35Z</time>
  <course>0.0</course>
  <speed>0.0</speed>
  <fix>3d</fix>
</trkpt>
<trkpt lat="40.0713749" lon="-105.229789">
  <ele>1582.9</ele>
  <time>2026-08-28T17:51:35Z</time>
  <course>247.56</course>
  <speed>0.01</speed>
  <fix>3d</fix>
</trkpt>
<trkpt lat="40.0713749" lon="-105.229789">
  <ele>1583.0</ele>
  <time>2026-08-28T17:51:35Z</time>
  <course>0.0</course>
  <speed>0.0</speed>
  <fix>3d</fix>
</trkpt>
<trkpt lat="40.0713749" lon="-105.229789">
  <ele>1582.91</ele>
  <time>2026-08-28T17:51:35Z</time>
  <course>247.56</course>
  <speed>0.01</speed>
  <fix>3d</fix>
</trkpt>
<trkpt lat="40.0713749" lon="-105.229789">
  <ele>1583.0</ele>
  <time>2026-08-28T17:51:35Z</time>
  <course>0.0</course>
  <speed>0.0</speed>
  <fix>3d</fix>
</trkpt>
<trkpt lat="40.0713749" lon="-105.229789">
  <ele>1582.91</ele>
  <time>2026-08-28T17:51:35Z</time>
  <course>247.56</course>
  <speed>0.01</speed>
  <fix>3d</fix>
</trkpt>
<trkpt lat="40.0713749" lon="-105.229789">
  <ele>1583.0</ele>
  <time>2026-08-28T17:51:35Z</time>
  <course>0.0</course>
  <speed>0.0</speed>
  <fix>3d</fix>
</trkpt>
<trkpt lat="40.0713749" lon="-105.229789">
  <ele>1582.92</ele>
  <time>2026-08-28T17:51:35Z</time>
  <course>247.56</course>
  <speed>0.01</speed>
  <fix>3d</fix>
</trkpt>
<trkpt lat="40.0713749" lon="-105.229789">
  <ele>1583.0</ele>
  <time>2026-08-28T17:51:35Z</time>
  <course>0.0</course>
  <speed>0.0</speed>
  <fix>3d</fix>
</trkpt>
<trkpt lat="40.0713749" lon="-105.229789">
  <ele>1582.92</ele>
  <time>2026-08-28T17:51:35Z</time>
  <course>247.55</course>
  <speed>0.01</speed>
  <fix>3d</fix>
</trkpt>
<trkpt lat="40.0713749" lon="-105.229789">
  <ele>1583.0</ele>
  <time>2026-08-28T17:51:35Z</time>
  <course>0.0</course>
  <speed>0.0</speed>
  <fix>3d</fix>
</trkpt>
<trkpt lat="40.0713749" lon="-105.229789">
  <ele>1582.92</ele>
  <time>2026-08-28T17:51:35Z</time>
  <course>247.55</course>
  <speed>0.01</speed>
  <fix>3d</fix>
</trkpt>
<trkpt lat="40.0713749" lon="-105.229789">
  <ele>1583.0</ele>
  <time>2026-08-28T17:51:35Z</time>
  <course>0.0</course>
  <speed>0.0</speed>
  <fix>3d</fix>
</trkpt>
<trkpt lat="40.0713749" lon="-105.229789">
  <ele>1582.93</ele>
  <time>2026-08-28T17:51:35Z</time>
  <course>247.55</course>
  <speed>0.01</speed>
  <fix>3d</fix>
</trkpt>
<trkpt lat="40.0713749" lon="-105.229789">
  <ele>1583.0</ele>
  <time>2026-08-28T17:51:35Z</time>
  <course>246.0</course>
  <speed>0.0</speed>
  <fix>3d</fix>
</trkpt>
<trkpt lat="40.0713749" lon="-105.229789">
  <ele>1582.93</ele>
  <time>2026-08-28T17:51:35Z</time>
  <course>247.57</course>
  <speed>0.01</speed>
  <fix>3d</fix>
</trkpt>
<trkpt lat="40.0713749" lon="-105.229789">
  <ele>1583.0</ele>
  <time>2026-08-28T17:51:35Z</time>
  <course>246.0</course>
  <speed>0.0</speed>
  <fix>3d</fix>
</trkpt>
<trkpt lat="40.0713749" lon="-105.229789">
  <ele>1582.93</ele>
  <time>2026-08-28T17:51:35Z</time>
  <course>247.56</course>
  <speed>0.01414213562373095</speed>
  <fix>3d</fix>
</trkpt>
<trkpt lat="40.0713749" lon="-105.229789">
  <ele>1583.0</ele>
  <time>2026-08-28T17:51:35Z</time>
  <course>246.01</course>
  <speed>0.0</speed>
  <fix>3d</fix>
</trkpt>
<trkpt lat="40.0713749" lon="-105.229789">
  <ele>1582.93</ele>
  <time>2026-08-28T17:51:35Z</time>
  <course>247.49</course>
  <speed>0.02</speed>
  <fix>3d</fix>
</trkpt>
<trkpt lat="40.0713749" lon="-105.229789">
  <ele>1583.0</ele>
  <time>2026-08-28T17:51:35Z</time>
  <course>246.01</course>
  <speed>0.0</speed>
  <fix>3d</fix>
</trkpt>
<trkpt lat="40.0713749" lon="-105.229789">
  <ele>1582.94</ele>
  <time>2026-08-28T17:51:35Z</time>
  <course>247.35</course>
  <speed>0.03</speed>
  <fix>3d</fix>
</trkpt>
<trkpt lat="40.0713749" lon="-105.229789">
  <ele>1583.0</ele>
  <time>2026-08-28T17:51:35Z</time>
  <course>245.96</course>
  <speed>0.02</speed>
  <fix>3d</fix>
</trkpt>
<trkpt lat="40.0713749" lon="-105.2297891">
  <ele>1582.94</ele>
  <time>2026-08-28T17:51:35Z</time>
  <course>247.13</course>
  <speed>0.05</speed>
  <fix>3d</fix>
</trkpt>
<trkpt lat="40.0713749" lon="-105.229789">
  <ele>1583.0</ele>
  <time>2026-08-28T17:51:35Z</time>
  <course>245.7</course>
  <speed>0.04</speed>
  <fix>3d</fix>
</trkpt>
<trkpt lat="40.0713749" lon="-105.2297892">
  <ele>1582.94</ele>
  <time>2026-08-28T17:51:35Z</time>
  <course>246.81</course>
  <speed>0.07071067811865475</speed>
  <fix>3d</fix>
</trkpt>
<trkpt lat="40.0713749" lon="-105.229789">
  <ele>1583.0</ele>
  <time>2026-08-28T17:51:35Z</time>
  <course>245.7</course>
  <speed>0.04</speed>
  <fix>3d</fix>
</trkpt>
<trkpt lat="40.0713749" lon="-105.2297893">
  <ele>1582.95</ele>
  <time>2026-08-28T17:51:35Z</time>
  <course>246.37</course>
  <speed>0.09219544457292887</speed>
  <fix>3d</fix>
</trkpt>
<trkpt lat="40.0713749" lon="-105.2297892">
  <ele>1583.0</ele>
  <time>2026-08-28T17:51:35Z</time>
  <course>245.12</course>
  <speed>0.08</speed>
  <fix>3d</fix>
</trkpt>
<trkpt lat="40.0713749" lon="-105.2297894">
  <ele>1582.95</ele>
  <time>2026-08-28T17:51:35Z</time>
  <course>245.79</course>
  <speed>0.11401754250991379</speed>
  <fix>3d</fix>
</trkpt>
<trkpt lat="40.0713749" lon="-105.2297892">
  <ele>1583.0</ele>
  <time>2026-08-28T17:51:35Z</time>
  <course>245.12</course>
  <speed>0.08</speed>
  <fix>3d</fix>
</trkpt>
<trkpt lat="40.0713748" lon="-105.2297896">
  <ele>1582.95</ele>
  <time>2026-08-28T17:51:35Z</time>
  <course>245.04</course>
  <speed>0.1392838827718412</speed>
  <fix>3d</fix>
</trkpt>
<trkpt lat="40.0713748" lon="-105.2297894">
  <ele>1583.0</ele>
  <time>2026-08-28T17:51:35Z</time>
  <course>244.04</course>
  <speed>0.13</speed>
  <fix>3d</fix>
</trkpt>
<trkpt lat="40.0713747" lon="-105.2297897">
  <ele>1582.96</ele>
  <time>2026-08-28T17:51:35Z</time>
  <course>244.12</course>
  <speed>0.1708800749063506</speed>
  <fix>3d</fix>
</trkpt>
<trkpt lat="40.0713748" lon="-105.2297894">
  <ele>1583.0</ele>
  <time>2026-08-28T17:51:35Z</time>
  <course>244.04</course>
  <speed>0.13</speed>
  <fix>3d</fix>
</trkpt>
<trkpt lat="40.0713747" lon="-105.22979">
  <ele>1582.96</ele>
  <time>2026-08-28T17:51:35Z</time>
  <course>243.01</course>
  <speed>0.19697715603592209</speed>
  <fix>3d</fix>
</trkpt>
<trkpt lat="40.0713747" lon="-105.2297897">
  <ele>1583.0</ele>
  <time>2026-08-28T17:51:35Z</time>
  <course>242.33</course>
  <speed>0.18</speed>
  <fix>3d</fix>
</trkpt>
<trkpt lat="40.0713746" lon="-105.2297902">
  <ele>1582.96</ele>
  <time>2026-08-28T17:51:35Z</time>
  <course>241.68</course>
  <speed>0.23259406699226015</speed>
  <fix>3d</fix>
</trkpt>
<trkpt lat="40.0713747" lon="-105.2297897">
  <ele>1583.0</ele>
  <time>2026-08-28T17:51:35Z</time>
  <course>242.33</course>
  <speed>0.18</speed>
  <fix>3d</fix>
</trkpt>
<trkpt lat="40.0713745" lon="-105.2297905">
  <ele>1582.96</ele>
  <time>2026-08-28T17:51:35Z</time>
  <course>240.16</course>
  <speed>0.25942243542145693</speed>
  <fix>3d</fix>
</trkpt>
<trkpt lat="40.0713745" lon="-105.2297902">
  <ele>1583.0</ele>
  <time>2026-08-28T17:51:35Z</time>
  <course>239.88</course>
  <speed>0.24</speed>
  <fix>3d</fix>
</trkpt>
<trkpt lat="40.0713743" lon="-105.2297908">
  <ele>1582.96</ele>
  <time>2026-08-28T17:51:35Z</time>
  <course>238.42</course>
  <speed>0.28653097563788804</speed>
  <fix>3d</fix>
</trkpt>
<trkpt lat="40.0713745" lon="-105.2297902">
  <ele>1583.0</ele>
  <time>2026-08-28T17:51:35Z</time>
  <course>239.88</course>
  <speed>0.24</speed>
  <fix>3d</fix>
</trkpt>
<trkpt lat="40.0713742" lon="-105.2297911">
  <ele>1582.96</ele>
  <time>2026-08-28T17:51:35Z</time>
  <course>236.47</course>
  <speed>0.31906112267087633</speed>
  <fix>3d</fix>
</trkpt>
<trkpt lat="40.0713743" lon="-105.2297907">
  <ele>1583.0</ele>
  <time>2026-08-28T17:51:35Z</time>
  <course>236.61</course>
  <speed>0.3</speed>
  <fix>3d</fix>
</trkpt>
<trkpt lat="40.071374" lon="-105.2297914">
  <ele>1582.95</ele>
  <time>2026-08-28T17:51:35Z</time>
  <course>234.29</course>
  <speed>0.34409301068170506</speed>
  <fix>3d</fix>
</trkpt>
<trkpt lat="40.0713743" lon="-105.2297907">
  <ele>1583.0</ele>
  <time>2026-08-28T17:51:35Z</time>
  <course>236.61</course>
  <speed>0.3</speed>
  <fix>3d</fix>
</trkpt>
<trkpt lat="40.0713738" lon="-105.2297918">
  <ele>1582.95</ele>
  <time>2026-08-28T17:51:35Z</time>
  <course>231.92</course>
  <speed>0.378021163428716</speed>
  <fix>3d</fix>
</trkpt>
<trkpt lat="40.071374" lon="-105.2297914">
  <ele>1583.0</ele>
  <time>2026-08-28T17:51:35Z</time>
  <course>232.48</course>
  <speed>0.35</speed>
  <fix>3d</fix>
</trkpt>
<trkpt lat="40.0713735" lon="-105.2297921">
  <ele>1582.95</ele>
  <time>2026-08-28T17:51:35Z</time>
  <course>229.37</course>
  <speed>0.4045985664828782</speed>
  <fix>3d</fix>
</trkpt>
<trkpt lat="40.071374" lon="-105.2297914">
  <ele>1583.0</ele>
  <time>2026-08-28T17:51:35Z</time>
  <course>232.48</course>
  <speed>0.35</speed>
  <fix>3d</fix>
</trkpt>
<trkpt lat="40.0713732" lon="-105.2297925">
  <ele>1582.96</ele>
  <time>2026-08-28T17:51:35Z</time>
  <course>226.62</course>
  <speed>0.4386342439892262</speed>
  <fix>3d</fix>
</trkpt>
<trkpt lat="40.071374" lon="-105.2297914">
  <ele>1583.0</ele>
  <time>2026-08-28T17:51:35Z</time>
  <course>232.48</course>
  <speed>0.35</speed>
  <fix>3d</fix>
</trkpt>
<trkpt lat="40.0713729" lon="-105.2297929">
  <ele>1582.95</ele>
  <time>2026-08-28T17:51:35Z</time>
  <course>223.69</course>
  <speed>0.4669047011971501</speed>
  <fix>3d</fix>
</trkpt>
<trkpt lat="40.0713735" lon="-105.2297921">
  <ele>1583.0</ele>
  <time>2026-08-28T17:51:35Z</time>
  <course>227.54</course>
  <speed>0.41</speed>
  <fix>3d</fix>
</trkpt>
<trkpt lat="40.0713726" lon="-105.2297933">
  <ele>1582.95</ele>
  <time>2026-08-28T17:51:35Z</time>
  <course>220.55</course>
  <speed>0.49678969393496886</speed>
  <fix>3d</fix>
</trkpt>
<trkpt lat="40.0713735" lon="-105.2297921">
  <ele>1583.0</ele>
  <time>2026-08-28T17:51:35Z</time>
  <course>227.54</course>
  <speed>0.41</speed>
  <fix>3d</fix>
</trkpt>
<trkpt lat="40.0713722" lon="-105.2297937">
  <ele>1582.95</ele>
  <time>2026-08-28T17:51:35Z</time>
  <course>217.19</course>
  <speed>0.5360037313302959</speed>
  <fix>3d</fix>
</trkpt>
<trkpt lat="40.0713729" lon="-105.2297928">
  <ele>1583.0</ele>
  <time>2026-08-28T17:51:35Z</time>
  <course>221.82</course>
  <speed>0.47</speed>
  <fix>3d</fix>
</trkpt>
<trkpt lat="40.0713718" lon="-105.229794">
  <ele>1582.95</ele>
  <time>2026-08-28T17:51:35Z</time>
  <course>213.62</course>
  <speed>0.5714017850864661</speed>
  <fix>3d</fix>
</trkpt>
<trkpt lat="40.0713729" lon="-105.2297928">
  <ele>1583.0</ele>
  <time>2026-08-28T17:51:35Z</time>
  <course>221.82</course>
  <speed>0.47</speed>
  <fix>3d</fix>
</trkpt>
<trkpt lat="40.0713713" lon="-105.2297944">
  <ele>1582.95</ele>
  <time>2026-08-28T17:51:35Z</time>
  <course>209.83</course>
  <speed>0.6129437168288782</speed>
  <fix>3d</fix>
</trkpt>
<trkpt lat="40.0713722" lon="-105.2297935">
  <ele>1583.0</ele>
  <time>2026-08-28T17:51:35Z</time>
  <course>215.29</course>
  <speed>0.54</speed>
  <fix>3d</fix>
</trkpt>
<trkpt lat="40.0713708" lon="-105.2297947">
  <ele>1582.95</ele>
  <time>2026-08-28T17:51:35Z</time>
  <course>205.95</course>
  <speed>0.6488451279003334</speed>
  <fix>3d</fix>
</trkpt>
<trkpt lat="40.0713722" lon="-105.2297935">
  <ele>1583.0</ele>
  <time>2026-08-28T17:51:35Z</time>
  <course>215.29</course>
  <speed>0.54</speed>
  <fix>3d</fix>
</trkpt>
<trkpt lat="40.0713702" lon="-105.229795">
  <ele>1582.95</ele>
  <time>2026-08-28T17:51:35Z</time>
  <course>202.0</course>
  <speed>0.6928924880528002</speed>
  <fix>3d</fix>
</trkpt>
<trkpt lat="40.0713712" lon="-105.2297943">
  <ele>1583.0</ele>
  <time>2026-08-28T17:51:35Z</time>
  <course>207.97</course>
  <speed>0.62</speed>
  <fix>3d</fix>
</trkpt>
<trkpt lat="40.0713696" lon="-105.2297952">
  <ele>1582.96</ele>
  <time>2026-08-28T17:51:35Z</time>
  <course>198.08</course>
  <speed>0.75</speed>
  <fix>3d</fix>
</trkpt>
<trkpt lat="40.0713702" lon="-105.2297949">
  <ele>1583.0</ele>
  <time>2026-08-28T17:51:35Z</time>
  <course>200.21</course>
  <speed>0.7</speed>
  <fix>3d</fix>
</trkpt>
<trkpt lat="40.0713689" lon="-105.2297955">
  <ele>1582.96</ele>
  <time>2026-08-28T17:51:35Z</time>
  <course>194.22</course>
  <speed>0.7983107164506812</speed>
  <fix>3d</fix>
</trkpt>
<trkpt lat="40.0713702" lon="-105.2297949">
  <ele>1583.0</ele>
  <time>2026-08-28T17:51:35Z</time>
  <course>200.21</course>
  <speed>0.7</speed>
  <fix>3d</fix>
</trkpt>
<trkpt lat="40.0713681" lon="-105.2297956">
  <ele>1582.97</ele>
  <time>2026-08-28T17:51:35Z</time>
  <course>190.51</course>
  <speed>0.848528137423857</speed>
  <fix>3d</fix>
</trkpt>
<trkpt lat="40.0713689" lon="-105.2297954">
  <ele>1583.0</ele>
  <time>2026-08-28T17:51:35Z</time>
  <course>192.5</course>
  <speed>0.8</speed>
  <fix>3d</fix>
</trkpt>
<trkpt lat="40.0713673" lon="-105.2297957">
  <ele>1582.97</ele>
  <time>2026-08-28T17:51:35Z</time>
  <course>186.94</course>
  <speed>0.9126883367283708</speed>
  <fix>3d</fix>
</trkpt>
<trkpt lat="40.0713689" lon="-105.2297954">
  <ele>1583.0</ele>
  <time>2026-08-28T17:51:35Z</time>
  <course>192.5</course>
  <speed>0.8</speed>
  <fix>3d</fix>
</trkpt>
<trkpt lat="40.0713664" lon="-105.2297958">
  <ele>1582.98</ele>
  <time>2026-08-28T17:51:35Z</time>
  <course>183.69</course>
  <speed>0.9702061636580135</speed>
  <fix>3d</fix>
</trkpt>
<trkpt lat="40.0713674" lon="-105.2297956">
  <ele>1583.0</ele>
  <time>2026-08-28T17:51:35Z</time>
  <course>185.31</course>
  <speed>0.9</speed>
  <fix>3d</fix>
</trkpt>
<trkpt lat="40.0713655" lon="-105.2297958">
  <ele>1582.98</ele>
  <time>2026-08-28T17:51:35Z</time>
  <course>180.91</course>
  <speed>1.030194156457898</speed>
  <fix>3d</fix>
</trkpt>
<trkpt lat="40.0713674" lon="-105.2297956">
  <ele>1583.0</ele>
  <time>2026-08-28T17:51:35Z</time>
  <course>185.31</course>
  <speed>0.9</speed>
  <fix>3d</fix>
</trkpt>
<trkpt lat="40.0713645" lon="-105.2297957">
  <ele>1582.98</ele>
  <time>2026-08-28T17:51:35Z</time>
  <course>178.63</course>
  <speed>1.1022250223978767</speed>
  <fix>3d</fix>
</trkpt>
<trkpt lat="40.0713657" lon="-105.2297957">
  <ele>1583.0</ele>
  <time>2026-08-28T17:51:35Z</time>
  <course>179.45</course>
  <speed>1.02</speed>
  <fix>3d</fix>
</trkpt>
<trkpt lat="40.0713635" lon="-105.2297957">
  <ele>1582.98</ele>
  <time>2026-08-28T17:51:35Z</time>
  <course>176.83</course>
  <speed>1.1652038448271616</speed>
  <fix>3d</fix>
</trkpt>
<trkpt lat="40.0713657" lon="-105.2297957">
  <ele>1583.0</ele>
  <time>2026-08-28T17:51:35Z</time>
  <course>179.45</course>
  <speed>1.02</speed>
  <fix>3d</fix>
</trkpt>
<trkpt lat="40.0713624" lon="-105.2297955">
  <ele>1582.98</ele>
  <time>2026-08-28T17:51:35Z</time>
  <course>175.35</course>
  <speed>1.239112585683803</speed>
  <fix>3d</fix>
</trkpt>
<trkpt lat="40.0713637" lon="-105.2297956">
  <ele>1583.0</ele>
  <time>2026-08-28T17:51:35Z</time>
  <course>175.36</course>
  <speed>1.15</speed>
  <fix>3d</fix>
</trkpt>
<trkpt lat="40.0713612" lon="-105.2297953">
  <ele>1582.98</ele>
  <time>2026-08-28T17:51:35Z</time>
  <course>174.14</course>
  <speed>1.3024976007655444</speed>
  <fix>3d</fix>
</trkpt>
<trkpt lat="40.0713637" lon="-105.2297956">
  <ele>1583.0</ele>
  <time>2026-08-28T17:51:35Z</time>
  <course>175.36</course>
  <speed>1.15</speed>
  <fix>3d</fix>
</trkpt>
<trkpt lat="40.07136" lon="-105.229795">
  <ele>1582.98</ele>
  <time>2026-08-28T17:51:35Z</time>
  <course>173.14</course>
  <speed>1.377679207943562</speed>
  <fix>3d</fix>
</trkpt>
<trkpt lat="40.0713615" lon="-105.2297954">
  <ele>1583.0</ele>
  <time>2026-08-28T17:51:35Z</time>
  <course>172.64</course>
  <speed>1.29</speed>
  <fix>3d</fix>
</trkpt>
<trkpt lat="40.0713587" lon="-105.2297948">
  <ele>1582.98</ele>
  <time>2026-08-28T17:51:35Z</time>
  <course>172.3</course>
  <speed>1.44183910336764</speed>
  <fix>3d</fix>
</trkpt>
<trkpt lat="40.0713615" lon="-105.2297954">
  <ele>1583.0</ele>
  <time>2026-08-28T17:51:35Z</time>
  <course>172.64</course>
  <speed>1.29</speed>
  <fix>3d</fix>
</trkpt>
<trkpt lat="40.0713574" lon="-105.2297945">
  <ele>1582.98</ele>
  <time>2026-08-28T17:51:35Z</time>
  <course>171.59</course>
  <speed>1.5062536307010186</speed>
  <fix>3d</fix>
</trkpt>
<trkpt lat="40.0713591" lon="-105.229795">
  <ele>1583.0</ele>
  <time>2026-08-28T17:51:35Z</time>
  <course>170.78</course>
  <speed>1.42</speed>
  <fix>3d</fix>
</trkpt>
<trkpt lat="40.071356" lon="-105.2297941">
  <ele>1582.98</ele>
  <time>2026-08-28T17:51:35Z</time>
  <course>170.98</course>
  <speed>1.570891466651977</speed>
  <fix>3d</fix>
</trkpt>
<trkpt lat="40.0713591" lon="-105.229795">
  <ele>1583.0</ele>
  <time>2026-08-28T17:51:35Z</time>
  <course>170.78</course>
  <speed>1.42</speed>
  <fix>3d</fix>
</trkpt>
<trkpt lat="40.0713546" lon="-105.2297938">
  <ele>1582.98</ele>
  <time>2026-08-28T17:51:35Z</time>
  <course>170.46</course>
  <speed>1.6238842323269231</speed>
  <fix>3d</fix>
</trkpt>
<trkpt lat="40.0713591" lon="-105.229795">
  <ele>1583.0</ele>
  <time>2026-08-28T17:51:35Z</time>
  <course>170.78</course>
  <speed>1.42</speed>
  <fix>3d</fix>
</trkpt>
<trkpt lat="40.0713532" lon="-105.2297934">
  <ele>1582.98</ele>
  <time>2026-08-28T17:51:35Z</time>
  <course>170.01</course>
  <speed>1.66715326230074</speed>
  <fix>3d</fix>
</trkpt>
<trkpt lat="40.0713564" lon="-105.2297944">
  <ele>1583.0</ele>
  <time>2026-08-28T17:51:35Z</time>
  <course>169.46</course>
  <speed>1.54</speed>
  <fix>3d</fix>
</trkpt>
<trkpt lat="40.0713517" lon="-105.229793">
  <ele>1582.99</ele>
  <time>2026-08-28T17:51:35Z</time>
  <course>169.62</course>
  <speed>1.7104970037974343</speed>
  <fix>3d</fix>
</trkpt>
<trkpt lat="40.0713564" lon="-105.2297944">
  <ele>1583.0</ele>
  <time>2026-08-28T17:51:35Z</time>
  <course>169.46</course>
  <speed>1.54</speed>
  <fix>3d</fix>
</trkpt>
<trkpt lat="40.0713502" lon="-105.2297925">
  <ele>1582.98</ele>
  <time>2026-08-28T17:51:35Z</time>
  <course>169.27</course>
  <speed>1.7344163283364233</speed>
  <fix>3d</fix>
</trkpt>
<trkpt lat="40.0713536" lon="-105.2297936">
  <ele>1583.0</ele>
  <time>2026-08-28T17:51:35Z</time>
  <course>168.48</course>
  <speed>1.64</speed>
  <fix>3d</fix>
</trkpt>
<trkpt lat="40.0713487" lon="-105.2297921">
  <ele>1582.98</ele>
  <time>2026-08-28T17:51:35Z</time>
  <course>168.97</course>
  <speed>1.756160584912439</speed>
  <fix>3d</fix>
</trkpt>
<trkpt lat="40.0713536" lon="-105.2297936">
  <ele>1583.0</ele>
  <time>2026-08-28T17:51:35Z</time>
  <course>168.48</course>
  <speed>1.64</speed>
  <fix>3d</fix>
</trkpt>
<trkpt lat="40.0713471" lon="-105.2297916">
  <ele>1582.98</ele>
  <time>2026-08-28T17:51:35Z</time>
  <course>168.9</course>
  <speed>1.7779201331893397</speed>
  <fix>3d</fix>
</trkpt>
<trkpt lat="40.0713506" lon="-105.2297928">
  <ele>1583.0</ele>
  <time>2026-08-28T17:51:35Z</time>
  <course>167.74</course>
  <speed>1.72</speed>
  <fix>3d</fix>
</trkpt>
<trkpt lat="40.0713456" lon="-105.2297912">
  <ele>1582.98</ele>
  <time>2026-08-28T17:51:35Z</time>
  <course>169.19</course>
  <speed>1.7756407294269863</speed>
  <fix>3d</fix>
</trkpt>
<trkpt lat="40.0713476" lon="-105.2297919">
  <ele>1583.0</ele>
  <time>2026-08-28T17:51:35Z</time>
  <course>167.53</course>
  <speed>1.76</speed>
  <fix>3d</fix>
</trkpt>
<trkpt lat="40.071344" lon="-105.2297907">
  <ele>1582.98</ele>
  <time>2026-08-28T17:51:35Z</time>
  <course>169.83</course>
  <speed>1.7712425017484197</speed>
  <fix>3d</fix>
</trkpt>
<trkpt lat="40.0713476" lon="-105.2297919">
  <ele>1583.0</ele>
  <time>2026-08-28T17:51:35Z</time>
  <course>167.53</course>
  <speed>1.76</speed>
  <fix>3d</fix>
</trkpt>
<trkpt lat="40.0713425" lon="-105.2297903">
  <ele>1582.98</ele>
  <time>2026-08-28T17:51:35Z</time>
  <course>170.89</course>
  <speed>1.75524927004685</speed>
  <fix>3d</fix>
</trkpt>
<trkpt lat="40.0713445" lon="-105.2297911">
  <ele>1583.0</ele>
  <time>2026-08-28T17:51:35Z</time>
  <course>168.49</course>
  <speed>1.76</speed>
  <fix>3d</fix>
</trkpt>
<trkpt lat="40.0713409" lon="-105.22979">
  <ele>1582.98</ele>
  <time>2026-08-28T17:51:35Z</time>
  <course>172.4</course>
  <speed>1.7361163555476344</speed>
  <fix>3d</fix>
</trkpt>
<trkpt lat="40.0713445" lon="-105.2297911">
  <ele>1583.0</ele>
  <time>2026-08-28T17:51:35Z</time>
  <course>168.49</course>
  <speed>1.76</speed>
  <fix>3d</fix>
</trkpt>
<trkpt lat="40.0713394" lon="-105.2297897">
  <ele>1582.99</ele>
  <time>2026-08-28T17:51:35Z</time>
  <course>174.5</course>
  <speed>1.695670958647343</speed>
  <fix>3d</fix>
</trkpt>
<trkpt lat="40.0713414" lon="-105.2297903">
  <ele>1583.0</ele>
  <time>2026-08-28T17:51:35Z</time>
  <course>171.13</course>
  <speed>1.72</speed>
  <fix>3d</fix>
</trkpt>
<trkpt lat="40.0713379" lon="-105.2297895">
  <ele>1582.99</ele>
  <time>2026-08-28T17:51:35Z</time>
  <course>177.28</course>
  <speed>1.6368872899500442</speed>
  <fix>3d</fix>
</trkpt>
<trkpt lat="40.0713414" lon="-105.2297903">
  <ele>1583.0</ele>
  <time>2026-08-28T17:51:35Z</time>
  <course>171.13</course>
  <speed>1.72</speed>
  <fix>3d</fix>
</trkpt>
<trkpt lat="40.0713365" lon="-105.2297894">
  <ele>1582.99</ele>
  <time>2026-08-28T17:51:35Z</time>
  <course>180.95</course>
  <speed>1.5705094714773293</speed>
  <fix>3d</fix>
</trkpt>
<trkpt lat="40.0713384" lon="-105.2297899">
  <ele>1583.0</ele>
  <time>2026-08-28T17:51:35Z</time>
  <course>176.1</course>
  <speed>1.64</speed>
  <fix>3d</fix>
</trkpt>
<trkpt lat="40.0713351" lon="-105.2297895">
  <ele>1583.0</ele>
  <time>2026-08-28T17:51:35Z</time>
  <course>185.71</course>
  <speed>1.4921461054467824</speed>
  <fix>3d</fix>
</trkpt>
<trkpt lat="40.0713384" lon="-105.2297899">
  <ele>1583.0</ele>
  <time>2026-08-28T17:51:35Z</time>
  <course>176.1</course>
  <speed>1.64</speed>
  <fix>3d</fix>
</trkpt>
<trkpt lat="40.0713338" lon="-105.2297898">
  <ele>1583.0</ele>
  <time>2026-08-28T17:51:35Z</time>
  <course>191.54</course>
  <speed>1.4073023839957068</speed>
  <fix>3d</fix>
</trkpt>
<trkpt lat="40.0713356" lon="-105.2297898">
  <ele>1583.0</ele>
  <time>2026-08-28T17:51:35Z</time>
  <course>184.46</course>
  <speed>1.51</speed>
  <fix>3d</fix>
</trkpt>
<trkpt lat="40.0713326" lon="-105.2297901">
  <ele>1583.0</ele>
  <time>2026-08-28T17:51:35Z</time>
  <course>198.42</course>
  <speed>1.3008074415531299</speed>
  <fix>3d</fix>
</trkpt>
<trkpt lat="40.0713356" lon="-105.2297898">
  <ele>1583.0</ele>
  <time>2026-08-28T17:51:35Z</time>
  <course>184.46</course>
  <speed>1.51</speed>
  <fix>3d</fix>
</trkpt>
<trkpt lat="40.0713316" lon="-105.2297906">
  <ele>1583.0</ele>
  <time>2026-08-28T17:51:35Z</time>
  <course>206.16</course>
  <speed>1.2042009799032718</speed>
  <fix>3d</fix>
</trkpt>
<trkpt lat="40.071333" lon="-105.2297904">
  <ele>1583.0</ele>
  <time>2026-08-28T17:51:35Z</time>
  <course>196.84</course>
  <speed>1.34</speed>
  <fix>3d</fix>
</trkpt>
<trkpt lat="40.0713306" lon="-105.2297914">
  <ele>1583.0</ele>
  <time>2026-08-28T17:51:35Z</time>
  <course>213.88</course>
  <speed>1.1013627921806692</speed>
  <fix>3d</fix>
</trkpt>
<trkpt lat="40.071333" lon="-105.2297904">
  <ele>1583.0</ele>
  <time>2026-08-28T17:51:35Z</time>
  <course>196.84</course>
  <speed>1.34</speed>
  <fix>3d</fix>
</trkpt>
<trkpt lat="40.0713299" lon="-105.2297922">
  <ele>1583.01</ele>
  <time>2026-08-28T17:51:35Z</time>
  <course>221.03</course>
  <speed>1.015332457867865</speed>
  <fix>3d</fix>
</trkpt>
<trkpt lat="40.071331" lon="-105.2297916">
  <ele>1583.0</ele>
  <time>2026-08-28T17:51:35Z</time>
  <course>211.52</course>
  <speed>1.16</speed>
  <fix>3d</fix>
</trkpt>
<trkpt lat="40.0713293" lon="-105.229793">
  <ele>1583.01</ele>
  <time>2026-08-28T17:51:35Z</time>
  <course>227.62</course>
  <speed>0.9269843580125827</speed>
  <fix>3d</fix>
</trkpt>
<trkpt lat="40.071331" lon="-105.2297916">
  <ele>1583.0</ele>
  <time>2026-08-28T17:51:35Z</time>
  <course>211.52</course>
  <speed>1.16</speed>
  <fix>3d</fix>
</trkpt>
<trkpt lat="40.0713288" lon="-105.2297939">
  <ele>1583.01</ele>
  <time>2026-08-28T17:51:35Z</time>
  <course>233.39</course>
  <speed>0.8300602387778854</speed>
  <fix>3d</fix>
</trkpt>
<trkpt lat="40.071331" lon="-105.2297916">
  <ele>1583.0</ele>
  <time>2026-08-28T17:51:35Z</time>
  <course>211.52</course>
  <speed>1.16</speed>
  <fix>3d</fix>
</trkpt>
<trkpt lat="40.0713284" lon="-105.2297947">
  <ele>1583.01</ele>
  <time>2026-08-28T17:51:35Z</time>
  <course>237.76</course>
  <speed>0.7271863585079137</speed>
  <fix>3d</fix>
</trkpt>
<trkpt lat="40.0713295" lon="-105.2297931">
  <ele>1583.0</ele>
  <time>2026-08-28T17:51:35Z</time>
  <course>225.17</course>
  <speed>0.98</speed>
  <fix>3d</fix>
</trkpt>
<trkpt lat="40.0713281" lon="-105.2297954">
  <ele>1583.01</ele>
  <time>2026-08-28T17:51:35Z</time>
  <course>240.9</course>
  <speed>0.6217716622683925</speed>
  <fix>3d</fix>
</trkpt>
<trkpt lat="40.0713295" lon="-105.2297931">
  <ele>1583.0</ele>
  <time>2026-08-28T17:51:35Z</time>
  <course>225.17</course>
  <speed>0.98</speed>
  <fix>3d</fix>
</trkpt>
<trkpt lat="40.0713278" lon="-105.2297961">
  <ele>1583.0</ele>
  <time>2026-08-28T17:51:35Z</time>
  <course>242.94</course>
  <speed>0.5189412298131648</speed>
  <fix>3d</fix>
</trkpt>
<trkpt lat="40.0713284" lon="-105.2297947">
  <ele>1583.0</ele>
  <time>2026-08-28T17:51:35Z</time>
  <course>235.22</course>
  <speed>0.78</speed>
  <fix>3d</fix>
</trkpt>
<trkpt lat="40.0713277" lon="-105.2297966">
  <ele>1583.0</ele>
  <time>2026-08-28T17:51:35Z</time>
  <course>244.07</course>
  <speed>0.3992492955535426</speed>
  <fix>3d</fix>
</trkpt>
<trkpt lat="40.0713284" lon="-105.2297947">
  <ele>1583.0</ele>
  <time>2026-08-28T17:51:35Z</time>
  <course>235.22</course>
  <speed>0.78</speed>
  <fix>3d</fix>
</trkpt>
<trkpt lat="40.0713275" lon="-105.229797">
  <ele>1583.01</ele>
  <time>2026-08-28T17:51:35Z</time>
  <course>244.48</course>
  <speed>0.2879236009777594</speed>
  <fix>3d</fix>
</trkpt>
<trkpt lat="40.0713278" lon="-105.229796">
  <ele>1583.0</ele>
  <time>2026-08-28T17:51:35Z</time>
  <course>240.76</course>
  <speed>0.56</speed>
  <fix>3d</fix>
</trkpt>
<trkpt lat="40.0713274" lon="-105.2297973">
  <ele>1583.01</ele>
  <time>2026-08-28T17:51:35Z</time>
  <course>244.52</course>
  <speed>0.1676305461424021</speed>
  <fix>3d</fix>
</trkpt>
<trkpt lat="40.0713278" lon="-105.229796">
  <ele>1583.0</ele>
  <time>2026-08-28T17:51:35Z</time>
  <course>240.76</course>
  <speed>0.56</speed>
  <fix>3d</fix>
</trkpt>
<trkpt lat="40.0713274" lon="-105.2297974">
  <ele>1583.01</ele>
  <time>2026-08-28T17:51:35Z</time>
  <course>244.53</course>
  <speed>0.06</speed>
  <fix>3d</fix>
</trkpt>
<trkpt lat="40.0713274" lon="-105.229797">
  <ele>1583.0</ele>
  <time>2026-08-28T17:51:35Z</time>
  <course>242.82</course>
  <speed>0.33</speed>
  <fix>3d</fix>
</trkpt>
<trkpt lat="40.0713274" lon="-105.2297975">
  <ele>1583.01</ele>
  <time>2026-08-28T17:51:35Z</time>
  <course>244.53</course>
  <speed>0.0316227766016838</speed>
  <fix>3d</fix>
</trkpt>
<trkpt lat="40.0713273" lon="-105.2297975">
  <ele>1583.0</ele>
  <time>2026-08-28T17:51:35Z</time>
  <course>243.15</course>
  <speed>0.13</speed>
  <fix>3d</fix>
</trkpt>
<trkpt lat="40.0713274" lon="-105.2297975">
  <ele>1583.0</ele>
  <time>2026-08-28T17:51:35Z</time>
  <course>244.52</course>
  <speed>0.0316227766016838</speed>
  <fix>3d</fix>
</trkpt>
<trkpt lat="40.0713273" lon="-105.2297975">
  <ele>1583.0</ele>
  <time>2026-08-28T17:51:35Z</time>
  <course>243.15</course>
  <speed>0.13</speed>
  <fix>3d</fix>
</trkpt>
<trkpt lat="40.0713274" lon="-105.2297976">
  <ele>1583.0</ele>
  <time>2026-08-28T17:51:35Z</time>
  <course>244.51</course>
  <speed>0.0316227766016838</speed>
  <fix>3d</fix>
</trkpt>
<trkpt lat="40.0713272" lon="-105.2297977">
  <ele>1583.0</ele>
  <time>2026-08-28T17:51:35Z</time>
  <course>243.16</course>
  <speed>0.06</speed>
  <fix>3d</fix>
</trkpt>
<trkpt lat="40.0713274" lon="-105.2297976">
  <ele>1583.0</ele>
  <time>2026-08-28T17:51:35Z</time>
  <course>244.5</course>
  <speed>0.0316227766016838</speed>
  <fix>3d</fix>
</trkpt>
<trkpt lat="40.0713272" lon="-105.2297977">
  <ele>1583.0</ele>
  <time>2026-08-28T17:51:35Z</time>
  <course>243.16</course>
  <speed>0.06</speed>
  <fix>3d</fix>
</trkpt>
<trkpt lat="40.0713273" lon="-105.2297977">
  <ele>1583.0</ele>
  <time>2026-08-28T17:51:35Z</time>
  <course>244.49</course>
  <speed>0.0316227766016838</speed>
  <fix>3d</fix>
</trkpt>
<trkpt lat="40.0713272" lon="-105.2297978">
  <ele>1583.0</ele>
  <time>2026-08-28T17:51:35Z</time>
  <course>243.16</course>
  <speed>0.05</speed>
  <fix>3d</fix>
</trkpt>
<trkpt lat="40.0713273" lon="-105.2297978">
  <ele>1583.0</ele>
  <time>2026-08-28T17:51:35Z</time>
  <course>244.49</course>
  <speed>0.0316227766016838</speed>
  <fix>3d</fix>
</trkpt>
<trkpt lat="40.0713272" lon="-105.2297978">
  <ele>1583.0</ele>
  <time>2026-08-28T17:51:35Z</time>
  <course>243.16</course>
  <speed>0.05</speed>
  <fix>3d</fix>
</trkpt>
<trkpt lat="40.0713273" lon="-105.2297978">
  <ele>1583.0</ele>
  <time>2026-08-28T17:51:35Z</time>
  <course>244.48</course>
  <speed>0.0316227766016838</speed>
  <fix>3d</fix>
</trkpt>
<trkpt lat="40.0713271" lon="-105.2297979">
  <ele>1583.0</ele>
  <time>2026-08-28T17:51:35Z</time>
  <course>243.16</course>
  <speed>0.05</speed>
  <fix>3d</fix>
</trkpt>
<trkpt lat="40.0713273" lon="-105.2297979">
  <ele>1583.0</ele>
  <time>2026-08-28T17:51:35Z</time>
  <course>244.48</course>
  <speed>0.0316227766016838</speed>
  <fix>3d</fix>
</trkpt>
<trkpt lat="40.0713271" lon="-105.2297979">
  <ele>1583.0</ele>
  <time>2026-08-28T17:51:35Z</time>
  <course>243.16</course>
  <speed>0.05</speed>
  <fix>3d</fix>
</trkpt>
<trkpt lat="40.0713273" lon="-105.2297979">
  <ele>1583.0</ele>
  <time>2026-08-28T17:51:35Z</time>
  <course>244.47</course>
  <speed>0.03605551275463989</speed>
  <fix>3d</fix>
</trkpt>
<trkpt lat="40.0713271" lon="-105.229798">
  <ele>1583.0</ele>
  <time>2026-08-28T17:51:35Z</time>
  <course>243.16</course>
  <speed>0.04</speed>
  <fix>3d</fix>
</trkpt>
<trkpt lat="40.0713273" lon="-105.229798">
  <ele>1583.01</ele>
  <time>2026-08-28T17:51:35Z</time>
  <course>244.47</course>
  <speed>0.03605551275463989</speed>
  <fix>3d</fix>
</trkpt>
<trkpt lat="40.0713271" lon="-105.229798">
  <ele>1583.0</ele>
  <time>2026-08-28T17:51:35Z</time>
  <course>243.16</course>
  <speed>0.04</speed>
  <fix>3d</fix>
</trkpt>
<trkpt lat="40.0713273" lon="-105.2297981">
  <ele>1583.01</ele>
  <time>2026-08-28T17:51:35Z</time>
  <course>244.47</course>
  <speed>0.03605551275463989</speed>
  <fix>3d</fix>
</trkpt>
<trkpt lat="40.071327" lon="-105.2297981">
  <ele>1583.0</ele>
  <time>2026-08-28T17:51:35Z</time>
  <course>243.16</course>
  <speed>0.04</speed>
  <fix>3d</fix>
</trkpt>
<trkpt lat="40.0713273" lon="-105.2297981">
  <ele>1583.01</ele>
  <time>2026-08-28T17:51:35Z</time>
  <course>244.47</course>
  <speed>0.044721359549995794</speed>
  <fix>3d</fix>
</trkpt>
<trkpt lat="40.071327" lon="-105.2297981">
  <ele>1583.0</ele>
  <time>2026-08-28T17:51:35Z</time>
  <course>243.16</course>
  <speed>0.04</speed>
  <fix>3d</fix>
</trkpt>
<trkpt lat="40.0713273" lon="-105.2297982">
  <ele>1583.01</ele>
  <time>2026-08-28T17:51:35Z</time>
  <course>244.47</course>
  <speed>0.044721359549995794</speed>
  <fix>3d</fix>
</trkpt>
<trkpt lat="40.0713269" lon="-105.2297982">
  <ele>1583.0</ele>
  <time>2026-08-28T17:51:35Z</time>
  <course>243.16</course>
  <speed>0.03</speed>
  <fix>3d</fix>
</trkpt>
<trkpt lat="40.0713273" lon="-105.2297982">
  <ele>1583.01</ele>
  <time>2026-08-28T17:51:35Z</time>
  <course>244.47</course>
  <speed>0.044721359549995794</speed>
  <fix>3d</fix>
</trkpt>
<trkpt lat="40.0713269" lon="-105.2297982">
  <ele>1583.0</ele>
  <time>2026-08-28T17:51:35Z</time>
  <course>243.16</course>
  <speed>0.03</speed>
  <fix>3d</fix>
</trkpt>
<trkpt lat="40.0713273" lon="-105.2297983">
  <ele>1583.01</ele>
  <time>2026-08-28T17:51:35Z</time>
  <course>244.47</course>
  <speed>0.044721359549995794</speed>
  <fix>3d</fix>
</trkpt>
<trkpt lat="40.0713269" lon="-105.2297982">
  <ele>1583.0</ele>
  <time>2026-08-28T17:51:35Z</time>
  <course>243.16</course>
  <speed>0.03</speed>
  <fix>3d</fix>
</trkpt>
<trkpt lat="40.0713272" lon="-105.2297983">
  <ele>1583.01</ele>
  <time>2026-08-28T17:51:35Z</time>
  <course>244.47</course>
  <speed>0.044721359549995794</speed>
  <fix>3d</fix>
</trkpt>
<trkpt lat="40.0713269" lon="-105.2297983">
  <ele>1583.0</ele>
  <time>2026-08-28T17:51:35Z</time>
  <course>243.16</course>
  <speed>0.03</speed>
  <fix>3d</fix>
</trkpt>
<trkpt lat="40.0713272" lon="-105.2297984">
  <ele>1583.02</ele>
  <time>2026-08-28T17:51:35Z</time>
  <course>244.47</course>
  <speed>0.044721359549995794</speed>
  <fix>3d</fix>
</trkpt>
<trkpt lat="40.0713269" lon="-105.2297983">
  <ele>1583.0</ele>
  <time>2026-08-28T17:51:35Z</time>
  <course>243.16</course>
  <speed>0.03</speed>
  <fix>3d</fix>
</trkpt>
<trkpt lat="40.0713272" lon="-105.2297984">
  <ele>1583.02</ele>
  <time>2026-08-28T17:51:35Z</time>
  <course>244.47</course>
  <speed>0.0412310562561766</speed>
  <fix>3d</fix>
</trkpt>
<trkpt lat="40.0713269" lon="-105.2297983">
  <ele>1583.0</ele>
  <time>2026-08-28T17:51:35Z</time>
  <course>243.16</course>
  <speed>0.03</speed>
  <fix>3d</fix>
</trkpt>
<trkpt lat="40.0713272" lon="-105.2297985">
  <ele>1583.02</ele>
  <time>2026-08-28T17:51:35Z</time>
  <course>244.47</course>
  <speed>0.0412310562561766</speed>
  <fix>3d</fix>
</trkpt>
<trkpt lat="40.0713269" lon="-105.2297983">
  <ele>1583.0</ele>
  <time>2026-08-28T17:51:35Z</time>
  <course>243.16</course>
  <speed>0.03</speed>
  <fix>3d</fix>
</trkpt>
<trkpt lat="40.0713272" lon="-105.2297985">
  <ele>1583.02</ele>
  <time>2026-08-28T17:51:35Z</time>
  <course>244.47</course>
  <speed>0.0412310562561766</speed>
  <fix>3d</fix>
</trkpt>
<trkpt lat="40.0713269" lon="-105.2297984">
  <ele>1583.0</ele>
  <time>2026-08-28T17:51:35Z</time>
  <course>243.16</course>
  <speed>0.02</speed>
  <fix>3d</fix>
</trkpt>
<trkpt lat="40.0713272" lon="-105.2297985">
  <ele>1583.02</ele>
  <time>2026-08-28T17:51:35Z</time>
  <course>244.47</course>
  <speed>0.0412310562561766</speed>
  <fix>3d</fix>
</trkpt>
<trkpt lat="40.0713268" lon="-105.2297985">
  <ele>1583.0</ele>
  <time>2026-08-28T17:51:35Z</time>
  <course>243.16</course>
  <speed>0.02</speed>
  <fix>3d</fix>
</trkpt>
<trkpt lat="40.0713272" lon="-105.2297986">
  <ele>1583.02</ele>
  <time>2026-08-28T17:51:35Z</time>
  <course>244.47</course>
  <speed>0.0412310562561766</speed>
  <fix>3d</fix>
</trkpt>
<trkpt lat="40.0713268" lon="-105.2297985">
  <ele>1583.0</ele>
  <time>2026-08-28T17:51:35Z</time>
  <course>243.16</course>
  <speed>0.02</speed>
  <fix>3d</fix>
</trkpt>
<trkpt lat="40.0713271" lon="-105.2297986">
  <ele>1583.02</ele>
  <time>2026-08-28T17:51:35Z</time>
  <course>244.47</course>
  <speed>0.0412310562561766</speed>
  <fix>3d</fix>
</trkpt>
<trkpt lat="40.0713268" lon="-105.2297985">
  <ele>1583.0</ele>
  <time>2026-08-28T17:51:35Z</time>
  <course>243.16</course>
  <speed>0.02</speed>
  <fix>3d</fix>
</trkpt>
<trkpt lat="40.0713271" lon="-105.2297986">
  <ele>1583.02</ele>
  <time>2026-08-28T17:51:35Z</time>
  <course>244.47</course>
  <speed>0.0412310562561766</speed>
  <fix>3d</fix>
</trkpt>
<trkpt lat="40.0713268" lon="-105.2297985">
  <ele>1583.0</ele>
  <time>2026-08-28T17:51:35Z</time>
  <course>243.16</course>
  <speed>0.02</speed>
  <fix>3d</fix>
</trkpt>
<trkpt lat="40.0713271" lon="-105.2297987">
  <ele>1583.02</ele>
  <time>2026-08-28T17:51:35Z</time>
  <course>244.47</course>
  <speed>0.0412310562561766</speed>
  <fix>3d</fix>
</trkpt>
<trkpt lat="40.0713268" lon="-105.2297986">
  <ele>1583.0</ele>
  <time>2026-08-28T17:51:35Z</time>
  <course>243.16</course>
  <speed>0.02</speed>
  <fix>3d</fix>
</trkpt>
<trkpt lat="40.071327" lon="-105.2297987">
  <ele>1583.02</ele>
  <time>2026-08-28T17:51:35Z</time>
  <course>244.47</course>
  <speed>0.0316227766016838</speed>
  <fix>3d</fix>
</trkpt>
<trkpt lat="40.0713268" lon="-105.2297986">
  <ele>1583.0</ele>
  <time>2026-08-28T17:51:35Z</time>
  <course>243.16</course>
  <speed>0.02</speed>
  <fix>3d</fix>
</trkpt>
<trkpt lat="40.071327" lon="-105.2297987">
  <ele>1583.02</ele>
  <time>2026-08-28T17:51:35Z</time>
  <course>244.47</course>
  <speed>0.0316227766016838</speed>
  <fix>3d</fix>
</trkpt>
<trkpt lat="40.0713268" lon="-105.2297986">
  <ele>1583.0</ele>
  <time>2026-08-28T17:51:35Z</time>
  <course>243.16</course>
  <speed>0.01</speed>
  <fix>3d</fix>
</trkpt>
<trkpt lat="40.071327" lon="-105.2297988">
  <ele>1583.02</ele>
  <time>2026-08-28T17:51:35Z</time>
  <course>244.47</course>
  <speed>0.0316227766016838</speed>
  <fix>3d</fix>
</trkpt>
<trkpt lat="40.0713268" lon="-105.2297986">
  <ele>1583.0</ele>
  <time>2026-08-28T17:51:35Z</time>
  <course>243.16</course>
  <speed>0.01</speed>
  <fix>3d</fix>
</trkpt>
<trkpt lat="40.071327" lon="-105.2297988">
  <ele>1583.02</ele>
  <time>2026-08-28T17:51:35Z</time>
  <course>244.47</course>
  <speed>0.0316227766016838</speed>
  <fix>3d</fix>
</trkpt>
<trkpt lat="40.0713268" lon="-105.2297986">
  <ele>1583.0</ele>
  <time>2026-08-28T17:51:35Z</time>
  <course>243.16</course>
  <speed>0.01</speed>
  <fix>3d</fix>
</trkpt>
<trkpt lat="40.071327" lon="-105.2297988">
  <ele>1583.02</ele>
  <time>2026-08-28T17:51:35Z</time>
  <course>244.47</course>
  <speed>0.0316227766016838</speed>
  <fix>3d</fix>
</trkpt>
<trkpt lat="40.0713268" lon="-105.2297986">
  <ele>1583.0</ele>
  <time>2026-08-28T17:51:35Z</time>
  <course>243.16</course>
  <speed>0.01</speed>
  <fix>3d</fix>
</trkpt>
<trkpt lat="40.071327" lon="-105.2297988">
  <ele>1583.02</ele>
  <time>2026-08-28T17:51:35Z</time>
  <course>244.47</course>
  <speed>0.0316227766016838</speed>
  <fix>3d</fix>
</trkpt>
<trkpt lat="40.0713268" lon="-105.2297986">
  <ele>1583.0</ele>
  <time>2026-08-28T17:51:35Z</time>
  <course>243.16</course>
  <speed>0.01</speed>
  <fix>3d</fix>
</trkpt>
<trkpt lat="40.071327" lon="-105.2297988">
  <ele>1583.03</ele>
  <time>2026-08-28T17:51:35Z</time>
  <course>244.47</course>
  <speed>0.0316227766016838</speed>
  <fix>3d</fix>
</trkpt>
<trkpt lat="40.0713268" lon="-105.2297986">
  <ele>1583.0</ele>
  <time>2026-08-28T17:51:35Z</time>
  <course>243.16</course>
  <speed>0.01</speed>
  <fix>3d</fix>
</trkpt>
<trkpt lat="40.071327" lon="-105.2297989">
  <ele>1583.03</ele>
  <time>2026-08-28T17:51:35Z</time>
  <course>244.47</course>
  <speed>0.0316227766016838</speed>
  <fix>3d</fix>
</trkpt>
<trkpt lat="40.0713268" lon="-105.2297986">
  <ele>1583.0</ele>
  <time>2026-08-28T17:51:35Z</time>
  <course>243.16</course>
  <speed>0.01</speed>
  <fix>3d</fix>
</trkpt>
<trkpt lat="40.071327" lon="-105.2297989">
  <ele>1583.03</ele>
  <time>2026-08-28T17:51:35Z</time>
  <course>244.47</course>
  <speed>0.0316227766016838</speed>
  <fix>3d</fix>
</trkpt>
<trkpt lat="40.0713268" lon="-105.2297986">
  <ele>1583.0</ele>
  <time>2026-08-28T17:51:35Z</time>
  <course>243.16</course>
  <speed>0.01</speed>
  <fix>3d</fix>
</trkpt>
<trkpt lat="40.071327" lon="-105.2297989">
  <ele>1583.03</ele>
  <time>2026-08-28T17:51:35Z</time>
  <course>244.47</course>
  <speed>0.0316227766016838</speed>
  <fix>3d</fix>
</trkpt>
<trkpt lat="40.0713268" lon="-105.2297986">
  <ele>1583.0</ele>
  <time>2026-08-28T17:51:35Z</time>
  <course>243.16</course>
  <speed>0.01</speed>
  <fix>3d</fix>
</trkpt>
<trkpt lat="40.0713269" lon="-105.2297989">
  <ele>1583.03</ele>
  <time>2026-08-28T17:51:35Z</time>
  <course>244.46</course>
  <speed>0.0316227766016838</speed>
  <fix>3d</fix>
</trkpt>
<trkpt lat="40.0713268" lon="-105.2297987">
  <ele>1583.0</ele>
  <time>2026-08-28T17:51:35Z</time>
  <course>243.16</course>
  <speed>0.01</speed>
  <fix>3d</fix>
</trkpt>
<trkpt lat="40.0713269" lon="-105.2297989">
  <ele>1583.03</ele>
  <time>2026-08-28T17:51:35Z</time>
  <course>244.46</course>
  <speed>0.0316227766016838</speed>
  <fix>3d</fix>
</trkpt>
<trkpt lat="40.0713268" lon="-105.2297987">
  <ele>1583.0</ele>
  <time>2026-08-28T17:51:35Z</time>
  <course>243.16</course>
  <speed>0.01</speed>
  <fix>3d</fix>
</trkpt>
<trkpt lat="40.0713269" lon="-105.2297989">
  <ele>1583.03</ele>
  <time>2026-08-28T17:51:35Z</time>
  <course>244.46</course>
  <speed>0.022360679774997897</speed>
  <fix>3d</fix>
</trkpt>
<trkpt lat="40.0713268" lon="-105.2297988">
  <ele>1583.0</ele>
  <time>2026-08-28T17:51:35Z</time>
  <course>243.16</course>
  <speed>0.01</speed>
  <fix>3d</fix>
</trkpt>
<trkpt lat="40.0713269" lon="-105.2297989">
  <ele>1583.03</ele>
  <time>2026-08-28T17:51:35Z</time>
  <course>244.46</course>
  <speed>0.022360679774997897</speed>
  <fix>3d</fix>
</trkpt>
<trkpt lat="40.0713268" lon="-105.2297988">
  <ele>1583.0</ele>
  <time>2026-08-28T17:51:35Z</time>
  <course>243.16</course>
  <speed>0.01</speed>
  <fix>3d</fix>
</trkpt>
<trkpt lat="40.0713269" lon="-105.2297989">
  <ele>1583.04</ele>
  <time>2026-08-28T17:51:35Z</time>
  <course>244.46</course>
  <speed>0.022360679774997897</speed>
  <fix>3d</fix>
</trkpt>
<trkpt lat="40.0713268" lon="-105.2297988">
  <ele>1583.0</ele>
  <time>2026-08-28T17:51:35Z</time>
  <course>243.15</course>
  <speed>0.01</speed>
  <fix>3d</fix>
</trkpt>
<trkpt lat="40.0713269" lon="-105.2297989">
  <ele>1583.04</ele>
  <time>2026-08-28T17:51:35Z</time>
  <course>244.45</course>
  <speed>0.022360679774997897</speed>
  <fix>3d</fix>
</trkpt>
<trkpt lat="40.0713268" lon="-105.2297988">
  <ele>1583.0</ele>
  <time>2026-08-28T17:51:35Z</time>
  <course>243.15</course>
  <speed>0.0</speed>
  <fix>3d</fix>
</trkpt>
<trkpt lat="40.0713269" lon="-105.2297989">
  <ele>1583.04</ele>
  <time>2026-08-28T17:51:35Z</time>
  <course>244.45</course>
  <speed>0.022360679774997897</speed>
  <fix>3d</fix>
</trkpt>
<trkpt lat="40.0713268" lon="-105.2297988">
  <ele>1583.0</ele>
  <time>2026-08-28T17:51:35Z</time>
  <course>243.15</course>
  <speed>0.0</speed>
  <fix>3d</fix>
</trkpt>
<trkpt lat="40.0713269" lon="-105.229799">
  <ele>1583.05</ele>
  <time>2026-08-28T17:51:35Z</time>
  <course>244.45</course>
  <speed>0.022360679774997897</speed>
  <fix>3d</fix>
</trkpt>
<trkpt lat="40.0713268" lon="-105.2297988">
  <ele>1583.0</ele>
  <time>2026-08-28T17:51:35Z</time>
  <course>243.15</course>
  <speed>0.0</speed>
  <fix>3d</fix>
</trkpt>
<trkpt lat="40.0713269" lon="-105.229799">
  <ele>1583.05</ele>
  <time>2026-08-28T17:51:35Z</time>
  <course>244.45</course>
  <speed>0.022360679774997897</speed>
  <fix>3d</fix>
</trkpt>
<trkpt lat="40.0713268" lon="-105.2297988">
  <ele>1583.0</ele>
  <time>2026-08-28T17:51:35Z</time>
  <course>243.15</course>
  <speed>0.0</speed>
  <fix>3d</fix>
</trkpt>
<trkpt lat="40.0713269" lon="-105.229799">
  <ele>1583.05</ele>
  <time>2026-08-28T17:51:35Z</time>
  <course>244.44</course>
  <speed>0.022360679774997897</speed>
  <fix>3d</fix>
</trkpt>
<trkpt lat="40.0713268" lon="-105.2297988">
  <ele>1583.0</ele>
  <time>2026-08-28T17:51:35Z</time>
  <course>243.15</course>
  <speed>0.0</speed>
  <fix>3d</fix>
</trkpt>
<trkpt lat="40.0713269" lon="-105.229799">
  <ele>1583.05</ele>
  <time>2026-08-28T17:51:35Z</time>
  <course>244.44</course>
  <speed>0.022360679774997897</speed>
  <fix>3d</fix>
</trkpt>
<trkpt lat="40.0713268" lon="-105.2297988">
  <ele>1583.0</ele>
  <time>2026-08-28T17:51:35Z</time>
  <course>243.15</course>
  <speed>0.0</speed>
  <fix>3d</fix>
</trkpt>
<trkpt lat="40.0713269" lon="-105.229799">
  <ele>1583.06</ele>
  <time>2026-08-28T17:51:35Z</time>
  <course>244.44</course>
  <speed>0.022360679774997897</speed>
  <fix>3d</fix>
</trkpt>
<trkpt lat="40.0713268" lon="-105.2297988">
  <ele>1583.0</ele>
  <time>2026-08-28T17:51:35Z</time>
  <course>243.15</course>
  <speed>0.0</speed>
  <fix>3d</fix>
</trkpt>
<trkpt lat="40.0713269" lon="-105.229799">
  <ele>1583.06</ele>
  <time>2026-08-28T17:51:35Z</time>
  <course>244.44</course>
  <speed>0.01414213562373095</speed>
  <fix>3d</fix>
</trkpt>
<trkpt lat="40.0713268" lon="-105.2297988">
  <ele>1583.0</ele>
  <time>2026-08-28T17:51:35Z</time>
  <course>243.15</course>
  <speed>0.0</speed>
  <fix>3d</fix>
</trkpt>
<trkpt lat="40.0713269" lon="-105.229799">
  <ele>1583.06</ele>
  <time>2026-08-28T17:51:35Z</time>
  <course>244.43</course>
  <speed>0.01414213562373095</speed>
  <fix>3d</fix>
</trkpt>
<trkpt lat="40.0713268" lon="-105.2297988">
  <ele>1583.0</ele>
  <time>2026-08-28T17:51:35Z</time>
  <course>243.15</course>
  <speed>0.0</speed>
  <fix>3d</fix>
</trkpt>
<trkpt lat="40.0713269" lon="-105.229799">
  <ele>1583.06</ele>
  <time>2026-08-28T17:51:35Z</time>
  <course>244.43</course>
  <speed>0.01414213562373095</speed>
  <fix>3d</fix>
</trkpt>
<trkpt lat="40.0713268" lon="-105.2297988">
  <ele>1583.0</ele>
  <time>2026-08-28T17:51:35Z</time>
  <course>243.15</course>
  <speed>0.0</speed>
  <fix>3d</fix>
</trkpt>
<trkpt lat="40.0713269" lon="-105.229799">
  <ele>1583.06</ele>
  <time>2026-08-28T17:51:35Z</time>
  <course>244.43</course>
  <speed>0.01414213562373095</speed>
  <fix>3d</fix>
</trkpt>
<trkpt lat="40.0713268" lon="-105.2297988">
  <ele>1583.0</ele>
  <time>2026-08-28T17:51:35Z</time>
  <course>243.15</course>
  <speed>0.0</speed>
  <fix>3d</fix>
</trkpt>
<trkpt lat="40.0713269" lon="-105.229799">
  <ele>1583.06</ele>
  <time>2026-08-28T17:51:35Z</time>
  <course>244.43</course>
  <speed>0.01414213562373095</speed>
  <fix>3d</fix>
</trkpt>
<trkpt lat="40.0713268" lon="-105.2297988">
  <ele>1583.0</ele>
  <time>2026-08-28T17:51:35Z</time>
  <course>243.15</course>
  <speed>0.0</speed>
  <fix>3d</fix>
</trkpt>
<trkpt lat="40.0713269" lon="-105.229799">
  <ele>1583.06</ele>
  <time>2026-08-28T17:51:35Z</time>
  <course>244.42</course>
  <speed>0.01414213562373095</speed>
  <fix>3d</fix>
</trkpt>
<trkpt lat="40.0713268" lon="-105.2297988">
  <ele>1583.0</ele>
  <time>2026-08-28T17:51:35Z</time>
  <course>243.14</course>
  <speed>0.0</speed>
  <fix>3d</fix>
</trkpt>
<trkpt lat="40.0713269" lon="-105.2297989">
  <ele>1583.06</ele>
  <time>2026-08-28T17:51:35Z</time>
  <course>244.42</course>
  <speed>0.01414213562373095</speed>
  <fix>3d</fix>
</trkpt>
<trkpt lat="40.0713268" lon="-105.2297988">
  <ele>1583.0</ele>
  <time>2026-08-28T17:51:35Z</time>
  <course>243.14</course>
  <speed>0.0</speed>
  <fix>3d</fix>
</trkpt>
<trkpt lat="40.0713269" lon="-105.2297989">
  <ele>1583.06</ele>
  <time>2026-08-28T17:51:35Z</time>
  <course>244.42</course>
  <speed>0.01414213562373095</speed>
  <fix>3d</fix>
</trkpt>
<trkpt lat="40.0713268" lon="-105.2297988">
  <ele>1583.0</ele>
  <time>2026-08-28T17:51:35Z</time>
  <course>243.14</course>
  <speed>0.0</speed>
  <fix>3d</fix>
</trkpt>
<trkpt lat="40.0713269" lon="-105.2297989">
  <ele>1583.05</ele>
  <time>2026-08-28T17:51:35Z</time>
  <course>244.42</course>
  <speed>0.01414213562373095</speed>
  <fix>3d</fix>
</trkpt>
<trkpt lat="40.0713268" lon="-105.2297988">
  <ele>1583.0</ele>
  <time>2026-08-28T17:51:35Z</time>
  <course>243.14</course>
  <speed>0.0</speed>
  <fix>3d</fix>
</trkpt>
<trkpt lat="40.0713269" lon="-105.2297989">
  <ele>1583.05</ele>
  <time>2026-08-28T17:51:35Z</time>
  <course>244.41</course>
  <speed>0.01414213562373095</speed>
  <fix>3d</fix>
</trkpt>
<trkpt lat="40.0713268" lon="-105.2297988">
  <ele>1583.0</ele>
  <time>2026-08-28T17:51:35Z</time>
  <course>243.14</course>
  <speed>0.0</speed>
  <fix>3d</fix>
</trkpt>
<trkpt lat="40.0713269" lon="-105.2297989">
  <ele>1583.05</ele>
  <time>2026-08-28T17:51:35Z</time>
  <course>244.41</course>
  <speed>0.01</speed>
  <fix>3d</fix>
</trkpt>
<trkpt lat="40.0713268" lon="-105.2297988">
  <ele>1583.0</ele>
  <time>2026-08-28T17:51:35Z</time>
  <course>243.14</course>
  <speed>0.0</speed>
  <fix>3d</fix>
</trkpt>
<trkpt lat="40.0713269" lon="-105.2297989">
  <ele>1583.05</ele>
  <time>2026-08-28T17:51:35Z</time>
  <course>244.41</course>
  <speed>0.01</speed>
  <fix>3d</fix>
</trkpt>
<trkpt lat="40.0713268" lon="-105.2297988">
  <ele>1583.0</ele>
  <time>2026-08-28T17:51:35Z</time>
  <course>243.14</course>
  <speed>0.0</speed>
  <fix>3d</fix>
</trkpt>
<trkpt lat="40.0713269" lon="-105.2297989">
  <ele>1583.05</ele>
  <time>2026-08-28T17:51:35Z</time>
  <course>244.41</course>
  <speed>0.01</speed>
  <fix>3d</fix>
</trkpt>
<trkpt lat="40.0713268" lon="-105.2297988">
  <ele>1583.0</ele>
  <time>2026-08-28T17:51:35Z</time>
  <course>243.14</course>
  <speed>0.0</speed>
  <fix>3d</fix>
</trkpt>
<trkpt lat="40.0713269" lon="-105.2297989">
  <ele>1583.05</ele>
  <time>2026-08-28T17:51:35Z</time>
  <course>244.41</course>
  <speed>0.01</speed>
  <fix>3d</fix>
</trkpt>
<trkpt lat="40.0713268" lon="-105.2297988">
  <ele>1583.0</ele>
  <time>2026-08-28T17:51:35Z</time>
  <course>243.14</course>
  <speed>0.0</speed>
  <fix>3d</fix>
</trkpt>
<trkpt lat="40.0713269" lon="-105.2297989">
  <ele>1583.05</ele>
  <time>2026-08-28T17:51:35Z</time>
  <course>244.4</course>
  <speed>0.01</speed>
  <fix>3d</fix>
</trkpt>
<trkpt lat="40.0713268" lon="-105.2297988">
  <ele>1583.0</ele>
  <time>2026-08-28T17:51:35Z</time>
  <course>243.13</course>
  <speed>0.0</speed>
  <fix>3d</fix>
</trkpt>
<trkpt lat="40.0713269" lon="-105.2297989">
  <ele>1583.05</ele>
  <time>2026-08-28T17:51:35Z</time>
  <course>244.4</course>
  <speed>0.01</speed>
  <fix>3d</fix>
</trkpt>
<trkpt lat="40.0713268" lon="-105.2297989">
  <ele>1583.0</ele>
  <time>2026-08-28T17:51:35Z</time>
  <course>243.13</course>
  <speed>0.0</speed>
  <fix>3d</fix>
</trkpt>
<trkpt lat="40.0713269" lon="-105.2297989">
  <ele>1583.05</ele>
  <time>2026-08-28T17:51:35Z</time>
  <course>244.4</course>
  <speed>0.01</speed>
  <fix>3d</fix>
</trkpt>
<trkpt lat="40.0713268" lon="-105.2297989">
  <ele>1583.0</ele>
  <time>2026-08-28T17:51:35Z</time>
  <course>243.13</course>
  <speed>0.0</speed>
  <fix>3d</fix>
</trkpt>
<trkpt lat="40.0713269" lon="-105.2297989">
  <ele>1583.05</ele>
  <time>2026-08-28T17:51:35Z</time>
  <course>244.4</course>
  <speed>0.01</speed>
  <fix>3d</fix>
</trkpt>
<trkpt lat="40.0713267" lon="-105.229799">
  <ele>1583.0</ele>
  <time>2026-08-28T17:51:35Z</time>
  <course>243.13</course>
  <speed>0.0</speed>
  <fix>3d</fix>
</trkpt>
<trkpt lat="40.0713269" lon="-105.2297989">
  <ele>1583.05</ele>
  <time>2026-08-28T17:51:35Z</time>
  <course>244.39</course>
  <speed>0.01</speed>
  <fix>3d</fix>
</trkpt>
<trkpt lat="40.0713267" lon="-105.229799">
  <ele>1583.0</ele>
  <time>2026-08-28T17:51:35Z</time>
  <course>243.13</course>
  <speed>0.0</speed>
  <fix>3d</fix>
</trkpt>
<trkpt lat="40.0713269" lon="-105.2297989">
  <ele>1583.05</ele>
  <time>2026-08-28T17:51:35Z</time>
  <course>244.39</course>
  <speed>0.01</speed>
  <fix>3d</fix>
</trkpt>
<trkpt lat="40.0713267" lon="-105.229799">
  <ele>1583.0</ele>
  <time>2026-08-28T17:51:35Z</time>
  <course>243.12</course>
  <speed>0.0</speed>
  <fix>3d</fix>
</trkpt>
<trkpt lat="40.0713269" lon="-105.2297989">
  <ele>1583.05</ele>
  <time>2026-08-28T17:51:35Z</time>
  <course>244.39</course>
  <speed>0.01</speed>
  <fix>3d</fix>
</trkpt>
<trkpt lat="40.0713267" lon="-105.229799">
  <ele>1583.0</ele>
  <time>2026-08-28T17:51:35Z</time>
  <course>243.12</course>
  <speed>0.0</speed>
  <fix>3d</fix>
</trkpt>
<trkpt lat="40.0713269" lon="-105.2297989">
  <ele>1583.04</ele>
  <time>2026-08-28T17:51:35Z</time>
  <course>244.39</course>
  <speed>0.01</speed>
  <fix>3d</fix>
</trkpt>
<trkpt lat="40.0713267" lon="-105.229799">
  <ele>1583.0</ele>
  <time>2026-08-28T17:51:35Z</time>
  <course>243.12</course>
  <speed>0.0</speed>
  <fix>3d</fix>
</trkpt>
<trkpt lat="40.0713269" lon="-105.2297989">
  <ele>1583.04</ele>
  <time>2026-08-28T17:51:35Z</time>
  <course>244.39</course>
  <speed>0.01</speed>
  <fix>3d</fix>
</trkpt>
<trkpt lat="40.0713267" lon="-105.229799">
  <ele>1583.0</ele>
  <time>2026-08-28T17:51:35Z</time>
  <course>243.12</course>
  <speed>0.0</speed>
  <fix>3d</fix>
</trkpt>
<trkpt lat="40.0713269" lon="-105.2297989">
  <ele>1583.04</ele>
  <time>2026-08-28T17:51:35Z</time>
  <course>244.39</course>
  <speed>0.01</speed>
  <fix>3d</fix>
</trkpt>
<trkpt lat="40.0713267" lon="-105.229799">
  <ele>1583.0</ele>
  <time>2026-08-28T17:51:35Z</time>
  <course>243.11</course>
  <speed>0.0</speed>
  <fix>3d</fix>
</trkpt>
<trkpt lat="40.0713269" lon="-105.2297989">
  <ele>1583.04</ele>
  <time>2026-08-28T17:51:35Z</time>
  <course>244.39</course>
  <speed>0.01</speed>
  <fix>3d</fix>
</trkpt>
<trkpt lat="40.0713267" lon="-105.229799">
  <ele>1583.0</ele>
  <time>2026-08-28T17:51:35Z</time>
  <course>243.11</course>
  <speed>0.0</speed>
  <fix>3d</fix>
</trkpt>
<trkpt lat="40.0713269" lon="-105.2297989">
  <ele>1583.04</ele>
  <time>2026-08-28T17:51:35Z</time>
  <course>244.38</course>
  <speed>0.01</speed>
  <fix>3d</fix>
</trkpt>
<trkpt lat="40.0713267" lon="-105.229799">
  <ele>1583.0</ele>
  <time>2026-08-28T17:51:35Z</time>
  <course>243.11</course>
  <speed>0.0</speed>
  <fix>3d</fix>
</trkpt>
<trkpt lat="40.0713269" lon="-105.2297989">
  <ele>1583.03</ele>
  <time>2026-08-28T17:51:35Z</time>
  <course>244.38</course>
  <speed>0.01</speed>
  <fix>3d</fix>
</trkpt>
<trkpt lat="40.0713267" lon="-105.229799">
  <ele>1583.0</ele>
  <time>2026-08-28T17:51:35Z</time>
  <course>243.11</course>
  <speed>0.0</speed>
  <fix>3d</fix>
</trkpt>
<trkpt lat="40.0713269" lon="-105.2297989">
  <ele>1583.03</ele>
  <time>2026-08-28T17:51:35Z</time>
  <course>244.38</course>
  <speed>0.01</speed>
  <fix>3d</fix>
</trkpt>
<trkpt lat="40.0713267" lon="-105.229799">
  <ele>1583.0</ele>
  <time>2026-08-28T17:51:35Z</time>
  <course>243.1</course>
  <speed>0.0</speed>
  <fix>3d</fix>
</trkpt>
<trkpt lat="40.0713269" lon="-105.2297989">
  <ele>1583.03</ele>
  <time>2026-08-28T17:51:35Z</time>
  <course>244.38</course>
  <speed>0.01</speed>
  <fix>3d</fix>
</trkpt>
<trkpt lat="40.0713267" lon="-105.229799">
  <ele>1583.0</ele>
  <time>2026-08-28T17:51:35Z</time>
  <course>243.1</course>
  <speed>0.0</speed>
  <fix>3d</fix>
</trkpt>
<trkpt lat="40.0713269" lon="-105.2297989">
  <ele>1583.03</ele>
  <time>2026-08-28T17:51:35Z</time>
  <course>244.38</course>
  <speed>0.02</speed>
  <fix>3d</fix>
</trkpt>
<trkpt lat="40.0713267" lon="-105.229799">
  <ele>1583.0</ele>
  <time>2026-08-28T17:51:35Z</time>
  <course>243.1</course>
  <speed>0.0</speed>
  <fix>3d</fix>
</trkpt>
<trkpt lat="40.0713269" lon="-105.2297989">
  <ele>1583.02</ele>
  <time>2026-08-28T17:51:35Z</time>
  <course>244.38</course>
  <speed>0.02</speed>
  <fix>3d</fix>
</trkpt>
<trkpt lat="40.0713267" lon="-105.229799">
  <ele>1583.0</ele>
  <time>2026-08-28T17:51:35Z</time>
  <course>243.09</course>
  <speed>0.0</speed>
  <fix>3d</fix>
</trkpt>
<trkpt lat="40.0713269" lon="-105.2297989">
  <ele>1583.02</ele>
  <time>2026-08-28T17:51:35Z</time>
  <course>244.37</course>
  <speed>0.02</speed>
  <fix>3d</fix>
</trkpt>
<trkpt lat="40.0713267" lon="-105.229799">
  <ele>1583.0</ele>
  <time>2026-08-28T17:51:35Z</time>
  <course>243.09</course>
  <speed>0.0</speed>
  <fix>3d</fix>
</trkpt>
<trkpt lat="40.0713269" lon="-105.2297989">
  <ele>1583.02</ele>
  <time>2026-08-28T17:51:35Z</time>
  <course>244.37</course>
  <speed>0.02</speed>
  <fix>3d</fix>
</trkpt>
<trkpt lat="40.0713267" lon="-105.229799">
  <ele>1583.0</ele>
  <time>2026-08-28T17:51:35Z</time>
  <course>243.08</course>
  <speed>0.0</speed>
  <fix>3d</fix>
</trkpt>
<trkpt lat="40.0713269" lon="-105.2297989">
  <ele>1583.01</ele>
  <time>2026-08-28T17:51:35Z</time>
  <course>244.37</course>
  <speed>0.02</speed>
  <fix>3d</fix>
</trkpt>
<trkpt lat="40.0713267" lon="-105.229799">
  <ele>1583.0</ele>
  <time>2026-08-28T17:51:35Z</time>
  <course>243.08</course>
  <speed>0.0</speed>
  <fix>3d</fix>
</trkpt>
<trkpt lat="40.0713269" lon="-105.2297989">
  <ele>1583.01</ele>
  <time>2026-08-28T17:51:35Z</time>
  <course>244.37</course>
  <speed>0.02</speed>
  <fix>3d</fix>
</trkpt>
<trkpt lat="40.0713267" lon="-105.229799">
  <ele>1583.0</ele>
  <time>2026-08-28T17:51:35Z</time>
  <course>243.08</course>
  <speed>0.0</speed>
  <fix>3d</fix>
</trkpt>
<trkpt lat="40.0713269" lon="-105.2297989">
  <ele>1583.01</ele>
  <time>2026-08-28T17:51:35Z</time>
  <course>244.37</course>
  <speed>0.02</speed>
  <fix>3d</fix>
</trkpt>
<trkpt lat="40.0713267" lon="-105.229799">
  <ele>1583.0</ele>
  <time>2026-08-28T17:51:35Z</time>
  <course>243.07</course>
  <speed>0.0</speed>
  <fix>3d</fix>
</trkpt>
<trkpt lat="40.0713269" lon="-105.2297989">
  <ele>1583.01</ele>
  <time>2026-08-28T17:51:35Z</time>
  <course>244.37</course>
  <speed>0.02</speed>
  <fix>3d</fix>
</trkpt>
<trkpt lat="40.0713267" lon="-105.229799">
  <ele>1583.0</ele>
  <time>2026-08-28T17:51:35Z</time>
  <course>243.07</course>
  <speed>0.0</speed>
  <fix>3d</fix>
</trkpt>
<trkpt lat="40.0713269" lon="-105.2297989">
  <ele>1583.0</ele>
  <time>2026-08-28T17:51:35Z</time>
  <course>244.36</course>
  <speed>0.02</speed>
  <fix>3d</fix>
</trkpt>
<trkpt lat="40.0713267" lon="-105.229799">
  <ele>1583.0</ele>
  <time>2026-08-28T17:51:35Z</time>
  <course>243.06</course>
  <speed>0.0</speed>
  <fix>3d</fix>
</trkpt>
<trkpt lat="40.0713269" lon="-105.2297989">
  <ele>1583.0</ele>
  <time>2026-08-28T17:51:35Z</time>
  <course>244.36</course>
  <speed>0.02</speed>
  <fix>3d</fix>
</trkpt>
<trkpt lat="40.0713267" lon="-105.229799">
  <ele>1583.0</ele>
  <time>2026-08-28T17:51:35Z</time>
  <course>243.06</course>
  <speed>0.0</speed>
  <fix>3d</fix>
</trkpt>
<trkpt lat="40.0713269" lon="-105.2297989">
  <ele>1582.99</ele>
  <time>2026-08-28T17:51:35Z</time>
  <course>244.36</course>
  <speed>0.02</speed>
  <fix>3d</fix>
</trkpt>
<trkpt lat="40.0713267" lon="-105.229799">
  <ele>1583.0</ele>
  <time>2026-08-28T17:51:35Z</time>
  <course>243.04</course>
  <speed>0.0</speed>
  <fix>3d</fix>
</trkpt>
<trkpt lat="40.0713269" lon="-105.2297989">
  <ele>1582.99</ele>
  <time>2026-08-28T17:51:35Z</time>
  <course>244.36</course>
  <speed>0.02</speed>
  <fix>3d</fix>
</trkpt>
<trkpt lat="40.0713267" lon="-105.229799">
  <ele>1583.0</ele>
  <time>2026-08-28T17:51:35Z</time>
  <course>243.04</course>
  <speed>0.0</speed>
  <fix>3d</fix>
</trkpt>
<trkpt lat="40.0713269" lon="-105.2297989">
  <ele>1582.99</ele>
  <time>2026-08-28T17:51:35Z</time>
  <course>244.36</course>
  <speed>0.02</speed>
  <fix>3d</fix>
</trkpt>
<trkpt lat="40.0713267" lon="-105.229799">
  <ele>1583.0</ele>
  <time>2026-08-28T17:51:35Z</time>
  <course>243.03</course>
  <speed>0.0</speed>
  <fix>3d</fix>
</trkpt>
<trkpt lat="40.0713269" lon="-105.2297989">
  <ele>1582.99</ele>
  <time>2026-08-28T17:51:35Z</time>
  <course>244.36</course>
  <speed>0.02</speed>
  <fix>3d</fix>
</trkpt>
<trkpt lat="40.0713267" lon="-105.229799">
  <ele>1583.0</ele>
  <time>2026-08-28T17:51:35Z</time>
  <course>243.03</course>
  <speed>0.0</speed>
  <fix>3d</fix>
</trkpt>
<trkpt lat="40.0713269" lon="-105.2297989">
  <ele>1582.99</ele>
  <time>2026-08-28T17:51:35Z</time>
  <course>244.35</course>
  <speed>0.02</speed>
  <fix>3d</fix>
</trkpt>
<trkpt lat="40.0713267" lon="-105.229799">
  <ele>1583.0</ele>
  <time>2026-08-28T17:51:35Z</time>
  <course>243.02</course>
  <speed>0.0</speed>
  <fix>3d</fix>
</trkpt>
<trkpt lat="40.0713269" lon="-105.2297989">
  <ele>1583.0</ele>
  <time>2026-08-28T17:51:35Z</time>
  <course>244.35</course>
  <speed>0.02</speed>
  <fix>3d</fix>
</trkpt>
<trkpt lat="40.0713267" lon="-105.229799">
  <ele>1583.0</ele>
  <time>2026-08-28T17:51:35Z</time>
  <course>243.02</course>
  <speed>0.0</speed>
  <fix>3d</fix>
</trkpt>
<trkpt lat="40.0713269" lon="-105.2297989">
  <ele>1583.0</ele>
  <time>2026-08-28T17:51:35Z</time>
  <course>244.35</course>
  <speed>0.02</speed>
  <fix>3d</fix>
</trkpt>
<trkpt lat="40.0713267" lon="-105.229799">
  <ele>1583.0</ele>
  <time>2026-08-28T17:51:35Z</time>
  <course>243.11</course>
  <speed>0.0</speed>
  <fix>3d</fix>
</trkpt>
<trkpt lat="40.0713269" lon="-105.2297989">
  <ele>1583.0</ele>
  <time>2026-08-28T17:51:35Z</time>
  <course>244.35</course>
  <speed>0.01</speed>
  <fix>3d</fix>
</trkpt>
<trkpt lat="40.0713267" lon="-105.229799">
  <ele>1583.0</ele>
  <time>2026-08-28T17:51:35Z</time>
  <course>243.11</course>
  <speed>0.0</speed>
  <fix>3d</fix>
</trkpt>
<trkpt lat="40.0713269" lon="-105.2297989">
  <ele>1583.0</ele>
  <time>2026-08-28T17:51:35Z</time>
  <course>244.33</course>
  <speed>0.01414213562373095</speed>
  <fix>3d</fix>
</trkpt>
<trkpt lat="40.0713267" lon="-105.229799">
  <ele>1583.0</ele>
  <time>2026-08-28T17:51:35Z</time>
  <course>243.14</course>
  <speed>0.01</speed>
  <fix>3d</fix>
</trkpt>
<trkpt lat="40.0713269" lon="-105.229799">
  <ele>1583.0</ele>
  <time>2026-08-28T17:51:35Z</time>
  <course>244.36</course>
  <speed>0.022360679774997897</speed>
  <fix>3d</fix>
</trkpt>
<trkpt lat="40.0713267" lon="-105.229799">
  <ele>1583.0</ele>
  <time>2026-08-28T17:51:35Z</time>
  <course>243.14</course>
  <speed>0.01</speed>
  <fix>3d</fix>
</trkpt>
<trkpt lat="40.0713269" lon="-105.229799">
  <ele>1583.0</ele>
  <time>2026-08-28T17:51:35Z</time>
  <course>244.42</course>
  <speed>0.03</speed>
  <fix>3d</fix>
</trkpt>
<trkpt lat="40.0713267" lon="-105.229799">
  <ele>1583.0</ele>
  <time>2026-08-28T17:51:35Z</time>
  <course>243.14</course>
  <speed>0.01</speed>
  <fix>3d</fix>
</trkpt>
<trkpt lat="40.0713269" lon="-105.2297991">
  <ele>1583.0</ele>
  <time>2026-08-28T17:51:35Z</time>
  <course>244.53</course>
  <speed>0.06</speed>
  <fix>3d</fix>
</trkpt>
<trkpt lat="40.0713267" lon="-105.229799">
  <ele>1583.0</ele>
  <time>2026-08-28T17:51:35Z</time>
  <course>243.21</course>
  <speed>0.03</speed>
  <fix>3d</fix>
</trkpt>
<trkpt lat="40.0713268" lon="-105.2297992">
  <ele>1583.0</ele>
  <time>2026-08-28T17:51:35Z</time>
  <course>244.71</course>
  <speed>0.0824621125123532</speed>
  <fix>3d</fix>
</trkpt>
<trkpt lat="40.0713267" lon="-105.229799">
  <ele>1583.0</ele>
  <time>2026-08-28T17:51:35Z</time>
  <course>243.21</course>
  <speed>0.03</speed>
  <fix>3d</fix>
</trkpt>
<trkpt lat="40.0713268" lon="-105.2297993">
  <ele>1583.0</ele>
  <time>2026-08-28T17:51:35Z</time>
  <course>245.0</course>
  <speed>0.12369316876852982</speed>
  <fix>3d</fix>
</trkpt>
<trkpt lat="40.0713266" lon="-105.2297991">
  <ele>1583.0</ele>
  <time>2026-08-28T17:51:35Z</time>
  <course>243.44</course>
  <speed>0.07</speed>
  <fix>3d</fix>
</trkpt>
<trkpt lat="40.0713267" lon="-105.2297995">
  <ele>1583.0</ele>
  <time>2026-08-28T17:51:35Z</time>
  <course>245.41</course>
  <speed>0.15811388300841897</speed>
  <fix>3d</fix>
</trkpt>
<trkpt lat="40.0713266" lon="-105.2297991">
  <ele>1583.0</ele>
  <time>2026-08-28T17:51:35Z</time>
  <course>243.44</course>
  <speed>0.07</speed>
  <fix>3d</fix>
</trkpt>
<trkpt lat="40.0713267" lon="-105.2297997">
  <ele>1583.0</ele>
  <time>2026-08-28T17:51:35Z</time>
  <course>245.98</course>
  <speed>0.19924858845171275</speed>
  <fix>3d</fix>
</trkpt>
<trkpt lat="40.0713265" lon="-105.2297993">
  <ele>1583.0</ele>
  <time>2026-08-28T17:51:35Z</time>
  <course>243.98</course>
  <speed>0.14</speed>
  <fix>3d</fix>
</trkpt>
<trkpt lat="40.0713266" lon="-105.2297999">
  <ele>1583.0</ele>
  <time>2026-08-28T17:51:35Z</time>
  <course>246.74</course>
  <speed>0.2529822128134704</speed>
  <fix>3d</fix>
</trkpt>
<trkpt lat="40.0713265" lon="-105.2297993">
  <ele>1583.0</ele>
  <time>2026-08-28T17:51:35Z</time>
  <course>243.98</course>
  <speed>0.14</speed>
  <fix>3d</fix>
</trkpt>
<trkpt lat="40.0713265" lon="-105.2298002">
  <ele>1583.0</ele>
  <time>2026-08-28T17:51:35Z</time>
  <course>247.74</course>
  <speed>0.29410882339705485</speed>
  <fix>3d</fix>
</trkpt>
<trkpt lat="40.0713264" lon="-105.2297997">
  <ele>1583.0</ele>
  <time>2026-08-28T17:51:35Z</time>
  <course>245.04</course>
  <speed>0.22</speed>
  <fix>3d</fix>
</trkpt>
<trkpt lat="40.0713263" lon="-105.2298006">
  <ele>1583.0</ele>
  <time>2026-08-28T17:51:35Z</time>
  <course>249.0</course>
  <speed>0.34481879299133333</speed>
  <fix>3d</fix>
</trkpt>
<trkpt lat="40.0713262" lon="-105.2298003">
  <ele>1583.0</ele>
  <time>2026-08-28T17:51:35Z</time>
  <course>246.89</course>
  <speed>0.31</speed>
  <fix>3d</fix>
</trkpt>
<trkpt lat="40.0713262" lon="-105.2298011">
  <ele>1583.0</ele>
  <time>2026-08-28T17:51:35Z</time>
  <course>250.57</course>
  <speed>0.4052159917870962</speed>
  <fix>3d</fix>
</trkpt>
<trkpt lat="40.0713262" lon="-105.2298003">
  <ele>1583.0</ele>
  <time>2026-08-28T17:51:35Z</time>
  <course>246.89</course>
  <speed>0.31</speed>
  <fix>3d</fix>
</trkpt>
<trkpt lat="40.0713261" lon="-105.2298016">
  <ele>1583.0</ele>
  <time>2026-08-28T17:51:35Z</time>
  <course>252.48</course>
  <speed>0.4535416188179427</speed>
  <fix>3d</fix>
</trkpt>
<trkpt lat="40.071326" lon="-105.2298011">
  <ele>1583.0</ele>
  <time>2026-08-28T17:51:35Z</time>
  <course>249.81</course>
  <speed>0.42</speed>
  <fix>3d</fix>
</trkpt>
<trkpt lat="40.0713259" lon="-105.2298021">
  <ele>1583.0</ele>
  <time>2026-08-28T17:51:35Z</time>
  <course>254.8</course>
  <speed>0.5119570294468082</speed>
  <fix>3d</fix>
</trkpt>
<trkpt lat="40.071326" lon="-105.2298011">
  <ele>1583.0</ele>
  <time>2026-08-28T17:51:35Z</time>
  <course>249.81</course>
  <speed>0.42</speed>
  <fix>3d</fix>
</trkpt>
<trkpt lat="40.0713258" lon="-105.2298028">
  <ele>1583.0</ele>
  <time>2026-08-28T17:51:35Z</time>
  <course>257.58</course>
  <speed>0.5590169943749475</speed>
  <fix>3d</fix>
</trkpt>
<trkpt lat="40.0713257" lon="-105.2298022">
  <ele>1583.0</ele>
  <time>2026-08-28T17:51:35Z</time>
  <course>254.16</course>
  <speed>0.52</speed>
  <fix>3d</fix>
</trkpt>
<trkpt lat="40.0713257" lon="-105.2298035">
  <ele>1583.01</ele>
  <time>2026-08-28T17:51:35Z</time>
  <course>260.84</course>
  <speed>0.6140032573203501</speed>
  <fix>3d</fix>
</trkpt>
<trkpt lat="40.0713257" lon="-105.2298022">
  <ele>1583.0</ele>
  <time>2026-08-28T17:51:35Z</time>
  <course>254.16</course>
  <speed>0.52</speed>
  <fix>3d</fix>
</trkpt>
<trkpt lat="40.0713256" lon="-105.2298043">
  <ele>1583.01</ele>
  <time>2026-08-28T17:51:35Z</time>
  <course>264.68</course>
  <speed>0.6606814663663572</speed>
  <fix>3d</fix>
</trkpt>
<trkpt lat="40.0713255" lon="-105.2298035">
  <ele>1583.0</ele>
  <time>2026-08-28T17:51:35Z</time>
  <course>260.28</course>
  <speed>0.62</speed>
  <fix>3d</fix>
</trkpt>
<trkpt lat="40.0713256" lon="-105.2298051">
  <ele>1583.01</ele>
  <time>2026-08-28T17:51:35Z</time>
  <course>269.04</course>
  <speed>0.7100704190430693</speed>
  <fix>3d</fix>
</trkpt>
<trkpt lat="40.0713255" lon="-105.2298035">
  <ele>1583.0</ele>
  <time>2026-08-28T17:51:35Z</time>
  <course>260.28</course>
  <speed>0.62</speed>
  <fix>3d</fix>
</trkpt>
<trkpt lat="40.0713256" lon="-105.229806">
  <ele>1583.01</ele>
  <time>2026-08-28T17:51:35Z</time>
  <course>273.73</course>
  <speed>0.7532595834106592</speed>
  <fix>3d</fix>
</trkpt>
<trkpt lat="40.0713254" lon="-105.229805">
  <ele>1583.0</ele>
  <time>2026-08-28T17:51:35Z</time>
  <course>268.36</course>
  <speed>0.71</speed>
  <fix>3d</fix>
</trkpt>
<trkpt lat="40.0713257" lon="-105.2298069">
  <ele>1583.01</ele>
  <time>2026-08-28T17:51:35Z</time>
  <course>278.7</course>
  <speed>0.8023091673413684</speed>
  <fix>3d</fix>
</trkpt>
<trkpt lat="40.0713254" lon="-105.229805">
  <ele>1583.0</ele>
  <time>2026-08-28T17:51:35Z</time>
  <course>268.36</course>
  <speed>0.71</speed>
  <fix>3d</fix>
</trkpt>
<trkpt lat="40.0713258" lon="-105.2298079">
  <ele>1583.01</ele>
  <time>2026-08-28T17:51:35Z</time>
  <course>283.91</course>
  <speed>0.8393449827097318</speed>
  <fix>3d</fix>
</trkpt>
<trkpt lat="40.0713255" lon="-105.2298068">
  <ele>1583.0</ele>
  <time>2026-08-28T17:51:35Z</time>
  <course>277.97</course>
  <speed>0.79</speed>
  <fix>3d</fix>
</trkpt>
<trkpt lat="40.0713261" lon="-105.2298089">
  <ele>1583.02</ele>
  <time>2026-08-28T17:51:35Z</time>
  <course>289.36</course>
  <speed>0.8766413177577246</speed>
  <fix>3d</fix>
</trkpt>
<trkpt lat="40.0713255" lon="-105.2298068">
  <ele>1583.0</ele>
  <time>2026-08-28T17:51:35Z</time>
  <course>277.97</course>
  <speed>0.79</speed>
  <fix>3d</fix>
</trkpt>
<trkpt lat="40.0713263" lon="-105.2298099">
  <ele>1583.02</ele>
  <time>2026-08-28T17:51:35Z</time>
  <course>295.02</course>
  <speed>0.9123595782365634</speed>
  <fix>3d</fix>
</trkpt>
<trkpt lat="40.0713257" lon="-105.2298087">
  <ele>1583.0</ele>
  <time>2026-08-28T17:51:35Z</time>
  <course>288.58</course>
  <speed>0.86</speed>
  <fix>3d</fix>
</trkpt>
<trkpt lat="40.0713267" lon="-105.2298109">
  <ele>1583.03</ele>
  <time>2026-08-28T17:51:35Z</time>
  <course>300.86</course>
  <speed>0.9433981132056605</speed>
  <fix>3d</fix>
</trkpt>
<trkpt lat="40.0713257" lon="-105.2298087">
  <ele>1583.0</ele>
  <time>2026-08-28T17:51:35Z</time>
  <course>288.58</course>
  <speed>0.86</speed>
  <fix>3d</fix>
</trkpt>
<trkpt lat="40.0713271" lon="-105.2298118">
  <ele>1583.03</ele>
  <time>2026-08-28T17:51:35Z</time>
  <course>306.87</course>
  <speed>0.970051545022222</speed>
  <fix>3d</fix>
</trkpt>
<trkpt lat="40.0713257" lon="-105.2298087">
  <ele>1583.0</ele>
  <time>2026-08-28T17:51:35Z</time>
  <course>288.58</course>
  <speed>0.86</speed>
  <fix>3d</fix>
</trkpt>
<trkpt lat="40.0713277" lon="-105.2298127">
  <ele>1583.03</ele>
  <time>2026-08-28T17:51:35Z</time>
  <course>313.02</course>
  <speed>0.9900505037623081</speed>
  <fix>3d</fix>
</trkpt>
<trkpt lat="40.0713264" lon="-105.2298106">
  <ele>1583.0</ele>
  <time>2026-08-28T17:51:35Z</time>
  <course>300.06</course>
  <speed>0.92</speed>
  <fix>3d</fix>
</trkpt>
<trkpt lat="40.0713283" lon="-105.2298135">
  <ele>1583.03</ele>
  <time>2026-08-28T17:51:35Z</time>
  <course>319.3</course>
  <speed>1.007670581092849</speed>
  <fix>3d</fix>
</trkpt>
<trkpt lat="40.0713264" lon="-105.2298106">
  <ele>1583.0</ele>
  <time>2026-08-28T17:51:35Z</time>
  <course>300.06</course>
  <speed>0.92</speed>
  <fix>3d</fix>
</trkpt>
<trkpt lat="40.0713291" lon="-105.2298142">
  <ele>1583.03</ele>
  <time>2026-08-28T17:51:35Z</time>
  <course>325.67</course>
  <speed>1.0234256201600582</speed>
  <fix>3d</fix>
</trkpt>
<trkpt lat="40.0713274" lon="-105.2298124">
  <ele>1583.0</ele>
  <time>2026-08-28T17:51:35Z</time>
  <course>312.19</course>
  <speed>0.97</speed>
  <fix>3d</fix>
</trkpt>
<trkpt lat="40.0713298" lon="-105.2298148">
  <ele>1583.03</ele>
  <time>2026-08-28T17:51:35Z</time>
  <course>332.11</course>
  <speed>1.0376897416858277</speed>
  <fix>3d</fix>
</trkpt>
<trkpt lat="40.0713274" lon="-105.2298124">
  <ele>1583.0</ele>
  <time>2026-08-28T17:51:35Z</time>
  <course>312.19</course>
  <speed>0.97</speed>
  <fix>3d</fix>
</trkpt>
<trkpt lat="40.0713307" lon="-105.2298153">
  <ele>1583.03</ele>
  <time>2026-08-28T17:51:35Z</time>
  <course>338.62</course>
  <speed>1.0381714694596456</speed>
  <fix>3d</fix>
</trkpt>
<trkpt lat="40.0713286" lon="-105.2298139">
  <ele>1583.0</ele>
  <time>2026-08-28T17:51:35Z</time>
  <course>324.79</course>
  <speed>1.0</speed>
  <fix>3d</fix>
</trkpt>
<trkpt lat="40.0713315" lon="-105.2298156">
  <ele>1583.02</ele>
  <time>2026-08-28T17:51:35Z</time>
  <course>345.22</course>
  <speed>1.0429285689825551</speed>
  <fix>3d</fix>
</trkpt>
<trkpt lat="40.0713302" lon="-105.2298151">
  <ele>1583.0</ele>
  <time>2026-08-28T17:51:35Z</time>
  <course>337.7</course>
  <speed>1.01</speed>
  <fix>3d</fix>
</trkpt>
<trkpt lat="40.0713324" lon="-105.2298159">
  <ele>1583.02</ele>
  <time>2026-08-28T17:51:35Z</time>
  <course>351.8</course>
  <speed>1.0408650248711404</speed>
  <fix>3d</fix>
</trkpt>
<trkpt lat="40.0713302" lon="-105.2298151">
  <ele>1583.0</ele>
  <time>2026-08-28T17:51:35Z</time>
  <course>337.7</course>
  <speed>1.01</speed>
  <fix>3d</fix>
</trkpt>
<trkpt lat="40.0713333" lon="-105.229816">
  <ele>1583.02</ele>
  <time>2026-08-28T17:51:35Z</time>
  <course>358.41</course>
  <speed>1.0504284840006957</speed>
  <fix>3d</fix>
</trkpt>
<trkpt lat="40.071332" lon="-105.2298158">
  <ele>1583.0</ele>
  <time>2026-08-28T17:51:35Z</time>
  <course>350.82</course>
  <speed>1.02</speed>
  <fix>3d</fix>
</trkpt>
<trkpt lat="40.0713343" lon="-105.2298159">
  <ele>1583.01</ele>
  <time>2026-08-28T17:51:35Z</time>
  <course>4.98</course>
  <speed>1.0530432089900206</speed>
  <fix>3d</fix>
</trkpt>
<trkpt lat="40.071332" lon="-105.2298158">
  <ele>1583.0</ele>
  <time>2026-08-28T17:51:35Z</time>
  <course>350.82</course>
  <speed>1.02</speed>
  <fix>3d</fix>
</trkpt>
<trkpt lat="40.0713352" lon="-105.2298157">
  <ele>1583.01</ele>
  <time>2026-08-28T17:51:35Z</time>
  <course>11.49</course>
  <speed>1.0590561835898982</speed>
  <fix>3d</fix>
</trkpt>
<trkpt lat="40.0713339" lon="-105.2298159">
  <ele>1583.0</ele>
  <time>2026-08-28T17:51:35Z</time>
  <course>4.01</course>
  <speed>1.04</speed>
  <fix>3d</fix>
</trkpt>
<trkpt lat="40.0713361" lon="-105.2298154">
  <ele>1583.01</ele>
  <time>2026-08-28T17:51:35Z</time>
  <course>17.19</course>
  <speed>1.0660675400742676</speed>
  <fix>3d</fix>
</trkpt>
<trkpt lat="40.0713339" lon="-105.2298159">
  <ele>1583.0</ele>
  <time>2026-08-28T17:51:35Z</time>
  <course>4.01</course>
  <speed>1.04</speed>
  <fix>3d</fix>
</trkpt>
<trkpt lat="40.071337" lon="-105.2298151">
  <ele>1583.01</ele>
  <time>2026-08-28T17:51:35Z</time>
  <course>22.09</course>
  <speed>1.0770329614269007</speed>
  <fix>3d</fix>
</trkpt>
<trkpt lat="40.0713357" lon="-105.2298155">
  <ele>1583.0</ele>
  <time>2026-08-28T17:51:35Z</time>
  <course>15.89</course>
  <speed>1.06</speed>
  <fix>3d</fix>
</trkpt>
<trkpt lat="40.0713379" lon="-105.2298145">
  <ele>1583.01</ele>
  <time>2026-08-28T17:51:35Z</time>
  <course>26.28</course>
  <speed>1.1002272492535348</speed>
  <fix>3d</fix>
</trkpt>
<trkpt lat="40.0713357" lon="-105.2298155">
  <ele>1583.0</ele>
  <time>2026-08-28T17:51:35Z</time>
  <course>15.89</course>
  <speed>1.06</speed>
  <fix>3d</fix>
</trkpt>
<trkpt lat="40.0713388" lon="-105.2298139">
  <ele>1583.01</ele>
  <time>2026-08-28T17:51:35Z</time>
  <course>29.77</course>
  <speed>1.1237882362794158</speed>
  <fix>3d</fix>
</trkpt>
<trkpt lat="40.0713375" lon="-105.2298146">
  <ele>1583.0</ele>
  <time>2026-08-28T17:51:35Z</time>
  <course>25.02</course>
  <speed>1.09</speed>
  <fix>3d</fix>
</trkpt>
<trkpt lat="40.0713397" lon="-105.2298132">
  <ele>1583.01</ele>
  <time>2026-08-28T17:51:35Z</time>
  <course>32.67</course>
  <speed>1.1458621208504973</speed>
  <fix>3d</fix>
</trkpt>
<trkpt lat="40.0713375" lon="-105.2298146">
  <ele>1583.0</ele>
  <time>2026-08-28T17:51:35Z</time>
  <course>25.02</course>
  <speed>1.09</speed>
  <fix>3d</fix>
</trkpt>
<trkpt lat="40.0713405" lon="-105.2298124">
  <ele>1583.01</ele>
  <time>2026-08-28T17:51:35Z</time>
  <course>35.07</course>
  <speed>1.1788977903109328</speed>
  <fix>3d</fix>
</trkpt>
<trkpt lat="40.0713393" lon="-105.2298134">
  <ele>1583.0</ele>
  <time>2026-08-28T17:51:35Z</time>
  <course>31.49</course>
  <speed>1.15</speed>
  <fix>3d</fix>
</trkpt>
<trkpt lat="40.0713414" lon="-105.2298116">
  <ele>1583.01</ele>
  <time>2026-08-28T17:51:35Z</time>
  <course>37.08</course>
  <speed>1.2220065466273085</speed>
  <fix>3d</fix>
</trkpt>
<trkpt lat="40.0713393" lon="-105.2298134">
  <ele>1583.0</ele>
  <time>2026-08-28T17:51:35Z</time>
  <course>31.49</course>
  <speed>1.15</speed>
  <fix>3d</fix>
</trkpt>
<trkpt lat="40.0713423" lon="-105.2298107">
  <ele>1583.01</ele>
  <time>2026-08-28T17:51:35Z</time>
  <course>38.77</course>
  <speed>1.2603570922560003</speed>
  <fix>3d</fix>
</trkpt>
<trkpt lat="40.0713411" lon="-105.2298118">
  <ele>1583.0</ele>
  <time>2026-08-28T17:51:35Z</time>
  <course>35.97</course>
  <speed>1.22</speed>
  <fix>3d</fix>
</trkpt>
<trkpt lat="40.0713432" lon="-105.2298097">
  <ele>1583.01</ele>
  <time>2026-08-28T17:51:35Z</time>
  <course>40.2</course>
  <speed>1.30728726758888</speed>
  <fix>3d</fix>
</trkpt>
<trkpt lat="40.0713411" lon="-105.2298118">
  <ele>1583.0</ele>
  <time>2026-08-28T17:51:35Z</time>
  <course>35.97</course>
  <speed>1.22</speed>
  <fix>3d</fix>
</trkpt>
<trkpt lat="40.0713441" lon="-105.2298087">
  <ele>1583.0</ele>
  <time>2026-08-28T17:51:35Z</time>
  <course>41.43</course>
  <speed>1.3612494260788506</speed>
  <fix>3d</fix>
</trkpt>
<trkpt lat="40.0713411" lon="-105.2298118">
  <ele>1583.0</ele>
  <time>2026-08-28T17:51:35Z</time>
  <course>35.97</course>
  <speed>1.22</speed>
  <fix>3d</fix>
</trkpt>
<trkpt lat="40.071345" lon="-105.2298076">
  <ele>1583.0</ele>
  <time>2026-08-28T17:51:35Z</time>
  <course>42.5</course>
  <speed>1.4018559127100045</speed>
  <fix>3d</fix>
</trkpt>
<trkpt lat="40.0713429" lon="-105.22981">
  <ele>1583.0</ele>
  <time>2026-08-28T17:51:35Z</time>
  <course>39.15</course>
  <speed>1.31</speed>
  <fix>3d</fix>
</trkpt>
<trkpt lat="40.071346" lon="-105.2298065">
  <ele>1583.0</ele>
  <time>2026-08-28T17:51:35Z</time>
  <course>43.44</course>
  <speed>1.4436065946094871</speed>
  <fix>3d</fix>
</trkpt>
<trkpt lat="40.0713429" lon="-105.22981">
  <ele>1583.0</ele>
  <time>2026-08-28T17:51:35Z</time>
  <course>39.15</course>
  <speed>1.31</speed>
  <fix>3d</fix>
</trkpt>
<trkpt lat="40.0713469" lon="-105.2298053">
  <ele>1583.0</ele>
  <time>2026-08-28T17:51:35Z</time>
  <course>44.28</course>
  <speed>1.4924141516348604</speed>
  <fix>3d</fix>
</trkpt>
<trkpt lat="40.0713447" lon="-105.2298079">
  <ele>1583.0</ele>
  <time>2026-08-28T17:51:35Z</time>
  <course>41.48</course>
  <speed>1.4</speed>
  <fix>3d</fix>
</trkpt>
<trkpt lat="40.0713479" lon="-105.2298041">
  <ele>1583.0</ele>
  <time>2026-08-28T17:51:35Z</time>
  <course>45.04</course>
  <speed>1.5345683432157722</speed>
  <fix>3d</fix>
</trkpt>
<trkpt lat="40.0713447" lon="-105.2298079">
  <ele>1583.0</ele>
  <time>2026-08-28T17:51:35Z</time>
  <course>41.48</course>
  <speed>1.4</speed>
  <fix>3d</fix>
</trkpt>
<trkpt lat="40.0713489" lon="-105.2298028">
  <ele>1583.0</ele>
  <time>2026-08-28T17:51:35Z</time>
  <course>45.74</course>
  <speed>1.5697770542341354</speed>
  <fix>3d</fix>
</trkpt>
<trkpt lat="40.0713466" lon="-105.2298057">
  <ele>1583.0</ele>
  <time>2026-08-28T17:51:35Z</time>
  <course>43.27</course>
  <speed>1.49</speed>
  <fix>3d</fix>
</trkpt>
<trkpt lat="40.0713499" lon="-105.2298015">
  <ele>1582.99</ele>
  <time>2026-08-28T17:51:35Z</time>
  <course>46.39</course>
  <speed>1.6122654868228121</speed>
  <fix>3d</fix>
</trkpt>
<trkpt lat="40.0713487" lon="-105.2298031">
  <ele>1583.0</ele>
  <time>2026-08-28T17:51:35Z</time>
  <course>44.74</course>
  <speed>1.58</speed>
  <fix>3d</fix>
</trkpt>
<trkpt lat="40.0713509" lon="-105.2298001">
  <ele>1582.99</ele>
  <time>2026-08-28T17:51:35Z</time>
  <course>47.01</course>
  <speed>1.6407315441594945</speed>
  <fix>3d</fix>
</trkpt>
<trkpt lat="40.0713487" lon="-105.2298031">
  <ele>1583.0</ele>
  <time>2026-08-28T17:51:35Z</time>
  <course>44.74</course>
  <speed>1.58</speed>
  <fix>3d</fix>
</trkpt>
<trkpt lat="40.071352" lon="-105.2297987">
  <ele>1582.99</ele>
  <time>2026-08-28T17:51:36Z</time>
  <course>47.58</course>
  <speed>1.6624379687675568</speed>
  <fix>3d</fix>
</trkpt>
<trkpt lat="40.0713507" lon="-105.2298005">
  <ele>1583.0</ele>
  <time>2026-08-28T17:51:36Z</time>
  <course>45.99</course>
  <speed>1.64</speed>
  <fix>3d</fix>
</trkpt>
<trkpt lat="40.071353" lon="-105.2297972">
  <ele>1582.98</ele>
  <time>2026-08-28T17:51:36Z</time>
  <course>48.12</course>
  <speed>1.6770509831248424</speed>
  <fix>3d</fix>
</trkpt>
<trkpt lat="40.0713507" lon="-105.2298005">
  <ele>1583.0</ele>
  <time>2026-08-28T17:51:36Z</time>
  <course>45.99</course>
  <speed>1.64</speed>
  <fix>3d</fix>
</trkpt>
<trkpt lat="40.071354" lon="-105.2297957">
  <ele>1582.98</ele>
  <time>2026-08-28T17:51:36Z</time>
  <course>48.67</course>
  <speed>1.6917742166140255</speed>
  <fix>3d</fix>
</trkpt>
<trkpt lat="40.0713528" lon="-105.2297976">
  <ele>1583.0</ele>
  <time>2026-08-28T17:51:36Z</time>
  <course>47.13</course>
  <speed>1.68</speed>
  <fix>3d</fix>
</trkpt>
<trkpt lat="40.0713551" lon="-105.2297943">
  <ele>1582.98</ele>
  <time>2026-08-28T17:51:36Z</time>
  <course>49.25</course>
  <speed>1.6858232410309213</speed>
  <fix>3d</fix>
</trkpt>
<trkpt lat="40.0713528" lon="-105.2297976">
  <ele>1583.0</ele>
  <time>2026-08-28T17:51:36Z</time>
  <course>47.13</course>
  <speed>1.68</speed>
  <fix>3d</fix>
</trkpt>
<trkpt lat="40.0713561" lon="-105.2297928">
  <ele>1582.98</ele>
  <time>2026-08-28T17:51:36Z</time>
  <course>49.86</course>
  <speed>1.6867127793432999</speed>
  <fix>3d</fix>
</trkpt>
<trkpt lat="40.0713548" lon="-105.2297946">
  <ele>1583.0</ele>
  <time>2026-08-28T17:51:36Z</time>
  <course>48.27</course>
  <speed>1.69</speed>
  <fix>3d</fix>
</trkpt>
<trkpt lat="40.0713571" lon="-105.2297912">
  <ele>1582.98</ele>
  <time>2026-08-28T17:51:36Z</time>
  <course>50.52</course>
  <speed>1.6595180023127196</speed>
  <fix>3d</fix>
</trkpt>
<trkpt lat="40.0713548" lon="-105.2297946">
  <ele>1583.0</ele>
  <time>2026-08-28T17:51:36Z</time>
  <course>48.27</course>
  <speed>1.69</speed>
  <fix>3d</fix>
</trkpt>
<trkpt lat="40.071358" lon="-105.2297897">
  <ele>1582.98</ele>
  <time>2026-08-28T17:51:36Z</time>
  <course>51.27</course>
  <speed>1.6401524319403975</speed>
  <fix>3d</fix>
</trkpt>
<trkpt lat="40.0713568" lon="-105.2297916">
  <ele>1583.0</ele>
  <time>2026-08-28T17:51:36Z</time>
  <course>49.56</course>
  <speed>1.66</speed>
  <fix>3d</fix>
</trkpt>
<trkpt lat="40.071359" lon="-105.2297883">
  <ele>1582.97</ele>
  <time>2026-08-28T17:51:36Z</time>
  <course>52.12</course>
  <speed>1.5929846201391902</speed>
  <fix>3d</fix>
</trkpt>
<trkpt lat="40.0713568" lon="-105.2297916">
  <ele>1583.0</ele>
  <time>2026-08-28T17:51:36Z</time>
  <course>49.56</course>
  <speed>1.66</speed>
  <fix>3d</fix>
</trkpt>
<trkpt lat="40.0713599" lon="-105.2297868">
  <ele>1582.97</ele>
  <time>2026-08-28T17:51:36Z</time>
  <course>53.11</course>
  <speed>1.5383757668398186</speed>
  <fix>3d</fix>
</trkpt>
<trkpt lat="40.0713587" lon="-105.2297887">
  <ele>1583.0</ele>
  <time>2026-08-28T17:51:36Z</time>
  <course>51.16</course>
  <speed>1.59</speed>
  <fix>3d</fix>
</trkpt>
<trkpt lat="40.0713607" lon="-105.2297854">
  <ele>1582.97</ele>
  <time>2026-08-28T17:51:36Z</time>
  <course>54.29</course>
  <speed>1.4780054127099804</speed>
  <fix>3d</fix>
</trkpt>
<trkpt lat="40.0713587" lon="-105.2297887">
  <ele>1583.0</ele>
  <time>2026-08-28T17:51:36Z</time>
  <course>51.16</course>
  <speed>1.59</speed>
  <fix>3d</fix>
</trkpt>
<trkpt lat="40.0713615" lon="-105.229784">
  <ele>1582.97</ele>
  <time>2026-08-28T17:51:36Z</time>
  <course>55.75</course>
  <speed>1.4042791745233567</speed>
  <fix>3d</fix>
</trkpt>
<trkpt lat="40.0713604" lon="-105.2297859">
  <ele>1583.0</ele>
  <time>2026-08-28T17:51:36Z</time>
  <course>53.37</course>
  <speed>1.48</speed>
  <fix>3d</fix>
</trkpt>
<trkpt lat="40.0713621" lon="-105.2297827">
  <ele>1582.97</ele>
  <time>2026-08-28T17:51:36Z</time>
  <course>57.53</course>
  <speed>1.3201893803541975</speed>
  <fix>3d</fix>
</trkpt>
<trkpt lat="40.0713604" lon="-105.2297859">
  <ele>1583.0</ele>
  <time>2026-08-28T17:51:36Z</time>
  <course>53.37</course>
  <speed>1.48</speed>
  <fix>3d</fix>
</trkpt>
<trkpt lat="40.0713628" lon="-105.2297814">
  <ele>1582.98</ele>
  <time>2026-08-28T17:51:36Z</time>
  <course>59.44</course>
  <speed>1.2264175471673584</speed>
  <fix>3d</fix>
</trkpt>
<trkpt lat="40.0713604" lon="-105.2297859">
  <ele>1583.0</ele>
  <time>2026-08-28T17:51:36Z</time>
  <course>53.37</course>
  <speed>1.48</speed>
  <fix>3d</fix>
</trkpt>
<trkpt lat="40.0713633" lon="-105.2297802">
  <ele>1582.98</ele>
  <time>2026-08-28T17:51:36Z</time>
  <course>61.51</course>
  <speed>1.120044641967453</speed>
  <fix>3d</fix>
</trkpt>
<trkpt lat="40.0713618" lon="-105.2297831">
  <ele>1583.0</ele>
  <time>2026-08-28T17:51:36Z</time>
  <course>56.48</course>
  <speed>1.33</speed>
  <fix>3d</fix>
</trkpt>
<trkpt lat="40.0713637" lon="-105.2297792">
  <ele>1582.98</ele>
  <time>2026-08-28T17:51:36Z</time>
  <course>63.8</course>
  <speed>1.0064790112068907</speed>
  <fix>3d</fix>
</trkpt>
<trkpt lat="40.0713618" lon="-105.2297831">
  <ele>1583.0</ele>
  <time>2026-08-28T17:51:36Z</time>
  <course>56.48</course>
  <speed>1.33</speed>
  <fix>3d</fix>
</trkpt>
<trkpt lat="40.0713641" lon="-105.2297782">
  <ele>1582.99</ele>
  <time>2026-08-28T17:51:36Z</time>
  <course>66.22</course>
  <speed>0.8856635930193812</speed>
  <fix>3d</fix>
</trkpt>
<trkpt lat="40.071363" lon="-105.2297806">
  <ele>1583.0</ele>
  <time>2026-08-28T17:51:36Z</time>
  <course>60.44</course>
  <speed>1.13</speed>
  <fix>3d</fix>
</trkpt>
<trkpt lat="40.0713644" lon="-105.2297773">
  <ele>1582.99</ele>
  <time>2026-08-28T17:51:36Z</time>
  <course>68.58</course>
  <speed>0.7615773105863909</speed>
  <fix>3d</fix>
</trkpt>
<trkpt lat="40.071363" lon="-105.2297806">
  <ele>1583.0</ele>
  <time>2026-08-28T17:51:36Z</time>
  <course>60.44</course>
  <speed>1.13</speed>
  <fix>3d</fix>
</trkpt>
<trkpt lat="40.0713646" lon="-105.2297766">
  <ele>1582.99</ele>
  <time>2026-08-28T17:51:36Z</time>
  <course>70.72</course>
  <speed>0.6332456079595026</speed>
  <fix>3d</fix>
</trkpt>
<trkpt lat="40.0713638" lon="-105.2297785">
  <ele>1583.0</ele>
  <time>2026-08-28T17:51:36Z</time>
  <course>64.91</course>
  <speed>0.91</speed>
  <fix>3d</fix>
</trkpt>
<trkpt lat="40.0713647" lon="-105.2297759">
  <ele>1583.0</ele>
  <time>2026-08-28T17:51:36Z</time>
  <course>72.53</course>
  <speed>0.5092150822589606</speed>
  <fix>3d</fix>
</trkpt>
<trkpt lat="40.0713638" lon="-105.2297785">
  <ele>1583.0</ele>
  <time>2026-08-28T17:51:36Z</time>
  <course>64.91</course>
  <speed>0.91</speed>
  <fix>3d</fix>
</trkpt>
<trkpt lat="40.0713649" lon="-105.2297754">
  <ele>1583.0</ele>
  <time>2026-08-28T17:51:36Z</time>
  <course>74.01</course>
  <speed>0.3889730067755345</speed>
  <fix>3d</fix>
</trkpt>
<trkpt lat="40.0713644" lon="-105.2297768">
  <ele>1583.0</ele>
  <time>2026-08-28T17:51:36Z</time>
  <course>69.23</course>
  <speed>0.66</speed>
  <fix>3d</fix>
</trkpt>
<trkpt lat="40.0713649" lon="-105.2297751">
  <ele>1583.0</ele>
  <time>2026-08-28T17:51:36Z</time>
  <course>75.14</course>
  <speed>0.2751363298439521</speed>
  <fix>3d</fix>
</trkpt>
<trkpt lat="40.0713648" lon="-105.2297756">
  <ele>1583.0</ele>
  <time>2026-08-28T17:51:36Z</time>
  <course>72.53</course>
  <speed>0.43</speed>
  <fix>3d</fix>
</trkpt>
<trkpt lat="40.071365" lon="-105.2297748">
  <ele>1583.0</ele>
  <time>2026-08-28T17:51:36Z</time>
  <course>75.94</course>
  <speed>0.18027756377319945</speed>
  <fix>3d</fix>
</trkpt>
<trkpt lat="40.0713648" lon="-105.2297756">
  <ele>1583.0</ele>
  <time>2026-08-28T17:51:36Z</time>
  <course>72.53</course>
  <speed>0.43</speed>
  <fix>3d</fix>
</trkpt>
<trkpt lat="40.071365" lon="-105.2297747">
  <ele>1583.0</ele>
  <time>2026-08-28T17:51:36Z</time>
  <course>76.45</course>
  <speed>0.09486832980505139</speed>
  <fix>3d</fix>
</trkpt>
<trkpt lat="40.0713649" lon="-105.2297749">
  <ele>1583.0</ele>
  <time>2026-08-28T17:51:36Z</time>
  <course>74.56</course>
  <speed>0.23</speed>
  <fix>3d</fix>
</trkpt>
<trkpt lat="40.071365" lon="-105.2297746">
  <ele>1583.0</ele>
  <time>2026-08-28T17:51:36Z</time>
  <course>76.73</course>
  <speed>0.022360679774997897</speed>
  <fix>3d</fix>
</trkpt>
<trkpt lat="40.0713649" lon="-105.2297749">
  <ele>1583.0</ele>
  <time>2026-08-28T17:51:36Z</time>
  <course>74.56</course>
  <speed>0.23</speed>
  <fix>3d</fix>
</trkpt>
<trkpt lat="40.071365" lon="-105.2297746">
  <ele>1583.0</ele>
  <time>2026-08-28T17:51:36Z</time>
  <course>76.79</course>
  <speed>0.03</speed>
  <fix>3d</fix>
</trkpt>
<trkpt lat="40.071365" lon="-105.2297745">
  <ele>1583.0</ele>
  <time>2026-08-28T17:51:36Z</time>
  <course>75.52</course>
  <speed>0.08</speed>
  <fix>3d</fix>
</trkpt>
<trkpt lat="40.071365" lon="-105.2297747">
  <ele>1583.0</ele>
  <time>2026-08-28T17:51:36Z</time>
  <course>76.78</course>
  <speed>0.07</speed>
  <fix>3d</fix>
</trkpt>
<trkpt lat="40.071365" lon="-105.2297745">
  <ele>1583.0</ele>
  <time>2026-08-28T17:51:36Z</time>
  <course>75.52</course>
  <speed>0.08</speed>
  <fix>3d</fix>
</trkpt>
<trkpt lat="40.071365" lon="-105.2297748">
  <ele>1583.0</ele>
  <time>2026-08-28T17:51:36Z</time>
  <course>76.84</course>
  <speed>0.09055385138137417</speed>
  <fix>3d</fix>
</trkpt>
<trkpt lat="40.071365" lon="-105.2297744">
  <ele>1583.0</ele>
  <time>2026-08-28T17:51:36Z</time>
  <course>255.94</course>
  <speed>0.01</speed>
  <fix>3d</fix>
</trkpt>
<trkpt lat="40.071365" lon="-105.2297748">
  <ele>1583.01</ele>
  <time>2026-08-28T17:51:36Z</time>
  <course>76.91</course>
  <speed>0.11045361017187261</speed>
  <fix>3d</fix>
</trkpt>
<trkpt lat="40.071365" lon="-105.2297744">
  <ele>1583.0</ele>
  <time>2026-08-28T17:51:36Z</time>
  <course>255.94</course>
  <speed>0.01</speed>
  <fix>3d</fix>
</trkpt>
<trkpt lat="40.0713649" lon="-105.229775">
  <ele>1583.01</ele>
  <time>2026-08-28T17:51:36Z</time>
  <course>76.91</course>
  <speed>0.1414213562373095</speed>
  <fix>3d</fix>
</trkpt>
<trkpt lat="40.071365" lon="-105.2297745">
  <ele>1583.0</ele>
  <time>2026-08-28T17:51:36Z</time>
  <course>255.94</course>
  <speed>0.06</speed>
  <fix>3d</fix>
</trkpt>
<trkpt lat="40.0713649" lon="-105.2297751">
  <ele>1583.01</ele>
  <time>2026-08-28T17:51:36Z</time>
  <course>76.84</course>
  <speed>0.17262676501632068</speed>
  <fix>3d</fix>
</trkpt>
<trkpt lat="40.071365" lon="-105.2297745">
  <ele>1583.0</ele>
  <time>2026-08-28T17:51:36Z</time>
  <course>255.94</course>
  <speed>0.06</speed>
  <fix>3d</fix>
</trkpt>
<trkpt lat="40.0713649" lon="-105.2297752">
  <ele>1583.0</ele>
  <time>2026-08-28T17:51:36Z</time>
  <course>76.65</course>
  <speed>0.194164878389476</speed>
  <fix>3d</fix>
</trkpt>
<trkpt lat="40.0713649" lon="-105.2297748">
  <ele>1583.0</ele>
  <time>2026-08-28T17:51:36Z</time>
  <course>255.81</course>
  <speed>0.12</speed>
  <fix>3d</fix>
</trkpt>
<trkpt lat="40.0713649" lon="-105.2297754">
  <ele>1583.0</ele>
  <time>2026-08-28T17:51:36Z</time>
  <course>76.34</course>
  <speed>0.2039607805437114</speed>
  <fix>3d</fix>
</trkpt>
<trkpt lat="40.0713649" lon="-105.2297748">
  <ele>1583.0</ele>
  <time>2026-08-28T17:51:36Z</time>
  <course>255.81</course>
  <speed>0.12</speed>
  <fix>3d</fix>
</trkpt>
<trkpt lat="40.0713649" lon="-105.2297756">
  <ele>1583.01</ele>
  <time>2026-08-28T17:51:36Z</time>
  <course>75.89</course>
  <speed>0.20615528128088303</speed>
  <fix>3d</fix>
</trkpt>
<trkpt lat="40.0713649" lon="-105.229775">
  <ele>1583.0</ele>
  <time>2026-08-28T17:51:36Z</time>
  <course>255.32</course>
  <speed>0.15</speed>
  <fix>3d</fix>
</trkpt>
<trkpt lat="40.0713648" lon="-105.2297758">
  <ele>1583.01</ele>
  <time>2026-08-28T17:51:36Z</time>
  <course>75.35</course>
  <speed>0.194164878389476</speed>
  <fix>3d</fix>
</trkpt>
<trkpt lat="40.0713649" lon="-105.229775">
  <ele>1583.0</ele>
  <time>2026-08-28T17:51:36Z</time>
  <course>255.32</course>
  <speed>0.15</speed>
  <fix>3d</fix>
</trkpt>
<trkpt lat="40.0713648" lon="-105.229776">
  <ele>1583.02</ele>
  <time>2026-08-28T17:51:36Z</time>
  <course>74.76</course>
  <speed>0.1649242250247064</speed>
  <fix>3d</fix>
</trkpt>
<trkpt lat="40.0713649" lon="-105.229775">
  <ele>1583.0</ele>
  <time>2026-08-28T17:51:36Z</time>
  <course>255.32</course>
  <speed>0.15</speed>
  <fix>3d</fix>
</trkpt>
<trkpt lat="40.0713648" lon="-105.2297761">
  <ele>1583.02</ele>
  <time>2026-08-28T17:51:36Z</time>
  <course>74.24</course>
  <speed>0.12369316876852982</speed>
  <fix>3d</fix>
</trkpt>
<trkpt lat="40.0713649" lon="-105.2297753">
  <ele>1583.0</ele>
  <time>2026-08-28T17:51:36Z</time>
  <course>254.47</course>
  <speed>0.14</speed>
  <fix>3d</fix>
</trkpt>
<trkpt lat="40.0713647" lon="-105.2297762">
  <ele>1583.02</ele>
  <time>2026-08-28T17:51:36Z</time>
  <course>73.91</course>
  <speed>0.07280109889280519</speed>
  <fix>3d</fix>
</trkpt>
<trkpt lat="40.0713649" lon="-105.2297753">
  <ele>1583.0</ele>
  <time>2026-08-28T17:51:36Z</time>
  <course>254.47</course>
  <speed>0.14</speed>
  <fix>3d</fix>
</trkpt>
<trkpt lat="40.0713647" lon="-105.2297761">
  <ele>1583.02</ele>
  <time>2026-08-28T17:51:36Z</time>
  <course>73.94</course>
  <speed>0.0</speed>
  <fix>3d</fix>
</trkpt>
<trkpt lat="40.0713649" lon="-105.2297755">
  <ele>1583.0</ele>
  <time>2026-08-28T17:51:36Z</time>
  <course>253.67</course>
  <speed>0.07</speed>
  <fix>3d</fix>
</trkpt>
<trkpt lat="40.0713648" lon="-105.229776">
  <ele>1583.02</ele>
  <time>2026-08-28T17:51:36Z</time>
  <course>73.57</course>
  <speed>0.06082762530298219</speed>
  <fix>3d</fix>
</trkpt>
<trkpt lat="40.0713649" lon="-105.2297755">
  <ele>1583.0</ele>
  <time>2026-08-28T17:51:36Z</time>
  <course>253.67</course>
  <speed>0.07</speed>
  <fix>3d</fix>
</trkpt>
<trkpt lat="40.0713648" lon="-105.2297758">
  <ele>1583.02</ele>
  <time>2026-08-28T17:51:36Z</time>
  <course>72.57</course>
  <speed>0.15524174696260024</speed>
  <fix>3d</fix>
</trkpt>
<trkpt lat="40.0713649" lon="-105.2297756">
  <ele>1583.0</ele>
  <time>2026-08-28T17:51:36Z</time>
  <course>72.53</course>
  <speed>0.04</speed>
  <fix>3d</fix>
</trkpt>
<trkpt lat="40.0713648" lon="-105.2297756">
  <ele>1583.02</ele>
  <time>2026-08-28T17:51:36Z</time>
  <course>70.99</course>
  <speed>0.24041630560342614</speed>
  <fix>3d</fix>
</trkpt>
<trkpt lat="40.0713649" lon="-105.2297754">
  <ele>1583.0</ele>
  <time>2026-08-28T17:51:36Z</time>
  <course>70.79</course>
  <speed>0.2</speed>
  <fix>3d</fix>
</trkpt>
<trkpt lat="40.0713649" lon="-105.2297752">
  <ele>1583.01</ele>
  <time>2026-08-28T17:51:36Z</time>
  <course>68.85</course>
  <speed>0.3417601498127012</speed>
  <fix>3d</fix>
</trkpt>
<trkpt lat="40.0713649" lon="-105.2297754">
  <ele>1583.0</ele>
  <time>2026-08-28T17:51:36Z</time>
  <course>70.79</course>
  <speed>0.2</speed>
  <fix>3d</fix>
</trkpt>
<trkpt lat="40.071365" lon="-105.2297747">
  <ele>1583.01</ele>
  <time>2026-08-28T17:51:36Z</time>
  <course>66.13</course>
  <speed>0.425440947723653</speed>
  <fix>3d</fix>
</trkpt>
<trkpt lat="40.071365" lon="-105.2297748">
  <ele>1583.0</ele>
  <time>2026-08-28T17:51:36Z</time>
  <course>67.03</course>
  <speed>0.38</speed>
  <fix>3d</fix>
</trkpt>
<trkpt lat="40.0713653" lon="-105.2297741">
  <ele>1583.01</ele>
  <time>2026-08-28T17:51:36Z</time>
  <course>62.87</course>
  <speed>0.5188448708429139</speed>
  <fix>3d</fix>
</trkpt>
<trkpt lat="40.071365" lon="-105.2297748">
  <ele>1583.0</ele>
  <time>2026-08-28T17:51:36Z</time>
  <course>67.03</course>
  <speed>0.38</speed>
  <fix>3d</fix>
</trkpt>
<trkpt lat="40.0713655" lon="-105.2297735">
  <ele>1583.01</ele>
  <time>2026-08-28T17:51:36Z</time>
  <course>59.02</course>
  <speed>0.6053924347066124</speed>
  <fix>3d</fix>
</trkpt>
<trkpt lat="40.0713654" lon="-105.2297738">
  <ele>1583.0</ele>
  <time>2026-08-28T17:51:36Z</time>
  <course>61.04</course>
  <speed>0.56</speed>
  <fix>3d</fix>
</trkpt>
<trkpt lat="40.0713659" lon="-105.2297728">
  <ele>1583.01</ele>
  <time>2026-08-28T17:51:36Z</time>
  <course>54.64</course>
  <speed>0.6881860213634101</speed>
  <fix>3d</fix>
</trkpt>
<trkpt lat="40.0713654" lon="-105.2297738">
  <ele>1583.0</ele>
  <time>2026-08-28T17:51:36Z</time>
  <course>61.04</course>
  <speed>0.56</speed>
  <fix>3d</fix>
</trkpt>
<trkpt lat="40.0713663" lon="-105.2297721">
  <ele>1583.0</ele>
  <time>2026-08-28T17:51:36Z</time>
  <course>49.75</course>
  <speed>0.7657675887630658</speed>
  <fix>3d</fix>
</trkpt>
<trkpt lat="40.071366" lon="-105.2297725">
  <ele>1583.0</ele>
  <time>2026-08-28T17:51:36Z</time>
  <course>52.88</course>
  <speed>0.72</speed>
  <fix>3d</fix>
</trkpt>
<trkpt lat="40.0713669" lon="-105.2297713">
  <ele>1583.0</ele>
  <time>2026-08-28T17:51:36Z</time>
  <course>44.36</course>
  <speed>0.8417244204607586</speed>
  <fix>3d</fix>
</trkpt>
<trkpt lat="40.071366" lon="-105.2297725">
  <ele>1583.0</ele>
  <time>2026-08-28T17:51:36Z</time>
  <course>52.88</course>
  <speed>0.72</speed>
  <fix>3d</fix>
</trkpt>
<trkpt lat="40.0713675" lon="-105.2297706">
  <ele>1583.0</ele>
  <time>2026-08-28T17:51:36Z</time>
  <course>38.59</course>
  <speed>0.9060353193998566</speed>
  <fix>3d</fix>
</trkpt>
<trkpt lat="40.0713669" lon="-105.2297711">
  <ele>1583.0</ele>
  <time>2026-08-28T17:51:36Z</time>
  <course>42.75</course>
  <speed>0.86</speed>
  <fix>3d</fix>
</trkpt>
<trkpt lat="40.0713682" lon="-105.2297699">
  <ele>1583.0</ele>
  <time>2026-08-28T17:51:36Z</time>
  <course>32.45</course>
  <speed>0.9604165762834376</speed>
  <fix>3d</fix>
</trkpt>
<trkpt lat="40.0713669" lon="-105.2297711">
  <ele>1583.0</ele>
  <time>2026-08-28T17:51:36Z</time>
  <course>42.75</course>
  <speed>0.86</speed>
  <fix>3d</fix>
</trkpt>
<trkpt lat="40.071369" lon="-105.2297693">
  <ele>1582.99</ele>
  <time>2026-08-28T17:51:36Z</time>
  <course>26.13</course>
  <speed>1.0113357503816425</speed>
  <fix>3d</fix>
</trkpt>
<trkpt lat="40.0713683" lon="-105.2297699">
  <ele>1583.0</ele>
  <time>2026-08-28T17:51:36Z</time>
  <course>31.04</course>
  <speed>0.98</speed>
  <fix>3d</fix>
</trkpt>
<trkpt lat="40.07137" lon="-105.2297688">
  <ele>1582.99</ele>
  <time>2026-08-28T17:51:36Z</time>
  <course>19.94</course>
  <speed>1.0530432089900206</speed>
  <fix>3d</fix>
</trkpt>
<trkpt lat="40.0713683" lon="-105.2297699">
  <ele>1583.0</ele>
  <time>2026-08-28T17:51:36Z</time>
  <course>31.04</course>
  <speed>0.98</speed>
  <fix>3d</fix>
</trkpt>
<trkpt lat="40.0713709" lon="-105.2297685">
  <ele>1582.99</ele>
  <time>2026-08-28T17:51:36Z</time>
  <course>13.98</course>
  <speed>1.084665847162157</speed>
  <fix>3d</fix>
</trkpt>
<trkpt lat="40.07137" lon="-105.2297689">
  <ele>1583.0</ele>
  <time>2026-08-28T17:51:36Z</time>
  <course>18.85</course>
  <speed>1.07</speed>
  <fix>3d</fix>
</trkpt>
<trkpt lat="40.071372" lon="-105.2297683">
  <ele>1582.99</ele>
  <time>2026-08-28T17:51:36Z</time>
  <course>8.29</course>
  <speed>1.1175866856758807</speed>
  <fix>3d</fix>
</trkpt>
<trkpt lat="40.07137" lon="-105.2297689">
  <ele>1583.0</ele>
  <time>2026-08-28T17:51:36Z</time>
  <course>18.85</course>
  <speed>1.07</speed>
  <fix>3d</fix>
</trkpt>
<trkpt lat="40.071373" lon="-105.2297682">
  <ele>1582.99</ele>
  <time>2026-08-28T17:51:36Z</time>
  <course>2.94</course>
  <speed>1.140175425099138</speed>
  <fix>3d</fix>
</trkpt>
<trkpt lat="40.07137" lon="-105.2297689">
  <ele>1583.0</ele>
  <time>2026-08-28T17:51:36Z</time>
  <course>18.85</course>
  <speed>1.07</speed>
  <fix>3d</fix>
</trkpt>
<trkpt lat="40.0713741" lon="-105.2297682">
  <ele>1582.99</ele>
  <time>2026-08-28T17:51:36Z</time>
  <course>357.95</course>
  <speed>1.152128465059344</speed>
  <fix>3d</fix>
</trkpt>
<trkpt lat="40.0713719" lon="-105.2297682">
  <ele>1583.0</ele>
  <time>2026-08-28T17:51:36Z</time>
  <course>7.33</course>
  <speed>1.12</speed>
  <fix>3d</fix>
</trkpt>
<trkpt lat="40.0713751" lon="-105.2297684">
  <ele>1582.99</ele>
  <time>2026-08-28T17:51:36Z</time>
  <course>353.32</course>
  <speed>1.1526057435220423</speed>
  <fix>3d</fix>
</trkpt>
<trkpt lat="40.0713719" lon="-105.2297682">
  <ele>1583.0</ele>
  <time>2026-08-28T17:51:36Z</time>
  <course>7.33</course>
  <speed>1.12</speed>
  <fix>3d</fix>
</trkpt>
<trkpt lat="40.0713761" lon="-105.2297686">
  <ele>1582.99</ele>
  <time>2026-08-28T17:51:36Z</time>
  <course>349.07</course>
  <speed>1.1595257651298656</speed>
  <fix>3d</fix>
</trkpt>
<trkpt lat="40.0713739" lon="-105.2297682">
  <ele>1583.0</ele>
  <time>2026-08-28T17:51:36Z</time>
  <course>357.05</course>
  <speed>1.16</speed>
  <fix>3d</fix>
</trkpt>
<trkpt lat="40.0713772" lon="-105.229769">
  <ele>1582.99</ele>
  <time>2026-08-28T17:51:36Z</time>
  <course>345.19</course>
  <speed>1.1484337159801605</speed>
  <fix>3d</fix>
</trkpt>
<trkpt lat="40.0713739" lon="-105.2297682">
  <ele>1583.0</ele>
  <time>2026-08-28T17:51:36Z</time>
  <course>357.05</course>
  <speed>1.16</speed>
  <fix>3d</fix>
</trkpt>
<trkpt lat="40.0713782" lon="-105.2297694">
  <ele>1582.99</ele>
  <time>2026-08-28T17:51:36Z</time>
  <course>341.65</course>
  <speed>1.1423221962301178</speed>
  <fix>3d</fix>
</trkpt>
<trkpt lat="40.071376" lon="-105.2297685">
  <ele>1583.0</ele>
  <time>2026-08-28T17:51:36Z</time>
  <course>348.21</course>
  <speed>1.16</speed>
  <fix>3d</fix>
</trkpt>
<trkpt lat="40.0713791" lon="-105.2297698">
  <ele>1582.99</ele>
  <time>2026-08-28T17:51:36Z</time>
  <course>338.34</course>
  <speed>1.1280514172678477</speed>
  <fix>3d</fix>
</trkpt>
<trkpt lat="40.071376" lon="-105.2297685">
  <ele>1583.0</ele>
  <time>2026-08-28T17:51:36Z</time>
  <course>348.21</course>
  <speed>1.16</speed>
  <fix>3d</fix>
</trkpt>
<trkpt lat="40.07138" lon="-105.2297704">
  <ele>1582.99</ele>
  <time>2026-08-28T17:51:36Z</time>
  <course>335.21</course>
  <speed>1.113642671596235</speed>
  <fix>3d</fix>
</trkpt>
<trkpt lat="40.0713781" lon="-105.2297691">
  <ele>1583.0</ele>
  <time>2026-08-28T17:51:36Z</time>
  <course>340.74</course>
  <speed>1.15</speed>
  <fix>3d</fix>
</trkpt>
<trkpt lat="40.0713809" lon="-105.229771">
  <ele>1583.0</ele>
  <time>2026-08-28T17:51:36Z</time>
  <course>332.4</course>
  <speed>1.0977249200050074</speed>
  <fix>3d</fix>
</trkpt>
<trkpt lat="40.07138" lon="-105.2297701">
  <ele>1583.0</ele>
  <time>2026-08-28T17:51:36Z</time>
  <course>334.37</course>
  <speed>1.12</speed>
  <fix>3d</fix>
</trkpt>
<trkpt lat="40.0713818" lon="-105.2297717">
  <ele>1583.0</ele>
  <time>2026-08-28T17:51:36Z</time>
  <course>329.87</course>
  <speed>1.0707007051459339</speed>
  <fix>3d</fix>
</trkpt>
<trkpt lat="40.07138" lon="-105.2297701">
  <ele>1583.0</ele>
  <time>2026-08-28T17:51:36Z</time>
  <course>334.37</course>
  <speed>1.12</speed>
  <fix>3d</fix>
</trkpt>
<trkpt lat="40.0713826" lon="-105.2297723">
  <ele>1583.0</ele>
  <time>2026-08-28T17:51:36Z</time>
  <course>327.6</course>
  <speed>1.0486181383134663</speed>
  <fix>3d</fix>
</trkpt>
<trkpt lat="40.0713817" lon="-105.2297714">
  <ele>1583.0</ele>
  <time>2026-08-28T17:51:36Z</time>
  <course>329.0</course>
  <speed>1.08</speed>
  <fix>3d</fix>
</trkpt>
<trkpt lat="40.0713833" lon="-105.2297731">
  <ele>1583.0</ele>
  <time>2026-08-28T17:51:36Z</time>
  <course>325.52</course>
  <speed>1.0200490184299968</speed>
  <fix>3d</fix>
</trkpt>
<trkpt lat="40.0713817" lon="-105.2297714">
  <ele>1583.0</ele>
  <time>2026-08-28T17:51:36Z</time>
  <course>329.0</course>
  <speed>1.08</speed>
  <fix>3d</fix>
</trkpt>
<trkpt lat="40.0713841" lon="-105.2297738">
  <ele>1582.99</ele>
  <time>2026-08-28T17:51:36Z</time>
  <course>323.63</course>
  <speed>0.9808159868191383</speed>
  <fix>3d</fix>
</trkpt>
<trkpt lat="40.0713833" lon="-105.2297727">
  <ele>1583.0</ele>
  <time>2026-08-28T17:51:36Z</time>
  <course>324.6</course>
  <speed>1.02</speed>
  <fix>3d</fix>
</trkpt>
<trkpt lat="40.0713847" lon="-105.2297745">
  <ele>1582.99</ele>
  <time>2026-08-28T17:51:36Z</time>
  <course>321.93</course>
  <speed>0.9426027795418386</speed>
  <fix>3d</fix>
</trkpt>
<trkpt lat="40.0713833" lon="-105.2297727">
  <ele>1583.0</ele>
  <time>2026-08-28T17:51:36Z</time>
  <course>324.6</course>
  <speed>1.02</speed>
  <fix>3d</fix>
</trkpt>
<trkpt lat="40.0713854" lon="-105.2297752">
  <ele>1582.99</ele>
  <time>2026-08-28T17:51:36Z</time>
  <course>320.4</course>
  <speed>0.8987213138676527</speed>
  <fix>3d</fix>
</trkpt>
<trkpt lat="40.0713847" lon="-105.2297742">
  <ele>1583.0</ele>
  <time>2026-08-28T17:51:36Z</time>
  <course>321.01</course>
  <speed>0.95</speed>
  <fix>3d</fix>
</trkpt>
<trkpt lat="40.071386" lon="-105.2297759">
  <ele>1582.99</ele>
  <time>2026-08-28T17:51:36Z</time>
  <course>319.03</course>
  <speed>0.8556284240252892</speed>
  <fix>3d</fix>
</trkpt>
<trkpt lat="40.0713847" lon="-105.2297742">
  <ele>1583.0</ele>
  <time>2026-08-28T17:51:36Z</time>
  <course>321.01</course>
  <speed>0.95</speed>
  <fix>3d</fix>
</trkpt>
<trkpt lat="40.0713865" lon="-105.2297766">
  <ele>1582.99</ele>
  <time>2026-08-28T17:51:36Z</time>
  <course>317.78</course>
  <speed>0.7993122043357026</speed>
  <fix>3d</fix>
</trkpt>
<trkpt lat="40.0713859" lon="-105.2297756">
  <ele>1583.0</ele>
  <time>2026-08-28T17:51:36Z</time>
  <course>318.09</course>
  <speed>0.86</speed>
  <fix>3d</fix>
</trkpt>
<trkpt lat="40.071387" lon="-105.2297773">
  <ele>1582.99</ele>
  <time>2026-08-28T17:51:36Z</time>
  <course>316.65</course>
  <speed>0.7433034373659253</speed>
  <fix>3d</fix>
</trkpt>
<trkpt lat="40.0713859" lon="-105.2297756">
  <ele>1583.0</ele>
  <time>2026-08-28T17:51:36Z</time>
  <course>318.09</course>
  <speed>0.86</speed>
  <fix>3d</fix>
</trkpt>
<trkpt lat="40.0713874" lon="-105.2297779">
  <ele>1582.99</ele>
  <time>2026-08-28T17:51:36Z</time>
  <course>315.6</course>
  <speed>0.6735725647619565</speed>
  <fix>3d</fix>
</trkpt>
<trkpt lat="40.071387" lon="-105.2297768">
  <ele>1583.0</ele>
  <time>2026-08-28T17:51:36Z</time>
  <course>315.7</course>
  <speed>0.75</speed>
  <fix>3d</fix>
</trkpt>
<trkpt lat="40.0713878" lon="-105.2297784">
  <ele>1582.99</ele>
  <time>2026-08-28T17:51:36Z</time>
  <course>314.61</course>
  <speed>0.6107372593840988</speed>
  <fix>3d</fix>
</trkpt>
<trkpt lat="40.071387" lon="-105.2297768">
  <ele>1583.0</ele>
  <time>2026-08-28T17:51:36Z</time>
  <course>315.7</course>
  <speed>0.75</speed>
  <fix>3d</fix>
</trkpt>
<trkpt lat="40.0713882" lon="-105.2297789">
  <ele>1582.99</ele>
  <time>2026-08-28T17:51:36Z</time>
  <course>313.68</course>
  <speed>0.5420332093147061</speed>
  <fix>3d</fix>
</trkpt>
<trkpt lat="40.0713879" lon="-105.229778">
  <ele>1583.0</ele>
  <time>2026-08-28T17:51:36Z</time>
  <course>313.66</course>
  <speed>0.63</speed>
  <fix>3d</fix>
</trkpt>
<trkpt lat="40.0713885" lon="-105.2297794">
  <ele>1582.99</ele>
  <time>2026-08-28T17:51:36Z</time>
  <course>312.82</course>
  <speed>0.47201694884823786</speed>
  <fix>3d</fix>
</trkpt>
<trkpt lat="40.0713879" lon="-105.229778">
  <ele>1583.0</ele>
  <time>2026-08-28T17:51:36Z</time>
  <course>313.66</course>
  <speed>0.63</speed>
  <fix>3d</fix>
</trkpt>
<trkpt lat="40.0713887" lon="-105.2297798">
  <ele>1582.99</ele>
  <time>2026-08-28T17:51:36Z</time>
  <course>312.04</course>
  <speed>0.41048751503547587</speed>
  <fix>3d</fix>
</trkpt>
<trkpt lat="40.0713879" lon="-105.229778">
  <ele>1583.0</ele>
  <time>2026-08-28T17:51:36Z</time>
  <course>313.66</course>
  <speed>0.63</speed>
  <fix>3d</fix>
</trkpt>
<trkpt lat="40.0713889" lon="-105.2297801">
  <ele>1583.0</ele>
  <time>2026-08-28T17:51:36Z</time>
  <course>311.33</course>
  <speed>0.3466987164671943</speed>
  <fix>3d</fix>
</trkpt>
<trkpt lat="40.0713885" lon="-105.229779">
  <ele>1583.0</ele>
  <time>2026-08-28T17:51:36Z</time>
  <course>311.87</course>
  <speed>0.49</speed>
  <fix>3d</fix>
</trkpt>
<trkpt lat="40.0713891" lon="-105.2297804">
  <ele>1583.0</ele>
  <time>2026-08-28T17:51:36Z</time>
  <course>310.7</course>
  <speed>0.30016662039607267</speed>
  <fix>3d</fix>
</trkpt>
<trkpt lat="40.0713885" lon="-105.229779">
  <ele>1583.0</ele>
  <time>2026-08-28T17:51:36Z</time>
  <course>311.87</course>
  <speed>0.49</speed>
  <fix>3d</fix>
</trkpt>
<trkpt lat="40.0713892" lon="-105.2297807">
  <ele>1583.0</ele>
  <time>2026-08-28T17:51:36Z</time>
  <course>310.14</course>
  <speed>0.25059928172283336</speed>
  <fix>3d</fix>
</trkpt>
<trkpt lat="40.0713891" lon="-105.2297798">
  <ele>1583.0</ele>
  <time>2026-08-28T17:51:36Z</time>
  <course>310.36</course>
  <speed>0.38</speed>
  <fix>3d</fix>
</trkpt>
<trkpt lat="40.0713894" lon="-105.2297809">
  <ele>1583.01</ele>
  <time>2026-08-28T17:51:36Z</time>
  <course>309.64</course>
  <speed>0.223606797749979</speed>
  <fix>3d</fix>
</trkpt>
<trkpt lat="40.0713891" lon="-105.2297798">
  <ele>1583.0</ele>
  <time>2026-08-28T17:51:36Z</time>
  <course>310.36</course>
  <speed>0.38</speed>
  <fix>3d</fix>
</trkpt>
<trkpt lat="40.0713895" lon="-105.2297811">
  <ele>1583.01</ele>
  <time>2026-08-28T17:51:36Z</time>
  <course>309.19</course>
  <speed>0.19697715603592209</speed>
  <fix>3d</fix>
</trkpt>
<trkpt lat="40.0713895" lon="-105.2297804">
  <ele>1583.0</ele>
  <time>2026-08-28T17:51:36Z</time>
  <course>309.14</course>
  <speed>0.29</speed>
  <fix>3d</fix>
</trkpt>
<trkpt lat="40.0713896" lon="-105.2297813">
  <ele>1583.01</ele>
  <time>2026-08-28T17:51:36Z</time>
  <course>308.77</course>
  <speed>0.17464249196572978</speed>
  <fix>3d</fix>
</trkpt>
<trkpt lat="40.0713898" lon="-105.2297809">
  <ele>1583.0</ele>
  <time>2026-08-28T17:51:36Z</time>
  <course>308.15</course>
  <speed>0.23</speed>
  <fix>3d</fix>
</trkpt>
<trkpt lat="40.0713897" lon="-105.2297814">
  <ele>1583.01</ele>
  <time>2026-08-28T17:51:36Z</time>
  <course>308.48</course>
  <speed>0.1615549442140351</speed>
  <fix>3d</fix>
</trkpt>
<trkpt lat="40.0713898" lon="-105.2297809">
  <ele>1583.0</ele>
  <time>2026-08-28T17:51:36Z</time>
  <course>308.15</course>
  <speed>0.23</speed>
  <fix>3d</fix>
</trkpt>
<trkpt lat="40.0713898" lon="-105.2297816">
  <ele>1583.01</ele>
  <time>2026-08-28T17:51:36Z</time>
  <course>308.44</course>
  <speed>0.1264911064067352</speed>
  <fix>3d</fix>
</trkpt>
<trkpt lat="40.07139" lon="-105.2297813">
  <ele>1583.0</ele>
  <time>2026-08-28T17:51:36Z</time>
  <course>307.53</course>
  <speed>0.19</speed>
  <fix>3d</fix>
</trkpt>
<trkpt lat="40.0713899" lon="-105.2297817">
  <ele>1583.01</ele>
  <time>2026-08-28T17:51:36Z</time>
  <course>308.42</course>
  <speed>0.11704699910719625</speed>
  <fix>3d</fix>
</trkpt>
<trkpt lat="40.07139" lon="-105.2297813">
  <ele>1583.0</ele>
  <time>2026-08-28T17:51:36Z</time>
  <course>307.53</course>
  <speed>0.19</speed>
  <fix>3d</fix>
</trkpt>
<trkpt lat="40.0713899" lon="-105.2297818">
  <ele>1583.02</ele>
  <time>2026-08-28T17:51:36Z</time>
  <course>308.41</course>
  <speed>0.11704699910719625</speed>
  <fix>3d</fix>
</trkpt>
<trkpt lat="40.0713902" lon="-105.2297816">
  <ele>1583.0</ele>
  <time>2026-08-28T17:51:36Z</time>
  <course>307.33</course>
  <speed>0.16</speed>
  <fix>3d</fix>
</trkpt>
<trkpt lat="40.07139" lon="-105.2297819">
  <ele>1583.02</ele>
  <time>2026-08-28T17:51:36Z</time>
  <course>308.4</course>
  <speed>0.1044030650891055</speed>
  <fix>3d</fix>
</trkpt>
<trkpt lat="40.0713902" lon="-105.2297816">
  <ele>1583.0</ele>
  <time>2026-08-28T17:51:36Z</time>
  <course>307.33</course>
  <speed>0.16</speed>
  <fix>3d</fix>
</trkpt>
<trkpt lat="40.0713901" lon="-105.229782">
  <ele>1583.02</ele>
  <time>2026-08-28T17:51:36Z</time>
  <course>308.39</course>
  <speed>0.09486832980505139</speed>
  <fix>3d</fix>
</trkpt>
<trkpt lat="40.0713904" lon="-105.2297819">
  <ele>1583.0</ele>
  <time>2026-08-28T17:51:36Z</time>
  <course>307.31</course>
  <speed>0.14</speed>
  <fix>3d</fix>
</trkpt>
<trkpt lat="40.0713902" lon="-105.2297821">
  <ele>1583.01</ele>
  <time>2026-08-28T17:51:36Z</time>
  <course>308.39</course>
  <speed>0.0854400374531753</speed>
  <fix>3d</fix>
</trkpt>
<trkpt lat="40.0713904" lon="-105.2297819">
  <ele>1583.0</ele>
  <time>2026-08-28T17:51:36Z</time>
  <course>307.31</course>
  <speed>0.14</speed>
  <fix>3d</fix>
</trkpt>
<trkpt lat="40.0713902" lon="-105.2297822">
  <ele>1583.01</ele>
  <time>2026-08-28T17:51:36Z</time>
  <course>308.39</course>
  <speed>0.0824621125123532</speed>
  <fix>3d</fix>
</trkpt>
<trkpt lat="40.0713905" lon="-105.2297821">
  <ele>1583.0</ele>
  <time>2026-08-28T17:51:36Z</time>
  <course>307.3</course>
  <speed>0.13</speed>
  <fix>3d</fix>
</trkpt>
<trkpt lat="40.0713903" lon="-105.2297823">
  <ele>1583.01</ele>
  <time>2026-08-28T17:51:36Z</time>
  <course>308.39</course>
  <speed>0.07280109889280519</speed>
  <fix>3d</fix>
</trkpt>
<trkpt lat="40.0713905" lon="-105.2297821">
  <ele>1583.0</ele>
  <time>2026-08-28T17:51:36Z</time>
  <course>307.3</course>
  <speed>0.13</speed>
  <fix>3d</fix>
</trkpt>
<trkpt lat="40.0713904" lon="-105.2297824">
  <ele>1583.01</ele>
  <time>2026-08-28T17:51:36Z</time>
  <course>308.39</course>
  <speed>0.0632455532033676</speed>
  <fix>3d</fix>
</trkpt>
<trkpt lat="40.0713906" lon="-105.2297824">
  <ele>1583.0</ele>
  <time>2026-08-28T17:51:36Z</time>
  <course>307.3</course>
  <speed>0.12</speed>
  <fix>3d</fix>
</trkpt>
<trkpt lat="40.0713904" lon="-105.2297825">
  <ele>1583.01</ele>
  <time>2026-08-28T17:51:36Z</time>
  <course>308.39</course>
  <speed>0.0632455532033676</speed>
  <fix>3d</fix>
</trkpt>
<trkpt lat="40.0713906" lon="-105.2297824">
  <ele>1583.0</ele>
  <time>2026-08-28T17:51:36Z</time>
  <course>307.3</course>
  <speed>0.12</speed>
  <fix>3d</fix>
</trkpt>
<trkpt lat="40.0713905" lon="-105.2297826">
  <ele>1583.01</ele>
  <time>2026-08-28T17:51:36Z</time>
  <course>308.39</course>
  <speed>0.05099019513592785</speed>
  <fix>3d</fix>
</trkpt>
<trkpt lat="40.0713908" lon="-105.2297826">
  <ele>1583.0</ele>
  <time>2026-08-28T17:51:36Z</time>
  <course>307.3</course>
  <speed>0.1</speed>
  <fix>3d</fix>
</trkpt>
<trkpt lat="40.0713905" lon="-105.2297826">
  <ele>1583.01</ele>
  <time>2026-08-28T17:51:36Z</time>
  <course>308.39</course>
  <speed>0.05099019513592785</speed>
  <fix>3d</fix>
</trkpt>
<trkpt lat="40.0713908" lon="-105.2297826">
  <ele>1583.0</ele>
  <time>2026-08-28T17:51:36Z</time>
  <course>307.3</course>
  <speed>0.1</speed>
  <fix>3d</fix>
</trkpt>
<trkpt lat="40.0713906" lon="-105.2297827">
  <ele>1583.01</ele>
  <time>2026-08-28T17:51:36Z</time>
  <course>308.39</course>
  <speed>0.0412310562561766</speed>
  <fix>3d</fix>
</trkpt>
<trkpt lat="40.0713908" lon="-105.2297826">
  <ele>1583.0</ele>
  <time>2026-08-28T17:51:36Z</time>
  <course>307.3</course>
  <speed>0.1</speed>
  <fix>3d</fix>
</trkpt>
<trkpt lat="40.0713906" lon="-105.2297828">
  <ele>1583.01</ele>
  <time>2026-08-28T17:51:36Z</time>
  <course>308.39</course>
  <speed>0.0412310562561766</speed>
  <fix>3d</fix>
</trkpt>
<trkpt lat="40.0713909" lon="-105.2297828">
  <ele>1583.0</ele>
  <time>2026-08-28T17:51:36Z</time>
  <course>307.3</course>
  <speed>0.09</speed>
  <fix>3d</fix>
</trkpt>
<trkpt lat="40.0713907" lon="-105.2297828">
  <ele>1583.01</ele>
  <time>2026-08-28T17:51:36Z</time>
  <course>308.39</course>
  <speed>0.0316227766016838</speed>
  <fix>3d</fix>
</trkpt>
<trkpt lat="40.0713909" lon="-105.2297828">
  <ele>1583.0</ele>
  <time>2026-08-28T17:51:36Z</time>
  <course>307.3</course>
  <speed>0.09</speed>
  <fix>3d</fix>
</trkpt>
<trkpt lat="40.0713907" lon="-105.2297829">
  <ele>1583.0</ele>
  <time>2026-08-28T17:51:36Z</time>
  <course>308.39</course>
  <speed>0.0316227766016838</speed>
  <fix>3d</fix>
</trkpt>
<trkpt lat="40.071391" lon="-105.229783">
  <ele>1583.0</ele>
  <time>2026-08-28T17:51:36Z</time>
  <course>307.3</course>
  <speed>0.08</speed>
  <fix>3d</fix>
</trkpt>
<trkpt lat="40.0713908" lon="-105.229783">
  <ele>1582.99</ele>
  <time>2026-08-28T17:51:36Z</time>
  <course>308.39</course>
  <speed>0.022360679774997897</speed>
  <fix>3d</fix>
</trkpt>
<trkpt lat="40.071391" lon="-105.229783">
  <ele>1583.0</ele>
  <time>2026-08-28T17:51:36Z</time>
  <course>307.3</course>
  <speed>0.08</speed>
  <fix>3d</fix>
</trkpt>
<trkpt lat="40.0713908" lon="-105.229783">
  <ele>1582.98</ele>
  <time>2026-08-28T17:51:36Z</time>
  <course>308.39</course>
  <speed>0.022360679774997897</speed>
  <fix>3d</fix>
</trkpt>
<trkpt lat="40.0713911" lon="-105.2297831">
  <ele>1583.0</ele>
  <time>2026-08-28T17:51:36Z</time>
  <course>307.3</course>
  <speed>0.08</speed>
  <fix>3d</fix>
</trkpt>
<trkpt lat="40.0713909" lon="-105.2297831">
  <ele>1582.98</ele>
  <time>2026-08-28T17:51:36Z</time>
  <course>308.39</course>
  <speed>0.022360679774997897</speed>
  <fix>3d</fix>
</trkpt>
<trkpt lat="40.0713911" lon="-105.2297831">
  <ele>1583.0</ele>
  <time>2026-08-28T17:51:36Z</time>
  <course>307.3</course>
  <speed>0.08</speed>
  <fix>3d</fix>
</trkpt>
<trkpt lat="40.0713909" lon="-105.2297831">
  <ele>1582.97</ele>
  <time>2026-08-28T17:51:36Z</time>
  <course>308.39</course>
  <speed>0.01414213562373095</speed>
  <fix>3d</fix>
</trkpt>
<trkpt lat="40.0713912" lon="-105.2297833">
  <ele>1583.0</ele>
  <time>2026-08-28T17:51:36Z</time>
  <course>307.3</course>
  <speed>0.07</speed>
  <fix>3d</fix>
</trkpt>
<trkpt lat="40.071391" lon="-105.2297832">
  <ele>1582.97</ele>
  <time>2026-08-28T17:51:36Z</time>
  <course>308.39</course>
  <speed>0.01</speed>
  <fix>3d</fix>
</trkpt>
<trkpt lat="40.0713912" lon="-105.2297834">
  <ele>1583.0</ele>
  <time>2026-08-28T17:51:36Z</time>
  <course>307.3</course>
  <speed>0.06</speed>
  <fix>3d</fix>
</trkpt>
<trkpt lat="40.071391" lon="-105.2297832">
  <ele>1582.97</ele>
  <time>2026-08-28T17:51:36Z</time>
  <course>308.39</course>
  <speed>0.01</speed>
  <fix>3d</fix>
</trkpt>
<trkpt lat="40.0713912" lon="-105.2297834">
  <ele>1583.0</ele>
  <time>2026-08-28T17:51:36Z</time>
  <course>307.3</course>
  <speed>0.06</speed>
  <fix>3d</fix>
</trkpt>
<trkpt lat="40.071391" lon="-105.2297832">
  <ele>1582.96</ele>
  <time>2026-08-28T17:51:36Z</time>
  <course>308.39</course>
  <speed>0.0</speed>
  <fix>3d</fix>
</trkpt>
<trkpt lat="40.0713913" lon="-105.2297835">
  <ele>1583.0</ele>
  <time>2026-08-28T17:51:36Z</time>
  <course>307.3</course>
  <speed>0.05</speed>
  <fix>3d</fix>
</trkpt>
<trkpt lat="40.0713911" lon="-105.2297833">
  <ele>1582.96</ele>
  <time>2026-08-28T17:51:36Z</time>
  <course>308.39</course>
  <speed>0.0</speed>
  <fix>3d</fix>
</trkpt>
<trkpt lat="40.0713913" lon="-105.2297835">
  <ele>1583.0</ele>
  <time>2026-08-28T17:51:36Z</time>
  <course>307.3</course>
  <speed>0.05</speed>
  <fix>3d</fix>
</trkpt>
<trkpt lat="40.0713911" lon="-105.2297833">
  <ele>1582.95</ele>
  <time>2026-08-28T17:51:36Z</time>
  <course>308.39</course>
  <speed>0.0</speed>
  <fix>3d</fix>
</trkpt>
<trkpt lat="40.0713914" lon="-105.2297836">
  <ele>1583.0</ele>
  <time>2026-08-28T17:51:36Z</time>
  <course>307.3</course>
  <speed>0.05</speed>
  <fix>3d</fix>
</trkpt>
<trkpt lat="40.0713912" lon="-105.2297834">
  <ele>1582.95</ele>
  <time>2026-08-28T17:51:36Z</time>
  <course>308.39</course>
  <speed>0.0</speed>
  <fix>3d</fix>
</trkpt>
<trkpt lat="40.0713914" lon="-105.2297836">
  <ele>1583.0</ele>
  <time>2026-08-28T17:51:36Z</time>
  <course>307.3</course>
  <speed>0.05</speed>
  <fix>3d</fix>
</trkpt>
<trkpt lat="40.0713912" lon="-105.2297834">
  <ele>1582.94</ele>
  <time>2026-08-28T17:51:36Z</time>
  <course>308.39</course>
  <speed>0.0</speed>
  <fix>3d</fix>
</trkpt>
<trkpt lat="40.0713915" lon="-105.2297837">
  <ele>1583.0</ele>
  <time>2026-08-28T17:51:36Z</time>
  <course>307.3</course>
  <speed>0.04</speed>
  <fix>3d</fix>
</trkpt>
<trkpt lat="40.0713912" lon="-105.2297835">
  <ele>1582.94</ele>
  <time>2026-08-28T17:51:36Z</time>
  <course>308.39</course>
  <speed>0.0</speed>
  <fix>3d</fix>
</trkpt>
<trkpt lat="40.0713915" lon="-105.2297837">
  <ele>1583.0</ele>
  <time>2026-08-28T17:51:36Z</time>
  <course>307.3</course>
  <speed>0.04</speed>
  <fix>3d</fix>
</trkpt>
<trkpt lat="40.0713913" lon="-105.2297835">
  <ele>1582.94</ele>
  <time>2026-08-28T17:51:36Z</time>
  <course>308.39</course>
  <speed>0.0</speed>
  <fix>3d</fix>
</trkpt>
<trkpt lat="40.0713915" lon="-105.2297838">
  <ele>1583.0</ele>
  <time>2026-08-28T17:51:36Z</time>
  <course>307.3</course>
  <speed>0.04</speed>
  <fix>3d</fix>
</trkpt>
<trkpt lat="40.0713913" lon="-105.2297835">
  <ele>1582.94</ele>
  <time>2026-08-28T17:51:36Z</time>
  <course>308.39</course>
  <speed>0.0</speed>
  <fix>3d</fix>
</trkpt>
<trkpt lat="40.0713915" lon="-105.2297838">
  <ele>1583.0</ele>
  <time>2026-08-28T17:51:36Z</time>
  <course>307.3</course>
  <speed>0.04</speed>
  <fix>3d</fix>
</trkpt>
<trkpt lat="39.655741" lon="-104.1383097">
  <ele>1566.58</ele>
  <time>2026-08-28T17:51:37Z</time>
  <course>0.0</course>
  <speed>0.0</speed>
  <fix>3d</fix>
</trkpt>
<trkpt lat="40.0713749" lon="-105.229789">
  <ele>1583.0</ele>
  <time>2026-08-28T17:51:37Z</time>
  <course>238.36</course>
  <speed>0.0</speed>
  <fix>3d</fix>
</trkpt>
<trkpt lat="40.0713749" lon="-105.229789">
  <ele>1583.0</ele>
  <time>2026-08-28T17:51:37Z</time>
  <course>0.0</course>
  <speed>0.0</speed>
  <fix>3d</fix>
</trkpt>
<trkpt lat="40.0713749" lon="-105.229789">
  <ele>1583.0</ele>
  <time>2026-08-28T17:51:37Z</time>
  <course>238.36</course>
  <speed>0.0</speed>
  <fix>3d</fix>
</trkpt>
<trkpt lat="40.0713749" lon="-105.229789">
  <ele>1583.0</ele>
  <time>2026-08-28T17:51:37Z</time>
  <course>0.0</course>
  <speed>0.0</speed>
  <fix>3d</fix>
</trkpt>
<trkpt lat="40.0713749" lon="-105.229789">
  <ele>1583.0</ele>
  <time>2026-08-28T17:51:37Z</time>
  <course>238.47</course>
  <speed>0.0</speed>
  <fix>3d</fix>
</trkpt>
<trkpt lat="40.0713749" lon="-105.229789">
  <ele>1583.0</ele>
  <time>2026-08-28T17:51:37Z</time>
  <course>0.0</course>
  <speed>0.0</speed>
  <fix>3d</fix>
</trkpt>
<trkpt lat="40.0713749" lon="-105.229789">
  <ele>1583.0</ele>
  <time>2026-08-28T17:51:37Z</time>
  <course>238.69</course>
  <speed>0.0</speed>
  <fix>3d</fix>
</trkpt>
<trkpt lat="40.0713749" lon="-105.229789">
  <ele>1583.0</ele>
  <time>2026-08-28T17:51:37Z</time>
  <course>0.0</course>
  <speed>0.0</speed>
  <fix>3d</fix>
</trkpt>
<trkpt lat="40.0713749" lon="-105.229789">
  <ele>1583.0</ele>
  <time>2026-08-28T17:51:37Z</time>
  <course>238.98</course>
  <speed>0.0</speed>
  <fix>3d</fix>
</trkpt>
<trkpt lat="40.0713749" lon="-105.229789">
  <ele>1583.0</ele>
  <time>2026-08-28T17:51:37Z</time>
  <course>0.0</course>
  <speed>0.0</speed>
  <fix>3d</fix>
</trkpt>
<trkpt lat="40.0713749" lon="-105.229789">
  <ele>1583.0</ele>
  <time>2026-08-28T17:51:37Z</time>
  <course>239.32</course>
  <speed>0.0</speed>
  <fix>3d</fix>
</trkpt>
<trkpt lat="40.0713749" lon="-105.229789">
  <ele>1583.0</ele>
  <time>2026-08-28T17:51:37Z</time>
  <course>0.0</course>
  <speed>0.0</speed>
  <fix>3d</fix>
</trkpt>
<trkpt lat="40.0713749" lon="-105.229789">
  <ele>1583.0</ele>
  <time>2026-08-28T17:51:37Z</time>
  <course>239.67</course>
  <speed>0.0</speed>
  <fix>3d</fix>
</trkpt>
<trkpt lat="40.0713749" lon="-105.229789">
  <ele>1583.0</ele>
  <time>2026-08-28T17:51:37Z</time>
  <course>0.0</course>
  <speed>0.0</speed>
  <fix>3d</fix>
</trkpt>
<trkpt lat="40.0713749" lon="-105.229789">
  <ele>1583.0</ele>
  <time>2026-08-28T17:51:37Z</time>
  <course>240.02</course>
  <speed>0.0</speed>
  <fix>3d</fix>
</trkpt>
<trkpt lat="40.0713749" lon="-105.229789">
  <ele>1583.0</ele>
  <time>2026-08-28T17:51:37Z</time>
  <course>0.0</course>
  <speed>0.0</speed>
  <fix>3d</fix>
</trkpt>
<trkpt lat="40.0713749" lon="-105.229789">
  <ele>1583.0</ele>
  <time>2026-08-28T17:51:37Z</time>
  <course>240.35</course>
  <speed>0.0</speed>
  <fix>3d</fix>
</trkpt>
<trkpt lat="40.0713749" lon="-105.229789">
  <ele>1583.0</ele>
  <time>2026-08-28T17:51:37Z</time>
  <course>0.0</course>
  <speed>0.0</speed>
  <fix>3d</fix>
</trkpt>
<trkpt lat="40.0713749" lon="-105.229789">
  <ele>1583.0</ele>
  <time>2026-08-28T17:51:37Z</time>
  <course>240.61</course>
  <speed>0.0</speed>
  <fix>3d</fix>
</trkpt>
<trkpt lat="40.0713749" lon="-105.229789">
  <ele>1583.0</ele>
  <time>2026-08-28T17:51:37Z</time>
  <course>0.0</course>
  <speed>0.0</speed>
  <fix>3d</fix>
</trkpt>
<trkpt lat="40.0713749" lon="-105.229789">
  <ele>1583.0</ele>
  <time>2026-08-28T17:51:37Z</time>
  <course>240.92</course>
  <speed>0.0</speed>
  <fix>3d</fix>
</trkpt>
<trkpt lat="40.0713749" lon="-105.229789">
  <ele>1583.0</ele>
  <time>2026-08-28T17:51:37Z</time>
  <course>0.0</course>
  <speed>0.0</speed>
  <fix>3d</fix>
</trkpt>
<trkpt lat="40.0713749" lon="-105.229789">
  <ele>1583.0</ele>
  <time>2026-08-28T17:51:37Z</time>
  <course>241.21</course>
  <speed>0.0</speed>
  <fix>3d</fix>
</trkpt>
<trkpt lat="40.0713749" lon="-105.229789">
  <ele>1583.0</ele>
  <time>2026-08-28T17:51:37Z</time>
  <course>0.0</course>
  <speed>0.0</speed>
  <fix>3d</fix>
</trkpt>
<trkpt lat="40.0713749" lon="-105.229789">
  <ele>1583.0</ele>
  <time>2026-08-28T17:51:37Z</time>
  <course>241.49</course>
  <speed>0.0</speed>
  <fix>3d</fix>
</trkpt>
<trkpt lat="40.0713749" lon="-105.229789">
  <ele>1583.0</ele>
  <time>2026-08-28T17:51:37Z</time>
  <course>0.0</course>
  <speed>0.0</speed>
  <fix>3d</fix>
</trkpt>
<trkpt lat="40.0713749" lon="-105.229789">
  <ele>1583.0</ele>
  <time>2026-08-28T17:51:37Z</time>
  <course>241.77</course>
  <speed>0.0</speed>
  <fix>3d</fix>
</trkpt>
<trkpt lat="40.0713749" lon="-105.229789">
  <ele>1583.0</ele>
  <time>2026-08-28T17:51:37Z</time>
  <course>0.0</course>
  <speed>0.0</speed>
  <fix>3d</fix>
</trkpt>
<trkpt lat="40.0713749" lon="-105.229789">
  <ele>1583.0</ele>
  <time>2026-08-28T17:51:37Z</time>
  <course>242.03</course>
  <speed>0.0</speed>
  <fix>3d</fix>
</trkpt>
<trkpt lat="40.0713749" lon="-105.229789">
  <ele>1583.0</ele>
  <time>2026-08-28T17:51:37Z</time>
  <course>0.0</course>
  <speed>0.0</speed>
  <fix>3d</fix>
</trkpt>
<trkpt lat="40.0713749" lon="-105.229789">
  <ele>1583.0</ele>
  <time>2026-08-28T17:51:37Z</time>
  <course>242.29</course>
  <speed>0.0</speed>
  <fix>3d</fix>
</trkpt>
<trkpt lat="40.0713749" lon="-105.229789">
  <ele>1583.0</ele>
  <time>2026-08-28T17:51:37Z</time>
  <course>0.0</course>
  <speed>0.0</speed>
  <fix>3d</fix>
</trkpt>
<trkpt lat="40.0713749" lon="-105.229789">
  <ele>1583.0</ele>
  <time>2026-08-28T17:51:37Z</time>
  <course>242.54</course>
  <speed>0.0</speed>
  <fix>3d</fix>
</trkpt>
<trkpt lat="40.0713749" lon="-105.229789">
  <ele>1583.0</ele>
  <time>2026-08-28T17:51:37Z</time>
  <course>0.0</course>
  <speed>0.0</speed>
  <fix>3d</fix>
</trkpt>
<trkpt lat="40.0713749" lon="-105.229789">
  <ele>1583.0</ele>
  <time>2026-08-28T17:51:37Z</time>
  <course>242.79</course>
  <speed>0.0</speed>
  <fix>3d</fix>
</trkpt>
<trkpt lat="40.0713749" lon="-105.229789">
  <ele>1583.0</ele>
  <time>2026-08-28T17:51:37Z</time>
  <course>0.0</course>
  <speed>0.0</speed>
  <fix>3d</fix>
</trkpt>
<trkpt lat="40.0713749" lon="-105.229789">
  <ele>1583.0</ele>
  <time>2026-08-28T17:51:37Z</time>
  <course>243.02</course>
  <speed>0.0</speed>
  <fix>3d</fix>
</trkpt>
<trkpt lat="40.0713749" lon="-105.229789">
  <ele>1583.0</ele>
  <time>2026-08-28T17:51:37Z</time>
  <course>0.0</course>
  <speed>0.0</speed>
  <fix>3d</fix>
</trkpt>
<trkpt lat="40.0713749" lon="-105.229789">
  <ele>1583.0</ele>
  <time>2026-08-28T17:51:37Z</time>
  <course>243.29</course>
  <speed>0.0</speed>
  <fix>3d</fix>
</trkpt>
<trkpt lat="40.0713749" lon="-105.229789">
  <ele>1583.0</ele>
  <time>2026-08-28T17:51:37Z</time>
  <course>0.0</course>
  <speed>0.0</speed>
  <fix>3d</fix>
</trkpt>
<trkpt lat="40.0713749" lon="-105.229789">
  <ele>1583.0</ele>
  <time>2026-08-28T17:51:37Z</time>
  <course>243.51</course>
  <speed>0.0</speed>
  <fix>3d</fix>
</trkpt>
<trkpt lat="40.0713749" lon="-105.229789">
  <ele>1583.0</ele>
  <time>2026-08-28T17:51:37Z</time>
  <course>0.0</course>
  <speed>0.0</speed>
  <fix>3d</fix>
</trkpt>
<trkpt lat="40.0713749" lon="-105.229789">
  <ele>1583.0</ele>
  <time>2026-08-28T17:51:37Z</time>
  <course>243.72</course>
  <speed>0.0</speed>
  <fix>3d</fix>
</trkpt>
<trkpt lat="40.0713749" lon="-105.229789">
  <ele>1583.0</ele>
  <time>2026-08-28T17:51:37Z</time>
  <course>0.0</course>
  <speed>0.0</speed>
  <fix>3d</fix>
</trkpt>
<trkpt lat="40.0713749" lon="-105.229789">
  <ele>1583.0</ele>
  <time>2026-08-28T17:51:37Z</time>
  <course>243.93</course>
  <speed>0.0</speed>
  <fix>3d</fix>
</trkpt>
<trkpt lat="40.0713749" lon="-105.229789">
  <ele>1583.0</ele>
  <time>2026-08-28T17:51:37Z</time>
  <course>0.0</course>
  <speed>0.0</speed>
  <fix>3d</fix>
</trkpt>
<trkpt lat="40.0713749" lon="-105.229789">
  <ele>1583.0</ele>
  <time>2026-08-28T17:51:37Z</time>
  <course>244.12</course>
  <speed>0.0</speed>
  <fix>3d</fix>
</trkpt>
<trkpt lat="40.0713749" lon="-105.229789">
  <ele>1583.0</ele>
  <time>2026-08-28T17:51:37Z</time>
  <course>0.0</course>
  <speed>0.0</speed>
  <fix>3d</fix>
</trkpt>
<trkpt lat="40.0713749" lon="-105.229789">
  <ele>1583.0</ele>
  <time>2026-08-28T17:51:37Z</time>
  <course>244.31</course>
  <speed>0.0</speed>
  <fix>3d</fix>
</trkpt>
<trkpt lat="40.0713749" lon="-105.229789">
  <ele>1583.0</ele>
  <time>2026-08-28T17:51:37Z</time>
  <course>0.0</course>
  <speed>0.0</speed>
  <fix>3d</fix>
</trkpt>
<trkpt lat="40.0713749" lon="-105.229789">
  <ele>1583.0</ele>
  <time>2026-08-28T17:51:37Z</time>
  <course>244.5</course>
  <speed>0.0</speed>
  <fix>3d</fix>
</trkpt>
<trkpt lat="40.0713749" lon="-105.229789">
  <ele>1583.0</ele>
  <time>2026-08-28T17:51:37Z</time>
  <course>0.0</course>
  <speed>0.0</speed>
  <fix>3d</fix>
</trkpt>
<trkpt lat="40.0713749" lon="-105.229789">
  <ele>1583.0</ele>
  <time>2026-08-28T17:51:37Z</time>
  <course>244.67</course>
  <speed>0.0</speed>
  <fix>3d</fix>
</trkpt>
<trkpt lat="40.0713749" lon="-105.229789">
  <ele>1583.0</ele>
  <time>2026-08-28T17:51:37Z</time>
  <course>0.0</course>
  <speed>0.0</speed>
  <fix>3d</fix>
</trkpt>
<trkpt lat="40.0713749" lon="-105.229789">
  <ele>1583.0</ele>
  <time>2026-08-28T17:51:37Z</time>
  <course>244.84</course>
  <speed>0.0</speed>
  <fix>3d</fix>
</trkpt>
<trkpt lat="40.0713749" lon="-105.229789">
  <ele>1583.0</ele>
  <time>2026-08-28T17:51:37Z</time>
  <course>0.0</course>
  <speed>0.0</speed>
  <fix>3d</fix>
</trkpt>
<trkpt lat="40.0713749" lon="-105.229789">
  <ele>1583.0</ele>
  <time>2026-08-28T17:51:37Z</time>
  <course>245.01</course>
  <speed>0.0</speed>
  <fix>3d</fix>
</trkpt>
<trkpt lat="40.0713749" lon="-105.229789">
  <ele>1583.0</ele>
  <time>2026-08-28T17:51:37Z</time>
  <course>0.0</course>
  <speed>0.0</speed>
  <fix>3d</fix>
</trkpt>
<trkpt lat="40.0713749" lon="-105.229789">
  <ele>1583.0</ele>
  <time>2026-08-28T17:51:37Z</time>
  <course>245.16</course>
  <speed>0.0</speed>
  <fix>3d</fix>
</trkpt>
<trkpt lat="40.0713749" lon="-105.229789">
  <ele>1583.0</ele>
  <time>2026-08-28T17:51:37Z</time>
  <course>0.0</course>
  <speed>0.0</speed>
  <fix>3d</fix>
</trkpt>
<trkpt lat="40.0713749" lon="-105.229789">
  <ele>1583.0</ele>
  <time>2026-08-28T17:51:37Z</time>
  <course>245.29</course>
  <speed>0.0</speed>
  <fix>3d</fix>
</trkpt>
<trkpt lat="40.0713749" lon="-105.229789">
  <ele>1583.0</ele>
  <time>2026-08-28T17:51:37Z</time>
  <course>0.0</course>
  <speed>0.0</speed>
  <fix>3d</fix>
</trkpt>
<trkpt lat="40.0713749" lon="-105.229789">
  <ele>1583.0</ele>
  <time>2026-08-28T17:51:37Z</time>
  <course>245.43</course>
  <speed>0.0</speed>
  <fix>3d</fix>
</trkpt>
<trkpt lat="40.0713749" lon="-105.229789">
  <ele>1583.0</ele>
  <time>2026-08-28T17:51:37Z</time>
  <course>0.0</course>
  <speed>0.0</speed>
  <fix>3d</fix>
</trkpt>
<trkpt lat="40.0713749" lon="-105.229789">
  <ele>1583.0</ele>
  <time>2026-08-28T17:51:37Z</time>
  <course>245.57</course>
  <speed>0.0</speed>
  <fix>3d</fix>
</trkpt>
<trkpt lat="40.0713749" lon="-105.229789">
  <ele>1583.0</ele>
  <time>2026-08-28T17:51:37Z</time>
  <course>0.0</course>
  <speed>0.0</speed>
  <fix>3d</fix>
</trkpt>
<trkpt lat="40.0713749" lon="-105.229789">
  <ele>1583.0</ele>
  <time>2026-08-28T17:51:37Z</time>
  <course>245.71</course>
  <speed>0.0</speed>
  <fix>3d</fix>
</trkpt>
<trkpt lat="40.0713749" lon="-105.229789">
  <ele>1583.0</ele>
  <time>2026-08-28T17:51:37Z</time>
  <course>0.0</course>
  <speed>0.0</speed>
  <fix>3d</fix>
</trkpt>
<trkpt lat="40.0713749" lon="-105.229789">
  <ele>1583.0</ele>
  <time>2026-08-28T17:51:37Z</time>
  <course>245.84</course>
  <speed>0.0</speed>
  <fix>3d</fix>
</trkpt>
<trkpt lat="40.0713749" lon="-105.229789">
  <ele>1583.0</ele>
  <time>2026-08-28T17:51:37Z</time>
  <course>0.0</course>
  <speed>0.0</speed>
  <fix>3d</fix>
</trkpt>
<trkpt lat="40.0713749" lon="-105.229789">
  <ele>1583.0</ele>
  <time>2026-08-28T17:51:37Z</time>
  <course>245.96</course>
  <speed>0.0</speed>
  <fix>3d</fix>
</trkpt>
<trkpt lat="40.0713749" lon="-105.229789">
  <ele>1583.0</ele>
  <time>2026-08-28T17:51:37Z</time>
  <course>0.0</course>
  <speed>0.0</speed>
  <fix>3d</fix>
</trkpt>
<trkpt lat="40.0713749" lon="-105.229789">
  <ele>1583.0</ele>
  <time>2026-08-28T17:51:37Z</time>
  <course>246.08</course>
  <speed>0.0</speed>
  <fix>3d</fix>
</trkpt>
<trkpt lat="40.0713749" lon="-105.229789">
  <ele>1583.0</ele>
  <time>2026-08-28T17:51:37Z</time>
  <course>0.0</course>
  <speed>0.0</speed>
  <fix>3d</fix>
</trkpt>
<trkpt lat="40.0713749" lon="-105.229789">
  <ele>1583.0</ele>
  <time>2026-08-28T17:51:37Z</time>
  <course>246.19</course>
  <speed>0.0</speed>
  <fix>3d</fix>
</trkpt>
<trkpt lat="40.0713749" lon="-105.229789">
  <ele>1583.0</ele>
  <time>2026-08-28T17:51:37Z</time>
  <course>0.0</course>
  <speed>0.0</speed>
  <fix>3d</fix>
</trkpt>
<trkpt lat="40.0713749" lon="-105.229789">
  <ele>1583.0</ele>
  <time>2026-08-28T17:51:37Z</time>
  <course>246.3</course>
  <speed>0.0</speed>
  <fix>3d</fix>
</trkpt>
<trkpt lat="40.0713749" lon="-105.229789">
  <ele>1583.0</ele>
  <time>2026-08-28T17:51:37Z</time>
  <course>0.0</course>
  <speed>0.0</speed>
  <fix>3d</fix>
</trkpt>
<trkpt lat="40.0713749" lon="-105.229789">
  <ele>1583.0</ele>
  <time>2026-08-28T17:51:37Z</time>
  <course>246.41</course>
  <speed>0.0</speed>
  <fix>3d</fix>
</trkpt>
<trkpt lat="40.0713749" lon="-105.229789">
  <ele>1583.0</ele>
  <time>2026-08-28T17:51:37Z</time>
  <course>0.0</course>
  <speed>0.0</speed>
  <fix>3d</fix>
</trkpt>
<trkpt lat="40.0713749" lon="-105.229789">
  <ele>1583.0</ele>
  <time>2026-08-28T17:51:37Z</time>
  <course>246.53</course>
  <speed>0.0</speed>
  <fix>3d</fix>
</trkpt>
<trkpt lat="40.0713749" lon="-105.229789">
  <ele>1583.0</ele>
  <time>2026-08-28T17:51:37Z</time>
  <course>0.0</course>
  <speed>0.0</speed>
  <fix>3d</fix>
</trkpt>
<trkpt lat="40.0713749" lon="-105.229789">
  <ele>1583.0</ele>
  <time>2026-08-28T17:51:37Z</time>
  <course>246.62</course>
  <speed>0.0</speed>
  <fix>3d</fix>
</trkpt>
<trkpt lat="40.0713749" lon="-105.229789">
  <ele>1583.0</ele>
  <time>2026-08-28T17:51:37Z</time>
  <course>0.0</course>
  <speed>0.0</speed>
  <fix>3d</fix>
</trkpt>
<trkpt lat="40.0713749" lon="-105.229789">
  <ele>1583.0</ele>
  <time>2026-08-28T17:51:37Z</time>
  <course>246.71</course>
  <speed>0.0</speed>
  <fix>3d</fix>
</trkpt>
<trkpt lat="40.0713749" lon="-105.229789">
  <ele>1583.0</ele>
  <time>2026-08-28T17:51:37Z</time>
  <course>0.0</course>
  <speed>0.0</speed>
  <fix>3d</fix>
</trkpt>
<trkpt lat="40.0713749" lon="-105.229789">
  <ele>1583.0</ele>
  <time>2026-08-28T17:51:37Z</time>
  <course>246.8</course>
  <speed>0.0</speed>
  <fix>3d</fix>
</trkpt>
<trkpt lat="40.0713749" lon="-105.229789">
  <ele>1583.0</ele>
  <time>2026-08-28T17:51:37Z</time>
  <course>0.0</course>
  <speed>0.0</speed>
  <fix>3d</fix>
</trkpt>
<trkpt lat="40.0713749" lon="-105.229789">
  <ele>1583.0</ele>
  <time>2026-08-28T17:51:37Z</time>
  <course>246.88</course>
  <speed>0.0</speed>
  <fix>3d</fix>
</trkpt>
<trkpt lat="40.0713749" lon="-105.229789">
  <ele>1583.0</ele>
  <time>2026-08-28T17:51:37Z</time>
  <course>0.0</course>
  <speed>0.0</speed>
  <fix>3d</fix>
</trkpt>
<trkpt lat="40.0713749" lon="-105.229789">
  <ele>1583.0</ele>
  <time>2026-08-28T17:51:37Z</time>
  <course>246.96</course>
  <speed>0.0</speed>
  <fix>3d</fix>
</trkpt>
<trkpt lat="40.0713749" lon="-105.229789">
  <ele>1583.0</ele>
  <time>2026-08-28T17:51:37Z</time>
  <course>0.0</course>
  <speed>0.0</speed>
  <fix>3d</fix>
</trkpt>
<trkpt lat="40.0713749" lon="-105.229789">
  <ele>1583.0</ele>
  <time>2026-08-28T17:51:37Z</time>
  <course>247.04</course>
  <speed>0.0</speed>
  <fix>3d</fix>
</trkpt>
<trkpt lat="40.0713749" lon="-105.229789">
  <ele>1583.0</ele>
  <time>2026-08-28T17:51:37Z</time>
  <course>0.0</course>
  <speed>0.0</speed>
  <fix>3d</fix>
</trkpt>
<trkpt lat="40.0713749" lon="-105.229789">
  <ele>1583.0</ele>
  <time>2026-08-28T17:51:37Z</time>
  <course>247.11</course>
  <speed>0.0</speed>
  <fix>3d</fix>
</trkpt>
<trkpt lat="40.0713749" lon="-105.229789">
  <ele>1583.0</ele>
  <time>2026-08-28T17:51:37Z</time>
  <course>0.0</course>
  <speed>0.0</speed>
  <fix>3d</fix>
</trkpt>
<trkpt lat="40.0713749" lon="-105.229789">
  <ele>1583.0</ele>
  <time>2026-08-28T17:51:37Z</time>
  <course>247.18</course>
  <speed>0.0</speed>
  <fix>3d</fix>
</trkpt>
<trkpt lat="40.0713749" lon="-105.229789">
  <ele>1583.0</ele>
  <time>2026-08-28T17:51:37Z</time>
  <course>0.0</course>
  <speed>0.0</speed>
  <fix>3d</fix>
</trkpt>
<trkpt lat="40.0713749" lon="-105.229789">
  <ele>1583.0</ele>
  <time>2026-08-28T17:51:37Z</time>
  <course>247.25</course>
  <speed>0.0</speed>
  <fix>3d</fix>
</trkpt>
<trkpt lat="40.0713749" lon="-105.229789">
  <ele>1583.0</ele>
  <time>2026-08-28T17:51:37Z</time>
  <course>0.0</course>
  <speed>0.0</speed>
  <fix>3d</fix>
</trkpt>
<trkpt lat="40.0713749" lon="-105.229789">
  <ele>1583.0</ele>
  <time>2026-08-28T17:51:37Z</time>
  <course>247.31</course>
  <speed>0.0</speed>
  <fix>3d</fix>
</trkpt>
<trkpt lat="40.0713749" lon="-105.229789">
  <ele>1583.0</ele>
  <time>2026-08-28T17:51:37Z</time>
  <course>0.0</course>
  <speed>0.0</speed>
  <fix>3d</fix>
</trkpt>
<trkpt lat="40.0713749" lon="-105.229789">
  <ele>1583.0</ele>
  <time>2026-08-28T17:51:37Z</time>
  <course>247.36</course>
  <speed>0.0</speed>
  <fix>3d</fix>
</trkpt>
<trkpt lat="40.0713749" lon="-105.229789">
  <ele>1583.0</ele>
  <time>2026-08-28T17:51:37Z</time>
  <course>0.0</course>
  <speed>0.0</speed>
  <fix>3d</fix>
</trkpt>
<trkpt lat="40.0713749" lon="-105.229789">
  <ele>1583.0</ele>
  <time>2026-08-28T17:51:37Z</time>
  <course>247.42</course>
  <speed>0.0</speed>
  <fix>3d</fix>
</trkpt>
<trkpt lat="40.0713749" lon="-105.229789">
  <ele>1583.0</ele>
  <time>2026-08-28T17:51:37Z</time>
  <course>0.0</course>
  <speed>0.0</speed>
  <fix>3d</fix>
</trkpt>
<trkpt lat="40.0713749" lon="-105.229789">
  <ele>1583.0</ele>
  <time>2026-08-28T17:51:37Z</time>
  <course>247.47</course>
  <speed>0.0</speed>
  <fix>3d</fix>
</trkpt>
<trkpt lat="40.0713749" lon="-105.229789">
  <ele>1583.0</ele>
  <time>2026-08-28T17:51:37Z</time>
  <course>0.0</course>
  <speed>0.0</speed>
  <fix>3d</fix>
</trkpt>
<trkpt lat="40.0713749" lon="-105.229789">
  <ele>1583.0</ele>
  <time>2026-08-28T17:51:37Z</time>
  <course>247.53</course>
  <speed>0.0</speed>
  <fix>3d</fix>
</trkpt>
<trkpt lat="40.0713749" lon="-105.229789">
  <ele>1583.0</ele>
  <time>2026-08-28T17:51:37Z</time>
  <course>0.0</course>
  <speed>0.0</speed>
  <fix>3d</fix>
</trkpt>
<trkpt lat="40.0713749" lon="-105.229789">
  <ele>1583.0</ele>
  <time>2026-08-28T17:51:37Z</time>
  <course>247.58</course>
  <speed>0.0</speed>
  <fix>3d</fix>
</trkpt>
<trkpt lat="40.0713749" lon="-105.229789">
  <ele>1583.0</ele>
  <time>2026-08-28T17:51:37Z</time>
  <course>0.0</course>
  <speed>0.0</speed>
  <fix>3d</fix>
</trkpt>
<trkpt lat="40.0713749" lon="-105.229789">
  <ele>1583.0</ele>
  <time>2026-08-28T17:51:37Z</time>
  <course>247.63</course>
  <speed>0.0</speed>
  <fix>3d</fix>
</trkpt>
<trkpt lat="40.0713749" lon="-105.229789">
  <ele>1583.0</ele>
  <time>2026-08-28T17:51:37Z</time>
  <course>0.0</course>
  <speed>0.0</speed>
  <fix>3d</fix>
</trkpt>
<trkpt lat="40.0713749" lon="-105.229789">
  <ele>1583.0</ele>
  <time>2026-08-28T17:51:37Z</time>
  <course>247.67</course>
  <speed>0.0</speed>
  <fix>3d</fix>
</trkpt>
<trkpt lat="40.0713749" lon="-105.229789">
  <ele>1583.0</ele>
  <time>2026-08-28T17:51:37Z</time>
  <course>0.0</course>
  <speed>0.0</speed>
  <fix>3d</fix>
</trkpt>
<trkpt lat="40.0713749" lon="-105.229789">
  <ele>1583.0</ele>
  <time>2026-08-28T17:51:37Z</time>
  <course>247.72</course>
  <speed>0.0</speed>
  <fix>3d</fix>
</trkpt>
<trkpt lat="40.0713749" lon="-105.229789">
  <ele>1583.0</ele>
  <time>2026-08-28T17:51:37Z</time>
  <course>0.0</course>
  <speed>0.0</speed>
  <fix>3d</fix>
</trkpt>
<trkpt lat="40.0713749" lon="-105.229789">
  <ele>1583.0</ele>
  <time>2026-08-28T17:51:37Z</time>
  <course>247.76</course>
  <speed>0.0</speed>
  <fix>3d</fix>
</trkpt>
<trkpt lat="40.0713749" lon="-105.229789">
  <ele>1583.0</ele>
  <time>2026-08-28T17:51:37Z</time>
  <course>0.0</course>
  <speed>0.0</speed>
  <fix>3d</fix>
</trkpt>
<trkpt lat="40.0713749" lon="-105.229789">
  <ele>1583.0</ele>
  <time>2026-08-28T17:51:37Z</time>
  <course>247.81</course>
  <speed>0.0</speed>
  <fix>3d</fix>
</trkpt>
<trkpt lat="40.0713749" lon="-105.229789">
  <ele>1583.0</ele>
  <time>2026-08-28T17:51:37Z</time>
  <course>0.0</course>
  <speed>0.0</speed>
  <fix>3d</fix>
</trkpt>
<trkpt lat="40.0713749" lon="-105.229789">
  <ele>1583.0</ele>
  <time>2026-08-28T17:51:37Z</time>
  <course>247.84</course>
  <speed>0.0</speed>
  <fix>3d</fix>
</trkpt>
<trkpt lat="40.0713749" lon="-105.229789">
  <ele>1583.0</ele>
  <time>2026-08-28T17:51:37Z</time>
  <course>0.0</course>
  <speed>0.0</speed>
  <fix>3d</fix>
</trkpt>
<trkpt lat="40.0713749" lon="-105.229789">
  <ele>1583.0</ele>
  <time>2026-08-28T17:51:37Z</time>
  <course>247.88</course>
  <speed>0.0</speed>
  <fix>3d</fix>
</trkpt>
<trkpt lat="40.0713749" lon="-105.229789">
  <ele>1583.0</ele>
  <time>2026-08-28T17:51:37Z</time>
  <course>0.0</course>
  <speed>0.0</speed>
  <fix>3d</fix>
</trkpt>
<trkpt lat="40.0713749" lon="-105.229789">
  <ele>1583.0</ele>
  <time>2026-08-28T17:51:37Z</time>
  <course>247.91</course>
  <speed>0.0</speed>
  <fix>3d</fix>
</trkpt>
<trkpt lat="40.0713749" lon="-105.229789">
  <ele>1583.0</ele>
  <time>2026-08-28T17:51:37Z</time>
  <course>0.0</course>
  <speed>0.0</speed>
  <fix>3d</fix>
</trkpt>
<trkpt lat="40.0713749" lon="-105.229789">
  <ele>1583.0</ele>
  <time>2026-08-28T17:51:37Z</time>
  <course>247.94</course>
  <speed>0.0</speed>
  <fix>3d</fix>
</trkpt>
<trkpt lat="40.0713749" lon="-105.229789">
  <ele>1583.0</ele>
  <time>2026-08-28T17:51:37Z</time>
  <course>0.0</course>
  <speed>0.0</speed>
  <fix>3d</fix>
</trkpt>
<trkpt lat="40.0713749" lon="-105.229789">
  <ele>1583.0</ele>
  <time>2026-08-28T17:51:37Z</time>
  <course>247.97</course>
  <speed>0.0</speed>
  <fix>3d</fix>
</trkpt>
<trkpt lat="40.0713749" lon="-105.229789">
  <ele>1583.0</ele>
  <time>2026-08-28T17:51:37Z</time>
  <course>0.0</course>
  <speed>0.0</speed>
  <fix>3d</fix>
</trkpt>
<trkpt lat="40.0713749" lon="-105.229789">
  <ele>1583.0</ele>
  <time>2026-08-28T17:51:37Z</time>
  <course>248.0</course>
  <speed>0.0</speed>
  <fix>3d</fix>
</trkpt>
<trkpt lat="40.0713749" lon="-105.229789">
  <ele>1583.0</ele>
  <time>2026-08-28T17:51:37Z</time>
  <course>0.0</course>
  <speed>0.0</speed>
  <fix>3d</fix>
</trkpt>
<trkpt lat="40.0713749" lon="-105.229789">
  <ele>1583.0</ele>
  <time>2026-08-28T17:51:37Z</time>
  <course>248.03</course>
  <speed>0.0</speed>
  <fix>3d</fix>
</trkpt>
<trkpt lat="40.0713749" lon="-105.229789">
  <ele>1583.0</ele>
  <time>2026-08-28T17:51:37Z</time>
  <course>0.0</course>
  <speed>0.0</speed>
  <fix>3d</fix>
</trkpt>
<trkpt lat="40.0713749" lon="-105.229789">
  <ele>1583.0</ele>
  <time>2026-08-28T17:51:37Z</time>
  <course>248.06</course>
  <speed>0.0</speed>
  <fix>3d</fix>
</trkpt>
<trkpt lat="40.0713749" lon="-105.229789">
  <ele>1583.0</ele>
  <time>2026-08-28T17:51:37Z</time>
  <course>0.0</course>
  <speed>0.0</speed>
  <fix>3d</fix>
</trkpt>
<trkpt lat="40.0713749" lon="-105.229789">
  <ele>1583.0</ele>
  <time>2026-08-28T17:51:37Z</time>
  <course>248.08</course>
  <speed>0.0</speed>
  <fix>3d</fix>
</trkpt>
<trkpt lat="40.0713749" lon="-105.229789">
  <ele>1583.0</ele>
  <time>2026-08-28T17:51:37Z</time>
  <course>0.0</course>
  <speed>0.0</speed>
  <fix>3d</fix>
</trkpt>
<trkpt lat="40.0713749" lon="-105.229789">
  <ele>1583.0</ele>
  <time>2026-08-28T17:51:37Z</time>
  <course>248.11</course>
  <speed>0.0</speed>
  <fix>3d</fix>
</trkpt>
<trkpt lat="40.0713749" lon="-105.229789">
  <ele>1583.0</ele>
  <time>2026-08-28T17:51:37Z</time>
  <course>0.0</course>
  <speed>0.0</speed>
  <fix>3d</fix>
</trkpt>
<trkpt lat="40.0713749" lon="-105.229789">
  <ele>1583.0</ele>
  <time>2026-08-28T17:51:37Z</time>
  <course>248.12</course>
  <speed>0.0</speed>
  <fix>3d</fix>
</trkpt>
<trkpt lat="40.0713749" lon="-105.229789">
  <ele>1583.0</ele>
  <time>2026-08-28T17:51:37Z</time>
  <course>0.0</course>
  <speed>0.0</speed>
  <fix>3d</fix>
</trkpt>
<trkpt lat="40.0713749" lon="-105.229789">
  <ele>1583.0</ele>
  <time>2026-08-28T17:51:37Z</time>
  <course>248.14</course>
  <speed>0.0</speed>
  <fix>3d</fix>
</trkpt>
<trkpt lat="40.0713749" lon="-105.229789">
  <ele>1583.0</ele>
  <time>2026-08-28T17:51:37Z</time>
  <course>0.0</course>
  <speed>0.0</speed>
  <fix>3d</fix>
</trkpt>
<trkpt lat="40.0713749" lon="-105.229789">
  <ele>1583.0</ele>
  <time>2026-08-28T17:51:37Z</time>
  <course>248.16</course>
  <speed>0.0</speed>
  <fix>3d</fix>
</trkpt>
<trkpt lat="40.0713749" lon="-105.229789">
  <ele>1583.0</ele>
  <time>2026-08-28T17:51:37Z</time>
  <course>0.0</course>
  <speed>0.0</speed>
  <fix>3d</fix>
</trkpt>
<trkpt lat="40.0713749" lon="-105.229789">
  <ele>1583.0</ele>
  <time>2026-08-28T17:51:37Z</time>
  <course>248.18</course>
  <speed>0.0</speed>
  <fix>3d</fix>
</trkpt>
<trkpt lat="40.0713749" lon="-105.229789">
  <ele>1583.0</ele>
  <time>2026-08-28T17:51:37Z</time>
  <course>0.0</course>
  <speed>0.0</speed>
  <fix>3d</fix>
</trkpt>
<trkpt lat="40.0713749" lon="-105.229789">
  <ele>1583.0</ele>
  <time>2026-08-28T17:51:37Z</time>
  <course>248.2</course>
  <speed>0.0</speed>
  <fix>3d</fix>
</trkpt>
<trkpt lat="40.0713749" lon="-105.229789">
  <ele>1583.0</ele>
  <time>2026-08-28T17:51:37Z</time>
  <course>0.0</course>
  <speed>0.0</speed>
  <fix>3d</fix>
</trkpt>
<trkpt lat="40.0713749" lon="-105.229789">
  <ele>1583.0</ele>
  <time>2026-08-28T17:51:37Z</time>
  <course>248.22</course>
  <speed>0.0</speed>
  <fix>3d</fix>
</trkpt>
<trkpt lat="40.0713749" lon="-105.229789">
  <ele>1583.0</ele>
  <time>2026-08-28T17:51:37Z</time>
  <course>0.0</course>
  <speed>0.0</speed>
  <fix>3d</fix>
</trkpt>
<trkpt lat="40.0713749" lon="-105.229789">
  <ele>1583.0</ele>
  <time>2026-08-28T17:51:37Z</time>
  <course>248.23</course>
  <speed>0.0</speed>
  <fix>3d</fix>
</trkpt>
<trkpt lat="40.0713749" lon="-105.229789">
  <ele>1583.0</ele>
  <time>2026-08-28T17:51:37Z</time>
  <course>0.0</course>
  <speed>0.0</speed>
  <fix>3d</fix>
</trkpt>
<trkpt lat="40.0713749" lon="-105.229789">
  <ele>1583.0</ele>
  <time>2026-08-28T17:51:37Z</time>
  <course>248.25</course>
  <speed>0.0</speed>
  <fix>3d</fix>
</trkpt>
<trkpt lat="40.0713749" lon="-105.229789">
  <ele>1583.0</ele>
  <time>2026-08-28T17:51:37Z</time>
  <course>0.0</course>
  <speed>0.0</speed>
  <fix>3d</fix>
</trkpt>
<trkpt lat="40.0713749" lon="-105.229789">
  <ele>1583.0</ele>
  <time>2026-08-28T17:51:37Z</time>
  <course>248.26</course>
  <speed>0.0</speed>
  <fix>3d</fix>
</trkpt>
<trkpt lat="40.0713749" lon="-105.229789">
  <ele>1583.0</ele>
  <time>2026-08-28T17:51:37Z</time>
  <course>0.0</course>
  <speed>0.0</speed>
  <fix>3d</fix>
</trkpt>
<trkpt lat="40.0713749" lon="-105.229789">
  <ele>1583.0</ele>
  <time>2026-08-28T17:51:37Z</time>
  <course>248.28</course>
  <speed>0.0</speed>
  <fix>3d</fix>
</trkpt>
<trkpt lat="40.0713749" lon="-105.229789">
  <ele>1583.0</ele>
  <time>2026-08-28T17:51:37Z</time>
  <course>0.0</course>
  <speed>0.0</speed>
  <fix>3d</fix>
</trkpt>
<trkpt lat="40.0713749" lon="-105.229789">
  <ele>1583.0</ele>
  <time>2026-08-28T17:51:37Z</time>
  <course>248.29</course>
  <speed>0.0</speed>
  <fix>3d</fix>
</trkpt>
<trkpt lat="40.0713749" lon="-105.229789">
  <ele>1583.0</ele>
  <time>2026-08-28T17:51:37Z</time>
  <course>0.0</course>
  <speed>0.0</speed>
  <fix>3d</fix>
</trkpt>
<trkpt lat="40.0713749" lon="-105.229789">
  <ele>1583.0</ele>
  <time>2026-08-28T17:51:37Z</time>
  <course>248.3</course>
  <speed>0.0</speed>
  <fix>3d</fix>
</trkpt>
<trkpt lat="40.0713749" lon="-105.229789">
  <ele>1583.0</ele>
  <time>2026-08-28T17:51:37Z</time>
  <course>0.0</course>
  <speed>0.0</speed>
  <fix>3d</fix>
</trkpt>
<trkpt lat="40.0713749" lon="-105.229789">
  <ele>1583.0</ele>
  <time>2026-08-28T17:51:37Z</time>
  <course>248.31</course>
  <speed>0.0</speed>
  <fix>3d</fix>
</trkpt>
<trkpt lat="40.0713749" lon="-105.229789">
  <ele>1583.0</ele>
  <time>2026-08-28T17:51:37Z</time>
  <course>0.0</course>
  <speed>0.0</speed>
  <fix>3d</fix>
</trkpt>
<trkpt lat="40.0713749" lon="-105.229789">
  <ele>1583.0</ele>
  <time>2026-08-28T17:51:37Z</time>
  <course>248.32</course>
  <speed>0.0</speed>
  <fix>3d</fix>
</trkpt>
<trkpt lat="40.0713749" lon="-105.229789">
  <ele>1583.0</ele>
  <time>2026-08-28T17:51:37Z</time>
  <course>0.0</course>
  <speed>0.0</speed>
  <fix>3d</fix>
</trkpt>
<trkpt lat="40.0713749" lon="-105.229789">
  <ele>1583.0</ele>
  <time>2026-08-28T17:51:37Z</time>
  <course>248.33</course>
  <speed>0.0</speed>
  <fix>3d</fix>
</trkpt>
<trkpt lat="40.0713749" lon="-105.229789">
  <ele>1583.0</ele>
  <time>2026-08-28T17:51:37Z</time>
  <course>0.0</course>
  <speed>0.0</speed>
  <fix>3d</fix>
</trkpt>
<trkpt lat="40.0713749" lon="-105.229789">
  <ele>1583.0</ele>
  <time>2026-08-28T17:51:37Z</time>
  <course>248.34</course>
  <speed>0.0</speed>
  <fix>3d</fix>
</trkpt>
<trkpt lat="40.0713749" lon="-105.229789">
  <ele>1583.0</ele>
  <time>2026-08-28T17:51:37Z</time>
  <course>0.0</course>
  <speed>0.0</speed>
  <fix>3d</fix>
</trkpt>
<trkpt lat="40.0713749" lon="-105.229789">
  <ele>1583.0</ele>
  <time>2026-08-28T17:51:37Z</time>
  <course>248.35</course>
  <speed>0.0</speed>
  <fix>3d</fix>
</trkpt>
<trkpt lat="40.0713749" lon="-105.229789">
  <ele>1583.0</ele>
  <time>2026-08-28T17:51:37Z</time>
  <course>0.0</course>
  <speed>0.0</speed>
  <fix>3d</fix>
</trkpt>
<trkpt lat="40.0713749" lon="-105.229789">
  <ele>1583.0</ele>
  <time>2026-08-28T17:51:37Z</time>
  <course>248.36</course>
  <speed>0.0</speed>
  <fix>3d</fix>
</trkpt>
<trkpt lat="40.0713749" lon="-105.229789">
  <ele>1583.0</ele>
  <time>2026-08-28T17:51:37Z</time>
  <course>0.0</course>
  <speed>0.0</speed>
  <fix>3d</fix>
</trkpt>
<trkpt lat="40.0713749" lon="-105.229789">
  <ele>1583.0</ele>
  <time>2026-08-28T17:51:37Z</time>
  <course>248.36</course>
  <speed>0.0</speed>
  <fix>3d</fix>
</trkpt>
<trkpt lat="40.0713749" lon="-105.229789">
  <ele>1583.0</ele>
  <time>2026-08-28T17:51:37Z</time>
  <course>0.0</course>
  <speed>0.0</speed>
  <fix>3d</fix>
</trkpt>
<trkpt lat="40.0713749" lon="-105.229789">
  <ele>1583.0</ele>
  <time>2026-08-28T17:51:37Z</time>
  <course>248.37</course>
  <speed>0.0</speed>
  <fix>3d</fix>
</trkpt>
<trkpt lat="40.0713749" lon="-105.229789">
  <ele>1583.0</ele>
  <time>2026-08-28T17:51:37Z</time>
  <course>0.0</course>
  <speed>0.0</speed>
  <fix>3d</fix>
</trkpt>
<trkpt lat="40.0713749" lon="-105.229789">
  <ele>1583.0</ele>
  <time>2026-08-28T17:51:38Z</time>
  <course>248.38</course>
  <speed>0.0</speed>
  <fix>3d</fix>
</trkpt>
<trkpt lat="40.0713749" lon="-105.229789">
  <ele>1583.0</ele>
  <time>2026-08-28T17:51:38Z</time>
  <course>0.0</course>
  <speed>0.0</speed>
  <fix>3d</fix>
</trkpt>
<trkpt lat="40.0713749" lon="-105.229789">
  <ele>1583.0</ele>
  <time>2026-08-28T17:51:38Z</time>
  <course>248.38</course>
  <speed>0.0</speed>
  <fix>3d</fix>
</trkpt>
<trkpt lat="40.0713749" lon="-105.229789">
  <ele>1583.0</ele>
  <time>2026-08-28T17:51:38Z</time>
  <course>0.0</course>
  <speed>0.0</speed>
  <fix>3d</fix>
</trkpt>
<trkpt lat="40.0713749" lon="-105.229789">
  <ele>1583.0</ele>
  <time>2026-08-28T17:51:38Z</time>
  <course>248.38</course>
  <speed>0.0</speed>
  <fix>3d</fix>
</trkpt>
<trkpt lat="40.0713749" lon="-105.229789">
  <ele>1583.0</ele>
  <time>2026-08-28T17:51:38Z</time>
  <course>0.0</course>
  <speed>0.0</speed>
  <fix>3d</fix>
</trkpt>
<trkpt lat="40.0713749" lon="-105.229789">
  <ele>1583.0</ele>
  <time>2026-08-28T17:51:38Z</time>
  <course>248.39</course>
  <speed>0.0</speed>
  <fix>3d</fix>
</trkpt>
<trkpt lat="40.0713749" lon="-105.229789">
  <ele>1583.0</ele>
  <time>2026-08-28T17:51:38Z</time>
  <course>0.0</course>
  <speed>0.0</speed>
  <fix>3d</fix>
</trkpt>
<trkpt lat="40.0713749" lon="-105.229789">
  <ele>1583.0</ele>
  <time>2026-08-28T17:51:38Z</time>
  <course>248.39</course>
  <speed>0.0</speed>
  <fix>3d</fix>
</trkpt>
<trkpt lat="40.0713749" lon="-105.229789">
  <ele>1583.0</ele>
  <time>2026-08-28T17:51:38Z</time>
  <course>0.0</course>
  <speed>0.0</speed>
  <fix>3d</fix>
</trkpt>
<trkpt lat="40.0713749" lon="-105.229789">
  <ele>1583.0</ele>
  <time>2026-08-28T17:51:38Z</time>
  <course>248.4</course>
  <speed>0.0</speed>
  <fix>3d</fix>
</trkpt>
<trkpt lat="40.0713749" lon="-105.229789">
  <ele>1583.0</ele>
  <time>2026-08-28T17:51:38Z</time>
  <course>0.0</course>
  <speed>0.0</speed>
  <fix>3d</fix>
</trkpt>
<trkpt lat="40.0713749" lon="-105.229789">
  <ele>1583.0</ele>
  <time>2026-08-28T17:51:38Z</time>
  <course>248.4</course>
  <speed>0.0</speed>
  <fix>3d</fix>
</trkpt>
<trkpt lat="40.0713749" lon="-105.229789">
  <ele>1583.0</ele>
  <time>2026-08-28T17:51:38Z</time>
  <course>0.0</course>
  <speed>0.0</speed>
  <fix>3d</fix>
</trkpt>
<trkpt lat="40.0713749" lon="-105.229789">
  <ele>1583.0</ele>
  <time>2026-08-28T17:51:38Z</time>
  <course>248.4</course>
  <speed>0.0</speed>
  <fix>3d</fix>
</trkpt>
<trkpt lat="40.0713749" lon="-105.229789">
  <ele>1583.0</ele>
  <time>2026-08-28T17:51:38Z</time>
  <course>0.0</course>
  <speed>0.0</speed>
  <fix>3d</fix>
</trkpt>
<trkpt lat="40.0713749" lon="-105.229789">
  <ele>1583.0</ele>
  <time>2026-08-28T17:51:38Z</time>
  <course>248.4</course>
  <speed>0.0</speed>
  <fix>3d</fix>
</trkpt>
<trkpt lat="40.0713749" lon="-105.229789">
  <ele>1583.0</ele>
  <time>2026-08-28T17:51:38Z</time>
  <course>0.0</course>
  <speed>0.0</speed>
  <fix>3d</fix>
</trkpt>
<trkpt lat="40.0713749" lon="-105.229789">
  <ele>1583.0</ele>
  <time>2026-08-28T17:51:38Z</time>
  <course>248.41</course>
  <speed>0.0</speed>
  <fix>3d</fix>
</trkpt>
<trkpt lat="40.0713749" lon="-105.229789">
  <ele>1583.0</ele>
  <time>2026-08-28T17:51:38Z</time>
  <course>0.0</course>
  <speed>0.0</speed>
  <fix>3d</fix>
</trkpt>
<trkpt lat="40.0713749" lon="-105.229789">
  <ele>1583.0</ele>
  <time>2026-08-28T17:51:38Z</time>
  <course>248.41</course>
  <speed>0.0</speed>
  <fix>3d</fix>
</trkpt>
<trkpt lat="40.0713749" lon="-105.229789">
  <ele>1583.0</ele>
  <time>2026-08-28T17:51:38Z</time>
  <course>0.0</course>
  <speed>0.0</speed>
  <fix>3d</fix>
</trkpt>
<trkpt lat="40.0713749" lon="-105.229789">
  <ele>1583.0</ele>
  <time>2026-08-28T17:51:38Z</time>
  <course>248.41</course>
  <speed>0.0</speed>
  <fix>3d</fix>
</trkpt>
<trkpt lat="40.0713749" lon="-105.229789">
  <ele>1583.0</ele>
  <time>2026-08-28T17:51:38Z</time>
  <course>0.0</course>
  <speed>0.0</speed>
  <fix>3d</fix>
</trkpt>
<trkpt lat="40.0713749" lon="-105.229789">
  <ele>1583.0</ele>
  <time>2026-08-28T17:51:38Z</time>
  <course>248.41</course>
  <speed>0.0</speed>
  <fix>3d</fix>
</trkpt>
<trkpt lat="40.0713749" lon="-105.229789">
  <ele>1583.0</ele>
  <time>2026-08-28T17:51:38Z</time>
  <course>0.0</course>
  <speed>0.0</speed>
  <fix>3d</fix>
</trkpt>
<trkpt lat="40.0713749" lon="-105.229789">
  <ele>1583.0</ele>
  <time>2026-08-28T17:51:38Z</time>
  <course>248.41</course>
  <speed>0.0</speed>
  <fix>3d</fix>
</trkpt>
<trkpt lat="40.0713749" lon="-105.229789">
  <ele>1583.0</ele>
  <time>2026-08-28T17:51:38Z</time>
  <course>0.0</course>
  <speed>0.0</speed>
  <fix>3d</fix>
</trkpt>
<trkpt lat="40.0713749" lon="-105.229789">
  <ele>1583.0</ele>
  <time>2026-08-28T17:51:38Z</time>
  <course>248.41</course>
  <speed>0.0</speed>
  <fix>3d</fix>
</trkpt>
<trkpt lat="40.0713749" lon="-105.229789">
  <ele>1583.0</ele>
  <time>2026-08-28T17:51:38Z</time>
  <course>0.0</course>
  <speed>0.0</speed>
  <fix>3d</fix>
</trkpt>
<trkpt lat="40.0713749" lon="-105.229789">
  <ele>1583.0</ele>
  <time>2026-08-28T17:51:38Z</time>
  <course>248.41</course>
  <speed>0.0</speed>
  <fix>3d</fix>
</trkpt>
<trkpt lat="40.0713749" lon="-105.229789">
  <ele>1583.0</ele>
  <time>2026-08-28T17:51:38Z</time>
  <course>0.0</course>
  <speed>0.0</speed>
  <fix>3d</fix>
</trkpt>
<trkpt lat="40.0713749" lon="-105.229789">
  <ele>1583.0</ele>
  <time>2026-08-28T17:51:38Z</time>
  <course>248.41</course>
  <speed>0.0</speed>
  <fix>3d</fix>
</trkpt>
<trkpt lat="40.0713749" lon="-105.229789">
  <ele>1583.0</ele>
  <time>2026-08-28T17:51:38Z</time>
  <course>0.0</course>
  <speed>0.0</speed>
  <fix>3d</fix>
</trkpt>
<trkpt lat="40.0713749" lon="-105.229789">
  <ele>1583.0</ele>
  <time>2026-08-28T17:51:38Z</time>
  <course>248.41</course>
  <speed>0.0</speed>
  <fix>3d</fix>
</trkpt>
<trkpt lat="40.0713749" lon="-105.229789">
  <ele>1583.0</ele>
  <time>2026-08-28T17:51:38Z</time>
  <course>0.0</course>
  <speed>0.0</speed>
  <fix>3d</fix>
</trkpt>
<trkpt lat="40.0713749" lon="-105.229789">
  <ele>1583.0</ele>
  <time>2026-08-28T17:51:38Z</time>
  <course>248.41</course>
  <speed>0.0</speed>
  <fix>3d</fix>
</trkpt>
<trkpt lat="40.0713749" lon="-105.229789">
  <ele>1583.0</ele>
  <time>2026-08-28T17:51:38Z</time>
  <course>0.0</course>
  <speed>0.0</speed>
  <fix>3d</fix>
</trkpt>
<trkpt lat="40.0713749" lon="-105.229789">
  <ele>1583.0</ele>
  <time>2026-08-28T17:51:38Z</time>
  <course>248.41</course>
  <speed>0.0</speed>
  <fix>3d</fix>
</trkpt>
<trkpt lat="40.0713749" lon="-105.229789">
  <ele>1583.0</ele>
  <time>2026-08-28T17:51:38Z</time>
  <course>0.0</course>
  <speed>0.0</speed>
  <fix>3d</fix>
</trkpt>
<trkpt lat="40.0713749" lon="-105.229789">
  <ele>1583.0</ele>
  <time>2026-08-28T17:51:38Z</time>
  <course>248.41</course>
  <speed>0.0</speed>
  <fix>3d</fix>
</trkpt>
<trkpt lat="40.0713749" lon="-105.229789">
  <ele>1583.0</ele>
  <time>2026-08-28T17:51:38Z</time>
  <course>0.0</course>
  <speed>0.0</speed>
  <fix>3d</fix>
</trkpt>
<trkpt lat="40.0713749" lon="-105.229789">
  <ele>1583.0</ele>
  <time>2026-08-28T17:51:38Z</time>
  <course>248.41</course>
  <speed>0.0</speed>
  <fix>3d</fix>
</trkpt>
<trkpt lat="40.0713749" lon="-105.229789">
  <ele>1583.0</ele>
  <time>2026-08-28T17:51:38Z</time>
  <course>0.0</course>
  <speed>0.0</speed>
  <fix>3d</fix>
</trkpt>
<trkpt lat="40.0713749" lon="-105.229789">
  <ele>1583.0</ele>
  <time>2026-08-28T17:51:38Z</time>
  <course>248.41</course>
  <speed>0.0</speed>
  <fix>3d</fix>
</trkpt>
<trkpt lat="40.0713749" lon="-105.229789">
  <ele>1583.0</ele>
  <time>2026-08-28T17:51:38Z</time>
  <course>0.0</course>
  <speed>0.0</speed>
  <fix>3d</fix>
</trkpt>
<trkpt lat="40.0713749" lon="-105.229789">
  <ele>1583.0</ele>
  <time>2026-08-28T17:51:38Z</time>
  <course>248.41</course>
  <speed>0.0</speed>
  <fix>3d</fix>
</trkpt>
<trkpt lat="40.0713749" lon="-105.229789">
  <ele>1583.0</ele>
  <time>2026-08-28T17:51:38Z</time>
  <course>0.0</course>
  <speed>0.0</speed>
  <fix>3d</fix>
</trkpt>
<trkpt lat="40.0713749" lon="-105.229789">
  <ele>1583.0</ele>
  <time>2026-08-28T17:51:38Z</time>
  <course>248.41</course>
  <speed>0.0</speed>
  <fix>3d</fix>
</trkpt>
<trkpt lat="40.0713749" lon="-105.229789">
  <ele>1583.0</ele>
  <time>2026-08-28T17:51:38Z</time>
  <course>0.0</course>
  <speed>0.0</speed>
  <fix>3d</fix>
</trkpt>
<trkpt lat="40.0713749" lon="-105.229789">
  <ele>1583.0</ele>
  <time>2026-08-28T17:51:38Z</time>
  <course>248.4</course>
  <speed>0.0</speed>
  <fix>3d</fix>
</trkpt>
<trkpt lat="40.0713749" lon="-105.229789">
  <ele>1583.0</ele>
  <time>2026-08-28T17:51:38Z</time>
  <course>0.0</course>
  <speed>0.0</speed>
  <fix>3d</fix>
</trkpt>
<trkpt lat="40.0713749" lon="-105.229789">
  <ele>1583.0</ele>
  <time>2026-08-28T17:51:38Z</time>
  <course>248.4</course>
  <speed>0.01</speed>
  <fix>3d</fix>
</trkpt>
<trkpt lat="40.0713749" lon="-105.229789">
  <ele>1583.0</ele>
  <time>2026-08-28T17:51:38Z</time>
  <course>0.0</course>
  <speed>0.0</speed>
  <fix>3d</fix>
</trkpt>
<trkpt lat="40.0713749" lon="-105.229789">
  <ele>1583.0</ele>
  <time>2026-08-28T17:51:38Z</time>
  <course>248.4</course>
  <speed>0.01</speed>
  <fix>3d</fix>
</trkpt>
<trkpt lat="40.0713749" lon="-105.229789">
  <ele>1583.0</ele>
  <time>2026-08-28T17:51:38Z</time>
  <course>0.0</course>
  <speed>0.0</speed>
  <fix>3d</fix>
</trkpt>
<trkpt lat="40.0713749" lon="-105.229789">
  <ele>1583.0</ele>
  <time>2026-08-28T17:51:38Z</time>
  <course>248.4</course>
  <speed>0.01</speed>
  <fix>3d</fix>
</trkpt>
<trkpt lat="40.0713749" lon="-105.229789">
  <ele>1583.0</ele>
  <time>2026-08-28T17:51:38Z</time>
  <course>0.0</course>
  <speed>0.0</speed>
  <fix>3d</fix>
</trkpt>
<trkpt lat="40.0713749" lon="-105.229789">
  <ele>1583.0</ele>
  <time>2026-08-28T17:51:38Z</time>
  <course>248.4</course>
  <speed>0.01</speed>
  <fix>3d</fix>
</trkpt>
<trkpt lat="40.0713749" lon="-105.229789">
  <ele>1583.0</ele>
  <time>2026-08-28T17:51:38Z</time>
  <course>0.0</course>
  <speed>0.0</speed>
  <fix>3d</fix>
</trkpt>
<trkpt lat="40.0713749" lon="-105.229789">
  <ele>1583.0</ele>
  <time>2026-08-28T17:51:38Z</time>
  <course>248.39</course>
  <speed>0.01</speed>
  <fix>3d</fix>
</trkpt>
<trkpt lat="40.0713749" lon="-105.229789">
  <ele>1583.0</ele>
  <time>2026-08-28T17:51:38Z</time>
  <course>0.0</course>
  <speed>0.0</speed>
  <fix>3d</fix>
</trkpt>
<trkpt lat="40.0713749" lon="-105.229789">
  <ele>1583.0</ele>
  <time>2026-08-28T17:51:38Z</time>
  <course>248.39</course>
  <speed>0.01</speed>
  <fix>3d</fix>
</trkpt>
<trkpt lat="40.0713749" lon="-105.229789">
  <ele>1583.0</ele>
  <time>2026-08-28T17:51:38Z</time>
  <course>0.0</course>
  <speed>0.0</speed>
  <fix>3d</fix>
</trkpt>
<trkpt lat="40.0713749" lon="-105.229789">
  <ele>1583.0</ele>
  <time>2026-08-28T17:51:38Z</time>
  <course>248.39</course>
  <speed>0.01</speed>
  <fix>3d</fix>
</trkpt>
<trkpt lat="40.0713749" lon="-105.229789">
  <ele>1583.0</ele>
  <time>2026-08-28T17:51:38Z</time>
  <course>0.0</course>
  <speed>0.0</speed>
  <fix>3d</fix>
</trkpt>
<trkpt lat="40.0713749" lon="-105.229789">
  <ele>1583.0</ele>
  <time>2026-08-28T17:51:38Z</time>
  <course>248.38</course>
  <speed>0.01</speed>
  <fix>3d</fix>
</trkpt>
<trkpt lat="40.0713749" lon="-105.229789">
  <ele>1583.0</ele>
  <time>2026-08-28T17:51:38Z</time>
  <course>0.0</course>
  <speed>0.0</speed>
  <fix>3d</fix>
</trkpt>
<trkpt lat="40.0713749" lon="-105.229789">
  <ele>1583.0</ele>
  <time>2026-08-28T17:51:38Z</time>
  <course>248.38</course>
  <speed>0.01</speed>
  <fix>3d</fix>
</trkpt>
<trkpt lat="40.0713749" lon="-105.229789">
  <ele>1583.0</ele>
  <time>2026-08-28T17:51:38Z</time>
  <course>0.0</course>
  <speed>0.0</speed>
  <fix>3d</fix>
</trkpt>
<trkpt lat="40.0713749" lon="-105.229789">
  <ele>1583.0</ele>
  <time>2026-08-28T17:51:38Z</time>
  <course>248.38</course>
  <speed>0.01</speed>
  <fix>3d</fix>
</trkpt>
<trkpt lat="40.0713749" lon="-105.229789">
  <ele>1583.0</ele>
  <time>2026-08-28T17:51:38Z</time>
  <course>0.0</course>
  <speed>0.0</speed>
  <fix>3d</fix>
</trkpt>
<trkpt lat="40.0713749" lon="-105.229789">
  <ele>1583.0</ele>
  <time>2026-08-28T17:51:38Z</time>
  <course>248.38</course>
  <speed>0.01</speed>
  <fix>3d</fix>
</trkpt>
<trkpt lat="40.0713749" lon="-105.229789">
  <ele>1583.0</ele>
  <time>2026-08-28T17:51:38Z</time>
  <course>0.0</course>
  <speed>0.0</speed>
  <fix>3d</fix>
</trkpt>
<trkpt lat="40.0713749" lon="-105.229789">
  <ele>1583.0</ele>
  <time>2026-08-28T17:51:38Z</time>
  <course>248.37</course>
  <speed>0.01</speed>
  <fix>3d</fix>
</trkpt>
<trkpt lat="40.0713749" lon="-105.229789">
  <ele>1583.0</ele>
  <time>2026-08-28T17:51:38Z</time>
  <course>0.0</course>
  <speed>0.0</speed>
  <fix>3d</fix>
</trkpt>
<trkpt lat="40.0713749" lon="-105.229789">
  <ele>1583.0</ele>
  <time>2026-08-28T17:51:38Z</time>
  <course>248.37</course>
  <speed>0.01</speed>
  <fix>3d</fix>
</trkpt>
<trkpt lat="40.0713749" lon="-105.229789">
  <ele>1583.0</ele>
  <time>2026-08-28T17:51:38Z</time>
  <course>0.0</course>
  <speed>0.0</speed>
  <fix>3d</fix>
</trkpt>
<trkpt lat="40.0713749" lon="-105.229789">
  <ele>1583.0</ele>
  <time>2026-08-28T17:51:38Z</time>
  <course>248.37</course>
  <speed>0.01</speed>
  <fix>3d</fix>
</trkpt>
<trkpt lat="40.0713749" lon="-105.229789">
  <ele>1583.0</ele>
  <time>2026-08-28T17:51:38Z</time>
  <course>0.0</course>
  <speed>0.0</speed>
  <fix>3d</fix>
</trkpt>
<trkpt lat="40.0713749" lon="-105.229789">
  <ele>1583.0</ele>
  <time>2026-08-28T17:51:38Z</time>
  <course>248.36</course>
  <speed>0.01</speed>
  <fix>3d</fix>
</trkpt>
<trkpt lat="40.0713749" lon="-105.229789">
  <ele>1583.0</ele>
  <time>2026-08-28T17:51:38Z</time>
  <course>0.0</course>
  <speed>0.0</speed>
  <fix>3d</fix>
</trkpt>
<trkpt lat="40.0713749" lon="-105.229789">
  <ele>1583.0</ele>
  <time>2026-08-28T17:51:38Z</time>
  <course>248.36</course>
  <speed>0.01</speed>
  <fix>3d</fix>
</trkpt>
<trkpt lat="40.0713749" lon="-105.229789">
  <ele>1583.0</ele>
  <time>2026-08-28T17:51:38Z</time>
  <course>0.0</course>
  <speed>0.0</speed>
  <fix>3d</fix>
</trkpt>
<trkpt lat="40.0713749" lon="-105.229789">
  <ele>1583.0</ele>
  <time>2026-08-28T17:51:38Z</time>
  <course>248.35</course>
  <speed>0.01</speed>
  <fix>3d</fix>
</trkpt>
<trkpt lat="40.0713749" lon="-105.229789">
  <ele>1583.0</ele>
  <time>2026-08-28T17:51:38Z</time>
  <course>0.0</course>
  <speed>0.0</speed>
  <fix>3d</fix>
</trkpt>
<trkpt lat="40.0713749" lon="-105.229789">
  <ele>1583.0</ele>
  <time>2026-08-28T17:51:38Z</time>
  <course>248.35</course>
  <speed>0.01</speed>
  <fix>3d</fix>
</trkpt>
<trkpt lat="40.0713749" lon="-105.229789">
  <ele>1583.0</ele>
  <time>2026-08-28T17:51:38Z</time>
  <course>0.0</course>
  <speed>0.0</speed>
  <fix>3d</fix>
</trkpt>
<trkpt lat="40.0713749" lon="-105.229789">
  <ele>1583.0</ele>
  <time>2026-08-28T17:51:38Z</time>
  <course>248.35</course>
  <speed>0.01</speed>
  <fix>3d</fix>
</trkpt>
<trkpt lat="40.0713749" lon="-105.229789">
  <ele>1583.0</ele>
  <time>2026-08-28T17:51:38Z</time>
  <course>0.0</course>
  <speed>0.0</speed>
  <fix>3d</fix>
</trkpt>
<trkpt lat="40.0713749" lon="-105.229789">
  <ele>1583.0</ele>
  <time>2026-08-28T17:51:38Z</time>
  <course>248.34</course>
  <speed>0.01</speed>
  <fix>3d</fix>
</trkpt>
<trkpt lat="40.0713749" lon="-105.229789">
  <ele>1583.0</ele>
  <time>2026-08-28T17:51:38Z</time>
  <course>0.0</course>
  <speed>0.0</speed>
  <fix>3d</fix>
</trkpt>
<trkpt lat="40.0713749" lon="-105.229789">
  <ele>1583.0</ele>
  <time>2026-08-28T17:51:38Z</time>
  <course>248.34</course>
  <speed>0.01</speed>
  <fix>3d</fix>
</trkpt>
<trkpt lat="40.0713749" lon="-105.229789">
  <ele>1583.0</ele>
  <time>2026-08-28T17:51:38Z</time>
  <course>0.0</course>
  <speed>0.0</speed>
  <fix>3d</fix>
</trkpt>
<trkpt lat="40.0713749" lon="-105.229789">
  <ele>1583.0</ele>
  <time>2026-08-28T17:51:38Z</time>
  <course>248.33</course>
  <speed>0.01</speed>
  <fix>3d</fix>
</trkpt>
<trkpt lat="40.0713749" lon="-105.229789">
  <ele>1583.0</ele>
  <time>2026-08-28T17:51:38Z</time>
  <course>0.0</course>
  <speed>0.0</speed>
  <fix>3d</fix>
</trkpt>
<trkpt lat="40.0713749" lon="-105.229789">
  <ele>1583.0</ele>
  <time>2026-08-28T17:51:38Z</time>
  <course>248.33</course>
  <speed>0.01</speed>
  <fix>3d</fix>
</trkpt>
<trkpt lat="40.0713749" lon="-105.229789">
  <ele>1583.0</ele>
  <time>2026-08-28T17:51:38Z</time>
  <course>0.0</course>
  <speed>0.0</speed>
  <fix>3d</fix>
</trkpt>
<trkpt lat="40.0713749" lon="-105.229789">
  <ele>1583.0</ele>
  <time>2026-08-28T17:51:38Z</time>
  <course>248.32</course>
  <speed>0.01</speed>
  <fix>3d</fix>
</trkpt>
<trkpt lat="40.0713749" lon="-105.229789">
  <ele>1583.0</ele>
  <time>2026-08-28T17:51:38Z</time>
  <course>0.0</course>
  <speed>0.0</speed>
  <fix>3d</fix>
</trkpt>
<trkpt lat="40.0713749" lon="-105.229789">
  <ele>1583.0</ele>
  <time>2026-08-28T17:51:38Z</time>
  <course>248.32</course>
  <speed>0.01</speed>
  <fix>3d</fix>
</trkpt>
<trkpt lat="40.0713749" lon="-105.229789">
  <ele>1583.0</ele>
  <time>2026-08-28T17:51:38Z</time>
  <course>0.0</course>
  <speed>0.0</speed>
  <fix>3d</fix>
</trkpt>
<trkpt lat="40.0713749" lon="-105.229789">
  <ele>1583.0</ele>
  <time>2026-08-28T17:51:38Z</time>
  <course>248.32</course>
  <speed>0.01</speed>
  <fix>3d</fix>
</trkpt>
<trkpt lat="40.0713749" lon="-105.229789">
  <ele>1583.0</ele>
  <time>2026-08-28T17:51:38Z</time>
  <course>0.0</course>
  <speed>0.0</speed>
  <fix>3d</fix>
</trkpt>
<trkpt lat="40.0713749" lon="-105.229789">
  <ele>1583.0</ele>
  <time>2026-08-28T17:51:38Z</time>
  <course>248.31</course>
  <speed>0.01</speed>
  <fix>3d</fix>
</trkpt>
<trkpt lat="40.0713749" lon="-105.229789">
  <ele>1583.0</ele>
  <time>2026-08-28T17:51:38Z</time>
  <course>0.0</course>
  <speed>0.0</speed>
  <fix>3d</fix>
</trkpt>
<trkpt lat="40.0713749" lon="-105.229789">
  <ele>1583.0</ele>
  <time>2026-08-28T17:51:38Z</time>
  <course>248.31</course>
  <speed>0.01</speed>
  <fix>3d</fix>
</trkpt>
<trkpt lat="40.0713749" lon="-105.229789">
  <ele>1583.0</ele>
  <time>2026-08-28T17:51:38Z</time>
  <course>0.0</course>
  <speed>0.0</speed>
  <fix>3d</fix>
</trkpt>
<trkpt lat="40.0713749" lon="-105.229789">
  <ele>1583.0</ele>
  <time>2026-08-28T17:51:39Z</time>
  <course>248.3</course>
  <speed>0.01</speed>
  <fix>3d</fix>
</trkpt>
<trkpt lat="40.0713749" lon="-105.229789">
  <ele>1583.0</ele>
  <time>2026-08-28T17:51:39Z</time>
  <course>0.0</course>
  <speed>0.0</speed>
  <fix>3d</fix>
</trkpt>
<trkpt lat="40.0713749" lon="-105.229789">
  <ele>1583.0</ele>
  <time>2026-08-28T17:51:39Z</time>
  <course>248.3</course>
  <speed>0.01</speed>
  <fix>3d</fix>
</trkpt>
<trkpt lat="40.0713749" lon="-105.229789">
  <ele>1583.0</ele>
  <time>2026-08-28T17:51:39Z</time>
  <course>0.0</course>
  <speed>0.0</speed>
  <fix>3d</fix>
</trkpt>
<trkpt lat="40.0713749" lon="-105.229789">
  <ele>1583.0</ele>
  <time>2026-08-28T17:51:39Z</time>
  <course>248.29</course>
  <speed>0.01</speed>
  <fix>3d</fix>
</trkpt>
<trkpt lat="40.0713749" lon="-105.229789">
  <ele>1583.0</ele>
  <time>2026-08-28T17:51:39Z</time>
  <course>0.0</course>
  <speed>0.0</speed>
  <fix>3d</fix>
</trkpt>
<trkpt lat="40.0713749" lon="-105.229789">
  <ele>1583.0</ele>
  <time>2026-08-28T17:51:39Z</time>
  <course>248.29</course>
  <speed>0.01</speed>
  <fix>3d</fix>
</trkpt>
<trkpt lat="40.0713749" lon="-105.229789">
  <ele>1583.0</ele>
  <time>2026-08-28T17:51:39Z</time>
  <course>0.0</course>
  <speed>0.0</speed>
  <fix>3d</fix>
</trkpt>
<trkpt lat="40.0713749" lon="-105.229789">
  <ele>1583.0</ele>
  <time>2026-08-28T17:51:39Z</time>
  <course>248.28</course>
  <speed>0.01</speed>
  <fix>3d</fix>
</trkpt>
<trkpt lat="40.0713749" lon="-105.229789">
  <ele>1583.0</ele>
  <time>2026-08-28T17:51:39Z</time>
  <course>0.0</course>
  <speed>0.0</speed>
  <fix>3d</fix>
</trkpt>
<trkpt lat="40.0713749" lon="-105.229789">
  <ele>1583.0</ele>
  <time>2026-08-28T17:51:39Z</time>
  <course>248.28</course>
  <speed>0.01</speed>
  <fix>3d</fix>
</trkpt>
<trkpt lat="40.0713749" lon="-105.229789">
  <ele>1583.0</ele>
  <time>2026-08-28T17:51:39Z</time>
  <course>0.0</course>
  <speed>0.0</speed>
  <fix>3d</fix>
</trkpt>
<trkpt lat="40.0713749" lon="-105.229789">
  <ele>1583.0</ele>
  <time>2026-08-28T17:51:39Z</time>
  <course>248.27</course>
  <speed>0.01</speed>
  <fix>3d</fix>
</trkpt>
<trkpt lat="40.0713749" lon="-105.229789">
  <ele>1583.0</ele>
  <time>2026-08-28T17:51:39Z</time>
  <course>0.0</course>
  <speed>0.0</speed>
  <fix>3d</fix>
</trkpt>
<trkpt lat="40.0713749" lon="-105.229789">
  <ele>1583.0</ele>
  <time>2026-08-28T17:51:39Z</time>
  <course>248.27</course>
  <speed>0.01</speed>
  <fix>3d</fix>
</trkpt>
<trkpt lat="40.0713749" lon="-105.229789">
  <ele>1583.0</ele>
  <time>2026-08-28T17:51:39Z</time>
  <course>0.0</course>
  <speed>0.0</speed>
  <fix>3d</fix>
</trkpt>
<trkpt lat="40.0713749" lon="-105.229789">
  <ele>1583.0</ele>
  <time>2026-08-28T17:51:39Z</time>
  <course>248.27</course>
  <speed>0.01</speed>
  <fix>3d</fix>
</trkpt>
<trkpt lat="40.0713749" lon="-105.229789">
  <ele>1583.0</ele>
  <time>2026-08-28T17:51:39Z</time>
  <course>0.0</course>
  <speed>0.0</speed>
  <fix>3d</fix>
</trkpt>
<trkpt lat="40.0713749" lon="-105.229789">
  <ele>1583.0</ele>
  <time>2026-08-28T17:51:39Z</time>
  <course>248.26</course>
  <speed>0.01</speed>
  <fix>3d</fix>
</trkpt>
<trkpt lat="40.0713749" lon="-105.229789">
  <ele>1583.0</ele>
  <time>2026-08-28T17:51:39Z</time>
  <course>0.0</course>
  <speed>0.0</speed>
  <fix>3d</fix>
</trkpt>
<trkpt lat="40.0713749" lon="-105.229789">
  <ele>1583.0</ele>
  <time>2026-08-28T17:51:39Z</time>
  <course>248.26</course>
  <speed>0.01</speed>
  <fix>3d</fix>
</trkpt>
<trkpt lat="40.0713749" lon="-105.229789">
  <ele>1583.0</ele>
  <time>2026-08-28T17:51:39Z</time>
  <course>0.0</course>
  <speed>0.0</speed>
  <fix>3d</fix>
</trkpt>
<trkpt lat="40.0713749" lon="-105.229789">
  <ele>1583.0</ele>
  <time>2026-08-28T17:51:39Z</time>
  <course>248.25</course>
  <speed>0.01</speed>
  <fix>3d</fix>
</trkpt>
<trkpt lat="40.0713749" lon="-105.229789">
  <ele>1583.0</ele>
  <time>2026-08-28T17:51:39Z</time>
  <course>0.0</course>
  <speed>0.0</speed>
  <fix>3d</fix>
</trkpt>
<trkpt lat="40.0713749" lon="-105.229789">
  <ele>1583.0</ele>
  <time>2026-08-28T17:51:39Z</time>
  <course>248.25</course>
  <speed>0.01</speed>
  <fix>3d</fix>
</trkpt>
<trkpt lat="40.0713749" lon="-105.229789">
  <ele>1583.0</ele>
  <time>2026-08-28T17:51:39Z</time>
  <course>0.0</course>
  <speed>0.0</speed>
  <fix>3d</fix>
</trkpt>
<trkpt lat="40.0713749" lon="-105.229789">
  <ele>1583.0</ele>
  <time>2026-08-28T17:51:39Z</time>
  <course>248.24</course>
  <speed>0.01</speed>
  <fix>3d</fix>
</trkpt>
<trkpt lat="40.0713749" lon="-105.229789">
  <ele>1583.0</ele>
  <time>2026-08-28T17:51:39Z</time>
  <course>0.0</course>
  <speed>0.0</speed>
  <fix>3d</fix>
</trkpt>
<trkpt lat="40.0713749" lon="-105.229789">
  <ele>1583.0</ele>
  <time>2026-08-28T17:51:39Z</time>
  <course>248.24</course>
  <speed>0.01</speed>
  <fix>3d</fix>
</trkpt>
<trkpt lat="40.0713749" lon="-105.229789">
  <ele>1583.0</ele>
  <time>2026-08-28T17:51:39Z</time>
  <course>0.0</course>
  <speed>0.0</speed>
  <fix>3d</fix>
</trkpt>
<trkpt lat="40.0713749" lon="-105.229789">
  <ele>1583.0</ele>
  <time>2026-08-28T17:51:39Z</time>
  <course>248.23</course>
  <speed>0.01</speed>
  <fix>3d</fix>
</trkpt>
<trkpt lat="40.0713749" lon="-105.229789">
  <ele>1583.0</ele>
  <time>2026-08-28T17:51:39Z</time>
  <course>0.0</course>
  <speed>0.0</speed>
  <fix>3d</fix>
</trkpt>
<trkpt lat="40.0713749" lon="-105.229789">
  <ele>1583.0</ele>
  <time>2026-08-28T17:51:39Z</time>
  <course>248.23</course>
  <speed>0.01</speed>
  <fix>3d</fix>
</trkpt>
<trkpt lat="40.0713749" lon="-105.229789">
  <ele>1583.0</ele>
  <time>2026-08-28T17:51:39Z</time>
  <course>0.0</course>
  <speed>0.0</speed>
  <fix>3d</fix>
</trkpt>
<trkpt lat="40.0713749" lon="-105.229789">
  <ele>1583.0</ele>
  <time>2026-08-28T17:51:39Z</time>
  <course>248.22</course>
  <speed>0.01</speed>
  <fix>3d</fix>
</trkpt>
<trkpt lat="40.0713749" lon="-105.229789">
  <ele>1583.0</ele>
  <time>2026-08-28T17:51:39Z</time>
  <course>0.0</course>
  <speed>0.0</speed>
  <fix>3d</fix>
</trkpt>
<trkpt lat="40.0713749" lon="-105.229789">
  <ele>1583.0</ele>
  <time>2026-08-28T17:51:39Z</time>
  <course>248.22</course>
  <speed>0.01</speed>
  <fix>3d</fix>
</trkpt>
<trkpt lat="40.0713749" lon="-105.229789">
  <ele>1583.0</ele>
  <time>2026-08-28T17:51:39Z</time>
  <course>0.0</course>
  <speed>0.0</speed>
  <fix>3d</fix>
</trkpt>
<trkpt lat="40.0713749" lon="-105.229789">
  <ele>1583.0</ele>
  <time>2026-08-28T17:51:39Z</time>
  <course>248.21</course>
  <speed>0.01</speed>
  <fix>3d</fix>
</trkpt>
<trkpt lat="40.0713749" lon="-105.229789">
  <ele>1583.0</ele>
  <time>2026-08-28T17:51:39Z</time>
  <course>0.0</course>
  <speed>0.0</speed>
  <fix>3d</fix>
</trkpt>
<trkpt lat="40.0713749" lon="-105.229789">
  <ele>1583.0</ele>
  <time>2026-08-28T17:51:39Z</time>
  <course>248.21</course>
  <speed>0.01</speed>
  <fix>3d</fix>
</trkpt>
<trkpt lat="40.0713749" lon="-105.229789">
  <ele>1583.0</ele>
  <time>2026-08-28T17:51:39Z</time>
  <course>0.0</course>
  <speed>0.0</speed>
  <fix>3d</fix>
</trkpt>
<trkpt lat="40.0713749" lon="-105.229789">
  <ele>1583.0</ele>
  <time>2026-08-28T17:51:39Z</time>
  <course>248.2</course>
  <speed>0.01</speed>
  <fix>3d</fix>
</trkpt>
<trkpt lat="40.0713749" lon="-105.229789">
  <ele>1583.0</ele>
  <time>2026-08-28T17:51:39Z</time>
  <course>0.0</course>
  <speed>0.0</speed>
  <fix>3d</fix>
</trkpt>
<trkpt lat="40.0713749" lon="-105.229789">
  <ele>1583.0</ele>
  <time>2026-08-28T17:51:39Z</time>
  <course>248.2</course>
  <speed>0.01</speed>
  <fix>3d</fix>
</trkpt>
<trkpt lat="40.0713749" lon="-105.229789">
  <ele>1583.0</ele>
  <time>2026-08-28T17:51:39Z</time>
  <course>0.0</course>
  <speed>0.0</speed>
  <fix>3d</fix>
</trkpt>
<trkpt lat="40.0713749" lon="-105.229789">
  <ele>1583.0</ele>
  <time>2026-08-28T17:51:39Z</time>
  <course>248.19</course>
  <speed>0.01</speed>
  <fix>3d</fix>
</trkpt>
<trkpt lat="40.0713749" lon="-105.229789">
  <ele>1583.0</ele>
  <time>2026-08-28T17:51:39Z</time>
  <course>0.0</course>
  <speed>0.0</speed>
  <fix>3d</fix>
</trkpt>
<trkpt lat="40.0713749" lon="-105.229789">
  <ele>1583.0</ele>
  <time>2026-08-28T17:51:39Z</time>
  <course>248.19</course>
  <speed>0.01</speed>
  <fix>3d</fix>
</trkpt>
<trkpt lat="40.0713749" lon="-105.229789">
  <ele>1583.0</ele>
  <time>2026-08-28T17:51:39Z</time>
  <course>0.0</course>
  <speed>0.0</speed>
  <fix>3d</fix>
</trkpt>
<trkpt lat="40.0713749" lon="-105.229789">
  <ele>1583.0</ele>
  <time>2026-08-28T17:51:39Z</time>
  <course>248.18</course>
  <speed>0.01</speed>
  <fix>3d</fix>
</trkpt>
<trkpt lat="40.0713749" lon="-105.229789">
  <ele>1583.0</ele>
  <time>2026-08-28T17:51:39Z</time>
  <course>0.0</course>
  <speed>0.0</speed>
  <fix>3d</fix>
</trkpt>
<trkpt lat="40.0713749" lon="-105.229789">
  <ele>1583.0</ele>
  <time>2026-08-28T17:51:39Z</time>
  <course>248.18</course>
  <speed>0.01</speed>
  <fix>3d</fix>
</trkpt>
<trkpt lat="40.0713749" lon="-105.229789">
  <ele>1583.0</ele>
  <time>2026-08-28T17:51:39Z</time>
  <course>0.0</course>
  <speed>0.0</speed>
  <fix>3d</fix>
</trkpt>
<trkpt lat="40.0713749" lon="-105.229789">
  <ele>1583.0</ele>
  <time>2026-08-28T17:51:39Z</time>
  <course>248.17</course>
  <speed>0.022360679774997897</speed>
  <fix>3d</fix>
</trkpt>
<trkpt lat="40.0713749" lon="-105.229789">
  <ele>1583.0</ele>
  <time>2026-08-28T17:51:39Z</time>
  <course>0.0</course>
  <speed>0.0</speed>
  <fix>3d</fix>
</trkpt>
<trkpt lat="40.0713749" lon="-105.229789">
  <ele>1583.0</ele>
  <time>2026-08-28T17:51:39Z</time>
  <course>248.17</course>
  <speed>0.022360679774997897</speed>
  <fix>3d</fix>
</trkpt>
<trkpt lat="40.0713749" lon="-105.229789">
  <ele>1583.0</ele>
  <time>2026-08-28T17:51:39Z</time>
  <course>0.0</course>
  <speed>0.0</speed>
  <fix>3d</fix>
</trkpt>
<trkpt lat="40.0713749" lon="-105.229789">
  <ele>1583.0</ele>
  <time>2026-08-28T17:51:39Z</time>
  <course>248.16</course>
  <speed>0.022360679774997897</speed>
  <fix>3d</fix>
</trkpt>
<trkpt lat="40.0713749" lon="-105.229789">
  <ele>1583.0</ele>
  <time>2026-08-28T17:51:39Z</time>
  <course>0.0</course>
  <speed>0.0</speed>
  <fix>3d</fix>
</trkpt>
<trkpt lat="40.0713749" lon="-105.229789">
  <ele>1583.0</ele>
  <time>2026-08-28T17:51:39Z</time>
  <course>248.16</course>
  <speed>0.022360679774997897</speed>
  <fix>3d</fix>
</trkpt>
<trkpt lat="40.0713749" lon="-105.229789">
  <ele>1583.0</ele>
  <time>2026-08-28T17:51:39Z</time>
  <course>0.0</course>
  <speed>0.0</speed>
  <fix>3d</fix>
</trkpt>
<trkpt lat="40.0713749" lon="-105.229789">
  <ele>1583.0</ele>
  <time>2026-08-28T17:51:39Z</time>
  <course>248.15</course>
  <speed>0.022360679774997897</speed>
  <fix>3d</fix>
</trkpt>
<trkpt lat="40.0713749" lon="-105.229789">
  <ele>1583.0</ele>
  <time>2026-08-28T17:51:39Z</time>
  <course>0.0</course>
  <speed>0.0</speed>
  <fix>3d</fix>
</trkpt>
<trkpt lat="40.0713749" lon="-105.229789">
  <ele>1583.0</ele>
  <time>2026-08-28T17:51:39Z</time>
  <course>248.15</course>
  <speed>0.022360679774997897</speed>
  <fix>3d</fix>
</trkpt>
<trkpt lat="40.0713749" lon="-105.229789">
  <ele>1583.0</ele>
  <time>2026-08-28T17:51:39Z</time>
  <course>0.0</course>
  <speed>0.0</speed>
  <fix>3d</fix>
</trkpt>
<trkpt lat="40.0713749" lon="-105.229789">
  <ele>1583.0</ele>
  <time>2026-08-28T17:51:39Z</time>
  <course>248.14</course>
  <speed>0.022360679774997897</speed>
  <fix>3d</fix>
</trkpt>
<trkpt lat="40.0713749" lon="-105.229789">
  <ele>1583.0</ele>
  <time>2026-08-28T17:51:39Z</time>
  <course>0.0</course>
  <speed>0.0</speed>
  <fix>3d</fix>
</trkpt>
<trkpt lat="40.0713749" lon="-105.229789">
  <ele>1583.0</ele>
  <time>2026-08-28T17:51:39Z</time>
  <course>248.14</course>
  <speed>0.022360679774997897</speed>
  <fix>3d</fix>
</trkpt>
<trkpt lat="40.0713749" lon="-105.229789">
  <ele>1583.0</ele>
  <time>2026-08-28T17:51:39Z</time>
  <course>0.0</course>
  <speed>0.0</speed>
  <fix>3d</fix>
</trkpt>
<trkpt lat="40.0713749" lon="-105.229789">
  <ele>1583.0</ele>
  <time>2026-08-28T17:51:39Z</time>
  <course>248.13</course>
  <speed>0.022360679774997897</speed>
  <fix>3d</fix>
</trkpt>
<trkpt lat="40.0713749" lon="-105.229789">
  <ele>1583.0</ele>
  <time>2026-08-28T17:51:39Z</time>
  <course>0.0</course>
  <speed>0.0</speed>
  <fix>3d</fix>
</trkpt>
<trkpt lat="40.0713749" lon="-105.229789">
  <ele>1583.0</ele>
  <time>2026-08-28T17:51:39Z</time>
  <course>248.13</course>
  <speed>0.022360679774997897</speed>
  <fix>3d</fix>
</trkpt>
<trkpt lat="40.0713749" lon="-105.229789">
  <ele>1583.0</ele>
  <time>2026-08-28T17:51:39Z</time>
  <course>0.0</course>
  <speed>0.0</speed>
  <fix>3d</fix>
</trkpt>
<trkpt lat="40.0713749" lon="-105.229789">
  <ele>1583.0</ele>
  <time>2026-08-28T17:51:39Z</time>
  <course>248.12</course>
  <speed>0.022360679774997897</speed>
  <fix>3d</fix>
</trkpt>
<trkpt lat="40.0713749" lon="-105.229789">
  <ele>1583.0</ele>
  <time>2026-08-28T17:51:39Z</time>
  <course>0.0</course>
  <speed>0.0</speed>
  <fix>3d</fix>
</trkpt>
<trkpt lat="40.0713749" lon="-105.229789">
  <ele>1583.0</ele>
  <time>2026-08-28T17:51:39Z</time>
  <course>248.12</course>
  <speed>0.022360679774997897</speed>
  <fix>3d</fix>
</trkpt>
<trkpt lat="40.0713749" lon="-105.229789">
  <ele>1583.0</ele>
  <time>2026-08-28T17:51:39Z</time>
  <course>0.0</course>
  <speed>0.0</speed>
  <fix>3d</fix>
</trkpt>
<trkpt lat="40.0713749" lon="-105.229789">
  <ele>1583.0</ele>
  <time>2026-08-28T17:51:39Z</time>
  <course>248.11</course>
  <speed>0.022360679774997897</speed>
  <fix>3d</fix>
</trkpt>
<trkpt lat="40.0713749" lon="-105.229789">
  <ele>1583.0</ele>
  <time>2026-08-28T17:51:39Z</time>
  <course>0.0</course>
  <speed>0.0</speed>
  <fix>3d</fix>
</trkpt>
<trkpt lat="40.0713749" lon="-105.229789">
  <ele>1583.0</ele>
  <time>2026-08-28T17:51:39Z</time>
  <course>248.11</course>
  <speed>0.022360679774997897</speed>
  <fix>3d</fix>
</trkpt>
<trkpt lat="40.0713749" lon="-105.229789">
  <ele>1583.0</ele>
  <time>2026-08-28T17:51:39Z</time>
  <course>0.0</course>
  <speed>0.0</speed>
  <fix>3d</fix>
</trkpt>
<trkpt lat="40.0713749" lon="-105.229789">
  <ele>1583.0</ele>
  <time>2026-08-28T17:51:39Z</time>
  <course>248.1</course>
  <speed>0.022360679774997897</speed>
  <fix>3d</fix>
</trkpt>
<trkpt lat="40.0713749" lon="-105.229789">
  <ele>1583.0</ele>
  <time>2026-08-28T17:51:39Z</time>
  <course>0.0</course>
  <speed>0.0</speed>
  <fix>3d</fix>
</trkpt>
<trkpt lat="40.0713749" lon="-105.229789">
  <ele>1583.0</ele>
  <time>2026-08-28T17:51:39Z</time>
  <course>248.1</course>
  <speed>0.022360679774997897</speed>
  <fix>3d</fix>
</trkpt>
<trkpt lat="40.0713749" lon="-105.229789">
  <ele>1583.0</ele>
  <time>2026-08-28T17:51:39Z</time>
  <course>0.0</course>
  <speed>0.0</speed>
  <fix>3d</fix>
</trkpt>
<trkpt lat="40.0713749" lon="-105.229789">
  <ele>1583.0</ele>
  <time>2026-08-28T17:51:39Z</time>
  <course>248.09</course>
  <speed>0.022360679774997897</speed>
  <fix>3d</fix>
</trkpt>
<trkpt lat="40.0713749" lon="-105.229789">
  <ele>1583.0</ele>
  <time>2026-08-28T17:51:39Z</time>
  <course>0.0</course>
  <speed>0.0</speed>
  <fix>3d</fix>
</trkpt>
<trkpt lat="40.0713749" lon="-105.229789">
  <ele>1583.0</ele>
  <time>2026-08-28T17:51:39Z</time>
  <course>248.09</course>
  <speed>0.022360679774997897</speed>
  <fix>3d</fix>
</trkpt>
<trkpt lat="40.0713749" lon="-105.229789">
  <ele>1583.0</ele>
  <time>2026-08-28T17:51:39Z</time>
  <course>0.0</course>
  <speed>0.0</speed>
  <fix>3d</fix>
</trkpt>
<trkpt lat="40.0713749" lon="-105.229789">
  <ele>1583.0</ele>
  <time>2026-08-28T17:51:39Z</time>
  <course>248.08</course>
  <speed>0.022360679774997897</speed>
  <fix>3d</fix>
</trkpt>
<trkpt lat="40.0713749" lon="-105.229789">
  <ele>1583.0</ele>
  <time>2026-08-28T17:51:39Z</time>
  <course>0.0</course>
  <speed>0.0</speed>
  <fix>3d</fix>
</trkpt>
<trkpt lat="40.0713749" lon="-105.229789">
  <ele>1583.0</ele>
  <time>2026-08-28T17:51:39Z</time>
  <course>248.08</course>
  <speed>0.022360679774997897</speed>
  <fix>3d</fix>
</trkpt>
<trkpt lat="40.0713749" lon="-105.229789">
  <ele>1583.0</ele>
  <time>2026-08-28T17:51:39Z</time>
  <course>0.0</course>
  <speed>0.0</speed>
  <fix>3d</fix>
</trkpt>
<trkpt lat="40.0713749" lon="-105.229789">
  <ele>1583.0</ele>
  <time>2026-08-28T17:51:39Z</time>
  <course>248.07</course>
  <speed>0.022360679774997897</speed>
  <fix>3d</fix>
</trkpt>
<trkpt lat="40.0713749" lon="-105.229789">
  <ele>1583.0</ele>
  <time>2026-08-28T17:51:39Z</time>
  <course>0.0</course>
  <speed>0.0</speed>
  <fix>3d</fix>
</trkpt>
<trkpt lat="40.0713749" lon="-105.229789">
  <ele>1583.0</ele>
  <time>2026-08-28T17:51:39Z</time>
  <course>248.07</course>
  <speed>0.022360679774997897</speed>
  <fix>3d</fix>
</trkpt>
<trkpt lat="40.0713749" lon="-105.229789">
  <ele>1583.0</ele>
  <time>2026-08-28T17:51:39Z</time>
  <course>0.0</course>
  <speed>0.0</speed>
  <fix>3d</fix>
</trkpt>
<trkpt lat="40.0713749" lon="-105.229789">
  <ele>1583.0</ele>
  <time>2026-08-28T17:51:39Z</time>
  <course>248.06</course>
  <speed>0.022360679774997897</speed>
  <fix>3d</fix>
</trkpt>
<trkpt lat="40.0713749" lon="-105.229789">
  <ele>1583.0</ele>
  <time>2026-08-28T17:51:39Z</time>
  <course>0.0</course>
  <speed>0.0</speed>
  <fix>3d</fix>
</trkpt>
<trkpt lat="40.0713749" lon="-105.229789">
  <ele>1583.0</ele>
  <time>2026-08-28T17:51:39Z</time>
  <course>248.06</course>
  <speed>0.022360679774997897</speed>
  <fix>3d</fix>
</trkpt>
<trkpt lat="40.0713749" lon="-105.229789">
  <ele>1583.0</ele>
  <time>2026-08-28T17:51:39Z</time>
  <course>0.0</course>
  <speed>0.0</speed>
  <fix>3d</fix>
</trkpt>
<trkpt lat="40.0713749" lon="-105.229789">
  <ele>1583.0</ele>
  <time>2026-08-28T17:51:39Z</time>
  <course>248.05</course>
  <speed>0.022360679774997897</speed>
  <fix>3d</fix>
</trkpt>
<trkpt lat="40.0713749" lon="-105.229789">
  <ele>1583.0</ele>
  <time>2026-08-28T17:51:39Z</time>
  <course>0.0</course>
  <speed>0.0</speed>
  <fix>3d</fix>
</trkpt>
<trkpt lat="40.0713749" lon="-105.229789">
  <ele>1583.0</ele>
  <time>2026-08-28T17:51:39Z</time>
  <course>248.05</course>
  <speed>0.022360679774997897</speed>
  <fix>3d</fix>
</trkpt>
<trkpt lat="40.0713749" lon="-105.229789">
  <ele>1583.0</ele>
  <time>2026-08-28T17:51:39Z</time>
  <course>0.0</course>
  <speed>0.0</speed>
  <fix>3d</fix>
</trkpt>
<trkpt lat="40.0713749" lon="-105.229789">
  <ele>1583.0</ele>
  <time>2026-08-28T17:51:39Z</time>
  <course>248.05</course>
  <speed>0.022360679774997897</speed>
  <fix>3d</fix>
</trkpt>
<trkpt lat="40.0713749" lon="-105.229789">
  <ele>1583.0</ele>
  <time>2026-08-28T17:51:39Z</time>
  <course>0.0</course>
  <speed>0.0</speed>
  <fix>3d</fix>
</trkpt>
<trkpt lat="40.0713749" lon="-105.229789">
  <ele>1583.0</ele>
  <time>2026-08-28T17:51:39Z</time>
  <course>248.04</course>
  <speed>0.022360679774997897</speed>
  <fix>3d</fix>
</trkpt>
<trkpt lat="40.0713749" lon="-105.229789">
  <ele>1583.0</ele>
  <time>2026-08-28T17:51:39Z</time>
  <course>0.0</course>
  <speed>0.0</speed>
  <fix>3d</fix>
</trkpt>
<trkpt lat="40.0713749" lon="-105.229789">
  <ele>1583.0</ele>
  <time>2026-08-28T17:51:39Z</time>
  <course>248.04</course>
  <speed>0.022360679774997897</speed>
  <fix>3d</fix>
</trkpt>
<trkpt lat="40.0713749" lon="-105.229789">
  <ele>1583.0</ele>
  <time>2026-08-28T17:51:39Z</time>
  <course>0.0</course>
  <speed>0.0</speed>
  <fix>3d</fix>
</trkpt>
<trkpt lat="40.0713749" lon="-105.229789">
  <ele>1583.0</ele>
  <time>2026-08-28T17:51:39Z</time>
  <course>248.03</course>
  <speed>0.022360679774997897</speed>
  <fix>3d</fix>
</trkpt>
<trkpt lat="40.0713749" lon="-105.229789">
  <ele>1583.0</ele>
  <time>2026-08-28T17:51:39Z</time>
  <course>0.0</course>
  <speed>0.0</speed>
  <fix>3d</fix>
</trkpt>
<trkpt lat="40.0713749" lon="-105.229789">
  <ele>1583.0</ele>
  <time>2026-08-28T17:51:39Z</time>
  <course>248.03</course>
  <speed>0.022360679774997897</speed>
  <fix>3d</fix>
</trkpt>
<trkpt lat="40.0713749" lon="-105.229789">
  <ele>1583.0</ele>
  <time>2026-08-28T17:51:39Z</time>
  <course>0.0</course>
  <speed>0.0</speed>
  <fix>3d</fix>
</trkpt>
<trkpt lat="40.0713749" lon="-105.229789">
  <ele>1583.0</ele>
  <time>2026-08-28T17:51:39Z</time>
  <course>248.02</course>
  <speed>0.022360679774997897</speed>
  <fix>3d</fix>
</trkpt>
<trkpt lat="40.0713749" lon="-105.229789">
  <ele>1583.0</ele>
  <time>2026-08-28T17:51:39Z</time>
  <course>0.0</course>
  <speed>0.0</speed>
  <fix>3d</fix>
</trkpt>
<trkpt lat="40.0713749" lon="-105.229789">
  <ele>1583.0</ele>
  <time>2026-08-28T17:51:39Z</time>
  <course>248.02</course>
  <speed>0.022360679774997897</speed>
  <fix>3d</fix>
</trkpt>
<trkpt lat="40.0713749" lon="-105.229789">
  <ele>1583.0</ele>
  <time>2026-08-28T17:51:39Z</time>
  <course>0.0</course>
  <speed>0.0</speed>
  <fix>3d</fix>
</trkpt>
<trkpt lat="40.0713749" lon="-105.229789">
  <ele>1583.0</ele>
  <time>2026-08-28T17:51:39Z</time>
  <course>248.01</course>
  <speed>0.022360679774997897</speed>
  <fix>3d</fix>
</trkpt>
<trkpt lat="40.0713749" lon="-105.229789">
  <ele>1583.0</ele>
  <time>2026-08-28T17:51:39Z</time>
  <course>0.0</course>
  <speed>0.0</speed>
  <fix>3d</fix>
</trkpt>
<trkpt lat="40.0713749" lon="-105.229789">
  <ele>1583.0</ele>
  <time>2026-08-28T17:51:39Z</time>
  <course>248.01</course>
  <speed>0.022360679774997897</speed>
  <fix>3d</fix>
</trkpt>
<trkpt lat="40.0713749" lon="-105.229789">
  <ele>1583.0</ele>
  <time>2026-08-28T17:51:39Z</time>
  <course>0.0</course>
  <speed>0.0</speed>
  <fix>3d</fix>
</trkpt>
<trkpt lat="40.0713749" lon="-105.229789">
  <ele>1583.0</ele>
  <time>2026-08-28T17:51:39Z</time>
  <course>248.0</course>
  <speed>0.022360679774997897</speed>
  <fix>3d</fix>
</trkpt>
<trkpt lat="40.0713749" lon="-105.229789">
  <ele>1583.0</ele>
  <time>2026-08-28T17:51:39Z</time>
  <course>0.0</course>
  <speed>0.0</speed>
  <fix>3d</fix>
</trkpt>
<trkpt lat="40.0713749" lon="-105.229789">
  <ele>1583.0</ele>
  <time>2026-08-28T17:51:39Z</time>
  <course>248.0</course>
  <speed>0.022360679774997897</speed>
  <fix>3d</fix>
</trkpt>
<trkpt lat="40.0713749" lon="-105.229789">
  <ele>1583.0</ele>
  <time>2026-08-28T17:51:39Z</time>
  <course>0.0</course>
  <speed>0.0</speed>
  <fix>3d</fix>
</trkpt>
<trkpt lat="40.0713749" lon="-105.229789">
  <ele>1583.0</ele>
  <time>2026-08-28T17:51:39Z</time>
  <course>247.99</course>
  <speed>0.022360679774997897</speed>
  <fix>3d</fix>
</trkpt>
<trkpt lat="40.0713749" lon="-105.229789">
  <ele>1583.0</ele>
  <time>2026-08-28T17:51:39Z</time>
  <course>0.0</course>
  <speed>0.0</speed>
  <fix>3d</fix>
</trkpt>
<trkpt lat="40.0713749" lon="-105.229789">
  <ele>1583.0</ele>
  <time>2026-08-28T17:51:39Z</time>
  <course>247.99</course>
  <speed>0.022360679774997897</speed>
  <fix>3d</fix>
</trkpt>
<trkpt lat="40.0713749" lon="-105.229789">
  <ele>1583.0</ele>
  <time>2026-08-28T17:51:39Z</time>
  <course>0.0</course>
  <speed>0.0</speed>
  <fix>3d</fix>
</trkpt>
<trkpt lat="40.0713749" lon="-105.229789">
  <ele>1583.0</ele>
  <time>2026-08-28T17:51:39Z</time>
  <course>247.99</course>
  <speed>0.022360679774997897</speed>
  <fix>3d</fix>
</trkpt>
<trkpt lat="40.0713749" lon="-105.229789">
  <ele>1583.0</ele>
  <time>2026-08-28T17:51:39Z</time>
  <course>0.0</course>
  <speed>0.0</speed>
  <fix>3d</fix>
</trkpt>
<trkpt lat="40.0713749" lon="-105.229789">
  <ele>1583.0</ele>
  <time>2026-08-28T17:51:39Z</time>
  <course>247.98</course>
  <speed>0.022360679774997897</speed>
  <fix>3d</fix>
</trkpt>
<trkpt lat="40.0713749" lon="-105.229789">
  <ele>1583.0</ele>
  <time>2026-08-28T17:51:39Z</time>
  <course>0.0</course>
  <speed>0.0</speed>
  <fix>3d</fix>
</trkpt>
<trkpt lat="40.0713749" lon="-105.229789">
  <ele>1583.0</ele>
  <time>2026-08-28T17:51:39Z</time>
  <course>247.98</course>
  <speed>0.022360679774997897</speed>
  <fix>3d</fix>
</trkpt>
<trkpt lat="40.0713749" lon="-105.229789">
  <ele>1583.0</ele>
  <time>2026-08-28T17:51:39Z</time>
  <course>0.0</course>
  <speed>0.0</speed>
  <fix>3d</fix>
</trkpt>
<trkpt lat="40.0713749" lon="-105.229789">
  <ele>1583.0</ele>
  <time>2026-08-28T17:51:39Z</time>
  <course>247.97</course>
  <speed>0.022360679774997897</speed>
  <fix>3d</fix>
</trkpt>
<trkpt lat="40.0713749" lon="-105.229789">
  <ele>1583.0</ele>
  <time>2026-08-28T17:51:39Z</time>
  <course>0.0</course>
  <speed>0.0</speed>
  <fix>3d</fix>
</trkpt>
<trkpt lat="40.0713749" lon="-105.229789">
  <ele>1583.0</ele>
  <time>2026-08-28T17:51:39Z</time>
  <course>247.97</course>
  <speed>0.022360679774997897</speed>
  <fix>3d</fix>
</trkpt>
<trkpt lat="40.0713749" lon="-105.229789">
  <ele>1583.0</ele>
  <time>2026-08-28T17:51:39Z</time>
  <course>0.0</course>
  <speed>0.0</speed>
  <fix>3d</fix>
</trkpt>
<trkpt lat="40.0713749" lon="-105.229789">
  <ele>1583.0</ele>
  <time>2026-08-28T17:51:39Z</time>
  <course>247.96</course>
  <speed>0.022360679774997897</speed>
  <fix>3d</fix>
</trkpt>
<trkpt lat="40.0713749" lon="-105.229789">
  <ele>1583.0</ele>
  <time>2026-08-28T17:51:39Z</time>
  <course>0.0</course>
  <speed>0.0</speed>
  <fix>3d</fix>
</trkpt>
<trkpt lat="40.0713749" lon="-105.229789">
  <ele>1583.0</ele>
  <time>2026-08-28T17:51:39Z</time>
  <course>247.96</course>
  <speed>0.022360679774997897</speed>
  <fix>3d</fix>
</trkpt>
<trkpt lat="40.0713749" lon="-105.229789">
  <ele>1583.0</ele>
  <time>2026-08-28T17:51:39Z</time>
  <course>0.0</course>
  <speed>0.0</speed>
  <fix>3d</fix>
</trkpt>
<trkpt lat="40.0713749" lon="-105.229789">
  <ele>1583.0</ele>
  <time>2026-08-28T17:51:39Z</time>
  <course>247.95</course>
  <speed>0.022360679774997897</speed>
  <fix>3d</fix>
</trkpt>
<trkpt lat="40.0713749" lon="-105.229789">
  <ele>1583.0</ele>
  <time>2026-08-28T17:51:39Z</time>
  <course>0.0</course>
  <speed>0.0</speed>
  <fix>3d</fix>
</trkpt>
<trkpt lat="40.0713749" lon="-105.229789">
  <ele>1583.0</ele>
  <time>2026-08-28T17:51:39Z</time>
  <course>247.95</course>
  <speed>0.022360679774997897</speed>
  <fix>3d</fix>
</trkpt>
<trkpt lat="40.0713749" lon="-105.229789">
  <ele>1583.0</ele>
  <time>2026-08-28T17:51:39Z</time>
  <course>0.0</course>
  <speed>0.0</speed>
  <fix>3d</fix>
</trkpt>
<trkpt lat="40.0713749" lon="-105.229789">
  <ele>1583.0</ele>
  <time>2026-08-28T17:51:39Z</time>
  <course>247.95</course>
  <speed>0.022360679774997897</speed>
  <fix>3d</fix>
</trkpt>
<trkpt lat="40.0713749" lon="-105.229789">
  <ele>1583.0</ele>
  <time>2026-08-28T17:51:39Z</time>
  <course>0.0</course>
  <speed>0.0</speed>
  <fix>3d</fix>
</trkpt>
<trkpt lat="40.0713749" lon="-105.229789">
  <ele>1583.0</ele>
  <time>2026-08-28T17:51:39Z</time>
  <course>247.94</course>
  <speed>0.022360679774997897</speed>
  <fix>3d</fix>
</trkpt>
<trkpt lat="40.0713749" lon="-105.229789">
  <ele>1583.0</ele>
  <time>2026-08-28T17:51:39Z</time>
  <course>0.0</course>
  <speed>0.0</speed>
  <fix>3d</fix>
</trkpt>
<trkpt lat="40.0713749" lon="-105.229789">
  <ele>1583.0</ele>
  <time>2026-08-28T17:51:39Z</time>
  <course>247.94</course>
  <speed>0.022360679774997897</speed>
  <fix>3d</fix>
</trkpt>
<trkpt lat="40.0713749" lon="-105.229789">
  <ele>1583.0</ele>
  <time>2026-08-28T17:51:39Z</time>
  <course>0.0</course>
  <speed>0.0</speed>
  <fix>3d</fix>
</trkpt>
<trkpt lat="40.0713749" lon="-105.229789">
  <ele>1583.0</ele>
  <time>2026-08-28T17:51:39Z</time>
  <course>247.93</course>
  <speed>0.022360679774997897</speed>
  <fix>3d</fix>
</trkpt>
<trkpt lat="40.0713749" lon="-105.229789">
  <ele>1583.0</ele>
  <time>2026-08-28T17:51:39Z</time>
  <course>0.0</course>
  <speed>0.0</speed>
  <fix>3d</fix>
</trkpt>
<trkpt lat="40.0713749" lon="-105.229789">
  <ele>1583.0</ele>
  <time>2026-08-28T17:51:39Z</time>
  <course>247.93</course>
  <speed>0.022360679774997897</speed>
  <fix>3d</fix>
</trkpt>
<trkpt lat="40.0713749" lon="-105.229789">
  <ele>1583.0</ele>
  <time>2026-08-28T17:51:39Z</time>
  <course>0.0</course>
  <speed>0.0</speed>
  <fix>3d</fix>
</trkpt>
<trkpt lat="40.0713749" lon="-105.229789">
  <ele>1583.0</ele>
  <time>2026-08-28T17:51:39Z</time>
  <course>247.92</course>
  <speed>0.022360679774997897</speed>
  <fix>3d</fix>
</trkpt>
<trkpt lat="40.0713749" lon="-105.229789">
  <ele>1583.0</ele>
  <time>2026-08-28T17:51:39Z</time>
  <course>0.0</course>
  <speed>0.0</speed>
  <fix>3d</fix>
</trkpt>
<trkpt lat="40.0713749" lon="-105.229789">
  <ele>1583.0</ele>
  <time>2026-08-28T17:51:39Z</time>
  <course>247.92</course>
  <speed>0.022360679774997897</speed>
  <fix>3d</fix>
</trkpt>
<trkpt lat="40.0713749" lon="-105.229789">
  <ele>1583.0</ele>
  <time>2026-08-28T17:51:39Z</time>
  <course>0.0</course>
  <speed>0.0</speed>
  <fix>3d</fix>
</trkpt>
<trkpt lat="40.0713749" lon="-105.229789">
  <ele>1583.0</ele>
  <time>2026-08-28T17:51:39Z</time>
  <course>247.92</course>
  <speed>0.022360679774997897</speed>
  <fix>3d</fix>
</trkpt>
<trkpt lat="40.0713749" lon="-105.229789">
  <ele>1583.0</ele>
  <time>2026-08-28T17:51:39Z</time>
  <course>0.0</course>
  <speed>0.0</speed>
  <fix>3d</fix>
</trkpt>
<trkpt lat="40.0713749" lon="-105.229789">
  <ele>1583.0</ele>
  <time>2026-08-28T17:51:39Z</time>
  <course>247.91</course>
  <speed>0.022360679774997897</speed>
  <fix>3d</fix>
</trkpt>
<trkpt lat="40.0713749" lon="-105.229789">
  <ele>1583.0</ele>
  <time>2026-08-28T17:51:39Z</time>
  <course>0.0</course>
  <speed>0.0</speed>
  <fix>3d</fix>
</trkpt>
<trkpt lat="40.0713749" lon="-105.229789">
  <ele>1583.0</ele>
  <time>2026-08-28T17:51:39Z</time>
  <course>247.91</course>
  <speed>0.022360679774997897</speed>
  <fix>3d</fix>
</trkpt>
<trkpt lat="40.0713749" lon="-105.229789">
  <ele>1583.0</ele>
  <time>2026-08-28T17:51:39Z</time>
  <course>0.0</course>
  <speed>0.0</speed>
  <fix>3d</fix>
</trkpt>
<trkpt lat="40.0713749" lon="-105.229789">
  <ele>1583.0</ele>
  <time>2026-08-28T17:51:39Z</time>
  <course>247.9</course>
  <speed>0.022360679774997897</speed>
  <fix>3d</fix>
</trkpt>
<trkpt lat="40.0713749" lon="-105.229789">
  <ele>1583.0</ele>
  <time>2026-08-28T17:51:39Z</time>
  <course>0.0</course>
  <speed>0.0</speed>
  <fix>3d</fix>
</trkpt>
<trkpt lat="40.0713749" lon="-105.229789">
  <ele>1583.0</ele>
  <time>2026-08-28T17:51:39Z</time>
  <course>247.9</course>
  <speed>0.022360679774997897</speed>
  <fix>3d</fix>
</trkpt>
<trkpt lat="40.0713749" lon="-105.229789">
  <ele>1583.0</ele>
  <time>2026-08-28T17:51:39Z</time>
  <course>0.0</course>
  <speed>0.0</speed>
  <fix>3d</fix>
</trkpt>
<trkpt lat="40.0713749" lon="-105.229789">
  <ele>1583.0</ele>
  <time>2026-08-28T17:51:39Z</time>
  <course>247.89</course>
  <speed>0.022360679774997897</speed>
  <fix>3d</fix>
</trkpt>
<trkpt lat="40.0713749" lon="-105.229789">
  <ele>1583.0</ele>
  <time>2026-08-28T17:51:39Z</time>
  <course>0.0</course>
  <speed>0.0</speed>
  <fix>3d</fix>
</trkpt>
<trkpt lat="40.0713749" lon="-105.229789">
  <ele>1583.0</ele>
  <time>2026-08-28T17:51:39Z</time>
  <course>247.89</course>
  <speed>0.022360679774997897</speed>
  <fix>3d</fix>
</trkpt>
<trkpt lat="40.0713749" lon="-105.229789">
  <ele>1583.0</ele>
  <time>2026-08-28T17:51:39Z</time>
  <course>0.0</course>
  <speed>0.0</speed>
  <fix>3d</fix>
</trkpt>
<trkpt lat="40.0713749" lon="-105.229789">
  <ele>1583.0</ele>
  <time>2026-08-28T17:51:39Z</time>
  <course>247.89</course>
  <speed>0.022360679774997897</speed>
  <fix>3d</fix>
</trkpt>
<trkpt lat="40.0713749" lon="-105.229789">
  <ele>1583.0</ele>
  <time>2026-08-28T17:51:39Z</time>
  <course>0.0</course>
  <speed>0.0</speed>
  <fix>3d</fix>
</trkpt>
<trkpt lat="40.0713749" lon="-105.229789">
  <ele>1583.0</ele>
  <time>2026-08-28T17:51:39Z</time>
  <course>247.88</course>
  <speed>0.0316227766016838</speed>
  <fix>3d</fix>
</trkpt>
<trkpt lat="40.0713749" lon="-105.229789">
  <ele>1583.0</ele>
  <time>2026-08-28T17:51:39Z</time>
  <course>0.0</course>
  <speed>0.0</speed>
  <fix>3d</fix>
</trkpt>
<trkpt lat="40.0713749" lon="-105.229789">
  <ele>1583.0</ele>
  <time>2026-08-28T17:51:39Z</time>
  <course>247.88</course>
  <speed>0.0316227766016838</speed>
  <fix>3d</fix>
</trkpt>
<trkpt lat="40.0713749" lon="-105.229789">
  <ele>1583.0</ele>
  <time>2026-08-28T17:51:39Z</time>
  <course>0.0</course>
  <speed>0.0</speed>
  <fix>3d</fix>
</trkpt>
<trkpt lat="40.0713749" lon="-105.229789">
  <ele>1583.0</ele>
  <time>2026-08-28T17:51:39Z</time>
  <course>247.87</course>
  <speed>0.0316227766016838</speed>
  <fix>3d</fix>
</trkpt>
<trkpt lat="40.0713749" lon="-105.229789">
  <ele>1583.0</ele>
  <time>2026-08-28T17:51:39Z</time>
  <course>0.0</course>
  <speed>0.0</speed>
  <fix>3d</fix>
</trkpt>
<trkpt lat="40.0713749" lon="-105.229789">
  <ele>1583.0</ele>
  <time>2026-08-28T17:51:39Z</time>
  <course>247.87</course>
  <speed>0.0316227766016838</speed>
  <fix>3d</fix>
</trkpt>
<trkpt lat="40.0713749" lon="-105.229789">
  <ele>1583.0</ele>
  <time>2026-08-28T17:51:39Z</time>
  <course>0.0</course>
  <speed>0.0</speed>
  <fix>3d</fix>
</trkpt>
<trkpt lat="40.0713749" lon="-105.229789">
  <ele>1583.0</ele>
  <time>2026-08-28T17:51:39Z</time>
  <course>247.87</course>
  <speed>0.0316227766016838</speed>
  <fix>3d</fix>
</trkpt>
<trkpt lat="40.0713749" lon="-105.229789">
  <ele>1583.0</ele>
  <time>2026-08-28T17:51:39Z</time>
  <course>0.0</course>
  <speed>0.0</speed>
  <fix>3d</fix>
</trkpt>
<trkpt lat="40.0713749" lon="-105.229789">
  <ele>1583.0</ele>
  <time>2026-08-28T17:51:39Z</time>
  <course>247.86</course>
  <speed>0.0316227766016838</speed>
  <fix>3d</fix>
</trkpt>
<trkpt lat="40.0713749" lon="-105.229789">
  <ele>1583.0</ele>
  <time>2026-08-28T17:51:39Z</time>
  <course>0.0</course>
  <speed>0.0</speed>
  <fix>3d</fix>
</trkpt>
<trkpt lat="40.0713749" lon="-105.229789">
  <ele>1583.0</ele>
  <time>2026-08-28T17:51:39Z</time>
  <course>247.86</course>
  <speed>0.0316227766016838</speed>
  <fix>3d</fix>
</trkpt>
<trkpt lat="40.0713749" lon="-105.229789">
  <ele>1583.0</ele>
  <time>2026-08-28T17:51:39Z</time>
  <course>0.0</course>
  <speed>0.0</speed>
  <fix>3d</fix>
</trkpt>
<trkpt lat="40.0713749" lon="-105.229789">
  <ele>1583.0</ele>
  <time>2026-08-28T17:51:39Z</time>
  <course>247.85</course>
  <speed>0.0316227766016838</speed>
  <fix>3d</fix>
</trkpt>
<trkpt lat="40.0713749" lon="-105.229789">
  <ele>1583.0</ele>
  <time>2026-08-28T17:51:39Z</time>
  <course>0.0</course>
  <speed>0.0</speed>
  <fix>3d</fix>
</trkpt>
<trkpt lat="40.0713749" lon="-105.229789">
  <ele>1583.0</ele>
  <time>2026-08-28T17:51:39Z</time>
  <course>247.85</course>
  <speed>0.0316227766016838</speed>
  <fix>3d</fix>
</trkpt>
<trkpt lat="40.0713749" lon="-105.229789">
  <ele>1583.0</ele>
  <time>2026-08-28T17:51:39Z</time>
  <course>0.0</course>
  <speed>0.0</speed>
  <fix>3d</fix>
</trkpt>
<trkpt lat="40.0713749" lon="-105.229789">
  <ele>1583.0</ele>
  <time>2026-08-28T17:51:39Z</time>
  <course>247.85</course>
  <speed>0.0316227766016838</speed>
  <fix>3d</fix>
</trkpt>
<trkpt lat="40.0713749" lon="-105.229789">
  <ele>1583.0</ele>
  <time>2026-08-28T17:51:39Z</time>
  <course>0.0</course>
  <speed>0.0</speed>
  <fix>3d</fix>
</trkpt>
<trkpt lat="40.0713749" lon="-105.229789">
  <ele>1583.0</ele>
  <time>2026-08-28T17:51:39Z</time>
  <course>247.84</course>
  <speed>0.0316227766016838</speed>
  <fix>3d</fix>
</trkpt>
<trkpt lat="40.0713749" lon="-105.229789">
  <ele>1583.0</ele>
  <time>2026-08-28T17:51:39Z</time>
  <course>0.0</course>
  <speed>0.0</speed>
  <fix>3d</fix>
</trkpt>
<trkpt lat="40.0713749" lon="-105.229789">
  <ele>1583.0</ele>
  <time>2026-08-28T17:51:39Z</time>
  <course>247.84</course>
  <speed>0.0316227766016838</speed>
  <fix>3d</fix>
</trkpt>
<trkpt lat="40.0713749" lon="-105.229789">
  <ele>1583.0</ele>
  <time>2026-08-28T17:51:39Z</time>
  <course>0.0</course>
  <speed>0.0</speed>
  <fix>3d</fix>
</trkpt>
<trkpt lat="40.0713749" lon="-105.229789">
  <ele>1583.0</ele>
  <time>2026-08-28T17:51:39Z</time>
  <course>247.83</course>
  <speed>0.0316227766016838</speed>
  <fix>3d</fix>
</trkpt>
<trkpt lat="40.0713749" lon="-105.229789">
  <ele>1583.0</ele>
  <time>2026-08-28T17:51:39Z</time>
  <course>0.0</course>
  <speed>0.0</speed>
  <fix>3d</fix>
</trkpt>
<trkpt lat="40.0713749" lon="-105.229789">
  <ele>1583.0</ele>
  <time>2026-08-28T17:51:39Z</time>
  <course>247.83</course>
  <speed>0.0316227766016838</speed>
  <fix>3d</fix>
</trkpt>
<trkpt lat="40.0713749" lon="-105.229789">
  <ele>1583.0</ele>
  <time>2026-08-28T17:51:39Z</time>
  <course>0.0</course>
  <speed>0.0</speed>
  <fix>3d</fix>
</trkpt>
<trkpt lat="40.0713749" lon="-105.229789">
  <ele>1583.0</ele>
  <time>2026-08-28T17:51:39Z</time>
  <course>247.83</course>
  <speed>0.0316227766016838</speed>
  <fix>3d</fix>
</trkpt>
<trkpt lat="40.0713749" lon="-105.229789">
  <ele>1583.0</ele>
  <time>2026-08-28T17:51:39Z</time>
  <course>0.0</course>
  <speed>0.0</speed>
  <fix>3d</fix>
</trkpt>
<trkpt lat="40.0713749" lon="-105.229789">
  <ele>1583.0</ele>
  <time>2026-08-28T17:51:39Z</time>
  <course>247.82</course>
  <speed>0.0316227766016838</speed>
  <fix>3d</fix>
</trkpt>
<trkpt lat="40.0713749" lon="-105.229789">
  <ele>1583.0</ele>
  <time>2026-08-28T17:51:39Z</time>
  <course>0.0</course>
  <speed>0.0</speed>
  <fix>3d</fix>
</trkpt>
<trkpt lat="40.0713749" lon="-105.229789">
  <ele>1583.0</ele>
  <time>2026-08-28T17:51:39Z</time>
  <course>247.82</course>
  <speed>0.0316227766016838</speed>
  <fix>3d</fix>
</trkpt>
<trkpt lat="40.0713749" lon="-105.229789">
  <ele>1583.0</ele>
  <time>2026-08-28T17:51:39Z</time>
  <course>0.0</course>
  <speed>0.0</speed>
  <fix>3d</fix>
</trkpt>
<trkpt lat="40.0713749" lon="-105.229789">
  <ele>1583.0</ele>
  <time>2026-08-28T17:51:39Z</time>
  <course>247.82</course>
  <speed>0.0316227766016838</speed>
  <fix>3d</fix>
</trkpt>
<trkpt lat="40.0713749" lon="-105.229789">
  <ele>1583.0</ele>
  <time>2026-08-28T17:51:39Z</time>
  <course>0.0</course>
  <speed>0.0</speed>
  <fix>3d</fix>
</trkpt>
<trkpt lat="40.0713749" lon="-105.229789">
  <ele>1583.0</ele>
  <time>2026-08-28T17:51:39Z</time>
  <course>247.81</course>
  <speed>0.0316227766016838</speed>
  <fix>3d</fix>
</trkpt>
<trkpt lat="40.0713749" lon="-105.229789">
  <ele>1583.0</ele>
  <time>2026-08-28T17:51:39Z</time>
  <course>0.0</course>
  <speed>0.0</speed>
  <fix>3d</fix>
</trkpt>
<trkpt lat="40.0713749" lon="-105.229789">
  <ele>1583.0</ele>
  <time>2026-08-28T17:51:39Z</time>
  <course>247.81</course>
  <speed>0.0316227766016838</speed>
  <fix>3d</fix>
</trkpt>
<trkpt lat="40.0713749" lon="-105.229789">
  <ele>1583.0</ele>
  <time>2026-08-28T17:51:39Z</time>
  <course>0.0</course>
  <speed>0.0</speed>
  <fix>3d</fix>
</trkpt>
<trkpt lat="40.0713749" lon="-105.229789">
  <ele>1583.0</ele>
  <time>2026-08-28T17:51:39Z</time>
  <course>247.8</course>
  <speed>0.0316227766016838</speed>
  <fix>3d</fix>
</trkpt>
<trkpt lat="40.0713749" lon="-105.229789">
  <ele>1583.0</ele>
  <time>2026-08-28T17:51:39Z</time>
  <course>0.0</course>
  <speed>0.0</speed>
  <fix>3d</fix>
</trkpt>
<trkpt lat="40.0713749" lon="-105.229789">
  <ele>1583.0</ele>
  <time>2026-08-28T17:51:39Z</time>
  <course>247.8</course>
  <speed>0.0316227766016838</speed>
  <fix>3d</fix>
</trkpt>
<trkpt lat="40.0713749" lon="-105.229789">
  <ele>1583.0</ele>
  <time>2026-08-28T17:51:39Z</time>
  <course>0.0</course>
  <speed>0.0</speed>
  <fix>3d</fix>
</trkpt>
<trkpt lat="40.0713749" lon="-105.229789">
  <ele>1583.0</ele>
  <time>2026-08-28T17:51:39Z</time>
  <course>247.8</course>
  <speed>0.0316227766016838</speed>
  <fix>3d</fix>
</trkpt>
<trkpt lat="40.0713749" lon="-105.229789">
  <ele>1583.0</ele>
  <time>2026-08-28T17:51:39Z</time>
  <course>0.0</course>
  <speed>0.0</speed>
  <fix>3d</fix>
</trkpt>
<trkpt lat="40.0713749" lon="-105.229789">
  <ele>1583.0</ele>
  <time>2026-08-28T17:51:39Z</time>
  <course>247.79</course>
  <speed>0.0316227766016838</speed>
  <fix>3d</fix>
</trkpt>
<trkpt lat="40.0713749" lon="-105.229789">
  <ele>1583.0</ele>
  <time>2026-08-28T17:51:39Z</time>
  <course>0.0</course>
  <speed>0.0</speed>
  <fix>3d</fix>
</trkpt>
<trkpt lat="40.0713749" lon="-105.229789">
  <ele>1583.0</ele>
  <time>2026-08-28T17:51:39Z</time>
  <course>247.79</course>
  <speed>0.0316227766016838</speed>
  <fix>3d</fix>
</trkpt>
<trkpt lat="40.0713749" lon="-105.229789">
  <ele>1583.0</ele>
  <time>2026-08-28T17:51:39Z</time>
  <course>0.0</course>
  <speed>0.0</speed>
  <fix>3d</fix>
</trkpt>
<trkpt lat="40.0713749" lon="-105.229789">
  <ele>1583.0</ele>
  <time>2026-08-28T17:51:39Z</time>
  <course>247.79</course>
  <speed>0.0316227766016838</speed>
  <fix>3d</fix>
</trkpt>
<trkpt lat="40.0713749" lon="-105.229789">
  <ele>1583.0</ele>
  <time>2026-08-28T17:51:39Z</time>
  <course>0.0</course>
  <speed>0.0</speed>
  <fix>3d</fix>
</trkpt>
<trkpt lat="40.0713749" lon="-105.229789">
  <ele>1583.0</ele>
  <time>2026-08-28T17:51:39Z</time>
  <course>247.78</course>
  <speed>0.0316227766016838</speed>
  <fix>3d</fix>
</trkpt>
<trkpt lat="40.0713749" lon="-105.229789">
  <ele>1583.0</ele>
  <time>2026-08-28T17:51:39Z</time>
  <course>0.0</course>
  <speed>0.0</speed>
  <fix>3d</fix>
</trkpt>
<trkpt lat="40.0713749" lon="-105.229789">
  <ele>1583.0</ele>
  <time>2026-08-28T17:51:39Z</time>
  <course>247.78</course>
  <speed>0.0316227766016838</speed>
  <fix>3d</fix>
</trkpt>
<trkpt lat="40.0713749" lon="-105.229789">
  <ele>1583.0</ele>
  <time>2026-08-28T17:51:39Z</time>
  <course>0.0</course>
  <speed>0.0</speed>
  <fix>3d</fix>
</trkpt>
<trkpt lat="40.0713749" lon="-105.229789">
  <ele>1583.0</ele>
  <time>2026-08-28T17:51:39Z</time>
  <course>247.78</course>
  <speed>0.0316227766016838</speed>
  <fix>3d</fix>
</trkpt>
<trkpt lat="40.0713749" lon="-105.229789">
  <ele>1583.0</ele>
  <time>2026-08-28T17:51:39Z</time>
  <course>0.0</course>
  <speed>0.0</speed>
  <fix>3d</fix>
</trkpt>
<trkpt lat="40.0713749" lon="-105.229789">
  <ele>1583.0</ele>
  <time>2026-08-28T17:51:39Z</time>
  <course>247.77</course>
  <speed>0.0316227766016838</speed>
  <fix>3d</fix>
</trkpt>
<trkpt lat="40.0713749" lon="-105.229789">
  <ele>1583.0</ele>
  <time>2026-08-28T17:51:39Z</time>
  <course>0.0</course>
  <speed>0.0</speed>
  <fix>3d</fix>
</trkpt>
<trkpt lat="40.0713749" lon="-105.229789">
  <ele>1583.0</ele>
  <time>2026-08-28T17:51:39Z</time>
  <course>247.77</course>
  <speed>0.0316227766016838</speed>
  <fix>3d</fix>
</trkpt>
<trkpt lat="40.0713749" lon="-105.229789">
  <ele>1583.0</ele>
  <time>2026-08-28T17:51:39Z</time>
  <course>0.0</course>
  <speed>0.0</speed>
  <fix>3d</fix>
</trkpt>
<trkpt lat="40.0713749" lon="-105.229789">
  <ele>1583.0</ele>
  <time>2026-08-28T17:51:39Z</time>
  <course>247.76</course>
  <speed>0.0316227766016838</speed>
  <fix>3d</fix>
</trkpt>
<trkpt lat="40.0713749" lon="-105.229789">
  <ele>1583.0</ele>
  <time>2026-08-28T17:51:39Z</time>
  <course>0.0</course>
  <speed>0.0</speed>
  <fix>3d</fix>
</trkpt>
<trkpt lat="40.0713749" lon="-105.229789">
  <ele>1583.0</ele>
  <time>2026-08-28T17:51:39Z</time>
  <course>247.76</course>
  <speed>0.0316227766016838</speed>
  <fix>3d</fix>
</trkpt>
<trkpt lat="40.0713749" lon="-105.229789">
  <ele>1583.0</ele>
  <time>2026-08-28T17:51:39Z</time>
  <course>0.0</course>
  <speed>0.0</speed>
  <fix>3d</fix>
</trkpt>
<trkpt lat="40.0713749" lon="-105.229789">
  <ele>1583.0</ele>
  <time>2026-08-28T17:51:39Z</time>
  <course>247.76</course>
  <speed>0.0316227766016838</speed>
  <fix>3d</fix>
</trkpt>
<trkpt lat="40.0713749" lon="-105.229789">
  <ele>1583.0</ele>
  <time>2026-08-28T17:51:39Z</time>
  <course>0.0</course>
  <speed>0.0</speed>
  <fix>3d</fix>
</trkpt>
<trkpt lat="40.0713749" lon="-105.229789">
  <ele>1583.0</ele>
  <time>2026-08-28T17:51:39Z</time>
  <course>247.75</course>
  <speed>0.0316227766016838</speed>
  <fix>3d</fix>
</trkpt>
<trkpt lat="40.0713749" lon="-105.229789">
  <ele>1583.0</ele>
  <time>2026-08-28T17:51:39Z</time>
  <course>0.0</course>
  <speed>0.0</speed>
  <fix>3d</fix>
</trkpt>
<trkpt lat="40.0713749" lon="-105.229789">
  <ele>1583.0</ele>
  <time>2026-08-28T17:51:39Z</time>
  <course>247.75</course>
  <speed>0.0316227766016838</speed>
  <fix>3d</fix>
</trkpt>
<trkpt lat="40.0713749" lon="-105.229789">
  <ele>1583.0</ele>
  <time>2026-08-28T17:51:39Z</time>
  <course>0.0</course>
  <speed>0.0</speed>
  <fix>3d</fix>
</trkpt>
<trkpt lat="40.0713749" lon="-105.229789">
  <ele>1583.0</ele>
  <time>2026-08-28T17:51:39Z</time>
  <course>247.75</course>
  <speed>0.0316227766016838</speed>
  <fix>3d</fix>
</trkpt>
<trkpt lat="40.0713749" lon="-105.229789">
  <ele>1583.0</ele>
  <time>2026-08-28T17:51:39Z</time>
  <course>0.0</course>
  <speed>0.0</speed>
  <fix>3d</fix>
</trkpt>
<trkpt lat="40.0713749" lon="-105.229789">
  <ele>1583.0</ele>
  <time>2026-08-28T17:51:39Z</time>
  <course>247.74</course>
  <speed>0.0316227766016838</speed>
  <fix>3d</fix>
</trkpt>
<trkpt lat="40.0713749" lon="-105.229789">
  <ele>1583.0</ele>
  <time>2026-08-28T17:51:39Z</time>
  <course>0.0</course>
  <speed>0.0</speed>
  <fix>3d</fix>
</trkpt>
<trkpt lat="40.0713749" lon="-105.229789">
  <ele>1583.0</ele>
  <time>2026-08-28T17:51:39Z</time>
  <course>247.74</course>
  <speed>0.0316227766016838</speed>
  <fix>3d</fix>
</trkpt>
<trkpt lat="40.0713749" lon="-105.229789">
  <ele>1583.0</ele>
  <time>2026-08-28T17:51:39Z</time>
  <course>0.0</course>
  <speed>0.0</speed>
  <fix>3d</fix>
</trkpt>
<trkpt lat="40.0713749" lon="-105.229789">
  <ele>1583.0</ele>
  <time>2026-08-28T17:51:39Z</time>
  <course>247.74</course>
  <speed>0.0316227766016838</speed>
  <fix>3d</fix>
</trkpt>
<trkpt lat="40.0713749" lon="-105.229789">
  <ele>1583.0</ele>
  <time>2026-08-28T17:51:39Z</time>
  <course>0.0</course>
  <speed>0.0</speed>
  <fix>3d</fix>
</trkpt>
<trkpt lat="40.0713749" lon="-105.229789">
  <ele>1583.0</ele>
  <time>2026-08-28T17:51:39Z</time>
  <course>247.73</course>
  <speed>0.0316227766016838</speed>
  <fix>3d</fix>
</trkpt>
<trkpt lat="40.0713749" lon="-105.229789">
  <ele>1583.0</ele>
  <time>2026-08-28T17:51:39Z</time>
  <course>0.0</course>
  <speed>0.0</speed>
  <fix>3d</fix>
</trkpt>
<trkpt lat="40.0713749" lon="-105.229789">
  <ele>1583.0</ele>
  <time>2026-08-28T17:51:39Z</time>
  <course>247.73</course>
  <speed>0.0316227766016838</speed>
  <fix>3d</fix>
</trkpt>
<trkpt lat="40.0713749" lon="-105.229789">
  <ele>1583.0</ele>
  <time>2026-08-28T17:51:39Z</time>
  <course>0.0</course>
  <speed>0.0</speed>
  <fix>3d</fix>
</trkpt>
<trkpt lat="40.0713749" lon="-105.229789">
  <ele>1583.0</ele>
  <time>2026-08-28T17:51:39Z</time>
  <course>247.73</course>
  <speed>0.0316227766016838</speed>
  <fix>3d</fix>
</trkpt>
<trkpt lat="40.0713749" lon="-105.229789">
  <ele>1583.0</ele>
  <time>2026-08-28T17:51:39Z</time>
  <course>0.0</course>
  <speed>0.0</speed>
  <fix>3d</fix>
</trkpt>
<trkpt lat="40.0713749" lon="-105.229789">
  <ele>1583.0</ele>
  <time>2026-08-28T17:51:39Z</time>
  <course>247.72</course>
  <speed>0.0316227766016838</speed>
  <fix>3d</fix>
</trkpt>
<trkpt lat="40.0713749" lon="-105.229789">
  <ele>1583.0</ele>
  <time>2026-08-28T17:51:39Z</time>
  <course>0.0</course>
  <speed>0.0</speed>
  <fix>3d</fix>
</trkpt>
<trkpt lat="40.0713749" lon="-105.229789">
  <ele>1583.0</ele>
  <time>2026-08-28T17:51:39Z</time>
  <course>247.72</course>
  <speed>0.0316227766016838</speed>
  <fix>3d</fix>
</trkpt>
<trkpt lat="40.0713749" lon="-105.229789">
  <ele>1583.0</ele>
  <time>2026-08-28T17:51:39Z</time>
  <course>0.0</course>
  <speed>0.0</speed>
  <fix>3d</fix>
</trkpt>
<trkpt lat="40.0713749" lon="-105.229789">
  <ele>1583.0</ele>
  <time>2026-08-28T17:51:39Z</time>
  <course>247.72</course>
  <speed>0.0316227766016838</speed>
  <fix>3d</fix>
</trkpt>
<trkpt lat="40.0713749" lon="-105.229789">
  <ele>1583.0</ele>
  <time>2026-08-28T17:51:39Z</time>
  <course>0.0</course>
  <speed>0.0</speed>
  <fix>3d</fix>
</trkpt>
<trkpt lat="40.0713749" lon="-105.229789">
  <ele>1583.0</ele>
  <time>2026-08-28T17:51:39Z</time>
  <course>247.71</course>
  <speed>0.0316227766016838</speed>
  <fix>3d</fix>
</trkpt>
<trkpt lat="40.0713749" lon="-105.229789">
  <ele>1583.0</ele>
  <time>2026-08-28T17:51:39Z</time>
  <course>0.0</course>
  <speed>0.0</speed>
  <fix>3d</fix>
</trkpt>
<trkpt lat="40.0713749" lon="-105.229789">
  <ele>1583.0</ele>
  <time>2026-08-28T17:51:39Z</time>
  <course>247.71</course>
  <speed>0.0316227766016838</speed>
  <fix>3d</fix>
</trkpt>
<trkpt lat="40.0713749" lon="-105.229789">
  <ele>1583.0</ele>
  <time>2026-08-28T17:51:39Z</time>
  <course>0.0</course>
  <speed>0.0</speed>
  <fix>3d</fix>
</trkpt>
<trkpt lat="40.0713749" lon="-105.229789">
  <ele>1583.0</ele>
  <time>2026-08-28T17:51:39Z</time>
  <course>247.71</course>
  <speed>0.0316227766016838</speed>
  <fix>3d</fix>
</trkpt>
<trkpt lat="40.0713749" lon="-105.229789">
  <ele>1583.0</ele>
  <time>2026-08-28T17:51:39Z</time>
  <course>0.0</course>
  <speed>0.0</speed>
  <fix>3d</fix>
</trkpt>
<trkpt lat="40.0713749" lon="-105.229789">
  <ele>1583.0</ele>
  <time>2026-08-28T17:51:39Z</time>
  <course>247.7</course>
  <speed>0.0316227766016838</speed>
  <fix>3d</fix>
</trkpt>
<trkpt lat="40.0713749" lon="-105.229789">
  <ele>1583.0</ele>
  <time>2026-08-28T17:51:39Z</time>
  <course>0.0</course>
  <speed>0.0</speed>
  <fix>3d</fix>
</trkpt>
<trkpt lat="40.0713749" lon="-105.229789">
  <ele>1583.0</ele>
  <time>2026-08-28T17:51:39Z</time>
  <course>247.7</course>
  <speed>0.0316227766016838</speed>
  <fix>3d</fix>
</trkpt>
<trkpt lat="40.0713749" lon="-105.229789">
  <ele>1583.0</ele>
  <time>2026-08-28T17:51:39Z</time>
  <course>0.0</course>
  <speed>0.0</speed>
  <fix>3d</fix>
</trkpt>
<trkpt lat="40.0713749" lon="-105.229789">
  <ele>1583.0</ele>
  <time>2026-08-28T17:51:39Z</time>
  <course>247.7</course>
  <speed>0.0316227766016838</speed>
  <fix>3d</fix>
</trkpt>
<trkpt lat="40.0713749" lon="-105.229789">
  <ele>1583.0</ele>
  <time>2026-08-28T17:51:39Z</time>
  <course>0.0</course>
  <speed>0.0</speed>
  <fix>3d</fix>
</trkpt>
<trkpt lat="40.0713749" lon="-105.229789">
  <ele>1583.0</ele>
  <time>2026-08-28T17:51:39Z</time>
  <course>247.69</course>
  <speed>0.0316227766016838</speed>
  <fix>3d</fix>
</trkpt>
<trkpt lat="40.0713749" lon="-105.229789">
  <ele>1583.0</ele>
  <time>2026-08-28T17:51:39Z</time>
  <course>0.0</course>
  <speed>0.0</speed>
  <fix>3d</fix>
</trkpt>
<trkpt lat="40.0713749" lon="-105.229789">
  <ele>1583.0</ele>
  <time>2026-08-28T17:51:39Z</time>
  <course>247.69</course>
  <speed>0.0316227766016838</speed>
  <fix>3d</fix>
</trkpt>
<trkpt lat="40.0713749" lon="-105.229789">
  <ele>1583.0</ele>
  <time>2026-08-28T17:51:39Z</time>
  <course>0.0</course>
  <speed>0.0</speed>
  <fix>3d</fix>
</trkpt>
<trkpt lat="40.0713749" lon="-105.229789">
  <ele>1583.0</ele>
  <time>2026-08-28T17:51:39Z</time>
  <course>247.69</course>
  <speed>0.0316227766016838</speed>
  <fix>3d</fix>
</trkpt>
<trkpt lat="40.0713749" lon="-105.229789">
  <ele>1583.0</ele>
  <time>2026-08-28T17:51:39Z</time>
  <course>0.0</course>
  <speed>0.0</speed>
  <fix>3d</fix>
</trkpt>
<trkpt lat="40.0713749" lon="-105.229789">
  <ele>1583.0</ele>
  <time>2026-08-28T17:51:39Z</time>
  <course>247.68</course>
  <speed>0.0316227766016838</speed>
  <fix>3d</fix>
</trkpt>
<trkpt lat="40.0713749" lon="-105.229789">
  <ele>1583.0</ele>
  <time>2026-08-28T17:51:39Z</time>
  <course>0.0</course>
  <speed>0.0</speed>
  <fix>3d</fix>
</trkpt>
<trkpt lat="40.0713749" lon="-105.229789">
  <ele>1583.0</ele>
  <time>2026-08-28T17:51:39Z</time>
  <course>247.68</course>
  <speed>0.0316227766016838</speed>
  <fix>3d</fix>
</trkpt>
<trkpt lat="40.0713749" lon="-105.229789">
  <ele>1583.0</ele>
  <time>2026-08-28T17:51:39Z</time>
  <course>0.0</course>
  <speed>0.0</speed>
  <fix>3d</fix>
</trkpt>
<trkpt lat="40.0713749" lon="-105.229789">
  <ele>1583.0</ele>
  <time>2026-08-28T17:51:39Z</time>
  <course>247.68</course>
  <speed>0.0316227766016838</speed>
  <fix>3d</fix>
</trkpt>
<trkpt lat="40.0713749" lon="-105.229789">
  <ele>1583.0</ele>
  <time>2026-08-28T17:51:39Z</time>
  <course>0.0</course>
  <speed>0.0</speed>
  <fix>3d</fix>
</trkpt>
<trkpt lat="40.0713749" lon="-105.229789">
  <ele>1583.0</ele>
  <time>2026-08-28T17:51:39Z</time>
  <course>247.67</course>
  <speed>0.0316227766016838</speed>
  <fix>3d</fix>
</trkpt>
<trkpt lat="40.0713749" lon="-105.229789">
  <ele>1583.0</ele>
  <time>2026-08-28T17:51:39Z</time>
  <course>0.0</course>
  <speed>0.0</speed>
  <fix>3d</fix>
</trkpt>
<trkpt lat="40.0713749" lon="-105.229789">
  <ele>1583.0</ele>
  <time>2026-08-28T17:51:39Z</time>
  <course>247.67</course>
  <speed>0.0316227766016838</speed>
  <fix>3d</fix>
</trkpt>
<trkpt lat="40.0713749" lon="-105.229789">
  <ele>1583.0</ele>
  <time>2026-08-28T17:51:39Z</time>
  <course>0.0</course>
  <speed>0.0</speed>
  <fix>3d</fix>
</trkpt>
<trkpt lat="40.0713749" lon="-105.229789">
  <ele>1583.0</ele>
  <time>2026-08-28T17:51:39Z</time>
  <course>247.67</course>
  <speed>0.0316227766016838</speed>
  <fix>3d</fix>
</trkpt>
<trkpt lat="40.0713749" lon="-105.229789">
  <ele>1583.0</ele>
  <time>2026-08-28T17:51:39Z</time>
  <course>0.0</course>
  <speed>0.0</speed>
  <fix>3d</fix>
</trkpt>
<trkpt lat="40.0713749" lon="-105.229789">
  <ele>1583.0</ele>
  <time>2026-08-28T17:51:39Z</time>
  <course>247.66</course>
  <speed>0.0316227766016838</speed>
  <fix>3d</fix>
</trkpt>
<trkpt lat="40.0713749" lon="-105.229789">
  <ele>1583.0</ele>
  <time>2026-08-28T17:51:39Z</time>
  <course>0.0</course>
  <speed>0.0</speed>
  <fix>3d</fix>
</trkpt>
<trkpt lat="40.0713749" lon="-105.229789">
  <ele>1583.0</ele>
  <time>2026-08-28T17:51:39Z</time>
  <course>247.66</course>
  <speed>0.0316227766016838</speed>
  <fix>3d</fix>
</trkpt>
<trkpt lat="40.0713749" lon="-105.229789">
  <ele>1583.0</ele>
  <time>2026-08-28T17:51:39Z</time>
  <course>0.0</course>
  <speed>0.0</speed>
  <fix>3d</fix>
</trkpt>
<trkpt lat="40.0713749" lon="-105.229789">
  <ele>1583.0</ele>
  <time>2026-08-28T17:51:39Z</time>
  <course>247.66</course>
  <speed>0.0316227766016838</speed>
  <fix>3d</fix>
</trkpt>
<trkpt lat="40.0713749" lon="-105.229789">
  <ele>1583.0</ele>
  <time>2026-08-28T17:51:39Z</time>
  <course>0.0</course>
  <speed>0.0</speed>
  <fix>3d</fix>
</trkpt>
<trkpt lat="40.0713749" lon="-105.229789">
  <ele>1583.0</ele>
  <time>2026-08-28T17:51:39Z</time>
  <course>247.65</course>
  <speed>0.0316227766016838</speed>
  <fix>3d</fix>
</trkpt>
<trkpt lat="40.0713749" lon="-105.229789">
  <ele>1583.0</ele>
  <time>2026-08-28T17:51:39Z</time>
  <course>0.0</course>
  <speed>0.0</speed>
  <fix>3d</fix>
</trkpt>
<trkpt lat="40.0713749" lon="-105.229789">
  <ele>1583.0</ele>
  <time>2026-08-28T17:51:39Z</time>
  <course>247.65</course>
  <speed>0.0316227766016838</speed>
  <fix>3d</fix>
</trkpt>
<trkpt lat="40.0713749" lon="-105.229789">
  <ele>1583.0</ele>
  <time>2026-08-28T17:51:39Z</time>
  <course>0.0</course>
  <speed>0.0</speed>
  <fix>3d</fix>
</trkpt>
<trkpt lat="40.0713749" lon="-105.229789">
  <ele>1583.0</ele>
  <time>2026-08-28T17:51:39Z</time>
  <course>247.65</course>
  <speed>0.0316227766016838</speed>
  <fix>3d</fix>
</trkpt>
<trkpt lat="40.0713749" lon="-105.229789">
  <ele>1583.0</ele>
  <time>2026-08-28T17:51:39Z</time>
  <course>0.0</course>
  <speed>0.0</speed>
  <fix>3d</fix>
</trkpt>
<trkpt lat="40.0713749" lon="-105.229789">
  <ele>1583.0</ele>
  <time>2026-08-28T17:51:39Z</time>
  <course>247.64</course>
  <speed>0.0316227766016838</speed>
  <fix>3d</fix>
</trkpt>
<trkpt lat="40.0713749" lon="-105.229789">
  <ele>1583.0</ele>
  <time>2026-08-28T17:51:39Z</time>
  <course>0.0</course>
  <speed>0.0</speed>
  <fix>3d</fix>
</trkpt>
<trkpt lat="40.0713749" lon="-105.229789">
  <ele>1583.0</ele>
  <time>2026-08-28T17:51:39Z</time>
  <course>247.64</course>
  <speed>0.0316227766016838</speed>
  <fix>3d</fix>
</trkpt>
<trkpt lat="40.0713749" lon="-105.229789">
  <ele>1583.0</ele>
  <time>2026-08-28T17:51:39Z</time>
  <course>0.0</course>
  <speed>0.0</speed>
  <fix>3d</fix>
</trkpt>
<trkpt lat="40.0713749" lon="-105.229789">
  <ele>1583.0</ele>
  <time>2026-08-28T17:51:39Z</time>
  <course>247.64</course>
  <speed>0.0316227766016838</speed>
  <fix>3d</fix>
</trkpt>
<trkpt lat="40.0713749" lon="-105.229789">
  <ele>1583.0</ele>
  <time>2026-08-28T17:51:39Z</time>
  <course>0.0</course>
  <speed>0.0</speed>
  <fix>3d</fix>
</trkpt>
<trkpt lat="40.0713749" lon="-105.229789">
  <ele>1583.0</ele>
  <time>2026-08-28T17:51:39Z</time>
  <course>247.64</course>
  <speed>0.0316227766016838</speed>
  <fix>3d</fix>
</trkpt>
<trkpt lat="40.0713749" lon="-105.229789">
  <ele>1583.0</ele>
  <time>2026-08-28T17:51:39Z</time>
  <course>0.0</course>
  <speed>0.0</speed>
  <fix>3d</fix>
</trkpt>
<trkpt lat="40.0713749" lon="-105.229789">
  <ele>1583.0</ele>
  <time>2026-08-28T17:51:39Z</time>
  <course>247.63</course>
  <speed>0.0316227766016838</speed>
  <fix>3d</fix>
</trkpt>
<trkpt lat="40.0713749" lon="-105.229789">
  <ele>1583.0</ele>
  <time>2026-08-28T17:51:39Z</time>
  <course>0.0</course>
  <speed>0.0</speed>
  <fix>3d</fix>
</trkpt>
<trkpt lat="40.0713749" lon="-105.229789">
  <ele>1583.0</ele>
  <time>2026-08-28T17:51:39Z</time>
  <course>247.63</course>
  <speed>0.0316227766016838</speed>
  <fix>3d</fix>
</trkpt>
<trkpt lat="40.0713749" lon="-105.229789">
  <ele>1583.0</ele>
  <time>2026-08-28T17:51:39Z</time>
  <course>0.0</course>
  <speed>0.0</speed>
  <fix>3d</fix>
</trkpt>
<trkpt lat="40.0713749" lon="-105.229789">
  <ele>1583.0</ele>
  <time>2026-08-28T17:51:39Z</time>
  <course>247.63</course>
  <speed>0.0316227766016838</speed>
  <fix>3d</fix>
</trkpt>
<trkpt lat="40.0713749" lon="-105.229789">
  <ele>1583.0</ele>
  <time>2026-08-28T17:51:39Z</time>
  <course>0.0</course>
  <speed>0.0</speed>
  <fix>3d</fix>
</trkpt>
<trkpt lat="40.0713749" lon="-105.229789">
  <ele>1583.0</ele>
  <time>2026-08-28T17:51:39Z</time>
  <course>247.62</course>
  <speed>0.0316227766016838</speed>
  <fix>3d</fix>
</trkpt>
<trkpt lat="40.0713749" lon="-105.229789">
  <ele>1583.0</ele>
  <time>2026-08-28T17:51:39Z</time>
  <course>0.0</course>
  <speed>0.0</speed>
  <fix>3d</fix>
</trkpt>
<trkpt lat="40.0713749" lon="-105.229789">
  <ele>1583.0</ele>
  <time>2026-08-28T17:51:39Z</time>
  <course>247.62</course>
  <speed>0.0316227766016838</speed>
  <fix>3d</fix>
</trkpt>
<trkpt lat="40.0713749" lon="-105.229789">
  <ele>1583.0</ele>
  <time>2026-08-28T17:51:39Z</time>
  <course>0.0</course>
  <speed>0.0</speed>
  <fix>3d</fix>
</trkpt>
<trkpt lat="40.0713749" lon="-105.229789">
  <ele>1583.0</ele>
  <time>2026-08-28T17:51:39Z</time>
  <course>247.62</course>
  <speed>0.0316227766016838</speed>
  <fix>3d</fix>
</trkpt>
<trkpt lat="40.0713749" lon="-105.229789">
  <ele>1583.0</ele>
  <time>2026-08-28T17:51:39Z</time>
  <course>0.0</course>
  <speed>0.0</speed>
  <fix>3d</fix>
</trkpt>
<trkpt lat="40.0713749" lon="-105.229789">
  <ele>1583.0</ele>
  <time>2026-08-28T17:51:39Z</time>
  <course>247.61</course>
  <speed>0.0316227766016838</speed>
  <fix>3d</fix>
</trkpt>
<trkpt lat="40.0713749" lon="-105.229789">
  <ele>1583.0</ele>
  <time>2026-08-28T17:51:39Z</time>
  <course>0.0</course>
  <speed>0.0</speed>
  <fix>3d</fix>
</trkpt>
<trkpt lat="40.0713749" lon="-105.229789">
  <ele>1583.0</ele>
  <time>2026-08-28T17:51:39Z</time>
  <course>247.61</course>
  <speed>0.0316227766016838</speed>
  <fix>3d</fix>
</trkpt>
<trkpt lat="40.0713749" lon="-105.229789">
  <ele>1583.0</ele>
  <time>2026-08-28T17:51:39Z</time>
  <course>0.0</course>
  <speed>0.0</speed>
  <fix>3d</fix>
</trkpt>
<trkpt lat="40.0713749" lon="-105.229789">
  <ele>1583.0</ele>
  <time>2026-08-28T17:51:39Z</time>
  <course>247.61</course>
  <speed>0.0316227766016838</speed>
  <fix>3d</fix>
</trkpt>
<trkpt lat="40.0713749" lon="-105.229789">
  <ele>1583.0</ele>
  <time>2026-08-28T17:51:39Z</time>
  <course>0.0</course>
  <speed>0.0</speed>
  <fix>3d</fix>
</trkpt>
<trkpt lat="40.0713749" lon="-105.229789">
  <ele>1583.0</ele>
  <time>2026-08-28T17:51:39Z</time>
  <course>247.61</course>
  <speed>0.0316227766016838</speed>
  <fix>3d</fix>
</trkpt>
<trkpt lat="40.0713749" lon="-105.229789">
  <ele>1583.0</ele>
  <time>2026-08-28T17:51:39Z</time>
  <course>0.0</course>
  <speed>0.0</speed>
  <fix>3d</fix>
</trkpt>
<trkpt lat="40.0713749" lon="-105.229789">
  <ele>1583.0</ele>
  <time>2026-08-28T17:51:39Z</time>
  <course>247.6</course>
  <speed>0.0316227766016838</speed>
  <fix>3d</fix>
</trkpt>
<trkpt lat="40.0713749" lon="-105.229789">
  <ele>1583.0</ele>
  <time>2026-08-28T17:51:39Z</time>
  <course>0.0</course>
  <speed>0.0</speed>
  <fix>3d</fix>
</trkpt>
<trkpt lat="40.0713749" lon="-105.229789">
  <ele>1583.0</ele>
  <time>2026-08-28T17:51:39Z</time>
  <course>247.6</course>
  <speed>0.0316227766016838</speed>
  <fix>3d</fix>
</trkpt>
<trkpt lat="40.0713749" lon="-105.229789">
  <ele>1583.0</ele>
  <time>2026-08-28T17:51:39Z</time>
  <course>0.0</course>
  <speed>0.0</speed>
  <fix>3d</fix>
</trkpt>
<trkpt lat="40.0713749" lon="-105.229789">
  <ele>1583.0</ele>
  <time>2026-08-28T17:51:39Z</time>
  <course>247.6</course>
  <speed>0.0316227766016838</speed>
  <fix>3d</fix>
</trkpt>
<trkpt lat="40.0713749" lon="-105.229789">
  <ele>1583.0</ele>
  <time>2026-08-28T17:51:39Z</time>
  <course>0.0</course>
  <speed>0.0</speed>
  <fix>3d</fix>
</trkpt>
<trkpt lat="40.0713749" lon="-105.229789">
  <ele>1583.0</ele>
  <time>2026-08-28T17:51:39Z</time>
  <course>247.6</course>
  <speed>0.0316227766016838</speed>
  <fix>3d</fix>
</trkpt>
<trkpt lat="40.0713749" lon="-105.229789">
  <ele>1583.0</ele>
  <time>2026-08-28T17:51:39Z</time>
  <course>0.0</course>
  <speed>0.0</speed>
  <fix>3d</fix>
</trkpt>
<trkpt lat="40.0713749" lon="-105.229789">
  <ele>1583.0</ele>
  <time>2026-08-28T17:51:39Z</time>
  <course>247.59</course>
  <speed>0.0316227766016838</speed>
  <fix>3d</fix>
</trkpt>
<trkpt lat="40.0713749" lon="-105.229789">
  <ele>1583.0</ele>
  <time>2026-08-28T17:51:39Z</time>
  <course>0.0</course>
  <speed>0.0</speed>
  <fix>3d</fix>
</trkpt>
<trkpt lat="40.0713749" lon="-105.229789">
  <ele>1582.92</ele>
  <time>2026-08-28T17:51:39Z</time>
  <course>247.59</course>
  <speed>0.0</speed>
  <fix>3d</fix>
</trkpt>
<trkpt lat="40.0713749" lon="-105.229789">
  <ele>1583.0</ele>
  <time>2026-08-28T17:51:39Z</time>
  <course>0.0</course>
  <speed>0.0</speed>
  <fix>3d</fix>
</trkpt>
<trkpt lat="40.0713749" lon="-105.229789">
  <ele>1582.92</ele>
  <time>2026-08-28T17:51:39Z</time>
  <course>247.59</course>
  <speed>0.0</speed>
  <fix>3d</fix>
</trkpt>
<trkpt lat="40.0713749" lon="-105.229789">
  <ele>1583.0</ele>
  <time>2026-08-28T17:51:39Z</time>
  <course>0.0</course>
  <speed>0.0</speed>
  <fix>3d</fix>
</trkpt>
<trkpt lat="40.0713749" lon="-105.229789">
  <ele>1582.91</ele>
  <time>2026-08-28T17:51:39Z</time>
  <course>247.58</course>
  <speed>0.0</speed>
  <fix>3d</fix>
</trkpt>
<trkpt lat="40.0713749" lon="-105.229789">
  <ele>1583.0</ele>
  <time>2026-08-28T17:51:39Z</time>
  <course>0.0</course>
  <speed>0.0</speed>
  <fix>3d</fix>
</trkpt>
<trkpt lat="40.0713749" lon="-105.229789">
  <ele>1582.91</ele>
  <time>2026-08-28T17:51:39Z</time>
  <course>247.58</course>
  <speed>0.0</speed>
  <fix>3d</fix>
</trkpt>
<trkpt lat="40.0713749" lon="-105.229789">
  <ele>1583.0</ele>
  <time>2026-08-28T17:51:39Z</time>
  <course>0.0</course>
  <speed>0.0</speed>
  <fix>3d</fix>
</trkpt>
<trkpt lat="40.0713749" lon="-105.229789">
  <ele>1582.9</ele>
  <time>2026-08-28T17:51:39Z</time>
  <course>247.58</course>
  <speed>0.0</speed>
  <fix>3d</fix>
</trkpt>
<trkpt lat="40.0713749" lon="-105.229789">
  <ele>1583.0</ele>
  <time>2026-08-28T17:51:39Z</time>
  <course>0.0</course>
  <speed>0.0</speed>
  <fix>3d</fix>
</trkpt>
<trkpt lat="40.0713749" lon="-105.229789">
  <ele>1582.9</ele>
  <time>2026-08-28T17:51:39Z</time>
  <course>247.58</course>
  <speed>0.0</speed>
  <fix>3d</fix>
</trkpt>
<trkpt lat="40.0713749" lon="-105.229789">
  <ele>1583.0</ele>
  <time>2026-08-28T17:51:39Z</time>
  <course>0.0</course>
  <speed>0.0</speed>
  <fix>3d</fix>
</trkpt>
<trkpt lat="40.0713749" lon="-105.229789">
  <ele>1582.9</ele>
  <time>2026-08-28T17:51:39Z</time>
  <course>247.57</course>
  <speed>0.0</speed>
  <fix>3d</fix>
</trkpt>
<trkpt lat="40.0713749" lon="-105.229789">
  <ele>1583.0</ele>
  <time>2026-08-28T17:51:39Z</time>
  <course>0.0</course>
  <speed>0.0</speed>
  <fix>3d</fix>
</trkpt>
<trkpt lat="40.0713749" lon="-105.229789">
  <ele>1582.9</ele>
  <time>2026-08-28T17:51:39Z</time>
  <course>247.57</course>
  <speed>0.0</speed>
  <fix>3d</fix>
</trkpt>
<trkpt lat="40.0713749" lon="-105.229789">
  <ele>1583.0</ele>
  <time>2026-08-28T17:51:39Z</time>
  <course>0.0</course>
  <speed>0.0</speed>
  <fix>3d</fix>
</trkpt>
<trkpt lat="40.0713749" lon="-105.229789">
  <ele>1582.9</ele>
  <time>2026-08-28T17:51:39Z</time>
  <course>247.57</course>
  <speed>0.0</speed>
  <fix>3d</fix>
</trkpt>
<trkpt lat="40.0713749" lon="-105.229789">
  <ele>1583.0</ele>
  <time>2026-08-28T17:51:39Z</time>
  <course>0.0</course>
  <speed>0.0</speed>
  <fix>3d</fix>
</trkpt>
<trkpt lat="40.0713749" lon="-105.229789">
  <ele>1582.9</ele>
  <time>2026-08-28T17:51:39Z</time>
  <course>247.57</course>
  <speed>0.01</speed>
  <fix>3d</fix>
</trkpt>
<trkpt lat="40.0713749" lon="-105.229789">
  <ele>1583.0</ele>
  <time>2026-08-28T17:51:39Z</time>
  <course>0.0</course>
  <speed>0.0</speed>
  <fix>3d</fix>
</trkpt>
<trkpt lat="40.0713749" lon="-105.229789">
  <ele>1582.91</ele>
  <time>2026-08-28T17:51:39Z</time>
  <course>247.56</course>
  <speed>0.01</speed>
  <fix>3d</fix>
</trkpt>
<trkpt lat="40.0713749" lon="-105.229789">
  <ele>1583.0</ele>
  <time>2026-08-28T17:51:39Z</time>
  <course>0.0</course>
  <speed>0.0</speed>
  <fix>3d</fix>
</trkpt>
<trkpt lat="40.0713749" lon="-105.229789">
  <ele>1582.91</ele>
  <time>2026-08-28T17:51:39Z</time>
  <course>247.56</course>
  <speed>0.01</speed>
  <fix>3d</fix>
</trkpt>
<trkpt lat="40.0713749" lon="-105.229789">
  <ele>1583.0</ele>
  <time>2026-08-28T17:51:39Z</time>
  <course>0.0</course>
  <speed>0.0</speed>
  <fix>3d</fix>
</trkpt>
<trkpt lat="40.0713749" lon="-105.229789">
  <ele>1582.92</ele>
  <time>2026-08-28T17:51:39Z</time>
  <course>247.55</course>
  <speed>0.01</speed>
  <fix>3d</fix>
</trkpt>
<trkpt lat="40.0713749" lon="-105.229789">
  <ele>1583.0</ele>
  <time>2026-08-28T17:51:39Z</time>
  <course>0.0</course>
  <speed>0.0</speed>
  <fix>3d</fix>
</trkpt>
<trkpt lat="40.0713749" lon="-105.229789">
  <ele>1582.93</ele>
  <time>2026-08-28T17:51:39Z</time>
  <course>247.54</course>
  <speed>0.02</speed>
  <fix>3d</fix>
</trkpt>
<trkpt lat="40.0713749" lon="-105.229789">
  <ele>1583.0</ele>
  <time>2026-08-28T17:51:39Z</time>
  <course>0.0</course>
  <speed>0.0</speed>
  <fix>3d</fix>
</trkpt>
<trkpt lat="40.0713749" lon="-105.229789">
  <ele>1582.93</ele>
  <time>2026-08-28T17:51:39Z</time>
  <course>247.54</course>
  <speed>0.02</speed>
  <fix>3d</fix>
</trkpt>
<trkpt lat="40.0713749" lon="-105.229789">
  <ele>1583.0</ele>
  <time>2026-08-28T17:51:39Z</time>
  <course>0.0</course>
  <speed>0.0</speed>
  <fix>3d</fix>
</trkpt>
<trkpt lat="40.0713749" lon="-105.229789">
  <ele>1582.93</ele>
  <time>2026-08-28T17:51:39Z</time>
  <course>247.54</course>
  <speed>0.02</speed>
  <fix>3d</fix>
</trkpt>
<trkpt lat="40.0713749" lon="-105.229789">
  <ele>1583.0</ele>
  <time>2026-08-28T17:51:39Z</time>
  <course>0.0</course>
  <speed>0.0</speed>
  <fix>3d</fix>
</trkpt>
<trkpt lat="40.0713749" lon="-105.229789">
  <ele>1582.93</ele>
  <time>2026-08-28T17:51:39Z</time>
  <course>247.54</course>
  <speed>0.022360679774997897</speed>
  <fix>3d</fix>
</trkpt>
<trkpt lat="40.0713749" lon="-105.229789">
  <ele>1583.0</ele>
  <time>2026-08-28T17:51:39Z</time>
  <course>0.0</course>
  <speed>0.0</speed>
  <fix>3d</fix>
</trkpt>
<trkpt lat="40.0713749" lon="-105.229789">
  <ele>1582.94</ele>
  <time>2026-08-28T17:51:39Z</time>
  <course>247.53</course>
  <speed>0.022360679774997897</speed>
  <fix>3d</fix>
</trkpt>
<trkpt lat="40.0713749" lon="-105.229789">
  <ele>1583.0</ele>
  <time>2026-08-28T17:51:39Z</time>
  <course>0.0</course>
  <speed>0.0</speed>
  <fix>3d</fix>
</trkpt>
<trkpt lat="40.0713749" lon="-105.229789">
  <ele>1582.94</ele>
  <time>2026-08-28T17:51:39Z</time>
  <course>247.53</course>
  <speed>0.022360679774997897</speed>
  <fix>3d</fix>
</trkpt>
<trkpt lat="40.0713749" lon="-105.229789">
  <ele>1583.0</ele>
  <time>2026-08-28T17:51:39Z</time>
  <course>0.0</course>
  <speed>0.0</speed>
  <fix>3d</fix>
</trkpt>
<trkpt lat="40.071375" lon="-105.229789">
  <ele>1582.94</ele>
  <time>2026-08-28T17:51:39Z</time>
  <course>247.53</course>
  <speed>0.022360679774997897</speed>
  <fix>3d</fix>
</trkpt>
<trkpt lat="40.0713749" lon="-105.229789">
  <ele>1583.0</ele>
  <time>2026-08-28T17:51:39Z</time>
  <course>0.0</course>
  <speed>0.0</speed>
  <fix>3d</fix>
</trkpt>
<trkpt lat="40.071375" lon="-105.229789">
  <ele>1582.95</ele>
  <time>2026-08-28T17:51:39Z</time>
  <course>247.53</course>
  <speed>0.022360679774997897</speed>
  <fix>3d</fix>
</trkpt>
<trkpt lat="40.0713749" lon="-105.229789">
  <ele>1583.0</ele>
  <time>2026-08-28T17:51:39Z</time>
  <course>0.0</course>
  <speed>0.0</speed>
  <fix>3d</fix>
</trkpt>
<trkpt lat="40.071375" lon="-105.229789">
  <ele>1582.95</ele>
  <time>2026-08-28T17:51:39Z</time>
  <course>247.53</course>
  <speed>0.022360679774997897</speed>
  <fix>3d</fix>
</trkpt>
<trkpt lat="40.0713749" lon="-105.229789">
  <ele>1583.0</ele>
  <time>2026-08-28T17:51:39Z</time>
  <course>0.0</course>
  <speed>0.0</speed>
  <fix>3d</fix>
</trkpt>
<trkpt lat="40.071375" lon="-105.229789">
  <ele>1582.95</ele>
  <time>2026-08-28T17:51:39Z</time>
  <course>247.52</course>
  <speed>0.022360679774997897</speed>
  <fix>3d</fix>
</trkpt>
<trkpt lat="40.0713749" lon="-105.229789">
  <ele>1583.0</ele>
  <time>2026-08-28T17:51:39Z</time>
  <course>0.0</course>
  <speed>0.0</speed>
  <fix>3d</fix>
</trkpt>
<trkpt lat="40.071375" lon="-105.229789">
  <ele>1582.95</ele>
  <time>2026-08-28T17:51:39Z</time>
  <course>247.52</course>
  <speed>0.022360679774997897</speed>
  <fix>3d</fix>
</trkpt>
<trkpt lat="40.0713749" lon="-105.229789">
  <ele>1583.0</ele>
  <time>2026-08-28T17:51:39Z</time>
  <course>0.0</course>
  <speed>0.0</speed>
  <fix>3d</fix>
</trkpt>
<trkpt lat="40.071375" lon="-105.229789">
  <ele>1582.95</ele>
  <time>2026-08-28T17:51:39Z</time>
  <course>247.52</course>
  <speed>0.022360679774997897</speed>
  <fix>3d</fix>
</trkpt>
<trkpt lat="40.0713749" lon="-105.229789">
  <ele>1583.0</ele>
  <time>2026-08-28T17:51:39Z</time>
  <course>0.0</course>
  <speed>0.0</speed>
  <fix>3d</fix>
</trkpt>
<trkpt lat="40.071375" lon="-105.229789">
  <ele>1582.95</ele>
  <time>2026-08-28T17:51:39Z</time>
  <course>247.52</course>
  <speed>0.022360679774997897</speed>
  <fix>3d</fix>
</trkpt>
<trkpt lat="40.0713749" lon="-105.229789">
  <ele>1583.0</ele>
  <time>2026-08-28T17:51:39Z</time>
  <course>0.0</course>
  <speed>0.0</speed>
  <fix>3d</fix>
</trkpt>
<trkpt lat="40.071375" lon="-105.229789">
  <ele>1582.95</ele>
  <time>2026-08-28T17:51:39Z</time>
  <course>247.51</course>
  <speed>0.0316227766016838</speed>
  <fix>3d</fix>
</trkpt>
<trkpt lat="40.0713749" lon="-105.229789">
  <ele>1583.0</ele>
  <time>2026-08-28T17:51:39Z</time>
  <course>0.0</course>
  <speed>0.0</speed>
  <fix>3d</fix>
</trkpt>
<trkpt lat="40.071375" lon="-105.229789">
  <ele>1582.95</ele>
  <time>2026-08-28T17:51:39Z</time>
  <course>247.51</course>
  <speed>0.0316227766016838</speed>
  <fix>3d</fix>
</trkpt>
<trkpt lat="40.0713749" lon="-105.229789">
  <ele>1583.0</ele>
  <time>2026-08-28T17:51:39Z</time>
  <course>0.0</course>
  <speed>0.0</speed>
  <fix>3d</fix>
</trkpt>
<trkpt lat="40.071375" lon="-105.229789">
  <ele>1582.95</ele>
  <time>2026-08-28T17:51:39Z</time>
  <course>247.51</course>
  <speed>0.0316227766016838</speed>
  <fix>3d</fix>
</trkpt>
<trkpt lat="40.0713749" lon="-105.229789">
  <ele>1583.0</ele>
  <time>2026-08-28T17:51:39Z</time>
  <course>0.0</course>
  <speed>0.0</speed>
  <fix>3d</fix>
</trkpt>
<trkpt lat="40.071375" lon="-105.2297889">
  <ele>1582.95</ele>
  <time>2026-08-28T17:51:39Z</time>
  <course>247.51</course>
  <speed>0.0316227766016838</speed>
  <fix>3d</fix>
</trkpt>
<trkpt lat="40.0713749" lon="-105.229789">
  <ele>1583.0</ele>
  <time>2026-08-28T17:51:39Z</time>
  <course>0.0</course>
  <speed>0.0</speed>
  <fix>3d</fix>
</trkpt>
<trkpt lat="40.071375" lon="-105.2297889">
  <ele>1582.95</ele>
  <time>2026-08-28T17:51:39Z</time>
  <course>247.51</course>
  <speed>0.0316227766016838</speed>
  <fix>3d</fix>
</trkpt>
<trkpt lat="40.0713749" lon="-105.229789">
  <ele>1583.0</ele>
  <time>2026-08-28T17:51:39Z</time>
  <course>0.0</course>
  <speed>0.0</speed>
  <fix>3d</fix>
</trkpt>
<trkpt lat="40.071375" lon="-105.2297889">
  <ele>1582.95</ele>
  <time>2026-08-28T17:51:39Z</time>
  <course>247.5</course>
  <speed>0.0316227766016838</speed>
  <fix>3d</fix>
</trkpt>
<trkpt lat="40.0713749" lon="-105.229789">
  <ele>1583.0</ele>
  <time>2026-08-28T17:51:39Z</time>
  <course>0.0</course>
  <speed>0.0</speed>
  <fix>3d</fix>
</trkpt>
<trkpt lat="40.071375" lon="-105.2297889">
  <ele>1582.95</ele>
  <time>2026-08-28T17:51:39Z</time>
  <course>247.5</course>
  <speed>0.0316227766016838</speed>
  <fix>3d</fix>
</trkpt>
<trkpt lat="40.0713749" lon="-105.229789">
  <ele>1583.0</ele>
  <time>2026-08-28T17:51:39Z</time>
  <course>0.0</course>
  <speed>0.0</speed>
  <fix>3d</fix>
</trkpt>
<trkpt lat="40.071375" lon="-105.2297889">
  <ele>1582.95</ele>
  <time>2026-08-28T17:51:39Z</time>
  <course>247.5</course>
  <speed>0.0316227766016838</speed>
  <fix>3d</fix>
</trkpt>
<trkpt lat="40.0713749" lon="-105.229789">
  <ele>1583.0</ele>
  <time>2026-08-28T17:51:39Z</time>
  <course>0.0</course>
  <speed>0.0</speed>
  <fix>3d</fix>
</trkpt>
<trkpt lat="40.0713751" lon="-105.2297889">
  <ele>1582.95</ele>
  <time>2026-08-28T17:51:39Z</time>
  <course>247.5</course>
  <speed>0.0316227766016838</speed>
  <fix>3d</fix>
</trkpt>
<trkpt lat="40.0713749" lon="-105.229789">
  <ele>1583.0</ele>
  <time>2026-08-28T17:51:39Z</time>
  <course>0.0</course>
  <speed>0.0</speed>
  <fix>3d</fix>
</trkpt>
<trkpt lat="40.0713751" lon="-105.2297889">
  <ele>1582.96</ele>
  <time>2026-08-28T17:51:39Z</time>
  <course>247.49</course>
  <speed>0.0316227766016838</speed>
  <fix>3d</fix>
</trkpt>
<trkpt lat="40.0713749" lon="-105.229789">
  <ele>1583.0</ele>
  <time>2026-08-28T17:51:39Z</time>
  <course>0.0</course>
  <speed>0.0</speed>
  <fix>3d</fix>
</trkpt>
<trkpt lat="40.0713751" lon="-105.2297889">
  <ele>1582.96</ele>
  <time>2026-08-28T17:51:39Z</time>
  <course>247.49</course>
  <speed>0.0316227766016838</speed>
  <fix>3d</fix>
</trkpt>
<trkpt lat="40.0713749" lon="-105.229789">
  <ele>1583.0</ele>
  <time>2026-08-28T17:51:39Z</time>
  <course>0.0</course>
  <speed>0.0</speed>
  <fix>3d</fix>
</trkpt>
<trkpt lat="40.0713751" lon="-105.2297889">
  <ele>1582.97</ele>
  <time>2026-08-28T17:51:39Z</time>
  <course>247.49</course>
  <speed>0.0316227766016838</speed>
  <fix>3d</fix>
</trkpt>
<trkpt lat="40.0713749" lon="-105.229789">
  <ele>1583.0</ele>
  <time>2026-08-28T17:51:39Z</time>
  <course>0.0</course>
  <speed>0.0</speed>
  <fix>3d</fix>
</trkpt>
<trkpt lat="40.0713751" lon="-105.2297889">
  <ele>1582.98</ele>
  <time>2026-08-28T17:51:39Z</time>
  <course>247.49</course>
  <speed>0.0316227766016838</speed>
  <fix>3d</fix>
</trkpt>
<trkpt lat="40.0713749" lon="-105.229789">
  <ele>1583.0</ele>
  <time>2026-08-28T17:51:39Z</time>
  <course>0.0</course>
  <speed>0.0</speed>
  <fix>3d</fix>
</trkpt>
<trkpt lat="40.0713751" lon="-105.2297889">
  <ele>1582.98</ele>
  <time>2026-08-28T17:51:39Z</time>
  <course>247.49</course>
  <speed>0.0316227766016838</speed>
  <fix>3d</fix>
</trkpt>
<trkpt lat="40.0713749" lon="-105.229789">
  <ele>1583.0</ele>
  <time>2026-08-28T17:51:39Z</time>
  <course>0.0</course>
  <speed>0.0</speed>
  <fix>3d</fix>
</trkpt>
<trkpt lat="40.0713751" lon="-105.2297889">
  <ele>1582.99</ele>
  <time>2026-08-28T17:51:39Z</time>
  <course>247.48</course>
  <speed>0.0316227766016838</speed>
  <fix>3d</fix>
</trkpt>
<trkpt lat="40.0713749" lon="-105.229789">
  <ele>1583.0</ele>
  <time>2026-08-28T17:51:39Z</time>
  <course>0.0</course>
  <speed>0.0</speed>
  <fix>3d</fix>
</trkpt>
<trkpt lat="40.0713751" lon="-105.2297889">
  <ele>1583.0</ele>
  <time>2026-08-28T17:51:39Z</time>
  <course>247.48</course>
  <speed>0.022360679774997897</speed>
  <fix>3d</fix>
</trkpt>
<trkpt lat="40.0713749" lon="-105.229789">
  <ele>1583.0</ele>
  <time>2026-08-28T17:51:39Z</time>
  <course>0.0</course>
  <speed>0.0</speed>
  <fix>3d</fix>
</trkpt>
<trkpt lat="40.0713751" lon="-105.2297889">
  <ele>1583.01</ele>
  <time>2026-08-28T17:51:39Z</time>
  <course>247.48</course>
  <speed>0.022360679774997897</speed>
  <fix>3d</fix>
</trkpt>
<trkpt lat="40.0713749" lon="-105.229789">
  <ele>1583.0</ele>
  <time>2026-08-28T17:51:39Z</time>
  <course>0.0</course>
  <speed>0.0</speed>
  <fix>3d</fix>
</trkpt>
<trkpt lat="40.0713751" lon="-105.2297889">
  <ele>1583.01</ele>
  <time>2026-08-28T17:51:39Z</time>
  <course>247.48</course>
  <speed>0.022360679774997897</speed>
  <fix>3d</fix>
</trkpt>
<trkpt lat="40.0713749" lon="-105.229789">
  <ele>1583.0</ele>
  <time>2026-08-28T17:51:39Z</time>
  <course>0.0</course>
  <speed>0.0</speed>
  <fix>3d</fix>
</trkpt>
<trkpt lat="40.0713751" lon="-105.2297889">
  <ele>1583.01</ele>
  <time>2026-08-28T17:51:39Z</time>
  <course>247.47</course>
  <speed>0.022360679774997897</speed>
  <fix>3d</fix>
</trkpt>
<trkpt lat="40.0713749" lon="-105.229789">
  <ele>1583.0</ele>
  <time>2026-08-28T17:51:39Z</time>
  <course>0.0</course>
  <speed>0.0</speed>
  <fix>3d</fix>
</trkpt>
<trkpt lat="40.0713751" lon="-105.2297889">
  <ele>1583.01</ele>
  <time>2026-08-28T17:51:39Z</time>
  <course>247.47</course>
  <speed>0.022360679774997897</speed>
  <fix>3d</fix>
</trkpt>
<trkpt lat="40.0713749" lon="-105.229789">
  <ele>1583.0</ele>
  <time>2026-08-28T17:51:39Z</time>
  <course>0.0</course>
  <speed>0.0</speed>
  <fix>3d</fix>
</trkpt>
<trkpt lat="40.0713751" lon="-105.2297889">
  <ele>1583.01</ele>
  <time>2026-08-28T17:51:39Z</time>
  <course>247.47</course>
  <speed>0.022360679774997897</speed>
  <fix>3d</fix>
</trkpt>
<trkpt lat="40.0713749" lon="-105.229789">
  <ele>1583.0</ele>
  <time>2026-08-28T17:51:39Z</time>
  <course>0.0</course>
  <speed>0.0</speed>
  <fix>3d</fix>
</trkpt>
<trkpt lat="40.071375" lon="-105.2297889">
  <ele>1582.99</ele>
  <time>2026-08-28T17:51:39Z</time>
  <course>247.46</course>
  <speed>0.022360679774997897</speed>
  <fix>3d</fix>
</trkpt>
<trkpt lat="40.0713749" lon="-105.229789">
  <ele>1583.0</ele>
  <time>2026-08-28T17:51:39Z</time>
  <course>0.0</course>
  <speed>0.0</speed>
  <fix>3d</fix>
</trkpt>
<trkpt lat="40.071375" lon="-105.2297889">
  <ele>1582.99</ele>
  <time>2026-08-28T17:51:39Z</time>
  <course>247.45</course>
  <speed>0.022360679774997897</speed>
  <fix>3d</fix>
</trkpt>
<trkpt lat="40.0713749" lon="-105.229789">
  <ele>1583.0</ele>
  <time>2026-08-28T17:51:39Z</time>
  <course>0.0</course>
  <speed>0.0</speed>
  <fix>3d</fix>
</trkpt>
<trkpt lat="40.071375" lon="-105.2297889">
  <ele>1582.99</ele>
  <time>2026-08-28T17:51:39Z</time>
  <course>247.45</course>
  <speed>0.022360679774997897</speed>
  <fix>3d</fix>
</trkpt>
<trkpt lat="40.0713749" lon="-105.229789">
  <ele>1583.0</ele>
  <time>2026-08-28T17:51:39Z</time>
  <course>0.0</course>
  <speed>0.0</speed>
  <fix>3d</fix>
</trkpt>
<trkpt lat="40.071375" lon="-105.2297889">
  <ele>1582.99</ele>
  <time>2026-08-28T17:51:39Z</time>
  <course>247.45</course>
  <speed>0.022360679774997897</speed>
  <fix>3d</fix>
</trkpt>
<trkpt lat="40.0713749" lon="-105.229789">
  <ele>1583.0</ele>
  <time>2026-08-28T17:51:39Z</time>
  <course>0.0</course>
  <speed>0.0</speed>
  <fix>3d</fix>
</trkpt>
<trkpt lat="40.071375" lon="-105.2297889">
  <ele>1582.99</ele>
  <time>2026-08-28T17:51:39Z</time>
  <course>247.45</course>
  <speed>0.022360679774997897</speed>
  <fix>3d</fix>
</trkpt>
<trkpt lat="40.0713749" lon="-105.229789">
  <ele>1583.0</ele>
  <time>2026-08-28T17:51:39Z</time>
  <course>0.0</course>
  <speed>0.0</speed>
  <fix>3d</fix>
</trkpt>
<trkpt lat="40.071375" lon="-105.2297889">
  <ele>1583.0</ele>
  <time>2026-08-28T17:51:39Z</time>
  <course>247.45</course>
  <speed>0.022360679774997897</speed>
  <fix>3d</fix>
</trkpt>
<trkpt lat="40.0713749" lon="-105.229789">
  <ele>1583.0</ele>
  <time>2026-08-28T17:51:39Z</time>
  <course>0.0</course>
  <speed>0.0</speed>
  <fix>3d</fix>
</trkpt>
<trkpt lat="40.071375" lon="-105.2297889">
  <ele>1583.0</ele>
  <time>2026-08-28T17:51:39Z</time>
  <course>247.44</course>
  <speed>0.022360679774997897</speed>
  <fix>3d</fix>
</trkpt>
<trkpt lat="40.0713749" lon="-105.229789">
  <ele>1583.0</ele>
  <time>2026-08-28T17:51:39Z</time>
  <course>0.0</course>
  <speed>0.0</speed>
  <fix>3d</fix>
</trkpt>
<trkpt lat="40.071375" lon="-105.229789">
  <ele>1583.0</ele>
  <time>2026-08-28T17:51:39Z</time>
  <course>247.44</course>
  <speed>0.02</speed>
  <fix>3d</fix>
</trkpt>
<trkpt lat="40.0713749" lon="-105.229789">
  <ele>1583.0</ele>
  <time>2026-08-28T17:51:39Z</time>
  <course>0.0</course>
  <speed>0.0</speed>
  <fix>3d</fix>
</trkpt>
<trkpt lat="40.071375" lon="-105.229789">
  <ele>1583.0</ele>
  <time>2026-08-28T17:51:39Z</time>
  <course>247.44</course>
  <speed>0.02</speed>
  <fix>3d</fix>
</trkpt>
<trkpt lat="40.0713749" lon="-105.229789">
  <ele>1583.0</ele>
  <time>2026-08-28T17:51:39Z</time>
  <course>0.0</course>
  <speed>0.0</speed>
  <fix>3d</fix>
</trkpt>
<trkpt lat="40.071375" lon="-105.229789">
  <ele>1583.0</ele>
  <time>2026-08-28T17:51:39Z</time>
  <course>247.44</course>
  <speed>0.02</speed>
  <fix>3d</fix>
</trkpt>
<trkpt lat="40.0713749" lon="-105.229789">
  <ele>1583.0</ele>
  <time>2026-08-28T17:51:39Z</time>
  <course>0.0</course>
  <speed>0.0</speed>
  <fix>3d</fix>
</trkpt>
<trkpt lat="40.071375" lon="-105.229789">
  <ele>1583.01</ele>
  <time>2026-08-28T17:51:39Z</time>
  <course>247.43</course>
  <speed>0.02</speed>
  <fix>3d</fix>
</trkpt>
<trkpt lat="40.0713749" lon="-105.229789">
  <ele>1583.0</ele>
  <time>2026-08-28T17:51:39Z</time>
  <course>0.0</course>
  <speed>0.0</speed>
  <fix>3d</fix>
</trkpt>
<trkpt lat="40.071375" lon="-105.229789">
  <ele>1583.01</ele>
  <time>2026-08-28T17:51:39Z</time>
  <course>247.43</course>
  <speed>0.02</speed>
  <fix>3d</fix>
</trkpt>
<trkpt lat="40.0713749" lon="-105.229789">
  <ele>1583.0</ele>
  <time>2026-08-28T17:51:39Z</time>
  <course>0.0</course>
  <speed>0.0</speed>
  <fix>3d</fix>
</trkpt>
<trkpt lat="40.071375" lon="-105.229789">
  <ele>1583.01</ele>
  <time>2026-08-28T17:51:39Z</time>
  <course>247.43</course>
  <speed>0.02</speed>
  <fix>3d</fix>
</trkpt>
<trkpt lat="40.0713749" lon="-105.229789">
  <ele>1583.0</ele>
  <time>2026-08-28T17:51:39Z</time>
  <course>0.0</course>
  <speed>0.0</speed>
  <fix>3d</fix>
</trkpt>
<trkpt lat="40.071375" lon="-105.229789">
  <ele>1583.01</ele>
  <time>2026-08-28T17:51:39Z</time>
  <course>247.43</course>
  <speed>0.02</speed>
  <fix>3d</fix>
</trkpt>
<trkpt lat="40.0713749" lon="-105.229789">
  <ele>1583.0</ele>
  <time>2026-08-28T17:51:39Z</time>
  <course>0.0</course>
  <speed>0.0</speed>
  <fix>3d</fix>
</trkpt>
<trkpt lat="40.071375" lon="-105.229789">
  <ele>1583.01</ele>
  <time>2026-08-28T17:51:39Z</time>
  <course>247.43</course>
  <speed>0.02</speed>
  <fix>3d</fix>
</trkpt>
<trkpt lat="40.0713749" lon="-105.229789">
  <ele>1583.0</ele>
  <time>2026-08-28T17:51:39Z</time>
  <course>0.0</course>
  <speed>0.0</speed>
  <fix>3d</fix>
</trkpt>
<trkpt lat="40.071375" lon="-105.229789">
  <ele>1583.01</ele>
  <time>2026-08-28T17:51:39Z</time>
  <course>247.43</course>
  <speed>0.02</speed>
  <fix>3d</fix>
</trkpt>
<trkpt lat="40.071375" lon="-105.229789">
  <ele>1583.01</ele>
  <time>2026-08-28T17:51:39Z</time>
  <course>247.42</course>
  <speed>0.02</speed>
  <fix>3d</fix>
</trkpt>
<trkpt lat="40.0713749" lon="-105.229789">
  <ele>1583.0</ele>
  <time>2026-08-28T17:51:39Z</time>
  <course>0.0</course>
  <speed>0.0</speed>
  <fix>3d</fix>
</trkpt>
<trkpt lat="40.071375" lon="-105.229789">
  <ele>1583.01</ele>
  <time>2026-08-28T17:51:39Z</time>
  <course>247.42</course>
  <speed>0.02</speed>
  <fix>3d</fix>
</trkpt>
<trkpt lat="40.0713749" lon="-105.229789">
  <ele>1583.0</ele>
  <time>2026-08-28T17:51:39Z</time>
  <course>0.0</course>
  <speed>0.0</speed>
  <fix>3d</fix>
</trkpt>
<trkpt lat="40.071375" lon="-105.229789">
  <ele>1583.02</ele>
  <time>2026-08-28T17:51:39Z</time>
  <course>247.42</course>
  <speed>0.02</speed>
  <fix>3d</fix>
</trkpt>
<trkpt lat="40.0713749" lon="-105.229789">
  <ele>1583.0</ele>
  <time>2026-08-28T17:51:39Z</time>
  <course>0.0</course>
  <speed>0.0</speed>
  <fix>3d</fix>
</trkpt>
<trkpt lat="40.071375" lon="-105.229789">
  <ele>1583.01</ele>
  <time>2026-08-28T17:51:39Z</time>
  <course>247.42</course>
  <speed>0.02</speed>
  <fix>3d</fix>
</trkpt>
<trkpt lat="40.0713749" lon="-105.229789">
  <ele>1583.0</ele>
  <time>2026-08-28T17:51:39Z</time>
  <course>0.0</course>
  <speed>0.0</speed>
  <fix>3d</fix>
</trkpt>
<trkpt lat="40.071375" lon="-105.229789">
  <ele>1583.01</ele>
  <time>2026-08-28T17:51:39Z</time>
  <course>247.42</course>
  <speed>0.02</speed>
  <fix>3d</fix>
</trkpt>
<trkpt lat="40.0713749" lon="-105.229789">
  <ele>1583.0</ele>
  <time>2026-08-28T17:51:39Z</time>
  <course>0.0</course>
  <speed>0.0</speed>
  <fix>3d</fix>
</trkpt>
<trkpt lat="40.071375" lon="-105.229789">
  <ele>1583.01</ele>
  <time>2026-08-28T17:51:39Z</time>
  <course>247.41</course>
  <speed>0.02</speed>
  <fix>3d</fix>
</trkpt>
<trkpt lat="40.0713749" lon="-105.229789">
  <ele>1583.0</ele>
  <time>2026-08-28T17:51:39Z</time>
  <course>0.0</course>
  <speed>0.0</speed>
  <fix>3d</fix>
</trkpt>
<trkpt lat="40.071375" lon="-105.229789">
  <ele>1583.01</ele>
  <time>2026-08-28T17:51:39Z</time>
  <course>247.41</course>
  <speed>0.02</speed>
  <fix>3d</fix>
</trkpt>
<trkpt lat="40.0713749" lon="-105.229789">
  <ele>1583.0</ele>
  <time>2026-08-28T17:51:39Z</time>
  <course>0.0</course>
  <speed>0.0</speed>
  <fix>3d</fix>
</trkpt>
<trkpt lat="40.071375" lon="-105.229789">
  <ele>1583.01</ele>
  <time>2026-08-28T17:51:39Z</time>
  <course>247.41</course>
  <speed>0.02</speed>
  <fix>3d</fix>
</trkpt>
<trkpt lat="40.0713749" lon="-105.229789">
  <ele>1583.0</ele>
  <time>2026-08-28T17:51:39Z</time>
  <course>0.0</course>
  <speed>0.0</speed>
  <fix>3d</fix>
</trkpt>
<trkpt lat="40.071375" lon="-105.229789">
  <ele>1583.01</ele>
  <time>2026-08-28T17:51:39Z</time>
  <course>247.41</course>
  <speed>0.02</speed>
  <fix>3d</fix>
</trkpt>
<trkpt lat="40.0713749" lon="-105.229789">
  <ele>1583.0</ele>
  <time>2026-08-28T17:51:39Z</time>
  <course>0.0</course>
  <speed>0.0</speed>
  <fix>3d</fix>
</trkpt>
<trkpt lat="40.071375" lon="-105.229789">
  <ele>1583.02</ele>
  <time>2026-08-28T17:51:39Z</time>
  <course>247.41</course>
  <speed>0.02</speed>
  <fix>3d</fix>
</trkpt>
<trkpt lat="40.0713749" lon="-105.229789">
  <ele>1583.0</ele>
  <time>2026-08-28T17:51:39Z</time>
  <course>0.0</course>
  <speed>0.0</speed>
  <fix>3d</fix>
</trkpt>
<trkpt lat="40.071375" lon="-105.229789">
  <ele>1583.02</ele>
  <time>2026-08-28T17:51:39Z</time>
  <course>247.4</course>
  <speed>0.02</speed>
  <fix>3d</fix>
</trkpt>
<trkpt lat="40.0713749" lon="-105.229789">
  <ele>1583.0</ele>
  <time>2026-08-28T17:51:39Z</time>
  <course>0.0</course>
  <speed>0.0</speed>
  <fix>3d</fix>
</trkpt>
<trkpt lat="40.071375" lon="-105.229789">
  <ele>1583.02</ele>
  <time>2026-08-28T17:51:39Z</time>
  <course>247.4</course>
  <speed>0.02</speed>
  <fix>3d</fix>
</trkpt>
<trkpt lat="40.0713749" lon="-105.229789">
  <ele>1583.0</ele>
  <time>2026-08-28T17:51:39Z</time>
  <course>0.0</course>
  <speed>0.0</speed>
  <fix>3d</fix>
</trkpt>
<trkpt lat="40.071375" lon="-105.229789">
  <ele>1583.02</ele>
  <time>2026-08-28T17:51:39Z</time>
  <course>247.4</course>
  <speed>0.02</speed>
  <fix>3d</fix>
</trkpt>
<trkpt lat="40.0713749" lon="-105.229789">
  <ele>1583.0</ele>
  <time>2026-08-28T17:51:39Z</time>
  <course>0.0</course>
  <speed>0.0</speed>
  <fix>3d</fix>
</trkpt>
<trkpt lat="40.071375" lon="-105.229789">
  <ele>1583.02</ele>
  <time>2026-08-28T17:51:39Z</time>
  <course>247.4</course>
  <speed>0.02</speed>
  <fix>3d</fix>
</trkpt>
<trkpt lat="40.0713749" lon="-105.229789">
  <ele>1583.0</ele>
  <time>2026-08-28T17:51:39Z</time>
  <course>0.0</course>
  <speed>0.0</speed>
  <fix>3d</fix>
</trkpt>
<trkpt lat="40.071375" lon="-105.229789">
  <ele>1583.02</ele>
  <time>2026-08-28T17:51:39Z</time>
  <course>247.4</course>
  <speed>0.02</speed>
  <fix>3d</fix>
</trkpt>
<trkpt lat="40.0713749" lon="-105.229789">
  <ele>1583.0</ele>
  <time>2026-08-28T17:51:39Z</time>
  <course>0.0</course>
  <speed>0.0</speed>
  <fix>3d</fix>
</trkpt>
<trkpt lat="40.071375" lon="-105.229789">
  <ele>1583.02</ele>
  <time>2026-08-28T17:51:39Z</time>
  <course>247.39</course>
  <speed>0.02</speed>
  <fix>3d</fix>
</trkpt>
<trkpt lat="40.0713749" lon="-105.229789">
  <ele>1583.0</ele>
  <time>2026-08-28T17:51:39Z</time>
  <course>0.0</course>
  <speed>0.0</speed>
  <fix>3d</fix>
</trkpt>
<trkpt lat="40.071375" lon="-105.229789">
  <ele>1583.03</ele>
  <time>2026-08-28T17:51:39Z</time>
  <course>247.39</course>
  <speed>0.01</speed>
  <fix>3d</fix>
</trkpt>
<trkpt lat="40.0713749" lon="-105.229789">
  <ele>1583.0</ele>
  <time>2026-08-28T17:51:39Z</time>
  <course>0.0</course>
  <speed>0.0</speed>
  <fix>3d</fix>
</trkpt>
<trkpt lat="40.071375" lon="-105.229789">
  <ele>1583.03</ele>
  <time>2026-08-28T17:51:39Z</time>
  <course>247.39</course>
  <speed>0.02</speed>
  <fix>3d</fix>
</trkpt>
<trkpt lat="40.0713749" lon="-105.229789">
  <ele>1583.0</ele>
  <time>2026-08-28T17:51:39Z</time>
  <course>0.0</course>
  <speed>0.0</speed>
  <fix>3d</fix>
</trkpt>
<trkpt lat="40.071375" lon="-105.229789">
  <ele>1583.03</ele>
  <time>2026-08-28T17:51:39Z</time>
  <course>247.39</course>
  <speed>0.02</speed>
  <fix>3d</fix>
</trkpt>
<trkpt lat="40.0713749" lon="-105.229789">
  <ele>1583.0</ele>
  <time>2026-08-28T17:51:39Z</time>
  <course>0.0</course>
  <speed>0.0</speed>
  <fix>3d</fix>
</trkpt>
<trkpt lat="40.071375" lon="-105.229789">
  <ele>1583.03</ele>
  <time>2026-08-28T17:51:39Z</time>
  <course>247.39</course>
  <speed>0.02</speed>
  <fix>3d</fix>
</trkpt>
<trkpt lat="40.0713749" lon="-105.229789">
  <ele>1583.0</ele>
  <time>2026-08-28T17:51:39Z</time>
  <course>0.0</course>
  <speed>0.0</speed>
  <fix>3d</fix>
</trkpt>
<trkpt lat="40.071375" lon="-105.229789">
  <ele>1583.05</ele>
  <time>2026-08-28T17:51:39Z</time>
  <course>247.38</course>
  <speed>0.02</speed>
  <fix>3d</fix>
</trkpt>
<trkpt lat="40.0713749" lon="-105.229789">
  <ele>1583.0</ele>
  <time>2026-08-28T17:51:39Z</time>
  <course>0.0</course>
  <speed>0.0</speed>
  <fix>3d</fix>
</trkpt>
<trkpt lat="40.071375" lon="-105.229789">
  <ele>1583.05</ele>
  <time>2026-08-28T17:51:39Z</time>
  <course>247.37</course>
  <speed>0.02</speed>
  <fix>3d</fix>
</trkpt>
<trkpt lat="40.0713749" lon="-105.229789">
  <ele>1583.0</ele>
  <time>2026-08-28T17:51:39Z</time>
  <course>0.0</course>
  <speed>0.0</speed>
  <fix>3d</fix>
</trkpt>
<trkpt lat="40.071375" lon="-105.229789">
  <ele>1583.06</ele>
  <time>2026-08-28T17:51:39Z</time>
  <course>247.37</course>
  <speed>0.02</speed>
  <fix>3d</fix>
</trkpt>
<trkpt lat="40.0713749" lon="-105.229789">
  <ele>1583.0</ele>
  <time>2026-08-28T17:51:39Z</time>
  <course>0.0</course>
  <speed>0.0</speed>
  <fix>3d</fix>
</trkpt>
<trkpt lat="40.071375" lon="-105.229789">
  <ele>1583.06</ele>
  <time>2026-08-28T17:51:39Z</time>
  <course>247.37</course>
  <speed>0.02</speed>
  <fix>3d</fix>
</trkpt>
<trkpt lat="40.0713749" lon="-105.229789">
  <ele>1583.0</ele>
  <time>2026-08-28T17:51:39Z</time>
  <course>0.0</course>
  <speed>0.0</speed>
  <fix>3d</fix>
</trkpt>
<trkpt lat="40.071375" lon="-105.229789">
  <ele>1583.06</ele>
  <time>2026-08-28T17:51:39Z</time>
  <course>247.37</course>
  <speed>0.02</speed>
  <fix>3d</fix>
</trkpt>
<trkpt lat="40.0713749" lon="-105.229789">
  <ele>1583.0</ele>
  <time>2026-08-28T17:51:39Z</time>
  <course>0.0</course>
  <speed>0.0</speed>
  <fix>3d</fix>
</trkpt>
<trkpt lat="40.071375" lon="-105.229789">
  <ele>1583.06</ele>
  <time>2026-08-28T17:51:39Z</time>
  <course>247.37</course>
  <speed>0.02</speed>
  <fix>3d</fix>
</trkpt>
<trkpt lat="40.0713749" lon="-105.229789">
  <ele>1583.0</ele>
  <time>2026-08-28T17:51:39Z</time>
  <course>0.0</course>
  <speed>0.0</speed>
  <fix>3d</fix>
</trkpt>
<trkpt lat="40.071375" lon="-105.229789">
  <ele>1583.06</ele>
  <time>2026-08-28T17:51:39Z</time>
  <course>247.36</course>
  <speed>0.02</speed>
  <fix>3d</fix>
</trkpt>
<trkpt lat="40.0713749" lon="-105.229789">
  <ele>1583.0</ele>
  <time>2026-08-28T17:51:39Z</time>
  <course>0.0</course>
  <speed>0.0</speed>
  <fix>3d</fix>
</trkpt>
<trkpt lat="40.071375" lon="-105.229789">
  <ele>1583.06</ele>
  <time>2026-08-28T17:51:39Z</time>
  <course>247.36</course>
  <speed>0.02</speed>
  <fix>3d</fix>
</trkpt>
<trkpt lat="40.0713749" lon="-105.229789">
  <ele>1583.0</ele>
  <time>2026-08-28T17:51:39Z</time>
  <course>0.0</course>
  <speed>0.0</speed>
  <fix>3d</fix>
</trkpt>
<trkpt lat="40.071375" lon="-105.229789">
  <ele>1583.06</ele>
  <time>2026-08-28T17:51:39Z</time>
  <course>247.36</course>
  <speed>0.02</speed>
  <fix>3d</fix>
</trkpt>
<trkpt lat="40.0713749" lon="-105.229789">
  <ele>1583.0</ele>
  <time>2026-08-28T17:51:39Z</time>
  <course>0.0</course>
  <speed>0.0</speed>
  <fix>3d</fix>
</trkpt>
<trkpt lat="40.071375" lon="-105.229789">
  <ele>1583.06</ele>
  <time>2026-08-28T17:51:39Z</time>
  <course>247.36</course>
  <speed>0.02</speed>
  <fix>3d</fix>
</trkpt>
<trkpt lat="40.0713749" lon="-105.229789">
  <ele>1583.0</ele>
  <time>2026-08-28T17:51:39Z</time>
  <course>0.0</course>
  <speed>0.0</speed>
  <fix>3d</fix>
</trkpt>
<trkpt lat="40.071375" lon="-105.229789">
  <ele>1583.06</ele>
  <time>2026-08-28T17:51:39Z</time>
  <course>247.36</course>
  <speed>0.02</speed>
  <fix>3d</fix>
</trkpt>
<trkpt lat="40.0713749" lon="-105.229789">
  <ele>1583.0</ele>
  <time>2026-08-28T17:51:39Z</time>
  <course>0.0</course>
  <speed>0.0</speed>
  <fix>3d</fix>
</trkpt>
<trkpt lat="40.071375" lon="-105.229789">
  <ele>1583.05</ele>
  <time>2026-08-28T17:51:39Z</time>
  <course>247.35</course>
  <speed>0.02</speed>
  <fix>3d</fix>
</trkpt>
<trkpt lat="40.0713749" lon="-105.229789">
  <ele>1583.0</ele>
  <time>2026-08-28T17:51:39Z</time>
  <course>0.0</course>
  <speed>0.0</speed>
  <fix>3d</fix>
</trkpt>
<trkpt lat="40.071375" lon="-105.229789">
  <ele>1583.05</ele>
  <time>2026-08-28T17:51:39Z</time>
  <course>247.35</course>
  <speed>0.02</speed>
  <fix>3d</fix>
</trkpt>
<trkpt lat="40.0713749" lon="-105.229789">
  <ele>1583.0</ele>
  <time>2026-08-28T17:51:39Z</time>
  <course>0.0</course>
  <speed>0.0</speed>
  <fix>3d</fix>
</trkpt>
<trkpt lat="40.071375" lon="-105.229789">
  <ele>1583.04</ele>
  <time>2026-08-28T17:51:39Z</time>
  <course>247.35</course>
  <speed>0.02</speed>
  <fix>3d</fix>
</trkpt>
<trkpt lat="40.0713749" lon="-105.229789">
  <ele>1583.0</ele>
  <time>2026-08-28T17:51:39Z</time>
  <course>0.0</course>
  <speed>0.0</speed>
  <fix>3d</fix>
</trkpt>
<trkpt lat="40.071375" lon="-105.229789">
  <ele>1583.04</ele>
  <time>2026-08-28T17:51:39Z</time>
  <course>247.35</course>
  <speed>0.02</speed>
  <fix>3d</fix>
</trkpt>
<trkpt lat="40.0713749" lon="-105.229789">
  <ele>1583.0</ele>
  <time>2026-08-28T17:51:39Z</time>
  <course>0.0</course>
  <speed>0.0</speed>
  <fix>3d</fix>
</trkpt>
<trkpt lat="40.071375" lon="-105.229789">
  <ele>1583.04</ele>
  <time>2026-08-28T17:51:39Z</time>
  <course>247.35</course>
  <speed>0.02</speed>
  <fix>3d</fix>
</trkpt>
<trkpt lat="40.0713749" lon="-105.229789">
  <ele>1583.0</ele>
  <time>2026-08-28T17:51:39Z</time>
  <course>0.0</course>
  <speed>0.0</speed>
  <fix>3d</fix>
</trkpt>
<trkpt lat="40.071375" lon="-105.229789">
  <ele>1583.03</ele>
  <time>2026-08-28T17:51:39Z</time>
  <course>247.35</course>
  <speed>0.02</speed>
  <fix>3d</fix>
</trkpt>
<trkpt lat="40.0713749" lon="-105.229789">
  <ele>1583.0</ele>
  <time>2026-08-28T17:51:39Z</time>
  <course>0.0</course>
  <speed>0.0</speed>
  <fix>3d</fix>
</trkpt>
<trkpt lat="40.071375" lon="-105.229789">
  <ele>1583.03</ele>
  <time>2026-08-28T17:51:39Z</time>
  <course>247.34</course>
  <speed>0.02</speed>
  <fix>3d</fix>
</trkpt>
<trkpt lat="40.0713749" lon="-105.229789">
  <ele>1583.0</ele>
  <time>2026-08-28T17:51:39Z</time>
  <course>0.0</course>
  <speed>0.0</speed>
  <fix>3d</fix>
</trkpt>
<trkpt lat="40.071375" lon="-105.229789">
  <ele>1583.02</ele>
  <time>2026-08-28T17:51:39Z</time>
  <course>247.34</course>
  <speed>0.02</speed>
  <fix>3d</fix>
</trkpt>
<trkpt lat="40.0713749" lon="-105.229789">
  <ele>1583.0</ele>
  <time>2026-08-28T17:51:39Z</time>
  <course>0.0</course>
  <speed>0.0</speed>
  <fix>3d</fix>
</trkpt>
<trkpt lat="40.071375" lon="-105.229789">
  <ele>1583.02</ele>
  <time>2026-08-28T17:51:39Z</time>
  <course>247.34</course>
  <speed>0.02</speed>
  <fix>3d</fix>
</trkpt>
<trkpt lat="40.0713749" lon="-105.229789">
  <ele>1583.0</ele>
  <time>2026-08-28T17:51:39Z</time>
  <course>0.0</course>
  <speed>0.0</speed>
  <fix>3d</fix>
</trkpt>
<trkpt lat="40.071375" lon="-105.229789">
  <ele>1583.02</ele>
  <time>2026-08-28T17:51:39Z</time>
  <course>247.34</course>
  <speed>0.02</speed>
  <fix>3d</fix>
</trkpt>
<trkpt lat="40.0713749" lon="-105.229789">
  <ele>1583.0</ele>
  <time>2026-08-28T17:51:39Z</time>
  <course>0.0</course>
  <speed>0.0</speed>
  <fix>3d</fix>
</trkpt>
<trkpt lat="40.071375" lon="-105.229789">
  <ele>1583.02</ele>
  <time>2026-08-28T17:51:39Z</time>
  <course>247.34</course>
  <speed>0.02</speed>
  <fix>3d</fix>
</trkpt>
<trkpt lat="40.0713749" lon="-105.229789">
  <ele>1583.0</ele>
  <time>2026-08-28T17:51:39Z</time>
  <course>0.0</course>
  <speed>0.0</speed>
  <fix>3d</fix>
</trkpt>
<trkpt lat="40.071375" lon="-105.229789">
  <ele>1583.01</ele>
  <time>2026-08-28T17:51:39Z</time>
  <course>247.34</course>
  <speed>0.02</speed>
  <fix>3d</fix>
</trkpt>
<trkpt lat="40.0713749" lon="-105.229789">
  <ele>1583.0</ele>
  <time>2026-08-28T17:51:39Z</time>
  <course>0.0</course>
  <speed>0.0</speed>
  <fix>3d</fix>
</trkpt>
<trkpt lat="40.071375" lon="-105.229789">
  <ele>1583.01</ele>
  <time>2026-08-28T17:51:39Z</time>
  <course>247.33</course>
  <speed>0.02</speed>
  <fix>3d</fix>
</trkpt>
<trkpt lat="40.0713749" lon="-105.229789">
  <ele>1583.0</ele>
  <time>2026-08-28T17:51:39Z</time>
  <course>0.0</course>
  <speed>0.0</speed>
  <fix>3d</fix>
</trkpt>
<trkpt lat="40.071375" lon="-105.229789">
  <ele>1583.01</ele>
  <time>2026-08-28T17:51:39Z</time>
  <course>247.33</course>
  <speed>0.02</speed>
  <fix>3d</fix>
</trkpt>
<trkpt lat="40.0713749" lon="-105.229789">
  <ele>1583.0</ele>
  <time>2026-08-28T17:51:39Z</time>
  <course>0.0</course>
  <speed>0.0</speed>
  <fix>3d</fix>
</trkpt>
<trkpt lat="40.071375" lon="-105.229789">
  <ele>1583.01</ele>
  <time>2026-08-28T17:51:39Z</time>
  <course>247.33</course>
  <speed>0.02</speed>
  <fix>3d</fix>
</trkpt>
<trkpt lat="40.0713749" lon="-105.229789">
  <ele>1583.0</ele>
  <time>2026-08-28T17:51:39Z</time>
  <course>0.0</course>
  <speed>0.0</speed>
  <fix>3d</fix>
</trkpt>
<trkpt lat="40.071375" lon="-105.229789">
  <ele>1583.01</ele>
  <time>2026-08-28T17:51:39Z</time>
  <course>247.33</course>
  <speed>0.02</speed>
  <fix>3d</fix>
</trkpt>
<trkpt lat="40.071375" lon="-105.229789">
  <ele>1583.01</ele>
  <time>2026-08-28T17:51:39Z</time>
  <course>247.33</course>
  <speed>0.02</speed>
  <fix>3d</fix>
</trkpt>
<trkpt lat="40.0713749" lon="-105.229789">
  <ele>1583.0</ele>
  <time>2026-08-28T17:51:39Z</time>
  <course>0.0</course>
  <speed>0.0</speed>
  <fix>3d</fix>
</trkpt>
<trkpt lat="40.071375" lon="-105.229789">
  <ele>1583.01</ele>
  <time>2026-08-28T17:51:39Z</time>
  <course>247.33</course>
  <speed>0.02</speed>
  <fix>3d</fix>
</trkpt>
<trkpt lat="40.0713749" lon="-105.229789">
  <ele>1583.0</ele>
  <time>2026-08-28T17:51:39Z</time>
  <course>0.0</course>
  <speed>0.0</speed>
  <fix>3d</fix>
</trkpt>
<trkpt lat="40.071375" lon="-105.229789">
  <ele>1583.01</ele>
  <time>2026-08-28T17:51:40Z</time>
  <course>247.33</course>
  <speed>0.02</speed>
  <fix>3d</fix>
</trkpt>
<trkpt lat="40.0713749" lon="-105.229789">
  <ele>1583.0</ele>
  <time>2026-08-28T17:51:40Z</time>
  <course>0.0</course>
  <speed>0.0</speed>
  <fix>3d</fix>
</trkpt>
<trkpt lat="40.071375" lon="-105.229789">
  <ele>1583.01</ele>
  <time>2026-08-28T17:51:40Z</time>
  <course>247.33</course>
  <speed>0.02</speed>
  <fix>3d</fix>
</trkpt>
<trkpt lat="40.0713749" lon="-105.229789">
  <ele>1583.0</ele>
  <time>2026-08-28T17:51:40Z</time>
  <course>0.0</course>
  <speed>0.0</speed>
  <fix>3d</fix>
</trkpt>
<trkpt lat="40.071375" lon="-105.229789">
  <ele>1583.01</ele>
  <time>2026-08-28T17:51:40Z</time>
  <course>247.32</course>
  <speed>0.02</speed>
  <fix>3d</fix>
</trkpt>
<trkpt lat="40.0713749" lon="-105.229789">
  <ele>1583.0</ele>
  <time>2026-08-28T17:51:40Z</time>
  <course>0.0</course>
  <speed>0.0</speed>
  <fix>3d</fix>
</trkpt>
<trkpt lat="40.071375" lon="-105.229789">
  <ele>1583.0</ele>
  <time>2026-08-28T17:51:40Z</time>
  <course>247.32</course>
  <speed>0.02</speed>
  <fix>3d</fix>
</trkpt>
<trkpt lat="40.0713749" lon="-105.229789">
  <ele>1583.0</ele>
  <time>2026-08-28T17:51:40Z</time>
  <course>0.0</course>
  <speed>0.0</speed>
  <fix>3d</fix>
</trkpt>
<trkpt lat="40.071375" lon="-105.229789">
  <ele>1583.0</ele>
  <time>2026-08-28T17:51:40Z</time>
  <course>247.32</course>
  <speed>0.02</speed>
  <fix>3d</fix>
</trkpt>
<trkpt lat="40.0713749" lon="-105.229789">
  <ele>1583.0</ele>
  <time>2026-08-28T17:51:40Z</time>
  <course>0.0</course>
  <speed>0.0</speed>
  <fix>3d</fix>
</trkpt>
<trkpt lat="40.071375" lon="-105.229789">
  <ele>1583.0</ele>
  <time>2026-08-28T17:51:40Z</time>
  <course>247.32</course>
  <speed>0.02</speed>
  <fix>3d</fix>
</trkpt>
<trkpt lat="40.0713749" lon="-105.229789">
  <ele>1583.0</ele>
  <time>2026-08-28T17:51:40Z</time>
  <course>0.0</course>
  <speed>0.0</speed>
  <fix>3d</fix>
</trkpt>
<trkpt lat="40.071375" lon="-105.229789">
  <ele>1582.99</ele>
  <time>2026-08-28T17:51:40Z</time>
  <course>247.32</course>
  <speed>0.02</speed>
  <fix>3d</fix>
</trkpt>
<trkpt lat="40.0713749" lon="-105.229789">
  <ele>1583.0</ele>
  <time>2026-08-28T17:51:40Z</time>
  <course>0.0</course>
  <speed>0.0</speed>
  <fix>3d</fix>
</trkpt>
<trkpt lat="40.071375" lon="-105.229789">
  <ele>1582.99</ele>
  <time>2026-08-28T17:51:40Z</time>
  <course>247.32</course>
  <speed>0.02</speed>
  <fix>3d</fix>
</trkpt>
<trkpt lat="40.0713749" lon="-105.229789">
  <ele>1583.0</ele>
  <time>2026-08-28T17:51:40Z</time>
  <course>0.0</course>
  <speed>0.0</speed>
  <fix>3d</fix>
</trkpt>
<trkpt lat="40.071375" lon="-105.229789">
  <ele>1582.98</ele>
  <time>2026-08-28T17:51:40Z</time>
  <course>247.31</course>
  <speed>0.01</speed>
  <fix>3d</fix>
</trkpt>
<trkpt lat="40.0713749" lon="-105.229789">
  <ele>1583.0</ele>
  <time>2026-08-28T17:51:40Z</time>
  <course>0.0</course>
  <speed>0.0</speed>
  <fix>3d</fix>
</trkpt>
<trkpt lat="40.071375" lon="-105.229789">
  <ele>1582.97</ele>
  <time>2026-08-28T17:51:40Z</time>
  <course>247.3</course>
  <speed>0.01</speed>
  <fix>3d</fix>
</trkpt>
<trkpt lat="40.0713749" lon="-105.229789">
  <ele>1583.0</ele>
  <time>2026-08-28T17:51:40Z</time>
  <course>245.98</course>
  <speed>0.0</speed>
  <fix>3d</fix>
</trkpt>
<trkpt lat="40.071375" lon="-105.229789">
  <ele>1582.97</ele>
  <time>2026-08-28T17:51:40Z</time>
  <course>247.31</course>
  <speed>0.01</speed>
  <fix>3d</fix>
</trkpt>
<trkpt lat="40.0713749" lon="-105.229789">
  <ele>1583.0</ele>
  <time>2026-08-28T17:51:40Z</time>
  <course>245.98</course>
  <speed>0.0</speed>
  <fix>3d</fix>
</trkpt>
<trkpt lat="40.071375" lon="-105.229789">
  <ele>1582.96</ele>
  <time>2026-08-28T17:51:40Z</time>
  <course>247.31</course>
  <speed>0.01</speed>
  <fix>3d</fix>
</trkpt>
<trkpt lat="40.0713749" lon="-105.229789">
  <ele>1583.0</ele>
  <time>2026-08-28T17:51:40Z</time>
  <course>245.99</course>
  <speed>0.01</speed>
  <fix>3d</fix>
</trkpt>
<trkpt lat="40.071375" lon="-105.229789">
  <ele>1582.96</ele>
  <time>2026-08-28T17:51:40Z</time>
  <course>247.3</course>
  <speed>0.01</speed>
  <fix>3d</fix>
</trkpt>
<trkpt lat="40.0713749" lon="-105.229789">
  <ele>1583.0</ele>
  <time>2026-08-28T17:51:40Z</time>
  <course>245.99</course>
  <speed>0.01</speed>
  <fix>3d</fix>
</trkpt>
<trkpt lat="40.071375" lon="-105.229789">
  <ele>1582.95</ele>
  <time>2026-08-28T17:51:40Z</time>
  <course>247.3</course>
  <speed>0.01</speed>
  <fix>3d</fix>
</trkpt>
<trkpt lat="40.0713749" lon="-105.229789">
  <ele>1583.0</ele>
  <time>2026-08-28T17:51:40Z</time>
  <course>245.99</course>
  <speed>0.01</speed>
  <fix>3d</fix>
</trkpt>
<trkpt lat="40.071375" lon="-105.229789">
  <ele>1582.95</ele>
  <time>2026-08-28T17:51:40Z</time>
  <course>247.3</course>
  <speed>0.01</speed>
  <fix>3d</fix>
</trkpt>
<trkpt lat="40.0713749" lon="-105.229789">
  <ele>1583.0</ele>
  <time>2026-08-28T17:51:40Z</time>
  <course>245.99</course>
  <speed>0.0</speed>
  <fix>3d</fix>
</trkpt>
<trkpt lat="40.071375" lon="-105.229789">
  <ele>1582.94</ele>
  <time>2026-08-28T17:51:40Z</time>
  <course>247.3</course>
  <speed>0.01</speed>
  <fix>3d</fix>
</trkpt>
<trkpt lat="40.0713749" lon="-105.229789">
  <ele>1583.0</ele>
  <time>2026-08-28T17:51:40Z</time>
  <course>245.99</course>
  <speed>0.0</speed>
  <fix>3d</fix>
</trkpt>
<trkpt lat="40.071375" lon="-105.229789">
  <ele>1582.93</ele>
  <time>2026-08-28T17:51:40Z</time>
  <course>247.3</course>
  <speed>0.01</speed>
  <fix>3d</fix>
</trkpt>
<trkpt lat="40.0713749" lon="-105.229789">
  <ele>1583.0</ele>
  <time>2026-08-28T17:51:40Z</time>
  <course>245.99</course>
  <speed>0.0</speed>
  <fix>3d</fix>
</trkpt>
<trkpt lat="40.071375" lon="-105.229789">
  <ele>1582.93</ele>
  <time>2026-08-28T17:51:40Z</time>
  <course>247.3</course>
  <speed>0.01</speed>
  <fix>3d</fix>
</trkpt>
<trkpt lat="40.0713749" lon="-105.229789">
  <ele>1583.0</ele>
  <time>2026-08-28T17:51:40Z</time>
  <course>245.99</course>
  <speed>0.0</speed>
  <fix>3d</fix>
</trkpt>
<trkpt lat="40.071375" lon="-105.229789">
  <ele>1582.92</ele>
  <time>2026-08-28T17:51:40Z</time>
  <course>247.3</course>
  <speed>0.01</speed>
  <fix>3d</fix>
</trkpt>
<trkpt lat="40.0713749" lon="-105.229789">
  <ele>1583.0</ele>
  <time>2026-08-28T17:51:40Z</time>
  <course>245.99</course>
  <speed>0.0</speed>
  <fix>3d</fix>
</trkpt>
<trkpt lat="40.071375" lon="-105.229789">
  <ele>1582.91</ele>
  <time>2026-08-28T17:51:40Z</time>
  <course>247.29</course>
  <speed>0.01</speed>
  <fix>3d</fix>
</trkpt>
<trkpt lat="40.0713749" lon="-105.229789">
  <ele>1583.0</ele>
  <time>2026-08-28T17:51:40Z</time>
  <course>245.99</course>
  <speed>0.0</speed>
  <fix>3d</fix>
</trkpt>
<trkpt lat="40.071375" lon="-105.229789">
  <ele>1582.91</ele>
  <time>2026-08-28T17:51:40Z</time>
  <course>247.29</course>
  <speed>0.01</speed>
  <fix>3d</fix>
</trkpt>
<trkpt lat="40.0713749" lon="-105.229789">
  <ele>1583.0</ele>
  <time>2026-08-28T17:51:40Z</time>
  <course>245.99</course>
  <speed>0.0</speed>
  <fix>3d</fix>
</trkpt>
<trkpt lat="40.071375" lon="-105.229789">
  <ele>1582.91</ele>
  <time>2026-08-28T17:51:40Z</time>
  <course>247.29</course>
  <speed>0.01</speed>
  <fix>3d</fix>
</trkpt>
<trkpt lat="40.0713749" lon="-105.229789">
  <ele>1583.0</ele>
  <time>2026-08-28T17:51:40Z</time>
  <course>245.99</course>
  <speed>0.0</speed>
  <fix>3d</fix>
</trkpt>
<trkpt lat="40.071375" lon="-105.229789">
  <ele>1582.91</ele>
  <time>2026-08-28T17:51:40Z</time>
  <course>247.29</course>
  <speed>0.01</speed>
  <fix>3d</fix>
</trkpt>
<trkpt lat="40.0713749" lon="-105.229789">
  <ele>1583.0</ele>
  <time>2026-08-28T17:51:40Z</time>
  <course>245.99</course>
  <speed>0.0</speed>
  <fix>3d</fix>
</trkpt>
<trkpt lat="40.071375" lon="-105.229789">
  <ele>1582.9</ele>
  <time>2026-08-28T17:51:40Z</time>
  <course>247.29</course>
  <speed>0.01</speed>
  <fix>3d</fix>
</trkpt>
<trkpt lat="40.0713749" lon="-105.229789">
  <ele>1583.0</ele>
  <time>2026-08-28T17:51:40Z</time>
  <course>245.99</course>
  <speed>0.0</speed>
  <fix>3d</fix>
</trkpt>
<trkpt lat="40.071375" lon="-105.229789">
  <ele>1582.9</ele>
  <time>2026-08-28T17:51:40Z</time>
  <course>247.29</course>
  <speed>0.01</speed>
  <fix>3d</fix>
</trkpt>
<trkpt lat="40.0713749" lon="-105.229789">
  <ele>1583.0</ele>
  <time>2026-08-28T17:51:40Z</time>
  <course>245.99</course>
  <speed>0.0</speed>
  <fix>3d</fix>
</trkpt>
<trkpt lat="40.071375" lon="-105.229789">
  <ele>1582.9</ele>
  <time>2026-08-28T17:51:40Z</time>
  <course>247.29</course>
  <speed>0.01</speed>
  <fix>3d</fix>
</trkpt>
<trkpt lat="40.0713749" lon="-105.229789">
  <ele>1583.0</ele>
  <time>2026-08-28T17:51:40Z</time>
  <course>245.99</course>
  <speed>0.0</speed>
  <fix>3d</fix>
</trkpt>
<trkpt lat="40.071375" lon="-105.229789">
  <ele>1582.9</ele>
  <time>2026-08-28T17:51:40Z</time>
  <course>247.28</course>
  <speed>0.01</speed>
  <fix>3d</fix>
</trkpt>
<trkpt lat="40.0713749" lon="-105.229789">
  <ele>1583.0</ele>
  <time>2026-08-28T17:51:40Z</time>
  <course>245.99</course>
  <speed>0.0</speed>
  <fix>3d</fix>
</trkpt>
<trkpt lat="40.071375" lon="-105.229789">
  <ele>1582.9</ele>
  <time>2026-08-28T17:51:40Z</time>
  <course>247.28</course>
  <speed>0.01</speed>
  <fix>3d</fix>
</trkpt>
<trkpt lat="40.0713749" lon="-105.229789">
  <ele>1583.0</ele>
  <time>2026-08-28T17:51:40Z</time>
  <course>245.99</course>
  <speed>0.0</speed>
  <fix>3d</fix>
</trkpt>
<trkpt lat="40.071375" lon="-105.229789">
  <ele>1582.9</ele>
  <time>2026-08-28T17:51:40Z</time>
  <course>247.28</course>
  <speed>0.01</speed>
  <fix>3d</fix>
</trkpt>
<trkpt lat="40.0713749" lon="-105.229789">
  <ele>1583.0</ele>
  <time>2026-08-28T17:51:40Z</time>
  <course>245.99</course>
  <speed>0.0</speed>
  <fix>3d</fix>
</trkpt>
<trkpt lat="40.071375" lon="-105.229789">
  <ele>1582.89</ele>
  <time>2026-08-28T17:51:40Z</time>
  <course>247.28</course>
  <speed>0.01</speed>
  <fix>3d</fix>
</trkpt>
<trkpt lat="40.0713749" lon="-105.229789">
  <ele>1583.0</ele>
  <time>2026-08-28T17:51:40Z</time>
  <course>245.99</course>
  <speed>0.0</speed>
  <fix>3d</fix>
</trkpt>
<trkpt lat="40.071375" lon="-105.229789">
  <ele>1582.89</ele>
  <time>2026-08-28T17:51:40Z</time>
  <course>247.28</course>
  <speed>0.01</speed>
  <fix>3d</fix>
</trkpt>
<trkpt lat="40.0713749" lon="-105.229789">
  <ele>1583.0</ele>
  <time>2026-08-28T17:51:40Z</time>
  <course>245.99</course>
  <speed>0.0</speed>
  <fix>3d</fix>
</trkpt>
<trkpt lat="40.071375" lon="-105.229789">
  <ele>1582.89</ele>
  <time>2026-08-28T17:51:40Z</time>
  <course>247.28</course>
  <speed>0.01</speed>
  <fix>3d</fix>
</trkpt>
<trkpt lat="40.0713749" lon="-105.229789">
  <ele>1583.0</ele>
  <time>2026-08-28T17:51:40Z</time>
  <course>245.99</course>
  <speed>0.0</speed>
  <fix>3d</fix>
</trkpt>
<trkpt lat="40.071375" lon="-105.229789">
  <ele>1582.9</ele>
  <time>2026-08-28T17:51:40Z</time>
  <course>247.28</course>
  <speed>0.02</speed>
  <fix>3d</fix>
</trkpt>
<trkpt lat="40.0713749" lon="-105.229789">
  <ele>1583.0</ele>
  <time>2026-08-28T17:51:40Z</time>
  <course>245.99</course>
  <speed>0.0</speed>
  <fix>3d</fix>
</trkpt>
<trkpt lat="40.071375" lon="-105.229789">
  <ele>1582.9</ele>
  <time>2026-08-28T17:51:40Z</time>
  <course>247.28</course>
  <speed>0.02</speed>
  <fix>3d</fix>
</trkpt>
<trkpt lat="40.0713749" lon="-105.229789">
  <ele>1583.0</ele>
  <time>2026-08-28T17:51:40Z</time>
  <course>245.99</course>
  <speed>0.0</speed>
  <fix>3d</fix>
</trkpt>
<trkpt lat="40.071375" lon="-105.229789">
  <ele>1582.91</ele>
  <time>2026-08-28T17:51:40Z</time>
  <course>247.27</course>
  <speed>0.02</speed>
  <fix>3d</fix>
</trkpt>
<trkpt lat="40.0713749" lon="-105.229789">
  <ele>1583.0</ele>
  <time>2026-08-28T17:51:40Z</time>
  <course>245.99</course>
  <speed>0.0</speed>
  <fix>3d</fix>
</trkpt>
<trkpt lat="40.071375" lon="-105.229789">
  <ele>1582.92</ele>
  <time>2026-08-28T17:51:40Z</time>
  <course>247.27</course>
  <speed>0.022360679774997897</speed>
  <fix>3d</fix>
</trkpt>
<trkpt lat="40.0713749" lon="-105.229789">
  <ele>1583.0</ele>
  <time>2026-08-28T17:51:40Z</time>
  <course>245.99</course>
  <speed>0.0</speed>
  <fix>3d</fix>
</trkpt>
<trkpt lat="40.071375" lon="-105.229789">
  <ele>1582.94</ele>
  <time>2026-08-28T17:51:40Z</time>
  <course>247.27</course>
  <speed>0.022360679774997897</speed>
  <fix>3d</fix>
</trkpt>
<trkpt lat="40.0713749" lon="-105.229789">
  <ele>1583.0</ele>
  <time>2026-08-28T17:51:40Z</time>
  <course>245.99</course>
  <speed>0.0</speed>
  <fix>3d</fix>
</trkpt>
<trkpt lat="40.071375" lon="-105.229789">
  <ele>1582.96</ele>
  <time>2026-08-28T17:51:40Z</time>
  <course>247.27</course>
  <speed>0.022360679774997897</speed>
  <fix>3d</fix>
</trkpt>
<trkpt lat="40.0713749" lon="-105.2297892">
  <ele>1583.0</ele>
  <time>2026-08-28T17:51:40Z</time>
  <course>245.99</course>
  <speed>0.0</speed>
  <fix>3d</fix>
</trkpt>
<trkpt lat="40.071375" lon="-105.229789">
  <ele>1582.97</ele>
  <time>2026-08-28T17:51:40Z</time>
  <course>247.26</course>
  <speed>0.022360679774997897</speed>
  <fix>3d</fix>
</trkpt>
<trkpt lat="40.0713749" lon="-105.2297892">
  <ele>1583.0</ele>
  <time>2026-08-28T17:51:40Z</time>
  <course>245.99</course>
  <speed>0.0</speed>
  <fix>3d</fix>
</trkpt>
<trkpt lat="40.071375" lon="-105.229789">
  <ele>1582.97</ele>
  <time>2026-08-28T17:51:40Z</time>
  <course>247.26</course>
  <speed>0.022360679774997897</speed>
  <fix>3d</fix>
</trkpt>
<trkpt lat="40.0713749" lon="-105.2297892">
  <ele>1583.0</ele>
  <time>2026-08-28T17:51:40Z</time>
  <course>245.99</course>
  <speed>0.0</speed>
  <fix>3d</fix>
</trkpt>
<trkpt lat="40.071375" lon="-105.229789">
  <ele>1582.97</ele>
  <time>2026-08-28T17:51:40Z</time>
  <course>247.26</course>
  <speed>0.022360679774997897</speed>
  <fix>3d</fix>
</trkpt>
<trkpt lat="40.0713749" lon="-105.2297892">
  <ele>1583.0</ele>
  <time>2026-08-28T17:51:40Z</time>
  <course>245.99</course>
  <speed>0.0</speed>
  <fix>3d</fix>
</trkpt>
<trkpt lat="40.071375" lon="-105.229789">
  <ele>1582.97</ele>
  <time>2026-08-28T17:51:40Z</time>
  <course>247.26</course>
  <speed>0.02</speed>
  <fix>3d</fix>
</trkpt>
<trkpt lat="40.0713749" lon="-105.2297892">
  <ele>1583.0</ele>
  <time>2026-08-28T17:51:40Z</time>
  <course>245.99</course>
  <speed>0.0</speed>
  <fix>3d</fix>
</trkpt>
<trkpt lat="40.071375" lon="-105.229789">
  <ele>1582.98</ele>
  <time>2026-08-28T17:51:40Z</time>
  <course>247.26</course>
  <speed>0.02</speed>
  <fix>3d</fix>
</trkpt>
<trkpt lat="40.0713749" lon="-105.2297892">
  <ele>1583.0</ele>
  <time>2026-08-28T17:51:40Z</time>
  <course>245.99</course>
  <speed>0.0</speed>
  <fix>3d</fix>
</trkpt>
<trkpt lat="40.071375" lon="-105.229789">
  <ele>1582.99</ele>
  <time>2026-08-28T17:51:40Z</time>
  <course>247.26</course>
  <speed>0.02</speed>
  <fix>3d</fix>
</trkpt>
<trkpt lat="40.0713749" lon="-105.2297892">
  <ele>1583.0</ele>
  <time>2026-08-28T17:51:40Z</time>
  <course>245.99</course>
  <speed>0.0</speed>
  <fix>3d</fix>
</trkpt>
<trkpt lat="40.071375" lon="-105.229789">
  <ele>1583.0</ele>
  <time>2026-08-28T17:51:40Z</time>
  <course>247.26</course>
  <speed>0.02</speed>
  <fix>3d</fix>
</trkpt>
<trkpt lat="40.0713749" lon="-105.2297892">
  <ele>1583.0</ele>
  <time>2026-08-28T17:51:40Z</time>
  <course>245.99</course>
  <speed>0.0</speed>
  <fix>3d</fix>
</trkpt>
<trkpt lat="40.071375" lon="-105.229789">
  <ele>1583.0</ele>
  <time>2026-08-28T17:51:40Z</time>
  <course>247.25</course>
  <speed>0.02</speed>
  <fix>3d</fix>
</trkpt>
<trkpt lat="40.0713749" lon="-105.2297892">
  <ele>1583.0</ele>
  <time>2026-08-28T17:51:40Z</time>
  <course>245.99</course>
  <speed>0.0</speed>
  <fix>3d</fix>
</trkpt>
<trkpt lat="40.071375" lon="-105.229789">
  <ele>1583.0</ele>
  <time>2026-08-28T17:51:40Z</time>
  <course>247.25</course>
  <speed>0.02</speed>
  <fix>3d</fix>
</trkpt>
<trkpt lat="40.0713749" lon="-105.2297892">
  <ele>1583.0</ele>
  <time>2026-08-28T17:51:40Z</time>
  <course>245.99</course>
  <speed>0.0</speed>
  <fix>3d</fix>
</trkpt>
<trkpt lat="40.071375" lon="-105.229789">
  <ele>1583.0</ele>
  <time>2026-08-28T17:51:40Z</time>
  <course>247.25</course>
  <speed>0.02</speed>
  <fix>3d</fix>
</trkpt>
<trkpt lat="40.0713749" lon="-105.2297892">
  <ele>1583.0</ele>
  <time>2026-08-28T17:51:40Z</time>
  <course>245.99</course>
  <speed>0.0</speed>
  <fix>3d</fix>
</trkpt>
<trkpt lat="40.071375" lon="-105.229789">
  <ele>1582.99</ele>
  <time>2026-08-28T17:51:40Z</time>
  <course>247.25</course>
  <speed>0.02</speed>
  <fix>3d</fix>
</trkpt>
<trkpt lat="40.0713749" lon="-105.2297892">
  <ele>1583.0</ele>
  <time>2026-08-28T17:51:40Z</time>
  <course>245.99</course>
  <speed>0.0</speed>
  <fix>3d</fix>
</trkpt>
<trkpt lat="40.071375" lon="-105.229789">
  <ele>1582.98</ele>
  <time>2026-08-28T17:51:40Z</time>
  <course>247.25</course>
  <speed>0.02</speed>
  <fix>3d</fix>
</trkpt>
<trkpt lat="40.0713749" lon="-105.2297892">
  <ele>1583.0</ele>
  <time>2026-08-28T17:51:40Z</time>
  <course>245.99</course>
  <speed>0.0</speed>
  <fix>3d</fix>
</trkpt>
<trkpt lat="40.071375" lon="-105.229789">
  <ele>1582.98</ele>
  <time>2026-08-28T17:51:40Z</time>
  <course>247.25</course>
  <speed>0.02</speed>
  <fix>3d</fix>
</trkpt>
<trkpt lat="40.0713749" lon="-105.2297892">
  <ele>1583.0</ele>
  <time>2026-08-28T17:51:40Z</time>
  <course>245.99</course>
  <speed>0.0</speed>
  <fix>3d</fix>
</trkpt>
<trkpt lat="39.655741" lon="-104.1383097">
  <ele>1566.58</ele>
  <time>2026-08-28T17:51:40Z</time>
  <course>0.0</course>
  <speed>0.0</speed>
  <fix>3d</fix>
</trkpt>
<trkpt lat="40.0713749" lon="-105.229789">
  <ele>1583.0</ele>
  <time>2026-08-28T17:51:40Z</time>
  <course>0.0</course>
  <speed>0.0</speed>
  <fix>3d</fix>
</trkpt>
<trkpt lat="40.0713749" lon="-105.229789">
  <ele>1583.0</ele>
  <time>2026-08-28T17:51:40Z</time>
  <course>238.36</course>
  <speed>0.0</speed>
  <fix>3d</fix>
</trkpt>
<trkpt lat="40.0713749" lon="-105.229789">
  <ele>1583.0</ele>
  <time>2026-08-28T17:51:40Z</time>
  <course>0.0</course>
  <speed>0.0</speed>
  <fix>3d</fix>
</trkpt>
<trkpt lat="40.0713749" lon="-105.229789">
  <ele>1583.0</ele>
  <time>2026-08-28T17:51:40Z</time>
  <course>238.44</course>
  <speed>0.0</speed>
  <fix>3d</fix>
</trkpt>
<trkpt lat="40.0713749" lon="-105.229789">
  <ele>1583.0</ele>
  <time>2026-08-28T17:51:40Z</time>
  <course>0.0</course>
  <speed>0.0</speed>
  <fix>3d</fix>
</trkpt>
<trkpt lat="40.0713749" lon="-105.229789">
  <ele>1583.0</ele>
  <time>2026-08-28T17:51:40Z</time>
  <course>238.64</course>
  <speed>0.0</speed>
  <fix>3d</fix>
</trkpt>
<trkpt lat="40.0713749" lon="-105.229789">
  <ele>1583.0</ele>
  <time>2026-08-28T17:51:40Z</time>
  <course>0.0</course>
  <speed>0.0</speed>
  <fix>3d</fix>
</trkpt>
<trkpt lat="40.0713749" lon="-105.229789">
  <ele>1583.0</ele>
  <time>2026-08-28T17:51:40Z</time>
  <course>238.93</course>
  <speed>0.0</speed>
  <fix>3d</fix>
</trkpt>
<trkpt lat="40.0713749" lon="-105.229789">
  <ele>1583.0</ele>
  <time>2026-08-28T17:51:40Z</time>
  <course>0.0</course>
  <speed>0.0</speed>
  <fix>3d</fix>
</trkpt>
<trkpt lat="40.0713749" lon="-105.229789">
  <ele>1583.0</ele>
  <time>2026-08-28T17:51:40Z</time>
  <course>239.26</course>
  <speed>0.0</speed>
  <fix>3d</fix>
</trkpt>
<trkpt lat="40.0713749" lon="-105.229789">
  <ele>1583.0</ele>
  <time>2026-08-28T17:51:40Z</time>
  <course>0.0</course>
  <speed>0.0</speed>
  <fix>3d</fix>
</trkpt>
<trkpt lat="40.0713749" lon="-105.229789">
  <ele>1583.0</ele>
  <time>2026-08-28T17:51:40Z</time>
  <course>239.61</course>
  <speed>0.0</speed>
  <fix>3d</fix>
</trkpt>
<trkpt lat="40.0713749" lon="-105.229789">
  <ele>1583.0</ele>
  <time>2026-08-28T17:51:40Z</time>
  <course>0.0</course>
  <speed>0.0</speed>
  <fix>3d</fix>
</trkpt>
<trkpt lat="40.0713749" lon="-105.229789">
  <ele>1583.0</ele>
  <time>2026-08-28T17:51:40Z</time>
  <course>239.96</course>
  <speed>0.0</speed>
  <fix>3d</fix>
</trkpt>
<trkpt lat="40.0713749" lon="-105.229789">
  <ele>1583.0</ele>
  <time>2026-08-28T17:51:40Z</time>
  <course>0.0</course>
  <speed>0.0</speed>
  <fix>3d</fix>
</trkpt>
<trkpt lat="40.0713749" lon="-105.229789">
  <ele>1583.0</ele>
  <time>2026-08-28T17:51:40Z</time>
  <course>240.29</course>
  <speed>0.0</speed>
  <fix>3d</fix>
</trkpt>
<trkpt lat="40.0713749" lon="-105.229789">
  <ele>1583.0</ele>
  <time>2026-08-28T17:51:40Z</time>
  <course>0.0</course>
  <speed>0.0</speed>
  <fix>3d</fix>
</trkpt>
<trkpt lat="40.0713749" lon="-105.229789">
  <ele>1583.0</ele>
  <time>2026-08-28T17:51:40Z</time>
  <course>240.61</course>
  <speed>0.0</speed>
  <fix>3d</fix>
</trkpt>
<trkpt lat="40.0713749" lon="-105.229789">
  <ele>1583.0</ele>
  <time>2026-08-28T17:51:40Z</time>
  <course>0.0</course>
  <speed>0.0</speed>
  <fix>3d</fix>
</trkpt>
<trkpt lat="40.0713749" lon="-105.229789">
  <ele>1583.0</ele>
  <time>2026-08-28T17:51:40Z</time>
  <course>240.92</course>
  <speed>0.0</speed>
  <fix>3d</fix>
</trkpt>
<trkpt lat="40.0713749" lon="-105.229789">
  <ele>1583.0</ele>
  <time>2026-08-28T17:51:40Z</time>
  <course>0.0</course>
  <speed>0.0</speed>
  <fix>3d</fix>
</trkpt>
<trkpt lat="40.0713749" lon="-105.229789">
  <ele>1583.0</ele>
  <time>2026-08-28T17:51:40Z</time>
  <course>241.21</course>
  <speed>0.0</speed>
  <fix>3d</fix>
</trkpt>
<trkpt lat="40.0713749" lon="-105.229789">
  <ele>1583.0</ele>
  <time>2026-08-28T17:51:40Z</time>
  <course>0.0</course>
  <speed>0.0</speed>
  <fix>3d</fix>
</trkpt>
<trkpt lat="40.0713749" lon="-105.229789">
  <ele>1583.0</ele>
  <time>2026-08-28T17:51:40Z</time>
  <course>241.49</course>
  <speed>0.0</speed>
  <fix>3d</fix>
</trkpt>
<trkpt lat="40.0713749" lon="-105.229789">
  <ele>1583.0</ele>
  <time>2026-08-28T17:51:40Z</time>
  <course>0.0</course>
  <speed>0.0</speed>
  <fix>3d</fix>
</trkpt>
<trkpt lat="40.0713749" lon="-105.229789">
  <ele>1583.0</ele>
  <time>2026-08-28T17:51:40Z</time>
  <course>241.77</course>
  <speed>0.0</speed>
  <fix>3d</fix>
</trkpt>
<trkpt lat="40.0713749" lon="-105.229789">
  <ele>1583.0</ele>
  <time>2026-08-28T17:51:40Z</time>
  <course>0.0</course>
  <speed>0.0</speed>
  <fix>3d</fix>
</trkpt>
<trkpt lat="40.0713749" lon="-105.229789">
  <ele>1583.0</ele>
  <time>2026-08-28T17:51:40Z</time>
  <course>242.03</course>
  <speed>0.0</speed>
  <fix>3d</fix>
</trkpt>
<trkpt lat="40.0713749" lon="-105.229789">
  <ele>1583.0</ele>
  <time>2026-08-28T17:51:40Z</time>
  <course>0.0</course>
  <speed>0.0</speed>
  <fix>3d</fix>
</trkpt>
<trkpt lat="40.0713749" lon="-105.229789">
  <ele>1583.0</ele>
  <time>2026-08-28T17:51:40Z</time>
  <course>242.29</course>
  <speed>0.0</speed>
  <fix>3d</fix>
</trkpt>
<trkpt lat="40.0713749" lon="-105.229789">
  <ele>1583.0</ele>
  <time>2026-08-28T17:51:40Z</time>
  <course>0.0</course>
  <speed>0.0</speed>
  <fix>3d</fix>
</trkpt>
<trkpt lat="40.0713749" lon="-105.229789">
  <ele>1583.0</ele>
  <time>2026-08-28T17:51:40Z</time>
  <course>242.54</course>
  <speed>0.0</speed>
  <fix>3d</fix>
</trkpt>
<trkpt lat="40.0713749" lon="-105.229789">
  <ele>1583.0</ele>
  <time>2026-08-28T17:51:40Z</time>
  <course>0.0</course>
  <speed>0.0</speed>
  <fix>3d</fix>
</trkpt>
<trkpt lat="40.0713749" lon="-105.229789">
  <ele>1583.0</ele>
  <time>2026-08-28T17:51:40Z</time>
  <course>242.79</course>
  <speed>0.0</speed>
  <fix>3d</fix>
</trkpt>
<trkpt lat="40.0713749" lon="-105.229789">
  <ele>1583.0</ele>
  <time>2026-08-28T17:51:40Z</time>
  <course>0.0</course>
  <speed>0.0</speed>
  <fix>3d</fix>
</trkpt>
<trkpt lat="40.0713749" lon="-105.229789">
  <ele>1583.0</ele>
  <time>2026-08-28T17:51:40Z</time>
  <course>243.02</course>
  <speed>0.0</speed>
  <fix>3d</fix>
</trkpt>
<trkpt lat="40.0713749" lon="-105.229789">
  <ele>1583.0</ele>
  <time>2026-08-28T17:51:40Z</time>
  <course>0.0</course>
  <speed>0.0</speed>
  <fix>3d</fix>
</trkpt>
<trkpt lat="40.0713749" lon="-105.229789">
  <ele>1583.0</ele>
  <time>2026-08-28T17:51:40Z</time>
  <course>243.25</course>
  <speed>0.0</speed>
  <fix>3d</fix>
</trkpt>
<trkpt lat="40.0713749" lon="-105.229789">
  <ele>1583.0</ele>
  <time>2026-08-28T17:51:40Z</time>
  <course>0.0</course>
  <speed>0.0</speed>
  <fix>3d</fix>
</trkpt>
<trkpt lat="40.0713749" lon="-105.229789">
  <ele>1583.0</ele>
  <time>2026-08-28T17:51:40Z</time>
  <course>243.47</course>
  <speed>0.0</speed>
  <fix>3d</fix>
</trkpt>
<trkpt lat="40.0713749" lon="-105.229789">
  <ele>1583.0</ele>
  <time>2026-08-28T17:51:40Z</time>
  <course>0.0</course>
  <speed>0.0</speed>
  <fix>3d</fix>
</trkpt>
<trkpt lat="40.0713749" lon="-105.229789">
  <ele>1583.0</ele>
  <time>2026-08-28T17:51:40Z</time>
  <course>243.68</course>
  <speed>0.0</speed>
  <fix>3d</fix>
</trkpt>
<trkpt lat="40.0713749" lon="-105.229789">
  <ele>1583.0</ele>
  <time>2026-08-28T17:51:40Z</time>
  <course>0.0</course>
  <speed>0.0</speed>
  <fix>3d</fix>
</trkpt>
<trkpt lat="40.0713749" lon="-105.229789">
  <ele>1583.0</ele>
  <time>2026-08-28T17:51:40Z</time>
  <course>243.89</course>
  <speed>0.0</speed>
  <fix>3d</fix>
</trkpt>
<trkpt lat="40.0713749" lon="-105.229789">
  <ele>1583.0</ele>
  <time>2026-08-28T17:51:40Z</time>
  <course>0.0</course>
  <speed>0.0</speed>
  <fix>3d</fix>
</trkpt>
<trkpt lat="40.0713749" lon="-105.229789">
  <ele>1583.0</ele>
  <time>2026-08-28T17:51:40Z</time>
  <course>244.09</course>
  <speed>0.0</speed>
  <fix>3d</fix>
</trkpt>
<trkpt lat="40.0713749" lon="-105.229789">
  <ele>1583.0</ele>
  <time>2026-08-28T17:51:40Z</time>
  <course>0.0</course>
  <speed>0.0</speed>
  <fix>3d</fix>
</trkpt>
<trkpt lat="40.0713749" lon="-105.229789">
  <ele>1583.0</ele>
  <time>2026-08-28T17:51:40Z</time>
  <course>244.28</course>
  <speed>0.0</speed>
  <fix>3d</fix>
</trkpt>
<trkpt lat="40.0713749" lon="-105.229789">
  <ele>1583.0</ele>
  <time>2026-08-28T17:51:40Z</time>
  <course>0.0</course>
  <speed>0.0</speed>
  <fix>3d</fix>
</trkpt>
<trkpt lat="40.0713749" lon="-105.229789">
  <ele>1583.0</ele>
  <time>2026-08-28T17:51:40Z</time>
  <course>244.46</course>
  <speed>0.0</speed>
  <fix>3d</fix>
</trkpt>
<trkpt lat="40.0713749" lon="-105.229789">
  <ele>1583.0</ele>
  <time>2026-08-28T17:51:40Z</time>
  <course>0.0</course>
  <speed>0.0</speed>
  <fix>3d</fix>
</trkpt>
<trkpt lat="40.0713749" lon="-105.229789">
  <ele>1583.0</ele>
  <time>2026-08-28T17:51:40Z</time>
  <course>244.64</course>
  <speed>0.0</speed>
  <fix>3d</fix>
</trkpt>
<trkpt lat="40.0713749" lon="-105.229789">
  <ele>1583.0</ele>
  <time>2026-08-28T17:51:40Z</time>
  <course>0.0</course>
  <speed>0.0</speed>
  <fix>3d</fix>
</trkpt>
<trkpt lat="40.0713749" lon="-105.229789">
  <ele>1583.0</ele>
  <time>2026-08-28T17:51:40Z</time>
  <course>244.81</course>
  <speed>0.0</speed>
  <fix>3d</fix>
</trkpt>
<trkpt lat="40.0713749" lon="-105.229789">
  <ele>1583.0</ele>
  <time>2026-08-28T17:51:40Z</time>
  <course>0.0</course>
  <speed>0.0</speed>
  <fix>3d</fix>
</trkpt>
<trkpt lat="40.0713749" lon="-105.229789">
  <ele>1583.0</ele>
  <time>2026-08-28T17:51:40Z</time>
  <course>244.97</course>
  <speed>0.0</speed>
  <fix>3d</fix>
</trkpt>
<trkpt lat="40.0713749" lon="-105.229789">
  <ele>1583.0</ele>
  <time>2026-08-28T17:51:40Z</time>
  <course>0.0</course>
  <speed>0.0</speed>
  <fix>3d</fix>
</trkpt>
<trkpt lat="40.0713749" lon="-105.229789">
  <ele>1583.0</ele>
  <time>2026-08-28T17:51:40Z</time>
  <course>245.13</course>
  <speed>0.0</speed>
  <fix>3d</fix>
</trkpt>
<trkpt lat="40.0713749" lon="-105.229789">
  <ele>1583.0</ele>
  <time>2026-08-28T17:51:40Z</time>
  <course>0.0</course>
  <speed>0.0</speed>
  <fix>3d</fix>
</trkpt>
<trkpt lat="40.0713749" lon="-105.229789">
  <ele>1583.0</ele>
  <time>2026-08-28T17:51:40Z</time>
  <course>245.29</course>
  <speed>0.0</speed>
  <fix>3d</fix>
</trkpt>
<trkpt lat="40.0713749" lon="-105.229789">
  <ele>1583.0</ele>
  <time>2026-08-28T17:51:40Z</time>
  <course>0.0</course>
  <speed>0.0</speed>
  <fix>3d</fix>
</trkpt>
<trkpt lat="40.0713749" lon="-105.229789">
  <ele>1583.0</ele>
  <time>2026-08-28T17:51:40Z</time>
  <course>245.43</course>
  <speed>0.0</speed>
  <fix>3d</fix>
</trkpt>
<trkpt lat="40.0713749" lon="-105.229789">
  <ele>1583.0</ele>
  <time>2026-08-28T17:51:40Z</time>
  <course>0.0</course>
  <speed>0.0</speed>
  <fix>3d</fix>
</trkpt>
<trkpt lat="40.0713749" lon="-105.229789">
  <ele>1583.0</ele>
  <time>2026-08-28T17:51:40Z</time>
  <course>245.57</course>
  <speed>0.0</speed>
  <fix>3d</fix>
</trkpt>
<trkpt lat="40.0713749" lon="-105.229789">
  <ele>1583.0</ele>
  <time>2026-08-28T17:51:40Z</time>
  <course>0.0</course>
  <speed>0.0</speed>
  <fix>3d</fix>
</trkpt>
<trkpt lat="40.0713749" lon="-105.229789">
  <ele>1583.0</ele>
  <time>2026-08-28T17:51:40Z</time>
  <course>245.71</course>
  <speed>0.0</speed>
  <fix>3d</fix>
</trkpt>
<trkpt lat="40.0713749" lon="-105.229789">
  <ele>1583.0</ele>
  <time>2026-08-28T17:51:40Z</time>
  <course>0.0</course>
  <speed>0.0</speed>
  <fix>3d</fix>
</trkpt>
<trkpt lat="40.0713749" lon="-105.229789">
  <ele>1583.0</ele>
  <time>2026-08-28T17:51:40Z</time>
  <course>245.84</course>
  <speed>0.0</speed>
  <fix>3d</fix>
</trkpt>
<trkpt lat="40.0713749" lon="-105.229789">
  <ele>1583.0</ele>
  <time>2026-08-28T17:51:40Z</time>
  <course>0.0</course>
  <speed>0.0</speed>
  <fix>3d</fix>
</trkpt>
<trkpt lat="40.0713749" lon="-105.229789">
  <ele>1583.0</ele>
  <time>2026-08-28T17:51:40Z</time>
  <course>245.96</course>
  <speed>0.0</speed>
  <fix>3d</fix>
</trkpt>
<trkpt lat="40.0713749" lon="-105.229789">
  <ele>1583.0</ele>
  <time>2026-08-28T17:51:40Z</time>
  <course>0.0</course>
  <speed>0.0</speed>
  <fix>3d</fix>
</trkpt>
<trkpt lat="40.0713749" lon="-105.229789">
  <ele>1583.0</ele>
  <time>2026-08-28T17:51:40Z</time>
  <course>246.08</course>
  <speed>0.0</speed>
  <fix>3d</fix>
</trkpt>
<trkpt lat="40.0713749" lon="-105.229789">
  <ele>1583.0</ele>
  <time>2026-08-28T17:51:40Z</time>
  <course>0.0</course>
  <speed>0.0</speed>
  <fix>3d</fix>
</trkpt>
<trkpt lat="40.0713749" lon="-105.229789">
  <ele>1583.0</ele>
  <time>2026-08-28T17:51:40Z</time>
  <course>246.19</course>
  <speed>0.0</speed>
  <fix>3d</fix>
</trkpt>
<trkpt lat="40.0713749" lon="-105.229789">
  <ele>1583.0</ele>
  <time>2026-08-28T17:51:40Z</time>
  <course>0.0</course>
  <speed>0.0</speed>
  <fix>3d</fix>
</trkpt>
<trkpt lat="40.0713749" lon="-105.229789">
  <ele>1583.0</ele>
  <time>2026-08-28T17:51:40Z</time>
  <course>246.3</course>
  <speed>0.0</speed>
  <fix>3d</fix>
</trkpt>
<trkpt lat="40.0713749" lon="-105.229789">
  <ele>1583.0</ele>
  <time>2026-08-28T17:51:40Z</time>
  <course>0.0</course>
  <speed>0.0</speed>
  <fix>3d</fix>
</trkpt>
<trkpt lat="40.0713749" lon="-105.229789">
  <ele>1583.0</ele>
  <time>2026-08-28T17:51:40Z</time>
  <course>246.41</course>
  <speed>0.0</speed>
  <fix>3d</fix>
</trkpt>
<trkpt lat="40.0713749" lon="-105.229789">
  <ele>1583.0</ele>
  <time>2026-08-28T17:51:40Z</time>
  <course>0.0</course>
  <speed>0.0</speed>
  <fix>3d</fix>
</trkpt>
<trkpt lat="40.0713749" lon="-105.229789">
  <ele>1583.0</ele>
  <time>2026-08-28T17:51:40Z</time>
  <course>246.51</course>
  <speed>0.0</speed>
  <fix>3d</fix>
</trkpt>
<trkpt lat="40.0713749" lon="-105.229789">
  <ele>1583.0</ele>
  <time>2026-08-28T17:51:40Z</time>
  <course>0.0</course>
  <speed>0.0</speed>
  <fix>3d</fix>
</trkpt>
<trkpt lat="40.0713749" lon="-105.229789">
  <ele>1583.0</ele>
  <time>2026-08-28T17:51:40Z</time>
  <course>246.6</course>
  <speed>0.0</speed>
  <fix>3d</fix>
</trkpt>
<trkpt lat="40.0713749" lon="-105.229789">
  <ele>1583.0</ele>
  <time>2026-08-28T17:51:40Z</time>
  <course>0.0</course>
  <speed>0.0</speed>
  <fix>3d</fix>
</trkpt>
<trkpt lat="40.0713749" lon="-105.229789">
  <ele>1583.0</ele>
  <time>2026-08-28T17:51:40Z</time>
  <course>246.7</course>
  <speed>0.0</speed>
  <fix>3d</fix>
</trkpt>
<trkpt lat="40.0713749" lon="-105.229789">
  <ele>1583.0</ele>
  <time>2026-08-28T17:51:40Z</time>
  <course>0.0</course>
  <speed>0.0</speed>
  <fix>3d</fix>
</trkpt>
<trkpt lat="40.0713749" lon="-105.229789">
  <ele>1583.0</ele>
  <time>2026-08-28T17:51:40Z</time>
  <course>246.78</course>
  <speed>0.0</speed>
  <fix>3d</fix>
</trkpt>
<trkpt lat="40.0713749" lon="-105.229789">
  <ele>1583.0</ele>
  <time>2026-08-28T17:51:40Z</time>
  <course>0.0</course>
  <speed>0.0</speed>
  <fix>3d</fix>
</trkpt>
<trkpt lat="40.0713749" lon="-105.229789">
  <ele>1583.0</ele>
  <time>2026-08-28T17:51:40Z</time>
  <course>246.87</course>
  <speed>0.0</speed>
  <fix>3d</fix>
</trkpt>
<trkpt lat="40.0713749" lon="-105.229789">
  <ele>1583.0</ele>
  <time>2026-08-28T17:51:40Z</time>
  <course>0.0</course>
  <speed>0.0</speed>
  <fix>3d</fix>
</trkpt>
<trkpt lat="40.0713749" lon="-105.229789">
  <ele>1583.0</ele>
  <time>2026-08-28T17:51:40Z</time>
  <course>246.95</course>
  <speed>0.0</speed>
  <fix>3d</fix>
</trkpt>
<trkpt lat="40.0713749" lon="-105.229789">
  <ele>1583.0</ele>
  <time>2026-08-28T17:51:40Z</time>
  <course>0.0</course>
  <speed>0.0</speed>
  <fix>3d</fix>
</trkpt>
<trkpt lat="40.0713749" lon="-105.229789">
  <ele>1583.0</ele>
  <time>2026-08-28T17:51:40Z</time>
  <course>247.02</course>
  <speed>0.0</speed>
  <fix>3d</fix>
</trkpt>
<trkpt lat="40.0713749" lon="-105.229789">
  <ele>1583.0</ele>
  <time>2026-08-28T17:51:40Z</time>
  <course>0.0</course>
  <speed>0.0</speed>
  <fix>3d</fix>
</trkpt>
<trkpt lat="40.0713749" lon="-105.229789">
  <ele>1583.0</ele>
  <time>2026-08-28T17:51:40Z</time>
  <course>247.1</course>
  <speed>0.0</speed>
  <fix>3d</fix>
</trkpt>
<trkpt lat="40.0713749" lon="-105.229789">
  <ele>1583.0</ele>
  <time>2026-08-28T17:51:40Z</time>
  <course>0.0</course>
  <speed>0.0</speed>
  <fix>3d</fix>
</trkpt>
<trkpt lat="40.0713749" lon="-105.229789">
  <ele>1583.0</ele>
  <time>2026-08-28T17:51:40Z</time>
  <course>247.17</course>
  <speed>0.0</speed>
  <fix>3d</fix>
</trkpt>
<trkpt lat="40.0713749" lon="-105.229789">
  <ele>1583.0</ele>
  <time>2026-08-28T17:51:40Z</time>
  <course>0.0</course>
  <speed>0.0</speed>
  <fix>3d</fix>
</trkpt>
<trkpt lat="40.0713749" lon="-105.229789">
  <ele>1583.0</ele>
  <time>2026-08-28T17:51:40Z</time>
  <course>247.24</course>
  <speed>0.0</speed>
  <fix>3d</fix>
</trkpt>
<trkpt lat="40.0713749" lon="-105.229789">
  <ele>1583.0</ele>
  <time>2026-08-28T17:51:40Z</time>
  <course>0.0</course>
  <speed>0.0</speed>
  <fix>3d</fix>
</trkpt>
<trkpt lat="40.0713749" lon="-105.229789">
  <ele>1583.0</ele>
  <time>2026-08-28T17:51:40Z</time>
  <course>247.3</course>
  <speed>0.0</speed>
  <fix>3d</fix>
</trkpt>
<trkpt lat="40.0713749" lon="-105.229789">
  <ele>1583.0</ele>
  <time>2026-08-28T17:51:40Z</time>
  <course>0.0</course>
  <speed>0.0</speed>
  <fix>3d</fix>
</trkpt>
<trkpt lat="40.0713749" lon="-105.229789">
  <ele>1583.0</ele>
  <time>2026-08-28T17:51:40Z</time>
  <course>247.36</course>
  <speed>0.0</speed>
  <fix>3d</fix>
</trkpt>
<trkpt lat="40.0713749" lon="-105.229789">
  <ele>1583.0</ele>
  <time>2026-08-28T17:51:40Z</time>
  <course>0.0</course>
  <speed>0.0</speed>
  <fix>3d</fix>
</trkpt>
<trkpt lat="40.0713749" lon="-105.229789">
  <ele>1583.0</ele>
  <time>2026-08-28T17:51:40Z</time>
  <course>247.42</course>
  <speed>0.0</speed>
  <fix>3d</fix>
</trkpt>
<trkpt lat="40.0713749" lon="-105.229789">
  <ele>1583.0</ele>
  <time>2026-08-28T17:51:40Z</time>
  <course>0.0</course>
  <speed>0.0</speed>
  <fix>3d</fix>
</trkpt>
<trkpt lat="40.0713749" lon="-105.229789">
  <ele>1583.0</ele>
  <time>2026-08-28T17:51:40Z</time>
  <course>247.47</course>
  <speed>0.0</speed>
  <fix>3d</fix>
</trkpt>
<trkpt lat="40.0713749" lon="-105.229789">
  <ele>1583.0</ele>
  <time>2026-08-28T17:51:40Z</time>
  <course>0.0</course>
  <speed>0.0</speed>
  <fix>3d</fix>
</trkpt>
<trkpt lat="40.0713749" lon="-105.229789">
  <ele>1583.0</ele>
  <time>2026-08-28T17:51:40Z</time>
  <course>247.53</course>
  <speed>0.0</speed>
  <fix>3d</fix>
</trkpt>
<trkpt lat="40.0713749" lon="-105.229789">
  <ele>1583.0</ele>
  <time>2026-08-28T17:51:40Z</time>
  <course>0.0</course>
  <speed>0.0</speed>
  <fix>3d</fix>
</trkpt>
<trkpt lat="40.0713749" lon="-105.229789">
  <ele>1583.0</ele>
  <time>2026-08-28T17:51:40Z</time>
  <course>247.58</course>
  <speed>0.0</speed>
  <fix>3d</fix>
</trkpt>
<trkpt lat="40.0713749" lon="-105.229789">
  <ele>1583.0</ele>
  <time>2026-08-28T17:51:40Z</time>
  <course>0.0</course>
  <speed>0.0</speed>
  <fix>3d</fix>
</trkpt>
<trkpt lat="40.0713749" lon="-105.229789">
  <ele>1583.0</ele>
  <time>2026-08-28T17:51:40Z</time>
  <course>247.63</course>
  <speed>0.0</speed>
  <fix>3d</fix>
</trkpt>
<trkpt lat="40.0713749" lon="-105.229789">
  <ele>1583.0</ele>
  <time>2026-08-28T17:51:40Z</time>
  <course>0.0</course>
  <speed>0.0</speed>
  <fix>3d</fix>
</trkpt>
<trkpt lat="40.0713749" lon="-105.229789">
  <ele>1583.0</ele>
  <time>2026-08-28T17:51:40Z</time>
  <course>247.67</course>
  <speed>0.0</speed>
  <fix>3d</fix>
</trkpt>
<trkpt lat="40.0713749" lon="-105.229789">
  <ele>1583.0</ele>
  <time>2026-08-28T17:51:40Z</time>
  <course>0.0</course>
  <speed>0.0</speed>
  <fix>3d</fix>
</trkpt>
<trkpt lat="40.0713749" lon="-105.229789">
  <ele>1583.0</ele>
  <time>2026-08-28T17:51:40Z</time>
  <course>247.72</course>
  <speed>0.0</speed>
  <fix>3d</fix>
</trkpt>
<trkpt lat="40.0713749" lon="-105.229789">
  <ele>1583.0</ele>
  <time>2026-08-28T17:51:40Z</time>
  <course>0.0</course>
  <speed>0.0</speed>
  <fix>3d</fix>
</trkpt>
<trkpt lat="40.0713749" lon="-105.229789">
  <ele>1583.0</ele>
  <time>2026-08-28T17:51:40Z</time>
  <course>247.76</course>
  <speed>0.0</speed>
  <fix>3d</fix>
</trkpt>
<trkpt lat="40.0713749" lon="-105.229789">
  <ele>1583.0</ele>
  <time>2026-08-28T17:51:40Z</time>
  <course>0.0</course>
  <speed>0.0</speed>
  <fix>3d</fix>
</trkpt>
<trkpt lat="40.0713749" lon="-105.229789">
  <ele>1583.0</ele>
  <time>2026-08-28T17:51:40Z</time>
  <course>247.8</course>
  <speed>0.0</speed>
  <fix>3d</fix>
</trkpt>
<trkpt lat="40.0713749" lon="-105.229789">
  <ele>1583.0</ele>
  <time>2026-08-28T17:51:40Z</time>
  <course>0.0</course>
  <speed>0.0</speed>
  <fix>3d</fix>
</trkpt>
<trkpt lat="40.0713749" lon="-105.229789">
  <ele>1583.0</ele>
  <time>2026-08-28T17:51:40Z</time>
  <course>247.83</course>
  <speed>0.0</speed>
  <fix>3d</fix>
</trkpt>
<trkpt lat="40.0713749" lon="-105.229789">
  <ele>1583.0</ele>
  <time>2026-08-28T17:51:40Z</time>
  <course>0.0</course>
  <speed>0.0</speed>
  <fix>3d</fix>
</trkpt>
<trkpt lat="40.0713749" lon="-105.229789">
  <ele>1583.0</ele>
  <time>2026-08-28T17:51:40Z</time>
  <course>247.87</course>
  <speed>0.0</speed>
  <fix>3d</fix>
</trkpt>
<trkpt lat="40.0713749" lon="-105.229789">
  <ele>1583.0</ele>
  <time>2026-08-28T17:51:40Z</time>
  <course>0.0</course>
  <speed>0.0</speed>
  <fix>3d</fix>
</trkpt>
<trkpt lat="40.0713749" lon="-105.229789">
  <ele>1583.0</ele>
  <time>2026-08-28T17:51:40Z</time>
  <course>247.9</course>
  <speed>0.0</speed>
  <fix>3d</fix>
</trkpt>
<trkpt lat="40.0713749" lon="-105.229789">
  <ele>1583.0</ele>
  <time>2026-08-28T17:51:40Z</time>
  <course>0.0</course>
  <speed>0.0</speed>
  <fix>3d</fix>
</trkpt>
<trkpt lat="40.0713749" lon="-105.229789">
  <ele>1583.0</ele>
  <time>2026-08-28T17:51:40Z</time>
  <course>247.94</course>
  <speed>0.0</speed>
  <fix>3d</fix>
</trkpt>
<trkpt lat="40.0713749" lon="-105.229789">
  <ele>1583.0</ele>
  <time>2026-08-28T17:51:40Z</time>
  <course>0.0</course>
  <speed>0.0</speed>
  <fix>3d</fix>
</trkpt>
<trkpt lat="40.0713749" lon="-105.229789">
  <ele>1583.0</ele>
  <time>2026-08-28T17:51:40Z</time>
  <course>247.97</course>
  <speed>0.0</speed>
  <fix>3d</fix>
</trkpt>
<trkpt lat="40.0713749" lon="-105.229789">
  <ele>1583.0</ele>
  <time>2026-08-28T17:51:40Z</time>
  <course>0.0</course>
  <speed>0.0</speed>
  <fix>3d</fix>
</trkpt>
<trkpt lat="40.0713749" lon="-105.229789">
  <ele>1583.0</ele>
  <time>2026-08-28T17:51:40Z</time>
  <course>248.0</course>
  <speed>0.0</speed>
  <fix>3d</fix>
</trkpt>
<trkpt lat="40.0713749" lon="-105.229789">
  <ele>1583.0</ele>
  <time>2026-08-28T17:51:40Z</time>
  <course>0.0</course>
  <speed>0.0</speed>
  <fix>3d</fix>
</trkpt>
<trkpt lat="40.0713749" lon="-105.229789">
  <ele>1583.0</ele>
  <time>2026-08-28T17:51:40Z</time>
  <course>248.02</course>
  <speed>0.0</speed>
  <fix>3d</fix>
</trkpt>
<trkpt lat="40.0713749" lon="-105.229789">
  <ele>1583.0</ele>
  <time>2026-08-28T17:51:40Z</time>
  <course>0.0</course>
  <speed>0.0</speed>
  <fix>3d</fix>
</trkpt>
<trkpt lat="40.0713749" lon="-105.229789">
  <ele>1583.0</ele>
  <time>2026-08-28T17:51:40Z</time>
  <course>248.05</course>
  <speed>0.0</speed>
  <fix>3d</fix>
</trkpt>
<trkpt lat="40.0713749" lon="-105.229789">
  <ele>1583.0</ele>
  <time>2026-08-28T17:51:40Z</time>
  <course>0.0</course>
  <speed>0.0</speed>
  <fix>3d</fix>
</trkpt>
<trkpt lat="40.0713749" lon="-105.229789">
  <ele>1583.0</ele>
  <time>2026-08-28T17:51:40Z</time>
  <course>248.08</course>
  <speed>0.0</speed>
  <fix>3d</fix>
</trkpt>
<trkpt lat="40.0713749" lon="-105.229789">
  <ele>1583.0</ele>
  <time>2026-08-28T17:51:40Z</time>
  <course>0.0</course>
  <speed>0.0</speed>
  <fix>3d</fix>
</trkpt>
<trkpt lat="40.0713749" lon="-105.229789">
  <ele>1583.0</ele>
  <time>2026-08-28T17:51:40Z</time>
  <course>248.1</course>
  <speed>0.0</speed>
  <fix>3d</fix>
</trkpt>
<trkpt lat="40.0713749" lon="-105.229789">
  <ele>1583.0</ele>
  <time>2026-08-28T17:51:40Z</time>
  <course>0.0</course>
  <speed>0.0</speed>
  <fix>3d</fix>
</trkpt>
<trkpt lat="40.0713749" lon="-105.229789">
  <ele>1583.0</ele>
  <time>2026-08-28T17:51:40Z</time>
  <course>248.12</course>
  <speed>0.0</speed>
  <fix>3d</fix>
</trkpt>
<trkpt lat="40.0713749" lon="-105.229789">
  <ele>1583.0</ele>
  <time>2026-08-28T17:51:40Z</time>
  <course>0.0</course>
  <speed>0.0</speed>
  <fix>3d</fix>
</trkpt>
<trkpt lat="40.0713749" lon="-105.229789">
  <ele>1583.0</ele>
  <time>2026-08-28T17:51:40Z</time>
  <course>248.14</course>
  <speed>0.0</speed>
  <fix>3d</fix>
</trkpt>
<trkpt lat="40.0713749" lon="-105.229789">
  <ele>1583.0</ele>
  <time>2026-08-28T17:51:40Z</time>
  <course>0.0</course>
  <speed>0.0</speed>
  <fix>3d</fix>
</trkpt>
<trkpt lat="40.0713749" lon="-105.229789">
  <ele>1583.0</ele>
  <time>2026-08-28T17:51:40Z</time>
  <course>248.16</course>
  <speed>0.0</speed>
  <fix>3d</fix>
</trkpt>
<trkpt lat="40.0713749" lon="-105.229789">
  <ele>1583.0</ele>
  <time>2026-08-28T17:51:40Z</time>
  <course>0.0</course>
  <speed>0.0</speed>
  <fix>3d</fix>
</trkpt>
<trkpt lat="40.0713749" lon="-105.229789">
  <ele>1583.0</ele>
  <time>2026-08-28T17:51:40Z</time>
  <course>248.18</course>
  <speed>0.0</speed>
  <fix>3d</fix>
</trkpt>
<trkpt lat="40.0713749" lon="-105.229789">
  <ele>1583.0</ele>
  <time>2026-08-28T17:51:40Z</time>
  <course>0.0</course>
  <speed>0.0</speed>
  <fix>3d</fix>
</trkpt>
<trkpt lat="40.0713749" lon="-105.229789">
  <ele>1583.0</ele>
  <time>2026-08-28T17:51:40Z</time>
  <course>248.2</course>
  <speed>0.0</speed>
  <fix>3d</fix>
</trkpt>
<trkpt lat="40.0713749" lon="-105.229789">
  <ele>1583.0</ele>
  <time>2026-08-28T17:51:40Z</time>
  <course>0.0</course>
  <speed>0.0</speed>
  <fix>3d</fix>
</trkpt>
<trkpt lat="40.0713749" lon="-105.229789">
  <ele>1583.0</ele>
  <time>2026-08-28T17:51:40Z</time>
  <course>248.22</course>
  <speed>0.0</speed>
  <fix>3d</fix>
</trkpt>
<trkpt lat="40.0713749" lon="-105.229789">
  <ele>1583.0</ele>
  <time>2026-08-28T17:51:40Z</time>
  <course>0.0</course>
  <speed>0.0</speed>
  <fix>3d</fix>
</trkpt>
<trkpt lat="40.0713749" lon="-105.229789">
  <ele>1583.0</ele>
  <time>2026-08-28T17:51:40Z</time>
  <course>248.23</course>
  <speed>0.0</speed>
  <fix>3d</fix>
</trkpt>
<trkpt lat="40.0713749" lon="-105.229789">
  <ele>1583.0</ele>
  <time>2026-08-28T17:51:40Z</time>
  <course>0.0</course>
  <speed>0.0</speed>
  <fix>3d</fix>
</trkpt>
<trkpt lat="40.0713749" lon="-105.229789">
  <ele>1583.0</ele>
  <time>2026-08-28T17:51:40Z</time>
  <course>248.25</course>
  <speed>0.0</speed>
  <fix>3d</fix>
</trkpt>
<trkpt lat="40.0713749" lon="-105.229789">
  <ele>1583.0</ele>
  <time>2026-08-28T17:51:40Z</time>
  <course>0.0</course>
  <speed>0.0</speed>
  <fix>3d</fix>
</trkpt>
<trkpt lat="40.0713749" lon="-105.229789">
  <ele>1583.0</ele>
  <time>2026-08-28T17:51:40Z</time>
  <course>248.26</course>
  <speed>0.0</speed>
  <fix>3d</fix>
</trkpt>
<trkpt lat="40.0713749" lon="-105.229789">
  <ele>1583.0</ele>
  <time>2026-08-28T17:51:40Z</time>
  <course>0.0</course>
  <speed>0.0</speed>
  <fix>3d</fix>
</trkpt>
<trkpt lat="40.0713749" lon="-105.229789">
  <ele>1583.0</ele>
  <time>2026-08-28T17:51:40Z</time>
  <course>248.28</course>
  <speed>0.0</speed>
  <fix>3d</fix>
</trkpt>
<trkpt lat="40.0713749" lon="-105.229789">
  <ele>1583.0</ele>
  <time>2026-08-28T17:51:40Z</time>
  <course>0.0</course>
  <speed>0.0</speed>
  <fix>3d</fix>
</trkpt>
<trkpt lat="40.0713749" lon="-105.229789">
  <ele>1583.0</ele>
  <time>2026-08-28T17:51:40Z</time>
  <course>248.29</course>
  <speed>0.0</speed>
  <fix>3d</fix>
</trkpt>
<trkpt lat="40.0713749" lon="-105.229789">
  <ele>1583.0</ele>
  <time>2026-08-28T17:51:40Z</time>
  <course>0.0</course>
  <speed>0.0</speed>
  <fix>3d</fix>
</trkpt>
<trkpt lat="40.0713749" lon="-105.229789">
  <ele>1583.0</ele>
  <time>2026-08-28T17:51:40Z</time>
  <course>248.3</course>
  <speed>0.0</speed>
  <fix>3d</fix>
</trkpt>
<trkpt lat="40.0713749" lon="-105.229789">
  <ele>1583.0</ele>
  <time>2026-08-28T17:51:40Z</time>
  <course>0.0</course>
  <speed>0.0</speed>
  <fix>3d</fix>
</trkpt>
<trkpt lat="40.0713749" lon="-105.229789">
  <ele>1583.0</ele>
  <time>2026-08-28T17:51:40Z</time>
  <course>248.31</course>
  <speed>0.0</speed>
  <fix>3d</fix>
</trkpt>
<trkpt lat="40.0713749" lon="-105.229789">
  <ele>1583.0</ele>
  <time>2026-08-28T17:51:40Z</time>
  <course>0.0</course>
  <speed>0.0</speed>
  <fix>3d</fix>
</trkpt>
<trkpt lat="40.0713749" lon="-105.229789">
  <ele>1583.0</ele>
  <time>2026-08-28T17:51:40Z</time>
  <course>248.32</course>
  <speed>0.0</speed>
  <fix>3d</fix>
</trkpt>
<trkpt lat="40.0713749" lon="-105.229789">
  <ele>1583.0</ele>
  <time>2026-08-28T17:51:40Z</time>
  <course>0.0</course>
  <speed>0.0</speed>
  <fix>3d</fix>
</trkpt>
<trkpt lat="40.0713749" lon="-105.229789">
  <ele>1583.0</ele>
  <time>2026-08-28T17:51:40Z</time>
  <course>248.33</course>
  <speed>0.0</speed>
  <fix>3d</fix>
</trkpt>
<trkpt lat="40.0713749" lon="-105.229789">
  <ele>1583.0</ele>
  <time>2026-08-28T17:51:40Z</time>
  <course>0.0</course>
  <speed>0.0</speed>
  <fix>3d</fix>
</trkpt>
<trkpt lat="40.0713749" lon="-105.229789">
  <ele>1583.0</ele>
  <time>2026-08-28T17:51:40Z</time>
  <course>248.34</course>
  <speed>0.0</speed>
  <fix>3d</fix>
</trkpt>
<trkpt lat="40.0713749" lon="-105.229789">
  <ele>1583.0</ele>
  <time>2026-08-28T17:51:40Z</time>
  <course>0.0</course>
  <speed>0.0</speed>
  <fix>3d</fix>
</trkpt>
<trkpt lat="40.0713749" lon="-105.229789">
  <ele>1583.0</ele>
  <time>2026-08-28T17:51:40Z</time>
  <course>248.35</course>
  <speed>0.0</speed>
  <fix>3d</fix>
</trkpt>
<trkpt lat="40.0713749" lon="-105.229789">
  <ele>1583.0</ele>
  <time>2026-08-28T17:51:40Z</time>
  <course>0.0</course>
  <speed>0.0</speed>
  <fix>3d</fix>
</trkpt>
<trkpt lat="40.0713749" lon="-105.229789">
  <ele>1583.0</ele>
  <time>2026-08-28T17:51:40Z</time>
  <course>248.35</course>
  <speed>0.0</speed>
  <fix>3d</fix>
</trkpt>
<trkpt lat="40.0713749" lon="-105.229789">
  <ele>1583.0</ele>
  <time>2026-08-28T17:51:40Z</time>
  <course>0.0</course>
  <speed>0.0</speed>
  <fix>3d</fix>
</trkpt>
<trkpt lat="40.0713749" lon="-105.229789">
  <ele>1583.0</ele>
  <time>2026-08-28T17:51:40Z</time>
  <course>248.36</course>
  <speed>0.0</speed>
  <fix>3d</fix>
</trkpt>
<trkpt lat="40.0713749" lon="-105.229789">
  <ele>1583.0</ele>
  <time>2026-08-28T17:51:40Z</time>
  <course>0.0</course>
  <speed>0.0</speed>
  <fix>3d</fix>
</trkpt>
<trkpt lat="40.0713749" lon="-105.229789">
  <ele>1583.0</ele>
  <time>2026-08-28T17:51:40Z</time>
  <course>248.37</course>
  <speed>0.0</speed>
  <fix>3d</fix>
</trkpt>
<trkpt lat="40.0713749" lon="-105.229789">
  <ele>1583.0</ele>
  <time>2026-08-28T17:51:40Z</time>
  <course>0.0</course>
  <speed>0.0</speed>
  <fix>3d</fix>
</trkpt>
<trkpt lat="40.0713749" lon="-105.229789">
  <ele>1583.0</ele>
  <time>2026-08-28T17:51:40Z</time>
  <course>248.37</course>
  <speed>0.0</speed>
  <fix>3d</fix>
</trkpt>
<trkpt lat="40.0713749" lon="-105.229789">
  <ele>1583.0</ele>
  <time>2026-08-28T17:51:40Z</time>
  <course>0.0</course>
  <speed>0.0</speed>
  <fix>3d</fix>
</trkpt>
<trkpt lat="40.0713749" lon="-105.229789">
  <ele>1583.0</ele>
  <time>2026-08-28T17:51:40Z</time>
  <course>248.38</course>
  <speed>0.0</speed>
  <fix>3d</fix>
</trkpt>
<trkpt lat="40.0713749" lon="-105.229789">
  <ele>1583.0</ele>
  <time>2026-08-28T17:51:40Z</time>
  <course>0.0</course>
  <speed>0.0</speed>
  <fix>3d</fix>
</trkpt>
<trkpt lat="40.0713749" lon="-105.229789">
  <ele>1583.0</ele>
  <time>2026-08-28T17:51:40Z</time>
  <course>248.38</course>
  <speed>0.0</speed>
  <fix>3d</fix>
</trkpt>
<trkpt lat="40.0713749" lon="-105.229789">
  <ele>1583.0</ele>
  <time>2026-08-28T17:51:40Z</time>
  <course>0.0</course>
  <speed>0.0</speed>
  <fix>3d</fix>
</trkpt>
<trkpt lat="40.0713749" lon="-105.229789">
  <ele>1583.0</ele>
  <time>2026-08-28T17:51:40Z</time>
  <course>248.39</course>
  <speed>0.0</speed>
  <fix>3d</fix>
</trkpt>
<trkpt lat="40.0713749" lon="-105.229789">
  <ele>1583.0</ele>
  <time>2026-08-28T17:51:40Z</time>
  <course>0.0</course>
  <speed>0.0</speed>
  <fix>3d</fix>
</trkpt>
<trkpt lat="40.0713749" lon="-105.229789">
  <ele>1583.0</ele>
  <time>2026-08-28T17:51:40Z</time>
  <course>248.39</course>
  <speed>0.0</speed>
  <fix>3d</fix>
</trkpt>
<trkpt lat="40.0713749" lon="-105.229789">
  <ele>1583.0</ele>
  <time>2026-08-28T17:51:40Z</time>
  <course>0.0</course>
  <speed>0.0</speed>
  <fix>3d</fix>
</trkpt>
<trkpt lat="40.0713749" lon="-105.229789">
  <ele>1583.0</ele>
  <time>2026-08-28T17:51:40Z</time>
  <course>248.4</course>
  <speed>0.0</speed>
  <fix>3d</fix>
</trkpt>
<trkpt lat="40.0713749" lon="-105.229789">
  <ele>1583.0</ele>
  <time>2026-08-28T17:51:40Z</time>
  <course>0.0</course>
  <speed>0.0</speed>
  <fix>3d</fix>
</trkpt>
<trkpt lat="40.0713749" lon="-105.229789">
  <ele>1583.0</ele>
  <time>2026-08-28T17:51:40Z</time>
  <course>248.4</course>
  <speed>0.0</speed>
  <fix>3d</fix>
</trkpt>
<trkpt lat="40.0713749" lon="-105.229789">
  <ele>1583.0</ele>
  <time>2026-08-28T17:51:40Z</time>
  <course>0.0</course>
  <speed>0.0</speed>
  <fix>3d</fix>
</trkpt>
<trkpt lat="40.0713749" lon="-105.229789">
  <ele>1583.0</ele>
  <time>2026-08-28T17:51:40Z</time>
  <course>248.4</course>
  <speed>0.0</speed>
  <fix>3d</fix>
</trkpt>
<trkpt lat="40.0713749" lon="-105.229789">
  <ele>1583.0</ele>
  <time>2026-08-28T17:51:40Z</time>
  <course>0.0</course>
  <speed>0.0</speed>
  <fix>3d</fix>
</trkpt>
<trkpt lat="40.0713749" lon="-105.229789">
  <ele>1583.0</ele>
  <time>2026-08-28T17:51:40Z</time>
  <course>248.4</course>
  <speed>0.0</speed>
  <fix>3d</fix>
</trkpt>
<trkpt lat="40.0713749" lon="-105.229789">
  <ele>1583.0</ele>
  <time>2026-08-28T17:51:40Z</time>
  <course>0.0</course>
  <speed>0.0</speed>
  <fix>3d</fix>
</trkpt>
<trkpt lat="40.0713749" lon="-105.229789">
  <ele>1583.0</ele>
  <time>2026-08-28T17:51:40Z</time>
  <course>248.41</course>
  <speed>0.0</speed>
  <fix>3d</fix>
</trkpt>
<trkpt lat="40.0713749" lon="-105.229789">
  <ele>1583.0</ele>
  <time>2026-08-28T17:51:40Z</time>
  <course>0.0</course>
  <speed>0.0</speed>
  <fix>3d</fix>
</trkpt>
<trkpt lat="40.0713749" lon="-105.229789">
  <ele>1583.0</ele>
  <time>2026-08-28T17:51:40Z</time>
  <course>248.41</course>
  <speed>0.0</speed>
  <fix>3d</fix>
</trkpt>
<trkpt lat="40.0713749" lon="-105.229789">
  <ele>1583.0</ele>
  <time>2026-08-28T17:51:40Z</time>
  <course>0.0</course>
  <speed>0.0</speed>
  <fix>3d</fix>
</trkpt>
<trkpt lat="40.0713749" lon="-105.229789">
  <ele>1583.0</ele>
  <time>2026-08-28T17:51:40Z</time>
  <course>248.41</course>
  <speed>0.0</speed>
  <fix>3d</fix>
</trkpt>
<trkpt lat="40.0713749" lon="-105.229789">
  <ele>1583.0</ele>
  <time>2026-08-28T17:51:40Z</time>
  <course>0.0</course>
  <speed>0.0</speed>
  <fix>3d</fix>
</trkpt>
<trkpt lat="40.0713749" lon="-105.229789">
  <ele>1583.0</ele>
  <time>2026-08-28T17:51:40Z</time>
  <course>248.41</course>
  <speed>0.0</speed>
  <fix>3d</fix>
</trkpt>
<trkpt lat="40.0713749" lon="-105.229789">
  <ele>1583.0</ele>
  <time>2026-08-28T17:51:40Z</time>
  <course>0.0</course>
  <speed>0.0</speed>
  <fix>3d</fix>
</trkpt>
<trkpt lat="40.0713749" lon="-105.229789">
  <ele>1583.0</ele>
  <time>2026-08-28T17:51:40Z</time>
  <course>248.41</course>
  <speed>0.0</speed>
  <fix>3d</fix>
</trkpt>
<trkpt lat="40.0713749" lon="-105.229789">
  <ele>1583.0</ele>
  <time>2026-08-28T17:51:40Z</time>
  <course>0.0</course>
  <speed>0.0</speed>
  <fix>3d</fix>
</trkpt>
<trkpt lat="40.0713749" lon="-105.229789">
  <ele>1583.0</ele>
  <time>2026-08-28T17:51:40Z</time>
  <course>248.41</course>
  <speed>0.0</speed>
  <fix>3d</fix>
</trkpt>
<trkpt lat="40.0713749" lon="-105.229789">
  <ele>1583.0</ele>
  <time>2026-08-28T17:51:40Z</time>
  <course>0.0</course>
  <speed>0.0</speed>
  <fix>3d</fix>
</trkpt>
<trkpt lat="40.0713749" lon="-105.229789">
  <ele>1583.0</ele>
  <time>2026-08-28T17:51:40Z</time>
  <course>248.41</course>
  <speed>0.0</speed>
  <fix>3d</fix>
</trkpt>
<trkpt lat="40.0713749" lon="-105.229789">
  <ele>1583.0</ele>
  <time>2026-08-28T17:51:40Z</time>
  <course>0.0</course>
  <speed>0.0</speed>
  <fix>3d</fix>
</trkpt>
<trkpt lat="40.0713749" lon="-105.229789">
  <ele>1583.0</ele>
  <time>2026-08-28T17:51:40Z</time>
  <course>248.41</course>
  <speed>0.0</speed>
  <fix>3d</fix>
</trkpt>
<trkpt lat="40.0713749" lon="-105.229789">
  <ele>1583.0</ele>
  <time>2026-08-28T17:51:40Z</time>
  <course>0.0</course>
  <speed>0.0</speed>
  <fix>3d</fix>
</trkpt>
<trkpt lat="40.0713749" lon="-105.229789">
  <ele>1583.0</ele>
  <time>2026-08-28T17:51:40Z</time>
  <course>248.41</course>
  <speed>0.0</speed>
  <fix>3d</fix>
</trkpt>
<trkpt lat="40.0713749" lon="-105.229789">
  <ele>1583.0</ele>
  <time>2026-08-28T17:51:40Z</time>
  <course>0.0</course>
  <speed>0.0</speed>
  <fix>3d</fix>
</trkpt>
<trkpt lat="40.0713749" lon="-105.229789">
  <ele>1583.0</ele>
  <time>2026-08-28T17:51:40Z</time>
  <course>248.41</course>
  <speed>0.0</speed>
  <fix>3d</fix>
</trkpt>
<trkpt lat="40.0713749" lon="-105.229789">
  <ele>1583.0</ele>
  <time>2026-08-28T17:51:40Z</time>
  <course>0.0</course>
  <speed>0.0</speed>
  <fix>3d</fix>
</trkpt>
<trkpt lat="40.0713749" lon="-105.229789">
  <ele>1583.0</ele>
  <time>2026-08-28T17:51:40Z</time>
  <course>248.41</course>
  <speed>0.0</speed>
  <fix>3d</fix>
</trkpt>
<trkpt lat="40.0713749" lon="-105.229789">
  <ele>1583.0</ele>
  <time>2026-08-28T17:51:40Z</time>
  <course>0.0</course>
  <speed>0.0</speed>
  <fix>3d</fix>
</trkpt>
<trkpt lat="40.0713749" lon="-105.229789">
  <ele>1583.0</ele>
  <time>2026-08-28T17:51:40Z</time>
  <course>248.41</course>
  <speed>0.0</speed>
  <fix>3d</fix>
</trkpt>
<trkpt lat="40.0713749" lon="-105.229789">
  <ele>1583.0</ele>
  <time>2026-08-28T17:51:40Z</time>
  <course>0.0</course>
  <speed>0.0</speed>
  <fix>3d</fix>
</trkpt>
<trkpt lat="40.0713749" lon="-105.229789">
  <ele>1583.0</ele>
  <time>2026-08-28T17:51:40Z</time>
  <course>248.41</course>
  <speed>0.0</speed>
  <fix>3d</fix>
</trkpt>
<trkpt lat="40.0713749" lon="-105.229789">
  <ele>1583.0</ele>
  <time>2026-08-28T17:51:40Z</time>
  <course>0.0</course>
  <speed>0.0</speed>
  <fix>3d</fix>
</trkpt>
<trkpt lat="40.0713749" lon="-105.229789">
  <ele>1583.0</ele>
  <time>2026-08-28T17:51:40Z</time>
  <course>248.41</course>
  <speed>0.0</speed>
  <fix>3d</fix>
</trkpt>
<trkpt lat="40.0713749" lon="-105.229789">
  <ele>1583.0</ele>
  <time>2026-08-28T17:51:40Z</time>
  <course>0.0</course>
  <speed>0.0</speed>
  <fix>3d</fix>
</trkpt>
<trkpt lat="40.0713749" lon="-105.229789">
  <ele>1583.0</ele>
  <time>2026-08-28T17:51:40Z</time>
  <course>248.41</course>
  <speed>0.0</speed>
  <fix>3d</fix>
</trkpt>
<trkpt lat="40.0713749" lon="-105.229789">
  <ele>1583.0</ele>
  <time>2026-08-28T17:51:40Z</time>
  <course>0.0</course>
  <speed>0.0</speed>
  <fix>3d</fix>
</trkpt>
<trkpt lat="40.0713749" lon="-105.229789">
  <ele>1583.0</ele>
  <time>2026-08-28T17:51:40Z</time>
  <course>248.41</course>
  <speed>0.0</speed>
  <fix>3d</fix>
</trkpt>
<trkpt lat="40.0713749" lon="-105.229789">
  <ele>1583.0</ele>
  <time>2026-08-28T17:51:40Z</time>
  <course>0.0</course>
  <speed>0.0</speed>
  <fix>3d</fix>
</trkpt>
<trkpt lat="40.0713749" lon="-105.229789">
  <ele>1583.0</ele>
  <time>2026-08-28T17:51:41Z</time>
  <course>248.4</course>
  <speed>0.0</speed>
  <fix>3d</fix>
</trkpt>
<trkpt lat="40.0713749" lon="-105.229789">
  <ele>1583.0</ele>
  <time>2026-08-28T17:51:41Z</time>
  <course>0.0</course>
  <speed>0.0</speed>
  <fix>3d</fix>
</trkpt>
<trkpt lat="40.0713749" lon="-105.229789">
  <ele>1583.0</ele>
  <time>2026-08-28T17:51:41Z</time>
  <course>248.4</course>
  <speed>0.01</speed>
  <fix>3d</fix>
</trkpt>
<trkpt lat="40.0713749" lon="-105.229789">
  <ele>1583.0</ele>
  <time>2026-08-28T17:51:41Z</time>
  <course>0.0</course>
  <speed>0.0</speed>
  <fix>3d</fix>
</trkpt>
<trkpt lat="40.0713749" lon="-105.229789">
  <ele>1583.0</ele>
  <time>2026-08-28T17:51:41Z</time>
  <course>248.4</course>
  <speed>0.01</speed>
  <fix>3d</fix>
</trkpt>
<trkpt lat="40.0713749" lon="-105.229789">
  <ele>1583.0</ele>
  <time>2026-08-28T17:51:41Z</time>
  <course>0.0</course>
  <speed>0.0</speed>
  <fix>3d</fix>
</trkpt>
<trkpt lat="40.0713749" lon="-105.229789">
  <ele>1583.0</ele>
  <time>2026-08-28T17:51:41Z</time>
  <course>248.4</course>
  <speed>0.01</speed>
  <fix>3d</fix>
</trkpt>
<trkpt lat="40.0713749" lon="-105.229789">
  <ele>1583.0</ele>
  <time>2026-08-28T17:51:41Z</time>
  <course>0.0</course>
  <speed>0.0</speed>
  <fix>3d</fix>
</trkpt>
<trkpt lat="40.0713749" lon="-105.229789">
  <ele>1583.0</ele>
  <time>2026-08-28T17:51:41Z</time>
  <course>248.4</course>
  <speed>0.01</speed>
  <fix>3d</fix>
</trkpt>
<trkpt lat="40.0713749" lon="-105.229789">
  <ele>1583.0</ele>
  <time>2026-08-28T17:51:41Z</time>
  <course>0.0</course>
  <speed>0.0</speed>
  <fix>3d</fix>
</trkpt>
<trkpt lat="40.0713749" lon="-105.229789">
  <ele>1583.0</ele>
  <time>2026-08-28T17:51:41Z</time>
  <course>248.39</course>
  <speed>0.01</speed>
  <fix>3d</fix>
</trkpt>
<trkpt lat="40.0713749" lon="-105.229789">
  <ele>1583.0</ele>
  <time>2026-08-28T17:51:41Z</time>
  <course>0.0</course>
  <speed>0.0</speed>
  <fix>3d</fix>
</trkpt>
<trkpt lat="40.0713749" lon="-105.229789">
  <ele>1583.0</ele>
  <time>2026-08-28T17:51:41Z</time>
  <course>248.39</course>
  <speed>0.01</speed>
  <fix>3d</fix>
</trkpt>
<trkpt lat="40.0713749" lon="-105.229789">
  <ele>1583.0</ele>
  <time>2026-08-28T17:51:41Z</time>
  <course>0.0</course>
  <speed>0.0</speed>
  <fix>3d</fix>
</trkpt>
<trkpt lat="40.0713749" lon="-105.229789">
  <ele>1583.0</ele>
  <time>2026-08-28T17:51:41Z</time>
  <course>248.39</course>
  <speed>0.01</speed>
  <fix>3d</fix>
</trkpt>
<trkpt lat="40.0713749" lon="-105.229789">
  <ele>1583.0</ele>
  <time>2026-08-28T17:51:41Z</time>
  <course>0.0</course>
  <speed>0.0</speed>
  <fix>3d</fix>
</trkpt>
<trkpt lat="40.0713749" lon="-105.229789">
  <ele>1583.0</ele>
  <time>2026-08-28T17:51:41Z</time>
  <course>248.38</course>
  <speed>0.01</speed>
  <fix>3d</fix>
</trkpt>
<trkpt lat="40.0713749" lon="-105.229789">
  <ele>1583.0</ele>
  <time>2026-08-28T17:51:41Z</time>
  <course>0.0</course>
  <speed>0.0</speed>
  <fix>3d</fix>
</trkpt>
<trkpt lat="40.0713749" lon="-105.229789">
  <ele>1583.0</ele>
  <time>2026-08-28T17:51:41Z</time>
  <course>248.38</course>
  <speed>0.01</speed>
  <fix>3d</fix>
</trkpt>
<trkpt lat="40.0713749" lon="-105.229789">
  <ele>1583.0</ele>
  <time>2026-08-28T17:51:41Z</time>
  <course>0.0</course>
  <speed>0.0</speed>
  <fix>3d</fix>
</trkpt>
<trkpt lat="40.0713749" lon="-105.229789">
  <ele>1583.0</ele>
  <time>2026-08-28T17:51:41Z</time>
  <course>248.38</course>
  <speed>0.01</speed>
  <fix>3d</fix>
</trkpt>
<trkpt lat="40.0713749" lon="-105.229789">
  <ele>1583.0</ele>
  <time>2026-08-28T17:51:41Z</time>
  <course>0.0</course>
  <speed>0.0</speed>
  <fix>3d</fix>
</trkpt>
<trkpt lat="40.0713749" lon="-105.229789">
  <ele>1583.0</ele>
  <time>2026-08-28T17:51:41Z</time>
  <course>248.37</course>
  <speed>0.01</speed>
  <fix>3d</fix>
</trkpt>
<trkpt lat="40.0713749" lon="-105.229789">
  <ele>1583.0</ele>
  <time>2026-08-28T17:51:41Z</time>
  <course>0.0</course>
  <speed>0.0</speed>
  <fix>3d</fix>
</trkpt>
<trkpt lat="40.0713749" lon="-105.229789">
  <ele>1583.0</ele>
  <time>2026-08-28T17:51:41Z</time>
  <course>248.37</course>
  <speed>0.01</speed>
  <fix>3d</fix>
</trkpt>
<trkpt lat="40.0713749" lon="-105.229789">
  <ele>1583.0</ele>
  <time>2026-08-28T17:51:41Z</time>
  <course>0.0</course>
  <speed>0.0</speed>
  <fix>3d</fix>
</trkpt>
<trkpt lat="40.0713749" lon="-105.229789">
  <ele>1583.0</ele>
  <time>2026-08-28T17:51:41Z</time>
  <course>248.37</course>
  <speed>0.01</speed>
  <fix>3d</fix>
</trkpt>
<trkpt lat="40.0713749" lon="-105.229789">
  <ele>1583.0</ele>
  <time>2026-08-28T17:51:41Z</time>
  <course>0.0</course>
  <speed>0.0</speed>
  <fix>3d</fix>
</trkpt>
<trkpt lat="40.0713749" lon="-105.229789">
  <ele>1583.0</ele>
  <time>2026-08-28T17:51:41Z</time>
  <course>248.36</course>
  <speed>0.01</speed>
  <fix>3d</fix>
</trkpt>
<trkpt lat="40.0713749" lon="-105.229789">
  <ele>1583.0</ele>
  <time>2026-08-28T17:51:41Z</time>
  <course>0.0</course>
  <speed>0.0</speed>
  <fix>3d</fix>
</trkpt>
<trkpt lat="40.0713749" lon="-105.229789">
  <ele>1583.0</ele>
  <time>2026-08-28T17:51:41Z</time>
  <course>248.36</course>
  <speed>0.01</speed>
  <fix>3d</fix>
</trkpt>
<trkpt lat="40.0713749" lon="-105.229789">
  <ele>1583.0</ele>
  <time>2026-08-28T17:51:41Z</time>
  <course>0.0</course>
  <speed>0.0</speed>
  <fix>3d</fix>
</trkpt>
<trkpt lat="40.0713749" lon="-105.229789">
  <ele>1583.0</ele>
  <time>2026-08-28T17:51:41Z</time>
  <course>248.36</course>
  <speed>0.01</speed>
  <fix>3d</fix>
</trkpt>
<trkpt lat="40.0713749" lon="-105.229789">
  <ele>1583.0</ele>
  <time>2026-08-28T17:51:41Z</time>
  <course>0.0</course>
  <speed>0.0</speed>
  <fix>3d</fix>
</trkpt>
<trkpt lat="40.0713749" lon="-105.229789">
  <ele>1583.0</ele>
  <time>2026-08-28T17:51:41Z</time>
  <course>248.35</course>
  <speed>0.01</speed>
  <fix>3d</fix>
</trkpt>
<trkpt lat="40.0713749" lon="-105.229789">
  <ele>1583.0</ele>
  <time>2026-08-28T17:51:41Z</time>
  <course>0.0</course>
  <speed>0.0</speed>
  <fix>3d</fix>
</trkpt>
<trkpt lat="40.0713749" lon="-105.229789">
  <ele>1583.0</ele>
  <time>2026-08-28T17:51:41Z</time>
  <course>248.35</course>
  <speed>0.01</speed>
  <fix>3d</fix>
</trkpt>
<trkpt lat="40.0713749" lon="-105.229789">
  <ele>1583.0</ele>
  <time>2026-08-28T17:51:41Z</time>
  <course>0.0</course>
  <speed>0.0</speed>
  <fix>3d</fix>
</trkpt>
<trkpt lat="40.0713749" lon="-105.229789">
  <ele>1583.0</ele>
  <time>2026-08-28T17:51:41Z</time>
  <course>248.35</course>
  <speed>0.01</speed>
  <fix>3d</fix>
</trkpt>
<trkpt lat="40.0713749" lon="-105.229789">
  <ele>1583.0</ele>
  <time>2026-08-28T17:51:41Z</time>
  <course>0.0</course>
  <speed>0.0</speed>
  <fix>3d</fix>
</trkpt>
<trkpt lat="40.0713749" lon="-105.229789">
  <ele>1583.0</ele>
  <time>2026-08-28T17:51:41Z</time>
  <course>248.34</course>
  <speed>0.01</speed>
  <fix>3d</fix>
</trkpt>
<trkpt lat="40.0713749" lon="-105.229789">
  <ele>1583.0</ele>
  <time>2026-08-28T17:51:41Z</time>
  <course>0.0</course>
  <speed>0.0</speed>
  <fix>3d</fix>
</trkpt>
<trkpt lat="40.0713749" lon="-105.229789">
  <ele>1583.0</ele>
  <time>2026-08-28T17:51:41Z</time>
  <course>248.34</course>
  <speed>0.01</speed>
  <fix>3d</fix>
</trkpt>
<trkpt lat="40.0713749" lon="-105.229789">
  <ele>1583.0</ele>
  <time>2026-08-28T17:51:41Z</time>
  <course>0.0</course>
  <speed>0.0</speed>
  <fix>3d</fix>
</trkpt>
<trkpt lat="40.0713749" lon="-105.229789">
  <ele>1583.0</ele>
  <time>2026-08-28T17:51:41Z</time>
  <course>248.33</course>
  <speed>0.01</speed>
  <fix>3d</fix>
</trkpt>
<trkpt lat="40.0713749" lon="-105.229789">
  <ele>1583.0</ele>
  <time>2026-08-28T17:51:41Z</time>
  <course>0.0</course>
  <speed>0.0</speed>
  <fix>3d</fix>
</trkpt>
<trkpt lat="40.0713749" lon="-105.229789">
  <ele>1583.0</ele>
  <time>2026-08-28T17:51:41Z</time>
  <course>248.33</course>
  <speed>0.01</speed>
  <fix>3d</fix>
</trkpt>
<trkpt lat="40.0713749" lon="-105.229789">
  <ele>1583.0</ele>
  <time>2026-08-28T17:51:41Z</time>
  <course>0.0</course>
  <speed>0.0</speed>
  <fix>3d</fix>
</trkpt>
<trkpt lat="40.0713749" lon="-105.229789">
  <ele>1583.0</ele>
  <time>2026-08-28T17:51:41Z</time>
  <course>248.32</course>
  <speed>0.01</speed>
  <fix>3d</fix>
</trkpt>
<trkpt lat="40.0713749" lon="-105.229789">
  <ele>1583.0</ele>
  <time>2026-08-28T17:51:41Z</time>
  <course>0.0</course>
  <speed>0.0</speed>
  <fix>3d</fix>
</trkpt>
<trkpt lat="40.0713749" lon="-105.229789">
  <ele>1583.0</ele>
  <time>2026-08-28T17:51:41Z</time>
  <course>248.32</course>
  <speed>0.01</speed>
  <fix>3d</fix>
</trkpt>
<trkpt lat="40.0713749" lon="-105.229789">
  <ele>1583.0</ele>
  <time>2026-08-28T17:51:41Z</time>
  <course>0.0</course>
  <speed>0.0</speed>
  <fix>3d</fix>
</trkpt>
<trkpt lat="40.0713749" lon="-105.229789">
  <ele>1583.0</ele>
  <time>2026-08-28T17:51:41Z</time>
  <course>248.32</course>
  <speed>0.01</speed>
  <fix>3d</fix>
</trkpt>
<trkpt lat="40.0713749" lon="-105.229789">
  <ele>1583.0</ele>
  <time>2026-08-28T17:51:41Z</time>
  <course>0.0</course>
  <speed>0.0</speed>
  <fix>3d</fix>
</trkpt>
<trkpt lat="40.0713749" lon="-105.229789">
  <ele>1583.0</ele>
  <time>2026-08-28T17:51:41Z</time>
  <course>248.31</course>
  <speed>0.01</speed>
  <fix>3d</fix>
</trkpt>
<trkpt lat="40.0713749" lon="-105.229789">
  <ele>1583.0</ele>
  <time>2026-08-28T17:51:41Z</time>
  <course>0.0</course>
  <speed>0.0</speed>
  <fix>3d</fix>
</trkpt>
<trkpt lat="40.0713749" lon="-105.229789">
  <ele>1583.0</ele>
  <time>2026-08-28T17:51:41Z</time>
  <course>248.31</course>
  <speed>0.01</speed>
  <fix>3d</fix>
</trkpt>
<trkpt lat="40.0713749" lon="-105.229789">
  <ele>1583.0</ele>
  <time>2026-08-28T17:51:41Z</time>
  <course>0.0</course>
  <speed>0.0</speed>
  <fix>3d</fix>
</trkpt>
<trkpt lat="40.0713749" lon="-105.229789">
  <ele>1583.0</ele>
  <time>2026-08-28T17:51:41Z</time>
  <course>248.3</course>
  <speed>0.01</speed>
  <fix>3d</fix>
</trkpt>
<trkpt lat="40.0713749" lon="-105.229789">
  <ele>1583.0</ele>
  <time>2026-08-28T17:51:41Z</time>
  <course>0.0</course>
  <speed>0.0</speed>
  <fix>3d</fix>
</trkpt>
<trkpt lat="40.0713749" lon="-105.229789">
  <ele>1583.0</ele>
  <time>2026-08-28T17:51:41Z</time>
  <course>248.3</course>
  <speed>0.01</speed>
  <fix>3d</fix>
</trkpt>
<trkpt lat="40.0713749" lon="-105.229789">
  <ele>1583.0</ele>
  <time>2026-08-28T17:51:41Z</time>
  <course>0.0</course>
  <speed>0.0</speed>
  <fix>3d</fix>
</trkpt>
<trkpt lat="40.0713749" lon="-105.229789">
  <ele>1583.0</ele>
  <time>2026-08-28T17:51:41Z</time>
  <course>248.29</course>
  <speed>0.01</speed>
  <fix>3d</fix>
</trkpt>
<trkpt lat="40.0713749" lon="-105.229789">
  <ele>1583.0</ele>
  <time>2026-08-28T17:51:41Z</time>
  <course>0.0</course>
  <speed>0.0</speed>
  <fix>3d</fix>
</trkpt>
<trkpt lat="40.0713749" lon="-105.229789">
  <ele>1583.0</ele>
  <time>2026-08-28T17:51:41Z</time>
  <course>248.29</course>
  <speed>0.01</speed>
  <fix>3d</fix>
</trkpt>
<trkpt lat="40.0713749" lon="-105.229789">
  <ele>1583.0</ele>
  <time>2026-08-28T17:51:41Z</time>
  <course>0.0</course>
  <speed>0.0</speed>
  <fix>3d</fix>
</trkpt>
<trkpt lat="40.0713749" lon="-105.229789">
  <ele>1583.0</ele>
  <time>2026-08-28T17:51:41Z</time>
  <course>248.28</course>
  <speed>0.01</speed>
  <fix>3d</fix>
</trkpt>
<trkpt lat="40.0713749" lon="-105.229789">
  <ele>1583.0</ele>
  <time>2026-08-28T17:51:41Z</time>
  <course>0.0</course>
  <speed>0.0</speed>
  <fix>3d</fix>
</trkpt>
<trkpt lat="40.0713749" lon="-105.229789">
  <ele>1583.0</ele>
  <time>2026-08-28T17:51:41Z</time>
  <course>248.28</course>
  <speed>0.01</speed>
  <fix>3d</fix>
</trkpt>
<trkpt lat="40.0713749" lon="-105.229789">
  <ele>1583.0</ele>
  <time>2026-08-28T17:51:41Z</time>
  <course>0.0</course>
  <speed>0.0</speed>
  <fix>3d</fix>
</trkpt>
<trkpt lat="40.0713749" lon="-105.229789">
  <ele>1583.0</ele>
  <time>2026-08-28T17:51:41Z</time>
  <course>248.27</course>
  <speed>0.01</speed>
  <fix>3d</fix>
</trkpt>
<trkpt lat="40.0713749" lon="-105.229789">
  <ele>1583.0</ele>
  <time>2026-08-28T17:51:41Z</time>
  <course>0.0</course>
  <speed>0.0</speed>
  <fix>3d</fix>
</trkpt>
<trkpt lat="40.0713749" lon="-105.229789">
  <ele>1583.0</ele>
  <time>2026-08-28T17:51:41Z</time>
  <course>248.27</course>
  <speed>0.01</speed>
  <fix>3d</fix>
</trkpt>
<trkpt lat="40.0713749" lon="-105.229789">
  <ele>1583.0</ele>
  <time>2026-08-28T17:51:41Z</time>
  <course>0.0</course>
  <speed>0.0</speed>
  <fix>3d</fix>
</trkpt>
<trkpt lat="40.0713749" lon="-105.229789">
  <ele>1583.0</ele>
  <time>2026-08-28T17:51:41Z</time>
  <course>248.26</course>
  <speed>0.01</speed>
  <fix>3d</fix>
</trkpt>
<trkpt lat="40.0713749" lon="-105.229789">
  <ele>1583.0</ele>
  <time>2026-08-28T17:51:41Z</time>
  <course>0.0</course>
  <speed>0.0</speed>
  <fix>3d</fix>
</trkpt>
<trkpt lat="40.0713749" lon="-105.229789">
  <ele>1583.0</ele>
  <time>2026-08-28T17:51:41Z</time>
  <course>248.26</course>
  <speed>0.01</speed>
  <fix>3d</fix>
</trkpt>
<trkpt lat="40.0713749" lon="-105.229789">
  <ele>1583.0</ele>
  <time>2026-08-28T17:51:41Z</time>
  <course>0.0</course>
  <speed>0.0</speed>
  <fix>3d</fix>
</trkpt>
<trkpt lat="40.0713749" lon="-105.229789">
  <ele>1583.0</ele>
  <time>2026-08-28T17:51:41Z</time>
  <course>248.26</course>
  <speed>0.01</speed>
  <fix>3d</fix>
</trkpt>
<trkpt lat="40.0713749" lon="-105.229789">
  <ele>1583.0</ele>
  <time>2026-08-28T17:51:41Z</time>
  <course>0.0</course>
  <speed>0.0</speed>
  <fix>3d</fix>
</trkpt>
<trkpt lat="40.0713749" lon="-105.229789">
  <ele>1583.0</ele>
  <time>2026-08-28T17:51:41Z</time>
  <course>248.25</course>
  <speed>0.01</speed>
  <fix>3d</fix>
</trkpt>
<trkpt lat="40.0713749" lon="-105.229789">
  <ele>1583.0</ele>
  <time>2026-08-28T17:51:41Z</time>
  <course>0.0</course>
  <speed>0.0</speed>
  <fix>3d</fix>
</trkpt>
<trkpt lat="40.0713749" lon="-105.229789">
  <ele>1583.0</ele>
  <time>2026-08-28T17:51:41Z</time>
  <course>248.25</course>
  <speed>0.01</speed>
  <fix>3d</fix>
</trkpt>
<trkpt lat="40.0713749" lon="-105.229789">
  <ele>1583.0</ele>
  <time>2026-08-28T17:51:41Z</time>
  <course>0.0</course>
  <speed>0.0</speed>
  <fix>3d</fix>
</trkpt>
<trkpt lat="40.0713749" lon="-105.229789">
  <ele>1583.0</ele>
  <time>2026-08-28T17:51:41Z</time>
  <course>248.24</course>
  <speed>0.01</speed>
  <fix>3d</fix>
</trkpt>
<trkpt lat="40.0713749" lon="-105.229789">
  <ele>1583.0</ele>
  <time>2026-08-28T17:51:41Z</time>
  <course>0.0</course>
  <speed>0.0</speed>
  <fix>3d</fix>
</trkpt>
<trkpt lat="40.0713749" lon="-105.229789">
  <ele>1583.0</ele>
  <time>2026-08-28T17:51:41Z</time>
  <course>248.24</course>
  <speed>0.01</speed>
  <fix>3d</fix>
</trkpt>
<trkpt lat="40.0713749" lon="-105.229789">
  <ele>1583.0</ele>
  <time>2026-08-28T17:51:41Z</time>
  <course>0.0</course>
  <speed>0.0</speed>
  <fix>3d</fix>
</trkpt>
<trkpt lat="40.0713749" lon="-105.229789">
  <ele>1583.0</ele>
  <time>2026-08-28T17:51:41Z</time>
  <course>248.23</course>
  <speed>0.01</speed>
  <fix>3d</fix>
</trkpt>
<trkpt lat="40.0713749" lon="-105.229789">
  <ele>1583.0</ele>
  <time>2026-08-28T17:51:41Z</time>
  <course>0.0</course>
  <speed>0.0</speed>
  <fix>3d</fix>
</trkpt>
<trkpt lat="40.0713749" lon="-105.229789">
  <ele>1583.0</ele>
  <time>2026-08-28T17:51:41Z</time>
  <course>248.23</course>
  <speed>0.01</speed>
  <fix>3d</fix>
</trkpt>
<trkpt lat="40.0713749" lon="-105.229789">
  <ele>1583.0</ele>
  <time>2026-08-28T17:51:41Z</time>
  <course>0.0</course>
  <speed>0.0</speed>
  <fix>3d</fix>
</trkpt>
<trkpt lat="40.0713749" lon="-105.229789">
  <ele>1583.0</ele>
  <time>2026-08-28T17:51:41Z</time>
  <course>248.22</course>
  <speed>0.01</speed>
  <fix>3d</fix>
</trkpt>
<trkpt lat="40.0713749" lon="-105.229789">
  <ele>1583.0</ele>
  <time>2026-08-28T17:51:41Z</time>
  <course>0.0</course>
  <speed>0.0</speed>
  <fix>3d</fix>
</trkpt>
<trkpt lat="40.0713749" lon="-105.229789">
  <ele>1583.0</ele>
  <time>2026-08-28T17:51:41Z</time>
  <course>248.22</course>
  <speed>0.01</speed>
  <fix>3d</fix>
</trkpt>
<trkpt lat="40.0713749" lon="-105.229789">
  <ele>1583.0</ele>
  <time>2026-08-28T17:51:41Z</time>
  <course>0.0</course>
  <speed>0.0</speed>
  <fix>3d</fix>
</trkpt>
<trkpt lat="40.0713749" lon="-105.229789">
  <ele>1583.0</ele>
  <time>2026-08-28T17:51:41Z</time>
  <course>248.21</course>
  <speed>0.01</speed>
  <fix>3d</fix>
</trkpt>
<trkpt lat="40.0713749" lon="-105.229789">
  <ele>1583.0</ele>
  <time>2026-08-28T17:51:41Z</time>
  <course>0.0</course>
  <speed>0.0</speed>
  <fix>3d</fix>
</trkpt>
<trkpt lat="40.0713749" lon="-105.229789">
  <ele>1583.0</ele>
  <time>2026-08-28T17:51:41Z</time>
  <course>248.21</course>
  <speed>0.01</speed>
  <fix>3d</fix>
</trkpt>
<trkpt lat="40.0713749" lon="-105.229789">
  <ele>1583.0</ele>
  <time>2026-08-28T17:51:41Z</time>
  <course>0.0</course>
  <speed>0.0</speed>
  <fix>3d</fix>
</trkpt>
<trkpt lat="40.0713749" lon="-105.229789">
  <ele>1583.0</ele>
  <time>2026-08-28T17:51:41Z</time>
  <course>248.2</course>
  <speed>0.01</speed>
  <fix>3d</fix>
</trkpt>
<trkpt lat="40.0713749" lon="-105.229789">
  <ele>1583.0</ele>
  <time>2026-08-28T17:51:41Z</time>
  <course>0.0</course>
  <speed>0.0</speed>
  <fix>3d</fix>
</trkpt>
<trkpt lat="40.0713749" lon="-105.229789">
  <ele>1583.0</ele>
  <time>2026-08-28T17:51:41Z</time>
  <course>248.2</course>
  <speed>0.01</speed>
  <fix>3d</fix>
</trkpt>
<trkpt lat="40.0713749" lon="-105.229789">
  <ele>1583.0</ele>
  <time>2026-08-28T17:51:41Z</time>
  <course>0.0</course>
  <speed>0.0</speed>
  <fix>3d</fix>
</trkpt>
<trkpt lat="40.0713749" lon="-105.229789">
  <ele>1583.0</ele>
  <time>2026-08-28T17:51:41Z</time>
  <course>248.19</course>
  <speed>0.01</speed>
  <fix>3d</fix>
</trkpt>
<trkpt lat="40.0713749" lon="-105.229789">
  <ele>1583.0</ele>
  <time>2026-08-28T17:51:41Z</time>
  <course>0.0</course>
  <speed>0.0</speed>
  <fix>3d</fix>
</trkpt>
<trkpt lat="40.0713749" lon="-105.229789">
  <ele>1583.0</ele>
  <time>2026-08-28T17:51:41Z</time>
  <course>248.19</course>
  <speed>0.01</speed>
  <fix>3d</fix>
</trkpt>
<trkpt lat="40.0713749" lon="-105.229789">
  <ele>1583.0</ele>
  <time>2026-08-28T17:51:41Z</time>
  <course>0.0</course>
  <speed>0.0</speed>
  <fix>3d</fix>
</trkpt>
<trkpt lat="40.0713749" lon="-105.229789">
  <ele>1583.0</ele>
  <time>2026-08-28T17:51:41Z</time>
  <course>248.18</course>
  <speed>0.01</speed>
  <fix>3d</fix>
</trkpt>
<trkpt lat="40.0713749" lon="-105.229789">
  <ele>1583.0</ele>
  <time>2026-08-28T17:51:41Z</time>
  <course>0.0</course>
  <speed>0.0</speed>
  <fix>3d</fix>
</trkpt>
<trkpt lat="40.0713749" lon="-105.229789">
  <ele>1583.0</ele>
  <time>2026-08-28T17:51:41Z</time>
  <course>248.18</course>
  <speed>0.01</speed>
  <fix>3d</fix>
</trkpt>
<trkpt lat="40.0713749" lon="-105.229789">
  <ele>1583.0</ele>
  <time>2026-08-28T17:51:41Z</time>
  <course>0.0</course>
  <speed>0.0</speed>
  <fix>3d</fix>
</trkpt>
<trkpt lat="40.0713749" lon="-105.229789">
  <ele>1583.0</ele>
  <time>2026-08-28T17:51:41Z</time>
  <course>248.17</course>
  <speed>0.022360679774997897</speed>
  <fix>3d</fix>
</trkpt>
<trkpt lat="40.0713749" lon="-105.229789">
  <ele>1583.0</ele>
  <time>2026-08-28T17:51:41Z</time>
  <course>0.0</course>
  <speed>0.0</speed>
  <fix>3d</fix>
</trkpt>
<trkpt lat="40.0713749" lon="-105.229789">
  <ele>1583.0</ele>
  <time>2026-08-28T17:51:41Z</time>
  <course>248.17</course>
  <speed>0.022360679774997897</speed>
  <fix>3d</fix>
</trkpt>
<trkpt lat="40.0713749" lon="-105.229789">
  <ele>1583.0</ele>
  <time>2026-08-28T17:51:41Z</time>
  <course>0.0</course>
  <speed>0.0</speed>
  <fix>3d</fix>
</trkpt>
<trkpt lat="40.0713749" lon="-105.229789">
  <ele>1583.0</ele>
  <time>2026-08-28T17:51:41Z</time>
  <course>248.16</course>
  <speed>0.022360679774997897</speed>
  <fix>3d</fix>
</trkpt>
<trkpt lat="40.0713749" lon="-105.229789">
  <ele>1583.0</ele>
  <time>2026-08-28T17:51:41Z</time>
  <course>0.0</course>
  <speed>0.0</speed>
  <fix>3d</fix>
</trkpt>
<trkpt lat="40.0713749" lon="-105.229789">
  <ele>1583.0</ele>
  <time>2026-08-28T17:51:41Z</time>
  <course>248.16</course>
  <speed>0.022360679774997897</speed>
  <fix>3d</fix>
</trkpt>
<trkpt lat="40.0713749" lon="-105.229789">
  <ele>1583.0</ele>
  <time>2026-08-28T17:51:41Z</time>
  <course>0.0</course>
  <speed>0.0</speed>
  <fix>3d</fix>
</trkpt>
<trkpt lat="40.0713749" lon="-105.229789">
  <ele>1583.0</ele>
  <time>2026-08-28T17:51:41Z</time>
  <course>248.15</course>
  <speed>0.022360679774997897</speed>
  <fix>3d</fix>
</trkpt>
<trkpt lat="40.0713749" lon="-105.229789">
  <ele>1583.0</ele>
  <time>2026-08-28T17:51:41Z</time>
  <course>0.0</course>
  <speed>0.0</speed>
  <fix>3d</fix>
</trkpt>
<trkpt lat="40.0713749" lon="-105.229789">
  <ele>1583.0</ele>
  <time>2026-08-28T17:51:41Z</time>
  <course>248.15</course>
  <speed>0.022360679774997897</speed>
  <fix>3d</fix>
</trkpt>
<trkpt lat="40.0713749" lon="-105.229789">
  <ele>1583.0</ele>
  <time>2026-08-28T17:51:41Z</time>
  <course>0.0</course>
  <speed>0.0</speed>
  <fix>3d</fix>
</trkpt>
<trkpt lat="40.0713749" lon="-105.229789">
  <ele>1583.0</ele>
  <time>2026-08-28T17:51:41Z</time>
  <course>248.14</course>
  <speed>0.022360679774997897</speed>
  <fix>3d</fix>
</trkpt>
<trkpt lat="40.0713749" lon="-105.229789">
  <ele>1583.0</ele>
  <time>2026-08-28T17:51:41Z</time>
  <course>0.0</course>
  <speed>0.0</speed>
  <fix>3d</fix>
</trkpt>
<trkpt lat="40.0713749" lon="-105.229789">
  <ele>1583.0</ele>
  <time>2026-08-28T17:51:41Z</time>
  <course>248.14</course>
  <speed>0.022360679774997897</speed>
  <fix>3d</fix>
</trkpt>
<trkpt lat="40.0713749" lon="-105.229789">
  <ele>1583.0</ele>
  <time>2026-08-28T17:51:41Z</time>
  <course>0.0</course>
  <speed>0.0</speed>
  <fix>3d</fix>
</trkpt>
<trkpt lat="40.0713749" lon="-105.229789">
  <ele>1583.0</ele>
  <time>2026-08-28T17:51:41Z</time>
  <course>248.13</course>
  <speed>0.022360679774997897</speed>
  <fix>3d</fix>
</trkpt>
<trkpt lat="40.0713749" lon="-105.229789">
  <ele>1583.0</ele>
  <time>2026-08-28T17:51:41Z</time>
  <course>0.0</course>
  <speed>0.0</speed>
  <fix>3d</fix>
</trkpt>
<trkpt lat="40.0713749" lon="-105.229789">
  <ele>1583.0</ele>
  <time>2026-08-28T17:51:41Z</time>
  <course>248.13</course>
  <speed>0.022360679774997897</speed>
  <fix>3d</fix>
</trkpt>
<trkpt lat="40.0713749" lon="-105.229789">
  <ele>1583.0</ele>
  <time>2026-08-28T17:51:41Z</time>
  <course>0.0</course>
  <speed>0.0</speed>
  <fix>3d</fix>
</trkpt>
<trkpt lat="40.0713749" lon="-105.229789">
  <ele>1583.0</ele>
  <time>2026-08-28T17:51:41Z</time>
  <course>248.12</course>
  <speed>0.022360679774997897</speed>
  <fix>3d</fix>
</trkpt>
<trkpt lat="40.0713749" lon="-105.229789">
  <ele>1583.0</ele>
  <time>2026-08-28T17:51:41Z</time>
  <course>0.0</course>
  <speed>0.0</speed>
  <fix>3d</fix>
</trkpt>
<trkpt lat="40.0713749" lon="-105.229789">
  <ele>1583.0</ele>
  <time>2026-08-28T17:51:41Z</time>
  <course>248.12</course>
  <speed>0.022360679774997897</speed>
  <fix>3d</fix>
</trkpt>
<trkpt lat="40.0713749" lon="-105.229789">
  <ele>1583.0</ele>
  <time>2026-08-28T17:51:41Z</time>
  <course>0.0</course>
  <speed>0.0</speed>
  <fix>3d</fix>
</trkpt>
<trkpt lat="40.0713749" lon="-105.229789">
  <ele>1583.0</ele>
  <time>2026-08-28T17:51:41Z</time>
  <course>248.11</course>
  <speed>0.022360679774997897</speed>
  <fix>3d</fix>
</trkpt>
<trkpt lat="40.0713749" lon="-105.229789">
  <ele>1583.0</ele>
  <time>2026-08-28T17:51:41Z</time>
  <course>0.0</course>
  <speed>0.0</speed>
  <fix>3d</fix>
</trkpt>
<trkpt lat="40.0713749" lon="-105.229789">
  <ele>1583.0</ele>
  <time>2026-08-28T17:51:41Z</time>
  <course>248.11</course>
  <speed>0.022360679774997897</speed>
  <fix>3d</fix>
</trkpt>
<trkpt lat="40.0713749" lon="-105.229789">
  <ele>1583.0</ele>
  <time>2026-08-28T17:51:41Z</time>
  <course>0.0</course>
  <speed>0.0</speed>
  <fix>3d</fix>
</trkpt>
<trkpt lat="40.0713749" lon="-105.229789">
  <ele>1583.0</ele>
  <time>2026-08-28T17:51:41Z</time>
  <course>248.1</course>
  <speed>0.022360679774997897</speed>
  <fix>3d</fix>
</trkpt>
<trkpt lat="40.0713749" lon="-105.229789">
  <ele>1583.0</ele>
  <time>2026-08-28T17:51:41Z</time>
  <course>0.0</course>
  <speed>0.0</speed>
  <fix>3d</fix>
</trkpt>
<trkpt lat="40.0713749" lon="-105.229789">
  <ele>1583.0</ele>
  <time>2026-08-28T17:51:41Z</time>
  <course>248.1</course>
  <speed>0.022360679774997897</speed>
  <fix>3d</fix>
</trkpt>
<trkpt lat="40.0713749" lon="-105.229789">
  <ele>1583.0</ele>
  <time>2026-08-28T17:51:41Z</time>
  <course>0.0</course>
  <speed>0.0</speed>
  <fix>3d</fix>
</trkpt>
<trkpt lat="40.0713749" lon="-105.229789">
  <ele>1583.0</ele>
  <time>2026-08-28T17:51:41Z</time>
  <course>248.09</course>
  <speed>0.022360679774997897</speed>
  <fix>3d</fix>
</trkpt>
<trkpt lat="40.0713749" lon="-105.229789">
  <ele>1583.0</ele>
  <time>2026-08-28T17:51:41Z</time>
  <course>0.0</course>
  <speed>0.0</speed>
  <fix>3d</fix>
</trkpt>
<trkpt lat="40.0713749" lon="-105.229789">
  <ele>1583.0</ele>
  <time>2026-08-28T17:51:41Z</time>
  <course>248.09</course>
  <speed>0.022360679774997897</speed>
  <fix>3d</fix>
</trkpt>
<trkpt lat="40.0713749" lon="-105.229789">
  <ele>1583.0</ele>
  <time>2026-08-28T17:51:41Z</time>
  <course>0.0</course>
  <speed>0.0</speed>
  <fix>3d</fix>
</trkpt>
<trkpt lat="40.0713749" lon="-105.229789">
  <ele>1583.0</ele>
  <time>2026-08-28T17:51:41Z</time>
  <course>248.08</course>
  <speed>0.022360679774997897</speed>
  <fix>3d</fix>
</trkpt>
<trkpt lat="40.0713749" lon="-105.229789">
  <ele>1583.0</ele>
  <time>2026-08-28T17:51:41Z</time>
  <course>0.0</course>
  <speed>0.0</speed>
  <fix>3d</fix>
</trkpt>
<trkpt lat="40.0713749" lon="-105.229789">
  <ele>1583.0</ele>
  <time>2026-08-28T17:51:41Z</time>
  <course>248.08</course>
  <speed>0.022360679774997897</speed>
  <fix>3d</fix>
</trkpt>
<trkpt lat="40.0713749" lon="-105.229789">
  <ele>1583.0</ele>
  <time>2026-08-28T17:51:41Z</time>
  <course>0.0</course>
  <speed>0.0</speed>
  <fix>3d</fix>
</trkpt>
<trkpt lat="40.0713749" lon="-105.229789">
  <ele>1583.0</ele>
  <time>2026-08-28T17:51:41Z</time>
  <course>248.07</course>
  <speed>0.022360679774997897</speed>
  <fix>3d</fix>
</trkpt>
<trkpt lat="40.0713749" lon="-105.229789">
  <ele>1583.0</ele>
  <time>2026-08-28T17:51:41Z</time>
  <course>0.0</course>
  <speed>0.0</speed>
  <fix>3d</fix>
</trkpt>
<trkpt lat="40.0713749" lon="-105.229789">
  <ele>1583.0</ele>
  <time>2026-08-28T17:51:41Z</time>
  <course>248.07</course>
  <speed>0.022360679774997897</speed>
  <fix>3d</fix>
</trkpt>
<trkpt lat="40.0713749" lon="-105.229789">
  <ele>1583.0</ele>
  <time>2026-08-28T17:51:41Z</time>
  <course>0.0</course>
  <speed>0.0</speed>
  <fix>3d</fix>
</trkpt>
<trkpt lat="40.0713749" lon="-105.229789">
  <ele>1583.0</ele>
  <time>2026-08-28T17:51:41Z</time>
  <course>248.06</course>
  <speed>0.022360679774997897</speed>
  <fix>3d</fix>
</trkpt>
<trkpt lat="40.0713749" lon="-105.229789">
  <ele>1583.0</ele>
  <time>2026-08-28T17:51:41Z</time>
  <course>0.0</course>
  <speed>0.0</speed>
  <fix>3d</fix>
</trkpt>
<trkpt lat="40.0713749" lon="-105.229789">
  <ele>1583.0</ele>
  <time>2026-08-28T17:51:41Z</time>
  <course>248.06</course>
  <speed>0.022360679774997897</speed>
  <fix>3d</fix>
</trkpt>
<trkpt lat="40.0713749" lon="-105.229789">
  <ele>1583.0</ele>
  <time>2026-08-28T17:51:41Z</time>
  <course>0.0</course>
  <speed>0.0</speed>
  <fix>3d</fix>
</trkpt>
<trkpt lat="40.0713749" lon="-105.229789">
  <ele>1583.0</ele>
  <time>2026-08-28T17:51:41Z</time>
  <course>248.05</course>
  <speed>0.022360679774997897</speed>
  <fix>3d</fix>
</trkpt>
<trkpt lat="40.0713749" lon="-105.229789">
  <ele>1583.0</ele>
  <time>2026-08-28T17:51:41Z</time>
  <course>0.0</course>
  <speed>0.0</speed>
  <fix>3d</fix>
</trkpt>
<trkpt lat="40.0713749" lon="-105.229789">
  <ele>1583.0</ele>
  <time>2026-08-28T17:51:41Z</time>
  <course>248.05</course>
  <speed>0.022360679774997897</speed>
  <fix>3d</fix>
</trkpt>
<trkpt lat="40.0713749" lon="-105.229789">
  <ele>1583.0</ele>
  <time>2026-08-28T17:51:41Z</time>
  <course>0.0</course>
  <speed>0.0</speed>
  <fix>3d</fix>
</trkpt>
<trkpt lat="40.0713749" lon="-105.229789">
  <ele>1583.0</ele>
  <time>2026-08-28T17:51:41Z</time>
  <course>248.05</course>
  <speed>0.022360679774997897</speed>
  <fix>3d</fix>
</trkpt>
<trkpt lat="40.0713749" lon="-105.229789">
  <ele>1583.0</ele>
  <time>2026-08-28T17:51:41Z</time>
  <course>0.0</course>
  <speed>0.0</speed>
  <fix>3d</fix>
</trkpt>
<trkpt lat="40.0713749" lon="-105.229789">
  <ele>1583.0</ele>
  <time>2026-08-28T17:51:41Z</time>
  <course>248.04</course>
  <speed>0.022360679774997897</speed>
  <fix>3d</fix>
</trkpt>
<trkpt lat="40.0713749" lon="-105.229789">
  <ele>1583.0</ele>
  <time>2026-08-28T17:51:41Z</time>
  <course>0.0</course>
  <speed>0.0</speed>
  <fix>3d</fix>
</trkpt>
<trkpt lat="40.0713749" lon="-105.229789">
  <ele>1583.0</ele>
  <time>2026-08-28T17:51:41Z</time>
  <course>248.04</course>
  <speed>0.022360679774997897</speed>
  <fix>3d</fix>
</trkpt>
<trkpt lat="40.0713749" lon="-105.229789">
  <ele>1583.0</ele>
  <time>2026-08-28T17:51:41Z</time>
  <course>0.0</course>
  <speed>0.0</speed>
  <fix>3d</fix>
</trkpt>
<trkpt lat="40.0713749" lon="-105.229789">
  <ele>1583.0</ele>
  <time>2026-08-28T17:51:41Z</time>
  <course>248.03</course>
  <speed>0.022360679774997897</speed>
  <fix>3d</fix>
</trkpt>
<trkpt lat="40.0713749" lon="-105.229789">
  <ele>1583.0</ele>
  <time>2026-08-28T17:51:41Z</time>
  <course>0.0</course>
  <speed>0.0</speed>
  <fix>3d</fix>
</trkpt>
<trkpt lat="40.0713749" lon="-105.229789">
  <ele>1583.0</ele>
  <time>2026-08-28T17:51:41Z</time>
  <course>248.03</course>
  <speed>0.022360679774997897</speed>
  <fix>3d</fix>
</trkpt>
<trkpt lat="40.0713749" lon="-105.229789">
  <ele>1583.0</ele>
  <time>2026-08-28T17:51:41Z</time>
  <course>0.0</course>
  <speed>0.0</speed>
  <fix>3d</fix>
</trkpt>
<trkpt lat="40.0713749" lon="-105.229789">
  <ele>1583.0</ele>
  <time>2026-08-28T17:51:41Z</time>
  <course>248.02</course>
  <speed>0.022360679774997897</speed>
  <fix>3d</fix>
</trkpt>
<trkpt lat="40.0713749" lon="-105.229789">
  <ele>1583.0</ele>
  <time>2026-08-28T17:51:41Z</time>
  <course>0.0</course>
  <speed>0.0</speed>
  <fix>3d</fix>
</trkpt>
<trkpt lat="40.0713749" lon="-105.229789">
  <ele>1583.0</ele>
  <time>2026-08-28T17:51:41Z</time>
  <course>248.02</course>
  <speed>0.022360679774997897</speed>
  <fix>3d</fix>
</trkpt>
<trkpt lat="40.0713749" lon="-105.229789">
  <ele>1583.0</ele>
  <time>2026-08-28T17:51:41Z</time>
  <course>0.0</course>
  <speed>0.0</speed>
  <fix>3d</fix>
</trkpt>
<trkpt lat="40.0713749" lon="-105.229789">
  <ele>1583.0</ele>
  <time>2026-08-28T17:51:41Z</time>
  <course>248.01</course>
  <speed>0.022360679774997897</speed>
  <fix>3d</fix>
</trkpt>
<trkpt lat="40.0713749" lon="-105.229789">
  <ele>1583.0</ele>
  <time>2026-08-28T17:51:41Z</time>
  <course>0.0</course>
  <speed>0.0</speed>
  <fix>3d</fix>
</trkpt>
<trkpt lat="40.0713749" lon="-105.229789">
  <ele>1583.0</ele>
  <time>2026-08-28T17:51:41Z</time>
  <course>248.01</course>
  <speed>0.022360679774997897</speed>
  <fix>3d</fix>
</trkpt>
<trkpt lat="40.0713749" lon="-105.229789">
  <ele>1583.0</ele>
  <time>2026-08-28T17:51:41Z</time>
  <course>0.0</course>
  <speed>0.0</speed>
  <fix>3d</fix>
</trkpt>
<trkpt lat="40.0713749" lon="-105.229789">
  <ele>1583.0</ele>
  <time>2026-08-28T17:51:41Z</time>
  <course>248.0</course>
  <speed>0.022360679774997897</speed>
  <fix>3d</fix>
</trkpt>
<trkpt lat="40.0713749" lon="-105.229789">
  <ele>1583.0</ele>
  <time>2026-08-28T17:51:41Z</time>
  <course>0.0</course>
  <speed>0.0</speed>
  <fix>3d</fix>
</trkpt>
<trkpt lat="40.0713749" lon="-105.229789">
  <ele>1583.0</ele>
  <time>2026-08-28T17:51:41Z</time>
  <course>248.0</course>
  <speed>0.022360679774997897</speed>
  <fix>3d</fix>
</trkpt>
<trkpt lat="40.0713749" lon="-105.229789">
  <ele>1583.0</ele>
  <time>2026-08-28T17:51:41Z</time>
  <course>0.0</course>
  <speed>0.0</speed>
  <fix>3d</fix>
</trkpt>
<trkpt lat="40.0713749" lon="-105.229789">
  <ele>1583.0</ele>
  <time>2026-08-28T17:51:41Z</time>
  <course>247.99</course>
  <speed>0.022360679774997897</speed>
  <fix>3d</fix>
</trkpt>
<trkpt lat="40.0713749" lon="-105.229789">
  <ele>1583.0</ele>
  <time>2026-08-28T17:51:41Z</time>
  <course>0.0</course>
  <speed>0.0</speed>
  <fix>3d</fix>
</trkpt>
<trkpt lat="40.0713749" lon="-105.229789">
  <ele>1583.0</ele>
  <time>2026-08-28T17:51:41Z</time>
  <course>247.99</course>
  <speed>0.022360679774997897</speed>
  <fix>3d</fix>
</trkpt>
<trkpt lat="40.0713749" lon="-105.229789">
  <ele>1583.0</ele>
  <time>2026-08-28T17:51:41Z</time>
  <course>0.0</course>
  <speed>0.0</speed>
  <fix>3d</fix>
</trkpt>
<trkpt lat="40.0713749" lon="-105.229789">
  <ele>1583.0</ele>
  <time>2026-08-28T17:51:41Z</time>
  <course>247.99</course>
  <speed>0.022360679774997897</speed>
  <fix>3d</fix>
</trkpt>
<trkpt lat="40.0713749" lon="-105.229789">
  <ele>1583.0</ele>
  <time>2026-08-28T17:51:41Z</time>
  <course>0.0</course>
  <speed>0.0</speed>
  <fix>3d</fix>
</trkpt>
<trkpt lat="40.0713749" lon="-105.229789">
  <ele>1583.0</ele>
  <time>2026-08-28T17:51:41Z</time>
  <course>247.98</course>
  <speed>0.022360679774997897</speed>
  <fix>3d</fix>
</trkpt>
<trkpt lat="40.0713749" lon="-105.229789">
  <ele>1583.0</ele>
  <time>2026-08-28T17:51:41Z</time>
  <course>0.0</course>
  <speed>0.0</speed>
  <fix>3d</fix>
</trkpt>
<trkpt lat="40.0713749" lon="-105.229789">
  <ele>1583.0</ele>
  <time>2026-08-28T17:51:41Z</time>
  <course>247.98</course>
  <speed>0.022360679774997897</speed>
  <fix>3d</fix>
</trkpt>
<trkpt lat="40.0713749" lon="-105.229789">
  <ele>1583.0</ele>
  <time>2026-08-28T17:51:41Z</time>
  <course>0.0</course>
  <speed>0.0</speed>
  <fix>3d</fix>
</trkpt>
<trkpt lat="40.0713749" lon="-105.229789">
  <ele>1583.0</ele>
  <time>2026-08-28T17:51:41Z</time>
  <course>247.97</course>
  <speed>0.022360679774997897</speed>
  <fix>3d</fix>
</trkpt>
<trkpt lat="40.0713749" lon="-105.229789">
  <ele>1583.0</ele>
  <time>2026-08-28T17:51:41Z</time>
  <course>0.0</course>
  <speed>0.0</speed>
  <fix>3d</fix>
</trkpt>
<trkpt lat="40.0713749" lon="-105.229789">
  <ele>1583.0</ele>
  <time>2026-08-28T17:51:41Z</time>
  <course>247.97</course>
  <speed>0.022360679774997897</speed>
  <fix>3d</fix>
</trkpt>
<trkpt lat="40.0713749" lon="-105.229789">
  <ele>1583.0</ele>
  <time>2026-08-28T17:51:41Z</time>
  <course>0.0</course>
  <speed>0.0</speed>
  <fix>3d</fix>
</trkpt>
<trkpt lat="40.0713749" lon="-105.229789">
  <ele>1583.0</ele>
  <time>2026-08-28T17:51:41Z</time>
  <course>247.96</course>
  <speed>0.022360679774997897</speed>
  <fix>3d</fix>
</trkpt>
<trkpt lat="40.0713749" lon="-105.229789">
  <ele>1583.0</ele>
  <time>2026-08-28T17:51:41Z</time>
  <course>0.0</course>
  <speed>0.0</speed>
  <fix>3d</fix>
</trkpt>
<trkpt lat="40.0713749" lon="-105.229789">
  <ele>1583.0</ele>
  <time>2026-08-28T17:51:41Z</time>
  <course>247.96</course>
  <speed>0.022360679774997897</speed>
  <fix>3d</fix>
</trkpt>
<trkpt lat="40.0713749" lon="-105.229789">
  <ele>1583.0</ele>
  <time>2026-08-28T17:51:41Z</time>
  <course>0.0</course>
  <speed>0.0</speed>
  <fix>3d</fix>
</trkpt>
<trkpt lat="40.0713749" lon="-105.229789">
  <ele>1583.0</ele>
  <time>2026-08-28T17:51:41Z</time>
  <course>247.95</course>
  <speed>0.022360679774997897</speed>
  <fix>3d</fix>
</trkpt>
<trkpt lat="40.0713749" lon="-105.229789">
  <ele>1583.0</ele>
  <time>2026-08-28T17:51:41Z</time>
  <course>0.0</course>
  <speed>0.0</speed>
  <fix>3d</fix>
</trkpt>
<trkpt lat="40.0713749" lon="-105.229789">
  <ele>1583.0</ele>
  <time>2026-08-28T17:51:41Z</time>
  <course>247.95</course>
  <speed>0.022360679774997897</speed>
  <fix>3d</fix>
</trkpt>
<trkpt lat="40.0713749" lon="-105.229789">
  <ele>1583.0</ele>
  <time>2026-08-28T17:51:41Z</time>
  <course>0.0</course>
  <speed>0.0</speed>
  <fix>3d</fix>
</trkpt>
<trkpt lat="40.0713749" lon="-105.229789">
  <ele>1583.0</ele>
  <time>2026-08-28T17:51:41Z</time>
  <course>247.95</course>
  <speed>0.022360679774997897</speed>
  <fix>3d</fix>
</trkpt>
<trkpt lat="40.0713749" lon="-105.229789">
  <ele>1583.0</ele>
  <time>2026-08-28T17:51:41Z</time>
  <course>0.0</course>
  <speed>0.0</speed>
  <fix>3d</fix>
</trkpt>
<trkpt lat="40.0713749" lon="-105.229789">
  <ele>1583.0</ele>
  <time>2026-08-28T17:51:41Z</time>
  <course>247.94</course>
  <speed>0.022360679774997897</speed>
  <fix>3d</fix>
</trkpt>
<trkpt lat="40.0713749" lon="-105.229789">
  <ele>1583.0</ele>
  <time>2026-08-28T17:51:41Z</time>
  <course>0.0</course>
  <speed>0.0</speed>
  <fix>3d</fix>
</trkpt>
<trkpt lat="40.0713749" lon="-105.229789">
  <ele>1583.0</ele>
  <time>2026-08-28T17:51:41Z</time>
  <course>247.94</course>
  <speed>0.022360679774997897</speed>
  <fix>3d</fix>
</trkpt>
<trkpt lat="40.0713749" lon="-105.229789">
  <ele>1583.0</ele>
  <time>2026-08-28T17:51:41Z</time>
  <course>0.0</course>
  <speed>0.0</speed>
  <fix>3d</fix>
</trkpt>
<trkpt lat="40.0713749" lon="-105.229789">
  <ele>1583.0</ele>
  <time>2026-08-28T17:51:41Z</time>
  <course>247.93</course>
  <speed>0.022360679774997897</speed>
  <fix>3d</fix>
</trkpt>
<trkpt lat="40.0713749" lon="-105.229789">
  <ele>1583.0</ele>
  <time>2026-08-28T17:51:41Z</time>
  <course>0.0</course>
  <speed>0.0</speed>
  <fix>3d</fix>
</trkpt>
<trkpt lat="40.0713749" lon="-105.229789">
  <ele>1583.0</ele>
  <time>2026-08-28T17:51:41Z</time>
  <course>247.93</course>
  <speed>0.022360679774997897</speed>
  <fix>3d</fix>
</trkpt>
<trkpt lat="40.0713749" lon="-105.229789">
  <ele>1583.0</ele>
  <time>2026-08-28T17:51:41Z</time>
  <course>0.0</course>
  <speed>0.0</speed>
  <fix>3d</fix>
</trkpt>
<trkpt lat="40.0713749" lon="-105.229789">
  <ele>1583.0</ele>
  <time>2026-08-28T17:51:41Z</time>
  <course>247.92</course>
  <speed>0.022360679774997897</speed>
  <fix>3d</fix>
</trkpt>
<trkpt lat="40.0713749" lon="-105.229789">
  <ele>1583.0</ele>
  <time>2026-08-28T17:51:41Z</time>
  <course>0.0</course>
  <speed>0.0</speed>
  <fix>3d</fix>
</trkpt>
<trkpt lat="40.0713749" lon="-105.229789">
  <ele>1583.0</ele>
  <time>2026-08-28T17:51:41Z</time>
  <course>247.92</course>
  <speed>0.022360679774997897</speed>
  <fix>3d</fix>
</trkpt>
<trkpt lat="40.0713749" lon="-105.229789">
  <ele>1583.0</ele>
  <time>2026-08-28T17:51:41Z</time>
  <course>0.0</course>
  <speed>0.0</speed>
  <fix>3d</fix>
</trkpt>
<trkpt lat="40.0713749" lon="-105.229789">
  <ele>1583.0</ele>
  <time>2026-08-28T17:51:41Z</time>
  <course>247.92</course>
  <speed>0.022360679774997897</speed>
  <fix>3d</fix>
</trkpt>
<trkpt lat="40.0713749" lon="-105.229789">
  <ele>1583.0</ele>
  <time>2026-08-28T17:51:41Z</time>
  <course>0.0</course>
  <speed>0.0</speed>
  <fix>3d</fix>
</trkpt>
<trkpt lat="40.0713749" lon="-105.229789">
  <ele>1583.0</ele>
  <time>2026-08-28T17:51:41Z</time>
  <course>247.91</course>
  <speed>0.022360679774997897</speed>
  <fix>3d</fix>
</trkpt>
<trkpt lat="40.0713749" lon="-105.229789">
  <ele>1583.0</ele>
  <time>2026-08-28T17:51:41Z</time>
  <course>0.0</course>
  <speed>0.0</speed>
  <fix>3d</fix>
</trkpt>
<trkpt lat="40.0713749" lon="-105.229789">
  <ele>1583.0</ele>
  <time>2026-08-28T17:51:41Z</time>
  <course>247.91</course>
  <speed>0.022360679774997897</speed>
  <fix>3d</fix>
</trkpt>
<trkpt lat="40.0713749" lon="-105.229789">
  <ele>1583.0</ele>
  <time>2026-08-28T17:51:41Z</time>
  <course>0.0</course>
  <speed>0.0</speed>
  <fix>3d</fix>
</trkpt>
<trkpt lat="40.0713749" lon="-105.229789">
  <ele>1583.0</ele>
  <time>2026-08-28T17:51:41Z</time>
  <course>247.9</course>
  <speed>0.022360679774997897</speed>
  <fix>3d</fix>
</trkpt>
<trkpt lat="40.0713749" lon="-105.229789">
  <ele>1583.0</ele>
  <time>2026-08-28T17:51:41Z</time>
  <course>0.0</course>
  <speed>0.0</speed>
  <fix>3d</fix>
</trkpt>
<trkpt lat="40.0713749" lon="-105.229789">
  <ele>1583.0</ele>
  <time>2026-08-28T17:51:41Z</time>
  <course>247.9</course>
  <speed>0.022360679774997897</speed>
  <fix>3d</fix>
</trkpt>
<trkpt lat="40.0713749" lon="-105.229789">
  <ele>1583.0</ele>
  <time>2026-08-28T17:51:41Z</time>
  <course>0.0</course>
  <speed>0.0</speed>
  <fix>3d</fix>
</trkpt>
<trkpt lat="40.0713749" lon="-105.229789">
  <ele>1583.0</ele>
  <time>2026-08-28T17:51:41Z</time>
  <course>247.89</course>
  <speed>0.022360679774997897</speed>
  <fix>3d</fix>
</trkpt>
<trkpt lat="40.0713749" lon="-105.229789">
  <ele>1583.0</ele>
  <time>2026-08-28T17:51:41Z</time>
  <course>0.0</course>
  <speed>0.0</speed>
  <fix>3d</fix>
</trkpt>
<trkpt lat="40.0713749" lon="-105.229789">
  <ele>1583.0</ele>
  <time>2026-08-28T17:51:41Z</time>
  <course>247.89</course>
  <speed>0.022360679774997897</speed>
  <fix>3d</fix>
</trkpt>
<trkpt lat="40.0713749" lon="-105.229789">
  <ele>1583.0</ele>
  <time>2026-08-28T17:51:41Z</time>
  <course>0.0</course>
  <speed>0.0</speed>
  <fix>3d</fix>
</trkpt>
<trkpt lat="40.0713749" lon="-105.229789">
  <ele>1583.0</ele>
  <time>2026-08-28T17:51:41Z</time>
  <course>247.89</course>
  <speed>0.022360679774997897</speed>
  <fix>3d</fix>
</trkpt>
<trkpt lat="40.0713749" lon="-105.229789">
  <ele>1583.0</ele>
  <time>2026-08-28T17:51:41Z</time>
  <course>0.0</course>
  <speed>0.0</speed>
  <fix>3d</fix>
</trkpt>
<trkpt lat="40.0713749" lon="-105.229789">
  <ele>1583.0</ele>
  <time>2026-08-28T17:51:41Z</time>
  <course>247.88</course>
  <speed>0.0316227766016838</speed>
  <fix>3d</fix>
</trkpt>
<trkpt lat="40.0713749" lon="-105.229789">
  <ele>1583.0</ele>
  <time>2026-08-28T17:51:41Z</time>
  <course>0.0</course>
  <speed>0.0</speed>
  <fix>3d</fix>
</trkpt>
<trkpt lat="40.0713749" lon="-105.229789">
  <ele>1583.0</ele>
  <time>2026-08-28T17:51:41Z</time>
  <course>247.88</course>
  <speed>0.0316227766016838</speed>
  <fix>3d</fix>
</trkpt>
<trkpt lat="40.0713749" lon="-105.229789">
  <ele>1583.0</ele>
  <time>2026-08-28T17:51:41Z</time>
  <course>0.0</course>
  <speed>0.0</speed>
  <fix>3d</fix>
</trkpt>
<trkpt lat="40.0713749" lon="-105.229789">
  <ele>1583.0</ele>
  <time>2026-08-28T17:51:41Z</time>
  <course>247.87</course>
  <speed>0.0316227766016838</speed>
  <fix>3d</fix>
</trkpt>
<trkpt lat="40.0713749" lon="-105.229789">
  <ele>1583.0</ele>
  <time>2026-08-28T17:51:41Z</time>
  <course>0.0</course>
  <speed>0.0</speed>
  <fix>3d</fix>
</trkpt>
<trkpt lat="40.0713749" lon="-105.229789">
  <ele>1583.0</ele>
  <time>2026-08-28T17:51:41Z</time>
  <course>247.87</course>
  <speed>0.0316227766016838</speed>
  <fix>3d</fix>
</trkpt>
<trkpt lat="40.0713749" lon="-105.229789">
  <ele>1583.0</ele>
  <time>2026-08-28T17:51:41Z</time>
  <course>0.0</course>
  <speed>0.0</speed>
  <fix>3d</fix>
</trkpt>
<trkpt lat="40.0713749" lon="-105.229789">
  <ele>1583.0</ele>
  <time>2026-08-28T17:51:41Z</time>
  <course>247.87</course>
  <speed>0.0316227766016838</speed>
  <fix>3d</fix>
</trkpt>
<trkpt lat="40.0713749" lon="-105.229789">
  <ele>1583.0</ele>
  <time>2026-08-28T17:51:41Z</time>
  <course>0.0</course>
  <speed>0.0</speed>
  <fix>3d</fix>
</trkpt>
<trkpt lat="40.0713749" lon="-105.229789">
  <ele>1583.0</ele>
  <time>2026-08-28T17:51:41Z</time>
  <course>247.86</course>
  <speed>0.0316227766016838</speed>
  <fix>3d</fix>
</trkpt>
<trkpt lat="40.0713749" lon="-105.229789">
  <ele>1583.0</ele>
  <time>2026-08-28T17:51:41Z</time>
  <course>0.0</course>
  <speed>0.0</speed>
  <fix>3d</fix>
</trkpt>
<trkpt lat="40.0713749" lon="-105.229789">
  <ele>1583.0</ele>
  <time>2026-08-28T17:51:41Z</time>
  <course>247.86</course>
  <speed>0.0316227766016838</speed>
  <fix>3d</fix>
</trkpt>
<trkpt lat="40.0713749" lon="-105.229789">
  <ele>1583.0</ele>
  <time>2026-08-28T17:51:41Z</time>
  <course>0.0</course>
  <speed>0.0</speed>
  <fix>3d</fix>
</trkpt>
<trkpt lat="40.0713749" lon="-105.229789">
  <ele>1583.0</ele>
  <time>2026-08-28T17:51:41Z</time>
  <course>247.85</course>
  <speed>0.0316227766016838</speed>
  <fix>3d</fix>
</trkpt>
<trkpt lat="40.0713749" lon="-105.229789">
  <ele>1583.0</ele>
  <time>2026-08-28T17:51:41Z</time>
  <course>0.0</course>
  <speed>0.0</speed>
  <fix>3d</fix>
</trkpt>
<trkpt lat="40.0713749" lon="-105.229789">
  <ele>1583.0</ele>
  <time>2026-08-28T17:51:41Z</time>
  <course>247.85</course>
  <speed>0.0316227766016838</speed>
  <fix>3d</fix>
</trkpt>
<trkpt lat="40.0713749" lon="-105.229789">
  <ele>1583.0</ele>
  <time>2026-08-28T17:51:41Z</time>
  <course>0.0</course>
  <speed>0.0</speed>
  <fix>3d</fix>
</trkpt>
<trkpt lat="40.0713749" lon="-105.229789">
  <ele>1583.0</ele>
  <time>2026-08-28T17:51:41Z</time>
  <course>247.85</course>
  <speed>0.0316227766016838</speed>
  <fix>3d</fix>
</trkpt>
<trkpt lat="40.0713749" lon="-105.229789">
  <ele>1583.0</ele>
  <time>2026-08-28T17:51:41Z</time>
  <course>0.0</course>
  <speed>0.0</speed>
  <fix>3d</fix>
</trkpt>
<trkpt lat="40.0713749" lon="-105.229789">
  <ele>1583.0</ele>
  <time>2026-08-28T17:51:41Z</time>
  <course>247.84</course>
  <speed>0.0316227766016838</speed>
  <fix>3d</fix>
</trkpt>
<trkpt lat="40.0713749" lon="-105.229789">
  <ele>1583.0</ele>
  <time>2026-08-28T17:51:41Z</time>
  <course>0.0</course>
  <speed>0.0</speed>
  <fix>3d</fix>
</trkpt>
<trkpt lat="40.0713749" lon="-105.229789">
  <ele>1583.0</ele>
  <time>2026-08-28T17:51:41Z</time>
  <course>247.84</course>
  <speed>0.0316227766016838</speed>
  <fix>3d</fix>
</trkpt>
<trkpt lat="40.0713749" lon="-105.229789">
  <ele>1583.0</ele>
  <time>2026-08-28T17:51:41Z</time>
  <course>0.0</course>
  <speed>0.0</speed>
  <fix>3d</fix>
</trkpt>
<trkpt lat="40.0713749" lon="-105.229789">
  <ele>1583.0</ele>
  <time>2026-08-28T17:51:41Z</time>
  <course>247.83</course>
  <speed>0.0316227766016838</speed>
  <fix>3d</fix>
</trkpt>
<trkpt lat="40.0713749" lon="-105.229789">
  <ele>1583.0</ele>
  <time>2026-08-28T17:51:41Z</time>
  <course>0.0</course>
  <speed>0.0</speed>
  <fix>3d</fix>
</trkpt>
<trkpt lat="40.0713749" lon="-105.229789">
  <ele>1583.0</ele>
  <time>2026-08-28T17:51:41Z</time>
  <course>247.83</course>
  <speed>0.0316227766016838</speed>
  <fix>3d</fix>
</trkpt>
<trkpt lat="40.0713749" lon="-105.229789">
  <ele>1583.0</ele>
  <time>2026-08-28T17:51:41Z</time>
  <course>0.0</course>
  <speed>0.0</speed>
  <fix>3d</fix>
</trkpt>
<trkpt lat="40.0713749" lon="-105.229789">
  <ele>1583.0</ele>
  <time>2026-08-28T17:51:41Z</time>
  <course>247.83</course>
  <speed>0.0316227766016838</speed>
  <fix>3d</fix>
</trkpt>
<trkpt lat="40.0713749" lon="-105.229789">
  <ele>1583.0</ele>
  <time>2026-08-28T17:51:41Z</time>
  <course>0.0</course>
  <speed>0.0</speed>
  <fix>3d</fix>
</trkpt>
<trkpt lat="40.0713749" lon="-105.229789">
  <ele>1583.0</ele>
  <time>2026-08-28T17:51:41Z</time>
  <course>247.82</course>
  <speed>0.0316227766016838</speed>
  <fix>3d</fix>
</trkpt>
<trkpt lat="40.0713749" lon="-105.229789">
  <ele>1583.0</ele>
  <time>2026-08-28T17:51:41Z</time>
  <course>0.0</course>
  <speed>0.0</speed>
  <fix>3d</fix>
</trkpt>
<trkpt lat="40.0713749" lon="-105.229789">
  <ele>1583.0</ele>
  <time>2026-08-28T17:51:41Z</time>
  <course>247.82</course>
  <speed>0.0316227766016838</speed>
  <fix>3d</fix>
</trkpt>
<trkpt lat="40.0713749" lon="-105.229789">
  <ele>1583.0</ele>
  <time>2026-08-28T17:51:41Z</time>
  <course>0.0</course>
  <speed>0.0</speed>
  <fix>3d</fix>
</trkpt>
<trkpt lat="40.0713749" lon="-105.229789">
  <ele>1583.0</ele>
  <time>2026-08-28T17:51:41Z</time>
  <course>247.82</course>
  <speed>0.0316227766016838</speed>
  <fix>3d</fix>
</trkpt>
<trkpt lat="40.0713749" lon="-105.229789">
  <ele>1583.0</ele>
  <time>2026-08-28T17:51:41Z</time>
  <course>0.0</course>
  <speed>0.0</speed>
  <fix>3d</fix>
</trkpt>
<trkpt lat="40.0713749" lon="-105.229789">
  <ele>1583.0</ele>
  <time>2026-08-28T17:51:41Z</time>
  <course>247.81</course>
  <speed>0.0316227766016838</speed>
  <fix>3d</fix>
</trkpt>
<trkpt lat="40.0713749" lon="-105.229789">
  <ele>1583.0</ele>
  <time>2026-08-28T17:51:41Z</time>
  <course>0.0</course>
  <speed>0.0</speed>
  <fix>3d</fix>
</trkpt>
<trkpt lat="40.0713749" lon="-105.229789">
  <ele>1583.0</ele>
  <time>2026-08-28T17:51:41Z</time>
  <course>247.81</course>
  <speed>0.0316227766016838</speed>
  <fix>3d</fix>
</trkpt>
<trkpt lat="40.0713749" lon="-105.229789">
  <ele>1583.0</ele>
  <time>2026-08-28T17:51:41Z</time>
  <course>0.0</course>
  <speed>0.0</speed>
  <fix>3d</fix>
</trkpt>
<trkpt lat="40.0713749" lon="-105.229789">
  <ele>1583.0</ele>
  <time>2026-08-28T17:51:41Z</time>
  <course>247.8</course>
  <speed>0.0316227766016838</speed>
  <fix>3d</fix>
</trkpt>
<trkpt lat="40.0713749" lon="-105.229789">
  <ele>1583.0</ele>
  <time>2026-08-28T17:51:41Z</time>
  <course>0.0</course>
  <speed>0.0</speed>
  <fix>3d</fix>
</trkpt>
<trkpt lat="40.0713749" lon="-105.229789">
  <ele>1583.0</ele>
  <time>2026-08-28T17:51:41Z</time>
  <course>247.8</course>
  <speed>0.0316227766016838</speed>
  <fix>3d</fix>
</trkpt>
<trkpt lat="40.0713749" lon="-105.229789">
  <ele>1583.0</ele>
  <time>2026-08-28T17:51:41Z</time>
  <course>0.0</course>
  <speed>0.0</speed>
  <fix>3d</fix>
</trkpt>
<trkpt lat="40.0713749" lon="-105.229789">
  <ele>1583.0</ele>
  <time>2026-08-28T17:51:41Z</time>
  <course>247.8</course>
  <speed>0.0316227766016838</speed>
  <fix>3d</fix>
</trkpt>
<trkpt lat="40.0713749" lon="-105.229789">
  <ele>1583.0</ele>
  <time>2026-08-28T17:51:41Z</time>
  <course>0.0</course>
  <speed>0.0</speed>
  <fix>3d</fix>
</trkpt>
<trkpt lat="40.0713749" lon="-105.229789">
  <ele>1583.0</ele>
  <time>2026-08-28T17:51:41Z</time>
  <course>247.79</course>
  <speed>0.0316227766016838</speed>
  <fix>3d</fix>
</trkpt>
<trkpt lat="40.0713749" lon="-105.229789">
  <ele>1583.0</ele>
  <time>2026-08-28T17:51:41Z</time>
  <course>0.0</course>
  <speed>0.0</speed>
  <fix>3d</fix>
</trkpt>
<trkpt lat="40.0713749" lon="-105.229789">
  <ele>1583.0</ele>
  <time>2026-08-28T17:51:41Z</time>
  <course>247.79</course>
  <speed>0.0316227766016838</speed>
  <fix>3d</fix>
</trkpt>
<trkpt lat="40.0713749" lon="-105.229789">
  <ele>1583.0</ele>
  <time>2026-08-28T17:51:41Z</time>
  <course>0.0</course>
  <speed>0.0</speed>
  <fix>3d</fix>
</trkpt>
<trkpt lat="40.0713749" lon="-105.229789">
  <ele>1583.0</ele>
  <time>2026-08-28T17:51:41Z</time>
  <course>247.79</course>
  <speed>0.0316227766016838</speed>
  <fix>3d</fix>
</trkpt>
<trkpt lat="40.0713749" lon="-105.229789">
  <ele>1583.0</ele>
  <time>2026-08-28T17:51:41Z</time>
  <course>0.0</course>
  <speed>0.0</speed>
  <fix>3d</fix>
</trkpt>
<trkpt lat="40.0713749" lon="-105.229789">
  <ele>1583.0</ele>
  <time>2026-08-28T17:51:41Z</time>
  <course>247.78</course>
  <speed>0.0316227766016838</speed>
  <fix>3d</fix>
</trkpt>
<trkpt lat="40.0713749" lon="-105.229789">
  <ele>1583.0</ele>
  <time>2026-08-28T17:51:41Z</time>
  <course>0.0</course>
  <speed>0.0</speed>
  <fix>3d</fix>
</trkpt>
<trkpt lat="40.0713749" lon="-105.229789">
  <ele>1583.0</ele>
  <time>2026-08-28T17:51:41Z</time>
  <course>247.78</course>
  <speed>0.0316227766016838</speed>
  <fix>3d</fix>
</trkpt>
<trkpt lat="40.0713749" lon="-105.229789">
  <ele>1583.0</ele>
  <time>2026-08-28T17:51:41Z</time>
  <course>0.0</course>
  <speed>0.0</speed>
  <fix>3d</fix>
</trkpt>
<trkpt lat="40.0713749" lon="-105.229789">
  <ele>1583.0</ele>
  <time>2026-08-28T17:51:41Z</time>
  <course>247.78</course>
  <speed>0.0316227766016838</speed>
  <fix>3d</fix>
</trkpt>
<trkpt lat="40.0713749" lon="-105.229789">
  <ele>1583.0</ele>
  <time>2026-08-28T17:51:41Z</time>
  <course>0.0</course>
  <speed>0.0</speed>
  <fix>3d</fix>
</trkpt>
<trkpt lat="40.0713749" lon="-105.229789">
  <ele>1583.0</ele>
  <time>2026-08-28T17:51:41Z</time>
  <course>247.77</course>
  <speed>0.0316227766016838</speed>
  <fix>3d</fix>
</trkpt>
<trkpt lat="40.0713749" lon="-105.229789">
  <ele>1583.0</ele>
  <time>2026-08-28T17:51:41Z</time>
  <course>0.0</course>
  <speed>0.0</speed>
  <fix>3d</fix>
</trkpt>
<trkpt lat="40.0713749" lon="-105.229789">
  <ele>1583.0</ele>
  <time>2026-08-28T17:51:41Z</time>
  <course>247.77</course>
  <speed>0.0316227766016838</speed>
  <fix>3d</fix>
</trkpt>
<trkpt lat="40.0713749" lon="-105.229789">
  <ele>1583.0</ele>
  <time>2026-08-28T17:51:41Z</time>
  <course>0.0</course>
  <speed>0.0</speed>
  <fix>3d</fix>
</trkpt>
<trkpt lat="40.0713749" lon="-105.229789">
  <ele>1583.0</ele>
  <time>2026-08-28T17:51:41Z</time>
  <course>247.76</course>
  <speed>0.0316227766016838</speed>
  <fix>3d</fix>
</trkpt>
<trkpt lat="40.0713749" lon="-105.229789">
  <ele>1583.0</ele>
  <time>2026-08-28T17:51:41Z</time>
  <course>0.0</course>
  <speed>0.0</speed>
  <fix>3d</fix>
</trkpt>
<trkpt lat="40.0713749" lon="-105.229789">
  <ele>1583.0</ele>
  <time>2026-08-28T17:51:41Z</time>
  <course>247.76</course>
  <speed>0.0316227766016838</speed>
  <fix>3d</fix>
</trkpt>
<trkpt lat="40.0713749" lon="-105.229789">
  <ele>1583.0</ele>
  <time>2026-08-28T17:51:41Z</time>
  <course>0.0</course>
  <speed>0.0</speed>
  <fix>3d</fix>
</trkpt>
<trkpt lat="40.0713749" lon="-105.229789">
  <ele>1583.0</ele>
  <time>2026-08-28T17:51:41Z</time>
  <course>247.76</course>
  <speed>0.0316227766016838</speed>
  <fix>3d</fix>
</trkpt>
<trkpt lat="40.0713749" lon="-105.229789">
  <ele>1583.0</ele>
  <time>2026-08-28T17:51:41Z</time>
  <course>0.0</course>
  <speed>0.0</speed>
  <fix>3d</fix>
</trkpt>
<trkpt lat="40.0713749" lon="-105.229789">
  <ele>1583.0</ele>
  <time>2026-08-28T17:51:41Z</time>
  <course>247.75</course>
  <speed>0.0316227766016838</speed>
  <fix>3d</fix>
</trkpt>
<trkpt lat="40.0713749" lon="-105.229789">
  <ele>1583.0</ele>
  <time>2026-08-28T17:51:41Z</time>
  <course>0.0</course>
  <speed>0.0</speed>
  <fix>3d</fix>
</trkpt>
<trkpt lat="40.0713749" lon="-105.229789">
  <ele>1583.0</ele>
  <time>2026-08-28T17:51:41Z</time>
  <course>247.75</course>
  <speed>0.0316227766016838</speed>
  <fix>3d</fix>
</trkpt>
<trkpt lat="40.0713749" lon="-105.229789">
  <ele>1583.0</ele>
  <time>2026-08-28T17:51:41Z</time>
  <course>0.0</course>
  <speed>0.0</speed>
  <fix>3d</fix>
</trkpt>
<trkpt lat="40.0713749" lon="-105.229789">
  <ele>1583.0</ele>
  <time>2026-08-28T17:51:41Z</time>
  <course>247.75</course>
  <speed>0.0316227766016838</speed>
  <fix>3d</fix>
</trkpt>
<trkpt lat="40.0713749" lon="-105.229789">
  <ele>1583.0</ele>
  <time>2026-08-28T17:51:41Z</time>
  <course>0.0</course>
  <speed>0.0</speed>
  <fix>3d</fix>
</trkpt>
<trkpt lat="40.0713749" lon="-105.229789">
  <ele>1583.0</ele>
  <time>2026-08-28T17:51:41Z</time>
  <course>247.74</course>
  <speed>0.0316227766016838</speed>
  <fix>3d</fix>
</trkpt>
<trkpt lat="40.0713749" lon="-105.229789">
  <ele>1583.0</ele>
  <time>2026-08-28T17:51:41Z</time>
  <course>0.0</course>
  <speed>0.0</speed>
  <fix>3d</fix>
</trkpt>
<trkpt lat="40.0713749" lon="-105.229789">
  <ele>1583.0</ele>
  <time>2026-08-28T17:51:41Z</time>
  <course>247.74</course>
  <speed>0.0316227766016838</speed>
  <fix>3d</fix>
</trkpt>
<trkpt lat="40.0713749" lon="-105.229789">
  <ele>1583.0</ele>
  <time>2026-08-28T17:51:41Z</time>
  <course>0.0</course>
  <speed>0.0</speed>
  <fix>3d</fix>
</trkpt>
<trkpt lat="40.0713749" lon="-105.229789">
  <ele>1583.0</ele>
  <time>2026-08-28T17:51:41Z</time>
  <course>247.74</course>
  <speed>0.0316227766016838</speed>
  <fix>3d</fix>
</trkpt>
<trkpt lat="40.0713749" lon="-105.229789">
  <ele>1583.0</ele>
  <time>2026-08-28T17:51:41Z</time>
  <course>0.0</course>
  <speed>0.0</speed>
  <fix>3d</fix>
</trkpt>
<trkpt lat="40.0713749" lon="-105.229789">
  <ele>1583.0</ele>
  <time>2026-08-28T17:51:41Z</time>
  <course>247.73</course>
  <speed>0.0316227766016838</speed>
  <fix>3d</fix>
</trkpt>
<trkpt lat="40.0713749" lon="-105.229789">
  <ele>1583.0</ele>
  <time>2026-08-28T17:51:41Z</time>
  <course>0.0</course>
  <speed>0.0</speed>
  <fix>3d</fix>
</trkpt>
<trkpt lat="40.0713749" lon="-105.229789">
  <ele>1583.0</ele>
  <time>2026-08-28T17:51:41Z</time>
  <course>247.73</course>
  <speed>0.0316227766016838</speed>
  <fix>3d</fix>
</trkpt>
<trkpt lat="40.0713749" lon="-105.229789">
  <ele>1583.0</ele>
  <time>2026-08-28T17:51:41Z</time>
  <course>0.0</course>
  <speed>0.0</speed>
  <fix>3d</fix>
</trkpt>
<trkpt lat="40.0713749" lon="-105.229789">
  <ele>1583.0</ele>
  <time>2026-08-28T17:51:41Z</time>
  <course>247.73</course>
  <speed>0.0316227766016838</speed>
  <fix>3d</fix>
</trkpt>
<trkpt lat="40.0713749" lon="-105.229789">
  <ele>1583.0</ele>
  <time>2026-08-28T17:51:41Z</time>
  <course>0.0</course>
  <speed>0.0</speed>
  <fix>3d</fix>
</trkpt>
<trkpt lat="40.0713749" lon="-105.229789">
  <ele>1583.0</ele>
  <time>2026-08-28T17:51:41Z</time>
  <course>247.72</course>
  <speed>0.0316227766016838</speed>
  <fix>3d</fix>
</trkpt>
<trkpt lat="40.0713749" lon="-105.229789">
  <ele>1583.0</ele>
  <time>2026-08-28T17:51:41Z</time>
  <course>0.0</course>
  <speed>0.0</speed>
  <fix>3d</fix>
</trkpt>
<trkpt lat="40.0713749" lon="-105.229789">
  <ele>1583.0</ele>
  <time>2026-08-28T17:51:41Z</time>
  <course>247.72</course>
  <speed>0.0316227766016838</speed>
  <fix>3d</fix>
</trkpt>
<trkpt lat="40.0713749" lon="-105.229789">
  <ele>1583.0</ele>
  <time>2026-08-28T17:51:41Z</time>
  <course>0.0</course>
  <speed>0.0</speed>
  <fix>3d</fix>
</trkpt>
<trkpt lat="40.0713749" lon="-105.229789">
  <ele>1583.0</ele>
  <time>2026-08-28T17:51:41Z</time>
  <course>247.72</course>
  <speed>0.0316227766016838</speed>
  <fix>3d</fix>
</trkpt>
<trkpt lat="40.0713749" lon="-105.229789">
  <ele>1583.0</ele>
  <time>2026-08-28T17:51:41Z</time>
  <course>0.0</course>
  <speed>0.0</speed>
  <fix>3d</fix>
</trkpt>
<trkpt lat="40.0713749" lon="-105.229789">
  <ele>1583.0</ele>
  <time>2026-08-28T17:51:41Z</time>
  <course>247.71</course>
  <speed>0.0316227766016838</speed>
  <fix>3d</fix>
</trkpt>
<trkpt lat="40.0713749" lon="-105.229789">
  <ele>1583.0</ele>
  <time>2026-08-28T17:51:41Z</time>
  <course>0.0</course>
  <speed>0.0</speed>
  <fix>3d</fix>
</trkpt>
<trkpt lat="40.0713749" lon="-105.229789">
  <ele>1583.0</ele>
  <time>2026-08-28T17:51:41Z</time>
  <course>247.71</course>
  <speed>0.0316227766016838</speed>
  <fix>3d</fix>
</trkpt>
<trkpt lat="40.0713749" lon="-105.229789">
  <ele>1583.0</ele>
  <time>2026-08-28T17:51:41Z</time>
  <course>0.0</course>
  <speed>0.0</speed>
  <fix>3d</fix>
</trkpt>
<trkpt lat="40.0713749" lon="-105.229789">
  <ele>1583.0</ele>
  <time>2026-08-28T17:51:41Z</time>
  <course>247.71</course>
  <speed>0.0316227766016838</speed>
  <fix>3d</fix>
</trkpt>
<trkpt lat="40.0713749" lon="-105.229789">
  <ele>1583.0</ele>
  <time>2026-08-28T17:51:41Z</time>
  <course>0.0</course>
  <speed>0.0</speed>
  <fix>3d</fix>
</trkpt>
<trkpt lat="40.0713749" lon="-105.229789">
  <ele>1583.0</ele>
  <time>2026-08-28T17:51:41Z</time>
  <course>247.7</course>
  <speed>0.0316227766016838</speed>
  <fix>3d</fix>
</trkpt>
<trkpt lat="40.0713749" lon="-105.229789">
  <ele>1583.0</ele>
  <time>2026-08-28T17:51:41Z</time>
  <course>0.0</course>
  <speed>0.0</speed>
  <fix>3d</fix>
</trkpt>
<trkpt lat="40.0713749" lon="-105.229789">
  <ele>1583.0</ele>
  <time>2026-08-28T17:51:41Z</time>
  <course>247.7</course>
  <speed>0.0316227766016838</speed>
  <fix>3d</fix>
</trkpt>
<trkpt lat="40.0713749" lon="-105.229789">
  <ele>1583.0</ele>
  <time>2026-08-28T17:51:41Z</time>
  <course>0.0</course>
  <speed>0.0</speed>
  <fix>3d</fix>
</trkpt>
<trkpt lat="40.0713749" lon="-105.229789">
  <ele>1583.0</ele>
  <time>2026-08-28T17:51:41Z</time>
  <course>247.7</course>
  <speed>0.0316227766016838</speed>
  <fix>3d</fix>
</trkpt>
<trkpt lat="40.0713749" lon="-105.229789">
  <ele>1583.0</ele>
  <time>2026-08-28T17:51:41Z</time>
  <course>0.0</course>
  <speed>0.0</speed>
  <fix>3d</fix>
</trkpt>
<trkpt lat="40.0713749" lon="-105.229789">
  <ele>1583.0</ele>
  <time>2026-08-28T17:51:41Z</time>
  <course>247.69</course>
  <speed>0.0316227766016838</speed>
  <fix>3d</fix>
</trkpt>
<trkpt lat="40.0713749" lon="-105.229789">
  <ele>1583.0</ele>
  <time>2026-08-28T17:51:41Z</time>
  <course>0.0</course>
  <speed>0.0</speed>
  <fix>3d</fix>
</trkpt>
<trkpt lat="40.0713749" lon="-105.229789">
  <ele>1583.0</ele>
  <time>2026-08-28T17:51:41Z</time>
  <course>247.69</course>
  <speed>0.0316227766016838</speed>
  <fix>3d</fix>
</trkpt>
<trkpt lat="40.0713749" lon="-105.229789">
  <ele>1583.0</ele>
  <time>2026-08-28T17:51:41Z</time>
  <course>0.0</course>
  <speed>0.0</speed>
  <fix>3d</fix>
</trkpt>
<trkpt lat="40.0713749" lon="-105.229789">
  <ele>1583.0</ele>
  <time>2026-08-28T17:51:41Z</time>
  <course>247.69</course>
  <speed>0.0316227766016838</speed>
  <fix>3d</fix>
</trkpt>
<trkpt lat="40.0713749" lon="-105.229789">
  <ele>1583.0</ele>
  <time>2026-08-28T17:51:41Z</time>
  <course>0.0</course>
  <speed>0.0</speed>
  <fix>3d</fix>
</trkpt>
<trkpt lat="40.0713749" lon="-105.229789">
  <ele>1583.0</ele>
  <time>2026-08-28T17:51:41Z</time>
  <course>247.68</course>
  <speed>0.0316227766016838</speed>
  <fix>3d</fix>
</trkpt>
<trkpt lat="40.0713749" lon="-105.229789">
  <ele>1583.0</ele>
  <time>2026-08-28T17:51:41Z</time>
  <course>0.0</course>
  <speed>0.0</speed>
  <fix>3d</fix>
</trkpt>
<trkpt lat="40.0713749" lon="-105.229789">
  <ele>1583.0</ele>
  <time>2026-08-28T17:51:41Z</time>
  <course>247.68</course>
  <speed>0.0316227766016838</speed>
  <fix>3d</fix>
</trkpt>
<trkpt lat="40.0713749" lon="-105.229789">
  <ele>1583.0</ele>
  <time>2026-08-28T17:51:41Z</time>
  <course>0.0</course>
  <speed>0.0</speed>
  <fix>3d</fix>
</trkpt>
<trkpt lat="40.0713749" lon="-105.229789">
  <ele>1583.0</ele>
  <time>2026-08-28T17:51:41Z</time>
  <course>247.68</course>
  <speed>0.0316227766016838</speed>
  <fix>3d</fix>
</trkpt>
<trkpt lat="40.0713749" lon="-105.229789">
  <ele>1583.0</ele>
  <time>2026-08-28T17:51:41Z</time>
  <course>0.0</course>
  <speed>0.0</speed>
  <fix>3d</fix>
</trkpt>
<trkpt lat="40.0713749" lon="-105.229789">
  <ele>1583.0</ele>
  <time>2026-08-28T17:51:41Z</time>
  <course>247.67</course>
  <speed>0.0316227766016838</speed>
  <fix>3d</fix>
</trkpt>
<trkpt lat="40.0713749" lon="-105.229789">
  <ele>1583.0</ele>
  <time>2026-08-28T17:51:41Z</time>
  <course>0.0</course>
  <speed>0.0</speed>
  <fix>3d</fix>
</trkpt>
<trkpt lat="40.0713749" lon="-105.229789">
  <ele>1583.0</ele>
  <time>2026-08-28T17:51:41Z</time>
  <course>247.67</course>
  <speed>0.0316227766016838</speed>
  <fix>3d</fix>
</trkpt>
<trkpt lat="40.0713749" lon="-105.229789">
  <ele>1583.0</ele>
  <time>2026-08-28T17:51:41Z</time>
  <course>0.0</course>
  <speed>0.0</speed>
  <fix>3d</fix>
</trkpt>
<trkpt lat="40.0713749" lon="-105.229789">
  <ele>1583.0</ele>
  <time>2026-08-28T17:51:41Z</time>
  <course>247.67</course>
  <speed>0.0316227766016838</speed>
  <fix>3d</fix>
</trkpt>
<trkpt lat="40.0713749" lon="-105.229789">
  <ele>1583.0</ele>
  <time>2026-08-28T17:51:41Z</time>
  <course>0.0</course>
  <speed>0.0</speed>
  <fix>3d</fix>
</trkpt>
<trkpt lat="40.0713749" lon="-105.229789">
  <ele>1583.0</ele>
  <time>2026-08-28T17:51:41Z</time>
  <course>247.66</course>
  <speed>0.0316227766016838</speed>
  <fix>3d</fix>
</trkpt>
<trkpt lat="40.0713749" lon="-105.229789">
  <ele>1583.0</ele>
  <time>2026-08-28T17:51:41Z</time>
  <course>0.0</course>
  <speed>0.0</speed>
  <fix>3d</fix>
</trkpt>
<trkpt lat="40.0713749" lon="-105.229789">
  <ele>1583.0</ele>
  <time>2026-08-28T17:51:41Z</time>
  <course>247.66</course>
  <speed>0.0316227766016838</speed>
  <fix>3d</fix>
</trkpt>
<trkpt lat="40.0713749" lon="-105.229789">
  <ele>1583.0</ele>
  <time>2026-08-28T17:51:41Z</time>
  <course>0.0</course>
  <speed>0.0</speed>
  <fix>3d</fix>
</trkpt>
<trkpt lat="40.0713749" lon="-105.229789">
  <ele>1583.0</ele>
  <time>2026-08-28T17:51:41Z</time>
  <course>247.66</course>
  <speed>0.0316227766016838</speed>
  <fix>3d</fix>
</trkpt>
<trkpt lat="40.0713749" lon="-105.229789">
  <ele>1583.0</ele>
  <time>2026-08-28T17:51:41Z</time>
  <course>0.0</course>
  <speed>0.0</speed>
  <fix>3d</fix>
</trkpt>
<trkpt lat="40.0713749" lon="-105.229789">
  <ele>1583.0</ele>
  <time>2026-08-28T17:51:41Z</time>
  <course>247.65</course>
  <speed>0.0316227766016838</speed>
  <fix>3d</fix>
</trkpt>
<trkpt lat="40.0713749" lon="-105.229789">
  <ele>1583.0</ele>
  <time>2026-08-28T17:51:41Z</time>
  <course>0.0</course>
  <speed>0.0</speed>
  <fix>3d</fix>
</trkpt>
<trkpt lat="40.0713749" lon="-105.229789">
  <ele>1583.0</ele>
  <time>2026-08-28T17:51:41Z</time>
  <course>247.65</course>
  <speed>0.0316227766016838</speed>
  <fix>3d</fix>
</trkpt>
<trkpt lat="40.0713749" lon="-105.229789">
  <ele>1583.0</ele>
  <time>2026-08-28T17:51:41Z</time>
  <course>0.0</course>
  <speed>0.0</speed>
  <fix>3d</fix>
</trkpt>
<trkpt lat="40.0713749" lon="-105.229789">
  <ele>1583.0</ele>
  <time>2026-08-28T17:51:41Z</time>
  <course>247.65</course>
  <speed>0.0316227766016838</speed>
  <fix>3d</fix>
</trkpt>
<trkpt lat="40.0713749" lon="-105.229789">
  <ele>1583.0</ele>
  <time>2026-08-28T17:51:41Z</time>
  <course>0.0</course>
  <speed>0.0</speed>
  <fix>3d</fix>
</trkpt>
<trkpt lat="40.0713749" lon="-105.229789">
  <ele>1583.0</ele>
  <time>2026-08-28T17:51:41Z</time>
  <course>247.64</course>
  <speed>0.0316227766016838</speed>
  <fix>3d</fix>
</trkpt>
<trkpt lat="40.0713749" lon="-105.229789">
  <ele>1583.0</ele>
  <time>2026-08-28T17:51:41Z</time>
  <course>0.0</course>
  <speed>0.0</speed>
  <fix>3d</fix>
</trkpt>
<trkpt lat="40.0713749" lon="-105.229789">
  <ele>1583.0</ele>
  <time>2026-08-28T17:51:41Z</time>
  <course>247.64</course>
  <speed>0.0316227766016838</speed>
  <fix>3d</fix>
</trkpt>
<trkpt lat="40.0713749" lon="-105.229789">
  <ele>1583.0</ele>
  <time>2026-08-28T17:51:41Z</time>
  <course>0.0</course>
  <speed>0.0</speed>
  <fix>3d</fix>
</trkpt>
<trkpt lat="40.0713749" lon="-105.229789">
  <ele>1583.0</ele>
  <time>2026-08-28T17:51:41Z</time>
  <course>247.64</course>
  <speed>0.0316227766016838</speed>
  <fix>3d</fix>
</trkpt>
<trkpt lat="40.0713749" lon="-105.229789">
  <ele>1583.0</ele>
  <time>2026-08-28T17:51:41Z</time>
  <course>0.0</course>
  <speed>0.0</speed>
  <fix>3d</fix>
</trkpt>
<trkpt lat="40.0713749" lon="-105.229789">
  <ele>1583.0</ele>
  <time>2026-08-28T17:51:41Z</time>
  <course>247.64</course>
  <speed>0.0316227766016838</speed>
  <fix>3d</fix>
</trkpt>
<trkpt lat="40.0713749" lon="-105.229789">
  <ele>1583.0</ele>
  <time>2026-08-28T17:51:41Z</time>
  <course>0.0</course>
  <speed>0.0</speed>
  <fix>3d</fix>
</trkpt>
<trkpt lat="40.0713749" lon="-105.229789">
  <ele>1583.0</ele>
  <time>2026-08-28T17:51:41Z</time>
  <course>247.63</course>
  <speed>0.0316227766016838</speed>
  <fix>3d</fix>
</trkpt>
<trkpt lat="40.0713749" lon="-105.229789">
  <ele>1583.0</ele>
  <time>2026-08-28T17:51:41Z</time>
  <course>0.0</course>
  <speed>0.0</speed>
  <fix>3d</fix>
</trkpt>
<trkpt lat="40.0713749" lon="-105.229789">
  <ele>1583.0</ele>
  <time>2026-08-28T17:51:41Z</time>
  <course>247.63</course>
  <speed>0.0316227766016838</speed>
  <fix>3d</fix>
</trkpt>
<trkpt lat="40.0713749" lon="-105.229789">
  <ele>1583.0</ele>
  <time>2026-08-28T17:51:41Z</time>
  <course>0.0</course>
  <speed>0.0</speed>
  <fix>3d</fix>
</trkpt>
<trkpt lat="40.0713749" lon="-105.229789">
  <ele>1583.0</ele>
  <time>2026-08-28T17:51:41Z</time>
  <course>247.63</course>
  <speed>0.0316227766016838</speed>
  <fix>3d</fix>
</trkpt>
<trkpt lat="40.0713749" lon="-105.229789">
  <ele>1583.0</ele>
  <time>2026-08-28T17:51:41Z</time>
  <course>0.0</course>
  <speed>0.0</speed>
  <fix>3d</fix>
</trkpt>
<trkpt lat="40.0713749" lon="-105.229789">
  <ele>1583.0</ele>
  <time>2026-08-28T17:51:41Z</time>
  <course>247.62</course>
  <speed>0.0316227766016838</speed>
  <fix>3d</fix>
</trkpt>
<trkpt lat="40.0713749" lon="-105.229789">
  <ele>1583.0</ele>
  <time>2026-08-28T17:51:41Z</time>
  <course>0.0</course>
  <speed>0.0</speed>
  <fix>3d</fix>
</trkpt>
<trkpt lat="40.0713749" lon="-105.229789">
  <ele>1583.0</ele>
  <time>2026-08-28T17:51:41Z</time>
  <course>247.62</course>
  <speed>0.0316227766016838</speed>
  <fix>3d</fix>
</trkpt>
<trkpt lat="40.0713749" lon="-105.229789">
  <ele>1583.0</ele>
  <time>2026-08-28T17:51:41Z</time>
  <course>0.0</course>
  <speed>0.0</speed>
  <fix>3d</fix>
</trkpt>
<trkpt lat="40.0713749" lon="-105.229789">
  <ele>1583.0</ele>
  <time>2026-08-28T17:51:41Z</time>
  <course>247.62</course>
  <speed>0.0316227766016838</speed>
  <fix>3d</fix>
</trkpt>
<trkpt lat="40.0713749" lon="-105.229789">
  <ele>1583.0</ele>
  <time>2026-08-28T17:51:41Z</time>
  <course>0.0</course>
  <speed>0.0</speed>
  <fix>3d</fix>
</trkpt>
<trkpt lat="40.0713749" lon="-105.229789">
  <ele>1583.0</ele>
  <time>2026-08-28T17:51:41Z</time>
  <course>247.62</course>
  <speed>0.0316227766016838</speed>
  <fix>3d</fix>
</trkpt>
<trkpt lat="40.0713749" lon="-105.229789">
  <ele>1583.0</ele>
  <time>2026-08-28T17:51:41Z</time>
  <course>0.0</course>
  <speed>0.0</speed>
  <fix>3d</fix>
</trkpt>
<trkpt lat="40.0713749" lon="-105.229789">
  <ele>1583.0</ele>
  <time>2026-08-28T17:51:41Z</time>
  <course>247.61</course>
  <speed>0.0316227766016838</speed>
  <fix>3d</fix>
</trkpt>
<trkpt lat="40.0713749" lon="-105.229789">
  <ele>1583.0</ele>
  <time>2026-08-28T17:51:41Z</time>
  <course>0.0</course>
  <speed>0.0</speed>
  <fix>3d</fix>
</trkpt>
<trkpt lat="40.0713749" lon="-105.229789">
  <ele>1583.0</ele>
  <time>2026-08-28T17:51:41Z</time>
  <course>247.61</course>
  <speed>0.0316227766016838</speed>
  <fix>3d</fix>
</trkpt>
<trkpt lat="40.0713749" lon="-105.229789">
  <ele>1583.0</ele>
  <time>2026-08-28T17:51:41Z</time>
  <course>0.0</course>
  <speed>0.0</speed>
  <fix>3d</fix>
</trkpt>
<trkpt lat="40.0713749" lon="-105.229789">
  <ele>1583.0</ele>
  <time>2026-08-28T17:51:41Z</time>
  <course>247.61</course>
  <speed>0.0316227766016838</speed>
  <fix>3d</fix>
</trkpt>
<trkpt lat="40.0713749" lon="-105.229789">
  <ele>1583.0</ele>
  <time>2026-08-28T17:51:41Z</time>
  <course>0.0</course>
  <speed>0.0</speed>
  <fix>3d</fix>
</trkpt>
<trkpt lat="40.0713749" lon="-105.229789">
  <ele>1583.0</ele>
  <time>2026-08-28T17:51:41Z</time>
  <course>247.6</course>
  <speed>0.0316227766016838</speed>
  <fix>3d</fix>
</trkpt>
<trkpt lat="40.0713749" lon="-105.229789">
  <ele>1583.0</ele>
  <time>2026-08-28T17:51:41Z</time>
  <course>0.0</course>
  <speed>0.0</speed>
  <fix>3d</fix>
</trkpt>
<trkpt lat="40.0713749" lon="-105.229789">
  <ele>1583.0</ele>
  <time>2026-08-28T17:51:41Z</time>
  <course>247.6</course>
  <speed>0.0316227766016838</speed>
  <fix>3d</fix>
</trkpt>
<trkpt lat="40.0713749" lon="-105.229789">
  <ele>1583.0</ele>
  <time>2026-08-28T17:51:41Z</time>
  <course>0.0</course>
  <speed>0.0</speed>
  <fix>3d</fix>
</trkpt>
<trkpt lat="40.0713749" lon="-105.229789">
  <ele>1583.0</ele>
  <time>2026-08-28T17:51:41Z</time>
  <course>247.6</course>
  <speed>0.0316227766016838</speed>
  <fix>3d</fix>
</trkpt>
<trkpt lat="40.0713749" lon="-105.229789">
  <ele>1583.0</ele>
  <time>2026-08-28T17:51:41Z</time>
  <course>0.0</course>
  <speed>0.0</speed>
  <fix>3d</fix>
</trkpt>
<trkpt lat="40.0713749" lon="-105.229789">
  <ele>1583.0</ele>
  <time>2026-08-28T17:51:41Z</time>
  <course>247.6</course>
  <speed>0.0316227766016838</speed>
  <fix>3d</fix>
</trkpt>
<trkpt lat="40.0713749" lon="-105.229789">
  <ele>1583.0</ele>
  <time>2026-08-28T17:51:41Z</time>
  <course>0.0</course>
  <speed>0.0</speed>
  <fix>3d</fix>
</trkpt>
<trkpt lat="40.0713749" lon="-105.229789">
  <ele>1583.0</ele>
  <time>2026-08-28T17:51:41Z</time>
  <course>247.59</course>
  <speed>0.0316227766016838</speed>
  <fix>3d</fix>
</trkpt>
<trkpt lat="40.0713749" lon="-105.229789">
  <ele>1583.0</ele>
  <time>2026-08-28T17:51:41Z</time>
  <course>0.0</course>
  <speed>0.0</speed>
  <fix>3d</fix>
</trkpt>
<trkpt lat="40.0713749" lon="-105.229789">
  <ele>1582.92</ele>
  <time>2026-08-28T17:51:41Z</time>
  <course>247.59</course>
  <speed>0.0</speed>
  <fix>3d</fix>
</trkpt>
<trkpt lat="40.0713749" lon="-105.229789">
  <ele>1583.0</ele>
  <time>2026-08-28T17:51:41Z</time>
  <course>0.0</course>
  <speed>0.0</speed>
  <fix>3d</fix>
</trkpt>
<trkpt lat="40.0713749" lon="-105.229789">
  <ele>1582.92</ele>
  <time>2026-08-28T17:51:41Z</time>
  <course>247.59</course>
  <speed>0.0</speed>
  <fix>3d</fix>
</trkpt>
<trkpt lat="40.0713749" lon="-105.229789">
  <ele>1583.0</ele>
  <time>2026-08-28T17:51:41Z</time>
  <course>0.0</course>
  <speed>0.0</speed>
  <fix>3d</fix>
</trkpt>
<trkpt lat="40.0713749" lon="-105.229789">
  <ele>1582.91</ele>
  <time>2026-08-28T17:51:41Z</time>
  <course>247.58</course>
  <speed>0.0</speed>
  <fix>3d</fix>
</trkpt>
<trkpt lat="40.0713749" lon="-105.229789">
  <ele>1583.0</ele>
  <time>2026-08-28T17:51:41Z</time>
  <course>0.0</course>
  <speed>0.0</speed>
  <fix>3d</fix>
</trkpt>
<trkpt lat="40.0713749" lon="-105.229789">
  <ele>1582.91</ele>
  <time>2026-08-28T17:51:41Z</time>
  <course>247.58</course>
  <speed>0.0</speed>
  <fix>3d</fix>
</trkpt>
<trkpt lat="40.0713749" lon="-105.229789">
  <ele>1583.0</ele>
  <time>2026-08-28T17:51:41Z</time>
  <course>0.0</course>
  <speed>0.0</speed>
  <fix>3d</fix>
</trkpt>
<trkpt lat="40.0713749" lon="-105.229789">
  <ele>1582.9</ele>
  <time>2026-08-28T17:51:41Z</time>
  <course>247.58</course>
  <speed>0.0</speed>
  <fix>3d</fix>
</trkpt>
<trkpt lat="40.0713749" lon="-105.229789">
  <ele>1583.0</ele>
  <time>2026-08-28T17:51:41Z</time>
  <course>0.0</course>
  <speed>0.0</speed>
  <fix>3d</fix>
</trkpt>
<trkpt lat="40.0713749" lon="-105.229789">
  <ele>1582.9</ele>
  <time>2026-08-28T17:51:41Z</time>
  <course>247.58</course>
  <speed>0.0</speed>
  <fix>3d</fix>
</trkpt>
<trkpt lat="40.0713749" lon="-105.229789">
  <ele>1583.0</ele>
  <time>2026-08-28T17:51:41Z</time>
  <course>0.0</course>
  <speed>0.0</speed>
  <fix>3d</fix>
</trkpt>
<trkpt lat="40.0713749" lon="-105.229789">
  <ele>1582.9</ele>
  <time>2026-08-28T17:51:41Z</time>
  <course>247.57</course>
  <speed>0.0</speed>
  <fix>3d</fix>
</trkpt>
<trkpt lat="40.0713749" lon="-105.229789">
  <ele>1583.0</ele>
  <time>2026-08-28T17:51:41Z</time>
  <course>0.0</course>
  <speed>0.0</speed>
  <fix>3d</fix>
</trkpt>
<trkpt lat="40.0713749" lon="-105.229789">
  <ele>1582.9</ele>
  <time>2026-08-28T17:51:41Z</time>
  <course>247.57</course>
  <speed>0.0</speed>
  <fix>3d</fix>
</trkpt>
<trkpt lat="40.0713749" lon="-105.229789">
  <ele>1583.0</ele>
  <time>2026-08-28T17:51:41Z</time>
  <course>0.0</course>
  <speed>0.0</speed>
  <fix>3d</fix>
</trkpt>
<trkpt lat="40.0713749" lon="-105.229789">
  <ele>1582.9</ele>
  <time>2026-08-28T17:51:41Z</time>
  <course>247.57</course>
  <speed>0.0</speed>
  <fix>3d</fix>
</trkpt>
<trkpt lat="40.0713749" lon="-105.229789">
  <ele>1583.0</ele>
  <time>2026-08-28T17:51:41Z</time>
  <course>0.0</course>
  <speed>0.0</speed>
  <fix>3d</fix>
</trkpt>
<trkpt lat="40.0713749" lon="-105.229789">
  <ele>1582.9</ele>
  <time>2026-08-28T17:51:41Z</time>
  <course>247.57</course>
  <speed>0.01</speed>
  <fix>3d</fix>
</trkpt>
<trkpt lat="40.0713749" lon="-105.229789">
  <ele>1583.0</ele>
  <time>2026-08-28T17:51:41Z</time>
  <course>0.0</course>
  <speed>0.0</speed>
  <fix>3d</fix>
</trkpt>
<trkpt lat="40.0713749" lon="-105.229789">
  <ele>1582.9</ele>
  <time>2026-08-28T17:51:41Z</time>
  <course>247.56</course>
  <speed>0.01</speed>
  <fix>3d</fix>
</trkpt>
<trkpt lat="40.0713749" lon="-105.229789">
  <ele>1583.0</ele>
  <time>2026-08-28T17:51:41Z</time>
  <course>0.0</course>
  <speed>0.0</speed>
  <fix>3d</fix>
</trkpt>
<trkpt lat="40.0713749" lon="-105.229789">
  <ele>1582.91</ele>
  <time>2026-08-28T17:51:41Z</time>
  <course>247.56</course>
  <speed>0.01</speed>
  <fix>3d</fix>
</trkpt>
<trkpt lat="40.0713749" lon="-105.229789">
  <ele>1583.0</ele>
  <time>2026-08-28T17:51:41Z</time>
  <course>0.0</course>
  <speed>0.0</speed>
  <fix>3d</fix>
</trkpt>
<trkpt lat="40.0713749" lon="-105.229789">
  <ele>1582.91</ele>
  <time>2026-08-28T17:51:41Z</time>
  <course>247.56</course>
  <speed>0.01</speed>
  <fix>3d</fix>
</trkpt>
<trkpt lat="40.0713749" lon="-105.229789">
  <ele>1583.0</ele>
  <time>2026-08-28T17:51:41Z</time>
  <course>0.0</course>
  <speed>0.0</speed>
  <fix>3d</fix>
</trkpt>
<trkpt lat="40.0713749" lon="-105.229789">
  <ele>1582.92</ele>
  <time>2026-08-28T17:51:41Z</time>
  <course>247.56</course>
  <speed>0.01</speed>
  <fix>3d</fix>
</trkpt>
<trkpt lat="40.0713749" lon="-105.229789">
  <ele>1583.0</ele>
  <time>2026-08-28T17:51:41Z</time>
  <course>0.0</course>
  <speed>0.0</speed>
  <fix>3d</fix>
</trkpt>
<trkpt lat="40.0713749" lon="-105.229789">
  <ele>1582.92</ele>
  <time>2026-08-28T17:51:41Z</time>
  <course>247.55</course>
  <speed>0.01</speed>
  <fix>3d</fix>
</trkpt>
<trkpt lat="40.0713749" lon="-105.229789">
  <ele>1583.0</ele>
  <time>2026-08-28T17:51:41Z</time>
  <course>0.0</course>
  <speed>0.0</speed>
  <fix>3d</fix>
</trkpt>
<trkpt lat="40.0713749" lon="-105.229789">
  <ele>1582.92</ele>
  <time>2026-08-28T17:51:41Z</time>
  <course>247.55</course>
  <speed>0.01</speed>
  <fix>3d</fix>
</trkpt>
<trkpt lat="40.0713749" lon="-105.229789">
  <ele>1583.0</ele>
  <time>2026-08-28T17:51:41Z</time>
  <course>0.0</course>
  <speed>0.0</speed>
  <fix>3d</fix>
</trkpt>
<trkpt lat="40.0713749" lon="-105.229789">
  <ele>1582.93</ele>
  <time>2026-08-28T17:51:41Z</time>
  <course>247.55</course>
  <speed>0.01</speed>
  <fix>3d</fix>
</trkpt>
<trkpt lat="40.0713749" lon="-105.229789">
  <ele>1583.0</ele>
  <time>2026-08-28T17:51:41Z</time>
  <course>0.0</course>
  <speed>0.0</speed>
  <fix>3d</fix>
</trkpt>
<trkpt lat="40.0713749" lon="-105.229789">
  <ele>1582.93</ele>
  <time>2026-08-28T17:51:41Z</time>
  <course>247.55</course>
  <speed>0.01</speed>
  <fix>3d</fix>
</trkpt>
<trkpt lat="40.0713749" lon="-105.229789">
  <ele>1583.0</ele>
  <time>2026-08-28T17:51:41Z</time>
  <course>0.0</course>
  <speed>0.0</speed>
  <fix>3d</fix>
</trkpt>
<trkpt lat="40.0713749" lon="-105.229789">
  <ele>1582.93</ele>
  <time>2026-08-28T17:51:41Z</time>
  <course>247.54</course>
  <speed>0.02</speed>
  <fix>3d</fix>
</trkpt>
<trkpt lat="40.0713749" lon="-105.229789">
  <ele>1583.0</ele>
  <time>2026-08-28T17:51:41Z</time>
  <course>0.0</course>
  <speed>0.0</speed>
  <fix>3d</fix>
</trkpt>
<trkpt lat="40.0713749" lon="-105.229789">
  <ele>1582.93</ele>
  <time>2026-08-28T17:51:41Z</time>
  <course>247.54</course>
  <speed>0.02</speed>
  <fix>3d</fix>
</trkpt>
<trkpt lat="40.0713749" lon="-105.229789">
  <ele>1583.0</ele>
  <time>2026-08-28T17:51:41Z</time>
  <course>0.0</course>
  <speed>0.0</speed>
  <fix>3d</fix>
</trkpt>
<trkpt lat="40.0713749" lon="-105.229789">
  <ele>1582.93</ele>
  <time>2026-08-28T17:51:41Z</time>
  <course>247.54</course>
  <speed>0.02</speed>
  <fix>3d</fix>
</trkpt>
<trkpt lat="40.0713749" lon="-105.229789">
  <ele>1583.0</ele>
  <time>2026-08-28T17:51:41Z</time>
  <course>0.0</course>
  <speed>0.0</speed>
  <fix>3d</fix>
</trkpt>
<trkpt lat="40.0713749" lon="-105.229789">
  <ele>1582.93</ele>
  <time>2026-08-28T17:51:41Z</time>
  <course>247.54</course>
  <speed>0.022360679774997897</speed>
  <fix>3d</fix>
</trkpt>
<trkpt lat="40.0713749" lon="-105.229789">
  <ele>1583.0</ele>
  <time>2026-08-28T17:51:41Z</time>
  <course>0.0</course>
  <speed>0.0</speed>
  <fix>3d</fix>
</trkpt>
<trkpt lat="40.0713749" lon="-105.229789">
  <ele>1582.94</ele>
  <time>2026-08-28T17:51:41Z</time>
  <course>247.53</course>
  <speed>0.022360679774997897</speed>
  <fix>3d</fix>
</trkpt>
<trkpt lat="40.0713749" lon="-105.229789">
  <ele>1583.0</ele>
  <time>2026-08-28T17:51:41Z</time>
  <course>0.0</course>
  <speed>0.0</speed>
  <fix>3d</fix>
</trkpt>
<trkpt lat="40.0713749" lon="-105.229789">
  <ele>1582.94</ele>
  <time>2026-08-28T17:51:41Z</time>
  <course>247.53</course>
  <speed>0.022360679774997897</speed>
  <fix>3d</fix>
</trkpt>
<trkpt lat="40.0713749" lon="-105.229789">
  <ele>1583.0</ele>
  <time>2026-08-28T17:51:41Z</time>
  <course>0.0</course>
  <speed>0.0</speed>
  <fix>3d</fix>
</trkpt>
<trkpt lat="40.071375" lon="-105.229789">
  <ele>1582.94</ele>
  <time>2026-08-28T17:51:41Z</time>
  <course>247.53</course>
  <speed>0.022360679774997897</speed>
  <fix>3d</fix>
</trkpt>
<trkpt lat="40.0713749" lon="-105.229789">
  <ele>1583.0</ele>
  <time>2026-08-28T17:51:41Z</time>
  <course>0.0</course>
  <speed>0.0</speed>
  <fix>3d</fix>
</trkpt>
<trkpt lat="40.071375" lon="-105.229789">
  <ele>1582.95</ele>
  <time>2026-08-28T17:51:41Z</time>
  <course>247.53</course>
  <speed>0.022360679774997897</speed>
  <fix>3d</fix>
</trkpt>
<trkpt lat="40.0713749" lon="-105.229789">
  <ele>1583.0</ele>
  <time>2026-08-28T17:51:41Z</time>
  <course>0.0</course>
  <speed>0.0</speed>
  <fix>3d</fix>
</trkpt>
<trkpt lat="40.071375" lon="-105.229789">
  <ele>1582.95</ele>
  <time>2026-08-28T17:51:41Z</time>
  <course>247.53</course>
  <speed>0.022360679774997897</speed>
  <fix>3d</fix>
</trkpt>
<trkpt lat="40.0713749" lon="-105.229789">
  <ele>1583.0</ele>
  <time>2026-08-28T17:51:41Z</time>
  <course>0.0</course>
  <speed>0.0</speed>
  <fix>3d</fix>
</trkpt>
<trkpt lat="40.071375" lon="-105.229789">
  <ele>1582.95</ele>
  <time>2026-08-28T17:51:41Z</time>
  <course>247.52</course>
  <speed>0.022360679774997897</speed>
  <fix>3d</fix>
</trkpt>
<trkpt lat="40.0713749" lon="-105.229789">
  <ele>1583.0</ele>
  <time>2026-08-28T17:51:41Z</time>
  <course>0.0</course>
  <speed>0.0</speed>
  <fix>3d</fix>
</trkpt>
<trkpt lat="40.071375" lon="-105.229789">
  <ele>1582.95</ele>
  <time>2026-08-28T17:51:41Z</time>
  <course>247.52</course>
  <speed>0.022360679774997897</speed>
  <fix>3d</fix>
</trkpt>
<trkpt lat="40.0713749" lon="-105.229789">
  <ele>1583.0</ele>
  <time>2026-08-28T17:51:41Z</time>
  <course>0.0</course>
  <speed>0.0</speed>
  <fix>3d</fix>
</trkpt>
<trkpt lat="40.071375" lon="-105.229789">
  <ele>1582.95</ele>
  <time>2026-08-28T17:51:41Z</time>
  <course>247.52</course>
  <speed>0.022360679774997897</speed>
  <fix>3d</fix>
</trkpt>
<trkpt lat="40.0713749" lon="-105.229789">
  <ele>1583.0</ele>
  <time>2026-08-28T17:51:41Z</time>
  <course>0.0</course>
  <speed>0.0</speed>
  <fix>3d</fix>
</trkpt>
<trkpt lat="40.071375" lon="-105.229789">
  <ele>1582.95</ele>
  <time>2026-08-28T17:51:41Z</time>
  <course>247.52</course>
  <speed>0.022360679774997897</speed>
  <fix>3d</fix>
</trkpt>
<trkpt lat="40.0713749" lon="-105.229789">
  <ele>1583.0</ele>
  <time>2026-08-28T17:51:41Z</time>
  <course>0.0</course>
  <speed>0.0</speed>
  <fix>3d</fix>
</trkpt>
<trkpt lat="40.071375" lon="-105.229789">
  <ele>1582.95</ele>
  <time>2026-08-28T17:51:41Z</time>
  <course>247.51</course>
  <speed>0.0316227766016838</speed>
  <fix>3d</fix>
</trkpt>
<trkpt lat="40.0713749" lon="-105.229789">
  <ele>1583.0</ele>
  <time>2026-08-28T17:51:41Z</time>
  <course>0.0</course>
  <speed>0.0</speed>
  <fix>3d</fix>
</trkpt>
<trkpt lat="40.071375" lon="-105.229789">
  <ele>1582.95</ele>
  <time>2026-08-28T17:51:41Z</time>
  <course>247.51</course>
  <speed>0.0316227766016838</speed>
  <fix>3d</fix>
</trkpt>
<trkpt lat="40.0713749" lon="-105.229789">
  <ele>1583.0</ele>
  <time>2026-08-28T17:51:41Z</time>
  <course>0.0</course>
  <speed>0.0</speed>
  <fix>3d</fix>
</trkpt>
<trkpt lat="40.071375" lon="-105.229789">
  <ele>1582.95</ele>
  <time>2026-08-28T17:51:41Z</time>
  <course>247.51</course>
  <speed>0.0316227766016838</speed>
  <fix>3d</fix>
</trkpt>
<trkpt lat="40.0713749" lon="-105.229789">
  <ele>1583.0</ele>
  <time>2026-08-28T17:51:41Z</time>
  <course>0.0</course>
  <speed>0.0</speed>
  <fix>3d</fix>
</trkpt>
<trkpt lat="40.071375" lon="-105.2297889">
  <ele>1582.95</ele>
  <time>2026-08-28T17:51:41Z</time>
  <course>247.51</course>
  <speed>0.0316227766016838</speed>
  <fix>3d</fix>
</trkpt>
<trkpt lat="40.0713749" lon="-105.229789">
  <ele>1583.0</ele>
  <time>2026-08-28T17:51:41Z</time>
  <course>0.0</course>
  <speed>0.0</speed>
  <fix>3d</fix>
</trkpt>
<trkpt lat="40.071375" lon="-105.2297889">
  <ele>1582.95</ele>
  <time>2026-08-28T17:51:41Z</time>
  <course>247.51</course>
  <speed>0.0316227766016838</speed>
  <fix>3d</fix>
</trkpt>
<trkpt lat="40.0713749" lon="-105.229789">
  <ele>1583.0</ele>
  <time>2026-08-28T17:51:41Z</time>
  <course>0.0</course>
  <speed>0.0</speed>
  <fix>3d</fix>
</trkpt>
<trkpt lat="40.071375" lon="-105.2297889">
  <ele>1582.95</ele>
  <time>2026-08-28T17:51:41Z</time>
  <course>247.5</course>
  <speed>0.0316227766016838</speed>
  <fix>3d</fix>
</trkpt>
<trkpt lat="40.0713749" lon="-105.229789">
  <ele>1583.0</ele>
  <time>2026-08-28T17:51:41Z</time>
  <course>0.0</course>
  <speed>0.0</speed>
  <fix>3d</fix>
</trkpt>
<trkpt lat="40.071375" lon="-105.2297889">
  <ele>1582.95</ele>
  <time>2026-08-28T17:51:41Z</time>
  <course>247.5</course>
  <speed>0.0316227766016838</speed>
  <fix>3d</fix>
</trkpt>
<trkpt lat="40.0713749" lon="-105.229789">
  <ele>1583.0</ele>
  <time>2026-08-28T17:51:41Z</time>
  <course>0.0</course>
  <speed>0.0</speed>
  <fix>3d</fix>
</trkpt>
<trkpt lat="40.071375" lon="-105.2297889">
  <ele>1582.95</ele>
  <time>2026-08-28T17:51:41Z</time>
  <course>247.5</course>
  <speed>0.0316227766016838</speed>
  <fix>3d</fix>
</trkpt>
<trkpt lat="40.0713749" lon="-105.229789">
  <ele>1583.0</ele>
  <time>2026-08-28T17:51:41Z</time>
  <course>0.0</course>
  <speed>0.0</speed>
  <fix>3d</fix>
</trkpt>
<trkpt lat="40.0713751" lon="-105.2297889">
  <ele>1582.95</ele>
  <time>2026-08-28T17:51:41Z</time>
  <course>247.5</course>
  <speed>0.0316227766016838</speed>
  <fix>3d</fix>
</trkpt>
<trkpt lat="40.0713749" lon="-105.229789">
  <ele>1583.0</ele>
  <time>2026-08-28T17:51:41Z</time>
  <course>0.0</course>
  <speed>0.0</speed>
  <fix>3d</fix>
</trkpt>
<trkpt lat="40.0713751" lon="-105.2297889">
  <ele>1582.96</ele>
  <time>2026-08-28T17:51:41Z</time>
  <course>247.49</course>
  <speed>0.0316227766016838</speed>
  <fix>3d</fix>
</trkpt>
<trkpt lat="40.0713749" lon="-105.229789">
  <ele>1583.0</ele>
  <time>2026-08-28T17:51:41Z</time>
  <course>0.0</course>
  <speed>0.0</speed>
  <fix>3d</fix>
</trkpt>
<trkpt lat="40.0713751" lon="-105.2297889">
  <ele>1582.96</ele>
  <time>2026-08-28T17:51:41Z</time>
  <course>247.49</course>
  <speed>0.0316227766016838</speed>
  <fix>3d</fix>
</trkpt>
<trkpt lat="40.0713749" lon="-105.229789">
  <ele>1583.0</ele>
  <time>2026-08-28T17:51:41Z</time>
  <course>0.0</course>
  <speed>0.0</speed>
  <fix>3d</fix>
</trkpt>
<trkpt lat="40.0713751" lon="-105.2297889">
  <ele>1582.97</ele>
  <time>2026-08-28T17:51:41Z</time>
  <course>247.49</course>
  <speed>0.0316227766016838</speed>
  <fix>3d</fix>
</trkpt>
<trkpt lat="40.0713749" lon="-105.229789">
  <ele>1583.0</ele>
  <time>2026-08-28T17:51:41Z</time>
  <course>0.0</course>
  <speed>0.0</speed>
  <fix>3d</fix>
</trkpt>
<trkpt lat="40.0713751" lon="-105.2297889">
  <ele>1582.98</ele>
  <time>2026-08-28T17:51:41Z</time>
  <course>247.49</course>
  <speed>0.0316227766016838</speed>
  <fix>3d</fix>
</trkpt>
<trkpt lat="40.0713749" lon="-105.229789">
  <ele>1583.0</ele>
  <time>2026-08-28T17:51:41Z</time>
  <course>0.0</course>
  <speed>0.0</speed>
  <fix>3d</fix>
</trkpt>
<trkpt lat="40.0713751" lon="-105.2297889">
  <ele>1582.98</ele>
  <time>2026-08-28T17:51:41Z</time>
  <course>247.49</course>
  <speed>0.0316227766016838</speed>
  <fix>3d</fix>
</trkpt>
<trkpt lat="40.0713749" lon="-105.229789">
  <ele>1583.0</ele>
  <time>2026-08-28T17:51:41Z</time>
  <course>0.0</course>
  <speed>0.0</speed>
  <fix>3d</fix>
</trkpt>
<trkpt lat="40.0713751" lon="-105.2297889">
  <ele>1582.99</ele>
  <time>2026-08-28T17:51:41Z</time>
  <course>247.48</course>
  <speed>0.0316227766016838</speed>
  <fix>3d</fix>
</trkpt>
<trkpt lat="40.0713749" lon="-105.229789">
  <ele>1583.0</ele>
  <time>2026-08-28T17:51:41Z</time>
  <course>0.0</course>
  <speed>0.0</speed>
  <fix>3d</fix>
</trkpt>
<trkpt lat="40.0713751" lon="-105.2297889">
  <ele>1583.0</ele>
  <time>2026-08-28T17:51:41Z</time>
  <course>247.48</course>
  <speed>0.022360679774997897</speed>
  <fix>3d</fix>
</trkpt>
<trkpt lat="40.0713749" lon="-105.229789">
  <ele>1583.0</ele>
  <time>2026-08-28T17:51:41Z</time>
  <course>0.0</course>
  <speed>0.0</speed>
  <fix>3d</fix>
</trkpt>
<trkpt lat="40.0713751" lon="-105.2297889">
  <ele>1583.01</ele>
  <time>2026-08-28T17:51:41Z</time>
  <course>247.48</course>
  <speed>0.022360679774997897</speed>
  <fix>3d</fix>
</trkpt>
<trkpt lat="40.0713749" lon="-105.229789">
  <ele>1583.0</ele>
  <time>2026-08-28T17:51:41Z</time>
  <course>0.0</course>
  <speed>0.0</speed>
  <fix>3d</fix>
</trkpt>
<trkpt lat="40.0713751" lon="-105.2297889">
  <ele>1583.01</ele>
  <time>2026-08-28T17:51:41Z</time>
  <course>247.48</course>
  <speed>0.022360679774997897</speed>
  <fix>3d</fix>
</trkpt>
<trkpt lat="40.0713749" lon="-105.229789">
  <ele>1583.0</ele>
  <time>2026-08-28T17:51:41Z</time>
  <course>0.0</course>
  <speed>0.0</speed>
  <fix>3d</fix>
</trkpt>
<trkpt lat="40.0713751" lon="-105.2297889">
  <ele>1583.01</ele>
  <time>2026-08-28T17:51:41Z</time>
  <course>247.47</course>
  <speed>0.022360679774997897</speed>
  <fix>3d</fix>
</trkpt>
<trkpt lat="40.0713749" lon="-105.229789">
  <ele>1583.0</ele>
  <time>2026-08-28T17:51:41Z</time>
  <course>0.0</course>
  <speed>0.0</speed>
  <fix>3d</fix>
</trkpt>
<trkpt lat="40.0713751" lon="-105.2297889">
  <ele>1583.01</ele>
  <time>2026-08-28T17:51:41Z</time>
  <course>247.47</course>
  <speed>0.022360679774997897</speed>
  <fix>3d</fix>
</trkpt>
<trkpt lat="40.0713749" lon="-105.229789">
  <ele>1583.0</ele>
  <time>2026-08-28T17:51:41Z</time>
  <course>0.0</course>
  <speed>0.0</speed>
  <fix>3d</fix>
</trkpt>
<trkpt lat="40.0713751" lon="-105.2297889">
  <ele>1583.01</ele>
  <time>2026-08-28T17:51:41Z</time>
  <course>247.47</course>
  <speed>0.022360679774997897</speed>
  <fix>3d</fix>
</trkpt>
<trkpt lat="40.0713749" lon="-105.229789">
  <ele>1583.0</ele>
  <time>2026-08-28T17:51:41Z</time>
  <course>0.0</course>
  <speed>0.0</speed>
  <fix>3d</fix>
</trkpt>
<trkpt lat="40.071375" lon="-105.2297889">
  <ele>1583.0</ele>
  <time>2026-08-28T17:51:41Z</time>
  <course>247.47</course>
  <speed>0.022360679774997897</speed>
  <fix>3d</fix>
</trkpt>
<trkpt lat="40.0713749" lon="-105.229789">
  <ele>1583.0</ele>
  <time>2026-08-28T17:51:41Z</time>
  <course>0.0</course>
  <speed>0.0</speed>
  <fix>3d</fix>
</trkpt>
<trkpt lat="40.0713751" lon="-105.2297889">
  <ele>1583.0</ele>
  <time>2026-08-28T17:51:41Z</time>
  <course>247.47</course>
  <speed>0.022360679774997897</speed>
  <fix>3d</fix>
</trkpt>
<trkpt lat="40.0713749" lon="-105.229789">
  <ele>1583.0</ele>
  <time>2026-08-28T17:51:41Z</time>
  <course>0.0</course>
  <speed>0.0</speed>
  <fix>3d</fix>
</trkpt>
<trkpt lat="40.071375" lon="-105.2297889">
  <ele>1583.0</ele>
  <time>2026-08-28T17:51:41Z</time>
  <course>247.46</course>
  <speed>0.022360679774997897</speed>
  <fix>3d</fix>
</trkpt>
<trkpt lat="40.0713749" lon="-105.229789">
  <ele>1583.0</ele>
  <time>2026-08-28T17:51:41Z</time>
  <course>0.0</course>
  <speed>0.0</speed>
  <fix>3d</fix>
</trkpt>
<trkpt lat="40.071375" lon="-105.2297889">
  <ele>1582.99</ele>
  <time>2026-08-28T17:51:41Z</time>
  <course>247.46</course>
  <speed>0.022360679774997897</speed>
  <fix>3d</fix>
</trkpt>
<trkpt lat="40.0713749" lon="-105.229789">
  <ele>1583.0</ele>
  <time>2026-08-28T17:51:41Z</time>
  <course>0.0</course>
  <speed>0.0</speed>
  <fix>3d</fix>
</trkpt>
<trkpt lat="40.071375" lon="-105.2297889">
  <ele>1582.99</ele>
  <time>2026-08-28T17:51:41Z</time>
  <course>247.46</course>
  <speed>0.022360679774997897</speed>
  <fix>3d</fix>
</trkpt>
<trkpt lat="40.0713749" lon="-105.229789">
  <ele>1583.0</ele>
  <time>2026-08-28T17:51:41Z</time>
  <course>0.0</course>
  <speed>0.0</speed>
  <fix>3d</fix>
</trkpt>
<trkpt lat="40.071375" lon="-105.2297889">
  <ele>1582.99</ele>
  <time>2026-08-28T17:51:41Z</time>
  <course>247.46</course>
  <speed>0.022360679774997897</speed>
  <fix>3d</fix>
</trkpt>
<trkpt lat="40.0713749" lon="-105.229789">
  <ele>1583.0</ele>
  <time>2026-08-28T17:51:41Z</time>
  <course>0.0</course>
  <speed>0.0</speed>
  <fix>3d</fix>
</trkpt>
<trkpt lat="40.071375" lon="-105.2297889">
  <ele>1582.99</ele>
  <time>2026-08-28T17:51:41Z</time>
  <course>247.45</course>
  <speed>0.022360679774997897</speed>
  <fix>3d</fix>
</trkpt>
<trkpt lat="40.0713749" lon="-105.229789">
  <ele>1583.0</ele>
  <time>2026-08-28T17:51:41Z</time>
  <course>0.0</course>
  <speed>0.0</speed>
  <fix>3d</fix>
</trkpt>
<trkpt lat="40.071375" lon="-105.2297889">
  <ele>1582.99</ele>
  <time>2026-08-28T17:51:41Z</time>
  <course>247.45</course>
  <speed>0.022360679774997897</speed>
  <fix>3d</fix>
</trkpt>
<trkpt lat="40.0713749" lon="-105.229789">
  <ele>1583.0</ele>
  <time>2026-08-28T17:51:41Z</time>
  <course>0.0</course>
  <speed>0.0</speed>
  <fix>3d</fix>
</trkpt>
<trkpt lat="40.071375" lon="-105.2297889">
  <ele>1582.99</ele>
  <time>2026-08-28T17:51:41Z</time>
  <course>247.45</course>
  <speed>0.022360679774997897</speed>
  <fix>3d</fix>
</trkpt>
<trkpt lat="40.0713749" lon="-105.229789">
  <ele>1583.0</ele>
  <time>2026-08-28T17:51:41Z</time>
  <course>0.0</course>
  <speed>0.0</speed>
  <fix>3d</fix>
</trkpt>
<trkpt lat="40.071375" lon="-105.2297889">
  <ele>1582.99</ele>
  <time>2026-08-28T17:51:41Z</time>
  <course>247.45</course>
  <speed>0.022360679774997897</speed>
  <fix>3d</fix>
</trkpt>
<trkpt lat="40.0713749" lon="-105.229789">
  <ele>1583.0</ele>
  <time>2026-08-28T17:51:41Z</time>
  <course>0.0</course>
  <speed>0.0</speed>
  <fix>3d</fix>
</trkpt>
<trkpt lat="40.071375" lon="-105.2297889">
  <ele>1583.0</ele>
  <time>2026-08-28T17:51:41Z</time>
  <course>247.45</course>
  <speed>0.022360679774997897</speed>
  <fix>3d</fix>
</trkpt>
<trkpt lat="40.0713749" lon="-105.229789">
  <ele>1583.0</ele>
  <time>2026-08-28T17:51:41Z</time>
  <course>0.0</course>
  <speed>0.0</speed>
  <fix>3d</fix>
</trkpt>
<trkpt lat="40.071375" lon="-105.2297889">
  <ele>1583.0</ele>
  <time>2026-08-28T17:51:41Z</time>
  <course>247.44</course>
  <speed>0.022360679774997897</speed>
  <fix>3d</fix>
</trkpt>
<trkpt lat="40.0713749" lon="-105.229789">
  <ele>1583.0</ele>
  <time>2026-08-28T17:51:41Z</time>
  <course>0.0</course>
  <speed>0.0</speed>
  <fix>3d</fix>
</trkpt>
<trkpt lat="40.071375" lon="-105.229789">
  <ele>1583.0</ele>
  <time>2026-08-28T17:51:41Z</time>
  <course>247.44</course>
  <speed>0.02</speed>
  <fix>3d</fix>
</trkpt>
<trkpt lat="40.0713749" lon="-105.229789">
  <ele>1583.0</ele>
  <time>2026-08-28T17:51:41Z</time>
  <course>0.0</course>
  <speed>0.0</speed>
  <fix>3d</fix>
</trkpt>
<trkpt lat="40.071375" lon="-105.229789">
  <ele>1583.0</ele>
  <time>2026-08-28T17:51:41Z</time>
  <course>247.44</course>
  <speed>0.02</speed>
  <fix>3d</fix>
</trkpt>
<trkpt lat="40.0713749" lon="-105.229789">
  <ele>1583.0</ele>
  <time>2026-08-28T17:51:41Z</time>
  <course>0.0</course>
  <speed>0.0</speed>
  <fix>3d</fix>
</trkpt>
<trkpt lat="40.071375" lon="-105.229789">
  <ele>1583.0</ele>
  <time>2026-08-28T17:51:41Z</time>
  <course>247.44</course>
  <speed>0.02</speed>
  <fix>3d</fix>
</trkpt>
<trkpt lat="40.0713749" lon="-105.229789">
  <ele>1583.0</ele>
  <time>2026-08-28T17:51:41Z</time>
  <course>0.0</course>
  <speed>0.0</speed>
  <fix>3d</fix>
</trkpt>
<trkpt lat="40.071375" lon="-105.229789">
  <ele>1583.01</ele>
  <time>2026-08-28T17:51:41Z</time>
  <course>247.43</course>
  <speed>0.02</speed>
  <fix>3d</fix>
</trkpt>
<trkpt lat="40.0713749" lon="-105.229789">
  <ele>1583.0</ele>
  <time>2026-08-28T17:51:41Z</time>
  <course>0.0</course>
  <speed>0.0</speed>
  <fix>3d</fix>
</trkpt>
<trkpt lat="40.071375" lon="-105.229789">
  <ele>1583.01</ele>
  <time>2026-08-28T17:51:41Z</time>
  <course>247.43</course>
  <speed>0.02</speed>
  <fix>3d</fix>
</trkpt>
<trkpt lat="40.0713749" lon="-105.229789">
  <ele>1583.0</ele>
  <time>2026-08-28T17:51:41Z</time>
  <course>0.0</course>
  <speed>0.0</speed>
  <fix>3d</fix>
</trkpt>
<trkpt lat="40.071375" lon="-105.229789">
  <ele>1583.01</ele>
  <time>2026-08-28T17:51:41Z</time>
  <course>247.43</course>
  <speed>0.02</speed>
  <fix>3d</fix>
</trkpt>
<trkpt lat="40.0713749" lon="-105.229789">
  <ele>1583.0</ele>
  <time>2026-08-28T17:51:41Z</time>
  <course>0.0</course>
  <speed>0.0</speed>
  <fix>3d</fix>
</trkpt>
<trkpt lat="40.071375" lon="-105.229789">
  <ele>1583.01</ele>
  <time>2026-08-28T17:51:41Z</time>
  <course>247.43</course>
  <speed>0.02</speed>
  <fix>3d</fix>
</trkpt>
<trkpt lat="40.0713749" lon="-105.229789">
  <ele>1583.0</ele>
  <time>2026-08-28T17:51:41Z</time>
  <course>0.0</course>
  <speed>0.0</speed>
  <fix>3d</fix>
</trkpt>
<trkpt lat="40.071375" lon="-105.229789">
  <ele>1583.01</ele>
  <time>2026-08-28T17:51:41Z</time>
  <course>247.43</course>
  <speed>0.02</speed>
  <fix>3d</fix>
</trkpt>
<trkpt lat="40.0713749" lon="-105.229789">
  <ele>1583.0</ele>
  <time>2026-08-28T17:51:41Z</time>
  <course>0.0</course>
  <speed>0.0</speed>
  <fix>3d</fix>
</trkpt>
<trkpt lat="40.071375" lon="-105.229789">
  <ele>1583.01</ele>
  <time>2026-08-28T17:51:41Z</time>
  <course>247.42</course>
  <speed>0.02</speed>
  <fix>3d</fix>
</trkpt>
<trkpt lat="40.0713749" lon="-105.229789">
  <ele>1583.0</ele>
  <time>2026-08-28T17:51:41Z</time>
  <course>0.0</course>
  <speed>0.0</speed>
  <fix>3d</fix>
</trkpt>
<trkpt lat="40.071375" lon="-105.229789">
  <ele>1583.01</ele>
  <time>2026-08-28T17:51:41Z</time>
  <course>247.42</course>
  <speed>0.02</speed>
  <fix>3d</fix>
</trkpt>
<trkpt lat="40.0713749" lon="-105.229789">
  <ele>1583.0</ele>
  <time>2026-08-28T17:51:41Z</time>
  <course>0.0</course>
  <speed>0.0</speed>
  <fix>3d</fix>
</trkpt>
<trkpt lat="40.071375" lon="-105.229789">
  <ele>1583.02</ele>
  <time>2026-08-28T17:51:41Z</time>
  <course>247.42</course>
  <speed>0.02</speed>
  <fix>3d</fix>
</trkpt>
<trkpt lat="40.0713749" lon="-105.229789">
  <ele>1583.0</ele>
  <time>2026-08-28T17:51:41Z</time>
  <course>0.0</course>
  <speed>0.0</speed>
  <fix>3d</fix>
</trkpt>
<trkpt lat="40.071375" lon="-105.229789">
  <ele>1583.01</ele>
  <time>2026-08-28T17:51:41Z</time>
  <course>247.42</course>
  <speed>0.02</speed>
  <fix>3d</fix>
</trkpt>
<trkpt lat="40.0713749" lon="-105.229789">
  <ele>1583.0</ele>
  <time>2026-08-28T17:51:41Z</time>
  <course>0.0</course>
  <speed>0.0</speed>
  <fix>3d</fix>
</trkpt>
<trkpt lat="40.071375" lon="-105.229789">
  <ele>1583.01</ele>
  <time>2026-08-28T17:51:41Z</time>
  <course>247.42</course>
  <speed>0.02</speed>
  <fix>3d</fix>
</trkpt>
<trkpt lat="40.0713749" lon="-105.229789">
  <ele>1583.0</ele>
  <time>2026-08-28T17:51:41Z</time>
  <course>0.0</course>
  <speed>0.0</speed>
  <fix>3d</fix>
</trkpt>
<trkpt lat="40.071375" lon="-105.229789">
  <ele>1583.01</ele>
  <time>2026-08-28T17:51:41Z</time>
  <course>247.41</course>
  <speed>0.02</speed>
  <fix>3d</fix>
</trkpt>
<trkpt lat="40.0713749" lon="-105.229789">
  <ele>1583.0</ele>
  <time>2026-08-28T17:51:41Z</time>
  <course>0.0</course>
  <speed>0.0</speed>
  <fix>3d</fix>
</trkpt>
<trkpt lat="40.071375" lon="-105.229789">
  <ele>1583.01</ele>
  <time>2026-08-28T17:51:41Z</time>
  <course>247.41</course>
  <speed>0.02</speed>
  <fix>3d</fix>
</trkpt>
<trkpt lat="40.0713749" lon="-105.229789">
  <ele>1583.0</ele>
  <time>2026-08-28T17:51:41Z</time>
  <course>0.0</course>
  <speed>0.0</speed>
  <fix>3d</fix>
</trkpt>
<trkpt lat="40.071375" lon="-105.229789">
  <ele>1583.01</ele>
  <time>2026-08-28T17:51:41Z</time>
  <course>247.41</course>
  <speed>0.02</speed>
  <fix>3d</fix>
</trkpt>
<trkpt lat="40.0713749" lon="-105.229789">
  <ele>1583.0</ele>
  <time>2026-08-28T17:51:41Z</time>
  <course>0.0</course>
  <speed>0.0</speed>
  <fix>3d</fix>
</trkpt>
<trkpt lat="40.071375" lon="-105.229789">
  <ele>1583.01</ele>
  <time>2026-08-28T17:51:41Z</time>
  <course>247.41</course>
  <speed>0.02</speed>
  <fix>3d</fix>
</trkpt>
<trkpt lat="40.0713749" lon="-105.229789">
  <ele>1583.0</ele>
  <time>2026-08-28T17:51:41Z</time>
  <course>0.0</course>
  <speed>0.0</speed>
  <fix>3d</fix>
</trkpt>
<trkpt lat="40.071375" lon="-105.229789">
  <ele>1583.02</ele>
  <time>2026-08-28T17:51:41Z</time>
  <course>247.41</course>
  <speed>0.02</speed>
  <fix>3d</fix>
</trkpt>
<trkpt lat="40.0713749" lon="-105.229789">
  <ele>1583.0</ele>
  <time>2026-08-28T17:51:41Z</time>
  <course>0.0</course>
  <speed>0.0</speed>
  <fix>3d</fix>
</trkpt>
<trkpt lat="40.071375" lon="-105.229789">
  <ele>1583.02</ele>
  <time>2026-08-28T17:51:41Z</time>
  <course>247.4</course>
  <speed>0.02</speed>
  <fix>3d</fix>
</trkpt>
<trkpt lat="40.0713749" lon="-105.229789">
  <ele>1583.0</ele>
  <time>2026-08-28T17:51:41Z</time>
  <course>0.0</course>
  <speed>0.0</speed>
  <fix>3d</fix>
</trkpt>
<trkpt lat="40.071375" lon="-105.229789">
  <ele>1583.02</ele>
  <time>2026-08-28T17:51:41Z</time>
  <course>247.4</course>
  <speed>0.02</speed>
  <fix>3d</fix>
</trkpt>
<trkpt lat="40.0713749" lon="-105.229789">
  <ele>1583.0</ele>
  <time>2026-08-28T17:51:41Z</time>
  <course>0.0</course>
  <speed>0.0</speed>
  <fix>3d</fix>
</trkpt>
<trkpt lat="40.071375" lon="-105.229789">
  <ele>1583.02</ele>
  <time>2026-08-28T17:51:41Z</time>
  <course>247.4</course>
  <speed>0.02</speed>
  <fix>3d</fix>
</trkpt>
<trkpt lat="40.0713749" lon="-105.229789">
  <ele>1583.0</ele>
  <time>2026-08-28T17:51:42Z</time>
  <course>0.0</course>
  <speed>0.0</speed>
  <fix>3d</fix>
</trkpt>
<trkpt lat="40.071375" lon="-105.229789">
  <ele>1583.02</ele>
  <time>2026-08-28T17:51:42Z</time>
  <course>247.4</course>
  <speed>0.02</speed>
  <fix>3d</fix>
</trkpt>
<trkpt lat="40.0713749" lon="-105.229789">
  <ele>1583.0</ele>
  <time>2026-08-28T17:51:42Z</time>
  <course>0.0</course>
  <speed>0.0</speed>
  <fix>3d</fix>
</trkpt>
<trkpt lat="40.071375" lon="-105.229789">
  <ele>1583.02</ele>
  <time>2026-08-28T17:51:42Z</time>
  <course>247.4</course>
  <speed>0.02</speed>
  <fix>3d</fix>
</trkpt>
<trkpt lat="40.0713749" lon="-105.229789">
  <ele>1583.0</ele>
  <time>2026-08-28T17:51:42Z</time>
  <course>0.0</course>
  <speed>0.0</speed>
  <fix>3d</fix>
</trkpt>
<trkpt lat="40.071375" lon="-105.229789">
  <ele>1583.02</ele>
  <time>2026-08-28T17:51:42Z</time>
  <course>247.39</course>
  <speed>0.02</speed>
  <fix>3d</fix>
</trkpt>
<trkpt lat="40.0713749" lon="-105.229789">
  <ele>1583.0</ele>
  <time>2026-08-28T17:51:42Z</time>
  <course>0.0</course>
  <speed>0.0</speed>
  <fix>3d</fix>
</trkpt>
<trkpt lat="40.071375" lon="-105.229789">
  <ele>1583.03</ele>
  <time>2026-08-28T17:51:42Z</time>
  <course>247.39</course>
  <speed>0.01</speed>
  <fix>3d</fix>
</trkpt>
<trkpt lat="40.0713749" lon="-105.229789">
  <ele>1583.0</ele>
  <time>2026-08-28T17:51:42Z</time>
  <course>0.0</course>
  <speed>0.0</speed>
  <fix>3d</fix>
</trkpt>
<trkpt lat="40.071375" lon="-105.229789">
  <ele>1583.03</ele>
  <time>2026-08-28T17:51:42Z</time>
  <course>247.39</course>
  <speed>0.02</speed>
  <fix>3d</fix>
</trkpt>
<trkpt lat="40.0713749" lon="-105.229789">
  <ele>1583.0</ele>
  <time>2026-08-28T17:51:42Z</time>
  <course>0.0</course>
  <speed>0.0</speed>
  <fix>3d</fix>
</trkpt>
<trkpt lat="40.071375" lon="-105.229789">
  <ele>1583.03</ele>
  <time>2026-08-28T17:51:42Z</time>
  <course>247.39</course>
  <speed>0.02</speed>
  <fix>3d</fix>
</trkpt>
<trkpt lat="40.0713749" lon="-105.229789">
  <ele>1583.0</ele>
  <time>2026-08-28T17:51:42Z</time>
  <course>0.0</course>
  <speed>0.0</speed>
  <fix>3d</fix>
</trkpt>
<trkpt lat="40.071375" lon="-105.229789">
  <ele>1583.03</ele>
  <time>2026-08-28T17:51:42Z</time>
  <course>247.39</course>
  <speed>0.02</speed>
  <fix>3d</fix>
</trkpt>
<trkpt lat="40.0713749" lon="-105.229789">
  <ele>1583.0</ele>
  <time>2026-08-28T17:51:42Z</time>
  <course>0.0</course>
  <speed>0.0</speed>
  <fix>3d</fix>
</trkpt>
<trkpt lat="40.071375" lon="-105.229789">
  <ele>1583.04</ele>
  <time>2026-08-28T17:51:42Z</time>
  <course>247.38</course>
  <speed>0.02</speed>
  <fix>3d</fix>
</trkpt>
<trkpt lat="40.0713749" lon="-105.229789">
  <ele>1583.0</ele>
  <time>2026-08-28T17:51:42Z</time>
  <course>0.0</course>
  <speed>0.0</speed>
  <fix>3d</fix>
</trkpt>
<trkpt lat="40.071375" lon="-105.229789">
  <ele>1583.04</ele>
  <time>2026-08-28T17:51:42Z</time>
  <course>247.38</course>
  <speed>0.02</speed>
  <fix>3d</fix>
</trkpt>
<trkpt lat="40.0713749" lon="-105.229789">
  <ele>1583.0</ele>
  <time>2026-08-28T17:51:42Z</time>
  <course>0.0</course>
  <speed>0.0</speed>
  <fix>3d</fix>
</trkpt>
<trkpt lat="40.071375" lon="-105.229789">
  <ele>1583.05</ele>
  <time>2026-08-28T17:51:42Z</time>
  <course>247.38</course>
  <speed>0.02</speed>
  <fix>3d</fix>
</trkpt>
<trkpt lat="40.0713749" lon="-105.229789">
  <ele>1583.0</ele>
  <time>2026-08-28T17:51:42Z</time>
  <course>0.0</course>
  <speed>0.0</speed>
  <fix>3d</fix>
</trkpt>
<trkpt lat="40.071375" lon="-105.229789">
  <ele>1583.05</ele>
  <time>2026-08-28T17:51:42Z</time>
  <course>247.38</course>
  <speed>0.02</speed>
  <fix>3d</fix>
</trkpt>
<trkpt lat="40.0713749" lon="-105.229789">
  <ele>1583.0</ele>
  <time>2026-08-28T17:51:42Z</time>
  <course>0.0</course>
  <speed>0.0</speed>
  <fix>3d</fix>
</trkpt>
<trkpt lat="40.071375" lon="-105.229789">
  <ele>1583.05</ele>
  <time>2026-08-28T17:51:42Z</time>
  <course>247.38</course>
  <speed>0.02</speed>
  <fix>3d</fix>
</trkpt>
<trkpt lat="40.0713749" lon="-105.229789">
  <ele>1583.0</ele>
  <time>2026-08-28T17:51:42Z</time>
  <course>0.0</course>
  <speed>0.0</speed>
  <fix>3d</fix>
</trkpt>
<trkpt lat="40.071375" lon="-105.229789">
  <ele>1583.05</ele>
  <time>2026-08-28T17:51:42Z</time>
  <course>247.38</course>
  <speed>0.02</speed>
  <fix>3d</fix>
</trkpt>
<trkpt lat="40.0713749" lon="-105.229789">
  <ele>1583.0</ele>
  <time>2026-08-28T17:51:42Z</time>
  <course>0.0</course>
  <speed>0.0</speed>
  <fix>3d</fix>
</trkpt>
<trkpt lat="40.071375" lon="-105.229789">
  <ele>1583.05</ele>
  <time>2026-08-28T17:51:42Z</time>
  <course>247.37</course>
  <speed>0.02</speed>
  <fix>3d</fix>
</trkpt>
<trkpt lat="40.0713749" lon="-105.229789">
  <ele>1583.0</ele>
  <time>2026-08-28T17:51:42Z</time>
  <course>0.0</course>
  <speed>0.0</speed>
  <fix>3d</fix>
</trkpt>
<trkpt lat="40.071375" lon="-105.229789">
  <ele>1583.06</ele>
  <time>2026-08-28T17:51:42Z</time>
  <course>247.37</course>
  <speed>0.02</speed>
  <fix>3d</fix>
</trkpt>
<trkpt lat="40.0713749" lon="-105.229789">
  <ele>1583.0</ele>
  <time>2026-08-28T17:51:42Z</time>
  <course>0.0</course>
  <speed>0.0</speed>
  <fix>3d</fix>
</trkpt>
<trkpt lat="40.071375" lon="-105.229789">
  <ele>1583.06</ele>
  <time>2026-08-28T17:51:42Z</time>
  <course>247.37</course>
  <speed>0.02</speed>
  <fix>3d</fix>
</trkpt>
<trkpt lat="40.0713749" lon="-105.229789">
  <ele>1583.0</ele>
  <time>2026-08-28T17:51:42Z</time>
  <course>0.0</course>
  <speed>0.0</speed>
  <fix>3d</fix>
</trkpt>
<trkpt lat="40.071375" lon="-105.229789">
  <ele>1583.06</ele>
  <time>2026-08-28T17:51:42Z</time>
  <course>247.37</course>
  <speed>0.02</speed>
  <fix>3d</fix>
</trkpt>
<trkpt lat="40.0713749" lon="-105.229789">
  <ele>1583.0</ele>
  <time>2026-08-28T17:51:42Z</time>
  <course>0.0</course>
  <speed>0.0</speed>
  <fix>3d</fix>
</trkpt>
<trkpt lat="40.071375" lon="-105.229789">
  <ele>1583.06</ele>
  <time>2026-08-28T17:51:42Z</time>
  <course>247.37</course>
  <speed>0.02</speed>
  <fix>3d</fix>
</trkpt>
<trkpt lat="40.0713749" lon="-105.229789">
  <ele>1583.0</ele>
  <time>2026-08-28T17:51:42Z</time>
  <course>0.0</course>
  <speed>0.0</speed>
  <fix>3d</fix>
</trkpt>
<trkpt lat="40.071375" lon="-105.229789">
  <ele>1583.06</ele>
  <time>2026-08-28T17:51:42Z</time>
  <course>247.37</course>
  <speed>0.02</speed>
  <fix>3d</fix>
</trkpt>
<trkpt lat="40.0713749" lon="-105.229789">
  <ele>1583.0</ele>
  <time>2026-08-28T17:51:42Z</time>
  <course>0.0</course>
  <speed>0.0</speed>
  <fix>3d</fix>
</trkpt>
<trkpt lat="40.071375" lon="-105.229789">
  <ele>1583.06</ele>
  <time>2026-08-28T17:51:42Z</time>
  <course>247.36</course>
  <speed>0.02</speed>
  <fix>3d</fix>
</trkpt>
<trkpt lat="40.0713749" lon="-105.229789">
  <ele>1583.0</ele>
  <time>2026-08-28T17:51:42Z</time>
  <course>0.0</course>
  <speed>0.0</speed>
  <fix>3d</fix>
</trkpt>
<trkpt lat="40.071375" lon="-105.229789">
  <ele>1583.06</ele>
  <time>2026-08-28T17:51:42Z</time>
  <course>247.36</course>
  <speed>0.02</speed>
  <fix>3d</fix>
</trkpt>
<trkpt lat="40.0713749" lon="-105.229789">
  <ele>1583.0</ele>
  <time>2026-08-28T17:51:42Z</time>
  <course>0.0</course>
  <speed>0.0</speed>
  <fix>3d</fix>
</trkpt>
<trkpt lat="40.071375" lon="-105.229789">
  <ele>1583.06</ele>
  <time>2026-08-28T17:51:42Z</time>
  <course>247.36</course>
  <speed>0.02</speed>
  <fix>3d</fix>
</trkpt>
<trkpt lat="40.0713749" lon="-105.229789">
  <ele>1583.0</ele>
  <time>2026-08-28T17:51:42Z</time>
  <course>0.0</course>
  <speed>0.0</speed>
  <fix>3d</fix>
</trkpt>
<trkpt lat="40.071375" lon="-105.229789">
  <ele>1583.06</ele>
  <time>2026-08-28T17:51:42Z</time>
  <course>247.36</course>
  <speed>0.02</speed>
  <fix>3d</fix>
</trkpt>
<trkpt lat="40.0713749" lon="-105.229789">
  <ele>1583.0</ele>
  <time>2026-08-28T17:51:42Z</time>
  <course>0.0</course>
  <speed>0.0</speed>
  <fix>3d</fix>
</trkpt>
<trkpt lat="40.071375" lon="-105.229789">
  <ele>1583.06</ele>
  <time>2026-08-28T17:51:42Z</time>
  <course>247.36</course>
  <speed>0.02</speed>
  <fix>3d</fix>
</trkpt>
<trkpt lat="40.0713749" lon="-105.229789">
  <ele>1583.0</ele>
  <time>2026-08-28T17:51:42Z</time>
  <course>0.0</course>
  <speed>0.0</speed>
  <fix>3d</fix>
</trkpt>
<trkpt lat="40.071375" lon="-105.229789">
  <ele>1583.05</ele>
  <time>2026-08-28T17:51:42Z</time>
  <course>247.35</course>
  <speed>0.02</speed>
  <fix>3d</fix>
</trkpt>
<trkpt lat="40.0713749" lon="-105.229789">
  <ele>1583.0</ele>
  <time>2026-08-28T17:51:42Z</time>
  <course>0.0</course>
  <speed>0.0</speed>
  <fix>3d</fix>
</trkpt>
<trkpt lat="40.071375" lon="-105.229789">
  <ele>1583.05</ele>
  <time>2026-08-28T17:51:42Z</time>
  <course>247.35</course>
  <speed>0.02</speed>
  <fix>3d</fix>
</trkpt>
<trkpt lat="40.0713749" lon="-105.229789">
  <ele>1583.0</ele>
  <time>2026-08-28T17:51:42Z</time>
  <course>0.0</course>
  <speed>0.0</speed>
  <fix>3d</fix>
</trkpt>
<trkpt lat="40.071375" lon="-105.229789">
  <ele>1583.04</ele>
  <time>2026-08-28T17:51:42Z</time>
  <course>247.35</course>
  <speed>0.02</speed>
  <fix>3d</fix>
</trkpt>
<trkpt lat="40.0713749" lon="-105.229789">
  <ele>1583.0</ele>
  <time>2026-08-28T17:51:42Z</time>
  <course>0.0</course>
  <speed>0.0</speed>
  <fix>3d</fix>
</trkpt>
<trkpt lat="40.071375" lon="-105.229789">
  <ele>1583.04</ele>
  <time>2026-08-28T17:51:42Z</time>
  <course>247.35</course>
  <speed>0.02</speed>
  <fix>3d</fix>
</trkpt>
<trkpt lat="40.0713749" lon="-105.229789">
  <ele>1583.0</ele>
  <time>2026-08-28T17:51:42Z</time>
  <course>0.0</course>
  <speed>0.0</speed>
  <fix>3d</fix>
</trkpt>
<trkpt lat="40.071375" lon="-105.229789">
  <ele>1583.04</ele>
  <time>2026-08-28T17:51:42Z</time>
  <course>247.35</course>
  <speed>0.02</speed>
  <fix>3d</fix>
</trkpt>
<trkpt lat="40.0713749" lon="-105.229789">
  <ele>1583.0</ele>
  <time>2026-08-28T17:51:42Z</time>
  <course>0.0</course>
  <speed>0.0</speed>
  <fix>3d</fix>
</trkpt>
<trkpt lat="40.071375" lon="-105.229789">
  <ele>1583.03</ele>
  <time>2026-08-28T17:51:42Z</time>
  <course>247.35</course>
  <speed>0.02</speed>
  <fix>3d</fix>
</trkpt>
<trkpt lat="40.0713749" lon="-105.229789">
  <ele>1583.0</ele>
  <time>2026-08-28T17:51:42Z</time>
  <course>0.0</course>
  <speed>0.0</speed>
  <fix>3d</fix>
</trkpt>
<trkpt lat="40.071375" lon="-105.229789">
  <ele>1583.03</ele>
  <time>2026-08-28T17:51:42Z</time>
  <course>247.34</course>
  <speed>0.02</speed>
  <fix>3d</fix>
</trkpt>
<trkpt lat="40.0713749" lon="-105.229789">
  <ele>1583.0</ele>
  <time>2026-08-28T17:51:42Z</time>
  <course>0.0</course>
  <speed>0.0</speed>
  <fix>3d</fix>
</trkpt>
<trkpt lat="40.071375" lon="-105.229789">
  <ele>1583.02</ele>
  <time>2026-08-28T17:51:42Z</time>
  <course>247.34</course>
  <speed>0.02</speed>
  <fix>3d</fix>
</trkpt>
<trkpt lat="40.0713749" lon="-105.229789">
  <ele>1583.0</ele>
  <time>2026-08-28T17:51:42Z</time>
  <course>0.0</course>
  <speed>0.0</speed>
  <fix>3d</fix>
</trkpt>
<trkpt lat="40.071375" lon="-105.229789">
  <ele>1583.02</ele>
  <time>2026-08-28T17:51:42Z</time>
  <course>247.34</course>
  <speed>0.02</speed>
  <fix>3d</fix>
</trkpt>
<trkpt lat="40.0713749" lon="-105.229789">
  <ele>1583.0</ele>
  <time>2026-08-28T17:51:42Z</time>
  <course>0.0</course>
  <speed>0.0</speed>
  <fix>3d</fix>
</trkpt>
<trkpt lat="40.071375" lon="-105.229789">
  <ele>1583.02</ele>
  <time>2026-08-28T17:51:42Z</time>
  <course>247.34</course>
  <speed>0.02</speed>
  <fix>3d</fix>
</trkpt>
<trkpt lat="40.0713749" lon="-105.229789">
  <ele>1583.0</ele>
  <time>2026-08-28T17:51:42Z</time>
  <course>0.0</course>
  <speed>0.0</speed>
  <fix>3d</fix>
</trkpt>
<trkpt lat="40.071375" lon="-105.229789">
  <ele>1583.02</ele>
  <time>2026-08-28T17:51:42Z</time>
  <course>247.34</course>
  <speed>0.02</speed>
  <fix>3d</fix>
</trkpt>
<trkpt lat="40.0713749" lon="-105.229789">
  <ele>1583.0</ele>
  <time>2026-08-28T17:51:42Z</time>
  <course>0.0</course>
  <speed>0.0</speed>
  <fix>3d</fix>
</trkpt>
<trkpt lat="40.071375" lon="-105.229789">
  <ele>1583.01</ele>
  <time>2026-08-28T17:51:42Z</time>
  <course>247.34</course>
  <speed>0.02</speed>
  <fix>3d</fix>
</trkpt>
<trkpt lat="40.0713749" lon="-105.229789">
  <ele>1583.0</ele>
  <time>2026-08-28T17:51:42Z</time>
  <course>0.0</course>
  <speed>0.0</speed>
  <fix>3d</fix>
</trkpt>
<trkpt lat="40.071375" lon="-105.229789">
  <ele>1583.01</ele>
  <time>2026-08-28T17:51:42Z</time>
  <course>247.33</course>
  <speed>0.02</speed>
  <fix>3d</fix>
</trkpt>
<trkpt lat="40.0713749" lon="-105.229789">
  <ele>1583.0</ele>
  <time>2026-08-28T17:51:42Z</time>
  <course>0.0</course>
  <speed>0.0</speed>
  <fix>3d</fix>
</trkpt>
<trkpt lat="40.071375" lon="-105.229789">
  <ele>1583.01</ele>
  <time>2026-08-28T17:51:42Z</time>
  <course>247.33</course>
  <speed>0.02</speed>
  <fix>3d</fix>
</trkpt>
<trkpt lat="40.0713749" lon="-105.229789">
  <ele>1583.0</ele>
  <time>2026-08-28T17:51:42Z</time>
  <course>0.0</course>
  <speed>0.0</speed>
  <fix>3d</fix>
</trkpt>
<trkpt lat="40.071375" lon="-105.229789">
  <ele>1583.01</ele>
  <time>2026-08-28T17:51:42Z</time>
  <course>247.33</course>
  <speed>0.02</speed>
  <fix>3d</fix>
</trkpt>
<trkpt lat="40.0713749" lon="-105.229789">
  <ele>1583.0</ele>
  <time>2026-08-28T17:51:42Z</time>
  <course>0.0</course>
  <speed>0.0</speed>
  <fix>3d</fix>
</trkpt>
<trkpt lat="40.071375" lon="-105.229789">
  <ele>1583.01</ele>
  <time>2026-08-28T17:51:42Z</time>
  <course>247.33</course>
  <speed>0.02</speed>
  <fix>3d</fix>
</trkpt>
<trkpt lat="40.0713749" lon="-105.229789">
  <ele>1583.0</ele>
  <time>2026-08-28T17:51:42Z</time>
  <course>0.0</course>
  <speed>0.0</speed>
  <fix>3d</fix>
</trkpt>
<trkpt lat="40.071375" lon="-105.229789">
  <ele>1583.01</ele>
  <time>2026-08-28T17:51:42Z</time>
  <course>247.33</course>
  <speed>0.02</speed>
  <fix>3d</fix>
</trkpt>
<trkpt lat="40.0713749" lon="-105.229789">
  <ele>1583.0</ele>
  <time>2026-08-28T17:51:42Z</time>
  <course>0.0</course>
  <speed>0.0</speed>
  <fix>3d</fix>
</trkpt>
<trkpt lat="40.071375" lon="-105.229789">
  <ele>1583.01</ele>
  <time>2026-08-28T17:51:42Z</time>
  <course>247.33</course>
  <speed>0.02</speed>
  <fix>3d</fix>
</trkpt>
<trkpt lat="40.0713749" lon="-105.229789">
  <ele>1583.0</ele>
  <time>2026-08-28T17:51:42Z</time>
  <course>0.0</course>
  <speed>0.0</speed>
  <fix>3d</fix>
</trkpt>
<trkpt lat="40.071375" lon="-105.229789">
  <ele>1583.01</ele>
  <time>2026-08-28T17:51:42Z</time>
  <course>247.33</course>
  <speed>0.02</speed>
  <fix>3d</fix>
</trkpt>
<trkpt lat="40.0713749" lon="-105.229789">
  <ele>1583.0</ele>
  <time>2026-08-28T17:51:42Z</time>
  <course>0.0</course>
  <speed>0.0</speed>
  <fix>3d</fix>
</trkpt>
<trkpt lat="40.071375" lon="-105.229789">
  <ele>1583.01</ele>
  <time>2026-08-28T17:51:42Z</time>
  <course>247.32</course>
  <speed>0.02</speed>
  <fix>3d</fix>
</trkpt>
<trkpt lat="40.0713749" lon="-105.229789">
  <ele>1583.0</ele>
  <time>2026-08-28T17:51:42Z</time>
  <course>0.0</course>
  <speed>0.0</speed>
  <fix>3d</fix>
</trkpt>
<trkpt lat="40.071375" lon="-105.229789">
  <ele>1583.0</ele>
  <time>2026-08-28T17:51:42Z</time>
  <course>247.32</course>
  <speed>0.02</speed>
  <fix>3d</fix>
</trkpt>
<trkpt lat="40.0713749" lon="-105.229789">
  <ele>1583.0</ele>
  <time>2026-08-28T17:51:42Z</time>
  <course>0.0</course>
  <speed>0.0</speed>
  <fix>3d</fix>
</trkpt>
<trkpt lat="40.071375" lon="-105.229789">
  <ele>1583.0</ele>
  <time>2026-08-28T17:51:42Z</time>
  <course>247.32</course>
  <speed>0.02</speed>
  <fix>3d</fix>
</trkpt>
<trkpt lat="40.0713749" lon="-105.229789">
  <ele>1583.0</ele>
  <time>2026-08-28T17:51:42Z</time>
  <course>0.0</course>
  <speed>0.0</speed>
  <fix>3d</fix>
</trkpt>
<trkpt lat="40.071375" lon="-105.229789">
  <ele>1583.0</ele>
  <time>2026-08-28T17:51:42Z</time>
  <course>247.32</course>
  <speed>0.02</speed>
  <fix>3d</fix>
</trkpt>
<trkpt lat="40.0713749" lon="-105.229789">
  <ele>1583.0</ele>
  <time>2026-08-28T17:51:42Z</time>
  <course>0.0</course>
  <speed>0.0</speed>
  <fix>3d</fix>
</trkpt>
<trkpt lat="40.071375" lon="-105.229789">
  <ele>1582.99</ele>
  <time>2026-08-28T17:51:42Z</time>
  <course>247.32</course>
  <speed>0.02</speed>
  <fix>3d</fix>
</trkpt>
<trkpt lat="40.0713749" lon="-105.229789">
  <ele>1583.0</ele>
  <time>2026-08-28T17:51:42Z</time>
  <course>0.0</course>
  <speed>0.0</speed>
  <fix>3d</fix>
</trkpt>
<trkpt lat="40.071375" lon="-105.229789">
  <ele>1582.99</ele>
  <time>2026-08-28T17:51:42Z</time>
  <course>247.32</course>
  <speed>0.02</speed>
  <fix>3d</fix>
</trkpt>
<trkpt lat="40.0713749" lon="-105.229789">
  <ele>1583.0</ele>
  <time>2026-08-28T17:51:42Z</time>
  <course>0.0</course>
  <speed>0.0</speed>
  <fix>3d</fix>
</trkpt>
<trkpt lat="40.071375" lon="-105.229789">
  <ele>1582.98</ele>
  <time>2026-08-28T17:51:42Z</time>
  <course>247.31</course>
  <speed>0.02</speed>
  <fix>3d</fix>
</trkpt>
<trkpt lat="40.0713749" lon="-105.229789">
  <ele>1583.0</ele>
  <time>2026-08-28T17:51:42Z</time>
  <course>0.0</course>
  <speed>0.0</speed>
  <fix>3d</fix>
</trkpt>
<trkpt lat="40.071375" lon="-105.229789">
  <ele>1582.97</ele>
  <time>2026-08-28T17:51:42Z</time>
  <course>247.31</course>
  <speed>0.02</speed>
  <fix>3d</fix>
</trkpt>
<trkpt lat="40.0713749" lon="-105.229789">
  <ele>1583.0</ele>
  <time>2026-08-28T17:51:42Z</time>
  <course>0.0</course>
  <speed>0.0</speed>
  <fix>3d</fix>
</trkpt>
<trkpt lat="40.071375" lon="-105.229789">
  <ele>1582.97</ele>
  <time>2026-08-28T17:51:42Z</time>
  <course>247.31</course>
  <speed>0.02</speed>
  <fix>3d</fix>
</trkpt>
<trkpt lat="40.0713749" lon="-105.229789">
  <ele>1583.0</ele>
  <time>2026-08-28T17:51:42Z</time>
  <course>0.0</course>
  <speed>0.0</speed>
  <fix>3d</fix>
</trkpt>
<trkpt lat="40.071375" lon="-105.229789">
  <ele>1582.96</ele>
  <time>2026-08-28T17:51:42Z</time>
  <course>247.31</course>
  <speed>0.02</speed>
  <fix>3d</fix>
</trkpt>
<trkpt lat="40.0713749" lon="-105.229789">
  <ele>1583.0</ele>
  <time>2026-08-28T17:51:42Z</time>
  <course>0.0</course>
  <speed>0.0</speed>
  <fix>3d</fix>
</trkpt>
<trkpt lat="40.071375" lon="-105.229789">
  <ele>1582.96</ele>
  <time>2026-08-28T17:51:42Z</time>
  <course>247.31</course>
  <speed>0.02</speed>
  <fix>3d</fix>
</trkpt>
<trkpt lat="40.0713749" lon="-105.229789">
  <ele>1583.0</ele>
  <time>2026-08-28T17:51:42Z</time>
  <course>0.0</course>
  <speed>0.0</speed>
  <fix>3d</fix>
</trkpt>
<trkpt lat="40.071375" lon="-105.229789">
  <ele>1582.95</ele>
  <time>2026-08-28T17:51:42Z</time>
  <course>247.31</course>
  <speed>0.02</speed>
  <fix>3d</fix>
</trkpt>
<trkpt lat="40.0713749" lon="-105.229789">
  <ele>1583.0</ele>
  <time>2026-08-28T17:51:42Z</time>
  <course>0.0</course>
  <speed>0.0</speed>
  <fix>3d</fix>
</trkpt>
<trkpt lat="40.071375" lon="-105.229789">
  <ele>1582.95</ele>
  <time>2026-08-28T17:51:42Z</time>
  <course>247.3</course>
  <speed>0.02</speed>
  <fix>3d</fix>
</trkpt>
<trkpt lat="40.0713749" lon="-105.229789">
  <ele>1583.0</ele>
  <time>2026-08-28T17:51:42Z</time>
  <course>0.0</course>
  <speed>0.0</speed>
  <fix>3d</fix>
</trkpt>
<trkpt lat="40.071375" lon="-105.229789">
  <ele>1582.94</ele>
  <time>2026-08-28T17:51:42Z</time>
  <course>247.3</course>
  <speed>0.02</speed>
  <fix>3d</fix>
</trkpt>
<trkpt lat="40.0713749" lon="-105.229789">
  <ele>1583.0</ele>
  <time>2026-08-28T17:51:42Z</time>
  <course>0.0</course>
  <speed>0.0</speed>
  <fix>3d</fix>
</trkpt>
<trkpt lat="40.071375" lon="-105.229789">
  <ele>1582.93</ele>
  <time>2026-08-28T17:51:42Z</time>
  <course>247.3</course>
  <speed>0.02</speed>
  <fix>3d</fix>
</trkpt>
<trkpt lat="40.0713749" lon="-105.229789">
  <ele>1583.0</ele>
  <time>2026-08-28T17:51:42Z</time>
  <course>0.0</course>
  <speed>0.0</speed>
  <fix>3d</fix>
</trkpt>
<trkpt lat="40.071375" lon="-105.229789">
  <ele>1582.93</ele>
  <time>2026-08-28T17:51:42Z</time>
  <course>247.3</course>
  <speed>0.02</speed>
  <fix>3d</fix>
</trkpt>
<trkpt lat="40.0713749" lon="-105.229789">
  <ele>1583.0</ele>
  <time>2026-08-28T17:51:42Z</time>
  <course>0.0</course>
  <speed>0.0</speed>
  <fix>3d</fix>
</trkpt>
<trkpt lat="40.071375" lon="-105.229789">
  <ele>1582.92</ele>
  <time>2026-08-28T17:51:42Z</time>
  <course>247.3</course>
  <speed>0.02</speed>
  <fix>3d</fix>
</trkpt>
<trkpt lat="40.0713749" lon="-105.229789">
  <ele>1583.0</ele>
  <time>2026-08-28T17:51:42Z</time>
  <course>0.0</course>
  <speed>0.0</speed>
  <fix>3d</fix>
</trkpt>
<trkpt lat="40.071375" lon="-105.229789">
  <ele>1582.92</ele>
  <time>2026-08-28T17:51:42Z</time>
  <course>247.3</course>
  <speed>0.02</speed>
  <fix>3d</fix>
</trkpt>
<trkpt lat="40.0713749" lon="-105.229789">
  <ele>1583.0</ele>
  <time>2026-08-28T17:51:42Z</time>
  <course>0.0</course>
  <speed>0.0</speed>
  <fix>3d</fix>
</trkpt>
<trkpt lat="40.071375" lon="-105.229789">
  <ele>1582.91</ele>
  <time>2026-08-28T17:51:42Z</time>
  <course>247.3</course>
  <speed>0.02</speed>
  <fix>3d</fix>
</trkpt>
<trkpt lat="40.0713749" lon="-105.229789">
  <ele>1583.0</ele>
  <time>2026-08-28T17:51:42Z</time>
  <course>0.0</course>
  <speed>0.0</speed>
  <fix>3d</fix>
</trkpt>
<trkpt lat="40.071375" lon="-105.229789">
  <ele>1582.91</ele>
  <time>2026-08-28T17:51:42Z</time>
  <course>247.3</course>
  <speed>0.02</speed>
  <fix>3d</fix>
</trkpt>
<trkpt lat="40.0713749" lon="-105.229789">
  <ele>1583.0</ele>
  <time>2026-08-28T17:51:42Z</time>
  <course>0.0</course>
  <speed>0.0</speed>
  <fix>3d</fix>
</trkpt>
<trkpt lat="40.071375" lon="-105.229789">
  <ele>1582.91</ele>
  <time>2026-08-28T17:51:42Z</time>
  <course>247.29</course>
  <speed>0.02</speed>
  <fix>3d</fix>
</trkpt>
<trkpt lat="40.0713749" lon="-105.229789">
  <ele>1583.0</ele>
  <time>2026-08-28T17:51:42Z</time>
  <course>0.0</course>
  <speed>0.0</speed>
  <fix>3d</fix>
</trkpt>
<trkpt lat="40.071375" lon="-105.229789">
  <ele>1582.91</ele>
  <time>2026-08-28T17:51:42Z</time>
  <course>247.29</course>
  <speed>0.02</speed>
  <fix>3d</fix>
</trkpt>
<trkpt lat="40.0713749" lon="-105.229789">
  <ele>1583.0</ele>
  <time>2026-08-28T17:51:42Z</time>
  <course>0.0</course>
  <speed>0.0</speed>
  <fix>3d</fix>
</trkpt>
<trkpt lat="40.071375" lon="-105.229789">
  <ele>1582.91</ele>
  <time>2026-08-28T17:51:42Z</time>
  <course>247.29</course>
  <speed>0.02</speed>
  <fix>3d</fix>
</trkpt>
<trkpt lat="40.0713749" lon="-105.229789">
  <ele>1583.0</ele>
  <time>2026-08-28T17:51:42Z</time>
  <course>0.0</course>
  <speed>0.0</speed>
  <fix>3d</fix>
</trkpt>
<trkpt lat="40.071375" lon="-105.229789">
  <ele>1582.91</ele>
  <time>2026-08-28T17:51:42Z</time>
  <course>247.29</course>
  <speed>0.02</speed>
  <fix>3d</fix>
</trkpt>
<trkpt lat="40.0713749" lon="-105.229789">
  <ele>1583.0</ele>
  <time>2026-08-28T17:51:42Z</time>
  <course>0.0</course>
  <speed>0.0</speed>
  <fix>3d</fix>
</trkpt>
<trkpt lat="40.071375" lon="-105.229789">
  <ele>1582.9</ele>
  <time>2026-08-28T17:51:42Z</time>
  <course>247.29</course>
  <speed>0.02</speed>
  <fix>3d</fix>
</trkpt>
<trkpt lat="40.0713749" lon="-105.229789">
  <ele>1583.0</ele>
  <time>2026-08-28T17:51:42Z</time>
  <course>0.0</course>
  <speed>0.0</speed>
  <fix>3d</fix>
</trkpt>
<trkpt lat="40.071375" lon="-105.229789">
  <ele>1582.9</ele>
  <time>2026-08-28T17:51:42Z</time>
  <course>247.29</course>
  <speed>0.02</speed>
  <fix>3d</fix>
</trkpt>
<trkpt lat="40.0713749" lon="-105.229789">
  <ele>1583.0</ele>
  <time>2026-08-28T17:51:42Z</time>
  <course>0.0</course>
  <speed>0.0</speed>
  <fix>3d</fix>
</trkpt>
<trkpt lat="40.071375" lon="-105.229789">
  <ele>1582.9</ele>
  <time>2026-08-28T17:51:42Z</time>
  <course>247.29</course>
  <speed>0.02</speed>
  <fix>3d</fix>
</trkpt>
<trkpt lat="40.0713749" lon="-105.229789">
  <ele>1583.0</ele>
  <time>2026-08-28T17:51:42Z</time>
  <course>0.0</course>
  <speed>0.0</speed>
  <fix>3d</fix>
</trkpt>
<trkpt lat="40.071375" lon="-105.229789">
  <ele>1582.9</ele>
  <time>2026-08-28T17:51:42Z</time>
  <course>247.28</course>
  <speed>0.02</speed>
  <fix>3d</fix>
</trkpt>
<trkpt lat="40.0713749" lon="-105.229789">
  <ele>1583.0</ele>
  <time>2026-08-28T17:51:42Z</time>
  <course>0.0</course>
  <speed>0.0</speed>
  <fix>3d</fix>
</trkpt>
<trkpt lat="40.071375" lon="-105.229789">
  <ele>1582.89</ele>
  <time>2026-08-28T17:51:42Z</time>
  <course>247.28</course>
  <speed>0.02</speed>
  <fix>3d</fix>
</trkpt>
<trkpt lat="40.0713749" lon="-105.229789">
  <ele>1583.0</ele>
  <time>2026-08-28T17:51:42Z</time>
  <course>0.0</course>
  <speed>0.0</speed>
  <fix>3d</fix>
</trkpt>
<trkpt lat="40.071375" lon="-105.2297889">
  <ele>1582.9</ele>
  <time>2026-08-28T17:51:42Z</time>
  <course>247.28</course>
  <speed>0.02</speed>
  <fix>3d</fix>
</trkpt>
<trkpt lat="40.0713749" lon="-105.229789">
  <ele>1583.0</ele>
  <time>2026-08-28T17:51:42Z</time>
  <course>0.0</course>
  <speed>0.0</speed>
  <fix>3d</fix>
</trkpt>
<trkpt lat="40.071375" lon="-105.229789">
  <ele>1582.9</ele>
  <time>2026-08-28T17:51:42Z</time>
  <course>247.28</course>
  <speed>0.02</speed>
  <fix>3d</fix>
</trkpt>
<trkpt lat="40.0713749" lon="-105.229789">
  <ele>1583.0</ele>
  <time>2026-08-28T17:51:42Z</time>
  <course>0.0</course>
  <speed>0.0</speed>
  <fix>3d</fix>
</trkpt>
<trkpt lat="40.071375" lon="-105.2297889">
  <ele>1582.9</ele>
  <time>2026-08-28T17:51:42Z</time>
  <course>247.28</course>
  <speed>0.02</speed>
  <fix>3d</fix>
</trkpt>
<trkpt lat="40.0713749" lon="-105.229789">
  <ele>1583.0</ele>
  <time>2026-08-28T17:51:42Z</time>
  <course>0.0</course>
  <speed>0.0</speed>
  <fix>3d</fix>
</trkpt>
<trkpt lat="40.071375" lon="-105.229789">
  <ele>1582.91</ele>
  <time>2026-08-28T17:51:42Z</time>
  <course>247.28</course>
  <speed>0.02</speed>
  <fix>3d</fix>
</trkpt>
<trkpt lat="40.0713749" lon="-105.229789">
  <ele>1583.0</ele>
  <time>2026-08-28T17:51:42Z</time>
  <course>0.0</course>
  <speed>0.0</speed>
  <fix>3d</fix>
</trkpt>
<trkpt lat="40.071375" lon="-105.2297889">
  <ele>1582.92</ele>
  <time>2026-08-28T17:51:42Z</time>
  <course>247.28</course>
  <speed>0.02</speed>
  <fix>3d</fix>
</trkpt>
<trkpt lat="40.0713749" lon="-105.229789">
  <ele>1583.0</ele>
  <time>2026-08-28T17:51:42Z</time>
  <course>0.0</course>
  <speed>0.0</speed>
  <fix>3d</fix>
</trkpt>
<trkpt lat="40.071375" lon="-105.2297889">
  <ele>1582.93</ele>
  <time>2026-08-28T17:51:42Z</time>
  <course>247.27</course>
  <speed>0.02</speed>
  <fix>3d</fix>
</trkpt>
<trkpt lat="40.0713749" lon="-105.229789">
  <ele>1583.0</ele>
  <time>2026-08-28T17:51:42Z</time>
  <course>0.0</course>
  <speed>0.0</speed>
  <fix>3d</fix>
</trkpt>
<trkpt lat="40.071375" lon="-105.2297889">
  <ele>1582.93</ele>
  <time>2026-08-28T17:51:42Z</time>
  <course>247.27</course>
  <speed>0.02</speed>
  <fix>3d</fix>
</trkpt>
<trkpt lat="40.0713749" lon="-105.229789">
  <ele>1583.0</ele>
  <time>2026-08-28T17:51:42Z</time>
  <course>0.0</course>
  <speed>0.0</speed>
  <fix>3d</fix>
</trkpt>
<trkpt lat="40.071375" lon="-105.2297889">
  <ele>1582.94</ele>
  <time>2026-08-28T17:51:42Z</time>
  <course>247.27</course>
  <speed>0.02</speed>
  <fix>3d</fix>
</trkpt>
<trkpt lat="40.0713749" lon="-105.229789">
  <ele>1583.0</ele>
  <time>2026-08-28T17:51:42Z</time>
  <course>0.0</course>
  <speed>0.0</speed>
  <fix>3d</fix>
</trkpt>
<trkpt lat="40.071375" lon="-105.2297889">
  <ele>1582.95</ele>
  <time>2026-08-28T17:51:42Z</time>
  <course>247.27</course>
  <speed>0.02</speed>
  <fix>3d</fix>
</trkpt>
<trkpt lat="40.0713749" lon="-105.229789">
  <ele>1583.0</ele>
  <time>2026-08-28T17:51:42Z</time>
  <course>0.0</course>
  <speed>0.0</speed>
  <fix>3d</fix>
</trkpt>
<trkpt lat="40.071375" lon="-105.2297889">
  <ele>1582.95</ele>
  <time>2026-08-28T17:51:42Z</time>
  <course>247.27</course>
  <speed>0.02</speed>
  <fix>3d</fix>
</trkpt>
<trkpt lat="40.0713749" lon="-105.229789">
  <ele>1583.0</ele>
  <time>2026-08-28T17:51:42Z</time>
  <course>0.0</course>
  <speed>0.0</speed>
  <fix>3d</fix>
</trkpt>
<trkpt lat="40.071375" lon="-105.2297889">
  <ele>1582.96</ele>
  <time>2026-08-28T17:51:42Z</time>
  <course>247.27</course>
  <speed>0.02</speed>
  <fix>3d</fix>
</trkpt>
<trkpt lat="40.0713749" lon="-105.229789">
  <ele>1583.0</ele>
  <time>2026-08-28T17:51:42Z</time>
  <course>0.0</course>
  <speed>0.0</speed>
  <fix>3d</fix>
</trkpt>
<trkpt lat="40.071375" lon="-105.229789">
  <ele>1582.97</ele>
  <time>2026-08-28T17:51:42Z</time>
  <course>247.27</course>
  <speed>0.02</speed>
  <fix>3d</fix>
</trkpt>
<trkpt lat="40.0713749" lon="-105.229789">
  <ele>1583.0</ele>
  <time>2026-08-28T17:51:42Z</time>
  <course>0.0</course>
  <speed>0.0</speed>
  <fix>3d</fix>
</trkpt>
<trkpt lat="40.071375" lon="-105.2297889">
  <ele>1582.97</ele>
  <time>2026-08-28T17:51:42Z</time>
  <course>247.27</course>
  <speed>0.02</speed>
  <fix>3d</fix>
</trkpt>
<trkpt lat="40.0713749" lon="-105.229789">
  <ele>1583.0</ele>
  <time>2026-08-28T17:51:42Z</time>
  <course>0.0</course>
  <speed>0.0</speed>
  <fix>3d</fix>
</trkpt>
<trkpt lat="40.071375" lon="-105.229789">
  <ele>1582.97</ele>
  <time>2026-08-28T17:51:42Z</time>
  <course>247.26</course>
  <speed>0.02</speed>
  <fix>3d</fix>
</trkpt>
<trkpt lat="40.0713749" lon="-105.229789">
  <ele>1583.0</ele>
  <time>2026-08-28T17:51:42Z</time>
  <course>0.0</course>
  <speed>0.0</speed>
  <fix>3d</fix>
</trkpt>
<trkpt lat="40.071375" lon="-105.2297889">
  <ele>1582.97</ele>
  <time>2026-08-28T17:51:42Z</time>
  <course>247.26</course>
  <speed>0.02</speed>
  <fix>3d</fix>
</trkpt>
<trkpt lat="40.0713749" lon="-105.229789">
  <ele>1583.0</ele>
  <time>2026-08-28T17:51:42Z</time>
  <course>0.0</course>
  <speed>0.0</speed>
  <fix>3d</fix>
</trkpt>
<trkpt lat="40.071375" lon="-105.229789">
  <ele>1582.98</ele>
  <time>2026-08-28T17:51:42Z</time>
  <course>247.26</course>
  <speed>0.02</speed>
  <fix>3d</fix>
</trkpt>
<trkpt lat="40.0713749" lon="-105.229789">
  <ele>1583.0</ele>
  <time>2026-08-28T17:51:42Z</time>
  <course>0.0</course>
  <speed>0.0</speed>
  <fix>3d</fix>
</trkpt>
<trkpt lat="40.071375" lon="-105.2297889">
  <ele>1582.98</ele>
  <time>2026-08-28T17:51:42Z</time>
  <course>247.26</course>
  <speed>0.02</speed>
  <fix>3d</fix>
</trkpt>
<trkpt lat="40.0713749" lon="-105.229789">
  <ele>1583.0</ele>
  <time>2026-08-28T17:51:42Z</time>
  <course>0.0</course>
  <speed>0.0</speed>
  <fix>3d</fix>
</trkpt>
<trkpt lat="40.071375" lon="-105.229789">
  <ele>1582.99</ele>
  <time>2026-08-28T17:51:42Z</time>
  <course>247.26</course>
  <speed>0.02</speed>
  <fix>3d</fix>
</trkpt>
<trkpt lat="40.0713749" lon="-105.229789">
  <ele>1583.0</ele>
  <time>2026-08-28T17:51:42Z</time>
  <course>0.0</course>
  <speed>0.0</speed>
  <fix>3d</fix>
</trkpt>
<trkpt lat="40.071375" lon="-105.2297889">
  <ele>1582.99</ele>
  <time>2026-08-28T17:51:42Z</time>
  <course>247.26</course>
  <speed>0.02</speed>
  <fix>3d</fix>
</trkpt>
<trkpt lat="40.0713749" lon="-105.229789">
  <ele>1583.0</ele>
  <time>2026-08-28T17:51:42Z</time>
  <course>0.0</course>
  <speed>0.0</speed>
  <fix>3d</fix>
</trkpt>
<trkpt lat="40.071375" lon="-105.229789">
  <ele>1583.0</ele>
  <time>2026-08-28T17:51:42Z</time>
  <course>247.26</course>
  <speed>0.02</speed>
  <fix>3d</fix>
</trkpt>
<trkpt lat="40.0713749" lon="-105.229789">
  <ele>1583.0</ele>
  <time>2026-08-28T17:51:42Z</time>
  <course>0.0</course>
  <speed>0.0</speed>
  <fix>3d</fix>
</trkpt>
<trkpt lat="40.071375" lon="-105.2297889">
  <ele>1583.0</ele>
  <time>2026-08-28T17:51:42Z</time>
  <course>247.26</course>
  <speed>0.02</speed>
  <fix>3d</fix>
</trkpt>
<trkpt lat="40.0713749" lon="-105.229789">
  <ele>1583.0</ele>
  <time>2026-08-28T17:51:42Z</time>
  <course>0.0</course>
  <speed>0.0</speed>
  <fix>3d</fix>
</trkpt>
<trkpt lat="40.071375" lon="-105.229789">
  <ele>1583.0</ele>
  <time>2026-08-28T17:51:42Z</time>
  <course>247.25</course>
  <speed>0.02</speed>
  <fix>3d</fix>
</trkpt>
<trkpt lat="40.0713749" lon="-105.229789">
  <ele>1583.0</ele>
  <time>2026-08-28T17:51:42Z</time>
  <course>0.0</course>
  <speed>0.0</speed>
  <fix>3d</fix>
</trkpt>
<trkpt lat="40.071375" lon="-105.2297889">
  <ele>1583.0</ele>
  <time>2026-08-28T17:51:42Z</time>
  <course>247.25</course>
  <speed>0.02</speed>
  <fix>3d</fix>
</trkpt>
<trkpt lat="40.0713749" lon="-105.229789">
  <ele>1583.0</ele>
  <time>2026-08-28T17:51:42Z</time>
  <course>0.0</course>
  <speed>0.0</speed>
  <fix>3d</fix>
</trkpt>
<trkpt lat="40.071375" lon="-105.229789">
  <ele>1582.99</ele>
  <time>2026-08-28T17:51:42Z</time>
  <course>247.25</course>
  <speed>0.02</speed>
  <fix>3d</fix>
</trkpt>
<trkpt lat="40.0713749" lon="-105.229789">
  <ele>1583.0</ele>
  <time>2026-08-28T17:51:42Z</time>
  <course>0.0</course>
  <speed>0.0</speed>
  <fix>3d</fix>
</trkpt>
<trkpt lat="40.071375" lon="-105.2297889">
  <ele>1582.99</ele>
  <time>2026-08-28T17:51:42Z</time>
  <course>247.25</course>
  <speed>0.02</speed>
  <fix>3d</fix>
</trkpt>
<trkpt lat="40.0713749" lon="-105.229789">
  <ele>1583.0</ele>
  <time>2026-08-28T17:51:42Z</time>
  <course>0.0</course>
  <speed>0.0</speed>
  <fix>3d</fix>
</trkpt>
<trkpt lat="40.071375" lon="-105.229789">
  <ele>1582.98</ele>
  <time>2026-08-28T17:51:42Z</time>
  <course>247.25</course>
  <speed>0.02</speed>
  <fix>3d</fix>
</trkpt>
<trkpt lat="40.0713749" lon="-105.229789">
  <ele>1583.0</ele>
  <time>2026-08-28T17:51:42Z</time>
  <course>0.0</course>
  <speed>0.0</speed>
  <fix>3d</fix>
</trkpt>
<trkpt lat="40.071375" lon="-105.2297889">
  <ele>1582.97</ele>
  <time>2026-08-28T17:51:42Z</time>
  <course>247.25</course>
  <speed>0.02</speed>
  <fix>3d</fix>
</trkpt>
<trkpt lat="40.0713749" lon="-105.229789">
  <ele>1583.0</ele>
  <time>2026-08-28T17:51:42Z</time>
  <course>0.0</course>
  <speed>0.0</speed>
  <fix>3d</fix>
</trkpt>
<trkpt lat="40.071375" lon="-105.229789">
  <ele>1582.96</ele>
  <time>2026-08-28T17:51:42Z</time>
  <course>247.25</course>
  <speed>0.02</speed>
  <fix>3d</fix>
</trkpt>
<trkpt lat="40.0713749" lon="-105.229789">
  <ele>1583.0</ele>
  <time>2026-08-28T17:51:42Z</time>
  <course>0.0</course>
  <speed>0.0</speed>
  <fix>3d</fix>
</trkpt>
<trkpt lat="40.071375" lon="-105.2297889">
  <ele>1582.96</ele>
  <time>2026-08-28T17:51:42Z</time>
  <course>247.25</course>
  <speed>0.02</speed>
  <fix>3d</fix>
</trkpt>
<trkpt lat="40.0713749" lon="-105.229789">
  <ele>1583.0</ele>
  <time>2026-08-28T17:51:42Z</time>
  <course>0.0</course>
  <speed>0.0</speed>
  <fix>3d</fix>
</trkpt>
<trkpt lat="40.071375" lon="-105.229789">
  <ele>1582.95</ele>
  <time>2026-08-28T17:51:42Z</time>
  <course>247.25</course>
  <speed>0.02</speed>
  <fix>3d</fix>
</trkpt>
<trkpt lat="40.0713749" lon="-105.229789">
  <ele>1583.0</ele>
  <time>2026-08-28T17:51:42Z</time>
  <course>0.0</course>
  <speed>0.0</speed>
  <fix>3d</fix>
</trkpt>
<trkpt lat="40.071375" lon="-105.2297889">
  <ele>1582.95</ele>
  <time>2026-08-28T17:51:42Z</time>
  <course>247.24</course>
  <speed>0.02</speed>
  <fix>3d</fix>
</trkpt>
<trkpt lat="40.0713749" lon="-105.229789">
  <ele>1583.0</ele>
  <time>2026-08-28T17:51:42Z</time>
  <course>0.0</course>
  <speed>0.0</speed>
  <fix>3d</fix>
</trkpt>
<trkpt lat="40.071375" lon="-105.229789">
  <ele>1582.96</ele>
  <time>2026-08-28T17:51:42Z</time>
  <course>247.24</course>
  <speed>0.02</speed>
  <fix>3d</fix>
</trkpt>
<trkpt lat="40.0713749" lon="-105.229789">
  <ele>1583.0</ele>
  <time>2026-08-28T17:51:42Z</time>
  <course>0.0</course>
  <speed>0.0</speed>
  <fix>3d</fix>
</trkpt>
<trkpt lat="40.071375" lon="-105.2297889">
  <ele>1582.96</ele>
  <time>2026-08-28T17:51:42Z</time>
  <course>247.24</course>
  <speed>0.02</speed>
  <fix>3d</fix>
</trkpt>
<trkpt lat="40.0713749" lon="-105.229789">
  <ele>1583.0</ele>
  <time>2026-08-28T17:51:42Z</time>
  <course>0.0</course>
  <speed>0.0</speed>
  <fix>3d</fix>
</trkpt>
<trkpt lat="40.071375" lon="-105.229789">
  <ele>1582.97</ele>
  <time>2026-08-28T17:51:42Z</time>
  <course>247.24</course>
  <speed>0.02</speed>
  <fix>3d</fix>
</trkpt>
<trkpt lat="40.0713749" lon="-105.229789">
  <ele>1583.0</ele>
  <time>2026-08-28T17:51:42Z</time>
  <course>0.0</course>
  <speed>0.0</speed>
  <fix>3d</fix>
</trkpt>
<trkpt lat="40.071375" lon="-105.229789">
  <ele>1582.97</ele>
  <time>2026-08-28T17:51:42Z</time>
  <course>247.24</course>
  <speed>0.02</speed>
  <fix>3d</fix>
</trkpt>
<trkpt lat="40.0713749" lon="-105.229789">
  <ele>1583.0</ele>
  <time>2026-08-28T17:51:42Z</time>
  <course>0.0</course>
  <speed>0.0</speed>
  <fix>3d</fix>
</trkpt>
<trkpt lat="40.071375" lon="-105.229789">
  <ele>1582.98</ele>
  <time>2026-08-28T17:51:42Z</time>
  <course>247.24</course>
  <speed>0.02</speed>
  <fix>3d</fix>
</trkpt>
<trkpt lat="40.0713749" lon="-105.229789">
  <ele>1583.0</ele>
  <time>2026-08-28T17:51:42Z</time>
  <course>0.0</course>
  <speed>0.0</speed>
  <fix>3d</fix>
</trkpt>
<trkpt lat="40.071375" lon="-105.229789">
  <ele>1582.98</ele>
  <time>2026-08-28T17:51:42Z</time>
  <course>247.24</course>
  <speed>0.02</speed>
  <fix>3d</fix>
</trkpt>
<trkpt lat="40.0713749" lon="-105.229789">
  <ele>1583.0</ele>
  <time>2026-08-28T17:51:42Z</time>
  <course>0.0</course>
  <speed>0.0</speed>
  <fix>3d</fix>
</trkpt>
<trkpt lat="40.071375" lon="-105.229789">
  <ele>1582.99</ele>
  <time>2026-08-28T17:51:42Z</time>
  <course>247.24</course>
  <speed>0.02</speed>
  <fix>3d</fix>
</trkpt>
<trkpt lat="40.0713749" lon="-105.229789">
  <ele>1583.0</ele>
  <time>2026-08-28T17:51:42Z</time>
  <course>0.0</course>
  <speed>0.0</speed>
  <fix>3d</fix>
</trkpt>
<trkpt lat="40.071375" lon="-105.229789">
  <ele>1583.0</ele>
  <time>2026-08-28T17:51:42Z</time>
  <course>247.24</course>
  <speed>0.02</speed>
  <fix>3d</fix>
</trkpt>
<trkpt lat="40.0713749" lon="-105.229789">
  <ele>1583.0</ele>
  <time>2026-08-28T17:51:42Z</time>
  <course>0.0</course>
  <speed>0.0</speed>
  <fix>3d</fix>
</trkpt>
<trkpt lat="40.071375" lon="-105.229789">
  <ele>1583.0</ele>
  <time>2026-08-28T17:51:42Z</time>
  <course>247.23</course>
  <speed>0.02</speed>
  <fix>3d</fix>
</trkpt>
<trkpt lat="40.0713749" lon="-105.229789">
  <ele>1583.0</ele>
  <time>2026-08-28T17:51:42Z</time>
  <course>0.0</course>
  <speed>0.0</speed>
  <fix>3d</fix>
</trkpt>
<trkpt lat="40.071375" lon="-105.229789">
  <ele>1583.01</ele>
  <time>2026-08-28T17:51:42Z</time>
  <course>247.23</course>
  <speed>0.02</speed>
  <fix>3d</fix>
</trkpt>
<trkpt lat="40.0713749" lon="-105.229789">
  <ele>1583.0</ele>
  <time>2026-08-28T17:51:42Z</time>
  <course>0.0</course>
  <speed>0.0</speed>
  <fix>3d</fix>
</trkpt>
<trkpt lat="40.071375" lon="-105.229789">
  <ele>1583.01</ele>
  <time>2026-08-28T17:51:42Z</time>
  <course>247.23</course>
  <speed>0.02</speed>
  <fix>3d</fix>
</trkpt>
<trkpt lat="40.0713749" lon="-105.229789">
  <ele>1583.0</ele>
  <time>2026-08-28T17:51:42Z</time>
  <course>0.0</course>
  <speed>0.0</speed>
  <fix>3d</fix>
</trkpt>
<trkpt lat="40.071375" lon="-105.229789">
  <ele>1583.02</ele>
  <time>2026-08-28T17:51:42Z</time>
  <course>247.23</course>
  <speed>0.02</speed>
  <fix>3d</fix>
</trkpt>
<trkpt lat="40.0713749" lon="-105.229789">
  <ele>1583.0</ele>
  <time>2026-08-28T17:51:42Z</time>
  <course>0.0</course>
  <speed>0.0</speed>
  <fix>3d</fix>
</trkpt>
<trkpt lat="40.071375" lon="-105.229789">
  <ele>1583.02</ele>
  <time>2026-08-28T17:51:42Z</time>
  <course>247.23</course>
  <speed>0.02</speed>
  <fix>3d</fix>
</trkpt>
<trkpt lat="40.0713749" lon="-105.229789">
  <ele>1583.0</ele>
  <time>2026-08-28T17:51:42Z</time>
  <course>0.0</course>
  <speed>0.0</speed>
  <fix>3d</fix>
</trkpt>
<trkpt lat="40.071375" lon="-105.229789">
  <ele>1583.03</ele>
  <time>2026-08-28T17:51:42Z</time>
  <course>247.23</course>
  <speed>0.02</speed>
  <fix>3d</fix>
</trkpt>
<trkpt lat="40.0713749" lon="-105.229789">
  <ele>1583.0</ele>
  <time>2026-08-28T17:51:42Z</time>
  <course>0.0</course>
  <speed>0.0</speed>
  <fix>3d</fix>
</trkpt>
<trkpt lat="40.071375" lon="-105.229789">
  <ele>1583.03</ele>
  <time>2026-08-28T17:51:42Z</time>
  <course>247.23</course>
  <speed>0.02</speed>
  <fix>3d</fix>
</trkpt>
<trkpt lat="40.0713749" lon="-105.229789">
  <ele>1583.0</ele>
  <time>2026-08-28T17:51:42Z</time>
  <course>0.0</course>
  <speed>0.0</speed>
  <fix>3d</fix>
</trkpt>
<trkpt lat="40.071375" lon="-105.229789">
  <ele>1583.03</ele>
  <time>2026-08-28T17:51:42Z</time>
  <course>247.23</course>
  <speed>0.02</speed>
  <fix>3d</fix>
</trkpt>
<trkpt lat="40.0713749" lon="-105.229789">
  <ele>1583.0</ele>
  <time>2026-08-28T17:51:42Z</time>
  <course>0.0</course>
  <speed>0.0</speed>
  <fix>3d</fix>
</trkpt>
<trkpt lat="40.071375" lon="-105.229789">
  <ele>1583.03</ele>
  <time>2026-08-28T17:51:42Z</time>
  <course>247.23</course>
  <speed>0.02</speed>
  <fix>3d</fix>
</trkpt>
<trkpt lat="40.0713749" lon="-105.229789">
  <ele>1583.0</ele>
  <time>2026-08-28T17:51:42Z</time>
  <course>0.0</course>
  <speed>0.0</speed>
  <fix>3d</fix>
</trkpt>
<trkpt lat="40.071375" lon="-105.2297889">
  <ele>1583.03</ele>
  <time>2026-08-28T17:51:42Z</time>
  <course>247.22</course>
  <speed>0.02</speed>
  <fix>3d</fix>
</trkpt>
<trkpt lat="40.0713749" lon="-105.229789">
  <ele>1583.0</ele>
  <time>2026-08-28T17:51:42Z</time>
  <course>0.0</course>
  <speed>0.0</speed>
  <fix>3d</fix>
</trkpt>
<trkpt lat="40.071375" lon="-105.229789">
  <ele>1583.03</ele>
  <time>2026-08-28T17:51:42Z</time>
  <course>247.22</course>
  <speed>0.02</speed>
  <fix>3d</fix>
</trkpt>
<trkpt lat="40.0713749" lon="-105.229789">
  <ele>1583.0</ele>
  <time>2026-08-28T17:51:42Z</time>
  <course>0.0</course>
  <speed>0.0</speed>
  <fix>3d</fix>
</trkpt>
<trkpt lat="40.071375" lon="-105.2297889">
  <ele>1583.03</ele>
  <time>2026-08-28T17:51:42Z</time>
  <course>247.22</course>
  <speed>0.02</speed>
  <fix>3d</fix>
</trkpt>
<trkpt lat="40.0713749" lon="-105.229789">
  <ele>1583.0</ele>
  <time>2026-08-28T17:51:42Z</time>
  <course>0.0</course>
  <speed>0.0</speed>
  <fix>3d</fix>
</trkpt>
<trkpt lat="40.071375" lon="-105.229789">
  <ele>1583.03</ele>
  <time>2026-08-28T17:51:42Z</time>
  <course>247.22</course>
  <speed>0.02</speed>
  <fix>3d</fix>
</trkpt>
<trkpt lat="40.0713749" lon="-105.229789">
  <ele>1583.0</ele>
  <time>2026-08-28T17:51:42Z</time>
  <course>0.0</course>
  <speed>0.0</speed>
  <fix>3d</fix>
</trkpt>
<trkpt lat="40.071375" lon="-105.2297889">
  <ele>1583.02</ele>
  <time>2026-08-28T17:51:42Z</time>
  <course>247.22</course>
  <speed>0.02</speed>
  <fix>3d</fix>
</trkpt>
<trkpt lat="40.0713749" lon="-105.229789">
  <ele>1583.0</ele>
  <time>2026-08-28T17:51:42Z</time>
  <course>0.0</course>
  <speed>0.0</speed>
  <fix>3d</fix>
</trkpt>
<trkpt lat="40.071375" lon="-105.229789">
  <ele>1583.02</ele>
  <time>2026-08-28T17:51:42Z</time>
  <course>247.22</course>
  <speed>0.02</speed>
  <fix>3d</fix>
</trkpt>
<trkpt lat="40.0713749" lon="-105.229789">
  <ele>1583.0</ele>
  <time>2026-08-28T17:51:42Z</time>
  <course>0.0</course>
  <speed>0.0</speed>
  <fix>3d</fix>
</trkpt>
<trkpt lat="40.071375" lon="-105.2297889">
  <ele>1583.01</ele>
  <time>2026-08-28T17:51:42Z</time>
  <course>247.22</course>
  <speed>0.02</speed>
  <fix>3d</fix>
</trkpt>
<trkpt lat="40.0713749" lon="-105.229789">
  <ele>1583.0</ele>
  <time>2026-08-28T17:51:42Z</time>
  <course>0.0</course>
  <speed>0.0</speed>
  <fix>3d</fix>
</trkpt>
<trkpt lat="40.071375" lon="-105.229789">
  <ele>1583.01</ele>
  <time>2026-08-28T17:51:42Z</time>
  <course>247.22</course>
  <speed>0.02</speed>
  <fix>3d</fix>
</trkpt>
<trkpt lat="40.0713749" lon="-105.229789">
  <ele>1583.0</ele>
  <time>2026-08-28T17:51:42Z</time>
  <course>0.0</course>
  <speed>0.0</speed>
  <fix>3d</fix>
</trkpt>
<trkpt lat="40.071375" lon="-105.2297889">
  <ele>1583.0</ele>
  <time>2026-08-28T17:51:42Z</time>
  <course>247.22</course>
  <speed>0.02</speed>
  <fix>3d</fix>
</trkpt>
<trkpt lat="40.0713749" lon="-105.229789">
  <ele>1583.0</ele>
  <time>2026-08-28T17:51:42Z</time>
  <course>0.0</course>
  <speed>0.0</speed>
  <fix>3d</fix>
</trkpt>
<trkpt lat="40.071375" lon="-105.229789">
  <ele>1583.0</ele>
  <time>2026-08-28T17:51:42Z</time>
  <course>247.22</course>
  <speed>0.02</speed>
  <fix>3d</fix>
</trkpt>
<trkpt lat="40.0713749" lon="-105.229789">
  <ele>1583.0</ele>
  <time>2026-08-28T17:51:42Z</time>
  <course>0.0</course>
  <speed>0.0</speed>
  <fix>3d</fix>
</trkpt>
<trkpt lat="40.071375" lon="-105.2297889">
  <ele>1583.0</ele>
  <time>2026-08-28T17:51:42Z</time>
  <course>247.22</course>
  <speed>0.02</speed>
  <fix>3d</fix>
</trkpt>
<trkpt lat="40.0713749" lon="-105.229789">
  <ele>1583.0</ele>
  <time>2026-08-28T17:51:42Z</time>
  <course>0.0</course>
  <speed>0.0</speed>
  <fix>3d</fix>
</trkpt>
<trkpt lat="40.071375" lon="-105.229789">
  <ele>1583.0</ele>
  <time>2026-08-28T17:51:42Z</time>
  <course>247.21</course>
  <speed>0.02</speed>
  <fix>3d</fix>
</trkpt>
<trkpt lat="40.0713749" lon="-105.229789">
  <ele>1583.0</ele>
  <time>2026-08-28T17:51:42Z</time>
  <course>0.0</course>
  <speed>0.0</speed>
  <fix>3d</fix>
</trkpt>
<trkpt lat="40.071375" lon="-105.2297889">
  <ele>1583.0</ele>
  <time>2026-08-28T17:51:42Z</time>
  <course>247.21</course>
  <speed>0.02</speed>
  <fix>3d</fix>
</trkpt>
<trkpt lat="40.0713749" lon="-105.229789">
  <ele>1583.0</ele>
  <time>2026-08-28T17:51:42Z</time>
  <course>0.0</course>
  <speed>0.0</speed>
  <fix>3d</fix>
</trkpt>
<trkpt lat="40.071375" lon="-105.229789">
  <ele>1583.0</ele>
  <time>2026-08-28T17:51:42Z</time>
  <course>247.21</course>
  <speed>0.02</speed>
  <fix>3d</fix>
</trkpt>
<trkpt lat="40.0713749" lon="-105.229789">
  <ele>1583.0</ele>
  <time>2026-08-28T17:51:42Z</time>
  <course>0.0</course>
  <speed>0.0</speed>
  <fix>3d</fix>
</trkpt>
<trkpt lat="40.071375" lon="-105.2297889">
  <ele>1583.0</ele>
  <time>2026-08-28T17:51:42Z</time>
  <course>247.21</course>
  <speed>0.02</speed>
  <fix>3d</fix>
</trkpt>
<trkpt lat="40.0713749" lon="-105.229789">
  <ele>1583.0</ele>
  <time>2026-08-28T17:51:42Z</time>
  <course>0.0</course>
  <speed>0.0</speed>
  <fix>3d</fix>
</trkpt>
<trkpt lat="40.071375" lon="-105.229789">
  <ele>1582.99</ele>
  <time>2026-08-28T17:51:42Z</time>
  <course>247.21</course>
  <speed>0.02</speed>
  <fix>3d</fix>
</trkpt>
<trkpt lat="40.0713749" lon="-105.229789">
  <ele>1583.0</ele>
  <time>2026-08-28T17:51:42Z</time>
  <course>0.0</course>
  <speed>0.0</speed>
  <fix>3d</fix>
</trkpt>
<trkpt lat="40.071375" lon="-105.2297889">
  <ele>1582.99</ele>
  <time>2026-08-28T17:51:42Z</time>
  <course>247.21</course>
  <speed>0.02</speed>
  <fix>3d</fix>
</trkpt>
<trkpt lat="40.0713749" lon="-105.229789">
  <ele>1583.0</ele>
  <time>2026-08-28T17:51:42Z</time>
  <course>0.0</course>
  <speed>0.0</speed>
  <fix>3d</fix>
</trkpt>
<trkpt lat="40.071375" lon="-105.229789">
  <ele>1582.99</ele>
  <time>2026-08-28T17:51:42Z</time>
  <course>247.21</course>
  <speed>0.02</speed>
  <fix>3d</fix>
</trkpt>
<trkpt lat="40.0713749" lon="-105.229789">
  <ele>1583.0</ele>
  <time>2026-08-28T17:51:42Z</time>
  <course>0.0</course>
  <speed>0.0</speed>
  <fix>3d</fix>
</trkpt>
<trkpt lat="40.071375" lon="-105.2297889">
  <ele>1582.98</ele>
  <time>2026-08-28T17:51:42Z</time>
  <course>247.21</course>
  <speed>0.022360679774997897</speed>
  <fix>3d</fix>
</trkpt>
<trkpt lat="40.0713749" lon="-105.229789">
  <ele>1583.0</ele>
  <time>2026-08-28T17:51:42Z</time>
  <course>0.0</course>
  <speed>0.0</speed>
  <fix>3d</fix>
</trkpt>
<trkpt lat="40.071375" lon="-105.2297889">
  <ele>1582.98</ele>
  <time>2026-08-28T17:51:42Z</time>
  <course>247.21</course>
  <speed>0.02</speed>
  <fix>3d</fix>
</trkpt>
<trkpt lat="40.0713749" lon="-105.229789">
  <ele>1583.0</ele>
  <time>2026-08-28T17:51:42Z</time>
  <course>0.0</course>
  <speed>0.0</speed>
  <fix>3d</fix>
</trkpt>
<trkpt lat="40.071375" lon="-105.2297889">
  <ele>1582.98</ele>
  <time>2026-08-28T17:51:42Z</time>
  <course>247.21</course>
  <speed>0.022360679774997897</speed>
  <fix>3d</fix>
</trkpt>
<trkpt lat="40.0713749" lon="-105.229789">
  <ele>1583.0</ele>
  <time>2026-08-28T17:51:42Z</time>
  <course>0.0</course>
  <speed>0.0</speed>
  <fix>3d</fix>
</trkpt>
<trkpt lat="40.071375" lon="-105.2297889">
  <ele>1582.97</ele>
  <time>2026-08-28T17:51:42Z</time>
  <course>247.2</course>
  <speed>0.022360679774997897</speed>
  <fix>3d</fix>
</trkpt>
<trkpt lat="40.0713749" lon="-105.229789">
  <ele>1583.0</ele>
  <time>2026-08-28T17:51:42Z</time>
  <course>0.0</course>
  <speed>0.0</speed>
  <fix>3d</fix>
</trkpt>
<trkpt lat="40.071375" lon="-105.2297889">
  <ele>1582.97</ele>
  <time>2026-08-28T17:51:42Z</time>
  <course>247.2</course>
  <speed>0.022360679774997897</speed>
  <fix>3d</fix>
</trkpt>
<trkpt lat="40.0713749" lon="-105.229789">
  <ele>1583.0</ele>
  <time>2026-08-28T17:51:42Z</time>
  <course>0.0</course>
  <speed>0.0</speed>
  <fix>3d</fix>
</trkpt>
<trkpt lat="40.071375" lon="-105.2297889">
  <ele>1582.97</ele>
  <time>2026-08-28T17:51:42Z</time>
  <course>247.2</course>
  <speed>0.022360679774997897</speed>
  <fix>3d</fix>
</trkpt>
<trkpt lat="40.0713749" lon="-105.229789">
  <ele>1583.0</ele>
  <time>2026-08-28T17:51:42Z</time>
  <course>0.0</course>
  <speed>0.0</speed>
  <fix>3d</fix>
</trkpt>
<trkpt lat="40.071375" lon="-105.2297889">
  <ele>1582.97</ele>
  <time>2026-08-28T17:51:42Z</time>
  <course>247.2</course>
  <speed>0.022360679774997897</speed>
  <fix>3d</fix>
</trkpt>
<trkpt lat="40.0713749" lon="-105.229789">
  <ele>1583.0</ele>
  <time>2026-08-28T17:51:42Z</time>
  <course>0.0</course>
  <speed>0.0</speed>
  <fix>3d</fix>
</trkpt>
<trkpt lat="40.071375" lon="-105.2297889">
  <ele>1582.97</ele>
  <time>2026-08-28T17:51:42Z</time>
  <course>247.2</course>
  <speed>0.02</speed>
  <fix>3d</fix>
</trkpt>
<trkpt lat="40.0713749" lon="-105.229789">
  <ele>1583.0</ele>
  <time>2026-08-28T17:51:42Z</time>
  <course>0.0</course>
  <speed>0.0</speed>
  <fix>3d</fix>
</trkpt>
<trkpt lat="40.071375" lon="-105.2297889">
  <ele>1582.97</ele>
  <time>2026-08-28T17:51:42Z</time>
  <course>247.2</course>
  <speed>0.022360679774997897</speed>
  <fix>3d</fix>
</trkpt>
<trkpt lat="40.0713749" lon="-105.229789">
  <ele>1583.0</ele>
  <time>2026-08-28T17:51:42Z</time>
  <course>0.0</course>
  <speed>0.0</speed>
  <fix>3d</fix>
</trkpt>
<trkpt lat="40.071375" lon="-105.2297889">
  <ele>1582.97</ele>
  <time>2026-08-28T17:51:42Z</time>
  <course>247.2</course>
  <speed>0.022360679774997897</speed>
  <fix>3d</fix>
</trkpt>
<trkpt lat="40.0713749" lon="-105.229789">
  <ele>1583.0</ele>
  <time>2026-08-28T17:51:42Z</time>
  <course>0.0</course>
  <speed>0.0</speed>
  <fix>3d</fix>
</trkpt>
<trkpt lat="40.071375" lon="-105.2297889">
  <ele>1582.98</ele>
  <time>2026-08-28T17:51:42Z</time>
  <course>247.2</course>
  <speed>0.022360679774997897</speed>
  <fix>3d</fix>
</trkpt>
<trkpt lat="40.0713749" lon="-105.229789">
  <ele>1583.0</ele>
  <time>2026-08-28T17:51:42Z</time>
  <course>0.0</course>
  <speed>0.0</speed>
  <fix>3d</fix>
</trkpt>
<trkpt lat="40.071375" lon="-105.2297889">
  <ele>1582.98</ele>
  <time>2026-08-28T17:51:42Z</time>
  <course>247.2</course>
  <speed>0.022360679774997897</speed>
  <fix>3d</fix>
</trkpt>
<trkpt lat="40.0713749" lon="-105.229789">
  <ele>1583.0</ele>
  <time>2026-08-28T17:51:42Z</time>
  <course>0.0</course>
  <speed>0.0</speed>
  <fix>3d</fix>
</trkpt>
<trkpt lat="40.071375" lon="-105.2297889">
  <ele>1582.98</ele>
  <time>2026-08-28T17:51:42Z</time>
  <course>247.2</course>
  <speed>0.022360679774997897</speed>
  <fix>3d</fix>
</trkpt>
<trkpt lat="40.0713749" lon="-105.229789">
  <ele>1583.0</ele>
  <time>2026-08-28T17:51:42Z</time>
  <course>0.0</course>
  <speed>0.0</speed>
  <fix>3d</fix>
</trkpt>
<trkpt lat="40.071375" lon="-105.2297889">
  <ele>1582.98</ele>
  <time>2026-08-28T17:51:42Z</time>
  <course>247.2</course>
  <speed>0.022360679774997897</speed>
  <fix>3d</fix>
</trkpt>
<trkpt lat="40.0713749" lon="-105.229789">
  <ele>1583.0</ele>
  <time>2026-08-28T17:51:42Z</time>
  <course>0.0</course>
  <speed>0.0</speed>
  <fix>3d</fix>
</trkpt>
<trkpt lat="40.071375" lon="-105.2297889">
  <ele>1582.98</ele>
  <time>2026-08-28T17:51:42Z</time>
  <course>247.2</course>
  <speed>0.022360679774997897</speed>
  <fix>3d</fix>
</trkpt>
<trkpt lat="40.0713749" lon="-105.229789">
  <ele>1583.0</ele>
  <time>2026-08-28T17:51:42Z</time>
  <course>0.0</course>
  <speed>0.0</speed>
  <fix>3d</fix>
</trkpt>
<trkpt lat="40.071375" lon="-105.2297889">
  <ele>1582.99</ele>
  <time>2026-08-28T17:51:42Z</time>
  <course>247.19</course>
  <speed>0.022360679774997897</speed>
  <fix>3d</fix>
</trkpt>
<trkpt lat="40.0713749" lon="-105.229789">
  <ele>1583.0</ele>
  <time>2026-08-28T17:51:42Z</time>
  <course>0.0</course>
  <speed>0.0</speed>
  <fix>3d</fix>
</trkpt>
<trkpt lat="40.071375" lon="-105.2297889">
  <ele>1582.99</ele>
  <time>2026-08-28T17:51:42Z</time>
  <course>247.19</course>
  <speed>0.022360679774997897</speed>
  <fix>3d</fix>
</trkpt>
<trkpt lat="40.0713749" lon="-105.229789">
  <ele>1583.0</ele>
  <time>2026-08-28T17:51:42Z</time>
  <course>0.0</course>
  <speed>0.0</speed>
  <fix>3d</fix>
</trkpt>
<trkpt lat="40.071375" lon="-105.2297889">
  <ele>1582.99</ele>
  <time>2026-08-28T17:51:42Z</time>
  <course>247.19</course>
  <speed>0.022360679774997897</speed>
  <fix>3d</fix>
</trkpt>
<trkpt lat="40.0713749" lon="-105.229789">
  <ele>1583.0</ele>
  <time>2026-08-28T17:51:42Z</time>
  <course>0.0</course>
  <speed>0.0</speed>
  <fix>3d</fix>
</trkpt>
<trkpt lat="40.071375" lon="-105.2297889">
  <ele>1583.0</ele>
  <time>2026-08-28T17:51:42Z</time>
  <course>247.19</course>
  <speed>0.022360679774997897</speed>
  <fix>3d</fix>
</trkpt>
<trkpt lat="40.0713749" lon="-105.229789">
  <ele>1583.0</ele>
  <time>2026-08-28T17:51:42Z</time>
  <course>0.0</course>
  <speed>0.0</speed>
  <fix>3d</fix>
</trkpt>
<trkpt lat="40.071375" lon="-105.2297889">
  <ele>1583.0</ele>
  <time>2026-08-28T17:51:42Z</time>
  <course>247.19</course>
  <speed>0.022360679774997897</speed>
  <fix>3d</fix>
</trkpt>
<trkpt lat="40.0713749" lon="-105.229789">
  <ele>1583.0</ele>
  <time>2026-08-28T17:51:42Z</time>
  <course>0.0</course>
  <speed>0.0</speed>
  <fix>3d</fix>
</trkpt>
<trkpt lat="40.071375" lon="-105.2297889">
  <ele>1583.01</ele>
  <time>2026-08-28T17:51:42Z</time>
  <course>247.19</course>
  <speed>0.022360679774997897</speed>
  <fix>3d</fix>
</trkpt>
<trkpt lat="40.0713749" lon="-105.229789">
  <ele>1583.0</ele>
  <time>2026-08-28T17:51:42Z</time>
  <course>0.0</course>
  <speed>0.0</speed>
  <fix>3d</fix>
</trkpt>
<trkpt lat="40.071375" lon="-105.2297889">
  <ele>1583.01</ele>
  <time>2026-08-28T17:51:42Z</time>
  <course>247.19</course>
  <speed>0.022360679774997897</speed>
  <fix>3d</fix>
</trkpt>
<trkpt lat="40.0713749" lon="-105.229789">
  <ele>1583.0</ele>
  <time>2026-08-28T17:51:42Z</time>
  <course>0.0</course>
  <speed>0.0</speed>
  <fix>3d</fix>
</trkpt>
<trkpt lat="40.071375" lon="-105.2297889">
  <ele>1583.02</ele>
  <time>2026-08-28T17:51:42Z</time>
  <course>247.19</course>
  <speed>0.022360679774997897</speed>
  <fix>3d</fix>
</trkpt>
<trkpt lat="40.0713749" lon="-105.229789">
  <ele>1583.0</ele>
  <time>2026-08-28T17:51:42Z</time>
  <course>0.0</course>
  <speed>0.0</speed>
  <fix>3d</fix>
</trkpt>
<trkpt lat="40.071375" lon="-105.2297889">
  <ele>1583.03</ele>
  <time>2026-08-28T17:51:42Z</time>
  <course>247.19</course>
  <speed>0.022360679774997897</speed>
  <fix>3d</fix>
</trkpt>
<trkpt lat="40.0713749" lon="-105.229789">
  <ele>1583.0</ele>
  <time>2026-08-28T17:51:42Z</time>
  <course>0.0</course>
  <speed>0.0</speed>
  <fix>3d</fix>
</trkpt>
<trkpt lat="40.071375" lon="-105.2297889">
  <ele>1583.03</ele>
  <time>2026-08-28T17:51:42Z</time>
  <course>247.19</course>
  <speed>0.022360679774997897</speed>
  <fix>3d</fix>
</trkpt>
<trkpt lat="40.0713749" lon="-105.229789">
  <ele>1583.0</ele>
  <time>2026-08-28T17:51:42Z</time>
  <course>0.0</course>
  <speed>0.0</speed>
  <fix>3d</fix>
</trkpt>
<trkpt lat="40.071375" lon="-105.2297889">
  <ele>1583.03</ele>
  <time>2026-08-28T17:51:42Z</time>
  <course>247.19</course>
  <speed>0.022360679774997897</speed>
  <fix>3d</fix>
</trkpt>
<trkpt lat="40.0713749" lon="-105.229789">
  <ele>1583.0</ele>
  <time>2026-08-28T17:51:42Z</time>
  <course>0.0</course>
  <speed>0.0</speed>
  <fix>3d</fix>
</trkpt>
<trkpt lat="40.071375" lon="-105.2297889">
  <ele>1583.03</ele>
  <time>2026-08-28T17:51:42Z</time>
  <course>247.19</course>
  <speed>0.022360679774997897</speed>
  <fix>3d</fix>
</trkpt>
<trkpt lat="40.0713749" lon="-105.229789">
  <ele>1583.0</ele>
  <time>2026-08-28T17:51:42Z</time>
  <course>0.0</course>
  <speed>0.0</speed>
  <fix>3d</fix>
</trkpt>
<trkpt lat="40.071375" lon="-105.2297889">
  <ele>1583.03</ele>
  <time>2026-08-28T17:51:42Z</time>
  <course>247.19</course>
  <speed>0.022360679774997897</speed>
  <fix>3d</fix>
</trkpt>
<trkpt lat="40.0713749" lon="-105.229789">
  <ele>1583.0</ele>
  <time>2026-08-28T17:51:42Z</time>
  <course>0.0</course>
  <speed>0.0</speed>
  <fix>3d</fix>
</trkpt>
<trkpt lat="40.071375" lon="-105.2297889">
  <ele>1583.03</ele>
  <time>2026-08-28T17:51:42Z</time>
  <course>247.18</course>
  <speed>0.022360679774997897</speed>
  <fix>3d</fix>
</trkpt>
<trkpt lat="40.0713749" lon="-105.229789">
  <ele>1583.0</ele>
  <time>2026-08-28T17:51:42Z</time>
  <course>0.0</course>
  <speed>0.0</speed>
  <fix>3d</fix>
</trkpt>
<trkpt lat="40.071375" lon="-105.2297889">
  <ele>1583.02</ele>
  <time>2026-08-28T17:51:42Z</time>
  <course>247.18</course>
  <speed>0.022360679774997897</speed>
  <fix>3d</fix>
</trkpt>
<trkpt lat="40.0713749" lon="-105.229789">
  <ele>1583.0</ele>
  <time>2026-08-28T17:51:42Z</time>
  <course>0.0</course>
  <speed>0.0</speed>
  <fix>3d</fix>
</trkpt>
<trkpt lat="40.071375" lon="-105.2297889">
  <ele>1583.02</ele>
  <time>2026-08-28T17:51:42Z</time>
  <course>247.18</course>
  <speed>0.022360679774997897</speed>
  <fix>3d</fix>
</trkpt>
<trkpt lat="40.0713749" lon="-105.229789">
  <ele>1583.0</ele>
  <time>2026-08-28T17:51:42Z</time>
  <course>0.0</course>
  <speed>0.0</speed>
  <fix>3d</fix>
</trkpt>
<trkpt lat="40.071375" lon="-105.2297889">
  <ele>1583.02</ele>
  <time>2026-08-28T17:51:42Z</time>
  <course>247.18</course>
  <speed>0.022360679774997897</speed>
  <fix>3d</fix>
</trkpt>
<trkpt lat="40.0713749" lon="-105.229789">
  <ele>1583.0</ele>
  <time>2026-08-28T17:51:42Z</time>
  <course>0.0</course>
  <speed>0.0</speed>
  <fix>3d</fix>
</trkpt>
<trkpt lat="40.071375" lon="-105.2297889">
  <ele>1583.01</ele>
  <time>2026-08-28T17:51:42Z</time>
  <course>247.18</course>
  <speed>0.022360679774997897</speed>
  <fix>3d</fix>
</trkpt>
<trkpt lat="40.0713749" lon="-105.229789">
  <ele>1583.0</ele>
  <time>2026-08-28T17:51:42Z</time>
  <course>0.0</course>
  <speed>0.0</speed>
  <fix>3d</fix>
</trkpt>
<trkpt lat="40.071375" lon="-105.2297889">
  <ele>1583.01</ele>
  <time>2026-08-28T17:51:42Z</time>
  <course>247.18</course>
  <speed>0.022360679774997897</speed>
  <fix>3d</fix>
</trkpt>
<trkpt lat="40.0713749" lon="-105.229789">
  <ele>1583.0</ele>
  <time>2026-08-28T17:51:42Z</time>
  <course>0.0</course>
  <speed>0.0</speed>
  <fix>3d</fix>
</trkpt>
<trkpt lat="40.071375" lon="-105.2297889">
  <ele>1583.01</ele>
  <time>2026-08-28T17:51:42Z</time>
  <course>247.18</course>
  <speed>0.022360679774997897</speed>
  <fix>3d</fix>
</trkpt>
<trkpt lat="40.0713749" lon="-105.229789">
  <ele>1583.0</ele>
  <time>2026-08-28T17:51:42Z</time>
  <course>0.0</course>
  <speed>0.0</speed>
  <fix>3d</fix>
</trkpt>
<trkpt lat="40.071375" lon="-105.2297889">
  <ele>1583.0</ele>
  <time>2026-08-28T17:51:42Z</time>
  <course>247.18</course>
  <speed>0.022360679774997897</speed>
  <fix>3d</fix>
</trkpt>
<trkpt lat="40.0713749" lon="-105.229789">
  <ele>1583.0</ele>
  <time>2026-08-28T17:51:42Z</time>
  <course>0.0</course>
  <speed>0.0</speed>
  <fix>3d</fix>
</trkpt>
<trkpt lat="40.071375" lon="-105.2297889">
  <ele>1583.0</ele>
  <time>2026-08-28T17:51:42Z</time>
  <course>247.18</course>
  <speed>0.022360679774997897</speed>
  <fix>3d</fix>
</trkpt>
<trkpt lat="40.0713749" lon="-105.229789">
  <ele>1583.0</ele>
  <time>2026-08-28T17:51:42Z</time>
  <course>0.0</course>
  <speed>0.0</speed>
  <fix>3d</fix>
</trkpt>
<trkpt lat="40.071375" lon="-105.2297889">
  <ele>1582.99</ele>
  <time>2026-08-28T17:51:42Z</time>
  <course>247.18</course>
  <speed>0.022360679774997897</speed>
  <fix>3d</fix>
</trkpt>
<trkpt lat="40.0713749" lon="-105.229789">
  <ele>1583.0</ele>
  <time>2026-08-28T17:51:42Z</time>
  <course>0.0</course>
  <speed>0.0</speed>
  <fix>3d</fix>
</trkpt>
<trkpt lat="40.071375" lon="-105.2297889">
  <ele>1582.98</ele>
  <time>2026-08-28T17:51:42Z</time>
  <course>247.18</course>
  <speed>0.022360679774997897</speed>
  <fix>3d</fix>
</trkpt>
<trkpt lat="40.0713749" lon="-105.229789">
  <ele>1583.0</ele>
  <time>2026-08-28T17:51:42Z</time>
  <course>0.0</course>
  <speed>0.0</speed>
  <fix>3d</fix>
</trkpt>
<trkpt lat="40.071375" lon="-105.2297889">
  <ele>1582.97</ele>
  <time>2026-08-28T17:51:42Z</time>
  <course>247.18</course>
  <speed>0.022360679774997897</speed>
  <fix>3d</fix>
</trkpt>
<trkpt lat="40.0713749" lon="-105.229789">
  <ele>1583.0</ele>
  <time>2026-08-28T17:51:42Z</time>
  <course>0.0</course>
  <speed>0.0</speed>
  <fix>3d</fix>
</trkpt>
<trkpt lat="40.071375" lon="-105.2297889">
  <ele>1582.97</ele>
  <time>2026-08-28T17:51:42Z</time>
  <course>247.18</course>
  <speed>0.022360679774997897</speed>
  <fix>3d</fix>
</trkpt>
<trkpt lat="40.0713749" lon="-105.229789">
  <ele>1583.0</ele>
  <time>2026-08-28T17:51:42Z</time>
  <course>0.0</course>
  <speed>0.0</speed>
  <fix>3d</fix>
</trkpt>
<trkpt lat="40.071375" lon="-105.2297889">
  <ele>1582.96</ele>
  <time>2026-08-28T17:51:42Z</time>
  <course>247.18</course>
  <speed>0.022360679774997897</speed>
  <fix>3d</fix>
</trkpt>
<trkpt lat="40.0713749" lon="-105.229789">
  <ele>1583.0</ele>
  <time>2026-08-28T17:51:42Z</time>
  <course>0.0</course>
  <speed>0.0</speed>
  <fix>3d</fix>
</trkpt>
<trkpt lat="40.071375" lon="-105.2297889">
  <ele>1582.96</ele>
  <time>2026-08-28T17:51:42Z</time>
  <course>247.17</course>
  <speed>0.022360679774997897</speed>
  <fix>3d</fix>
</trkpt>
<trkpt lat="40.0713749" lon="-105.229789">
  <ele>1583.0</ele>
  <time>2026-08-28T17:51:42Z</time>
  <course>0.0</course>
  <speed>0.0</speed>
  <fix>3d</fix>
</trkpt>
<trkpt lat="40.071375" lon="-105.2297889">
  <ele>1582.96</ele>
  <time>2026-08-28T17:51:42Z</time>
  <course>247.17</course>
  <speed>0.022360679774997897</speed>
  <fix>3d</fix>
</trkpt>
<trkpt lat="40.0713749" lon="-105.229789">
  <ele>1583.0</ele>
  <time>2026-08-28T17:51:42Z</time>
  <course>0.0</course>
  <speed>0.0</speed>
  <fix>3d</fix>
</trkpt>
<trkpt lat="40.071375" lon="-105.2297889">
  <ele>1582.96</ele>
  <time>2026-08-28T17:51:42Z</time>
  <course>247.17</course>
  <speed>0.022360679774997897</speed>
  <fix>3d</fix>
</trkpt>
<trkpt lat="40.0713749" lon="-105.229789">
  <ele>1583.0</ele>
  <time>2026-08-28T17:51:42Z</time>
  <course>0.0</course>
  <speed>0.0</speed>
  <fix>3d</fix>
</trkpt>
<trkpt lat="40.071375" lon="-105.2297889">
  <ele>1582.96</ele>
  <time>2026-08-28T17:51:42Z</time>
  <course>247.17</course>
  <speed>0.022360679774997897</speed>
  <fix>3d</fix>
</trkpt>
<trkpt lat="40.0713749" lon="-105.229789">
  <ele>1583.0</ele>
  <time>2026-08-28T17:51:42Z</time>
  <course>0.0</course>
  <speed>0.0</speed>
  <fix>3d</fix>
</trkpt>
<trkpt lat="40.071375" lon="-105.2297889">
  <ele>1582.96</ele>
  <time>2026-08-28T17:51:42Z</time>
  <course>247.17</course>
  <speed>0.022360679774997897</speed>
  <fix>3d</fix>
</trkpt>
<trkpt lat="40.0713749" lon="-105.229789">
  <ele>1583.0</ele>
  <time>2026-08-28T17:51:42Z</time>
  <course>0.0</course>
  <speed>0.0</speed>
  <fix>3d</fix>
</trkpt>
<trkpt lat="40.071375" lon="-105.2297889">
  <ele>1582.96</ele>
  <time>2026-08-28T17:51:42Z</time>
  <course>247.17</course>
  <speed>0.022360679774997897</speed>
  <fix>3d</fix>
</trkpt>
<trkpt lat="40.0713749" lon="-105.229789">
  <ele>1583.0</ele>
  <time>2026-08-28T17:51:42Z</time>
  <course>0.0</course>
  <speed>0.0</speed>
  <fix>3d</fix>
</trkpt>
<trkpt lat="40.071375" lon="-105.2297889">
  <ele>1582.97</ele>
  <time>2026-08-28T17:51:42Z</time>
  <course>247.17</course>
  <speed>0.022360679774997897</speed>
  <fix>3d</fix>
</trkpt>
<trkpt lat="40.0713749" lon="-105.229789">
  <ele>1583.0</ele>
  <time>2026-08-28T17:51:42Z</time>
  <course>0.0</course>
  <speed>0.0</speed>
  <fix>3d</fix>
</trkpt>
<trkpt lat="40.071375" lon="-105.2297889">
  <ele>1582.97</ele>
  <time>2026-08-28T17:51:42Z</time>
  <course>247.17</course>
  <speed>0.022360679774997897</speed>
  <fix>3d</fix>
</trkpt>
<trkpt lat="40.0713749" lon="-105.229789">
  <ele>1583.0</ele>
  <time>2026-08-28T17:51:42Z</time>
  <course>0.0</course>
  <speed>0.0</speed>
  <fix>3d</fix>
</trkpt>
<trkpt lat="40.071375" lon="-105.2297889">
  <ele>1582.98</ele>
  <time>2026-08-28T17:51:42Z</time>
  <course>247.17</course>
  <speed>0.022360679774997897</speed>
  <fix>3d</fix>
</trkpt>
<trkpt lat="40.0713749" lon="-105.229789">
  <ele>1583.0</ele>
  <time>2026-08-28T17:51:42Z</time>
  <course>0.0</course>
  <speed>0.0</speed>
  <fix>3d</fix>
</trkpt>
<trkpt lat="40.071375" lon="-105.2297889">
  <ele>1582.98</ele>
  <time>2026-08-28T17:51:42Z</time>
  <course>247.17</course>
  <speed>0.022360679774997897</speed>
  <fix>3d</fix>
</trkpt>
<trkpt lat="40.0713749" lon="-105.229789">
  <ele>1583.0</ele>
  <time>2026-08-28T17:51:42Z</time>
  <course>0.0</course>
  <speed>0.0</speed>
  <fix>3d</fix>
</trkpt>
<trkpt lat="40.071375" lon="-105.2297889">
  <ele>1582.99</ele>
  <time>2026-08-28T17:51:42Z</time>
  <course>247.17</course>
  <speed>0.022360679774997897</speed>
  <fix>3d</fix>
</trkpt>
<trkpt lat="40.0713749" lon="-105.229789">
  <ele>1583.0</ele>
  <time>2026-08-28T17:51:42Z</time>
  <course>0.0</course>
  <speed>0.0</speed>
  <fix>3d</fix>
</trkpt>
<trkpt lat="40.071375" lon="-105.2297889">
  <ele>1582.99</ele>
  <time>2026-08-28T17:51:42Z</time>
  <course>247.17</course>
  <speed>0.022360679774997897</speed>
  <fix>3d</fix>
</trkpt>
<trkpt lat="40.0713749" lon="-105.229789">
  <ele>1583.0</ele>
  <time>2026-08-28T17:51:42Z</time>
  <course>0.0</course>
  <speed>0.0</speed>
  <fix>3d</fix>
</trkpt>
<trkpt lat="40.071375" lon="-105.2297889">
  <ele>1583.0</ele>
  <time>2026-08-28T17:51:42Z</time>
  <course>247.17</course>
  <speed>0.022360679774997897</speed>
  <fix>3d</fix>
</trkpt>
<trkpt lat="40.0713749" lon="-105.229789">
  <ele>1583.0</ele>
  <time>2026-08-28T17:51:42Z</time>
  <course>0.0</course>
  <speed>0.0</speed>
  <fix>3d</fix>
</trkpt>
<trkpt lat="40.071375" lon="-105.2297889">
  <ele>1583.0</ele>
  <time>2026-08-28T17:51:42Z</time>
  <course>247.17</course>
  <speed>0.022360679774997897</speed>
  <fix>3d</fix>
</trkpt>
<trkpt lat="40.0713749" lon="-105.229789">
  <ele>1583.0</ele>
  <time>2026-08-28T17:51:42Z</time>
  <course>0.0</course>
  <speed>0.0</speed>
  <fix>3d</fix>
</trkpt>
<trkpt lat="40.071375" lon="-105.2297889">
  <ele>1583.0</ele>
  <time>2026-08-28T17:51:42Z</time>
  <course>247.16</course>
  <speed>0.022360679774997897</speed>
  <fix>3d</fix>
</trkpt>
<trkpt lat="40.0713749" lon="-105.229789">
  <ele>1583.0</ele>
  <time>2026-08-28T17:51:42Z</time>
  <course>0.0</course>
  <speed>0.0</speed>
  <fix>3d</fix>
</trkpt>
<trkpt lat="40.071375" lon="-105.2297889">
  <ele>1583.01</ele>
  <time>2026-08-28T17:51:42Z</time>
  <course>247.16</course>
  <speed>0.022360679774997897</speed>
  <fix>3d</fix>
</trkpt>
<trkpt lat="40.0713749" lon="-105.229789">
  <ele>1583.0</ele>
  <time>2026-08-28T17:51:42Z</time>
  <course>0.0</course>
  <speed>0.0</speed>
  <fix>3d</fix>
</trkpt>
<trkpt lat="40.071375" lon="-105.2297889">
  <ele>1583.01</ele>
  <time>2026-08-28T17:51:42Z</time>
  <course>247.16</course>
  <speed>0.022360679774997897</speed>
  <fix>3d</fix>
</trkpt>
<trkpt lat="40.0713749" lon="-105.229789">
  <ele>1583.0</ele>
  <time>2026-08-28T17:51:42Z</time>
  <course>0.0</course>
  <speed>0.0</speed>
  <fix>3d</fix>
</trkpt>
<trkpt lat="40.071375" lon="-105.2297889">
  <ele>1583.01</ele>
  <time>2026-08-28T17:51:42Z</time>
  <course>247.16</course>
  <speed>0.022360679774997897</speed>
  <fix>3d</fix>
</trkpt>
<trkpt lat="40.0713749" lon="-105.229789">
  <ele>1583.0</ele>
  <time>2026-08-28T17:51:42Z</time>
  <course>0.0</course>
  <speed>0.0</speed>
  <fix>3d</fix>
</trkpt>
<trkpt lat="40.071375" lon="-105.2297889">
  <ele>1583.01</ele>
  <time>2026-08-28T17:51:42Z</time>
  <course>247.16</course>
  <speed>0.022360679774997897</speed>
  <fix>3d</fix>
</trkpt>
<trkpt lat="40.0713749" lon="-105.229789">
  <ele>1583.0</ele>
  <time>2026-08-28T17:51:42Z</time>
  <course>0.0</course>
  <speed>0.0</speed>
  <fix>3d</fix>
</trkpt>
<trkpt lat="40.071375" lon="-105.2297889">
  <ele>1583.02</ele>
  <time>2026-08-28T17:51:42Z</time>
  <course>247.16</course>
  <speed>0.022360679774997897</speed>
  <fix>3d</fix>
</trkpt>
<trkpt lat="40.0713749" lon="-105.229789">
  <ele>1583.0</ele>
  <time>2026-08-28T17:51:42Z</time>
  <course>0.0</course>
  <speed>0.0</speed>
  <fix>3d</fix>
</trkpt>
<trkpt lat="40.071375" lon="-105.2297889">
  <ele>1583.02</ele>
  <time>2026-08-28T17:51:42Z</time>
  <course>247.16</course>
  <speed>0.022360679774997897</speed>
  <fix>3d</fix>
</trkpt>
<trkpt lat="40.0713749" lon="-105.229789">
  <ele>1583.0</ele>
  <time>2026-08-28T17:51:42Z</time>
  <course>0.0</course>
  <speed>0.0</speed>
  <fix>3d</fix>
</trkpt>
<trkpt lat="40.071375" lon="-105.2297889">
  <ele>1583.03</ele>
  <time>2026-08-28T17:51:42Z</time>
  <course>247.16</course>
  <speed>0.022360679774997897</speed>
  <fix>3d</fix>
</trkpt>
<trkpt lat="40.0713749" lon="-105.229789">
  <ele>1583.0</ele>
  <time>2026-08-28T17:51:42Z</time>
  <course>0.0</course>
  <speed>0.0</speed>
  <fix>3d</fix>
</trkpt>
<trkpt lat="40.071375" lon="-105.2297889">
  <ele>1583.03</ele>
  <time>2026-08-28T17:51:42Z</time>
  <course>247.16</course>
  <speed>0.022360679774997897</speed>
  <fix>3d</fix>
</trkpt>
<trkpt lat="40.0713749" lon="-105.229789">
  <ele>1583.0</ele>
  <time>2026-08-28T17:51:42Z</time>
  <course>0.0</course>
  <speed>0.0</speed>
  <fix>3d</fix>
</trkpt>
<trkpt lat="40.071375" lon="-105.2297889">
  <ele>1583.03</ele>
  <time>2026-08-28T17:51:42Z</time>
  <course>247.16</course>
  <speed>0.022360679774997897</speed>
  <fix>3d</fix>
</trkpt>
<trkpt lat="40.0713749" lon="-105.229789">
  <ele>1583.0</ele>
  <time>2026-08-28T17:51:42Z</time>
  <course>0.0</course>
  <speed>0.0</speed>
  <fix>3d</fix>
</trkpt>
<trkpt lat="40.071375" lon="-105.2297889">
  <ele>1583.03</ele>
  <time>2026-08-28T17:51:42Z</time>
  <course>247.16</course>
  <speed>0.022360679774997897</speed>
  <fix>3d</fix>
</trkpt>
<trkpt lat="40.0713749" lon="-105.229789">
  <ele>1583.0</ele>
  <time>2026-08-28T17:51:42Z</time>
  <course>0.0</course>
  <speed>0.0</speed>
  <fix>3d</fix>
</trkpt>
<trkpt lat="40.071375" lon="-105.2297889">
  <ele>1583.03</ele>
  <time>2026-08-28T17:51:42Z</time>
  <course>247.16</course>
  <speed>0.022360679774997897</speed>
  <fix>3d</fix>
</trkpt>
<trkpt lat="40.0713749" lon="-105.229789">
  <ele>1583.0</ele>
  <time>2026-08-28T17:51:42Z</time>
  <course>0.0</course>
  <speed>0.0</speed>
  <fix>3d</fix>
</trkpt>
<trkpt lat="40.071375" lon="-105.2297889">
  <ele>1583.03</ele>
  <time>2026-08-28T17:51:42Z</time>
  <course>247.16</course>
  <speed>0.022360679774997897</speed>
  <fix>3d</fix>
</trkpt>
<trkpt lat="40.0713749" lon="-105.229789">
  <ele>1583.0</ele>
  <time>2026-08-28T17:51:42Z</time>
  <course>0.0</course>
  <speed>0.0</speed>
  <fix>3d</fix>
</trkpt>
<trkpt lat="40.071375" lon="-105.2297889">
  <ele>1583.03</ele>
  <time>2026-08-28T17:51:42Z</time>
  <course>247.16</course>
  <speed>0.022360679774997897</speed>
  <fix>3d</fix>
</trkpt>
<trkpt lat="40.0713749" lon="-105.229789">
  <ele>1583.0</ele>
  <time>2026-08-28T17:51:42Z</time>
  <course>0.0</course>
  <speed>0.0</speed>
  <fix>3d</fix>
</trkpt>
<trkpt lat="40.071375" lon="-105.2297889">
  <ele>1583.03</ele>
  <time>2026-08-28T17:51:42Z</time>
  <course>247.16</course>
  <speed>0.022360679774997897</speed>
  <fix>3d</fix>
</trkpt>
<trkpt lat="40.0713749" lon="-105.229789">
  <ele>1583.0</ele>
  <time>2026-08-28T17:51:42Z</time>
  <course>0.0</course>
  <speed>0.0</speed>
  <fix>3d</fix>
</trkpt>
<trkpt lat="40.071375" lon="-105.2297889">
  <ele>1583.03</ele>
  <time>2026-08-28T17:51:42Z</time>
  <course>247.16</course>
  <speed>0.022360679774997897</speed>
  <fix>3d</fix>
</trkpt>
<trkpt lat="40.0713749" lon="-105.229789">
  <ele>1583.0</ele>
  <time>2026-08-28T17:51:42Z</time>
  <course>0.0</course>
  <speed>0.0</speed>
  <fix>3d</fix>
</trkpt>
<trkpt lat="40.071375" lon="-105.2297889">
  <ele>1583.02</ele>
  <time>2026-08-28T17:51:42Z</time>
  <course>247.16</course>
  <speed>0.022360679774997897</speed>
  <fix>3d</fix>
</trkpt>
<trkpt lat="40.0713749" lon="-105.229789">
  <ele>1583.0</ele>
  <time>2026-08-28T17:51:42Z</time>
  <course>0.0</course>
  <speed>0.0</speed>
  <fix>3d</fix>
</trkpt>
<trkpt lat="40.071375" lon="-105.2297889">
  <ele>1583.02</ele>
  <time>2026-08-28T17:51:42Z</time>
  <course>247.16</course>
  <speed>0.022360679774997897</speed>
  <fix>3d</fix>
</trkpt>
<trkpt lat="40.0713749" lon="-105.229789">
  <ele>1583.0</ele>
  <time>2026-08-28T17:51:42Z</time>
  <course>0.0</course>
  <speed>0.0</speed>
  <fix>3d</fix>
</trkpt>
<trkpt lat="40.071375" lon="-105.2297889">
  <ele>1583.01</ele>
  <time>2026-08-28T17:51:42Z</time>
  <course>247.15</course>
  <speed>0.022360679774997897</speed>
  <fix>3d</fix>
</trkpt>
<trkpt lat="40.0713749" lon="-105.229789">
  <ele>1583.0</ele>
  <time>2026-08-28T17:51:42Z</time>
  <course>0.0</course>
  <speed>0.0</speed>
  <fix>3d</fix>
</trkpt>
<trkpt lat="40.071375" lon="-105.2297889">
  <ele>1583.01</ele>
  <time>2026-08-28T17:51:42Z</time>
  <course>247.15</course>
  <speed>0.022360679774997897</speed>
  <fix>3d</fix>
</trkpt>
<trkpt lat="40.0713749" lon="-105.229789">
  <ele>1583.0</ele>
  <time>2026-08-28T17:51:42Z</time>
  <course>0.0</course>
  <speed>0.0</speed>
  <fix>3d</fix>
</trkpt>
<trkpt lat="40.071375" lon="-105.2297889">
  <ele>1583.02</ele>
  <time>2026-08-28T17:51:42Z</time>
  <course>247.15</course>
  <speed>0.022360679774997897</speed>
  <fix>3d</fix>
</trkpt>
<trkpt lat="40.0713749" lon="-105.229789">
  <ele>1583.0</ele>
  <time>2026-08-28T17:51:42Z</time>
  <course>0.0</course>
  <speed>0.0</speed>
  <fix>3d</fix>
</trkpt>
<trkpt lat="40.071375" lon="-105.2297889">
  <ele>1583.02</ele>
  <time>2026-08-28T17:51:42Z</time>
  <course>247.15</course>
  <speed>0.022360679774997897</speed>
  <fix>3d</fix>
</trkpt>
<trkpt lat="40.0713749" lon="-105.229789">
  <ele>1583.0</ele>
  <time>2026-08-28T17:51:42Z</time>
  <course>0.0</course>
  <speed>0.0</speed>
  <fix>3d</fix>
</trkpt>
<trkpt lat="40.071375" lon="-105.2297889">
  <ele>1583.02</ele>
  <time>2026-08-28T17:51:42Z</time>
  <course>247.15</course>
  <speed>0.022360679774997897</speed>
  <fix>3d</fix>
</trkpt>
<trkpt lat="40.0713749" lon="-105.229789">
  <ele>1583.0</ele>
  <time>2026-08-28T17:51:42Z</time>
  <course>0.0</course>
  <speed>0.0</speed>
  <fix>3d</fix>
</trkpt>
<trkpt lat="40.071375" lon="-105.2297889">
  <ele>1583.02</ele>
  <time>2026-08-28T17:51:42Z</time>
  <course>247.15</course>
  <speed>0.022360679774997897</speed>
  <fix>3d</fix>
</trkpt>
<trkpt lat="40.0713749" lon="-105.229789">
  <ele>1583.0</ele>
  <time>2026-08-28T17:51:42Z</time>
  <course>0.0</course>
  <speed>0.0</speed>
  <fix>3d</fix>
</trkpt>
<trkpt lat="40.071375" lon="-105.2297889">
  <ele>1583.02</ele>
  <time>2026-08-28T17:51:42Z</time>
  <course>247.15</course>
  <speed>0.022360679774997897</speed>
  <fix>3d</fix>
</trkpt>
<trkpt lat="40.0713749" lon="-105.229789">
  <ele>1583.0</ele>
  <time>2026-08-28T17:51:42Z</time>
  <course>0.0</course>
  <speed>0.0</speed>
  <fix>3d</fix>
</trkpt>
<trkpt lat="40.071375" lon="-105.2297889">
  <ele>1583.02</ele>
  <time>2026-08-28T17:51:42Z</time>
  <course>247.15</course>
  <speed>0.022360679774997897</speed>
  <fix>3d</fix>
</trkpt>
<trkpt lat="40.0713749" lon="-105.229789">
  <ele>1583.0</ele>
  <time>2026-08-28T17:51:42Z</time>
  <course>0.0</course>
  <speed>0.0</speed>
  <fix>3d</fix>
</trkpt>
<trkpt lat="40.071375" lon="-105.2297889">
  <ele>1583.03</ele>
  <time>2026-08-28T17:51:42Z</time>
  <course>247.15</course>
  <speed>0.022360679774997897</speed>
  <fix>3d</fix>
</trkpt>
<trkpt lat="40.0713749" lon="-105.229789">
  <ele>1583.0</ele>
  <time>2026-08-28T17:51:42Z</time>
  <course>0.0</course>
  <speed>0.0</speed>
  <fix>3d</fix>
</trkpt>
<trkpt lat="40.071375" lon="-105.2297889">
  <ele>1583.03</ele>
  <time>2026-08-28T17:51:42Z</time>
  <course>247.15</course>
  <speed>0.022360679774997897</speed>
  <fix>3d</fix>
</trkpt>
<trkpt lat="40.0713749" lon="-105.229789">
  <ele>1583.0</ele>
  <time>2026-08-28T17:51:42Z</time>
  <course>0.0</course>
  <speed>0.0</speed>
  <fix>3d</fix>
</trkpt>
<trkpt lat="40.071375" lon="-105.2297889">
  <ele>1583.03</ele>
  <time>2026-08-28T17:51:42Z</time>
  <course>247.15</course>
  <speed>0.022360679774997897</speed>
  <fix>3d</fix>
</trkpt>
<trkpt lat="40.0713749" lon="-105.229789">
  <ele>1583.0</ele>
  <time>2026-08-28T17:51:42Z</time>
  <course>0.0</course>
  <speed>0.0</speed>
  <fix>3d</fix>
</trkpt>
<trkpt lat="40.071375" lon="-105.2297889">
  <ele>1583.04</ele>
  <time>2026-08-28T17:51:42Z</time>
  <course>247.15</course>
  <speed>0.022360679774997897</speed>
  <fix>3d</fix>
</trkpt>
<trkpt lat="40.0713749" lon="-105.229789">
  <ele>1583.0</ele>
  <time>2026-08-28T17:51:42Z</time>
  <course>0.0</course>
  <speed>0.0</speed>
  <fix>3d</fix>
</trkpt>
<trkpt lat="40.071375" lon="-105.2297889">
  <ele>1583.04</ele>
  <time>2026-08-28T17:51:42Z</time>
  <course>247.15</course>
  <speed>0.022360679774997897</speed>
  <fix>3d</fix>
</trkpt>
<trkpt lat="40.0713749" lon="-105.229789">
  <ele>1583.0</ele>
  <time>2026-08-28T17:51:42Z</time>
  <course>0.0</course>
  <speed>0.0</speed>
  <fix>3d</fix>
</trkpt>
<trkpt lat="40.071375" lon="-105.2297889">
  <ele>1583.04</ele>
  <time>2026-08-28T17:51:42Z</time>
  <course>247.15</course>
  <speed>0.022360679774997897</speed>
  <fix>3d</fix>
</trkpt>
<trkpt lat="40.0713749" lon="-105.229789">
  <ele>1583.0</ele>
  <time>2026-08-28T17:51:42Z</time>
  <course>0.0</course>
  <speed>0.0</speed>
  <fix>3d</fix>
</trkpt>
<trkpt lat="40.071375" lon="-105.2297889">
  <ele>1583.04</ele>
  <time>2026-08-28T17:51:42Z</time>
  <course>247.15</course>
  <speed>0.022360679774997897</speed>
  <fix>3d</fix>
</trkpt>
<trkpt lat="40.0713749" lon="-105.229789">
  <ele>1583.0</ele>
  <time>2026-08-28T17:51:42Z</time>
  <course>0.0</course>
  <speed>0.0</speed>
  <fix>3d</fix>
</trkpt>
<trkpt lat="40.071375" lon="-105.2297889">
  <ele>1583.03</ele>
  <time>2026-08-28T17:51:42Z</time>
  <course>247.15</course>
  <speed>0.022360679774997897</speed>
  <fix>3d</fix>
</trkpt>
<trkpt lat="40.0713749" lon="-105.229789">
  <ele>1583.0</ele>
  <time>2026-08-28T17:51:42Z</time>
  <course>0.0</course>
  <speed>0.0</speed>
  <fix>3d</fix>
</trkpt>
<trkpt lat="40.071375" lon="-105.2297889">
  <ele>1583.03</ele>
  <time>2026-08-28T17:51:42Z</time>
  <course>247.15</course>
  <speed>0.022360679774997897</speed>
  <fix>3d</fix>
</trkpt>
<trkpt lat="40.0713749" lon="-105.229789">
  <ele>1583.0</ele>
  <time>2026-08-28T17:51:42Z</time>
  <course>0.0</course>
  <speed>0.0</speed>
  <fix>3d</fix>
</trkpt>
<trkpt lat="40.071375" lon="-105.2297889">
  <ele>1583.03</ele>
  <time>2026-08-28T17:51:42Z</time>
  <course>247.15</course>
  <speed>0.022360679774997897</speed>
  <fix>3d</fix>
</trkpt>
<trkpt lat="40.0713749" lon="-105.229789">
  <ele>1583.0</ele>
  <time>2026-08-28T17:51:42Z</time>
  <course>0.0</course>
  <speed>0.0</speed>
  <fix>3d</fix>
</trkpt>
<trkpt lat="40.071375" lon="-105.2297889">
  <ele>1583.02</ele>
  <time>2026-08-28T17:51:42Z</time>
  <course>247.15</course>
  <speed>0.022360679774997897</speed>
  <fix>3d</fix>
</trkpt>
<trkpt lat="40.0713749" lon="-105.229789">
  <ele>1583.0</ele>
  <time>2026-08-28T17:51:42Z</time>
  <course>0.0</course>
  <speed>0.0</speed>
  <fix>3d</fix>
</trkpt>
<trkpt lat="40.071375" lon="-105.2297889">
  <ele>1583.02</ele>
  <time>2026-08-28T17:51:42Z</time>
  <course>247.15</course>
  <speed>0.022360679774997897</speed>
  <fix>3d</fix>
</trkpt>
<trkpt lat="40.0713749" lon="-105.229789">
  <ele>1583.0</ele>
  <time>2026-08-28T17:51:42Z</time>
  <course>0.0</course>
  <speed>0.0</speed>
  <fix>3d</fix>
</trkpt>
<trkpt lat="40.071375" lon="-105.2297889">
  <ele>1583.02</ele>
  <time>2026-08-28T17:51:42Z</time>
  <course>247.14</course>
  <speed>0.022360679774997897</speed>
  <fix>3d</fix>
</trkpt>
<trkpt lat="40.0713749" lon="-105.229789">
  <ele>1583.0</ele>
  <time>2026-08-28T17:51:42Z</time>
  <course>0.0</course>
  <speed>0.0</speed>
  <fix>3d</fix>
</trkpt>
<trkpt lat="40.071375" lon="-105.2297889">
  <ele>1583.02</ele>
  <time>2026-08-28T17:51:42Z</time>
  <course>247.14</course>
  <speed>0.022360679774997897</speed>
  <fix>3d</fix>
</trkpt>
<trkpt lat="40.0713749" lon="-105.229789">
  <ele>1583.0</ele>
  <time>2026-08-28T17:51:42Z</time>
  <course>0.0</course>
  <speed>0.0</speed>
  <fix>3d</fix>
</trkpt>
<trkpt lat="40.071375" lon="-105.2297889">
  <ele>1583.02</ele>
  <time>2026-08-28T17:51:42Z</time>
  <course>247.14</course>
  <speed>0.022360679774997897</speed>
  <fix>3d</fix>
</trkpt>
<trkpt lat="40.0713749" lon="-105.229789">
  <ele>1583.0</ele>
  <time>2026-08-28T17:51:42Z</time>
  <course>0.0</course>
  <speed>0.0</speed>
  <fix>3d</fix>
</trkpt>
<trkpt lat="40.071375" lon="-105.2297889">
  <ele>1583.02</ele>
  <time>2026-08-28T17:51:42Z</time>
  <course>247.14</course>
  <speed>0.022360679774997897</speed>
  <fix>3d</fix>
</trkpt>
<trkpt lat="40.0713749" lon="-105.229789">
  <ele>1583.0</ele>
  <time>2026-08-28T17:51:42Z</time>
  <course>0.0</course>
  <speed>0.0</speed>
  <fix>3d</fix>
</trkpt>
<trkpt lat="40.071375" lon="-105.2297889">
  <ele>1583.02</ele>
  <time>2026-08-28T17:51:42Z</time>
  <course>247.14</course>
  <speed>0.022360679774997897</speed>
  <fix>3d</fix>
</trkpt>
<trkpt lat="40.0713749" lon="-105.229789">
  <ele>1583.0</ele>
  <time>2026-08-28T17:51:42Z</time>
  <course>0.0</course>
  <speed>0.0</speed>
  <fix>3d</fix>
</trkpt>
<trkpt lat="40.071375" lon="-105.2297889">
  <ele>1583.02</ele>
  <time>2026-08-28T17:51:42Z</time>
  <course>247.14</course>
  <speed>0.022360679774997897</speed>
  <fix>3d</fix>
</trkpt>
<trkpt lat="40.0713749" lon="-105.229789">
  <ele>1583.0</ele>
  <time>2026-08-28T17:51:42Z</time>
  <course>0.0</course>
  <speed>0.0</speed>
  <fix>3d</fix>
</trkpt>
<trkpt lat="40.071375" lon="-105.2297889">
  <ele>1583.03</ele>
  <time>2026-08-28T17:51:42Z</time>
  <course>247.14</course>
  <speed>0.022360679774997897</speed>
  <fix>3d</fix>
</trkpt>
<trkpt lat="40.0713749" lon="-105.229789">
  <ele>1583.0</ele>
  <time>2026-08-28T17:51:42Z</time>
  <course>0.0</course>
  <speed>0.0</speed>
  <fix>3d</fix>
</trkpt>
<trkpt lat="40.071375" lon="-105.2297889">
  <ele>1583.03</ele>
  <time>2026-08-28T17:51:42Z</time>
  <course>247.14</course>
  <speed>0.022360679774997897</speed>
  <fix>3d</fix>
</trkpt>
<trkpt lat="40.0713749" lon="-105.229789">
  <ele>1583.0</ele>
  <time>2026-08-28T17:51:42Z</time>
  <course>0.0</course>
  <speed>0.0</speed>
  <fix>3d</fix>
</trkpt>
<trkpt lat="40.071375" lon="-105.2297889">
  <ele>1583.03</ele>
  <time>2026-08-28T17:51:42Z</time>
  <course>247.14</course>
  <speed>0.022360679774997897</speed>
  <fix>3d</fix>
</trkpt>
<trkpt lat="40.0713749" lon="-105.229789">
  <ele>1583.0</ele>
  <time>2026-08-28T17:51:42Z</time>
  <course>0.0</course>
  <speed>0.0</speed>
  <fix>3d</fix>
</trkpt>
<trkpt lat="40.071375" lon="-105.2297889">
  <ele>1583.03</ele>
  <time>2026-08-28T17:51:42Z</time>
  <course>247.14</course>
  <speed>0.022360679774997897</speed>
  <fix>3d</fix>
</trkpt>
<trkpt lat="40.0713749" lon="-105.229789">
  <ele>1583.0</ele>
  <time>2026-08-28T17:51:42Z</time>
  <course>0.0</course>
  <speed>0.0</speed>
  <fix>3d</fix>
</trkpt>
<trkpt lat="40.071375" lon="-105.2297889">
  <ele>1583.03</ele>
  <time>2026-08-28T17:51:42Z</time>
  <course>247.14</course>
  <speed>0.022360679774997897</speed>
  <fix>3d</fix>
</trkpt>
<trkpt lat="40.0713749" lon="-105.229789">
  <ele>1583.0</ele>
  <time>2026-08-28T17:51:42Z</time>
  <course>0.0</course>
  <speed>0.0</speed>
  <fix>3d</fix>
</trkpt>
<trkpt lat="40.071375" lon="-105.2297889">
  <ele>1583.03</ele>
  <time>2026-08-28T17:51:42Z</time>
  <course>247.14</course>
  <speed>0.022360679774997897</speed>
  <fix>3d</fix>
</trkpt>
<trkpt lat="40.0713749" lon="-105.229789">
  <ele>1583.0</ele>
  <time>2026-08-28T17:51:42Z</time>
  <course>0.0</course>
  <speed>0.0</speed>
  <fix>3d</fix>
</trkpt>
<trkpt lat="40.071375" lon="-105.2297889">
  <ele>1583.03</ele>
  <time>2026-08-28T17:51:42Z</time>
  <course>247.14</course>
  <speed>0.022360679774997897</speed>
  <fix>3d</fix>
</trkpt>
<trkpt lat="40.0713749" lon="-105.229789">
  <ele>1583.0</ele>
  <time>2026-08-28T17:51:42Z</time>
  <course>0.0</course>
  <speed>0.0</speed>
  <fix>3d</fix>
</trkpt>
<trkpt lat="40.071375" lon="-105.2297889">
  <ele>1583.02</ele>
  <time>2026-08-28T17:51:42Z</time>
  <course>247.14</course>
  <speed>0.022360679774997897</speed>
  <fix>3d</fix>
</trkpt>
<trkpt lat="40.0713749" lon="-105.229789">
  <ele>1583.0</ele>
  <time>2026-08-28T17:51:42Z</time>
  <course>0.0</course>
  <speed>0.0</speed>
  <fix>3d</fix>
</trkpt>
<trkpt lat="40.071375" lon="-105.2297889">
  <ele>1583.01</ele>
  <time>2026-08-28T17:51:42Z</time>
  <course>247.14</course>
  <speed>0.022360679774997897</speed>
  <fix>3d</fix>
</trkpt>
<trkpt lat="40.0713749" lon="-105.229789">
  <ele>1583.0</ele>
  <time>2026-08-28T17:51:42Z</time>
  <course>0.0</course>
  <speed>0.0</speed>
  <fix>3d</fix>
</trkpt>
<trkpt lat="40.071375" lon="-105.2297889">
  <ele>1583.0</ele>
  <time>2026-08-28T17:51:42Z</time>
  <course>247.14</course>
  <speed>0.022360679774997897</speed>
  <fix>3d</fix>
</trkpt>
<trkpt lat="40.0713749" lon="-105.229789">
  <ele>1583.0</ele>
  <time>2026-08-28T17:51:42Z</time>
  <course>0.0</course>
  <speed>0.0</speed>
  <fix>3d</fix>
</trkpt>
<trkpt lat="40.071375" lon="-105.2297889">
  <ele>1582.99</ele>
  <time>2026-08-28T17:51:42Z</time>
  <course>247.14</course>
  <speed>0.022360679774997897</speed>
  <fix>3d</fix>
</trkpt>
<trkpt lat="40.0713749" lon="-105.229789">
  <ele>1583.0</ele>
  <time>2026-08-28T17:51:42Z</time>
  <course>0.0</course>
  <speed>0.0</speed>
  <fix>3d</fix>
</trkpt>
<trkpt lat="40.071375" lon="-105.2297889">
  <ele>1582.99</ele>
  <time>2026-08-28T17:51:42Z</time>
  <course>247.14</course>
  <speed>0.022360679774997897</speed>
  <fix>3d</fix>
</trkpt>
<trkpt lat="40.0713749" lon="-105.229789">
  <ele>1583.0</ele>
  <time>2026-08-28T17:51:42Z</time>
  <course>0.0</course>
  <speed>0.0</speed>
  <fix>3d</fix>
</trkpt>
<trkpt lat="40.071375" lon="-105.2297889">
  <ele>1582.99</ele>
  <time>2026-08-28T17:51:42Z</time>
  <course>247.14</course>
  <speed>0.022360679774997897</speed>
  <fix>3d</fix>
</trkpt>
<trkpt lat="40.0713749" lon="-105.229789">
  <ele>1583.0</ele>
  <time>2026-08-28T17:51:42Z</time>
  <course>0.0</course>
  <speed>0.0</speed>
  <fix>3d</fix>
</trkpt>
<trkpt lat="40.071375" lon="-105.2297889">
  <ele>1582.98</ele>
  <time>2026-08-28T17:51:42Z</time>
  <course>247.13</course>
  <speed>0.022360679774997897</speed>
  <fix>3d</fix>
</trkpt>
<trkpt lat="40.0713749" lon="-105.229789">
  <ele>1583.0</ele>
  <time>2026-08-28T17:51:42Z</time>
  <course>0.0</course>
  <speed>0.0</speed>
  <fix>3d</fix>
</trkpt>
<trkpt lat="40.071375" lon="-105.2297889">
  <ele>1582.98</ele>
  <time>2026-08-28T17:51:42Z</time>
  <course>247.13</course>
  <speed>0.022360679774997897</speed>
  <fix>3d</fix>
</trkpt>
<trkpt lat="40.0713749" lon="-105.229789">
  <ele>1583.0</ele>
  <time>2026-08-28T17:51:42Z</time>
  <course>0.0</course>
  <speed>0.0</speed>
  <fix>3d</fix>
</trkpt>
<trkpt lat="40.071375" lon="-105.2297889">
  <ele>1582.97</ele>
  <time>2026-08-28T17:51:42Z</time>
  <course>247.13</course>
  <speed>0.022360679774997897</speed>
  <fix>3d</fix>
</trkpt>
<trkpt lat="40.0713749" lon="-105.229789">
  <ele>1583.0</ele>
  <time>2026-08-28T17:51:42Z</time>
  <course>0.0</course>
  <speed>0.0</speed>
  <fix>3d</fix>
</trkpt>
<trkpt lat="40.071375" lon="-105.2297889">
  <ele>1582.97</ele>
  <time>2026-08-28T17:51:42Z</time>
  <course>247.13</course>
  <speed>0.022360679774997897</speed>
  <fix>3d</fix>
</trkpt>
<trkpt lat="40.0713749" lon="-105.229789">
  <ele>1583.0</ele>
  <time>2026-08-28T17:51:42Z</time>
  <course>0.0</course>
  <speed>0.0</speed>
  <fix>3d</fix>
</trkpt>
<trkpt lat="40.071375" lon="-105.2297889">
  <ele>1582.96</ele>
  <time>2026-08-28T17:51:42Z</time>
  <course>247.13</course>
  <speed>0.022360679774997897</speed>
  <fix>3d</fix>
</trkpt>
<trkpt lat="40.0713749" lon="-105.229789">
  <ele>1583.0</ele>
  <time>2026-08-28T17:51:42Z</time>
  <course>0.0</course>
  <speed>0.0</speed>
  <fix>3d</fix>
</trkpt>
<trkpt lat="40.071375" lon="-105.2297889">
  <ele>1582.95</ele>
  <time>2026-08-28T17:51:42Z</time>
  <course>247.13</course>
  <speed>0.022360679774997897</speed>
  <fix>3d</fix>
</trkpt>
<trkpt lat="40.0713749" lon="-105.229789">
  <ele>1583.0</ele>
  <time>2026-08-28T17:51:42Z</time>
  <course>0.0</course>
  <speed>0.0</speed>
  <fix>3d</fix>
</trkpt>
<trkpt lat="40.071375" lon="-105.2297889">
  <ele>1582.95</ele>
  <time>2026-08-28T17:51:42Z</time>
  <course>247.13</course>
  <speed>0.022360679774997897</speed>
  <fix>3d</fix>
</trkpt>
<trkpt lat="40.0713749" lon="-105.229789">
  <ele>1583.0</ele>
  <time>2026-08-28T17:51:42Z</time>
  <course>0.0</course>
  <speed>0.0</speed>
  <fix>3d</fix>
</trkpt>
<trkpt lat="40.071375" lon="-105.2297889">
  <ele>1582.95</ele>
  <time>2026-08-28T17:51:42Z</time>
  <course>247.13</course>
  <speed>0.022360679774997897</speed>
  <fix>3d</fix>
</trkpt>
<trkpt lat="40.0713749" lon="-105.229789">
  <ele>1583.0</ele>
  <time>2026-08-28T17:51:42Z</time>
  <course>0.0</course>
  <speed>0.0</speed>
  <fix>3d</fix>
</trkpt>
<trkpt lat="40.071375" lon="-105.2297889">
  <ele>1582.95</ele>
  <time>2026-08-28T17:51:42Z</time>
  <course>247.13</course>
  <speed>0.022360679774997897</speed>
  <fix>3d</fix>
</trkpt>
<trkpt lat="40.0713749" lon="-105.229789">
  <ele>1583.0</ele>
  <time>2026-08-28T17:51:42Z</time>
  <course>0.0</course>
  <speed>0.0</speed>
  <fix>3d</fix>
</trkpt>
<trkpt lat="40.071375" lon="-105.2297889">
  <ele>1582.95</ele>
  <time>2026-08-28T17:51:42Z</time>
  <course>247.13</course>
  <speed>0.022360679774997897</speed>
  <fix>3d</fix>
</trkpt>
<trkpt lat="40.0713749" lon="-105.229789">
  <ele>1583.0</ele>
  <time>2026-08-28T17:51:42Z</time>
  <course>0.0</course>
  <speed>0.0</speed>
  <fix>3d</fix>
</trkpt>
<trkpt lat="40.071375" lon="-105.2297889">
  <ele>1582.95</ele>
  <time>2026-08-28T17:51:42Z</time>
  <course>247.13</course>
  <speed>0.022360679774997897</speed>
  <fix>3d</fix>
</trkpt>
<trkpt lat="40.0713749" lon="-105.229789">
  <ele>1583.0</ele>
  <time>2026-08-28T17:51:42Z</time>
  <course>0.0</course>
  <speed>0.0</speed>
  <fix>3d</fix>
</trkpt>
<trkpt lat="40.071375" lon="-105.2297889">
  <ele>1582.96</ele>
  <time>2026-08-28T17:51:42Z</time>
  <course>247.13</course>
  <speed>0.022360679774997897</speed>
  <fix>3d</fix>
</trkpt>
<trkpt lat="40.0713749" lon="-105.229789">
  <ele>1583.0</ele>
  <time>2026-08-28T17:51:42Z</time>
  <course>0.0</course>
  <speed>0.0</speed>
  <fix>3d</fix>
</trkpt>
<trkpt lat="40.071375" lon="-105.2297889">
  <ele>1582.96</ele>
  <time>2026-08-28T17:51:42Z</time>
  <course>247.13</course>
  <speed>0.022360679774997897</speed>
  <fix>3d</fix>
</trkpt>
<trkpt lat="40.0713749" lon="-105.229789">
  <ele>1583.0</ele>
  <time>2026-08-28T17:51:42Z</time>
  <course>0.0</course>
  <speed>0.0</speed>
  <fix>3d</fix>
</trkpt>
<trkpt lat="40.071375" lon="-105.2297889">
  <ele>1582.97</ele>
  <time>2026-08-28T17:51:42Z</time>
  <course>247.13</course>
  <speed>0.022360679774997897</speed>
  <fix>3d</fix>
</trkpt>
<trkpt lat="40.0713749" lon="-105.229789">
  <ele>1583.0</ele>
  <time>2026-08-28T17:51:42Z</time>
  <course>0.0</course>
  <speed>0.0</speed>
  <fix>3d</fix>
</trkpt>
<trkpt lat="40.071375" lon="-105.2297889">
  <ele>1582.97</ele>
  <time>2026-08-28T17:51:42Z</time>
  <course>247.13</course>
  <speed>0.022360679774997897</speed>
  <fix>3d</fix>
</trkpt>
<trkpt lat="40.0713749" lon="-105.229789">
  <ele>1583.0</ele>
  <time>2026-08-28T17:51:42Z</time>
  <course>0.0</course>
  <speed>0.0</speed>
  <fix>3d</fix>
</trkpt>
<trkpt lat="40.071375" lon="-105.2297889">
  <ele>1582.98</ele>
  <time>2026-08-28T17:51:42Z</time>
  <course>247.13</course>
  <speed>0.022360679774997897</speed>
  <fix>3d</fix>
</trkpt>
<trkpt lat="40.0713749" lon="-105.229789">
  <ele>1583.0</ele>
  <time>2026-08-28T17:51:42Z</time>
  <course>0.0</course>
  <speed>0.0</speed>
  <fix>3d</fix>
</trkpt>
<trkpt lat="40.071375" lon="-105.2297889">
  <ele>1582.99</ele>
  <time>2026-08-28T17:51:42Z</time>
  <course>247.13</course>
  <speed>0.022360679774997897</speed>
  <fix>3d</fix>
</trkpt>
<trkpt lat="40.0713749" lon="-105.229789">
  <ele>1583.0</ele>
  <time>2026-08-28T17:51:42Z</time>
  <course>0.0</course>
  <speed>0.0</speed>
  <fix>3d</fix>
</trkpt>
<trkpt lat="40.071375" lon="-105.2297889">
  <ele>1582.99</ele>
  <time>2026-08-28T17:51:42Z</time>
  <course>247.13</course>
  <speed>0.022360679774997897</speed>
  <fix>3d</fix>
</trkpt>
<trkpt lat="40.0713749" lon="-105.229789">
  <ele>1583.0</ele>
  <time>2026-08-28T17:51:42Z</time>
  <course>0.0</course>
  <speed>0.0</speed>
  <fix>3d</fix>
</trkpt>
<trkpt lat="40.071375" lon="-105.2297889">
  <ele>1583.0</ele>
  <time>2026-08-28T17:51:42Z</time>
  <course>247.13</course>
  <speed>0.022360679774997897</speed>
  <fix>3d</fix>
</trkpt>
<trkpt lat="40.0713749" lon="-105.229789">
  <ele>1583.0</ele>
  <time>2026-08-28T17:51:42Z</time>
  <course>0.0</course>
  <speed>0.0</speed>
  <fix>3d</fix>
</trkpt>
<trkpt lat="40.071375" lon="-105.2297889">
  <ele>1583.0</ele>
  <time>2026-08-28T17:51:42Z</time>
  <course>247.13</course>
  <speed>0.022360679774997897</speed>
  <fix>3d</fix>
</trkpt>
<trkpt lat="40.0713749" lon="-105.229789">
  <ele>1583.0</ele>
  <time>2026-08-28T17:51:42Z</time>
  <course>0.0</course>
  <speed>0.0</speed>
  <fix>3d</fix>
</trkpt>
<trkpt lat="40.071375" lon="-105.2297889">
  <ele>1583.01</ele>
  <time>2026-08-28T17:51:42Z</time>
  <course>247.13</course>
  <speed>0.022360679774997897</speed>
  <fix>3d</fix>
</trkpt>
<trkpt lat="40.0713749" lon="-105.229789">
  <ele>1583.0</ele>
  <time>2026-08-28T17:51:42Z</time>
  <course>0.0</course>
  <speed>0.0</speed>
  <fix>3d</fix>
</trkpt>
<trkpt lat="40.071375" lon="-105.2297889">
  <ele>1583.01</ele>
  <time>2026-08-28T17:51:42Z</time>
  <course>247.13</course>
  <speed>0.022360679774997897</speed>
  <fix>3d</fix>
</trkpt>
<trkpt lat="40.0713749" lon="-105.229789">
  <ele>1583.0</ele>
  <time>2026-08-28T17:51:42Z</time>
  <course>0.0</course>
  <speed>0.0</speed>
  <fix>3d</fix>
</trkpt>
<trkpt lat="40.071375" lon="-105.2297889">
  <ele>1583.01</ele>
  <time>2026-08-28T17:51:42Z</time>
  <course>247.13</course>
  <speed>0.022360679774997897</speed>
  <fix>3d</fix>
</trkpt>
<trkpt lat="40.0713749" lon="-105.229789">
  <ele>1583.0</ele>
  <time>2026-08-28T17:51:42Z</time>
  <course>0.0</course>
  <speed>0.0</speed>
  <fix>3d</fix>
</trkpt>
<trkpt lat="40.071375" lon="-105.2297889">
  <ele>1583.01</ele>
  <time>2026-08-28T17:51:42Z</time>
  <course>247.12</course>
  <speed>0.022360679774997897</speed>
  <fix>3d</fix>
</trkpt>
<trkpt lat="40.0713749" lon="-105.229789">
  <ele>1583.0</ele>
  <time>2026-08-28T17:51:42Z</time>
  <course>0.0</course>
  <speed>0.0</speed>
  <fix>3d</fix>
</trkpt>
<trkpt lat="40.071375" lon="-105.2297889">
  <ele>1583.0</ele>
  <time>2026-08-28T17:51:42Z</time>
  <course>247.12</course>
  <speed>0.022360679774997897</speed>
  <fix>3d</fix>
</trkpt>
<trkpt lat="40.0713749" lon="-105.229789">
  <ele>1583.0</ele>
  <time>2026-08-28T17:51:42Z</time>
  <course>0.0</course>
  <speed>0.0</speed>
  <fix>3d</fix>
</trkpt>
<trkpt lat="40.071375" lon="-105.2297889">
  <ele>1583.0</ele>
  <time>2026-08-28T17:51:42Z</time>
  <course>247.12</course>
  <speed>0.022360679774997897</speed>
  <fix>3d</fix>
</trkpt>
<trkpt lat="40.0713749" lon="-105.229789">
  <ele>1583.0</ele>
  <time>2026-08-28T17:51:42Z</time>
  <course>0.0</course>
  <speed>0.0</speed>
  <fix>3d</fix>
</trkpt>
<trkpt lat="40.071375" lon="-105.2297889">
  <ele>1583.0</ele>
  <time>2026-08-28T17:51:42Z</time>
  <course>247.12</course>
  <speed>0.022360679774997897</speed>
  <fix>3d</fix>
</trkpt>
<trkpt lat="40.0713749" lon="-105.229789">
  <ele>1583.0</ele>
  <time>2026-08-28T17:51:42Z</time>
  <course>0.0</course>
  <speed>0.0</speed>
  <fix>3d</fix>
</trkpt>
<trkpt lat="40.071375" lon="-105.2297889">
  <ele>1582.99</ele>
  <time>2026-08-28T17:51:42Z</time>
  <course>247.12</course>
  <speed>0.022360679774997897</speed>
  <fix>3d</fix>
</trkpt>
<trkpt lat="40.0713749" lon="-105.229789">
  <ele>1583.0</ele>
  <time>2026-08-28T17:51:42Z</time>
  <course>0.0</course>
  <speed>0.0</speed>
  <fix>3d</fix>
</trkpt>
<trkpt lat="40.071375" lon="-105.2297889">
  <ele>1582.99</ele>
  <time>2026-08-28T17:51:42Z</time>
  <course>247.12</course>
  <speed>0.022360679774997897</speed>
  <fix>3d</fix>
</trkpt>
<trkpt lat="40.0713749" lon="-105.229789">
  <ele>1583.0</ele>
  <time>2026-08-28T17:51:42Z</time>
  <course>0.0</course>
  <speed>0.0</speed>
  <fix>3d</fix>
</trkpt>
<trkpt lat="40.071375" lon="-105.2297889">
  <ele>1582.98</ele>
  <time>2026-08-28T17:51:42Z</time>
  <course>247.12</course>
  <speed>0.022360679774997897</speed>
  <fix>3d</fix>
</trkpt>
<trkpt lat="40.0713749" lon="-105.229789">
  <ele>1583.0</ele>
  <time>2026-08-28T17:51:42Z</time>
  <course>0.0</course>
  <speed>0.0</speed>
  <fix>3d</fix>
</trkpt>
<trkpt lat="40.071375" lon="-105.2297889">
  <ele>1582.98</ele>
  <time>2026-08-28T17:51:42Z</time>
  <course>247.12</course>
  <speed>0.022360679774997897</speed>
  <fix>3d</fix>
</trkpt>
<trkpt lat="40.0713749" lon="-105.229789">
  <ele>1583.0</ele>
  <time>2026-08-28T17:51:42Z</time>
  <course>0.0</course>
  <speed>0.0</speed>
  <fix>3d</fix>
</trkpt>
<trkpt lat="40.071375" lon="-105.2297889">
  <ele>1582.98</ele>
  <time>2026-08-28T17:51:42Z</time>
  <course>247.12</course>
  <speed>0.022360679774997897</speed>
  <fix>3d</fix>
</trkpt>
<trkpt lat="40.0713749" lon="-105.229789">
  <ele>1583.0</ele>
  <time>2026-08-28T17:51:42Z</time>
  <course>0.0</course>
  <speed>0.0</speed>
  <fix>3d</fix>
</trkpt>
<trkpt lat="40.071375" lon="-105.2297889">
  <ele>1582.97</ele>
  <time>2026-08-28T17:51:42Z</time>
  <course>247.12</course>
  <speed>0.022360679774997897</speed>
  <fix>3d</fix>
</trkpt>
<trkpt lat="40.0713749" lon="-105.229789">
  <ele>1583.0</ele>
  <time>2026-08-28T17:51:42Z</time>
  <course>0.0</course>
  <speed>0.0</speed>
  <fix>3d</fix>
</trkpt>
<trkpt lat="40.071375" lon="-105.2297889">
  <ele>1582.97</ele>
  <time>2026-08-28T17:51:42Z</time>
  <course>247.12</course>
  <speed>0.022360679774997897</speed>
  <fix>3d</fix>
</trkpt>
<trkpt lat="40.0713749" lon="-105.229789">
  <ele>1583.0</ele>
  <time>2026-08-28T17:51:42Z</time>
  <course>0.0</course>
  <speed>0.0</speed>
  <fix>3d</fix>
</trkpt>
<trkpt lat="40.071375" lon="-105.2297889">
  <ele>1582.96</ele>
  <time>2026-08-28T17:51:42Z</time>
  <course>247.12</course>
  <speed>0.022360679774997897</speed>
  <fix>3d</fix>
</trkpt>
<trkpt lat="40.0713749" lon="-105.229789">
  <ele>1583.0</ele>
  <time>2026-08-28T17:51:42Z</time>
  <course>0.0</course>
  <speed>0.0</speed>
  <fix>3d</fix>
</trkpt>
<trkpt lat="40.071375" lon="-105.2297889">
  <ele>1582.95</ele>
  <time>2026-08-28T17:51:42Z</time>
  <course>247.12</course>
  <speed>0.022360679774997897</speed>
  <fix>3d</fix>
</trkpt>
<trkpt lat="40.0713749" lon="-105.229789">
  <ele>1583.0</ele>
  <time>2026-08-28T17:51:42Z</time>
  <course>0.0</course>
  <speed>0.0</speed>
  <fix>3d</fix>
</trkpt>
<trkpt lat="40.071375" lon="-105.2297889">
  <ele>1582.94</ele>
  <time>2026-08-28T17:51:42Z</time>
  <course>247.12</course>
  <speed>0.022360679774997897</speed>
  <fix>3d</fix>
</trkpt>
<trkpt lat="40.0713749" lon="-105.229789">
  <ele>1583.0</ele>
  <time>2026-08-28T17:51:42Z</time>
  <course>0.0</course>
  <speed>0.0</speed>
  <fix>3d</fix>
</trkpt>
<trkpt lat="40.071375" lon="-105.2297889">
  <ele>1582.94</ele>
  <time>2026-08-28T17:51:42Z</time>
  <course>247.12</course>
  <speed>0.022360679774997897</speed>
  <fix>3d</fix>
</trkpt>
<trkpt lat="40.0713749" lon="-105.229789">
  <ele>1583.0</ele>
  <time>2026-08-28T17:51:42Z</time>
  <course>0.0</course>
  <speed>0.0</speed>
  <fix>3d</fix>
</trkpt>
<trkpt lat="40.071375" lon="-105.2297889">
  <ele>1582.93</ele>
  <time>2026-08-28T17:51:42Z</time>
  <course>247.12</course>
  <speed>0.022360679774997897</speed>
  <fix>3d</fix>
</trkpt>
<trkpt lat="40.0713749" lon="-105.229789">
  <ele>1583.0</ele>
  <time>2026-08-28T17:51:42Z</time>
  <course>0.0</course>
  <speed>0.0</speed>
  <fix>3d</fix>
</trkpt>
<trkpt lat="40.071375" lon="-105.2297889">
  <ele>1582.92</ele>
  <time>2026-08-28T17:51:42Z</time>
  <course>247.12</course>
  <speed>0.022360679774997897</speed>
  <fix>3d</fix>
</trkpt>
<trkpt lat="40.0713749" lon="-105.229789">
  <ele>1583.0</ele>
  <time>2026-08-28T17:51:42Z</time>
  <course>0.0</course>
  <speed>0.0</speed>
  <fix>3d</fix>
</trkpt>
<trkpt lat="40.071375" lon="-105.2297889">
  <ele>1582.91</ele>
  <time>2026-08-28T17:51:42Z</time>
  <course>247.12</course>
  <speed>0.022360679774997897</speed>
  <fix>3d</fix>
</trkpt>
<trkpt lat="40.0713749" lon="-105.229789">
  <ele>1583.0</ele>
  <time>2026-08-28T17:51:42Z</time>
  <course>0.0</course>
  <speed>0.0</speed>
  <fix>3d</fix>
</trkpt>
<trkpt lat="40.071375" lon="-105.2297889">
  <ele>1582.9</ele>
  <time>2026-08-28T17:51:42Z</time>
  <course>247.12</course>
  <speed>0.022360679774997897</speed>
  <fix>3d</fix>
</trkpt>
<trkpt lat="40.0713749" lon="-105.229789">
  <ele>1583.0</ele>
  <time>2026-08-28T17:51:42Z</time>
  <course>0.0</course>
  <speed>0.0</speed>
  <fix>3d</fix>
</trkpt>
<trkpt lat="40.071375" lon="-105.2297889">
  <ele>1582.9</ele>
  <time>2026-08-28T17:51:42Z</time>
  <course>247.12</course>
  <speed>0.022360679774997897</speed>
  <fix>3d</fix>
</trkpt>
<trkpt lat="40.0713749" lon="-105.229789">
  <ele>1583.0</ele>
  <time>2026-08-28T17:51:42Z</time>
  <course>0.0</course>
  <speed>0.0</speed>
  <fix>3d</fix>
</trkpt>
<trkpt lat="40.071375" lon="-105.2297889">
  <ele>1582.91</ele>
  <time>2026-08-28T17:51:42Z</time>
  <course>247.12</course>
  <speed>0.022360679774997897</speed>
  <fix>3d</fix>
</trkpt>
<trkpt lat="40.0713749" lon="-105.229789">
  <ele>1583.0</ele>
  <time>2026-08-28T17:51:42Z</time>
  <course>0.0</course>
  <speed>0.0</speed>
  <fix>3d</fix>
</trkpt>
<trkpt lat="40.071375" lon="-105.2297889">
  <ele>1582.92</ele>
  <time>2026-08-28T17:51:42Z</time>
  <course>247.12</course>
  <speed>0.022360679774997897</speed>
  <fix>3d</fix>
</trkpt>
<trkpt lat="40.0713749" lon="-105.229789">
  <ele>1583.0</ele>
  <time>2026-08-28T17:51:42Z</time>
  <course>0.0</course>
  <speed>0.0</speed>
  <fix>3d</fix>
</trkpt>
<trkpt lat="40.071375" lon="-105.2297889">
  <ele>1582.93</ele>
  <time>2026-08-28T17:51:42Z</time>
  <course>247.12</course>
  <speed>0.022360679774997897</speed>
  <fix>3d</fix>
</trkpt>
<trkpt lat="40.0713749" lon="-105.229789">
  <ele>1583.0</ele>
  <time>2026-08-28T17:51:42Z</time>
  <course>0.0</course>
  <speed>0.0</speed>
  <fix>3d</fix>
</trkpt>
<trkpt lat="40.071375" lon="-105.2297889">
  <ele>1582.94</ele>
  <time>2026-08-28T17:51:42Z</time>
  <course>247.12</course>
  <speed>0.022360679774997897</speed>
  <fix>3d</fix>
</trkpt>
<trkpt lat="40.0713749" lon="-105.229789">
  <ele>1583.0</ele>
  <time>2026-08-28T17:51:42Z</time>
  <course>0.0</course>
  <speed>0.0</speed>
  <fix>3d</fix>
</trkpt>
<trkpt lat="40.071375" lon="-105.2297889">
  <ele>1582.95</ele>
  <time>2026-08-28T17:51:42Z</time>
  <course>247.12</course>
  <speed>0.022360679774997897</speed>
  <fix>3d</fix>
</trkpt>
<trkpt lat="40.0713749" lon="-105.229789">
  <ele>1583.0</ele>
  <time>2026-08-28T17:51:42Z</time>
  <course>0.0</course>
  <speed>0.0</speed>
  <fix>3d</fix>
</trkpt>
<trkpt lat="40.071375" lon="-105.2297889">
  <ele>1582.96</ele>
  <time>2026-08-28T17:51:42Z</time>
  <course>247.12</course>
  <speed>0.022360679774997897</speed>
  <fix>3d</fix>
</trkpt>
<trkpt lat="40.0713749" lon="-105.229789">
  <ele>1583.0</ele>
  <time>2026-08-28T17:51:42Z</time>
  <course>0.0</course>
  <speed>0.0</speed>
  <fix>3d</fix>
</trkpt>
<trkpt lat="40.071375" lon="-105.2297889">
  <ele>1582.97</ele>
  <time>2026-08-28T17:51:42Z</time>
  <course>247.12</course>
  <speed>0.022360679774997897</speed>
  <fix>3d</fix>
</trkpt>
<trkpt lat="40.0713749" lon="-105.229789">
  <ele>1583.0</ele>
  <time>2026-08-28T17:51:42Z</time>
  <course>0.0</course>
  <speed>0.0</speed>
  <fix>3d</fix>
</trkpt>
<trkpt lat="40.071375" lon="-105.2297889">
  <ele>1582.98</ele>
  <time>2026-08-28T17:51:42Z</time>
  <course>247.12</course>
  <speed>0.022360679774997897</speed>
  <fix>3d</fix>
</trkpt>
<trkpt lat="40.0713749" lon="-105.229789">
  <ele>1583.0</ele>
  <time>2026-08-28T17:51:42Z</time>
  <course>0.0</course>
  <speed>0.0</speed>
  <fix>3d</fix>
</trkpt>
<trkpt lat="40.071375" lon="-105.2297889">
  <ele>1582.99</ele>
  <time>2026-08-28T17:51:42Z</time>
  <course>247.12</course>
  <speed>0.022360679774997897</speed>
  <fix>3d</fix>
</trkpt>
<trkpt lat="40.0713749" lon="-105.229789">
  <ele>1583.0</ele>
  <time>2026-08-28T17:51:42Z</time>
  <course>0.0</course>
  <speed>0.0</speed>
  <fix>3d</fix>
</trkpt>
<trkpt lat="40.071375" lon="-105.2297889">
  <ele>1582.99</ele>
  <time>2026-08-28T17:51:42Z</time>
  <course>247.11</course>
  <speed>0.022360679774997897</speed>
  <fix>3d</fix>
</trkpt>
<trkpt lat="40.0713749" lon="-105.229789">
  <ele>1583.0</ele>
  <time>2026-08-28T17:51:42Z</time>
  <course>0.0</course>
  <speed>0.0</speed>
  <fix>3d</fix>
</trkpt>
<trkpt lat="40.071375" lon="-105.2297889">
  <ele>1582.99</ele>
  <time>2026-08-28T17:51:42Z</time>
  <course>247.11</course>
  <speed>0.022360679774997897</speed>
  <fix>3d</fix>
</trkpt>
<trkpt lat="40.0713749" lon="-105.229789">
  <ele>1583.0</ele>
  <time>2026-08-28T17:51:42Z</time>
  <course>0.0</course>
  <speed>0.0</speed>
  <fix>3d</fix>
</trkpt>
<trkpt lat="40.071375" lon="-105.2297889">
  <ele>1583.0</ele>
  <time>2026-08-28T17:51:42Z</time>
  <course>247.11</course>
  <speed>0.022360679774997897</speed>
  <fix>3d</fix>
</trkpt>
<trkpt lat="40.0713749" lon="-105.229789">
  <ele>1583.0</ele>
  <time>2026-08-28T17:51:42Z</time>
  <course>0.0</course>
  <speed>0.0</speed>
  <fix>3d</fix>
</trkpt>
<trkpt lat="40.071375" lon="-105.2297889">
  <ele>1583.0</ele>
  <time>2026-08-28T17:51:42Z</time>
  <course>247.11</course>
  <speed>0.022360679774997897</speed>
  <fix>3d</fix>
</trkpt>
<trkpt lat="40.0713749" lon="-105.229789">
  <ele>1583.0</ele>
  <time>2026-08-28T17:51:42Z</time>
  <course>0.0</course>
  <speed>0.0</speed>
  <fix>3d</fix>
</trkpt>
<trkpt lat="40.071375" lon="-105.2297889">
  <ele>1583.01</ele>
  <time>2026-08-28T17:51:42Z</time>
  <course>247.11</course>
  <speed>0.022360679774997897</speed>
  <fix>3d</fix>
</trkpt>
<trkpt lat="40.0713749" lon="-105.229789">
  <ele>1583.0</ele>
  <time>2026-08-28T17:51:42Z</time>
  <course>0.0</course>
  <speed>0.0</speed>
  <fix>3d</fix>
</trkpt>
<trkpt lat="40.071375" lon="-105.2297889">
  <ele>1583.01</ele>
  <time>2026-08-28T17:51:42Z</time>
  <course>247.11</course>
  <speed>0.022360679774997897</speed>
  <fix>3d</fix>
</trkpt>
<trkpt lat="40.0713749" lon="-105.229789">
  <ele>1583.0</ele>
  <time>2026-08-28T17:51:42Z</time>
  <course>0.0</course>
  <speed>0.0</speed>
  <fix>3d</fix>
</trkpt>
<trkpt lat="40.071375" lon="-105.2297889">
  <ele>1583.01</ele>
  <time>2026-08-28T17:51:42Z</time>
  <course>247.11</course>
  <speed>0.022360679774997897</speed>
  <fix>3d</fix>
</trkpt>
<trkpt lat="40.0713749" lon="-105.229789">
  <ele>1583.0</ele>
  <time>2026-08-28T17:51:42Z</time>
  <course>0.0</course>
  <speed>0.0</speed>
  <fix>3d</fix>
</trkpt>
<trkpt lat="40.071375" lon="-105.2297889">
  <ele>1583.01</ele>
  <time>2026-08-28T17:51:42Z</time>
  <course>247.11</course>
  <speed>0.022360679774997897</speed>
  <fix>3d</fix>
</trkpt>
<trkpt lat="40.0713749" lon="-105.229789">
  <ele>1583.0</ele>
  <time>2026-08-28T17:51:42Z</time>
  <course>0.0</course>
  <speed>0.0</speed>
  <fix>3d</fix>
</trkpt>
<trkpt lat="40.071375" lon="-105.2297889">
  <ele>1583.02</ele>
  <time>2026-08-28T17:51:42Z</time>
  <course>247.11</course>
  <speed>0.022360679774997897</speed>
  <fix>3d</fix>
</trkpt>
<trkpt lat="40.0713749" lon="-105.229789">
  <ele>1583.0</ele>
  <time>2026-08-28T17:51:42Z</time>
  <course>0.0</course>
  <speed>0.0</speed>
  <fix>3d</fix>
</trkpt>
<trkpt lat="40.071375" lon="-105.2297889">
  <ele>1583.02</ele>
  <time>2026-08-28T17:51:42Z</time>
  <course>247.11</course>
  <speed>0.022360679774997897</speed>
  <fix>3d</fix>
</trkpt>
<trkpt lat="40.0713749" lon="-105.229789">
  <ele>1583.0</ele>
  <time>2026-08-28T17:51:42Z</time>
  <course>0.0</course>
  <speed>0.0</speed>
  <fix>3d</fix>
</trkpt>
<trkpt lat="40.071375" lon="-105.2297889">
  <ele>1583.02</ele>
  <time>2026-08-28T17:51:42Z</time>
  <course>247.11</course>
  <speed>0.022360679774997897</speed>
  <fix>3d</fix>
</trkpt>
<trkpt lat="40.0713749" lon="-105.229789">
  <ele>1583.0</ele>
  <time>2026-08-28T17:51:42Z</time>
  <course>0.0</course>
  <speed>0.0</speed>
  <fix>3d</fix>
</trkpt>
<trkpt lat="40.071375" lon="-105.2297889">
  <ele>1583.02</ele>
  <time>2026-08-28T17:51:42Z</time>
  <course>247.11</course>
  <speed>0.022360679774997897</speed>
  <fix>3d</fix>
</trkpt>
<trkpt lat="40.0713749" lon="-105.229789">
  <ele>1583.0</ele>
  <time>2026-08-28T17:51:42Z</time>
  <course>0.0</course>
  <speed>0.0</speed>
  <fix>3d</fix>
</trkpt>
<trkpt lat="40.071375" lon="-105.2297889">
  <ele>1583.02</ele>
  <time>2026-08-28T17:51:42Z</time>
  <course>247.11</course>
  <speed>0.022360679774997897</speed>
  <fix>3d</fix>
</trkpt>
<trkpt lat="40.0713749" lon="-105.229789">
  <ele>1583.0</ele>
  <time>2026-08-28T17:51:42Z</time>
  <course>0.0</course>
  <speed>0.0</speed>
  <fix>3d</fix>
</trkpt>
<trkpt lat="40.071375" lon="-105.2297889">
  <ele>1583.01</ele>
  <time>2026-08-28T17:51:42Z</time>
  <course>247.11</course>
  <speed>0.022360679774997897</speed>
  <fix>3d</fix>
</trkpt>
<trkpt lat="40.0713749" lon="-105.229789">
  <ele>1583.0</ele>
  <time>2026-08-28T17:51:42Z</time>
  <course>0.0</course>
  <speed>0.0</speed>
  <fix>3d</fix>
</trkpt>
<trkpt lat="40.071375" lon="-105.2297889">
  <ele>1583.01</ele>
  <time>2026-08-28T17:51:42Z</time>
  <course>247.11</course>
  <speed>0.022360679774997897</speed>
  <fix>3d</fix>
</trkpt>
<trkpt lat="40.0713749" lon="-105.229789">
  <ele>1583.0</ele>
  <time>2026-08-28T17:51:42Z</time>
  <course>0.0</course>
  <speed>0.0</speed>
  <fix>3d</fix>
</trkpt>
<trkpt lat="40.071375" lon="-105.2297889">
  <ele>1583.0</ele>
  <time>2026-08-28T17:51:42Z</time>
  <course>247.11</course>
  <speed>0.022360679774997897</speed>
  <fix>3d</fix>
</trkpt>
<trkpt lat="40.0713749" lon="-105.229789">
  <ele>1583.0</ele>
  <time>2026-08-28T17:51:42Z</time>
  <course>0.0</course>
  <speed>0.0</speed>
  <fix>3d</fix>
</trkpt>
<trkpt lat="40.071375" lon="-105.2297889">
  <ele>1583.0</ele>
  <time>2026-08-28T17:51:42Z</time>
  <course>247.11</course>
  <speed>0.02</speed>
  <fix>3d</fix>
</trkpt>
<trkpt lat="40.0713749" lon="-105.229789">
  <ele>1583.0</ele>
  <time>2026-08-28T17:51:42Z</time>
  <course>0.0</course>
  <speed>0.0</speed>
  <fix>3d</fix>
</trkpt>
<trkpt lat="40.071375" lon="-105.2297889">
  <ele>1582.99</ele>
  <time>2026-08-28T17:51:42Z</time>
  <course>247.11</course>
  <speed>0.022360679774997897</speed>
  <fix>3d</fix>
</trkpt>
<trkpt lat="40.0713749" lon="-105.229789">
  <ele>1583.0</ele>
  <time>2026-08-28T17:51:42Z</time>
  <course>0.0</course>
  <speed>0.0</speed>
  <fix>3d</fix>
</trkpt>
<trkpt lat="40.071375" lon="-105.2297889">
  <ele>1582.99</ele>
  <time>2026-08-28T17:51:42Z</time>
  <course>247.11</course>
  <speed>0.02</speed>
  <fix>3d</fix>
</trkpt>
<trkpt lat="40.0713749" lon="-105.229789">
  <ele>1583.0</ele>
  <time>2026-08-28T17:51:42Z</time>
  <course>0.0</course>
  <speed>0.0</speed>
  <fix>3d</fix>
</trkpt>
<trkpt lat="40.071375" lon="-105.2297889">
  <ele>1582.99</ele>
  <time>2026-08-28T17:51:42Z</time>
  <course>247.11</course>
  <speed>0.02</speed>
  <fix>3d</fix>
</trkpt>
<trkpt lat="40.0713749" lon="-105.229789">
  <ele>1583.0</ele>
  <time>2026-08-28T17:51:42Z</time>
  <course>0.0</course>
  <speed>0.0</speed>
  <fix>3d</fix>
</trkpt>
<trkpt lat="40.071375" lon="-105.2297889">
  <ele>1582.98</ele>
  <time>2026-08-28T17:51:42Z</time>
  <course>247.11</course>
  <speed>0.02</speed>
  <fix>3d</fix>
</trkpt>
<trkpt lat="40.0713749" lon="-105.229789">
  <ele>1583.0</ele>
  <time>2026-08-28T17:51:42Z</time>
  <course>0.0</course>
  <speed>0.0</speed>
  <fix>3d</fix>
</trkpt>
<trkpt lat="40.071375" lon="-105.2297889">
  <ele>1582.98</ele>
  <time>2026-08-28T17:51:42Z</time>
  <course>247.11</course>
  <speed>0.022360679774997897</speed>
  <fix>3d</fix>
</trkpt>
<trkpt lat="40.0713749" lon="-105.229789">
  <ele>1583.0</ele>
  <time>2026-08-28T17:51:42Z</time>
  <course>0.0</course>
  <speed>0.0</speed>
  <fix>3d</fix>
</trkpt>
<trkpt lat="40.071375" lon="-105.2297889">
  <ele>1582.97</ele>
  <time>2026-08-28T17:51:42Z</time>
  <course>247.11</course>
  <speed>0.02</speed>
  <fix>3d</fix>
</trkpt>
<trkpt lat="40.0713749" lon="-105.229789">
  <ele>1583.0</ele>
  <time>2026-08-28T17:51:42Z</time>
  <course>0.0</course>
  <speed>0.0</speed>
  <fix>3d</fix>
</trkpt>
<trkpt lat="40.071375" lon="-105.2297889">
  <ele>1582.97</ele>
  <time>2026-08-28T17:51:42Z</time>
  <course>247.11</course>
  <speed>0.022360679774997897</speed>
  <fix>3d</fix>
</trkpt>
<trkpt lat="40.0713749" lon="-105.229789">
  <ele>1583.0</ele>
  <time>2026-08-28T17:51:42Z</time>
  <course>0.0</course>
  <speed>0.0</speed>
  <fix>3d</fix>
</trkpt>
<trkpt lat="40.071375" lon="-105.2297889">
  <ele>1582.96</ele>
  <time>2026-08-28T17:51:43Z</time>
  <course>247.11</course>
  <speed>0.022360679774997897</speed>
  <fix>3d</fix>
</trkpt>
<trkpt lat="40.0713749" lon="-105.229789">
  <ele>1583.0</ele>
  <time>2026-08-28T17:51:43Z</time>
  <course>0.0</course>
  <speed>0.0</speed>
  <fix>3d</fix>
</trkpt>
<trkpt lat="40.071375" lon="-105.2297889">
  <ele>1582.96</ele>
  <time>2026-08-28T17:51:43Z</time>
  <course>247.11</course>
  <speed>0.022360679774997897</speed>
  <fix>3d</fix>
</trkpt>
<trkpt lat="40.0713749" lon="-105.229789">
  <ele>1583.0</ele>
  <time>2026-08-28T17:51:43Z</time>
  <course>0.0</course>
  <speed>0.0</speed>
  <fix>3d</fix>
</trkpt>
<trkpt lat="40.071375" lon="-105.2297889">
  <ele>1582.95</ele>
  <time>2026-08-28T17:51:43Z</time>
  <course>247.11</course>
  <speed>0.022360679774997897</speed>
  <fix>3d</fix>
</trkpt>
<trkpt lat="40.0713749" lon="-105.229789">
  <ele>1583.0</ele>
  <time>2026-08-28T17:51:43Z</time>
  <course>0.0</course>
  <speed>0.0</speed>
  <fix>3d</fix>
</trkpt>
<trkpt lat="40.0713751" lon="-105.2297889">
  <ele>1582.95</ele>
  <time>2026-08-28T17:51:43Z</time>
  <course>247.11</course>
  <speed>0.022360679774997897</speed>
  <fix>3d</fix>
</trkpt>
<trkpt lat="40.0713749" lon="-105.229789">
  <ele>1583.0</ele>
  <time>2026-08-28T17:51:43Z</time>
  <course>0.0</course>
  <speed>0.0</speed>
  <fix>3d</fix>
</trkpt>
<trkpt lat="40.071375" lon="-105.2297889">
  <ele>1582.95</ele>
  <time>2026-08-28T17:51:43Z</time>
  <course>247.11</course>
  <speed>0.022360679774997897</speed>
  <fix>3d</fix>
</trkpt>
<trkpt lat="40.0713749" lon="-105.229789">
  <ele>1583.0</ele>
  <time>2026-08-28T17:51:43Z</time>
  <course>0.0</course>
  <speed>0.0</speed>
  <fix>3d</fix>
</trkpt>
<trkpt lat="40.0713751" lon="-105.2297889">
  <ele>1582.95</ele>
  <time>2026-08-28T17:51:43Z</time>
  <course>247.11</course>
  <speed>0.022360679774997897</speed>
  <fix>3d</fix>
</trkpt>
<trkpt lat="40.0713749" lon="-105.229789">
  <ele>1583.0</ele>
  <time>2026-08-28T17:51:43Z</time>
  <course>0.0</course>
  <speed>0.0</speed>
  <fix>3d</fix>
</trkpt>
<trkpt lat="40.071375" lon="-105.2297889">
  <ele>1582.95</ele>
  <time>2026-08-28T17:51:43Z</time>
  <course>247.11</course>
  <speed>0.02</speed>
  <fix>3d</fix>
</trkpt>
<trkpt lat="40.0713749" lon="-105.229789">
  <ele>1583.0</ele>
  <time>2026-08-28T17:51:43Z</time>
  <course>0.0</course>
  <speed>0.0</speed>
  <fix>3d</fix>
</trkpt>
<trkpt lat="40.071375" lon="-105.2297889">
  <ele>1582.95</ele>
  <time>2026-08-28T17:51:43Z</time>
  <course>247.1</course>
  <speed>0.022360679774997897</speed>
  <fix>3d</fix>
</trkpt>
<trkpt lat="40.0713749" lon="-105.229789">
  <ele>1583.0</ele>
  <time>2026-08-28T17:51:43Z</time>
  <course>0.0</course>
  <speed>0.0</speed>
  <fix>3d</fix>
</trkpt>
<trkpt lat="40.071375" lon="-105.2297889">
  <ele>1582.95</ele>
  <time>2026-08-28T17:51:43Z</time>
  <course>247.1</course>
  <speed>0.02</speed>
  <fix>3d</fix>
</trkpt>
<trkpt lat="40.0713749" lon="-105.229789">
  <ele>1583.0</ele>
  <time>2026-08-28T17:51:43Z</time>
  <course>0.0</course>
  <speed>0.0</speed>
  <fix>3d</fix>
</trkpt>
<trkpt lat="40.071375" lon="-105.2297889">
  <ele>1582.95</ele>
  <time>2026-08-28T17:51:43Z</time>
  <course>247.1</course>
  <speed>0.02</speed>
  <fix>3d</fix>
</trkpt>
<trkpt lat="40.0713749" lon="-105.229789">
  <ele>1583.0</ele>
  <time>2026-08-28T17:51:43Z</time>
  <course>0.0</course>
  <speed>0.0</speed>
  <fix>3d</fix>
</trkpt>
<trkpt lat="40.071375" lon="-105.2297889">
  <ele>1582.95</ele>
  <time>2026-08-28T17:51:43Z</time>
  <course>247.1</course>
  <speed>0.02</speed>
  <fix>3d</fix>
</trkpt>
<trkpt lat="40.0713749" lon="-105.229789">
  <ele>1583.0</ele>
  <time>2026-08-28T17:51:43Z</time>
  <course>0.0</course>
  <speed>0.0</speed>
  <fix>3d</fix>
</trkpt>
<trkpt lat="40.071375" lon="-105.2297889">
  <ele>1582.96</ele>
  <time>2026-08-28T17:51:43Z</time>
  <course>247.1</course>
  <speed>0.02</speed>
  <fix>3d</fix>
</trkpt>
<trkpt lat="40.0713749" lon="-105.229789">
  <ele>1583.0</ele>
  <time>2026-08-28T17:51:43Z</time>
  <course>0.0</course>
  <speed>0.0</speed>
  <fix>3d</fix>
</trkpt>
<trkpt lat="40.071375" lon="-105.2297889">
  <ele>1582.96</ele>
  <time>2026-08-28T17:51:43Z</time>
  <course>247.1</course>
  <speed>0.02</speed>
  <fix>3d</fix>
</trkpt>
<trkpt lat="40.0713749" lon="-105.229789">
  <ele>1583.0</ele>
  <time>2026-08-28T17:51:43Z</time>
  <course>0.0</course>
  <speed>0.0</speed>
  <fix>3d</fix>
</trkpt>
<trkpt lat="40.071375" lon="-105.2297889">
  <ele>1582.97</ele>
  <time>2026-08-28T17:51:43Z</time>
  <course>247.1</course>
  <speed>0.02</speed>
  <fix>3d</fix>
</trkpt>
<trkpt lat="40.0713749" lon="-105.229789">
  <ele>1583.0</ele>
  <time>2026-08-28T17:51:43Z</time>
  <course>0.0</course>
  <speed>0.0</speed>
  <fix>3d</fix>
</trkpt>
<trkpt lat="40.071375" lon="-105.2297889">
  <ele>1582.97</ele>
  <time>2026-08-28T17:51:43Z</time>
  <course>247.1</course>
  <speed>0.02</speed>
  <fix>3d</fix>
</trkpt>
<trkpt lat="40.0713749" lon="-105.229789">
  <ele>1583.0</ele>
  <time>2026-08-28T17:51:43Z</time>
  <course>0.0</course>
  <speed>0.0</speed>
  <fix>3d</fix>
</trkpt>
<trkpt lat="40.071375" lon="-105.2297889">
  <ele>1582.97</ele>
  <time>2026-08-28T17:51:43Z</time>
  <course>247.1</course>
  <speed>0.02</speed>
  <fix>3d</fix>
</trkpt>
<trkpt lat="40.0713749" lon="-105.229789">
  <ele>1583.0</ele>
  <time>2026-08-28T17:51:43Z</time>
  <course>0.0</course>
  <speed>0.0</speed>
  <fix>3d</fix>
</trkpt>
<trkpt lat="40.071375" lon="-105.2297889">
  <ele>1582.97</ele>
  <time>2026-08-28T17:51:43Z</time>
  <course>247.1</course>
  <speed>0.02</speed>
  <fix>3d</fix>
</trkpt>
<trkpt lat="40.0713749" lon="-105.229789">
  <ele>1583.0</ele>
  <time>2026-08-28T17:51:43Z</time>
  <course>0.0</course>
  <speed>0.0</speed>
  <fix>3d</fix>
</trkpt>
<trkpt lat="40.071375" lon="-105.2297889">
  <ele>1582.97</ele>
  <time>2026-08-28T17:51:43Z</time>
  <course>247.1</course>
  <speed>0.02</speed>
  <fix>3d</fix>
</trkpt>
<trkpt lat="40.0713749" lon="-105.229789">
  <ele>1583.0</ele>
  <time>2026-08-28T17:51:43Z</time>
  <course>0.0</course>
  <speed>0.0</speed>
  <fix>3d</fix>
</trkpt>
<trkpt lat="40.071375" lon="-105.2297889">
  <ele>1582.97</ele>
  <time>2026-08-28T17:51:43Z</time>
  <course>247.1</course>
  <speed>0.02</speed>
  <fix>3d</fix>
</trkpt>
<trkpt lat="40.0713749" lon="-105.229789">
  <ele>1583.0</ele>
  <time>2026-08-28T17:51:43Z</time>
  <course>0.0</course>
  <speed>0.0</speed>
  <fix>3d</fix>
</trkpt>
<trkpt lat="40.071375" lon="-105.2297889">
  <ele>1582.97</ele>
  <time>2026-08-28T17:51:43Z</time>
  <course>247.1</course>
  <speed>0.022360679774997897</speed>
  <fix>3d</fix>
</trkpt>
<trkpt lat="40.0713749" lon="-105.229789">
  <ele>1583.0</ele>
  <time>2026-08-28T17:51:43Z</time>
  <course>0.0</course>
  <speed>0.0</speed>
  <fix>3d</fix>
</trkpt>
<trkpt lat="40.071375" lon="-105.2297889">
  <ele>1582.96</ele>
  <time>2026-08-28T17:51:43Z</time>
  <course>247.1</course>
  <speed>0.02</speed>
  <fix>3d</fix>
</trkpt>
<trkpt lat="40.0713749" lon="-105.229789">
  <ele>1583.0</ele>
  <time>2026-08-28T17:51:43Z</time>
  <course>0.0</course>
  <speed>0.0</speed>
  <fix>3d</fix>
</trkpt>
<trkpt lat="40.0713751" lon="-105.2297889">
  <ele>1582.95</ele>
  <time>2026-08-28T17:51:43Z</time>
  <course>247.1</course>
  <speed>0.022360679774997897</speed>
  <fix>3d</fix>
</trkpt>
<trkpt lat="40.0713749" lon="-105.229789">
  <ele>1583.0</ele>
  <time>2026-08-28T17:51:43Z</time>
  <course>0.0</course>
  <speed>0.0</speed>
  <fix>3d</fix>
</trkpt>
<trkpt lat="40.071375" lon="-105.2297889">
  <ele>1582.95</ele>
  <time>2026-08-28T17:51:43Z</time>
  <course>247.1</course>
  <speed>0.022360679774997897</speed>
  <fix>3d</fix>
</trkpt>
<trkpt lat="40.0713749" lon="-105.229789">
  <ele>1583.0</ele>
  <time>2026-08-28T17:51:43Z</time>
  <course>0.0</course>
  <speed>0.0</speed>
  <fix>3d</fix>
</trkpt>
<trkpt lat="40.0713751" lon="-105.2297889">
  <ele>1582.94</ele>
  <time>2026-08-28T17:51:43Z</time>
  <course>247.1</course>
  <speed>0.022360679774997897</speed>
  <fix>3d</fix>
</trkpt>
<trkpt lat="40.0713749" lon="-105.229789">
  <ele>1583.0</ele>
  <time>2026-08-28T17:51:43Z</time>
  <course>0.0</course>
  <speed>0.0</speed>
  <fix>3d</fix>
</trkpt>
<trkpt lat="40.071375" lon="-105.2297889">
  <ele>1582.93</ele>
  <time>2026-08-28T17:51:43Z</time>
  <course>247.1</course>
  <speed>0.022360679774997897</speed>
  <fix>3d</fix>
</trkpt>
<trkpt lat="40.0713749" lon="-105.229789">
  <ele>1583.0</ele>
  <time>2026-08-28T17:51:43Z</time>
  <course>0.0</course>
  <speed>0.0</speed>
  <fix>3d</fix>
</trkpt>
<trkpt lat="40.0713751" lon="-105.2297889">
  <ele>1582.93</ele>
  <time>2026-08-28T17:51:43Z</time>
  <course>247.1</course>
  <speed>0.022360679774997897</speed>
  <fix>3d</fix>
</trkpt>
<trkpt lat="40.0713749" lon="-105.229789">
  <ele>1583.0</ele>
  <time>2026-08-28T17:51:43Z</time>
  <course>0.0</course>
  <speed>0.0</speed>
  <fix>3d</fix>
</trkpt>
<trkpt lat="40.071375" lon="-105.2297889">
  <ele>1582.94</ele>
  <time>2026-08-28T17:51:43Z</time>
  <course>247.1</course>
  <speed>0.022360679774997897</speed>
  <fix>3d</fix>
</trkpt>
<trkpt lat="40.0713749" lon="-105.229789">
  <ele>1583.0</ele>
  <time>2026-08-28T17:51:43Z</time>
  <course>0.0</course>
  <speed>0.0</speed>
  <fix>3d</fix>
</trkpt>
<trkpt lat="40.0713751" lon="-105.2297889">
  <ele>1582.94</ele>
  <time>2026-08-28T17:51:43Z</time>
  <course>247.1</course>
  <speed>0.022360679774997897</speed>
  <fix>3d</fix>
</trkpt>
<trkpt lat="40.0713749" lon="-105.229789">
  <ele>1583.0</ele>
  <time>2026-08-28T17:51:43Z</time>
  <course>0.0</course>
  <speed>0.0</speed>
  <fix>3d</fix>
</trkpt>
<trkpt lat="40.071375" lon="-105.2297889">
  <ele>1582.95</ele>
  <time>2026-08-28T17:51:43Z</time>
  <course>247.1</course>
  <speed>0.022360679774997897</speed>
  <fix>3d</fix>
</trkpt>
<trkpt lat="40.0713749" lon="-105.229789">
  <ele>1583.0</ele>
  <time>2026-08-28T17:51:43Z</time>
  <course>0.0</course>
  <speed>0.0</speed>
  <fix>3d</fix>
</trkpt>
<trkpt lat="40.071375" lon="-105.2297889">
  <ele>1582.95</ele>
  <time>2026-08-28T17:51:43Z</time>
  <course>247.1</course>
  <speed>0.022360679774997897</speed>
  <fix>3d</fix>
</trkpt>
<trkpt lat="40.0713749" lon="-105.229789">
  <ele>1583.0</ele>
  <time>2026-08-28T17:51:43Z</time>
  <course>0.0</course>
  <speed>0.0</speed>
  <fix>3d</fix>
</trkpt>
<trkpt lat="40.071375" lon="-105.2297889">
  <ele>1582.96</ele>
  <time>2026-08-28T17:51:43Z</time>
  <course>247.1</course>
  <speed>0.022360679774997897</speed>
  <fix>3d</fix>
</trkpt>
<trkpt lat="40.0713749" lon="-105.229789">
  <ele>1583.0</ele>
  <time>2026-08-28T17:51:43Z</time>
  <course>0.0</course>
  <speed>0.0</speed>
  <fix>3d</fix>
</trkpt>
<trkpt lat="40.071375" lon="-105.2297889">
  <ele>1582.97</ele>
  <time>2026-08-28T17:51:43Z</time>
  <course>247.1</course>
  <speed>0.022360679774997897</speed>
  <fix>3d</fix>
</trkpt>
<trkpt lat="40.0713749" lon="-105.229789">
  <ele>1583.0</ele>
  <time>2026-08-28T17:51:43Z</time>
  <course>0.0</course>
  <speed>0.0</speed>
  <fix>3d</fix>
</trkpt>
<trkpt lat="40.071375" lon="-105.2297889">
  <ele>1582.98</ele>
  <time>2026-08-28T17:51:43Z</time>
  <course>247.1</course>
  <speed>0.022360679774997897</speed>
  <fix>3d</fix>
</trkpt>
<trkpt lat="40.0713749" lon="-105.229789">
  <ele>1583.0</ele>
  <time>2026-08-28T17:51:43Z</time>
  <course>0.0</course>
  <speed>0.0</speed>
  <fix>3d</fix>
</trkpt>
<trkpt lat="40.071375" lon="-105.2297889">
  <ele>1582.98</ele>
  <time>2026-08-28T17:51:43Z</time>
  <course>247.1</course>
  <speed>0.022360679774997897</speed>
  <fix>3d</fix>
</trkpt>
<trkpt lat="40.0713749" lon="-105.229789">
  <ele>1583.0</ele>
  <time>2026-08-28T17:51:43Z</time>
  <course>0.0</course>
  <speed>0.0</speed>
  <fix>3d</fix>
</trkpt>
<trkpt lat="40.071375" lon="-105.2297889">
  <ele>1582.99</ele>
  <time>2026-08-28T17:51:43Z</time>
  <course>247.1</course>
  <speed>0.022360679774997897</speed>
  <fix>3d</fix>
</trkpt>
<trkpt lat="40.0713749" lon="-105.229789">
  <ele>1583.0</ele>
  <time>2026-08-28T17:51:43Z</time>
  <course>0.0</course>
  <speed>0.0</speed>
  <fix>3d</fix>
</trkpt>
<trkpt lat="40.071375" lon="-105.2297889">
  <ele>1582.99</ele>
  <time>2026-08-28T17:51:43Z</time>
  <course>247.1</course>
  <speed>0.022360679774997897</speed>
  <fix>3d</fix>
</trkpt>
<trkpt lat="40.0713749" lon="-105.229789">
  <ele>1583.0</ele>
  <time>2026-08-28T17:51:43Z</time>
  <course>0.0</course>
  <speed>0.0</speed>
  <fix>3d</fix>
</trkpt>
<trkpt lat="40.071375" lon="-105.2297889">
  <ele>1582.99</ele>
  <time>2026-08-28T17:51:43Z</time>
  <course>247.1</course>
  <speed>0.022360679774997897</speed>
  <fix>3d</fix>
</trkpt>
<trkpt lat="40.0713749" lon="-105.229789">
  <ele>1583.0</ele>
  <time>2026-08-28T17:51:43Z</time>
  <course>0.0</course>
  <speed>0.0</speed>
  <fix>3d</fix>
</trkpt>
<trkpt lat="40.071375" lon="-105.2297889">
  <ele>1583.0</ele>
  <time>2026-08-28T17:51:43Z</time>
  <course>247.1</course>
  <speed>0.022360679774997897</speed>
  <fix>3d</fix>
</trkpt>
<trkpt lat="40.0713749" lon="-105.229789">
  <ele>1583.0</ele>
  <time>2026-08-28T17:51:43Z</time>
  <course>0.0</course>
  <speed>0.0</speed>
  <fix>3d</fix>
</trkpt>
<trkpt lat="40.071375" lon="-105.2297889">
  <ele>1583.0</ele>
  <time>2026-08-28T17:51:43Z</time>
  <course>247.1</course>
  <speed>0.022360679774997897</speed>
  <fix>3d</fix>
</trkpt>
<trkpt lat="40.0713749" lon="-105.229789">
  <ele>1583.0</ele>
  <time>2026-08-28T17:51:43Z</time>
  <course>0.0</course>
  <speed>0.0</speed>
  <fix>3d</fix>
</trkpt>
<trkpt lat="40.071375" lon="-105.2297889">
  <ele>1583.0</ele>
  <time>2026-08-28T17:51:43Z</time>
  <course>247.1</course>
  <speed>0.022360679774997897</speed>
  <fix>3d</fix>
</trkpt>
<trkpt lat="40.0713749" lon="-105.229789">
  <ele>1583.0</ele>
  <time>2026-08-28T17:51:43Z</time>
  <course>0.0</course>
  <speed>0.0</speed>
  <fix>3d</fix>
</trkpt>
<trkpt lat="40.071375" lon="-105.2297889">
  <ele>1583.0</ele>
  <time>2026-08-28T17:51:43Z</time>
  <course>247.1</course>
  <speed>0.022360679774997897</speed>
  <fix>3d</fix>
</trkpt>
<trkpt lat="40.0713749" lon="-105.229789">
  <ele>1583.0</ele>
  <time>2026-08-28T17:51:43Z</time>
  <course>0.0</course>
  <speed>0.0</speed>
  <fix>3d</fix>
</trkpt>
<trkpt lat="40.071375" lon="-105.2297889">
  <ele>1583.0</ele>
  <time>2026-08-28T17:51:43Z</time>
  <course>247.1</course>
  <speed>0.022360679774997897</speed>
  <fix>3d</fix>
</trkpt>
<trkpt lat="40.0713749" lon="-105.229789">
  <ele>1583.0</ele>
  <time>2026-08-28T17:51:43Z</time>
  <course>0.0</course>
  <speed>0.0</speed>
  <fix>3d</fix>
</trkpt>
<trkpt lat="40.071375" lon="-105.2297889">
  <ele>1583.0</ele>
  <time>2026-08-28T17:51:43Z</time>
  <course>247.1</course>
  <speed>0.022360679774997897</speed>
  <fix>3d</fix>
</trkpt>
<trkpt lat="40.0713749" lon="-105.229789">
  <ele>1583.0</ele>
  <time>2026-08-28T17:51:43Z</time>
  <course>0.0</course>
  <speed>0.0</speed>
  <fix>3d</fix>
</trkpt>
<trkpt lat="40.0713751" lon="-105.2297889">
  <ele>1583.01</ele>
  <time>2026-08-28T17:51:43Z</time>
  <course>247.1</course>
  <speed>0.022360679774997897</speed>
  <fix>3d</fix>
</trkpt>
<trkpt lat="40.0713749" lon="-105.229789">
  <ele>1583.0</ele>
  <time>2026-08-28T17:51:43Z</time>
  <course>0.0</course>
  <speed>0.0</speed>
  <fix>3d</fix>
</trkpt>
<trkpt lat="40.071375" lon="-105.2297889">
  <ele>1583.01</ele>
  <time>2026-08-28T17:51:43Z</time>
  <course>247.1</course>
  <speed>0.022360679774997897</speed>
  <fix>3d</fix>
</trkpt>
<trkpt lat="40.0713749" lon="-105.229789">
  <ele>1583.0</ele>
  <time>2026-08-28T17:51:43Z</time>
  <course>0.0</course>
  <speed>0.0</speed>
  <fix>3d</fix>
</trkpt>
<trkpt lat="40.0713751" lon="-105.2297889">
  <ele>1583.01</ele>
  <time>2026-08-28T17:51:43Z</time>
  <course>247.1</course>
  <speed>0.022360679774997897</speed>
  <fix>3d</fix>
</trkpt>
<trkpt lat="40.0713749" lon="-105.229789">
  <ele>1583.0</ele>
  <time>2026-08-28T17:51:43Z</time>
  <course>0.0</course>
  <speed>0.0</speed>
  <fix>3d</fix>
</trkpt>
<trkpt lat="40.071375" lon="-105.2297889">
  <ele>1583.01</ele>
  <time>2026-08-28T17:51:43Z</time>
  <course>247.1</course>
  <speed>0.022360679774997897</speed>
  <fix>3d</fix>
</trkpt>
<trkpt lat="40.0713749" lon="-105.229789">
  <ele>1583.0</ele>
  <time>2026-08-28T17:51:43Z</time>
  <course>0.0</course>
  <speed>0.0</speed>
  <fix>3d</fix>
</trkpt>
<trkpt lat="40.0713751" lon="-105.2297889">
  <ele>1583.01</ele>
  <time>2026-08-28T17:51:43Z</time>
  <course>247.1</course>
  <speed>0.022360679774997897</speed>
  <fix>3d</fix>
</trkpt>
<trkpt lat="40.0713749" lon="-105.229789">
  <ele>1583.0</ele>
  <time>2026-08-28T17:51:43Z</time>
  <course>0.0</course>
  <speed>0.0</speed>
  <fix>3d</fix>
</trkpt>
<trkpt lat="40.071375" lon="-105.2297889">
  <ele>1583.01</ele>
  <time>2026-08-28T17:51:43Z</time>
  <course>247.1</course>
  <speed>0.022360679774997897</speed>
  <fix>3d</fix>
</trkpt>
<trkpt lat="40.0713749" lon="-105.229789">
  <ele>1583.0</ele>
  <time>2026-08-28T17:51:43Z</time>
  <course>0.0</course>
  <speed>0.0</speed>
  <fix>3d</fix>
</trkpt>
<trkpt lat="40.071375" lon="-105.2297889">
  <ele>1583.01</ele>
  <time>2026-08-28T17:51:43Z</time>
  <course>247.1</course>
  <speed>0.022360679774997897</speed>
  <fix>3d</fix>
</trkpt>
<trkpt lat="40.0713749" lon="-105.229789">
  <ele>1583.0</ele>
  <time>2026-08-28T17:51:43Z</time>
  <course>0.0</course>
  <speed>0.0</speed>
  <fix>3d</fix>
</trkpt>
<trkpt lat="40.071375" lon="-105.2297889">
  <ele>1583.01</ele>
  <time>2026-08-28T17:51:43Z</time>
  <course>247.1</course>
  <speed>0.022360679774997897</speed>
  <fix>3d</fix>
</trkpt>
<trkpt lat="40.0713749" lon="-105.229789">
  <ele>1583.0</ele>
  <time>2026-08-28T17:51:43Z</time>
  <course>0.0</course>
  <speed>0.0</speed>
  <fix>3d</fix>
</trkpt>
<trkpt lat="40.071375" lon="-105.2297889">
  <ele>1583.01</ele>
  <time>2026-08-28T17:51:43Z</time>
  <course>247.1</course>
  <speed>0.022360679774997897</speed>
  <fix>3d</fix>
</trkpt>
<trkpt lat="40.0713749" lon="-105.229789">
  <ele>1583.0</ele>
  <time>2026-08-28T17:51:43Z</time>
  <course>0.0</course>
  <speed>0.0</speed>
  <fix>3d</fix>
</trkpt>
<trkpt lat="40.071375" lon="-105.2297889">
  <ele>1583.01</ele>
  <time>2026-08-28T17:51:43Z</time>
  <course>247.09</course>
  <speed>0.022360679774997897</speed>
  <fix>3d</fix>
</trkpt>
<trkpt lat="40.0713749" lon="-105.229789">
  <ele>1583.0</ele>
  <time>2026-08-28T17:51:43Z</time>
  <course>0.0</course>
  <speed>0.0</speed>
  <fix>3d</fix>
</trkpt>
<trkpt lat="40.071375" lon="-105.2297889">
  <ele>1583.01</ele>
  <time>2026-08-28T17:51:43Z</time>
  <course>247.09</course>
  <speed>0.022360679774997897</speed>
  <fix>3d</fix>
</trkpt>
<trkpt lat="40.0713749" lon="-105.229789">
  <ele>1583.0</ele>
  <time>2026-08-28T17:51:43Z</time>
  <course>0.0</course>
  <speed>0.0</speed>
  <fix>3d</fix>
</trkpt>
<trkpt lat="40.071375" lon="-105.2297889">
  <ele>1583.01</ele>
  <time>2026-08-28T17:51:43Z</time>
  <course>247.09</course>
  <speed>0.022360679774997897</speed>
  <fix>3d</fix>
</trkpt>
<trkpt lat="40.0713749" lon="-105.229789">
  <ele>1583.0</ele>
  <time>2026-08-28T17:51:43Z</time>
  <course>0.0</course>
  <speed>0.0</speed>
  <fix>3d</fix>
</trkpt>
<trkpt lat="40.071375" lon="-105.2297889">
  <ele>1583.01</ele>
  <time>2026-08-28T17:51:43Z</time>
  <course>247.09</course>
  <speed>0.022360679774997897</speed>
  <fix>3d</fix>
</trkpt>
<trkpt lat="40.0713749" lon="-105.229789">
  <ele>1583.0</ele>
  <time>2026-08-28T17:51:43Z</time>
  <course>0.0</course>
  <speed>0.0</speed>
  <fix>3d</fix>
</trkpt>
<trkpt lat="40.071375" lon="-105.2297889">
  <ele>1583.01</ele>
  <time>2026-08-28T17:51:43Z</time>
  <course>247.09</course>
  <speed>0.022360679774997897</speed>
  <fix>3d</fix>
</trkpt>
<trkpt lat="40.0713749" lon="-105.229789">
  <ele>1583.0</ele>
  <time>2026-08-28T17:51:43Z</time>
  <course>0.0</course>
  <speed>0.0</speed>
  <fix>3d</fix>
</trkpt>
<trkpt lat="40.071375" lon="-105.2297889">
  <ele>1583.01</ele>
  <time>2026-08-28T17:51:43Z</time>
  <course>247.09</course>
  <speed>0.022360679774997897</speed>
  <fix>3d</fix>
</trkpt>
<trkpt lat="40.0713749" lon="-105.229789">
  <ele>1583.0</ele>
  <time>2026-08-28T17:51:43Z</time>
  <course>0.0</course>
  <speed>0.0</speed>
  <fix>3d</fix>
</trkpt>
<trkpt lat="40.071375" lon="-105.2297889">
  <ele>1583.0</ele>
  <time>2026-08-28T17:51:43Z</time>
  <course>247.09</course>
  <speed>0.022360679774997897</speed>
  <fix>3d</fix>
</trkpt>
<trkpt lat="40.0713749" lon="-105.229789">
  <ele>1583.0</ele>
  <time>2026-08-28T17:51:43Z</time>
  <course>0.0</course>
  <speed>0.0</speed>
  <fix>3d</fix>
</trkpt>
<trkpt lat="40.071375" lon="-105.2297889">
  <ele>1583.0</ele>
  <time>2026-08-28T17:51:43Z</time>
  <course>247.09</course>
  <speed>0.022360679774997897</speed>
  <fix>3d</fix>
</trkpt>
<trkpt lat="40.0713749" lon="-105.229789">
  <ele>1583.0</ele>
  <time>2026-08-28T17:51:43Z</time>
  <course>0.0</course>
  <speed>0.0</speed>
  <fix>3d</fix>
</trkpt>
<trkpt lat="40.071375" lon="-105.2297889">
  <ele>1583.0</ele>
  <time>2026-08-28T17:51:43Z</time>
  <course>247.09</course>
  <speed>0.022360679774997897</speed>
  <fix>3d</fix>
</trkpt>
<trkpt lat="40.0713749" lon="-105.229789">
  <ele>1583.0</ele>
  <time>2026-08-28T17:51:43Z</time>
  <course>0.0</course>
  <speed>0.0</speed>
  <fix>3d</fix>
</trkpt>
<trkpt lat="40.071375" lon="-105.2297889">
  <ele>1583.0</ele>
  <time>2026-08-28T17:51:43Z</time>
  <course>247.09</course>
  <speed>0.022360679774997897</speed>
  <fix>3d</fix>
</trkpt>
<trkpt lat="40.0713749" lon="-105.229789">
  <ele>1583.0</ele>
  <time>2026-08-28T17:51:43Z</time>
  <course>0.0</course>
  <speed>0.0</speed>
  <fix>3d</fix>
</trkpt>
<trkpt lat="40.071375" lon="-105.2297889">
  <ele>1583.0</ele>
  <time>2026-08-28T17:51:43Z</time>
  <course>247.09</course>
  <speed>0.022360679774997897</speed>
  <fix>3d</fix>
</trkpt>
<trkpt lat="40.0713749" lon="-105.229789">
  <ele>1583.0</ele>
  <time>2026-08-28T17:51:43Z</time>
  <course>0.0</course>
  <speed>0.0</speed>
  <fix>3d</fix>
</trkpt>
<trkpt lat="40.0713751" lon="-105.2297889">
  <ele>1583.0</ele>
  <time>2026-08-28T17:51:43Z</time>
  <course>247.09</course>
  <speed>0.022360679774997897</speed>
  <fix>3d</fix>
</trkpt>
<trkpt lat="40.0713749" lon="-105.229789">
  <ele>1583.0</ele>
  <time>2026-08-28T17:51:43Z</time>
  <course>0.0</course>
  <speed>0.0</speed>
  <fix>3d</fix>
</trkpt>
<trkpt lat="40.071375" lon="-105.2297889">
  <ele>1583.0</ele>
  <time>2026-08-28T17:51:43Z</time>
  <course>247.09</course>
  <speed>0.022360679774997897</speed>
  <fix>3d</fix>
</trkpt>
<trkpt lat="40.0713749" lon="-105.229789">
  <ele>1583.0</ele>
  <time>2026-08-28T17:51:43Z</time>
  <course>0.0</course>
  <speed>0.0</speed>
  <fix>3d</fix>
</trkpt>
<trkpt lat="40.0713751" lon="-105.2297889">
  <ele>1583.0</ele>
  <time>2026-08-28T17:51:43Z</time>
  <course>247.09</course>
  <speed>0.022360679774997897</speed>
  <fix>3d</fix>
</trkpt>
<trkpt lat="40.0713749" lon="-105.229789">
  <ele>1583.0</ele>
  <time>2026-08-28T17:51:43Z</time>
  <course>0.0</course>
  <speed>0.0</speed>
  <fix>3d</fix>
</trkpt>
<trkpt lat="40.071375" lon="-105.2297889">
  <ele>1582.99</ele>
  <time>2026-08-28T17:51:43Z</time>
  <course>247.09</course>
  <speed>0.022360679774997897</speed>
  <fix>3d</fix>
</trkpt>
<trkpt lat="40.0713749" lon="-105.229789">
  <ele>1583.0</ele>
  <time>2026-08-28T17:51:43Z</time>
  <course>0.0</course>
  <speed>0.0</speed>
  <fix>3d</fix>
</trkpt>
<trkpt lat="40.0713751" lon="-105.2297889">
  <ele>1582.99</ele>
  <time>2026-08-28T17:51:43Z</time>
  <course>247.09</course>
  <speed>0.022360679774997897</speed>
  <fix>3d</fix>
</trkpt>
<trkpt lat="40.0713749" lon="-105.229789">
  <ele>1583.0</ele>
  <time>2026-08-28T17:51:43Z</time>
  <course>0.0</course>
  <speed>0.0</speed>
  <fix>3d</fix>
</trkpt>
<trkpt lat="40.071375" lon="-105.2297889">
  <ele>1582.99</ele>
  <time>2026-08-28T17:51:43Z</time>
  <course>247.09</course>
  <speed>0.022360679774997897</speed>
  <fix>3d</fix>
</trkpt>
<trkpt lat="40.0713749" lon="-105.229789">
  <ele>1583.0</ele>
  <time>2026-08-28T17:51:43Z</time>
  <course>0.0</course>
  <speed>0.0</speed>
  <fix>3d</fix>
</trkpt>
<trkpt lat="40.071375" lon="-105.2297889">
  <ele>1582.99</ele>
  <time>2026-08-28T17:51:43Z</time>
  <course>247.09</course>
  <speed>0.022360679774997897</speed>
  <fix>3d</fix>
</trkpt>
<trkpt lat="40.0713749" lon="-105.229789">
  <ele>1583.0</ele>
  <time>2026-08-28T17:51:43Z</time>
  <course>0.0</course>
  <speed>0.0</speed>
  <fix>3d</fix>
</trkpt>
<trkpt lat="40.071375" lon="-105.2297889">
  <ele>1582.99</ele>
  <time>2026-08-28T17:51:43Z</time>
  <course>247.09</course>
  <speed>0.022360679774997897</speed>
  <fix>3d</fix>
</trkpt>
<trkpt lat="40.0713749" lon="-105.229789">
  <ele>1583.0</ele>
  <time>2026-08-28T17:51:43Z</time>
  <course>0.0</course>
  <speed>0.0</speed>
  <fix>3d</fix>
</trkpt>
<trkpt lat="40.071375" lon="-105.2297889">
  <ele>1582.99</ele>
  <time>2026-08-28T17:51:43Z</time>
  <course>247.09</course>
  <speed>0.022360679774997897</speed>
  <fix>3d</fix>
</trkpt>
<trkpt lat="40.0713749" lon="-105.229789">
  <ele>1583.0</ele>
  <time>2026-08-28T17:51:43Z</time>
  <course>0.0</course>
  <speed>0.0</speed>
  <fix>3d</fix>
</trkpt>
<trkpt lat="40.071375" lon="-105.2297889">
  <ele>1582.99</ele>
  <time>2026-08-28T17:51:43Z</time>
  <course>247.09</course>
  <speed>0.022360679774997897</speed>
  <fix>3d</fix>
</trkpt>
<trkpt lat="40.0713749" lon="-105.229789">
  <ele>1583.0</ele>
  <time>2026-08-28T17:51:43Z</time>
  <course>0.0</course>
  <speed>0.0</speed>
  <fix>3d</fix>
</trkpt>
<trkpt lat="40.071375" lon="-105.2297889">
  <ele>1582.99</ele>
  <time>2026-08-28T17:51:43Z</time>
  <course>247.09</course>
  <speed>0.022360679774997897</speed>
  <fix>3d</fix>
</trkpt>
<trkpt lat="40.0713749" lon="-105.229789">
  <ele>1583.0</ele>
  <time>2026-08-28T17:51:43Z</time>
  <course>0.0</course>
  <speed>0.0</speed>
  <fix>3d</fix>
</trkpt>
<trkpt lat="40.071375" lon="-105.2297889">
  <ele>1582.99</ele>
  <time>2026-08-28T17:51:43Z</time>
  <course>247.09</course>
  <speed>0.022360679774997897</speed>
  <fix>3d</fix>
</trkpt>
<trkpt lat="40.0713749" lon="-105.229789">
  <ele>1583.0</ele>
  <time>2026-08-28T17:51:43Z</time>
  <course>0.0</course>
  <speed>0.0</speed>
  <fix>3d</fix>
</trkpt>
<trkpt lat="40.071375" lon="-105.2297889">
  <ele>1582.99</ele>
  <time>2026-08-28T17:51:43Z</time>
  <course>247.09</course>
  <speed>0.022360679774997897</speed>
  <fix>3d</fix>
</trkpt>
<trkpt lat="40.0713749" lon="-105.229789">
  <ele>1583.0</ele>
  <time>2026-08-28T17:51:43Z</time>
  <course>0.0</course>
  <speed>0.0</speed>
  <fix>3d</fix>
</trkpt>
<trkpt lat="40.071375" lon="-105.2297889">
  <ele>1582.99</ele>
  <time>2026-08-28T17:51:43Z</time>
  <course>247.09</course>
  <speed>0.022360679774997897</speed>
  <fix>3d</fix>
</trkpt>
<trkpt lat="40.0713749" lon="-105.229789">
  <ele>1583.0</ele>
  <time>2026-08-28T17:51:43Z</time>
  <course>0.0</course>
  <speed>0.0</speed>
  <fix>3d</fix>
</trkpt>
<trkpt lat="40.071375" lon="-105.2297889">
  <ele>1582.98</ele>
  <time>2026-08-28T17:51:43Z</time>
  <course>247.09</course>
  <speed>0.022360679774997897</speed>
  <fix>3d</fix>
</trkpt>
<trkpt lat="40.0713749" lon="-105.229789">
  <ele>1583.0</ele>
  <time>2026-08-28T17:51:43Z</time>
  <course>0.0</course>
  <speed>0.0</speed>
  <fix>3d</fix>
</trkpt>
<trkpt lat="40.071375" lon="-105.2297889">
  <ele>1582.98</ele>
  <time>2026-08-28T17:51:43Z</time>
  <course>247.09</course>
  <speed>0.022360679774997897</speed>
  <fix>3d</fix>
</trkpt>
<trkpt lat="40.0713749" lon="-105.229789">
  <ele>1583.0</ele>
  <time>2026-08-28T17:51:43Z</time>
  <course>0.0</course>
  <speed>0.0</speed>
  <fix>3d</fix>
</trkpt>
<trkpt lat="40.071375" lon="-105.2297889">
  <ele>1582.98</ele>
  <time>2026-08-28T17:51:43Z</time>
  <course>247.09</course>
  <speed>0.022360679774997897</speed>
  <fix>3d</fix>
</trkpt>
<trkpt lat="40.0713749" lon="-105.229789">
  <ele>1583.0</ele>
  <time>2026-08-28T17:51:43Z</time>
  <course>0.0</course>
  <speed>0.0</speed>
  <fix>3d</fix>
</trkpt>
<trkpt lat="40.071375" lon="-105.2297889">
  <ele>1582.98</ele>
  <time>2026-08-28T17:51:43Z</time>
  <course>247.09</course>
  <speed>0.022360679774997897</speed>
  <fix>3d</fix>
</trkpt>
<trkpt lat="40.0713749" lon="-105.229789">
  <ele>1583.0</ele>
  <time>2026-08-28T17:51:43Z</time>
  <course>0.0</course>
  <speed>0.0</speed>
  <fix>3d</fix>
</trkpt>
<trkpt lat="40.071375" lon="-105.2297889">
  <ele>1582.98</ele>
  <time>2026-08-28T17:51:43Z</time>
  <course>247.09</course>
  <speed>0.022360679774997897</speed>
  <fix>3d</fix>
</trkpt>
<trkpt lat="40.0713749" lon="-105.229789">
  <ele>1583.0</ele>
  <time>2026-08-28T17:51:43Z</time>
  <course>0.0</course>
  <speed>0.0</speed>
  <fix>3d</fix>
</trkpt>
<trkpt lat="40.071375" lon="-105.2297889">
  <ele>1582.99</ele>
  <time>2026-08-28T17:51:43Z</time>
  <course>247.09</course>
  <speed>0.022360679774997897</speed>
  <fix>3d</fix>
</trkpt>
<trkpt lat="40.0713749" lon="-105.229789">
  <ele>1583.0</ele>
  <time>2026-08-28T17:51:43Z</time>
  <course>0.0</course>
  <speed>0.0</speed>
  <fix>3d</fix>
</trkpt>
<trkpt lat="40.0713751" lon="-105.2297889">
  <ele>1582.98</ele>
  <time>2026-08-28T17:51:43Z</time>
  <course>247.09</course>
  <speed>0.022360679774997897</speed>
  <fix>3d</fix>
</trkpt>
<trkpt lat="40.0713749" lon="-105.229789">
  <ele>1583.0</ele>
  <time>2026-08-28T17:51:43Z</time>
  <course>0.0</course>
  <speed>0.0</speed>
  <fix>3d</fix>
</trkpt>
<trkpt lat="40.071375" lon="-105.2297889">
  <ele>1582.98</ele>
  <time>2026-08-28T17:51:43Z</time>
  <course>247.09</course>
  <speed>0.022360679774997897</speed>
  <fix>3d</fix>
</trkpt>
<trkpt lat="40.0713749" lon="-105.229789">
  <ele>1583.0</ele>
  <time>2026-08-28T17:51:43Z</time>
  <course>0.0</course>
  <speed>0.0</speed>
  <fix>3d</fix>
</trkpt>
<trkpt lat="40.0713751" lon="-105.2297889">
  <ele>1582.98</ele>
  <time>2026-08-28T17:51:43Z</time>
  <course>247.09</course>
  <speed>0.022360679774997897</speed>
  <fix>3d</fix>
</trkpt>
<trkpt lat="40.0713749" lon="-105.229789">
  <ele>1583.0</ele>
  <time>2026-08-28T17:51:43Z</time>
  <course>0.0</course>
  <speed>0.0</speed>
  <fix>3d</fix>
</trkpt>
<trkpt lat="40.071375" lon="-105.2297889">
  <ele>1582.98</ele>
  <time>2026-08-28T17:51:43Z</time>
  <course>247.09</course>
  <speed>0.022360679774997897</speed>
  <fix>3d</fix>
</trkpt>
<trkpt lat="40.0713749" lon="-105.229789">
  <ele>1583.0</ele>
  <time>2026-08-28T17:51:43Z</time>
  <course>0.0</course>
  <speed>0.0</speed>
  <fix>3d</fix>
</trkpt>
<trkpt lat="40.0713751" lon="-105.2297889">
  <ele>1582.97</ele>
  <time>2026-08-28T17:51:43Z</time>
  <course>247.09</course>
  <speed>0.022360679774997897</speed>
  <fix>3d</fix>
</trkpt>
<trkpt lat="40.0713749" lon="-105.229789">
  <ele>1583.0</ele>
  <time>2026-08-28T17:51:43Z</time>
  <course>0.0</course>
  <speed>0.0</speed>
  <fix>3d</fix>
</trkpt>
<trkpt lat="40.071375" lon="-105.2297889">
  <ele>1582.97</ele>
  <time>2026-08-28T17:51:43Z</time>
  <course>247.09</course>
  <speed>0.022360679774997897</speed>
  <fix>3d</fix>
</trkpt>
<trkpt lat="40.0713749" lon="-105.229789">
  <ele>1583.0</ele>
  <time>2026-08-28T17:51:43Z</time>
  <course>0.0</course>
  <speed>0.0</speed>
  <fix>3d</fix>
</trkpt>
<trkpt lat="40.0713751" lon="-105.2297889">
  <ele>1582.97</ele>
  <time>2026-08-28T17:51:43Z</time>
  <course>247.09</course>
  <speed>0.022360679774997897</speed>
  <fix>3d</fix>
</trkpt>
<trkpt lat="40.0713749" lon="-105.229789">
  <ele>1583.0</ele>
  <time>2026-08-28T17:51:43Z</time>
  <course>0.0</course>
  <speed>0.0</speed>
  <fix>3d</fix>
</trkpt>
<trkpt lat="40.071375" lon="-105.2297889">
  <ele>1582.97</ele>
  <time>2026-08-28T17:51:43Z</time>
  <course>247.09</course>
  <speed>0.022360679774997897</speed>
  <fix>3d</fix>
</trkpt>
<trkpt lat="40.0713749" lon="-105.229789">
  <ele>1583.0</ele>
  <time>2026-08-28T17:51:43Z</time>
  <course>0.0</course>
  <speed>0.0</speed>
  <fix>3d</fix>
</trkpt>
<trkpt lat="40.071375" lon="-105.2297889">
  <ele>1582.97</ele>
  <time>2026-08-28T17:51:43Z</time>
  <course>247.09</course>
  <speed>0.022360679774997897</speed>
  <fix>3d</fix>
</trkpt>
<trkpt lat="40.0713749" lon="-105.229789">
  <ele>1583.0</ele>
  <time>2026-08-28T17:51:43Z</time>
  <course>0.0</course>
  <speed>0.0</speed>
  <fix>3d</fix>
</trkpt>
<trkpt lat="40.071375" lon="-105.2297889">
  <ele>1582.97</ele>
  <time>2026-08-28T17:51:43Z</time>
  <course>247.09</course>
  <speed>0.022360679774997897</speed>
  <fix>3d</fix>
</trkpt>
<trkpt lat="40.0713749" lon="-105.229789">
  <ele>1583.0</ele>
  <time>2026-08-28T17:51:43Z</time>
  <course>0.0</course>
  <speed>0.0</speed>
  <fix>3d</fix>
</trkpt>
<trkpt lat="40.071375" lon="-105.2297889">
  <ele>1582.97</ele>
  <time>2026-08-28T17:51:43Z</time>
  <course>247.09</course>
  <speed>0.022360679774997897</speed>
  <fix>3d</fix>
</trkpt>
<trkpt lat="40.0713749" lon="-105.229789">
  <ele>1583.0</ele>
  <time>2026-08-28T17:51:43Z</time>
  <course>0.0</course>
  <speed>0.0</speed>
  <fix>3d</fix>
</trkpt>
<trkpt lat="40.071375" lon="-105.2297889">
  <ele>1582.98</ele>
  <time>2026-08-28T17:51:43Z</time>
  <course>247.09</course>
  <speed>0.022360679774997897</speed>
  <fix>3d</fix>
</trkpt>
<trkpt lat="40.0713749" lon="-105.229789">
  <ele>1583.0</ele>
  <time>2026-08-28T17:51:43Z</time>
  <course>0.0</course>
  <speed>0.0</speed>
  <fix>3d</fix>
</trkpt>
<trkpt lat="40.071375" lon="-105.2297889">
  <ele>1582.98</ele>
  <time>2026-08-28T17:51:43Z</time>
  <course>247.09</course>
  <speed>0.022360679774997897</speed>
  <fix>3d</fix>
</trkpt>
<trkpt lat="40.0713749" lon="-105.229789">
  <ele>1583.0</ele>
  <time>2026-08-28T17:51:43Z</time>
  <course>0.0</course>
  <speed>0.0</speed>
  <fix>3d</fix>
</trkpt>
<trkpt lat="40.071375" lon="-105.2297889">
  <ele>1582.98</ele>
  <time>2026-08-28T17:51:43Z</time>
  <course>247.09</course>
  <speed>0.022360679774997897</speed>
  <fix>3d</fix>
</trkpt>
<trkpt lat="40.0713749" lon="-105.229789">
  <ele>1583.0</ele>
  <time>2026-08-28T17:51:43Z</time>
  <course>0.0</course>
  <speed>0.0</speed>
  <fix>3d</fix>
</trkpt>
<trkpt lat="40.071375" lon="-105.2297889">
  <ele>1582.98</ele>
  <time>2026-08-28T17:51:43Z</time>
  <course>247.09</course>
  <speed>0.022360679774997897</speed>
  <fix>3d</fix>
</trkpt>
<trkpt lat="40.0713749" lon="-105.229789">
  <ele>1583.0</ele>
  <time>2026-08-28T17:51:43Z</time>
  <course>0.0</course>
  <speed>0.0</speed>
  <fix>3d</fix>
</trkpt>
<trkpt lat="40.071375" lon="-105.2297889">
  <ele>1582.98</ele>
  <time>2026-08-28T17:51:43Z</time>
  <course>247.09</course>
  <speed>0.022360679774997897</speed>
  <fix>3d</fix>
</trkpt>
<trkpt lat="40.0713749" lon="-105.229789">
  <ele>1583.0</ele>
  <time>2026-08-28T17:51:43Z</time>
  <course>0.0</course>
  <speed>0.0</speed>
  <fix>3d</fix>
</trkpt>
<trkpt lat="40.071375" lon="-105.2297889">
  <ele>1582.97</ele>
  <time>2026-08-28T17:51:43Z</time>
  <course>247.09</course>
  <speed>0.022360679774997897</speed>
  <fix>3d</fix>
</trkpt>
<trkpt lat="40.0713749" lon="-105.229789">
  <ele>1583.0</ele>
  <time>2026-08-28T17:51:43Z</time>
  <course>0.0</course>
  <speed>0.0</speed>
  <fix>3d</fix>
</trkpt>
<trkpt lat="40.071375" lon="-105.2297889">
  <ele>1582.97</ele>
  <time>2026-08-28T17:51:43Z</time>
  <course>247.09</course>
  <speed>0.022360679774997897</speed>
  <fix>3d</fix>
</trkpt>
<trkpt lat="40.0713749" lon="-105.229789">
  <ele>1583.0</ele>
  <time>2026-08-28T17:51:43Z</time>
  <course>0.0</course>
  <speed>0.0</speed>
  <fix>3d</fix>
</trkpt>
<trkpt lat="40.071375" lon="-105.2297889">
  <ele>1582.97</ele>
  <time>2026-08-28T17:51:43Z</time>
  <course>247.09</course>
  <speed>0.022360679774997897</speed>
  <fix>3d</fix>
</trkpt>
<trkpt lat="40.0713749" lon="-105.229789">
  <ele>1583.0</ele>
  <time>2026-08-28T17:51:43Z</time>
  <course>0.0</course>
  <speed>0.0</speed>
  <fix>3d</fix>
</trkpt>
<trkpt lat="40.071375" lon="-105.2297889">
  <ele>1582.97</ele>
  <time>2026-08-28T17:51:43Z</time>
  <course>247.09</course>
  <speed>0.022360679774997897</speed>
  <fix>3d</fix>
</trkpt>
<trkpt lat="40.0713749" lon="-105.229789">
  <ele>1583.0</ele>
  <time>2026-08-28T17:51:43Z</time>
  <course>0.0</course>
  <speed>0.0</speed>
  <fix>3d</fix>
</trkpt>
<trkpt lat="40.071375" lon="-105.2297889">
  <ele>1582.97</ele>
  <time>2026-08-28T17:51:43Z</time>
  <course>247.09</course>
  <speed>0.022360679774997897</speed>
  <fix>3d</fix>
</trkpt>
<trkpt lat="40.0713749" lon="-105.229789">
  <ele>1583.0</ele>
  <time>2026-08-28T17:51:43Z</time>
  <course>0.0</course>
  <speed>0.0</speed>
  <fix>3d</fix>
</trkpt>
<trkpt lat="40.071375" lon="-105.2297889">
  <ele>1582.97</ele>
  <time>2026-08-28T17:51:43Z</time>
  <course>247.09</course>
  <speed>0.022360679774997897</speed>
  <fix>3d</fix>
</trkpt>
<trkpt lat="40.0713749" lon="-105.229789">
  <ele>1583.0</ele>
  <time>2026-08-28T17:51:43Z</time>
  <course>0.0</course>
  <speed>0.0</speed>
  <fix>3d</fix>
</trkpt>
<trkpt lat="40.0713751" lon="-105.2297889">
  <ele>1582.97</ele>
  <time>2026-08-28T17:51:43Z</time>
  <course>247.09</course>
  <speed>0.022360679774997897</speed>
  <fix>3d</fix>
</trkpt>
<trkpt lat="40.0713749" lon="-105.229789">
  <ele>1583.0</ele>
  <time>2026-08-28T17:51:43Z</time>
  <course>0.0</course>
  <speed>0.0</speed>
  <fix>3d</fix>
</trkpt>
<trkpt lat="40.071375" lon="-105.2297889">
  <ele>1582.96</ele>
  <time>2026-08-28T17:51:43Z</time>
  <course>247.09</course>
  <speed>0.022360679774997897</speed>
  <fix>3d</fix>
</trkpt>
<trkpt lat="40.0713749" lon="-105.229789">
  <ele>1583.0</ele>
  <time>2026-08-28T17:51:43Z</time>
  <course>0.0</course>
  <speed>0.0</speed>
  <fix>3d</fix>
</trkpt>
<trkpt lat="40.0713751" lon="-105.2297889">
  <ele>1582.96</ele>
  <time>2026-08-28T17:51:43Z</time>
  <course>247.09</course>
  <speed>0.022360679774997897</speed>
  <fix>3d</fix>
</trkpt>
<trkpt lat="40.0713749" lon="-105.229789">
  <ele>1583.0</ele>
  <time>2026-08-28T17:51:43Z</time>
  <course>0.0</course>
  <speed>0.0</speed>
  <fix>3d</fix>
</trkpt>
<trkpt lat="40.071375" lon="-105.2297889">
  <ele>1582.96</ele>
  <time>2026-08-28T17:51:43Z</time>
  <course>247.09</course>
  <speed>0.022360679774997897</speed>
  <fix>3d</fix>
</trkpt>
<trkpt lat="40.0713749" lon="-105.229789">
  <ele>1583.0</ele>
  <time>2026-08-28T17:51:43Z</time>
  <course>0.0</course>
  <speed>0.0</speed>
  <fix>3d</fix>
</trkpt>
<trkpt lat="40.0713751" lon="-105.2297889">
  <ele>1582.95</ele>
  <time>2026-08-28T17:51:43Z</time>
  <course>247.09</course>
  <speed>0.022360679774997897</speed>
  <fix>3d</fix>
</trkpt>
<trkpt lat="40.0713749" lon="-105.229789">
  <ele>1583.0</ele>
  <time>2026-08-28T17:51:43Z</time>
  <course>0.0</course>
  <speed>0.0</speed>
  <fix>3d</fix>
</trkpt>
<trkpt lat="40.071375" lon="-105.2297889">
  <ele>1582.95</ele>
  <time>2026-08-28T17:51:43Z</time>
  <course>247.09</course>
  <speed>0.022360679774997897</speed>
  <fix>3d</fix>
</trkpt>
<trkpt lat="40.0713749" lon="-105.229789">
  <ele>1583.0</ele>
  <time>2026-08-28T17:51:43Z</time>
  <course>0.0</course>
  <speed>0.0</speed>
  <fix>3d</fix>
</trkpt>
<trkpt lat="40.071375" lon="-105.2297889">
  <ele>1582.94</ele>
  <time>2026-08-28T17:51:43Z</time>
  <course>247.09</course>
  <speed>0.022360679774997897</speed>
  <fix>3d</fix>
</trkpt>
<trkpt lat="40.0713749" lon="-105.229789">
  <ele>1583.0</ele>
  <time>2026-08-28T17:51:43Z</time>
  <course>0.0</course>
  <speed>0.0</speed>
  <fix>3d</fix>
</trkpt>
<trkpt lat="40.071375" lon="-105.2297889">
  <ele>1582.94</ele>
  <time>2026-08-28T17:51:43Z</time>
  <course>247.09</course>
  <speed>0.022360679774997897</speed>
  <fix>3d</fix>
</trkpt>
<trkpt lat="40.0713749" lon="-105.229789">
  <ele>1583.0</ele>
  <time>2026-08-28T17:51:43Z</time>
  <course>0.0</course>
  <speed>0.0</speed>
  <fix>3d</fix>
</trkpt>
<trkpt lat="40.071375" lon="-105.2297889">
  <ele>1582.93</ele>
  <time>2026-08-28T17:51:43Z</time>
  <course>247.09</course>
  <speed>0.022360679774997897</speed>
  <fix>3d</fix>
</trkpt>
<trkpt lat="40.0713749" lon="-105.229789">
  <ele>1583.0</ele>
  <time>2026-08-28T17:51:43Z</time>
  <course>0.0</course>
  <speed>0.0</speed>
  <fix>3d</fix>
</trkpt>
<trkpt lat="40.071375" lon="-105.2297889">
  <ele>1582.93</ele>
  <time>2026-08-28T17:51:43Z</time>
  <course>247.09</course>
  <speed>0.022360679774997897</speed>
  <fix>3d</fix>
</trkpt>
<trkpt lat="40.0713749" lon="-105.229789">
  <ele>1583.0</ele>
  <time>2026-08-28T17:51:43Z</time>
  <course>0.0</course>
  <speed>0.0</speed>
  <fix>3d</fix>
</trkpt>
<trkpt lat="40.071375" lon="-105.2297889">
  <ele>1582.93</ele>
  <time>2026-08-28T17:51:43Z</time>
  <course>247.09</course>
  <speed>0.022360679774997897</speed>
  <fix>3d</fix>
</trkpt>
<trkpt lat="40.0713749" lon="-105.229789">
  <ele>1583.0</ele>
  <time>2026-08-28T17:51:43Z</time>
  <course>0.0</course>
  <speed>0.0</speed>
  <fix>3d</fix>
</trkpt>
<trkpt lat="40.071375" lon="-105.2297889">
  <ele>1582.92</ele>
  <time>2026-08-28T17:51:43Z</time>
  <course>247.09</course>
  <speed>0.022360679774997897</speed>
  <fix>3d</fix>
</trkpt>
<trkpt lat="40.0713749" lon="-105.229789">
  <ele>1583.0</ele>
  <time>2026-08-28T17:51:43Z</time>
  <course>0.0</course>
  <speed>0.0</speed>
  <fix>3d</fix>
</trkpt>
<trkpt lat="40.071375" lon="-105.2297889">
  <ele>1582.93</ele>
  <time>2026-08-28T17:51:43Z</time>
  <course>247.09</course>
  <speed>0.022360679774997897</speed>
  <fix>3d</fix>
</trkpt>
<trkpt lat="40.0713749" lon="-105.229789">
  <ele>1583.0</ele>
  <time>2026-08-28T17:51:43Z</time>
  <course>0.0</course>
  <speed>0.0</speed>
  <fix>3d</fix>
</trkpt>
<trkpt lat="40.071375" lon="-105.2297889">
  <ele>1582.93</ele>
  <time>2026-08-28T17:51:43Z</time>
  <course>247.09</course>
  <speed>0.022360679774997897</speed>
  <fix>3d</fix>
</trkpt>
<trkpt lat="40.0713749" lon="-105.229789">
  <ele>1583.0</ele>
  <time>2026-08-28T17:51:43Z</time>
  <course>0.0</course>
  <speed>0.0</speed>
  <fix>3d</fix>
</trkpt>
<trkpt lat="40.0713751" lon="-105.2297889">
  <ele>1582.93</ele>
  <time>2026-08-28T17:51:43Z</time>
  <course>247.09</course>
  <speed>0.022360679774997897</speed>
  <fix>3d</fix>
</trkpt>
<trkpt lat="40.0713749" lon="-105.229789">
  <ele>1583.0</ele>
  <time>2026-08-28T17:51:43Z</time>
  <course>0.0</course>
  <speed>0.0</speed>
  <fix>3d</fix>
</trkpt>
<trkpt lat="40.071375" lon="-105.2297889">
  <ele>1582.94</ele>
  <time>2026-08-28T17:51:43Z</time>
  <course>247.09</course>
  <speed>0.022360679774997897</speed>
  <fix>3d</fix>
</trkpt>
<trkpt lat="40.0713749" lon="-105.229789">
  <ele>1583.0</ele>
  <time>2026-08-28T17:51:43Z</time>
  <course>0.0</course>
  <speed>0.0</speed>
  <fix>3d</fix>
</trkpt>
<trkpt lat="40.0713751" lon="-105.2297889">
  <ele>1582.95</ele>
  <time>2026-08-28T17:51:43Z</time>
  <course>247.09</course>
  <speed>0.022360679774997897</speed>
  <fix>3d</fix>
</trkpt>
<trkpt lat="40.0713749" lon="-105.229789">
  <ele>1583.0</ele>
  <time>2026-08-28T17:51:43Z</time>
  <course>0.0</course>
  <speed>0.0</speed>
  <fix>3d</fix>
</trkpt>
<trkpt lat="40.071375" lon="-105.2297889">
  <ele>1582.95</ele>
  <time>2026-08-28T17:51:43Z</time>
  <course>247.09</course>
  <speed>0.022360679774997897</speed>
  <fix>3d</fix>
</trkpt>
<trkpt lat="40.0713749" lon="-105.229789">
  <ele>1583.0</ele>
  <time>2026-08-28T17:51:43Z</time>
  <course>0.0</course>
  <speed>0.0</speed>
  <fix>3d</fix>
</trkpt>
<trkpt lat="40.0713751" lon="-105.2297889">
  <ele>1582.96</ele>
  <time>2026-08-28T17:51:43Z</time>
  <course>247.09</course>
  <speed>0.022360679774997897</speed>
  <fix>3d</fix>
</trkpt>
<trkpt lat="40.0713749" lon="-105.229789">
  <ele>1583.0</ele>
  <time>2026-08-28T17:51:43Z</time>
  <course>0.0</course>
  <speed>0.0</speed>
  <fix>3d</fix>
</trkpt>
<trkpt lat="40.071375" lon="-105.2297889">
  <ele>1582.97</ele>
  <time>2026-08-28T17:51:43Z</time>
  <course>247.09</course>
  <speed>0.022360679774997897</speed>
  <fix>3d</fix>
</trkpt>
<trkpt lat="40.0713749" lon="-105.229789">
  <ele>1583.0</ele>
  <time>2026-08-28T17:51:43Z</time>
  <course>0.0</course>
  <speed>0.0</speed>
  <fix>3d</fix>
</trkpt>
<trkpt lat="40.0713751" lon="-105.2297889">
  <ele>1582.97</ele>
  <time>2026-08-28T17:51:43Z</time>
  <course>247.09</course>
  <speed>0.022360679774997897</speed>
  <fix>3d</fix>
</trkpt>
<trkpt lat="40.0713749" lon="-105.229789">
  <ele>1583.0</ele>
  <time>2026-08-28T17:51:43Z</time>
  <course>0.0</course>
  <speed>0.0</speed>
  <fix>3d</fix>
</trkpt>
<trkpt lat="40.0713751" lon="-105.2297889">
  <ele>1582.97</ele>
  <time>2026-08-28T17:51:43Z</time>
  <course>247.09</course>
  <speed>0.022360679774997897</speed>
  <fix>3d</fix>
</trkpt>
<trkpt lat="40.0713749" lon="-105.229789">
  <ele>1583.0</ele>
  <time>2026-08-28T17:51:43Z</time>
  <course>0.0</course>
  <speed>0.0</speed>
  <fix>3d</fix>
</trkpt>
<trkpt lat="40.0713751" lon="-105.2297889">
  <ele>1582.98</ele>
  <time>2026-08-28T17:51:43Z</time>
  <course>247.09</course>
  <speed>0.022360679774997897</speed>
  <fix>3d</fix>
</trkpt>
<trkpt lat="40.0713749" lon="-105.229789">
  <ele>1583.0</ele>
  <time>2026-08-28T17:51:43Z</time>
  <course>0.0</course>
  <speed>0.0</speed>
  <fix>3d</fix>
</trkpt>
<trkpt lat="40.0713751" lon="-105.2297889">
  <ele>1582.98</ele>
  <time>2026-08-28T17:51:43Z</time>
  <course>247.09</course>
  <speed>0.022360679774997897</speed>
  <fix>3d</fix>
</trkpt>
<trkpt lat="40.0713749" lon="-105.229789">
  <ele>1583.0</ele>
  <time>2026-08-28T17:51:43Z</time>
  <course>0.0</course>
  <speed>0.0</speed>
  <fix>3d</fix>
</trkpt>
<trkpt lat="40.0713751" lon="-105.2297889">
  <ele>1582.98</ele>
  <time>2026-08-28T17:51:43Z</time>
  <course>247.09</course>
  <speed>0.022360679774997897</speed>
  <fix>3d</fix>
</trkpt>
<trkpt lat="40.0713749" lon="-105.229789">
  <ele>1583.0</ele>
  <time>2026-08-28T17:51:43Z</time>
  <course>0.0</course>
  <speed>0.0</speed>
  <fix>3d</fix>
</trkpt>
<trkpt lat="40.0713751" lon="-105.2297889">
  <ele>1582.98</ele>
  <time>2026-08-28T17:51:43Z</time>
  <course>247.09</course>
  <speed>0.022360679774997897</speed>
  <fix>3d</fix>
</trkpt>
<trkpt lat="40.0713749" lon="-105.229789">
  <ele>1583.0</ele>
  <time>2026-08-28T17:51:43Z</time>
  <course>0.0</course>
  <speed>0.0</speed>
  <fix>3d</fix>
</trkpt>
<trkpt lat="40.0713751" lon="-105.2297889">
  <ele>1582.98</ele>
  <time>2026-08-28T17:51:43Z</time>
  <course>247.09</course>
  <speed>0.022360679774997897</speed>
  <fix>3d</fix>
</trkpt>
<trkpt lat="40.0713749" lon="-105.229789">
  <ele>1583.0</ele>
  <time>2026-08-28T17:51:43Z</time>
  <course>0.0</course>
  <speed>0.0</speed>
  <fix>3d</fix>
</trkpt>
<trkpt lat="40.071375" lon="-105.2297889">
  <ele>1582.98</ele>
  <time>2026-08-28T17:51:43Z</time>
  <course>247.09</course>
  <speed>0.022360679774997897</speed>
  <fix>3d</fix>
</trkpt>
<trkpt lat="40.0713749" lon="-105.229789">
  <ele>1583.0</ele>
  <time>2026-08-28T17:51:43Z</time>
  <course>0.0</course>
  <speed>0.0</speed>
  <fix>3d</fix>
</trkpt>
<trkpt lat="40.0713751" lon="-105.2297889">
  <ele>1582.98</ele>
  <time>2026-08-28T17:51:43Z</time>
  <course>247.09</course>
  <speed>0.022360679774997897</speed>
  <fix>3d</fix>
</trkpt>
<trkpt lat="40.0713749" lon="-105.229789">
  <ele>1583.0</ele>
  <time>2026-08-28T17:51:43Z</time>
  <course>0.0</course>
  <speed>0.0</speed>
  <fix>3d</fix>
</trkpt>
<trkpt lat="40.071375" lon="-105.2297889">
  <ele>1582.98</ele>
  <time>2026-08-28T17:51:43Z</time>
  <course>247.09</course>
  <speed>0.022360679774997897</speed>
  <fix>3d</fix>
</trkpt>
<trkpt lat="40.0713749" lon="-105.229789">
  <ele>1583.0</ele>
  <time>2026-08-28T17:51:43Z</time>
  <course>0.0</course>
  <speed>0.0</speed>
  <fix>3d</fix>
</trkpt>
<trkpt lat="40.0713751" lon="-105.2297889">
  <ele>1582.99</ele>
  <time>2026-08-28T17:51:43Z</time>
  <course>247.09</course>
  <speed>0.022360679774997897</speed>
  <fix>3d</fix>
</trkpt>
<trkpt lat="40.0713749" lon="-105.229789">
  <ele>1583.0</ele>
  <time>2026-08-28T17:51:43Z</time>
  <course>0.0</course>
  <speed>0.0</speed>
  <fix>3d</fix>
</trkpt>
<trkpt lat="40.071375" lon="-105.2297889">
  <ele>1582.99</ele>
  <time>2026-08-28T17:51:43Z</time>
  <course>247.09</course>
  <speed>0.022360679774997897</speed>
  <fix>3d</fix>
</trkpt>
<trkpt lat="40.0713749" lon="-105.229789">
  <ele>1583.0</ele>
  <time>2026-08-28T17:51:43Z</time>
  <course>0.0</course>
  <speed>0.0</speed>
  <fix>3d</fix>
</trkpt>
<trkpt lat="40.0713751" lon="-105.2297889">
  <ele>1582.99</ele>
  <time>2026-08-28T17:51:43Z</time>
  <course>247.09</course>
  <speed>0.022360679774997897</speed>
  <fix>3d</fix>
</trkpt>
<trkpt lat="40.0713749" lon="-105.229789">
  <ele>1583.0</ele>
  <time>2026-08-28T17:51:43Z</time>
  <course>0.0</course>
  <speed>0.0</speed>
  <fix>3d</fix>
</trkpt>
<trkpt lat="40.071375" lon="-105.2297889">
  <ele>1582.99</ele>
  <time>2026-08-28T17:51:43Z</time>
  <course>247.09</course>
  <speed>0.022360679774997897</speed>
  <fix>3d</fix>
</trkpt>
<trkpt lat="40.0713749" lon="-105.229789">
  <ele>1583.0</ele>
  <time>2026-08-28T17:51:43Z</time>
  <course>0.0</course>
  <speed>0.0</speed>
  <fix>3d</fix>
</trkpt>
<trkpt lat="40.0713751" lon="-105.2297889">
  <ele>1583.0</ele>
  <time>2026-08-28T17:51:43Z</time>
  <course>247.09</course>
  <speed>0.022360679774997897</speed>
  <fix>3d</fix>
</trkpt>
<trkpt lat="40.0713749" lon="-105.229789">
  <ele>1583.0</ele>
  <time>2026-08-28T17:51:43Z</time>
  <course>0.0</course>
  <speed>0.0</speed>
  <fix>3d</fix>
</trkpt>
<trkpt lat="40.071375" lon="-105.2297889">
  <ele>1583.0</ele>
  <time>2026-08-28T17:51:43Z</time>
  <course>247.09</course>
  <speed>0.022360679774997897</speed>
  <fix>3d</fix>
</trkpt>
<trkpt lat="40.0713749" lon="-105.229789">
  <ele>1583.0</ele>
  <time>2026-08-28T17:51:43Z</time>
  <course>0.0</course>
  <speed>0.0</speed>
  <fix>3d</fix>
</trkpt>
<trkpt lat="40.0713751" lon="-105.2297889">
  <ele>1583.0</ele>
  <time>2026-08-28T17:51:43Z</time>
  <course>247.09</course>
  <speed>0.022360679774997897</speed>
  <fix>3d</fix>
</trkpt>
<trkpt lat="40.0713749" lon="-105.229789">
  <ele>1583.0</ele>
  <time>2026-08-28T17:51:43Z</time>
  <course>0.0</course>
  <speed>0.0</speed>
  <fix>3d</fix>
</trkpt>
<trkpt lat="40.071375" lon="-105.2297889">
  <ele>1583.0</ele>
  <time>2026-08-28T17:51:43Z</time>
  <course>247.09</course>
  <speed>0.022360679774997897</speed>
  <fix>3d</fix>
</trkpt>
<trkpt lat="40.0713749" lon="-105.229789">
  <ele>1583.0</ele>
  <time>2026-08-28T17:51:43Z</time>
  <course>0.0</course>
  <speed>0.0</speed>
  <fix>3d</fix>
</trkpt>
<trkpt lat="40.0713751" lon="-105.2297889">
  <ele>1583.01</ele>
  <time>2026-08-28T17:51:43Z</time>
  <course>247.09</course>
  <speed>0.022360679774997897</speed>
  <fix>3d</fix>
</trkpt>
<trkpt lat="40.0713749" lon="-105.229789">
  <ele>1583.0</ele>
  <time>2026-08-28T17:51:43Z</time>
  <course>0.0</course>
  <speed>0.0</speed>
  <fix>3d</fix>
</trkpt>
<trkpt lat="40.071375" lon="-105.2297889">
  <ele>1583.01</ele>
  <time>2026-08-28T17:51:43Z</time>
  <course>247.09</course>
  <speed>0.022360679774997897</speed>
  <fix>3d</fix>
</trkpt>
<trkpt lat="40.0713749" lon="-105.229789">
  <ele>1583.0</ele>
  <time>2026-08-28T17:51:43Z</time>
  <course>0.0</course>
  <speed>0.0</speed>
  <fix>3d</fix>
</trkpt>
<trkpt lat="40.0713751" lon="-105.2297889">
  <ele>1583.01</ele>
  <time>2026-08-28T17:51:43Z</time>
  <course>247.09</course>
  <speed>0.022360679774997897</speed>
  <fix>3d</fix>
</trkpt>
<trkpt lat="40.0713749" lon="-105.229789">
  <ele>1583.0</ele>
  <time>2026-08-28T17:51:43Z</time>
  <course>0.0</course>
  <speed>0.0</speed>
  <fix>3d</fix>
</trkpt>
<trkpt lat="40.0713751" lon="-105.2297889">
  <ele>1583.02</ele>
  <time>2026-08-28T17:51:43Z</time>
  <course>247.09</course>
  <speed>0.022360679774997897</speed>
  <fix>3d</fix>
</trkpt>
<trkpt lat="40.0713749" lon="-105.229789">
  <ele>1583.0</ele>
  <time>2026-08-28T17:51:43Z</time>
  <course>0.0</course>
  <speed>0.0</speed>
  <fix>3d</fix>
</trkpt>
<trkpt lat="40.0713751" lon="-105.2297889">
  <ele>1583.02</ele>
  <time>2026-08-28T17:51:43Z</time>
  <course>247.09</course>
  <speed>0.022360679774997897</speed>
  <fix>3d</fix>
</trkpt>
<trkpt lat="40.0713749" lon="-105.229789">
  <ele>1583.0</ele>
  <time>2026-08-28T17:51:43Z</time>
  <course>0.0</course>
  <speed>0.0</speed>
  <fix>3d</fix>
</trkpt>
<trkpt lat="40.0713751" lon="-105.2297889">
  <ele>1583.03</ele>
  <time>2026-08-28T17:51:43Z</time>
  <course>247.09</course>
  <speed>0.022360679774997897</speed>
  <fix>3d</fix>
</trkpt>
<trkpt lat="40.0713749" lon="-105.229789">
  <ele>1583.0</ele>
  <time>2026-08-28T17:51:43Z</time>
  <course>0.0</course>
  <speed>0.0</speed>
  <fix>3d</fix>
</trkpt>
<trkpt lat="40.0713751" lon="-105.2297889">
  <ele>1583.04</ele>
  <time>2026-08-28T17:51:43Z</time>
  <course>247.09</course>
  <speed>0.022360679774997897</speed>
  <fix>3d</fix>
</trkpt>
<trkpt lat="40.0713749" lon="-105.229789">
  <ele>1583.0</ele>
  <time>2026-08-28T17:51:43Z</time>
  <course>0.0</course>
  <speed>0.0</speed>
  <fix>3d</fix>
</trkpt>
<trkpt lat="40.0713751" lon="-105.2297889">
  <ele>1583.04</ele>
  <time>2026-08-28T17:51:43Z</time>
  <course>247.09</course>
  <speed>0.022360679774997897</speed>
  <fix>3d</fix>
</trkpt>
<trkpt lat="40.0713749" lon="-105.229789">
  <ele>1583.0</ele>
  <time>2026-08-28T17:51:43Z</time>
  <course>0.0</course>
  <speed>0.0</speed>
  <fix>3d</fix>
</trkpt>
<trkpt lat="40.0713751" lon="-105.2297889">
  <ele>1583.04</ele>
  <time>2026-08-28T17:51:43Z</time>
  <course>247.09</course>
  <speed>0.022360679774997897</speed>
  <fix>3d</fix>
</trkpt>
<trkpt lat="40.0713749" lon="-105.229789">
  <ele>1583.0</ele>
  <time>2026-08-28T17:51:43Z</time>
  <course>0.0</course>
  <speed>0.0</speed>
  <fix>3d</fix>
</trkpt>
<trkpt lat="40.071375" lon="-105.2297889">
  <ele>1583.04</ele>
  <time>2026-08-28T17:51:43Z</time>
  <course>247.09</course>
  <speed>0.022360679774997897</speed>
  <fix>3d</fix>
</trkpt>
<trkpt lat="40.0713749" lon="-105.229789">
  <ele>1583.0</ele>
  <time>2026-08-28T17:51:43Z</time>
  <course>0.0</course>
  <speed>0.0</speed>
  <fix>3d</fix>
</trkpt>
<trkpt lat="40.0713751" lon="-105.2297889">
  <ele>1583.04</ele>
  <time>2026-08-28T17:51:43Z</time>
  <course>247.09</course>
  <speed>0.022360679774997897</speed>
  <fix>3d</fix>
</trkpt>
<trkpt lat="40.0713749" lon="-105.229789">
  <ele>1583.0</ele>
  <time>2026-08-28T17:51:43Z</time>
  <course>0.0</course>
  <speed>0.0</speed>
  <fix>3d</fix>
</trkpt>
<trkpt lat="40.071375" lon="-105.2297889">
  <ele>1583.04</ele>
  <time>2026-08-28T17:51:43Z</time>
  <course>247.09</course>
  <speed>0.022360679774997897</speed>
  <fix>3d</fix>
</trkpt>
<trkpt lat="40.0713749" lon="-105.229789">
  <ele>1583.0</ele>
  <time>2026-08-28T17:51:43Z</time>
  <course>0.0</course>
  <speed>0.0</speed>
  <fix>3d</fix>
</trkpt>
<trkpt lat="40.0713751" lon="-105.2297889">
  <ele>1583.04</ele>
  <time>2026-08-28T17:51:43Z</time>
  <course>247.09</course>
  <speed>0.022360679774997897</speed>
  <fix>3d</fix>
</trkpt>
<trkpt lat="40.0713749" lon="-105.229789">
  <ele>1583.0</ele>
  <time>2026-08-28T17:51:43Z</time>
  <course>0.0</course>
  <speed>0.0</speed>
  <fix>3d</fix>
</trkpt>
<trkpt lat="40.071375" lon="-105.2297889">
  <ele>1583.04</ele>
  <time>2026-08-28T17:51:43Z</time>
  <course>247.09</course>
  <speed>0.022360679774997897</speed>
  <fix>3d</fix>
</trkpt>
<trkpt lat="40.0713749" lon="-105.229789">
  <ele>1583.0</ele>
  <time>2026-08-28T17:51:43Z</time>
  <course>0.0</course>
  <speed>0.0</speed>
  <fix>3d</fix>
</trkpt>
<trkpt lat="40.0713751" lon="-105.2297889">
  <ele>1583.04</ele>
  <time>2026-08-28T17:51:43Z</time>
  <course>247.09</course>
  <speed>0.022360679774997897</speed>
  <fix>3d</fix>
</trkpt>
<trkpt lat="40.0713749" lon="-105.229789">
  <ele>1583.0</ele>
  <time>2026-08-28T17:51:43Z</time>
  <course>0.0</course>
  <speed>0.0</speed>
  <fix>3d</fix>
</trkpt>
<trkpt lat="40.071375" lon="-105.2297889">
  <ele>1583.05</ele>
  <time>2026-08-28T17:51:43Z</time>
  <course>247.09</course>
  <speed>0.022360679774997897</speed>
  <fix>3d</fix>
</trkpt>
<trkpt lat="40.0713749" lon="-105.229789">
  <ele>1583.0</ele>
  <time>2026-08-28T17:51:43Z</time>
  <course>0.0</course>
  <speed>0.0</speed>
  <fix>3d</fix>
</trkpt>
<trkpt lat="40.0713751" lon="-105.2297889">
  <ele>1583.05</ele>
  <time>2026-08-28T17:51:43Z</time>
  <course>247.09</course>
  <speed>0.022360679774997897</speed>
  <fix>3d</fix>
</trkpt>
<trkpt lat="40.0713749" lon="-105.229789">
  <ele>1583.0</ele>
  <time>2026-08-28T17:51:43Z</time>
  <course>0.0</course>
  <speed>0.0</speed>
  <fix>3d</fix>
</trkpt>
<trkpt lat="40.071375" lon="-105.2297889">
  <ele>1583.05</ele>
  <time>2026-08-28T17:51:43Z</time>
  <course>247.09</course>
  <speed>0.022360679774997897</speed>
  <fix>3d</fix>
</trkpt>
<trkpt lat="40.0713749" lon="-105.229789">
  <ele>1583.0</ele>
  <time>2026-08-28T17:51:43Z</time>
  <course>0.0</course>
  <speed>0.0</speed>
  <fix>3d</fix>
</trkpt>
<trkpt lat="40.0713751" lon="-105.2297889">
  <ele>1583.05</ele>
  <time>2026-08-28T17:51:43Z</time>
  <course>247.09</course>
  <speed>0.022360679774997897</speed>
  <fix>3d</fix>
</trkpt>
<trkpt lat="40.0713749" lon="-105.229789">
  <ele>1583.0</ele>
  <time>2026-08-28T17:51:43Z</time>
  <course>0.0</course>
  <speed>0.0</speed>
  <fix>3d</fix>
</trkpt>
<trkpt lat="40.071375" lon="-105.2297889">
  <ele>1583.05</ele>
  <time>2026-08-28T17:51:43Z</time>
  <course>247.09</course>
  <speed>0.022360679774997897</speed>
  <fix>3d</fix>
</trkpt>
<trkpt lat="40.0713749" lon="-105.229789">
  <ele>1583.0</ele>
  <time>2026-08-28T17:51:43Z</time>
  <course>0.0</course>
  <speed>0.0</speed>
  <fix>3d</fix>
</trkpt>
<trkpt lat="40.0713751" lon="-105.2297889">
  <ele>1583.05</ele>
  <time>2026-08-28T17:51:43Z</time>
  <course>247.09</course>
  <speed>0.022360679774997897</speed>
  <fix>3d</fix>
</trkpt>
<trkpt lat="40.0713749" lon="-105.229789">
  <ele>1583.0</ele>
  <time>2026-08-28T17:51:43Z</time>
  <course>0.0</course>
  <speed>0.0</speed>
  <fix>3d</fix>
</trkpt>
<trkpt lat="40.071375" lon="-105.2297889">
  <ele>1583.06</ele>
  <time>2026-08-28T17:51:43Z</time>
  <course>247.09</course>
  <speed>0.022360679774997897</speed>
  <fix>3d</fix>
</trkpt>
<trkpt lat="40.0713749" lon="-105.229789">
  <ele>1583.0</ele>
  <time>2026-08-28T17:51:43Z</time>
  <course>0.0</course>
  <speed>0.0</speed>
  <fix>3d</fix>
</trkpt>
<trkpt lat="40.0713751" lon="-105.2297889">
  <ele>1583.06</ele>
  <time>2026-08-28T17:51:43Z</time>
  <course>247.09</course>
  <speed>0.022360679774997897</speed>
  <fix>3d</fix>
</trkpt>
<trkpt lat="40.0713749" lon="-105.229789">
  <ele>1583.0</ele>
  <time>2026-08-28T17:51:43Z</time>
  <course>0.0</course>
  <speed>0.0</speed>
  <fix>3d</fix>
</trkpt>
<trkpt lat="40.0713751" lon="-105.2297889">
  <ele>1583.06</ele>
  <time>2026-08-28T17:51:43Z</time>
  <course>247.09</course>
  <speed>0.022360679774997897</speed>
  <fix>3d</fix>
</trkpt>
<trkpt lat="40.0713749" lon="-105.229789">
  <ele>1583.0</ele>
  <time>2026-08-28T17:51:43Z</time>
  <course>0.0</course>
  <speed>0.0</speed>
  <fix>3d</fix>
</trkpt>
<trkpt lat="40.0713751" lon="-105.2297889">
  <ele>1583.06</ele>
  <time>2026-08-28T17:51:43Z</time>
  <course>247.09</course>
  <speed>0.022360679774997897</speed>
  <fix>3d</fix>
</trkpt>
<trkpt lat="40.0713749" lon="-105.229789">
  <ele>1583.0</ele>
  <time>2026-08-28T17:51:43Z</time>
  <course>0.0</course>
  <speed>0.0</speed>
  <fix>3d</fix>
</trkpt>
<trkpt lat="40.0713751" lon="-105.2297889">
  <ele>1583.07</ele>
  <time>2026-08-28T17:51:43Z</time>
  <course>247.08</course>
  <speed>0.022360679774997897</speed>
  <fix>3d</fix>
</trkpt>
<trkpt lat="40.0713749" lon="-105.229789">
  <ele>1583.0</ele>
  <time>2026-08-28T17:51:43Z</time>
  <course>0.0</course>
  <speed>0.0</speed>
  <fix>3d</fix>
</trkpt>
<trkpt lat="40.0713751" lon="-105.2297889">
  <ele>1583.07</ele>
  <time>2026-08-28T17:51:43Z</time>
  <course>247.09</course>
  <speed>0.022360679774997897</speed>
  <fix>3d</fix>
</trkpt>
<trkpt lat="40.0713749" lon="-105.229789">
  <ele>1583.0</ele>
  <time>2026-08-28T17:51:43Z</time>
  <course>0.0</course>
  <speed>0.0</speed>
  <fix>3d</fix>
</trkpt>
<trkpt lat="40.0713751" lon="-105.2297889">
  <ele>1583.07</ele>
  <time>2026-08-28T17:51:43Z</time>
  <course>247.09</course>
  <speed>0.022360679774997897</speed>
  <fix>3d</fix>
</trkpt>
<trkpt lat="40.0713749" lon="-105.229789">
  <ele>1583.0</ele>
  <time>2026-08-28T17:51:43Z</time>
  <course>0.0</course>
  <speed>0.0</speed>
  <fix>3d</fix>
</trkpt>
<trkpt lat="40.0713751" lon="-105.2297889">
  <ele>1583.08</ele>
  <time>2026-08-28T17:51:43Z</time>
  <course>247.09</course>
  <speed>0.022360679774997897</speed>
  <fix>3d</fix>
</trkpt>
<trkpt lat="40.0713749" lon="-105.229789">
  <ele>1583.0</ele>
  <time>2026-08-28T17:51:43Z</time>
  <course>0.0</course>
  <speed>0.0</speed>
  <fix>3d</fix>
</trkpt>
<trkpt lat="40.0713751" lon="-105.2297889">
  <ele>1583.08</ele>
  <time>2026-08-28T17:51:43Z</time>
  <course>247.09</course>
  <speed>0.02</speed>
  <fix>3d</fix>
</trkpt>
<trkpt lat="40.0713749" lon="-105.229789">
  <ele>1583.0</ele>
  <time>2026-08-28T17:51:43Z</time>
  <course>0.0</course>
  <speed>0.0</speed>
  <fix>3d</fix>
</trkpt>
<trkpt lat="40.0713751" lon="-105.2297889">
  <ele>1583.09</ele>
  <time>2026-08-28T17:51:43Z</time>
  <course>247.09</course>
  <speed>0.022360679774997897</speed>
  <fix>3d</fix>
</trkpt>
<trkpt lat="40.0713749" lon="-105.229789">
  <ele>1583.0</ele>
  <time>2026-08-28T17:51:43Z</time>
  <course>0.0</course>
  <speed>0.0</speed>
  <fix>3d</fix>
</trkpt>
<trkpt lat="40.071375" lon="-105.2297889">
  <ele>1583.09</ele>
  <time>2026-08-28T17:51:43Z</time>
  <course>247.09</course>
  <speed>0.02</speed>
  <fix>3d</fix>
</trkpt>
<trkpt lat="40.0713749" lon="-105.229789">
  <ele>1583.0</ele>
  <time>2026-08-28T17:51:43Z</time>
  <course>0.0</course>
  <speed>0.0</speed>
  <fix>3d</fix>
</trkpt>
<trkpt lat="40.0713751" lon="-105.2297889">
  <ele>1583.09</ele>
  <time>2026-08-28T17:51:43Z</time>
  <course>247.09</course>
  <speed>0.022360679774997897</speed>
  <fix>3d</fix>
</trkpt>
<trkpt lat="40.0713749" lon="-105.229789">
  <ele>1583.0</ele>
  <time>2026-08-28T17:51:43Z</time>
  <course>0.0</course>
  <speed>0.0</speed>
  <fix>3d</fix>
</trkpt>
<trkpt lat="40.071375" lon="-105.2297889">
  <ele>1583.09</ele>
  <time>2026-08-28T17:51:43Z</time>
  <course>247.09</course>
  <speed>0.022360679774997897</speed>
  <fix>3d</fix>
</trkpt>
<trkpt lat="40.0713749" lon="-105.229789">
  <ele>1583.0</ele>
  <time>2026-08-28T17:51:43Z</time>
  <course>0.0</course>
  <speed>0.0</speed>
  <fix>3d</fix>
</trkpt>
<trkpt lat="40.0713751" lon="-105.2297889">
  <ele>1583.08</ele>
  <time>2026-08-28T17:51:43Z</time>
  <course>247.08</course>
  <speed>0.022360679774997897</speed>
  <fix>3d</fix>
</trkpt>
<trkpt lat="40.0713749" lon="-105.229789">
  <ele>1583.0</ele>
  <time>2026-08-28T17:51:43Z</time>
  <course>0.0</course>
  <speed>0.0</speed>
  <fix>3d</fix>
</trkpt>
<trkpt lat="40.071375" lon="-105.2297889">
  <ele>1583.07</ele>
  <time>2026-08-28T17:51:43Z</time>
  <course>247.08</course>
  <speed>0.022360679774997897</speed>
  <fix>3d</fix>
</trkpt>
<trkpt lat="40.0713749" lon="-105.229789">
  <ele>1583.0</ele>
  <time>2026-08-28T17:51:43Z</time>
  <course>0.0</course>
  <speed>0.0</speed>
  <fix>3d</fix>
</trkpt>
<trkpt lat="40.0713751" lon="-105.2297889">
  <ele>1583.06</ele>
  <time>2026-08-28T17:51:43Z</time>
  <course>247.09</course>
  <speed>0.022360679774997897</speed>
  <fix>3d</fix>
</trkpt>
<trkpt lat="40.0713749" lon="-105.229789">
  <ele>1583.0</ele>
  <time>2026-08-28T17:51:43Z</time>
  <course>0.0</course>
  <speed>0.0</speed>
  <fix>3d</fix>
</trkpt>
<trkpt lat="40.071375" lon="-105.2297889">
  <ele>1583.06</ele>
  <time>2026-08-28T17:51:43Z</time>
  <course>247.08</course>
  <speed>0.022360679774997897</speed>
  <fix>3d</fix>
</trkpt>
<trkpt lat="40.0713749" lon="-105.229789">
  <ele>1583.0</ele>
  <time>2026-08-28T17:51:43Z</time>
  <course>0.0</course>
  <speed>0.0</speed>
  <fix>3d</fix>
</trkpt>
<trkpt lat="40.0713751" lon="-105.2297889">
  <ele>1583.05</ele>
  <time>2026-08-28T17:51:43Z</time>
  <course>247.08</course>
  <speed>0.022360679774997897</speed>
  <fix>3d</fix>
</trkpt>
<trkpt lat="40.0713749" lon="-105.229789">
  <ele>1583.0</ele>
  <time>2026-08-28T17:51:43Z</time>
  <course>0.0</course>
  <speed>0.0</speed>
  <fix>3d</fix>
</trkpt>
<trkpt lat="40.071375" lon="-105.2297889">
  <ele>1583.05</ele>
  <time>2026-08-28T17:51:43Z</time>
  <course>247.08</course>
  <speed>0.022360679774997897</speed>
  <fix>3d</fix>
</trkpt>
<trkpt lat="40.0713749" lon="-105.229789">
  <ele>1583.0</ele>
  <time>2026-08-28T17:51:43Z</time>
  <course>0.0</course>
  <speed>0.0</speed>
  <fix>3d</fix>
</trkpt>
<trkpt lat="40.0713751" lon="-105.2297889">
  <ele>1583.04</ele>
  <time>2026-08-28T17:51:43Z</time>
  <course>247.08</course>
  <speed>0.022360679774997897</speed>
  <fix>3d</fix>
</trkpt>
<trkpt lat="40.0713749" lon="-105.229789">
  <ele>1583.0</ele>
  <time>2026-08-28T17:51:43Z</time>
  <course>0.0</course>
  <speed>0.0</speed>
  <fix>3d</fix>
</trkpt>
<trkpt lat="40.071375" lon="-105.2297889">
  <ele>1583.03</ele>
  <time>2026-08-28T17:51:43Z</time>
  <course>247.08</course>
  <speed>0.022360679774997897</speed>
  <fix>3d</fix>
</trkpt>
<trkpt lat="40.0713749" lon="-105.229789">
  <ele>1583.0</ele>
  <time>2026-08-28T17:51:43Z</time>
  <course>0.0</course>
  <speed>0.0</speed>
  <fix>3d</fix>
</trkpt>
<trkpt lat="40.0713751" lon="-105.2297889">
  <ele>1583.03</ele>
  <time>2026-08-28T17:51:43Z</time>
  <course>247.08</course>
  <speed>0.022360679774997897</speed>
  <fix>3d</fix>
</trkpt>
<trkpt lat="40.0713749" lon="-105.229789">
  <ele>1583.0</ele>
  <time>2026-08-28T17:51:43Z</time>
  <course>0.0</course>
  <speed>0.0</speed>
  <fix>3d</fix>
</trkpt>
<trkpt lat="40.0713751" lon="-105.2297889">
  <ele>1583.02</ele>
  <time>2026-08-28T17:51:43Z</time>
  <course>247.08</course>
  <speed>0.022360679774997897</speed>
  <fix>3d</fix>
</trkpt>
<trkpt lat="40.0713749" lon="-105.229789">
  <ele>1583.0</ele>
  <time>2026-08-28T17:51:43Z</time>
  <course>0.0</course>
  <speed>0.0</speed>
  <fix>3d</fix>
</trkpt>
<trkpt lat="40.0713751" lon="-105.2297889">
  <ele>1583.02</ele>
  <time>2026-08-28T17:51:43Z</time>
  <course>247.08</course>
  <speed>0.022360679774997897</speed>
  <fix>3d</fix>
</trkpt>
<trkpt lat="40.0713749" lon="-105.229789">
  <ele>1583.0</ele>
  <time>2026-08-28T17:51:43Z</time>
  <course>0.0</course>
  <speed>0.0</speed>
  <fix>3d</fix>
</trkpt>
<trkpt lat="40.0713751" lon="-105.2297889">
  <ele>1583.02</ele>
  <time>2026-08-28T17:51:43Z</time>
  <course>247.08</course>
  <speed>0.022360679774997897</speed>
  <fix>3d</fix>
</trkpt>
<trkpt lat="40.0713749" lon="-105.229789">
  <ele>1583.0</ele>
  <time>2026-08-28T17:51:43Z</time>
  <course>0.0</course>
  <speed>0.0</speed>
  <fix>3d</fix>
</trkpt>
<trkpt lat="40.0713751" lon="-105.2297889">
  <ele>1583.01</ele>
  <time>2026-08-28T17:51:43Z</time>
  <course>247.08</course>
  <speed>0.022360679774997897</speed>
  <fix>3d</fix>
</trkpt>
<trkpt lat="40.0713749" lon="-105.229789">
  <ele>1583.0</ele>
  <time>2026-08-28T17:51:43Z</time>
  <course>0.0</course>
  <speed>0.0</speed>
  <fix>3d</fix>
</trkpt>
<trkpt lat="40.0713751" lon="-105.2297889">
  <ele>1583.01</ele>
  <time>2026-08-28T17:51:43Z</time>
  <course>247.08</course>
  <speed>0.022360679774997897</speed>
  <fix>3d</fix>
</trkpt>
<trkpt lat="40.0713749" lon="-105.229789">
  <ele>1583.0</ele>
  <time>2026-08-28T17:51:43Z</time>
  <course>0.0</course>
  <speed>0.0</speed>
  <fix>3d</fix>
</trkpt>
<trkpt lat="40.0713751" lon="-105.2297889">
  <ele>1583.0</ele>
  <time>2026-08-28T17:51:43Z</time>
  <course>247.08</course>
  <speed>0.022360679774997897</speed>
  <fix>3d</fix>
</trkpt>
<trkpt lat="40.0713749" lon="-105.229789">
  <ele>1583.0</ele>
  <time>2026-08-28T17:51:43Z</time>
  <course>0.0</course>
  <speed>0.0</speed>
  <fix>3d</fix>
</trkpt>
<trkpt lat="40.0713751" lon="-105.2297889">
  <ele>1583.0</ele>
  <time>2026-08-28T17:51:43Z</time>
  <course>247.08</course>
  <speed>0.022360679774997897</speed>
  <fix>3d</fix>
</trkpt>
<trkpt lat="40.0713749" lon="-105.229789">
  <ele>1583.0</ele>
  <time>2026-08-28T17:51:43Z</time>
  <course>0.0</course>
  <speed>0.0</speed>
  <fix>3d</fix>
</trkpt>
<trkpt lat="40.0713751" lon="-105.2297889">
  <ele>1582.99</ele>
  <time>2026-08-28T17:51:43Z</time>
  <course>247.08</course>
  <speed>0.022360679774997897</speed>
  <fix>3d</fix>
</trkpt>
<trkpt lat="40.0713749" lon="-105.229789">
  <ele>1583.0</ele>
  <time>2026-08-28T17:51:43Z</time>
  <course>0.0</course>
  <speed>0.0</speed>
  <fix>3d</fix>
</trkpt>
<trkpt lat="40.0713751" lon="-105.2297889">
  <ele>1582.99</ele>
  <time>2026-08-28T17:51:43Z</time>
  <course>247.08</course>
  <speed>0.022360679774997897</speed>
  <fix>3d</fix>
</trkpt>
<trkpt lat="40.0713749" lon="-105.229789">
  <ele>1583.0</ele>
  <time>2026-08-28T17:51:43Z</time>
  <course>0.0</course>
  <speed>0.0</speed>
  <fix>3d</fix>
</trkpt>
<trkpt lat="40.0713751" lon="-105.2297889">
  <ele>1582.98</ele>
  <time>2026-08-28T17:51:43Z</time>
  <course>247.08</course>
  <speed>0.022360679774997897</speed>
  <fix>3d</fix>
</trkpt>
<trkpt lat="40.0713749" lon="-105.229789">
  <ele>1583.0</ele>
  <time>2026-08-28T17:51:43Z</time>
  <course>0.0</course>
  <speed>0.0</speed>
  <fix>3d</fix>
</trkpt>
<trkpt lat="40.071375" lon="-105.2297889">
  <ele>1582.98</ele>
  <time>2026-08-28T17:51:43Z</time>
  <course>247.08</course>
  <speed>0.022360679774997897</speed>
  <fix>3d</fix>
</trkpt>
<trkpt lat="40.0713749" lon="-105.229789">
  <ele>1583.0</ele>
  <time>2026-08-28T17:51:43Z</time>
  <course>0.0</course>
  <speed>0.0</speed>
  <fix>3d</fix>
</trkpt>
<trkpt lat="40.0713751" lon="-105.2297889">
  <ele>1582.98</ele>
  <time>2026-08-28T17:51:43Z</time>
  <course>247.08</course>
  <speed>0.022360679774997897</speed>
  <fix>3d</fix>
</trkpt>
<trkpt lat="40.0713749" lon="-105.229789">
  <ele>1583.0</ele>
  <time>2026-08-28T17:51:43Z</time>
  <course>0.0</course>
  <speed>0.0</speed>
  <fix>3d</fix>
</trkpt>
<trkpt lat="40.071375" lon="-105.2297889">
  <ele>1582.98</ele>
  <time>2026-08-28T17:51:43Z</time>
  <course>247.08</course>
  <speed>0.022360679774997897</speed>
  <fix>3d</fix>
</trkpt>
<trkpt lat="40.0713749" lon="-105.229789">
  <ele>1583.0</ele>
  <time>2026-08-28T17:51:43Z</time>
  <course>0.0</course>
  <speed>0.0</speed>
  <fix>3d</fix>
</trkpt>
<trkpt lat="40.0713751" lon="-105.2297889">
  <ele>1582.99</ele>
  <time>2026-08-28T17:51:43Z</time>
  <course>247.08</course>
  <speed>0.022360679774997897</speed>
  <fix>3d</fix>
</trkpt>
<trkpt lat="40.0713749" lon="-105.229789">
  <ele>1583.0</ele>
  <time>2026-08-28T17:51:43Z</time>
  <course>0.0</course>
  <speed>0.0</speed>
  <fix>3d</fix>
</trkpt>
<trkpt lat="40.071375" lon="-105.2297889">
  <ele>1582.99</ele>
  <time>2026-08-28T17:51:43Z</time>
  <course>247.08</course>
  <speed>0.02</speed>
  <fix>3d</fix>
</trkpt>
<trkpt lat="40.0713749" lon="-105.229789">
  <ele>1583.0</ele>
  <time>2026-08-28T17:51:43Z</time>
  <course>0.0</course>
  <speed>0.0</speed>
  <fix>3d</fix>
</trkpt>
<trkpt lat="40.0713751" lon="-105.2297889">
  <ele>1582.99</ele>
  <time>2026-08-28T17:51:43Z</time>
  <course>247.08</course>
  <speed>0.022360679774997897</speed>
  <fix>3d</fix>
</trkpt>
<trkpt lat="40.0713749" lon="-105.229789">
  <ele>1583.0</ele>
  <time>2026-08-28T17:51:43Z</time>
  <course>0.0</course>
  <speed>0.0</speed>
  <fix>3d</fix>
</trkpt>
<trkpt lat="40.071375" lon="-105.2297889">
  <ele>1583.0</ele>
  <time>2026-08-28T17:51:43Z</time>
  <course>247.08</course>
  <speed>0.022360679774997897</speed>
  <fix>3d</fix>
</trkpt>
<trkpt lat="40.0713749" lon="-105.229789">
  <ele>1583.0</ele>
  <time>2026-08-28T17:51:43Z</time>
  <course>0.0</course>
  <speed>0.0</speed>
  <fix>3d</fix>
</trkpt>
<trkpt lat="40.0713751" lon="-105.2297889">
  <ele>1583.0</ele>
  <time>2026-08-28T17:51:43Z</time>
  <course>247.08</course>
  <speed>0.022360679774997897</speed>
  <fix>3d</fix>
</trkpt>
<trkpt lat="40.0713749" lon="-105.229789">
  <ele>1583.0</ele>
  <time>2026-08-28T17:51:43Z</time>
  <course>0.0</course>
  <speed>0.0</speed>
  <fix>3d</fix>
</trkpt>
<trkpt lat="40.071375" lon="-105.2297889">
  <ele>1583.01</ele>
  <time>2026-08-28T17:51:43Z</time>
  <course>247.08</course>
  <speed>0.022360679774997897</speed>
  <fix>3d</fix>
</trkpt>
<trkpt lat="40.0713749" lon="-105.229789">
  <ele>1583.0</ele>
  <time>2026-08-28T17:51:43Z</time>
  <course>0.0</course>
  <speed>0.0</speed>
  <fix>3d</fix>
</trkpt>
<trkpt lat="40.0713751" lon="-105.2297889">
  <ele>1583.01</ele>
  <time>2026-08-28T17:51:43Z</time>
  <course>247.08</course>
  <speed>0.022360679774997897</speed>
  <fix>3d</fix>
</trkpt>
<trkpt lat="40.0713749" lon="-105.229789">
  <ele>1583.0</ele>
  <time>2026-08-28T17:51:43Z</time>
  <course>0.0</course>
  <speed>0.0</speed>
  <fix>3d</fix>
</trkpt>
<trkpt lat="40.071375" lon="-105.2297889">
  <ele>1583.01</ele>
  <time>2026-08-28T17:51:43Z</time>
  <course>247.08</course>
  <speed>0.022360679774997897</speed>
  <fix>3d</fix>
</trkpt>
<trkpt lat="40.0713749" lon="-105.229789">
  <ele>1583.0</ele>
  <time>2026-08-28T17:51:43Z</time>
  <course>0.0</course>
  <speed>0.0</speed>
  <fix>3d</fix>
</trkpt>
<trkpt lat="40.0713751" lon="-105.2297889">
  <ele>1583.01</ele>
  <time>2026-08-28T17:51:43Z</time>
  <course>247.08</course>
  <speed>0.022360679774997897</speed>
  <fix>3d</fix>
</trkpt>
<trkpt lat="40.0713749" lon="-105.229789">
  <ele>1583.0</ele>
  <time>2026-08-28T17:51:43Z</time>
  <course>0.0</course>
  <speed>0.0</speed>
  <fix>3d</fix>
</trkpt>
<trkpt lat="40.0713751" lon="-105.2297889">
  <ele>1583.01</ele>
  <time>2026-08-28T17:51:43Z</time>
  <course>247.08</course>
  <speed>0.022360679774997897</speed>
  <fix>3d</fix>
</trkpt>
<trkpt lat="40.0713749" lon="-105.229789">
  <ele>1583.0</ele>
  <time>2026-08-28T17:51:43Z</time>
  <course>0.0</course>
  <speed>0.0</speed>
  <fix>3d</fix>
</trkpt>
<trkpt lat="40.0713751" lon="-105.2297889">
  <ele>1583.0</ele>
  <time>2026-08-28T17:51:43Z</time>
  <course>247.08</course>
  <speed>0.022360679774997897</speed>
  <fix>3d</fix>
</trkpt>
<trkpt lat="40.0713749" lon="-105.229789">
  <ele>1583.0</ele>
  <time>2026-08-28T17:51:43Z</time>
  <course>0.0</course>
  <speed>0.0</speed>
  <fix>3d</fix>
</trkpt>
<trkpt lat="40.0713751" lon="-105.2297889">
  <ele>1583.0</ele>
  <time>2026-08-28T17:51:43Z</time>
  <course>247.08</course>
  <speed>0.022360679774997897</speed>
  <fix>3d</fix>
</trkpt>
<trkpt lat="40.0713749" lon="-105.229789">
  <ele>1583.0</ele>
  <time>2026-08-28T17:51:43Z</time>
  <course>0.0</course>
  <speed>0.0</speed>
  <fix>3d</fix>
</trkpt>
<trkpt lat="40.0713751" lon="-105.2297889">
  <ele>1582.99</ele>
  <time>2026-08-28T17:51:43Z</time>
  <course>247.08</course>
  <speed>0.022360679774997897</speed>
  <fix>3d</fix>
</trkpt>
<trkpt lat="40.0713749" lon="-105.229789">
  <ele>1583.0</ele>
  <time>2026-08-28T17:51:43Z</time>
  <course>0.0</course>
  <speed>0.0</speed>
  <fix>3d</fix>
</trkpt>
<trkpt lat="40.0713751" lon="-105.2297889">
  <ele>1582.99</ele>
  <time>2026-08-28T17:51:43Z</time>
  <course>247.08</course>
  <speed>0.022360679774997897</speed>
  <fix>3d</fix>
</trkpt>
<trkpt lat="40.0713749" lon="-105.229789">
  <ele>1583.0</ele>
  <time>2026-08-28T17:51:43Z</time>
  <course>0.0</course>
  <speed>0.0</speed>
  <fix>3d</fix>
</trkpt>
<trkpt lat="40.0713751" lon="-105.2297889">
  <ele>1582.98</ele>
  <time>2026-08-28T17:51:43Z</time>
  <course>247.08</course>
  <speed>0.022360679774997897</speed>
  <fix>3d</fix>
</trkpt>
<trkpt lat="40.0713749" lon="-105.229789">
  <ele>1583.0</ele>
  <time>2026-08-28T17:51:43Z</time>
  <course>0.0</course>
  <speed>0.0</speed>
  <fix>3d</fix>
</trkpt>
<trkpt lat="40.0713751" lon="-105.2297889">
  <ele>1582.98</ele>
  <time>2026-08-28T17:51:43Z</time>
  <course>247.09</course>
  <speed>0.022360679774997897</speed>
  <fix>3d</fix>
</trkpt>
<trkpt lat="40.0713749" lon="-105.229789">
  <ele>1583.0</ele>
  <time>2026-08-28T17:51:43Z</time>
  <course>0.0</course>
  <speed>0.0</speed>
  <fix>3d</fix>
</trkpt>
<trkpt lat="40.0713751" lon="-105.2297889">
  <ele>1582.98</ele>
  <time>2026-08-28T17:51:43Z</time>
  <course>247.09</course>
  <speed>0.022360679774997897</speed>
  <fix>3d</fix>
</trkpt>
<trkpt lat="40.0713749" lon="-105.229789">
  <ele>1583.0</ele>
  <time>2026-08-28T17:51:43Z</time>
  <course>0.0</course>
  <speed>0.0</speed>
  <fix>3d</fix>
</trkpt>
<trkpt lat="40.071375" lon="-105.2297889">
  <ele>1582.97</ele>
  <time>2026-08-28T17:51:43Z</time>
  <course>247.09</course>
  <speed>0.022360679774997897</speed>
  <fix>3d</fix>
</trkpt>
<trkpt lat="40.0713749" lon="-105.229789">
  <ele>1583.0</ele>
  <time>2026-08-28T17:51:43Z</time>
  <course>0.0</course>
  <speed>0.0</speed>
  <fix>3d</fix>
</trkpt>
<trkpt lat="40.0713751" lon="-105.2297889">
  <ele>1582.97</ele>
  <time>2026-08-28T17:51:43Z</time>
  <course>247.09</course>
  <speed>0.022360679774997897</speed>
  <fix>3d</fix>
</trkpt>
<trkpt lat="40.0713749" lon="-105.229789">
  <ele>1583.0</ele>
  <time>2026-08-28T17:51:43Z</time>
  <course>0.0</course>
  <speed>0.0</speed>
  <fix>3d</fix>
</trkpt>
<trkpt lat="40.071375" lon="-105.2297889">
  <ele>1582.97</ele>
  <time>2026-08-28T17:51:43Z</time>
  <course>247.09</course>
  <speed>0.022360679774997897</speed>
  <fix>3d</fix>
</trkpt>
<trkpt lat="40.0713749" lon="-105.229789">
  <ele>1583.0</ele>
  <time>2026-08-28T17:51:43Z</time>
  <course>0.0</course>
  <speed>0.0</speed>
  <fix>3d</fix>
</trkpt>
<trkpt lat="40.0713751" lon="-105.2297889">
  <ele>1582.96</ele>
  <time>2026-08-28T17:51:43Z</time>
  <course>247.09</course>
  <speed>0.022360679774997897</speed>
  <fix>3d</fix>
</trkpt>
<trkpt lat="40.0713749" lon="-105.229789">
  <ele>1583.0</ele>
  <time>2026-08-28T17:51:43Z</time>
  <course>0.0</course>
  <speed>0.0</speed>
  <fix>3d</fix>
</trkpt>
<trkpt lat="40.071375" lon="-105.2297889">
  <ele>1582.96</ele>
  <time>2026-08-28T17:51:43Z</time>
  <course>247.09</course>
  <speed>0.022360679774997897</speed>
  <fix>3d</fix>
</trkpt>
<trkpt lat="40.0713749" lon="-105.229789">
  <ele>1583.0</ele>
  <time>2026-08-28T17:51:43Z</time>
  <course>0.0</course>
  <speed>0.0</speed>
  <fix>3d</fix>
</trkpt>
<trkpt lat="40.0713751" lon="-105.2297889">
  <ele>1582.95</ele>
  <time>2026-08-28T17:51:43Z</time>
  <course>247.09</course>
  <speed>0.022360679774997897</speed>
  <fix>3d</fix>
</trkpt>
<trkpt lat="40.0713749" lon="-105.229789">
  <ele>1583.0</ele>
  <time>2026-08-28T17:51:43Z</time>
  <course>0.0</course>
  <speed>0.0</speed>
  <fix>3d</fix>
</trkpt>
<trkpt lat="40.071375" lon="-105.2297889">
  <ele>1582.95</ele>
  <time>2026-08-28T17:51:43Z</time>
  <course>247.09</course>
  <speed>0.022360679774997897</speed>
  <fix>3d</fix>
</trkpt>
<trkpt lat="40.0713749" lon="-105.229789">
  <ele>1583.0</ele>
  <time>2026-08-28T17:51:43Z</time>
  <course>0.0</course>
  <speed>0.0</speed>
  <fix>3d</fix>
</trkpt>
<trkpt lat="40.0713751" lon="-105.2297889">
  <ele>1582.94</ele>
  <time>2026-08-28T17:51:43Z</time>
  <course>247.09</course>
  <speed>0.022360679774997897</speed>
  <fix>3d</fix>
</trkpt>
<trkpt lat="40.0713749" lon="-105.229789">
  <ele>1583.0</ele>
  <time>2026-08-28T17:51:43Z</time>
  <course>0.0</course>
  <speed>0.0</speed>
  <fix>3d</fix>
</trkpt>
<trkpt lat="40.071375" lon="-105.2297889">
  <ele>1582.94</ele>
  <time>2026-08-28T17:51:43Z</time>
  <course>247.09</course>
  <speed>0.022360679774997897</speed>
  <fix>3d</fix>
</trkpt>
<trkpt lat="40.0713749" lon="-105.229789">
  <ele>1583.0</ele>
  <time>2026-08-28T17:51:43Z</time>
  <course>0.0</course>
  <speed>0.0</speed>
  <fix>3d</fix>
</trkpt>
<trkpt lat="40.0713751" lon="-105.2297889">
  <ele>1582.94</ele>
  <time>2026-08-28T17:51:43Z</time>
  <course>247.09</course>
  <speed>0.022360679774997897</speed>
  <fix>3d</fix>
</trkpt>
<trkpt lat="40.0713749" lon="-105.229789">
  <ele>1583.0</ele>
  <time>2026-08-28T17:51:43Z</time>
  <course>0.0</course>
  <speed>0.0</speed>
  <fix>3d</fix>
</trkpt>
<trkpt lat="40.071375" lon="-105.2297889">
  <ele>1582.94</ele>
  <time>2026-08-28T17:51:43Z</time>
  <course>247.09</course>
  <speed>0.022360679774997897</speed>
  <fix>3d</fix>
</trkpt>
<trkpt lat="40.0713749" lon="-105.229789">
  <ele>1583.0</ele>
  <time>2026-08-28T17:51:43Z</time>
  <course>0.0</course>
  <speed>0.0</speed>
  <fix>3d</fix>
</trkpt>
<trkpt lat="40.0713751" lon="-105.2297889">
  <ele>1582.93</ele>
  <time>2026-08-28T17:51:43Z</time>
  <course>247.09</course>
  <speed>0.022360679774997897</speed>
  <fix>3d</fix>
</trkpt>
<trkpt lat="40.0713749" lon="-105.229789">
  <ele>1583.0</ele>
  <time>2026-08-28T17:51:43Z</time>
  <course>0.0</course>
  <speed>0.0</speed>
  <fix>3d</fix>
</trkpt>
<trkpt lat="40.0713751" lon="-105.2297889">
  <ele>1582.94</ele>
  <time>2026-08-28T17:51:43Z</time>
  <course>247.09</course>
  <speed>0.022360679774997897</speed>
  <fix>3d</fix>
</trkpt>
<trkpt lat="40.0713749" lon="-105.229789">
  <ele>1583.0</ele>
  <time>2026-08-28T17:51:43Z</time>
  <course>0.0</course>
  <speed>0.0</speed>
  <fix>3d</fix>
</trkpt>
<trkpt lat="40.0713751" lon="-105.2297889">
  <ele>1582.94</ele>
  <time>2026-08-28T17:51:43Z</time>
  <course>247.09</course>
  <speed>0.022360679774997897</speed>
  <fix>3d</fix>
</trkpt>
<trkpt lat="40.0713749" lon="-105.229789">
  <ele>1583.0</ele>
  <time>2026-08-28T17:51:43Z</time>
  <course>0.0</course>
  <speed>0.0</speed>
  <fix>3d</fix>
</trkpt>
<trkpt lat="40.0713751" lon="-105.2297889">
  <ele>1582.94</ele>
  <time>2026-08-28T17:51:43Z</time>
  <course>247.09</course>
  <speed>0.022360679774997897</speed>
  <fix>3d</fix>
</trkpt>
<trkpt lat="40.0713749" lon="-105.229789">
  <ele>1583.0</ele>
  <time>2026-08-28T17:51:43Z</time>
  <course>0.0</course>
  <speed>0.0</speed>
  <fix>3d</fix>
</trkpt>
<trkpt lat="40.0713751" lon="-105.2297889">
  <ele>1582.95</ele>
  <time>2026-08-28T17:51:43Z</time>
  <course>247.09</course>
  <speed>0.022360679774997897</speed>
  <fix>3d</fix>
</trkpt>
<trkpt lat="40.0713749" lon="-105.229789">
  <ele>1583.0</ele>
  <time>2026-08-28T17:51:43Z</time>
  <course>0.0</course>
  <speed>0.0</speed>
  <fix>3d</fix>
</trkpt>
<trkpt lat="40.0713751" lon="-105.2297889">
  <ele>1582.95</ele>
  <time>2026-08-28T17:51:43Z</time>
  <course>247.09</course>
  <speed>0.022360679774997897</speed>
  <fix>3d</fix>
</trkpt>
<trkpt lat="40.0713749" lon="-105.229789">
  <ele>1583.0</ele>
  <time>2026-08-28T17:51:43Z</time>
  <course>0.0</course>
  <speed>0.0</speed>
  <fix>3d</fix>
</trkpt>
<trkpt lat="40.0713751" lon="-105.2297889">
  <ele>1582.96</ele>
  <time>2026-08-28T17:51:43Z</time>
  <course>247.09</course>
  <speed>0.022360679774997897</speed>
  <fix>3d</fix>
</trkpt>
<trkpt lat="40.0713749" lon="-105.229789">
  <ele>1583.0</ele>
  <time>2026-08-28T17:51:43Z</time>
  <course>0.0</course>
  <speed>0.0</speed>
  <fix>3d</fix>
</trkpt>
<trkpt lat="40.0713751" lon="-105.2297889">
  <ele>1582.96</ele>
  <time>2026-08-28T17:51:43Z</time>
  <course>247.09</course>
  <speed>0.022360679774997897</speed>
  <fix>3d</fix>
</trkpt>
<trkpt lat="40.0713749" lon="-105.229789">
  <ele>1583.0</ele>
  <time>2026-08-28T17:51:43Z</time>
  <course>0.0</course>
  <speed>0.0</speed>
  <fix>3d</fix>
</trkpt>
<trkpt lat="40.0713751" lon="-105.2297889">
  <ele>1582.96</ele>
  <time>2026-08-28T17:51:43Z</time>
  <course>247.09</course>
  <speed>0.022360679774997897</speed>
  <fix>3d</fix>
</trkpt>
<trkpt lat="40.0713749" lon="-105.229789">
  <ele>1583.0</ele>
  <time>2026-08-28T17:51:43Z</time>
  <course>0.0</course>
  <speed>0.0</speed>
  <fix>3d</fix>
</trkpt>
<trkpt lat="40.0713751" lon="-105.2297889">
  <ele>1582.96</ele>
  <time>2026-08-28T17:51:43Z</time>
  <course>247.09</course>
  <speed>0.022360679774997897</speed>
  <fix>3d</fix>
</trkpt>
<trkpt lat="40.0713749" lon="-105.229789">
  <ele>1583.0</ele>
  <time>2026-08-28T17:51:43Z</time>
  <course>0.0</course>
  <speed>0.0</speed>
  <fix>3d</fix>
</trkpt>
<trkpt lat="40.0713751" lon="-105.2297889">
  <ele>1582.96</ele>
  <time>2026-08-28T17:51:43Z</time>
  <course>247.09</course>
  <speed>0.022360679774997897</speed>
  <fix>3d</fix>
</trkpt>
<trkpt lat="40.0713749" lon="-105.229789">
  <ele>1583.0</ele>
  <time>2026-08-28T17:51:43Z</time>
  <course>0.0</course>
  <speed>0.0</speed>
  <fix>3d</fix>
</trkpt>
<trkpt lat="40.071375" lon="-105.2297889">
  <ele>1582.96</ele>
  <time>2026-08-28T17:51:43Z</time>
  <course>247.09</course>
  <speed>0.022360679774997897</speed>
  <fix>3d</fix>
</trkpt>
<trkpt lat="40.0713749" lon="-105.229789">
  <ele>1583.0</ele>
  <time>2026-08-28T17:51:43Z</time>
  <course>0.0</course>
  <speed>0.0</speed>
  <fix>3d</fix>
</trkpt>
<trkpt lat="40.0713751" lon="-105.2297889">
  <ele>1582.96</ele>
  <time>2026-08-28T17:51:43Z</time>
  <course>247.09</course>
  <speed>0.022360679774997897</speed>
  <fix>3d</fix>
</trkpt>
<trkpt lat="40.0713749" lon="-105.229789">
  <ele>1583.0</ele>
  <time>2026-08-28T17:51:43Z</time>
  <course>0.0</course>
  <speed>0.0</speed>
  <fix>3d</fix>
</trkpt>
<trkpt lat="40.071375" lon="-105.2297889">
  <ele>1582.96</ele>
  <time>2026-08-28T17:51:43Z</time>
  <course>247.09</course>
  <speed>0.022360679774997897</speed>
  <fix>3d</fix>
</trkpt>
<trkpt lat="40.0713749" lon="-105.229789">
  <ele>1583.0</ele>
  <time>2026-08-28T17:51:43Z</time>
  <course>0.0</course>
  <speed>0.0</speed>
  <fix>3d</fix>
</trkpt>
<trkpt lat="40.0713751" lon="-105.2297889">
  <ele>1582.95</ele>
  <time>2026-08-28T17:51:43Z</time>
  <course>247.09</course>
  <speed>0.022360679774997897</speed>
  <fix>3d</fix>
</trkpt>
<trkpt lat="40.0713749" lon="-105.229789">
  <ele>1583.0</ele>
  <time>2026-08-28T17:51:43Z</time>
  <course>0.0</course>
  <speed>0.0</speed>
  <fix>3d</fix>
</trkpt>
<trkpt lat="40.071375" lon="-105.2297889">
  <ele>1582.95</ele>
  <time>2026-08-28T17:51:43Z</time>
  <course>247.09</course>
  <speed>0.022360679774997897</speed>
  <fix>3d</fix>
</trkpt>
<trkpt lat="40.0713749" lon="-105.229789">
  <ele>1583.0</ele>
  <time>2026-08-28T17:51:43Z</time>
  <course>0.0</course>
  <speed>0.0</speed>
  <fix>3d</fix>
</trkpt>
<trkpt lat="40.0713751" lon="-105.2297889">
  <ele>1582.94</ele>
  <time>2026-08-28T17:51:43Z</time>
  <course>247.09</course>
  <speed>0.022360679774997897</speed>
  <fix>3d</fix>
</trkpt>
<trkpt lat="40.0713749" lon="-105.229789">
  <ele>1583.0</ele>
  <time>2026-08-28T17:51:43Z</time>
  <course>0.0</course>
  <speed>0.0</speed>
  <fix>3d</fix>
</trkpt>
<trkpt lat="40.071375" lon="-105.2297889">
  <ele>1582.94</ele>
  <time>2026-08-28T17:51:43Z</time>
  <course>247.09</course>
  <speed>0.022360679774997897</speed>
  <fix>3d</fix>
</trkpt>
<trkpt lat="40.0713749" lon="-105.229789">
  <ele>1583.0</ele>
  <time>2026-08-28T17:51:43Z</time>
  <course>0.0</course>
  <speed>0.0</speed>
  <fix>3d</fix>
</trkpt>
<trkpt lat="40.0713751" lon="-105.2297889">
  <ele>1582.94</ele>
  <time>2026-08-28T17:51:43Z</time>
  <course>247.09</course>
  <speed>0.022360679774997897</speed>
  <fix>3d</fix>
</trkpt>
<trkpt lat="40.0713749" lon="-105.229789">
  <ele>1583.0</ele>
  <time>2026-08-28T17:51:43Z</time>
  <course>0.0</course>
  <speed>0.0</speed>
  <fix>3d</fix>
</trkpt>
<trkpt lat="40.0713751" lon="-105.2297889">
  <ele>1582.94</ele>
  <time>2026-08-28T17:51:43Z</time>
  <course>247.09</course>
  <speed>0.022360679774997897</speed>
  <fix>3d</fix>
</trkpt>
<trkpt lat="40.0713749" lon="-105.229789">
  <ele>1583.0</ele>
  <time>2026-08-28T17:51:43Z</time>
  <course>0.0</course>
  <speed>0.0</speed>
  <fix>3d</fix>
</trkpt>
<trkpt lat="40.0713751" lon="-105.2297889">
  <ele>1582.95</ele>
  <time>2026-08-28T17:51:43Z</time>
  <course>247.09</course>
  <speed>0.022360679774997897</speed>
  <fix>3d</fix>
</trkpt>
<trkpt lat="40.0713749" lon="-105.229789">
  <ele>1583.0</ele>
  <time>2026-08-28T17:51:43Z</time>
  <course>0.0</course>
  <speed>0.0</speed>
  <fix>3d</fix>
</trkpt>
<trkpt lat="40.0713751" lon="-105.2297889">
  <ele>1582.95</ele>
  <time>2026-08-28T17:51:43Z</time>
  <course>247.09</course>
  <speed>0.022360679774997897</speed>
  <fix>3d</fix>
</trkpt>
<trkpt lat="40.0713749" lon="-105.229789">
  <ele>1583.0</ele>
  <time>2026-08-28T17:51:43Z</time>
  <course>0.0</course>
  <speed>0.0</speed>
  <fix>3d</fix>
</trkpt>
<trkpt lat="40.0713751" lon="-105.2297889">
  <ele>1582.96</ele>
  <time>2026-08-28T17:51:43Z</time>
  <course>247.09</course>
  <speed>0.022360679774997897</speed>
  <fix>3d</fix>
</trkpt>
<trkpt lat="40.0713749" lon="-105.229789">
  <ele>1583.0</ele>
  <time>2026-08-28T17:51:43Z</time>
  <course>0.0</course>
  <speed>0.0</speed>
  <fix>3d</fix>
</trkpt>
<trkpt lat="40.0713751" lon="-105.2297889">
  <ele>1582.97</ele>
  <time>2026-08-28T17:51:43Z</time>
  <course>247.09</course>
  <speed>0.022360679774997897</speed>
  <fix>3d</fix>
</trkpt>
<trkpt lat="40.0713749" lon="-105.229789">
  <ele>1583.0</ele>
  <time>2026-08-28T17:51:43Z</time>
  <course>0.0</course>
  <speed>0.0</speed>
  <fix>3d</fix>
</trkpt>
<trkpt lat="40.0713751" lon="-105.2297889">
  <ele>1582.97</ele>
  <time>2026-08-28T17:51:43Z</time>
  <course>247.09</course>
  <speed>0.022360679774997897</speed>
  <fix>3d</fix>
</trkpt>
<trkpt lat="40.0713749" lon="-105.229789">
  <ele>1583.0</ele>
  <time>2026-08-28T17:51:43Z</time>
  <course>0.0</course>
  <speed>0.0</speed>
  <fix>3d</fix>
</trkpt>
<trkpt lat="40.0713751" lon="-105.2297889">
  <ele>1582.98</ele>
  <time>2026-08-28T17:51:43Z</time>
  <course>247.09</course>
  <speed>0.022360679774997897</speed>
  <fix>3d</fix>
</trkpt>
<trkpt lat="40.0713749" lon="-105.229789">
  <ele>1583.0</ele>
  <time>2026-08-28T17:51:43Z</time>
  <course>0.0</course>
  <speed>0.0</speed>
  <fix>3d</fix>
</trkpt>
<trkpt lat="40.0713751" lon="-105.2297889">
  <ele>1582.99</ele>
  <time>2026-08-28T17:51:43Z</time>
  <course>247.09</course>
  <speed>0.022360679774997897</speed>
  <fix>3d</fix>
</trkpt>
<trkpt lat="40.0713749" lon="-105.229789">
  <ele>1583.0</ele>
  <time>2026-08-28T17:51:43Z</time>
  <course>0.0</course>
  <speed>0.0</speed>
  <fix>3d</fix>
</trkpt>
<trkpt lat="40.0713751" lon="-105.2297889">
  <ele>1583.0</ele>
  <time>2026-08-28T17:51:43Z</time>
  <course>247.09</course>
  <speed>0.022360679774997897</speed>
  <fix>3d</fix>
</trkpt>
<trkpt lat="40.0713749" lon="-105.229789">
  <ele>1583.0</ele>
  <time>2026-08-28T17:51:43Z</time>
  <course>0.0</course>
  <speed>0.0</speed>
  <fix>3d</fix>
</trkpt>
<trkpt lat="40.0713751" lon="-105.2297889">
  <ele>1583.0</ele>
  <time>2026-08-28T17:51:43Z</time>
  <course>247.09</course>
  <speed>0.022360679774997897</speed>
  <fix>3d</fix>
</trkpt>
<trkpt lat="40.0713749" lon="-105.229789">
  <ele>1583.0</ele>
  <time>2026-08-28T17:51:43Z</time>
  <course>0.0</course>
  <speed>0.0</speed>
  <fix>3d</fix>
</trkpt>
<trkpt lat="40.0713751" lon="-105.2297889">
  <ele>1583.01</ele>
  <time>2026-08-28T17:51:43Z</time>
  <course>247.09</course>
  <speed>0.022360679774997897</speed>
  <fix>3d</fix>
</trkpt>
<trkpt lat="40.0713749" lon="-105.229789">
  <ele>1583.0</ele>
  <time>2026-08-28T17:51:43Z</time>
  <course>0.0</course>
  <speed>0.0</speed>
  <fix>3d</fix>
</trkpt>
<trkpt lat="40.0713751" lon="-105.2297889">
  <ele>1583.01</ele>
  <time>2026-08-28T17:51:43Z</time>
  <course>247.09</course>
  <speed>0.022360679774997897</speed>
  <fix>3d</fix>
</trkpt>
<trkpt lat="40.0713749" lon="-105.229789">
  <ele>1583.0</ele>
  <time>2026-08-28T17:51:43Z</time>
  <course>0.0</course>
  <speed>0.0</speed>
  <fix>3d</fix>
</trkpt>
<trkpt lat="40.0713751" lon="-105.2297889">
  <ele>1583.01</ele>
  <time>2026-08-28T17:51:43Z</time>
  <course>247.09</course>
  <speed>0.022360679774997897</speed>
  <fix>3d</fix>
</trkpt>
<trkpt lat="40.0713749" lon="-105.229789">
  <ele>1583.0</ele>
  <time>2026-08-28T17:51:43Z</time>
  <course>0.0</course>
  <speed>0.0</speed>
  <fix>3d</fix>
</trkpt>
<trkpt lat="40.0713751" lon="-105.2297889">
  <ele>1583.02</ele>
  <time>2026-08-28T17:51:43Z</time>
  <course>247.09</course>
  <speed>0.022360679774997897</speed>
  <fix>3d</fix>
</trkpt>
<trkpt lat="40.0713749" lon="-105.229789">
  <ele>1583.0</ele>
  <time>2026-08-28T17:51:43Z</time>
  <course>0.0</course>
  <speed>0.0</speed>
  <fix>3d</fix>
</trkpt>
<trkpt lat="40.0713751" lon="-105.2297889">
  <ele>1583.02</ele>
  <time>2026-08-28T17:51:43Z</time>
  <course>247.09</course>
  <speed>0.022360679774997897</speed>
  <fix>3d</fix>
</trkpt>
<trkpt lat="40.0713749" lon="-105.229789">
  <ele>1583.0</ele>
  <time>2026-08-28T17:51:43Z</time>
  <course>0.0</course>
  <speed>0.0</speed>
  <fix>3d</fix>
</trkpt>
<trkpt lat="40.0713751" lon="-105.2297889">
  <ele>1583.03</ele>
  <time>2026-08-28T17:51:43Z</time>
  <course>247.09</course>
  <speed>0.022360679774997897</speed>
  <fix>3d</fix>
</trkpt>
<trkpt lat="40.0713749" lon="-105.229789">
  <ele>1583.0</ele>
  <time>2026-08-28T17:51:43Z</time>
  <course>0.0</course>
  <speed>0.0</speed>
  <fix>3d</fix>
</trkpt>
<trkpt lat="40.0713751" lon="-105.2297889">
  <ele>1583.03</ele>
  <time>2026-08-28T17:51:43Z</time>
  <course>247.09</course>
  <speed>0.022360679774997897</speed>
  <fix>3d</fix>
</trkpt>
<trkpt lat="40.0713749" lon="-105.229789">
  <ele>1583.0</ele>
  <time>2026-08-28T17:51:43Z</time>
  <course>0.0</course>
  <speed>0.0</speed>
  <fix>3d</fix>
</trkpt>
<trkpt lat="40.0713751" lon="-105.2297889">
  <ele>1583.04</ele>
  <time>2026-08-28T17:51:43Z</time>
  <course>247.09</course>
  <speed>0.022360679774997897</speed>
  <fix>3d</fix>
</trkpt>
<trkpt lat="40.0713749" lon="-105.229789">
  <ele>1583.0</ele>
  <time>2026-08-28T17:51:43Z</time>
  <course>0.0</course>
  <speed>0.0</speed>
  <fix>3d</fix>
</trkpt>
<trkpt lat="40.0713751" lon="-105.2297889">
  <ele>1583.05</ele>
  <time>2026-08-28T17:51:43Z</time>
  <course>247.09</course>
  <speed>0.022360679774997897</speed>
  <fix>3d</fix>
</trkpt>
<trkpt lat="40.0713749" lon="-105.229789">
  <ele>1583.0</ele>
  <time>2026-08-28T17:51:43Z</time>
  <course>0.0</course>
  <speed>0.0</speed>
  <fix>3d</fix>
</trkpt>
<trkpt lat="40.0713751" lon="-105.2297889">
  <ele>1583.05</ele>
  <time>2026-08-28T17:51:43Z</time>
  <course>247.09</course>
  <speed>0.022360679774997897</speed>
  <fix>3d</fix>
</trkpt>
<trkpt lat="40.0713749" lon="-105.229789">
  <ele>1583.0</ele>
  <time>2026-08-28T17:51:43Z</time>
  <course>0.0</course>
  <speed>0.0</speed>
  <fix>3d</fix>
</trkpt>
<trkpt lat="40.0713751" lon="-105.2297889">
  <ele>1583.05</ele>
  <time>2026-08-28T17:51:43Z</time>
  <course>247.09</course>
  <speed>0.022360679774997897</speed>
  <fix>3d</fix>
</trkpt>
<trkpt lat="40.0713749" lon="-105.229789">
  <ele>1583.0</ele>
  <time>2026-08-28T17:51:43Z</time>
  <course>0.0</course>
  <speed>0.0</speed>
  <fix>3d</fix>
</trkpt>
<trkpt lat="40.0713751" lon="-105.2297889">
  <ele>1583.05</ele>
  <time>2026-08-28T17:51:43Z</time>
  <course>247.09</course>
  <speed>0.022360679774997897</speed>
  <fix>3d</fix>
</trkpt>
<trkpt lat="40.0713749" lon="-105.229789">
  <ele>1583.0</ele>
  <time>2026-08-28T17:51:43Z</time>
  <course>0.0</course>
  <speed>0.0</speed>
  <fix>3d</fix>
</trkpt>
<trkpt lat="40.0713751" lon="-105.2297889">
  <ele>1583.05</ele>
  <time>2026-08-28T17:51:43Z</time>
  <course>247.09</course>
  <speed>0.022360679774997897</speed>
  <fix>3d</fix>
</trkpt>
<trkpt lat="40.0713749" lon="-105.229789">
  <ele>1583.0</ele>
  <time>2026-08-28T17:51:43Z</time>
  <course>0.0</course>
  <speed>0.0</speed>
  <fix>3d</fix>
</trkpt>
<trkpt lat="40.0713751" lon="-105.2297889">
  <ele>1583.04</ele>
  <time>2026-08-28T17:51:43Z</time>
  <course>247.09</course>
  <speed>0.022360679774997897</speed>
  <fix>3d</fix>
</trkpt>
<trkpt lat="40.0713749" lon="-105.229789">
  <ele>1583.0</ele>
  <time>2026-08-28T17:51:43Z</time>
  <course>0.0</course>
  <speed>0.0</speed>
  <fix>3d</fix>
</trkpt>
<trkpt lat="40.0713751" lon="-105.2297889">
  <ele>1583.04</ele>
  <time>2026-08-28T17:51:43Z</time>
  <course>247.09</course>
  <speed>0.022360679774997897</speed>
  <fix>3d</fix>
</trkpt>
<trkpt lat="40.0713749" lon="-105.229789">
  <ele>1583.0</ele>
  <time>2026-08-28T17:51:43Z</time>
  <course>0.0</course>
  <speed>0.0</speed>
  <fix>3d</fix>
</trkpt>
<trkpt lat="40.0713751" lon="-105.2297889">
  <ele>1583.03</ele>
  <time>2026-08-28T17:51:43Z</time>
  <course>247.09</course>
  <speed>0.022360679774997897</speed>
  <fix>3d</fix>
</trkpt>
<trkpt lat="40.0713749" lon="-105.229789">
  <ele>1583.0</ele>
  <time>2026-08-28T17:51:43Z</time>
  <course>0.0</course>
  <speed>0.0</speed>
  <fix>3d</fix>
</trkpt>
<trkpt lat="40.0713751" lon="-105.2297889">
  <ele>1583.03</ele>
  <time>2026-08-28T17:51:43Z</time>
  <course>247.09</course>
  <speed>0.022360679774997897</speed>
  <fix>3d</fix>
</trkpt>
<trkpt lat="40.0713749" lon="-105.229789">
  <ele>1583.0</ele>
  <time>2026-08-28T17:51:43Z</time>
  <course>0.0</course>
  <speed>0.0</speed>
  <fix>3d</fix>
</trkpt>
<trkpt lat="40.0713751" lon="-105.2297889">
  <ele>1583.02</ele>
  <time>2026-08-28T17:51:43Z</time>
  <course>247.09</course>
  <speed>0.022360679774997897</speed>
  <fix>3d</fix>
</trkpt>
<trkpt lat="40.0713749" lon="-105.229789">
  <ele>1583.0</ele>
  <time>2026-08-28T17:51:43Z</time>
  <course>0.0</course>
  <speed>0.0</speed>
  <fix>3d</fix>
</trkpt>
<trkpt lat="40.0713751" lon="-105.2297889">
  <ele>1583.02</ele>
  <time>2026-08-28T17:51:43Z</time>
  <course>247.09</course>
  <speed>0.022360679774997897</speed>
  <fix>3d</fix>
</trkpt>
<trkpt lat="40.0713749" lon="-105.229789">
  <ele>1583.0</ele>
  <time>2026-08-28T17:51:43Z</time>
  <course>0.0</course>
  <speed>0.0</speed>
  <fix>3d</fix>
</trkpt>
<trkpt lat="40.0713751" lon="-105.2297889">
  <ele>1583.01</ele>
  <time>2026-08-28T17:51:43Z</time>
  <course>247.09</course>
  <speed>0.022360679774997897</speed>
  <fix>3d</fix>
</trkpt>
<trkpt lat="40.0713749" lon="-105.229789">
  <ele>1583.0</ele>
  <time>2026-08-28T17:51:43Z</time>
  <course>0.0</course>
  <speed>0.0</speed>
  <fix>3d</fix>
</trkpt>
<trkpt lat="40.0713751" lon="-105.2297889">
  <ele>1583.0</ele>
  <time>2026-08-28T17:51:43Z</time>
  <course>247.09</course>
  <speed>0.022360679774997897</speed>
  <fix>3d</fix>
</trkpt>
<trkpt lat="40.0713749" lon="-105.229789">
  <ele>1583.0</ele>
  <time>2026-08-28T17:51:43Z</time>
  <course>0.0</course>
  <speed>0.0</speed>
  <fix>3d</fix>
</trkpt>
<trkpt lat="40.0713751" lon="-105.2297889">
  <ele>1583.0</ele>
  <time>2026-08-28T17:51:43Z</time>
  <course>247.09</course>
  <speed>0.022360679774997897</speed>
  <fix>3d</fix>
</trkpt>
<trkpt lat="40.0713749" lon="-105.229789">
  <ele>1583.0</ele>
  <time>2026-08-28T17:51:43Z</time>
  <course>0.0</course>
  <speed>0.0</speed>
  <fix>3d</fix>
</trkpt>
<trkpt lat="40.071375" lon="-105.2297889">
  <ele>1582.99</ele>
  <time>2026-08-28T17:51:43Z</time>
  <course>247.09</course>
  <speed>0.022360679774997897</speed>
  <fix>3d</fix>
</trkpt>
<trkpt lat="40.0713749" lon="-105.229789">
  <ele>1583.0</ele>
  <time>2026-08-28T17:51:43Z</time>
  <course>0.0</course>
  <speed>0.0</speed>
  <fix>3d</fix>
</trkpt>
<trkpt lat="40.0713751" lon="-105.2297889">
  <ele>1582.98</ele>
  <time>2026-08-28T17:51:43Z</time>
  <course>247.09</course>
  <speed>0.022360679774997897</speed>
  <fix>3d</fix>
</trkpt>
<trkpt lat="40.0713749" lon="-105.229789">
  <ele>1583.0</ele>
  <time>2026-08-28T17:51:43Z</time>
  <course>0.0</course>
  <speed>0.0</speed>
  <fix>3d</fix>
</trkpt>
<trkpt lat="40.071375" lon="-105.2297889">
  <ele>1582.98</ele>
  <time>2026-08-28T17:51:43Z</time>
  <course>247.09</course>
  <speed>0.022360679774997897</speed>
  <fix>3d</fix>
</trkpt>
<trkpt lat="40.0713749" lon="-105.229789">
  <ele>1583.0</ele>
  <time>2026-08-28T17:51:43Z</time>
  <course>0.0</course>
  <speed>0.0</speed>
  <fix>3d</fix>
</trkpt>
<trkpt lat="40.0713751" lon="-105.2297889">
  <ele>1582.97</ele>
  <time>2026-08-28T17:51:43Z</time>
  <course>247.09</course>
  <speed>0.022360679774997897</speed>
  <fix>3d</fix>
</trkpt>
<trkpt lat="40.0713749" lon="-105.229789">
  <ele>1583.0</ele>
  <time>2026-08-28T17:51:43Z</time>
  <course>0.0</course>
  <speed>0.0</speed>
  <fix>3d</fix>
</trkpt>
<trkpt lat="40.071375" lon="-105.2297889">
  <ele>1582.96</ele>
  <time>2026-08-28T17:51:43Z</time>
  <course>247.09</course>
  <speed>0.022360679774997897</speed>
  <fix>3d</fix>
</trkpt>
<trkpt lat="40.0713749" lon="-105.229789">
  <ele>1583.0</ele>
  <time>2026-08-28T17:51:43Z</time>
  <course>0.0</course>
  <speed>0.0</speed>
  <fix>3d</fix>
</trkpt>
<trkpt lat="40.0713751" lon="-105.2297889">
  <ele>1582.95</ele>
  <time>2026-08-28T17:51:43Z</time>
  <course>247.09</course>
  <speed>0.022360679774997897</speed>
  <fix>3d</fix>
</trkpt>
<trkpt lat="40.0713749" lon="-105.229789">
  <ele>1583.0</ele>
  <time>2026-08-28T17:51:43Z</time>
  <course>0.0</course>
  <speed>0.0</speed>
  <fix>3d</fix>
</trkpt>
<trkpt lat="40.071375" lon="-105.2297889">
  <ele>1582.94</ele>
  <time>2026-08-28T17:51:43Z</time>
  <course>247.09</course>
  <speed>0.022360679774997897</speed>
  <fix>3d</fix>
</trkpt>
<trkpt lat="40.0713749" lon="-105.229789">
  <ele>1583.0</ele>
  <time>2026-08-28T17:51:43Z</time>
  <course>0.0</course>
  <speed>0.0</speed>
  <fix>3d</fix>
</trkpt>
<trkpt lat="40.0713751" lon="-105.2297889">
  <ele>1582.94</ele>
  <time>2026-08-28T17:51:43Z</time>
  <course>247.09</course>
  <speed>0.022360679774997897</speed>
  <fix>3d</fix>
</trkpt>
<trkpt lat="40.0713749" lon="-105.229789">
  <ele>1583.0</ele>
  <time>2026-08-28T17:51:43Z</time>
  <course>0.0</course>
  <speed>0.0</speed>
  <fix>3d</fix>
</trkpt>
<trkpt lat="40.071375" lon="-105.2297889">
  <ele>1582.93</ele>
  <time>2026-08-28T17:51:43Z</time>
  <course>247.09</course>
  <speed>0.022360679774997897</speed>
  <fix>3d</fix>
</trkpt>
<trkpt lat="40.0713749" lon="-105.229789">
  <ele>1583.0</ele>
  <time>2026-08-28T17:51:43Z</time>
  <course>0.0</course>
  <speed>0.0</speed>
  <fix>3d</fix>
</trkpt>
<trkpt lat="40.0713751" lon="-105.2297889">
  <ele>1582.92</ele>
  <time>2026-08-28T17:51:43Z</time>
  <course>247.09</course>
  <speed>0.022360679774997897</speed>
  <fix>3d</fix>
</trkpt>
<trkpt lat="40.0713749" lon="-105.229789">
  <ele>1583.0</ele>
  <time>2026-08-28T17:51:43Z</time>
  <course>0.0</course>
  <speed>0.0</speed>
  <fix>3d</fix>
</trkpt>
<trkpt lat="40.071375" lon="-105.2297889">
  <ele>1582.92</ele>
  <time>2026-08-28T17:51:43Z</time>
  <course>247.09</course>
  <speed>0.022360679774997897</speed>
  <fix>3d</fix>
</trkpt>
<trkpt lat="40.0713749" lon="-105.229789">
  <ele>1583.0</ele>
  <time>2026-08-28T17:51:43Z</time>
  <course>0.0</course>
  <speed>0.0</speed>
  <fix>3d</fix>
</trkpt>
<trkpt lat="40.0713751" lon="-105.2297889">
  <ele>1582.92</ele>
  <time>2026-08-28T17:51:43Z</time>
  <course>247.09</course>
  <speed>0.022360679774997897</speed>
  <fix>3d</fix>
</trkpt>
<trkpt lat="40.0713749" lon="-105.229789">
  <ele>1583.0</ele>
  <time>2026-08-28T17:51:43Z</time>
  <course>0.0</course>
  <speed>0.0</speed>
  <fix>3d</fix>
</trkpt>
<trkpt lat="40.071375" lon="-105.2297889">
  <ele>1582.92</ele>
  <time>2026-08-28T17:51:43Z</time>
  <course>247.09</course>
  <speed>0.022360679774997897</speed>
  <fix>3d</fix>
</trkpt>
<trkpt lat="40.0713749" lon="-105.229789">
  <ele>1583.0</ele>
  <time>2026-08-28T17:51:43Z</time>
  <course>0.0</course>
  <speed>0.0</speed>
  <fix>3d</fix>
</trkpt>
<trkpt lat="40.0713751" lon="-105.2297889">
  <ele>1582.91</ele>
  <time>2026-08-28T17:51:43Z</time>
  <course>247.09</course>
  <speed>0.022360679774997897</speed>
  <fix>3d</fix>
</trkpt>
<trkpt lat="40.0713749" lon="-105.229789">
  <ele>1583.0</ele>
  <time>2026-08-28T17:51:43Z</time>
  <course>0.0</course>
  <speed>0.0</speed>
  <fix>3d</fix>
</trkpt>
<trkpt lat="40.0713751" lon="-105.2297889">
  <ele>1582.91</ele>
  <time>2026-08-28T17:51:43Z</time>
  <course>247.09</course>
  <speed>0.022360679774997897</speed>
  <fix>3d</fix>
</trkpt>
<trkpt lat="40.0713749" lon="-105.229789">
  <ele>1583.0</ele>
  <time>2026-08-28T17:51:43Z</time>
  <course>0.0</course>
  <speed>0.0</speed>
  <fix>3d</fix>
</trkpt>
<trkpt lat="40.0713751" lon="-105.2297889">
  <ele>1582.91</ele>
  <time>2026-08-28T17:51:43Z</time>
  <course>247.09</course>
  <speed>0.022360679774997897</speed>
  <fix>3d</fix>
</trkpt>
<trkpt lat="40.0713749" lon="-105.229789">
  <ele>1583.0</ele>
  <time>2026-08-28T17:51:43Z</time>
  <course>0.0</course>
  <speed>0.0</speed>
  <fix>3d</fix>
</trkpt>
<trkpt lat="40.0713751" lon="-105.2297889">
  <ele>1582.9</ele>
  <time>2026-08-28T17:51:43Z</time>
  <course>247.09</course>
  <speed>0.022360679774997897</speed>
  <fix>3d</fix>
</trkpt>
<trkpt lat="40.0713749" lon="-105.229789">
  <ele>1583.0</ele>
  <time>2026-08-28T17:51:43Z</time>
  <course>0.0</course>
  <speed>0.0</speed>
  <fix>3d</fix>
</trkpt>
<trkpt lat="40.0713751" lon="-105.2297889">
  <ele>1582.9</ele>
  <time>2026-08-28T17:51:43Z</time>
  <course>247.09</course>
  <speed>0.022360679774997897</speed>
  <fix>3d</fix>
</trkpt>
<trkpt lat="40.0713749" lon="-105.229789">
  <ele>1583.0</ele>
  <time>2026-08-28T17:51:43Z</time>
  <course>0.0</course>
  <speed>0.0</speed>
  <fix>3d</fix>
</trkpt>
<trkpt lat="40.0713751" lon="-105.2297889">
  <ele>1582.91</ele>
  <time>2026-08-28T17:51:43Z</time>
  <course>247.09</course>
  <speed>0.022360679774997897</speed>
  <fix>3d</fix>
</trkpt>
<trkpt lat="40.0713749" lon="-105.229789">
  <ele>1583.0</ele>
  <time>2026-08-28T17:51:43Z</time>
  <course>0.0</course>
  <speed>0.0</speed>
  <fix>3d</fix>
</trkpt>
<trkpt lat="40.0713751" lon="-105.2297889">
  <ele>1582.91</ele>
  <time>2026-08-28T17:51:43Z</time>
  <course>247.09</course>
  <speed>0.022360679774997897</speed>
  <fix>3d</fix>
</trkpt>
<trkpt lat="40.0713749" lon="-105.229789">
  <ele>1583.0</ele>
  <time>2026-08-28T17:51:43Z</time>
  <course>0.0</course>
  <speed>0.0</speed>
  <fix>3d</fix>
</trkpt>
<trkpt lat="40.071375" lon="-105.2297889">
  <ele>1582.92</ele>
  <time>2026-08-28T17:51:43Z</time>
  <course>247.09</course>
  <speed>0.022360679774997897</speed>
  <fix>3d</fix>
</trkpt>
<trkpt lat="40.0713749" lon="-105.229789">
  <ele>1583.0</ele>
  <time>2026-08-28T17:51:43Z</time>
  <course>0.0</course>
  <speed>0.0</speed>
  <fix>3d</fix>
</trkpt>
<trkpt lat="40.0713751" lon="-105.2297889">
  <ele>1582.93</ele>
  <time>2026-08-28T17:51:43Z</time>
  <course>247.09</course>
  <speed>0.022360679774997897</speed>
  <fix>3d</fix>
</trkpt>
<trkpt lat="40.0713749" lon="-105.229789">
  <ele>1583.0</ele>
  <time>2026-08-28T17:51:43Z</time>
  <course>0.0</course>
  <speed>0.0</speed>
  <fix>3d</fix>
</trkpt>
<trkpt lat="40.071375" lon="-105.2297889">
  <ele>1582.94</ele>
  <time>2026-08-28T17:51:43Z</time>
  <course>247.09</course>
  <speed>0.022360679774997897</speed>
  <fix>3d</fix>
</trkpt>
<trkpt lat="40.0713749" lon="-105.229789">
  <ele>1583.0</ele>
  <time>2026-08-28T17:51:43Z</time>
  <course>0.0</course>
  <speed>0.0</speed>
  <fix>3d</fix>
</trkpt>
<trkpt lat="40.0713751" lon="-105.2297889">
  <ele>1582.95</ele>
  <time>2026-08-28T17:51:43Z</time>
  <course>247.09</course>
  <speed>0.022360679774997897</speed>
  <fix>3d</fix>
</trkpt>
<trkpt lat="40.0713749" lon="-105.229789">
  <ele>1583.0</ele>
  <time>2026-08-28T17:51:43Z</time>
  <course>0.0</course>
  <speed>0.0</speed>
  <fix>3d</fix>
</trkpt>
<trkpt lat="40.071375" lon="-105.2297889">
  <ele>1582.95</ele>
  <time>2026-08-28T17:51:43Z</time>
  <course>247.09</course>
  <speed>0.022360679774997897</speed>
  <fix>3d</fix>
</trkpt>
<trkpt lat="40.0713749" lon="-105.229789">
  <ele>1583.0</ele>
  <time>2026-08-28T17:51:43Z</time>
  <course>0.0</course>
  <speed>0.0</speed>
  <fix>3d</fix>
</trkpt>
<trkpt lat="40.0713751" lon="-105.2297889">
  <ele>1582.96</ele>
  <time>2026-08-28T17:51:43Z</time>
  <course>247.09</course>
  <speed>0.022360679774997897</speed>
  <fix>3d</fix>
</trkpt>
<trkpt lat="40.0713749" lon="-105.229789">
  <ele>1583.0</ele>
  <time>2026-08-28T17:51:43Z</time>
  <course>0.0</course>
  <speed>0.0</speed>
  <fix>3d</fix>
</trkpt>
<trkpt lat="40.071375" lon="-105.2297889">
  <ele>1582.97</ele>
  <time>2026-08-28T17:51:43Z</time>
  <course>247.09</course>
  <speed>0.022360679774997897</speed>
  <fix>3d</fix>
</trkpt>
<trkpt lat="40.0713749" lon="-105.229789">
  <ele>1583.0</ele>
  <time>2026-08-28T17:51:43Z</time>
  <course>0.0</course>
  <speed>0.0</speed>
  <fix>3d</fix>
</trkpt>
<trkpt lat="40.0713751" lon="-105.2297889">
  <ele>1582.97</ele>
  <time>2026-08-28T17:51:43Z</time>
  <course>247.09</course>
  <speed>0.022360679774997897</speed>
  <fix>3d</fix>
</trkpt>
<trkpt lat="40.0713749" lon="-105.229789">
  <ele>1583.0</ele>
  <time>2026-08-28T17:51:43Z</time>
  <course>0.0</course>
  <speed>0.0</speed>
  <fix>3d</fix>
</trkpt>
<trkpt lat="40.071375" lon="-105.2297889">
  <ele>1582.97</ele>
  <time>2026-08-28T17:51:43Z</time>
  <course>247.09</course>
  <speed>0.022360679774997897</speed>
  <fix>3d</fix>
</trkpt>
<trkpt lat="40.0713749" lon="-105.229789">
  <ele>1583.0</ele>
  <time>2026-08-28T17:51:43Z</time>
  <course>0.0</course>
  <speed>0.0</speed>
  <fix>3d</fix>
</trkpt>
<trkpt lat="40.0713751" lon="-105.2297889">
  <ele>1582.97</ele>
  <time>2026-08-28T17:51:43Z</time>
  <course>247.09</course>
  <speed>0.022360679774997897</speed>
  <fix>3d</fix>
</trkpt>
<trkpt lat="40.0713749" lon="-105.229789">
  <ele>1583.0</ele>
  <time>2026-08-28T17:51:43Z</time>
  <course>0.0</course>
  <speed>0.0</speed>
  <fix>3d</fix>
</trkpt>
<trkpt lat="40.071375" lon="-105.2297889">
  <ele>1582.97</ele>
  <time>2026-08-28T17:51:44Z</time>
  <course>247.09</course>
  <speed>0.022360679774997897</speed>
  <fix>3d</fix>
</trkpt>
<trkpt lat="40.0713749" lon="-105.229789">
  <ele>1583.0</ele>
  <time>2026-08-28T17:51:44Z</time>
  <course>0.0</course>
  <speed>0.0</speed>
  <fix>3d</fix>
</trkpt>
<trkpt lat="40.0713751" lon="-105.2297889">
  <ele>1582.97</ele>
  <time>2026-08-28T17:51:44Z</time>
  <course>247.09</course>
  <speed>0.022360679774997897</speed>
  <fix>3d</fix>
</trkpt>
<trkpt lat="40.0713749" lon="-105.229789">
  <ele>1583.0</ele>
  <time>2026-08-28T17:51:44Z</time>
  <course>0.0</course>
  <speed>0.0</speed>
  <fix>3d</fix>
</trkpt>
<trkpt lat="40.071375" lon="-105.2297889">
  <ele>1582.97</ele>
  <time>2026-08-28T17:51:44Z</time>
  <course>247.09</course>
  <speed>0.022360679774997897</speed>
  <fix>3d</fix>
</trkpt>
<trkpt lat="40.0713749" lon="-105.229789">
  <ele>1583.0</ele>
  <time>2026-08-28T17:51:44Z</time>
  <course>0.0</course>
  <speed>0.0</speed>
  <fix>3d</fix>
</trkpt>
<trkpt lat="40.0713751" lon="-105.2297889">
  <ele>1582.96</ele>
  <time>2026-08-28T17:51:44Z</time>
  <course>247.09</course>
  <speed>0.022360679774997897</speed>
  <fix>3d</fix>
</trkpt>
<trkpt lat="40.0713749" lon="-105.229789">
  <ele>1583.0</ele>
  <time>2026-08-28T17:51:44Z</time>
  <course>0.0</course>
  <speed>0.0</speed>
  <fix>3d</fix>
</trkpt>
<trkpt lat="40.0713751" lon="-105.2297889">
  <ele>1582.96</ele>
  <time>2026-08-28T17:51:44Z</time>
  <course>247.09</course>
  <speed>0.022360679774997897</speed>
  <fix>3d</fix>
</trkpt>
<trkpt lat="40.0713749" lon="-105.229789">
  <ele>1583.0</ele>
  <time>2026-08-28T17:51:44Z</time>
  <course>0.0</course>
  <speed>0.0</speed>
  <fix>3d</fix>
</trkpt>
<trkpt lat="40.0713751" lon="-105.2297889">
  <ele>1582.95</ele>
  <time>2026-08-28T17:51:44Z</time>
  <course>247.09</course>
  <speed>0.022360679774997897</speed>
  <fix>3d</fix>
</trkpt>
<trkpt lat="40.0713749" lon="-105.229789">
  <ele>1583.0</ele>
  <time>2026-08-28T17:51:44Z</time>
  <course>0.0</course>
  <speed>0.0</speed>
  <fix>3d</fix>
</trkpt>
<trkpt lat="40.0713751" lon="-105.2297889">
  <ele>1582.95</ele>
  <time>2026-08-28T17:51:44Z</time>
  <course>247.09</course>
  <speed>0.022360679774997897</speed>
  <fix>3d</fix>
</trkpt>
<trkpt lat="40.0713749" lon="-105.229789">
  <ele>1583.0</ele>
  <time>2026-08-28T17:51:44Z</time>
  <course>0.0</course>
  <speed>0.0</speed>
  <fix>3d</fix>
</trkpt>
<trkpt lat="40.0713751" lon="-105.2297889">
  <ele>1582.95</ele>
  <time>2026-08-28T17:51:44Z</time>
  <course>247.09</course>
  <speed>0.022360679774997897</speed>
  <fix>3d</fix>
</trkpt>
<trkpt lat="40.0713749" lon="-105.229789">
  <ele>1583.0</ele>
  <time>2026-08-28T17:51:44Z</time>
  <course>0.0</course>
  <speed>0.0</speed>
  <fix>3d</fix>
</trkpt>
<trkpt lat="40.0713751" lon="-105.2297889">
  <ele>1582.95</ele>
  <time>2026-08-28T17:51:44Z</time>
  <course>247.09</course>
  <speed>0.022360679774997897</speed>
  <fix>3d</fix>
</trkpt>
<trkpt lat="40.0713749" lon="-105.229789">
  <ele>1583.0</ele>
  <time>2026-08-28T17:51:44Z</time>
  <course>0.0</course>
  <speed>0.0</speed>
  <fix>3d</fix>
</trkpt>
<trkpt lat="40.0713751" lon="-105.2297889">
  <ele>1582.95</ele>
  <time>2026-08-28T17:51:44Z</time>
  <course>247.09</course>
  <speed>0.022360679774997897</speed>
  <fix>3d</fix>
</trkpt>
<trkpt lat="40.0713749" lon="-105.229789">
  <ele>1583.0</ele>
  <time>2026-08-28T17:51:44Z</time>
  <course>0.0</course>
  <speed>0.0</speed>
  <fix>3d</fix>
</trkpt>
<trkpt lat="40.0713751" lon="-105.2297889">
  <ele>1582.95</ele>
  <time>2026-08-28T17:51:44Z</time>
  <course>247.09</course>
  <speed>0.022360679774997897</speed>
  <fix>3d</fix>
</trkpt>
<trkpt lat="40.0713749" lon="-105.229789">
  <ele>1583.0</ele>
  <time>2026-08-28T17:51:44Z</time>
  <course>0.0</course>
  <speed>0.0</speed>
  <fix>3d</fix>
</trkpt>
<trkpt lat="40.0713751" lon="-105.2297889">
  <ele>1582.95</ele>
  <time>2026-08-28T17:51:44Z</time>
  <course>247.09</course>
  <speed>0.022360679774997897</speed>
  <fix>3d</fix>
</trkpt>
<trkpt lat="40.0713749" lon="-105.229789">
  <ele>1583.0</ele>
  <time>2026-08-28T17:51:44Z</time>
  <course>0.0</course>
  <speed>0.0</speed>
  <fix>3d</fix>
</trkpt>
<trkpt lat="40.071375" lon="-105.2297889">
  <ele>1582.94</ele>
  <time>2026-08-28T17:51:44Z</time>
  <course>247.09</course>
  <speed>0.022360679774997897</speed>
  <fix>3d</fix>
</trkpt>
<trkpt lat="40.0713749" lon="-105.229789">
  <ele>1583.0</ele>
  <time>2026-08-28T17:51:44Z</time>
  <course>0.0</course>
  <speed>0.0</speed>
  <fix>3d</fix>
</trkpt>
<trkpt lat="40.0713751" lon="-105.2297889">
  <ele>1582.94</ele>
  <time>2026-08-28T17:51:44Z</time>
  <course>247.09</course>
  <speed>0.022360679774997897</speed>
  <fix>3d</fix>
</trkpt>
<trkpt lat="40.0713749" lon="-105.229789">
  <ele>1583.0</ele>
  <time>2026-08-28T17:51:44Z</time>
  <course>0.0</course>
  <speed>0.0</speed>
  <fix>3d</fix>
</trkpt>
<trkpt lat="40.071375" lon="-105.2297889">
  <ele>1582.93</ele>
  <time>2026-08-28T17:51:44Z</time>
  <course>247.09</course>
  <speed>0.022360679774997897</speed>
  <fix>3d</fix>
</trkpt>
<trkpt lat="40.0713749" lon="-105.229789">
  <ele>1583.0</ele>
  <time>2026-08-28T17:51:44Z</time>
  <course>0.0</course>
  <speed>0.0</speed>
  <fix>3d</fix>
</trkpt>
<trkpt lat="40.0713751" lon="-105.2297889">
  <ele>1582.93</ele>
  <time>2026-08-28T17:51:44Z</time>
  <course>247.09</course>
  <speed>0.022360679774997897</speed>
  <fix>3d</fix>
</trkpt>
<trkpt lat="40.0713749" lon="-105.229789">
  <ele>1583.0</ele>
  <time>2026-08-28T17:51:44Z</time>
  <course>0.0</course>
  <speed>0.0</speed>
  <fix>3d</fix>
</trkpt>
<trkpt lat="40.0713751" lon="-105.2297889">
  <ele>1582.93</ele>
  <time>2026-08-28T17:51:44Z</time>
  <course>247.09</course>
  <speed>0.022360679774997897</speed>
  <fix>3d</fix>
</trkpt>
<trkpt lat="40.0713749" lon="-105.229789">
  <ele>1583.0</ele>
  <time>2026-08-28T17:51:44Z</time>
  <course>0.0</course>
  <speed>0.0</speed>
  <fix>3d</fix>
</trkpt>
<trkpt lat="40.0713751" lon="-105.2297889">
  <ele>1582.93</ele>
  <time>2026-08-28T17:51:44Z</time>
  <course>247.09</course>
  <speed>0.022360679774997897</speed>
  <fix>3d</fix>
</trkpt>
<trkpt lat="40.0713749" lon="-105.229789">
  <ele>1583.0</ele>
  <time>2026-08-28T17:51:44Z</time>
  <course>0.0</course>
  <speed>0.0</speed>
  <fix>3d</fix>
</trkpt>
<trkpt lat="40.0713751" lon="-105.2297889">
  <ele>1582.93</ele>
  <time>2026-08-28T17:51:44Z</time>
  <course>247.09</course>
  <speed>0.022360679774997897</speed>
  <fix>3d</fix>
</trkpt>
<trkpt lat="40.0713749" lon="-105.229789">
  <ele>1583.0</ele>
  <time>2026-08-28T17:51:44Z</time>
  <course>0.0</course>
  <speed>0.0</speed>
  <fix>3d</fix>
</trkpt>
<trkpt lat="40.0713751" lon="-105.2297889">
  <ele>1582.93</ele>
  <time>2026-08-28T17:51:44Z</time>
  <course>247.09</course>
  <speed>0.022360679774997897</speed>
  <fix>3d</fix>
</trkpt>
<trkpt lat="40.0713749" lon="-105.229789">
  <ele>1583.0</ele>
  <time>2026-08-28T17:51:44Z</time>
  <course>0.0</course>
  <speed>0.0</speed>
  <fix>3d</fix>
</trkpt>
<trkpt lat="40.0713751" lon="-105.2297889">
  <ele>1582.93</ele>
  <time>2026-08-28T17:51:44Z</time>
  <course>247.09</course>
  <speed>0.022360679774997897</speed>
  <fix>3d</fix>
</trkpt>
<trkpt lat="40.0713749" lon="-105.229789">
  <ele>1583.0</ele>
  <time>2026-08-28T17:51:44Z</time>
  <course>0.0</course>
  <speed>0.0</speed>
  <fix>3d</fix>
</trkpt>
<trkpt lat="40.0713751" lon="-105.2297889">
  <ele>1582.93</ele>
  <time>2026-08-28T17:51:44Z</time>
  <course>247.09</course>
  <speed>0.022360679774997897</speed>
  <fix>3d</fix>
</trkpt>
<trkpt lat="40.0713749" lon="-105.229789">
  <ele>1583.0</ele>
  <time>2026-08-28T17:51:44Z</time>
  <course>0.0</course>
  <speed>0.0</speed>
  <fix>3d</fix>
</trkpt>
<trkpt lat="40.0713751" lon="-105.2297889">
  <ele>1582.93</ele>
  <time>2026-08-28T17:51:44Z</time>
  <course>247.09</course>
  <speed>0.022360679774997897</speed>
  <fix>3d</fix>
</trkpt>
<trkpt lat="40.0713749" lon="-105.229789">
  <ele>1583.0</ele>
  <time>2026-08-28T17:51:44Z</time>
  <course>0.0</course>
  <speed>0.0</speed>
  <fix>3d</fix>
</trkpt>
<trkpt lat="40.0713751" lon="-105.2297889">
  <ele>1582.93</ele>
  <time>2026-08-28T17:51:44Z</time>
  <course>247.09</course>
  <speed>0.022360679774997897</speed>
  <fix>3d</fix>
</trkpt>
<trkpt lat="40.0713749" lon="-105.229789">
  <ele>1583.0</ele>
  <time>2026-08-28T17:51:44Z</time>
  <course>0.0</course>
  <speed>0.0</speed>
  <fix>3d</fix>
</trkpt>
<trkpt lat="40.0713751" lon="-105.2297889">
  <ele>1582.93</ele>
  <time>2026-08-28T17:51:44Z</time>
  <course>247.09</course>
  <speed>0.022360679774997897</speed>
  <fix>3d</fix>
</trkpt>
<trkpt lat="40.0713749" lon="-105.229789">
  <ele>1583.0</ele>
  <time>2026-08-28T17:51:44Z</time>
  <course>0.0</course>
  <speed>0.0</speed>
  <fix>3d</fix>
</trkpt>
<trkpt lat="40.0713751" lon="-105.2297889">
  <ele>1582.93</ele>
  <time>2026-08-28T17:51:44Z</time>
  <course>247.09</course>
  <speed>0.022360679774997897</speed>
  <fix>3d</fix>
</trkpt>
<trkpt lat="40.0713749" lon="-105.229789">
  <ele>1583.0</ele>
  <time>2026-08-28T17:51:44Z</time>
  <course>0.0</course>
  <speed>0.0</speed>
  <fix>3d</fix>
</trkpt>
<trkpt lat="40.0713751" lon="-105.2297889">
  <ele>1582.93</ele>
  <time>2026-08-28T17:51:44Z</time>
  <course>247.09</course>
  <speed>0.022360679774997897</speed>
  <fix>3d</fix>
</trkpt>
<trkpt lat="40.0713749" lon="-105.229789">
  <ele>1583.0</ele>
  <time>2026-08-28T17:51:44Z</time>
  <course>0.0</course>
  <speed>0.0</speed>
  <fix>3d</fix>
</trkpt>
<trkpt lat="40.0713751" lon="-105.2297889">
  <ele>1582.93</ele>
  <time>2026-08-28T17:51:44Z</time>
  <course>247.09</course>
  <speed>0.022360679774997897</speed>
  <fix>3d</fix>
</trkpt>
<trkpt lat="40.0713749" lon="-105.229789">
  <ele>1583.0</ele>
  <time>2026-08-28T17:51:44Z</time>
  <course>0.0</course>
  <speed>0.0</speed>
  <fix>3d</fix>
</trkpt>
<trkpt lat="40.0713751" lon="-105.2297889">
  <ele>1582.93</ele>
  <time>2026-08-28T17:51:44Z</time>
  <course>247.09</course>
  <speed>0.022360679774997897</speed>
  <fix>3d</fix>
</trkpt>
<trkpt lat="40.0713749" lon="-105.229789">
  <ele>1583.0</ele>
  <time>2026-08-28T17:51:44Z</time>
  <course>0.0</course>
  <speed>0.0</speed>
  <fix>3d</fix>
</trkpt>
<trkpt lat="40.0713751" lon="-105.2297889">
  <ele>1582.93</ele>
  <time>2026-08-28T17:51:44Z</time>
  <course>247.09</course>
  <speed>0.022360679774997897</speed>
  <fix>3d</fix>
</trkpt>
<trkpt lat="40.0713749" lon="-105.229789">
  <ele>1583.0</ele>
  <time>2026-08-28T17:51:44Z</time>
  <course>0.0</course>
  <speed>0.0</speed>
  <fix>3d</fix>
</trkpt>
<trkpt lat="40.0713751" lon="-105.2297889">
  <ele>1582.93</ele>
  <time>2026-08-28T17:51:44Z</time>
  <course>247.09</course>
  <speed>0.022360679774997897</speed>
  <fix>3d</fix>
</trkpt>
<trkpt lat="40.0713749" lon="-105.229789">
  <ele>1583.0</ele>
  <time>2026-08-28T17:51:44Z</time>
  <course>0.0</course>
  <speed>0.0</speed>
  <fix>3d</fix>
</trkpt>
<trkpt lat="40.0713751" lon="-105.2297889">
  <ele>1582.93</ele>
  <time>2026-08-28T17:51:44Z</time>
  <course>247.09</course>
  <speed>0.022360679774997897</speed>
  <fix>3d</fix>
</trkpt>
<trkpt lat="40.0713749" lon="-105.229789">
  <ele>1583.0</ele>
  <time>2026-08-28T17:51:44Z</time>
  <course>0.0</course>
  <speed>0.0</speed>
  <fix>3d</fix>
</trkpt>
<trkpt lat="40.0713751" lon="-105.2297889">
  <ele>1582.93</ele>
  <time>2026-08-28T17:51:44Z</time>
  <course>247.09</course>
  <speed>0.022360679774997897</speed>
  <fix>3d</fix>
</trkpt>
<trkpt lat="40.0713749" lon="-105.229789">
  <ele>1583.0</ele>
  <time>2026-08-28T17:51:44Z</time>
  <course>0.0</course>
  <speed>0.0</speed>
  <fix>3d</fix>
</trkpt>
<trkpt lat="40.0713751" lon="-105.2297889">
  <ele>1582.93</ele>
  <time>2026-08-28T17:51:44Z</time>
  <course>247.09</course>
  <speed>0.022360679774997897</speed>
  <fix>3d</fix>
</trkpt>
<trkpt lat="40.0713749" lon="-105.229789">
  <ele>1583.0</ele>
  <time>2026-08-28T17:51:44Z</time>
  <course>0.0</course>
  <speed>0.0</speed>
  <fix>3d</fix>
</trkpt>
<trkpt lat="40.071375" lon="-105.2297889">
  <ele>1582.93</ele>
  <time>2026-08-28T17:51:44Z</time>
  <course>247.09</course>
  <speed>0.022360679774997897</speed>
  <fix>3d</fix>
</trkpt>
<trkpt lat="40.0713749" lon="-105.229789">
  <ele>1583.0</ele>
  <time>2026-08-28T17:51:44Z</time>
  <course>0.0</course>
  <speed>0.0</speed>
  <fix>3d</fix>
</trkpt>
<trkpt lat="40.0713751" lon="-105.2297889">
  <ele>1582.93</ele>
  <time>2026-08-28T17:51:44Z</time>
  <course>247.09</course>
  <speed>0.022360679774997897</speed>
  <fix>3d</fix>
</trkpt>
<trkpt lat="40.0713749" lon="-105.229789">
  <ele>1583.0</ele>
  <time>2026-08-28T17:51:44Z</time>
  <course>0.0</course>
  <speed>0.0</speed>
  <fix>3d</fix>
</trkpt>
<trkpt lat="40.071375" lon="-105.2297889">
  <ele>1582.93</ele>
  <time>2026-08-28T17:51:44Z</time>
  <course>247.09</course>
  <speed>0.022360679774997897</speed>
  <fix>3d</fix>
</trkpt>
<trkpt lat="40.0713749" lon="-105.229789">
  <ele>1583.0</ele>
  <time>2026-08-28T17:51:44Z</time>
  <course>0.0</course>
  <speed>0.0</speed>
  <fix>3d</fix>
</trkpt>
<trkpt lat="40.0713751" lon="-105.2297889">
  <ele>1582.93</ele>
  <time>2026-08-28T17:51:44Z</time>
  <course>247.09</course>
  <speed>0.022360679774997897</speed>
  <fix>3d</fix>
</trkpt>
<trkpt lat="40.0713749" lon="-105.229789">
  <ele>1583.0</ele>
  <time>2026-08-28T17:51:44Z</time>
  <course>0.0</course>
  <speed>0.0</speed>
  <fix>3d</fix>
</trkpt>
<trkpt lat="40.071375" lon="-105.2297889">
  <ele>1582.93</ele>
  <time>2026-08-28T17:51:44Z</time>
  <course>247.09</course>
  <speed>0.022360679774997897</speed>
  <fix>3d</fix>
</trkpt>
<trkpt lat="40.0713749" lon="-105.229789">
  <ele>1583.0</ele>
  <time>2026-08-28T17:51:44Z</time>
  <course>0.0</course>
  <speed>0.0</speed>
  <fix>3d</fix>
</trkpt>
<trkpt lat="40.0713751" lon="-105.2297889">
  <ele>1582.94</ele>
  <time>2026-08-28T17:51:44Z</time>
  <course>247.09</course>
  <speed>0.022360679774997897</speed>
  <fix>3d</fix>
</trkpt>
<trkpt lat="40.0713749" lon="-105.229789">
  <ele>1583.0</ele>
  <time>2026-08-28T17:51:44Z</time>
  <course>0.0</course>
  <speed>0.0</speed>
  <fix>3d</fix>
</trkpt>
<trkpt lat="40.0713751" lon="-105.2297889">
  <ele>1582.95</ele>
  <time>2026-08-28T17:51:44Z</time>
  <course>247.09</course>
  <speed>0.022360679774997897</speed>
  <fix>3d</fix>
</trkpt>
<trkpt lat="40.0713749" lon="-105.229789">
  <ele>1583.0</ele>
  <time>2026-08-28T17:51:44Z</time>
  <course>0.0</course>
  <speed>0.0</speed>
  <fix>3d</fix>
</trkpt>
<trkpt lat="40.0713751" lon="-105.2297889">
  <ele>1582.95</ele>
  <time>2026-08-28T17:51:44Z</time>
  <course>247.09</course>
  <speed>0.022360679774997897</speed>
  <fix>3d</fix>
</trkpt>
<trkpt lat="40.0713749" lon="-105.229789">
  <ele>1583.0</ele>
  <time>2026-08-28T17:51:44Z</time>
  <course>0.0</course>
  <speed>0.0</speed>
  <fix>3d</fix>
</trkpt>
<trkpt lat="40.0713751" lon="-105.2297889">
  <ele>1582.96</ele>
  <time>2026-08-28T17:51:44Z</time>
  <course>247.09</course>
  <speed>0.022360679774997897</speed>
  <fix>3d</fix>
</trkpt>
<trkpt lat="40.0713749" lon="-105.229789">
  <ele>1583.0</ele>
  <time>2026-08-28T17:51:44Z</time>
  <course>0.0</course>
  <speed>0.0</speed>
  <fix>3d</fix>
</trkpt>
<trkpt lat="40.0713751" lon="-105.2297889">
  <ele>1582.97</ele>
  <time>2026-08-28T17:51:44Z</time>
  <course>247.09</course>
  <speed>0.022360679774997897</speed>
  <fix>3d</fix>
</trkpt>
<trkpt lat="40.0713749" lon="-105.229789">
  <ele>1583.0</ele>
  <time>2026-08-28T17:51:44Z</time>
  <course>0.0</course>
  <speed>0.0</speed>
  <fix>3d</fix>
</trkpt>
<trkpt lat="40.0713751" lon="-105.2297889">
  <ele>1582.98</ele>
  <time>2026-08-28T17:51:44Z</time>
  <course>247.09</course>
  <speed>0.022360679774997897</speed>
  <fix>3d</fix>
</trkpt>
<trkpt lat="40.0713749" lon="-105.229789">
  <ele>1583.0</ele>
  <time>2026-08-28T17:51:44Z</time>
  <course>0.0</course>
  <speed>0.0</speed>
  <fix>3d</fix>
</trkpt>
<trkpt lat="40.0713751" lon="-105.2297889">
  <ele>1582.99</ele>
  <time>2026-08-28T17:51:44Z</time>
  <course>247.09</course>
  <speed>0.022360679774997897</speed>
  <fix>3d</fix>
</trkpt>
<trkpt lat="40.0713749" lon="-105.229789">
  <ele>1583.0</ele>
  <time>2026-08-28T17:51:44Z</time>
  <course>0.0</course>
  <speed>0.0</speed>
  <fix>3d</fix>
</trkpt>
<trkpt lat="40.0713751" lon="-105.2297889">
  <ele>1582.99</ele>
  <time>2026-08-28T17:51:44Z</time>
  <course>247.09</course>
  <speed>0.022360679774997897</speed>
  <fix>3d</fix>
</trkpt>
<trkpt lat="40.0713749" lon="-105.229789">
  <ele>1583.0</ele>
  <time>2026-08-28T17:51:44Z</time>
  <course>0.0</course>
  <speed>0.0</speed>
  <fix>3d</fix>
</trkpt>
<trkpt lat="40.0713751" lon="-105.2297889">
  <ele>1583.0</ele>
  <time>2026-08-28T17:51:44Z</time>
  <course>247.09</course>
  <speed>0.022360679774997897</speed>
  <fix>3d</fix>
</trkpt>
<trkpt lat="40.0713749" lon="-105.229789">
  <ele>1583.0</ele>
  <time>2026-08-28T17:51:44Z</time>
  <course>0.0</course>
  <speed>0.0</speed>
  <fix>3d</fix>
</trkpt>
<trkpt lat="40.0713751" lon="-105.2297889">
  <ele>1583.0</ele>
  <time>2026-08-28T17:51:44Z</time>
  <course>247.09</course>
  <speed>0.022360679774997897</speed>
  <fix>3d</fix>
</trkpt>
<trkpt lat="40.0713749" lon="-105.229789">
  <ele>1583.0</ele>
  <time>2026-08-28T17:51:44Z</time>
  <course>0.0</course>
  <speed>0.0</speed>
  <fix>3d</fix>
</trkpt>
<trkpt lat="40.0713751" lon="-105.2297889">
  <ele>1583.0</ele>
  <time>2026-08-28T17:51:44Z</time>
  <course>247.09</course>
  <speed>0.022360679774997897</speed>
  <fix>3d</fix>
</trkpt>
<trkpt lat="40.0713749" lon="-105.229789">
  <ele>1583.0</ele>
  <time>2026-08-28T17:51:44Z</time>
  <course>0.0</course>
  <speed>0.0</speed>
  <fix>3d</fix>
</trkpt>
<trkpt lat="40.0713751" lon="-105.2297889">
  <ele>1582.99</ele>
  <time>2026-08-28T17:51:44Z</time>
  <course>247.09</course>
  <speed>0.022360679774997897</speed>
  <fix>3d</fix>
</trkpt>
<trkpt lat="40.0713749" lon="-105.229789">
  <ele>1583.0</ele>
  <time>2026-08-28T17:51:44Z</time>
  <course>0.0</course>
  <speed>0.0</speed>
  <fix>3d</fix>
</trkpt>
<trkpt lat="40.0713751" lon="-105.2297889">
  <ele>1582.99</ele>
  <time>2026-08-28T17:51:44Z</time>
  <course>247.09</course>
  <speed>0.022360679774997897</speed>
  <fix>3d</fix>
</trkpt>
<trkpt lat="40.0713749" lon="-105.229789">
  <ele>1583.0</ele>
  <time>2026-08-28T17:51:44Z</time>
  <course>0.0</course>
  <speed>0.0</speed>
  <fix>3d</fix>
</trkpt>
<trkpt lat="40.0713751" lon="-105.2297889">
  <ele>1582.99</ele>
  <time>2026-08-28T17:51:44Z</time>
  <course>247.09</course>
  <speed>0.022360679774997897</speed>
  <fix>3d</fix>
</trkpt>
<trkpt lat="40.0713749" lon="-105.229789">
  <ele>1583.0</ele>
  <time>2026-08-28T17:51:44Z</time>
  <course>0.0</course>
  <speed>0.0</speed>
  <fix>3d</fix>
</trkpt>
<trkpt lat="40.0713751" lon="-105.2297889">
  <ele>1582.98</ele>
  <time>2026-08-28T17:51:44Z</time>
  <course>247.09</course>
  <speed>0.022360679774997897</speed>
  <fix>3d</fix>
</trkpt>
<trkpt lat="40.0713749" lon="-105.229789">
  <ele>1583.0</ele>
  <time>2026-08-28T17:51:44Z</time>
  <course>0.0</course>
  <speed>0.0</speed>
  <fix>3d</fix>
</trkpt>
<trkpt lat="40.071375" lon="-105.2297889">
  <ele>1582.98</ele>
  <time>2026-08-28T17:51:44Z</time>
  <course>247.09</course>
  <speed>0.022360679774997897</speed>
  <fix>3d</fix>
</trkpt>
<trkpt lat="40.0713749" lon="-105.229789">
  <ele>1583.0</ele>
  <time>2026-08-28T17:51:44Z</time>
  <course>0.0</course>
  <speed>0.0</speed>
  <fix>3d</fix>
</trkpt>
<trkpt lat="40.0713751" lon="-105.2297889">
  <ele>1582.97</ele>
  <time>2026-08-28T17:51:44Z</time>
  <course>247.09</course>
  <speed>0.022360679774997897</speed>
  <fix>3d</fix>
</trkpt>
<trkpt lat="40.0713749" lon="-105.229789">
  <ele>1583.0</ele>
  <time>2026-08-28T17:51:44Z</time>
  <course>0.0</course>
  <speed>0.0</speed>
  <fix>3d</fix>
</trkpt>
<trkpt lat="40.071375" lon="-105.2297889">
  <ele>1582.96</ele>
  <time>2026-08-28T17:51:44Z</time>
  <course>247.09</course>
  <speed>0.022360679774997897</speed>
  <fix>3d</fix>
</trkpt>
<trkpt lat="40.0713749" lon="-105.229789">
  <ele>1583.0</ele>
  <time>2026-08-28T17:51:44Z</time>
  <course>0.0</course>
  <speed>0.0</speed>
  <fix>3d</fix>
</trkpt>
<trkpt lat="40.0713751" lon="-105.2297889">
  <ele>1582.96</ele>
  <time>2026-08-28T17:51:44Z</time>
  <course>247.09</course>
  <speed>0.022360679774997897</speed>
  <fix>3d</fix>
</trkpt>
<trkpt lat="40.0713749" lon="-105.229789">
  <ele>1583.0</ele>
  <time>2026-08-28T17:51:44Z</time>
  <course>0.0</course>
  <speed>0.0</speed>
  <fix>3d</fix>
</trkpt>
<trkpt lat="40.071375" lon="-105.2297889">
  <ele>1582.95</ele>
  <time>2026-08-28T17:51:44Z</time>
  <course>247.09</course>
  <speed>0.022360679774997897</speed>
  <fix>3d</fix>
</trkpt>
<trkpt lat="40.0713749" lon="-105.229789">
  <ele>1583.0</ele>
  <time>2026-08-28T17:51:44Z</time>
  <course>0.0</course>
  <speed>0.0</speed>
  <fix>3d</fix>
</trkpt>
<trkpt lat="40.0713751" lon="-105.2297889">
  <ele>1582.96</ele>
  <time>2026-08-28T17:51:44Z</time>
  <course>247.09</course>
  <speed>0.022360679774997897</speed>
  <fix>3d</fix>
</trkpt>
<trkpt lat="40.0713749" lon="-105.229789">
  <ele>1583.0</ele>
  <time>2026-08-28T17:51:44Z</time>
  <course>0.0</course>
  <speed>0.0</speed>
  <fix>3d</fix>
</trkpt>
<trkpt lat="40.071375" lon="-105.2297889">
  <ele>1582.96</ele>
  <time>2026-08-28T17:51:44Z</time>
  <course>247.09</course>
  <speed>0.022360679774997897</speed>
  <fix>3d</fix>
</trkpt>
<trkpt lat="40.0713749" lon="-105.229789">
  <ele>1583.0</ele>
  <time>2026-08-28T17:51:44Z</time>
  <course>0.0</course>
  <speed>0.0</speed>
  <fix>3d</fix>
</trkpt>
<trkpt lat="40.0713751" lon="-105.2297889">
  <ele>1582.97</ele>
  <time>2026-08-28T17:51:44Z</time>
  <course>247.09</course>
  <speed>0.022360679774997897</speed>
  <fix>3d</fix>
</trkpt>
<trkpt lat="40.0713749" lon="-105.229789">
  <ele>1583.0</ele>
  <time>2026-08-28T17:51:44Z</time>
  <course>0.0</course>
  <speed>0.0</speed>
  <fix>3d</fix>
</trkpt>
<trkpt lat="40.071375" lon="-105.2297889">
  <ele>1582.98</ele>
  <time>2026-08-28T17:51:44Z</time>
  <course>247.09</course>
  <speed>0.022360679774997897</speed>
  <fix>3d</fix>
</trkpt>
<trkpt lat="40.0713749" lon="-105.229789">
  <ele>1583.0</ele>
  <time>2026-08-28T17:51:44Z</time>
  <course>0.0</course>
  <speed>0.0</speed>
  <fix>3d</fix>
</trkpt>
<trkpt lat="40.0713751" lon="-105.2297889">
  <ele>1582.99</ele>
  <time>2026-08-28T17:51:44Z</time>
  <course>247.09</course>
  <speed>0.022360679774997897</speed>
  <fix>3d</fix>
</trkpt>
<trkpt lat="40.0713749" lon="-105.229789">
  <ele>1583.0</ele>
  <time>2026-08-28T17:51:44Z</time>
  <course>0.0</course>
  <speed>0.0</speed>
  <fix>3d</fix>
</trkpt>
<trkpt lat="40.071375" lon="-105.2297889">
  <ele>1582.99</ele>
  <time>2026-08-28T17:51:44Z</time>
  <course>247.09</course>
  <speed>0.022360679774997897</speed>
  <fix>3d</fix>
</trkpt>
<trkpt lat="40.0713749" lon="-105.229789">
  <ele>1583.0</ele>
  <time>2026-08-28T17:51:44Z</time>
  <course>0.0</course>
  <speed>0.0</speed>
  <fix>3d</fix>
</trkpt>
<trkpt lat="40.0713751" lon="-105.2297889">
  <ele>1583.0</ele>
  <time>2026-08-28T17:51:44Z</time>
  <course>247.09</course>
  <speed>0.022360679774997897</speed>
  <fix>3d</fix>
</trkpt>
<trkpt lat="40.0713749" lon="-105.229789">
  <ele>1583.0</ele>
  <time>2026-08-28T17:51:44Z</time>
  <course>0.0</course>
  <speed>0.0</speed>
  <fix>3d</fix>
</trkpt>
<trkpt lat="40.0713751" lon="-105.2297889">
  <ele>1583.01</ele>
  <time>2026-08-28T17:51:44Z</time>
  <course>247.09</course>
  <speed>0.022360679774997897</speed>
  <fix>3d</fix>
</trkpt>
<trkpt lat="40.0713749" lon="-105.229789">
  <ele>1583.0</ele>
  <time>2026-08-28T17:51:44Z</time>
  <course>0.0</course>
  <speed>0.0</speed>
  <fix>3d</fix>
</trkpt>
<trkpt lat="40.0713751" lon="-105.2297889">
  <ele>1583.01</ele>
  <time>2026-08-28T17:51:44Z</time>
  <course>247.09</course>
  <speed>0.022360679774997897</speed>
  <fix>3d</fix>
</trkpt>
<trkpt lat="40.0713749" lon="-105.229789">
  <ele>1583.0</ele>
  <time>2026-08-28T17:51:44Z</time>
  <course>0.0</course>
  <speed>0.0</speed>
  <fix>3d</fix>
</trkpt>
<trkpt lat="40.0713751" lon="-105.2297889">
  <ele>1583.02</ele>
  <time>2026-08-28T17:51:44Z</time>
  <course>247.09</course>
  <speed>0.022360679774997897</speed>
  <fix>3d</fix>
</trkpt>
<trkpt lat="40.0713749" lon="-105.229789">
  <ele>1583.0</ele>
  <time>2026-08-28T17:51:44Z</time>
  <course>0.0</course>
  <speed>0.0</speed>
  <fix>3d</fix>
</trkpt>
<trkpt lat="40.0713751" lon="-105.2297889">
  <ele>1583.02</ele>
  <time>2026-08-28T17:51:44Z</time>
  <course>247.09</course>
  <speed>0.022360679774997897</speed>
  <fix>3d</fix>
</trkpt>
<trkpt lat="40.0713749" lon="-105.229789">
  <ele>1583.0</ele>
  <time>2026-08-28T17:51:44Z</time>
  <course>0.0</course>
  <speed>0.0</speed>
  <fix>3d</fix>
</trkpt>
<trkpt lat="40.0713751" lon="-105.2297889">
  <ele>1583.03</ele>
  <time>2026-08-28T17:51:44Z</time>
  <course>247.09</course>
  <speed>0.022360679774997897</speed>
  <fix>3d</fix>
</trkpt>
<trkpt lat="40.0713749" lon="-105.229789">
  <ele>1583.0</ele>
  <time>2026-08-28T17:51:44Z</time>
  <course>0.0</course>
  <speed>0.0</speed>
  <fix>3d</fix>
</trkpt>
<trkpt lat="40.0713751" lon="-105.2297889">
  <ele>1583.03</ele>
  <time>2026-08-28T17:51:44Z</time>
  <course>247.09</course>
  <speed>0.022360679774997897</speed>
  <fix>3d</fix>
</trkpt>
<trkpt lat="40.0713749" lon="-105.229789">
  <ele>1583.0</ele>
  <time>2026-08-28T17:51:44Z</time>
  <course>0.0</course>
  <speed>0.0</speed>
  <fix>3d</fix>
</trkpt>
<trkpt lat="40.0713751" lon="-105.2297889">
  <ele>1583.04</ele>
  <time>2026-08-28T17:51:44Z</time>
  <course>247.09</course>
  <speed>0.022360679774997897</speed>
  <fix>3d</fix>
</trkpt>
<trkpt lat="40.0713749" lon="-105.229789">
  <ele>1583.0</ele>
  <time>2026-08-28T17:51:44Z</time>
  <course>0.0</course>
  <speed>0.0</speed>
  <fix>3d</fix>
</trkpt>
<trkpt lat="40.0713751" lon="-105.2297889">
  <ele>1583.04</ele>
  <time>2026-08-28T17:51:44Z</time>
  <course>247.09</course>
  <speed>0.022360679774997897</speed>
  <fix>3d</fix>
</trkpt>
<trkpt lat="40.0713749" lon="-105.229789">
  <ele>1583.0</ele>
  <time>2026-08-28T17:51:44Z</time>
  <course>0.0</course>
  <speed>0.0</speed>
  <fix>3d</fix>
</trkpt>
<trkpt lat="40.071375" lon="-105.2297889">
  <ele>1583.04</ele>
  <time>2026-08-28T17:51:44Z</time>
  <course>247.09</course>
  <speed>0.022360679774997897</speed>
  <fix>3d</fix>
</trkpt>
<trkpt lat="40.0713749" lon="-105.229789">
  <ele>1583.0</ele>
  <time>2026-08-28T17:51:44Z</time>
  <course>0.0</course>
  <speed>0.0</speed>
  <fix>3d</fix>
</trkpt>
<trkpt lat="39.655741" lon="-104.1383097">
  <ele>1566.58</ele>
  <time>2026-08-28T17:51:45Z</time>
  <course>0.0</course>
  <speed>0.0</speed>
  <fix>3d</fix>
</trkpt>
<trkpt lat="40.0713749" lon="-105.229789">
  <ele>1583.0</ele>
  <time>2026-08-28T17:51:45Z</time>
  <course>0.0</course>
  <speed>0.0</speed>
  <fix>3d</fix>
</trkpt>
<trkpt lat="40.0713749" lon="-105.229789">
  <ele>1583.0</ele>
  <time>2026-08-28T17:51:45Z</time>
  <course>238.36</course>
  <speed>0.0</speed>
  <fix>3d</fix>
</trkpt>
<trkpt lat="40.0713749" lon="-105.229789">
  <ele>1583.0</ele>
  <time>2026-08-28T17:51:45Z</time>
  <course>0.0</course>
  <speed>0.0</speed>
  <fix>3d</fix>
</trkpt>
<trkpt lat="40.0713749" lon="-105.229789">
  <ele>1583.0</ele>
  <time>2026-08-28T17:51:45Z</time>
  <course>238.44</course>
  <speed>0.0</speed>
  <fix>3d</fix>
</trkpt>
<trkpt lat="40.0713749" lon="-105.229789">
  <ele>1583.0</ele>
  <time>2026-08-28T17:51:45Z</time>
  <course>0.0</course>
  <speed>0.0</speed>
  <fix>3d</fix>
</trkpt>
<trkpt lat="40.0713749" lon="-105.229789">
  <ele>1583.0</ele>
  <time>2026-08-28T17:51:45Z</time>
  <course>238.64</course>
  <speed>0.0</speed>
  <fix>3d</fix>
</trkpt>
<trkpt lat="40.0713749" lon="-105.229789">
  <ele>1583.0</ele>
  <time>2026-08-28T17:51:45Z</time>
  <course>0.0</course>
  <speed>0.0</speed>
  <fix>3d</fix>
</trkpt>
<trkpt lat="40.0713749" lon="-105.229789">
  <ele>1583.0</ele>
  <time>2026-08-28T17:51:45Z</time>
  <course>238.93</course>
  <speed>0.0</speed>
  <fix>3d</fix>
</trkpt>
<trkpt lat="40.0713749" lon="-105.229789">
  <ele>1583.0</ele>
  <time>2026-08-28T17:51:45Z</time>
  <course>0.0</course>
  <speed>0.0</speed>
  <fix>3d</fix>
</trkpt>
<trkpt lat="40.0713749" lon="-105.229789">
  <ele>1583.0</ele>
  <time>2026-08-28T17:51:45Z</time>
  <course>239.26</course>
  <speed>0.0</speed>
  <fix>3d</fix>
</trkpt>
<trkpt lat="40.0713749" lon="-105.229789">
  <ele>1583.0</ele>
  <time>2026-08-28T17:51:45Z</time>
  <course>0.0</course>
  <speed>0.0</speed>
  <fix>3d</fix>
</trkpt>
<trkpt lat="40.0713749" lon="-105.229789">
  <ele>1583.0</ele>
  <time>2026-08-28T17:51:45Z</time>
  <course>239.61</course>
  <speed>0.0</speed>
  <fix>3d</fix>
</trkpt>
<trkpt lat="40.0713749" lon="-105.229789">
  <ele>1583.0</ele>
  <time>2026-08-28T17:51:45Z</time>
  <course>0.0</course>
  <speed>0.0</speed>
  <fix>3d</fix>
</trkpt>
<trkpt lat="40.0713749" lon="-105.229789">
  <ele>1583.0</ele>
  <time>2026-08-28T17:51:45Z</time>
  <course>239.96</course>
  <speed>0.0</speed>
  <fix>3d</fix>
</trkpt>
<trkpt lat="40.0713749" lon="-105.229789">
  <ele>1583.0</ele>
  <time>2026-08-28T17:51:45Z</time>
  <course>0.0</course>
  <speed>0.0</speed>
  <fix>3d</fix>
</trkpt>
<trkpt lat="40.0713749" lon="-105.229789">
  <ele>1583.0</ele>
  <time>2026-08-28T17:51:45Z</time>
  <course>240.29</course>
  <speed>0.0</speed>
  <fix>3d</fix>
</trkpt>
<trkpt lat="40.0713749" lon="-105.229789">
  <ele>1583.0</ele>
  <time>2026-08-28T17:51:45Z</time>
  <course>0.0</course>
  <speed>0.0</speed>
  <fix>3d</fix>
</trkpt>
<trkpt lat="40.0713749" lon="-105.229789">
  <ele>1583.0</ele>
  <time>2026-08-28T17:51:45Z</time>
  <course>240.61</course>
  <speed>0.0</speed>
  <fix>3d</fix>
</trkpt>
<trkpt lat="40.0713749" lon="-105.229789">
  <ele>1583.0</ele>
  <time>2026-08-28T17:51:45Z</time>
  <course>0.0</course>
  <speed>0.0</speed>
  <fix>3d</fix>
</trkpt>
<trkpt lat="40.0713749" lon="-105.229789">
  <ele>1583.0</ele>
  <time>2026-08-28T17:51:45Z</time>
  <course>240.92</course>
  <speed>0.0</speed>
  <fix>3d</fix>
</trkpt>
<trkpt lat="40.0713749" lon="-105.229789">
  <ele>1583.0</ele>
  <time>2026-08-28T17:51:45Z</time>
  <course>0.0</course>
  <speed>0.0</speed>
  <fix>3d</fix>
</trkpt>
<trkpt lat="40.0713749" lon="-105.229789">
  <ele>1583.0</ele>
  <time>2026-08-28T17:51:45Z</time>
  <course>241.21</course>
  <speed>0.0</speed>
  <fix>3d</fix>
</trkpt>
<trkpt lat="40.0713749" lon="-105.229789">
  <ele>1583.0</ele>
  <time>2026-08-28T17:51:45Z</time>
  <course>0.0</course>
  <speed>0.0</speed>
  <fix>3d</fix>
</trkpt>
<trkpt lat="40.0713749" lon="-105.229789">
  <ele>1583.0</ele>
  <time>2026-08-28T17:51:45Z</time>
  <course>241.49</course>
  <speed>0.0</speed>
  <fix>3d</fix>
</trkpt>
<trkpt lat="40.0713749" lon="-105.229789">
  <ele>1583.0</ele>
  <time>2026-08-28T17:51:45Z</time>
  <course>0.0</course>
  <speed>0.0</speed>
  <fix>3d</fix>
</trkpt>
<trkpt lat="40.0713749" lon="-105.229789">
  <ele>1583.0</ele>
  <time>2026-08-28T17:51:45Z</time>
  <course>241.77</course>
  <speed>0.0</speed>
  <fix>3d</fix>
</trkpt>
<trkpt lat="40.0713749" lon="-105.229789">
  <ele>1583.0</ele>
  <time>2026-08-28T17:51:45Z</time>
  <course>0.0</course>
  <speed>0.0</speed>
  <fix>3d</fix>
</trkpt>
<trkpt lat="40.0713749" lon="-105.229789">
  <ele>1583.0</ele>
  <time>2026-08-28T17:51:45Z</time>
  <course>242.03</course>
  <speed>0.0</speed>
  <fix>3d</fix>
</trkpt>
<trkpt lat="40.0713749" lon="-105.229789">
  <ele>1583.0</ele>
  <time>2026-08-28T17:51:45Z</time>
  <course>0.0</course>
  <speed>0.0</speed>
  <fix>3d</fix>
</trkpt>
<trkpt lat="40.0713749" lon="-105.229789">
  <ele>1583.0</ele>
  <time>2026-08-28T17:51:45Z</time>
  <course>242.29</course>
  <speed>0.0</speed>
  <fix>3d</fix>
</trkpt>
<trkpt lat="40.0713749" lon="-105.229789">
  <ele>1583.0</ele>
  <time>2026-08-28T17:51:45Z</time>
  <course>0.0</course>
  <speed>0.0</speed>
  <fix>3d</fix>
</trkpt>
<trkpt lat="40.0713749" lon="-105.229789">
  <ele>1583.0</ele>
  <time>2026-08-28T17:51:45Z</time>
  <course>242.54</course>
  <speed>0.0</speed>
  <fix>3d</fix>
</trkpt>
<trkpt lat="40.0713749" lon="-105.229789">
  <ele>1583.0</ele>
  <time>2026-08-28T17:51:45Z</time>
  <course>0.0</course>
  <speed>0.0</speed>
  <fix>3d</fix>
</trkpt>
<trkpt lat="40.0713749" lon="-105.229789">
  <ele>1583.0</ele>
  <time>2026-08-28T17:51:45Z</time>
  <course>242.79</course>
  <speed>0.0</speed>
  <fix>3d</fix>
</trkpt>
<trkpt lat="40.0713749" lon="-105.229789">
  <ele>1583.0</ele>
  <time>2026-08-28T17:51:45Z</time>
  <course>0.0</course>
  <speed>0.0</speed>
  <fix>3d</fix>
</trkpt>
<trkpt lat="40.0713749" lon="-105.229789">
  <ele>1583.0</ele>
  <time>2026-08-28T17:51:45Z</time>
  <course>243.02</course>
  <speed>0.0</speed>
  <fix>3d</fix>
</trkpt>
<trkpt lat="40.0713749" lon="-105.229789">
  <ele>1583.0</ele>
  <time>2026-08-28T17:51:45Z</time>
  <course>0.0</course>
  <speed>0.0</speed>
  <fix>3d</fix>
</trkpt>
<trkpt lat="40.0713749" lon="-105.229789">
  <ele>1583.0</ele>
  <time>2026-08-28T17:51:45Z</time>
  <course>243.25</course>
  <speed>0.0</speed>
  <fix>3d</fix>
</trkpt>
<trkpt lat="40.0713749" lon="-105.229789">
  <ele>1583.0</ele>
  <time>2026-08-28T17:51:45Z</time>
  <course>0.0</course>
  <speed>0.0</speed>
  <fix>3d</fix>
</trkpt>
<trkpt lat="40.0713749" lon="-105.229789">
  <ele>1583.0</ele>
  <time>2026-08-28T17:51:45Z</time>
  <course>243.47</course>
  <speed>0.0</speed>
  <fix>3d</fix>
</trkpt>
<trkpt lat="40.0713749" lon="-105.229789">
  <ele>1583.0</ele>
  <time>2026-08-28T17:51:45Z</time>
  <course>0.0</course>
  <speed>0.0</speed>
  <fix>3d</fix>
</trkpt>
<trkpt lat="40.0713749" lon="-105.229789">
  <ele>1583.0</ele>
  <time>2026-08-28T17:51:45Z</time>
  <course>243.68</course>
  <speed>0.0</speed>
  <fix>3d</fix>
</trkpt>
<trkpt lat="40.0713749" lon="-105.229789">
  <ele>1583.0</ele>
  <time>2026-08-28T17:51:45Z</time>
  <course>0.0</course>
  <speed>0.0</speed>
  <fix>3d</fix>
</trkpt>
<trkpt lat="40.0713749" lon="-105.229789">
  <ele>1583.0</ele>
  <time>2026-08-28T17:51:45Z</time>
  <course>243.89</course>
  <speed>0.0</speed>
  <fix>3d</fix>
</trkpt>
<trkpt lat="40.0713749" lon="-105.229789">
  <ele>1583.0</ele>
  <time>2026-08-28T17:51:45Z</time>
  <course>0.0</course>
  <speed>0.0</speed>
  <fix>3d</fix>
</trkpt>
<trkpt lat="40.0713749" lon="-105.229789">
  <ele>1583.0</ele>
  <time>2026-08-28T17:51:45Z</time>
  <course>244.09</course>
  <speed>0.0</speed>
  <fix>3d</fix>
</trkpt>
<trkpt lat="40.0713749" lon="-105.229789">
  <ele>1583.0</ele>
  <time>2026-08-28T17:51:45Z</time>
  <course>0.0</course>
  <speed>0.0</speed>
  <fix>3d</fix>
</trkpt>
<trkpt lat="40.0713749" lon="-105.229789">
  <ele>1583.0</ele>
  <time>2026-08-28T17:51:45Z</time>
  <course>244.28</course>
  <speed>0.0</speed>
  <fix>3d</fix>
</trkpt>
<trkpt lat="40.0713749" lon="-105.229789">
  <ele>1583.0</ele>
  <time>2026-08-28T17:51:45Z</time>
  <course>0.0</course>
  <speed>0.0</speed>
  <fix>3d</fix>
</trkpt>
<trkpt lat="40.0713749" lon="-105.229789">
  <ele>1583.0</ele>
  <time>2026-08-28T17:51:45Z</time>
  <course>244.46</course>
  <speed>0.0</speed>
  <fix>3d</fix>
</trkpt>
<trkpt lat="40.0713749" lon="-105.229789">
  <ele>1583.0</ele>
  <time>2026-08-28T17:51:45Z</time>
  <course>0.0</course>
  <speed>0.0</speed>
  <fix>3d</fix>
</trkpt>
<trkpt lat="40.0713749" lon="-105.229789">
  <ele>1583.0</ele>
  <time>2026-08-28T17:51:45Z</time>
  <course>244.64</course>
  <speed>0.0</speed>
  <fix>3d</fix>
</trkpt>
<trkpt lat="40.0713749" lon="-105.229789">
  <ele>1583.0</ele>
  <time>2026-08-28T17:51:45Z</time>
  <course>0.0</course>
  <speed>0.0</speed>
  <fix>3d</fix>
</trkpt>
<trkpt lat="40.0713749" lon="-105.229789">
  <ele>1583.0</ele>
  <time>2026-08-28T17:51:45Z</time>
  <course>244.81</course>
  <speed>0.0</speed>
  <fix>3d</fix>
</trkpt>
<trkpt lat="40.0713749" lon="-105.229789">
  <ele>1583.0</ele>
  <time>2026-08-28T17:51:45Z</time>
  <course>0.0</course>
  <speed>0.0</speed>
  <fix>3d</fix>
</trkpt>
<trkpt lat="40.0713749" lon="-105.229789">
  <ele>1583.0</ele>
  <time>2026-08-28T17:51:45Z</time>
  <course>244.97</course>
  <speed>0.0</speed>
  <fix>3d</fix>
</trkpt>
<trkpt lat="40.0713749" lon="-105.229789">
  <ele>1583.0</ele>
  <time>2026-08-28T17:51:45Z</time>
  <course>0.0</course>
  <speed>0.0</speed>
  <fix>3d</fix>
</trkpt>
<trkpt lat="40.0713749" lon="-105.229789">
  <ele>1583.0</ele>
  <time>2026-08-28T17:51:45Z</time>
  <course>245.13</course>
  <speed>0.0</speed>
  <fix>3d</fix>
</trkpt>
<trkpt lat="40.0713749" lon="-105.229789">
  <ele>1583.0</ele>
  <time>2026-08-28T17:51:45Z</time>
  <course>0.0</course>
  <speed>0.0</speed>
  <fix>3d</fix>
</trkpt>
<trkpt lat="40.0713749" lon="-105.229789">
  <ele>1583.0</ele>
  <time>2026-08-28T17:51:45Z</time>
  <course>245.29</course>
  <speed>0.0</speed>
  <fix>3d</fix>
</trkpt>
<trkpt lat="40.0713749" lon="-105.229789">
  <ele>1583.0</ele>
  <time>2026-08-28T17:51:45Z</time>
  <course>0.0</course>
  <speed>0.0</speed>
  <fix>3d</fix>
</trkpt>
<trkpt lat="40.0713749" lon="-105.229789">
  <ele>1583.0</ele>
  <time>2026-08-28T17:51:45Z</time>
  <course>245.43</course>
  <speed>0.0</speed>
  <fix>3d</fix>
</trkpt>
<trkpt lat="40.0713749" lon="-105.229789">
  <ele>1583.0</ele>
  <time>2026-08-28T17:51:45Z</time>
  <course>0.0</course>
  <speed>0.0</speed>
  <fix>3d</fix>
</trkpt>
<trkpt lat="40.0713749" lon="-105.229789">
  <ele>1583.0</ele>
  <time>2026-08-28T17:51:45Z</time>
  <course>245.57</course>
  <speed>0.0</speed>
  <fix>3d</fix>
</trkpt>
<trkpt lat="40.0713749" lon="-105.229789">
  <ele>1583.0</ele>
  <time>2026-08-28T17:51:45Z</time>
  <course>0.0</course>
  <speed>0.0</speed>
  <fix>3d</fix>
</trkpt>
<trkpt lat="40.0713749" lon="-105.229789">
  <ele>1583.0</ele>
  <time>2026-08-28T17:51:45Z</time>
  <course>245.71</course>
  <speed>0.0</speed>
  <fix>3d</fix>
</trkpt>
<trkpt lat="40.0713749" lon="-105.229789">
  <ele>1583.0</ele>
  <time>2026-08-28T17:51:45Z</time>
  <course>0.0</course>
  <speed>0.0</speed>
  <fix>3d</fix>
</trkpt>
<trkpt lat="40.0713749" lon="-105.229789">
  <ele>1583.0</ele>
  <time>2026-08-28T17:51:45Z</time>
  <course>245.84</course>
  <speed>0.0</speed>
  <fix>3d</fix>
</trkpt>
<trkpt lat="40.0713749" lon="-105.229789">
  <ele>1583.0</ele>
  <time>2026-08-28T17:51:45Z</time>
  <course>0.0</course>
  <speed>0.0</speed>
  <fix>3d</fix>
</trkpt>
<trkpt lat="40.0713749" lon="-105.229789">
  <ele>1583.0</ele>
  <time>2026-08-28T17:51:45Z</time>
  <course>245.96</course>
  <speed>0.0</speed>
  <fix>3d</fix>
</trkpt>
<trkpt lat="40.0713749" lon="-105.229789">
  <ele>1583.0</ele>
  <time>2026-08-28T17:51:45Z</time>
  <course>0.0</course>
  <speed>0.0</speed>
  <fix>3d</fix>
</trkpt>
<trkpt lat="40.0713749" lon="-105.229789">
  <ele>1583.0</ele>
  <time>2026-08-28T17:51:45Z</time>
  <course>246.08</course>
  <speed>0.0</speed>
  <fix>3d</fix>
</trkpt>
<trkpt lat="40.0713749" lon="-105.229789">
  <ele>1583.0</ele>
  <time>2026-08-28T17:51:45Z</time>
  <course>0.0</course>
  <speed>0.0</speed>
  <fix>3d</fix>
</trkpt>
<trkpt lat="40.0713749" lon="-105.229789">
  <ele>1583.0</ele>
  <time>2026-08-28T17:51:45Z</time>
  <course>246.19</course>
  <speed>0.0</speed>
  <fix>3d</fix>
</trkpt>
<trkpt lat="40.0713749" lon="-105.229789">
  <ele>1583.0</ele>
  <time>2026-08-28T17:51:45Z</time>
  <course>0.0</course>
  <speed>0.0</speed>
  <fix>3d</fix>
</trkpt>
<trkpt lat="40.0713749" lon="-105.229789">
  <ele>1583.0</ele>
  <time>2026-08-28T17:51:45Z</time>
  <course>246.3</course>
  <speed>0.0</speed>
  <fix>3d</fix>
</trkpt>
<trkpt lat="40.0713749" lon="-105.229789">
  <ele>1583.0</ele>
  <time>2026-08-28T17:51:45Z</time>
  <course>0.0</course>
  <speed>0.0</speed>
  <fix>3d</fix>
</trkpt>
<trkpt lat="40.0713749" lon="-105.229789">
  <ele>1583.0</ele>
  <time>2026-08-28T17:51:45Z</time>
  <course>246.41</course>
  <speed>0.0</speed>
  <fix>3d</fix>
</trkpt>
<trkpt lat="40.0713749" lon="-105.229789">
  <ele>1583.0</ele>
  <time>2026-08-28T17:51:45Z</time>
  <course>0.0</course>
  <speed>0.0</speed>
  <fix>3d</fix>
</trkpt>
<trkpt lat="40.0713749" lon="-105.229789">
  <ele>1583.0</ele>
  <time>2026-08-28T17:51:45Z</time>
  <course>246.51</course>
  <speed>0.0</speed>
  <fix>3d</fix>
</trkpt>
<trkpt lat="40.0713749" lon="-105.229789">
  <ele>1583.0</ele>
  <time>2026-08-28T17:51:45Z</time>
  <course>0.0</course>
  <speed>0.0</speed>
  <fix>3d</fix>
</trkpt>
<trkpt lat="40.0713749" lon="-105.229789">
  <ele>1583.0</ele>
  <time>2026-08-28T17:51:45Z</time>
  <course>246.6</course>
  <speed>0.0</speed>
  <fix>3d</fix>
</trkpt>
<trkpt lat="40.0713749" lon="-105.229789">
  <ele>1583.0</ele>
  <time>2026-08-28T17:51:45Z</time>
  <course>0.0</course>
  <speed>0.0</speed>
  <fix>3d</fix>
</trkpt>
<trkpt lat="40.0713749" lon="-105.229789">
  <ele>1583.0</ele>
  <time>2026-08-28T17:51:45Z</time>
  <course>246.7</course>
  <speed>0.0</speed>
  <fix>3d</fix>
</trkpt>
<trkpt lat="40.0713749" lon="-105.229789">
  <ele>1583.0</ele>
  <time>2026-08-28T17:51:45Z</time>
  <course>0.0</course>
  <speed>0.0</speed>
  <fix>3d</fix>
</trkpt>
<trkpt lat="40.0713749" lon="-105.229789">
  <ele>1583.0</ele>
  <time>2026-08-28T17:51:45Z</time>
  <course>246.78</course>
  <speed>0.0</speed>
  <fix>3d</fix>
</trkpt>
<trkpt lat="40.0713749" lon="-105.229789">
  <ele>1583.0</ele>
  <time>2026-08-28T17:51:45Z</time>
  <course>0.0</course>
  <speed>0.0</speed>
  <fix>3d</fix>
</trkpt>
<trkpt lat="40.0713749" lon="-105.229789">
  <ele>1583.0</ele>
  <time>2026-08-28T17:51:45Z</time>
  <course>246.87</course>
  <speed>0.0</speed>
  <fix>3d</fix>
</trkpt>
<trkpt lat="40.0713749" lon="-105.229789">
  <ele>1583.0</ele>
  <time>2026-08-28T17:51:45Z</time>
  <course>0.0</course>
  <speed>0.0</speed>
  <fix>3d</fix>
</trkpt>
<trkpt lat="40.0713749" lon="-105.229789">
  <ele>1583.0</ele>
  <time>2026-08-28T17:51:45Z</time>
  <course>246.95</course>
  <speed>0.0</speed>
  <fix>3d</fix>
</trkpt>
<trkpt lat="40.0713749" lon="-105.229789">
  <ele>1583.0</ele>
  <time>2026-08-28T17:51:45Z</time>
  <course>0.0</course>
  <speed>0.0</speed>
  <fix>3d</fix>
</trkpt>
<trkpt lat="40.0713749" lon="-105.229789">
  <ele>1583.0</ele>
  <time>2026-08-28T17:51:45Z</time>
  <course>247.02</course>
  <speed>0.0</speed>
  <fix>3d</fix>
</trkpt>
<trkpt lat="40.0713749" lon="-105.229789">
  <ele>1583.0</ele>
  <time>2026-08-28T17:51:45Z</time>
  <course>0.0</course>
  <speed>0.0</speed>
  <fix>3d</fix>
</trkpt>
<trkpt lat="40.0713749" lon="-105.229789">
  <ele>1583.0</ele>
  <time>2026-08-28T17:51:45Z</time>
  <course>247.1</course>
  <speed>0.0</speed>
  <fix>3d</fix>
</trkpt>
<trkpt lat="40.0713749" lon="-105.229789">
  <ele>1583.0</ele>
  <time>2026-08-28T17:51:45Z</time>
  <course>0.0</course>
  <speed>0.0</speed>
  <fix>3d</fix>
</trkpt>
<trkpt lat="40.0713749" lon="-105.229789">
  <ele>1583.0</ele>
  <time>2026-08-28T17:51:45Z</time>
  <course>247.17</course>
  <speed>0.0</speed>
  <fix>3d</fix>
</trkpt>
<trkpt lat="40.0713749" lon="-105.229789">
  <ele>1583.0</ele>
  <time>2026-08-28T17:51:45Z</time>
  <course>0.0</course>
  <speed>0.0</speed>
  <fix>3d</fix>
</trkpt>
<trkpt lat="40.0713749" lon="-105.229789">
  <ele>1583.0</ele>
  <time>2026-08-28T17:51:45Z</time>
  <course>247.24</course>
  <speed>0.0</speed>
  <fix>3d</fix>
</trkpt>
<trkpt lat="40.0713749" lon="-105.229789">
  <ele>1583.0</ele>
  <time>2026-08-28T17:51:45Z</time>
  <course>0.0</course>
  <speed>0.0</speed>
  <fix>3d</fix>
</trkpt>
<trkpt lat="40.0713749" lon="-105.229789">
  <ele>1583.0</ele>
  <time>2026-08-28T17:51:45Z</time>
  <course>247.3</course>
  <speed>0.0</speed>
  <fix>3d</fix>
</trkpt>
<trkpt lat="40.0713749" lon="-105.229789">
  <ele>1583.0</ele>
  <time>2026-08-28T17:51:45Z</time>
  <course>0.0</course>
  <speed>0.0</speed>
  <fix>3d</fix>
</trkpt>
<trkpt lat="40.0713749" lon="-105.229789">
  <ele>1583.0</ele>
  <time>2026-08-28T17:51:45Z</time>
  <course>247.36</course>
  <speed>0.0</speed>
  <fix>3d</fix>
</trkpt>
<trkpt lat="40.0713749" lon="-105.229789">
  <ele>1583.0</ele>
  <time>2026-08-28T17:51:45Z</time>
  <course>0.0</course>
  <speed>0.0</speed>
  <fix>3d</fix>
</trkpt>
<trkpt lat="40.0713749" lon="-105.229789">
  <ele>1583.0</ele>
  <time>2026-08-28T17:51:45Z</time>
  <course>247.42</course>
  <speed>0.0</speed>
  <fix>3d</fix>
</trkpt>
<trkpt lat="40.0713749" lon="-105.229789">
  <ele>1583.0</ele>
  <time>2026-08-28T17:51:45Z</time>
  <course>0.0</course>
  <speed>0.0</speed>
  <fix>3d</fix>
</trkpt>
<trkpt lat="40.0713749" lon="-105.229789">
  <ele>1583.0</ele>
  <time>2026-08-28T17:51:45Z</time>
  <course>247.47</course>
  <speed>0.0</speed>
  <fix>3d</fix>
</trkpt>
<trkpt lat="40.0713749" lon="-105.229789">
  <ele>1583.0</ele>
  <time>2026-08-28T17:51:45Z</time>
  <course>0.0</course>
  <speed>0.0</speed>
  <fix>3d</fix>
</trkpt>
<trkpt lat="40.0713749" lon="-105.229789">
  <ele>1583.0</ele>
  <time>2026-08-28T17:51:45Z</time>
  <course>247.53</course>
  <speed>0.0</speed>
  <fix>3d</fix>
</trkpt>
<trkpt lat="40.0713749" lon="-105.229789">
  <ele>1583.0</ele>
  <time>2026-08-28T17:51:45Z</time>
  <course>0.0</course>
  <speed>0.0</speed>
  <fix>3d</fix>
</trkpt>
<trkpt lat="40.0713749" lon="-105.229789">
  <ele>1583.0</ele>
  <time>2026-08-28T17:51:45Z</time>
  <course>247.58</course>
  <speed>0.0</speed>
  <fix>3d</fix>
</trkpt>
<trkpt lat="40.0713749" lon="-105.229789">
  <ele>1583.0</ele>
  <time>2026-08-28T17:51:45Z</time>
  <course>0.0</course>
  <speed>0.0</speed>
  <fix>3d</fix>
</trkpt>
<trkpt lat="40.0713749" lon="-105.229789">
  <ele>1583.0</ele>
  <time>2026-08-28T17:51:45Z</time>
  <course>247.63</course>
  <speed>0.0</speed>
  <fix>3d</fix>
</trkpt>
<trkpt lat="40.0713749" lon="-105.229789">
  <ele>1583.0</ele>
  <time>2026-08-28T17:51:45Z</time>
  <course>0.0</course>
  <speed>0.0</speed>
  <fix>3d</fix>
</trkpt>
<trkpt lat="40.0713749" lon="-105.229789">
  <ele>1583.0</ele>
  <time>2026-08-28T17:51:45Z</time>
  <course>247.67</course>
  <speed>0.0</speed>
  <fix>3d</fix>
</trkpt>
<trkpt lat="40.0713749" lon="-105.229789">
  <ele>1583.0</ele>
  <time>2026-08-28T17:51:45Z</time>
  <course>0.0</course>
  <speed>0.0</speed>
  <fix>3d</fix>
</trkpt>
<trkpt lat="40.0713749" lon="-105.229789">
  <ele>1583.0</ele>
  <time>2026-08-28T17:51:45Z</time>
  <course>247.72</course>
  <speed>0.0</speed>
  <fix>3d</fix>
</trkpt>
<trkpt lat="40.0713749" lon="-105.229789">
  <ele>1583.0</ele>
  <time>2026-08-28T17:51:45Z</time>
  <course>0.0</course>
  <speed>0.0</speed>
  <fix>3d</fix>
</trkpt>
<trkpt lat="40.0713749" lon="-105.229789">
  <ele>1583.0</ele>
  <time>2026-08-28T17:51:45Z</time>
  <course>247.76</course>
  <speed>0.0</speed>
  <fix>3d</fix>
</trkpt>
<trkpt lat="40.0713749" lon="-105.229789">
  <ele>1583.0</ele>
  <time>2026-08-28T17:51:45Z</time>
  <course>0.0</course>
  <speed>0.0</speed>
  <fix>3d</fix>
</trkpt>
<trkpt lat="40.0713749" lon="-105.229789">
  <ele>1583.0</ele>
  <time>2026-08-28T17:51:45Z</time>
  <course>247.8</course>
  <speed>0.0</speed>
  <fix>3d</fix>
</trkpt>
<trkpt lat="40.0713749" lon="-105.229789">
  <ele>1583.0</ele>
  <time>2026-08-28T17:51:45Z</time>
  <course>0.0</course>
  <speed>0.0</speed>
  <fix>3d</fix>
</trkpt>
<trkpt lat="40.0713749" lon="-105.229789">
  <ele>1583.0</ele>
  <time>2026-08-28T17:51:45Z</time>
  <course>247.83</course>
  <speed>0.0</speed>
  <fix>3d</fix>
</trkpt>
<trkpt lat="40.0713749" lon="-105.229789">
  <ele>1583.0</ele>
  <time>2026-08-28T17:51:45Z</time>
  <course>0.0</course>
  <speed>0.0</speed>
  <fix>3d</fix>
</trkpt>
<trkpt lat="40.0713749" lon="-105.229789">
  <ele>1583.0</ele>
  <time>2026-08-28T17:51:45Z</time>
  <course>247.87</course>
  <speed>0.0</speed>
  <fix>3d</fix>
</trkpt>
<trkpt lat="40.0713749" lon="-105.229789">
  <ele>1583.0</ele>
  <time>2026-08-28T17:51:45Z</time>
  <course>0.0</course>
  <speed>0.0</speed>
  <fix>3d</fix>
</trkpt>
<trkpt lat="40.0713749" lon="-105.229789">
  <ele>1583.0</ele>
  <time>2026-08-28T17:51:45Z</time>
  <course>247.9</course>
  <speed>0.0</speed>
  <fix>3d</fix>
</trkpt>
<trkpt lat="40.0713749" lon="-105.229789">
  <ele>1583.0</ele>
  <time>2026-08-28T17:51:45Z</time>
  <course>0.0</course>
  <speed>0.0</speed>
  <fix>3d</fix>
</trkpt>
<trkpt lat="40.0713749" lon="-105.229789">
  <ele>1583.0</ele>
  <time>2026-08-28T17:51:45Z</time>
  <course>247.94</course>
  <speed>0.0</speed>
  <fix>3d</fix>
</trkpt>
<trkpt lat="40.0713749" lon="-105.229789">
  <ele>1583.0</ele>
  <time>2026-08-28T17:51:45Z</time>
  <course>0.0</course>
  <speed>0.0</speed>
  <fix>3d</fix>
</trkpt>
<trkpt lat="40.0713749" lon="-105.229789">
  <ele>1583.0</ele>
  <time>2026-08-28T17:51:45Z</time>
  <course>247.97</course>
  <speed>0.0</speed>
  <fix>3d</fix>
</trkpt>
<trkpt lat="40.0713749" lon="-105.229789">
  <ele>1583.0</ele>
  <time>2026-08-28T17:51:45Z</time>
  <course>0.0</course>
  <speed>0.0</speed>
  <fix>3d</fix>
</trkpt>
<trkpt lat="40.0713749" lon="-105.229789">
  <ele>1583.0</ele>
  <time>2026-08-28T17:51:45Z</time>
  <course>248.0</course>
  <speed>0.0</speed>
  <fix>3d</fix>
</trkpt>
<trkpt lat="40.0713749" lon="-105.229789">
  <ele>1583.0</ele>
  <time>2026-08-28T17:51:45Z</time>
  <course>0.0</course>
  <speed>0.0</speed>
  <fix>3d</fix>
</trkpt>
<trkpt lat="40.0713749" lon="-105.229789">
  <ele>1583.0</ele>
  <time>2026-08-28T17:51:45Z</time>
  <course>248.02</course>
  <speed>0.0</speed>
  <fix>3d</fix>
</trkpt>
<trkpt lat="40.0713749" lon="-105.229789">
  <ele>1583.0</ele>
  <time>2026-08-28T17:51:45Z</time>
  <course>0.0</course>
  <speed>0.0</speed>
  <fix>3d</fix>
</trkpt>
<trkpt lat="40.0713749" lon="-105.229789">
  <ele>1583.0</ele>
  <time>2026-08-28T17:51:45Z</time>
  <course>248.05</course>
  <speed>0.0</speed>
  <fix>3d</fix>
</trkpt>
<trkpt lat="40.0713749" lon="-105.229789">
  <ele>1583.0</ele>
  <time>2026-08-28T17:51:45Z</time>
  <course>0.0</course>
  <speed>0.0</speed>
  <fix>3d</fix>
</trkpt>
<trkpt lat="40.0713749" lon="-105.229789">
  <ele>1583.0</ele>
  <time>2026-08-28T17:51:45Z</time>
  <course>248.08</course>
  <speed>0.0</speed>
  <fix>3d</fix>
</trkpt>
<trkpt lat="40.0713749" lon="-105.229789">
  <ele>1583.0</ele>
  <time>2026-08-28T17:51:45Z</time>
  <course>0.0</course>
  <speed>0.0</speed>
  <fix>3d</fix>
</trkpt>
<trkpt lat="40.0713749" lon="-105.229789">
  <ele>1583.0</ele>
  <time>2026-08-28T17:51:45Z</time>
  <course>248.1</course>
  <speed>0.0</speed>
  <fix>3d</fix>
</trkpt>
<trkpt lat="40.0713749" lon="-105.229789">
  <ele>1583.0</ele>
  <time>2026-08-28T17:51:45Z</time>
  <course>0.0</course>
  <speed>0.0</speed>
  <fix>3d</fix>
</trkpt>
<trkpt lat="40.0713749" lon="-105.229789">
  <ele>1583.0</ele>
  <time>2026-08-28T17:51:45Z</time>
  <course>248.12</course>
  <speed>0.0</speed>
  <fix>3d</fix>
</trkpt>
<trkpt lat="40.0713749" lon="-105.229789">
  <ele>1583.0</ele>
  <time>2026-08-28T17:51:45Z</time>
  <course>0.0</course>
  <speed>0.0</speed>
  <fix>3d</fix>
</trkpt>
<trkpt lat="40.0713749" lon="-105.229789">
  <ele>1583.0</ele>
  <time>2026-08-28T17:51:45Z</time>
  <course>248.14</course>
  <speed>0.0</speed>
  <fix>3d</fix>
</trkpt>
<trkpt lat="40.0713749" lon="-105.229789">
  <ele>1583.0</ele>
  <time>2026-08-28T17:51:45Z</time>
  <course>0.0</course>
  <speed>0.0</speed>
  <fix>3d</fix>
</trkpt>
<trkpt lat="40.0713749" lon="-105.229789">
  <ele>1583.0</ele>
  <time>2026-08-28T17:51:45Z</time>
  <course>248.16</course>
  <speed>0.0</speed>
  <fix>3d</fix>
</trkpt>
<trkpt lat="40.0713749" lon="-105.229789">
  <ele>1583.0</ele>
  <time>2026-08-28T17:51:45Z</time>
  <course>0.0</course>
  <speed>0.0</speed>
  <fix>3d</fix>
</trkpt>
<trkpt lat="40.0713749" lon="-105.229789">
  <ele>1583.0</ele>
  <time>2026-08-28T17:51:45Z</time>
  <course>248.18</course>
  <speed>0.0</speed>
  <fix>3d</fix>
</trkpt>
<trkpt lat="40.0713749" lon="-105.229789">
  <ele>1583.0</ele>
  <time>2026-08-28T17:51:45Z</time>
  <course>0.0</course>
  <speed>0.0</speed>
  <fix>3d</fix>
</trkpt>
<trkpt lat="40.0713749" lon="-105.229789">
  <ele>1583.0</ele>
  <time>2026-08-28T17:51:45Z</time>
  <course>248.2</course>
  <speed>0.0</speed>
  <fix>3d</fix>
</trkpt>
<trkpt lat="40.0713749" lon="-105.229789">
  <ele>1583.0</ele>
  <time>2026-08-28T17:51:45Z</time>
  <course>0.0</course>
  <speed>0.0</speed>
  <fix>3d</fix>
</trkpt>
<trkpt lat="40.0713749" lon="-105.229789">
  <ele>1583.0</ele>
  <time>2026-08-28T17:51:45Z</time>
  <course>248.22</course>
  <speed>0.0</speed>
  <fix>3d</fix>
</trkpt>
<trkpt lat="40.0713749" lon="-105.229789">
  <ele>1583.0</ele>
  <time>2026-08-28T17:51:45Z</time>
  <course>0.0</course>
  <speed>0.0</speed>
  <fix>3d</fix>
</trkpt>
<trkpt lat="40.0713749" lon="-105.229789">
  <ele>1583.0</ele>
  <time>2026-08-28T17:51:45Z</time>
  <course>248.23</course>
  <speed>0.0</speed>
  <fix>3d</fix>
</trkpt>
<trkpt lat="40.0713749" lon="-105.229789">
  <ele>1583.0</ele>
  <time>2026-08-28T17:51:45Z</time>
  <course>0.0</course>
  <speed>0.0</speed>
  <fix>3d</fix>
</trkpt>
<trkpt lat="40.0713749" lon="-105.229789">
  <ele>1583.0</ele>
  <time>2026-08-28T17:51:45Z</time>
  <course>248.25</course>
  <speed>0.0</speed>
  <fix>3d</fix>
</trkpt>
<trkpt lat="40.0713749" lon="-105.229789">
  <ele>1583.0</ele>
  <time>2026-08-28T17:51:45Z</time>
  <course>0.0</course>
  <speed>0.0</speed>
  <fix>3d</fix>
</trkpt>
<trkpt lat="40.0713749" lon="-105.229789">
  <ele>1583.0</ele>
  <time>2026-08-28T17:51:45Z</time>
  <course>248.26</course>
  <speed>0.0</speed>
  <fix>3d</fix>
</trkpt>
<trkpt lat="40.0713749" lon="-105.229789">
  <ele>1583.0</ele>
  <time>2026-08-28T17:51:45Z</time>
  <course>0.0</course>
  <speed>0.0</speed>
  <fix>3d</fix>
</trkpt>
<trkpt lat="40.0713749" lon="-105.229789">
  <ele>1583.0</ele>
  <time>2026-08-28T17:51:45Z</time>
  <course>248.28</course>
  <speed>0.0</speed>
  <fix>3d</fix>
</trkpt>
<trkpt lat="40.0713749" lon="-105.229789">
  <ele>1583.0</ele>
  <time>2026-08-28T17:51:45Z</time>
  <course>0.0</course>
  <speed>0.0</speed>
  <fix>3d</fix>
</trkpt>
<trkpt lat="40.0713749" lon="-105.229789">
  <ele>1583.0</ele>
  <time>2026-08-28T17:51:45Z</time>
  <course>248.29</course>
  <speed>0.0</speed>
  <fix>3d</fix>
</trkpt>
<trkpt lat="40.0713749" lon="-105.229789">
  <ele>1583.0</ele>
  <time>2026-08-28T17:51:45Z</time>
  <course>0.0</course>
  <speed>0.0</speed>
  <fix>3d</fix>
</trkpt>
<trkpt lat="40.0713749" lon="-105.229789">
  <ele>1583.0</ele>
  <time>2026-08-28T17:51:45Z</time>
  <course>248.3</course>
  <speed>0.0</speed>
  <fix>3d</fix>
</trkpt>
<trkpt lat="40.0713749" lon="-105.229789">
  <ele>1583.0</ele>
  <time>2026-08-28T17:51:45Z</time>
  <course>0.0</course>
  <speed>0.0</speed>
  <fix>3d</fix>
</trkpt>
<trkpt lat="40.0713749" lon="-105.229789">
  <ele>1583.0</ele>
  <time>2026-08-28T17:51:45Z</time>
  <course>248.31</course>
  <speed>0.0</speed>
  <fix>3d</fix>
</trkpt>
<trkpt lat="40.0713749" lon="-105.229789">
  <ele>1583.0</ele>
  <time>2026-08-28T17:51:45Z</time>
  <course>0.0</course>
  <speed>0.0</speed>
  <fix>3d</fix>
</trkpt>
<trkpt lat="40.0713749" lon="-105.229789">
  <ele>1583.0</ele>
  <time>2026-08-28T17:51:45Z</time>
  <course>248.32</course>
  <speed>0.0</speed>
  <fix>3d</fix>
</trkpt>
<trkpt lat="40.0713749" lon="-105.229789">
  <ele>1583.0</ele>
  <time>2026-08-28T17:51:45Z</time>
  <course>0.0</course>
  <speed>0.0</speed>
  <fix>3d</fix>
</trkpt>
<trkpt lat="40.0713749" lon="-105.229789">
  <ele>1583.0</ele>
  <time>2026-08-28T17:51:45Z</time>
  <course>248.33</course>
  <speed>0.0</speed>
  <fix>3d</fix>
</trkpt>
<trkpt lat="40.0713749" lon="-105.229789">
  <ele>1583.0</ele>
  <time>2026-08-28T17:51:45Z</time>
  <course>0.0</course>
  <speed>0.0</speed>
  <fix>3d</fix>
</trkpt>
<trkpt lat="40.0713749" lon="-105.229789">
  <ele>1583.0</ele>
  <time>2026-08-28T17:51:45Z</time>
  <course>248.34</course>
  <speed>0.0</speed>
  <fix>3d</fix>
</trkpt>
<trkpt lat="40.0713749" lon="-105.229789">
  <ele>1583.0</ele>
  <time>2026-08-28T17:51:45Z</time>
  <course>0.0</course>
  <speed>0.0</speed>
  <fix>3d</fix>
</trkpt>
<trkpt lat="40.0713749" lon="-105.229789">
  <ele>1583.0</ele>
  <time>2026-08-28T17:51:45Z</time>
  <course>248.35</course>
  <speed>0.0</speed>
  <fix>3d</fix>
</trkpt>
<trkpt lat="40.0713749" lon="-105.229789">
  <ele>1583.0</ele>
  <time>2026-08-28T17:51:45Z</time>
  <course>0.0</course>
  <speed>0.0</speed>
  <fix>3d</fix>
</trkpt>
<trkpt lat="40.0713749" lon="-105.229789">
  <ele>1583.0</ele>
  <time>2026-08-28T17:51:45Z</time>
  <course>248.35</course>
  <speed>0.0</speed>
  <fix>3d</fix>
</trkpt>
<trkpt lat="40.0713749" lon="-105.229789">
  <ele>1583.0</ele>
  <time>2026-08-28T17:51:45Z</time>
  <course>0.0</course>
  <speed>0.0</speed>
  <fix>3d</fix>
</trkpt>
<trkpt lat="40.0713749" lon="-105.229789">
  <ele>1583.0</ele>
  <time>2026-08-28T17:51:45Z</time>
  <course>248.36</course>
  <speed>0.0</speed>
  <fix>3d</fix>
</trkpt>
<trkpt lat="40.0713749" lon="-105.229789">
  <ele>1583.0</ele>
  <time>2026-08-28T17:51:45Z</time>
  <course>0.0</course>
  <speed>0.0</speed>
  <fix>3d</fix>
</trkpt>
<trkpt lat="40.0713749" lon="-105.229789">
  <ele>1583.0</ele>
  <time>2026-08-28T17:51:45Z</time>
  <course>248.37</course>
  <speed>0.0</speed>
  <fix>3d</fix>
</trkpt>
<trkpt lat="40.0713749" lon="-105.229789">
  <ele>1583.0</ele>
  <time>2026-08-28T17:51:45Z</time>
  <course>0.0</course>
  <speed>0.0</speed>
  <fix>3d</fix>
</trkpt>
<trkpt lat="40.0713749" lon="-105.229789">
  <ele>1583.0</ele>
  <time>2026-08-28T17:51:45Z</time>
  <course>248.37</course>
  <speed>0.0</speed>
  <fix>3d</fix>
</trkpt>
<trkpt lat="40.0713749" lon="-105.229789">
  <ele>1583.0</ele>
  <time>2026-08-28T17:51:45Z</time>
  <course>0.0</course>
  <speed>0.0</speed>
  <fix>3d</fix>
</trkpt>
<trkpt lat="40.0713749" lon="-105.229789">
  <ele>1583.0</ele>
  <time>2026-08-28T17:51:45Z</time>
  <course>248.38</course>
  <speed>0.0</speed>
  <fix>3d</fix>
</trkpt>
<trkpt lat="40.0713749" lon="-105.229789">
  <ele>1583.0</ele>
  <time>2026-08-28T17:51:45Z</time>
  <course>0.0</course>
  <speed>0.0</speed>
  <fix>3d</fix>
</trkpt>
<trkpt lat="40.0713749" lon="-105.229789">
  <ele>1583.0</ele>
  <time>2026-08-28T17:51:45Z</time>
  <course>248.38</course>
  <speed>0.0</speed>
  <fix>3d</fix>
</trkpt>
<trkpt lat="40.0713749" lon="-105.229789">
  <ele>1583.0</ele>
  <time>2026-08-28T17:51:45Z</time>
  <course>0.0</course>
  <speed>0.0</speed>
  <fix>3d</fix>
</trkpt>
<trkpt lat="40.0713749" lon="-105.229789">
  <ele>1583.0</ele>
  <time>2026-08-28T17:51:45Z</time>
  <course>248.39</course>
  <speed>0.0</speed>
  <fix>3d</fix>
</trkpt>
<trkpt lat="40.0713749" lon="-105.229789">
  <ele>1583.0</ele>
  <time>2026-08-28T17:51:45Z</time>
  <course>0.0</course>
  <speed>0.0</speed>
  <fix>3d</fix>
</trkpt>
<trkpt lat="40.0713749" lon="-105.229789">
  <ele>1583.0</ele>
  <time>2026-08-28T17:51:45Z</time>
  <course>248.39</course>
  <speed>0.0</speed>
  <fix>3d</fix>
</trkpt>
<trkpt lat="40.0713749" lon="-105.229789">
  <ele>1583.0</ele>
  <time>2026-08-28T17:51:45Z</time>
  <course>0.0</course>
  <speed>0.0</speed>
  <fix>3d</fix>
</trkpt>
<trkpt lat="40.0713749" lon="-105.229789">
  <ele>1583.0</ele>
  <time>2026-08-28T17:51:45Z</time>
  <course>248.4</course>
  <speed>0.0</speed>
  <fix>3d</fix>
</trkpt>
<trkpt lat="40.0713749" lon="-105.229789">
  <ele>1583.0</ele>
  <time>2026-08-28T17:51:45Z</time>
  <course>0.0</course>
  <speed>0.0</speed>
  <fix>3d</fix>
</trkpt>
<trkpt lat="40.0713749" lon="-105.229789">
  <ele>1583.0</ele>
  <time>2026-08-28T17:51:45Z</time>
  <course>248.4</course>
  <speed>0.0</speed>
  <fix>3d</fix>
</trkpt>
<trkpt lat="40.0713749" lon="-105.229789">
  <ele>1583.0</ele>
  <time>2026-08-28T17:51:45Z</time>
  <course>0.0</course>
  <speed>0.0</speed>
  <fix>3d</fix>
</trkpt>
<trkpt lat="40.0713749" lon="-105.229789">
  <ele>1583.0</ele>
  <time>2026-08-28T17:51:45Z</time>
  <course>248.4</course>
  <speed>0.0</speed>
  <fix>3d</fix>
</trkpt>
<trkpt lat="40.0713749" lon="-105.229789">
  <ele>1583.0</ele>
  <time>2026-08-28T17:51:45Z</time>
  <course>0.0</course>
  <speed>0.0</speed>
  <fix>3d</fix>
</trkpt>
<trkpt lat="40.0713749" lon="-105.229789">
  <ele>1583.0</ele>
  <time>2026-08-28T17:51:45Z</time>
  <course>248.4</course>
  <speed>0.0</speed>
  <fix>3d</fix>
</trkpt>
<trkpt lat="40.0713749" lon="-105.229789">
  <ele>1583.0</ele>
  <time>2026-08-28T17:51:45Z</time>
  <course>0.0</course>
  <speed>0.0</speed>
  <fix>3d</fix>
</trkpt>
<trkpt lat="40.0713749" lon="-105.229789">
  <ele>1583.0</ele>
  <time>2026-08-28T17:51:45Z</time>
  <course>248.41</course>
  <speed>0.0</speed>
  <fix>3d</fix>
</trkpt>
<trkpt lat="40.0713749" lon="-105.229789">
  <ele>1583.0</ele>
  <time>2026-08-28T17:51:45Z</time>
  <course>0.0</course>
  <speed>0.0</speed>
  <fix>3d</fix>
</trkpt>
<trkpt lat="40.0713749" lon="-105.229789">
  <ele>1583.0</ele>
  <time>2026-08-28T17:51:45Z</time>
  <course>248.41</course>
  <speed>0.0</speed>
  <fix>3d</fix>
</trkpt>
<trkpt lat="40.0713749" lon="-105.229789">
  <ele>1583.0</ele>
  <time>2026-08-28T17:51:45Z</time>
  <course>0.0</course>
  <speed>0.0</speed>
  <fix>3d</fix>
</trkpt>
<trkpt lat="40.0713749" lon="-105.229789">
  <ele>1583.0</ele>
  <time>2026-08-28T17:51:45Z</time>
  <course>248.41</course>
  <speed>0.0</speed>
  <fix>3d</fix>
</trkpt>
<trkpt lat="40.0713749" lon="-105.229789">
  <ele>1583.0</ele>
  <time>2026-08-28T17:51:45Z</time>
  <course>0.0</course>
  <speed>0.0</speed>
  <fix>3d</fix>
</trkpt>
<trkpt lat="40.0713749" lon="-105.229789">
  <ele>1583.0</ele>
  <time>2026-08-28T17:51:45Z</time>
  <course>248.41</course>
  <speed>0.0</speed>
  <fix>3d</fix>
</trkpt>
<trkpt lat="40.0713749" lon="-105.229789">
  <ele>1583.0</ele>
  <time>2026-08-28T17:51:45Z</time>
  <course>0.0</course>
  <speed>0.0</speed>
  <fix>3d</fix>
</trkpt>
<trkpt lat="40.0713749" lon="-105.229789">
  <ele>1583.0</ele>
  <time>2026-08-28T17:51:45Z</time>
  <course>248.41</course>
  <speed>0.0</speed>
  <fix>3d</fix>
</trkpt>
<trkpt lat="40.0713749" lon="-105.229789">
  <ele>1583.0</ele>
  <time>2026-08-28T17:51:45Z</time>
  <course>0.0</course>
  <speed>0.0</speed>
  <fix>3d</fix>
</trkpt>
<trkpt lat="40.0713749" lon="-105.229789">
  <ele>1583.0</ele>
  <time>2026-08-28T17:51:45Z</time>
  <course>248.41</course>
  <speed>0.0</speed>
  <fix>3d</fix>
</trkpt>
<trkpt lat="40.0713749" lon="-105.229789">
  <ele>1583.0</ele>
  <time>2026-08-28T17:51:45Z</time>
  <course>0.0</course>
  <speed>0.0</speed>
  <fix>3d</fix>
</trkpt>
<trkpt lat="40.0713749" lon="-105.229789">
  <ele>1583.0</ele>
  <time>2026-08-28T17:51:45Z</time>
  <course>248.41</course>
  <speed>0.0</speed>
  <fix>3d</fix>
</trkpt>
<trkpt lat="40.0713749" lon="-105.229789">
  <ele>1583.0</ele>
  <time>2026-08-28T17:51:45Z</time>
  <course>0.0</course>
  <speed>0.0</speed>
  <fix>3d</fix>
</trkpt>
<trkpt lat="40.0713749" lon="-105.229789">
  <ele>1583.0</ele>
  <time>2026-08-28T17:51:45Z</time>
  <course>248.41</course>
  <speed>0.0</speed>
  <fix>3d</fix>
</trkpt>
<trkpt lat="40.0713749" lon="-105.229789">
  <ele>1583.0</ele>
  <time>2026-08-28T17:51:45Z</time>
  <course>0.0</course>
  <speed>0.0</speed>
  <fix>3d</fix>
</trkpt>
<trkpt lat="40.0713749" lon="-105.229789">
  <ele>1583.0</ele>
  <time>2026-08-28T17:51:45Z</time>
  <course>248.41</course>
  <speed>0.0</speed>
  <fix>3d</fix>
</trkpt>
<trkpt lat="40.0713749" lon="-105.229789">
  <ele>1583.0</ele>
  <time>2026-08-28T17:51:45Z</time>
  <course>0.0</course>
  <speed>0.0</speed>
  <fix>3d</fix>
</trkpt>
<trkpt lat="40.0713749" lon="-105.229789">
  <ele>1583.0</ele>
  <time>2026-08-28T17:51:45Z</time>
  <course>248.41</course>
  <speed>0.0</speed>
  <fix>3d</fix>
</trkpt>
<trkpt lat="40.0713749" lon="-105.229789">
  <ele>1583.0</ele>
  <time>2026-08-28T17:51:45Z</time>
  <course>0.0</course>
  <speed>0.0</speed>
  <fix>3d</fix>
</trkpt>
<trkpt lat="40.0713749" lon="-105.229789">
  <ele>1583.0</ele>
  <time>2026-08-28T17:51:45Z</time>
  <course>248.41</course>
  <speed>0.0</speed>
  <fix>3d</fix>
</trkpt>
<trkpt lat="40.0713749" lon="-105.229789">
  <ele>1583.0</ele>
  <time>2026-08-28T17:51:45Z</time>
  <course>0.0</course>
  <speed>0.0</speed>
  <fix>3d</fix>
</trkpt>
<trkpt lat="40.0713749" lon="-105.229789">
  <ele>1583.0</ele>
  <time>2026-08-28T17:51:45Z</time>
  <course>248.41</course>
  <speed>0.0</speed>
  <fix>3d</fix>
</trkpt>
<trkpt lat="40.0713749" lon="-105.229789">
  <ele>1583.0</ele>
  <time>2026-08-28T17:51:45Z</time>
  <course>0.0</course>
  <speed>0.0</speed>
  <fix>3d</fix>
</trkpt>
<trkpt lat="40.0713749" lon="-105.229789">
  <ele>1583.0</ele>
  <time>2026-08-28T17:51:45Z</time>
  <course>248.41</course>
  <speed>0.0</speed>
  <fix>3d</fix>
</trkpt>
<trkpt lat="40.0713749" lon="-105.229789">
  <ele>1583.0</ele>
  <time>2026-08-28T17:51:45Z</time>
  <course>0.0</course>
  <speed>0.0</speed>
  <fix>3d</fix>
</trkpt>
<trkpt lat="40.0713749" lon="-105.229789">
  <ele>1583.0</ele>
  <time>2026-08-28T17:51:45Z</time>
  <course>248.41</course>
  <speed>0.0</speed>
  <fix>3d</fix>
</trkpt>
<trkpt lat="40.0713749" lon="-105.229789">
  <ele>1583.0</ele>
  <time>2026-08-28T17:51:45Z</time>
  <course>0.0</course>
  <speed>0.0</speed>
  <fix>3d</fix>
</trkpt>
<trkpt lat="40.0713749" lon="-105.229789">
  <ele>1583.0</ele>
  <time>2026-08-28T17:51:45Z</time>
  <course>248.41</course>
  <speed>0.0</speed>
  <fix>3d</fix>
</trkpt>
<trkpt lat="40.0713749" lon="-105.229789">
  <ele>1583.0</ele>
  <time>2026-08-28T17:51:45Z</time>
  <course>0.0</course>
  <speed>0.0</speed>
  <fix>3d</fix>
</trkpt>
<trkpt lat="40.0713749" lon="-105.229789">
  <ele>1583.0</ele>
  <time>2026-08-28T17:51:45Z</time>
  <course>248.41</course>
  <speed>0.0</speed>
  <fix>3d</fix>
</trkpt>
<trkpt lat="40.0713749" lon="-105.229789">
  <ele>1583.0</ele>
  <time>2026-08-28T17:51:45Z</time>
  <course>0.0</course>
  <speed>0.0</speed>
  <fix>3d</fix>
</trkpt>
<trkpt lat="40.0713749" lon="-105.229789">
  <ele>1583.0</ele>
  <time>2026-08-28T17:51:45Z</time>
  <course>248.4</course>
  <speed>0.0</speed>
  <fix>3d</fix>
</trkpt>
<trkpt lat="40.0713749" lon="-105.229789">
  <ele>1583.0</ele>
  <time>2026-08-28T17:51:45Z</time>
  <course>0.0</course>
  <speed>0.0</speed>
  <fix>3d</fix>
</trkpt>
<trkpt lat="40.0713749" lon="-105.229789">
  <ele>1583.0</ele>
  <time>2026-08-28T17:51:45Z</time>
  <course>248.4</course>
  <speed>0.01</speed>
  <fix>3d</fix>
</trkpt>
<trkpt lat="40.0713749" lon="-105.229789">
  <ele>1583.0</ele>
  <time>2026-08-28T17:51:45Z</time>
  <course>0.0</course>
  <speed>0.0</speed>
  <fix>3d</fix>
</trkpt>
<trkpt lat="40.0713749" lon="-105.229789">
  <ele>1583.0</ele>
  <time>2026-08-28T17:51:45Z</time>
  <course>248.4</course>
  <speed>0.01</speed>
  <fix>3d</fix>
</trkpt>
<trkpt lat="40.0713749" lon="-105.229789">
  <ele>1583.0</ele>
  <time>2026-08-28T17:51:45Z</time>
  <course>0.0</course>
  <speed>0.0</speed>
  <fix>3d</fix>
</trkpt>
<trkpt lat="40.0713749" lon="-105.229789">
  <ele>1583.0</ele>
  <time>2026-08-28T17:51:45Z</time>
  <course>248.4</course>
  <speed>0.01</speed>
  <fix>3d</fix>
</trkpt>
<trkpt lat="40.0713749" lon="-105.229789">
  <ele>1583.0</ele>
  <time>2026-08-28T17:51:45Z</time>
  <course>0.0</course>
  <speed>0.0</speed>
  <fix>3d</fix>
</trkpt>
<trkpt lat="40.0713749" lon="-105.229789">
  <ele>1583.0</ele>
  <time>2026-08-28T17:51:45Z</time>
  <course>248.4</course>
  <speed>0.01</speed>
  <fix>3d</fix>
</trkpt>
<trkpt lat="40.0713749" lon="-105.229789">
  <ele>1583.0</ele>
  <time>2026-08-28T17:51:45Z</time>
  <course>0.0</course>
  <speed>0.0</speed>
  <fix>3d</fix>
</trkpt>
<trkpt lat="40.0713749" lon="-105.229789">
  <ele>1583.0</ele>
  <time>2026-08-28T17:51:45Z</time>
  <course>248.39</course>
  <speed>0.01</speed>
  <fix>3d</fix>
</trkpt>
<trkpt lat="40.0713749" lon="-105.229789">
  <ele>1583.0</ele>
  <time>2026-08-28T17:51:45Z</time>
  <course>0.0</course>
  <speed>0.0</speed>
  <fix>3d</fix>
</trkpt>
<trkpt lat="40.0713749" lon="-105.229789">
  <ele>1583.0</ele>
  <time>2026-08-28T17:51:45Z</time>
  <course>248.39</course>
  <speed>0.01</speed>
  <fix>3d</fix>
</trkpt>
<trkpt lat="40.0713749" lon="-105.229789">
  <ele>1583.0</ele>
  <time>2026-08-28T17:51:45Z</time>
  <course>0.0</course>
  <speed>0.0</speed>
  <fix>3d</fix>
</trkpt>
<trkpt lat="40.0713749" lon="-105.229789">
  <ele>1583.0</ele>
  <time>2026-08-28T17:51:45Z</time>
  <course>248.39</course>
  <speed>0.01</speed>
  <fix>3d</fix>
</trkpt>
<trkpt lat="40.0713749" lon="-105.229789">
  <ele>1583.0</ele>
  <time>2026-08-28T17:51:45Z</time>
  <course>0.0</course>
  <speed>0.0</speed>
  <fix>3d</fix>
</trkpt>
<trkpt lat="40.0713749" lon="-105.229789">
  <ele>1583.0</ele>
  <time>2026-08-28T17:51:45Z</time>
  <course>248.38</course>
  <speed>0.01</speed>
  <fix>3d</fix>
</trkpt>
<trkpt lat="40.0713749" lon="-105.229789">
  <ele>1583.0</ele>
  <time>2026-08-28T17:51:45Z</time>
  <course>0.0</course>
  <speed>0.0</speed>
  <fix>3d</fix>
</trkpt>
<trkpt lat="40.0713749" lon="-105.229789">
  <ele>1583.0</ele>
  <time>2026-08-28T17:51:45Z</time>
  <course>248.38</course>
  <speed>0.01</speed>
  <fix>3d</fix>
</trkpt>
<trkpt lat="40.0713749" lon="-105.229789">
  <ele>1583.0</ele>
  <time>2026-08-28T17:51:45Z</time>
  <course>0.0</course>
  <speed>0.0</speed>
  <fix>3d</fix>
</trkpt>
<trkpt lat="40.0713749" lon="-105.229789">
  <ele>1583.0</ele>
  <time>2026-08-28T17:51:45Z</time>
  <course>248.38</course>
  <speed>0.01</speed>
  <fix>3d</fix>
</trkpt>
<trkpt lat="40.0713749" lon="-105.229789">
  <ele>1583.0</ele>
  <time>2026-08-28T17:51:45Z</time>
  <course>0.0</course>
  <speed>0.0</speed>
  <fix>3d</fix>
</trkpt>
<trkpt lat="40.0713749" lon="-105.229789">
  <ele>1583.0</ele>
  <time>2026-08-28T17:51:45Z</time>
  <course>248.37</course>
  <speed>0.01</speed>
  <fix>3d</fix>
</trkpt>
<trkpt lat="40.0713749" lon="-105.229789">
  <ele>1583.0</ele>
  <time>2026-08-28T17:51:45Z</time>
  <course>0.0</course>
  <speed>0.0</speed>
  <fix>3d</fix>
</trkpt>
<trkpt lat="40.0713749" lon="-105.229789">
  <ele>1583.0</ele>
  <time>2026-08-28T17:51:45Z</time>
  <course>248.37</course>
  <speed>0.01</speed>
  <fix>3d</fix>
</trkpt>
<trkpt lat="40.0713749" lon="-105.229789">
  <ele>1583.0</ele>
  <time>2026-08-28T17:51:45Z</time>
  <course>0.0</course>
  <speed>0.0</speed>
  <fix>3d</fix>
</trkpt>
<trkpt lat="40.0713749" lon="-105.229789">
  <ele>1583.0</ele>
  <time>2026-08-28T17:51:45Z</time>
  <course>248.37</course>
  <speed>0.01</speed>
  <fix>3d</fix>
</trkpt>
<trkpt lat="40.0713749" lon="-105.229789">
  <ele>1583.0</ele>
  <time>2026-08-28T17:51:45Z</time>
  <course>0.0</course>
  <speed>0.0</speed>
  <fix>3d</fix>
</trkpt>
<trkpt lat="40.0713749" lon="-105.229789">
  <ele>1583.0</ele>
  <time>2026-08-28T17:51:45Z</time>
  <course>248.36</course>
  <speed>0.01</speed>
  <fix>3d</fix>
</trkpt>
<trkpt lat="40.0713749" lon="-105.229789">
  <ele>1583.0</ele>
  <time>2026-08-28T17:51:45Z</time>
  <course>0.0</course>
  <speed>0.0</speed>
  <fix>3d</fix>
</trkpt>
<trkpt lat="40.0713749" lon="-105.229789">
  <ele>1583.0</ele>
  <time>2026-08-28T17:51:45Z</time>
  <course>248.36</course>
  <speed>0.01</speed>
  <fix>3d</fix>
</trkpt>
<trkpt lat="40.0713749" lon="-105.229789">
  <ele>1583.0</ele>
  <time>2026-08-28T17:51:45Z</time>
  <course>0.0</course>
  <speed>0.0</speed>
  <fix>3d</fix>
</trkpt>
<trkpt lat="40.0713749" lon="-105.229789">
  <ele>1583.0</ele>
  <time>2026-08-28T17:51:45Z</time>
  <course>248.36</course>
  <speed>0.01</speed>
  <fix>3d</fix>
</trkpt>
<trkpt lat="40.0713749" lon="-105.229789">
  <ele>1583.0</ele>
  <time>2026-08-28T17:51:45Z</time>
  <course>0.0</course>
  <speed>0.0</speed>
  <fix>3d</fix>
</trkpt>
<trkpt lat="40.0713749" lon="-105.229789">
  <ele>1583.0</ele>
  <time>2026-08-28T17:51:45Z</time>
  <course>248.35</course>
  <speed>0.01</speed>
  <fix>3d</fix>
</trkpt>
<trkpt lat="40.0713749" lon="-105.229789">
  <ele>1583.0</ele>
  <time>2026-08-28T17:51:45Z</time>
  <course>0.0</course>
  <speed>0.0</speed>
  <fix>3d</fix>
</trkpt>
<trkpt lat="40.0713749" lon="-105.229789">
  <ele>1583.0</ele>
  <time>2026-08-28T17:51:45Z</time>
  <course>248.35</course>
  <speed>0.01</speed>
  <fix>3d</fix>
</trkpt>
<trkpt lat="40.0713749" lon="-105.229789">
  <ele>1583.0</ele>
  <time>2026-08-28T17:51:45Z</time>
  <course>0.0</course>
  <speed>0.0</speed>
  <fix>3d</fix>
</trkpt>
<trkpt lat="40.0713749" lon="-105.229789">
  <ele>1583.0</ele>
  <time>2026-08-28T17:51:45Z</time>
  <course>248.35</course>
  <speed>0.01</speed>
  <fix>3d</fix>
</trkpt>
<trkpt lat="40.0713749" lon="-105.229789">
  <ele>1583.0</ele>
  <time>2026-08-28T17:51:45Z</time>
  <course>0.0</course>
  <speed>0.0</speed>
  <fix>3d</fix>
</trkpt>
<trkpt lat="40.0713749" lon="-105.229789">
  <ele>1583.0</ele>
  <time>2026-08-28T17:51:45Z</time>
  <course>248.34</course>
  <speed>0.01</speed>
  <fix>3d</fix>
</trkpt>
<trkpt lat="40.0713749" lon="-105.229789">
  <ele>1583.0</ele>
  <time>2026-08-28T17:51:45Z</time>
  <course>0.0</course>
  <speed>0.0</speed>
  <fix>3d</fix>
</trkpt>
<trkpt lat="40.0713749" lon="-105.229789">
  <ele>1583.0</ele>
  <time>2026-08-28T17:51:45Z</time>
  <course>248.34</course>
  <speed>0.01</speed>
  <fix>3d</fix>
</trkpt>
<trkpt lat="40.0713749" lon="-105.229789">
  <ele>1583.0</ele>
  <time>2026-08-28T17:51:45Z</time>
  <course>0.0</course>
  <speed>0.0</speed>
  <fix>3d</fix>
</trkpt>
<trkpt lat="40.0713749" lon="-105.229789">
  <ele>1583.0</ele>
  <time>2026-08-28T17:51:45Z</time>
  <course>248.33</course>
  <speed>0.01</speed>
  <fix>3d</fix>
</trkpt>
<trkpt lat="40.0713749" lon="-105.229789">
  <ele>1583.0</ele>
  <time>2026-08-28T17:51:45Z</time>
  <course>0.0</course>
  <speed>0.0</speed>
  <fix>3d</fix>
</trkpt>
<trkpt lat="40.0713749" lon="-105.229789">
  <ele>1583.0</ele>
  <time>2026-08-28T17:51:45Z</time>
  <course>248.33</course>
  <speed>0.01</speed>
  <fix>3d</fix>
</trkpt>
<trkpt lat="40.0713749" lon="-105.229789">
  <ele>1583.0</ele>
  <time>2026-08-28T17:51:45Z</time>
  <course>0.0</course>
  <speed>0.0</speed>
  <fix>3d</fix>
</trkpt>
<trkpt lat="40.0713749" lon="-105.229789">
  <ele>1583.0</ele>
  <time>2026-08-28T17:51:45Z</time>
  <course>248.32</course>
  <speed>0.01</speed>
  <fix>3d</fix>
</trkpt>
<trkpt lat="40.0713749" lon="-105.229789">
  <ele>1583.0</ele>
  <time>2026-08-28T17:51:45Z</time>
  <course>0.0</course>
  <speed>0.0</speed>
  <fix>3d</fix>
</trkpt>
<trkpt lat="40.0713749" lon="-105.229789">
  <ele>1583.0</ele>
  <time>2026-08-28T17:51:45Z</time>
  <course>248.32</course>
  <speed>0.01</speed>
  <fix>3d</fix>
</trkpt>
<trkpt lat="40.0713749" lon="-105.229789">
  <ele>1583.0</ele>
  <time>2026-08-28T17:51:45Z</time>
  <course>0.0</course>
  <speed>0.0</speed>
  <fix>3d</fix>
</trkpt>
<trkpt lat="40.0713749" lon="-105.229789">
  <ele>1583.0</ele>
  <time>2026-08-28T17:51:45Z</time>
  <course>248.32</course>
  <speed>0.01</speed>
  <fix>3d</fix>
</trkpt>
<trkpt lat="40.0713749" lon="-105.229789">
  <ele>1583.0</ele>
  <time>2026-08-28T17:51:45Z</time>
  <course>0.0</course>
  <speed>0.0</speed>
  <fix>3d</fix>
</trkpt>
<trkpt lat="40.0713749" lon="-105.229789">
  <ele>1583.0</ele>
  <time>2026-08-28T17:51:45Z</time>
  <course>248.31</course>
  <speed>0.01</speed>
  <fix>3d</fix>
</trkpt>
<trkpt lat="40.0713749" lon="-105.229789">
  <ele>1583.0</ele>
  <time>2026-08-28T17:51:45Z</time>
  <course>0.0</course>
  <speed>0.0</speed>
  <fix>3d</fix>
</trkpt>
<trkpt lat="40.0713749" lon="-105.229789">
  <ele>1583.0</ele>
  <time>2026-08-28T17:51:45Z</time>
  <course>248.31</course>
  <speed>0.01</speed>
  <fix>3d</fix>
</trkpt>
<trkpt lat="40.0713749" lon="-105.229789">
  <ele>1583.0</ele>
  <time>2026-08-28T17:51:45Z</time>
  <course>0.0</course>
  <speed>0.0</speed>
  <fix>3d</fix>
</trkpt>
<trkpt lat="40.0713749" lon="-105.229789">
  <ele>1583.0</ele>
  <time>2026-08-28T17:51:45Z</time>
  <course>248.3</course>
  <speed>0.01</speed>
  <fix>3d</fix>
</trkpt>
<trkpt lat="40.0713749" lon="-105.229789">
  <ele>1583.0</ele>
  <time>2026-08-28T17:51:45Z</time>
  <course>0.0</course>
  <speed>0.0</speed>
  <fix>3d</fix>
</trkpt>
<trkpt lat="40.0713749" lon="-105.229789">
  <ele>1583.0</ele>
  <time>2026-08-28T17:51:45Z</time>
  <course>248.3</course>
  <speed>0.01</speed>
  <fix>3d</fix>
</trkpt>
<trkpt lat="40.0713749" lon="-105.229789">
  <ele>1583.0</ele>
  <time>2026-08-28T17:51:45Z</time>
  <course>0.0</course>
  <speed>0.0</speed>
  <fix>3d</fix>
</trkpt>
<trkpt lat="40.0713749" lon="-105.229789">
  <ele>1583.0</ele>
  <time>2026-08-28T17:51:45Z</time>
  <course>248.29</course>
  <speed>0.01</speed>
  <fix>3d</fix>
</trkpt>
<trkpt lat="40.0713749" lon="-105.229789">
  <ele>1583.0</ele>
  <time>2026-08-28T17:51:45Z</time>
  <course>0.0</course>
  <speed>0.0</speed>
  <fix>3d</fix>
</trkpt>
<trkpt lat="40.0713749" lon="-105.229789">
  <ele>1583.0</ele>
  <time>2026-08-28T17:51:45Z</time>
  <course>248.29</course>
  <speed>0.01</speed>
  <fix>3d</fix>
</trkpt>
<trkpt lat="40.0713749" lon="-105.229789">
  <ele>1583.0</ele>
  <time>2026-08-28T17:51:45Z</time>
  <course>0.0</course>
  <speed>0.0</speed>
  <fix>3d</fix>
</trkpt>
<trkpt lat="40.0713749" lon="-105.229789">
  <ele>1583.0</ele>
  <time>2026-08-28T17:51:45Z</time>
  <course>248.27</course>
  <speed>0.01</speed>
  <fix>3d</fix>
</trkpt>
<trkpt lat="40.0713749" lon="-105.229789">
  <ele>1583.0</ele>
  <time>2026-08-28T17:51:45Z</time>
  <course>0.0</course>
  <speed>0.0</speed>
  <fix>3d</fix>
</trkpt>
<trkpt lat="40.0713749" lon="-105.229789">
  <ele>1583.0</ele>
  <time>2026-08-28T17:51:45Z</time>
  <course>248.26</course>
  <speed>0.01</speed>
  <fix>3d</fix>
</trkpt>
<trkpt lat="40.0713749" lon="-105.229789">
  <ele>1583.0</ele>
  <time>2026-08-28T17:51:45Z</time>
  <course>0.0</course>
  <speed>0.0</speed>
  <fix>3d</fix>
</trkpt>
<trkpt lat="40.0713749" lon="-105.229789">
  <ele>1583.0</ele>
  <time>2026-08-28T17:51:45Z</time>
  <course>248.26</course>
  <speed>0.01</speed>
  <fix>3d</fix>
</trkpt>
<trkpt lat="40.0713749" lon="-105.229789">
  <ele>1583.0</ele>
  <time>2026-08-28T17:51:45Z</time>
  <course>0.0</course>
  <speed>0.0</speed>
  <fix>3d</fix>
</trkpt>
<trkpt lat="40.0713749" lon="-105.229789">
  <ele>1583.0</ele>
  <time>2026-08-28T17:51:45Z</time>
  <course>248.25</course>
  <speed>0.01</speed>
  <fix>3d</fix>
</trkpt>
<trkpt lat="40.0713749" lon="-105.229789">
  <ele>1583.0</ele>
  <time>2026-08-28T17:51:45Z</time>
  <course>0.0</course>
  <speed>0.0</speed>
  <fix>3d</fix>
</trkpt>
<trkpt lat="40.0713749" lon="-105.229789">
  <ele>1583.0</ele>
  <time>2026-08-28T17:51:45Z</time>
  <course>248.25</course>
  <speed>0.01</speed>
  <fix>3d</fix>
</trkpt>
<trkpt lat="40.0713749" lon="-105.229789">
  <ele>1583.0</ele>
  <time>2026-08-28T17:51:45Z</time>
  <course>0.0</course>
  <speed>0.0</speed>
  <fix>3d</fix>
</trkpt>
<trkpt lat="40.0713749" lon="-105.229789">
  <ele>1583.0</ele>
  <time>2026-08-28T17:51:45Z</time>
  <course>248.24</course>
  <speed>0.01</speed>
  <fix>3d</fix>
</trkpt>
<trkpt lat="40.0713749" lon="-105.229789">
  <ele>1583.0</ele>
  <time>2026-08-28T17:51:45Z</time>
  <course>0.0</course>
  <speed>0.0</speed>
  <fix>3d</fix>
</trkpt>
<trkpt lat="40.0713749" lon="-105.229789">
  <ele>1583.0</ele>
  <time>2026-08-28T17:51:45Z</time>
  <course>248.24</course>
  <speed>0.01</speed>
  <fix>3d</fix>
</trkpt>
<trkpt lat="40.0713749" lon="-105.229789">
  <ele>1583.0</ele>
  <time>2026-08-28T17:51:45Z</time>
  <course>0.0</course>
  <speed>0.0</speed>
  <fix>3d</fix>
</trkpt>
<trkpt lat="40.0713749" lon="-105.229789">
  <ele>1583.0</ele>
  <time>2026-08-28T17:51:45Z</time>
  <course>248.23</course>
  <speed>0.01</speed>
  <fix>3d</fix>
</trkpt>
<trkpt lat="40.0713749" lon="-105.229789">
  <ele>1583.0</ele>
  <time>2026-08-28T17:51:45Z</time>
  <course>0.0</course>
  <speed>0.0</speed>
  <fix>3d</fix>
</trkpt>
<trkpt lat="40.0713749" lon="-105.229789">
  <ele>1583.0</ele>
  <time>2026-08-28T17:51:45Z</time>
  <course>248.23</course>
  <speed>0.01</speed>
  <fix>3d</fix>
</trkpt>
<trkpt lat="40.0713749" lon="-105.229789">
  <ele>1583.0</ele>
  <time>2026-08-28T17:51:45Z</time>
  <course>0.0</course>
  <speed>0.0</speed>
  <fix>3d</fix>
</trkpt>
<trkpt lat="40.0713749" lon="-105.229789">
  <ele>1583.0</ele>
  <time>2026-08-28T17:51:45Z</time>
  <course>248.22</course>
  <speed>0.01</speed>
  <fix>3d</fix>
</trkpt>
<trkpt lat="40.0713749" lon="-105.229789">
  <ele>1583.0</ele>
  <time>2026-08-28T17:51:45Z</time>
  <course>0.0</course>
  <speed>0.0</speed>
  <fix>3d</fix>
</trkpt>
<trkpt lat="40.0713749" lon="-105.229789">
  <ele>1583.0</ele>
  <time>2026-08-28T17:51:46Z</time>
  <course>248.2</course>
  <speed>0.01</speed>
  <fix>3d</fix>
</trkpt>
<trkpt lat="40.0713749" lon="-105.229789">
  <ele>1583.0</ele>
  <time>2026-08-28T17:51:46Z</time>
  <course>0.0</course>
  <speed>0.0</speed>
  <fix>3d</fix>
</trkpt>
<trkpt lat="40.0713749" lon="-105.229789">
  <ele>1583.0</ele>
  <time>2026-08-28T17:51:46Z</time>
  <course>248.19</course>
  <speed>0.01</speed>
  <fix>3d</fix>
</trkpt>
<trkpt lat="40.0713749" lon="-105.229789">
  <ele>1583.0</ele>
  <time>2026-08-28T17:51:46Z</time>
  <course>0.0</course>
  <speed>0.0</speed>
  <fix>3d</fix>
</trkpt>
<trkpt lat="40.0713749" lon="-105.229789">
  <ele>1583.0</ele>
  <time>2026-08-28T17:51:46Z</time>
  <course>248.18</course>
  <speed>0.01</speed>
  <fix>3d</fix>
</trkpt>
<trkpt lat="40.0713749" lon="-105.229789">
  <ele>1583.0</ele>
  <time>2026-08-28T17:51:46Z</time>
  <course>0.0</course>
  <speed>0.0</speed>
  <fix>3d</fix>
</trkpt>
<trkpt lat="40.0713749" lon="-105.229789">
  <ele>1583.0</ele>
  <time>2026-08-28T17:51:46Z</time>
  <course>248.18</course>
  <speed>0.01</speed>
  <fix>3d</fix>
</trkpt>
<trkpt lat="40.0713749" lon="-105.229789">
  <ele>1583.0</ele>
  <time>2026-08-28T17:51:46Z</time>
  <course>0.0</course>
  <speed>0.0</speed>
  <fix>3d</fix>
</trkpt>
<trkpt lat="40.0713749" lon="-105.229789">
  <ele>1583.0</ele>
  <time>2026-08-28T17:51:46Z</time>
  <course>248.17</course>
  <speed>0.022360679774997897</speed>
  <fix>3d</fix>
</trkpt>
<trkpt lat="40.0713749" lon="-105.229789">
  <ele>1583.0</ele>
  <time>2026-08-28T17:51:46Z</time>
  <course>0.0</course>
  <speed>0.0</speed>
  <fix>3d</fix>
</trkpt>
<trkpt lat="40.0713749" lon="-105.229789">
  <ele>1583.0</ele>
  <time>2026-08-28T17:51:46Z</time>
  <course>248.17</course>
  <speed>0.022360679774997897</speed>
  <fix>3d</fix>
</trkpt>
<trkpt lat="40.0713749" lon="-105.229789">
  <ele>1583.0</ele>
  <time>2026-08-28T17:51:46Z</time>
  <course>0.0</course>
  <speed>0.0</speed>
  <fix>3d</fix>
</trkpt>
<trkpt lat="40.0713749" lon="-105.229789">
  <ele>1583.0</ele>
  <time>2026-08-28T17:51:46Z</time>
  <course>248.16</course>
  <speed>0.022360679774997897</speed>
  <fix>3d</fix>
</trkpt>
<trkpt lat="40.0713749" lon="-105.229789">
  <ele>1583.0</ele>
  <time>2026-08-28T17:51:46Z</time>
  <course>0.0</course>
  <speed>0.0</speed>
  <fix>3d</fix>
</trkpt>
<trkpt lat="40.0713749" lon="-105.229789">
  <ele>1583.0</ele>
  <time>2026-08-28T17:51:46Z</time>
  <course>248.16</course>
  <speed>0.022360679774997897</speed>
  <fix>3d</fix>
</trkpt>
<trkpt lat="40.0713749" lon="-105.229789">
  <ele>1583.0</ele>
  <time>2026-08-28T17:51:46Z</time>
  <course>0.0</course>
  <speed>0.0</speed>
  <fix>3d</fix>
</trkpt>
<trkpt lat="40.0713749" lon="-105.229789">
  <ele>1583.0</ele>
  <time>2026-08-28T17:51:46Z</time>
  <course>248.15</course>
  <speed>0.022360679774997897</speed>
  <fix>3d</fix>
</trkpt>
<trkpt lat="40.0713749" lon="-105.229789">
  <ele>1583.0</ele>
  <time>2026-08-28T17:51:46Z</time>
  <course>0.0</course>
  <speed>0.0</speed>
  <fix>3d</fix>
</trkpt>
<trkpt lat="40.0713749" lon="-105.229789">
  <ele>1583.0</ele>
  <time>2026-08-28T17:51:46Z</time>
  <course>248.15</course>
  <speed>0.022360679774997897</speed>
  <fix>3d</fix>
</trkpt>
<trkpt lat="40.0713749" lon="-105.229789">
  <ele>1583.0</ele>
  <time>2026-08-28T17:51:46Z</time>
  <course>0.0</course>
  <speed>0.0</speed>
  <fix>3d</fix>
</trkpt>
<trkpt lat="40.0713749" lon="-105.229789">
  <ele>1583.0</ele>
  <time>2026-08-28T17:51:46Z</time>
  <course>248.14</course>
  <speed>0.022360679774997897</speed>
  <fix>3d</fix>
</trkpt>
<trkpt lat="40.0713749" lon="-105.229789">
  <ele>1583.0</ele>
  <time>2026-08-28T17:51:46Z</time>
  <course>0.0</course>
  <speed>0.0</speed>
  <fix>3d</fix>
</trkpt>
<trkpt lat="40.0713749" lon="-105.229789">
  <ele>1583.0</ele>
  <time>2026-08-28T17:51:46Z</time>
  <course>248.14</course>
  <speed>0.022360679774997897</speed>
  <fix>3d</fix>
</trkpt>
<trkpt lat="40.0713749" lon="-105.229789">
  <ele>1583.0</ele>
  <time>2026-08-28T17:51:46Z</time>
  <course>0.0</course>
  <speed>0.0</speed>
  <fix>3d</fix>
</trkpt>
<trkpt lat="40.0713749" lon="-105.229789">
  <ele>1583.0</ele>
  <time>2026-08-28T17:51:46Z</time>
  <course>248.13</course>
  <speed>0.022360679774997897</speed>
  <fix>3d</fix>
</trkpt>
<trkpt lat="40.0713749" lon="-105.229789">
  <ele>1583.0</ele>
  <time>2026-08-28T17:51:46Z</time>
  <course>0.0</course>
  <speed>0.0</speed>
  <fix>3d</fix>
</trkpt>
<trkpt lat="40.0713749" lon="-105.229789">
  <ele>1583.0</ele>
  <time>2026-08-28T17:51:46Z</time>
  <course>248.13</course>
  <speed>0.022360679774997897</speed>
  <fix>3d</fix>
</trkpt>
<trkpt lat="40.0713749" lon="-105.229789">
  <ele>1583.0</ele>
  <time>2026-08-28T17:51:46Z</time>
  <course>0.0</course>
  <speed>0.0</speed>
  <fix>3d</fix>
</trkpt>
<trkpt lat="40.0713749" lon="-105.229789">
  <ele>1583.0</ele>
  <time>2026-08-28T17:51:46Z</time>
  <course>248.12</course>
  <speed>0.022360679774997897</speed>
  <fix>3d</fix>
</trkpt>
<trkpt lat="40.0713749" lon="-105.229789">
  <ele>1583.0</ele>
  <time>2026-08-28T17:51:46Z</time>
  <course>0.0</course>
  <speed>0.0</speed>
  <fix>3d</fix>
</trkpt>
<trkpt lat="40.0713749" lon="-105.229789">
  <ele>1583.0</ele>
  <time>2026-08-28T17:51:46Z</time>
  <course>248.12</course>
  <speed>0.022360679774997897</speed>
  <fix>3d</fix>
</trkpt>
<trkpt lat="40.0713749" lon="-105.229789">
  <ele>1583.0</ele>
  <time>2026-08-28T17:51:46Z</time>
  <course>0.0</course>
  <speed>0.0</speed>
  <fix>3d</fix>
</trkpt>
<trkpt lat="40.0713749" lon="-105.229789">
  <ele>1583.0</ele>
  <time>2026-08-28T17:51:46Z</time>
  <course>248.11</course>
  <speed>0.022360679774997897</speed>
  <fix>3d</fix>
</trkpt>
<trkpt lat="40.0713749" lon="-105.229789">
  <ele>1583.0</ele>
  <time>2026-08-28T17:51:46Z</time>
  <course>0.0</course>
  <speed>0.0</speed>
  <fix>3d</fix>
</trkpt>
<trkpt lat="40.0713749" lon="-105.229789">
  <ele>1583.0</ele>
  <time>2026-08-28T17:51:46Z</time>
  <course>248.11</course>
  <speed>0.022360679774997897</speed>
  <fix>3d</fix>
</trkpt>
<trkpt lat="40.0713749" lon="-105.229789">
  <ele>1583.0</ele>
  <time>2026-08-28T17:51:46Z</time>
  <course>0.0</course>
  <speed>0.0</speed>
  <fix>3d</fix>
</trkpt>
<trkpt lat="40.0713749" lon="-105.229789">
  <ele>1583.0</ele>
  <time>2026-08-28T17:51:46Z</time>
  <course>248.1</course>
  <speed>0.022360679774997897</speed>
  <fix>3d</fix>
</trkpt>
<trkpt lat="40.0713749" lon="-105.229789">
  <ele>1583.0</ele>
  <time>2026-08-28T17:51:46Z</time>
  <course>0.0</course>
  <speed>0.0</speed>
  <fix>3d</fix>
</trkpt>
<trkpt lat="40.0713749" lon="-105.229789">
  <ele>1583.0</ele>
  <time>2026-08-28T17:51:46Z</time>
  <course>248.1</course>
  <speed>0.022360679774997897</speed>
  <fix>3d</fix>
</trkpt>
<trkpt lat="40.0713749" lon="-105.229789">
  <ele>1583.0</ele>
  <time>2026-08-28T17:51:46Z</time>
  <course>0.0</course>
  <speed>0.0</speed>
  <fix>3d</fix>
</trkpt>
<trkpt lat="40.0713749" lon="-105.229789">
  <ele>1583.0</ele>
  <time>2026-08-28T17:51:46Z</time>
  <course>248.09</course>
  <speed>0.022360679774997897</speed>
  <fix>3d</fix>
</trkpt>
<trkpt lat="40.0713749" lon="-105.229789">
  <ele>1583.0</ele>
  <time>2026-08-28T17:51:46Z</time>
  <course>0.0</course>
  <speed>0.0</speed>
  <fix>3d</fix>
</trkpt>
<trkpt lat="40.0713749" lon="-105.229789">
  <ele>1583.0</ele>
  <time>2026-08-28T17:51:46Z</time>
  <course>248.09</course>
  <speed>0.022360679774997897</speed>
  <fix>3d</fix>
</trkpt>
<trkpt lat="40.0713749" lon="-105.229789">
  <ele>1583.0</ele>
  <time>2026-08-28T17:51:46Z</time>
  <course>0.0</course>
  <speed>0.0</speed>
  <fix>3d</fix>
</trkpt>
<trkpt lat="40.0713749" lon="-105.229789">
  <ele>1583.0</ele>
  <time>2026-08-28T17:51:46Z</time>
  <course>248.08</course>
  <speed>0.022360679774997897</speed>
  <fix>3d</fix>
</trkpt>
<trkpt lat="40.0713749" lon="-105.229789">
  <ele>1583.0</ele>
  <time>2026-08-28T17:51:46Z</time>
  <course>0.0</course>
  <speed>0.0</speed>
  <fix>3d</fix>
</trkpt>
<trkpt lat="40.0713749" lon="-105.229789">
  <ele>1583.0</ele>
  <time>2026-08-28T17:51:46Z</time>
  <course>248.08</course>
  <speed>0.022360679774997897</speed>
  <fix>3d</fix>
</trkpt>
<trkpt lat="40.0713749" lon="-105.229789">
  <ele>1583.0</ele>
  <time>2026-08-28T17:51:46Z</time>
  <course>0.0</course>
  <speed>0.0</speed>
  <fix>3d</fix>
</trkpt>
<trkpt lat="40.0713749" lon="-105.229789">
  <ele>1583.0</ele>
  <time>2026-08-28T17:51:46Z</time>
  <course>248.07</course>
  <speed>0.022360679774997897</speed>
  <fix>3d</fix>
</trkpt>
<trkpt lat="40.0713749" lon="-105.229789">
  <ele>1583.0</ele>
  <time>2026-08-28T17:51:46Z</time>
  <course>0.0</course>
  <speed>0.0</speed>
  <fix>3d</fix>
</trkpt>
<trkpt lat="40.0713749" lon="-105.229789">
  <ele>1583.0</ele>
  <time>2026-08-28T17:51:46Z</time>
  <course>248.07</course>
  <speed>0.022360679774997897</speed>
  <fix>3d</fix>
</trkpt>
<trkpt lat="40.0713749" lon="-105.229789">
  <ele>1583.0</ele>
  <time>2026-08-28T17:51:46Z</time>
  <course>0.0</course>
  <speed>0.0</speed>
  <fix>3d</fix>
</trkpt>
<trkpt lat="40.0713749" lon="-105.229789">
  <ele>1583.0</ele>
  <time>2026-08-28T17:51:46Z</time>
  <course>248.06</course>
  <speed>0.022360679774997897</speed>
  <fix>3d</fix>
</trkpt>
<trkpt lat="40.0713749" lon="-105.229789">
  <ele>1583.0</ele>
  <time>2026-08-28T17:51:46Z</time>
  <course>0.0</course>
  <speed>0.0</speed>
  <fix>3d</fix>
</trkpt>
<trkpt lat="40.0713749" lon="-105.229789">
  <ele>1583.0</ele>
  <time>2026-08-28T17:51:46Z</time>
  <course>248.06</course>
  <speed>0.022360679774997897</speed>
  <fix>3d</fix>
</trkpt>
<trkpt lat="40.0713749" lon="-105.229789">
  <ele>1583.0</ele>
  <time>2026-08-28T17:51:46Z</time>
  <course>0.0</course>
  <speed>0.0</speed>
  <fix>3d</fix>
</trkpt>
<trkpt lat="40.0713749" lon="-105.229789">
  <ele>1583.0</ele>
  <time>2026-08-28T17:51:46Z</time>
  <course>248.05</course>
  <speed>0.022360679774997897</speed>
  <fix>3d</fix>
</trkpt>
<trkpt lat="40.0713749" lon="-105.229789">
  <ele>1583.0</ele>
  <time>2026-08-28T17:51:46Z</time>
  <course>0.0</course>
  <speed>0.0</speed>
  <fix>3d</fix>
</trkpt>
<trkpt lat="40.0713749" lon="-105.229789">
  <ele>1583.0</ele>
  <time>2026-08-28T17:51:46Z</time>
  <course>248.05</course>
  <speed>0.022360679774997897</speed>
  <fix>3d</fix>
</trkpt>
<trkpt lat="40.0713749" lon="-105.229789">
  <ele>1583.0</ele>
  <time>2026-08-28T17:51:46Z</time>
  <course>0.0</course>
  <speed>0.0</speed>
  <fix>3d</fix>
</trkpt>
<trkpt lat="40.0713749" lon="-105.229789">
  <ele>1583.0</ele>
  <time>2026-08-28T17:51:46Z</time>
  <course>248.05</course>
  <speed>0.022360679774997897</speed>
  <fix>3d</fix>
</trkpt>
<trkpt lat="40.0713749" lon="-105.229789">
  <ele>1583.0</ele>
  <time>2026-08-28T17:51:46Z</time>
  <course>0.0</course>
  <speed>0.0</speed>
  <fix>3d</fix>
</trkpt>
<trkpt lat="40.0713749" lon="-105.229789">
  <ele>1583.0</ele>
  <time>2026-08-28T17:51:46Z</time>
  <course>248.04</course>
  <speed>0.022360679774997897</speed>
  <fix>3d</fix>
</trkpt>
<trkpt lat="40.0713749" lon="-105.229789">
  <ele>1583.0</ele>
  <time>2026-08-28T17:51:46Z</time>
  <course>0.0</course>
  <speed>0.0</speed>
  <fix>3d</fix>
</trkpt>
<trkpt lat="40.0713749" lon="-105.229789">
  <ele>1583.0</ele>
  <time>2026-08-28T17:51:46Z</time>
  <course>248.04</course>
  <speed>0.022360679774997897</speed>
  <fix>3d</fix>
</trkpt>
<trkpt lat="40.0713749" lon="-105.229789">
  <ele>1583.0</ele>
  <time>2026-08-28T17:51:46Z</time>
  <course>0.0</course>
  <speed>0.0</speed>
  <fix>3d</fix>
</trkpt>
<trkpt lat="40.0713749" lon="-105.229789">
  <ele>1583.0</ele>
  <time>2026-08-28T17:51:46Z</time>
  <course>248.03</course>
  <speed>0.022360679774997897</speed>
  <fix>3d</fix>
</trkpt>
<trkpt lat="40.0713749" lon="-105.229789">
  <ele>1583.0</ele>
  <time>2026-08-28T17:51:46Z</time>
  <course>0.0</course>
  <speed>0.0</speed>
  <fix>3d</fix>
</trkpt>
<trkpt lat="40.0713749" lon="-105.229789">
  <ele>1583.0</ele>
  <time>2026-08-28T17:51:46Z</time>
  <course>248.03</course>
  <speed>0.022360679774997897</speed>
  <fix>3d</fix>
</trkpt>
<trkpt lat="40.0713749" lon="-105.229789">
  <ele>1583.0</ele>
  <time>2026-08-28T17:51:46Z</time>
  <course>0.0</course>
  <speed>0.0</speed>
  <fix>3d</fix>
</trkpt>
<trkpt lat="40.0713749" lon="-105.229789">
  <ele>1583.0</ele>
  <time>2026-08-28T17:51:46Z</time>
  <course>248.02</course>
  <speed>0.022360679774997897</speed>
  <fix>3d</fix>
</trkpt>
<trkpt lat="40.0713749" lon="-105.229789">
  <ele>1583.0</ele>
  <time>2026-08-28T17:51:46Z</time>
  <course>0.0</course>
  <speed>0.0</speed>
  <fix>3d</fix>
</trkpt>
<trkpt lat="40.0713749" lon="-105.229789">
  <ele>1583.0</ele>
  <time>2026-08-28T17:51:46Z</time>
  <course>248.02</course>
  <speed>0.022360679774997897</speed>
  <fix>3d</fix>
</trkpt>
<trkpt lat="40.0713749" lon="-105.229789">
  <ele>1583.0</ele>
  <time>2026-08-28T17:51:46Z</time>
  <course>0.0</course>
  <speed>0.0</speed>
  <fix>3d</fix>
</trkpt>
<trkpt lat="40.0713749" lon="-105.229789">
  <ele>1583.0</ele>
  <time>2026-08-28T17:51:46Z</time>
  <course>248.01</course>
  <speed>0.022360679774997897</speed>
  <fix>3d</fix>
</trkpt>
<trkpt lat="40.0713749" lon="-105.229789">
  <ele>1583.0</ele>
  <time>2026-08-28T17:51:46Z</time>
  <course>0.0</course>
  <speed>0.0</speed>
  <fix>3d</fix>
</trkpt>
<trkpt lat="40.0713749" lon="-105.229789">
  <ele>1583.0</ele>
  <time>2026-08-28T17:51:46Z</time>
  <course>248.01</course>
  <speed>0.022360679774997897</speed>
  <fix>3d</fix>
</trkpt>
<trkpt lat="40.0713749" lon="-105.229789">
  <ele>1583.0</ele>
  <time>2026-08-28T17:51:46Z</time>
  <course>0.0</course>
  <speed>0.0</speed>
  <fix>3d</fix>
</trkpt>
<trkpt lat="40.0713749" lon="-105.229789">
  <ele>1583.0</ele>
  <time>2026-08-28T17:51:46Z</time>
  <course>248.0</course>
  <speed>0.022360679774997897</speed>
  <fix>3d</fix>
</trkpt>
<trkpt lat="40.0713749" lon="-105.229789">
  <ele>1583.0</ele>
  <time>2026-08-28T17:51:46Z</time>
  <course>0.0</course>
  <speed>0.0</speed>
  <fix>3d</fix>
</trkpt>
<trkpt lat="40.0713749" lon="-105.229789">
  <ele>1583.0</ele>
  <time>2026-08-28T17:51:46Z</time>
  <course>248.0</course>
  <speed>0.022360679774997897</speed>
  <fix>3d</fix>
</trkpt>
<trkpt lat="40.0713749" lon="-105.229789">
  <ele>1583.0</ele>
  <time>2026-08-28T17:51:46Z</time>
  <course>0.0</course>
  <speed>0.0</speed>
  <fix>3d</fix>
</trkpt>
<trkpt lat="40.0713749" lon="-105.229789">
  <ele>1583.0</ele>
  <time>2026-08-28T17:51:46Z</time>
  <course>247.99</course>
  <speed>0.022360679774997897</speed>
  <fix>3d</fix>
</trkpt>
<trkpt lat="40.0713749" lon="-105.229789">
  <ele>1583.0</ele>
  <time>2026-08-28T17:51:46Z</time>
  <course>0.0</course>
  <speed>0.0</speed>
  <fix>3d</fix>
</trkpt>
<trkpt lat="40.0713749" lon="-105.229789">
  <ele>1583.0</ele>
  <time>2026-08-28T17:51:46Z</time>
  <course>247.99</course>
  <speed>0.022360679774997897</speed>
  <fix>3d</fix>
</trkpt>
<trkpt lat="40.0713749" lon="-105.229789">
  <ele>1583.0</ele>
  <time>2026-08-28T17:51:46Z</time>
  <course>0.0</course>
  <speed>0.0</speed>
  <fix>3d</fix>
</trkpt>
<trkpt lat="40.0713749" lon="-105.229789">
  <ele>1583.0</ele>
  <time>2026-08-28T17:51:46Z</time>
  <course>247.99</course>
  <speed>0.022360679774997897</speed>
  <fix>3d</fix>
</trkpt>
<trkpt lat="40.0713749" lon="-105.229789">
  <ele>1583.0</ele>
  <time>2026-08-28T17:51:46Z</time>
  <course>0.0</course>
  <speed>0.0</speed>
  <fix>3d</fix>
</trkpt>
<trkpt lat="40.0713749" lon="-105.229789">
  <ele>1583.0</ele>
  <time>2026-08-28T17:51:46Z</time>
  <course>247.98</course>
  <speed>0.022360679774997897</speed>
  <fix>3d</fix>
</trkpt>
<trkpt lat="40.0713749" lon="-105.229789">
  <ele>1583.0</ele>
  <time>2026-08-28T17:51:46Z</time>
  <course>0.0</course>
  <speed>0.0</speed>
  <fix>3d</fix>
</trkpt>
<trkpt lat="40.0713749" lon="-105.229789">
  <ele>1583.0</ele>
  <time>2026-08-28T17:51:46Z</time>
  <course>247.98</course>
  <speed>0.022360679774997897</speed>
  <fix>3d</fix>
</trkpt>
<trkpt lat="40.0713749" lon="-105.229789">
  <ele>1583.0</ele>
  <time>2026-08-28T17:51:46Z</time>
  <course>0.0</course>
  <speed>0.0</speed>
  <fix>3d</fix>
</trkpt>
<trkpt lat="40.0713749" lon="-105.229789">
  <ele>1583.0</ele>
  <time>2026-08-28T17:51:46Z</time>
  <course>247.97</course>
  <speed>0.022360679774997897</speed>
  <fix>3d</fix>
</trkpt>
<trkpt lat="40.0713749" lon="-105.229789">
  <ele>1583.0</ele>
  <time>2026-08-28T17:51:46Z</time>
  <course>0.0</course>
  <speed>0.0</speed>
  <fix>3d</fix>
</trkpt>
<trkpt lat="40.0713749" lon="-105.229789">
  <ele>1583.0</ele>
  <time>2026-08-28T17:51:46Z</time>
  <course>247.97</course>
  <speed>0.022360679774997897</speed>
  <fix>3d</fix>
</trkpt>
<trkpt lat="40.0713749" lon="-105.229789">
  <ele>1583.0</ele>
  <time>2026-08-28T17:51:46Z</time>
  <course>0.0</course>
  <speed>0.0</speed>
  <fix>3d</fix>
</trkpt>
<trkpt lat="40.0713749" lon="-105.229789">
  <ele>1583.0</ele>
  <time>2026-08-28T17:51:46Z</time>
  <course>247.96</course>
  <speed>0.022360679774997897</speed>
  <fix>3d</fix>
</trkpt>
<trkpt lat="40.0713749" lon="-105.229789">
  <ele>1583.0</ele>
  <time>2026-08-28T17:51:46Z</time>
  <course>0.0</course>
  <speed>0.0</speed>
  <fix>3d</fix>
</trkpt>
<trkpt lat="40.0713749" lon="-105.229789">
  <ele>1583.0</ele>
  <time>2026-08-28T17:51:46Z</time>
  <course>247.96</course>
  <speed>0.022360679774997897</speed>
  <fix>3d</fix>
</trkpt>
<trkpt lat="40.0713749" lon="-105.229789">
  <ele>1583.0</ele>
  <time>2026-08-28T17:51:46Z</time>
  <course>0.0</course>
  <speed>0.0</speed>
  <fix>3d</fix>
</trkpt>
<trkpt lat="40.0713749" lon="-105.229789">
  <ele>1583.0</ele>
  <time>2026-08-28T17:51:46Z</time>
  <course>247.95</course>
  <speed>0.022360679774997897</speed>
  <fix>3d</fix>
</trkpt>
<trkpt lat="40.0713749" lon="-105.229789">
  <ele>1583.0</ele>
  <time>2026-08-28T17:51:46Z</time>
  <course>0.0</course>
  <speed>0.0</speed>
  <fix>3d</fix>
</trkpt>
<trkpt lat="40.0713749" lon="-105.229789">
  <ele>1583.0</ele>
  <time>2026-08-28T17:51:46Z</time>
  <course>247.95</course>
  <speed>0.022360679774997897</speed>
  <fix>3d</fix>
</trkpt>
<trkpt lat="40.0713749" lon="-105.229789">
  <ele>1583.0</ele>
  <time>2026-08-28T17:51:46Z</time>
  <course>0.0</course>
  <speed>0.0</speed>
  <fix>3d</fix>
</trkpt>
<trkpt lat="40.0713749" lon="-105.229789">
  <ele>1583.0</ele>
  <time>2026-08-28T17:51:46Z</time>
  <course>247.95</course>
  <speed>0.022360679774997897</speed>
  <fix>3d</fix>
</trkpt>
<trkpt lat="40.0713749" lon="-105.229789">
  <ele>1583.0</ele>
  <time>2026-08-28T17:51:46Z</time>
  <course>0.0</course>
  <speed>0.0</speed>
  <fix>3d</fix>
</trkpt>
<trkpt lat="40.0713749" lon="-105.229789">
  <ele>1583.0</ele>
  <time>2026-08-28T17:51:46Z</time>
  <course>247.94</course>
  <speed>0.022360679774997897</speed>
  <fix>3d</fix>
</trkpt>
<trkpt lat="40.0713749" lon="-105.229789">
  <ele>1583.0</ele>
  <time>2026-08-28T17:51:46Z</time>
  <course>0.0</course>
  <speed>0.0</speed>
  <fix>3d</fix>
</trkpt>
<trkpt lat="40.0713749" lon="-105.229789">
  <ele>1583.0</ele>
  <time>2026-08-28T17:51:46Z</time>
  <course>247.94</course>
  <speed>0.022360679774997897</speed>
  <fix>3d</fix>
</trkpt>
<trkpt lat="40.0713749" lon="-105.229789">
  <ele>1583.0</ele>
  <time>2026-08-28T17:51:46Z</time>
  <course>0.0</course>
  <speed>0.0</speed>
  <fix>3d</fix>
</trkpt>
<trkpt lat="40.0713749" lon="-105.229789">
  <ele>1583.0</ele>
  <time>2026-08-28T17:51:46Z</time>
  <course>247.93</course>
  <speed>0.022360679774997897</speed>
  <fix>3d</fix>
</trkpt>
<trkpt lat="40.0713749" lon="-105.229789">
  <ele>1583.0</ele>
  <time>2026-08-28T17:51:46Z</time>
  <course>0.0</course>
  <speed>0.0</speed>
  <fix>3d</fix>
</trkpt>
<trkpt lat="40.0713749" lon="-105.229789">
  <ele>1583.0</ele>
  <time>2026-08-28T17:51:46Z</time>
  <course>247.93</course>
  <speed>0.022360679774997897</speed>
  <fix>3d</fix>
</trkpt>
<trkpt lat="40.0713749" lon="-105.229789">
  <ele>1583.0</ele>
  <time>2026-08-28T17:51:46Z</time>
  <course>0.0</course>
  <speed>0.0</speed>
  <fix>3d</fix>
</trkpt>
<trkpt lat="40.0713749" lon="-105.229789">
  <ele>1583.0</ele>
  <time>2026-08-28T17:51:46Z</time>
  <course>247.92</course>
  <speed>0.022360679774997897</speed>
  <fix>3d</fix>
</trkpt>
<trkpt lat="40.0713749" lon="-105.229789">
  <ele>1583.0</ele>
  <time>2026-08-28T17:51:46Z</time>
  <course>0.0</course>
  <speed>0.0</speed>
  <fix>3d</fix>
</trkpt>
<trkpt lat="40.0713749" lon="-105.229789">
  <ele>1583.0</ele>
  <time>2026-08-28T17:51:46Z</time>
  <course>247.92</course>
  <speed>0.022360679774997897</speed>
  <fix>3d</fix>
</trkpt>
<trkpt lat="40.0713749" lon="-105.229789">
  <ele>1583.0</ele>
  <time>2026-08-28T17:51:46Z</time>
  <course>0.0</course>
  <speed>0.0</speed>
  <fix>3d</fix>
</trkpt>
<trkpt lat="40.0713749" lon="-105.229789">
  <ele>1583.0</ele>
  <time>2026-08-28T17:51:46Z</time>
  <course>247.92</course>
  <speed>0.022360679774997897</speed>
  <fix>3d</fix>
</trkpt>
<trkpt lat="40.0713749" lon="-105.229789">
  <ele>1583.0</ele>
  <time>2026-08-28T17:51:46Z</time>
  <course>0.0</course>
  <speed>0.0</speed>
  <fix>3d</fix>
</trkpt>
<trkpt lat="40.0713749" lon="-105.229789">
  <ele>1583.0</ele>
  <time>2026-08-28T17:51:46Z</time>
  <course>247.91</course>
  <speed>0.022360679774997897</speed>
  <fix>3d</fix>
</trkpt>
<trkpt lat="40.0713749" lon="-105.229789">
  <ele>1583.0</ele>
  <time>2026-08-28T17:51:46Z</time>
  <course>0.0</course>
  <speed>0.0</speed>
  <fix>3d</fix>
</trkpt>
<trkpt lat="40.0713749" lon="-105.229789">
  <ele>1583.0</ele>
  <time>2026-08-28T17:51:46Z</time>
  <course>247.91</course>
  <speed>0.022360679774997897</speed>
  <fix>3d</fix>
</trkpt>
<trkpt lat="40.0713749" lon="-105.229789">
  <ele>1583.0</ele>
  <time>2026-08-28T17:51:46Z</time>
  <course>0.0</course>
  <speed>0.0</speed>
  <fix>3d</fix>
</trkpt>
<trkpt lat="40.0713749" lon="-105.229789">
  <ele>1583.0</ele>
  <time>2026-08-28T17:51:46Z</time>
  <course>247.9</course>
  <speed>0.022360679774997897</speed>
  <fix>3d</fix>
</trkpt>
<trkpt lat="40.0713749" lon="-105.229789">
  <ele>1583.0</ele>
  <time>2026-08-28T17:51:46Z</time>
  <course>0.0</course>
  <speed>0.0</speed>
  <fix>3d</fix>
</trkpt>
<trkpt lat="40.0713749" lon="-105.229789">
  <ele>1583.0</ele>
  <time>2026-08-28T17:51:46Z</time>
  <course>247.9</course>
  <speed>0.022360679774997897</speed>
  <fix>3d</fix>
</trkpt>
<trkpt lat="40.0713749" lon="-105.229789">
  <ele>1583.0</ele>
  <time>2026-08-28T17:51:46Z</time>
  <course>0.0</course>
  <speed>0.0</speed>
  <fix>3d</fix>
</trkpt>
<trkpt lat="40.0713749" lon="-105.229789">
  <ele>1583.0</ele>
  <time>2026-08-28T17:51:46Z</time>
  <course>247.89</course>
  <speed>0.022360679774997897</speed>
  <fix>3d</fix>
</trkpt>
<trkpt lat="40.0713749" lon="-105.229789">
  <ele>1583.0</ele>
  <time>2026-08-28T17:51:46Z</time>
  <course>0.0</course>
  <speed>0.0</speed>
  <fix>3d</fix>
</trkpt>
<trkpt lat="40.0713749" lon="-105.229789">
  <ele>1583.0</ele>
  <time>2026-08-28T17:51:46Z</time>
  <course>247.89</course>
  <speed>0.022360679774997897</speed>
  <fix>3d</fix>
</trkpt>
<trkpt lat="40.0713749" lon="-105.229789">
  <ele>1583.0</ele>
  <time>2026-08-28T17:51:46Z</time>
  <course>0.0</course>
  <speed>0.0</speed>
  <fix>3d</fix>
</trkpt>
<trkpt lat="40.0713749" lon="-105.229789">
  <ele>1583.0</ele>
  <time>2026-08-28T17:51:46Z</time>
  <course>247.89</course>
  <speed>0.022360679774997897</speed>
  <fix>3d</fix>
</trkpt>
<trkpt lat="40.0713749" lon="-105.229789">
  <ele>1583.0</ele>
  <time>2026-08-28T17:51:46Z</time>
  <course>0.0</course>
  <speed>0.0</speed>
  <fix>3d</fix>
</trkpt>
<trkpt lat="40.0713749" lon="-105.229789">
  <ele>1583.0</ele>
  <time>2026-08-28T17:51:46Z</time>
  <course>247.88</course>
  <speed>0.0316227766016838</speed>
  <fix>3d</fix>
</trkpt>
<trkpt lat="40.0713749" lon="-105.229789">
  <ele>1583.0</ele>
  <time>2026-08-28T17:51:46Z</time>
  <course>0.0</course>
  <speed>0.0</speed>
  <fix>3d</fix>
</trkpt>
<trkpt lat="40.0713749" lon="-105.229789">
  <ele>1583.0</ele>
  <time>2026-08-28T17:51:46Z</time>
  <course>247.88</course>
  <speed>0.0316227766016838</speed>
  <fix>3d</fix>
</trkpt>
<trkpt lat="40.0713749" lon="-105.229789">
  <ele>1583.0</ele>
  <time>2026-08-28T17:51:46Z</time>
  <course>0.0</course>
  <speed>0.0</speed>
  <fix>3d</fix>
</trkpt>
<trkpt lat="40.0713749" lon="-105.229789">
  <ele>1583.0</ele>
  <time>2026-08-28T17:51:46Z</time>
  <course>247.87</course>
  <speed>0.0316227766016838</speed>
  <fix>3d</fix>
</trkpt>
<trkpt lat="40.0713749" lon="-105.229789">
  <ele>1583.0</ele>
  <time>2026-08-28T17:51:46Z</time>
  <course>0.0</course>
  <speed>0.0</speed>
  <fix>3d</fix>
</trkpt>
<trkpt lat="40.0713749" lon="-105.229789">
  <ele>1583.0</ele>
  <time>2026-08-28T17:51:46Z</time>
  <course>247.87</course>
  <speed>0.0316227766016838</speed>
  <fix>3d</fix>
</trkpt>
<trkpt lat="40.0713749" lon="-105.229789">
  <ele>1583.0</ele>
  <time>2026-08-28T17:51:46Z</time>
  <course>0.0</course>
  <speed>0.0</speed>
  <fix>3d</fix>
</trkpt>
<trkpt lat="40.0713749" lon="-105.229789">
  <ele>1583.0</ele>
  <time>2026-08-28T17:51:46Z</time>
  <course>247.87</course>
  <speed>0.0316227766016838</speed>
  <fix>3d</fix>
</trkpt>
<trkpt lat="40.0713749" lon="-105.229789">
  <ele>1583.0</ele>
  <time>2026-08-28T17:51:46Z</time>
  <course>0.0</course>
  <speed>0.0</speed>
  <fix>3d</fix>
</trkpt>
<trkpt lat="40.0713749" lon="-105.229789">
  <ele>1583.0</ele>
  <time>2026-08-28T17:51:46Z</time>
  <course>247.86</course>
  <speed>0.0316227766016838</speed>
  <fix>3d</fix>
</trkpt>
<trkpt lat="40.0713749" lon="-105.229789">
  <ele>1583.0</ele>
  <time>2026-08-28T17:51:46Z</time>
  <course>0.0</course>
  <speed>0.0</speed>
  <fix>3d</fix>
</trkpt>
<trkpt lat="40.0713749" lon="-105.229789">
  <ele>1583.0</ele>
  <time>2026-08-28T17:51:46Z</time>
  <course>247.86</course>
  <speed>0.0316227766016838</speed>
  <fix>3d</fix>
</trkpt>
<trkpt lat="40.0713749" lon="-105.229789">
  <ele>1583.0</ele>
  <time>2026-08-28T17:51:46Z</time>
  <course>0.0</course>
  <speed>0.0</speed>
  <fix>3d</fix>
</trkpt>
<trkpt lat="40.0713749" lon="-105.229789">
  <ele>1583.0</ele>
  <time>2026-08-28T17:51:46Z</time>
  <course>247.85</course>
  <speed>0.0316227766016838</speed>
  <fix>3d</fix>
</trkpt>
<trkpt lat="40.0713749" lon="-105.229789">
  <ele>1583.0</ele>
  <time>2026-08-28T17:51:46Z</time>
  <course>0.0</course>
  <speed>0.0</speed>
  <fix>3d</fix>
</trkpt>
<trkpt lat="40.0713749" lon="-105.229789">
  <ele>1583.0</ele>
  <time>2026-08-28T17:51:46Z</time>
  <course>247.85</course>
  <speed>0.0316227766016838</speed>
  <fix>3d</fix>
</trkpt>
<trkpt lat="40.0713749" lon="-105.229789">
  <ele>1583.0</ele>
  <time>2026-08-28T17:51:46Z</time>
  <course>0.0</course>
  <speed>0.0</speed>
  <fix>3d</fix>
</trkpt>
<trkpt lat="40.0713749" lon="-105.229789">
  <ele>1583.0</ele>
  <time>2026-08-28T17:51:46Z</time>
  <course>247.85</course>
  <speed>0.0316227766016838</speed>
  <fix>3d</fix>
</trkpt>
<trkpt lat="40.0713749" lon="-105.229789">
  <ele>1583.0</ele>
  <time>2026-08-28T17:51:46Z</time>
  <course>0.0</course>
  <speed>0.0</speed>
  <fix>3d</fix>
</trkpt>
<trkpt lat="40.0713749" lon="-105.229789">
  <ele>1583.0</ele>
  <time>2026-08-28T17:51:46Z</time>
  <course>247.84</course>
  <speed>0.0316227766016838</speed>
  <fix>3d</fix>
</trkpt>
<trkpt lat="40.0713749" lon="-105.229789">
  <ele>1583.0</ele>
  <time>2026-08-28T17:51:46Z</time>
  <course>0.0</course>
  <speed>0.0</speed>
  <fix>3d</fix>
</trkpt>
<trkpt lat="40.0713749" lon="-105.229789">
  <ele>1583.0</ele>
  <time>2026-08-28T17:51:46Z</time>
  <course>247.84</course>
  <speed>0.0316227766016838</speed>
  <fix>3d</fix>
</trkpt>
<trkpt lat="40.0713749" lon="-105.229789">
  <ele>1583.0</ele>
  <time>2026-08-28T17:51:46Z</time>
  <course>0.0</course>
  <speed>0.0</speed>
  <fix>3d</fix>
</trkpt>
<trkpt lat="40.0713749" lon="-105.229789">
  <ele>1583.0</ele>
  <time>2026-08-28T17:51:46Z</time>
  <course>247.83</course>
  <speed>0.0316227766016838</speed>
  <fix>3d</fix>
</trkpt>
<trkpt lat="40.0713749" lon="-105.229789">
  <ele>1583.0</ele>
  <time>2026-08-28T17:51:46Z</time>
  <course>0.0</course>
  <speed>0.0</speed>
  <fix>3d</fix>
</trkpt>
<trkpt lat="40.0713749" lon="-105.229789">
  <ele>1583.0</ele>
  <time>2026-08-28T17:51:46Z</time>
  <course>247.83</course>
  <speed>0.0316227766016838</speed>
  <fix>3d</fix>
</trkpt>
<trkpt lat="40.0713749" lon="-105.229789">
  <ele>1583.0</ele>
  <time>2026-08-28T17:51:46Z</time>
  <course>0.0</course>
  <speed>0.0</speed>
  <fix>3d</fix>
</trkpt>
<trkpt lat="40.0713749" lon="-105.229789">
  <ele>1583.0</ele>
  <time>2026-08-28T17:51:46Z</time>
  <course>247.83</course>
  <speed>0.0316227766016838</speed>
  <fix>3d</fix>
</trkpt>
<trkpt lat="40.0713749" lon="-105.229789">
  <ele>1583.0</ele>
  <time>2026-08-28T17:51:46Z</time>
  <course>0.0</course>
  <speed>0.0</speed>
  <fix>3d</fix>
</trkpt>
<trkpt lat="40.0713749" lon="-105.229789">
  <ele>1583.0</ele>
  <time>2026-08-28T17:51:46Z</time>
  <course>247.82</course>
  <speed>0.0316227766016838</speed>
  <fix>3d</fix>
</trkpt>
<trkpt lat="40.0713749" lon="-105.229789">
  <ele>1583.0</ele>
  <time>2026-08-28T17:51:46Z</time>
  <course>0.0</course>
  <speed>0.0</speed>
  <fix>3d</fix>
</trkpt>
<trkpt lat="40.0713749" lon="-105.229789">
  <ele>1583.0</ele>
  <time>2026-08-28T17:51:46Z</time>
  <course>247.8</course>
  <speed>0.0316227766016838</speed>
  <fix>3d</fix>
</trkpt>
<trkpt lat="40.0713749" lon="-105.229789">
  <ele>1583.0</ele>
  <time>2026-08-28T17:51:46Z</time>
  <course>0.0</course>
  <speed>0.0</speed>
  <fix>3d</fix>
</trkpt>
<trkpt lat="40.0713749" lon="-105.229789">
  <ele>1583.0</ele>
  <time>2026-08-28T17:51:46Z</time>
  <course>247.8</course>
  <speed>0.0316227766016838</speed>
  <fix>3d</fix>
</trkpt>
<trkpt lat="40.0713749" lon="-105.229789">
  <ele>1583.0</ele>
  <time>2026-08-28T17:51:46Z</time>
  <course>0.0</course>
  <speed>0.0</speed>
  <fix>3d</fix>
</trkpt>
<trkpt lat="40.0713749" lon="-105.229789">
  <ele>1583.0</ele>
  <time>2026-08-28T17:51:46Z</time>
  <course>247.8</course>
  <speed>0.0316227766016838</speed>
  <fix>3d</fix>
</trkpt>
<trkpt lat="40.0713749" lon="-105.229789">
  <ele>1583.0</ele>
  <time>2026-08-28T17:51:46Z</time>
  <course>0.0</course>
  <speed>0.0</speed>
  <fix>3d</fix>
</trkpt>
<trkpt lat="40.0713749" lon="-105.229789">
  <ele>1583.0</ele>
  <time>2026-08-28T17:51:46Z</time>
  <course>247.79</course>
  <speed>0.0316227766016838</speed>
  <fix>3d</fix>
</trkpt>
<trkpt lat="40.0713749" lon="-105.229789">
  <ele>1583.0</ele>
  <time>2026-08-28T17:51:46Z</time>
  <course>0.0</course>
  <speed>0.0</speed>
  <fix>3d</fix>
</trkpt>
<trkpt lat="40.0713749" lon="-105.229789">
  <ele>1583.0</ele>
  <time>2026-08-28T17:51:46Z</time>
  <course>247.79</course>
  <speed>0.0316227766016838</speed>
  <fix>3d</fix>
</trkpt>
<trkpt lat="40.0713749" lon="-105.229789">
  <ele>1583.0</ele>
  <time>2026-08-28T17:51:46Z</time>
  <course>0.0</course>
  <speed>0.0</speed>
  <fix>3d</fix>
</trkpt>
<trkpt lat="40.0713749" lon="-105.229789">
  <ele>1583.0</ele>
  <time>2026-08-28T17:51:46Z</time>
  <course>247.79</course>
  <speed>0.0316227766016838</speed>
  <fix>3d</fix>
</trkpt>
<trkpt lat="40.0713749" lon="-105.229789">
  <ele>1583.0</ele>
  <time>2026-08-28T17:51:46Z</time>
  <course>0.0</course>
  <speed>0.0</speed>
  <fix>3d</fix>
</trkpt>
<trkpt lat="40.0713749" lon="-105.229789">
  <ele>1583.0</ele>
  <time>2026-08-28T17:51:46Z</time>
  <course>247.78</course>
  <speed>0.0316227766016838</speed>
  <fix>3d</fix>
</trkpt>
<trkpt lat="40.0713749" lon="-105.229789">
  <ele>1583.0</ele>
  <time>2026-08-28T17:51:46Z</time>
  <course>0.0</course>
  <speed>0.0</speed>
  <fix>3d</fix>
</trkpt>
<trkpt lat="40.0713749" lon="-105.229789">
  <ele>1583.0</ele>
  <time>2026-08-28T17:51:46Z</time>
  <course>247.78</course>
  <speed>0.0316227766016838</speed>
  <fix>3d</fix>
</trkpt>
<trkpt lat="40.0713749" lon="-105.229789">
  <ele>1583.0</ele>
  <time>2026-08-28T17:51:46Z</time>
  <course>0.0</course>
  <speed>0.0</speed>
  <fix>3d</fix>
</trkpt>
<trkpt lat="40.0713749" lon="-105.229789">
  <ele>1583.0</ele>
  <time>2026-08-28T17:51:46Z</time>
  <course>247.78</course>
  <speed>0.0316227766016838</speed>
  <fix>3d</fix>
</trkpt>
<trkpt lat="40.0713749" lon="-105.229789">
  <ele>1583.0</ele>
  <time>2026-08-28T17:51:46Z</time>
  <course>0.0</course>
  <speed>0.0</speed>
  <fix>3d</fix>
</trkpt>
<trkpt lat="40.0713749" lon="-105.229789">
  <ele>1583.0</ele>
  <time>2026-08-28T17:51:46Z</time>
  <course>247.77</course>
  <speed>0.0316227766016838</speed>
  <fix>3d</fix>
</trkpt>
<trkpt lat="40.0713749" lon="-105.229789">
  <ele>1583.0</ele>
  <time>2026-08-28T17:51:46Z</time>
  <course>0.0</course>
  <speed>0.0</speed>
  <fix>3d</fix>
</trkpt>
<trkpt lat="40.0713749" lon="-105.229789">
  <ele>1583.0</ele>
  <time>2026-08-28T17:51:46Z</time>
  <course>247.77</course>
  <speed>0.0316227766016838</speed>
  <fix>3d</fix>
</trkpt>
<trkpt lat="40.0713749" lon="-105.229789">
  <ele>1583.0</ele>
  <time>2026-08-28T17:51:46Z</time>
  <course>0.0</course>
  <speed>0.0</speed>
  <fix>3d</fix>
</trkpt>
<trkpt lat="40.0713749" lon="-105.229789">
  <ele>1583.0</ele>
  <time>2026-08-28T17:51:46Z</time>
  <course>247.76</course>
  <speed>0.0316227766016838</speed>
  <fix>3d</fix>
</trkpt>
<trkpt lat="40.0713749" lon="-105.229789">
  <ele>1583.0</ele>
  <time>2026-08-28T17:51:46Z</time>
  <course>0.0</course>
  <speed>0.0</speed>
  <fix>3d</fix>
</trkpt>
<trkpt lat="40.0713749" lon="-105.229789">
  <ele>1583.0</ele>
  <time>2026-08-28T17:51:46Z</time>
  <course>247.76</course>
  <speed>0.0316227766016838</speed>
  <fix>3d</fix>
</trkpt>
<trkpt lat="40.0713749" lon="-105.229789">
  <ele>1583.0</ele>
  <time>2026-08-28T17:51:46Z</time>
  <course>0.0</course>
  <speed>0.0</speed>
  <fix>3d</fix>
</trkpt>
<trkpt lat="40.0713749" lon="-105.229789">
  <ele>1583.0</ele>
  <time>2026-08-28T17:51:46Z</time>
  <course>247.76</course>
  <speed>0.0316227766016838</speed>
  <fix>3d</fix>
</trkpt>
<trkpt lat="40.0713749" lon="-105.229789">
  <ele>1583.0</ele>
  <time>2026-08-28T17:51:46Z</time>
  <course>0.0</course>
  <speed>0.0</speed>
  <fix>3d</fix>
</trkpt>
<trkpt lat="40.0713749" lon="-105.229789">
  <ele>1583.0</ele>
  <time>2026-08-28T17:51:46Z</time>
  <course>247.75</course>
  <speed>0.0316227766016838</speed>
  <fix>3d</fix>
</trkpt>
<trkpt lat="40.0713749" lon="-105.229789">
  <ele>1583.0</ele>
  <time>2026-08-28T17:51:46Z</time>
  <course>0.0</course>
  <speed>0.0</speed>
  <fix>3d</fix>
</trkpt>
<trkpt lat="40.0713749" lon="-105.229789">
  <ele>1583.0</ele>
  <time>2026-08-28T17:51:46Z</time>
  <course>247.75</course>
  <speed>0.0316227766016838</speed>
  <fix>3d</fix>
</trkpt>
<trkpt lat="40.0713749" lon="-105.229789">
  <ele>1583.0</ele>
  <time>2026-08-28T17:51:46Z</time>
  <course>0.0</course>
  <speed>0.0</speed>
  <fix>3d</fix>
</trkpt>
<trkpt lat="40.0713749" lon="-105.229789">
  <ele>1583.0</ele>
  <time>2026-08-28T17:51:46Z</time>
  <course>247.75</course>
  <speed>0.0316227766016838</speed>
  <fix>3d</fix>
</trkpt>
<trkpt lat="40.0713749" lon="-105.229789">
  <ele>1583.0</ele>
  <time>2026-08-28T17:51:46Z</time>
  <course>0.0</course>
  <speed>0.0</speed>
  <fix>3d</fix>
</trkpt>
<trkpt lat="40.0713749" lon="-105.229789">
  <ele>1583.0</ele>
  <time>2026-08-28T17:51:46Z</time>
  <course>247.74</course>
  <speed>0.0316227766016838</speed>
  <fix>3d</fix>
</trkpt>
<trkpt lat="40.0713749" lon="-105.229789">
  <ele>1583.0</ele>
  <time>2026-08-28T17:51:46Z</time>
  <course>0.0</course>
  <speed>0.0</speed>
  <fix>3d</fix>
</trkpt>
<trkpt lat="40.0713749" lon="-105.229789">
  <ele>1583.0</ele>
  <time>2026-08-28T17:51:46Z</time>
  <course>247.74</course>
  <speed>0.0316227766016838</speed>
  <fix>3d</fix>
</trkpt>
<trkpt lat="40.0713749" lon="-105.229789">
  <ele>1583.0</ele>
  <time>2026-08-28T17:51:46Z</time>
  <course>0.0</course>
  <speed>0.0</speed>
  <fix>3d</fix>
</trkpt>
<trkpt lat="40.0713749" lon="-105.229789">
  <ele>1583.0</ele>
  <time>2026-08-28T17:51:46Z</time>
  <course>247.74</course>
  <speed>0.0316227766016838</speed>
  <fix>3d</fix>
</trkpt>
<trkpt lat="40.0713749" lon="-105.229789">
  <ele>1583.0</ele>
  <time>2026-08-28T17:51:46Z</time>
  <course>0.0</course>
  <speed>0.0</speed>
  <fix>3d</fix>
</trkpt>
<trkpt lat="40.0713749" lon="-105.229789">
  <ele>1583.0</ele>
  <time>2026-08-28T17:51:46Z</time>
  <course>247.73</course>
  <speed>0.0316227766016838</speed>
  <fix>3d</fix>
</trkpt>
<trkpt lat="40.0713749" lon="-105.229789">
  <ele>1583.0</ele>
  <time>2026-08-28T17:51:46Z</time>
  <course>0.0</course>
  <speed>0.0</speed>
  <fix>3d</fix>
</trkpt>
<trkpt lat="40.0713749" lon="-105.229789">
  <ele>1583.0</ele>
  <time>2026-08-28T17:51:46Z</time>
  <course>247.73</course>
  <speed>0.0316227766016838</speed>
  <fix>3d</fix>
</trkpt>
<trkpt lat="40.0713749" lon="-105.229789">
  <ele>1583.0</ele>
  <time>2026-08-28T17:51:46Z</time>
  <course>0.0</course>
  <speed>0.0</speed>
  <fix>3d</fix>
</trkpt>
<trkpt lat="40.0713749" lon="-105.229789">
  <ele>1583.0</ele>
  <time>2026-08-28T17:51:46Z</time>
  <course>247.73</course>
  <speed>0.0316227766016838</speed>
  <fix>3d</fix>
</trkpt>
<trkpt lat="40.0713749" lon="-105.229789">
  <ele>1583.0</ele>
  <time>2026-08-28T17:51:46Z</time>
  <course>0.0</course>
  <speed>0.0</speed>
  <fix>3d</fix>
</trkpt>
<trkpt lat="40.0713749" lon="-105.229789">
  <ele>1583.0</ele>
  <time>2026-08-28T17:51:46Z</time>
  <course>247.72</course>
  <speed>0.0316227766016838</speed>
  <fix>3d</fix>
</trkpt>
<trkpt lat="40.0713749" lon="-105.229789">
  <ele>1583.0</ele>
  <time>2026-08-28T17:51:46Z</time>
  <course>0.0</course>
  <speed>0.0</speed>
  <fix>3d</fix>
</trkpt>
<trkpt lat="40.0713749" lon="-105.229789">
  <ele>1583.0</ele>
  <time>2026-08-28T17:51:46Z</time>
  <course>247.72</course>
  <speed>0.0316227766016838</speed>
  <fix>3d</fix>
</trkpt>
<trkpt lat="40.0713749" lon="-105.229789">
  <ele>1583.0</ele>
  <time>2026-08-28T17:51:46Z</time>
  <course>0.0</course>
  <speed>0.0</speed>
  <fix>3d</fix>
</trkpt>
<trkpt lat="40.0713749" lon="-105.229789">
  <ele>1583.0</ele>
  <time>2026-08-28T17:51:46Z</time>
  <course>247.72</course>
  <speed>0.0316227766016838</speed>
  <fix>3d</fix>
</trkpt>
<trkpt lat="40.0713749" lon="-105.229789">
  <ele>1583.0</ele>
  <time>2026-08-28T17:51:46Z</time>
  <course>0.0</course>
  <speed>0.0</speed>
  <fix>3d</fix>
</trkpt>
<trkpt lat="40.0713749" lon="-105.229789">
  <ele>1583.0</ele>
  <time>2026-08-28T17:51:46Z</time>
  <course>247.71</course>
  <speed>0.0316227766016838</speed>
  <fix>3d</fix>
</trkpt>
<trkpt lat="40.0713749" lon="-105.229789">
  <ele>1583.0</ele>
  <time>2026-08-28T17:51:46Z</time>
  <course>0.0</course>
  <speed>0.0</speed>
  <fix>3d</fix>
</trkpt>
<trkpt lat="40.0713749" lon="-105.229789">
  <ele>1583.0</ele>
  <time>2026-08-28T17:51:46Z</time>
  <course>247.71</course>
  <speed>0.0316227766016838</speed>
  <fix>3d</fix>
</trkpt>
<trkpt lat="40.0713749" lon="-105.229789">
  <ele>1583.0</ele>
  <time>2026-08-28T17:51:46Z</time>
  <course>0.0</course>
  <speed>0.0</speed>
  <fix>3d</fix>
</trkpt>
<trkpt lat="40.0713749" lon="-105.229789">
  <ele>1583.0</ele>
  <time>2026-08-28T17:51:46Z</time>
  <course>247.71</course>
  <speed>0.0316227766016838</speed>
  <fix>3d</fix>
</trkpt>
<trkpt lat="40.0713749" lon="-105.229789">
  <ele>1583.0</ele>
  <time>2026-08-28T17:51:46Z</time>
  <course>0.0</course>
  <speed>0.0</speed>
  <fix>3d</fix>
</trkpt>
<trkpt lat="40.0713749" lon="-105.229789">
  <ele>1583.0</ele>
  <time>2026-08-28T17:51:46Z</time>
  <course>247.7</course>
  <speed>0.0316227766016838</speed>
  <fix>3d</fix>
</trkpt>
<trkpt lat="40.0713749" lon="-105.229789">
  <ele>1583.0</ele>
  <time>2026-08-28T17:51:46Z</time>
  <course>0.0</course>
  <speed>0.0</speed>
  <fix>3d</fix>
</trkpt>
<trkpt lat="40.0713749" lon="-105.229789">
  <ele>1583.0</ele>
  <time>2026-08-28T17:51:46Z</time>
  <course>247.7</course>
  <speed>0.0316227766016838</speed>
  <fix>3d</fix>
</trkpt>
<trkpt lat="40.0713749" lon="-105.229789">
  <ele>1583.0</ele>
  <time>2026-08-28T17:51:46Z</time>
  <course>0.0</course>
  <speed>0.0</speed>
  <fix>3d</fix>
</trkpt>
<trkpt lat="40.0713749" lon="-105.229789">
  <ele>1583.0</ele>
  <time>2026-08-28T17:51:46Z</time>
  <course>247.7</course>
  <speed>0.0316227766016838</speed>
  <fix>3d</fix>
</trkpt>
<trkpt lat="40.0713749" lon="-105.229789">
  <ele>1583.0</ele>
  <time>2026-08-28T17:51:46Z</time>
  <course>0.0</course>
  <speed>0.0</speed>
  <fix>3d</fix>
</trkpt>
<trkpt lat="40.0713749" lon="-105.229789">
  <ele>1583.0</ele>
  <time>2026-08-28T17:51:46Z</time>
  <course>247.69</course>
  <speed>0.0316227766016838</speed>
  <fix>3d</fix>
</trkpt>
<trkpt lat="40.0713749" lon="-105.229789">
  <ele>1583.0</ele>
  <time>2026-08-28T17:51:46Z</time>
  <course>0.0</course>
  <speed>0.0</speed>
  <fix>3d</fix>
</trkpt>
<trkpt lat="40.0713749" lon="-105.229789">
  <ele>1583.0</ele>
  <time>2026-08-28T17:51:46Z</time>
  <course>247.69</course>
  <speed>0.0316227766016838</speed>
  <fix>3d</fix>
</trkpt>
<trkpt lat="40.0713749" lon="-105.229789">
  <ele>1583.0</ele>
  <time>2026-08-28T17:51:46Z</time>
  <course>0.0</course>
  <speed>0.0</speed>
  <fix>3d</fix>
</trkpt>
<trkpt lat="40.0713749" lon="-105.229789">
  <ele>1583.0</ele>
  <time>2026-08-28T17:51:46Z</time>
  <course>247.69</course>
  <speed>0.0316227766016838</speed>
  <fix>3d</fix>
</trkpt>
<trkpt lat="40.0713749" lon="-105.229789">
  <ele>1583.0</ele>
  <time>2026-08-28T17:51:46Z</time>
  <course>0.0</course>
  <speed>0.0</speed>
  <fix>3d</fix>
</trkpt>
<trkpt lat="40.0713749" lon="-105.229789">
  <ele>1583.0</ele>
  <time>2026-08-28T17:51:46Z</time>
  <course>247.68</course>
  <speed>0.0316227766016838</speed>
  <fix>3d</fix>
</trkpt>
<trkpt lat="40.0713749" lon="-105.229789">
  <ele>1583.0</ele>
  <time>2026-08-28T17:51:46Z</time>
  <course>0.0</course>
  <speed>0.0</speed>
  <fix>3d</fix>
</trkpt>
<trkpt lat="40.0713749" lon="-105.229789">
  <ele>1583.0</ele>
  <time>2026-08-28T17:51:46Z</time>
  <course>247.68</course>
  <speed>0.0316227766016838</speed>
  <fix>3d</fix>
</trkpt>
<trkpt lat="40.0713749" lon="-105.229789">
  <ele>1583.0</ele>
  <time>2026-08-28T17:51:46Z</time>
  <course>0.0</course>
  <speed>0.0</speed>
  <fix>3d</fix>
</trkpt>
<trkpt lat="40.0713749" lon="-105.229789">
  <ele>1583.0</ele>
  <time>2026-08-28T17:51:46Z</time>
  <course>247.68</course>
  <speed>0.0316227766016838</speed>
  <fix>3d</fix>
</trkpt>
<trkpt lat="40.0713749" lon="-105.229789">
  <ele>1583.0</ele>
  <time>2026-08-28T17:51:46Z</time>
  <course>0.0</course>
  <speed>0.0</speed>
  <fix>3d</fix>
</trkpt>
<trkpt lat="40.0713749" lon="-105.229789">
  <ele>1583.0</ele>
  <time>2026-08-28T17:51:46Z</time>
  <course>247.67</course>
  <speed>0.0316227766016838</speed>
  <fix>3d</fix>
</trkpt>
<trkpt lat="40.0713749" lon="-105.229789">
  <ele>1583.0</ele>
  <time>2026-08-28T17:51:46Z</time>
  <course>0.0</course>
  <speed>0.0</speed>
  <fix>3d</fix>
</trkpt>
<trkpt lat="40.0713749" lon="-105.229789">
  <ele>1583.0</ele>
  <time>2026-08-28T17:51:46Z</time>
  <course>247.67</course>
  <speed>0.0316227766016838</speed>
  <fix>3d</fix>
</trkpt>
<trkpt lat="40.0713749" lon="-105.229789">
  <ele>1583.0</ele>
  <time>2026-08-28T17:51:46Z</time>
  <course>0.0</course>
  <speed>0.0</speed>
  <fix>3d</fix>
</trkpt>
<trkpt lat="40.0713749" lon="-105.229789">
  <ele>1583.0</ele>
  <time>2026-08-28T17:51:46Z</time>
  <course>247.67</course>
  <speed>0.0316227766016838</speed>
  <fix>3d</fix>
</trkpt>
<trkpt lat="40.0713749" lon="-105.229789">
  <ele>1583.0</ele>
  <time>2026-08-28T17:51:46Z</time>
  <course>0.0</course>
  <speed>0.0</speed>
  <fix>3d</fix>
</trkpt>
<trkpt lat="40.0713749" lon="-105.229789">
  <ele>1583.0</ele>
  <time>2026-08-28T17:51:46Z</time>
  <course>247.66</course>
  <speed>0.0316227766016838</speed>
  <fix>3d</fix>
</trkpt>
<trkpt lat="40.0713749" lon="-105.229789">
  <ele>1583.0</ele>
  <time>2026-08-28T17:51:46Z</time>
  <course>0.0</course>
  <speed>0.0</speed>
  <fix>3d</fix>
</trkpt>
<trkpt lat="40.0713749" lon="-105.229789">
  <ele>1583.0</ele>
  <time>2026-08-28T17:51:46Z</time>
  <course>247.66</course>
  <speed>0.0316227766016838</speed>
  <fix>3d</fix>
</trkpt>
<trkpt lat="40.0713749" lon="-105.229789">
  <ele>1583.0</ele>
  <time>2026-08-28T17:51:46Z</time>
  <course>0.0</course>
  <speed>0.0</speed>
  <fix>3d</fix>
</trkpt>
<trkpt lat="40.0713749" lon="-105.229789">
  <ele>1583.0</ele>
  <time>2026-08-28T17:51:46Z</time>
  <course>247.66</course>
  <speed>0.0316227766016838</speed>
  <fix>3d</fix>
</trkpt>
<trkpt lat="40.0713749" lon="-105.229789">
  <ele>1583.0</ele>
  <time>2026-08-28T17:51:46Z</time>
  <course>0.0</course>
  <speed>0.0</speed>
  <fix>3d</fix>
</trkpt>
<trkpt lat="40.0713749" lon="-105.229789">
  <ele>1583.0</ele>
  <time>2026-08-28T17:51:46Z</time>
  <course>247.65</course>
  <speed>0.0316227766016838</speed>
  <fix>3d</fix>
</trkpt>
<trkpt lat="40.0713749" lon="-105.229789">
  <ele>1583.0</ele>
  <time>2026-08-28T17:51:46Z</time>
  <course>0.0</course>
  <speed>0.0</speed>
  <fix>3d</fix>
</trkpt>
<trkpt lat="40.0713749" lon="-105.229789">
  <ele>1583.0</ele>
  <time>2026-08-28T17:51:46Z</time>
  <course>247.65</course>
  <speed>0.0316227766016838</speed>
  <fix>3d</fix>
</trkpt>
<trkpt lat="40.0713749" lon="-105.229789">
  <ele>1583.0</ele>
  <time>2026-08-28T17:51:46Z</time>
  <course>0.0</course>
  <speed>0.0</speed>
  <fix>3d</fix>
</trkpt>
<trkpt lat="40.0713749" lon="-105.229789">
  <ele>1583.0</ele>
  <time>2026-08-28T17:51:46Z</time>
  <course>247.65</course>
  <speed>0.0316227766016838</speed>
  <fix>3d</fix>
</trkpt>
<trkpt lat="40.0713749" lon="-105.229789">
  <ele>1583.0</ele>
  <time>2026-08-28T17:51:46Z</time>
  <course>0.0</course>
  <speed>0.0</speed>
  <fix>3d</fix>
</trkpt>
<trkpt lat="40.0713749" lon="-105.229789">
  <ele>1583.0</ele>
  <time>2026-08-28T17:51:46Z</time>
  <course>247.64</course>
  <speed>0.0316227766016838</speed>
  <fix>3d</fix>
</trkpt>
<trkpt lat="40.0713749" lon="-105.229789">
  <ele>1583.0</ele>
  <time>2026-08-28T17:51:46Z</time>
  <course>0.0</course>
  <speed>0.0</speed>
  <fix>3d</fix>
</trkpt>
<trkpt lat="40.0713749" lon="-105.229789">
  <ele>1583.0</ele>
  <time>2026-08-28T17:51:46Z</time>
  <course>247.64</course>
  <speed>0.0316227766016838</speed>
  <fix>3d</fix>
</trkpt>
<trkpt lat="40.0713749" lon="-105.229789">
  <ele>1583.0</ele>
  <time>2026-08-28T17:51:46Z</time>
  <course>0.0</course>
  <speed>0.0</speed>
  <fix>3d</fix>
</trkpt>
<trkpt lat="40.0713749" lon="-105.229789">
  <ele>1583.0</ele>
  <time>2026-08-28T17:51:46Z</time>
  <course>247.64</course>
  <speed>0.0316227766016838</speed>
  <fix>3d</fix>
</trkpt>
<trkpt lat="40.0713749" lon="-105.229789">
  <ele>1583.0</ele>
  <time>2026-08-28T17:51:46Z</time>
  <course>0.0</course>
  <speed>0.0</speed>
  <fix>3d</fix>
</trkpt>
<trkpt lat="40.0713749" lon="-105.229789">
  <ele>1583.0</ele>
  <time>2026-08-28T17:51:46Z</time>
  <course>247.64</course>
  <speed>0.0316227766016838</speed>
  <fix>3d</fix>
</trkpt>
<trkpt lat="40.0713749" lon="-105.229789">
  <ele>1583.0</ele>
  <time>2026-08-28T17:51:46Z</time>
  <course>0.0</course>
  <speed>0.0</speed>
  <fix>3d</fix>
</trkpt>
<trkpt lat="40.0713749" lon="-105.229789">
  <ele>1583.0</ele>
  <time>2026-08-28T17:51:46Z</time>
  <course>247.63</course>
  <speed>0.0316227766016838</speed>
  <fix>3d</fix>
</trkpt>
<trkpt lat="40.0713749" lon="-105.229789">
  <ele>1583.0</ele>
  <time>2026-08-28T17:51:46Z</time>
  <course>0.0</course>
  <speed>0.0</speed>
  <fix>3d</fix>
</trkpt>
<trkpt lat="40.0713749" lon="-105.229789">
  <ele>1583.0</ele>
  <time>2026-08-28T17:51:46Z</time>
  <course>247.63</course>
  <speed>0.0316227766016838</speed>
  <fix>3d</fix>
</trkpt>
<trkpt lat="40.0713749" lon="-105.229789">
  <ele>1583.0</ele>
  <time>2026-08-28T17:51:46Z</time>
  <course>0.0</course>
  <speed>0.0</speed>
  <fix>3d</fix>
</trkpt>
<trkpt lat="40.0713749" lon="-105.229789">
  <ele>1583.0</ele>
  <time>2026-08-28T17:51:46Z</time>
  <course>247.63</course>
  <speed>0.0316227766016838</speed>
  <fix>3d</fix>
</trkpt>
<trkpt lat="40.0713749" lon="-105.229789">
  <ele>1583.0</ele>
  <time>2026-08-28T17:51:46Z</time>
  <course>0.0</course>
  <speed>0.0</speed>
  <fix>3d</fix>
</trkpt>
<trkpt lat="40.0713749" lon="-105.229789">
  <ele>1583.0</ele>
  <time>2026-08-28T17:51:46Z</time>
  <course>247.62</course>
  <speed>0.0316227766016838</speed>
  <fix>3d</fix>
</trkpt>
<trkpt lat="40.0713749" lon="-105.229789">
  <ele>1583.0</ele>
  <time>2026-08-28T17:51:46Z</time>
  <course>0.0</course>
  <speed>0.0</speed>
  <fix>3d</fix>
</trkpt>
<trkpt lat="40.0713749" lon="-105.229789">
  <ele>1583.0</ele>
  <time>2026-08-28T17:51:46Z</time>
  <course>247.62</course>
  <speed>0.0316227766016838</speed>
  <fix>3d</fix>
</trkpt>
<trkpt lat="40.0713749" lon="-105.229789">
  <ele>1583.0</ele>
  <time>2026-08-28T17:51:46Z</time>
  <course>0.0</course>
  <speed>0.0</speed>
  <fix>3d</fix>
</trkpt>
<trkpt lat="40.0713749" lon="-105.229789">
  <ele>1583.0</ele>
  <time>2026-08-28T17:51:46Z</time>
  <course>247.62</course>
  <speed>0.0316227766016838</speed>
  <fix>3d</fix>
</trkpt>
<trkpt lat="40.0713749" lon="-105.229789">
  <ele>1583.0</ele>
  <time>2026-08-28T17:51:46Z</time>
  <course>0.0</course>
  <speed>0.0</speed>
  <fix>3d</fix>
</trkpt>
<trkpt lat="40.0713749" lon="-105.229789">
  <ele>1583.0</ele>
  <time>2026-08-28T17:51:46Z</time>
  <course>247.62</course>
  <speed>0.0316227766016838</speed>
  <fix>3d</fix>
</trkpt>
<trkpt lat="40.0713749" lon="-105.229789">
  <ele>1583.0</ele>
  <time>2026-08-28T17:51:46Z</time>
  <course>0.0</course>
  <speed>0.0</speed>
  <fix>3d</fix>
</trkpt>
<trkpt lat="40.0713749" lon="-105.229789">
  <ele>1583.0</ele>
  <time>2026-08-28T17:51:46Z</time>
  <course>247.61</course>
  <speed>0.0316227766016838</speed>
  <fix>3d</fix>
</trkpt>
<trkpt lat="40.0713749" lon="-105.229789">
  <ele>1583.0</ele>
  <time>2026-08-28T17:51:46Z</time>
  <course>0.0</course>
  <speed>0.0</speed>
  <fix>3d</fix>
</trkpt>
<trkpt lat="40.0713749" lon="-105.229789">
  <ele>1583.0</ele>
  <time>2026-08-28T17:51:46Z</time>
  <course>247.61</course>
  <speed>0.0316227766016838</speed>
  <fix>3d</fix>
</trkpt>
<trkpt lat="40.0713749" lon="-105.229789">
  <ele>1583.0</ele>
  <time>2026-08-28T17:51:46Z</time>
  <course>0.0</course>
  <speed>0.0</speed>
  <fix>3d</fix>
</trkpt>
<trkpt lat="40.0713749" lon="-105.229789">
  <ele>1583.0</ele>
  <time>2026-08-28T17:51:46Z</time>
  <course>247.61</course>
  <speed>0.0316227766016838</speed>
  <fix>3d</fix>
</trkpt>
<trkpt lat="40.0713749" lon="-105.229789">
  <ele>1583.0</ele>
  <time>2026-08-28T17:51:46Z</time>
  <course>0.0</course>
  <speed>0.0</speed>
  <fix>3d</fix>
</trkpt>
<trkpt lat="40.0713749" lon="-105.229789">
  <ele>1583.0</ele>
  <time>2026-08-28T17:51:46Z</time>
  <course>247.6</course>
  <speed>0.0316227766016838</speed>
  <fix>3d</fix>
</trkpt>
<trkpt lat="40.0713749" lon="-105.229789">
  <ele>1583.0</ele>
  <time>2026-08-28T17:51:46Z</time>
  <course>0.0</course>
  <speed>0.0</speed>
  <fix>3d</fix>
</trkpt>
<trkpt lat="40.0713749" lon="-105.229789">
  <ele>1583.0</ele>
  <time>2026-08-28T17:51:46Z</time>
  <course>247.6</course>
  <speed>0.0316227766016838</speed>
  <fix>3d</fix>
</trkpt>
<trkpt lat="40.0713749" lon="-105.229789">
  <ele>1583.0</ele>
  <time>2026-08-28T17:51:46Z</time>
  <course>0.0</course>
  <speed>0.0</speed>
  <fix>3d</fix>
</trkpt>
<trkpt lat="40.0713749" lon="-105.229789">
  <ele>1583.0</ele>
  <time>2026-08-28T17:51:46Z</time>
  <course>247.6</course>
  <speed>0.0316227766016838</speed>
  <fix>3d</fix>
</trkpt>
<trkpt lat="40.0713749" lon="-105.229789">
  <ele>1583.0</ele>
  <time>2026-08-28T17:51:46Z</time>
  <course>0.0</course>
  <speed>0.0</speed>
  <fix>3d</fix>
</trkpt>
<trkpt lat="40.0713749" lon="-105.229789">
  <ele>1583.0</ele>
  <time>2026-08-28T17:51:46Z</time>
  <course>247.6</course>
  <speed>0.0316227766016838</speed>
  <fix>3d</fix>
</trkpt>
<trkpt lat="40.0713749" lon="-105.229789">
  <ele>1583.0</ele>
  <time>2026-08-28T17:51:46Z</time>
  <course>0.0</course>
  <speed>0.0</speed>
  <fix>3d</fix>
</trkpt>
<trkpt lat="40.0713749" lon="-105.229789">
  <ele>1583.0</ele>
  <time>2026-08-28T17:51:46Z</time>
  <course>247.59</course>
  <speed>0.0316227766016838</speed>
  <fix>3d</fix>
</trkpt>
<trkpt lat="40.0713749" lon="-105.229789">
  <ele>1583.0</ele>
  <time>2026-08-28T17:51:46Z</time>
  <course>0.0</course>
  <speed>0.0</speed>
  <fix>3d</fix>
</trkpt>
<trkpt lat="40.0713749" lon="-105.229789">
  <ele>1582.92</ele>
  <time>2026-08-28T17:51:46Z</time>
  <course>247.59</course>
  <speed>0.0</speed>
  <fix>3d</fix>
</trkpt>
<trkpt lat="40.0713749" lon="-105.229789">
  <ele>1583.0</ele>
  <time>2026-08-28T17:51:46Z</time>
  <course>0.0</course>
  <speed>0.0</speed>
  <fix>3d</fix>
</trkpt>
<trkpt lat="40.0713749" lon="-105.229789">
  <ele>1582.92</ele>
  <time>2026-08-28T17:51:46Z</time>
  <course>247.59</course>
  <speed>0.0</speed>
  <fix>3d</fix>
</trkpt>
<trkpt lat="40.0713749" lon="-105.229789">
  <ele>1583.0</ele>
  <time>2026-08-28T17:51:46Z</time>
  <course>0.0</course>
  <speed>0.0</speed>
  <fix>3d</fix>
</trkpt>
<trkpt lat="40.0713749" lon="-105.229789">
  <ele>1582.91</ele>
  <time>2026-08-28T17:51:46Z</time>
  <course>247.58</course>
  <speed>0.0</speed>
  <fix>3d</fix>
</trkpt>
<trkpt lat="40.0713749" lon="-105.229789">
  <ele>1583.0</ele>
  <time>2026-08-28T17:51:46Z</time>
  <course>0.0</course>
  <speed>0.0</speed>
  <fix>3d</fix>
</trkpt>
<trkpt lat="40.0713749" lon="-105.229789">
  <ele>1582.91</ele>
  <time>2026-08-28T17:51:46Z</time>
  <course>247.58</course>
  <speed>0.0</speed>
  <fix>3d</fix>
</trkpt>
<trkpt lat="40.0713749" lon="-105.229789">
  <ele>1583.0</ele>
  <time>2026-08-28T17:51:46Z</time>
  <course>0.0</course>
  <speed>0.0</speed>
  <fix>3d</fix>
</trkpt>
<trkpt lat="40.0713749" lon="-105.229789">
  <ele>1582.9</ele>
  <time>2026-08-28T17:51:46Z</time>
  <course>247.58</course>
  <speed>0.0</speed>
  <fix>3d</fix>
</trkpt>
<trkpt lat="40.0713749" lon="-105.229789">
  <ele>1583.0</ele>
  <time>2026-08-28T17:51:46Z</time>
  <course>0.0</course>
  <speed>0.0</speed>
  <fix>3d</fix>
</trkpt>
<trkpt lat="40.0713749" lon="-105.229789">
  <ele>1582.9</ele>
  <time>2026-08-28T17:51:46Z</time>
  <course>247.58</course>
  <speed>0.0</speed>
  <fix>3d</fix>
</trkpt>
<trkpt lat="40.0713749" lon="-105.229789">
  <ele>1583.0</ele>
  <time>2026-08-28T17:51:46Z</time>
  <course>0.0</course>
  <speed>0.0</speed>
  <fix>3d</fix>
</trkpt>
<trkpt lat="40.0713749" lon="-105.229789">
  <ele>1582.9</ele>
  <time>2026-08-28T17:51:46Z</time>
  <course>247.57</course>
  <speed>0.0</speed>
  <fix>3d</fix>
</trkpt>
<trkpt lat="40.0713749" lon="-105.229789">
  <ele>1583.0</ele>
  <time>2026-08-28T17:51:46Z</time>
  <course>0.0</course>
  <speed>0.0</speed>
  <fix>3d</fix>
</trkpt>
<trkpt lat="40.0713749" lon="-105.229789">
  <ele>1582.9</ele>
  <time>2026-08-28T17:51:46Z</time>
  <course>247.57</course>
  <speed>0.0</speed>
  <fix>3d</fix>
</trkpt>
<trkpt lat="40.0713749" lon="-105.229789">
  <ele>1583.0</ele>
  <time>2026-08-28T17:51:46Z</time>
  <course>0.0</course>
  <speed>0.0</speed>
  <fix>3d</fix>
</trkpt>
<trkpt lat="40.0713749" lon="-105.229789">
  <ele>1582.9</ele>
  <time>2026-08-28T17:51:46Z</time>
  <course>247.57</course>
  <speed>0.0</speed>
  <fix>3d</fix>
</trkpt>
<trkpt lat="40.0713749" lon="-105.229789">
  <ele>1583.0</ele>
  <time>2026-08-28T17:51:46Z</time>
  <course>0.0</course>
  <speed>0.0</speed>
  <fix>3d</fix>
</trkpt>
<trkpt lat="40.0713749" lon="-105.229789">
  <ele>1582.9</ele>
  <time>2026-08-28T17:51:46Z</time>
  <course>247.57</course>
  <speed>0.01</speed>
  <fix>3d</fix>
</trkpt>
<trkpt lat="40.0713749" lon="-105.229789">
  <ele>1583.0</ele>
  <time>2026-08-28T17:51:46Z</time>
  <course>0.0</course>
  <speed>0.0</speed>
  <fix>3d</fix>
</trkpt>
<trkpt lat="40.0713749" lon="-105.229789">
  <ele>1582.9</ele>
  <time>2026-08-28T17:51:46Z</time>
  <course>247.56</course>
  <speed>0.1044030650891055</speed>
  <fix>3d</fix>
</trkpt>
<trkpt lat="40.0713749" lon="-105.229789">
  <ele>1583.0</ele>
  <time>2026-08-28T17:51:46Z</time>
  <course>0.0</course>
  <speed>0.0</speed>
  <fix>3d</fix>
</trkpt>
<trkpt lat="40.0713748" lon="-105.2297894">
  <ele>1582.91</ele>
  <time>2026-08-28T17:51:46Z</time>
  <course>247.56</course>
  <speed>0.709365914038728</speed>
  <fix>3d</fix>
</trkpt>
<trkpt lat="40.0713749" lon="-105.2297892">
  <ele>1583.0</ele>
  <time>2026-08-28T17:51:46Z</time>
  <course>246.0</course>
  <speed>0.36</speed>
  <fix>3d</fix>
</trkpt>
<trkpt lat="40.0713744" lon="-105.2297907">
  <ele>1582.91</ele>
  <time>2026-08-28T17:51:46Z</time>
  <course>247.56</course>
  <speed>1.3017296186228537</speed>
  <fix>3d</fix>
</trkpt>
<trkpt lat="40.0713749" lon="-105.2297892">
  <ele>1583.0</ele>
  <time>2026-08-28T17:51:46Z</time>
  <course>246.0</course>
  <speed>0.36</speed>
  <fix>3d</fix>
</trkpt>
<trkpt lat="40.0713738" lon="-105.2297925">
  <ele>1582.92</ele>
  <time>2026-08-28T17:51:46Z</time>
  <course>247.56</course>
  <speed>1.8569868066305693</speed>
  <fix>3d</fix>
</trkpt>
<trkpt lat="40.0713743" lon="-105.2297907">
  <ele>1583.0</ele>
  <time>2026-08-28T17:51:46Z</time>
  <course>246.0</course>
  <speed>1.28</speed>
  <fix>3d</fix>
</trkpt>
<trkpt lat="40.071373" lon="-105.229795">
  <ele>1582.92</ele>
  <time>2026-08-28T17:51:46Z</time>
  <course>247.55</course>
  <speed>2.3954957733212554</speed>
  <fix>3d</fix>
</trkpt>
<trkpt lat="40.0713743" lon="-105.2297907">
  <ele>1583.0</ele>
  <time>2026-08-28T17:51:46Z</time>
  <course>246.0</course>
  <speed>1.28</speed>
  <fix>3d</fix>
</trkpt>
<trkpt lat="40.0713721" lon="-105.229798">
  <ele>1582.92</ele>
  <time>2026-08-28T17:51:46Z</time>
  <course>247.53</course>
  <speed>2.906217472936256</speed>
  <fix>3d</fix>
</trkpt>
<trkpt lat="40.0713743" lon="-105.2297907">
  <ele>1583.0</ele>
  <time>2026-08-28T17:51:46Z</time>
  <course>246.0</course>
  <speed>1.28</speed>
  <fix>3d</fix>
</trkpt>
<trkpt lat="40.071371" lon="-105.2298015">
  <ele>1582.93</ele>
  <time>2026-08-28T17:51:46Z</time>
  <course>247.51</course>
  <speed>3.3854098717880525</speed>
  <fix>3d</fix>
</trkpt>
<trkpt lat="40.071373" lon="-105.2297947">
  <ele>1583.0</ele>
  <time>2026-08-28T17:51:46Z</time>
  <course>246.0</course>
  <speed>2.35</speed>
  <fix>3d</fix>
</trkpt>
<trkpt lat="40.0713697" lon="-105.2298055">
  <ele>1582.93</ele>
  <time>2026-08-28T17:51:46Z</time>
  <course>247.48</course>
  <speed>3.829255802372048</speed>
  <fix>3d</fix>
</trkpt>
<trkpt lat="40.071373" lon="-105.2297947">
  <ele>1583.0</ele>
  <time>2026-08-28T17:51:46Z</time>
  <course>246.0</course>
  <speed>2.35</speed>
  <fix>3d</fix>
</trkpt>
<trkpt lat="40.0713682" lon="-105.2298099">
  <ele>1582.93</ele>
  <time>2026-08-28T17:51:46Z</time>
  <course>247.44</course>
  <speed>4.267692584992504</speed>
  <fix>3d</fix>
</trkpt>
<trkpt lat="40.071371" lon="-105.2298008">
  <ele>1583.0</ele>
  <time>2026-08-28T17:51:46Z</time>
  <course>246.0</course>
  <speed>3.31</speed>
  <fix>3d</fix>
</trkpt>
<trkpt lat="40.0713666" lon="-105.2298148">
  <ele>1582.93</ele>
  <time>2026-08-28T17:51:46Z</time>
  <course>247.39</course>
  <speed>4.670770814330329</speed>
  <fix>3d</fix>
</trkpt>
<trkpt lat="40.071371" lon="-105.2298008">
  <ele>1583.0</ele>
  <time>2026-08-28T17:51:46Z</time>
  <course>246.0</course>
  <speed>3.31</speed>
  <fix>3d</fix>
</trkpt>
<trkpt lat="40.0713648" lon="-105.22982">
  <ele>1582.94</ele>
  <time>2026-08-28T17:51:46Z</time>
  <course>247.33</course>
  <speed>5.064632267006164</speed>
  <fix>3d</fix>
</trkpt>
<trkpt lat="40.0713682" lon="-105.2298089">
  <ele>1583.0</ele>
  <time>2026-08-28T17:51:46Z</time>
  <course>246.0</course>
  <speed>4.19</speed>
  <fix>3d</fix>
</trkpt>
<trkpt lat="40.0713629" lon="-105.2298257">
  <ele>1582.94</ele>
  <time>2026-08-28T17:51:46Z</time>
  <course>247.28</course>
  <speed>5.426978901746349</speed>
  <fix>3d</fix>
</trkpt>
<trkpt lat="40.0713649" lon="-105.2298187">
  <ele>1583.0</ele>
  <time>2026-08-28T17:51:46Z</time>
  <course>245.99</course>
  <speed>4.97</speed>
  <fix>3d</fix>
</trkpt>
<trkpt lat="40.0713609" lon="-105.2298319">
  <ele>1582.94</ele>
  <time>2026-08-28T17:51:46Z</time>
  <course>247.21</course>
  <speed>5.789343658826966</speed>
  <fix>3d</fix>
</trkpt>
<trkpt lat="40.0713649" lon="-105.2298187">
  <ele>1583.0</ele>
  <time>2026-08-28T17:51:46Z</time>
  <course>245.99</course>
  <speed>4.97</speed>
  <fix>3d</fix>
</trkpt>
<trkpt lat="40.0713587" lon="-105.2298383">
  <ele>1582.95</ele>
  <time>2026-08-28T17:51:46Z</time>
  <course>247.16</course>
  <speed>6.120204244957843</speed>
  <fix>3d</fix>
</trkpt>
<trkpt lat="40.0713609" lon="-105.2298302">
  <ele>1583.0</ele>
  <time>2026-08-28T17:51:46Z</time>
  <course>246.0</course>
  <speed>5.69</speed>
  <fix>3d</fix>
</trkpt>
<trkpt lat="40.0713563" lon="-105.2298451">
  <ele>1582.95</ele>
  <time>2026-08-28T17:51:46Z</time>
  <course>247.1</course>
  <speed>6.4418941313871345</speed>
  <fix>3d</fix>
</trkpt>
<trkpt lat="40.0713609" lon="-105.2298302">
  <ele>1583.0</ele>
  <time>2026-08-28T17:51:46Z</time>
  <course>246.0</course>
  <speed>5.69</speed>
  <fix>3d</fix>
</trkpt>
<trkpt lat="40.0713539" lon="-105.2298523">
  <ele>1582.96</ele>
  <time>2026-08-28T17:51:46Z</time>
  <course>247.06</course>
  <speed>6.750474057427374</speed>
  <fix>3d</fix>
</trkpt>
<trkpt lat="40.0713566" lon="-105.2298431">
  <ele>1583.0</ele>
  <time>2026-08-28T17:51:46Z</time>
  <course>246.0</course>
  <speed>6.33</speed>
  <fix>3d</fix>
</trkpt>
<trkpt lat="40.0713513" lon="-105.2298597">
  <ele>1582.96</ele>
  <time>2026-08-28T17:51:46Z</time>
  <course>247.02</course>
  <speed>7.040710191450859</speed>
  <fix>3d</fix>
</trkpt>
<trkpt lat="40.0713566" lon="-105.2298431">
  <ele>1583.0</ele>
  <time>2026-08-28T17:51:46Z</time>
  <course>246.0</course>
  <speed>6.33</speed>
  <fix>3d</fix>
</trkpt>
<trkpt lat="40.0713487" lon="-105.2298675">
  <ele>1582.96</ele>
  <time>2026-08-28T17:51:46Z</time>
  <course>246.99</course>
  <speed>7.326991196937525</speed>
  <fix>3d</fix>
</trkpt>
<trkpt lat="40.0713517" lon="-105.2298573">
  <ele>1583.0</ele>
  <time>2026-08-28T17:51:46Z</time>
  <course>246.0</course>
  <speed>6.92</speed>
  <fix>3d</fix>
</trkpt>
<trkpt lat="40.0713459" lon="-105.2298756">
  <ele>1582.96</ele>
  <time>2026-08-28T17:51:46Z</time>
  <course>246.96</course>
  <speed>7.581780793454794</speed>
  <fix>3d</fix>
</trkpt>
<trkpt lat="40.0713517" lon="-105.2298573">
  <ele>1583.0</ele>
  <time>2026-08-28T17:51:46Z</time>
  <course>246.0</course>
  <speed>6.92</speed>
  <fix>3d</fix>
</trkpt>
<trkpt lat="40.071343" lon="-105.229884">
  <ele>1582.96</ele>
  <time>2026-08-28T17:51:46Z</time>
  <course>246.94</course>
  <speed>7.8365808870961065</speed>
  <fix>3d</fix>
</trkpt>
<trkpt lat="40.0713465" lon="-105.2298728">
  <ele>1583.0</ele>
  <time>2026-08-28T17:51:46Z</time>
  <course>246.0</course>
  <speed>7.45</speed>
  <fix>3d</fix>
</trkpt>
<trkpt lat="40.0713401" lon="-105.2298925">
  <ele>1582.96</ele>
  <time>2026-08-28T17:51:46Z</time>
  <course>246.92</course>
  <speed>8.069058185438992</speed>
  <fix>3d</fix>
</trkpt>
<trkpt lat="40.0713465" lon="-105.2298728">
  <ele>1583.0</ele>
  <time>2026-08-28T17:51:46Z</time>
  <course>246.0</course>
  <speed>7.45</speed>
  <fix>3d</fix>
</trkpt>
<trkpt lat="40.071337" lon="-105.2299013">
  <ele>1582.96</ele>
  <time>2026-08-28T17:51:46Z</time>
  <course>246.91</course>
  <speed>8.301542025431178</speed>
  <fix>3d</fix>
</trkpt>
<trkpt lat="40.0713408" lon="-105.2298893">
  <ele>1583.0</ele>
  <time>2026-08-28T17:51:46Z</time>
  <course>246.0</course>
  <speed>7.92</speed>
  <fix>3d</fix>
</trkpt>
<trkpt lat="40.0713339" lon="-105.2299103">
  <ele>1582.96</ele>
  <time>2026-08-28T17:51:46Z</time>
  <course>246.9</course>
  <speed>8.51169783298256</speed>
  <fix>3d</fix>
</trkpt>
<trkpt lat="40.0713408" lon="-105.2298893">
  <ele>1583.0</ele>
  <time>2026-08-28T17:51:46Z</time>
  <course>246.0</course>
  <speed>7.92</speed>
  <fix>3d</fix>
</trkpt>
<trkpt lat="40.0713308" lon="-105.2299196">
  <ele>1582.96</ele>
  <time>2026-08-28T17:51:46Z</time>
  <course>246.89</course>
  <speed>8.708673837043158</speed>
  <fix>3d</fix>
</trkpt>
<trkpt lat="40.0713349" lon="-105.2299067">
  <ele>1583.0</ele>
  <time>2026-08-28T17:51:46Z</time>
  <course>246.0</course>
  <speed>8.36</speed>
  <fix>3d</fix>
</trkpt>
<trkpt lat="40.0713275" lon="-105.229929">
  <ele>1582.96</ele>
  <time>2026-08-28T17:51:46Z</time>
  <course>246.88</course>
  <speed>8.896499311526979</speed>
  <fix>3d</fix>
</trkpt>
<trkpt lat="40.0713349" lon="-105.2299067">
  <ele>1583.0</ele>
  <time>2026-08-28T17:51:46Z</time>
  <course>246.0</course>
  <speed>8.36</speed>
  <fix>3d</fix>
</trkpt>
<trkpt lat="40.0713242" lon="-105.2299386">
  <ele>1582.96</ele>
  <time>2026-08-28T17:51:46Z</time>
  <course>246.88</course>
  <speed>9.075180438977508</speed>
  <fix>3d</fix>
</trkpt>
<trkpt lat="40.0713349" lon="-105.2299067">
  <ele>1583.0</ele>
  <time>2026-08-28T17:51:46Z</time>
  <course>246.0</course>
  <speed>8.36</speed>
  <fix>3d</fix>
</trkpt>
<trkpt lat="40.0713209" lon="-105.2299483">
  <ele>1582.96</ele>
  <time>2026-08-28T17:51:46Z</time>
  <course>246.88</course>
  <speed>9.240676382170301</speed>
  <fix>3d</fix>
</trkpt>
<trkpt lat="40.0713286" lon="-105.2299251">
  <ele>1583.0</ele>
  <time>2026-08-28T17:51:46Z</time>
  <course>246.0</course>
  <speed>8.75</speed>
  <fix>3d</fix>
</trkpt>
<trkpt lat="40.0713175" lon="-105.2299581">
  <ele>1582.96</ele>
  <time>2026-08-28T17:51:46Z</time>
  <course>246.88</course>
  <speed>9.39703144615362</speed>
  <fix>3d</fix>
</trkpt>
<trkpt lat="40.0713286" lon="-105.2299251">
  <ele>1583.0</ele>
  <time>2026-08-28T17:51:46Z</time>
  <course>246.0</course>
  <speed>8.75</speed>
  <fix>3d</fix>
</trkpt>
<trkpt lat="40.0713141" lon="-105.2299681">
  <ele>1582.96</ele>
  <time>2026-08-28T17:51:46Z</time>
  <course>246.88</course>
  <speed>9.540193918364553</speed>
  <fix>3d</fix>
</trkpt>
<trkpt lat="40.0713221" lon="-105.2299443">
  <ele>1583.0</ele>
  <time>2026-08-28T17:51:46Z</time>
  <course>246.0</course>
  <speed>9.11</speed>
  <fix>3d</fix>
</trkpt>
<trkpt lat="40.0713107" lon="-105.2299782">
  <ele>1582.96</ele>
  <time>2026-08-28T17:51:46Z</time>
  <course>246.88</course>
  <speed>9.670160288226871</speed>
  <fix>3d</fix>
</trkpt>
<trkpt lat="40.0713221" lon="-105.2299443">
  <ele>1583.0</ele>
  <time>2026-08-28T17:51:46Z</time>
  <course>246.0</course>
  <speed>9.11</speed>
  <fix>3d</fix>
</trkpt>
<trkpt lat="40.0713072" lon="-105.2299884">
  <ele>1582.96</ele>
  <time>2026-08-28T17:51:46Z</time>
  <course>246.89</course>
  <speed>9.7950446655439</speed>
  <fix>3d</fix>
</trkpt>
<trkpt lat="40.0713153" lon="-105.2299642">
  <ele>1583.0</ele>
  <time>2026-08-28T17:51:46Z</time>
  <course>246.0</course>
  <speed>9.43</speed>
  <fix>3d</fix>
</trkpt>
<trkpt lat="40.0713036" lon="-105.2299988">
  <ele>1582.96</ele>
  <time>2026-08-28T17:51:46Z</time>
  <course>246.89</course>
  <speed>9.925008816116991</speed>
  <fix>3d</fix>
</trkpt>
<trkpt lat="40.0713153" lon="-105.2299642">
  <ele>1583.0</ele>
  <time>2026-08-28T17:51:46Z</time>
  <course>246.0</course>
  <speed>9.43</speed>
  <fix>3d</fix>
</trkpt>
<trkpt lat="40.0713" lon="-105.2300094">
  <ele>1582.96</ele>
  <time>2026-08-28T17:51:46Z</time>
  <course>246.89</course>
  <speed>10.03669766407258</speed>
  <fix>3d</fix>
</trkpt>
<trkpt lat="40.0713083" lon="-105.2299847">
  <ele>1583.0</ele>
  <time>2026-08-28T17:51:46Z</time>
  <course>246.0</course>
  <speed>9.72</speed>
  <fix>3d</fix>
</trkpt>
<trkpt lat="40.0712963" lon="-105.2300201">
  <ele>1582.96</ele>
  <time>2026-08-28T17:51:46Z</time>
  <course>246.9</course>
  <speed>10.148389034718761</speed>
  <fix>3d</fix>
</trkpt>
<trkpt lat="40.0713011" lon="-105.2300059">
  <ele>1583.0</ele>
  <time>2026-08-28T17:51:46Z</time>
  <course>246.0</course>
  <speed>9.98</speed>
  <fix>3d</fix>
</trkpt>
<trkpt lat="40.0712926" lon="-105.230031">
  <ele>1582.97</ele>
  <time>2026-08-28T17:51:46Z</time>
  <course>246.9</course>
  <speed>10.256012870506744</speed>
  <fix>3d</fix>
</trkpt>
<trkpt lat="40.0713011" lon="-105.2300059">
  <ele>1583.0</ele>
  <time>2026-08-28T17:51:46Z</time>
  <course>246.0</course>
  <speed>9.98</speed>
  <fix>3d</fix>
</trkpt>
<trkpt lat="40.0712889" lon="-105.2300419">
  <ele>1582.98</ele>
  <time>2026-08-28T17:51:46Z</time>
  <course>246.91</course>
  <speed>10.367704664003504</speed>
  <fix>3d</fix>
</trkpt>
<trkpt lat="40.0712937" lon="-105.2300275">
  <ele>1583.0</ele>
  <time>2026-08-28T17:51:46Z</time>
  <course>246.0</course>
  <speed>10.22</speed>
  <fix>3d</fix>
</trkpt>
<trkpt lat="40.071285" lon="-105.2300531">
  <ele>1582.98</ele>
  <time>2026-08-28T17:51:46Z</time>
  <course>246.91</course>
  <speed>10.466193195235793</speed>
  <fix>3d</fix>
</trkpt>
<trkpt lat="40.0712937" lon="-105.2300275">
  <ele>1583.0</ele>
  <time>2026-08-28T17:51:46Z</time>
  <course>246.0</course>
  <speed>10.22</speed>
  <fix>3d</fix>
</trkpt>
<trkpt lat="40.0712812" lon="-105.2300644">
  <ele>1582.99</ele>
  <time>2026-08-28T17:51:46Z</time>
  <course>246.92</course>
  <speed>10.564681727340394</speed>
  <fix>3d</fix>
</trkpt>
<trkpt lat="40.0712862" lon="-105.2300497">
  <ele>1583.0</ele>
  <time>2026-08-28T17:51:46Z</time>
  <course>246.0</course>
  <speed>10.43</speed>
  <fix>3d</fix>
</trkpt>
<trkpt lat="40.0712773" lon="-105.2300758">
  <ele>1582.99</ele>
  <time>2026-08-28T17:51:46Z</time>
  <course>246.92</course>
  <speed>10.667244255195435</speed>
  <fix>3d</fix>
</trkpt>
<trkpt lat="40.0712862" lon="-105.2300497">
  <ele>1583.0</ele>
  <time>2026-08-28T17:51:46Z</time>
  <course>246.0</course>
  <speed>10.43</speed>
  <fix>3d</fix>
</trkpt>
<trkpt lat="40.0712733" lon="-105.2300875">
  <ele>1582.99</ele>
  <time>2026-08-28T17:51:46Z</time>
  <course>246.92</course>
  <speed>10.752525284787755</speed>
  <fix>3d</fix>
</trkpt>
<trkpt lat="40.0712785" lon="-105.2300722">
  <ele>1583.0</ele>
  <time>2026-08-28T17:51:46Z</time>
  <course>245.99</course>
  <speed>10.63</speed>
  <fix>3d</fix>
</trkpt>
<trkpt lat="40.0712693" lon="-105.2300991">
  <ele>1582.99</ele>
  <time>2026-08-28T17:51:46Z</time>
  <course>246.93</course>
  <speed>10.841881755488757</speed>
  <fix>3d</fix>
</trkpt>
<trkpt lat="40.0712785" lon="-105.2300722">
  <ele>1583.0</ele>
  <time>2026-08-28T17:51:46Z</time>
  <course>245.99</course>
  <speed>10.63</speed>
  <fix>3d</fix>
</trkpt>
<trkpt lat="40.0712653" lon="-105.2301109">
  <ele>1582.99</ele>
  <time>2026-08-28T17:51:46Z</time>
  <course>246.93</course>
  <speed>10.927163401359019</speed>
  <fix>3d</fix>
</trkpt>
<trkpt lat="40.0712706" lon="-105.2300952">
  <ele>1583.0</ele>
  <time>2026-08-28T17:51:46Z</time>
  <course>245.99</course>
  <speed>10.8</speed>
  <fix>3d</fix>
</trkpt>
<trkpt lat="40.0712613" lon="-105.2301227">
  <ele>1582.99</ele>
  <time>2026-08-28T17:51:46Z</time>
  <course>246.94</course>
  <speed>11.007388427778862</speed>
  <fix>3d</fix>
</trkpt>
<trkpt lat="40.0712706" lon="-105.2300952">
  <ele>1583.0</ele>
  <time>2026-08-28T17:51:46Z</time>
  <course>245.99</course>
  <speed>10.8</speed>
  <fix>3d</fix>
</trkpt>
<trkpt lat="40.0712572" lon="-105.2301346">
  <ele>1582.99</ele>
  <time>2026-08-28T17:51:46Z</time>
  <course>246.94</course>
  <speed>11.083537341480833</speed>
  <fix>3d</fix>
</trkpt>
<trkpt lat="40.0712627" lon="-105.2301186">
  <ele>1583.0</ele>
  <time>2026-08-28T17:51:46Z</time>
  <course>245.99</course>
  <speed>10.96</speed>
  <fix>3d</fix>
</trkpt>
<trkpt lat="40.0712531" lon="-105.2301465">
  <ele>1582.99</ele>
  <time>2026-08-28T17:51:46Z</time>
  <course>246.94</course>
  <speed>11.150556039947066</speed>
  <fix>3d</fix>
</trkpt>
<trkpt lat="40.0712627" lon="-105.2301186">
  <ele>1583.0</ele>
  <time>2026-08-28T17:51:46Z</time>
  <course>245.99</course>
  <speed>10.96</speed>
  <fix>3d</fix>
</trkpt>
<trkpt lat="40.071249" lon="-105.2301586">
  <ele>1582.99</ele>
  <time>2026-08-28T17:51:46Z</time>
  <course>246.95</course>
  <speed>11.213496332544992</speed>
  <fix>3d</fix>
</trkpt>
<trkpt lat="40.0712546" lon="-105.2301423">
  <ele>1583.0</ele>
  <time>2026-08-28T17:51:46Z</time>
  <course>245.99</course>
  <speed>11.1</speed>
  <fix>3d</fix>
</trkpt>
<trkpt lat="40.0712449" lon="-105.2301707">
  <ele>1582.99</ele>
  <time>2026-08-28T17:51:46Z</time>
  <course>246.95</course>
  <speed>11.280514172678476</speed>
  <fix>3d</fix>
</trkpt>
<trkpt lat="40.0712546" lon="-105.2301423">
  <ele>1583.0</ele>
  <time>2026-08-28T17:51:46Z</time>
  <course>245.99</course>
  <speed>11.1</speed>
  <fix>3d</fix>
</trkpt>
<trkpt lat="40.0712408" lon="-105.2301828">
  <ele>1582.99</ele>
  <time>2026-08-28T17:51:46Z</time>
  <course>246.95</course>
  <speed>11.334323976311953</speed>
  <fix>3d</fix>
</trkpt>
<trkpt lat="40.0712546" lon="-105.2301423">
  <ele>1583.0</ele>
  <time>2026-08-28T17:51:46Z</time>
  <course>245.99</course>
  <speed>11.1</speed>
  <fix>3d</fix>
</trkpt>
<trkpt lat="40.0712366" lon="-105.2301949">
  <ele>1582.99</ele>
  <time>2026-08-28T17:51:46Z</time>
  <course>246.95</course>
  <speed>11.388134175535518</speed>
  <fix>3d</fix>
</trkpt>
<trkpt lat="40.0712465" lon="-105.2301663">
  <ele>1583.0</ele>
  <time>2026-08-28T17:51:46Z</time>
  <course>245.99</course>
  <speed>11.24</speed>
  <fix>3d</fix>
</trkpt>
<trkpt lat="40.0712325" lon="-105.2302071">
  <ele>1582.99</ele>
  <time>2026-08-28T17:51:46Z</time>
  <course>246.95</course>
  <speed>11.432812427395106</speed>
  <fix>3d</fix>
</trkpt>
<trkpt lat="40.0712465" lon="-105.2301663">
  <ele>1583.0</ele>
  <time>2026-08-28T17:51:46Z</time>
  <course>245.99</course>
  <speed>11.24</speed>
  <fix>3d</fix>
</trkpt>
<trkpt lat="40.0712284" lon="-105.2302192">
  <ele>1582.99</ele>
  <time>2026-08-28T17:51:46Z</time>
  <course>246.95</course>
  <speed>11.34753277148826</speed>
  <fix>3d</fix>
</trkpt>
<trkpt lat="40.0712382" lon="-105.2301906">
  <ele>1583.0</ele>
  <time>2026-08-28T17:51:46Z</time>
  <course>245.99</course>
  <speed>11.35</speed>
  <fix>3d</fix>
</trkpt>
<trkpt lat="40.0712244" lon="-105.2302309">
  <ele>1582.99</ele>
  <time>2026-08-28T17:51:46Z</time>
  <course>246.96</course>
  <speed>10.792154557825791</speed>
  <fix>3d</fix>
</trkpt>
<trkpt lat="40.0712382" lon="-105.2301906">
  <ele>1583.0</ele>
  <time>2026-08-28T17:51:46Z</time>
  <course>245.99</course>
  <speed>11.35</speed>
  <fix>3d</fix>
</trkpt>
<trkpt lat="40.0712206" lon="-105.2302419">
  <ele>1582.99</ele>
  <time>2026-08-28T17:51:46Z</time>
  <course>246.95</course>
  <speed>10.240878868534674</speed>
  <fix>3d</fix>
</trkpt>
<trkpt lat="40.0712299" lon="-105.2302148">
  <ele>1583.0</ele>
  <time>2026-08-28T17:51:46Z</time>
  <course>245.99</course>
  <speed>11.09</speed>
  <fix>3d</fix>
</trkpt>
<trkpt lat="40.071217" lon="-105.2302525">
  <ele>1582.99</ele>
  <time>2026-08-28T17:51:46Z</time>
  <course>246.95</course>
  <speed>9.716979983513395</speed>
  <fix>3d</fix>
</trkpt>
<trkpt lat="40.071222" lon="-105.2302378">
  <ele>1583.0</ele>
  <time>2026-08-28T17:51:46Z</time>
  <course>245.99</course>
  <speed>10.27</speed>
  <fix>3d</fix>
</trkpt>
<trkpt lat="40.0712135" lon="-105.2302625">
  <ele>1582.99</ele>
  <time>2026-08-28T17:51:46Z</time>
  <course>246.94</course>
  <speed>9.228656456928062</speed>
  <fix>3d</fix>
</trkpt>
<trkpt lat="40.071222" lon="-105.2302378">
  <ele>1583.0</ele>
  <time>2026-08-28T17:51:46Z</time>
  <course>245.99</course>
  <speed>10.27</speed>
  <fix>3d</fix>
</trkpt>
<trkpt lat="40.0712103" lon="-105.230272">
  <ele>1582.99</ele>
  <time>2026-08-28T17:51:46Z</time>
  <course>246.94</course>
  <speed>8.771801411340775</speed>
  <fix>3d</fix>
</trkpt>
<trkpt lat="40.0712149" lon="-105.2302588">
  <ele>1583.0</ele>
  <time>2026-08-28T17:51:46Z</time>
  <course>245.99</course>
  <speed>9.29</speed>
  <fix>3d</fix>
</trkpt>
<trkpt lat="40.0712072" lon="-105.2302809">
  <ele>1582.99</ele>
  <time>2026-08-28T17:51:46Z</time>
  <course>246.92</course>
  <speed>8.328199085036331</speed>
  <fix>3d</fix>
</trkpt>
<trkpt lat="40.0712149" lon="-105.2302588">
  <ele>1583.0</ele>
  <time>2026-08-28T17:51:46Z</time>
  <course>245.99</course>
  <speed>9.29</speed>
  <fix>3d</fix>
</trkpt>
<trkpt lat="40.0712042" lon="-105.2302896">
  <ele>1583.0</ele>
  <time>2026-08-28T17:51:46Z</time>
  <course>246.91</course>
  <speed>7.911915065267068</speed>
  <fix>3d</fix>
</trkpt>
<trkpt lat="40.0712085" lon="-105.2302778">
  <ele>1583.0</ele>
  <time>2026-08-28T17:51:46Z</time>
  <course>245.99</course>
  <speed>8.4</speed>
  <fix>3d</fix>
</trkpt>
<trkpt lat="40.0712014" lon="-105.2302978">
  <ele>1583.0</ele>
  <time>2026-08-28T17:51:46Z</time>
  <course>246.88</course>
  <speed>7.508881408039416</speed>
  <fix>3d</fix>
</trkpt>
<trkpt lat="40.0712085" lon="-105.2302778">
  <ele>1583.0</ele>
  <time>2026-08-28T17:51:46Z</time>
  <course>245.99</course>
  <speed>8.4</speed>
  <fix>3d</fix>
</trkpt>
<trkpt lat="40.0711987" lon="-105.2303056">
  <ele>1583.0</ele>
  <time>2026-08-28T17:51:46Z</time>
  <course>246.86</course>
  <speed>7.128204542519807</speed>
  <fix>3d</fix>
</trkpt>
<trkpt lat="40.0712026" lon="-105.2302949">
  <ele>1583.0</ele>
  <time>2026-08-28T17:51:46Z</time>
  <course>245.99</course>
  <speed>7.6</speed>
  <fix>3d</fix>
</trkpt>
<trkpt lat="40.0711961" lon="-105.230313">
  <ele>1583.0</ele>
  <time>2026-08-28T17:51:46Z</time>
  <course>246.83</course>
  <speed>6.765715039816561</speed>
  <fix>3d</fix>
</trkpt>
<trkpt lat="40.0712026" lon="-105.2302949">
  <ele>1583.0</ele>
  <time>2026-08-28T17:51:46Z</time>
  <course>245.99</course>
  <speed>7.6</speed>
  <fix>3d</fix>
</trkpt>
<trkpt lat="40.0711937" lon="-105.2303201">
  <ele>1583.0</ele>
  <time>2026-08-28T17:51:46Z</time>
  <course>246.81</course>
  <speed>6.425573904329481</speed>
  <fix>3d</fix>
</trkpt>
<trkpt lat="40.0711973" lon="-105.2303104">
  <ele>1583.0</ele>
  <time>2026-08-28T17:51:46Z</time>
  <course>245.99</course>
  <speed>6.88</speed>
  <fix>3d</fix>
</trkpt>
<trkpt lat="40.0711914" lon="-105.2303268">
  <ele>1583.0</ele>
  <time>2026-08-28T17:51:46Z</time>
  <course>246.78</course>
  <speed>6.0986965820575145</speed>
  <fix>3d</fix>
</trkpt>
<trkpt lat="40.0711973" lon="-105.2303104">
  <ele>1583.0</ele>
  <time>2026-08-28T17:51:46Z</time>
  <course>245.99</course>
  <speed>6.88</speed>
  <fix>3d</fix>
</trkpt>
<trkpt lat="40.0711892" lon="-105.2303331">
  <ele>1583.0</ele>
  <time>2026-08-28T17:51:46Z</time>
  <course>246.76</course>
  <speed>5.789991364414976</speed>
  <fix>3d</fix>
</trkpt>
<trkpt lat="40.0711925" lon="-105.2303245">
  <ele>1583.0</ele>
  <time>2026-08-28T17:51:46Z</time>
  <course>245.99</course>
  <speed>6.23</speed>
  <fix>3d</fix>
</trkpt>
<trkpt lat="40.0711872" lon="-105.2303392">
  <ele>1583.0</ele>
  <time>2026-08-28T17:51:46Z</time>
  <course>246.73</course>
  <speed>5.494551847057227</speed>
  <fix>3d</fix>
</trkpt>
<trkpt lat="40.0711925" lon="-105.2303245">
  <ele>1583.0</ele>
  <time>2026-08-28T17:51:46Z</time>
  <course>245.99</course>
  <speed>6.23</speed>
  <fix>3d</fix>
</trkpt>
<trkpt lat="40.0711852" lon="-105.2303449">
  <ele>1583.0</ele>
  <time>2026-08-28T17:51:46Z</time>
  <course>246.71</course>
  <speed>5.208195464841925</speed>
  <fix>3d</fix>
</trkpt>
<trkpt lat="40.0711882" lon="-105.2303372">
  <ele>1583.0</ele>
  <time>2026-08-28T17:51:46Z</time>
  <course>245.99</course>
  <speed>5.63</speed>
  <fix>3d</fix>
</trkpt>
<trkpt lat="40.0711834" lon="-105.2303504">
  <ele>1583.0</ele>
  <time>2026-08-28T17:51:46Z</time>
  <course>246.68</course>
  <speed>4.944188507733094</speed>
  <fix>3d</fix>
</trkpt>
<trkpt lat="40.0711882" lon="-105.2303372">
  <ele>1583.0</ele>
  <time>2026-08-28T17:51:46Z</time>
  <course>245.99</course>
  <speed>5.63</speed>
  <fix>3d</fix>
</trkpt>
<trkpt lat="40.0711816" lon="-105.2303556">
  <ele>1582.99</ele>
  <time>2026-08-28T17:51:46Z</time>
  <course>246.67</course>
  <speed>4.689264334626488</speed>
  <fix>3d</fix>
</trkpt>
<trkpt lat="40.0711882" lon="-105.2303372">
  <ele>1583.0</ele>
  <time>2026-08-28T17:51:46Z</time>
  <course>245.99</course>
  <speed>5.63</speed>
  <fix>3d</fix>
</trkpt>
<trkpt lat="40.0711799" lon="-105.2303605">
  <ele>1583.0</ele>
  <time>2026-08-28T17:51:46Z</time>
  <course>246.65</course>
  <speed>4.447606097666474</speed>
  <fix>3d</fix>
</trkpt>
<trkpt lat="40.0711843" lon="-105.2303487">
  <ele>1583.0</ele>
  <time>2026-08-28T17:51:46Z</time>
  <course>245.99</course>
  <speed>5.1</speed>
  <fix>3d</fix>
</trkpt>
<trkpt lat="40.0711784" lon="-105.2303651">
  <ele>1582.99</ele>
  <time>2026-08-28T17:51:46Z</time>
  <course>246.64</course>
  <speed>4.2241212103821075</speed>
  <fix>3d</fix>
</trkpt>
<trkpt lat="40.0711843" lon="-105.2303487">
  <ele>1583.0</ele>
  <time>2026-08-28T17:51:46Z</time>
  <course>245.99</course>
  <speed>5.1</speed>
  <fix>3d</fix>
</trkpt>
<trkpt lat="40.0711769" lon="-105.2303695">
  <ele>1582.99</ele>
  <time>2026-08-28T17:51:46Z</time>
  <course>246.62</course>
  <speed>4.004809608458309</speed>
  <fix>3d</fix>
</trkpt>
<trkpt lat="40.0711807" lon="-105.2303591">
  <ele>1583.0</ele>
  <time>2026-08-28T17:51:46Z</time>
  <course>245.99</course>
  <speed>4.61</speed>
  <fix>3d</fix>
</trkpt>
<trkpt lat="40.0711754" lon="-105.2303737">
  <ele>1582.99</ele>
  <time>2026-08-28T17:51:46Z</time>
  <course>246.61</course>
  <speed>3.7987629565425634</speed>
  <fix>3d</fix>
</trkpt>
<trkpt lat="40.0711807" lon="-105.2303591">
  <ele>1583.0</ele>
  <time>2026-08-28T17:51:46Z</time>
  <course>245.99</course>
  <speed>4.61</speed>
  <fix>3d</fix>
</trkpt>
<trkpt lat="40.0711741" lon="-105.2303777">
  <ele>1583.0</ele>
  <time>2026-08-28T17:51:46Z</time>
  <course>246.61</course>
  <speed>3.5976242160625946</speed>
  <fix>3d</fix>
</trkpt>
<trkpt lat="40.0711775" lon="-105.2303685">
  <ele>1583.0</ele>
  <time>2026-08-28T17:51:46Z</time>
  <course>245.99</course>
  <speed>4.17</speed>
  <fix>3d</fix>
</trkpt>
<trkpt lat="40.0711728" lon="-105.2303815">
  <ele>1583.0</ele>
  <time>2026-08-28T17:51:46Z</time>
  <course>246.6</course>
  <speed>3.418844834150857</speed>
  <fix>3d</fix>
</trkpt>
<trkpt lat="40.0711775" lon="-105.2303685">
  <ele>1583.0</ele>
  <time>2026-08-28T17:51:46Z</time>
  <course>245.99</course>
  <speed>4.17</speed>
  <fix>3d</fix>
</trkpt>
<trkpt lat="40.0711716" lon="-105.2303852">
  <ele>1583.0</ele>
  <time>2026-08-28T17:51:46Z</time>
  <course>246.59</course>
  <speed>3.244225639501667</speed>
  <fix>3d</fix>
</trkpt>
<trkpt lat="40.0711746" lon="-105.2303771">
  <ele>1583.0</ele>
  <time>2026-08-28T17:51:46Z</time>
  <course>245.99</course>
  <speed>3.77</speed>
  <fix>3d</fix>
</trkpt>
<trkpt lat="40.0711704" lon="-105.2303886">
  <ele>1583.0</ele>
  <time>2026-08-28T17:51:46Z</time>
  <course>246.59</course>
  <speed>3.078701024783017</speed>
  <fix>3d</fix>
</trkpt>
<trkpt lat="40.071172" lon="-105.2303848">
  <ele>1583.0</ele>
  <time>2026-08-28T17:51:46Z</time>
  <course>245.99</course>
  <speed>3.41</speed>
  <fix>3d</fix>
</trkpt>
<trkpt lat="40.0711693" lon="-105.2303919">
  <ele>1583.0</ele>
  <time>2026-08-28T17:51:46Z</time>
  <course>246.59</course>
  <speed>2.92227650984639</speed>
  <fix>3d</fix>
</trkpt>
<trkpt lat="40.071172" lon="-105.2303848">
  <ele>1583.0</ele>
  <time>2026-08-28T17:51:46Z</time>
  <course>245.99</course>
  <speed>3.41</speed>
  <fix>3d</fix>
</trkpt>
<trkpt lat="40.0711683" lon="-105.230395">
  <ele>1583.0</ele>
  <time>2026-08-28T17:51:46Z</time>
  <course>246.58</course>
  <speed>2.77</speed>
  <fix>3d</fix>
</trkpt>
<trkpt lat="40.0711696" lon="-105.2303917">
  <ele>1583.0</ele>
  <time>2026-08-28T17:51:46Z</time>
  <course>245.99</course>
  <speed>3.09</speed>
  <fix>3d</fix>
</trkpt>
<trkpt lat="40.0711673" lon="-105.2303981">
  <ele>1583.0</ele>
  <time>2026-08-28T17:51:46Z</time>
  <course>246.58</course>
  <speed>2.63592488512097</speed>
  <fix>3d</fix>
</trkpt>
<trkpt lat="40.0711696" lon="-105.2303917">
  <ele>1583.0</ele>
  <time>2026-08-28T17:51:46Z</time>
  <course>245.99</course>
  <speed>3.09</speed>
  <fix>3d</fix>
</trkpt>
<trkpt lat="40.0711663" lon="-105.2304009">
  <ele>1583.01</ele>
  <time>2026-08-28T17:51:46Z</time>
  <course>246.58</course>
  <speed>2.4927494860093744</speed>
  <fix>3d</fix>
</trkpt>
<trkpt lat="40.0711675" lon="-105.2303981">
  <ele>1583.0</ele>
  <time>2026-08-28T17:51:46Z</time>
  <course>245.99</course>
  <speed>2.79</speed>
  <fix>3d</fix>
</trkpt>
<trkpt lat="40.0711654" lon="-105.2304037">
  <ele>1583.01</ele>
  <time>2026-08-28T17:51:46Z</time>
  <course>246.58</course>
  <speed>2.3719190542680835</speed>
  <fix>3d</fix>
</trkpt>
<trkpt lat="40.0711675" lon="-105.2303981">
  <ele>1583.0</ele>
  <time>2026-08-28T17:51:46Z</time>
  <course>245.99</course>
  <speed>2.79</speed>
  <fix>3d</fix>
</trkpt>
<trkpt lat="40.0711645" lon="-105.2304063">
  <ele>1583.01</ele>
  <time>2026-08-28T17:51:46Z</time>
  <course>246.59</course>
  <speed>2.2510886255321</speed>
  <fix>3d</fix>
</trkpt>
<trkpt lat="40.0711655" lon="-105.2304038">
  <ele>1583.0</ele>
  <time>2026-08-28T17:51:46Z</time>
  <course>245.99</course>
  <speed>2.53</speed>
  <fix>3d</fix>
</trkpt>
<trkpt lat="40.0711614" lon="-105.2304156">
  <ele>1583.03</ele>
  <time>2026-08-28T17:51:46Z</time>
  <course>246.6</course>
  <speed>1.8306829326784035</speed>
  <fix>3d</fix>
</trkpt>
<trkpt lat="40.0711622" lon="-105.2304136">
  <ele>1583.0</ele>
  <time>2026-08-28T17:51:46Z</time>
  <course>245.99</course>
  <speed>2.07</speed>
  <fix>3d</fix>
</trkpt>
<trkpt lat="40.0711595" lon="-105.2304215">
  <ele>1583.04</ele>
  <time>2026-08-28T17:51:46Z</time>
  <course>246.61</course>
  <speed>1.5758172482873767</speed>
  <fix>3d</fix>
</trkpt>
<trkpt lat="40.0711608" lon="-105.2304178">
  <ele>1583.0</ele>
  <time>2026-08-28T17:51:46Z</time>
  <course>245.99</course>
  <speed>1.87</speed>
  <fix>3d</fix>
</trkpt>
<trkpt lat="40.0711589" lon="-105.2304232">
  <ele>1583.04</ele>
  <time>2026-08-28T17:51:46Z</time>
  <course>246.62</course>
  <speed>1.4956269588369955</speed>
  <fix>3d</fix>
</trkpt>
<trkpt lat="40.0711608" lon="-105.2304178">
  <ele>1583.0</ele>
  <time>2026-08-28T17:51:46Z</time>
  <course>245.99</course>
  <speed>1.87</speed>
  <fix>3d</fix>
</trkpt>
<trkpt lat="40.0711583" lon="-105.2304249">
  <ele>1583.05</ele>
  <time>2026-08-28T17:51:46Z</time>
  <course>246.62</course>
  <speed>1.4194717327231283</speed>
  <fix>3d</fix>
</trkpt>
<trkpt lat="40.0711594" lon="-105.2304216">
  <ele>1583.0</ele>
  <time>2026-08-28T17:51:46Z</time>
  <course>245.99</course>
  <speed>1.69</speed>
  <fix>3d</fix>
</trkpt>
<trkpt lat="40.0711578" lon="-105.2304265">
  <ele>1583.05</ele>
  <time>2026-08-28T17:51:46Z</time>
  <course>246.63</course>
  <speed>1.352479205015737</speed>
  <fix>3d</fix>
</trkpt>
<trkpt lat="40.0711594" lon="-105.2304216">
  <ele>1583.0</ele>
  <time>2026-08-28T17:51:46Z</time>
  <course>245.99</course>
  <speed>1.69</speed>
  <fix>3d</fix>
</trkpt>
<trkpt lat="40.0711573" lon="-105.230428">
  <ele>1583.05</ele>
  <time>2026-08-28T17:51:46Z</time>
  <course>246.63</course>
  <speed>1.285496013218244</speed>
  <fix>3d</fix>
</trkpt>
<trkpt lat="40.0711582" lon="-105.2304251">
  <ele>1583.0</ele>
  <time>2026-08-28T17:51:46Z</time>
  <course>245.99</course>
  <speed>1.53</speed>
  <fix>3d</fix>
</trkpt>
<trkpt lat="40.0711568" lon="-105.2304294">
  <ele>1583.05</ele>
  <time>2026-08-28T17:51:46Z</time>
  <course>246.63</course>
  <speed>1.2185236969382254</speed>
  <fix>3d</fix>
</trkpt>
<trkpt lat="40.0711582" lon="-105.2304251">
  <ele>1583.0</ele>
  <time>2026-08-28T17:51:46Z</time>
  <course>245.99</course>
  <speed>1.53</speed>
  <fix>3d</fix>
</trkpt>
<trkpt lat="40.0711564" lon="-105.2304308">
  <ele>1583.05</ele>
  <time>2026-08-28T17:51:46Z</time>
  <course>246.64</course>
  <speed>1.1646887996370532</speed>
  <fix>3d</fix>
</trkpt>
<trkpt lat="40.0711572" lon="-105.2304283">
  <ele>1583.0</ele>
  <time>2026-08-28T17:51:46Z</time>
  <course>245.99</course>
  <speed>1.38</speed>
  <fix>3d</fix>
</trkpt>
<trkpt lat="40.0711559" lon="-105.2304321">
  <ele>1583.05</ele>
  <time>2026-08-28T17:51:46Z</time>
  <course>246.64</course>
  <speed>1.0977249200050074</speed>
  <fix>3d</fix>
</trkpt>
<trkpt lat="40.0711562" lon="-105.2304311">
  <ele>1583.0</ele>
  <time>2026-08-28T17:51:46Z</time>
  <course>245.99</course>
  <speed>1.25</speed>
  <fix>3d</fix>
</trkpt>
<trkpt lat="40.0711555" lon="-105.2304334">
  <ele>1583.05</ele>
  <time>2026-08-28T17:51:46Z</time>
  <course>246.65</course>
  <speed>1.0530906893520615</speed>
  <fix>3d</fix>
</trkpt>
<trkpt lat="40.0711562" lon="-105.2304311">
  <ele>1583.0</ele>
  <time>2026-08-28T17:51:46Z</time>
  <course>245.99</course>
  <speed>1.25</speed>
  <fix>3d</fix>
</trkpt>
<trkpt lat="40.0711551" lon="-105.2304346">
  <ele>1583.05</ele>
  <time>2026-08-28T17:51:46Z</time>
  <course>246.65</course>
  <speed>0.9992497185388645</speed>
  <fix>3d</fix>
</trkpt>
<trkpt lat="40.0711553" lon="-105.2304336">
  <ele>1583.0</ele>
  <time>2026-08-28T17:51:46Z</time>
  <course>245.99</course>
  <speed>1.13</speed>
  <fix>3d</fix>
</trkpt>
<trkpt lat="40.0711547" lon="-105.2304357">
  <ele>1583.05</ele>
  <time>2026-08-28T17:51:46Z</time>
  <course>246.65</course>
  <speed>0.9546203433826455</speed>
  <fix>3d</fix>
</trkpt>
<trkpt lat="40.0711553" lon="-105.2304336">
  <ele>1583.0</ele>
  <time>2026-08-28T17:51:46Z</time>
  <course>245.99</course>
  <speed>1.13</speed>
  <fix>3d</fix>
</trkpt>
<trkpt lat="40.0711544" lon="-105.2304368">
  <ele>1583.05</ele>
  <time>2026-08-28T17:51:46Z</time>
  <course>246.66</course>
  <speed>0.9007774419910837</speed>
  <fix>3d</fix>
</trkpt>
<trkpt lat="40.0711546" lon="-105.230436">
  <ele>1583.0</ele>
  <time>2026-08-28T17:51:46Z</time>
  <course>245.99</course>
  <speed>1.02</speed>
  <fix>3d</fix>
</trkpt>
<trkpt lat="40.071154" lon="-105.2304378">
  <ele>1583.05</ele>
  <time>2026-08-28T17:51:46Z</time>
  <course>246.66</course>
  <speed>0.8653900854527974</speed>
  <fix>3d</fix>
</trkpt>
<trkpt lat="40.0711546" lon="-105.230436">
  <ele>1583.0</ele>
  <time>2026-08-28T17:51:46Z</time>
  <course>245.99</course>
  <speed>1.02</speed>
  <fix>3d</fix>
</trkpt>
<trkpt lat="40.0711537" lon="-105.2304388">
  <ele>1583.05</ele>
  <time>2026-08-28T17:51:46Z</time>
  <course>246.66</course>
  <speed>0.8207923001588161</speed>
  <fix>3d</fix>
</trkpt>
<trkpt lat="40.0711538" lon="-105.230438">
  <ele>1583.0</ele>
  <time>2026-08-28T17:51:46Z</time>
  <course>245.99</course>
  <speed>0.93</speed>
  <fix>3d</fix>
</trkpt>
<trkpt lat="40.0711534" lon="-105.2304398">
  <ele>1583.04</ele>
  <time>2026-08-28T17:51:46Z</time>
  <course>246.66</course>
  <speed>0.7762087348130012</speed>
  <fix>3d</fix>
</trkpt>
<trkpt lat="40.0711538" lon="-105.230438">
  <ele>1583.0</ele>
  <time>2026-08-28T17:51:46Z</time>
  <course>245.99</course>
  <speed>0.93</speed>
  <fix>3d</fix>
</trkpt>
<trkpt lat="40.0711531" lon="-105.2304406">
  <ele>1583.04</ele>
  <time>2026-08-28T17:51:46Z</time>
  <course>246.67</course>
  <speed>0.7446475676452586</speed>
  <fix>3d</fix>
</trkpt>
<trkpt lat="40.0711532" lon="-105.2304399">
  <ele>1583.0</ele>
  <time>2026-08-28T17:51:46Z</time>
  <course>245.99</course>
  <speed>0.84</speed>
  <fix>3d</fix>
</trkpt>
<trkpt lat="40.0711528" lon="-105.2304415">
  <ele>1583.04</ele>
  <time>2026-08-28T17:51:46Z</time>
  <course>246.67</course>
  <speed>0.709365914038728</speed>
  <fix>3d</fix>
</trkpt>
<trkpt lat="40.0711532" lon="-105.2304399">
  <ele>1583.0</ele>
  <time>2026-08-28T17:51:46Z</time>
  <course>245.99</course>
  <speed>0.84</speed>
  <fix>3d</fix>
</trkpt>
<trkpt lat="40.0711526" lon="-105.2304423">
  <ele>1583.03</ele>
  <time>2026-08-28T17:51:46Z</time>
  <course>246.67</course>
  <speed>0.6685057965343307</speed>
  <fix>3d</fix>
</trkpt>
<trkpt lat="40.0711526" lon="-105.2304417">
  <ele>1583.0</ele>
  <time>2026-08-28T17:51:46Z</time>
  <course>245.99</course>
  <speed>0.76</speed>
  <fix>3d</fix>
</trkpt>
<trkpt lat="40.0711523" lon="-105.2304431">
  <ele>1583.03</ele>
  <time>2026-08-28T17:51:46Z</time>
  <course>246.67</course>
  <speed>0.6425729530566937</speed>
  <fix>3d</fix>
</trkpt>
<trkpt lat="40.0711526" lon="-105.2304417">
  <ele>1583.0</ele>
  <time>2026-08-28T17:51:46Z</time>
  <course>245.99</course>
  <speed>0.76</speed>
  <fix>3d</fix>
</trkpt>
<trkpt lat="40.0711521" lon="-105.2304438">
  <ele>1583.03</ele>
  <time>2026-08-28T17:51:46Z</time>
  <course>246.67</course>
  <speed>0.6109828148156051</speed>
  <fix>3d</fix>
</trkpt>
<trkpt lat="40.0711521" lon="-105.2304432">
  <ele>1583.0</ele>
  <time>2026-08-28T17:51:46Z</time>
  <course>245.99</course>
  <speed>0.69</speed>
  <fix>3d</fix>
</trkpt>
<trkpt lat="40.0711518" lon="-105.2304445">
  <ele>1583.03</ele>
  <time>2026-08-28T17:51:46Z</time>
  <course>246.67</course>
  <speed>0.579396237474839</speed>
  <fix>3d</fix>
</trkpt>
<trkpt lat="40.0711521" lon="-105.2304432">
  <ele>1583.0</ele>
  <time>2026-08-28T17:51:46Z</time>
  <course>245.99</course>
  <speed>0.69</speed>
  <fix>3d</fix>
</trkpt>
<trkpt lat="40.0711516" lon="-105.2304452">
  <ele>1583.03</ele>
  <time>2026-08-28T17:51:46Z</time>
  <course>246.67</course>
  <speed>0.5536244214266564</speed>
  <fix>3d</fix>
</trkpt>
<trkpt lat="40.0711521" lon="-105.2304432">
  <ele>1583.0</ele>
  <time>2026-08-28T17:51:46Z</time>
  <course>245.99</course>
  <speed>0.69</speed>
  <fix>3d</fix>
</trkpt>
<trkpt lat="40.0711514" lon="-105.2304458">
  <ele>1583.03</ele>
  <time>2026-08-28T17:51:46Z</time>
  <course>246.67</course>
  <speed>0.5220153254455275</speed>
  <fix>3d</fix>
</trkpt>
<trkpt lat="40.0711516" lon="-105.2304446">
  <ele>1583.0</ele>
  <time>2026-08-28T17:51:46Z</time>
  <course>245.99</course>
  <speed>0.62</speed>
  <fix>3d</fix>
</trkpt>
<trkpt lat="40.0711512" lon="-105.2304464">
  <ele>1583.03</ele>
  <time>2026-08-28T17:51:46Z</time>
  <course>246.67</course>
  <speed>0.49979995998399196</speed>
  <fix>3d</fix>
</trkpt>
<trkpt lat="40.0711516" lon="-105.2304446">
  <ele>1583.0</ele>
  <time>2026-08-28T17:51:46Z</time>
  <course>245.99</course>
  <speed>0.62</speed>
  <fix>3d</fix>
</trkpt>
<trkpt lat="40.071151" lon="-105.230447">
  <ele>1583.02</ele>
  <time>2026-08-28T17:51:46Z</time>
  <course>246.67</course>
  <speed>0.4775981574503821</speed>
  <fix>3d</fix>
</trkpt>
<trkpt lat="40.0711512" lon="-105.230446">
  <ele>1583.0</ele>
  <time>2026-08-28T17:51:46Z</time>
  <course>245.99</course>
  <speed>0.56</speed>
  <fix>3d</fix>
</trkpt>
<trkpt lat="40.0711508" lon="-105.2304475">
  <ele>1583.02</ele>
  <time>2026-08-28T17:51:46Z</time>
  <course>246.67</course>
  <speed>0.455411901469428</speed>
  <fix>3d</fix>
</trkpt>
<trkpt lat="40.0711512" lon="-105.230446">
  <ele>1583.0</ele>
  <time>2026-08-28T17:51:46Z</time>
  <course>245.99</course>
  <speed>0.56</speed>
  <fix>3d</fix>
</trkpt>
<trkpt lat="40.0711507" lon="-105.230448">
  <ele>1583.02</ele>
  <time>2026-08-28T17:51:46Z</time>
  <course>246.67</course>
  <speed>0.4332435804486894</speed>
  <fix>3d</fix>
</trkpt>
<trkpt lat="40.0711508" lon="-105.2304471">
  <ele>1583.0</ele>
  <time>2026-08-28T17:51:46Z</time>
  <course>245.99</course>
  <speed>0.51</speed>
  <fix>3d</fix>
</trkpt>
<trkpt lat="39.655741" lon="-104.1383097">
  <ele>1566.58</ele>
  <time>2026-08-28T17:51:47Z</time>
  <course>0.0</course>
  <speed>0.0</speed>
  <fix>3d</fix>
</trkpt>
<trkpt lat="40.0713749" lon="-105.229789">
  <ele>1583.0</ele>
  <time>2026-08-28T17:51:47Z</time>
  <course>0.0</course>
  <speed>0.0</speed>
  <fix>3d</fix>
</trkpt>
<trkpt lat="40.0713749" lon="-105.229789">
  <ele>1583.0</ele>
  <time>2026-08-28T17:51:47Z</time>
  <course>238.36</course>
  <speed>0.0</speed>
  <fix>3d</fix>
</trkpt>
<trkpt lat="40.0713749" lon="-105.229789">
  <ele>1583.0</ele>
  <time>2026-08-28T17:51:47Z</time>
  <course>0.0</course>
  <speed>0.0</speed>
  <fix>3d</fix>
</trkpt>
<trkpt lat="40.0713749" lon="-105.229789">
  <ele>1583.0</ele>
  <time>2026-08-28T17:51:47Z</time>
  <course>238.44</course>
  <speed>0.0</speed>
  <fix>3d</fix>
</trkpt>
<trkpt lat="40.0713749" lon="-105.229789">
  <ele>1583.0</ele>
  <time>2026-08-28T17:51:47Z</time>
  <course>0.0</course>
  <speed>0.0</speed>
  <fix>3d</fix>
</trkpt>
<trkpt lat="40.0713749" lon="-105.229789">
  <ele>1583.0</ele>
  <time>2026-08-28T17:51:47Z</time>
  <course>238.64</course>
  <speed>0.0</speed>
  <fix>3d</fix>
</trkpt>
<trkpt lat="40.0713749" lon="-105.229789">
  <ele>1583.0</ele>
  <time>2026-08-28T17:51:47Z</time>
  <course>0.0</course>
  <speed>0.0</speed>
  <fix>3d</fix>
</trkpt>
<trkpt lat="40.0713749" lon="-105.229789">
  <ele>1583.0</ele>
  <time>2026-08-28T17:51:47Z</time>
  <course>238.93</course>
  <speed>0.0</speed>
  <fix>3d</fix>
</trkpt>
<trkpt lat="40.0713749" lon="-105.229789">
  <ele>1583.0</ele>
  <time>2026-08-28T17:51:47Z</time>
  <course>0.0</course>
  <speed>0.0</speed>
  <fix>3d</fix>
</trkpt>
<trkpt lat="40.0713749" lon="-105.229789">
  <ele>1583.0</ele>
  <time>2026-08-28T17:51:47Z</time>
  <course>239.26</course>
  <speed>0.0</speed>
  <fix>3d</fix>
</trkpt>
<trkpt lat="40.0713749" lon="-105.229789">
  <ele>1583.0</ele>
  <time>2026-08-28T17:51:47Z</time>
  <course>0.0</course>
  <speed>0.0</speed>
  <fix>3d</fix>
</trkpt>
<trkpt lat="40.0713749" lon="-105.229789">
  <ele>1583.0</ele>
  <time>2026-08-28T17:51:47Z</time>
  <course>239.61</course>
  <speed>0.0</speed>
  <fix>3d</fix>
</trkpt>
<trkpt lat="40.0713749" lon="-105.229789">
  <ele>1583.0</ele>
  <time>2026-08-28T17:51:47Z</time>
  <course>0.0</course>
  <speed>0.0</speed>
  <fix>3d</fix>
</trkpt>
<trkpt lat="40.0713749" lon="-105.229789">
  <ele>1583.0</ele>
  <time>2026-08-28T17:51:47Z</time>
  <course>239.96</course>
  <speed>0.0</speed>
  <fix>3d</fix>
</trkpt>
<trkpt lat="40.0713749" lon="-105.229789">
  <ele>1583.0</ele>
  <time>2026-08-28T17:51:47Z</time>
  <course>0.0</course>
  <speed>0.0</speed>
  <fix>3d</fix>
</trkpt>
<trkpt lat="40.0713749" lon="-105.229789">
  <ele>1583.0</ele>
  <time>2026-08-28T17:51:47Z</time>
  <course>240.29</course>
  <speed>0.0</speed>
  <fix>3d</fix>
</trkpt>
<trkpt lat="40.0713749" lon="-105.229789">
  <ele>1583.0</ele>
  <time>2026-08-28T17:51:47Z</time>
  <course>0.0</course>
  <speed>0.0</speed>
  <fix>3d</fix>
</trkpt>
<trkpt lat="40.0713749" lon="-105.229789">
  <ele>1583.0</ele>
  <time>2026-08-28T17:51:47Z</time>
  <course>240.61</course>
  <speed>0.0</speed>
  <fix>3d</fix>
</trkpt>
<trkpt lat="40.0713749" lon="-105.229789">
  <ele>1583.0</ele>
  <time>2026-08-28T17:51:47Z</time>
  <course>0.0</course>
  <speed>0.0</speed>
  <fix>3d</fix>
</trkpt>
<trkpt lat="40.0713749" lon="-105.229789">
  <ele>1583.0</ele>
  <time>2026-08-28T17:51:47Z</time>
  <course>240.92</course>
  <speed>0.0</speed>
  <fix>3d</fix>
</trkpt>
<trkpt lat="40.0713749" lon="-105.229789">
  <ele>1583.0</ele>
  <time>2026-08-28T17:51:47Z</time>
  <course>0.0</course>
  <speed>0.0</speed>
  <fix>3d</fix>
</trkpt>
<trkpt lat="40.0713749" lon="-105.229789">
  <ele>1583.0</ele>
  <time>2026-08-28T17:51:47Z</time>
  <course>241.21</course>
  <speed>0.0</speed>
  <fix>3d</fix>
</trkpt>
<trkpt lat="40.0713749" lon="-105.229789">
  <ele>1583.0</ele>
  <time>2026-08-28T17:51:47Z</time>
  <course>0.0</course>
  <speed>0.0</speed>
  <fix>3d</fix>
</trkpt>
<trkpt lat="40.0713749" lon="-105.229789">
  <ele>1583.0</ele>
  <time>2026-08-28T17:51:47Z</time>
  <course>241.49</course>
  <speed>0.0</speed>
  <fix>3d</fix>
</trkpt>
<trkpt lat="40.0713749" lon="-105.229789">
  <ele>1583.0</ele>
  <time>2026-08-28T17:51:47Z</time>
  <course>0.0</course>
  <speed>0.0</speed>
  <fix>3d</fix>
</trkpt>
<trkpt lat="40.0713749" lon="-105.229789">
  <ele>1583.0</ele>
  <time>2026-08-28T17:51:47Z</time>
  <course>241.77</course>
  <speed>0.0</speed>
  <fix>3d</fix>
</trkpt>
<trkpt lat="40.0713749" lon="-105.229789">
  <ele>1583.0</ele>
  <time>2026-08-28T17:51:47Z</time>
  <course>0.0</course>
  <speed>0.0</speed>
  <fix>3d</fix>
</trkpt>
<trkpt lat="40.0713749" lon="-105.229789">
  <ele>1583.0</ele>
  <time>2026-08-28T17:51:47Z</time>
  <course>242.03</course>
  <speed>0.0</speed>
  <fix>3d</fix>
</trkpt>
<trkpt lat="40.0713749" lon="-105.229789">
  <ele>1583.0</ele>
  <time>2026-08-28T17:51:47Z</time>
  <course>0.0</course>
  <speed>0.0</speed>
  <fix>3d</fix>
</trkpt>
<trkpt lat="40.0713749" lon="-105.229789">
  <ele>1583.0</ele>
  <time>2026-08-28T17:51:47Z</time>
  <course>242.29</course>
  <speed>0.0</speed>
  <fix>3d</fix>
</trkpt>
<trkpt lat="40.0713749" lon="-105.229789">
  <ele>1583.0</ele>
  <time>2026-08-28T17:51:47Z</time>
  <course>0.0</course>
  <speed>0.0</speed>
  <fix>3d</fix>
</trkpt>
<trkpt lat="40.0713749" lon="-105.229789">
  <ele>1583.0</ele>
  <time>2026-08-28T17:51:47Z</time>
  <course>242.54</course>
  <speed>0.0</speed>
  <fix>3d</fix>
</trkpt>
<trkpt lat="40.0713749" lon="-105.229789">
  <ele>1583.0</ele>
  <time>2026-08-28T17:51:47Z</time>
  <course>0.0</course>
  <speed>0.0</speed>
  <fix>3d</fix>
</trkpt>
<trkpt lat="40.0713749" lon="-105.229789">
  <ele>1583.0</ele>
  <time>2026-08-28T17:51:47Z</time>
  <course>242.79</course>
  <speed>0.0</speed>
  <fix>3d</fix>
</trkpt>
<trkpt lat="40.0713749" lon="-105.229789">
  <ele>1583.0</ele>
  <time>2026-08-28T17:51:47Z</time>
  <course>0.0</course>
  <speed>0.0</speed>
  <fix>3d</fix>
</trkpt>
<trkpt lat="40.0713749" lon="-105.229789">
  <ele>1583.0</ele>
  <time>2026-08-28T17:51:47Z</time>
  <course>243.02</course>
  <speed>0.0</speed>
  <fix>3d</fix>
</trkpt>
<trkpt lat="40.0713749" lon="-105.229789">
  <ele>1583.0</ele>
  <time>2026-08-28T17:51:47Z</time>
  <course>0.0</course>
  <speed>0.0</speed>
  <fix>3d</fix>
</trkpt>
<trkpt lat="40.0713749" lon="-105.229789">
  <ele>1583.0</ele>
  <time>2026-08-28T17:51:47Z</time>
  <course>243.25</course>
  <speed>0.0</speed>
  <fix>3d</fix>
</trkpt>
<trkpt lat="40.0713749" lon="-105.229789">
  <ele>1583.0</ele>
  <time>2026-08-28T17:51:47Z</time>
  <course>0.0</course>
  <speed>0.0</speed>
  <fix>3d</fix>
</trkpt>
<trkpt lat="40.0713749" lon="-105.229789">
  <ele>1583.0</ele>
  <time>2026-08-28T17:51:47Z</time>
  <course>243.47</course>
  <speed>0.0</speed>
  <fix>3d</fix>
</trkpt>
<trkpt lat="40.0713749" lon="-105.229789">
  <ele>1583.0</ele>
  <time>2026-08-28T17:51:47Z</time>
  <course>0.0</course>
  <speed>0.0</speed>
  <fix>3d</fix>
</trkpt>
<trkpt lat="40.0713749" lon="-105.229789">
  <ele>1583.0</ele>
  <time>2026-08-28T17:51:47Z</time>
  <course>243.68</course>
  <speed>0.0</speed>
  <fix>3d</fix>
</trkpt>
<trkpt lat="40.0713749" lon="-105.229789">
  <ele>1583.0</ele>
  <time>2026-08-28T17:51:47Z</time>
  <course>0.0</course>
  <speed>0.0</speed>
  <fix>3d</fix>
</trkpt>
<trkpt lat="40.0713749" lon="-105.229789">
  <ele>1583.0</ele>
  <time>2026-08-28T17:51:47Z</time>
  <course>243.89</course>
  <speed>0.0</speed>
  <fix>3d</fix>
</trkpt>
<trkpt lat="40.0713749" lon="-105.229789">
  <ele>1583.0</ele>
  <time>2026-08-28T17:51:47Z</time>
  <course>0.0</course>
  <speed>0.0</speed>
  <fix>3d</fix>
</trkpt>
<trkpt lat="40.0713749" lon="-105.229789">
  <ele>1583.0</ele>
  <time>2026-08-28T17:51:47Z</time>
  <course>244.09</course>
  <speed>0.0</speed>
  <fix>3d</fix>
</trkpt>
<trkpt lat="40.0713749" lon="-105.229789">
  <ele>1583.0</ele>
  <time>2026-08-28T17:51:47Z</time>
  <course>0.0</course>
  <speed>0.0</speed>
  <fix>3d</fix>
</trkpt>
<trkpt lat="40.0713749" lon="-105.229789">
  <ele>1583.0</ele>
  <time>2026-08-28T17:51:47Z</time>
  <course>244.28</course>
  <speed>0.0</speed>
  <fix>3d</fix>
</trkpt>
<trkpt lat="40.0713749" lon="-105.229789">
  <ele>1583.0</ele>
  <time>2026-08-28T17:51:47Z</time>
  <course>0.0</course>
  <speed>0.0</speed>
  <fix>3d</fix>
</trkpt>
<trkpt lat="40.0713749" lon="-105.229789">
  <ele>1583.0</ele>
  <time>2026-08-28T17:51:47Z</time>
  <course>244.46</course>
  <speed>0.0</speed>
  <fix>3d</fix>
</trkpt>
<trkpt lat="40.0713749" lon="-105.229789">
  <ele>1583.0</ele>
  <time>2026-08-28T17:51:47Z</time>
  <course>0.0</course>
  <speed>0.0</speed>
  <fix>3d</fix>
</trkpt>
<trkpt lat="40.0713749" lon="-105.229789">
  <ele>1583.0</ele>
  <time>2026-08-28T17:51:47Z</time>
  <course>244.64</course>
  <speed>0.0</speed>
  <fix>3d</fix>
</trkpt>
<trkpt lat="40.0713749" lon="-105.229789">
  <ele>1583.0</ele>
  <time>2026-08-28T17:51:47Z</time>
  <course>0.0</course>
  <speed>0.0</speed>
  <fix>3d</fix>
</trkpt>
<trkpt lat="40.0713749" lon="-105.229789">
  <ele>1583.0</ele>
  <time>2026-08-28T17:51:47Z</time>
  <course>244.81</course>
  <speed>0.0</speed>
  <fix>3d</fix>
</trkpt>
<trkpt lat="40.0713749" lon="-105.229789">
  <ele>1583.0</ele>
  <time>2026-08-28T17:51:47Z</time>
  <course>0.0</course>
  <speed>0.0</speed>
  <fix>3d</fix>
</trkpt>
<trkpt lat="40.0713749" lon="-105.229789">
  <ele>1583.0</ele>
  <time>2026-08-28T17:51:47Z</time>
  <course>244.97</course>
  <speed>0.0</speed>
  <fix>3d</fix>
</trkpt>
<trkpt lat="40.0713749" lon="-105.229789">
  <ele>1583.0</ele>
  <time>2026-08-28T17:51:47Z</time>
  <course>0.0</course>
  <speed>0.0</speed>
  <fix>3d</fix>
</trkpt>
<trkpt lat="40.0713749" lon="-105.229789">
  <ele>1583.0</ele>
  <time>2026-08-28T17:51:47Z</time>
  <course>245.13</course>
  <speed>0.0</speed>
  <fix>3d</fix>
</trkpt>
<trkpt lat="40.0713749" lon="-105.229789">
  <ele>1583.0</ele>
  <time>2026-08-28T17:51:47Z</time>
  <course>0.0</course>
  <speed>0.0</speed>
  <fix>3d</fix>
</trkpt>
<trkpt lat="40.0713749" lon="-105.229789">
  <ele>1583.0</ele>
  <time>2026-08-28T17:51:47Z</time>
  <course>245.29</course>
  <speed>0.0</speed>
  <fix>3d</fix>
</trkpt>
<trkpt lat="40.0713749" lon="-105.229789">
  <ele>1583.0</ele>
  <time>2026-08-28T17:51:47Z</time>
  <course>0.0</course>
  <speed>0.0</speed>
  <fix>3d</fix>
</trkpt>
<trkpt lat="40.0713749" lon="-105.229789">
  <ele>1583.0</ele>
  <time>2026-08-28T17:51:47Z</time>
  <course>245.43</course>
  <speed>0.0</speed>
  <fix>3d</fix>
</trkpt>
<trkpt lat="40.0713749" lon="-105.229789">
  <ele>1583.0</ele>
  <time>2026-08-28T17:51:47Z</time>
  <course>0.0</course>
  <speed>0.0</speed>
  <fix>3d</fix>
</trkpt>
<trkpt lat="40.0713749" lon="-105.229789">
  <ele>1583.0</ele>
  <time>2026-08-28T17:51:47Z</time>
  <course>245.57</course>
  <speed>0.0</speed>
  <fix>3d</fix>
</trkpt>
<trkpt lat="40.0713749" lon="-105.229789">
  <ele>1583.0</ele>
  <time>2026-08-28T17:51:47Z</time>
  <course>0.0</course>
  <speed>0.0</speed>
  <fix>3d</fix>
</trkpt>
<trkpt lat="40.0713749" lon="-105.229789">
  <ele>1583.0</ele>
  <time>2026-08-28T17:51:47Z</time>
  <course>245.71</course>
  <speed>0.0</speed>
  <fix>3d</fix>
</trkpt>
<trkpt lat="40.0713749" lon="-105.229789">
  <ele>1583.0</ele>
  <time>2026-08-28T17:51:47Z</time>
  <course>0.0</course>
  <speed>0.0</speed>
  <fix>3d</fix>
</trkpt>
<trkpt lat="40.0713749" lon="-105.229789">
  <ele>1583.0</ele>
  <time>2026-08-28T17:51:47Z</time>
  <course>245.84</course>
  <speed>0.0</speed>
  <fix>3d</fix>
</trkpt>
<trkpt lat="40.0713749" lon="-105.229789">
  <ele>1583.0</ele>
  <time>2026-08-28T17:51:47Z</time>
  <course>0.0</course>
  <speed>0.0</speed>
  <fix>3d</fix>
</trkpt>
<trkpt lat="40.0713749" lon="-105.229789">
  <ele>1583.0</ele>
  <time>2026-08-28T17:51:47Z</time>
  <course>245.96</course>
  <speed>0.0</speed>
  <fix>3d</fix>
</trkpt>
<trkpt lat="40.0713749" lon="-105.229789">
  <ele>1583.0</ele>
  <time>2026-08-28T17:51:47Z</time>
  <course>0.0</course>
  <speed>0.0</speed>
  <fix>3d</fix>
</trkpt>
<trkpt lat="40.0713749" lon="-105.229789">
  <ele>1583.0</ele>
  <time>2026-08-28T17:51:47Z</time>
  <course>246.08</course>
  <speed>0.0</speed>
  <fix>3d</fix>
</trkpt>
<trkpt lat="40.0713749" lon="-105.229789">
  <ele>1583.0</ele>
  <time>2026-08-28T17:51:47Z</time>
  <course>0.0</course>
  <speed>0.0</speed>
  <fix>3d</fix>
</trkpt>
<trkpt lat="40.0713749" lon="-105.229789">
  <ele>1583.0</ele>
  <time>2026-08-28T17:51:47Z</time>
  <course>246.19</course>
  <speed>0.0</speed>
  <fix>3d</fix>
</trkpt>
<trkpt lat="40.0713749" lon="-105.229789">
  <ele>1583.0</ele>
  <time>2026-08-28T17:51:47Z</time>
  <course>0.0</course>
  <speed>0.0</speed>
  <fix>3d</fix>
</trkpt>
<trkpt lat="40.0713749" lon="-105.229789">
  <ele>1583.0</ele>
  <time>2026-08-28T17:51:47Z</time>
  <course>246.3</course>
  <speed>0.0</speed>
  <fix>3d</fix>
</trkpt>
<trkpt lat="40.0713749" lon="-105.229789">
  <ele>1583.0</ele>
  <time>2026-08-28T17:51:47Z</time>
  <course>0.0</course>
  <speed>0.0</speed>
  <fix>3d</fix>
</trkpt>
<trkpt lat="40.0713749" lon="-105.229789">
  <ele>1583.0</ele>
  <time>2026-08-28T17:51:47Z</time>
  <course>246.41</course>
  <speed>0.0</speed>
  <fix>3d</fix>
</trkpt>
<trkpt lat="40.0713749" lon="-105.229789">
  <ele>1583.0</ele>
  <time>2026-08-28T17:51:47Z</time>
  <course>0.0</course>
  <speed>0.0</speed>
  <fix>3d</fix>
</trkpt>
<trkpt lat="40.0713749" lon="-105.229789">
  <ele>1583.0</ele>
  <time>2026-08-28T17:51:47Z</time>
  <course>246.51</course>
  <speed>0.0</speed>
  <fix>3d</fix>
</trkpt>
<trkpt lat="40.0713749" lon="-105.229789">
  <ele>1583.0</ele>
  <time>2026-08-28T17:51:47Z</time>
  <course>0.0</course>
  <speed>0.0</speed>
  <fix>3d</fix>
</trkpt>
<trkpt lat="40.0713749" lon="-105.229789">
  <ele>1583.0</ele>
  <time>2026-08-28T17:51:47Z</time>
  <course>246.6</course>
  <speed>0.0</speed>
  <fix>3d</fix>
</trkpt>
<trkpt lat="40.0713749" lon="-105.229789">
  <ele>1583.0</ele>
  <time>2026-08-28T17:51:47Z</time>
  <course>0.0</course>
  <speed>0.0</speed>
  <fix>3d</fix>
</trkpt>
<trkpt lat="40.0713749" lon="-105.229789">
  <ele>1583.0</ele>
  <time>2026-08-28T17:51:47Z</time>
  <course>246.7</course>
  <speed>0.0</speed>
  <fix>3d</fix>
</trkpt>
<trkpt lat="40.0713749" lon="-105.229789">
  <ele>1583.0</ele>
  <time>2026-08-28T17:51:47Z</time>
  <course>0.0</course>
  <speed>0.0</speed>
  <fix>3d</fix>
</trkpt>
<trkpt lat="40.0713749" lon="-105.229789">
  <ele>1583.0</ele>
  <time>2026-08-28T17:51:47Z</time>
  <course>246.78</course>
  <speed>0.0</speed>
  <fix>3d</fix>
</trkpt>
<trkpt lat="40.0713749" lon="-105.229789">
  <ele>1583.0</ele>
  <time>2026-08-28T17:51:47Z</time>
  <course>0.0</course>
  <speed>0.0</speed>
  <fix>3d</fix>
</trkpt>
<trkpt lat="40.0713749" lon="-105.229789">
  <ele>1583.0</ele>
  <time>2026-08-28T17:51:47Z</time>
  <course>246.87</course>
  <speed>0.0</speed>
  <fix>3d</fix>
</trkpt>
<trkpt lat="40.0713749" lon="-105.229789">
  <ele>1583.0</ele>
  <time>2026-08-28T17:51:47Z</time>
  <course>0.0</course>
  <speed>0.0</speed>
  <fix>3d</fix>
</trkpt>
<trkpt lat="40.0713749" lon="-105.229789">
  <ele>1583.0</ele>
  <time>2026-08-28T17:51:47Z</time>
  <course>246.95</course>
  <speed>0.0</speed>
  <fix>3d</fix>
</trkpt>
<trkpt lat="40.0713749" lon="-105.229789">
  <ele>1583.0</ele>
  <time>2026-08-28T17:51:47Z</time>
  <course>0.0</course>
  <speed>0.0</speed>
  <fix>3d</fix>
</trkpt>
<trkpt lat="40.0713749" lon="-105.229789">
  <ele>1583.0</ele>
  <time>2026-08-28T17:51:47Z</time>
  <course>247.02</course>
  <speed>0.0</speed>
  <fix>3d</fix>
</trkpt>
<trkpt lat="40.0713749" lon="-105.229789">
  <ele>1583.0</ele>
  <time>2026-08-28T17:51:47Z</time>
  <course>0.0</course>
  <speed>0.0</speed>
  <fix>3d</fix>
</trkpt>
<trkpt lat="40.0713749" lon="-105.229789">
  <ele>1583.0</ele>
  <time>2026-08-28T17:51:47Z</time>
  <course>247.1</course>
  <speed>0.0</speed>
  <fix>3d</fix>
</trkpt>
<trkpt lat="40.0713749" lon="-105.229789">
  <ele>1583.0</ele>
  <time>2026-08-28T17:51:47Z</time>
  <course>0.0</course>
  <speed>0.0</speed>
  <fix>3d</fix>
</trkpt>
<trkpt lat="40.0713749" lon="-105.229789">
  <ele>1583.0</ele>
  <time>2026-08-28T17:51:47Z</time>
  <course>247.17</course>
  <speed>0.0</speed>
  <fix>3d</fix>
</trkpt>
<trkpt lat="40.0713749" lon="-105.229789">
  <ele>1583.0</ele>
  <time>2026-08-28T17:51:47Z</time>
  <course>0.0</course>
  <speed>0.0</speed>
  <fix>3d</fix>
</trkpt>
<trkpt lat="40.0713749" lon="-105.229789">
  <ele>1583.0</ele>
  <time>2026-08-28T17:51:47Z</time>
  <course>247.24</course>
  <speed>0.0</speed>
  <fix>3d</fix>
</trkpt>
<trkpt lat="40.0713749" lon="-105.229789">
  <ele>1583.0</ele>
  <time>2026-08-28T17:51:47Z</time>
  <course>0.0</course>
  <speed>0.0</speed>
  <fix>3d</fix>
</trkpt>
<trkpt lat="40.0713749" lon="-105.229789">
  <ele>1583.0</ele>
  <time>2026-08-28T17:51:47Z</time>
  <course>247.3</course>
  <speed>0.0</speed>
  <fix>3d</fix>
</trkpt>
<trkpt lat="40.0713749" lon="-105.229789">
  <ele>1583.0</ele>
  <time>2026-08-28T17:51:47Z</time>
  <course>0.0</course>
  <speed>0.0</speed>
  <fix>3d</fix>
</trkpt>
<trkpt lat="40.0713749" lon="-105.229789">
  <ele>1583.0</ele>
  <time>2026-08-28T17:51:47Z</time>
  <course>247.36</course>
  <speed>0.0</speed>
  <fix>3d</fix>
</trkpt>
<trkpt lat="40.0713749" lon="-105.229789">
  <ele>1583.0</ele>
  <time>2026-08-28T17:51:47Z</time>
  <course>0.0</course>
  <speed>0.0</speed>
  <fix>3d</fix>
</trkpt>
<trkpt lat="40.0713749" lon="-105.229789">
  <ele>1583.0</ele>
  <time>2026-08-28T17:51:47Z</time>
  <course>247.42</course>
  <speed>0.0</speed>
  <fix>3d</fix>
</trkpt>
<trkpt lat="40.0713749" lon="-105.229789">
  <ele>1583.0</ele>
  <time>2026-08-28T17:51:47Z</time>
  <course>0.0</course>
  <speed>0.0</speed>
  <fix>3d</fix>
</trkpt>
<trkpt lat="40.0713749" lon="-105.229789">
  <ele>1583.0</ele>
  <time>2026-08-28T17:51:47Z</time>
  <course>247.47</course>
  <speed>0.0</speed>
  <fix>3d</fix>
</trkpt>
<trkpt lat="40.0713749" lon="-105.229789">
  <ele>1583.0</ele>
  <time>2026-08-28T17:51:47Z</time>
  <course>0.0</course>
  <speed>0.0</speed>
  <fix>3d</fix>
</trkpt>
<trkpt lat="40.0713749" lon="-105.229789">
  <ele>1583.0</ele>
  <time>2026-08-28T17:51:47Z</time>
  <course>247.53</course>
  <speed>0.0</speed>
  <fix>3d</fix>
</trkpt>
<trkpt lat="40.0713749" lon="-105.229789">
  <ele>1583.0</ele>
  <time>2026-08-28T17:51:47Z</time>
  <course>0.0</course>
  <speed>0.0</speed>
  <fix>3d</fix>
</trkpt>
<trkpt lat="40.0713749" lon="-105.229789">
  <ele>1583.0</ele>
  <time>2026-08-28T17:51:47Z</time>
  <course>247.58</course>
  <speed>0.0</speed>
  <fix>3d</fix>
</trkpt>
<trkpt lat="40.0713749" lon="-105.229789">
  <ele>1583.0</ele>
  <time>2026-08-28T17:51:47Z</time>
  <course>0.0</course>
  <speed>0.0</speed>
  <fix>3d</fix>
</trkpt>
<trkpt lat="40.0713749" lon="-105.229789">
  <ele>1583.0</ele>
  <time>2026-08-28T17:51:47Z</time>
  <course>247.63</course>
  <speed>0.0</speed>
  <fix>3d</fix>
</trkpt>
<trkpt lat="40.0713749" lon="-105.229789">
  <ele>1583.0</ele>
  <time>2026-08-28T17:51:47Z</time>
  <course>0.0</course>
  <speed>0.0</speed>
  <fix>3d</fix>
</trkpt>
<trkpt lat="40.0713749" lon="-105.229789">
  <ele>1583.0</ele>
  <time>2026-08-28T17:51:47Z</time>
  <course>247.67</course>
  <speed>0.0</speed>
  <fix>3d</fix>
</trkpt>
<trkpt lat="40.0713749" lon="-105.229789">
  <ele>1583.0</ele>
  <time>2026-08-28T17:51:47Z</time>
  <course>0.0</course>
  <speed>0.0</speed>
  <fix>3d</fix>
</trkpt>
<trkpt lat="40.0713749" lon="-105.229789">
  <ele>1583.0</ele>
  <time>2026-08-28T17:51:47Z</time>
  <course>247.72</course>
  <speed>0.0</speed>
  <fix>3d</fix>
</trkpt>
<trkpt lat="40.0713749" lon="-105.229789">
  <ele>1583.0</ele>
  <time>2026-08-28T17:51:47Z</time>
  <course>0.0</course>
  <speed>0.0</speed>
  <fix>3d</fix>
</trkpt>
<trkpt lat="40.0713749" lon="-105.229789">
  <ele>1583.0</ele>
  <time>2026-08-28T17:51:47Z</time>
  <course>247.76</course>
  <speed>0.0</speed>
  <fix>3d</fix>
</trkpt>
<trkpt lat="40.0713749" lon="-105.229789">
  <ele>1583.0</ele>
  <time>2026-08-28T17:51:47Z</time>
  <course>0.0</course>
  <speed>0.0</speed>
  <fix>3d</fix>
</trkpt>
<trkpt lat="40.0713749" lon="-105.229789">
  <ele>1583.0</ele>
  <time>2026-08-28T17:51:47Z</time>
  <course>247.8</course>
  <speed>0.0</speed>
  <fix>3d</fix>
</trkpt>
<trkpt lat="40.0713749" lon="-105.229789">
  <ele>1583.0</ele>
  <time>2026-08-28T17:51:47Z</time>
  <course>0.0</course>
  <speed>0.0</speed>
  <fix>3d</fix>
</trkpt>
<trkpt lat="40.0713749" lon="-105.229789">
  <ele>1583.0</ele>
  <time>2026-08-28T17:51:47Z</time>
  <course>247.83</course>
  <speed>0.0</speed>
  <fix>3d</fix>
</trkpt>
<trkpt lat="40.0713749" lon="-105.229789">
  <ele>1583.0</ele>
  <time>2026-08-28T17:51:47Z</time>
  <course>0.0</course>
  <speed>0.0</speed>
  <fix>3d</fix>
</trkpt>
<trkpt lat="40.0713749" lon="-105.229789">
  <ele>1583.0</ele>
  <time>2026-08-28T17:51:47Z</time>
  <course>247.87</course>
  <speed>0.0</speed>
  <fix>3d</fix>
</trkpt>
<trkpt lat="40.0713749" lon="-105.229789">
  <ele>1583.0</ele>
  <time>2026-08-28T17:51:47Z</time>
  <course>0.0</course>
  <speed>0.0</speed>
  <fix>3d</fix>
</trkpt>
<trkpt lat="40.0713749" lon="-105.229789">
  <ele>1583.0</ele>
  <time>2026-08-28T17:51:47Z</time>
  <course>247.9</course>
  <speed>0.0</speed>
  <fix>3d</fix>
</trkpt>
<trkpt lat="40.0713749" lon="-105.229789">
  <ele>1583.0</ele>
  <time>2026-08-28T17:51:47Z</time>
  <course>0.0</course>
  <speed>0.0</speed>
  <fix>3d</fix>
</trkpt>
<trkpt lat="40.0713749" lon="-105.229789">
  <ele>1583.0</ele>
  <time>2026-08-28T17:51:47Z</time>
  <course>247.94</course>
  <speed>0.0</speed>
  <fix>3d</fix>
</trkpt>
<trkpt lat="40.0713749" lon="-105.229789">
  <ele>1583.0</ele>
  <time>2026-08-28T17:51:47Z</time>
  <course>0.0</course>
  <speed>0.0</speed>
  <fix>3d</fix>
</trkpt>
<trkpt lat="40.0713749" lon="-105.229789">
  <ele>1583.0</ele>
  <time>2026-08-28T17:51:47Z</time>
  <course>247.97</course>
  <speed>0.0</speed>
  <fix>3d</fix>
</trkpt>
<trkpt lat="40.0713749" lon="-105.229789">
  <ele>1583.0</ele>
  <time>2026-08-28T17:51:47Z</time>
  <course>0.0</course>
  <speed>0.0</speed>
  <fix>3d</fix>
</trkpt>
<trkpt lat="40.0713749" lon="-105.229789">
  <ele>1583.0</ele>
  <time>2026-08-28T17:51:47Z</time>
  <course>248.0</course>
  <speed>0.0</speed>
  <fix>3d</fix>
</trkpt>
<trkpt lat="40.0713749" lon="-105.229789">
  <ele>1583.0</ele>
  <time>2026-08-28T17:51:47Z</time>
  <course>0.0</course>
  <speed>0.0</speed>
  <fix>3d</fix>
</trkpt>
<trkpt lat="40.0713749" lon="-105.229789">
  <ele>1583.0</ele>
  <time>2026-08-28T17:51:47Z</time>
  <course>248.02</course>
  <speed>0.0</speed>
  <fix>3d</fix>
</trkpt>
<trkpt lat="40.0713749" lon="-105.229789">
  <ele>1583.0</ele>
  <time>2026-08-28T17:51:47Z</time>
  <course>0.0</course>
  <speed>0.0</speed>
  <fix>3d</fix>
</trkpt>
<trkpt lat="40.0713749" lon="-105.229789">
  <ele>1583.0</ele>
  <time>2026-08-28T17:51:47Z</time>
  <course>248.05</course>
  <speed>0.0</speed>
  <fix>3d</fix>
</trkpt>
<trkpt lat="40.0713749" lon="-105.229789">
  <ele>1583.0</ele>
  <time>2026-08-28T17:51:47Z</time>
  <course>0.0</course>
  <speed>0.0</speed>
  <fix>3d</fix>
</trkpt>
<trkpt lat="40.0713749" lon="-105.229789">
  <ele>1583.0</ele>
  <time>2026-08-28T17:51:47Z</time>
  <course>248.08</course>
  <speed>0.0</speed>
  <fix>3d</fix>
</trkpt>
<trkpt lat="40.0713749" lon="-105.229789">
  <ele>1583.0</ele>
  <time>2026-08-28T17:51:47Z</time>
  <course>0.0</course>
  <speed>0.0</speed>
  <fix>3d</fix>
</trkpt>
<trkpt lat="40.0713749" lon="-105.229789">
  <ele>1583.0</ele>
  <time>2026-08-28T17:51:47Z</time>
  <course>248.1</course>
  <speed>0.0</speed>
  <fix>3d</fix>
</trkpt>
<trkpt lat="40.0713749" lon="-105.229789">
  <ele>1583.0</ele>
  <time>2026-08-28T17:51:47Z</time>
  <course>0.0</course>
  <speed>0.0</speed>
  <fix>3d</fix>
</trkpt>
<trkpt lat="40.0713749" lon="-105.229789">
  <ele>1583.0</ele>
  <time>2026-08-28T17:51:47Z</time>
  <course>248.12</course>
  <speed>0.0</speed>
  <fix>3d</fix>
</trkpt>
<trkpt lat="40.0713749" lon="-105.229789">
  <ele>1583.0</ele>
  <time>2026-08-28T17:51:47Z</time>
  <course>0.0</course>
  <speed>0.0</speed>
  <fix>3d</fix>
</trkpt>
<trkpt lat="40.0713749" lon="-105.229789">
  <ele>1583.0</ele>
  <time>2026-08-28T17:51:47Z</time>
  <course>248.14</course>
  <speed>0.0</speed>
  <fix>3d</fix>
</trkpt>
<trkpt lat="40.0713749" lon="-105.229789">
  <ele>1583.0</ele>
  <time>2026-08-28T17:51:47Z</time>
  <course>0.0</course>
  <speed>0.0</speed>
  <fix>3d</fix>
</trkpt>
<trkpt lat="40.0713749" lon="-105.229789">
  <ele>1583.0</ele>
  <time>2026-08-28T17:51:47Z</time>
  <course>248.16</course>
  <speed>0.0</speed>
  <fix>3d</fix>
</trkpt>
<trkpt lat="40.0713749" lon="-105.229789">
  <ele>1583.0</ele>
  <time>2026-08-28T17:51:47Z</time>
  <course>0.0</course>
  <speed>0.0</speed>
  <fix>3d</fix>
</trkpt>
<trkpt lat="40.0713749" lon="-105.229789">
  <ele>1583.0</ele>
  <time>2026-08-28T17:51:47Z</time>
  <course>248.18</course>
  <speed>0.0</speed>
  <fix>3d</fix>
</trkpt>
<trkpt lat="40.0713749" lon="-105.229789">
  <ele>1583.0</ele>
  <time>2026-08-28T17:51:47Z</time>
  <course>0.0</course>
  <speed>0.0</speed>
  <fix>3d</fix>
</trkpt>
<trkpt lat="40.0713749" lon="-105.229789">
  <ele>1583.0</ele>
  <time>2026-08-28T17:51:47Z</time>
  <course>248.2</course>
  <speed>0.0</speed>
  <fix>3d</fix>
</trkpt>
<trkpt lat="40.0713749" lon="-105.229789">
  <ele>1583.0</ele>
  <time>2026-08-28T17:51:47Z</time>
  <course>0.0</course>
  <speed>0.0</speed>
  <fix>3d</fix>
</trkpt>
<trkpt lat="40.0713749" lon="-105.229789">
  <ele>1583.0</ele>
  <time>2026-08-28T17:51:47Z</time>
  <course>248.22</course>
  <speed>0.0</speed>
  <fix>3d</fix>
</trkpt>
<trkpt lat="40.0713749" lon="-105.229789">
  <ele>1583.0</ele>
  <time>2026-08-28T17:51:47Z</time>
  <course>0.0</course>
  <speed>0.0</speed>
  <fix>3d</fix>
</trkpt>
<trkpt lat="40.0713749" lon="-105.229789">
  <ele>1583.0</ele>
  <time>2026-08-28T17:51:47Z</time>
  <course>248.23</course>
  <speed>0.0</speed>
  <fix>3d</fix>
</trkpt>
<trkpt lat="40.0713749" lon="-105.229789">
  <ele>1583.0</ele>
  <time>2026-08-28T17:51:47Z</time>
  <course>0.0</course>
  <speed>0.0</speed>
  <fix>3d</fix>
</trkpt>
<trkpt lat="40.0713749" lon="-105.229789">
  <ele>1583.0</ele>
  <time>2026-08-28T17:51:47Z</time>
  <course>248.25</course>
  <speed>0.0</speed>
  <fix>3d</fix>
</trkpt>
<trkpt lat="40.0713749" lon="-105.229789">
  <ele>1583.0</ele>
  <time>2026-08-28T17:51:47Z</time>
  <course>0.0</course>
  <speed>0.0</speed>
  <fix>3d</fix>
</trkpt>
<trkpt lat="40.0713749" lon="-105.229789">
  <ele>1583.0</ele>
  <time>2026-08-28T17:51:47Z</time>
  <course>248.26</course>
  <speed>0.0</speed>
  <fix>3d</fix>
</trkpt>
<trkpt lat="40.0713749" lon="-105.229789">
  <ele>1583.0</ele>
  <time>2026-08-28T17:51:47Z</time>
  <course>0.0</course>
  <speed>0.0</speed>
  <fix>3d</fix>
</trkpt>
<trkpt lat="40.0713749" lon="-105.229789">
  <ele>1583.0</ele>
  <time>2026-08-28T17:51:47Z</time>
  <course>248.28</course>
  <speed>0.0</speed>
  <fix>3d</fix>
</trkpt>
<trkpt lat="40.0713749" lon="-105.229789">
  <ele>1583.0</ele>
  <time>2026-08-28T17:51:47Z</time>
  <course>0.0</course>
  <speed>0.0</speed>
  <fix>3d</fix>
</trkpt>
<trkpt lat="40.0713749" lon="-105.229789">
  <ele>1583.0</ele>
  <time>2026-08-28T17:51:47Z</time>
  <course>248.29</course>
  <speed>0.0</speed>
  <fix>3d</fix>
</trkpt>
<trkpt lat="40.0713749" lon="-105.229789">
  <ele>1583.0</ele>
  <time>2026-08-28T17:51:47Z</time>
  <course>0.0</course>
  <speed>0.0</speed>
  <fix>3d</fix>
</trkpt>
<trkpt lat="40.0713749" lon="-105.229789">
  <ele>1583.0</ele>
  <time>2026-08-28T17:51:47Z</time>
  <course>248.3</course>
  <speed>0.0</speed>
  <fix>3d</fix>
</trkpt>
<trkpt lat="40.0713749" lon="-105.229789">
  <ele>1583.0</ele>
  <time>2026-08-28T17:51:47Z</time>
  <course>0.0</course>
  <speed>0.0</speed>
  <fix>3d</fix>
</trkpt>
<trkpt lat="40.0713749" lon="-105.229789">
  <ele>1583.0</ele>
  <time>2026-08-28T17:51:47Z</time>
  <course>248.31</course>
  <speed>0.0</speed>
  <fix>3d</fix>
</trkpt>
<trkpt lat="40.0713749" lon="-105.229789">
  <ele>1583.0</ele>
  <time>2026-08-28T17:51:47Z</time>
  <course>0.0</course>
  <speed>0.0</speed>
  <fix>3d</fix>
</trkpt>
<trkpt lat="40.0713749" lon="-105.229789">
  <ele>1583.0</ele>
  <time>2026-08-28T17:51:47Z</time>
  <course>248.32</course>
  <speed>0.0</speed>
  <fix>3d</fix>
</trkpt>
<trkpt lat="40.0713749" lon="-105.229789">
  <ele>1583.0</ele>
  <time>2026-08-28T17:51:47Z</time>
  <course>0.0</course>
  <speed>0.0</speed>
  <fix>3d</fix>
</trkpt>
<trkpt lat="40.0713749" lon="-105.229789">
  <ele>1583.0</ele>
  <time>2026-08-28T17:51:47Z</time>
  <course>248.33</course>
  <speed>0.0</speed>
  <fix>3d</fix>
</trkpt>
<trkpt lat="40.0713749" lon="-105.229789">
  <ele>1583.0</ele>
  <time>2026-08-28T17:51:47Z</time>
  <course>0.0</course>
  <speed>0.0</speed>
  <fix>3d</fix>
</trkpt>
<trkpt lat="40.0713749" lon="-105.229789">
  <ele>1583.0</ele>
  <time>2026-08-28T17:51:47Z</time>
  <course>248.34</course>
  <speed>0.0</speed>
  <fix>3d</fix>
</trkpt>
<trkpt lat="40.0713749" lon="-105.229789">
  <ele>1583.0</ele>
  <time>2026-08-28T17:51:47Z</time>
  <course>0.0</course>
  <speed>0.0</speed>
  <fix>3d</fix>
</trkpt>
<trkpt lat="40.0713749" lon="-105.229789">
  <ele>1583.0</ele>
  <time>2026-08-28T17:51:47Z</time>
  <course>248.35</course>
  <speed>0.0</speed>
  <fix>3d</fix>
</trkpt>
<trkpt lat="40.0713749" lon="-105.229789">
  <ele>1583.0</ele>
  <time>2026-08-28T17:51:47Z</time>
  <course>0.0</course>
  <speed>0.0</speed>
  <fix>3d</fix>
</trkpt>
<trkpt lat="40.0713749" lon="-105.229789">
  <ele>1583.0</ele>
  <time>2026-08-28T17:51:47Z</time>
  <course>248.35</course>
  <speed>0.0</speed>
  <fix>3d</fix>
</trkpt>
<trkpt lat="40.0713749" lon="-105.229789">
  <ele>1583.0</ele>
  <time>2026-08-28T17:51:47Z</time>
  <course>0.0</course>
  <speed>0.0</speed>
  <fix>3d</fix>
</trkpt>
<trkpt lat="40.0713749" lon="-105.229789">
  <ele>1583.0</ele>
  <time>2026-08-28T17:51:47Z</time>
  <course>248.36</course>
  <speed>0.0</speed>
  <fix>3d</fix>
</trkpt>
<trkpt lat="40.0713749" lon="-105.229789">
  <ele>1583.0</ele>
  <time>2026-08-28T17:51:47Z</time>
  <course>0.0</course>
  <speed>0.0</speed>
  <fix>3d</fix>
</trkpt>
<trkpt lat="40.0713749" lon="-105.229789">
  <ele>1583.0</ele>
  <time>2026-08-28T17:51:47Z</time>
  <course>248.37</course>
  <speed>0.0</speed>
  <fix>3d</fix>
</trkpt>
<trkpt lat="40.0713749" lon="-105.229789">
  <ele>1583.0</ele>
  <time>2026-08-28T17:51:47Z</time>
  <course>0.0</course>
  <speed>0.0</speed>
  <fix>3d</fix>
</trkpt>
<trkpt lat="40.0713749" lon="-105.229789">
  <ele>1583.0</ele>
  <time>2026-08-28T17:51:47Z</time>
  <course>248.37</course>
  <speed>0.0</speed>
  <fix>3d</fix>
</trkpt>
<trkpt lat="40.0713749" lon="-105.229789">
  <ele>1583.0</ele>
  <time>2026-08-28T17:51:47Z</time>
  <course>0.0</course>
  <speed>0.0</speed>
  <fix>3d</fix>
</trkpt>
<trkpt lat="40.0713749" lon="-105.229789">
  <ele>1583.0</ele>
  <time>2026-08-28T17:51:47Z</time>
  <course>248.38</course>
  <speed>0.0</speed>
  <fix>3d</fix>
</trkpt>
<trkpt lat="40.0713749" lon="-105.229789">
  <ele>1583.0</ele>
  <time>2026-08-28T17:51:47Z</time>
  <course>0.0</course>
  <speed>0.0</speed>
  <fix>3d</fix>
</trkpt>
<trkpt lat="40.0713749" lon="-105.229789">
  <ele>1583.0</ele>
  <time>2026-08-28T17:51:47Z</time>
  <course>248.38</course>
  <speed>0.0</speed>
  <fix>3d</fix>
</trkpt>
<trkpt lat="40.0713749" lon="-105.229789">
  <ele>1583.0</ele>
  <time>2026-08-28T17:51:47Z</time>
  <course>0.0</course>
  <speed>0.0</speed>
  <fix>3d</fix>
</trkpt>
<trkpt lat="40.0713749" lon="-105.229789">
  <ele>1583.0</ele>
  <time>2026-08-28T17:51:47Z</time>
  <course>248.39</course>
  <speed>0.0</speed>
  <fix>3d</fix>
</trkpt>
<trkpt lat="40.0713749" lon="-105.229789">
  <ele>1583.0</ele>
  <time>2026-08-28T17:51:47Z</time>
  <course>0.0</course>
  <speed>0.0</speed>
  <fix>3d</fix>
</trkpt>
<trkpt lat="40.0713749" lon="-105.229789">
  <ele>1583.0</ele>
  <time>2026-08-28T17:51:47Z</time>
  <course>248.39</course>
  <speed>0.0</speed>
  <fix>3d</fix>
</trkpt>
<trkpt lat="40.0713749" lon="-105.229789">
  <ele>1583.0</ele>
  <time>2026-08-28T17:51:47Z</time>
  <course>0.0</course>
  <speed>0.0</speed>
  <fix>3d</fix>
</trkpt>
<trkpt lat="40.0713749" lon="-105.229789">
  <ele>1583.0</ele>
  <time>2026-08-28T17:51:47Z</time>
  <course>248.4</course>
  <speed>0.0</speed>
  <fix>3d</fix>
</trkpt>
<trkpt lat="40.0713749" lon="-105.229789">
  <ele>1583.0</ele>
  <time>2026-08-28T17:51:47Z</time>
  <course>0.0</course>
  <speed>0.0</speed>
  <fix>3d</fix>
</trkpt>
<trkpt lat="40.0713749" lon="-105.229789">
  <ele>1583.0</ele>
  <time>2026-08-28T17:51:47Z</time>
  <course>248.4</course>
  <speed>0.0</speed>
  <fix>3d</fix>
</trkpt>
<trkpt lat="40.0713749" lon="-105.229789">
  <ele>1583.0</ele>
  <time>2026-08-28T17:51:47Z</time>
  <course>0.0</course>
  <speed>0.0</speed>
  <fix>3d</fix>
</trkpt>
<trkpt lat="40.0713749" lon="-105.229789">
  <ele>1583.0</ele>
  <time>2026-08-28T17:51:47Z</time>
  <course>248.4</course>
  <speed>0.0</speed>
  <fix>3d</fix>
</trkpt>
<trkpt lat="40.0713749" lon="-105.229789">
  <ele>1583.0</ele>
  <time>2026-08-28T17:51:47Z</time>
  <course>0.0</course>
  <speed>0.0</speed>
  <fix>3d</fix>
</trkpt>
<trkpt lat="40.0713749" lon="-105.229789">
  <ele>1583.0</ele>
  <time>2026-08-28T17:51:47Z</time>
  <course>248.4</course>
  <speed>0.0</speed>
  <fix>3d</fix>
</trkpt>
<trkpt lat="40.0713749" lon="-105.229789">
  <ele>1583.0</ele>
  <time>2026-08-28T17:51:47Z</time>
  <course>0.0</course>
  <speed>0.0</speed>
  <fix>3d</fix>
</trkpt>
<trkpt lat="40.0713749" lon="-105.229789">
  <ele>1583.0</ele>
  <time>2026-08-28T17:51:47Z</time>
  <course>248.41</course>
  <speed>0.0</speed>
  <fix>3d</fix>
</trkpt>
<trkpt lat="40.0713749" lon="-105.229789">
  <ele>1583.0</ele>
  <time>2026-08-28T17:51:47Z</time>
  <course>0.0</course>
  <speed>0.0</speed>
  <fix>3d</fix>
</trkpt>
<trkpt lat="40.0713749" lon="-105.229789">
  <ele>1583.0</ele>
  <time>2026-08-28T17:51:47Z</time>
  <course>248.41</course>
  <speed>0.0</speed>
  <fix>3d</fix>
</trkpt>
<trkpt lat="40.0713749" lon="-105.229789">
  <ele>1583.0</ele>
  <time>2026-08-28T17:51:47Z</time>
  <course>0.0</course>
  <speed>0.0</speed>
  <fix>3d</fix>
</trkpt>
<trkpt lat="40.0713749" lon="-105.229789">
  <ele>1583.0</ele>
  <time>2026-08-28T17:51:47Z</time>
  <course>248.41</course>
  <speed>0.0</speed>
  <fix>3d</fix>
</trkpt>
<trkpt lat="40.0713749" lon="-105.229789">
  <ele>1583.0</ele>
  <time>2026-08-28T17:51:47Z</time>
  <course>0.0</course>
  <speed>0.0</speed>
  <fix>3d</fix>
</trkpt>
<trkpt lat="40.0713749" lon="-105.229789">
  <ele>1583.0</ele>
  <time>2026-08-28T17:51:47Z</time>
  <course>248.41</course>
  <speed>0.0</speed>
  <fix>3d</fix>
</trkpt>
<trkpt lat="40.0713749" lon="-105.229789">
  <ele>1583.0</ele>
  <time>2026-08-28T17:51:47Z</time>
  <course>0.0</course>
  <speed>0.0</speed>
  <fix>3d</fix>
</trkpt>
<trkpt lat="40.0713749" lon="-105.229789">
  <ele>1583.0</ele>
  <time>2026-08-28T17:51:47Z</time>
  <course>248.41</course>
  <speed>0.0</speed>
  <fix>3d</fix>
</trkpt>
<trkpt lat="40.0713749" lon="-105.229789">
  <ele>1583.0</ele>
  <time>2026-08-28T17:51:47Z</time>
  <course>0.0</course>
  <speed>0.0</speed>
  <fix>3d</fix>
</trkpt>
<trkpt lat="40.0713749" lon="-105.229789">
  <ele>1583.0</ele>
  <time>2026-08-28T17:51:47Z</time>
  <course>248.41</course>
  <speed>0.0</speed>
  <fix>3d</fix>
</trkpt>
<trkpt lat="40.0713749" lon="-105.229789">
  <ele>1583.0</ele>
  <time>2026-08-28T17:51:47Z</time>
  <course>0.0</course>
  <speed>0.0</speed>
  <fix>3d</fix>
</trkpt>
<trkpt lat="40.0713749" lon="-105.229789">
  <ele>1583.0</ele>
  <time>2026-08-28T17:51:47Z</time>
  <course>248.41</course>
  <speed>0.0</speed>
  <fix>3d</fix>
</trkpt>
<trkpt lat="40.0713749" lon="-105.229789">
  <ele>1583.0</ele>
  <time>2026-08-28T17:51:47Z</time>
  <course>0.0</course>
  <speed>0.0</speed>
  <fix>3d</fix>
</trkpt>
<trkpt lat="40.0713749" lon="-105.229789">
  <ele>1583.0</ele>
  <time>2026-08-28T17:51:47Z</time>
  <course>248.41</course>
  <speed>0.0</speed>
  <fix>3d</fix>
</trkpt>
<trkpt lat="40.0713749" lon="-105.229789">
  <ele>1583.0</ele>
  <time>2026-08-28T17:51:47Z</time>
  <course>0.0</course>
  <speed>0.0</speed>
  <fix>3d</fix>
</trkpt>
<trkpt lat="40.0713749" lon="-105.229789">
  <ele>1583.0</ele>
  <time>2026-08-28T17:51:47Z</time>
  <course>248.41</course>
  <speed>0.0</speed>
  <fix>3d</fix>
</trkpt>
<trkpt lat="40.0713749" lon="-105.229789">
  <ele>1583.0</ele>
  <time>2026-08-28T17:51:47Z</time>
  <course>0.0</course>
  <speed>0.0</speed>
  <fix>3d</fix>
</trkpt>
<trkpt lat="40.0713749" lon="-105.229789">
  <ele>1583.0</ele>
  <time>2026-08-28T17:51:47Z</time>
  <course>248.41</course>
  <speed>0.0</speed>
  <fix>3d</fix>
</trkpt>
<trkpt lat="40.0713749" lon="-105.229789">
  <ele>1583.0</ele>
  <time>2026-08-28T17:51:47Z</time>
  <course>0.0</course>
  <speed>0.0</speed>
  <fix>3d</fix>
</trkpt>
<trkpt lat="40.0713749" lon="-105.229789">
  <ele>1583.0</ele>
  <time>2026-08-28T17:51:47Z</time>
  <course>248.41</course>
  <speed>0.0</speed>
  <fix>3d</fix>
</trkpt>
<trkpt lat="40.0713749" lon="-105.229789">
  <ele>1583.0</ele>
  <time>2026-08-28T17:51:47Z</time>
  <course>0.0</course>
  <speed>0.0</speed>
  <fix>3d</fix>
</trkpt>
<trkpt lat="40.0713749" lon="-105.229789">
  <ele>1583.0</ele>
  <time>2026-08-28T17:51:47Z</time>
  <course>248.41</course>
  <speed>0.0</speed>
  <fix>3d</fix>
</trkpt>
<trkpt lat="40.0713749" lon="-105.229789">
  <ele>1583.0</ele>
  <time>2026-08-28T17:51:47Z</time>
  <course>0.0</course>
  <speed>0.0</speed>
  <fix>3d</fix>
</trkpt>
<trkpt lat="40.0713749" lon="-105.229789">
  <ele>1583.0</ele>
  <time>2026-08-28T17:51:47Z</time>
  <course>248.41</course>
  <speed>0.0</speed>
  <fix>3d</fix>
</trkpt>
<trkpt lat="40.0713749" lon="-105.229789">
  <ele>1583.0</ele>
  <time>2026-08-28T17:51:47Z</time>
  <course>0.0</course>
  <speed>0.0</speed>
  <fix>3d</fix>
</trkpt>
<trkpt lat="40.0713749" lon="-105.229789">
  <ele>1583.0</ele>
  <time>2026-08-28T17:51:47Z</time>
  <course>248.41</course>
  <speed>0.0</speed>
  <fix>3d</fix>
</trkpt>
<trkpt lat="40.0713749" lon="-105.229789">
  <ele>1583.0</ele>
  <time>2026-08-28T17:51:47Z</time>
  <course>0.0</course>
  <speed>0.0</speed>
  <fix>3d</fix>
</trkpt>
<trkpt lat="40.0713749" lon="-105.229789">
  <ele>1583.0</ele>
  <time>2026-08-28T17:51:47Z</time>
  <course>248.41</course>
  <speed>0.0</speed>
  <fix>3d</fix>
</trkpt>
<trkpt lat="40.0713749" lon="-105.229789">
  <ele>1583.0</ele>
  <time>2026-08-28T17:51:47Z</time>
  <course>0.0</course>
  <speed>0.0</speed>
  <fix>3d</fix>
</trkpt>
<trkpt lat="40.0713749" lon="-105.229789">
  <ele>1583.0</ele>
  <time>2026-08-28T17:51:47Z</time>
  <course>248.41</course>
  <speed>0.0</speed>
  <fix>3d</fix>
</trkpt>
<trkpt lat="40.0713749" lon="-105.229789">
  <ele>1583.0</ele>
  <time>2026-08-28T17:51:47Z</time>
  <course>0.0</course>
  <speed>0.0</speed>
  <fix>3d</fix>
</trkpt>
<trkpt lat="40.0713749" lon="-105.229789">
  <ele>1583.0</ele>
  <time>2026-08-28T17:51:47Z</time>
  <course>248.4</course>
  <speed>0.0</speed>
  <fix>3d</fix>
</trkpt>
<trkpt lat="40.0713749" lon="-105.229789">
  <ele>1583.0</ele>
  <time>2026-08-28T17:51:47Z</time>
  <course>0.0</course>
  <speed>0.0</speed>
  <fix>3d</fix>
</trkpt>
<trkpt lat="40.0713749" lon="-105.229789">
  <ele>1583.0</ele>
  <time>2026-08-28T17:51:47Z</time>
  <course>248.4</course>
  <speed>0.01</speed>
  <fix>3d</fix>
</trkpt>
<trkpt lat="40.0713749" lon="-105.229789">
  <ele>1583.0</ele>
  <time>2026-08-28T17:51:47Z</time>
  <course>0.0</course>
  <speed>0.0</speed>
  <fix>3d</fix>
</trkpt>
<trkpt lat="40.0713749" lon="-105.229789">
  <ele>1583.0</ele>
  <time>2026-08-28T17:51:47Z</time>
  <course>248.4</course>
  <speed>0.01</speed>
  <fix>3d</fix>
</trkpt>
<trkpt lat="40.0713749" lon="-105.229789">
  <ele>1583.0</ele>
  <time>2026-08-28T17:51:47Z</time>
  <course>0.0</course>
  <speed>0.0</speed>
  <fix>3d</fix>
</trkpt>
<trkpt lat="40.0713749" lon="-105.229789">
  <ele>1583.0</ele>
  <time>2026-08-28T17:51:47Z</time>
  <course>248.4</course>
  <speed>0.01</speed>
  <fix>3d</fix>
</trkpt>
<trkpt lat="40.0713749" lon="-105.229789">
  <ele>1583.0</ele>
  <time>2026-08-28T17:51:47Z</time>
  <course>0.0</course>
  <speed>0.0</speed>
  <fix>3d</fix>
</trkpt>
<trkpt lat="40.0713749" lon="-105.229789">
  <ele>1583.0</ele>
  <time>2026-08-28T17:51:47Z</time>
  <course>248.4</course>
  <speed>0.01</speed>
  <fix>3d</fix>
</trkpt>
<trkpt lat="40.0713749" lon="-105.229789">
  <ele>1583.0</ele>
  <time>2026-08-28T17:51:47Z</time>
  <course>0.0</course>
  <speed>0.0</speed>
  <fix>3d</fix>
</trkpt>
<trkpt lat="40.0713749" lon="-105.229789">
  <ele>1583.0</ele>
  <time>2026-08-28T17:51:47Z</time>
  <course>248.39</course>
  <speed>0.01</speed>
  <fix>3d</fix>
</trkpt>
<trkpt lat="40.0713749" lon="-105.229789">
  <ele>1583.0</ele>
  <time>2026-08-28T17:51:47Z</time>
  <course>0.0</course>
  <speed>0.0</speed>
  <fix>3d</fix>
</trkpt>
<trkpt lat="40.0713749" lon="-105.229789">
  <ele>1583.0</ele>
  <time>2026-08-28T17:51:47Z</time>
  <course>248.39</course>
  <speed>0.01</speed>
  <fix>3d</fix>
</trkpt>
<trkpt lat="40.0713749" lon="-105.229789">
  <ele>1583.0</ele>
  <time>2026-08-28T17:51:47Z</time>
  <course>0.0</course>
  <speed>0.0</speed>
  <fix>3d</fix>
</trkpt>
<trkpt lat="40.0713749" lon="-105.229789">
  <ele>1583.0</ele>
  <time>2026-08-28T17:51:47Z</time>
  <course>248.39</course>
  <speed>0.01</speed>
  <fix>3d</fix>
</trkpt>
<trkpt lat="40.0713749" lon="-105.229789">
  <ele>1583.0</ele>
  <time>2026-08-28T17:51:47Z</time>
  <course>0.0</course>
  <speed>0.0</speed>
  <fix>3d</fix>
</trkpt>
<trkpt lat="40.0713749" lon="-105.229789">
  <ele>1583.0</ele>
  <time>2026-08-28T17:51:47Z</time>
  <course>248.38</course>
  <speed>0.01</speed>
  <fix>3d</fix>
</trkpt>
<trkpt lat="40.0713749" lon="-105.229789">
  <ele>1583.0</ele>
  <time>2026-08-28T17:51:47Z</time>
  <course>0.0</course>
  <speed>0.0</speed>
  <fix>3d</fix>
</trkpt>
<trkpt lat="40.0713749" lon="-105.229789">
  <ele>1583.0</ele>
  <time>2026-08-28T17:51:47Z</time>
  <course>248.38</course>
  <speed>0.01</speed>
  <fix>3d</fix>
</trkpt>
<trkpt lat="40.0713749" lon="-105.229789">
  <ele>1583.0</ele>
  <time>2026-08-28T17:51:47Z</time>
  <course>0.0</course>
  <speed>0.0</speed>
  <fix>3d</fix>
</trkpt>
<trkpt lat="40.0713749" lon="-105.229789">
  <ele>1583.0</ele>
  <time>2026-08-28T17:51:47Z</time>
  <course>248.38</course>
  <speed>0.01</speed>
  <fix>3d</fix>
</trkpt>
<trkpt lat="40.0713749" lon="-105.229789">
  <ele>1583.0</ele>
  <time>2026-08-28T17:51:47Z</time>
  <course>0.0</course>
  <speed>0.0</speed>
  <fix>3d</fix>
</trkpt>
<trkpt lat="40.0713749" lon="-105.229789">
  <ele>1583.0</ele>
  <time>2026-08-28T17:51:47Z</time>
  <course>248.37</course>
  <speed>0.01</speed>
  <fix>3d</fix>
</trkpt>
<trkpt lat="40.0713749" lon="-105.229789">
  <ele>1583.0</ele>
  <time>2026-08-28T17:51:47Z</time>
  <course>0.0</course>
  <speed>0.0</speed>
  <fix>3d</fix>
</trkpt>
<trkpt lat="40.0713749" lon="-105.229789">
  <ele>1583.0</ele>
  <time>2026-08-28T17:51:47Z</time>
  <course>248.37</course>
  <speed>0.01</speed>
  <fix>3d</fix>
</trkpt>
<trkpt lat="40.0713749" lon="-105.229789">
  <ele>1583.0</ele>
  <time>2026-08-28T17:51:47Z</time>
  <course>0.0</course>
  <speed>0.0</speed>
  <fix>3d</fix>
</trkpt>
<trkpt lat="40.0713749" lon="-105.229789">
  <ele>1583.0</ele>
  <time>2026-08-28T17:51:47Z</time>
  <course>248.37</course>
  <speed>0.01</speed>
  <fix>3d</fix>
</trkpt>
<trkpt lat="40.0713749" lon="-105.229789">
  <ele>1583.0</ele>
  <time>2026-08-28T17:51:47Z</time>
  <course>0.0</course>
  <speed>0.0</speed>
  <fix>3d</fix>
</trkpt>
<trkpt lat="40.0713749" lon="-105.229789">
  <ele>1583.0</ele>
  <time>2026-08-28T17:51:47Z</time>
  <course>248.36</course>
  <speed>0.01</speed>
  <fix>3d</fix>
</trkpt>
<trkpt lat="40.0713749" lon="-105.229789">
  <ele>1583.0</ele>
  <time>2026-08-28T17:51:47Z</time>
  <course>0.0</course>
  <speed>0.0</speed>
  <fix>3d</fix>
</trkpt>
<trkpt lat="40.0713749" lon="-105.229789">
  <ele>1583.0</ele>
  <time>2026-08-28T17:51:47Z</time>
  <course>248.36</course>
  <speed>0.01</speed>
  <fix>3d</fix>
</trkpt>
<trkpt lat="40.0713749" lon="-105.229789">
  <ele>1583.0</ele>
  <time>2026-08-28T17:51:47Z</time>
  <course>0.0</course>
  <speed>0.0</speed>
  <fix>3d</fix>
</trkpt>
<trkpt lat="40.0713749" lon="-105.229789">
  <ele>1583.0</ele>
  <time>2026-08-28T17:51:47Z</time>
  <course>248.36</course>
  <speed>0.01</speed>
  <fix>3d</fix>
</trkpt>
<trkpt lat="40.0713749" lon="-105.229789">
  <ele>1583.0</ele>
  <time>2026-08-28T17:51:47Z</time>
  <course>0.0</course>
  <speed>0.0</speed>
  <fix>3d</fix>
</trkpt>
<trkpt lat="40.0713749" lon="-105.229789">
  <ele>1583.0</ele>
  <time>2026-08-28T17:51:47Z</time>
  <course>248.35</course>
  <speed>0.01</speed>
  <fix>3d</fix>
</trkpt>
<trkpt lat="40.0713749" lon="-105.229789">
  <ele>1583.0</ele>
  <time>2026-08-28T17:51:47Z</time>
  <course>0.0</course>
  <speed>0.0</speed>
  <fix>3d</fix>
</trkpt>
<trkpt lat="40.0713749" lon="-105.229789">
  <ele>1583.0</ele>
  <time>2026-08-28T17:51:47Z</time>
  <course>248.35</course>
  <speed>0.01</speed>
  <fix>3d</fix>
</trkpt>
<trkpt lat="40.0713749" lon="-105.229789">
  <ele>1583.0</ele>
  <time>2026-08-28T17:51:47Z</time>
  <course>0.0</course>
  <speed>0.0</speed>
  <fix>3d</fix>
</trkpt>
<trkpt lat="40.0713749" lon="-105.229789">
  <ele>1583.0</ele>
  <time>2026-08-28T17:51:47Z</time>
  <course>248.35</course>
  <speed>0.01</speed>
  <fix>3d</fix>
</trkpt>
<trkpt lat="40.0713749" lon="-105.229789">
  <ele>1583.0</ele>
  <time>2026-08-28T17:51:47Z</time>
  <course>0.0</course>
  <speed>0.0</speed>
  <fix>3d</fix>
</trkpt>
<trkpt lat="40.0713749" lon="-105.229789">
  <ele>1583.0</ele>
  <time>2026-08-28T17:51:47Z</time>
  <course>248.34</course>
  <speed>0.01</speed>
  <fix>3d</fix>
</trkpt>
<trkpt lat="40.0713749" lon="-105.229789">
  <ele>1583.0</ele>
  <time>2026-08-28T17:51:47Z</time>
  <course>0.0</course>
  <speed>0.0</speed>
  <fix>3d</fix>
</trkpt>
<trkpt lat="40.0713749" lon="-105.229789">
  <ele>1583.0</ele>
  <time>2026-08-28T17:51:47Z</time>
  <course>248.34</course>
  <speed>0.01</speed>
  <fix>3d</fix>
</trkpt>
<trkpt lat="40.0713749" lon="-105.229789">
  <ele>1583.0</ele>
  <time>2026-08-28T17:51:47Z</time>
  <course>0.0</course>
  <speed>0.0</speed>
  <fix>3d</fix>
</trkpt>
<trkpt lat="40.0713749" lon="-105.229789">
  <ele>1583.0</ele>
  <time>2026-08-28T17:51:47Z</time>
  <course>248.33</course>
  <speed>0.01</speed>
  <fix>3d</fix>
</trkpt>
<trkpt lat="40.0713749" lon="-105.229789">
  <ele>1583.0</ele>
  <time>2026-08-28T17:51:47Z</time>
  <course>0.0</course>
  <speed>0.0</speed>
  <fix>3d</fix>
</trkpt>
<trkpt lat="40.0713749" lon="-105.229789">
  <ele>1583.0</ele>
  <time>2026-08-28T17:51:47Z</time>
  <course>248.33</course>
  <speed>0.01</speed>
  <fix>3d</fix>
</trkpt>
<trkpt lat="40.0713749" lon="-105.229789">
  <ele>1583.0</ele>
  <time>2026-08-28T17:51:47Z</time>
  <course>0.0</course>
  <speed>0.0</speed>
  <fix>3d</fix>
</trkpt>
<trkpt lat="40.0713749" lon="-105.229789">
  <ele>1583.0</ele>
  <time>2026-08-28T17:51:47Z</time>
  <course>248.32</course>
  <speed>0.01</speed>
  <fix>3d</fix>
</trkpt>
<trkpt lat="40.0713749" lon="-105.229789">
  <ele>1583.0</ele>
  <time>2026-08-28T17:51:47Z</time>
  <course>0.0</course>
  <speed>0.0</speed>
  <fix>3d</fix>
</trkpt>
<trkpt lat="40.0713749" lon="-105.229789">
  <ele>1583.0</ele>
  <time>2026-08-28T17:51:47Z</time>
  <course>248.32</course>
  <speed>0.01</speed>
  <fix>3d</fix>
</trkpt>
<trkpt lat="40.0713749" lon="-105.229789">
  <ele>1583.0</ele>
  <time>2026-08-28T17:51:47Z</time>
  <course>0.0</course>
  <speed>0.0</speed>
  <fix>3d</fix>
</trkpt>
<trkpt lat="40.0713749" lon="-105.229789">
  <ele>1583.0</ele>
  <time>2026-08-28T17:51:47Z</time>
  <course>248.32</course>
  <speed>0.01</speed>
  <fix>3d</fix>
</trkpt>
<trkpt lat="40.0713749" lon="-105.229789">
  <ele>1583.0</ele>
  <time>2026-08-28T17:51:47Z</time>
  <course>0.0</course>
  <speed>0.0</speed>
  <fix>3d</fix>
</trkpt>
<trkpt lat="40.0713749" lon="-105.229789">
  <ele>1583.0</ele>
  <time>2026-08-28T17:51:47Z</time>
  <course>248.31</course>
  <speed>0.01</speed>
  <fix>3d</fix>
</trkpt>
<trkpt lat="40.0713749" lon="-105.229789">
  <ele>1583.0</ele>
  <time>2026-08-28T17:51:47Z</time>
  <course>0.0</course>
  <speed>0.0</speed>
  <fix>3d</fix>
</trkpt>
<trkpt lat="40.0713749" lon="-105.229789">
  <ele>1583.0</ele>
  <time>2026-08-28T17:51:47Z</time>
  <course>248.31</course>
  <speed>0.01</speed>
  <fix>3d</fix>
</trkpt>
<trkpt lat="40.0713749" lon="-105.229789">
  <ele>1583.0</ele>
  <time>2026-08-28T17:51:47Z</time>
  <course>0.0</course>
  <speed>0.0</speed>
  <fix>3d</fix>
</trkpt>
<trkpt lat="40.0713749" lon="-105.229789">
  <ele>1583.0</ele>
  <time>2026-08-28T17:51:47Z</time>
  <course>248.3</course>
  <speed>0.01</speed>
  <fix>3d</fix>
</trkpt>
<trkpt lat="40.0713749" lon="-105.229789">
  <ele>1583.0</ele>
  <time>2026-08-28T17:51:47Z</time>
  <course>0.0</course>
  <speed>0.0</speed>
  <fix>3d</fix>
</trkpt>
<trkpt lat="40.0713749" lon="-105.229789">
  <ele>1583.0</ele>
  <time>2026-08-28T17:51:47Z</time>
  <course>248.3</course>
  <speed>0.01</speed>
  <fix>3d</fix>
</trkpt>
<trkpt lat="40.0713749" lon="-105.229789">
  <ele>1583.0</ele>
  <time>2026-08-28T17:51:47Z</time>
  <course>0.0</course>
  <speed>0.0</speed>
  <fix>3d</fix>
</trkpt>
<trkpt lat="40.0713749" lon="-105.229789">
  <ele>1583.0</ele>
  <time>2026-08-28T17:51:47Z</time>
  <course>248.29</course>
  <speed>0.01</speed>
  <fix>3d</fix>
</trkpt>
<trkpt lat="40.0713749" lon="-105.229789">
  <ele>1583.0</ele>
  <time>2026-08-28T17:51:47Z</time>
  <course>0.0</course>
  <speed>0.0</speed>
  <fix>3d</fix>
</trkpt>
<trkpt lat="40.0713749" lon="-105.229789">
  <ele>1583.0</ele>
  <time>2026-08-28T17:51:47Z</time>
  <course>248.29</course>
  <speed>0.01</speed>
  <fix>3d</fix>
</trkpt>
<trkpt lat="40.0713749" lon="-105.229789">
  <ele>1583.0</ele>
  <time>2026-08-28T17:51:47Z</time>
  <course>0.0</course>
  <speed>0.0</speed>
  <fix>3d</fix>
</trkpt>
<trkpt lat="40.0713749" lon="-105.229789">
  <ele>1583.0</ele>
  <time>2026-08-28T17:51:47Z</time>
  <course>248.28</course>
  <speed>0.01</speed>
  <fix>3d</fix>
</trkpt>
<trkpt lat="40.0713749" lon="-105.229789">
  <ele>1583.0</ele>
  <time>2026-08-28T17:51:47Z</time>
  <course>0.0</course>
  <speed>0.0</speed>
  <fix>3d</fix>
</trkpt>
<trkpt lat="40.0713749" lon="-105.229789">
  <ele>1583.0</ele>
  <time>2026-08-28T17:51:47Z</time>
  <course>248.28</course>
  <speed>0.01</speed>
  <fix>3d</fix>
</trkpt>
<trkpt lat="40.0713749" lon="-105.229789">
  <ele>1583.0</ele>
  <time>2026-08-28T17:51:47Z</time>
  <course>0.0</course>
  <speed>0.0</speed>
  <fix>3d</fix>
</trkpt>
<trkpt lat="40.0713749" lon="-105.229789">
  <ele>1583.0</ele>
  <time>2026-08-28T17:51:47Z</time>
  <course>248.27</course>
  <speed>0.01</speed>
  <fix>3d</fix>
</trkpt>
<trkpt lat="40.0713749" lon="-105.229789">
  <ele>1583.0</ele>
  <time>2026-08-28T17:51:47Z</time>
  <course>0.0</course>
  <speed>0.0</speed>
  <fix>3d</fix>
</trkpt>
<trkpt lat="40.0713749" lon="-105.229789">
  <ele>1583.0</ele>
  <time>2026-08-28T17:51:47Z</time>
  <course>248.27</course>
  <speed>0.01</speed>
  <fix>3d</fix>
</trkpt>
<trkpt lat="40.0713749" lon="-105.229789">
  <ele>1583.0</ele>
  <time>2026-08-28T17:51:47Z</time>
  <course>0.0</course>
  <speed>0.0</speed>
  <fix>3d</fix>
</trkpt>
<trkpt lat="40.0713749" lon="-105.229789">
  <ele>1583.0</ele>
  <time>2026-08-28T17:51:47Z</time>
  <course>248.26</course>
  <speed>0.01</speed>
  <fix>3d</fix>
</trkpt>
<trkpt lat="40.0713749" lon="-105.229789">
  <ele>1583.0</ele>
  <time>2026-08-28T17:51:47Z</time>
  <course>0.0</course>
  <speed>0.0</speed>
  <fix>3d</fix>
</trkpt>
<trkpt lat="40.0713749" lon="-105.229789">
  <ele>1583.0</ele>
  <time>2026-08-28T17:51:47Z</time>
  <course>248.26</course>
  <speed>0.01</speed>
  <fix>3d</fix>
</trkpt>
<trkpt lat="40.0713749" lon="-105.229789">
  <ele>1583.0</ele>
  <time>2026-08-28T17:51:47Z</time>
  <course>0.0</course>
  <speed>0.0</speed>
  <fix>3d</fix>
</trkpt>
<trkpt lat="40.0713749" lon="-105.229789">
  <ele>1583.0</ele>
  <time>2026-08-28T17:51:47Z</time>
  <course>248.26</course>
  <speed>0.01</speed>
  <fix>3d</fix>
</trkpt>
<trkpt lat="40.0713749" lon="-105.229789">
  <ele>1583.0</ele>
  <time>2026-08-28T17:51:47Z</time>
  <course>0.0</course>
  <speed>0.0</speed>
  <fix>3d</fix>
</trkpt>
<trkpt lat="40.0713749" lon="-105.229789">
  <ele>1583.0</ele>
  <time>2026-08-28T17:51:47Z</time>
  <course>248.25</course>
  <speed>0.01</speed>
  <fix>3d</fix>
</trkpt>
<trkpt lat="40.0713749" lon="-105.229789">
  <ele>1583.0</ele>
  <time>2026-08-28T17:51:47Z</time>
  <course>0.0</course>
  <speed>0.0</speed>
  <fix>3d</fix>
</trkpt>
<trkpt lat="40.0713749" lon="-105.229789">
  <ele>1583.0</ele>
  <time>2026-08-28T17:51:47Z</time>
  <course>248.25</course>
  <speed>0.01</speed>
  <fix>3d</fix>
</trkpt>
<trkpt lat="40.0713749" lon="-105.229789">
  <ele>1583.0</ele>
  <time>2026-08-28T17:51:47Z</time>
  <course>0.0</course>
  <speed>0.0</speed>
  <fix>3d</fix>
</trkpt>
<trkpt lat="40.0713749" lon="-105.229789">
  <ele>1583.0</ele>
  <time>2026-08-28T17:51:47Z</time>
  <course>248.24</course>
  <speed>0.01</speed>
  <fix>3d</fix>
</trkpt>
<trkpt lat="40.0713749" lon="-105.229789">
  <ele>1583.0</ele>
  <time>2026-08-28T17:51:47Z</time>
  <course>0.0</course>
  <speed>0.0</speed>
  <fix>3d</fix>
</trkpt>
<trkpt lat="40.0713749" lon="-105.229789">
  <ele>1583.0</ele>
  <time>2026-08-28T17:51:47Z</time>
  <course>248.24</course>
  <speed>0.01</speed>
  <fix>3d</fix>
</trkpt>
<trkpt lat="40.0713749" lon="-105.229789">
  <ele>1583.0</ele>
  <time>2026-08-28T17:51:47Z</time>
  <course>0.0</course>
  <speed>0.0</speed>
  <fix>3d</fix>
</trkpt>
<trkpt lat="40.0713749" lon="-105.229789">
  <ele>1583.0</ele>
  <time>2026-08-28T17:51:47Z</time>
  <course>248.23</course>
  <speed>0.01</speed>
  <fix>3d</fix>
</trkpt>
<trkpt lat="40.0713749" lon="-105.229789">
  <ele>1583.0</ele>
  <time>2026-08-28T17:51:47Z</time>
  <course>0.0</course>
  <speed>0.0</speed>
  <fix>3d</fix>
</trkpt>
<trkpt lat="40.0713749" lon="-105.229789">
  <ele>1583.0</ele>
  <time>2026-08-28T17:51:47Z</time>
  <course>248.23</course>
  <speed>0.01</speed>
  <fix>3d</fix>
</trkpt>
<trkpt lat="40.0713749" lon="-105.229789">
  <ele>1583.0</ele>
  <time>2026-08-28T17:51:47Z</time>
  <course>0.0</course>
  <speed>0.0</speed>
  <fix>3d</fix>
</trkpt>
<trkpt lat="40.0713749" lon="-105.229789">
  <ele>1583.0</ele>
  <time>2026-08-28T17:51:47Z</time>
  <course>248.22</course>
  <speed>0.01</speed>
  <fix>3d</fix>
</trkpt>
<trkpt lat="40.0713749" lon="-105.229789">
  <ele>1583.0</ele>
  <time>2026-08-28T17:51:47Z</time>
  <course>0.0</course>
  <speed>0.0</speed>
  <fix>3d</fix>
</trkpt>
<trkpt lat="40.0713749" lon="-105.229789">
  <ele>1583.0</ele>
  <time>2026-08-28T17:51:47Z</time>
  <course>248.22</course>
  <speed>0.01</speed>
  <fix>3d</fix>
</trkpt>
<trkpt lat="40.0713749" lon="-105.229789">
  <ele>1583.0</ele>
  <time>2026-08-28T17:51:47Z</time>
  <course>0.0</course>
  <speed>0.0</speed>
  <fix>3d</fix>
</trkpt>
<trkpt lat="40.0713749" lon="-105.229789">
  <ele>1583.0</ele>
  <time>2026-08-28T17:51:47Z</time>
  <course>248.21</course>
  <speed>0.01</speed>
  <fix>3d</fix>
</trkpt>
<trkpt lat="40.0713749" lon="-105.229789">
  <ele>1583.0</ele>
  <time>2026-08-28T17:51:47Z</time>
  <course>0.0</course>
  <speed>0.0</speed>
  <fix>3d</fix>
</trkpt>
<trkpt lat="40.0713749" lon="-105.229789">
  <ele>1583.0</ele>
  <time>2026-08-28T17:51:47Z</time>
  <course>248.21</course>
  <speed>0.01</speed>
  <fix>3d</fix>
</trkpt>
<trkpt lat="40.0713749" lon="-105.229789">
  <ele>1583.0</ele>
  <time>2026-08-28T17:51:47Z</time>
  <course>0.0</course>
  <speed>0.0</speed>
  <fix>3d</fix>
</trkpt>
<trkpt lat="40.0713749" lon="-105.229789">
  <ele>1583.0</ele>
  <time>2026-08-28T17:51:47Z</time>
  <course>248.2</course>
  <speed>0.01</speed>
  <fix>3d</fix>
</trkpt>
<trkpt lat="40.0713749" lon="-105.229789">
  <ele>1583.0</ele>
  <time>2026-08-28T17:51:47Z</time>
  <course>0.0</course>
  <speed>0.0</speed>
  <fix>3d</fix>
</trkpt>
<trkpt lat="40.0713749" lon="-105.229789">
  <ele>1583.0</ele>
  <time>2026-08-28T17:51:47Z</time>
  <course>248.2</course>
  <speed>0.01</speed>
  <fix>3d</fix>
</trkpt>
<trkpt lat="40.0713749" lon="-105.229789">
  <ele>1583.0</ele>
  <time>2026-08-28T17:51:47Z</time>
  <course>0.0</course>
  <speed>0.0</speed>
  <fix>3d</fix>
</trkpt>
<trkpt lat="40.0713749" lon="-105.229789">
  <ele>1583.0</ele>
  <time>2026-08-28T17:51:47Z</time>
  <course>248.19</course>
  <speed>0.01</speed>
  <fix>3d</fix>
</trkpt>
<trkpt lat="40.0713749" lon="-105.229789">
  <ele>1583.0</ele>
  <time>2026-08-28T17:51:47Z</time>
  <course>0.0</course>
  <speed>0.0</speed>
  <fix>3d</fix>
</trkpt>
<trkpt lat="40.0713749" lon="-105.229789">
  <ele>1583.0</ele>
  <time>2026-08-28T17:51:47Z</time>
  <course>248.19</course>
  <speed>0.01</speed>
  <fix>3d</fix>
</trkpt>
<trkpt lat="40.0713749" lon="-105.229789">
  <ele>1583.0</ele>
  <time>2026-08-28T17:51:47Z</time>
  <course>0.0</course>
  <speed>0.0</speed>
  <fix>3d</fix>
</trkpt>
<trkpt lat="40.0713749" lon="-105.229789">
  <ele>1583.0</ele>
  <time>2026-08-28T17:51:47Z</time>
  <course>248.18</course>
  <speed>0.01</speed>
  <fix>3d</fix>
</trkpt>
<trkpt lat="40.0713749" lon="-105.229789">
  <ele>1583.0</ele>
  <time>2026-08-28T17:51:47Z</time>
  <course>0.0</course>
  <speed>0.0</speed>
  <fix>3d</fix>
</trkpt>
<trkpt lat="40.0713749" lon="-105.229789">
  <ele>1583.0</ele>
  <time>2026-08-28T17:51:47Z</time>
  <course>248.18</course>
  <speed>0.01</speed>
  <fix>3d</fix>
</trkpt>
<trkpt lat="40.0713749" lon="-105.229789">
  <ele>1583.0</ele>
  <time>2026-08-28T17:51:47Z</time>
  <course>0.0</course>
  <speed>0.0</speed>
  <fix>3d</fix>
</trkpt>
<trkpt lat="40.0713749" lon="-105.229789">
  <ele>1583.0</ele>
  <time>2026-08-28T17:51:47Z</time>
  <course>248.17</course>
  <speed>0.022360679774997897</speed>
  <fix>3d</fix>
</trkpt>
<trkpt lat="40.0713749" lon="-105.229789">
  <ele>1583.0</ele>
  <time>2026-08-28T17:51:47Z</time>
  <course>0.0</course>
  <speed>0.0</speed>
  <fix>3d</fix>
</trkpt>
<trkpt lat="40.0713749" lon="-105.229789">
  <ele>1583.0</ele>
  <time>2026-08-28T17:51:47Z</time>
  <course>248.17</course>
  <speed>0.022360679774997897</speed>
  <fix>3d</fix>
</trkpt>
<trkpt lat="40.0713749" lon="-105.229789">
  <ele>1583.0</ele>
  <time>2026-08-28T17:51:47Z</time>
  <course>0.0</course>
  <speed>0.0</speed>
  <fix>3d</fix>
</trkpt>
<trkpt lat="40.0713749" lon="-105.229789">
  <ele>1583.0</ele>
  <time>2026-08-28T17:51:47Z</time>
  <course>248.16</course>
  <speed>0.022360679774997897</speed>
  <fix>3d</fix>
</trkpt>
<trkpt lat="40.0713749" lon="-105.229789">
  <ele>1583.0</ele>
  <time>2026-08-28T17:51:47Z</time>
  <course>0.0</course>
  <speed>0.0</speed>
  <fix>3d</fix>
</trkpt>
<trkpt lat="40.0713749" lon="-105.229789">
  <ele>1583.0</ele>
  <time>2026-08-28T17:51:47Z</time>
  <course>248.16</course>
  <speed>0.022360679774997897</speed>
  <fix>3d</fix>
</trkpt>
<trkpt lat="40.0713749" lon="-105.229789">
  <ele>1583.0</ele>
  <time>2026-08-28T17:51:47Z</time>
  <course>0.0</course>
  <speed>0.0</speed>
  <fix>3d</fix>
</trkpt>
<trkpt lat="40.0713749" lon="-105.229789">
  <ele>1583.0</ele>
  <time>2026-08-28T17:51:47Z</time>
  <course>248.15</course>
  <speed>0.022360679774997897</speed>
  <fix>3d</fix>
</trkpt>
<trkpt lat="40.0713749" lon="-105.229789">
  <ele>1583.0</ele>
  <time>2026-08-28T17:51:47Z</time>
  <course>0.0</course>
  <speed>0.0</speed>
  <fix>3d</fix>
</trkpt>
<trkpt lat="40.0713749" lon="-105.229789">
  <ele>1583.0</ele>
  <time>2026-08-28T17:51:47Z</time>
  <course>248.15</course>
  <speed>0.022360679774997897</speed>
  <fix>3d</fix>
</trkpt>
<trkpt lat="40.0713749" lon="-105.229789">
  <ele>1583.0</ele>
  <time>2026-08-28T17:51:47Z</time>
  <course>0.0</course>
  <speed>0.0</speed>
  <fix>3d</fix>
</trkpt>
<trkpt lat="40.0713749" lon="-105.229789">
  <ele>1583.0</ele>
  <time>2026-08-28T17:51:47Z</time>
  <course>248.14</course>
  <speed>0.022360679774997897</speed>
  <fix>3d</fix>
</trkpt>
<trkpt lat="40.0713749" lon="-105.229789">
  <ele>1583.0</ele>
  <time>2026-08-28T17:51:47Z</time>
  <course>0.0</course>
  <speed>0.0</speed>
  <fix>3d</fix>
</trkpt>
<trkpt lat="40.0713749" lon="-105.229789">
  <ele>1583.0</ele>
  <time>2026-08-28T17:51:47Z</time>
  <course>248.14</course>
  <speed>0.022360679774997897</speed>
  <fix>3d</fix>
</trkpt>
<trkpt lat="40.0713749" lon="-105.229789">
  <ele>1583.0</ele>
  <time>2026-08-28T17:51:47Z</time>
  <course>0.0</course>
  <speed>0.0</speed>
  <fix>3d</fix>
</trkpt>
<trkpt lat="40.0713749" lon="-105.229789">
  <ele>1583.0</ele>
  <time>2026-08-28T17:51:47Z</time>
  <course>248.13</course>
  <speed>0.022360679774997897</speed>
  <fix>3d</fix>
</trkpt>
<trkpt lat="40.0713749" lon="-105.229789">
  <ele>1583.0</ele>
  <time>2026-08-28T17:51:47Z</time>
  <course>0.0</course>
  <speed>0.0</speed>
  <fix>3d</fix>
</trkpt>
<trkpt lat="40.0713749" lon="-105.229789">
  <ele>1583.0</ele>
  <time>2026-08-28T17:51:47Z</time>
  <course>248.13</course>
  <speed>0.022360679774997897</speed>
  <fix>3d</fix>
</trkpt>
<trkpt lat="40.0713749" lon="-105.229789">
  <ele>1583.0</ele>
  <time>2026-08-28T17:51:47Z</time>
  <course>0.0</course>
  <speed>0.0</speed>
  <fix>3d</fix>
</trkpt>
<trkpt lat="40.0713749" lon="-105.229789">
  <ele>1583.0</ele>
  <time>2026-08-28T17:51:47Z</time>
  <course>248.12</course>
  <speed>0.022360679774997897</speed>
  <fix>3d</fix>
</trkpt>
<trkpt lat="40.0713749" lon="-105.229789">
  <ele>1583.0</ele>
  <time>2026-08-28T17:51:47Z</time>
  <course>0.0</course>
  <speed>0.0</speed>
  <fix>3d</fix>
</trkpt>
<trkpt lat="40.0713749" lon="-105.229789">
  <ele>1583.0</ele>
  <time>2026-08-28T17:51:47Z</time>
  <course>248.12</course>
  <speed>0.022360679774997897</speed>
  <fix>3d</fix>
</trkpt>
<trkpt lat="40.0713749" lon="-105.229789">
  <ele>1583.0</ele>
  <time>2026-08-28T17:51:47Z</time>
  <course>0.0</course>
  <speed>0.0</speed>
  <fix>3d</fix>
</trkpt>
<trkpt lat="40.0713749" lon="-105.229789">
  <ele>1583.0</ele>
  <time>2026-08-28T17:51:47Z</time>
  <course>248.11</course>
  <speed>0.022360679774997897</speed>
  <fix>3d</fix>
</trkpt>
<trkpt lat="40.0713749" lon="-105.229789">
  <ele>1583.0</ele>
  <time>2026-08-28T17:51:47Z</time>
  <course>0.0</course>
  <speed>0.0</speed>
  <fix>3d</fix>
</trkpt>
<trkpt lat="40.0713749" lon="-105.229789">
  <ele>1583.0</ele>
  <time>2026-08-28T17:51:47Z</time>
  <course>248.11</course>
  <speed>0.022360679774997897</speed>
  <fix>3d</fix>
</trkpt>
<trkpt lat="40.0713749" lon="-105.229789">
  <ele>1583.0</ele>
  <time>2026-08-28T17:51:47Z</time>
  <course>0.0</course>
  <speed>0.0</speed>
  <fix>3d</fix>
</trkpt>
<trkpt lat="40.0713749" lon="-105.229789">
  <ele>1583.0</ele>
  <time>2026-08-28T17:51:47Z</time>
  <course>248.1</course>
  <speed>0.022360679774997897</speed>
  <fix>3d</fix>
</trkpt>
<trkpt lat="40.0713749" lon="-105.229789">
  <ele>1583.0</ele>
  <time>2026-08-28T17:51:47Z</time>
  <course>0.0</course>
  <speed>0.0</speed>
  <fix>3d</fix>
</trkpt>
<trkpt lat="40.0713749" lon="-105.229789">
  <ele>1583.0</ele>
  <time>2026-08-28T17:51:47Z</time>
  <course>248.1</course>
  <speed>0.022360679774997897</speed>
  <fix>3d</fix>
</trkpt>
<trkpt lat="40.0713749" lon="-105.229789">
  <ele>1583.0</ele>
  <time>2026-08-28T17:51:47Z</time>
  <course>0.0</course>
  <speed>0.0</speed>
  <fix>3d</fix>
</trkpt>
<trkpt lat="40.0713749" lon="-105.229789">
  <ele>1583.0</ele>
  <time>2026-08-28T17:51:47Z</time>
  <course>248.09</course>
  <speed>0.022360679774997897</speed>
  <fix>3d</fix>
</trkpt>
<trkpt lat="40.0713749" lon="-105.229789">
  <ele>1583.0</ele>
  <time>2026-08-28T17:51:47Z</time>
  <course>0.0</course>
  <speed>0.0</speed>
  <fix>3d</fix>
</trkpt>
<trkpt lat="40.0713749" lon="-105.229789">
  <ele>1583.0</ele>
  <time>2026-08-28T17:51:47Z</time>
  <course>248.09</course>
  <speed>0.022360679774997897</speed>
  <fix>3d</fix>
</trkpt>
<trkpt lat="40.0713749" lon="-105.229789">
  <ele>1583.0</ele>
  <time>2026-08-28T17:51:47Z</time>
  <course>0.0</course>
  <speed>0.0</speed>
  <fix>3d</fix>
</trkpt>
<trkpt lat="40.0713749" lon="-105.229789">
  <ele>1583.0</ele>
  <time>2026-08-28T17:51:47Z</time>
  <course>248.08</course>
  <speed>0.022360679774997897</speed>
  <fix>3d</fix>
</trkpt>
<trkpt lat="40.0713749" lon="-105.229789">
  <ele>1583.0</ele>
  <time>2026-08-28T17:51:47Z</time>
  <course>0.0</course>
  <speed>0.0</speed>
  <fix>3d</fix>
</trkpt>
<trkpt lat="40.0713749" lon="-105.229789">
  <ele>1583.0</ele>
  <time>2026-08-28T17:51:47Z</time>
  <course>248.08</course>
  <speed>0.022360679774997897</speed>
  <fix>3d</fix>
</trkpt>
<trkpt lat="40.0713749" lon="-105.229789">
  <ele>1583.0</ele>
  <time>2026-08-28T17:51:47Z</time>
  <course>0.0</course>
  <speed>0.0</speed>
  <fix>3d</fix>
</trkpt>
<trkpt lat="40.0713749" lon="-105.229789">
  <ele>1583.0</ele>
  <time>2026-08-28T17:51:47Z</time>
  <course>248.07</course>
  <speed>0.022360679774997897</speed>
  <fix>3d</fix>
</trkpt>
<trkpt lat="40.0713749" lon="-105.229789">
  <ele>1583.0</ele>
  <time>2026-08-28T17:51:47Z</time>
  <course>0.0</course>
  <speed>0.0</speed>
  <fix>3d</fix>
</trkpt>
<trkpt lat="40.0713749" lon="-105.229789">
  <ele>1583.0</ele>
  <time>2026-08-28T17:51:47Z</time>
  <course>248.07</course>
  <speed>0.022360679774997897</speed>
  <fix>3d</fix>
</trkpt>
<trkpt lat="40.0713749" lon="-105.229789">
  <ele>1583.0</ele>
  <time>2026-08-28T17:51:47Z</time>
  <course>0.0</course>
  <speed>0.0</speed>
  <fix>3d</fix>
</trkpt>
<trkpt lat="40.0713749" lon="-105.229789">
  <ele>1583.0</ele>
  <time>2026-08-28T17:51:47Z</time>
  <course>248.06</course>
  <speed>0.022360679774997897</speed>
  <fix>3d</fix>
</trkpt>
<trkpt lat="40.0713749" lon="-105.229789">
  <ele>1583.0</ele>
  <time>2026-08-28T17:51:47Z</time>
  <course>0.0</course>
  <speed>0.0</speed>
  <fix>3d</fix>
</trkpt>
<trkpt lat="40.0713749" lon="-105.229789">
  <ele>1583.0</ele>
  <time>2026-08-28T17:51:47Z</time>
  <course>248.06</course>
  <speed>0.022360679774997897</speed>
  <fix>3d</fix>
</trkpt>
<trkpt lat="40.0713749" lon="-105.229789">
  <ele>1583.0</ele>
  <time>2026-08-28T17:51:47Z</time>
  <course>0.0</course>
  <speed>0.0</speed>
  <fix>3d</fix>
</trkpt>
<trkpt lat="40.0713749" lon="-105.229789">
  <ele>1583.0</ele>
  <time>2026-08-28T17:51:47Z</time>
  <course>248.05</course>
  <speed>0.022360679774997897</speed>
  <fix>3d</fix>
</trkpt>
<trkpt lat="40.0713749" lon="-105.229789">
  <ele>1583.0</ele>
  <time>2026-08-28T17:51:47Z</time>
  <course>0.0</course>
  <speed>0.0</speed>
  <fix>3d</fix>
</trkpt>
<trkpt lat="40.0713749" lon="-105.229789">
  <ele>1583.0</ele>
  <time>2026-08-28T17:51:47Z</time>
  <course>248.05</course>
  <speed>0.022360679774997897</speed>
  <fix>3d</fix>
</trkpt>
<trkpt lat="40.0713749" lon="-105.229789">
  <ele>1583.0</ele>
  <time>2026-08-28T17:51:47Z</time>
  <course>0.0</course>
  <speed>0.0</speed>
  <fix>3d</fix>
</trkpt>
<trkpt lat="40.0713749" lon="-105.229789">
  <ele>1583.0</ele>
  <time>2026-08-28T17:51:47Z</time>
  <course>248.05</course>
  <speed>0.022360679774997897</speed>
  <fix>3d</fix>
</trkpt>
<trkpt lat="40.0713749" lon="-105.229789">
  <ele>1583.0</ele>
  <time>2026-08-28T17:51:47Z</time>
  <course>0.0</course>
  <speed>0.0</speed>
  <fix>3d</fix>
</trkpt>
<trkpt lat="40.0713749" lon="-105.229789">
  <ele>1583.0</ele>
  <time>2026-08-28T17:51:47Z</time>
  <course>248.04</course>
  <speed>0.022360679774997897</speed>
  <fix>3d</fix>
</trkpt>
<trkpt lat="40.0713749" lon="-105.229789">
  <ele>1583.0</ele>
  <time>2026-08-28T17:51:47Z</time>
  <course>0.0</course>
  <speed>0.0</speed>
  <fix>3d</fix>
</trkpt>
<trkpt lat="40.0713749" lon="-105.229789">
  <ele>1583.0</ele>
  <time>2026-08-28T17:51:47Z</time>
  <course>248.04</course>
  <speed>0.022360679774997897</speed>
  <fix>3d</fix>
</trkpt>
<trkpt lat="40.0713749" lon="-105.229789">
  <ele>1583.0</ele>
  <time>2026-08-28T17:51:47Z</time>
  <course>0.0</course>
  <speed>0.0</speed>
  <fix>3d</fix>
</trkpt>
<trkpt lat="40.0713749" lon="-105.229789">
  <ele>1583.0</ele>
  <time>2026-08-28T17:51:47Z</time>
  <course>248.03</course>
  <speed>0.022360679774997897</speed>
  <fix>3d</fix>
</trkpt>
<trkpt lat="40.0713749" lon="-105.229789">
  <ele>1583.0</ele>
  <time>2026-08-28T17:51:47Z</time>
  <course>0.0</course>
  <speed>0.0</speed>
  <fix>3d</fix>
</trkpt>
<trkpt lat="40.0713749" lon="-105.229789">
  <ele>1583.0</ele>
  <time>2026-08-28T17:51:47Z</time>
  <course>248.03</course>
  <speed>0.022360679774997897</speed>
  <fix>3d</fix>
</trkpt>
<trkpt lat="40.0713749" lon="-105.229789">
  <ele>1583.0</ele>
  <time>2026-08-28T17:51:47Z</time>
  <course>0.0</course>
  <speed>0.0</speed>
  <fix>3d</fix>
</trkpt>
<trkpt lat="40.0713749" lon="-105.229789">
  <ele>1583.0</ele>
  <time>2026-08-28T17:51:47Z</time>
  <course>248.02</course>
  <speed>0.022360679774997897</speed>
  <fix>3d</fix>
</trkpt>
<trkpt lat="40.0713749" lon="-105.229789">
  <ele>1583.0</ele>
  <time>2026-08-28T17:51:47Z</time>
  <course>0.0</course>
  <speed>0.0</speed>
  <fix>3d</fix>
</trkpt>
<trkpt lat="40.0713749" lon="-105.229789">
  <ele>1583.0</ele>
  <time>2026-08-28T17:51:47Z</time>
  <course>248.02</course>
  <speed>0.022360679774997897</speed>
  <fix>3d</fix>
</trkpt>
<trkpt lat="40.0713749" lon="-105.229789">
  <ele>1583.0</ele>
  <time>2026-08-28T17:51:47Z</time>
  <course>0.0</course>
  <speed>0.0</speed>
  <fix>3d</fix>
</trkpt>
<trkpt lat="40.0713749" lon="-105.229789">
  <ele>1583.0</ele>
  <time>2026-08-28T17:51:47Z</time>
  <course>248.01</course>
  <speed>0.022360679774997897</speed>
  <fix>3d</fix>
</trkpt>
<trkpt lat="40.0713749" lon="-105.229789">
  <ele>1583.0</ele>
  <time>2026-08-28T17:51:47Z</time>
  <course>0.0</course>
  <speed>0.0</speed>
  <fix>3d</fix>
</trkpt>
<trkpt lat="40.0713749" lon="-105.229789">
  <ele>1583.0</ele>
  <time>2026-08-28T17:51:47Z</time>
  <course>248.01</course>
  <speed>0.022360679774997897</speed>
  <fix>3d</fix>
</trkpt>
<trkpt lat="40.0713749" lon="-105.229789">
  <ele>1583.0</ele>
  <time>2026-08-28T17:51:47Z</time>
  <course>0.0</course>
  <speed>0.0</speed>
  <fix>3d</fix>
</trkpt>
<trkpt lat="40.0713749" lon="-105.229789">
  <ele>1583.0</ele>
  <time>2026-08-28T17:51:47Z</time>
  <course>248.0</course>
  <speed>0.022360679774997897</speed>
  <fix>3d</fix>
</trkpt>
<trkpt lat="40.0713749" lon="-105.229789">
  <ele>1583.0</ele>
  <time>2026-08-28T17:51:47Z</time>
  <course>0.0</course>
  <speed>0.0</speed>
  <fix>3d</fix>
</trkpt>
<trkpt lat="40.0713749" lon="-105.229789">
  <ele>1583.0</ele>
  <time>2026-08-28T17:51:47Z</time>
  <course>248.0</course>
  <speed>0.022360679774997897</speed>
  <fix>3d</fix>
</trkpt>
<trkpt lat="40.0713749" lon="-105.229789">
  <ele>1583.0</ele>
  <time>2026-08-28T17:51:47Z</time>
  <course>0.0</course>
  <speed>0.0</speed>
  <fix>3d</fix>
</trkpt>
<trkpt lat="40.0713749" lon="-105.229789">
  <ele>1583.0</ele>
  <time>2026-08-28T17:51:47Z</time>
  <course>247.99</course>
  <speed>0.022360679774997897</speed>
  <fix>3d</fix>
</trkpt>
<trkpt lat="40.0713749" lon="-105.229789">
  <ele>1583.0</ele>
  <time>2026-08-28T17:51:47Z</time>
  <course>0.0</course>
  <speed>0.0</speed>
  <fix>3d</fix>
</trkpt>
<trkpt lat="40.0713749" lon="-105.229789">
  <ele>1583.0</ele>
  <time>2026-08-28T17:51:47Z</time>
  <course>247.99</course>
  <speed>0.022360679774997897</speed>
  <fix>3d</fix>
</trkpt>
<trkpt lat="40.0713749" lon="-105.229789">
  <ele>1583.0</ele>
  <time>2026-08-28T17:51:47Z</time>
  <course>0.0</course>
  <speed>0.0</speed>
  <fix>3d</fix>
</trkpt>
<trkpt lat="40.0713749" lon="-105.229789">
  <ele>1583.0</ele>
  <time>2026-08-28T17:51:47Z</time>
  <course>247.99</course>
  <speed>0.022360679774997897</speed>
  <fix>3d</fix>
</trkpt>
<trkpt lat="40.0713749" lon="-105.229789">
  <ele>1583.0</ele>
  <time>2026-08-28T17:51:47Z</time>
  <course>0.0</course>
  <speed>0.0</speed>
  <fix>3d</fix>
</trkpt>
<trkpt lat="40.0713749" lon="-105.229789">
  <ele>1583.0</ele>
  <time>2026-08-28T17:51:47Z</time>
  <course>247.98</course>
  <speed>0.022360679774997897</speed>
  <fix>3d</fix>
</trkpt>
<trkpt lat="40.0713749" lon="-105.229789">
  <ele>1583.0</ele>
  <time>2026-08-28T17:51:47Z</time>
  <course>0.0</course>
  <speed>0.0</speed>
  <fix>3d</fix>
</trkpt>
<trkpt lat="40.0713749" lon="-105.229789">
  <ele>1583.0</ele>
  <time>2026-08-28T17:51:47Z</time>
  <course>247.98</course>
  <speed>0.022360679774997897</speed>
  <fix>3d</fix>
</trkpt>
<trkpt lat="40.0713749" lon="-105.229789">
  <ele>1583.0</ele>
  <time>2026-08-28T17:51:47Z</time>
  <course>0.0</course>
  <speed>0.0</speed>
  <fix>3d</fix>
</trkpt>
<trkpt lat="40.0713749" lon="-105.229789">
  <ele>1583.0</ele>
  <time>2026-08-28T17:51:47Z</time>
  <course>247.97</course>
  <speed>0.022360679774997897</speed>
  <fix>3d</fix>
</trkpt>
<trkpt lat="40.0713749" lon="-105.229789">
  <ele>1583.0</ele>
  <time>2026-08-28T17:51:47Z</time>
  <course>0.0</course>
  <speed>0.0</speed>
  <fix>3d</fix>
</trkpt>
<trkpt lat="40.0713749" lon="-105.229789">
  <ele>1583.0</ele>
  <time>2026-08-28T17:51:47Z</time>
  <course>247.97</course>
  <speed>0.022360679774997897</speed>
  <fix>3d</fix>
</trkpt>
<trkpt lat="40.0713749" lon="-105.229789">
  <ele>1583.0</ele>
  <time>2026-08-28T17:51:47Z</time>
  <course>0.0</course>
  <speed>0.0</speed>
  <fix>3d</fix>
</trkpt>
<trkpt lat="40.0713749" lon="-105.229789">
  <ele>1583.0</ele>
  <time>2026-08-28T17:51:47Z</time>
  <course>247.96</course>
  <speed>0.022360679774997897</speed>
  <fix>3d</fix>
</trkpt>
<trkpt lat="40.0713749" lon="-105.229789">
  <ele>1583.0</ele>
  <time>2026-08-28T17:51:47Z</time>
  <course>0.0</course>
  <speed>0.0</speed>
  <fix>3d</fix>
</trkpt>
<trkpt lat="40.0713749" lon="-105.229789">
  <ele>1583.0</ele>
  <time>2026-08-28T17:51:47Z</time>
  <course>247.96</course>
  <speed>0.022360679774997897</speed>
  <fix>3d</fix>
</trkpt>
<trkpt lat="40.0713749" lon="-105.229789">
  <ele>1583.0</ele>
  <time>2026-08-28T17:51:47Z</time>
  <course>0.0</course>
  <speed>0.0</speed>
  <fix>3d</fix>
</trkpt>
<trkpt lat="40.0713749" lon="-105.229789">
  <ele>1583.0</ele>
  <time>2026-08-28T17:51:47Z</time>
  <course>247.95</course>
  <speed>0.022360679774997897</speed>
  <fix>3d</fix>
</trkpt>
<trkpt lat="40.0713749" lon="-105.229789">
  <ele>1583.0</ele>
  <time>2026-08-28T17:51:47Z</time>
  <course>0.0</course>
  <speed>0.0</speed>
  <fix>3d</fix>
</trkpt>
<trkpt lat="40.0713749" lon="-105.229789">
  <ele>1583.0</ele>
  <time>2026-08-28T17:51:47Z</time>
  <course>247.95</course>
  <speed>0.022360679774997897</speed>
  <fix>3d</fix>
</trkpt>
<trkpt lat="40.0713749" lon="-105.229789">
  <ele>1583.0</ele>
  <time>2026-08-28T17:51:47Z</time>
  <course>0.0</course>
  <speed>0.0</speed>
  <fix>3d</fix>
</trkpt>
<trkpt lat="40.0713749" lon="-105.229789">
  <ele>1583.0</ele>
  <time>2026-08-28T17:51:47Z</time>
  <course>247.95</course>
  <speed>0.022360679774997897</speed>
  <fix>3d</fix>
</trkpt>
<trkpt lat="40.0713749" lon="-105.229789">
  <ele>1583.0</ele>
  <time>2026-08-28T17:51:47Z</time>
  <course>0.0</course>
  <speed>0.0</speed>
  <fix>3d</fix>
</trkpt>
<trkpt lat="40.0713749" lon="-105.229789">
  <ele>1583.0</ele>
  <time>2026-08-28T17:51:47Z</time>
  <course>247.94</course>
  <speed>0.022360679774997897</speed>
  <fix>3d</fix>
</trkpt>
<trkpt lat="40.0713749" lon="-105.229789">
  <ele>1583.0</ele>
  <time>2026-08-28T17:51:47Z</time>
  <course>0.0</course>
  <speed>0.0</speed>
  <fix>3d</fix>
</trkpt>
<trkpt lat="40.0713749" lon="-105.229789">
  <ele>1583.0</ele>
  <time>2026-08-28T17:51:47Z</time>
  <course>247.94</course>
  <speed>0.022360679774997897</speed>
  <fix>3d</fix>
</trkpt>
<trkpt lat="40.0713749" lon="-105.229789">
  <ele>1583.0</ele>
  <time>2026-08-28T17:51:47Z</time>
  <course>0.0</course>
  <speed>0.0</speed>
  <fix>3d</fix>
</trkpt>
<trkpt lat="40.0713749" lon="-105.229789">
  <ele>1583.0</ele>
  <time>2026-08-28T17:51:47Z</time>
  <course>247.93</course>
  <speed>0.022360679774997897</speed>
  <fix>3d</fix>
</trkpt>
<trkpt lat="40.0713749" lon="-105.229789">
  <ele>1583.0</ele>
  <time>2026-08-28T17:51:47Z</time>
  <course>0.0</course>
  <speed>0.0</speed>
  <fix>3d</fix>
</trkpt>
<trkpt lat="40.0713749" lon="-105.229789">
  <ele>1583.0</ele>
  <time>2026-08-28T17:51:47Z</time>
  <course>247.93</course>
  <speed>0.022360679774997897</speed>
  <fix>3d</fix>
</trkpt>
<trkpt lat="40.0713749" lon="-105.229789">
  <ele>1583.0</ele>
  <time>2026-08-28T17:51:47Z</time>
  <course>0.0</course>
  <speed>0.0</speed>
  <fix>3d</fix>
</trkpt>
<trkpt lat="40.0713749" lon="-105.229789">
  <ele>1583.0</ele>
  <time>2026-08-28T17:51:47Z</time>
  <course>247.92</course>
  <speed>0.022360679774997897</speed>
  <fix>3d</fix>
</trkpt>
<trkpt lat="40.0713749" lon="-105.229789">
  <ele>1583.0</ele>
  <time>2026-08-28T17:51:47Z</time>
  <course>0.0</course>
  <speed>0.0</speed>
  <fix>3d</fix>
</trkpt>
<trkpt lat="40.0713749" lon="-105.229789">
  <ele>1583.0</ele>
  <time>2026-08-28T17:51:47Z</time>
  <course>247.92</course>
  <speed>0.022360679774997897</speed>
  <fix>3d</fix>
</trkpt>
<trkpt lat="40.0713749" lon="-105.229789">
  <ele>1583.0</ele>
  <time>2026-08-28T17:51:47Z</time>
  <course>0.0</course>
  <speed>0.0</speed>
  <fix>3d</fix>
</trkpt>
<trkpt lat="40.0713749" lon="-105.229789">
  <ele>1583.0</ele>
  <time>2026-08-28T17:51:47Z</time>
  <course>247.92</course>
  <speed>0.022360679774997897</speed>
  <fix>3d</fix>
</trkpt>
<trkpt lat="40.0713749" lon="-105.229789">
  <ele>1583.0</ele>
  <time>2026-08-28T17:51:47Z</time>
  <course>0.0</course>
  <speed>0.0</speed>
  <fix>3d</fix>
</trkpt>
<trkpt lat="40.0713749" lon="-105.229789">
  <ele>1583.0</ele>
  <time>2026-08-28T17:51:47Z</time>
  <course>247.91</course>
  <speed>0.022360679774997897</speed>
  <fix>3d</fix>
</trkpt>
<trkpt lat="40.0713749" lon="-105.229789">
  <ele>1583.0</ele>
  <time>2026-08-28T17:51:47Z</time>
  <course>0.0</course>
  <speed>0.0</speed>
  <fix>3d</fix>
</trkpt>
<trkpt lat="40.0713749" lon="-105.229789">
  <ele>1583.0</ele>
  <time>2026-08-28T17:51:47Z</time>
  <course>247.91</course>
  <speed>0.022360679774997897</speed>
  <fix>3d</fix>
</trkpt>
<trkpt lat="40.0713749" lon="-105.229789">
  <ele>1583.0</ele>
  <time>2026-08-28T17:51:47Z</time>
  <course>0.0</course>
  <speed>0.0</speed>
  <fix>3d</fix>
</trkpt>
<trkpt lat="40.0713749" lon="-105.229789">
  <ele>1583.0</ele>
  <time>2026-08-28T17:51:47Z</time>
  <course>247.9</course>
  <speed>0.022360679774997897</speed>
  <fix>3d</fix>
</trkpt>
<trkpt lat="40.0713749" lon="-105.229789">
  <ele>1583.0</ele>
  <time>2026-08-28T17:51:47Z</time>
  <course>0.0</course>
  <speed>0.0</speed>
  <fix>3d</fix>
</trkpt>
<trkpt lat="40.0713749" lon="-105.229789">
  <ele>1583.0</ele>
  <time>2026-08-28T17:51:47Z</time>
  <course>247.9</course>
  <speed>0.022360679774997897</speed>
  <fix>3d</fix>
</trkpt>
<trkpt lat="40.0713749" lon="-105.229789">
  <ele>1583.0</ele>
  <time>2026-08-28T17:51:47Z</time>
  <course>0.0</course>
  <speed>0.0</speed>
  <fix>3d</fix>
</trkpt>
<trkpt lat="40.0713749" lon="-105.229789">
  <ele>1583.0</ele>
  <time>2026-08-28T17:51:47Z</time>
  <course>247.89</course>
  <speed>0.022360679774997897</speed>
  <fix>3d</fix>
</trkpt>
<trkpt lat="40.0713749" lon="-105.229789">
  <ele>1583.0</ele>
  <time>2026-08-28T17:51:47Z</time>
  <course>0.0</course>
  <speed>0.0</speed>
  <fix>3d</fix>
</trkpt>
<trkpt lat="40.0713749" lon="-105.229789">
  <ele>1583.0</ele>
  <time>2026-08-28T17:51:47Z</time>
  <course>247.89</course>
  <speed>0.022360679774997897</speed>
  <fix>3d</fix>
</trkpt>
<trkpt lat="40.0713749" lon="-105.229789">
  <ele>1583.0</ele>
  <time>2026-08-28T17:51:47Z</time>
  <course>0.0</course>
  <speed>0.0</speed>
  <fix>3d</fix>
</trkpt>
<trkpt lat="40.0713749" lon="-105.229789">
  <ele>1583.0</ele>
  <time>2026-08-28T17:51:47Z</time>
  <course>247.89</course>
  <speed>0.022360679774997897</speed>
  <fix>3d</fix>
</trkpt>
<trkpt lat="40.0713749" lon="-105.229789">
  <ele>1583.0</ele>
  <time>2026-08-28T17:51:47Z</time>
  <course>0.0</course>
  <speed>0.0</speed>
  <fix>3d</fix>
</trkpt>
<trkpt lat="40.0713749" lon="-105.229789">
  <ele>1583.0</ele>
  <time>2026-08-28T17:51:47Z</time>
  <course>247.88</course>
  <speed>0.0316227766016838</speed>
  <fix>3d</fix>
</trkpt>
<trkpt lat="40.0713749" lon="-105.229789">
  <ele>1583.0</ele>
  <time>2026-08-28T17:51:47Z</time>
  <course>0.0</course>
  <speed>0.0</speed>
  <fix>3d</fix>
</trkpt>
<trkpt lat="40.0713749" lon="-105.229789">
  <ele>1583.0</ele>
  <time>2026-08-28T17:51:47Z</time>
  <course>247.88</course>
  <speed>0.0316227766016838</speed>
  <fix>3d</fix>
</trkpt>
<trkpt lat="40.0713749" lon="-105.229789">
  <ele>1583.0</ele>
  <time>2026-08-28T17:51:47Z</time>
  <course>0.0</course>
  <speed>0.0</speed>
  <fix>3d</fix>
</trkpt>
<trkpt lat="40.0713749" lon="-105.229789">
  <ele>1583.0</ele>
  <time>2026-08-28T17:51:47Z</time>
  <course>247.87</course>
  <speed>0.0316227766016838</speed>
  <fix>3d</fix>
</trkpt>
<trkpt lat="40.0713749" lon="-105.229789">
  <ele>1583.0</ele>
  <time>2026-08-28T17:51:47Z</time>
  <course>0.0</course>
  <speed>0.0</speed>
  <fix>3d</fix>
</trkpt>
<trkpt lat="40.0713749" lon="-105.229789">
  <ele>1583.0</ele>
  <time>2026-08-28T17:51:47Z</time>
  <course>247.87</course>
  <speed>0.0316227766016838</speed>
  <fix>3d</fix>
</trkpt>
<trkpt lat="40.0713749" lon="-105.229789">
  <ele>1583.0</ele>
  <time>2026-08-28T17:51:47Z</time>
  <course>0.0</course>
  <speed>0.0</speed>
  <fix>3d</fix>
</trkpt>
<trkpt lat="40.0713749" lon="-105.229789">
  <ele>1583.0</ele>
  <time>2026-08-28T17:51:47Z</time>
  <course>247.87</course>
  <speed>0.0316227766016838</speed>
  <fix>3d</fix>
</trkpt>
<trkpt lat="40.0713749" lon="-105.229789">
  <ele>1583.0</ele>
  <time>2026-08-28T17:51:47Z</time>
  <course>0.0</course>
  <speed>0.0</speed>
  <fix>3d</fix>
</trkpt>
<trkpt lat="40.0713749" lon="-105.229789">
  <ele>1583.0</ele>
  <time>2026-08-28T17:51:48Z</time>
  <course>247.86</course>
  <speed>0.0316227766016838</speed>
  <fix>3d</fix>
</trkpt>
<trkpt lat="40.0713749" lon="-105.229789">
  <ele>1583.0</ele>
  <time>2026-08-28T17:51:48Z</time>
  <course>0.0</course>
  <speed>0.0</speed>
  <fix>3d</fix>
</trkpt>
<trkpt lat="40.0713749" lon="-105.229789">
  <ele>1583.0</ele>
  <time>2026-08-28T17:51:48Z</time>
  <course>247.86</course>
  <speed>0.0316227766016838</speed>
  <fix>3d</fix>
</trkpt>
<trkpt lat="40.0713749" lon="-105.229789">
  <ele>1583.0</ele>
  <time>2026-08-28T17:51:48Z</time>
  <course>0.0</course>
  <speed>0.0</speed>
  <fix>3d</fix>
</trkpt>
<trkpt lat="40.0713749" lon="-105.229789">
  <ele>1583.0</ele>
  <time>2026-08-28T17:51:48Z</time>
  <course>247.85</course>
  <speed>0.0316227766016838</speed>
  <fix>3d</fix>
</trkpt>
<trkpt lat="40.0713749" lon="-105.229789">
  <ele>1583.0</ele>
  <time>2026-08-28T17:51:48Z</time>
  <course>0.0</course>
  <speed>0.0</speed>
  <fix>3d</fix>
</trkpt>
<trkpt lat="40.0713749" lon="-105.229789">
  <ele>1583.0</ele>
  <time>2026-08-28T17:51:48Z</time>
  <course>247.85</course>
  <speed>0.0316227766016838</speed>
  <fix>3d</fix>
</trkpt>
<trkpt lat="40.0713749" lon="-105.229789">
  <ele>1583.0</ele>
  <time>2026-08-28T17:51:48Z</time>
  <course>0.0</course>
  <speed>0.0</speed>
  <fix>3d</fix>
</trkpt>
<trkpt lat="40.0713749" lon="-105.229789">
  <ele>1583.0</ele>
  <time>2026-08-28T17:51:48Z</time>
  <course>247.85</course>
  <speed>0.0316227766016838</speed>
  <fix>3d</fix>
</trkpt>
<trkpt lat="40.0713749" lon="-105.229789">
  <ele>1583.0</ele>
  <time>2026-08-28T17:51:48Z</time>
  <course>0.0</course>
  <speed>0.0</speed>
  <fix>3d</fix>
</trkpt>
<trkpt lat="40.0713749" lon="-105.229789">
  <ele>1583.0</ele>
  <time>2026-08-28T17:51:48Z</time>
  <course>247.84</course>
  <speed>0.0316227766016838</speed>
  <fix>3d</fix>
</trkpt>
<trkpt lat="40.0713749" lon="-105.229789">
  <ele>1583.0</ele>
  <time>2026-08-28T17:51:48Z</time>
  <course>0.0</course>
  <speed>0.0</speed>
  <fix>3d</fix>
</trkpt>
<trkpt lat="40.0713749" lon="-105.229789">
  <ele>1583.0</ele>
  <time>2026-08-28T17:51:48Z</time>
  <course>247.84</course>
  <speed>0.0316227766016838</speed>
  <fix>3d</fix>
</trkpt>
<trkpt lat="40.0713749" lon="-105.229789">
  <ele>1583.0</ele>
  <time>2026-08-28T17:51:48Z</time>
  <course>0.0</course>
  <speed>0.0</speed>
  <fix>3d</fix>
</trkpt>
<trkpt lat="40.0713749" lon="-105.229789">
  <ele>1583.0</ele>
  <time>2026-08-28T17:51:48Z</time>
  <course>247.83</course>
  <speed>0.0316227766016838</speed>
  <fix>3d</fix>
</trkpt>
<trkpt lat="40.0713749" lon="-105.229789">
  <ele>1583.0</ele>
  <time>2026-08-28T17:51:48Z</time>
  <course>0.0</course>
  <speed>0.0</speed>
  <fix>3d</fix>
</trkpt>
<trkpt lat="40.0713749" lon="-105.229789">
  <ele>1583.0</ele>
  <time>2026-08-28T17:51:48Z</time>
  <course>247.83</course>
  <speed>0.0316227766016838</speed>
  <fix>3d</fix>
</trkpt>
<trkpt lat="40.0713749" lon="-105.229789">
  <ele>1583.0</ele>
  <time>2026-08-28T17:51:48Z</time>
  <course>0.0</course>
  <speed>0.0</speed>
  <fix>3d</fix>
</trkpt>
<trkpt lat="40.0713749" lon="-105.229789">
  <ele>1583.0</ele>
  <time>2026-08-28T17:51:48Z</time>
  <course>247.83</course>
  <speed>0.0316227766016838</speed>
  <fix>3d</fix>
</trkpt>
<trkpt lat="40.0713749" lon="-105.229789">
  <ele>1583.0</ele>
  <time>2026-08-28T17:51:48Z</time>
  <course>0.0</course>
  <speed>0.0</speed>
  <fix>3d</fix>
</trkpt>
<trkpt lat="40.0713749" lon="-105.229789">
  <ele>1583.0</ele>
  <time>2026-08-28T17:51:48Z</time>
  <course>247.82</course>
  <speed>0.0316227766016838</speed>
  <fix>3d</fix>
</trkpt>
<trkpt lat="40.0713749" lon="-105.229789">
  <ele>1583.0</ele>
  <time>2026-08-28T17:51:48Z</time>
  <course>0.0</course>
  <speed>0.0</speed>
  <fix>3d</fix>
</trkpt>
<trkpt lat="40.0713749" lon="-105.229789">
  <ele>1583.0</ele>
  <time>2026-08-28T17:51:48Z</time>
  <course>247.82</course>
  <speed>0.0316227766016838</speed>
  <fix>3d</fix>
</trkpt>
<trkpt lat="40.0713749" lon="-105.229789">
  <ele>1583.0</ele>
  <time>2026-08-28T17:51:48Z</time>
  <course>0.0</course>
  <speed>0.0</speed>
  <fix>3d</fix>
</trkpt>
<trkpt lat="40.0713749" lon="-105.229789">
  <ele>1583.0</ele>
  <time>2026-08-28T17:51:48Z</time>
  <course>247.82</course>
  <speed>0.0316227766016838</speed>
  <fix>3d</fix>
</trkpt>
<trkpt lat="40.0713749" lon="-105.229789">
  <ele>1583.0</ele>
  <time>2026-08-28T17:51:48Z</time>
  <course>0.0</course>
  <speed>0.0</speed>
  <fix>3d</fix>
</trkpt>
<trkpt lat="40.0713749" lon="-105.229789">
  <ele>1583.0</ele>
  <time>2026-08-28T17:51:48Z</time>
  <course>247.81</course>
  <speed>0.0316227766016838</speed>
  <fix>3d</fix>
</trkpt>
<trkpt lat="40.0713749" lon="-105.229789">
  <ele>1583.0</ele>
  <time>2026-08-28T17:51:48Z</time>
  <course>0.0</course>
  <speed>0.0</speed>
  <fix>3d</fix>
</trkpt>
<trkpt lat="40.0713749" lon="-105.229789">
  <ele>1583.0</ele>
  <time>2026-08-28T17:51:48Z</time>
  <course>247.81</course>
  <speed>0.0316227766016838</speed>
  <fix>3d</fix>
</trkpt>
<trkpt lat="40.0713749" lon="-105.229789">
  <ele>1583.0</ele>
  <time>2026-08-28T17:51:48Z</time>
  <course>0.0</course>
  <speed>0.0</speed>
  <fix>3d</fix>
</trkpt>
<trkpt lat="40.0713749" lon="-105.229789">
  <ele>1583.0</ele>
  <time>2026-08-28T17:51:48Z</time>
  <course>247.8</course>
  <speed>0.0316227766016838</speed>
  <fix>3d</fix>
</trkpt>
<trkpt lat="40.0713749" lon="-105.229789">
  <ele>1583.0</ele>
  <time>2026-08-28T17:51:48Z</time>
  <course>0.0</course>
  <speed>0.0</speed>
  <fix>3d</fix>
</trkpt>
<trkpt lat="40.0713749" lon="-105.229789">
  <ele>1583.0</ele>
  <time>2026-08-28T17:51:48Z</time>
  <course>247.8</course>
  <speed>0.0316227766016838</speed>
  <fix>3d</fix>
</trkpt>
<trkpt lat="40.0713749" lon="-105.229789">
  <ele>1583.0</ele>
  <time>2026-08-28T17:51:48Z</time>
  <course>0.0</course>
  <speed>0.0</speed>
  <fix>3d</fix>
</trkpt>
<trkpt lat="40.0713749" lon="-105.229789">
  <ele>1583.0</ele>
  <time>2026-08-28T17:51:48Z</time>
  <course>247.8</course>
  <speed>0.0316227766016838</speed>
  <fix>3d</fix>
</trkpt>
<trkpt lat="40.0713749" lon="-105.229789">
  <ele>1583.0</ele>
  <time>2026-08-28T17:51:48Z</time>
  <course>0.0</course>
  <speed>0.0</speed>
  <fix>3d</fix>
</trkpt>
<trkpt lat="40.0713749" lon="-105.229789">
  <ele>1583.0</ele>
  <time>2026-08-28T17:51:48Z</time>
  <course>247.79</course>
  <speed>0.0316227766016838</speed>
  <fix>3d</fix>
</trkpt>
<trkpt lat="40.0713749" lon="-105.229789">
  <ele>1583.0</ele>
  <time>2026-08-28T17:51:48Z</time>
  <course>0.0</course>
  <speed>0.0</speed>
  <fix>3d</fix>
</trkpt>
<trkpt lat="40.0713749" lon="-105.229789">
  <ele>1583.0</ele>
  <time>2026-08-28T17:51:48Z</time>
  <course>247.79</course>
  <speed>0.0316227766016838</speed>
  <fix>3d</fix>
</trkpt>
<trkpt lat="40.0713749" lon="-105.229789">
  <ele>1583.0</ele>
  <time>2026-08-28T17:51:48Z</time>
  <course>0.0</course>
  <speed>0.0</speed>
  <fix>3d</fix>
</trkpt>
<trkpt lat="40.0713749" lon="-105.229789">
  <ele>1583.0</ele>
  <time>2026-08-28T17:51:48Z</time>
  <course>247.79</course>
  <speed>0.0316227766016838</speed>
  <fix>3d</fix>
</trkpt>
<trkpt lat="40.0713749" lon="-105.229789">
  <ele>1583.0</ele>
  <time>2026-08-28T17:51:48Z</time>
  <course>0.0</course>
  <speed>0.0</speed>
  <fix>3d</fix>
</trkpt>
<trkpt lat="40.0713749" lon="-105.229789">
  <ele>1583.0</ele>
  <time>2026-08-28T17:51:48Z</time>
  <course>247.78</course>
  <speed>0.0316227766016838</speed>
  <fix>3d</fix>
</trkpt>
<trkpt lat="40.0713749" lon="-105.229789">
  <ele>1583.0</ele>
  <time>2026-08-28T17:51:48Z</time>
  <course>0.0</course>
  <speed>0.0</speed>
  <fix>3d</fix>
</trkpt>
<trkpt lat="40.0713749" lon="-105.229789">
  <ele>1583.0</ele>
  <time>2026-08-28T17:51:48Z</time>
  <course>247.78</course>
  <speed>0.0316227766016838</speed>
  <fix>3d</fix>
</trkpt>
<trkpt lat="40.0713749" lon="-105.229789">
  <ele>1583.0</ele>
  <time>2026-08-28T17:51:48Z</time>
  <course>0.0</course>
  <speed>0.0</speed>
  <fix>3d</fix>
</trkpt>
<trkpt lat="40.0713749" lon="-105.229789">
  <ele>1583.0</ele>
  <time>2026-08-28T17:51:48Z</time>
  <course>247.78</course>
  <speed>0.0316227766016838</speed>
  <fix>3d</fix>
</trkpt>
<trkpt lat="40.0713749" lon="-105.229789">
  <ele>1583.0</ele>
  <time>2026-08-28T17:51:48Z</time>
  <course>0.0</course>
  <speed>0.0</speed>
  <fix>3d</fix>
</trkpt>
<trkpt lat="40.0713749" lon="-105.229789">
  <ele>1583.0</ele>
  <time>2026-08-28T17:51:48Z</time>
  <course>247.77</course>
  <speed>0.0316227766016838</speed>
  <fix>3d</fix>
</trkpt>
<trkpt lat="40.0713749" lon="-105.229789">
  <ele>1583.0</ele>
  <time>2026-08-28T17:51:48Z</time>
  <course>0.0</course>
  <speed>0.0</speed>
  <fix>3d</fix>
</trkpt>
<trkpt lat="40.0713749" lon="-105.229789">
  <ele>1583.0</ele>
  <time>2026-08-28T17:51:48Z</time>
  <course>247.77</course>
  <speed>0.0316227766016838</speed>
  <fix>3d</fix>
</trkpt>
<trkpt lat="40.0713749" lon="-105.229789">
  <ele>1583.0</ele>
  <time>2026-08-28T17:51:48Z</time>
  <course>0.0</course>
  <speed>0.0</speed>
  <fix>3d</fix>
</trkpt>
<trkpt lat="40.0713749" lon="-105.229789">
  <ele>1583.0</ele>
  <time>2026-08-28T17:51:48Z</time>
  <course>247.76</course>
  <speed>0.0316227766016838</speed>
  <fix>3d</fix>
</trkpt>
<trkpt lat="40.0713749" lon="-105.229789">
  <ele>1583.0</ele>
  <time>2026-08-28T17:51:48Z</time>
  <course>0.0</course>
  <speed>0.0</speed>
  <fix>3d</fix>
</trkpt>
<trkpt lat="40.0713749" lon="-105.229789">
  <ele>1583.0</ele>
  <time>2026-08-28T17:51:48Z</time>
  <course>247.76</course>
  <speed>0.0316227766016838</speed>
  <fix>3d</fix>
</trkpt>
<trkpt lat="40.0713749" lon="-105.229789">
  <ele>1583.0</ele>
  <time>2026-08-28T17:51:48Z</time>
  <course>0.0</course>
  <speed>0.0</speed>
  <fix>3d</fix>
</trkpt>
<trkpt lat="40.0713749" lon="-105.229789">
  <ele>1583.0</ele>
  <time>2026-08-28T17:51:48Z</time>
  <course>247.76</course>
  <speed>0.0316227766016838</speed>
  <fix>3d</fix>
</trkpt>
<trkpt lat="40.0713749" lon="-105.229789">
  <ele>1583.0</ele>
  <time>2026-08-28T17:51:48Z</time>
  <course>0.0</course>
  <speed>0.0</speed>
  <fix>3d</fix>
</trkpt>
<trkpt lat="40.0713749" lon="-105.229789">
  <ele>1583.0</ele>
  <time>2026-08-28T17:51:48Z</time>
  <course>247.75</course>
  <speed>0.0316227766016838</speed>
  <fix>3d</fix>
</trkpt>
<trkpt lat="40.0713749" lon="-105.229789">
  <ele>1583.0</ele>
  <time>2026-08-28T17:51:48Z</time>
  <course>0.0</course>
  <speed>0.0</speed>
  <fix>3d</fix>
</trkpt>
<trkpt lat="40.0713749" lon="-105.229789">
  <ele>1583.0</ele>
  <time>2026-08-28T17:51:48Z</time>
  <course>247.75</course>
  <speed>0.0316227766016838</speed>
  <fix>3d</fix>
</trkpt>
<trkpt lat="40.0713749" lon="-105.229789">
  <ele>1583.0</ele>
  <time>2026-08-28T17:51:48Z</time>
  <course>0.0</course>
  <speed>0.0</speed>
  <fix>3d</fix>
</trkpt>
<trkpt lat="40.0713749" lon="-105.229789">
  <ele>1583.0</ele>
  <time>2026-08-28T17:51:48Z</time>
  <course>247.75</course>
  <speed>0.0316227766016838</speed>
  <fix>3d</fix>
</trkpt>
<trkpt lat="40.0713749" lon="-105.229789">
  <ele>1583.0</ele>
  <time>2026-08-28T17:51:48Z</time>
  <course>0.0</course>
  <speed>0.0</speed>
  <fix>3d</fix>
</trkpt>
<trkpt lat="40.0713749" lon="-105.229789">
  <ele>1583.0</ele>
  <time>2026-08-28T17:51:48Z</time>
  <course>247.74</course>
  <speed>0.0316227766016838</speed>
  <fix>3d</fix>
</trkpt>
<trkpt lat="40.0713749" lon="-105.229789">
  <ele>1583.0</ele>
  <time>2026-08-28T17:51:48Z</time>
  <course>0.0</course>
  <speed>0.0</speed>
  <fix>3d</fix>
</trkpt>
<trkpt lat="40.0713749" lon="-105.229789">
  <ele>1583.0</ele>
  <time>2026-08-28T17:51:48Z</time>
  <course>247.74</course>
  <speed>0.0316227766016838</speed>
  <fix>3d</fix>
</trkpt>
<trkpt lat="40.0713749" lon="-105.229789">
  <ele>1583.0</ele>
  <time>2026-08-28T17:51:48Z</time>
  <course>0.0</course>
  <speed>0.0</speed>
  <fix>3d</fix>
</trkpt>
<trkpt lat="40.0713749" lon="-105.229789">
  <ele>1583.0</ele>
  <time>2026-08-28T17:51:48Z</time>
  <course>247.74</course>
  <speed>0.0316227766016838</speed>
  <fix>3d</fix>
</trkpt>
<trkpt lat="40.0713749" lon="-105.229789">
  <ele>1583.0</ele>
  <time>2026-08-28T17:51:48Z</time>
  <course>0.0</course>
  <speed>0.0</speed>
  <fix>3d</fix>
</trkpt>
<trkpt lat="40.0713749" lon="-105.229789">
  <ele>1583.0</ele>
  <time>2026-08-28T17:51:48Z</time>
  <course>247.73</course>
  <speed>0.0316227766016838</speed>
  <fix>3d</fix>
</trkpt>
<trkpt lat="40.0713749" lon="-105.229789">
  <ele>1583.0</ele>
  <time>2026-08-28T17:51:48Z</time>
  <course>0.0</course>
  <speed>0.0</speed>
  <fix>3d</fix>
</trkpt>
<trkpt lat="40.0713749" lon="-105.229789">
  <ele>1583.0</ele>
  <time>2026-08-28T17:51:48Z</time>
  <course>247.73</course>
  <speed>0.0316227766016838</speed>
  <fix>3d</fix>
</trkpt>
<trkpt lat="40.0713749" lon="-105.229789">
  <ele>1583.0</ele>
  <time>2026-08-28T17:51:48Z</time>
  <course>0.0</course>
  <speed>0.0</speed>
  <fix>3d</fix>
</trkpt>
<trkpt lat="40.0713749" lon="-105.229789">
  <ele>1583.0</ele>
  <time>2026-08-28T17:51:48Z</time>
  <course>247.73</course>
  <speed>0.0316227766016838</speed>
  <fix>3d</fix>
</trkpt>
<trkpt lat="40.0713749" lon="-105.229789">
  <ele>1583.0</ele>
  <time>2026-08-28T17:51:48Z</time>
  <course>0.0</course>
  <speed>0.0</speed>
  <fix>3d</fix>
</trkpt>
<trkpt lat="40.0713749" lon="-105.229789">
  <ele>1583.0</ele>
  <time>2026-08-28T17:51:48Z</time>
  <course>247.72</course>
  <speed>0.0316227766016838</speed>
  <fix>3d</fix>
</trkpt>
<trkpt lat="40.0713749" lon="-105.229789">
  <ele>1583.0</ele>
  <time>2026-08-28T17:51:48Z</time>
  <course>0.0</course>
  <speed>0.0</speed>
  <fix>3d</fix>
</trkpt>
<trkpt lat="40.0713749" lon="-105.229789">
  <ele>1583.0</ele>
  <time>2026-08-28T17:51:48Z</time>
  <course>247.72</course>
  <speed>0.0316227766016838</speed>
  <fix>3d</fix>
</trkpt>
<trkpt lat="40.0713749" lon="-105.229789">
  <ele>1583.0</ele>
  <time>2026-08-28T17:51:48Z</time>
  <course>0.0</course>
  <speed>0.0</speed>
  <fix>3d</fix>
</trkpt>
<trkpt lat="40.0713749" lon="-105.229789">
  <ele>1583.0</ele>
  <time>2026-08-28T17:51:48Z</time>
  <course>247.72</course>
  <speed>0.0316227766016838</speed>
  <fix>3d</fix>
</trkpt>
<trkpt lat="40.0713749" lon="-105.229789">
  <ele>1583.0</ele>
  <time>2026-08-28T17:51:48Z</time>
  <course>0.0</course>
  <speed>0.0</speed>
  <fix>3d</fix>
</trkpt>
<trkpt lat="40.0713749" lon="-105.229789">
  <ele>1583.0</ele>
  <time>2026-08-28T17:51:48Z</time>
  <course>247.71</course>
  <speed>0.0316227766016838</speed>
  <fix>3d</fix>
</trkpt>
<trkpt lat="40.0713749" lon="-105.229789">
  <ele>1583.0</ele>
  <time>2026-08-28T17:51:48Z</time>
  <course>0.0</course>
  <speed>0.0</speed>
  <fix>3d</fix>
</trkpt>
<trkpt lat="40.0713749" lon="-105.229789">
  <ele>1583.0</ele>
  <time>2026-08-28T17:51:48Z</time>
  <course>247.71</course>
  <speed>0.0316227766016838</speed>
  <fix>3d</fix>
</trkpt>
<trkpt lat="40.0713749" lon="-105.229789">
  <ele>1583.0</ele>
  <time>2026-08-28T17:51:48Z</time>
  <course>0.0</course>
  <speed>0.0</speed>
  <fix>3d</fix>
</trkpt>
<trkpt lat="40.0713749" lon="-105.229789">
  <ele>1583.0</ele>
  <time>2026-08-28T17:51:48Z</time>
  <course>247.71</course>
  <speed>0.0316227766016838</speed>
  <fix>3d</fix>
</trkpt>
<trkpt lat="40.0713749" lon="-105.229789">
  <ele>1583.0</ele>
  <time>2026-08-28T17:51:48Z</time>
  <course>0.0</course>
  <speed>0.0</speed>
  <fix>3d</fix>
</trkpt>
<trkpt lat="40.0713749" lon="-105.229789">
  <ele>1583.0</ele>
  <time>2026-08-28T17:51:48Z</time>
  <course>247.7</course>
  <speed>0.0316227766016838</speed>
  <fix>3d</fix>
</trkpt>
<trkpt lat="40.0713749" lon="-105.229789">
  <ele>1583.0</ele>
  <time>2026-08-28T17:51:48Z</time>
  <course>0.0</course>
  <speed>0.0</speed>
  <fix>3d</fix>
</trkpt>
<trkpt lat="40.0713749" lon="-105.229789">
  <ele>1583.0</ele>
  <time>2026-08-28T17:51:48Z</time>
  <course>247.7</course>
  <speed>0.0316227766016838</speed>
  <fix>3d</fix>
</trkpt>
<trkpt lat="40.0713749" lon="-105.229789">
  <ele>1583.0</ele>
  <time>2026-08-28T17:51:48Z</time>
  <course>0.0</course>
  <speed>0.0</speed>
  <fix>3d</fix>
</trkpt>
<trkpt lat="40.0713749" lon="-105.229789">
  <ele>1583.0</ele>
  <time>2026-08-28T17:51:48Z</time>
  <course>247.7</course>
  <speed>0.0316227766016838</speed>
  <fix>3d</fix>
</trkpt>
<trkpt lat="40.0713749" lon="-105.229789">
  <ele>1583.0</ele>
  <time>2026-08-28T17:51:48Z</time>
  <course>0.0</course>
  <speed>0.0</speed>
  <fix>3d</fix>
</trkpt>
<trkpt lat="40.0713749" lon="-105.229789">
  <ele>1583.0</ele>
  <time>2026-08-28T17:51:48Z</time>
  <course>247.69</course>
  <speed>0.0316227766016838</speed>
  <fix>3d</fix>
</trkpt>
<trkpt lat="40.0713749" lon="-105.229789">
  <ele>1583.0</ele>
  <time>2026-08-28T17:51:48Z</time>
  <course>0.0</course>
  <speed>0.0</speed>
  <fix>3d</fix>
</trkpt>
<trkpt lat="40.0713749" lon="-105.229789">
  <ele>1583.0</ele>
  <time>2026-08-28T17:51:48Z</time>
  <course>247.69</course>
  <speed>0.0316227766016838</speed>
  <fix>3d</fix>
</trkpt>
<trkpt lat="40.0713749" lon="-105.229789">
  <ele>1583.0</ele>
  <time>2026-08-28T17:51:48Z</time>
  <course>0.0</course>
  <speed>0.0</speed>
  <fix>3d</fix>
</trkpt>
<trkpt lat="40.0713749" lon="-105.229789">
  <ele>1583.0</ele>
  <time>2026-08-28T17:51:48Z</time>
  <course>247.69</course>
  <speed>0.0316227766016838</speed>
  <fix>3d</fix>
</trkpt>
<trkpt lat="40.0713749" lon="-105.229789">
  <ele>1583.0</ele>
  <time>2026-08-28T17:51:48Z</time>
  <course>0.0</course>
  <speed>0.0</speed>
  <fix>3d</fix>
</trkpt>
<trkpt lat="40.0713749" lon="-105.229789">
  <ele>1583.0</ele>
  <time>2026-08-28T17:51:48Z</time>
  <course>247.68</course>
  <speed>0.0316227766016838</speed>
  <fix>3d</fix>
</trkpt>
<trkpt lat="40.0713749" lon="-105.229789">
  <ele>1583.0</ele>
  <time>2026-08-28T17:51:48Z</time>
  <course>0.0</course>
  <speed>0.0</speed>
  <fix>3d</fix>
</trkpt>
<trkpt lat="40.0713749" lon="-105.229789">
  <ele>1583.0</ele>
  <time>2026-08-28T17:51:48Z</time>
  <course>247.68</course>
  <speed>0.0316227766016838</speed>
  <fix>3d</fix>
</trkpt>
<trkpt lat="40.0713749" lon="-105.229789">
  <ele>1583.0</ele>
  <time>2026-08-28T17:51:48Z</time>
  <course>0.0</course>
  <speed>0.0</speed>
  <fix>3d</fix>
</trkpt>
<trkpt lat="40.0713749" lon="-105.229789">
  <ele>1583.0</ele>
  <time>2026-08-28T17:51:48Z</time>
  <course>247.68</course>
  <speed>0.0316227766016838</speed>
  <fix>3d</fix>
</trkpt>
<trkpt lat="40.0713749" lon="-105.229789">
  <ele>1583.0</ele>
  <time>2026-08-28T17:51:48Z</time>
  <course>0.0</course>
  <speed>0.0</speed>
  <fix>3d</fix>
</trkpt>
<trkpt lat="40.0713749" lon="-105.229789">
  <ele>1583.0</ele>
  <time>2026-08-28T17:51:48Z</time>
  <course>247.67</course>
  <speed>0.0316227766016838</speed>
  <fix>3d</fix>
</trkpt>
<trkpt lat="40.0713749" lon="-105.229789">
  <ele>1583.0</ele>
  <time>2026-08-28T17:51:48Z</time>
  <course>0.0</course>
  <speed>0.0</speed>
  <fix>3d</fix>
</trkpt>
<trkpt lat="40.0713749" lon="-105.229789">
  <ele>1583.0</ele>
  <time>2026-08-28T17:51:48Z</time>
  <course>247.67</course>
  <speed>0.0316227766016838</speed>
  <fix>3d</fix>
</trkpt>
<trkpt lat="40.0713749" lon="-105.229789">
  <ele>1583.0</ele>
  <time>2026-08-28T17:51:48Z</time>
  <course>0.0</course>
  <speed>0.0</speed>
  <fix>3d</fix>
</trkpt>
<trkpt lat="40.0713749" lon="-105.229789">
  <ele>1583.0</ele>
  <time>2026-08-28T17:51:48Z</time>
  <course>247.67</course>
  <speed>0.0316227766016838</speed>
  <fix>3d</fix>
</trkpt>
<trkpt lat="40.0713749" lon="-105.229789">
  <ele>1583.0</ele>
  <time>2026-08-28T17:51:48Z</time>
  <course>0.0</course>
  <speed>0.0</speed>
  <fix>3d</fix>
</trkpt>
<trkpt lat="40.0713749" lon="-105.229789">
  <ele>1583.0</ele>
  <time>2026-08-28T17:51:48Z</time>
  <course>247.66</course>
  <speed>0.0316227766016838</speed>
  <fix>3d</fix>
</trkpt>
<trkpt lat="40.0713749" lon="-105.229789">
  <ele>1583.0</ele>
  <time>2026-08-28T17:51:48Z</time>
  <course>0.0</course>
  <speed>0.0</speed>
  <fix>3d</fix>
</trkpt>
<trkpt lat="40.0713749" lon="-105.229789">
  <ele>1583.0</ele>
  <time>2026-08-28T17:51:48Z</time>
  <course>247.66</course>
  <speed>0.0316227766016838</speed>
  <fix>3d</fix>
</trkpt>
<trkpt lat="40.0713749" lon="-105.229789">
  <ele>1583.0</ele>
  <time>2026-08-28T17:51:48Z</time>
  <course>0.0</course>
  <speed>0.0</speed>
  <fix>3d</fix>
</trkpt>
<trkpt lat="40.0713749" lon="-105.229789">
  <ele>1583.0</ele>
  <time>2026-08-28T17:51:48Z</time>
  <course>247.66</course>
  <speed>0.0316227766016838</speed>
  <fix>3d</fix>
</trkpt>
<trkpt lat="40.0713749" lon="-105.229789">
  <ele>1583.0</ele>
  <time>2026-08-28T17:51:48Z</time>
  <course>0.0</course>
  <speed>0.0</speed>
  <fix>3d</fix>
</trkpt>
<trkpt lat="40.0713749" lon="-105.229789">
  <ele>1583.0</ele>
  <time>2026-08-28T17:51:48Z</time>
  <course>247.65</course>
  <speed>0.0316227766016838</speed>
  <fix>3d</fix>
</trkpt>
<trkpt lat="40.0713749" lon="-105.229789">
  <ele>1583.0</ele>
  <time>2026-08-28T17:51:48Z</time>
  <course>0.0</course>
  <speed>0.0</speed>
  <fix>3d</fix>
</trkpt>
<trkpt lat="40.0713749" lon="-105.229789">
  <ele>1583.0</ele>
  <time>2026-08-28T17:51:48Z</time>
  <course>247.65</course>
  <speed>0.0316227766016838</speed>
  <fix>3d</fix>
</trkpt>
<trkpt lat="40.0713749" lon="-105.229789">
  <ele>1583.0</ele>
  <time>2026-08-28T17:51:48Z</time>
  <course>0.0</course>
  <speed>0.0</speed>
  <fix>3d</fix>
</trkpt>
<trkpt lat="40.0713749" lon="-105.229789">
  <ele>1583.0</ele>
  <time>2026-08-28T17:51:48Z</time>
  <course>247.65</course>
  <speed>0.0316227766016838</speed>
  <fix>3d</fix>
</trkpt>
<trkpt lat="40.0713749" lon="-105.229789">
  <ele>1583.0</ele>
  <time>2026-08-28T17:51:48Z</time>
  <course>0.0</course>
  <speed>0.0</speed>
  <fix>3d</fix>
</trkpt>
<trkpt lat="40.0713749" lon="-105.229789">
  <ele>1583.0</ele>
  <time>2026-08-28T17:51:48Z</time>
  <course>247.64</course>
  <speed>0.0316227766016838</speed>
  <fix>3d</fix>
</trkpt>
<trkpt lat="40.0713749" lon="-105.229789">
  <ele>1583.0</ele>
  <time>2026-08-28T17:51:48Z</time>
  <course>0.0</course>
  <speed>0.0</speed>
  <fix>3d</fix>
</trkpt>
<trkpt lat="40.0713749" lon="-105.229789">
  <ele>1583.0</ele>
  <time>2026-08-28T17:51:48Z</time>
  <course>247.64</course>
  <speed>0.0316227766016838</speed>
  <fix>3d</fix>
</trkpt>
<trkpt lat="40.0713749" lon="-105.229789">
  <ele>1583.0</ele>
  <time>2026-08-28T17:51:48Z</time>
  <course>0.0</course>
  <speed>0.0</speed>
  <fix>3d</fix>
</trkpt>
<trkpt lat="40.0713749" lon="-105.229789">
  <ele>1583.0</ele>
  <time>2026-08-28T17:51:48Z</time>
  <course>247.64</course>
  <speed>0.0316227766016838</speed>
  <fix>3d</fix>
</trkpt>
<trkpt lat="40.0713749" lon="-105.229789">
  <ele>1583.0</ele>
  <time>2026-08-28T17:51:48Z</time>
  <course>0.0</course>
  <speed>0.0</speed>
  <fix>3d</fix>
</trkpt>
<trkpt lat="40.0713749" lon="-105.229789">
  <ele>1583.0</ele>
  <time>2026-08-28T17:51:48Z</time>
  <course>247.64</course>
  <speed>0.0316227766016838</speed>
  <fix>3d</fix>
</trkpt>
<trkpt lat="40.0713749" lon="-105.229789">
  <ele>1583.0</ele>
  <time>2026-08-28T17:51:48Z</time>
  <course>0.0</course>
  <speed>0.0</speed>
  <fix>3d</fix>
</trkpt>
<trkpt lat="40.0713749" lon="-105.229789">
  <ele>1583.0</ele>
  <time>2026-08-28T17:51:48Z</time>
  <course>247.63</course>
  <speed>0.0316227766016838</speed>
  <fix>3d</fix>
</trkpt>
<trkpt lat="40.0713749" lon="-105.229789">
  <ele>1583.0</ele>
  <time>2026-08-28T17:51:48Z</time>
  <course>0.0</course>
  <speed>0.0</speed>
  <fix>3d</fix>
</trkpt>
<trkpt lat="40.0713749" lon="-105.229789">
  <ele>1583.0</ele>
  <time>2026-08-28T17:51:48Z</time>
  <course>247.63</course>
  <speed>0.0316227766016838</speed>
  <fix>3d</fix>
</trkpt>
<trkpt lat="40.0713749" lon="-105.229789">
  <ele>1583.0</ele>
  <time>2026-08-28T17:51:48Z</time>
  <course>0.0</course>
  <speed>0.0</speed>
  <fix>3d</fix>
</trkpt>
<trkpt lat="40.0713749" lon="-105.229789">
  <ele>1583.0</ele>
  <time>2026-08-28T17:51:48Z</time>
  <course>247.63</course>
  <speed>0.0316227766016838</speed>
  <fix>3d</fix>
</trkpt>
<trkpt lat="40.0713749" lon="-105.229789">
  <ele>1583.0</ele>
  <time>2026-08-28T17:51:48Z</time>
  <course>0.0</course>
  <speed>0.0</speed>
  <fix>3d</fix>
</trkpt>
<trkpt lat="40.0713749" lon="-105.229789">
  <ele>1583.0</ele>
  <time>2026-08-28T17:51:48Z</time>
  <course>247.62</course>
  <speed>0.0316227766016838</speed>
  <fix>3d</fix>
</trkpt>
<trkpt lat="40.0713749" lon="-105.229789">
  <ele>1583.0</ele>
  <time>2026-08-28T17:51:48Z</time>
  <course>0.0</course>
  <speed>0.0</speed>
  <fix>3d</fix>
</trkpt>
<trkpt lat="40.0713749" lon="-105.229789">
  <ele>1583.0</ele>
  <time>2026-08-28T17:51:48Z</time>
  <course>247.62</course>
  <speed>0.0316227766016838</speed>
  <fix>3d</fix>
</trkpt>
<trkpt lat="40.0713749" lon="-105.229789">
  <ele>1583.0</ele>
  <time>2026-08-28T17:51:48Z</time>
  <course>0.0</course>
  <speed>0.0</speed>
  <fix>3d</fix>
</trkpt>
<trkpt lat="40.0713749" lon="-105.229789">
  <ele>1583.0</ele>
  <time>2026-08-28T17:51:48Z</time>
  <course>247.62</course>
  <speed>0.0316227766016838</speed>
  <fix>3d</fix>
</trkpt>
<trkpt lat="40.0713749" lon="-105.229789">
  <ele>1583.0</ele>
  <time>2026-08-28T17:51:48Z</time>
  <course>0.0</course>
  <speed>0.0</speed>
  <fix>3d</fix>
</trkpt>
<trkpt lat="40.0713749" lon="-105.229789">
  <ele>1583.0</ele>
  <time>2026-08-28T17:51:48Z</time>
  <course>247.62</course>
  <speed>0.0316227766016838</speed>
  <fix>3d</fix>
</trkpt>
<trkpt lat="40.0713749" lon="-105.229789">
  <ele>1583.0</ele>
  <time>2026-08-28T17:51:48Z</time>
  <course>0.0</course>
  <speed>0.0</speed>
  <fix>3d</fix>
</trkpt>
<trkpt lat="40.0713749" lon="-105.229789">
  <ele>1583.0</ele>
  <time>2026-08-28T17:51:48Z</time>
  <course>247.61</course>
  <speed>0.0316227766016838</speed>
  <fix>3d</fix>
</trkpt>
<trkpt lat="40.0713749" lon="-105.229789">
  <ele>1583.0</ele>
  <time>2026-08-28T17:51:48Z</time>
  <course>0.0</course>
  <speed>0.0</speed>
  <fix>3d</fix>
</trkpt>
<trkpt lat="40.0713749" lon="-105.229789">
  <ele>1583.0</ele>
  <time>2026-08-28T17:51:48Z</time>
  <course>247.61</course>
  <speed>0.0316227766016838</speed>
  <fix>3d</fix>
</trkpt>
<trkpt lat="40.0713749" lon="-105.229789">
  <ele>1583.0</ele>
  <time>2026-08-28T17:51:48Z</time>
  <course>0.0</course>
  <speed>0.0</speed>
  <fix>3d</fix>
</trkpt>
<trkpt lat="40.0713749" lon="-105.229789">
  <ele>1583.0</ele>
  <time>2026-08-28T17:51:48Z</time>
  <course>247.61</course>
  <speed>0.0316227766016838</speed>
  <fix>3d</fix>
</trkpt>
<trkpt lat="40.0713749" lon="-105.229789">
  <ele>1583.0</ele>
  <time>2026-08-28T17:51:48Z</time>
  <course>0.0</course>
  <speed>0.0</speed>
  <fix>3d</fix>
</trkpt>
<trkpt lat="40.0713749" lon="-105.229789">
  <ele>1583.0</ele>
  <time>2026-08-28T17:51:48Z</time>
  <course>247.6</course>
  <speed>0.0316227766016838</speed>
  <fix>3d</fix>
</trkpt>
<trkpt lat="40.0713749" lon="-105.229789">
  <ele>1583.0</ele>
  <time>2026-08-28T17:51:48Z</time>
  <course>0.0</course>
  <speed>0.0</speed>
  <fix>3d</fix>
</trkpt>
<trkpt lat="40.0713749" lon="-105.229789">
  <ele>1583.0</ele>
  <time>2026-08-28T17:51:48Z</time>
  <course>247.6</course>
  <speed>0.0316227766016838</speed>
  <fix>3d</fix>
</trkpt>
<trkpt lat="40.0713749" lon="-105.229789">
  <ele>1583.0</ele>
  <time>2026-08-28T17:51:48Z</time>
  <course>0.0</course>
  <speed>0.0</speed>
  <fix>3d</fix>
</trkpt>
<trkpt lat="40.0713749" lon="-105.229789">
  <ele>1583.0</ele>
  <time>2026-08-28T17:51:48Z</time>
  <course>247.6</course>
  <speed>0.0316227766016838</speed>
  <fix>3d</fix>
</trkpt>
<trkpt lat="40.0713749" lon="-105.229789">
  <ele>1583.0</ele>
  <time>2026-08-28T17:51:48Z</time>
  <course>0.0</course>
  <speed>0.0</speed>
  <fix>3d</fix>
</trkpt>
<trkpt lat="40.0713749" lon="-105.229789">
  <ele>1583.0</ele>
  <time>2026-08-28T17:51:48Z</time>
  <course>247.6</course>
  <speed>0.0316227766016838</speed>
  <fix>3d</fix>
</trkpt>
<trkpt lat="40.0713749" lon="-105.229789">
  <ele>1583.0</ele>
  <time>2026-08-28T17:51:48Z</time>
  <course>0.0</course>
  <speed>0.0</speed>
  <fix>3d</fix>
</trkpt>
<trkpt lat="40.0713749" lon="-105.229789">
  <ele>1583.0</ele>
  <time>2026-08-28T17:51:48Z</time>
  <course>247.59</course>
  <speed>0.0316227766016838</speed>
  <fix>3d</fix>
</trkpt>
<trkpt lat="40.0713749" lon="-105.229789">
  <ele>1583.0</ele>
  <time>2026-08-28T17:51:48Z</time>
  <course>0.0</course>
  <speed>0.0</speed>
  <fix>3d</fix>
</trkpt>
<trkpt lat="40.0713749" lon="-105.229789">
  <ele>1582.92</ele>
  <time>2026-08-28T17:51:48Z</time>
  <course>247.59</course>
  <speed>0.0</speed>
  <fix>3d</fix>
</trkpt>
<trkpt lat="40.0713749" lon="-105.229789">
  <ele>1583.0</ele>
  <time>2026-08-28T17:51:48Z</time>
  <course>0.0</course>
  <speed>0.0</speed>
  <fix>3d</fix>
</trkpt>
<trkpt lat="40.0713749" lon="-105.229789">
  <ele>1582.92</ele>
  <time>2026-08-28T17:51:48Z</time>
  <course>247.59</course>
  <speed>0.0</speed>
  <fix>3d</fix>
</trkpt>
<trkpt lat="40.0713749" lon="-105.229789">
  <ele>1583.0</ele>
  <time>2026-08-28T17:51:48Z</time>
  <course>0.0</course>
  <speed>0.0</speed>
  <fix>3d</fix>
</trkpt>
<trkpt lat="40.0713749" lon="-105.229789">
  <ele>1582.91</ele>
  <time>2026-08-28T17:51:48Z</time>
  <course>247.58</course>
  <speed>0.0</speed>
  <fix>3d</fix>
</trkpt>
<trkpt lat="40.0713749" lon="-105.229789">
  <ele>1583.0</ele>
  <time>2026-08-28T17:51:48Z</time>
  <course>0.0</course>
  <speed>0.0</speed>
  <fix>3d</fix>
</trkpt>
<trkpt lat="40.0713749" lon="-105.229789">
  <ele>1582.91</ele>
  <time>2026-08-28T17:51:48Z</time>
  <course>247.58</course>
  <speed>0.0</speed>
  <fix>3d</fix>
</trkpt>
<trkpt lat="40.0713749" lon="-105.229789">
  <ele>1583.0</ele>
  <time>2026-08-28T17:51:48Z</time>
  <course>0.0</course>
  <speed>0.0</speed>
  <fix>3d</fix>
</trkpt>
<trkpt lat="40.0713749" lon="-105.229789">
  <ele>1582.9</ele>
  <time>2026-08-28T17:51:48Z</time>
  <course>247.58</course>
  <speed>0.0</speed>
  <fix>3d</fix>
</trkpt>
<trkpt lat="40.0713749" lon="-105.229789">
  <ele>1583.0</ele>
  <time>2026-08-28T17:51:48Z</time>
  <course>0.0</course>
  <speed>0.0</speed>
  <fix>3d</fix>
</trkpt>
<trkpt lat="40.0713749" lon="-105.229789">
  <ele>1582.9</ele>
  <time>2026-08-28T17:51:48Z</time>
  <course>247.58</course>
  <speed>0.0</speed>
  <fix>3d</fix>
</trkpt>
<trkpt lat="40.0713749" lon="-105.229789">
  <ele>1583.0</ele>
  <time>2026-08-28T17:51:48Z</time>
  <course>0.0</course>
  <speed>0.0</speed>
  <fix>3d</fix>
</trkpt>
<trkpt lat="40.0713749" lon="-105.229789">
  <ele>1582.9</ele>
  <time>2026-08-28T17:51:48Z</time>
  <course>247.57</course>
  <speed>0.0</speed>
  <fix>3d</fix>
</trkpt>
<trkpt lat="40.0713749" lon="-105.229789">
  <ele>1583.0</ele>
  <time>2026-08-28T17:51:48Z</time>
  <course>0.0</course>
  <speed>0.0</speed>
  <fix>3d</fix>
</trkpt>
<trkpt lat="40.0713749" lon="-105.229789">
  <ele>1582.9</ele>
  <time>2026-08-28T17:51:48Z</time>
  <course>247.57</course>
  <speed>0.0</speed>
  <fix>3d</fix>
</trkpt>
<trkpt lat="40.0713749" lon="-105.229789">
  <ele>1583.0</ele>
  <time>2026-08-28T17:51:48Z</time>
  <course>0.0</course>
  <speed>0.0</speed>
  <fix>3d</fix>
</trkpt>
<trkpt lat="40.0713749" lon="-105.229789">
  <ele>1582.9</ele>
  <time>2026-08-28T17:51:48Z</time>
  <course>247.57</course>
  <speed>0.0</speed>
  <fix>3d</fix>
</trkpt>
<trkpt lat="40.0713749" lon="-105.229789">
  <ele>1583.0</ele>
  <time>2026-08-28T17:51:48Z</time>
  <course>0.0</course>
  <speed>0.0</speed>
  <fix>3d</fix>
</trkpt>
<trkpt lat="40.0713749" lon="-105.229789">
  <ele>1582.9</ele>
  <time>2026-08-28T17:51:48Z</time>
  <course>247.57</course>
  <speed>0.01</speed>
  <fix>3d</fix>
</trkpt>
<trkpt lat="40.0713749" lon="-105.229789">
  <ele>1583.0</ele>
  <time>2026-08-28T17:51:48Z</time>
  <course>0.0</course>
  <speed>0.0</speed>
  <fix>3d</fix>
</trkpt>
<trkpt lat="40.0713749" lon="-105.229789">
  <ele>1582.9</ele>
  <time>2026-08-28T17:51:48Z</time>
  <course>247.56</course>
  <speed>0.01</speed>
  <fix>3d</fix>
</trkpt>
<trkpt lat="40.0713749" lon="-105.229789">
  <ele>1583.0</ele>
  <time>2026-08-28T17:51:48Z</time>
  <course>0.0</course>
  <speed>0.0</speed>
  <fix>3d</fix>
</trkpt>
<trkpt lat="40.0713749" lon="-105.229789">
  <ele>1582.91</ele>
  <time>2026-08-28T17:51:48Z</time>
  <course>247.56</course>
  <speed>0.01</speed>
  <fix>3d</fix>
</trkpt>
<trkpt lat="40.0713749" lon="-105.229789">
  <ele>1583.0</ele>
  <time>2026-08-28T17:51:48Z</time>
  <course>0.0</course>
  <speed>0.0</speed>
  <fix>3d</fix>
</trkpt>
<trkpt lat="40.0713749" lon="-105.229789">
  <ele>1582.91</ele>
  <time>2026-08-28T17:51:48Z</time>
  <course>247.56</course>
  <speed>0.03</speed>
  <fix>3d</fix>
</trkpt>
<trkpt lat="40.0713749" lon="-105.229789">
  <ele>1583.0</ele>
  <time>2026-08-28T17:51:48Z</time>
  <course>0.0</course>
  <speed>0.0</speed>
  <fix>3d</fix>
</trkpt>
<trkpt lat="40.0713749" lon="-105.2297891">
  <ele>1582.92</ele>
  <time>2026-08-28T17:51:48Z</time>
  <course>247.56</course>
  <speed>0.14560219778561037</speed>
  <fix>3d</fix>
</trkpt>
<trkpt lat="40.0713749" lon="-105.229789">
  <ele>1583.0</ele>
  <time>2026-08-28T17:51:48Z</time>
  <course>246.0</course>
  <speed>0.08</speed>
  <fix>3d</fix>
</trkpt>
<trkpt lat="40.0713748" lon="-105.2297893">
  <ele>1582.92</ele>
  <time>2026-08-28T17:51:48Z</time>
  <course>247.55</course>
  <speed>0.2751363298439521</speed>
  <fix>3d</fix>
</trkpt>
<trkpt lat="40.0713749" lon="-105.229789">
  <ele>1583.0</ele>
  <time>2026-08-28T17:51:48Z</time>
  <course>246.0</course>
  <speed>0.08</speed>
  <fix>3d</fix>
</trkpt>
<trkpt lat="40.0713747" lon="-105.2297897">
  <ele>1582.92</ele>
  <time>2026-08-28T17:51:48Z</time>
  <course>247.55</course>
  <speed>0.4049691346263317</speed>
  <fix>3d</fix>
</trkpt>
<trkpt lat="40.0713749" lon="-105.229789">
  <ele>1583.0</ele>
  <time>2026-08-28T17:51:48Z</time>
  <course>246.0</course>
  <speed>0.08</speed>
  <fix>3d</fix>
</trkpt>
<trkpt lat="40.0713746" lon="-105.2297903">
  <ele>1582.93</ele>
  <time>2026-08-28T17:51:48Z</time>
  <course>247.55</course>
  <speed>0.5126402247190519</speed>
  <fix>3d</fix>
</trkpt>
<trkpt lat="40.0713748" lon="-105.2297893">
  <ele>1583.0</ele>
  <time>2026-08-28T17:51:48Z</time>
  <course>246.0</course>
  <speed>0.28</speed>
  <fix>3d</fix>
</trkpt>
<trkpt lat="40.0713744" lon="-105.2297909">
  <ele>1582.93</ele>
  <time>2026-08-28T17:51:48Z</time>
  <course>247.54</course>
  <speed>0.6332456079595026</speed>
  <fix>3d</fix>
</trkpt>
<trkpt lat="40.0713748" lon="-105.2297893">
  <ele>1583.0</ele>
  <time>2026-08-28T17:51:48Z</time>
  <course>246.0</course>
  <speed>0.28</speed>
  <fix>3d</fix>
</trkpt>
<trkpt lat="40.0713741" lon="-105.2297917">
  <ele>1582.93</ele>
  <time>2026-08-28T17:51:48Z</time>
  <course>247.54</course>
  <speed>0.7409453421137081</speed>
  <fix>3d</fix>
</trkpt>
<trkpt lat="40.0713746" lon="-105.2297902">
  <ele>1583.0</ele>
  <time>2026-08-28T17:51:48Z</time>
  <course>246.0</course>
  <speed>0.52</speed>
  <fix>3d</fix>
</trkpt>
<trkpt lat="40.0713738" lon="-105.2297926">
  <ele>1582.93</ele>
  <time>2026-08-28T17:51:48Z</time>
  <course>247.54</course>
  <speed>0.8393449827097318</speed>
  <fix>3d</fix>
</trkpt>
<trkpt lat="40.0713746" lon="-105.2297902">
  <ele>1583.0</ele>
  <time>2026-08-28T17:51:48Z</time>
  <course>246.0</course>
  <speed>0.52</speed>
  <fix>3d</fix>
</trkpt>
<trkpt lat="40.0713735" lon="-105.2297935">
  <ele>1582.94</ele>
  <time>2026-08-28T17:51:48Z</time>
  <course>247.53</course>
  <speed>0.9340770846134703</speed>
  <fix>3d</fix>
</trkpt>
<trkpt lat="40.0713741" lon="-105.2297916">
  <ele>1583.0</ele>
  <time>2026-08-28T17:51:48Z</time>
  <course>246.0</course>
  <speed>0.74</speed>
  <fix>3d</fix>
</trkpt>
<trkpt lat="40.0713732" lon="-105.2297946">
  <ele>1582.94</ele>
  <time>2026-08-28T17:51:48Z</time>
  <course>247.52</course>
  <speed>1.0231813133555558</speed>
  <fix>3d</fix>
</trkpt>
<trkpt lat="40.0713735" lon="-105.2297934">
  <ele>1583.0</ele>
  <time>2026-08-28T17:51:48Z</time>
  <course>246.0</course>
  <speed>0.93</speed>
  <fix>3d</fix>
</trkpt>
<trkpt lat="40.0713728" lon="-105.2297958">
  <ele>1582.94</ele>
  <time>2026-08-28T17:51:48Z</time>
  <course>247.51</course>
  <speed>1.1123398761170078</speed>
  <fix>3d</fix>
</trkpt>
<trkpt lat="40.0713735" lon="-105.2297934">
  <ele>1583.0</ele>
  <time>2026-08-28T17:51:48Z</time>
  <course>246.0</course>
  <speed>0.93</speed>
  <fix>3d</fix>
</trkpt>
<trkpt lat="40.0713724" lon="-105.2297971">
  <ele>1582.95</ele>
  <time>2026-08-28T17:51:48Z</time>
  <course>247.51</course>
  <speed>1.1977478866606277</speed>
  <fix>3d</fix>
</trkpt>
<trkpt lat="40.0713728" lon="-105.2297956">
  <ele>1583.0</ele>
  <time>2026-08-28T17:51:48Z</time>
  <course>246.0</course>
  <speed>1.11</speed>
  <fix>3d</fix>
</trkpt>
<trkpt lat="40.0713719" lon="-105.2297985">
  <ele>1582.95</ele>
  <time>2026-08-28T17:51:48Z</time>
  <course>247.5</course>
  <speed>1.2738916751435343</speed>
  <fix>3d</fix>
</trkpt>
<trkpt lat="40.0713728" lon="-105.2297956">
  <ele>1583.0</ele>
  <time>2026-08-28T17:51:48Z</time>
  <course>246.0</course>
  <speed>1.11</speed>
  <fix>3d</fix>
</trkpt>
<trkpt lat="40.0713714" lon="-105.2297999">
  <ele>1582.95</ele>
  <time>2026-08-28T17:51:48Z</time>
  <course>247.49</course>
  <speed>1.3538463723776046</speed>
  <fix>3d</fix>
</trkpt>
<trkpt lat="40.0713719" lon="-105.2297981">
  <ele>1583.0</ele>
  <time>2026-08-28T17:51:48Z</time>
  <course>246.0</course>
  <speed>1.27</speed>
  <fix>3d</fix>
</trkpt>
<trkpt lat="40.0713709" lon="-105.2298015">
  <ele>1582.96</ele>
  <time>2026-08-28T17:51:48Z</time>
  <course>247.48</course>
  <speed>1.43</speed>
  <fix>3d</fix>
</trkpt>
<trkpt lat="40.0713719" lon="-105.2297981">
  <ele>1583.0</ele>
  <time>2026-08-28T17:51:48Z</time>
  <course>246.0</course>
  <speed>1.27</speed>
  <fix>3d</fix>
</trkpt>
<trkpt lat="40.0713704" lon="-105.2298031">
  <ele>1582.96</ele>
  <time>2026-08-28T17:51:48Z</time>
  <course>247.47</course>
  <speed>1.4969301920931384</speed>
  <fix>3d</fix>
</trkpt>
<trkpt lat="40.0713709" lon="-105.2298011">
  <ele>1583.0</ele>
  <time>2026-08-28T17:51:48Z</time>
  <course>246.0</course>
  <speed>1.42</speed>
  <fix>3d</fix>
</trkpt>
<trkpt lat="40.0713698" lon="-105.2298048">
  <ele>1582.96</ele>
  <time>2026-08-28T17:51:48Z</time>
  <course>247.47</course>
  <speed>1.56</speed>
  <fix>3d</fix>
</trkpt>
<trkpt lat="40.0713709" lon="-105.2298011">
  <ele>1583.0</ele>
  <time>2026-08-28T17:51:48Z</time>
  <course>246.0</course>
  <speed>1.42</speed>
  <fix>3d</fix>
</trkpt>
<trkpt lat="40.0713692" lon="-105.2298065">
  <ele>1582.96</ele>
  <time>2026-08-28T17:51:48Z</time>
  <course>247.46</course>
  <speed>1.6269296235547497</speed>
  <fix>3d</fix>
</trkpt>
<trkpt lat="40.0713698" lon="-105.2298043">
  <ele>1583.0</ele>
  <time>2026-08-28T17:51:48Z</time>
  <course>246.0</course>
  <speed>1.55</speed>
  <fix>3d</fix>
</trkpt>
<trkpt lat="40.0713686" lon="-105.2298083">
  <ele>1582.96</ele>
  <time>2026-08-28T17:51:48Z</time>
  <course>247.45</course>
  <speed>1.6846661390317073</speed>
  <fix>3d</fix>
</trkpt>
<trkpt lat="40.0713698" lon="-105.2298043">
  <ele>1583.0</ele>
  <time>2026-08-28T17:51:48Z</time>
  <course>246.0</course>
  <speed>1.55</speed>
  <fix>3d</fix>
</trkpt>
<trkpt lat="40.071368" lon="-105.2298102">
  <ele>1582.96</ele>
  <time>2026-08-28T17:51:48Z</time>
  <course>247.45</course>
  <speed>1.7477127910500627</speed>
  <fix>3d</fix>
</trkpt>
<trkpt lat="40.0713686" lon="-105.2298078">
  <ele>1583.0</ele>
  <time>2026-08-28T17:51:48Z</time>
  <course>246.0</course>
  <speed>1.67</speed>
  <fix>3d</fix>
</trkpt>
<trkpt lat="40.0713673" lon="-105.2298121">
  <ele>1582.96</ele>
  <time>2026-08-28T17:51:48Z</time>
  <course>247.44</course>
  <speed>1.7962739212046697</speed>
  <fix>3d</fix>
</trkpt>
<trkpt lat="40.0713686" lon="-105.2298078">
  <ele>1583.0</ele>
  <time>2026-08-28T17:51:48Z</time>
  <course>246.0</course>
  <speed>1.67</speed>
  <fix>3d</fix>
</trkpt>
<trkpt lat="40.0713666" lon="-105.2298141">
  <ele>1582.95</ele>
  <time>2026-08-28T17:51:48Z</time>
  <course>247.44</course>
  <speed>1.850108104949546</speed>
  <fix>3d</fix>
</trkpt>
<trkpt lat="40.0713673" lon="-105.2298115">
  <ele>1583.0</ele>
  <time>2026-08-28T17:51:48Z</time>
  <course>246.0</course>
  <speed>1.77</speed>
  <fix>3d</fix>
</trkpt>
<trkpt lat="40.0713659" lon="-105.2298161">
  <ele>1582.96</ele>
  <time>2026-08-28T17:51:48Z</time>
  <course>247.43</course>
  <speed>1.8947559209565754</speed>
  <fix>3d</fix>
</trkpt>
<trkpt lat="40.0713673" lon="-105.2298115">
  <ele>1583.0</ele>
  <time>2026-08-28T17:51:48Z</time>
  <course>246.0</course>
  <speed>1.77</speed>
  <fix>3d</fix>
</trkpt>
<trkpt lat="40.0713652" lon="-105.2298182">
  <ele>1582.96</ele>
  <time>2026-08-28T17:51:48Z</time>
  <course>247.43</course>
  <speed>1.9394071259021401</speed>
  <fix>3d</fix>
</trkpt>
<trkpt lat="40.0713673" lon="-105.2298115">
  <ele>1583.0</ele>
  <time>2026-08-28T17:51:48Z</time>
  <course>246.0</course>
  <speed>1.77</speed>
  <fix>3d</fix>
</trkpt>
<trkpt lat="40.0713645" lon="-105.2298203">
  <ele>1582.96</ele>
  <time>2026-08-28T17:51:48Z</time>
  <course>247.42</course>
  <speed>1.9840614909825753</speed>
  <fix>3d</fix>
</trkpt>
<trkpt lat="40.071366" lon="-105.2298154">
  <ele>1583.0</ele>
  <time>2026-08-28T17:51:48Z</time>
  <course>246.0</course>
  <speed>1.87</speed>
  <fix>3d</fix>
</trkpt>
<trkpt lat="40.0713637" lon="-105.2298224">
  <ele>1582.95</ele>
  <time>2026-08-28T17:51:48Z</time>
  <course>247.42</course>
  <speed>2.0287188075236053</speed>
  <fix>3d</fix>
</trkpt>
<trkpt lat="40.071366" lon="-105.2298154">
  <ele>1583.0</ele>
  <time>2026-08-28T17:51:48Z</time>
  <course>246.0</course>
  <speed>1.87</speed>
  <fix>3d</fix>
</trkpt>
<trkpt lat="40.071363" lon="-105.2298246">
  <ele>1582.95</ele>
  <time>2026-08-28T17:51:48Z</time>
  <course>247.42</course>
  <speed>2.060218435020908</speed>
  <fix>3d</fix>
</trkpt>
<trkpt lat="40.0713646" lon="-105.2298194">
  <ele>1583.0</ele>
  <time>2026-08-28T17:51:48Z</time>
  <course>246.0</course>
  <speed>1.96</speed>
  <fix>3d</fix>
</trkpt>
<trkpt lat="40.0713622" lon="-105.2298268">
  <ele>1582.95</ele>
  <time>2026-08-28T17:51:48Z</time>
  <course>247.42</course>
  <speed>2.095709903588758</speed>
  <fix>3d</fix>
</trkpt>
<trkpt lat="40.0713646" lon="-105.2298194">
  <ele>1583.0</ele>
  <time>2026-08-28T17:51:48Z</time>
  <course>246.0</course>
  <speed>1.96</speed>
  <fix>3d</fix>
</trkpt>
<trkpt lat="40.0713615" lon="-105.229829">
  <ele>1582.95</ele>
  <time>2026-08-28T17:51:48Z</time>
  <course>247.41</course>
  <speed>2.1272047386182646</speed>
  <fix>3d</fix>
</trkpt>
<trkpt lat="40.0713631" lon="-105.2298237">
  <ele>1583.0</ele>
  <time>2026-08-28T17:51:48Z</time>
  <course>246.0</course>
  <speed>2.04</speed>
  <fix>3d</fix>
</trkpt>
<trkpt lat="40.0713607" lon="-105.2298313">
  <ele>1582.95</ele>
  <time>2026-08-28T17:51:48Z</time>
  <course>247.41</course>
  <speed>2.162706637526227</speed>
  <fix>3d</fix>
</trkpt>
<trkpt lat="40.0713631" lon="-105.2298237">
  <ele>1583.0</ele>
  <time>2026-08-28T17:51:48Z</time>
  <course>246.0</course>
  <speed>2.04</speed>
  <fix>3d</fix>
</trkpt>
<trkpt lat="40.0713599" lon="-105.2298336">
  <ele>1582.95</ele>
  <time>2026-08-28T17:51:48Z</time>
  <course>247.41</course>
  <speed>2.185040045399626</speed>
  <fix>3d</fix>
</trkpt>
<trkpt lat="40.0713616" lon="-105.2298283">
  <ele>1583.0</ele>
  <time>2026-08-28T17:51:48Z</time>
  <course>246.0</course>
  <speed>2.11</speed>
  <fix>3d</fix>
</trkpt>
<trkpt lat="40.0713591" lon="-105.2298359">
  <ele>1582.96</ele>
  <time>2026-08-28T17:51:48Z</time>
  <course>247.41</course>
  <speed>2.216528817768901</speed>
  <fix>3d</fix>
</trkpt>
<trkpt lat="40.07136" lon="-105.2298328">
  <ele>1583.0</ele>
  <time>2026-08-28T17:51:48Z</time>
  <course>246.0</course>
  <speed>2.18</speed>
  <fix>3d</fix>
</trkpt>
<trkpt lat="40.0713583" lon="-105.2298383">
  <ele>1582.96</ele>
  <time>2026-08-28T17:51:48Z</time>
  <course>247.41</course>
  <speed>2.242899908600471</speed>
  <fix>3d</fix>
</trkpt>
<trkpt lat="40.07136" lon="-105.2298328">
  <ele>1583.0</ele>
  <time>2026-08-28T17:51:48Z</time>
  <course>246.0</course>
  <speed>2.18</speed>
  <fix>3d</fix>
</trkpt>
<trkpt lat="40.0713574" lon="-105.2298407">
  <ele>1582.97</ele>
  <time>2026-08-28T17:51:48Z</time>
  <course>247.41</course>
  <speed>2.265237294413104</speed>
  <fix>3d</fix>
</trkpt>
<trkpt lat="40.0713584" lon="-105.2298376">
  <ele>1583.0</ele>
  <time>2026-08-28T17:51:48Z</time>
  <course>246.0</course>
  <speed>2.23</speed>
  <fix>3d</fix>
</trkpt>
<trkpt lat="40.0713566" lon="-105.2298432">
  <ele>1582.97</ele>
  <time>2026-08-28T17:51:48Z</time>
  <course>247.41</course>
  <speed>2.2967150454507848</speed>
  <fix>3d</fix>
</trkpt>
<trkpt lat="40.0713584" lon="-105.2298376">
  <ele>1583.0</ele>
  <time>2026-08-28T17:51:48Z</time>
  <course>246.0</course>
  <speed>2.23</speed>
  <fix>3d</fix>
</trkpt>
<trkpt lat="40.0713557" lon="-105.2298456">
  <ele>1582.98</ele>
  <time>2026-08-28T17:51:48Z</time>
  <course>247.4</course>
  <speed>2.319051530259731</speed>
  <fix>3d</fix>
</trkpt>
<trkpt lat="40.0713568" lon="-105.2298424">
  <ele>1583.0</ele>
  <time>2026-08-28T17:51:48Z</time>
  <course>246.0</course>
  <speed>2.29</speed>
  <fix>3d</fix>
</trkpt>
<trkpt lat="40.0713549" lon="-105.2298482">
  <ele>1582.98</ele>
  <time>2026-08-28T17:51:48Z</time>
  <course>247.4</course>
  <speed>2.34138847695123</speed>
  <fix>3d</fix>
</trkpt>
<trkpt lat="40.0713568" lon="-105.2298424">
  <ele>1583.0</ele>
  <time>2026-08-28T17:51:48Z</time>
  <course>246.0</course>
  <speed>2.29</speed>
  <fix>3d</fix>
</trkpt>
<trkpt lat="40.071354" lon="-105.2298507">
  <ele>1582.98</ele>
  <time>2026-08-28T17:51:48Z</time>
  <course>247.4</course>
  <speed>2.3637258724310652</speed>
  <fix>3d</fix>
</trkpt>
<trkpt lat="40.0713551" lon="-105.2298474">
  <ele>1583.0</ele>
  <time>2026-08-28T17:51:48Z</time>
  <course>246.0</course>
  <speed>2.34</speed>
  <fix>3d</fix>
</trkpt>
<trkpt lat="40.0713531" lon="-105.2298533">
  <ele>1582.98</ele>
  <time>2026-08-28T17:51:48Z</time>
  <course>247.4</course>
  <speed>2.386063704095094</speed>
  <fix>3d</fix>
</trkpt>
<trkpt lat="40.0713551" lon="-105.2298474">
  <ele>1583.0</ele>
  <time>2026-08-28T17:51:48Z</time>
  <course>246.0</course>
  <speed>2.34</speed>
  <fix>3d</fix>
</trkpt>
<trkpt lat="40.0713522" lon="-105.2298559">
  <ele>1582.98</ele>
  <time>2026-08-28T17:51:48Z</time>
  <course>247.4</course>
  <speed>2.4084019598065436</speed>
  <fix>3d</fix>
</trkpt>
<trkpt lat="40.0713533" lon="-105.2298525">
  <ele>1583.0</ele>
  <time>2026-08-28T17:51:48Z</time>
  <course>246.0</course>
  <speed>2.38</speed>
  <fix>3d</fix>
</trkpt>
<trkpt lat="40.0713513" lon="-105.2298585">
  <ele>1582.98</ele>
  <time>2026-08-28T17:51:48Z</time>
  <course>247.4</course>
  <speed>2.430740627874558</speed>
  <fix>3d</fix>
</trkpt>
<trkpt lat="40.0713533" lon="-105.2298525">
  <ele>1583.0</ele>
  <time>2026-08-28T17:51:48Z</time>
  <course>246.0</course>
  <speed>2.38</speed>
  <fix>3d</fix>
</trkpt>
<trkpt lat="40.0713504" lon="-105.2298611">
  <ele>1582.98</ele>
  <time>2026-08-28T17:51:48Z</time>
  <course>247.4</course>
  <speed>2.4398770460824455</speed>
  <fix>3d</fix>
</trkpt>
<trkpt lat="40.0713516" lon="-105.2298577">
  <ele>1583.0</ele>
  <time>2026-08-28T17:51:48Z</time>
  <course>246.0</course>
  <speed>2.42</speed>
  <fix>3d</fix>
</trkpt>
<trkpt lat="40.0713495" lon="-105.2298638">
  <ele>1582.98</ele>
  <time>2026-08-28T17:51:48Z</time>
  <course>247.4</course>
  <speed>2.4622144504490264</speed>
  <fix>3d</fix>
</trkpt>
<trkpt lat="40.0713516" lon="-105.2298577">
  <ele>1583.0</ele>
  <time>2026-08-28T17:51:48Z</time>
  <course>246.0</course>
  <speed>2.42</speed>
  <fix>3d</fix>
</trkpt>
<trkpt lat="40.0713486" lon="-105.2298664">
  <ele>1582.98</ele>
  <time>2026-08-28T17:51:48Z</time>
  <course>247.4</course>
  <speed>2.4754191564258368</speed>
  <fix>3d</fix>
</trkpt>
<trkpt lat="40.0713497" lon="-105.2298629">
  <ele>1583.0</ele>
  <time>2026-08-28T17:51:48Z</time>
  <course>246.0</course>
  <speed>2.46</speed>
  <fix>3d</fix>
</trkpt>
<trkpt lat="40.0713477" lon="-105.2298691">
  <ele>1582.98</ele>
  <time>2026-08-28T17:51:48Z</time>
  <course>247.4</course>
  <speed>2.493692041933005</speed>
  <fix>3d</fix>
</trkpt>
<trkpt lat="40.0713497" lon="-105.2298629">
  <ele>1583.0</ele>
  <time>2026-08-28T17:51:48Z</time>
  <course>246.0</course>
  <speed>2.46</speed>
  <fix>3d</fix>
</trkpt>
<trkpt lat="40.0713468" lon="-105.2298718">
  <ele>1582.98</ele>
  <time>2026-08-28T17:51:48Z</time>
  <course>247.4</course>
  <speed>2.5068905041904004</speed>
  <fix>3d</fix>
</trkpt>
<trkpt lat="40.0713497" lon="-105.2298629">
  <ele>1583.0</ele>
  <time>2026-08-28T17:51:48Z</time>
  <course>246.0</course>
  <speed>2.46</speed>
  <fix>3d</fix>
</trkpt>
<trkpt lat="40.0713459" lon="-105.2298745">
  <ele>1582.98</ele>
  <time>2026-08-28T17:51:48Z</time>
  <course>247.4</course>
  <speed>2.516028616689405</speed>
  <fix>3d</fix>
</trkpt>
<trkpt lat="40.071348" lon="-105.2298682">
  <ele>1583.0</ele>
  <time>2026-08-28T17:51:48Z</time>
  <course>246.0</course>
  <speed>2.49</speed>
  <fix>3d</fix>
</trkpt>
<trkpt lat="40.0713449" lon="-105.2298772">
  <ele>1582.99</ele>
  <time>2026-08-28T17:51:48Z</time>
  <course>247.4</course>
  <speed>2.529229131573492</speed>
  <fix>3d</fix>
</trkpt>
<trkpt lat="40.071348" lon="-105.2298682">
  <ele>1583.0</ele>
  <time>2026-08-28T17:51:48Z</time>
  <course>246.0</course>
  <speed>2.49</speed>
  <fix>3d</fix>
</trkpt>
<trkpt lat="40.071344" lon="-105.2298799">
  <ele>1582.98</ele>
  <time>2026-08-28T17:51:48Z</time>
  <course>247.39</course>
  <speed>2.5383656159032726</speed>
  <fix>3d</fix>
</trkpt>
<trkpt lat="40.0713461" lon="-105.2298735">
  <ele>1583.0</ele>
  <time>2026-08-28T17:51:48Z</time>
  <course>246.0</course>
  <speed>2.52</speed>
  <fix>3d</fix>
</trkpt>
<trkpt lat="40.0713431" lon="-105.2298826">
  <ele>1582.98</ele>
  <time>2026-08-28T17:51:48Z</time>
  <course>247.39</course>
  <speed>2.551568145278507</speed>
  <fix>3d</fix>
</trkpt>
<trkpt lat="40.0713461" lon="-105.2298735">
  <ele>1583.0</ele>
  <time>2026-08-28T17:51:48Z</time>
  <course>246.0</course>
  <speed>2.52</speed>
  <fix>3d</fix>
</trkpt>
<trkpt lat="40.0713422" lon="-105.2298853">
  <ele>1582.98</ele>
  <time>2026-08-28T17:51:48Z</time>
  <course>247.39</course>
  <speed>2.560703028466987</speed>
  <fix>3d</fix>
</trkpt>
<trkpt lat="40.0713443" lon="-105.229879">
  <ele>1583.0</ele>
  <time>2026-08-28T17:51:48Z</time>
  <course>246.0</course>
  <speed>2.54</speed>
  <fix>3d</fix>
</trkpt>
<trkpt lat="40.0713412" lon="-105.2298881">
  <ele>1582.98</ele>
  <time>2026-08-28T17:51:48Z</time>
  <course>247.39</course>
  <speed>2.5698443532634423</speed>
  <fix>3d</fix>
</trkpt>
<trkpt lat="40.0713424" lon="-105.2298845">
  <ele>1583.0</ele>
  <time>2026-08-28T17:51:48Z</time>
  <course>246.0</course>
  <speed>2.57</speed>
  <fix>3d</fix>
</trkpt>
<trkpt lat="40.0713403" lon="-105.2298908">
  <ele>1582.98</ele>
  <time>2026-08-28T17:51:48Z</time>
  <course>247.39</course>
  <speed>2.5830408436569483</speed>
  <fix>3d</fix>
</trkpt>
<trkpt lat="40.0713424" lon="-105.2298845">
  <ele>1583.0</ele>
  <time>2026-08-28T17:51:48Z</time>
  <course>246.0</course>
  <speed>2.57</speed>
  <fix>3d</fix>
</trkpt>
<trkpt lat="40.0713393" lon="-105.2298936">
  <ele>1582.98</ele>
  <time>2026-08-28T17:51:48Z</time>
  <course>247.39</course>
  <speed>2.5921805492673538</speed>
  <fix>3d</fix>
</trkpt>
<trkpt lat="40.0713405" lon="-105.2298901">
  <ele>1583.0</ele>
  <time>2026-08-28T17:51:48Z</time>
  <course>246.0</course>
  <speed>2.59</speed>
  <fix>3d</fix>
</trkpt>
<trkpt lat="40.0713384" lon="-105.2298964">
  <ele>1582.98</ele>
  <time>2026-08-28T17:51:48Z</time>
  <course>247.39</course>
  <speed>2.596247291765559</speed>
  <fix>3d</fix>
</trkpt>
<trkpt lat="40.0713405" lon="-105.2298901">
  <ele>1583.0</ele>
  <time>2026-08-28T17:51:48Z</time>
  <course>246.0</course>
  <speed>2.59</speed>
  <fix>3d</fix>
</trkpt>
<trkpt lat="40.0713374" lon="-105.2298992">
  <ele>1582.99</ele>
  <time>2026-08-28T17:51:48Z</time>
  <course>247.39</course>
  <speed>2.605379051117131</speed>
  <fix>3d</fix>
</trkpt>
<trkpt lat="40.0713386" lon="-105.2298956">
  <ele>1583.0</ele>
  <time>2026-08-28T17:51:48Z</time>
  <course>246.0</course>
  <speed>2.61</speed>
  <fix>3d</fix>
</trkpt>
<trkpt lat="40.0713365" lon="-105.229902">
  <ele>1582.99</ele>
  <time>2026-08-28T17:51:48Z</time>
  <course>247.39</course>
  <speed>2.6145171638373306</speed>
  <fix>3d</fix>
</trkpt>
<trkpt lat="40.0713386" lon="-105.2298956">
  <ele>1583.0</ele>
  <time>2026-08-28T17:51:48Z</time>
  <course>246.0</course>
  <speed>2.61</speed>
  <fix>3d</fix>
</trkpt>
<trkpt lat="40.0713355" lon="-105.2299049">
  <ele>1582.99</ele>
  <time>2026-08-28T17:51:48Z</time>
  <course>247.39</course>
  <speed>2.6277176408434753</speed>
  <fix>3d</fix>
</trkpt>
<trkpt lat="40.0713367" lon="-105.2299013">
  <ele>1583.0</ele>
  <time>2026-08-28T17:51:48Z</time>
  <course>246.0</course>
  <speed>2.63</speed>
  <fix>3d</fix>
</trkpt>
<trkpt lat="40.0713345" lon="-105.2299078">
  <ele>1583.0</ele>
  <time>2026-08-28T17:51:48Z</time>
  <course>247.39</course>
  <speed>2.6277176408434753</speed>
  <fix>3d</fix>
</trkpt>
<trkpt lat="40.0713367" lon="-105.2299013">
  <ele>1583.0</ele>
  <time>2026-08-28T17:51:48Z</time>
  <course>246.0</course>
  <speed>2.63</speed>
  <fix>3d</fix>
</trkpt>
<trkpt lat="40.0713335" lon="-105.2299106">
  <ele>1583.0</ele>
  <time>2026-08-28T17:51:48Z</time>
  <course>247.39</course>
  <speed>2.6368541863364383</speed>
  <fix>3d</fix>
</trkpt>
<trkpt lat="40.0713348" lon="-105.2299069">
  <ele>1583.0</ele>
  <time>2026-08-28T17:51:48Z</time>
  <course>246.0</course>
  <speed>2.64</speed>
  <fix>3d</fix>
</trkpt>
<trkpt lat="40.0713326" lon="-105.2299135">
  <ele>1583.0</ele>
  <time>2026-08-28T17:51:48Z</time>
  <course>247.39</course>
  <speed>2.645996976566678</speed>
  <fix>3d</fix>
</trkpt>
<trkpt lat="40.0713348" lon="-105.2299069">
  <ele>1583.0</ele>
  <time>2026-08-28T17:51:48Z</time>
  <course>246.0</course>
  <speed>2.64</speed>
  <fix>3d</fix>
</trkpt>
<trkpt lat="40.0713316" lon="-105.2299163">
  <ele>1583.0</ele>
  <time>2026-08-28T17:51:48Z</time>
  <course>247.39</course>
  <speed>2.650056603169072</speed>
  <fix>3d</fix>
</trkpt>
<trkpt lat="40.0713329" lon="-105.2299126">
  <ele>1583.0</ele>
  <time>2026-08-28T17:51:48Z</time>
  <course>246.0</course>
  <speed>2.66</speed>
  <fix>3d</fix>
</trkpt>
<trkpt lat="40.0713306" lon="-105.2299192">
  <ele>1583.01</ele>
  <time>2026-08-28T17:51:48Z</time>
  <course>247.39</course>
  <speed>2.6591916064849483</speed>
  <fix>3d</fix>
</trkpt>
<trkpt lat="40.0713329" lon="-105.2299126">
  <ele>1583.0</ele>
  <time>2026-08-28T17:51:48Z</time>
  <course>246.0</course>
  <speed>2.66</speed>
  <fix>3d</fix>
</trkpt>
<trkpt lat="40.0713296" lon="-105.2299221">
  <ele>1583.01</ele>
  <time>2026-08-28T17:51:48Z</time>
  <course>247.39</course>
  <speed>2.668332812825267</speed>
  <fix>3d</fix>
</trkpt>
<trkpt lat="40.0713309" lon="-105.2299183">
  <ele>1583.0</ele>
  <time>2026-08-28T17:51:48Z</time>
  <course>246.0</course>
  <speed>2.67</speed>
  <fix>3d</fix>
</trkpt>
<trkpt lat="40.0713287" lon="-105.229925">
  <ele>1583.01</ele>
  <time>2026-08-28T17:51:48Z</time>
  <course>247.39</course>
  <speed>2.668332812825267</speed>
  <fix>3d</fix>
</trkpt>
<trkpt lat="40.0713309" lon="-105.2299183">
  <ele>1583.0</ele>
  <time>2026-08-28T17:51:48Z</time>
  <course>246.0</course>
  <speed>2.67</speed>
  <fix>3d</fix>
</trkpt>
<trkpt lat="40.0713277" lon="-105.2299279">
  <ele>1583.01</ele>
  <time>2026-08-28T17:51:48Z</time>
  <course>247.39</course>
  <speed>2.677480158656643</speed>
  <fix>3d</fix>
</trkpt>
<trkpt lat="40.0713309" lon="-105.2299183">
  <ele>1583.0</ele>
  <time>2026-08-28T17:51:48Z</time>
  <course>246.0</course>
  <speed>2.67</speed>
  <fix>3d</fix>
</trkpt>
<trkpt lat="40.0713267" lon="-105.2299308">
  <ele>1583.01</ele>
  <time>2026-08-28T17:51:48Z</time>
  <course>247.39</course>
  <speed>2.677480158656643</speed>
  <fix>3d</fix>
</trkpt>
<trkpt lat="40.071329" lon="-105.229924">
  <ele>1583.0</ele>
  <time>2026-08-28T17:51:48Z</time>
  <course>246.0</course>
  <speed>2.68</speed>
  <fix>3d</fix>
</trkpt>
<trkpt lat="40.0713257" lon="-105.2299336">
  <ele>1583.01</ele>
  <time>2026-08-28T17:51:48Z</time>
  <course>247.39</course>
  <speed>2.677480158656643</speed>
  <fix>3d</fix>
</trkpt>
<trkpt lat="40.071329" lon="-105.229924">
  <ele>1583.0</ele>
  <time>2026-08-28T17:51:48Z</time>
  <course>246.0</course>
  <speed>2.68</speed>
  <fix>3d</fix>
</trkpt>
<trkpt lat="40.0713248" lon="-105.2299365">
  <ele>1583.01</ele>
  <time>2026-08-28T17:51:48Z</time>
  <course>247.39</course>
  <speed>2.677480158656643</speed>
  <fix>3d</fix>
</trkpt>
<trkpt lat="40.0713269" lon="-105.2299299">
  <ele>1583.0</ele>
  <time>2026-08-28T17:51:48Z</time>
  <course>246.0</course>
  <speed>2.69</speed>
  <fix>3d</fix>
</trkpt>
<trkpt lat="40.0713238" lon="-105.2299394">
  <ele>1583.01</ele>
  <time>2026-08-28T17:51:48Z</time>
  <course>247.39</course>
  <speed>2.6866335812685738</speed>
  <fix>3d</fix>
</trkpt>
<trkpt lat="40.0713269" lon="-105.2299299">
  <ele>1583.0</ele>
  <time>2026-08-28T17:51:48Z</time>
  <course>246.0</course>
  <speed>2.69</speed>
  <fix>3d</fix>
</trkpt>
<trkpt lat="40.0713228" lon="-105.2299422">
  <ele>1583.01</ele>
  <time>2026-08-28T17:51:48Z</time>
  <course>247.39</course>
  <speed>2.690669061776271</speed>
  <fix>3d</fix>
</trkpt>
<trkpt lat="40.071325" lon="-105.2299357">
  <ele>1583.0</ele>
  <time>2026-08-28T17:51:48Z</time>
  <course>246.0</course>
  <speed>2.7</speed>
  <fix>3d</fix>
</trkpt>
<trkpt lat="40.0713218" lon="-105.2299451">
  <ele>1583.01</ele>
  <time>2026-08-28T17:51:48Z</time>
  <course>247.39</course>
  <speed>2.690669061776271</speed>
  <fix>3d</fix>
</trkpt>
<trkpt lat="40.071325" lon="-105.2299357">
  <ele>1583.0</ele>
  <time>2026-08-28T17:51:48Z</time>
  <course>246.0</course>
  <speed>2.7</speed>
  <fix>3d</fix>
</trkpt>
<trkpt lat="40.0713209" lon="-105.229948">
  <ele>1583.01</ele>
  <time>2026-08-28T17:51:48Z</time>
  <course>247.39</course>
  <speed>2.690669061776271</speed>
  <fix>3d</fix>
</trkpt>
<trkpt lat="40.0713231" lon="-105.2299415">
  <ele>1583.0</ele>
  <time>2026-08-28T17:51:48Z</time>
  <course>246.0</course>
  <speed>2.71</speed>
  <fix>3d</fix>
</trkpt>
<trkpt lat="40.0713199" lon="-105.2299509">
  <ele>1583.01</ele>
  <time>2026-08-28T17:51:48Z</time>
  <course>247.39</course>
  <speed>2.6998148084637212</speed>
  <fix>3d</fix>
</trkpt>
<trkpt lat="40.0713211" lon="-105.2299473">
  <ele>1583.0</ele>
  <time>2026-08-28T17:51:48Z</time>
  <course>246.0</course>
  <speed>2.72</speed>
  <fix>3d</fix>
</trkpt>
<trkpt lat="40.0713189" lon="-105.2299538">
  <ele>1583.01</ele>
  <time>2026-08-28T17:51:48Z</time>
  <course>247.39</course>
  <speed>2.6998148084637212</speed>
  <fix>3d</fix>
</trkpt>
<trkpt lat="40.0713211" lon="-105.2299473">
  <ele>1583.0</ele>
  <time>2026-08-28T17:51:48Z</time>
  <course>246.0</course>
  <speed>2.72</speed>
  <fix>3d</fix>
</trkpt>
<trkpt lat="40.0713179" lon="-105.2299567">
  <ele>1583.01</ele>
  <time>2026-08-28T17:51:48Z</time>
  <course>247.39</course>
  <speed>2.6998148084637212</speed>
  <fix>3d</fix>
</trkpt>
<trkpt lat="40.071319" lon="-105.2299532">
  <ele>1583.0</ele>
  <time>2026-08-28T17:51:48Z</time>
  <course>246.0</course>
  <speed>2.73</speed>
  <fix>3d</fix>
</trkpt>
<trkpt lat="40.0713169" lon="-105.2299597">
  <ele>1583.01</ele>
  <time>2026-08-28T17:51:48Z</time>
  <course>247.39</course>
  <speed>2.708966592632696</speed>
  <fix>3d</fix>
</trkpt>
<trkpt lat="40.071319" lon="-105.2299532">
  <ele>1583.0</ele>
  <time>2026-08-28T17:51:48Z</time>
  <course>246.0</course>
  <speed>2.73</speed>
  <fix>3d</fix>
</trkpt>
<trkpt lat="40.0713159" lon="-105.2299626">
  <ele>1583.01</ele>
  <time>2026-08-28T17:51:48Z</time>
  <course>247.39</course>
  <speed>2.708966592632696</speed>
  <fix>3d</fix>
</trkpt>
<trkpt lat="40.0713171" lon="-105.229959">
  <ele>1583.0</ele>
  <time>2026-08-28T17:51:48Z</time>
  <course>246.0</course>
  <speed>2.73</speed>
  <fix>3d</fix>
</trkpt>
<trkpt lat="40.0713149" lon="-105.2299656">
  <ele>1583.01</ele>
  <time>2026-08-28T17:51:48Z</time>
  <course>247.39</course>
  <speed>2.708966592632696</speed>
  <fix>3d</fix>
</trkpt>
<trkpt lat="40.0713171" lon="-105.229959">
  <ele>1583.0</ele>
  <time>2026-08-28T17:51:48Z</time>
  <course>246.0</course>
  <speed>2.73</speed>
  <fix>3d</fix>
</trkpt>
<trkpt lat="40.0713139" lon="-105.2299686">
  <ele>1583.01</ele>
  <time>2026-08-28T17:51:48Z</time>
  <course>247.4</course>
  <speed>2.708966592632696</speed>
  <fix>3d</fix>
</trkpt>
<trkpt lat="40.071315" lon="-105.2299649">
  <ele>1583.0</ele>
  <time>2026-08-28T17:51:48Z</time>
  <course>246.0</course>
  <speed>2.74</speed>
  <fix>3d</fix>
</trkpt>
<trkpt lat="40.0713129" lon="-105.2299715">
  <ele>1583.01</ele>
  <time>2026-08-28T17:51:48Z</time>
  <course>247.4</course>
  <speed>2.718124353299532</speed>
  <fix>3d</fix>
</trkpt>
<trkpt lat="40.071315" lon="-105.2299649">
  <ele>1583.0</ele>
  <time>2026-08-28T17:51:48Z</time>
  <course>246.0</course>
  <speed>2.74</speed>
  <fix>3d</fix>
</trkpt>
<trkpt lat="40.0713119" lon="-105.2299745">
  <ele>1583.01</ele>
  <time>2026-08-28T17:51:48Z</time>
  <course>247.4</course>
  <speed>2.718124353299532</speed>
  <fix>3d</fix>
</trkpt>
<trkpt lat="40.0713131" lon="-105.2299708">
  <ele>1583.0</ele>
  <time>2026-08-28T17:51:48Z</time>
  <course>246.0</course>
  <speed>2.74</speed>
  <fix>3d</fix>
</trkpt>
<trkpt lat="40.0713109" lon="-105.2299775">
  <ele>1583.01</ele>
  <time>2026-08-28T17:51:48Z</time>
  <course>247.4</course>
  <speed>2.718124353299532</speed>
  <fix>3d</fix>
</trkpt>
<trkpt lat="40.0713131" lon="-105.2299708">
  <ele>1583.0</ele>
  <time>2026-08-28T17:51:48Z</time>
  <course>246.0</course>
  <speed>2.74</speed>
  <fix>3d</fix>
</trkpt>
<trkpt lat="40.0713099" lon="-105.2299804">
  <ele>1583.01</ele>
  <time>2026-08-28T17:51:48Z</time>
  <course>247.4</course>
  <speed>2.727288030260097</speed>
  <fix>3d</fix>
</trkpt>
<trkpt lat="40.0713111" lon="-105.2299767">
  <ele>1583.0</ele>
  <time>2026-08-28T17:51:48Z</time>
  <course>246.0</course>
  <speed>2.75</speed>
  <fix>3d</fix>
</trkpt>
<trkpt lat="40.0713089" lon="-105.2299834">
  <ele>1583.01</ele>
  <time>2026-08-28T17:51:48Z</time>
  <course>247.4</course>
  <speed>2.727288030260097</speed>
  <fix>3d</fix>
</trkpt>
<trkpt lat="40.0713111" lon="-105.2299767">
  <ele>1583.0</ele>
  <time>2026-08-28T17:51:48Z</time>
  <course>246.0</course>
  <speed>2.75</speed>
  <fix>3d</fix>
</trkpt>
<trkpt lat="40.0713079" lon="-105.2299864">
  <ele>1583.01</ele>
  <time>2026-08-28T17:51:48Z</time>
  <course>247.4</course>
  <speed>2.727288030260097</speed>
  <fix>3d</fix>
</trkpt>
<trkpt lat="40.071309" lon="-105.2299826">
  <ele>1583.0</ele>
  <time>2026-08-28T17:51:48Z</time>
  <course>246.0</course>
  <speed>2.75</speed>
  <fix>3d</fix>
</trkpt>
<trkpt lat="40.0713069" lon="-105.2299894">
  <ele>1583.01</ele>
  <time>2026-08-28T17:51:48Z</time>
  <course>247.4</course>
  <speed>2.7313000567495327</speed>
  <fix>3d</fix>
</trkpt>
<trkpt lat="40.071309" lon="-105.2299826">
  <ele>1583.0</ele>
  <time>2026-08-28T17:51:48Z</time>
  <course>246.0</course>
  <speed>2.75</speed>
  <fix>3d</fix>
</trkpt>
<trkpt lat="40.0713059" lon="-105.2299923">
  <ele>1583.01</ele>
  <time>2026-08-28T17:51:48Z</time>
  <course>247.41</course>
  <speed>2.7404561664073372</speed>
  <fix>3d</fix>
</trkpt>
<trkpt lat="40.071309" lon="-105.2299826">
  <ele>1583.0</ele>
  <time>2026-08-28T17:51:48Z</time>
  <course>246.0</course>
  <speed>2.75</speed>
  <fix>3d</fix>
</trkpt>
<trkpt lat="40.0713049" lon="-105.2299953">
  <ele>1583.02</ele>
  <time>2026-08-28T17:51:48Z</time>
  <course>247.41</course>
  <speed>2.7404561664073372</speed>
  <fix>3d</fix>
</trkpt>
<trkpt lat="40.071307" lon="-105.2299885">
  <ele>1583.0</ele>
  <time>2026-08-28T17:51:48Z</time>
  <course>246.0</course>
  <speed>2.76</speed>
  <fix>3d</fix>
</trkpt>
<trkpt lat="40.0713039" lon="-105.2299982">
  <ele>1583.02</ele>
  <time>2026-08-28T17:51:48Z</time>
  <course>247.41</course>
  <speed>2.7404561664073372</speed>
  <fix>3d</fix>
</trkpt>
<trkpt lat="40.071307" lon="-105.2299885">
  <ele>1583.0</ele>
  <time>2026-08-28T17:51:48Z</time>
  <course>246.0</course>
  <speed>2.76</speed>
  <fix>3d</fix>
</trkpt>
<trkpt lat="40.0713029" lon="-105.2300012">
  <ele>1583.02</ele>
  <time>2026-08-28T17:51:48Z</time>
  <course>247.41</course>
  <speed>2.7404561664073372</speed>
  <fix>3d</fix>
</trkpt>
<trkpt lat="40.0713049" lon="-105.2299945">
  <ele>1583.0</ele>
  <time>2026-08-28T17:51:48Z</time>
  <course>246.0</course>
  <speed>2.76</speed>
  <fix>3d</fix>
</trkpt>
<trkpt lat="40.0713018" lon="-105.2300041">
  <ele>1583.02</ele>
  <time>2026-08-28T17:51:48Z</time>
  <course>247.41</course>
  <speed>2.7404561664073372</speed>
  <fix>3d</fix>
</trkpt>
<trkpt lat="40.0713049" lon="-105.2299945">
  <ele>1583.0</ele>
  <time>2026-08-28T17:51:48Z</time>
  <course>246.0</course>
  <speed>2.76</speed>
  <fix>3d</fix>
</trkpt>
<trkpt lat="40.0713008" lon="-105.2300071">
  <ele>1583.02</ele>
  <time>2026-08-28T17:51:48Z</time>
  <course>247.41</course>
  <speed>2.7404561664073372</speed>
  <fix>3d</fix>
</trkpt>
<trkpt lat="40.071303" lon="-105.2300004">
  <ele>1583.0</ele>
  <time>2026-08-28T17:51:48Z</time>
  <course>246.0</course>
  <speed>2.76</speed>
  <fix>3d</fix>
</trkpt>
<trkpt lat="40.0712998" lon="-105.23001">
  <ele>1583.02</ele>
  <time>2026-08-28T17:51:48Z</time>
  <course>247.41</course>
  <speed>2.7404561664073372</speed>
  <fix>3d</fix>
</trkpt>
<trkpt lat="40.071301" lon="-105.2300064">
  <ele>1583.0</ele>
  <time>2026-08-28T17:51:48Z</time>
  <course>246.0</course>
  <speed>2.77</speed>
  <fix>3d</fix>
</trkpt>
<trkpt lat="40.0712988" lon="-105.230013">
  <ele>1583.02</ele>
  <time>2026-08-28T17:51:48Z</time>
  <course>247.41</course>
  <speed>2.7404561664073372</speed>
  <fix>3d</fix>
</trkpt>
<trkpt lat="40.071301" lon="-105.2300064">
  <ele>1583.0</ele>
  <time>2026-08-28T17:51:48Z</time>
  <course>246.0</course>
  <speed>2.77</speed>
  <fix>3d</fix>
</trkpt>
<trkpt lat="40.0712978" lon="-105.230016">
  <ele>1583.02</ele>
  <time>2026-08-28T17:51:48Z</time>
  <course>247.41</course>
  <speed>2.7404561664073372</speed>
  <fix>3d</fix>
</trkpt>
<trkpt lat="40.0712989" lon="-105.2300123">
  <ele>1583.0</ele>
  <time>2026-08-28T17:51:48Z</time>
  <course>246.0</course>
  <speed>2.77</speed>
  <fix>3d</fix>
</trkpt>
<trkpt lat="40.0712968" lon="-105.2300189">
  <ele>1583.02</ele>
  <time>2026-08-28T17:51:48Z</time>
  <course>247.42</course>
  <speed>2.7404561664073372</speed>
  <fix>3d</fix>
</trkpt>
<trkpt lat="40.0712989" lon="-105.2300123">
  <ele>1583.0</ele>
  <time>2026-08-28T17:51:48Z</time>
  <course>246.0</course>
  <speed>2.77</speed>
  <fix>3d</fix>
</trkpt>
<trkpt lat="40.0712958" lon="-105.2300219">
  <ele>1583.03</ele>
  <time>2026-08-28T17:51:48Z</time>
  <course>247.42</course>
  <speed>2.7404561664073372</speed>
  <fix>3d</fix>
</trkpt>
<trkpt lat="40.0712968" lon="-105.2300182">
  <ele>1583.0</ele>
  <time>2026-08-28T17:51:48Z</time>
  <course>246.0</course>
  <speed>2.77</speed>
  <fix>3d</fix>
</trkpt>
<trkpt lat="40.0712948" lon="-105.2300249">
  <ele>1583.02</ele>
  <time>2026-08-28T17:51:48Z</time>
  <course>247.42</course>
  <speed>2.7496181553081147</speed>
  <fix>3d</fix>
</trkpt>
<trkpt lat="40.0712968" lon="-105.2300182">
  <ele>1583.0</ele>
  <time>2026-08-28T17:51:48Z</time>
  <course>246.0</course>
  <speed>2.77</speed>
  <fix>3d</fix>
</trkpt>
<trkpt lat="40.0712938" lon="-105.2300279">
  <ele>1583.03</ele>
  <time>2026-08-28T17:51:48Z</time>
  <course>247.42</course>
  <speed>2.7496181553081147</speed>
  <fix>3d</fix>
</trkpt>
<trkpt lat="40.0712949" lon="-105.2300242">
  <ele>1583.0</ele>
  <time>2026-08-28T17:51:48Z</time>
  <course>246.0</course>
  <speed>2.77</speed>
  <fix>3d</fix>
</trkpt>
<trkpt lat="40.0712927" lon="-105.2300309">
  <ele>1583.03</ele>
  <time>2026-08-28T17:51:48Z</time>
  <course>247.42</course>
  <speed>2.7496181553081147</speed>
  <fix>3d</fix>
</trkpt>
<trkpt lat="40.0712949" lon="-105.2300242">
  <ele>1583.0</ele>
  <time>2026-08-28T17:51:48Z</time>
  <course>246.0</course>
  <speed>2.77</speed>
  <fix>3d</fix>
</trkpt>
<trkpt lat="40.0712917" lon="-105.2300339">
  <ele>1583.03</ele>
  <time>2026-08-28T17:51:48Z</time>
  <course>247.42</course>
  <speed>2.7496181553081147</speed>
  <fix>3d</fix>
</trkpt>
<trkpt lat="40.0712928" lon="-105.2300301">
  <ele>1583.0</ele>
  <time>2026-08-28T17:51:48Z</time>
  <course>246.0</course>
  <speed>2.78</speed>
  <fix>3d</fix>
</trkpt>
<trkpt lat="40.0712907" lon="-105.2300369">
  <ele>1583.03</ele>
  <time>2026-08-28T17:51:48Z</time>
  <course>247.42</course>
  <speed>2.7496181553081147</speed>
  <fix>3d</fix>
</trkpt>
<trkpt lat="40.0712928" lon="-105.2300301">
  <ele>1583.0</ele>
  <time>2026-08-28T17:51:48Z</time>
  <course>246.0</course>
  <speed>2.78</speed>
  <fix>3d</fix>
</trkpt>
<trkpt lat="40.0712897" lon="-105.2300399">
  <ele>1583.03</ele>
  <time>2026-08-28T17:51:48Z</time>
  <course>247.42</course>
  <speed>2.7496181553081147</speed>
  <fix>3d</fix>
</trkpt>
<trkpt lat="40.0712908" lon="-105.2300361">
  <ele>1583.0</ele>
  <time>2026-08-28T17:51:48Z</time>
  <course>246.0</course>
  <speed>2.78</speed>
  <fix>3d</fix>
</trkpt>
<trkpt lat="40.0712887" lon="-105.2300429">
  <ele>1583.03</ele>
  <time>2026-08-28T17:51:48Z</time>
  <course>247.42</course>
  <speed>2.7496181553081147</speed>
  <fix>3d</fix>
</trkpt>
<trkpt lat="40.0712908" lon="-105.2300361">
  <ele>1583.0</ele>
  <time>2026-08-28T17:51:48Z</time>
  <course>246.0</course>
  <speed>2.78</speed>
  <fix>3d</fix>
</trkpt>
<trkpt lat="40.0712876" lon="-105.2300459">
  <ele>1583.03</ele>
  <time>2026-08-28T17:51:48Z</time>
  <course>247.42</course>
  <speed>2.7587859648765796</speed>
  <fix>3d</fix>
</trkpt>
<trkpt lat="40.0712888" lon="-105.230042">
  <ele>1583.0</ele>
  <time>2026-08-28T17:51:48Z</time>
  <course>246.0</course>
  <speed>2.78</speed>
  <fix>3d</fix>
</trkpt>
<trkpt lat="40.0712866" lon="-105.2300489">
  <ele>1583.03</ele>
  <time>2026-08-28T17:51:48Z</time>
  <course>247.42</course>
  <speed>2.704958410031474</speed>
  <fix>3d</fix>
</trkpt>
<trkpt lat="40.0712888" lon="-105.230042">
  <ele>1583.0</ele>
  <time>2026-08-28T17:51:48Z</time>
  <course>246.0</course>
  <speed>2.78</speed>
  <fix>3d</fix>
</trkpt>
<trkpt lat="40.0712857" lon="-105.2300518">
  <ele>1583.03</ele>
  <time>2026-08-28T17:51:48Z</time>
  <course>247.42</course>
  <speed>2.5658137110866015</speed>
  <fix>3d</fix>
</trkpt>
<trkpt lat="40.0712888" lon="-105.230042">
  <ele>1583.0</ele>
  <time>2026-08-28T17:51:48Z</time>
  <course>246.0</course>
  <speed>2.78</speed>
  <fix>3d</fix>
</trkpt>
<trkpt lat="40.0712847" lon="-105.2300545">
  <ele>1583.03</ele>
  <time>2026-08-28T17:51:48Z</time>
  <course>247.42</course>
  <speed>2.435836611926178</speed>
  <fix>3d</fix>
</trkpt>
<trkpt lat="40.0712867" lon="-105.230048">
  <ele>1583.0</ele>
  <time>2026-08-28T17:51:48Z</time>
  <course>246.0</course>
  <speed>2.69</speed>
  <fix>3d</fix>
</trkpt>
<trkpt lat="40.0712839" lon="-105.230057">
  <ele>1583.03</ele>
  <time>2026-08-28T17:51:48Z</time>
  <course>247.42</course>
  <speed>2.315016198647431</speed>
  <fix>3d</fix>
</trkpt>
<trkpt lat="40.0712867" lon="-105.230048">
  <ele>1583.0</ele>
  <time>2026-08-28T17:51:48Z</time>
  <course>246.0</course>
  <speed>2.69</speed>
  <fix>3d</fix>
</trkpt>
<trkpt lat="40.071283" lon="-105.2300594">
  <ele>1583.03</ele>
  <time>2026-08-28T17:51:48Z</time>
  <course>247.42</course>
  <speed>2.198226557932553</speed>
  <fix>3d</fix>
</trkpt>
<trkpt lat="40.0712848" lon="-105.2300536">
  <ele>1583.0</ele>
  <time>2026-08-28T17:51:48Z</time>
  <course>246.0</course>
  <speed>2.47</speed>
  <fix>3d</fix>
</trkpt>
<trkpt lat="40.0712822" lon="-105.2300617">
  <ele>1583.04</ele>
  <time>2026-08-28T17:51:48Z</time>
  <course>247.42</course>
  <speed>2.086552180032889</speed>
  <fix>3d</fix>
</trkpt>
<trkpt lat="40.0712848" lon="-105.2300536">
  <ele>1583.0</ele>
  <time>2026-08-28T17:51:48Z</time>
  <course>246.0</course>
  <speed>2.47</speed>
  <fix>3d</fix>
</trkpt>
<trkpt lat="40.0712815" lon="-105.2300639">
  <ele>1583.04</ele>
  <time>2026-08-28T17:51:48Z</time>
  <course>247.42</course>
  <speed>1.9789138435010252</speed>
  <fix>3d</fix>
</trkpt>
<trkpt lat="40.0712831" lon="-105.2300587">
  <ele>1583.0</ele>
  <time>2026-08-28T17:51:48Z</time>
  <course>246.0</course>
  <speed>2.23</speed>
  <fix>3d</fix>
</trkpt>
<trkpt lat="40.0712808" lon="-105.2300659">
  <ele>1583.04</ele>
  <time>2026-08-28T17:51:48Z</time>
  <course>247.42</course>
  <speed>1.8804254837669054</speed>
  <fix>3d</fix>
</trkpt>
<trkpt lat="40.0712816" lon="-105.2300632">
  <ele>1583.0</ele>
  <time>2026-08-28T17:51:48Z</time>
  <course>246.0</course>
  <speed>2.02</speed>
  <fix>3d</fix>
</trkpt>
<trkpt lat="40.0712801" lon="-105.2300679">
  <ele>1583.04</ele>
  <time>2026-08-28T17:51:48Z</time>
  <course>247.42</course>
  <speed>1.7860011198204777</speed>
  <fix>3d</fix>
</trkpt>
<trkpt lat="40.0712816" lon="-105.2300632">
  <ele>1583.0</ele>
  <time>2026-08-28T17:51:48Z</time>
  <course>246.0</course>
  <speed>2.02</speed>
  <fix>3d</fix>
</trkpt>
<trkpt lat="40.0712794" lon="-105.2300698">
  <ele>1583.04</ele>
  <time>2026-08-28T17:51:48Z</time>
  <course>247.42</course>
  <speed>1.6966437457521835</speed>
  <fix>3d</fix>
</trkpt>
<trkpt lat="40.0712801" lon="-105.2300673">
  <ele>1583.0</ele>
  <time>2026-08-28T17:51:48Z</time>
  <course>246.0</course>
  <speed>1.83</speed>
  <fix>3d</fix>
</trkpt>
<trkpt lat="40.0712788" lon="-105.2300715">
  <ele>1583.04</ele>
  <time>2026-08-28T17:51:48Z</time>
  <course>247.42</course>
  <speed>1.6113658802394943</speed>
  <fix>3d</fix>
</trkpt>
<trkpt lat="40.0712801" lon="-105.2300673">
  <ele>1583.0</ele>
  <time>2026-08-28T17:51:48Z</time>
  <course>246.0</course>
  <speed>1.83</speed>
  <fix>3d</fix>
</trkpt>
<trkpt lat="40.0712782" lon="-105.2300732">
  <ele>1583.04</ele>
  <time>2026-08-28T17:51:48Z</time>
  <course>247.42</course>
  <speed>1.5220052562327109</speed>
  <fix>3d</fix>
</trkpt>
<trkpt lat="40.0712788" lon="-105.2300711">
  <ele>1583.0</ele>
  <time>2026-08-28T17:51:48Z</time>
  <course>246.0</course>
  <speed>1.65</speed>
  <fix>3d</fix>
</trkpt>
<trkpt lat="40.0712777" lon="-105.2300748">
  <ele>1583.03</ele>
  <time>2026-08-28T17:51:48Z</time>
  <course>247.42</course>
  <speed>1.445856147754679</speed>
  <fix>3d</fix>
</trkpt>
<trkpt lat="40.0712788" lon="-105.2300711">
  <ele>1583.0</ele>
  <time>2026-08-28T17:51:48Z</time>
  <course>246.0</course>
  <speed>1.65</speed>
  <fix>3d</fix>
</trkpt>
<trkpt lat="40.0712771" lon="-105.2300764">
  <ele>1583.03</ele>
  <time>2026-08-28T17:51:48Z</time>
  <course>247.42</course>
  <speed>1.3697079980784226</speed>
  <fix>3d</fix>
</trkpt>
<trkpt lat="40.0712777" lon="-105.2300745">
  <ele>1583.0</ele>
  <time>2026-08-28T17:51:48Z</time>
  <course>246.0</course>
  <speed>1.5</speed>
  <fix>3d</fix>
</trkpt>
<trkpt lat="40.0712766" lon="-105.2300778">
  <ele>1583.03</ele>
  <time>2026-08-28T17:51:48Z</time>
  <course>247.42</course>
  <speed>1.3067899601695752</speed>
  <fix>3d</fix>
</trkpt>
<trkpt lat="40.0712777" lon="-105.2300745">
  <ele>1583.0</ele>
  <time>2026-08-28T17:51:48Z</time>
  <course>246.0</course>
  <speed>1.5</speed>
  <fix>3d</fix>
</trkpt>
<trkpt lat="40.0712761" lon="-105.2300792">
  <ele>1583.02</ele>
  <time>2026-08-28T17:51:48Z</time>
  <course>247.42</course>
  <speed>1.239758040909596</speed>
  <fix>3d</fix>
</trkpt>
<trkpt lat="40.0712767" lon="-105.2300775">
  <ele>1583.0</ele>
  <time>2026-08-28T17:51:48Z</time>
  <course>246.0</course>
  <speed>1.35</speed>
  <fix>3d</fix>
</trkpt>
<trkpt lat="40.0712757" lon="-105.2300805">
  <ele>1583.01</ele>
  <time>2026-08-28T17:51:48Z</time>
  <course>247.42</course>
  <speed>1.172731853408954</speed>
  <fix>3d</fix>
</trkpt>
<trkpt lat="40.0712767" lon="-105.2300775">
  <ele>1583.0</ele>
  <time>2026-08-28T17:51:48Z</time>
  <course>246.0</course>
  <speed>1.35</speed>
  <fix>3d</fix>
</trkpt>
<trkpt lat="40.0712752" lon="-105.2300818">
  <ele>1583.0</ele>
  <time>2026-08-28T17:51:48Z</time>
  <course>247.42</course>
  <speed>1.1189280584559491</speed>
  <fix>3d</fix>
</trkpt>
<trkpt lat="40.0712757" lon="-105.2300803">
  <ele>1583.0</ele>
  <time>2026-08-28T17:51:48Z</time>
  <course>246.0</course>
  <speed>1.22</speed>
  <fix>3d</fix>
</trkpt>
<trkpt lat="40.0712748" lon="-105.230083">
  <ele>1583.0</ele>
  <time>2026-08-28T17:51:48Z</time>
  <course>247.42</course>
  <speed>1.0560303025955269</speed>
  <fix>3d</fix>
</trkpt>
<trkpt lat="40.0712757" lon="-105.2300803">
  <ele>1583.0</ele>
  <time>2026-08-28T17:51:48Z</time>
  <course>246.0</course>
  <speed>1.22</speed>
  <fix>3d</fix>
</trkpt>
<trkpt lat="40.0712744" lon="-105.2300841">
  <ele>1582.99</ele>
  <time>2026-08-28T17:51:48Z</time>
  <course>247.41</course>
  <speed>1.0072239075796403</speed>
  <fix>3d</fix>
</trkpt>
<trkpt lat="40.0712749" lon="-105.2300827">
  <ele>1583.0</ele>
  <time>2026-08-28T17:51:48Z</time>
  <course>246.0</course>
  <speed>1.11</speed>
  <fix>3d</fix>
</trkpt>
<trkpt lat="40.0712741" lon="-105.2300852">
  <ele>1582.99</ele>
  <time>2026-08-28T17:51:48Z</time>
  <course>247.41</course>
  <speed>0.9534149149242422</speed>
  <fix>3d</fix>
</trkpt>
<trkpt lat="40.0712749" lon="-105.2300827">
  <ele>1583.0</ele>
  <time>2026-08-28T17:51:48Z</time>
  <course>246.0</course>
  <speed>1.11</speed>
  <fix>3d</fix>
</trkpt>
<trkpt lat="40.0712737" lon="-105.2300862">
  <ele>1582.98</ele>
  <time>2026-08-28T17:51:48Z</time>
  <course>247.41</course>
  <speed>0.8996110270555825</speed>
  <fix>3d</fix>
</trkpt>
<trkpt lat="40.0712749" lon="-105.2300827">
  <ele>1583.0</ele>
  <time>2026-08-28T17:51:48Z</time>
  <course>246.0</course>
  <speed>1.11</speed>
  <fix>3d</fix>
</trkpt>
<trkpt lat="40.0712734" lon="-105.2300872">
  <ele>1582.97</ele>
  <time>2026-08-28T17:51:48Z</time>
  <course>247.41</course>
  <speed>0.85492689745966</speed>
  <fix>3d</fix>
</trkpt>
<trkpt lat="40.0712741" lon="-105.2300851">
  <ele>1583.0</ele>
  <time>2026-08-28T17:51:48Z</time>
  <course>246.0</course>
  <speed>1.0</speed>
  <fix>3d</fix>
</trkpt>
<trkpt lat="40.0712731" lon="-105.2300881">
  <ele>1582.97</ele>
  <time>2026-08-28T17:51:48Z</time>
  <course>247.41</course>
  <speed>0.8102468759581859</speed>
  <fix>3d</fix>
</trkpt>
<trkpt lat="40.0712741" lon="-105.2300851">
  <ele>1583.0</ele>
  <time>2026-08-28T17:51:48Z</time>
  <course>246.0</course>
  <speed>1.0</speed>
  <fix>3d</fix>
</trkpt>
<trkpt lat="40.0712728" lon="-105.230089">
  <ele>1582.96</ele>
  <time>2026-08-28T17:51:48Z</time>
  <course>247.41</course>
  <speed>0.7696752561957543</speed>
  <fix>3d</fix>
</trkpt>
<trkpt lat="40.0712734" lon="-105.2300871">
  <ele>1583.0</ele>
  <time>2026-08-28T17:51:48Z</time>
  <course>246.0</course>
  <speed>0.9</speed>
  <fix>3d</fix>
</trkpt>
<trkpt lat="40.0712725" lon="-105.2300898">
  <ele>1582.95</ele>
  <time>2026-08-28T17:51:48Z</time>
  <course>247.41</course>
  <speed>0.7340980860893181</speed>
  <fix>3d</fix>
</trkpt>
<trkpt lat="40.0712734" lon="-105.2300871">
  <ele>1583.0</ele>
  <time>2026-08-28T17:51:48Z</time>
  <course>246.0</course>
  <speed>0.9</speed>
  <fix>3d</fix>
</trkpt>
<trkpt lat="40.0712722" lon="-105.2300906">
  <ele>1582.94</ele>
  <time>2026-08-28T17:51:48Z</time>
  <course>247.41</course>
  <speed>0.6894200461257273</speed>
  <fix>3d</fix>
</trkpt>
<trkpt lat="40.0712728" lon="-105.2300889">
  <ele>1583.0</ele>
  <time>2026-08-28T17:51:48Z</time>
  <course>246.0</course>
  <speed>0.82</speed>
  <fix>3d</fix>
</trkpt>
<trkpt lat="39.655741" lon="-104.1383097">
  <ele>1566.58</ele>
  <time>2026-08-28T17:51:49Z</time>
  <course>0.0</course>
  <speed>0.0</speed>
  <fix>3d</fix>
</trkpt>
<trkpt lat="40.0713749" lon="-105.229789">
  <ele>1583.0</ele>
  <time>2026-08-28T17:51:49Z</time>
  <course>0.0</course>
  <speed>0.0</speed>
  <fix>3d</fix>
</trkpt>
<trkpt lat="40.0713749" lon="-105.229789">
  <ele>1583.0</ele>
  <time>2026-08-28T17:51:49Z</time>
  <course>238.36</course>
  <speed>0.0</speed>
  <fix>3d</fix>
</trkpt>
<trkpt lat="40.0713749" lon="-105.229789">
  <ele>1583.0</ele>
  <time>2026-08-28T17:51:49Z</time>
  <course>0.0</course>
  <speed>0.0</speed>
  <fix>3d</fix>
</trkpt>
<trkpt lat="40.0713749" lon="-105.229789">
  <ele>1583.0</ele>
  <time>2026-08-28T17:51:49Z</time>
  <course>238.44</course>
  <speed>0.0</speed>
  <fix>3d</fix>
</trkpt>
<trkpt lat="40.0713749" lon="-105.229789">
  <ele>1583.0</ele>
  <time>2026-08-28T17:51:49Z</time>
  <course>0.0</course>
  <speed>0.0</speed>
  <fix>3d</fix>
</trkpt>
<trkpt lat="40.0713749" lon="-105.229789">
  <ele>1583.0</ele>
  <time>2026-08-28T17:51:49Z</time>
  <course>238.64</course>
  <speed>0.0</speed>
  <fix>3d</fix>
</trkpt>
<trkpt lat="40.0713749" lon="-105.229789">
  <ele>1583.0</ele>
  <time>2026-08-28T17:51:49Z</time>
  <course>0.0</course>
  <speed>0.0</speed>
  <fix>3d</fix>
</trkpt>
<trkpt lat="40.0713749" lon="-105.229789">
  <ele>1583.0</ele>
  <time>2026-08-28T17:51:49Z</time>
  <course>238.93</course>
  <speed>0.0</speed>
  <fix>3d</fix>
</trkpt>
<trkpt lat="40.0713749" lon="-105.229789">
  <ele>1583.0</ele>
  <time>2026-08-28T17:51:49Z</time>
  <course>0.0</course>
  <speed>0.0</speed>
  <fix>3d</fix>
</trkpt>
<trkpt lat="40.0713749" lon="-105.229789">
  <ele>1583.0</ele>
  <time>2026-08-28T17:51:49Z</time>
  <course>239.26</course>
  <speed>0.0</speed>
  <fix>3d</fix>
</trkpt>
<trkpt lat="40.0713749" lon="-105.229789">
  <ele>1583.0</ele>
  <time>2026-08-28T17:51:49Z</time>
  <course>0.0</course>
  <speed>0.0</speed>
  <fix>3d</fix>
</trkpt>
<trkpt lat="40.0713749" lon="-105.229789">
  <ele>1583.0</ele>
  <time>2026-08-28T17:51:49Z</time>
  <course>239.61</course>
  <speed>0.0</speed>
  <fix>3d</fix>
</trkpt>
<trkpt lat="40.0713749" lon="-105.229789">
  <ele>1583.0</ele>
  <time>2026-08-28T17:51:49Z</time>
  <course>0.0</course>
  <speed>0.0</speed>
  <fix>3d</fix>
</trkpt>
<trkpt lat="40.0713749" lon="-105.229789">
  <ele>1583.0</ele>
  <time>2026-08-28T17:51:49Z</time>
  <course>239.96</course>
  <speed>0.0</speed>
  <fix>3d</fix>
</trkpt>
<trkpt lat="40.0713749" lon="-105.229789">
  <ele>1583.0</ele>
  <time>2026-08-28T17:51:49Z</time>
  <course>0.0</course>
  <speed>0.0</speed>
  <fix>3d</fix>
</trkpt>
<trkpt lat="40.0713749" lon="-105.229789">
  <ele>1583.0</ele>
  <time>2026-08-28T17:51:49Z</time>
  <course>240.29</course>
  <speed>0.0</speed>
  <fix>3d</fix>
</trkpt>
<trkpt lat="40.0713749" lon="-105.229789">
  <ele>1583.0</ele>
  <time>2026-08-28T17:51:49Z</time>
  <course>0.0</course>
  <speed>0.0</speed>
  <fix>3d</fix>
</trkpt>
<trkpt lat="40.0713749" lon="-105.229789">
  <ele>1583.0</ele>
  <time>2026-08-28T17:51:49Z</time>
  <course>240.61</course>
  <speed>0.0</speed>
  <fix>3d</fix>
</trkpt>
<trkpt lat="40.0713749" lon="-105.229789">
  <ele>1583.0</ele>
  <time>2026-08-28T17:51:49Z</time>
  <course>0.0</course>
  <speed>0.0</speed>
  <fix>3d</fix>
</trkpt>
<trkpt lat="40.0713749" lon="-105.229789">
  <ele>1583.0</ele>
  <time>2026-08-28T17:51:49Z</time>
  <course>240.92</course>
  <speed>0.0</speed>
  <fix>3d</fix>
</trkpt>
<trkpt lat="40.0713749" lon="-105.229789">
  <ele>1583.0</ele>
  <time>2026-08-28T17:51:49Z</time>
  <course>0.0</course>
  <speed>0.0</speed>
  <fix>3d</fix>
</trkpt>
<trkpt lat="40.0713749" lon="-105.229789">
  <ele>1583.0</ele>
  <time>2026-08-28T17:51:49Z</time>
  <course>241.21</course>
  <speed>0.0</speed>
  <fix>3d</fix>
</trkpt>
<trkpt lat="40.0713749" lon="-105.229789">
  <ele>1583.0</ele>
  <time>2026-08-28T17:51:49Z</time>
  <course>0.0</course>
  <speed>0.0</speed>
  <fix>3d</fix>
</trkpt>
<trkpt lat="40.0713749" lon="-105.229789">
  <ele>1583.0</ele>
  <time>2026-08-28T17:51:49Z</time>
  <course>241.49</course>
  <speed>0.0</speed>
  <fix>3d</fix>
</trkpt>
<trkpt lat="40.0713749" lon="-105.229789">
  <ele>1583.0</ele>
  <time>2026-08-28T17:51:49Z</time>
  <course>0.0</course>
  <speed>0.0</speed>
  <fix>3d</fix>
</trkpt>
<trkpt lat="40.0713749" lon="-105.229789">
  <ele>1583.0</ele>
  <time>2026-08-28T17:51:49Z</time>
  <course>241.77</course>
  <speed>0.0</speed>
  <fix>3d</fix>
</trkpt>
<trkpt lat="40.0713749" lon="-105.229789">
  <ele>1583.0</ele>
  <time>2026-08-28T17:51:49Z</time>
  <course>0.0</course>
  <speed>0.0</speed>
  <fix>3d</fix>
</trkpt>
<trkpt lat="40.0713749" lon="-105.229789">
  <ele>1583.0</ele>
  <time>2026-08-28T17:51:49Z</time>
  <course>242.03</course>
  <speed>0.0</speed>
  <fix>3d</fix>
</trkpt>
<trkpt lat="40.0713749" lon="-105.229789">
  <ele>1583.0</ele>
  <time>2026-08-28T17:51:49Z</time>
  <course>0.0</course>
  <speed>0.0</speed>
  <fix>3d</fix>
</trkpt>
<trkpt lat="40.0713749" lon="-105.229789">
  <ele>1583.0</ele>
  <time>2026-08-28T17:51:49Z</time>
  <course>242.29</course>
  <speed>0.0</speed>
  <fix>3d</fix>
</trkpt>
<trkpt lat="40.0713749" lon="-105.229789">
  <ele>1583.0</ele>
  <time>2026-08-28T17:51:49Z</time>
  <course>0.0</course>
  <speed>0.0</speed>
  <fix>3d</fix>
</trkpt>
<trkpt lat="40.0713749" lon="-105.229789">
  <ele>1583.0</ele>
  <time>2026-08-28T17:51:49Z</time>
  <course>242.54</course>
  <speed>0.0</speed>
  <fix>3d</fix>
</trkpt>
<trkpt lat="40.0713749" lon="-105.229789">
  <ele>1583.0</ele>
  <time>2026-08-28T17:51:49Z</time>
  <course>0.0</course>
  <speed>0.0</speed>
  <fix>3d</fix>
</trkpt>
<trkpt lat="40.0713749" lon="-105.229789">
  <ele>1583.0</ele>
  <time>2026-08-28T17:51:49Z</time>
  <course>242.79</course>
  <speed>0.0</speed>
  <fix>3d</fix>
</trkpt>
<trkpt lat="40.0713749" lon="-105.229789">
  <ele>1583.0</ele>
  <time>2026-08-28T17:51:49Z</time>
  <course>0.0</course>
  <speed>0.0</speed>
  <fix>3d</fix>
</trkpt>
<trkpt lat="40.0713749" lon="-105.229789">
  <ele>1583.0</ele>
  <time>2026-08-28T17:51:49Z</time>
  <course>243.02</course>
  <speed>0.0</speed>
  <fix>3d</fix>
</trkpt>
<trkpt lat="40.0713749" lon="-105.229789">
  <ele>1583.0</ele>
  <time>2026-08-28T17:51:49Z</time>
  <course>0.0</course>
  <speed>0.0</speed>
  <fix>3d</fix>
</trkpt>
<trkpt lat="40.0713749" lon="-105.229789">
  <ele>1583.0</ele>
  <time>2026-08-28T17:51:49Z</time>
  <course>243.25</course>
  <speed>0.0</speed>
  <fix>3d</fix>
</trkpt>
<trkpt lat="40.0713749" lon="-105.229789">
  <ele>1583.0</ele>
  <time>2026-08-28T17:51:49Z</time>
  <course>0.0</course>
  <speed>0.0</speed>
  <fix>3d</fix>
</trkpt>
<trkpt lat="40.0713749" lon="-105.229789">
  <ele>1583.0</ele>
  <time>2026-08-28T17:51:49Z</time>
  <course>243.47</course>
  <speed>0.0</speed>
  <fix>3d</fix>
</trkpt>
<trkpt lat="40.0713749" lon="-105.229789">
  <ele>1583.0</ele>
  <time>2026-08-28T17:51:49Z</time>
  <course>0.0</course>
  <speed>0.0</speed>
  <fix>3d</fix>
</trkpt>
<trkpt lat="40.0713749" lon="-105.229789">
  <ele>1583.0</ele>
  <time>2026-08-28T17:51:49Z</time>
  <course>243.68</course>
  <speed>0.0</speed>
  <fix>3d</fix>
</trkpt>
<trkpt lat="40.0713749" lon="-105.229789">
  <ele>1583.0</ele>
  <time>2026-08-28T17:51:49Z</time>
  <course>0.0</course>
  <speed>0.0</speed>
  <fix>3d</fix>
</trkpt>
<trkpt lat="40.0713749" lon="-105.229789">
  <ele>1583.0</ele>
  <time>2026-08-28T17:51:49Z</time>
  <course>243.89</course>
  <speed>0.0</speed>
  <fix>3d</fix>
</trkpt>
<trkpt lat="40.0713749" lon="-105.229789">
  <ele>1583.0</ele>
  <time>2026-08-28T17:51:49Z</time>
  <course>0.0</course>
  <speed>0.0</speed>
  <fix>3d</fix>
</trkpt>
<trkpt lat="40.0713749" lon="-105.229789">
  <ele>1583.0</ele>
  <time>2026-08-28T17:51:49Z</time>
  <course>244.09</course>
  <speed>0.0</speed>
  <fix>3d</fix>
</trkpt>
<trkpt lat="40.0713749" lon="-105.229789">
  <ele>1583.0</ele>
  <time>2026-08-28T17:51:49Z</time>
  <course>0.0</course>
  <speed>0.0</speed>
  <fix>3d</fix>
</trkpt>
<trkpt lat="40.0713749" lon="-105.229789">
  <ele>1583.0</ele>
  <time>2026-08-28T17:51:49Z</time>
  <course>244.28</course>
  <speed>0.0</speed>
  <fix>3d</fix>
</trkpt>
<trkpt lat="40.0713749" lon="-105.229789">
  <ele>1583.0</ele>
  <time>2026-08-28T17:51:49Z</time>
  <course>0.0</course>
  <speed>0.0</speed>
  <fix>3d</fix>
</trkpt>
<trkpt lat="40.0713749" lon="-105.229789">
  <ele>1583.0</ele>
  <time>2026-08-28T17:51:49Z</time>
  <course>244.46</course>
  <speed>0.0</speed>
  <fix>3d</fix>
</trkpt>
<trkpt lat="40.0713749" lon="-105.229789">
  <ele>1583.0</ele>
  <time>2026-08-28T17:51:49Z</time>
  <course>0.0</course>
  <speed>0.0</speed>
  <fix>3d</fix>
</trkpt>
<trkpt lat="40.0713749" lon="-105.229789">
  <ele>1583.0</ele>
  <time>2026-08-28T17:51:49Z</time>
  <course>244.64</course>
  <speed>0.0</speed>
  <fix>3d</fix>
</trkpt>
<trkpt lat="40.0713749" lon="-105.229789">
  <ele>1583.0</ele>
  <time>2026-08-28T17:51:49Z</time>
  <course>0.0</course>
  <speed>0.0</speed>
  <fix>3d</fix>
</trkpt>
<trkpt lat="40.0713749" lon="-105.229789">
  <ele>1583.0</ele>
  <time>2026-08-28T17:51:49Z</time>
  <course>244.81</course>
  <speed>0.0</speed>
  <fix>3d</fix>
</trkpt>
<trkpt lat="40.0713749" lon="-105.229789">
  <ele>1583.0</ele>
  <time>2026-08-28T17:51:49Z</time>
  <course>0.0</course>
  <speed>0.0</speed>
  <fix>3d</fix>
</trkpt>
<trkpt lat="40.0713749" lon="-105.229789">
  <ele>1583.0</ele>
  <time>2026-08-28T17:51:49Z</time>
  <course>244.97</course>
  <speed>0.0</speed>
  <fix>3d</fix>
</trkpt>
<trkpt lat="40.0713749" lon="-105.229789">
  <ele>1583.0</ele>
  <time>2026-08-28T17:51:49Z</time>
  <course>0.0</course>
  <speed>0.0</speed>
  <fix>3d</fix>
</trkpt>
<trkpt lat="40.0713749" lon="-105.229789">
  <ele>1583.0</ele>
  <time>2026-08-28T17:51:49Z</time>
  <course>245.13</course>
  <speed>0.0</speed>
  <fix>3d</fix>
</trkpt>
<trkpt lat="40.0713749" lon="-105.229789">
  <ele>1583.0</ele>
  <time>2026-08-28T17:51:49Z</time>
  <course>0.0</course>
  <speed>0.0</speed>
  <fix>3d</fix>
</trkpt>
<trkpt lat="40.0713749" lon="-105.229789">
  <ele>1583.0</ele>
  <time>2026-08-28T17:51:49Z</time>
  <course>245.29</course>
  <speed>0.0</speed>
  <fix>3d</fix>
</trkpt>
<trkpt lat="40.0713749" lon="-105.229789">
  <ele>1583.0</ele>
  <time>2026-08-28T17:51:49Z</time>
  <course>0.0</course>
  <speed>0.0</speed>
  <fix>3d</fix>
</trkpt>
<trkpt lat="40.0713749" lon="-105.229789">
  <ele>1583.0</ele>
  <time>2026-08-28T17:51:49Z</time>
  <course>245.43</course>
  <speed>0.0</speed>
  <fix>3d</fix>
</trkpt>
<trkpt lat="40.0713749" lon="-105.229789">
  <ele>1583.0</ele>
  <time>2026-08-28T17:51:49Z</time>
  <course>0.0</course>
  <speed>0.0</speed>
  <fix>3d</fix>
</trkpt>
<trkpt lat="40.0713749" lon="-105.229789">
  <ele>1583.0</ele>
  <time>2026-08-28T17:51:49Z</time>
  <course>245.57</course>
  <speed>0.0</speed>
  <fix>3d</fix>
</trkpt>
<trkpt lat="40.0713749" lon="-105.229789">
  <ele>1583.0</ele>
  <time>2026-08-28T17:51:49Z</time>
  <course>0.0</course>
  <speed>0.0</speed>
  <fix>3d</fix>
</trkpt>
<trkpt lat="40.0713749" lon="-105.229789">
  <ele>1583.0</ele>
  <time>2026-08-28T17:51:49Z</time>
  <course>245.71</course>
  <speed>0.0</speed>
  <fix>3d</fix>
</trkpt>
<trkpt lat="40.0713749" lon="-105.229789">
  <ele>1583.0</ele>
  <time>2026-08-28T17:51:49Z</time>
  <course>0.0</course>
  <speed>0.0</speed>
  <fix>3d</fix>
</trkpt>
<trkpt lat="40.0713749" lon="-105.229789">
  <ele>1583.0</ele>
  <time>2026-08-28T17:51:49Z</time>
  <course>245.84</course>
  <speed>0.0</speed>
  <fix>3d</fix>
</trkpt>
<trkpt lat="40.0713749" lon="-105.229789">
  <ele>1583.0</ele>
  <time>2026-08-28T17:51:49Z</time>
  <course>0.0</course>
  <speed>0.0</speed>
  <fix>3d</fix>
</trkpt>
<trkpt lat="40.0713749" lon="-105.229789">
  <ele>1583.0</ele>
  <time>2026-08-28T17:51:49Z</time>
  <course>245.96</course>
  <speed>0.0</speed>
  <fix>3d</fix>
</trkpt>
<trkpt lat="40.0713749" lon="-105.229789">
  <ele>1583.0</ele>
  <time>2026-08-28T17:51:49Z</time>
  <course>0.0</course>
  <speed>0.0</speed>
  <fix>3d</fix>
</trkpt>
<trkpt lat="40.0713749" lon="-105.229789">
  <ele>1583.0</ele>
  <time>2026-08-28T17:51:49Z</time>
  <course>246.08</course>
  <speed>0.0</speed>
  <fix>3d</fix>
</trkpt>
<trkpt lat="40.0713749" lon="-105.229789">
  <ele>1583.0</ele>
  <time>2026-08-28T17:51:49Z</time>
  <course>0.0</course>
  <speed>0.0</speed>
  <fix>3d</fix>
</trkpt>
<trkpt lat="40.0713749" lon="-105.229789">
  <ele>1583.0</ele>
  <time>2026-08-28T17:51:49Z</time>
  <course>246.19</course>
  <speed>0.0</speed>
  <fix>3d</fix>
</trkpt>
<trkpt lat="40.0713749" lon="-105.229789">
  <ele>1583.0</ele>
  <time>2026-08-28T17:51:49Z</time>
  <course>0.0</course>
  <speed>0.0</speed>
  <fix>3d</fix>
</trkpt>
<trkpt lat="40.0713749" lon="-105.229789">
  <ele>1583.0</ele>
  <time>2026-08-28T17:51:49Z</time>
  <course>246.3</course>
  <speed>0.0</speed>
  <fix>3d</fix>
</trkpt>
<trkpt lat="40.0713749" lon="-105.229789">
  <ele>1583.0</ele>
  <time>2026-08-28T17:51:49Z</time>
  <course>0.0</course>
  <speed>0.0</speed>
  <fix>3d</fix>
</trkpt>
<trkpt lat="40.0713749" lon="-105.229789">
  <ele>1583.0</ele>
  <time>2026-08-28T17:51:49Z</time>
  <course>246.41</course>
  <speed>0.0</speed>
  <fix>3d</fix>
</trkpt>
<trkpt lat="40.0713749" lon="-105.229789">
  <ele>1583.0</ele>
  <time>2026-08-28T17:51:49Z</time>
  <course>0.0</course>
  <speed>0.0</speed>
  <fix>3d</fix>
</trkpt>
<trkpt lat="40.0713749" lon="-105.229789">
  <ele>1583.0</ele>
  <time>2026-08-28T17:51:49Z</time>
  <course>246.51</course>
  <speed>0.0</speed>
  <fix>3d</fix>
</trkpt>
<trkpt lat="40.0713749" lon="-105.229789">
  <ele>1583.0</ele>
  <time>2026-08-28T17:51:49Z</time>
  <course>0.0</course>
  <speed>0.0</speed>
  <fix>3d</fix>
</trkpt>
<trkpt lat="40.0713749" lon="-105.229789">
  <ele>1583.0</ele>
  <time>2026-08-28T17:51:49Z</time>
  <course>246.6</course>
  <speed>0.0</speed>
  <fix>3d</fix>
</trkpt>
<trkpt lat="40.0713749" lon="-105.229789">
  <ele>1583.0</ele>
  <time>2026-08-28T17:51:49Z</time>
  <course>0.0</course>
  <speed>0.0</speed>
  <fix>3d</fix>
</trkpt>
<trkpt lat="40.0713749" lon="-105.229789">
  <ele>1583.0</ele>
  <time>2026-08-28T17:51:49Z</time>
  <course>246.7</course>
  <speed>0.0</speed>
  <fix>3d</fix>
</trkpt>
<trkpt lat="40.0713749" lon="-105.229789">
  <ele>1583.0</ele>
  <time>2026-08-28T17:51:49Z</time>
  <course>0.0</course>
  <speed>0.0</speed>
  <fix>3d</fix>
</trkpt>
<trkpt lat="40.0713749" lon="-105.229789">
  <ele>1583.0</ele>
  <time>2026-08-28T17:51:49Z</time>
  <course>246.78</course>
  <speed>0.0</speed>
  <fix>3d</fix>
</trkpt>
<trkpt lat="40.0713749" lon="-105.229789">
  <ele>1583.0</ele>
  <time>2026-08-28T17:51:49Z</time>
  <course>0.0</course>
  <speed>0.0</speed>
  <fix>3d</fix>
</trkpt>
<trkpt lat="40.0713749" lon="-105.229789">
  <ele>1583.0</ele>
  <time>2026-08-28T17:51:49Z</time>
  <course>246.87</course>
  <speed>0.0</speed>
  <fix>3d</fix>
</trkpt>
<trkpt lat="40.0713749" lon="-105.229789">
  <ele>1583.0</ele>
  <time>2026-08-28T17:51:49Z</time>
  <course>0.0</course>
  <speed>0.0</speed>
  <fix>3d</fix>
</trkpt>
<trkpt lat="40.0713749" lon="-105.229789">
  <ele>1583.0</ele>
  <time>2026-08-28T17:51:49Z</time>
  <course>246.95</course>
  <speed>0.0</speed>
  <fix>3d</fix>
</trkpt>
<trkpt lat="40.0713749" lon="-105.229789">
  <ele>1583.0</ele>
  <time>2026-08-28T17:51:49Z</time>
  <course>0.0</course>
  <speed>0.0</speed>
  <fix>3d</fix>
</trkpt>
<trkpt lat="40.0713749" lon="-105.229789">
  <ele>1583.0</ele>
  <time>2026-08-28T17:51:49Z</time>
  <course>247.02</course>
  <speed>0.0</speed>
  <fix>3d</fix>
</trkpt>
<trkpt lat="40.0713749" lon="-105.229789">
  <ele>1583.0</ele>
  <time>2026-08-28T17:51:49Z</time>
  <course>0.0</course>
  <speed>0.0</speed>
  <fix>3d</fix>
</trkpt>
<trkpt lat="40.0713749" lon="-105.229789">
  <ele>1583.0</ele>
  <time>2026-08-28T17:51:49Z</time>
  <course>247.1</course>
  <speed>0.0</speed>
  <fix>3d</fix>
</trkpt>
<trkpt lat="40.0713749" lon="-105.229789">
  <ele>1583.0</ele>
  <time>2026-08-28T17:51:49Z</time>
  <course>0.0</course>
  <speed>0.0</speed>
  <fix>3d</fix>
</trkpt>
<trkpt lat="40.0713749" lon="-105.229789">
  <ele>1583.0</ele>
  <time>2026-08-28T17:51:49Z</time>
  <course>247.17</course>
  <speed>0.0</speed>
  <fix>3d</fix>
</trkpt>
<trkpt lat="40.0713749" lon="-105.229789">
  <ele>1583.0</ele>
  <time>2026-08-28T17:51:49Z</time>
  <course>0.0</course>
  <speed>0.0</speed>
  <fix>3d</fix>
</trkpt>
<trkpt lat="40.0713749" lon="-105.229789">
  <ele>1583.0</ele>
  <time>2026-08-28T17:51:49Z</time>
  <course>247.24</course>
  <speed>0.0</speed>
  <fix>3d</fix>
</trkpt>
<trkpt lat="40.0713749" lon="-105.229789">
  <ele>1583.0</ele>
  <time>2026-08-28T17:51:49Z</time>
  <course>0.0</course>
  <speed>0.0</speed>
  <fix>3d</fix>
</trkpt>
<trkpt lat="40.0713749" lon="-105.229789">
  <ele>1583.0</ele>
  <time>2026-08-28T17:51:49Z</time>
  <course>247.3</course>
  <speed>0.0</speed>
  <fix>3d</fix>
</trkpt>
<trkpt lat="40.0713749" lon="-105.229789">
  <ele>1583.0</ele>
  <time>2026-08-28T17:51:49Z</time>
  <course>0.0</course>
  <speed>0.0</speed>
  <fix>3d</fix>
</trkpt>
<trkpt lat="40.0713749" lon="-105.229789">
  <ele>1583.0</ele>
  <time>2026-08-28T17:51:49Z</time>
  <course>247.36</course>
  <speed>0.0</speed>
  <fix>3d</fix>
</trkpt>
<trkpt lat="40.0713749" lon="-105.229789">
  <ele>1583.0</ele>
  <time>2026-08-28T17:51:49Z</time>
  <course>0.0</course>
  <speed>0.0</speed>
  <fix>3d</fix>
</trkpt>
<trkpt lat="40.0713749" lon="-105.229789">
  <ele>1583.0</ele>
  <time>2026-08-28T17:51:49Z</time>
  <course>247.42</course>
  <speed>0.0</speed>
  <fix>3d</fix>
</trkpt>
<trkpt lat="40.0713749" lon="-105.229789">
  <ele>1583.0</ele>
  <time>2026-08-28T17:51:49Z</time>
  <course>0.0</course>
  <speed>0.0</speed>
  <fix>3d</fix>
</trkpt>
<trkpt lat="40.0713749" lon="-105.229789">
  <ele>1583.0</ele>
  <time>2026-08-28T17:51:49Z</time>
  <course>247.47</course>
  <speed>0.0</speed>
  <fix>3d</fix>
</trkpt>
<trkpt lat="40.0713749" lon="-105.229789">
  <ele>1583.0</ele>
  <time>2026-08-28T17:51:49Z</time>
  <course>0.0</course>
  <speed>0.0</speed>
  <fix>3d</fix>
</trkpt>
<trkpt lat="40.0713749" lon="-105.229789">
  <ele>1583.0</ele>
  <time>2026-08-28T17:51:49Z</time>
  <course>247.53</course>
  <speed>0.0</speed>
  <fix>3d</fix>
</trkpt>
<trkpt lat="40.0713749" lon="-105.229789">
  <ele>1583.0</ele>
  <time>2026-08-28T17:51:49Z</time>
  <course>0.0</course>
  <speed>0.0</speed>
  <fix>3d</fix>
</trkpt>
<trkpt lat="40.0713749" lon="-105.229789">
  <ele>1583.0</ele>
  <time>2026-08-28T17:51:49Z</time>
  <course>247.58</course>
  <speed>0.0</speed>
  <fix>3d</fix>
</trkpt>
<trkpt lat="40.0713749" lon="-105.229789">
  <ele>1583.0</ele>
  <time>2026-08-28T17:51:49Z</time>
  <course>0.0</course>
  <speed>0.0</speed>
  <fix>3d</fix>
</trkpt>
<trkpt lat="40.0713749" lon="-105.229789">
  <ele>1583.0</ele>
  <time>2026-08-28T17:51:49Z</time>
  <course>247.63</course>
  <speed>0.0</speed>
  <fix>3d</fix>
</trkpt>
<trkpt lat="40.0713749" lon="-105.229789">
  <ele>1583.0</ele>
  <time>2026-08-28T17:51:49Z</time>
  <course>0.0</course>
  <speed>0.0</speed>
  <fix>3d</fix>
</trkpt>
<trkpt lat="40.0713749" lon="-105.229789">
  <ele>1583.0</ele>
  <time>2026-08-28T17:51:49Z</time>
  <course>247.67</course>
  <speed>0.0</speed>
  <fix>3d</fix>
</trkpt>
<trkpt lat="40.0713749" lon="-105.229789">
  <ele>1583.0</ele>
  <time>2026-08-28T17:51:49Z</time>
  <course>0.0</course>
  <speed>0.0</speed>
  <fix>3d</fix>
</trkpt>
<trkpt lat="40.0713749" lon="-105.229789">
  <ele>1583.0</ele>
  <time>2026-08-28T17:51:49Z</time>
  <course>247.72</course>
  <speed>0.0</speed>
  <fix>3d</fix>
</trkpt>
<trkpt lat="40.0713749" lon="-105.229789">
  <ele>1583.0</ele>
  <time>2026-08-28T17:51:49Z</time>
  <course>0.0</course>
  <speed>0.0</speed>
  <fix>3d</fix>
</trkpt>
<trkpt lat="40.0713749" lon="-105.229789">
  <ele>1583.0</ele>
  <time>2026-08-28T17:51:49Z</time>
  <course>247.76</course>
  <speed>0.0</speed>
  <fix>3d</fix>
</trkpt>
<trkpt lat="40.0713749" lon="-105.229789">
  <ele>1583.0</ele>
  <time>2026-08-28T17:51:49Z</time>
  <course>0.0</course>
  <speed>0.0</speed>
  <fix>3d</fix>
</trkpt>
<trkpt lat="40.0713749" lon="-105.229789">
  <ele>1583.0</ele>
  <time>2026-08-28T17:51:49Z</time>
  <course>247.8</course>
  <speed>0.0</speed>
  <fix>3d</fix>
</trkpt>
<trkpt lat="40.0713749" lon="-105.229789">
  <ele>1583.0</ele>
  <time>2026-08-28T17:51:49Z</time>
  <course>0.0</course>
  <speed>0.0</speed>
  <fix>3d</fix>
</trkpt>
<trkpt lat="40.0713749" lon="-105.229789">
  <ele>1583.0</ele>
  <time>2026-08-28T17:51:49Z</time>
  <course>247.83</course>
  <speed>0.0</speed>
  <fix>3d</fix>
</trkpt>
<trkpt lat="40.0713749" lon="-105.229789">
  <ele>1583.0</ele>
  <time>2026-08-28T17:51:49Z</time>
  <course>0.0</course>
  <speed>0.0</speed>
  <fix>3d</fix>
</trkpt>
<trkpt lat="40.0713749" lon="-105.229789">
  <ele>1583.0</ele>
  <time>2026-08-28T17:51:49Z</time>
  <course>247.87</course>
  <speed>0.0</speed>
  <fix>3d</fix>
</trkpt>
<trkpt lat="40.0713749" lon="-105.229789">
  <ele>1583.0</ele>
  <time>2026-08-28T17:51:49Z</time>
  <course>0.0</course>
  <speed>0.0</speed>
  <fix>3d</fix>
</trkpt>
<trkpt lat="40.0713749" lon="-105.229789">
  <ele>1583.0</ele>
  <time>2026-08-28T17:51:49Z</time>
  <course>247.9</course>
  <speed>0.0</speed>
  <fix>3d</fix>
</trkpt>
<trkpt lat="40.0713749" lon="-105.229789">
  <ele>1583.0</ele>
  <time>2026-08-28T17:51:49Z</time>
  <course>0.0</course>
  <speed>0.0</speed>
  <fix>3d</fix>
</trkpt>
<trkpt lat="40.0713749" lon="-105.229789">
  <ele>1583.0</ele>
  <time>2026-08-28T17:51:49Z</time>
  <course>247.94</course>
  <speed>0.0</speed>
  <fix>3d</fix>
</trkpt>
<trkpt lat="40.0713749" lon="-105.229789">
  <ele>1583.0</ele>
  <time>2026-08-28T17:51:49Z</time>
  <course>0.0</course>
  <speed>0.0</speed>
  <fix>3d</fix>
</trkpt>
<trkpt lat="40.0713749" lon="-105.229789">
  <ele>1583.0</ele>
  <time>2026-08-28T17:51:49Z</time>
  <course>247.97</course>
  <speed>0.0</speed>
  <fix>3d</fix>
</trkpt>
<trkpt lat="40.0713749" lon="-105.229789">
  <ele>1583.0</ele>
  <time>2026-08-28T17:51:49Z</time>
  <course>0.0</course>
  <speed>0.0</speed>
  <fix>3d</fix>
</trkpt>
<trkpt lat="40.0713749" lon="-105.229789">
  <ele>1583.0</ele>
  <time>2026-08-28T17:51:49Z</time>
  <course>248.0</course>
  <speed>0.0</speed>
  <fix>3d</fix>
</trkpt>
<trkpt lat="40.0713749" lon="-105.229789">
  <ele>1583.0</ele>
  <time>2026-08-28T17:51:49Z</time>
  <course>0.0</course>
  <speed>0.0</speed>
  <fix>3d</fix>
</trkpt>
<trkpt lat="40.0713749" lon="-105.229789">
  <ele>1583.0</ele>
  <time>2026-08-28T17:51:49Z</time>
  <course>248.02</course>
  <speed>0.0</speed>
  <fix>3d</fix>
</trkpt>
<trkpt lat="40.0713749" lon="-105.229789">
  <ele>1583.0</ele>
  <time>2026-08-28T17:51:49Z</time>
  <course>0.0</course>
  <speed>0.0</speed>
  <fix>3d</fix>
</trkpt>
<trkpt lat="40.0713749" lon="-105.229789">
  <ele>1583.0</ele>
  <time>2026-08-28T17:51:49Z</time>
  <course>248.05</course>
  <speed>0.0</speed>
  <fix>3d</fix>
</trkpt>
<trkpt lat="40.0713749" lon="-105.229789">
  <ele>1583.0</ele>
  <time>2026-08-28T17:51:49Z</time>
  <course>0.0</course>
  <speed>0.0</speed>
  <fix>3d</fix>
</trkpt>
<trkpt lat="40.0713749" lon="-105.229789">
  <ele>1583.0</ele>
  <time>2026-08-28T17:51:49Z</time>
  <course>248.08</course>
  <speed>0.0</speed>
  <fix>3d</fix>
</trkpt>
<trkpt lat="40.0713749" lon="-105.229789">
  <ele>1583.0</ele>
  <time>2026-08-28T17:51:49Z</time>
  <course>0.0</course>
  <speed>0.0</speed>
  <fix>3d</fix>
</trkpt>
<trkpt lat="40.0713749" lon="-105.229789">
  <ele>1583.0</ele>
  <time>2026-08-28T17:51:49Z</time>
  <course>248.1</course>
  <speed>0.0</speed>
  <fix>3d</fix>
</trkpt>
<trkpt lat="40.0713749" lon="-105.229789">
  <ele>1583.0</ele>
  <time>2026-08-28T17:51:49Z</time>
  <course>0.0</course>
  <speed>0.0</speed>
  <fix>3d</fix>
</trkpt>
<trkpt lat="40.0713749" lon="-105.229789">
  <ele>1583.0</ele>
  <time>2026-08-28T17:51:49Z</time>
  <course>248.12</course>
  <speed>0.0</speed>
  <fix>3d</fix>
</trkpt>
<trkpt lat="40.0713749" lon="-105.229789">
  <ele>1583.0</ele>
  <time>2026-08-28T17:51:49Z</time>
  <course>0.0</course>
  <speed>0.0</speed>
  <fix>3d</fix>
</trkpt>
<trkpt lat="40.0713749" lon="-105.229789">
  <ele>1583.0</ele>
  <time>2026-08-28T17:51:49Z</time>
  <course>248.14</course>
  <speed>0.0</speed>
  <fix>3d</fix>
</trkpt>
<trkpt lat="40.0713749" lon="-105.229789">
  <ele>1583.0</ele>
  <time>2026-08-28T17:51:49Z</time>
  <course>0.0</course>
  <speed>0.0</speed>
  <fix>3d</fix>
</trkpt>
<trkpt lat="40.0713749" lon="-105.229789">
  <ele>1583.0</ele>
  <time>2026-08-28T17:51:49Z</time>
  <course>248.16</course>
  <speed>0.0</speed>
  <fix>3d</fix>
</trkpt>
<trkpt lat="40.0713749" lon="-105.229789">
  <ele>1583.0</ele>
  <time>2026-08-28T17:51:49Z</time>
  <course>0.0</course>
  <speed>0.0</speed>
  <fix>3d</fix>
</trkpt>
<trkpt lat="40.0713749" lon="-105.229789">
  <ele>1583.0</ele>
  <time>2026-08-28T17:51:49Z</time>
  <course>248.18</course>
  <speed>0.0</speed>
  <fix>3d</fix>
</trkpt>
<trkpt lat="40.0713749" lon="-105.229789">
  <ele>1583.0</ele>
  <time>2026-08-28T17:51:49Z</time>
  <course>0.0</course>
  <speed>0.0</speed>
  <fix>3d</fix>
</trkpt>
<trkpt lat="40.0713749" lon="-105.229789">
  <ele>1583.0</ele>
  <time>2026-08-28T17:51:49Z</time>
  <course>248.2</course>
  <speed>0.0</speed>
  <fix>3d</fix>
</trkpt>
<trkpt lat="40.0713749" lon="-105.229789">
  <ele>1583.0</ele>
  <time>2026-08-28T17:51:49Z</time>
  <course>0.0</course>
  <speed>0.0</speed>
  <fix>3d</fix>
</trkpt>
<trkpt lat="40.0713749" lon="-105.229789">
  <ele>1583.0</ele>
  <time>2026-08-28T17:51:49Z</time>
  <course>248.22</course>
  <speed>0.0</speed>
  <fix>3d</fix>
</trkpt>
<trkpt lat="40.0713749" lon="-105.229789">
  <ele>1583.0</ele>
  <time>2026-08-28T17:51:49Z</time>
  <course>0.0</course>
  <speed>0.0</speed>
  <fix>3d</fix>
</trkpt>
<trkpt lat="40.0713749" lon="-105.229789">
  <ele>1583.0</ele>
  <time>2026-08-28T17:51:49Z</time>
  <course>248.23</course>
  <speed>0.0</speed>
  <fix>3d</fix>
</trkpt>
<trkpt lat="40.0713749" lon="-105.229789">
  <ele>1583.0</ele>
  <time>2026-08-28T17:51:49Z</time>
  <course>0.0</course>
  <speed>0.0</speed>
  <fix>3d</fix>
</trkpt>
<trkpt lat="40.0713749" lon="-105.229789">
  <ele>1583.0</ele>
  <time>2026-08-28T17:51:49Z</time>
  <course>248.25</course>
  <speed>0.0</speed>
  <fix>3d</fix>
</trkpt>
<trkpt lat="40.0713749" lon="-105.229789">
  <ele>1583.0</ele>
  <time>2026-08-28T17:51:49Z</time>
  <course>0.0</course>
  <speed>0.0</speed>
  <fix>3d</fix>
</trkpt>
<trkpt lat="40.0713749" lon="-105.229789">
  <ele>1583.0</ele>
  <time>2026-08-28T17:51:49Z</time>
  <course>248.26</course>
  <speed>0.0</speed>
  <fix>3d</fix>
</trkpt>
<trkpt lat="40.0713749" lon="-105.229789">
  <ele>1583.0</ele>
  <time>2026-08-28T17:51:49Z</time>
  <course>0.0</course>
  <speed>0.0</speed>
  <fix>3d</fix>
</trkpt>
<trkpt lat="40.0713749" lon="-105.229789">
  <ele>1583.0</ele>
  <time>2026-08-28T17:51:49Z</time>
  <course>248.28</course>
  <speed>0.0</speed>
  <fix>3d</fix>
</trkpt>
<trkpt lat="40.0713749" lon="-105.229789">
  <ele>1583.0</ele>
  <time>2026-08-28T17:51:49Z</time>
  <course>0.0</course>
  <speed>0.0</speed>
  <fix>3d</fix>
</trkpt>
<trkpt lat="40.0713749" lon="-105.229789">
  <ele>1583.0</ele>
  <time>2026-08-28T17:51:49Z</time>
  <course>248.29</course>
  <speed>0.0</speed>
  <fix>3d</fix>
</trkpt>
<trkpt lat="40.0713749" lon="-105.229789">
  <ele>1583.0</ele>
  <time>2026-08-28T17:51:49Z</time>
  <course>0.0</course>
  <speed>0.0</speed>
  <fix>3d</fix>
</trkpt>
<trkpt lat="40.0713749" lon="-105.229789">
  <ele>1583.0</ele>
  <time>2026-08-28T17:51:49Z</time>
  <course>248.3</course>
  <speed>0.0</speed>
  <fix>3d</fix>
</trkpt>
<trkpt lat="40.0713749" lon="-105.229789">
  <ele>1583.0</ele>
  <time>2026-08-28T17:51:49Z</time>
  <course>0.0</course>
  <speed>0.0</speed>
  <fix>3d</fix>
</trkpt>
<trkpt lat="40.0713749" lon="-105.229789">
  <ele>1583.0</ele>
  <time>2026-08-28T17:51:49Z</time>
  <course>248.31</course>
  <speed>0.0</speed>
  <fix>3d</fix>
</trkpt>
<trkpt lat="40.0713749" lon="-105.229789">
  <ele>1583.0</ele>
  <time>2026-08-28T17:51:49Z</time>
  <course>0.0</course>
  <speed>0.0</speed>
  <fix>3d</fix>
</trkpt>
<trkpt lat="40.0713749" lon="-105.229789">
  <ele>1583.0</ele>
  <time>2026-08-28T17:51:49Z</time>
  <course>248.32</course>
  <speed>0.0</speed>
  <fix>3d</fix>
</trkpt>
<trkpt lat="40.0713749" lon="-105.229789">
  <ele>1583.0</ele>
  <time>2026-08-28T17:51:49Z</time>
  <course>0.0</course>
  <speed>0.0</speed>
  <fix>3d</fix>
</trkpt>
<trkpt lat="40.0713749" lon="-105.229789">
  <ele>1583.0</ele>
  <time>2026-08-28T17:51:49Z</time>
  <course>248.33</course>
  <speed>0.0</speed>
  <fix>3d</fix>
</trkpt>
<trkpt lat="40.0713749" lon="-105.229789">
  <ele>1583.0</ele>
  <time>2026-08-28T17:51:49Z</time>
  <course>0.0</course>
  <speed>0.0</speed>
  <fix>3d</fix>
</trkpt>
<trkpt lat="40.0713749" lon="-105.229789">
  <ele>1583.0</ele>
  <time>2026-08-28T17:51:49Z</time>
  <course>248.34</course>
  <speed>0.0</speed>
  <fix>3d</fix>
</trkpt>
<trkpt lat="40.0713749" lon="-105.229789">
  <ele>1583.0</ele>
  <time>2026-08-28T17:51:49Z</time>
  <course>0.0</course>
  <speed>0.0</speed>
  <fix>3d</fix>
</trkpt>
<trkpt lat="40.0713749" lon="-105.229789">
  <ele>1583.0</ele>
  <time>2026-08-28T17:51:49Z</time>
  <course>248.35</course>
  <speed>0.0</speed>
  <fix>3d</fix>
</trkpt>
<trkpt lat="40.0713749" lon="-105.229789">
  <ele>1583.0</ele>
  <time>2026-08-28T17:51:49Z</time>
  <course>0.0</course>
  <speed>0.0</speed>
  <fix>3d</fix>
</trkpt>
<trkpt lat="40.0713749" lon="-105.229789">
  <ele>1583.0</ele>
  <time>2026-08-28T17:51:49Z</time>
  <course>248.35</course>
  <speed>0.0</speed>
  <fix>3d</fix>
</trkpt>
<trkpt lat="40.0713749" lon="-105.229789">
  <ele>1583.0</ele>
  <time>2026-08-28T17:51:49Z</time>
  <course>0.0</course>
  <speed>0.0</speed>
  <fix>3d</fix>
</trkpt>
<trkpt lat="40.0713749" lon="-105.229789">
  <ele>1583.0</ele>
  <time>2026-08-28T17:51:49Z</time>
  <course>248.36</course>
  <speed>0.0</speed>
  <fix>3d</fix>
</trkpt>
<trkpt lat="40.0713749" lon="-105.229789">
  <ele>1583.0</ele>
  <time>2026-08-28T17:51:49Z</time>
  <course>0.0</course>
  <speed>0.0</speed>
  <fix>3d</fix>
</trkpt>
<trkpt lat="40.0713749" lon="-105.229789">
  <ele>1583.0</ele>
  <time>2026-08-28T17:51:49Z</time>
  <course>248.37</course>
  <speed>0.0</speed>
  <fix>3d</fix>
</trkpt>
<trkpt lat="40.0713749" lon="-105.229789">
  <ele>1583.0</ele>
  <time>2026-08-28T17:51:49Z</time>
  <course>0.0</course>
  <speed>0.0</speed>
  <fix>3d</fix>
</trkpt>
<trkpt lat="40.0713749" lon="-105.229789">
  <ele>1583.0</ele>
  <time>2026-08-28T17:51:49Z</time>
  <course>248.37</course>
  <speed>0.0</speed>
  <fix>3d</fix>
</trkpt>
<trkpt lat="40.0713749" lon="-105.229789">
  <ele>1583.0</ele>
  <time>2026-08-28T17:51:49Z</time>
  <course>0.0</course>
  <speed>0.0</speed>
  <fix>3d</fix>
</trkpt>
<trkpt lat="40.0713749" lon="-105.229789">
  <ele>1583.0</ele>
  <time>2026-08-28T17:51:49Z</time>
  <course>248.38</course>
  <speed>0.0</speed>
  <fix>3d</fix>
</trkpt>
<trkpt lat="40.0713749" lon="-105.229789">
  <ele>1583.0</ele>
  <time>2026-08-28T17:51:49Z</time>
  <course>0.0</course>
  <speed>0.0</speed>
  <fix>3d</fix>
</trkpt>
<trkpt lat="40.0713749" lon="-105.229789">
  <ele>1583.0</ele>
  <time>2026-08-28T17:51:49Z</time>
  <course>248.38</course>
  <speed>0.0</speed>
  <fix>3d</fix>
</trkpt>
<trkpt lat="40.0713749" lon="-105.229789">
  <ele>1583.0</ele>
  <time>2026-08-28T17:51:49Z</time>
  <course>0.0</course>
  <speed>0.0</speed>
  <fix>3d</fix>
</trkpt>
<trkpt lat="40.0713749" lon="-105.229789">
  <ele>1583.0</ele>
  <time>2026-08-28T17:51:49Z</time>
  <course>248.39</course>
  <speed>0.0</speed>
  <fix>3d</fix>
</trkpt>
<trkpt lat="40.0713749" lon="-105.229789">
  <ele>1583.0</ele>
  <time>2026-08-28T17:51:49Z</time>
  <course>0.0</course>
  <speed>0.0</speed>
  <fix>3d</fix>
</trkpt>
<trkpt lat="40.0713749" lon="-105.229789">
  <ele>1583.0</ele>
  <time>2026-08-28T17:51:49Z</time>
  <course>248.39</course>
  <speed>0.0</speed>
  <fix>3d</fix>
</trkpt>
<trkpt lat="40.0713749" lon="-105.229789">
  <ele>1583.0</ele>
  <time>2026-08-28T17:51:49Z</time>
  <course>0.0</course>
  <speed>0.0</speed>
  <fix>3d</fix>
</trkpt>
<trkpt lat="40.0713749" lon="-105.229789">
  <ele>1583.0</ele>
  <time>2026-08-28T17:51:49Z</time>
  <course>248.4</course>
  <speed>0.0</speed>
  <fix>3d</fix>
</trkpt>
<trkpt lat="40.0713749" lon="-105.229789">
  <ele>1583.0</ele>
  <time>2026-08-28T17:51:49Z</time>
  <course>0.0</course>
  <speed>0.0</speed>
  <fix>3d</fix>
</trkpt>
<trkpt lat="40.0713749" lon="-105.229789">
  <ele>1583.0</ele>
  <time>2026-08-28T17:51:49Z</time>
  <course>248.4</course>
  <speed>0.0</speed>
  <fix>3d</fix>
</trkpt>
<trkpt lat="40.0713749" lon="-105.229789">
  <ele>1583.0</ele>
  <time>2026-08-28T17:51:49Z</time>
  <course>0.0</course>
  <speed>0.0</speed>
  <fix>3d</fix>
</trkpt>
<trkpt lat="40.0713749" lon="-105.229789">
  <ele>1583.0</ele>
  <time>2026-08-28T17:51:49Z</time>
  <course>248.4</course>
  <speed>0.0</speed>
  <fix>3d</fix>
</trkpt>
<trkpt lat="40.0713749" lon="-105.229789">
  <ele>1583.0</ele>
  <time>2026-08-28T17:51:49Z</time>
  <course>0.0</course>
  <speed>0.0</speed>
  <fix>3d</fix>
</trkpt>
<trkpt lat="40.0713749" lon="-105.229789">
  <ele>1583.0</ele>
  <time>2026-08-28T17:51:49Z</time>
  <course>248.4</course>
  <speed>0.0</speed>
  <fix>3d</fix>
</trkpt>
<trkpt lat="40.0713749" lon="-105.229789">
  <ele>1583.0</ele>
  <time>2026-08-28T17:51:49Z</time>
  <course>0.0</course>
  <speed>0.0</speed>
  <fix>3d</fix>
</trkpt>
<trkpt lat="40.0713749" lon="-105.229789">
  <ele>1583.0</ele>
  <time>2026-08-28T17:51:49Z</time>
  <course>248.41</course>
  <speed>0.0</speed>
  <fix>3d</fix>
</trkpt>
<trkpt lat="40.0713749" lon="-105.229789">
  <ele>1583.0</ele>
  <time>2026-08-28T17:51:49Z</time>
  <course>0.0</course>
  <speed>0.0</speed>
  <fix>3d</fix>
</trkpt>
<trkpt lat="40.0713749" lon="-105.229789">
  <ele>1583.0</ele>
  <time>2026-08-28T17:51:49Z</time>
  <course>248.41</course>
  <speed>0.0</speed>
  <fix>3d</fix>
</trkpt>
<trkpt lat="40.0713749" lon="-105.229789">
  <ele>1583.0</ele>
  <time>2026-08-28T17:51:49Z</time>
  <course>0.0</course>
  <speed>0.0</speed>
  <fix>3d</fix>
</trkpt>
<trkpt lat="40.0713749" lon="-105.229789">
  <ele>1583.0</ele>
  <time>2026-08-28T17:51:49Z</time>
  <course>248.41</course>
  <speed>0.0</speed>
  <fix>3d</fix>
</trkpt>
<trkpt lat="40.0713749" lon="-105.229789">
  <ele>1583.0</ele>
  <time>2026-08-28T17:51:49Z</time>
  <course>0.0</course>
  <speed>0.0</speed>
  <fix>3d</fix>
</trkpt>
<trkpt lat="40.0713749" lon="-105.229789">
  <ele>1583.0</ele>
  <time>2026-08-28T17:51:49Z</time>
  <course>248.41</course>
  <speed>0.0</speed>
  <fix>3d</fix>
</trkpt>
<trkpt lat="40.0713749" lon="-105.229789">
  <ele>1583.0</ele>
  <time>2026-08-28T17:51:49Z</time>
  <course>0.0</course>
  <speed>0.0</speed>
  <fix>3d</fix>
</trkpt>
<trkpt lat="40.0713749" lon="-105.229789">
  <ele>1583.0</ele>
  <time>2026-08-28T17:51:49Z</time>
  <course>248.41</course>
  <speed>0.0</speed>
  <fix>3d</fix>
</trkpt>
<trkpt lat="40.0713749" lon="-105.229789">
  <ele>1583.0</ele>
  <time>2026-08-28T17:51:49Z</time>
  <course>0.0</course>
  <speed>0.0</speed>
  <fix>3d</fix>
</trkpt>
<trkpt lat="40.0713749" lon="-105.229789">
  <ele>1583.0</ele>
  <time>2026-08-28T17:51:49Z</time>
  <course>248.41</course>
  <speed>0.0</speed>
  <fix>3d</fix>
</trkpt>
<trkpt lat="40.0713749" lon="-105.229789">
  <ele>1583.0</ele>
  <time>2026-08-28T17:51:49Z</time>
  <course>0.0</course>
  <speed>0.0</speed>
  <fix>3d</fix>
</trkpt>
<trkpt lat="39.655741" lon="-104.1383097">
  <ele>1566.58</ele>
  <time>2026-08-28T17:51:49Z</time>
  <course>0.0</course>
  <speed>0.0</speed>
  <fix>3d</fix>
</trkpt>
<trkpt lat="40.0713749" lon="-105.229789">
  <ele>1583.0</ele>
  <time>2026-08-28T17:51:49Z</time>
  <course>0.0</course>
  <speed>0.0</speed>
  <fix>3d</fix>
</trkpt>
<trkpt lat="40.0713749" lon="-105.229789">
  <ele>1583.0</ele>
  <time>2026-08-28T17:51:49Z</time>
  <course>238.36</course>
  <speed>0.0</speed>
  <fix>3d</fix>
</trkpt>
<trkpt lat="40.0713749" lon="-105.229789">
  <ele>1583.0</ele>
  <time>2026-08-28T17:51:49Z</time>
  <course>0.0</course>
  <speed>0.0</speed>
  <fix>3d</fix>
</trkpt>
<trkpt lat="40.0713749" lon="-105.229789">
  <ele>1583.0</ele>
  <time>2026-08-28T17:51:49Z</time>
  <course>238.44</course>
  <speed>0.0</speed>
  <fix>3d</fix>
</trkpt>
<trkpt lat="40.0713749" lon="-105.229789">
  <ele>1583.0</ele>
  <time>2026-08-28T17:51:49Z</time>
  <course>0.0</course>
  <speed>0.0</speed>
  <fix>3d</fix>
</trkpt>
<trkpt lat="40.0713749" lon="-105.229789">
  <ele>1583.0</ele>
  <time>2026-08-28T17:51:49Z</time>
  <course>238.64</course>
  <speed>0.0</speed>
  <fix>3d</fix>
</trkpt>
<trkpt lat="40.0713749" lon="-105.229789">
  <ele>1583.0</ele>
  <time>2026-08-28T17:51:49Z</time>
  <course>0.0</course>
  <speed>0.0</speed>
  <fix>3d</fix>
</trkpt>
<trkpt lat="40.0713749" lon="-105.229789">
  <ele>1583.0</ele>
  <time>2026-08-28T17:51:49Z</time>
  <course>238.93</course>
  <speed>0.0</speed>
  <fix>3d</fix>
</trkpt>
<trkpt lat="40.0713749" lon="-105.229789">
  <ele>1583.0</ele>
  <time>2026-08-28T17:51:49Z</time>
  <course>0.0</course>
  <speed>0.0</speed>
  <fix>3d</fix>
</trkpt>
<trkpt lat="40.0713749" lon="-105.229789">
  <ele>1583.0</ele>
  <time>2026-08-28T17:51:49Z</time>
  <course>239.26</course>
  <speed>0.0</speed>
  <fix>3d</fix>
</trkpt>
<trkpt lat="40.0713749" lon="-105.229789">
  <ele>1583.0</ele>
  <time>2026-08-28T17:51:49Z</time>
  <course>0.0</course>
  <speed>0.0</speed>
  <fix>3d</fix>
</trkpt>
<trkpt lat="40.0713749" lon="-105.229789">
  <ele>1583.0</ele>
  <time>2026-08-28T17:51:49Z</time>
  <course>239.61</course>
  <speed>0.0</speed>
  <fix>3d</fix>
</trkpt>
<trkpt lat="40.0713749" lon="-105.229789">
  <ele>1583.0</ele>
  <time>2026-08-28T17:51:49Z</time>
  <course>0.0</course>
  <speed>0.0</speed>
  <fix>3d</fix>
</trkpt>
<trkpt lat="40.0713749" lon="-105.229789">
  <ele>1583.0</ele>
  <time>2026-08-28T17:51:49Z</time>
  <course>239.96</course>
  <speed>0.0</speed>
  <fix>3d</fix>
</trkpt>
<trkpt lat="40.0713749" lon="-105.229789">
  <ele>1583.0</ele>
  <time>2026-08-28T17:51:49Z</time>
  <course>0.0</course>
  <speed>0.0</speed>
  <fix>3d</fix>
</trkpt>
<trkpt lat="40.0713749" lon="-105.229789">
  <ele>1583.0</ele>
  <time>2026-08-28T17:51:49Z</time>
  <course>240.29</course>
  <speed>0.0</speed>
  <fix>3d</fix>
</trkpt>
<trkpt lat="40.0713749" lon="-105.229789">
  <ele>1583.0</ele>
  <time>2026-08-28T17:51:49Z</time>
  <course>0.0</course>
  <speed>0.0</speed>
  <fix>3d</fix>
</trkpt>
<trkpt lat="40.0713749" lon="-105.229789">
  <ele>1583.0</ele>
  <time>2026-08-28T17:51:49Z</time>
  <course>240.61</course>
  <speed>0.0</speed>
  <fix>3d</fix>
</trkpt>
<trkpt lat="40.0713749" lon="-105.229789">
  <ele>1583.0</ele>
  <time>2026-08-28T17:51:49Z</time>
  <course>0.0</course>
  <speed>0.0</speed>
  <fix>3d</fix>
</trkpt>
<trkpt lat="40.0713749" lon="-105.229789">
  <ele>1583.0</ele>
  <time>2026-08-28T17:51:49Z</time>
  <course>240.92</course>
  <speed>0.0</speed>
  <fix>3d</fix>
</trkpt>
<trkpt lat="40.0713749" lon="-105.229789">
  <ele>1583.0</ele>
  <time>2026-08-28T17:51:49Z</time>
  <course>0.0</course>
  <speed>0.0</speed>
  <fix>3d</fix>
</trkpt>
<trkpt lat="40.0713749" lon="-105.229789">
  <ele>1583.0</ele>
  <time>2026-08-28T17:51:49Z</time>
  <course>241.21</course>
  <speed>0.0</speed>
  <fix>3d</fix>
</trkpt>
<trkpt lat="40.0713749" lon="-105.229789">
  <ele>1583.0</ele>
  <time>2026-08-28T17:51:49Z</time>
  <course>0.0</course>
  <speed>0.0</speed>
  <fix>3d</fix>
</trkpt>
<trkpt lat="40.0713749" lon="-105.229789">
  <ele>1583.0</ele>
  <time>2026-08-28T17:51:49Z</time>
  <course>241.49</course>
  <speed>0.0</speed>
  <fix>3d</fix>
</trkpt>
<trkpt lat="40.0713749" lon="-105.229789">
  <ele>1583.0</ele>
  <time>2026-08-28T17:51:49Z</time>
  <course>0.0</course>
  <speed>0.0</speed>
  <fix>3d</fix>
</trkpt>
<trkpt lat="40.0713749" lon="-105.229789">
  <ele>1583.0</ele>
  <time>2026-08-28T17:51:49Z</time>
  <course>241.77</course>
  <speed>0.0</speed>
  <fix>3d</fix>
</trkpt>
<trkpt lat="40.0713749" lon="-105.229789">
  <ele>1583.0</ele>
  <time>2026-08-28T17:51:49Z</time>
  <course>0.0</course>
  <speed>0.0</speed>
  <fix>3d</fix>
</trkpt>
<trkpt lat="40.0713749" lon="-105.229789">
  <ele>1583.0</ele>
  <time>2026-08-28T17:51:49Z</time>
  <course>242.03</course>
  <speed>0.0</speed>
  <fix>3d</fix>
</trkpt>
<trkpt lat="40.0713749" lon="-105.229789">
  <ele>1583.0</ele>
  <time>2026-08-28T17:51:49Z</time>
  <course>0.0</course>
  <speed>0.0</speed>
  <fix>3d</fix>
</trkpt>
<trkpt lat="40.0713749" lon="-105.229789">
  <ele>1583.0</ele>
  <time>2026-08-28T17:51:49Z</time>
  <course>242.29</course>
  <speed>0.0</speed>
  <fix>3d</fix>
</trkpt>
<trkpt lat="40.0713749" lon="-105.229789">
  <ele>1583.0</ele>
  <time>2026-08-28T17:51:49Z</time>
  <course>0.0</course>
  <speed>0.0</speed>
  <fix>3d</fix>
</trkpt>
<trkpt lat="40.0713749" lon="-105.229789">
  <ele>1583.0</ele>
  <time>2026-08-28T17:51:49Z</time>
  <course>242.54</course>
  <speed>0.0</speed>
  <fix>3d</fix>
</trkpt>
<trkpt lat="40.0713749" lon="-105.229789">
  <ele>1583.0</ele>
  <time>2026-08-28T17:51:49Z</time>
  <course>0.0</course>
  <speed>0.0</speed>
  <fix>3d</fix>
</trkpt>
<trkpt lat="40.0713749" lon="-105.229789">
  <ele>1583.0</ele>
  <time>2026-08-28T17:51:49Z</time>
  <course>242.79</course>
  <speed>0.0</speed>
  <fix>3d</fix>
</trkpt>
<trkpt lat="40.0713749" lon="-105.229789">
  <ele>1583.0</ele>
  <time>2026-08-28T17:51:49Z</time>
  <course>0.0</course>
  <speed>0.0</speed>
  <fix>3d</fix>
</trkpt>
<trkpt lat="40.0713749" lon="-105.229789">
  <ele>1583.0</ele>
  <time>2026-08-28T17:51:49Z</time>
  <course>243.02</course>
  <speed>0.0</speed>
  <fix>3d</fix>
</trkpt>
<trkpt lat="40.0713749" lon="-105.229789">
  <ele>1583.0</ele>
  <time>2026-08-28T17:51:49Z</time>
  <course>0.0</course>
  <speed>0.0</speed>
  <fix>3d</fix>
</trkpt>
<trkpt lat="40.0713749" lon="-105.229789">
  <ele>1583.0</ele>
  <time>2026-08-28T17:51:49Z</time>
  <course>243.25</course>
  <speed>0.0</speed>
  <fix>3d</fix>
</trkpt>
<trkpt lat="40.0713749" lon="-105.229789">
  <ele>1583.0</ele>
  <time>2026-08-28T17:51:49Z</time>
  <course>0.0</course>
  <speed>0.0</speed>
  <fix>3d</fix>
</trkpt>
<trkpt lat="40.0713749" lon="-105.229789">
  <ele>1583.0</ele>
  <time>2026-08-28T17:51:49Z</time>
  <course>243.47</course>
  <speed>0.0</speed>
  <fix>3d</fix>
</trkpt>
<trkpt lat="40.0713749" lon="-105.229789">
  <ele>1583.0</ele>
  <time>2026-08-28T17:51:49Z</time>
  <course>0.0</course>
  <speed>0.0</speed>
  <fix>3d</fix>
</trkpt>
<trkpt lat="40.0713749" lon="-105.229789">
  <ele>1583.0</ele>
  <time>2026-08-28T17:51:49Z</time>
  <course>243.68</course>
  <speed>0.0</speed>
  <fix>3d</fix>
</trkpt>
<trkpt lat="40.0713749" lon="-105.229789">
  <ele>1583.0</ele>
  <time>2026-08-28T17:51:49Z</time>
  <course>0.0</course>
  <speed>0.0</speed>
  <fix>3d</fix>
</trkpt>
<trkpt lat="40.0713749" lon="-105.229789">
  <ele>1583.0</ele>
  <time>2026-08-28T17:51:49Z</time>
  <course>243.89</course>
  <speed>0.0</speed>
  <fix>3d</fix>
</trkpt>
<trkpt lat="40.0713749" lon="-105.229789">
  <ele>1583.0</ele>
  <time>2026-08-28T17:51:49Z</time>
  <course>0.0</course>
  <speed>0.0</speed>
  <fix>3d</fix>
</trkpt>
<trkpt lat="40.0713749" lon="-105.229789">
  <ele>1583.0</ele>
  <time>2026-08-28T17:51:49Z</time>
  <course>244.09</course>
  <speed>0.0</speed>
  <fix>3d</fix>
</trkpt>
<trkpt lat="40.0713749" lon="-105.229789">
  <ele>1583.0</ele>
  <time>2026-08-28T17:51:49Z</time>
  <course>0.0</course>
  <speed>0.0</speed>
  <fix>3d</fix>
</trkpt>
<trkpt lat="40.0713749" lon="-105.229789">
  <ele>1583.0</ele>
  <time>2026-08-28T17:51:49Z</time>
  <course>244.28</course>
  <speed>0.0</speed>
  <fix>3d</fix>
</trkpt>
<trkpt lat="40.0713749" lon="-105.229789">
  <ele>1583.0</ele>
  <time>2026-08-28T17:51:49Z</time>
  <course>0.0</course>
  <speed>0.0</speed>
  <fix>3d</fix>
</trkpt>
<trkpt lat="40.0713749" lon="-105.229789">
  <ele>1583.0</ele>
  <time>2026-08-28T17:51:49Z</time>
  <course>244.46</course>
  <speed>0.0</speed>
  <fix>3d</fix>
</trkpt>
<trkpt lat="40.0713749" lon="-105.229789">
  <ele>1583.0</ele>
  <time>2026-08-28T17:51:49Z</time>
  <course>0.0</course>
  <speed>0.0</speed>
  <fix>3d</fix>
</trkpt>
<trkpt lat="40.0713749" lon="-105.229789">
  <ele>1583.0</ele>
  <time>2026-08-28T17:51:49Z</time>
  <course>244.64</course>
  <speed>0.0</speed>
  <fix>3d</fix>
</trkpt>
<trkpt lat="40.0713749" lon="-105.229789">
  <ele>1583.0</ele>
  <time>2026-08-28T17:51:49Z</time>
  <course>0.0</course>
  <speed>0.0</speed>
  <fix>3d</fix>
</trkpt>
<trkpt lat="40.0713749" lon="-105.229789">
  <ele>1583.0</ele>
  <time>2026-08-28T17:51:49Z</time>
  <course>244.81</course>
  <speed>0.0</speed>
  <fix>3d</fix>
</trkpt>
<trkpt lat="40.0713749" lon="-105.229789">
  <ele>1583.0</ele>
  <time>2026-08-28T17:51:49Z</time>
  <course>0.0</course>
  <speed>0.0</speed>
  <fix>3d</fix>
</trkpt>
<trkpt lat="40.0713749" lon="-105.229789">
  <ele>1583.0</ele>
  <time>2026-08-28T17:51:50Z</time>
  <course>244.97</course>
  <speed>0.0</speed>
  <fix>3d</fix>
</trkpt>
<trkpt lat="40.0713749" lon="-105.229789">
  <ele>1583.0</ele>
  <time>2026-08-28T17:51:50Z</time>
  <course>0.0</course>
  <speed>0.0</speed>
  <fix>3d</fix>
</trkpt>
<trkpt lat="40.0713749" lon="-105.229789">
  <ele>1583.0</ele>
  <time>2026-08-28T17:51:50Z</time>
  <course>245.13</course>
  <speed>0.0</speed>
  <fix>3d</fix>
</trkpt>
<trkpt lat="40.0713749" lon="-105.229789">
  <ele>1583.0</ele>
  <time>2026-08-28T17:51:50Z</time>
  <course>0.0</course>
  <speed>0.0</speed>
  <fix>3d</fix>
</trkpt>
<trkpt lat="40.0713749" lon="-105.229789">
  <ele>1583.0</ele>
  <time>2026-08-28T17:51:50Z</time>
  <course>245.29</course>
  <speed>0.0</speed>
  <fix>3d</fix>
</trkpt>
<trkpt lat="40.0713749" lon="-105.229789">
  <ele>1583.0</ele>
  <time>2026-08-28T17:51:50Z</time>
  <course>0.0</course>
  <speed>0.0</speed>
  <fix>3d</fix>
</trkpt>
<trkpt lat="40.0713749" lon="-105.229789">
  <ele>1583.0</ele>
  <time>2026-08-28T17:51:50Z</time>
  <course>245.43</course>
  <speed>0.0</speed>
  <fix>3d</fix>
</trkpt>
<trkpt lat="40.0713749" lon="-105.229789">
  <ele>1583.0</ele>
  <time>2026-08-28T17:51:50Z</time>
  <course>0.0</course>
  <speed>0.0</speed>
  <fix>3d</fix>
</trkpt>
<trkpt lat="40.0713749" lon="-105.229789">
  <ele>1583.0</ele>
  <time>2026-08-28T17:51:50Z</time>
  <course>245.57</course>
  <speed>0.0</speed>
  <fix>3d</fix>
</trkpt>
<trkpt lat="40.0713749" lon="-105.229789">
  <ele>1583.0</ele>
  <time>2026-08-28T17:51:50Z</time>
  <course>0.0</course>
  <speed>0.0</speed>
  <fix>3d</fix>
</trkpt>
<trkpt lat="40.0713749" lon="-105.229789">
  <ele>1583.0</ele>
  <time>2026-08-28T17:51:50Z</time>
  <course>245.71</course>
  <speed>0.0</speed>
  <fix>3d</fix>
</trkpt>
<trkpt lat="40.0713749" lon="-105.229789">
  <ele>1583.0</ele>
  <time>2026-08-28T17:51:50Z</time>
  <course>0.0</course>
  <speed>0.0</speed>
  <fix>3d</fix>
</trkpt>
<trkpt lat="40.0713749" lon="-105.229789">
  <ele>1583.0</ele>
  <time>2026-08-28T17:51:50Z</time>
  <course>245.84</course>
  <speed>0.0</speed>
  <fix>3d</fix>
</trkpt>
<trkpt lat="40.0713749" lon="-105.229789">
  <ele>1583.0</ele>
  <time>2026-08-28T17:51:50Z</time>
  <course>0.0</course>
  <speed>0.0</speed>
  <fix>3d</fix>
</trkpt>
<trkpt lat="40.0713749" lon="-105.229789">
  <ele>1583.0</ele>
  <time>2026-08-28T17:51:50Z</time>
  <course>245.96</course>
  <speed>0.0</speed>
  <fix>3d</fix>
</trkpt>
<trkpt lat="40.0713749" lon="-105.229789">
  <ele>1583.0</ele>
  <time>2026-08-28T17:51:50Z</time>
  <course>0.0</course>
  <speed>0.0</speed>
  <fix>3d</fix>
</trkpt>
<trkpt lat="40.0713749" lon="-105.229789">
  <ele>1583.0</ele>
  <time>2026-08-28T17:51:50Z</time>
  <course>246.08</course>
  <speed>0.0</speed>
  <fix>3d</fix>
</trkpt>
<trkpt lat="40.0713749" lon="-105.229789">
  <ele>1583.0</ele>
  <time>2026-08-28T17:51:50Z</time>
  <course>0.0</course>
  <speed>0.0</speed>
  <fix>3d</fix>
</trkpt>
<trkpt lat="40.0713749" lon="-105.229789">
  <ele>1583.0</ele>
  <time>2026-08-28T17:51:50Z</time>
  <course>246.19</course>
  <speed>0.0</speed>
  <fix>3d</fix>
</trkpt>
<trkpt lat="40.0713749" lon="-105.229789">
  <ele>1583.0</ele>
  <time>2026-08-28T17:51:50Z</time>
  <course>0.0</course>
  <speed>0.0</speed>
  <fix>3d</fix>
</trkpt>
<trkpt lat="40.0713749" lon="-105.229789">
  <ele>1583.0</ele>
  <time>2026-08-28T17:51:50Z</time>
  <course>246.3</course>
  <speed>0.0</speed>
  <fix>3d</fix>
</trkpt>
<trkpt lat="40.0713749" lon="-105.229789">
  <ele>1583.0</ele>
  <time>2026-08-28T17:51:50Z</time>
  <course>0.0</course>
  <speed>0.0</speed>
  <fix>3d</fix>
</trkpt>
<trkpt lat="40.0713749" lon="-105.229789">
  <ele>1583.0</ele>
  <time>2026-08-28T17:51:50Z</time>
  <course>246.41</course>
  <speed>0.0</speed>
  <fix>3d</fix>
</trkpt>
<trkpt lat="40.0713749" lon="-105.229789">
  <ele>1583.0</ele>
  <time>2026-08-28T17:51:50Z</time>
  <course>0.0</course>
  <speed>0.0</speed>
  <fix>3d</fix>
</trkpt>
<trkpt lat="40.0713749" lon="-105.229789">
  <ele>1583.0</ele>
  <time>2026-08-28T17:51:50Z</time>
  <course>246.51</course>
  <speed>0.0</speed>
  <fix>3d</fix>
</trkpt>
<trkpt lat="40.0713749" lon="-105.229789">
  <ele>1583.0</ele>
  <time>2026-08-28T17:51:50Z</time>
  <course>0.0</course>
  <speed>0.0</speed>
  <fix>3d</fix>
</trkpt>
<trkpt lat="40.0713749" lon="-105.229789">
  <ele>1583.0</ele>
  <time>2026-08-28T17:51:50Z</time>
  <course>246.6</course>
  <speed>0.0</speed>
  <fix>3d</fix>
</trkpt>
<trkpt lat="40.0713749" lon="-105.229789">
  <ele>1583.0</ele>
  <time>2026-08-28T17:51:50Z</time>
  <course>0.0</course>
  <speed>0.0</speed>
  <fix>3d</fix>
</trkpt>
<trkpt lat="40.0713749" lon="-105.229789">
  <ele>1583.0</ele>
  <time>2026-08-28T17:51:50Z</time>
  <course>246.7</course>
  <speed>0.0</speed>
  <fix>3d</fix>
</trkpt>
<trkpt lat="40.0713749" lon="-105.229789">
  <ele>1583.0</ele>
  <time>2026-08-28T17:51:50Z</time>
  <course>0.0</course>
  <speed>0.0</speed>
  <fix>3d</fix>
</trkpt>
<trkpt lat="40.0713749" lon="-105.229789">
  <ele>1583.0</ele>
  <time>2026-08-28T17:51:50Z</time>
  <course>246.78</course>
  <speed>0.0</speed>
  <fix>3d</fix>
</trkpt>
<trkpt lat="40.0713749" lon="-105.229789">
  <ele>1583.0</ele>
  <time>2026-08-28T17:51:50Z</time>
  <course>0.0</course>
  <speed>0.0</speed>
  <fix>3d</fix>
</trkpt>
<trkpt lat="40.0713749" lon="-105.229789">
  <ele>1583.0</ele>
  <time>2026-08-28T17:51:50Z</time>
  <course>246.87</course>
  <speed>0.0</speed>
  <fix>3d</fix>
</trkpt>
<trkpt lat="40.0713749" lon="-105.229789">
  <ele>1583.0</ele>
  <time>2026-08-28T17:51:50Z</time>
  <course>0.0</course>
  <speed>0.0</speed>
  <fix>3d</fix>
</trkpt>
<trkpt lat="40.0713749" lon="-105.229789">
  <ele>1583.0</ele>
  <time>2026-08-28T17:51:50Z</time>
  <course>246.95</course>
  <speed>0.0</speed>
  <fix>3d</fix>
</trkpt>
<trkpt lat="40.0713749" lon="-105.229789">
  <ele>1583.0</ele>
  <time>2026-08-28T17:51:50Z</time>
  <course>0.0</course>
  <speed>0.0</speed>
  <fix>3d</fix>
</trkpt>
<trkpt lat="40.0713749" lon="-105.229789">
  <ele>1583.0</ele>
  <time>2026-08-28T17:51:50Z</time>
  <course>247.02</course>
  <speed>0.0</speed>
  <fix>3d</fix>
</trkpt>
<trkpt lat="40.0713749" lon="-105.229789">
  <ele>1583.0</ele>
  <time>2026-08-28T17:51:50Z</time>
  <course>0.0</course>
  <speed>0.0</speed>
  <fix>3d</fix>
</trkpt>
<trkpt lat="40.0713749" lon="-105.229789">
  <ele>1583.0</ele>
  <time>2026-08-28T17:51:50Z</time>
  <course>247.1</course>
  <speed>0.0</speed>
  <fix>3d</fix>
</trkpt>
<trkpt lat="40.0713749" lon="-105.229789">
  <ele>1583.0</ele>
  <time>2026-08-28T17:51:50Z</time>
  <course>0.0</course>
  <speed>0.0</speed>
  <fix>3d</fix>
</trkpt>
<trkpt lat="40.0713749" lon="-105.229789">
  <ele>1583.0</ele>
  <time>2026-08-28T17:51:50Z</time>
  <course>247.17</course>
  <speed>0.0</speed>
  <fix>3d</fix>
</trkpt>
<trkpt lat="40.0713749" lon="-105.229789">
  <ele>1583.0</ele>
  <time>2026-08-28T17:51:50Z</time>
  <course>0.0</course>
  <speed>0.0</speed>
  <fix>3d</fix>
</trkpt>
<trkpt lat="40.0713749" lon="-105.229789">
  <ele>1583.0</ele>
  <time>2026-08-28T17:51:50Z</time>
  <course>247.24</course>
  <speed>0.0</speed>
  <fix>3d</fix>
</trkpt>
<trkpt lat="40.0713749" lon="-105.229789">
  <ele>1583.0</ele>
  <time>2026-08-28T17:51:50Z</time>
  <course>0.0</course>
  <speed>0.0</speed>
  <fix>3d</fix>
</trkpt>
<trkpt lat="40.0713749" lon="-105.229789">
  <ele>1583.0</ele>
  <time>2026-08-28T17:51:50Z</time>
  <course>247.3</course>
  <speed>0.0</speed>
  <fix>3d</fix>
</trkpt>
<trkpt lat="40.0713749" lon="-105.229789">
  <ele>1583.0</ele>
  <time>2026-08-28T17:51:50Z</time>
  <course>0.0</course>
  <speed>0.0</speed>
  <fix>3d</fix>
</trkpt>
<trkpt lat="40.0713749" lon="-105.229789">
  <ele>1583.0</ele>
  <time>2026-08-28T17:51:50Z</time>
  <course>247.36</course>
  <speed>0.0</speed>
  <fix>3d</fix>
</trkpt>
<trkpt lat="40.0713749" lon="-105.229789">
  <ele>1583.0</ele>
  <time>2026-08-28T17:51:50Z</time>
  <course>0.0</course>
  <speed>0.0</speed>
  <fix>3d</fix>
</trkpt>
<trkpt lat="40.0713749" lon="-105.229789">
  <ele>1583.0</ele>
  <time>2026-08-28T17:51:50Z</time>
  <course>247.42</course>
  <speed>0.0</speed>
  <fix>3d</fix>
</trkpt>
<trkpt lat="40.0713749" lon="-105.229789">
  <ele>1583.0</ele>
  <time>2026-08-28T17:51:50Z</time>
  <course>0.0</course>
  <speed>0.0</speed>
  <fix>3d</fix>
</trkpt>
<trkpt lat="40.0713749" lon="-105.229789">
  <ele>1583.0</ele>
  <time>2026-08-28T17:51:50Z</time>
  <course>247.47</course>
  <speed>0.0</speed>
  <fix>3d</fix>
</trkpt>
<trkpt lat="40.0713749" lon="-105.229789">
  <ele>1583.0</ele>
  <time>2026-08-28T17:51:50Z</time>
  <course>0.0</course>
  <speed>0.0</speed>
  <fix>3d</fix>
</trkpt>
<trkpt lat="40.0713749" lon="-105.229789">
  <ele>1583.0</ele>
  <time>2026-08-28T17:51:50Z</time>
  <course>247.53</course>
  <speed>0.0</speed>
  <fix>3d</fix>
</trkpt>
<trkpt lat="40.0713749" lon="-105.229789">
  <ele>1583.0</ele>
  <time>2026-08-28T17:51:50Z</time>
  <course>0.0</course>
  <speed>0.0</speed>
  <fix>3d</fix>
</trkpt>
<trkpt lat="40.0713749" lon="-105.229789">
  <ele>1583.0</ele>
  <time>2026-08-28T17:51:50Z</time>
  <course>247.58</course>
  <speed>0.0</speed>
  <fix>3d</fix>
</trkpt>
<trkpt lat="40.0713749" lon="-105.229789">
  <ele>1583.0</ele>
  <time>2026-08-28T17:51:50Z</time>
  <course>0.0</course>
  <speed>0.0</speed>
  <fix>3d</fix>
</trkpt>
<trkpt lat="40.0713749" lon="-105.229789">
  <ele>1583.0</ele>
  <time>2026-08-28T17:51:50Z</time>
  <course>247.63</course>
  <speed>0.0</speed>
  <fix>3d</fix>
</trkpt>
<trkpt lat="40.0713749" lon="-105.229789">
  <ele>1583.0</ele>
  <time>2026-08-28T17:51:50Z</time>
  <course>0.0</course>
  <speed>0.0</speed>
  <fix>3d</fix>
</trkpt>
<trkpt lat="40.0713749" lon="-105.229789">
  <ele>1583.0</ele>
  <time>2026-08-28T17:51:50Z</time>
  <course>247.67</course>
  <speed>0.0</speed>
  <fix>3d</fix>
</trkpt>
<trkpt lat="40.0713749" lon="-105.229789">
  <ele>1583.0</ele>
  <time>2026-08-28T17:51:50Z</time>
  <course>0.0</course>
  <speed>0.0</speed>
  <fix>3d</fix>
</trkpt>
<trkpt lat="40.0713749" lon="-105.229789">
  <ele>1583.0</ele>
  <time>2026-08-28T17:51:50Z</time>
  <course>247.72</course>
  <speed>0.0</speed>
  <fix>3d</fix>
</trkpt>
<trkpt lat="40.0713749" lon="-105.229789">
  <ele>1583.0</ele>
  <time>2026-08-28T17:51:50Z</time>
  <course>0.0</course>
  <speed>0.0</speed>
  <fix>3d</fix>
</trkpt>
<trkpt lat="40.0713749" lon="-105.229789">
  <ele>1583.0</ele>
  <time>2026-08-28T17:51:50Z</time>
  <course>247.76</course>
  <speed>0.0</speed>
  <fix>3d</fix>
</trkpt>
<trkpt lat="40.0713749" lon="-105.229789">
  <ele>1583.0</ele>
  <time>2026-08-28T17:51:50Z</time>
  <course>0.0</course>
  <speed>0.0</speed>
  <fix>3d</fix>
</trkpt>
<trkpt lat="40.0713749" lon="-105.229789">
  <ele>1583.0</ele>
  <time>2026-08-28T17:51:50Z</time>
  <course>247.8</course>
  <speed>0.0</speed>
  <fix>3d</fix>
</trkpt>
<trkpt lat="40.0713749" lon="-105.229789">
  <ele>1583.0</ele>
  <time>2026-08-28T17:51:50Z</time>
  <course>0.0</course>
  <speed>0.0</speed>
  <fix>3d</fix>
</trkpt>
<trkpt lat="40.0713749" lon="-105.229789">
  <ele>1583.0</ele>
  <time>2026-08-28T17:51:50Z</time>
  <course>247.83</course>
  <speed>0.0</speed>
  <fix>3d</fix>
</trkpt>
<trkpt lat="40.0713749" lon="-105.229789">
  <ele>1583.0</ele>
  <time>2026-08-28T17:51:50Z</time>
  <course>0.0</course>
  <speed>0.0</speed>
  <fix>3d</fix>
</trkpt>
<trkpt lat="40.0713749" lon="-105.229789">
  <ele>1583.0</ele>
  <time>2026-08-28T17:51:50Z</time>
  <course>247.87</course>
  <speed>0.0</speed>
  <fix>3d</fix>
</trkpt>
<trkpt lat="40.0713749" lon="-105.229789">
  <ele>1583.0</ele>
  <time>2026-08-28T17:51:50Z</time>
  <course>0.0</course>
  <speed>0.0</speed>
  <fix>3d</fix>
</trkpt>
<trkpt lat="40.0713749" lon="-105.229789">
  <ele>1583.0</ele>
  <time>2026-08-28T17:51:50Z</time>
  <course>247.9</course>
  <speed>0.0</speed>
  <fix>3d</fix>
</trkpt>
<trkpt lat="40.0713749" lon="-105.229789">
  <ele>1583.0</ele>
  <time>2026-08-28T17:51:50Z</time>
  <course>0.0</course>
  <speed>0.0</speed>
  <fix>3d</fix>
</trkpt>
<trkpt lat="40.0713749" lon="-105.229789">
  <ele>1583.0</ele>
  <time>2026-08-28T17:51:50Z</time>
  <course>247.94</course>
  <speed>0.0</speed>
  <fix>3d</fix>
</trkpt>
<trkpt lat="40.0713749" lon="-105.229789">
  <ele>1583.0</ele>
  <time>2026-08-28T17:51:50Z</time>
  <course>0.0</course>
  <speed>0.0</speed>
  <fix>3d</fix>
</trkpt>
<trkpt lat="40.0713749" lon="-105.229789">
  <ele>1583.0</ele>
  <time>2026-08-28T17:51:50Z</time>
  <course>247.97</course>
  <speed>0.0</speed>
  <fix>3d</fix>
</trkpt>
<trkpt lat="40.0713749" lon="-105.229789">
  <ele>1583.0</ele>
  <time>2026-08-28T17:51:50Z</time>
  <course>0.0</course>
  <speed>0.0</speed>
  <fix>3d</fix>
</trkpt>
<trkpt lat="40.0713749" lon="-105.229789">
  <ele>1583.0</ele>
  <time>2026-08-28T17:51:50Z</time>
  <course>248.0</course>
  <speed>0.0</speed>
  <fix>3d</fix>
</trkpt>
<trkpt lat="40.0713749" lon="-105.229789">
  <ele>1583.0</ele>
  <time>2026-08-28T17:51:50Z</time>
  <course>0.0</course>
  <speed>0.0</speed>
  <fix>3d</fix>
</trkpt>
<trkpt lat="40.0713749" lon="-105.229789">
  <ele>1583.0</ele>
  <time>2026-08-28T17:51:50Z</time>
  <course>248.02</course>
  <speed>0.0</speed>
  <fix>3d</fix>
</trkpt>
<trkpt lat="40.0713749" lon="-105.229789">
  <ele>1583.0</ele>
  <time>2026-08-28T17:51:50Z</time>
  <course>0.0</course>
  <speed>0.0</speed>
  <fix>3d</fix>
</trkpt>
<trkpt lat="40.0713749" lon="-105.229789">
  <ele>1583.0</ele>
  <time>2026-08-28T17:51:50Z</time>
  <course>248.05</course>
  <speed>0.0</speed>
  <fix>3d</fix>
</trkpt>
<trkpt lat="40.0713749" lon="-105.229789">
  <ele>1583.0</ele>
  <time>2026-08-28T17:51:50Z</time>
  <course>0.0</course>
  <speed>0.0</speed>
  <fix>3d</fix>
</trkpt>
<trkpt lat="40.0713749" lon="-105.229789">
  <ele>1583.0</ele>
  <time>2026-08-28T17:51:50Z</time>
  <course>248.08</course>
  <speed>0.0</speed>
  <fix>3d</fix>
</trkpt>
<trkpt lat="40.0713749" lon="-105.229789">
  <ele>1583.0</ele>
  <time>2026-08-28T17:51:50Z</time>
  <course>0.0</course>
  <speed>0.0</speed>
  <fix>3d</fix>
</trkpt>
<trkpt lat="40.0713749" lon="-105.229789">
  <ele>1583.0</ele>
  <time>2026-08-28T17:51:50Z</time>
  <course>248.1</course>
  <speed>0.0</speed>
  <fix>3d</fix>
</trkpt>
<trkpt lat="40.0713749" lon="-105.229789">
  <ele>1583.0</ele>
  <time>2026-08-28T17:51:50Z</time>
  <course>0.0</course>
  <speed>0.0</speed>
  <fix>3d</fix>
</trkpt>
<trkpt lat="40.0713749" lon="-105.229789">
  <ele>1583.0</ele>
  <time>2026-08-28T17:51:50Z</time>
  <course>248.12</course>
  <speed>0.0</speed>
  <fix>3d</fix>
</trkpt>
<trkpt lat="40.0713749" lon="-105.229789">
  <ele>1583.0</ele>
  <time>2026-08-28T17:51:50Z</time>
  <course>0.0</course>
  <speed>0.0</speed>
  <fix>3d</fix>
</trkpt>
<trkpt lat="40.0713749" lon="-105.229789">
  <ele>1583.0</ele>
  <time>2026-08-28T17:51:50Z</time>
  <course>248.14</course>
  <speed>0.0</speed>
  <fix>3d</fix>
</trkpt>
<trkpt lat="40.0713749" lon="-105.229789">
  <ele>1583.0</ele>
  <time>2026-08-28T17:51:50Z</time>
  <course>0.0</course>
  <speed>0.0</speed>
  <fix>3d</fix>
</trkpt>
<trkpt lat="40.0713749" lon="-105.229789">
  <ele>1583.0</ele>
  <time>2026-08-28T17:51:50Z</time>
  <course>248.16</course>
  <speed>0.0</speed>
  <fix>3d</fix>
</trkpt>
<trkpt lat="40.0713749" lon="-105.229789">
  <ele>1583.0</ele>
  <time>2026-08-28T17:51:50Z</time>
  <course>0.0</course>
  <speed>0.0</speed>
  <fix>3d</fix>
</trkpt>
<trkpt lat="40.0713749" lon="-105.229789">
  <ele>1583.0</ele>
  <time>2026-08-28T17:51:50Z</time>
  <course>248.18</course>
  <speed>0.0</speed>
  <fix>3d</fix>
</trkpt>
<trkpt lat="40.0713749" lon="-105.229789">
  <ele>1583.0</ele>
  <time>2026-08-28T17:51:50Z</time>
  <course>0.0</course>
  <speed>0.0</speed>
  <fix>3d</fix>
</trkpt>
<trkpt lat="40.0713749" lon="-105.229789">
  <ele>1583.0</ele>
  <time>2026-08-28T17:51:50Z</time>
  <course>248.2</course>
  <speed>0.0</speed>
  <fix>3d</fix>
</trkpt>
<trkpt lat="40.0713749" lon="-105.229789">
  <ele>1583.0</ele>
  <time>2026-08-28T17:51:50Z</time>
  <course>0.0</course>
  <speed>0.0</speed>
  <fix>3d</fix>
</trkpt>
<trkpt lat="40.0713749" lon="-105.229789">
  <ele>1583.0</ele>
  <time>2026-08-28T17:51:50Z</time>
  <course>248.22</course>
  <speed>0.0</speed>
  <fix>3d</fix>
</trkpt>
<trkpt lat="40.0713749" lon="-105.229789">
  <ele>1583.0</ele>
  <time>2026-08-28T17:51:50Z</time>
  <course>0.0</course>
  <speed>0.0</speed>
  <fix>3d</fix>
</trkpt>
<trkpt lat="40.0713749" lon="-105.229789">
  <ele>1583.0</ele>
  <time>2026-08-28T17:51:50Z</time>
  <course>248.23</course>
  <speed>0.0</speed>
  <fix>3d</fix>
</trkpt>
<trkpt lat="40.0713749" lon="-105.229789">
  <ele>1583.0</ele>
  <time>2026-08-28T17:51:50Z</time>
  <course>0.0</course>
  <speed>0.0</speed>
  <fix>3d</fix>
</trkpt>
<trkpt lat="40.0713749" lon="-105.229789">
  <ele>1583.0</ele>
  <time>2026-08-28T17:51:50Z</time>
  <course>248.25</course>
  <speed>0.0</speed>
  <fix>3d</fix>
</trkpt>
<trkpt lat="40.0713749" lon="-105.229789">
  <ele>1583.0</ele>
  <time>2026-08-28T17:51:50Z</time>
  <course>0.0</course>
  <speed>0.0</speed>
  <fix>3d</fix>
</trkpt>
<trkpt lat="40.0713749" lon="-105.229789">
  <ele>1583.0</ele>
  <time>2026-08-28T17:51:50Z</time>
  <course>248.26</course>
  <speed>0.0</speed>
  <fix>3d</fix>
</trkpt>
<trkpt lat="40.0713749" lon="-105.229789">
  <ele>1583.0</ele>
  <time>2026-08-28T17:51:50Z</time>
  <course>0.0</course>
  <speed>0.0</speed>
  <fix>3d</fix>
</trkpt>
<trkpt lat="40.0713749" lon="-105.229789">
  <ele>1583.0</ele>
  <time>2026-08-28T17:51:50Z</time>
  <course>248.28</course>
  <speed>0.0</speed>
  <fix>3d</fix>
</trkpt>
<trkpt lat="40.0713749" lon="-105.229789">
  <ele>1583.0</ele>
  <time>2026-08-28T17:51:50Z</time>
  <course>0.0</course>
  <speed>0.0</speed>
  <fix>3d</fix>
</trkpt>
<trkpt lat="40.0713749" lon="-105.229789">
  <ele>1583.0</ele>
  <time>2026-08-28T17:51:50Z</time>
  <course>248.29</course>
  <speed>0.0</speed>
  <fix>3d</fix>
</trkpt>
<trkpt lat="40.0713749" lon="-105.229789">
  <ele>1583.0</ele>
  <time>2026-08-28T17:51:50Z</time>
  <course>0.0</course>
  <speed>0.0</speed>
  <fix>3d</fix>
</trkpt>
<trkpt lat="40.0713749" lon="-105.229789">
  <ele>1583.0</ele>
  <time>2026-08-28T17:51:50Z</time>
  <course>248.3</course>
  <speed>0.0</speed>
  <fix>3d</fix>
</trkpt>
<trkpt lat="40.0713749" lon="-105.229789">
  <ele>1583.0</ele>
  <time>2026-08-28T17:51:50Z</time>
  <course>0.0</course>
  <speed>0.0</speed>
  <fix>3d</fix>
</trkpt>
<trkpt lat="40.0713749" lon="-105.229789">
  <ele>1583.0</ele>
  <time>2026-08-28T17:51:50Z</time>
  <course>248.31</course>
  <speed>0.0</speed>
  <fix>3d</fix>
</trkpt>
<trkpt lat="40.0713749" lon="-105.229789">
  <ele>1583.0</ele>
  <time>2026-08-28T17:51:50Z</time>
  <course>0.0</course>
  <speed>0.0</speed>
  <fix>3d</fix>
</trkpt>
<trkpt lat="40.0713749" lon="-105.229789">
  <ele>1583.0</ele>
  <time>2026-08-28T17:51:50Z</time>
  <course>248.32</course>
  <speed>0.0</speed>
  <fix>3d</fix>
</trkpt>
<trkpt lat="40.0713749" lon="-105.229789">
  <ele>1583.0</ele>
  <time>2026-08-28T17:51:50Z</time>
  <course>0.0</course>
  <speed>0.0</speed>
  <fix>3d</fix>
</trkpt>
<trkpt lat="40.0713749" lon="-105.229789">
  <ele>1583.0</ele>
  <time>2026-08-28T17:51:50Z</time>
  <course>248.33</course>
  <speed>0.0</speed>
  <fix>3d</fix>
</trkpt>
<trkpt lat="40.0713749" lon="-105.229789">
  <ele>1583.0</ele>
  <time>2026-08-28T17:51:50Z</time>
  <course>0.0</course>
  <speed>0.0</speed>
  <fix>3d</fix>
</trkpt>
<trkpt lat="40.0713749" lon="-105.229789">
  <ele>1583.0</ele>
  <time>2026-08-28T17:51:50Z</time>
  <course>248.34</course>
  <speed>0.0</speed>
  <fix>3d</fix>
</trkpt>
<trkpt lat="40.0713749" lon="-105.229789">
  <ele>1583.0</ele>
  <time>2026-08-28T17:51:50Z</time>
  <course>0.0</course>
  <speed>0.0</speed>
  <fix>3d</fix>
</trkpt>
<trkpt lat="40.0713749" lon="-105.229789">
  <ele>1583.0</ele>
  <time>2026-08-28T17:51:50Z</time>
  <course>248.35</course>
  <speed>0.0</speed>
  <fix>3d</fix>
</trkpt>
<trkpt lat="40.0713749" lon="-105.229789">
  <ele>1583.0</ele>
  <time>2026-08-28T17:51:50Z</time>
  <course>0.0</course>
  <speed>0.0</speed>
  <fix>3d</fix>
</trkpt>
<trkpt lat="40.0713749" lon="-105.229789">
  <ele>1583.0</ele>
  <time>2026-08-28T17:51:50Z</time>
  <course>248.35</course>
  <speed>0.0</speed>
  <fix>3d</fix>
</trkpt>
<trkpt lat="40.0713749" lon="-105.229789">
  <ele>1583.0</ele>
  <time>2026-08-28T17:51:50Z</time>
  <course>0.0</course>
  <speed>0.0</speed>
  <fix>3d</fix>
</trkpt>
<trkpt lat="40.0713749" lon="-105.229789">
  <ele>1583.0</ele>
  <time>2026-08-28T17:51:50Z</time>
  <course>248.36</course>
  <speed>0.0</speed>
  <fix>3d</fix>
</trkpt>
<trkpt lat="40.0713749" lon="-105.229789">
  <ele>1583.0</ele>
  <time>2026-08-28T17:51:50Z</time>
  <course>0.0</course>
  <speed>0.0</speed>
  <fix>3d</fix>
</trkpt>
<trkpt lat="40.0713749" lon="-105.229789">
  <ele>1583.0</ele>
  <time>2026-08-28T17:51:50Z</time>
  <course>248.37</course>
  <speed>0.0</speed>
  <fix>3d</fix>
</trkpt>
<trkpt lat="40.0713749" lon="-105.229789">
  <ele>1583.0</ele>
  <time>2026-08-28T17:51:50Z</time>
  <course>0.0</course>
  <speed>0.0</speed>
  <fix>3d</fix>
</trkpt>
<trkpt lat="40.0713749" lon="-105.229789">
  <ele>1583.0</ele>
  <time>2026-08-28T17:51:50Z</time>
  <course>248.37</course>
  <speed>0.0</speed>
  <fix>3d</fix>
</trkpt>
<trkpt lat="40.0713749" lon="-105.229789">
  <ele>1583.0</ele>
  <time>2026-08-28T17:51:50Z</time>
  <course>0.0</course>
  <speed>0.0</speed>
  <fix>3d</fix>
</trkpt>
<trkpt lat="40.0713749" lon="-105.229789">
  <ele>1583.0</ele>
  <time>2026-08-28T17:51:50Z</time>
  <course>248.38</course>
  <speed>0.0</speed>
  <fix>3d</fix>
</trkpt>
<trkpt lat="40.0713749" lon="-105.229789">
  <ele>1583.0</ele>
  <time>2026-08-28T17:51:50Z</time>
  <course>0.0</course>
  <speed>0.0</speed>
  <fix>3d</fix>
</trkpt>
<trkpt lat="40.0713749" lon="-105.229789">
  <ele>1583.0</ele>
  <time>2026-08-28T17:51:50Z</time>
  <course>248.38</course>
  <speed>0.0</speed>
  <fix>3d</fix>
</trkpt>
<trkpt lat="40.0713749" lon="-105.229789">
  <ele>1583.0</ele>
  <time>2026-08-28T17:51:50Z</time>
  <course>0.0</course>
  <speed>0.0</speed>
  <fix>3d</fix>
</trkpt>
<trkpt lat="40.0713749" lon="-105.229789">
  <ele>1583.0</ele>
  <time>2026-08-28T17:51:50Z</time>
  <course>248.39</course>
  <speed>0.0</speed>
  <fix>3d</fix>
</trkpt>
<trkpt lat="40.0713749" lon="-105.229789">
  <ele>1583.0</ele>
  <time>2026-08-28T17:51:50Z</time>
  <course>0.0</course>
  <speed>0.0</speed>
  <fix>3d</fix>
</trkpt>
<trkpt lat="40.0713749" lon="-105.229789">
  <ele>1583.0</ele>
  <time>2026-08-28T17:51:50Z</time>
  <course>248.39</course>
  <speed>0.0</speed>
  <fix>3d</fix>
</trkpt>
<trkpt lat="40.0713749" lon="-105.229789">
  <ele>1583.0</ele>
  <time>2026-08-28T17:51:50Z</time>
  <course>0.0</course>
  <speed>0.0</speed>
  <fix>3d</fix>
</trkpt>
<trkpt lat="40.0713749" lon="-105.229789">
  <ele>1583.0</ele>
  <time>2026-08-28T17:51:50Z</time>
  <course>248.4</course>
  <speed>0.0</speed>
  <fix>3d</fix>
</trkpt>
<trkpt lat="40.0713749" lon="-105.229789">
  <ele>1583.0</ele>
  <time>2026-08-28T17:51:50Z</time>
  <course>0.0</course>
  <speed>0.0</speed>
  <fix>3d</fix>
</trkpt>
<trkpt lat="40.0713749" lon="-105.229789">
  <ele>1583.0</ele>
  <time>2026-08-28T17:51:50Z</time>
  <course>248.4</course>
  <speed>0.0</speed>
  <fix>3d</fix>
</trkpt>
<trkpt lat="40.0713749" lon="-105.229789">
  <ele>1583.0</ele>
  <time>2026-08-28T17:51:50Z</time>
  <course>0.0</course>
  <speed>0.0</speed>
  <fix>3d</fix>
</trkpt>
<trkpt lat="40.0713749" lon="-105.229789">
  <ele>1583.0</ele>
  <time>2026-08-28T17:51:50Z</time>
  <course>248.4</course>
  <speed>0.0</speed>
  <fix>3d</fix>
</trkpt>
<trkpt lat="40.0713749" lon="-105.229789">
  <ele>1583.0</ele>
  <time>2026-08-28T17:51:50Z</time>
  <course>0.0</course>
  <speed>0.0</speed>
  <fix>3d</fix>
</trkpt>
<trkpt lat="40.0713749" lon="-105.229789">
  <ele>1583.0</ele>
  <time>2026-08-28T17:51:50Z</time>
  <course>248.4</course>
  <speed>0.0</speed>
  <fix>3d</fix>
</trkpt>
<trkpt lat="40.0713749" lon="-105.229789">
  <ele>1583.0</ele>
  <time>2026-08-28T17:51:50Z</time>
  <course>0.0</course>
  <speed>0.0</speed>
  <fix>3d</fix>
</trkpt>
<trkpt lat="40.0713749" lon="-105.229789">
  <ele>1583.0</ele>
  <time>2026-08-28T17:51:50Z</time>
  <course>248.41</course>
  <speed>0.0</speed>
  <fix>3d</fix>
</trkpt>
<trkpt lat="40.0713749" lon="-105.229789">
  <ele>1583.0</ele>
  <time>2026-08-28T17:51:50Z</time>
  <course>0.0</course>
  <speed>0.0</speed>
  <fix>3d</fix>
</trkpt>
<trkpt lat="40.0713749" lon="-105.229789">
  <ele>1583.0</ele>
  <time>2026-08-28T17:51:50Z</time>
  <course>248.41</course>
  <speed>0.0</speed>
  <fix>3d</fix>
</trkpt>
<trkpt lat="40.0713749" lon="-105.229789">
  <ele>1583.0</ele>
  <time>2026-08-28T17:51:50Z</time>
  <course>0.0</course>
  <speed>0.0</speed>
  <fix>3d</fix>
</trkpt>
<trkpt lat="40.0713749" lon="-105.229789">
  <ele>1583.0</ele>
  <time>2026-08-28T17:51:50Z</time>
  <course>248.41</course>
  <speed>0.0</speed>
  <fix>3d</fix>
</trkpt>
<trkpt lat="40.0713749" lon="-105.229789">
  <ele>1583.0</ele>
  <time>2026-08-28T17:51:50Z</time>
  <course>0.0</course>
  <speed>0.0</speed>
  <fix>3d</fix>
</trkpt>
<trkpt lat="40.0713749" lon="-105.229789">
  <ele>1583.0</ele>
  <time>2026-08-28T17:51:50Z</time>
  <course>248.41</course>
  <speed>0.0</speed>
  <fix>3d</fix>
</trkpt>
<trkpt lat="40.0713749" lon="-105.229789">
  <ele>1583.0</ele>
  <time>2026-08-28T17:51:50Z</time>
  <course>0.0</course>
  <speed>0.0</speed>
  <fix>3d</fix>
</trkpt>
<trkpt lat="40.0713749" lon="-105.229789">
  <ele>1583.0</ele>
  <time>2026-08-28T17:51:50Z</time>
  <course>248.41</course>
  <speed>0.0</speed>
  <fix>3d</fix>
</trkpt>
<trkpt lat="40.0713749" lon="-105.229789">
  <ele>1583.0</ele>
  <time>2026-08-28T17:51:50Z</time>
  <course>0.0</course>
  <speed>0.0</speed>
  <fix>3d</fix>
</trkpt>
<trkpt lat="40.0713749" lon="-105.229789">
  <ele>1583.0</ele>
  <time>2026-08-28T17:51:50Z</time>
  <course>248.41</course>
  <speed>0.0</speed>
  <fix>3d</fix>
</trkpt>
<trkpt lat="40.0713749" lon="-105.229789">
  <ele>1583.0</ele>
  <time>2026-08-28T17:51:50Z</time>
  <course>0.0</course>
  <speed>0.0</speed>
  <fix>3d</fix>
</trkpt>
<trkpt lat="40.0713749" lon="-105.229789">
  <ele>1583.0</ele>
  <time>2026-08-28T17:51:50Z</time>
  <course>248.41</course>
  <speed>0.0</speed>
  <fix>3d</fix>
</trkpt>
<trkpt lat="40.0713749" lon="-105.229789">
  <ele>1583.0</ele>
  <time>2026-08-28T17:51:50Z</time>
  <course>0.0</course>
  <speed>0.0</speed>
  <fix>3d</fix>
</trkpt>
<trkpt lat="40.0713749" lon="-105.229789">
  <ele>1583.0</ele>
  <time>2026-08-28T17:51:50Z</time>
  <course>248.41</course>
  <speed>0.0</speed>
  <fix>3d</fix>
</trkpt>
<trkpt lat="40.0713749" lon="-105.229789">
  <ele>1583.0</ele>
  <time>2026-08-28T17:51:50Z</time>
  <course>0.0</course>
  <speed>0.0</speed>
  <fix>3d</fix>
</trkpt>
<trkpt lat="40.0713749" lon="-105.229789">
  <ele>1583.0</ele>
  <time>2026-08-28T17:51:50Z</time>
  <course>248.41</course>
  <speed>0.0</speed>
  <fix>3d</fix>
</trkpt>
<trkpt lat="40.0713749" lon="-105.229789">
  <ele>1583.0</ele>
  <time>2026-08-28T17:51:50Z</time>
  <course>0.0</course>
  <speed>0.0</speed>
  <fix>3d</fix>
</trkpt>
<trkpt lat="40.0713749" lon="-105.229789">
  <ele>1583.0</ele>
  <time>2026-08-28T17:51:50Z</time>
  <course>248.41</course>
  <speed>0.0</speed>
  <fix>3d</fix>
</trkpt>
<trkpt lat="40.0713749" lon="-105.229789">
  <ele>1583.0</ele>
  <time>2026-08-28T17:51:50Z</time>
  <course>0.0</course>
  <speed>0.0</speed>
  <fix>3d</fix>
</trkpt>
<trkpt lat="40.0713749" lon="-105.229789">
  <ele>1583.0</ele>
  <time>2026-08-28T17:51:50Z</time>
  <course>248.41</course>
  <speed>0.0</speed>
  <fix>3d</fix>
</trkpt>
<trkpt lat="40.0713749" lon="-105.229789">
  <ele>1583.0</ele>
  <time>2026-08-28T17:51:50Z</time>
  <course>0.0</course>
  <speed>0.0</speed>
  <fix>3d</fix>
</trkpt>
<trkpt lat="40.0713749" lon="-105.229789">
  <ele>1583.0</ele>
  <time>2026-08-28T17:51:50Z</time>
  <course>248.41</course>
  <speed>0.0</speed>
  <fix>3d</fix>
</trkpt>
<trkpt lat="40.0713749" lon="-105.229789">
  <ele>1583.0</ele>
  <time>2026-08-28T17:51:50Z</time>
  <course>0.0</course>
  <speed>0.0</speed>
  <fix>3d</fix>
</trkpt>
<trkpt lat="40.0713749" lon="-105.229789">
  <ele>1583.0</ele>
  <time>2026-08-28T17:51:50Z</time>
  <course>248.41</course>
  <speed>0.0</speed>
  <fix>3d</fix>
</trkpt>
<trkpt lat="40.0713749" lon="-105.229789">
  <ele>1583.0</ele>
  <time>2026-08-28T17:51:50Z</time>
  <course>0.0</course>
  <speed>0.0</speed>
  <fix>3d</fix>
</trkpt>
<trkpt lat="40.0713749" lon="-105.229789">
  <ele>1583.0</ele>
  <time>2026-08-28T17:51:50Z</time>
  <course>248.41</course>
  <speed>0.0</speed>
  <fix>3d</fix>
</trkpt>
<trkpt lat="40.0713749" lon="-105.229789">
  <ele>1583.0</ele>
  <time>2026-08-28T17:51:50Z</time>
  <course>0.0</course>
  <speed>0.0</speed>
  <fix>3d</fix>
</trkpt>
<trkpt lat="40.0713749" lon="-105.229789">
  <ele>1583.0</ele>
  <time>2026-08-28T17:51:50Z</time>
  <course>248.41</course>
  <speed>0.0</speed>
  <fix>3d</fix>
</trkpt>
<trkpt lat="40.0713749" lon="-105.229789">
  <ele>1583.0</ele>
  <time>2026-08-28T17:51:50Z</time>
  <course>0.0</course>
  <speed>0.0</speed>
  <fix>3d</fix>
</trkpt>
<trkpt lat="40.0713749" lon="-105.229789">
  <ele>1583.0</ele>
  <time>2026-08-28T17:51:50Z</time>
  <course>248.41</course>
  <speed>0.0</speed>
  <fix>3d</fix>
</trkpt>
<trkpt lat="40.0713749" lon="-105.229789">
  <ele>1583.0</ele>
  <time>2026-08-28T17:51:50Z</time>
  <course>0.0</course>
  <speed>0.0</speed>
  <fix>3d</fix>
</trkpt>
<trkpt lat="40.0713749" lon="-105.229789">
  <ele>1583.0</ele>
  <time>2026-08-28T17:51:50Z</time>
  <course>248.4</course>
  <speed>0.0</speed>
  <fix>3d</fix>
</trkpt>
<trkpt lat="40.0713749" lon="-105.229789">
  <ele>1583.0</ele>
  <time>2026-08-28T17:51:50Z</time>
  <course>0.0</course>
  <speed>0.0</speed>
  <fix>3d</fix>
</trkpt>
<trkpt lat="40.0713749" lon="-105.229789">
  <ele>1583.0</ele>
  <time>2026-08-28T17:51:50Z</time>
  <course>248.4</course>
  <speed>0.01</speed>
  <fix>3d</fix>
</trkpt>
<trkpt lat="40.0713749" lon="-105.229789">
  <ele>1583.0</ele>
  <time>2026-08-28T17:51:50Z</time>
  <course>0.0</course>
  <speed>0.0</speed>
  <fix>3d</fix>
</trkpt>
<trkpt lat="40.0713749" lon="-105.229789">
  <ele>1583.0</ele>
  <time>2026-08-28T17:51:50Z</time>
  <course>248.4</course>
  <speed>0.01</speed>
  <fix>3d</fix>
</trkpt>
<trkpt lat="40.0713749" lon="-105.229789">
  <ele>1583.0</ele>
  <time>2026-08-28T17:51:50Z</time>
  <course>0.0</course>
  <speed>0.0</speed>
  <fix>3d</fix>
</trkpt>
<trkpt lat="40.0713749" lon="-105.229789">
  <ele>1583.0</ele>
  <time>2026-08-28T17:51:50Z</time>
  <course>248.4</course>
  <speed>0.01</speed>
  <fix>3d</fix>
</trkpt>
<trkpt lat="40.0713749" lon="-105.229789">
  <ele>1583.0</ele>
  <time>2026-08-28T17:51:50Z</time>
  <course>0.0</course>
  <speed>0.0</speed>
  <fix>3d</fix>
</trkpt>
<trkpt lat="40.0713749" lon="-105.229789">
  <ele>1583.0</ele>
  <time>2026-08-28T17:51:50Z</time>
  <course>248.4</course>
  <speed>0.01</speed>
  <fix>3d</fix>
</trkpt>
<trkpt lat="40.0713749" lon="-105.229789">
  <ele>1583.0</ele>
  <time>2026-08-28T17:51:50Z</time>
  <course>0.0</course>
  <speed>0.0</speed>
  <fix>3d</fix>
</trkpt>
<trkpt lat="40.0713749" lon="-105.229789">
  <ele>1583.0</ele>
  <time>2026-08-28T17:51:50Z</time>
  <course>248.39</course>
  <speed>0.01</speed>
  <fix>3d</fix>
</trkpt>
<trkpt lat="40.0713749" lon="-105.229789">
  <ele>1583.0</ele>
  <time>2026-08-28T17:51:50Z</time>
  <course>0.0</course>
  <speed>0.0</speed>
  <fix>3d</fix>
</trkpt>
<trkpt lat="40.0713749" lon="-105.229789">
  <ele>1583.0</ele>
  <time>2026-08-28T17:51:50Z</time>
  <course>248.39</course>
  <speed>0.01</speed>
  <fix>3d</fix>
</trkpt>
<trkpt lat="40.0713749" lon="-105.229789">
  <ele>1583.0</ele>
  <time>2026-08-28T17:51:50Z</time>
  <course>0.0</course>
  <speed>0.0</speed>
  <fix>3d</fix>
</trkpt>
<trkpt lat="40.0713749" lon="-105.229789">
  <ele>1583.0</ele>
  <time>2026-08-28T17:51:50Z</time>
  <course>248.39</course>
  <speed>0.01</speed>
  <fix>3d</fix>
</trkpt>
<trkpt lat="40.0713749" lon="-105.229789">
  <ele>1583.0</ele>
  <time>2026-08-28T17:51:50Z</time>
  <course>0.0</course>
  <speed>0.0</speed>
  <fix>3d</fix>
</trkpt>
<trkpt lat="40.0713749" lon="-105.229789">
  <ele>1583.0</ele>
  <time>2026-08-28T17:51:50Z</time>
  <course>248.38</course>
  <speed>0.01</speed>
  <fix>3d</fix>
</trkpt>
<trkpt lat="40.0713749" lon="-105.229789">
  <ele>1583.0</ele>
  <time>2026-08-28T17:51:50Z</time>
  <course>0.0</course>
  <speed>0.0</speed>
  <fix>3d</fix>
</trkpt>
<trkpt lat="40.0713749" lon="-105.229789">
  <ele>1583.0</ele>
  <time>2026-08-28T17:51:50Z</time>
  <course>248.38</course>
  <speed>0.01</speed>
  <fix>3d</fix>
</trkpt>
<trkpt lat="40.0713749" lon="-105.229789">
  <ele>1583.0</ele>
  <time>2026-08-28T17:51:50Z</time>
  <course>0.0</course>
  <speed>0.0</speed>
  <fix>3d</fix>
</trkpt>
<trkpt lat="40.0713749" lon="-105.229789">
  <ele>1583.0</ele>
  <time>2026-08-28T17:51:50Z</time>
  <course>248.38</course>
  <speed>0.01</speed>
  <fix>3d</fix>
</trkpt>
<trkpt lat="40.0713749" lon="-105.229789">
  <ele>1583.0</ele>
  <time>2026-08-28T17:51:50Z</time>
  <course>0.0</course>
  <speed>0.0</speed>
  <fix>3d</fix>
</trkpt>
<trkpt lat="40.0713749" lon="-105.229789">
  <ele>1583.0</ele>
  <time>2026-08-28T17:51:50Z</time>
  <course>248.37</course>
  <speed>0.01</speed>
  <fix>3d</fix>
</trkpt>
<trkpt lat="40.0713749" lon="-105.229789">
  <ele>1583.0</ele>
  <time>2026-08-28T17:51:50Z</time>
  <course>0.0</course>
  <speed>0.0</speed>
  <fix>3d</fix>
</trkpt>
<trkpt lat="40.0713749" lon="-105.229789">
  <ele>1583.0</ele>
  <time>2026-08-28T17:51:50Z</time>
  <course>248.37</course>
  <speed>0.01</speed>
  <fix>3d</fix>
</trkpt>
<trkpt lat="40.0713749" lon="-105.229789">
  <ele>1583.0</ele>
  <time>2026-08-28T17:51:50Z</time>
  <course>0.0</course>
  <speed>0.0</speed>
  <fix>3d</fix>
</trkpt>
<trkpt lat="40.0713749" lon="-105.229789">
  <ele>1583.0</ele>
  <time>2026-08-28T17:51:50Z</time>
  <course>248.37</course>
  <speed>0.01</speed>
  <fix>3d</fix>
</trkpt>
<trkpt lat="40.0713749" lon="-105.229789">
  <ele>1583.0</ele>
  <time>2026-08-28T17:51:50Z</time>
  <course>0.0</course>
  <speed>0.0</speed>
  <fix>3d</fix>
</trkpt>
<trkpt lat="40.0713749" lon="-105.229789">
  <ele>1583.0</ele>
  <time>2026-08-28T17:51:50Z</time>
  <course>248.36</course>
  <speed>0.01</speed>
  <fix>3d</fix>
</trkpt>
<trkpt lat="40.0713749" lon="-105.229789">
  <ele>1583.0</ele>
  <time>2026-08-28T17:51:50Z</time>
  <course>0.0</course>
  <speed>0.0</speed>
  <fix>3d</fix>
</trkpt>
<trkpt lat="40.0713749" lon="-105.229789">
  <ele>1583.0</ele>
  <time>2026-08-28T17:51:50Z</time>
  <course>248.36</course>
  <speed>0.01</speed>
  <fix>3d</fix>
</trkpt>
<trkpt lat="40.0713749" lon="-105.229789">
  <ele>1583.0</ele>
  <time>2026-08-28T17:51:50Z</time>
  <course>0.0</course>
  <speed>0.0</speed>
  <fix>3d</fix>
</trkpt>
<trkpt lat="40.0713749" lon="-105.229789">
  <ele>1583.0</ele>
  <time>2026-08-28T17:51:50Z</time>
  <course>248.36</course>
  <speed>0.01</speed>
  <fix>3d</fix>
</trkpt>
<trkpt lat="40.0713749" lon="-105.229789">
  <ele>1583.0</ele>
  <time>2026-08-28T17:51:50Z</time>
  <course>0.0</course>
  <speed>0.0</speed>
  <fix>3d</fix>
</trkpt>
<trkpt lat="40.0713749" lon="-105.229789">
  <ele>1583.0</ele>
  <time>2026-08-28T17:51:50Z</time>
  <course>248.35</course>
  <speed>0.01</speed>
  <fix>3d</fix>
</trkpt>
<trkpt lat="40.0713749" lon="-105.229789">
  <ele>1583.0</ele>
  <time>2026-08-28T17:51:50Z</time>
  <course>0.0</course>
  <speed>0.0</speed>
  <fix>3d</fix>
</trkpt>
<trkpt lat="40.0713749" lon="-105.229789">
  <ele>1583.0</ele>
  <time>2026-08-28T17:51:50Z</time>
  <course>248.35</course>
  <speed>0.01</speed>
  <fix>3d</fix>
</trkpt>
<trkpt lat="40.0713749" lon="-105.229789">
  <ele>1583.0</ele>
  <time>2026-08-28T17:51:50Z</time>
  <course>0.0</course>
  <speed>0.0</speed>
  <fix>3d</fix>
</trkpt>
<trkpt lat="40.0713749" lon="-105.229789">
  <ele>1583.0</ele>
  <time>2026-08-28T17:51:50Z</time>
  <course>248.35</course>
  <speed>0.01</speed>
  <fix>3d</fix>
</trkpt>
<trkpt lat="40.0713749" lon="-105.229789">
  <ele>1583.0</ele>
  <time>2026-08-28T17:51:50Z</time>
  <course>0.0</course>
  <speed>0.0</speed>
  <fix>3d</fix>
</trkpt>
<trkpt lat="40.0713749" lon="-105.229789">
  <ele>1583.0</ele>
  <time>2026-08-28T17:51:50Z</time>
  <course>248.34</course>
  <speed>0.01</speed>
  <fix>3d</fix>
</trkpt>
<trkpt lat="40.0713749" lon="-105.229789">
  <ele>1583.0</ele>
  <time>2026-08-28T17:51:50Z</time>
  <course>0.0</course>
  <speed>0.0</speed>
  <fix>3d</fix>
</trkpt>
<trkpt lat="40.0713749" lon="-105.229789">
  <ele>1583.0</ele>
  <time>2026-08-28T17:51:50Z</time>
  <course>248.34</course>
  <speed>0.01</speed>
  <fix>3d</fix>
</trkpt>
<trkpt lat="40.0713749" lon="-105.229789">
  <ele>1583.0</ele>
  <time>2026-08-28T17:51:50Z</time>
  <course>0.0</course>
  <speed>0.0</speed>
  <fix>3d</fix>
</trkpt>
<trkpt lat="40.0713749" lon="-105.229789">
  <ele>1583.0</ele>
  <time>2026-08-28T17:51:50Z</time>
  <course>248.33</course>
  <speed>0.01</speed>
  <fix>3d</fix>
</trkpt>
<trkpt lat="40.0713749" lon="-105.229789">
  <ele>1583.0</ele>
  <time>2026-08-28T17:51:50Z</time>
  <course>0.0</course>
  <speed>0.0</speed>
  <fix>3d</fix>
</trkpt>
<trkpt lat="40.0713749" lon="-105.229789">
  <ele>1583.0</ele>
  <time>2026-08-28T17:51:50Z</time>
  <course>248.33</course>
  <speed>0.01</speed>
  <fix>3d</fix>
</trkpt>
<trkpt lat="40.0713749" lon="-105.229789">
  <ele>1583.0</ele>
  <time>2026-08-28T17:51:50Z</time>
  <course>0.0</course>
  <speed>0.0</speed>
  <fix>3d</fix>
</trkpt>
<trkpt lat="40.0713749" lon="-105.229789">
  <ele>1583.0</ele>
  <time>2026-08-28T17:51:50Z</time>
  <course>248.32</course>
  <speed>0.01</speed>
  <fix>3d</fix>
</trkpt>
<trkpt lat="40.0713749" lon="-105.229789">
  <ele>1583.0</ele>
  <time>2026-08-28T17:51:50Z</time>
  <course>0.0</course>
  <speed>0.0</speed>
  <fix>3d</fix>
</trkpt>
<trkpt lat="40.0713749" lon="-105.229789">
  <ele>1583.0</ele>
  <time>2026-08-28T17:51:50Z</time>
  <course>248.32</course>
  <speed>0.01</speed>
  <fix>3d</fix>
</trkpt>
<trkpt lat="40.0713749" lon="-105.229789">
  <ele>1583.0</ele>
  <time>2026-08-28T17:51:50Z</time>
  <course>0.0</course>
  <speed>0.0</speed>
  <fix>3d</fix>
</trkpt>
<trkpt lat="40.0713749" lon="-105.229789">
  <ele>1583.0</ele>
  <time>2026-08-28T17:51:50Z</time>
  <course>248.32</course>
  <speed>0.01</speed>
  <fix>3d</fix>
</trkpt>
<trkpt lat="40.0713749" lon="-105.229789">
  <ele>1583.0</ele>
  <time>2026-08-28T17:51:50Z</time>
  <course>0.0</course>
  <speed>0.0</speed>
  <fix>3d</fix>
</trkpt>
<trkpt lat="40.0713749" lon="-105.229789">
  <ele>1583.0</ele>
  <time>2026-08-28T17:51:50Z</time>
  <course>248.31</course>
  <speed>0.01</speed>
  <fix>3d</fix>
</trkpt>
<trkpt lat="40.0713749" lon="-105.229789">
  <ele>1583.0</ele>
  <time>2026-08-28T17:51:50Z</time>
  <course>0.0</course>
  <speed>0.0</speed>
  <fix>3d</fix>
</trkpt>
<trkpt lat="40.0713749" lon="-105.229789">
  <ele>1583.0</ele>
  <time>2026-08-28T17:51:50Z</time>
  <course>248.31</course>
  <speed>0.01</speed>
  <fix>3d</fix>
</trkpt>
<trkpt lat="40.0713749" lon="-105.229789">
  <ele>1583.0</ele>
  <time>2026-08-28T17:51:50Z</time>
  <course>0.0</course>
  <speed>0.0</speed>
  <fix>3d</fix>
</trkpt>
<trkpt lat="40.0713749" lon="-105.229789">
  <ele>1583.0</ele>
  <time>2026-08-28T17:51:50Z</time>
  <course>248.3</course>
  <speed>0.01</speed>
  <fix>3d</fix>
</trkpt>
<trkpt lat="40.0713749" lon="-105.229789">
  <ele>1583.0</ele>
  <time>2026-08-28T17:51:50Z</time>
  <course>0.0</course>
  <speed>0.0</speed>
  <fix>3d</fix>
</trkpt>
<trkpt lat="40.0713749" lon="-105.229789">
  <ele>1583.0</ele>
  <time>2026-08-28T17:51:50Z</time>
  <course>248.3</course>
  <speed>0.01</speed>
  <fix>3d</fix>
</trkpt>
<trkpt lat="40.0713749" lon="-105.229789">
  <ele>1583.0</ele>
  <time>2026-08-28T17:51:50Z</time>
  <course>0.0</course>
  <speed>0.0</speed>
  <fix>3d</fix>
</trkpt>
<trkpt lat="40.0713749" lon="-105.229789">
  <ele>1583.0</ele>
  <time>2026-08-28T17:51:50Z</time>
  <course>248.29</course>
  <speed>0.01</speed>
  <fix>3d</fix>
</trkpt>
<trkpt lat="40.0713749" lon="-105.229789">
  <ele>1583.0</ele>
  <time>2026-08-28T17:51:50Z</time>
  <course>0.0</course>
  <speed>0.0</speed>
  <fix>3d</fix>
</trkpt>
<trkpt lat="40.0713749" lon="-105.229789">
  <ele>1583.0</ele>
  <time>2026-08-28T17:51:50Z</time>
  <course>248.29</course>
  <speed>0.01</speed>
  <fix>3d</fix>
</trkpt>
<trkpt lat="40.0713749" lon="-105.229789">
  <ele>1583.0</ele>
  <time>2026-08-28T17:51:50Z</time>
  <course>0.0</course>
  <speed>0.0</speed>
  <fix>3d</fix>
</trkpt>
<trkpt lat="40.0713749" lon="-105.229789">
  <ele>1583.0</ele>
  <time>2026-08-28T17:51:50Z</time>
  <course>248.28</course>
  <speed>0.01</speed>
  <fix>3d</fix>
</trkpt>
<trkpt lat="40.0713749" lon="-105.229789">
  <ele>1583.0</ele>
  <time>2026-08-28T17:51:50Z</time>
  <course>0.0</course>
  <speed>0.0</speed>
  <fix>3d</fix>
</trkpt>
<trkpt lat="40.0713749" lon="-105.229789">
  <ele>1583.0</ele>
  <time>2026-08-28T17:51:50Z</time>
  <course>248.28</course>
  <speed>0.01</speed>
  <fix>3d</fix>
</trkpt>
<trkpt lat="40.0713749" lon="-105.229789">
  <ele>1583.0</ele>
  <time>2026-08-28T17:51:50Z</time>
  <course>0.0</course>
  <speed>0.0</speed>
  <fix>3d</fix>
</trkpt>
<trkpt lat="40.0713749" lon="-105.229789">
  <ele>1583.0</ele>
  <time>2026-08-28T17:51:50Z</time>
  <course>248.27</course>
  <speed>0.01</speed>
  <fix>3d</fix>
</trkpt>
<trkpt lat="40.0713749" lon="-105.229789">
  <ele>1583.0</ele>
  <time>2026-08-28T17:51:50Z</time>
  <course>0.0</course>
  <speed>0.0</speed>
  <fix>3d</fix>
</trkpt>
<trkpt lat="40.0713749" lon="-105.229789">
  <ele>1583.0</ele>
  <time>2026-08-28T17:51:50Z</time>
  <course>248.27</course>
  <speed>0.01</speed>
  <fix>3d</fix>
</trkpt>
<trkpt lat="40.0713749" lon="-105.229789">
  <ele>1583.0</ele>
  <time>2026-08-28T17:51:50Z</time>
  <course>0.0</course>
  <speed>0.0</speed>
  <fix>3d</fix>
</trkpt>
<trkpt lat="40.0713749" lon="-105.229789">
  <ele>1583.0</ele>
  <time>2026-08-28T17:51:50Z</time>
  <course>248.26</course>
  <speed>0.01</speed>
  <fix>3d</fix>
</trkpt>
<trkpt lat="40.0713749" lon="-105.229789">
  <ele>1583.0</ele>
  <time>2026-08-28T17:51:50Z</time>
  <course>0.0</course>
  <speed>0.0</speed>
  <fix>3d</fix>
</trkpt>
<trkpt lat="40.0713749" lon="-105.229789">
  <ele>1583.0</ele>
  <time>2026-08-28T17:51:50Z</time>
  <course>248.26</course>
  <speed>0.01</speed>
  <fix>3d</fix>
</trkpt>
<trkpt lat="40.0713749" lon="-105.229789">
  <ele>1583.0</ele>
  <time>2026-08-28T17:51:50Z</time>
  <course>0.0</course>
  <speed>0.0</speed>
  <fix>3d</fix>
</trkpt>
<trkpt lat="40.0713749" lon="-105.229789">
  <ele>1583.0</ele>
  <time>2026-08-28T17:51:50Z</time>
  <course>248.26</course>
  <speed>0.01</speed>
  <fix>3d</fix>
</trkpt>
<trkpt lat="40.0713749" lon="-105.229789">
  <ele>1583.0</ele>
  <time>2026-08-28T17:51:50Z</time>
  <course>0.0</course>
  <speed>0.0</speed>
  <fix>3d</fix>
</trkpt>
<trkpt lat="40.0713749" lon="-105.229789">
  <ele>1583.0</ele>
  <time>2026-08-28T17:51:50Z</time>
  <course>248.25</course>
  <speed>0.01</speed>
  <fix>3d</fix>
</trkpt>
<trkpt lat="40.0713749" lon="-105.229789">
  <ele>1583.0</ele>
  <time>2026-08-28T17:51:50Z</time>
  <course>0.0</course>
  <speed>0.0</speed>
  <fix>3d</fix>
</trkpt>
<trkpt lat="40.0713749" lon="-105.229789">
  <ele>1583.0</ele>
  <time>2026-08-28T17:51:50Z</time>
  <course>248.25</course>
  <speed>0.01</speed>
  <fix>3d</fix>
</trkpt>
<trkpt lat="40.0713749" lon="-105.229789">
  <ele>1583.0</ele>
  <time>2026-08-28T17:51:50Z</time>
  <course>0.0</course>
  <speed>0.0</speed>
  <fix>3d</fix>
</trkpt>
<trkpt lat="40.0713749" lon="-105.229789">
  <ele>1583.0</ele>
  <time>2026-08-28T17:51:50Z</time>
  <course>248.24</course>
  <speed>0.01</speed>
  <fix>3d</fix>
</trkpt>
<trkpt lat="40.0713749" lon="-105.229789">
  <ele>1583.0</ele>
  <time>2026-08-28T17:51:50Z</time>
  <course>0.0</course>
  <speed>0.0</speed>
  <fix>3d</fix>
</trkpt>
<trkpt lat="40.0713749" lon="-105.229789">
  <ele>1583.0</ele>
  <time>2026-08-28T17:51:50Z</time>
  <course>248.24</course>
  <speed>0.01</speed>
  <fix>3d</fix>
</trkpt>
<trkpt lat="40.0713749" lon="-105.229789">
  <ele>1583.0</ele>
  <time>2026-08-28T17:51:50Z</time>
  <course>0.0</course>
  <speed>0.0</speed>
  <fix>3d</fix>
</trkpt>
<trkpt lat="40.0713749" lon="-105.229789">
  <ele>1583.0</ele>
  <time>2026-08-28T17:51:50Z</time>
  <course>248.23</course>
  <speed>0.01</speed>
  <fix>3d</fix>
</trkpt>
<trkpt lat="40.0713749" lon="-105.229789">
  <ele>1583.0</ele>
  <time>2026-08-28T17:51:50Z</time>
  <course>0.0</course>
  <speed>0.0</speed>
  <fix>3d</fix>
</trkpt>
<trkpt lat="40.0713749" lon="-105.229789">
  <ele>1583.0</ele>
  <time>2026-08-28T17:51:50Z</time>
  <course>248.23</course>
  <speed>0.01</speed>
  <fix>3d</fix>
</trkpt>
<trkpt lat="40.0713749" lon="-105.229789">
  <ele>1583.0</ele>
  <time>2026-08-28T17:51:50Z</time>
  <course>0.0</course>
  <speed>0.0</speed>
  <fix>3d</fix>
</trkpt>
<trkpt lat="40.0713749" lon="-105.229789">
  <ele>1583.0</ele>
  <time>2026-08-28T17:51:50Z</time>
  <course>248.22</course>
  <speed>0.01</speed>
  <fix>3d</fix>
</trkpt>
<trkpt lat="40.0713749" lon="-105.229789">
  <ele>1583.0</ele>
  <time>2026-08-28T17:51:50Z</time>
  <course>0.0</course>
  <speed>0.0</speed>
  <fix>3d</fix>
</trkpt>
<trkpt lat="40.0713749" lon="-105.229789">
  <ele>1583.0</ele>
  <time>2026-08-28T17:51:50Z</time>
  <course>248.22</course>
  <speed>0.01</speed>
  <fix>3d</fix>
</trkpt>
<trkpt lat="40.0713749" lon="-105.229789">
  <ele>1583.0</ele>
  <time>2026-08-28T17:51:50Z</time>
  <course>0.0</course>
  <speed>0.0</speed>
  <fix>3d</fix>
</trkpt>
<trkpt lat="40.0713749" lon="-105.229789">
  <ele>1583.0</ele>
  <time>2026-08-28T17:51:50Z</time>
  <course>248.21</course>
  <speed>0.01</speed>
  <fix>3d</fix>
</trkpt>
<trkpt lat="40.0713749" lon="-105.229789">
  <ele>1583.0</ele>
  <time>2026-08-28T17:51:50Z</time>
  <course>0.0</course>
  <speed>0.0</speed>
  <fix>3d</fix>
</trkpt>
<trkpt lat="40.0713749" lon="-105.229789">
  <ele>1583.0</ele>
  <time>2026-08-28T17:51:50Z</time>
  <course>248.21</course>
  <speed>0.01</speed>
  <fix>3d</fix>
</trkpt>
<trkpt lat="40.0713749" lon="-105.229789">
  <ele>1583.0</ele>
  <time>2026-08-28T17:51:50Z</time>
  <course>0.0</course>
  <speed>0.0</speed>
  <fix>3d</fix>
</trkpt>
<trkpt lat="40.0713749" lon="-105.229789">
  <ele>1583.0</ele>
  <time>2026-08-28T17:51:50Z</time>
  <course>248.2</course>
  <speed>0.01</speed>
  <fix>3d</fix>
</trkpt>
<trkpt lat="40.0713749" lon="-105.229789">
  <ele>1583.0</ele>
  <time>2026-08-28T17:51:50Z</time>
  <course>0.0</course>
  <speed>0.0</speed>
  <fix>3d</fix>
</trkpt>
<trkpt lat="40.0713749" lon="-105.229789">
  <ele>1583.0</ele>
  <time>2026-08-28T17:51:50Z</time>
  <course>248.2</course>
  <speed>0.01</speed>
  <fix>3d</fix>
</trkpt>
<trkpt lat="40.0713749" lon="-105.229789">
  <ele>1583.0</ele>
  <time>2026-08-28T17:51:50Z</time>
  <course>0.0</course>
  <speed>0.0</speed>
  <fix>3d</fix>
</trkpt>
<trkpt lat="40.0713749" lon="-105.229789">
  <ele>1583.0</ele>
  <time>2026-08-28T17:51:50Z</time>
  <course>248.19</course>
  <speed>0.01</speed>
  <fix>3d</fix>
</trkpt>
<trkpt lat="40.0713749" lon="-105.229789">
  <ele>1583.0</ele>
  <time>2026-08-28T17:51:50Z</time>
  <course>0.0</course>
  <speed>0.0</speed>
  <fix>3d</fix>
</trkpt>
<trkpt lat="40.0713749" lon="-105.229789">
  <ele>1583.0</ele>
  <time>2026-08-28T17:51:50Z</time>
  <course>248.19</course>
  <speed>0.01</speed>
  <fix>3d</fix>
</trkpt>
<trkpt lat="40.0713749" lon="-105.229789">
  <ele>1583.0</ele>
  <time>2026-08-28T17:51:50Z</time>
  <course>0.0</course>
  <speed>0.0</speed>
  <fix>3d</fix>
</trkpt>
<trkpt lat="40.0713749" lon="-105.229789">
  <ele>1583.0</ele>
  <time>2026-08-28T17:51:50Z</time>
  <course>248.18</course>
  <speed>0.01</speed>
  <fix>3d</fix>
</trkpt>
<trkpt lat="40.0713749" lon="-105.229789">
  <ele>1583.0</ele>
  <time>2026-08-28T17:51:50Z</time>
  <course>0.0</course>
  <speed>0.0</speed>
  <fix>3d</fix>
</trkpt>
<trkpt lat="40.0713749" lon="-105.229789">
  <ele>1583.0</ele>
  <time>2026-08-28T17:51:50Z</time>
  <course>248.18</course>
  <speed>0.01</speed>
  <fix>3d</fix>
</trkpt>
<trkpt lat="40.0713749" lon="-105.229789">
  <ele>1583.0</ele>
  <time>2026-08-28T17:51:50Z</time>
  <course>0.0</course>
  <speed>0.0</speed>
  <fix>3d</fix>
</trkpt>
<trkpt lat="40.0713749" lon="-105.229789">
  <ele>1583.0</ele>
  <time>2026-08-28T17:51:50Z</time>
  <course>248.17</course>
  <speed>0.022360679774997897</speed>
  <fix>3d</fix>
</trkpt>
<trkpt lat="40.0713749" lon="-105.229789">
  <ele>1583.0</ele>
  <time>2026-08-28T17:51:50Z</time>
  <course>0.0</course>
  <speed>0.0</speed>
  <fix>3d</fix>
</trkpt>
<trkpt lat="40.0713749" lon="-105.229789">
  <ele>1583.0</ele>
  <time>2026-08-28T17:51:50Z</time>
  <course>248.17</course>
  <speed>0.022360679774997897</speed>
  <fix>3d</fix>
</trkpt>
<trkpt lat="40.0713749" lon="-105.229789">
  <ele>1583.0</ele>
  <time>2026-08-28T17:51:50Z</time>
  <course>0.0</course>
  <speed>0.0</speed>
  <fix>3d</fix>
</trkpt>
<trkpt lat="40.0713749" lon="-105.229789">
  <ele>1583.0</ele>
  <time>2026-08-28T17:51:50Z</time>
  <course>248.16</course>
  <speed>0.022360679774997897</speed>
  <fix>3d</fix>
</trkpt>
<trkpt lat="40.0713749" lon="-105.229789">
  <ele>1583.0</ele>
  <time>2026-08-28T17:51:50Z</time>
  <course>0.0</course>
  <speed>0.0</speed>
  <fix>3d</fix>
</trkpt>
<trkpt lat="40.0713749" lon="-105.229789">
  <ele>1583.0</ele>
  <time>2026-08-28T17:51:50Z</time>
  <course>248.16</course>
  <speed>0.022360679774997897</speed>
  <fix>3d</fix>
</trkpt>
<trkpt lat="40.0713749" lon="-105.229789">
  <ele>1583.0</ele>
  <time>2026-08-28T17:51:50Z</time>
  <course>0.0</course>
  <speed>0.0</speed>
  <fix>3d</fix>
</trkpt>
<trkpt lat="40.0713749" lon="-105.229789">
  <ele>1583.0</ele>
  <time>2026-08-28T17:51:50Z</time>
  <course>248.15</course>
  <speed>0.022360679774997897</speed>
  <fix>3d</fix>
</trkpt>
<trkpt lat="40.0713749" lon="-105.229789">
  <ele>1583.0</ele>
  <time>2026-08-28T17:51:50Z</time>
  <course>0.0</course>
  <speed>0.0</speed>
  <fix>3d</fix>
</trkpt>
<trkpt lat="40.0713749" lon="-105.229789">
  <ele>1583.0</ele>
  <time>2026-08-28T17:51:50Z</time>
  <course>248.15</course>
  <speed>0.022360679774997897</speed>
  <fix>3d</fix>
</trkpt>
<trkpt lat="40.0713749" lon="-105.229789">
  <ele>1583.0</ele>
  <time>2026-08-28T17:51:50Z</time>
  <course>0.0</course>
  <speed>0.0</speed>
  <fix>3d</fix>
</trkpt>
<trkpt lat="40.0713749" lon="-105.229789">
  <ele>1583.0</ele>
  <time>2026-08-28T17:51:50Z</time>
  <course>248.14</course>
  <speed>0.022360679774997897</speed>
  <fix>3d</fix>
</trkpt>
<trkpt lat="40.0713749" lon="-105.229789">
  <ele>1583.0</ele>
  <time>2026-08-28T17:51:50Z</time>
  <course>0.0</course>
  <speed>0.0</speed>
  <fix>3d</fix>
</trkpt>
<trkpt lat="40.0713749" lon="-105.229789">
  <ele>1583.0</ele>
  <time>2026-08-28T17:51:50Z</time>
  <course>248.14</course>
  <speed>0.022360679774997897</speed>
  <fix>3d</fix>
</trkpt>
<trkpt lat="40.0713749" lon="-105.229789">
  <ele>1583.0</ele>
  <time>2026-08-28T17:51:50Z</time>
  <course>0.0</course>
  <speed>0.0</speed>
  <fix>3d</fix>
</trkpt>
<trkpt lat="40.0713749" lon="-105.229789">
  <ele>1583.0</ele>
  <time>2026-08-28T17:51:50Z</time>
  <course>248.13</course>
  <speed>0.022360679774997897</speed>
  <fix>3d</fix>
</trkpt>
<trkpt lat="40.0713749" lon="-105.229789">
  <ele>1583.0</ele>
  <time>2026-08-28T17:51:50Z</time>
  <course>0.0</course>
  <speed>0.0</speed>
  <fix>3d</fix>
</trkpt>
<trkpt lat="40.0713749" lon="-105.229789">
  <ele>1583.0</ele>
  <time>2026-08-28T17:51:50Z</time>
  <course>248.13</course>
  <speed>0.022360679774997897</speed>
  <fix>3d</fix>
</trkpt>
<trkpt lat="40.0713749" lon="-105.229789">
  <ele>1583.0</ele>
  <time>2026-08-28T17:51:50Z</time>
  <course>0.0</course>
  <speed>0.0</speed>
  <fix>3d</fix>
</trkpt>
<trkpt lat="40.0713749" lon="-105.229789">
  <ele>1583.0</ele>
  <time>2026-08-28T17:51:50Z</time>
  <course>248.12</course>
  <speed>0.022360679774997897</speed>
  <fix>3d</fix>
</trkpt>
<trkpt lat="40.0713749" lon="-105.229789">
  <ele>1583.0</ele>
  <time>2026-08-28T17:51:50Z</time>
  <course>0.0</course>
  <speed>0.0</speed>
  <fix>3d</fix>
</trkpt>
<trkpt lat="40.0713749" lon="-105.229789">
  <ele>1583.0</ele>
  <time>2026-08-28T17:51:50Z</time>
  <course>248.12</course>
  <speed>0.022360679774997897</speed>
  <fix>3d</fix>
</trkpt>
<trkpt lat="40.0713749" lon="-105.229789">
  <ele>1583.0</ele>
  <time>2026-08-28T17:51:50Z</time>
  <course>0.0</course>
  <speed>0.0</speed>
  <fix>3d</fix>
</trkpt>
<trkpt lat="40.0713749" lon="-105.229789">
  <ele>1583.0</ele>
  <time>2026-08-28T17:51:50Z</time>
  <course>248.11</course>
  <speed>0.022360679774997897</speed>
  <fix>3d</fix>
</trkpt>
<trkpt lat="40.0713749" lon="-105.229789">
  <ele>1583.0</ele>
  <time>2026-08-28T17:51:50Z</time>
  <course>0.0</course>
  <speed>0.0</speed>
  <fix>3d</fix>
</trkpt>
<trkpt lat="40.0713749" lon="-105.229789">
  <ele>1583.0</ele>
  <time>2026-08-28T17:51:50Z</time>
  <course>248.11</course>
  <speed>0.022360679774997897</speed>
  <fix>3d</fix>
</trkpt>
<trkpt lat="40.0713749" lon="-105.229789">
  <ele>1583.0</ele>
  <time>2026-08-28T17:51:50Z</time>
  <course>0.0</course>
  <speed>0.0</speed>
  <fix>3d</fix>
</trkpt>
<trkpt lat="40.0713749" lon="-105.229789">
  <ele>1583.0</ele>
  <time>2026-08-28T17:51:50Z</time>
  <course>248.1</course>
  <speed>0.022360679774997897</speed>
  <fix>3d</fix>
</trkpt>
<trkpt lat="40.0713749" lon="-105.229789">
  <ele>1583.0</ele>
  <time>2026-08-28T17:51:50Z</time>
  <course>0.0</course>
  <speed>0.0</speed>
  <fix>3d</fix>
</trkpt>
<trkpt lat="40.0713749" lon="-105.229789">
  <ele>1583.0</ele>
  <time>2026-08-28T17:51:50Z</time>
  <course>248.1</course>
  <speed>0.022360679774997897</speed>
  <fix>3d</fix>
</trkpt>
<trkpt lat="40.0713749" lon="-105.229789">
  <ele>1583.0</ele>
  <time>2026-08-28T17:51:50Z</time>
  <course>0.0</course>
  <speed>0.0</speed>
  <fix>3d</fix>
</trkpt>
<trkpt lat="40.0713749" lon="-105.229789">
  <ele>1583.0</ele>
  <time>2026-08-28T17:51:50Z</time>
  <course>248.09</course>
  <speed>0.022360679774997897</speed>
  <fix>3d</fix>
</trkpt>
<trkpt lat="40.0713749" lon="-105.229789">
  <ele>1583.0</ele>
  <time>2026-08-28T17:51:50Z</time>
  <course>0.0</course>
  <speed>0.0</speed>
  <fix>3d</fix>
</trkpt>
<trkpt lat="40.0713749" lon="-105.229789">
  <ele>1583.0</ele>
  <time>2026-08-28T17:51:50Z</time>
  <course>248.09</course>
  <speed>0.022360679774997897</speed>
  <fix>3d</fix>
</trkpt>
<trkpt lat="40.0713749" lon="-105.229789">
  <ele>1583.0</ele>
  <time>2026-08-28T17:51:50Z</time>
  <course>0.0</course>
  <speed>0.0</speed>
  <fix>3d</fix>
</trkpt>
<trkpt lat="40.0713749" lon="-105.229789">
  <ele>1583.0</ele>
  <time>2026-08-28T17:51:50Z</time>
  <course>248.08</course>
  <speed>0.022360679774997897</speed>
  <fix>3d</fix>
</trkpt>
<trkpt lat="40.0713749" lon="-105.229789">
  <ele>1583.0</ele>
  <time>2026-08-28T17:51:50Z</time>
  <course>0.0</course>
  <speed>0.0</speed>
  <fix>3d</fix>
</trkpt>
<trkpt lat="40.0713749" lon="-105.229789">
  <ele>1583.0</ele>
  <time>2026-08-28T17:51:50Z</time>
  <course>248.08</course>
  <speed>0.022360679774997897</speed>
  <fix>3d</fix>
</trkpt>
<trkpt lat="40.0713749" lon="-105.229789">
  <ele>1583.0</ele>
  <time>2026-08-28T17:51:50Z</time>
  <course>0.0</course>
  <speed>0.0</speed>
  <fix>3d</fix>
</trkpt>
<trkpt lat="40.0713749" lon="-105.229789">
  <ele>1583.0</ele>
  <time>2026-08-28T17:51:50Z</time>
  <course>248.07</course>
  <speed>0.022360679774997897</speed>
  <fix>3d</fix>
</trkpt>
<trkpt lat="40.0713749" lon="-105.229789">
  <ele>1583.0</ele>
  <time>2026-08-28T17:51:50Z</time>
  <course>0.0</course>
  <speed>0.0</speed>
  <fix>3d</fix>
</trkpt>
<trkpt lat="40.0713749" lon="-105.229789">
  <ele>1583.0</ele>
  <time>2026-08-28T17:51:50Z</time>
  <course>248.07</course>
  <speed>0.022360679774997897</speed>
  <fix>3d</fix>
</trkpt>
<trkpt lat="40.0713749" lon="-105.229789">
  <ele>1583.0</ele>
  <time>2026-08-28T17:51:50Z</time>
  <course>0.0</course>
  <speed>0.0</speed>
  <fix>3d</fix>
</trkpt>
<trkpt lat="40.0713749" lon="-105.229789">
  <ele>1583.0</ele>
  <time>2026-08-28T17:51:50Z</time>
  <course>248.06</course>
  <speed>0.022360679774997897</speed>
  <fix>3d</fix>
</trkpt>
<trkpt lat="40.0713749" lon="-105.229789">
  <ele>1583.0</ele>
  <time>2026-08-28T17:51:50Z</time>
  <course>0.0</course>
  <speed>0.0</speed>
  <fix>3d</fix>
</trkpt>
<trkpt lat="40.0713749" lon="-105.229789">
  <ele>1583.0</ele>
  <time>2026-08-28T17:51:50Z</time>
  <course>248.06</course>
  <speed>0.022360679774997897</speed>
  <fix>3d</fix>
</trkpt>
<trkpt lat="40.0713749" lon="-105.229789">
  <ele>1583.0</ele>
  <time>2026-08-28T17:51:50Z</time>
  <course>0.0</course>
  <speed>0.0</speed>
  <fix>3d</fix>
</trkpt>
<trkpt lat="40.0713749" lon="-105.229789">
  <ele>1583.0</ele>
  <time>2026-08-28T17:51:50Z</time>
  <course>248.05</course>
  <speed>0.022360679774997897</speed>
  <fix>3d</fix>
</trkpt>
<trkpt lat="40.0713749" lon="-105.229789">
  <ele>1583.0</ele>
  <time>2026-08-28T17:51:50Z</time>
  <course>0.0</course>
  <speed>0.0</speed>
  <fix>3d</fix>
</trkpt>
<trkpt lat="40.0713749" lon="-105.229789">
  <ele>1583.0</ele>
  <time>2026-08-28T17:51:50Z</time>
  <course>248.05</course>
  <speed>0.022360679774997897</speed>
  <fix>3d</fix>
</trkpt>
<trkpt lat="40.0713749" lon="-105.229789">
  <ele>1583.0</ele>
  <time>2026-08-28T17:51:50Z</time>
  <course>0.0</course>
  <speed>0.0</speed>
  <fix>3d</fix>
</trkpt>
<trkpt lat="40.0713749" lon="-105.229789">
  <ele>1583.0</ele>
  <time>2026-08-28T17:51:50Z</time>
  <course>248.05</course>
  <speed>0.022360679774997897</speed>
  <fix>3d</fix>
</trkpt>
<trkpt lat="40.0713749" lon="-105.229789">
  <ele>1583.0</ele>
  <time>2026-08-28T17:51:50Z</time>
  <course>0.0</course>
  <speed>0.0</speed>
  <fix>3d</fix>
</trkpt>
<trkpt lat="40.0713749" lon="-105.229789">
  <ele>1583.0</ele>
  <time>2026-08-28T17:51:50Z</time>
  <course>248.04</course>
  <speed>0.022360679774997897</speed>
  <fix>3d</fix>
</trkpt>
<trkpt lat="40.0713749" lon="-105.229789">
  <ele>1583.0</ele>
  <time>2026-08-28T17:51:50Z</time>
  <course>0.0</course>
  <speed>0.0</speed>
  <fix>3d</fix>
</trkpt>
<trkpt lat="40.0713749" lon="-105.229789">
  <ele>1583.0</ele>
  <time>2026-08-28T17:51:50Z</time>
  <course>248.04</course>
  <speed>0.022360679774997897</speed>
  <fix>3d</fix>
</trkpt>
<trkpt lat="40.0713749" lon="-105.229789">
  <ele>1583.0</ele>
  <time>2026-08-28T17:51:50Z</time>
  <course>0.0</course>
  <speed>0.0</speed>
  <fix>3d</fix>
</trkpt>
<trkpt lat="40.0713749" lon="-105.229789">
  <ele>1583.0</ele>
  <time>2026-08-28T17:51:50Z</time>
  <course>248.03</course>
  <speed>0.022360679774997897</speed>
  <fix>3d</fix>
</trkpt>
<trkpt lat="40.0713749" lon="-105.229789">
  <ele>1583.0</ele>
  <time>2026-08-28T17:51:50Z</time>
  <course>0.0</course>
  <speed>0.0</speed>
  <fix>3d</fix>
</trkpt>
<trkpt lat="40.0713749" lon="-105.229789">
  <ele>1583.0</ele>
  <time>2026-08-28T17:51:50Z</time>
  <course>248.03</course>
  <speed>0.022360679774997897</speed>
  <fix>3d</fix>
</trkpt>
<trkpt lat="40.0713749" lon="-105.229789">
  <ele>1583.0</ele>
  <time>2026-08-28T17:51:50Z</time>
  <course>0.0</course>
  <speed>0.0</speed>
  <fix>3d</fix>
</trkpt>
<trkpt lat="40.0713749" lon="-105.229789">
  <ele>1583.0</ele>
  <time>2026-08-28T17:51:50Z</time>
  <course>248.02</course>
  <speed>0.022360679774997897</speed>
  <fix>3d</fix>
</trkpt>
<trkpt lat="40.0713749" lon="-105.229789">
  <ele>1583.0</ele>
  <time>2026-08-28T17:51:50Z</time>
  <course>0.0</course>
  <speed>0.0</speed>
  <fix>3d</fix>
</trkpt>
<trkpt lat="40.0713749" lon="-105.229789">
  <ele>1583.0</ele>
  <time>2026-08-28T17:51:50Z</time>
  <course>248.02</course>
  <speed>0.022360679774997897</speed>
  <fix>3d</fix>
</trkpt>
<trkpt lat="40.0713749" lon="-105.229789">
  <ele>1583.0</ele>
  <time>2026-08-28T17:51:50Z</time>
  <course>0.0</course>
  <speed>0.0</speed>
  <fix>3d</fix>
</trkpt>
<trkpt lat="40.0713749" lon="-105.229789">
  <ele>1583.0</ele>
  <time>2026-08-28T17:51:50Z</time>
  <course>248.01</course>
  <speed>0.022360679774997897</speed>
  <fix>3d</fix>
</trkpt>
<trkpt lat="40.0713749" lon="-105.229789">
  <ele>1583.0</ele>
  <time>2026-08-28T17:51:50Z</time>
  <course>0.0</course>
  <speed>0.0</speed>
  <fix>3d</fix>
</trkpt>
<trkpt lat="40.0713749" lon="-105.229789">
  <ele>1583.0</ele>
  <time>2026-08-28T17:51:50Z</time>
  <course>248.01</course>
  <speed>0.022360679774997897</speed>
  <fix>3d</fix>
</trkpt>
<trkpt lat="40.0713749" lon="-105.229789">
  <ele>1583.0</ele>
  <time>2026-08-28T17:51:50Z</time>
  <course>0.0</course>
  <speed>0.0</speed>
  <fix>3d</fix>
</trkpt>
<trkpt lat="40.0713749" lon="-105.229789">
  <ele>1583.0</ele>
  <time>2026-08-28T17:51:50Z</time>
  <course>248.0</course>
  <speed>0.022360679774997897</speed>
  <fix>3d</fix>
</trkpt>
<trkpt lat="40.0713749" lon="-105.229789">
  <ele>1583.0</ele>
  <time>2026-08-28T17:51:50Z</time>
  <course>0.0</course>
  <speed>0.0</speed>
  <fix>3d</fix>
</trkpt>
<trkpt lat="40.0713749" lon="-105.229789">
  <ele>1583.0</ele>
  <time>2026-08-28T17:51:50Z</time>
  <course>248.0</course>
  <speed>0.022360679774997897</speed>
  <fix>3d</fix>
</trkpt>
<trkpt lat="40.0713749" lon="-105.229789">
  <ele>1583.0</ele>
  <time>2026-08-28T17:51:50Z</time>
  <course>0.0</course>
  <speed>0.0</speed>
  <fix>3d</fix>
</trkpt>
<trkpt lat="40.0713749" lon="-105.229789">
  <ele>1583.0</ele>
  <time>2026-08-28T17:51:50Z</time>
  <course>247.99</course>
  <speed>0.022360679774997897</speed>
  <fix>3d</fix>
</trkpt>
<trkpt lat="40.0713749" lon="-105.229789">
  <ele>1583.0</ele>
  <time>2026-08-28T17:51:50Z</time>
  <course>0.0</course>
  <speed>0.0</speed>
  <fix>3d</fix>
</trkpt>
<trkpt lat="40.0713749" lon="-105.229789">
  <ele>1583.0</ele>
  <time>2026-08-28T17:51:50Z</time>
  <course>247.99</course>
  <speed>0.022360679774997897</speed>
  <fix>3d</fix>
</trkpt>
<trkpt lat="40.0713749" lon="-105.229789">
  <ele>1583.0</ele>
  <time>2026-08-28T17:51:50Z</time>
  <course>0.0</course>
  <speed>0.0</speed>
  <fix>3d</fix>
</trkpt>
<trkpt lat="40.0713749" lon="-105.229789">
  <ele>1583.0</ele>
  <time>2026-08-28T17:51:50Z</time>
  <course>247.99</course>
  <speed>0.022360679774997897</speed>
  <fix>3d</fix>
</trkpt>
<trkpt lat="40.0713749" lon="-105.229789">
  <ele>1583.0</ele>
  <time>2026-08-28T17:51:50Z</time>
  <course>0.0</course>
  <speed>0.0</speed>
  <fix>3d</fix>
</trkpt>
<trkpt lat="40.0713749" lon="-105.229789">
  <ele>1583.0</ele>
  <time>2026-08-28T17:51:50Z</time>
  <course>247.98</course>
  <speed>0.022360679774997897</speed>
  <fix>3d</fix>
</trkpt>
<trkpt lat="40.0713749" lon="-105.229789">
  <ele>1583.0</ele>
  <time>2026-08-28T17:51:50Z</time>
  <course>0.0</course>
  <speed>0.0</speed>
  <fix>3d</fix>
</trkpt>
<trkpt lat="40.0713749" lon="-105.229789">
  <ele>1583.0</ele>
  <time>2026-08-28T17:51:50Z</time>
  <course>247.98</course>
  <speed>0.022360679774997897</speed>
  <fix>3d</fix>
</trkpt>
<trkpt lat="40.0713749" lon="-105.229789">
  <ele>1583.0</ele>
  <time>2026-08-28T17:51:50Z</time>
  <course>0.0</course>
  <speed>0.0</speed>
  <fix>3d</fix>
</trkpt>
<trkpt lat="40.0713749" lon="-105.229789">
  <ele>1583.0</ele>
  <time>2026-08-28T17:51:50Z</time>
  <course>247.97</course>
  <speed>0.022360679774997897</speed>
  <fix>3d</fix>
</trkpt>
<trkpt lat="40.0713749" lon="-105.229789">
  <ele>1583.0</ele>
  <time>2026-08-28T17:51:50Z</time>
  <course>0.0</course>
  <speed>0.0</speed>
  <fix>3d</fix>
</trkpt>
<trkpt lat="40.0713749" lon="-105.229789">
  <ele>1583.0</ele>
  <time>2026-08-28T17:51:50Z</time>
  <course>247.97</course>
  <speed>0.022360679774997897</speed>
  <fix>3d</fix>
</trkpt>
<trkpt lat="40.0713749" lon="-105.229789">
  <ele>1583.0</ele>
  <time>2026-08-28T17:51:50Z</time>
  <course>0.0</course>
  <speed>0.0</speed>
  <fix>3d</fix>
</trkpt>
<trkpt lat="40.0713749" lon="-105.229789">
  <ele>1583.0</ele>
  <time>2026-08-28T17:51:50Z</time>
  <course>247.96</course>
  <speed>0.022360679774997897</speed>
  <fix>3d</fix>
</trkpt>
<trkpt lat="40.0713749" lon="-105.229789">
  <ele>1583.0</ele>
  <time>2026-08-28T17:51:50Z</time>
  <course>0.0</course>
  <speed>0.0</speed>
  <fix>3d</fix>
</trkpt>
<trkpt lat="40.0713749" lon="-105.229789">
  <ele>1583.0</ele>
  <time>2026-08-28T17:51:50Z</time>
  <course>247.96</course>
  <speed>0.022360679774997897</speed>
  <fix>3d</fix>
</trkpt>
<trkpt lat="40.0713749" lon="-105.229789">
  <ele>1583.0</ele>
  <time>2026-08-28T17:51:50Z</time>
  <course>0.0</course>
  <speed>0.0</speed>
  <fix>3d</fix>
</trkpt>
<trkpt lat="40.0713749" lon="-105.229789">
  <ele>1583.0</ele>
  <time>2026-08-28T17:51:50Z</time>
  <course>247.95</course>
  <speed>0.022360679774997897</speed>
  <fix>3d</fix>
</trkpt>
<trkpt lat="40.0713749" lon="-105.229789">
  <ele>1583.0</ele>
  <time>2026-08-28T17:51:50Z</time>
  <course>0.0</course>
  <speed>0.0</speed>
  <fix>3d</fix>
</trkpt>
<trkpt lat="40.0713749" lon="-105.229789">
  <ele>1583.0</ele>
  <time>2026-08-28T17:51:50Z</time>
  <course>247.95</course>
  <speed>0.022360679774997897</speed>
  <fix>3d</fix>
</trkpt>
<trkpt lat="40.0713749" lon="-105.229789">
  <ele>1583.0</ele>
  <time>2026-08-28T17:51:50Z</time>
  <course>0.0</course>
  <speed>0.0</speed>
  <fix>3d</fix>
</trkpt>
<trkpt lat="40.0713749" lon="-105.229789">
  <ele>1583.0</ele>
  <time>2026-08-28T17:51:50Z</time>
  <course>247.95</course>
  <speed>0.022360679774997897</speed>
  <fix>3d</fix>
</trkpt>
<trkpt lat="40.0713749" lon="-105.229789">
  <ele>1583.0</ele>
  <time>2026-08-28T17:51:50Z</time>
  <course>0.0</course>
  <speed>0.0</speed>
  <fix>3d</fix>
</trkpt>
<trkpt lat="40.0713749" lon="-105.229789">
  <ele>1583.0</ele>
  <time>2026-08-28T17:51:50Z</time>
  <course>247.94</course>
  <speed>0.022360679774997897</speed>
  <fix>3d</fix>
</trkpt>
<trkpt lat="40.0713749" lon="-105.229789">
  <ele>1583.0</ele>
  <time>2026-08-28T17:51:50Z</time>
  <course>0.0</course>
  <speed>0.0</speed>
  <fix>3d</fix>
</trkpt>
<trkpt lat="40.0713749" lon="-105.229789">
  <ele>1583.0</ele>
  <time>2026-08-28T17:51:50Z</time>
  <course>247.94</course>
  <speed>0.022360679774997897</speed>
  <fix>3d</fix>
</trkpt>
<trkpt lat="40.0713749" lon="-105.229789">
  <ele>1583.0</ele>
  <time>2026-08-28T17:51:50Z</time>
  <course>0.0</course>
  <speed>0.0</speed>
  <fix>3d</fix>
</trkpt>
<trkpt lat="40.0713749" lon="-105.229789">
  <ele>1583.0</ele>
  <time>2026-08-28T17:51:50Z</time>
  <course>247.93</course>
  <speed>0.022360679774997897</speed>
  <fix>3d</fix>
</trkpt>
<trkpt lat="40.0713749" lon="-105.229789">
  <ele>1583.0</ele>
  <time>2026-08-28T17:51:50Z</time>
  <course>0.0</course>
  <speed>0.0</speed>
  <fix>3d</fix>
</trkpt>
<trkpt lat="40.0713749" lon="-105.229789">
  <ele>1583.0</ele>
  <time>2026-08-28T17:51:50Z</time>
  <course>247.93</course>
  <speed>0.022360679774997897</speed>
  <fix>3d</fix>
</trkpt>
<trkpt lat="40.0713749" lon="-105.229789">
  <ele>1583.0</ele>
  <time>2026-08-28T17:51:50Z</time>
  <course>0.0</course>
  <speed>0.0</speed>
  <fix>3d</fix>
</trkpt>
<trkpt lat="40.0713749" lon="-105.229789">
  <ele>1583.0</ele>
  <time>2026-08-28T17:51:50Z</time>
  <course>247.92</course>
  <speed>0.022360679774997897</speed>
  <fix>3d</fix>
</trkpt>
<trkpt lat="40.0713749" lon="-105.229789">
  <ele>1583.0</ele>
  <time>2026-08-28T17:51:50Z</time>
  <course>0.0</course>
  <speed>0.0</speed>
  <fix>3d</fix>
</trkpt>
<trkpt lat="40.0713749" lon="-105.229789">
  <ele>1583.0</ele>
  <time>2026-08-28T17:51:50Z</time>
  <course>247.92</course>
  <speed>0.022360679774997897</speed>
  <fix>3d</fix>
</trkpt>
<trkpt lat="40.0713749" lon="-105.229789">
  <ele>1583.0</ele>
  <time>2026-08-28T17:51:50Z</time>
  <course>0.0</course>
  <speed>0.0</speed>
  <fix>3d</fix>
</trkpt>
<trkpt lat="40.0713749" lon="-105.229789">
  <ele>1583.0</ele>
  <time>2026-08-28T17:51:50Z</time>
  <course>247.92</course>
  <speed>0.022360679774997897</speed>
  <fix>3d</fix>
</trkpt>
<trkpt lat="40.0713749" lon="-105.229789">
  <ele>1583.0</ele>
  <time>2026-08-28T17:51:50Z</time>
  <course>0.0</course>
  <speed>0.0</speed>
  <fix>3d</fix>
</trkpt>
<trkpt lat="40.0713749" lon="-105.229789">
  <ele>1583.0</ele>
  <time>2026-08-28T17:51:50Z</time>
  <course>247.91</course>
  <speed>0.022360679774997897</speed>
  <fix>3d</fix>
</trkpt>
<trkpt lat="40.0713749" lon="-105.229789">
  <ele>1583.0</ele>
  <time>2026-08-28T17:51:50Z</time>
  <course>0.0</course>
  <speed>0.0</speed>
  <fix>3d</fix>
</trkpt>
<trkpt lat="40.0713749" lon="-105.229789">
  <ele>1583.0</ele>
  <time>2026-08-28T17:51:50Z</time>
  <course>247.91</course>
  <speed>0.022360679774997897</speed>
  <fix>3d</fix>
</trkpt>
<trkpt lat="40.0713749" lon="-105.229789">
  <ele>1583.0</ele>
  <time>2026-08-28T17:51:50Z</time>
  <course>0.0</course>
  <speed>0.0</speed>
  <fix>3d</fix>
</trkpt>
<trkpt lat="40.0713749" lon="-105.229789">
  <ele>1583.0</ele>
  <time>2026-08-28T17:51:50Z</time>
  <course>247.9</course>
  <speed>0.022360679774997897</speed>
  <fix>3d</fix>
</trkpt>
<trkpt lat="40.0713749" lon="-105.229789">
  <ele>1583.0</ele>
  <time>2026-08-28T17:51:50Z</time>
  <course>0.0</course>
  <speed>0.0</speed>
  <fix>3d</fix>
</trkpt>
<trkpt lat="40.0713749" lon="-105.229789">
  <ele>1583.0</ele>
  <time>2026-08-28T17:51:50Z</time>
  <course>247.9</course>
  <speed>0.022360679774997897</speed>
  <fix>3d</fix>
</trkpt>
<trkpt lat="40.0713749" lon="-105.229789">
  <ele>1583.0</ele>
  <time>2026-08-28T17:51:50Z</time>
  <course>0.0</course>
  <speed>0.0</speed>
  <fix>3d</fix>
</trkpt>
<trkpt lat="40.0713749" lon="-105.229789">
  <ele>1583.0</ele>
  <time>2026-08-28T17:51:50Z</time>
  <course>247.89</course>
  <speed>0.022360679774997897</speed>
  <fix>3d</fix>
</trkpt>
<trkpt lat="40.0713749" lon="-105.229789">
  <ele>1583.0</ele>
  <time>2026-08-28T17:51:50Z</time>
  <course>0.0</course>
  <speed>0.0</speed>
  <fix>3d</fix>
</trkpt>
<trkpt lat="40.0713749" lon="-105.229789">
  <ele>1583.0</ele>
  <time>2026-08-28T17:51:50Z</time>
  <course>247.89</course>
  <speed>0.022360679774997897</speed>
  <fix>3d</fix>
</trkpt>
<trkpt lat="40.0713749" lon="-105.229789">
  <ele>1583.0</ele>
  <time>2026-08-28T17:51:50Z</time>
  <course>0.0</course>
  <speed>0.0</speed>
  <fix>3d</fix>
</trkpt>
<trkpt lat="40.0713749" lon="-105.229789">
  <ele>1583.0</ele>
  <time>2026-08-28T17:51:50Z</time>
  <course>247.89</course>
  <speed>0.022360679774997897</speed>
  <fix>3d</fix>
</trkpt>
<trkpt lat="40.0713749" lon="-105.229789">
  <ele>1583.0</ele>
  <time>2026-08-28T17:51:50Z</time>
  <course>0.0</course>
  <speed>0.0</speed>
  <fix>3d</fix>
</trkpt>
<trkpt lat="40.0713749" lon="-105.229789">
  <ele>1583.0</ele>
  <time>2026-08-28T17:51:50Z</time>
  <course>247.88</course>
  <speed>0.0316227766016838</speed>
  <fix>3d</fix>
</trkpt>
<trkpt lat="40.0713749" lon="-105.229789">
  <ele>1583.0</ele>
  <time>2026-08-28T17:51:50Z</time>
  <course>0.0</course>
  <speed>0.0</speed>
  <fix>3d</fix>
</trkpt>
<trkpt lat="40.0713749" lon="-105.229789">
  <ele>1583.0</ele>
  <time>2026-08-28T17:51:50Z</time>
  <course>247.88</course>
  <speed>0.0316227766016838</speed>
  <fix>3d</fix>
</trkpt>
<trkpt lat="40.0713749" lon="-105.229789">
  <ele>1583.0</ele>
  <time>2026-08-28T17:51:50Z</time>
  <course>0.0</course>
  <speed>0.0</speed>
  <fix>3d</fix>
</trkpt>
<trkpt lat="40.0713749" lon="-105.229789">
  <ele>1583.0</ele>
  <time>2026-08-28T17:51:50Z</time>
  <course>247.87</course>
  <speed>0.0316227766016838</speed>
  <fix>3d</fix>
</trkpt>
<trkpt lat="40.0713749" lon="-105.229789">
  <ele>1583.0</ele>
  <time>2026-08-28T17:51:50Z</time>
  <course>0.0</course>
  <speed>0.0</speed>
  <fix>3d</fix>
</trkpt>
<trkpt lat="40.0713749" lon="-105.229789">
  <ele>1583.0</ele>
  <time>2026-08-28T17:51:50Z</time>
  <course>247.87</course>
  <speed>0.0316227766016838</speed>
  <fix>3d</fix>
</trkpt>
<trkpt lat="40.0713749" lon="-105.229789">
  <ele>1583.0</ele>
  <time>2026-08-28T17:51:50Z</time>
  <course>0.0</course>
  <speed>0.0</speed>
  <fix>3d</fix>
</trkpt>
<trkpt lat="40.0713749" lon="-105.229789">
  <ele>1583.0</ele>
  <time>2026-08-28T17:51:50Z</time>
  <course>247.87</course>
  <speed>0.0316227766016838</speed>
  <fix>3d</fix>
</trkpt>
<trkpt lat="40.0713749" lon="-105.229789">
  <ele>1583.0</ele>
  <time>2026-08-28T17:51:50Z</time>
  <course>0.0</course>
  <speed>0.0</speed>
  <fix>3d</fix>
</trkpt>
<trkpt lat="40.0713749" lon="-105.229789">
  <ele>1583.0</ele>
  <time>2026-08-28T17:51:50Z</time>
  <course>247.86</course>
  <speed>0.0316227766016838</speed>
  <fix>3d</fix>
</trkpt>
<trkpt lat="40.0713749" lon="-105.229789">
  <ele>1583.0</ele>
  <time>2026-08-28T17:51:50Z</time>
  <course>0.0</course>
  <speed>0.0</speed>
  <fix>3d</fix>
</trkpt>
<trkpt lat="40.0713749" lon="-105.229789">
  <ele>1583.0</ele>
  <time>2026-08-28T17:51:50Z</time>
  <course>247.86</course>
  <speed>0.0316227766016838</speed>
  <fix>3d</fix>
</trkpt>
<trkpt lat="40.0713749" lon="-105.229789">
  <ele>1583.0</ele>
  <time>2026-08-28T17:51:50Z</time>
  <course>0.0</course>
  <speed>0.0</speed>
  <fix>3d</fix>
</trkpt>
<trkpt lat="40.0713749" lon="-105.229789">
  <ele>1583.0</ele>
  <time>2026-08-28T17:51:50Z</time>
  <course>247.85</course>
  <speed>0.0316227766016838</speed>
  <fix>3d</fix>
</trkpt>
<trkpt lat="40.0713749" lon="-105.229789">
  <ele>1583.0</ele>
  <time>2026-08-28T17:51:50Z</time>
  <course>0.0</course>
  <speed>0.0</speed>
  <fix>3d</fix>
</trkpt>
<trkpt lat="40.0713749" lon="-105.229789">
  <ele>1583.0</ele>
  <time>2026-08-28T17:51:50Z</time>
  <course>247.85</course>
  <speed>0.0316227766016838</speed>
  <fix>3d</fix>
</trkpt>
<trkpt lat="40.0713749" lon="-105.229789">
  <ele>1583.0</ele>
  <time>2026-08-28T17:51:50Z</time>
  <course>0.0</course>
  <speed>0.0</speed>
  <fix>3d</fix>
</trkpt>
<trkpt lat="40.0713749" lon="-105.229789">
  <ele>1583.0</ele>
  <time>2026-08-28T17:51:50Z</time>
  <course>247.85</course>
  <speed>0.0316227766016838</speed>
  <fix>3d</fix>
</trkpt>
<trkpt lat="40.0713749" lon="-105.229789">
  <ele>1583.0</ele>
  <time>2026-08-28T17:51:50Z</time>
  <course>0.0</course>
  <speed>0.0</speed>
  <fix>3d</fix>
</trkpt>
<trkpt lat="40.0713749" lon="-105.229789">
  <ele>1583.0</ele>
  <time>2026-08-28T17:51:50Z</time>
  <course>247.84</course>
  <speed>0.0316227766016838</speed>
  <fix>3d</fix>
</trkpt>
<trkpt lat="40.0713749" lon="-105.229789">
  <ele>1583.0</ele>
  <time>2026-08-28T17:51:50Z</time>
  <course>0.0</course>
  <speed>0.0</speed>
  <fix>3d</fix>
</trkpt>
<trkpt lat="40.0713749" lon="-105.229789">
  <ele>1583.0</ele>
  <time>2026-08-28T17:51:50Z</time>
  <course>247.84</course>
  <speed>0.0316227766016838</speed>
  <fix>3d</fix>
</trkpt>
<trkpt lat="40.0713749" lon="-105.229789">
  <ele>1583.0</ele>
  <time>2026-08-28T17:51:50Z</time>
  <course>0.0</course>
  <speed>0.0</speed>
  <fix>3d</fix>
</trkpt>
<trkpt lat="40.0713749" lon="-105.229789">
  <ele>1583.0</ele>
  <time>2026-08-28T17:51:50Z</time>
  <course>247.83</course>
  <speed>0.0316227766016838</speed>
  <fix>3d</fix>
</trkpt>
<trkpt lat="40.0713749" lon="-105.229789">
  <ele>1583.0</ele>
  <time>2026-08-28T17:51:50Z</time>
  <course>0.0</course>
  <speed>0.0</speed>
  <fix>3d</fix>
</trkpt>
<trkpt lat="40.0713749" lon="-105.229789">
  <ele>1583.0</ele>
  <time>2026-08-28T17:51:50Z</time>
  <course>247.83</course>
  <speed>0.0316227766016838</speed>
  <fix>3d</fix>
</trkpt>
<trkpt lat="40.0713749" lon="-105.229789">
  <ele>1583.0</ele>
  <time>2026-08-28T17:51:50Z</time>
  <course>0.0</course>
  <speed>0.0</speed>
  <fix>3d</fix>
</trkpt>
<trkpt lat="40.0713749" lon="-105.229789">
  <ele>1583.0</ele>
  <time>2026-08-28T17:51:50Z</time>
  <course>247.83</course>
  <speed>0.0316227766016838</speed>
  <fix>3d</fix>
</trkpt>
<trkpt lat="40.0713749" lon="-105.229789">
  <ele>1583.0</ele>
  <time>2026-08-28T17:51:50Z</time>
  <course>0.0</course>
  <speed>0.0</speed>
  <fix>3d</fix>
</trkpt>
<trkpt lat="40.0713749" lon="-105.229789">
  <ele>1583.0</ele>
  <time>2026-08-28T17:51:50Z</time>
  <course>247.82</course>
  <speed>0.0316227766016838</speed>
  <fix>3d</fix>
</trkpt>
<trkpt lat="40.0713749" lon="-105.229789">
  <ele>1583.0</ele>
  <time>2026-08-28T17:51:50Z</time>
  <course>0.0</course>
  <speed>0.0</speed>
  <fix>3d</fix>
</trkpt>
<trkpt lat="40.0713749" lon="-105.229789">
  <ele>1583.0</ele>
  <time>2026-08-28T17:51:50Z</time>
  <course>247.82</course>
  <speed>0.0316227766016838</speed>
  <fix>3d</fix>
</trkpt>
<trkpt lat="40.0713749" lon="-105.229789">
  <ele>1583.0</ele>
  <time>2026-08-28T17:51:50Z</time>
  <course>0.0</course>
  <speed>0.0</speed>
  <fix>3d</fix>
</trkpt>
<trkpt lat="40.0713749" lon="-105.229789">
  <ele>1583.0</ele>
  <time>2026-08-28T17:51:50Z</time>
  <course>247.82</course>
  <speed>0.0316227766016838</speed>
  <fix>3d</fix>
</trkpt>
<trkpt lat="40.0713749" lon="-105.229789">
  <ele>1583.0</ele>
  <time>2026-08-28T17:51:50Z</time>
  <course>0.0</course>
  <speed>0.0</speed>
  <fix>3d</fix>
</trkpt>
<trkpt lat="40.0713749" lon="-105.229789">
  <ele>1583.0</ele>
  <time>2026-08-28T17:51:50Z</time>
  <course>247.81</course>
  <speed>0.0316227766016838</speed>
  <fix>3d</fix>
</trkpt>
<trkpt lat="40.0713749" lon="-105.229789">
  <ele>1583.0</ele>
  <time>2026-08-28T17:51:50Z</time>
  <course>0.0</course>
  <speed>0.0</speed>
  <fix>3d</fix>
</trkpt>
<trkpt lat="40.0713749" lon="-105.229789">
  <ele>1583.0</ele>
  <time>2026-08-28T17:51:50Z</time>
  <course>247.81</course>
  <speed>0.0316227766016838</speed>
  <fix>3d</fix>
</trkpt>
<trkpt lat="40.0713749" lon="-105.229789">
  <ele>1583.0</ele>
  <time>2026-08-28T17:51:50Z</time>
  <course>0.0</course>
  <speed>0.0</speed>
  <fix>3d</fix>
</trkpt>
<trkpt lat="40.0713749" lon="-105.229789">
  <ele>1583.0</ele>
  <time>2026-08-28T17:51:50Z</time>
  <course>247.8</course>
  <speed>0.0316227766016838</speed>
  <fix>3d</fix>
</trkpt>
<trkpt lat="40.0713749" lon="-105.229789">
  <ele>1583.0</ele>
  <time>2026-08-28T17:51:50Z</time>
  <course>0.0</course>
  <speed>0.0</speed>
  <fix>3d</fix>
</trkpt>
<trkpt lat="40.0713749" lon="-105.229789">
  <ele>1583.0</ele>
  <time>2026-08-28T17:51:50Z</time>
  <course>247.8</course>
  <speed>0.0316227766016838</speed>
  <fix>3d</fix>
</trkpt>
<trkpt lat="40.0713749" lon="-105.229789">
  <ele>1583.0</ele>
  <time>2026-08-28T17:51:50Z</time>
  <course>0.0</course>
  <speed>0.0</speed>
  <fix>3d</fix>
</trkpt>
<trkpt lat="40.0713749" lon="-105.229789">
  <ele>1583.0</ele>
  <time>2026-08-28T17:51:50Z</time>
  <course>247.8</course>
  <speed>0.0316227766016838</speed>
  <fix>3d</fix>
</trkpt>
<trkpt lat="40.0713749" lon="-105.229789">
  <ele>1583.0</ele>
  <time>2026-08-28T17:51:50Z</time>
  <course>0.0</course>
  <speed>0.0</speed>
  <fix>3d</fix>
</trkpt>
<trkpt lat="40.0713749" lon="-105.229789">
  <ele>1583.0</ele>
  <time>2026-08-28T17:51:50Z</time>
  <course>247.79</course>
  <speed>0.0316227766016838</speed>
  <fix>3d</fix>
</trkpt>
<trkpt lat="40.0713749" lon="-105.229789">
  <ele>1583.0</ele>
  <time>2026-08-28T17:51:50Z</time>
  <course>0.0</course>
  <speed>0.0</speed>
  <fix>3d</fix>
</trkpt>
<trkpt lat="40.0713749" lon="-105.229789">
  <ele>1583.0</ele>
  <time>2026-08-28T17:51:50Z</time>
  <course>247.79</course>
  <speed>0.0316227766016838</speed>
  <fix>3d</fix>
</trkpt>
<trkpt lat="40.0713749" lon="-105.229789">
  <ele>1583.0</ele>
  <time>2026-08-28T17:51:50Z</time>
  <course>0.0</course>
  <speed>0.0</speed>
  <fix>3d</fix>
</trkpt>
<trkpt lat="40.0713749" lon="-105.229789">
  <ele>1583.0</ele>
  <time>2026-08-28T17:51:50Z</time>
  <course>247.79</course>
  <speed>0.0316227766016838</speed>
  <fix>3d</fix>
</trkpt>
<trkpt lat="40.0713749" lon="-105.229789">
  <ele>1583.0</ele>
  <time>2026-08-28T17:51:50Z</time>
  <course>0.0</course>
  <speed>0.0</speed>
  <fix>3d</fix>
</trkpt>
<trkpt lat="40.0713749" lon="-105.229789">
  <ele>1583.0</ele>
  <time>2026-08-28T17:51:50Z</time>
  <course>247.78</course>
  <speed>0.0316227766016838</speed>
  <fix>3d</fix>
</trkpt>
<trkpt lat="40.0713749" lon="-105.229789">
  <ele>1583.0</ele>
  <time>2026-08-28T17:51:50Z</time>
  <course>0.0</course>
  <speed>0.0</speed>
  <fix>3d</fix>
</trkpt>
<trkpt lat="40.0713749" lon="-105.229789">
  <ele>1583.0</ele>
  <time>2026-08-28T17:51:50Z</time>
  <course>247.78</course>
  <speed>0.0316227766016838</speed>
  <fix>3d</fix>
</trkpt>
<trkpt lat="40.0713749" lon="-105.229789">
  <ele>1583.0</ele>
  <time>2026-08-28T17:51:50Z</time>
  <course>0.0</course>
  <speed>0.0</speed>
  <fix>3d</fix>
</trkpt>
<trkpt lat="40.0713749" lon="-105.229789">
  <ele>1583.0</ele>
  <time>2026-08-28T17:51:50Z</time>
  <course>247.78</course>
  <speed>0.0316227766016838</speed>
  <fix>3d</fix>
</trkpt>
<trkpt lat="40.0713749" lon="-105.229789">
  <ele>1583.0</ele>
  <time>2026-08-28T17:51:50Z</time>
  <course>0.0</course>
  <speed>0.0</speed>
  <fix>3d</fix>
</trkpt>
<trkpt lat="40.0713749" lon="-105.229789">
  <ele>1583.0</ele>
  <time>2026-08-28T17:51:50Z</time>
  <course>247.77</course>
  <speed>0.0316227766016838</speed>
  <fix>3d</fix>
</trkpt>
<trkpt lat="40.0713749" lon="-105.229789">
  <ele>1583.0</ele>
  <time>2026-08-28T17:51:50Z</time>
  <course>0.0</course>
  <speed>0.0</speed>
  <fix>3d</fix>
</trkpt>
<trkpt lat="40.0713749" lon="-105.229789">
  <ele>1583.0</ele>
  <time>2026-08-28T17:51:50Z</time>
  <course>247.77</course>
  <speed>0.0316227766016838</speed>
  <fix>3d</fix>
</trkpt>
<trkpt lat="40.0713749" lon="-105.229789">
  <ele>1583.0</ele>
  <time>2026-08-28T17:51:50Z</time>
  <course>0.0</course>
  <speed>0.0</speed>
  <fix>3d</fix>
</trkpt>
<trkpt lat="40.0713749" lon="-105.229789">
  <ele>1583.0</ele>
  <time>2026-08-28T17:51:50Z</time>
  <course>247.76</course>
  <speed>0.0316227766016838</speed>
  <fix>3d</fix>
</trkpt>
<trkpt lat="40.0713749" lon="-105.229789">
  <ele>1583.0</ele>
  <time>2026-08-28T17:51:50Z</time>
  <course>0.0</course>
  <speed>0.0</speed>
  <fix>3d</fix>
</trkpt>
<trkpt lat="40.0713749" lon="-105.229789">
  <ele>1583.0</ele>
  <time>2026-08-28T17:51:50Z</time>
  <course>247.76</course>
  <speed>0.0316227766016838</speed>
  <fix>3d</fix>
</trkpt>
<trkpt lat="40.0713749" lon="-105.229789">
  <ele>1583.0</ele>
  <time>2026-08-28T17:51:50Z</time>
  <course>0.0</course>
  <speed>0.0</speed>
  <fix>3d</fix>
</trkpt>
<trkpt lat="40.0713749" lon="-105.229789">
  <ele>1583.0</ele>
  <time>2026-08-28T17:51:50Z</time>
  <course>247.76</course>
  <speed>0.0316227766016838</speed>
  <fix>3d</fix>
</trkpt>
<trkpt lat="40.0713749" lon="-105.229789">
  <ele>1583.0</ele>
  <time>2026-08-28T17:51:50Z</time>
  <course>0.0</course>
  <speed>0.0</speed>
  <fix>3d</fix>
</trkpt>
<trkpt lat="40.0713749" lon="-105.229789">
  <ele>1583.0</ele>
  <time>2026-08-28T17:51:50Z</time>
  <course>247.75</course>
  <speed>0.0316227766016838</speed>
  <fix>3d</fix>
</trkpt>
<trkpt lat="40.0713749" lon="-105.229789">
  <ele>1583.0</ele>
  <time>2026-08-28T17:51:50Z</time>
  <course>0.0</course>
  <speed>0.0</speed>
  <fix>3d</fix>
</trkpt>
<trkpt lat="40.0713749" lon="-105.229789">
  <ele>1583.0</ele>
  <time>2026-08-28T17:51:50Z</time>
  <course>247.75</course>
  <speed>0.0316227766016838</speed>
  <fix>3d</fix>
</trkpt>
<trkpt lat="40.0713749" lon="-105.229789">
  <ele>1583.0</ele>
  <time>2026-08-28T17:51:50Z</time>
  <course>0.0</course>
  <speed>0.0</speed>
  <fix>3d</fix>
</trkpt>
<trkpt lat="40.0713749" lon="-105.229789">
  <ele>1583.0</ele>
  <time>2026-08-28T17:51:50Z</time>
  <course>247.75</course>
  <speed>0.0316227766016838</speed>
  <fix>3d</fix>
</trkpt>
<trkpt lat="40.0713749" lon="-105.229789">
  <ele>1583.0</ele>
  <time>2026-08-28T17:51:50Z</time>
  <course>0.0</course>
  <speed>0.0</speed>
  <fix>3d</fix>
</trkpt>
<trkpt lat="40.0713749" lon="-105.229789">
  <ele>1583.0</ele>
  <time>2026-08-28T17:51:50Z</time>
  <course>247.74</course>
  <speed>0.0316227766016838</speed>
  <fix>3d</fix>
</trkpt>
<trkpt lat="40.0713749" lon="-105.229789">
  <ele>1583.0</ele>
  <time>2026-08-28T17:51:50Z</time>
  <course>0.0</course>
  <speed>0.0</speed>
  <fix>3d</fix>
</trkpt>
<trkpt lat="40.0713749" lon="-105.229789">
  <ele>1583.0</ele>
  <time>2026-08-28T17:51:50Z</time>
  <course>247.74</course>
  <speed>0.0316227766016838</speed>
  <fix>3d</fix>
</trkpt>
<trkpt lat="40.0713749" lon="-105.229789">
  <ele>1583.0</ele>
  <time>2026-08-28T17:51:50Z</time>
  <course>0.0</course>
  <speed>0.0</speed>
  <fix>3d</fix>
</trkpt>
<trkpt lat="40.0713749" lon="-105.229789">
  <ele>1583.0</ele>
  <time>2026-08-28T17:51:50Z</time>
  <course>247.74</course>
  <speed>0.0316227766016838</speed>
  <fix>3d</fix>
</trkpt>
<trkpt lat="40.0713749" lon="-105.229789">
  <ele>1583.0</ele>
  <time>2026-08-28T17:51:50Z</time>
  <course>0.0</course>
  <speed>0.0</speed>
  <fix>3d</fix>
</trkpt>
<trkpt lat="40.0713749" lon="-105.229789">
  <ele>1583.0</ele>
  <time>2026-08-28T17:51:50Z</time>
  <course>247.73</course>
  <speed>0.0316227766016838</speed>
  <fix>3d</fix>
</trkpt>
<trkpt lat="40.0713749" lon="-105.229789">
  <ele>1583.0</ele>
  <time>2026-08-28T17:51:50Z</time>
  <course>0.0</course>
  <speed>0.0</speed>
  <fix>3d</fix>
</trkpt>
<trkpt lat="40.0713749" lon="-105.229789">
  <ele>1583.0</ele>
  <time>2026-08-28T17:51:50Z</time>
  <course>247.73</course>
  <speed>0.0316227766016838</speed>
  <fix>3d</fix>
</trkpt>
<trkpt lat="40.0713749" lon="-105.229789">
  <ele>1583.0</ele>
  <time>2026-08-28T17:51:50Z</time>
  <course>0.0</course>
  <speed>0.0</speed>
  <fix>3d</fix>
</trkpt>
<trkpt lat="40.0713749" lon="-105.229789">
  <ele>1583.0</ele>
  <time>2026-08-28T17:51:50Z</time>
  <course>247.73</course>
  <speed>0.0316227766016838</speed>
  <fix>3d</fix>
</trkpt>
<trkpt lat="40.0713749" lon="-105.229789">
  <ele>1583.0</ele>
  <time>2026-08-28T17:51:50Z</time>
  <course>0.0</course>
  <speed>0.0</speed>
  <fix>3d</fix>
</trkpt>
<trkpt lat="40.0713749" lon="-105.229789">
  <ele>1583.0</ele>
  <time>2026-08-28T17:51:50Z</time>
  <course>247.72</course>
  <speed>0.0316227766016838</speed>
  <fix>3d</fix>
</trkpt>
<trkpt lat="40.0713749" lon="-105.229789">
  <ele>1583.0</ele>
  <time>2026-08-28T17:51:50Z</time>
  <course>0.0</course>
  <speed>0.0</speed>
  <fix>3d</fix>
</trkpt>
<trkpt lat="40.0713749" lon="-105.229789">
  <ele>1583.0</ele>
  <time>2026-08-28T17:51:50Z</time>
  <course>247.72</course>
  <speed>0.0316227766016838</speed>
  <fix>3d</fix>
</trkpt>
<trkpt lat="40.0713749" lon="-105.229789">
  <ele>1583.0</ele>
  <time>2026-08-28T17:51:50Z</time>
  <course>0.0</course>
  <speed>0.0</speed>
  <fix>3d</fix>
</trkpt>
<trkpt lat="40.0713749" lon="-105.229789">
  <ele>1583.0</ele>
  <time>2026-08-28T17:51:50Z</time>
  <course>247.72</course>
  <speed>0.0316227766016838</speed>
  <fix>3d</fix>
</trkpt>
<trkpt lat="40.0713749" lon="-105.229789">
  <ele>1583.0</ele>
  <time>2026-08-28T17:51:50Z</time>
  <course>0.0</course>
  <speed>0.0</speed>
  <fix>3d</fix>
</trkpt>
<trkpt lat="40.0713749" lon="-105.229789">
  <ele>1583.0</ele>
  <time>2026-08-28T17:51:50Z</time>
  <course>247.71</course>
  <speed>0.0316227766016838</speed>
  <fix>3d</fix>
</trkpt>
<trkpt lat="40.0713749" lon="-105.229789">
  <ele>1583.0</ele>
  <time>2026-08-28T17:51:50Z</time>
  <course>0.0</course>
  <speed>0.0</speed>
  <fix>3d</fix>
</trkpt>
<trkpt lat="40.0713749" lon="-105.229789">
  <ele>1583.0</ele>
  <time>2026-08-28T17:51:50Z</time>
  <course>247.71</course>
  <speed>0.0316227766016838</speed>
  <fix>3d</fix>
</trkpt>
<trkpt lat="40.0713749" lon="-105.229789">
  <ele>1583.0</ele>
  <time>2026-08-28T17:51:50Z</time>
  <course>0.0</course>
  <speed>0.0</speed>
  <fix>3d</fix>
</trkpt>
<trkpt lat="40.0713749" lon="-105.229789">
  <ele>1583.0</ele>
  <time>2026-08-28T17:51:50Z</time>
  <course>247.71</course>
  <speed>0.0316227766016838</speed>
  <fix>3d</fix>
</trkpt>
<trkpt lat="40.0713749" lon="-105.229789">
  <ele>1583.0</ele>
  <time>2026-08-28T17:51:50Z</time>
  <course>0.0</course>
  <speed>0.0</speed>
  <fix>3d</fix>
</trkpt>
<trkpt lat="40.0713749" lon="-105.229789">
  <ele>1583.0</ele>
  <time>2026-08-28T17:51:50Z</time>
  <course>247.7</course>
  <speed>0.0316227766016838</speed>
  <fix>3d</fix>
</trkpt>
<trkpt lat="40.0713749" lon="-105.229789">
  <ele>1583.0</ele>
  <time>2026-08-28T17:51:50Z</time>
  <course>0.0</course>
  <speed>0.0</speed>
  <fix>3d</fix>
</trkpt>
<trkpt lat="40.0713749" lon="-105.229789">
  <ele>1583.0</ele>
  <time>2026-08-28T17:51:50Z</time>
  <course>247.7</course>
  <speed>0.0316227766016838</speed>
  <fix>3d</fix>
</trkpt>
<trkpt lat="40.0713749" lon="-105.229789">
  <ele>1583.0</ele>
  <time>2026-08-28T17:51:50Z</time>
  <course>0.0</course>
  <speed>0.0</speed>
  <fix>3d</fix>
</trkpt>
<trkpt lat="40.0713749" lon="-105.229789">
  <ele>1583.0</ele>
  <time>2026-08-28T17:51:50Z</time>
  <course>247.7</course>
  <speed>0.0316227766016838</speed>
  <fix>3d</fix>
</trkpt>
<trkpt lat="40.0713749" lon="-105.229789">
  <ele>1583.0</ele>
  <time>2026-08-28T17:51:50Z</time>
  <course>0.0</course>
  <speed>0.0</speed>
  <fix>3d</fix>
</trkpt>
<trkpt lat="40.0713749" lon="-105.229789">
  <ele>1583.0</ele>
  <time>2026-08-28T17:51:50Z</time>
  <course>247.69</course>
  <speed>0.0316227766016838</speed>
  <fix>3d</fix>
</trkpt>
<trkpt lat="40.0713749" lon="-105.229789">
  <ele>1583.0</ele>
  <time>2026-08-28T17:51:50Z</time>
  <course>0.0</course>
  <speed>0.0</speed>
  <fix>3d</fix>
</trkpt>
<trkpt lat="40.0713749" lon="-105.229789">
  <ele>1583.0</ele>
  <time>2026-08-28T17:51:50Z</time>
  <course>247.69</course>
  <speed>0.0316227766016838</speed>
  <fix>3d</fix>
</trkpt>
<trkpt lat="40.0713749" lon="-105.229789">
  <ele>1583.0</ele>
  <time>2026-08-28T17:51:50Z</time>
  <course>0.0</course>
  <speed>0.0</speed>
  <fix>3d</fix>
</trkpt>
<trkpt lat="40.0713749" lon="-105.229789">
  <ele>1583.0</ele>
  <time>2026-08-28T17:51:50Z</time>
  <course>247.69</course>
  <speed>0.0316227766016838</speed>
  <fix>3d</fix>
</trkpt>
<trkpt lat="40.0713749" lon="-105.229789">
  <ele>1583.0</ele>
  <time>2026-08-28T17:51:50Z</time>
  <course>0.0</course>
  <speed>0.0</speed>
  <fix>3d</fix>
</trkpt>
<trkpt lat="40.0713749" lon="-105.229789">
  <ele>1583.0</ele>
  <time>2026-08-28T17:51:50Z</time>
  <course>247.68</course>
  <speed>0.0316227766016838</speed>
  <fix>3d</fix>
</trkpt>
<trkpt lat="40.0713749" lon="-105.229789">
  <ele>1583.0</ele>
  <time>2026-08-28T17:51:50Z</time>
  <course>0.0</course>
  <speed>0.0</speed>
  <fix>3d</fix>
</trkpt>
<trkpt lat="40.0713749" lon="-105.229789">
  <ele>1583.0</ele>
  <time>2026-08-28T17:51:50Z</time>
  <course>247.68</course>
  <speed>0.0316227766016838</speed>
  <fix>3d</fix>
</trkpt>
<trkpt lat="40.0713749" lon="-105.229789">
  <ele>1583.0</ele>
  <time>2026-08-28T17:51:50Z</time>
  <course>0.0</course>
  <speed>0.0</speed>
  <fix>3d</fix>
</trkpt>
<trkpt lat="40.0713749" lon="-105.229789">
  <ele>1583.0</ele>
  <time>2026-08-28T17:51:50Z</time>
  <course>247.68</course>
  <speed>0.0316227766016838</speed>
  <fix>3d</fix>
</trkpt>
<trkpt lat="40.0713749" lon="-105.229789">
  <ele>1583.0</ele>
  <time>2026-08-28T17:51:50Z</time>
  <course>0.0</course>
  <speed>0.0</speed>
  <fix>3d</fix>
</trkpt>
<trkpt lat="40.0713749" lon="-105.229789">
  <ele>1583.0</ele>
  <time>2026-08-28T17:51:50Z</time>
  <course>247.67</course>
  <speed>0.0316227766016838</speed>
  <fix>3d</fix>
</trkpt>
<trkpt lat="40.0713749" lon="-105.229789">
  <ele>1583.0</ele>
  <time>2026-08-28T17:51:50Z</time>
  <course>0.0</course>
  <speed>0.0</speed>
  <fix>3d</fix>
</trkpt>
<trkpt lat="40.0713749" lon="-105.229789">
  <ele>1583.0</ele>
  <time>2026-08-28T17:51:50Z</time>
  <course>247.67</course>
  <speed>0.0316227766016838</speed>
  <fix>3d</fix>
</trkpt>
<trkpt lat="40.0713749" lon="-105.229789">
  <ele>1583.0</ele>
  <time>2026-08-28T17:51:50Z</time>
  <course>0.0</course>
  <speed>0.0</speed>
  <fix>3d</fix>
</trkpt>
<trkpt lat="40.0713749" lon="-105.229789">
  <ele>1583.0</ele>
  <time>2026-08-28T17:51:50Z</time>
  <course>247.67</course>
  <speed>0.0316227766016838</speed>
  <fix>3d</fix>
</trkpt>
<trkpt lat="40.0713749" lon="-105.229789">
  <ele>1583.0</ele>
  <time>2026-08-28T17:51:50Z</time>
  <course>0.0</course>
  <speed>0.0</speed>
  <fix>3d</fix>
</trkpt>
<trkpt lat="40.0713749" lon="-105.229789">
  <ele>1583.0</ele>
  <time>2026-08-28T17:51:50Z</time>
  <course>247.66</course>
  <speed>0.0316227766016838</speed>
  <fix>3d</fix>
</trkpt>
<trkpt lat="40.0713749" lon="-105.229789">
  <ele>1583.0</ele>
  <time>2026-08-28T17:51:50Z</time>
  <course>0.0</course>
  <speed>0.0</speed>
  <fix>3d</fix>
</trkpt>
<trkpt lat="40.0713749" lon="-105.229789">
  <ele>1583.0</ele>
  <time>2026-08-28T17:51:50Z</time>
  <course>247.66</course>
  <speed>0.0316227766016838</speed>
  <fix>3d</fix>
</trkpt>
<trkpt lat="40.0713749" lon="-105.229789">
  <ele>1583.0</ele>
  <time>2026-08-28T17:51:50Z</time>
  <course>0.0</course>
  <speed>0.0</speed>
  <fix>3d</fix>
</trkpt>
<trkpt lat="40.0713749" lon="-105.229789">
  <ele>1583.0</ele>
  <time>2026-08-28T17:51:50Z</time>
  <course>247.66</course>
  <speed>0.0316227766016838</speed>
  <fix>3d</fix>
</trkpt>
<trkpt lat="40.0713749" lon="-105.229789">
  <ele>1583.0</ele>
  <time>2026-08-28T17:51:50Z</time>
  <course>0.0</course>
  <speed>0.0</speed>
  <fix>3d</fix>
</trkpt>
<trkpt lat="40.0713749" lon="-105.229789">
  <ele>1583.0</ele>
  <time>2026-08-28T17:51:50Z</time>
  <course>247.65</course>
  <speed>0.0316227766016838</speed>
  <fix>3d</fix>
</trkpt>
<trkpt lat="40.0713749" lon="-105.229789">
  <ele>1583.0</ele>
  <time>2026-08-28T17:51:50Z</time>
  <course>0.0</course>
  <speed>0.0</speed>
  <fix>3d</fix>
</trkpt>
<trkpt lat="40.0713749" lon="-105.229789">
  <ele>1583.0</ele>
  <time>2026-08-28T17:51:50Z</time>
  <course>247.65</course>
  <speed>0.0316227766016838</speed>
  <fix>3d</fix>
</trkpt>
<trkpt lat="40.0713749" lon="-105.229789">
  <ele>1583.0</ele>
  <time>2026-08-28T17:51:50Z</time>
  <course>0.0</course>
  <speed>0.0</speed>
  <fix>3d</fix>
</trkpt>
<trkpt lat="40.0713749" lon="-105.229789">
  <ele>1583.0</ele>
  <time>2026-08-28T17:51:50Z</time>
  <course>247.65</course>
  <speed>0.0316227766016838</speed>
  <fix>3d</fix>
</trkpt>
<trkpt lat="40.0713749" lon="-105.229789">
  <ele>1583.0</ele>
  <time>2026-08-28T17:51:50Z</time>
  <course>0.0</course>
  <speed>0.0</speed>
  <fix>3d</fix>
</trkpt>
<trkpt lat="40.0713749" lon="-105.229789">
  <ele>1583.0</ele>
  <time>2026-08-28T17:51:50Z</time>
  <course>247.64</course>
  <speed>0.0316227766016838</speed>
  <fix>3d</fix>
</trkpt>
<trkpt lat="40.0713749" lon="-105.229789">
  <ele>1583.0</ele>
  <time>2026-08-28T17:51:50Z</time>
  <course>0.0</course>
  <speed>0.0</speed>
  <fix>3d</fix>
</trkpt>
<trkpt lat="40.0713749" lon="-105.229789">
  <ele>1583.0</ele>
  <time>2026-08-28T17:51:50Z</time>
  <course>247.64</course>
  <speed>0.0316227766016838</speed>
  <fix>3d</fix>
</trkpt>
<trkpt lat="40.0713749" lon="-105.229789">
  <ele>1583.0</ele>
  <time>2026-08-28T17:51:50Z</time>
  <course>0.0</course>
  <speed>0.0</speed>
  <fix>3d</fix>
</trkpt>
<trkpt lat="40.0713749" lon="-105.229789">
  <ele>1583.0</ele>
  <time>2026-08-28T17:51:50Z</time>
  <course>247.64</course>
  <speed>0.0316227766016838</speed>
  <fix>3d</fix>
</trkpt>
<trkpt lat="40.0713749" lon="-105.229789">
  <ele>1583.0</ele>
  <time>2026-08-28T17:51:50Z</time>
  <course>0.0</course>
  <speed>0.0</speed>
  <fix>3d</fix>
</trkpt>
<trkpt lat="40.0713749" lon="-105.229789">
  <ele>1583.0</ele>
  <time>2026-08-28T17:51:50Z</time>
  <course>247.64</course>
  <speed>0.0316227766016838</speed>
  <fix>3d</fix>
</trkpt>
<trkpt lat="40.0713749" lon="-105.229789">
  <ele>1583.0</ele>
  <time>2026-08-28T17:51:50Z</time>
  <course>0.0</course>
  <speed>0.0</speed>
  <fix>3d</fix>
</trkpt>
<trkpt lat="40.0713749" lon="-105.229789">
  <ele>1583.0</ele>
  <time>2026-08-28T17:51:50Z</time>
  <course>247.63</course>
  <speed>0.0316227766016838</speed>
  <fix>3d</fix>
</trkpt>
<trkpt lat="40.0713749" lon="-105.229789">
  <ele>1583.0</ele>
  <time>2026-08-28T17:51:50Z</time>
  <course>0.0</course>
  <speed>0.0</speed>
  <fix>3d</fix>
</trkpt>
<trkpt lat="40.0713749" lon="-105.229789">
  <ele>1583.0</ele>
  <time>2026-08-28T17:51:50Z</time>
  <course>247.63</course>
  <speed>0.0316227766016838</speed>
  <fix>3d</fix>
</trkpt>
<trkpt lat="40.0713749" lon="-105.229789">
  <ele>1583.0</ele>
  <time>2026-08-28T17:51:50Z</time>
  <course>0.0</course>
  <speed>0.0</speed>
  <fix>3d</fix>
</trkpt>
<trkpt lat="40.0713749" lon="-105.229789">
  <ele>1583.0</ele>
  <time>2026-08-28T17:51:50Z</time>
  <course>247.63</course>
  <speed>0.0316227766016838</speed>
  <fix>3d</fix>
</trkpt>
<trkpt lat="40.0713749" lon="-105.229789">
  <ele>1583.0</ele>
  <time>2026-08-28T17:51:50Z</time>
  <course>0.0</course>
  <speed>0.0</speed>
  <fix>3d</fix>
</trkpt>
<trkpt lat="40.0713749" lon="-105.229789">
  <ele>1583.0</ele>
  <time>2026-08-28T17:51:50Z</time>
  <course>247.62</course>
  <speed>0.0316227766016838</speed>
  <fix>3d</fix>
</trkpt>
<trkpt lat="40.0713749" lon="-105.229789">
  <ele>1583.0</ele>
  <time>2026-08-28T17:51:50Z</time>
  <course>0.0</course>
  <speed>0.0</speed>
  <fix>3d</fix>
</trkpt>
<trkpt lat="40.0713749" lon="-105.229789">
  <ele>1583.0</ele>
  <time>2026-08-28T17:51:50Z</time>
  <course>247.62</course>
  <speed>0.0316227766016838</speed>
  <fix>3d</fix>
</trkpt>
<trkpt lat="40.0713749" lon="-105.229789">
  <ele>1583.0</ele>
  <time>2026-08-28T17:51:50Z</time>
  <course>0.0</course>
  <speed>0.0</speed>
  <fix>3d</fix>
</trkpt>
<trkpt lat="40.0713749" lon="-105.229789">
  <ele>1583.0</ele>
  <time>2026-08-28T17:51:50Z</time>
  <course>247.62</course>
  <speed>0.0316227766016838</speed>
  <fix>3d</fix>
</trkpt>
<trkpt lat="40.0713749" lon="-105.229789">
  <ele>1583.0</ele>
  <time>2026-08-28T17:51:50Z</time>
  <course>0.0</course>
  <speed>0.0</speed>
  <fix>3d</fix>
</trkpt>
<trkpt lat="40.0713749" lon="-105.229789">
  <ele>1583.0</ele>
  <time>2026-08-28T17:51:50Z</time>
  <course>247.62</course>
  <speed>0.0316227766016838</speed>
  <fix>3d</fix>
</trkpt>
<trkpt lat="40.0713749" lon="-105.229789">
  <ele>1583.0</ele>
  <time>2026-08-28T17:51:50Z</time>
  <course>0.0</course>
  <speed>0.0</speed>
  <fix>3d</fix>
</trkpt>
<trkpt lat="40.0713749" lon="-105.229789">
  <ele>1583.0</ele>
  <time>2026-08-28T17:51:50Z</time>
  <course>247.61</course>
  <speed>0.0316227766016838</speed>
  <fix>3d</fix>
</trkpt>
<trkpt lat="40.0713749" lon="-105.229789">
  <ele>1583.0</ele>
  <time>2026-08-28T17:51:50Z</time>
  <course>0.0</course>
  <speed>0.0</speed>
  <fix>3d</fix>
</trkpt>
<trkpt lat="40.0713749" lon="-105.229789">
  <ele>1583.0</ele>
  <time>2026-08-28T17:51:50Z</time>
  <course>247.61</course>
  <speed>0.0316227766016838</speed>
  <fix>3d</fix>
</trkpt>
<trkpt lat="40.0713749" lon="-105.229789">
  <ele>1583.0</ele>
  <time>2026-08-28T17:51:50Z</time>
  <course>0.0</course>
  <speed>0.0</speed>
  <fix>3d</fix>
</trkpt>
<trkpt lat="40.0713749" lon="-105.229789">
  <ele>1583.0</ele>
  <time>2026-08-28T17:51:50Z</time>
  <course>247.61</course>
  <speed>0.0316227766016838</speed>
  <fix>3d</fix>
</trkpt>
<trkpt lat="40.0713749" lon="-105.229789">
  <ele>1583.0</ele>
  <time>2026-08-28T17:51:50Z</time>
  <course>0.0</course>
  <speed>0.0</speed>
  <fix>3d</fix>
</trkpt>
<trkpt lat="40.0713749" lon="-105.229789">
  <ele>1583.0</ele>
  <time>2026-08-28T17:51:50Z</time>
  <course>247.6</course>
  <speed>0.0316227766016838</speed>
  <fix>3d</fix>
</trkpt>
<trkpt lat="40.0713749" lon="-105.229789">
  <ele>1583.0</ele>
  <time>2026-08-28T17:51:50Z</time>
  <course>0.0</course>
  <speed>0.0</speed>
  <fix>3d</fix>
</trkpt>
<trkpt lat="40.0713749" lon="-105.229789">
  <ele>1583.0</ele>
  <time>2026-08-28T17:51:50Z</time>
  <course>247.6</course>
  <speed>0.0316227766016838</speed>
  <fix>3d</fix>
</trkpt>
<trkpt lat="40.0713749" lon="-105.229789">
  <ele>1583.0</ele>
  <time>2026-08-28T17:51:50Z</time>
  <course>0.0</course>
  <speed>0.0</speed>
  <fix>3d</fix>
</trkpt>
<trkpt lat="40.0713749" lon="-105.229789">
  <ele>1583.0</ele>
  <time>2026-08-28T17:51:50Z</time>
  <course>247.6</course>
  <speed>0.0316227766016838</speed>
  <fix>3d</fix>
</trkpt>
<trkpt lat="40.0713749" lon="-105.229789">
  <ele>1583.0</ele>
  <time>2026-08-28T17:51:50Z</time>
  <course>0.0</course>
  <speed>0.0</speed>
  <fix>3d</fix>
</trkpt>
<trkpt lat="40.0713749" lon="-105.229789">
  <ele>1583.0</ele>
  <time>2026-08-28T17:51:50Z</time>
  <course>247.6</course>
  <speed>0.0316227766016838</speed>
  <fix>3d</fix>
</trkpt>
<trkpt lat="40.0713749" lon="-105.229789">
  <ele>1583.0</ele>
  <time>2026-08-28T17:51:50Z</time>
  <course>0.0</course>
  <speed>0.0</speed>
  <fix>3d</fix>
</trkpt>
<trkpt lat="40.0713749" lon="-105.229789">
  <ele>1583.0</ele>
  <time>2026-08-28T17:51:50Z</time>
  <course>247.59</course>
  <speed>0.0316227766016838</speed>
  <fix>3d</fix>
</trkpt>
<trkpt lat="40.0713749" lon="-105.229789">
  <ele>1583.0</ele>
  <time>2026-08-28T17:51:50Z</time>
  <course>0.0</course>
  <speed>0.0</speed>
  <fix>3d</fix>
</trkpt>
<trkpt lat="40.0713749" lon="-105.229789">
  <ele>1582.92</ele>
  <time>2026-08-28T17:51:50Z</time>
  <course>247.59</course>
  <speed>0.0</speed>
  <fix>3d</fix>
</trkpt>
<trkpt lat="40.0713749" lon="-105.229789">
  <ele>1583.0</ele>
  <time>2026-08-28T17:51:50Z</time>
  <course>0.0</course>
  <speed>0.0</speed>
  <fix>3d</fix>
</trkpt>
<trkpt lat="40.0713749" lon="-105.229789">
  <ele>1582.92</ele>
  <time>2026-08-28T17:51:50Z</time>
  <course>247.59</course>
  <speed>0.0</speed>
  <fix>3d</fix>
</trkpt>
<trkpt lat="40.0713749" lon="-105.229789">
  <ele>1583.0</ele>
  <time>2026-08-28T17:51:50Z</time>
  <course>0.0</course>
  <speed>0.0</speed>
  <fix>3d</fix>
</trkpt>
<trkpt lat="40.0713749" lon="-105.229789">
  <ele>1582.91</ele>
  <time>2026-08-28T17:51:50Z</time>
  <course>247.58</course>
  <speed>0.0</speed>
  <fix>3d</fix>
</trkpt>
<trkpt lat="40.0713749" lon="-105.229789">
  <ele>1583.0</ele>
  <time>2026-08-28T17:51:50Z</time>
  <course>0.0</course>
  <speed>0.0</speed>
  <fix>3d</fix>
</trkpt>
<trkpt lat="40.0713749" lon="-105.229789">
  <ele>1582.91</ele>
  <time>2026-08-28T17:51:50Z</time>
  <course>247.58</course>
  <speed>0.0</speed>
  <fix>3d</fix>
</trkpt>
<trkpt lat="40.0713749" lon="-105.229789">
  <ele>1583.0</ele>
  <time>2026-08-28T17:51:50Z</time>
  <course>0.0</course>
  <speed>0.0</speed>
  <fix>3d</fix>
</trkpt>
<trkpt lat="40.0713749" lon="-105.229789">
  <ele>1582.9</ele>
  <time>2026-08-28T17:51:50Z</time>
  <course>247.58</course>
  <speed>0.0</speed>
  <fix>3d</fix>
</trkpt>
<trkpt lat="40.0713749" lon="-105.229789">
  <ele>1583.0</ele>
  <time>2026-08-28T17:51:50Z</time>
  <course>0.0</course>
  <speed>0.0</speed>
  <fix>3d</fix>
</trkpt>
<trkpt lat="40.0713749" lon="-105.229789">
  <ele>1582.9</ele>
  <time>2026-08-28T17:51:50Z</time>
  <course>247.58</course>
  <speed>0.0</speed>
  <fix>3d</fix>
</trkpt>
<trkpt lat="40.0713749" lon="-105.229789">
  <ele>1583.0</ele>
  <time>2026-08-28T17:51:50Z</time>
  <course>0.0</course>
  <speed>0.0</speed>
  <fix>3d</fix>
</trkpt>
<trkpt lat="40.0713749" lon="-105.229789">
  <ele>1582.9</ele>
  <time>2026-08-28T17:51:51Z</time>
  <course>247.57</course>
  <speed>0.0</speed>
  <fix>3d</fix>
</trkpt>
<trkpt lat="40.0713749" lon="-105.229789">
  <ele>1583.0</ele>
  <time>2026-08-28T17:51:51Z</time>
  <course>0.0</course>
  <speed>0.0</speed>
  <fix>3d</fix>
</trkpt>
<trkpt lat="40.0713749" lon="-105.229789">
  <ele>1582.9</ele>
  <time>2026-08-28T17:51:51Z</time>
  <course>247.57</course>
  <speed>0.0</speed>
  <fix>3d</fix>
</trkpt>
<trkpt lat="40.0713749" lon="-105.229789">
  <ele>1583.0</ele>
  <time>2026-08-28T17:51:51Z</time>
  <course>0.0</course>
  <speed>0.0</speed>
  <fix>3d</fix>
</trkpt>
<trkpt lat="40.0713749" lon="-105.229789">
  <ele>1582.9</ele>
  <time>2026-08-28T17:51:51Z</time>
  <course>247.57</course>
  <speed>0.0</speed>
  <fix>3d</fix>
</trkpt>
<trkpt lat="40.0713749" lon="-105.229789">
  <ele>1583.0</ele>
  <time>2026-08-28T17:51:51Z</time>
  <course>0.0</course>
  <speed>0.0</speed>
  <fix>3d</fix>
</trkpt>
<trkpt lat="40.0713749" lon="-105.229789">
  <ele>1582.9</ele>
  <time>2026-08-28T17:51:51Z</time>
  <course>247.57</course>
  <speed>0.01</speed>
  <fix>3d</fix>
</trkpt>
<trkpt lat="40.0713749" lon="-105.229789">
  <ele>1583.0</ele>
  <time>2026-08-28T17:51:51Z</time>
  <course>0.0</course>
  <speed>0.0</speed>
  <fix>3d</fix>
</trkpt>
<trkpt lat="40.0713749" lon="-105.229789">
  <ele>1582.9</ele>
  <time>2026-08-28T17:51:51Z</time>
  <course>247.56</course>
  <speed>0.01</speed>
  <fix>3d</fix>
</trkpt>
<trkpt lat="40.0713749" lon="-105.229789">
  <ele>1583.0</ele>
  <time>2026-08-28T17:51:51Z</time>
  <course>0.0</course>
  <speed>0.0</speed>
  <fix>3d</fix>
</trkpt>
<trkpt lat="40.0713749" lon="-105.229789">
  <ele>1582.91</ele>
  <time>2026-08-28T17:51:51Z</time>
  <course>247.56</course>
  <speed>0.01</speed>
  <fix>3d</fix>
</trkpt>
<trkpt lat="40.0713749" lon="-105.229789">
  <ele>1583.0</ele>
  <time>2026-08-28T17:51:51Z</time>
  <course>0.0</course>
  <speed>0.0</speed>
  <fix>3d</fix>
</trkpt>
<trkpt lat="40.0713749" lon="-105.229789">
  <ele>1582.91</ele>
  <time>2026-08-28T17:51:51Z</time>
  <course>247.56</course>
  <speed>0.01</speed>
  <fix>3d</fix>
</trkpt>
<trkpt lat="40.0713749" lon="-105.229789">
  <ele>1583.0</ele>
  <time>2026-08-28T17:51:51Z</time>
  <course>0.0</course>
  <speed>0.0</speed>
  <fix>3d</fix>
</trkpt>
<trkpt lat="40.0713749" lon="-105.229789">
  <ele>1582.92</ele>
  <time>2026-08-28T17:51:51Z</time>
  <course>247.56</course>
  <speed>0.01</speed>
  <fix>3d</fix>
</trkpt>
<trkpt lat="40.0713749" lon="-105.229789">
  <ele>1583.0</ele>
  <time>2026-08-28T17:51:51Z</time>
  <course>0.0</course>
  <speed>0.0</speed>
  <fix>3d</fix>
</trkpt>
<trkpt lat="40.0713749" lon="-105.229789">
  <ele>1582.92</ele>
  <time>2026-08-28T17:51:51Z</time>
  <course>247.55</course>
  <speed>0.01</speed>
  <fix>3d</fix>
</trkpt>
<trkpt lat="40.0713749" lon="-105.229789">
  <ele>1583.0</ele>
  <time>2026-08-28T17:51:51Z</time>
  <course>0.0</course>
  <speed>0.0</speed>
  <fix>3d</fix>
</trkpt>
<trkpt lat="40.0713749" lon="-105.229789">
  <ele>1582.92</ele>
  <time>2026-08-28T17:51:51Z</time>
  <course>247.55</course>
  <speed>0.01</speed>
  <fix>3d</fix>
</trkpt>
<trkpt lat="40.0713749" lon="-105.229789">
  <ele>1583.0</ele>
  <time>2026-08-28T17:51:51Z</time>
  <course>0.0</course>
  <speed>0.0</speed>
  <fix>3d</fix>
</trkpt>
<trkpt lat="40.0713749" lon="-105.229789">
  <ele>1582.93</ele>
  <time>2026-08-28T17:51:51Z</time>
  <course>247.55</course>
  <speed>0.01</speed>
  <fix>3d</fix>
</trkpt>
<trkpt lat="40.0713749" lon="-105.229789">
  <ele>1583.0</ele>
  <time>2026-08-28T17:51:51Z</time>
  <course>0.0</course>
  <speed>0.0</speed>
  <fix>3d</fix>
</trkpt>
<trkpt lat="40.0713749" lon="-105.229789">
  <ele>1582.93</ele>
  <time>2026-08-28T17:51:51Z</time>
  <course>247.55</course>
  <speed>0.01</speed>
  <fix>3d</fix>
</trkpt>
<trkpt lat="40.0713749" lon="-105.229789">
  <ele>1583.0</ele>
  <time>2026-08-28T17:51:51Z</time>
  <course>0.0</course>
  <speed>0.0</speed>
  <fix>3d</fix>
</trkpt>
<trkpt lat="40.0713749" lon="-105.229789">
  <ele>1582.93</ele>
  <time>2026-08-28T17:51:51Z</time>
  <course>247.54</course>
  <speed>0.02</speed>
  <fix>3d</fix>
</trkpt>
<trkpt lat="40.0713749" lon="-105.229789">
  <ele>1583.0</ele>
  <time>2026-08-28T17:51:51Z</time>
  <course>0.0</course>
  <speed>0.0</speed>
  <fix>3d</fix>
</trkpt>
<trkpt lat="40.0713749" lon="-105.229789">
  <ele>1582.93</ele>
  <time>2026-08-28T17:51:51Z</time>
  <course>247.54</course>
  <speed>0.02</speed>
  <fix>3d</fix>
</trkpt>
<trkpt lat="40.0713749" lon="-105.229789">
  <ele>1583.0</ele>
  <time>2026-08-28T17:51:51Z</time>
  <course>0.0</course>
  <speed>0.0</speed>
  <fix>3d</fix>
</trkpt>
<trkpt lat="40.0713749" lon="-105.229789">
  <ele>1582.93</ele>
  <time>2026-08-28T17:51:51Z</time>
  <course>247.54</course>
  <speed>0.02</speed>
  <fix>3d</fix>
</trkpt>
<trkpt lat="40.0713749" lon="-105.229789">
  <ele>1583.0</ele>
  <time>2026-08-28T17:51:51Z</time>
  <course>0.0</course>
  <speed>0.0</speed>
  <fix>3d</fix>
</trkpt>
<trkpt lat="40.0713749" lon="-105.229789">
  <ele>1582.93</ele>
  <time>2026-08-28T17:51:51Z</time>
  <course>247.54</course>
  <speed>0.022360679774997897</speed>
  <fix>3d</fix>
</trkpt>
<trkpt lat="40.0713749" lon="-105.229789">
  <ele>1583.0</ele>
  <time>2026-08-28T17:51:51Z</time>
  <course>0.0</course>
  <speed>0.0</speed>
  <fix>3d</fix>
</trkpt>
<trkpt lat="40.0713749" lon="-105.229789">
  <ele>1582.94</ele>
  <time>2026-08-28T17:51:51Z</time>
  <course>247.53</course>
  <speed>0.022360679774997897</speed>
  <fix>3d</fix>
</trkpt>
<trkpt lat="40.0713749" lon="-105.229789">
  <ele>1583.0</ele>
  <time>2026-08-28T17:51:51Z</time>
  <course>0.0</course>
  <speed>0.0</speed>
  <fix>3d</fix>
</trkpt>
<trkpt lat="40.0713749" lon="-105.229789">
  <ele>1582.94</ele>
  <time>2026-08-28T17:51:51Z</time>
  <course>247.53</course>
  <speed>0.022360679774997897</speed>
  <fix>3d</fix>
</trkpt>
<trkpt lat="40.0713749" lon="-105.229789">
  <ele>1583.0</ele>
  <time>2026-08-28T17:51:51Z</time>
  <course>0.0</course>
  <speed>0.0</speed>
  <fix>3d</fix>
</trkpt>
<trkpt lat="40.071375" lon="-105.229789">
  <ele>1582.94</ele>
  <time>2026-08-28T17:51:51Z</time>
  <course>247.53</course>
  <speed>0.022360679774997897</speed>
  <fix>3d</fix>
</trkpt>
<trkpt lat="40.0713749" lon="-105.229789">
  <ele>1583.0</ele>
  <time>2026-08-28T17:51:51Z</time>
  <course>0.0</course>
  <speed>0.0</speed>
  <fix>3d</fix>
</trkpt>
<trkpt lat="40.071375" lon="-105.229789">
  <ele>1582.95</ele>
  <time>2026-08-28T17:51:51Z</time>
  <course>247.53</course>
  <speed>0.022360679774997897</speed>
  <fix>3d</fix>
</trkpt>
<trkpt lat="40.0713749" lon="-105.229789">
  <ele>1583.0</ele>
  <time>2026-08-28T17:51:51Z</time>
  <course>0.0</course>
  <speed>0.0</speed>
  <fix>3d</fix>
</trkpt>
<trkpt lat="40.071375" lon="-105.229789">
  <ele>1582.95</ele>
  <time>2026-08-28T17:51:51Z</time>
  <course>247.53</course>
  <speed>0.022360679774997897</speed>
  <fix>3d</fix>
</trkpt>
<trkpt lat="40.0713749" lon="-105.229789">
  <ele>1583.0</ele>
  <time>2026-08-28T17:51:51Z</time>
  <course>0.0</course>
  <speed>0.0</speed>
  <fix>3d</fix>
</trkpt>
<trkpt lat="40.071375" lon="-105.229789">
  <ele>1582.95</ele>
  <time>2026-08-28T17:51:51Z</time>
  <course>247.52</course>
  <speed>0.022360679774997897</speed>
  <fix>3d</fix>
</trkpt>
<trkpt lat="40.0713749" lon="-105.229789">
  <ele>1583.0</ele>
  <time>2026-08-28T17:51:51Z</time>
  <course>0.0</course>
  <speed>0.0</speed>
  <fix>3d</fix>
</trkpt>
<trkpt lat="40.071375" lon="-105.229789">
  <ele>1582.95</ele>
  <time>2026-08-28T17:51:51Z</time>
  <course>247.52</course>
  <speed>0.022360679774997897</speed>
  <fix>3d</fix>
</trkpt>
<trkpt lat="40.0713749" lon="-105.229789">
  <ele>1583.0</ele>
  <time>2026-08-28T17:51:51Z</time>
  <course>0.0</course>
  <speed>0.0</speed>
  <fix>3d</fix>
</trkpt>
<trkpt lat="40.071375" lon="-105.229789">
  <ele>1582.95</ele>
  <time>2026-08-28T17:51:51Z</time>
  <course>247.52</course>
  <speed>0.022360679774997897</speed>
  <fix>3d</fix>
</trkpt>
<trkpt lat="40.0713749" lon="-105.229789">
  <ele>1583.0</ele>
  <time>2026-08-28T17:51:51Z</time>
  <course>0.0</course>
  <speed>0.0</speed>
  <fix>3d</fix>
</trkpt>
<trkpt lat="40.071375" lon="-105.229789">
  <ele>1582.95</ele>
  <time>2026-08-28T17:51:51Z</time>
  <course>247.52</course>
  <speed>0.022360679774997897</speed>
  <fix>3d</fix>
</trkpt>
<trkpt lat="40.0713749" lon="-105.229789">
  <ele>1583.0</ele>
  <time>2026-08-28T17:51:51Z</time>
  <course>0.0</course>
  <speed>0.0</speed>
  <fix>3d</fix>
</trkpt>
<trkpt lat="40.071375" lon="-105.229789">
  <ele>1582.95</ele>
  <time>2026-08-28T17:51:51Z</time>
  <course>247.51</course>
  <speed>0.0316227766016838</speed>
  <fix>3d</fix>
</trkpt>
<trkpt lat="40.0713749" lon="-105.229789">
  <ele>1583.0</ele>
  <time>2026-08-28T17:51:51Z</time>
  <course>0.0</course>
  <speed>0.0</speed>
  <fix>3d</fix>
</trkpt>
<trkpt lat="40.071375" lon="-105.229789">
  <ele>1582.95</ele>
  <time>2026-08-28T17:51:51Z</time>
  <course>247.51</course>
  <speed>0.0316227766016838</speed>
  <fix>3d</fix>
</trkpt>
<trkpt lat="40.0713749" lon="-105.229789">
  <ele>1583.0</ele>
  <time>2026-08-28T17:51:51Z</time>
  <course>0.0</course>
  <speed>0.0</speed>
  <fix>3d</fix>
</trkpt>
<trkpt lat="40.071375" lon="-105.229789">
  <ele>1582.95</ele>
  <time>2026-08-28T17:51:51Z</time>
  <course>247.51</course>
  <speed>0.0316227766016838</speed>
  <fix>3d</fix>
</trkpt>
<trkpt lat="40.0713749" lon="-105.229789">
  <ele>1583.0</ele>
  <time>2026-08-28T17:51:51Z</time>
  <course>0.0</course>
  <speed>0.0</speed>
  <fix>3d</fix>
</trkpt>
<trkpt lat="40.071375" lon="-105.2297889">
  <ele>1582.95</ele>
  <time>2026-08-28T17:51:51Z</time>
  <course>247.51</course>
  <speed>0.0316227766016838</speed>
  <fix>3d</fix>
</trkpt>
<trkpt lat="40.0713749" lon="-105.229789">
  <ele>1583.0</ele>
  <time>2026-08-28T17:51:51Z</time>
  <course>0.0</course>
  <speed>0.0</speed>
  <fix>3d</fix>
</trkpt>
<trkpt lat="40.071375" lon="-105.2297889">
  <ele>1582.95</ele>
  <time>2026-08-28T17:51:51Z</time>
  <course>247.51</course>
  <speed>0.0316227766016838</speed>
  <fix>3d</fix>
</trkpt>
<trkpt lat="40.0713749" lon="-105.229789">
  <ele>1583.0</ele>
  <time>2026-08-28T17:51:51Z</time>
  <course>0.0</course>
  <speed>0.0</speed>
  <fix>3d</fix>
</trkpt>
<trkpt lat="40.071375" lon="-105.2297889">
  <ele>1582.95</ele>
  <time>2026-08-28T17:51:51Z</time>
  <course>247.5</course>
  <speed>0.0316227766016838</speed>
  <fix>3d</fix>
</trkpt>
<trkpt lat="40.0713749" lon="-105.229789">
  <ele>1583.0</ele>
  <time>2026-08-28T17:51:51Z</time>
  <course>0.0</course>
  <speed>0.0</speed>
  <fix>3d</fix>
</trkpt>
<trkpt lat="40.071375" lon="-105.2297889">
  <ele>1582.95</ele>
  <time>2026-08-28T17:51:51Z</time>
  <course>247.5</course>
  <speed>0.0316227766016838</speed>
  <fix>3d</fix>
</trkpt>
<trkpt lat="40.0713749" lon="-105.229789">
  <ele>1583.0</ele>
  <time>2026-08-28T17:51:51Z</time>
  <course>0.0</course>
  <speed>0.0</speed>
  <fix>3d</fix>
</trkpt>
<trkpt lat="40.071375" lon="-105.2297889">
  <ele>1582.95</ele>
  <time>2026-08-28T17:51:51Z</time>
  <course>247.5</course>
  <speed>0.0316227766016838</speed>
  <fix>3d</fix>
</trkpt>
<trkpt lat="40.0713749" lon="-105.229789">
  <ele>1583.0</ele>
  <time>2026-08-28T17:51:51Z</time>
  <course>0.0</course>
  <speed>0.0</speed>
  <fix>3d</fix>
</trkpt>
<trkpt lat="40.0713751" lon="-105.2297889">
  <ele>1582.95</ele>
  <time>2026-08-28T17:51:51Z</time>
  <course>247.5</course>
  <speed>0.0316227766016838</speed>
  <fix>3d</fix>
</trkpt>
<trkpt lat="40.0713749" lon="-105.229789">
  <ele>1583.0</ele>
  <time>2026-08-28T17:51:52Z</time>
  <course>0.0</course>
  <speed>0.0</speed>
  <fix>3d</fix>
</trkpt>
<trkpt lat="40.0713751" lon="-105.2297889">
  <ele>1582.96</ele>
  <time>2026-08-28T17:51:52Z</time>
  <course>247.49</course>
  <speed>0.0316227766016838</speed>
  <fix>3d</fix>
</trkpt>
<trkpt lat="40.0713749" lon="-105.229789">
  <ele>1583.0</ele>
  <time>2026-08-28T17:51:52Z</time>
  <course>0.0</course>
  <speed>0.0</speed>
  <fix>3d</fix>
</trkpt>
<trkpt lat="40.0713751" lon="-105.2297889">
  <ele>1582.96</ele>
  <time>2026-08-28T17:51:52Z</time>
  <course>247.49</course>
  <speed>0.0316227766016838</speed>
  <fix>3d</fix>
</trkpt>
<trkpt lat="40.0713749" lon="-105.229789">
  <ele>1583.0</ele>
  <time>2026-08-28T17:51:52Z</time>
  <course>0.0</course>
  <speed>0.0</speed>
  <fix>3d</fix>
</trkpt>
<trkpt lat="40.0713751" lon="-105.2297889">
  <ele>1582.97</ele>
  <time>2026-08-28T17:51:52Z</time>
  <course>247.49</course>
  <speed>0.0316227766016838</speed>
  <fix>3d</fix>
</trkpt>
<trkpt lat="40.0713749" lon="-105.229789">
  <ele>1583.0</ele>
  <time>2026-08-28T17:51:52Z</time>
  <course>0.0</course>
  <speed>0.0</speed>
  <fix>3d</fix>
</trkpt>
<trkpt lat="40.0713751" lon="-105.2297889">
  <ele>1582.98</ele>
  <time>2026-08-28T17:51:52Z</time>
  <course>247.49</course>
  <speed>0.0316227766016838</speed>
  <fix>3d</fix>
</trkpt>
<trkpt lat="40.0713749" lon="-105.229789">
  <ele>1583.0</ele>
  <time>2026-08-28T17:51:52Z</time>
  <course>0.0</course>
  <speed>0.0</speed>
  <fix>3d</fix>
</trkpt>
<trkpt lat="40.0713751" lon="-105.2297889">
  <ele>1582.98</ele>
  <time>2026-08-28T17:51:52Z</time>
  <course>247.49</course>
  <speed>0.0316227766016838</speed>
  <fix>3d</fix>
</trkpt>
<trkpt lat="40.0713749" lon="-105.229789">
  <ele>1583.0</ele>
  <time>2026-08-28T17:51:52Z</time>
  <course>0.0</course>
  <speed>0.0</speed>
  <fix>3d</fix>
</trkpt>
<trkpt lat="40.0713751" lon="-105.2297889">
  <ele>1582.99</ele>
  <time>2026-08-28T17:51:52Z</time>
  <course>247.48</course>
  <speed>0.0316227766016838</speed>
  <fix>3d</fix>
</trkpt>
<trkpt lat="40.0713749" lon="-105.229789">
  <ele>1583.0</ele>
  <time>2026-08-28T17:51:52Z</time>
  <course>0.0</course>
  <speed>0.0</speed>
  <fix>3d</fix>
</trkpt>
<trkpt lat="40.0713751" lon="-105.2297889">
  <ele>1583.0</ele>
  <time>2026-08-28T17:51:52Z</time>
  <course>247.48</course>
  <speed>0.022360679774997897</speed>
  <fix>3d</fix>
</trkpt>
<trkpt lat="40.0713749" lon="-105.229789">
  <ele>1583.0</ele>
  <time>2026-08-28T17:51:52Z</time>
  <course>0.0</course>
  <speed>0.0</speed>
  <fix>3d</fix>
</trkpt>
<trkpt lat="40.0713751" lon="-105.2297889">
  <ele>1583.01</ele>
  <time>2026-08-28T17:51:52Z</time>
  <course>247.48</course>
  <speed>0.022360679774997897</speed>
  <fix>3d</fix>
</trkpt>
<trkpt lat="40.0713749" lon="-105.229789">
  <ele>1583.0</ele>
  <time>2026-08-28T17:51:52Z</time>
  <course>0.0</course>
  <speed>0.0</speed>
  <fix>3d</fix>
</trkpt>
<trkpt lat="40.0713751" lon="-105.2297889">
  <ele>1583.01</ele>
  <time>2026-08-28T17:51:52Z</time>
  <course>247.48</course>
  <speed>0.022360679774997897</speed>
  <fix>3d</fix>
</trkpt>
<trkpt lat="40.0713749" lon="-105.229789">
  <ele>1583.0</ele>
  <time>2026-08-28T17:51:52Z</time>
  <course>0.0</course>
  <speed>0.0</speed>
  <fix>3d</fix>
</trkpt>
<trkpt lat="40.0713751" lon="-105.2297889">
  <ele>1583.01</ele>
  <time>2026-08-28T17:51:52Z</time>
  <course>247.47</course>
  <speed>0.022360679774997897</speed>
  <fix>3d</fix>
</trkpt>
<trkpt lat="40.0713749" lon="-105.229789">
  <ele>1583.0</ele>
  <time>2026-08-28T17:51:52Z</time>
  <course>0.0</course>
  <speed>0.0</speed>
  <fix>3d</fix>
</trkpt>
<trkpt lat="40.0713751" lon="-105.2297889">
  <ele>1583.01</ele>
  <time>2026-08-28T17:51:52Z</time>
  <course>247.47</course>
  <speed>0.022360679774997897</speed>
  <fix>3d</fix>
</trkpt>
<trkpt lat="40.0713749" lon="-105.229789">
  <ele>1583.0</ele>
  <time>2026-08-28T17:51:52Z</time>
  <course>0.0</course>
  <speed>0.0</speed>
  <fix>3d</fix>
</trkpt>
<trkpt lat="40.0713751" lon="-105.2297889">
  <ele>1583.01</ele>
  <time>2026-08-28T17:51:52Z</time>
  <course>247.47</course>
  <speed>0.022360679774997897</speed>
  <fix>3d</fix>
</trkpt>
<trkpt lat="40.0713749" lon="-105.229789">
  <ele>1583.0</ele>
  <time>2026-08-28T17:51:52Z</time>
  <course>0.0</course>
  <speed>0.0</speed>
  <fix>3d</fix>
</trkpt>
<trkpt lat="40.071375" lon="-105.2297889">
  <ele>1583.0</ele>
  <time>2026-08-28T17:51:52Z</time>
  <course>247.47</course>
  <speed>0.022360679774997897</speed>
  <fix>3d</fix>
</trkpt>
<trkpt lat="40.0713749" lon="-105.229789">
  <ele>1583.0</ele>
  <time>2026-08-28T17:51:52Z</time>
  <course>0.0</course>
  <speed>0.0</speed>
  <fix>3d</fix>
</trkpt>
<trkpt lat="40.0713751" lon="-105.2297889">
  <ele>1583.0</ele>
  <time>2026-08-28T17:51:52Z</time>
  <course>247.47</course>
  <speed>0.022360679774997897</speed>
  <fix>3d</fix>
</trkpt>
<trkpt lat="40.0713749" lon="-105.229789">
  <ele>1583.0</ele>
  <time>2026-08-28T17:51:52Z</time>
  <course>0.0</course>
  <speed>0.0</speed>
  <fix>3d</fix>
</trkpt>
<trkpt lat="40.071375" lon="-105.2297889">
  <ele>1583.0</ele>
  <time>2026-08-28T17:51:52Z</time>
  <course>247.46</course>
  <speed>0.022360679774997897</speed>
  <fix>3d</fix>
</trkpt>
<trkpt lat="40.0713749" lon="-105.229789">
  <ele>1583.0</ele>
  <time>2026-08-28T17:51:52Z</time>
  <course>0.0</course>
  <speed>0.0</speed>
  <fix>3d</fix>
</trkpt>
<trkpt lat="40.071375" lon="-105.2297889">
  <ele>1582.99</ele>
  <time>2026-08-28T17:51:52Z</time>
  <course>247.46</course>
  <speed>0.022360679774997897</speed>
  <fix>3d</fix>
</trkpt>
<trkpt lat="40.0713749" lon="-105.229789">
  <ele>1583.0</ele>
  <time>2026-08-28T17:51:52Z</time>
  <course>0.0</course>
  <speed>0.0</speed>
  <fix>3d</fix>
</trkpt>
<trkpt lat="40.071375" lon="-105.2297889">
  <ele>1582.99</ele>
  <time>2026-08-28T17:51:52Z</time>
  <course>247.46</course>
  <speed>0.022360679774997897</speed>
  <fix>3d</fix>
</trkpt>
<trkpt lat="40.0713749" lon="-105.229789">
  <ele>1583.0</ele>
  <time>2026-08-28T17:51:52Z</time>
  <course>0.0</course>
  <speed>0.0</speed>
  <fix>3d</fix>
</trkpt>
<trkpt lat="40.071375" lon="-105.2297889">
  <ele>1582.99</ele>
  <time>2026-08-28T17:51:52Z</time>
  <course>247.46</course>
  <speed>0.022360679774997897</speed>
  <fix>3d</fix>
</trkpt>
<trkpt lat="40.0713749" lon="-105.229789">
  <ele>1583.0</ele>
  <time>2026-08-28T17:51:52Z</time>
  <course>0.0</course>
  <speed>0.0</speed>
  <fix>3d</fix>
</trkpt>
<trkpt lat="40.071375" lon="-105.2297889">
  <ele>1582.99</ele>
  <time>2026-08-28T17:51:52Z</time>
  <course>247.45</course>
  <speed>0.022360679774997897</speed>
  <fix>3d</fix>
</trkpt>
<trkpt lat="40.0713749" lon="-105.229789">
  <ele>1583.0</ele>
  <time>2026-08-28T17:51:52Z</time>
  <course>0.0</course>
  <speed>0.0</speed>
  <fix>3d</fix>
</trkpt>
<trkpt lat="40.071375" lon="-105.2297889">
  <ele>1582.99</ele>
  <time>2026-08-28T17:51:52Z</time>
  <course>247.45</course>
  <speed>0.022360679774997897</speed>
  <fix>3d</fix>
</trkpt>
<trkpt lat="40.0713749" lon="-105.229789">
  <ele>1583.0</ele>
  <time>2026-08-28T17:51:52Z</time>
  <course>0.0</course>
  <speed>0.0</speed>
  <fix>3d</fix>
</trkpt>
<trkpt lat="40.071375" lon="-105.2297889">
  <ele>1582.99</ele>
  <time>2026-08-28T17:51:52Z</time>
  <course>247.45</course>
  <speed>0.022360679774997897</speed>
  <fix>3d</fix>
</trkpt>
<trkpt lat="40.0713749" lon="-105.229789">
  <ele>1583.0</ele>
  <time>2026-08-28T17:51:52Z</time>
  <course>0.0</course>
  <speed>0.0</speed>
  <fix>3d</fix>
</trkpt>
<trkpt lat="40.071375" lon="-105.2297889">
  <ele>1582.99</ele>
  <time>2026-08-28T17:51:52Z</time>
  <course>247.45</course>
  <speed>0.022360679774997897</speed>
  <fix>3d</fix>
</trkpt>
<trkpt lat="40.0713749" lon="-105.229789">
  <ele>1583.0</ele>
  <time>2026-08-28T17:51:52Z</time>
  <course>0.0</course>
  <speed>0.0</speed>
  <fix>3d</fix>
</trkpt>
<trkpt lat="40.071375" lon="-105.2297889">
  <ele>1583.0</ele>
  <time>2026-08-28T17:51:52Z</time>
  <course>247.45</course>
  <speed>0.022360679774997897</speed>
  <fix>3d</fix>
</trkpt>
<trkpt lat="40.0713749" lon="-105.229789">
  <ele>1583.0</ele>
  <time>2026-08-28T17:51:52Z</time>
  <course>0.0</course>
  <speed>0.0</speed>
  <fix>3d</fix>
</trkpt>
<trkpt lat="40.071375" lon="-105.2297889">
  <ele>1583.0</ele>
  <time>2026-08-28T17:51:52Z</time>
  <course>247.44</course>
  <speed>0.022360679774997897</speed>
  <fix>3d</fix>
</trkpt>
<trkpt lat="40.0713749" lon="-105.229789">
  <ele>1583.0</ele>
  <time>2026-08-28T17:51:52Z</time>
  <course>0.0</course>
  <speed>0.0</speed>
  <fix>3d</fix>
</trkpt>
<trkpt lat="40.071375" lon="-105.229789">
  <ele>1583.0</ele>
  <time>2026-08-28T17:51:52Z</time>
  <course>247.44</course>
  <speed>0.02</speed>
  <fix>3d</fix>
</trkpt>
<trkpt lat="40.0713749" lon="-105.229789">
  <ele>1583.0</ele>
  <time>2026-08-28T17:51:52Z</time>
  <course>0.0</course>
  <speed>0.0</speed>
  <fix>3d</fix>
</trkpt>
<trkpt lat="40.071375" lon="-105.229789">
  <ele>1583.0</ele>
  <time>2026-08-28T17:51:52Z</time>
  <course>247.44</course>
  <speed>0.02</speed>
  <fix>3d</fix>
</trkpt>
<trkpt lat="40.0713749" lon="-105.229789">
  <ele>1583.0</ele>
  <time>2026-08-28T17:51:52Z</time>
  <course>0.0</course>
  <speed>0.0</speed>
  <fix>3d</fix>
</trkpt>
<trkpt lat="40.071375" lon="-105.229789">
  <ele>1583.0</ele>
  <time>2026-08-28T17:51:52Z</time>
  <course>247.44</course>
  <speed>0.02</speed>
  <fix>3d</fix>
</trkpt>
<trkpt lat="40.0713749" lon="-105.229789">
  <ele>1583.0</ele>
  <time>2026-08-28T17:51:52Z</time>
  <course>0.0</course>
  <speed>0.0</speed>
  <fix>3d</fix>
</trkpt>
<trkpt lat="40.071375" lon="-105.229789">
  <ele>1583.01</ele>
  <time>2026-08-28T17:51:52Z</time>
  <course>247.43</course>
  <speed>0.02</speed>
  <fix>3d</fix>
</trkpt>
<trkpt lat="40.0713749" lon="-105.229789">
  <ele>1583.0</ele>
  <time>2026-08-28T17:51:52Z</time>
  <course>0.0</course>
  <speed>0.0</speed>
  <fix>3d</fix>
</trkpt>
<trkpt lat="40.071375" lon="-105.229789">
  <ele>1583.01</ele>
  <time>2026-08-28T17:51:52Z</time>
  <course>247.43</course>
  <speed>0.02</speed>
  <fix>3d</fix>
</trkpt>
<trkpt lat="40.0713749" lon="-105.229789">
  <ele>1583.0</ele>
  <time>2026-08-28T17:51:52Z</time>
  <course>0.0</course>
  <speed>0.0</speed>
  <fix>3d</fix>
</trkpt>
<trkpt lat="40.071375" lon="-105.229789">
  <ele>1583.01</ele>
  <time>2026-08-28T17:51:52Z</time>
  <course>247.43</course>
  <speed>0.02</speed>
  <fix>3d</fix>
</trkpt>
<trkpt lat="40.0713749" lon="-105.229789">
  <ele>1583.0</ele>
  <time>2026-08-28T17:51:52Z</time>
  <course>0.0</course>
  <speed>0.0</speed>
  <fix>3d</fix>
</trkpt>
<trkpt lat="40.071375" lon="-105.229789">
  <ele>1583.01</ele>
  <time>2026-08-28T17:51:52Z</time>
  <course>247.43</course>
  <speed>0.02</speed>
  <fix>3d</fix>
</trkpt>
<trkpt lat="40.0713749" lon="-105.229789">
  <ele>1583.0</ele>
  <time>2026-08-28T17:51:52Z</time>
  <course>0.0</course>
  <speed>0.0</speed>
  <fix>3d</fix>
</trkpt>
<trkpt lat="40.071375" lon="-105.229789">
  <ele>1583.01</ele>
  <time>2026-08-28T17:51:52Z</time>
  <course>247.43</course>
  <speed>0.02</speed>
  <fix>3d</fix>
</trkpt>
<trkpt lat="40.0713749" lon="-105.229789">
  <ele>1583.0</ele>
  <time>2026-08-28T17:51:52Z</time>
  <course>0.0</course>
  <speed>0.0</speed>
  <fix>3d</fix>
</trkpt>
<trkpt lat="40.071375" lon="-105.229789">
  <ele>1583.01</ele>
  <time>2026-08-28T17:51:52Z</time>
  <course>247.42</course>
  <speed>0.02</speed>
  <fix>3d</fix>
</trkpt>
<trkpt lat="40.0713749" lon="-105.229789">
  <ele>1583.0</ele>
  <time>2026-08-28T17:51:52Z</time>
  <course>0.0</course>
  <speed>0.0</speed>
  <fix>3d</fix>
</trkpt>
<trkpt lat="40.071375" lon="-105.229789">
  <ele>1583.01</ele>
  <time>2026-08-28T17:51:52Z</time>
  <course>247.42</course>
  <speed>0.02</speed>
  <fix>3d</fix>
</trkpt>
<trkpt lat="40.0713749" lon="-105.229789">
  <ele>1583.0</ele>
  <time>2026-08-28T17:51:52Z</time>
  <course>0.0</course>
  <speed>0.0</speed>
  <fix>3d</fix>
</trkpt>
<trkpt lat="40.071375" lon="-105.229789">
  <ele>1583.02</ele>
  <time>2026-08-28T17:51:52Z</time>
  <course>247.42</course>
  <speed>0.02</speed>
  <fix>3d</fix>
</trkpt>
<trkpt lat="40.0713749" lon="-105.229789">
  <ele>1583.0</ele>
  <time>2026-08-28T17:51:52Z</time>
  <course>0.0</course>
  <speed>0.0</speed>
  <fix>3d</fix>
</trkpt>
<trkpt lat="40.071375" lon="-105.229789">
  <ele>1583.01</ele>
  <time>2026-08-28T17:51:52Z</time>
  <course>247.42</course>
  <speed>0.02</speed>
  <fix>3d</fix>
</trkpt>
<trkpt lat="40.0713749" lon="-105.229789">
  <ele>1583.0</ele>
  <time>2026-08-28T17:51:52Z</time>
  <course>0.0</course>
  <speed>0.0</speed>
  <fix>3d</fix>
</trkpt>
<trkpt lat="40.071375" lon="-105.229789">
  <ele>1583.01</ele>
  <time>2026-08-28T17:51:52Z</time>
  <course>247.42</course>
  <speed>0.02</speed>
  <fix>3d</fix>
</trkpt>
<trkpt lat="40.0713749" lon="-105.229789">
  <ele>1583.0</ele>
  <time>2026-08-28T17:51:52Z</time>
  <course>0.0</course>
  <speed>0.0</speed>
  <fix>3d</fix>
</trkpt>
<trkpt lat="40.071375" lon="-105.229789">
  <ele>1583.01</ele>
  <time>2026-08-28T17:51:52Z</time>
  <course>247.41</course>
  <speed>0.02</speed>
  <fix>3d</fix>
</trkpt>
<trkpt lat="40.0713749" lon="-105.229789">
  <ele>1583.0</ele>
  <time>2026-08-28T17:51:52Z</time>
  <course>0.0</course>
  <speed>0.0</speed>
  <fix>3d</fix>
</trkpt>
<trkpt lat="40.071375" lon="-105.229789">
  <ele>1583.01</ele>
  <time>2026-08-28T17:51:52Z</time>
  <course>247.41</course>
  <speed>0.02</speed>
  <fix>3d</fix>
</trkpt>
<trkpt lat="40.0713749" lon="-105.229789">
  <ele>1583.0</ele>
  <time>2026-08-28T17:51:52Z</time>
  <course>0.0</course>
  <speed>0.0</speed>
  <fix>3d</fix>
</trkpt>
<trkpt lat="40.071375" lon="-105.229789">
  <ele>1583.01</ele>
  <time>2026-08-28T17:51:52Z</time>
  <course>247.41</course>
  <speed>0.02</speed>
  <fix>3d</fix>
</trkpt>
<trkpt lat="40.0713749" lon="-105.229789">
  <ele>1583.0</ele>
  <time>2026-08-28T17:51:52Z</time>
  <course>0.0</course>
  <speed>0.0</speed>
  <fix>3d</fix>
</trkpt>
<trkpt lat="40.071375" lon="-105.229789">
  <ele>1583.01</ele>
  <time>2026-08-28T17:51:52Z</time>
  <course>247.41</course>
  <speed>0.02</speed>
  <fix>3d</fix>
</trkpt>
<trkpt lat="40.0713749" lon="-105.229789">
  <ele>1583.0</ele>
  <time>2026-08-28T17:51:52Z</time>
  <course>0.0</course>
  <speed>0.0</speed>
  <fix>3d</fix>
</trkpt>
<trkpt lat="40.071375" lon="-105.229789">
  <ele>1583.02</ele>
  <time>2026-08-28T17:51:52Z</time>
  <course>247.41</course>
  <speed>0.02</speed>
  <fix>3d</fix>
</trkpt>
<trkpt lat="40.0713749" lon="-105.229789">
  <ele>1583.0</ele>
  <time>2026-08-28T17:51:52Z</time>
  <course>0.0</course>
  <speed>0.0</speed>
  <fix>3d</fix>
</trkpt>
<trkpt lat="40.071375" lon="-105.229789">
  <ele>1583.02</ele>
  <time>2026-08-28T17:51:52Z</time>
  <course>247.4</course>
  <speed>0.02</speed>
  <fix>3d</fix>
</trkpt>
<trkpt lat="40.0713749" lon="-105.229789">
  <ele>1583.0</ele>
  <time>2026-08-28T17:51:52Z</time>
  <course>0.0</course>
  <speed>0.0</speed>
  <fix>3d</fix>
</trkpt>
<trkpt lat="40.071375" lon="-105.229789">
  <ele>1583.02</ele>
  <time>2026-08-28T17:51:52Z</time>
  <course>247.4</course>
  <speed>0.02</speed>
  <fix>3d</fix>
</trkpt>
<trkpt lat="40.0713749" lon="-105.229789">
  <ele>1583.0</ele>
  <time>2026-08-28T17:51:52Z</time>
  <course>0.0</course>
  <speed>0.0</speed>
  <fix>3d</fix>
</trkpt>
<trkpt lat="40.071375" lon="-105.229789">
  <ele>1583.02</ele>
  <time>2026-08-28T17:51:52Z</time>
  <course>247.4</course>
  <speed>0.02</speed>
  <fix>3d</fix>
</trkpt>
<trkpt lat="40.0713749" lon="-105.229789">
  <ele>1583.0</ele>
  <time>2026-08-28T17:51:52Z</time>
  <course>0.0</course>
  <speed>0.0</speed>
  <fix>3d</fix>
</trkpt>
<trkpt lat="40.071375" lon="-105.229789">
  <ele>1583.02</ele>
  <time>2026-08-28T17:51:52Z</time>
  <course>247.4</course>
  <speed>0.02</speed>
  <fix>3d</fix>
</trkpt>
<trkpt lat="40.0713749" lon="-105.229789">
  <ele>1583.0</ele>
  <time>2026-08-28T17:51:52Z</time>
  <course>0.0</course>
  <speed>0.0</speed>
  <fix>3d</fix>
</trkpt>
<trkpt lat="40.071375" lon="-105.229789">
  <ele>1583.02</ele>
  <time>2026-08-28T17:51:52Z</time>
  <course>247.4</course>
  <speed>0.02</speed>
  <fix>3d</fix>
</trkpt>
<trkpt lat="40.0713749" lon="-105.229789">
  <ele>1583.0</ele>
  <time>2026-08-28T17:51:52Z</time>
  <course>0.0</course>
  <speed>0.0</speed>
  <fix>3d</fix>
</trkpt>
<trkpt lat="40.071375" lon="-105.229789">
  <ele>1583.02</ele>
  <time>2026-08-28T17:51:52Z</time>
  <course>247.39</course>
  <speed>0.02</speed>
  <fix>3d</fix>
</trkpt>
<trkpt lat="40.0713749" lon="-105.229789">
  <ele>1583.0</ele>
  <time>2026-08-28T17:51:52Z</time>
  <course>0.0</course>
  <speed>0.0</speed>
  <fix>3d</fix>
</trkpt>
<trkpt lat="40.071375" lon="-105.229789">
  <ele>1583.03</ele>
  <time>2026-08-28T17:51:52Z</time>
  <course>247.39</course>
  <speed>0.01</speed>
  <fix>3d</fix>
</trkpt>
<trkpt lat="40.0713749" lon="-105.229789">
  <ele>1583.0</ele>
  <time>2026-08-28T17:51:52Z</time>
  <course>0.0</course>
  <speed>0.0</speed>
  <fix>3d</fix>
</trkpt>
<trkpt lat="40.071375" lon="-105.229789">
  <ele>1583.03</ele>
  <time>2026-08-28T17:51:52Z</time>
  <course>247.39</course>
  <speed>0.02</speed>
  <fix>3d</fix>
</trkpt>
<trkpt lat="40.0713749" lon="-105.229789">
  <ele>1583.0</ele>
  <time>2026-08-28T17:51:52Z</time>
  <course>0.0</course>
  <speed>0.0</speed>
  <fix>3d</fix>
</trkpt>
<trkpt lat="40.071375" lon="-105.229789">
  <ele>1583.03</ele>
  <time>2026-08-28T17:51:52Z</time>
  <course>247.39</course>
  <speed>0.02</speed>
  <fix>3d</fix>
</trkpt>
<trkpt lat="40.0713749" lon="-105.229789">
  <ele>1583.0</ele>
  <time>2026-08-28T17:51:52Z</time>
  <course>0.0</course>
  <speed>0.0</speed>
  <fix>3d</fix>
</trkpt>
<trkpt lat="40.071375" lon="-105.229789">
  <ele>1583.03</ele>
  <time>2026-08-28T17:51:52Z</time>
  <course>247.39</course>
  <speed>0.02</speed>
  <fix>3d</fix>
</trkpt>
<trkpt lat="40.0713749" lon="-105.229789">
  <ele>1583.0</ele>
  <time>2026-08-28T17:51:52Z</time>
  <course>0.0</course>
  <speed>0.0</speed>
  <fix>3d</fix>
</trkpt>
<trkpt lat="40.071375" lon="-105.229789">
  <ele>1583.04</ele>
  <time>2026-08-28T17:51:52Z</time>
  <course>247.38</course>
  <speed>0.02</speed>
  <fix>3d</fix>
</trkpt>
<trkpt lat="40.0713749" lon="-105.229789">
  <ele>1583.0</ele>
  <time>2026-08-28T17:51:52Z</time>
  <course>0.0</course>
  <speed>0.0</speed>
  <fix>3d</fix>
</trkpt>
<trkpt lat="40.071375" lon="-105.229789">
  <ele>1583.04</ele>
  <time>2026-08-28T17:51:52Z</time>
  <course>247.38</course>
  <speed>0.02</speed>
  <fix>3d</fix>
</trkpt>
<trkpt lat="40.0713749" lon="-105.229789">
  <ele>1583.0</ele>
  <time>2026-08-28T17:51:52Z</time>
  <course>0.0</course>
  <speed>0.0</speed>
  <fix>3d</fix>
</trkpt>
<trkpt lat="40.071375" lon="-105.229789">
  <ele>1583.05</ele>
  <time>2026-08-28T17:51:52Z</time>
  <course>247.38</course>
  <speed>0.02</speed>
  <fix>3d</fix>
</trkpt>
<trkpt lat="40.0713749" lon="-105.229789">
  <ele>1583.0</ele>
  <time>2026-08-28T17:51:52Z</time>
  <course>0.0</course>
  <speed>0.0</speed>
  <fix>3d</fix>
</trkpt>
<trkpt lat="40.071375" lon="-105.229789">
  <ele>1583.05</ele>
  <time>2026-08-28T17:51:52Z</time>
  <course>247.38</course>
  <speed>0.02</speed>
  <fix>3d</fix>
</trkpt>
<trkpt lat="40.0713749" lon="-105.229789">
  <ele>1583.0</ele>
  <time>2026-08-28T17:51:52Z</time>
  <course>0.0</course>
  <speed>0.0</speed>
  <fix>3d</fix>
</trkpt>
<trkpt lat="40.071375" lon="-105.229789">
  <ele>1583.05</ele>
  <time>2026-08-28T17:51:52Z</time>
  <course>247.38</course>
  <speed>0.02</speed>
  <fix>3d</fix>
</trkpt>
<trkpt lat="40.0713749" lon="-105.229789">
  <ele>1583.0</ele>
  <time>2026-08-28T17:51:52Z</time>
  <course>0.0</course>
  <speed>0.0</speed>
  <fix>3d</fix>
</trkpt>
<trkpt lat="40.071375" lon="-105.229789">
  <ele>1583.05</ele>
  <time>2026-08-28T17:51:52Z</time>
  <course>247.38</course>
  <speed>0.02</speed>
  <fix>3d</fix>
</trkpt>
<trkpt lat="40.0713749" lon="-105.229789">
  <ele>1583.0</ele>
  <time>2026-08-28T17:51:52Z</time>
  <course>0.0</course>
  <speed>0.0</speed>
  <fix>3d</fix>
</trkpt>
<trkpt lat="40.071375" lon="-105.229789">
  <ele>1583.05</ele>
  <time>2026-08-28T17:51:52Z</time>
  <course>247.37</course>
  <speed>0.02</speed>
  <fix>3d</fix>
</trkpt>
<trkpt lat="40.0713749" lon="-105.229789">
  <ele>1583.0</ele>
  <time>2026-08-28T17:51:52Z</time>
  <course>0.0</course>
  <speed>0.0</speed>
  <fix>3d</fix>
</trkpt>
<trkpt lat="40.071375" lon="-105.229789">
  <ele>1583.06</ele>
  <time>2026-08-28T17:51:52Z</time>
  <course>247.37</course>
  <speed>0.02</speed>
  <fix>3d</fix>
</trkpt>
<trkpt lat="40.0713749" lon="-105.229789">
  <ele>1583.0</ele>
  <time>2026-08-28T17:51:52Z</time>
  <course>0.0</course>
  <speed>0.0</speed>
  <fix>3d</fix>
</trkpt>
<trkpt lat="40.071375" lon="-105.229789">
  <ele>1583.06</ele>
  <time>2026-08-28T17:51:52Z</time>
  <course>247.37</course>
  <speed>0.02</speed>
  <fix>3d</fix>
</trkpt>
<trkpt lat="40.0713749" lon="-105.229789">
  <ele>1583.0</ele>
  <time>2026-08-28T17:51:52Z</time>
  <course>0.0</course>
  <speed>0.0</speed>
  <fix>3d</fix>
</trkpt>
<trkpt lat="40.071375" lon="-105.229789">
  <ele>1583.06</ele>
  <time>2026-08-28T17:51:52Z</time>
  <course>247.37</course>
  <speed>0.02</speed>
  <fix>3d</fix>
</trkpt>
<trkpt lat="40.0713749" lon="-105.229789">
  <ele>1583.0</ele>
  <time>2026-08-28T17:51:52Z</time>
  <course>0.0</course>
  <speed>0.0</speed>
  <fix>3d</fix>
</trkpt>
<trkpt lat="40.071375" lon="-105.229789">
  <ele>1583.06</ele>
  <time>2026-08-28T17:51:52Z</time>
  <course>247.37</course>
  <speed>0.02</speed>
  <fix>3d</fix>
</trkpt>
<trkpt lat="40.0713749" lon="-105.229789">
  <ele>1583.0</ele>
  <time>2026-08-28T17:51:52Z</time>
  <course>0.0</course>
  <speed>0.0</speed>
  <fix>3d</fix>
</trkpt>
<trkpt lat="40.071375" lon="-105.229789">
  <ele>1583.06</ele>
  <time>2026-08-28T17:51:52Z</time>
  <course>247.37</course>
  <speed>0.02</speed>
  <fix>3d</fix>
</trkpt>
<trkpt lat="40.0713749" lon="-105.229789">
  <ele>1583.0</ele>
  <time>2026-08-28T17:51:52Z</time>
  <course>0.0</course>
  <speed>0.0</speed>
  <fix>3d</fix>
</trkpt>
<trkpt lat="40.071375" lon="-105.229789">
  <ele>1583.06</ele>
  <time>2026-08-28T17:51:52Z</time>
  <course>247.36</course>
  <speed>0.02</speed>
  <fix>3d</fix>
</trkpt>
<trkpt lat="40.0713749" lon="-105.229789">
  <ele>1583.0</ele>
  <time>2026-08-28T17:51:52Z</time>
  <course>0.0</course>
  <speed>0.0</speed>
  <fix>3d</fix>
</trkpt>
<trkpt lat="40.071375" lon="-105.229789">
  <ele>1583.06</ele>
  <time>2026-08-28T17:51:52Z</time>
  <course>247.36</course>
  <speed>0.02</speed>
  <fix>3d</fix>
</trkpt>
<trkpt lat="40.0713749" lon="-105.229789">
  <ele>1583.0</ele>
  <time>2026-08-28T17:51:52Z</time>
  <course>0.0</course>
  <speed>0.0</speed>
  <fix>3d</fix>
</trkpt>
<trkpt lat="40.071375" lon="-105.229789">
  <ele>1583.06</ele>
  <time>2026-08-28T17:51:52Z</time>
  <course>247.36</course>
  <speed>0.02</speed>
  <fix>3d</fix>
</trkpt>
<trkpt lat="40.0713749" lon="-105.229789">
  <ele>1583.0</ele>
  <time>2026-08-28T17:51:52Z</time>
  <course>0.0</course>
  <speed>0.0</speed>
  <fix>3d</fix>
</trkpt>
<trkpt lat="40.071375" lon="-105.229789">
  <ele>1583.06</ele>
  <time>2026-08-28T17:51:52Z</time>
  <course>247.36</course>
  <speed>0.02</speed>
  <fix>3d</fix>
</trkpt>
<trkpt lat="40.0713749" lon="-105.229789">
  <ele>1583.0</ele>
  <time>2026-08-28T17:51:52Z</time>
  <course>0.0</course>
  <speed>0.0</speed>
  <fix>3d</fix>
</trkpt>
<trkpt lat="40.071375" lon="-105.229789">
  <ele>1583.06</ele>
  <time>2026-08-28T17:51:52Z</time>
  <course>247.36</course>
  <speed>0.02</speed>
  <fix>3d</fix>
</trkpt>
<trkpt lat="40.0713749" lon="-105.229789">
  <ele>1583.0</ele>
  <time>2026-08-28T17:51:52Z</time>
  <course>0.0</course>
  <speed>0.0</speed>
  <fix>3d</fix>
</trkpt>
<trkpt lat="40.071375" lon="-105.229789">
  <ele>1583.05</ele>
  <time>2026-08-28T17:51:52Z</time>
  <course>247.35</course>
  <speed>0.02</speed>
  <fix>3d</fix>
</trkpt>
<trkpt lat="40.0713749" lon="-105.229789">
  <ele>1583.0</ele>
  <time>2026-08-28T17:51:52Z</time>
  <course>0.0</course>
  <speed>0.0</speed>
  <fix>3d</fix>
</trkpt>
<trkpt lat="40.071375" lon="-105.229789">
  <ele>1583.05</ele>
  <time>2026-08-28T17:51:52Z</time>
  <course>247.35</course>
  <speed>0.02</speed>
  <fix>3d</fix>
</trkpt>
<trkpt lat="40.0713749" lon="-105.229789">
  <ele>1583.0</ele>
  <time>2026-08-28T17:51:52Z</time>
  <course>0.0</course>
  <speed>0.0</speed>
  <fix>3d</fix>
</trkpt>
<trkpt lat="40.071375" lon="-105.229789">
  <ele>1583.04</ele>
  <time>2026-08-28T17:51:52Z</time>
  <course>247.35</course>
  <speed>0.02</speed>
  <fix>3d</fix>
</trkpt>
<trkpt lat="40.0713749" lon="-105.229789">
  <ele>1583.0</ele>
  <time>2026-08-28T17:51:52Z</time>
  <course>0.0</course>
  <speed>0.0</speed>
  <fix>3d</fix>
</trkpt>
<trkpt lat="40.071375" lon="-105.229789">
  <ele>1583.04</ele>
  <time>2026-08-28T17:51:52Z</time>
  <course>247.35</course>
  <speed>0.02</speed>
  <fix>3d</fix>
</trkpt>
<trkpt lat="40.0713749" lon="-105.229789">
  <ele>1583.0</ele>
  <time>2026-08-28T17:51:52Z</time>
  <course>0.0</course>
  <speed>0.0</speed>
  <fix>3d</fix>
</trkpt>
<trkpt lat="40.071375" lon="-105.229789">
  <ele>1583.04</ele>
  <time>2026-08-28T17:51:52Z</time>
  <course>247.35</course>
  <speed>0.02</speed>
  <fix>3d</fix>
</trkpt>
<trkpt lat="40.0713749" lon="-105.229789">
  <ele>1583.0</ele>
  <time>2026-08-28T17:51:52Z</time>
  <course>0.0</course>
  <speed>0.0</speed>
  <fix>3d</fix>
</trkpt>
<trkpt lat="40.071375" lon="-105.229789">
  <ele>1583.03</ele>
  <time>2026-08-28T17:51:52Z</time>
  <course>247.35</course>
  <speed>0.02</speed>
  <fix>3d</fix>
</trkpt>
<trkpt lat="40.0713749" lon="-105.229789">
  <ele>1583.0</ele>
  <time>2026-08-28T17:51:52Z</time>
  <course>0.0</course>
  <speed>0.0</speed>
  <fix>3d</fix>
</trkpt>
<trkpt lat="40.071375" lon="-105.229789">
  <ele>1583.03</ele>
  <time>2026-08-28T17:51:52Z</time>
  <course>247.34</course>
  <speed>0.02</speed>
  <fix>3d</fix>
</trkpt>
<trkpt lat="40.0713749" lon="-105.229789">
  <ele>1583.0</ele>
  <time>2026-08-28T17:51:52Z</time>
  <course>0.0</course>
  <speed>0.0</speed>
  <fix>3d</fix>
</trkpt>
<trkpt lat="40.071375" lon="-105.229789">
  <ele>1583.02</ele>
  <time>2026-08-28T17:51:52Z</time>
  <course>247.34</course>
  <speed>0.02</speed>
  <fix>3d</fix>
</trkpt>
<trkpt lat="40.0713749" lon="-105.229789">
  <ele>1583.0</ele>
  <time>2026-08-28T17:51:52Z</time>
  <course>0.0</course>
  <speed>0.0</speed>
  <fix>3d</fix>
</trkpt>
<trkpt lat="40.071375" lon="-105.229789">
  <ele>1583.02</ele>
  <time>2026-08-28T17:51:52Z</time>
  <course>247.34</course>
  <speed>0.02</speed>
  <fix>3d</fix>
</trkpt>
<trkpt lat="40.0713749" lon="-105.229789">
  <ele>1583.0</ele>
  <time>2026-08-28T17:51:52Z</time>
  <course>0.0</course>
  <speed>0.0</speed>
  <fix>3d</fix>
</trkpt>
<trkpt lat="40.071375" lon="-105.229789">
  <ele>1583.02</ele>
  <time>2026-08-28T17:51:52Z</time>
  <course>247.34</course>
  <speed>0.02</speed>
  <fix>3d</fix>
</trkpt>
<trkpt lat="40.0713749" lon="-105.229789">
  <ele>1583.0</ele>
  <time>2026-08-28T17:51:52Z</time>
  <course>0.0</course>
  <speed>0.0</speed>
  <fix>3d</fix>
</trkpt>
<trkpt lat="40.071375" lon="-105.229789">
  <ele>1583.02</ele>
  <time>2026-08-28T17:51:52Z</time>
  <course>247.34</course>
  <speed>0.02</speed>
  <fix>3d</fix>
</trkpt>
<trkpt lat="40.0713749" lon="-105.229789">
  <ele>1583.0</ele>
  <time>2026-08-28T17:51:52Z</time>
  <course>0.0</course>
  <speed>0.0</speed>
  <fix>3d</fix>
</trkpt>
<trkpt lat="40.071375" lon="-105.229789">
  <ele>1583.01</ele>
  <time>2026-08-28T17:51:52Z</time>
  <course>247.34</course>
  <speed>0.02</speed>
  <fix>3d</fix>
</trkpt>
<trkpt lat="40.0713749" lon="-105.229789">
  <ele>1583.0</ele>
  <time>2026-08-28T17:51:52Z</time>
  <course>0.0</course>
  <speed>0.0</speed>
  <fix>3d</fix>
</trkpt>
<trkpt lat="40.071375" lon="-105.229789">
  <ele>1583.01</ele>
  <time>2026-08-28T17:51:52Z</time>
  <course>247.33</course>
  <speed>0.02</speed>
  <fix>3d</fix>
</trkpt>
<trkpt lat="40.0713749" lon="-105.229789">
  <ele>1583.0</ele>
  <time>2026-08-28T17:51:52Z</time>
  <course>0.0</course>
  <speed>0.0</speed>
  <fix>3d</fix>
</trkpt>
<trkpt lat="40.071375" lon="-105.229789">
  <ele>1583.01</ele>
  <time>2026-08-28T17:51:52Z</time>
  <course>247.33</course>
  <speed>0.02</speed>
  <fix>3d</fix>
</trkpt>
<trkpt lat="40.0713749" lon="-105.229789">
  <ele>1583.0</ele>
  <time>2026-08-28T17:51:52Z</time>
  <course>0.0</course>
  <speed>0.0</speed>
  <fix>3d</fix>
</trkpt>
<trkpt lat="40.071375" lon="-105.229789">
  <ele>1583.01</ele>
  <time>2026-08-28T17:51:52Z</time>
  <course>247.33</course>
  <speed>0.02</speed>
  <fix>3d</fix>
</trkpt>
<trkpt lat="40.0713749" lon="-105.229789">
  <ele>1583.0</ele>
  <time>2026-08-28T17:51:52Z</time>
  <course>0.0</course>
  <speed>0.0</speed>
  <fix>3d</fix>
</trkpt>
<trkpt lat="40.071375" lon="-105.229789">
  <ele>1583.01</ele>
  <time>2026-08-28T17:51:52Z</time>
  <course>247.33</course>
  <speed>0.02</speed>
  <fix>3d</fix>
</trkpt>
<trkpt lat="40.0713749" lon="-105.229789">
  <ele>1583.0</ele>
  <time>2026-08-28T17:51:52Z</time>
  <course>0.0</course>
  <speed>0.0</speed>
  <fix>3d</fix>
</trkpt>
<trkpt lat="40.071375" lon="-105.229789">
  <ele>1583.01</ele>
  <time>2026-08-28T17:51:52Z</time>
  <course>247.33</course>
  <speed>0.02</speed>
  <fix>3d</fix>
</trkpt>
<trkpt lat="40.0713749" lon="-105.229789">
  <ele>1583.0</ele>
  <time>2026-08-28T17:51:52Z</time>
  <course>0.0</course>
  <speed>0.0</speed>
  <fix>3d</fix>
</trkpt>
<trkpt lat="40.071375" lon="-105.229789">
  <ele>1583.01</ele>
  <time>2026-08-28T17:51:52Z</time>
  <course>247.33</course>
  <speed>0.02</speed>
  <fix>3d</fix>
</trkpt>
<trkpt lat="40.0713749" lon="-105.229789">
  <ele>1583.0</ele>
  <time>2026-08-28T17:51:52Z</time>
  <course>0.0</course>
  <speed>0.0</speed>
  <fix>3d</fix>
</trkpt>
<trkpt lat="40.071375" lon="-105.229789">
  <ele>1583.01</ele>
  <time>2026-08-28T17:51:52Z</time>
  <course>247.33</course>
  <speed>0.02</speed>
  <fix>3d</fix>
</trkpt>
<trkpt lat="40.0713749" lon="-105.229789">
  <ele>1583.0</ele>
  <time>2026-08-28T17:51:52Z</time>
  <course>0.0</course>
  <speed>0.0</speed>
  <fix>3d</fix>
</trkpt>
<trkpt lat="40.071375" lon="-105.229789">
  <ele>1583.01</ele>
  <time>2026-08-28T17:51:52Z</time>
  <course>247.32</course>
  <speed>0.02</speed>
  <fix>3d</fix>
</trkpt>
<trkpt lat="40.0713749" lon="-105.229789">
  <ele>1583.0</ele>
  <time>2026-08-28T17:51:52Z</time>
  <course>0.0</course>
  <speed>0.0</speed>
  <fix>3d</fix>
</trkpt>
<trkpt lat="40.071375" lon="-105.229789">
  <ele>1583.0</ele>
  <time>2026-08-28T17:51:52Z</time>
  <course>247.32</course>
  <speed>0.02</speed>
  <fix>3d</fix>
</trkpt>
<trkpt lat="40.0713749" lon="-105.229789">
  <ele>1583.0</ele>
  <time>2026-08-28T17:51:52Z</time>
  <course>0.0</course>
  <speed>0.0</speed>
  <fix>3d</fix>
</trkpt>
<trkpt lat="40.071375" lon="-105.229789">
  <ele>1583.0</ele>
  <time>2026-08-28T17:51:52Z</time>
  <course>247.32</course>
  <speed>0.02</speed>
  <fix>3d</fix>
</trkpt>
<trkpt lat="40.0713749" lon="-105.229789">
  <ele>1583.0</ele>
  <time>2026-08-28T17:51:52Z</time>
  <course>0.0</course>
  <speed>0.0</speed>
  <fix>3d</fix>
</trkpt>
<trkpt lat="40.071375" lon="-105.229789">
  <ele>1583.0</ele>
  <time>2026-08-28T17:51:52Z</time>
  <course>247.32</course>
  <speed>0.02</speed>
  <fix>3d</fix>
</trkpt>
<trkpt lat="40.0713749" lon="-105.229789">
  <ele>1583.0</ele>
  <time>2026-08-28T17:51:52Z</time>
  <course>0.0</course>
  <speed>0.0</speed>
  <fix>3d</fix>
</trkpt>
<trkpt lat="40.071375" lon="-105.229789">
  <ele>1582.99</ele>
  <time>2026-08-28T17:51:52Z</time>
  <course>247.32</course>
  <speed>0.02</speed>
  <fix>3d</fix>
</trkpt>
<trkpt lat="40.0713749" lon="-105.229789">
  <ele>1583.0</ele>
  <time>2026-08-28T17:51:52Z</time>
  <course>0.0</course>
  <speed>0.0</speed>
  <fix>3d</fix>
</trkpt>
<trkpt lat="40.071375" lon="-105.229789">
  <ele>1582.99</ele>
  <time>2026-08-28T17:51:52Z</time>
  <course>247.32</course>
  <speed>0.02</speed>
  <fix>3d</fix>
</trkpt>
<trkpt lat="40.0713749" lon="-105.229789">
  <ele>1583.0</ele>
  <time>2026-08-28T17:51:52Z</time>
  <course>0.0</course>
  <speed>0.0</speed>
  <fix>3d</fix>
</trkpt>
<trkpt lat="40.071375" lon="-105.229789">
  <ele>1582.98</ele>
  <time>2026-08-28T17:51:52Z</time>
  <course>247.31</course>
  <speed>0.02</speed>
  <fix>3d</fix>
</trkpt>
<trkpt lat="40.0713749" lon="-105.229789">
  <ele>1583.0</ele>
  <time>2026-08-28T17:51:52Z</time>
  <course>0.0</course>
  <speed>0.0</speed>
  <fix>3d</fix>
</trkpt>
<trkpt lat="40.071375" lon="-105.229789">
  <ele>1582.97</ele>
  <time>2026-08-28T17:51:52Z</time>
  <course>247.31</course>
  <speed>0.02</speed>
  <fix>3d</fix>
</trkpt>
<trkpt lat="40.0713749" lon="-105.229789">
  <ele>1583.0</ele>
  <time>2026-08-28T17:51:52Z</time>
  <course>0.0</course>
  <speed>0.0</speed>
  <fix>3d</fix>
</trkpt>
<trkpt lat="40.071375" lon="-105.229789">
  <ele>1582.97</ele>
  <time>2026-08-28T17:51:52Z</time>
  <course>247.31</course>
  <speed>0.02</speed>
  <fix>3d</fix>
</trkpt>
<trkpt lat="40.0713749" lon="-105.229789">
  <ele>1583.0</ele>
  <time>2026-08-28T17:51:52Z</time>
  <course>0.0</course>
  <speed>0.0</speed>
  <fix>3d</fix>
</trkpt>
<trkpt lat="40.071375" lon="-105.229789">
  <ele>1582.96</ele>
  <time>2026-08-28T17:51:52Z</time>
  <course>247.31</course>
  <speed>0.02</speed>
  <fix>3d</fix>
</trkpt>
<trkpt lat="40.0713749" lon="-105.229789">
  <ele>1583.0</ele>
  <time>2026-08-28T17:51:52Z</time>
  <course>0.0</course>
  <speed>0.0</speed>
  <fix>3d</fix>
</trkpt>
<trkpt lat="40.071375" lon="-105.229789">
  <ele>1582.96</ele>
  <time>2026-08-28T17:51:52Z</time>
  <course>247.31</course>
  <speed>0.02</speed>
  <fix>3d</fix>
</trkpt>
<trkpt lat="40.0713749" lon="-105.229789">
  <ele>1583.0</ele>
  <time>2026-08-28T17:51:52Z</time>
  <course>0.0</course>
  <speed>0.0</speed>
  <fix>3d</fix>
</trkpt>
<trkpt lat="40.071375" lon="-105.229789">
  <ele>1582.95</ele>
  <time>2026-08-28T17:51:52Z</time>
  <course>247.31</course>
  <speed>0.02</speed>
  <fix>3d</fix>
</trkpt>
<trkpt lat="40.0713749" lon="-105.229789">
  <ele>1583.0</ele>
  <time>2026-08-28T17:51:52Z</time>
  <course>0.0</course>
  <speed>0.0</speed>
  <fix>3d</fix>
</trkpt>
<trkpt lat="40.071375" lon="-105.229789">
  <ele>1582.95</ele>
  <time>2026-08-28T17:51:52Z</time>
  <course>247.3</course>
  <speed>0.02</speed>
  <fix>3d</fix>
</trkpt>
<trkpt lat="40.0713749" lon="-105.229789">
  <ele>1583.0</ele>
  <time>2026-08-28T17:51:52Z</time>
  <course>0.0</course>
  <speed>0.0</speed>
  <fix>3d</fix>
</trkpt>
<trkpt lat="40.071375" lon="-105.229789">
  <ele>1582.94</ele>
  <time>2026-08-28T17:51:52Z</time>
  <course>247.3</course>
  <speed>0.02</speed>
  <fix>3d</fix>
</trkpt>
<trkpt lat="40.0713749" lon="-105.229789">
  <ele>1583.0</ele>
  <time>2026-08-28T17:51:52Z</time>
  <course>0.0</course>
  <speed>0.0</speed>
  <fix>3d</fix>
</trkpt>
<trkpt lat="40.071375" lon="-105.229789">
  <ele>1582.93</ele>
  <time>2026-08-28T17:51:52Z</time>
  <course>247.3</course>
  <speed>0.02</speed>
  <fix>3d</fix>
</trkpt>
<trkpt lat="40.0713749" lon="-105.229789">
  <ele>1583.0</ele>
  <time>2026-08-28T17:51:52Z</time>
  <course>0.0</course>
  <speed>0.0</speed>
  <fix>3d</fix>
</trkpt>
<trkpt lat="40.071375" lon="-105.229789">
  <ele>1582.93</ele>
  <time>2026-08-28T17:51:52Z</time>
  <course>247.3</course>
  <speed>0.02</speed>
  <fix>3d</fix>
</trkpt>
<trkpt lat="40.0713749" lon="-105.229789">
  <ele>1583.0</ele>
  <time>2026-08-28T17:51:52Z</time>
  <course>0.0</course>
  <speed>0.0</speed>
  <fix>3d</fix>
</trkpt>
<trkpt lat="40.071375" lon="-105.229789">
  <ele>1582.92</ele>
  <time>2026-08-28T17:51:52Z</time>
  <course>247.3</course>
  <speed>0.02</speed>
  <fix>3d</fix>
</trkpt>
<trkpt lat="40.0713749" lon="-105.229789">
  <ele>1583.0</ele>
  <time>2026-08-28T17:51:52Z</time>
  <course>0.0</course>
  <speed>0.0</speed>
  <fix>3d</fix>
</trkpt>
<trkpt lat="40.071375" lon="-105.229789">
  <ele>1582.92</ele>
  <time>2026-08-28T17:51:52Z</time>
  <course>247.3</course>
  <speed>0.02</speed>
  <fix>3d</fix>
</trkpt>
<trkpt lat="40.0713749" lon="-105.229789">
  <ele>1583.0</ele>
  <time>2026-08-28T17:51:52Z</time>
  <course>0.0</course>
  <speed>0.0</speed>
  <fix>3d</fix>
</trkpt>
<trkpt lat="40.071375" lon="-105.229789">
  <ele>1582.91</ele>
  <time>2026-08-28T17:51:52Z</time>
  <course>247.3</course>
  <speed>0.02</speed>
  <fix>3d</fix>
</trkpt>
<trkpt lat="40.0713749" lon="-105.229789">
  <ele>1583.0</ele>
  <time>2026-08-28T17:51:52Z</time>
  <course>0.0</course>
  <speed>0.0</speed>
  <fix>3d</fix>
</trkpt>
<trkpt lat="40.071375" lon="-105.229789">
  <ele>1582.91</ele>
  <time>2026-08-28T17:51:52Z</time>
  <course>247.3</course>
  <speed>0.02</speed>
  <fix>3d</fix>
</trkpt>
<trkpt lat="40.0713749" lon="-105.229789">
  <ele>1583.0</ele>
  <time>2026-08-28T17:51:52Z</time>
  <course>0.0</course>
  <speed>0.0</speed>
  <fix>3d</fix>
</trkpt>
<trkpt lat="40.071375" lon="-105.229789">
  <ele>1582.91</ele>
  <time>2026-08-28T17:51:52Z</time>
  <course>247.29</course>
  <speed>0.02</speed>
  <fix>3d</fix>
</trkpt>
<trkpt lat="40.0713749" lon="-105.229789">
  <ele>1583.0</ele>
  <time>2026-08-28T17:51:52Z</time>
  <course>0.0</course>
  <speed>0.0</speed>
  <fix>3d</fix>
</trkpt>
<trkpt lat="40.071375" lon="-105.229789">
  <ele>1582.91</ele>
  <time>2026-08-28T17:51:52Z</time>
  <course>247.29</course>
  <speed>0.02</speed>
  <fix>3d</fix>
</trkpt>
<trkpt lat="40.0713749" lon="-105.229789">
  <ele>1583.0</ele>
  <time>2026-08-28T17:51:52Z</time>
  <course>0.0</course>
  <speed>0.0</speed>
  <fix>3d</fix>
</trkpt>
<trkpt lat="40.071375" lon="-105.229789">
  <ele>1582.91</ele>
  <time>2026-08-28T17:51:52Z</time>
  <course>247.29</course>
  <speed>0.02</speed>
  <fix>3d</fix>
</trkpt>
<trkpt lat="40.0713749" lon="-105.229789">
  <ele>1583.0</ele>
  <time>2026-08-28T17:51:52Z</time>
  <course>0.0</course>
  <speed>0.0</speed>
  <fix>3d</fix>
</trkpt>
<trkpt lat="40.071375" lon="-105.229789">
  <ele>1582.91</ele>
  <time>2026-08-28T17:51:52Z</time>
  <course>247.29</course>
  <speed>0.02</speed>
  <fix>3d</fix>
</trkpt>
<trkpt lat="40.0713749" lon="-105.229789">
  <ele>1583.0</ele>
  <time>2026-08-28T17:51:52Z</time>
  <course>0.0</course>
  <speed>0.0</speed>
  <fix>3d</fix>
</trkpt>
<trkpt lat="40.071375" lon="-105.229789">
  <ele>1582.9</ele>
  <time>2026-08-28T17:51:52Z</time>
  <course>247.29</course>
  <speed>0.02</speed>
  <fix>3d</fix>
</trkpt>
<trkpt lat="40.0713749" lon="-105.229789">
  <ele>1583.0</ele>
  <time>2026-08-28T17:51:52Z</time>
  <course>0.0</course>
  <speed>0.0</speed>
  <fix>3d</fix>
</trkpt>
<trkpt lat="40.071375" lon="-105.229789">
  <ele>1582.9</ele>
  <time>2026-08-28T17:51:52Z</time>
  <course>247.29</course>
  <speed>0.02</speed>
  <fix>3d</fix>
</trkpt>
<trkpt lat="40.0713749" lon="-105.229789">
  <ele>1583.0</ele>
  <time>2026-08-28T17:51:52Z</time>
  <course>0.0</course>
  <speed>0.0</speed>
  <fix>3d</fix>
</trkpt>
<trkpt lat="40.071375" lon="-105.229789">
  <ele>1582.9</ele>
  <time>2026-08-28T17:51:52Z</time>
  <course>247.29</course>
  <speed>0.02</speed>
  <fix>3d</fix>
</trkpt>
<trkpt lat="40.0713749" lon="-105.229789">
  <ele>1583.0</ele>
  <time>2026-08-28T17:51:52Z</time>
  <course>0.0</course>
  <speed>0.0</speed>
  <fix>3d</fix>
</trkpt>
<trkpt lat="40.071375" lon="-105.229789">
  <ele>1582.9</ele>
  <time>2026-08-28T17:51:52Z</time>
  <course>247.28</course>
  <speed>0.02</speed>
  <fix>3d</fix>
</trkpt>
<trkpt lat="40.0713749" lon="-105.229789">
  <ele>1583.0</ele>
  <time>2026-08-28T17:51:52Z</time>
  <course>0.0</course>
  <speed>0.0</speed>
  <fix>3d</fix>
</trkpt>
<trkpt lat="40.071375" lon="-105.229789">
  <ele>1582.89</ele>
  <time>2026-08-28T17:51:52Z</time>
  <course>247.28</course>
  <speed>0.02</speed>
  <fix>3d</fix>
</trkpt>
<trkpt lat="40.0713749" lon="-105.229789">
  <ele>1583.0</ele>
  <time>2026-08-28T17:51:52Z</time>
  <course>0.0</course>
  <speed>0.0</speed>
  <fix>3d</fix>
</trkpt>
<trkpt lat="40.071375" lon="-105.2297889">
  <ele>1582.9</ele>
  <time>2026-08-28T17:51:52Z</time>
  <course>247.28</course>
  <speed>0.02</speed>
  <fix>3d</fix>
</trkpt>
<trkpt lat="40.0713749" lon="-105.229789">
  <ele>1583.0</ele>
  <time>2026-08-28T17:51:52Z</time>
  <course>0.0</course>
  <speed>0.0</speed>
  <fix>3d</fix>
</trkpt>
<trkpt lat="40.071375" lon="-105.229789">
  <ele>1582.9</ele>
  <time>2026-08-28T17:51:52Z</time>
  <course>247.28</course>
  <speed>0.02</speed>
  <fix>3d</fix>
</trkpt>
<trkpt lat="40.0713749" lon="-105.229789">
  <ele>1583.0</ele>
  <time>2026-08-28T17:51:52Z</time>
  <course>0.0</course>
  <speed>0.0</speed>
  <fix>3d</fix>
</trkpt>
<trkpt lat="40.071375" lon="-105.2297889">
  <ele>1582.9</ele>
  <time>2026-08-28T17:51:52Z</time>
  <course>247.28</course>
  <speed>0.02</speed>
  <fix>3d</fix>
</trkpt>
<trkpt lat="40.0713749" lon="-105.229789">
  <ele>1583.0</ele>
  <time>2026-08-28T17:51:52Z</time>
  <course>0.0</course>
  <speed>0.0</speed>
  <fix>3d</fix>
</trkpt>
<trkpt lat="40.071375" lon="-105.229789">
  <ele>1582.91</ele>
  <time>2026-08-28T17:51:52Z</time>
  <course>247.28</course>
  <speed>0.02</speed>
  <fix>3d</fix>
</trkpt>
<trkpt lat="40.0713749" lon="-105.229789">
  <ele>1583.0</ele>
  <time>2026-08-28T17:51:52Z</time>
  <course>0.0</course>
  <speed>0.0</speed>
  <fix>3d</fix>
</trkpt>
<trkpt lat="40.071375" lon="-105.2297889">
  <ele>1582.92</ele>
  <time>2026-08-28T17:51:52Z</time>
  <course>247.28</course>
  <speed>0.02</speed>
  <fix>3d</fix>
</trkpt>
<trkpt lat="40.0713749" lon="-105.229789">
  <ele>1583.0</ele>
  <time>2026-08-28T17:51:52Z</time>
  <course>0.0</course>
  <speed>0.0</speed>
  <fix>3d</fix>
</trkpt>
<trkpt lat="40.071375" lon="-105.2297889">
  <ele>1582.93</ele>
  <time>2026-08-28T17:51:52Z</time>
  <course>247.27</course>
  <speed>0.02</speed>
  <fix>3d</fix>
</trkpt>
<trkpt lat="40.0713749" lon="-105.229789">
  <ele>1583.0</ele>
  <time>2026-08-28T17:51:52Z</time>
  <course>0.0</course>
  <speed>0.0</speed>
  <fix>3d</fix>
</trkpt>
<trkpt lat="40.071375" lon="-105.2297889">
  <ele>1582.93</ele>
  <time>2026-08-28T17:51:52Z</time>
  <course>247.27</course>
  <speed>0.02</speed>
  <fix>3d</fix>
</trkpt>
<trkpt lat="40.0713749" lon="-105.229789">
  <ele>1583.0</ele>
  <time>2026-08-28T17:51:52Z</time>
  <course>0.0</course>
  <speed>0.0</speed>
  <fix>3d</fix>
</trkpt>
<trkpt lat="40.071375" lon="-105.2297889">
  <ele>1582.94</ele>
  <time>2026-08-28T17:51:52Z</time>
  <course>247.27</course>
  <speed>0.02</speed>
  <fix>3d</fix>
</trkpt>
<trkpt lat="40.0713749" lon="-105.229789">
  <ele>1583.0</ele>
  <time>2026-08-28T17:51:52Z</time>
  <course>0.0</course>
  <speed>0.0</speed>
  <fix>3d</fix>
</trkpt>
<trkpt lat="40.071375" lon="-105.2297889">
  <ele>1582.95</ele>
  <time>2026-08-28T17:51:52Z</time>
  <course>247.27</course>
  <speed>0.02</speed>
  <fix>3d</fix>
</trkpt>
<trkpt lat="40.0713749" lon="-105.229789">
  <ele>1583.0</ele>
  <time>2026-08-28T17:51:52Z</time>
  <course>0.0</course>
  <speed>0.0</speed>
  <fix>3d</fix>
</trkpt>
<trkpt lat="40.071375" lon="-105.2297889">
  <ele>1582.95</ele>
  <time>2026-08-28T17:51:52Z</time>
  <course>247.27</course>
  <speed>0.02</speed>
  <fix>3d</fix>
</trkpt>
<trkpt lat="40.0713749" lon="-105.229789">
  <ele>1583.0</ele>
  <time>2026-08-28T17:51:52Z</time>
  <course>0.0</course>
  <speed>0.0</speed>
  <fix>3d</fix>
</trkpt>
<trkpt lat="40.071375" lon="-105.2297889">
  <ele>1582.96</ele>
  <time>2026-08-28T17:51:52Z</time>
  <course>247.27</course>
  <speed>0.02</speed>
  <fix>3d</fix>
</trkpt>
<trkpt lat="40.0713749" lon="-105.229789">
  <ele>1583.0</ele>
  <time>2026-08-28T17:51:52Z</time>
  <course>0.0</course>
  <speed>0.0</speed>
  <fix>3d</fix>
</trkpt>
<trkpt lat="40.071375" lon="-105.229789">
  <ele>1582.97</ele>
  <time>2026-08-28T17:51:52Z</time>
  <course>247.27</course>
  <speed>0.02</speed>
  <fix>3d</fix>
</trkpt>
<trkpt lat="40.0713749" lon="-105.229789">
  <ele>1583.0</ele>
  <time>2026-08-28T17:51:52Z</time>
  <course>0.0</course>
  <speed>0.0</speed>
  <fix>3d</fix>
</trkpt>
<trkpt lat="40.071375" lon="-105.2297889">
  <ele>1582.97</ele>
  <time>2026-08-28T17:51:52Z</time>
  <course>247.27</course>
  <speed>0.02</speed>
  <fix>3d</fix>
</trkpt>
<trkpt lat="40.0713749" lon="-105.229789">
  <ele>1583.0</ele>
  <time>2026-08-28T17:51:52Z</time>
  <course>0.0</course>
  <speed>0.0</speed>
  <fix>3d</fix>
</trkpt>
<trkpt lat="40.071375" lon="-105.229789">
  <ele>1582.97</ele>
  <time>2026-08-28T17:51:52Z</time>
  <course>247.26</course>
  <speed>0.02</speed>
  <fix>3d</fix>
</trkpt>
<trkpt lat="40.0713749" lon="-105.229789">
  <ele>1583.0</ele>
  <time>2026-08-28T17:51:52Z</time>
  <course>0.0</course>
  <speed>0.0</speed>
  <fix>3d</fix>
</trkpt>
<trkpt lat="40.071375" lon="-105.2297889">
  <ele>1582.97</ele>
  <time>2026-08-28T17:51:52Z</time>
  <course>247.26</course>
  <speed>0.02</speed>
  <fix>3d</fix>
</trkpt>
<trkpt lat="40.0713749" lon="-105.229789">
  <ele>1583.0</ele>
  <time>2026-08-28T17:51:52Z</time>
  <course>0.0</course>
  <speed>0.0</speed>
  <fix>3d</fix>
</trkpt>
<trkpt lat="40.071375" lon="-105.229789">
  <ele>1582.98</ele>
  <time>2026-08-28T17:51:52Z</time>
  <course>247.26</course>
  <speed>0.02</speed>
  <fix>3d</fix>
</trkpt>
<trkpt lat="40.0713749" lon="-105.229789">
  <ele>1583.0</ele>
  <time>2026-08-28T17:51:52Z</time>
  <course>0.0</course>
  <speed>0.0</speed>
  <fix>3d</fix>
</trkpt>
<trkpt lat="40.071375" lon="-105.2297889">
  <ele>1582.98</ele>
  <time>2026-08-28T17:51:52Z</time>
  <course>247.26</course>
  <speed>0.02</speed>
  <fix>3d</fix>
</trkpt>
<trkpt lat="40.0713749" lon="-105.229789">
  <ele>1583.0</ele>
  <time>2026-08-28T17:51:52Z</time>
  <course>0.0</course>
  <speed>0.0</speed>
  <fix>3d</fix>
</trkpt>
<trkpt lat="40.071375" lon="-105.229789">
  <ele>1582.99</ele>
  <time>2026-08-28T17:51:52Z</time>
  <course>247.26</course>
  <speed>0.02</speed>
  <fix>3d</fix>
</trkpt>
<trkpt lat="40.0713749" lon="-105.229789">
  <ele>1583.0</ele>
  <time>2026-08-28T17:51:52Z</time>
  <course>0.0</course>
  <speed>0.0</speed>
  <fix>3d</fix>
</trkpt>
<trkpt lat="40.071375" lon="-105.2297889">
  <ele>1582.99</ele>
  <time>2026-08-28T17:51:52Z</time>
  <course>247.26</course>
  <speed>0.02</speed>
  <fix>3d</fix>
</trkpt>
<trkpt lat="40.0713749" lon="-105.229789">
  <ele>1583.0</ele>
  <time>2026-08-28T17:51:52Z</time>
  <course>0.0</course>
  <speed>0.0</speed>
  <fix>3d</fix>
</trkpt>
<trkpt lat="40.071375" lon="-105.229789">
  <ele>1583.0</ele>
  <time>2026-08-28T17:51:52Z</time>
  <course>247.26</course>
  <speed>0.02</speed>
  <fix>3d</fix>
</trkpt>
<trkpt lat="40.0713749" lon="-105.229789">
  <ele>1583.0</ele>
  <time>2026-08-28T17:51:52Z</time>
  <course>0.0</course>
  <speed>0.0</speed>
  <fix>3d</fix>
</trkpt>
<trkpt lat="40.071375" lon="-105.2297889">
  <ele>1583.0</ele>
  <time>2026-08-28T17:51:52Z</time>
  <course>247.26</course>
  <speed>0.02</speed>
  <fix>3d</fix>
</trkpt>
<trkpt lat="40.0713749" lon="-105.229789">
  <ele>1583.0</ele>
  <time>2026-08-28T17:51:52Z</time>
  <course>0.0</course>
  <speed>0.0</speed>
  <fix>3d</fix>
</trkpt>
<trkpt lat="40.071375" lon="-105.229789">
  <ele>1583.0</ele>
  <time>2026-08-28T17:51:52Z</time>
  <course>247.25</course>
  <speed>0.02</speed>
  <fix>3d</fix>
</trkpt>
<trkpt lat="40.0713749" lon="-105.229789">
  <ele>1583.0</ele>
  <time>2026-08-28T17:51:52Z</time>
  <course>0.0</course>
  <speed>0.0</speed>
  <fix>3d</fix>
</trkpt>
<trkpt lat="40.071375" lon="-105.2297889">
  <ele>1583.0</ele>
  <time>2026-08-28T17:51:52Z</time>
  <course>247.25</course>
  <speed>0.02</speed>
  <fix>3d</fix>
</trkpt>
<trkpt lat="40.0713749" lon="-105.229789">
  <ele>1583.0</ele>
  <time>2026-08-28T17:51:52Z</time>
  <course>0.0</course>
  <speed>0.0</speed>
  <fix>3d</fix>
</trkpt>
<trkpt lat="40.071375" lon="-105.229789">
  <ele>1582.99</ele>
  <time>2026-08-28T17:51:52Z</time>
  <course>247.25</course>
  <speed>0.02</speed>
  <fix>3d</fix>
</trkpt>
<trkpt lat="40.0713749" lon="-105.229789">
  <ele>1583.0</ele>
  <time>2026-08-28T17:51:52Z</time>
  <course>0.0</course>
  <speed>0.0</speed>
  <fix>3d</fix>
</trkpt>
<trkpt lat="40.071375" lon="-105.2297889">
  <ele>1582.99</ele>
  <time>2026-08-28T17:51:52Z</time>
  <course>247.25</course>
  <speed>0.02</speed>
  <fix>3d</fix>
</trkpt>
<trkpt lat="40.0713749" lon="-105.229789">
  <ele>1583.0</ele>
  <time>2026-08-28T17:51:52Z</time>
  <course>0.0</course>
  <speed>0.0</speed>
  <fix>3d</fix>
</trkpt>
<trkpt lat="40.071375" lon="-105.229789">
  <ele>1582.98</ele>
  <time>2026-08-28T17:51:52Z</time>
  <course>247.25</course>
  <speed>0.02</speed>
  <fix>3d</fix>
</trkpt>
<trkpt lat="40.0713749" lon="-105.229789">
  <ele>1583.0</ele>
  <time>2026-08-28T17:51:52Z</time>
  <course>0.0</course>
  <speed>0.0</speed>
  <fix>3d</fix>
</trkpt>
<trkpt lat="40.071375" lon="-105.2297889">
  <ele>1582.97</ele>
  <time>2026-08-28T17:51:52Z</time>
  <course>247.25</course>
  <speed>0.02</speed>
  <fix>3d</fix>
</trkpt>
<trkpt lat="40.0713749" lon="-105.229789">
  <ele>1583.0</ele>
  <time>2026-08-28T17:51:52Z</time>
  <course>0.0</course>
  <speed>0.0</speed>
  <fix>3d</fix>
</trkpt>
<trkpt lat="40.071375" lon="-105.229789">
  <ele>1582.96</ele>
  <time>2026-08-28T17:51:52Z</time>
  <course>247.25</course>
  <speed>0.02</speed>
  <fix>3d</fix>
</trkpt>
<trkpt lat="40.0713749" lon="-105.229789">
  <ele>1583.0</ele>
  <time>2026-08-28T17:51:52Z</time>
  <course>0.0</course>
  <speed>0.0</speed>
  <fix>3d</fix>
</trkpt>
<trkpt lat="40.071375" lon="-105.2297889">
  <ele>1582.96</ele>
  <time>2026-08-28T17:51:52Z</time>
  <course>247.25</course>
  <speed>0.02</speed>
  <fix>3d</fix>
</trkpt>
<trkpt lat="40.0713749" lon="-105.229789">
  <ele>1583.0</ele>
  <time>2026-08-28T17:51:52Z</time>
  <course>0.0</course>
  <speed>0.0</speed>
  <fix>3d</fix>
</trkpt>
<trkpt lat="40.071375" lon="-105.229789">
  <ele>1582.95</ele>
  <time>2026-08-28T17:51:52Z</time>
  <course>247.25</course>
  <speed>0.02</speed>
  <fix>3d</fix>
</trkpt>
<trkpt lat="40.0713749" lon="-105.229789">
  <ele>1583.0</ele>
  <time>2026-08-28T17:51:52Z</time>
  <course>0.0</course>
  <speed>0.0</speed>
  <fix>3d</fix>
</trkpt>
<trkpt lat="40.071375" lon="-105.2297889">
  <ele>1582.95</ele>
  <time>2026-08-28T17:51:52Z</time>
  <course>247.24</course>
  <speed>0.02</speed>
  <fix>3d</fix>
</trkpt>
<trkpt lat="40.0713749" lon="-105.229789">
  <ele>1583.0</ele>
  <time>2026-08-28T17:51:52Z</time>
  <course>0.0</course>
  <speed>0.0</speed>
  <fix>3d</fix>
</trkpt>
<trkpt lat="40.071375" lon="-105.229789">
  <ele>1582.96</ele>
  <time>2026-08-28T17:51:52Z</time>
  <course>247.24</course>
  <speed>0.02</speed>
  <fix>3d</fix>
</trkpt>
<trkpt lat="40.0713749" lon="-105.229789">
  <ele>1583.0</ele>
  <time>2026-08-28T17:51:52Z</time>
  <course>0.0</course>
  <speed>0.0</speed>
  <fix>3d</fix>
</trkpt>
<trkpt lat="40.071375" lon="-105.2297889">
  <ele>1582.96</ele>
  <time>2026-08-28T17:51:52Z</time>
  <course>247.24</course>
  <speed>0.02</speed>
  <fix>3d</fix>
</trkpt>
<trkpt lat="40.0713749" lon="-105.229789">
  <ele>1583.0</ele>
  <time>2026-08-28T17:51:52Z</time>
  <course>0.0</course>
  <speed>0.0</speed>
  <fix>3d</fix>
</trkpt>
<trkpt lat="40.071375" lon="-105.229789">
  <ele>1582.97</ele>
  <time>2026-08-28T17:51:52Z</time>
  <course>247.24</course>
  <speed>0.02</speed>
  <fix>3d</fix>
</trkpt>
<trkpt lat="40.0713749" lon="-105.229789">
  <ele>1583.0</ele>
  <time>2026-08-28T17:51:52Z</time>
  <course>0.0</course>
  <speed>0.0</speed>
  <fix>3d</fix>
</trkpt>
<trkpt lat="40.071375" lon="-105.229789">
  <ele>1582.97</ele>
  <time>2026-08-28T17:51:52Z</time>
  <course>247.24</course>
  <speed>0.02</speed>
  <fix>3d</fix>
</trkpt>
<trkpt lat="40.0713749" lon="-105.229789">
  <ele>1583.0</ele>
  <time>2026-08-28T17:51:52Z</time>
  <course>0.0</course>
  <speed>0.0</speed>
  <fix>3d</fix>
</trkpt>
<trkpt lat="40.071375" lon="-105.229789">
  <ele>1582.98</ele>
  <time>2026-08-28T17:51:52Z</time>
  <course>247.24</course>
  <speed>0.02</speed>
  <fix>3d</fix>
</trkpt>
<trkpt lat="40.0713749" lon="-105.229789">
  <ele>1583.0</ele>
  <time>2026-08-28T17:51:52Z</time>
  <course>0.0</course>
  <speed>0.0</speed>
  <fix>3d</fix>
</trkpt>
<trkpt lat="40.071375" lon="-105.229789">
  <ele>1582.98</ele>
  <time>2026-08-28T17:51:52Z</time>
  <course>247.24</course>
  <speed>0.02</speed>
  <fix>3d</fix>
</trkpt>
<trkpt lat="40.0713749" lon="-105.229789">
  <ele>1583.0</ele>
  <time>2026-08-28T17:51:52Z</time>
  <course>0.0</course>
  <speed>0.0</speed>
  <fix>3d</fix>
</trkpt>
<trkpt lat="40.071375" lon="-105.229789">
  <ele>1582.99</ele>
  <time>2026-08-28T17:51:52Z</time>
  <course>247.24</course>
  <speed>0.02</speed>
  <fix>3d</fix>
</trkpt>
<trkpt lat="40.0713749" lon="-105.229789">
  <ele>1583.0</ele>
  <time>2026-08-28T17:51:52Z</time>
  <course>0.0</course>
  <speed>0.0</speed>
  <fix>3d</fix>
</trkpt>
<trkpt lat="40.071375" lon="-105.229789">
  <ele>1583.0</ele>
  <time>2026-08-28T17:51:52Z</time>
  <course>247.24</course>
  <speed>0.02</speed>
  <fix>3d</fix>
</trkpt>
<trkpt lat="40.0713749" lon="-105.229789">
  <ele>1583.0</ele>
  <time>2026-08-28T17:51:52Z</time>
  <course>0.0</course>
  <speed>0.0</speed>
  <fix>3d</fix>
</trkpt>
<trkpt lat="40.071375" lon="-105.229789">
  <ele>1583.0</ele>
  <time>2026-08-28T17:51:52Z</time>
  <course>247.23</course>
  <speed>0.02</speed>
  <fix>3d</fix>
</trkpt>
<trkpt lat="40.0713749" lon="-105.229789">
  <ele>1583.0</ele>
  <time>2026-08-28T17:51:52Z</time>
  <course>0.0</course>
  <speed>0.0</speed>
  <fix>3d</fix>
</trkpt>
<trkpt lat="40.071375" lon="-105.229789">
  <ele>1583.01</ele>
  <time>2026-08-28T17:51:52Z</time>
  <course>247.23</course>
  <speed>0.02</speed>
  <fix>3d</fix>
</trkpt>
<trkpt lat="40.0713749" lon="-105.229789">
  <ele>1583.0</ele>
  <time>2026-08-28T17:51:52Z</time>
  <course>0.0</course>
  <speed>0.0</speed>
  <fix>3d</fix>
</trkpt>
<trkpt lat="40.071375" lon="-105.229789">
  <ele>1583.01</ele>
  <time>2026-08-28T17:51:52Z</time>
  <course>247.23</course>
  <speed>0.02</speed>
  <fix>3d</fix>
</trkpt>
<trkpt lat="40.0713749" lon="-105.229789">
  <ele>1583.0</ele>
  <time>2026-08-28T17:51:52Z</time>
  <course>0.0</course>
  <speed>0.0</speed>
  <fix>3d</fix>
</trkpt>
<trkpt lat="40.071375" lon="-105.229789">
  <ele>1583.02</ele>
  <time>2026-08-28T17:51:52Z</time>
  <course>247.23</course>
  <speed>0.02</speed>
  <fix>3d</fix>
</trkpt>
<trkpt lat="40.0713749" lon="-105.229789">
  <ele>1583.0</ele>
  <time>2026-08-28T17:51:52Z</time>
  <course>0.0</course>
  <speed>0.0</speed>
  <fix>3d</fix>
</trkpt>
<trkpt lat="40.071375" lon="-105.229789">
  <ele>1583.02</ele>
  <time>2026-08-28T17:51:52Z</time>
  <course>247.23</course>
  <speed>0.02</speed>
  <fix>3d</fix>
</trkpt>
<trkpt lat="40.0713749" lon="-105.229789">
  <ele>1583.0</ele>
  <time>2026-08-28T17:51:52Z</time>
  <course>0.0</course>
  <speed>0.0</speed>
  <fix>3d</fix>
</trkpt>
<trkpt lat="40.071375" lon="-105.229789">
  <ele>1583.03</ele>
  <time>2026-08-28T17:51:52Z</time>
  <course>247.23</course>
  <speed>0.02</speed>
  <fix>3d</fix>
</trkpt>
<trkpt lat="40.0713749" lon="-105.229789">
  <ele>1583.0</ele>
  <time>2026-08-28T17:51:52Z</time>
  <course>0.0</course>
  <speed>0.0</speed>
  <fix>3d</fix>
</trkpt>
<trkpt lat="40.071375" lon="-105.229789">
  <ele>1583.03</ele>
  <time>2026-08-28T17:51:52Z</time>
  <course>247.23</course>
  <speed>0.02</speed>
  <fix>3d</fix>
</trkpt>
<trkpt lat="40.0713749" lon="-105.229789">
  <ele>1583.0</ele>
  <time>2026-08-28T17:51:52Z</time>
  <course>0.0</course>
  <speed>0.0</speed>
  <fix>3d</fix>
</trkpt>
<trkpt lat="40.071375" lon="-105.229789">
  <ele>1583.03</ele>
  <time>2026-08-28T17:51:52Z</time>
  <course>247.23</course>
  <speed>0.02</speed>
  <fix>3d</fix>
</trkpt>
<trkpt lat="40.0713749" lon="-105.229789">
  <ele>1583.0</ele>
  <time>2026-08-28T17:51:52Z</time>
  <course>0.0</course>
  <speed>0.0</speed>
  <fix>3d</fix>
</trkpt>
<trkpt lat="40.071375" lon="-105.229789">
  <ele>1583.03</ele>
  <time>2026-08-28T17:51:52Z</time>
  <course>247.23</course>
  <speed>0.02</speed>
  <fix>3d</fix>
</trkpt>
<trkpt lat="40.0713749" lon="-105.229789">
  <ele>1583.0</ele>
  <time>2026-08-28T17:51:52Z</time>
  <course>0.0</course>
  <speed>0.0</speed>
  <fix>3d</fix>
</trkpt>
<trkpt lat="40.071375" lon="-105.2297889">
  <ele>1583.03</ele>
  <time>2026-08-28T17:51:52Z</time>
  <course>247.22</course>
  <speed>0.02</speed>
  <fix>3d</fix>
</trkpt>
<trkpt lat="40.0713749" lon="-105.229789">
  <ele>1583.0</ele>
  <time>2026-08-28T17:51:52Z</time>
  <course>0.0</course>
  <speed>0.0</speed>
  <fix>3d</fix>
</trkpt>
<trkpt lat="40.071375" lon="-105.229789">
  <ele>1583.03</ele>
  <time>2026-08-28T17:51:52Z</time>
  <course>247.22</course>
  <speed>0.02</speed>
  <fix>3d</fix>
</trkpt>
<trkpt lat="40.0713749" lon="-105.229789">
  <ele>1583.0</ele>
  <time>2026-08-28T17:51:52Z</time>
  <course>0.0</course>
  <speed>0.0</speed>
  <fix>3d</fix>
</trkpt>
<trkpt lat="40.071375" lon="-105.2297889">
  <ele>1583.03</ele>
  <time>2026-08-28T17:51:52Z</time>
  <course>247.22</course>
  <speed>0.02</speed>
  <fix>3d</fix>
</trkpt>
<trkpt lat="40.0713749" lon="-105.229789">
  <ele>1583.0</ele>
  <time>2026-08-28T17:51:52Z</time>
  <course>0.0</course>
  <speed>0.0</speed>
  <fix>3d</fix>
</trkpt>
<trkpt lat="40.071375" lon="-105.229789">
  <ele>1583.03</ele>
  <time>2026-08-28T17:51:52Z</time>
  <course>247.22</course>
  <speed>0.02</speed>
  <fix>3d</fix>
</trkpt>
<trkpt lat="40.0713749" lon="-105.229789">
  <ele>1583.0</ele>
  <time>2026-08-28T17:51:52Z</time>
  <course>0.0</course>
  <speed>0.0</speed>
  <fix>3d</fix>
</trkpt>
<trkpt lat="40.071375" lon="-105.2297889">
  <ele>1583.02</ele>
  <time>2026-08-28T17:51:52Z</time>
  <course>247.22</course>
  <speed>0.02</speed>
  <fix>3d</fix>
</trkpt>
<trkpt lat="40.0713749" lon="-105.229789">
  <ele>1583.0</ele>
  <time>2026-08-28T17:51:52Z</time>
  <course>0.0</course>
  <speed>0.0</speed>
  <fix>3d</fix>
</trkpt>
<trkpt lat="40.071375" lon="-105.229789">
  <ele>1583.02</ele>
  <time>2026-08-28T17:51:52Z</time>
  <course>247.22</course>
  <speed>0.02</speed>
  <fix>3d</fix>
</trkpt>
<trkpt lat="40.0713749" lon="-105.229789">
  <ele>1583.0</ele>
  <time>2026-08-28T17:51:52Z</time>
  <course>0.0</course>
  <speed>0.0</speed>
  <fix>3d</fix>
</trkpt>
<trkpt lat="40.071375" lon="-105.2297889">
  <ele>1583.01</ele>
  <time>2026-08-28T17:51:52Z</time>
  <course>247.22</course>
  <speed>0.02</speed>
  <fix>3d</fix>
</trkpt>
<trkpt lat="40.0713749" lon="-105.229789">
  <ele>1583.0</ele>
  <time>2026-08-28T17:51:52Z</time>
  <course>0.0</course>
  <speed>0.0</speed>
  <fix>3d</fix>
</trkpt>
<trkpt lat="40.071375" lon="-105.229789">
  <ele>1583.01</ele>
  <time>2026-08-28T17:51:52Z</time>
  <course>247.22</course>
  <speed>0.02</speed>
  <fix>3d</fix>
</trkpt>
<trkpt lat="40.0713749" lon="-105.229789">
  <ele>1583.0</ele>
  <time>2026-08-28T17:51:52Z</time>
  <course>0.0</course>
  <speed>0.0</speed>
  <fix>3d</fix>
</trkpt>
<trkpt lat="40.071375" lon="-105.2297889">
  <ele>1583.0</ele>
  <time>2026-08-28T17:51:52Z</time>
  <course>247.22</course>
  <speed>0.02</speed>
  <fix>3d</fix>
</trkpt>
<trkpt lat="40.0713749" lon="-105.229789">
  <ele>1583.0</ele>
  <time>2026-08-28T17:51:52Z</time>
  <course>0.0</course>
  <speed>0.0</speed>
  <fix>3d</fix>
</trkpt>
<trkpt lat="40.071375" lon="-105.229789">
  <ele>1583.0</ele>
  <time>2026-08-28T17:51:52Z</time>
  <course>247.22</course>
  <speed>0.02</speed>
  <fix>3d</fix>
</trkpt>
<trkpt lat="40.0713749" lon="-105.229789">
  <ele>1583.0</ele>
  <time>2026-08-28T17:51:52Z</time>
  <course>0.0</course>
  <speed>0.0</speed>
  <fix>3d</fix>
</trkpt>
<trkpt lat="40.071375" lon="-105.2297889">
  <ele>1583.0</ele>
  <time>2026-08-28T17:51:52Z</time>
  <course>247.22</course>
  <speed>0.02</speed>
  <fix>3d</fix>
</trkpt>
<trkpt lat="40.0713749" lon="-105.229789">
  <ele>1583.0</ele>
  <time>2026-08-28T17:51:52Z</time>
  <course>0.0</course>
  <speed>0.0</speed>
  <fix>3d</fix>
</trkpt>
<trkpt lat="40.071375" lon="-105.229789">
  <ele>1583.0</ele>
  <time>2026-08-28T17:51:52Z</time>
  <course>247.21</course>
  <speed>0.02</speed>
  <fix>3d</fix>
</trkpt>
<trkpt lat="40.0713749" lon="-105.229789">
  <ele>1583.0</ele>
  <time>2026-08-28T17:51:52Z</time>
  <course>0.0</course>
  <speed>0.0</speed>
  <fix>3d</fix>
</trkpt>
<trkpt lat="40.071375" lon="-105.2297889">
  <ele>1583.0</ele>
  <time>2026-08-28T17:51:52Z</time>
  <course>247.21</course>
  <speed>0.02</speed>
  <fix>3d</fix>
</trkpt>
<trkpt lat="40.0713749" lon="-105.229789">
  <ele>1583.0</ele>
  <time>2026-08-28T17:51:52Z</time>
  <course>0.0</course>
  <speed>0.0</speed>
  <fix>3d</fix>
</trkpt>
<trkpt lat="40.071375" lon="-105.229789">
  <ele>1583.0</ele>
  <time>2026-08-28T17:51:52Z</time>
  <course>247.21</course>
  <speed>0.02</speed>
  <fix>3d</fix>
</trkpt>
<trkpt lat="40.0713749" lon="-105.229789">
  <ele>1583.0</ele>
  <time>2026-08-28T17:51:52Z</time>
  <course>0.0</course>
  <speed>0.0</speed>
  <fix>3d</fix>
</trkpt>
<trkpt lat="40.071375" lon="-105.2297889">
  <ele>1583.0</ele>
  <time>2026-08-28T17:51:52Z</time>
  <course>247.21</course>
  <speed>0.02</speed>
  <fix>3d</fix>
</trkpt>
<trkpt lat="40.0713749" lon="-105.229789">
  <ele>1583.0</ele>
  <time>2026-08-28T17:51:52Z</time>
  <course>0.0</course>
  <speed>0.0</speed>
  <fix>3d</fix>
</trkpt>
<trkpt lat="40.071375" lon="-105.229789">
  <ele>1582.99</ele>
  <time>2026-08-28T17:51:52Z</time>
  <course>247.21</course>
  <speed>0.02</speed>
  <fix>3d</fix>
</trkpt>
<trkpt lat="40.0713749" lon="-105.229789">
  <ele>1583.0</ele>
  <time>2026-08-28T17:51:52Z</time>
  <course>0.0</course>
  <speed>0.0</speed>
  <fix>3d</fix>
</trkpt>
<trkpt lat="40.071375" lon="-105.2297889">
  <ele>1582.99</ele>
  <time>2026-08-28T17:51:52Z</time>
  <course>247.21</course>
  <speed>0.02</speed>
  <fix>3d</fix>
</trkpt>
<trkpt lat="40.0713749" lon="-105.229789">
  <ele>1583.0</ele>
  <time>2026-08-28T17:51:52Z</time>
  <course>0.0</course>
  <speed>0.0</speed>
  <fix>3d</fix>
</trkpt>
<trkpt lat="40.071375" lon="-105.229789">
  <ele>1582.99</ele>
  <time>2026-08-28T17:51:52Z</time>
  <course>247.21</course>
  <speed>0.02</speed>
  <fix>3d</fix>
</trkpt>
<trkpt lat="40.0713749" lon="-105.229789">
  <ele>1583.0</ele>
  <time>2026-08-28T17:51:52Z</time>
  <course>0.0</course>
  <speed>0.0</speed>
  <fix>3d</fix>
</trkpt>
<trkpt lat="40.071375" lon="-105.2297889">
  <ele>1582.98</ele>
  <time>2026-08-28T17:51:52Z</time>
  <course>247.21</course>
  <speed>0.02</speed>
  <fix>3d</fix>
</trkpt>
<trkpt lat="40.0713749" lon="-105.229789">
  <ele>1583.0</ele>
  <time>2026-08-28T17:51:52Z</time>
  <course>0.0</course>
  <speed>0.0</speed>
  <fix>3d</fix>
</trkpt>
<trkpt lat="40.071375" lon="-105.229789">
  <ele>1582.98</ele>
  <time>2026-08-28T17:51:53Z</time>
  <course>247.21</course>
  <speed>0.02</speed>
  <fix>3d</fix>
</trkpt>
<trkpt lat="40.0713749" lon="-105.229789">
  <ele>1583.0</ele>
  <time>2026-08-28T17:51:53Z</time>
  <course>0.0</course>
  <speed>0.0</speed>
  <fix>3d</fix>
</trkpt>
<trkpt lat="40.071375" lon="-105.229789">
  <ele>1582.98</ele>
  <time>2026-08-28T17:51:53Z</time>
  <course>247.21</course>
  <speed>0.02</speed>
  <fix>3d</fix>
</trkpt>
<trkpt lat="40.0713749" lon="-105.229789">
  <ele>1583.0</ele>
  <time>2026-08-28T17:51:53Z</time>
  <course>0.0</course>
  <speed>0.0</speed>
  <fix>3d</fix>
</trkpt>
<trkpt lat="40.071375" lon="-105.229789">
  <ele>1582.97</ele>
  <time>2026-08-28T17:51:53Z</time>
  <course>247.2</course>
  <speed>0.02</speed>
  <fix>3d</fix>
</trkpt>
<trkpt lat="40.0713749" lon="-105.229789">
  <ele>1583.0</ele>
  <time>2026-08-28T17:51:53Z</time>
  <course>0.0</course>
  <speed>0.0</speed>
  <fix>3d</fix>
</trkpt>
<trkpt lat="40.071375" lon="-105.229789">
  <ele>1582.97</ele>
  <time>2026-08-28T17:51:53Z</time>
  <course>247.2</course>
  <speed>0.01</speed>
  <fix>3d</fix>
</trkpt>
<trkpt lat="40.0713749" lon="-105.229789">
  <ele>1583.0</ele>
  <time>2026-08-28T17:51:53Z</time>
  <course>0.0</course>
  <speed>0.0</speed>
  <fix>3d</fix>
</trkpt>
<trkpt lat="40.071375" lon="-105.229789">
  <ele>1582.97</ele>
  <time>2026-08-28T17:51:53Z</time>
  <course>247.2</course>
  <speed>0.01</speed>
  <fix>3d</fix>
</trkpt>
<trkpt lat="40.0713749" lon="-105.229789">
  <ele>1583.0</ele>
  <time>2026-08-28T17:51:53Z</time>
  <course>0.0</course>
  <speed>0.0</speed>
  <fix>3d</fix>
</trkpt>
<trkpt lat="40.071375" lon="-105.229789">
  <ele>1582.96</ele>
  <time>2026-08-28T17:51:53Z</time>
  <course>247.2</course>
  <speed>0.01</speed>
  <fix>3d</fix>
</trkpt>
<trkpt lat="40.0713749" lon="-105.229789">
  <ele>1583.0</ele>
  <time>2026-08-28T17:51:53Z</time>
  <course>0.0</course>
  <speed>0.0</speed>
  <fix>3d</fix>
</trkpt>
<trkpt lat="40.071375" lon="-105.229789">
  <ele>1582.96</ele>
  <time>2026-08-28T17:51:53Z</time>
  <course>247.2</course>
  <speed>0.01</speed>
  <fix>3d</fix>
</trkpt>
<trkpt lat="40.0713749" lon="-105.229789">
  <ele>1583.0</ele>
  <time>2026-08-28T17:51:53Z</time>
  <course>0.0</course>
  <speed>0.0</speed>
  <fix>3d</fix>
</trkpt>
<trkpt lat="40.071375" lon="-105.229789">
  <ele>1582.95</ele>
  <time>2026-08-28T17:51:53Z</time>
  <course>247.2</course>
  <speed>0.01</speed>
  <fix>3d</fix>
</trkpt>
<trkpt lat="40.0713749" lon="-105.229789">
  <ele>1583.0</ele>
  <time>2026-08-28T17:51:53Z</time>
  <course>0.0</course>
  <speed>0.0</speed>
  <fix>3d</fix>
</trkpt>
<trkpt lat="40.071375" lon="-105.229789">
  <ele>1582.95</ele>
  <time>2026-08-28T17:51:53Z</time>
  <course>247.2</course>
  <speed>0.01</speed>
  <fix>3d</fix>
</trkpt>
<trkpt lat="40.0713749" lon="-105.229789">
  <ele>1583.0</ele>
  <time>2026-08-28T17:51:53Z</time>
  <course>0.0</course>
  <speed>0.0</speed>
  <fix>3d</fix>
</trkpt>
<trkpt lat="40.071375" lon="-105.229789">
  <ele>1582.95</ele>
  <time>2026-08-28T17:51:53Z</time>
  <course>247.2</course>
  <speed>0.01</speed>
  <fix>3d</fix>
</trkpt>
<trkpt lat="40.0713749" lon="-105.229789">
  <ele>1583.0</ele>
  <time>2026-08-28T17:51:53Z</time>
  <course>0.0</course>
  <speed>0.0</speed>
  <fix>3d</fix>
</trkpt>
<trkpt lat="40.071375" lon="-105.229789">
  <ele>1582.94</ele>
  <time>2026-08-28T17:51:53Z</time>
  <course>247.2</course>
  <speed>0.0</speed>
  <fix>3d</fix>
</trkpt>
<trkpt lat="40.0713749" lon="-105.229789">
  <ele>1583.0</ele>
  <time>2026-08-28T17:51:53Z</time>
  <course>0.0</course>
  <speed>0.0</speed>
  <fix>3d</fix>
</trkpt>
<trkpt lat="40.071375" lon="-105.229789">
  <ele>1582.94</ele>
  <time>2026-08-28T17:51:53Z</time>
  <course>247.2</course>
  <speed>0.0</speed>
  <fix>3d</fix>
</trkpt>
<trkpt lat="40.0713749" lon="-105.229789">
  <ele>1583.0</ele>
  <time>2026-08-28T17:51:53Z</time>
  <course>0.0</course>
  <speed>0.0</speed>
  <fix>3d</fix>
</trkpt>
<trkpt lat="40.071375" lon="-105.229789">
  <ele>1582.94</ele>
  <time>2026-08-28T17:51:53Z</time>
  <course>247.2</course>
  <speed>0.0</speed>
  <fix>3d</fix>
</trkpt>
<trkpt lat="40.0713749" lon="-105.229789">
  <ele>1583.0</ele>
  <time>2026-08-28T17:51:53Z</time>
  <course>0.0</course>
  <speed>0.0</speed>
  <fix>3d</fix>
</trkpt>
<trkpt lat="40.071375" lon="-105.229789">
  <ele>1582.94</ele>
  <time>2026-08-28T17:51:53Z</time>
  <course>247.2</course>
  <speed>0.0</speed>
  <fix>3d</fix>
</trkpt>
<trkpt lat="40.0713749" lon="-105.229789">
  <ele>1583.0</ele>
  <time>2026-08-28T17:51:53Z</time>
  <course>0.0</course>
  <speed>0.0</speed>
  <fix>3d</fix>
</trkpt>
<trkpt lat="40.071375" lon="-105.229789">
  <ele>1582.93</ele>
  <time>2026-08-28T17:51:53Z</time>
  <course>247.2</course>
  <speed>0.0</speed>
  <fix>3d</fix>
</trkpt>
<trkpt lat="40.0713749" lon="-105.229789">
  <ele>1583.0</ele>
  <time>2026-08-28T17:51:53Z</time>
  <course>0.0</course>
  <speed>0.0</speed>
  <fix>3d</fix>
</trkpt>
<trkpt lat="40.071375" lon="-105.229789">
  <ele>1582.93</ele>
  <time>2026-08-28T17:51:53Z</time>
  <course>247.19</course>
  <speed>0.0</speed>
  <fix>3d</fix>
</trkpt>
<trkpt lat="40.0713749" lon="-105.229789">
  <ele>1583.0</ele>
  <time>2026-08-28T17:51:53Z</time>
  <course>0.0</course>
  <speed>0.0</speed>
  <fix>3d</fix>
</trkpt>
<trkpt lat="40.071375" lon="-105.229789">
  <ele>1582.93</ele>
  <time>2026-08-28T17:51:53Z</time>
  <course>247.19</course>
  <speed>0.0</speed>
  <fix>3d</fix>
</trkpt>
<trkpt lat="40.0713749" lon="-105.229789">
  <ele>1583.0</ele>
  <time>2026-08-28T17:51:53Z</time>
  <course>0.0</course>
  <speed>0.0</speed>
  <fix>3d</fix>
</trkpt>
<trkpt lat="40.071375" lon="-105.229789">
  <ele>1582.93</ele>
  <time>2026-08-28T17:51:53Z</time>
  <course>247.19</course>
  <speed>0.0</speed>
  <fix>3d</fix>
</trkpt>
<trkpt lat="40.0713749" lon="-105.229789">
  <ele>1583.0</ele>
  <time>2026-08-28T17:51:53Z</time>
  <course>0.0</course>
  <speed>0.0</speed>
  <fix>3d</fix>
</trkpt>
<trkpt lat="40.071375" lon="-105.229789">
  <ele>1582.93</ele>
  <time>2026-08-28T17:51:53Z</time>
  <course>247.19</course>
  <speed>0.0</speed>
  <fix>3d</fix>
</trkpt>
<trkpt lat="40.0713749" lon="-105.229789">
  <ele>1583.0</ele>
  <time>2026-08-28T17:51:53Z</time>
  <course>0.0</course>
  <speed>0.0</speed>
  <fix>3d</fix>
</trkpt>
<trkpt lat="40.071375" lon="-105.229789">
  <ele>1582.93</ele>
  <time>2026-08-28T17:51:53Z</time>
  <course>247.19</course>
  <speed>0.0</speed>
  <fix>3d</fix>
</trkpt>
<trkpt lat="40.0713749" lon="-105.229789">
  <ele>1583.0</ele>
  <time>2026-08-28T17:51:53Z</time>
  <course>0.0</course>
  <speed>0.0</speed>
  <fix>3d</fix>
</trkpt>
<trkpt lat="40.071375" lon="-105.229789">
  <ele>1582.94</ele>
  <time>2026-08-28T17:51:53Z</time>
  <course>247.19</course>
  <speed>0.0</speed>
  <fix>3d</fix>
</trkpt>
<trkpt lat="40.0713749" lon="-105.229789">
  <ele>1583.0</ele>
  <time>2026-08-28T17:51:53Z</time>
  <course>0.0</course>
  <speed>0.0</speed>
  <fix>3d</fix>
</trkpt>
<trkpt lat="40.071375" lon="-105.229789">
  <ele>1582.94</ele>
  <time>2026-08-28T17:51:53Z</time>
  <course>247.19</course>
  <speed>0.0</speed>
  <fix>3d</fix>
</trkpt>
<trkpt lat="40.0713749" lon="-105.229789">
  <ele>1583.0</ele>
  <time>2026-08-28T17:51:53Z</time>
  <course>0.0</course>
  <speed>0.0</speed>
  <fix>3d</fix>
</trkpt>
<trkpt lat="40.071375" lon="-105.229789">
  <ele>1582.94</ele>
  <time>2026-08-28T17:51:53Z</time>
  <course>247.19</course>
  <speed>0.0</speed>
  <fix>3d</fix>
</trkpt>
<trkpt lat="40.0713749" lon="-105.229789">
  <ele>1583.0</ele>
  <time>2026-08-28T17:51:53Z</time>
  <course>0.0</course>
  <speed>0.0</speed>
  <fix>3d</fix>
</trkpt>
<trkpt lat="40.071375" lon="-105.229789">
  <ele>1582.94</ele>
  <time>2026-08-28T17:51:53Z</time>
  <course>247.19</course>
  <speed>0.0</speed>
  <fix>3d</fix>
</trkpt>
<trkpt lat="40.0713749" lon="-105.229789">
  <ele>1583.0</ele>
  <time>2026-08-28T17:51:53Z</time>
  <course>0.0</course>
  <speed>0.0</speed>
  <fix>3d</fix>
</trkpt>
<trkpt lat="40.071375" lon="-105.229789">
  <ele>1582.95</ele>
  <time>2026-08-28T17:51:53Z</time>
  <course>247.19</course>
  <speed>0.0</speed>
  <fix>3d</fix>
</trkpt>
<trkpt lat="40.0713749" lon="-105.229789">
  <ele>1583.0</ele>
  <time>2026-08-28T17:51:53Z</time>
  <course>0.0</course>
  <speed>0.0</speed>
  <fix>3d</fix>
</trkpt>
<trkpt lat="40.071375" lon="-105.229789">
  <ele>1582.95</ele>
  <time>2026-08-28T17:51:53Z</time>
  <course>247.19</course>
  <speed>0.0</speed>
  <fix>3d</fix>
</trkpt>
<trkpt lat="40.0713749" lon="-105.229789">
  <ele>1583.0</ele>
  <time>2026-08-28T17:51:53Z</time>
  <course>0.0</course>
  <speed>0.0</speed>
  <fix>3d</fix>
</trkpt>
<trkpt lat="40.071375" lon="-105.229789">
  <ele>1582.95</ele>
  <time>2026-08-28T17:51:53Z</time>
  <course>247.19</course>
  <speed>0.0</speed>
  <fix>3d</fix>
</trkpt>
<trkpt lat="40.0713749" lon="-105.229789">
  <ele>1583.0</ele>
  <time>2026-08-28T17:51:53Z</time>
  <course>0.0</course>
  <speed>0.0</speed>
  <fix>3d</fix>
</trkpt>
<trkpt lat="40.071375" lon="-105.229789">
  <ele>1582.95</ele>
  <time>2026-08-28T17:51:53Z</time>
  <course>247.19</course>
  <speed>0.0</speed>
  <fix>3d</fix>
</trkpt>
<trkpt lat="40.0713749" lon="-105.229789">
  <ele>1583.0</ele>
  <time>2026-08-28T17:51:53Z</time>
  <course>0.0</course>
  <speed>0.0</speed>
  <fix>3d</fix>
</trkpt>
<trkpt lat="40.0713749" lon="-105.229789">
  <ele>1582.95</ele>
  <time>2026-08-28T17:51:53Z</time>
  <course>247.19</course>
  <speed>0.0</speed>
  <fix>3d</fix>
</trkpt>
<trkpt lat="40.0713749" lon="-105.229789">
  <ele>1583.0</ele>
  <time>2026-08-28T17:51:53Z</time>
  <course>0.0</course>
  <speed>0.0</speed>
  <fix>3d</fix>
</trkpt>
<trkpt lat="40.0713749" lon="-105.229789">
  <ele>1582.95</ele>
  <time>2026-08-28T17:51:53Z</time>
  <course>247.18</course>
  <speed>0.0</speed>
  <fix>3d</fix>
</trkpt>
<trkpt lat="40.0713749" lon="-105.229789">
  <ele>1583.0</ele>
  <time>2026-08-28T17:51:53Z</time>
  <course>0.0</course>
  <speed>0.0</speed>
  <fix>3d</fix>
</trkpt>
<trkpt lat="40.0713749" lon="-105.229789">
  <ele>1582.95</ele>
  <time>2026-08-28T17:51:53Z</time>
  <course>247.18</course>
  <speed>0.0</speed>
  <fix>3d</fix>
</trkpt>
<trkpt lat="40.0713749" lon="-105.229789">
  <ele>1583.0</ele>
  <time>2026-08-28T17:51:53Z</time>
  <course>0.0</course>
  <speed>0.0</speed>
  <fix>3d</fix>
</trkpt>
<trkpt lat="40.071375" lon="-105.229789">
  <ele>1582.95</ele>
  <time>2026-08-28T17:51:53Z</time>
  <course>247.18</course>
  <speed>0.0</speed>
  <fix>3d</fix>
</trkpt>
<trkpt lat="40.0713749" lon="-105.229789">
  <ele>1583.0</ele>
  <time>2026-08-28T17:51:53Z</time>
  <course>0.0</course>
  <speed>0.0</speed>
  <fix>3d</fix>
</trkpt>
<trkpt lat="40.071375" lon="-105.229789">
  <ele>1582.95</ele>
  <time>2026-08-28T17:51:53Z</time>
  <course>247.18</course>
  <speed>0.0</speed>
  <fix>3d</fix>
</trkpt>
<trkpt lat="40.0713749" lon="-105.229789">
  <ele>1583.0</ele>
  <time>2026-08-28T17:51:53Z</time>
  <course>0.0</course>
  <speed>0.0</speed>
  <fix>3d</fix>
</trkpt>
<trkpt lat="40.071375" lon="-105.229789">
  <ele>1582.95</ele>
  <time>2026-08-28T17:51:53Z</time>
  <course>247.18</course>
  <speed>0.0</speed>
  <fix>3d</fix>
</trkpt>
<trkpt lat="40.0713749" lon="-105.229789">
  <ele>1583.0</ele>
  <time>2026-08-28T17:51:53Z</time>
  <course>0.0</course>
  <speed>0.0</speed>
  <fix>3d</fix>
</trkpt>
<trkpt lat="40.071375" lon="-105.229789">
  <ele>1582.96</ele>
  <time>2026-08-28T17:51:53Z</time>
  <course>247.18</course>
  <speed>0.0</speed>
  <fix>3d</fix>
</trkpt>
<trkpt lat="40.0713749" lon="-105.229789">
  <ele>1583.0</ele>
  <time>2026-08-28T17:51:53Z</time>
  <course>0.0</course>
  <speed>0.0</speed>
  <fix>3d</fix>
</trkpt>
<trkpt lat="40.071375" lon="-105.229789">
  <ele>1582.96</ele>
  <time>2026-08-28T17:51:53Z</time>
  <course>247.18</course>
  <speed>0.0</speed>
  <fix>3d</fix>
</trkpt>
<trkpt lat="40.0713749" lon="-105.229789">
  <ele>1583.0</ele>
  <time>2026-08-28T17:51:53Z</time>
  <course>0.0</course>
  <speed>0.0</speed>
  <fix>3d</fix>
</trkpt>
<trkpt lat="40.071375" lon="-105.229789">
  <ele>1582.95</ele>
  <time>2026-08-28T17:51:53Z</time>
  <course>247.18</course>
  <speed>0.0</speed>
  <fix>3d</fix>
</trkpt>
<trkpt lat="40.0713749" lon="-105.229789">
  <ele>1583.0</ele>
  <time>2026-08-28T17:51:53Z</time>
  <course>0.0</course>
  <speed>0.0</speed>
  <fix>3d</fix>
</trkpt>
<trkpt lat="40.071375" lon="-105.229789">
  <ele>1582.95</ele>
  <time>2026-08-28T17:51:53Z</time>
  <course>247.18</course>
  <speed>0.0</speed>
  <fix>3d</fix>
</trkpt>
<trkpt lat="40.0713749" lon="-105.229789">
  <ele>1583.0</ele>
  <time>2026-08-28T17:51:53Z</time>
  <course>0.0</course>
  <speed>0.0</speed>
  <fix>3d</fix>
</trkpt>
<trkpt lat="40.071375" lon="-105.229789">
  <ele>1582.95</ele>
  <time>2026-08-28T17:51:53Z</time>
  <course>247.18</course>
  <speed>0.0</speed>
  <fix>3d</fix>
</trkpt>
<trkpt lat="40.0713749" lon="-105.229789">
  <ele>1583.0</ele>
  <time>2026-08-28T17:51:53Z</time>
  <course>0.0</course>
  <speed>0.0</speed>
  <fix>3d</fix>
</trkpt>
<trkpt lat="40.071375" lon="-105.229789">
  <ele>1582.96</ele>
  <time>2026-08-28T17:51:53Z</time>
  <course>247.18</course>
  <speed>0.0</speed>
  <fix>3d</fix>
</trkpt>
<trkpt lat="40.0713749" lon="-105.229789">
  <ele>1583.0</ele>
  <time>2026-08-28T17:51:53Z</time>
  <course>0.0</course>
  <speed>0.0</speed>
  <fix>3d</fix>
</trkpt>
<trkpt lat="40.071375" lon="-105.229789">
  <ele>1582.96</ele>
  <time>2026-08-28T17:51:53Z</time>
  <course>247.18</course>
  <speed>0.0</speed>
  <fix>3d</fix>
</trkpt>
<trkpt lat="40.0713749" lon="-105.229789">
  <ele>1583.0</ele>
  <time>2026-08-28T17:51:53Z</time>
  <course>0.0</course>
  <speed>0.0</speed>
  <fix>3d</fix>
</trkpt>
<trkpt lat="40.071375" lon="-105.229789">
  <ele>1582.96</ele>
  <time>2026-08-28T17:51:53Z</time>
  <course>247.18</course>
  <speed>0.0</speed>
  <fix>3d</fix>
</trkpt>
<trkpt lat="40.0713749" lon="-105.229789">
  <ele>1583.0</ele>
  <time>2026-08-28T17:51:53Z</time>
  <course>0.0</course>
  <speed>0.0</speed>
  <fix>3d</fix>
</trkpt>
<trkpt lat="40.071375" lon="-105.229789">
  <ele>1582.96</ele>
  <time>2026-08-28T17:51:53Z</time>
  <course>247.18</course>
  <speed>0.0</speed>
  <fix>3d</fix>
</trkpt>
<trkpt lat="40.0713749" lon="-105.229789">
  <ele>1583.0</ele>
  <time>2026-08-28T17:51:53Z</time>
  <course>0.0</course>
  <speed>0.0</speed>
  <fix>3d</fix>
</trkpt>
<trkpt lat="40.071375" lon="-105.229789">
  <ele>1582.97</ele>
  <time>2026-08-28T17:51:53Z</time>
  <course>247.18</course>
  <speed>0.0</speed>
  <fix>3d</fix>
</trkpt>
<trkpt lat="40.0713749" lon="-105.229789">
  <ele>1583.0</ele>
  <time>2026-08-28T17:51:53Z</time>
  <course>0.0</course>
  <speed>0.0</speed>
  <fix>3d</fix>
</trkpt>
<trkpt lat="40.071375" lon="-105.229789">
  <ele>1582.97</ele>
  <time>2026-08-28T17:51:53Z</time>
  <course>247.18</course>
  <speed>0.0</speed>
  <fix>3d</fix>
</trkpt>
<trkpt lat="40.0713749" lon="-105.229789">
  <ele>1583.0</ele>
  <time>2026-08-28T17:51:53Z</time>
  <course>0.0</course>
  <speed>0.0</speed>
  <fix>3d</fix>
</trkpt>
<trkpt lat="40.071375" lon="-105.229789">
  <ele>1582.97</ele>
  <time>2026-08-28T17:51:53Z</time>
  <course>247.18</course>
  <speed>0.01</speed>
  <fix>3d</fix>
</trkpt>
<trkpt lat="40.0713749" lon="-105.229789">
  <ele>1583.0</ele>
  <time>2026-08-28T17:51:53Z</time>
  <course>0.0</course>
  <speed>0.0</speed>
  <fix>3d</fix>
</trkpt>
<trkpt lat="40.071375" lon="-105.229789">
  <ele>1582.96</ele>
  <time>2026-08-28T17:51:53Z</time>
  <course>247.18</course>
  <speed>0.01</speed>
  <fix>3d</fix>
</trkpt>
<trkpt lat="40.0713749" lon="-105.229789">
  <ele>1583.0</ele>
  <time>2026-08-28T17:51:53Z</time>
  <course>0.0</course>
  <speed>0.0</speed>
  <fix>3d</fix>
</trkpt>
<trkpt lat="40.071375" lon="-105.229789">
  <ele>1582.96</ele>
  <time>2026-08-28T17:51:53Z</time>
  <course>247.18</course>
  <speed>0.01</speed>
  <fix>3d</fix>
</trkpt>
<trkpt lat="40.0713749" lon="-105.229789">
  <ele>1583.0</ele>
  <time>2026-08-28T17:51:53Z</time>
  <course>0.0</course>
  <speed>0.0</speed>
  <fix>3d</fix>
</trkpt>
<trkpt lat="40.071375" lon="-105.229789">
  <ele>1582.96</ele>
  <time>2026-08-28T17:51:53Z</time>
  <course>247.18</course>
  <speed>0.01</speed>
  <fix>3d</fix>
</trkpt>
<trkpt lat="40.0713749" lon="-105.229789">
  <ele>1583.0</ele>
  <time>2026-08-28T17:51:53Z</time>
  <course>0.0</course>
  <speed>0.0</speed>
  <fix>3d</fix>
</trkpt>
<trkpt lat="40.071375" lon="-105.229789">
  <ele>1582.96</ele>
  <time>2026-08-28T17:51:53Z</time>
  <course>247.18</course>
  <speed>0.01</speed>
  <fix>3d</fix>
</trkpt>
<trkpt lat="40.0713749" lon="-105.229789">
  <ele>1583.0</ele>
  <time>2026-08-28T17:51:53Z</time>
  <course>0.0</course>
  <speed>0.0</speed>
  <fix>3d</fix>
</trkpt>
<trkpt lat="40.071375" lon="-105.229789">
  <ele>1582.95</ele>
  <time>2026-08-28T17:51:53Z</time>
  <course>247.18</course>
  <speed>0.01</speed>
  <fix>3d</fix>
</trkpt>
<trkpt lat="40.0713749" lon="-105.229789">
  <ele>1583.0</ele>
  <time>2026-08-28T17:51:53Z</time>
  <course>0.0</course>
  <speed>0.0</speed>
  <fix>3d</fix>
</trkpt>
<trkpt lat="40.071375" lon="-105.229789">
  <ele>1582.95</ele>
  <time>2026-08-28T17:51:53Z</time>
  <course>247.18</course>
  <speed>0.01</speed>
  <fix>3d</fix>
</trkpt>
<trkpt lat="40.0713749" lon="-105.229789">
  <ele>1583.0</ele>
  <time>2026-08-28T17:51:53Z</time>
  <course>0.0</course>
  <speed>0.0</speed>
  <fix>3d</fix>
</trkpt>
<trkpt lat="40.071375" lon="-105.229789">
  <ele>1582.95</ele>
  <time>2026-08-28T17:51:53Z</time>
  <course>247.18</course>
  <speed>0.01</speed>
  <fix>3d</fix>
</trkpt>
<trkpt lat="40.0713749" lon="-105.229789">
  <ele>1583.0</ele>
  <time>2026-08-28T17:51:53Z</time>
  <course>0.0</course>
  <speed>0.0</speed>
  <fix>3d</fix>
</trkpt>
<trkpt lat="40.071375" lon="-105.229789">
  <ele>1582.95</ele>
  <time>2026-08-28T17:51:53Z</time>
  <course>247.17</course>
  <speed>0.01</speed>
  <fix>3d</fix>
</trkpt>
<trkpt lat="40.0713749" lon="-105.229789">
  <ele>1583.0</ele>
  <time>2026-08-28T17:51:53Z</time>
  <course>0.0</course>
  <speed>0.0</speed>
  <fix>3d</fix>
</trkpt>
<trkpt lat="40.071375" lon="-105.229789">
  <ele>1582.94</ele>
  <time>2026-08-28T17:51:53Z</time>
  <course>247.17</course>
  <speed>0.01</speed>
  <fix>3d</fix>
</trkpt>
<trkpt lat="40.0713749" lon="-105.229789">
  <ele>1583.0</ele>
  <time>2026-08-28T17:51:53Z</time>
  <course>0.0</course>
  <speed>0.0</speed>
  <fix>3d</fix>
</trkpt>
<trkpt lat="40.071375" lon="-105.229789">
  <ele>1582.94</ele>
  <time>2026-08-28T17:51:53Z</time>
  <course>247.17</course>
  <speed>0.01</speed>
  <fix>3d</fix>
</trkpt>
<trkpt lat="40.0713749" lon="-105.229789">
  <ele>1583.0</ele>
  <time>2026-08-28T17:51:53Z</time>
  <course>0.0</course>
  <speed>0.0</speed>
  <fix>3d</fix>
</trkpt>
<trkpt lat="40.071375" lon="-105.229789">
  <ele>1582.94</ele>
  <time>2026-08-28T17:51:53Z</time>
  <course>247.17</course>
  <speed>0.01</speed>
  <fix>3d</fix>
</trkpt>
<trkpt lat="40.0713749" lon="-105.229789">
  <ele>1583.0</ele>
  <time>2026-08-28T17:51:53Z</time>
  <course>0.0</course>
  <speed>0.0</speed>
  <fix>3d</fix>
</trkpt>
<trkpt lat="40.071375" lon="-105.229789">
  <ele>1582.93</ele>
  <time>2026-08-28T17:51:53Z</time>
  <course>247.17</course>
  <speed>0.01</speed>
  <fix>3d</fix>
</trkpt>
<trkpt lat="40.0713749" lon="-105.229789">
  <ele>1583.0</ele>
  <time>2026-08-28T17:51:53Z</time>
  <course>0.0</course>
  <speed>0.0</speed>
  <fix>3d</fix>
</trkpt>
<trkpt lat="40.071375" lon="-105.229789">
  <ele>1582.93</ele>
  <time>2026-08-28T17:51:53Z</time>
  <course>247.17</course>
  <speed>0.01</speed>
  <fix>3d</fix>
</trkpt>
<trkpt lat="40.0713749" lon="-105.229789">
  <ele>1583.0</ele>
  <time>2026-08-28T17:51:53Z</time>
  <course>0.0</course>
  <speed>0.0</speed>
  <fix>3d</fix>
</trkpt>
<trkpt lat="40.071375" lon="-105.229789">
  <ele>1582.93</ele>
  <time>2026-08-28T17:51:53Z</time>
  <course>247.17</course>
  <speed>0.01</speed>
  <fix>3d</fix>
</trkpt>
<trkpt lat="40.0713749" lon="-105.229789">
  <ele>1583.0</ele>
  <time>2026-08-28T17:51:53Z</time>
  <course>0.0</course>
  <speed>0.0</speed>
  <fix>3d</fix>
</trkpt>
<trkpt lat="40.071375" lon="-105.229789">
  <ele>1582.93</ele>
  <time>2026-08-28T17:51:53Z</time>
  <course>247.17</course>
  <speed>0.01</speed>
  <fix>3d</fix>
</trkpt>
<trkpt lat="40.0713749" lon="-105.229789">
  <ele>1583.0</ele>
  <time>2026-08-28T17:51:53Z</time>
  <course>0.0</course>
  <speed>0.0</speed>
  <fix>3d</fix>
</trkpt>
<trkpt lat="40.071375" lon="-105.229789">
  <ele>1582.93</ele>
  <time>2026-08-28T17:51:53Z</time>
  <course>247.17</course>
  <speed>0.02</speed>
  <fix>3d</fix>
</trkpt>
<trkpt lat="40.0713749" lon="-105.229789">
  <ele>1583.0</ele>
  <time>2026-08-28T17:51:53Z</time>
  <course>0.0</course>
  <speed>0.0</speed>
  <fix>3d</fix>
</trkpt>
<trkpt lat="40.071375" lon="-105.229789">
  <ele>1582.93</ele>
  <time>2026-08-28T17:51:53Z</time>
  <course>247.17</course>
  <speed>0.02</speed>
  <fix>3d</fix>
</trkpt>
<trkpt lat="40.0713749" lon="-105.229789">
  <ele>1583.0</ele>
  <time>2026-08-28T17:51:53Z</time>
  <course>0.0</course>
  <speed>0.0</speed>
  <fix>3d</fix>
</trkpt>
<trkpt lat="40.071375" lon="-105.229789">
  <ele>1582.93</ele>
  <time>2026-08-28T17:51:53Z</time>
  <course>247.17</course>
  <speed>0.02</speed>
  <fix>3d</fix>
</trkpt>
<trkpt lat="40.0713749" lon="-105.229789">
  <ele>1583.0</ele>
  <time>2026-08-28T17:51:53Z</time>
  <course>0.0</course>
  <speed>0.0</speed>
  <fix>3d</fix>
</trkpt>
<trkpt lat="40.071375" lon="-105.229789">
  <ele>1582.93</ele>
  <time>2026-08-28T17:51:53Z</time>
  <course>247.17</course>
  <speed>0.02</speed>
  <fix>3d</fix>
</trkpt>
<trkpt lat="40.0713749" lon="-105.229789">
  <ele>1583.0</ele>
  <time>2026-08-28T17:51:53Z</time>
  <course>0.0</course>
  <speed>0.0</speed>
  <fix>3d</fix>
</trkpt>
<trkpt lat="40.071375" lon="-105.229789">
  <ele>1582.93</ele>
  <time>2026-08-28T17:51:53Z</time>
  <course>247.17</course>
  <speed>0.022360679774997897</speed>
  <fix>3d</fix>
</trkpt>
<trkpt lat="40.0713749" lon="-105.229789">
  <ele>1583.0</ele>
  <time>2026-08-28T17:51:53Z</time>
  <course>0.0</course>
  <speed>0.0</speed>
  <fix>3d</fix>
</trkpt>
<trkpt lat="40.071375" lon="-105.229789">
  <ele>1582.93</ele>
  <time>2026-08-28T17:51:53Z</time>
  <course>247.17</course>
  <speed>0.022360679774997897</speed>
  <fix>3d</fix>
</trkpt>
<trkpt lat="40.0713749" lon="-105.229789">
  <ele>1583.0</ele>
  <time>2026-08-28T17:51:53Z</time>
  <course>0.0</course>
  <speed>0.0</speed>
  <fix>3d</fix>
</trkpt>
<trkpt lat="40.071375" lon="-105.229789">
  <ele>1582.93</ele>
  <time>2026-08-28T17:51:53Z</time>
  <course>247.17</course>
  <speed>0.022360679774997897</speed>
  <fix>3d</fix>
</trkpt>
<trkpt lat="40.0713749" lon="-105.229789">
  <ele>1583.0</ele>
  <time>2026-08-28T17:51:53Z</time>
  <course>0.0</course>
  <speed>0.0</speed>
  <fix>3d</fix>
</trkpt>
<trkpt lat="40.071375" lon="-105.229789">
  <ele>1582.93</ele>
  <time>2026-08-28T17:51:53Z</time>
  <course>247.17</course>
  <speed>0.022360679774997897</speed>
  <fix>3d</fix>
</trkpt>
<trkpt lat="40.0713749" lon="-105.229789">
  <ele>1583.0</ele>
  <time>2026-08-28T17:51:53Z</time>
  <course>0.0</course>
  <speed>0.0</speed>
  <fix>3d</fix>
</trkpt>
<trkpt lat="40.071375" lon="-105.229789">
  <ele>1582.94</ele>
  <time>2026-08-28T17:51:53Z</time>
  <course>247.17</course>
  <speed>0.022360679774997897</speed>
  <fix>3d</fix>
</trkpt>
<trkpt lat="40.0713749" lon="-105.229789">
  <ele>1583.0</ele>
  <time>2026-08-28T17:51:53Z</time>
  <course>0.0</course>
  <speed>0.0</speed>
  <fix>3d</fix>
</trkpt>
<trkpt lat="40.071375" lon="-105.229789">
  <ele>1582.94</ele>
  <time>2026-08-28T17:51:53Z</time>
  <course>247.17</course>
  <speed>0.022360679774997897</speed>
  <fix>3d</fix>
</trkpt>
<trkpt lat="40.0713749" lon="-105.229789">
  <ele>1583.0</ele>
  <time>2026-08-28T17:51:53Z</time>
  <course>0.0</course>
  <speed>0.0</speed>
  <fix>3d</fix>
</trkpt>
<trkpt lat="40.071375" lon="-105.229789">
  <ele>1582.94</ele>
  <time>2026-08-28T17:51:53Z</time>
  <course>247.17</course>
  <speed>0.022360679774997897</speed>
  <fix>3d</fix>
</trkpt>
<trkpt lat="40.0713749" lon="-105.229789">
  <ele>1583.0</ele>
  <time>2026-08-28T17:51:53Z</time>
  <course>0.0</course>
  <speed>0.0</speed>
  <fix>3d</fix>
</trkpt>
<trkpt lat="40.071375" lon="-105.229789">
  <ele>1582.94</ele>
  <time>2026-08-28T17:51:53Z</time>
  <course>247.17</course>
  <speed>0.022360679774997897</speed>
  <fix>3d</fix>
</trkpt>
<trkpt lat="40.0713749" lon="-105.229789">
  <ele>1583.0</ele>
  <time>2026-08-28T17:51:53Z</time>
  <course>0.0</course>
  <speed>0.0</speed>
  <fix>3d</fix>
</trkpt>
<trkpt lat="40.071375" lon="-105.2297889">
  <ele>1582.93</ele>
  <time>2026-08-28T17:51:53Z</time>
  <course>247.17</course>
  <speed>0.022360679774997897</speed>
  <fix>3d</fix>
</trkpt>
<trkpt lat="40.0713749" lon="-105.229789">
  <ele>1583.0</ele>
  <time>2026-08-28T17:51:53Z</time>
  <course>0.0</course>
  <speed>0.0</speed>
  <fix>3d</fix>
</trkpt>
<trkpt lat="40.071375" lon="-105.2297889">
  <ele>1582.93</ele>
  <time>2026-08-28T17:51:53Z</time>
  <course>247.17</course>
  <speed>0.022360679774997897</speed>
  <fix>3d</fix>
</trkpt>
<trkpt lat="40.0713749" lon="-105.229789">
  <ele>1583.0</ele>
  <time>2026-08-28T17:51:53Z</time>
  <course>0.0</course>
  <speed>0.0</speed>
  <fix>3d</fix>
</trkpt>
<trkpt lat="40.071375" lon="-105.2297889">
  <ele>1582.93</ele>
  <time>2026-08-28T17:51:53Z</time>
  <course>247.17</course>
  <speed>0.022360679774997897</speed>
  <fix>3d</fix>
</trkpt>
<trkpt lat="40.0713749" lon="-105.229789">
  <ele>1583.0</ele>
  <time>2026-08-28T17:51:53Z</time>
  <course>0.0</course>
  <speed>0.0</speed>
  <fix>3d</fix>
</trkpt>
<trkpt lat="40.071375" lon="-105.2297889">
  <ele>1582.93</ele>
  <time>2026-08-28T17:51:53Z</time>
  <course>247.17</course>
  <speed>0.022360679774997897</speed>
  <fix>3d</fix>
</trkpt>
<trkpt lat="40.0713749" lon="-105.229789">
  <ele>1583.0</ele>
  <time>2026-08-28T17:51:53Z</time>
  <course>0.0</course>
  <speed>0.0</speed>
  <fix>3d</fix>
</trkpt>
<trkpt lat="40.071375" lon="-105.2297889">
  <ele>1582.93</ele>
  <time>2026-08-28T17:51:53Z</time>
  <course>247.17</course>
  <speed>0.022360679774997897</speed>
  <fix>3d</fix>
</trkpt>
<trkpt lat="40.0713749" lon="-105.229789">
  <ele>1583.0</ele>
  <time>2026-08-28T17:51:53Z</time>
  <course>0.0</course>
  <speed>0.0</speed>
  <fix>3d</fix>
</trkpt>
<trkpt lat="40.071375" lon="-105.2297889">
  <ele>1582.93</ele>
  <time>2026-08-28T17:51:53Z</time>
  <course>247.17</course>
  <speed>0.022360679774997897</speed>
  <fix>3d</fix>
</trkpt>
<trkpt lat="40.0713749" lon="-105.229789">
  <ele>1583.0</ele>
  <time>2026-08-28T17:51:53Z</time>
  <course>0.0</course>
  <speed>0.0</speed>
  <fix>3d</fix>
</trkpt>
<trkpt lat="40.0713751" lon="-105.2297889">
  <ele>1582.93</ele>
  <time>2026-08-28T17:51:53Z</time>
  <course>247.17</course>
  <speed>0.022360679774997897</speed>
  <fix>3d</fix>
</trkpt>
<trkpt lat="40.0713749" lon="-105.229789">
  <ele>1583.0</ele>
  <time>2026-08-28T17:51:53Z</time>
  <course>0.0</course>
  <speed>0.0</speed>
  <fix>3d</fix>
</trkpt>
<trkpt lat="40.0713751" lon="-105.2297889">
  <ele>1582.93</ele>
  <time>2026-08-28T17:51:53Z</time>
  <course>247.17</course>
  <speed>0.022360679774997897</speed>
  <fix>3d</fix>
</trkpt>
<trkpt lat="40.0713749" lon="-105.229789">
  <ele>1583.0</ele>
  <time>2026-08-28T17:51:53Z</time>
  <course>0.0</course>
  <speed>0.0</speed>
  <fix>3d</fix>
</trkpt>
<trkpt lat="40.0713751" lon="-105.2297889">
  <ele>1582.93</ele>
  <time>2026-08-28T17:51:53Z</time>
  <course>247.17</course>
  <speed>0.0316227766016838</speed>
  <fix>3d</fix>
</trkpt>
<trkpt lat="40.0713749" lon="-105.229789">
  <ele>1583.0</ele>
  <time>2026-08-28T17:51:53Z</time>
  <course>0.0</course>
  <speed>0.0</speed>
  <fix>3d</fix>
</trkpt>
<trkpt lat="40.0713751" lon="-105.2297889">
  <ele>1582.93</ele>
  <time>2026-08-28T17:51:53Z</time>
  <course>247.17</course>
  <speed>0.0316227766016838</speed>
  <fix>3d</fix>
</trkpt>
<trkpt lat="40.0713749" lon="-105.229789">
  <ele>1583.0</ele>
  <time>2026-08-28T17:51:53Z</time>
  <course>0.0</course>
  <speed>0.0</speed>
  <fix>3d</fix>
</trkpt>
<trkpt lat="40.0713751" lon="-105.2297889">
  <ele>1582.93</ele>
  <time>2026-08-28T17:51:53Z</time>
  <course>247.17</course>
  <speed>0.0316227766016838</speed>
  <fix>3d</fix>
</trkpt>
<trkpt lat="40.0713749" lon="-105.229789">
  <ele>1583.0</ele>
  <time>2026-08-28T17:51:53Z</time>
  <course>0.0</course>
  <speed>0.0</speed>
  <fix>3d</fix>
</trkpt>
<trkpt lat="40.0713751" lon="-105.2297889">
  <ele>1582.94</ele>
  <time>2026-08-28T17:51:53Z</time>
  <course>247.17</course>
  <speed>0.0316227766016838</speed>
  <fix>3d</fix>
</trkpt>
<trkpt lat="40.0713749" lon="-105.229789">
  <ele>1583.0</ele>
  <time>2026-08-28T17:51:53Z</time>
  <course>0.0</course>
  <speed>0.0</speed>
  <fix>3d</fix>
</trkpt>
<trkpt lat="40.0713751" lon="-105.2297889">
  <ele>1582.94</ele>
  <time>2026-08-28T17:51:53Z</time>
  <course>247.17</course>
  <speed>0.0316227766016838</speed>
  <fix>3d</fix>
</trkpt>
<trkpt lat="40.0713749" lon="-105.229789">
  <ele>1583.0</ele>
  <time>2026-08-28T17:51:53Z</time>
  <course>0.0</course>
  <speed>0.0</speed>
  <fix>3d</fix>
</trkpt>
<trkpt lat="40.0713751" lon="-105.2297889">
  <ele>1582.95</ele>
  <time>2026-08-28T17:51:53Z</time>
  <course>247.17</course>
  <speed>0.0316227766016838</speed>
  <fix>3d</fix>
</trkpt>
<trkpt lat="40.0713749" lon="-105.229789">
  <ele>1583.0</ele>
  <time>2026-08-28T17:51:53Z</time>
  <course>0.0</course>
  <speed>0.0</speed>
  <fix>3d</fix>
</trkpt>
<trkpt lat="40.0713751" lon="-105.2297889">
  <ele>1582.95</ele>
  <time>2026-08-28T17:51:53Z</time>
  <course>247.17</course>
  <speed>0.0316227766016838</speed>
  <fix>3d</fix>
</trkpt>
<trkpt lat="40.0713749" lon="-105.229789">
  <ele>1583.0</ele>
  <time>2026-08-28T17:51:53Z</time>
  <course>0.0</course>
  <speed>0.0</speed>
  <fix>3d</fix>
</trkpt>
<trkpt lat="40.0713751" lon="-105.2297889">
  <ele>1582.95</ele>
  <time>2026-08-28T17:51:53Z</time>
  <course>247.17</course>
  <speed>0.0316227766016838</speed>
  <fix>3d</fix>
</trkpt>
<trkpt lat="40.0713749" lon="-105.229789">
  <ele>1583.0</ele>
  <time>2026-08-28T17:51:53Z</time>
  <course>0.0</course>
  <speed>0.0</speed>
  <fix>3d</fix>
</trkpt>
<trkpt lat="40.0713751" lon="-105.2297889">
  <ele>1582.95</ele>
  <time>2026-08-28T17:51:53Z</time>
  <course>247.17</course>
  <speed>0.0316227766016838</speed>
  <fix>3d</fix>
</trkpt>
<trkpt lat="40.0713749" lon="-105.229789">
  <ele>1583.0</ele>
  <time>2026-08-28T17:51:53Z</time>
  <course>0.0</course>
  <speed>0.0</speed>
  <fix>3d</fix>
</trkpt>
<trkpt lat="40.0713751" lon="-105.2297889">
  <ele>1582.95</ele>
  <time>2026-08-28T17:51:53Z</time>
  <course>247.17</course>
  <speed>0.0316227766016838</speed>
  <fix>3d</fix>
</trkpt>
<trkpt lat="40.0713749" lon="-105.229789">
  <ele>1583.0</ele>
  <time>2026-08-28T17:51:53Z</time>
  <course>0.0</course>
  <speed>0.0</speed>
  <fix>3d</fix>
</trkpt>
<trkpt lat="40.0713751" lon="-105.2297889">
  <ele>1582.96</ele>
  <time>2026-08-28T17:51:53Z</time>
  <course>247.17</course>
  <speed>0.0316227766016838</speed>
  <fix>3d</fix>
</trkpt>
<trkpt lat="40.0713749" lon="-105.229789">
  <ele>1583.0</ele>
  <time>2026-08-28T17:51:53Z</time>
  <course>0.0</course>
  <speed>0.0</speed>
  <fix>3d</fix>
</trkpt>
<trkpt lat="40.0713751" lon="-105.2297889">
  <ele>1582.96</ele>
  <time>2026-08-28T17:51:53Z</time>
  <course>247.17</course>
  <speed>0.0316227766016838</speed>
  <fix>3d</fix>
</trkpt>
<trkpt lat="40.0713749" lon="-105.229789">
  <ele>1583.0</ele>
  <time>2026-08-28T17:51:53Z</time>
  <course>0.0</course>
  <speed>0.0</speed>
  <fix>3d</fix>
</trkpt>
<trkpt lat="40.0713751" lon="-105.2297889">
  <ele>1582.96</ele>
  <time>2026-08-28T17:51:53Z</time>
  <course>247.17</course>
  <speed>0.0316227766016838</speed>
  <fix>3d</fix>
</trkpt>
<trkpt lat="40.0713749" lon="-105.229789">
  <ele>1583.0</ele>
  <time>2026-08-28T17:51:53Z</time>
  <course>0.0</course>
  <speed>0.0</speed>
  <fix>3d</fix>
</trkpt>
<trkpt lat="40.0713751" lon="-105.2297889">
  <ele>1582.96</ele>
  <time>2026-08-28T17:51:53Z</time>
  <course>247.17</course>
  <speed>0.0316227766016838</speed>
  <fix>3d</fix>
</trkpt>
<trkpt lat="40.0713749" lon="-105.229789">
  <ele>1583.0</ele>
  <time>2026-08-28T17:51:53Z</time>
  <course>0.0</course>
  <speed>0.0</speed>
  <fix>3d</fix>
</trkpt>
<trkpt lat="40.0713751" lon="-105.2297889">
  <ele>1582.96</ele>
  <time>2026-08-28T17:51:53Z</time>
  <course>247.17</course>
  <speed>0.0316227766016838</speed>
  <fix>3d</fix>
</trkpt>
<trkpt lat="40.0713749" lon="-105.229789">
  <ele>1583.0</ele>
  <time>2026-08-28T17:51:53Z</time>
  <course>0.0</course>
  <speed>0.0</speed>
  <fix>3d</fix>
</trkpt>
<trkpt lat="40.0713751" lon="-105.2297889">
  <ele>1582.96</ele>
  <time>2026-08-28T17:51:53Z</time>
  <course>247.17</course>
  <speed>0.0316227766016838</speed>
  <fix>3d</fix>
</trkpt>
<trkpt lat="40.0713749" lon="-105.229789">
  <ele>1583.0</ele>
  <time>2026-08-28T17:51:53Z</time>
  <course>0.0</course>
  <speed>0.0</speed>
  <fix>3d</fix>
</trkpt>
<trkpt lat="40.0713751" lon="-105.2297889">
  <ele>1582.95</ele>
  <time>2026-08-28T17:51:53Z</time>
  <course>247.17</course>
  <speed>0.0316227766016838</speed>
  <fix>3d</fix>
</trkpt>
<trkpt lat="40.0713749" lon="-105.229789">
  <ele>1583.0</ele>
  <time>2026-08-28T17:51:53Z</time>
  <course>0.0</course>
  <speed>0.0</speed>
  <fix>3d</fix>
</trkpt>
<trkpt lat="40.0713751" lon="-105.2297889">
  <ele>1582.96</ele>
  <time>2026-08-28T17:51:53Z</time>
  <course>247.17</course>
  <speed>0.0316227766016838</speed>
  <fix>3d</fix>
</trkpt>
<trkpt lat="40.0713749" lon="-105.229789">
  <ele>1583.0</ele>
  <time>2026-08-28T17:51:53Z</time>
  <course>0.0</course>
  <speed>0.0</speed>
  <fix>3d</fix>
</trkpt>
<trkpt lat="40.0713751" lon="-105.2297889">
  <ele>1582.96</ele>
  <time>2026-08-28T17:51:53Z</time>
  <course>247.17</course>
  <speed>0.0316227766016838</speed>
  <fix>3d</fix>
</trkpt>
<trkpt lat="40.0713749" lon="-105.229789">
  <ele>1583.0</ele>
  <time>2026-08-28T17:51:53Z</time>
  <course>0.0</course>
  <speed>0.0</speed>
  <fix>3d</fix>
</trkpt>
<trkpt lat="40.0713751" lon="-105.2297889">
  <ele>1582.96</ele>
  <time>2026-08-28T17:51:53Z</time>
  <course>247.17</course>
  <speed>0.0316227766016838</speed>
  <fix>3d</fix>
</trkpt>
<trkpt lat="40.0713749" lon="-105.229789">
  <ele>1583.0</ele>
  <time>2026-08-28T17:51:53Z</time>
  <course>0.0</course>
  <speed>0.0</speed>
  <fix>3d</fix>
</trkpt>
<trkpt lat="40.0713751" lon="-105.2297889">
  <ele>1582.95</ele>
  <time>2026-08-28T17:51:53Z</time>
  <course>247.17</course>
  <speed>0.0316227766016838</speed>
  <fix>3d</fix>
</trkpt>
<trkpt lat="40.0713749" lon="-105.229789">
  <ele>1583.0</ele>
  <time>2026-08-28T17:51:53Z</time>
  <course>0.0</course>
  <speed>0.0</speed>
  <fix>3d</fix>
</trkpt>
<trkpt lat="40.0713751" lon="-105.2297889">
  <ele>1582.95</ele>
  <time>2026-08-28T17:51:53Z</time>
  <course>247.17</course>
  <speed>0.0316227766016838</speed>
  <fix>3d</fix>
</trkpt>
<trkpt lat="40.0713749" lon="-105.229789">
  <ele>1583.0</ele>
  <time>2026-08-28T17:51:53Z</time>
  <course>0.0</course>
  <speed>0.0</speed>
  <fix>3d</fix>
</trkpt>
<trkpt lat="40.0713751" lon="-105.2297889">
  <ele>1582.96</ele>
  <time>2026-08-28T17:51:53Z</time>
  <course>247.17</course>
  <speed>0.0316227766016838</speed>
  <fix>3d</fix>
</trkpt>
<trkpt lat="40.0713749" lon="-105.229789">
  <ele>1583.0</ele>
  <time>2026-08-28T17:51:53Z</time>
  <course>0.0</course>
  <speed>0.0</speed>
  <fix>3d</fix>
</trkpt>
<trkpt lat="40.0713751" lon="-105.2297889">
  <ele>1582.96</ele>
  <time>2026-08-28T17:51:53Z</time>
  <course>247.17</course>
  <speed>0.0316227766016838</speed>
  <fix>3d</fix>
</trkpt>
<trkpt lat="40.0713749" lon="-105.229789">
  <ele>1583.0</ele>
  <time>2026-08-28T17:51:53Z</time>
  <course>0.0</course>
  <speed>0.0</speed>
  <fix>3d</fix>
</trkpt>
<trkpt lat="40.0713751" lon="-105.2297889">
  <ele>1582.96</ele>
  <time>2026-08-28T17:51:53Z</time>
  <course>247.17</course>
  <speed>0.0316227766016838</speed>
  <fix>3d</fix>
</trkpt>
<trkpt lat="40.0713749" lon="-105.229789">
  <ele>1583.0</ele>
  <time>2026-08-28T17:51:53Z</time>
  <course>0.0</course>
  <speed>0.0</speed>
  <fix>3d</fix>
</trkpt>
<trkpt lat="40.0713751" lon="-105.2297889">
  <ele>1582.95</ele>
  <time>2026-08-28T17:51:53Z</time>
  <course>247.17</course>
  <speed>0.0316227766016838</speed>
  <fix>3d</fix>
</trkpt>
<trkpt lat="40.0713749" lon="-105.229789">
  <ele>1583.0</ele>
  <time>2026-08-28T17:51:53Z</time>
  <course>0.0</course>
  <speed>0.0</speed>
  <fix>3d</fix>
</trkpt>
<trkpt lat="40.0713751" lon="-105.2297889">
  <ele>1582.95</ele>
  <time>2026-08-28T17:51:53Z</time>
  <course>247.17</course>
  <speed>0.0316227766016838</speed>
  <fix>3d</fix>
</trkpt>
<trkpt lat="40.0713749" lon="-105.229789">
  <ele>1583.0</ele>
  <time>2026-08-28T17:51:53Z</time>
  <course>0.0</course>
  <speed>0.0</speed>
  <fix>3d</fix>
</trkpt>
<trkpt lat="40.0713751" lon="-105.2297889">
  <ele>1582.95</ele>
  <time>2026-08-28T17:51:53Z</time>
  <course>247.17</course>
  <speed>0.0316227766016838</speed>
  <fix>3d</fix>
</trkpt>
<trkpt lat="40.0713749" lon="-105.229789">
  <ele>1583.0</ele>
  <time>2026-08-28T17:51:53Z</time>
  <course>0.0</course>
  <speed>0.0</speed>
  <fix>3d</fix>
</trkpt>
<trkpt lat="40.0713751" lon="-105.2297889">
  <ele>1582.94</ele>
  <time>2026-08-28T17:51:53Z</time>
  <course>247.17</course>
  <speed>0.0316227766016838</speed>
  <fix>3d</fix>
</trkpt>
<trkpt lat="40.0713749" lon="-105.229789">
  <ele>1583.0</ele>
  <time>2026-08-28T17:51:53Z</time>
  <course>0.0</course>
  <speed>0.0</speed>
  <fix>3d</fix>
</trkpt>
<trkpt lat="40.0713751" lon="-105.2297889">
  <ele>1582.94</ele>
  <time>2026-08-28T17:51:53Z</time>
  <course>247.17</course>
  <speed>0.0316227766016838</speed>
  <fix>3d</fix>
</trkpt>
<trkpt lat="40.0713749" lon="-105.229789">
  <ele>1583.0</ele>
  <time>2026-08-28T17:51:53Z</time>
  <course>0.0</course>
  <speed>0.0</speed>
  <fix>3d</fix>
</trkpt>
<trkpt lat="40.0713751" lon="-105.2297889">
  <ele>1582.95</ele>
  <time>2026-08-28T17:51:53Z</time>
  <course>247.17</course>
  <speed>0.0316227766016838</speed>
  <fix>3d</fix>
</trkpt>
<trkpt lat="40.0713749" lon="-105.229789">
  <ele>1583.0</ele>
  <time>2026-08-28T17:51:53Z</time>
  <course>0.0</course>
  <speed>0.0</speed>
  <fix>3d</fix>
</trkpt>
<trkpt lat="40.0713751" lon="-105.2297889">
  <ele>1582.95</ele>
  <time>2026-08-28T17:51:53Z</time>
  <course>247.17</course>
  <speed>0.0316227766016838</speed>
  <fix>3d</fix>
</trkpt>
<trkpt lat="40.0713749" lon="-105.229789">
  <ele>1583.0</ele>
  <time>2026-08-28T17:51:53Z</time>
  <course>0.0</course>
  <speed>0.0</speed>
  <fix>3d</fix>
</trkpt>
<trkpt lat="40.0713751" lon="-105.2297889">
  <ele>1582.95</ele>
  <time>2026-08-28T17:51:53Z</time>
  <course>247.17</course>
  <speed>0.0316227766016838</speed>
  <fix>3d</fix>
</trkpt>
<trkpt lat="40.0713749" lon="-105.229789">
  <ele>1583.0</ele>
  <time>2026-08-28T17:51:53Z</time>
  <course>0.0</course>
  <speed>0.0</speed>
  <fix>3d</fix>
</trkpt>
<trkpt lat="40.0713751" lon="-105.2297889">
  <ele>1582.94</ele>
  <time>2026-08-28T17:51:53Z</time>
  <course>247.17</course>
  <speed>0.0316227766016838</speed>
  <fix>3d</fix>
</trkpt>
<trkpt lat="40.0713749" lon="-105.229789">
  <ele>1583.0</ele>
  <time>2026-08-28T17:51:53Z</time>
  <course>0.0</course>
  <speed>0.0</speed>
  <fix>3d</fix>
</trkpt>
<trkpt lat="40.0713751" lon="-105.2297889">
  <ele>1582.94</ele>
  <time>2026-08-28T17:51:53Z</time>
  <course>247.17</course>
  <speed>0.0316227766016838</speed>
  <fix>3d</fix>
</trkpt>
<trkpt lat="40.0713749" lon="-105.229789">
  <ele>1583.0</ele>
  <time>2026-08-28T17:51:53Z</time>
  <course>0.0</course>
  <speed>0.0</speed>
  <fix>3d</fix>
</trkpt>
<trkpt lat="40.0713751" lon="-105.2297889">
  <ele>1582.94</ele>
  <time>2026-08-28T17:51:53Z</time>
  <course>247.17</course>
  <speed>0.0316227766016838</speed>
  <fix>3d</fix>
</trkpt>
<trkpt lat="40.0713749" lon="-105.229789">
  <ele>1583.0</ele>
  <time>2026-08-28T17:51:53Z</time>
  <course>0.0</course>
  <speed>0.0</speed>
  <fix>3d</fix>
</trkpt>
<trkpt lat="40.0713751" lon="-105.2297889">
  <ele>1582.93</ele>
  <time>2026-08-28T17:51:53Z</time>
  <course>247.17</course>
  <speed>0.0316227766016838</speed>
  <fix>3d</fix>
</trkpt>
<trkpt lat="40.0713749" lon="-105.229789">
  <ele>1583.0</ele>
  <time>2026-08-28T17:51:53Z</time>
  <course>0.0</course>
  <speed>0.0</speed>
  <fix>3d</fix>
</trkpt>
<trkpt lat="40.0713751" lon="-105.2297889">
  <ele>1582.93</ele>
  <time>2026-08-28T17:51:53Z</time>
  <course>247.17</course>
  <speed>0.0316227766016838</speed>
  <fix>3d</fix>
</trkpt>
<trkpt lat="40.0713749" lon="-105.229789">
  <ele>1583.0</ele>
  <time>2026-08-28T17:51:53Z</time>
  <course>0.0</course>
  <speed>0.0</speed>
  <fix>3d</fix>
</trkpt>
<trkpt lat="40.0713751" lon="-105.2297889">
  <ele>1582.93</ele>
  <time>2026-08-28T17:51:53Z</time>
  <course>247.17</course>
  <speed>0.0316227766016838</speed>
  <fix>3d</fix>
</trkpt>
<trkpt lat="40.0713749" lon="-105.229789">
  <ele>1583.0</ele>
  <time>2026-08-28T17:51:53Z</time>
  <course>0.0</course>
  <speed>0.0</speed>
  <fix>3d</fix>
</trkpt>
<trkpt lat="40.0713751" lon="-105.2297889">
  <ele>1582.94</ele>
  <time>2026-08-28T17:51:53Z</time>
  <course>247.17</course>
  <speed>0.0316227766016838</speed>
  <fix>3d</fix>
</trkpt>
<trkpt lat="40.0713749" lon="-105.229789">
  <ele>1583.0</ele>
  <time>2026-08-28T17:51:53Z</time>
  <course>0.0</course>
  <speed>0.0</speed>
  <fix>3d</fix>
</trkpt>
<trkpt lat="40.0713751" lon="-105.2297889">
  <ele>1582.94</ele>
  <time>2026-08-28T17:51:53Z</time>
  <course>247.17</course>
  <speed>0.0316227766016838</speed>
  <fix>3d</fix>
</trkpt>
<trkpt lat="40.0713749" lon="-105.229789">
  <ele>1583.0</ele>
  <time>2026-08-28T17:51:53Z</time>
  <course>0.0</course>
  <speed>0.0</speed>
  <fix>3d</fix>
</trkpt>
<trkpt lat="40.0713751" lon="-105.2297889">
  <ele>1582.94</ele>
  <time>2026-08-28T17:51:53Z</time>
  <course>247.16</course>
  <speed>0.0316227766016838</speed>
  <fix>3d</fix>
</trkpt>
<trkpt lat="40.0713749" lon="-105.229789">
  <ele>1583.0</ele>
  <time>2026-08-28T17:51:53Z</time>
  <course>0.0</course>
  <speed>0.0</speed>
  <fix>3d</fix>
</trkpt>
<trkpt lat="40.0713751" lon="-105.2297889">
  <ele>1582.94</ele>
  <time>2026-08-28T17:51:53Z</time>
  <course>247.16</course>
  <speed>0.0316227766016838</speed>
  <fix>3d</fix>
</trkpt>
<trkpt lat="40.0713749" lon="-105.229789">
  <ele>1583.0</ele>
  <time>2026-08-28T17:51:53Z</time>
  <course>0.0</course>
  <speed>0.0</speed>
  <fix>3d</fix>
</trkpt>
<trkpt lat="40.0713751" lon="-105.2297889">
  <ele>1582.94</ele>
  <time>2026-08-28T17:51:53Z</time>
  <course>247.16</course>
  <speed>0.0316227766016838</speed>
  <fix>3d</fix>
</trkpt>
<trkpt lat="40.0713749" lon="-105.229789">
  <ele>1583.0</ele>
  <time>2026-08-28T17:51:53Z</time>
  <course>0.0</course>
  <speed>0.0</speed>
  <fix>3d</fix>
</trkpt>
<trkpt lat="40.0713751" lon="-105.2297889">
  <ele>1582.94</ele>
  <time>2026-08-28T17:51:53Z</time>
  <course>247.16</course>
  <speed>0.0316227766016838</speed>
  <fix>3d</fix>
</trkpt>
<trkpt lat="40.0713749" lon="-105.229789">
  <ele>1583.0</ele>
  <time>2026-08-28T17:51:53Z</time>
  <course>0.0</course>
  <speed>0.0</speed>
  <fix>3d</fix>
</trkpt>
<trkpt lat="40.0713751" lon="-105.2297889">
  <ele>1582.94</ele>
  <time>2026-08-28T17:51:53Z</time>
  <course>247.16</course>
  <speed>0.022360679774997897</speed>
  <fix>3d</fix>
</trkpt>
<trkpt lat="40.0713749" lon="-105.229789">
  <ele>1583.0</ele>
  <time>2026-08-28T17:51:53Z</time>
  <course>0.0</course>
  <speed>0.0</speed>
  <fix>3d</fix>
</trkpt>
<trkpt lat="40.0713751" lon="-105.2297889">
  <ele>1582.94</ele>
  <time>2026-08-28T17:51:53Z</time>
  <course>247.16</course>
  <speed>0.0316227766016838</speed>
  <fix>3d</fix>
</trkpt>
<trkpt lat="40.0713749" lon="-105.229789">
  <ele>1583.0</ele>
  <time>2026-08-28T17:51:53Z</time>
  <course>0.0</course>
  <speed>0.0</speed>
  <fix>3d</fix>
</trkpt>
<trkpt lat="40.0713751" lon="-105.2297889">
  <ele>1582.94</ele>
  <time>2026-08-28T17:51:53Z</time>
  <course>247.16</course>
  <speed>0.022360679774997897</speed>
  <fix>3d</fix>
</trkpt>
<trkpt lat="40.0713749" lon="-105.229789">
  <ele>1583.0</ele>
  <time>2026-08-28T17:51:53Z</time>
  <course>0.0</course>
  <speed>0.0</speed>
  <fix>3d</fix>
</trkpt>
<trkpt lat="40.0713751" lon="-105.2297889">
  <ele>1582.94</ele>
  <time>2026-08-28T17:51:53Z</time>
  <course>247.16</course>
  <speed>0.022360679774997897</speed>
  <fix>3d</fix>
</trkpt>
<trkpt lat="40.0713749" lon="-105.229789">
  <ele>1583.0</ele>
  <time>2026-08-28T17:51:53Z</time>
  <course>0.0</course>
  <speed>0.0</speed>
  <fix>3d</fix>
</trkpt>
<trkpt lat="40.0713751" lon="-105.2297889">
  <ele>1582.94</ele>
  <time>2026-08-28T17:51:53Z</time>
  <course>247.16</course>
  <speed>0.022360679774997897</speed>
  <fix>3d</fix>
</trkpt>
<trkpt lat="40.0713749" lon="-105.229789">
  <ele>1583.0</ele>
  <time>2026-08-28T17:51:53Z</time>
  <course>0.0</course>
  <speed>0.0</speed>
  <fix>3d</fix>
</trkpt>
<trkpt lat="40.0713751" lon="-105.2297889">
  <ele>1582.94</ele>
  <time>2026-08-28T17:51:53Z</time>
  <course>247.16</course>
  <speed>0.022360679774997897</speed>
  <fix>3d</fix>
</trkpt>
<trkpt lat="40.0713749" lon="-105.229789">
  <ele>1583.0</ele>
  <time>2026-08-28T17:51:53Z</time>
  <course>0.0</course>
  <speed>0.0</speed>
  <fix>3d</fix>
</trkpt>
<trkpt lat="40.0713751" lon="-105.2297889">
  <ele>1582.94</ele>
  <time>2026-08-28T17:51:53Z</time>
  <course>247.16</course>
  <speed>0.022360679774997897</speed>
  <fix>3d</fix>
</trkpt>
<trkpt lat="40.0713749" lon="-105.229789">
  <ele>1583.0</ele>
  <time>2026-08-28T17:51:53Z</time>
  <course>0.0</course>
  <speed>0.0</speed>
  <fix>3d</fix>
</trkpt>
<trkpt lat="40.0713751" lon="-105.2297889">
  <ele>1582.94</ele>
  <time>2026-08-28T17:51:53Z</time>
  <course>247.16</course>
  <speed>0.022360679774997897</speed>
  <fix>3d</fix>
</trkpt>
<trkpt lat="40.0713749" lon="-105.229789">
  <ele>1583.0</ele>
  <time>2026-08-28T17:51:53Z</time>
  <course>0.0</course>
  <speed>0.0</speed>
  <fix>3d</fix>
</trkpt>
<trkpt lat="40.0713751" lon="-105.2297889">
  <ele>1582.94</ele>
  <time>2026-08-28T17:51:53Z</time>
  <course>247.16</course>
  <speed>0.022360679774997897</speed>
  <fix>3d</fix>
</trkpt>
<trkpt lat="40.0713749" lon="-105.229789">
  <ele>1583.0</ele>
  <time>2026-08-28T17:51:53Z</time>
  <course>0.0</course>
  <speed>0.0</speed>
  <fix>3d</fix>
</trkpt>
<trkpt lat="40.0713751" lon="-105.2297889">
  <ele>1582.94</ele>
  <time>2026-08-28T17:51:53Z</time>
  <course>247.16</course>
  <speed>0.022360679774997897</speed>
  <fix>3d</fix>
</trkpt>
<trkpt lat="40.0713749" lon="-105.229789">
  <ele>1583.0</ele>
  <time>2026-08-28T17:51:53Z</time>
  <course>0.0</course>
  <speed>0.0</speed>
  <fix>3d</fix>
</trkpt>
<trkpt lat="40.0713751" lon="-105.2297889">
  <ele>1582.94</ele>
  <time>2026-08-28T17:51:53Z</time>
  <course>247.16</course>
  <speed>0.022360679774997897</speed>
  <fix>3d</fix>
</trkpt>
<trkpt lat="40.0713749" lon="-105.229789">
  <ele>1583.0</ele>
  <time>2026-08-28T17:51:53Z</time>
  <course>0.0</course>
  <speed>0.0</speed>
  <fix>3d</fix>
</trkpt>
<trkpt lat="40.0713751" lon="-105.2297889">
  <ele>1582.95</ele>
  <time>2026-08-28T17:51:53Z</time>
  <course>247.16</course>
  <speed>0.022360679774997897</speed>
  <fix>3d</fix>
</trkpt>
<trkpt lat="40.0713749" lon="-105.229789">
  <ele>1583.0</ele>
  <time>2026-08-28T17:51:53Z</time>
  <course>0.0</course>
  <speed>0.0</speed>
  <fix>3d</fix>
</trkpt>
<trkpt lat="40.0713751" lon="-105.2297889">
  <ele>1582.95</ele>
  <time>2026-08-28T17:51:53Z</time>
  <course>247.16</course>
  <speed>0.022360679774997897</speed>
  <fix>3d</fix>
</trkpt>
<trkpt lat="40.0713749" lon="-105.229789">
  <ele>1583.0</ele>
  <time>2026-08-28T17:51:53Z</time>
  <course>0.0</course>
  <speed>0.0</speed>
  <fix>3d</fix>
</trkpt>
<trkpt lat="40.0713751" lon="-105.2297889">
  <ele>1582.95</ele>
  <time>2026-08-28T17:51:53Z</time>
  <course>247.16</course>
  <speed>0.022360679774997897</speed>
  <fix>3d</fix>
</trkpt>
<trkpt lat="40.0713749" lon="-105.229789">
  <ele>1583.0</ele>
  <time>2026-08-28T17:51:53Z</time>
  <course>0.0</course>
  <speed>0.0</speed>
  <fix>3d</fix>
</trkpt>
<trkpt lat="40.0713751" lon="-105.2297889">
  <ele>1582.95</ele>
  <time>2026-08-28T17:51:53Z</time>
  <course>247.16</course>
  <speed>0.022360679774997897</speed>
  <fix>3d</fix>
</trkpt>
<trkpt lat="40.0713749" lon="-105.229789">
  <ele>1583.0</ele>
  <time>2026-08-28T17:51:53Z</time>
  <course>0.0</course>
  <speed>0.0</speed>
  <fix>3d</fix>
</trkpt>
<trkpt lat="40.0713751" lon="-105.2297889">
  <ele>1582.96</ele>
  <time>2026-08-28T17:51:53Z</time>
  <course>247.16</course>
  <speed>0.022360679774997897</speed>
  <fix>3d</fix>
</trkpt>
<trkpt lat="40.0713749" lon="-105.229789">
  <ele>1583.0</ele>
  <time>2026-08-28T17:51:53Z</time>
  <course>0.0</course>
  <speed>0.0</speed>
  <fix>3d</fix>
</trkpt>
<trkpt lat="40.0713751" lon="-105.2297889">
  <ele>1582.96</ele>
  <time>2026-08-28T17:51:53Z</time>
  <course>247.16</course>
  <speed>0.022360679774997897</speed>
  <fix>3d</fix>
</trkpt>
<trkpt lat="40.0713749" lon="-105.229789">
  <ele>1583.0</ele>
  <time>2026-08-28T17:51:53Z</time>
  <course>0.0</course>
  <speed>0.0</speed>
  <fix>3d</fix>
</trkpt>
<trkpt lat="40.0713751" lon="-105.2297889">
  <ele>1582.97</ele>
  <time>2026-08-28T17:51:53Z</time>
  <course>247.16</course>
  <speed>0.022360679774997897</speed>
  <fix>3d</fix>
</trkpt>
<trkpt lat="40.0713749" lon="-105.229789">
  <ele>1583.0</ele>
  <time>2026-08-28T17:51:53Z</time>
  <course>0.0</course>
  <speed>0.0</speed>
  <fix>3d</fix>
</trkpt>
<trkpt lat="40.0713751" lon="-105.2297889">
  <ele>1582.97</ele>
  <time>2026-08-28T17:51:53Z</time>
  <course>247.16</course>
  <speed>0.022360679774997897</speed>
  <fix>3d</fix>
</trkpt>
<trkpt lat="40.0713749" lon="-105.229789">
  <ele>1583.0</ele>
  <time>2026-08-28T17:51:53Z</time>
  <course>0.0</course>
  <speed>0.0</speed>
  <fix>3d</fix>
</trkpt>
<trkpt lat="40.0713751" lon="-105.2297889">
  <ele>1582.97</ele>
  <time>2026-08-28T17:51:53Z</time>
  <course>247.16</course>
  <speed>0.022360679774997897</speed>
  <fix>3d</fix>
</trkpt>
<trkpt lat="40.0713749" lon="-105.229789">
  <ele>1583.0</ele>
  <time>2026-08-28T17:51:53Z</time>
  <course>0.0</course>
  <speed>0.0</speed>
  <fix>3d</fix>
</trkpt>
<trkpt lat="40.0713751" lon="-105.2297889">
  <ele>1582.97</ele>
  <time>2026-08-28T17:51:53Z</time>
  <course>247.16</course>
  <speed>0.022360679774997897</speed>
  <fix>3d</fix>
</trkpt>
<trkpt lat="40.0713749" lon="-105.229789">
  <ele>1583.0</ele>
  <time>2026-08-28T17:51:53Z</time>
  <course>0.0</course>
  <speed>0.0</speed>
  <fix>3d</fix>
</trkpt>
<trkpt lat="40.0713751" lon="-105.2297889">
  <ele>1582.97</ele>
  <time>2026-08-28T17:51:53Z</time>
  <course>247.16</course>
  <speed>0.022360679774997897</speed>
  <fix>3d</fix>
</trkpt>
<trkpt lat="40.0713749" lon="-105.229789">
  <ele>1583.0</ele>
  <time>2026-08-28T17:51:53Z</time>
  <course>0.0</course>
  <speed>0.0</speed>
  <fix>3d</fix>
</trkpt>
<trkpt lat="40.0713751" lon="-105.2297889">
  <ele>1582.97</ele>
  <time>2026-08-28T17:51:53Z</time>
  <course>247.16</course>
  <speed>0.022360679774997897</speed>
  <fix>3d</fix>
</trkpt>
<trkpt lat="40.0713749" lon="-105.229789">
  <ele>1583.0</ele>
  <time>2026-08-28T17:51:53Z</time>
  <course>0.0</course>
  <speed>0.0</speed>
  <fix>3d</fix>
</trkpt>
<trkpt lat="40.0713751" lon="-105.2297889">
  <ele>1582.96</ele>
  <time>2026-08-28T17:51:53Z</time>
  <course>247.16</course>
  <speed>0.022360679774997897</speed>
  <fix>3d</fix>
</trkpt>
<trkpt lat="40.0713749" lon="-105.229789">
  <ele>1583.0</ele>
  <time>2026-08-28T17:51:53Z</time>
  <course>0.0</course>
  <speed>0.0</speed>
  <fix>3d</fix>
</trkpt>
<trkpt lat="40.0713751" lon="-105.2297889">
  <ele>1582.96</ele>
  <time>2026-08-28T17:51:54Z</time>
  <course>247.16</course>
  <speed>0.022360679774997897</speed>
  <fix>3d</fix>
</trkpt>
<trkpt lat="40.0713749" lon="-105.229789">
  <ele>1583.0</ele>
  <time>2026-08-28T17:51:54Z</time>
  <course>0.0</course>
  <speed>0.0</speed>
  <fix>3d</fix>
</trkpt>
<trkpt lat="40.0713751" lon="-105.2297889">
  <ele>1582.96</ele>
  <time>2026-08-28T17:51:54Z</time>
  <course>247.16</course>
  <speed>0.022360679774997897</speed>
  <fix>3d</fix>
</trkpt>
<trkpt lat="40.0713749" lon="-105.229789">
  <ele>1583.0</ele>
  <time>2026-08-28T17:51:54Z</time>
  <course>0.0</course>
  <speed>0.0</speed>
  <fix>3d</fix>
</trkpt>
<trkpt lat="40.0713751" lon="-105.2297889">
  <ele>1582.95</ele>
  <time>2026-08-28T17:51:54Z</time>
  <course>247.16</course>
  <speed>0.022360679774997897</speed>
  <fix>3d</fix>
</trkpt>
<trkpt lat="40.0713749" lon="-105.229789">
  <ele>1583.0</ele>
  <time>2026-08-28T17:51:54Z</time>
  <course>0.0</course>
  <speed>0.0</speed>
  <fix>3d</fix>
</trkpt>
<trkpt lat="40.0713751" lon="-105.2297889">
  <ele>1582.95</ele>
  <time>2026-08-28T17:51:54Z</time>
  <course>247.16</course>
  <speed>0.022360679774997897</speed>
  <fix>3d</fix>
</trkpt>
<trkpt lat="40.0713749" lon="-105.229789">
  <ele>1583.0</ele>
  <time>2026-08-28T17:51:54Z</time>
  <course>0.0</course>
  <speed>0.0</speed>
  <fix>3d</fix>
</trkpt>
<trkpt lat="40.0713751" lon="-105.2297889">
  <ele>1582.95</ele>
  <time>2026-08-28T17:51:54Z</time>
  <course>247.16</course>
  <speed>0.022360679774997897</speed>
  <fix>3d</fix>
</trkpt>
<trkpt lat="40.0713749" lon="-105.229789">
  <ele>1583.0</ele>
  <time>2026-08-28T17:51:54Z</time>
  <course>0.0</course>
  <speed>0.0</speed>
  <fix>3d</fix>
</trkpt>
<trkpt lat="40.0713751" lon="-105.2297889">
  <ele>1582.94</ele>
  <time>2026-08-28T17:51:54Z</time>
  <course>247.16</course>
  <speed>0.022360679774997897</speed>
  <fix>3d</fix>
</trkpt>
<trkpt lat="40.0713749" lon="-105.229789">
  <ele>1583.0</ele>
  <time>2026-08-28T17:51:54Z</time>
  <course>0.0</course>
  <speed>0.0</speed>
  <fix>3d</fix>
</trkpt>
<trkpt lat="40.0713751" lon="-105.2297889">
  <ele>1582.95</ele>
  <time>2026-08-28T17:51:54Z</time>
  <course>247.16</course>
  <speed>0.022360679774997897</speed>
  <fix>3d</fix>
</trkpt>
<trkpt lat="40.0713749" lon="-105.229789">
  <ele>1583.0</ele>
  <time>2026-08-28T17:51:54Z</time>
  <course>0.0</course>
  <speed>0.0</speed>
  <fix>3d</fix>
</trkpt>
<trkpt lat="40.0713751" lon="-105.2297889">
  <ele>1582.95</ele>
  <time>2026-08-28T17:51:54Z</time>
  <course>247.16</course>
  <speed>0.022360679774997897</speed>
  <fix>3d</fix>
</trkpt>
<trkpt lat="40.0713749" lon="-105.229789">
  <ele>1583.0</ele>
  <time>2026-08-28T17:51:54Z</time>
  <course>0.0</course>
  <speed>0.0</speed>
  <fix>3d</fix>
</trkpt>
<trkpt lat="40.0713751" lon="-105.2297889">
  <ele>1582.95</ele>
  <time>2026-08-28T17:51:54Z</time>
  <course>247.16</course>
  <speed>0.022360679774997897</speed>
  <fix>3d</fix>
</trkpt>
<trkpt lat="40.0713749" lon="-105.229789">
  <ele>1583.0</ele>
  <time>2026-08-28T17:51:54Z</time>
  <course>0.0</course>
  <speed>0.0</speed>
  <fix>3d</fix>
</trkpt>
<trkpt lat="40.0713751" lon="-105.2297889">
  <ele>1582.95</ele>
  <time>2026-08-28T17:51:54Z</time>
  <course>247.16</course>
  <speed>0.022360679774997897</speed>
  <fix>3d</fix>
</trkpt>
<trkpt lat="40.0713749" lon="-105.229789">
  <ele>1583.0</ele>
  <time>2026-08-28T17:51:54Z</time>
  <course>0.0</course>
  <speed>0.0</speed>
  <fix>3d</fix>
</trkpt>
<trkpt lat="40.0713751" lon="-105.2297889">
  <ele>1582.96</ele>
  <time>2026-08-28T17:51:54Z</time>
  <course>247.16</course>
  <speed>0.022360679774997897</speed>
  <fix>3d</fix>
</trkpt>
<trkpt lat="40.0713749" lon="-105.229789">
  <ele>1583.0</ele>
  <time>2026-08-28T17:51:54Z</time>
  <course>0.0</course>
  <speed>0.0</speed>
  <fix>3d</fix>
</trkpt>
<trkpt lat="40.0713751" lon="-105.2297889">
  <ele>1582.96</ele>
  <time>2026-08-28T17:51:54Z</time>
  <course>247.16</course>
  <speed>0.022360679774997897</speed>
  <fix>3d</fix>
</trkpt>
<trkpt lat="40.0713749" lon="-105.229789">
  <ele>1583.0</ele>
  <time>2026-08-28T17:51:54Z</time>
  <course>0.0</course>
  <speed>0.0</speed>
  <fix>3d</fix>
</trkpt>
<trkpt lat="40.0713751" lon="-105.2297889">
  <ele>1582.96</ele>
  <time>2026-08-28T17:51:54Z</time>
  <course>247.16</course>
  <speed>0.022360679774997897</speed>
  <fix>3d</fix>
</trkpt>
<trkpt lat="40.0713749" lon="-105.229789">
  <ele>1583.0</ele>
  <time>2026-08-28T17:51:54Z</time>
  <course>0.0</course>
  <speed>0.0</speed>
  <fix>3d</fix>
</trkpt>
<trkpt lat="40.0713751" lon="-105.2297889">
  <ele>1582.96</ele>
  <time>2026-08-28T17:51:54Z</time>
  <course>247.16</course>
  <speed>0.022360679774997897</speed>
  <fix>3d</fix>
</trkpt>
<trkpt lat="40.0713749" lon="-105.229789">
  <ele>1583.0</ele>
  <time>2026-08-28T17:51:54Z</time>
  <course>0.0</course>
  <speed>0.0</speed>
  <fix>3d</fix>
</trkpt>
<trkpt lat="40.0713751" lon="-105.2297889">
  <ele>1582.96</ele>
  <time>2026-08-28T17:51:54Z</time>
  <course>247.16</course>
  <speed>0.022360679774997897</speed>
  <fix>3d</fix>
</trkpt>
<trkpt lat="40.0713749" lon="-105.229789">
  <ele>1583.0</ele>
  <time>2026-08-28T17:51:54Z</time>
  <course>0.0</course>
  <speed>0.0</speed>
  <fix>3d</fix>
</trkpt>
<trkpt lat="40.0713751" lon="-105.2297889">
  <ele>1582.96</ele>
  <time>2026-08-28T17:51:54Z</time>
  <course>247.16</course>
  <speed>0.022360679774997897</speed>
  <fix>3d</fix>
</trkpt>
<trkpt lat="40.0713749" lon="-105.229789">
  <ele>1583.0</ele>
  <time>2026-08-28T17:51:54Z</time>
  <course>0.0</course>
  <speed>0.0</speed>
  <fix>3d</fix>
</trkpt>
<trkpt lat="40.0713751" lon="-105.2297889">
  <ele>1582.97</ele>
  <time>2026-08-28T17:51:54Z</time>
  <course>247.16</course>
  <speed>0.022360679774997897</speed>
  <fix>3d</fix>
</trkpt>
<trkpt lat="40.0713749" lon="-105.229789">
  <ele>1583.0</ele>
  <time>2026-08-28T17:51:54Z</time>
  <course>0.0</course>
  <speed>0.0</speed>
  <fix>3d</fix>
</trkpt>
<trkpt lat="40.0713751" lon="-105.2297889">
  <ele>1582.97</ele>
  <time>2026-08-28T17:51:54Z</time>
  <course>247.16</course>
  <speed>0.022360679774997897</speed>
  <fix>3d</fix>
</trkpt>
<trkpt lat="40.0713749" lon="-105.229789">
  <ele>1583.0</ele>
  <time>2026-08-28T17:51:54Z</time>
  <course>0.0</course>
  <speed>0.0</speed>
  <fix>3d</fix>
</trkpt>
<trkpt lat="40.0713751" lon="-105.2297889">
  <ele>1582.97</ele>
  <time>2026-08-28T17:51:54Z</time>
  <course>247.16</course>
  <speed>0.022360679774997897</speed>
  <fix>3d</fix>
</trkpt>
<trkpt lat="40.0713749" lon="-105.229789">
  <ele>1583.0</ele>
  <time>2026-08-28T17:51:54Z</time>
  <course>0.0</course>
  <speed>0.0</speed>
  <fix>3d</fix>
</trkpt>
<trkpt lat="40.0713751" lon="-105.2297889">
  <ele>1582.97</ele>
  <time>2026-08-28T17:51:54Z</time>
  <course>247.16</course>
  <speed>0.022360679774997897</speed>
  <fix>3d</fix>
</trkpt>
<trkpt lat="40.0713749" lon="-105.229789">
  <ele>1583.0</ele>
  <time>2026-08-28T17:51:54Z</time>
  <course>0.0</course>
  <speed>0.0</speed>
  <fix>3d</fix>
</trkpt>
<trkpt lat="40.0713751" lon="-105.2297889">
  <ele>1582.97</ele>
  <time>2026-08-28T17:51:54Z</time>
  <course>247.16</course>
  <speed>0.022360679774997897</speed>
  <fix>3d</fix>
</trkpt>
<trkpt lat="40.0713749" lon="-105.229789">
  <ele>1583.0</ele>
  <time>2026-08-28T17:51:54Z</time>
  <course>0.0</course>
  <speed>0.0</speed>
  <fix>3d</fix>
</trkpt>
<trkpt lat="40.0713751" lon="-105.2297889">
  <ele>1582.97</ele>
  <time>2026-08-28T17:51:54Z</time>
  <course>247.16</course>
  <speed>0.022360679774997897</speed>
  <fix>3d</fix>
</trkpt>
<trkpt lat="40.0713749" lon="-105.229789">
  <ele>1583.0</ele>
  <time>2026-08-28T17:51:54Z</time>
  <course>0.0</course>
  <speed>0.0</speed>
  <fix>3d</fix>
</trkpt>
<trkpt lat="40.0713751" lon="-105.2297889">
  <ele>1582.98</ele>
  <time>2026-08-28T17:51:54Z</time>
  <course>247.16</course>
  <speed>0.022360679774997897</speed>
  <fix>3d</fix>
</trkpt>
<trkpt lat="40.0713749" lon="-105.229789">
  <ele>1583.0</ele>
  <time>2026-08-28T17:51:54Z</time>
  <course>0.0</course>
  <speed>0.0</speed>
  <fix>3d</fix>
</trkpt>
<trkpt lat="40.0713751" lon="-105.2297889">
  <ele>1582.98</ele>
  <time>2026-08-28T17:51:54Z</time>
  <course>247.15</course>
  <speed>0.022360679774997897</speed>
  <fix>3d</fix>
</trkpt>
<trkpt lat="40.0713749" lon="-105.229789">
  <ele>1583.0</ele>
  <time>2026-08-28T17:51:54Z</time>
  <course>0.0</course>
  <speed>0.0</speed>
  <fix>3d</fix>
</trkpt>
<trkpt lat="40.0713751" lon="-105.2297889">
  <ele>1582.99</ele>
  <time>2026-08-28T17:51:54Z</time>
  <course>247.15</course>
  <speed>0.022360679774997897</speed>
  <fix>3d</fix>
</trkpt>
<trkpt lat="40.0713749" lon="-105.229789">
  <ele>1583.0</ele>
  <time>2026-08-28T17:51:54Z</time>
  <course>0.0</course>
  <speed>0.0</speed>
  <fix>3d</fix>
</trkpt>
<trkpt lat="40.0713751" lon="-105.2297889">
  <ele>1582.99</ele>
  <time>2026-08-28T17:51:54Z</time>
  <course>247.15</course>
  <speed>0.022360679774997897</speed>
  <fix>3d</fix>
</trkpt>
<trkpt lat="40.0713749" lon="-105.229789">
  <ele>1583.0</ele>
  <time>2026-08-28T17:51:54Z</time>
  <course>0.0</course>
  <speed>0.0</speed>
  <fix>3d</fix>
</trkpt>
<trkpt lat="40.0713751" lon="-105.2297889">
  <ele>1582.99</ele>
  <time>2026-08-28T17:51:54Z</time>
  <course>247.15</course>
  <speed>0.022360679774997897</speed>
  <fix>3d</fix>
</trkpt>
<trkpt lat="40.0713749" lon="-105.229789">
  <ele>1583.0</ele>
  <time>2026-08-28T17:51:54Z</time>
  <course>0.0</course>
  <speed>0.0</speed>
  <fix>3d</fix>
</trkpt>
<trkpt lat="40.0713751" lon="-105.2297889">
  <ele>1582.99</ele>
  <time>2026-08-28T17:51:54Z</time>
  <course>247.15</course>
  <speed>0.022360679774997897</speed>
  <fix>3d</fix>
</trkpt>
<trkpt lat="40.0713749" lon="-105.229789">
  <ele>1583.0</ele>
  <time>2026-08-28T17:51:54Z</time>
  <course>0.0</course>
  <speed>0.0</speed>
  <fix>3d</fix>
</trkpt>
<trkpt lat="40.0713751" lon="-105.2297889">
  <ele>1582.99</ele>
  <time>2026-08-28T17:51:54Z</time>
  <course>247.15</course>
  <speed>0.022360679774997897</speed>
  <fix>3d</fix>
</trkpt>
<trkpt lat="40.0713749" lon="-105.229789">
  <ele>1583.0</ele>
  <time>2026-08-28T17:51:54Z</time>
  <course>0.0</course>
  <speed>0.0</speed>
  <fix>3d</fix>
</trkpt>
<trkpt lat="40.0713751" lon="-105.2297889">
  <ele>1582.99</ele>
  <time>2026-08-28T17:51:54Z</time>
  <course>247.15</course>
  <speed>0.022360679774997897</speed>
  <fix>3d</fix>
</trkpt>
<trkpt lat="40.0713749" lon="-105.229789">
  <ele>1583.0</ele>
  <time>2026-08-28T17:51:54Z</time>
  <course>0.0</course>
  <speed>0.0</speed>
  <fix>3d</fix>
</trkpt>
<trkpt lat="40.0713751" lon="-105.2297889">
  <ele>1582.99</ele>
  <time>2026-08-28T17:51:54Z</time>
  <course>247.15</course>
  <speed>0.022360679774997897</speed>
  <fix>3d</fix>
</trkpt>
<trkpt lat="40.0713749" lon="-105.229789">
  <ele>1583.0</ele>
  <time>2026-08-28T17:51:54Z</time>
  <course>0.0</course>
  <speed>0.0</speed>
  <fix>3d</fix>
</trkpt>
<trkpt lat="40.0713751" lon="-105.2297889">
  <ele>1582.99</ele>
  <time>2026-08-28T17:51:54Z</time>
  <course>247.15</course>
  <speed>0.022360679774997897</speed>
  <fix>3d</fix>
</trkpt>
<trkpt lat="40.0713749" lon="-105.229789">
  <ele>1583.0</ele>
  <time>2026-08-28T17:51:54Z</time>
  <course>0.0</course>
  <speed>0.0</speed>
  <fix>3d</fix>
</trkpt>
<trkpt lat="40.0713751" lon="-105.2297889">
  <ele>1582.99</ele>
  <time>2026-08-28T17:51:54Z</time>
  <course>247.15</course>
  <speed>0.022360679774997897</speed>
  <fix>3d</fix>
</trkpt>
<trkpt lat="40.0713749" lon="-105.229789">
  <ele>1583.0</ele>
  <time>2026-08-28T17:51:54Z</time>
  <course>0.0</course>
  <speed>0.0</speed>
  <fix>3d</fix>
</trkpt>
<trkpt lat="40.0713751" lon="-105.2297889">
  <ele>1583.0</ele>
  <time>2026-08-28T17:51:54Z</time>
  <course>247.15</course>
  <speed>0.022360679774997897</speed>
  <fix>3d</fix>
</trkpt>
<trkpt lat="40.0713749" lon="-105.229789">
  <ele>1583.0</ele>
  <time>2026-08-28T17:51:54Z</time>
  <course>0.0</course>
  <speed>0.0</speed>
  <fix>3d</fix>
</trkpt>
<trkpt lat="40.0713751" lon="-105.2297889">
  <ele>1583.0</ele>
  <time>2026-08-28T17:51:54Z</time>
  <course>247.15</course>
  <speed>0.022360679774997897</speed>
  <fix>3d</fix>
</trkpt>
<trkpt lat="40.0713749" lon="-105.229789">
  <ele>1583.0</ele>
  <time>2026-08-28T17:51:54Z</time>
  <course>0.0</course>
  <speed>0.0</speed>
  <fix>3d</fix>
</trkpt>
<trkpt lat="40.0713751" lon="-105.2297889">
  <ele>1582.99</ele>
  <time>2026-08-28T17:51:54Z</time>
  <course>247.15</course>
  <speed>0.022360679774997897</speed>
  <fix>3d</fix>
</trkpt>
<trkpt lat="40.0713749" lon="-105.229789">
  <ele>1583.0</ele>
  <time>2026-08-28T17:51:54Z</time>
  <course>0.0</course>
  <speed>0.0</speed>
  <fix>3d</fix>
</trkpt>
<trkpt lat="40.0713751" lon="-105.2297889">
  <ele>1582.99</ele>
  <time>2026-08-28T17:51:54Z</time>
  <course>247.15</course>
  <speed>0.022360679774997897</speed>
  <fix>3d</fix>
</trkpt>
<trkpt lat="40.0713749" lon="-105.229789">
  <ele>1583.0</ele>
  <time>2026-08-28T17:51:54Z</time>
  <course>0.0</course>
  <speed>0.0</speed>
  <fix>3d</fix>
</trkpt>
<trkpt lat="40.0713751" lon="-105.2297889">
  <ele>1582.99</ele>
  <time>2026-08-28T17:51:54Z</time>
  <course>247.15</course>
  <speed>0.022360679774997897</speed>
  <fix>3d</fix>
</trkpt>
<trkpt lat="40.0713749" lon="-105.229789">
  <ele>1583.0</ele>
  <time>2026-08-28T17:51:54Z</time>
  <course>0.0</course>
  <speed>0.0</speed>
  <fix>3d</fix>
</trkpt>
<trkpt lat="40.0713751" lon="-105.2297889">
  <ele>1582.99</ele>
  <time>2026-08-28T17:51:54Z</time>
  <course>247.15</course>
  <speed>0.022360679774997897</speed>
  <fix>3d</fix>
</trkpt>
<trkpt lat="40.0713749" lon="-105.229789">
  <ele>1583.0</ele>
  <time>2026-08-28T17:51:54Z</time>
  <course>0.0</course>
  <speed>0.0</speed>
  <fix>3d</fix>
</trkpt>
<trkpt lat="40.0713751" lon="-105.2297889">
  <ele>1582.99</ele>
  <time>2026-08-28T17:51:54Z</time>
  <course>247.15</course>
  <speed>0.022360679774997897</speed>
  <fix>3d</fix>
</trkpt>
<trkpt lat="40.0713749" lon="-105.229789">
  <ele>1583.0</ele>
  <time>2026-08-28T17:51:54Z</time>
  <course>0.0</course>
  <speed>0.0</speed>
  <fix>3d</fix>
</trkpt>
<trkpt lat="40.0713751" lon="-105.2297889">
  <ele>1582.99</ele>
  <time>2026-08-28T17:51:54Z</time>
  <course>247.15</course>
  <speed>0.022360679774997897</speed>
  <fix>3d</fix>
</trkpt>
<trkpt lat="40.0713749" lon="-105.229789">
  <ele>1583.0</ele>
  <time>2026-08-28T17:51:54Z</time>
  <course>0.0</course>
  <speed>0.0</speed>
  <fix>3d</fix>
</trkpt>
<trkpt lat="40.0713751" lon="-105.2297889">
  <ele>1582.99</ele>
  <time>2026-08-28T17:51:54Z</time>
  <course>247.15</course>
  <speed>0.022360679774997897</speed>
  <fix>3d</fix>
</trkpt>
<trkpt lat="40.0713749" lon="-105.229789">
  <ele>1583.0</ele>
  <time>2026-08-28T17:51:54Z</time>
  <course>0.0</course>
  <speed>0.0</speed>
  <fix>3d</fix>
</trkpt>
<trkpt lat="40.0713751" lon="-105.2297889">
  <ele>1582.99</ele>
  <time>2026-08-28T17:51:54Z</time>
  <course>247.15</course>
  <speed>0.022360679774997897</speed>
  <fix>3d</fix>
</trkpt>
<trkpt lat="40.0713749" lon="-105.229789">
  <ele>1583.0</ele>
  <time>2026-08-28T17:51:54Z</time>
  <course>0.0</course>
  <speed>0.0</speed>
  <fix>3d</fix>
</trkpt>
<trkpt lat="40.0713751" lon="-105.2297889">
  <ele>1582.99</ele>
  <time>2026-08-28T17:51:54Z</time>
  <course>247.15</course>
  <speed>0.022360679774997897</speed>
  <fix>3d</fix>
</trkpt>
<trkpt lat="40.0713749" lon="-105.229789">
  <ele>1583.0</ele>
  <time>2026-08-28T17:51:54Z</time>
  <course>0.0</course>
  <speed>0.0</speed>
  <fix>3d</fix>
</trkpt>
<trkpt lat="40.0713751" lon="-105.2297889">
  <ele>1582.99</ele>
  <time>2026-08-28T17:51:54Z</time>
  <course>247.15</course>
  <speed>0.022360679774997897</speed>
  <fix>3d</fix>
</trkpt>
<trkpt lat="40.0713749" lon="-105.229789">
  <ele>1583.0</ele>
  <time>2026-08-28T17:51:54Z</time>
  <course>0.0</course>
  <speed>0.0</speed>
  <fix>3d</fix>
</trkpt>
<trkpt lat="40.0713751" lon="-105.2297889">
  <ele>1582.99</ele>
  <time>2026-08-28T17:51:54Z</time>
  <course>247.15</course>
  <speed>0.022360679774997897</speed>
  <fix>3d</fix>
</trkpt>
<trkpt lat="40.0713749" lon="-105.229789">
  <ele>1583.0</ele>
  <time>2026-08-28T17:51:54Z</time>
  <course>0.0</course>
  <speed>0.0</speed>
  <fix>3d</fix>
</trkpt>
<trkpt lat="40.0713751" lon="-105.2297889">
  <ele>1582.99</ele>
  <time>2026-08-28T17:51:54Z</time>
  <course>247.15</course>
  <speed>0.022360679774997897</speed>
  <fix>3d</fix>
</trkpt>
<trkpt lat="40.0713749" lon="-105.229789">
  <ele>1583.0</ele>
  <time>2026-08-28T17:51:54Z</time>
  <course>0.0</course>
  <speed>0.0</speed>
  <fix>3d</fix>
</trkpt>
<trkpt lat="40.0713751" lon="-105.2297889">
  <ele>1582.99</ele>
  <time>2026-08-28T17:51:54Z</time>
  <course>247.15</course>
  <speed>0.022360679774997897</speed>
  <fix>3d</fix>
</trkpt>
<trkpt lat="40.0713749" lon="-105.229789">
  <ele>1583.0</ele>
  <time>2026-08-28T17:51:54Z</time>
  <course>0.0</course>
  <speed>0.0</speed>
  <fix>3d</fix>
</trkpt>
<trkpt lat="40.0713751" lon="-105.2297889">
  <ele>1582.99</ele>
  <time>2026-08-28T17:51:54Z</time>
  <course>247.15</course>
  <speed>0.022360679774997897</speed>
  <fix>3d</fix>
</trkpt>
<trkpt lat="40.0713749" lon="-105.229789">
  <ele>1583.0</ele>
  <time>2026-08-28T17:51:54Z</time>
  <course>0.0</course>
  <speed>0.0</speed>
  <fix>3d</fix>
</trkpt>
<trkpt lat="40.0713751" lon="-105.2297889">
  <ele>1582.99</ele>
  <time>2026-08-28T17:51:54Z</time>
  <course>247.15</course>
  <speed>0.022360679774997897</speed>
  <fix>3d</fix>
</trkpt>
<trkpt lat="40.0713749" lon="-105.229789">
  <ele>1583.0</ele>
  <time>2026-08-28T17:51:54Z</time>
  <course>0.0</course>
  <speed>0.0</speed>
  <fix>3d</fix>
</trkpt>
<trkpt lat="40.0713751" lon="-105.2297889">
  <ele>1582.99</ele>
  <time>2026-08-28T17:51:54Z</time>
  <course>247.15</course>
  <speed>0.022360679774997897</speed>
  <fix>3d</fix>
</trkpt>
<trkpt lat="40.0713749" lon="-105.229789">
  <ele>1583.0</ele>
  <time>2026-08-28T17:51:54Z</time>
  <course>0.0</course>
  <speed>0.0</speed>
  <fix>3d</fix>
</trkpt>
<trkpt lat="40.0713751" lon="-105.2297889">
  <ele>1582.99</ele>
  <time>2026-08-28T17:51:54Z</time>
  <course>247.15</course>
  <speed>0.022360679774997897</speed>
  <fix>3d</fix>
</trkpt>
<trkpt lat="40.0713749" lon="-105.229789">
  <ele>1583.0</ele>
  <time>2026-08-28T17:51:54Z</time>
  <course>0.0</course>
  <speed>0.0</speed>
  <fix>3d</fix>
</trkpt>
<trkpt lat="40.0713751" lon="-105.2297889">
  <ele>1582.99</ele>
  <time>2026-08-28T17:51:54Z</time>
  <course>247.15</course>
  <speed>0.022360679774997897</speed>
  <fix>3d</fix>
</trkpt>
<trkpt lat="40.0713749" lon="-105.229789">
  <ele>1583.0</ele>
  <time>2026-08-28T17:51:54Z</time>
  <course>0.0</course>
  <speed>0.0</speed>
  <fix>3d</fix>
</trkpt>
<trkpt lat="40.0713751" lon="-105.2297889">
  <ele>1582.99</ele>
  <time>2026-08-28T17:51:54Z</time>
  <course>247.15</course>
  <speed>0.022360679774997897</speed>
  <fix>3d</fix>
</trkpt>
<trkpt lat="40.0713749" lon="-105.229789">
  <ele>1583.0</ele>
  <time>2026-08-28T17:51:54Z</time>
  <course>0.0</course>
  <speed>0.0</speed>
  <fix>3d</fix>
</trkpt>
<trkpt lat="40.0713751" lon="-105.2297889">
  <ele>1582.99</ele>
  <time>2026-08-28T17:51:54Z</time>
  <course>247.15</course>
  <speed>0.022360679774997897</speed>
  <fix>3d</fix>
</trkpt>
<trkpt lat="40.0713749" lon="-105.229789">
  <ele>1583.0</ele>
  <time>2026-08-28T17:51:54Z</time>
  <course>0.0</course>
  <speed>0.0</speed>
  <fix>3d</fix>
</trkpt>
<trkpt lat="40.0713751" lon="-105.2297889">
  <ele>1582.99</ele>
  <time>2026-08-28T17:51:54Z</time>
  <course>247.15</course>
  <speed>0.022360679774997897</speed>
  <fix>3d</fix>
</trkpt>
<trkpt lat="40.0713749" lon="-105.229789">
  <ele>1583.0</ele>
  <time>2026-08-28T17:51:54Z</time>
  <course>0.0</course>
  <speed>0.0</speed>
  <fix>3d</fix>
</trkpt>
<trkpt lat="40.0713751" lon="-105.2297889">
  <ele>1582.99</ele>
  <time>2026-08-28T17:51:54Z</time>
  <course>247.15</course>
  <speed>0.022360679774997897</speed>
  <fix>3d</fix>
</trkpt>
<trkpt lat="40.0713749" lon="-105.229789">
  <ele>1583.0</ele>
  <time>2026-08-28T17:51:54Z</time>
  <course>0.0</course>
  <speed>0.0</speed>
  <fix>3d</fix>
</trkpt>
<trkpt lat="40.0713751" lon="-105.2297889">
  <ele>1582.99</ele>
  <time>2026-08-28T17:51:54Z</time>
  <course>247.15</course>
  <speed>0.022360679774997897</speed>
  <fix>3d</fix>
</trkpt>
<trkpt lat="40.0713749" lon="-105.229789">
  <ele>1583.0</ele>
  <time>2026-08-28T17:51:54Z</time>
  <course>0.0</course>
  <speed>0.0</speed>
  <fix>3d</fix>
</trkpt>
<trkpt lat="40.0713751" lon="-105.2297889">
  <ele>1582.98</ele>
  <time>2026-08-28T17:51:54Z</time>
  <course>247.15</course>
  <speed>0.022360679774997897</speed>
  <fix>3d</fix>
</trkpt>
<trkpt lat="40.0713749" lon="-105.229789">
  <ele>1583.0</ele>
  <time>2026-08-28T17:51:54Z</time>
  <course>0.0</course>
  <speed>0.0</speed>
  <fix>3d</fix>
</trkpt>
<trkpt lat="40.0713751" lon="-105.2297889">
  <ele>1582.98</ele>
  <time>2026-08-28T17:51:54Z</time>
  <course>247.15</course>
  <speed>0.022360679774997897</speed>
  <fix>3d</fix>
</trkpt>
<trkpt lat="40.0713749" lon="-105.229789">
  <ele>1583.0</ele>
  <time>2026-08-28T17:51:54Z</time>
  <course>0.0</course>
  <speed>0.0</speed>
  <fix>3d</fix>
</trkpt>
<trkpt lat="40.0713751" lon="-105.2297889">
  <ele>1582.98</ele>
  <time>2026-08-28T17:51:54Z</time>
  <course>247.15</course>
  <speed>0.022360679774997897</speed>
  <fix>3d</fix>
</trkpt>
<trkpt lat="40.0713749" lon="-105.229789">
  <ele>1583.0</ele>
  <time>2026-08-28T17:51:54Z</time>
  <course>0.0</course>
  <speed>0.0</speed>
  <fix>3d</fix>
</trkpt>
<trkpt lat="40.0713751" lon="-105.2297889">
  <ele>1582.97</ele>
  <time>2026-08-28T17:51:54Z</time>
  <course>247.15</course>
  <speed>0.022360679774997897</speed>
  <fix>3d</fix>
</trkpt>
<trkpt lat="40.0713749" lon="-105.229789">
  <ele>1583.0</ele>
  <time>2026-08-28T17:51:54Z</time>
  <course>0.0</course>
  <speed>0.0</speed>
  <fix>3d</fix>
</trkpt>
<trkpt lat="40.0713751" lon="-105.2297889">
  <ele>1582.97</ele>
  <time>2026-08-28T17:51:54Z</time>
  <course>247.15</course>
  <speed>0.022360679774997897</speed>
  <fix>3d</fix>
</trkpt>
<trkpt lat="40.0713749" lon="-105.229789">
  <ele>1583.0</ele>
  <time>2026-08-28T17:51:54Z</time>
  <course>0.0</course>
  <speed>0.0</speed>
  <fix>3d</fix>
</trkpt>
<trkpt lat="40.0713751" lon="-105.2297889">
  <ele>1582.96</ele>
  <time>2026-08-28T17:51:54Z</time>
  <course>247.14</course>
  <speed>0.022360679774997897</speed>
  <fix>3d</fix>
</trkpt>
<trkpt lat="40.0713749" lon="-105.229789">
  <ele>1583.0</ele>
  <time>2026-08-28T17:51:54Z</time>
  <course>0.0</course>
  <speed>0.0</speed>
  <fix>3d</fix>
</trkpt>
<trkpt lat="40.0713751" lon="-105.2297889">
  <ele>1582.96</ele>
  <time>2026-08-28T17:51:54Z</time>
  <course>247.14</course>
  <speed>0.022360679774997897</speed>
  <fix>3d</fix>
</trkpt>
<trkpt lat="40.0713749" lon="-105.229789">
  <ele>1583.0</ele>
  <time>2026-08-28T17:51:54Z</time>
  <course>0.0</course>
  <speed>0.0</speed>
  <fix>3d</fix>
</trkpt>
<trkpt lat="40.0713751" lon="-105.2297889">
  <ele>1582.96</ele>
  <time>2026-08-28T17:51:54Z</time>
  <course>247.14</course>
  <speed>0.022360679774997897</speed>
  <fix>3d</fix>
</trkpt>
<trkpt lat="40.0713749" lon="-105.229789">
  <ele>1583.0</ele>
  <time>2026-08-28T17:51:54Z</time>
  <course>0.0</course>
  <speed>0.0</speed>
  <fix>3d</fix>
</trkpt>
<trkpt lat="40.0713751" lon="-105.2297889">
  <ele>1582.96</ele>
  <time>2026-08-28T17:51:54Z</time>
  <course>247.14</course>
  <speed>0.022360679774997897</speed>
  <fix>3d</fix>
</trkpt>
<trkpt lat="40.0713749" lon="-105.229789">
  <ele>1583.0</ele>
  <time>2026-08-28T17:51:54Z</time>
  <course>0.0</course>
  <speed>0.0</speed>
  <fix>3d</fix>
</trkpt>
<trkpt lat="40.0713751" lon="-105.2297889">
  <ele>1582.96</ele>
  <time>2026-08-28T17:51:54Z</time>
  <course>247.14</course>
  <speed>0.022360679774997897</speed>
  <fix>3d</fix>
</trkpt>
<trkpt lat="40.0713749" lon="-105.229789">
  <ele>1583.0</ele>
  <time>2026-08-28T17:51:54Z</time>
  <course>0.0</course>
  <speed>0.0</speed>
  <fix>3d</fix>
</trkpt>
<trkpt lat="40.0713751" lon="-105.2297889">
  <ele>1582.96</ele>
  <time>2026-08-28T17:51:54Z</time>
  <course>247.14</course>
  <speed>0.022360679774997897</speed>
  <fix>3d</fix>
</trkpt>
<trkpt lat="40.0713749" lon="-105.229789">
  <ele>1583.0</ele>
  <time>2026-08-28T17:51:54Z</time>
  <course>0.0</course>
  <speed>0.0</speed>
  <fix>3d</fix>
</trkpt>
<trkpt lat="40.0713751" lon="-105.2297889">
  <ele>1582.96</ele>
  <time>2026-08-28T17:51:54Z</time>
  <course>247.14</course>
  <speed>0.022360679774997897</speed>
  <fix>3d</fix>
</trkpt>
<trkpt lat="40.0713749" lon="-105.229789">
  <ele>1583.0</ele>
  <time>2026-08-28T17:51:54Z</time>
  <course>0.0</course>
  <speed>0.0</speed>
  <fix>3d</fix>
</trkpt>
<trkpt lat="40.0713751" lon="-105.2297889">
  <ele>1582.96</ele>
  <time>2026-08-28T17:51:54Z</time>
  <course>247.14</course>
  <speed>0.022360679774997897</speed>
  <fix>3d</fix>
</trkpt>
<trkpt lat="40.0713749" lon="-105.229789">
  <ele>1583.0</ele>
  <time>2026-08-28T17:51:54Z</time>
  <course>0.0</course>
  <speed>0.0</speed>
  <fix>3d</fix>
</trkpt>
<trkpt lat="40.0713751" lon="-105.2297889">
  <ele>1582.96</ele>
  <time>2026-08-28T17:51:54Z</time>
  <course>247.14</course>
  <speed>0.022360679774997897</speed>
  <fix>3d</fix>
</trkpt>
<trkpt lat="40.0713749" lon="-105.229789">
  <ele>1583.0</ele>
  <time>2026-08-28T17:51:54Z</time>
  <course>0.0</course>
  <speed>0.0</speed>
  <fix>3d</fix>
</trkpt>
<trkpt lat="40.0713751" lon="-105.2297889">
  <ele>1582.96</ele>
  <time>2026-08-28T17:51:54Z</time>
  <course>247.14</course>
  <speed>0.022360679774997897</speed>
  <fix>3d</fix>
</trkpt>
<trkpt lat="40.0713749" lon="-105.229789">
  <ele>1583.0</ele>
  <time>2026-08-28T17:51:54Z</time>
  <course>0.0</course>
  <speed>0.0</speed>
  <fix>3d</fix>
</trkpt>
<trkpt lat="40.0713751" lon="-105.2297889">
  <ele>1582.95</ele>
  <time>2026-08-28T17:51:54Z</time>
  <course>247.14</course>
  <speed>0.022360679774997897</speed>
  <fix>3d</fix>
</trkpt>
<trkpt lat="40.0713749" lon="-105.229789">
  <ele>1583.0</ele>
  <time>2026-08-28T17:51:54Z</time>
  <course>0.0</course>
  <speed>0.0</speed>
  <fix>3d</fix>
</trkpt>
<trkpt lat="40.0713751" lon="-105.2297889">
  <ele>1582.95</ele>
  <time>2026-08-28T17:51:54Z</time>
  <course>247.14</course>
  <speed>0.022360679774997897</speed>
  <fix>3d</fix>
</trkpt>
<trkpt lat="40.0713749" lon="-105.229789">
  <ele>1583.0</ele>
  <time>2026-08-28T17:51:54Z</time>
  <course>0.0</course>
  <speed>0.0</speed>
  <fix>3d</fix>
</trkpt>
<trkpt lat="40.0713751" lon="-105.2297889">
  <ele>1582.95</ele>
  <time>2026-08-28T17:51:54Z</time>
  <course>247.14</course>
  <speed>0.022360679774997897</speed>
  <fix>3d</fix>
</trkpt>
<trkpt lat="40.0713749" lon="-105.229789">
  <ele>1583.0</ele>
  <time>2026-08-28T17:51:54Z</time>
  <course>0.0</course>
  <speed>0.0</speed>
  <fix>3d</fix>
</trkpt>
<trkpt lat="40.0713751" lon="-105.2297889">
  <ele>1582.94</ele>
  <time>2026-08-28T17:51:54Z</time>
  <course>247.14</course>
  <speed>0.022360679774997897</speed>
  <fix>3d</fix>
</trkpt>
<trkpt lat="40.0713749" lon="-105.229789">
  <ele>1583.0</ele>
  <time>2026-08-28T17:51:54Z</time>
  <course>0.0</course>
  <speed>0.0</speed>
  <fix>3d</fix>
</trkpt>
<trkpt lat="40.0713751" lon="-105.2297889">
  <ele>1582.94</ele>
  <time>2026-08-28T17:51:54Z</time>
  <course>247.14</course>
  <speed>0.022360679774997897</speed>
  <fix>3d</fix>
</trkpt>
<trkpt lat="40.0713749" lon="-105.229789">
  <ele>1583.0</ele>
  <time>2026-08-28T17:51:54Z</time>
  <course>0.0</course>
  <speed>0.0</speed>
  <fix>3d</fix>
</trkpt>
<trkpt lat="40.0713751" lon="-105.2297889">
  <ele>1582.94</ele>
  <time>2026-08-28T17:51:54Z</time>
  <course>247.14</course>
  <speed>0.022360679774997897</speed>
  <fix>3d</fix>
</trkpt>
<trkpt lat="40.0713749" lon="-105.229789">
  <ele>1583.0</ele>
  <time>2026-08-28T17:51:54Z</time>
  <course>0.0</course>
  <speed>0.0</speed>
  <fix>3d</fix>
</trkpt>
<trkpt lat="40.0713751" lon="-105.2297889">
  <ele>1582.93</ele>
  <time>2026-08-28T17:51:54Z</time>
  <course>247.14</course>
  <speed>0.022360679774997897</speed>
  <fix>3d</fix>
</trkpt>
<trkpt lat="40.0713749" lon="-105.229789">
  <ele>1583.0</ele>
  <time>2026-08-28T17:51:54Z</time>
  <course>0.0</course>
  <speed>0.0</speed>
  <fix>3d</fix>
</trkpt>
<trkpt lat="40.0713751" lon="-105.2297889">
  <ele>1582.93</ele>
  <time>2026-08-28T17:51:54Z</time>
  <course>247.14</course>
  <speed>0.022360679774997897</speed>
  <fix>3d</fix>
</trkpt>
<trkpt lat="40.0713749" lon="-105.229789">
  <ele>1583.0</ele>
  <time>2026-08-28T17:51:54Z</time>
  <course>0.0</course>
  <speed>0.0</speed>
  <fix>3d</fix>
</trkpt>
<trkpt lat="40.0713751" lon="-105.2297889">
  <ele>1582.93</ele>
  <time>2026-08-28T17:51:54Z</time>
  <course>247.14</course>
  <speed>0.022360679774997897</speed>
  <fix>3d</fix>
</trkpt>
<trkpt lat="40.0713749" lon="-105.229789">
  <ele>1583.0</ele>
  <time>2026-08-28T17:51:54Z</time>
  <course>0.0</course>
  <speed>0.0</speed>
  <fix>3d</fix>
</trkpt>
<trkpt lat="40.0713751" lon="-105.2297889">
  <ele>1582.93</ele>
  <time>2026-08-28T17:51:54Z</time>
  <course>247.14</course>
  <speed>0.022360679774997897</speed>
  <fix>3d</fix>
</trkpt>
<trkpt lat="40.0713749" lon="-105.229789">
  <ele>1583.0</ele>
  <time>2026-08-28T17:51:54Z</time>
  <course>0.0</course>
  <speed>0.0</speed>
  <fix>3d</fix>
</trkpt>
<trkpt lat="40.0713751" lon="-105.2297889">
  <ele>1582.93</ele>
  <time>2026-08-28T17:51:54Z</time>
  <course>247.14</course>
  <speed>0.022360679774997897</speed>
  <fix>3d</fix>
</trkpt>
<trkpt lat="40.0713749" lon="-105.229789">
  <ele>1583.0</ele>
  <time>2026-08-28T17:51:54Z</time>
  <course>0.0</course>
  <speed>0.0</speed>
  <fix>3d</fix>
</trkpt>
<trkpt lat="40.0713751" lon="-105.2297889">
  <ele>1582.93</ele>
  <time>2026-08-28T17:51:54Z</time>
  <course>247.14</course>
  <speed>0.022360679774997897</speed>
  <fix>3d</fix>
</trkpt>
<trkpt lat="40.0713749" lon="-105.229789">
  <ele>1583.0</ele>
  <time>2026-08-28T17:51:54Z</time>
  <course>0.0</course>
  <speed>0.0</speed>
  <fix>3d</fix>
</trkpt>
<trkpt lat="40.0713751" lon="-105.2297889">
  <ele>1582.93</ele>
  <time>2026-08-28T17:51:54Z</time>
  <course>247.14</course>
  <speed>0.022360679774997897</speed>
  <fix>3d</fix>
</trkpt>
<trkpt lat="40.0713749" lon="-105.229789">
  <ele>1583.0</ele>
  <time>2026-08-28T17:51:54Z</time>
  <course>0.0</course>
  <speed>0.0</speed>
  <fix>3d</fix>
</trkpt>
<trkpt lat="40.0713751" lon="-105.2297889">
  <ele>1582.93</ele>
  <time>2026-08-28T17:51:54Z</time>
  <course>247.14</course>
  <speed>0.022360679774997897</speed>
  <fix>3d</fix>
</trkpt>
<trkpt lat="40.0713749" lon="-105.229789">
  <ele>1583.0</ele>
  <time>2026-08-28T17:51:54Z</time>
  <course>0.0</course>
  <speed>0.0</speed>
  <fix>3d</fix>
</trkpt>
<trkpt lat="40.0713751" lon="-105.2297889">
  <ele>1582.93</ele>
  <time>2026-08-28T17:51:54Z</time>
  <course>247.14</course>
  <speed>0.022360679774997897</speed>
  <fix>3d</fix>
</trkpt>
<trkpt lat="40.0713749" lon="-105.229789">
  <ele>1583.0</ele>
  <time>2026-08-28T17:51:54Z</time>
  <course>0.0</course>
  <speed>0.0</speed>
  <fix>3d</fix>
</trkpt>
<trkpt lat="40.0713751" lon="-105.2297889">
  <ele>1582.92</ele>
  <time>2026-08-28T17:51:54Z</time>
  <course>247.14</course>
  <speed>0.022360679774997897</speed>
  <fix>3d</fix>
</trkpt>
<trkpt lat="40.0713749" lon="-105.229789">
  <ele>1583.0</ele>
  <time>2026-08-28T17:51:54Z</time>
  <course>0.0</course>
  <speed>0.0</speed>
  <fix>3d</fix>
</trkpt>
<trkpt lat="40.0713751" lon="-105.2297889">
  <ele>1582.92</ele>
  <time>2026-08-28T17:51:54Z</time>
  <course>247.14</course>
  <speed>0.022360679774997897</speed>
  <fix>3d</fix>
</trkpt>
<trkpt lat="40.0713749" lon="-105.229789">
  <ele>1583.0</ele>
  <time>2026-08-28T17:51:54Z</time>
  <course>0.0</course>
  <speed>0.0</speed>
  <fix>3d</fix>
</trkpt>
<trkpt lat="40.0713751" lon="-105.2297889">
  <ele>1582.92</ele>
  <time>2026-08-28T17:51:54Z</time>
  <course>247.14</course>
  <speed>0.022360679774997897</speed>
  <fix>3d</fix>
</trkpt>
<trkpt lat="40.0713749" lon="-105.229789">
  <ele>1583.0</ele>
  <time>2026-08-28T17:51:54Z</time>
  <course>0.0</course>
  <speed>0.0</speed>
  <fix>3d</fix>
</trkpt>
<trkpt lat="40.0713751" lon="-105.2297889">
  <ele>1582.92</ele>
  <time>2026-08-28T17:51:54Z</time>
  <course>247.14</course>
  <speed>0.022360679774997897</speed>
  <fix>3d</fix>
</trkpt>
<trkpt lat="40.0713749" lon="-105.229789">
  <ele>1583.0</ele>
  <time>2026-08-28T17:51:54Z</time>
  <course>0.0</course>
  <speed>0.0</speed>
  <fix>3d</fix>
</trkpt>
<trkpt lat="40.0713751" lon="-105.2297889">
  <ele>1582.92</ele>
  <time>2026-08-28T17:51:54Z</time>
  <course>247.14</course>
  <speed>0.022360679774997897</speed>
  <fix>3d</fix>
</trkpt>
<trkpt lat="40.0713749" lon="-105.229789">
  <ele>1583.0</ele>
  <time>2026-08-28T17:51:54Z</time>
  <course>0.0</course>
  <speed>0.0</speed>
  <fix>3d</fix>
</trkpt>
<trkpt lat="40.0713751" lon="-105.2297889">
  <ele>1582.92</ele>
  <time>2026-08-28T17:51:54Z</time>
  <course>247.14</course>
  <speed>0.022360679774997897</speed>
  <fix>3d</fix>
</trkpt>
<trkpt lat="40.0713749" lon="-105.229789">
  <ele>1583.0</ele>
  <time>2026-08-28T17:51:54Z</time>
  <course>0.0</course>
  <speed>0.0</speed>
  <fix>3d</fix>
</trkpt>
<trkpt lat="40.0713751" lon="-105.2297889">
  <ele>1582.92</ele>
  <time>2026-08-28T17:51:54Z</time>
  <course>247.14</course>
  <speed>0.022360679774997897</speed>
  <fix>3d</fix>
</trkpt>
<trkpt lat="40.0713749" lon="-105.229789">
  <ele>1583.0</ele>
  <time>2026-08-28T17:51:54Z</time>
  <course>0.0</course>
  <speed>0.0</speed>
  <fix>3d</fix>
</trkpt>
<trkpt lat="40.0713751" lon="-105.2297889">
  <ele>1582.92</ele>
  <time>2026-08-28T17:51:54Z</time>
  <course>247.14</course>
  <speed>0.022360679774997897</speed>
  <fix>3d</fix>
</trkpt>
<trkpt lat="40.0713749" lon="-105.229789">
  <ele>1583.0</ele>
  <time>2026-08-28T17:51:54Z</time>
  <course>0.0</course>
  <speed>0.0</speed>
  <fix>3d</fix>
</trkpt>
<trkpt lat="40.0713751" lon="-105.2297889">
  <ele>1582.92</ele>
  <time>2026-08-28T17:51:54Z</time>
  <course>247.14</course>
  <speed>0.022360679774997897</speed>
  <fix>3d</fix>
</trkpt>
<trkpt lat="40.0713749" lon="-105.229789">
  <ele>1583.0</ele>
  <time>2026-08-28T17:51:54Z</time>
  <course>0.0</course>
  <speed>0.0</speed>
  <fix>3d</fix>
</trkpt>
<trkpt lat="40.0713751" lon="-105.2297889">
  <ele>1582.92</ele>
  <time>2026-08-28T17:51:54Z</time>
  <course>247.14</course>
  <speed>0.022360679774997897</speed>
  <fix>3d</fix>
</trkpt>
<trkpt lat="40.0713749" lon="-105.229789">
  <ele>1583.0</ele>
  <time>2026-08-28T17:51:54Z</time>
  <course>0.0</course>
  <speed>0.0</speed>
  <fix>3d</fix>
</trkpt>
<trkpt lat="40.0713751" lon="-105.2297889">
  <ele>1582.92</ele>
  <time>2026-08-28T17:51:54Z</time>
  <course>247.14</course>
  <speed>0.022360679774997897</speed>
  <fix>3d</fix>
</trkpt>
<trkpt lat="40.0713749" lon="-105.229789">
  <ele>1583.0</ele>
  <time>2026-08-28T17:51:54Z</time>
  <course>0.0</course>
  <speed>0.0</speed>
  <fix>3d</fix>
</trkpt>
<trkpt lat="40.0713751" lon="-105.2297889">
  <ele>1582.92</ele>
  <time>2026-08-28T17:51:54Z</time>
  <course>247.14</course>
  <speed>0.022360679774997897</speed>
  <fix>3d</fix>
</trkpt>
<trkpt lat="40.0713749" lon="-105.229789">
  <ele>1583.0</ele>
  <time>2026-08-28T17:51:54Z</time>
  <course>0.0</course>
  <speed>0.0</speed>
  <fix>3d</fix>
</trkpt>
<trkpt lat="40.0713751" lon="-105.2297889">
  <ele>1582.92</ele>
  <time>2026-08-28T17:51:54Z</time>
  <course>247.14</course>
  <speed>0.022360679774997897</speed>
  <fix>3d</fix>
</trkpt>
<trkpt lat="40.0713749" lon="-105.229789">
  <ele>1583.0</ele>
  <time>2026-08-28T17:51:54Z</time>
  <course>0.0</course>
  <speed>0.0</speed>
  <fix>3d</fix>
</trkpt>
<trkpt lat="40.0713751" lon="-105.2297889">
  <ele>1582.92</ele>
  <time>2026-08-28T17:51:54Z</time>
  <course>247.14</course>
  <speed>0.022360679774997897</speed>
  <fix>3d</fix>
</trkpt>
<trkpt lat="40.0713749" lon="-105.229789">
  <ele>1583.0</ele>
  <time>2026-08-28T17:51:54Z</time>
  <course>0.0</course>
  <speed>0.0</speed>
  <fix>3d</fix>
</trkpt>
<trkpt lat="40.0713751" lon="-105.2297889">
  <ele>1582.92</ele>
  <time>2026-08-28T17:51:54Z</time>
  <course>247.14</course>
  <speed>0.022360679774997897</speed>
  <fix>3d</fix>
</trkpt>
<trkpt lat="40.0713749" lon="-105.229789">
  <ele>1583.0</ele>
  <time>2026-08-28T17:51:54Z</time>
  <course>0.0</course>
  <speed>0.0</speed>
  <fix>3d</fix>
</trkpt>
<trkpt lat="40.0713751" lon="-105.2297889">
  <ele>1582.92</ele>
  <time>2026-08-28T17:51:54Z</time>
  <course>247.14</course>
  <speed>0.022360679774997897</speed>
  <fix>3d</fix>
</trkpt>
<trkpt lat="40.0713749" lon="-105.229789">
  <ele>1583.0</ele>
  <time>2026-08-28T17:51:54Z</time>
  <course>0.0</course>
  <speed>0.0</speed>
  <fix>3d</fix>
</trkpt>
<trkpt lat="40.0713751" lon="-105.2297889">
  <ele>1582.92</ele>
  <time>2026-08-28T17:51:54Z</time>
  <course>247.14</course>
  <speed>0.022360679774997897</speed>
  <fix>3d</fix>
</trkpt>
<trkpt lat="40.0713749" lon="-105.229789">
  <ele>1583.0</ele>
  <time>2026-08-28T17:51:54Z</time>
  <course>0.0</course>
  <speed>0.0</speed>
  <fix>3d</fix>
</trkpt>
<trkpt lat="40.0713751" lon="-105.2297889">
  <ele>1582.92</ele>
  <time>2026-08-28T17:51:54Z</time>
  <course>247.14</course>
  <speed>0.022360679774997897</speed>
  <fix>3d</fix>
</trkpt>
<trkpt lat="40.0713749" lon="-105.229789">
  <ele>1583.0</ele>
  <time>2026-08-28T17:51:54Z</time>
  <course>0.0</course>
  <speed>0.0</speed>
  <fix>3d</fix>
</trkpt>
<trkpt lat="40.0713751" lon="-105.2297889">
  <ele>1582.92</ele>
  <time>2026-08-28T17:51:54Z</time>
  <course>247.14</course>
  <speed>0.022360679774997897</speed>
  <fix>3d</fix>
</trkpt>
<trkpt lat="40.0713749" lon="-105.229789">
  <ele>1583.0</ele>
  <time>2026-08-28T17:51:54Z</time>
  <course>0.0</course>
  <speed>0.0</speed>
  <fix>3d</fix>
</trkpt>
<trkpt lat="40.0713751" lon="-105.2297889">
  <ele>1582.92</ele>
  <time>2026-08-28T17:51:54Z</time>
  <course>247.14</course>
  <speed>0.022360679774997897</speed>
  <fix>3d</fix>
</trkpt>
<trkpt lat="40.0713749" lon="-105.229789">
  <ele>1583.0</ele>
  <time>2026-08-28T17:51:54Z</time>
  <course>0.0</course>
  <speed>0.0</speed>
  <fix>3d</fix>
</trkpt>
<trkpt lat="40.0713751" lon="-105.2297889">
  <ele>1582.92</ele>
  <time>2026-08-28T17:51:54Z</time>
  <course>247.14</course>
  <speed>0.022360679774997897</speed>
  <fix>3d</fix>
</trkpt>
<trkpt lat="40.0713749" lon="-105.229789">
  <ele>1583.0</ele>
  <time>2026-08-28T17:51:54Z</time>
  <course>0.0</course>
  <speed>0.0</speed>
  <fix>3d</fix>
</trkpt>
<trkpt lat="40.0713751" lon="-105.2297889">
  <ele>1582.92</ele>
  <time>2026-08-28T17:51:54Z</time>
  <course>247.14</course>
  <speed>0.022360679774997897</speed>
  <fix>3d</fix>
</trkpt>
<trkpt lat="40.0713749" lon="-105.229789">
  <ele>1583.0</ele>
  <time>2026-08-28T17:51:54Z</time>
  <course>0.0</course>
  <speed>0.0</speed>
  <fix>3d</fix>
</trkpt>
<trkpt lat="40.0713751" lon="-105.2297889">
  <ele>1582.92</ele>
  <time>2026-08-28T17:51:54Z</time>
  <course>247.14</course>
  <speed>0.022360679774997897</speed>
  <fix>3d</fix>
</trkpt>
<trkpt lat="40.0713749" lon="-105.229789">
  <ele>1583.0</ele>
  <time>2026-08-28T17:51:54Z</time>
  <course>0.0</course>
  <speed>0.0</speed>
  <fix>3d</fix>
</trkpt>
<trkpt lat="40.0713751" lon="-105.2297889">
  <ele>1582.92</ele>
  <time>2026-08-28T17:51:54Z</time>
  <course>247.14</course>
  <speed>0.022360679774997897</speed>
  <fix>3d</fix>
</trkpt>
<trkpt lat="40.0713749" lon="-105.229789">
  <ele>1583.0</ele>
  <time>2026-08-28T17:51:54Z</time>
  <course>0.0</course>
  <speed>0.0</speed>
  <fix>3d</fix>
</trkpt>
<trkpt lat="40.0713751" lon="-105.2297889">
  <ele>1582.92</ele>
  <time>2026-08-28T17:51:54Z</time>
  <course>247.14</course>
  <speed>0.022360679774997897</speed>
  <fix>3d</fix>
</trkpt>
<trkpt lat="40.0713749" lon="-105.229789">
  <ele>1583.0</ele>
  <time>2026-08-28T17:51:54Z</time>
  <course>0.0</course>
  <speed>0.0</speed>
  <fix>3d</fix>
</trkpt>
<trkpt lat="40.0713751" lon="-105.2297889">
  <ele>1582.92</ele>
  <time>2026-08-28T17:51:54Z</time>
  <course>247.14</course>
  <speed>0.022360679774997897</speed>
  <fix>3d</fix>
</trkpt>
<trkpt lat="40.0713749" lon="-105.229789">
  <ele>1583.0</ele>
  <time>2026-08-28T17:51:54Z</time>
  <course>0.0</course>
  <speed>0.0</speed>
  <fix>3d</fix>
</trkpt>
<trkpt lat="40.0713751" lon="-105.2297889">
  <ele>1582.92</ele>
  <time>2026-08-28T17:51:54Z</time>
  <course>247.14</course>
  <speed>0.022360679774997897</speed>
  <fix>3d</fix>
</trkpt>
<trkpt lat="40.0713749" lon="-105.229789">
  <ele>1583.0</ele>
  <time>2026-08-28T17:51:54Z</time>
  <course>0.0</course>
  <speed>0.0</speed>
  <fix>3d</fix>
</trkpt>
<trkpt lat="40.0713751" lon="-105.2297889">
  <ele>1582.92</ele>
  <time>2026-08-28T17:51:54Z</time>
  <course>247.14</course>
  <speed>0.022360679774997897</speed>
  <fix>3d</fix>
</trkpt>
<trkpt lat="40.0713749" lon="-105.229789">
  <ele>1583.0</ele>
  <time>2026-08-28T17:51:54Z</time>
  <course>0.0</course>
  <speed>0.0</speed>
  <fix>3d</fix>
</trkpt>
<trkpt lat="40.0713751" lon="-105.2297889">
  <ele>1582.93</ele>
  <time>2026-08-28T17:51:54Z</time>
  <course>247.13</course>
  <speed>0.022360679774997897</speed>
  <fix>3d</fix>
</trkpt>
<trkpt lat="40.0713749" lon="-105.229789">
  <ele>1583.0</ele>
  <time>2026-08-28T17:51:54Z</time>
  <course>0.0</course>
  <speed>0.0</speed>
  <fix>3d</fix>
</trkpt>
<trkpt lat="40.0713751" lon="-105.2297889">
  <ele>1582.93</ele>
  <time>2026-08-28T17:51:54Z</time>
  <course>247.13</course>
  <speed>0.022360679774997897</speed>
  <fix>3d</fix>
</trkpt>
<trkpt lat="40.0713749" lon="-105.229789">
  <ele>1583.0</ele>
  <time>2026-08-28T17:51:54Z</time>
  <course>0.0</course>
  <speed>0.0</speed>
  <fix>3d</fix>
</trkpt>
<trkpt lat="40.0713751" lon="-105.2297889">
  <ele>1582.94</ele>
  <time>2026-08-28T17:51:54Z</time>
  <course>247.13</course>
  <speed>0.022360679774997897</speed>
  <fix>3d</fix>
</trkpt>
<trkpt lat="40.0713749" lon="-105.229789">
  <ele>1583.0</ele>
  <time>2026-08-28T17:51:54Z</time>
  <course>0.0</course>
  <speed>0.0</speed>
  <fix>3d</fix>
</trkpt>
<trkpt lat="40.0713751" lon="-105.2297889">
  <ele>1582.94</ele>
  <time>2026-08-28T17:51:54Z</time>
  <course>247.13</course>
  <speed>0.022360679774997897</speed>
  <fix>3d</fix>
</trkpt>
<trkpt lat="40.0713749" lon="-105.229789">
  <ele>1583.0</ele>
  <time>2026-08-28T17:51:54Z</time>
  <course>0.0</course>
  <speed>0.0</speed>
  <fix>3d</fix>
</trkpt>
<trkpt lat="40.0713751" lon="-105.2297889">
  <ele>1582.94</ele>
  <time>2026-08-28T17:51:54Z</time>
  <course>247.13</course>
  <speed>0.022360679774997897</speed>
  <fix>3d</fix>
</trkpt>
<trkpt lat="40.0713749" lon="-105.229789">
  <ele>1583.0</ele>
  <time>2026-08-28T17:51:54Z</time>
  <course>0.0</course>
  <speed>0.0</speed>
  <fix>3d</fix>
</trkpt>
<trkpt lat="40.0713751" lon="-105.2297889">
  <ele>1582.95</ele>
  <time>2026-08-28T17:51:54Z</time>
  <course>247.13</course>
  <speed>0.022360679774997897</speed>
  <fix>3d</fix>
</trkpt>
<trkpt lat="40.0713749" lon="-105.229789">
  <ele>1583.0</ele>
  <time>2026-08-28T17:51:54Z</time>
  <course>0.0</course>
  <speed>0.0</speed>
  <fix>3d</fix>
</trkpt>
<trkpt lat="40.0713751" lon="-105.2297889">
  <ele>1582.95</ele>
  <time>2026-08-28T17:51:54Z</time>
  <course>247.13</course>
  <speed>0.022360679774997897</speed>
  <fix>3d</fix>
</trkpt>
<trkpt lat="40.0713749" lon="-105.229789">
  <ele>1583.0</ele>
  <time>2026-08-28T17:51:54Z</time>
  <course>0.0</course>
  <speed>0.0</speed>
  <fix>3d</fix>
</trkpt>
<trkpt lat="40.0713751" lon="-105.2297889">
  <ele>1582.95</ele>
  <time>2026-08-28T17:51:54Z</time>
  <course>247.13</course>
  <speed>0.022360679774997897</speed>
  <fix>3d</fix>
</trkpt>
<trkpt lat="40.0713749" lon="-105.229789">
  <ele>1583.0</ele>
  <time>2026-08-28T17:51:54Z</time>
  <course>0.0</course>
  <speed>0.0</speed>
  <fix>3d</fix>
</trkpt>
<trkpt lat="40.0713751" lon="-105.2297889">
  <ele>1582.95</ele>
  <time>2026-08-28T17:51:54Z</time>
  <course>247.13</course>
  <speed>0.022360679774997897</speed>
  <fix>3d</fix>
</trkpt>
<trkpt lat="40.0713749" lon="-105.229789">
  <ele>1583.0</ele>
  <time>2026-08-28T17:51:54Z</time>
  <course>0.0</course>
  <speed>0.0</speed>
  <fix>3d</fix>
</trkpt>
<trkpt lat="40.0713751" lon="-105.2297889">
  <ele>1582.95</ele>
  <time>2026-08-28T17:51:54Z</time>
  <course>247.13</course>
  <speed>0.022360679774997897</speed>
  <fix>3d</fix>
</trkpt>
<trkpt lat="40.0713749" lon="-105.229789">
  <ele>1583.0</ele>
  <time>2026-08-28T17:51:54Z</time>
  <course>0.0</course>
  <speed>0.0</speed>
  <fix>3d</fix>
</trkpt>
<trkpt lat="40.0713751" lon="-105.2297889">
  <ele>1582.94</ele>
  <time>2026-08-28T17:51:54Z</time>
  <course>247.13</course>
  <speed>0.022360679774997897</speed>
  <fix>3d</fix>
</trkpt>
<trkpt lat="40.0713749" lon="-105.229789">
  <ele>1583.0</ele>
  <time>2026-08-28T17:51:54Z</time>
  <course>0.0</course>
  <speed>0.0</speed>
  <fix>3d</fix>
</trkpt>
<trkpt lat="40.0713751" lon="-105.2297889">
  <ele>1582.94</ele>
  <time>2026-08-28T17:51:54Z</time>
  <course>247.13</course>
  <speed>0.022360679774997897</speed>
  <fix>3d</fix>
</trkpt>
<trkpt lat="40.0713749" lon="-105.229789">
  <ele>1583.0</ele>
  <time>2026-08-28T17:51:54Z</time>
  <course>0.0</course>
  <speed>0.0</speed>
  <fix>3d</fix>
</trkpt>
<trkpt lat="40.0713751" lon="-105.2297889">
  <ele>1582.94</ele>
  <time>2026-08-28T17:51:54Z</time>
  <course>247.13</course>
  <speed>0.022360679774997897</speed>
  <fix>3d</fix>
</trkpt>
<trkpt lat="40.0713749" lon="-105.229789">
  <ele>1583.0</ele>
  <time>2026-08-28T17:51:54Z</time>
  <course>0.0</course>
  <speed>0.0</speed>
  <fix>3d</fix>
</trkpt>
<trkpt lat="40.0713751" lon="-105.2297889">
  <ele>1582.93</ele>
  <time>2026-08-28T17:51:54Z</time>
  <course>247.13</course>
  <speed>0.022360679774997897</speed>
  <fix>3d</fix>
</trkpt>
<trkpt lat="40.0713749" lon="-105.229789">
  <ele>1583.0</ele>
  <time>2026-08-28T17:51:54Z</time>
  <course>0.0</course>
  <speed>0.0</speed>
  <fix>3d</fix>
</trkpt>
<trkpt lat="40.071375" lon="-105.2297889">
  <ele>1582.93</ele>
  <time>2026-08-28T17:51:54Z</time>
  <course>247.13</course>
  <speed>0.022360679774997897</speed>
  <fix>3d</fix>
</trkpt>
<trkpt lat="40.0713749" lon="-105.229789">
  <ele>1583.0</ele>
  <time>2026-08-28T17:51:54Z</time>
  <course>0.0</course>
  <speed>0.0</speed>
  <fix>3d</fix>
</trkpt>
<trkpt lat="40.0713751" lon="-105.2297889">
  <ele>1582.94</ele>
  <time>2026-08-28T17:51:54Z</time>
  <course>247.13</course>
  <speed>0.022360679774997897</speed>
  <fix>3d</fix>
</trkpt>
<trkpt lat="40.0713749" lon="-105.229789">
  <ele>1583.0</ele>
  <time>2026-08-28T17:51:54Z</time>
  <course>0.0</course>
  <speed>0.0</speed>
  <fix>3d</fix>
</trkpt>
<trkpt lat="40.071375" lon="-105.2297889">
  <ele>1582.94</ele>
  <time>2026-08-28T17:51:54Z</time>
  <course>247.13</course>
  <speed>0.022360679774997897</speed>
  <fix>3d</fix>
</trkpt>
<trkpt lat="40.0713749" lon="-105.229789">
  <ele>1583.0</ele>
  <time>2026-08-28T17:51:54Z</time>
  <course>0.0</course>
  <speed>0.0</speed>
  <fix>3d</fix>
</trkpt>
<trkpt lat="40.0713751" lon="-105.2297889">
  <ele>1582.94</ele>
  <time>2026-08-28T17:51:54Z</time>
  <course>247.13</course>
  <speed>0.022360679774997897</speed>
  <fix>3d</fix>
</trkpt>
<trkpt lat="40.0713749" lon="-105.229789">
  <ele>1583.0</ele>
  <time>2026-08-28T17:51:54Z</time>
  <course>0.0</course>
  <speed>0.0</speed>
  <fix>3d</fix>
</trkpt>
<trkpt lat="40.071375" lon="-105.2297889">
  <ele>1582.94</ele>
  <time>2026-08-28T17:51:54Z</time>
  <course>247.13</course>
  <speed>0.022360679774997897</speed>
  <fix>3d</fix>
</trkpt>
<trkpt lat="40.0713749" lon="-105.229789">
  <ele>1583.0</ele>
  <time>2026-08-28T17:51:54Z</time>
  <course>0.0</course>
  <speed>0.0</speed>
  <fix>3d</fix>
</trkpt>
<trkpt lat="40.0713751" lon="-105.2297889">
  <ele>1582.94</ele>
  <time>2026-08-28T17:51:54Z</time>
  <course>247.13</course>
  <speed>0.022360679774997897</speed>
  <fix>3d</fix>
</trkpt>
<trkpt lat="40.0713749" lon="-105.229789">
  <ele>1583.0</ele>
  <time>2026-08-28T17:51:54Z</time>
  <course>0.0</course>
  <speed>0.0</speed>
  <fix>3d</fix>
</trkpt>
<trkpt lat="40.071375" lon="-105.2297889">
  <ele>1582.94</ele>
  <time>2026-08-28T17:51:54Z</time>
  <course>247.13</course>
  <speed>0.022360679774997897</speed>
  <fix>3d</fix>
</trkpt>
<trkpt lat="40.0713749" lon="-105.229789">
  <ele>1583.0</ele>
  <time>2026-08-28T17:51:54Z</time>
  <course>0.0</course>
  <speed>0.0</speed>
  <fix>3d</fix>
</trkpt>
<trkpt lat="40.0713751" lon="-105.2297889">
  <ele>1582.94</ele>
  <time>2026-08-28T17:51:54Z</time>
  <course>247.13</course>
  <speed>0.022360679774997897</speed>
  <fix>3d</fix>
</trkpt>
<trkpt lat="40.0713749" lon="-105.229789">
  <ele>1583.0</ele>
  <time>2026-08-28T17:51:54Z</time>
  <course>0.0</course>
  <speed>0.0</speed>
  <fix>3d</fix>
</trkpt>
<trkpt lat="40.071375" lon="-105.2297889">
  <ele>1582.94</ele>
  <time>2026-08-28T17:51:54Z</time>
  <course>247.13</course>
  <speed>0.022360679774997897</speed>
  <fix>3d</fix>
</trkpt>
<trkpt lat="40.0713749" lon="-105.229789">
  <ele>1583.0</ele>
  <time>2026-08-28T17:51:54Z</time>
  <course>0.0</course>
  <speed>0.0</speed>
  <fix>3d</fix>
</trkpt>
<trkpt lat="40.0713751" lon="-105.2297889">
  <ele>1582.94</ele>
  <time>2026-08-28T17:51:55Z</time>
  <course>247.13</course>
  <speed>0.022360679774997897</speed>
  <fix>3d</fix>
</trkpt>
<trkpt lat="40.0713749" lon="-105.229789">
  <ele>1583.0</ele>
  <time>2026-08-28T17:51:55Z</time>
  <course>0.0</course>
  <speed>0.0</speed>
  <fix>3d</fix>
</trkpt>
<trkpt lat="40.071375" lon="-105.2297889">
  <ele>1582.95</ele>
  <time>2026-08-28T17:51:55Z</time>
  <course>247.13</course>
  <speed>0.022360679774997897</speed>
  <fix>3d</fix>
</trkpt>
<trkpt lat="40.0713749" lon="-105.229789">
  <ele>1583.0</ele>
  <time>2026-08-28T17:51:55Z</time>
  <course>0.0</course>
  <speed>0.0</speed>
  <fix>3d</fix>
</trkpt>
<trkpt lat="40.0713751" lon="-105.2297889">
  <ele>1582.95</ele>
  <time>2026-08-28T17:51:55Z</time>
  <course>247.13</course>
  <speed>0.022360679774997897</speed>
  <fix>3d</fix>
</trkpt>
<trkpt lat="40.0713749" lon="-105.229789">
  <ele>1583.0</ele>
  <time>2026-08-28T17:51:55Z</time>
  <course>0.0</course>
  <speed>0.0</speed>
  <fix>3d</fix>
</trkpt>
<trkpt lat="40.0713751" lon="-105.2297889">
  <ele>1582.95</ele>
  <time>2026-08-28T17:51:55Z</time>
  <course>247.13</course>
  <speed>0.022360679774997897</speed>
  <fix>3d</fix>
</trkpt>
<trkpt lat="40.0713749" lon="-105.229789">
  <ele>1583.0</ele>
  <time>2026-08-28T17:51:55Z</time>
  <course>0.0</course>
  <speed>0.0</speed>
  <fix>3d</fix>
</trkpt>
<trkpt lat="40.0713751" lon="-105.2297889">
  <ele>1582.95</ele>
  <time>2026-08-28T17:51:55Z</time>
  <course>247.13</course>
  <speed>0.022360679774997897</speed>
  <fix>3d</fix>
</trkpt>
<trkpt lat="40.0713749" lon="-105.229789">
  <ele>1583.0</ele>
  <time>2026-08-28T17:51:55Z</time>
  <course>0.0</course>
  <speed>0.0</speed>
  <fix>3d</fix>
</trkpt>
<trkpt lat="40.0713751" lon="-105.2297889">
  <ele>1582.95</ele>
  <time>2026-08-28T17:51:55Z</time>
  <course>247.13</course>
  <speed>0.022360679774997897</speed>
  <fix>3d</fix>
</trkpt>
<trkpt lat="40.0713749" lon="-105.229789">
  <ele>1583.0</ele>
  <time>2026-08-28T17:51:55Z</time>
  <course>0.0</course>
  <speed>0.0</speed>
  <fix>3d</fix>
</trkpt>
<trkpt lat="40.0713751" lon="-105.2297889">
  <ele>1582.95</ele>
  <time>2026-08-28T17:51:55Z</time>
  <course>247.13</course>
  <speed>0.022360679774997897</speed>
  <fix>3d</fix>
</trkpt>
<trkpt lat="40.0713749" lon="-105.229789">
  <ele>1583.0</ele>
  <time>2026-08-28T17:51:55Z</time>
  <course>0.0</course>
  <speed>0.0</speed>
  <fix>3d</fix>
</trkpt>
<trkpt lat="40.0713751" lon="-105.2297889">
  <ele>1582.95</ele>
  <time>2026-08-28T17:51:55Z</time>
  <course>247.13</course>
  <speed>0.022360679774997897</speed>
  <fix>3d</fix>
</trkpt>
<trkpt lat="40.0713749" lon="-105.229789">
  <ele>1583.0</ele>
  <time>2026-08-28T17:51:55Z</time>
  <course>0.0</course>
  <speed>0.0</speed>
  <fix>3d</fix>
</trkpt>
<trkpt lat="40.0713751" lon="-105.2297889">
  <ele>1582.95</ele>
  <time>2026-08-28T17:51:55Z</time>
  <course>247.13</course>
  <speed>0.022360679774997897</speed>
  <fix>3d</fix>
</trkpt>
<trkpt lat="40.0713749" lon="-105.229789">
  <ele>1583.0</ele>
  <time>2026-08-28T17:51:55Z</time>
  <course>0.0</course>
  <speed>0.0</speed>
  <fix>3d</fix>
</trkpt>
<trkpt lat="40.0713751" lon="-105.2297889">
  <ele>1582.95</ele>
  <time>2026-08-28T17:51:55Z</time>
  <course>247.13</course>
  <speed>0.022360679774997897</speed>
  <fix>3d</fix>
</trkpt>
<trkpt lat="40.0713749" lon="-105.229789">
  <ele>1583.0</ele>
  <time>2026-08-28T17:51:55Z</time>
  <course>0.0</course>
  <speed>0.0</speed>
  <fix>3d</fix>
</trkpt>
<trkpt lat="40.0713751" lon="-105.2297889">
  <ele>1582.95</ele>
  <time>2026-08-28T17:51:55Z</time>
  <course>247.13</course>
  <speed>0.022360679774997897</speed>
  <fix>3d</fix>
</trkpt>
<trkpt lat="40.0713749" lon="-105.229789">
  <ele>1583.0</ele>
  <time>2026-08-28T17:51:55Z</time>
  <course>0.0</course>
  <speed>0.0</speed>
  <fix>3d</fix>
</trkpt>
<trkpt lat="40.071375" lon="-105.2297889">
  <ele>1582.95</ele>
  <time>2026-08-28T17:51:55Z</time>
  <course>247.13</course>
  <speed>0.022360679774997897</speed>
  <fix>3d</fix>
</trkpt>
<trkpt lat="40.0713749" lon="-105.229789">
  <ele>1583.0</ele>
  <time>2026-08-28T17:51:55Z</time>
  <course>0.0</course>
  <speed>0.0</speed>
  <fix>3d</fix>
</trkpt>
<trkpt lat="40.0713751" lon="-105.2297889">
  <ele>1582.94</ele>
  <time>2026-08-28T17:51:55Z</time>
  <course>247.13</course>
  <speed>0.022360679774997897</speed>
  <fix>3d</fix>
</trkpt>
<trkpt lat="40.0713749" lon="-105.229789">
  <ele>1583.0</ele>
  <time>2026-08-28T17:51:55Z</time>
  <course>0.0</course>
  <speed>0.0</speed>
  <fix>3d</fix>
</trkpt>
<trkpt lat="40.071375" lon="-105.2297889">
  <ele>1582.94</ele>
  <time>2026-08-28T17:51:55Z</time>
  <course>247.13</course>
  <speed>0.022360679774997897</speed>
  <fix>3d</fix>
</trkpt>
<trkpt lat="40.0713749" lon="-105.229789">
  <ele>1583.0</ele>
  <time>2026-08-28T17:51:55Z</time>
  <course>0.0</course>
  <speed>0.0</speed>
  <fix>3d</fix>
</trkpt>
<trkpt lat="40.0713751" lon="-105.2297889">
  <ele>1582.94</ele>
  <time>2026-08-28T17:51:55Z</time>
  <course>247.13</course>
  <speed>0.022360679774997897</speed>
  <fix>3d</fix>
</trkpt>
<trkpt lat="40.0713749" lon="-105.229789">
  <ele>1583.0</ele>
  <time>2026-08-28T17:51:55Z</time>
  <course>0.0</course>
  <speed>0.0</speed>
  <fix>3d</fix>
</trkpt>
<trkpt lat="40.071375" lon="-105.2297889">
  <ele>1582.94</ele>
  <time>2026-08-28T17:51:55Z</time>
  <course>247.13</course>
  <speed>0.022360679774997897</speed>
  <fix>3d</fix>
</trkpt>
<trkpt lat="40.0713749" lon="-105.229789">
  <ele>1583.0</ele>
  <time>2026-08-28T17:51:55Z</time>
  <course>0.0</course>
  <speed>0.0</speed>
  <fix>3d</fix>
</trkpt>
<trkpt lat="40.0713751" lon="-105.2297889">
  <ele>1582.93</ele>
  <time>2026-08-28T17:51:55Z</time>
  <course>247.13</course>
  <speed>0.022360679774997897</speed>
  <fix>3d</fix>
</trkpt>
<trkpt lat="40.0713749" lon="-105.229789">
  <ele>1583.0</ele>
  <time>2026-08-28T17:51:55Z</time>
  <course>0.0</course>
  <speed>0.0</speed>
  <fix>3d</fix>
</trkpt>
<trkpt lat="40.071375" lon="-105.2297889">
  <ele>1582.93</ele>
  <time>2026-08-28T17:51:55Z</time>
  <course>247.13</course>
  <speed>0.022360679774997897</speed>
  <fix>3d</fix>
</trkpt>
<trkpt lat="40.0713749" lon="-105.229789">
  <ele>1583.0</ele>
  <time>2026-08-28T17:51:55Z</time>
  <course>0.0</course>
  <speed>0.0</speed>
  <fix>3d</fix>
</trkpt>
<trkpt lat="40.0713751" lon="-105.2297889">
  <ele>1582.93</ele>
  <time>2026-08-28T17:51:55Z</time>
  <course>247.13</course>
  <speed>0.022360679774997897</speed>
  <fix>3d</fix>
</trkpt>
<trkpt lat="40.0713749" lon="-105.229789">
  <ele>1583.0</ele>
  <time>2026-08-28T17:51:55Z</time>
  <course>0.0</course>
  <speed>0.0</speed>
  <fix>3d</fix>
</trkpt>
<trkpt lat="40.0713751" lon="-105.2297889">
  <ele>1582.93</ele>
  <time>2026-08-28T17:51:55Z</time>
  <course>247.13</course>
  <speed>0.022360679774997897</speed>
  <fix>3d</fix>
</trkpt>
<trkpt lat="40.0713749" lon="-105.229789">
  <ele>1583.0</ele>
  <time>2026-08-28T17:51:55Z</time>
  <course>0.0</course>
  <speed>0.0</speed>
  <fix>3d</fix>
</trkpt>
<trkpt lat="40.0713751" lon="-105.2297889">
  <ele>1582.93</ele>
  <time>2026-08-28T17:51:55Z</time>
  <course>247.13</course>
  <speed>0.022360679774997897</speed>
  <fix>3d</fix>
</trkpt>
<trkpt lat="40.0713749" lon="-105.229789">
  <ele>1583.0</ele>
  <time>2026-08-28T17:51:55Z</time>
  <course>0.0</course>
  <speed>0.0</speed>
  <fix>3d</fix>
</trkpt>
<trkpt lat="40.0713751" lon="-105.2297889">
  <ele>1582.93</ele>
  <time>2026-08-28T17:51:55Z</time>
  <course>247.13</course>
  <speed>0.022360679774997897</speed>
  <fix>3d</fix>
</trkpt>
<trkpt lat="40.0713749" lon="-105.229789">
  <ele>1583.0</ele>
  <time>2026-08-28T17:51:55Z</time>
  <course>0.0</course>
  <speed>0.0</speed>
  <fix>3d</fix>
</trkpt>
<trkpt lat="40.0713751" lon="-105.2297889">
  <ele>1582.93</ele>
  <time>2026-08-28T17:51:55Z</time>
  <course>247.13</course>
  <speed>0.022360679774997897</speed>
  <fix>3d</fix>
</trkpt>
<trkpt lat="40.0713749" lon="-105.229789">
  <ele>1583.0</ele>
  <time>2026-08-28T17:51:55Z</time>
  <course>0.0</course>
  <speed>0.0</speed>
  <fix>3d</fix>
</trkpt>
<trkpt lat="40.0713751" lon="-105.2297889">
  <ele>1582.93</ele>
  <time>2026-08-28T17:51:55Z</time>
  <course>247.13</course>
  <speed>0.022360679774997897</speed>
  <fix>3d</fix>
</trkpt>
<trkpt lat="40.0713749" lon="-105.229789">
  <ele>1583.0</ele>
  <time>2026-08-28T17:51:55Z</time>
  <course>0.0</course>
  <speed>0.0</speed>
  <fix>3d</fix>
</trkpt>
<trkpt lat="40.0713751" lon="-105.2297889">
  <ele>1582.93</ele>
  <time>2026-08-28T17:51:55Z</time>
  <course>247.13</course>
  <speed>0.022360679774997897</speed>
  <fix>3d</fix>
</trkpt>
<trkpt lat="40.0713749" lon="-105.229789">
  <ele>1583.0</ele>
  <time>2026-08-28T17:51:55Z</time>
  <course>0.0</course>
  <speed>0.0</speed>
  <fix>3d</fix>
</trkpt>
<trkpt lat="40.0713751" lon="-105.2297889">
  <ele>1582.93</ele>
  <time>2026-08-28T17:51:55Z</time>
  <course>247.13</course>
  <speed>0.022360679774997897</speed>
  <fix>3d</fix>
</trkpt>
<trkpt lat="40.0713749" lon="-105.229789">
  <ele>1583.0</ele>
  <time>2026-08-28T17:51:55Z</time>
  <course>0.0</course>
  <speed>0.0</speed>
  <fix>3d</fix>
</trkpt>
<trkpt lat="40.0713751" lon="-105.2297889">
  <ele>1582.93</ele>
  <time>2026-08-28T17:51:55Z</time>
  <course>247.13</course>
  <speed>0.022360679774997897</speed>
  <fix>3d</fix>
</trkpt>
<trkpt lat="40.0713749" lon="-105.229789">
  <ele>1583.0</ele>
  <time>2026-08-28T17:51:55Z</time>
  <course>0.0</course>
  <speed>0.0</speed>
  <fix>3d</fix>
</trkpt>
<trkpt lat="40.0713751" lon="-105.2297889">
  <ele>1582.93</ele>
  <time>2026-08-28T17:51:55Z</time>
  <course>247.13</course>
  <speed>0.022360679774997897</speed>
  <fix>3d</fix>
</trkpt>
<trkpt lat="40.0713749" lon="-105.229789">
  <ele>1583.0</ele>
  <time>2026-08-28T17:51:55Z</time>
  <course>0.0</course>
  <speed>0.0</speed>
  <fix>3d</fix>
</trkpt>
<trkpt lat="40.0713751" lon="-105.2297889">
  <ele>1582.93</ele>
  <time>2026-08-28T17:51:55Z</time>
  <course>247.13</course>
  <speed>0.022360679774997897</speed>
  <fix>3d</fix>
</trkpt>
<trkpt lat="40.0713749" lon="-105.229789">
  <ele>1583.0</ele>
  <time>2026-08-28T17:51:55Z</time>
  <course>0.0</course>
  <speed>0.0</speed>
  <fix>3d</fix>
</trkpt>
<trkpt lat="40.0713751" lon="-105.2297889">
  <ele>1582.93</ele>
  <time>2026-08-28T17:51:55Z</time>
  <course>247.13</course>
  <speed>0.022360679774997897</speed>
  <fix>3d</fix>
</trkpt>
<trkpt lat="40.0713749" lon="-105.229789">
  <ele>1583.0</ele>
  <time>2026-08-28T17:51:55Z</time>
  <course>0.0</course>
  <speed>0.0</speed>
  <fix>3d</fix>
</trkpt>
<trkpt lat="40.0713751" lon="-105.2297889">
  <ele>1582.93</ele>
  <time>2026-08-28T17:51:55Z</time>
  <course>247.13</course>
  <speed>0.022360679774997897</speed>
  <fix>3d</fix>
</trkpt>
<trkpt lat="40.0713749" lon="-105.229789">
  <ele>1583.0</ele>
  <time>2026-08-28T17:51:55Z</time>
  <course>0.0</course>
  <speed>0.0</speed>
  <fix>3d</fix>
</trkpt>
<trkpt lat="40.0713751" lon="-105.2297889">
  <ele>1582.93</ele>
  <time>2026-08-28T17:51:55Z</time>
  <course>247.13</course>
  <speed>0.022360679774997897</speed>
  <fix>3d</fix>
</trkpt>
<trkpt lat="40.0713749" lon="-105.229789">
  <ele>1583.0</ele>
  <time>2026-08-28T17:51:55Z</time>
  <course>0.0</course>
  <speed>0.0</speed>
  <fix>3d</fix>
</trkpt>
<trkpt lat="40.0713751" lon="-105.2297889">
  <ele>1582.93</ele>
  <time>2026-08-28T17:51:55Z</time>
  <course>247.13</course>
  <speed>0.022360679774997897</speed>
  <fix>3d</fix>
</trkpt>
<trkpt lat="40.0713749" lon="-105.229789">
  <ele>1583.0</ele>
  <time>2026-08-28T17:51:55Z</time>
  <course>0.0</course>
  <speed>0.0</speed>
  <fix>3d</fix>
</trkpt>
<trkpt lat="40.0713751" lon="-105.2297889">
  <ele>1582.93</ele>
  <time>2026-08-28T17:51:55Z</time>
  <course>247.13</course>
  <speed>0.022360679774997897</speed>
  <fix>3d</fix>
</trkpt>
<trkpt lat="40.0713749" lon="-105.229789">
  <ele>1583.0</ele>
  <time>2026-08-28T17:51:55Z</time>
  <course>0.0</course>
  <speed>0.0</speed>
  <fix>3d</fix>
</trkpt>
<trkpt lat="40.0713751" lon="-105.2297889">
  <ele>1582.94</ele>
  <time>2026-08-28T17:51:55Z</time>
  <course>247.13</course>
  <speed>0.022360679774997897</speed>
  <fix>3d</fix>
</trkpt>
<trkpt lat="40.0713749" lon="-105.229789">
  <ele>1583.0</ele>
  <time>2026-08-28T17:51:55Z</time>
  <course>0.0</course>
  <speed>0.0</speed>
  <fix>3d</fix>
</trkpt>
<trkpt lat="40.0713751" lon="-105.2297889">
  <ele>1582.94</ele>
  <time>2026-08-28T17:51:55Z</time>
  <course>247.13</course>
  <speed>0.022360679774997897</speed>
  <fix>3d</fix>
</trkpt>
<trkpt lat="40.0713749" lon="-105.229789">
  <ele>1583.0</ele>
  <time>2026-08-28T17:51:55Z</time>
  <course>0.0</course>
  <speed>0.0</speed>
  <fix>3d</fix>
</trkpt>
<trkpt lat="40.0713751" lon="-105.2297889">
  <ele>1582.94</ele>
  <time>2026-08-28T17:51:55Z</time>
  <course>247.13</course>
  <speed>0.022360679774997897</speed>
  <fix>3d</fix>
</trkpt>
<trkpt lat="40.0713749" lon="-105.229789">
  <ele>1583.0</ele>
  <time>2026-08-28T17:51:55Z</time>
  <course>0.0</course>
  <speed>0.0</speed>
  <fix>3d</fix>
</trkpt>
<trkpt lat="40.0713751" lon="-105.2297889">
  <ele>1582.93</ele>
  <time>2026-08-28T17:51:55Z</time>
  <course>247.13</course>
  <speed>0.022360679774997897</speed>
  <fix>3d</fix>
</trkpt>
<trkpt lat="40.0713749" lon="-105.229789">
  <ele>1583.0</ele>
  <time>2026-08-28T17:51:55Z</time>
  <course>0.0</course>
  <speed>0.0</speed>
  <fix>3d</fix>
</trkpt>
<trkpt lat="40.0713751" lon="-105.2297889">
  <ele>1582.93</ele>
  <time>2026-08-28T17:51:55Z</time>
  <course>247.13</course>
  <speed>0.022360679774997897</speed>
  <fix>3d</fix>
</trkpt>
<trkpt lat="40.0713749" lon="-105.229789">
  <ele>1583.0</ele>
  <time>2026-08-28T17:51:55Z</time>
  <course>0.0</course>
  <speed>0.0</speed>
  <fix>3d</fix>
</trkpt>
<trkpt lat="40.0713751" lon="-105.2297889">
  <ele>1582.93</ele>
  <time>2026-08-28T17:51:55Z</time>
  <course>247.13</course>
  <speed>0.022360679774997897</speed>
  <fix>3d</fix>
</trkpt>
<trkpt lat="40.0713749" lon="-105.229789">
  <ele>1583.0</ele>
  <time>2026-08-28T17:51:55Z</time>
  <course>0.0</course>
  <speed>0.0</speed>
  <fix>3d</fix>
</trkpt>
<trkpt lat="40.0713751" lon="-105.2297889">
  <ele>1582.93</ele>
  <time>2026-08-28T17:51:55Z</time>
  <course>247.13</course>
  <speed>0.022360679774997897</speed>
  <fix>3d</fix>
</trkpt>
<trkpt lat="40.0713749" lon="-105.229789">
  <ele>1583.0</ele>
  <time>2026-08-28T17:51:55Z</time>
  <course>0.0</course>
  <speed>0.0</speed>
  <fix>3d</fix>
</trkpt>
<trkpt lat="40.0713751" lon="-105.2297889">
  <ele>1582.93</ele>
  <time>2026-08-28T17:51:55Z</time>
  <course>247.13</course>
  <speed>0.022360679774997897</speed>
  <fix>3d</fix>
</trkpt>
<trkpt lat="40.0713749" lon="-105.229789">
  <ele>1583.0</ele>
  <time>2026-08-28T17:51:55Z</time>
  <course>0.0</course>
  <speed>0.0</speed>
  <fix>3d</fix>
</trkpt>
<trkpt lat="40.0713751" lon="-105.2297889">
  <ele>1582.93</ele>
  <time>2026-08-28T17:51:55Z</time>
  <course>247.13</course>
  <speed>0.022360679774997897</speed>
  <fix>3d</fix>
</trkpt>
<trkpt lat="40.0713749" lon="-105.229789">
  <ele>1583.0</ele>
  <time>2026-08-28T17:51:55Z</time>
  <course>0.0</course>
  <speed>0.0</speed>
  <fix>3d</fix>
</trkpt>
<trkpt lat="40.0713751" lon="-105.2297889">
  <ele>1582.93</ele>
  <time>2026-08-28T17:51:55Z</time>
  <course>247.13</course>
  <speed>0.022360679774997897</speed>
  <fix>3d</fix>
</trkpt>
<trkpt lat="40.0713749" lon="-105.229789">
  <ele>1583.0</ele>
  <time>2026-08-28T17:51:55Z</time>
  <course>0.0</course>
  <speed>0.0</speed>
  <fix>3d</fix>
</trkpt>
<trkpt lat="40.0713751" lon="-105.2297889">
  <ele>1582.93</ele>
  <time>2026-08-28T17:51:55Z</time>
  <course>247.13</course>
  <speed>0.022360679774997897</speed>
  <fix>3d</fix>
</trkpt>
<trkpt lat="40.0713749" lon="-105.229789">
  <ele>1583.0</ele>
  <time>2026-08-28T17:51:55Z</time>
  <course>0.0</course>
  <speed>0.0</speed>
  <fix>3d</fix>
</trkpt>
<trkpt lat="40.0713751" lon="-105.2297889">
  <ele>1582.93</ele>
  <time>2026-08-28T17:51:55Z</time>
  <course>247.13</course>
  <speed>0.022360679774997897</speed>
  <fix>3d</fix>
</trkpt>
<trkpt lat="40.0713749" lon="-105.229789">
  <ele>1583.0</ele>
  <time>2026-08-28T17:51:55Z</time>
  <course>0.0</course>
  <speed>0.0</speed>
  <fix>3d</fix>
</trkpt>
<trkpt lat="40.0713751" lon="-105.2297889">
  <ele>1582.93</ele>
  <time>2026-08-28T17:51:55Z</time>
  <course>247.13</course>
  <speed>0.022360679774997897</speed>
  <fix>3d</fix>
</trkpt>
<trkpt lat="40.0713749" lon="-105.229789">
  <ele>1583.0</ele>
  <time>2026-08-28T17:51:55Z</time>
  <course>0.0</course>
  <speed>0.0</speed>
  <fix>3d</fix>
</trkpt>
<trkpt lat="40.0713751" lon="-105.2297889">
  <ele>1582.94</ele>
  <time>2026-08-28T17:51:55Z</time>
  <course>247.13</course>
  <speed>0.022360679774997897</speed>
  <fix>3d</fix>
</trkpt>
<trkpt lat="40.0713749" lon="-105.229789">
  <ele>1583.0</ele>
  <time>2026-08-28T17:51:55Z</time>
  <course>0.0</course>
  <speed>0.0</speed>
  <fix>3d</fix>
</trkpt>
<trkpt lat="40.0713751" lon="-105.2297889">
  <ele>1582.94</ele>
  <time>2026-08-28T17:51:55Z</time>
  <course>247.13</course>
  <speed>0.022360679774997897</speed>
  <fix>3d</fix>
</trkpt>
<trkpt lat="40.0713749" lon="-105.229789">
  <ele>1583.0</ele>
  <time>2026-08-28T17:51:55Z</time>
  <course>0.0</course>
  <speed>0.0</speed>
  <fix>3d</fix>
</trkpt>
<trkpt lat="40.0713751" lon="-105.2297889">
  <ele>1582.94</ele>
  <time>2026-08-28T17:51:55Z</time>
  <course>247.13</course>
  <speed>0.022360679774997897</speed>
  <fix>3d</fix>
</trkpt>
<trkpt lat="40.0713749" lon="-105.229789">
  <ele>1583.0</ele>
  <time>2026-08-28T17:51:55Z</time>
  <course>0.0</course>
  <speed>0.0</speed>
  <fix>3d</fix>
</trkpt>
<trkpt lat="40.0713751" lon="-105.2297889">
  <ele>1582.94</ele>
  <time>2026-08-28T17:51:55Z</time>
  <course>247.12</course>
  <speed>0.022360679774997897</speed>
  <fix>3d</fix>
</trkpt>
<trkpt lat="40.0713749" lon="-105.229789">
  <ele>1583.0</ele>
  <time>2026-08-28T17:51:55Z</time>
  <course>0.0</course>
  <speed>0.0</speed>
  <fix>3d</fix>
</trkpt>
<trkpt lat="40.0713751" lon="-105.2297889">
  <ele>1582.94</ele>
  <time>2026-08-28T17:51:55Z</time>
  <course>247.12</course>
  <speed>0.022360679774997897</speed>
  <fix>3d</fix>
</trkpt>
<trkpt lat="40.0713749" lon="-105.229789">
  <ele>1583.0</ele>
  <time>2026-08-28T17:51:55Z</time>
  <course>0.0</course>
  <speed>0.0</speed>
  <fix>3d</fix>
</trkpt>
<trkpt lat="40.0713751" lon="-105.2297889">
  <ele>1582.94</ele>
  <time>2026-08-28T17:51:55Z</time>
  <course>247.12</course>
  <speed>0.022360679774997897</speed>
  <fix>3d</fix>
</trkpt>
<trkpt lat="40.0713749" lon="-105.229789">
  <ele>1583.0</ele>
  <time>2026-08-28T17:51:55Z</time>
  <course>0.0</course>
  <speed>0.0</speed>
  <fix>3d</fix>
</trkpt>
<trkpt lat="40.0713751" lon="-105.2297889">
  <ele>1582.94</ele>
  <time>2026-08-28T17:51:55Z</time>
  <course>247.12</course>
  <speed>0.022360679774997897</speed>
  <fix>3d</fix>
</trkpt>
<trkpt lat="40.0713749" lon="-105.229789">
  <ele>1583.0</ele>
  <time>2026-08-28T17:51:55Z</time>
  <course>0.0</course>
  <speed>0.0</speed>
  <fix>3d</fix>
</trkpt>
<trkpt lat="40.0713751" lon="-105.2297889">
  <ele>1582.94</ele>
  <time>2026-08-28T17:51:55Z</time>
  <course>247.12</course>
  <speed>0.022360679774997897</speed>
  <fix>3d</fix>
</trkpt>
<trkpt lat="40.0713749" lon="-105.229789">
  <ele>1583.0</ele>
  <time>2026-08-28T17:51:55Z</time>
  <course>0.0</course>
  <speed>0.0</speed>
  <fix>3d</fix>
</trkpt>
<trkpt lat="40.0713751" lon="-105.2297889">
  <ele>1582.94</ele>
  <time>2026-08-28T17:51:55Z</time>
  <course>247.12</course>
  <speed>0.022360679774997897</speed>
  <fix>3d</fix>
</trkpt>
<trkpt lat="40.0713749" lon="-105.229789">
  <ele>1583.0</ele>
  <time>2026-08-28T17:51:55Z</time>
  <course>0.0</course>
  <speed>0.0</speed>
  <fix>3d</fix>
</trkpt>
<trkpt lat="40.0713751" lon="-105.2297889">
  <ele>1582.93</ele>
  <time>2026-08-28T17:51:55Z</time>
  <course>247.12</course>
  <speed>0.022360679774997897</speed>
  <fix>3d</fix>
</trkpt>
<trkpt lat="40.0713749" lon="-105.229789">
  <ele>1583.0</ele>
  <time>2026-08-28T17:51:55Z</time>
  <course>0.0</course>
  <speed>0.0</speed>
  <fix>3d</fix>
</trkpt>
<trkpt lat="40.0713751" lon="-105.2297889">
  <ele>1582.93</ele>
  <time>2026-08-28T17:51:55Z</time>
  <course>247.12</course>
  <speed>0.022360679774997897</speed>
  <fix>3d</fix>
</trkpt>
<trkpt lat="40.0713749" lon="-105.229789">
  <ele>1583.0</ele>
  <time>2026-08-28T17:51:55Z</time>
  <course>0.0</course>
  <speed>0.0</speed>
  <fix>3d</fix>
</trkpt>
<trkpt lat="40.0713751" lon="-105.2297889">
  <ele>1582.93</ele>
  <time>2026-08-28T17:51:55Z</time>
  <course>247.12</course>
  <speed>0.022360679774997897</speed>
  <fix>3d</fix>
</trkpt>
<trkpt lat="40.0713749" lon="-105.229789">
  <ele>1583.0</ele>
  <time>2026-08-28T17:51:55Z</time>
  <course>0.0</course>
  <speed>0.0</speed>
  <fix>3d</fix>
</trkpt>
<trkpt lat="40.0713751" lon="-105.2297889">
  <ele>1582.92</ele>
  <time>2026-08-28T17:51:55Z</time>
  <course>247.12</course>
  <speed>0.022360679774997897</speed>
  <fix>3d</fix>
</trkpt>
<trkpt lat="40.0713749" lon="-105.229789">
  <ele>1583.0</ele>
  <time>2026-08-28T17:51:55Z</time>
  <course>0.0</course>
  <speed>0.0</speed>
  <fix>3d</fix>
</trkpt>
<trkpt lat="40.0713751" lon="-105.2297889">
  <ele>1582.92</ele>
  <time>2026-08-28T17:51:55Z</time>
  <course>247.12</course>
  <speed>0.022360679774997897</speed>
  <fix>3d</fix>
</trkpt>
<trkpt lat="40.0713749" lon="-105.229789">
  <ele>1583.0</ele>
  <time>2026-08-28T17:51:55Z</time>
  <course>0.0</course>
  <speed>0.0</speed>
  <fix>3d</fix>
</trkpt>
<trkpt lat="40.0713751" lon="-105.2297889">
  <ele>1582.92</ele>
  <time>2026-08-28T17:51:55Z</time>
  <course>247.12</course>
  <speed>0.022360679774997897</speed>
  <fix>3d</fix>
</trkpt>
<trkpt lat="40.0713749" lon="-105.229789">
  <ele>1583.0</ele>
  <time>2026-08-28T17:51:55Z</time>
  <course>0.0</course>
  <speed>0.0</speed>
  <fix>3d</fix>
</trkpt>
<trkpt lat="40.0713751" lon="-105.2297889">
  <ele>1582.92</ele>
  <time>2026-08-28T17:51:55Z</time>
  <course>247.12</course>
  <speed>0.022360679774997897</speed>
  <fix>3d</fix>
</trkpt>
<trkpt lat="40.0713749" lon="-105.229789">
  <ele>1583.0</ele>
  <time>2026-08-28T17:51:55Z</time>
  <course>0.0</course>
  <speed>0.0</speed>
  <fix>3d</fix>
</trkpt>
<trkpt lat="40.0713751" lon="-105.2297889">
  <ele>1582.91</ele>
  <time>2026-08-28T17:51:55Z</time>
  <course>247.12</course>
  <speed>0.022360679774997897</speed>
  <fix>3d</fix>
</trkpt>
<trkpt lat="40.0713749" lon="-105.229789">
  <ele>1583.0</ele>
  <time>2026-08-28T17:51:55Z</time>
  <course>0.0</course>
  <speed>0.0</speed>
  <fix>3d</fix>
</trkpt>
<trkpt lat="40.0713751" lon="-105.2297889">
  <ele>1582.91</ele>
  <time>2026-08-28T17:51:55Z</time>
  <course>247.12</course>
  <speed>0.022360679774997897</speed>
  <fix>3d</fix>
</trkpt>
<trkpt lat="40.0713749" lon="-105.229789">
  <ele>1583.0</ele>
  <time>2026-08-28T17:51:55Z</time>
  <course>0.0</course>
  <speed>0.0</speed>
  <fix>3d</fix>
</trkpt>
<trkpt lat="40.0713751" lon="-105.2297889">
  <ele>1582.91</ele>
  <time>2026-08-28T17:51:55Z</time>
  <course>247.12</course>
  <speed>0.022360679774997897</speed>
  <fix>3d</fix>
</trkpt>
<trkpt lat="40.0713749" lon="-105.229789">
  <ele>1583.0</ele>
  <time>2026-08-28T17:51:55Z</time>
  <course>0.0</course>
  <speed>0.0</speed>
  <fix>3d</fix>
</trkpt>
<trkpt lat="40.0713751" lon="-105.2297889">
  <ele>1582.91</ele>
  <time>2026-08-28T17:51:55Z</time>
  <course>247.12</course>
  <speed>0.022360679774997897</speed>
  <fix>3d</fix>
</trkpt>
<trkpt lat="40.0713749" lon="-105.229789">
  <ele>1583.0</ele>
  <time>2026-08-28T17:51:55Z</time>
  <course>0.0</course>
  <speed>0.0</speed>
  <fix>3d</fix>
</trkpt>
<trkpt lat="40.0713751" lon="-105.2297889">
  <ele>1582.92</ele>
  <time>2026-08-28T17:51:55Z</time>
  <course>247.12</course>
  <speed>0.022360679774997897</speed>
  <fix>3d</fix>
</trkpt>
<trkpt lat="40.0713749" lon="-105.229789">
  <ele>1583.0</ele>
  <time>2026-08-28T17:51:55Z</time>
  <course>0.0</course>
  <speed>0.0</speed>
  <fix>3d</fix>
</trkpt>
<trkpt lat="40.0713751" lon="-105.2297889">
  <ele>1582.92</ele>
  <time>2026-08-28T17:51:55Z</time>
  <course>247.12</course>
  <speed>0.022360679774997897</speed>
  <fix>3d</fix>
</trkpt>
<trkpt lat="40.0713749" lon="-105.229789">
  <ele>1583.0</ele>
  <time>2026-08-28T17:51:55Z</time>
  <course>0.0</course>
  <speed>0.0</speed>
  <fix>3d</fix>
</trkpt>
<trkpt lat="40.0713751" lon="-105.2297889">
  <ele>1582.92</ele>
  <time>2026-08-28T17:51:55Z</time>
  <course>247.12</course>
  <speed>0.022360679774997897</speed>
  <fix>3d</fix>
</trkpt>
<trkpt lat="40.0713749" lon="-105.229789">
  <ele>1583.0</ele>
  <time>2026-08-28T17:51:55Z</time>
  <course>0.0</course>
  <speed>0.0</speed>
  <fix>3d</fix>
</trkpt>
<trkpt lat="40.0713751" lon="-105.2297889">
  <ele>1582.93</ele>
  <time>2026-08-28T17:51:55Z</time>
  <course>247.12</course>
  <speed>0.022360679774997897</speed>
  <fix>3d</fix>
</trkpt>
<trkpt lat="40.0713749" lon="-105.229789">
  <ele>1583.0</ele>
  <time>2026-08-28T17:51:55Z</time>
  <course>0.0</course>
  <speed>0.0</speed>
  <fix>3d</fix>
</trkpt>
<trkpt lat="40.0713751" lon="-105.2297889">
  <ele>1582.93</ele>
  <time>2026-08-28T17:51:55Z</time>
  <course>247.12</course>
  <speed>0.02</speed>
  <fix>3d</fix>
</trkpt>
<trkpt lat="40.0713749" lon="-105.229789">
  <ele>1583.0</ele>
  <time>2026-08-28T17:51:55Z</time>
  <course>0.0</course>
  <speed>0.0</speed>
  <fix>3d</fix>
</trkpt>
<trkpt lat="40.0713751" lon="-105.2297889">
  <ele>1582.94</ele>
  <time>2026-08-28T17:51:55Z</time>
  <course>247.12</course>
  <speed>0.022360679774997897</speed>
  <fix>3d</fix>
</trkpt>
<trkpt lat="40.0713749" lon="-105.229789">
  <ele>1583.0</ele>
  <time>2026-08-28T17:51:55Z</time>
  <course>0.0</course>
  <speed>0.0</speed>
  <fix>3d</fix>
</trkpt>
<trkpt lat="40.0713751" lon="-105.2297889">
  <ele>1582.94</ele>
  <time>2026-08-28T17:51:55Z</time>
  <course>247.12</course>
  <speed>0.02</speed>
  <fix>3d</fix>
</trkpt>
<trkpt lat="40.0713749" lon="-105.229789">
  <ele>1583.0</ele>
  <time>2026-08-28T17:51:55Z</time>
  <course>0.0</course>
  <speed>0.0</speed>
  <fix>3d</fix>
</trkpt>
<trkpt lat="40.0713751" lon="-105.2297889">
  <ele>1582.95</ele>
  <time>2026-08-28T17:51:55Z</time>
  <course>247.12</course>
  <speed>0.022360679774997897</speed>
  <fix>3d</fix>
</trkpt>
<trkpt lat="40.0713749" lon="-105.229789">
  <ele>1583.0</ele>
  <time>2026-08-28T17:51:55Z</time>
  <course>0.0</course>
  <speed>0.0</speed>
  <fix>3d</fix>
</trkpt>
<trkpt lat="40.0713751" lon="-105.2297889">
  <ele>1582.95</ele>
  <time>2026-08-28T17:51:55Z</time>
  <course>247.12</course>
  <speed>0.022360679774997897</speed>
  <fix>3d</fix>
</trkpt>
<trkpt lat="40.0713749" lon="-105.229789">
  <ele>1583.0</ele>
  <time>2026-08-28T17:51:55Z</time>
  <course>0.0</course>
  <speed>0.0</speed>
  <fix>3d</fix>
</trkpt>
<trkpt lat="40.0713751" lon="-105.2297889">
  <ele>1582.95</ele>
  <time>2026-08-28T17:51:55Z</time>
  <course>247.12</course>
  <speed>0.022360679774997897</speed>
  <fix>3d</fix>
</trkpt>
<trkpt lat="40.0713749" lon="-105.229789">
  <ele>1583.0</ele>
  <time>2026-08-28T17:51:55Z</time>
  <course>0.0</course>
  <speed>0.0</speed>
  <fix>3d</fix>
</trkpt>
<trkpt lat="40.0713751" lon="-105.2297889">
  <ele>1582.95</ele>
  <time>2026-08-28T17:51:55Z</time>
  <course>247.12</course>
  <speed>0.022360679774997897</speed>
  <fix>3d</fix>
</trkpt>
<trkpt lat="40.0713749" lon="-105.229789">
  <ele>1583.0</ele>
  <time>2026-08-28T17:51:55Z</time>
  <course>0.0</course>
  <speed>0.0</speed>
  <fix>3d</fix>
</trkpt>
<trkpt lat="40.0713751" lon="-105.2297889">
  <ele>1582.95</ele>
  <time>2026-08-28T17:51:55Z</time>
  <course>247.12</course>
  <speed>0.022360679774997897</speed>
  <fix>3d</fix>
</trkpt>
<trkpt lat="40.0713749" lon="-105.229789">
  <ele>1583.0</ele>
  <time>2026-08-28T17:51:55Z</time>
  <course>0.0</course>
  <speed>0.0</speed>
  <fix>3d</fix>
</trkpt>
<trkpt lat="40.0713751" lon="-105.2297889">
  <ele>1582.95</ele>
  <time>2026-08-28T17:51:55Z</time>
  <course>247.12</course>
  <speed>0.022360679774997897</speed>
  <fix>3d</fix>
</trkpt>
<trkpt lat="40.0713749" lon="-105.229789">
  <ele>1583.0</ele>
  <time>2026-08-28T17:51:55Z</time>
  <course>0.0</course>
  <speed>0.0</speed>
  <fix>3d</fix>
</trkpt>
<trkpt lat="40.0713751" lon="-105.2297889">
  <ele>1582.95</ele>
  <time>2026-08-28T17:51:55Z</time>
  <course>247.12</course>
  <speed>0.022360679774997897</speed>
  <fix>3d</fix>
</trkpt>
<trkpt lat="40.0713749" lon="-105.229789">
  <ele>1583.0</ele>
  <time>2026-08-28T17:51:55Z</time>
  <course>0.0</course>
  <speed>0.0</speed>
  <fix>3d</fix>
</trkpt>
<trkpt lat="40.0713751" lon="-105.2297889">
  <ele>1582.96</ele>
  <time>2026-08-28T17:51:55Z</time>
  <course>247.12</course>
  <speed>0.022360679774997897</speed>
  <fix>3d</fix>
</trkpt>
<trkpt lat="40.0713749" lon="-105.229789">
  <ele>1583.0</ele>
  <time>2026-08-28T17:51:55Z</time>
  <course>0.0</course>
  <speed>0.0</speed>
  <fix>3d</fix>
</trkpt>
<trkpt lat="40.0713751" lon="-105.2297889">
  <ele>1582.96</ele>
  <time>2026-08-28T17:51:55Z</time>
  <course>247.12</course>
  <speed>0.022360679774997897</speed>
  <fix>3d</fix>
</trkpt>
<trkpt lat="40.0713749" lon="-105.229789">
  <ele>1583.0</ele>
  <time>2026-08-28T17:51:55Z</time>
  <course>0.0</course>
  <speed>0.0</speed>
  <fix>3d</fix>
</trkpt>
<trkpt lat="40.0713751" lon="-105.2297889">
  <ele>1582.96</ele>
  <time>2026-08-28T17:51:55Z</time>
  <course>247.12</course>
  <speed>0.022360679774997897</speed>
  <fix>3d</fix>
</trkpt>
<trkpt lat="40.0713749" lon="-105.229789">
  <ele>1583.0</ele>
  <time>2026-08-28T17:51:55Z</time>
  <course>0.0</course>
  <speed>0.0</speed>
  <fix>3d</fix>
</trkpt>
<trkpt lat="40.0713751" lon="-105.2297889">
  <ele>1582.96</ele>
  <time>2026-08-28T17:51:55Z</time>
  <course>247.12</course>
  <speed>0.022360679774997897</speed>
  <fix>3d</fix>
</trkpt>
<trkpt lat="40.0713749" lon="-105.229789">
  <ele>1583.0</ele>
  <time>2026-08-28T17:51:55Z</time>
  <course>0.0</course>
  <speed>0.0</speed>
  <fix>3d</fix>
</trkpt>
<trkpt lat="40.0713751" lon="-105.2297889">
  <ele>1582.96</ele>
  <time>2026-08-28T17:51:55Z</time>
  <course>247.12</course>
  <speed>0.022360679774997897</speed>
  <fix>3d</fix>
</trkpt>
<trkpt lat="40.0713749" lon="-105.229789">
  <ele>1583.0</ele>
  <time>2026-08-28T17:51:55Z</time>
  <course>0.0</course>
  <speed>0.0</speed>
  <fix>3d</fix>
</trkpt>
<trkpt lat="40.0713751" lon="-105.2297889">
  <ele>1582.96</ele>
  <time>2026-08-28T17:51:55Z</time>
  <course>247.12</course>
  <speed>0.022360679774997897</speed>
  <fix>3d</fix>
</trkpt>
<trkpt lat="40.0713749" lon="-105.229789">
  <ele>1583.0</ele>
  <time>2026-08-28T17:51:55Z</time>
  <course>0.0</course>
  <speed>0.0</speed>
  <fix>3d</fix>
</trkpt>
<trkpt lat="40.0713751" lon="-105.2297889">
  <ele>1582.96</ele>
  <time>2026-08-28T17:51:55Z</time>
  <course>247.12</course>
  <speed>0.022360679774997897</speed>
  <fix>3d</fix>
</trkpt>
<trkpt lat="40.0713749" lon="-105.229789">
  <ele>1583.0</ele>
  <time>2026-08-28T17:51:55Z</time>
  <course>0.0</course>
  <speed>0.0</speed>
  <fix>3d</fix>
</trkpt>
<trkpt lat="40.0713751" lon="-105.2297889">
  <ele>1582.96</ele>
  <time>2026-08-28T17:51:55Z</time>
  <course>247.12</course>
  <speed>0.022360679774997897</speed>
  <fix>3d</fix>
</trkpt>
<trkpt lat="40.0713749" lon="-105.229789">
  <ele>1583.0</ele>
  <time>2026-08-28T17:51:55Z</time>
  <course>0.0</course>
  <speed>0.0</speed>
  <fix>3d</fix>
</trkpt>
<trkpt lat="40.0713751" lon="-105.2297889">
  <ele>1582.96</ele>
  <time>2026-08-28T17:51:55Z</time>
  <course>247.12</course>
  <speed>0.022360679774997897</speed>
  <fix>3d</fix>
</trkpt>
<trkpt lat="40.0713749" lon="-105.229789">
  <ele>1583.0</ele>
  <time>2026-08-28T17:51:55Z</time>
  <course>0.0</course>
  <speed>0.0</speed>
  <fix>3d</fix>
</trkpt>
<trkpt lat="40.0713751" lon="-105.2297889">
  <ele>1582.95</ele>
  <time>2026-08-28T17:51:55Z</time>
  <course>247.12</course>
  <speed>0.022360679774997897</speed>
  <fix>3d</fix>
</trkpt>
<trkpt lat="40.0713749" lon="-105.229789">
  <ele>1583.0</ele>
  <time>2026-08-28T17:51:55Z</time>
  <course>0.0</course>
  <speed>0.0</speed>
  <fix>3d</fix>
</trkpt>
<trkpt lat="40.0713751" lon="-105.2297889">
  <ele>1582.95</ele>
  <time>2026-08-28T17:51:55Z</time>
  <course>247.12</course>
  <speed>0.022360679774997897</speed>
  <fix>3d</fix>
</trkpt>
<trkpt lat="40.0713749" lon="-105.229789">
  <ele>1583.0</ele>
  <time>2026-08-28T17:51:55Z</time>
  <course>0.0</course>
  <speed>0.0</speed>
  <fix>3d</fix>
</trkpt>
<trkpt lat="40.0713751" lon="-105.2297889">
  <ele>1582.95</ele>
  <time>2026-08-28T17:51:55Z</time>
  <course>247.12</course>
  <speed>0.022360679774997897</speed>
  <fix>3d</fix>
</trkpt>
<trkpt lat="40.0713749" lon="-105.229789">
  <ele>1583.0</ele>
  <time>2026-08-28T17:51:55Z</time>
  <course>0.0</course>
  <speed>0.0</speed>
  <fix>3d</fix>
</trkpt>
<trkpt lat="40.0713751" lon="-105.2297889">
  <ele>1582.94</ele>
  <time>2026-08-28T17:51:55Z</time>
  <course>247.12</course>
  <speed>0.022360679774997897</speed>
  <fix>3d</fix>
</trkpt>
<trkpt lat="40.0713749" lon="-105.229789">
  <ele>1583.0</ele>
  <time>2026-08-28T17:51:55Z</time>
  <course>0.0</course>
  <speed>0.0</speed>
  <fix>3d</fix>
</trkpt>
<trkpt lat="40.0713751" lon="-105.2297889">
  <ele>1582.94</ele>
  <time>2026-08-28T17:51:55Z</time>
  <course>247.12</course>
  <speed>0.022360679774997897</speed>
  <fix>3d</fix>
</trkpt>
<trkpt lat="40.0713749" lon="-105.229789">
  <ele>1583.0</ele>
  <time>2026-08-28T17:51:55Z</time>
  <course>0.0</course>
  <speed>0.0</speed>
  <fix>3d</fix>
</trkpt>
<trkpt lat="40.0713751" lon="-105.2297889">
  <ele>1582.94</ele>
  <time>2026-08-28T17:51:55Z</time>
  <course>247.12</course>
  <speed>0.02</speed>
  <fix>3d</fix>
</trkpt>
<trkpt lat="40.0713749" lon="-105.229789">
  <ele>1583.0</ele>
  <time>2026-08-28T17:51:55Z</time>
  <course>0.0</course>
  <speed>0.0</speed>
  <fix>3d</fix>
</trkpt>
<trkpt lat="40.0713751" lon="-105.2297889">
  <ele>1582.93</ele>
  <time>2026-08-28T17:51:55Z</time>
  <course>247.12</course>
  <speed>0.022360679774997897</speed>
  <fix>3d</fix>
</trkpt>
<trkpt lat="40.0713749" lon="-105.229789">
  <ele>1583.0</ele>
  <time>2026-08-28T17:51:55Z</time>
  <course>0.0</course>
  <speed>0.0</speed>
  <fix>3d</fix>
</trkpt>
<trkpt lat="40.0713751" lon="-105.2297889">
  <ele>1582.94</ele>
  <time>2026-08-28T17:51:55Z</time>
  <course>247.12</course>
  <speed>0.02</speed>
  <fix>3d</fix>
</trkpt>
<trkpt lat="40.0713749" lon="-105.229789">
  <ele>1583.0</ele>
  <time>2026-08-28T17:51:55Z</time>
  <course>0.0</course>
  <speed>0.0</speed>
  <fix>3d</fix>
</trkpt>
<trkpt lat="40.0713751" lon="-105.2297889">
  <ele>1582.94</ele>
  <time>2026-08-28T17:51:55Z</time>
  <course>247.12</course>
  <speed>0.022360679774997897</speed>
  <fix>3d</fix>
</trkpt>
<trkpt lat="40.0713749" lon="-105.229789">
  <ele>1583.0</ele>
  <time>2026-08-28T17:51:55Z</time>
  <course>0.0</course>
  <speed>0.0</speed>
  <fix>3d</fix>
</trkpt>
<trkpt lat="40.0713751" lon="-105.2297889">
  <ele>1582.94</ele>
  <time>2026-08-28T17:51:55Z</time>
  <course>247.12</course>
  <speed>0.02</speed>
  <fix>3d</fix>
</trkpt>
<trkpt lat="40.0713749" lon="-105.229789">
  <ele>1583.0</ele>
  <time>2026-08-28T17:51:55Z</time>
  <course>0.0</course>
  <speed>0.0</speed>
  <fix>3d</fix>
</trkpt>
<trkpt lat="40.0713751" lon="-105.2297889">
  <ele>1582.94</ele>
  <time>2026-08-28T17:51:55Z</time>
  <course>247.12</course>
  <speed>0.022360679774997897</speed>
  <fix>3d</fix>
</trkpt>
<trkpt lat="40.0713749" lon="-105.229789">
  <ele>1583.0</ele>
  <time>2026-08-28T17:51:55Z</time>
  <course>0.0</course>
  <speed>0.0</speed>
  <fix>3d</fix>
</trkpt>
<trkpt lat="40.0713751" lon="-105.2297889">
  <ele>1582.94</ele>
  <time>2026-08-28T17:51:55Z</time>
  <course>247.12</course>
  <speed>0.02</speed>
  <fix>3d</fix>
</trkpt>
<trkpt lat="40.0713749" lon="-105.229789">
  <ele>1583.0</ele>
  <time>2026-08-28T17:51:55Z</time>
  <course>0.0</course>
  <speed>0.0</speed>
  <fix>3d</fix>
</trkpt>
<trkpt lat="40.0713751" lon="-105.2297889">
  <ele>1582.95</ele>
  <time>2026-08-28T17:51:55Z</time>
  <course>247.12</course>
  <speed>0.022360679774997897</speed>
  <fix>3d</fix>
</trkpt>
<trkpt lat="40.0713749" lon="-105.229789">
  <ele>1583.0</ele>
  <time>2026-08-28T17:51:55Z</time>
  <course>0.0</course>
  <speed>0.0</speed>
  <fix>3d</fix>
</trkpt>
<trkpt lat="40.0713751" lon="-105.2297889">
  <ele>1582.95</ele>
  <time>2026-08-28T17:51:55Z</time>
  <course>247.12</course>
  <speed>0.022360679774997897</speed>
  <fix>3d</fix>
</trkpt>
<trkpt lat="40.0713749" lon="-105.229789">
  <ele>1583.0</ele>
  <time>2026-08-28T17:51:55Z</time>
  <course>0.0</course>
  <speed>0.0</speed>
  <fix>3d</fix>
</trkpt>
<trkpt lat="40.0713751" lon="-105.2297889">
  <ele>1582.95</ele>
  <time>2026-08-28T17:51:55Z</time>
  <course>247.12</course>
  <speed>0.022360679774997897</speed>
  <fix>3d</fix>
</trkpt>
<trkpt lat="40.0713749" lon="-105.229789">
  <ele>1583.0</ele>
  <time>2026-08-28T17:51:55Z</time>
  <course>0.0</course>
  <speed>0.0</speed>
  <fix>3d</fix>
</trkpt>
<trkpt lat="40.0713751" lon="-105.2297889">
  <ele>1582.95</ele>
  <time>2026-08-28T17:51:55Z</time>
  <course>247.12</course>
  <speed>0.022360679774997897</speed>
  <fix>3d</fix>
</trkpt>
<trkpt lat="40.0713749" lon="-105.229789">
  <ele>1583.0</ele>
  <time>2026-08-28T17:51:55Z</time>
  <course>0.0</course>
  <speed>0.0</speed>
  <fix>3d</fix>
</trkpt>
<trkpt lat="40.0713751" lon="-105.2297889">
  <ele>1582.95</ele>
  <time>2026-08-28T17:51:55Z</time>
  <course>247.12</course>
  <speed>0.022360679774997897</speed>
  <fix>3d</fix>
</trkpt>
<trkpt lat="40.0713749" lon="-105.229789">
  <ele>1583.0</ele>
  <time>2026-08-28T17:51:55Z</time>
  <course>0.0</course>
  <speed>0.0</speed>
  <fix>3d</fix>
</trkpt>
<trkpt lat="40.0713751" lon="-105.2297889">
  <ele>1582.96</ele>
  <time>2026-08-28T17:51:55Z</time>
  <course>247.12</course>
  <speed>0.022360679774997897</speed>
  <fix>3d</fix>
</trkpt>
<trkpt lat="40.0713749" lon="-105.229789">
  <ele>1583.0</ele>
  <time>2026-08-28T17:51:55Z</time>
  <course>0.0</course>
  <speed>0.0</speed>
  <fix>3d</fix>
</trkpt>
<trkpt lat="40.0713751" lon="-105.2297889">
  <ele>1582.96</ele>
  <time>2026-08-28T17:51:55Z</time>
  <course>247.12</course>
  <speed>0.022360679774997897</speed>
  <fix>3d</fix>
</trkpt>
<trkpt lat="40.0713749" lon="-105.229789">
  <ele>1583.0</ele>
  <time>2026-08-28T17:51:55Z</time>
  <course>0.0</course>
  <speed>0.0</speed>
  <fix>3d</fix>
</trkpt>
<trkpt lat="40.0713751" lon="-105.2297889">
  <ele>1582.95</ele>
  <time>2026-08-28T17:51:55Z</time>
  <course>247.12</course>
  <speed>0.022360679774997897</speed>
  <fix>3d</fix>
</trkpt>
<trkpt lat="40.0713749" lon="-105.229789">
  <ele>1583.0</ele>
  <time>2026-08-28T17:51:55Z</time>
  <course>0.0</course>
  <speed>0.0</speed>
  <fix>3d</fix>
</trkpt>
<trkpt lat="40.0713751" lon="-105.2297889">
  <ele>1582.95</ele>
  <time>2026-08-28T17:51:55Z</time>
  <course>247.12</course>
  <speed>0.022360679774997897</speed>
  <fix>3d</fix>
</trkpt>
<trkpt lat="40.0713749" lon="-105.229789">
  <ele>1583.0</ele>
  <time>2026-08-28T17:51:55Z</time>
  <course>0.0</course>
  <speed>0.0</speed>
  <fix>3d</fix>
</trkpt>
<trkpt lat="40.0713751" lon="-105.2297889">
  <ele>1582.95</ele>
  <time>2026-08-28T17:51:55Z</time>
  <course>247.12</course>
  <speed>0.022360679774997897</speed>
  <fix>3d</fix>
</trkpt>
<trkpt lat="40.0713749" lon="-105.229789">
  <ele>1583.0</ele>
  <time>2026-08-28T17:51:55Z</time>
  <course>0.0</course>
  <speed>0.0</speed>
  <fix>3d</fix>
</trkpt>
<trkpt lat="40.0713751" lon="-105.2297889">
  <ele>1582.95</ele>
  <time>2026-08-28T17:51:55Z</time>
  <course>247.12</course>
  <speed>0.022360679774997897</speed>
  <fix>3d</fix>
</trkpt>
<trkpt lat="40.0713749" lon="-105.229789">
  <ele>1583.0</ele>
  <time>2026-08-28T17:51:55Z</time>
  <course>0.0</course>
  <speed>0.0</speed>
  <fix>3d</fix>
</trkpt>
<trkpt lat="40.0713751" lon="-105.2297889">
  <ele>1582.95</ele>
  <time>2026-08-28T17:51:55Z</time>
  <course>247.12</course>
  <speed>0.022360679774997897</speed>
  <fix>3d</fix>
</trkpt>
<trkpt lat="40.0713749" lon="-105.229789">
  <ele>1583.0</ele>
  <time>2026-08-28T17:51:55Z</time>
  <course>0.0</course>
  <speed>0.0</speed>
  <fix>3d</fix>
</trkpt>
<trkpt lat="40.0713751" lon="-105.2297889">
  <ele>1582.95</ele>
  <time>2026-08-28T17:51:55Z</time>
  <course>247.12</course>
  <speed>0.022360679774997897</speed>
  <fix>3d</fix>
</trkpt>
<trkpt lat="40.0713749" lon="-105.229789">
  <ele>1583.0</ele>
  <time>2026-08-28T17:51:55Z</time>
  <course>0.0</course>
  <speed>0.0</speed>
  <fix>3d</fix>
</trkpt>
<trkpt lat="40.0713751" lon="-105.2297889">
  <ele>1582.95</ele>
  <time>2026-08-28T17:51:55Z</time>
  <course>247.12</course>
  <speed>0.022360679774997897</speed>
  <fix>3d</fix>
</trkpt>
<trkpt lat="40.0713749" lon="-105.229789">
  <ele>1583.0</ele>
  <time>2026-08-28T17:51:55Z</time>
  <course>0.0</course>
  <speed>0.0</speed>
  <fix>3d</fix>
</trkpt>
<trkpt lat="40.0713751" lon="-105.2297889">
  <ele>1582.95</ele>
  <time>2026-08-28T17:51:55Z</time>
  <course>247.12</course>
  <speed>0.022360679774997897</speed>
  <fix>3d</fix>
</trkpt>
<trkpt lat="40.0713749" lon="-105.229789">
  <ele>1583.0</ele>
  <time>2026-08-28T17:51:55Z</time>
  <course>0.0</course>
  <speed>0.0</speed>
  <fix>3d</fix>
</trkpt>
<trkpt lat="40.0713751" lon="-105.2297889">
  <ele>1582.95</ele>
  <time>2026-08-28T17:51:55Z</time>
  <course>247.12</course>
  <speed>0.022360679774997897</speed>
  <fix>3d</fix>
</trkpt>
<trkpt lat="40.0713749" lon="-105.229789">
  <ele>1583.0</ele>
  <time>2026-08-28T17:51:55Z</time>
  <course>0.0</course>
  <speed>0.0</speed>
  <fix>3d</fix>
</trkpt>
<trkpt lat="40.0713751" lon="-105.2297889">
  <ele>1582.95</ele>
  <time>2026-08-28T17:51:55Z</time>
  <course>247.12</course>
  <speed>0.022360679774997897</speed>
  <fix>3d</fix>
</trkpt>
<trkpt lat="40.0713749" lon="-105.229789">
  <ele>1583.0</ele>
  <time>2026-08-28T17:51:55Z</time>
  <course>0.0</course>
  <speed>0.0</speed>
  <fix>3d</fix>
</trkpt>
<trkpt lat="40.0713751" lon="-105.2297889">
  <ele>1582.95</ele>
  <time>2026-08-28T17:51:55Z</time>
  <course>247.12</course>
  <speed>0.022360679774997897</speed>
  <fix>3d</fix>
</trkpt>
<trkpt lat="40.0713749" lon="-105.229789">
  <ele>1583.0</ele>
  <time>2026-08-28T17:51:55Z</time>
  <course>0.0</course>
  <speed>0.0</speed>
  <fix>3d</fix>
</trkpt>
<trkpt lat="40.0713751" lon="-105.2297889">
  <ele>1582.95</ele>
  <time>2026-08-28T17:51:55Z</time>
  <course>247.12</course>
  <speed>0.022360679774997897</speed>
  <fix>3d</fix>
</trkpt>
<trkpt lat="40.0713749" lon="-105.229789">
  <ele>1583.0</ele>
  <time>2026-08-28T17:51:55Z</time>
  <course>0.0</course>
  <speed>0.0</speed>
  <fix>3d</fix>
</trkpt>
<trkpt lat="40.0713751" lon="-105.2297889">
  <ele>1582.95</ele>
  <time>2026-08-28T17:51:55Z</time>
  <course>247.12</course>
  <speed>0.022360679774997897</speed>
  <fix>3d</fix>
</trkpt>
<trkpt lat="40.0713749" lon="-105.229789">
  <ele>1583.0</ele>
  <time>2026-08-28T17:51:55Z</time>
  <course>0.0</course>
  <speed>0.0</speed>
  <fix>3d</fix>
</trkpt>
<trkpt lat="40.0713751" lon="-105.2297889">
  <ele>1582.95</ele>
  <time>2026-08-28T17:51:55Z</time>
  <course>247.12</course>
  <speed>0.022360679774997897</speed>
  <fix>3d</fix>
</trkpt>
<trkpt lat="40.0713749" lon="-105.229789">
  <ele>1583.0</ele>
  <time>2026-08-28T17:51:55Z</time>
  <course>0.0</course>
  <speed>0.0</speed>
  <fix>3d</fix>
</trkpt>
<trkpt lat="40.0713751" lon="-105.2297889">
  <ele>1582.94</ele>
  <time>2026-08-28T17:51:55Z</time>
  <course>247.12</course>
  <speed>0.022360679774997897</speed>
  <fix>3d</fix>
</trkpt>
<trkpt lat="40.0713749" lon="-105.229789">
  <ele>1583.0</ele>
  <time>2026-08-28T17:51:55Z</time>
  <course>0.0</course>
  <speed>0.0</speed>
  <fix>3d</fix>
</trkpt>
<trkpt lat="40.0713751" lon="-105.2297889">
  <ele>1582.94</ele>
  <time>2026-08-28T17:51:55Z</time>
  <course>247.12</course>
  <speed>0.022360679774997897</speed>
  <fix>3d</fix>
</trkpt>
<trkpt lat="40.0713749" lon="-105.229789">
  <ele>1583.0</ele>
  <time>2026-08-28T17:51:55Z</time>
  <course>0.0</course>
  <speed>0.0</speed>
  <fix>3d</fix>
</trkpt>
<trkpt lat="40.0713751" lon="-105.2297889">
  <ele>1582.94</ele>
  <time>2026-08-28T17:51:55Z</time>
  <course>247.12</course>
  <speed>0.022360679774997897</speed>
  <fix>3d</fix>
</trkpt>
<trkpt lat="40.0713749" lon="-105.229789">
  <ele>1583.0</ele>
  <time>2026-08-28T17:51:55Z</time>
  <course>0.0</course>
  <speed>0.0</speed>
  <fix>3d</fix>
</trkpt>
<trkpt lat="40.0713751" lon="-105.2297889">
  <ele>1582.94</ele>
  <time>2026-08-28T17:51:55Z</time>
  <course>247.12</course>
  <speed>0.022360679774997897</speed>
  <fix>3d</fix>
</trkpt>
<trkpt lat="40.0713749" lon="-105.229789">
  <ele>1583.0</ele>
  <time>2026-08-28T17:51:55Z</time>
  <course>0.0</course>
  <speed>0.0</speed>
  <fix>3d</fix>
</trkpt>
<trkpt lat="40.0713751" lon="-105.2297889">
  <ele>1582.94</ele>
  <time>2026-08-28T17:51:55Z</time>
  <course>247.12</course>
  <speed>0.022360679774997897</speed>
  <fix>3d</fix>
</trkpt>
<trkpt lat="40.0713749" lon="-105.229789">
  <ele>1583.0</ele>
  <time>2026-08-28T17:51:55Z</time>
  <course>0.0</course>
  <speed>0.0</speed>
  <fix>3d</fix>
</trkpt>
<trkpt lat="40.0713751" lon="-105.2297889">
  <ele>1582.94</ele>
  <time>2026-08-28T17:51:55Z</time>
  <course>247.12</course>
  <speed>0.022360679774997897</speed>
  <fix>3d</fix>
</trkpt>
<trkpt lat="40.0713749" lon="-105.229789">
  <ele>1583.0</ele>
  <time>2026-08-28T17:51:55Z</time>
  <course>0.0</course>
  <speed>0.0</speed>
  <fix>3d</fix>
</trkpt>
<trkpt lat="40.0713751" lon="-105.2297889">
  <ele>1582.94</ele>
  <time>2026-08-28T17:51:55Z</time>
  <course>247.12</course>
  <speed>0.022360679774997897</speed>
  <fix>3d</fix>
</trkpt>
<trkpt lat="40.0713749" lon="-105.229789">
  <ele>1583.0</ele>
  <time>2026-08-28T17:51:55Z</time>
  <course>0.0</course>
  <speed>0.0</speed>
  <fix>3d</fix>
</trkpt>
<trkpt lat="40.0713751" lon="-105.2297889">
  <ele>1582.94</ele>
  <time>2026-08-28T17:51:55Z</time>
  <course>247.12</course>
  <speed>0.022360679774997897</speed>
  <fix>3d</fix>
</trkpt>
<trkpt lat="40.0713749" lon="-105.229789">
  <ele>1583.0</ele>
  <time>2026-08-28T17:51:55Z</time>
  <course>0.0</course>
  <speed>0.0</speed>
  <fix>3d</fix>
</trkpt>
<trkpt lat="40.0713751" lon="-105.2297889">
  <ele>1582.94</ele>
  <time>2026-08-28T17:51:55Z</time>
  <course>247.12</course>
  <speed>0.022360679774997897</speed>
  <fix>3d</fix>
</trkpt>
<trkpt lat="40.0713749" lon="-105.229789">
  <ele>1583.0</ele>
  <time>2026-08-28T17:51:55Z</time>
  <course>0.0</course>
  <speed>0.0</speed>
  <fix>3d</fix>
</trkpt>
<trkpt lat="40.0713751" lon="-105.2297889">
  <ele>1582.94</ele>
  <time>2026-08-28T17:51:55Z</time>
  <course>247.12</course>
  <speed>0.022360679774997897</speed>
  <fix>3d</fix>
</trkpt>
<trkpt lat="40.0713749" lon="-105.229789">
  <ele>1583.0</ele>
  <time>2026-08-28T17:51:55Z</time>
  <course>0.0</course>
  <speed>0.0</speed>
  <fix>3d</fix>
</trkpt>
<trkpt lat="40.0713751" lon="-105.2297889">
  <ele>1582.94</ele>
  <time>2026-08-28T17:51:55Z</time>
  <course>247.12</course>
  <speed>0.022360679774997897</speed>
  <fix>3d</fix>
</trkpt>
<trkpt lat="40.0713749" lon="-105.229789">
  <ele>1583.0</ele>
  <time>2026-08-28T17:51:55Z</time>
  <course>0.0</course>
  <speed>0.0</speed>
  <fix>3d</fix>
</trkpt>
<trkpt lat="40.0713751" lon="-105.2297889">
  <ele>1582.94</ele>
  <time>2026-08-28T17:51:55Z</time>
  <course>247.12</course>
  <speed>0.022360679774997897</speed>
  <fix>3d</fix>
</trkpt>
<trkpt lat="40.0713749" lon="-105.229789">
  <ele>1583.0</ele>
  <time>2026-08-28T17:51:55Z</time>
  <course>0.0</course>
  <speed>0.0</speed>
  <fix>3d</fix>
</trkpt>
<trkpt lat="40.0713751" lon="-105.2297889">
  <ele>1582.94</ele>
  <time>2026-08-28T17:51:55Z</time>
  <course>247.12</course>
  <speed>0.022360679774997897</speed>
  <fix>3d</fix>
</trkpt>
<trkpt lat="40.0713749" lon="-105.229789">
  <ele>1583.0</ele>
  <time>2026-08-28T17:51:55Z</time>
  <course>0.0</course>
  <speed>0.0</speed>
  <fix>3d</fix>
</trkpt>
<trkpt lat="40.0713751" lon="-105.2297889">
  <ele>1582.94</ele>
  <time>2026-08-28T17:51:55Z</time>
  <course>247.12</course>
  <speed>0.022360679774997897</speed>
  <fix>3d</fix>
</trkpt>
<trkpt lat="40.0713749" lon="-105.229789">
  <ele>1583.0</ele>
  <time>2026-08-28T17:51:55Z</time>
  <course>0.0</course>
  <speed>0.0</speed>
  <fix>3d</fix>
</trkpt>
<trkpt lat="40.0713751" lon="-105.2297889">
  <ele>1582.95</ele>
  <time>2026-08-28T17:51:55Z</time>
  <course>247.12</course>
  <speed>0.022360679774997897</speed>
  <fix>3d</fix>
</trkpt>
<trkpt lat="40.0713749" lon="-105.229789">
  <ele>1583.0</ele>
  <time>2026-08-28T17:51:55Z</time>
  <course>0.0</course>
  <speed>0.0</speed>
  <fix>3d</fix>
</trkpt>
<trkpt lat="40.0713751" lon="-105.2297889">
  <ele>1582.95</ele>
  <time>2026-08-28T17:51:55Z</time>
  <course>247.12</course>
  <speed>0.022360679774997897</speed>
  <fix>3d</fix>
</trkpt>
<trkpt lat="40.0713749" lon="-105.229789">
  <ele>1583.0</ele>
  <time>2026-08-28T17:51:55Z</time>
  <course>0.0</course>
  <speed>0.0</speed>
  <fix>3d</fix>
</trkpt>
<trkpt lat="40.0713751" lon="-105.2297889">
  <ele>1582.95</ele>
  <time>2026-08-28T17:51:55Z</time>
  <course>247.12</course>
  <speed>0.022360679774997897</speed>
  <fix>3d</fix>
</trkpt>
<trkpt lat="40.0713749" lon="-105.229789">
  <ele>1583.0</ele>
  <time>2026-08-28T17:51:55Z</time>
  <course>0.0</course>
  <speed>0.0</speed>
  <fix>3d</fix>
</trkpt>
<trkpt lat="40.0713751" lon="-105.2297889">
  <ele>1582.95</ele>
  <time>2026-08-28T17:51:55Z</time>
  <course>247.12</course>
  <speed>0.022360679774997897</speed>
  <fix>3d</fix>
</trkpt>
<trkpt lat="40.0713749" lon="-105.229789">
  <ele>1583.0</ele>
  <time>2026-08-28T17:51:55Z</time>
  <course>0.0</course>
  <speed>0.0</speed>
  <fix>3d</fix>
</trkpt>
<trkpt lat="40.0713751" lon="-105.2297889">
  <ele>1582.95</ele>
  <time>2026-08-28T17:51:55Z</time>
  <course>247.12</course>
  <speed>0.022360679774997897</speed>
  <fix>3d</fix>
</trkpt>
<trkpt lat="40.0713749" lon="-105.229789">
  <ele>1583.0</ele>
  <time>2026-08-28T17:51:55Z</time>
  <course>0.0</course>
  <speed>0.0</speed>
  <fix>3d</fix>
</trkpt>
<trkpt lat="40.0713751" lon="-105.2297889">
  <ele>1582.95</ele>
  <time>2026-08-28T17:51:55Z</time>
  <course>247.12</course>
  <speed>0.022360679774997897</speed>
  <fix>3d</fix>
</trkpt>
<trkpt lat="40.0713749" lon="-105.229789">
  <ele>1583.0</ele>
  <time>2026-08-28T17:51:55Z</time>
  <course>0.0</course>
  <speed>0.0</speed>
  <fix>3d</fix>
</trkpt>
<trkpt lat="40.0713751" lon="-105.2297889">
  <ele>1582.95</ele>
  <time>2026-08-28T17:51:55Z</time>
  <course>247.12</course>
  <speed>0.022360679774997897</speed>
  <fix>3d</fix>
</trkpt>
<trkpt lat="40.0713749" lon="-105.229789">
  <ele>1583.0</ele>
  <time>2026-08-28T17:51:55Z</time>
  <course>0.0</course>
  <speed>0.0</speed>
  <fix>3d</fix>
</trkpt>
<trkpt lat="40.0713751" lon="-105.2297889">
  <ele>1582.95</ele>
  <time>2026-08-28T17:51:55Z</time>
  <course>247.12</course>
  <speed>0.022360679774997897</speed>
  <fix>3d</fix>
</trkpt>
<trkpt lat="40.0713749" lon="-105.229789">
  <ele>1583.0</ele>
  <time>2026-08-28T17:51:55Z</time>
  <course>0.0</course>
  <speed>0.0</speed>
  <fix>3d</fix>
</trkpt>
<trkpt lat="40.0713751" lon="-105.2297889">
  <ele>1582.95</ele>
  <time>2026-08-28T17:51:55Z</time>
  <course>247.12</course>
  <speed>0.022360679774997897</speed>
  <fix>3d</fix>
</trkpt>
<trkpt lat="40.0713749" lon="-105.229789">
  <ele>1583.0</ele>
  <time>2026-08-28T17:51:55Z</time>
  <course>0.0</course>
  <speed>0.0</speed>
  <fix>3d</fix>
</trkpt>
<trkpt lat="40.0713751" lon="-105.2297889">
  <ele>1582.95</ele>
  <time>2026-08-28T17:51:55Z</time>
  <course>247.12</course>
  <speed>0.022360679774997897</speed>
  <fix>3d</fix>
</trkpt>
<trkpt lat="40.0713749" lon="-105.229789">
  <ele>1583.0</ele>
  <time>2026-08-28T17:51:55Z</time>
  <course>0.0</course>
  <speed>0.0</speed>
  <fix>3d</fix>
</trkpt>
<trkpt lat="40.0713751" lon="-105.2297889">
  <ele>1582.95</ele>
  <time>2026-08-28T17:51:55Z</time>
  <course>247.12</course>
  <speed>0.022360679774997897</speed>
  <fix>3d</fix>
</trkpt>
<trkpt lat="40.0713749" lon="-105.229789">
  <ele>1583.0</ele>
  <time>2026-08-28T17:51:55Z</time>
  <course>0.0</course>
  <speed>0.0</speed>
  <fix>3d</fix>
</trkpt>
<trkpt lat="40.0713751" lon="-105.2297889">
  <ele>1582.96</ele>
  <time>2026-08-28T17:51:56Z</time>
  <course>247.12</course>
  <speed>0.022360679774997897</speed>
  <fix>3d</fix>
</trkpt>
<trkpt lat="40.0713749" lon="-105.229789">
  <ele>1583.0</ele>
  <time>2026-08-28T17:51:56Z</time>
  <course>0.0</course>
  <speed>0.0</speed>
  <fix>3d</fix>
</trkpt>
<trkpt lat="40.0713751" lon="-105.2297889">
  <ele>1582.96</ele>
  <time>2026-08-28T17:51:56Z</time>
  <course>247.12</course>
  <speed>0.022360679774997897</speed>
  <fix>3d</fix>
</trkpt>
<trkpt lat="40.0713749" lon="-105.229789">
  <ele>1583.0</ele>
  <time>2026-08-28T17:51:56Z</time>
  <course>0.0</course>
  <speed>0.0</speed>
  <fix>3d</fix>
</trkpt>
<trkpt lat="40.0713751" lon="-105.2297889">
  <ele>1582.96</ele>
  <time>2026-08-28T17:51:56Z</time>
  <course>247.12</course>
  <speed>0.022360679774997897</speed>
  <fix>3d</fix>
</trkpt>
<trkpt lat="40.0713749" lon="-105.229789">
  <ele>1583.0</ele>
  <time>2026-08-28T17:51:56Z</time>
  <course>0.0</course>
  <speed>0.0</speed>
  <fix>3d</fix>
</trkpt>
<trkpt lat="40.0713751" lon="-105.2297889">
  <ele>1582.96</ele>
  <time>2026-08-28T17:51:56Z</time>
  <course>247.12</course>
  <speed>0.022360679774997897</speed>
  <fix>3d</fix>
</trkpt>
<trkpt lat="40.0713749" lon="-105.229789">
  <ele>1583.0</ele>
  <time>2026-08-28T17:51:56Z</time>
  <course>0.0</course>
  <speed>0.0</speed>
  <fix>3d</fix>
</trkpt>
<trkpt lat="40.0713751" lon="-105.2297889">
  <ele>1582.96</ele>
  <time>2026-08-28T17:51:56Z</time>
  <course>247.12</course>
  <speed>0.022360679774997897</speed>
  <fix>3d</fix>
</trkpt>
<trkpt lat="40.0713749" lon="-105.229789">
  <ele>1583.0</ele>
  <time>2026-08-28T17:51:56Z</time>
  <course>0.0</course>
  <speed>0.0</speed>
  <fix>3d</fix>
</trkpt>
<trkpt lat="40.0713751" lon="-105.2297889">
  <ele>1582.96</ele>
  <time>2026-08-28T17:51:56Z</time>
  <course>247.12</course>
  <speed>0.022360679774997897</speed>
  <fix>3d</fix>
</trkpt>
<trkpt lat="40.0713749" lon="-105.229789">
  <ele>1583.0</ele>
  <time>2026-08-28T17:51:56Z</time>
  <course>0.0</course>
  <speed>0.0</speed>
  <fix>3d</fix>
</trkpt>
<trkpt lat="40.0713751" lon="-105.2297889">
  <ele>1582.96</ele>
  <time>2026-08-28T17:51:56Z</time>
  <course>247.12</course>
  <speed>0.022360679774997897</speed>
  <fix>3d</fix>
</trkpt>
<trkpt lat="40.0713749" lon="-105.229789">
  <ele>1583.0</ele>
  <time>2026-08-28T17:51:56Z</time>
  <course>0.0</course>
  <speed>0.0</speed>
  <fix>3d</fix>
</trkpt>
<trkpt lat="40.0713751" lon="-105.2297889">
  <ele>1582.96</ele>
  <time>2026-08-28T17:51:56Z</time>
  <course>247.12</course>
  <speed>0.022360679774997897</speed>
  <fix>3d</fix>
</trkpt>
<trkpt lat="40.0713749" lon="-105.229789">
  <ele>1583.0</ele>
  <time>2026-08-28T17:51:56Z</time>
  <course>0.0</course>
  <speed>0.0</speed>
  <fix>3d</fix>
</trkpt>
<trkpt lat="40.0713751" lon="-105.2297889">
  <ele>1582.96</ele>
  <time>2026-08-28T17:51:56Z</time>
  <course>247.12</course>
  <speed>0.022360679774997897</speed>
  <fix>3d</fix>
</trkpt>
<trkpt lat="40.0713749" lon="-105.229789">
  <ele>1583.0</ele>
  <time>2026-08-28T17:51:56Z</time>
  <course>0.0</course>
  <speed>0.0</speed>
  <fix>3d</fix>
</trkpt>
<trkpt lat="40.0713751" lon="-105.2297889">
  <ele>1582.95</ele>
  <time>2026-08-28T17:51:56Z</time>
  <course>247.12</course>
  <speed>0.022360679774997897</speed>
  <fix>3d</fix>
</trkpt>
<trkpt lat="40.0713749" lon="-105.229789">
  <ele>1583.0</ele>
  <time>2026-08-28T17:51:56Z</time>
  <course>0.0</course>
  <speed>0.0</speed>
  <fix>3d</fix>
</trkpt>
<trkpt lat="40.0713751" lon="-105.2297889">
  <ele>1582.95</ele>
  <time>2026-08-28T17:51:56Z</time>
  <course>247.12</course>
  <speed>0.022360679774997897</speed>
  <fix>3d</fix>
</trkpt>
<trkpt lat="40.0713749" lon="-105.229789">
  <ele>1583.0</ele>
  <time>2026-08-28T17:51:56Z</time>
  <course>0.0</course>
  <speed>0.0</speed>
  <fix>3d</fix>
</trkpt>
<trkpt lat="40.0713751" lon="-105.2297889">
  <ele>1582.95</ele>
  <time>2026-08-28T17:51:56Z</time>
  <course>247.12</course>
  <speed>0.022360679774997897</speed>
  <fix>3d</fix>
</trkpt>
<trkpt lat="40.0713749" lon="-105.229789">
  <ele>1583.0</ele>
  <time>2026-08-28T17:51:56Z</time>
  <course>0.0</course>
  <speed>0.0</speed>
  <fix>3d</fix>
</trkpt>
<trkpt lat="40.0713751" lon="-105.2297889">
  <ele>1582.94</ele>
  <time>2026-08-28T17:51:56Z</time>
  <course>247.12</course>
  <speed>0.022360679774997897</speed>
  <fix>3d</fix>
</trkpt>
<trkpt lat="40.0713749" lon="-105.229789">
  <ele>1583.0</ele>
  <time>2026-08-28T17:51:56Z</time>
  <course>0.0</course>
  <speed>0.0</speed>
  <fix>3d</fix>
</trkpt>
<trkpt lat="40.0713751" lon="-105.2297889">
  <ele>1582.94</ele>
  <time>2026-08-28T17:51:56Z</time>
  <course>247.12</course>
  <speed>0.022360679774997897</speed>
  <fix>3d</fix>
</trkpt>
<trkpt lat="40.0713749" lon="-105.229789">
  <ele>1583.0</ele>
  <time>2026-08-28T17:51:56Z</time>
  <course>0.0</course>
  <speed>0.0</speed>
  <fix>3d</fix>
</trkpt>
<trkpt lat="40.0713751" lon="-105.2297889">
  <ele>1582.94</ele>
  <time>2026-08-28T17:51:56Z</time>
  <course>247.12</course>
  <speed>0.022360679774997897</speed>
  <fix>3d</fix>
</trkpt>
<trkpt lat="40.0713749" lon="-105.229789">
  <ele>1583.0</ele>
  <time>2026-08-28T17:51:56Z</time>
  <course>0.0</course>
  <speed>0.0</speed>
  <fix>3d</fix>
</trkpt>
<trkpt lat="40.0713751" lon="-105.2297889">
  <ele>1582.95</ele>
  <time>2026-08-28T17:51:56Z</time>
  <course>247.12</course>
  <speed>0.022360679774997897</speed>
  <fix>3d</fix>
</trkpt>
<trkpt lat="40.0713749" lon="-105.229789">
  <ele>1583.0</ele>
  <time>2026-08-28T17:51:56Z</time>
  <course>0.0</course>
  <speed>0.0</speed>
  <fix>3d</fix>
</trkpt>
<trkpt lat="40.0713751" lon="-105.2297889">
  <ele>1582.95</ele>
  <time>2026-08-28T17:51:56Z</time>
  <course>247.12</course>
  <speed>0.022360679774997897</speed>
  <fix>3d</fix>
</trkpt>
<trkpt lat="40.0713749" lon="-105.229789">
  <ele>1583.0</ele>
  <time>2026-08-28T17:51:56Z</time>
  <course>0.0</course>
  <speed>0.0</speed>
  <fix>3d</fix>
</trkpt>
<trkpt lat="40.0713751" lon="-105.2297889">
  <ele>1582.95</ele>
  <time>2026-08-28T17:51:56Z</time>
  <course>247.12</course>
  <speed>0.022360679774997897</speed>
  <fix>3d</fix>
</trkpt>
<trkpt lat="40.0713749" lon="-105.229789">
  <ele>1583.0</ele>
  <time>2026-08-28T17:51:56Z</time>
  <course>0.0</course>
  <speed>0.0</speed>
  <fix>3d</fix>
</trkpt>
<trkpt lat="40.0713751" lon="-105.2297889">
  <ele>1582.95</ele>
  <time>2026-08-28T17:51:56Z</time>
  <course>247.12</course>
  <speed>0.022360679774997897</speed>
  <fix>3d</fix>
</trkpt>
<trkpt lat="40.0713749" lon="-105.229789">
  <ele>1583.0</ele>
  <time>2026-08-28T17:51:56Z</time>
  <course>0.0</course>
  <speed>0.0</speed>
  <fix>3d</fix>
</trkpt>
<trkpt lat="40.0713751" lon="-105.2297889">
  <ele>1582.96</ele>
  <time>2026-08-28T17:51:56Z</time>
  <course>247.12</course>
  <speed>0.022360679774997897</speed>
  <fix>3d</fix>
</trkpt>
<trkpt lat="40.0713749" lon="-105.229789">
  <ele>1583.0</ele>
  <time>2026-08-28T17:51:56Z</time>
  <course>0.0</course>
  <speed>0.0</speed>
  <fix>3d</fix>
</trkpt>
<trkpt lat="40.0713751" lon="-105.2297889">
  <ele>1582.96</ele>
  <time>2026-08-28T17:51:56Z</time>
  <course>247.12</course>
  <speed>0.022360679774997897</speed>
  <fix>3d</fix>
</trkpt>
<trkpt lat="40.0713749" lon="-105.229789">
  <ele>1583.0</ele>
  <time>2026-08-28T17:51:56Z</time>
  <course>0.0</course>
  <speed>0.0</speed>
  <fix>3d</fix>
</trkpt>
<trkpt lat="40.0713751" lon="-105.2297889">
  <ele>1582.96</ele>
  <time>2026-08-28T17:51:56Z</time>
  <course>247.12</course>
  <speed>0.022360679774997897</speed>
  <fix>3d</fix>
</trkpt>
<trkpt lat="40.0713749" lon="-105.229789">
  <ele>1583.0</ele>
  <time>2026-08-28T17:51:56Z</time>
  <course>0.0</course>
  <speed>0.0</speed>
  <fix>3d</fix>
</trkpt>
<trkpt lat="40.0713751" lon="-105.2297889">
  <ele>1582.96</ele>
  <time>2026-08-28T17:51:56Z</time>
  <course>247.12</course>
  <speed>0.022360679774997897</speed>
  <fix>3d</fix>
</trkpt>
<trkpt lat="40.0713749" lon="-105.229789">
  <ele>1583.0</ele>
  <time>2026-08-28T17:51:56Z</time>
  <course>0.0</course>
  <speed>0.0</speed>
  <fix>3d</fix>
</trkpt>
<trkpt lat="40.0713751" lon="-105.2297889">
  <ele>1582.96</ele>
  <time>2026-08-28T17:51:56Z</time>
  <course>247.12</course>
  <speed>0.022360679774997897</speed>
  <fix>3d</fix>
</trkpt>
<trkpt lat="40.0713749" lon="-105.229789">
  <ele>1583.0</ele>
  <time>2026-08-28T17:51:56Z</time>
  <course>0.0</course>
  <speed>0.0</speed>
  <fix>3d</fix>
</trkpt>
<trkpt lat="40.0713751" lon="-105.2297889">
  <ele>1582.96</ele>
  <time>2026-08-28T17:51:56Z</time>
  <course>247.12</course>
  <speed>0.022360679774997897</speed>
  <fix>3d</fix>
</trkpt>
<trkpt lat="40.0713749" lon="-105.229789">
  <ele>1583.0</ele>
  <time>2026-08-28T17:51:56Z</time>
  <course>0.0</course>
  <speed>0.0</speed>
  <fix>3d</fix>
</trkpt>
<trkpt lat="40.0713751" lon="-105.2297889">
  <ele>1582.96</ele>
  <time>2026-08-28T17:51:56Z</time>
  <course>247.12</course>
  <speed>0.022360679774997897</speed>
  <fix>3d</fix>
</trkpt>
<trkpt lat="40.0713749" lon="-105.229789">
  <ele>1583.0</ele>
  <time>2026-08-28T17:51:56Z</time>
  <course>0.0</course>
  <speed>0.0</speed>
  <fix>3d</fix>
</trkpt>
<trkpt lat="40.0713751" lon="-105.2297889">
  <ele>1582.96</ele>
  <time>2026-08-28T17:51:56Z</time>
  <course>247.12</course>
  <speed>0.022360679774997897</speed>
  <fix>3d</fix>
</trkpt>
<trkpt lat="40.0713749" lon="-105.229789">
  <ele>1583.0</ele>
  <time>2026-08-28T17:51:56Z</time>
  <course>0.0</course>
  <speed>0.0</speed>
  <fix>3d</fix>
</trkpt>
<trkpt lat="40.0713751" lon="-105.2297889">
  <ele>1582.96</ele>
  <time>2026-08-28T17:51:56Z</time>
  <course>247.12</course>
  <speed>0.022360679774997897</speed>
  <fix>3d</fix>
</trkpt>
<trkpt lat="40.0713749" lon="-105.229789">
  <ele>1583.0</ele>
  <time>2026-08-28T17:51:56Z</time>
  <course>0.0</course>
  <speed>0.0</speed>
  <fix>3d</fix>
</trkpt>
<trkpt lat="40.0713751" lon="-105.2297889">
  <ele>1582.96</ele>
  <time>2026-08-28T17:51:56Z</time>
  <course>247.11</course>
  <speed>0.022360679774997897</speed>
  <fix>3d</fix>
</trkpt>
<trkpt lat="40.0713749" lon="-105.229789">
  <ele>1583.0</ele>
  <time>2026-08-28T17:51:56Z</time>
  <course>0.0</course>
  <speed>0.0</speed>
  <fix>3d</fix>
</trkpt>
<trkpt lat="40.0713751" lon="-105.2297889">
  <ele>1582.96</ele>
  <time>2026-08-28T17:51:56Z</time>
  <course>247.11</course>
  <speed>0.022360679774997897</speed>
  <fix>3d</fix>
</trkpt>
<trkpt lat="40.0713749" lon="-105.229789">
  <ele>1583.0</ele>
  <time>2026-08-28T17:51:56Z</time>
  <course>0.0</course>
  <speed>0.0</speed>
  <fix>3d</fix>
</trkpt>
<trkpt lat="40.0713751" lon="-105.2297889">
  <ele>1582.96</ele>
  <time>2026-08-28T17:51:56Z</time>
  <course>247.11</course>
  <speed>0.022360679774997897</speed>
  <fix>3d</fix>
</trkpt>
<trkpt lat="40.0713749" lon="-105.229789">
  <ele>1583.0</ele>
  <time>2026-08-28T17:51:56Z</time>
  <course>0.0</course>
  <speed>0.0</speed>
  <fix>3d</fix>
</trkpt>
<trkpt lat="40.071375" lon="-105.2297889">
  <ele>1582.96</ele>
  <time>2026-08-28T17:51:56Z</time>
  <course>247.11</course>
  <speed>0.022360679774997897</speed>
  <fix>3d</fix>
</trkpt>
<trkpt lat="40.0713749" lon="-105.229789">
  <ele>1583.0</ele>
  <time>2026-08-28T17:51:56Z</time>
  <course>0.0</course>
  <speed>0.0</speed>
  <fix>3d</fix>
</trkpt>
<trkpt lat="40.0713751" lon="-105.2297889">
  <ele>1582.96</ele>
  <time>2026-08-28T17:51:56Z</time>
  <course>247.11</course>
  <speed>0.022360679774997897</speed>
  <fix>3d</fix>
</trkpt>
<trkpt lat="40.0713749" lon="-105.229789">
  <ele>1583.0</ele>
  <time>2026-08-28T17:51:56Z</time>
  <course>0.0</course>
  <speed>0.0</speed>
  <fix>3d</fix>
</trkpt>
<trkpt lat="40.071375" lon="-105.2297889">
  <ele>1582.96</ele>
  <time>2026-08-28T17:51:56Z</time>
  <course>247.11</course>
  <speed>0.022360679774997897</speed>
  <fix>3d</fix>
</trkpt>
<trkpt lat="40.0713749" lon="-105.229789">
  <ele>1583.0</ele>
  <time>2026-08-28T17:51:56Z</time>
  <course>0.0</course>
  <speed>0.0</speed>
  <fix>3d</fix>
</trkpt>
<trkpt lat="40.0713751" lon="-105.2297889">
  <ele>1582.96</ele>
  <time>2026-08-28T17:51:56Z</time>
  <course>247.11</course>
  <speed>0.022360679774997897</speed>
  <fix>3d</fix>
</trkpt>
<trkpt lat="40.0713749" lon="-105.229789">
  <ele>1583.0</ele>
  <time>2026-08-28T17:51:56Z</time>
  <course>0.0</course>
  <speed>0.0</speed>
  <fix>3d</fix>
</trkpt>
<trkpt lat="40.071375" lon="-105.2297889">
  <ele>1582.96</ele>
  <time>2026-08-28T17:51:56Z</time>
  <course>247.11</course>
  <speed>0.022360679774997897</speed>
  <fix>3d</fix>
</trkpt>
<trkpt lat="40.0713749" lon="-105.229789">
  <ele>1583.0</ele>
  <time>2026-08-28T17:51:56Z</time>
  <course>0.0</course>
  <speed>0.0</speed>
  <fix>3d</fix>
</trkpt>
<trkpt lat="40.0713751" lon="-105.2297889">
  <ele>1582.95</ele>
  <time>2026-08-28T17:51:56Z</time>
  <course>247.11</course>
  <speed>0.022360679774997897</speed>
  <fix>3d</fix>
</trkpt>
<trkpt lat="40.0713749" lon="-105.229789">
  <ele>1583.0</ele>
  <time>2026-08-28T17:51:56Z</time>
  <course>0.0</course>
  <speed>0.0</speed>
  <fix>3d</fix>
</trkpt>
<trkpt lat="40.071375" lon="-105.2297889">
  <ele>1582.95</ele>
  <time>2026-08-28T17:51:56Z</time>
  <course>247.11</course>
  <speed>0.022360679774997897</speed>
  <fix>3d</fix>
</trkpt>
<trkpt lat="40.0713749" lon="-105.229789">
  <ele>1583.0</ele>
  <time>2026-08-28T17:51:56Z</time>
  <course>0.0</course>
  <speed>0.0</speed>
  <fix>3d</fix>
</trkpt>
<trkpt lat="40.0713751" lon="-105.2297889">
  <ele>1582.95</ele>
  <time>2026-08-28T17:51:56Z</time>
  <course>247.11</course>
  <speed>0.022360679774997897</speed>
  <fix>3d</fix>
</trkpt>
<trkpt lat="40.0713749" lon="-105.229789">
  <ele>1583.0</ele>
  <time>2026-08-28T17:51:56Z</time>
  <course>0.0</course>
  <speed>0.0</speed>
  <fix>3d</fix>
</trkpt>
<trkpt lat="40.071375" lon="-105.2297889">
  <ele>1582.95</ele>
  <time>2026-08-28T17:51:56Z</time>
  <course>247.11</course>
  <speed>0.022360679774997897</speed>
  <fix>3d</fix>
</trkpt>
<trkpt lat="40.0713749" lon="-105.229789">
  <ele>1583.0</ele>
  <time>2026-08-28T17:51:56Z</time>
  <course>0.0</course>
  <speed>0.0</speed>
  <fix>3d</fix>
</trkpt>
<trkpt lat="40.0713751" lon="-105.2297889">
  <ele>1582.95</ele>
  <time>2026-08-28T17:51:56Z</time>
  <course>247.11</course>
  <speed>0.022360679774997897</speed>
  <fix>3d</fix>
</trkpt>
<trkpt lat="40.0713749" lon="-105.229789">
  <ele>1583.0</ele>
  <time>2026-08-28T17:51:56Z</time>
  <course>0.0</course>
  <speed>0.0</speed>
  <fix>3d</fix>
</trkpt>
<trkpt lat="40.0713751" lon="-105.2297889">
  <ele>1582.95</ele>
  <time>2026-08-28T17:51:56Z</time>
  <course>247.11</course>
  <speed>0.022360679774997897</speed>
  <fix>3d</fix>
</trkpt>
<trkpt lat="40.0713749" lon="-105.229789">
  <ele>1583.0</ele>
  <time>2026-08-28T17:51:56Z</time>
  <course>0.0</course>
  <speed>0.0</speed>
  <fix>3d</fix>
</trkpt>
<trkpt lat="40.0713751" lon="-105.2297889">
  <ele>1582.95</ele>
  <time>2026-08-28T17:51:56Z</time>
  <course>247.11</course>
  <speed>0.022360679774997897</speed>
  <fix>3d</fix>
</trkpt>
<trkpt lat="40.0713749" lon="-105.229789">
  <ele>1583.0</ele>
  <time>2026-08-28T17:51:56Z</time>
  <course>0.0</course>
  <speed>0.0</speed>
  <fix>3d</fix>
</trkpt>
<trkpt lat="40.0713751" lon="-105.2297889">
  <ele>1582.95</ele>
  <time>2026-08-28T17:51:56Z</time>
  <course>247.11</course>
  <speed>0.022360679774997897</speed>
  <fix>3d</fix>
</trkpt>
<trkpt lat="40.0713749" lon="-105.229789">
  <ele>1583.0</ele>
  <time>2026-08-28T17:51:56Z</time>
  <course>0.0</course>
  <speed>0.0</speed>
  <fix>3d</fix>
</trkpt>
<trkpt lat="40.0713751" lon="-105.2297889">
  <ele>1582.94</ele>
  <time>2026-08-28T17:51:56Z</time>
  <course>247.11</course>
  <speed>0.022360679774997897</speed>
  <fix>3d</fix>
</trkpt>
<trkpt lat="40.0713749" lon="-105.229789">
  <ele>1583.0</ele>
  <time>2026-08-28T17:51:56Z</time>
  <course>0.0</course>
  <speed>0.0</speed>
  <fix>3d</fix>
</trkpt>
<trkpt lat="40.0713751" lon="-105.2297889">
  <ele>1582.94</ele>
  <time>2026-08-28T17:51:56Z</time>
  <course>247.11</course>
  <speed>0.022360679774997897</speed>
  <fix>3d</fix>
</trkpt>
<trkpt lat="40.0713749" lon="-105.229789">
  <ele>1583.0</ele>
  <time>2026-08-28T17:51:56Z</time>
  <course>0.0</course>
  <speed>0.0</speed>
  <fix>3d</fix>
</trkpt>
<trkpt lat="40.0713751" lon="-105.2297889">
  <ele>1582.94</ele>
  <time>2026-08-28T17:51:56Z</time>
  <course>247.11</course>
  <speed>0.022360679774997897</speed>
  <fix>3d</fix>
</trkpt>
<trkpt lat="40.0713749" lon="-105.229789">
  <ele>1583.0</ele>
  <time>2026-08-28T17:51:56Z</time>
  <course>0.0</course>
  <speed>0.0</speed>
  <fix>3d</fix>
</trkpt>
<trkpt lat="40.0713751" lon="-105.2297889">
  <ele>1582.94</ele>
  <time>2026-08-28T17:51:56Z</time>
  <course>247.11</course>
  <speed>0.022360679774997897</speed>
  <fix>3d</fix>
</trkpt>
<trkpt lat="40.0713749" lon="-105.229789">
  <ele>1583.0</ele>
  <time>2026-08-28T17:51:56Z</time>
  <course>0.0</course>
  <speed>0.0</speed>
  <fix>3d</fix>
</trkpt>
<trkpt lat="40.0713751" lon="-105.2297889">
  <ele>1582.94</ele>
  <time>2026-08-28T17:51:56Z</time>
  <course>247.11</course>
  <speed>0.022360679774997897</speed>
  <fix>3d</fix>
</trkpt>
<trkpt lat="40.0713749" lon="-105.229789">
  <ele>1583.0</ele>
  <time>2026-08-28T17:51:56Z</time>
  <course>0.0</course>
  <speed>0.0</speed>
  <fix>3d</fix>
</trkpt>
<trkpt lat="40.071375" lon="-105.2297889">
  <ele>1582.94</ele>
  <time>2026-08-28T17:51:56Z</time>
  <course>247.11</course>
  <speed>0.022360679774997897</speed>
  <fix>3d</fix>
</trkpt>
<trkpt lat="40.0713749" lon="-105.229789">
  <ele>1583.0</ele>
  <time>2026-08-28T17:51:56Z</time>
  <course>0.0</course>
  <speed>0.0</speed>
  <fix>3d</fix>
</trkpt>
<trkpt lat="40.0713751" lon="-105.2297889">
  <ele>1582.94</ele>
  <time>2026-08-28T17:51:56Z</time>
  <course>247.11</course>
  <speed>0.022360679774997897</speed>
  <fix>3d</fix>
</trkpt>
<trkpt lat="40.0713749" lon="-105.229789">
  <ele>1583.0</ele>
  <time>2026-08-28T17:51:56Z</time>
  <course>0.0</course>
  <speed>0.0</speed>
  <fix>3d</fix>
</trkpt>
<trkpt lat="40.071375" lon="-105.2297889">
  <ele>1582.94</ele>
  <time>2026-08-28T17:51:56Z</time>
  <course>247.11</course>
  <speed>0.022360679774997897</speed>
  <fix>3d</fix>
</trkpt>
<trkpt lat="40.0713749" lon="-105.229789">
  <ele>1583.0</ele>
  <time>2026-08-28T17:51:56Z</time>
  <course>0.0</course>
  <speed>0.0</speed>
  <fix>3d</fix>
</trkpt>
<trkpt lat="40.0713751" lon="-105.2297889">
  <ele>1582.94</ele>
  <time>2026-08-28T17:51:56Z</time>
  <course>247.11</course>
  <speed>0.022360679774997897</speed>
  <fix>3d</fix>
</trkpt>
<trkpt lat="40.0713749" lon="-105.229789">
  <ele>1583.0</ele>
  <time>2026-08-28T17:51:56Z</time>
  <course>0.0</course>
  <speed>0.0</speed>
  <fix>3d</fix>
</trkpt>
<trkpt lat="40.071375" lon="-105.2297889">
  <ele>1582.94</ele>
  <time>2026-08-28T17:51:56Z</time>
  <course>247.11</course>
  <speed>0.022360679774997897</speed>
  <fix>3d</fix>
</trkpt>
<trkpt lat="40.0713749" lon="-105.229789">
  <ele>1583.0</ele>
  <time>2026-08-28T17:51:56Z</time>
  <course>0.0</course>
  <speed>0.0</speed>
  <fix>3d</fix>
</trkpt>
<trkpt lat="40.0713751" lon="-105.2297889">
  <ele>1582.94</ele>
  <time>2026-08-28T17:51:56Z</time>
  <course>247.11</course>
  <speed>0.022360679774997897</speed>
  <fix>3d</fix>
</trkpt>
<trkpt lat="40.0713749" lon="-105.229789">
  <ele>1583.0</ele>
  <time>2026-08-28T17:51:56Z</time>
  <course>0.0</course>
  <speed>0.0</speed>
  <fix>3d</fix>
</trkpt>
<trkpt lat="40.071375" lon="-105.2297889">
  <ele>1582.94</ele>
  <time>2026-08-28T17:51:56Z</time>
  <course>247.11</course>
  <speed>0.022360679774997897</speed>
  <fix>3d</fix>
</trkpt>
<trkpt lat="40.0713749" lon="-105.229789">
  <ele>1583.0</ele>
  <time>2026-08-28T17:51:56Z</time>
  <course>0.0</course>
  <speed>0.0</speed>
  <fix>3d</fix>
</trkpt>
<trkpt lat="40.0713751" lon="-105.2297889">
  <ele>1582.94</ele>
  <time>2026-08-28T17:51:56Z</time>
  <course>247.11</course>
  <speed>0.022360679774997897</speed>
  <fix>3d</fix>
</trkpt>
<trkpt lat="40.0713749" lon="-105.229789">
  <ele>1583.0</ele>
  <time>2026-08-28T17:51:56Z</time>
  <course>0.0</course>
  <speed>0.0</speed>
  <fix>3d</fix>
</trkpt>
<trkpt lat="40.071375" lon="-105.2297889">
  <ele>1582.94</ele>
  <time>2026-08-28T17:51:56Z</time>
  <course>247.11</course>
  <speed>0.022360679774997897</speed>
  <fix>3d</fix>
</trkpt>
<trkpt lat="40.0713749" lon="-105.229789">
  <ele>1583.0</ele>
  <time>2026-08-28T17:51:56Z</time>
  <course>0.0</course>
  <speed>0.0</speed>
  <fix>3d</fix>
</trkpt>
<trkpt lat="40.0713751" lon="-105.2297889">
  <ele>1582.94</ele>
  <time>2026-08-28T17:51:56Z</time>
  <course>247.11</course>
  <speed>0.022360679774997897</speed>
  <fix>3d</fix>
</trkpt>
<trkpt lat="40.0713749" lon="-105.229789">
  <ele>1583.0</ele>
  <time>2026-08-28T17:51:56Z</time>
  <course>0.0</course>
  <speed>0.0</speed>
  <fix>3d</fix>
</trkpt>
<trkpt lat="40.071375" lon="-105.2297889">
  <ele>1582.94</ele>
  <time>2026-08-28T17:51:56Z</time>
  <course>247.11</course>
  <speed>0.022360679774997897</speed>
  <fix>3d</fix>
</trkpt>
<trkpt lat="40.0713749" lon="-105.229789">
  <ele>1583.0</ele>
  <time>2026-08-28T17:51:56Z</time>
  <course>0.0</course>
  <speed>0.0</speed>
  <fix>3d</fix>
</trkpt>
<trkpt lat="40.0713751" lon="-105.2297889">
  <ele>1582.94</ele>
  <time>2026-08-28T17:51:56Z</time>
  <course>247.11</course>
  <speed>0.022360679774997897</speed>
  <fix>3d</fix>
</trkpt>
<trkpt lat="40.0713749" lon="-105.229789">
  <ele>1583.0</ele>
  <time>2026-08-28T17:51:56Z</time>
  <course>0.0</course>
  <speed>0.0</speed>
  <fix>3d</fix>
</trkpt>
<trkpt lat="40.0713751" lon="-105.2297889">
  <ele>1582.94</ele>
  <time>2026-08-28T17:51:56Z</time>
  <course>247.11</course>
  <speed>0.022360679774997897</speed>
  <fix>3d</fix>
</trkpt>
<trkpt lat="40.0713749" lon="-105.229789">
  <ele>1583.0</ele>
  <time>2026-08-28T17:51:56Z</time>
  <course>0.0</course>
  <speed>0.0</speed>
  <fix>3d</fix>
</trkpt>
<trkpt lat="40.0713751" lon="-105.2297889">
  <ele>1582.93</ele>
  <time>2026-08-28T17:51:56Z</time>
  <course>247.11</course>
  <speed>0.022360679774997897</speed>
  <fix>3d</fix>
</trkpt>
<trkpt lat="40.0713749" lon="-105.229789">
  <ele>1583.0</ele>
  <time>2026-08-28T17:51:56Z</time>
  <course>0.0</course>
  <speed>0.0</speed>
  <fix>3d</fix>
</trkpt>
<trkpt lat="40.0713751" lon="-105.2297889">
  <ele>1582.93</ele>
  <time>2026-08-28T17:51:56Z</time>
  <course>247.11</course>
  <speed>0.022360679774997897</speed>
  <fix>3d</fix>
</trkpt>
<trkpt lat="40.0713749" lon="-105.229789">
  <ele>1583.0</ele>
  <time>2026-08-28T17:51:56Z</time>
  <course>0.0</course>
  <speed>0.0</speed>
  <fix>3d</fix>
</trkpt>
<trkpt lat="40.0713751" lon="-105.2297889">
  <ele>1582.93</ele>
  <time>2026-08-28T17:51:56Z</time>
  <course>247.11</course>
  <speed>0.022360679774997897</speed>
  <fix>3d</fix>
</trkpt>
<trkpt lat="40.0713749" lon="-105.229789">
  <ele>1583.0</ele>
  <time>2026-08-28T17:51:56Z</time>
  <course>0.0</course>
  <speed>0.0</speed>
  <fix>3d</fix>
</trkpt>
<trkpt lat="40.0713751" lon="-105.2297889">
  <ele>1582.93</ele>
  <time>2026-08-28T17:51:56Z</time>
  <course>247.11</course>
  <speed>0.022360679774997897</speed>
  <fix>3d</fix>
</trkpt>
<trkpt lat="40.0713749" lon="-105.229789">
  <ele>1583.0</ele>
  <time>2026-08-28T17:51:56Z</time>
  <course>0.0</course>
  <speed>0.0</speed>
  <fix>3d</fix>
</trkpt>
<trkpt lat="40.0713751" lon="-105.2297889">
  <ele>1582.93</ele>
  <time>2026-08-28T17:51:56Z</time>
  <course>247.11</course>
  <speed>0.022360679774997897</speed>
  <fix>3d</fix>
</trkpt>
<trkpt lat="40.0713749" lon="-105.229789">
  <ele>1583.0</ele>
  <time>2026-08-28T17:51:56Z</time>
  <course>0.0</course>
  <speed>0.0</speed>
  <fix>3d</fix>
</trkpt>
<trkpt lat="40.0713751" lon="-105.2297889">
  <ele>1582.93</ele>
  <time>2026-08-28T17:51:56Z</time>
  <course>247.11</course>
  <speed>0.022360679774997897</speed>
  <fix>3d</fix>
</trkpt>
<trkpt lat="40.0713749" lon="-105.229789">
  <ele>1583.0</ele>
  <time>2026-08-28T17:51:56Z</time>
  <course>0.0</course>
  <speed>0.0</speed>
  <fix>3d</fix>
</trkpt>
<trkpt lat="40.0713751" lon="-105.2297889">
  <ele>1582.94</ele>
  <time>2026-08-28T17:51:56Z</time>
  <course>247.11</course>
  <speed>0.022360679774997897</speed>
  <fix>3d</fix>
</trkpt>
<trkpt lat="40.0713749" lon="-105.229789">
  <ele>1583.0</ele>
  <time>2026-08-28T17:51:56Z</time>
  <course>0.0</course>
  <speed>0.0</speed>
  <fix>3d</fix>
</trkpt>
<trkpt lat="40.0713751" lon="-105.2297889">
  <ele>1582.94</ele>
  <time>2026-08-28T17:51:56Z</time>
  <course>247.11</course>
  <speed>0.022360679774997897</speed>
  <fix>3d</fix>
</trkpt>
<trkpt lat="40.0713749" lon="-105.229789">
  <ele>1583.0</ele>
  <time>2026-08-28T17:51:56Z</time>
  <course>0.0</course>
  <speed>0.0</speed>
  <fix>3d</fix>
</trkpt>
<trkpt lat="40.0713751" lon="-105.2297889">
  <ele>1582.94</ele>
  <time>2026-08-28T17:51:56Z</time>
  <course>247.11</course>
  <speed>0.022360679774997897</speed>
  <fix>3d</fix>
</trkpt>
<trkpt lat="40.0713749" lon="-105.229789">
  <ele>1583.0</ele>
  <time>2026-08-28T17:51:56Z</time>
  <course>0.0</course>
  <speed>0.0</speed>
  <fix>3d</fix>
</trkpt>
<trkpt lat="40.0713751" lon="-105.2297889">
  <ele>1582.94</ele>
  <time>2026-08-28T17:51:56Z</time>
  <course>247.11</course>
  <speed>0.022360679774997897</speed>
  <fix>3d</fix>
</trkpt>
<trkpt lat="40.0713749" lon="-105.229789">
  <ele>1583.0</ele>
  <time>2026-08-28T17:51:56Z</time>
  <course>0.0</course>
  <speed>0.0</speed>
  <fix>3d</fix>
</trkpt>
<trkpt lat="40.0713751" lon="-105.2297889">
  <ele>1582.94</ele>
  <time>2026-08-28T17:51:56Z</time>
  <course>247.11</course>
  <speed>0.022360679774997897</speed>
  <fix>3d</fix>
</trkpt>
<trkpt lat="40.0713749" lon="-105.229789">
  <ele>1583.0</ele>
  <time>2026-08-28T17:51:56Z</time>
  <course>0.0</course>
  <speed>0.0</speed>
  <fix>3d</fix>
</trkpt>
<trkpt lat="40.0713751" lon="-105.2297889">
  <ele>1582.94</ele>
  <time>2026-08-28T17:51:56Z</time>
  <course>247.11</course>
  <speed>0.022360679774997897</speed>
  <fix>3d</fix>
</trkpt>
<trkpt lat="40.0713749" lon="-105.229789">
  <ele>1583.0</ele>
  <time>2026-08-28T17:51:56Z</time>
  <course>0.0</course>
  <speed>0.0</speed>
  <fix>3d</fix>
</trkpt>
<trkpt lat="40.0713751" lon="-105.2297889">
  <ele>1582.94</ele>
  <time>2026-08-28T17:51:56Z</time>
  <course>247.11</course>
  <speed>0.022360679774997897</speed>
  <fix>3d</fix>
</trkpt>
<trkpt lat="40.0713749" lon="-105.229789">
  <ele>1583.0</ele>
  <time>2026-08-28T17:51:56Z</time>
  <course>0.0</course>
  <speed>0.0</speed>
  <fix>3d</fix>
</trkpt>
<trkpt lat="40.0713751" lon="-105.2297889">
  <ele>1582.94</ele>
  <time>2026-08-28T17:51:56Z</time>
  <course>247.11</course>
  <speed>0.022360679774997897</speed>
  <fix>3d</fix>
</trkpt>
<trkpt lat="40.0713749" lon="-105.229789">
  <ele>1583.0</ele>
  <time>2026-08-28T17:51:56Z</time>
  <course>0.0</course>
  <speed>0.0</speed>
  <fix>3d</fix>
</trkpt>
<trkpt lat="40.0713751" lon="-105.2297889">
  <ele>1582.94</ele>
  <time>2026-08-28T17:51:56Z</time>
  <course>247.11</course>
  <speed>0.022360679774997897</speed>
  <fix>3d</fix>
</trkpt>
<trkpt lat="40.0713749" lon="-105.229789">
  <ele>1583.0</ele>
  <time>2026-08-28T17:51:56Z</time>
  <course>0.0</course>
  <speed>0.0</speed>
  <fix>3d</fix>
</trkpt>
<trkpt lat="40.0713751" lon="-105.2297889">
  <ele>1582.94</ele>
  <time>2026-08-28T17:51:56Z</time>
  <course>247.11</course>
  <speed>0.022360679774997897</speed>
  <fix>3d</fix>
</trkpt>
<trkpt lat="40.0713749" lon="-105.229789">
  <ele>1583.0</ele>
  <time>2026-08-28T17:51:56Z</time>
  <course>0.0</course>
  <speed>0.0</speed>
  <fix>3d</fix>
</trkpt>
<trkpt lat="40.0713751" lon="-105.2297889">
  <ele>1582.95</ele>
  <time>2026-08-28T17:51:56Z</time>
  <course>247.11</course>
  <speed>0.022360679774997897</speed>
  <fix>3d</fix>
</trkpt>
<trkpt lat="40.0713749" lon="-105.229789">
  <ele>1583.0</ele>
  <time>2026-08-28T17:51:56Z</time>
  <course>0.0</course>
  <speed>0.0</speed>
  <fix>3d</fix>
</trkpt>
<trkpt lat="40.0713751" lon="-105.2297889">
  <ele>1582.95</ele>
  <time>2026-08-28T17:51:56Z</time>
  <course>247.11</course>
  <speed>0.022360679774997897</speed>
  <fix>3d</fix>
</trkpt>
<trkpt lat="40.0713749" lon="-105.229789">
  <ele>1583.0</ele>
  <time>2026-08-28T17:51:56Z</time>
  <course>0.0</course>
  <speed>0.0</speed>
  <fix>3d</fix>
</trkpt>
<trkpt lat="40.0713751" lon="-105.2297889">
  <ele>1582.95</ele>
  <time>2026-08-28T17:51:56Z</time>
  <course>247.11</course>
  <speed>0.022360679774997897</speed>
  <fix>3d</fix>
</trkpt>
<trkpt lat="40.0713749" lon="-105.229789">
  <ele>1583.0</ele>
  <time>2026-08-28T17:51:56Z</time>
  <course>0.0</course>
  <speed>0.0</speed>
  <fix>3d</fix>
</trkpt>
<trkpt lat="40.0713751" lon="-105.2297889">
  <ele>1582.95</ele>
  <time>2026-08-28T17:51:56Z</time>
  <course>247.11</course>
  <speed>0.022360679774997897</speed>
  <fix>3d</fix>
</trkpt>
<trkpt lat="40.0713749" lon="-105.229789">
  <ele>1583.0</ele>
  <time>2026-08-28T17:51:56Z</time>
  <course>0.0</course>
  <speed>0.0</speed>
  <fix>3d</fix>
</trkpt>
<trkpt lat="40.0713751" lon="-105.2297889">
  <ele>1582.95</ele>
  <time>2026-08-28T17:51:56Z</time>
  <course>247.11</course>
  <speed>0.022360679774997897</speed>
  <fix>3d</fix>
</trkpt>
<trkpt lat="40.0713749" lon="-105.229789">
  <ele>1583.0</ele>
  <time>2026-08-28T17:51:56Z</time>
  <course>0.0</course>
  <speed>0.0</speed>
  <fix>3d</fix>
</trkpt>
<trkpt lat="40.0713751" lon="-105.2297889">
  <ele>1582.95</ele>
  <time>2026-08-28T17:51:56Z</time>
  <course>247.11</course>
  <speed>0.022360679774997897</speed>
  <fix>3d</fix>
</trkpt>
<trkpt lat="40.0713749" lon="-105.229789">
  <ele>1583.0</ele>
  <time>2026-08-28T17:51:56Z</time>
  <course>0.0</course>
  <speed>0.0</speed>
  <fix>3d</fix>
</trkpt>
<trkpt lat="40.0713751" lon="-105.2297889">
  <ele>1582.95</ele>
  <time>2026-08-28T17:51:56Z</time>
  <course>247.11</course>
  <speed>0.022360679774997897</speed>
  <fix>3d</fix>
</trkpt>
<trkpt lat="40.0713749" lon="-105.229789">
  <ele>1583.0</ele>
  <time>2026-08-28T17:51:56Z</time>
  <course>0.0</course>
  <speed>0.0</speed>
  <fix>3d</fix>
</trkpt>
<trkpt lat="40.0713751" lon="-105.2297889">
  <ele>1582.96</ele>
  <time>2026-08-28T17:51:56Z</time>
  <course>247.11</course>
  <speed>0.022360679774997897</speed>
  <fix>3d</fix>
</trkpt>
<trkpt lat="40.0713749" lon="-105.229789">
  <ele>1583.0</ele>
  <time>2026-08-28T17:51:56Z</time>
  <course>0.0</course>
  <speed>0.0</speed>
  <fix>3d</fix>
</trkpt>
<trkpt lat="40.0713751" lon="-105.2297889">
  <ele>1582.96</ele>
  <time>2026-08-28T17:51:56Z</time>
  <course>247.11</course>
  <speed>0.022360679774997897</speed>
  <fix>3d</fix>
</trkpt>
<trkpt lat="40.0713749" lon="-105.229789">
  <ele>1583.0</ele>
  <time>2026-08-28T17:51:56Z</time>
  <course>0.0</course>
  <speed>0.0</speed>
  <fix>3d</fix>
</trkpt>
<trkpt lat="40.0713751" lon="-105.2297889">
  <ele>1582.96</ele>
  <time>2026-08-28T17:51:56Z</time>
  <course>247.11</course>
  <speed>0.022360679774997897</speed>
  <fix>3d</fix>
</trkpt>
<trkpt lat="40.0713749" lon="-105.229789">
  <ele>1583.0</ele>
  <time>2026-08-28T17:51:56Z</time>
  <course>0.0</course>
  <speed>0.0</speed>
  <fix>3d</fix>
</trkpt>
<trkpt lat="40.0713751" lon="-105.2297889">
  <ele>1582.97</ele>
  <time>2026-08-28T17:51:56Z</time>
  <course>247.11</course>
  <speed>0.022360679774997897</speed>
  <fix>3d</fix>
</trkpt>
<trkpt lat="40.0713749" lon="-105.229789">
  <ele>1583.0</ele>
  <time>2026-08-28T17:51:56Z</time>
  <course>0.0</course>
  <speed>0.0</speed>
  <fix>3d</fix>
</trkpt>
<trkpt lat="40.0713751" lon="-105.2297889">
  <ele>1582.97</ele>
  <time>2026-08-28T17:51:56Z</time>
  <course>247.11</course>
  <speed>0.022360679774997897</speed>
  <fix>3d</fix>
</trkpt>
<trkpt lat="40.0713749" lon="-105.229789">
  <ele>1583.0</ele>
  <time>2026-08-28T17:51:56Z</time>
  <course>0.0</course>
  <speed>0.0</speed>
  <fix>3d</fix>
</trkpt>
<trkpt lat="40.0713751" lon="-105.2297889">
  <ele>1582.97</ele>
  <time>2026-08-28T17:51:56Z</time>
  <course>247.11</course>
  <speed>0.022360679774997897</speed>
  <fix>3d</fix>
</trkpt>
<trkpt lat="40.0713749" lon="-105.229789">
  <ele>1583.0</ele>
  <time>2026-08-28T17:51:56Z</time>
  <course>0.0</course>
  <speed>0.0</speed>
  <fix>3d</fix>
</trkpt>
<trkpt lat="40.0713751" lon="-105.2297889">
  <ele>1582.97</ele>
  <time>2026-08-28T17:51:56Z</time>
  <course>247.11</course>
  <speed>0.022360679774997897</speed>
  <fix>3d</fix>
</trkpt>
<trkpt lat="40.0713749" lon="-105.229789">
  <ele>1583.0</ele>
  <time>2026-08-28T17:51:56Z</time>
  <course>0.0</course>
  <speed>0.0</speed>
  <fix>3d</fix>
</trkpt>
<trkpt lat="40.0713751" lon="-105.2297889">
  <ele>1582.97</ele>
  <time>2026-08-28T17:51:56Z</time>
  <course>247.11</course>
  <speed>0.022360679774997897</speed>
  <fix>3d</fix>
</trkpt>
<trkpt lat="40.0713749" lon="-105.229789">
  <ele>1583.0</ele>
  <time>2026-08-28T17:51:56Z</time>
  <course>0.0</course>
  <speed>0.0</speed>
  <fix>3d</fix>
</trkpt>
<trkpt lat="40.0713751" lon="-105.2297889">
  <ele>1582.97</ele>
  <time>2026-08-28T17:51:56Z</time>
  <course>247.11</course>
  <speed>0.022360679774997897</speed>
  <fix>3d</fix>
</trkpt>
<trkpt lat="40.0713749" lon="-105.229789">
  <ele>1583.0</ele>
  <time>2026-08-28T17:51:56Z</time>
  <course>0.0</course>
  <speed>0.0</speed>
  <fix>3d</fix>
</trkpt>
<trkpt lat="40.0713751" lon="-105.2297889">
  <ele>1582.98</ele>
  <time>2026-08-28T17:51:56Z</time>
  <course>247.11</course>
  <speed>0.022360679774997897</speed>
  <fix>3d</fix>
</trkpt>
<trkpt lat="40.0713749" lon="-105.229789">
  <ele>1583.0</ele>
  <time>2026-08-28T17:51:56Z</time>
  <course>0.0</course>
  <speed>0.0</speed>
  <fix>3d</fix>
</trkpt>
<trkpt lat="40.0713751" lon="-105.2297889">
  <ele>1582.98</ele>
  <time>2026-08-28T17:51:56Z</time>
  <course>247.11</course>
  <speed>0.022360679774997897</speed>
  <fix>3d</fix>
</trkpt>
<trkpt lat="40.0713749" lon="-105.229789">
  <ele>1583.0</ele>
  <time>2026-08-28T17:51:56Z</time>
  <course>0.0</course>
  <speed>0.0</speed>
  <fix>3d</fix>
</trkpt>
<trkpt lat="40.0713751" lon="-105.2297889">
  <ele>1582.97</ele>
  <time>2026-08-28T17:51:56Z</time>
  <course>247.11</course>
  <speed>0.022360679774997897</speed>
  <fix>3d</fix>
</trkpt>
<trkpt lat="40.0713749" lon="-105.229789">
  <ele>1583.0</ele>
  <time>2026-08-28T17:51:56Z</time>
  <course>0.0</course>
  <speed>0.0</speed>
  <fix>3d</fix>
</trkpt>
<trkpt lat="40.0713751" lon="-105.2297889">
  <ele>1582.97</ele>
  <time>2026-08-28T17:51:56Z</time>
  <course>247.11</course>
  <speed>0.022360679774997897</speed>
  <fix>3d</fix>
</trkpt>
<trkpt lat="40.0713749" lon="-105.229789">
  <ele>1583.0</ele>
  <time>2026-08-28T17:51:56Z</time>
  <course>0.0</course>
  <speed>0.0</speed>
  <fix>3d</fix>
</trkpt>
<trkpt lat="40.0713751" lon="-105.2297889">
  <ele>1582.97</ele>
  <time>2026-08-28T17:51:56Z</time>
  <course>247.11</course>
  <speed>0.022360679774997897</speed>
  <fix>3d</fix>
</trkpt>
<trkpt lat="40.0713749" lon="-105.229789">
  <ele>1583.0</ele>
  <time>2026-08-28T17:51:56Z</time>
  <course>0.0</course>
  <speed>0.0</speed>
  <fix>3d</fix>
</trkpt>
<trkpt lat="40.0713751" lon="-105.2297889">
  <ele>1582.97</ele>
  <time>2026-08-28T17:51:56Z</time>
  <course>247.11</course>
  <speed>0.022360679774997897</speed>
  <fix>3d</fix>
</trkpt>
<trkpt lat="40.0713749" lon="-105.229789">
  <ele>1583.0</ele>
  <time>2026-08-28T17:51:56Z</time>
  <course>0.0</course>
  <speed>0.0</speed>
  <fix>3d</fix>
</trkpt>
<trkpt lat="40.0713751" lon="-105.2297889">
  <ele>1582.97</ele>
  <time>2026-08-28T17:51:56Z</time>
  <course>247.11</course>
  <speed>0.022360679774997897</speed>
  <fix>3d</fix>
</trkpt>
<trkpt lat="40.0713749" lon="-105.229789">
  <ele>1583.0</ele>
  <time>2026-08-28T17:51:56Z</time>
  <course>0.0</course>
  <speed>0.0</speed>
  <fix>3d</fix>
</trkpt>
<trkpt lat="40.0713751" lon="-105.2297889">
  <ele>1582.97</ele>
  <time>2026-08-28T17:51:56Z</time>
  <course>247.11</course>
  <speed>0.022360679774997897</speed>
  <fix>3d</fix>
</trkpt>
<trkpt lat="40.0713749" lon="-105.229789">
  <ele>1583.0</ele>
  <time>2026-08-28T17:51:56Z</time>
  <course>0.0</course>
  <speed>0.0</speed>
  <fix>3d</fix>
</trkpt>
<trkpt lat="40.0713751" lon="-105.2297889">
  <ele>1582.97</ele>
  <time>2026-08-28T17:51:56Z</time>
  <course>247.11</course>
  <speed>0.022360679774997897</speed>
  <fix>3d</fix>
</trkpt>
<trkpt lat="40.0713749" lon="-105.229789">
  <ele>1583.0</ele>
  <time>2026-08-28T17:51:56Z</time>
  <course>0.0</course>
  <speed>0.0</speed>
  <fix>3d</fix>
</trkpt>
<trkpt lat="40.0713751" lon="-105.2297889">
  <ele>1582.97</ele>
  <time>2026-08-28T17:51:56Z</time>
  <course>247.11</course>
  <speed>0.022360679774997897</speed>
  <fix>3d</fix>
</trkpt>
<trkpt lat="40.0713749" lon="-105.229789">
  <ele>1583.0</ele>
  <time>2026-08-28T17:51:56Z</time>
  <course>0.0</course>
  <speed>0.0</speed>
  <fix>3d</fix>
</trkpt>
<trkpt lat="40.0713751" lon="-105.2297889">
  <ele>1582.97</ele>
  <time>2026-08-28T17:51:56Z</time>
  <course>247.11</course>
  <speed>0.022360679774997897</speed>
  <fix>3d</fix>
</trkpt>
<trkpt lat="40.0713749" lon="-105.229789">
  <ele>1583.0</ele>
  <time>2026-08-28T17:51:56Z</time>
  <course>0.0</course>
  <speed>0.0</speed>
  <fix>3d</fix>
</trkpt>
<trkpt lat="40.0713751" lon="-105.2297889">
  <ele>1582.98</ele>
  <time>2026-08-28T17:51:56Z</time>
  <course>247.11</course>
  <speed>0.022360679774997897</speed>
  <fix>3d</fix>
</trkpt>
<trkpt lat="40.0713749" lon="-105.229789">
  <ele>1583.0</ele>
  <time>2026-08-28T17:51:56Z</time>
  <course>0.0</course>
  <speed>0.0</speed>
  <fix>3d</fix>
</trkpt>
<trkpt lat="40.0713751" lon="-105.2297889">
  <ele>1582.98</ele>
  <time>2026-08-28T17:51:56Z</time>
  <course>247.11</course>
  <speed>0.022360679774997897</speed>
  <fix>3d</fix>
</trkpt>
<trkpt lat="40.0713749" lon="-105.229789">
  <ele>1583.0</ele>
  <time>2026-08-28T17:51:56Z</time>
  <course>0.0</course>
  <speed>0.0</speed>
  <fix>3d</fix>
</trkpt>
<trkpt lat="40.0713751" lon="-105.2297889">
  <ele>1582.98</ele>
  <time>2026-08-28T17:51:56Z</time>
  <course>247.11</course>
  <speed>0.022360679774997897</speed>
  <fix>3d</fix>
</trkpt>
<trkpt lat="40.0713749" lon="-105.229789">
  <ele>1583.0</ele>
  <time>2026-08-28T17:51:56Z</time>
  <course>0.0</course>
  <speed>0.0</speed>
  <fix>3d</fix>
</trkpt>
<trkpt lat="40.0713751" lon="-105.2297889">
  <ele>1582.98</ele>
  <time>2026-08-28T17:51:56Z</time>
  <course>247.11</course>
  <speed>0.022360679774997897</speed>
  <fix>3d</fix>
</trkpt>
<trkpt lat="40.0713749" lon="-105.229789">
  <ele>1583.0</ele>
  <time>2026-08-28T17:51:56Z</time>
  <course>0.0</course>
  <speed>0.0</speed>
  <fix>3d</fix>
</trkpt>
<trkpt lat="40.0713751" lon="-105.2297889">
  <ele>1582.97</ele>
  <time>2026-08-28T17:51:56Z</time>
  <course>247.11</course>
  <speed>0.022360679774997897</speed>
  <fix>3d</fix>
</trkpt>
<trkpt lat="40.0713749" lon="-105.229789">
  <ele>1583.0</ele>
  <time>2026-08-28T17:51:56Z</time>
  <course>0.0</course>
  <speed>0.0</speed>
  <fix>3d</fix>
</trkpt>
<trkpt lat="40.0713751" lon="-105.2297889">
  <ele>1582.98</ele>
  <time>2026-08-28T17:51:56Z</time>
  <course>247.11</course>
  <speed>0.022360679774997897</speed>
  <fix>3d</fix>
</trkpt>
<trkpt lat="40.0713749" lon="-105.229789">
  <ele>1583.0</ele>
  <time>2026-08-28T17:51:56Z</time>
  <course>0.0</course>
  <speed>0.0</speed>
  <fix>3d</fix>
</trkpt>
<trkpt lat="40.0713751" lon="-105.2297889">
  <ele>1582.97</ele>
  <time>2026-08-28T17:51:56Z</time>
  <course>247.11</course>
  <speed>0.022360679774997897</speed>
  <fix>3d</fix>
</trkpt>
<trkpt lat="40.0713749" lon="-105.229789">
  <ele>1583.0</ele>
  <time>2026-08-28T17:51:56Z</time>
  <course>0.0</course>
  <speed>0.0</speed>
  <fix>3d</fix>
</trkpt>
<trkpt lat="40.0713751" lon="-105.2297889">
  <ele>1582.97</ele>
  <time>2026-08-28T17:51:56Z</time>
  <course>247.11</course>
  <speed>0.022360679774997897</speed>
  <fix>3d</fix>
</trkpt>
<trkpt lat="40.0713749" lon="-105.229789">
  <ele>1583.0</ele>
  <time>2026-08-28T17:51:56Z</time>
  <course>0.0</course>
  <speed>0.0</speed>
  <fix>3d</fix>
</trkpt>
<trkpt lat="40.0713751" lon="-105.2297889">
  <ele>1582.97</ele>
  <time>2026-08-28T17:51:56Z</time>
  <course>247.11</course>
  <speed>0.022360679774997897</speed>
  <fix>3d</fix>
</trkpt>
<trkpt lat="40.0713749" lon="-105.229789">
  <ele>1583.0</ele>
  <time>2026-08-28T17:51:56Z</time>
  <course>0.0</course>
  <speed>0.0</speed>
  <fix>3d</fix>
</trkpt>
<trkpt lat="40.0713751" lon="-105.2297889">
  <ele>1582.97</ele>
  <time>2026-08-28T17:51:56Z</time>
  <course>247.11</course>
  <speed>0.022360679774997897</speed>
  <fix>3d</fix>
</trkpt>
<trkpt lat="40.0713749" lon="-105.229789">
  <ele>1583.0</ele>
  <time>2026-08-28T17:51:56Z</time>
  <course>0.0</course>
  <speed>0.0</speed>
  <fix>3d</fix>
</trkpt>
<trkpt lat="40.071375" lon="-105.2297889">
  <ele>1582.96</ele>
  <time>2026-08-28T17:51:56Z</time>
  <course>247.11</course>
  <speed>0.022360679774997897</speed>
  <fix>3d</fix>
</trkpt>
<trkpt lat="40.0713749" lon="-105.229789">
  <ele>1583.0</ele>
  <time>2026-08-28T17:51:56Z</time>
  <course>0.0</course>
  <speed>0.0</speed>
  <fix>3d</fix>
</trkpt>
<trkpt lat="40.0713751" lon="-105.2297889">
  <ele>1582.96</ele>
  <time>2026-08-28T17:51:56Z</time>
  <course>247.11</course>
  <speed>0.022360679774997897</speed>
  <fix>3d</fix>
</trkpt>
<trkpt lat="40.0713749" lon="-105.229789">
  <ele>1583.0</ele>
  <time>2026-08-28T17:51:56Z</time>
  <course>0.0</course>
  <speed>0.0</speed>
  <fix>3d</fix>
</trkpt>
<trkpt lat="40.071375" lon="-105.2297889">
  <ele>1582.95</ele>
  <time>2026-08-28T17:51:56Z</time>
  <course>247.11</course>
  <speed>0.022360679774997897</speed>
  <fix>3d</fix>
</trkpt>
<trkpt lat="40.0713749" lon="-105.229789">
  <ele>1583.0</ele>
  <time>2026-08-28T17:51:56Z</time>
  <course>0.0</course>
  <speed>0.0</speed>
  <fix>3d</fix>
</trkpt>
<trkpt lat="40.0713751" lon="-105.2297889">
  <ele>1582.95</ele>
  <time>2026-08-28T17:51:56Z</time>
  <course>247.11</course>
  <speed>0.022360679774997897</speed>
  <fix>3d</fix>
</trkpt>
<trkpt lat="40.0713749" lon="-105.229789">
  <ele>1583.0</ele>
  <time>2026-08-28T17:51:56Z</time>
  <course>0.0</course>
  <speed>0.0</speed>
  <fix>3d</fix>
</trkpt>
<trkpt lat="40.071375" lon="-105.2297889">
  <ele>1582.95</ele>
  <time>2026-08-28T17:51:56Z</time>
  <course>247.11</course>
  <speed>0.022360679774997897</speed>
  <fix>3d</fix>
</trkpt>
<trkpt lat="40.0713749" lon="-105.229789">
  <ele>1583.0</ele>
  <time>2026-08-28T17:51:56Z</time>
  <course>0.0</course>
  <speed>0.0</speed>
  <fix>3d</fix>
</trkpt>
<trkpt lat="40.0713751" lon="-105.2297889">
  <ele>1582.95</ele>
  <time>2026-08-28T17:51:56Z</time>
  <course>247.11</course>
  <speed>0.022360679774997897</speed>
  <fix>3d</fix>
</trkpt>
<trkpt lat="40.0713749" lon="-105.229789">
  <ele>1583.0</ele>
  <time>2026-08-28T17:51:56Z</time>
  <course>0.0</course>
  <speed>0.0</speed>
  <fix>3d</fix>
</trkpt>
<trkpt lat="40.071375" lon="-105.2297889">
  <ele>1582.95</ele>
  <time>2026-08-28T17:51:56Z</time>
  <course>247.11</course>
  <speed>0.022360679774997897</speed>
  <fix>3d</fix>
</trkpt>
<trkpt lat="40.0713749" lon="-105.229789">
  <ele>1583.0</ele>
  <time>2026-08-28T17:51:56Z</time>
  <course>0.0</course>
  <speed>0.0</speed>
  <fix>3d</fix>
</trkpt>
<trkpt lat="40.0713751" lon="-105.2297889">
  <ele>1582.95</ele>
  <time>2026-08-28T17:51:56Z</time>
  <course>247.11</course>
  <speed>0.022360679774997897</speed>
  <fix>3d</fix>
</trkpt>
<trkpt lat="40.0713749" lon="-105.229789">
  <ele>1583.0</ele>
  <time>2026-08-28T17:51:56Z</time>
  <course>0.0</course>
  <speed>0.0</speed>
  <fix>3d</fix>
</trkpt>
<trkpt lat="40.071375" lon="-105.2297889">
  <ele>1582.95</ele>
  <time>2026-08-28T17:51:56Z</time>
  <course>247.11</course>
  <speed>0.022360679774997897</speed>
  <fix>3d</fix>
</trkpt>
<trkpt lat="40.0713749" lon="-105.229789">
  <ele>1583.0</ele>
  <time>2026-08-28T17:51:56Z</time>
  <course>0.0</course>
  <speed>0.0</speed>
  <fix>3d</fix>
</trkpt>
<trkpt lat="40.0713751" lon="-105.2297889">
  <ele>1582.95</ele>
  <time>2026-08-28T17:51:56Z</time>
  <course>247.11</course>
  <speed>0.022360679774997897</speed>
  <fix>3d</fix>
</trkpt>
<trkpt lat="40.0713749" lon="-105.229789">
  <ele>1583.0</ele>
  <time>2026-08-28T17:51:56Z</time>
  <course>0.0</course>
  <speed>0.0</speed>
  <fix>3d</fix>
</trkpt>
<trkpt lat="40.0713751" lon="-105.2297889">
  <ele>1582.95</ele>
  <time>2026-08-28T17:51:56Z</time>
  <course>247.11</course>
  <speed>0.022360679774997897</speed>
  <fix>3d</fix>
</trkpt>
<trkpt lat="40.0713749" lon="-105.229789">
  <ele>1583.0</ele>
  <time>2026-08-28T17:51:56Z</time>
  <course>0.0</course>
  <speed>0.0</speed>
  <fix>3d</fix>
</trkpt>
<trkpt lat="40.0713751" lon="-105.2297889">
  <ele>1582.95</ele>
  <time>2026-08-28T17:51:56Z</time>
  <course>247.11</course>
  <speed>0.022360679774997897</speed>
  <fix>3d</fix>
</trkpt>
<trkpt lat="40.0713749" lon="-105.229789">
  <ele>1583.0</ele>
  <time>2026-08-28T17:51:56Z</time>
  <course>0.0</course>
  <speed>0.0</speed>
  <fix>3d</fix>
</trkpt>
<trkpt lat="40.0713751" lon="-105.2297889">
  <ele>1582.95</ele>
  <time>2026-08-28T17:51:56Z</time>
  <course>247.11</course>
  <speed>0.022360679774997897</speed>
  <fix>3d</fix>
</trkpt>
<trkpt lat="40.0713749" lon="-105.229789">
  <ele>1583.0</ele>
  <time>2026-08-28T17:51:56Z</time>
  <course>0.0</course>
  <speed>0.0</speed>
  <fix>3d</fix>
</trkpt>
<trkpt lat="40.0713751" lon="-105.2297889">
  <ele>1582.95</ele>
  <time>2026-08-28T17:51:56Z</time>
  <course>247.11</course>
  <speed>0.022360679774997897</speed>
  <fix>3d</fix>
</trkpt>
<trkpt lat="40.0713749" lon="-105.229789">
  <ele>1583.0</ele>
  <time>2026-08-28T17:51:56Z</time>
  <course>0.0</course>
  <speed>0.0</speed>
  <fix>3d</fix>
</trkpt>
<trkpt lat="40.0713751" lon="-105.2297889">
  <ele>1582.95</ele>
  <time>2026-08-28T17:51:56Z</time>
  <course>247.11</course>
  <speed>0.022360679774997897</speed>
  <fix>3d</fix>
</trkpt>
<trkpt lat="40.0713749" lon="-105.229789">
  <ele>1583.0</ele>
  <time>2026-08-28T17:51:56Z</time>
  <course>0.0</course>
  <speed>0.0</speed>
  <fix>3d</fix>
</trkpt>
<trkpt lat="40.0713751" lon="-105.2297889">
  <ele>1582.95</ele>
  <time>2026-08-28T17:51:56Z</time>
  <course>247.11</course>
  <speed>0.022360679774997897</speed>
  <fix>3d</fix>
</trkpt>
<trkpt lat="40.0713749" lon="-105.229789">
  <ele>1583.0</ele>
  <time>2026-08-28T17:51:56Z</time>
  <course>0.0</course>
  <speed>0.0</speed>
  <fix>3d</fix>
</trkpt>
<trkpt lat="40.0713751" lon="-105.2297889">
  <ele>1582.96</ele>
  <time>2026-08-28T17:51:56Z</time>
  <course>247.11</course>
  <speed>0.022360679774997897</speed>
  <fix>3d</fix>
</trkpt>
<trkpt lat="40.0713749" lon="-105.229789">
  <ele>1583.0</ele>
  <time>2026-08-28T17:51:56Z</time>
  <course>0.0</course>
  <speed>0.0</speed>
  <fix>3d</fix>
</trkpt>
<trkpt lat="40.0713751" lon="-105.2297889">
  <ele>1582.96</ele>
  <time>2026-08-28T17:51:56Z</time>
  <course>247.11</course>
  <speed>0.022360679774997897</speed>
  <fix>3d</fix>
</trkpt>
<trkpt lat="40.0713749" lon="-105.229789">
  <ele>1583.0</ele>
  <time>2026-08-28T17:51:56Z</time>
  <course>0.0</course>
  <speed>0.0</speed>
  <fix>3d</fix>
</trkpt>
<trkpt lat="40.071375" lon="-105.2297889">
  <ele>1582.96</ele>
  <time>2026-08-28T17:51:56Z</time>
  <course>247.11</course>
  <speed>0.022360679774997897</speed>
  <fix>3d</fix>
</trkpt>
<trkpt lat="40.0713749" lon="-105.229789">
  <ele>1583.0</ele>
  <time>2026-08-28T17:51:56Z</time>
  <course>0.0</course>
  <speed>0.0</speed>
  <fix>3d</fix>
</trkpt>
<trkpt lat="40.0713751" lon="-105.2297889">
  <ele>1582.96</ele>
  <time>2026-08-28T17:51:56Z</time>
  <course>247.11</course>
  <speed>0.022360679774997897</speed>
  <fix>3d</fix>
</trkpt>
<trkpt lat="40.0713749" lon="-105.229789">
  <ele>1583.0</ele>
  <time>2026-08-28T17:51:56Z</time>
  <course>0.0</course>
  <speed>0.0</speed>
  <fix>3d</fix>
</trkpt>
<trkpt lat="40.071375" lon="-105.2297889">
  <ele>1582.96</ele>
  <time>2026-08-28T17:51:56Z</time>
  <course>247.11</course>
  <speed>0.022360679774997897</speed>
  <fix>3d</fix>
</trkpt>
<trkpt lat="40.0713749" lon="-105.229789">
  <ele>1583.0</ele>
  <time>2026-08-28T17:51:56Z</time>
  <course>0.0</course>
  <speed>0.0</speed>
  <fix>3d</fix>
</trkpt>
<trkpt lat="40.0713751" lon="-105.2297889">
  <ele>1582.96</ele>
  <time>2026-08-28T17:51:56Z</time>
  <course>247.11</course>
  <speed>0.022360679774997897</speed>
  <fix>3d</fix>
</trkpt>
<trkpt lat="40.0713749" lon="-105.229789">
  <ele>1583.0</ele>
  <time>2026-08-28T17:51:56Z</time>
  <course>0.0</course>
  <speed>0.0</speed>
  <fix>3d</fix>
</trkpt>
<trkpt lat="40.071375" lon="-105.2297889">
  <ele>1582.96</ele>
  <time>2026-08-28T17:51:56Z</time>
  <course>247.11</course>
  <speed>0.022360679774997897</speed>
  <fix>3d</fix>
</trkpt>
<trkpt lat="40.0713749" lon="-105.229789">
  <ele>1583.0</ele>
  <time>2026-08-28T17:51:56Z</time>
  <course>0.0</course>
  <speed>0.0</speed>
  <fix>3d</fix>
</trkpt>
<trkpt lat="40.0713751" lon="-105.2297889">
  <ele>1582.96</ele>
  <time>2026-08-28T17:51:56Z</time>
  <course>247.11</course>
  <speed>0.022360679774997897</speed>
  <fix>3d</fix>
</trkpt>
<trkpt lat="40.0713749" lon="-105.229789">
  <ele>1583.0</ele>
  <time>2026-08-28T17:51:56Z</time>
  <course>0.0</course>
  <speed>0.0</speed>
  <fix>3d</fix>
</trkpt>
<trkpt lat="40.071375" lon="-105.2297889">
  <ele>1582.96</ele>
  <time>2026-08-28T17:51:56Z</time>
  <course>247.11</course>
  <speed>0.022360679774997897</speed>
  <fix>3d</fix>
</trkpt>
<trkpt lat="40.0713749" lon="-105.229789">
  <ele>1583.0</ele>
  <time>2026-08-28T17:51:56Z</time>
  <course>0.0</course>
  <speed>0.0</speed>
  <fix>3d</fix>
</trkpt>
<trkpt lat="40.0713751" lon="-105.2297889">
  <ele>1582.96</ele>
  <time>2026-08-28T17:51:56Z</time>
  <course>247.11</course>
  <speed>0.022360679774997897</speed>
  <fix>3d</fix>
</trkpt>
<trkpt lat="40.0713749" lon="-105.229789">
  <ele>1583.0</ele>
  <time>2026-08-28T17:51:56Z</time>
  <course>0.0</course>
  <speed>0.0</speed>
  <fix>3d</fix>
</trkpt>
<trkpt lat="40.071375" lon="-105.2297889">
  <ele>1582.96</ele>
  <time>2026-08-28T17:51:56Z</time>
  <course>247.11</course>
  <speed>0.022360679774997897</speed>
  <fix>3d</fix>
</trkpt>
<trkpt lat="40.0713749" lon="-105.229789">
  <ele>1583.0</ele>
  <time>2026-08-28T17:51:56Z</time>
  <course>0.0</course>
  <speed>0.0</speed>
  <fix>3d</fix>
</trkpt>
<trkpt lat="40.0713751" lon="-105.2297889">
  <ele>1582.96</ele>
  <time>2026-08-28T17:51:56Z</time>
  <course>247.11</course>
  <speed>0.022360679774997897</speed>
  <fix>3d</fix>
</trkpt>
<trkpt lat="40.0713749" lon="-105.229789">
  <ele>1583.0</ele>
  <time>2026-08-28T17:51:56Z</time>
  <course>0.0</course>
  <speed>0.0</speed>
  <fix>3d</fix>
</trkpt>
<trkpt lat="40.071375" lon="-105.2297889">
  <ele>1582.96</ele>
  <time>2026-08-28T17:51:56Z</time>
  <course>247.11</course>
  <speed>0.022360679774997897</speed>
  <fix>3d</fix>
</trkpt>
<trkpt lat="40.0713749" lon="-105.229789">
  <ele>1583.0</ele>
  <time>2026-08-28T17:51:56Z</time>
  <course>0.0</course>
  <speed>0.0</speed>
  <fix>3d</fix>
</trkpt>
<trkpt lat="40.0713751" lon="-105.2297889">
  <ele>1582.96</ele>
  <time>2026-08-28T17:51:56Z</time>
  <course>247.11</course>
  <speed>0.022360679774997897</speed>
  <fix>3d</fix>
</trkpt>
<trkpt lat="40.0713749" lon="-105.229789">
  <ele>1583.0</ele>
  <time>2026-08-28T17:51:56Z</time>
  <course>0.0</course>
  <speed>0.0</speed>
  <fix>3d</fix>
</trkpt>
<trkpt lat="40.071375" lon="-105.2297889">
  <ele>1582.96</ele>
  <time>2026-08-28T17:51:56Z</time>
  <course>247.11</course>
  <speed>0.022360679774997897</speed>
  <fix>3d</fix>
</trkpt>
<trkpt lat="40.0713749" lon="-105.229789">
  <ele>1583.0</ele>
  <time>2026-08-28T17:51:56Z</time>
  <course>0.0</course>
  <speed>0.0</speed>
  <fix>3d</fix>
</trkpt>
<trkpt lat="40.0713751" lon="-105.2297889">
  <ele>1582.96</ele>
  <time>2026-08-28T17:51:56Z</time>
  <course>247.11</course>
  <speed>0.022360679774997897</speed>
  <fix>3d</fix>
</trkpt>
<trkpt lat="40.0713749" lon="-105.229789">
  <ele>1583.0</ele>
  <time>2026-08-28T17:51:56Z</time>
  <course>0.0</course>
  <speed>0.0</speed>
  <fix>3d</fix>
</trkpt>
<trkpt lat="40.071375" lon="-105.2297889">
  <ele>1582.96</ele>
  <time>2026-08-28T17:51:56Z</time>
  <course>247.11</course>
  <speed>0.022360679774997897</speed>
  <fix>3d</fix>
</trkpt>
<trkpt lat="40.0713749" lon="-105.229789">
  <ele>1583.0</ele>
  <time>2026-08-28T17:51:56Z</time>
  <course>0.0</course>
  <speed>0.0</speed>
  <fix>3d</fix>
</trkpt>
<trkpt lat="40.0713751" lon="-105.2297889">
  <ele>1582.96</ele>
  <time>2026-08-28T17:51:56Z</time>
  <course>247.11</course>
  <speed>0.022360679774997897</speed>
  <fix>3d</fix>
</trkpt>
<trkpt lat="40.0713749" lon="-105.229789">
  <ele>1583.0</ele>
  <time>2026-08-28T17:51:56Z</time>
  <course>0.0</course>
  <speed>0.0</speed>
  <fix>3d</fix>
</trkpt>
<trkpt lat="40.0713751" lon="-105.2297889">
  <ele>1582.96</ele>
  <time>2026-08-28T17:51:56Z</time>
  <course>247.11</course>
  <speed>0.022360679774997897</speed>
  <fix>3d</fix>
</trkpt>
<trkpt lat="40.0713749" lon="-105.229789">
  <ele>1583.0</ele>
  <time>2026-08-28T17:51:56Z</time>
  <course>0.0</course>
  <speed>0.0</speed>
  <fix>3d</fix>
</trkpt>
<trkpt lat="40.0713751" lon="-105.2297889">
  <ele>1582.96</ele>
  <time>2026-08-28T17:51:56Z</time>
  <course>247.11</course>
  <speed>0.022360679774997897</speed>
  <fix>3d</fix>
</trkpt>
<trkpt lat="40.0713749" lon="-105.229789">
  <ele>1583.0</ele>
  <time>2026-08-28T17:51:56Z</time>
  <course>0.0</course>
  <speed>0.0</speed>
  <fix>3d</fix>
</trkpt>
<trkpt lat="40.0713751" lon="-105.2297889">
  <ele>1582.96</ele>
  <time>2026-08-28T17:51:56Z</time>
  <course>247.11</course>
  <speed>0.022360679774997897</speed>
  <fix>3d</fix>
</trkpt>
<trkpt lat="40.0713749" lon="-105.229789">
  <ele>1583.0</ele>
  <time>2026-08-28T17:51:56Z</time>
  <course>0.0</course>
  <speed>0.0</speed>
  <fix>3d</fix>
</trkpt>
<trkpt lat="40.0713751" lon="-105.2297889">
  <ele>1582.96</ele>
  <time>2026-08-28T17:51:56Z</time>
  <course>247.11</course>
  <speed>0.022360679774997897</speed>
  <fix>3d</fix>
</trkpt>
<trkpt lat="40.0713749" lon="-105.229789">
  <ele>1583.0</ele>
  <time>2026-08-28T17:51:56Z</time>
  <course>0.0</course>
  <speed>0.0</speed>
  <fix>3d</fix>
</trkpt>
<trkpt lat="40.071375" lon="-105.2297889">
  <ele>1582.96</ele>
  <time>2026-08-28T17:51:56Z</time>
  <course>247.11</course>
  <speed>0.022360679774997897</speed>
  <fix>3d</fix>
</trkpt>
<trkpt lat="40.0713749" lon="-105.229789">
  <ele>1583.0</ele>
  <time>2026-08-28T17:51:56Z</time>
  <course>0.0</course>
  <speed>0.0</speed>
  <fix>3d</fix>
</trkpt>
<trkpt lat="40.0713751" lon="-105.2297889">
  <ele>1582.96</ele>
  <time>2026-08-28T17:51:56Z</time>
  <course>247.11</course>
  <speed>0.022360679774997897</speed>
  <fix>3d</fix>
</trkpt>
<trkpt lat="40.0713749" lon="-105.229789">
  <ele>1583.0</ele>
  <time>2026-08-28T17:51:56Z</time>
  <course>0.0</course>
  <speed>0.0</speed>
  <fix>3d</fix>
</trkpt>
<trkpt lat="40.071375" lon="-105.2297889">
  <ele>1582.96</ele>
  <time>2026-08-28T17:51:56Z</time>
  <course>247.11</course>
  <speed>0.022360679774997897</speed>
  <fix>3d</fix>
</trkpt>
<trkpt lat="40.0713749" lon="-105.229789">
  <ele>1583.0</ele>
  <time>2026-08-28T17:51:56Z</time>
  <course>0.0</course>
  <speed>0.0</speed>
  <fix>3d</fix>
</trkpt>
<trkpt lat="40.0713751" lon="-105.2297889">
  <ele>1582.96</ele>
  <time>2026-08-28T17:51:56Z</time>
  <course>247.11</course>
  <speed>0.022360679774997897</speed>
  <fix>3d</fix>
</trkpt>
<trkpt lat="40.0713749" lon="-105.229789">
  <ele>1583.0</ele>
  <time>2026-08-28T17:51:56Z</time>
  <course>0.0</course>
  <speed>0.0</speed>
  <fix>3d</fix>
</trkpt>
<trkpt lat="40.071375" lon="-105.2297889">
  <ele>1582.97</ele>
  <time>2026-08-28T17:51:56Z</time>
  <course>247.11</course>
  <speed>0.022360679774997897</speed>
  <fix>3d</fix>
</trkpt>
<trkpt lat="40.0713749" lon="-105.229789">
  <ele>1583.0</ele>
  <time>2026-08-28T17:51:56Z</time>
  <course>0.0</course>
  <speed>0.0</speed>
  <fix>3d</fix>
</trkpt>
<trkpt lat="40.071375" lon="-105.2297889">
  <ele>1582.97</ele>
  <time>2026-08-28T17:51:56Z</time>
  <course>247.11</course>
  <speed>0.022360679774997897</speed>
  <fix>3d</fix>
</trkpt>
<trkpt lat="40.0713749" lon="-105.229789">
  <ele>1583.0</ele>
  <time>2026-08-28T17:51:56Z</time>
  <course>0.0</course>
  <speed>0.0</speed>
  <fix>3d</fix>
</trkpt>
<trkpt lat="40.071375" lon="-105.2297889">
  <ele>1582.97</ele>
  <time>2026-08-28T17:51:56Z</time>
  <course>247.11</course>
  <speed>0.022360679774997897</speed>
  <fix>3d</fix>
</trkpt>
<trkpt lat="40.0713749" lon="-105.229789">
  <ele>1583.0</ele>
  <time>2026-08-28T17:51:56Z</time>
  <course>0.0</course>
  <speed>0.0</speed>
  <fix>3d</fix>
</trkpt>
<trkpt lat="40.0713751" lon="-105.2297889">
  <ele>1582.97</ele>
  <time>2026-08-28T17:51:56Z</time>
  <course>247.11</course>
  <speed>0.022360679774997897</speed>
  <fix>3d</fix>
</trkpt>
<trkpt lat="40.0713749" lon="-105.229789">
  <ele>1583.0</ele>
  <time>2026-08-28T17:51:56Z</time>
  <course>0.0</course>
  <speed>0.0</speed>
  <fix>3d</fix>
</trkpt>
<trkpt lat="40.071375" lon="-105.2297889">
  <ele>1582.97</ele>
  <time>2026-08-28T17:51:56Z</time>
  <course>247.11</course>
  <speed>0.022360679774997897</speed>
  <fix>3d</fix>
</trkpt>
<trkpt lat="40.0713749" lon="-105.229789">
  <ele>1583.0</ele>
  <time>2026-08-28T17:51:56Z</time>
  <course>0.0</course>
  <speed>0.0</speed>
  <fix>3d</fix>
</trkpt>
<trkpt lat="40.0713751" lon="-105.2297889">
  <ele>1582.97</ele>
  <time>2026-08-28T17:51:56Z</time>
  <course>247.11</course>
  <speed>0.022360679774997897</speed>
  <fix>3d</fix>
</trkpt>
<trkpt lat="40.0713749" lon="-105.229789">
  <ele>1583.0</ele>
  <time>2026-08-28T17:51:56Z</time>
  <course>0.0</course>
  <speed>0.0</speed>
  <fix>3d</fix>
</trkpt>
<trkpt lat="40.071375" lon="-105.2297889">
  <ele>1582.96</ele>
  <time>2026-08-28T17:51:56Z</time>
  <course>247.11</course>
  <speed>0.022360679774997897</speed>
  <fix>3d</fix>
</trkpt>
<trkpt lat="40.0713749" lon="-105.229789">
  <ele>1583.0</ele>
  <time>2026-08-28T17:51:56Z</time>
  <course>0.0</course>
  <speed>0.0</speed>
  <fix>3d</fix>
</trkpt>
<trkpt lat="40.0713751" lon="-105.2297889">
  <ele>1582.96</ele>
  <time>2026-08-28T17:51:56Z</time>
  <course>247.11</course>
  <speed>0.022360679774997897</speed>
  <fix>3d</fix>
</trkpt>
<trkpt lat="40.0713749" lon="-105.229789">
  <ele>1583.0</ele>
  <time>2026-08-28T17:51:56Z</time>
  <course>0.0</course>
  <speed>0.0</speed>
  <fix>3d</fix>
</trkpt>
<trkpt lat="40.071375" lon="-105.2297889">
  <ele>1582.96</ele>
  <time>2026-08-28T17:51:56Z</time>
  <course>247.11</course>
  <speed>0.022360679774997897</speed>
  <fix>3d</fix>
</trkpt>
<trkpt lat="40.0713749" lon="-105.229789">
  <ele>1583.0</ele>
  <time>2026-08-28T17:51:56Z</time>
  <course>0.0</course>
  <speed>0.0</speed>
  <fix>3d</fix>
</trkpt>
<trkpt lat="40.0713751" lon="-105.2297889">
  <ele>1582.96</ele>
  <time>2026-08-28T17:51:56Z</time>
  <course>247.11</course>
  <speed>0.022360679774997897</speed>
  <fix>3d</fix>
</trkpt>
<trkpt lat="40.0713749" lon="-105.229789">
  <ele>1583.0</ele>
  <time>2026-08-28T17:51:56Z</time>
  <course>0.0</course>
  <speed>0.0</speed>
  <fix>3d</fix>
</trkpt>
<trkpt lat="40.071375" lon="-105.2297889">
  <ele>1582.96</ele>
  <time>2026-08-28T17:51:56Z</time>
  <course>247.11</course>
  <speed>0.022360679774997897</speed>
  <fix>3d</fix>
</trkpt>
<trkpt lat="40.0713749" lon="-105.229789">
  <ele>1583.0</ele>
  <time>2026-08-28T17:51:56Z</time>
  <course>0.0</course>
  <speed>0.0</speed>
  <fix>3d</fix>
</trkpt>
<trkpt lat="40.0713751" lon="-105.2297889">
  <ele>1582.96</ele>
  <time>2026-08-28T17:51:56Z</time>
  <course>247.11</course>
  <speed>0.022360679774997897</speed>
  <fix>3d</fix>
</trkpt>
<trkpt lat="40.0713749" lon="-105.229789">
  <ele>1583.0</ele>
  <time>2026-08-28T17:51:56Z</time>
  <course>0.0</course>
  <speed>0.0</speed>
  <fix>3d</fix>
</trkpt>
<trkpt lat="40.071375" lon="-105.2297889">
  <ele>1582.96</ele>
  <time>2026-08-28T17:51:56Z</time>
  <course>247.11</course>
  <speed>0.022360679774997897</speed>
  <fix>3d</fix>
</trkpt>
<trkpt lat="40.0713749" lon="-105.229789">
  <ele>1583.0</ele>
  <time>2026-08-28T17:51:56Z</time>
  <course>0.0</course>
  <speed>0.0</speed>
  <fix>3d</fix>
</trkpt>
<trkpt lat="40.0713751" lon="-105.2297889">
  <ele>1582.96</ele>
  <time>2026-08-28T17:51:56Z</time>
  <course>247.11</course>
  <speed>0.022360679774997897</speed>
  <fix>3d</fix>
</trkpt>
<trkpt lat="40.0713749" lon="-105.229789">
  <ele>1583.0</ele>
  <time>2026-08-28T17:51:56Z</time>
  <course>0.0</course>
  <speed>0.0</speed>
  <fix>3d</fix>
</trkpt>
<trkpt lat="40.071375" lon="-105.2297889">
  <ele>1582.96</ele>
  <time>2026-08-28T17:51:56Z</time>
  <course>247.11</course>
  <speed>0.022360679774997897</speed>
  <fix>3d</fix>
</trkpt>
<trkpt lat="40.0713749" lon="-105.229789">
  <ele>1583.0</ele>
  <time>2026-08-28T17:51:56Z</time>
  <course>0.0</course>
  <speed>0.0</speed>
  <fix>3d</fix>
</trkpt>
<trkpt lat="40.0713751" lon="-105.2297889">
  <ele>1582.96</ele>
  <time>2026-08-28T17:51:56Z</time>
  <course>247.11</course>
  <speed>0.022360679774997897</speed>
  <fix>3d</fix>
</trkpt>
<trkpt lat="40.0713749" lon="-105.229789">
  <ele>1583.0</ele>
  <time>2026-08-28T17:51:56Z</time>
  <course>0.0</course>
  <speed>0.0</speed>
  <fix>3d</fix>
</trkpt>
<trkpt lat="40.071375" lon="-105.2297889">
  <ele>1582.96</ele>
  <time>2026-08-28T17:51:56Z</time>
  <course>247.11</course>
  <speed>0.02</speed>
  <fix>3d</fix>
</trkpt>
<trkpt lat="40.0713749" lon="-105.229789">
  <ele>1583.0</ele>
  <time>2026-08-28T17:51:56Z</time>
  <course>0.0</course>
  <speed>0.0</speed>
  <fix>3d</fix>
</trkpt>
<trkpt lat="40.0713751" lon="-105.2297889">
  <ele>1582.96</ele>
  <time>2026-08-28T17:51:56Z</time>
  <course>247.11</course>
  <speed>0.02</speed>
  <fix>3d</fix>
</trkpt>
<trkpt lat="40.0713749" lon="-105.229789">
  <ele>1583.0</ele>
  <time>2026-08-28T17:51:56Z</time>
  <course>0.0</course>
  <speed>0.0</speed>
  <fix>3d</fix>
</trkpt>
<trkpt lat="40.071375" lon="-105.2297889">
  <ele>1582.96</ele>
  <time>2026-08-28T17:51:56Z</time>
  <course>247.11</course>
  <speed>0.02</speed>
  <fix>3d</fix>
</trkpt>
<trkpt lat="40.0713749" lon="-105.229789">
  <ele>1583.0</ele>
  <time>2026-08-28T17:51:56Z</time>
  <course>0.0</course>
  <speed>0.0</speed>
  <fix>3d</fix>
</trkpt>
<trkpt lat="40.071375" lon="-105.2297889">
  <ele>1582.96</ele>
  <time>2026-08-28T17:51:56Z</time>
  <course>247.11</course>
  <speed>0.02</speed>
  <fix>3d</fix>
</trkpt>
<trkpt lat="40.0713749" lon="-105.229789">
  <ele>1583.0</ele>
  <time>2026-08-28T17:51:56Z</time>
  <course>0.0</course>
  <speed>0.0</speed>
  <fix>3d</fix>
</trkpt>
<trkpt lat="40.071375" lon="-105.2297889">
  <ele>1582.96</ele>
  <time>2026-08-28T17:51:56Z</time>
  <course>247.11</course>
  <speed>0.02</speed>
  <fix>3d</fix>
</trkpt>
<trkpt lat="40.0713749" lon="-105.229789">
  <ele>1583.0</ele>
  <time>2026-08-28T17:51:56Z</time>
  <course>0.0</course>
  <speed>0.0</speed>
  <fix>3d</fix>
</trkpt>
<trkpt lat="40.071375" lon="-105.2297889">
  <ele>1582.97</ele>
  <time>2026-08-28T17:51:56Z</time>
  <course>247.11</course>
  <speed>0.02</speed>
  <fix>3d</fix>
</trkpt>
<trkpt lat="40.0713749" lon="-105.229789">
  <ele>1583.0</ele>
  <time>2026-08-28T17:51:56Z</time>
  <course>0.0</course>
  <speed>0.0</speed>
  <fix>3d</fix>
</trkpt>
<trkpt lat="40.071375" lon="-105.2297889">
  <ele>1582.97</ele>
  <time>2026-08-28T17:51:56Z</time>
  <course>247.1</course>
  <speed>0.02</speed>
  <fix>3d</fix>
</trkpt>
<trkpt lat="40.0713749" lon="-105.229789">
  <ele>1583.0</ele>
  <time>2026-08-28T17:51:56Z</time>
  <course>0.0</course>
  <speed>0.0</speed>
  <fix>3d</fix>
</trkpt>
<trkpt lat="40.071375" lon="-105.2297889">
  <ele>1582.98</ele>
  <time>2026-08-28T17:51:56Z</time>
  <course>247.1</course>
  <speed>0.02</speed>
  <fix>3d</fix>
</trkpt>
<trkpt lat="40.0713749" lon="-105.229789">
  <ele>1583.0</ele>
  <time>2026-08-28T17:51:56Z</time>
  <course>0.0</course>
  <speed>0.0</speed>
  <fix>3d</fix>
</trkpt>
<trkpt lat="40.071375" lon="-105.2297889">
  <ele>1582.99</ele>
  <time>2026-08-28T17:51:56Z</time>
  <course>247.1</course>
  <speed>0.02</speed>
  <fix>3d</fix>
</trkpt>
<trkpt lat="40.0713749" lon="-105.229789">
  <ele>1583.0</ele>
  <time>2026-08-28T17:51:56Z</time>
  <course>0.0</course>
  <speed>0.0</speed>
  <fix>3d</fix>
</trkpt>
<trkpt lat="40.071375" lon="-105.2297889">
  <ele>1582.99</ele>
  <time>2026-08-28T17:51:56Z</time>
  <course>247.1</course>
  <speed>0.02</speed>
  <fix>3d</fix>
</trkpt>
<trkpt lat="40.0713749" lon="-105.229789">
  <ele>1583.0</ele>
  <time>2026-08-28T17:51:56Z</time>
  <course>0.0</course>
  <speed>0.0</speed>
  <fix>3d</fix>
</trkpt>
<trkpt lat="40.071375" lon="-105.2297889">
  <ele>1583.0</ele>
  <time>2026-08-28T17:51:56Z</time>
  <course>247.1</course>
  <speed>0.02</speed>
  <fix>3d</fix>
</trkpt>
<trkpt lat="40.0713749" lon="-105.229789">
  <ele>1583.0</ele>
  <time>2026-08-28T17:51:56Z</time>
  <course>0.0</course>
  <speed>0.0</speed>
  <fix>3d</fix>
</trkpt>
<trkpt lat="40.071375" lon="-105.2297889">
  <ele>1583.01</ele>
  <time>2026-08-28T17:51:56Z</time>
  <course>247.1</course>
  <speed>0.02</speed>
  <fix>3d</fix>
</trkpt>
<trkpt lat="40.0713749" lon="-105.229789">
  <ele>1583.0</ele>
  <time>2026-08-28T17:51:56Z</time>
  <course>0.0</course>
  <speed>0.0</speed>
  <fix>3d</fix>
</trkpt>
<trkpt lat="40.071375" lon="-105.2297889">
  <ele>1583.01</ele>
  <time>2026-08-28T17:51:56Z</time>
  <course>247.1</course>
  <speed>0.02</speed>
  <fix>3d</fix>
</trkpt>
<trkpt lat="40.0713749" lon="-105.229789">
  <ele>1583.0</ele>
  <time>2026-08-28T17:51:56Z</time>
  <course>0.0</course>
  <speed>0.0</speed>
  <fix>3d</fix>
</trkpt>
<trkpt lat="40.071375" lon="-105.2297889">
  <ele>1583.02</ele>
  <time>2026-08-28T17:51:56Z</time>
  <course>247.1</course>
  <speed>0.02</speed>
  <fix>3d</fix>
</trkpt>
<trkpt lat="40.0713749" lon="-105.229789">
  <ele>1583.0</ele>
  <time>2026-08-28T17:51:56Z</time>
  <course>0.0</course>
  <speed>0.0</speed>
  <fix>3d</fix>
</trkpt>
<trkpt lat="40.071375" lon="-105.2297889">
  <ele>1583.02</ele>
  <time>2026-08-28T17:51:56Z</time>
  <course>247.1</course>
  <speed>0.01</speed>
  <fix>3d</fix>
</trkpt>
<trkpt lat="40.0713749" lon="-105.229789">
  <ele>1583.0</ele>
  <time>2026-08-28T17:51:56Z</time>
  <course>0.0</course>
  <speed>0.0</speed>
  <fix>3d</fix>
</trkpt>
<trkpt lat="40.071375" lon="-105.2297889">
  <ele>1583.03</ele>
  <time>2026-08-28T17:51:56Z</time>
  <course>247.1</course>
  <speed>0.01</speed>
  <fix>3d</fix>
</trkpt>
<trkpt lat="40.0713749" lon="-105.229789">
  <ele>1583.0</ele>
  <time>2026-08-28T17:51:56Z</time>
  <course>0.0</course>
  <speed>0.0</speed>
  <fix>3d</fix>
</trkpt>
<trkpt lat="40.071375" lon="-105.2297889">
  <ele>1583.03</ele>
  <time>2026-08-28T17:51:56Z</time>
  <course>247.1</course>
  <speed>0.01</speed>
  <fix>3d</fix>
</trkpt>
<trkpt lat="40.0713749" lon="-105.229789">
  <ele>1583.0</ele>
  <time>2026-08-28T17:51:56Z</time>
  <course>0.0</course>
  <speed>0.0</speed>
  <fix>3d</fix>
</trkpt>
<trkpt lat="40.071375" lon="-105.2297889">
  <ele>1583.04</ele>
  <time>2026-08-28T17:51:56Z</time>
  <course>247.1</course>
  <speed>0.01</speed>
  <fix>3d</fix>
</trkpt>
<trkpt lat="40.0713749" lon="-105.229789">
  <ele>1583.0</ele>
  <time>2026-08-28T17:51:56Z</time>
  <course>0.0</course>
  <speed>0.0</speed>
  <fix>3d</fix>
</trkpt>
<trkpt lat="40.071375" lon="-105.2297889">
  <ele>1583.04</ele>
  <time>2026-08-28T17:51:56Z</time>
  <course>247.1</course>
  <speed>0.01</speed>
  <fix>3d</fix>
</trkpt>
<trkpt lat="40.0713749" lon="-105.229789">
  <ele>1583.0</ele>
  <time>2026-08-28T17:51:56Z</time>
  <course>0.0</course>
  <speed>0.0</speed>
  <fix>3d</fix>
</trkpt>
<trkpt lat="40.071375" lon="-105.2297889">
  <ele>1583.05</ele>
  <time>2026-08-28T17:51:56Z</time>
  <course>247.1</course>
  <speed>0.01</speed>
  <fix>3d</fix>
</trkpt>
<trkpt lat="40.0713749" lon="-105.229789">
  <ele>1583.0</ele>
  <time>2026-08-28T17:51:56Z</time>
  <course>0.0</course>
  <speed>0.0</speed>
  <fix>3d</fix>
</trkpt>
<trkpt lat="40.071375" lon="-105.2297889">
  <ele>1583.05</ele>
  <time>2026-08-28T17:51:56Z</time>
  <course>247.1</course>
  <speed>0.01</speed>
  <fix>3d</fix>
</trkpt>
<trkpt lat="40.0713749" lon="-105.229789">
  <ele>1583.0</ele>
  <time>2026-08-28T17:51:56Z</time>
  <course>0.0</course>
  <speed>0.0</speed>
  <fix>3d</fix>
</trkpt>
<trkpt lat="40.071375" lon="-105.2297889">
  <ele>1583.06</ele>
  <time>2026-08-28T17:51:56Z</time>
  <course>247.1</course>
  <speed>0.01</speed>
  <fix>3d</fix>
</trkpt>
<trkpt lat="40.0713749" lon="-105.229789">
  <ele>1583.0</ele>
  <time>2026-08-28T17:51:56Z</time>
  <course>0.0</course>
  <speed>0.0</speed>
  <fix>3d</fix>
</trkpt>
<trkpt lat="40.071375" lon="-105.2297889">
  <ele>1583.06</ele>
  <time>2026-08-28T17:51:56Z</time>
  <course>247.1</course>
  <speed>0.01</speed>
  <fix>3d</fix>
</trkpt>
<trkpt lat="40.0713749" lon="-105.229789">
  <ele>1583.0</ele>
  <time>2026-08-28T17:51:56Z</time>
  <course>0.0</course>
  <speed>0.0</speed>
  <fix>3d</fix>
</trkpt>
<trkpt lat="40.071375" lon="-105.2297889">
  <ele>1583.06</ele>
  <time>2026-08-28T17:51:56Z</time>
  <course>247.1</course>
  <speed>0.01</speed>
  <fix>3d</fix>
</trkpt>
<trkpt lat="40.0713749" lon="-105.229789">
  <ele>1583.0</ele>
  <time>2026-08-28T17:51:56Z</time>
  <course>0.0</course>
  <speed>0.0</speed>
  <fix>3d</fix>
</trkpt>
<trkpt lat="40.071375" lon="-105.2297889">
  <ele>1583.06</ele>
  <time>2026-08-28T17:51:56Z</time>
  <course>247.1</course>
  <speed>0.01</speed>
  <fix>3d</fix>
</trkpt>
<trkpt lat="40.0713749" lon="-105.229789">
  <ele>1583.0</ele>
  <time>2026-08-28T17:51:56Z</time>
  <course>0.0</course>
  <speed>0.0</speed>
  <fix>3d</fix>
</trkpt>
<trkpt lat="40.071375" lon="-105.2297889">
  <ele>1583.07</ele>
  <time>2026-08-28T17:51:56Z</time>
  <course>247.1</course>
  <speed>0.01</speed>
  <fix>3d</fix>
</trkpt>
<trkpt lat="40.0713749" lon="-105.229789">
  <ele>1583.0</ele>
  <time>2026-08-28T17:51:56Z</time>
  <course>0.0</course>
  <speed>0.0</speed>
  <fix>3d</fix>
</trkpt>
<trkpt lat="40.071375" lon="-105.2297889">
  <ele>1583.07</ele>
  <time>2026-08-28T17:51:56Z</time>
  <course>247.1</course>
  <speed>0.01</speed>
  <fix>3d</fix>
</trkpt>
<trkpt lat="40.0713749" lon="-105.229789">
  <ele>1583.0</ele>
  <time>2026-08-28T17:51:56Z</time>
  <course>0.0</course>
  <speed>0.0</speed>
  <fix>3d</fix>
</trkpt>
<trkpt lat="40.071375" lon="-105.2297889">
  <ele>1583.07</ele>
  <time>2026-08-28T17:51:56Z</time>
  <course>247.1</course>
  <speed>0.01</speed>
  <fix>3d</fix>
</trkpt>
<trkpt lat="40.0713749" lon="-105.229789">
  <ele>1583.0</ele>
  <time>2026-08-28T17:51:56Z</time>
  <course>0.0</course>
  <speed>0.0</speed>
  <fix>3d</fix>
</trkpt>
<trkpt lat="40.071375" lon="-105.2297889">
  <ele>1583.07</ele>
  <time>2026-08-28T17:51:56Z</time>
  <course>247.1</course>
  <speed>0.01</speed>
  <fix>3d</fix>
</trkpt>
<trkpt lat="40.0713749" lon="-105.229789">
  <ele>1583.0</ele>
  <time>2026-08-28T17:51:56Z</time>
  <course>0.0</course>
  <speed>0.0</speed>
  <fix>3d</fix>
</trkpt>
<trkpt lat="40.071375" lon="-105.2297889">
  <ele>1583.07</ele>
  <time>2026-08-28T17:51:56Z</time>
  <course>247.1</course>
  <speed>0.01</speed>
  <fix>3d</fix>
</trkpt>
<trkpt lat="40.0713749" lon="-105.229789">
  <ele>1583.0</ele>
  <time>2026-08-28T17:51:56Z</time>
  <course>0.0</course>
  <speed>0.0</speed>
  <fix>3d</fix>
</trkpt>
<trkpt lat="40.071375" lon="-105.2297889">
  <ele>1583.07</ele>
  <time>2026-08-28T17:51:56Z</time>
  <course>247.1</course>
  <speed>0.01</speed>
  <fix>3d</fix>
</trkpt>
<trkpt lat="40.0713749" lon="-105.229789">
  <ele>1583.0</ele>
  <time>2026-08-28T17:51:56Z</time>
  <course>0.0</course>
  <speed>0.0</speed>
  <fix>3d</fix>
</trkpt>
<trkpt lat="40.071375" lon="-105.2297889">
  <ele>1583.07</ele>
  <time>2026-08-28T17:51:56Z</time>
  <course>247.1</course>
  <speed>0.01</speed>
  <fix>3d</fix>
</trkpt>
<trkpt lat="40.0713749" lon="-105.229789">
  <ele>1583.0</ele>
  <time>2026-08-28T17:51:56Z</time>
  <course>0.0</course>
  <speed>0.0</speed>
  <fix>3d</fix>
</trkpt>
<trkpt lat="40.071375" lon="-105.2297889">
  <ele>1583.07</ele>
  <time>2026-08-28T17:51:56Z</time>
  <course>247.1</course>
  <speed>0.01</speed>
  <fix>3d</fix>
</trkpt>
<trkpt lat="40.0713749" lon="-105.229789">
  <ele>1583.0</ele>
  <time>2026-08-28T17:51:56Z</time>
  <course>0.0</course>
  <speed>0.0</speed>
  <fix>3d</fix>
</trkpt>
<trkpt lat="40.071375" lon="-105.2297889">
  <ele>1583.07</ele>
  <time>2026-08-28T17:51:56Z</time>
  <course>247.1</course>
  <speed>0.01</speed>
  <fix>3d</fix>
</trkpt>
<trkpt lat="40.0713749" lon="-105.229789">
  <ele>1583.0</ele>
  <time>2026-08-28T17:51:56Z</time>
  <course>0.0</course>
  <speed>0.0</speed>
  <fix>3d</fix>
</trkpt>
<trkpt lat="40.071375" lon="-105.2297889">
  <ele>1583.07</ele>
  <time>2026-08-28T17:51:56Z</time>
  <course>247.1</course>
  <speed>0.01</speed>
  <fix>3d</fix>
</trkpt>
<trkpt lat="40.0713749" lon="-105.229789">
  <ele>1583.0</ele>
  <time>2026-08-28T17:51:56Z</time>
  <course>0.0</course>
  <speed>0.0</speed>
  <fix>3d</fix>
</trkpt>
<trkpt lat="40.071375" lon="-105.2297889">
  <ele>1583.07</ele>
  <time>2026-08-28T17:51:56Z</time>
  <course>247.1</course>
  <speed>0.01</speed>
  <fix>3d</fix>
</trkpt>
<trkpt lat="40.0713749" lon="-105.229789">
  <ele>1583.0</ele>
  <time>2026-08-28T17:51:56Z</time>
  <course>0.0</course>
  <speed>0.0</speed>
  <fix>3d</fix>
</trkpt>
<trkpt lat="40.071375" lon="-105.2297889">
  <ele>1583.08</ele>
  <time>2026-08-28T17:51:56Z</time>
  <course>247.1</course>
  <speed>0.01</speed>
  <fix>3d</fix>
</trkpt>
<trkpt lat="40.0713749" lon="-105.229789">
  <ele>1583.0</ele>
  <time>2026-08-28T17:51:56Z</time>
  <course>0.0</course>
  <speed>0.0</speed>
  <fix>3d</fix>
</trkpt>
<trkpt lat="40.071375" lon="-105.2297889">
  <ele>1583.08</ele>
  <time>2026-08-28T17:51:56Z</time>
  <course>247.1</course>
  <speed>0.01</speed>
  <fix>3d</fix>
</trkpt>
<trkpt lat="40.0713749" lon="-105.229789">
  <ele>1583.0</ele>
  <time>2026-08-28T17:51:56Z</time>
  <course>0.0</course>
  <speed>0.0</speed>
  <fix>3d</fix>
</trkpt>
<trkpt lat="40.071375" lon="-105.2297889">
  <ele>1583.09</ele>
  <time>2026-08-28T17:51:56Z</time>
  <course>247.1</course>
  <speed>0.01</speed>
  <fix>3d</fix>
</trkpt>
<trkpt lat="40.0713749" lon="-105.229789">
  <ele>1583.0</ele>
  <time>2026-08-28T17:51:56Z</time>
  <course>0.0</course>
  <speed>0.0</speed>
  <fix>3d</fix>
</trkpt>
<trkpt lat="40.071375" lon="-105.2297889">
  <ele>1583.1</ele>
  <time>2026-08-28T17:51:56Z</time>
  <course>247.1</course>
  <speed>0.01</speed>
  <fix>3d</fix>
</trkpt>
<trkpt lat="40.0713749" lon="-105.229789">
  <ele>1583.0</ele>
  <time>2026-08-28T17:51:56Z</time>
  <course>0.0</course>
  <speed>0.0</speed>
  <fix>3d</fix>
</trkpt>
<trkpt lat="40.071375" lon="-105.2297889">
  <ele>1583.1</ele>
  <time>2026-08-28T17:51:56Z</time>
  <course>247.1</course>
  <speed>0.01</speed>
  <fix>3d</fix>
</trkpt>
<trkpt lat="40.0713749" lon="-105.229789">
  <ele>1583.0</ele>
  <time>2026-08-28T17:51:56Z</time>
  <course>0.0</course>
  <speed>0.0</speed>
  <fix>3d</fix>
</trkpt>
<trkpt lat="40.071375" lon="-105.2297889">
  <ele>1583.1</ele>
  <time>2026-08-28T17:51:56Z</time>
  <course>247.1</course>
  <speed>0.01</speed>
  <fix>3d</fix>
</trkpt>
<trkpt lat="40.0713749" lon="-105.229789">
  <ele>1583.0</ele>
  <time>2026-08-28T17:51:56Z</time>
  <course>0.0</course>
  <speed>0.0</speed>
  <fix>3d</fix>
</trkpt>
<trkpt lat="40.071375" lon="-105.2297889">
  <ele>1583.1</ele>
  <time>2026-08-28T17:51:56Z</time>
  <course>247.1</course>
  <speed>0.01</speed>
  <fix>3d</fix>
</trkpt>
<trkpt lat="40.0713749" lon="-105.229789">
  <ele>1583.0</ele>
  <time>2026-08-28T17:51:56Z</time>
  <course>0.0</course>
  <speed>0.0</speed>
  <fix>3d</fix>
</trkpt>
<trkpt lat="40.071375" lon="-105.2297889">
  <ele>1583.1</ele>
  <time>2026-08-28T17:51:56Z</time>
  <course>247.1</course>
  <speed>0.01</speed>
  <fix>3d</fix>
</trkpt>
<trkpt lat="40.0713749" lon="-105.229789">
  <ele>1583.0</ele>
  <time>2026-08-28T17:51:56Z</time>
  <course>0.0</course>
  <speed>0.0</speed>
  <fix>3d</fix>
</trkpt>
<trkpt lat="40.071375" lon="-105.2297889">
  <ele>1583.11</ele>
  <time>2026-08-28T17:51:56Z</time>
  <course>247.1</course>
  <speed>0.01</speed>
  <fix>3d</fix>
</trkpt>
<trkpt lat="40.0713749" lon="-105.229789">
  <ele>1583.0</ele>
  <time>2026-08-28T17:51:56Z</time>
  <course>0.0</course>
  <speed>0.0</speed>
  <fix>3d</fix>
</trkpt>
<trkpt lat="40.071375" lon="-105.2297889">
  <ele>1583.11</ele>
  <time>2026-08-28T17:51:56Z</time>
  <course>247.1</course>
  <speed>0.01</speed>
  <fix>3d</fix>
</trkpt>
<trkpt lat="40.0713749" lon="-105.229789">
  <ele>1583.0</ele>
  <time>2026-08-28T17:51:56Z</time>
  <course>0.0</course>
  <speed>0.0</speed>
  <fix>3d</fix>
</trkpt>
<trkpt lat="40.071375" lon="-105.2297889">
  <ele>1583.11</ele>
  <time>2026-08-28T17:51:56Z</time>
  <course>247.1</course>
  <speed>0.01</speed>
  <fix>3d</fix>
</trkpt>
<trkpt lat="40.0713749" lon="-105.229789">
  <ele>1583.0</ele>
  <time>2026-08-28T17:51:56Z</time>
  <course>0.0</course>
  <speed>0.0</speed>
  <fix>3d</fix>
</trkpt>
<trkpt lat="40.071375" lon="-105.2297889">
  <ele>1583.12</ele>
  <time>2026-08-28T17:51:56Z</time>
  <course>247.1</course>
  <speed>0.01</speed>
  <fix>3d</fix>
</trkpt>
<trkpt lat="40.0713749" lon="-105.229789">
  <ele>1583.0</ele>
  <time>2026-08-28T17:51:56Z</time>
  <course>0.0</course>
  <speed>0.0</speed>
  <fix>3d</fix>
</trkpt>
<trkpt lat="40.071375" lon="-105.2297889">
  <ele>1583.13</ele>
  <time>2026-08-28T17:51:56Z</time>
  <course>247.1</course>
  <speed>0.01</speed>
  <fix>3d</fix>
</trkpt>
<trkpt lat="40.0713749" lon="-105.229789">
  <ele>1583.0</ele>
  <time>2026-08-28T17:51:56Z</time>
  <course>0.0</course>
  <speed>0.0</speed>
  <fix>3d</fix>
</trkpt>
<trkpt lat="40.071375" lon="-105.2297889">
  <ele>1583.13</ele>
  <time>2026-08-28T17:51:56Z</time>
  <course>247.1</course>
  <speed>0.01</speed>
  <fix>3d</fix>
</trkpt>
<trkpt lat="40.0713749" lon="-105.229789">
  <ele>1583.0</ele>
  <time>2026-08-28T17:51:56Z</time>
  <course>0.0</course>
  <speed>0.0</speed>
  <fix>3d</fix>
</trkpt>
<trkpt lat="39.655741" lon="-104.1383097">
  <ele>1566.58</ele>
  <time>2026-08-28T17:51:57Z</time>
  <course>0.0</course>
  <speed>0.0</speed>
  <fix>3d</fix>
</trkpt>
<trkpt lat="40.0713749" lon="-105.229789">
  <ele>1583.0</ele>
  <time>2026-08-28T17:51:57Z</time>
  <course>0.0</course>
  <speed>0.0</speed>
  <fix>3d</fix>
</trkpt>
<trkpt lat="40.0713749" lon="-105.229789">
  <ele>1583.0</ele>
  <time>2026-08-28T17:51:57Z</time>
  <course>238.36</course>
  <speed>0.0</speed>
  <fix>3d</fix>
</trkpt>
<trkpt lat="40.0713749" lon="-105.229789">
  <ele>1583.0</ele>
  <time>2026-08-28T17:51:57Z</time>
  <course>0.0</course>
  <speed>0.0</speed>
  <fix>3d</fix>
</trkpt>
<trkpt lat="40.0713749" lon="-105.229789">
  <ele>1583.0</ele>
  <time>2026-08-28T17:51:57Z</time>
  <course>238.44</course>
  <speed>0.0</speed>
  <fix>3d</fix>
</trkpt>
<trkpt lat="40.0713749" lon="-105.229789">
  <ele>1583.0</ele>
  <time>2026-08-28T17:51:57Z</time>
  <course>0.0</course>
  <speed>0.0</speed>
  <fix>3d</fix>
</trkpt>
<trkpt lat="40.0713749" lon="-105.229789">
  <ele>1583.0</ele>
  <time>2026-08-28T17:51:57Z</time>
  <course>238.64</course>
  <speed>0.0</speed>
  <fix>3d</fix>
</trkpt>
<trkpt lat="40.0713749" lon="-105.229789">
  <ele>1583.0</ele>
  <time>2026-08-28T17:51:57Z</time>
  <course>0.0</course>
  <speed>0.0</speed>
  <fix>3d</fix>
</trkpt>
<trkpt lat="40.0713749" lon="-105.229789">
  <ele>1583.0</ele>
  <time>2026-08-28T17:51:57Z</time>
  <course>238.93</course>
  <speed>0.0</speed>
  <fix>3d</fix>
</trkpt>
<trkpt lat="40.0713749" lon="-105.229789">
  <ele>1583.0</ele>
  <time>2026-08-28T17:51:57Z</time>
  <course>0.0</course>
  <speed>0.0</speed>
  <fix>3d</fix>
</trkpt>
<trkpt lat="40.0713749" lon="-105.229789">
  <ele>1583.0</ele>
  <time>2026-08-28T17:51:57Z</time>
  <course>239.26</course>
  <speed>0.0</speed>
  <fix>3d</fix>
</trkpt>
<trkpt lat="40.0713749" lon="-105.229789">
  <ele>1583.0</ele>
  <time>2026-08-28T17:51:57Z</time>
  <course>0.0</course>
  <speed>0.0</speed>
  <fix>3d</fix>
</trkpt>
<trkpt lat="40.0713749" lon="-105.229789">
  <ele>1583.0</ele>
  <time>2026-08-28T17:51:57Z</time>
  <course>239.61</course>
  <speed>0.0</speed>
  <fix>3d</fix>
</trkpt>
<trkpt lat="40.0713749" lon="-105.229789">
  <ele>1583.0</ele>
  <time>2026-08-28T17:51:57Z</time>
  <course>0.0</course>
  <speed>0.0</speed>
  <fix>3d</fix>
</trkpt>
<trkpt lat="40.0713749" lon="-105.229789">
  <ele>1583.0</ele>
  <time>2026-08-28T17:51:57Z</time>
  <course>239.96</course>
  <speed>0.0</speed>
  <fix>3d</fix>
</trkpt>
<trkpt lat="40.0713749" lon="-105.229789">
  <ele>1583.0</ele>
  <time>2026-08-28T17:51:57Z</time>
  <course>0.0</course>
  <speed>0.0</speed>
  <fix>3d</fix>
</trkpt>
<trkpt lat="40.0713749" lon="-105.229789">
  <ele>1583.0</ele>
  <time>2026-08-28T17:51:57Z</time>
  <course>240.29</course>
  <speed>0.0</speed>
  <fix>3d</fix>
</trkpt>
<trkpt lat="40.0713749" lon="-105.229789">
  <ele>1583.0</ele>
  <time>2026-08-28T17:51:57Z</time>
  <course>0.0</course>
  <speed>0.0</speed>
  <fix>3d</fix>
</trkpt>
<trkpt lat="40.0713749" lon="-105.229789">
  <ele>1583.0</ele>
  <time>2026-08-28T17:51:57Z</time>
  <course>240.61</course>
  <speed>0.0</speed>
  <fix>3d</fix>
</trkpt>
<trkpt lat="40.0713749" lon="-105.229789">
  <ele>1583.0</ele>
  <time>2026-08-28T17:51:57Z</time>
  <course>0.0</course>
  <speed>0.0</speed>
  <fix>3d</fix>
</trkpt>
<trkpt lat="40.0713749" lon="-105.229789">
  <ele>1583.0</ele>
  <time>2026-08-28T17:51:57Z</time>
  <course>240.92</course>
  <speed>0.0</speed>
  <fix>3d</fix>
</trkpt>
<trkpt lat="40.0713749" lon="-105.229789">
  <ele>1583.0</ele>
  <time>2026-08-28T17:51:57Z</time>
  <course>0.0</course>
  <speed>0.0</speed>
  <fix>3d</fix>
</trkpt>
<trkpt lat="40.0713749" lon="-105.229789">
  <ele>1583.0</ele>
  <time>2026-08-28T17:51:57Z</time>
  <course>241.21</course>
  <speed>0.0</speed>
  <fix>3d</fix>
</trkpt>
<trkpt lat="40.0713749" lon="-105.229789">
  <ele>1583.0</ele>
  <time>2026-08-28T17:51:57Z</time>
  <course>0.0</course>
  <speed>0.0</speed>
  <fix>3d</fix>
</trkpt>
<trkpt lat="40.0713749" lon="-105.229789">
  <ele>1583.0</ele>
  <time>2026-08-28T17:51:57Z</time>
  <course>241.49</course>
  <speed>0.0</speed>
  <fix>3d</fix>
</trkpt>
<trkpt lat="40.0713749" lon="-105.229789">
  <ele>1583.0</ele>
  <time>2026-08-28T17:51:57Z</time>
  <course>0.0</course>
  <speed>0.0</speed>
  <fix>3d</fix>
</trkpt>
<trkpt lat="40.0713749" lon="-105.229789">
  <ele>1583.0</ele>
  <time>2026-08-28T17:51:57Z</time>
  <course>241.77</course>
  <speed>0.0</speed>
  <fix>3d</fix>
</trkpt>
<trkpt lat="40.0713749" lon="-105.229789">
  <ele>1583.0</ele>
  <time>2026-08-28T17:51:57Z</time>
  <course>0.0</course>
  <speed>0.0</speed>
  <fix>3d</fix>
</trkpt>
<trkpt lat="40.0713749" lon="-105.229789">
  <ele>1583.0</ele>
  <time>2026-08-28T17:51:57Z</time>
  <course>242.03</course>
  <speed>0.0</speed>
  <fix>3d</fix>
</trkpt>
<trkpt lat="40.0713749" lon="-105.229789">
  <ele>1583.0</ele>
  <time>2026-08-28T17:51:57Z</time>
  <course>0.0</course>
  <speed>0.0</speed>
  <fix>3d</fix>
</trkpt>
<trkpt lat="40.0713749" lon="-105.229789">
  <ele>1583.0</ele>
  <time>2026-08-28T17:51:57Z</time>
  <course>242.29</course>
  <speed>0.0</speed>
  <fix>3d</fix>
</trkpt>
<trkpt lat="40.0713749" lon="-105.229789">
  <ele>1583.0</ele>
  <time>2026-08-28T17:51:57Z</time>
  <course>0.0</course>
  <speed>0.0</speed>
  <fix>3d</fix>
</trkpt>
<trkpt lat="40.0713749" lon="-105.229789">
  <ele>1583.0</ele>
  <time>2026-08-28T17:51:57Z</time>
  <course>242.54</course>
  <speed>0.0</speed>
  <fix>3d</fix>
</trkpt>
<trkpt lat="40.0713749" lon="-105.229789">
  <ele>1583.0</ele>
  <time>2026-08-28T17:51:57Z</time>
  <course>0.0</course>
  <speed>0.0</speed>
  <fix>3d</fix>
</trkpt>
<trkpt lat="40.0713749" lon="-105.229789">
  <ele>1583.0</ele>
  <time>2026-08-28T17:51:57Z</time>
  <course>242.79</course>
  <speed>0.0</speed>
  <fix>3d</fix>
</trkpt>
<trkpt lat="40.0713749" lon="-105.229789">
  <ele>1583.0</ele>
  <time>2026-08-28T17:51:57Z</time>
  <course>0.0</course>
  <speed>0.0</speed>
  <fix>3d</fix>
</trkpt>
<trkpt lat="40.0713749" lon="-105.229789">
  <ele>1583.0</ele>
  <time>2026-08-28T17:51:57Z</time>
  <course>243.02</course>
  <speed>0.0</speed>
  <fix>3d</fix>
</trkpt>
<trkpt lat="40.0713749" lon="-105.229789">
  <ele>1583.0</ele>
  <time>2026-08-28T17:51:57Z</time>
  <course>0.0</course>
  <speed>0.0</speed>
  <fix>3d</fix>
</trkpt>
<trkpt lat="40.0713749" lon="-105.229789">
  <ele>1583.0</ele>
  <time>2026-08-28T17:51:57Z</time>
  <course>243.25</course>
  <speed>0.0</speed>
  <fix>3d</fix>
</trkpt>
<trkpt lat="40.0713749" lon="-105.229789">
  <ele>1583.0</ele>
  <time>2026-08-28T17:51:57Z</time>
  <course>0.0</course>
  <speed>0.0</speed>
  <fix>3d</fix>
</trkpt>
<trkpt lat="40.0713749" lon="-105.229789">
  <ele>1583.0</ele>
  <time>2026-08-28T17:51:57Z</time>
  <course>243.47</course>
  <speed>0.0</speed>
  <fix>3d</fix>
</trkpt>
<trkpt lat="40.0713749" lon="-105.229789">
  <ele>1583.0</ele>
  <time>2026-08-28T17:51:57Z</time>
  <course>0.0</course>
  <speed>0.0</speed>
  <fix>3d</fix>
</trkpt>
<trkpt lat="40.0713749" lon="-105.229789">
  <ele>1583.0</ele>
  <time>2026-08-28T17:51:57Z</time>
  <course>243.68</course>
  <speed>0.0</speed>
  <fix>3d</fix>
</trkpt>
<trkpt lat="40.0713749" lon="-105.229789">
  <ele>1583.0</ele>
  <time>2026-08-28T17:51:57Z</time>
  <course>0.0</course>
  <speed>0.0</speed>
  <fix>3d</fix>
</trkpt>
<trkpt lat="40.0713749" lon="-105.229789">
  <ele>1583.0</ele>
  <time>2026-08-28T17:51:57Z</time>
  <course>243.89</course>
  <speed>0.0</speed>
  <fix>3d</fix>
</trkpt>
<trkpt lat="40.0713749" lon="-105.229789">
  <ele>1583.0</ele>
  <time>2026-08-28T17:51:57Z</time>
  <course>0.0</course>
  <speed>0.0</speed>
  <fix>3d</fix>
</trkpt>
<trkpt lat="40.0713749" lon="-105.229789">
  <ele>1583.0</ele>
  <time>2026-08-28T17:51:57Z</time>
  <course>244.09</course>
  <speed>0.0</speed>
  <fix>3d</fix>
</trkpt>
<trkpt lat="40.0713749" lon="-105.229789">
  <ele>1583.0</ele>
  <time>2026-08-28T17:51:57Z</time>
  <course>0.0</course>
  <speed>0.0</speed>
  <fix>3d</fix>
</trkpt>
<trkpt lat="40.0713749" lon="-105.229789">
  <ele>1583.0</ele>
  <time>2026-08-28T17:51:57Z</time>
  <course>244.28</course>
  <speed>0.0</speed>
  <fix>3d</fix>
</trkpt>
<trkpt lat="40.0713749" lon="-105.229789">
  <ele>1583.0</ele>
  <time>2026-08-28T17:51:57Z</time>
  <course>0.0</course>
  <speed>0.0</speed>
  <fix>3d</fix>
</trkpt>
<trkpt lat="40.0713749" lon="-105.229789">
  <ele>1583.0</ele>
  <time>2026-08-28T17:51:57Z</time>
  <course>244.46</course>
  <speed>0.0</speed>
  <fix>3d</fix>
</trkpt>
<trkpt lat="40.0713749" lon="-105.229789">
  <ele>1583.0</ele>
  <time>2026-08-28T17:51:57Z</time>
  <course>0.0</course>
  <speed>0.0</speed>
  <fix>3d</fix>
</trkpt>
<trkpt lat="40.0713749" lon="-105.229789">
  <ele>1583.0</ele>
  <time>2026-08-28T17:51:57Z</time>
  <course>244.64</course>
  <speed>0.0</speed>
  <fix>3d</fix>
</trkpt>
<trkpt lat="40.0713749" lon="-105.229789">
  <ele>1583.0</ele>
  <time>2026-08-28T17:51:57Z</time>
  <course>0.0</course>
  <speed>0.0</speed>
  <fix>3d</fix>
</trkpt>
<trkpt lat="40.0713749" lon="-105.229789">
  <ele>1583.0</ele>
  <time>2026-08-28T17:51:57Z</time>
  <course>244.81</course>
  <speed>0.0</speed>
  <fix>3d</fix>
</trkpt>
<trkpt lat="40.0713749" lon="-105.229789">
  <ele>1583.0</ele>
  <time>2026-08-28T17:51:57Z</time>
  <course>0.0</course>
  <speed>0.0</speed>
  <fix>3d</fix>
</trkpt>
<trkpt lat="40.0713749" lon="-105.229789">
  <ele>1583.0</ele>
  <time>2026-08-28T17:51:57Z</time>
  <course>244.97</course>
  <speed>0.0</speed>
  <fix>3d</fix>
</trkpt>
<trkpt lat="40.0713749" lon="-105.229789">
  <ele>1583.0</ele>
  <time>2026-08-28T17:51:57Z</time>
  <course>0.0</course>
  <speed>0.0</speed>
  <fix>3d</fix>
</trkpt>
<trkpt lat="40.0713749" lon="-105.229789">
  <ele>1583.0</ele>
  <time>2026-08-28T17:51:57Z</time>
  <course>245.13</course>
  <speed>0.0</speed>
  <fix>3d</fix>
</trkpt>
<trkpt lat="40.0713749" lon="-105.229789">
  <ele>1583.0</ele>
  <time>2026-08-28T17:51:57Z</time>
  <course>0.0</course>
  <speed>0.0</speed>
  <fix>3d</fix>
</trkpt>
<trkpt lat="40.0713749" lon="-105.229789">
  <ele>1583.0</ele>
  <time>2026-08-28T17:51:57Z</time>
  <course>245.29</course>
  <speed>0.0</speed>
  <fix>3d</fix>
</trkpt>
<trkpt lat="40.0713749" lon="-105.229789">
  <ele>1583.0</ele>
  <time>2026-08-28T17:51:57Z</time>
  <course>0.0</course>
  <speed>0.0</speed>
  <fix>3d</fix>
</trkpt>
<trkpt lat="40.0713749" lon="-105.229789">
  <ele>1583.0</ele>
  <time>2026-08-28T17:51:57Z</time>
  <course>245.43</course>
  <speed>0.0</speed>
  <fix>3d</fix>
</trkpt>
<trkpt lat="40.0713749" lon="-105.229789">
  <ele>1583.0</ele>
  <time>2026-08-28T17:51:57Z</time>
  <course>0.0</course>
  <speed>0.0</speed>
  <fix>3d</fix>
</trkpt>
<trkpt lat="40.0713749" lon="-105.229789">
  <ele>1583.0</ele>
  <time>2026-08-28T17:51:57Z</time>
  <course>245.57</course>
  <speed>0.0</speed>
  <fix>3d</fix>
</trkpt>
<trkpt lat="40.0713749" lon="-105.229789">
  <ele>1583.0</ele>
  <time>2026-08-28T17:51:57Z</time>
  <course>0.0</course>
  <speed>0.0</speed>
  <fix>3d</fix>
</trkpt>
<trkpt lat="40.0713749" lon="-105.229789">
  <ele>1583.0</ele>
  <time>2026-08-28T17:51:57Z</time>
  <course>245.71</course>
  <speed>0.0</speed>
  <fix>3d</fix>
</trkpt>
<trkpt lat="40.0713749" lon="-105.229789">
  <ele>1583.0</ele>
  <time>2026-08-28T17:51:57Z</time>
  <course>0.0</course>
  <speed>0.0</speed>
  <fix>3d</fix>
</trkpt>
<trkpt lat="40.0713749" lon="-105.229789">
  <ele>1583.0</ele>
  <time>2026-08-28T17:51:57Z</time>
  <course>245.84</course>
  <speed>0.0</speed>
  <fix>3d</fix>
</trkpt>
<trkpt lat="40.0713749" lon="-105.229789">
  <ele>1583.0</ele>
  <time>2026-08-28T17:51:57Z</time>
  <course>0.0</course>
  <speed>0.0</speed>
  <fix>3d</fix>
</trkpt>
<trkpt lat="40.0713749" lon="-105.229789">
  <ele>1583.0</ele>
  <time>2026-08-28T17:51:57Z</time>
  <course>245.96</course>
  <speed>0.0</speed>
  <fix>3d</fix>
</trkpt>
<trkpt lat="40.0713749" lon="-105.229789">
  <ele>1583.0</ele>
  <time>2026-08-28T17:51:57Z</time>
  <course>0.0</course>
  <speed>0.0</speed>
  <fix>3d</fix>
</trkpt>
<trkpt lat="40.0713749" lon="-105.229789">
  <ele>1583.0</ele>
  <time>2026-08-28T17:51:57Z</time>
  <course>246.08</course>
  <speed>0.0</speed>
  <fix>3d</fix>
</trkpt>
<trkpt lat="40.0713749" lon="-105.229789">
  <ele>1583.0</ele>
  <time>2026-08-28T17:51:57Z</time>
  <course>0.0</course>
  <speed>0.0</speed>
  <fix>3d</fix>
</trkpt>
<trkpt lat="40.0713749" lon="-105.229789">
  <ele>1583.0</ele>
  <time>2026-08-28T17:51:57Z</time>
  <course>246.19</course>
  <speed>0.0</speed>
  <fix>3d</fix>
</trkpt>
<trkpt lat="40.0713749" lon="-105.229789">
  <ele>1583.0</ele>
  <time>2026-08-28T17:51:57Z</time>
  <course>0.0</course>
  <speed>0.0</speed>
  <fix>3d</fix>
</trkpt>
<trkpt lat="40.0713749" lon="-105.229789">
  <ele>1583.0</ele>
  <time>2026-08-28T17:51:57Z</time>
  <course>246.3</course>
  <speed>0.0</speed>
  <fix>3d</fix>
</trkpt>
<trkpt lat="40.0713749" lon="-105.229789">
  <ele>1583.0</ele>
  <time>2026-08-28T17:51:57Z</time>
  <course>0.0</course>
  <speed>0.0</speed>
  <fix>3d</fix>
</trkpt>
<trkpt lat="40.0713749" lon="-105.229789">
  <ele>1583.0</ele>
  <time>2026-08-28T17:51:57Z</time>
  <course>246.41</course>
  <speed>0.0</speed>
  <fix>3d</fix>
</trkpt>
<trkpt lat="40.0713749" lon="-105.229789">
  <ele>1583.0</ele>
  <time>2026-08-28T17:51:57Z</time>
  <course>0.0</course>
  <speed>0.0</speed>
  <fix>3d</fix>
</trkpt>
<trkpt lat="40.0713749" lon="-105.229789">
  <ele>1583.0</ele>
  <time>2026-08-28T17:51:57Z</time>
  <course>246.51</course>
  <speed>0.0</speed>
  <fix>3d</fix>
</trkpt>
<trkpt lat="40.0713749" lon="-105.229789">
  <ele>1583.0</ele>
  <time>2026-08-28T17:51:57Z</time>
  <course>0.0</course>
  <speed>0.0</speed>
  <fix>3d</fix>
</trkpt>
<trkpt lat="40.0713749" lon="-105.229789">
  <ele>1583.0</ele>
  <time>2026-08-28T17:51:57Z</time>
  <course>246.6</course>
  <speed>0.0</speed>
  <fix>3d</fix>
</trkpt>
<trkpt lat="40.0713749" lon="-105.229789">
  <ele>1583.0</ele>
  <time>2026-08-28T17:51:57Z</time>
  <course>0.0</course>
  <speed>0.0</speed>
  <fix>3d</fix>
</trkpt>
<trkpt lat="40.0713749" lon="-105.229789">
  <ele>1583.0</ele>
  <time>2026-08-28T17:51:57Z</time>
  <course>246.7</course>
  <speed>0.0</speed>
  <fix>3d</fix>
</trkpt>
<trkpt lat="40.0713749" lon="-105.229789">
  <ele>1583.0</ele>
  <time>2026-08-28T17:51:57Z</time>
  <course>0.0</course>
  <speed>0.0</speed>
  <fix>3d</fix>
</trkpt>
<trkpt lat="40.0713749" lon="-105.229789">
  <ele>1583.0</ele>
  <time>2026-08-28T17:51:57Z</time>
  <course>246.78</course>
  <speed>0.0</speed>
  <fix>3d</fix>
</trkpt>
<trkpt lat="40.0713749" lon="-105.229789">
  <ele>1583.0</ele>
  <time>2026-08-28T17:51:57Z</time>
  <course>0.0</course>
  <speed>0.0</speed>
  <fix>3d</fix>
</trkpt>
<trkpt lat="40.0713749" lon="-105.229789">
  <ele>1583.0</ele>
  <time>2026-08-28T17:51:57Z</time>
  <course>246.87</course>
  <speed>0.0</speed>
  <fix>3d</fix>
</trkpt>
<trkpt lat="40.0713749" lon="-105.229789">
  <ele>1583.0</ele>
  <time>2026-08-28T17:51:57Z</time>
  <course>0.0</course>
  <speed>0.0</speed>
  <fix>3d</fix>
</trkpt>
<trkpt lat="40.0713749" lon="-105.229789">
  <ele>1583.0</ele>
  <time>2026-08-28T17:51:57Z</time>
  <course>246.95</course>
  <speed>0.0</speed>
  <fix>3d</fix>
</trkpt>
<trkpt lat="40.0713749" lon="-105.229789">
  <ele>1583.0</ele>
  <time>2026-08-28T17:51:57Z</time>
  <course>0.0</course>
  <speed>0.0</speed>
  <fix>3d</fix>
</trkpt>
<trkpt lat="40.0713749" lon="-105.229789">
  <ele>1583.0</ele>
  <time>2026-08-28T17:51:57Z</time>
  <course>247.02</course>
  <speed>0.0</speed>
  <fix>3d</fix>
</trkpt>
<trkpt lat="40.0713749" lon="-105.229789">
  <ele>1583.0</ele>
  <time>2026-08-28T17:51:57Z</time>
  <course>0.0</course>
  <speed>0.0</speed>
  <fix>3d</fix>
</trkpt>
<trkpt lat="40.0713749" lon="-105.229789">
  <ele>1583.0</ele>
  <time>2026-08-28T17:51:57Z</time>
  <course>247.1</course>
  <speed>0.0</speed>
  <fix>3d</fix>
</trkpt>
<trkpt lat="40.0713749" lon="-105.229789">
  <ele>1583.0</ele>
  <time>2026-08-28T17:51:57Z</time>
  <course>0.0</course>
  <speed>0.0</speed>
  <fix>3d</fix>
</trkpt>
<trkpt lat="40.0713749" lon="-105.229789">
  <ele>1583.0</ele>
  <time>2026-08-28T17:51:57Z</time>
  <course>247.17</course>
  <speed>0.0</speed>
  <fix>3d</fix>
</trkpt>
<trkpt lat="40.0713749" lon="-105.229789">
  <ele>1583.0</ele>
  <time>2026-08-28T17:51:57Z</time>
  <course>0.0</course>
  <speed>0.0</speed>
  <fix>3d</fix>
</trkpt>
<trkpt lat="40.0713749" lon="-105.229789">
  <ele>1583.0</ele>
  <time>2026-08-28T17:51:57Z</time>
  <course>247.24</course>
  <speed>0.0</speed>
  <fix>3d</fix>
</trkpt>
<trkpt lat="40.0713749" lon="-105.229789">
  <ele>1583.0</ele>
  <time>2026-08-28T17:51:57Z</time>
  <course>0.0</course>
  <speed>0.0</speed>
  <fix>3d</fix>
</trkpt>
<trkpt lat="40.0713749" lon="-105.229789">
  <ele>1583.0</ele>
  <time>2026-08-28T17:51:57Z</time>
  <course>247.3</course>
  <speed>0.0</speed>
  <fix>3d</fix>
</trkpt>
<trkpt lat="40.0713749" lon="-105.229789">
  <ele>1583.0</ele>
  <time>2026-08-28T17:51:57Z</time>
  <course>0.0</course>
  <speed>0.0</speed>
  <fix>3d</fix>
</trkpt>
<trkpt lat="40.0713749" lon="-105.229789">
  <ele>1583.0</ele>
  <time>2026-08-28T17:51:57Z</time>
  <course>247.36</course>
  <speed>0.0</speed>
  <fix>3d</fix>
</trkpt>
<trkpt lat="40.0713749" lon="-105.229789">
  <ele>1583.0</ele>
  <time>2026-08-28T17:51:57Z</time>
  <course>0.0</course>
  <speed>0.0</speed>
  <fix>3d</fix>
</trkpt>
<trkpt lat="40.0713749" lon="-105.229789">
  <ele>1583.0</ele>
  <time>2026-08-28T17:51:57Z</time>
  <course>247.42</course>
  <speed>0.0</speed>
  <fix>3d</fix>
</trkpt>
<trkpt lat="40.0713749" lon="-105.229789">
  <ele>1583.0</ele>
  <time>2026-08-28T17:51:57Z</time>
  <course>0.0</course>
  <speed>0.0</speed>
  <fix>3d</fix>
</trkpt>
<trkpt lat="40.0713749" lon="-105.229789">
  <ele>1583.0</ele>
  <time>2026-08-28T17:51:57Z</time>
  <course>247.47</course>
  <speed>0.0</speed>
  <fix>3d</fix>
</trkpt>
<trkpt lat="40.0713749" lon="-105.229789">
  <ele>1583.0</ele>
  <time>2026-08-28T17:51:57Z</time>
  <course>0.0</course>
  <speed>0.0</speed>
  <fix>3d</fix>
</trkpt>
<trkpt lat="40.0713749" lon="-105.229789">
  <ele>1583.0</ele>
  <time>2026-08-28T17:51:57Z</time>
  <course>247.53</course>
  <speed>0.0</speed>
  <fix>3d</fix>
</trkpt>
<trkpt lat="40.0713749" lon="-105.229789">
  <ele>1583.0</ele>
  <time>2026-08-28T17:51:57Z</time>
  <course>0.0</course>
  <speed>0.0</speed>
  <fix>3d</fix>
</trkpt>
<trkpt lat="40.0713749" lon="-105.229789">
  <ele>1583.0</ele>
  <time>2026-08-28T17:51:57Z</time>
  <course>247.58</course>
  <speed>0.0</speed>
  <fix>3d</fix>
</trkpt>
<trkpt lat="40.0713749" lon="-105.229789">
  <ele>1583.0</ele>
  <time>2026-08-28T17:51:57Z</time>
  <course>0.0</course>
  <speed>0.0</speed>
  <fix>3d</fix>
</trkpt>
<trkpt lat="40.0713749" lon="-105.229789">
  <ele>1583.0</ele>
  <time>2026-08-28T17:51:57Z</time>
  <course>247.63</course>
  <speed>0.0</speed>
  <fix>3d</fix>
</trkpt>
<trkpt lat="40.0713749" lon="-105.229789">
  <ele>1583.0</ele>
  <time>2026-08-28T17:51:57Z</time>
  <course>0.0</course>
  <speed>0.0</speed>
  <fix>3d</fix>
</trkpt>
<trkpt lat="40.0713749" lon="-105.229789">
  <ele>1583.0</ele>
  <time>2026-08-28T17:51:57Z</time>
  <course>247.67</course>
  <speed>0.0</speed>
  <fix>3d</fix>
</trkpt>
<trkpt lat="40.0713749" lon="-105.229789">
  <ele>1583.0</ele>
  <time>2026-08-28T17:51:57Z</time>
  <course>0.0</course>
  <speed>0.0</speed>
  <fix>3d</fix>
</trkpt>
<trkpt lat="40.0713749" lon="-105.229789">
  <ele>1583.0</ele>
  <time>2026-08-28T17:51:57Z</time>
  <course>247.72</course>
  <speed>0.0</speed>
  <fix>3d</fix>
</trkpt>
<trkpt lat="40.0713749" lon="-105.229789">
  <ele>1583.0</ele>
  <time>2026-08-28T17:51:57Z</time>
  <course>0.0</course>
  <speed>0.0</speed>
  <fix>3d</fix>
</trkpt>
<trkpt lat="40.0713749" lon="-105.229789">
  <ele>1583.0</ele>
  <time>2026-08-28T17:51:57Z</time>
  <course>247.76</course>
  <speed>0.0</speed>
  <fix>3d</fix>
</trkpt>
<trkpt lat="40.0713749" lon="-105.229789">
  <ele>1583.0</ele>
  <time>2026-08-28T17:51:57Z</time>
  <course>0.0</course>
  <speed>0.0</speed>
  <fix>3d</fix>
</trkpt>
<trkpt lat="40.0713749" lon="-105.229789">
  <ele>1583.0</ele>
  <time>2026-08-28T17:51:57Z</time>
  <course>247.8</course>
  <speed>0.0</speed>
  <fix>3d</fix>
</trkpt>
<trkpt lat="40.0713749" lon="-105.229789">
  <ele>1583.0</ele>
  <time>2026-08-28T17:51:57Z</time>
  <course>0.0</course>
  <speed>0.0</speed>
  <fix>3d</fix>
</trkpt>
<trkpt lat="40.0713749" lon="-105.229789">
  <ele>1583.0</ele>
  <time>2026-08-28T17:51:57Z</time>
  <course>247.83</course>
  <speed>0.0</speed>
  <fix>3d</fix>
</trkpt>
<trkpt lat="40.0713749" lon="-105.229789">
  <ele>1583.0</ele>
  <time>2026-08-28T17:51:57Z</time>
  <course>0.0</course>
  <speed>0.0</speed>
  <fix>3d</fix>
</trkpt>
<trkpt lat="40.0713749" lon="-105.229789">
  <ele>1583.0</ele>
  <time>2026-08-28T17:51:57Z</time>
  <course>247.87</course>
  <speed>0.0</speed>
  <fix>3d</fix>
</trkpt>
<trkpt lat="40.0713749" lon="-105.229789">
  <ele>1583.0</ele>
  <time>2026-08-28T17:51:57Z</time>
  <course>0.0</course>
  <speed>0.0</speed>
  <fix>3d</fix>
</trkpt>
<trkpt lat="40.0713749" lon="-105.229789">
  <ele>1583.0</ele>
  <time>2026-08-28T17:51:57Z</time>
  <course>247.9</course>
  <speed>0.0</speed>
  <fix>3d</fix>
</trkpt>
<trkpt lat="40.0713749" lon="-105.229789">
  <ele>1583.0</ele>
  <time>2026-08-28T17:51:57Z</time>
  <course>0.0</course>
  <speed>0.0</speed>
  <fix>3d</fix>
</trkpt>
<trkpt lat="40.0713749" lon="-105.229789">
  <ele>1583.0</ele>
  <time>2026-08-28T17:51:57Z</time>
  <course>247.94</course>
  <speed>0.0</speed>
  <fix>3d</fix>
</trkpt>
<trkpt lat="40.0713749" lon="-105.229789">
  <ele>1583.0</ele>
  <time>2026-08-28T17:51:57Z</time>
  <course>0.0</course>
  <speed>0.0</speed>
  <fix>3d</fix>
</trkpt>
<trkpt lat="40.0713749" lon="-105.229789">
  <ele>1583.0</ele>
  <time>2026-08-28T17:51:57Z</time>
  <course>247.97</course>
  <speed>0.0</speed>
  <fix>3d</fix>
</trkpt>
<trkpt lat="40.0713749" lon="-105.229789">
  <ele>1583.0</ele>
  <time>2026-08-28T17:51:57Z</time>
  <course>0.0</course>
  <speed>0.0</speed>
  <fix>3d</fix>
</trkpt>
<trkpt lat="40.0713749" lon="-105.229789">
  <ele>1583.0</ele>
  <time>2026-08-28T17:51:57Z</time>
  <course>248.0</course>
  <speed>0.0</speed>
  <fix>3d</fix>
</trkpt>
<trkpt lat="40.0713749" lon="-105.229789">
  <ele>1583.0</ele>
  <time>2026-08-28T17:51:57Z</time>
  <course>0.0</course>
  <speed>0.0</speed>
  <fix>3d</fix>
</trkpt>
<trkpt lat="40.0713749" lon="-105.229789">
  <ele>1583.0</ele>
  <time>2026-08-28T17:51:57Z</time>
  <course>248.02</course>
  <speed>0.0</speed>
  <fix>3d</fix>
</trkpt>
<trkpt lat="40.0713749" lon="-105.229789">
  <ele>1583.0</ele>
  <time>2026-08-28T17:51:57Z</time>
  <course>0.0</course>
  <speed>0.0</speed>
  <fix>3d</fix>
</trkpt>
<trkpt lat="40.0713749" lon="-105.229789">
  <ele>1583.0</ele>
  <time>2026-08-28T17:51:57Z</time>
  <course>248.05</course>
  <speed>0.0</speed>
  <fix>3d</fix>
</trkpt>
<trkpt lat="40.0713749" lon="-105.229789">
  <ele>1583.0</ele>
  <time>2026-08-28T17:51:57Z</time>
  <course>0.0</course>
  <speed>0.0</speed>
  <fix>3d</fix>
</trkpt>
<trkpt lat="40.0713749" lon="-105.229789">
  <ele>1583.0</ele>
  <time>2026-08-28T17:51:57Z</time>
  <course>248.08</course>
  <speed>0.0</speed>
  <fix>3d</fix>
</trkpt>
<trkpt lat="40.0713749" lon="-105.229789">
  <ele>1583.0</ele>
  <time>2026-08-28T17:51:57Z</time>
  <course>0.0</course>
  <speed>0.0</speed>
  <fix>3d</fix>
</trkpt>
<trkpt lat="40.0713749" lon="-105.229789">
  <ele>1583.0</ele>
  <time>2026-08-28T17:51:57Z</time>
  <course>248.1</course>
  <speed>0.0</speed>
  <fix>3d</fix>
</trkpt>
<trkpt lat="40.0713749" lon="-105.229789">
  <ele>1583.0</ele>
  <time>2026-08-28T17:51:57Z</time>
  <course>0.0</course>
  <speed>0.0</speed>
  <fix>3d</fix>
</trkpt>
<trkpt lat="40.0713749" lon="-105.229789">
  <ele>1583.0</ele>
  <time>2026-08-28T17:51:57Z</time>
  <course>248.12</course>
  <speed>0.0</speed>
  <fix>3d</fix>
</trkpt>
<trkpt lat="40.0713749" lon="-105.229789">
  <ele>1583.0</ele>
  <time>2026-08-28T17:51:57Z</time>
  <course>0.0</course>
  <speed>0.0</speed>
  <fix>3d</fix>
</trkpt>
<trkpt lat="40.0713749" lon="-105.229789">
  <ele>1583.0</ele>
  <time>2026-08-28T17:51:57Z</time>
  <course>248.14</course>
  <speed>0.0</speed>
  <fix>3d</fix>
</trkpt>
<trkpt lat="40.0713749" lon="-105.229789">
  <ele>1583.0</ele>
  <time>2026-08-28T17:51:57Z</time>
  <course>0.0</course>
  <speed>0.0</speed>
  <fix>3d</fix>
</trkpt>
<trkpt lat="40.0713749" lon="-105.229789">
  <ele>1583.0</ele>
  <time>2026-08-28T17:51:57Z</time>
  <course>248.16</course>
  <speed>0.0</speed>
  <fix>3d</fix>
</trkpt>
<trkpt lat="40.0713749" lon="-105.229789">
  <ele>1583.0</ele>
  <time>2026-08-28T17:51:57Z</time>
  <course>0.0</course>
  <speed>0.0</speed>
  <fix>3d</fix>
</trkpt>
<trkpt lat="40.0713749" lon="-105.229789">
  <ele>1583.0</ele>
  <time>2026-08-28T17:51:57Z</time>
  <course>248.18</course>
  <speed>0.0</speed>
  <fix>3d</fix>
</trkpt>
<trkpt lat="40.0713749" lon="-105.229789">
  <ele>1583.0</ele>
  <time>2026-08-28T17:51:57Z</time>
  <course>0.0</course>
  <speed>0.0</speed>
  <fix>3d</fix>
</trkpt>
<trkpt lat="40.0713749" lon="-105.229789">
  <ele>1583.0</ele>
  <time>2026-08-28T17:51:57Z</time>
  <course>248.2</course>
  <speed>0.0</speed>
  <fix>3d</fix>
</trkpt>
<trkpt lat="40.0713749" lon="-105.229789">
  <ele>1583.0</ele>
  <time>2026-08-28T17:51:57Z</time>
  <course>0.0</course>
  <speed>0.0</speed>
  <fix>3d</fix>
</trkpt>
<trkpt lat="40.0713749" lon="-105.229789">
  <ele>1583.0</ele>
  <time>2026-08-28T17:51:57Z</time>
  <course>248.22</course>
  <speed>0.0</speed>
  <fix>3d</fix>
</trkpt>
<trkpt lat="40.0713749" lon="-105.229789">
  <ele>1583.0</ele>
  <time>2026-08-28T17:51:57Z</time>
  <course>0.0</course>
  <speed>0.0</speed>
  <fix>3d</fix>
</trkpt>
<trkpt lat="40.0713749" lon="-105.229789">
  <ele>1583.0</ele>
  <time>2026-08-28T17:51:57Z</time>
  <course>248.23</course>
  <speed>0.0</speed>
  <fix>3d</fix>
</trkpt>
<trkpt lat="40.0713749" lon="-105.229789">
  <ele>1583.0</ele>
  <time>2026-08-28T17:51:57Z</time>
  <course>0.0</course>
  <speed>0.0</speed>
  <fix>3d</fix>
</trkpt>
<trkpt lat="40.0713749" lon="-105.229789">
  <ele>1583.0</ele>
  <time>2026-08-28T17:51:57Z</time>
  <course>248.25</course>
  <speed>0.0</speed>
  <fix>3d</fix>
</trkpt>
<trkpt lat="40.0713749" lon="-105.229789">
  <ele>1583.0</ele>
  <time>2026-08-28T17:51:57Z</time>
  <course>0.0</course>
  <speed>0.0</speed>
  <fix>3d</fix>
</trkpt>
<trkpt lat="40.0713749" lon="-105.229789">
  <ele>1583.0</ele>
  <time>2026-08-28T17:51:57Z</time>
  <course>248.26</course>
  <speed>0.0</speed>
  <fix>3d</fix>
</trkpt>
<trkpt lat="40.0713749" lon="-105.229789">
  <ele>1583.0</ele>
  <time>2026-08-28T17:51:57Z</time>
  <course>0.0</course>
  <speed>0.0</speed>
  <fix>3d</fix>
</trkpt>
<trkpt lat="40.0713749" lon="-105.229789">
  <ele>1583.0</ele>
  <time>2026-08-28T17:51:57Z</time>
  <course>248.28</course>
  <speed>0.0</speed>
  <fix>3d</fix>
</trkpt>
<trkpt lat="40.0713749" lon="-105.229789">
  <ele>1583.0</ele>
  <time>2026-08-28T17:51:57Z</time>
  <course>0.0</course>
  <speed>0.0</speed>
  <fix>3d</fix>
</trkpt>
<trkpt lat="40.0713749" lon="-105.229789">
  <ele>1583.0</ele>
  <time>2026-08-28T17:51:57Z</time>
  <course>248.29</course>
  <speed>0.0</speed>
  <fix>3d</fix>
</trkpt>
<trkpt lat="40.0713749" lon="-105.229789">
  <ele>1583.0</ele>
  <time>2026-08-28T17:51:57Z</time>
  <course>0.0</course>
  <speed>0.0</speed>
  <fix>3d</fix>
</trkpt>
<trkpt lat="40.0713749" lon="-105.229789">
  <ele>1583.0</ele>
  <time>2026-08-28T17:51:57Z</time>
  <course>248.3</course>
  <speed>0.0</speed>
  <fix>3d</fix>
</trkpt>
<trkpt lat="40.0713749" lon="-105.229789">
  <ele>1583.0</ele>
  <time>2026-08-28T17:51:57Z</time>
  <course>0.0</course>
  <speed>0.0</speed>
  <fix>3d</fix>
</trkpt>
<trkpt lat="40.0713749" lon="-105.229789">
  <ele>1583.0</ele>
  <time>2026-08-28T17:51:57Z</time>
  <course>248.31</course>
  <speed>0.0</speed>
  <fix>3d</fix>
</trkpt>
<trkpt lat="40.0713749" lon="-105.229789">
  <ele>1583.0</ele>
  <time>2026-08-28T17:51:57Z</time>
  <course>0.0</course>
  <speed>0.0</speed>
  <fix>3d</fix>
</trkpt>
<trkpt lat="40.0713749" lon="-105.229789">
  <ele>1583.0</ele>
  <time>2026-08-28T17:51:57Z</time>
  <course>248.32</course>
  <speed>0.0</speed>
  <fix>3d</fix>
</trkpt>
<trkpt lat="40.0713749" lon="-105.229789">
  <ele>1583.0</ele>
  <time>2026-08-28T17:51:57Z</time>
  <course>0.0</course>
  <speed>0.0</speed>
  <fix>3d</fix>
</trkpt>
<trkpt lat="40.0713749" lon="-105.229789">
  <ele>1583.0</ele>
  <time>2026-08-28T17:51:57Z</time>
  <course>248.33</course>
  <speed>0.0</speed>
  <fix>3d</fix>
</trkpt>
<trkpt lat="40.0713749" lon="-105.229789">
  <ele>1583.0</ele>
  <time>2026-08-28T17:51:57Z</time>
  <course>0.0</course>
  <speed>0.0</speed>
  <fix>3d</fix>
</trkpt>
<trkpt lat="40.0713749" lon="-105.229789">
  <ele>1583.0</ele>
  <time>2026-08-28T17:51:57Z</time>
  <course>248.34</course>
  <speed>0.0</speed>
  <fix>3d</fix>
</trkpt>
<trkpt lat="40.0713749" lon="-105.229789">
  <ele>1583.0</ele>
  <time>2026-08-28T17:51:57Z</time>
  <course>0.0</course>
  <speed>0.0</speed>
  <fix>3d</fix>
</trkpt>
<trkpt lat="40.0713749" lon="-105.229789">
  <ele>1583.0</ele>
  <time>2026-08-28T17:51:57Z</time>
  <course>248.35</course>
  <speed>0.0</speed>
  <fix>3d</fix>
</trkpt>
<trkpt lat="40.0713749" lon="-105.229789">
  <ele>1583.0</ele>
  <time>2026-08-28T17:51:57Z</time>
  <course>0.0</course>
  <speed>0.0</speed>
  <fix>3d</fix>
</trkpt>
<trkpt lat="40.0713749" lon="-105.229789">
  <ele>1583.0</ele>
  <time>2026-08-28T17:51:57Z</time>
  <course>248.35</course>
  <speed>0.0</speed>
  <fix>3d</fix>
</trkpt>
<trkpt lat="40.0713749" lon="-105.229789">
  <ele>1583.0</ele>
  <time>2026-08-28T17:51:57Z</time>
  <course>0.0</course>
  <speed>0.0</speed>
  <fix>3d</fix>
</trkpt>
<trkpt lat="40.0713749" lon="-105.229789">
  <ele>1583.0</ele>
  <time>2026-08-28T17:51:57Z</time>
  <course>248.36</course>
  <speed>0.0</speed>
  <fix>3d</fix>
</trkpt>
<trkpt lat="40.0713749" lon="-105.229789">
  <ele>1583.0</ele>
  <time>2026-08-28T17:51:57Z</time>
  <course>0.0</course>
  <speed>0.0</speed>
  <fix>3d</fix>
</trkpt>
<trkpt lat="40.0713749" lon="-105.229789">
  <ele>1583.0</ele>
  <time>2026-08-28T17:51:57Z</time>
  <course>248.37</course>
  <speed>0.0</speed>
  <fix>3d</fix>
</trkpt>
<trkpt lat="40.0713749" lon="-105.229789">
  <ele>1583.0</ele>
  <time>2026-08-28T17:51:57Z</time>
  <course>0.0</course>
  <speed>0.0</speed>
  <fix>3d</fix>
</trkpt>
<trkpt lat="40.0713749" lon="-105.229789">
  <ele>1583.0</ele>
  <time>2026-08-28T17:51:57Z</time>
  <course>248.37</course>
  <speed>0.0</speed>
  <fix>3d</fix>
</trkpt>
<trkpt lat="40.0713749" lon="-105.229789">
  <ele>1583.0</ele>
  <time>2026-08-28T17:51:57Z</time>
  <course>0.0</course>
  <speed>0.0</speed>
  <fix>3d</fix>
</trkpt>
<trkpt lat="40.0713749" lon="-105.229789">
  <ele>1583.0</ele>
  <time>2026-08-28T17:51:57Z</time>
  <course>248.38</course>
  <speed>0.0</speed>
  <fix>3d</fix>
</trkpt>
<trkpt lat="40.0713749" lon="-105.229789">
  <ele>1583.0</ele>
  <time>2026-08-28T17:51:57Z</time>
  <course>0.0</course>
  <speed>0.0</speed>
  <fix>3d</fix>
</trkpt>
<trkpt lat="40.0713749" lon="-105.229789">
  <ele>1583.0</ele>
  <time>2026-08-28T17:51:57Z</time>
  <course>248.38</course>
  <speed>0.0</speed>
  <fix>3d</fix>
</trkpt>
<trkpt lat="40.0713749" lon="-105.229789">
  <ele>1583.0</ele>
  <time>2026-08-28T17:51:57Z</time>
  <course>0.0</course>
  <speed>0.0</speed>
  <fix>3d</fix>
</trkpt>
<trkpt lat="40.0713749" lon="-105.229789">
  <ele>1583.0</ele>
  <time>2026-08-28T17:51:57Z</time>
  <course>248.39</course>
  <speed>0.0</speed>
  <fix>3d</fix>
</trkpt>
<trkpt lat="40.0713749" lon="-105.229789">
  <ele>1583.0</ele>
  <time>2026-08-28T17:51:57Z</time>
  <course>0.0</course>
  <speed>0.0</speed>
  <fix>3d</fix>
</trkpt>
<trkpt lat="40.0713749" lon="-105.229789">
  <ele>1583.0</ele>
  <time>2026-08-28T17:51:57Z</time>
  <course>248.39</course>
  <speed>0.0</speed>
  <fix>3d</fix>
</trkpt>
<trkpt lat="40.0713749" lon="-105.229789">
  <ele>1583.0</ele>
  <time>2026-08-28T17:51:57Z</time>
  <course>0.0</course>
  <speed>0.0</speed>
  <fix>3d</fix>
</trkpt>
<trkpt lat="40.0713749" lon="-105.229789">
  <ele>1583.0</ele>
  <time>2026-08-28T17:51:57Z</time>
  <course>248.4</course>
  <speed>0.0</speed>
  <fix>3d</fix>
</trkpt>
<trkpt lat="40.0713749" lon="-105.229789">
  <ele>1583.0</ele>
  <time>2026-08-28T17:51:57Z</time>
  <course>0.0</course>
  <speed>0.0</speed>
  <fix>3d</fix>
</trkpt>
<trkpt lat="40.0713749" lon="-105.229789">
  <ele>1583.0</ele>
  <time>2026-08-28T17:51:57Z</time>
  <course>248.4</course>
  <speed>0.0</speed>
  <fix>3d</fix>
</trkpt>
<trkpt lat="40.0713749" lon="-105.229789">
  <ele>1583.0</ele>
  <time>2026-08-28T17:51:57Z</time>
  <course>0.0</course>
  <speed>0.0</speed>
  <fix>3d</fix>
</trkpt>
<trkpt lat="40.0713749" lon="-105.229789">
  <ele>1583.0</ele>
  <time>2026-08-28T17:51:57Z</time>
  <course>248.4</course>
  <speed>0.0</speed>
  <fix>3d</fix>
</trkpt>
<trkpt lat="40.0713749" lon="-105.229789">
  <ele>1583.0</ele>
  <time>2026-08-28T17:51:57Z</time>
  <course>0.0</course>
  <speed>0.0</speed>
  <fix>3d</fix>
</trkpt>
<trkpt lat="40.0713749" lon="-105.229789">
  <ele>1583.0</ele>
  <time>2026-08-28T17:51:57Z</time>
  <course>248.4</course>
  <speed>0.0</speed>
  <fix>3d</fix>
</trkpt>
<trkpt lat="40.0713749" lon="-105.229789">
  <ele>1583.0</ele>
  <time>2026-08-28T17:51:57Z</time>
  <course>0.0</course>
  <speed>0.0</speed>
  <fix>3d</fix>
</trkpt>
<trkpt lat="40.0713749" lon="-105.229789">
  <ele>1583.0</ele>
  <time>2026-08-28T17:51:57Z</time>
  <course>248.41</course>
  <speed>0.0</speed>
  <fix>3d</fix>
</trkpt>
<trkpt lat="40.0713749" lon="-105.229789">
  <ele>1583.0</ele>
  <time>2026-08-28T17:51:57Z</time>
  <course>0.0</course>
  <speed>0.0</speed>
  <fix>3d</fix>
</trkpt>
<trkpt lat="40.0713749" lon="-105.229789">
  <ele>1583.0</ele>
  <time>2026-08-28T17:51:57Z</time>
  <course>248.41</course>
  <speed>0.0</speed>
  <fix>3d</fix>
</trkpt>
<trkpt lat="40.0713749" lon="-105.229789">
  <ele>1583.0</ele>
  <time>2026-08-28T17:51:57Z</time>
  <course>0.0</course>
  <speed>0.0</speed>
  <fix>3d</fix>
</trkpt>
<trkpt lat="40.0713749" lon="-105.229789">
  <ele>1583.0</ele>
  <time>2026-08-28T17:51:57Z</time>
  <course>248.41</course>
  <speed>0.0</speed>
  <fix>3d</fix>
</trkpt>
<trkpt lat="40.0713749" lon="-105.229789">
  <ele>1583.0</ele>
  <time>2026-08-28T17:51:57Z</time>
  <course>0.0</course>
  <speed>0.0</speed>
  <fix>3d</fix>
</trkpt>
<trkpt lat="40.0713749" lon="-105.229789">
  <ele>1583.0</ele>
  <time>2026-08-28T17:51:57Z</time>
  <course>248.41</course>
  <speed>0.0</speed>
  <fix>3d</fix>
</trkpt>
<trkpt lat="40.0713749" lon="-105.229789">
  <ele>1583.0</ele>
  <time>2026-08-28T17:51:57Z</time>
  <course>0.0</course>
  <speed>0.0</speed>
  <fix>3d</fix>
</trkpt>
<trkpt lat="40.0713749" lon="-105.229789">
  <ele>1583.0</ele>
  <time>2026-08-28T17:51:57Z</time>
  <course>248.41</course>
  <speed>0.0</speed>
  <fix>3d</fix>
</trkpt>
<trkpt lat="40.0713749" lon="-105.229789">
  <ele>1583.0</ele>
  <time>2026-08-28T17:51:57Z</time>
  <course>0.0</course>
  <speed>0.0</speed>
  <fix>3d</fix>
</trkpt>
<trkpt lat="40.0713749" lon="-105.229789">
  <ele>1583.0</ele>
  <time>2026-08-28T17:51:57Z</time>
  <course>248.41</course>
  <speed>0.0</speed>
  <fix>3d</fix>
</trkpt>
<trkpt lat="40.0713749" lon="-105.229789">
  <ele>1583.0</ele>
  <time>2026-08-28T17:51:57Z</time>
  <course>0.0</course>
  <speed>0.0</speed>
  <fix>3d</fix>
</trkpt>
<trkpt lat="40.0713749" lon="-105.229789">
  <ele>1583.0</ele>
  <time>2026-08-28T17:51:57Z</time>
  <course>248.41</course>
  <speed>0.0</speed>
  <fix>3d</fix>
</trkpt>
<trkpt lat="40.0713749" lon="-105.229789">
  <ele>1583.0</ele>
  <time>2026-08-28T17:51:57Z</time>
  <course>0.0</course>
  <speed>0.0</speed>
  <fix>3d</fix>
</trkpt>
<trkpt lat="40.0713749" lon="-105.229789">
  <ele>1583.0</ele>
  <time>2026-08-28T17:51:57Z</time>
  <course>248.41</course>
  <speed>0.0</speed>
  <fix>3d</fix>
</trkpt>
<trkpt lat="40.0713749" lon="-105.229789">
  <ele>1583.0</ele>
  <time>2026-08-28T17:51:57Z</time>
  <course>0.0</course>
  <speed>0.0</speed>
  <fix>3d</fix>
</trkpt>
<trkpt lat="40.0713749" lon="-105.229789">
  <ele>1583.0</ele>
  <time>2026-08-28T17:51:57Z</time>
  <course>248.41</course>
  <speed>0.0</speed>
  <fix>3d</fix>
</trkpt>
<trkpt lat="40.0713749" lon="-105.229789">
  <ele>1583.0</ele>
  <time>2026-08-28T17:51:57Z</time>
  <course>0.0</course>
  <speed>0.0</speed>
  <fix>3d</fix>
</trkpt>
<trkpt lat="40.0713749" lon="-105.229789">
  <ele>1583.0</ele>
  <time>2026-08-28T17:51:57Z</time>
  <course>248.41</course>
  <speed>0.0</speed>
  <fix>3d</fix>
</trkpt>
<trkpt lat="40.0713749" lon="-105.229789">
  <ele>1583.0</ele>
  <time>2026-08-28T17:51:57Z</time>
  <course>0.0</course>
  <speed>0.0</speed>
  <fix>3d</fix>
</trkpt>
<trkpt lat="40.0713749" lon="-105.229789">
  <ele>1583.0</ele>
  <time>2026-08-28T17:51:57Z</time>
  <course>248.41</course>
  <speed>0.0</speed>
  <fix>3d</fix>
</trkpt>
<trkpt lat="40.0713749" lon="-105.229789">
  <ele>1583.0</ele>
  <time>2026-08-28T17:51:57Z</time>
  <course>0.0</course>
  <speed>0.0</speed>
  <fix>3d</fix>
</trkpt>
<trkpt lat="40.0713749" lon="-105.229789">
  <ele>1583.0</ele>
  <time>2026-08-28T17:51:57Z</time>
  <course>248.41</course>
  <speed>0.0</speed>
  <fix>3d</fix>
</trkpt>
<trkpt lat="40.0713749" lon="-105.229789">
  <ele>1583.0</ele>
  <time>2026-08-28T17:51:57Z</time>
  <course>0.0</course>
  <speed>0.0</speed>
  <fix>3d</fix>
</trkpt>
<trkpt lat="40.0713749" lon="-105.229789">
  <ele>1583.0</ele>
  <time>2026-08-28T17:51:57Z</time>
  <course>248.41</course>
  <speed>0.0</speed>
  <fix>3d</fix>
</trkpt>
<trkpt lat="40.0713749" lon="-105.229789">
  <ele>1583.0</ele>
  <time>2026-08-28T17:51:57Z</time>
  <course>0.0</course>
  <speed>0.0</speed>
  <fix>3d</fix>
</trkpt>
<trkpt lat="40.0713749" lon="-105.229789">
  <ele>1583.0</ele>
  <time>2026-08-28T17:51:57Z</time>
  <course>248.41</course>
  <speed>0.0</speed>
  <fix>3d</fix>
</trkpt>
<trkpt lat="40.0713749" lon="-105.229789">
  <ele>1583.0</ele>
  <time>2026-08-28T17:51:57Z</time>
  <course>0.0</course>
  <speed>0.0</speed>
  <fix>3d</fix>
</trkpt>
<trkpt lat="40.0713749" lon="-105.229789">
  <ele>1583.0</ele>
  <time>2026-08-28T17:51:57Z</time>
  <course>248.41</course>
  <speed>0.0</speed>
  <fix>3d</fix>
</trkpt>
<trkpt lat="40.0713749" lon="-105.229789">
  <ele>1583.0</ele>
  <time>2026-08-28T17:51:57Z</time>
  <course>0.0</course>
  <speed>0.0</speed>
  <fix>3d</fix>
</trkpt>
<trkpt lat="40.0713749" lon="-105.229789">
  <ele>1583.0</ele>
  <time>2026-08-28T17:51:57Z</time>
  <course>248.41</course>
  <speed>0.0</speed>
  <fix>3d</fix>
</trkpt>
<trkpt lat="40.0713749" lon="-105.229789">
  <ele>1583.0</ele>
  <time>2026-08-28T17:51:57Z</time>
  <course>0.0</course>
  <speed>0.0</speed>
  <fix>3d</fix>
</trkpt>
<trkpt lat="40.0713749" lon="-105.229789">
  <ele>1583.0</ele>
  <time>2026-08-28T17:51:57Z</time>
  <course>248.4</course>
  <speed>0.0</speed>
  <fix>3d</fix>
</trkpt>
<trkpt lat="40.0713749" lon="-105.229789">
  <ele>1583.0</ele>
  <time>2026-08-28T17:51:57Z</time>
  <course>0.0</course>
  <speed>0.0</speed>
  <fix>3d</fix>
</trkpt>
<trkpt lat="40.0713749" lon="-105.229789">
  <ele>1583.0</ele>
  <time>2026-08-28T17:51:58Z</time>
  <course>248.4</course>
  <speed>0.01</speed>
  <fix>3d</fix>
</trkpt>
<trkpt lat="40.0713749" lon="-105.229789">
  <ele>1583.0</ele>
  <time>2026-08-28T17:51:58Z</time>
  <course>0.0</course>
  <speed>0.0</speed>
  <fix>3d</fix>
</trkpt>
<trkpt lat="40.0713749" lon="-105.229789">
  <ele>1583.0</ele>
  <time>2026-08-28T17:51:58Z</time>
  <course>248.4</course>
  <speed>0.01</speed>
  <fix>3d</fix>
</trkpt>
<trkpt lat="40.0713749" lon="-105.229789">
  <ele>1583.0</ele>
  <time>2026-08-28T17:51:58Z</time>
  <course>0.0</course>
  <speed>0.0</speed>
  <fix>3d</fix>
</trkpt>
<trkpt lat="40.0713749" lon="-105.229789">
  <ele>1583.0</ele>
  <time>2026-08-28T17:51:58Z</time>
  <course>248.4</course>
  <speed>0.01</speed>
  <fix>3d</fix>
</trkpt>
<trkpt lat="40.0713749" lon="-105.229789">
  <ele>1583.0</ele>
  <time>2026-08-28T17:51:58Z</time>
  <course>0.0</course>
  <speed>0.0</speed>
  <fix>3d</fix>
</trkpt>
<trkpt lat="40.0713749" lon="-105.229789">
  <ele>1583.0</ele>
  <time>2026-08-28T17:51:58Z</time>
  <course>248.4</course>
  <speed>0.01</speed>
  <fix>3d</fix>
</trkpt>
<trkpt lat="40.0713749" lon="-105.229789">
  <ele>1583.0</ele>
  <time>2026-08-28T17:51:58Z</time>
  <course>0.0</course>
  <speed>0.0</speed>
  <fix>3d</fix>
</trkpt>
<trkpt lat="40.0713749" lon="-105.229789">
  <ele>1583.0</ele>
  <time>2026-08-28T17:51:58Z</time>
  <course>248.39</course>
  <speed>0.01</speed>
  <fix>3d</fix>
</trkpt>
<trkpt lat="40.0713749" lon="-105.229789">
  <ele>1583.0</ele>
  <time>2026-08-28T17:51:58Z</time>
  <course>0.0</course>
  <speed>0.0</speed>
  <fix>3d</fix>
</trkpt>
<trkpt lat="40.0713749" lon="-105.229789">
  <ele>1583.0</ele>
  <time>2026-08-28T17:51:58Z</time>
  <course>248.39</course>
  <speed>0.01</speed>
  <fix>3d</fix>
</trkpt>
<trkpt lat="40.0713749" lon="-105.229789">
  <ele>1583.0</ele>
  <time>2026-08-28T17:51:58Z</time>
  <course>0.0</course>
  <speed>0.0</speed>
  <fix>3d</fix>
</trkpt>
<trkpt lat="40.0713749" lon="-105.229789">
  <ele>1583.0</ele>
  <time>2026-08-28T17:51:58Z</time>
  <course>248.39</course>
  <speed>0.01</speed>
  <fix>3d</fix>
</trkpt>
<trkpt lat="40.0713749" lon="-105.229789">
  <ele>1583.0</ele>
  <time>2026-08-28T17:51:58Z</time>
  <course>0.0</course>
  <speed>0.0</speed>
  <fix>3d</fix>
</trkpt>
<trkpt lat="40.0713749" lon="-105.229789">
  <ele>1583.0</ele>
  <time>2026-08-28T17:51:58Z</time>
  <course>248.38</course>
  <speed>0.01</speed>
  <fix>3d</fix>
</trkpt>
<trkpt lat="40.0713749" lon="-105.229789">
  <ele>1583.0</ele>
  <time>2026-08-28T17:51:58Z</time>
  <course>0.0</course>
  <speed>0.0</speed>
  <fix>3d</fix>
</trkpt>
<trkpt lat="40.0713749" lon="-105.229789">
  <ele>1583.0</ele>
  <time>2026-08-28T17:51:58Z</time>
  <course>248.38</course>
  <speed>0.01</speed>
  <fix>3d</fix>
</trkpt>
<trkpt lat="40.0713749" lon="-105.229789">
  <ele>1583.0</ele>
  <time>2026-08-28T17:51:58Z</time>
  <course>0.0</course>
  <speed>0.0</speed>
  <fix>3d</fix>
</trkpt>
<trkpt lat="40.0713749" lon="-105.229789">
  <ele>1583.0</ele>
  <time>2026-08-28T17:51:58Z</time>
  <course>248.38</course>
  <speed>0.01</speed>
  <fix>3d</fix>
</trkpt>
<trkpt lat="40.0713749" lon="-105.229789">
  <ele>1583.0</ele>
  <time>2026-08-28T17:51:58Z</time>
  <course>0.0</course>
  <speed>0.0</speed>
  <fix>3d</fix>
</trkpt>
<trkpt lat="40.0713749" lon="-105.229789">
  <ele>1583.0</ele>
  <time>2026-08-28T17:51:58Z</time>
  <course>248.37</course>
  <speed>0.01</speed>
  <fix>3d</fix>
</trkpt>
<trkpt lat="40.0713749" lon="-105.229789">
  <ele>1583.0</ele>
  <time>2026-08-28T17:51:58Z</time>
  <course>0.0</course>
  <speed>0.0</speed>
  <fix>3d</fix>
</trkpt>
<trkpt lat="40.0713749" lon="-105.229789">
  <ele>1583.0</ele>
  <time>2026-08-28T17:51:58Z</time>
  <course>248.37</course>
  <speed>0.01</speed>
  <fix>3d</fix>
</trkpt>
<trkpt lat="40.0713749" lon="-105.229789">
  <ele>1583.0</ele>
  <time>2026-08-28T17:51:58Z</time>
  <course>0.0</course>
  <speed>0.0</speed>
  <fix>3d</fix>
</trkpt>
<trkpt lat="40.0713749" lon="-105.229789">
  <ele>1583.0</ele>
  <time>2026-08-28T17:51:58Z</time>
  <course>248.37</course>
  <speed>0.01</speed>
  <fix>3d</fix>
</trkpt>
<trkpt lat="40.0713749" lon="-105.229789">
  <ele>1583.0</ele>
  <time>2026-08-28T17:51:58Z</time>
  <course>0.0</course>
  <speed>0.0</speed>
  <fix>3d</fix>
</trkpt>
<trkpt lat="40.0713749" lon="-105.229789">
  <ele>1583.0</ele>
  <time>2026-08-28T17:51:58Z</time>
  <course>248.36</course>
  <speed>0.01</speed>
  <fix>3d</fix>
</trkpt>
<trkpt lat="40.0713749" lon="-105.229789">
  <ele>1583.0</ele>
  <time>2026-08-28T17:51:58Z</time>
  <course>0.0</course>
  <speed>0.0</speed>
  <fix>3d</fix>
</trkpt>
<trkpt lat="40.0713749" lon="-105.229789">
  <ele>1583.0</ele>
  <time>2026-08-28T17:51:58Z</time>
  <course>248.36</course>
  <speed>0.01</speed>
  <fix>3d</fix>
</trkpt>
<trkpt lat="40.0713749" lon="-105.229789">
  <ele>1583.0</ele>
  <time>2026-08-28T17:51:58Z</time>
  <course>0.0</course>
  <speed>0.0</speed>
  <fix>3d</fix>
</trkpt>
<trkpt lat="40.0713749" lon="-105.229789">
  <ele>1583.0</ele>
  <time>2026-08-28T17:51:58Z</time>
  <course>248.36</course>
  <speed>0.01</speed>
  <fix>3d</fix>
</trkpt>
<trkpt lat="40.0713749" lon="-105.229789">
  <ele>1583.0</ele>
  <time>2026-08-28T17:51:58Z</time>
  <course>0.0</course>
  <speed>0.0</speed>
  <fix>3d</fix>
</trkpt>
<trkpt lat="40.0713749" lon="-105.229789">
  <ele>1583.0</ele>
  <time>2026-08-28T17:51:58Z</time>
  <course>248.35</course>
  <speed>0.01</speed>
  <fix>3d</fix>
</trkpt>
<trkpt lat="40.0713749" lon="-105.229789">
  <ele>1583.0</ele>
  <time>2026-08-28T17:51:58Z</time>
  <course>0.0</course>
  <speed>0.0</speed>
  <fix>3d</fix>
</trkpt>
<trkpt lat="40.0713749" lon="-105.229789">
  <ele>1583.0</ele>
  <time>2026-08-28T17:51:58Z</time>
  <course>248.35</course>
  <speed>0.01</speed>
  <fix>3d</fix>
</trkpt>
<trkpt lat="40.0713749" lon="-105.229789">
  <ele>1583.0</ele>
  <time>2026-08-28T17:51:58Z</time>
  <course>0.0</course>
  <speed>0.0</speed>
  <fix>3d</fix>
</trkpt>
<trkpt lat="40.0713749" lon="-105.229789">
  <ele>1583.0</ele>
  <time>2026-08-28T17:51:58Z</time>
  <course>248.35</course>
  <speed>0.01</speed>
  <fix>3d</fix>
</trkpt>
<trkpt lat="40.0713749" lon="-105.229789">
  <ele>1583.0</ele>
  <time>2026-08-28T17:51:58Z</time>
  <course>0.0</course>
  <speed>0.0</speed>
  <fix>3d</fix>
</trkpt>
<trkpt lat="39.655741" lon="-104.1383097">
  <ele>1566.58</ele>
  <time>2026-08-28T17:51:58Z</time>
  <course>0.0</course>
  <speed>0.0</speed>
  <fix>3d</fix>
</trkpt>
<trkpt lat="40.0713749" lon="-105.229789">
  <ele>1583.0</ele>
  <time>2026-08-28T17:51:58Z</time>
  <course>0.0</course>
  <speed>0.0</speed>
  <fix>3d</fix>
</trkpt>
<trkpt lat="40.0713749" lon="-105.229789">
  <ele>1583.0</ele>
  <time>2026-08-28T17:51:58Z</time>
  <course>238.36</course>
  <speed>0.0</speed>
  <fix>3d</fix>
</trkpt>
<trkpt lat="40.0713749" lon="-105.229789">
  <ele>1583.0</ele>
  <time>2026-08-28T17:51:58Z</time>
  <course>0.0</course>
  <speed>0.0</speed>
  <fix>3d</fix>
</trkpt>
<trkpt lat="40.0713749" lon="-105.229789">
  <ele>1583.0</ele>
  <time>2026-08-28T17:51:58Z</time>
  <course>238.44</course>
  <speed>0.0</speed>
  <fix>3d</fix>
</trkpt>
<trkpt lat="40.0713749" lon="-105.229789">
  <ele>1583.0</ele>
  <time>2026-08-28T17:51:58Z</time>
  <course>0.0</course>
  <speed>0.0</speed>
  <fix>3d</fix>
</trkpt>
<trkpt lat="40.0713749" lon="-105.229789">
  <ele>1583.0</ele>
  <time>2026-08-28T17:51:58Z</time>
  <course>238.64</course>
  <speed>0.0</speed>
  <fix>3d</fix>
</trkpt>
<trkpt lat="40.0713749" lon="-105.229789">
  <ele>1583.0</ele>
  <time>2026-08-28T17:51:58Z</time>
  <course>0.0</course>
  <speed>0.0</speed>
  <fix>3d</fix>
</trkpt>
<trkpt lat="40.0713749" lon="-105.229789">
  <ele>1583.0</ele>
  <time>2026-08-28T17:51:58Z</time>
  <course>238.93</course>
  <speed>0.0</speed>
  <fix>3d</fix>
</trkpt>
<trkpt lat="40.0713749" lon="-105.229789">
  <ele>1583.0</ele>
  <time>2026-08-28T17:51:58Z</time>
  <course>0.0</course>
  <speed>0.0</speed>
  <fix>3d</fix>
</trkpt>
<trkpt lat="40.0713749" lon="-105.229789">
  <ele>1583.0</ele>
  <time>2026-08-28T17:51:58Z</time>
  <course>239.26</course>
  <speed>0.0</speed>
  <fix>3d</fix>
</trkpt>
<trkpt lat="40.0713749" lon="-105.229789">
  <ele>1583.0</ele>
  <time>2026-08-28T17:51:58Z</time>
  <course>0.0</course>
  <speed>0.0</speed>
  <fix>3d</fix>
</trkpt>
<trkpt lat="40.0713749" lon="-105.229789">
  <ele>1583.0</ele>
  <time>2026-08-28T17:51:58Z</time>
  <course>239.61</course>
  <speed>0.0</speed>
  <fix>3d</fix>
</trkpt>
<trkpt lat="40.0713749" lon="-105.229789">
  <ele>1583.0</ele>
  <time>2026-08-28T17:51:58Z</time>
  <course>0.0</course>
  <speed>0.0</speed>
  <fix>3d</fix>
</trkpt>
<trkpt lat="40.0713749" lon="-105.229789">
  <ele>1583.0</ele>
  <time>2026-08-28T17:51:58Z</time>
  <course>239.96</course>
  <speed>0.0</speed>
  <fix>3d</fix>
</trkpt>
<trkpt lat="40.0713749" lon="-105.229789">
  <ele>1583.0</ele>
  <time>2026-08-28T17:51:58Z</time>
  <course>0.0</course>
  <speed>0.0</speed>
  <fix>3d</fix>
</trkpt>
<trkpt lat="40.0713749" lon="-105.229789">
  <ele>1583.0</ele>
  <time>2026-08-28T17:51:58Z</time>
  <course>240.29</course>
  <speed>0.0</speed>
  <fix>3d</fix>
</trkpt>
<trkpt lat="40.0713749" lon="-105.229789">
  <ele>1583.0</ele>
  <time>2026-08-28T17:51:58Z</time>
  <course>0.0</course>
  <speed>0.0</speed>
  <fix>3d</fix>
</trkpt>
<trkpt lat="40.0713749" lon="-105.229789">
  <ele>1583.0</ele>
  <time>2026-08-28T17:51:58Z</time>
  <course>240.61</course>
  <speed>0.0</speed>
  <fix>3d</fix>
</trkpt>
<trkpt lat="40.0713749" lon="-105.229789">
  <ele>1583.0</ele>
  <time>2026-08-28T17:51:58Z</time>
  <course>0.0</course>
  <speed>0.0</speed>
  <fix>3d</fix>
</trkpt>
<trkpt lat="40.0713749" lon="-105.229789">
  <ele>1583.0</ele>
  <time>2026-08-28T17:51:58Z</time>
  <course>240.92</course>
  <speed>0.0</speed>
  <fix>3d</fix>
</trkpt>
<trkpt lat="40.0713749" lon="-105.229789">
  <ele>1583.0</ele>
  <time>2026-08-28T17:51:58Z</time>
  <course>0.0</course>
  <speed>0.0</speed>
  <fix>3d</fix>
</trkpt>
<trkpt lat="40.0713749" lon="-105.229789">
  <ele>1583.0</ele>
  <time>2026-08-28T17:51:58Z</time>
  <course>241.21</course>
  <speed>0.0</speed>
  <fix>3d</fix>
</trkpt>
<trkpt lat="40.0713749" lon="-105.229789">
  <ele>1583.0</ele>
  <time>2026-08-28T17:51:58Z</time>
  <course>0.0</course>
  <speed>0.0</speed>
  <fix>3d</fix>
</trkpt>
<trkpt lat="40.0713749" lon="-105.229789">
  <ele>1583.0</ele>
  <time>2026-08-28T17:51:58Z</time>
  <course>241.49</course>
  <speed>0.0</speed>
  <fix>3d</fix>
</trkpt>
<trkpt lat="40.0713749" lon="-105.229789">
  <ele>1583.0</ele>
  <time>2026-08-28T17:51:58Z</time>
  <course>0.0</course>
  <speed>0.0</speed>
  <fix>3d</fix>
</trkpt>
<trkpt lat="40.0713749" lon="-105.229789">
  <ele>1583.0</ele>
  <time>2026-08-28T17:51:58Z</time>
  <course>241.77</course>
  <speed>0.0</speed>
  <fix>3d</fix>
</trkpt>
<trkpt lat="40.0713749" lon="-105.229789">
  <ele>1583.0</ele>
  <time>2026-08-28T17:51:58Z</time>
  <course>0.0</course>
  <speed>0.0</speed>
  <fix>3d</fix>
</trkpt>
<trkpt lat="40.0713749" lon="-105.229789">
  <ele>1583.0</ele>
  <time>2026-08-28T17:51:58Z</time>
  <course>242.03</course>
  <speed>0.0</speed>
  <fix>3d</fix>
</trkpt>
<trkpt lat="40.0713749" lon="-105.229789">
  <ele>1583.0</ele>
  <time>2026-08-28T17:51:58Z</time>
  <course>0.0</course>
  <speed>0.0</speed>
  <fix>3d</fix>
</trkpt>
<trkpt lat="40.0713749" lon="-105.229789">
  <ele>1583.0</ele>
  <time>2026-08-28T17:51:58Z</time>
  <course>242.29</course>
  <speed>0.0</speed>
  <fix>3d</fix>
</trkpt>
<trkpt lat="40.0713749" lon="-105.229789">
  <ele>1583.0</ele>
  <time>2026-08-28T17:51:58Z</time>
  <course>0.0</course>
  <speed>0.0</speed>
  <fix>3d</fix>
</trkpt>
<trkpt lat="40.0713749" lon="-105.229789">
  <ele>1583.0</ele>
  <time>2026-08-28T17:51:58Z</time>
  <course>242.54</course>
  <speed>0.0</speed>
  <fix>3d</fix>
</trkpt>
<trkpt lat="40.0713749" lon="-105.229789">
  <ele>1583.0</ele>
  <time>2026-08-28T17:51:58Z</time>
  <course>0.0</course>
  <speed>0.0</speed>
  <fix>3d</fix>
</trkpt>
<trkpt lat="40.0713749" lon="-105.229789">
  <ele>1583.0</ele>
  <time>2026-08-28T17:51:58Z</time>
  <course>242.79</course>
  <speed>0.0</speed>
  <fix>3d</fix>
</trkpt>
<trkpt lat="40.0713749" lon="-105.229789">
  <ele>1583.0</ele>
  <time>2026-08-28T17:51:58Z</time>
  <course>0.0</course>
  <speed>0.0</speed>
  <fix>3d</fix>
</trkpt>
<trkpt lat="40.0713749" lon="-105.229789">
  <ele>1583.0</ele>
  <time>2026-08-28T17:51:58Z</time>
  <course>243.02</course>
  <speed>0.0</speed>
  <fix>3d</fix>
</trkpt>
<trkpt lat="40.0713749" lon="-105.229789">
  <ele>1583.0</ele>
  <time>2026-08-28T17:51:58Z</time>
  <course>0.0</course>
  <speed>0.0</speed>
  <fix>3d</fix>
</trkpt>
<trkpt lat="40.0713749" lon="-105.229789">
  <ele>1583.0</ele>
  <time>2026-08-28T17:51:58Z</time>
  <course>243.25</course>
  <speed>0.0</speed>
  <fix>3d</fix>
</trkpt>
<trkpt lat="40.0713749" lon="-105.229789">
  <ele>1583.0</ele>
  <time>2026-08-28T17:51:58Z</time>
  <course>0.0</course>
  <speed>0.0</speed>
  <fix>3d</fix>
</trkpt>
<trkpt lat="40.0713749" lon="-105.229789">
  <ele>1583.0</ele>
  <time>2026-08-28T17:51:58Z</time>
  <course>243.47</course>
  <speed>0.0</speed>
  <fix>3d</fix>
</trkpt>
<trkpt lat="40.0713749" lon="-105.229789">
  <ele>1583.0</ele>
  <time>2026-08-28T17:51:58Z</time>
  <course>0.0</course>
  <speed>0.0</speed>
  <fix>3d</fix>
</trkpt>
<trkpt lat="40.0713749" lon="-105.229789">
  <ele>1583.0</ele>
  <time>2026-08-28T17:51:58Z</time>
  <course>243.68</course>
  <speed>0.0</speed>
  <fix>3d</fix>
</trkpt>
<trkpt lat="40.0713749" lon="-105.229789">
  <ele>1583.0</ele>
  <time>2026-08-28T17:51:58Z</time>
  <course>0.0</course>
  <speed>0.0</speed>
  <fix>3d</fix>
</trkpt>
<trkpt lat="40.0713749" lon="-105.229789">
  <ele>1583.0</ele>
  <time>2026-08-28T17:51:58Z</time>
  <course>243.89</course>
  <speed>0.0</speed>
  <fix>3d</fix>
</trkpt>
<trkpt lat="40.0713749" lon="-105.229789">
  <ele>1583.0</ele>
  <time>2026-08-28T17:51:58Z</time>
  <course>0.0</course>
  <speed>0.0</speed>
  <fix>3d</fix>
</trkpt>
<trkpt lat="40.0713749" lon="-105.229789">
  <ele>1583.0</ele>
  <time>2026-08-28T17:51:58Z</time>
  <course>244.09</course>
  <speed>0.0</speed>
  <fix>3d</fix>
</trkpt>
<trkpt lat="40.0713749" lon="-105.229789">
  <ele>1583.0</ele>
  <time>2026-08-28T17:51:58Z</time>
  <course>0.0</course>
  <speed>0.0</speed>
  <fix>3d</fix>
</trkpt>
<trkpt lat="40.0713749" lon="-105.229789">
  <ele>1583.0</ele>
  <time>2026-08-28T17:51:58Z</time>
  <course>244.28</course>
  <speed>0.0</speed>
  <fix>3d</fix>
</trkpt>
<trkpt lat="40.0713749" lon="-105.229789">
  <ele>1583.0</ele>
  <time>2026-08-28T17:51:58Z</time>
  <course>0.0</course>
  <speed>0.0</speed>
  <fix>3d</fix>
</trkpt>
<trkpt lat="40.0713749" lon="-105.229789">
  <ele>1583.0</ele>
  <time>2026-08-28T17:51:58Z</time>
  <course>244.46</course>
  <speed>0.0</speed>
  <fix>3d</fix>
</trkpt>
<trkpt lat="40.0713749" lon="-105.229789">
  <ele>1583.0</ele>
  <time>2026-08-28T17:51:58Z</time>
  <course>0.0</course>
  <speed>0.0</speed>
  <fix>3d</fix>
</trkpt>
<trkpt lat="40.0713749" lon="-105.229789">
  <ele>1583.0</ele>
  <time>2026-08-28T17:51:58Z</time>
  <course>244.64</course>
  <speed>0.0</speed>
  <fix>3d</fix>
</trkpt>
<trkpt lat="40.0713749" lon="-105.229789">
  <ele>1583.0</ele>
  <time>2026-08-28T17:51:58Z</time>
  <course>0.0</course>
  <speed>0.0</speed>
  <fix>3d</fix>
</trkpt>
<trkpt lat="40.0713749" lon="-105.229789">
  <ele>1583.0</ele>
  <time>2026-08-28T17:51:58Z</time>
  <course>244.81</course>
  <speed>0.0</speed>
  <fix>3d</fix>
</trkpt>
<trkpt lat="40.0713749" lon="-105.229789">
  <ele>1583.0</ele>
  <time>2026-08-28T17:51:58Z</time>
  <course>0.0</course>
  <speed>0.0</speed>
  <fix>3d</fix>
</trkpt>
<trkpt lat="40.0713749" lon="-105.229789">
  <ele>1583.0</ele>
  <time>2026-08-28T17:51:58Z</time>
  <course>244.97</course>
  <speed>0.0</speed>
  <fix>3d</fix>
</trkpt>
<trkpt lat="40.0713749" lon="-105.229789">
  <ele>1583.0</ele>
  <time>2026-08-28T17:51:58Z</time>
  <course>0.0</course>
  <speed>0.0</speed>
  <fix>3d</fix>
</trkpt>
<trkpt lat="40.0713749" lon="-105.229789">
  <ele>1583.0</ele>
  <time>2026-08-28T17:51:58Z</time>
  <course>245.13</course>
  <speed>0.0</speed>
  <fix>3d</fix>
</trkpt>
<trkpt lat="40.0713749" lon="-105.229789">
  <ele>1583.0</ele>
  <time>2026-08-28T17:51:58Z</time>
  <course>0.0</course>
  <speed>0.0</speed>
  <fix>3d</fix>
</trkpt>
<trkpt lat="40.0713749" lon="-105.229789">
  <ele>1583.0</ele>
  <time>2026-08-28T17:51:58Z</time>
  <course>245.29</course>
  <speed>0.0</speed>
  <fix>3d</fix>
</trkpt>
<trkpt lat="40.0713749" lon="-105.229789">
  <ele>1583.0</ele>
  <time>2026-08-28T17:51:58Z</time>
  <course>0.0</course>
  <speed>0.0</speed>
  <fix>3d</fix>
</trkpt>
<trkpt lat="40.0713749" lon="-105.229789">
  <ele>1583.0</ele>
  <time>2026-08-28T17:51:58Z</time>
  <course>245.43</course>
  <speed>0.0</speed>
  <fix>3d</fix>
</trkpt>
<trkpt lat="40.0713749" lon="-105.229789">
  <ele>1583.0</ele>
  <time>2026-08-28T17:51:58Z</time>
  <course>0.0</course>
  <speed>0.0</speed>
  <fix>3d</fix>
</trkpt>
<trkpt lat="40.0713749" lon="-105.229789">
  <ele>1583.0</ele>
  <time>2026-08-28T17:51:58Z</time>
  <course>245.57</course>
  <speed>0.0</speed>
  <fix>3d</fix>
</trkpt>
<trkpt lat="40.0713749" lon="-105.229789">
  <ele>1583.0</ele>
  <time>2026-08-28T17:51:58Z</time>
  <course>0.0</course>
  <speed>0.0</speed>
  <fix>3d</fix>
</trkpt>
<trkpt lat="40.0713749" lon="-105.229789">
  <ele>1583.0</ele>
  <time>2026-08-28T17:51:58Z</time>
  <course>245.71</course>
  <speed>0.0</speed>
  <fix>3d</fix>
</trkpt>
<trkpt lat="40.0713749" lon="-105.229789">
  <ele>1583.0</ele>
  <time>2026-08-28T17:51:58Z</time>
  <course>0.0</course>
  <speed>0.0</speed>
  <fix>3d</fix>
</trkpt>
<trkpt lat="40.0713749" lon="-105.229789">
  <ele>1583.0</ele>
  <time>2026-08-28T17:51:58Z</time>
  <course>245.84</course>
  <speed>0.0</speed>
  <fix>3d</fix>
</trkpt>
<trkpt lat="40.0713749" lon="-105.229789">
  <ele>1583.0</ele>
  <time>2026-08-28T17:51:58Z</time>
  <course>0.0</course>
  <speed>0.0</speed>
  <fix>3d</fix>
</trkpt>
<trkpt lat="40.0713749" lon="-105.229789">
  <ele>1583.0</ele>
  <time>2026-08-28T17:51:58Z</time>
  <course>245.96</course>
  <speed>0.0</speed>
  <fix>3d</fix>
</trkpt>
<trkpt lat="40.0713749" lon="-105.229789">
  <ele>1583.0</ele>
  <time>2026-08-28T17:51:58Z</time>
  <course>0.0</course>
  <speed>0.0</speed>
  <fix>3d</fix>
</trkpt>
<trkpt lat="40.0713749" lon="-105.229789">
  <ele>1583.0</ele>
  <time>2026-08-28T17:51:58Z</time>
  <course>246.08</course>
  <speed>0.0</speed>
  <fix>3d</fix>
</trkpt>
<trkpt lat="40.0713749" lon="-105.229789">
  <ele>1583.0</ele>
  <time>2026-08-28T17:51:58Z</time>
  <course>0.0</course>
  <speed>0.0</speed>
  <fix>3d</fix>
</trkpt>
<trkpt lat="40.0713749" lon="-105.229789">
  <ele>1583.0</ele>
  <time>2026-08-28T17:51:58Z</time>
  <course>246.19</course>
  <speed>0.0</speed>
  <fix>3d</fix>
</trkpt>
<trkpt lat="40.0713749" lon="-105.229789">
  <ele>1583.0</ele>
  <time>2026-08-28T17:51:58Z</time>
  <course>0.0</course>
  <speed>0.0</speed>
  <fix>3d</fix>
</trkpt>
<trkpt lat="40.0713749" lon="-105.229789">
  <ele>1583.0</ele>
  <time>2026-08-28T17:51:58Z</time>
  <course>246.3</course>
  <speed>0.0</speed>
  <fix>3d</fix>
</trkpt>
<trkpt lat="40.0713749" lon="-105.229789">
  <ele>1583.0</ele>
  <time>2026-08-28T17:51:58Z</time>
  <course>0.0</course>
  <speed>0.0</speed>
  <fix>3d</fix>
</trkpt>
<trkpt lat="40.0713749" lon="-105.229789">
  <ele>1583.0</ele>
  <time>2026-08-28T17:51:58Z</time>
  <course>246.41</course>
  <speed>0.0</speed>
  <fix>3d</fix>
</trkpt>
<trkpt lat="40.0713749" lon="-105.229789">
  <ele>1583.0</ele>
  <time>2026-08-28T17:51:58Z</time>
  <course>0.0</course>
  <speed>0.0</speed>
  <fix>3d</fix>
</trkpt>
<trkpt lat="40.0713749" lon="-105.229789">
  <ele>1583.0</ele>
  <time>2026-08-28T17:51:58Z</time>
  <course>246.51</course>
  <speed>0.0</speed>
  <fix>3d</fix>
</trkpt>
<trkpt lat="40.0713749" lon="-105.229789">
  <ele>1583.0</ele>
  <time>2026-08-28T17:51:58Z</time>
  <course>0.0</course>
  <speed>0.0</speed>
  <fix>3d</fix>
</trkpt>
<trkpt lat="40.0713749" lon="-105.229789">
  <ele>1583.0</ele>
  <time>2026-08-28T17:51:58Z</time>
  <course>246.6</course>
  <speed>0.0</speed>
  <fix>3d</fix>
</trkpt>
<trkpt lat="40.0713749" lon="-105.229789">
  <ele>1583.0</ele>
  <time>2026-08-28T17:51:58Z</time>
  <course>0.0</course>
  <speed>0.0</speed>
  <fix>3d</fix>
</trkpt>
<trkpt lat="40.0713749" lon="-105.229789">
  <ele>1583.0</ele>
  <time>2026-08-28T17:51:58Z</time>
  <course>246.7</course>
  <speed>0.0</speed>
  <fix>3d</fix>
</trkpt>
<trkpt lat="40.0713749" lon="-105.229789">
  <ele>1583.0</ele>
  <time>2026-08-28T17:51:59Z</time>
  <course>0.0</course>
  <speed>0.0</speed>
  <fix>3d</fix>
</trkpt>
<trkpt lat="40.0713749" lon="-105.229789">
  <ele>1583.0</ele>
  <time>2026-08-28T17:51:59Z</time>
  <course>246.78</course>
  <speed>0.0</speed>
  <fix>3d</fix>
</trkpt>
<trkpt lat="40.0713749" lon="-105.229789">
  <ele>1583.0</ele>
  <time>2026-08-28T17:51:59Z</time>
  <course>0.0</course>
  <speed>0.0</speed>
  <fix>3d</fix>
</trkpt>
<trkpt lat="40.0713749" lon="-105.229789">
  <ele>1583.0</ele>
  <time>2026-08-28T17:51:59Z</time>
  <course>246.87</course>
  <speed>0.0</speed>
  <fix>3d</fix>
</trkpt>
<trkpt lat="40.0713749" lon="-105.229789">
  <ele>1583.0</ele>
  <time>2026-08-28T17:51:59Z</time>
  <course>0.0</course>
  <speed>0.0</speed>
  <fix>3d</fix>
</trkpt>
<trkpt lat="40.0713749" lon="-105.229789">
  <ele>1583.0</ele>
  <time>2026-08-28T17:51:59Z</time>
  <course>246.95</course>
  <speed>0.0</speed>
  <fix>3d</fix>
</trkpt>
<trkpt lat="40.0713749" lon="-105.229789">
  <ele>1583.0</ele>
  <time>2026-08-28T17:51:59Z</time>
  <course>0.0</course>
  <speed>0.0</speed>
  <fix>3d</fix>
</trkpt>
<trkpt lat="40.0713749" lon="-105.229789">
  <ele>1583.0</ele>
  <time>2026-08-28T17:51:59Z</time>
  <course>247.02</course>
  <speed>0.0</speed>
  <fix>3d</fix>
</trkpt>
<trkpt lat="40.0713749" lon="-105.229789">
  <ele>1583.0</ele>
  <time>2026-08-28T17:51:59Z</time>
  <course>0.0</course>
  <speed>0.0</speed>
  <fix>3d</fix>
</trkpt>
<trkpt lat="40.0713749" lon="-105.229789">
  <ele>1583.0</ele>
  <time>2026-08-28T17:51:59Z</time>
  <course>247.1</course>
  <speed>0.0</speed>
  <fix>3d</fix>
</trkpt>
<trkpt lat="40.0713749" lon="-105.229789">
  <ele>1583.0</ele>
  <time>2026-08-28T17:51:59Z</time>
  <course>0.0</course>
  <speed>0.0</speed>
  <fix>3d</fix>
</trkpt>
<trkpt lat="40.0713749" lon="-105.229789">
  <ele>1583.0</ele>
  <time>2026-08-28T17:51:59Z</time>
  <course>247.17</course>
  <speed>0.0</speed>
  <fix>3d</fix>
</trkpt>
<trkpt lat="40.0713749" lon="-105.229789">
  <ele>1583.0</ele>
  <time>2026-08-28T17:51:59Z</time>
  <course>0.0</course>
  <speed>0.0</speed>
  <fix>3d</fix>
</trkpt>
<trkpt lat="40.0713749" lon="-105.229789">
  <ele>1583.0</ele>
  <time>2026-08-28T17:51:59Z</time>
  <course>247.24</course>
  <speed>0.0</speed>
  <fix>3d</fix>
</trkpt>
<trkpt lat="40.0713749" lon="-105.229789">
  <ele>1583.0</ele>
  <time>2026-08-28T17:51:59Z</time>
  <course>0.0</course>
  <speed>0.0</speed>
  <fix>3d</fix>
</trkpt>
<trkpt lat="40.0713749" lon="-105.229789">
  <ele>1583.0</ele>
  <time>2026-08-28T17:51:59Z</time>
  <course>247.3</course>
  <speed>0.0</speed>
  <fix>3d</fix>
</trkpt>
<trkpt lat="40.0713749" lon="-105.229789">
  <ele>1583.0</ele>
  <time>2026-08-28T17:51:59Z</time>
  <course>0.0</course>
  <speed>0.0</speed>
  <fix>3d</fix>
</trkpt>
<trkpt lat="40.0713749" lon="-105.229789">
  <ele>1583.0</ele>
  <time>2026-08-28T17:51:59Z</time>
  <course>247.36</course>
  <speed>0.0</speed>
  <fix>3d</fix>
</trkpt>
<trkpt lat="40.0713749" lon="-105.229789">
  <ele>1583.0</ele>
  <time>2026-08-28T17:51:59Z</time>
  <course>0.0</course>
  <speed>0.0</speed>
  <fix>3d</fix>
</trkpt>
<trkpt lat="40.0713749" lon="-105.229789">
  <ele>1583.0</ele>
  <time>2026-08-28T17:51:59Z</time>
  <course>247.42</course>
  <speed>0.0</speed>
  <fix>3d</fix>
</trkpt>
<trkpt lat="40.0713749" lon="-105.229789">
  <ele>1583.0</ele>
  <time>2026-08-28T17:51:59Z</time>
  <course>0.0</course>
  <speed>0.0</speed>
  <fix>3d</fix>
</trkpt>
<trkpt lat="40.0713749" lon="-105.229789">
  <ele>1583.0</ele>
  <time>2026-08-28T17:51:59Z</time>
  <course>247.47</course>
  <speed>0.0</speed>
  <fix>3d</fix>
</trkpt>
<trkpt lat="40.0713749" lon="-105.229789">
  <ele>1583.0</ele>
  <time>2026-08-28T17:51:59Z</time>
  <course>0.0</course>
  <speed>0.0</speed>
  <fix>3d</fix>
</trkpt>
<trkpt lat="40.0713749" lon="-105.229789">
  <ele>1583.0</ele>
  <time>2026-08-28T17:51:59Z</time>
  <course>247.53</course>
  <speed>0.0</speed>
  <fix>3d</fix>
</trkpt>
<trkpt lat="40.0713749" lon="-105.229789">
  <ele>1583.0</ele>
  <time>2026-08-28T17:51:59Z</time>
  <course>0.0</course>
  <speed>0.0</speed>
  <fix>3d</fix>
</trkpt>
<trkpt lat="40.0713749" lon="-105.229789">
  <ele>1583.0</ele>
  <time>2026-08-28T17:51:59Z</time>
  <course>247.58</course>
  <speed>0.0</speed>
  <fix>3d</fix>
</trkpt>
<trkpt lat="40.0713749" lon="-105.229789">
  <ele>1583.0</ele>
  <time>2026-08-28T17:51:59Z</time>
  <course>0.0</course>
  <speed>0.0</speed>
  <fix>3d</fix>
</trkpt>
<trkpt lat="40.0713749" lon="-105.229789">
  <ele>1583.0</ele>
  <time>2026-08-28T17:51:59Z</time>
  <course>247.63</course>
  <speed>0.0</speed>
  <fix>3d</fix>
</trkpt>
<trkpt lat="40.0713749" lon="-105.229789">
  <ele>1583.0</ele>
  <time>2026-08-28T17:51:59Z</time>
  <course>0.0</course>
  <speed>0.0</speed>
  <fix>3d</fix>
</trkpt>
<trkpt lat="40.0713749" lon="-105.229789">
  <ele>1583.0</ele>
  <time>2026-08-28T17:51:59Z</time>
  <course>247.67</course>
  <speed>0.0</speed>
  <fix>3d</fix>
</trkpt>
<trkpt lat="40.0713749" lon="-105.229789">
  <ele>1583.0</ele>
  <time>2026-08-28T17:51:59Z</time>
  <course>0.0</course>
  <speed>0.0</speed>
  <fix>3d</fix>
</trkpt>
<trkpt lat="40.0713749" lon="-105.229789">
  <ele>1583.0</ele>
  <time>2026-08-28T17:51:59Z</time>
  <course>247.72</course>
  <speed>0.0</speed>
  <fix>3d</fix>
</trkpt>
<trkpt lat="40.0713749" lon="-105.229789">
  <ele>1583.0</ele>
  <time>2026-08-28T17:51:59Z</time>
  <course>0.0</course>
  <speed>0.0</speed>
  <fix>3d</fix>
</trkpt>
<trkpt lat="40.0713749" lon="-105.229789">
  <ele>1583.0</ele>
  <time>2026-08-28T17:51:59Z</time>
  <course>247.76</course>
  <speed>0.0</speed>
  <fix>3d</fix>
</trkpt>
<trkpt lat="40.0713749" lon="-105.229789">
  <ele>1583.0</ele>
  <time>2026-08-28T17:51:59Z</time>
  <course>0.0</course>
  <speed>0.0</speed>
  <fix>3d</fix>
</trkpt>
<trkpt lat="40.0713749" lon="-105.229789">
  <ele>1583.0</ele>
  <time>2026-08-28T17:51:59Z</time>
  <course>247.8</course>
  <speed>0.0</speed>
  <fix>3d</fix>
</trkpt>
<trkpt lat="40.0713749" lon="-105.229789">
  <ele>1583.0</ele>
  <time>2026-08-28T17:51:59Z</time>
  <course>0.0</course>
  <speed>0.0</speed>
  <fix>3d</fix>
</trkpt>
<trkpt lat="40.0713749" lon="-105.229789">
  <ele>1583.0</ele>
  <time>2026-08-28T17:51:59Z</time>
  <course>247.83</course>
  <speed>0.0</speed>
  <fix>3d</fix>
</trkpt>
<trkpt lat="40.0713749" lon="-105.229789">
  <ele>1583.0</ele>
  <time>2026-08-28T17:51:59Z</time>
  <course>0.0</course>
  <speed>0.0</speed>
  <fix>3d</fix>
</trkpt>
<trkpt lat="40.0713749" lon="-105.229789">
  <ele>1583.0</ele>
  <time>2026-08-28T17:51:59Z</time>
  <course>247.87</course>
  <speed>0.0</speed>
  <fix>3d</fix>
</trkpt>
<trkpt lat="40.0713749" lon="-105.229789">
  <ele>1583.0</ele>
  <time>2026-08-28T17:51:59Z</time>
  <course>0.0</course>
  <speed>0.0</speed>
  <fix>3d</fix>
</trkpt>
<trkpt lat="40.0713749" lon="-105.229789">
  <ele>1583.0</ele>
  <time>2026-08-28T17:51:59Z</time>
  <course>247.9</course>
  <speed>0.0</speed>
  <fix>3d</fix>
</trkpt>
<trkpt lat="40.0713749" lon="-105.229789">
  <ele>1583.0</ele>
  <time>2026-08-28T17:51:59Z</time>
  <course>0.0</course>
  <speed>0.0</speed>
  <fix>3d</fix>
</trkpt>
<trkpt lat="40.0713749" lon="-105.229789">
  <ele>1583.0</ele>
  <time>2026-08-28T17:51:59Z</time>
  <course>247.94</course>
  <speed>0.0</speed>
  <fix>3d</fix>
</trkpt>
<trkpt lat="40.0713749" lon="-105.229789">
  <ele>1583.0</ele>
  <time>2026-08-28T17:51:59Z</time>
  <course>0.0</course>
  <speed>0.0</speed>
  <fix>3d</fix>
</trkpt>
<trkpt lat="40.0713749" lon="-105.229789">
  <ele>1583.0</ele>
  <time>2026-08-28T17:51:59Z</time>
  <course>247.97</course>
  <speed>0.0</speed>
  <fix>3d</fix>
</trkpt>
<trkpt lat="40.0713749" lon="-105.229789">
  <ele>1583.0</ele>
  <time>2026-08-28T17:51:59Z</time>
  <course>0.0</course>
  <speed>0.0</speed>
  <fix>3d</fix>
</trkpt>
<trkpt lat="40.0713749" lon="-105.229789">
  <ele>1583.0</ele>
  <time>2026-08-28T17:51:59Z</time>
  <course>248.0</course>
  <speed>0.0</speed>
  <fix>3d</fix>
</trkpt>
<trkpt lat="40.0713749" lon="-105.229789">
  <ele>1583.0</ele>
  <time>2026-08-28T17:51:59Z</time>
  <course>0.0</course>
  <speed>0.0</speed>
  <fix>3d</fix>
</trkpt>
<trkpt lat="40.0713749" lon="-105.229789">
  <ele>1583.0</ele>
  <time>2026-08-28T17:51:59Z</time>
  <course>248.02</course>
  <speed>0.0</speed>
  <fix>3d</fix>
</trkpt>
<trkpt lat="40.0713749" lon="-105.229789">
  <ele>1583.0</ele>
  <time>2026-08-28T17:51:59Z</time>
  <course>0.0</course>
  <speed>0.0</speed>
  <fix>3d</fix>
</trkpt>
<trkpt lat="40.0713749" lon="-105.229789">
  <ele>1583.0</ele>
  <time>2026-08-28T17:51:59Z</time>
  <course>248.05</course>
  <speed>0.0</speed>
  <fix>3d</fix>
</trkpt>
<trkpt lat="40.0713749" lon="-105.229789">
  <ele>1583.0</ele>
  <time>2026-08-28T17:51:59Z</time>
  <course>0.0</course>
  <speed>0.0</speed>
  <fix>3d</fix>
</trkpt>
<trkpt lat="40.0713749" lon="-105.229789">
  <ele>1583.0</ele>
  <time>2026-08-28T17:51:59Z</time>
  <course>248.08</course>
  <speed>0.0</speed>
  <fix>3d</fix>
</trkpt>
<trkpt lat="40.0713749" lon="-105.229789">
  <ele>1583.0</ele>
  <time>2026-08-28T17:51:59Z</time>
  <course>0.0</course>
  <speed>0.0</speed>
  <fix>3d</fix>
</trkpt>
<trkpt lat="40.0713749" lon="-105.229789">
  <ele>1583.0</ele>
  <time>2026-08-28T17:51:59Z</time>
  <course>248.1</course>
  <speed>0.0</speed>
  <fix>3d</fix>
</trkpt>
<trkpt lat="40.0713749" lon="-105.229789">
  <ele>1583.0</ele>
  <time>2026-08-28T17:51:59Z</time>
  <course>0.0</course>
  <speed>0.0</speed>
  <fix>3d</fix>
</trkpt>
<trkpt lat="40.0713749" lon="-105.229789">
  <ele>1583.0</ele>
  <time>2026-08-28T17:51:59Z</time>
  <course>248.12</course>
  <speed>0.0</speed>
  <fix>3d</fix>
</trkpt>
<trkpt lat="40.0713749" lon="-105.229789">
  <ele>1583.0</ele>
  <time>2026-08-28T17:51:59Z</time>
  <course>0.0</course>
  <speed>0.0</speed>
  <fix>3d</fix>
</trkpt>
<trkpt lat="40.0713749" lon="-105.229789">
  <ele>1583.0</ele>
  <time>2026-08-28T17:51:59Z</time>
  <course>248.14</course>
  <speed>0.0</speed>
  <fix>3d</fix>
</trkpt>
<trkpt lat="40.0713749" lon="-105.229789">
  <ele>1583.0</ele>
  <time>2026-08-28T17:51:59Z</time>
  <course>0.0</course>
  <speed>0.0</speed>
  <fix>3d</fix>
</trkpt>
<trkpt lat="40.0713749" lon="-105.229789">
  <ele>1583.0</ele>
  <time>2026-08-28T17:51:59Z</time>
  <course>248.16</course>
  <speed>0.0</speed>
  <fix>3d</fix>
</trkpt>
<trkpt lat="40.0713749" lon="-105.229789">
  <ele>1583.0</ele>
  <time>2026-08-28T17:51:59Z</time>
  <course>0.0</course>
  <speed>0.0</speed>
  <fix>3d</fix>
</trkpt>
<trkpt lat="40.0713749" lon="-105.229789">
  <ele>1583.0</ele>
  <time>2026-08-28T17:51:59Z</time>
  <course>248.18</course>
  <speed>0.0</speed>
  <fix>3d</fix>
</trkpt>
<trkpt lat="40.0713749" lon="-105.229789">
  <ele>1583.0</ele>
  <time>2026-08-28T17:51:59Z</time>
  <course>0.0</course>
  <speed>0.0</speed>
  <fix>3d</fix>
</trkpt>
<trkpt lat="40.0713749" lon="-105.229789">
  <ele>1583.0</ele>
  <time>2026-08-28T17:51:59Z</time>
  <course>248.2</course>
  <speed>0.0</speed>
  <fix>3d</fix>
</trkpt>
<trkpt lat="40.0713749" lon="-105.229789">
  <ele>1583.0</ele>
  <time>2026-08-28T17:51:59Z</time>
  <course>0.0</course>
  <speed>0.0</speed>
  <fix>3d</fix>
</trkpt>
<trkpt lat="40.0713749" lon="-105.229789">
  <ele>1583.0</ele>
  <time>2026-08-28T17:51:59Z</time>
  <course>248.22</course>
  <speed>0.0</speed>
  <fix>3d</fix>
</trkpt>
<trkpt lat="40.0713749" lon="-105.229789">
  <ele>1583.0</ele>
  <time>2026-08-28T17:51:59Z</time>
  <course>0.0</course>
  <speed>0.0</speed>
  <fix>3d</fix>
</trkpt>
<trkpt lat="40.0713749" lon="-105.229789">
  <ele>1583.0</ele>
  <time>2026-08-28T17:51:59Z</time>
  <course>248.23</course>
  <speed>0.0</speed>
  <fix>3d</fix>
</trkpt>
<trkpt lat="40.0713749" lon="-105.229789">
  <ele>1583.0</ele>
  <time>2026-08-28T17:51:59Z</time>
  <course>0.0</course>
  <speed>0.0</speed>
  <fix>3d</fix>
</trkpt>
<trkpt lat="40.0713749" lon="-105.229789">
  <ele>1583.0</ele>
  <time>2026-08-28T17:51:59Z</time>
  <course>248.25</course>
  <speed>0.0</speed>
  <fix>3d</fix>
</trkpt>
<trkpt lat="40.0713749" lon="-105.229789">
  <ele>1583.0</ele>
  <time>2026-08-28T17:51:59Z</time>
  <course>0.0</course>
  <speed>0.0</speed>
  <fix>3d</fix>
</trkpt>
<trkpt lat="40.0713749" lon="-105.229789">
  <ele>1583.0</ele>
  <time>2026-08-28T17:51:59Z</time>
  <course>248.26</course>
  <speed>0.0</speed>
  <fix>3d</fix>
</trkpt>
<trkpt lat="40.0713749" lon="-105.229789">
  <ele>1583.0</ele>
  <time>2026-08-28T17:51:59Z</time>
  <course>0.0</course>
  <speed>0.0</speed>
  <fix>3d</fix>
</trkpt>
<trkpt lat="40.0713749" lon="-105.229789">
  <ele>1583.0</ele>
  <time>2026-08-28T17:51:59Z</time>
  <course>248.28</course>
  <speed>0.0</speed>
  <fix>3d</fix>
</trkpt>
<trkpt lat="40.0713749" lon="-105.229789">
  <ele>1583.0</ele>
  <time>2026-08-28T17:51:59Z</time>
  <course>0.0</course>
  <speed>0.0</speed>
  <fix>3d</fix>
</trkpt>
<trkpt lat="40.0713749" lon="-105.229789">
  <ele>1583.0</ele>
  <time>2026-08-28T17:51:59Z</time>
  <course>248.29</course>
  <speed>0.0</speed>
  <fix>3d</fix>
</trkpt>
<trkpt lat="40.0713749" lon="-105.229789">
  <ele>1583.0</ele>
  <time>2026-08-28T17:51:59Z</time>
  <course>0.0</course>
  <speed>0.0</speed>
  <fix>3d</fix>
</trkpt>
<trkpt lat="40.0713749" lon="-105.229789">
  <ele>1583.0</ele>
  <time>2026-08-28T17:51:59Z</time>
  <course>248.3</course>
  <speed>0.0</speed>
  <fix>3d</fix>
</trkpt>
<trkpt lat="40.0713749" lon="-105.229789">
  <ele>1583.0</ele>
  <time>2026-08-28T17:51:59Z</time>
  <course>0.0</course>
  <speed>0.0</speed>
  <fix>3d</fix>
</trkpt>
<trkpt lat="40.0713749" lon="-105.229789">
  <ele>1583.0</ele>
  <time>2026-08-28T17:51:59Z</time>
  <course>248.31</course>
  <speed>0.0</speed>
  <fix>3d</fix>
</trkpt>
<trkpt lat="40.0713749" lon="-105.229789">
  <ele>1583.0</ele>
  <time>2026-08-28T17:51:59Z</time>
  <course>0.0</course>
  <speed>0.0</speed>
  <fix>3d</fix>
</trkpt>
<trkpt lat="40.0713749" lon="-105.229789">
  <ele>1583.0</ele>
  <time>2026-08-28T17:51:59Z</time>
  <course>248.32</course>
  <speed>0.0</speed>
  <fix>3d</fix>
</trkpt>
<trkpt lat="40.0713749" lon="-105.229789">
  <ele>1583.0</ele>
  <time>2026-08-28T17:51:59Z</time>
  <course>0.0</course>
  <speed>0.0</speed>
  <fix>3d</fix>
</trkpt>
<trkpt lat="40.0713749" lon="-105.229789">
  <ele>1583.0</ele>
  <time>2026-08-28T17:51:59Z</time>
  <course>248.33</course>
  <speed>0.0</speed>
  <fix>3d</fix>
</trkpt>
<trkpt lat="40.0713749" lon="-105.229789">
  <ele>1583.0</ele>
  <time>2026-08-28T17:51:59Z</time>
  <course>0.0</course>
  <speed>0.0</speed>
  <fix>3d</fix>
</trkpt>
<trkpt lat="40.0713749" lon="-105.229789">
  <ele>1583.0</ele>
  <time>2026-08-28T17:51:59Z</time>
  <course>248.34</course>
  <speed>0.0</speed>
  <fix>3d</fix>
</trkpt>
<trkpt lat="40.0713749" lon="-105.229789">
  <ele>1583.0</ele>
  <time>2026-08-28T17:51:59Z</time>
  <course>0.0</course>
  <speed>0.0</speed>
  <fix>3d</fix>
</trkpt>
<trkpt lat="40.0713749" lon="-105.229789">
  <ele>1583.0</ele>
  <time>2026-08-28T17:51:59Z</time>
  <course>248.35</course>
  <speed>0.0</speed>
  <fix>3d</fix>
</trkpt>
<trkpt lat="40.0713749" lon="-105.229789">
  <ele>1583.0</ele>
  <time>2026-08-28T17:51:59Z</time>
  <course>0.0</course>
  <speed>0.0</speed>
  <fix>3d</fix>
</trkpt>
<trkpt lat="40.0713749" lon="-105.229789">
  <ele>1583.0</ele>
  <time>2026-08-28T17:51:59Z</time>
  <course>248.35</course>
  <speed>0.0</speed>
  <fix>3d</fix>
</trkpt>
<trkpt lat="40.0713749" lon="-105.229789">
  <ele>1583.0</ele>
  <time>2026-08-28T17:51:59Z</time>
  <course>0.0</course>
  <speed>0.0</speed>
  <fix>3d</fix>
</trkpt>
<trkpt lat="40.0713749" lon="-105.229789">
  <ele>1583.0</ele>
  <time>2026-08-28T17:51:59Z</time>
  <course>248.36</course>
  <speed>0.0</speed>
  <fix>3d</fix>
</trkpt>
<trkpt lat="40.0713749" lon="-105.229789">
  <ele>1583.0</ele>
  <time>2026-08-28T17:51:59Z</time>
  <course>0.0</course>
  <speed>0.0</speed>
  <fix>3d</fix>
</trkpt>
<trkpt lat="40.0713749" lon="-105.229789">
  <ele>1583.0</ele>
  <time>2026-08-28T17:51:59Z</time>
  <course>248.37</course>
  <speed>0.0</speed>
  <fix>3d</fix>
</trkpt>
<trkpt lat="40.0713749" lon="-105.229789">
  <ele>1583.0</ele>
  <time>2026-08-28T17:51:59Z</time>
  <course>0.0</course>
  <speed>0.0</speed>
  <fix>3d</fix>
</trkpt>
<trkpt lat="40.0713749" lon="-105.229789">
  <ele>1583.0</ele>
  <time>2026-08-28T17:51:59Z</time>
  <course>248.37</course>
  <speed>0.0</speed>
  <fix>3d</fix>
</trkpt>
<trkpt lat="40.0713749" lon="-105.229789">
  <ele>1583.0</ele>
  <time>2026-08-28T17:51:59Z</time>
  <course>0.0</course>
  <speed>0.0</speed>
  <fix>3d</fix>
</trkpt>
<trkpt lat="40.0713749" lon="-105.229789">
  <ele>1583.0</ele>
  <time>2026-08-28T17:51:59Z</time>
  <course>248.38</course>
  <speed>0.0</speed>
  <fix>3d</fix>
</trkpt>
<trkpt lat="40.0713749" lon="-105.229789">
  <ele>1583.0</ele>
  <time>2026-08-28T17:51:59Z</time>
  <course>0.0</course>
  <speed>0.0</speed>
  <fix>3d</fix>
</trkpt>
<trkpt lat="40.0713749" lon="-105.229789">
  <ele>1583.0</ele>
  <time>2026-08-28T17:51:59Z</time>
  <course>248.38</course>
  <speed>0.0</speed>
  <fix>3d</fix>
</trkpt>
<trkpt lat="40.0713749" lon="-105.229789">
  <ele>1583.0</ele>
  <time>2026-08-28T17:51:59Z</time>
  <course>0.0</course>
  <speed>0.0</speed>
  <fix>3d</fix>
</trkpt>
<trkpt lat="40.0713749" lon="-105.229789">
  <ele>1583.0</ele>
  <time>2026-08-28T17:51:59Z</time>
  <course>248.39</course>
  <speed>0.0</speed>
  <fix>3d</fix>
</trkpt>
<trkpt lat="40.0713749" lon="-105.229789">
  <ele>1583.0</ele>
  <time>2026-08-28T17:51:59Z</time>
  <course>0.0</course>
  <speed>0.0</speed>
  <fix>3d</fix>
</trkpt>
<trkpt lat="40.0713749" lon="-105.229789">
  <ele>1583.0</ele>
  <time>2026-08-28T17:51:59Z</time>
  <course>248.39</course>
  <speed>0.0</speed>
  <fix>3d</fix>
</trkpt>
<trkpt lat="40.0713749" lon="-105.229789">
  <ele>1583.0</ele>
  <time>2026-08-28T17:51:59Z</time>
  <course>0.0</course>
  <speed>0.0</speed>
  <fix>3d</fix>
</trkpt>
<trkpt lat="40.0713749" lon="-105.229789">
  <ele>1583.0</ele>
  <time>2026-08-28T17:51:59Z</time>
  <course>248.4</course>
  <speed>0.0</speed>
  <fix>3d</fix>
</trkpt>
<trkpt lat="40.0713749" lon="-105.229789">
  <ele>1583.0</ele>
  <time>2026-08-28T17:51:59Z</time>
  <course>0.0</course>
  <speed>0.0</speed>
  <fix>3d</fix>
</trkpt>
<trkpt lat="40.0713749" lon="-105.229789">
  <ele>1583.0</ele>
  <time>2026-08-28T17:51:59Z</time>
  <course>248.4</course>
  <speed>0.0</speed>
  <fix>3d</fix>
</trkpt>
<trkpt lat="40.0713749" lon="-105.229789">
  <ele>1583.0</ele>
  <time>2026-08-28T17:51:59Z</time>
  <course>0.0</course>
  <speed>0.0</speed>
  <fix>3d</fix>
</trkpt>
<trkpt lat="40.0713749" lon="-105.229789">
  <ele>1583.0</ele>
  <time>2026-08-28T17:51:59Z</time>
  <course>248.4</course>
  <speed>0.0</speed>
  <fix>3d</fix>
</trkpt>
<trkpt lat="40.0713749" lon="-105.229789">
  <ele>1583.0</ele>
  <time>2026-08-28T17:51:59Z</time>
  <course>0.0</course>
  <speed>0.0</speed>
  <fix>3d</fix>
</trkpt>
<trkpt lat="40.0713749" lon="-105.229789">
  <ele>1583.0</ele>
  <time>2026-08-28T17:51:59Z</time>
  <course>248.4</course>
  <speed>0.0</speed>
  <fix>3d</fix>
</trkpt>
<trkpt lat="40.0713749" lon="-105.229789">
  <ele>1583.0</ele>
  <time>2026-08-28T17:51:59Z</time>
  <course>0.0</course>
  <speed>0.0</speed>
  <fix>3d</fix>
</trkpt>
<trkpt lat="40.0713749" lon="-105.229789">
  <ele>1583.0</ele>
  <time>2026-08-28T17:51:59Z</time>
  <course>248.41</course>
  <speed>0.0</speed>
  <fix>3d</fix>
</trkpt>
<trkpt lat="40.0713749" lon="-105.229789">
  <ele>1583.0</ele>
  <time>2026-08-28T17:51:59Z</time>
  <course>0.0</course>
  <speed>0.0</speed>
  <fix>3d</fix>
</trkpt>
<trkpt lat="40.0713749" lon="-105.229789">
  <ele>1583.0</ele>
  <time>2026-08-28T17:51:59Z</time>
  <course>248.41</course>
  <speed>0.0</speed>
  <fix>3d</fix>
</trkpt>
<trkpt lat="40.0713749" lon="-105.229789">
  <ele>1583.0</ele>
  <time>2026-08-28T17:51:59Z</time>
  <course>0.0</course>
  <speed>0.0</speed>
  <fix>3d</fix>
</trkpt>
<trkpt lat="40.0713749" lon="-105.229789">
  <ele>1583.0</ele>
  <time>2026-08-28T17:51:59Z</time>
  <course>248.41</course>
  <speed>0.0</speed>
  <fix>3d</fix>
</trkpt>
<trkpt lat="40.0713749" lon="-105.229789">
  <ele>1583.0</ele>
  <time>2026-08-28T17:51:59Z</time>
  <course>0.0</course>
  <speed>0.0</speed>
  <fix>3d</fix>
</trkpt>
<trkpt lat="40.0713749" lon="-105.229789">
  <ele>1583.0</ele>
  <time>2026-08-28T17:51:59Z</time>
  <course>248.41</course>
  <speed>0.0</speed>
  <fix>3d</fix>
</trkpt>
<trkpt lat="40.0713749" lon="-105.229789">
  <ele>1583.0</ele>
  <time>2026-08-28T17:51:59Z</time>
  <course>0.0</course>
  <speed>0.0</speed>
  <fix>3d</fix>
</trkpt>
<trkpt lat="40.0713749" lon="-105.229789">
  <ele>1583.0</ele>
  <time>2026-08-28T17:51:59Z</time>
  <course>248.41</course>
  <speed>0.0</speed>
  <fix>3d</fix>
</trkpt>
<trkpt lat="40.0713749" lon="-105.229789">
  <ele>1583.0</ele>
  <time>2026-08-28T17:51:59Z</time>
  <course>0.0</course>
  <speed>0.0</speed>
  <fix>3d</fix>
</trkpt>
<trkpt lat="40.0713749" lon="-105.229789">
  <ele>1583.0</ele>
  <time>2026-08-28T17:51:59Z</time>
  <course>248.41</course>
  <speed>0.0</speed>
  <fix>3d</fix>
</trkpt>
<trkpt lat="40.0713749" lon="-105.229789">
  <ele>1583.0</ele>
  <time>2026-08-28T17:51:59Z</time>
  <course>0.0</course>
  <speed>0.0</speed>
  <fix>3d</fix>
</trkpt>
<trkpt lat="39.655741" lon="-104.1383097">
  <ele>1566.58</ele>
  <time>2026-08-28T17:52:00Z</time>
  <course>0.0</course>
  <speed>0.0</speed>
  <fix>3d</fix>
</trkpt>
<trkpt lat="40.0713749" lon="-105.229789">
  <ele>1583.0</ele>
  <time>2026-08-28T17:52:00Z</time>
  <course>0.0</course>
  <speed>0.0</speed>
  <fix>3d</fix>
</trkpt>
<trkpt lat="40.0713749" lon="-105.229789">
  <ele>1583.0</ele>
  <time>2026-08-28T17:52:00Z</time>
  <course>238.36</course>
  <speed>0.0</speed>
  <fix>3d</fix>
</trkpt>
<trkpt lat="40.0713749" lon="-105.229789">
  <ele>1583.0</ele>
  <time>2026-08-28T17:52:00Z</time>
  <course>0.0</course>
  <speed>0.0</speed>
  <fix>3d</fix>
</trkpt>
<trkpt lat="40.0713749" lon="-105.229789">
  <ele>1583.0</ele>
  <time>2026-08-28T17:52:00Z</time>
  <course>238.44</course>
  <speed>0.0</speed>
  <fix>3d</fix>
</trkpt>
<trkpt lat="40.0713749" lon="-105.229789">
  <ele>1583.0</ele>
  <time>2026-08-28T17:52:00Z</time>
  <course>0.0</course>
  <speed>0.0</speed>
  <fix>3d</fix>
</trkpt>
<trkpt lat="40.0713749" lon="-105.229789">
  <ele>1583.0</ele>
  <time>2026-08-28T17:52:00Z</time>
  <course>238.64</course>
  <speed>0.0</speed>
  <fix>3d</fix>
</trkpt>
<trkpt lat="40.0713749" lon="-105.229789">
  <ele>1583.0</ele>
  <time>2026-08-28T17:52:00Z</time>
  <course>0.0</course>
  <speed>0.0</speed>
  <fix>3d</fix>
</trkpt>
<trkpt lat="40.0713749" lon="-105.229789">
  <ele>1583.0</ele>
  <time>2026-08-28T17:52:00Z</time>
  <course>238.93</course>
  <speed>0.0</speed>
  <fix>3d</fix>
</trkpt>
<trkpt lat="40.0713749" lon="-105.229789">
  <ele>1583.0</ele>
  <time>2026-08-28T17:52:00Z</time>
  <course>0.0</course>
  <speed>0.0</speed>
  <fix>3d</fix>
</trkpt>
<trkpt lat="40.0713749" lon="-105.229789">
  <ele>1583.0</ele>
  <time>2026-08-28T17:52:00Z</time>
  <course>239.26</course>
  <speed>0.0</speed>
  <fix>3d</fix>
</trkpt>
<trkpt lat="40.0713749" lon="-105.229789">
  <ele>1583.0</ele>
  <time>2026-08-28T17:52:00Z</time>
  <course>0.0</course>
  <speed>0.0</speed>
  <fix>3d</fix>
</trkpt>
<trkpt lat="40.0713749" lon="-105.229789">
  <ele>1583.0</ele>
  <time>2026-08-28T17:52:00Z</time>
  <course>239.61</course>
  <speed>0.0</speed>
  <fix>3d</fix>
</trkpt>
<trkpt lat="40.0713749" lon="-105.229789">
  <ele>1583.0</ele>
  <time>2026-08-28T17:52:00Z</time>
  <course>0.0</course>
  <speed>0.0</speed>
  <fix>3d</fix>
</trkpt>
<trkpt lat="40.0713749" lon="-105.229789">
  <ele>1583.0</ele>
  <time>2026-08-28T17:52:00Z</time>
  <course>239.96</course>
  <speed>0.0</speed>
  <fix>3d</fix>
</trkpt>
<trkpt lat="40.0713749" lon="-105.229789">
  <ele>1583.0</ele>
  <time>2026-08-28T17:52:00Z</time>
  <course>0.0</course>
  <speed>0.0</speed>
  <fix>3d</fix>
</trkpt>
<trkpt lat="40.0713749" lon="-105.229789">
  <ele>1583.0</ele>
  <time>2026-08-28T17:52:00Z</time>
  <course>240.29</course>
  <speed>0.0</speed>
  <fix>3d</fix>
</trkpt>
<trkpt lat="40.0713749" lon="-105.229789">
  <ele>1583.0</ele>
  <time>2026-08-28T17:52:00Z</time>
  <course>0.0</course>
  <speed>0.0</speed>
  <fix>3d</fix>
</trkpt>
<trkpt lat="40.0713749" lon="-105.229789">
  <ele>1583.0</ele>
  <time>2026-08-28T17:52:00Z</time>
  <course>240.61</course>
  <speed>0.0</speed>
  <fix>3d</fix>
</trkpt>
<trkpt lat="40.0713749" lon="-105.229789">
  <ele>1583.0</ele>
  <time>2026-08-28T17:52:00Z</time>
  <course>0.0</course>
  <speed>0.0</speed>
  <fix>3d</fix>
</trkpt>
<trkpt lat="40.0713749" lon="-105.229789">
  <ele>1583.0</ele>
  <time>2026-08-28T17:52:00Z</time>
  <course>240.92</course>
  <speed>0.0</speed>
  <fix>3d</fix>
</trkpt>
<trkpt lat="40.0713749" lon="-105.229789">
  <ele>1583.0</ele>
  <time>2026-08-28T17:52:00Z</time>
  <course>0.0</course>
  <speed>0.0</speed>
  <fix>3d</fix>
</trkpt>
<trkpt lat="40.0713749" lon="-105.229789">
  <ele>1583.0</ele>
  <time>2026-08-28T17:52:00Z</time>
  <course>241.21</course>
  <speed>0.0</speed>
  <fix>3d</fix>
</trkpt>
<trkpt lat="40.0713749" lon="-105.229789">
  <ele>1583.0</ele>
  <time>2026-08-28T17:52:00Z</time>
  <course>0.0</course>
  <speed>0.0</speed>
  <fix>3d</fix>
</trkpt>
<trkpt lat="40.0713749" lon="-105.229789">
  <ele>1583.0</ele>
  <time>2026-08-28T17:52:00Z</time>
  <course>241.49</course>
  <speed>0.0</speed>
  <fix>3d</fix>
</trkpt>
<trkpt lat="40.0713749" lon="-105.229789">
  <ele>1583.0</ele>
  <time>2026-08-28T17:52:00Z</time>
  <course>0.0</course>
  <speed>0.0</speed>
  <fix>3d</fix>
</trkpt>
<trkpt lat="40.0713749" lon="-105.229789">
  <ele>1583.0</ele>
  <time>2026-08-28T17:52:00Z</time>
  <course>241.77</course>
  <speed>0.0</speed>
  <fix>3d</fix>
</trkpt>
<trkpt lat="40.0713749" lon="-105.229789">
  <ele>1583.0</ele>
  <time>2026-08-28T17:52:00Z</time>
  <course>0.0</course>
  <speed>0.0</speed>
  <fix>3d</fix>
</trkpt>
<trkpt lat="40.0713749" lon="-105.229789">
  <ele>1583.0</ele>
  <time>2026-08-28T17:52:00Z</time>
  <course>242.03</course>
  <speed>0.0</speed>
  <fix>3d</fix>
</trkpt>
<trkpt lat="40.0713749" lon="-105.229789">
  <ele>1583.0</ele>
  <time>2026-08-28T17:52:00Z</time>
  <course>0.0</course>
  <speed>0.0</speed>
  <fix>3d</fix>
</trkpt>
<trkpt lat="40.0713749" lon="-105.229789">
  <ele>1583.0</ele>
  <time>2026-08-28T17:52:00Z</time>
  <course>242.29</course>
  <speed>0.0</speed>
  <fix>3d</fix>
</trkpt>
<trkpt lat="40.0713749" lon="-105.229789">
  <ele>1583.0</ele>
  <time>2026-08-28T17:52:00Z</time>
  <course>0.0</course>
  <speed>0.0</speed>
  <fix>3d</fix>
</trkpt>
<trkpt lat="40.0713749" lon="-105.229789">
  <ele>1583.0</ele>
  <time>2026-08-28T17:52:00Z</time>
  <course>242.54</course>
  <speed>0.0</speed>
  <fix>3d</fix>
</trkpt>
<trkpt lat="40.0713749" lon="-105.229789">
  <ele>1583.0</ele>
  <time>2026-08-28T17:52:00Z</time>
  <course>0.0</course>
  <speed>0.0</speed>
  <fix>3d</fix>
</trkpt>
<trkpt lat="40.0713749" lon="-105.229789">
  <ele>1583.0</ele>
  <time>2026-08-28T17:52:00Z</time>
  <course>242.79</course>
  <speed>0.0</speed>
  <fix>3d</fix>
</trkpt>
<trkpt lat="40.0713749" lon="-105.229789">
  <ele>1583.0</ele>
  <time>2026-08-28T17:52:00Z</time>
  <course>0.0</course>
  <speed>0.0</speed>
  <fix>3d</fix>
</trkpt>
<trkpt lat="40.0713749" lon="-105.229789">
  <ele>1583.0</ele>
  <time>2026-08-28T17:52:00Z</time>
  <course>243.02</course>
  <speed>0.0</speed>
  <fix>3d</fix>
</trkpt>
<trkpt lat="40.0713749" lon="-105.229789">
  <ele>1583.0</ele>
  <time>2026-08-28T17:52:00Z</time>
  <course>0.0</course>
  <speed>0.0</speed>
  <fix>3d</fix>
</trkpt>
<trkpt lat="40.0713749" lon="-105.229789">
  <ele>1583.0</ele>
  <time>2026-08-28T17:52:00Z</time>
  <course>243.25</course>
  <speed>0.0</speed>
  <fix>3d</fix>
</trkpt>
<trkpt lat="40.0713749" lon="-105.229789">
  <ele>1583.0</ele>
  <time>2026-08-28T17:52:00Z</time>
  <course>0.0</course>
  <speed>0.0</speed>
  <fix>3d</fix>
</trkpt>
<trkpt lat="40.0713749" lon="-105.229789">
  <ele>1583.0</ele>
  <time>2026-08-28T17:52:00Z</time>
  <course>243.47</course>
  <speed>0.0</speed>
  <fix>3d</fix>
</trkpt>
<trkpt lat="40.0713749" lon="-105.229789">
  <ele>1583.0</ele>
  <time>2026-08-28T17:52:00Z</time>
  <course>0.0</course>
  <speed>0.0</speed>
  <fix>3d</fix>
</trkpt>
<trkpt lat="40.0713749" lon="-105.229789">
  <ele>1583.0</ele>
  <time>2026-08-28T17:52:00Z</time>
  <course>243.68</course>
  <speed>0.0</speed>
  <fix>3d</fix>
</trkpt>
<trkpt lat="40.0713749" lon="-105.229789">
  <ele>1583.0</ele>
  <time>2026-08-28T17:52:00Z</time>
  <course>0.0</course>
  <speed>0.0</speed>
  <fix>3d</fix>
</trkpt>
<trkpt lat="40.0713749" lon="-105.229789">
  <ele>1583.0</ele>
  <time>2026-08-28T17:52:00Z</time>
  <course>243.89</course>
  <speed>0.0</speed>
  <fix>3d</fix>
</trkpt>
<trkpt lat="40.0713749" lon="-105.229789">
  <ele>1583.0</ele>
  <time>2026-08-28T17:52:00Z</time>
  <course>0.0</course>
  <speed>0.0</speed>
  <fix>3d</fix>
</trkpt>
<trkpt lat="40.0713749" lon="-105.229789">
  <ele>1583.0</ele>
  <time>2026-08-28T17:52:00Z</time>
  <course>244.09</course>
  <speed>0.0</speed>
  <fix>3d</fix>
</trkpt>
<trkpt lat="40.0713749" lon="-105.229789">
  <ele>1583.0</ele>
  <time>2026-08-28T17:52:00Z</time>
  <course>0.0</course>
  <speed>0.0</speed>
  <fix>3d</fix>
</trkpt>
<trkpt lat="40.0713749" lon="-105.229789">
  <ele>1583.0</ele>
  <time>2026-08-28T17:52:00Z</time>
  <course>244.28</course>
  <speed>0.0</speed>
  <fix>3d</fix>
</trkpt>
<trkpt lat="40.0713749" lon="-105.229789">
  <ele>1583.0</ele>
  <time>2026-08-28T17:52:00Z</time>
  <course>0.0</course>
  <speed>0.0</speed>
  <fix>3d</fix>
</trkpt>
<trkpt lat="40.0713749" lon="-105.229789">
  <ele>1583.0</ele>
  <time>2026-08-28T17:52:00Z</time>
  <course>244.46</course>
  <speed>0.0</speed>
  <fix>3d</fix>
</trkpt>
<trkpt lat="40.0713749" lon="-105.229789">
  <ele>1583.0</ele>
  <time>2026-08-28T17:52:00Z</time>
  <course>0.0</course>
  <speed>0.0</speed>
  <fix>3d</fix>
</trkpt>
<trkpt lat="40.0713749" lon="-105.229789">
  <ele>1583.0</ele>
  <time>2026-08-28T17:52:00Z</time>
  <course>244.64</course>
  <speed>0.0</speed>
  <fix>3d</fix>
</trkpt>
<trkpt lat="40.0713749" lon="-105.229789">
  <ele>1583.0</ele>
  <time>2026-08-28T17:52:00Z</time>
  <course>0.0</course>
  <speed>0.0</speed>
  <fix>3d</fix>
</trkpt>
<trkpt lat="40.0713749" lon="-105.229789">
  <ele>1583.0</ele>
  <time>2026-08-28T17:52:00Z</time>
  <course>244.81</course>
  <speed>0.0</speed>
  <fix>3d</fix>
</trkpt>
<trkpt lat="40.0713749" lon="-105.229789">
  <ele>1583.0</ele>
  <time>2026-08-28T17:52:00Z</time>
  <course>0.0</course>
  <speed>0.0</speed>
  <fix>3d</fix>
</trkpt>
<trkpt lat="40.0713749" lon="-105.229789">
  <ele>1583.0</ele>
  <time>2026-08-28T17:52:00Z</time>
  <course>244.97</course>
  <speed>0.0</speed>
  <fix>3d</fix>
</trkpt>
<trkpt lat="40.0713749" lon="-105.229789">
  <ele>1583.0</ele>
  <time>2026-08-28T17:52:00Z</time>
  <course>0.0</course>
  <speed>0.0</speed>
  <fix>3d</fix>
</trkpt>
<trkpt lat="40.0713749" lon="-105.229789">
  <ele>1583.0</ele>
  <time>2026-08-28T17:52:00Z</time>
  <course>245.13</course>
  <speed>0.0</speed>
  <fix>3d</fix>
</trkpt>
<trkpt lat="40.0713749" lon="-105.229789">
  <ele>1583.0</ele>
  <time>2026-08-28T17:52:00Z</time>
  <course>0.0</course>
  <speed>0.0</speed>
  <fix>3d</fix>
</trkpt>
<trkpt lat="40.0713749" lon="-105.229789">
  <ele>1583.0</ele>
  <time>2026-08-28T17:52:00Z</time>
  <course>245.29</course>
  <speed>0.0</speed>
  <fix>3d</fix>
</trkpt>
<trkpt lat="40.0713749" lon="-105.229789">
  <ele>1583.0</ele>
  <time>2026-08-28T17:52:00Z</time>
  <course>0.0</course>
  <speed>0.0</speed>
  <fix>3d</fix>
</trkpt>
<trkpt lat="40.0713749" lon="-105.229789">
  <ele>1583.0</ele>
  <time>2026-08-28T17:52:00Z</time>
  <course>245.43</course>
  <speed>0.0</speed>
  <fix>3d</fix>
</trkpt>
<trkpt lat="40.0713749" lon="-105.229789">
  <ele>1583.0</ele>
  <time>2026-08-28T17:52:00Z</time>
  <course>0.0</course>
  <speed>0.0</speed>
  <fix>3d</fix>
</trkpt>
<trkpt lat="40.0713749" lon="-105.229789">
  <ele>1583.0</ele>
  <time>2026-08-28T17:52:00Z</time>
  <course>245.57</course>
  <speed>0.0</speed>
  <fix>3d</fix>
</trkpt>
<trkpt lat="40.0713749" lon="-105.229789">
  <ele>1583.0</ele>
  <time>2026-08-28T17:52:00Z</time>
  <course>0.0</course>
  <speed>0.0</speed>
  <fix>3d</fix>
</trkpt>
<trkpt lat="40.0713749" lon="-105.229789">
  <ele>1583.0</ele>
  <time>2026-08-28T17:52:00Z</time>
  <course>245.71</course>
  <speed>0.0</speed>
  <fix>3d</fix>
</trkpt>
<trkpt lat="40.0713749" lon="-105.229789">
  <ele>1583.0</ele>
  <time>2026-08-28T17:52:00Z</time>
  <course>0.0</course>
  <speed>0.0</speed>
  <fix>3d</fix>
</trkpt>
<trkpt lat="40.0713749" lon="-105.229789">
  <ele>1583.0</ele>
  <time>2026-08-28T17:52:00Z</time>
  <course>245.84</course>
  <speed>0.0</speed>
  <fix>3d</fix>
</trkpt>
<trkpt lat="40.0713749" lon="-105.229789">
  <ele>1583.0</ele>
  <time>2026-08-28T17:52:00Z</time>
  <course>0.0</course>
  <speed>0.0</speed>
  <fix>3d</fix>
</trkpt>
<trkpt lat="40.0713749" lon="-105.229789">
  <ele>1583.0</ele>
  <time>2026-08-28T17:52:00Z</time>
  <course>245.96</course>
  <speed>0.0</speed>
  <fix>3d</fix>
</trkpt>
<trkpt lat="40.0713749" lon="-105.229789">
  <ele>1583.0</ele>
  <time>2026-08-28T17:52:00Z</time>
  <course>0.0</course>
  <speed>0.0</speed>
  <fix>3d</fix>
</trkpt>
<trkpt lat="40.0713749" lon="-105.229789">
  <ele>1583.0</ele>
  <time>2026-08-28T17:52:00Z</time>
  <course>246.08</course>
  <speed>0.0</speed>
  <fix>3d</fix>
</trkpt>
<trkpt lat="40.0713749" lon="-105.229789">
  <ele>1583.0</ele>
  <time>2026-08-28T17:52:00Z</time>
  <course>0.0</course>
  <speed>0.0</speed>
  <fix>3d</fix>
</trkpt>
<trkpt lat="40.0713749" lon="-105.229789">
  <ele>1583.0</ele>
  <time>2026-08-28T17:52:00Z</time>
  <course>246.19</course>
  <speed>0.0</speed>
  <fix>3d</fix>
</trkpt>
<trkpt lat="40.0713749" lon="-105.229789">
  <ele>1583.0</ele>
  <time>2026-08-28T17:52:00Z</time>
  <course>0.0</course>
  <speed>0.0</speed>
  <fix>3d</fix>
</trkpt>
<trkpt lat="40.0713749" lon="-105.229789">
  <ele>1583.0</ele>
  <time>2026-08-28T17:52:00Z</time>
  <course>246.3</course>
  <speed>0.0</speed>
  <fix>3d</fix>
</trkpt>
<trkpt lat="40.0713749" lon="-105.229789">
  <ele>1583.0</ele>
  <time>2026-08-28T17:52:00Z</time>
  <course>0.0</course>
  <speed>0.0</speed>
  <fix>3d</fix>
</trkpt>
<trkpt lat="40.0713749" lon="-105.229789">
  <ele>1583.0</ele>
  <time>2026-08-28T17:52:00Z</time>
  <course>246.41</course>
  <speed>0.0</speed>
  <fix>3d</fix>
</trkpt>
<trkpt lat="40.0713749" lon="-105.229789">
  <ele>1583.0</ele>
  <time>2026-08-28T17:52:00Z</time>
  <course>0.0</course>
  <speed>0.0</speed>
  <fix>3d</fix>
</trkpt>
<trkpt lat="40.0713749" lon="-105.229789">
  <ele>1583.0</ele>
  <time>2026-08-28T17:52:00Z</time>
  <course>246.51</course>
  <speed>0.0</speed>
  <fix>3d</fix>
</trkpt>
<trkpt lat="40.0713749" lon="-105.229789">
  <ele>1583.0</ele>
  <time>2026-08-28T17:52:00Z</time>
  <course>0.0</course>
  <speed>0.0</speed>
  <fix>3d</fix>
</trkpt>
<trkpt lat="40.0713749" lon="-105.229789">
  <ele>1583.0</ele>
  <time>2026-08-28T17:52:00Z</time>
  <course>246.6</course>
  <speed>0.0</speed>
  <fix>3d</fix>
</trkpt>
<trkpt lat="40.0713749" lon="-105.229789">
  <ele>1583.0</ele>
  <time>2026-08-28T17:52:00Z</time>
  <course>0.0</course>
  <speed>0.0</speed>
  <fix>3d</fix>
</trkpt>
<trkpt lat="40.0713749" lon="-105.229789">
  <ele>1583.0</ele>
  <time>2026-08-28T17:52:01Z</time>
  <course>246.7</course>
  <speed>0.0</speed>
  <fix>3d</fix>
</trkpt>
<trkpt lat="40.0713749" lon="-105.229789">
  <ele>1583.0</ele>
  <time>2026-08-28T17:52:01Z</time>
  <course>0.0</course>
  <speed>0.0</speed>
  <fix>3d</fix>
</trkpt>
<trkpt lat="40.0713749" lon="-105.229789">
  <ele>1583.0</ele>
  <time>2026-08-28T17:52:01Z</time>
  <course>246.78</course>
  <speed>0.0</speed>
  <fix>3d</fix>
</trkpt>
<trkpt lat="40.0713749" lon="-105.229789">
  <ele>1583.0</ele>
  <time>2026-08-28T17:52:01Z</time>
  <course>0.0</course>
  <speed>0.0</speed>
  <fix>3d</fix>
</trkpt>
<trkpt lat="40.0713749" lon="-105.229789">
  <ele>1583.0</ele>
  <time>2026-08-28T17:52:01Z</time>
  <course>246.87</course>
  <speed>0.0</speed>
  <fix>3d</fix>
</trkpt>
<trkpt lat="40.0713749" lon="-105.229789">
  <ele>1583.0</ele>
  <time>2026-08-28T17:52:01Z</time>
  <course>0.0</course>
  <speed>0.0</speed>
  <fix>3d</fix>
</trkpt>
<trkpt lat="40.0713749" lon="-105.229789">
  <ele>1583.0</ele>
  <time>2026-08-28T17:52:01Z</time>
  <course>246.95</course>
  <speed>0.0</speed>
  <fix>3d</fix>
</trkpt>
<trkpt lat="40.0713749" lon="-105.229789">
  <ele>1583.0</ele>
  <time>2026-08-28T17:52:01Z</time>
  <course>0.0</course>
  <speed>0.0</speed>
  <fix>3d</fix>
</trkpt>
<trkpt lat="40.0713749" lon="-105.229789">
  <ele>1583.0</ele>
  <time>2026-08-28T17:52:01Z</time>
  <course>247.02</course>
  <speed>0.0</speed>
  <fix>3d</fix>
</trkpt>
<trkpt lat="40.0713749" lon="-105.229789">
  <ele>1583.0</ele>
  <time>2026-08-28T17:52:01Z</time>
  <course>0.0</course>
  <speed>0.0</speed>
  <fix>3d</fix>
</trkpt>
<trkpt lat="40.0713749" lon="-105.229789">
  <ele>1583.0</ele>
  <time>2026-08-28T17:52:01Z</time>
  <course>247.1</course>
  <speed>0.0</speed>
  <fix>3d</fix>
</trkpt>
<trkpt lat="40.0713749" lon="-105.229789">
  <ele>1583.0</ele>
  <time>2026-08-28T17:52:01Z</time>
  <course>0.0</course>
  <speed>0.0</speed>
  <fix>3d</fix>
</trkpt>
<trkpt lat="40.0713749" lon="-105.229789">
  <ele>1583.0</ele>
  <time>2026-08-28T17:52:01Z</time>
  <course>247.17</course>
  <speed>0.0</speed>
  <fix>3d</fix>
</trkpt>
<trkpt lat="40.0713749" lon="-105.229789">
  <ele>1583.0</ele>
  <time>2026-08-28T17:52:01Z</time>
  <course>0.0</course>
  <speed>0.0</speed>
  <fix>3d</fix>
</trkpt>
<trkpt lat="40.0713749" lon="-105.229789">
  <ele>1583.0</ele>
  <time>2026-08-28T17:52:01Z</time>
  <course>247.24</course>
  <speed>0.0</speed>
  <fix>3d</fix>
</trkpt>
<trkpt lat="40.0713749" lon="-105.229789">
  <ele>1583.0</ele>
  <time>2026-08-28T17:52:01Z</time>
  <course>0.0</course>
  <speed>0.0</speed>
  <fix>3d</fix>
</trkpt>
<trkpt lat="40.0713749" lon="-105.229789">
  <ele>1583.0</ele>
  <time>2026-08-28T17:52:01Z</time>
  <course>247.3</course>
  <speed>0.0</speed>
  <fix>3d</fix>
</trkpt>
<trkpt lat="40.0713749" lon="-105.229789">
  <ele>1583.0</ele>
  <time>2026-08-28T17:52:01Z</time>
  <course>0.0</course>
  <speed>0.0</speed>
  <fix>3d</fix>
</trkpt>
<trkpt lat="40.0713749" lon="-105.229789">
  <ele>1583.0</ele>
  <time>2026-08-28T17:52:01Z</time>
  <course>247.36</course>
  <speed>0.0</speed>
  <fix>3d</fix>
</trkpt>
<trkpt lat="40.0713749" lon="-105.229789">
  <ele>1583.0</ele>
  <time>2026-08-28T17:52:01Z</time>
  <course>0.0</course>
  <speed>0.0</speed>
  <fix>3d</fix>
</trkpt>
<trkpt lat="40.0713749" lon="-105.229789">
  <ele>1583.0</ele>
  <time>2026-08-28T17:52:01Z</time>
  <course>247.42</course>
  <speed>0.0</speed>
  <fix>3d</fix>
</trkpt>
<trkpt lat="40.0713749" lon="-105.229789">
  <ele>1583.0</ele>
  <time>2026-08-28T17:52:01Z</time>
  <course>0.0</course>
  <speed>0.0</speed>
  <fix>3d</fix>
</trkpt>
<trkpt lat="40.0713749" lon="-105.229789">
  <ele>1583.0</ele>
  <time>2026-08-28T17:52:01Z</time>
  <course>247.47</course>
  <speed>0.0</speed>
  <fix>3d</fix>
</trkpt>
<trkpt lat="40.0713749" lon="-105.229789">
  <ele>1583.0</ele>
  <time>2026-08-28T17:52:01Z</time>
  <course>0.0</course>
  <speed>0.0</speed>
  <fix>3d</fix>
</trkpt>
<trkpt lat="40.0713749" lon="-105.229789">
  <ele>1583.0</ele>
  <time>2026-08-28T17:52:01Z</time>
  <course>247.53</course>
  <speed>0.0</speed>
  <fix>3d</fix>
</trkpt>
<trkpt lat="40.0713749" lon="-105.229789">
  <ele>1583.0</ele>
  <time>2026-08-28T17:52:01Z</time>
  <course>0.0</course>
  <speed>0.0</speed>
  <fix>3d</fix>
</trkpt>
<trkpt lat="40.0713749" lon="-105.229789">
  <ele>1583.0</ele>
  <time>2026-08-28T17:52:01Z</time>
  <course>247.58</course>
  <speed>0.0</speed>
  <fix>3d</fix>
</trkpt>
<trkpt lat="40.0713749" lon="-105.229789">
  <ele>1583.0</ele>
  <time>2026-08-28T17:52:01Z</time>
  <course>0.0</course>
  <speed>0.0</speed>
  <fix>3d</fix>
</trkpt>
<trkpt lat="40.0713749" lon="-105.229789">
  <ele>1583.0</ele>
  <time>2026-08-28T17:52:01Z</time>
  <course>247.63</course>
  <speed>0.0</speed>
  <fix>3d</fix>
</trkpt>
<trkpt lat="40.0713749" lon="-105.229789">
  <ele>1583.0</ele>
  <time>2026-08-28T17:52:01Z</time>
  <course>0.0</course>
  <speed>0.0</speed>
  <fix>3d</fix>
</trkpt>
<trkpt lat="40.0713749" lon="-105.229789">
  <ele>1583.0</ele>
  <time>2026-08-28T17:52:01Z</time>
  <course>247.67</course>
  <speed>0.0</speed>
  <fix>3d</fix>
</trkpt>
<trkpt lat="40.0713749" lon="-105.229789">
  <ele>1583.0</ele>
  <time>2026-08-28T17:52:01Z</time>
  <course>0.0</course>
  <speed>0.0</speed>
  <fix>3d</fix>
</trkpt>
<trkpt lat="40.0713749" lon="-105.229789">
  <ele>1583.0</ele>
  <time>2026-08-28T17:52:01Z</time>
  <course>247.72</course>
  <speed>0.0</speed>
  <fix>3d</fix>
</trkpt>
<trkpt lat="40.0713749" lon="-105.229789">
  <ele>1583.0</ele>
  <time>2026-08-28T17:52:01Z</time>
  <course>0.0</course>
  <speed>0.0</speed>
  <fix>3d</fix>
</trkpt>
<trkpt lat="40.0713749" lon="-105.229789">
  <ele>1583.0</ele>
  <time>2026-08-28T17:52:01Z</time>
  <course>247.76</course>
  <speed>0.0</speed>
  <fix>3d</fix>
</trkpt>
<trkpt lat="40.0713749" lon="-105.229789">
  <ele>1583.0</ele>
  <time>2026-08-28T17:52:01Z</time>
  <course>0.0</course>
  <speed>0.0</speed>
  <fix>3d</fix>
</trkpt>
<trkpt lat="40.0713749" lon="-105.229789">
  <ele>1583.0</ele>
  <time>2026-08-28T17:52:01Z</time>
  <course>247.8</course>
  <speed>0.0</speed>
  <fix>3d</fix>
</trkpt>
<trkpt lat="40.0713749" lon="-105.229789">
  <ele>1583.0</ele>
  <time>2026-08-28T17:52:01Z</time>
  <course>0.0</course>
  <speed>0.0</speed>
  <fix>3d</fix>
</trkpt>
<trkpt lat="40.0713749" lon="-105.229789">
  <ele>1583.0</ele>
  <time>2026-08-28T17:52:01Z</time>
  <course>247.83</course>
  <speed>0.0</speed>
  <fix>3d</fix>
</trkpt>
<trkpt lat="40.0713749" lon="-105.229789">
  <ele>1583.0</ele>
  <time>2026-08-28T17:52:01Z</time>
  <course>0.0</course>
  <speed>0.0</speed>
  <fix>3d</fix>
</trkpt>
<trkpt lat="40.0713749" lon="-105.229789">
  <ele>1583.0</ele>
  <time>2026-08-28T17:52:01Z</time>
  <course>247.87</course>
  <speed>0.0</speed>
  <fix>3d</fix>
</trkpt>
<trkpt lat="40.0713749" lon="-105.229789">
  <ele>1583.0</ele>
  <time>2026-08-28T17:52:01Z</time>
  <course>0.0</course>
  <speed>0.0</speed>
  <fix>3d</fix>
</trkpt>
<trkpt lat="40.0713749" lon="-105.229789">
  <ele>1583.0</ele>
  <time>2026-08-28T17:52:01Z</time>
  <course>247.9</course>
  <speed>0.0</speed>
  <fix>3d</fix>
</trkpt>
<trkpt lat="40.0713749" lon="-105.229789">
  <ele>1583.0</ele>
  <time>2026-08-28T17:52:01Z</time>
  <course>0.0</course>
  <speed>0.0</speed>
  <fix>3d</fix>
</trkpt>
<trkpt lat="40.0713749" lon="-105.229789">
  <ele>1583.0</ele>
  <time>2026-08-28T17:52:01Z</time>
  <course>247.94</course>
  <speed>0.0</speed>
  <fix>3d</fix>
</trkpt>
<trkpt lat="40.0713749" lon="-105.229789">
  <ele>1583.0</ele>
  <time>2026-08-28T17:52:01Z</time>
  <course>0.0</course>
  <speed>0.0</speed>
  <fix>3d</fix>
</trkpt>
<trkpt lat="40.0713749" lon="-105.229789">
  <ele>1583.0</ele>
  <time>2026-08-28T17:52:01Z</time>
  <course>247.97</course>
  <speed>0.0</speed>
  <fix>3d</fix>
</trkpt>
<trkpt lat="40.0713749" lon="-105.229789">
  <ele>1583.0</ele>
  <time>2026-08-28T17:52:01Z</time>
  <course>0.0</course>
  <speed>0.0</speed>
  <fix>3d</fix>
</trkpt>
<trkpt lat="40.0713749" lon="-105.229789">
  <ele>1583.0</ele>
  <time>2026-08-28T17:52:01Z</time>
  <course>248.0</course>
  <speed>0.0</speed>
  <fix>3d</fix>
</trkpt>
<trkpt lat="40.0713749" lon="-105.229789">
  <ele>1583.0</ele>
  <time>2026-08-28T17:52:01Z</time>
  <course>0.0</course>
  <speed>0.0</speed>
  <fix>3d</fix>
</trkpt>
<trkpt lat="40.0713749" lon="-105.229789">
  <ele>1583.0</ele>
  <time>2026-08-28T17:52:01Z</time>
  <course>248.02</course>
  <speed>0.0</speed>
  <fix>3d</fix>
</trkpt>
<trkpt lat="40.0713749" lon="-105.229789">
  <ele>1583.0</ele>
  <time>2026-08-28T17:52:01Z</time>
  <course>0.0</course>
  <speed>0.0</speed>
  <fix>3d</fix>
</trkpt>
<trkpt lat="40.0713749" lon="-105.229789">
  <ele>1583.0</ele>
  <time>2026-08-28T17:52:01Z</time>
  <course>248.05</course>
  <speed>0.0</speed>
  <fix>3d</fix>
</trkpt>
<trkpt lat="40.0713749" lon="-105.229789">
  <ele>1583.0</ele>
  <time>2026-08-28T17:52:01Z</time>
  <course>0.0</course>
  <speed>0.0</speed>
  <fix>3d</fix>
</trkpt>
<trkpt lat="40.0713749" lon="-105.229789">
  <ele>1583.0</ele>
  <time>2026-08-28T17:52:01Z</time>
  <course>248.08</course>
  <speed>0.0</speed>
  <fix>3d</fix>
</trkpt>
<trkpt lat="40.0713749" lon="-105.229789">
  <ele>1583.0</ele>
  <time>2026-08-28T17:52:01Z</time>
  <course>0.0</course>
  <speed>0.0</speed>
  <fix>3d</fix>
</trkpt>
<trkpt lat="40.0713749" lon="-105.229789">
  <ele>1583.0</ele>
  <time>2026-08-28T17:52:01Z</time>
  <course>248.1</course>
  <speed>0.0</speed>
  <fix>3d</fix>
</trkpt>
<trkpt lat="40.0713749" lon="-105.229789">
  <ele>1583.0</ele>
  <time>2026-08-28T17:52:01Z</time>
  <course>0.0</course>
  <speed>0.0</speed>
  <fix>3d</fix>
</trkpt>
<trkpt lat="40.0713749" lon="-105.229789">
  <ele>1583.0</ele>
  <time>2026-08-28T17:52:01Z</time>
  <course>248.12</course>
  <speed>0.0</speed>
  <fix>3d</fix>
</trkpt>
<trkpt lat="40.0713749" lon="-105.229789">
  <ele>1583.0</ele>
  <time>2026-08-28T17:52:01Z</time>
  <course>0.0</course>
  <speed>0.0</speed>
  <fix>3d</fix>
</trkpt>
<trkpt lat="40.0713749" lon="-105.229789">
  <ele>1583.0</ele>
  <time>2026-08-28T17:52:01Z</time>
  <course>248.14</course>
  <speed>0.0</speed>
  <fix>3d</fix>
</trkpt>
<trkpt lat="40.0713749" lon="-105.229789">
  <ele>1583.0</ele>
  <time>2026-08-28T17:52:01Z</time>
  <course>0.0</course>
  <speed>0.0</speed>
  <fix>3d</fix>
</trkpt>
<trkpt lat="40.0713749" lon="-105.229789">
  <ele>1583.0</ele>
  <time>2026-08-28T17:52:01Z</time>
  <course>248.16</course>
  <speed>0.0</speed>
  <fix>3d</fix>
</trkpt>
<trkpt lat="40.0713749" lon="-105.229789">
  <ele>1583.0</ele>
  <time>2026-08-28T17:52:01Z</time>
  <course>0.0</course>
  <speed>0.0</speed>
  <fix>3d</fix>
</trkpt>
<trkpt lat="40.0713749" lon="-105.229789">
  <ele>1583.0</ele>
  <time>2026-08-28T17:52:01Z</time>
  <course>248.18</course>
  <speed>0.0</speed>
  <fix>3d</fix>
</trkpt>
<trkpt lat="40.0713749" lon="-105.229789">
  <ele>1583.0</ele>
  <time>2026-08-28T17:52:01Z</time>
  <course>0.0</course>
  <speed>0.0</speed>
  <fix>3d</fix>
</trkpt>
<trkpt lat="40.0713749" lon="-105.229789">
  <ele>1583.0</ele>
  <time>2026-08-28T17:52:01Z</time>
  <course>248.2</course>
  <speed>0.0</speed>
  <fix>3d</fix>
</trkpt>
<trkpt lat="40.0713749" lon="-105.229789">
  <ele>1583.0</ele>
  <time>2026-08-28T17:52:01Z</time>
  <course>0.0</course>
  <speed>0.0</speed>
  <fix>3d</fix>
</trkpt>
<trkpt lat="40.0713749" lon="-105.229789">
  <ele>1583.0</ele>
  <time>2026-08-28T17:52:01Z</time>
  <course>248.22</course>
  <speed>0.0</speed>
  <fix>3d</fix>
</trkpt>
<trkpt lat="40.0713749" lon="-105.229789">
  <ele>1583.0</ele>
  <time>2026-08-28T17:52:01Z</time>
  <course>0.0</course>
  <speed>0.0</speed>
  <fix>3d</fix>
</trkpt>
<trkpt lat="40.0713749" lon="-105.229789">
  <ele>1583.0</ele>
  <time>2026-08-28T17:52:01Z</time>
  <course>248.23</course>
  <speed>0.0</speed>
  <fix>3d</fix>
</trkpt>
<trkpt lat="40.0713749" lon="-105.229789">
  <ele>1583.0</ele>
  <time>2026-08-28T17:52:01Z</time>
  <course>0.0</course>
  <speed>0.0</speed>
  <fix>3d</fix>
</trkpt>
<trkpt lat="40.0713749" lon="-105.229789">
  <ele>1583.0</ele>
  <time>2026-08-28T17:52:01Z</time>
  <course>248.25</course>
  <speed>0.0</speed>
  <fix>3d</fix>
</trkpt>
<trkpt lat="40.0713749" lon="-105.229789">
  <ele>1583.0</ele>
  <time>2026-08-28T17:52:01Z</time>
  <course>0.0</course>
  <speed>0.0</speed>
  <fix>3d</fix>
</trkpt>
<trkpt lat="40.0713749" lon="-105.229789">
  <ele>1583.0</ele>
  <time>2026-08-28T17:52:01Z</time>
  <course>248.26</course>
  <speed>0.0</speed>
  <fix>3d</fix>
</trkpt>
<trkpt lat="40.0713749" lon="-105.229789">
  <ele>1583.0</ele>
  <time>2026-08-28T17:52:01Z</time>
  <course>0.0</course>
  <speed>0.0</speed>
  <fix>3d</fix>
</trkpt>
<trkpt lat="40.0713749" lon="-105.229789">
  <ele>1583.0</ele>
  <time>2026-08-28T17:52:01Z</time>
  <course>248.28</course>
  <speed>0.0</speed>
  <fix>3d</fix>
</trkpt>
<trkpt lat="40.0713749" lon="-105.229789">
  <ele>1583.0</ele>
  <time>2026-08-28T17:52:01Z</time>
  <course>0.0</course>
  <speed>0.0</speed>
  <fix>3d</fix>
</trkpt>
<trkpt lat="40.0713749" lon="-105.229789">
  <ele>1583.0</ele>
  <time>2026-08-28T17:52:01Z</time>
  <course>248.29</course>
  <speed>0.0</speed>
  <fix>3d</fix>
</trkpt>
<trkpt lat="40.0713749" lon="-105.229789">
  <ele>1583.0</ele>
  <time>2026-08-28T17:52:01Z</time>
  <course>0.0</course>
  <speed>0.0</speed>
  <fix>3d</fix>
</trkpt>
<trkpt lat="40.0713749" lon="-105.229789">
  <ele>1583.0</ele>
  <time>2026-08-28T17:52:01Z</time>
  <course>248.3</course>
  <speed>0.0</speed>
  <fix>3d</fix>
</trkpt>
<trkpt lat="40.0713749" lon="-105.229789">
  <ele>1583.0</ele>
  <time>2026-08-28T17:52:01Z</time>
  <course>0.0</course>
  <speed>0.0</speed>
  <fix>3d</fix>
</trkpt>
<trkpt lat="40.0713749" lon="-105.229789">
  <ele>1583.0</ele>
  <time>2026-08-28T17:52:01Z</time>
  <course>248.31</course>
  <speed>0.0</speed>
  <fix>3d</fix>
</trkpt>
<trkpt lat="40.0713749" lon="-105.229789">
  <ele>1583.0</ele>
  <time>2026-08-28T17:52:01Z</time>
  <course>0.0</course>
  <speed>0.0</speed>
  <fix>3d</fix>
</trkpt>
<trkpt lat="40.0713749" lon="-105.229789">
  <ele>1583.0</ele>
  <time>2026-08-28T17:52:01Z</time>
  <course>248.32</course>
  <speed>0.0</speed>
  <fix>3d</fix>
</trkpt>
<trkpt lat="40.0713749" lon="-105.229789">
  <ele>1583.0</ele>
  <time>2026-08-28T17:52:01Z</time>
  <course>0.0</course>
  <speed>0.0</speed>
  <fix>3d</fix>
</trkpt>
<trkpt lat="40.0713749" lon="-105.229789">
  <ele>1583.0</ele>
  <time>2026-08-28T17:52:01Z</time>
  <course>248.33</course>
  <speed>0.0</speed>
  <fix>3d</fix>
</trkpt>
<trkpt lat="40.0713749" lon="-105.229789">
  <ele>1583.0</ele>
  <time>2026-08-28T17:52:01Z</time>
  <course>0.0</course>
  <speed>0.0</speed>
  <fix>3d</fix>
</trkpt>
<trkpt lat="40.0713749" lon="-105.229789">
  <ele>1583.0</ele>
  <time>2026-08-28T17:52:01Z</time>
  <course>248.34</course>
  <speed>0.0</speed>
  <fix>3d</fix>
</trkpt>
<trkpt lat="40.0713749" lon="-105.229789">
  <ele>1583.0</ele>
  <time>2026-08-28T17:52:01Z</time>
  <course>0.0</course>
  <speed>0.0</speed>
  <fix>3d</fix>
</trkpt>
<trkpt lat="40.0713749" lon="-105.229789">
  <ele>1583.0</ele>
  <time>2026-08-28T17:52:01Z</time>
  <course>248.35</course>
  <speed>0.0</speed>
  <fix>3d</fix>
</trkpt>
<trkpt lat="40.0713749" lon="-105.229789">
  <ele>1583.0</ele>
  <time>2026-08-28T17:52:01Z</time>
  <course>0.0</course>
  <speed>0.0</speed>
  <fix>3d</fix>
</trkpt>
<trkpt lat="40.0713749" lon="-105.229789">
  <ele>1583.0</ele>
  <time>2026-08-28T17:52:01Z</time>
  <course>248.35</course>
  <speed>0.0</speed>
  <fix>3d</fix>
</trkpt>
<trkpt lat="40.0713749" lon="-105.229789">
  <ele>1583.0</ele>
  <time>2026-08-28T17:52:01Z</time>
  <course>0.0</course>
  <speed>0.0</speed>
  <fix>3d</fix>
</trkpt>
<trkpt lat="40.0713749" lon="-105.229789">
  <ele>1583.0</ele>
  <time>2026-08-28T17:52:01Z</time>
  <course>248.36</course>
  <speed>0.0</speed>
  <fix>3d</fix>
</trkpt>
<trkpt lat="40.0713749" lon="-105.229789">
  <ele>1583.0</ele>
  <time>2026-08-28T17:52:01Z</time>
  <course>0.0</course>
  <speed>0.0</speed>
  <fix>3d</fix>
</trkpt>
<trkpt lat="40.0713749" lon="-105.229789">
  <ele>1583.0</ele>
  <time>2026-08-28T17:52:01Z</time>
  <course>248.37</course>
  <speed>0.0</speed>
  <fix>3d</fix>
</trkpt>
<trkpt lat="40.0713749" lon="-105.229789">
  <ele>1583.0</ele>
  <time>2026-08-28T17:52:01Z</time>
  <course>0.0</course>
  <speed>0.0</speed>
  <fix>3d</fix>
</trkpt>
<trkpt lat="40.0713749" lon="-105.229789">
  <ele>1583.0</ele>
  <time>2026-08-28T17:52:01Z</time>
  <course>248.37</course>
  <speed>0.0</speed>
  <fix>3d</fix>
</trkpt>
<trkpt lat="40.0713749" lon="-105.229789">
  <ele>1583.0</ele>
  <time>2026-08-28T17:52:01Z</time>
  <course>0.0</course>
  <speed>0.0</speed>
  <fix>3d</fix>
</trkpt>
<trkpt lat="40.0713749" lon="-105.229789">
  <ele>1583.0</ele>
  <time>2026-08-28T17:52:01Z</time>
  <course>248.38</course>
  <speed>0.0</speed>
  <fix>3d</fix>
</trkpt>
<trkpt lat="40.0713749" lon="-105.229789">
  <ele>1583.0</ele>
  <time>2026-08-28T17:52:01Z</time>
  <course>0.0</course>
  <speed>0.0</speed>
  <fix>3d</fix>
</trkpt>
<trkpt lat="40.0713749" lon="-105.229789">
  <ele>1583.0</ele>
  <time>2026-08-28T17:52:01Z</time>
  <course>248.38</course>
  <speed>0.0</speed>
  <fix>3d</fix>
</trkpt>
<trkpt lat="40.0713749" lon="-105.229789">
  <ele>1583.0</ele>
  <time>2026-08-28T17:52:01Z</time>
  <course>0.0</course>
  <speed>0.0</speed>
  <fix>3d</fix>
</trkpt>
<trkpt lat="40.0713749" lon="-105.229789">
  <ele>1583.0</ele>
  <time>2026-08-28T17:52:01Z</time>
  <course>248.39</course>
  <speed>0.0</speed>
  <fix>3d</fix>
</trkpt>
<trkpt lat="40.0713749" lon="-105.229789">
  <ele>1583.0</ele>
  <time>2026-08-28T17:52:01Z</time>
  <course>0.0</course>
  <speed>0.0</speed>
  <fix>3d</fix>
</trkpt>
<trkpt lat="40.0713749" lon="-105.229789">
  <ele>1583.0</ele>
  <time>2026-08-28T17:52:01Z</time>
  <course>248.39</course>
  <speed>0.0</speed>
  <fix>3d</fix>
</trkpt>
<trkpt lat="40.0713749" lon="-105.229789">
  <ele>1583.0</ele>
  <time>2026-08-28T17:52:01Z</time>
  <course>0.0</course>
  <speed>0.0</speed>
  <fix>3d</fix>
</trkpt>
<trkpt lat="40.0713749" lon="-105.229789">
  <ele>1583.0</ele>
  <time>2026-08-28T17:52:01Z</time>
  <course>248.4</course>
  <speed>0.0</speed>
  <fix>3d</fix>
</trkpt>
<trkpt lat="40.0713749" lon="-105.229789">
  <ele>1583.0</ele>
  <time>2026-08-28T17:52:01Z</time>
  <course>0.0</course>
  <speed>0.0</speed>
  <fix>3d</fix>
</trkpt>
<trkpt lat="40.0713749" lon="-105.229789">
  <ele>1583.0</ele>
  <time>2026-08-28T17:52:01Z</time>
  <course>248.4</course>
  <speed>0.0</speed>
  <fix>3d</fix>
</trkpt>
<trkpt lat="40.0713749" lon="-105.229789">
  <ele>1583.0</ele>
  <time>2026-08-28T17:52:01Z</time>
  <course>0.0</course>
  <speed>0.0</speed>
  <fix>3d</fix>
</trkpt>
<trkpt lat="40.0713749" lon="-105.229789">
  <ele>1583.0</ele>
  <time>2026-08-28T17:52:01Z</time>
  <course>248.4</course>
  <speed>0.0</speed>
  <fix>3d</fix>
</trkpt>
<trkpt lat="40.0713749" lon="-105.229789">
  <ele>1583.0</ele>
  <time>2026-08-28T17:52:01Z</time>
  <course>0.0</course>
  <speed>0.0</speed>
  <fix>3d</fix>
</trkpt>
<trkpt lat="40.0713749" lon="-105.229789">
  <ele>1583.0</ele>
  <time>2026-08-28T17:52:01Z</time>
  <course>248.4</course>
  <speed>0.0</speed>
  <fix>3d</fix>
</trkpt>
<trkpt lat="40.0713749" lon="-105.229789">
  <ele>1583.0</ele>
  <time>2026-08-28T17:52:01Z</time>
  <course>0.0</course>
  <speed>0.0</speed>
  <fix>3d</fix>
</trkpt>
<trkpt lat="40.0713749" lon="-105.229789">
  <ele>1583.0</ele>
  <time>2026-08-28T17:52:01Z</time>
  <course>248.41</course>
  <speed>0.0</speed>
  <fix>3d</fix>
</trkpt>
<trkpt lat="40.0713749" lon="-105.229789">
  <ele>1583.0</ele>
  <time>2026-08-28T17:52:01Z</time>
  <course>0.0</course>
  <speed>0.0</speed>
  <fix>3d</fix>
</trkpt>
<trkpt lat="40.0713749" lon="-105.229789">
  <ele>1583.0</ele>
  <time>2026-08-28T17:52:01Z</time>
  <course>248.41</course>
  <speed>0.0</speed>
  <fix>3d</fix>
</trkpt>
<trkpt lat="40.0713749" lon="-105.229789">
  <ele>1583.0</ele>
  <time>2026-08-28T17:52:01Z</time>
  <course>0.0</course>
  <speed>0.0</speed>
  <fix>3d</fix>
</trkpt>
<trkpt lat="40.0713749" lon="-105.229789">
  <ele>1583.0</ele>
  <time>2026-08-28T17:52:01Z</time>
  <course>248.41</course>
  <speed>0.0</speed>
  <fix>3d</fix>
</trkpt>
<trkpt lat="40.0713749" lon="-105.229789">
  <ele>1583.0</ele>
  <time>2026-08-28T17:52:01Z</time>
  <course>0.0</course>
  <speed>0.0</speed>
  <fix>3d</fix>
</trkpt>
<trkpt lat="40.0713749" lon="-105.229789">
  <ele>1583.0</ele>
  <time>2026-08-28T17:52:01Z</time>
  <course>248.41</course>
  <speed>0.0</speed>
  <fix>3d</fix>
</trkpt>
<trkpt lat="40.0713749" lon="-105.229789">
  <ele>1583.0</ele>
  <time>2026-08-28T17:52:01Z</time>
  <course>0.0</course>
  <speed>0.0</speed>
  <fix>3d</fix>
</trkpt>
<trkpt lat="40.0713749" lon="-105.229789">
  <ele>1583.0</ele>
  <time>2026-08-28T17:52:01Z</time>
  <course>248.41</course>
  <speed>0.0</speed>
  <fix>3d</fix>
</trkpt>
<trkpt lat="40.0713749" lon="-105.229789">
  <ele>1583.0</ele>
  <time>2026-08-28T17:52:01Z</time>
  <course>0.0</course>
  <speed>0.0</speed>
  <fix>3d</fix>
</trkpt>
<trkpt lat="40.0713749" lon="-105.229789">
  <ele>1583.0</ele>
  <time>2026-08-28T17:52:01Z</time>
  <course>248.41</course>
  <speed>0.0</speed>
  <fix>3d</fix>
</trkpt>
<trkpt lat="40.0713749" lon="-105.229789">
  <ele>1583.0</ele>
  <time>2026-08-28T17:52:01Z</time>
  <course>0.0</course>
  <speed>0.0</speed>
  <fix>3d</fix>
</trkpt>
<trkpt lat="40.0713749" lon="-105.229789">
  <ele>1583.0</ele>
  <time>2026-08-28T17:52:01Z</time>
  <course>248.41</course>
  <speed>0.0</speed>
  <fix>3d</fix>
</trkpt>
<trkpt lat="40.0713749" lon="-105.229789">
  <ele>1583.0</ele>
  <time>2026-08-28T17:52:01Z</time>
  <course>0.0</course>
  <speed>0.0</speed>
  <fix>3d</fix>
</trkpt>
<trkpt lat="40.0713749" lon="-105.229789">
  <ele>1583.0</ele>
  <time>2026-08-28T17:52:01Z</time>
  <course>248.41</course>
  <speed>0.0</speed>
  <fix>3d</fix>
</trkpt>
<trkpt lat="40.0713749" lon="-105.229789">
  <ele>1583.0</ele>
  <time>2026-08-28T17:52:01Z</time>
  <course>0.0</course>
  <speed>0.0</speed>
  <fix>3d</fix>
</trkpt>
<trkpt lat="40.0713749" lon="-105.229789">
  <ele>1583.0</ele>
  <time>2026-08-28T17:52:01Z</time>
  <course>248.41</course>
  <speed>0.0</speed>
  <fix>3d</fix>
</trkpt>
<trkpt lat="40.0713749" lon="-105.229789">
  <ele>1583.0</ele>
  <time>2026-08-28T17:52:01Z</time>
  <course>0.0</course>
  <speed>0.0</speed>
  <fix>3d</fix>
</trkpt>
<trkpt lat="40.0713749" lon="-105.229789">
  <ele>1583.0</ele>
  <time>2026-08-28T17:52:01Z</time>
  <course>248.41</course>
  <speed>0.0</speed>
  <fix>3d</fix>
</trkpt>
<trkpt lat="40.0713749" lon="-105.229789">
  <ele>1583.0</ele>
  <time>2026-08-28T17:52:01Z</time>
  <course>0.0</course>
  <speed>0.0</speed>
  <fix>3d</fix>
</trkpt>
<trkpt lat="40.0713749" lon="-105.229789">
  <ele>1583.0</ele>
  <time>2026-08-28T17:52:01Z</time>
  <course>248.41</course>
  <speed>0.0</speed>
  <fix>3d</fix>
</trkpt>
<trkpt lat="40.0713749" lon="-105.229789">
  <ele>1583.0</ele>
  <time>2026-08-28T17:52:01Z</time>
  <course>0.0</course>
  <speed>0.0</speed>
  <fix>3d</fix>
</trkpt>
<trkpt lat="40.0713749" lon="-105.229789">
  <ele>1583.0</ele>
  <time>2026-08-28T17:52:01Z</time>
  <course>248.41</course>
  <speed>0.0</speed>
  <fix>3d</fix>
</trkpt>
<trkpt lat="40.0713749" lon="-105.229789">
  <ele>1583.0</ele>
  <time>2026-08-28T17:52:01Z</time>
  <course>0.0</course>
  <speed>0.0</speed>
  <fix>3d</fix>
</trkpt>
<trkpt lat="40.0713749" lon="-105.229789">
  <ele>1583.0</ele>
  <time>2026-08-28T17:52:01Z</time>
  <course>248.41</course>
  <speed>0.0</speed>
  <fix>3d</fix>
</trkpt>
<trkpt lat="40.0713749" lon="-105.229789">
  <ele>1583.0</ele>
  <time>2026-08-28T17:52:01Z</time>
  <course>0.0</course>
  <speed>0.0</speed>
  <fix>3d</fix>
</trkpt>
<trkpt lat="40.0713749" lon="-105.229789">
  <ele>1583.0</ele>
  <time>2026-08-28T17:52:01Z</time>
  <course>248.41</course>
  <speed>0.0</speed>
  <fix>3d</fix>
</trkpt>
<trkpt lat="40.0713749" lon="-105.229789">
  <ele>1583.0</ele>
  <time>2026-08-28T17:52:01Z</time>
  <course>0.0</course>
  <speed>0.0</speed>
  <fix>3d</fix>
</trkpt>
<trkpt lat="40.0713749" lon="-105.229789">
  <ele>1583.0</ele>
  <time>2026-08-28T17:52:01Z</time>
  <course>248.41</course>
  <speed>0.0</speed>
  <fix>3d</fix>
</trkpt>
<trkpt lat="40.0713749" lon="-105.229789">
  <ele>1583.0</ele>
  <time>2026-08-28T17:52:01Z</time>
  <course>0.0</course>
  <speed>0.0</speed>
  <fix>3d</fix>
</trkpt>
<trkpt lat="40.0713749" lon="-105.229789">
  <ele>1583.0</ele>
  <time>2026-08-28T17:52:01Z</time>
  <course>248.41</course>
  <speed>0.0</speed>
  <fix>3d</fix>
</trkpt>
<trkpt lat="40.0713749" lon="-105.229789">
  <ele>1583.0</ele>
  <time>2026-08-28T17:52:01Z</time>
  <course>0.0</course>
  <speed>0.0</speed>
  <fix>3d</fix>
</trkpt>
<trkpt lat="40.0713749" lon="-105.229789">
  <ele>1583.0</ele>
  <time>2026-08-28T17:52:01Z</time>
  <course>248.4</course>
  <speed>0.0</speed>
  <fix>3d</fix>
</trkpt>
<trkpt lat="40.0713749" lon="-105.229789">
  <ele>1583.0</ele>
  <time>2026-08-28T17:52:01Z</time>
  <course>0.0</course>
  <speed>0.0</speed>
  <fix>3d</fix>
</trkpt>
<trkpt lat="40.0713749" lon="-105.229789">
  <ele>1583.0</ele>
  <time>2026-08-28T17:52:01Z</time>
  <course>248.4</course>
  <speed>0.01</speed>
  <fix>3d</fix>
</trkpt>
<trkpt lat="40.0713749" lon="-105.229789">
  <ele>1583.0</ele>
  <time>2026-08-28T17:52:01Z</time>
  <course>0.0</course>
  <speed>0.0</speed>
  <fix>3d</fix>
</trkpt>
<trkpt lat="40.0713749" lon="-105.229789">
  <ele>1583.0</ele>
  <time>2026-08-28T17:52:01Z</time>
  <course>248.4</course>
  <speed>0.01</speed>
  <fix>3d</fix>
</trkpt>
<trkpt lat="40.0713749" lon="-105.229789">
  <ele>1583.0</ele>
  <time>2026-08-28T17:52:01Z</time>
  <course>0.0</course>
  <speed>0.0</speed>
  <fix>3d</fix>
</trkpt>
<trkpt lat="40.0713749" lon="-105.229789">
  <ele>1583.0</ele>
  <time>2026-08-28T17:52:01Z</time>
  <course>248.4</course>
  <speed>0.01</speed>
  <fix>3d</fix>
</trkpt>
<trkpt lat="40.0713749" lon="-105.229789">
  <ele>1583.0</ele>
  <time>2026-08-28T17:52:01Z</time>
  <course>0.0</course>
  <speed>0.0</speed>
  <fix>3d</fix>
</trkpt>
<trkpt lat="40.0713749" lon="-105.229789">
  <ele>1583.0</ele>
  <time>2026-08-28T17:52:01Z</time>
  <course>248.4</course>
  <speed>0.01</speed>
  <fix>3d</fix>
</trkpt>
<trkpt lat="40.0713749" lon="-105.229789">
  <ele>1583.0</ele>
  <time>2026-08-28T17:52:01Z</time>
  <course>0.0</course>
  <speed>0.0</speed>
  <fix>3d</fix>
</trkpt>
<trkpt lat="40.0713749" lon="-105.229789">
  <ele>1583.0</ele>
  <time>2026-08-28T17:52:01Z</time>
  <course>248.39</course>
  <speed>0.01</speed>
  <fix>3d</fix>
</trkpt>
<trkpt lat="40.0713749" lon="-105.229789">
  <ele>1583.0</ele>
  <time>2026-08-28T17:52:01Z</time>
  <course>0.0</course>
  <speed>0.0</speed>
  <fix>3d</fix>
</trkpt>
<trkpt lat="40.0713749" lon="-105.229789">
  <ele>1583.0</ele>
  <time>2026-08-28T17:52:01Z</time>
  <course>248.39</course>
  <speed>0.01</speed>
  <fix>3d</fix>
</trkpt>
<trkpt lat="40.0713749" lon="-105.229789">
  <ele>1583.0</ele>
  <time>2026-08-28T17:52:01Z</time>
  <course>0.0</course>
  <speed>0.0</speed>
  <fix>3d</fix>
</trkpt>
<trkpt lat="40.0713749" lon="-105.229789">
  <ele>1583.0</ele>
  <time>2026-08-28T17:52:01Z</time>
  <course>248.39</course>
  <speed>0.01</speed>
  <fix>3d</fix>
</trkpt>
<trkpt lat="40.0713749" lon="-105.229789">
  <ele>1583.0</ele>
  <time>2026-08-28T17:52:01Z</time>
  <course>0.0</course>
  <speed>0.0</speed>
  <fix>3d</fix>
</trkpt>
<trkpt lat="40.0713749" lon="-105.229789">
  <ele>1583.0</ele>
  <time>2026-08-28T17:52:01Z</time>
  <course>248.38</course>
  <speed>0.01</speed>
  <fix>3d</fix>
</trkpt>
<trkpt lat="40.0713749" lon="-105.229789">
  <ele>1583.0</ele>
  <time>2026-08-28T17:52:01Z</time>
  <course>0.0</course>
  <speed>0.0</speed>
  <fix>3d</fix>
</trkpt>
<trkpt lat="40.0713749" lon="-105.229789">
  <ele>1583.0</ele>
  <time>2026-08-28T17:52:01Z</time>
  <course>248.38</course>
  <speed>0.01</speed>
  <fix>3d</fix>
</trkpt>
<trkpt lat="40.0713749" lon="-105.229789">
  <ele>1583.0</ele>
  <time>2026-08-28T17:52:01Z</time>
  <course>0.0</course>
  <speed>0.0</speed>
  <fix>3d</fix>
</trkpt>
<trkpt lat="40.0713749" lon="-105.229789">
  <ele>1583.0</ele>
  <time>2026-08-28T17:52:01Z</time>
  <course>248.38</course>
  <speed>0.01</speed>
  <fix>3d</fix>
</trkpt>
<trkpt lat="40.0713749" lon="-105.229789">
  <ele>1583.0</ele>
  <time>2026-08-28T17:52:01Z</time>
  <course>0.0</course>
  <speed>0.0</speed>
  <fix>3d</fix>
</trkpt>
<trkpt lat="40.0713749" lon="-105.229789">
  <ele>1583.0</ele>
  <time>2026-08-28T17:52:01Z</time>
  <course>248.37</course>
  <speed>0.01</speed>
  <fix>3d</fix>
</trkpt>
<trkpt lat="40.0713749" lon="-105.229789">
  <ele>1583.0</ele>
  <time>2026-08-28T17:52:01Z</time>
  <course>0.0</course>
  <speed>0.0</speed>
  <fix>3d</fix>
</trkpt>
<trkpt lat="40.0713749" lon="-105.229789">
  <ele>1583.0</ele>
  <time>2026-08-28T17:52:01Z</time>
  <course>248.37</course>
  <speed>0.01</speed>
  <fix>3d</fix>
</trkpt>
<trkpt lat="40.0713749" lon="-105.229789">
  <ele>1583.0</ele>
  <time>2026-08-28T17:52:01Z</time>
  <course>0.0</course>
  <speed>0.0</speed>
  <fix>3d</fix>
</trkpt>
<trkpt lat="40.0713749" lon="-105.229789">
  <ele>1583.0</ele>
  <time>2026-08-28T17:52:01Z</time>
  <course>248.37</course>
  <speed>0.01</speed>
  <fix>3d</fix>
</trkpt>
<trkpt lat="40.0713749" lon="-105.229789">
  <ele>1583.0</ele>
  <time>2026-08-28T17:52:01Z</time>
  <course>0.0</course>
  <speed>0.0</speed>
  <fix>3d</fix>
</trkpt>
<trkpt lat="40.0713749" lon="-105.229789">
  <ele>1583.0</ele>
  <time>2026-08-28T17:52:01Z</time>
  <course>248.36</course>
  <speed>0.01</speed>
  <fix>3d</fix>
</trkpt>
<trkpt lat="40.0713749" lon="-105.229789">
  <ele>1583.0</ele>
  <time>2026-08-28T17:52:01Z</time>
  <course>0.0</course>
  <speed>0.0</speed>
  <fix>3d</fix>
</trkpt>
<trkpt lat="40.0713749" lon="-105.229789">
  <ele>1583.0</ele>
  <time>2026-08-28T17:52:01Z</time>
  <course>248.36</course>
  <speed>0.01</speed>
  <fix>3d</fix>
</trkpt>
<trkpt lat="40.0713749" lon="-105.229789">
  <ele>1583.0</ele>
  <time>2026-08-28T17:52:01Z</time>
  <course>0.0</course>
  <speed>0.0</speed>
  <fix>3d</fix>
</trkpt>
<trkpt lat="40.0713749" lon="-105.229789">
  <ele>1583.0</ele>
  <time>2026-08-28T17:52:01Z</time>
  <course>248.36</course>
  <speed>0.01</speed>
  <fix>3d</fix>
</trkpt>
<trkpt lat="40.0713749" lon="-105.229789">
  <ele>1583.0</ele>
  <time>2026-08-28T17:52:01Z</time>
  <course>0.0</course>
  <speed>0.0</speed>
  <fix>3d</fix>
</trkpt>
<trkpt lat="40.0713749" lon="-105.229789">
  <ele>1583.0</ele>
  <time>2026-08-28T17:52:01Z</time>
  <course>248.35</course>
  <speed>0.01</speed>
  <fix>3d</fix>
</trkpt>
<trkpt lat="40.0713749" lon="-105.229789">
  <ele>1583.0</ele>
  <time>2026-08-28T17:52:01Z</time>
  <course>0.0</course>
  <speed>0.0</speed>
  <fix>3d</fix>
</trkpt>
<trkpt lat="40.0713749" lon="-105.229789">
  <ele>1583.0</ele>
  <time>2026-08-28T17:52:01Z</time>
  <course>248.35</course>
  <speed>0.01</speed>
  <fix>3d</fix>
</trkpt>
<trkpt lat="40.0713749" lon="-105.229789">
  <ele>1583.0</ele>
  <time>2026-08-28T17:52:01Z</time>
  <course>0.0</course>
  <speed>0.0</speed>
  <fix>3d</fix>
</trkpt>
<trkpt lat="40.0713749" lon="-105.229789">
  <ele>1583.0</ele>
  <time>2026-08-28T17:52:01Z</time>
  <course>248.35</course>
  <speed>0.01</speed>
  <fix>3d</fix>
</trkpt>
<trkpt lat="40.0713749" lon="-105.229789">
  <ele>1583.0</ele>
  <time>2026-08-28T17:52:01Z</time>
  <course>0.0</course>
  <speed>0.0</speed>
  <fix>3d</fix>
</trkpt>
<trkpt lat="40.0713749" lon="-105.229789">
  <ele>1583.0</ele>
  <time>2026-08-28T17:52:01Z</time>
  <course>248.34</course>
  <speed>0.01</speed>
  <fix>3d</fix>
</trkpt>
<trkpt lat="40.0713749" lon="-105.229789">
  <ele>1583.0</ele>
  <time>2026-08-28T17:52:01Z</time>
  <course>0.0</course>
  <speed>0.0</speed>
  <fix>3d</fix>
</trkpt>
<trkpt lat="40.0713749" lon="-105.229789">
  <ele>1583.0</ele>
  <time>2026-08-28T17:52:01Z</time>
  <course>248.34</course>
  <speed>0.01</speed>
  <fix>3d</fix>
</trkpt>
<trkpt lat="40.0713749" lon="-105.229789">
  <ele>1583.0</ele>
  <time>2026-08-28T17:52:01Z</time>
  <course>0.0</course>
  <speed>0.0</speed>
  <fix>3d</fix>
</trkpt>
<trkpt lat="40.0713749" lon="-105.229789">
  <ele>1583.0</ele>
  <time>2026-08-28T17:52:01Z</time>
  <course>248.33</course>
  <speed>0.01</speed>
  <fix>3d</fix>
</trkpt>
<trkpt lat="40.0713749" lon="-105.229789">
  <ele>1583.0</ele>
  <time>2026-08-28T17:52:01Z</time>
  <course>0.0</course>
  <speed>0.0</speed>
  <fix>3d</fix>
</trkpt>
<trkpt lat="40.0713749" lon="-105.229789">
  <ele>1583.0</ele>
  <time>2026-08-28T17:52:01Z</time>
  <course>248.33</course>
  <speed>0.01</speed>
  <fix>3d</fix>
</trkpt>
<trkpt lat="40.0713749" lon="-105.229789">
  <ele>1583.0</ele>
  <time>2026-08-28T17:52:01Z</time>
  <course>0.0</course>
  <speed>0.0</speed>
  <fix>3d</fix>
</trkpt>
<trkpt lat="40.0713749" lon="-105.229789">
  <ele>1583.0</ele>
  <time>2026-08-28T17:52:01Z</time>
  <course>248.32</course>
  <speed>0.01</speed>
  <fix>3d</fix>
</trkpt>
<trkpt lat="40.0713749" lon="-105.229789">
  <ele>1583.0</ele>
  <time>2026-08-28T17:52:01Z</time>
  <course>0.0</course>
  <speed>0.0</speed>
  <fix>3d</fix>
</trkpt>
<trkpt lat="40.0713749" lon="-105.229789">
  <ele>1583.0</ele>
  <time>2026-08-28T17:52:01Z</time>
  <course>248.32</course>
  <speed>0.01</speed>
  <fix>3d</fix>
</trkpt>
<trkpt lat="40.0713749" lon="-105.229789">
  <ele>1583.0</ele>
  <time>2026-08-28T17:52:01Z</time>
  <course>0.0</course>
  <speed>0.0</speed>
  <fix>3d</fix>
</trkpt>
<trkpt lat="40.0713749" lon="-105.229789">
  <ele>1583.0</ele>
  <time>2026-08-28T17:52:01Z</time>
  <course>248.32</course>
  <speed>0.01</speed>
  <fix>3d</fix>
</trkpt>
<trkpt lat="40.0713749" lon="-105.229789">
  <ele>1583.0</ele>
  <time>2026-08-28T17:52:01Z</time>
  <course>0.0</course>
  <speed>0.0</speed>
  <fix>3d</fix>
</trkpt>
<trkpt lat="40.0713749" lon="-105.229789">
  <ele>1583.0</ele>
  <time>2026-08-28T17:52:01Z</time>
  <course>248.31</course>
  <speed>0.01</speed>
  <fix>3d</fix>
</trkpt>
<trkpt lat="40.0713749" lon="-105.229789">
  <ele>1583.0</ele>
  <time>2026-08-28T17:52:01Z</time>
  <course>0.0</course>
  <speed>0.0</speed>
  <fix>3d</fix>
</trkpt>
<trkpt lat="40.0713749" lon="-105.229789">
  <ele>1583.0</ele>
  <time>2026-08-28T17:52:01Z</time>
  <course>248.31</course>
  <speed>0.01</speed>
  <fix>3d</fix>
</trkpt>
<trkpt lat="40.0713749" lon="-105.229789">
  <ele>1583.0</ele>
  <time>2026-08-28T17:52:01Z</time>
  <course>0.0</course>
  <speed>0.0</speed>
  <fix>3d</fix>
</trkpt>
<trkpt lat="40.0713749" lon="-105.229789">
  <ele>1583.0</ele>
  <time>2026-08-28T17:52:02Z</time>
  <course>248.3</course>
  <speed>0.01</speed>
  <fix>3d</fix>
</trkpt>
<trkpt lat="40.0713749" lon="-105.229789">
  <ele>1583.0</ele>
  <time>2026-08-28T17:52:02Z</time>
  <course>0.0</course>
  <speed>0.0</speed>
  <fix>3d</fix>
</trkpt>
<trkpt lat="40.0713749" lon="-105.229789">
  <ele>1583.0</ele>
  <time>2026-08-28T17:52:02Z</time>
  <course>248.3</course>
  <speed>0.01</speed>
  <fix>3d</fix>
</trkpt>
<trkpt lat="40.0713749" lon="-105.229789">
  <ele>1583.0</ele>
  <time>2026-08-28T17:52:02Z</time>
  <course>0.0</course>
  <speed>0.0</speed>
  <fix>3d</fix>
</trkpt>
<trkpt lat="40.0713749" lon="-105.229789">
  <ele>1583.0</ele>
  <time>2026-08-28T17:52:02Z</time>
  <course>248.29</course>
  <speed>0.01</speed>
  <fix>3d</fix>
</trkpt>
<trkpt lat="40.0713749" lon="-105.229789">
  <ele>1583.0</ele>
  <time>2026-08-28T17:52:02Z</time>
  <course>0.0</course>
  <speed>0.0</speed>
  <fix>3d</fix>
</trkpt>
<trkpt lat="40.0713749" lon="-105.229789">
  <ele>1583.0</ele>
  <time>2026-08-28T17:52:02Z</time>
  <course>248.29</course>
  <speed>0.01</speed>
  <fix>3d</fix>
</trkpt>
<trkpt lat="40.0713749" lon="-105.229789">
  <ele>1583.0</ele>
  <time>2026-08-28T17:52:02Z</time>
  <course>0.0</course>
  <speed>0.0</speed>
  <fix>3d</fix>
</trkpt>
<trkpt lat="40.0713749" lon="-105.229789">
  <ele>1583.0</ele>
  <time>2026-08-28T17:52:02Z</time>
  <course>248.28</course>
  <speed>0.01</speed>
  <fix>3d</fix>
</trkpt>
<trkpt lat="40.0713749" lon="-105.229789">
  <ele>1583.0</ele>
  <time>2026-08-28T17:52:02Z</time>
  <course>0.0</course>
  <speed>0.0</speed>
  <fix>3d</fix>
</trkpt>
<trkpt lat="40.0713749" lon="-105.229789">
  <ele>1583.0</ele>
  <time>2026-08-28T17:52:02Z</time>
  <course>248.28</course>
  <speed>0.01</speed>
  <fix>3d</fix>
</trkpt>
<trkpt lat="40.0713749" lon="-105.229789">
  <ele>1583.0</ele>
  <time>2026-08-28T17:52:02Z</time>
  <course>0.0</course>
  <speed>0.0</speed>
  <fix>3d</fix>
</trkpt>
<trkpt lat="40.0713749" lon="-105.229789">
  <ele>1583.0</ele>
  <time>2026-08-28T17:52:02Z</time>
  <course>248.27</course>
  <speed>0.01</speed>
  <fix>3d</fix>
</trkpt>
<trkpt lat="40.0713749" lon="-105.229789">
  <ele>1583.0</ele>
  <time>2026-08-28T17:52:02Z</time>
  <course>0.0</course>
  <speed>0.0</speed>
  <fix>3d</fix>
</trkpt>
<trkpt lat="40.0713749" lon="-105.229789">
  <ele>1583.0</ele>
  <time>2026-08-28T17:52:02Z</time>
  <course>248.27</course>
  <speed>0.01</speed>
  <fix>3d</fix>
</trkpt>
<trkpt lat="40.0713749" lon="-105.229789">
  <ele>1583.0</ele>
  <time>2026-08-28T17:52:02Z</time>
  <course>0.0</course>
  <speed>0.0</speed>
  <fix>3d</fix>
</trkpt>
<trkpt lat="40.0713749" lon="-105.229789">
  <ele>1583.0</ele>
  <time>2026-08-28T17:52:02Z</time>
  <course>248.26</course>
  <speed>0.01</speed>
  <fix>3d</fix>
</trkpt>
<trkpt lat="40.0713749" lon="-105.229789">
  <ele>1583.0</ele>
  <time>2026-08-28T17:52:02Z</time>
  <course>0.0</course>
  <speed>0.0</speed>
  <fix>3d</fix>
</trkpt>
<trkpt lat="40.0713749" lon="-105.229789">
  <ele>1583.0</ele>
  <time>2026-08-28T17:52:02Z</time>
  <course>248.26</course>
  <speed>0.01</speed>
  <fix>3d</fix>
</trkpt>
<trkpt lat="40.0713749" lon="-105.229789">
  <ele>1583.0</ele>
  <time>2026-08-28T17:52:02Z</time>
  <course>0.0</course>
  <speed>0.0</speed>
  <fix>3d</fix>
</trkpt>
<trkpt lat="40.0713749" lon="-105.229789">
  <ele>1583.0</ele>
  <time>2026-08-28T17:52:02Z</time>
  <course>248.26</course>
  <speed>0.01</speed>
  <fix>3d</fix>
</trkpt>
<trkpt lat="40.0713749" lon="-105.229789">
  <ele>1583.0</ele>
  <time>2026-08-28T17:52:02Z</time>
  <course>0.0</course>
  <speed>0.0</speed>
  <fix>3d</fix>
</trkpt>
<trkpt lat="40.0713749" lon="-105.229789">
  <ele>1583.0</ele>
  <time>2026-08-28T17:52:02Z</time>
  <course>248.25</course>
  <speed>0.01</speed>
  <fix>3d</fix>
</trkpt>
<trkpt lat="40.0713749" lon="-105.229789">
  <ele>1583.0</ele>
  <time>2026-08-28T17:52:02Z</time>
  <course>0.0</course>
  <speed>0.0</speed>
  <fix>3d</fix>
</trkpt>
<trkpt lat="40.0713749" lon="-105.229789">
  <ele>1583.0</ele>
  <time>2026-08-28T17:52:02Z</time>
  <course>248.25</course>
  <speed>0.01</speed>
  <fix>3d</fix>
</trkpt>
<trkpt lat="40.0713749" lon="-105.229789">
  <ele>1583.0</ele>
  <time>2026-08-28T17:52:02Z</time>
  <course>0.0</course>
  <speed>0.0</speed>
  <fix>3d</fix>
</trkpt>
<trkpt lat="40.0713749" lon="-105.229789">
  <ele>1583.0</ele>
  <time>2026-08-28T17:52:02Z</time>
  <course>248.24</course>
  <speed>0.01</speed>
  <fix>3d</fix>
</trkpt>
<trkpt lat="40.0713749" lon="-105.229789">
  <ele>1583.0</ele>
  <time>2026-08-28T17:52:02Z</time>
  <course>0.0</course>
  <speed>0.0</speed>
  <fix>3d</fix>
</trkpt>
<trkpt lat="40.0713749" lon="-105.229789">
  <ele>1583.0</ele>
  <time>2026-08-28T17:52:02Z</time>
  <course>248.24</course>
  <speed>0.01</speed>
  <fix>3d</fix>
</trkpt>
<trkpt lat="40.0713749" lon="-105.229789">
  <ele>1583.0</ele>
  <time>2026-08-28T17:52:02Z</time>
  <course>0.0</course>
  <speed>0.0</speed>
  <fix>3d</fix>
</trkpt>
<trkpt lat="40.0713749" lon="-105.229789">
  <ele>1583.0</ele>
  <time>2026-08-28T17:52:02Z</time>
  <course>248.23</course>
  <speed>0.01</speed>
  <fix>3d</fix>
</trkpt>
<trkpt lat="40.0713749" lon="-105.229789">
  <ele>1583.0</ele>
  <time>2026-08-28T17:52:02Z</time>
  <course>0.0</course>
  <speed>0.0</speed>
  <fix>3d</fix>
</trkpt>
<trkpt lat="40.0713749" lon="-105.229789">
  <ele>1583.0</ele>
  <time>2026-08-28T17:52:02Z</time>
  <course>248.23</course>
  <speed>0.01</speed>
  <fix>3d</fix>
</trkpt>
<trkpt lat="40.0713749" lon="-105.229789">
  <ele>1583.0</ele>
  <time>2026-08-28T17:52:02Z</time>
  <course>0.0</course>
  <speed>0.0</speed>
  <fix>3d</fix>
</trkpt>
<trkpt lat="40.0713749" lon="-105.229789">
  <ele>1583.0</ele>
  <time>2026-08-28T17:52:02Z</time>
  <course>248.22</course>
  <speed>0.01</speed>
  <fix>3d</fix>
</trkpt>
<trkpt lat="40.0713749" lon="-105.229789">
  <ele>1583.0</ele>
  <time>2026-08-28T17:52:02Z</time>
  <course>0.0</course>
  <speed>0.0</speed>
  <fix>3d</fix>
</trkpt>
<trkpt lat="40.0713749" lon="-105.229789">
  <ele>1583.0</ele>
  <time>2026-08-28T17:52:02Z</time>
  <course>248.22</course>
  <speed>0.01</speed>
  <fix>3d</fix>
</trkpt>
<trkpt lat="40.0713749" lon="-105.229789">
  <ele>1583.0</ele>
  <time>2026-08-28T17:52:02Z</time>
  <course>0.0</course>
  <speed>0.0</speed>
  <fix>3d</fix>
</trkpt>
<trkpt lat="40.0713749" lon="-105.229789">
  <ele>1583.0</ele>
  <time>2026-08-28T17:52:02Z</time>
  <course>248.21</course>
  <speed>0.01</speed>
  <fix>3d</fix>
</trkpt>
<trkpt lat="40.0713749" lon="-105.229789">
  <ele>1583.0</ele>
  <time>2026-08-28T17:52:02Z</time>
  <course>0.0</course>
  <speed>0.0</speed>
  <fix>3d</fix>
</trkpt>
<trkpt lat="40.0713749" lon="-105.229789">
  <ele>1583.0</ele>
  <time>2026-08-28T17:52:02Z</time>
  <course>248.21</course>
  <speed>0.01</speed>
  <fix>3d</fix>
</trkpt>
<trkpt lat="40.0713749" lon="-105.229789">
  <ele>1583.0</ele>
  <time>2026-08-28T17:52:02Z</time>
  <course>0.0</course>
  <speed>0.0</speed>
  <fix>3d</fix>
</trkpt>
<trkpt lat="40.0713749" lon="-105.229789">
  <ele>1583.0</ele>
  <time>2026-08-28T17:52:02Z</time>
  <course>248.2</course>
  <speed>0.01</speed>
  <fix>3d</fix>
</trkpt>
<trkpt lat="40.0713749" lon="-105.229789">
  <ele>1583.0</ele>
  <time>2026-08-28T17:52:02Z</time>
  <course>0.0</course>
  <speed>0.0</speed>
  <fix>3d</fix>
</trkpt>
<trkpt lat="40.0713749" lon="-105.229789">
  <ele>1583.0</ele>
  <time>2026-08-28T17:52:02Z</time>
  <course>248.2</course>
  <speed>0.01</speed>
  <fix>3d</fix>
</trkpt>
<trkpt lat="40.0713749" lon="-105.229789">
  <ele>1583.0</ele>
  <time>2026-08-28T17:52:02Z</time>
  <course>0.0</course>
  <speed>0.0</speed>
  <fix>3d</fix>
</trkpt>
<trkpt lat="40.0713749" lon="-105.229789">
  <ele>1583.0</ele>
  <time>2026-08-28T17:52:02Z</time>
  <course>248.19</course>
  <speed>0.01</speed>
  <fix>3d</fix>
</trkpt>
<trkpt lat="40.0713749" lon="-105.229789">
  <ele>1583.0</ele>
  <time>2026-08-28T17:52:02Z</time>
  <course>0.0</course>
  <speed>0.0</speed>
  <fix>3d</fix>
</trkpt>
<trkpt lat="40.0713749" lon="-105.229789">
  <ele>1583.0</ele>
  <time>2026-08-28T17:52:02Z</time>
  <course>248.19</course>
  <speed>0.01</speed>
  <fix>3d</fix>
</trkpt>
<trkpt lat="40.0713749" lon="-105.229789">
  <ele>1583.0</ele>
  <time>2026-08-28T17:52:02Z</time>
  <course>0.0</course>
  <speed>0.0</speed>
  <fix>3d</fix>
</trkpt>
<trkpt lat="40.0713749" lon="-105.229789">
  <ele>1583.0</ele>
  <time>2026-08-28T17:52:02Z</time>
  <course>248.18</course>
  <speed>0.01</speed>
  <fix>3d</fix>
</trkpt>
<trkpt lat="40.0713749" lon="-105.229789">
  <ele>1583.0</ele>
  <time>2026-08-28T17:52:02Z</time>
  <course>0.0</course>
  <speed>0.0</speed>
  <fix>3d</fix>
</trkpt>
<trkpt lat="40.0713749" lon="-105.229789">
  <ele>1583.0</ele>
  <time>2026-08-28T17:52:02Z</time>
  <course>248.18</course>
  <speed>0.01</speed>
  <fix>3d</fix>
</trkpt>
<trkpt lat="40.0713749" lon="-105.229789">
  <ele>1583.0</ele>
  <time>2026-08-28T17:52:02Z</time>
  <course>0.0</course>
  <speed>0.0</speed>
  <fix>3d</fix>
</trkpt>
<trkpt lat="40.0713749" lon="-105.229789">
  <ele>1583.0</ele>
  <time>2026-08-28T17:52:02Z</time>
  <course>248.17</course>
  <speed>0.022360679774997897</speed>
  <fix>3d</fix>
</trkpt>
<trkpt lat="40.0713749" lon="-105.229789">
  <ele>1583.0</ele>
  <time>2026-08-28T17:52:02Z</time>
  <course>0.0</course>
  <speed>0.0</speed>
  <fix>3d</fix>
</trkpt>
<trkpt lat="40.0713749" lon="-105.229789">
  <ele>1583.0</ele>
  <time>2026-08-28T17:52:02Z</time>
  <course>248.17</course>
  <speed>0.022360679774997897</speed>
  <fix>3d</fix>
</trkpt>
<trkpt lat="40.0713749" lon="-105.229789">
  <ele>1583.0</ele>
  <time>2026-08-28T17:52:02Z</time>
  <course>0.0</course>
  <speed>0.0</speed>
  <fix>3d</fix>
</trkpt>
<trkpt lat="40.0713749" lon="-105.229789">
  <ele>1583.0</ele>
  <time>2026-08-28T17:52:02Z</time>
  <course>248.16</course>
  <speed>0.022360679774997897</speed>
  <fix>3d</fix>
</trkpt>
<trkpt lat="40.0713749" lon="-105.229789">
  <ele>1583.0</ele>
  <time>2026-08-28T17:52:02Z</time>
  <course>0.0</course>
  <speed>0.0</speed>
  <fix>3d</fix>
</trkpt>
<trkpt lat="40.0713749" lon="-105.229789">
  <ele>1583.0</ele>
  <time>2026-08-28T17:52:02Z</time>
  <course>248.16</course>
  <speed>0.022360679774997897</speed>
  <fix>3d</fix>
</trkpt>
<trkpt lat="40.0713749" lon="-105.229789">
  <ele>1583.0</ele>
  <time>2026-08-28T17:52:02Z</time>
  <course>0.0</course>
  <speed>0.0</speed>
  <fix>3d</fix>
</trkpt>
<trkpt lat="40.0713749" lon="-105.229789">
  <ele>1583.0</ele>
  <time>2026-08-28T17:52:02Z</time>
  <course>248.15</course>
  <speed>0.022360679774997897</speed>
  <fix>3d</fix>
</trkpt>
<trkpt lat="40.0713749" lon="-105.229789">
  <ele>1583.0</ele>
  <time>2026-08-28T17:52:02Z</time>
  <course>0.0</course>
  <speed>0.0</speed>
  <fix>3d</fix>
</trkpt>
<trkpt lat="40.0713749" lon="-105.229789">
  <ele>1583.0</ele>
  <time>2026-08-28T17:52:02Z</time>
  <course>248.15</course>
  <speed>0.022360679774997897</speed>
  <fix>3d</fix>
</trkpt>
<trkpt lat="40.0713749" lon="-105.229789">
  <ele>1583.0</ele>
  <time>2026-08-28T17:52:02Z</time>
  <course>0.0</course>
  <speed>0.0</speed>
  <fix>3d</fix>
</trkpt>
<trkpt lat="40.0713749" lon="-105.229789">
  <ele>1583.0</ele>
  <time>2026-08-28T17:52:02Z</time>
  <course>248.14</course>
  <speed>0.022360679774997897</speed>
  <fix>3d</fix>
</trkpt>
<trkpt lat="40.0713749" lon="-105.229789">
  <ele>1583.0</ele>
  <time>2026-08-28T17:52:02Z</time>
  <course>0.0</course>
  <speed>0.0</speed>
  <fix>3d</fix>
</trkpt>
<trkpt lat="40.0713749" lon="-105.229789">
  <ele>1583.0</ele>
  <time>2026-08-28T17:52:02Z</time>
  <course>248.14</course>
  <speed>0.022360679774997897</speed>
  <fix>3d</fix>
</trkpt>
<trkpt lat="40.0713749" lon="-105.229789">
  <ele>1583.0</ele>
  <time>2026-08-28T17:52:02Z</time>
  <course>0.0</course>
  <speed>0.0</speed>
  <fix>3d</fix>
</trkpt>
<trkpt lat="40.0713749" lon="-105.229789">
  <ele>1583.0</ele>
  <time>2026-08-28T17:52:02Z</time>
  <course>248.13</course>
  <speed>0.022360679774997897</speed>
  <fix>3d</fix>
</trkpt>
<trkpt lat="40.0713749" lon="-105.229789">
  <ele>1583.0</ele>
  <time>2026-08-28T17:52:02Z</time>
  <course>0.0</course>
  <speed>0.0</speed>
  <fix>3d</fix>
</trkpt>
<trkpt lat="40.0713749" lon="-105.229789">
  <ele>1583.0</ele>
  <time>2026-08-28T17:52:02Z</time>
  <course>248.13</course>
  <speed>0.022360679774997897</speed>
  <fix>3d</fix>
</trkpt>
<trkpt lat="40.0713749" lon="-105.229789">
  <ele>1583.0</ele>
  <time>2026-08-28T17:52:02Z</time>
  <course>0.0</course>
  <speed>0.0</speed>
  <fix>3d</fix>
</trkpt>
<trkpt lat="40.0713749" lon="-105.229789">
  <ele>1583.0</ele>
  <time>2026-08-28T17:52:02Z</time>
  <course>248.12</course>
  <speed>0.022360679774997897</speed>
  <fix>3d</fix>
</trkpt>
<trkpt lat="40.0713749" lon="-105.229789">
  <ele>1583.0</ele>
  <time>2026-08-28T17:52:02Z</time>
  <course>0.0</course>
  <speed>0.0</speed>
  <fix>3d</fix>
</trkpt>
<trkpt lat="40.0713749" lon="-105.229789">
  <ele>1583.0</ele>
  <time>2026-08-28T17:52:02Z</time>
  <course>248.12</course>
  <speed>0.022360679774997897</speed>
  <fix>3d</fix>
</trkpt>
<trkpt lat="40.0713749" lon="-105.229789">
  <ele>1583.0</ele>
  <time>2026-08-28T17:52:02Z</time>
  <course>0.0</course>
  <speed>0.0</speed>
  <fix>3d</fix>
</trkpt>
<trkpt lat="40.0713749" lon="-105.229789">
  <ele>1583.0</ele>
  <time>2026-08-28T17:52:02Z</time>
  <course>248.11</course>
  <speed>0.022360679774997897</speed>
  <fix>3d</fix>
</trkpt>
<trkpt lat="40.0713749" lon="-105.229789">
  <ele>1583.0</ele>
  <time>2026-08-28T17:52:02Z</time>
  <course>0.0</course>
  <speed>0.0</speed>
  <fix>3d</fix>
</trkpt>
<trkpt lat="40.0713749" lon="-105.229789">
  <ele>1583.0</ele>
  <time>2026-08-28T17:52:02Z</time>
  <course>248.11</course>
  <speed>0.022360679774997897</speed>
  <fix>3d</fix>
</trkpt>
<trkpt lat="40.0713749" lon="-105.229789">
  <ele>1583.0</ele>
  <time>2026-08-28T17:52:02Z</time>
  <course>0.0</course>
  <speed>0.0</speed>
  <fix>3d</fix>
</trkpt>
<trkpt lat="40.0713749" lon="-105.229789">
  <ele>1583.0</ele>
  <time>2026-08-28T17:52:02Z</time>
  <course>248.1</course>
  <speed>0.022360679774997897</speed>
  <fix>3d</fix>
</trkpt>
<trkpt lat="40.0713749" lon="-105.229789">
  <ele>1583.0</ele>
  <time>2026-08-28T17:52:02Z</time>
  <course>0.0</course>
  <speed>0.0</speed>
  <fix>3d</fix>
</trkpt>
<trkpt lat="40.0713749" lon="-105.229789">
  <ele>1583.0</ele>
  <time>2026-08-28T17:52:02Z</time>
  <course>248.1</course>
  <speed>0.022360679774997897</speed>
  <fix>3d</fix>
</trkpt>
<trkpt lat="40.0713749" lon="-105.229789">
  <ele>1583.0</ele>
  <time>2026-08-28T17:52:02Z</time>
  <course>0.0</course>
  <speed>0.0</speed>
  <fix>3d</fix>
</trkpt>
<trkpt lat="40.0713749" lon="-105.229789">
  <ele>1583.0</ele>
  <time>2026-08-28T17:52:02Z</time>
  <course>248.09</course>
  <speed>0.022360679774997897</speed>
  <fix>3d</fix>
</trkpt>
<trkpt lat="40.0713749" lon="-105.229789">
  <ele>1583.0</ele>
  <time>2026-08-28T17:52:02Z</time>
  <course>0.0</course>
  <speed>0.0</speed>
  <fix>3d</fix>
</trkpt>
<trkpt lat="40.0713749" lon="-105.229789">
  <ele>1583.0</ele>
  <time>2026-08-28T17:52:02Z</time>
  <course>248.09</course>
  <speed>0.022360679774997897</speed>
  <fix>3d</fix>
</trkpt>
<trkpt lat="40.0713749" lon="-105.229789">
  <ele>1583.0</ele>
  <time>2026-08-28T17:52:02Z</time>
  <course>0.0</course>
  <speed>0.0</speed>
  <fix>3d</fix>
</trkpt>
<trkpt lat="40.0713749" lon="-105.229789">
  <ele>1583.0</ele>
  <time>2026-08-28T17:52:02Z</time>
  <course>248.08</course>
  <speed>0.022360679774997897</speed>
  <fix>3d</fix>
</trkpt>
<trkpt lat="40.0713749" lon="-105.229789">
  <ele>1583.0</ele>
  <time>2026-08-28T17:52:02Z</time>
  <course>0.0</course>
  <speed>0.0</speed>
  <fix>3d</fix>
</trkpt>
<trkpt lat="40.0713749" lon="-105.229789">
  <ele>1583.0</ele>
  <time>2026-08-28T17:52:02Z</time>
  <course>248.08</course>
  <speed>0.022360679774997897</speed>
  <fix>3d</fix>
</trkpt>
<trkpt lat="40.0713749" lon="-105.229789">
  <ele>1583.0</ele>
  <time>2026-08-28T17:52:02Z</time>
  <course>0.0</course>
  <speed>0.0</speed>
  <fix>3d</fix>
</trkpt>
<trkpt lat="40.0713749" lon="-105.229789">
  <ele>1583.0</ele>
  <time>2026-08-28T17:52:02Z</time>
  <course>248.07</course>
  <speed>0.022360679774997897</speed>
  <fix>3d</fix>
</trkpt>
<trkpt lat="40.0713749" lon="-105.229789">
  <ele>1583.0</ele>
  <time>2026-08-28T17:52:02Z</time>
  <course>0.0</course>
  <speed>0.0</speed>
  <fix>3d</fix>
</trkpt>
<trkpt lat="40.0713749" lon="-105.229789">
  <ele>1583.0</ele>
  <time>2026-08-28T17:52:02Z</time>
  <course>248.07</course>
  <speed>0.022360679774997897</speed>
  <fix>3d</fix>
</trkpt>
<trkpt lat="40.0713749" lon="-105.229789">
  <ele>1583.0</ele>
  <time>2026-08-28T17:52:02Z</time>
  <course>0.0</course>
  <speed>0.0</speed>
  <fix>3d</fix>
</trkpt>
<trkpt lat="40.0713749" lon="-105.229789">
  <ele>1583.0</ele>
  <time>2026-08-28T17:52:02Z</time>
  <course>248.06</course>
  <speed>0.022360679774997897</speed>
  <fix>3d</fix>
</trkpt>
<trkpt lat="40.0713749" lon="-105.229789">
  <ele>1583.0</ele>
  <time>2026-08-28T17:52:02Z</time>
  <course>0.0</course>
  <speed>0.0</speed>
  <fix>3d</fix>
</trkpt>
<trkpt lat="40.0713749" lon="-105.229789">
  <ele>1583.0</ele>
  <time>2026-08-28T17:52:02Z</time>
  <course>248.06</course>
  <speed>0.022360679774997897</speed>
  <fix>3d</fix>
</trkpt>
<trkpt lat="40.0713749" lon="-105.229789">
  <ele>1583.0</ele>
  <time>2026-08-28T17:52:02Z</time>
  <course>0.0</course>
  <speed>0.0</speed>
  <fix>3d</fix>
</trkpt>
<trkpt lat="40.0713749" lon="-105.229789">
  <ele>1583.0</ele>
  <time>2026-08-28T17:52:02Z</time>
  <course>248.05</course>
  <speed>0.022360679774997897</speed>
  <fix>3d</fix>
</trkpt>
<trkpt lat="40.0713749" lon="-105.229789">
  <ele>1583.0</ele>
  <time>2026-08-28T17:52:02Z</time>
  <course>0.0</course>
  <speed>0.0</speed>
  <fix>3d</fix>
</trkpt>
<trkpt lat="40.0713749" lon="-105.229789">
  <ele>1583.0</ele>
  <time>2026-08-28T17:52:02Z</time>
  <course>248.05</course>
  <speed>0.022360679774997897</speed>
  <fix>3d</fix>
</trkpt>
<trkpt lat="40.0713749" lon="-105.229789">
  <ele>1583.0</ele>
  <time>2026-08-28T17:52:02Z</time>
  <course>0.0</course>
  <speed>0.0</speed>
  <fix>3d</fix>
</trkpt>
<trkpt lat="40.0713749" lon="-105.229789">
  <ele>1583.0</ele>
  <time>2026-08-28T17:52:02Z</time>
  <course>248.05</course>
  <speed>0.022360679774997897</speed>
  <fix>3d</fix>
</trkpt>
<trkpt lat="40.0713749" lon="-105.229789">
  <ele>1583.0</ele>
  <time>2026-08-28T17:52:02Z</time>
  <course>0.0</course>
  <speed>0.0</speed>
  <fix>3d</fix>
</trkpt>
<trkpt lat="40.0713749" lon="-105.229789">
  <ele>1583.0</ele>
  <time>2026-08-28T17:52:02Z</time>
  <course>248.04</course>
  <speed>0.022360679774997897</speed>
  <fix>3d</fix>
</trkpt>
<trkpt lat="40.0713749" lon="-105.229789">
  <ele>1583.0</ele>
  <time>2026-08-28T17:52:02Z</time>
  <course>0.0</course>
  <speed>0.0</speed>
  <fix>3d</fix>
</trkpt>
<trkpt lat="40.0713749" lon="-105.229789">
  <ele>1583.0</ele>
  <time>2026-08-28T17:52:02Z</time>
  <course>248.04</course>
  <speed>0.022360679774997897</speed>
  <fix>3d</fix>
</trkpt>
<trkpt lat="40.0713749" lon="-105.229789">
  <ele>1583.0</ele>
  <time>2026-08-28T17:52:02Z</time>
  <course>0.0</course>
  <speed>0.0</speed>
  <fix>3d</fix>
</trkpt>
<trkpt lat="40.0713749" lon="-105.229789">
  <ele>1583.0</ele>
  <time>2026-08-28T17:52:02Z</time>
  <course>248.03</course>
  <speed>0.022360679774997897</speed>
  <fix>3d</fix>
</trkpt>
<trkpt lat="40.0713749" lon="-105.229789">
  <ele>1583.0</ele>
  <time>2026-08-28T17:52:02Z</time>
  <course>0.0</course>
  <speed>0.0</speed>
  <fix>3d</fix>
</trkpt>
<trkpt lat="40.0713749" lon="-105.229789">
  <ele>1583.0</ele>
  <time>2026-08-28T17:52:02Z</time>
  <course>248.03</course>
  <speed>0.022360679774997897</speed>
  <fix>3d</fix>
</trkpt>
<trkpt lat="40.0713749" lon="-105.229789">
  <ele>1583.0</ele>
  <time>2026-08-28T17:52:02Z</time>
  <course>0.0</course>
  <speed>0.0</speed>
  <fix>3d</fix>
</trkpt>
<trkpt lat="40.0713749" lon="-105.229789">
  <ele>1583.0</ele>
  <time>2026-08-28T17:52:02Z</time>
  <course>248.02</course>
  <speed>0.022360679774997897</speed>
  <fix>3d</fix>
</trkpt>
<trkpt lat="40.0713749" lon="-105.229789">
  <ele>1583.0</ele>
  <time>2026-08-28T17:52:02Z</time>
  <course>0.0</course>
  <speed>0.0</speed>
  <fix>3d</fix>
</trkpt>
<trkpt lat="40.0713749" lon="-105.229789">
  <ele>1583.0</ele>
  <time>2026-08-28T17:52:02Z</time>
  <course>248.02</course>
  <speed>0.022360679774997897</speed>
  <fix>3d</fix>
</trkpt>
<trkpt lat="40.0713749" lon="-105.229789">
  <ele>1583.0</ele>
  <time>2026-08-28T17:52:02Z</time>
  <course>0.0</course>
  <speed>0.0</speed>
  <fix>3d</fix>
</trkpt>
<trkpt lat="40.0713749" lon="-105.229789">
  <ele>1583.0</ele>
  <time>2026-08-28T17:52:02Z</time>
  <course>248.01</course>
  <speed>0.022360679774997897</speed>
  <fix>3d</fix>
</trkpt>
<trkpt lat="40.0713749" lon="-105.229789">
  <ele>1583.0</ele>
  <time>2026-08-28T17:52:02Z</time>
  <course>0.0</course>
  <speed>0.0</speed>
  <fix>3d</fix>
</trkpt>
<trkpt lat="40.0713749" lon="-105.229789">
  <ele>1583.0</ele>
  <time>2026-08-28T17:52:02Z</time>
  <course>248.01</course>
  <speed>0.022360679774997897</speed>
  <fix>3d</fix>
</trkpt>
<trkpt lat="40.0713749" lon="-105.229789">
  <ele>1583.0</ele>
  <time>2026-08-28T17:52:02Z</time>
  <course>0.0</course>
  <speed>0.0</speed>
  <fix>3d</fix>
</trkpt>
<trkpt lat="40.0713749" lon="-105.229789">
  <ele>1583.0</ele>
  <time>2026-08-28T17:52:02Z</time>
  <course>248.0</course>
  <speed>0.022360679774997897</speed>
  <fix>3d</fix>
</trkpt>
<trkpt lat="40.0713749" lon="-105.229789">
  <ele>1583.0</ele>
  <time>2026-08-28T17:52:02Z</time>
  <course>0.0</course>
  <speed>0.0</speed>
  <fix>3d</fix>
</trkpt>
<trkpt lat="40.0713749" lon="-105.229789">
  <ele>1583.0</ele>
  <time>2026-08-28T17:52:02Z</time>
  <course>248.0</course>
  <speed>0.022360679774997897</speed>
  <fix>3d</fix>
</trkpt>
<trkpt lat="40.0713749" lon="-105.229789">
  <ele>1583.0</ele>
  <time>2026-08-28T17:52:02Z</time>
  <course>0.0</course>
  <speed>0.0</speed>
  <fix>3d</fix>
</trkpt>
<trkpt lat="40.0713749" lon="-105.229789">
  <ele>1583.0</ele>
  <time>2026-08-28T17:52:02Z</time>
  <course>247.99</course>
  <speed>0.022360679774997897</speed>
  <fix>3d</fix>
</trkpt>
<trkpt lat="40.0713749" lon="-105.229789">
  <ele>1583.0</ele>
  <time>2026-08-28T17:52:02Z</time>
  <course>0.0</course>
  <speed>0.0</speed>
  <fix>3d</fix>
</trkpt>
<trkpt lat="40.0713749" lon="-105.229789">
  <ele>1583.0</ele>
  <time>2026-08-28T17:52:02Z</time>
  <course>247.99</course>
  <speed>0.022360679774997897</speed>
  <fix>3d</fix>
</trkpt>
<trkpt lat="40.0713749" lon="-105.229789">
  <ele>1583.0</ele>
  <time>2026-08-28T17:52:02Z</time>
  <course>0.0</course>
  <speed>0.0</speed>
  <fix>3d</fix>
</trkpt>
<trkpt lat="40.0713749" lon="-105.229789">
  <ele>1583.0</ele>
  <time>2026-08-28T17:52:02Z</time>
  <course>247.99</course>
  <speed>0.022360679774997897</speed>
  <fix>3d</fix>
</trkpt>
<trkpt lat="40.0713749" lon="-105.229789">
  <ele>1583.0</ele>
  <time>2026-08-28T17:52:02Z</time>
  <course>0.0</course>
  <speed>0.0</speed>
  <fix>3d</fix>
</trkpt>
<trkpt lat="40.0713749" lon="-105.229789">
  <ele>1583.0</ele>
  <time>2026-08-28T17:52:02Z</time>
  <course>247.98</course>
  <speed>0.022360679774997897</speed>
  <fix>3d</fix>
</trkpt>
<trkpt lat="40.0713749" lon="-105.229789">
  <ele>1583.0</ele>
  <time>2026-08-28T17:52:02Z</time>
  <course>0.0</course>
  <speed>0.0</speed>
  <fix>3d</fix>
</trkpt>
<trkpt lat="40.0713749" lon="-105.229789">
  <ele>1583.0</ele>
  <time>2026-08-28T17:52:02Z</time>
  <course>247.98</course>
  <speed>0.022360679774997897</speed>
  <fix>3d</fix>
</trkpt>
<trkpt lat="40.0713749" lon="-105.229789">
  <ele>1583.0</ele>
  <time>2026-08-28T17:52:02Z</time>
  <course>0.0</course>
  <speed>0.0</speed>
  <fix>3d</fix>
</trkpt>
<trkpt lat="40.0713749" lon="-105.229789">
  <ele>1583.0</ele>
  <time>2026-08-28T17:52:02Z</time>
  <course>247.97</course>
  <speed>0.022360679774997897</speed>
  <fix>3d</fix>
</trkpt>
<trkpt lat="40.0713749" lon="-105.229789">
  <ele>1583.0</ele>
  <time>2026-08-28T17:52:02Z</time>
  <course>0.0</course>
  <speed>0.0</speed>
  <fix>3d</fix>
</trkpt>
<trkpt lat="40.0713749" lon="-105.229789">
  <ele>1583.0</ele>
  <time>2026-08-28T17:52:02Z</time>
  <course>247.97</course>
  <speed>0.022360679774997897</speed>
  <fix>3d</fix>
</trkpt>
<trkpt lat="40.0713749" lon="-105.229789">
  <ele>1583.0</ele>
  <time>2026-08-28T17:52:02Z</time>
  <course>0.0</course>
  <speed>0.0</speed>
  <fix>3d</fix>
</trkpt>
<trkpt lat="40.0713749" lon="-105.229789">
  <ele>1583.0</ele>
  <time>2026-08-28T17:52:02Z</time>
  <course>247.96</course>
  <speed>0.022360679774997897</speed>
  <fix>3d</fix>
</trkpt>
<trkpt lat="40.0713749" lon="-105.229789">
  <ele>1583.0</ele>
  <time>2026-08-28T17:52:02Z</time>
  <course>0.0</course>
  <speed>0.0</speed>
  <fix>3d</fix>
</trkpt>
<trkpt lat="40.0713749" lon="-105.229789">
  <ele>1583.0</ele>
  <time>2026-08-28T17:52:02Z</time>
  <course>247.96</course>
  <speed>0.022360679774997897</speed>
  <fix>3d</fix>
</trkpt>
<trkpt lat="40.0713749" lon="-105.229789">
  <ele>1583.0</ele>
  <time>2026-08-28T17:52:02Z</time>
  <course>0.0</course>
  <speed>0.0</speed>
  <fix>3d</fix>
</trkpt>
<trkpt lat="40.0713749" lon="-105.229789">
  <ele>1583.0</ele>
  <time>2026-08-28T17:52:02Z</time>
  <course>247.95</course>
  <speed>0.022360679774997897</speed>
  <fix>3d</fix>
</trkpt>
<trkpt lat="40.0713749" lon="-105.229789">
  <ele>1583.0</ele>
  <time>2026-08-28T17:52:02Z</time>
  <course>0.0</course>
  <speed>0.0</speed>
  <fix>3d</fix>
</trkpt>
<trkpt lat="40.0713749" lon="-105.229789">
  <ele>1583.0</ele>
  <time>2026-08-28T17:52:02Z</time>
  <course>247.95</course>
  <speed>0.022360679774997897</speed>
  <fix>3d</fix>
</trkpt>
<trkpt lat="40.0713749" lon="-105.229789">
  <ele>1583.0</ele>
  <time>2026-08-28T17:52:02Z</time>
  <course>0.0</course>
  <speed>0.0</speed>
  <fix>3d</fix>
</trkpt>
<trkpt lat="40.0713749" lon="-105.229789">
  <ele>1583.0</ele>
  <time>2026-08-28T17:52:02Z</time>
  <course>247.95</course>
  <speed>0.022360679774997897</speed>
  <fix>3d</fix>
</trkpt>
<trkpt lat="40.0713749" lon="-105.229789">
  <ele>1583.0</ele>
  <time>2026-08-28T17:52:02Z</time>
  <course>0.0</course>
  <speed>0.0</speed>
  <fix>3d</fix>
</trkpt>
<trkpt lat="40.0713749" lon="-105.229789">
  <ele>1583.0</ele>
  <time>2026-08-28T17:52:02Z</time>
  <course>247.94</course>
  <speed>0.022360679774997897</speed>
  <fix>3d</fix>
</trkpt>
<trkpt lat="40.0713749" lon="-105.229789">
  <ele>1583.0</ele>
  <time>2026-08-28T17:52:02Z</time>
  <course>0.0</course>
  <speed>0.0</speed>
  <fix>3d</fix>
</trkpt>
<trkpt lat="40.0713749" lon="-105.229789">
  <ele>1583.0</ele>
  <time>2026-08-28T17:52:02Z</time>
  <course>247.94</course>
  <speed>0.022360679774997897</speed>
  <fix>3d</fix>
</trkpt>
<trkpt lat="40.0713749" lon="-105.229789">
  <ele>1583.0</ele>
  <time>2026-08-28T17:52:02Z</time>
  <course>0.0</course>
  <speed>0.0</speed>
  <fix>3d</fix>
</trkpt>
<trkpt lat="40.0713749" lon="-105.229789">
  <ele>1583.0</ele>
  <time>2026-08-28T17:52:02Z</time>
  <course>247.93</course>
  <speed>0.022360679774997897</speed>
  <fix>3d</fix>
</trkpt>
<trkpt lat="40.0713749" lon="-105.229789">
  <ele>1583.0</ele>
  <time>2026-08-28T17:52:02Z</time>
  <course>0.0</course>
  <speed>0.0</speed>
  <fix>3d</fix>
</trkpt>
<trkpt lat="40.0713749" lon="-105.229789">
  <ele>1583.0</ele>
  <time>2026-08-28T17:52:02Z</time>
  <course>247.93</course>
  <speed>0.022360679774997897</speed>
  <fix>3d</fix>
</trkpt>
<trkpt lat="40.0713749" lon="-105.229789">
  <ele>1583.0</ele>
  <time>2026-08-28T17:52:02Z</time>
  <course>0.0</course>
  <speed>0.0</speed>
  <fix>3d</fix>
</trkpt>
<trkpt lat="40.0713749" lon="-105.229789">
  <ele>1583.0</ele>
  <time>2026-08-28T17:52:02Z</time>
  <course>247.92</course>
  <speed>0.022360679774997897</speed>
  <fix>3d</fix>
</trkpt>
<trkpt lat="40.0713749" lon="-105.229789">
  <ele>1583.0</ele>
  <time>2026-08-28T17:52:02Z</time>
  <course>0.0</course>
  <speed>0.0</speed>
  <fix>3d</fix>
</trkpt>
<trkpt lat="40.0713749" lon="-105.229789">
  <ele>1583.0</ele>
  <time>2026-08-28T17:52:02Z</time>
  <course>247.92</course>
  <speed>0.022360679774997897</speed>
  <fix>3d</fix>
</trkpt>
<trkpt lat="40.0713749" lon="-105.229789">
  <ele>1583.0</ele>
  <time>2026-08-28T17:52:02Z</time>
  <course>0.0</course>
  <speed>0.0</speed>
  <fix>3d</fix>
</trkpt>
<trkpt lat="40.0713749" lon="-105.229789">
  <ele>1583.0</ele>
  <time>2026-08-28T17:52:02Z</time>
  <course>247.92</course>
  <speed>0.022360679774997897</speed>
  <fix>3d</fix>
</trkpt>
<trkpt lat="40.0713749" lon="-105.229789">
  <ele>1583.0</ele>
  <time>2026-08-28T17:52:02Z</time>
  <course>0.0</course>
  <speed>0.0</speed>
  <fix>3d</fix>
</trkpt>
<trkpt lat="40.0713749" lon="-105.229789">
  <ele>1583.0</ele>
  <time>2026-08-28T17:52:02Z</time>
  <course>247.91</course>
  <speed>0.022360679774997897</speed>
  <fix>3d</fix>
</trkpt>
<trkpt lat="40.0713749" lon="-105.229789">
  <ele>1583.0</ele>
  <time>2026-08-28T17:52:02Z</time>
  <course>0.0</course>
  <speed>0.0</speed>
  <fix>3d</fix>
</trkpt>
<trkpt lat="40.0713749" lon="-105.229789">
  <ele>1583.0</ele>
  <time>2026-08-28T17:52:02Z</time>
  <course>247.91</course>
  <speed>0.022360679774997897</speed>
  <fix>3d</fix>
</trkpt>
<trkpt lat="40.0713749" lon="-105.229789">
  <ele>1583.0</ele>
  <time>2026-08-28T17:52:02Z</time>
  <course>0.0</course>
  <speed>0.0</speed>
  <fix>3d</fix>
</trkpt>
<trkpt lat="40.0713749" lon="-105.229789">
  <ele>1583.0</ele>
  <time>2026-08-28T17:52:02Z</time>
  <course>247.9</course>
  <speed>0.022360679774997897</speed>
  <fix>3d</fix>
</trkpt>
<trkpt lat="40.0713749" lon="-105.229789">
  <ele>1583.0</ele>
  <time>2026-08-28T17:52:02Z</time>
  <course>0.0</course>
  <speed>0.0</speed>
  <fix>3d</fix>
</trkpt>
<trkpt lat="40.0713749" lon="-105.229789">
  <ele>1583.0</ele>
  <time>2026-08-28T17:52:02Z</time>
  <course>247.9</course>
  <speed>0.022360679774997897</speed>
  <fix>3d</fix>
</trkpt>
<trkpt lat="40.0713749" lon="-105.229789">
  <ele>1583.0</ele>
  <time>2026-08-28T17:52:02Z</time>
  <course>0.0</course>
  <speed>0.0</speed>
  <fix>3d</fix>
</trkpt>
<trkpt lat="40.0713749" lon="-105.229789">
  <ele>1583.0</ele>
  <time>2026-08-28T17:52:02Z</time>
  <course>247.89</course>
  <speed>0.022360679774997897</speed>
  <fix>3d</fix>
</trkpt>
<trkpt lat="40.0713749" lon="-105.229789">
  <ele>1583.0</ele>
  <time>2026-08-28T17:52:02Z</time>
  <course>0.0</course>
  <speed>0.0</speed>
  <fix>3d</fix>
</trkpt>
<trkpt lat="40.0713749" lon="-105.229789">
  <ele>1583.0</ele>
  <time>2026-08-28T17:52:02Z</time>
  <course>247.89</course>
  <speed>0.022360679774997897</speed>
  <fix>3d</fix>
</trkpt>
<trkpt lat="40.0713749" lon="-105.229789">
  <ele>1583.0</ele>
  <time>2026-08-28T17:52:02Z</time>
  <course>0.0</course>
  <speed>0.0</speed>
  <fix>3d</fix>
</trkpt>
<trkpt lat="40.0713749" lon="-105.229789">
  <ele>1583.0</ele>
  <time>2026-08-28T17:52:02Z</time>
  <course>247.89</course>
  <speed>0.022360679774997897</speed>
  <fix>3d</fix>
</trkpt>
<trkpt lat="40.0713749" lon="-105.229789">
  <ele>1583.0</ele>
  <time>2026-08-28T17:52:02Z</time>
  <course>0.0</course>
  <speed>0.0</speed>
  <fix>3d</fix>
</trkpt>
<trkpt lat="40.0713749" lon="-105.229789">
  <ele>1583.0</ele>
  <time>2026-08-28T17:52:02Z</time>
  <course>247.88</course>
  <speed>0.0316227766016838</speed>
  <fix>3d</fix>
</trkpt>
<trkpt lat="40.0713749" lon="-105.229789">
  <ele>1583.0</ele>
  <time>2026-08-28T17:52:02Z</time>
  <course>0.0</course>
  <speed>0.0</speed>
  <fix>3d</fix>
</trkpt>
<trkpt lat="40.0713749" lon="-105.229789">
  <ele>1583.0</ele>
  <time>2026-08-28T17:52:02Z</time>
  <course>247.88</course>
  <speed>0.0316227766016838</speed>
  <fix>3d</fix>
</trkpt>
<trkpt lat="40.0713749" lon="-105.229789">
  <ele>1583.0</ele>
  <time>2026-08-28T17:52:02Z</time>
  <course>0.0</course>
  <speed>0.0</speed>
  <fix>3d</fix>
</trkpt>
<trkpt lat="40.0713749" lon="-105.229789">
  <ele>1583.0</ele>
  <time>2026-08-28T17:52:02Z</time>
  <course>247.87</course>
  <speed>0.0316227766016838</speed>
  <fix>3d</fix>
</trkpt>
<trkpt lat="40.0713749" lon="-105.229789">
  <ele>1583.0</ele>
  <time>2026-08-28T17:52:02Z</time>
  <course>0.0</course>
  <speed>0.0</speed>
  <fix>3d</fix>
</trkpt>
<trkpt lat="40.0713749" lon="-105.229789">
  <ele>1583.0</ele>
  <time>2026-08-28T17:52:02Z</time>
  <course>247.87</course>
  <speed>0.0316227766016838</speed>
  <fix>3d</fix>
</trkpt>
<trkpt lat="40.0713749" lon="-105.229789">
  <ele>1583.0</ele>
  <time>2026-08-28T17:52:02Z</time>
  <course>0.0</course>
  <speed>0.0</speed>
  <fix>3d</fix>
</trkpt>
<trkpt lat="40.0713749" lon="-105.229789">
  <ele>1583.0</ele>
  <time>2026-08-28T17:52:02Z</time>
  <course>247.87</course>
  <speed>0.0316227766016838</speed>
  <fix>3d</fix>
</trkpt>
<trkpt lat="40.0713749" lon="-105.229789">
  <ele>1583.0</ele>
  <time>2026-08-28T17:52:02Z</time>
  <course>0.0</course>
  <speed>0.0</speed>
  <fix>3d</fix>
</trkpt>
<trkpt lat="40.0713749" lon="-105.229789">
  <ele>1583.0</ele>
  <time>2026-08-28T17:52:02Z</time>
  <course>247.86</course>
  <speed>0.0316227766016838</speed>
  <fix>3d</fix>
</trkpt>
<trkpt lat="40.0713749" lon="-105.229789">
  <ele>1583.0</ele>
  <time>2026-08-28T17:52:02Z</time>
  <course>0.0</course>
  <speed>0.0</speed>
  <fix>3d</fix>
</trkpt>
<trkpt lat="40.0713749" lon="-105.229789">
  <ele>1583.0</ele>
  <time>2026-08-28T17:52:02Z</time>
  <course>247.86</course>
  <speed>0.0316227766016838</speed>
  <fix>3d</fix>
</trkpt>
<trkpt lat="40.0713749" lon="-105.229789">
  <ele>1583.0</ele>
  <time>2026-08-28T17:52:02Z</time>
  <course>0.0</course>
  <speed>0.0</speed>
  <fix>3d</fix>
</trkpt>
<trkpt lat="40.0713749" lon="-105.229789">
  <ele>1583.0</ele>
  <time>2026-08-28T17:52:02Z</time>
  <course>247.85</course>
  <speed>0.0316227766016838</speed>
  <fix>3d</fix>
</trkpt>
<trkpt lat="40.0713749" lon="-105.229789">
  <ele>1583.0</ele>
  <time>2026-08-28T17:52:02Z</time>
  <course>0.0</course>
  <speed>0.0</speed>
  <fix>3d</fix>
</trkpt>
<trkpt lat="40.0713749" lon="-105.229789">
  <ele>1583.0</ele>
  <time>2026-08-28T17:52:02Z</time>
  <course>247.85</course>
  <speed>0.0316227766016838</speed>
  <fix>3d</fix>
</trkpt>
<trkpt lat="40.0713749" lon="-105.229789">
  <ele>1583.0</ele>
  <time>2026-08-28T17:52:02Z</time>
  <course>0.0</course>
  <speed>0.0</speed>
  <fix>3d</fix>
</trkpt>
<trkpt lat="40.0713749" lon="-105.229789">
  <ele>1583.0</ele>
  <time>2026-08-28T17:52:02Z</time>
  <course>247.85</course>
  <speed>0.0316227766016838</speed>
  <fix>3d</fix>
</trkpt>
<trkpt lat="40.0713749" lon="-105.229789">
  <ele>1583.0</ele>
  <time>2026-08-28T17:52:02Z</time>
  <course>0.0</course>
  <speed>0.0</speed>
  <fix>3d</fix>
</trkpt>
<trkpt lat="40.0713749" lon="-105.229789">
  <ele>1583.0</ele>
  <time>2026-08-28T17:52:02Z</time>
  <course>247.84</course>
  <speed>0.0316227766016838</speed>
  <fix>3d</fix>
</trkpt>
<trkpt lat="40.0713749" lon="-105.229789">
  <ele>1583.0</ele>
  <time>2026-08-28T17:52:02Z</time>
  <course>0.0</course>
  <speed>0.0</speed>
  <fix>3d</fix>
</trkpt>
<trkpt lat="40.0713749" lon="-105.229789">
  <ele>1583.0</ele>
  <time>2026-08-28T17:52:02Z</time>
  <course>247.84</course>
  <speed>0.0316227766016838</speed>
  <fix>3d</fix>
</trkpt>
<trkpt lat="40.0713749" lon="-105.229789">
  <ele>1583.0</ele>
  <time>2026-08-28T17:52:02Z</time>
  <course>0.0</course>
  <speed>0.0</speed>
  <fix>3d</fix>
</trkpt>
<trkpt lat="40.0713749" lon="-105.229789">
  <ele>1583.0</ele>
  <time>2026-08-28T17:52:02Z</time>
  <course>247.83</course>
  <speed>0.0316227766016838</speed>
  <fix>3d</fix>
</trkpt>
<trkpt lat="40.0713749" lon="-105.229789">
  <ele>1583.0</ele>
  <time>2026-08-28T17:52:02Z</time>
  <course>0.0</course>
  <speed>0.0</speed>
  <fix>3d</fix>
</trkpt>
<trkpt lat="40.0713749" lon="-105.229789">
  <ele>1583.0</ele>
  <time>2026-08-28T17:52:02Z</time>
  <course>247.83</course>
  <speed>0.0316227766016838</speed>
  <fix>3d</fix>
</trkpt>
<trkpt lat="40.0713749" lon="-105.229789">
  <ele>1583.0</ele>
  <time>2026-08-28T17:52:02Z</time>
  <course>0.0</course>
  <speed>0.0</speed>
  <fix>3d</fix>
</trkpt>
<trkpt lat="40.0713749" lon="-105.229789">
  <ele>1583.0</ele>
  <time>2026-08-28T17:52:02Z</time>
  <course>247.83</course>
  <speed>0.0316227766016838</speed>
  <fix>3d</fix>
</trkpt>
<trkpt lat="40.0713749" lon="-105.229789">
  <ele>1583.0</ele>
  <time>2026-08-28T17:52:02Z</time>
  <course>0.0</course>
  <speed>0.0</speed>
  <fix>3d</fix>
</trkpt>
<trkpt lat="40.0713749" lon="-105.229789">
  <ele>1583.0</ele>
  <time>2026-08-28T17:52:02Z</time>
  <course>247.82</course>
  <speed>0.0316227766016838</speed>
  <fix>3d</fix>
</trkpt>
<trkpt lat="40.0713749" lon="-105.229789">
  <ele>1583.0</ele>
  <time>2026-08-28T17:52:02Z</time>
  <course>0.0</course>
  <speed>0.0</speed>
  <fix>3d</fix>
</trkpt>
<trkpt lat="40.0713749" lon="-105.229789">
  <ele>1583.0</ele>
  <time>2026-08-28T17:52:02Z</time>
  <course>247.82</course>
  <speed>0.0316227766016838</speed>
  <fix>3d</fix>
</trkpt>
<trkpt lat="40.0713749" lon="-105.229789">
  <ele>1583.0</ele>
  <time>2026-08-28T17:52:02Z</time>
  <course>0.0</course>
  <speed>0.0</speed>
  <fix>3d</fix>
</trkpt>
<trkpt lat="40.0713749" lon="-105.229789">
  <ele>1583.0</ele>
  <time>2026-08-28T17:52:02Z</time>
  <course>247.82</course>
  <speed>0.0316227766016838</speed>
  <fix>3d</fix>
</trkpt>
<trkpt lat="40.0713749" lon="-105.229789">
  <ele>1583.0</ele>
  <time>2026-08-28T17:52:02Z</time>
  <course>0.0</course>
  <speed>0.0</speed>
  <fix>3d</fix>
</trkpt>
<trkpt lat="40.0713749" lon="-105.229789">
  <ele>1583.0</ele>
  <time>2026-08-28T17:52:02Z</time>
  <course>247.81</course>
  <speed>0.0316227766016838</speed>
  <fix>3d</fix>
</trkpt>
<trkpt lat="40.0713749" lon="-105.229789">
  <ele>1583.0</ele>
  <time>2026-08-28T17:52:02Z</time>
  <course>0.0</course>
  <speed>0.0</speed>
  <fix>3d</fix>
</trkpt>
<trkpt lat="40.0713749" lon="-105.229789">
  <ele>1583.0</ele>
  <time>2026-08-28T17:52:02Z</time>
  <course>247.81</course>
  <speed>0.0316227766016838</speed>
  <fix>3d</fix>
</trkpt>
<trkpt lat="40.0713749" lon="-105.229789">
  <ele>1583.0</ele>
  <time>2026-08-28T17:52:02Z</time>
  <course>0.0</course>
  <speed>0.0</speed>
  <fix>3d</fix>
</trkpt>
<trkpt lat="40.0713749" lon="-105.229789">
  <ele>1583.0</ele>
  <time>2026-08-28T17:52:02Z</time>
  <course>247.8</course>
  <speed>0.0316227766016838</speed>
  <fix>3d</fix>
</trkpt>
<trkpt lat="40.0713749" lon="-105.229789">
  <ele>1583.0</ele>
  <time>2026-08-28T17:52:02Z</time>
  <course>0.0</course>
  <speed>0.0</speed>
  <fix>3d</fix>
</trkpt>
<trkpt lat="40.0713749" lon="-105.229789">
  <ele>1583.0</ele>
  <time>2026-08-28T17:52:02Z</time>
  <course>247.8</course>
  <speed>0.0316227766016838</speed>
  <fix>3d</fix>
</trkpt>
<trkpt lat="40.0713749" lon="-105.229789">
  <ele>1583.0</ele>
  <time>2026-08-28T17:52:02Z</time>
  <course>0.0</course>
  <speed>0.0</speed>
  <fix>3d</fix>
</trkpt>
<trkpt lat="40.0713749" lon="-105.229789">
  <ele>1583.0</ele>
  <time>2026-08-28T17:52:02Z</time>
  <course>247.8</course>
  <speed>0.0316227766016838</speed>
  <fix>3d</fix>
</trkpt>
<trkpt lat="40.0713749" lon="-105.229789">
  <ele>1583.0</ele>
  <time>2026-08-28T17:52:02Z</time>
  <course>0.0</course>
  <speed>0.0</speed>
  <fix>3d</fix>
</trkpt>
<trkpt lat="40.0713749" lon="-105.229789">
  <ele>1583.0</ele>
  <time>2026-08-28T17:52:02Z</time>
  <course>247.79</course>
  <speed>0.0316227766016838</speed>
  <fix>3d</fix>
</trkpt>
<trkpt lat="40.0713749" lon="-105.229789">
  <ele>1583.0</ele>
  <time>2026-08-28T17:52:02Z</time>
  <course>0.0</course>
  <speed>0.0</speed>
  <fix>3d</fix>
</trkpt>
<trkpt lat="40.0713749" lon="-105.229789">
  <ele>1583.0</ele>
  <time>2026-08-28T17:52:02Z</time>
  <course>247.79</course>
  <speed>0.0316227766016838</speed>
  <fix>3d</fix>
</trkpt>
<trkpt lat="40.0713749" lon="-105.229789">
  <ele>1583.0</ele>
  <time>2026-08-28T17:52:02Z</time>
  <course>0.0</course>
  <speed>0.0</speed>
  <fix>3d</fix>
</trkpt>
<trkpt lat="40.0713749" lon="-105.229789">
  <ele>1583.0</ele>
  <time>2026-08-28T17:52:02Z</time>
  <course>247.79</course>
  <speed>0.0316227766016838</speed>
  <fix>3d</fix>
</trkpt>
<trkpt lat="40.0713749" lon="-105.229789">
  <ele>1583.0</ele>
  <time>2026-08-28T17:52:02Z</time>
  <course>0.0</course>
  <speed>0.0</speed>
  <fix>3d</fix>
</trkpt>
<trkpt lat="40.0713749" lon="-105.229789">
  <ele>1583.0</ele>
  <time>2026-08-28T17:52:02Z</time>
  <course>247.78</course>
  <speed>0.0316227766016838</speed>
  <fix>3d</fix>
</trkpt>
<trkpt lat="40.0713749" lon="-105.229789">
  <ele>1583.0</ele>
  <time>2026-08-28T17:52:02Z</time>
  <course>0.0</course>
  <speed>0.0</speed>
  <fix>3d</fix>
</trkpt>
<trkpt lat="40.0713749" lon="-105.229789">
  <ele>1583.0</ele>
  <time>2026-08-28T17:52:02Z</time>
  <course>247.78</course>
  <speed>0.0316227766016838</speed>
  <fix>3d</fix>
</trkpt>
<trkpt lat="40.0713749" lon="-105.229789">
  <ele>1583.0</ele>
  <time>2026-08-28T17:52:02Z</time>
  <course>0.0</course>
  <speed>0.0</speed>
  <fix>3d</fix>
</trkpt>
<trkpt lat="40.0713749" lon="-105.229789">
  <ele>1583.0</ele>
  <time>2026-08-28T17:52:02Z</time>
  <course>247.78</course>
  <speed>0.0316227766016838</speed>
  <fix>3d</fix>
</trkpt>
<trkpt lat="40.0713749" lon="-105.229789">
  <ele>1583.0</ele>
  <time>2026-08-28T17:52:02Z</time>
  <course>0.0</course>
  <speed>0.0</speed>
  <fix>3d</fix>
</trkpt>
<trkpt lat="40.0713749" lon="-105.229789">
  <ele>1583.0</ele>
  <time>2026-08-28T17:52:02Z</time>
  <course>247.77</course>
  <speed>0.0316227766016838</speed>
  <fix>3d</fix>
</trkpt>
<trkpt lat="40.0713749" lon="-105.229789">
  <ele>1583.0</ele>
  <time>2026-08-28T17:52:02Z</time>
  <course>0.0</course>
  <speed>0.0</speed>
  <fix>3d</fix>
</trkpt>
<trkpt lat="40.0713749" lon="-105.229789">
  <ele>1583.0</ele>
  <time>2026-08-28T17:52:02Z</time>
  <course>247.77</course>
  <speed>0.0316227766016838</speed>
  <fix>3d</fix>
</trkpt>
<trkpt lat="40.0713749" lon="-105.229789">
  <ele>1583.0</ele>
  <time>2026-08-28T17:52:02Z</time>
  <course>0.0</course>
  <speed>0.0</speed>
  <fix>3d</fix>
</trkpt>
<trkpt lat="40.0713749" lon="-105.229789">
  <ele>1583.0</ele>
  <time>2026-08-28T17:52:02Z</time>
  <course>247.76</course>
  <speed>0.0316227766016838</speed>
  <fix>3d</fix>
</trkpt>
<trkpt lat="40.0713749" lon="-105.229789">
  <ele>1583.0</ele>
  <time>2026-08-28T17:52:02Z</time>
  <course>0.0</course>
  <speed>0.0</speed>
  <fix>3d</fix>
</trkpt>
<trkpt lat="40.0713749" lon="-105.229789">
  <ele>1583.0</ele>
  <time>2026-08-28T17:52:02Z</time>
  <course>247.76</course>
  <speed>0.0316227766016838</speed>
  <fix>3d</fix>
</trkpt>
<trkpt lat="40.0713749" lon="-105.229789">
  <ele>1583.0</ele>
  <time>2026-08-28T17:52:02Z</time>
  <course>0.0</course>
  <speed>0.0</speed>
  <fix>3d</fix>
</trkpt>
<trkpt lat="40.0713749" lon="-105.229789">
  <ele>1583.0</ele>
  <time>2026-08-28T17:52:02Z</time>
  <course>247.76</course>
  <speed>0.0316227766016838</speed>
  <fix>3d</fix>
</trkpt>
<trkpt lat="40.0713749" lon="-105.229789">
  <ele>1583.0</ele>
  <time>2026-08-28T17:52:02Z</time>
  <course>0.0</course>
  <speed>0.0</speed>
  <fix>3d</fix>
</trkpt>
<trkpt lat="40.0713749" lon="-105.229789">
  <ele>1583.0</ele>
  <time>2026-08-28T17:52:02Z</time>
  <course>247.75</course>
  <speed>0.0316227766016838</speed>
  <fix>3d</fix>
</trkpt>
<trkpt lat="40.0713749" lon="-105.229789">
  <ele>1583.0</ele>
  <time>2026-08-28T17:52:02Z</time>
  <course>0.0</course>
  <speed>0.0</speed>
  <fix>3d</fix>
</trkpt>
<trkpt lat="40.0713749" lon="-105.229789">
  <ele>1583.0</ele>
  <time>2026-08-28T17:52:02Z</time>
  <course>247.75</course>
  <speed>0.0316227766016838</speed>
  <fix>3d</fix>
</trkpt>
<trkpt lat="40.0713749" lon="-105.229789">
  <ele>1583.0</ele>
  <time>2026-08-28T17:52:02Z</time>
  <course>0.0</course>
  <speed>0.0</speed>
  <fix>3d</fix>
</trkpt>
<trkpt lat="40.0713749" lon="-105.229789">
  <ele>1583.0</ele>
  <time>2026-08-28T17:52:02Z</time>
  <course>247.75</course>
  <speed>0.0316227766016838</speed>
  <fix>3d</fix>
</trkpt>
<trkpt lat="40.0713749" lon="-105.229789">
  <ele>1583.0</ele>
  <time>2026-08-28T17:52:02Z</time>
  <course>0.0</course>
  <speed>0.0</speed>
  <fix>3d</fix>
</trkpt>
<trkpt lat="40.0713749" lon="-105.229789">
  <ele>1583.0</ele>
  <time>2026-08-28T17:52:02Z</time>
  <course>247.74</course>
  <speed>0.0316227766016838</speed>
  <fix>3d</fix>
</trkpt>
<trkpt lat="40.0713749" lon="-105.229789">
  <ele>1583.0</ele>
  <time>2026-08-28T17:52:02Z</time>
  <course>0.0</course>
  <speed>0.0</speed>
  <fix>3d</fix>
</trkpt>
<trkpt lat="40.0713749" lon="-105.229789">
  <ele>1583.0</ele>
  <time>2026-08-28T17:52:02Z</time>
  <course>247.74</course>
  <speed>0.0316227766016838</speed>
  <fix>3d</fix>
</trkpt>
<trkpt lat="40.0713749" lon="-105.229789">
  <ele>1583.0</ele>
  <time>2026-08-28T17:52:02Z</time>
  <course>0.0</course>
  <speed>0.0</speed>
  <fix>3d</fix>
</trkpt>
<trkpt lat="40.0713749" lon="-105.229789">
  <ele>1583.0</ele>
  <time>2026-08-28T17:52:02Z</time>
  <course>247.74</course>
  <speed>0.0316227766016838</speed>
  <fix>3d</fix>
</trkpt>
<trkpt lat="40.0713749" lon="-105.229789">
  <ele>1583.0</ele>
  <time>2026-08-28T17:52:02Z</time>
  <course>0.0</course>
  <speed>0.0</speed>
  <fix>3d</fix>
</trkpt>
<trkpt lat="40.0713749" lon="-105.229789">
  <ele>1583.0</ele>
  <time>2026-08-28T17:52:02Z</time>
  <course>247.73</course>
  <speed>0.0316227766016838</speed>
  <fix>3d</fix>
</trkpt>
<trkpt lat="40.0713749" lon="-105.229789">
  <ele>1583.0</ele>
  <time>2026-08-28T17:52:02Z</time>
  <course>0.0</course>
  <speed>0.0</speed>
  <fix>3d</fix>
</trkpt>
<trkpt lat="40.0713749" lon="-105.229789">
  <ele>1583.0</ele>
  <time>2026-08-28T17:52:02Z</time>
  <course>247.73</course>
  <speed>0.0316227766016838</speed>
  <fix>3d</fix>
</trkpt>
<trkpt lat="40.0713749" lon="-105.229789">
  <ele>1583.0</ele>
  <time>2026-08-28T17:52:02Z</time>
  <course>0.0</course>
  <speed>0.0</speed>
  <fix>3d</fix>
</trkpt>
<trkpt lat="40.0713749" lon="-105.229789">
  <ele>1583.0</ele>
  <time>2026-08-28T17:52:02Z</time>
  <course>247.73</course>
  <speed>0.0316227766016838</speed>
  <fix>3d</fix>
</trkpt>
<trkpt lat="40.0713749" lon="-105.229789">
  <ele>1583.0</ele>
  <time>2026-08-28T17:52:02Z</time>
  <course>0.0</course>
  <speed>0.0</speed>
  <fix>3d</fix>
</trkpt>
<trkpt lat="40.0713749" lon="-105.229789">
  <ele>1583.0</ele>
  <time>2026-08-28T17:52:02Z</time>
  <course>247.72</course>
  <speed>0.0316227766016838</speed>
  <fix>3d</fix>
</trkpt>
<trkpt lat="40.0713749" lon="-105.229789">
  <ele>1583.0</ele>
  <time>2026-08-28T17:52:02Z</time>
  <course>0.0</course>
  <speed>0.0</speed>
  <fix>3d</fix>
</trkpt>
<trkpt lat="40.0713749" lon="-105.229789">
  <ele>1583.0</ele>
  <time>2026-08-28T17:52:02Z</time>
  <course>247.72</course>
  <speed>0.0316227766016838</speed>
  <fix>3d</fix>
</trkpt>
<trkpt lat="40.0713749" lon="-105.229789">
  <ele>1583.0</ele>
  <time>2026-08-28T17:52:02Z</time>
  <course>0.0</course>
  <speed>0.0</speed>
  <fix>3d</fix>
</trkpt>
<trkpt lat="40.0713749" lon="-105.229789">
  <ele>1583.0</ele>
  <time>2026-08-28T17:52:02Z</time>
  <course>247.72</course>
  <speed>0.0316227766016838</speed>
  <fix>3d</fix>
</trkpt>
<trkpt lat="40.0713749" lon="-105.229789">
  <ele>1583.0</ele>
  <time>2026-08-28T17:52:02Z</time>
  <course>0.0</course>
  <speed>0.0</speed>
  <fix>3d</fix>
</trkpt>
<trkpt lat="40.0713749" lon="-105.229789">
  <ele>1583.0</ele>
  <time>2026-08-28T17:52:02Z</time>
  <course>247.71</course>
  <speed>0.0316227766016838</speed>
  <fix>3d</fix>
</trkpt>
<trkpt lat="40.0713749" lon="-105.229789">
  <ele>1583.0</ele>
  <time>2026-08-28T17:52:02Z</time>
  <course>0.0</course>
  <speed>0.0</speed>
  <fix>3d</fix>
</trkpt>
<trkpt lat="40.0713749" lon="-105.229789">
  <ele>1583.0</ele>
  <time>2026-08-28T17:52:02Z</time>
  <course>247.71</course>
  <speed>0.0316227766016838</speed>
  <fix>3d</fix>
</trkpt>
<trkpt lat="40.0713749" lon="-105.229789">
  <ele>1583.0</ele>
  <time>2026-08-28T17:52:02Z</time>
  <course>0.0</course>
  <speed>0.0</speed>
  <fix>3d</fix>
</trkpt>
<trkpt lat="40.0713749" lon="-105.229789">
  <ele>1583.0</ele>
  <time>2026-08-28T17:52:02Z</time>
  <course>247.71</course>
  <speed>0.0316227766016838</speed>
  <fix>3d</fix>
</trkpt>
<trkpt lat="40.0713749" lon="-105.229789">
  <ele>1583.0</ele>
  <time>2026-08-28T17:52:02Z</time>
  <course>0.0</course>
  <speed>0.0</speed>
  <fix>3d</fix>
</trkpt>
<trkpt lat="40.0713749" lon="-105.229789">
  <ele>1583.0</ele>
  <time>2026-08-28T17:52:02Z</time>
  <course>247.7</course>
  <speed>0.0316227766016838</speed>
  <fix>3d</fix>
</trkpt>
<trkpt lat="40.0713749" lon="-105.229789">
  <ele>1583.0</ele>
  <time>2026-08-28T17:52:02Z</time>
  <course>0.0</course>
  <speed>0.0</speed>
  <fix>3d</fix>
</trkpt>
<trkpt lat="40.0713749" lon="-105.229789">
  <ele>1583.0</ele>
  <time>2026-08-28T17:52:02Z</time>
  <course>247.7</course>
  <speed>0.0316227766016838</speed>
  <fix>3d</fix>
</trkpt>
<trkpt lat="40.0713749" lon="-105.229789">
  <ele>1583.0</ele>
  <time>2026-08-28T17:52:02Z</time>
  <course>0.0</course>
  <speed>0.0</speed>
  <fix>3d</fix>
</trkpt>
<trkpt lat="40.0713749" lon="-105.229789">
  <ele>1583.0</ele>
  <time>2026-08-28T17:52:02Z</time>
  <course>247.7</course>
  <speed>0.0316227766016838</speed>
  <fix>3d</fix>
</trkpt>
<trkpt lat="40.0713749" lon="-105.229789">
  <ele>1583.0</ele>
  <time>2026-08-28T17:52:02Z</time>
  <course>0.0</course>
  <speed>0.0</speed>
  <fix>3d</fix>
</trkpt>
<trkpt lat="40.0713749" lon="-105.229789">
  <ele>1583.0</ele>
  <time>2026-08-28T17:52:02Z</time>
  <course>247.69</course>
  <speed>0.0316227766016838</speed>
  <fix>3d</fix>
</trkpt>
<trkpt lat="40.0713749" lon="-105.229789">
  <ele>1583.0</ele>
  <time>2026-08-28T17:52:02Z</time>
  <course>0.0</course>
  <speed>0.0</speed>
  <fix>3d</fix>
</trkpt>
<trkpt lat="40.0713749" lon="-105.229789">
  <ele>1583.0</ele>
  <time>2026-08-28T17:52:02Z</time>
  <course>247.69</course>
  <speed>0.0316227766016838</speed>
  <fix>3d</fix>
</trkpt>
<trkpt lat="40.0713749" lon="-105.229789">
  <ele>1583.0</ele>
  <time>2026-08-28T17:52:02Z</time>
  <course>0.0</course>
  <speed>0.0</speed>
  <fix>3d</fix>
</trkpt>
<trkpt lat="40.0713749" lon="-105.229789">
  <ele>1583.0</ele>
  <time>2026-08-28T17:52:02Z</time>
  <course>247.69</course>
  <speed>0.0316227766016838</speed>
  <fix>3d</fix>
</trkpt>
<trkpt lat="40.0713749" lon="-105.229789">
  <ele>1583.0</ele>
  <time>2026-08-28T17:52:02Z</time>
  <course>0.0</course>
  <speed>0.0</speed>
  <fix>3d</fix>
</trkpt>
<trkpt lat="40.0713749" lon="-105.229789">
  <ele>1583.0</ele>
  <time>2026-08-28T17:52:02Z</time>
  <course>247.68</course>
  <speed>0.0316227766016838</speed>
  <fix>3d</fix>
</trkpt>
<trkpt lat="40.0713749" lon="-105.229789">
  <ele>1583.0</ele>
  <time>2026-08-28T17:52:02Z</time>
  <course>0.0</course>
  <speed>0.0</speed>
  <fix>3d</fix>
</trkpt>
<trkpt lat="40.0713749" lon="-105.229789">
  <ele>1583.0</ele>
  <time>2026-08-28T17:52:02Z</time>
  <course>247.68</course>
  <speed>0.0316227766016838</speed>
  <fix>3d</fix>
</trkpt>
<trkpt lat="40.0713749" lon="-105.229789">
  <ele>1583.0</ele>
  <time>2026-08-28T17:52:02Z</time>
  <course>0.0</course>
  <speed>0.0</speed>
  <fix>3d</fix>
</trkpt>
<trkpt lat="40.0713749" lon="-105.229789">
  <ele>1583.0</ele>
  <time>2026-08-28T17:52:02Z</time>
  <course>247.68</course>
  <speed>0.0316227766016838</speed>
  <fix>3d</fix>
</trkpt>
<trkpt lat="40.0713749" lon="-105.229789">
  <ele>1583.0</ele>
  <time>2026-08-28T17:52:02Z</time>
  <course>0.0</course>
  <speed>0.0</speed>
  <fix>3d</fix>
</trkpt>
<trkpt lat="40.0713749" lon="-105.229789">
  <ele>1583.0</ele>
  <time>2026-08-28T17:52:02Z</time>
  <course>247.67</course>
  <speed>0.0316227766016838</speed>
  <fix>3d</fix>
</trkpt>
<trkpt lat="40.0713749" lon="-105.229789">
  <ele>1583.0</ele>
  <time>2026-08-28T17:52:02Z</time>
  <course>0.0</course>
  <speed>0.0</speed>
  <fix>3d</fix>
</trkpt>
<trkpt lat="40.0713749" lon="-105.229789">
  <ele>1583.0</ele>
  <time>2026-08-28T17:52:02Z</time>
  <course>247.67</course>
  <speed>0.0316227766016838</speed>
  <fix>3d</fix>
</trkpt>
<trkpt lat="40.0713749" lon="-105.229789">
  <ele>1583.0</ele>
  <time>2026-08-28T17:52:02Z</time>
  <course>0.0</course>
  <speed>0.0</speed>
  <fix>3d</fix>
</trkpt>
<trkpt lat="40.0713749" lon="-105.229789">
  <ele>1583.0</ele>
  <time>2026-08-28T17:52:02Z</time>
  <course>247.67</course>
  <speed>0.0316227766016838</speed>
  <fix>3d</fix>
</trkpt>
<trkpt lat="40.0713749" lon="-105.229789">
  <ele>1583.0</ele>
  <time>2026-08-28T17:52:02Z</time>
  <course>0.0</course>
  <speed>0.0</speed>
  <fix>3d</fix>
</trkpt>
<trkpt lat="40.0713749" lon="-105.229789">
  <ele>1583.0</ele>
  <time>2026-08-28T17:52:02Z</time>
  <course>247.66</course>
  <speed>0.0316227766016838</speed>
  <fix>3d</fix>
</trkpt>
<trkpt lat="40.0713749" lon="-105.229789">
  <ele>1583.0</ele>
  <time>2026-08-28T17:52:02Z</time>
  <course>0.0</course>
  <speed>0.0</speed>
  <fix>3d</fix>
</trkpt>
<trkpt lat="40.0713749" lon="-105.229789">
  <ele>1583.0</ele>
  <time>2026-08-28T17:52:02Z</time>
  <course>247.66</course>
  <speed>0.0316227766016838</speed>
  <fix>3d</fix>
</trkpt>
<trkpt lat="40.0713749" lon="-105.229789">
  <ele>1583.0</ele>
  <time>2026-08-28T17:52:02Z</time>
  <course>0.0</course>
  <speed>0.0</speed>
  <fix>3d</fix>
</trkpt>
<trkpt lat="40.0713749" lon="-105.229789">
  <ele>1583.0</ele>
  <time>2026-08-28T17:52:02Z</time>
  <course>247.66</course>
  <speed>0.0316227766016838</speed>
  <fix>3d</fix>
</trkpt>
<trkpt lat="40.0713749" lon="-105.229789">
  <ele>1583.0</ele>
  <time>2026-08-28T17:52:02Z</time>
  <course>0.0</course>
  <speed>0.0</speed>
  <fix>3d</fix>
</trkpt>
<trkpt lat="40.0713749" lon="-105.229789">
  <ele>1583.0</ele>
  <time>2026-08-28T17:52:02Z</time>
  <course>247.65</course>
  <speed>0.0316227766016838</speed>
  <fix>3d</fix>
</trkpt>
<trkpt lat="40.0713749" lon="-105.229789">
  <ele>1583.0</ele>
  <time>2026-08-28T17:52:02Z</time>
  <course>0.0</course>
  <speed>0.0</speed>
  <fix>3d</fix>
</trkpt>
<trkpt lat="40.0713749" lon="-105.229789">
  <ele>1583.0</ele>
  <time>2026-08-28T17:52:02Z</time>
  <course>247.65</course>
  <speed>0.0316227766016838</speed>
  <fix>3d</fix>
</trkpt>
<trkpt lat="40.0713749" lon="-105.229789">
  <ele>1583.0</ele>
  <time>2026-08-28T17:52:02Z</time>
  <course>0.0</course>
  <speed>0.0</speed>
  <fix>3d</fix>
</trkpt>
<trkpt lat="40.0713749" lon="-105.229789">
  <ele>1583.0</ele>
  <time>2026-08-28T17:52:02Z</time>
  <course>247.65</course>
  <speed>0.0316227766016838</speed>
  <fix>3d</fix>
</trkpt>
<trkpt lat="40.0713749" lon="-105.229789">
  <ele>1583.0</ele>
  <time>2026-08-28T17:52:02Z</time>
  <course>0.0</course>
  <speed>0.0</speed>
  <fix>3d</fix>
</trkpt>
<trkpt lat="40.0713749" lon="-105.229789">
  <ele>1583.0</ele>
  <time>2026-08-28T17:52:02Z</time>
  <course>247.64</course>
  <speed>0.0316227766016838</speed>
  <fix>3d</fix>
</trkpt>
<trkpt lat="40.0713749" lon="-105.229789">
  <ele>1583.0</ele>
  <time>2026-08-28T17:52:02Z</time>
  <course>0.0</course>
  <speed>0.0</speed>
  <fix>3d</fix>
</trkpt>
<trkpt lat="40.0713749" lon="-105.229789">
  <ele>1583.0</ele>
  <time>2026-08-28T17:52:02Z</time>
  <course>247.64</course>
  <speed>0.0316227766016838</speed>
  <fix>3d</fix>
</trkpt>
<trkpt lat="40.0713749" lon="-105.229789">
  <ele>1583.0</ele>
  <time>2026-08-28T17:52:02Z</time>
  <course>0.0</course>
  <speed>0.0</speed>
  <fix>3d</fix>
</trkpt>
<trkpt lat="40.0713749" lon="-105.229789">
  <ele>1583.0</ele>
  <time>2026-08-28T17:52:02Z</time>
  <course>247.64</course>
  <speed>0.0316227766016838</speed>
  <fix>3d</fix>
</trkpt>
<trkpt lat="40.0713749" lon="-105.229789">
  <ele>1583.0</ele>
  <time>2026-08-28T17:52:02Z</time>
  <course>0.0</course>
  <speed>0.0</speed>
  <fix>3d</fix>
</trkpt>
<trkpt lat="40.0713749" lon="-105.229789">
  <ele>1583.0</ele>
  <time>2026-08-28T17:52:02Z</time>
  <course>247.64</course>
  <speed>0.0316227766016838</speed>
  <fix>3d</fix>
</trkpt>
<trkpt lat="40.0713749" lon="-105.229789">
  <ele>1583.0</ele>
  <time>2026-08-28T17:52:02Z</time>
  <course>0.0</course>
  <speed>0.0</speed>
  <fix>3d</fix>
</trkpt>
<trkpt lat="40.0713749" lon="-105.229789">
  <ele>1583.0</ele>
  <time>2026-08-28T17:52:02Z</time>
  <course>247.63</course>
  <speed>0.0316227766016838</speed>
  <fix>3d</fix>
</trkpt>
<trkpt lat="40.0713749" lon="-105.229789">
  <ele>1583.0</ele>
  <time>2026-08-28T17:52:02Z</time>
  <course>0.0</course>
  <speed>0.0</speed>
  <fix>3d</fix>
</trkpt>
<trkpt lat="40.0713749" lon="-105.229789">
  <ele>1583.0</ele>
  <time>2026-08-28T17:52:02Z</time>
  <course>247.63</course>
  <speed>0.0316227766016838</speed>
  <fix>3d</fix>
</trkpt>
<trkpt lat="40.0713749" lon="-105.229789">
  <ele>1583.0</ele>
  <time>2026-08-28T17:52:02Z</time>
  <course>0.0</course>
  <speed>0.0</speed>
  <fix>3d</fix>
</trkpt>
<trkpt lat="40.0713749" lon="-105.229789">
  <ele>1583.0</ele>
  <time>2026-08-28T17:52:02Z</time>
  <course>247.63</course>
  <speed>0.0316227766016838</speed>
  <fix>3d</fix>
</trkpt>
<trkpt lat="40.0713749" lon="-105.229789">
  <ele>1583.0</ele>
  <time>2026-08-28T17:52:02Z</time>
  <course>0.0</course>
  <speed>0.0</speed>
  <fix>3d</fix>
</trkpt>
<trkpt lat="40.0713749" lon="-105.229789">
  <ele>1583.0</ele>
  <time>2026-08-28T17:52:02Z</time>
  <course>247.62</course>
  <speed>0.0316227766016838</speed>
  <fix>3d</fix>
</trkpt>
<trkpt lat="40.0713749" lon="-105.229789">
  <ele>1583.0</ele>
  <time>2026-08-28T17:52:02Z</time>
  <course>0.0</course>
  <speed>0.0</speed>
  <fix>3d</fix>
</trkpt>
<trkpt lat="40.0713749" lon="-105.229789">
  <ele>1583.0</ele>
  <time>2026-08-28T17:52:02Z</time>
  <course>247.62</course>
  <speed>0.0316227766016838</speed>
  <fix>3d</fix>
</trkpt>
<trkpt lat="40.0713749" lon="-105.229789">
  <ele>1583.0</ele>
  <time>2026-08-28T17:52:02Z</time>
  <course>0.0</course>
  <speed>0.0</speed>
  <fix>3d</fix>
</trkpt>
<trkpt lat="40.0713749" lon="-105.229789">
  <ele>1583.0</ele>
  <time>2026-08-28T17:52:02Z</time>
  <course>247.62</course>
  <speed>0.0316227766016838</speed>
  <fix>3d</fix>
</trkpt>
<trkpt lat="40.0713749" lon="-105.229789">
  <ele>1583.0</ele>
  <time>2026-08-28T17:52:02Z</time>
  <course>0.0</course>
  <speed>0.0</speed>
  <fix>3d</fix>
</trkpt>
<trkpt lat="40.0713749" lon="-105.229789">
  <ele>1583.0</ele>
  <time>2026-08-28T17:52:02Z</time>
  <course>247.62</course>
  <speed>0.0316227766016838</speed>
  <fix>3d</fix>
</trkpt>
<trkpt lat="40.0713749" lon="-105.229789">
  <ele>1583.0</ele>
  <time>2026-08-28T17:52:02Z</time>
  <course>0.0</course>
  <speed>0.0</speed>
  <fix>3d</fix>
</trkpt>
<trkpt lat="40.0713749" lon="-105.229789">
  <ele>1583.0</ele>
  <time>2026-08-28T17:52:02Z</time>
  <course>247.61</course>
  <speed>0.0316227766016838</speed>
  <fix>3d</fix>
</trkpt>
<trkpt lat="40.0713749" lon="-105.229789">
  <ele>1583.0</ele>
  <time>2026-08-28T17:52:02Z</time>
  <course>0.0</course>
  <speed>0.0</speed>
  <fix>3d</fix>
</trkpt>
<trkpt lat="40.0713749" lon="-105.229789">
  <ele>1583.0</ele>
  <time>2026-08-28T17:52:02Z</time>
  <course>247.61</course>
  <speed>0.0316227766016838</speed>
  <fix>3d</fix>
</trkpt>
<trkpt lat="40.0713749" lon="-105.229789">
  <ele>1583.0</ele>
  <time>2026-08-28T17:52:02Z</time>
  <course>0.0</course>
  <speed>0.0</speed>
  <fix>3d</fix>
</trkpt>
<trkpt lat="40.0713749" lon="-105.229789">
  <ele>1583.0</ele>
  <time>2026-08-28T17:52:02Z</time>
  <course>247.61</course>
  <speed>0.0316227766016838</speed>
  <fix>3d</fix>
</trkpt>
<trkpt lat="40.0713749" lon="-105.229789">
  <ele>1583.0</ele>
  <time>2026-08-28T17:52:02Z</time>
  <course>0.0</course>
  <speed>0.0</speed>
  <fix>3d</fix>
</trkpt>
<trkpt lat="40.0713749" lon="-105.229789">
  <ele>1583.0</ele>
  <time>2026-08-28T17:52:02Z</time>
  <course>247.6</course>
  <speed>0.0316227766016838</speed>
  <fix>3d</fix>
</trkpt>
<trkpt lat="40.0713749" lon="-105.229789">
  <ele>1583.0</ele>
  <time>2026-08-28T17:52:02Z</time>
  <course>0.0</course>
  <speed>0.0</speed>
  <fix>3d</fix>
</trkpt>
<trkpt lat="40.0713749" lon="-105.229789">
  <ele>1583.0</ele>
  <time>2026-08-28T17:52:02Z</time>
  <course>247.6</course>
  <speed>0.0316227766016838</speed>
  <fix>3d</fix>
</trkpt>
<trkpt lat="40.0713749" lon="-105.229789">
  <ele>1583.0</ele>
  <time>2026-08-28T17:52:02Z</time>
  <course>0.0</course>
  <speed>0.0</speed>
  <fix>3d</fix>
</trkpt>
<trkpt lat="40.0713749" lon="-105.229789">
  <ele>1583.0</ele>
  <time>2026-08-28T17:52:02Z</time>
  <course>247.6</course>
  <speed>0.0316227766016838</speed>
  <fix>3d</fix>
</trkpt>
<trkpt lat="40.0713749" lon="-105.229789">
  <ele>1583.0</ele>
  <time>2026-08-28T17:52:02Z</time>
  <course>0.0</course>
  <speed>0.0</speed>
  <fix>3d</fix>
</trkpt>
<trkpt lat="40.0713749" lon="-105.229789">
  <ele>1583.0</ele>
  <time>2026-08-28T17:52:02Z</time>
  <course>247.6</course>
  <speed>0.0316227766016838</speed>
  <fix>3d</fix>
</trkpt>
<trkpt lat="40.0713749" lon="-105.229789">
  <ele>1583.0</ele>
  <time>2026-08-28T17:52:02Z</time>
  <course>0.0</course>
  <speed>0.0</speed>
  <fix>3d</fix>
</trkpt>
<trkpt lat="40.0713749" lon="-105.229789">
  <ele>1583.0</ele>
  <time>2026-08-28T17:52:02Z</time>
  <course>247.59</course>
  <speed>0.0316227766016838</speed>
  <fix>3d</fix>
</trkpt>
<trkpt lat="40.0713749" lon="-105.229789">
  <ele>1583.0</ele>
  <time>2026-08-28T17:52:02Z</time>
  <course>0.0</course>
  <speed>0.0</speed>
  <fix>3d</fix>
</trkpt>
<trkpt lat="40.0713749" lon="-105.229789">
  <ele>1582.92</ele>
  <time>2026-08-28T17:52:02Z</time>
  <course>247.59</course>
  <speed>0.0</speed>
  <fix>3d</fix>
</trkpt>
<trkpt lat="40.0713749" lon="-105.229789">
  <ele>1583.0</ele>
  <time>2026-08-28T17:52:02Z</time>
  <course>0.0</course>
  <speed>0.0</speed>
  <fix>3d</fix>
</trkpt>
<trkpt lat="40.0713749" lon="-105.229789">
  <ele>1582.92</ele>
  <time>2026-08-28T17:52:02Z</time>
  <course>247.59</course>
  <speed>0.0</speed>
  <fix>3d</fix>
</trkpt>
<trkpt lat="40.0713749" lon="-105.229789">
  <ele>1583.0</ele>
  <time>2026-08-28T17:52:02Z</time>
  <course>0.0</course>
  <speed>0.0</speed>
  <fix>3d</fix>
</trkpt>
<trkpt lat="40.0713749" lon="-105.229789">
  <ele>1582.91</ele>
  <time>2026-08-28T17:52:02Z</time>
  <course>247.58</course>
  <speed>0.0</speed>
  <fix>3d</fix>
</trkpt>
<trkpt lat="40.0713749" lon="-105.229789">
  <ele>1583.0</ele>
  <time>2026-08-28T17:52:02Z</time>
  <course>0.0</course>
  <speed>0.0</speed>
  <fix>3d</fix>
</trkpt>
<trkpt lat="40.0713749" lon="-105.229789">
  <ele>1582.91</ele>
  <time>2026-08-28T17:52:02Z</time>
  <course>247.58</course>
  <speed>0.0</speed>
  <fix>3d</fix>
</trkpt>
<trkpt lat="40.0713749" lon="-105.229789">
  <ele>1583.0</ele>
  <time>2026-08-28T17:52:02Z</time>
  <course>0.0</course>
  <speed>0.0</speed>
  <fix>3d</fix>
</trkpt>
<trkpt lat="40.0713749" lon="-105.229789">
  <ele>1582.9</ele>
  <time>2026-08-28T17:52:02Z</time>
  <course>247.58</course>
  <speed>0.0</speed>
  <fix>3d</fix>
</trkpt>
<trkpt lat="40.0713749" lon="-105.229789">
  <ele>1583.0</ele>
  <time>2026-08-28T17:52:02Z</time>
  <course>0.0</course>
  <speed>0.0</speed>
  <fix>3d</fix>
</trkpt>
<trkpt lat="40.0713749" lon="-105.229789">
  <ele>1582.9</ele>
  <time>2026-08-28T17:52:02Z</time>
  <course>247.58</course>
  <speed>0.0</speed>
  <fix>3d</fix>
</trkpt>
<trkpt lat="40.0713749" lon="-105.229789">
  <ele>1583.0</ele>
  <time>2026-08-28T17:52:02Z</time>
  <course>0.0</course>
  <speed>0.0</speed>
  <fix>3d</fix>
</trkpt>
<trkpt lat="40.0713749" lon="-105.229789">
  <ele>1582.9</ele>
  <time>2026-08-28T17:52:02Z</time>
  <course>247.57</course>
  <speed>0.0</speed>
  <fix>3d</fix>
</trkpt>
<trkpt lat="40.0713749" lon="-105.229789">
  <ele>1583.0</ele>
  <time>2026-08-28T17:52:02Z</time>
  <course>0.0</course>
  <speed>0.0</speed>
  <fix>3d</fix>
</trkpt>
<trkpt lat="40.0713749" lon="-105.229789">
  <ele>1582.9</ele>
  <time>2026-08-28T17:52:02Z</time>
  <course>247.57</course>
  <speed>0.0</speed>
  <fix>3d</fix>
</trkpt>
<trkpt lat="40.0713749" lon="-105.229789">
  <ele>1583.0</ele>
  <time>2026-08-28T17:52:02Z</time>
  <course>0.0</course>
  <speed>0.0</speed>
  <fix>3d</fix>
</trkpt>
<trkpt lat="40.0713749" lon="-105.229789">
  <ele>1582.9</ele>
  <time>2026-08-28T17:52:02Z</time>
  <course>247.57</course>
  <speed>0.0</speed>
  <fix>3d</fix>
</trkpt>
<trkpt lat="40.0713749" lon="-105.229789">
  <ele>1583.0</ele>
  <time>2026-08-28T17:52:02Z</time>
  <course>0.0</course>
  <speed>0.0</speed>
  <fix>3d</fix>
</trkpt>
<trkpt lat="40.0713749" lon="-105.229789">
  <ele>1582.9</ele>
  <time>2026-08-28T17:52:02Z</time>
  <course>247.57</course>
  <speed>0.01</speed>
  <fix>3d</fix>
</trkpt>
<trkpt lat="40.0713749" lon="-105.229789">
  <ele>1583.0</ele>
  <time>2026-08-28T17:52:02Z</time>
  <course>0.0</course>
  <speed>0.0</speed>
  <fix>3d</fix>
</trkpt>
<trkpt lat="40.0713749" lon="-105.229789">
  <ele>1582.9</ele>
  <time>2026-08-28T17:52:02Z</time>
  <course>247.56</course>
  <speed>0.01</speed>
  <fix>3d</fix>
</trkpt>
<trkpt lat="40.0713749" lon="-105.229789">
  <ele>1583.0</ele>
  <time>2026-08-28T17:52:02Z</time>
  <course>0.0</course>
  <speed>0.0</speed>
  <fix>3d</fix>
</trkpt>
<trkpt lat="40.0713749" lon="-105.229789">
  <ele>1582.91</ele>
  <time>2026-08-28T17:52:02Z</time>
  <course>247.56</course>
  <speed>0.01</speed>
  <fix>3d</fix>
</trkpt>
<trkpt lat="40.0713749" lon="-105.229789">
  <ele>1583.0</ele>
  <time>2026-08-28T17:52:02Z</time>
  <course>0.0</course>
  <speed>0.0</speed>
  <fix>3d</fix>
</trkpt>
<trkpt lat="40.0713749" lon="-105.229789">
  <ele>1582.91</ele>
  <time>2026-08-28T17:52:02Z</time>
  <course>247.56</course>
  <speed>0.01</speed>
  <fix>3d</fix>
</trkpt>
<trkpt lat="40.0713749" lon="-105.229789">
  <ele>1583.0</ele>
  <time>2026-08-28T17:52:02Z</time>
  <course>0.0</course>
  <speed>0.0</speed>
  <fix>3d</fix>
</trkpt>
<trkpt lat="40.0713749" lon="-105.229789">
  <ele>1582.92</ele>
  <time>2026-08-28T17:52:02Z</time>
  <course>247.56</course>
  <speed>0.01</speed>
  <fix>3d</fix>
</trkpt>
<trkpt lat="40.0713749" lon="-105.229789">
  <ele>1583.0</ele>
  <time>2026-08-28T17:52:02Z</time>
  <course>0.0</course>
  <speed>0.0</speed>
  <fix>3d</fix>
</trkpt>
<trkpt lat="40.0713749" lon="-105.229789">
  <ele>1582.92</ele>
  <time>2026-08-28T17:52:02Z</time>
  <course>247.55</course>
  <speed>0.01</speed>
  <fix>3d</fix>
</trkpt>
<trkpt lat="40.0713749" lon="-105.229789">
  <ele>1583.0</ele>
  <time>2026-08-28T17:52:02Z</time>
  <course>0.0</course>
  <speed>0.0</speed>
  <fix>3d</fix>
</trkpt>
<trkpt lat="40.0713749" lon="-105.229789">
  <ele>1582.92</ele>
  <time>2026-08-28T17:52:02Z</time>
  <course>247.55</course>
  <speed>0.01</speed>
  <fix>3d</fix>
</trkpt>
<trkpt lat="40.0713749" lon="-105.229789">
  <ele>1583.0</ele>
  <time>2026-08-28T17:52:02Z</time>
  <course>0.0</course>
  <speed>0.0</speed>
  <fix>3d</fix>
</trkpt>
<trkpt lat="40.0713749" lon="-105.229789">
  <ele>1582.93</ele>
  <time>2026-08-28T17:52:02Z</time>
  <course>247.55</course>
  <speed>0.01</speed>
  <fix>3d</fix>
</trkpt>
<trkpt lat="40.0713749" lon="-105.229789">
  <ele>1583.0</ele>
  <time>2026-08-28T17:52:02Z</time>
  <course>0.0</course>
  <speed>0.0</speed>
  <fix>3d</fix>
</trkpt>
<trkpt lat="40.0713749" lon="-105.229789">
  <ele>1582.93</ele>
  <time>2026-08-28T17:52:02Z</time>
  <course>247.55</course>
  <speed>0.01</speed>
  <fix>3d</fix>
</trkpt>
<trkpt lat="40.0713749" lon="-105.229789">
  <ele>1583.0</ele>
  <time>2026-08-28T17:52:02Z</time>
  <course>0.0</course>
  <speed>0.0</speed>
  <fix>3d</fix>
</trkpt>
<trkpt lat="40.0713749" lon="-105.229789">
  <ele>1582.93</ele>
  <time>2026-08-28T17:52:02Z</time>
  <course>247.54</course>
  <speed>0.01</speed>
  <fix>3d</fix>
</trkpt>
<trkpt lat="40.0713749" lon="-105.229789">
  <ele>1583.0</ele>
  <time>2026-08-28T17:52:02Z</time>
  <course>0.0</course>
  <speed>0.0</speed>
  <fix>3d</fix>
</trkpt>
<trkpt lat="40.0713749" lon="-105.229789">
  <ele>1582.93</ele>
  <time>2026-08-28T17:52:02Z</time>
  <course>247.54</course>
  <speed>0.01</speed>
  <fix>3d</fix>
</trkpt>
<trkpt lat="40.0713749" lon="-105.229789">
  <ele>1583.0</ele>
  <time>2026-08-28T17:52:02Z</time>
  <course>0.0</course>
  <speed>0.0</speed>
  <fix>3d</fix>
</trkpt>
<trkpt lat="40.0713749" lon="-105.229789">
  <ele>1582.94</ele>
  <time>2026-08-28T17:52:02Z</time>
  <course>247.54</course>
  <speed>0.01</speed>
  <fix>3d</fix>
</trkpt>
<trkpt lat="40.0713749" lon="-105.229789">
  <ele>1583.0</ele>
  <time>2026-08-28T17:52:02Z</time>
  <course>0.0</course>
  <speed>0.0</speed>
  <fix>3d</fix>
</trkpt>
<trkpt lat="40.0713749" lon="-105.229789">
  <ele>1582.94</ele>
  <time>2026-08-28T17:52:02Z</time>
  <course>247.54</course>
  <speed>0.02</speed>
  <fix>3d</fix>
</trkpt>
<trkpt lat="40.0713749" lon="-105.229789">
  <ele>1583.0</ele>
  <time>2026-08-28T17:52:02Z</time>
  <course>0.0</course>
  <speed>0.0</speed>
  <fix>3d</fix>
</trkpt>
<trkpt lat="40.0713749" lon="-105.229789">
  <ele>1582.94</ele>
  <time>2026-08-28T17:52:02Z</time>
  <course>247.53</course>
  <speed>0.01</speed>
  <fix>3d</fix>
</trkpt>
<trkpt lat="40.0713749" lon="-105.229789">
  <ele>1583.0</ele>
  <time>2026-08-28T17:52:02Z</time>
  <course>0.0</course>
  <speed>0.0</speed>
  <fix>3d</fix>
</trkpt>
<trkpt lat="40.0713749" lon="-105.229789">
  <ele>1582.95</ele>
  <time>2026-08-28T17:52:02Z</time>
  <course>247.53</course>
  <speed>0.01</speed>
  <fix>3d</fix>
</trkpt>
<trkpt lat="40.0713749" lon="-105.229789">
  <ele>1583.0</ele>
  <time>2026-08-28T17:52:02Z</time>
  <course>0.0</course>
  <speed>0.0</speed>
  <fix>3d</fix>
</trkpt>
<trkpt lat="40.0713749" lon="-105.229789">
  <ele>1582.95</ele>
  <time>2026-08-28T17:52:02Z</time>
  <course>247.53</course>
  <speed>0.01</speed>
  <fix>3d</fix>
</trkpt>
<trkpt lat="40.0713749" lon="-105.229789">
  <ele>1583.0</ele>
  <time>2026-08-28T17:52:02Z</time>
  <course>0.0</course>
  <speed>0.0</speed>
  <fix>3d</fix>
</trkpt>
<trkpt lat="40.0713749" lon="-105.229789">
  <ele>1582.95</ele>
  <time>2026-08-28T17:52:02Z</time>
  <course>247.53</course>
  <speed>0.01</speed>
  <fix>3d</fix>
</trkpt>
<trkpt lat="40.0713749" lon="-105.229789">
  <ele>1583.0</ele>
  <time>2026-08-28T17:52:02Z</time>
  <course>0.0</course>
  <speed>0.0</speed>
  <fix>3d</fix>
</trkpt>
<trkpt lat="40.0713749" lon="-105.229789">
  <ele>1582.96</ele>
  <time>2026-08-28T17:52:02Z</time>
  <course>247.53</course>
  <speed>0.01</speed>
  <fix>3d</fix>
</trkpt>
<trkpt lat="40.0713749" lon="-105.229789">
  <ele>1583.0</ele>
  <time>2026-08-28T17:52:02Z</time>
  <course>0.0</course>
  <speed>0.0</speed>
  <fix>3d</fix>
</trkpt>
<trkpt lat="40.0713749" lon="-105.229789">
  <ele>1582.96</ele>
  <time>2026-08-28T17:52:02Z</time>
  <course>247.52</course>
  <speed>0.01</speed>
  <fix>3d</fix>
</trkpt>
<trkpt lat="40.0713749" lon="-105.229789">
  <ele>1583.0</ele>
  <time>2026-08-28T17:52:02Z</time>
  <course>0.0</course>
  <speed>0.0</speed>
  <fix>3d</fix>
</trkpt>
<trkpt lat="40.0713749" lon="-105.229789">
  <ele>1582.96</ele>
  <time>2026-08-28T17:52:02Z</time>
  <course>247.52</course>
  <speed>0.01</speed>
  <fix>3d</fix>
</trkpt>
<trkpt lat="40.0713749" lon="-105.229789">
  <ele>1583.0</ele>
  <time>2026-08-28T17:52:02Z</time>
  <course>0.0</course>
  <speed>0.0</speed>
  <fix>3d</fix>
</trkpt>
<trkpt lat="40.0713749" lon="-105.229789">
  <ele>1582.96</ele>
  <time>2026-08-28T17:52:02Z</time>
  <course>247.52</course>
  <speed>0.01</speed>
  <fix>3d</fix>
</trkpt>
<trkpt lat="40.0713749" lon="-105.229789">
  <ele>1583.0</ele>
  <time>2026-08-28T17:52:02Z</time>
  <course>0.0</course>
  <speed>0.0</speed>
  <fix>3d</fix>
</trkpt>
<trkpt lat="40.0713749" lon="-105.229789">
  <ele>1582.96</ele>
  <time>2026-08-28T17:52:02Z</time>
  <course>247.52</course>
  <speed>0.01</speed>
  <fix>3d</fix>
</trkpt>
<trkpt lat="40.0713749" lon="-105.229789">
  <ele>1583.0</ele>
  <time>2026-08-28T17:52:02Z</time>
  <course>0.0</course>
  <speed>0.0</speed>
  <fix>3d</fix>
</trkpt>
<trkpt lat="40.0713749" lon="-105.229789">
  <ele>1582.96</ele>
  <time>2026-08-28T17:52:02Z</time>
  <course>247.51</course>
  <speed>0.01</speed>
  <fix>3d</fix>
</trkpt>
<trkpt lat="40.0713749" lon="-105.229789">
  <ele>1583.0</ele>
  <time>2026-08-28T17:52:02Z</time>
  <course>0.0</course>
  <speed>0.0</speed>
  <fix>3d</fix>
</trkpt>
<trkpt lat="40.0713749" lon="-105.229789">
  <ele>1582.95</ele>
  <time>2026-08-28T17:52:02Z</time>
  <course>247.51</course>
  <speed>0.01</speed>
  <fix>3d</fix>
</trkpt>
<trkpt lat="40.0713749" lon="-105.229789">
  <ele>1583.0</ele>
  <time>2026-08-28T17:52:02Z</time>
  <course>0.0</course>
  <speed>0.0</speed>
  <fix>3d</fix>
</trkpt>
<trkpt lat="40.0713749" lon="-105.229789">
  <ele>1582.95</ele>
  <time>2026-08-28T17:52:02Z</time>
  <course>247.51</course>
  <speed>0.01</speed>
  <fix>3d</fix>
</trkpt>
<trkpt lat="40.0713749" lon="-105.229789">
  <ele>1583.0</ele>
  <time>2026-08-28T17:52:02Z</time>
  <course>0.0</course>
  <speed>0.0</speed>
  <fix>3d</fix>
</trkpt>
<trkpt lat="40.0713749" lon="-105.229789">
  <ele>1582.95</ele>
  <time>2026-08-28T17:52:02Z</time>
  <course>247.51</course>
  <speed>0.01</speed>
  <fix>3d</fix>
</trkpt>
<trkpt lat="40.0713749" lon="-105.229789">
  <ele>1583.0</ele>
  <time>2026-08-28T17:52:02Z</time>
  <course>0.0</course>
  <speed>0.0</speed>
  <fix>3d</fix>
</trkpt>
<trkpt lat="40.0713749" lon="-105.229789">
  <ele>1582.95</ele>
  <time>2026-08-28T17:52:02Z</time>
  <course>247.51</course>
  <speed>0.01</speed>
  <fix>3d</fix>
</trkpt>
<trkpt lat="40.0713749" lon="-105.229789">
  <ele>1583.0</ele>
  <time>2026-08-28T17:52:02Z</time>
  <course>0.0</course>
  <speed>0.0</speed>
  <fix>3d</fix>
</trkpt>
<trkpt lat="40.0713749" lon="-105.229789">
  <ele>1582.95</ele>
  <time>2026-08-28T17:52:02Z</time>
  <course>247.5</course>
  <speed>0.01</speed>
  <fix>3d</fix>
</trkpt>
<trkpt lat="40.0713749" lon="-105.229789">
  <ele>1583.0</ele>
  <time>2026-08-28T17:52:02Z</time>
  <course>0.0</course>
  <speed>0.0</speed>
  <fix>3d</fix>
</trkpt>
<trkpt lat="40.0713749" lon="-105.229789">
  <ele>1582.95</ele>
  <time>2026-08-28T17:52:02Z</time>
  <course>247.5</course>
  <speed>0.01</speed>
  <fix>3d</fix>
</trkpt>
<trkpt lat="40.0713749" lon="-105.229789">
  <ele>1583.0</ele>
  <time>2026-08-28T17:52:02Z</time>
  <course>0.0</course>
  <speed>0.0</speed>
  <fix>3d</fix>
</trkpt>
<trkpt lat="40.0713749" lon="-105.229789">
  <ele>1582.95</ele>
  <time>2026-08-28T17:52:02Z</time>
  <course>247.5</course>
  <speed>0.01</speed>
  <fix>3d</fix>
</trkpt>
<trkpt lat="40.0713749" lon="-105.229789">
  <ele>1583.0</ele>
  <time>2026-08-28T17:52:02Z</time>
  <course>0.0</course>
  <speed>0.0</speed>
  <fix>3d</fix>
</trkpt>
<trkpt lat="40.0713749" lon="-105.229789">
  <ele>1582.95</ele>
  <time>2026-08-28T17:52:02Z</time>
  <course>247.5</course>
  <speed>0.01</speed>
  <fix>3d</fix>
</trkpt>
<trkpt lat="40.0713749" lon="-105.229789">
  <ele>1583.0</ele>
  <time>2026-08-28T17:52:02Z</time>
  <course>0.0</course>
  <speed>0.0</speed>
  <fix>3d</fix>
</trkpt>
<trkpt lat="40.0713749" lon="-105.229789">
  <ele>1582.95</ele>
  <time>2026-08-28T17:52:02Z</time>
  <course>247.5</course>
  <speed>0.01</speed>
  <fix>3d</fix>
</trkpt>
<trkpt lat="40.0713749" lon="-105.229789">
  <ele>1583.0</ele>
  <time>2026-08-28T17:52:02Z</time>
  <course>0.0</course>
  <speed>0.0</speed>
  <fix>3d</fix>
</trkpt>
<trkpt lat="40.0713749" lon="-105.229789">
  <ele>1582.95</ele>
  <time>2026-08-28T17:52:02Z</time>
  <course>247.49</course>
  <speed>0.01</speed>
  <fix>3d</fix>
</trkpt>
<trkpt lat="40.0713749" lon="-105.229789">
  <ele>1583.0</ele>
  <time>2026-08-28T17:52:02Z</time>
  <course>0.0</course>
  <speed>0.0</speed>
  <fix>3d</fix>
</trkpt>
<trkpt lat="40.0713749" lon="-105.229789">
  <ele>1582.95</ele>
  <time>2026-08-28T17:52:02Z</time>
  <course>247.49</course>
  <speed>0.01</speed>
  <fix>3d</fix>
</trkpt>
<trkpt lat="40.0713749" lon="-105.229789">
  <ele>1583.0</ele>
  <time>2026-08-28T17:52:02Z</time>
  <course>0.0</course>
  <speed>0.0</speed>
  <fix>3d</fix>
</trkpt>
<trkpt lat="40.0713749" lon="-105.229789">
  <ele>1582.95</ele>
  <time>2026-08-28T17:52:02Z</time>
  <course>247.49</course>
  <speed>0.0</speed>
  <fix>3d</fix>
</trkpt>
<trkpt lat="40.0713749" lon="-105.229789">
  <ele>1583.0</ele>
  <time>2026-08-28T17:52:02Z</time>
  <course>0.0</course>
  <speed>0.0</speed>
  <fix>3d</fix>
</trkpt>
<trkpt lat="40.0713749" lon="-105.229789">
  <ele>1582.96</ele>
  <time>2026-08-28T17:52:02Z</time>
  <course>247.49</course>
  <speed>0.0</speed>
  <fix>3d</fix>
</trkpt>
<trkpt lat="40.0713749" lon="-105.229789">
  <ele>1583.0</ele>
  <time>2026-08-28T17:52:02Z</time>
  <course>0.0</course>
  <speed>0.0</speed>
  <fix>3d</fix>
</trkpt>
<trkpt lat="40.0713749" lon="-105.229789">
  <ele>1582.97</ele>
  <time>2026-08-28T17:52:02Z</time>
  <course>247.49</course>
  <speed>0.0</speed>
  <fix>3d</fix>
</trkpt>
<trkpt lat="40.0713749" lon="-105.229789">
  <ele>1583.0</ele>
  <time>2026-08-28T17:52:02Z</time>
  <course>0.0</course>
  <speed>0.0</speed>
  <fix>3d</fix>
</trkpt>
<trkpt lat="40.0713749" lon="-105.229789">
  <ele>1582.97</ele>
  <time>2026-08-28T17:52:02Z</time>
  <course>247.48</course>
  <speed>0.0</speed>
  <fix>3d</fix>
</trkpt>
<trkpt lat="40.0713749" lon="-105.229789">
  <ele>1583.0</ele>
  <time>2026-08-28T17:52:02Z</time>
  <course>0.0</course>
  <speed>0.0</speed>
  <fix>3d</fix>
</trkpt>
<trkpt lat="40.0713749" lon="-105.229789">
  <ele>1582.98</ele>
  <time>2026-08-28T17:52:02Z</time>
  <course>247.48</course>
  <speed>0.0</speed>
  <fix>3d</fix>
</trkpt>
<trkpt lat="40.0713749" lon="-105.229789">
  <ele>1583.0</ele>
  <time>2026-08-28T17:52:02Z</time>
  <course>0.0</course>
  <speed>0.0</speed>
  <fix>3d</fix>
</trkpt>
<trkpt lat="40.0713749" lon="-105.229789">
  <ele>1582.98</ele>
  <time>2026-08-28T17:52:02Z</time>
  <course>247.48</course>
  <speed>0.0</speed>
  <fix>3d</fix>
</trkpt>
<trkpt lat="40.0713749" lon="-105.229789">
  <ele>1583.0</ele>
  <time>2026-08-28T17:52:02Z</time>
  <course>0.0</course>
  <speed>0.0</speed>
  <fix>3d</fix>
</trkpt>
<trkpt lat="40.0713749" lon="-105.229789">
  <ele>1582.98</ele>
  <time>2026-08-28T17:52:02Z</time>
  <course>247.48</course>
  <speed>0.0</speed>
  <fix>3d</fix>
</trkpt>
<trkpt lat="40.0713749" lon="-105.229789">
  <ele>1583.0</ele>
  <time>2026-08-28T17:52:02Z</time>
  <course>0.0</course>
  <speed>0.0</speed>
  <fix>3d</fix>
</trkpt>
<trkpt lat="40.0713749" lon="-105.229789">
  <ele>1582.98</ele>
  <time>2026-08-28T17:52:02Z</time>
  <course>247.48</course>
  <speed>0.01</speed>
  <fix>3d</fix>
</trkpt>
<trkpt lat="40.0713749" lon="-105.229789">
  <ele>1583.0</ele>
  <time>2026-08-28T17:52:02Z</time>
  <course>0.0</course>
  <speed>0.0</speed>
  <fix>3d</fix>
</trkpt>
<trkpt lat="40.0713749" lon="-105.229789">
  <ele>1582.98</ele>
  <time>2026-08-28T17:52:02Z</time>
  <course>247.47</course>
  <speed>0.01</speed>
  <fix>3d</fix>
</trkpt>
<trkpt lat="40.0713749" lon="-105.229789">
  <ele>1583.0</ele>
  <time>2026-08-28T17:52:02Z</time>
  <course>0.0</course>
  <speed>0.0</speed>
  <fix>3d</fix>
</trkpt>
<trkpt lat="40.0713749" lon="-105.229789">
  <ele>1582.98</ele>
  <time>2026-08-28T17:52:02Z</time>
  <course>247.47</course>
  <speed>0.01</speed>
  <fix>3d</fix>
</trkpt>
<trkpt lat="40.0713749" lon="-105.229789">
  <ele>1583.0</ele>
  <time>2026-08-28T17:52:02Z</time>
  <course>0.0</course>
  <speed>0.0</speed>
  <fix>3d</fix>
</trkpt>
<trkpt lat="40.0713749" lon="-105.229789">
  <ele>1582.98</ele>
  <time>2026-08-28T17:52:02Z</time>
  <course>247.47</course>
  <speed>0.01</speed>
  <fix>3d</fix>
</trkpt>
<trkpt lat="40.0713749" lon="-105.229789">
  <ele>1583.0</ele>
  <time>2026-08-28T17:52:02Z</time>
  <course>0.0</course>
  <speed>0.0</speed>
  <fix>3d</fix>
</trkpt>
<trkpt lat="40.0713749" lon="-105.229789">
  <ele>1582.98</ele>
  <time>2026-08-28T17:52:02Z</time>
  <course>247.47</course>
  <speed>0.01</speed>
  <fix>3d</fix>
</trkpt>
<trkpt lat="40.0713749" lon="-105.229789">
  <ele>1583.0</ele>
  <time>2026-08-28T17:52:02Z</time>
  <course>0.0</course>
  <speed>0.0</speed>
  <fix>3d</fix>
</trkpt>
<trkpt lat="40.0713749" lon="-105.229789">
  <ele>1582.98</ele>
  <time>2026-08-28T17:52:02Z</time>
  <course>247.47</course>
  <speed>0.01</speed>
  <fix>3d</fix>
</trkpt>
<trkpt lat="40.0713749" lon="-105.229789">
  <ele>1583.0</ele>
  <time>2026-08-28T17:52:02Z</time>
  <course>0.0</course>
  <speed>0.0</speed>
  <fix>3d</fix>
</trkpt>
<trkpt lat="40.0713749" lon="-105.229789">
  <ele>1582.98</ele>
  <time>2026-08-28T17:52:02Z</time>
  <course>247.47</course>
  <speed>0.01</speed>
  <fix>3d</fix>
</trkpt>
<trkpt lat="40.0713749" lon="-105.229789">
  <ele>1583.0</ele>
  <time>2026-08-28T17:52:02Z</time>
  <course>0.0</course>
  <speed>0.0</speed>
  <fix>3d</fix>
</trkpt>
<trkpt lat="40.0713749" lon="-105.229789">
  <ele>1582.98</ele>
  <time>2026-08-28T17:52:02Z</time>
  <course>247.46</course>
  <speed>0.01</speed>
  <fix>3d</fix>
</trkpt>
<trkpt lat="40.0713749" lon="-105.229789">
  <ele>1583.0</ele>
  <time>2026-08-28T17:52:02Z</time>
  <course>0.0</course>
  <speed>0.0</speed>
  <fix>3d</fix>
</trkpt>
<trkpt lat="40.0713749" lon="-105.229789">
  <ele>1582.98</ele>
  <time>2026-08-28T17:52:02Z</time>
  <course>247.46</course>
  <speed>0.01</speed>
  <fix>3d</fix>
</trkpt>
<trkpt lat="40.0713749" lon="-105.229789">
  <ele>1583.0</ele>
  <time>2026-08-28T17:52:02Z</time>
  <course>0.0</course>
  <speed>0.0</speed>
  <fix>3d</fix>
</trkpt>
<trkpt lat="40.0713749" lon="-105.229789">
  <ele>1582.98</ele>
  <time>2026-08-28T17:52:02Z</time>
  <course>247.46</course>
  <speed>0.01</speed>
  <fix>3d</fix>
</trkpt>
<trkpt lat="40.0713749" lon="-105.229789">
  <ele>1583.0</ele>
  <time>2026-08-28T17:52:02Z</time>
  <course>0.0</course>
  <speed>0.0</speed>
  <fix>3d</fix>
</trkpt>
<trkpt lat="40.0713749" lon="-105.229789">
  <ele>1582.98</ele>
  <time>2026-08-28T17:52:02Z</time>
  <course>247.46</course>
  <speed>0.01</speed>
  <fix>3d</fix>
</trkpt>
<trkpt lat="40.0713749" lon="-105.229789">
  <ele>1583.0</ele>
  <time>2026-08-28T17:52:02Z</time>
  <course>0.0</course>
  <speed>0.0</speed>
  <fix>3d</fix>
</trkpt>
<trkpt lat="40.0713749" lon="-105.229789">
  <ele>1582.98</ele>
  <time>2026-08-28T17:52:02Z</time>
  <course>247.46</course>
  <speed>0.01</speed>
  <fix>3d</fix>
</trkpt>
<trkpt lat="40.0713749" lon="-105.229789">
  <ele>1583.0</ele>
  <time>2026-08-28T17:52:02Z</time>
  <course>0.0</course>
  <speed>0.0</speed>
  <fix>3d</fix>
</trkpt>
<trkpt lat="40.0713749" lon="-105.229789">
  <ele>1582.98</ele>
  <time>2026-08-28T17:52:02Z</time>
  <course>247.46</course>
  <speed>0.01</speed>
  <fix>3d</fix>
</trkpt>
<trkpt lat="40.0713749" lon="-105.229789">
  <ele>1583.0</ele>
  <time>2026-08-28T17:52:02Z</time>
  <course>0.0</course>
  <speed>0.0</speed>
  <fix>3d</fix>
</trkpt>
<trkpt lat="40.0713749" lon="-105.229789">
  <ele>1582.98</ele>
  <time>2026-08-28T17:52:02Z</time>
  <course>247.45</course>
  <speed>0.01</speed>
  <fix>3d</fix>
</trkpt>
<trkpt lat="40.0713749" lon="-105.229789">
  <ele>1583.0</ele>
  <time>2026-08-28T17:52:02Z</time>
  <course>0.0</course>
  <speed>0.0</speed>
  <fix>3d</fix>
</trkpt>
<trkpt lat="40.0713749" lon="-105.229789">
  <ele>1582.98</ele>
  <time>2026-08-28T17:52:02Z</time>
  <course>247.45</course>
  <speed>0.01</speed>
  <fix>3d</fix>
</trkpt>
<trkpt lat="40.0713749" lon="-105.229789">
  <ele>1583.0</ele>
  <time>2026-08-28T17:52:02Z</time>
  <course>0.0</course>
  <speed>0.0</speed>
  <fix>3d</fix>
</trkpt>
<trkpt lat="40.0713749" lon="-105.229789">
  <ele>1582.98</ele>
  <time>2026-08-28T17:52:02Z</time>
  <course>247.45</course>
  <speed>0.01</speed>
  <fix>3d</fix>
</trkpt>
<trkpt lat="40.0713749" lon="-105.229789">
  <ele>1583.0</ele>
  <time>2026-08-28T17:52:02Z</time>
  <course>0.0</course>
  <speed>0.0</speed>
  <fix>3d</fix>
</trkpt>
<trkpt lat="40.0713749" lon="-105.229789">
  <ele>1582.98</ele>
  <time>2026-08-28T17:52:02Z</time>
  <course>247.45</course>
  <speed>0.01</speed>
  <fix>3d</fix>
</trkpt>
<trkpt lat="40.0713749" lon="-105.229789">
  <ele>1583.0</ele>
  <time>2026-08-28T17:52:02Z</time>
  <course>0.0</course>
  <speed>0.0</speed>
  <fix>3d</fix>
</trkpt>
<trkpt lat="40.0713749" lon="-105.229789">
  <ele>1582.98</ele>
  <time>2026-08-28T17:52:02Z</time>
  <course>247.45</course>
  <speed>0.01</speed>
  <fix>3d</fix>
</trkpt>
<trkpt lat="40.0713749" lon="-105.229789">
  <ele>1583.0</ele>
  <time>2026-08-28T17:52:02Z</time>
  <course>0.0</course>
  <speed>0.0</speed>
  <fix>3d</fix>
</trkpt>
<trkpt lat="40.0713749" lon="-105.229789">
  <ele>1582.99</ele>
  <time>2026-08-28T17:52:02Z</time>
  <course>247.45</course>
  <speed>0.01</speed>
  <fix>3d</fix>
</trkpt>
<trkpt lat="40.0713749" lon="-105.229789">
  <ele>1583.0</ele>
  <time>2026-08-28T17:52:02Z</time>
  <course>0.0</course>
  <speed>0.0</speed>
  <fix>3d</fix>
</trkpt>
<trkpt lat="40.0713749" lon="-105.229789">
  <ele>1582.99</ele>
  <time>2026-08-28T17:52:02Z</time>
  <course>247.44</course>
  <speed>0.01</speed>
  <fix>3d</fix>
</trkpt>
<trkpt lat="40.0713749" lon="-105.229789">
  <ele>1583.0</ele>
  <time>2026-08-28T17:52:02Z</time>
  <course>0.0</course>
  <speed>0.0</speed>
  <fix>3d</fix>
</trkpt>
<trkpt lat="40.0713749" lon="-105.229789">
  <ele>1582.99</ele>
  <time>2026-08-28T17:52:02Z</time>
  <course>247.44</course>
  <speed>0.01</speed>
  <fix>3d</fix>
</trkpt>
<trkpt lat="40.0713749" lon="-105.229789">
  <ele>1583.0</ele>
  <time>2026-08-28T17:52:02Z</time>
  <course>0.0</course>
  <speed>0.0</speed>
  <fix>3d</fix>
</trkpt>
<trkpt lat="40.0713749" lon="-105.229789">
  <ele>1582.99</ele>
  <time>2026-08-28T17:52:02Z</time>
  <course>247.44</course>
  <speed>0.01</speed>
  <fix>3d</fix>
</trkpt>
<trkpt lat="40.0713749" lon="-105.229789">
  <ele>1583.0</ele>
  <time>2026-08-28T17:52:02Z</time>
  <course>0.0</course>
  <speed>0.0</speed>
  <fix>3d</fix>
</trkpt>
<trkpt lat="40.0713749" lon="-105.229789">
  <ele>1582.99</ele>
  <time>2026-08-28T17:52:02Z</time>
  <course>247.44</course>
  <speed>0.01</speed>
  <fix>3d</fix>
</trkpt>
<trkpt lat="40.0713749" lon="-105.229789">
  <ele>1583.0</ele>
  <time>2026-08-28T17:52:02Z</time>
  <course>0.0</course>
  <speed>0.0</speed>
  <fix>3d</fix>
</trkpt>
<trkpt lat="40.071375" lon="-105.229789">
  <ele>1582.99</ele>
  <time>2026-08-28T17:52:02Z</time>
  <course>247.44</course>
  <speed>0.01</speed>
  <fix>3d</fix>
</trkpt>
<trkpt lat="40.0713749" lon="-105.229789">
  <ele>1583.0</ele>
  <time>2026-08-28T17:52:02Z</time>
  <course>0.0</course>
  <speed>0.0</speed>
  <fix>3d</fix>
</trkpt>
<trkpt lat="40.071375" lon="-105.229789">
  <ele>1582.99</ele>
  <time>2026-08-28T17:52:02Z</time>
  <course>247.44</course>
  <speed>0.01</speed>
  <fix>3d</fix>
</trkpt>
<trkpt lat="40.0713749" lon="-105.229789">
  <ele>1583.0</ele>
  <time>2026-08-28T17:52:02Z</time>
  <course>0.0</course>
  <speed>0.0</speed>
  <fix>3d</fix>
</trkpt>
<trkpt lat="40.071375" lon="-105.229789">
  <ele>1582.99</ele>
  <time>2026-08-28T17:52:02Z</time>
  <course>247.44</course>
  <speed>0.01</speed>
  <fix>3d</fix>
</trkpt>
<trkpt lat="40.0713749" lon="-105.229789">
  <ele>1583.0</ele>
  <time>2026-08-28T17:52:02Z</time>
  <course>0.0</course>
  <speed>0.0</speed>
  <fix>3d</fix>
</trkpt>
<trkpt lat="40.071375" lon="-105.229789">
  <ele>1582.99</ele>
  <time>2026-08-28T17:52:02Z</time>
  <course>247.43</course>
  <speed>0.01</speed>
  <fix>3d</fix>
</trkpt>
<trkpt lat="40.0713749" lon="-105.229789">
  <ele>1583.0</ele>
  <time>2026-08-28T17:52:02Z</time>
  <course>0.0</course>
  <speed>0.0</speed>
  <fix>3d</fix>
</trkpt>
<trkpt lat="40.071375" lon="-105.229789">
  <ele>1582.99</ele>
  <time>2026-08-28T17:52:02Z</time>
  <course>247.43</course>
  <speed>0.01</speed>
  <fix>3d</fix>
</trkpt>
<trkpt lat="40.0713749" lon="-105.229789">
  <ele>1583.0</ele>
  <time>2026-08-28T17:52:02Z</time>
  <course>0.0</course>
  <speed>0.0</speed>
  <fix>3d</fix>
</trkpt>
<trkpt lat="40.071375" lon="-105.229789">
  <ele>1582.99</ele>
  <time>2026-08-28T17:52:02Z</time>
  <course>247.43</course>
  <speed>0.01</speed>
  <fix>3d</fix>
</trkpt>
<trkpt lat="40.0713749" lon="-105.229789">
  <ele>1583.0</ele>
  <time>2026-08-28T17:52:02Z</time>
  <course>0.0</course>
  <speed>0.0</speed>
  <fix>3d</fix>
</trkpt>
<trkpt lat="40.071375" lon="-105.229789">
  <ele>1583.0</ele>
  <time>2026-08-28T17:52:02Z</time>
  <course>247.43</course>
  <speed>0.02</speed>
  <fix>3d</fix>
</trkpt>
<trkpt lat="40.0713749" lon="-105.229789">
  <ele>1583.0</ele>
  <time>2026-08-28T17:52:02Z</time>
  <course>0.0</course>
  <speed>0.0</speed>
  <fix>3d</fix>
</trkpt>
<trkpt lat="40.071375" lon="-105.229789">
  <ele>1583.0</ele>
  <time>2026-08-28T17:52:02Z</time>
  <course>247.43</course>
  <speed>0.01</speed>
  <fix>3d</fix>
</trkpt>
<trkpt lat="40.0713749" lon="-105.229789">
  <ele>1583.0</ele>
  <time>2026-08-28T17:52:02Z</time>
  <course>0.0</course>
  <speed>0.0</speed>
  <fix>3d</fix>
</trkpt>
<trkpt lat="40.071375" lon="-105.229789">
  <ele>1583.0</ele>
  <time>2026-08-28T17:52:02Z</time>
  <course>247.43</course>
  <speed>0.02</speed>
  <fix>3d</fix>
</trkpt>
<trkpt lat="40.0713749" lon="-105.229789">
  <ele>1583.0</ele>
  <time>2026-08-28T17:52:02Z</time>
  <course>0.0</course>
  <speed>0.0</speed>
  <fix>3d</fix>
</trkpt>
<trkpt lat="40.071375" lon="-105.229789">
  <ele>1583.0</ele>
  <time>2026-08-28T17:52:02Z</time>
  <course>247.43</course>
  <speed>0.01</speed>
  <fix>3d</fix>
</trkpt>
<trkpt lat="40.0713749" lon="-105.229789">
  <ele>1583.0</ele>
  <time>2026-08-28T17:52:02Z</time>
  <course>0.0</course>
  <speed>0.0</speed>
  <fix>3d</fix>
</trkpt>
<trkpt lat="40.071375" lon="-105.229789">
  <ele>1583.0</ele>
  <time>2026-08-28T17:52:02Z</time>
  <course>247.42</course>
  <speed>0.01</speed>
  <fix>3d</fix>
</trkpt>
<trkpt lat="40.0713749" lon="-105.229789">
  <ele>1583.0</ele>
  <time>2026-08-28T17:52:02Z</time>
  <course>0.0</course>
  <speed>0.0</speed>
  <fix>3d</fix>
</trkpt>
<trkpt lat="40.071375" lon="-105.229789">
  <ele>1583.01</ele>
  <time>2026-08-28T17:52:02Z</time>
  <course>247.42</course>
  <speed>0.01</speed>
  <fix>3d</fix>
</trkpt>
<trkpt lat="40.0713749" lon="-105.229789">
  <ele>1583.0</ele>
  <time>2026-08-28T17:52:02Z</time>
  <course>0.0</course>
  <speed>0.0</speed>
  <fix>3d</fix>
</trkpt>
<trkpt lat="40.071375" lon="-105.229789">
  <ele>1583.01</ele>
  <time>2026-08-28T17:52:02Z</time>
  <course>247.42</course>
  <speed>0.01</speed>
  <fix>3d</fix>
</trkpt>
<trkpt lat="40.0713749" lon="-105.229789">
  <ele>1583.0</ele>
  <time>2026-08-28T17:52:02Z</time>
  <course>0.0</course>
  <speed>0.0</speed>
  <fix>3d</fix>
</trkpt>
<trkpt lat="40.071375" lon="-105.229789">
  <ele>1583.01</ele>
  <time>2026-08-28T17:52:02Z</time>
  <course>247.42</course>
  <speed>0.01</speed>
  <fix>3d</fix>
</trkpt>
<trkpt lat="40.0713749" lon="-105.229789">
  <ele>1583.0</ele>
  <time>2026-08-28T17:52:02Z</time>
  <course>0.0</course>
  <speed>0.0</speed>
  <fix>3d</fix>
</trkpt>
<trkpt lat="40.071375" lon="-105.229789">
  <ele>1583.01</ele>
  <time>2026-08-28T17:52:02Z</time>
  <course>247.42</course>
  <speed>0.01</speed>
  <fix>3d</fix>
</trkpt>
<trkpt lat="40.0713749" lon="-105.229789">
  <ele>1583.0</ele>
  <time>2026-08-28T17:52:02Z</time>
  <course>0.0</course>
  <speed>0.0</speed>
  <fix>3d</fix>
</trkpt>
<trkpt lat="40.071375" lon="-105.229789">
  <ele>1583.01</ele>
  <time>2026-08-28T17:52:02Z</time>
  <course>247.42</course>
  <speed>0.01</speed>
  <fix>3d</fix>
</trkpt>
<trkpt lat="40.0713749" lon="-105.229789">
  <ele>1583.0</ele>
  <time>2026-08-28T17:52:02Z</time>
  <course>0.0</course>
  <speed>0.0</speed>
  <fix>3d</fix>
</trkpt>
<trkpt lat="40.071375" lon="-105.229789">
  <ele>1583.02</ele>
  <time>2026-08-28T17:52:02Z</time>
  <course>247.42</course>
  <speed>0.01</speed>
  <fix>3d</fix>
</trkpt>
<trkpt lat="40.0713749" lon="-105.229789">
  <ele>1583.0</ele>
  <time>2026-08-28T17:52:02Z</time>
  <course>0.0</course>
  <speed>0.0</speed>
  <fix>3d</fix>
</trkpt>
<trkpt lat="40.071375" lon="-105.229789">
  <ele>1583.02</ele>
  <time>2026-08-28T17:52:02Z</time>
  <course>247.41</course>
  <speed>0.01</speed>
  <fix>3d</fix>
</trkpt>
<trkpt lat="40.0713749" lon="-105.229789">
  <ele>1583.0</ele>
  <time>2026-08-28T17:52:02Z</time>
  <course>0.0</course>
  <speed>0.0</speed>
  <fix>3d</fix>
</trkpt>
<trkpt lat="40.071375" lon="-105.229789">
  <ele>1583.02</ele>
  <time>2026-08-28T17:52:02Z</time>
  <course>247.41</course>
  <speed>0.01</speed>
  <fix>3d</fix>
</trkpt>
<trkpt lat="40.0713749" lon="-105.229789">
  <ele>1583.0</ele>
  <time>2026-08-28T17:52:02Z</time>
  <course>0.0</course>
  <speed>0.0</speed>
  <fix>3d</fix>
</trkpt>
<trkpt lat="40.071375" lon="-105.229789">
  <ele>1583.03</ele>
  <time>2026-08-28T17:52:02Z</time>
  <course>247.41</course>
  <speed>0.01</speed>
  <fix>3d</fix>
</trkpt>
<trkpt lat="40.0713749" lon="-105.229789">
  <ele>1583.0</ele>
  <time>2026-08-28T17:52:02Z</time>
  <course>0.0</course>
  <speed>0.0</speed>
  <fix>3d</fix>
</trkpt>
<trkpt lat="40.071375" lon="-105.229789">
  <ele>1583.03</ele>
  <time>2026-08-28T17:52:02Z</time>
  <course>247.41</course>
  <speed>0.01</speed>
  <fix>3d</fix>
</trkpt>
<trkpt lat="40.0713749" lon="-105.229789">
  <ele>1583.0</ele>
  <time>2026-08-28T17:52:02Z</time>
  <course>0.0</course>
  <speed>0.0</speed>
  <fix>3d</fix>
</trkpt>
<trkpt lat="40.071375" lon="-105.229789">
  <ele>1583.04</ele>
  <time>2026-08-28T17:52:02Z</time>
  <course>247.41</course>
  <speed>0.01</speed>
  <fix>3d</fix>
</trkpt>
<trkpt lat="40.0713749" lon="-105.229789">
  <ele>1583.0</ele>
  <time>2026-08-28T17:52:02Z</time>
  <course>0.0</course>
  <speed>0.0</speed>
  <fix>3d</fix>
</trkpt>
<trkpt lat="40.071375" lon="-105.229789">
  <ele>1583.04</ele>
  <time>2026-08-28T17:52:02Z</time>
  <course>247.41</course>
  <speed>0.01</speed>
  <fix>3d</fix>
</trkpt>
<trkpt lat="40.0713749" lon="-105.229789">
  <ele>1583.0</ele>
  <time>2026-08-28T17:52:02Z</time>
  <course>0.0</course>
  <speed>0.0</speed>
  <fix>3d</fix>
</trkpt>
<trkpt lat="40.071375" lon="-105.229789">
  <ele>1583.04</ele>
  <time>2026-08-28T17:52:02Z</time>
  <course>247.41</course>
  <speed>0.01</speed>
  <fix>3d</fix>
</trkpt>
<trkpt lat="40.0713749" lon="-105.229789">
  <ele>1583.0</ele>
  <time>2026-08-28T17:52:02Z</time>
  <course>0.0</course>
  <speed>0.0</speed>
  <fix>3d</fix>
</trkpt>
<trkpt lat="40.071375" lon="-105.229789">
  <ele>1583.05</ele>
  <time>2026-08-28T17:52:02Z</time>
  <course>247.41</course>
  <speed>0.01</speed>
  <fix>3d</fix>
</trkpt>
<trkpt lat="40.0713749" lon="-105.229789">
  <ele>1583.0</ele>
  <time>2026-08-28T17:52:02Z</time>
  <course>0.0</course>
  <speed>0.0</speed>
  <fix>3d</fix>
</trkpt>
<trkpt lat="40.071375" lon="-105.229789">
  <ele>1583.05</ele>
  <time>2026-08-28T17:52:02Z</time>
  <course>247.4</course>
  <speed>0.01</speed>
  <fix>3d</fix>
</trkpt>
<trkpt lat="40.0713749" lon="-105.229789">
  <ele>1583.0</ele>
  <time>2026-08-28T17:52:02Z</time>
  <course>0.0</course>
  <speed>0.0</speed>
  <fix>3d</fix>
</trkpt>
<trkpt lat="40.071375" lon="-105.229789">
  <ele>1583.05</ele>
  <time>2026-08-28T17:52:02Z</time>
  <course>247.4</course>
  <speed>0.01</speed>
  <fix>3d</fix>
</trkpt>
<trkpt lat="40.0713749" lon="-105.229789">
  <ele>1583.0</ele>
  <time>2026-08-28T17:52:02Z</time>
  <course>0.0</course>
  <speed>0.0</speed>
  <fix>3d</fix>
</trkpt>
<trkpt lat="40.071375" lon="-105.229789">
  <ele>1583.06</ele>
  <time>2026-08-28T17:52:02Z</time>
  <course>247.4</course>
  <speed>0.01</speed>
  <fix>3d</fix>
</trkpt>
<trkpt lat="40.0713749" lon="-105.229789">
  <ele>1583.0</ele>
  <time>2026-08-28T17:52:02Z</time>
  <course>0.0</course>
  <speed>0.0</speed>
  <fix>3d</fix>
</trkpt>
<trkpt lat="40.071375" lon="-105.229789">
  <ele>1583.06</ele>
  <time>2026-08-28T17:52:02Z</time>
  <course>247.4</course>
  <speed>0.01</speed>
  <fix>3d</fix>
</trkpt>
<trkpt lat="40.0713749" lon="-105.229789">
  <ele>1583.0</ele>
  <time>2026-08-28T17:52:02Z</time>
  <course>0.0</course>
  <speed>0.0</speed>
  <fix>3d</fix>
</trkpt>
<trkpt lat="40.071375" lon="-105.229789">
  <ele>1583.07</ele>
  <time>2026-08-28T17:52:02Z</time>
  <course>247.4</course>
  <speed>0.01</speed>
  <fix>3d</fix>
</trkpt>
<trkpt lat="40.0713749" lon="-105.229789">
  <ele>1583.0</ele>
  <time>2026-08-28T17:52:02Z</time>
  <course>0.0</course>
  <speed>0.0</speed>
  <fix>3d</fix>
</trkpt>
<trkpt lat="40.071375" lon="-105.229789">
  <ele>1583.07</ele>
  <time>2026-08-28T17:52:02Z</time>
  <course>247.4</course>
  <speed>0.01</speed>
  <fix>3d</fix>
</trkpt>
<trkpt lat="40.0713749" lon="-105.229789">
  <ele>1583.0</ele>
  <time>2026-08-28T17:52:02Z</time>
  <course>0.0</course>
  <speed>0.0</speed>
  <fix>3d</fix>
</trkpt>
<trkpt lat="40.071375" lon="-105.229789">
  <ele>1583.07</ele>
  <time>2026-08-28T17:52:02Z</time>
  <course>247.4</course>
  <speed>0.01</speed>
  <fix>3d</fix>
</trkpt>
<trkpt lat="40.0713749" lon="-105.229789">
  <ele>1583.0</ele>
  <time>2026-08-28T17:52:02Z</time>
  <course>0.0</course>
  <speed>0.0</speed>
  <fix>3d</fix>
</trkpt>
<trkpt lat="40.071375" lon="-105.229789">
  <ele>1583.07</ele>
  <time>2026-08-28T17:52:02Z</time>
  <course>247.39</course>
  <speed>0.01</speed>
  <fix>3d</fix>
</trkpt>
<trkpt lat="40.0713749" lon="-105.229789">
  <ele>1583.0</ele>
  <time>2026-08-28T17:52:02Z</time>
  <course>0.0</course>
  <speed>0.0</speed>
  <fix>3d</fix>
</trkpt>
<trkpt lat="40.071375" lon="-105.229789">
  <ele>1583.08</ele>
  <time>2026-08-28T17:52:02Z</time>
  <course>247.39</course>
  <speed>0.01</speed>
  <fix>3d</fix>
</trkpt>
<trkpt lat="40.0713749" lon="-105.229789">
  <ele>1583.0</ele>
  <time>2026-08-28T17:52:02Z</time>
  <course>0.0</course>
  <speed>0.0</speed>
  <fix>3d</fix>
</trkpt>
<trkpt lat="40.071375" lon="-105.229789">
  <ele>1583.08</ele>
  <time>2026-08-28T17:52:02Z</time>
  <course>247.39</course>
  <speed>0.01</speed>
  <fix>3d</fix>
</trkpt>
<trkpt lat="40.0713749" lon="-105.229789">
  <ele>1583.0</ele>
  <time>2026-08-28T17:52:02Z</time>
  <course>0.0</course>
  <speed>0.0</speed>
  <fix>3d</fix>
</trkpt>
<trkpt lat="40.071375" lon="-105.229789">
  <ele>1583.08</ele>
  <time>2026-08-28T17:52:02Z</time>
  <course>247.39</course>
  <speed>0.01</speed>
  <fix>3d</fix>
</trkpt>
<trkpt lat="40.0713749" lon="-105.229789">
  <ele>1583.0</ele>
  <time>2026-08-28T17:52:02Z</time>
  <course>0.0</course>
  <speed>0.0</speed>
  <fix>3d</fix>
</trkpt>
<trkpt lat="40.071375" lon="-105.229789">
  <ele>1583.09</ele>
  <time>2026-08-28T17:52:02Z</time>
  <course>247.39</course>
  <speed>0.01</speed>
  <fix>3d</fix>
</trkpt>
<trkpt lat="40.0713749" lon="-105.229789">
  <ele>1583.0</ele>
  <time>2026-08-28T17:52:02Z</time>
  <course>0.0</course>
  <speed>0.0</speed>
  <fix>3d</fix>
</trkpt>
<trkpt lat="40.071375" lon="-105.229789">
  <ele>1583.09</ele>
  <time>2026-08-28T17:52:02Z</time>
  <course>247.39</course>
  <speed>0.01</speed>
  <fix>3d</fix>
</trkpt>
<trkpt lat="40.0713749" lon="-105.229789">
  <ele>1583.0</ele>
  <time>2026-08-28T17:52:02Z</time>
  <course>0.0</course>
  <speed>0.0</speed>
  <fix>3d</fix>
</trkpt>
<trkpt lat="40.071375" lon="-105.229789">
  <ele>1583.09</ele>
  <time>2026-08-28T17:52:02Z</time>
  <course>247.39</course>
  <speed>0.01</speed>
  <fix>3d</fix>
</trkpt>
<trkpt lat="40.0713749" lon="-105.229789">
  <ele>1583.0</ele>
  <time>2026-08-28T17:52:02Z</time>
  <course>0.0</course>
  <speed>0.0</speed>
  <fix>3d</fix>
</trkpt>
<trkpt lat="40.071375" lon="-105.229789">
  <ele>1583.09</ele>
  <time>2026-08-28T17:52:02Z</time>
  <course>247.39</course>
  <speed>0.01</speed>
  <fix>3d</fix>
</trkpt>
<trkpt lat="40.0713749" lon="-105.229789">
  <ele>1583.0</ele>
  <time>2026-08-28T17:52:02Z</time>
  <course>0.0</course>
  <speed>0.0</speed>
  <fix>3d</fix>
</trkpt>
<trkpt lat="40.071375" lon="-105.229789">
  <ele>1583.09</ele>
  <time>2026-08-28T17:52:02Z</time>
  <course>247.38</course>
  <speed>0.01</speed>
  <fix>3d</fix>
</trkpt>
<trkpt lat="40.0713749" lon="-105.229789">
  <ele>1583.0</ele>
  <time>2026-08-28T17:52:02Z</time>
  <course>0.0</course>
  <speed>0.0</speed>
  <fix>3d</fix>
</trkpt>
<trkpt lat="40.071375" lon="-105.229789">
  <ele>1583.1</ele>
  <time>2026-08-28T17:52:02Z</time>
  <course>247.38</course>
  <speed>0.01</speed>
  <fix>3d</fix>
</trkpt>
<trkpt lat="40.0713749" lon="-105.229789">
  <ele>1583.0</ele>
  <time>2026-08-28T17:52:02Z</time>
  <course>0.0</course>
  <speed>0.0</speed>
  <fix>3d</fix>
</trkpt>
<trkpt lat="40.071375" lon="-105.229789">
  <ele>1583.1</ele>
  <time>2026-08-28T17:52:02Z</time>
  <course>247.38</course>
  <speed>0.01</speed>
  <fix>3d</fix>
</trkpt>
<trkpt lat="40.0713749" lon="-105.229789">
  <ele>1583.0</ele>
  <time>2026-08-28T17:52:02Z</time>
  <course>0.0</course>
  <speed>0.0</speed>
  <fix>3d</fix>
</trkpt>
<trkpt lat="40.071375" lon="-105.229789">
  <ele>1583.1</ele>
  <time>2026-08-28T17:52:02Z</time>
  <course>247.38</course>
  <speed>0.01</speed>
  <fix>3d</fix>
</trkpt>
<trkpt lat="40.0713749" lon="-105.229789">
  <ele>1583.0</ele>
  <time>2026-08-28T17:52:02Z</time>
  <course>0.0</course>
  <speed>0.0</speed>
  <fix>3d</fix>
</trkpt>
<trkpt lat="40.071375" lon="-105.229789">
  <ele>1583.1</ele>
  <time>2026-08-28T17:52:02Z</time>
  <course>247.38</course>
  <speed>0.01</speed>
  <fix>3d</fix>
</trkpt>
<trkpt lat="40.0713749" lon="-105.229789">
  <ele>1583.0</ele>
  <time>2026-08-28T17:52:02Z</time>
  <course>0.0</course>
  <speed>0.0</speed>
  <fix>3d</fix>
</trkpt>
<trkpt lat="40.071375" lon="-105.229789">
  <ele>1583.11</ele>
  <time>2026-08-28T17:52:02Z</time>
  <course>247.38</course>
  <speed>0.01</speed>
  <fix>3d</fix>
</trkpt>
<trkpt lat="40.0713749" lon="-105.229789">
  <ele>1583.0</ele>
  <time>2026-08-28T17:52:02Z</time>
  <course>0.0</course>
  <speed>0.0</speed>
  <fix>3d</fix>
</trkpt>
<trkpt lat="40.071375" lon="-105.229789">
  <ele>1583.11</ele>
  <time>2026-08-28T17:52:02Z</time>
  <course>247.38</course>
  <speed>0.01</speed>
  <fix>3d</fix>
</trkpt>
<trkpt lat="40.0713749" lon="-105.229789">
  <ele>1583.0</ele>
  <time>2026-08-28T17:52:02Z</time>
  <course>0.0</course>
  <speed>0.0</speed>
  <fix>3d</fix>
</trkpt>
<trkpt lat="40.071375" lon="-105.229789">
  <ele>1583.11</ele>
  <time>2026-08-28T17:52:02Z</time>
  <course>247.38</course>
  <speed>0.01</speed>
  <fix>3d</fix>
</trkpt>
<trkpt lat="40.0713749" lon="-105.229789">
  <ele>1583.0</ele>
  <time>2026-08-28T17:52:02Z</time>
  <course>0.0</course>
  <speed>0.0</speed>
  <fix>3d</fix>
</trkpt>
<trkpt lat="40.071375" lon="-105.229789">
  <ele>1583.11</ele>
  <time>2026-08-28T17:52:02Z</time>
  <course>247.37</course>
  <speed>0.01</speed>
  <fix>3d</fix>
</trkpt>
<trkpt lat="40.0713749" lon="-105.229789">
  <ele>1583.0</ele>
  <time>2026-08-28T17:52:02Z</time>
  <course>0.0</course>
  <speed>0.0</speed>
  <fix>3d</fix>
</trkpt>
<trkpt lat="40.071375" lon="-105.229789">
  <ele>1583.12</ele>
  <time>2026-08-28T17:52:02Z</time>
  <course>247.37</course>
  <speed>0.01</speed>
  <fix>3d</fix>
</trkpt>
<trkpt lat="40.0713749" lon="-105.229789">
  <ele>1583.0</ele>
  <time>2026-08-28T17:52:02Z</time>
  <course>0.0</course>
  <speed>0.0</speed>
  <fix>3d</fix>
</trkpt>
<trkpt lat="40.071375" lon="-105.229789">
  <ele>1583.12</ele>
  <time>2026-08-28T17:52:02Z</time>
  <course>247.37</course>
  <speed>0.01</speed>
  <fix>3d</fix>
</trkpt>
<trkpt lat="40.0713749" lon="-105.229789">
  <ele>1583.0</ele>
  <time>2026-08-28T17:52:02Z</time>
  <course>0.0</course>
  <speed>0.0</speed>
  <fix>3d</fix>
</trkpt>
<trkpt lat="40.071375" lon="-105.229789">
  <ele>1583.12</ele>
  <time>2026-08-28T17:52:02Z</time>
  <course>247.37</course>
  <speed>0.01</speed>
  <fix>3d</fix>
</trkpt>
<trkpt lat="40.0713749" lon="-105.229789">
  <ele>1583.0</ele>
  <time>2026-08-28T17:52:02Z</time>
  <course>0.0</course>
  <speed>0.0</speed>
  <fix>3d</fix>
</trkpt>
<trkpt lat="40.071375" lon="-105.229789">
  <ele>1583.13</ele>
  <time>2026-08-28T17:52:02Z</time>
  <course>247.37</course>
  <speed>0.01</speed>
  <fix>3d</fix>
</trkpt>
<trkpt lat="40.0713749" lon="-105.229789">
  <ele>1583.0</ele>
  <time>2026-08-28T17:52:02Z</time>
  <course>0.0</course>
  <speed>0.0</speed>
  <fix>3d</fix>
</trkpt>
<trkpt lat="40.071375" lon="-105.229789">
  <ele>1583.13</ele>
  <time>2026-08-28T17:52:02Z</time>
  <course>247.37</course>
  <speed>0.01</speed>
  <fix>3d</fix>
</trkpt>
<trkpt lat="40.0713749" lon="-105.229789">
  <ele>1583.0</ele>
  <time>2026-08-28T17:52:02Z</time>
  <course>0.0</course>
  <speed>0.0</speed>
  <fix>3d</fix>
</trkpt>
<trkpt lat="40.071375" lon="-105.229789">
  <ele>1583.13</ele>
  <time>2026-08-28T17:52:02Z</time>
  <course>247.37</course>
  <speed>0.01</speed>
  <fix>3d</fix>
</trkpt>
<trkpt lat="40.0713749" lon="-105.229789">
  <ele>1583.0</ele>
  <time>2026-08-28T17:52:02Z</time>
  <course>0.0</course>
  <speed>0.0</speed>
  <fix>3d</fix>
</trkpt>
<trkpt lat="40.071375" lon="-105.229789">
  <ele>1583.14</ele>
  <time>2026-08-28T17:52:02Z</time>
  <course>247.37</course>
  <speed>0.01</speed>
  <fix>3d</fix>
</trkpt>
<trkpt lat="40.0713749" lon="-105.229789">
  <ele>1583.0</ele>
  <time>2026-08-28T17:52:02Z</time>
  <course>0.0</course>
  <speed>0.0</speed>
  <fix>3d</fix>
</trkpt>
<trkpt lat="40.071375" lon="-105.229789">
  <ele>1583.14</ele>
  <time>2026-08-28T17:52:02Z</time>
  <course>247.37</course>
  <speed>0.01</speed>
  <fix>3d</fix>
</trkpt>
<trkpt lat="40.0713749" lon="-105.229789">
  <ele>1583.0</ele>
  <time>2026-08-28T17:52:02Z</time>
  <course>0.0</course>
  <speed>0.0</speed>
  <fix>3d</fix>
</trkpt>
<trkpt lat="40.071375" lon="-105.229789">
  <ele>1583.14</ele>
  <time>2026-08-28T17:52:02Z</time>
  <course>247.36</course>
  <speed>0.01</speed>
  <fix>3d</fix>
</trkpt>
<trkpt lat="40.0713749" lon="-105.229789">
  <ele>1583.0</ele>
  <time>2026-08-28T17:52:02Z</time>
  <course>0.0</course>
  <speed>0.0</speed>
  <fix>3d</fix>
</trkpt>
<trkpt lat="40.071375" lon="-105.229789">
  <ele>1583.14</ele>
  <time>2026-08-28T17:52:02Z</time>
  <course>247.36</course>
  <speed>0.01</speed>
  <fix>3d</fix>
</trkpt>
<trkpt lat="40.0713749" lon="-105.229789">
  <ele>1583.0</ele>
  <time>2026-08-28T17:52:02Z</time>
  <course>0.0</course>
  <speed>0.0</speed>
  <fix>3d</fix>
</trkpt>
<trkpt lat="40.071375" lon="-105.229789">
  <ele>1583.15</ele>
  <time>2026-08-28T17:52:03Z</time>
  <course>247.36</course>
  <speed>0.01</speed>
  <fix>3d</fix>
</trkpt>
<trkpt lat="40.0713749" lon="-105.229789">
  <ele>1583.0</ele>
  <time>2026-08-28T17:52:03Z</time>
  <course>0.0</course>
  <speed>0.0</speed>
  <fix>3d</fix>
</trkpt>
<trkpt lat="40.071375" lon="-105.229789">
  <ele>1583.15</ele>
  <time>2026-08-28T17:52:03Z</time>
  <course>247.36</course>
  <speed>0.01</speed>
  <fix>3d</fix>
</trkpt>
<trkpt lat="40.0713749" lon="-105.229789">
  <ele>1583.0</ele>
  <time>2026-08-28T17:52:03Z</time>
  <course>0.0</course>
  <speed>0.0</speed>
  <fix>3d</fix>
</trkpt>
<trkpt lat="40.071375" lon="-105.229789">
  <ele>1583.15</ele>
  <time>2026-08-28T17:52:03Z</time>
  <course>247.36</course>
  <speed>0.01</speed>
  <fix>3d</fix>
</trkpt>
<trkpt lat="40.0713749" lon="-105.229789">
  <ele>1583.0</ele>
  <time>2026-08-28T17:52:03Z</time>
  <course>0.0</course>
  <speed>0.0</speed>
  <fix>3d</fix>
</trkpt>
<trkpt lat="40.071375" lon="-105.229789">
  <ele>1583.15</ele>
  <time>2026-08-28T17:52:03Z</time>
  <course>247.36</course>
  <speed>0.01</speed>
  <fix>3d</fix>
</trkpt>
<trkpt lat="40.0713749" lon="-105.229789">
  <ele>1583.0</ele>
  <time>2026-08-28T17:52:03Z</time>
  <course>0.0</course>
  <speed>0.0</speed>
  <fix>3d</fix>
</trkpt>
<trkpt lat="40.071375" lon="-105.229789">
  <ele>1583.15</ele>
  <time>2026-08-28T17:52:03Z</time>
  <course>247.36</course>
  <speed>0.01</speed>
  <fix>3d</fix>
</trkpt>
<trkpt lat="40.0713749" lon="-105.229789">
  <ele>1583.0</ele>
  <time>2026-08-28T17:52:03Z</time>
  <course>0.0</course>
  <speed>0.0</speed>
  <fix>3d</fix>
</trkpt>
<trkpt lat="40.071375" lon="-105.229789">
  <ele>1583.15</ele>
  <time>2026-08-28T17:52:03Z</time>
  <course>247.36</course>
  <speed>0.01</speed>
  <fix>3d</fix>
</trkpt>
<trkpt lat="40.0713749" lon="-105.229789">
  <ele>1583.0</ele>
  <time>2026-08-28T17:52:03Z</time>
  <course>0.0</course>
  <speed>0.0</speed>
  <fix>3d</fix>
</trkpt>
<trkpt lat="40.071375" lon="-105.229789">
  <ele>1583.15</ele>
  <time>2026-08-28T17:52:03Z</time>
  <course>247.36</course>
  <speed>0.01</speed>
  <fix>3d</fix>
</trkpt>
<trkpt lat="40.0713749" lon="-105.229789">
  <ele>1583.0</ele>
  <time>2026-08-28T17:52:03Z</time>
  <course>0.0</course>
  <speed>0.0</speed>
  <fix>3d</fix>
</trkpt>
<trkpt lat="40.071375" lon="-105.229789">
  <ele>1583.15</ele>
  <time>2026-08-28T17:52:03Z</time>
  <course>247.36</course>
  <speed>0.01</speed>
  <fix>3d</fix>
</trkpt>
<trkpt lat="40.0713749" lon="-105.229789">
  <ele>1583.0</ele>
  <time>2026-08-28T17:52:03Z</time>
  <course>0.0</course>
  <speed>0.0</speed>
  <fix>3d</fix>
</trkpt>
<trkpt lat="40.071375" lon="-105.229789">
  <ele>1583.15</ele>
  <time>2026-08-28T17:52:03Z</time>
  <course>247.35</course>
  <speed>0.01</speed>
  <fix>3d</fix>
</trkpt>
<trkpt lat="40.0713749" lon="-105.229789">
  <ele>1583.0</ele>
  <time>2026-08-28T17:52:03Z</time>
  <course>0.0</course>
  <speed>0.0</speed>
  <fix>3d</fix>
</trkpt>
<trkpt lat="40.071375" lon="-105.229789">
  <ele>1583.15</ele>
  <time>2026-08-28T17:52:03Z</time>
  <course>247.35</course>
  <speed>0.01</speed>
  <fix>3d</fix>
</trkpt>
<trkpt lat="40.0713749" lon="-105.229789">
  <ele>1583.0</ele>
  <time>2026-08-28T17:52:03Z</time>
  <course>0.0</course>
  <speed>0.0</speed>
  <fix>3d</fix>
</trkpt>
<trkpt lat="40.071375" lon="-105.229789">
  <ele>1583.14</ele>
  <time>2026-08-28T17:52:03Z</time>
  <course>247.35</course>
  <speed>0.01</speed>
  <fix>3d</fix>
</trkpt>
<trkpt lat="40.0713749" lon="-105.229789">
  <ele>1583.0</ele>
  <time>2026-08-28T17:52:03Z</time>
  <course>0.0</course>
  <speed>0.0</speed>
  <fix>3d</fix>
</trkpt>
<trkpt lat="40.071375" lon="-105.229789">
  <ele>1583.14</ele>
  <time>2026-08-28T17:52:03Z</time>
  <course>247.35</course>
  <speed>0.01</speed>
  <fix>3d</fix>
</trkpt>
<trkpt lat="40.0713749" lon="-105.229789">
  <ele>1583.0</ele>
  <time>2026-08-28T17:52:03Z</time>
  <course>0.0</course>
  <speed>0.0</speed>
  <fix>3d</fix>
</trkpt>
<trkpt lat="40.071375" lon="-105.229789">
  <ele>1583.14</ele>
  <time>2026-08-28T17:52:03Z</time>
  <course>247.35</course>
  <speed>0.01</speed>
  <fix>3d</fix>
</trkpt>
<trkpt lat="40.0713749" lon="-105.229789">
  <ele>1583.0</ele>
  <time>2026-08-28T17:52:03Z</time>
  <course>0.0</course>
  <speed>0.0</speed>
  <fix>3d</fix>
</trkpt>
<trkpt lat="40.071375" lon="-105.229789">
  <ele>1583.14</ele>
  <time>2026-08-28T17:52:03Z</time>
  <course>247.35</course>
  <speed>0.01</speed>
  <fix>3d</fix>
</trkpt>
<trkpt lat="40.0713749" lon="-105.229789">
  <ele>1583.0</ele>
  <time>2026-08-28T17:52:03Z</time>
  <course>0.0</course>
  <speed>0.0</speed>
  <fix>3d</fix>
</trkpt>
<trkpt lat="40.071375" lon="-105.229789">
  <ele>1583.14</ele>
  <time>2026-08-28T17:52:03Z</time>
  <course>247.35</course>
  <speed>0.01</speed>
  <fix>3d</fix>
</trkpt>
<trkpt lat="40.0713749" lon="-105.229789">
  <ele>1583.0</ele>
  <time>2026-08-28T17:52:03Z</time>
  <course>0.0</course>
  <speed>0.0</speed>
  <fix>3d</fix>
</trkpt>
<trkpt lat="40.071375" lon="-105.229789">
  <ele>1583.14</ele>
  <time>2026-08-28T17:52:03Z</time>
  <course>247.35</course>
  <speed>0.02</speed>
  <fix>3d</fix>
</trkpt>
<trkpt lat="40.0713749" lon="-105.229789">
  <ele>1583.0</ele>
  <time>2026-08-28T17:52:03Z</time>
  <course>0.0</course>
  <speed>0.0</speed>
  <fix>3d</fix>
</trkpt>
<trkpt lat="40.071375" lon="-105.229789">
  <ele>1583.14</ele>
  <time>2026-08-28T17:52:03Z</time>
  <course>247.35</course>
  <speed>0.02</speed>
  <fix>3d</fix>
</trkpt>
<trkpt lat="40.0713749" lon="-105.229789">
  <ele>1583.0</ele>
  <time>2026-08-28T17:52:03Z</time>
  <course>0.0</course>
  <speed>0.0</speed>
  <fix>3d</fix>
</trkpt>
<trkpt lat="40.071375" lon="-105.229789">
  <ele>1583.14</ele>
  <time>2026-08-28T17:52:03Z</time>
  <course>247.35</course>
  <speed>0.02</speed>
  <fix>3d</fix>
</trkpt>
<trkpt lat="40.0713749" lon="-105.229789">
  <ele>1583.0</ele>
  <time>2026-08-28T17:52:03Z</time>
  <course>0.0</course>
  <speed>0.0</speed>
  <fix>3d</fix>
</trkpt>
<trkpt lat="40.071375" lon="-105.229789">
  <ele>1583.14</ele>
  <time>2026-08-28T17:52:03Z</time>
  <course>247.35</course>
  <speed>0.02</speed>
  <fix>3d</fix>
</trkpt>
<trkpt lat="40.0713749" lon="-105.229789">
  <ele>1583.0</ele>
  <time>2026-08-28T17:52:03Z</time>
  <course>0.0</course>
  <speed>0.0</speed>
  <fix>3d</fix>
</trkpt>
<trkpt lat="40.071375" lon="-105.229789">
  <ele>1583.14</ele>
  <time>2026-08-28T17:52:03Z</time>
  <course>247.35</course>
  <speed>0.02</speed>
  <fix>3d</fix>
</trkpt>
<trkpt lat="40.0713749" lon="-105.229789">
  <ele>1583.0</ele>
  <time>2026-08-28T17:52:03Z</time>
  <course>0.0</course>
  <speed>0.0</speed>
  <fix>3d</fix>
</trkpt>
<trkpt lat="40.071375" lon="-105.229789">
  <ele>1583.14</ele>
  <time>2026-08-28T17:52:03Z</time>
  <course>247.35</course>
  <speed>0.02</speed>
  <fix>3d</fix>
</trkpt>
<trkpt lat="40.0713749" lon="-105.229789">
  <ele>1583.0</ele>
  <time>2026-08-28T17:52:03Z</time>
  <course>0.0</course>
  <speed>0.0</speed>
  <fix>3d</fix>
</trkpt>
<trkpt lat="40.071375" lon="-105.229789">
  <ele>1583.14</ele>
  <time>2026-08-28T17:52:03Z</time>
  <course>247.34</course>
  <speed>0.02</speed>
  <fix>3d</fix>
</trkpt>
<trkpt lat="40.0713749" lon="-105.229789">
  <ele>1583.0</ele>
  <time>2026-08-28T17:52:03Z</time>
  <course>0.0</course>
  <speed>0.0</speed>
  <fix>3d</fix>
</trkpt>
<trkpt lat="40.071375" lon="-105.229789">
  <ele>1583.14</ele>
  <time>2026-08-28T17:52:03Z</time>
  <course>247.34</course>
  <speed>0.02</speed>
  <fix>3d</fix>
</trkpt>
<trkpt lat="40.0713749" lon="-105.229789">
  <ele>1583.0</ele>
  <time>2026-08-28T17:52:03Z</time>
  <course>0.0</course>
  <speed>0.0</speed>
  <fix>3d</fix>
</trkpt>
<trkpt lat="40.071375" lon="-105.229789">
  <ele>1583.14</ele>
  <time>2026-08-28T17:52:03Z</time>
  <course>247.34</course>
  <speed>0.022360679774997897</speed>
  <fix>3d</fix>
</trkpt>
<trkpt lat="40.0713749" lon="-105.229789">
  <ele>1583.0</ele>
  <time>2026-08-28T17:52:03Z</time>
  <course>0.0</course>
  <speed>0.0</speed>
  <fix>3d</fix>
</trkpt>
<trkpt lat="40.071375" lon="-105.229789">
  <ele>1583.13</ele>
  <time>2026-08-28T17:52:03Z</time>
  <course>247.34</course>
  <speed>0.022360679774997897</speed>
  <fix>3d</fix>
</trkpt>
<trkpt lat="40.0713749" lon="-105.229789">
  <ele>1583.0</ele>
  <time>2026-08-28T17:52:03Z</time>
  <course>0.0</course>
  <speed>0.0</speed>
  <fix>3d</fix>
</trkpt>
<trkpt lat="40.071375" lon="-105.229789">
  <ele>1583.13</ele>
  <time>2026-08-28T17:52:03Z</time>
  <course>247.34</course>
  <speed>0.022360679774997897</speed>
  <fix>3d</fix>
</trkpt>
<trkpt lat="40.0713749" lon="-105.229789">
  <ele>1583.0</ele>
  <time>2026-08-28T17:52:03Z</time>
  <course>0.0</course>
  <speed>0.0</speed>
  <fix>3d</fix>
</trkpt>
<trkpt lat="40.071375" lon="-105.229789">
  <ele>1583.13</ele>
  <time>2026-08-28T17:52:03Z</time>
  <course>247.34</course>
  <speed>0.022360679774997897</speed>
  <fix>3d</fix>
</trkpt>
<trkpt lat="40.0713749" lon="-105.229789">
  <ele>1583.0</ele>
  <time>2026-08-28T17:52:03Z</time>
  <course>0.0</course>
  <speed>0.0</speed>
  <fix>3d</fix>
</trkpt>
<trkpt lat="40.071375" lon="-105.229789">
  <ele>1583.13</ele>
  <time>2026-08-28T17:52:03Z</time>
  <course>247.34</course>
  <speed>0.022360679774997897</speed>
  <fix>3d</fix>
</trkpt>
<trkpt lat="40.0713749" lon="-105.229789">
  <ele>1583.0</ele>
  <time>2026-08-28T17:52:03Z</time>
  <course>0.0</course>
  <speed>0.0</speed>
  <fix>3d</fix>
</trkpt>
<trkpt lat="40.071375" lon="-105.229789">
  <ele>1583.13</ele>
  <time>2026-08-28T17:52:03Z</time>
  <course>247.34</course>
  <speed>0.022360679774997897</speed>
  <fix>3d</fix>
</trkpt>
<trkpt lat="40.0713749" lon="-105.229789">
  <ele>1583.0</ele>
  <time>2026-08-28T17:52:03Z</time>
  <course>0.0</course>
  <speed>0.0</speed>
  <fix>3d</fix>
</trkpt>
<trkpt lat="40.071375" lon="-105.229789">
  <ele>1583.13</ele>
  <time>2026-08-28T17:52:03Z</time>
  <course>247.34</course>
  <speed>0.022360679774997897</speed>
  <fix>3d</fix>
</trkpt>
<trkpt lat="40.0713749" lon="-105.229789">
  <ele>1583.0</ele>
  <time>2026-08-28T17:52:03Z</time>
  <course>0.0</course>
  <speed>0.0</speed>
  <fix>3d</fix>
</trkpt>
<trkpt lat="40.071375" lon="-105.229789">
  <ele>1583.13</ele>
  <time>2026-08-28T17:52:03Z</time>
  <course>247.34</course>
  <speed>0.022360679774997897</speed>
  <fix>3d</fix>
</trkpt>
<trkpt lat="40.0713749" lon="-105.229789">
  <ele>1583.0</ele>
  <time>2026-08-28T17:52:03Z</time>
  <course>0.0</course>
  <speed>0.0</speed>
  <fix>3d</fix>
</trkpt>
<trkpt lat="40.071375" lon="-105.2297889">
  <ele>1583.14</ele>
  <time>2026-08-28T17:52:03Z</time>
  <course>247.34</course>
  <speed>0.022360679774997897</speed>
  <fix>3d</fix>
</trkpt>
<trkpt lat="40.0713749" lon="-105.229789">
  <ele>1583.0</ele>
  <time>2026-08-28T17:52:03Z</time>
  <course>0.0</course>
  <speed>0.0</speed>
  <fix>3d</fix>
</trkpt>
<trkpt lat="40.071375" lon="-105.2297889">
  <ele>1583.13</ele>
  <time>2026-08-28T17:52:03Z</time>
  <course>247.34</course>
  <speed>0.022360679774997897</speed>
  <fix>3d</fix>
</trkpt>
<trkpt lat="40.0713749" lon="-105.229789">
  <ele>1583.0</ele>
  <time>2026-08-28T17:52:03Z</time>
  <course>0.0</course>
  <speed>0.0</speed>
  <fix>3d</fix>
</trkpt>
<trkpt lat="40.071375" lon="-105.2297889">
  <ele>1583.13</ele>
  <time>2026-08-28T17:52:03Z</time>
  <course>247.34</course>
  <speed>0.022360679774997897</speed>
  <fix>3d</fix>
</trkpt>
<trkpt lat="40.0713749" lon="-105.229789">
  <ele>1583.0</ele>
  <time>2026-08-28T17:52:03Z</time>
  <course>0.0</course>
  <speed>0.0</speed>
  <fix>3d</fix>
</trkpt>
<trkpt lat="40.0713751" lon="-105.2297889">
  <ele>1583.13</ele>
  <time>2026-08-28T17:52:03Z</time>
  <course>247.34</course>
  <speed>0.022360679774997897</speed>
  <fix>3d</fix>
</trkpt>
<trkpt lat="40.0713749" lon="-105.229789">
  <ele>1583.0</ele>
  <time>2026-08-28T17:52:03Z</time>
  <course>0.0</course>
  <speed>0.0</speed>
  <fix>3d</fix>
</trkpt>
<trkpt lat="40.0713751" lon="-105.2297889">
  <ele>1583.13</ele>
  <time>2026-08-28T17:52:03Z</time>
  <course>247.33</course>
  <speed>0.022360679774997897</speed>
  <fix>3d</fix>
</trkpt>
<trkpt lat="40.0713749" lon="-105.229789">
  <ele>1583.0</ele>
  <time>2026-08-28T17:52:03Z</time>
  <course>0.0</course>
  <speed>0.0</speed>
  <fix>3d</fix>
</trkpt>
<trkpt lat="40.0713751" lon="-105.2297889">
  <ele>1583.13</ele>
  <time>2026-08-28T17:52:03Z</time>
  <course>247.33</course>
  <speed>0.022360679774997897</speed>
  <fix>3d</fix>
</trkpt>
<trkpt lat="40.0713749" lon="-105.229789">
  <ele>1583.0</ele>
  <time>2026-08-28T17:52:03Z</time>
  <course>0.0</course>
  <speed>0.0</speed>
  <fix>3d</fix>
</trkpt>
<trkpt lat="40.0713751" lon="-105.2297889">
  <ele>1583.13</ele>
  <time>2026-08-28T17:52:03Z</time>
  <course>247.33</course>
  <speed>0.022360679774997897</speed>
  <fix>3d</fix>
</trkpt>
<trkpt lat="40.0713749" lon="-105.229789">
  <ele>1583.0</ele>
  <time>2026-08-28T17:52:03Z</time>
  <course>0.0</course>
  <speed>0.0</speed>
  <fix>3d</fix>
</trkpt>
<trkpt lat="40.0713751" lon="-105.2297889">
  <ele>1583.12</ele>
  <time>2026-08-28T17:52:03Z</time>
  <course>247.33</course>
  <speed>0.022360679774997897</speed>
  <fix>3d</fix>
</trkpt>
<trkpt lat="40.0713749" lon="-105.229789">
  <ele>1583.0</ele>
  <time>2026-08-28T17:52:03Z</time>
  <course>0.0</course>
  <speed>0.0</speed>
  <fix>3d</fix>
</trkpt>
<trkpt lat="40.0713751" lon="-105.2297889">
  <ele>1583.12</ele>
  <time>2026-08-28T17:52:03Z</time>
  <course>247.33</course>
  <speed>0.022360679774997897</speed>
  <fix>3d</fix>
</trkpt>
<trkpt lat="40.0713749" lon="-105.229789">
  <ele>1583.0</ele>
  <time>2026-08-28T17:52:03Z</time>
  <course>0.0</course>
  <speed>0.0</speed>
  <fix>3d</fix>
</trkpt>
<trkpt lat="40.0713751" lon="-105.2297889">
  <ele>1583.12</ele>
  <time>2026-08-28T17:52:03Z</time>
  <course>247.33</course>
  <speed>0.022360679774997897</speed>
  <fix>3d</fix>
</trkpt>
<trkpt lat="40.0713749" lon="-105.229789">
  <ele>1583.0</ele>
  <time>2026-08-28T17:52:03Z</time>
  <course>0.0</course>
  <speed>0.0</speed>
  <fix>3d</fix>
</trkpt>
<trkpt lat="40.0713751" lon="-105.2297889">
  <ele>1583.12</ele>
  <time>2026-08-28T17:52:03Z</time>
  <course>247.33</course>
  <speed>0.022360679774997897</speed>
  <fix>3d</fix>
</trkpt>
<trkpt lat="40.0713749" lon="-105.229789">
  <ele>1583.0</ele>
  <time>2026-08-28T17:52:03Z</time>
  <course>0.0</course>
  <speed>0.0</speed>
  <fix>3d</fix>
</trkpt>
<trkpt lat="40.0713751" lon="-105.2297889">
  <ele>1583.12</ele>
  <time>2026-08-28T17:52:03Z</time>
  <course>247.33</course>
  <speed>0.022360679774997897</speed>
  <fix>3d</fix>
</trkpt>
<trkpt lat="40.0713749" lon="-105.229789">
  <ele>1583.0</ele>
  <time>2026-08-28T17:52:03Z</time>
  <course>0.0</course>
  <speed>0.0</speed>
  <fix>3d</fix>
</trkpt>
<trkpt lat="40.0713751" lon="-105.2297889">
  <ele>1583.12</ele>
  <time>2026-08-28T17:52:03Z</time>
  <course>247.33</course>
  <speed>0.022360679774997897</speed>
  <fix>3d</fix>
</trkpt>
<trkpt lat="40.0713749" lon="-105.229789">
  <ele>1583.0</ele>
  <time>2026-08-28T17:52:03Z</time>
  <course>0.0</course>
  <speed>0.0</speed>
  <fix>3d</fix>
</trkpt>
<trkpt lat="40.0713751" lon="-105.2297889">
  <ele>1583.12</ele>
  <time>2026-08-28T17:52:03Z</time>
  <course>247.33</course>
  <speed>0.022360679774997897</speed>
  <fix>3d</fix>
</trkpt>
<trkpt lat="40.0713749" lon="-105.229789">
  <ele>1583.0</ele>
  <time>2026-08-28T17:52:03Z</time>
  <course>0.0</course>
  <speed>0.0</speed>
  <fix>3d</fix>
</trkpt>
<trkpt lat="40.0713751" lon="-105.2297889">
  <ele>1583.12</ele>
  <time>2026-08-28T17:52:03Z</time>
  <course>247.33</course>
  <speed>0.022360679774997897</speed>
  <fix>3d</fix>
</trkpt>
<trkpt lat="40.0713749" lon="-105.229789">
  <ele>1583.0</ele>
  <time>2026-08-28T17:52:03Z</time>
  <course>0.0</course>
  <speed>0.0</speed>
  <fix>3d</fix>
</trkpt>
<trkpt lat="40.0713751" lon="-105.2297889">
  <ele>1583.11</ele>
  <time>2026-08-28T17:52:03Z</time>
  <course>247.33</course>
  <speed>0.022360679774997897</speed>
  <fix>3d</fix>
</trkpt>
<trkpt lat="40.0713749" lon="-105.229789">
  <ele>1583.0</ele>
  <time>2026-08-28T17:52:03Z</time>
  <course>0.0</course>
  <speed>0.0</speed>
  <fix>3d</fix>
</trkpt>
<trkpt lat="40.0713751" lon="-105.2297889">
  <ele>1583.1</ele>
  <time>2026-08-28T17:52:03Z</time>
  <course>247.33</course>
  <speed>0.022360679774997897</speed>
  <fix>3d</fix>
</trkpt>
<trkpt lat="40.0713749" lon="-105.229789">
  <ele>1583.0</ele>
  <time>2026-08-28T17:52:03Z</time>
  <course>0.0</course>
  <speed>0.0</speed>
  <fix>3d</fix>
</trkpt>
<trkpt lat="40.0713751" lon="-105.2297889">
  <ele>1583.09</ele>
  <time>2026-08-28T17:52:03Z</time>
  <course>247.33</course>
  <speed>0.022360679774997897</speed>
  <fix>3d</fix>
</trkpt>
<trkpt lat="40.0713749" lon="-105.229789">
  <ele>1583.0</ele>
  <time>2026-08-28T17:52:03Z</time>
  <course>0.0</course>
  <speed>0.0</speed>
  <fix>3d</fix>
</trkpt>
<trkpt lat="40.0713751" lon="-105.2297889">
  <ele>1583.08</ele>
  <time>2026-08-28T17:52:03Z</time>
  <course>247.33</course>
  <speed>0.022360679774997897</speed>
  <fix>3d</fix>
</trkpt>
<trkpt lat="40.0713749" lon="-105.229789">
  <ele>1583.0</ele>
  <time>2026-08-28T17:52:03Z</time>
  <course>0.0</course>
  <speed>0.0</speed>
  <fix>3d</fix>
</trkpt>
<trkpt lat="40.0713751" lon="-105.2297889">
  <ele>1583.07</ele>
  <time>2026-08-28T17:52:03Z</time>
  <course>247.32</course>
  <speed>0.022360679774997897</speed>
  <fix>3d</fix>
</trkpt>
<trkpt lat="40.0713749" lon="-105.229789">
  <ele>1583.0</ele>
  <time>2026-08-28T17:52:03Z</time>
  <course>0.0</course>
  <speed>0.0</speed>
  <fix>3d</fix>
</trkpt>
<trkpt lat="40.0713751" lon="-105.2297889">
  <ele>1583.06</ele>
  <time>2026-08-28T17:52:03Z</time>
  <course>247.32</course>
  <speed>0.022360679774997897</speed>
  <fix>3d</fix>
</trkpt>
<trkpt lat="40.0713749" lon="-105.229789">
  <ele>1583.0</ele>
  <time>2026-08-28T17:52:03Z</time>
  <course>0.0</course>
  <speed>0.0</speed>
  <fix>3d</fix>
</trkpt>
<trkpt lat="40.0713751" lon="-105.2297889">
  <ele>1583.05</ele>
  <time>2026-08-28T17:52:03Z</time>
  <course>247.32</course>
  <speed>0.022360679774997897</speed>
  <fix>3d</fix>
</trkpt>
<trkpt lat="40.0713749" lon="-105.229789">
  <ele>1583.0</ele>
  <time>2026-08-28T17:52:03Z</time>
  <course>0.0</course>
  <speed>0.0</speed>
  <fix>3d</fix>
</trkpt>
<trkpt lat="40.0713751" lon="-105.2297889">
  <ele>1583.04</ele>
  <time>2026-08-28T17:52:03Z</time>
  <course>247.32</course>
  <speed>0.022360679774997897</speed>
  <fix>3d</fix>
</trkpt>
<trkpt lat="40.0713749" lon="-105.229789">
  <ele>1583.0</ele>
  <time>2026-08-28T17:52:03Z</time>
  <course>0.0</course>
  <speed>0.0</speed>
  <fix>3d</fix>
</trkpt>
<trkpt lat="40.071375" lon="-105.2297889">
  <ele>1583.03</ele>
  <time>2026-08-28T17:52:03Z</time>
  <course>247.32</course>
  <speed>0.02</speed>
  <fix>3d</fix>
</trkpt>
<trkpt lat="40.0713749" lon="-105.229789">
  <ele>1583.0</ele>
  <time>2026-08-28T17:52:03Z</time>
  <course>0.0</course>
  <speed>0.0</speed>
  <fix>3d</fix>
</trkpt>
<trkpt lat="40.071375" lon="-105.2297889">
  <ele>1583.02</ele>
  <time>2026-08-28T17:52:03Z</time>
  <course>247.32</course>
  <speed>0.02</speed>
  <fix>3d</fix>
</trkpt>
<trkpt lat="40.0713749" lon="-105.229789">
  <ele>1583.0</ele>
  <time>2026-08-28T17:52:03Z</time>
  <course>0.0</course>
  <speed>0.0</speed>
  <fix>3d</fix>
</trkpt>
<trkpt lat="40.071375" lon="-105.2297889">
  <ele>1583.02</ele>
  <time>2026-08-28T17:52:03Z</time>
  <course>247.32</course>
  <speed>0.02</speed>
  <fix>3d</fix>
</trkpt>
<trkpt lat="40.0713749" lon="-105.229789">
  <ele>1583.0</ele>
  <time>2026-08-28T17:52:03Z</time>
  <course>0.0</course>
  <speed>0.0</speed>
  <fix>3d</fix>
</trkpt>
<trkpt lat="40.071375" lon="-105.2297889">
  <ele>1583.03</ele>
  <time>2026-08-28T17:52:03Z</time>
  <course>247.32</course>
  <speed>0.02</speed>
  <fix>3d</fix>
</trkpt>
<trkpt lat="40.0713749" lon="-105.229789">
  <ele>1583.0</ele>
  <time>2026-08-28T17:52:03Z</time>
  <course>0.0</course>
  <speed>0.0</speed>
  <fix>3d</fix>
</trkpt>
<trkpt lat="40.071375" lon="-105.229789">
  <ele>1583.03</ele>
  <time>2026-08-28T17:52:03Z</time>
  <course>247.32</course>
  <speed>0.02</speed>
  <fix>3d</fix>
</trkpt>
<trkpt lat="40.0713749" lon="-105.229789">
  <ele>1583.0</ele>
  <time>2026-08-28T17:52:03Z</time>
  <course>0.0</course>
  <speed>0.0</speed>
  <fix>3d</fix>
</trkpt>
<trkpt lat="40.071375" lon="-105.229789">
  <ele>1583.03</ele>
  <time>2026-08-28T17:52:03Z</time>
  <course>247.32</course>
  <speed>0.02</speed>
  <fix>3d</fix>
</trkpt>
<trkpt lat="40.0713749" lon="-105.229789">
  <ele>1583.0</ele>
  <time>2026-08-28T17:52:03Z</time>
  <course>0.0</course>
  <speed>0.0</speed>
  <fix>3d</fix>
</trkpt>
<trkpt lat="40.071375" lon="-105.229789">
  <ele>1583.03</ele>
  <time>2026-08-28T17:52:03Z</time>
  <course>247.32</course>
  <speed>0.02</speed>
  <fix>3d</fix>
</trkpt>
<trkpt lat="40.0713749" lon="-105.229789">
  <ele>1583.0</ele>
  <time>2026-08-28T17:52:03Z</time>
  <course>0.0</course>
  <speed>0.0</speed>
  <fix>3d</fix>
</trkpt>
<trkpt lat="40.071375" lon="-105.229789">
  <ele>1583.03</ele>
  <time>2026-08-28T17:52:03Z</time>
  <course>247.32</course>
  <speed>0.02</speed>
  <fix>3d</fix>
</trkpt>
<trkpt lat="40.0713749" lon="-105.229789">
  <ele>1583.0</ele>
  <time>2026-08-28T17:52:03Z</time>
  <course>0.0</course>
  <speed>0.0</speed>
  <fix>3d</fix>
</trkpt>
<trkpt lat="40.071375" lon="-105.229789">
  <ele>1583.04</ele>
  <time>2026-08-28T17:52:03Z</time>
  <course>247.32</course>
  <speed>0.02</speed>
  <fix>3d</fix>
</trkpt>
<trkpt lat="40.0713749" lon="-105.229789">
  <ele>1583.0</ele>
  <time>2026-08-28T17:52:03Z</time>
  <course>0.0</course>
  <speed>0.0</speed>
  <fix>3d</fix>
</trkpt>
<trkpt lat="39.655741" lon="-104.1383097">
  <ele>1566.58</ele>
  <time>2026-08-28T17:52:03Z</time>
  <course>0.0</course>
  <speed>0.0</speed>
  <fix>3d</fix>
</trkpt>
<trkpt lat="40.0713749" lon="-105.229789">
  <ele>1583.0</ele>
  <time>2026-08-28T17:52:03Z</time>
  <course>0.0</course>
  <speed>0.0</speed>
  <fix>3d</fix>
</trkpt>
<trkpt lat="40.0713749" lon="-105.229789">
  <ele>1583.0</ele>
  <time>2026-08-28T17:52:03Z</time>
  <course>238.36</course>
  <speed>0.0</speed>
  <fix>3d</fix>
</trkpt>
<trkpt lat="40.0713749" lon="-105.229789">
  <ele>1583.0</ele>
  <time>2026-08-28T17:52:03Z</time>
  <course>0.0</course>
  <speed>0.0</speed>
  <fix>3d</fix>
</trkpt>
<trkpt lat="40.0713749" lon="-105.229789">
  <ele>1583.0</ele>
  <time>2026-08-28T17:52:03Z</time>
  <course>238.44</course>
  <speed>0.0</speed>
  <fix>3d</fix>
</trkpt>
<trkpt lat="40.0713749" lon="-105.229789">
  <ele>1583.0</ele>
  <time>2026-08-28T17:52:03Z</time>
  <course>0.0</course>
  <speed>0.0</speed>
  <fix>3d</fix>
</trkpt>
<trkpt lat="40.0713749" lon="-105.229789">
  <ele>1583.0</ele>
  <time>2026-08-28T17:52:03Z</time>
  <course>238.64</course>
  <speed>0.0</speed>
  <fix>3d</fix>
</trkpt>
<trkpt lat="40.0713749" lon="-105.229789">
  <ele>1583.0</ele>
  <time>2026-08-28T17:52:03Z</time>
  <course>0.0</course>
  <speed>0.0</speed>
  <fix>3d</fix>
</trkpt>
<trkpt lat="40.0713749" lon="-105.229789">
  <ele>1583.0</ele>
  <time>2026-08-28T17:52:03Z</time>
  <course>238.93</course>
  <speed>0.0</speed>
  <fix>3d</fix>
</trkpt>
<trkpt lat="40.0713749" lon="-105.229789">
  <ele>1583.0</ele>
  <time>2026-08-28T17:52:03Z</time>
  <course>0.0</course>
  <speed>0.0</speed>
  <fix>3d</fix>
</trkpt>
<trkpt lat="40.0713749" lon="-105.229789">
  <ele>1583.0</ele>
  <time>2026-08-28T17:52:03Z</time>
  <course>239.26</course>
  <speed>0.0</speed>
  <fix>3d</fix>
</trkpt>
<trkpt lat="40.0713749" lon="-105.229789">
  <ele>1583.0</ele>
  <time>2026-08-28T17:52:03Z</time>
  <course>0.0</course>
  <speed>0.0</speed>
  <fix>3d</fix>
</trkpt>
<trkpt lat="40.0713749" lon="-105.229789">
  <ele>1583.0</ele>
  <time>2026-08-28T17:52:03Z</time>
  <course>239.61</course>
  <speed>0.0</speed>
  <fix>3d</fix>
</trkpt>
<trkpt lat="40.0713749" lon="-105.229789">
  <ele>1583.0</ele>
  <time>2026-08-28T17:52:03Z</time>
  <course>0.0</course>
  <speed>0.0</speed>
  <fix>3d</fix>
</trkpt>
<trkpt lat="40.0713749" lon="-105.229789">
  <ele>1583.0</ele>
  <time>2026-08-28T17:52:03Z</time>
  <course>239.96</course>
  <speed>0.0</speed>
  <fix>3d</fix>
</trkpt>
<trkpt lat="40.0713749" lon="-105.229789">
  <ele>1583.0</ele>
  <time>2026-08-28T17:52:03Z</time>
  <course>0.0</course>
  <speed>0.0</speed>
  <fix>3d</fix>
</trkpt>
<trkpt lat="40.0713749" lon="-105.229789">
  <ele>1583.0</ele>
  <time>2026-08-28T17:52:03Z</time>
  <course>240.29</course>
  <speed>0.0</speed>
  <fix>3d</fix>
</trkpt>
<trkpt lat="40.0713749" lon="-105.229789">
  <ele>1583.0</ele>
  <time>2026-08-28T17:52:03Z</time>
  <course>0.0</course>
  <speed>0.0</speed>
  <fix>3d</fix>
</trkpt>
<trkpt lat="40.0713749" lon="-105.229789">
  <ele>1583.0</ele>
  <time>2026-08-28T17:52:03Z</time>
  <course>240.61</course>
  <speed>0.0</speed>
  <fix>3d</fix>
</trkpt>
<trkpt lat="40.0713749" lon="-105.229789">
  <ele>1583.0</ele>
  <time>2026-08-28T17:52:03Z</time>
  <course>0.0</course>
  <speed>0.0</speed>
  <fix>3d</fix>
</trkpt>
<trkpt lat="40.0713749" lon="-105.229789">
  <ele>1583.0</ele>
  <time>2026-08-28T17:52:03Z</time>
  <course>240.92</course>
  <speed>0.0</speed>
  <fix>3d</fix>
</trkpt>
<trkpt lat="40.0713749" lon="-105.229789">
  <ele>1583.0</ele>
  <time>2026-08-28T17:52:03Z</time>
  <course>0.0</course>
  <speed>0.0</speed>
  <fix>3d</fix>
</trkpt>
<trkpt lat="40.0713749" lon="-105.229789">
  <ele>1583.0</ele>
  <time>2026-08-28T17:52:03Z</time>
  <course>241.21</course>
  <speed>0.0</speed>
  <fix>3d</fix>
</trkpt>
<trkpt lat="40.0713749" lon="-105.229789">
  <ele>1583.0</ele>
  <time>2026-08-28T17:52:03Z</time>
  <course>0.0</course>
  <speed>0.0</speed>
  <fix>3d</fix>
</trkpt>
<trkpt lat="40.0713749" lon="-105.229789">
  <ele>1583.0</ele>
  <time>2026-08-28T17:52:03Z</time>
  <course>241.49</course>
  <speed>0.0</speed>
  <fix>3d</fix>
</trkpt>
<trkpt lat="40.0713749" lon="-105.229789">
  <ele>1583.0</ele>
  <time>2026-08-28T17:52:03Z</time>
  <course>0.0</course>
  <speed>0.0</speed>
  <fix>3d</fix>
</trkpt>
<trkpt lat="40.0713749" lon="-105.229789">
  <ele>1583.0</ele>
  <time>2026-08-28T17:52:03Z</time>
  <course>241.77</course>
  <speed>0.0</speed>
  <fix>3d</fix>
</trkpt>
<trkpt lat="40.0713749" lon="-105.229789">
  <ele>1583.0</ele>
  <time>2026-08-28T17:52:03Z</time>
  <course>0.0</course>
  <speed>0.0</speed>
  <fix>3d</fix>
</trkpt>
<trkpt lat="40.0713749" lon="-105.229789">
  <ele>1583.0</ele>
  <time>2026-08-28T17:52:03Z</time>
  <course>242.03</course>
  <speed>0.0</speed>
  <fix>3d</fix>
</trkpt>
<trkpt lat="40.0713749" lon="-105.229789">
  <ele>1583.0</ele>
  <time>2026-08-28T17:52:03Z</time>
  <course>0.0</course>
  <speed>0.0</speed>
  <fix>3d</fix>
</trkpt>
<trkpt lat="40.0713749" lon="-105.229789">
  <ele>1583.0</ele>
  <time>2026-08-28T17:52:03Z</time>
  <course>242.29</course>
  <speed>0.0</speed>
  <fix>3d</fix>
</trkpt>
<trkpt lat="40.0713749" lon="-105.229789">
  <ele>1583.0</ele>
  <time>2026-08-28T17:52:03Z</time>
  <course>0.0</course>
  <speed>0.0</speed>
  <fix>3d</fix>
</trkpt>
<trkpt lat="40.0713749" lon="-105.229789">
  <ele>1583.0</ele>
  <time>2026-08-28T17:52:03Z</time>
  <course>242.54</course>
  <speed>0.0</speed>
  <fix>3d</fix>
</trkpt>
<trkpt lat="40.0713749" lon="-105.229789">
  <ele>1583.0</ele>
  <time>2026-08-28T17:52:03Z</time>
  <course>0.0</course>
  <speed>0.0</speed>
  <fix>3d</fix>
</trkpt>
<trkpt lat="40.0713749" lon="-105.229789">
  <ele>1583.0</ele>
  <time>2026-08-28T17:52:03Z</time>
  <course>242.79</course>
  <speed>0.0</speed>
  <fix>3d</fix>
</trkpt>
<trkpt lat="40.0713749" lon="-105.229789">
  <ele>1583.0</ele>
  <time>2026-08-28T17:52:03Z</time>
  <course>0.0</course>
  <speed>0.0</speed>
  <fix>3d</fix>
</trkpt>
<trkpt lat="40.0713749" lon="-105.229789">
  <ele>1583.0</ele>
  <time>2026-08-28T17:52:03Z</time>
  <course>243.02</course>
  <speed>0.0</speed>
  <fix>3d</fix>
</trkpt>
<trkpt lat="40.0713749" lon="-105.229789">
  <ele>1583.0</ele>
  <time>2026-08-28T17:52:03Z</time>
  <course>0.0</course>
  <speed>0.0</speed>
  <fix>3d</fix>
</trkpt>
<trkpt lat="40.0713749" lon="-105.229789">
  <ele>1583.0</ele>
  <time>2026-08-28T17:52:03Z</time>
  <course>243.25</course>
  <speed>0.0</speed>
  <fix>3d</fix>
</trkpt>
<trkpt lat="40.0713749" lon="-105.229789">
  <ele>1583.0</ele>
  <time>2026-08-28T17:52:03Z</time>
  <course>0.0</course>
  <speed>0.0</speed>
  <fix>3d</fix>
</trkpt>
<trkpt lat="40.0713749" lon="-105.229789">
  <ele>1583.0</ele>
  <time>2026-08-28T17:52:03Z</time>
  <course>243.47</course>
  <speed>0.0</speed>
  <fix>3d</fix>
</trkpt>
<trkpt lat="40.0713749" lon="-105.229789">
  <ele>1583.0</ele>
  <time>2026-08-28T17:52:03Z</time>
  <course>0.0</course>
  <speed>0.0</speed>
  <fix>3d</fix>
</trkpt>
<trkpt lat="40.0713749" lon="-105.229789">
  <ele>1583.0</ele>
  <time>2026-08-28T17:52:03Z</time>
  <course>243.68</course>
  <speed>0.0</speed>
  <fix>3d</fix>
</trkpt>
<trkpt lat="40.0713749" lon="-105.229789">
  <ele>1583.0</ele>
  <time>2026-08-28T17:52:03Z</time>
  <course>0.0</course>
  <speed>0.0</speed>
  <fix>3d</fix>
</trkpt>
<trkpt lat="40.0713749" lon="-105.229789">
  <ele>1583.0</ele>
  <time>2026-08-28T17:52:03Z</time>
  <course>243.89</course>
  <speed>0.0</speed>
  <fix>3d</fix>
</trkpt>
<trkpt lat="40.0713749" lon="-105.229789">
  <ele>1583.0</ele>
  <time>2026-08-28T17:52:03Z</time>
  <course>0.0</course>
  <speed>0.0</speed>
  <fix>3d</fix>
</trkpt>
<trkpt lat="40.0713749" lon="-105.229789">
  <ele>1583.0</ele>
  <time>2026-08-28T17:52:03Z</time>
  <course>244.09</course>
  <speed>0.0</speed>
  <fix>3d</fix>
</trkpt>
<trkpt lat="40.0713749" lon="-105.229789">
  <ele>1583.0</ele>
  <time>2026-08-28T17:52:03Z</time>
  <course>0.0</course>
  <speed>0.0</speed>
  <fix>3d</fix>
</trkpt>
<trkpt lat="40.0713749" lon="-105.229789">
  <ele>1583.0</ele>
  <time>2026-08-28T17:52:03Z</time>
  <course>244.28</course>
  <speed>0.0</speed>
  <fix>3d</fix>
</trkpt>
<trkpt lat="40.0713749" lon="-105.229789">
  <ele>1583.0</ele>
  <time>2026-08-28T17:52:03Z</time>
  <course>0.0</course>
  <speed>0.0</speed>
  <fix>3d</fix>
</trkpt>
<trkpt lat="40.0713749" lon="-105.229789">
  <ele>1583.0</ele>
  <time>2026-08-28T17:52:03Z</time>
  <course>244.46</course>
  <speed>0.0</speed>
  <fix>3d</fix>
</trkpt>
<trkpt lat="40.0713749" lon="-105.229789">
  <ele>1583.0</ele>
  <time>2026-08-28T17:52:03Z</time>
  <course>0.0</course>
  <speed>0.0</speed>
  <fix>3d</fix>
</trkpt>
<trkpt lat="40.0713749" lon="-105.229789">
  <ele>1583.0</ele>
  <time>2026-08-28T17:52:03Z</time>
  <course>244.64</course>
  <speed>0.0</speed>
  <fix>3d</fix>
</trkpt>
<trkpt lat="40.0713749" lon="-105.229789">
  <ele>1583.0</ele>
  <time>2026-08-28T17:52:03Z</time>
  <course>0.0</course>
  <speed>0.0</speed>
  <fix>3d</fix>
</trkpt>
<trkpt lat="40.0713749" lon="-105.229789">
  <ele>1583.0</ele>
  <time>2026-08-28T17:52:03Z</time>
  <course>244.81</course>
  <speed>0.0</speed>
  <fix>3d</fix>
</trkpt>
<trkpt lat="40.0713749" lon="-105.229789">
  <ele>1583.0</ele>
  <time>2026-08-28T17:52:03Z</time>
  <course>0.0</course>
  <speed>0.0</speed>
  <fix>3d</fix>
</trkpt>
<trkpt lat="40.0713749" lon="-105.229789">
  <ele>1583.0</ele>
  <time>2026-08-28T17:52:03Z</time>
  <course>244.97</course>
  <speed>0.0</speed>
  <fix>3d</fix>
</trkpt>
<trkpt lat="40.0713749" lon="-105.229789">
  <ele>1583.0</ele>
  <time>2026-08-28T17:52:03Z</time>
  <course>0.0</course>
  <speed>0.0</speed>
  <fix>3d</fix>
</trkpt>
<trkpt lat="40.0713749" lon="-105.229789">
  <ele>1583.0</ele>
  <time>2026-08-28T17:52:03Z</time>
  <course>245.13</course>
  <speed>0.0</speed>
  <fix>3d</fix>
</trkpt>
<trkpt lat="40.0713749" lon="-105.229789">
  <ele>1583.0</ele>
  <time>2026-08-28T17:52:03Z</time>
  <course>0.0</course>
  <speed>0.0</speed>
  <fix>3d</fix>
</trkpt>
<trkpt lat="40.0713749" lon="-105.229789">
  <ele>1583.0</ele>
  <time>2026-08-28T17:52:03Z</time>
  <course>245.29</course>
  <speed>0.0</speed>
  <fix>3d</fix>
</trkpt>
<trkpt lat="40.0713749" lon="-105.229789">
  <ele>1583.0</ele>
  <time>2026-08-28T17:52:03Z</time>
  <course>0.0</course>
  <speed>0.0</speed>
  <fix>3d</fix>
</trkpt>
<trkpt lat="40.0713749" lon="-105.229789">
  <ele>1583.0</ele>
  <time>2026-08-28T17:52:03Z</time>
  <course>245.43</course>
  <speed>0.0</speed>
  <fix>3d</fix>
</trkpt>
<trkpt lat="40.0713749" lon="-105.229789">
  <ele>1583.0</ele>
  <time>2026-08-28T17:52:03Z</time>
  <course>0.0</course>
  <speed>0.0</speed>
  <fix>3d</fix>
</trkpt>
<trkpt lat="40.0713749" lon="-105.229789">
  <ele>1583.0</ele>
  <time>2026-08-28T17:52:03Z</time>
  <course>245.57</course>
  <speed>0.0</speed>
  <fix>3d</fix>
</trkpt>
<trkpt lat="40.0713749" lon="-105.229789">
  <ele>1583.0</ele>
  <time>2026-08-28T17:52:03Z</time>
  <course>0.0</course>
  <speed>0.0</speed>
  <fix>3d</fix>
</trkpt>
<trkpt lat="40.0713749" lon="-105.229789">
  <ele>1583.0</ele>
  <time>2026-08-28T17:52:03Z</time>
  <course>245.71</course>
  <speed>0.0</speed>
  <fix>3d</fix>
</trkpt>
<trkpt lat="40.0713749" lon="-105.229789">
  <ele>1583.0</ele>
  <time>2026-08-28T17:52:03Z</time>
  <course>0.0</course>
  <speed>0.0</speed>
  <fix>3d</fix>
</trkpt>
<trkpt lat="40.0713749" lon="-105.229789">
  <ele>1583.0</ele>
  <time>2026-08-28T17:52:03Z</time>
  <course>245.84</course>
  <speed>0.0</speed>
  <fix>3d</fix>
</trkpt>
<trkpt lat="40.0713749" lon="-105.229789">
  <ele>1583.0</ele>
  <time>2026-08-28T17:52:03Z</time>
  <course>0.0</course>
  <speed>0.0</speed>
  <fix>3d</fix>
</trkpt>
<trkpt lat="40.0713749" lon="-105.229789">
  <ele>1583.0</ele>
  <time>2026-08-28T17:52:03Z</time>
  <course>245.96</course>
  <speed>0.0</speed>
  <fix>3d</fix>
</trkpt>
<trkpt lat="40.0713749" lon="-105.229789">
  <ele>1583.0</ele>
  <time>2026-08-28T17:52:03Z</time>
  <course>0.0</course>
  <speed>0.0</speed>
  <fix>3d</fix>
</trkpt>
<trkpt lat="40.0713749" lon="-105.229789">
  <ele>1583.0</ele>
  <time>2026-08-28T17:52:03Z</time>
  <course>246.08</course>
  <speed>0.0</speed>
  <fix>3d</fix>
</trkpt>
<trkpt lat="40.0713749" lon="-105.229789">
  <ele>1583.0</ele>
  <time>2026-08-28T17:52:03Z</time>
  <course>0.0</course>
  <speed>0.0</speed>
  <fix>3d</fix>
</trkpt>
<trkpt lat="40.0713749" lon="-105.229789">
  <ele>1583.0</ele>
  <time>2026-08-28T17:52:03Z</time>
  <course>246.19</course>
  <speed>0.0</speed>
  <fix>3d</fix>
</trkpt>
<trkpt lat="40.0713749" lon="-105.229789">
  <ele>1583.0</ele>
  <time>2026-08-28T17:52:03Z</time>
  <course>0.0</course>
  <speed>0.0</speed>
  <fix>3d</fix>
</trkpt>
<trkpt lat="40.0713749" lon="-105.229789">
  <ele>1583.0</ele>
  <time>2026-08-28T17:52:03Z</time>
  <course>246.3</course>
  <speed>0.0</speed>
  <fix>3d</fix>
</trkpt>
<trkpt lat="40.0713749" lon="-105.229789">
  <ele>1583.0</ele>
  <time>2026-08-28T17:52:03Z</time>
  <course>0.0</course>
  <speed>0.0</speed>
  <fix>3d</fix>
</trkpt>
<trkpt lat="40.0713749" lon="-105.229789">
  <ele>1583.0</ele>
  <time>2026-08-28T17:52:03Z</time>
  <course>246.41</course>
  <speed>0.0</speed>
  <fix>3d</fix>
</trkpt>
<trkpt lat="40.0713749" lon="-105.229789">
  <ele>1583.0</ele>
  <time>2026-08-28T17:52:03Z</time>
  <course>0.0</course>
  <speed>0.0</speed>
  <fix>3d</fix>
</trkpt>
<trkpt lat="40.0713749" lon="-105.229789">
  <ele>1583.0</ele>
  <time>2026-08-28T17:52:03Z</time>
  <course>246.51</course>
  <speed>0.0</speed>
  <fix>3d</fix>
</trkpt>
<trkpt lat="40.0713749" lon="-105.229789">
  <ele>1583.0</ele>
  <time>2026-08-28T17:52:03Z</time>
  <course>0.0</course>
  <speed>0.0</speed>
  <fix>3d</fix>
</trkpt>
<trkpt lat="40.0713749" lon="-105.229789">
  <ele>1583.0</ele>
  <time>2026-08-28T17:52:03Z</time>
  <course>246.6</course>
  <speed>0.0</speed>
  <fix>3d</fix>
</trkpt>
<trkpt lat="40.0713749" lon="-105.229789">
  <ele>1583.0</ele>
  <time>2026-08-28T17:52:03Z</time>
  <course>0.0</course>
  <speed>0.0</speed>
  <fix>3d</fix>
</trkpt>
<trkpt lat="40.0713749" lon="-105.229789">
  <ele>1583.0</ele>
  <time>2026-08-28T17:52:03Z</time>
  <course>246.7</course>
  <speed>0.0</speed>
  <fix>3d</fix>
</trkpt>
<trkpt lat="40.0713749" lon="-105.229789">
  <ele>1583.0</ele>
  <time>2026-08-28T17:52:03Z</time>
  <course>0.0</course>
  <speed>0.0</speed>
  <fix>3d</fix>
</trkpt>
<trkpt lat="40.0713749" lon="-105.229789">
  <ele>1583.0</ele>
  <time>2026-08-28T17:52:03Z</time>
  <course>246.78</course>
  <speed>0.0</speed>
  <fix>3d</fix>
</trkpt>
<trkpt lat="40.0713749" lon="-105.229789">
  <ele>1583.0</ele>
  <time>2026-08-28T17:52:03Z</time>
  <course>0.0</course>
  <speed>0.0</speed>
  <fix>3d</fix>
</trkpt>
<trkpt lat="40.0713749" lon="-105.229789">
  <ele>1583.0</ele>
  <time>2026-08-28T17:52:03Z</time>
  <course>246.87</course>
  <speed>0.0</speed>
  <fix>3d</fix>
</trkpt>
<trkpt lat="40.0713749" lon="-105.229789">
  <ele>1583.0</ele>
  <time>2026-08-28T17:52:03Z</time>
  <course>0.0</course>
  <speed>0.0</speed>
  <fix>3d</fix>
</trkpt>
<trkpt lat="40.0713749" lon="-105.229789">
  <ele>1583.0</ele>
  <time>2026-08-28T17:52:03Z</time>
  <course>246.95</course>
  <speed>0.0</speed>
  <fix>3d</fix>
</trkpt>
<trkpt lat="40.0713749" lon="-105.229789">
  <ele>1583.0</ele>
  <time>2026-08-28T17:52:03Z</time>
  <course>0.0</course>
  <speed>0.0</speed>
  <fix>3d</fix>
</trkpt>
<trkpt lat="40.0713749" lon="-105.229789">
  <ele>1583.0</ele>
  <time>2026-08-28T17:52:03Z</time>
  <course>247.02</course>
  <speed>0.0</speed>
  <fix>3d</fix>
</trkpt>
<trkpt lat="40.0713749" lon="-105.229789">
  <ele>1583.0</ele>
  <time>2026-08-28T17:52:03Z</time>
  <course>0.0</course>
  <speed>0.0</speed>
  <fix>3d</fix>
</trkpt>
<trkpt lat="40.0713749" lon="-105.229789">
  <ele>1583.0</ele>
  <time>2026-08-28T17:52:03Z</time>
  <course>247.1</course>
  <speed>0.0</speed>
  <fix>3d</fix>
</trkpt>
<trkpt lat="40.0713749" lon="-105.229789">
  <ele>1583.0</ele>
  <time>2026-08-28T17:52:03Z</time>
  <course>0.0</course>
  <speed>0.0</speed>
  <fix>3d</fix>
</trkpt>
<trkpt lat="40.0713749" lon="-105.229789">
  <ele>1583.0</ele>
  <time>2026-08-28T17:52:03Z</time>
  <course>247.17</course>
  <speed>0.0</speed>
  <fix>3d</fix>
</trkpt>
<trkpt lat="40.0713749" lon="-105.229789">
  <ele>1583.0</ele>
  <time>2026-08-28T17:52:03Z</time>
  <course>0.0</course>
  <speed>0.0</speed>
  <fix>3d</fix>
</trkpt>
<trkpt lat="40.0713749" lon="-105.229789">
  <ele>1583.0</ele>
  <time>2026-08-28T17:52:03Z</time>
  <course>247.24</course>
  <speed>0.0</speed>
  <fix>3d</fix>
</trkpt>
<trkpt lat="40.0713749" lon="-105.229789">
  <ele>1583.0</ele>
  <time>2026-08-28T17:52:03Z</time>
  <course>0.0</course>
  <speed>0.0</speed>
  <fix>3d</fix>
</trkpt>
<trkpt lat="40.0713749" lon="-105.229789">
  <ele>1583.0</ele>
  <time>2026-08-28T17:52:03Z</time>
  <course>247.3</course>
  <speed>0.0</speed>
  <fix>3d</fix>
</trkpt>
<trkpt lat="40.0713749" lon="-105.229789">
  <ele>1583.0</ele>
  <time>2026-08-28T17:52:03Z</time>
  <course>0.0</course>
  <speed>0.0</speed>
  <fix>3d</fix>
</trkpt>
<trkpt lat="40.0713749" lon="-105.229789">
  <ele>1583.0</ele>
  <time>2026-08-28T17:52:03Z</time>
  <course>247.36</course>
  <speed>0.0</speed>
  <fix>3d</fix>
</trkpt>
<trkpt lat="40.0713749" lon="-105.229789">
  <ele>1583.0</ele>
  <time>2026-08-28T17:52:03Z</time>
  <course>0.0</course>
  <speed>0.0</speed>
  <fix>3d</fix>
</trkpt>
<trkpt lat="40.0713749" lon="-105.229789">
  <ele>1583.0</ele>
  <time>2026-08-28T17:52:03Z</time>
  <course>247.42</course>
  <speed>0.0</speed>
  <fix>3d</fix>
</trkpt>
<trkpt lat="40.0713749" lon="-105.229789">
  <ele>1583.0</ele>
  <time>2026-08-28T17:52:03Z</time>
  <course>0.0</course>
  <speed>0.0</speed>
  <fix>3d</fix>
</trkpt>
<trkpt lat="40.0713749" lon="-105.229789">
  <ele>1583.0</ele>
  <time>2026-08-28T17:52:03Z</time>
  <course>247.47</course>
  <speed>0.0</speed>
  <fix>3d</fix>
</trkpt>
<trkpt lat="40.0713749" lon="-105.229789">
  <ele>1583.0</ele>
  <time>2026-08-28T17:52:03Z</time>
  <course>0.0</course>
  <speed>0.0</speed>
  <fix>3d</fix>
</trkpt>
<trkpt lat="40.0713749" lon="-105.229789">
  <ele>1583.0</ele>
  <time>2026-08-28T17:52:03Z</time>
  <course>247.53</course>
  <speed>0.0</speed>
  <fix>3d</fix>
</trkpt>
<trkpt lat="40.0713749" lon="-105.229789">
  <ele>1583.0</ele>
  <time>2026-08-28T17:52:03Z</time>
  <course>0.0</course>
  <speed>0.0</speed>
  <fix>3d</fix>
</trkpt>
<trkpt lat="40.0713749" lon="-105.229789">
  <ele>1583.0</ele>
  <time>2026-08-28T17:52:03Z</time>
  <course>247.58</course>
  <speed>0.0</speed>
  <fix>3d</fix>
</trkpt>
<trkpt lat="40.0713749" lon="-105.229789">
  <ele>1583.0</ele>
  <time>2026-08-28T17:52:03Z</time>
  <course>0.0</course>
  <speed>0.0</speed>
  <fix>3d</fix>
</trkpt>
<trkpt lat="40.0713749" lon="-105.229789">
  <ele>1583.0</ele>
  <time>2026-08-28T17:52:03Z</time>
  <course>247.63</course>
  <speed>0.0</speed>
  <fix>3d</fix>
</trkpt>
<trkpt lat="40.0713749" lon="-105.229789">
  <ele>1583.0</ele>
  <time>2026-08-28T17:52:03Z</time>
  <course>0.0</course>
  <speed>0.0</speed>
  <fix>3d</fix>
</trkpt>
<trkpt lat="40.0713749" lon="-105.229789">
  <ele>1583.0</ele>
  <time>2026-08-28T17:52:03Z</time>
  <course>247.67</course>
  <speed>0.0</speed>
  <fix>3d</fix>
</trkpt>
<trkpt lat="40.0713749" lon="-105.229789">
  <ele>1583.0</ele>
  <time>2026-08-28T17:52:03Z</time>
  <course>0.0</course>
  <speed>0.0</speed>
  <fix>3d</fix>
</trkpt>
<trkpt lat="40.0713749" lon="-105.229789">
  <ele>1583.0</ele>
  <time>2026-08-28T17:52:03Z</time>
  <course>247.72</course>
  <speed>0.0</speed>
  <fix>3d</fix>
</trkpt>
<trkpt lat="40.0713749" lon="-105.229789">
  <ele>1583.0</ele>
  <time>2026-08-28T17:52:03Z</time>
  <course>0.0</course>
  <speed>0.0</speed>
  <fix>3d</fix>
</trkpt>
<trkpt lat="40.0713749" lon="-105.229789">
  <ele>1583.0</ele>
  <time>2026-08-28T17:52:03Z</time>
  <course>247.76</course>
  <speed>0.0</speed>
  <fix>3d</fix>
</trkpt>
<trkpt lat="40.0713749" lon="-105.229789">
  <ele>1583.0</ele>
  <time>2026-08-28T17:52:03Z</time>
  <course>0.0</course>
  <speed>0.0</speed>
  <fix>3d</fix>
</trkpt>
<trkpt lat="40.0713749" lon="-105.229789">
  <ele>1583.0</ele>
  <time>2026-08-28T17:52:03Z</time>
  <course>247.8</course>
  <speed>0.0</speed>
  <fix>3d</fix>
</trkpt>
<trkpt lat="40.0713749" lon="-105.229789">
  <ele>1583.0</ele>
  <time>2026-08-28T17:52:03Z</time>
  <course>0.0</course>
  <speed>0.0</speed>
  <fix>3d</fix>
</trkpt>
<trkpt lat="40.0713749" lon="-105.229789">
  <ele>1583.0</ele>
  <time>2026-08-28T17:52:03Z</time>
  <course>247.83</course>
  <speed>0.0</speed>
  <fix>3d</fix>
</trkpt>
<trkpt lat="40.0713749" lon="-105.229789">
  <ele>1583.0</ele>
  <time>2026-08-28T17:52:03Z</time>
  <course>0.0</course>
  <speed>0.0</speed>
  <fix>3d</fix>
</trkpt>
<trkpt lat="40.0713749" lon="-105.229789">
  <ele>1583.0</ele>
  <time>2026-08-28T17:52:03Z</time>
  <course>247.87</course>
  <speed>0.0</speed>
  <fix>3d</fix>
</trkpt>
<trkpt lat="40.0713749" lon="-105.229789">
  <ele>1583.0</ele>
  <time>2026-08-28T17:52:03Z</time>
  <course>0.0</course>
  <speed>0.0</speed>
  <fix>3d</fix>
</trkpt>
<trkpt lat="40.0713749" lon="-105.229789">
  <ele>1583.0</ele>
  <time>2026-08-28T17:52:03Z</time>
  <course>247.9</course>
  <speed>0.0</speed>
  <fix>3d</fix>
</trkpt>
<trkpt lat="40.0713749" lon="-105.229789">
  <ele>1583.0</ele>
  <time>2026-08-28T17:52:03Z</time>
  <course>0.0</course>
  <speed>0.0</speed>
  <fix>3d</fix>
</trkpt>
<trkpt lat="40.0713749" lon="-105.229789">
  <ele>1583.0</ele>
  <time>2026-08-28T17:52:03Z</time>
  <course>247.94</course>
  <speed>0.0</speed>
  <fix>3d</fix>
</trkpt>
<trkpt lat="40.0713749" lon="-105.229789">
  <ele>1583.0</ele>
  <time>2026-08-28T17:52:03Z</time>
  <course>0.0</course>
  <speed>0.0</speed>
  <fix>3d</fix>
</trkpt>
<trkpt lat="40.0713749" lon="-105.229789">
  <ele>1583.0</ele>
  <time>2026-08-28T17:52:03Z</time>
  <course>247.97</course>
  <speed>0.0</speed>
  <fix>3d</fix>
</trkpt>
<trkpt lat="40.0713749" lon="-105.229789">
  <ele>1583.0</ele>
  <time>2026-08-28T17:52:03Z</time>
  <course>0.0</course>
  <speed>0.0</speed>
  <fix>3d</fix>
</trkpt>
<trkpt lat="40.0713749" lon="-105.229789">
  <ele>1583.0</ele>
  <time>2026-08-28T17:52:03Z</time>
  <course>248.0</course>
  <speed>0.0</speed>
  <fix>3d</fix>
</trkpt>
<trkpt lat="40.0713749" lon="-105.229789">
  <ele>1583.0</ele>
  <time>2026-08-28T17:52:03Z</time>
  <course>0.0</course>
  <speed>0.0</speed>
  <fix>3d</fix>
</trkpt>
<trkpt lat="40.0713749" lon="-105.229789">
  <ele>1583.0</ele>
  <time>2026-08-28T17:52:03Z</time>
  <course>248.02</course>
  <speed>0.0</speed>
  <fix>3d</fix>
</trkpt>
<trkpt lat="40.0713749" lon="-105.229789">
  <ele>1583.0</ele>
  <time>2026-08-28T17:52:03Z</time>
  <course>0.0</course>
  <speed>0.0</speed>
  <fix>3d</fix>
</trkpt>
<trkpt lat="40.0713749" lon="-105.229789">
  <ele>1583.0</ele>
  <time>2026-08-28T17:52:03Z</time>
  <course>248.05</course>
  <speed>0.0</speed>
  <fix>3d</fix>
</trkpt>
<trkpt lat="40.0713749" lon="-105.229789">
  <ele>1583.0</ele>
  <time>2026-08-28T17:52:03Z</time>
  <course>0.0</course>
  <speed>0.0</speed>
  <fix>3d</fix>
</trkpt>
<trkpt lat="40.0713749" lon="-105.229789">
  <ele>1583.0</ele>
  <time>2026-08-28T17:52:03Z</time>
  <course>248.08</course>
  <speed>0.0</speed>
  <fix>3d</fix>
</trkpt>
<trkpt lat="40.0713749" lon="-105.229789">
  <ele>1583.0</ele>
  <time>2026-08-28T17:52:03Z</time>
  <course>0.0</course>
  <speed>0.0</speed>
  <fix>3d</fix>
</trkpt>
<trkpt lat="40.0713749" lon="-105.229789">
  <ele>1583.0</ele>
  <time>2026-08-28T17:52:03Z</time>
  <course>248.1</course>
  <speed>0.0</speed>
  <fix>3d</fix>
</trkpt>
<trkpt lat="40.0713749" lon="-105.229789">
  <ele>1583.0</ele>
  <time>2026-08-28T17:52:03Z</time>
  <course>0.0</course>
  <speed>0.0</speed>
  <fix>3d</fix>
</trkpt>
<trkpt lat="40.0713749" lon="-105.229789">
  <ele>1583.0</ele>
  <time>2026-08-28T17:52:03Z</time>
  <course>248.12</course>
  <speed>0.0</speed>
  <fix>3d</fix>
</trkpt>
<trkpt lat="40.0713749" lon="-105.229789">
  <ele>1583.0</ele>
  <time>2026-08-28T17:52:03Z</time>
  <course>0.0</course>
  <speed>0.0</speed>
  <fix>3d</fix>
</trkpt>
<trkpt lat="40.0713749" lon="-105.229789">
  <ele>1583.0</ele>
  <time>2026-08-28T17:52:03Z</time>
  <course>248.14</course>
  <speed>0.0</speed>
  <fix>3d</fix>
</trkpt>
<trkpt lat="40.0713749" lon="-105.229789">
  <ele>1583.0</ele>
  <time>2026-08-28T17:52:03Z</time>
  <course>0.0</course>
  <speed>0.0</speed>
  <fix>3d</fix>
</trkpt>
<trkpt lat="40.0713749" lon="-105.229789">
  <ele>1583.0</ele>
  <time>2026-08-28T17:52:03Z</time>
  <course>248.16</course>
  <speed>0.0</speed>
  <fix>3d</fix>
</trkpt>
<trkpt lat="40.0713749" lon="-105.229789">
  <ele>1583.0</ele>
  <time>2026-08-28T17:52:03Z</time>
  <course>0.0</course>
  <speed>0.0</speed>
  <fix>3d</fix>
</trkpt>
<trkpt lat="40.0713749" lon="-105.229789">
  <ele>1583.0</ele>
  <time>2026-08-28T17:52:03Z</time>
  <course>248.18</course>
  <speed>0.0</speed>
  <fix>3d</fix>
</trkpt>
<trkpt lat="40.0713749" lon="-105.229789">
  <ele>1583.0</ele>
  <time>2026-08-28T17:52:03Z</time>
  <course>0.0</course>
  <speed>0.0</speed>
  <fix>3d</fix>
</trkpt>
<trkpt lat="40.0713749" lon="-105.229789">
  <ele>1583.0</ele>
  <time>2026-08-28T17:52:03Z</time>
  <course>248.2</course>
  <speed>0.0</speed>
  <fix>3d</fix>
</trkpt>
<trkpt lat="40.0713749" lon="-105.229789">
  <ele>1583.0</ele>
  <time>2026-08-28T17:52:03Z</time>
  <course>0.0</course>
  <speed>0.0</speed>
  <fix>3d</fix>
</trkpt>
<trkpt lat="40.0713749" lon="-105.229789">
  <ele>1583.0</ele>
  <time>2026-08-28T17:52:03Z</time>
  <course>248.22</course>
  <speed>0.0</speed>
  <fix>3d</fix>
</trkpt>
<trkpt lat="40.0713749" lon="-105.229789">
  <ele>1583.0</ele>
  <time>2026-08-28T17:52:03Z</time>
  <course>0.0</course>
  <speed>0.0</speed>
  <fix>3d</fix>
</trkpt>
<trkpt lat="40.0713749" lon="-105.229789">
  <ele>1583.0</ele>
  <time>2026-08-28T17:52:03Z</time>
  <course>248.23</course>
  <speed>0.0</speed>
  <fix>3d</fix>
</trkpt>
<trkpt lat="40.0713749" lon="-105.229789">
  <ele>1583.0</ele>
  <time>2026-08-28T17:52:03Z</time>
  <course>0.0</course>
  <speed>0.0</speed>
  <fix>3d</fix>
</trkpt>
<trkpt lat="40.0713749" lon="-105.229789">
  <ele>1583.0</ele>
  <time>2026-08-28T17:52:03Z</time>
  <course>248.25</course>
  <speed>0.0</speed>
  <fix>3d</fix>
</trkpt>
<trkpt lat="40.0713749" lon="-105.229789">
  <ele>1583.0</ele>
  <time>2026-08-28T17:52:03Z</time>
  <course>0.0</course>
  <speed>0.0</speed>
  <fix>3d</fix>
</trkpt>
<trkpt lat="40.0713749" lon="-105.229789">
  <ele>1583.0</ele>
  <time>2026-08-28T17:52:03Z</time>
  <course>248.26</course>
  <speed>0.0</speed>
  <fix>3d</fix>
</trkpt>
<trkpt lat="40.0713749" lon="-105.229789">
  <ele>1583.0</ele>
  <time>2026-08-28T17:52:03Z</time>
  <course>0.0</course>
  <speed>0.0</speed>
  <fix>3d</fix>
</trkpt>
<trkpt lat="40.0713749" lon="-105.229789">
  <ele>1583.0</ele>
  <time>2026-08-28T17:52:03Z</time>
  <course>248.28</course>
  <speed>0.0</speed>
  <fix>3d</fix>
</trkpt>
<trkpt lat="40.0713749" lon="-105.229789">
  <ele>1583.0</ele>
  <time>2026-08-28T17:52:03Z</time>
  <course>0.0</course>
  <speed>0.0</speed>
  <fix>3d</fix>
</trkpt>
<trkpt lat="40.0713749" lon="-105.229789">
  <ele>1583.0</ele>
  <time>2026-08-28T17:52:03Z</time>
  <course>248.29</course>
  <speed>0.0</speed>
  <fix>3d</fix>
</trkpt>
<trkpt lat="40.0713749" lon="-105.229789">
  <ele>1583.0</ele>
  <time>2026-08-28T17:52:03Z</time>
  <course>0.0</course>
  <speed>0.0</speed>
  <fix>3d</fix>
</trkpt>
<trkpt lat="40.0713749" lon="-105.229789">
  <ele>1583.0</ele>
  <time>2026-08-28T17:52:03Z</time>
  <course>248.3</course>
  <speed>0.0</speed>
  <fix>3d</fix>
</trkpt>
<trkpt lat="40.0713749" lon="-105.229789">
  <ele>1583.0</ele>
  <time>2026-08-28T17:52:03Z</time>
  <course>0.0</course>
  <speed>0.0</speed>
  <fix>3d</fix>
</trkpt>
<trkpt lat="40.0713749" lon="-105.229789">
  <ele>1583.0</ele>
  <time>2026-08-28T17:52:03Z</time>
  <course>248.31</course>
  <speed>0.0</speed>
  <fix>3d</fix>
</trkpt>
<trkpt lat="40.0713749" lon="-105.229789">
  <ele>1583.0</ele>
  <time>2026-08-28T17:52:03Z</time>
  <course>0.0</course>
  <speed>0.0</speed>
  <fix>3d</fix>
</trkpt>
<trkpt lat="40.0713749" lon="-105.229789">
  <ele>1583.0</ele>
  <time>2026-08-28T17:52:03Z</time>
  <course>248.32</course>
  <speed>0.0</speed>
  <fix>3d</fix>
</trkpt>
<trkpt lat="40.0713749" lon="-105.229789">
  <ele>1583.0</ele>
  <time>2026-08-28T17:52:03Z</time>
  <course>0.0</course>
  <speed>0.0</speed>
  <fix>3d</fix>
</trkpt>
<trkpt lat="40.0713749" lon="-105.229789">
  <ele>1583.0</ele>
  <time>2026-08-28T17:52:03Z</time>
  <course>248.33</course>
  <speed>0.0</speed>
  <fix>3d</fix>
</trkpt>
<trkpt lat="40.0713749" lon="-105.229789">
  <ele>1583.0</ele>
  <time>2026-08-28T17:52:03Z</time>
  <course>0.0</course>
  <speed>0.0</speed>
  <fix>3d</fix>
</trkpt>
<trkpt lat="40.0713749" lon="-105.229789">
  <ele>1583.0</ele>
  <time>2026-08-28T17:52:03Z</time>
  <course>248.34</course>
  <speed>0.0</speed>
  <fix>3d</fix>
</trkpt>
<trkpt lat="40.0713749" lon="-105.229789">
  <ele>1583.0</ele>
  <time>2026-08-28T17:52:03Z</time>
  <course>0.0</course>
  <speed>0.0</speed>
  <fix>3d</fix>
</trkpt>
<trkpt lat="40.0713749" lon="-105.229789">
  <ele>1583.0</ele>
  <time>2026-08-28T17:52:03Z</time>
  <course>248.35</course>
  <speed>0.0</speed>
  <fix>3d</fix>
</trkpt>
<trkpt lat="40.0713749" lon="-105.229789">
  <ele>1583.0</ele>
  <time>2026-08-28T17:52:03Z</time>
  <course>0.0</course>
  <speed>0.0</speed>
  <fix>3d</fix>
</trkpt>
<trkpt lat="40.0713749" lon="-105.229789">
  <ele>1583.0</ele>
  <time>2026-08-28T17:52:03Z</time>
  <course>248.35</course>
  <speed>0.0</speed>
  <fix>3d</fix>
</trkpt>
<trkpt lat="40.0713749" lon="-105.229789">
  <ele>1583.0</ele>
  <time>2026-08-28T17:52:03Z</time>
  <course>0.0</course>
  <speed>0.0</speed>
  <fix>3d</fix>
</trkpt>
<trkpt lat="40.0713749" lon="-105.229789">
  <ele>1583.0</ele>
  <time>2026-08-28T17:52:03Z</time>
  <course>248.36</course>
  <speed>0.0</speed>
  <fix>3d</fix>
</trkpt>
<trkpt lat="40.0713749" lon="-105.229789">
  <ele>1583.0</ele>
  <time>2026-08-28T17:52:03Z</time>
  <course>0.0</course>
  <speed>0.0</speed>
  <fix>3d</fix>
</trkpt>
<trkpt lat="40.0713749" lon="-105.229789">
  <ele>1583.0</ele>
  <time>2026-08-28T17:52:03Z</time>
  <course>248.37</course>
  <speed>0.0</speed>
  <fix>3d</fix>
</trkpt>
<trkpt lat="40.0713749" lon="-105.229789">
  <ele>1583.0</ele>
  <time>2026-08-28T17:52:03Z</time>
  <course>0.0</course>
  <speed>0.0</speed>
  <fix>3d</fix>
</trkpt>
<trkpt lat="40.0713749" lon="-105.229789">
  <ele>1583.0</ele>
  <time>2026-08-28T17:52:03Z</time>
  <course>248.37</course>
  <speed>0.0</speed>
  <fix>3d</fix>
</trkpt>
<trkpt lat="40.0713749" lon="-105.229789">
  <ele>1583.0</ele>
  <time>2026-08-28T17:52:03Z</time>
  <course>0.0</course>
  <speed>0.0</speed>
  <fix>3d</fix>
</trkpt>
<trkpt lat="40.0713749" lon="-105.229789">
  <ele>1583.0</ele>
  <time>2026-08-28T17:52:03Z</time>
  <course>248.38</course>
  <speed>0.0</speed>
  <fix>3d</fix>
</trkpt>
<trkpt lat="40.0713749" lon="-105.229789">
  <ele>1583.0</ele>
  <time>2026-08-28T17:52:03Z</time>
  <course>0.0</course>
  <speed>0.0</speed>
  <fix>3d</fix>
</trkpt>
<trkpt lat="40.0713749" lon="-105.229789">
  <ele>1583.0</ele>
  <time>2026-08-28T17:52:03Z</time>
  <course>248.38</course>
  <speed>0.0</speed>
  <fix>3d</fix>
</trkpt>
<trkpt lat="40.0713749" lon="-105.229789">
  <ele>1583.0</ele>
  <time>2026-08-28T17:52:03Z</time>
  <course>0.0</course>
  <speed>0.0</speed>
  <fix>3d</fix>
</trkpt>
<trkpt lat="40.0713749" lon="-105.229789">
  <ele>1583.0</ele>
  <time>2026-08-28T17:52:03Z</time>
  <course>248.39</course>
  <speed>0.0</speed>
  <fix>3d</fix>
</trkpt>
<trkpt lat="40.0713749" lon="-105.229789">
  <ele>1583.0</ele>
  <time>2026-08-28T17:52:03Z</time>
  <course>0.0</course>
  <speed>0.0</speed>
  <fix>3d</fix>
</trkpt>
<trkpt lat="40.0713749" lon="-105.229789">
  <ele>1583.0</ele>
  <time>2026-08-28T17:52:03Z</time>
  <course>248.39</course>
  <speed>0.0</speed>
  <fix>3d</fix>
</trkpt>
<trkpt lat="40.0713749" lon="-105.229789">
  <ele>1583.0</ele>
  <time>2026-08-28T17:52:03Z</time>
  <course>0.0</course>
  <speed>0.0</speed>
  <fix>3d</fix>
</trkpt>
<trkpt lat="40.0713749" lon="-105.229789">
  <ele>1583.0</ele>
  <time>2026-08-28T17:52:03Z</time>
  <course>248.4</course>
  <speed>0.0</speed>
  <fix>3d</fix>
</trkpt>
<trkpt lat="40.0713749" lon="-105.229789">
  <ele>1583.0</ele>
  <time>2026-08-28T17:52:03Z</time>
  <course>0.0</course>
  <speed>0.0</speed>
  <fix>3d</fix>
</trkpt>
<trkpt lat="40.0713749" lon="-105.229789">
  <ele>1583.0</ele>
  <time>2026-08-28T17:52:03Z</time>
  <course>248.4</course>
  <speed>0.0</speed>
  <fix>3d</fix>
</trkpt>
<trkpt lat="40.0713749" lon="-105.229789">
  <ele>1583.0</ele>
  <time>2026-08-28T17:52:03Z</time>
  <course>0.0</course>
  <speed>0.0</speed>
  <fix>3d</fix>
</trkpt>
<trkpt lat="40.0713749" lon="-105.229789">
  <ele>1583.0</ele>
  <time>2026-08-28T17:52:03Z</time>
  <course>248.4</course>
  <speed>0.0</speed>
  <fix>3d</fix>
</trkpt>
<trkpt lat="40.0713749" lon="-105.229789">
  <ele>1583.0</ele>
  <time>2026-08-28T17:52:03Z</time>
  <course>0.0</course>
  <speed>0.0</speed>
  <fix>3d</fix>
</trkpt>
<trkpt lat="40.0713749" lon="-105.229789">
  <ele>1583.0</ele>
  <time>2026-08-28T17:52:03Z</time>
  <course>248.4</course>
  <speed>0.0</speed>
  <fix>3d</fix>
</trkpt>
<trkpt lat="40.0713749" lon="-105.229789">
  <ele>1583.0</ele>
  <time>2026-08-28T17:52:03Z</time>
  <course>0.0</course>
  <speed>0.0</speed>
  <fix>3d</fix>
</trkpt>
<trkpt lat="40.0713749" lon="-105.229789">
  <ele>1583.0</ele>
  <time>2026-08-28T17:52:03Z</time>
  <course>248.41</course>
  <speed>0.0</speed>
  <fix>3d</fix>
</trkpt>
<trkpt lat="40.0713749" lon="-105.229789">
  <ele>1583.0</ele>
  <time>2026-08-28T17:52:03Z</time>
  <course>0.0</course>
  <speed>0.0</speed>
  <fix>3d</fix>
</trkpt>
<trkpt lat="40.0713749" lon="-105.229789">
  <ele>1583.0</ele>
  <time>2026-08-28T17:52:03Z</time>
  <course>248.41</course>
  <speed>0.0</speed>
  <fix>3d</fix>
</trkpt>
<trkpt lat="40.0713749" lon="-105.229789">
  <ele>1583.0</ele>
  <time>2026-08-28T17:52:03Z</time>
  <course>0.0</course>
  <speed>0.0</speed>
  <fix>3d</fix>
</trkpt>
<trkpt lat="40.0713749" lon="-105.229789">
  <ele>1583.0</ele>
  <time>2026-08-28T17:52:03Z</time>
  <course>248.41</course>
  <speed>0.0</speed>
  <fix>3d</fix>
</trkpt>
<trkpt lat="40.0713749" lon="-105.229789">
  <ele>1583.0</ele>
  <time>2026-08-28T17:52:03Z</time>
  <course>0.0</course>
  <speed>0.0</speed>
  <fix>3d</fix>
</trkpt>
<trkpt lat="40.0713749" lon="-105.229789">
  <ele>1583.0</ele>
  <time>2026-08-28T17:52:03Z</time>
  <course>248.41</course>
  <speed>0.0</speed>
  <fix>3d</fix>
</trkpt>
<trkpt lat="40.0713749" lon="-105.229789">
  <ele>1583.0</ele>
  <time>2026-08-28T17:52:03Z</time>
  <course>0.0</course>
  <speed>0.0</speed>
  <fix>3d</fix>
</trkpt>
<trkpt lat="40.0713749" lon="-105.229789">
  <ele>1583.0</ele>
  <time>2026-08-28T17:52:03Z</time>
  <course>248.41</course>
  <speed>0.0</speed>
  <fix>3d</fix>
</trkpt>
<trkpt lat="40.0713749" lon="-105.229789">
  <ele>1583.0</ele>
  <time>2026-08-28T17:52:03Z</time>
  <course>0.0</course>
  <speed>0.0</speed>
  <fix>3d</fix>
</trkpt>
<trkpt lat="40.0713749" lon="-105.229789">
  <ele>1583.0</ele>
  <time>2026-08-28T17:52:03Z</time>
  <course>248.41</course>
  <speed>0.0</speed>
  <fix>3d</fix>
</trkpt>
<trkpt lat="40.0713749" lon="-105.229789">
  <ele>1583.0</ele>
  <time>2026-08-28T17:52:03Z</time>
  <course>0.0</course>
  <speed>0.0</speed>
  <fix>3d</fix>
</trkpt>
<trkpt lat="40.0713749" lon="-105.229789">
  <ele>1583.0</ele>
  <time>2026-08-28T17:52:03Z</time>
  <course>248.41</course>
  <speed>0.0</speed>
  <fix>3d</fix>
</trkpt>
<trkpt lat="40.0713749" lon="-105.229789">
  <ele>1583.0</ele>
  <time>2026-08-28T17:52:03Z</time>
  <course>0.0</course>
  <speed>0.0</speed>
  <fix>3d</fix>
</trkpt>
<trkpt lat="40.0713749" lon="-105.229789">
  <ele>1583.0</ele>
  <time>2026-08-28T17:52:03Z</time>
  <course>248.41</course>
  <speed>0.0</speed>
  <fix>3d</fix>
</trkpt>
<trkpt lat="40.0713749" lon="-105.229789">
  <ele>1583.0</ele>
  <time>2026-08-28T17:52:03Z</time>
  <course>0.0</course>
  <speed>0.0</speed>
  <fix>3d</fix>
</trkpt>
<trkpt lat="40.0713749" lon="-105.229789">
  <ele>1583.0</ele>
  <time>2026-08-28T17:52:03Z</time>
  <course>248.41</course>
  <speed>0.0</speed>
  <fix>3d</fix>
</trkpt>
<trkpt lat="40.0713749" lon="-105.229789">
  <ele>1583.0</ele>
  <time>2026-08-28T17:52:03Z</time>
  <course>0.0</course>
  <speed>0.0</speed>
  <fix>3d</fix>
</trkpt>
<trkpt lat="40.0713749" lon="-105.229789">
  <ele>1583.0</ele>
  <time>2026-08-28T17:52:03Z</time>
  <course>248.41</course>
  <speed>0.0</speed>
  <fix>3d</fix>
</trkpt>
<trkpt lat="40.0713749" lon="-105.229789">
  <ele>1583.0</ele>
  <time>2026-08-28T17:52:03Z</time>
  <course>0.0</course>
  <speed>0.0</speed>
  <fix>3d</fix>
</trkpt>
<trkpt lat="40.0713749" lon="-105.229789">
  <ele>1583.0</ele>
  <time>2026-08-28T17:52:03Z</time>
  <course>248.41</course>
  <speed>0.0</speed>
  <fix>3d</fix>
</trkpt>
<trkpt lat="40.0713749" lon="-105.229789">
  <ele>1583.0</ele>
  <time>2026-08-28T17:52:03Z</time>
  <course>0.0</course>
  <speed>0.0</speed>
  <fix>3d</fix>
</trkpt>
<trkpt lat="40.0713749" lon="-105.229789">
  <ele>1583.0</ele>
  <time>2026-08-28T17:52:03Z</time>
  <course>248.41</course>
  <speed>0.0</speed>
  <fix>3d</fix>
</trkpt>
<trkpt lat="40.0713749" lon="-105.229789">
  <ele>1583.0</ele>
  <time>2026-08-28T17:52:03Z</time>
  <course>0.0</course>
  <speed>0.0</speed>
  <fix>3d</fix>
</trkpt>
<trkpt lat="40.0713749" lon="-105.229789">
  <ele>1583.0</ele>
  <time>2026-08-28T17:52:03Z</time>
  <course>248.41</course>
  <speed>0.0</speed>
  <fix>3d</fix>
</trkpt>
<trkpt lat="40.0713749" lon="-105.229789">
  <ele>1583.0</ele>
  <time>2026-08-28T17:52:03Z</time>
  <course>0.0</course>
  <speed>0.0</speed>
  <fix>3d</fix>
</trkpt>
<trkpt lat="40.0713749" lon="-105.229789">
  <ele>1583.0</ele>
  <time>2026-08-28T17:52:03Z</time>
  <course>248.41</course>
  <speed>0.0</speed>
  <fix>3d</fix>
</trkpt>
<trkpt lat="40.0713749" lon="-105.229789">
  <ele>1583.0</ele>
  <time>2026-08-28T17:52:03Z</time>
  <course>0.0</course>
  <speed>0.0</speed>
  <fix>3d</fix>
</trkpt>
<trkpt lat="40.0713749" lon="-105.229789">
  <ele>1583.0</ele>
  <time>2026-08-28T17:52:03Z</time>
  <course>248.41</course>
  <speed>0.0</speed>
  <fix>3d</fix>
</trkpt>
<trkpt lat="40.0713749" lon="-105.229789">
  <ele>1583.0</ele>
  <time>2026-08-28T17:52:03Z</time>
  <course>0.0</course>
  <speed>0.0</speed>
  <fix>3d</fix>
</trkpt>
<trkpt lat="40.0713749" lon="-105.229789">
  <ele>1583.0</ele>
  <time>2026-08-28T17:52:03Z</time>
  <course>248.41</course>
  <speed>0.0</speed>
  <fix>3d</fix>
</trkpt>
<trkpt lat="40.0713749" lon="-105.229789">
  <ele>1583.0</ele>
  <time>2026-08-28T17:52:03Z</time>
  <course>0.0</course>
  <speed>0.0</speed>
  <fix>3d</fix>
</trkpt>
<trkpt lat="40.0713749" lon="-105.229789">
  <ele>1583.0</ele>
  <time>2026-08-28T17:52:03Z</time>
  <course>248.4</course>
  <speed>0.0</speed>
  <fix>3d</fix>
</trkpt>
<trkpt lat="40.0713749" lon="-105.229789">
  <ele>1583.0</ele>
  <time>2026-08-28T17:52:03Z</time>
  <course>0.0</course>
  <speed>0.0</speed>
  <fix>3d</fix>
</trkpt>
<trkpt lat="40.0713749" lon="-105.229789">
  <ele>1583.0</ele>
  <time>2026-08-28T17:52:03Z</time>
  <course>248.4</course>
  <speed>0.01</speed>
  <fix>3d</fix>
</trkpt>
<trkpt lat="40.0713749" lon="-105.229789">
  <ele>1583.0</ele>
  <time>2026-08-28T17:52:03Z</time>
  <course>0.0</course>
  <speed>0.0</speed>
  <fix>3d</fix>
</trkpt>
<trkpt lat="40.0713749" lon="-105.229789">
  <ele>1583.0</ele>
  <time>2026-08-28T17:52:03Z</time>
  <course>248.4</course>
  <speed>0.01</speed>
  <fix>3d</fix>
</trkpt>
<trkpt lat="40.0713749" lon="-105.229789">
  <ele>1583.0</ele>
  <time>2026-08-28T17:52:03Z</time>
  <course>0.0</course>
  <speed>0.0</speed>
  <fix>3d</fix>
</trkpt>
<trkpt lat="40.0713749" lon="-105.229789">
  <ele>1583.0</ele>
  <time>2026-08-28T17:52:03Z</time>
  <course>248.4</course>
  <speed>0.01</speed>
  <fix>3d</fix>
</trkpt>
<trkpt lat="40.0713749" lon="-105.229789">
  <ele>1583.0</ele>
  <time>2026-08-28T17:52:03Z</time>
  <course>0.0</course>
  <speed>0.0</speed>
  <fix>3d</fix>
</trkpt>
<trkpt lat="40.0713749" lon="-105.229789">
  <ele>1583.0</ele>
  <time>2026-08-28T17:52:03Z</time>
  <course>248.4</course>
  <speed>0.01</speed>
  <fix>3d</fix>
</trkpt>
<trkpt lat="40.0713749" lon="-105.229789">
  <ele>1583.0</ele>
  <time>2026-08-28T17:52:03Z</time>
  <course>0.0</course>
  <speed>0.0</speed>
  <fix>3d</fix>
</trkpt>
<trkpt lat="40.0713749" lon="-105.229789">
  <ele>1583.0</ele>
  <time>2026-08-28T17:52:03Z</time>
  <course>248.39</course>
  <speed>0.01</speed>
  <fix>3d</fix>
</trkpt>
<trkpt lat="40.0713749" lon="-105.229789">
  <ele>1583.0</ele>
  <time>2026-08-28T17:52:03Z</time>
  <course>0.0</course>
  <speed>0.0</speed>
  <fix>3d</fix>
</trkpt>
<trkpt lat="40.0713749" lon="-105.229789">
  <ele>1583.0</ele>
  <time>2026-08-28T17:52:03Z</time>
  <course>248.39</course>
  <speed>0.01</speed>
  <fix>3d</fix>
</trkpt>
<trkpt lat="40.0713749" lon="-105.229789">
  <ele>1583.0</ele>
  <time>2026-08-28T17:52:03Z</time>
  <course>0.0</course>
  <speed>0.0</speed>
  <fix>3d</fix>
</trkpt>
<trkpt lat="40.0713749" lon="-105.229789">
  <ele>1583.0</ele>
  <time>2026-08-28T17:52:03Z</time>
  <course>248.39</course>
  <speed>0.01</speed>
  <fix>3d</fix>
</trkpt>
<trkpt lat="40.0713749" lon="-105.229789">
  <ele>1583.0</ele>
  <time>2026-08-28T17:52:03Z</time>
  <course>0.0</course>
  <speed>0.0</speed>
  <fix>3d</fix>
</trkpt>
<trkpt lat="40.0713749" lon="-105.229789">
  <ele>1583.0</ele>
  <time>2026-08-28T17:52:03Z</time>
  <course>248.38</course>
  <speed>0.01</speed>
  <fix>3d</fix>
</trkpt>
<trkpt lat="40.0713749" lon="-105.229789">
  <ele>1583.0</ele>
  <time>2026-08-28T17:52:03Z</time>
  <course>0.0</course>
  <speed>0.0</speed>
  <fix>3d</fix>
</trkpt>
<trkpt lat="40.0713749" lon="-105.229789">
  <ele>1583.0</ele>
  <time>2026-08-28T17:52:03Z</time>
  <course>248.38</course>
  <speed>0.01</speed>
  <fix>3d</fix>
</trkpt>
<trkpt lat="40.0713749" lon="-105.229789">
  <ele>1583.0</ele>
  <time>2026-08-28T17:52:03Z</time>
  <course>0.0</course>
  <speed>0.0</speed>
  <fix>3d</fix>
</trkpt>
<trkpt lat="40.0713749" lon="-105.229789">
  <ele>1583.0</ele>
  <time>2026-08-28T17:52:03Z</time>
  <course>248.38</course>
  <speed>0.01</speed>
  <fix>3d</fix>
</trkpt>
<trkpt lat="40.0713749" lon="-105.229789">
  <ele>1583.0</ele>
  <time>2026-08-28T17:52:03Z</time>
  <course>0.0</course>
  <speed>0.0</speed>
  <fix>3d</fix>
</trkpt>
<trkpt lat="40.0713749" lon="-105.229789">
  <ele>1583.0</ele>
  <time>2026-08-28T17:52:03Z</time>
  <course>248.37</course>
  <speed>0.01</speed>
  <fix>3d</fix>
</trkpt>
<trkpt lat="40.0713749" lon="-105.229789">
  <ele>1583.0</ele>
  <time>2026-08-28T17:52:03Z</time>
  <course>0.0</course>
  <speed>0.0</speed>
  <fix>3d</fix>
</trkpt>
<trkpt lat="40.0713749" lon="-105.229789">
  <ele>1583.0</ele>
  <time>2026-08-28T17:52:03Z</time>
  <course>248.37</course>
  <speed>0.01</speed>
  <fix>3d</fix>
</trkpt>
<trkpt lat="40.0713749" lon="-105.229789">
  <ele>1583.0</ele>
  <time>2026-08-28T17:52:03Z</time>
  <course>0.0</course>
  <speed>0.0</speed>
  <fix>3d</fix>
</trkpt>
<trkpt lat="40.0713749" lon="-105.229789">
  <ele>1583.0</ele>
  <time>2026-08-28T17:52:03Z</time>
  <course>248.37</course>
  <speed>0.01</speed>
  <fix>3d</fix>
</trkpt>
<trkpt lat="40.0713749" lon="-105.229789">
  <ele>1583.0</ele>
  <time>2026-08-28T17:52:03Z</time>
  <course>0.0</course>
  <speed>0.0</speed>
  <fix>3d</fix>
</trkpt>
<trkpt lat="40.0713749" lon="-105.229789">
  <ele>1583.0</ele>
  <time>2026-08-28T17:52:03Z</time>
  <course>248.36</course>
  <speed>0.01</speed>
  <fix>3d</fix>
</trkpt>
<trkpt lat="40.0713749" lon="-105.229789">
  <ele>1583.0</ele>
  <time>2026-08-28T17:52:03Z</time>
  <course>0.0</course>
  <speed>0.0</speed>
  <fix>3d</fix>
</trkpt>
<trkpt lat="40.0713749" lon="-105.229789">
  <ele>1583.0</ele>
  <time>2026-08-28T17:52:03Z</time>
  <course>248.36</course>
  <speed>0.01</speed>
  <fix>3d</fix>
</trkpt>
<trkpt lat="40.0713749" lon="-105.229789">
  <ele>1583.0</ele>
  <time>2026-08-28T17:52:03Z</time>
  <course>0.0</course>
  <speed>0.0</speed>
  <fix>3d</fix>
</trkpt>
<trkpt lat="40.0713749" lon="-105.229789">
  <ele>1583.0</ele>
  <time>2026-08-28T17:52:03Z</time>
  <course>248.36</course>
  <speed>0.01</speed>
  <fix>3d</fix>
</trkpt>
<trkpt lat="40.0713749" lon="-105.229789">
  <ele>1583.0</ele>
  <time>2026-08-28T17:52:03Z</time>
  <course>0.0</course>
  <speed>0.0</speed>
  <fix>3d</fix>
</trkpt>
<trkpt lat="40.0713749" lon="-105.229789">
  <ele>1583.0</ele>
  <time>2026-08-28T17:52:03Z</time>
  <course>248.35</course>
  <speed>0.01</speed>
  <fix>3d</fix>
</trkpt>
<trkpt lat="40.0713749" lon="-105.229789">
  <ele>1583.0</ele>
  <time>2026-08-28T17:52:03Z</time>
  <course>0.0</course>
  <speed>0.0</speed>
  <fix>3d</fix>
</trkpt>
<trkpt lat="40.0713749" lon="-105.229789">
  <ele>1583.0</ele>
  <time>2026-08-28T17:52:03Z</time>
  <course>248.35</course>
  <speed>0.01</speed>
  <fix>3d</fix>
</trkpt>
<trkpt lat="40.0713749" lon="-105.229789">
  <ele>1583.0</ele>
  <time>2026-08-28T17:52:03Z</time>
  <course>0.0</course>
  <speed>0.0</speed>
  <fix>3d</fix>
</trkpt>
<trkpt lat="40.0713749" lon="-105.229789">
  <ele>1583.0</ele>
  <time>2026-08-28T17:52:03Z</time>
  <course>248.35</course>
  <speed>0.01</speed>
  <fix>3d</fix>
</trkpt>
<trkpt lat="40.0713749" lon="-105.229789">
  <ele>1583.0</ele>
  <time>2026-08-28T17:52:03Z</time>
  <course>0.0</course>
  <speed>0.0</speed>
  <fix>3d</fix>
</trkpt>
<trkpt lat="40.0713749" lon="-105.229789">
  <ele>1583.0</ele>
  <time>2026-08-28T17:52:03Z</time>
  <course>248.34</course>
  <speed>0.01</speed>
  <fix>3d</fix>
</trkpt>
<trkpt lat="40.0713749" lon="-105.229789">
  <ele>1583.0</ele>
  <time>2026-08-28T17:52:03Z</time>
  <course>0.0</course>
  <speed>0.0</speed>
  <fix>3d</fix>
</trkpt>
<trkpt lat="40.0713749" lon="-105.229789">
  <ele>1583.0</ele>
  <time>2026-08-28T17:52:03Z</time>
  <course>248.34</course>
  <speed>0.01</speed>
  <fix>3d</fix>
</trkpt>
<trkpt lat="40.0713749" lon="-105.229789">
  <ele>1583.0</ele>
  <time>2026-08-28T17:52:03Z</time>
  <course>0.0</course>
  <speed>0.0</speed>
  <fix>3d</fix>
</trkpt>
<trkpt lat="40.0713749" lon="-105.229789">
  <ele>1583.0</ele>
  <time>2026-08-28T17:52:03Z</time>
  <course>248.33</course>
  <speed>0.01</speed>
  <fix>3d</fix>
</trkpt>
<trkpt lat="40.0713749" lon="-105.229789">
  <ele>1583.0</ele>
  <time>2026-08-28T17:52:03Z</time>
  <course>0.0</course>
  <speed>0.0</speed>
  <fix>3d</fix>
</trkpt>
<trkpt lat="40.0713749" lon="-105.229789">
  <ele>1583.0</ele>
  <time>2026-08-28T17:52:03Z</time>
  <course>248.33</course>
  <speed>0.01</speed>
  <fix>3d</fix>
</trkpt>
<trkpt lat="40.0713749" lon="-105.229789">
  <ele>1583.0</ele>
  <time>2026-08-28T17:52:03Z</time>
  <course>0.0</course>
  <speed>0.0</speed>
  <fix>3d</fix>
</trkpt>
<trkpt lat="40.0713749" lon="-105.229789">
  <ele>1583.0</ele>
  <time>2026-08-28T17:52:03Z</time>
  <course>248.32</course>
  <speed>0.01</speed>
  <fix>3d</fix>
</trkpt>
<trkpt lat="40.0713749" lon="-105.229789">
  <ele>1583.0</ele>
  <time>2026-08-28T17:52:03Z</time>
  <course>0.0</course>
  <speed>0.0</speed>
  <fix>3d</fix>
</trkpt>
<trkpt lat="40.0713749" lon="-105.229789">
  <ele>1583.0</ele>
  <time>2026-08-28T17:52:03Z</time>
  <course>248.32</course>
  <speed>0.01</speed>
  <fix>3d</fix>
</trkpt>
<trkpt lat="40.0713749" lon="-105.229789">
  <ele>1583.0</ele>
  <time>2026-08-28T17:52:03Z</time>
  <course>0.0</course>
  <speed>0.0</speed>
  <fix>3d</fix>
</trkpt>
<trkpt lat="40.0713749" lon="-105.229789">
  <ele>1583.0</ele>
  <time>2026-08-28T17:52:03Z</time>
  <course>248.32</course>
  <speed>0.01</speed>
  <fix>3d</fix>
</trkpt>
<trkpt lat="40.0713749" lon="-105.229789">
  <ele>1583.0</ele>
  <time>2026-08-28T17:52:03Z</time>
  <course>0.0</course>
  <speed>0.0</speed>
  <fix>3d</fix>
</trkpt>
<trkpt lat="40.0713749" lon="-105.229789">
  <ele>1583.0</ele>
  <time>2026-08-28T17:52:04Z</time>
  <course>248.31</course>
  <speed>0.01</speed>
  <fix>3d</fix>
</trkpt>
<trkpt lat="40.0713749" lon="-105.229789">
  <ele>1583.0</ele>
  <time>2026-08-28T17:52:04Z</time>
  <course>0.0</course>
  <speed>0.0</speed>
  <fix>3d</fix>
</trkpt>
<trkpt lat="40.0713749" lon="-105.229789">
  <ele>1583.0</ele>
  <time>2026-08-28T17:52:04Z</time>
  <course>248.31</course>
  <speed>0.01</speed>
  <fix>3d</fix>
</trkpt>
<trkpt lat="40.0713749" lon="-105.229789">
  <ele>1583.0</ele>
  <time>2026-08-28T17:52:04Z</time>
  <course>0.0</course>
  <speed>0.0</speed>
  <fix>3d</fix>
</trkpt>
<trkpt lat="40.0713749" lon="-105.229789">
  <ele>1583.0</ele>
  <time>2026-08-28T17:52:04Z</time>
  <course>248.3</course>
  <speed>0.01</speed>
  <fix>3d</fix>
</trkpt>
<trkpt lat="40.0713749" lon="-105.229789">
  <ele>1583.0</ele>
  <time>2026-08-28T17:52:04Z</time>
  <course>0.0</course>
  <speed>0.0</speed>
  <fix>3d</fix>
</trkpt>
<trkpt lat="40.0713749" lon="-105.229789">
  <ele>1583.0</ele>
  <time>2026-08-28T17:52:04Z</time>
  <course>248.3</course>
  <speed>0.01</speed>
  <fix>3d</fix>
</trkpt>
<trkpt lat="40.0713749" lon="-105.229789">
  <ele>1583.0</ele>
  <time>2026-08-28T17:52:04Z</time>
  <course>0.0</course>
  <speed>0.0</speed>
  <fix>3d</fix>
</trkpt>
<trkpt lat="40.0713749" lon="-105.229789">
  <ele>1583.0</ele>
  <time>2026-08-28T17:52:04Z</time>
  <course>248.29</course>
  <speed>0.01</speed>
  <fix>3d</fix>
</trkpt>
<trkpt lat="40.0713749" lon="-105.229789">
  <ele>1583.0</ele>
  <time>2026-08-28T17:52:04Z</time>
  <course>0.0</course>
  <speed>0.0</speed>
  <fix>3d</fix>
</trkpt>
<trkpt lat="40.0713749" lon="-105.229789">
  <ele>1583.0</ele>
  <time>2026-08-28T17:52:04Z</time>
  <course>248.29</course>
  <speed>0.01</speed>
  <fix>3d</fix>
</trkpt>
<trkpt lat="40.0713749" lon="-105.229789">
  <ele>1583.0</ele>
  <time>2026-08-28T17:52:04Z</time>
  <course>0.0</course>
  <speed>0.0</speed>
  <fix>3d</fix>
</trkpt>
<trkpt lat="40.0713749" lon="-105.229789">
  <ele>1583.0</ele>
  <time>2026-08-28T17:52:04Z</time>
  <course>248.28</course>
  <speed>0.01</speed>
  <fix>3d</fix>
</trkpt>
<trkpt lat="40.0713749" lon="-105.229789">
  <ele>1583.0</ele>
  <time>2026-08-28T17:52:04Z</time>
  <course>0.0</course>
  <speed>0.0</speed>
  <fix>3d</fix>
</trkpt>
<trkpt lat="40.0713749" lon="-105.229789">
  <ele>1583.0</ele>
  <time>2026-08-28T17:52:04Z</time>
  <course>248.28</course>
  <speed>0.01</speed>
  <fix>3d</fix>
</trkpt>
<trkpt lat="40.0713749" lon="-105.229789">
  <ele>1583.0</ele>
  <time>2026-08-28T17:52:04Z</time>
  <course>0.0</course>
  <speed>0.0</speed>
  <fix>3d</fix>
</trkpt>
<trkpt lat="40.0713749" lon="-105.229789">
  <ele>1583.0</ele>
  <time>2026-08-28T17:52:04Z</time>
  <course>248.27</course>
  <speed>0.01</speed>
  <fix>3d</fix>
</trkpt>
<trkpt lat="40.0713749" lon="-105.229789">
  <ele>1583.0</ele>
  <time>2026-08-28T17:52:04Z</time>
  <course>0.0</course>
  <speed>0.0</speed>
  <fix>3d</fix>
</trkpt>
<trkpt lat="40.0713749" lon="-105.229789">
  <ele>1583.0</ele>
  <time>2026-08-28T17:52:04Z</time>
  <course>248.27</course>
  <speed>0.01</speed>
  <fix>3d</fix>
</trkpt>
<trkpt lat="40.0713749" lon="-105.229789">
  <ele>1583.0</ele>
  <time>2026-08-28T17:52:04Z</time>
  <course>0.0</course>
  <speed>0.0</speed>
  <fix>3d</fix>
</trkpt>
<trkpt lat="40.0713749" lon="-105.229789">
  <ele>1583.0</ele>
  <time>2026-08-28T17:52:04Z</time>
  <course>248.26</course>
  <speed>0.01</speed>
  <fix>3d</fix>
</trkpt>
<trkpt lat="40.0713749" lon="-105.229789">
  <ele>1583.0</ele>
  <time>2026-08-28T17:52:04Z</time>
  <course>0.0</course>
  <speed>0.0</speed>
  <fix>3d</fix>
</trkpt>
<trkpt lat="40.0713749" lon="-105.229789">
  <ele>1583.0</ele>
  <time>2026-08-28T17:52:04Z</time>
  <course>248.26</course>
  <speed>0.01</speed>
  <fix>3d</fix>
</trkpt>
<trkpt lat="40.0713749" lon="-105.229789">
  <ele>1583.0</ele>
  <time>2026-08-28T17:52:04Z</time>
  <course>0.0</course>
  <speed>0.0</speed>
  <fix>3d</fix>
</trkpt>
<trkpt lat="40.0713749" lon="-105.229789">
  <ele>1583.0</ele>
  <time>2026-08-28T17:52:04Z</time>
  <course>248.26</course>
  <speed>0.01</speed>
  <fix>3d</fix>
</trkpt>
<trkpt lat="40.0713749" lon="-105.229789">
  <ele>1583.0</ele>
  <time>2026-08-28T17:52:04Z</time>
  <course>0.0</course>
  <speed>0.0</speed>
  <fix>3d</fix>
</trkpt>
<trkpt lat="40.0713749" lon="-105.229789">
  <ele>1583.0</ele>
  <time>2026-08-28T17:52:04Z</time>
  <course>248.25</course>
  <speed>0.01</speed>
  <fix>3d</fix>
</trkpt>
<trkpt lat="40.0713749" lon="-105.229789">
  <ele>1583.0</ele>
  <time>2026-08-28T17:52:04Z</time>
  <course>0.0</course>
  <speed>0.0</speed>
  <fix>3d</fix>
</trkpt>
<trkpt lat="40.0713749" lon="-105.229789">
  <ele>1583.0</ele>
  <time>2026-08-28T17:52:04Z</time>
  <course>248.25</course>
  <speed>0.01</speed>
  <fix>3d</fix>
</trkpt>
<trkpt lat="40.0713749" lon="-105.229789">
  <ele>1583.0</ele>
  <time>2026-08-28T17:52:04Z</time>
  <course>0.0</course>
  <speed>0.0</speed>
  <fix>3d</fix>
</trkpt>
<trkpt lat="40.0713749" lon="-105.229789">
  <ele>1583.0</ele>
  <time>2026-08-28T17:52:04Z</time>
  <course>248.24</course>
  <speed>0.01</speed>
  <fix>3d</fix>
</trkpt>
<trkpt lat="40.0713749" lon="-105.229789">
  <ele>1583.0</ele>
  <time>2026-08-28T17:52:04Z</time>
  <course>0.0</course>
  <speed>0.0</speed>
  <fix>3d</fix>
</trkpt>
<trkpt lat="40.0713749" lon="-105.229789">
  <ele>1583.0</ele>
  <time>2026-08-28T17:52:04Z</time>
  <course>248.24</course>
  <speed>0.01</speed>
  <fix>3d</fix>
</trkpt>
<trkpt lat="40.0713749" lon="-105.229789">
  <ele>1583.0</ele>
  <time>2026-08-28T17:52:04Z</time>
  <course>0.0</course>
  <speed>0.0</speed>
  <fix>3d</fix>
</trkpt>
<trkpt lat="40.0713749" lon="-105.229789">
  <ele>1583.0</ele>
  <time>2026-08-28T17:52:04Z</time>
  <course>248.23</course>
  <speed>0.01</speed>
  <fix>3d</fix>
</trkpt>
<trkpt lat="40.0713749" lon="-105.229789">
  <ele>1583.0</ele>
  <time>2026-08-28T17:52:04Z</time>
  <course>0.0</course>
  <speed>0.0</speed>
  <fix>3d</fix>
</trkpt>
<trkpt lat="40.0713749" lon="-105.229789">
  <ele>1583.0</ele>
  <time>2026-08-28T17:52:04Z</time>
  <course>248.23</course>
  <speed>0.01</speed>
  <fix>3d</fix>
</trkpt>
<trkpt lat="40.0713749" lon="-105.229789">
  <ele>1583.0</ele>
  <time>2026-08-28T17:52:04Z</time>
  <course>0.0</course>
  <speed>0.0</speed>
  <fix>3d</fix>
</trkpt>
<trkpt lat="40.0713749" lon="-105.229789">
  <ele>1583.0</ele>
  <time>2026-08-28T17:52:04Z</time>
  <course>248.22</course>
  <speed>0.01</speed>
  <fix>3d</fix>
</trkpt>
<trkpt lat="40.0713749" lon="-105.229789">
  <ele>1583.0</ele>
  <time>2026-08-28T17:52:04Z</time>
  <course>0.0</course>
  <speed>0.0</speed>
  <fix>3d</fix>
</trkpt>
<trkpt lat="40.0713749" lon="-105.229789">
  <ele>1583.0</ele>
  <time>2026-08-28T17:52:04Z</time>
  <course>248.22</course>
  <speed>0.01</speed>
  <fix>3d</fix>
</trkpt>
<trkpt lat="40.0713749" lon="-105.229789">
  <ele>1583.0</ele>
  <time>2026-08-28T17:52:04Z</time>
  <course>0.0</course>
  <speed>0.0</speed>
  <fix>3d</fix>
</trkpt>
<trkpt lat="40.0713749" lon="-105.229789">
  <ele>1583.0</ele>
  <time>2026-08-28T17:52:04Z</time>
  <course>248.21</course>
  <speed>0.01</speed>
  <fix>3d</fix>
</trkpt>
<trkpt lat="40.0713749" lon="-105.229789">
  <ele>1583.0</ele>
  <time>2026-08-28T17:52:04Z</time>
  <course>0.0</course>
  <speed>0.0</speed>
  <fix>3d</fix>
</trkpt>
<trkpt lat="40.0713749" lon="-105.229789">
  <ele>1583.0</ele>
  <time>2026-08-28T17:52:04Z</time>
  <course>248.21</course>
  <speed>0.01</speed>
  <fix>3d</fix>
</trkpt>
<trkpt lat="40.0713749" lon="-105.229789">
  <ele>1583.0</ele>
  <time>2026-08-28T17:52:04Z</time>
  <course>0.0</course>
  <speed>0.0</speed>
  <fix>3d</fix>
</trkpt>
<trkpt lat="40.0713749" lon="-105.229789">
  <ele>1583.0</ele>
  <time>2026-08-28T17:52:04Z</time>
  <course>248.2</course>
  <speed>0.01</speed>
  <fix>3d</fix>
</trkpt>
<trkpt lat="40.0713749" lon="-105.229789">
  <ele>1583.0</ele>
  <time>2026-08-28T17:52:04Z</time>
  <course>0.0</course>
  <speed>0.0</speed>
  <fix>3d</fix>
</trkpt>
<trkpt lat="40.0713749" lon="-105.229789">
  <ele>1583.0</ele>
  <time>2026-08-28T17:52:04Z</time>
  <course>248.2</course>
  <speed>0.01</speed>
  <fix>3d</fix>
</trkpt>
<trkpt lat="40.0713749" lon="-105.229789">
  <ele>1583.0</ele>
  <time>2026-08-28T17:52:04Z</time>
  <course>0.0</course>
  <speed>0.0</speed>
  <fix>3d</fix>
</trkpt>
<trkpt lat="40.0713749" lon="-105.229789">
  <ele>1583.0</ele>
  <time>2026-08-28T17:52:04Z</time>
  <course>248.19</course>
  <speed>0.01</speed>
  <fix>3d</fix>
</trkpt>
<trkpt lat="40.0713749" lon="-105.229789">
  <ele>1583.0</ele>
  <time>2026-08-28T17:52:04Z</time>
  <course>0.0</course>
  <speed>0.0</speed>
  <fix>3d</fix>
</trkpt>
<trkpt lat="40.0713749" lon="-105.229789">
  <ele>1583.0</ele>
  <time>2026-08-28T17:52:04Z</time>
  <course>248.19</course>
  <speed>0.01</speed>
  <fix>3d</fix>
</trkpt>
<trkpt lat="40.0713749" lon="-105.229789">
  <ele>1583.0</ele>
  <time>2026-08-28T17:52:04Z</time>
  <course>0.0</course>
  <speed>0.0</speed>
  <fix>3d</fix>
</trkpt>
<trkpt lat="40.0713749" lon="-105.229789">
  <ele>1583.0</ele>
  <time>2026-08-28T17:52:04Z</time>
  <course>248.18</course>
  <speed>0.01</speed>
  <fix>3d</fix>
</trkpt>
<trkpt lat="40.0713749" lon="-105.229789">
  <ele>1583.0</ele>
  <time>2026-08-28T17:52:04Z</time>
  <course>0.0</course>
  <speed>0.0</speed>
  <fix>3d</fix>
</trkpt>
<trkpt lat="40.0713749" lon="-105.229789">
  <ele>1583.0</ele>
  <time>2026-08-28T17:52:04Z</time>
  <course>248.18</course>
  <speed>0.01</speed>
  <fix>3d</fix>
</trkpt>
<trkpt lat="40.0713749" lon="-105.229789">
  <ele>1583.0</ele>
  <time>2026-08-28T17:52:04Z</time>
  <course>0.0</course>
  <speed>0.0</speed>
  <fix>3d</fix>
</trkpt>
<trkpt lat="40.0713749" lon="-105.229789">
  <ele>1583.0</ele>
  <time>2026-08-28T17:52:04Z</time>
  <course>248.17</course>
  <speed>0.022360679774997897</speed>
  <fix>3d</fix>
</trkpt>
<trkpt lat="40.0713749" lon="-105.229789">
  <ele>1583.0</ele>
  <time>2026-08-28T17:52:04Z</time>
  <course>0.0</course>
  <speed>0.0</speed>
  <fix>3d</fix>
</trkpt>
<trkpt lat="40.0713749" lon="-105.229789">
  <ele>1583.0</ele>
  <time>2026-08-28T17:52:04Z</time>
  <course>248.17</course>
  <speed>0.022360679774997897</speed>
  <fix>3d</fix>
</trkpt>
<trkpt lat="40.0713749" lon="-105.229789">
  <ele>1583.0</ele>
  <time>2026-08-28T17:52:04Z</time>
  <course>0.0</course>
  <speed>0.0</speed>
  <fix>3d</fix>
</trkpt>
<trkpt lat="40.0713749" lon="-105.229789">
  <ele>1583.0</ele>
  <time>2026-08-28T17:52:04Z</time>
  <course>248.16</course>
  <speed>0.022360679774997897</speed>
  <fix>3d</fix>
</trkpt>
<trkpt lat="40.0713749" lon="-105.229789">
  <ele>1583.0</ele>
  <time>2026-08-28T17:52:04Z</time>
  <course>0.0</course>
  <speed>0.0</speed>
  <fix>3d</fix>
</trkpt>
<trkpt lat="40.0713749" lon="-105.229789">
  <ele>1583.0</ele>
  <time>2026-08-28T17:52:04Z</time>
  <course>248.16</course>
  <speed>0.022360679774997897</speed>
  <fix>3d</fix>
</trkpt>
<trkpt lat="40.0713749" lon="-105.229789">
  <ele>1583.0</ele>
  <time>2026-08-28T17:52:04Z</time>
  <course>0.0</course>
  <speed>0.0</speed>
  <fix>3d</fix>
</trkpt>
<trkpt lat="40.0713749" lon="-105.229789">
  <ele>1583.0</ele>
  <time>2026-08-28T17:52:04Z</time>
  <course>248.15</course>
  <speed>0.022360679774997897</speed>
  <fix>3d</fix>
</trkpt>
<trkpt lat="40.0713749" lon="-105.229789">
  <ele>1583.0</ele>
  <time>2026-08-28T17:52:04Z</time>
  <course>0.0</course>
  <speed>0.0</speed>
  <fix>3d</fix>
</trkpt>
<trkpt lat="40.0713749" lon="-105.229789">
  <ele>1583.0</ele>
  <time>2026-08-28T17:52:04Z</time>
  <course>248.15</course>
  <speed>0.022360679774997897</speed>
  <fix>3d</fix>
</trkpt>
<trkpt lat="40.0713749" lon="-105.229789">
  <ele>1583.0</ele>
  <time>2026-08-28T17:52:04Z</time>
  <course>0.0</course>
  <speed>0.0</speed>
  <fix>3d</fix>
</trkpt>
<trkpt lat="40.0713749" lon="-105.229789">
  <ele>1583.0</ele>
  <time>2026-08-28T17:52:04Z</time>
  <course>248.14</course>
  <speed>0.022360679774997897</speed>
  <fix>3d</fix>
</trkpt>
<trkpt lat="40.0713749" lon="-105.229789">
  <ele>1583.0</ele>
  <time>2026-08-28T17:52:04Z</time>
  <course>0.0</course>
  <speed>0.0</speed>
  <fix>3d</fix>
</trkpt>
<trkpt lat="40.0713749" lon="-105.229789">
  <ele>1583.0</ele>
  <time>2026-08-28T17:52:04Z</time>
  <course>248.14</course>
  <speed>0.022360679774997897</speed>
  <fix>3d</fix>
</trkpt>
<trkpt lat="40.0713749" lon="-105.229789">
  <ele>1583.0</ele>
  <time>2026-08-28T17:52:04Z</time>
  <course>0.0</course>
  <speed>0.0</speed>
  <fix>3d</fix>
</trkpt>
<trkpt lat="40.0713749" lon="-105.229789">
  <ele>1583.0</ele>
  <time>2026-08-28T17:52:04Z</time>
  <course>248.13</course>
  <speed>0.022360679774997897</speed>
  <fix>3d</fix>
</trkpt>
<trkpt lat="40.0713749" lon="-105.229789">
  <ele>1583.0</ele>
  <time>2026-08-28T17:52:04Z</time>
  <course>0.0</course>
  <speed>0.0</speed>
  <fix>3d</fix>
</trkpt>
<trkpt lat="40.0713749" lon="-105.229789">
  <ele>1583.0</ele>
  <time>2026-08-28T17:52:04Z</time>
  <course>248.13</course>
  <speed>0.022360679774997897</speed>
  <fix>3d</fix>
</trkpt>
<trkpt lat="40.0713749" lon="-105.229789">
  <ele>1583.0</ele>
  <time>2026-08-28T17:52:04Z</time>
  <course>0.0</course>
  <speed>0.0</speed>
  <fix>3d</fix>
</trkpt>
<trkpt lat="40.0713749" lon="-105.229789">
  <ele>1583.0</ele>
  <time>2026-08-28T17:52:04Z</time>
  <course>248.12</course>
  <speed>0.022360679774997897</speed>
  <fix>3d</fix>
</trkpt>
<trkpt lat="40.0713749" lon="-105.229789">
  <ele>1583.0</ele>
  <time>2026-08-28T17:52:04Z</time>
  <course>0.0</course>
  <speed>0.0</speed>
  <fix>3d</fix>
</trkpt>
<trkpt lat="40.0713749" lon="-105.229789">
  <ele>1583.0</ele>
  <time>2026-08-28T17:52:04Z</time>
  <course>248.12</course>
  <speed>0.022360679774997897</speed>
  <fix>3d</fix>
</trkpt>
<trkpt lat="40.0713749" lon="-105.229789">
  <ele>1583.0</ele>
  <time>2026-08-28T17:52:04Z</time>
  <course>0.0</course>
  <speed>0.0</speed>
  <fix>3d</fix>
</trkpt>
<trkpt lat="40.0713749" lon="-105.229789">
  <ele>1583.0</ele>
  <time>2026-08-28T17:52:04Z</time>
  <course>248.11</course>
  <speed>0.022360679774997897</speed>
  <fix>3d</fix>
</trkpt>
<trkpt lat="40.0713749" lon="-105.229789">
  <ele>1583.0</ele>
  <time>2026-08-28T17:52:04Z</time>
  <course>0.0</course>
  <speed>0.0</speed>
  <fix>3d</fix>
</trkpt>
<trkpt lat="40.0713749" lon="-105.229789">
  <ele>1583.0</ele>
  <time>2026-08-28T17:52:04Z</time>
  <course>248.11</course>
  <speed>0.022360679774997897</speed>
  <fix>3d</fix>
</trkpt>
<trkpt lat="40.0713749" lon="-105.229789">
  <ele>1583.0</ele>
  <time>2026-08-28T17:52:04Z</time>
  <course>0.0</course>
  <speed>0.0</speed>
  <fix>3d</fix>
</trkpt>
<trkpt lat="40.0713749" lon="-105.229789">
  <ele>1583.0</ele>
  <time>2026-08-28T17:52:04Z</time>
  <course>248.1</course>
  <speed>0.022360679774997897</speed>
  <fix>3d</fix>
</trkpt>
<trkpt lat="40.0713749" lon="-105.229789">
  <ele>1583.0</ele>
  <time>2026-08-28T17:52:04Z</time>
  <course>0.0</course>
  <speed>0.0</speed>
  <fix>3d</fix>
</trkpt>
<trkpt lat="40.0713749" lon="-105.229789">
  <ele>1583.0</ele>
  <time>2026-08-28T17:52:04Z</time>
  <course>248.1</course>
  <speed>0.022360679774997897</speed>
  <fix>3d</fix>
</trkpt>
<trkpt lat="40.0713749" lon="-105.229789">
  <ele>1583.0</ele>
  <time>2026-08-28T17:52:04Z</time>
  <course>0.0</course>
  <speed>0.0</speed>
  <fix>3d</fix>
</trkpt>
<trkpt lat="40.0713749" lon="-105.229789">
  <ele>1583.0</ele>
  <time>2026-08-28T17:52:04Z</time>
  <course>248.09</course>
  <speed>0.022360679774997897</speed>
  <fix>3d</fix>
</trkpt>
<trkpt lat="40.0713749" lon="-105.229789">
  <ele>1583.0</ele>
  <time>2026-08-28T17:52:04Z</time>
  <course>0.0</course>
  <speed>0.0</speed>
  <fix>3d</fix>
</trkpt>
<trkpt lat="40.0713749" lon="-105.229789">
  <ele>1583.0</ele>
  <time>2026-08-28T17:52:04Z</time>
  <course>248.09</course>
  <speed>0.022360679774997897</speed>
  <fix>3d</fix>
</trkpt>
<trkpt lat="40.0713749" lon="-105.229789">
  <ele>1583.0</ele>
  <time>2026-08-28T17:52:04Z</time>
  <course>0.0</course>
  <speed>0.0</speed>
  <fix>3d</fix>
</trkpt>
<trkpt lat="40.0713749" lon="-105.229789">
  <ele>1583.0</ele>
  <time>2026-08-28T17:52:04Z</time>
  <course>248.08</course>
  <speed>0.022360679774997897</speed>
  <fix>3d</fix>
</trkpt>
<trkpt lat="40.0713749" lon="-105.229789">
  <ele>1583.0</ele>
  <time>2026-08-28T17:52:04Z</time>
  <course>0.0</course>
  <speed>0.0</speed>
  <fix>3d</fix>
</trkpt>
<trkpt lat="40.0713749" lon="-105.229789">
  <ele>1583.0</ele>
  <time>2026-08-28T17:52:04Z</time>
  <course>248.08</course>
  <speed>0.022360679774997897</speed>
  <fix>3d</fix>
</trkpt>
<trkpt lat="40.0713749" lon="-105.229789">
  <ele>1583.0</ele>
  <time>2026-08-28T17:52:04Z</time>
  <course>0.0</course>
  <speed>0.0</speed>
  <fix>3d</fix>
</trkpt>
<trkpt lat="40.0713749" lon="-105.229789">
  <ele>1583.0</ele>
  <time>2026-08-28T17:52:04Z</time>
  <course>248.07</course>
  <speed>0.022360679774997897</speed>
  <fix>3d</fix>
</trkpt>
<trkpt lat="40.0713749" lon="-105.229789">
  <ele>1583.0</ele>
  <time>2026-08-28T17:52:04Z</time>
  <course>0.0</course>
  <speed>0.0</speed>
  <fix>3d</fix>
</trkpt>
<trkpt lat="40.0713749" lon="-105.229789">
  <ele>1583.0</ele>
  <time>2026-08-28T17:52:04Z</time>
  <course>248.07</course>
  <speed>0.022360679774997897</speed>
  <fix>3d</fix>
</trkpt>
<trkpt lat="40.0713749" lon="-105.229789">
  <ele>1583.0</ele>
  <time>2026-08-28T17:52:04Z</time>
  <course>0.0</course>
  <speed>0.0</speed>
  <fix>3d</fix>
</trkpt>
<trkpt lat="40.0713749" lon="-105.229789">
  <ele>1583.0</ele>
  <time>2026-08-28T17:52:04Z</time>
  <course>248.06</course>
  <speed>0.022360679774997897</speed>
  <fix>3d</fix>
</trkpt>
<trkpt lat="40.0713749" lon="-105.229789">
  <ele>1583.0</ele>
  <time>2026-08-28T17:52:04Z</time>
  <course>0.0</course>
  <speed>0.0</speed>
  <fix>3d</fix>
</trkpt>
<trkpt lat="40.0713749" lon="-105.229789">
  <ele>1583.0</ele>
  <time>2026-08-28T17:52:04Z</time>
  <course>248.06</course>
  <speed>0.022360679774997897</speed>
  <fix>3d</fix>
</trkpt>
<trkpt lat="40.0713749" lon="-105.229789">
  <ele>1583.0</ele>
  <time>2026-08-28T17:52:04Z</time>
  <course>0.0</course>
  <speed>0.0</speed>
  <fix>3d</fix>
</trkpt>
<trkpt lat="40.0713749" lon="-105.229789">
  <ele>1583.0</ele>
  <time>2026-08-28T17:52:04Z</time>
  <course>248.05</course>
  <speed>0.022360679774997897</speed>
  <fix>3d</fix>
</trkpt>
<trkpt lat="40.0713749" lon="-105.229789">
  <ele>1583.0</ele>
  <time>2026-08-28T17:52:04Z</time>
  <course>0.0</course>
  <speed>0.0</speed>
  <fix>3d</fix>
</trkpt>
<trkpt lat="40.0713749" lon="-105.229789">
  <ele>1583.0</ele>
  <time>2026-08-28T17:52:04Z</time>
  <course>248.05</course>
  <speed>0.022360679774997897</speed>
  <fix>3d</fix>
</trkpt>
<trkpt lat="40.0713749" lon="-105.229789">
  <ele>1583.0</ele>
  <time>2026-08-28T17:52:04Z</time>
  <course>0.0</course>
  <speed>0.0</speed>
  <fix>3d</fix>
</trkpt>
<trkpt lat="40.0713749" lon="-105.229789">
  <ele>1583.0</ele>
  <time>2026-08-28T17:52:04Z</time>
  <course>248.05</course>
  <speed>0.022360679774997897</speed>
  <fix>3d</fix>
</trkpt>
<trkpt lat="40.0713749" lon="-105.229789">
  <ele>1583.0</ele>
  <time>2026-08-28T17:52:04Z</time>
  <course>0.0</course>
  <speed>0.0</speed>
  <fix>3d</fix>
</trkpt>
<trkpt lat="40.0713749" lon="-105.229789">
  <ele>1583.0</ele>
  <time>2026-08-28T17:52:04Z</time>
  <course>248.04</course>
  <speed>0.022360679774997897</speed>
  <fix>3d</fix>
</trkpt>
<trkpt lat="40.0713749" lon="-105.229789">
  <ele>1583.0</ele>
  <time>2026-08-28T17:52:04Z</time>
  <course>0.0</course>
  <speed>0.0</speed>
  <fix>3d</fix>
</trkpt>
<trkpt lat="40.0713749" lon="-105.229789">
  <ele>1583.0</ele>
  <time>2026-08-28T17:52:04Z</time>
  <course>248.04</course>
  <speed>0.022360679774997897</speed>
  <fix>3d</fix>
</trkpt>
<trkpt lat="40.0713749" lon="-105.229789">
  <ele>1583.0</ele>
  <time>2026-08-28T17:52:04Z</time>
  <course>0.0</course>
  <speed>0.0</speed>
  <fix>3d</fix>
</trkpt>
<trkpt lat="40.0713749" lon="-105.229789">
  <ele>1583.0</ele>
  <time>2026-08-28T17:52:04Z</time>
  <course>248.03</course>
  <speed>0.022360679774997897</speed>
  <fix>3d</fix>
</trkpt>
<trkpt lat="40.0713749" lon="-105.229789">
  <ele>1583.0</ele>
  <time>2026-08-28T17:52:04Z</time>
  <course>0.0</course>
  <speed>0.0</speed>
  <fix>3d</fix>
</trkpt>
<trkpt lat="40.0713749" lon="-105.229789">
  <ele>1583.0</ele>
  <time>2026-08-28T17:52:04Z</time>
  <course>248.03</course>
  <speed>0.022360679774997897</speed>
  <fix>3d</fix>
</trkpt>
<trkpt lat="40.0713749" lon="-105.229789">
  <ele>1583.0</ele>
  <time>2026-08-28T17:52:04Z</time>
  <course>0.0</course>
  <speed>0.0</speed>
  <fix>3d</fix>
</trkpt>
<trkpt lat="40.0713749" lon="-105.229789">
  <ele>1583.0</ele>
  <time>2026-08-28T17:52:04Z</time>
  <course>248.02</course>
  <speed>0.022360679774997897</speed>
  <fix>3d</fix>
</trkpt>
<trkpt lat="40.0713749" lon="-105.229789">
  <ele>1583.0</ele>
  <time>2026-08-28T17:52:04Z</time>
  <course>0.0</course>
  <speed>0.0</speed>
  <fix>3d</fix>
</trkpt>
<trkpt lat="40.0713749" lon="-105.229789">
  <ele>1583.0</ele>
  <time>2026-08-28T17:52:04Z</time>
  <course>248.02</course>
  <speed>0.022360679774997897</speed>
  <fix>3d</fix>
</trkpt>
<trkpt lat="40.0713749" lon="-105.229789">
  <ele>1583.0</ele>
  <time>2026-08-28T17:52:04Z</time>
  <course>0.0</course>
  <speed>0.0</speed>
  <fix>3d</fix>
</trkpt>
<trkpt lat="40.0713749" lon="-105.229789">
  <ele>1583.0</ele>
  <time>2026-08-28T17:52:04Z</time>
  <course>248.01</course>
  <speed>0.022360679774997897</speed>
  <fix>3d</fix>
</trkpt>
<trkpt lat="40.0713749" lon="-105.229789">
  <ele>1583.0</ele>
  <time>2026-08-28T17:52:04Z</time>
  <course>0.0</course>
  <speed>0.0</speed>
  <fix>3d</fix>
</trkpt>
<trkpt lat="40.0713749" lon="-105.229789">
  <ele>1583.0</ele>
  <time>2026-08-28T17:52:04Z</time>
  <course>248.01</course>
  <speed>0.022360679774997897</speed>
  <fix>3d</fix>
</trkpt>
<trkpt lat="40.0713749" lon="-105.229789">
  <ele>1583.0</ele>
  <time>2026-08-28T17:52:04Z</time>
  <course>0.0</course>
  <speed>0.0</speed>
  <fix>3d</fix>
</trkpt>
<trkpt lat="40.0713749" lon="-105.229789">
  <ele>1583.0</ele>
  <time>2026-08-28T17:52:04Z</time>
  <course>248.0</course>
  <speed>0.022360679774997897</speed>
  <fix>3d</fix>
</trkpt>
<trkpt lat="40.0713749" lon="-105.229789">
  <ele>1583.0</ele>
  <time>2026-08-28T17:52:04Z</time>
  <course>0.0</course>
  <speed>0.0</speed>
  <fix>3d</fix>
</trkpt>
<trkpt lat="40.0713749" lon="-105.229789">
  <ele>1583.0</ele>
  <time>2026-08-28T17:52:04Z</time>
  <course>248.0</course>
  <speed>0.022360679774997897</speed>
  <fix>3d</fix>
</trkpt>
<trkpt lat="40.0713749" lon="-105.229789">
  <ele>1583.0</ele>
  <time>2026-08-28T17:52:04Z</time>
  <course>0.0</course>
  <speed>0.0</speed>
  <fix>3d</fix>
</trkpt>
<trkpt lat="40.0713749" lon="-105.229789">
  <ele>1583.0</ele>
  <time>2026-08-28T17:52:04Z</time>
  <course>247.99</course>
  <speed>0.022360679774997897</speed>
  <fix>3d</fix>
</trkpt>
<trkpt lat="40.0713749" lon="-105.229789">
  <ele>1583.0</ele>
  <time>2026-08-28T17:52:04Z</time>
  <course>0.0</course>
  <speed>0.0</speed>
  <fix>3d</fix>
</trkpt>
<trkpt lat="40.0713749" lon="-105.229789">
  <ele>1583.0</ele>
  <time>2026-08-28T17:52:04Z</time>
  <course>247.99</course>
  <speed>0.022360679774997897</speed>
  <fix>3d</fix>
</trkpt>
<trkpt lat="40.0713749" lon="-105.229789">
  <ele>1583.0</ele>
  <time>2026-08-28T17:52:04Z</time>
  <course>0.0</course>
  <speed>0.0</speed>
  <fix>3d</fix>
</trkpt>
<trkpt lat="40.0713749" lon="-105.229789">
  <ele>1583.0</ele>
  <time>2026-08-28T17:52:04Z</time>
  <course>247.99</course>
  <speed>0.022360679774997897</speed>
  <fix>3d</fix>
</trkpt>
<trkpt lat="40.0713749" lon="-105.229789">
  <ele>1583.0</ele>
  <time>2026-08-28T17:52:04Z</time>
  <course>0.0</course>
  <speed>0.0</speed>
  <fix>3d</fix>
</trkpt>
<trkpt lat="40.0713749" lon="-105.229789">
  <ele>1583.0</ele>
  <time>2026-08-28T17:52:04Z</time>
  <course>247.98</course>
  <speed>0.022360679774997897</speed>
  <fix>3d</fix>
</trkpt>
<trkpt lat="40.0713749" lon="-105.229789">
  <ele>1583.0</ele>
  <time>2026-08-28T17:52:04Z</time>
  <course>0.0</course>
  <speed>0.0</speed>
  <fix>3d</fix>
</trkpt>
<trkpt lat="40.0713749" lon="-105.229789">
  <ele>1583.0</ele>
  <time>2026-08-28T17:52:04Z</time>
  <course>247.98</course>
  <speed>0.022360679774997897</speed>
  <fix>3d</fix>
</trkpt>
<trkpt lat="40.0713749" lon="-105.229789">
  <ele>1583.0</ele>
  <time>2026-08-28T17:52:04Z</time>
  <course>0.0</course>
  <speed>0.0</speed>
  <fix>3d</fix>
</trkpt>
<trkpt lat="40.0713749" lon="-105.229789">
  <ele>1583.0</ele>
  <time>2026-08-28T17:52:04Z</time>
  <course>247.97</course>
  <speed>0.022360679774997897</speed>
  <fix>3d</fix>
</trkpt>
<trkpt lat="40.0713749" lon="-105.229789">
  <ele>1583.0</ele>
  <time>2026-08-28T17:52:04Z</time>
  <course>0.0</course>
  <speed>0.0</speed>
  <fix>3d</fix>
</trkpt>
<trkpt lat="40.0713749" lon="-105.229789">
  <ele>1583.0</ele>
  <time>2026-08-28T17:52:04Z</time>
  <course>247.97</course>
  <speed>0.022360679774997897</speed>
  <fix>3d</fix>
</trkpt>
<trkpt lat="40.0713749" lon="-105.229789">
  <ele>1583.0</ele>
  <time>2026-08-28T17:52:04Z</time>
  <course>0.0</course>
  <speed>0.0</speed>
  <fix>3d</fix>
</trkpt>
<trkpt lat="40.0713749" lon="-105.229789">
  <ele>1583.0</ele>
  <time>2026-08-28T17:52:04Z</time>
  <course>247.96</course>
  <speed>0.022360679774997897</speed>
  <fix>3d</fix>
</trkpt>
<trkpt lat="40.0713749" lon="-105.229789">
  <ele>1583.0</ele>
  <time>2026-08-28T17:52:04Z</time>
  <course>0.0</course>
  <speed>0.0</speed>
  <fix>3d</fix>
</trkpt>
<trkpt lat="40.0713749" lon="-105.229789">
  <ele>1583.0</ele>
  <time>2026-08-28T17:52:04Z</time>
  <course>247.96</course>
  <speed>0.022360679774997897</speed>
  <fix>3d</fix>
</trkpt>
<trkpt lat="40.0713749" lon="-105.229789">
  <ele>1583.0</ele>
  <time>2026-08-28T17:52:04Z</time>
  <course>0.0</course>
  <speed>0.0</speed>
  <fix>3d</fix>
</trkpt>
<trkpt lat="40.0713749" lon="-105.229789">
  <ele>1583.0</ele>
  <time>2026-08-28T17:52:04Z</time>
  <course>247.95</course>
  <speed>0.022360679774997897</speed>
  <fix>3d</fix>
</trkpt>
<trkpt lat="40.0713749" lon="-105.229789">
  <ele>1583.0</ele>
  <time>2026-08-28T17:52:04Z</time>
  <course>0.0</course>
  <speed>0.0</speed>
  <fix>3d</fix>
</trkpt>
<trkpt lat="40.0713749" lon="-105.229789">
  <ele>1583.0</ele>
  <time>2026-08-28T17:52:04Z</time>
  <course>247.95</course>
  <speed>0.022360679774997897</speed>
  <fix>3d</fix>
</trkpt>
<trkpt lat="40.0713749" lon="-105.229789">
  <ele>1583.0</ele>
  <time>2026-08-28T17:52:04Z</time>
  <course>0.0</course>
  <speed>0.0</speed>
  <fix>3d</fix>
</trkpt>
<trkpt lat="40.0713749" lon="-105.229789">
  <ele>1583.0</ele>
  <time>2026-08-28T17:52:04Z</time>
  <course>247.95</course>
  <speed>0.022360679774997897</speed>
  <fix>3d</fix>
</trkpt>
<trkpt lat="40.0713749" lon="-105.229789">
  <ele>1583.0</ele>
  <time>2026-08-28T17:52:04Z</time>
  <course>0.0</course>
  <speed>0.0</speed>
  <fix>3d</fix>
</trkpt>
<trkpt lat="40.0713749" lon="-105.229789">
  <ele>1583.0</ele>
  <time>2026-08-28T17:52:04Z</time>
  <course>247.94</course>
  <speed>0.022360679774997897</speed>
  <fix>3d</fix>
</trkpt>
<trkpt lat="40.0713749" lon="-105.229789">
  <ele>1583.0</ele>
  <time>2026-08-28T17:52:04Z</time>
  <course>0.0</course>
  <speed>0.0</speed>
  <fix>3d</fix>
</trkpt>
<trkpt lat="40.0713749" lon="-105.229789">
  <ele>1583.0</ele>
  <time>2026-08-28T17:52:04Z</time>
  <course>247.94</course>
  <speed>0.022360679774997897</speed>
  <fix>3d</fix>
</trkpt>
<trkpt lat="40.0713749" lon="-105.229789">
  <ele>1583.0</ele>
  <time>2026-08-28T17:52:04Z</time>
  <course>0.0</course>
  <speed>0.0</speed>
  <fix>3d</fix>
</trkpt>
<trkpt lat="40.0713749" lon="-105.229789">
  <ele>1583.0</ele>
  <time>2026-08-28T17:52:04Z</time>
  <course>247.93</course>
  <speed>0.022360679774997897</speed>
  <fix>3d</fix>
</trkpt>
<trkpt lat="40.0713749" lon="-105.229789">
  <ele>1583.0</ele>
  <time>2026-08-28T17:52:04Z</time>
  <course>0.0</course>
  <speed>0.0</speed>
  <fix>3d</fix>
</trkpt>
<trkpt lat="40.0713749" lon="-105.229789">
  <ele>1583.0</ele>
  <time>2026-08-28T17:52:04Z</time>
  <course>247.93</course>
  <speed>0.022360679774997897</speed>
  <fix>3d</fix>
</trkpt>
<trkpt lat="40.0713749" lon="-105.229789">
  <ele>1583.0</ele>
  <time>2026-08-28T17:52:04Z</time>
  <course>0.0</course>
  <speed>0.0</speed>
  <fix>3d</fix>
</trkpt>
<trkpt lat="40.0713749" lon="-105.229789">
  <ele>1583.0</ele>
  <time>2026-08-28T17:52:04Z</time>
  <course>247.92</course>
  <speed>0.022360679774997897</speed>
  <fix>3d</fix>
</trkpt>
<trkpt lat="40.0713749" lon="-105.229789">
  <ele>1583.0</ele>
  <time>2026-08-28T17:52:04Z</time>
  <course>0.0</course>
  <speed>0.0</speed>
  <fix>3d</fix>
</trkpt>
<trkpt lat="40.0713749" lon="-105.229789">
  <ele>1583.0</ele>
  <time>2026-08-28T17:52:04Z</time>
  <course>247.92</course>
  <speed>0.022360679774997897</speed>
  <fix>3d</fix>
</trkpt>
<trkpt lat="40.0713749" lon="-105.229789">
  <ele>1583.0</ele>
  <time>2026-08-28T17:52:04Z</time>
  <course>0.0</course>
  <speed>0.0</speed>
  <fix>3d</fix>
</trkpt>
<trkpt lat="40.0713749" lon="-105.229789">
  <ele>1583.0</ele>
  <time>2026-08-28T17:52:04Z</time>
  <course>247.92</course>
  <speed>0.022360679774997897</speed>
  <fix>3d</fix>
</trkpt>
<trkpt lat="40.0713749" lon="-105.229789">
  <ele>1583.0</ele>
  <time>2026-08-28T17:52:04Z</time>
  <course>0.0</course>
  <speed>0.0</speed>
  <fix>3d</fix>
</trkpt>
<trkpt lat="40.0713749" lon="-105.229789">
  <ele>1583.0</ele>
  <time>2026-08-28T17:52:04Z</time>
  <course>247.91</course>
  <speed>0.022360679774997897</speed>
  <fix>3d</fix>
</trkpt>
<trkpt lat="40.0713749" lon="-105.229789">
  <ele>1583.0</ele>
  <time>2026-08-28T17:52:04Z</time>
  <course>0.0</course>
  <speed>0.0</speed>
  <fix>3d</fix>
</trkpt>
<trkpt lat="40.0713749" lon="-105.229789">
  <ele>1583.0</ele>
  <time>2026-08-28T17:52:04Z</time>
  <course>247.91</course>
  <speed>0.022360679774997897</speed>
  <fix>3d</fix>
</trkpt>
<trkpt lat="40.0713749" lon="-105.229789">
  <ele>1583.0</ele>
  <time>2026-08-28T17:52:04Z</time>
  <course>0.0</course>
  <speed>0.0</speed>
  <fix>3d</fix>
</trkpt>
<trkpt lat="40.0713749" lon="-105.229789">
  <ele>1583.0</ele>
  <time>2026-08-28T17:52:04Z</time>
  <course>247.9</course>
  <speed>0.022360679774997897</speed>
  <fix>3d</fix>
</trkpt>
<trkpt lat="40.0713749" lon="-105.229789">
  <ele>1583.0</ele>
  <time>2026-08-28T17:52:04Z</time>
  <course>0.0</course>
  <speed>0.0</speed>
  <fix>3d</fix>
</trkpt>
<trkpt lat="40.0713749" lon="-105.229789">
  <ele>1583.0</ele>
  <time>2026-08-28T17:52:04Z</time>
  <course>247.9</course>
  <speed>0.022360679774997897</speed>
  <fix>3d</fix>
</trkpt>
<trkpt lat="40.0713749" lon="-105.229789">
  <ele>1583.0</ele>
  <time>2026-08-28T17:52:04Z</time>
  <course>0.0</course>
  <speed>0.0</speed>
  <fix>3d</fix>
</trkpt>
<trkpt lat="40.0713749" lon="-105.229789">
  <ele>1583.0</ele>
  <time>2026-08-28T17:52:04Z</time>
  <course>247.89</course>
  <speed>0.022360679774997897</speed>
  <fix>3d</fix>
</trkpt>
<trkpt lat="40.0713749" lon="-105.229789">
  <ele>1583.0</ele>
  <time>2026-08-28T17:52:04Z</time>
  <course>0.0</course>
  <speed>0.0</speed>
  <fix>3d</fix>
</trkpt>
<trkpt lat="40.0713749" lon="-105.229789">
  <ele>1583.0</ele>
  <time>2026-08-28T17:52:04Z</time>
  <course>247.89</course>
  <speed>0.022360679774997897</speed>
  <fix>3d</fix>
</trkpt>
<trkpt lat="40.0713749" lon="-105.229789">
  <ele>1583.0</ele>
  <time>2026-08-28T17:52:04Z</time>
  <course>0.0</course>
  <speed>0.0</speed>
  <fix>3d</fix>
</trkpt>
<trkpt lat="40.0713749" lon="-105.229789">
  <ele>1583.0</ele>
  <time>2026-08-28T17:52:04Z</time>
  <course>247.89</course>
  <speed>0.022360679774997897</speed>
  <fix>3d</fix>
</trkpt>
<trkpt lat="40.0713749" lon="-105.229789">
  <ele>1583.0</ele>
  <time>2026-08-28T17:52:04Z</time>
  <course>0.0</course>
  <speed>0.0</speed>
  <fix>3d</fix>
</trkpt>
<trkpt lat="40.0713749" lon="-105.229789">
  <ele>1583.0</ele>
  <time>2026-08-28T17:52:04Z</time>
  <course>247.88</course>
  <speed>0.0316227766016838</speed>
  <fix>3d</fix>
</trkpt>
<trkpt lat="40.0713749" lon="-105.229789">
  <ele>1583.0</ele>
  <time>2026-08-28T17:52:04Z</time>
  <course>0.0</course>
  <speed>0.0</speed>
  <fix>3d</fix>
</trkpt>
<trkpt lat="40.0713749" lon="-105.229789">
  <ele>1583.0</ele>
  <time>2026-08-28T17:52:04Z</time>
  <course>247.88</course>
  <speed>0.0316227766016838</speed>
  <fix>3d</fix>
</trkpt>
<trkpt lat="40.0713749" lon="-105.229789">
  <ele>1583.0</ele>
  <time>2026-08-28T17:52:04Z</time>
  <course>0.0</course>
  <speed>0.0</speed>
  <fix>3d</fix>
</trkpt>
<trkpt lat="40.0713749" lon="-105.229789">
  <ele>1583.0</ele>
  <time>2026-08-28T17:52:04Z</time>
  <course>247.87</course>
  <speed>0.0316227766016838</speed>
  <fix>3d</fix>
</trkpt>
<trkpt lat="40.0713749" lon="-105.229789">
  <ele>1583.0</ele>
  <time>2026-08-28T17:52:04Z</time>
  <course>0.0</course>
  <speed>0.0</speed>
  <fix>3d</fix>
</trkpt>
<trkpt lat="40.0713749" lon="-105.229789">
  <ele>1583.0</ele>
  <time>2026-08-28T17:52:04Z</time>
  <course>247.87</course>
  <speed>0.0316227766016838</speed>
  <fix>3d</fix>
</trkpt>
<trkpt lat="40.0713749" lon="-105.229789">
  <ele>1583.0</ele>
  <time>2026-08-28T17:52:04Z</time>
  <course>0.0</course>
  <speed>0.0</speed>
  <fix>3d</fix>
</trkpt>
<trkpt lat="40.0713749" lon="-105.229789">
  <ele>1583.0</ele>
  <time>2026-08-28T17:52:04Z</time>
  <course>247.87</course>
  <speed>0.0316227766016838</speed>
  <fix>3d</fix>
</trkpt>
<trkpt lat="40.0713749" lon="-105.229789">
  <ele>1583.0</ele>
  <time>2026-08-28T17:52:04Z</time>
  <course>0.0</course>
  <speed>0.0</speed>
  <fix>3d</fix>
</trkpt>
<trkpt lat="40.0713749" lon="-105.229789">
  <ele>1583.0</ele>
  <time>2026-08-28T17:52:04Z</time>
  <course>247.86</course>
  <speed>0.0316227766016838</speed>
  <fix>3d</fix>
</trkpt>
<trkpt lat="40.0713749" lon="-105.229789">
  <ele>1583.0</ele>
  <time>2026-08-28T17:52:04Z</time>
  <course>0.0</course>
  <speed>0.0</speed>
  <fix>3d</fix>
</trkpt>
<trkpt lat="40.0713749" lon="-105.229789">
  <ele>1583.0</ele>
  <time>2026-08-28T17:52:04Z</time>
  <course>247.86</course>
  <speed>0.0316227766016838</speed>
  <fix>3d</fix>
</trkpt>
<trkpt lat="40.0713749" lon="-105.229789">
  <ele>1583.0</ele>
  <time>2026-08-28T17:52:04Z</time>
  <course>0.0</course>
  <speed>0.0</speed>
  <fix>3d</fix>
</trkpt>
<trkpt lat="40.0713749" lon="-105.229789">
  <ele>1583.0</ele>
  <time>2026-08-28T17:52:04Z</time>
  <course>247.85</course>
  <speed>0.0316227766016838</speed>
  <fix>3d</fix>
</trkpt>
<trkpt lat="40.0713749" lon="-105.229789">
  <ele>1583.0</ele>
  <time>2026-08-28T17:52:04Z</time>
  <course>0.0</course>
  <speed>0.0</speed>
  <fix>3d</fix>
</trkpt>
<trkpt lat="40.0713749" lon="-105.229789">
  <ele>1583.0</ele>
  <time>2026-08-28T17:52:04Z</time>
  <course>247.85</course>
  <speed>0.0316227766016838</speed>
  <fix>3d</fix>
</trkpt>
<trkpt lat="40.0713749" lon="-105.229789">
  <ele>1583.0</ele>
  <time>2026-08-28T17:52:04Z</time>
  <course>0.0</course>
  <speed>0.0</speed>
  <fix>3d</fix>
</trkpt>
<trkpt lat="40.0713749" lon="-105.229789">
  <ele>1583.0</ele>
  <time>2026-08-28T17:52:04Z</time>
  <course>247.85</course>
  <speed>0.0316227766016838</speed>
  <fix>3d</fix>
</trkpt>
<trkpt lat="40.0713749" lon="-105.229789">
  <ele>1583.0</ele>
  <time>2026-08-28T17:52:04Z</time>
  <course>0.0</course>
  <speed>0.0</speed>
  <fix>3d</fix>
</trkpt>
<trkpt lat="40.0713749" lon="-105.229789">
  <ele>1583.0</ele>
  <time>2026-08-28T17:52:04Z</time>
  <course>247.84</course>
  <speed>0.0316227766016838</speed>
  <fix>3d</fix>
</trkpt>
<trkpt lat="40.0713749" lon="-105.229789">
  <ele>1583.0</ele>
  <time>2026-08-28T17:52:04Z</time>
  <course>0.0</course>
  <speed>0.0</speed>
  <fix>3d</fix>
</trkpt>
<trkpt lat="40.0713749" lon="-105.229789">
  <ele>1583.0</ele>
  <time>2026-08-28T17:52:04Z</time>
  <course>247.84</course>
  <speed>0.0316227766016838</speed>
  <fix>3d</fix>
</trkpt>
<trkpt lat="40.0713749" lon="-105.229789">
  <ele>1583.0</ele>
  <time>2026-08-28T17:52:04Z</time>
  <course>0.0</course>
  <speed>0.0</speed>
  <fix>3d</fix>
</trkpt>
<trkpt lat="40.0713749" lon="-105.229789">
  <ele>1583.0</ele>
  <time>2026-08-28T17:52:04Z</time>
  <course>247.83</course>
  <speed>0.0316227766016838</speed>
  <fix>3d</fix>
</trkpt>
<trkpt lat="40.0713749" lon="-105.229789">
  <ele>1583.0</ele>
  <time>2026-08-28T17:52:04Z</time>
  <course>0.0</course>
  <speed>0.0</speed>
  <fix>3d</fix>
</trkpt>
<trkpt lat="40.0713749" lon="-105.229789">
  <ele>1583.0</ele>
  <time>2026-08-28T17:52:04Z</time>
  <course>247.83</course>
  <speed>0.0316227766016838</speed>
  <fix>3d</fix>
</trkpt>
<trkpt lat="40.0713749" lon="-105.229789">
  <ele>1583.0</ele>
  <time>2026-08-28T17:52:04Z</time>
  <course>0.0</course>
  <speed>0.0</speed>
  <fix>3d</fix>
</trkpt>
<trkpt lat="40.0713749" lon="-105.229789">
  <ele>1583.0</ele>
  <time>2026-08-28T17:52:04Z</time>
  <course>247.83</course>
  <speed>0.0316227766016838</speed>
  <fix>3d</fix>
</trkpt>
<trkpt lat="40.0713749" lon="-105.229789">
  <ele>1583.0</ele>
  <time>2026-08-28T17:52:04Z</time>
  <course>0.0</course>
  <speed>0.0</speed>
  <fix>3d</fix>
</trkpt>
<trkpt lat="40.0713749" lon="-105.229789">
  <ele>1583.0</ele>
  <time>2026-08-28T17:52:04Z</time>
  <course>247.82</course>
  <speed>0.0316227766016838</speed>
  <fix>3d</fix>
</trkpt>
<trkpt lat="40.0713749" lon="-105.229789">
  <ele>1583.0</ele>
  <time>2026-08-28T17:52:04Z</time>
  <course>0.0</course>
  <speed>0.0</speed>
  <fix>3d</fix>
</trkpt>
<trkpt lat="40.0713749" lon="-105.229789">
  <ele>1583.0</ele>
  <time>2026-08-28T17:52:04Z</time>
  <course>247.82</course>
  <speed>0.0316227766016838</speed>
  <fix>3d</fix>
</trkpt>
<trkpt lat="40.0713749" lon="-105.229789">
  <ele>1583.0</ele>
  <time>2026-08-28T17:52:04Z</time>
  <course>0.0</course>
  <speed>0.0</speed>
  <fix>3d</fix>
</trkpt>
<trkpt lat="40.0713749" lon="-105.229789">
  <ele>1583.0</ele>
  <time>2026-08-28T17:52:04Z</time>
  <course>247.82</course>
  <speed>0.0316227766016838</speed>
  <fix>3d</fix>
</trkpt>
<trkpt lat="40.0713749" lon="-105.229789">
  <ele>1583.0</ele>
  <time>2026-08-28T17:52:04Z</time>
  <course>0.0</course>
  <speed>0.0</speed>
  <fix>3d</fix>
</trkpt>
<trkpt lat="40.0713749" lon="-105.229789">
  <ele>1583.0</ele>
  <time>2026-08-28T17:52:04Z</time>
  <course>247.81</course>
  <speed>0.0316227766016838</speed>
  <fix>3d</fix>
</trkpt>
<trkpt lat="40.0713749" lon="-105.229789">
  <ele>1583.0</ele>
  <time>2026-08-28T17:52:04Z</time>
  <course>0.0</course>
  <speed>0.0</speed>
  <fix>3d</fix>
</trkpt>
<trkpt lat="40.0713749" lon="-105.229789">
  <ele>1583.0</ele>
  <time>2026-08-28T17:52:04Z</time>
  <course>247.81</course>
  <speed>0.0316227766016838</speed>
  <fix>3d</fix>
</trkpt>
<trkpt lat="40.0713749" lon="-105.229789">
  <ele>1583.0</ele>
  <time>2026-08-28T17:52:04Z</time>
  <course>0.0</course>
  <speed>0.0</speed>
  <fix>3d</fix>
</trkpt>
<trkpt lat="40.0713749" lon="-105.229789">
  <ele>1583.0</ele>
  <time>2026-08-28T17:52:04Z</time>
  <course>247.8</course>
  <speed>0.0316227766016838</speed>
  <fix>3d</fix>
</trkpt>
<trkpt lat="40.0713749" lon="-105.229789">
  <ele>1583.0</ele>
  <time>2026-08-28T17:52:04Z</time>
  <course>0.0</course>
  <speed>0.0</speed>
  <fix>3d</fix>
</trkpt>
<trkpt lat="40.0713749" lon="-105.229789">
  <ele>1583.0</ele>
  <time>2026-08-28T17:52:04Z</time>
  <course>247.8</course>
  <speed>0.0316227766016838</speed>
  <fix>3d</fix>
</trkpt>
<trkpt lat="40.0713749" lon="-105.229789">
  <ele>1583.0</ele>
  <time>2026-08-28T17:52:04Z</time>
  <course>0.0</course>
  <speed>0.0</speed>
  <fix>3d</fix>
</trkpt>
<trkpt lat="40.0713749" lon="-105.229789">
  <ele>1583.0</ele>
  <time>2026-08-28T17:52:04Z</time>
  <course>247.8</course>
  <speed>0.0316227766016838</speed>
  <fix>3d</fix>
</trkpt>
<trkpt lat="40.0713749" lon="-105.229789">
  <ele>1583.0</ele>
  <time>2026-08-28T17:52:04Z</time>
  <course>0.0</course>
  <speed>0.0</speed>
  <fix>3d</fix>
</trkpt>
<trkpt lat="40.0713749" lon="-105.229789">
  <ele>1583.0</ele>
  <time>2026-08-28T17:52:04Z</time>
  <course>247.79</course>
  <speed>0.0316227766016838</speed>
  <fix>3d</fix>
</trkpt>
<trkpt lat="40.0713749" lon="-105.229789">
  <ele>1583.0</ele>
  <time>2026-08-28T17:52:04Z</time>
  <course>0.0</course>
  <speed>0.0</speed>
  <fix>3d</fix>
</trkpt>
<trkpt lat="40.0713749" lon="-105.229789">
  <ele>1583.0</ele>
  <time>2026-08-28T17:52:04Z</time>
  <course>247.79</course>
  <speed>0.0316227766016838</speed>
  <fix>3d</fix>
</trkpt>
<trkpt lat="40.0713749" lon="-105.229789">
  <ele>1583.0</ele>
  <time>2026-08-28T17:52:04Z</time>
  <course>0.0</course>
  <speed>0.0</speed>
  <fix>3d</fix>
</trkpt>
<trkpt lat="40.0713749" lon="-105.229789">
  <ele>1583.0</ele>
  <time>2026-08-28T17:52:04Z</time>
  <course>247.79</course>
  <speed>0.0316227766016838</speed>
  <fix>3d</fix>
</trkpt>
<trkpt lat="40.0713749" lon="-105.229789">
  <ele>1583.0</ele>
  <time>2026-08-28T17:52:04Z</time>
  <course>0.0</course>
  <speed>0.0</speed>
  <fix>3d</fix>
</trkpt>
<trkpt lat="40.0713749" lon="-105.229789">
  <ele>1583.0</ele>
  <time>2026-08-28T17:52:04Z</time>
  <course>247.78</course>
  <speed>0.0316227766016838</speed>
  <fix>3d</fix>
</trkpt>
<trkpt lat="40.0713749" lon="-105.229789">
  <ele>1583.0</ele>
  <time>2026-08-28T17:52:04Z</time>
  <course>0.0</course>
  <speed>0.0</speed>
  <fix>3d</fix>
</trkpt>
<trkpt lat="40.0713749" lon="-105.229789">
  <ele>1583.0</ele>
  <time>2026-08-28T17:52:04Z</time>
  <course>247.78</course>
  <speed>0.0316227766016838</speed>
  <fix>3d</fix>
</trkpt>
<trkpt lat="40.0713749" lon="-105.229789">
  <ele>1583.0</ele>
  <time>2026-08-28T17:52:04Z</time>
  <course>0.0</course>
  <speed>0.0</speed>
  <fix>3d</fix>
</trkpt>
<trkpt lat="40.0713749" lon="-105.229789">
  <ele>1583.0</ele>
  <time>2026-08-28T17:52:04Z</time>
  <course>247.78</course>
  <speed>0.0316227766016838</speed>
  <fix>3d</fix>
</trkpt>
<trkpt lat="40.0713749" lon="-105.229789">
  <ele>1583.0</ele>
  <time>2026-08-28T17:52:04Z</time>
  <course>0.0</course>
  <speed>0.0</speed>
  <fix>3d</fix>
</trkpt>
<trkpt lat="40.0713749" lon="-105.229789">
  <ele>1583.0</ele>
  <time>2026-08-28T17:52:04Z</time>
  <course>247.77</course>
  <speed>0.0316227766016838</speed>
  <fix>3d</fix>
</trkpt>
<trkpt lat="40.0713749" lon="-105.229789">
  <ele>1583.0</ele>
  <time>2026-08-28T17:52:04Z</time>
  <course>0.0</course>
  <speed>0.0</speed>
  <fix>3d</fix>
</trkpt>
<trkpt lat="40.0713749" lon="-105.229789">
  <ele>1583.0</ele>
  <time>2026-08-28T17:52:04Z</time>
  <course>247.77</course>
  <speed>0.0316227766016838</speed>
  <fix>3d</fix>
</trkpt>
<trkpt lat="40.0713749" lon="-105.229789">
  <ele>1583.0</ele>
  <time>2026-08-28T17:52:04Z</time>
  <course>0.0</course>
  <speed>0.0</speed>
  <fix>3d</fix>
</trkpt>
<trkpt lat="40.0713749" lon="-105.229789">
  <ele>1583.0</ele>
  <time>2026-08-28T17:52:04Z</time>
  <course>247.76</course>
  <speed>0.0316227766016838</speed>
  <fix>3d</fix>
</trkpt>
<trkpt lat="40.0713749" lon="-105.229789">
  <ele>1583.0</ele>
  <time>2026-08-28T17:52:04Z</time>
  <course>0.0</course>
  <speed>0.0</speed>
  <fix>3d</fix>
</trkpt>
<trkpt lat="40.0713749" lon="-105.229789">
  <ele>1583.0</ele>
  <time>2026-08-28T17:52:04Z</time>
  <course>247.76</course>
  <speed>0.0316227766016838</speed>
  <fix>3d</fix>
</trkpt>
<trkpt lat="40.0713749" lon="-105.229789">
  <ele>1583.0</ele>
  <time>2026-08-28T17:52:04Z</time>
  <course>0.0</course>
  <speed>0.0</speed>
  <fix>3d</fix>
</trkpt>
<trkpt lat="40.0713749" lon="-105.229789">
  <ele>1583.0</ele>
  <time>2026-08-28T17:52:04Z</time>
  <course>247.76</course>
  <speed>0.0316227766016838</speed>
  <fix>3d</fix>
</trkpt>
<trkpt lat="40.0713749" lon="-105.229789">
  <ele>1583.0</ele>
  <time>2026-08-28T17:52:04Z</time>
  <course>0.0</course>
  <speed>0.0</speed>
  <fix>3d</fix>
</trkpt>
<trkpt lat="40.0713749" lon="-105.229789">
  <ele>1583.0</ele>
  <time>2026-08-28T17:52:04Z</time>
  <course>247.75</course>
  <speed>0.0316227766016838</speed>
  <fix>3d</fix>
</trkpt>
<trkpt lat="40.0713749" lon="-105.229789">
  <ele>1583.0</ele>
  <time>2026-08-28T17:52:04Z</time>
  <course>0.0</course>
  <speed>0.0</speed>
  <fix>3d</fix>
</trkpt>
<trkpt lat="40.0713749" lon="-105.229789">
  <ele>1583.0</ele>
  <time>2026-08-28T17:52:04Z</time>
  <course>247.75</course>
  <speed>0.0316227766016838</speed>
  <fix>3d</fix>
</trkpt>
<trkpt lat="40.0713749" lon="-105.229789">
  <ele>1583.0</ele>
  <time>2026-08-28T17:52:04Z</time>
  <course>0.0</course>
  <speed>0.0</speed>
  <fix>3d</fix>
</trkpt>
<trkpt lat="40.0713749" lon="-105.229789">
  <ele>1583.0</ele>
  <time>2026-08-28T17:52:04Z</time>
  <course>247.75</course>
  <speed>0.0316227766016838</speed>
  <fix>3d</fix>
</trkpt>
<trkpt lat="40.0713749" lon="-105.229789">
  <ele>1583.0</ele>
  <time>2026-08-28T17:52:04Z</time>
  <course>0.0</course>
  <speed>0.0</speed>
  <fix>3d</fix>
</trkpt>
<trkpt lat="40.0713749" lon="-105.229789">
  <ele>1583.0</ele>
  <time>2026-08-28T17:52:04Z</time>
  <course>247.74</course>
  <speed>0.0316227766016838</speed>
  <fix>3d</fix>
</trkpt>
<trkpt lat="40.0713749" lon="-105.229789">
  <ele>1583.0</ele>
  <time>2026-08-28T17:52:04Z</time>
  <course>0.0</course>
  <speed>0.0</speed>
  <fix>3d</fix>
</trkpt>
<trkpt lat="40.0713749" lon="-105.229789">
  <ele>1583.0</ele>
  <time>2026-08-28T17:52:04Z</time>
  <course>247.74</course>
  <speed>0.0316227766016838</speed>
  <fix>3d</fix>
</trkpt>
<trkpt lat="40.0713749" lon="-105.229789">
  <ele>1583.0</ele>
  <time>2026-08-28T17:52:04Z</time>
  <course>0.0</course>
  <speed>0.0</speed>
  <fix>3d</fix>
</trkpt>
<trkpt lat="40.0713749" lon="-105.229789">
  <ele>1583.0</ele>
  <time>2026-08-28T17:52:04Z</time>
  <course>247.74</course>
  <speed>0.0316227766016838</speed>
  <fix>3d</fix>
</trkpt>
<trkpt lat="40.0713749" lon="-105.229789">
  <ele>1583.0</ele>
  <time>2026-08-28T17:52:04Z</time>
  <course>0.0</course>
  <speed>0.0</speed>
  <fix>3d</fix>
</trkpt>
<trkpt lat="40.0713749" lon="-105.229789">
  <ele>1583.0</ele>
  <time>2026-08-28T17:52:04Z</time>
  <course>247.73</course>
  <speed>0.0316227766016838</speed>
  <fix>3d</fix>
</trkpt>
<trkpt lat="40.0713749" lon="-105.229789">
  <ele>1583.0</ele>
  <time>2026-08-28T17:52:04Z</time>
  <course>0.0</course>
  <speed>0.0</speed>
  <fix>3d</fix>
</trkpt>
<trkpt lat="40.0713749" lon="-105.229789">
  <ele>1583.0</ele>
  <time>2026-08-28T17:52:04Z</time>
  <course>247.73</course>
  <speed>0.0316227766016838</speed>
  <fix>3d</fix>
</trkpt>
<trkpt lat="40.0713749" lon="-105.229789">
  <ele>1583.0</ele>
  <time>2026-08-28T17:52:04Z</time>
  <course>0.0</course>
  <speed>0.0</speed>
  <fix>3d</fix>
</trkpt>
<trkpt lat="40.0713749" lon="-105.229789">
  <ele>1583.0</ele>
  <time>2026-08-28T17:52:04Z</time>
  <course>247.73</course>
  <speed>0.0316227766016838</speed>
  <fix>3d</fix>
</trkpt>
<trkpt lat="40.0713749" lon="-105.229789">
  <ele>1583.0</ele>
  <time>2026-08-28T17:52:04Z</time>
  <course>0.0</course>
  <speed>0.0</speed>
  <fix>3d</fix>
</trkpt>
<trkpt lat="40.0713749" lon="-105.229789">
  <ele>1583.0</ele>
  <time>2026-08-28T17:52:04Z</time>
  <course>247.72</course>
  <speed>0.0316227766016838</speed>
  <fix>3d</fix>
</trkpt>
<trkpt lat="40.0713749" lon="-105.229789">
  <ele>1583.0</ele>
  <time>2026-08-28T17:52:04Z</time>
  <course>0.0</course>
  <speed>0.0</speed>
  <fix>3d</fix>
</trkpt>
<trkpt lat="40.0713749" lon="-105.229789">
  <ele>1583.0</ele>
  <time>2026-08-28T17:52:04Z</time>
  <course>247.72</course>
  <speed>0.0316227766016838</speed>
  <fix>3d</fix>
</trkpt>
<trkpt lat="40.0713749" lon="-105.229789">
  <ele>1583.0</ele>
  <time>2026-08-28T17:52:04Z</time>
  <course>0.0</course>
  <speed>0.0</speed>
  <fix>3d</fix>
</trkpt>
<trkpt lat="40.0713749" lon="-105.229789">
  <ele>1583.0</ele>
  <time>2026-08-28T17:52:04Z</time>
  <course>247.72</course>
  <speed>0.0316227766016838</speed>
  <fix>3d</fix>
</trkpt>
<trkpt lat="40.0713749" lon="-105.229789">
  <ele>1583.0</ele>
  <time>2026-08-28T17:52:04Z</time>
  <course>0.0</course>
  <speed>0.0</speed>
  <fix>3d</fix>
</trkpt>
<trkpt lat="40.0713749" lon="-105.229789">
  <ele>1583.0</ele>
  <time>2026-08-28T17:52:04Z</time>
  <course>247.71</course>
  <speed>0.0316227766016838</speed>
  <fix>3d</fix>
</trkpt>
<trkpt lat="40.0713749" lon="-105.229789">
  <ele>1583.0</ele>
  <time>2026-08-28T17:52:04Z</time>
  <course>0.0</course>
  <speed>0.0</speed>
  <fix>3d</fix>
</trkpt>
<trkpt lat="40.0713749" lon="-105.229789">
  <ele>1583.0</ele>
  <time>2026-08-28T17:52:04Z</time>
  <course>247.71</course>
  <speed>0.0316227766016838</speed>
  <fix>3d</fix>
</trkpt>
<trkpt lat="40.0713749" lon="-105.229789">
  <ele>1583.0</ele>
  <time>2026-08-28T17:52:04Z</time>
  <course>0.0</course>
  <speed>0.0</speed>
  <fix>3d</fix>
</trkpt>
<trkpt lat="40.0713749" lon="-105.229789">
  <ele>1583.0</ele>
  <time>2026-08-28T17:52:04Z</time>
  <course>247.71</course>
  <speed>0.0316227766016838</speed>
  <fix>3d</fix>
</trkpt>
<trkpt lat="40.0713749" lon="-105.229789">
  <ele>1583.0</ele>
  <time>2026-08-28T17:52:04Z</time>
  <course>0.0</course>
  <speed>0.0</speed>
  <fix>3d</fix>
</trkpt>
<trkpt lat="40.0713749" lon="-105.229789">
  <ele>1583.0</ele>
  <time>2026-08-28T17:52:04Z</time>
  <course>247.7</course>
  <speed>0.0316227766016838</speed>
  <fix>3d</fix>
</trkpt>
<trkpt lat="40.0713749" lon="-105.229789">
  <ele>1583.0</ele>
  <time>2026-08-28T17:52:04Z</time>
  <course>0.0</course>
  <speed>0.0</speed>
  <fix>3d</fix>
</trkpt>
<trkpt lat="40.0713749" lon="-105.229789">
  <ele>1583.0</ele>
  <time>2026-08-28T17:52:04Z</time>
  <course>247.7</course>
  <speed>0.0316227766016838</speed>
  <fix>3d</fix>
</trkpt>
<trkpt lat="40.0713749" lon="-105.229789">
  <ele>1583.0</ele>
  <time>2026-08-28T17:52:04Z</time>
  <course>0.0</course>
  <speed>0.0</speed>
  <fix>3d</fix>
</trkpt>
<trkpt lat="40.0713749" lon="-105.229789">
  <ele>1583.0</ele>
  <time>2026-08-28T17:52:04Z</time>
  <course>247.7</course>
  <speed>0.0316227766016838</speed>
  <fix>3d</fix>
</trkpt>
<trkpt lat="40.0713749" lon="-105.229789">
  <ele>1583.0</ele>
  <time>2026-08-28T17:52:04Z</time>
  <course>0.0</course>
  <speed>0.0</speed>
  <fix>3d</fix>
</trkpt>
<trkpt lat="40.0713749" lon="-105.229789">
  <ele>1583.0</ele>
  <time>2026-08-28T17:52:04Z</time>
  <course>247.69</course>
  <speed>0.0316227766016838</speed>
  <fix>3d</fix>
</trkpt>
<trkpt lat="40.0713749" lon="-105.229789">
  <ele>1583.0</ele>
  <time>2026-08-28T17:52:04Z</time>
  <course>0.0</course>
  <speed>0.0</speed>
  <fix>3d</fix>
</trkpt>
<trkpt lat="40.0713749" lon="-105.229789">
  <ele>1583.0</ele>
  <time>2026-08-28T17:52:04Z</time>
  <course>247.69</course>
  <speed>0.0316227766016838</speed>
  <fix>3d</fix>
</trkpt>
<trkpt lat="40.0713749" lon="-105.229789">
  <ele>1583.0</ele>
  <time>2026-08-28T17:52:04Z</time>
  <course>0.0</course>
  <speed>0.0</speed>
  <fix>3d</fix>
</trkpt>
<trkpt lat="40.0713749" lon="-105.229789">
  <ele>1583.0</ele>
  <time>2026-08-28T17:52:04Z</time>
  <course>247.69</course>
  <speed>0.0316227766016838</speed>
  <fix>3d</fix>
</trkpt>
<trkpt lat="40.0713749" lon="-105.229789">
  <ele>1583.0</ele>
  <time>2026-08-28T17:52:04Z</time>
  <course>0.0</course>
  <speed>0.0</speed>
  <fix>3d</fix>
</trkpt>
<trkpt lat="40.0713749" lon="-105.229789">
  <ele>1583.0</ele>
  <time>2026-08-28T17:52:04Z</time>
  <course>247.68</course>
  <speed>0.0316227766016838</speed>
  <fix>3d</fix>
</trkpt>
<trkpt lat="40.0713749" lon="-105.229789">
  <ele>1583.0</ele>
  <time>2026-08-28T17:52:04Z</time>
  <course>0.0</course>
  <speed>0.0</speed>
  <fix>3d</fix>
</trkpt>
<trkpt lat="40.0713749" lon="-105.229789">
  <ele>1583.0</ele>
  <time>2026-08-28T17:52:04Z</time>
  <course>247.68</course>
  <speed>0.0316227766016838</speed>
  <fix>3d</fix>
</trkpt>
<trkpt lat="40.0713749" lon="-105.229789">
  <ele>1583.0</ele>
  <time>2026-08-28T17:52:04Z</time>
  <course>0.0</course>
  <speed>0.0</speed>
  <fix>3d</fix>
</trkpt>
<trkpt lat="40.0713749" lon="-105.229789">
  <ele>1583.0</ele>
  <time>2026-08-28T17:52:04Z</time>
  <course>247.68</course>
  <speed>0.0316227766016838</speed>
  <fix>3d</fix>
</trkpt>
<trkpt lat="40.0713749" lon="-105.229789">
  <ele>1583.0</ele>
  <time>2026-08-28T17:52:04Z</time>
  <course>0.0</course>
  <speed>0.0</speed>
  <fix>3d</fix>
</trkpt>
<trkpt lat="40.0713749" lon="-105.229789">
  <ele>1583.0</ele>
  <time>2026-08-28T17:52:04Z</time>
  <course>247.67</course>
  <speed>0.0316227766016838</speed>
  <fix>3d</fix>
</trkpt>
<trkpt lat="40.0713749" lon="-105.229789">
  <ele>1583.0</ele>
  <time>2026-08-28T17:52:04Z</time>
  <course>0.0</course>
  <speed>0.0</speed>
  <fix>3d</fix>
</trkpt>
<trkpt lat="40.0713749" lon="-105.229789">
  <ele>1583.0</ele>
  <time>2026-08-28T17:52:04Z</time>
  <course>247.67</course>
  <speed>0.0316227766016838</speed>
  <fix>3d</fix>
</trkpt>
<trkpt lat="40.0713749" lon="-105.229789">
  <ele>1583.0</ele>
  <time>2026-08-28T17:52:04Z</time>
  <course>0.0</course>
  <speed>0.0</speed>
  <fix>3d</fix>
</trkpt>
<trkpt lat="40.0713749" lon="-105.229789">
  <ele>1583.0</ele>
  <time>2026-08-28T17:52:04Z</time>
  <course>247.67</course>
  <speed>0.0316227766016838</speed>
  <fix>3d</fix>
</trkpt>
<trkpt lat="40.0713749" lon="-105.229789">
  <ele>1583.0</ele>
  <time>2026-08-28T17:52:04Z</time>
  <course>0.0</course>
  <speed>0.0</speed>
  <fix>3d</fix>
</trkpt>
<trkpt lat="40.0713749" lon="-105.229789">
  <ele>1583.0</ele>
  <time>2026-08-28T17:52:04Z</time>
  <course>247.66</course>
  <speed>0.0316227766016838</speed>
  <fix>3d</fix>
</trkpt>
<trkpt lat="40.0713749" lon="-105.229789">
  <ele>1583.0</ele>
  <time>2026-08-28T17:52:04Z</time>
  <course>0.0</course>
  <speed>0.0</speed>
  <fix>3d</fix>
</trkpt>
<trkpt lat="40.0713749" lon="-105.229789">
  <ele>1583.0</ele>
  <time>2026-08-28T17:52:04Z</time>
  <course>247.66</course>
  <speed>0.0316227766016838</speed>
  <fix>3d</fix>
</trkpt>
<trkpt lat="40.0713749" lon="-105.229789">
  <ele>1583.0</ele>
  <time>2026-08-28T17:52:04Z</time>
  <course>0.0</course>
  <speed>0.0</speed>
  <fix>3d</fix>
</trkpt>
<trkpt lat="40.0713749" lon="-105.229789">
  <ele>1583.0</ele>
  <time>2026-08-28T17:52:04Z</time>
  <course>247.66</course>
  <speed>0.0316227766016838</speed>
  <fix>3d</fix>
</trkpt>
<trkpt lat="40.0713749" lon="-105.229789">
  <ele>1583.0</ele>
  <time>2026-08-28T17:52:04Z</time>
  <course>0.0</course>
  <speed>0.0</speed>
  <fix>3d</fix>
</trkpt>
<trkpt lat="40.0713749" lon="-105.229789">
  <ele>1583.0</ele>
  <time>2026-08-28T17:52:04Z</time>
  <course>247.65</course>
  <speed>0.0316227766016838</speed>
  <fix>3d</fix>
</trkpt>
<trkpt lat="40.0713749" lon="-105.229789">
  <ele>1583.0</ele>
  <time>2026-08-28T17:52:04Z</time>
  <course>0.0</course>
  <speed>0.0</speed>
  <fix>3d</fix>
</trkpt>
<trkpt lat="40.0713749" lon="-105.229789">
  <ele>1583.0</ele>
  <time>2026-08-28T17:52:04Z</time>
  <course>247.65</course>
  <speed>0.0316227766016838</speed>
  <fix>3d</fix>
</trkpt>
<trkpt lat="40.0713749" lon="-105.229789">
  <ele>1583.0</ele>
  <time>2026-08-28T17:52:04Z</time>
  <course>0.0</course>
  <speed>0.0</speed>
  <fix>3d</fix>
</trkpt>
<trkpt lat="40.0713749" lon="-105.229789">
  <ele>1583.0</ele>
  <time>2026-08-28T17:52:04Z</time>
  <course>247.65</course>
  <speed>0.0316227766016838</speed>
  <fix>3d</fix>
</trkpt>
<trkpt lat="40.0713749" lon="-105.229789">
  <ele>1583.0</ele>
  <time>2026-08-28T17:52:04Z</time>
  <course>0.0</course>
  <speed>0.0</speed>
  <fix>3d</fix>
</trkpt>
<trkpt lat="40.0713749" lon="-105.229789">
  <ele>1583.0</ele>
  <time>2026-08-28T17:52:04Z</time>
  <course>247.64</course>
  <speed>0.0316227766016838</speed>
  <fix>3d</fix>
</trkpt>
<trkpt lat="40.0713749" lon="-105.229789">
  <ele>1583.0</ele>
  <time>2026-08-28T17:52:04Z</time>
  <course>0.0</course>
  <speed>0.0</speed>
  <fix>3d</fix>
</trkpt>
<trkpt lat="40.0713749" lon="-105.229789">
  <ele>1583.0</ele>
  <time>2026-08-28T17:52:04Z</time>
  <course>247.64</course>
  <speed>0.0316227766016838</speed>
  <fix>3d</fix>
</trkpt>
<trkpt lat="40.0713749" lon="-105.229789">
  <ele>1583.0</ele>
  <time>2026-08-28T17:52:04Z</time>
  <course>0.0</course>
  <speed>0.0</speed>
  <fix>3d</fix>
</trkpt>
<trkpt lat="40.0713749" lon="-105.229789">
  <ele>1583.0</ele>
  <time>2026-08-28T17:52:04Z</time>
  <course>247.64</course>
  <speed>0.0316227766016838</speed>
  <fix>3d</fix>
</trkpt>
<trkpt lat="40.0713749" lon="-105.229789">
  <ele>1583.0</ele>
  <time>2026-08-28T17:52:04Z</time>
  <course>0.0</course>
  <speed>0.0</speed>
  <fix>3d</fix>
</trkpt>
<trkpt lat="40.0713749" lon="-105.229789">
  <ele>1583.0</ele>
  <time>2026-08-28T17:52:04Z</time>
  <course>247.64</course>
  <speed>0.0316227766016838</speed>
  <fix>3d</fix>
</trkpt>
<trkpt lat="40.0713749" lon="-105.229789">
  <ele>1583.0</ele>
  <time>2026-08-28T17:52:04Z</time>
  <course>0.0</course>
  <speed>0.0</speed>
  <fix>3d</fix>
</trkpt>
<trkpt lat="40.0713749" lon="-105.229789">
  <ele>1583.0</ele>
  <time>2026-08-28T17:52:04Z</time>
  <course>247.63</course>
  <speed>0.0316227766016838</speed>
  <fix>3d</fix>
</trkpt>
<trkpt lat="40.0713749" lon="-105.229789">
  <ele>1583.0</ele>
  <time>2026-08-28T17:52:04Z</time>
  <course>0.0</course>
  <speed>0.0</speed>
  <fix>3d</fix>
</trkpt>
<trkpt lat="40.0713749" lon="-105.229789">
  <ele>1583.0</ele>
  <time>2026-08-28T17:52:04Z</time>
  <course>247.63</course>
  <speed>0.0316227766016838</speed>
  <fix>3d</fix>
</trkpt>
<trkpt lat="40.0713749" lon="-105.229789">
  <ele>1583.0</ele>
  <time>2026-08-28T17:52:04Z</time>
  <course>0.0</course>
  <speed>0.0</speed>
  <fix>3d</fix>
</trkpt>
<trkpt lat="40.0713749" lon="-105.229789">
  <ele>1583.0</ele>
  <time>2026-08-28T17:52:04Z</time>
  <course>247.63</course>
  <speed>0.0316227766016838</speed>
  <fix>3d</fix>
</trkpt>
<trkpt lat="40.0713749" lon="-105.229789">
  <ele>1583.0</ele>
  <time>2026-08-28T17:52:04Z</time>
  <course>0.0</course>
  <speed>0.0</speed>
  <fix>3d</fix>
</trkpt>
<trkpt lat="40.0713749" lon="-105.229789">
  <ele>1583.0</ele>
  <time>2026-08-28T17:52:04Z</time>
  <course>247.62</course>
  <speed>0.0316227766016838</speed>
  <fix>3d</fix>
</trkpt>
<trkpt lat="40.0713749" lon="-105.229789">
  <ele>1583.0</ele>
  <time>2026-08-28T17:52:04Z</time>
  <course>0.0</course>
  <speed>0.0</speed>
  <fix>3d</fix>
</trkpt>
<trkpt lat="40.0713749" lon="-105.229789">
  <ele>1583.0</ele>
  <time>2026-08-28T17:52:04Z</time>
  <course>247.62</course>
  <speed>0.0316227766016838</speed>
  <fix>3d</fix>
</trkpt>
<trkpt lat="40.0713749" lon="-105.229789">
  <ele>1583.0</ele>
  <time>2026-08-28T17:52:04Z</time>
  <course>0.0</course>
  <speed>0.0</speed>
  <fix>3d</fix>
</trkpt>
<trkpt lat="40.0713749" lon="-105.229789">
  <ele>1583.0</ele>
  <time>2026-08-28T17:52:04Z</time>
  <course>247.62</course>
  <speed>0.0316227766016838</speed>
  <fix>3d</fix>
</trkpt>
<trkpt lat="40.0713749" lon="-105.229789">
  <ele>1583.0</ele>
  <time>2026-08-28T17:52:04Z</time>
  <course>0.0</course>
  <speed>0.0</speed>
  <fix>3d</fix>
</trkpt>
<trkpt lat="40.0713749" lon="-105.229789">
  <ele>1583.0</ele>
  <time>2026-08-28T17:52:04Z</time>
  <course>247.62</course>
  <speed>0.0316227766016838</speed>
  <fix>3d</fix>
</trkpt>
<trkpt lat="40.0713749" lon="-105.229789">
  <ele>1583.0</ele>
  <time>2026-08-28T17:52:04Z</time>
  <course>0.0</course>
  <speed>0.0</speed>
  <fix>3d</fix>
</trkpt>
<trkpt lat="40.0713749" lon="-105.229789">
  <ele>1583.0</ele>
  <time>2026-08-28T17:52:04Z</time>
  <course>247.61</course>
  <speed>0.0316227766016838</speed>
  <fix>3d</fix>
</trkpt>
<trkpt lat="40.0713749" lon="-105.229789">
  <ele>1583.0</ele>
  <time>2026-08-28T17:52:04Z</time>
  <course>0.0</course>
  <speed>0.0</speed>
  <fix>3d</fix>
</trkpt>
<trkpt lat="40.0713749" lon="-105.229789">
  <ele>1583.0</ele>
  <time>2026-08-28T17:52:04Z</time>
  <course>247.61</course>
  <speed>0.0316227766016838</speed>
  <fix>3d</fix>
</trkpt>
<trkpt lat="40.0713749" lon="-105.229789">
  <ele>1583.0</ele>
  <time>2026-08-28T17:52:04Z</time>
  <course>0.0</course>
  <speed>0.0</speed>
  <fix>3d</fix>
</trkpt>
<trkpt lat="40.0713749" lon="-105.229789">
  <ele>1583.0</ele>
  <time>2026-08-28T17:52:04Z</time>
  <course>247.61</course>
  <speed>0.0316227766016838</speed>
  <fix>3d</fix>
</trkpt>
<trkpt lat="40.0713749" lon="-105.229789">
  <ele>1583.0</ele>
  <time>2026-08-28T17:52:04Z</time>
  <course>0.0</course>
  <speed>0.0</speed>
  <fix>3d</fix>
</trkpt>
<trkpt lat="40.0713749" lon="-105.229789">
  <ele>1583.0</ele>
  <time>2026-08-28T17:52:04Z</time>
  <course>247.6</course>
  <speed>0.0316227766016838</speed>
  <fix>3d</fix>
</trkpt>
<trkpt lat="40.0713749" lon="-105.229789">
  <ele>1583.0</ele>
  <time>2026-08-28T17:52:04Z</time>
  <course>0.0</course>
  <speed>0.0</speed>
  <fix>3d</fix>
</trkpt>
<trkpt lat="40.0713749" lon="-105.229789">
  <ele>1583.0</ele>
  <time>2026-08-28T17:52:04Z</time>
  <course>247.6</course>
  <speed>0.0316227766016838</speed>
  <fix>3d</fix>
</trkpt>
<trkpt lat="40.0713749" lon="-105.229789">
  <ele>1583.0</ele>
  <time>2026-08-28T17:52:04Z</time>
  <course>0.0</course>
  <speed>0.0</speed>
  <fix>3d</fix>
</trkpt>
<trkpt lat="40.0713749" lon="-105.229789">
  <ele>1583.0</ele>
  <time>2026-08-28T17:52:04Z</time>
  <course>247.6</course>
  <speed>0.0316227766016838</speed>
  <fix>3d</fix>
</trkpt>
<trkpt lat="40.0713749" lon="-105.229789">
  <ele>1583.0</ele>
  <time>2026-08-28T17:52:04Z</time>
  <course>0.0</course>
  <speed>0.0</speed>
  <fix>3d</fix>
</trkpt>
<trkpt lat="40.0713749" lon="-105.229789">
  <ele>1583.0</ele>
  <time>2026-08-28T17:52:04Z</time>
  <course>247.6</course>
  <speed>0.0316227766016838</speed>
  <fix>3d</fix>
</trkpt>
<trkpt lat="40.0713749" lon="-105.229789">
  <ele>1583.0</ele>
  <time>2026-08-28T17:52:04Z</time>
  <course>0.0</course>
  <speed>0.0</speed>
  <fix>3d</fix>
</trkpt>
<trkpt lat="40.0713749" lon="-105.229789">
  <ele>1583.0</ele>
  <time>2026-08-28T17:52:04Z</time>
  <course>247.59</course>
  <speed>0.0316227766016838</speed>
  <fix>3d</fix>
</trkpt>
<trkpt lat="40.0713749" lon="-105.229789">
  <ele>1583.0</ele>
  <time>2026-08-28T17:52:04Z</time>
  <course>0.0</course>
  <speed>0.0</speed>
  <fix>3d</fix>
</trkpt>
<trkpt lat="40.0713749" lon="-105.229789">
  <ele>1582.92</ele>
  <time>2026-08-28T17:52:04Z</time>
  <course>247.59</course>
  <speed>0.0</speed>
  <fix>3d</fix>
</trkpt>
<trkpt lat="40.0713749" lon="-105.229789">
  <ele>1583.0</ele>
  <time>2026-08-28T17:52:04Z</time>
  <course>0.0</course>
  <speed>0.0</speed>
  <fix>3d</fix>
</trkpt>
<trkpt lat="40.0713749" lon="-105.229789">
  <ele>1582.92</ele>
  <time>2026-08-28T17:52:04Z</time>
  <course>247.59</course>
  <speed>0.0</speed>
  <fix>3d</fix>
</trkpt>
<trkpt lat="40.0713749" lon="-105.229789">
  <ele>1583.0</ele>
  <time>2026-08-28T17:52:04Z</time>
  <course>0.0</course>
  <speed>0.0</speed>
  <fix>3d</fix>
</trkpt>
<trkpt lat="40.0713749" lon="-105.229789">
  <ele>1582.91</ele>
  <time>2026-08-28T17:52:04Z</time>
  <course>247.58</course>
  <speed>0.0</speed>
  <fix>3d</fix>
</trkpt>
<trkpt lat="40.0713749" lon="-105.229789">
  <ele>1583.0</ele>
  <time>2026-08-28T17:52:04Z</time>
  <course>0.0</course>
  <speed>0.0</speed>
  <fix>3d</fix>
</trkpt>
<trkpt lat="40.0713749" lon="-105.229789">
  <ele>1582.91</ele>
  <time>2026-08-28T17:52:04Z</time>
  <course>247.58</course>
  <speed>0.0</speed>
  <fix>3d</fix>
</trkpt>
<trkpt lat="40.0713749" lon="-105.229789">
  <ele>1583.0</ele>
  <time>2026-08-28T17:52:04Z</time>
  <course>0.0</course>
  <speed>0.0</speed>
  <fix>3d</fix>
</trkpt>
<trkpt lat="40.0713749" lon="-105.229789">
  <ele>1582.9</ele>
  <time>2026-08-28T17:52:04Z</time>
  <course>247.58</course>
  <speed>0.0</speed>
  <fix>3d</fix>
</trkpt>
<trkpt lat="40.0713749" lon="-105.229789">
  <ele>1583.0</ele>
  <time>2026-08-28T17:52:04Z</time>
  <course>0.0</course>
  <speed>0.0</speed>
  <fix>3d</fix>
</trkpt>
<trkpt lat="40.0713749" lon="-105.229789">
  <ele>1582.9</ele>
  <time>2026-08-28T17:52:04Z</time>
  <course>247.58</course>
  <speed>0.0</speed>
  <fix>3d</fix>
</trkpt>
<trkpt lat="40.0713749" lon="-105.229789">
  <ele>1583.0</ele>
  <time>2026-08-28T17:52:04Z</time>
  <course>0.0</course>
  <speed>0.0</speed>
  <fix>3d</fix>
</trkpt>
<trkpt lat="40.0713749" lon="-105.229789">
  <ele>1582.9</ele>
  <time>2026-08-28T17:52:04Z</time>
  <course>247.57</course>
  <speed>0.0</speed>
  <fix>3d</fix>
</trkpt>
<trkpt lat="40.0713749" lon="-105.229789">
  <ele>1583.0</ele>
  <time>2026-08-28T17:52:04Z</time>
  <course>0.0</course>
  <speed>0.0</speed>
  <fix>3d</fix>
</trkpt>
<trkpt lat="40.0713749" lon="-105.229789">
  <ele>1582.9</ele>
  <time>2026-08-28T17:52:04Z</time>
  <course>247.57</course>
  <speed>0.0</speed>
  <fix>3d</fix>
</trkpt>
<trkpt lat="40.0713749" lon="-105.229789">
  <ele>1583.0</ele>
  <time>2026-08-28T17:52:04Z</time>
  <course>0.0</course>
  <speed>0.0</speed>
  <fix>3d</fix>
</trkpt>
<trkpt lat="40.0713749" lon="-105.229789">
  <ele>1582.9</ele>
  <time>2026-08-28T17:52:04Z</time>
  <course>247.57</course>
  <speed>0.0</speed>
  <fix>3d</fix>
</trkpt>
<trkpt lat="40.0713749" lon="-105.229789">
  <ele>1583.0</ele>
  <time>2026-08-28T17:52:04Z</time>
  <course>0.0</course>
  <speed>0.0</speed>
  <fix>3d</fix>
</trkpt>
<trkpt lat="40.0713749" lon="-105.229789">
  <ele>1582.9</ele>
  <time>2026-08-28T17:52:04Z</time>
  <course>247.57</course>
  <speed>0.01</speed>
  <fix>3d</fix>
</trkpt>
<trkpt lat="40.0713749" lon="-105.229789">
  <ele>1583.0</ele>
  <time>2026-08-28T17:52:04Z</time>
  <course>0.0</course>
  <speed>0.0</speed>
  <fix>3d</fix>
</trkpt>
<trkpt lat="40.0713749" lon="-105.229789">
  <ele>1582.9</ele>
  <time>2026-08-28T17:52:04Z</time>
  <course>247.56</course>
  <speed>0.01</speed>
  <fix>3d</fix>
</trkpt>
<trkpt lat="40.0713749" lon="-105.229789">
  <ele>1583.0</ele>
  <time>2026-08-28T17:52:04Z</time>
  <course>0.0</course>
  <speed>0.0</speed>
  <fix>3d</fix>
</trkpt>
<trkpt lat="40.0713749" lon="-105.229789">
  <ele>1582.91</ele>
  <time>2026-08-28T17:52:04Z</time>
  <course>247.56</course>
  <speed>0.01</speed>
  <fix>3d</fix>
</trkpt>
<trkpt lat="40.0713749" lon="-105.229789">
  <ele>1583.0</ele>
  <time>2026-08-28T17:52:04Z</time>
  <course>0.0</course>
  <speed>0.0</speed>
  <fix>3d</fix>
</trkpt>
<trkpt lat="40.0713749" lon="-105.229789">
  <ele>1582.91</ele>
  <time>2026-08-28T17:52:04Z</time>
  <course>247.56</course>
  <speed>0.01</speed>
  <fix>3d</fix>
</trkpt>
<trkpt lat="40.0713749" lon="-105.229789">
  <ele>1583.0</ele>
  <time>2026-08-28T17:52:04Z</time>
  <course>0.0</course>
  <speed>0.0</speed>
  <fix>3d</fix>
</trkpt>
<trkpt lat="40.0713749" lon="-105.229789">
  <ele>1582.92</ele>
  <time>2026-08-28T17:52:04Z</time>
  <course>247.56</course>
  <speed>0.01</speed>
  <fix>3d</fix>
</trkpt>
<trkpt lat="40.0713749" lon="-105.229789">
  <ele>1583.0</ele>
  <time>2026-08-28T17:52:04Z</time>
  <course>0.0</course>
  <speed>0.0</speed>
  <fix>3d</fix>
</trkpt>
<trkpt lat="40.0713749" lon="-105.229789">
  <ele>1582.92</ele>
  <time>2026-08-28T17:52:06Z</time>
  <course>247.55</course>
  <speed>0.01</speed>
  <fix>3d</fix>
</trkpt>
<trkpt lat="40.0713749" lon="-105.229789">
  <ele>1583.0</ele>
  <time>2026-08-28T17:52:06Z</time>
  <course>0.0</course>
  <speed>0.0</speed>
  <fix>3d</fix>
</trkpt>
<trkpt lat="40.0713749" lon="-105.229789">
  <ele>1582.92</ele>
  <time>2026-08-28T17:52:06Z</time>
  <course>247.55</course>
  <speed>0.01</speed>
  <fix>3d</fix>
</trkpt>
<trkpt lat="40.0713749" lon="-105.229789">
  <ele>1583.0</ele>
  <time>2026-08-28T17:52:06Z</time>
  <course>0.0</course>
  <speed>0.0</speed>
  <fix>3d</fix>
</trkpt>
<trkpt lat="40.0713749" lon="-105.229789">
  <ele>1582.93</ele>
  <time>2026-08-28T17:52:06Z</time>
  <course>247.55</course>
  <speed>0.01</speed>
  <fix>3d</fix>
</trkpt>
<trkpt lat="40.0713749" lon="-105.229789">
  <ele>1583.0</ele>
  <time>2026-08-28T17:52:06Z</time>
  <course>0.0</course>
  <speed>0.0</speed>
  <fix>3d</fix>
</trkpt>
<trkpt lat="40.0713749" lon="-105.229789">
  <ele>1582.93</ele>
  <time>2026-08-28T17:52:06Z</time>
  <course>247.55</course>
  <speed>0.01</speed>
  <fix>3d</fix>
</trkpt>
<trkpt lat="40.0713749" lon="-105.229789">
  <ele>1583.0</ele>
  <time>2026-08-28T17:52:06Z</time>
  <course>0.0</course>
  <speed>0.0</speed>
  <fix>3d</fix>
</trkpt>
<trkpt lat="40.0713749" lon="-105.229789">
  <ele>1582.93</ele>
  <time>2026-08-28T17:52:06Z</time>
  <course>247.54</course>
  <speed>0.02</speed>
  <fix>3d</fix>
</trkpt>
<trkpt lat="40.0713749" lon="-105.229789">
  <ele>1583.0</ele>
  <time>2026-08-28T17:52:06Z</time>
  <course>0.0</course>
  <speed>0.0</speed>
  <fix>3d</fix>
</trkpt>
<trkpt lat="40.0713749" lon="-105.229789">
  <ele>1582.93</ele>
  <time>2026-08-28T17:52:06Z</time>
  <course>247.54</course>
  <speed>0.02</speed>
  <fix>3d</fix>
</trkpt>
<trkpt lat="40.0713749" lon="-105.229789">
  <ele>1583.0</ele>
  <time>2026-08-28T17:52:06Z</time>
  <course>0.0</course>
  <speed>0.0</speed>
  <fix>3d</fix>
</trkpt>
<trkpt lat="40.0713749" lon="-105.229789">
  <ele>1582.93</ele>
  <time>2026-08-28T17:52:06Z</time>
  <course>247.54</course>
  <speed>0.02</speed>
  <fix>3d</fix>
</trkpt>
<trkpt lat="40.0713749" lon="-105.229789">
  <ele>1583.0</ele>
  <time>2026-08-28T17:52:06Z</time>
  <course>0.0</course>
  <speed>0.0</speed>
  <fix>3d</fix>
</trkpt>
<trkpt lat="40.0713749" lon="-105.229789">
  <ele>1582.93</ele>
  <time>2026-08-28T17:52:06Z</time>
  <course>247.54</course>
  <speed>0.022360679774997897</speed>
  <fix>3d</fix>
</trkpt>
<trkpt lat="40.0713749" lon="-105.229789">
  <ele>1583.0</ele>
  <time>2026-08-28T17:52:06Z</time>
  <course>0.0</course>
  <speed>0.0</speed>
  <fix>3d</fix>
</trkpt>
<trkpt lat="40.0713749" lon="-105.229789">
  <ele>1582.94</ele>
  <time>2026-08-28T17:52:06Z</time>
  <course>247.53</course>
  <speed>0.022360679774997897</speed>
  <fix>3d</fix>
</trkpt>
<trkpt lat="40.0713749" lon="-105.229789">
  <ele>1583.0</ele>
  <time>2026-08-28T17:52:06Z</time>
  <course>0.0</course>
  <speed>0.0</speed>
  <fix>3d</fix>
</trkpt>
<trkpt lat="40.0713749" lon="-105.229789">
  <ele>1582.94</ele>
  <time>2026-08-28T17:52:06Z</time>
  <course>247.53</course>
  <speed>0.022360679774997897</speed>
  <fix>3d</fix>
</trkpt>
<trkpt lat="40.0713749" lon="-105.229789">
  <ele>1583.0</ele>
  <time>2026-08-28T17:52:06Z</time>
  <course>0.0</course>
  <speed>0.0</speed>
  <fix>3d</fix>
</trkpt>
<trkpt lat="40.071375" lon="-105.229789">
  <ele>1582.94</ele>
  <time>2026-08-28T17:52:06Z</time>
  <course>247.53</course>
  <speed>0.022360679774997897</speed>
  <fix>3d</fix>
</trkpt>
<trkpt lat="40.0713749" lon="-105.229789">
  <ele>1583.0</ele>
  <time>2026-08-28T17:52:06Z</time>
  <course>0.0</course>
  <speed>0.0</speed>
  <fix>3d</fix>
</trkpt>
<trkpt lat="40.071375" lon="-105.229789">
  <ele>1582.95</ele>
  <time>2026-08-28T17:52:06Z</time>
  <course>247.53</course>
  <speed>0.022360679774997897</speed>
  <fix>3d</fix>
</trkpt>
<trkpt lat="40.0713749" lon="-105.229789">
  <ele>1583.0</ele>
  <time>2026-08-28T17:52:06Z</time>
  <course>0.0</course>
  <speed>0.0</speed>
  <fix>3d</fix>
</trkpt>
<trkpt lat="40.071375" lon="-105.229789">
  <ele>1582.95</ele>
  <time>2026-08-28T17:52:06Z</time>
  <course>247.53</course>
  <speed>0.022360679774997897</speed>
  <fix>3d</fix>
</trkpt>
<trkpt lat="40.0713749" lon="-105.229789">
  <ele>1583.0</ele>
  <time>2026-08-28T17:52:06Z</time>
  <course>0.0</course>
  <speed>0.0</speed>
  <fix>3d</fix>
</trkpt>
<trkpt lat="40.071375" lon="-105.229789">
  <ele>1582.95</ele>
  <time>2026-08-28T17:52:06Z</time>
  <course>247.52</course>
  <speed>0.022360679774997897</speed>
  <fix>3d</fix>
</trkpt>
<trkpt lat="40.0713749" lon="-105.229789">
  <ele>1583.0</ele>
  <time>2026-08-28T17:52:06Z</time>
  <course>0.0</course>
  <speed>0.0</speed>
  <fix>3d</fix>
</trkpt>
<trkpt lat="40.071375" lon="-105.229789">
  <ele>1582.95</ele>
  <time>2026-08-28T17:52:06Z</time>
  <course>247.52</course>
  <speed>0.022360679774997897</speed>
  <fix>3d</fix>
</trkpt>
<trkpt lat="40.0713749" lon="-105.229789">
  <ele>1583.0</ele>
  <time>2026-08-28T17:52:06Z</time>
  <course>0.0</course>
  <speed>0.0</speed>
  <fix>3d</fix>
</trkpt>
<trkpt lat="40.071375" lon="-105.229789">
  <ele>1582.95</ele>
  <time>2026-08-28T17:52:06Z</time>
  <course>247.52</course>
  <speed>0.022360679774997897</speed>
  <fix>3d</fix>
</trkpt>
<trkpt lat="40.0713749" lon="-105.229789">
  <ele>1583.0</ele>
  <time>2026-08-28T17:52:06Z</time>
  <course>0.0</course>
  <speed>0.0</speed>
  <fix>3d</fix>
</trkpt>
<trkpt lat="40.071375" lon="-105.229789">
  <ele>1582.95</ele>
  <time>2026-08-28T17:52:06Z</time>
  <course>247.52</course>
  <speed>0.022360679774997897</speed>
  <fix>3d</fix>
</trkpt>
<trkpt lat="40.0713749" lon="-105.229789">
  <ele>1583.0</ele>
  <time>2026-08-28T17:52:06Z</time>
  <course>0.0</course>
  <speed>0.0</speed>
  <fix>3d</fix>
</trkpt>
<trkpt lat="40.071375" lon="-105.229789">
  <ele>1582.95</ele>
  <time>2026-08-28T17:52:06Z</time>
  <course>247.51</course>
  <speed>0.0316227766016838</speed>
  <fix>3d</fix>
</trkpt>
<trkpt lat="40.0713749" lon="-105.229789">
  <ele>1583.0</ele>
  <time>2026-08-28T17:52:06Z</time>
  <course>0.0</course>
  <speed>0.0</speed>
  <fix>3d</fix>
</trkpt>
<trkpt lat="40.071375" lon="-105.229789">
  <ele>1582.95</ele>
  <time>2026-08-28T17:52:06Z</time>
  <course>247.51</course>
  <speed>0.0316227766016838</speed>
  <fix>3d</fix>
</trkpt>
<trkpt lat="40.0713749" lon="-105.229789">
  <ele>1583.0</ele>
  <time>2026-08-28T17:52:06Z</time>
  <course>0.0</course>
  <speed>0.0</speed>
  <fix>3d</fix>
</trkpt>
<trkpt lat="40.071375" lon="-105.229789">
  <ele>1582.95</ele>
  <time>2026-08-28T17:52:06Z</time>
  <course>247.51</course>
  <speed>0.0316227766016838</speed>
  <fix>3d</fix>
</trkpt>
<trkpt lat="40.0713749" lon="-105.229789">
  <ele>1583.0</ele>
  <time>2026-08-28T17:52:06Z</time>
  <course>0.0</course>
  <speed>0.0</speed>
  <fix>3d</fix>
</trkpt>
<trkpt lat="40.071375" lon="-105.2297889">
  <ele>1582.95</ele>
  <time>2026-08-28T17:52:06Z</time>
  <course>247.51</course>
  <speed>0.0316227766016838</speed>
  <fix>3d</fix>
</trkpt>
<trkpt lat="40.0713749" lon="-105.229789">
  <ele>1583.0</ele>
  <time>2026-08-28T17:52:06Z</time>
  <course>0.0</course>
  <speed>0.0</speed>
  <fix>3d</fix>
</trkpt>
<trkpt lat="40.071375" lon="-105.2297889">
  <ele>1582.95</ele>
  <time>2026-08-28T17:52:06Z</time>
  <course>247.51</course>
  <speed>0.0316227766016838</speed>
  <fix>3d</fix>
</trkpt>
<trkpt lat="40.0713749" lon="-105.229789">
  <ele>1583.0</ele>
  <time>2026-08-28T17:52:06Z</time>
  <course>0.0</course>
  <speed>0.0</speed>
  <fix>3d</fix>
</trkpt>
<trkpt lat="40.071375" lon="-105.2297889">
  <ele>1582.95</ele>
  <time>2026-08-28T17:52:06Z</time>
  <course>247.5</course>
  <speed>0.0316227766016838</speed>
  <fix>3d</fix>
</trkpt>
<trkpt lat="40.0713749" lon="-105.229789">
  <ele>1583.0</ele>
  <time>2026-08-28T17:52:06Z</time>
  <course>0.0</course>
  <speed>0.0</speed>
  <fix>3d</fix>
</trkpt>
<trkpt lat="40.071375" lon="-105.2297889">
  <ele>1582.95</ele>
  <time>2026-08-28T17:52:06Z</time>
  <course>247.5</course>
  <speed>0.0316227766016838</speed>
  <fix>3d</fix>
</trkpt>
<trkpt lat="40.0713749" lon="-105.229789">
  <ele>1583.0</ele>
  <time>2026-08-28T17:52:06Z</time>
  <course>0.0</course>
  <speed>0.0</speed>
  <fix>3d</fix>
</trkpt>
<trkpt lat="40.071375" lon="-105.2297889">
  <ele>1582.95</ele>
  <time>2026-08-28T17:52:06Z</time>
  <course>247.5</course>
  <speed>0.0316227766016838</speed>
  <fix>3d</fix>
</trkpt>
<trkpt lat="40.0713749" lon="-105.229789">
  <ele>1583.0</ele>
  <time>2026-08-28T17:52:06Z</time>
  <course>0.0</course>
  <speed>0.0</speed>
  <fix>3d</fix>
</trkpt>
<trkpt lat="40.0713751" lon="-105.2297889">
  <ele>1582.95</ele>
  <time>2026-08-28T17:52:06Z</time>
  <course>247.5</course>
  <speed>0.0316227766016838</speed>
  <fix>3d</fix>
</trkpt>
<trkpt lat="40.0713749" lon="-105.229789">
  <ele>1583.0</ele>
  <time>2026-08-28T17:52:06Z</time>
  <course>0.0</course>
  <speed>0.0</speed>
  <fix>3d</fix>
</trkpt>
<trkpt lat="40.0713751" lon="-105.2297889">
  <ele>1582.96</ele>
  <time>2026-08-28T17:52:06Z</time>
  <course>247.49</course>
  <speed>0.0316227766016838</speed>
  <fix>3d</fix>
</trkpt>
<trkpt lat="40.0713749" lon="-105.229789">
  <ele>1583.0</ele>
  <time>2026-08-28T17:52:06Z</time>
  <course>0.0</course>
  <speed>0.0</speed>
  <fix>3d</fix>
</trkpt>
<trkpt lat="40.0713751" lon="-105.2297889">
  <ele>1582.96</ele>
  <time>2026-08-28T17:52:06Z</time>
  <course>247.49</course>
  <speed>0.0316227766016838</speed>
  <fix>3d</fix>
</trkpt>
<trkpt lat="40.0713749" lon="-105.229789">
  <ele>1583.0</ele>
  <time>2026-08-28T17:52:06Z</time>
  <course>0.0</course>
  <speed>0.0</speed>
  <fix>3d</fix>
</trkpt>
<trkpt lat="40.0713751" lon="-105.2297889">
  <ele>1582.97</ele>
  <time>2026-08-28T17:52:06Z</time>
  <course>247.49</course>
  <speed>0.0316227766016838</speed>
  <fix>3d</fix>
</trkpt>
<trkpt lat="40.0713749" lon="-105.229789">
  <ele>1583.0</ele>
  <time>2026-08-28T17:52:06Z</time>
  <course>0.0</course>
  <speed>0.0</speed>
  <fix>3d</fix>
</trkpt>
<trkpt lat="40.0713751" lon="-105.2297889">
  <ele>1582.98</ele>
  <time>2026-08-28T17:52:06Z</time>
  <course>247.49</course>
  <speed>0.0316227766016838</speed>
  <fix>3d</fix>
</trkpt>
<trkpt lat="40.0713749" lon="-105.229789">
  <ele>1583.0</ele>
  <time>2026-08-28T17:52:06Z</time>
  <course>0.0</course>
  <speed>0.0</speed>
  <fix>3d</fix>
</trkpt>
<trkpt lat="40.0713751" lon="-105.2297889">
  <ele>1582.98</ele>
  <time>2026-08-28T17:52:06Z</time>
  <course>247.49</course>
  <speed>0.0316227766016838</speed>
  <fix>3d</fix>
</trkpt>
<trkpt lat="40.0713749" lon="-105.229789">
  <ele>1583.0</ele>
  <time>2026-08-28T17:52:06Z</time>
  <course>0.0</course>
  <speed>0.0</speed>
  <fix>3d</fix>
</trkpt>
<trkpt lat="40.0713751" lon="-105.2297889">
  <ele>1582.99</ele>
  <time>2026-08-28T17:52:06Z</time>
  <course>247.48</course>
  <speed>0.0316227766016838</speed>
  <fix>3d</fix>
</trkpt>
<trkpt lat="40.0713749" lon="-105.229789">
  <ele>1583.0</ele>
  <time>2026-08-28T17:52:06Z</time>
  <course>0.0</course>
  <speed>0.0</speed>
  <fix>3d</fix>
</trkpt>
<trkpt lat="40.0713751" lon="-105.2297889">
  <ele>1583.0</ele>
  <time>2026-08-28T17:52:06Z</time>
  <course>247.48</course>
  <speed>0.022360679774997897</speed>
  <fix>3d</fix>
</trkpt>
<trkpt lat="40.0713749" lon="-105.229789">
  <ele>1583.0</ele>
  <time>2026-08-28T17:52:06Z</time>
  <course>0.0</course>
  <speed>0.0</speed>
  <fix>3d</fix>
</trkpt>
<trkpt lat="40.0713751" lon="-105.2297889">
  <ele>1583.01</ele>
  <time>2026-08-28T17:52:06Z</time>
  <course>247.48</course>
  <speed>0.022360679774997897</speed>
  <fix>3d</fix>
</trkpt>
<trkpt lat="40.0713749" lon="-105.229789">
  <ele>1583.0</ele>
  <time>2026-08-28T17:52:06Z</time>
  <course>0.0</course>
  <speed>0.0</speed>
  <fix>3d</fix>
</trkpt>
<trkpt lat="40.0713751" lon="-105.2297889">
  <ele>1583.01</ele>
  <time>2026-08-28T17:52:06Z</time>
  <course>247.48</course>
  <speed>0.022360679774997897</speed>
  <fix>3d</fix>
</trkpt>
<trkpt lat="40.0713749" lon="-105.229789">
  <ele>1583.0</ele>
  <time>2026-08-28T17:52:06Z</time>
  <course>0.0</course>
  <speed>0.0</speed>
  <fix>3d</fix>
</trkpt>
<trkpt lat="40.0713751" lon="-105.2297889">
  <ele>1583.01</ele>
  <time>2026-08-28T17:52:06Z</time>
  <course>247.47</course>
  <speed>0.022360679774997897</speed>
  <fix>3d</fix>
</trkpt>
<trkpt lat="40.0713749" lon="-105.229789">
  <ele>1583.0</ele>
  <time>2026-08-28T17:52:06Z</time>
  <course>0.0</course>
  <speed>0.0</speed>
  <fix>3d</fix>
</trkpt>
<trkpt lat="40.0713751" lon="-105.2297889">
  <ele>1583.01</ele>
  <time>2026-08-28T17:52:06Z</time>
  <course>247.47</course>
  <speed>0.022360679774997897</speed>
  <fix>3d</fix>
</trkpt>
<trkpt lat="40.0713749" lon="-105.229789">
  <ele>1583.0</ele>
  <time>2026-08-28T17:52:06Z</time>
  <course>0.0</course>
  <speed>0.0</speed>
  <fix>3d</fix>
</trkpt>
<trkpt lat="40.0713751" lon="-105.2297889">
  <ele>1583.01</ele>
  <time>2026-08-28T17:52:06Z</time>
  <course>247.47</course>
  <speed>0.022360679774997897</speed>
  <fix>3d</fix>
</trkpt>
<trkpt lat="40.0713749" lon="-105.229789">
  <ele>1583.0</ele>
  <time>2026-08-28T17:52:06Z</time>
  <course>0.0</course>
  <speed>0.0</speed>
  <fix>3d</fix>
</trkpt>
<trkpt lat="40.071375" lon="-105.2297889">
  <ele>1583.0</ele>
  <time>2026-08-28T17:52:06Z</time>
  <course>247.47</course>
  <speed>0.022360679774997897</speed>
  <fix>3d</fix>
</trkpt>
<trkpt lat="40.0713749" lon="-105.229789">
  <ele>1583.0</ele>
  <time>2026-08-28T17:52:06Z</time>
  <course>0.0</course>
  <speed>0.0</speed>
  <fix>3d</fix>
</trkpt>
<trkpt lat="40.0713751" lon="-105.2297889">
  <ele>1583.0</ele>
  <time>2026-08-28T17:52:06Z</time>
  <course>247.47</course>
  <speed>0.022360679774997897</speed>
  <fix>3d</fix>
</trkpt>
<trkpt lat="40.0713749" lon="-105.229789">
  <ele>1583.0</ele>
  <time>2026-08-28T17:52:06Z</time>
  <course>0.0</course>
  <speed>0.0</speed>
  <fix>3d</fix>
</trkpt>
<trkpt lat="40.071375" lon="-105.2297889">
  <ele>1583.0</ele>
  <time>2026-08-28T17:52:06Z</time>
  <course>247.46</course>
  <speed>0.022360679774997897</speed>
  <fix>3d</fix>
</trkpt>
<trkpt lat="40.0713749" lon="-105.229789">
  <ele>1583.0</ele>
  <time>2026-08-28T17:52:06Z</time>
  <course>0.0</course>
  <speed>0.0</speed>
  <fix>3d</fix>
</trkpt>
<trkpt lat="40.071375" lon="-105.2297889">
  <ele>1582.99</ele>
  <time>2026-08-28T17:52:06Z</time>
  <course>247.46</course>
  <speed>0.022360679774997897</speed>
  <fix>3d</fix>
</trkpt>
<trkpt lat="40.0713749" lon="-105.229789">
  <ele>1583.0</ele>
  <time>2026-08-28T17:52:06Z</time>
  <course>0.0</course>
  <speed>0.0</speed>
  <fix>3d</fix>
</trkpt>
<trkpt lat="40.071375" lon="-105.2297889">
  <ele>1582.99</ele>
  <time>2026-08-28T17:52:06Z</time>
  <course>247.46</course>
  <speed>0.022360679774997897</speed>
  <fix>3d</fix>
</trkpt>
<trkpt lat="40.0713749" lon="-105.229789">
  <ele>1583.0</ele>
  <time>2026-08-28T17:52:06Z</time>
  <course>0.0</course>
  <speed>0.0</speed>
  <fix>3d</fix>
</trkpt>
<trkpt lat="40.071375" lon="-105.2297889">
  <ele>1582.99</ele>
  <time>2026-08-28T17:52:06Z</time>
  <course>247.46</course>
  <speed>0.022360679774997897</speed>
  <fix>3d</fix>
</trkpt>
<trkpt lat="40.0713749" lon="-105.229789">
  <ele>1583.0</ele>
  <time>2026-08-28T17:52:06Z</time>
  <course>0.0</course>
  <speed>0.0</speed>
  <fix>3d</fix>
</trkpt>
<trkpt lat="40.071375" lon="-105.2297889">
  <ele>1582.99</ele>
  <time>2026-08-28T17:52:06Z</time>
  <course>247.45</course>
  <speed>0.022360679774997897</speed>
  <fix>3d</fix>
</trkpt>
<trkpt lat="40.0713749" lon="-105.229789">
  <ele>1583.0</ele>
  <time>2026-08-28T17:52:06Z</time>
  <course>0.0</course>
  <speed>0.0</speed>
  <fix>3d</fix>
</trkpt>
<trkpt lat="40.071375" lon="-105.2297889">
  <ele>1582.99</ele>
  <time>2026-08-28T17:52:06Z</time>
  <course>247.45</course>
  <speed>0.022360679774997897</speed>
  <fix>3d</fix>
</trkpt>
<trkpt lat="40.0713749" lon="-105.229789">
  <ele>1583.0</ele>
  <time>2026-08-28T17:52:06Z</time>
  <course>0.0</course>
  <speed>0.0</speed>
  <fix>3d</fix>
</trkpt>
<trkpt lat="40.071375" lon="-105.2297889">
  <ele>1582.99</ele>
  <time>2026-08-28T17:52:06Z</time>
  <course>247.45</course>
  <speed>0.022360679774997897</speed>
  <fix>3d</fix>
</trkpt>
<trkpt lat="40.0713749" lon="-105.229789">
  <ele>1583.0</ele>
  <time>2026-08-28T17:52:06Z</time>
  <course>0.0</course>
  <speed>0.0</speed>
  <fix>3d</fix>
</trkpt>
<trkpt lat="40.071375" lon="-105.2297889">
  <ele>1582.99</ele>
  <time>2026-08-28T17:52:06Z</time>
  <course>247.45</course>
  <speed>0.022360679774997897</speed>
  <fix>3d</fix>
</trkpt>
<trkpt lat="40.0713749" lon="-105.229789">
  <ele>1583.0</ele>
  <time>2026-08-28T17:52:06Z</time>
  <course>0.0</course>
  <speed>0.0</speed>
  <fix>3d</fix>
</trkpt>
<trkpt lat="40.071375" lon="-105.2297889">
  <ele>1583.0</ele>
  <time>2026-08-28T17:52:06Z</time>
  <course>247.45</course>
  <speed>0.022360679774997897</speed>
  <fix>3d</fix>
</trkpt>
<trkpt lat="40.0713749" lon="-105.229789">
  <ele>1583.0</ele>
  <time>2026-08-28T17:52:06Z</time>
  <course>0.0</course>
  <speed>0.0</speed>
  <fix>3d</fix>
</trkpt>
<trkpt lat="40.071375" lon="-105.2297889">
  <ele>1583.0</ele>
  <time>2026-08-28T17:52:06Z</time>
  <course>247.44</course>
  <speed>0.022360679774997897</speed>
  <fix>3d</fix>
</trkpt>
<trkpt lat="40.0713749" lon="-105.229789">
  <ele>1583.0</ele>
  <time>2026-08-28T17:52:06Z</time>
  <course>0.0</course>
  <speed>0.0</speed>
  <fix>3d</fix>
</trkpt>
<trkpt lat="40.071375" lon="-105.229789">
  <ele>1583.0</ele>
  <time>2026-08-28T17:52:06Z</time>
  <course>247.44</course>
  <speed>0.02</speed>
  <fix>3d</fix>
</trkpt>
<trkpt lat="40.0713749" lon="-105.229789">
  <ele>1583.0</ele>
  <time>2026-08-28T17:52:06Z</time>
  <course>0.0</course>
  <speed>0.0</speed>
  <fix>3d</fix>
</trkpt>
<trkpt lat="40.071375" lon="-105.229789">
  <ele>1583.0</ele>
  <time>2026-08-28T17:52:06Z</time>
  <course>247.44</course>
  <speed>0.02</speed>
  <fix>3d</fix>
</trkpt>
<trkpt lat="40.0713749" lon="-105.229789">
  <ele>1583.0</ele>
  <time>2026-08-28T17:52:06Z</time>
  <course>0.0</course>
  <speed>0.0</speed>
  <fix>3d</fix>
</trkpt>
<trkpt lat="40.071375" lon="-105.229789">
  <ele>1583.0</ele>
  <time>2026-08-28T17:52:06Z</time>
  <course>247.44</course>
  <speed>0.02</speed>
  <fix>3d</fix>
</trkpt>
<trkpt lat="40.0713749" lon="-105.229789">
  <ele>1583.0</ele>
  <time>2026-08-28T17:52:06Z</time>
  <course>0.0</course>
  <speed>0.0</speed>
  <fix>3d</fix>
</trkpt>
<trkpt lat="40.071375" lon="-105.229789">
  <ele>1583.01</ele>
  <time>2026-08-28T17:52:06Z</time>
  <course>247.43</course>
  <speed>0.02</speed>
  <fix>3d</fix>
</trkpt>
<trkpt lat="40.0713749" lon="-105.229789">
  <ele>1583.0</ele>
  <time>2026-08-28T17:52:06Z</time>
  <course>0.0</course>
  <speed>0.0</speed>
  <fix>3d</fix>
</trkpt>
<trkpt lat="40.071375" lon="-105.229789">
  <ele>1583.01</ele>
  <time>2026-08-28T17:52:06Z</time>
  <course>247.43</course>
  <speed>0.02</speed>
  <fix>3d</fix>
</trkpt>
<trkpt lat="40.0713749" lon="-105.229789">
  <ele>1583.0</ele>
  <time>2026-08-28T17:52:06Z</time>
  <course>0.0</course>
  <speed>0.0</speed>
  <fix>3d</fix>
</trkpt>
<trkpt lat="40.071375" lon="-105.229789">
  <ele>1583.01</ele>
  <time>2026-08-28T17:52:06Z</time>
  <course>247.43</course>
  <speed>0.02</speed>
  <fix>3d</fix>
</trkpt>
<trkpt lat="40.0713749" lon="-105.229789">
  <ele>1583.0</ele>
  <time>2026-08-28T17:52:06Z</time>
  <course>0.0</course>
  <speed>0.0</speed>
  <fix>3d</fix>
</trkpt>
<trkpt lat="40.071375" lon="-105.229789">
  <ele>1583.01</ele>
  <time>2026-08-28T17:52:06Z</time>
  <course>247.43</course>
  <speed>0.02</speed>
  <fix>3d</fix>
</trkpt>
<trkpt lat="40.0713749" lon="-105.229789">
  <ele>1583.0</ele>
  <time>2026-08-28T17:52:06Z</time>
  <course>0.0</course>
  <speed>0.0</speed>
  <fix>3d</fix>
</trkpt>
<trkpt lat="40.071375" lon="-105.229789">
  <ele>1583.01</ele>
  <time>2026-08-28T17:52:06Z</time>
  <course>247.43</course>
  <speed>0.02</speed>
  <fix>3d</fix>
</trkpt>
<trkpt lat="40.0713749" lon="-105.229789">
  <ele>1583.0</ele>
  <time>2026-08-28T17:52:06Z</time>
  <course>0.0</course>
  <speed>0.0</speed>
  <fix>3d</fix>
</trkpt>
<trkpt lat="40.071375" lon="-105.229789">
  <ele>1583.01</ele>
  <time>2026-08-28T17:52:06Z</time>
  <course>247.42</course>
  <speed>0.02</speed>
  <fix>3d</fix>
</trkpt>
<trkpt lat="40.0713749" lon="-105.229789">
  <ele>1583.0</ele>
  <time>2026-08-28T17:52:06Z</time>
  <course>0.0</course>
  <speed>0.0</speed>
  <fix>3d</fix>
</trkpt>
<trkpt lat="40.071375" lon="-105.229789">
  <ele>1583.01</ele>
  <time>2026-08-28T17:52:06Z</time>
  <course>247.42</course>
  <speed>0.02</speed>
  <fix>3d</fix>
</trkpt>
<trkpt lat="40.0713749" lon="-105.229789">
  <ele>1583.0</ele>
  <time>2026-08-28T17:52:06Z</time>
  <course>0.0</course>
  <speed>0.0</speed>
  <fix>3d</fix>
</trkpt>
<trkpt lat="40.071375" lon="-105.229789">
  <ele>1583.02</ele>
  <time>2026-08-28T17:52:06Z</time>
  <course>247.42</course>
  <speed>0.02</speed>
  <fix>3d</fix>
</trkpt>
<trkpt lat="40.0713749" lon="-105.229789">
  <ele>1583.0</ele>
  <time>2026-08-28T17:52:06Z</time>
  <course>0.0</course>
  <speed>0.0</speed>
  <fix>3d</fix>
</trkpt>
<trkpt lat="40.071375" lon="-105.229789">
  <ele>1583.01</ele>
  <time>2026-08-28T17:52:06Z</time>
  <course>247.42</course>
  <speed>0.02</speed>
  <fix>3d</fix>
</trkpt>
<trkpt lat="40.0713749" lon="-105.229789">
  <ele>1583.0</ele>
  <time>2026-08-28T17:52:06Z</time>
  <course>0.0</course>
  <speed>0.0</speed>
  <fix>3d</fix>
</trkpt>
<trkpt lat="40.071375" lon="-105.229789">
  <ele>1583.01</ele>
  <time>2026-08-28T17:52:06Z</time>
  <course>247.42</course>
  <speed>0.02</speed>
  <fix>3d</fix>
</trkpt>
<trkpt lat="40.0713749" lon="-105.229789">
  <ele>1583.0</ele>
  <time>2026-08-28T17:52:06Z</time>
  <course>0.0</course>
  <speed>0.0</speed>
  <fix>3d</fix>
</trkpt>
<trkpt lat="40.071375" lon="-105.229789">
  <ele>1583.01</ele>
  <time>2026-08-28T17:52:06Z</time>
  <course>247.41</course>
  <speed>0.02</speed>
  <fix>3d</fix>
</trkpt>
<trkpt lat="40.0713749" lon="-105.229789">
  <ele>1583.0</ele>
  <time>2026-08-28T17:52:06Z</time>
  <course>0.0</course>
  <speed>0.0</speed>
  <fix>3d</fix>
</trkpt>
<trkpt lat="40.071375" lon="-105.229789">
  <ele>1583.01</ele>
  <time>2026-08-28T17:52:06Z</time>
  <course>247.41</course>
  <speed>0.02</speed>
  <fix>3d</fix>
</trkpt>
<trkpt lat="40.0713749" lon="-105.229789">
  <ele>1583.0</ele>
  <time>2026-08-28T17:52:06Z</time>
  <course>0.0</course>
  <speed>0.0</speed>
  <fix>3d</fix>
</trkpt>
<trkpt lat="40.071375" lon="-105.229789">
  <ele>1583.01</ele>
  <time>2026-08-28T17:52:06Z</time>
  <course>247.41</course>
  <speed>0.02</speed>
  <fix>3d</fix>
</trkpt>
<trkpt lat="40.0713749" lon="-105.229789">
  <ele>1583.0</ele>
  <time>2026-08-28T17:52:06Z</time>
  <course>0.0</course>
  <speed>0.0</speed>
  <fix>3d</fix>
</trkpt>
<trkpt lat="40.071375" lon="-105.229789">
  <ele>1583.01</ele>
  <time>2026-08-28T17:52:06Z</time>
  <course>247.41</course>
  <speed>0.02</speed>
  <fix>3d</fix>
</trkpt>
<trkpt lat="40.0713749" lon="-105.229789">
  <ele>1583.0</ele>
  <time>2026-08-28T17:52:06Z</time>
  <course>0.0</course>
  <speed>0.0</speed>
  <fix>3d</fix>
</trkpt>
<trkpt lat="40.071375" lon="-105.229789">
  <ele>1583.02</ele>
  <time>2026-08-28T17:52:06Z</time>
  <course>247.41</course>
  <speed>0.02</speed>
  <fix>3d</fix>
</trkpt>
<trkpt lat="40.0713749" lon="-105.229789">
  <ele>1583.0</ele>
  <time>2026-08-28T17:52:06Z</time>
  <course>0.0</course>
  <speed>0.0</speed>
  <fix>3d</fix>
</trkpt>
<trkpt lat="40.071375" lon="-105.229789">
  <ele>1583.02</ele>
  <time>2026-08-28T17:52:06Z</time>
  <course>247.4</course>
  <speed>0.02</speed>
  <fix>3d</fix>
</trkpt>
<trkpt lat="40.0713749" lon="-105.229789">
  <ele>1583.0</ele>
  <time>2026-08-28T17:52:06Z</time>
  <course>0.0</course>
  <speed>0.0</speed>
  <fix>3d</fix>
</trkpt>
<trkpt lat="40.071375" lon="-105.229789">
  <ele>1583.02</ele>
  <time>2026-08-28T17:52:06Z</time>
  <course>247.4</course>
  <speed>0.02</speed>
  <fix>3d</fix>
</trkpt>
<trkpt lat="40.0713749" lon="-105.229789">
  <ele>1583.0</ele>
  <time>2026-08-28T17:52:06Z</time>
  <course>0.0</course>
  <speed>0.0</speed>
  <fix>3d</fix>
</trkpt>
<trkpt lat="40.071375" lon="-105.229789">
  <ele>1583.02</ele>
  <time>2026-08-28T17:52:06Z</time>
  <course>247.4</course>
  <speed>0.02</speed>
  <fix>3d</fix>
</trkpt>
<trkpt lat="40.0713749" lon="-105.229789">
  <ele>1583.0</ele>
  <time>2026-08-28T17:52:06Z</time>
  <course>0.0</course>
  <speed>0.0</speed>
  <fix>3d</fix>
</trkpt>
<trkpt lat="40.071375" lon="-105.229789">
  <ele>1583.02</ele>
  <time>2026-08-28T17:52:06Z</time>
  <course>247.4</course>
  <speed>0.02</speed>
  <fix>3d</fix>
</trkpt>
<trkpt lat="40.0713749" lon="-105.229789">
  <ele>1583.0</ele>
  <time>2026-08-28T17:52:06Z</time>
  <course>0.0</course>
  <speed>0.0</speed>
  <fix>3d</fix>
</trkpt>
<trkpt lat="40.071375" lon="-105.229789">
  <ele>1583.02</ele>
  <time>2026-08-28T17:52:06Z</time>
  <course>247.4</course>
  <speed>0.02</speed>
  <fix>3d</fix>
</trkpt>
<trkpt lat="40.0713749" lon="-105.229789">
  <ele>1583.0</ele>
  <time>2026-08-28T17:52:06Z</time>
  <course>0.0</course>
  <speed>0.0</speed>
  <fix>3d</fix>
</trkpt>
<trkpt lat="40.071375" lon="-105.229789">
  <ele>1583.02</ele>
  <time>2026-08-28T17:52:06Z</time>
  <course>247.39</course>
  <speed>0.02</speed>
  <fix>3d</fix>
</trkpt>
<trkpt lat="40.0713749" lon="-105.229789">
  <ele>1583.0</ele>
  <time>2026-08-28T17:52:06Z</time>
  <course>0.0</course>
  <speed>0.0</speed>
  <fix>3d</fix>
</trkpt>
<trkpt lat="40.071375" lon="-105.229789">
  <ele>1583.03</ele>
  <time>2026-08-28T17:52:06Z</time>
  <course>247.39</course>
  <speed>0.01</speed>
  <fix>3d</fix>
</trkpt>
<trkpt lat="40.0713749" lon="-105.229789">
  <ele>1583.0</ele>
  <time>2026-08-28T17:52:06Z</time>
  <course>0.0</course>
  <speed>0.0</speed>
  <fix>3d</fix>
</trkpt>
<trkpt lat="40.071375" lon="-105.229789">
  <ele>1583.03</ele>
  <time>2026-08-28T17:52:06Z</time>
  <course>247.39</course>
  <speed>0.02</speed>
  <fix>3d</fix>
</trkpt>
<trkpt lat="40.0713749" lon="-105.229789">
  <ele>1583.0</ele>
  <time>2026-08-28T17:52:06Z</time>
  <course>0.0</course>
  <speed>0.0</speed>
  <fix>3d</fix>
</trkpt>
<trkpt lat="40.071375" lon="-105.229789">
  <ele>1583.03</ele>
  <time>2026-08-28T17:52:06Z</time>
  <course>247.39</course>
  <speed>0.02</speed>
  <fix>3d</fix>
</trkpt>
<trkpt lat="40.0713749" lon="-105.229789">
  <ele>1583.0</ele>
  <time>2026-08-28T17:52:06Z</time>
  <course>0.0</course>
  <speed>0.0</speed>
  <fix>3d</fix>
</trkpt>
<trkpt lat="40.071375" lon="-105.229789">
  <ele>1583.03</ele>
  <time>2026-08-28T17:52:06Z</time>
  <course>247.39</course>
  <speed>0.02</speed>
  <fix>3d</fix>
</trkpt>
<trkpt lat="40.0713749" lon="-105.229789">
  <ele>1583.0</ele>
  <time>2026-08-28T17:52:06Z</time>
  <course>0.0</course>
  <speed>0.0</speed>
  <fix>3d</fix>
</trkpt>
<trkpt lat="40.071375" lon="-105.229789">
  <ele>1583.04</ele>
  <time>2026-08-28T17:52:06Z</time>
  <course>247.38</course>
  <speed>0.02</speed>
  <fix>3d</fix>
</trkpt>
<trkpt lat="40.0713749" lon="-105.229789">
  <ele>1583.0</ele>
  <time>2026-08-28T17:52:06Z</time>
  <course>0.0</course>
  <speed>0.0</speed>
  <fix>3d</fix>
</trkpt>
<trkpt lat="40.071375" lon="-105.229789">
  <ele>1583.04</ele>
  <time>2026-08-28T17:52:06Z</time>
  <course>247.38</course>
  <speed>0.02</speed>
  <fix>3d</fix>
</trkpt>
<trkpt lat="40.0713749" lon="-105.229789">
  <ele>1583.0</ele>
  <time>2026-08-28T17:52:06Z</time>
  <course>0.0</course>
  <speed>0.0</speed>
  <fix>3d</fix>
</trkpt>
<trkpt lat="40.071375" lon="-105.229789">
  <ele>1583.05</ele>
  <time>2026-08-28T17:52:06Z</time>
  <course>247.38</course>
  <speed>0.02</speed>
  <fix>3d</fix>
</trkpt>
<trkpt lat="40.0713749" lon="-105.229789">
  <ele>1583.0</ele>
  <time>2026-08-28T17:52:06Z</time>
  <course>0.0</course>
  <speed>0.0</speed>
  <fix>3d</fix>
</trkpt>
<trkpt lat="40.071375" lon="-105.229789">
  <ele>1583.05</ele>
  <time>2026-08-28T17:52:06Z</time>
  <course>247.38</course>
  <speed>0.02</speed>
  <fix>3d</fix>
</trkpt>
<trkpt lat="40.0713749" lon="-105.229789">
  <ele>1583.0</ele>
  <time>2026-08-28T17:52:06Z</time>
  <course>0.0</course>
  <speed>0.0</speed>
  <fix>3d</fix>
</trkpt>
<trkpt lat="40.071375" lon="-105.229789">
  <ele>1583.05</ele>
  <time>2026-08-28T17:52:06Z</time>
  <course>247.38</course>
  <speed>0.02</speed>
  <fix>3d</fix>
</trkpt>
<trkpt lat="40.0713749" lon="-105.229789">
  <ele>1583.0</ele>
  <time>2026-08-28T17:52:06Z</time>
  <course>0.0</course>
  <speed>0.0</speed>
  <fix>3d</fix>
</trkpt>
<trkpt lat="40.071375" lon="-105.229789">
  <ele>1583.05</ele>
  <time>2026-08-28T17:52:06Z</time>
  <course>247.38</course>
  <speed>0.02</speed>
  <fix>3d</fix>
</trkpt>
<trkpt lat="40.0713749" lon="-105.229789">
  <ele>1583.0</ele>
  <time>2026-08-28T17:52:06Z</time>
  <course>0.0</course>
  <speed>0.0</speed>
  <fix>3d</fix>
</trkpt>
<trkpt lat="40.071375" lon="-105.229789">
  <ele>1583.05</ele>
  <time>2026-08-28T17:52:06Z</time>
  <course>247.37</course>
  <speed>0.02</speed>
  <fix>3d</fix>
</trkpt>
<trkpt lat="40.0713749" lon="-105.229789">
  <ele>1583.0</ele>
  <time>2026-08-28T17:52:06Z</time>
  <course>0.0</course>
  <speed>0.0</speed>
  <fix>3d</fix>
</trkpt>
<trkpt lat="40.071375" lon="-105.229789">
  <ele>1583.06</ele>
  <time>2026-08-28T17:52:06Z</time>
  <course>247.37</course>
  <speed>0.02</speed>
  <fix>3d</fix>
</trkpt>
<trkpt lat="40.0713749" lon="-105.229789">
  <ele>1583.0</ele>
  <time>2026-08-28T17:52:06Z</time>
  <course>0.0</course>
  <speed>0.0</speed>
  <fix>3d</fix>
</trkpt>
<trkpt lat="40.071375" lon="-105.229789">
  <ele>1583.06</ele>
  <time>2026-08-28T17:52:06Z</time>
  <course>247.37</course>
  <speed>0.02</speed>
  <fix>3d</fix>
</trkpt>
<trkpt lat="40.0713749" lon="-105.229789">
  <ele>1583.0</ele>
  <time>2026-08-28T17:52:06Z</time>
  <course>0.0</course>
  <speed>0.0</speed>
  <fix>3d</fix>
</trkpt>
<trkpt lat="40.071375" lon="-105.229789">
  <ele>1583.06</ele>
  <time>2026-08-28T17:52:06Z</time>
  <course>247.37</course>
  <speed>0.02</speed>
  <fix>3d</fix>
</trkpt>
<trkpt lat="40.0713749" lon="-105.229789">
  <ele>1583.0</ele>
  <time>2026-08-28T17:52:06Z</time>
  <course>0.0</course>
  <speed>0.0</speed>
  <fix>3d</fix>
</trkpt>
<trkpt lat="40.071375" lon="-105.229789">
  <ele>1583.06</ele>
  <time>2026-08-28T17:52:06Z</time>
  <course>247.37</course>
  <speed>0.02</speed>
  <fix>3d</fix>
</trkpt>
<trkpt lat="40.0713749" lon="-105.229789">
  <ele>1583.0</ele>
  <time>2026-08-28T17:52:06Z</time>
  <course>0.0</course>
  <speed>0.0</speed>
  <fix>3d</fix>
</trkpt>
<trkpt lat="40.071375" lon="-105.229789">
  <ele>1583.06</ele>
  <time>2026-08-28T17:52:06Z</time>
  <course>247.37</course>
  <speed>0.02</speed>
  <fix>3d</fix>
</trkpt>
<trkpt lat="40.0713749" lon="-105.229789">
  <ele>1583.0</ele>
  <time>2026-08-28T17:52:06Z</time>
  <course>0.0</course>
  <speed>0.0</speed>
  <fix>3d</fix>
</trkpt>
<trkpt lat="40.071375" lon="-105.229789">
  <ele>1583.06</ele>
  <time>2026-08-28T17:52:06Z</time>
  <course>247.36</course>
  <speed>0.02</speed>
  <fix>3d</fix>
</trkpt>
<trkpt lat="40.0713749" lon="-105.229789">
  <ele>1583.0</ele>
  <time>2026-08-28T17:52:06Z</time>
  <course>0.0</course>
  <speed>0.0</speed>
  <fix>3d</fix>
</trkpt>
<trkpt lat="40.071375" lon="-105.229789">
  <ele>1583.06</ele>
  <time>2026-08-28T17:52:06Z</time>
  <course>247.36</course>
  <speed>0.02</speed>
  <fix>3d</fix>
</trkpt>
<trkpt lat="40.0713749" lon="-105.229789">
  <ele>1583.0</ele>
  <time>2026-08-28T17:52:06Z</time>
  <course>0.0</course>
  <speed>0.0</speed>
  <fix>3d</fix>
</trkpt>
<trkpt lat="40.071375" lon="-105.229789">
  <ele>1583.06</ele>
  <time>2026-08-28T17:52:06Z</time>
  <course>247.36</course>
  <speed>0.02</speed>
  <fix>3d</fix>
</trkpt>
<trkpt lat="40.0713749" lon="-105.229789">
  <ele>1583.0</ele>
  <time>2026-08-28T17:52:06Z</time>
  <course>0.0</course>
  <speed>0.0</speed>
  <fix>3d</fix>
</trkpt>
<trkpt lat="40.071375" lon="-105.229789">
  <ele>1583.06</ele>
  <time>2026-08-28T17:52:06Z</time>
  <course>247.36</course>
  <speed>0.02</speed>
  <fix>3d</fix>
</trkpt>
<trkpt lat="40.0713749" lon="-105.229789">
  <ele>1583.0</ele>
  <time>2026-08-28T17:52:06Z</time>
  <course>0.0</course>
  <speed>0.0</speed>
  <fix>3d</fix>
</trkpt>
<trkpt lat="40.071375" lon="-105.229789">
  <ele>1583.06</ele>
  <time>2026-08-28T17:52:06Z</time>
  <course>247.36</course>
  <speed>0.02</speed>
  <fix>3d</fix>
</trkpt>
<trkpt lat="40.0713749" lon="-105.229789">
  <ele>1583.0</ele>
  <time>2026-08-28T17:52:06Z</time>
  <course>0.0</course>
  <speed>0.0</speed>
  <fix>3d</fix>
</trkpt>
<trkpt lat="40.071375" lon="-105.229789">
  <ele>1583.05</ele>
  <time>2026-08-28T17:52:06Z</time>
  <course>247.35</course>
  <speed>0.02</speed>
  <fix>3d</fix>
</trkpt>
<trkpt lat="40.0713749" lon="-105.229789">
  <ele>1583.0</ele>
  <time>2026-08-28T17:52:06Z</time>
  <course>0.0</course>
  <speed>0.0</speed>
  <fix>3d</fix>
</trkpt>
<trkpt lat="40.071375" lon="-105.229789">
  <ele>1583.05</ele>
  <time>2026-08-28T17:52:06Z</time>
  <course>247.35</course>
  <speed>0.02</speed>
  <fix>3d</fix>
</trkpt>
<trkpt lat="40.0713749" lon="-105.229789">
  <ele>1583.0</ele>
  <time>2026-08-28T17:52:06Z</time>
  <course>0.0</course>
  <speed>0.0</speed>
  <fix>3d</fix>
</trkpt>
<trkpt lat="40.071375" lon="-105.229789">
  <ele>1583.04</ele>
  <time>2026-08-28T17:52:06Z</time>
  <course>247.35</course>
  <speed>0.02</speed>
  <fix>3d</fix>
</trkpt>
<trkpt lat="40.0713749" lon="-105.229789">
  <ele>1583.0</ele>
  <time>2026-08-28T17:52:06Z</time>
  <course>0.0</course>
  <speed>0.0</speed>
  <fix>3d</fix>
</trkpt>
<trkpt lat="40.071375" lon="-105.229789">
  <ele>1583.04</ele>
  <time>2026-08-28T17:52:06Z</time>
  <course>247.35</course>
  <speed>0.02</speed>
  <fix>3d</fix>
</trkpt>
<trkpt lat="40.0713749" lon="-105.229789">
  <ele>1583.0</ele>
  <time>2026-08-28T17:52:06Z</time>
  <course>0.0</course>
  <speed>0.0</speed>
  <fix>3d</fix>
</trkpt>
<trkpt lat="40.071375" lon="-105.229789">
  <ele>1583.04</ele>
  <time>2026-08-28T17:52:06Z</time>
  <course>247.35</course>
  <speed>0.02</speed>
  <fix>3d</fix>
</trkpt>
<trkpt lat="40.0713749" lon="-105.229789">
  <ele>1583.0</ele>
  <time>2026-08-28T17:52:06Z</time>
  <course>0.0</course>
  <speed>0.0</speed>
  <fix>3d</fix>
</trkpt>
<trkpt lat="40.071375" lon="-105.229789">
  <ele>1583.03</ele>
  <time>2026-08-28T17:52:06Z</time>
  <course>247.35</course>
  <speed>0.02</speed>
  <fix>3d</fix>
</trkpt>
<trkpt lat="40.0713749" lon="-105.229789">
  <ele>1583.0</ele>
  <time>2026-08-28T17:52:06Z</time>
  <course>0.0</course>
  <speed>0.0</speed>
  <fix>3d</fix>
</trkpt>
<trkpt lat="40.071375" lon="-105.229789">
  <ele>1583.03</ele>
  <time>2026-08-28T17:52:06Z</time>
  <course>247.34</course>
  <speed>0.02</speed>
  <fix>3d</fix>
</trkpt>
<trkpt lat="40.0713749" lon="-105.229789">
  <ele>1583.0</ele>
  <time>2026-08-28T17:52:06Z</time>
  <course>0.0</course>
  <speed>0.0</speed>
  <fix>3d</fix>
</trkpt>
<trkpt lat="40.071375" lon="-105.229789">
  <ele>1583.02</ele>
  <time>2026-08-28T17:52:06Z</time>
  <course>247.34</course>
  <speed>0.02</speed>
  <fix>3d</fix>
</trkpt>
<trkpt lat="40.0713749" lon="-105.229789">
  <ele>1583.0</ele>
  <time>2026-08-28T17:52:06Z</time>
  <course>0.0</course>
  <speed>0.0</speed>
  <fix>3d</fix>
</trkpt>
<trkpt lat="40.071375" lon="-105.229789">
  <ele>1583.02</ele>
  <time>2026-08-28T17:52:06Z</time>
  <course>247.34</course>
  <speed>0.02</speed>
  <fix>3d</fix>
</trkpt>
<trkpt lat="40.0713749" lon="-105.229789">
  <ele>1583.0</ele>
  <time>2026-08-28T17:52:06Z</time>
  <course>0.0</course>
  <speed>0.0</speed>
  <fix>3d</fix>
</trkpt>
<trkpt lat="40.071375" lon="-105.229789">
  <ele>1583.02</ele>
  <time>2026-08-28T17:52:06Z</time>
  <course>247.34</course>
  <speed>0.02</speed>
  <fix>3d</fix>
</trkpt>
<trkpt lat="40.0713749" lon="-105.229789">
  <ele>1583.0</ele>
  <time>2026-08-28T17:52:06Z</time>
  <course>0.0</course>
  <speed>0.0</speed>
  <fix>3d</fix>
</trkpt>
<trkpt lat="40.071375" lon="-105.229789">
  <ele>1583.02</ele>
  <time>2026-08-28T17:52:06Z</time>
  <course>247.34</course>
  <speed>0.02</speed>
  <fix>3d</fix>
</trkpt>
<trkpt lat="40.0713749" lon="-105.229789">
  <ele>1583.0</ele>
  <time>2026-08-28T17:52:06Z</time>
  <course>0.0</course>
  <speed>0.0</speed>
  <fix>3d</fix>
</trkpt>
<trkpt lat="40.071375" lon="-105.229789">
  <ele>1583.01</ele>
  <time>2026-08-28T17:52:06Z</time>
  <course>247.34</course>
  <speed>0.02</speed>
  <fix>3d</fix>
</trkpt>
<trkpt lat="40.0713749" lon="-105.229789">
  <ele>1583.0</ele>
  <time>2026-08-28T17:52:06Z</time>
  <course>0.0</course>
  <speed>0.0</speed>
  <fix>3d</fix>
</trkpt>
<trkpt lat="40.071375" lon="-105.229789">
  <ele>1583.01</ele>
  <time>2026-08-28T17:52:06Z</time>
  <course>247.33</course>
  <speed>0.02</speed>
  <fix>3d</fix>
</trkpt>
<trkpt lat="40.0713749" lon="-105.229789">
  <ele>1583.0</ele>
  <time>2026-08-28T17:52:06Z</time>
  <course>0.0</course>
  <speed>0.0</speed>
  <fix>3d</fix>
</trkpt>
<trkpt lat="40.071375" lon="-105.229789">
  <ele>1583.01</ele>
  <time>2026-08-28T17:52:06Z</time>
  <course>247.33</course>
  <speed>0.02</speed>
  <fix>3d</fix>
</trkpt>
<trkpt lat="40.0713749" lon="-105.229789">
  <ele>1583.0</ele>
  <time>2026-08-28T17:52:06Z</time>
  <course>0.0</course>
  <speed>0.0</speed>
  <fix>3d</fix>
</trkpt>
<trkpt lat="40.071375" lon="-105.229789">
  <ele>1583.01</ele>
  <time>2026-08-28T17:52:06Z</time>
  <course>247.33</course>
  <speed>0.02</speed>
  <fix>3d</fix>
</trkpt>
<trkpt lat="40.0713749" lon="-105.229789">
  <ele>1583.0</ele>
  <time>2026-08-28T17:52:06Z</time>
  <course>0.0</course>
  <speed>0.0</speed>
  <fix>3d</fix>
</trkpt>
<trkpt lat="40.071375" lon="-105.229789">
  <ele>1583.01</ele>
  <time>2026-08-28T17:52:06Z</time>
  <course>247.33</course>
  <speed>0.02</speed>
  <fix>3d</fix>
</trkpt>
<trkpt lat="40.0713749" lon="-105.229789">
  <ele>1583.0</ele>
  <time>2026-08-28T17:52:06Z</time>
  <course>0.0</course>
  <speed>0.0</speed>
  <fix>3d</fix>
</trkpt>
<trkpt lat="40.071375" lon="-105.229789">
  <ele>1583.01</ele>
  <time>2026-08-28T17:52:06Z</time>
  <course>247.33</course>
  <speed>0.02</speed>
  <fix>3d</fix>
</trkpt>
<trkpt lat="40.0713749" lon="-105.229789">
  <ele>1583.0</ele>
  <time>2026-08-28T17:52:06Z</time>
  <course>0.0</course>
  <speed>0.0</speed>
  <fix>3d</fix>
</trkpt>
<trkpt lat="40.071375" lon="-105.229789">
  <ele>1583.01</ele>
  <time>2026-08-28T17:52:06Z</time>
  <course>247.33</course>
  <speed>0.02</speed>
  <fix>3d</fix>
</trkpt>
<trkpt lat="40.0713749" lon="-105.229789">
  <ele>1583.0</ele>
  <time>2026-08-28T17:52:06Z</time>
  <course>0.0</course>
  <speed>0.0</speed>
  <fix>3d</fix>
</trkpt>
<trkpt lat="40.071375" lon="-105.229789">
  <ele>1583.01</ele>
  <time>2026-08-28T17:52:06Z</time>
  <course>247.33</course>
  <speed>0.02</speed>
  <fix>3d</fix>
</trkpt>
<trkpt lat="40.0713749" lon="-105.229789">
  <ele>1583.0</ele>
  <time>2026-08-28T17:52:06Z</time>
  <course>0.0</course>
  <speed>0.0</speed>
  <fix>3d</fix>
</trkpt>
<trkpt lat="40.071375" lon="-105.229789">
  <ele>1583.01</ele>
  <time>2026-08-28T17:52:06Z</time>
  <course>247.32</course>
  <speed>0.02</speed>
  <fix>3d</fix>
</trkpt>
<trkpt lat="40.0713749" lon="-105.229789">
  <ele>1583.0</ele>
  <time>2026-08-28T17:52:06Z</time>
  <course>0.0</course>
  <speed>0.0</speed>
  <fix>3d</fix>
</trkpt>
<trkpt lat="40.071375" lon="-105.229789">
  <ele>1583.0</ele>
  <time>2026-08-28T17:52:06Z</time>
  <course>247.32</course>
  <speed>0.02</speed>
  <fix>3d</fix>
</trkpt>
<trkpt lat="40.0713749" lon="-105.229789">
  <ele>1583.0</ele>
  <time>2026-08-28T17:52:06Z</time>
  <course>0.0</course>
  <speed>0.0</speed>
  <fix>3d</fix>
</trkpt>
<trkpt lat="40.071375" lon="-105.229789">
  <ele>1583.0</ele>
  <time>2026-08-28T17:52:06Z</time>
  <course>247.32</course>
  <speed>0.02</speed>
  <fix>3d</fix>
</trkpt>
<trkpt lat="40.0713749" lon="-105.229789">
  <ele>1583.0</ele>
  <time>2026-08-28T17:52:06Z</time>
  <course>0.0</course>
  <speed>0.0</speed>
  <fix>3d</fix>
</trkpt>
<trkpt lat="40.071375" lon="-105.229789">
  <ele>1583.0</ele>
  <time>2026-08-28T17:52:06Z</time>
  <course>247.32</course>
  <speed>0.02</speed>
  <fix>3d</fix>
</trkpt>
<trkpt lat="40.0713749" lon="-105.229789">
  <ele>1583.0</ele>
  <time>2026-08-28T17:52:06Z</time>
  <course>0.0</course>
  <speed>0.0</speed>
  <fix>3d</fix>
</trkpt>
<trkpt lat="40.071375" lon="-105.229789">
  <ele>1582.99</ele>
  <time>2026-08-28T17:52:06Z</time>
  <course>247.32</course>
  <speed>0.02</speed>
  <fix>3d</fix>
</trkpt>
<trkpt lat="40.0713749" lon="-105.229789">
  <ele>1583.0</ele>
  <time>2026-08-28T17:52:06Z</time>
  <course>0.0</course>
  <speed>0.0</speed>
  <fix>3d</fix>
</trkpt>
<trkpt lat="40.071375" lon="-105.229789">
  <ele>1582.99</ele>
  <time>2026-08-28T17:52:06Z</time>
  <course>247.32</course>
  <speed>0.02</speed>
  <fix>3d</fix>
</trkpt>
<trkpt lat="40.0713749" lon="-105.229789">
  <ele>1583.0</ele>
  <time>2026-08-28T17:52:06Z</time>
  <course>0.0</course>
  <speed>0.0</speed>
  <fix>3d</fix>
</trkpt>
<trkpt lat="40.071375" lon="-105.229789">
  <ele>1582.98</ele>
  <time>2026-08-28T17:52:06Z</time>
  <course>247.31</course>
  <speed>0.02</speed>
  <fix>3d</fix>
</trkpt>
<trkpt lat="40.0713749" lon="-105.229789">
  <ele>1583.0</ele>
  <time>2026-08-28T17:52:06Z</time>
  <course>0.0</course>
  <speed>0.0</speed>
  <fix>3d</fix>
</trkpt>
<trkpt lat="40.071375" lon="-105.229789">
  <ele>1582.97</ele>
  <time>2026-08-28T17:52:06Z</time>
  <course>247.31</course>
  <speed>0.02</speed>
  <fix>3d</fix>
</trkpt>
<trkpt lat="40.0713749" lon="-105.229789">
  <ele>1583.0</ele>
  <time>2026-08-28T17:52:06Z</time>
  <course>0.0</course>
  <speed>0.0</speed>
  <fix>3d</fix>
</trkpt>
<trkpt lat="40.071375" lon="-105.229789">
  <ele>1582.97</ele>
  <time>2026-08-28T17:52:06Z</time>
  <course>247.31</course>
  <speed>0.02</speed>
  <fix>3d</fix>
</trkpt>
<trkpt lat="40.0713749" lon="-105.229789">
  <ele>1583.0</ele>
  <time>2026-08-28T17:52:06Z</time>
  <course>0.0</course>
  <speed>0.0</speed>
  <fix>3d</fix>
</trkpt>
<trkpt lat="40.071375" lon="-105.229789">
  <ele>1582.96</ele>
  <time>2026-08-28T17:52:06Z</time>
  <course>247.31</course>
  <speed>0.02</speed>
  <fix>3d</fix>
</trkpt>
<trkpt lat="40.0713749" lon="-105.229789">
  <ele>1583.0</ele>
  <time>2026-08-28T17:52:06Z</time>
  <course>0.0</course>
  <speed>0.0</speed>
  <fix>3d</fix>
</trkpt>
<trkpt lat="40.071375" lon="-105.229789">
  <ele>1582.96</ele>
  <time>2026-08-28T17:52:06Z</time>
  <course>247.31</course>
  <speed>0.02</speed>
  <fix>3d</fix>
</trkpt>
<trkpt lat="40.0713749" lon="-105.229789">
  <ele>1583.0</ele>
  <time>2026-08-28T17:52:06Z</time>
  <course>0.0</course>
  <speed>0.0</speed>
  <fix>3d</fix>
</trkpt>
<trkpt lat="40.071375" lon="-105.229789">
  <ele>1582.95</ele>
  <time>2026-08-28T17:52:06Z</time>
  <course>247.31</course>
  <speed>0.02</speed>
  <fix>3d</fix>
</trkpt>
<trkpt lat="40.0713749" lon="-105.229789">
  <ele>1583.0</ele>
  <time>2026-08-28T17:52:06Z</time>
  <course>0.0</course>
  <speed>0.0</speed>
  <fix>3d</fix>
</trkpt>
<trkpt lat="40.071375" lon="-105.229789">
  <ele>1582.95</ele>
  <time>2026-08-28T17:52:06Z</time>
  <course>247.3</course>
  <speed>0.02</speed>
  <fix>3d</fix>
</trkpt>
<trkpt lat="40.0713749" lon="-105.229789">
  <ele>1583.0</ele>
  <time>2026-08-28T17:52:06Z</time>
  <course>0.0</course>
  <speed>0.0</speed>
  <fix>3d</fix>
</trkpt>
<trkpt lat="40.071375" lon="-105.229789">
  <ele>1582.94</ele>
  <time>2026-08-28T17:52:06Z</time>
  <course>247.3</course>
  <speed>0.02</speed>
  <fix>3d</fix>
</trkpt>
<trkpt lat="40.0713749" lon="-105.229789">
  <ele>1583.0</ele>
  <time>2026-08-28T17:52:06Z</time>
  <course>0.0</course>
  <speed>0.0</speed>
  <fix>3d</fix>
</trkpt>
<trkpt lat="40.071375" lon="-105.229789">
  <ele>1582.93</ele>
  <time>2026-08-28T17:52:06Z</time>
  <course>247.3</course>
  <speed>0.02</speed>
  <fix>3d</fix>
</trkpt>
<trkpt lat="40.0713749" lon="-105.229789">
  <ele>1583.0</ele>
  <time>2026-08-28T17:52:06Z</time>
  <course>0.0</course>
  <speed>0.0</speed>
  <fix>3d</fix>
</trkpt>
<trkpt lat="40.071375" lon="-105.229789">
  <ele>1582.93</ele>
  <time>2026-08-28T17:52:06Z</time>
  <course>247.3</course>
  <speed>0.02</speed>
  <fix>3d</fix>
</trkpt>
<trkpt lat="40.0713749" lon="-105.229789">
  <ele>1583.0</ele>
  <time>2026-08-28T17:52:06Z</time>
  <course>0.0</course>
  <speed>0.0</speed>
  <fix>3d</fix>
</trkpt>
<trkpt lat="40.071375" lon="-105.229789">
  <ele>1582.92</ele>
  <time>2026-08-28T17:52:06Z</time>
  <course>247.3</course>
  <speed>0.02</speed>
  <fix>3d</fix>
</trkpt>
<trkpt lat="40.0713749" lon="-105.229789">
  <ele>1583.0</ele>
  <time>2026-08-28T17:52:06Z</time>
  <course>0.0</course>
  <speed>0.0</speed>
  <fix>3d</fix>
</trkpt>
<trkpt lat="40.071375" lon="-105.229789">
  <ele>1582.92</ele>
  <time>2026-08-28T17:52:06Z</time>
  <course>247.3</course>
  <speed>0.02</speed>
  <fix>3d</fix>
</trkpt>
<trkpt lat="40.0713749" lon="-105.229789">
  <ele>1583.0</ele>
  <time>2026-08-28T17:52:06Z</time>
  <course>0.0</course>
  <speed>0.0</speed>
  <fix>3d</fix>
</trkpt>
<trkpt lat="40.071375" lon="-105.229789">
  <ele>1582.91</ele>
  <time>2026-08-28T17:52:06Z</time>
  <course>247.3</course>
  <speed>0.02</speed>
  <fix>3d</fix>
</trkpt>
<trkpt lat="40.0713749" lon="-105.229789">
  <ele>1583.0</ele>
  <time>2026-08-28T17:52:06Z</time>
  <course>0.0</course>
  <speed>0.0</speed>
  <fix>3d</fix>
</trkpt>
<trkpt lat="40.071375" lon="-105.229789">
  <ele>1582.91</ele>
  <time>2026-08-28T17:52:06Z</time>
  <course>247.3</course>
  <speed>0.02</speed>
  <fix>3d</fix>
</trkpt>
<trkpt lat="40.0713749" lon="-105.229789">
  <ele>1583.0</ele>
  <time>2026-08-28T17:52:06Z</time>
  <course>0.0</course>
  <speed>0.0</speed>
  <fix>3d</fix>
</trkpt>
<trkpt lat="40.071375" lon="-105.229789">
  <ele>1582.91</ele>
  <time>2026-08-28T17:52:06Z</time>
  <course>247.29</course>
  <speed>0.02</speed>
  <fix>3d</fix>
</trkpt>
<trkpt lat="40.0713749" lon="-105.229789">
  <ele>1583.0</ele>
  <time>2026-08-28T17:52:06Z</time>
  <course>0.0</course>
  <speed>0.0</speed>
  <fix>3d</fix>
</trkpt>
<trkpt lat="40.071375" lon="-105.229789">
  <ele>1582.91</ele>
  <time>2026-08-28T17:52:06Z</time>
  <course>247.29</course>
  <speed>0.02</speed>
  <fix>3d</fix>
</trkpt>
<trkpt lat="40.0713749" lon="-105.229789">
  <ele>1583.0</ele>
  <time>2026-08-28T17:52:06Z</time>
  <course>0.0</course>
  <speed>0.0</speed>
  <fix>3d</fix>
</trkpt>
<trkpt lat="40.071375" lon="-105.229789">
  <ele>1582.91</ele>
  <time>2026-08-28T17:52:06Z</time>
  <course>247.29</course>
  <speed>0.02</speed>
  <fix>3d</fix>
</trkpt>
<trkpt lat="40.0713749" lon="-105.229789">
  <ele>1583.0</ele>
  <time>2026-08-28T17:52:06Z</time>
  <course>0.0</course>
  <speed>0.0</speed>
  <fix>3d</fix>
</trkpt>
<trkpt lat="40.071375" lon="-105.229789">
  <ele>1582.91</ele>
  <time>2026-08-28T17:52:06Z</time>
  <course>247.29</course>
  <speed>0.02</speed>
  <fix>3d</fix>
</trkpt>
<trkpt lat="40.0713749" lon="-105.229789">
  <ele>1583.0</ele>
  <time>2026-08-28T17:52:06Z</time>
  <course>0.0</course>
  <speed>0.0</speed>
  <fix>3d</fix>
</trkpt>
<trkpt lat="40.071375" lon="-105.229789">
  <ele>1582.9</ele>
  <time>2026-08-28T17:52:06Z</time>
  <course>247.29</course>
  <speed>0.02</speed>
  <fix>3d</fix>
</trkpt>
<trkpt lat="40.0713749" lon="-105.229789">
  <ele>1583.0</ele>
  <time>2026-08-28T17:52:06Z</time>
  <course>0.0</course>
  <speed>0.0</speed>
  <fix>3d</fix>
</trkpt>
<trkpt lat="40.071375" lon="-105.229789">
  <ele>1582.9</ele>
  <time>2026-08-28T17:52:06Z</time>
  <course>247.29</course>
  <speed>0.02</speed>
  <fix>3d</fix>
</trkpt>
<trkpt lat="40.0713749" lon="-105.229789">
  <ele>1583.0</ele>
  <time>2026-08-28T17:52:06Z</time>
  <course>0.0</course>
  <speed>0.0</speed>
  <fix>3d</fix>
</trkpt>
<trkpt lat="40.071375" lon="-105.229789">
  <ele>1582.9</ele>
  <time>2026-08-28T17:52:06Z</time>
  <course>247.29</course>
  <speed>0.02</speed>
  <fix>3d</fix>
</trkpt>
<trkpt lat="40.0713749" lon="-105.229789">
  <ele>1583.0</ele>
  <time>2026-08-28T17:52:06Z</time>
  <course>0.0</course>
  <speed>0.0</speed>
  <fix>3d</fix>
</trkpt>
<trkpt lat="40.071375" lon="-105.229789">
  <ele>1582.9</ele>
  <time>2026-08-28T17:52:06Z</time>
  <course>247.28</course>
  <speed>0.02</speed>
  <fix>3d</fix>
</trkpt>
<trkpt lat="40.0713749" lon="-105.229789">
  <ele>1583.0</ele>
  <time>2026-08-28T17:52:06Z</time>
  <course>0.0</course>
  <speed>0.0</speed>
  <fix>3d</fix>
</trkpt>
<trkpt lat="40.071375" lon="-105.229789">
  <ele>1582.89</ele>
  <time>2026-08-28T17:52:06Z</time>
  <course>247.28</course>
  <speed>0.02</speed>
  <fix>3d</fix>
</trkpt>
<trkpt lat="40.0713749" lon="-105.229789">
  <ele>1583.0</ele>
  <time>2026-08-28T17:52:06Z</time>
  <course>0.0</course>
  <speed>0.0</speed>
  <fix>3d</fix>
</trkpt>
<trkpt lat="40.071375" lon="-105.2297889">
  <ele>1582.9</ele>
  <time>2026-08-28T17:52:06Z</time>
  <course>247.28</course>
  <speed>0.02</speed>
  <fix>3d</fix>
</trkpt>
<trkpt lat="40.0713749" lon="-105.229789">
  <ele>1583.0</ele>
  <time>2026-08-28T17:52:06Z</time>
  <course>0.0</course>
  <speed>0.0</speed>
  <fix>3d</fix>
</trkpt>
<trkpt lat="40.071375" lon="-105.229789">
  <ele>1582.9</ele>
  <time>2026-08-28T17:52:06Z</time>
  <course>247.28</course>
  <speed>0.02</speed>
  <fix>3d</fix>
</trkpt>
<trkpt lat="40.0713749" lon="-105.229789">
  <ele>1583.0</ele>
  <time>2026-08-28T17:52:06Z</time>
  <course>0.0</course>
  <speed>0.0</speed>
  <fix>3d</fix>
</trkpt>
<trkpt lat="40.071375" lon="-105.2297889">
  <ele>1582.9</ele>
  <time>2026-08-28T17:52:06Z</time>
  <course>247.28</course>
  <speed>0.02</speed>
  <fix>3d</fix>
</trkpt>
<trkpt lat="40.0713749" lon="-105.229789">
  <ele>1583.0</ele>
  <time>2026-08-28T17:52:06Z</time>
  <course>0.0</course>
  <speed>0.0</speed>
  <fix>3d</fix>
</trkpt>
<trkpt lat="40.071375" lon="-105.229789">
  <ele>1582.91</ele>
  <time>2026-08-28T17:52:06Z</time>
  <course>247.28</course>
  <speed>0.02</speed>
  <fix>3d</fix>
</trkpt>
<trkpt lat="40.0713749" lon="-105.229789">
  <ele>1583.0</ele>
  <time>2026-08-28T17:52:06Z</time>
  <course>0.0</course>
  <speed>0.0</speed>
  <fix>3d</fix>
</trkpt>
<trkpt lat="40.071375" lon="-105.2297889">
  <ele>1582.92</ele>
  <time>2026-08-28T17:52:06Z</time>
  <course>247.28</course>
  <speed>0.02</speed>
  <fix>3d</fix>
</trkpt>
<trkpt lat="40.0713749" lon="-105.229789">
  <ele>1583.0</ele>
  <time>2026-08-28T17:52:06Z</time>
  <course>0.0</course>
  <speed>0.0</speed>
  <fix>3d</fix>
</trkpt>
<trkpt lat="40.071375" lon="-105.2297889">
  <ele>1582.93</ele>
  <time>2026-08-28T17:52:06Z</time>
  <course>247.27</course>
  <speed>0.02</speed>
  <fix>3d</fix>
</trkpt>
<trkpt lat="40.0713749" lon="-105.229789">
  <ele>1583.0</ele>
  <time>2026-08-28T17:52:06Z</time>
  <course>0.0</course>
  <speed>0.0</speed>
  <fix>3d</fix>
</trkpt>
<trkpt lat="40.071375" lon="-105.2297889">
  <ele>1582.93</ele>
  <time>2026-08-28T17:52:06Z</time>
  <course>247.27</course>
  <speed>0.02</speed>
  <fix>3d</fix>
</trkpt>
<trkpt lat="40.0713749" lon="-105.229789">
  <ele>1583.0</ele>
  <time>2026-08-28T17:52:06Z</time>
  <course>0.0</course>
  <speed>0.0</speed>
  <fix>3d</fix>
</trkpt>
<trkpt lat="40.071375" lon="-105.2297889">
  <ele>1582.94</ele>
  <time>2026-08-28T17:52:06Z</time>
  <course>247.27</course>
  <speed>0.02</speed>
  <fix>3d</fix>
</trkpt>
<trkpt lat="40.0713749" lon="-105.229789">
  <ele>1583.0</ele>
  <time>2026-08-28T17:52:06Z</time>
  <course>0.0</course>
  <speed>0.0</speed>
  <fix>3d</fix>
</trkpt>
<trkpt lat="40.071375" lon="-105.2297889">
  <ele>1582.95</ele>
  <time>2026-08-28T17:52:06Z</time>
  <course>247.27</course>
  <speed>0.02</speed>
  <fix>3d</fix>
</trkpt>
<trkpt lat="40.0713749" lon="-105.229789">
  <ele>1583.0</ele>
  <time>2026-08-28T17:52:06Z</time>
  <course>0.0</course>
  <speed>0.0</speed>
  <fix>3d</fix>
</trkpt>
<trkpt lat="40.071375" lon="-105.2297889">
  <ele>1582.95</ele>
  <time>2026-08-28T17:52:06Z</time>
  <course>247.27</course>
  <speed>0.02</speed>
  <fix>3d</fix>
</trkpt>
<trkpt lat="40.0713749" lon="-105.229789">
  <ele>1583.0</ele>
  <time>2026-08-28T17:52:06Z</time>
  <course>0.0</course>
  <speed>0.0</speed>
  <fix>3d</fix>
</trkpt>
<trkpt lat="40.071375" lon="-105.2297889">
  <ele>1582.96</ele>
  <time>2026-08-28T17:52:06Z</time>
  <course>247.27</course>
  <speed>0.02</speed>
  <fix>3d</fix>
</trkpt>
<trkpt lat="40.0713749" lon="-105.229789">
  <ele>1583.0</ele>
  <time>2026-08-28T17:52:06Z</time>
  <course>0.0</course>
  <speed>0.0</speed>
  <fix>3d</fix>
</trkpt>
<trkpt lat="40.071375" lon="-105.229789">
  <ele>1582.97</ele>
  <time>2026-08-28T17:52:06Z</time>
  <course>247.27</course>
  <speed>0.02</speed>
  <fix>3d</fix>
</trkpt>
<trkpt lat="40.0713749" lon="-105.229789">
  <ele>1583.0</ele>
  <time>2026-08-28T17:52:06Z</time>
  <course>0.0</course>
  <speed>0.0</speed>
  <fix>3d</fix>
</trkpt>
<trkpt lat="40.071375" lon="-105.2297889">
  <ele>1582.97</ele>
  <time>2026-08-28T17:52:06Z</time>
  <course>247.27</course>
  <speed>0.02</speed>
  <fix>3d</fix>
</trkpt>
<trkpt lat="40.0713749" lon="-105.229789">
  <ele>1583.0</ele>
  <time>2026-08-28T17:52:06Z</time>
  <course>0.0</course>
  <speed>0.0</speed>
  <fix>3d</fix>
</trkpt>
<trkpt lat="40.071375" lon="-105.229789">
  <ele>1582.97</ele>
  <time>2026-08-28T17:52:06Z</time>
  <course>247.26</course>
  <speed>0.02</speed>
  <fix>3d</fix>
</trkpt>
<trkpt lat="40.0713749" lon="-105.229789">
  <ele>1583.0</ele>
  <time>2026-08-28T17:52:06Z</time>
  <course>0.0</course>
  <speed>0.0</speed>
  <fix>3d</fix>
</trkpt>
<trkpt lat="40.071375" lon="-105.2297889">
  <ele>1582.97</ele>
  <time>2026-08-28T17:52:06Z</time>
  <course>247.26</course>
  <speed>0.02</speed>
  <fix>3d</fix>
</trkpt>
<trkpt lat="40.0713749" lon="-105.229789">
  <ele>1583.0</ele>
  <time>2026-08-28T17:52:06Z</time>
  <course>0.0</course>
  <speed>0.0</speed>
  <fix>3d</fix>
</trkpt>
<trkpt lat="40.071375" lon="-105.229789">
  <ele>1582.98</ele>
  <time>2026-08-28T17:52:06Z</time>
  <course>247.26</course>
  <speed>0.02</speed>
  <fix>3d</fix>
</trkpt>
<trkpt lat="40.0713749" lon="-105.229789">
  <ele>1583.0</ele>
  <time>2026-08-28T17:52:06Z</time>
  <course>0.0</course>
  <speed>0.0</speed>
  <fix>3d</fix>
</trkpt>
<trkpt lat="40.071375" lon="-105.2297889">
  <ele>1582.98</ele>
  <time>2026-08-28T17:52:06Z</time>
  <course>247.26</course>
  <speed>0.02</speed>
  <fix>3d</fix>
</trkpt>
<trkpt lat="40.0713749" lon="-105.229789">
  <ele>1583.0</ele>
  <time>2026-08-28T17:52:06Z</time>
  <course>0.0</course>
  <speed>0.0</speed>
  <fix>3d</fix>
</trkpt>
<trkpt lat="40.071375" lon="-105.229789">
  <ele>1582.99</ele>
  <time>2026-08-28T17:52:06Z</time>
  <course>247.26</course>
  <speed>0.02</speed>
  <fix>3d</fix>
</trkpt>
<trkpt lat="40.0713749" lon="-105.229789">
  <ele>1583.0</ele>
  <time>2026-08-28T17:52:06Z</time>
  <course>0.0</course>
  <speed>0.0</speed>
  <fix>3d</fix>
</trkpt>
<trkpt lat="40.071375" lon="-105.2297889">
  <ele>1582.99</ele>
  <time>2026-08-28T17:52:06Z</time>
  <course>247.26</course>
  <speed>0.02</speed>
  <fix>3d</fix>
</trkpt>
<trkpt lat="40.0713749" lon="-105.229789">
  <ele>1583.0</ele>
  <time>2026-08-28T17:52:06Z</time>
  <course>0.0</course>
  <speed>0.0</speed>
  <fix>3d</fix>
</trkpt>
<trkpt lat="40.071375" lon="-105.229789">
  <ele>1583.0</ele>
  <time>2026-08-28T17:52:06Z</time>
  <course>247.26</course>
  <speed>0.02</speed>
  <fix>3d</fix>
</trkpt>
<trkpt lat="40.0713749" lon="-105.229789">
  <ele>1583.0</ele>
  <time>2026-08-28T17:52:06Z</time>
  <course>0.0</course>
  <speed>0.0</speed>
  <fix>3d</fix>
</trkpt>
<trkpt lat="40.071375" lon="-105.2297889">
  <ele>1583.0</ele>
  <time>2026-08-28T17:52:06Z</time>
  <course>247.26</course>
  <speed>0.02</speed>
  <fix>3d</fix>
</trkpt>
<trkpt lat="40.0713749" lon="-105.229789">
  <ele>1583.0</ele>
  <time>2026-08-28T17:52:06Z</time>
  <course>0.0</course>
  <speed>0.0</speed>
  <fix>3d</fix>
</trkpt>
<trkpt lat="40.071375" lon="-105.229789">
  <ele>1583.0</ele>
  <time>2026-08-28T17:52:06Z</time>
  <course>247.25</course>
  <speed>0.02</speed>
  <fix>3d</fix>
</trkpt>
<trkpt lat="40.0713749" lon="-105.229789">
  <ele>1583.0</ele>
  <time>2026-08-28T17:52:06Z</time>
  <course>0.0</course>
  <speed>0.0</speed>
  <fix>3d</fix>
</trkpt>
<trkpt lat="40.071375" lon="-105.2297889">
  <ele>1583.0</ele>
  <time>2026-08-28T17:52:06Z</time>
  <course>247.25</course>
  <speed>0.02</speed>
  <fix>3d</fix>
</trkpt>
<trkpt lat="40.0713749" lon="-105.229789">
  <ele>1583.0</ele>
  <time>2026-08-28T17:52:06Z</time>
  <course>0.0</course>
  <speed>0.0</speed>
  <fix>3d</fix>
</trkpt>
<trkpt lat="40.071375" lon="-105.229789">
  <ele>1582.99</ele>
  <time>2026-08-28T17:52:06Z</time>
  <course>247.25</course>
  <speed>0.02</speed>
  <fix>3d</fix>
</trkpt>
<trkpt lat="40.0713749" lon="-105.229789">
  <ele>1583.0</ele>
  <time>2026-08-28T17:52:06Z</time>
  <course>0.0</course>
  <speed>0.0</speed>
  <fix>3d</fix>
</trkpt>
<trkpt lat="40.071375" lon="-105.2297889">
  <ele>1582.99</ele>
  <time>2026-08-28T17:52:06Z</time>
  <course>247.25</course>
  <speed>0.02</speed>
  <fix>3d</fix>
</trkpt>
<trkpt lat="40.0713749" lon="-105.229789">
  <ele>1583.0</ele>
  <time>2026-08-28T17:52:06Z</time>
  <course>0.0</course>
  <speed>0.0</speed>
  <fix>3d</fix>
</trkpt>
<trkpt lat="40.071375" lon="-105.229789">
  <ele>1582.98</ele>
  <time>2026-08-28T17:52:06Z</time>
  <course>247.25</course>
  <speed>0.02</speed>
  <fix>3d</fix>
</trkpt>
<trkpt lat="40.0713749" lon="-105.229789">
  <ele>1583.0</ele>
  <time>2026-08-28T17:52:06Z</time>
  <course>0.0</course>
  <speed>0.0</speed>
  <fix>3d</fix>
</trkpt>
<trkpt lat="40.071375" lon="-105.2297889">
  <ele>1582.97</ele>
  <time>2026-08-28T17:52:06Z</time>
  <course>247.25</course>
  <speed>0.02</speed>
  <fix>3d</fix>
</trkpt>
<trkpt lat="40.0713749" lon="-105.229789">
  <ele>1583.0</ele>
  <time>2026-08-28T17:52:06Z</time>
  <course>0.0</course>
  <speed>0.0</speed>
  <fix>3d</fix>
</trkpt>
<trkpt lat="40.071375" lon="-105.229789">
  <ele>1582.96</ele>
  <time>2026-08-28T17:52:06Z</time>
  <course>247.25</course>
  <speed>0.02</speed>
  <fix>3d</fix>
</trkpt>
<trkpt lat="40.0713749" lon="-105.229789">
  <ele>1583.0</ele>
  <time>2026-08-28T17:52:06Z</time>
  <course>0.0</course>
  <speed>0.0</speed>
  <fix>3d</fix>
</trkpt>
<trkpt lat="40.071375" lon="-105.2297889">
  <ele>1582.96</ele>
  <time>2026-08-28T17:52:06Z</time>
  <course>247.25</course>
  <speed>0.02</speed>
  <fix>3d</fix>
</trkpt>
<trkpt lat="40.0713749" lon="-105.229789">
  <ele>1583.0</ele>
  <time>2026-08-28T17:52:06Z</time>
  <course>0.0</course>
  <speed>0.0</speed>
  <fix>3d</fix>
</trkpt>
<trkpt lat="40.071375" lon="-105.229789">
  <ele>1582.95</ele>
  <time>2026-08-28T17:52:06Z</time>
  <course>247.25</course>
  <speed>0.02</speed>
  <fix>3d</fix>
</trkpt>
<trkpt lat="40.0713749" lon="-105.229789">
  <ele>1583.0</ele>
  <time>2026-08-28T17:52:06Z</time>
  <course>0.0</course>
  <speed>0.0</speed>
  <fix>3d</fix>
</trkpt>
<trkpt lat="40.071375" lon="-105.2297889">
  <ele>1582.95</ele>
  <time>2026-08-28T17:52:06Z</time>
  <course>247.24</course>
  <speed>0.02</speed>
  <fix>3d</fix>
</trkpt>
<trkpt lat="40.0713749" lon="-105.229789">
  <ele>1583.0</ele>
  <time>2026-08-28T17:52:06Z</time>
  <course>0.0</course>
  <speed>0.0</speed>
  <fix>3d</fix>
</trkpt>
<trkpt lat="40.071375" lon="-105.229789">
  <ele>1582.96</ele>
  <time>2026-08-28T17:52:06Z</time>
  <course>247.24</course>
  <speed>0.02</speed>
  <fix>3d</fix>
</trkpt>
<trkpt lat="40.0713749" lon="-105.229789">
  <ele>1583.0</ele>
  <time>2026-08-28T17:52:06Z</time>
  <course>0.0</course>
  <speed>0.0</speed>
  <fix>3d</fix>
</trkpt>
<trkpt lat="40.071375" lon="-105.2297889">
  <ele>1582.96</ele>
  <time>2026-08-28T17:52:06Z</time>
  <course>247.24</course>
  <speed>0.02</speed>
  <fix>3d</fix>
</trkpt>
<trkpt lat="40.0713749" lon="-105.229789">
  <ele>1583.0</ele>
  <time>2026-08-28T17:52:06Z</time>
  <course>0.0</course>
  <speed>0.0</speed>
  <fix>3d</fix>
</trkpt>
<trkpt lat="40.071375" lon="-105.229789">
  <ele>1582.97</ele>
  <time>2026-08-28T17:52:06Z</time>
  <course>247.24</course>
  <speed>0.02</speed>
  <fix>3d</fix>
</trkpt>
<trkpt lat="40.0713749" lon="-105.229789">
  <ele>1583.0</ele>
  <time>2026-08-28T17:52:06Z</time>
  <course>0.0</course>
  <speed>0.0</speed>
  <fix>3d</fix>
</trkpt>
<trkpt lat="40.071375" lon="-105.229789">
  <ele>1582.97</ele>
  <time>2026-08-28T17:52:06Z</time>
  <course>247.24</course>
  <speed>0.02</speed>
  <fix>3d</fix>
</trkpt>
<trkpt lat="40.0713749" lon="-105.229789">
  <ele>1583.0</ele>
  <time>2026-08-28T17:52:06Z</time>
  <course>0.0</course>
  <speed>0.0</speed>
  <fix>3d</fix>
</trkpt>
<trkpt lat="40.071375" lon="-105.229789">
  <ele>1582.98</ele>
  <time>2026-08-28T17:52:06Z</time>
  <course>247.24</course>
  <speed>0.02</speed>
  <fix>3d</fix>
</trkpt>
<trkpt lat="40.0713749" lon="-105.229789">
  <ele>1583.0</ele>
  <time>2026-08-28T17:52:06Z</time>
  <course>0.0</course>
  <speed>0.0</speed>
  <fix>3d</fix>
</trkpt>
<trkpt lat="40.071375" lon="-105.229789">
  <ele>1582.98</ele>
  <time>2026-08-28T17:52:06Z</time>
  <course>247.24</course>
  <speed>0.02</speed>
  <fix>3d</fix>
</trkpt>
<trkpt lat="40.0713749" lon="-105.229789">
  <ele>1583.0</ele>
  <time>2026-08-28T17:52:06Z</time>
  <course>0.0</course>
  <speed>0.0</speed>
  <fix>3d</fix>
</trkpt>
<trkpt lat="40.071375" lon="-105.229789">
  <ele>1582.99</ele>
  <time>2026-08-28T17:52:06Z</time>
  <course>247.24</course>
  <speed>0.02</speed>
  <fix>3d</fix>
</trkpt>
<trkpt lat="40.0713749" lon="-105.229789">
  <ele>1583.0</ele>
  <time>2026-08-28T17:52:06Z</time>
  <course>0.0</course>
  <speed>0.0</speed>
  <fix>3d</fix>
</trkpt>
<trkpt lat="40.071375" lon="-105.229789">
  <ele>1583.0</ele>
  <time>2026-08-28T17:52:06Z</time>
  <course>247.24</course>
  <speed>0.02</speed>
  <fix>3d</fix>
</trkpt>
<trkpt lat="40.0713749" lon="-105.229789">
  <ele>1583.0</ele>
  <time>2026-08-28T17:52:06Z</time>
  <course>0.0</course>
  <speed>0.0</speed>
  <fix>3d</fix>
</trkpt>
<trkpt lat="40.071375" lon="-105.229789">
  <ele>1583.0</ele>
  <time>2026-08-28T17:52:06Z</time>
  <course>247.23</course>
  <speed>0.02</speed>
  <fix>3d</fix>
</trkpt>
<trkpt lat="40.0713749" lon="-105.229789">
  <ele>1583.0</ele>
  <time>2026-08-28T17:52:06Z</time>
  <course>0.0</course>
  <speed>0.0</speed>
  <fix>3d</fix>
</trkpt>
<trkpt lat="40.071375" lon="-105.229789">
  <ele>1583.01</ele>
  <time>2026-08-28T17:52:06Z</time>
  <course>247.23</course>
  <speed>0.02</speed>
  <fix>3d</fix>
</trkpt>
<trkpt lat="40.0713749" lon="-105.229789">
  <ele>1583.0</ele>
  <time>2026-08-28T17:52:06Z</time>
  <course>0.0</course>
  <speed>0.0</speed>
  <fix>3d</fix>
</trkpt>
<trkpt lat="40.071375" lon="-105.229789">
  <ele>1583.01</ele>
  <time>2026-08-28T17:52:06Z</time>
  <course>247.23</course>
  <speed>0.02</speed>
  <fix>3d</fix>
</trkpt>
<trkpt lat="40.0713749" lon="-105.229789">
  <ele>1583.0</ele>
  <time>2026-08-28T17:52:06Z</time>
  <course>0.0</course>
  <speed>0.0</speed>
  <fix>3d</fix>
</trkpt>
<trkpt lat="40.071375" lon="-105.229789">
  <ele>1583.02</ele>
  <time>2026-08-28T17:52:06Z</time>
  <course>247.23</course>
  <speed>0.02</speed>
  <fix>3d</fix>
</trkpt>
<trkpt lat="40.0713749" lon="-105.229789">
  <ele>1583.0</ele>
  <time>2026-08-28T17:52:06Z</time>
  <course>0.0</course>
  <speed>0.0</speed>
  <fix>3d</fix>
</trkpt>
<trkpt lat="40.071375" lon="-105.229789">
  <ele>1583.02</ele>
  <time>2026-08-28T17:52:06Z</time>
  <course>247.23</course>
  <speed>0.02</speed>
  <fix>3d</fix>
</trkpt>
<trkpt lat="40.0713749" lon="-105.229789">
  <ele>1583.0</ele>
  <time>2026-08-28T17:52:06Z</time>
  <course>0.0</course>
  <speed>0.0</speed>
  <fix>3d</fix>
</trkpt>
<trkpt lat="40.071375" lon="-105.229789">
  <ele>1583.03</ele>
  <time>2026-08-28T17:52:06Z</time>
  <course>247.23</course>
  <speed>0.02</speed>
  <fix>3d</fix>
</trkpt>
<trkpt lat="40.0713749" lon="-105.229789">
  <ele>1583.0</ele>
  <time>2026-08-28T17:52:06Z</time>
  <course>0.0</course>
  <speed>0.0</speed>
  <fix>3d</fix>
</trkpt>
<trkpt lat="40.071375" lon="-105.229789">
  <ele>1583.03</ele>
  <time>2026-08-28T17:52:06Z</time>
  <course>247.23</course>
  <speed>0.02</speed>
  <fix>3d</fix>
</trkpt>
<trkpt lat="40.0713749" lon="-105.229789">
  <ele>1583.0</ele>
  <time>2026-08-28T17:52:06Z</time>
  <course>0.0</course>
  <speed>0.0</speed>
  <fix>3d</fix>
</trkpt>
<trkpt lat="40.071375" lon="-105.229789">
  <ele>1583.03</ele>
  <time>2026-08-28T17:52:06Z</time>
  <course>247.23</course>
  <speed>0.02</speed>
  <fix>3d</fix>
</trkpt>
<trkpt lat="40.0713749" lon="-105.229789">
  <ele>1583.0</ele>
  <time>2026-08-28T17:52:06Z</time>
  <course>0.0</course>
  <speed>0.0</speed>
  <fix>3d</fix>
</trkpt>
<trkpt lat="40.071375" lon="-105.229789">
  <ele>1583.03</ele>
  <time>2026-08-28T17:52:06Z</time>
  <course>247.23</course>
  <speed>0.02</speed>
  <fix>3d</fix>
</trkpt>
<trkpt lat="40.0713749" lon="-105.229789">
  <ele>1583.0</ele>
  <time>2026-08-28T17:52:06Z</time>
  <course>0.0</course>
  <speed>0.0</speed>
  <fix>3d</fix>
</trkpt>
<trkpt lat="40.071375" lon="-105.2297889">
  <ele>1583.03</ele>
  <time>2026-08-28T17:52:06Z</time>
  <course>247.22</course>
  <speed>0.02</speed>
  <fix>3d</fix>
</trkpt>
<trkpt lat="40.0713749" lon="-105.229789">
  <ele>1583.0</ele>
  <time>2026-08-28T17:52:06Z</time>
  <course>0.0</course>
  <speed>0.0</speed>
  <fix>3d</fix>
</trkpt>
<trkpt lat="40.071375" lon="-105.229789">
  <ele>1583.03</ele>
  <time>2026-08-28T17:52:06Z</time>
  <course>247.22</course>
  <speed>0.02</speed>
  <fix>3d</fix>
</trkpt>
<trkpt lat="40.0713749" lon="-105.229789">
  <ele>1583.0</ele>
  <time>2026-08-28T17:52:06Z</time>
  <course>0.0</course>
  <speed>0.0</speed>
  <fix>3d</fix>
</trkpt>
<trkpt lat="40.071375" lon="-105.2297889">
  <ele>1583.03</ele>
  <time>2026-08-28T17:52:06Z</time>
  <course>247.22</course>
  <speed>0.02</speed>
  <fix>3d</fix>
</trkpt>
<trkpt lat="40.0713749" lon="-105.229789">
  <ele>1583.0</ele>
  <time>2026-08-28T17:52:06Z</time>
  <course>0.0</course>
  <speed>0.0</speed>
  <fix>3d</fix>
</trkpt>
<trkpt lat="40.071375" lon="-105.229789">
  <ele>1583.03</ele>
  <time>2026-08-28T17:52:06Z</time>
  <course>247.22</course>
  <speed>0.02</speed>
  <fix>3d</fix>
</trkpt>
<trkpt lat="40.0713749" lon="-105.229789">
  <ele>1583.0</ele>
  <time>2026-08-28T17:52:06Z</time>
  <course>0.0</course>
  <speed>0.0</speed>
  <fix>3d</fix>
</trkpt>
<trkpt lat="40.071375" lon="-105.2297889">
  <ele>1583.02</ele>
  <time>2026-08-28T17:52:06Z</time>
  <course>247.22</course>
  <speed>0.02</speed>
  <fix>3d</fix>
</trkpt>
<trkpt lat="40.0713749" lon="-105.229789">
  <ele>1583.0</ele>
  <time>2026-08-28T17:52:06Z</time>
  <course>0.0</course>
  <speed>0.0</speed>
  <fix>3d</fix>
</trkpt>
<trkpt lat="40.071375" lon="-105.229789">
  <ele>1583.02</ele>
  <time>2026-08-28T17:52:06Z</time>
  <course>247.22</course>
  <speed>0.02</speed>
  <fix>3d</fix>
</trkpt>
<trkpt lat="40.0713749" lon="-105.229789">
  <ele>1583.0</ele>
  <time>2026-08-28T17:52:06Z</time>
  <course>0.0</course>
  <speed>0.0</speed>
  <fix>3d</fix>
</trkpt>
<trkpt lat="40.071375" lon="-105.2297889">
  <ele>1583.01</ele>
  <time>2026-08-28T17:52:06Z</time>
  <course>247.22</course>
  <speed>0.02</speed>
  <fix>3d</fix>
</trkpt>
<trkpt lat="40.0713749" lon="-105.229789">
  <ele>1583.0</ele>
  <time>2026-08-28T17:52:06Z</time>
  <course>0.0</course>
  <speed>0.0</speed>
  <fix>3d</fix>
</trkpt>
<trkpt lat="40.071375" lon="-105.229789">
  <ele>1583.01</ele>
  <time>2026-08-28T17:52:06Z</time>
  <course>247.22</course>
  <speed>0.02</speed>
  <fix>3d</fix>
</trkpt>
<trkpt lat="40.0713749" lon="-105.229789">
  <ele>1583.0</ele>
  <time>2026-08-28T17:52:06Z</time>
  <course>0.0</course>
  <speed>0.0</speed>
  <fix>3d</fix>
</trkpt>
<trkpt lat="40.071375" lon="-105.2297889">
  <ele>1583.0</ele>
  <time>2026-08-28T17:52:06Z</time>
  <course>247.22</course>
  <speed>0.02</speed>
  <fix>3d</fix>
</trkpt>
<trkpt lat="40.0713749" lon="-105.229789">
  <ele>1583.0</ele>
  <time>2026-08-28T17:52:06Z</time>
  <course>0.0</course>
  <speed>0.0</speed>
  <fix>3d</fix>
</trkpt>
<trkpt lat="40.071375" lon="-105.229789">
  <ele>1583.0</ele>
  <time>2026-08-28T17:52:06Z</time>
  <course>247.22</course>
  <speed>0.02</speed>
  <fix>3d</fix>
</trkpt>
<trkpt lat="40.0713749" lon="-105.229789">
  <ele>1583.0</ele>
  <time>2026-08-28T17:52:06Z</time>
  <course>0.0</course>
  <speed>0.0</speed>
  <fix>3d</fix>
</trkpt>
<trkpt lat="40.071375" lon="-105.2297889">
  <ele>1583.0</ele>
  <time>2026-08-28T17:52:06Z</time>
  <course>247.22</course>
  <speed>0.02</speed>
  <fix>3d</fix>
</trkpt>
<trkpt lat="40.0713749" lon="-105.229789">
  <ele>1583.0</ele>
  <time>2026-08-28T17:52:06Z</time>
  <course>0.0</course>
  <speed>0.0</speed>
  <fix>3d</fix>
</trkpt>
<trkpt lat="40.071375" lon="-105.229789">
  <ele>1583.0</ele>
  <time>2026-08-28T17:52:06Z</time>
  <course>247.21</course>
  <speed>0.02</speed>
  <fix>3d</fix>
</trkpt>
<trkpt lat="40.0713749" lon="-105.229789">
  <ele>1583.0</ele>
  <time>2026-08-28T17:52:06Z</time>
  <course>0.0</course>
  <speed>0.0</speed>
  <fix>3d</fix>
</trkpt>
<trkpt lat="40.071375" lon="-105.2297889">
  <ele>1583.0</ele>
  <time>2026-08-28T17:52:06Z</time>
  <course>247.21</course>
  <speed>0.02</speed>
  <fix>3d</fix>
</trkpt>
<trkpt lat="40.0713749" lon="-105.229789">
  <ele>1583.0</ele>
  <time>2026-08-28T17:52:06Z</time>
  <course>0.0</course>
  <speed>0.0</speed>
  <fix>3d</fix>
</trkpt>
<trkpt lat="40.071375" lon="-105.229789">
  <ele>1583.0</ele>
  <time>2026-08-28T17:52:06Z</time>
  <course>247.21</course>
  <speed>0.02</speed>
  <fix>3d</fix>
</trkpt>
<trkpt lat="40.0713749" lon="-105.229789">
  <ele>1583.0</ele>
  <time>2026-08-28T17:52:06Z</time>
  <course>0.0</course>
  <speed>0.0</speed>
  <fix>3d</fix>
</trkpt>
<trkpt lat="40.071375" lon="-105.2297889">
  <ele>1583.0</ele>
  <time>2026-08-28T17:52:06Z</time>
  <course>247.21</course>
  <speed>0.02</speed>
  <fix>3d</fix>
</trkpt>
<trkpt lat="40.0713749" lon="-105.229789">
  <ele>1583.0</ele>
  <time>2026-08-28T17:52:06Z</time>
  <course>0.0</course>
  <speed>0.0</speed>
  <fix>3d</fix>
</trkpt>
<trkpt lat="40.071375" lon="-105.229789">
  <ele>1582.99</ele>
  <time>2026-08-28T17:52:06Z</time>
  <course>247.21</course>
  <speed>0.02</speed>
  <fix>3d</fix>
</trkpt>
<trkpt lat="40.0713749" lon="-105.229789">
  <ele>1583.0</ele>
  <time>2026-08-28T17:52:06Z</time>
  <course>0.0</course>
  <speed>0.0</speed>
  <fix>3d</fix>
</trkpt>
<trkpt lat="40.071375" lon="-105.2297889">
  <ele>1582.99</ele>
  <time>2026-08-28T17:52:06Z</time>
  <course>247.21</course>
  <speed>0.02</speed>
  <fix>3d</fix>
</trkpt>
<trkpt lat="40.0713749" lon="-105.229789">
  <ele>1583.0</ele>
  <time>2026-08-28T17:52:06Z</time>
  <course>0.0</course>
  <speed>0.0</speed>
  <fix>3d</fix>
</trkpt>
<trkpt lat="40.071375" lon="-105.229789">
  <ele>1582.99</ele>
  <time>2026-08-28T17:52:06Z</time>
  <course>247.21</course>
  <speed>0.02</speed>
  <fix>3d</fix>
</trkpt>
<trkpt lat="40.0713749" lon="-105.229789">
  <ele>1583.0</ele>
  <time>2026-08-28T17:52:06Z</time>
  <course>0.0</course>
  <speed>0.0</speed>
  <fix>3d</fix>
</trkpt>
<trkpt lat="40.071375" lon="-105.2297889">
  <ele>1582.98</ele>
  <time>2026-08-28T17:52:06Z</time>
  <course>247.21</course>
  <speed>0.022360679774997897</speed>
  <fix>3d</fix>
</trkpt>
<trkpt lat="40.0713749" lon="-105.229789">
  <ele>1583.0</ele>
  <time>2026-08-28T17:52:06Z</time>
  <course>0.0</course>
  <speed>0.0</speed>
  <fix>3d</fix>
</trkpt>
<trkpt lat="40.071375" lon="-105.2297889">
  <ele>1582.98</ele>
  <time>2026-08-28T17:52:06Z</time>
  <course>247.21</course>
  <speed>0.02</speed>
  <fix>3d</fix>
</trkpt>
<trkpt lat="40.0713749" lon="-105.229789">
  <ele>1583.0</ele>
  <time>2026-08-28T17:52:06Z</time>
  <course>0.0</course>
  <speed>0.0</speed>
  <fix>3d</fix>
</trkpt>
<trkpt lat="40.071375" lon="-105.2297889">
  <ele>1582.98</ele>
  <time>2026-08-28T17:52:06Z</time>
  <course>247.21</course>
  <speed>0.022360679774997897</speed>
  <fix>3d</fix>
</trkpt>
<trkpt lat="40.0713749" lon="-105.229789">
  <ele>1583.0</ele>
  <time>2026-08-28T17:52:06Z</time>
  <course>0.0</course>
  <speed>0.0</speed>
  <fix>3d</fix>
</trkpt>
<trkpt lat="40.071375" lon="-105.2297889">
  <ele>1582.97</ele>
  <time>2026-08-28T17:52:06Z</time>
  <course>247.2</course>
  <speed>0.022360679774997897</speed>
  <fix>3d</fix>
</trkpt>
<trkpt lat="40.0713749" lon="-105.229789">
  <ele>1583.0</ele>
  <time>2026-08-28T17:52:06Z</time>
  <course>0.0</course>
  <speed>0.0</speed>
  <fix>3d</fix>
</trkpt>
<trkpt lat="40.071375" lon="-105.2297889">
  <ele>1582.97</ele>
  <time>2026-08-28T17:52:06Z</time>
  <course>247.2</course>
  <speed>0.022360679774997897</speed>
  <fix>3d</fix>
</trkpt>
<trkpt lat="40.0713749" lon="-105.229789">
  <ele>1583.0</ele>
  <time>2026-08-28T17:52:06Z</time>
  <course>0.0</course>
  <speed>0.0</speed>
  <fix>3d</fix>
</trkpt>
<trkpt lat="40.071375" lon="-105.2297889">
  <ele>1582.97</ele>
  <time>2026-08-28T17:52:06Z</time>
  <course>247.2</course>
  <speed>0.022360679774997897</speed>
  <fix>3d</fix>
</trkpt>
<trkpt lat="40.0713749" lon="-105.229789">
  <ele>1583.0</ele>
  <time>2026-08-28T17:52:06Z</time>
  <course>0.0</course>
  <speed>0.0</speed>
  <fix>3d</fix>
</trkpt>
<trkpt lat="40.071375" lon="-105.2297889">
  <ele>1582.97</ele>
  <time>2026-08-28T17:52:06Z</time>
  <course>247.2</course>
  <speed>0.022360679774997897</speed>
  <fix>3d</fix>
</trkpt>
<trkpt lat="40.0713749" lon="-105.229789">
  <ele>1583.0</ele>
  <time>2026-08-28T17:52:06Z</time>
  <course>0.0</course>
  <speed>0.0</speed>
  <fix>3d</fix>
</trkpt>
<trkpt lat="40.071375" lon="-105.2297889">
  <ele>1582.97</ele>
  <time>2026-08-28T17:52:06Z</time>
  <course>247.2</course>
  <speed>0.02</speed>
  <fix>3d</fix>
</trkpt>
<trkpt lat="40.0713749" lon="-105.229789">
  <ele>1583.0</ele>
  <time>2026-08-28T17:52:06Z</time>
  <course>0.0</course>
  <speed>0.0</speed>
  <fix>3d</fix>
</trkpt>
<trkpt lat="40.071375" lon="-105.2297889">
  <ele>1582.97</ele>
  <time>2026-08-28T17:52:06Z</time>
  <course>247.2</course>
  <speed>0.022360679774997897</speed>
  <fix>3d</fix>
</trkpt>
<trkpt lat="40.0713749" lon="-105.229789">
  <ele>1583.0</ele>
  <time>2026-08-28T17:52:06Z</time>
  <course>0.0</course>
  <speed>0.0</speed>
  <fix>3d</fix>
</trkpt>
<trkpt lat="40.071375" lon="-105.2297889">
  <ele>1582.97</ele>
  <time>2026-08-28T17:52:06Z</time>
  <course>247.2</course>
  <speed>0.022360679774997897</speed>
  <fix>3d</fix>
</trkpt>
<trkpt lat="40.0713749" lon="-105.229789">
  <ele>1583.0</ele>
  <time>2026-08-28T17:52:06Z</time>
  <course>0.0</course>
  <speed>0.0</speed>
  <fix>3d</fix>
</trkpt>
<trkpt lat="40.071375" lon="-105.2297889">
  <ele>1582.98</ele>
  <time>2026-08-28T17:52:06Z</time>
  <course>247.2</course>
  <speed>0.022360679774997897</speed>
  <fix>3d</fix>
</trkpt>
<trkpt lat="40.0713749" lon="-105.229789">
  <ele>1583.0</ele>
  <time>2026-08-28T17:52:06Z</time>
  <course>0.0</course>
  <speed>0.0</speed>
  <fix>3d</fix>
</trkpt>
<trkpt lat="40.071375" lon="-105.2297889">
  <ele>1582.98</ele>
  <time>2026-08-28T17:52:06Z</time>
  <course>247.2</course>
  <speed>0.022360679774997897</speed>
  <fix>3d</fix>
</trkpt>
<trkpt lat="40.0713749" lon="-105.229789">
  <ele>1583.0</ele>
  <time>2026-08-28T17:52:06Z</time>
  <course>0.0</course>
  <speed>0.0</speed>
  <fix>3d</fix>
</trkpt>
<trkpt lat="39.655741" lon="-104.1383097">
  <ele>1566.58</ele>
  <time>2026-08-28T17:52:08Z</time>
  <course>0.0</course>
  <speed>0.0</speed>
  <fix>3d</fix>
</trkpt>
<trkpt lat="40.0713749" lon="-105.229789">
  <ele>1583.0</ele>
  <time>2026-08-28T17:52:08Z</time>
  <course>0.0</course>
  <speed>0.0</speed>
  <fix>3d</fix>
</trkpt>
<trkpt lat="40.0713749" lon="-105.229789">
  <ele>1583.0</ele>
  <time>2026-08-28T17:52:08Z</time>
  <course>238.36</course>
  <speed>0.0</speed>
  <fix>3d</fix>
</trkpt>
<trkpt lat="40.0713749" lon="-105.229789">
  <ele>1583.0</ele>
  <time>2026-08-28T17:52:08Z</time>
  <course>0.0</course>
  <speed>0.0</speed>
  <fix>3d</fix>
</trkpt>
<trkpt lat="40.0713749" lon="-105.229789">
  <ele>1583.0</ele>
  <time>2026-08-28T17:52:08Z</time>
  <course>238.44</course>
  <speed>0.0</speed>
  <fix>3d</fix>
</trkpt>
<trkpt lat="40.0713749" lon="-105.229789">
  <ele>1583.0</ele>
  <time>2026-08-28T17:52:08Z</time>
  <course>0.0</course>
  <speed>0.0</speed>
  <fix>3d</fix>
</trkpt>
<trkpt lat="40.0713749" lon="-105.229789">
  <ele>1583.0</ele>
  <time>2026-08-28T17:52:08Z</time>
  <course>238.64</course>
  <speed>0.0</speed>
  <fix>3d</fix>
</trkpt>
<trkpt lat="40.0713749" lon="-105.229789">
  <ele>1583.0</ele>
  <time>2026-08-28T17:52:08Z</time>
  <course>0.0</course>
  <speed>0.0</speed>
  <fix>3d</fix>
</trkpt>
<trkpt lat="40.0713749" lon="-105.229789">
  <ele>1583.0</ele>
  <time>2026-08-28T17:52:08Z</time>
  <course>238.93</course>
  <speed>0.0</speed>
  <fix>3d</fix>
</trkpt>
<trkpt lat="40.0713749" lon="-105.229789">
  <ele>1583.0</ele>
  <time>2026-08-28T17:52:08Z</time>
  <course>0.0</course>
  <speed>0.0</speed>
  <fix>3d</fix>
</trkpt>
<trkpt lat="40.0713749" lon="-105.229789">
  <ele>1583.0</ele>
  <time>2026-08-28T17:52:08Z</time>
  <course>239.26</course>
  <speed>0.0</speed>
  <fix>3d</fix>
</trkpt>
<trkpt lat="40.0713749" lon="-105.229789">
  <ele>1583.0</ele>
  <time>2026-08-28T17:52:08Z</time>
  <course>0.0</course>
  <speed>0.0</speed>
  <fix>3d</fix>
</trkpt>
<trkpt lat="40.0713749" lon="-105.229789">
  <ele>1583.0</ele>
  <time>2026-08-28T17:52:08Z</time>
  <course>239.61</course>
  <speed>0.0</speed>
  <fix>3d</fix>
</trkpt>
<trkpt lat="40.0713749" lon="-105.229789">
  <ele>1583.0</ele>
  <time>2026-08-28T17:52:08Z</time>
  <course>0.0</course>
  <speed>0.0</speed>
  <fix>3d</fix>
</trkpt>
<trkpt lat="40.0713749" lon="-105.229789">
  <ele>1583.0</ele>
  <time>2026-08-28T17:52:08Z</time>
  <course>239.96</course>
  <speed>0.0</speed>
  <fix>3d</fix>
</trkpt>
<trkpt lat="40.0713749" lon="-105.229789">
  <ele>1583.0</ele>
  <time>2026-08-28T17:52:08Z</time>
  <course>0.0</course>
  <speed>0.0</speed>
  <fix>3d</fix>
</trkpt>
<trkpt lat="40.0713749" lon="-105.229789">
  <ele>1583.0</ele>
  <time>2026-08-28T17:52:08Z</time>
  <course>240.29</course>
  <speed>0.0</speed>
  <fix>3d</fix>
</trkpt>
<trkpt lat="40.0713749" lon="-105.229789">
  <ele>1583.0</ele>
  <time>2026-08-28T17:52:08Z</time>
  <course>0.0</course>
  <speed>0.0</speed>
  <fix>3d</fix>
</trkpt>
<trkpt lat="40.0713749" lon="-105.229789">
  <ele>1583.0</ele>
  <time>2026-08-28T17:52:08Z</time>
  <course>240.61</course>
  <speed>0.0</speed>
  <fix>3d</fix>
</trkpt>
<trkpt lat="40.0713749" lon="-105.229789">
  <ele>1583.0</ele>
  <time>2026-08-28T17:52:08Z</time>
  <course>0.0</course>
  <speed>0.0</speed>
  <fix>3d</fix>
</trkpt>
<trkpt lat="40.0713749" lon="-105.229789">
  <ele>1583.0</ele>
  <time>2026-08-28T17:52:08Z</time>
  <course>240.92</course>
  <speed>0.0</speed>
  <fix>3d</fix>
</trkpt>
<trkpt lat="40.0713749" lon="-105.229789">
  <ele>1583.0</ele>
  <time>2026-08-28T17:52:08Z</time>
  <course>0.0</course>
  <speed>0.0</speed>
  <fix>3d</fix>
</trkpt>
<trkpt lat="40.0713749" lon="-105.229789">
  <ele>1583.0</ele>
  <time>2026-08-28T17:52:08Z</time>
  <course>241.21</course>
  <speed>0.0</speed>
  <fix>3d</fix>
</trkpt>
<trkpt lat="40.0713749" lon="-105.229789">
  <ele>1583.0</ele>
  <time>2026-08-28T17:52:08Z</time>
  <course>0.0</course>
  <speed>0.0</speed>
  <fix>3d</fix>
</trkpt>
<trkpt lat="40.0713749" lon="-105.229789">
  <ele>1583.0</ele>
  <time>2026-08-28T17:52:08Z</time>
  <course>241.49</course>
  <speed>0.0</speed>
  <fix>3d</fix>
</trkpt>
<trkpt lat="40.0713749" lon="-105.229789">
  <ele>1583.0</ele>
  <time>2026-08-28T17:52:08Z</time>
  <course>0.0</course>
  <speed>0.0</speed>
  <fix>3d</fix>
</trkpt>
<trkpt lat="40.0713749" lon="-105.229789">
  <ele>1583.0</ele>
  <time>2026-08-28T17:52:08Z</time>
  <course>241.77</course>
  <speed>0.0</speed>
  <fix>3d</fix>
</trkpt>
<trkpt lat="40.0713749" lon="-105.229789">
  <ele>1583.0</ele>
  <time>2026-08-28T17:52:08Z</time>
  <course>0.0</course>
  <speed>0.0</speed>
  <fix>3d</fix>
</trkpt>
<trkpt lat="40.0713749" lon="-105.229789">
  <ele>1583.0</ele>
  <time>2026-08-28T17:52:08Z</time>
  <course>242.03</course>
  <speed>0.0</speed>
  <fix>3d</fix>
</trkpt>
<trkpt lat="40.0713749" lon="-105.229789">
  <ele>1583.0</ele>
  <time>2026-08-28T17:52:08Z</time>
  <course>0.0</course>
  <speed>0.0</speed>
  <fix>3d</fix>
</trkpt>
<trkpt lat="40.0713749" lon="-105.229789">
  <ele>1583.0</ele>
  <time>2026-08-28T17:52:08Z</time>
  <course>242.29</course>
  <speed>0.0</speed>
  <fix>3d</fix>
</trkpt>
<trkpt lat="40.0713749" lon="-105.229789">
  <ele>1583.0</ele>
  <time>2026-08-28T17:52:08Z</time>
  <course>0.0</course>
  <speed>0.0</speed>
  <fix>3d</fix>
</trkpt>
<trkpt lat="40.0713749" lon="-105.229789">
  <ele>1583.0</ele>
  <time>2026-08-28T17:52:08Z</time>
  <course>242.54</course>
  <speed>0.0</speed>
  <fix>3d</fix>
</trkpt>
<trkpt lat="40.0713749" lon="-105.229789">
  <ele>1583.0</ele>
  <time>2026-08-28T17:52:08Z</time>
  <course>0.0</course>
  <speed>0.0</speed>
  <fix>3d</fix>
</trkpt>
<trkpt lat="40.0713749" lon="-105.229789">
  <ele>1583.0</ele>
  <time>2026-08-28T17:52:08Z</time>
  <course>242.79</course>
  <speed>0.0</speed>
  <fix>3d</fix>
</trkpt>
<trkpt lat="40.0713749" lon="-105.229789">
  <ele>1583.0</ele>
  <time>2026-08-28T17:52:08Z</time>
  <course>0.0</course>
  <speed>0.0</speed>
  <fix>3d</fix>
</trkpt>
<trkpt lat="40.0713749" lon="-105.229789">
  <ele>1583.0</ele>
  <time>2026-08-28T17:52:08Z</time>
  <course>243.02</course>
  <speed>0.0</speed>
  <fix>3d</fix>
</trkpt>
<trkpt lat="40.0713749" lon="-105.229789">
  <ele>1583.0</ele>
  <time>2026-08-28T17:52:08Z</time>
  <course>0.0</course>
  <speed>0.0</speed>
  <fix>3d</fix>
</trkpt>
<trkpt lat="40.0713749" lon="-105.229789">
  <ele>1583.0</ele>
  <time>2026-08-28T17:52:08Z</time>
  <course>243.25</course>
  <speed>0.0</speed>
  <fix>3d</fix>
</trkpt>
<trkpt lat="40.0713749" lon="-105.229789">
  <ele>1583.0</ele>
  <time>2026-08-28T17:52:08Z</time>
  <course>0.0</course>
  <speed>0.0</speed>
  <fix>3d</fix>
</trkpt>
<trkpt lat="40.0713749" lon="-105.229789">
  <ele>1583.0</ele>
  <time>2026-08-28T17:52:08Z</time>
  <course>243.47</course>
  <speed>0.0</speed>
  <fix>3d</fix>
</trkpt>
<trkpt lat="40.0713749" lon="-105.229789">
  <ele>1583.0</ele>
  <time>2026-08-28T17:52:08Z</time>
  <course>0.0</course>
  <speed>0.0</speed>
  <fix>3d</fix>
</trkpt>
<trkpt lat="40.0713749" lon="-105.229789">
  <ele>1583.0</ele>
  <time>2026-08-28T17:52:08Z</time>
  <course>243.68</course>
  <speed>0.0</speed>
  <fix>3d</fix>
</trkpt>
<trkpt lat="40.0713749" lon="-105.229789">
  <ele>1583.0</ele>
  <time>2026-08-28T17:52:08Z</time>
  <course>0.0</course>
  <speed>0.0</speed>
  <fix>3d</fix>
</trkpt>
<trkpt lat="40.0713749" lon="-105.229789">
  <ele>1583.0</ele>
  <time>2026-08-28T17:52:08Z</time>
  <course>243.89</course>
  <speed>0.0</speed>
  <fix>3d</fix>
</trkpt>
<trkpt lat="40.0713749" lon="-105.229789">
  <ele>1583.0</ele>
  <time>2026-08-28T17:52:08Z</time>
  <course>0.0</course>
  <speed>0.0</speed>
  <fix>3d</fix>
</trkpt>
<trkpt lat="40.0713749" lon="-105.229789">
  <ele>1583.0</ele>
  <time>2026-08-28T17:52:08Z</time>
  <course>244.09</course>
  <speed>0.0</speed>
  <fix>3d</fix>
</trkpt>
<trkpt lat="40.0713749" lon="-105.229789">
  <ele>1583.0</ele>
  <time>2026-08-28T17:52:08Z</time>
  <course>0.0</course>
  <speed>0.0</speed>
  <fix>3d</fix>
</trkpt>
<trkpt lat="40.0713749" lon="-105.229789">
  <ele>1583.0</ele>
  <time>2026-08-28T17:52:08Z</time>
  <course>244.28</course>
  <speed>0.0</speed>
  <fix>3d</fix>
</trkpt>
<trkpt lat="40.0713749" lon="-105.229789">
  <ele>1583.0</ele>
  <time>2026-08-28T17:52:08Z</time>
  <course>0.0</course>
  <speed>0.0</speed>
  <fix>3d</fix>
</trkpt>
<trkpt lat="40.0713749" lon="-105.229789">
  <ele>1583.0</ele>
  <time>2026-08-28T17:52:08Z</time>
  <course>244.46</course>
  <speed>0.0</speed>
  <fix>3d</fix>
</trkpt>
<trkpt lat="40.0713749" lon="-105.229789">
  <ele>1583.0</ele>
  <time>2026-08-28T17:52:08Z</time>
  <course>0.0</course>
  <speed>0.0</speed>
  <fix>3d</fix>
</trkpt>
<trkpt lat="40.0713749" lon="-105.229789">
  <ele>1583.0</ele>
  <time>2026-08-28T17:52:08Z</time>
  <course>244.64</course>
  <speed>0.0</speed>
  <fix>3d</fix>
</trkpt>
<trkpt lat="40.0713749" lon="-105.229789">
  <ele>1583.0</ele>
  <time>2026-08-28T17:52:08Z</time>
  <course>0.0</course>
  <speed>0.0</speed>
  <fix>3d</fix>
</trkpt>
<trkpt lat="40.0713749" lon="-105.229789">
  <ele>1583.0</ele>
  <time>2026-08-28T17:52:08Z</time>
  <course>244.81</course>
  <speed>0.0</speed>
  <fix>3d</fix>
</trkpt>
<trkpt lat="40.0713749" lon="-105.229789">
  <ele>1583.0</ele>
  <time>2026-08-28T17:52:08Z</time>
  <course>0.0</course>
  <speed>0.0</speed>
  <fix>3d</fix>
</trkpt>
<trkpt lat="40.0713749" lon="-105.229789">
  <ele>1583.0</ele>
  <time>2026-08-28T17:52:08Z</time>
  <course>244.97</course>
  <speed>0.0</speed>
  <fix>3d</fix>
</trkpt>
<trkpt lat="40.0713749" lon="-105.229789">
  <ele>1583.0</ele>
  <time>2026-08-28T17:52:08Z</time>
  <course>0.0</course>
  <speed>0.0</speed>
  <fix>3d</fix>
</trkpt>
<trkpt lat="40.0713749" lon="-105.229789">
  <ele>1583.0</ele>
  <time>2026-08-28T17:52:08Z</time>
  <course>245.13</course>
  <speed>0.0</speed>
  <fix>3d</fix>
</trkpt>
<trkpt lat="40.0713749" lon="-105.229789">
  <ele>1583.0</ele>
  <time>2026-08-28T17:52:08Z</time>
  <course>0.0</course>
  <speed>0.0</speed>
  <fix>3d</fix>
</trkpt>
<trkpt lat="40.0713749" lon="-105.229789">
  <ele>1583.0</ele>
  <time>2026-08-28T17:52:08Z</time>
  <course>245.29</course>
  <speed>0.0</speed>
  <fix>3d</fix>
</trkpt>
<trkpt lat="40.0713749" lon="-105.229789">
  <ele>1583.0</ele>
  <time>2026-08-28T17:52:08Z</time>
  <course>0.0</course>
  <speed>0.0</speed>
  <fix>3d</fix>
</trkpt>
<trkpt lat="40.0713749" lon="-105.229789">
  <ele>1583.0</ele>
  <time>2026-08-28T17:52:08Z</time>
  <course>245.43</course>
  <speed>0.0</speed>
  <fix>3d</fix>
</trkpt>
<trkpt lat="40.0713749" lon="-105.229789">
  <ele>1583.0</ele>
  <time>2026-08-28T17:52:08Z</time>
  <course>0.0</course>
  <speed>0.0</speed>
  <fix>3d</fix>
</trkpt>
<trkpt lat="40.0713749" lon="-105.229789">
  <ele>1583.0</ele>
  <time>2026-08-28T17:52:08Z</time>
  <course>245.57</course>
  <speed>0.0</speed>
  <fix>3d</fix>
</trkpt>
<trkpt lat="40.0713749" lon="-105.229789">
  <ele>1583.0</ele>
  <time>2026-08-28T17:52:08Z</time>
  <course>0.0</course>
  <speed>0.0</speed>
  <fix>3d</fix>
</trkpt>
<trkpt lat="40.0713749" lon="-105.229789">
  <ele>1583.0</ele>
  <time>2026-08-28T17:52:08Z</time>
  <course>245.71</course>
  <speed>0.0</speed>
  <fix>3d</fix>
</trkpt>
<trkpt lat="40.0713749" lon="-105.229789">
  <ele>1583.0</ele>
  <time>2026-08-28T17:52:08Z</time>
  <course>0.0</course>
  <speed>0.0</speed>
  <fix>3d</fix>
</trkpt>
<trkpt lat="40.0713749" lon="-105.229789">
  <ele>1583.0</ele>
  <time>2026-08-28T17:52:08Z</time>
  <course>245.84</course>
  <speed>0.0</speed>
  <fix>3d</fix>
</trkpt>
<trkpt lat="40.0713749" lon="-105.229789">
  <ele>1583.0</ele>
  <time>2026-08-28T17:52:08Z</time>
  <course>0.0</course>
  <speed>0.0</speed>
  <fix>3d</fix>
</trkpt>
<trkpt lat="40.0713749" lon="-105.229789">
  <ele>1583.0</ele>
  <time>2026-08-28T17:52:08Z</time>
  <course>245.96</course>
  <speed>0.0</speed>
  <fix>3d</fix>
</trkpt>
<trkpt lat="40.0713749" lon="-105.229789">
  <ele>1583.0</ele>
  <time>2026-08-28T17:52:08Z</time>
  <course>0.0</course>
  <speed>0.0</speed>
  <fix>3d</fix>
</trkpt>
<trkpt lat="40.0713749" lon="-105.229789">
  <ele>1583.0</ele>
  <time>2026-08-28T17:52:08Z</time>
  <course>246.08</course>
  <speed>0.0</speed>
  <fix>3d</fix>
</trkpt>
<trkpt lat="40.0713749" lon="-105.229789">
  <ele>1583.0</ele>
  <time>2026-08-28T17:52:08Z</time>
  <course>0.0</course>
  <speed>0.0</speed>
  <fix>3d</fix>
</trkpt>
<trkpt lat="40.0713749" lon="-105.229789">
  <ele>1583.0</ele>
  <time>2026-08-28T17:52:08Z</time>
  <course>246.19</course>
  <speed>0.0</speed>
  <fix>3d</fix>
</trkpt>
<trkpt lat="40.0713749" lon="-105.229789">
  <ele>1583.0</ele>
  <time>2026-08-28T17:52:08Z</time>
  <course>0.0</course>
  <speed>0.0</speed>
  <fix>3d</fix>
</trkpt>
<trkpt lat="40.0713749" lon="-105.229789">
  <ele>1583.0</ele>
  <time>2026-08-28T17:52:08Z</time>
  <course>246.3</course>
  <speed>0.0</speed>
  <fix>3d</fix>
</trkpt>
<trkpt lat="40.0713749" lon="-105.229789">
  <ele>1583.0</ele>
  <time>2026-08-28T17:52:08Z</time>
  <course>0.0</course>
  <speed>0.0</speed>
  <fix>3d</fix>
</trkpt>
<trkpt lat="40.0713749" lon="-105.229789">
  <ele>1583.0</ele>
  <time>2026-08-28T17:52:08Z</time>
  <course>246.41</course>
  <speed>0.0</speed>
  <fix>3d</fix>
</trkpt>
<trkpt lat="40.0713749" lon="-105.229789">
  <ele>1583.0</ele>
  <time>2026-08-28T17:52:08Z</time>
  <course>0.0</course>
  <speed>0.0</speed>
  <fix>3d</fix>
</trkpt>
<trkpt lat="40.0713749" lon="-105.229789">
  <ele>1583.0</ele>
  <time>2026-08-28T17:52:08Z</time>
  <course>246.51</course>
  <speed>0.0</speed>
  <fix>3d</fix>
</trkpt>
<trkpt lat="40.0713749" lon="-105.229789">
  <ele>1583.0</ele>
  <time>2026-08-28T17:52:08Z</time>
  <course>0.0</course>
  <speed>0.0</speed>
  <fix>3d</fix>
</trkpt>
<trkpt lat="40.0713749" lon="-105.229789">
  <ele>1583.0</ele>
  <time>2026-08-28T17:52:08Z</time>
  <course>246.6</course>
  <speed>0.0</speed>
  <fix>3d</fix>
</trkpt>
<trkpt lat="40.0713749" lon="-105.229789">
  <ele>1583.0</ele>
  <time>2026-08-28T17:52:08Z</time>
  <course>0.0</course>
  <speed>0.0</speed>
  <fix>3d</fix>
</trkpt>
<trkpt lat="40.0713749" lon="-105.229789">
  <ele>1583.0</ele>
  <time>2026-08-28T17:52:08Z</time>
  <course>246.7</course>
  <speed>0.0</speed>
  <fix>3d</fix>
</trkpt>
<trkpt lat="40.0713749" lon="-105.229789">
  <ele>1583.0</ele>
  <time>2026-08-28T17:52:08Z</time>
  <course>0.0</course>
  <speed>0.0</speed>
  <fix>3d</fix>
</trkpt>
<trkpt lat="40.0713749" lon="-105.229789">
  <ele>1583.0</ele>
  <time>2026-08-28T17:52:08Z</time>
  <course>246.78</course>
  <speed>0.0</speed>
  <fix>3d</fix>
</trkpt>
<trkpt lat="40.0713749" lon="-105.229789">
  <ele>1583.0</ele>
  <time>2026-08-28T17:52:08Z</time>
  <course>0.0</course>
  <speed>0.0</speed>
  <fix>3d</fix>
</trkpt>
<trkpt lat="40.0713749" lon="-105.229789">
  <ele>1583.0</ele>
  <time>2026-08-28T17:52:08Z</time>
  <course>246.87</course>
  <speed>0.0</speed>
  <fix>3d</fix>
</trkpt>
<trkpt lat="40.0713749" lon="-105.229789">
  <ele>1583.0</ele>
  <time>2026-08-28T17:52:08Z</time>
  <course>0.0</course>
  <speed>0.0</speed>
  <fix>3d</fix>
</trkpt>
<trkpt lat="40.0713749" lon="-105.229789">
  <ele>1583.0</ele>
  <time>2026-08-28T17:52:08Z</time>
  <course>246.95</course>
  <speed>0.0</speed>
  <fix>3d</fix>
</trkpt>
<trkpt lat="40.0713749" lon="-105.229789">
  <ele>1583.0</ele>
  <time>2026-08-28T17:52:08Z</time>
  <course>0.0</course>
  <speed>0.0</speed>
  <fix>3d</fix>
</trkpt>
<trkpt lat="40.0713749" lon="-105.229789">
  <ele>1583.0</ele>
  <time>2026-08-28T17:52:08Z</time>
  <course>247.02</course>
  <speed>0.0</speed>
  <fix>3d</fix>
</trkpt>
<trkpt lat="40.0713749" lon="-105.229789">
  <ele>1583.0</ele>
  <time>2026-08-28T17:52:08Z</time>
  <course>0.0</course>
  <speed>0.0</speed>
  <fix>3d</fix>
</trkpt>
<trkpt lat="40.0713749" lon="-105.229789">
  <ele>1583.0</ele>
  <time>2026-08-28T17:52:08Z</time>
  <course>247.1</course>
  <speed>0.0</speed>
  <fix>3d</fix>
</trkpt>
<trkpt lat="40.0713749" lon="-105.229789">
  <ele>1583.0</ele>
  <time>2026-08-28T17:52:08Z</time>
  <course>0.0</course>
  <speed>0.0</speed>
  <fix>3d</fix>
</trkpt>
<trkpt lat="40.0713749" lon="-105.229789">
  <ele>1583.0</ele>
  <time>2026-08-28T17:52:08Z</time>
  <course>247.17</course>
  <speed>0.0</speed>
  <fix>3d</fix>
</trkpt>
<trkpt lat="40.0713749" lon="-105.229789">
  <ele>1583.0</ele>
  <time>2026-08-28T17:52:08Z</time>
  <course>0.0</course>
  <speed>0.0</speed>
  <fix>3d</fix>
</trkpt>
<trkpt lat="40.0713749" lon="-105.229789">
  <ele>1583.0</ele>
  <time>2026-08-28T17:52:08Z</time>
  <course>247.24</course>
  <speed>0.0</speed>
  <fix>3d</fix>
</trkpt>
<trkpt lat="40.0713749" lon="-105.229789">
  <ele>1583.0</ele>
  <time>2026-08-28T17:52:08Z</time>
  <course>0.0</course>
  <speed>0.0</speed>
  <fix>3d</fix>
</trkpt>
<trkpt lat="40.0713749" lon="-105.229789">
  <ele>1583.0</ele>
  <time>2026-08-28T17:52:08Z</time>
  <course>247.3</course>
  <speed>0.0</speed>
  <fix>3d</fix>
</trkpt>
<trkpt lat="40.0713749" lon="-105.229789">
  <ele>1583.0</ele>
  <time>2026-08-28T17:52:08Z</time>
  <course>0.0</course>
  <speed>0.0</speed>
  <fix>3d</fix>
</trkpt>
<trkpt lat="40.0713749" lon="-105.229789">
  <ele>1583.0</ele>
  <time>2026-08-28T17:52:08Z</time>
  <course>247.36</course>
  <speed>0.0</speed>
  <fix>3d</fix>
</trkpt>
<trkpt lat="40.0713749" lon="-105.229789">
  <ele>1583.0</ele>
  <time>2026-08-28T17:52:08Z</time>
  <course>0.0</course>
  <speed>0.0</speed>
  <fix>3d</fix>
</trkpt>
<trkpt lat="40.0713749" lon="-105.229789">
  <ele>1583.0</ele>
  <time>2026-08-28T17:52:08Z</time>
  <course>247.42</course>
  <speed>0.0</speed>
  <fix>3d</fix>
</trkpt>
<trkpt lat="40.0713749" lon="-105.229789">
  <ele>1583.0</ele>
  <time>2026-08-28T17:52:08Z</time>
  <course>0.0</course>
  <speed>0.0</speed>
  <fix>3d</fix>
</trkpt>
<trkpt lat="40.0713749" lon="-105.229789">
  <ele>1583.0</ele>
  <time>2026-08-28T17:52:08Z</time>
  <course>247.47</course>
  <speed>0.0</speed>
  <fix>3d</fix>
</trkpt>
<trkpt lat="40.0713749" lon="-105.229789">
  <ele>1583.0</ele>
  <time>2026-08-28T17:52:08Z</time>
  <course>0.0</course>
  <speed>0.0</speed>
  <fix>3d</fix>
</trkpt>
<trkpt lat="40.0713749" lon="-105.229789">
  <ele>1583.0</ele>
  <time>2026-08-28T17:52:08Z</time>
  <course>247.53</course>
  <speed>0.0</speed>
  <fix>3d</fix>
</trkpt>
<trkpt lat="40.0713749" lon="-105.229789">
  <ele>1583.0</ele>
  <time>2026-08-28T17:52:08Z</time>
  <course>0.0</course>
  <speed>0.0</speed>
  <fix>3d</fix>
</trkpt>
<trkpt lat="40.0713749" lon="-105.229789">
  <ele>1583.0</ele>
  <time>2026-08-28T17:52:08Z</time>
  <course>247.58</course>
  <speed>0.0</speed>
  <fix>3d</fix>
</trkpt>
<trkpt lat="40.0713749" lon="-105.229789">
  <ele>1583.0</ele>
  <time>2026-08-28T17:52:08Z</time>
  <course>0.0</course>
  <speed>0.0</speed>
  <fix>3d</fix>
</trkpt>
<trkpt lat="40.0713749" lon="-105.229789">
  <ele>1583.0</ele>
  <time>2026-08-28T17:52:08Z</time>
  <course>247.63</course>
  <speed>0.0</speed>
  <fix>3d</fix>
</trkpt>
<trkpt lat="40.0713749" lon="-105.229789">
  <ele>1583.0</ele>
  <time>2026-08-28T17:52:08Z</time>
  <course>0.0</course>
  <speed>0.0</speed>
  <fix>3d</fix>
</trkpt>
<trkpt lat="40.0713749" lon="-105.229789">
  <ele>1583.0</ele>
  <time>2026-08-28T17:52:08Z</time>
  <course>247.67</course>
  <speed>0.0</speed>
  <fix>3d</fix>
</trkpt>
<trkpt lat="40.0713749" lon="-105.229789">
  <ele>1583.0</ele>
  <time>2026-08-28T17:52:08Z</time>
  <course>0.0</course>
  <speed>0.0</speed>
  <fix>3d</fix>
</trkpt>
<trkpt lat="40.0713749" lon="-105.229789">
  <ele>1583.0</ele>
  <time>2026-08-28T17:52:08Z</time>
  <course>247.72</course>
  <speed>0.0</speed>
  <fix>3d</fix>
</trkpt>
<trkpt lat="40.0713749" lon="-105.229789">
  <ele>1583.0</ele>
  <time>2026-08-28T17:52:08Z</time>
  <course>0.0</course>
  <speed>0.0</speed>
  <fix>3d</fix>
</trkpt>
<trkpt lat="40.0713749" lon="-105.229789">
  <ele>1583.0</ele>
  <time>2026-08-28T17:52:08Z</time>
  <course>247.76</course>
  <speed>0.0</speed>
  <fix>3d</fix>
</trkpt>
<trkpt lat="40.0713749" lon="-105.229789">
  <ele>1583.0</ele>
  <time>2026-08-28T17:52:08Z</time>
  <course>0.0</course>
  <speed>0.0</speed>
  <fix>3d</fix>
</trkpt>
<trkpt lat="40.0713749" lon="-105.229789">
  <ele>1583.0</ele>
  <time>2026-08-28T17:52:08Z</time>
  <course>247.8</course>
  <speed>0.0</speed>
  <fix>3d</fix>
</trkpt>
<trkpt lat="40.0713749" lon="-105.229789">
  <ele>1583.0</ele>
  <time>2026-08-28T17:52:08Z</time>
  <course>0.0</course>
  <speed>0.0</speed>
  <fix>3d</fix>
</trkpt>
<trkpt lat="40.0713749" lon="-105.229789">
  <ele>1583.0</ele>
  <time>2026-08-28T17:52:08Z</time>
  <course>247.83</course>
  <speed>0.0</speed>
  <fix>3d</fix>
</trkpt>
<trkpt lat="40.0713749" lon="-105.229789">
  <ele>1583.0</ele>
  <time>2026-08-28T17:52:08Z</time>
  <course>0.0</course>
  <speed>0.0</speed>
  <fix>3d</fix>
</trkpt>
<trkpt lat="40.0713749" lon="-105.229789">
  <ele>1583.0</ele>
  <time>2026-08-28T17:52:08Z</time>
  <course>247.87</course>
  <speed>0.0</speed>
  <fix>3d</fix>
</trkpt>
<trkpt lat="40.0713749" lon="-105.229789">
  <ele>1583.0</ele>
  <time>2026-08-28T17:52:08Z</time>
  <course>0.0</course>
  <speed>0.0</speed>
  <fix>3d</fix>
</trkpt>
<trkpt lat="40.0713749" lon="-105.229789">
  <ele>1583.0</ele>
  <time>2026-08-28T17:52:08Z</time>
  <course>247.9</course>
  <speed>0.0</speed>
  <fix>3d</fix>
</trkpt>
<trkpt lat="40.0713749" lon="-105.229789">
  <ele>1583.0</ele>
  <time>2026-08-28T17:52:08Z</time>
  <course>0.0</course>
  <speed>0.0</speed>
  <fix>3d</fix>
</trkpt>
<trkpt lat="40.0713749" lon="-105.229789">
  <ele>1583.0</ele>
  <time>2026-08-28T17:52:08Z</time>
  <course>247.94</course>
  <speed>0.0</speed>
  <fix>3d</fix>
</trkpt>
<trkpt lat="40.0713749" lon="-105.229789">
  <ele>1583.0</ele>
  <time>2026-08-28T17:52:08Z</time>
  <course>0.0</course>
  <speed>0.0</speed>
  <fix>3d</fix>
</trkpt>
<trkpt lat="40.0713749" lon="-105.229789">
  <ele>1583.0</ele>
  <time>2026-08-28T17:52:08Z</time>
  <course>247.97</course>
  <speed>0.0</speed>
  <fix>3d</fix>
</trkpt>
<trkpt lat="40.0713749" lon="-105.229789">
  <ele>1583.0</ele>
  <time>2026-08-28T17:52:08Z</time>
  <course>0.0</course>
  <speed>0.0</speed>
  <fix>3d</fix>
</trkpt>
<trkpt lat="40.0713749" lon="-105.229789">
  <ele>1583.0</ele>
  <time>2026-08-28T17:52:08Z</time>
  <course>248.0</course>
  <speed>0.0</speed>
  <fix>3d</fix>
</trkpt>
<trkpt lat="40.0713749" lon="-105.229789">
  <ele>1583.0</ele>
  <time>2026-08-28T17:52:08Z</time>
  <course>0.0</course>
  <speed>0.0</speed>
  <fix>3d</fix>
</trkpt>
<trkpt lat="40.0713749" lon="-105.229789">
  <ele>1583.0</ele>
  <time>2026-08-28T17:52:08Z</time>
  <course>248.02</course>
  <speed>0.0</speed>
  <fix>3d</fix>
</trkpt>
<trkpt lat="40.0713749" lon="-105.229789">
  <ele>1583.0</ele>
  <time>2026-08-28T17:52:08Z</time>
  <course>0.0</course>
  <speed>0.0</speed>
  <fix>3d</fix>
</trkpt>
<trkpt lat="40.0713749" lon="-105.229789">
  <ele>1583.0</ele>
  <time>2026-08-28T17:52:08Z</time>
  <course>248.05</course>
  <speed>0.0</speed>
  <fix>3d</fix>
</trkpt>
<trkpt lat="40.0713749" lon="-105.229789">
  <ele>1583.0</ele>
  <time>2026-08-28T17:52:08Z</time>
  <course>0.0</course>
  <speed>0.0</speed>
  <fix>3d</fix>
</trkpt>
<trkpt lat="40.0713749" lon="-105.229789">
  <ele>1583.0</ele>
  <time>2026-08-28T17:52:08Z</time>
  <course>248.08</course>
  <speed>0.0</speed>
  <fix>3d</fix>
</trkpt>
<trkpt lat="40.0713749" lon="-105.229789">
  <ele>1583.0</ele>
  <time>2026-08-28T17:52:08Z</time>
  <course>0.0</course>
  <speed>0.0</speed>
  <fix>3d</fix>
</trkpt>
<trkpt lat="40.0713749" lon="-105.229789">
  <ele>1583.0</ele>
  <time>2026-08-28T17:52:08Z</time>
  <course>248.1</course>
  <speed>0.0</speed>
  <fix>3d</fix>
</trkpt>
<trkpt lat="40.0713749" lon="-105.229789">
  <ele>1583.0</ele>
  <time>2026-08-28T17:52:08Z</time>
  <course>0.0</course>
  <speed>0.0</speed>
  <fix>3d</fix>
</trkpt>
<trkpt lat="40.0713749" lon="-105.229789">
  <ele>1583.0</ele>
  <time>2026-08-28T17:52:08Z</time>
  <course>248.12</course>
  <speed>0.0</speed>
  <fix>3d</fix>
</trkpt>
<trkpt lat="40.0713749" lon="-105.229789">
  <ele>1583.0</ele>
  <time>2026-08-28T17:52:08Z</time>
  <course>0.0</course>
  <speed>0.0</speed>
  <fix>3d</fix>
</trkpt>
<trkpt lat="40.0713749" lon="-105.229789">
  <ele>1583.0</ele>
  <time>2026-08-28T17:52:08Z</time>
  <course>248.14</course>
  <speed>0.0</speed>
  <fix>3d</fix>
</trkpt>
<trkpt lat="40.0713749" lon="-105.229789">
  <ele>1583.0</ele>
  <time>2026-08-28T17:52:08Z</time>
  <course>0.0</course>
  <speed>0.0</speed>
  <fix>3d</fix>
</trkpt>
<trkpt lat="40.0713749" lon="-105.229789">
  <ele>1583.0</ele>
  <time>2026-08-28T17:52:08Z</time>
  <course>248.16</course>
  <speed>0.0</speed>
  <fix>3d</fix>
</trkpt>
<trkpt lat="40.0713749" lon="-105.229789">
  <ele>1583.0</ele>
  <time>2026-08-28T17:52:08Z</time>
  <course>0.0</course>
  <speed>0.0</speed>
  <fix>3d</fix>
</trkpt>
<trkpt lat="40.0713749" lon="-105.229789">
  <ele>1583.0</ele>
  <time>2026-08-28T17:52:08Z</time>
  <course>248.18</course>
  <speed>0.0</speed>
  <fix>3d</fix>
</trkpt>
<trkpt lat="40.0713749" lon="-105.229789">
  <ele>1583.0</ele>
  <time>2026-08-28T17:52:08Z</time>
  <course>0.0</course>
  <speed>0.0</speed>
  <fix>3d</fix>
</trkpt>
<trkpt lat="40.0713749" lon="-105.229789">
  <ele>1583.0</ele>
  <time>2026-08-28T17:52:08Z</time>
  <course>248.2</course>
  <speed>0.0</speed>
  <fix>3d</fix>
</trkpt>
<trkpt lat="40.0713749" lon="-105.229789">
  <ele>1583.0</ele>
  <time>2026-08-28T17:52:08Z</time>
  <course>0.0</course>
  <speed>0.0</speed>
  <fix>3d</fix>
</trkpt>
<trkpt lat="40.0713749" lon="-105.229789">
  <ele>1583.0</ele>
  <time>2026-08-28T17:52:08Z</time>
  <course>248.22</course>
  <speed>0.0</speed>
  <fix>3d</fix>
</trkpt>
<trkpt lat="40.0713749" lon="-105.229789">
  <ele>1583.0</ele>
  <time>2026-08-28T17:52:08Z</time>
  <course>0.0</course>
  <speed>0.0</speed>
  <fix>3d</fix>
</trkpt>
<trkpt lat="40.0713749" lon="-105.229789">
  <ele>1583.0</ele>
  <time>2026-08-28T17:52:08Z</time>
  <course>248.23</course>
  <speed>0.0</speed>
  <fix>3d</fix>
</trkpt>
<trkpt lat="40.0713749" lon="-105.229789">
  <ele>1583.0</ele>
  <time>2026-08-28T17:52:08Z</time>
  <course>0.0</course>
  <speed>0.0</speed>
  <fix>3d</fix>
</trkpt>
<trkpt lat="40.0713749" lon="-105.229789">
  <ele>1583.0</ele>
  <time>2026-08-28T17:52:08Z</time>
  <course>248.25</course>
  <speed>0.0</speed>
  <fix>3d</fix>
</trkpt>
<trkpt lat="40.0713749" lon="-105.229789">
  <ele>1583.0</ele>
  <time>2026-08-28T17:52:08Z</time>
  <course>0.0</course>
  <speed>0.0</speed>
  <fix>3d</fix>
</trkpt>
<trkpt lat="40.0713749" lon="-105.229789">
  <ele>1583.0</ele>
  <time>2026-08-28T17:52:08Z</time>
  <course>248.26</course>
  <speed>0.0</speed>
  <fix>3d</fix>
</trkpt>
<trkpt lat="40.0713749" lon="-105.229789">
  <ele>1583.0</ele>
  <time>2026-08-28T17:52:08Z</time>
  <course>0.0</course>
  <speed>0.0</speed>
  <fix>3d</fix>
</trkpt>
<trkpt lat="40.0713749" lon="-105.229789">
  <ele>1583.0</ele>
  <time>2026-08-28T17:52:08Z</time>
  <course>248.28</course>
  <speed>0.0</speed>
  <fix>3d</fix>
</trkpt>
<trkpt lat="40.0713749" lon="-105.229789">
  <ele>1583.0</ele>
  <time>2026-08-28T17:52:08Z</time>
  <course>0.0</course>
  <speed>0.0</speed>
  <fix>3d</fix>
</trkpt>
<trkpt lat="40.0713749" lon="-105.229789">
  <ele>1583.0</ele>
  <time>2026-08-28T17:52:08Z</time>
  <course>248.29</course>
  <speed>0.0</speed>
  <fix>3d</fix>
</trkpt>
<trkpt lat="40.0713749" lon="-105.229789">
  <ele>1583.0</ele>
  <time>2026-08-28T17:52:08Z</time>
  <course>0.0</course>
  <speed>0.0</speed>
  <fix>3d</fix>
</trkpt>
<trkpt lat="40.0713749" lon="-105.229789">
  <ele>1583.0</ele>
  <time>2026-08-28T17:52:08Z</time>
  <course>248.3</course>
  <speed>0.0</speed>
  <fix>3d</fix>
</trkpt>
<trkpt lat="40.0713749" lon="-105.229789">
  <ele>1583.0</ele>
  <time>2026-08-28T17:52:08Z</time>
  <course>0.0</course>
  <speed>0.0</speed>
  <fix>3d</fix>
</trkpt>
<trkpt lat="40.0713749" lon="-105.229789">
  <ele>1583.0</ele>
  <time>2026-08-28T17:52:08Z</time>
  <course>248.31</course>
  <speed>0.0</speed>
  <fix>3d</fix>
</trkpt>
<trkpt lat="40.0713749" lon="-105.229789">
  <ele>1583.0</ele>
  <time>2026-08-28T17:52:08Z</time>
  <course>0.0</course>
  <speed>0.0</speed>
  <fix>3d</fix>
</trkpt>
<trkpt lat="40.0713749" lon="-105.229789">
  <ele>1583.0</ele>
  <time>2026-08-28T17:52:08Z</time>
  <course>248.32</course>
  <speed>0.0</speed>
  <fix>3d</fix>
</trkpt>
<trkpt lat="40.0713749" lon="-105.229789">
  <ele>1583.0</ele>
  <time>2026-08-28T17:52:08Z</time>
  <course>0.0</course>
  <speed>0.0</speed>
  <fix>3d</fix>
</trkpt>
<trkpt lat="40.0713749" lon="-105.229789">
  <ele>1583.0</ele>
  <time>2026-08-28T17:52:08Z</time>
  <course>248.33</course>
  <speed>0.0</speed>
  <fix>3d</fix>
</trkpt>
<trkpt lat="40.0713749" lon="-105.229789">
  <ele>1583.0</ele>
  <time>2026-08-28T17:52:08Z</time>
  <course>0.0</course>
  <speed>0.0</speed>
  <fix>3d</fix>
</trkpt>
<trkpt lat="40.0713749" lon="-105.229789">
  <ele>1583.0</ele>
  <time>2026-08-28T17:52:08Z</time>
  <course>248.34</course>
  <speed>0.0</speed>
  <fix>3d</fix>
</trkpt>
<trkpt lat="40.0713749" lon="-105.229789">
  <ele>1583.0</ele>
  <time>2026-08-28T17:52:08Z</time>
  <course>0.0</course>
  <speed>0.0</speed>
  <fix>3d</fix>
</trkpt>
<trkpt lat="40.0713749" lon="-105.229789">
  <ele>1583.0</ele>
  <time>2026-08-28T17:52:08Z</time>
  <course>248.35</course>
  <speed>0.0</speed>
  <fix>3d</fix>
</trkpt>
<trkpt lat="40.0713749" lon="-105.229789">
  <ele>1583.0</ele>
  <time>2026-08-28T17:52:08Z</time>
  <course>0.0</course>
  <speed>0.0</speed>
  <fix>3d</fix>
</trkpt>
<trkpt lat="40.0713749" lon="-105.229789">
  <ele>1583.0</ele>
  <time>2026-08-28T17:52:08Z</time>
  <course>248.35</course>
  <speed>0.0</speed>
  <fix>3d</fix>
</trkpt>
<trkpt lat="40.0713749" lon="-105.229789">
  <ele>1583.0</ele>
  <time>2026-08-28T17:52:08Z</time>
  <course>0.0</course>
  <speed>0.0</speed>
  <fix>3d</fix>
</trkpt>
<trkpt lat="40.0713749" lon="-105.229789">
  <ele>1583.0</ele>
  <time>2026-08-28T17:52:08Z</time>
  <course>248.36</course>
  <speed>0.0</speed>
  <fix>3d</fix>
</trkpt>
<trkpt lat="40.0713749" lon="-105.229789">
  <ele>1583.0</ele>
  <time>2026-08-28T17:52:08Z</time>
  <course>0.0</course>
  <speed>0.0</speed>
  <fix>3d</fix>
</trkpt>
<trkpt lat="40.0713749" lon="-105.229789">
  <ele>1583.0</ele>
  <time>2026-08-28T17:52:08Z</time>
  <course>248.37</course>
  <speed>0.0</speed>
  <fix>3d</fix>
</trkpt>
<trkpt lat="40.0713749" lon="-105.229789">
  <ele>1583.0</ele>
  <time>2026-08-28T17:52:08Z</time>
  <course>0.0</course>
  <speed>0.0</speed>
  <fix>3d</fix>
</trkpt>
<trkpt lat="40.0713749" lon="-105.229789">
  <ele>1583.0</ele>
  <time>2026-08-28T17:52:08Z</time>
  <course>248.37</course>
  <speed>0.0</speed>
  <fix>3d</fix>
</trkpt>
<trkpt lat="40.0713749" lon="-105.229789">
  <ele>1583.0</ele>
  <time>2026-08-28T17:52:08Z</time>
  <course>0.0</course>
  <speed>0.0</speed>
  <fix>3d</fix>
</trkpt>
<trkpt lat="40.0713749" lon="-105.229789">
  <ele>1583.0</ele>
  <time>2026-08-28T17:52:08Z</time>
  <course>248.38</course>
  <speed>0.0</speed>
  <fix>3d</fix>
</trkpt>
<trkpt lat="40.0713749" lon="-105.229789">
  <ele>1583.0</ele>
  <time>2026-08-28T17:52:08Z</time>
  <course>0.0</course>
  <speed>0.0</speed>
  <fix>3d</fix>
</trkpt>
<trkpt lat="40.0713749" lon="-105.229789">
  <ele>1583.0</ele>
  <time>2026-08-28T17:52:08Z</time>
  <course>248.38</course>
  <speed>0.0</speed>
  <fix>3d</fix>
</trkpt>
<trkpt lat="40.0713749" lon="-105.229789">
  <ele>1583.0</ele>
  <time>2026-08-28T17:52:08Z</time>
  <course>0.0</course>
  <speed>0.0</speed>
  <fix>3d</fix>
</trkpt>
<trkpt lat="40.0713749" lon="-105.229789">
  <ele>1583.0</ele>
  <time>2026-08-28T17:52:08Z</time>
  <course>248.39</course>
  <speed>0.0</speed>
  <fix>3d</fix>
</trkpt>
<trkpt lat="40.0713749" lon="-105.229789">
  <ele>1583.0</ele>
  <time>2026-08-28T17:52:08Z</time>
  <course>0.0</course>
  <speed>0.0</speed>
  <fix>3d</fix>
</trkpt>
<trkpt lat="40.0713749" lon="-105.229789">
  <ele>1583.0</ele>
  <time>2026-08-28T17:52:08Z</time>
  <course>248.39</course>
  <speed>0.0</speed>
  <fix>3d</fix>
</trkpt>
<trkpt lat="40.0713749" lon="-105.229789">
  <ele>1583.0</ele>
  <time>2026-08-28T17:52:08Z</time>
  <course>0.0</course>
  <speed>0.0</speed>
  <fix>3d</fix>
</trkpt>
<trkpt lat="40.0713749" lon="-105.229789">
  <ele>1583.0</ele>
  <time>2026-08-28T17:52:08Z</time>
  <course>248.4</course>
  <speed>0.0</speed>
  <fix>3d</fix>
</trkpt>
<trkpt lat="40.0713749" lon="-105.229789">
  <ele>1583.0</ele>
  <time>2026-08-28T17:52:08Z</time>
  <course>0.0</course>
  <speed>0.0</speed>
  <fix>3d</fix>
</trkpt>
<trkpt lat="40.0713749" lon="-105.229789">
  <ele>1583.0</ele>
  <time>2026-08-28T17:52:08Z</time>
  <course>248.4</course>
  <speed>0.0</speed>
  <fix>3d</fix>
</trkpt>
<trkpt lat="40.0713749" lon="-105.229789">
  <ele>1583.0</ele>
  <time>2026-08-28T17:52:08Z</time>
  <course>0.0</course>
  <speed>0.0</speed>
  <fix>3d</fix>
</trkpt>
<trkpt lat="40.0713749" lon="-105.229789">
  <ele>1583.0</ele>
  <time>2026-08-28T17:52:08Z</time>
  <course>248.4</course>
  <speed>0.0</speed>
  <fix>3d</fix>
</trkpt>
<trkpt lat="40.0713749" lon="-105.229789">
  <ele>1583.0</ele>
  <time>2026-08-28T17:52:08Z</time>
  <course>0.0</course>
  <speed>0.0</speed>
  <fix>3d</fix>
</trkpt>
<trkpt lat="40.0713749" lon="-105.229789">
  <ele>1583.0</ele>
  <time>2026-08-28T17:52:08Z</time>
  <course>248.4</course>
  <speed>0.0</speed>
  <fix>3d</fix>
</trkpt>
<trkpt lat="40.0713749" lon="-105.229789">
  <ele>1583.0</ele>
  <time>2026-08-28T17:52:08Z</time>
  <course>0.0</course>
  <speed>0.0</speed>
  <fix>3d</fix>
</trkpt>
<trkpt lat="40.0713749" lon="-105.229789">
  <ele>1583.0</ele>
  <time>2026-08-28T17:52:08Z</time>
  <course>248.41</course>
  <speed>0.0</speed>
  <fix>3d</fix>
</trkpt>
<trkpt lat="40.0713749" lon="-105.229789">
  <ele>1583.0</ele>
  <time>2026-08-28T17:52:08Z</time>
  <course>0.0</course>
  <speed>0.0</speed>
  <fix>3d</fix>
</trkpt>
<trkpt lat="40.0713749" lon="-105.229789">
  <ele>1583.0</ele>
  <time>2026-08-28T17:52:08Z</time>
  <course>248.41</course>
  <speed>0.0</speed>
  <fix>3d</fix>
</trkpt>
<trkpt lat="40.0713749" lon="-105.229789">
  <ele>1583.0</ele>
  <time>2026-08-28T17:52:08Z</time>
  <course>0.0</course>
  <speed>0.0</speed>
  <fix>3d</fix>
</trkpt>
<trkpt lat="40.0713749" lon="-105.229789">
  <ele>1583.0</ele>
  <time>2026-08-28T17:52:08Z</time>
  <course>248.41</course>
  <speed>0.0</speed>
  <fix>3d</fix>
</trkpt>
<trkpt lat="40.0713749" lon="-105.229789">
  <ele>1583.0</ele>
  <time>2026-08-28T17:52:08Z</time>
  <course>0.0</course>
  <speed>0.0</speed>
  <fix>3d</fix>
</trkpt>
<trkpt lat="40.0713749" lon="-105.229789">
  <ele>1583.0</ele>
  <time>2026-08-28T17:52:08Z</time>
  <course>248.41</course>
  <speed>0.0</speed>
  <fix>3d</fix>
</trkpt>
<trkpt lat="40.0713749" lon="-105.229789">
  <ele>1583.0</ele>
  <time>2026-08-28T17:52:08Z</time>
  <course>0.0</course>
  <speed>0.0</speed>
  <fix>3d</fix>
</trkpt>
<trkpt lat="40.0713749" lon="-105.229789">
  <ele>1583.0</ele>
  <time>2026-08-28T17:52:08Z</time>
  <course>248.41</course>
  <speed>0.0</speed>
  <fix>3d</fix>
</trkpt>
<trkpt lat="40.0713749" lon="-105.229789">
  <ele>1583.0</ele>
  <time>2026-08-28T17:52:08Z</time>
  <course>0.0</course>
  <speed>0.0</speed>
  <fix>3d</fix>
</trkpt>
<trkpt lat="40.0713749" lon="-105.229789">
  <ele>1583.0</ele>
  <time>2026-08-28T17:52:08Z</time>
  <course>248.41</course>
  <speed>0.0</speed>
  <fix>3d</fix>
</trkpt>
<trkpt lat="40.0713749" lon="-105.229789">
  <ele>1583.0</ele>
  <time>2026-08-28T17:52:08Z</time>
  <course>0.0</course>
  <speed>0.0</speed>
  <fix>3d</fix>
</trkpt>
<trkpt lat="40.0713749" lon="-105.229789">
  <ele>1583.0</ele>
  <time>2026-08-28T17:52:08Z</time>
  <course>248.41</course>
  <speed>0.0</speed>
  <fix>3d</fix>
</trkpt>
<trkpt lat="40.0713749" lon="-105.229789">
  <ele>1583.0</ele>
  <time>2026-08-28T17:52:08Z</time>
  <course>0.0</course>
  <speed>0.0</speed>
  <fix>3d</fix>
</trkpt>
<trkpt lat="40.0713749" lon="-105.229789">
  <ele>1583.0</ele>
  <time>2026-08-28T17:52:08Z</time>
  <course>248.41</course>
  <speed>0.0</speed>
  <fix>3d</fix>
</trkpt>
<trkpt lat="40.0713749" lon="-105.229789">
  <ele>1583.0</ele>
  <time>2026-08-28T17:52:08Z</time>
  <course>0.0</course>
  <speed>0.0</speed>
  <fix>3d</fix>
</trkpt>
<trkpt lat="40.0713749" lon="-105.229789">
  <ele>1583.0</ele>
  <time>2026-08-28T17:52:08Z</time>
  <course>248.41</course>
  <speed>0.0</speed>
  <fix>3d</fix>
</trkpt>
<trkpt lat="40.0713749" lon="-105.229789">
  <ele>1583.0</ele>
  <time>2026-08-28T17:52:08Z</time>
  <course>0.0</course>
  <speed>0.0</speed>
  <fix>3d</fix>
</trkpt>
<trkpt lat="40.0713749" lon="-105.229789">
  <ele>1583.0</ele>
  <time>2026-08-28T17:52:08Z</time>
  <course>248.41</course>
  <speed>0.0</speed>
  <fix>3d</fix>
</trkpt>
<trkpt lat="40.0713749" lon="-105.229789">
  <ele>1583.0</ele>
  <time>2026-08-28T17:52:08Z</time>
  <course>0.0</course>
  <speed>0.0</speed>
  <fix>3d</fix>
</trkpt>
<trkpt lat="40.0713749" lon="-105.229789">
  <ele>1583.0</ele>
  <time>2026-08-28T17:52:08Z</time>
  <course>248.41</course>
  <speed>0.0</speed>
  <fix>3d</fix>
</trkpt>
<trkpt lat="40.0713749" lon="-105.229789">
  <ele>1583.0</ele>
  <time>2026-08-28T17:52:08Z</time>
  <course>0.0</course>
  <speed>0.0</speed>
  <fix>3d</fix>
</trkpt>
<trkpt lat="40.0713749" lon="-105.229789">
  <ele>1583.0</ele>
  <time>2026-08-28T17:52:08Z</time>
  <course>248.41</course>
  <speed>0.0</speed>
  <fix>3d</fix>
</trkpt>
<trkpt lat="40.0713749" lon="-105.229789">
  <ele>1583.0</ele>
  <time>2026-08-28T17:52:08Z</time>
  <course>0.0</course>
  <speed>0.0</speed>
  <fix>3d</fix>
</trkpt>
<trkpt lat="40.0713749" lon="-105.229789">
  <ele>1583.0</ele>
  <time>2026-08-28T17:52:08Z</time>
  <course>248.41</course>
  <speed>0.0</speed>
  <fix>3d</fix>
</trkpt>
<trkpt lat="40.0713749" lon="-105.229789">
  <ele>1583.0</ele>
  <time>2026-08-28T17:52:08Z</time>
  <course>0.0</course>
  <speed>0.0</speed>
  <fix>3d</fix>
</trkpt>
<trkpt lat="40.0713749" lon="-105.229789">
  <ele>1583.0</ele>
  <time>2026-08-28T17:52:08Z</time>
  <course>248.41</course>
  <speed>0.0</speed>
  <fix>3d</fix>
</trkpt>
<trkpt lat="40.0713749" lon="-105.229789">
  <ele>1583.0</ele>
  <time>2026-08-28T17:52:08Z</time>
  <course>0.0</course>
  <speed>0.0</speed>
  <fix>3d</fix>
</trkpt>
<trkpt lat="40.0713749" lon="-105.229789">
  <ele>1583.0</ele>
  <time>2026-08-28T17:52:08Z</time>
  <course>248.41</course>
  <speed>0.0</speed>
  <fix>3d</fix>
</trkpt>
<trkpt lat="40.0713749" lon="-105.229789">
  <ele>1583.0</ele>
  <time>2026-08-28T17:52:08Z</time>
  <course>0.0</course>
  <speed>0.0</speed>
  <fix>3d</fix>
</trkpt>
<trkpt lat="40.0713749" lon="-105.229789">
  <ele>1583.0</ele>
  <time>2026-08-28T17:52:08Z</time>
  <course>248.41</course>
  <speed>0.0</speed>
  <fix>3d</fix>
</trkpt>
<trkpt lat="40.0713749" lon="-105.229789">
  <ele>1583.0</ele>
  <time>2026-08-28T17:52:08Z</time>
  <course>0.0</course>
  <speed>0.0</speed>
  <fix>3d</fix>
</trkpt>
<trkpt lat="40.0713749" lon="-105.229789">
  <ele>1583.0</ele>
  <time>2026-08-28T17:52:08Z</time>
  <course>248.4</course>
  <speed>0.0</speed>
  <fix>3d</fix>
</trkpt>
<trkpt lat="40.0713749" lon="-105.229789">
  <ele>1583.0</ele>
  <time>2026-08-28T17:52:08Z</time>
  <course>0.0</course>
  <speed>0.0</speed>
  <fix>3d</fix>
</trkpt>
<trkpt lat="40.0713749" lon="-105.229789">
  <ele>1583.0</ele>
  <time>2026-08-28T17:52:08Z</time>
  <course>248.4</course>
  <speed>0.01</speed>
  <fix>3d</fix>
</trkpt>
<trkpt lat="40.0713749" lon="-105.229789">
  <ele>1583.0</ele>
  <time>2026-08-28T17:52:08Z</time>
  <course>0.0</course>
  <speed>0.0</speed>
  <fix>3d</fix>
</trkpt>
<trkpt lat="40.0713749" lon="-105.229789">
  <ele>1583.0</ele>
  <time>2026-08-28T17:52:08Z</time>
  <course>248.4</course>
  <speed>0.01</speed>
  <fix>3d</fix>
</trkpt>
<trkpt lat="40.0713749" lon="-105.229789">
  <ele>1583.0</ele>
  <time>2026-08-28T17:52:08Z</time>
  <course>0.0</course>
  <speed>0.0</speed>
  <fix>3d</fix>
</trkpt>
<trkpt lat="40.0713749" lon="-105.229789">
  <ele>1583.0</ele>
  <time>2026-08-28T17:52:08Z</time>
  <course>248.4</course>
  <speed>0.01</speed>
  <fix>3d</fix>
</trkpt>
<trkpt lat="40.0713749" lon="-105.229789">
  <ele>1583.0</ele>
  <time>2026-08-28T17:52:08Z</time>
  <course>0.0</course>
  <speed>0.0</speed>
  <fix>3d</fix>
</trkpt>
<trkpt lat="40.0713749" lon="-105.229789">
  <ele>1583.0</ele>
  <time>2026-08-28T17:52:08Z</time>
  <course>248.4</course>
  <speed>0.01</speed>
  <fix>3d</fix>
</trkpt>
<trkpt lat="40.0713749" lon="-105.229789">
  <ele>1583.0</ele>
  <time>2026-08-28T17:52:08Z</time>
  <course>0.0</course>
  <speed>0.0</speed>
  <fix>3d</fix>
</trkpt>
<trkpt lat="40.0713749" lon="-105.229789">
  <ele>1583.0</ele>
  <time>2026-08-28T17:52:08Z</time>
  <course>248.39</course>
  <speed>0.01</speed>
  <fix>3d</fix>
</trkpt>
<trkpt lat="40.0713749" lon="-105.229789">
  <ele>1583.0</ele>
  <time>2026-08-28T17:52:08Z</time>
  <course>0.0</course>
  <speed>0.0</speed>
  <fix>3d</fix>
</trkpt>
<trkpt lat="40.0713749" lon="-105.229789">
  <ele>1583.0</ele>
  <time>2026-08-28T17:52:08Z</time>
  <course>248.39</course>
  <speed>0.01</speed>
  <fix>3d</fix>
</trkpt>
<trkpt lat="40.0713749" lon="-105.229789">
  <ele>1583.0</ele>
  <time>2026-08-28T17:52:08Z</time>
  <course>0.0</course>
  <speed>0.0</speed>
  <fix>3d</fix>
</trkpt>
<trkpt lat="40.0713749" lon="-105.229789">
  <ele>1583.0</ele>
  <time>2026-08-28T17:52:08Z</time>
  <course>248.39</course>
  <speed>0.01</speed>
  <fix>3d</fix>
</trkpt>
<trkpt lat="40.0713749" lon="-105.229789">
  <ele>1583.0</ele>
  <time>2026-08-28T17:52:08Z</time>
  <course>0.0</course>
  <speed>0.0</speed>
  <fix>3d</fix>
</trkpt>
<trkpt lat="40.0713749" lon="-105.229789">
  <ele>1583.0</ele>
  <time>2026-08-28T17:52:08Z</time>
  <course>248.38</course>
  <speed>0.01</speed>
  <fix>3d</fix>
</trkpt>
<trkpt lat="40.0713749" lon="-105.229789">
  <ele>1583.0</ele>
  <time>2026-08-28T17:52:08Z</time>
  <course>0.0</course>
  <speed>0.0</speed>
  <fix>3d</fix>
</trkpt>
<trkpt lat="40.0713749" lon="-105.229789">
  <ele>1583.0</ele>
  <time>2026-08-28T17:52:08Z</time>
  <course>248.38</course>
  <speed>0.01</speed>
  <fix>3d</fix>
</trkpt>
<trkpt lat="40.0713749" lon="-105.229789">
  <ele>1583.0</ele>
  <time>2026-08-28T17:52:08Z</time>
  <course>0.0</course>
  <speed>0.0</speed>
  <fix>3d</fix>
</trkpt>
<trkpt lat="40.0713749" lon="-105.229789">
  <ele>1583.0</ele>
  <time>2026-08-28T17:52:08Z</time>
  <course>248.38</course>
  <speed>0.01</speed>
  <fix>3d</fix>
</trkpt>
<trkpt lat="40.0713749" lon="-105.229789">
  <ele>1583.0</ele>
  <time>2026-08-28T17:52:08Z</time>
  <course>0.0</course>
  <speed>0.0</speed>
  <fix>3d</fix>
</trkpt>
<trkpt lat="40.0713749" lon="-105.229789">
  <ele>1583.0</ele>
  <time>2026-08-28T17:52:08Z</time>
  <course>248.37</course>
  <speed>0.01</speed>
  <fix>3d</fix>
</trkpt>
<trkpt lat="40.0713749" lon="-105.229789">
  <ele>1583.0</ele>
  <time>2026-08-28T17:52:08Z</time>
  <course>0.0</course>
  <speed>0.0</speed>
  <fix>3d</fix>
</trkpt>
<trkpt lat="40.0713749" lon="-105.229789">
  <ele>1583.0</ele>
  <time>2026-08-28T17:52:08Z</time>
  <course>248.37</course>
  <speed>0.01</speed>
  <fix>3d</fix>
</trkpt>
<trkpt lat="40.0713749" lon="-105.229789">
  <ele>1583.0</ele>
  <time>2026-08-28T17:52:08Z</time>
  <course>0.0</course>
  <speed>0.0</speed>
  <fix>3d</fix>
</trkpt>
<trkpt lat="40.0713749" lon="-105.229789">
  <ele>1583.0</ele>
  <time>2026-08-28T17:52:08Z</time>
  <course>248.37</course>
  <speed>0.01</speed>
  <fix>3d</fix>
</trkpt>
<trkpt lat="40.0713749" lon="-105.229789">
  <ele>1583.0</ele>
  <time>2026-08-28T17:52:08Z</time>
  <course>0.0</course>
  <speed>0.0</speed>
  <fix>3d</fix>
</trkpt>
<trkpt lat="40.0713749" lon="-105.229789">
  <ele>1583.0</ele>
  <time>2026-08-28T17:52:08Z</time>
  <course>248.36</course>
  <speed>0.01</speed>
  <fix>3d</fix>
</trkpt>
<trkpt lat="40.0713749" lon="-105.229789">
  <ele>1583.0</ele>
  <time>2026-08-28T17:52:08Z</time>
  <course>0.0</course>
  <speed>0.0</speed>
  <fix>3d</fix>
</trkpt>
<trkpt lat="40.0713749" lon="-105.229789">
  <ele>1583.0</ele>
  <time>2026-08-28T17:52:08Z</time>
  <course>248.36</course>
  <speed>0.01</speed>
  <fix>3d</fix>
</trkpt>
<trkpt lat="40.0713749" lon="-105.229789">
  <ele>1583.0</ele>
  <time>2026-08-28T17:52:08Z</time>
  <course>0.0</course>
  <speed>0.0</speed>
  <fix>3d</fix>
</trkpt>
<trkpt lat="40.0713749" lon="-105.229789">
  <ele>1583.0</ele>
  <time>2026-08-28T17:52:08Z</time>
  <course>248.36</course>
  <speed>0.01</speed>
  <fix>3d</fix>
</trkpt>
<trkpt lat="40.0713749" lon="-105.229789">
  <ele>1583.0</ele>
  <time>2026-08-28T17:52:08Z</time>
  <course>0.0</course>
  <speed>0.0</speed>
  <fix>3d</fix>
</trkpt>
<trkpt lat="40.0713749" lon="-105.229789">
  <ele>1583.0</ele>
  <time>2026-08-28T17:52:08Z</time>
  <course>248.35</course>
  <speed>0.01</speed>
  <fix>3d</fix>
</trkpt>
<trkpt lat="40.0713749" lon="-105.229789">
  <ele>1583.0</ele>
  <time>2026-08-28T17:52:08Z</time>
  <course>0.0</course>
  <speed>0.0</speed>
  <fix>3d</fix>
</trkpt>
<trkpt lat="40.0713749" lon="-105.229789">
  <ele>1583.0</ele>
  <time>2026-08-28T17:52:08Z</time>
  <course>248.35</course>
  <speed>0.01</speed>
  <fix>3d</fix>
</trkpt>
<trkpt lat="40.0713749" lon="-105.229789">
  <ele>1583.0</ele>
  <time>2026-08-28T17:52:08Z</time>
  <course>0.0</course>
  <speed>0.0</speed>
  <fix>3d</fix>
</trkpt>
<trkpt lat="40.0713749" lon="-105.229789">
  <ele>1583.0</ele>
  <time>2026-08-28T17:52:08Z</time>
  <course>248.35</course>
  <speed>0.01</speed>
  <fix>3d</fix>
</trkpt>
<trkpt lat="40.0713749" lon="-105.229789">
  <ele>1583.0</ele>
  <time>2026-08-28T17:52:08Z</time>
  <course>0.0</course>
  <speed>0.0</speed>
  <fix>3d</fix>
</trkpt>
<trkpt lat="40.0713749" lon="-105.229789">
  <ele>1583.0</ele>
  <time>2026-08-28T17:52:08Z</time>
  <course>248.34</course>
  <speed>0.01</speed>
  <fix>3d</fix>
</trkpt>
<trkpt lat="40.0713749" lon="-105.229789">
  <ele>1583.0</ele>
  <time>2026-08-28T17:52:08Z</time>
  <course>0.0</course>
  <speed>0.0</speed>
  <fix>3d</fix>
</trkpt>
<trkpt lat="40.0713749" lon="-105.229789">
  <ele>1583.0</ele>
  <time>2026-08-28T17:52:08Z</time>
  <course>248.34</course>
  <speed>0.01</speed>
  <fix>3d</fix>
</trkpt>
<trkpt lat="40.0713749" lon="-105.229789">
  <ele>1583.0</ele>
  <time>2026-08-28T17:52:08Z</time>
  <course>0.0</course>
  <speed>0.0</speed>
  <fix>3d</fix>
</trkpt>
<trkpt lat="40.0713749" lon="-105.229789">
  <ele>1583.0</ele>
  <time>2026-08-28T17:52:08Z</time>
  <course>248.33</course>
  <speed>0.01</speed>
  <fix>3d</fix>
</trkpt>
<trkpt lat="40.0713749" lon="-105.229789">
  <ele>1583.0</ele>
  <time>2026-08-28T17:52:08Z</time>
  <course>0.0</course>
  <speed>0.0</speed>
  <fix>3d</fix>
</trkpt>
<trkpt lat="40.0713749" lon="-105.229789">
  <ele>1583.0</ele>
  <time>2026-08-28T17:52:08Z</time>
  <course>248.33</course>
  <speed>0.01</speed>
  <fix>3d</fix>
</trkpt>
<trkpt lat="40.0713749" lon="-105.229789">
  <ele>1583.0</ele>
  <time>2026-08-28T17:52:08Z</time>
  <course>0.0</course>
  <speed>0.0</speed>
  <fix>3d</fix>
</trkpt>
<trkpt lat="40.0713749" lon="-105.229789">
  <ele>1583.0</ele>
  <time>2026-08-28T17:52:08Z</time>
  <course>248.32</course>
  <speed>0.01</speed>
  <fix>3d</fix>
</trkpt>
<trkpt lat="40.0713749" lon="-105.229789">
  <ele>1583.0</ele>
  <time>2026-08-28T17:52:08Z</time>
  <course>0.0</course>
  <speed>0.0</speed>
  <fix>3d</fix>
</trkpt>
<trkpt lat="40.0713749" lon="-105.229789">
  <ele>1583.0</ele>
  <time>2026-08-28T17:52:08Z</time>
  <course>248.32</course>
  <speed>0.01</speed>
  <fix>3d</fix>
</trkpt>
<trkpt lat="40.0713749" lon="-105.229789">
  <ele>1583.0</ele>
  <time>2026-08-28T17:52:08Z</time>
  <course>0.0</course>
  <speed>0.0</speed>
  <fix>3d</fix>
</trkpt>
<trkpt lat="40.0713749" lon="-105.229789">
  <ele>1583.0</ele>
  <time>2026-08-28T17:52:08Z</time>
  <course>248.32</course>
  <speed>0.01</speed>
  <fix>3d</fix>
</trkpt>
<trkpt lat="40.0713749" lon="-105.229789">
  <ele>1583.0</ele>
  <time>2026-08-28T17:52:08Z</time>
  <course>0.0</course>
  <speed>0.0</speed>
  <fix>3d</fix>
</trkpt>
<trkpt lat="40.0713749" lon="-105.229789">
  <ele>1583.0</ele>
  <time>2026-08-28T17:52:08Z</time>
  <course>248.31</course>
  <speed>0.01</speed>
  <fix>3d</fix>
</trkpt>
<trkpt lat="40.0713749" lon="-105.229789">
  <ele>1583.0</ele>
  <time>2026-08-28T17:52:08Z</time>
  <course>0.0</course>
  <speed>0.0</speed>
  <fix>3d</fix>
</trkpt>
<trkpt lat="40.0713749" lon="-105.229789">
  <ele>1583.0</ele>
  <time>2026-08-28T17:52:08Z</time>
  <course>248.31</course>
  <speed>0.01</speed>
  <fix>3d</fix>
</trkpt>
<trkpt lat="40.0713749" lon="-105.229789">
  <ele>1583.0</ele>
  <time>2026-08-28T17:52:08Z</time>
  <course>0.0</course>
  <speed>0.0</speed>
  <fix>3d</fix>
</trkpt>
<trkpt lat="40.0713749" lon="-105.229789">
  <ele>1583.0</ele>
  <time>2026-08-28T17:52:08Z</time>
  <course>248.3</course>
  <speed>0.01</speed>
  <fix>3d</fix>
</trkpt>
<trkpt lat="40.0713749" lon="-105.229789">
  <ele>1583.0</ele>
  <time>2026-08-28T17:52:08Z</time>
  <course>0.0</course>
  <speed>0.0</speed>
  <fix>3d</fix>
</trkpt>
<trkpt lat="40.0713749" lon="-105.229789">
  <ele>1583.0</ele>
  <time>2026-08-28T17:52:08Z</time>
  <course>248.3</course>
  <speed>0.01</speed>
  <fix>3d</fix>
</trkpt>
<trkpt lat="40.0713749" lon="-105.229789">
  <ele>1583.0</ele>
  <time>2026-08-28T17:52:08Z</time>
  <course>0.0</course>
  <speed>0.0</speed>
  <fix>3d</fix>
</trkpt>
<trkpt lat="40.0713749" lon="-105.229789">
  <ele>1583.0</ele>
  <time>2026-08-28T17:52:08Z</time>
  <course>248.29</course>
  <speed>0.01</speed>
  <fix>3d</fix>
</trkpt>
<trkpt lat="40.0713749" lon="-105.229789">
  <ele>1583.0</ele>
  <time>2026-08-28T17:52:08Z</time>
  <course>0.0</course>
  <speed>0.0</speed>
  <fix>3d</fix>
</trkpt>
<trkpt lat="40.0713749" lon="-105.229789">
  <ele>1583.0</ele>
  <time>2026-08-28T17:52:08Z</time>
  <course>248.29</course>
  <speed>0.01</speed>
  <fix>3d</fix>
</trkpt>
<trkpt lat="40.0713749" lon="-105.229789">
  <ele>1583.0</ele>
  <time>2026-08-28T17:52:08Z</time>
  <course>0.0</course>
  <speed>0.0</speed>
  <fix>3d</fix>
</trkpt>
<trkpt lat="40.0713749" lon="-105.229789">
  <ele>1583.0</ele>
  <time>2026-08-28T17:52:08Z</time>
  <course>248.28</course>
  <speed>0.01</speed>
  <fix>3d</fix>
</trkpt>
<trkpt lat="40.0713749" lon="-105.229789">
  <ele>1583.0</ele>
  <time>2026-08-28T17:52:08Z</time>
  <course>0.0</course>
  <speed>0.0</speed>
  <fix>3d</fix>
</trkpt>
<trkpt lat="40.0713749" lon="-105.229789">
  <ele>1583.0</ele>
  <time>2026-08-28T17:52:08Z</time>
  <course>248.28</course>
  <speed>0.01</speed>
  <fix>3d</fix>
</trkpt>
<trkpt lat="40.0713749" lon="-105.229789">
  <ele>1583.0</ele>
  <time>2026-08-28T17:52:08Z</time>
  <course>0.0</course>
  <speed>0.0</speed>
  <fix>3d</fix>
</trkpt>
<trkpt lat="40.0713749" lon="-105.229789">
  <ele>1583.0</ele>
  <time>2026-08-28T17:52:08Z</time>
  <course>248.27</course>
  <speed>0.01</speed>
  <fix>3d</fix>
</trkpt>
<trkpt lat="40.0713749" lon="-105.229789">
  <ele>1583.0</ele>
  <time>2026-08-28T17:52:08Z</time>
  <course>0.0</course>
  <speed>0.0</speed>
  <fix>3d</fix>
</trkpt>
<trkpt lat="40.0713749" lon="-105.229789">
  <ele>1583.0</ele>
  <time>2026-08-28T17:52:08Z</time>
  <course>248.27</course>
  <speed>0.01</speed>
  <fix>3d</fix>
</trkpt>
<trkpt lat="40.0713749" lon="-105.229789">
  <ele>1583.0</ele>
  <time>2026-08-28T17:52:08Z</time>
  <course>0.0</course>
  <speed>0.0</speed>
  <fix>3d</fix>
</trkpt>
<trkpt lat="40.0713749" lon="-105.229789">
  <ele>1583.0</ele>
  <time>2026-08-28T17:52:08Z</time>
  <course>248.26</course>
  <speed>0.01</speed>
  <fix>3d</fix>
</trkpt>
<trkpt lat="40.0713749" lon="-105.229789">
  <ele>1583.0</ele>
  <time>2026-08-28T17:52:08Z</time>
  <course>0.0</course>
  <speed>0.0</speed>
  <fix>3d</fix>
</trkpt>
<trkpt lat="40.0713749" lon="-105.229789">
  <ele>1583.0</ele>
  <time>2026-08-28T17:52:08Z</time>
  <course>248.26</course>
  <speed>0.01</speed>
  <fix>3d</fix>
</trkpt>
<trkpt lat="40.0713749" lon="-105.229789">
  <ele>1583.0</ele>
  <time>2026-08-28T17:52:08Z</time>
  <course>0.0</course>
  <speed>0.0</speed>
  <fix>3d</fix>
</trkpt>
<trkpt lat="40.0713749" lon="-105.229789">
  <ele>1583.0</ele>
  <time>2026-08-28T17:52:08Z</time>
  <course>248.26</course>
  <speed>0.01</speed>
  <fix>3d</fix>
</trkpt>
<trkpt lat="40.0713749" lon="-105.229789">
  <ele>1583.0</ele>
  <time>2026-08-28T17:52:08Z</time>
  <course>0.0</course>
  <speed>0.0</speed>
  <fix>3d</fix>
</trkpt>
<trkpt lat="40.0713749" lon="-105.229789">
  <ele>1583.0</ele>
  <time>2026-08-28T17:52:08Z</time>
  <course>248.25</course>
  <speed>0.01</speed>
  <fix>3d</fix>
</trkpt>
<trkpt lat="40.0713749" lon="-105.229789">
  <ele>1583.0</ele>
  <time>2026-08-28T17:52:08Z</time>
  <course>0.0</course>
  <speed>0.0</speed>
  <fix>3d</fix>
</trkpt>
<trkpt lat="40.0713749" lon="-105.229789">
  <ele>1583.0</ele>
  <time>2026-08-28T17:52:08Z</time>
  <course>248.25</course>
  <speed>0.01</speed>
  <fix>3d</fix>
</trkpt>
<trkpt lat="40.0713749" lon="-105.229789">
  <ele>1583.0</ele>
  <time>2026-08-28T17:52:08Z</time>
  <course>0.0</course>
  <speed>0.0</speed>
  <fix>3d</fix>
</trkpt>
<trkpt lat="40.0713749" lon="-105.229789">
  <ele>1583.0</ele>
  <time>2026-08-28T17:52:08Z</time>
  <course>248.24</course>
  <speed>0.01</speed>
  <fix>3d</fix>
</trkpt>
<trkpt lat="40.0713749" lon="-105.229789">
  <ele>1583.0</ele>
  <time>2026-08-28T17:52:08Z</time>
  <course>0.0</course>
  <speed>0.0</speed>
  <fix>3d</fix>
</trkpt>
<trkpt lat="40.0713749" lon="-105.229789">
  <ele>1583.0</ele>
  <time>2026-08-28T17:52:08Z</time>
  <course>248.24</course>
  <speed>0.01</speed>
  <fix>3d</fix>
</trkpt>
<trkpt lat="40.0713749" lon="-105.229789">
  <ele>1583.0</ele>
  <time>2026-08-28T17:52:08Z</time>
  <course>0.0</course>
  <speed>0.0</speed>
  <fix>3d</fix>
</trkpt>
<trkpt lat="40.0713749" lon="-105.229789">
  <ele>1583.0</ele>
  <time>2026-08-28T17:52:08Z</time>
  <course>248.23</course>
  <speed>0.01</speed>
  <fix>3d</fix>
</trkpt>
<trkpt lat="40.0713749" lon="-105.229789">
  <ele>1583.0</ele>
  <time>2026-08-28T17:52:08Z</time>
  <course>0.0</course>
  <speed>0.0</speed>
  <fix>3d</fix>
</trkpt>
<trkpt lat="40.0713749" lon="-105.229789">
  <ele>1583.0</ele>
  <time>2026-08-28T17:52:08Z</time>
  <course>248.23</course>
  <speed>0.01</speed>
  <fix>3d</fix>
</trkpt>
<trkpt lat="40.0713749" lon="-105.229789">
  <ele>1583.0</ele>
  <time>2026-08-28T17:52:08Z</time>
  <course>0.0</course>
  <speed>0.0</speed>
  <fix>3d</fix>
</trkpt>
<trkpt lat="40.0713749" lon="-105.229789">
  <ele>1583.0</ele>
  <time>2026-08-28T17:52:08Z</time>
  <course>248.22</course>
  <speed>0.01</speed>
  <fix>3d</fix>
</trkpt>
<trkpt lat="40.0713749" lon="-105.229789">
  <ele>1583.0</ele>
  <time>2026-08-28T17:52:08Z</time>
  <course>0.0</course>
  <speed>0.0</speed>
  <fix>3d</fix>
</trkpt>
<trkpt lat="40.0713749" lon="-105.229789">
  <ele>1583.0</ele>
  <time>2026-08-28T17:52:08Z</time>
  <course>248.22</course>
  <speed>0.01</speed>
  <fix>3d</fix>
</trkpt>
<trkpt lat="40.0713749" lon="-105.229789">
  <ele>1583.0</ele>
  <time>2026-08-28T17:52:08Z</time>
  <course>0.0</course>
  <speed>0.0</speed>
  <fix>3d</fix>
</trkpt>
<trkpt lat="40.0713749" lon="-105.229789">
  <ele>1583.0</ele>
  <time>2026-08-28T17:52:08Z</time>
  <course>248.21</course>
  <speed>0.01</speed>
  <fix>3d</fix>
</trkpt>
<trkpt lat="40.0713749" lon="-105.229789">
  <ele>1583.0</ele>
  <time>2026-08-28T17:52:08Z</time>
  <course>0.0</course>
  <speed>0.0</speed>
  <fix>3d</fix>
</trkpt>
<trkpt lat="40.0713749" lon="-105.229789">
  <ele>1583.0</ele>
  <time>2026-08-28T17:52:08Z</time>
  <course>248.21</course>
  <speed>0.01</speed>
  <fix>3d</fix>
</trkpt>
<trkpt lat="40.0713749" lon="-105.229789">
  <ele>1583.0</ele>
  <time>2026-08-28T17:52:08Z</time>
  <course>0.0</course>
  <speed>0.0</speed>
  <fix>3d</fix>
</trkpt>
<trkpt lat="40.0713749" lon="-105.229789">
  <ele>1583.0</ele>
  <time>2026-08-28T17:52:08Z</time>
  <course>248.2</course>
  <speed>0.01</speed>
  <fix>3d</fix>
</trkpt>
<trkpt lat="40.0713749" lon="-105.229789">
  <ele>1583.0</ele>
  <time>2026-08-28T17:52:08Z</time>
  <course>0.0</course>
  <speed>0.0</speed>
  <fix>3d</fix>
</trkpt>
<trkpt lat="40.0713749" lon="-105.229789">
  <ele>1583.0</ele>
  <time>2026-08-28T17:52:08Z</time>
  <course>248.2</course>
  <speed>0.01</speed>
  <fix>3d</fix>
</trkpt>
<trkpt lat="40.0713749" lon="-105.229789">
  <ele>1583.0</ele>
  <time>2026-08-28T17:52:08Z</time>
  <course>0.0</course>
  <speed>0.0</speed>
  <fix>3d</fix>
</trkpt>
<trkpt lat="40.0713749" lon="-105.229789">
  <ele>1583.0</ele>
  <time>2026-08-28T17:52:08Z</time>
  <course>248.19</course>
  <speed>0.01</speed>
  <fix>3d</fix>
</trkpt>
<trkpt lat="40.0713749" lon="-105.229789">
  <ele>1583.0</ele>
  <time>2026-08-28T17:52:08Z</time>
  <course>0.0</course>
  <speed>0.0</speed>
  <fix>3d</fix>
</trkpt>
<trkpt lat="40.0713749" lon="-105.229789">
  <ele>1583.0</ele>
  <time>2026-08-28T17:52:08Z</time>
  <course>248.19</course>
  <speed>0.01</speed>
  <fix>3d</fix>
</trkpt>
<trkpt lat="40.0713749" lon="-105.229789">
  <ele>1583.0</ele>
  <time>2026-08-28T17:52:08Z</time>
  <course>0.0</course>
  <speed>0.0</speed>
  <fix>3d</fix>
</trkpt>
<trkpt lat="40.0713749" lon="-105.229789">
  <ele>1583.0</ele>
  <time>2026-08-28T17:52:08Z</time>
  <course>248.18</course>
  <speed>0.01</speed>
  <fix>3d</fix>
</trkpt>
<trkpt lat="40.0713749" lon="-105.229789">
  <ele>1583.0</ele>
  <time>2026-08-28T17:52:08Z</time>
  <course>0.0</course>
  <speed>0.0</speed>
  <fix>3d</fix>
</trkpt>
<trkpt lat="40.0713749" lon="-105.229789">
  <ele>1583.0</ele>
  <time>2026-08-28T17:52:08Z</time>
  <course>248.18</course>
  <speed>0.01</speed>
  <fix>3d</fix>
</trkpt>
<trkpt lat="40.0713749" lon="-105.229789">
  <ele>1583.0</ele>
  <time>2026-08-28T17:52:08Z</time>
  <course>0.0</course>
  <speed>0.0</speed>
  <fix>3d</fix>
</trkpt>
<trkpt lat="40.0713749" lon="-105.229789">
  <ele>1583.0</ele>
  <time>2026-08-28T17:52:08Z</time>
  <course>248.17</course>
  <speed>0.022360679774997897</speed>
  <fix>3d</fix>
</trkpt>
<trkpt lat="40.0713749" lon="-105.229789">
  <ele>1583.0</ele>
  <time>2026-08-28T17:52:08Z</time>
  <course>0.0</course>
  <speed>0.0</speed>
  <fix>3d</fix>
</trkpt>
<trkpt lat="40.0713749" lon="-105.229789">
  <ele>1583.0</ele>
  <time>2026-08-28T17:52:08Z</time>
  <course>248.17</course>
  <speed>0.022360679774997897</speed>
  <fix>3d</fix>
</trkpt>
<trkpt lat="40.0713749" lon="-105.229789">
  <ele>1583.0</ele>
  <time>2026-08-28T17:52:08Z</time>
  <course>0.0</course>
  <speed>0.0</speed>
  <fix>3d</fix>
</trkpt>
<trkpt lat="40.0713749" lon="-105.229789">
  <ele>1583.0</ele>
  <time>2026-08-28T17:52:08Z</time>
  <course>248.16</course>
  <speed>0.022360679774997897</speed>
  <fix>3d</fix>
</trkpt>
<trkpt lat="40.0713749" lon="-105.229789">
  <ele>1583.0</ele>
  <time>2026-08-28T17:52:08Z</time>
  <course>0.0</course>
  <speed>0.0</speed>
  <fix>3d</fix>
</trkpt>
<trkpt lat="40.0713749" lon="-105.229789">
  <ele>1583.0</ele>
  <time>2026-08-28T17:52:08Z</time>
  <course>248.16</course>
  <speed>0.022360679774997897</speed>
  <fix>3d</fix>
</trkpt>
<trkpt lat="40.0713749" lon="-105.229789">
  <ele>1583.0</ele>
  <time>2026-08-28T17:52:08Z</time>
  <course>0.0</course>
  <speed>0.0</speed>
  <fix>3d</fix>
</trkpt>
<trkpt lat="40.0713749" lon="-105.229789">
  <ele>1583.0</ele>
  <time>2026-08-28T17:52:08Z</time>
  <course>248.15</course>
  <speed>0.022360679774997897</speed>
  <fix>3d</fix>
</trkpt>
<trkpt lat="40.0713749" lon="-105.229789">
  <ele>1583.0</ele>
  <time>2026-08-28T17:52:08Z</time>
  <course>0.0</course>
  <speed>0.0</speed>
  <fix>3d</fix>
</trkpt>
<trkpt lat="40.0713749" lon="-105.229789">
  <ele>1583.0</ele>
  <time>2026-08-28T17:52:08Z</time>
  <course>248.15</course>
  <speed>0.022360679774997897</speed>
  <fix>3d</fix>
</trkpt>
<trkpt lat="40.0713749" lon="-105.229789">
  <ele>1583.0</ele>
  <time>2026-08-28T17:52:08Z</time>
  <course>0.0</course>
  <speed>0.0</speed>
  <fix>3d</fix>
</trkpt>
<trkpt lat="40.0713749" lon="-105.229789">
  <ele>1583.0</ele>
  <time>2026-08-28T17:52:08Z</time>
  <course>248.14</course>
  <speed>0.022360679774997897</speed>
  <fix>3d</fix>
</trkpt>
<trkpt lat="40.0713749" lon="-105.229789">
  <ele>1583.0</ele>
  <time>2026-08-28T17:52:08Z</time>
  <course>0.0</course>
  <speed>0.0</speed>
  <fix>3d</fix>
</trkpt>
<trkpt lat="40.0713749" lon="-105.229789">
  <ele>1583.0</ele>
  <time>2026-08-28T17:52:08Z</time>
  <course>248.14</course>
  <speed>0.022360679774997897</speed>
  <fix>3d</fix>
</trkpt>
<trkpt lat="40.0713749" lon="-105.229789">
  <ele>1583.0</ele>
  <time>2026-08-28T17:52:08Z</time>
  <course>0.0</course>
  <speed>0.0</speed>
  <fix>3d</fix>
</trkpt>
<trkpt lat="40.0713749" lon="-105.229789">
  <ele>1583.0</ele>
  <time>2026-08-28T17:52:08Z</time>
  <course>248.13</course>
  <speed>0.022360679774997897</speed>
  <fix>3d</fix>
</trkpt>
<trkpt lat="40.0713749" lon="-105.229789">
  <ele>1583.0</ele>
  <time>2026-08-28T17:52:08Z</time>
  <course>0.0</course>
  <speed>0.0</speed>
  <fix>3d</fix>
</trkpt>
<trkpt lat="40.0713749" lon="-105.229789">
  <ele>1583.0</ele>
  <time>2026-08-28T17:52:08Z</time>
  <course>248.13</course>
  <speed>0.022360679774997897</speed>
  <fix>3d</fix>
</trkpt>
<trkpt lat="40.0713749" lon="-105.229789">
  <ele>1583.0</ele>
  <time>2026-08-28T17:52:08Z</time>
  <course>0.0</course>
  <speed>0.0</speed>
  <fix>3d</fix>
</trkpt>
<trkpt lat="40.0713749" lon="-105.229789">
  <ele>1583.0</ele>
  <time>2026-08-28T17:52:08Z</time>
  <course>248.12</course>
  <speed>0.022360679774997897</speed>
  <fix>3d</fix>
</trkpt>
<trkpt lat="40.0713749" lon="-105.229789">
  <ele>1583.0</ele>
  <time>2026-08-28T17:52:08Z</time>
  <course>0.0</course>
  <speed>0.0</speed>
  <fix>3d</fix>
</trkpt>
<trkpt lat="40.0713749" lon="-105.229789">
  <ele>1583.0</ele>
  <time>2026-08-28T17:52:08Z</time>
  <course>248.12</course>
  <speed>0.022360679774997897</speed>
  <fix>3d</fix>
</trkpt>
<trkpt lat="40.0713749" lon="-105.229789">
  <ele>1583.0</ele>
  <time>2026-08-28T17:52:08Z</time>
  <course>0.0</course>
  <speed>0.0</speed>
  <fix>3d</fix>
</trkpt>
<trkpt lat="40.0713749" lon="-105.229789">
  <ele>1583.0</ele>
  <time>2026-08-28T17:52:08Z</time>
  <course>248.11</course>
  <speed>0.022360679774997897</speed>
  <fix>3d</fix>
</trkpt>
<trkpt lat="40.0713749" lon="-105.229789">
  <ele>1583.0</ele>
  <time>2026-08-28T17:52:08Z</time>
  <course>0.0</course>
  <speed>0.0</speed>
  <fix>3d</fix>
</trkpt>
<trkpt lat="40.0713749" lon="-105.229789">
  <ele>1583.0</ele>
  <time>2026-08-28T17:52:08Z</time>
  <course>248.11</course>
  <speed>0.022360679774997897</speed>
  <fix>3d</fix>
</trkpt>
<trkpt lat="40.0713749" lon="-105.229789">
  <ele>1583.0</ele>
  <time>2026-08-28T17:52:08Z</time>
  <course>0.0</course>
  <speed>0.0</speed>
  <fix>3d</fix>
</trkpt>
<trkpt lat="40.0713749" lon="-105.229789">
  <ele>1583.0</ele>
  <time>2026-08-28T17:52:08Z</time>
  <course>248.1</course>
  <speed>0.022360679774997897</speed>
  <fix>3d</fix>
</trkpt>
<trkpt lat="40.0713749" lon="-105.229789">
  <ele>1583.0</ele>
  <time>2026-08-28T17:52:08Z</time>
  <course>0.0</course>
  <speed>0.0</speed>
  <fix>3d</fix>
</trkpt>
<trkpt lat="40.0713749" lon="-105.229789">
  <ele>1583.0</ele>
  <time>2026-08-28T17:52:08Z</time>
  <course>248.1</course>
  <speed>0.022360679774997897</speed>
  <fix>3d</fix>
</trkpt>
<trkpt lat="40.0713749" lon="-105.229789">
  <ele>1583.0</ele>
  <time>2026-08-28T17:52:08Z</time>
  <course>0.0</course>
  <speed>0.0</speed>
  <fix>3d</fix>
</trkpt>
<trkpt lat="40.0713749" lon="-105.229789">
  <ele>1583.0</ele>
  <time>2026-08-28T17:52:08Z</time>
  <course>248.09</course>
  <speed>0.022360679774997897</speed>
  <fix>3d</fix>
</trkpt>
<trkpt lat="40.0713749" lon="-105.229789">
  <ele>1583.0</ele>
  <time>2026-08-28T17:52:08Z</time>
  <course>0.0</course>
  <speed>0.0</speed>
  <fix>3d</fix>
</trkpt>
<trkpt lat="40.0713749" lon="-105.229789">
  <ele>1583.0</ele>
  <time>2026-08-28T17:52:08Z</time>
  <course>248.09</course>
  <speed>0.022360679774997897</speed>
  <fix>3d</fix>
</trkpt>
<trkpt lat="40.0713749" lon="-105.229789">
  <ele>1583.0</ele>
  <time>2026-08-28T17:52:08Z</time>
  <course>0.0</course>
  <speed>0.0</speed>
  <fix>3d</fix>
</trkpt>
<trkpt lat="40.0713749" lon="-105.229789">
  <ele>1583.0</ele>
  <time>2026-08-28T17:52:08Z</time>
  <course>248.08</course>
  <speed>0.022360679774997897</speed>
  <fix>3d</fix>
</trkpt>
<trkpt lat="40.0713749" lon="-105.229789">
  <ele>1583.0</ele>
  <time>2026-08-28T17:52:08Z</time>
  <course>0.0</course>
  <speed>0.0</speed>
  <fix>3d</fix>
</trkpt>
<trkpt lat="40.0713749" lon="-105.229789">
  <ele>1583.0</ele>
  <time>2026-08-28T17:52:08Z</time>
  <course>248.08</course>
  <speed>0.022360679774997897</speed>
  <fix>3d</fix>
</trkpt>
<trkpt lat="40.0713749" lon="-105.229789">
  <ele>1583.0</ele>
  <time>2026-08-28T17:52:08Z</time>
  <course>0.0</course>
  <speed>0.0</speed>
  <fix>3d</fix>
</trkpt>
<trkpt lat="40.0713749" lon="-105.229789">
  <ele>1583.0</ele>
  <time>2026-08-28T17:52:08Z</time>
  <course>248.07</course>
  <speed>0.022360679774997897</speed>
  <fix>3d</fix>
</trkpt>
<trkpt lat="40.0713749" lon="-105.229789">
  <ele>1583.0</ele>
  <time>2026-08-28T17:52:08Z</time>
  <course>0.0</course>
  <speed>0.0</speed>
  <fix>3d</fix>
</trkpt>
<trkpt lat="40.0713749" lon="-105.229789">
  <ele>1583.0</ele>
  <time>2026-08-28T17:52:08Z</time>
  <course>248.07</course>
  <speed>0.022360679774997897</speed>
  <fix>3d</fix>
</trkpt>
<trkpt lat="40.0713749" lon="-105.229789">
  <ele>1583.0</ele>
  <time>2026-08-28T17:52:08Z</time>
  <course>0.0</course>
  <speed>0.0</speed>
  <fix>3d</fix>
</trkpt>
<trkpt lat="40.0713749" lon="-105.229789">
  <ele>1583.0</ele>
  <time>2026-08-28T17:52:08Z</time>
  <course>248.06</course>
  <speed>0.022360679774997897</speed>
  <fix>3d</fix>
</trkpt>
<trkpt lat="40.0713749" lon="-105.229789">
  <ele>1583.0</ele>
  <time>2026-08-28T17:52:08Z</time>
  <course>0.0</course>
  <speed>0.0</speed>
  <fix>3d</fix>
</trkpt>
<trkpt lat="40.0713749" lon="-105.229789">
  <ele>1583.0</ele>
  <time>2026-08-28T17:52:08Z</time>
  <course>248.06</course>
  <speed>0.022360679774997897</speed>
  <fix>3d</fix>
</trkpt>
<trkpt lat="40.0713749" lon="-105.229789">
  <ele>1583.0</ele>
  <time>2026-08-28T17:52:08Z</time>
  <course>0.0</course>
  <speed>0.0</speed>
  <fix>3d</fix>
</trkpt>
<trkpt lat="40.0713749" lon="-105.229789">
  <ele>1583.0</ele>
  <time>2026-08-28T17:52:08Z</time>
  <course>248.05</course>
  <speed>0.022360679774997897</speed>
  <fix>3d</fix>
</trkpt>
<trkpt lat="40.0713749" lon="-105.229789">
  <ele>1583.0</ele>
  <time>2026-08-28T17:52:08Z</time>
  <course>0.0</course>
  <speed>0.0</speed>
  <fix>3d</fix>
</trkpt>
<trkpt lat="40.0713749" lon="-105.229789">
  <ele>1583.0</ele>
  <time>2026-08-28T17:52:08Z</time>
  <course>248.05</course>
  <speed>0.022360679774997897</speed>
  <fix>3d</fix>
</trkpt>
<trkpt lat="40.0713749" lon="-105.229789">
  <ele>1583.0</ele>
  <time>2026-08-28T17:52:08Z</time>
  <course>0.0</course>
  <speed>0.0</speed>
  <fix>3d</fix>
</trkpt>
<trkpt lat="40.0713749" lon="-105.229789">
  <ele>1583.0</ele>
  <time>2026-08-28T17:52:08Z</time>
  <course>248.05</course>
  <speed>0.022360679774997897</speed>
  <fix>3d</fix>
</trkpt>
<trkpt lat="40.0713749" lon="-105.229789">
  <ele>1583.0</ele>
  <time>2026-08-28T17:52:08Z</time>
  <course>0.0</course>
  <speed>0.0</speed>
  <fix>3d</fix>
</trkpt>
<trkpt lat="40.0713749" lon="-105.229789">
  <ele>1583.0</ele>
  <time>2026-08-28T17:52:08Z</time>
  <course>248.04</course>
  <speed>0.022360679774997897</speed>
  <fix>3d</fix>
</trkpt>
<trkpt lat="40.0713749" lon="-105.229789">
  <ele>1583.0</ele>
  <time>2026-08-28T17:52:08Z</time>
  <course>0.0</course>
  <speed>0.0</speed>
  <fix>3d</fix>
</trkpt>
<trkpt lat="40.0713749" lon="-105.229789">
  <ele>1583.0</ele>
  <time>2026-08-28T17:52:08Z</time>
  <course>248.04</course>
  <speed>0.022360679774997897</speed>
  <fix>3d</fix>
</trkpt>
<trkpt lat="40.0713749" lon="-105.229789">
  <ele>1583.0</ele>
  <time>2026-08-28T17:52:08Z</time>
  <course>0.0</course>
  <speed>0.0</speed>
  <fix>3d</fix>
</trkpt>
<trkpt lat="40.0713749" lon="-105.229789">
  <ele>1583.0</ele>
  <time>2026-08-28T17:52:08Z</time>
  <course>248.03</course>
  <speed>0.022360679774997897</speed>
  <fix>3d</fix>
</trkpt>
<trkpt lat="40.0713749" lon="-105.229789">
  <ele>1583.0</ele>
  <time>2026-08-28T17:52:08Z</time>
  <course>0.0</course>
  <speed>0.0</speed>
  <fix>3d</fix>
</trkpt>
<trkpt lat="40.0713749" lon="-105.229789">
  <ele>1583.0</ele>
  <time>2026-08-28T17:52:08Z</time>
  <course>248.03</course>
  <speed>0.022360679774997897</speed>
  <fix>3d</fix>
</trkpt>
<trkpt lat="40.0713749" lon="-105.229789">
  <ele>1583.0</ele>
  <time>2026-08-28T17:52:08Z</time>
  <course>0.0</course>
  <speed>0.0</speed>
  <fix>3d</fix>
</trkpt>
<trkpt lat="40.0713749" lon="-105.229789">
  <ele>1583.0</ele>
  <time>2026-08-28T17:52:08Z</time>
  <course>248.02</course>
  <speed>0.022360679774997897</speed>
  <fix>3d</fix>
</trkpt>
<trkpt lat="40.0713749" lon="-105.229789">
  <ele>1583.0</ele>
  <time>2026-08-28T17:52:08Z</time>
  <course>0.0</course>
  <speed>0.0</speed>
  <fix>3d</fix>
</trkpt>
<trkpt lat="40.0713749" lon="-105.229789">
  <ele>1583.0</ele>
  <time>2026-08-28T17:52:08Z</time>
  <course>248.02</course>
  <speed>0.022360679774997897</speed>
  <fix>3d</fix>
</trkpt>
<trkpt lat="40.0713749" lon="-105.229789">
  <ele>1583.0</ele>
  <time>2026-08-28T17:52:08Z</time>
  <course>0.0</course>
  <speed>0.0</speed>
  <fix>3d</fix>
</trkpt>
<trkpt lat="40.0713749" lon="-105.229789">
  <ele>1583.0</ele>
  <time>2026-08-28T17:52:08Z</time>
  <course>248.01</course>
  <speed>0.022360679774997897</speed>
  <fix>3d</fix>
</trkpt>
<trkpt lat="40.0713749" lon="-105.229789">
  <ele>1583.0</ele>
  <time>2026-08-28T17:52:08Z</time>
  <course>0.0</course>
  <speed>0.0</speed>
  <fix>3d</fix>
</trkpt>
<trkpt lat="40.0713749" lon="-105.229789">
  <ele>1583.0</ele>
  <time>2026-08-28T17:52:08Z</time>
  <course>248.01</course>
  <speed>0.022360679774997897</speed>
  <fix>3d</fix>
</trkpt>
<trkpt lat="40.0713749" lon="-105.229789">
  <ele>1583.0</ele>
  <time>2026-08-28T17:52:08Z</time>
  <course>0.0</course>
  <speed>0.0</speed>
  <fix>3d</fix>
</trkpt>
<trkpt lat="40.0713749" lon="-105.229789">
  <ele>1583.0</ele>
  <time>2026-08-28T17:52:08Z</time>
  <course>248.0</course>
  <speed>0.022360679774997897</speed>
  <fix>3d</fix>
</trkpt>
<trkpt lat="40.0713749" lon="-105.229789">
  <ele>1583.0</ele>
  <time>2026-08-28T17:52:08Z</time>
  <course>0.0</course>
  <speed>0.0</speed>
  <fix>3d</fix>
</trkpt>
<trkpt lat="40.0713749" lon="-105.229789">
  <ele>1583.0</ele>
  <time>2026-08-28T17:52:08Z</time>
  <course>248.0</course>
  <speed>0.022360679774997897</speed>
  <fix>3d</fix>
</trkpt>
<trkpt lat="40.0713749" lon="-105.229789">
  <ele>1583.0</ele>
  <time>2026-08-28T17:52:08Z</time>
  <course>0.0</course>
  <speed>0.0</speed>
  <fix>3d</fix>
</trkpt>
<trkpt lat="40.0713749" lon="-105.229789">
  <ele>1583.0</ele>
  <time>2026-08-28T17:52:08Z</time>
  <course>247.99</course>
  <speed>0.022360679774997897</speed>
  <fix>3d</fix>
</trkpt>
<trkpt lat="40.0713749" lon="-105.229789">
  <ele>1583.0</ele>
  <time>2026-08-28T17:52:08Z</time>
  <course>0.0</course>
  <speed>0.0</speed>
  <fix>3d</fix>
</trkpt>
<trkpt lat="40.0713749" lon="-105.229789">
  <ele>1583.0</ele>
  <time>2026-08-28T17:52:08Z</time>
  <course>247.99</course>
  <speed>0.022360679774997897</speed>
  <fix>3d</fix>
</trkpt>
<trkpt lat="40.0713749" lon="-105.229789">
  <ele>1583.0</ele>
  <time>2026-08-28T17:52:08Z</time>
  <course>0.0</course>
  <speed>0.0</speed>
  <fix>3d</fix>
</trkpt>
<trkpt lat="40.0713749" lon="-105.229789">
  <ele>1583.0</ele>
  <time>2026-08-28T17:52:08Z</time>
  <course>247.99</course>
  <speed>0.022360679774997897</speed>
  <fix>3d</fix>
</trkpt>
<trkpt lat="40.0713749" lon="-105.229789">
  <ele>1583.0</ele>
  <time>2026-08-28T17:52:08Z</time>
  <course>0.0</course>
  <speed>0.0</speed>
  <fix>3d</fix>
</trkpt>
<trkpt lat="40.0713749" lon="-105.229789">
  <ele>1583.0</ele>
  <time>2026-08-28T17:52:08Z</time>
  <course>247.98</course>
  <speed>0.022360679774997897</speed>
  <fix>3d</fix>
</trkpt>
<trkpt lat="40.0713749" lon="-105.229789">
  <ele>1583.0</ele>
  <time>2026-08-28T17:52:08Z</time>
  <course>0.0</course>
  <speed>0.0</speed>
  <fix>3d</fix>
</trkpt>
<trkpt lat="40.0713749" lon="-105.229789">
  <ele>1583.0</ele>
  <time>2026-08-28T17:52:08Z</time>
  <course>247.98</course>
  <speed>0.022360679774997897</speed>
  <fix>3d</fix>
</trkpt>
<trkpt lat="40.0713749" lon="-105.229789">
  <ele>1583.0</ele>
  <time>2026-08-28T17:52:08Z</time>
  <course>0.0</course>
  <speed>0.0</speed>
  <fix>3d</fix>
</trkpt>
<trkpt lat="40.0713749" lon="-105.229789">
  <ele>1583.0</ele>
  <time>2026-08-28T17:52:08Z</time>
  <course>247.97</course>
  <speed>0.022360679774997897</speed>
  <fix>3d</fix>
</trkpt>
<trkpt lat="40.0713749" lon="-105.229789">
  <ele>1583.0</ele>
  <time>2026-08-28T17:52:08Z</time>
  <course>0.0</course>
  <speed>0.0</speed>
  <fix>3d</fix>
</trkpt>
<trkpt lat="40.0713749" lon="-105.229789">
  <ele>1583.0</ele>
  <time>2026-08-28T17:52:08Z</time>
  <course>247.97</course>
  <speed>0.022360679774997897</speed>
  <fix>3d</fix>
</trkpt>
<trkpt lat="40.0713749" lon="-105.229789">
  <ele>1583.0</ele>
  <time>2026-08-28T17:52:08Z</time>
  <course>0.0</course>
  <speed>0.0</speed>
  <fix>3d</fix>
</trkpt>
<trkpt lat="40.0713749" lon="-105.229789">
  <ele>1583.0</ele>
  <time>2026-08-28T17:52:08Z</time>
  <course>247.96</course>
  <speed>0.022360679774997897</speed>
  <fix>3d</fix>
</trkpt>
<trkpt lat="40.0713749" lon="-105.229789">
  <ele>1583.0</ele>
  <time>2026-08-28T17:52:08Z</time>
  <course>0.0</course>
  <speed>0.0</speed>
  <fix>3d</fix>
</trkpt>
<trkpt lat="40.0713749" lon="-105.229789">
  <ele>1583.0</ele>
  <time>2026-08-28T17:52:08Z</time>
  <course>247.96</course>
  <speed>0.022360679774997897</speed>
  <fix>3d</fix>
</trkpt>
<trkpt lat="40.0713749" lon="-105.229789">
  <ele>1583.0</ele>
  <time>2026-08-28T17:52:08Z</time>
  <course>0.0</course>
  <speed>0.0</speed>
  <fix>3d</fix>
</trkpt>
<trkpt lat="40.0713749" lon="-105.229789">
  <ele>1583.0</ele>
  <time>2026-08-28T17:52:08Z</time>
  <course>247.95</course>
  <speed>0.022360679774997897</speed>
  <fix>3d</fix>
</trkpt>
<trkpt lat="40.0713749" lon="-105.229789">
  <ele>1583.0</ele>
  <time>2026-08-28T17:52:08Z</time>
  <course>0.0</course>
  <speed>0.0</speed>
  <fix>3d</fix>
</trkpt>
<trkpt lat="40.0713749" lon="-105.229789">
  <ele>1583.0</ele>
  <time>2026-08-28T17:52:08Z</time>
  <course>247.95</course>
  <speed>0.022360679774997897</speed>
  <fix>3d</fix>
</trkpt>
<trkpt lat="40.0713749" lon="-105.229789">
  <ele>1583.0</ele>
  <time>2026-08-28T17:52:08Z</time>
  <course>0.0</course>
  <speed>0.0</speed>
  <fix>3d</fix>
</trkpt>
<trkpt lat="40.0713749" lon="-105.229789">
  <ele>1583.0</ele>
  <time>2026-08-28T17:52:08Z</time>
  <course>247.95</course>
  <speed>0.022360679774997897</speed>
  <fix>3d</fix>
</trkpt>
<trkpt lat="40.0713749" lon="-105.229789">
  <ele>1583.0</ele>
  <time>2026-08-28T17:52:08Z</time>
  <course>0.0</course>
  <speed>0.0</speed>
  <fix>3d</fix>
</trkpt>
<trkpt lat="40.0713749" lon="-105.229789">
  <ele>1583.0</ele>
  <time>2026-08-28T17:52:08Z</time>
  <course>247.94</course>
  <speed>0.022360679774997897</speed>
  <fix>3d</fix>
</trkpt>
<trkpt lat="40.0713749" lon="-105.229789">
  <ele>1583.0</ele>
  <time>2026-08-28T17:52:08Z</time>
  <course>0.0</course>
  <speed>0.0</speed>
  <fix>3d</fix>
</trkpt>
<trkpt lat="40.0713749" lon="-105.229789">
  <ele>1583.0</ele>
  <time>2026-08-28T17:52:08Z</time>
  <course>247.94</course>
  <speed>0.022360679774997897</speed>
  <fix>3d</fix>
</trkpt>
<trkpt lat="40.0713749" lon="-105.229789">
  <ele>1583.0</ele>
  <time>2026-08-28T17:52:08Z</time>
  <course>0.0</course>
  <speed>0.0</speed>
  <fix>3d</fix>
</trkpt>
<trkpt lat="40.0713749" lon="-105.229789">
  <ele>1583.0</ele>
  <time>2026-08-28T17:52:08Z</time>
  <course>247.93</course>
  <speed>0.022360679774997897</speed>
  <fix>3d</fix>
</trkpt>
<trkpt lat="40.0713749" lon="-105.229789">
  <ele>1583.0</ele>
  <time>2026-08-28T17:52:08Z</time>
  <course>0.0</course>
  <speed>0.0</speed>
  <fix>3d</fix>
</trkpt>
<trkpt lat="40.0713749" lon="-105.229789">
  <ele>1583.0</ele>
  <time>2026-08-28T17:52:08Z</time>
  <course>247.93</course>
  <speed>0.022360679774997897</speed>
  <fix>3d</fix>
</trkpt>
<trkpt lat="40.0713749" lon="-105.229789">
  <ele>1583.0</ele>
  <time>2026-08-28T17:52:08Z</time>
  <course>0.0</course>
  <speed>0.0</speed>
  <fix>3d</fix>
</trkpt>
<trkpt lat="40.0713749" lon="-105.229789">
  <ele>1583.0</ele>
  <time>2026-08-28T17:52:08Z</time>
  <course>247.92</course>
  <speed>0.022360679774997897</speed>
  <fix>3d</fix>
</trkpt>
<trkpt lat="40.0713749" lon="-105.229789">
  <ele>1583.0</ele>
  <time>2026-08-28T17:52:08Z</time>
  <course>0.0</course>
  <speed>0.0</speed>
  <fix>3d</fix>
</trkpt>
<trkpt lat="40.0713749" lon="-105.229789">
  <ele>1583.0</ele>
  <time>2026-08-28T17:52:08Z</time>
  <course>247.92</course>
  <speed>0.022360679774997897</speed>
  <fix>3d</fix>
</trkpt>
<trkpt lat="40.0713749" lon="-105.229789">
  <ele>1583.0</ele>
  <time>2026-08-28T17:52:08Z</time>
  <course>0.0</course>
  <speed>0.0</speed>
  <fix>3d</fix>
</trkpt>
<trkpt lat="40.0713749" lon="-105.229789">
  <ele>1583.0</ele>
  <time>2026-08-28T17:52:08Z</time>
  <course>247.92</course>
  <speed>0.022360679774997897</speed>
  <fix>3d</fix>
</trkpt>
<trkpt lat="40.0713749" lon="-105.229789">
  <ele>1583.0</ele>
  <time>2026-08-28T17:52:08Z</time>
  <course>0.0</course>
  <speed>0.0</speed>
  <fix>3d</fix>
</trkpt>
<trkpt lat="40.0713749" lon="-105.229789">
  <ele>1583.0</ele>
  <time>2026-08-28T17:52:08Z</time>
  <course>247.91</course>
  <speed>0.022360679774997897</speed>
  <fix>3d</fix>
</trkpt>
<trkpt lat="40.0713749" lon="-105.229789">
  <ele>1583.0</ele>
  <time>2026-08-28T17:52:08Z</time>
  <course>0.0</course>
  <speed>0.0</speed>
  <fix>3d</fix>
</trkpt>
<trkpt lat="40.0713749" lon="-105.229789">
  <ele>1583.0</ele>
  <time>2026-08-28T17:52:08Z</time>
  <course>247.91</course>
  <speed>0.022360679774997897</speed>
  <fix>3d</fix>
</trkpt>
<trkpt lat="40.0713749" lon="-105.229789">
  <ele>1583.0</ele>
  <time>2026-08-28T17:52:08Z</time>
  <course>0.0</course>
  <speed>0.0</speed>
  <fix>3d</fix>
</trkpt>
<trkpt lat="40.0713749" lon="-105.229789">
  <ele>1583.0</ele>
  <time>2026-08-28T17:52:08Z</time>
  <course>247.9</course>
  <speed>0.022360679774997897</speed>
  <fix>3d</fix>
</trkpt>
<trkpt lat="40.0713749" lon="-105.229789">
  <ele>1583.0</ele>
  <time>2026-08-28T17:52:08Z</time>
  <course>0.0</course>
  <speed>0.0</speed>
  <fix>3d</fix>
</trkpt>
<trkpt lat="40.0713749" lon="-105.229789">
  <ele>1583.0</ele>
  <time>2026-08-28T17:52:08Z</time>
  <course>247.9</course>
  <speed>0.022360679774997897</speed>
  <fix>3d</fix>
</trkpt>
<trkpt lat="40.0713749" lon="-105.229789">
  <ele>1583.0</ele>
  <time>2026-08-28T17:52:08Z</time>
  <course>0.0</course>
  <speed>0.0</speed>
  <fix>3d</fix>
</trkpt>
<trkpt lat="40.0713749" lon="-105.229789">
  <ele>1583.0</ele>
  <time>2026-08-28T17:52:08Z</time>
  <course>247.89</course>
  <speed>0.022360679774997897</speed>
  <fix>3d</fix>
</trkpt>
<trkpt lat="40.0713749" lon="-105.229789">
  <ele>1583.0</ele>
  <time>2026-08-28T17:52:08Z</time>
  <course>0.0</course>
  <speed>0.0</speed>
  <fix>3d</fix>
</trkpt>
<trkpt lat="40.0713749" lon="-105.229789">
  <ele>1583.0</ele>
  <time>2026-08-28T17:52:08Z</time>
  <course>247.89</course>
  <speed>0.022360679774997897</speed>
  <fix>3d</fix>
</trkpt>
<trkpt lat="40.0713749" lon="-105.229789">
  <ele>1583.0</ele>
  <time>2026-08-28T17:52:08Z</time>
  <course>0.0</course>
  <speed>0.0</speed>
  <fix>3d</fix>
</trkpt>
<trkpt lat="40.0713749" lon="-105.229789">
  <ele>1583.0</ele>
  <time>2026-08-28T17:52:08Z</time>
  <course>247.89</course>
  <speed>0.022360679774997897</speed>
  <fix>3d</fix>
</trkpt>
<trkpt lat="40.0713749" lon="-105.229789">
  <ele>1583.0</ele>
  <time>2026-08-28T17:52:08Z</time>
  <course>0.0</course>
  <speed>0.0</speed>
  <fix>3d</fix>
</trkpt>
<trkpt lat="40.0713749" lon="-105.229789">
  <ele>1583.0</ele>
  <time>2026-08-28T17:52:08Z</time>
  <course>247.88</course>
  <speed>0.0316227766016838</speed>
  <fix>3d</fix>
</trkpt>
<trkpt lat="40.0713749" lon="-105.229789">
  <ele>1583.0</ele>
  <time>2026-08-28T17:52:08Z</time>
  <course>0.0</course>
  <speed>0.0</speed>
  <fix>3d</fix>
</trkpt>
<trkpt lat="40.0713749" lon="-105.229789">
  <ele>1583.0</ele>
  <time>2026-08-28T17:52:08Z</time>
  <course>247.88</course>
  <speed>0.0316227766016838</speed>
  <fix>3d</fix>
</trkpt>
<trkpt lat="40.0713749" lon="-105.229789">
  <ele>1583.0</ele>
  <time>2026-08-28T17:52:08Z</time>
  <course>0.0</course>
  <speed>0.0</speed>
  <fix>3d</fix>
</trkpt>
<trkpt lat="40.0713749" lon="-105.229789">
  <ele>1583.0</ele>
  <time>2026-08-28T17:52:08Z</time>
  <course>247.87</course>
  <speed>0.0316227766016838</speed>
  <fix>3d</fix>
</trkpt>
<trkpt lat="40.0713749" lon="-105.229789">
  <ele>1583.0</ele>
  <time>2026-08-28T17:52:08Z</time>
  <course>0.0</course>
  <speed>0.0</speed>
  <fix>3d</fix>
</trkpt>
<trkpt lat="40.0713749" lon="-105.229789">
  <ele>1583.0</ele>
  <time>2026-08-28T17:52:08Z</time>
  <course>247.87</course>
  <speed>0.0316227766016838</speed>
  <fix>3d</fix>
</trkpt>
<trkpt lat="40.0713749" lon="-105.229789">
  <ele>1583.0</ele>
  <time>2026-08-28T17:52:08Z</time>
  <course>0.0</course>
  <speed>0.0</speed>
  <fix>3d</fix>
</trkpt>
<trkpt lat="40.0713749" lon="-105.229789">
  <ele>1583.0</ele>
  <time>2026-08-28T17:52:08Z</time>
  <course>247.87</course>
  <speed>0.0316227766016838</speed>
  <fix>3d</fix>
</trkpt>
<trkpt lat="40.0713749" lon="-105.229789">
  <ele>1583.0</ele>
  <time>2026-08-28T17:52:08Z</time>
  <course>0.0</course>
  <speed>0.0</speed>
  <fix>3d</fix>
</trkpt>
<trkpt lat="40.0713749" lon="-105.229789">
  <ele>1583.0</ele>
  <time>2026-08-28T17:52:08Z</time>
  <course>247.86</course>
  <speed>0.0316227766016838</speed>
  <fix>3d</fix>
</trkpt>
<trkpt lat="40.0713749" lon="-105.229789">
  <ele>1583.0</ele>
  <time>2026-08-28T17:52:08Z</time>
  <course>0.0</course>
  <speed>0.0</speed>
  <fix>3d</fix>
</trkpt>
<trkpt lat="40.0713749" lon="-105.229789">
  <ele>1583.0</ele>
  <time>2026-08-28T17:52:08Z</time>
  <course>247.86</course>
  <speed>0.0316227766016838</speed>
  <fix>3d</fix>
</trkpt>
<trkpt lat="40.0713749" lon="-105.229789">
  <ele>1583.0</ele>
  <time>2026-08-28T17:52:08Z</time>
  <course>0.0</course>
  <speed>0.0</speed>
  <fix>3d</fix>
</trkpt>
<trkpt lat="40.0713749" lon="-105.229789">
  <ele>1583.0</ele>
  <time>2026-08-28T17:52:08Z</time>
  <course>247.85</course>
  <speed>0.0316227766016838</speed>
  <fix>3d</fix>
</trkpt>
<trkpt lat="40.0713749" lon="-105.229789">
  <ele>1583.0</ele>
  <time>2026-08-28T17:52:08Z</time>
  <course>0.0</course>
  <speed>0.0</speed>
  <fix>3d</fix>
</trkpt>
<trkpt lat="40.0713749" lon="-105.229789">
  <ele>1583.0</ele>
  <time>2026-08-28T17:52:08Z</time>
  <course>247.85</course>
  <speed>0.0316227766016838</speed>
  <fix>3d</fix>
</trkpt>
<trkpt lat="40.0713749" lon="-105.229789">
  <ele>1583.0</ele>
  <time>2026-08-28T17:52:08Z</time>
  <course>0.0</course>
  <speed>0.0</speed>
  <fix>3d</fix>
</trkpt>
<trkpt lat="40.0713749" lon="-105.229789">
  <ele>1583.0</ele>
  <time>2026-08-28T17:52:08Z</time>
  <course>247.85</course>
  <speed>0.0316227766016838</speed>
  <fix>3d</fix>
</trkpt>
<trkpt lat="40.0713749" lon="-105.229789">
  <ele>1583.0</ele>
  <time>2026-08-28T17:52:08Z</time>
  <course>0.0</course>
  <speed>0.0</speed>
  <fix>3d</fix>
</trkpt>
<trkpt lat="40.0713749" lon="-105.229789">
  <ele>1583.0</ele>
  <time>2026-08-28T17:52:08Z</time>
  <course>247.84</course>
  <speed>0.0316227766016838</speed>
  <fix>3d</fix>
</trkpt>
<trkpt lat="40.0713749" lon="-105.229789">
  <ele>1583.0</ele>
  <time>2026-08-28T17:52:08Z</time>
  <course>0.0</course>
  <speed>0.0</speed>
  <fix>3d</fix>
</trkpt>
<trkpt lat="40.0713749" lon="-105.229789">
  <ele>1583.0</ele>
  <time>2026-08-28T17:52:08Z</time>
  <course>247.84</course>
  <speed>0.0316227766016838</speed>
  <fix>3d</fix>
</trkpt>
<trkpt lat="40.0713749" lon="-105.229789">
  <ele>1583.0</ele>
  <time>2026-08-28T17:52:08Z</time>
  <course>0.0</course>
  <speed>0.0</speed>
  <fix>3d</fix>
</trkpt>
<trkpt lat="40.0713749" lon="-105.229789">
  <ele>1583.0</ele>
  <time>2026-08-28T17:52:08Z</time>
  <course>247.83</course>
  <speed>0.0316227766016838</speed>
  <fix>3d</fix>
</trkpt>
<trkpt lat="40.0713749" lon="-105.229789">
  <ele>1583.0</ele>
  <time>2026-08-28T17:52:08Z</time>
  <course>0.0</course>
  <speed>0.0</speed>
  <fix>3d</fix>
</trkpt>
<trkpt lat="40.0713749" lon="-105.229789">
  <ele>1583.0</ele>
  <time>2026-08-28T17:52:08Z</time>
  <course>247.83</course>
  <speed>0.0316227766016838</speed>
  <fix>3d</fix>
</trkpt>
<trkpt lat="40.0713749" lon="-105.229789">
  <ele>1583.0</ele>
  <time>2026-08-28T17:52:08Z</time>
  <course>0.0</course>
  <speed>0.0</speed>
  <fix>3d</fix>
</trkpt>
<trkpt lat="40.0713749" lon="-105.229789">
  <ele>1583.0</ele>
  <time>2026-08-28T17:52:08Z</time>
  <course>247.83</course>
  <speed>0.0316227766016838</speed>
  <fix>3d</fix>
</trkpt>
<trkpt lat="40.0713749" lon="-105.229789">
  <ele>1583.0</ele>
  <time>2026-08-28T17:52:08Z</time>
  <course>0.0</course>
  <speed>0.0</speed>
  <fix>3d</fix>
</trkpt>
<trkpt lat="40.0713749" lon="-105.229789">
  <ele>1583.0</ele>
  <time>2026-08-28T17:52:09Z</time>
  <course>247.82</course>
  <speed>0.0316227766016838</speed>
  <fix>3d</fix>
</trkpt>
<trkpt lat="40.0713749" lon="-105.229789">
  <ele>1583.0</ele>
  <time>2026-08-28T17:52:09Z</time>
  <course>0.0</course>
  <speed>0.0</speed>
  <fix>3d</fix>
</trkpt>
<trkpt lat="40.0713749" lon="-105.229789">
  <ele>1583.0</ele>
  <time>2026-08-28T17:52:09Z</time>
  <course>247.82</course>
  <speed>0.0316227766016838</speed>
  <fix>3d</fix>
</trkpt>
<trkpt lat="40.0713749" lon="-105.229789">
  <ele>1583.0</ele>
  <time>2026-08-28T17:52:09Z</time>
  <course>0.0</course>
  <speed>0.0</speed>
  <fix>3d</fix>
</trkpt>
<trkpt lat="40.0713749" lon="-105.229789">
  <ele>1583.0</ele>
  <time>2026-08-28T17:52:09Z</time>
  <course>247.82</course>
  <speed>0.0316227766016838</speed>
  <fix>3d</fix>
</trkpt>
<trkpt lat="40.0713749" lon="-105.229789">
  <ele>1583.0</ele>
  <time>2026-08-28T17:52:09Z</time>
  <course>0.0</course>
  <speed>0.0</speed>
  <fix>3d</fix>
</trkpt>
<trkpt lat="40.0713749" lon="-105.229789">
  <ele>1583.0</ele>
  <time>2026-08-28T17:52:09Z</time>
  <course>247.81</course>
  <speed>0.0316227766016838</speed>
  <fix>3d</fix>
</trkpt>
<trkpt lat="40.0713749" lon="-105.229789">
  <ele>1583.0</ele>
  <time>2026-08-28T17:52:09Z</time>
  <course>0.0</course>
  <speed>0.0</speed>
  <fix>3d</fix>
</trkpt>
<trkpt lat="40.0713749" lon="-105.229789">
  <ele>1583.0</ele>
  <time>2026-08-28T17:52:09Z</time>
  <course>247.81</course>
  <speed>0.0316227766016838</speed>
  <fix>3d</fix>
</trkpt>
<trkpt lat="40.0713749" lon="-105.229789">
  <ele>1583.0</ele>
  <time>2026-08-28T17:52:09Z</time>
  <course>0.0</course>
  <speed>0.0</speed>
  <fix>3d</fix>
</trkpt>
<trkpt lat="40.0713749" lon="-105.229789">
  <ele>1583.0</ele>
  <time>2026-08-28T17:52:09Z</time>
  <course>247.8</course>
  <speed>0.0316227766016838</speed>
  <fix>3d</fix>
</trkpt>
<trkpt lat="40.0713749" lon="-105.229789">
  <ele>1583.0</ele>
  <time>2026-08-28T17:52:09Z</time>
  <course>0.0</course>
  <speed>0.0</speed>
  <fix>3d</fix>
</trkpt>
<trkpt lat="40.0713749" lon="-105.229789">
  <ele>1583.0</ele>
  <time>2026-08-28T17:52:09Z</time>
  <course>247.8</course>
  <speed>0.0316227766016838</speed>
  <fix>3d</fix>
</trkpt>
<trkpt lat="40.0713749" lon="-105.229789">
  <ele>1583.0</ele>
  <time>2026-08-28T17:52:09Z</time>
  <course>0.0</course>
  <speed>0.0</speed>
  <fix>3d</fix>
</trkpt>
<trkpt lat="40.0713749" lon="-105.229789">
  <ele>1583.0</ele>
  <time>2026-08-28T17:52:09Z</time>
  <course>247.8</course>
  <speed>0.0316227766016838</speed>
  <fix>3d</fix>
</trkpt>
<trkpt lat="40.0713749" lon="-105.229789">
  <ele>1583.0</ele>
  <time>2026-08-28T17:52:09Z</time>
  <course>0.0</course>
  <speed>0.0</speed>
  <fix>3d</fix>
</trkpt>
<trkpt lat="40.0713749" lon="-105.229789">
  <ele>1583.0</ele>
  <time>2026-08-28T17:52:09Z</time>
  <course>247.79</course>
  <speed>0.0316227766016838</speed>
  <fix>3d</fix>
</trkpt>
<trkpt lat="40.0713749" lon="-105.229789">
  <ele>1583.0</ele>
  <time>2026-08-28T17:52:09Z</time>
  <course>0.0</course>
  <speed>0.0</speed>
  <fix>3d</fix>
</trkpt>
<trkpt lat="40.0713749" lon="-105.229789">
  <ele>1583.0</ele>
  <time>2026-08-28T17:52:09Z</time>
  <course>247.79</course>
  <speed>0.0316227766016838</speed>
  <fix>3d</fix>
</trkpt>
<trkpt lat="40.0713749" lon="-105.229789">
  <ele>1583.0</ele>
  <time>2026-08-28T17:52:09Z</time>
  <course>0.0</course>
  <speed>0.0</speed>
  <fix>3d</fix>
</trkpt>
<trkpt lat="40.0713749" lon="-105.229789">
  <ele>1583.0</ele>
  <time>2026-08-28T17:52:09Z</time>
  <course>247.79</course>
  <speed>0.0316227766016838</speed>
  <fix>3d</fix>
</trkpt>
<trkpt lat="40.0713749" lon="-105.229789">
  <ele>1583.0</ele>
  <time>2026-08-28T17:52:09Z</time>
  <course>0.0</course>
  <speed>0.0</speed>
  <fix>3d</fix>
</trkpt>
<trkpt lat="40.0713749" lon="-105.229789">
  <ele>1583.0</ele>
  <time>2026-08-28T17:52:09Z</time>
  <course>247.78</course>
  <speed>0.0316227766016838</speed>
  <fix>3d</fix>
</trkpt>
<trkpt lat="40.0713749" lon="-105.229789">
  <ele>1583.0</ele>
  <time>2026-08-28T17:52:09Z</time>
  <course>0.0</course>
  <speed>0.0</speed>
  <fix>3d</fix>
</trkpt>
<trkpt lat="40.0713749" lon="-105.229789">
  <ele>1583.0</ele>
  <time>2026-08-28T17:52:09Z</time>
  <course>247.78</course>
  <speed>0.0316227766016838</speed>
  <fix>3d</fix>
</trkpt>
<trkpt lat="40.0713749" lon="-105.229789">
  <ele>1583.0</ele>
  <time>2026-08-28T17:52:09Z</time>
  <course>0.0</course>
  <speed>0.0</speed>
  <fix>3d</fix>
</trkpt>
<trkpt lat="40.0713749" lon="-105.229789">
  <ele>1583.0</ele>
  <time>2026-08-28T17:52:09Z</time>
  <course>247.78</course>
  <speed>0.0316227766016838</speed>
  <fix>3d</fix>
</trkpt>
<trkpt lat="40.0713749" lon="-105.229789">
  <ele>1583.0</ele>
  <time>2026-08-28T17:52:09Z</time>
  <course>0.0</course>
  <speed>0.0</speed>
  <fix>3d</fix>
</trkpt>
<trkpt lat="40.0713749" lon="-105.229789">
  <ele>1583.0</ele>
  <time>2026-08-28T17:52:09Z</time>
  <course>247.77</course>
  <speed>0.0316227766016838</speed>
  <fix>3d</fix>
</trkpt>
<trkpt lat="40.0713749" lon="-105.229789">
  <ele>1583.0</ele>
  <time>2026-08-28T17:52:09Z</time>
  <course>0.0</course>
  <speed>0.0</speed>
  <fix>3d</fix>
</trkpt>
<trkpt lat="40.0713749" lon="-105.229789">
  <ele>1583.0</ele>
  <time>2026-08-28T17:52:09Z</time>
  <course>247.77</course>
  <speed>0.0316227766016838</speed>
  <fix>3d</fix>
</trkpt>
<trkpt lat="40.0713749" lon="-105.229789">
  <ele>1583.0</ele>
  <time>2026-08-28T17:52:09Z</time>
  <course>0.0</course>
  <speed>0.0</speed>
  <fix>3d</fix>
</trkpt>
<trkpt lat="40.0713749" lon="-105.229789">
  <ele>1583.0</ele>
  <time>2026-08-28T17:52:09Z</time>
  <course>247.76</course>
  <speed>0.0316227766016838</speed>
  <fix>3d</fix>
</trkpt>
<trkpt lat="40.0713749" lon="-105.229789">
  <ele>1583.0</ele>
  <time>2026-08-28T17:52:09Z</time>
  <course>0.0</course>
  <speed>0.0</speed>
  <fix>3d</fix>
</trkpt>
<trkpt lat="40.0713749" lon="-105.229789">
  <ele>1583.0</ele>
  <time>2026-08-28T17:52:09Z</time>
  <course>247.76</course>
  <speed>0.0316227766016838</speed>
  <fix>3d</fix>
</trkpt>
<trkpt lat="40.0713749" lon="-105.229789">
  <ele>1583.0</ele>
  <time>2026-08-28T17:52:09Z</time>
  <course>0.0</course>
  <speed>0.0</speed>
  <fix>3d</fix>
</trkpt>
<trkpt lat="40.0713749" lon="-105.229789">
  <ele>1583.0</ele>
  <time>2026-08-28T17:52:09Z</time>
  <course>247.76</course>
  <speed>0.0316227766016838</speed>
  <fix>3d</fix>
</trkpt>
<trkpt lat="40.0713749" lon="-105.229789">
  <ele>1583.0</ele>
  <time>2026-08-28T17:52:09Z</time>
  <course>0.0</course>
  <speed>0.0</speed>
  <fix>3d</fix>
</trkpt>
<trkpt lat="40.0713749" lon="-105.229789">
  <ele>1583.0</ele>
  <time>2026-08-28T17:52:09Z</time>
  <course>247.75</course>
  <speed>0.0316227766016838</speed>
  <fix>3d</fix>
</trkpt>
<trkpt lat="40.0713749" lon="-105.229789">
  <ele>1583.0</ele>
  <time>2026-08-28T17:52:09Z</time>
  <course>0.0</course>
  <speed>0.0</speed>
  <fix>3d</fix>
</trkpt>
<trkpt lat="40.0713749" lon="-105.229789">
  <ele>1583.0</ele>
  <time>2026-08-28T17:52:09Z</time>
  <course>247.75</course>
  <speed>0.0316227766016838</speed>
  <fix>3d</fix>
</trkpt>
<trkpt lat="40.0713749" lon="-105.229789">
  <ele>1583.0</ele>
  <time>2026-08-28T17:52:09Z</time>
  <course>0.0</course>
  <speed>0.0</speed>
  <fix>3d</fix>
</trkpt>
<trkpt lat="40.0713749" lon="-105.229789">
  <ele>1583.0</ele>
  <time>2026-08-28T17:52:09Z</time>
  <course>247.75</course>
  <speed>0.0316227766016838</speed>
  <fix>3d</fix>
</trkpt>
<trkpt lat="40.0713749" lon="-105.229789">
  <ele>1583.0</ele>
  <time>2026-08-28T17:52:09Z</time>
  <course>0.0</course>
  <speed>0.0</speed>
  <fix>3d</fix>
</trkpt>
<trkpt lat="40.0713749" lon="-105.229789">
  <ele>1583.0</ele>
  <time>2026-08-28T17:52:09Z</time>
  <course>247.74</course>
  <speed>0.0316227766016838</speed>
  <fix>3d</fix>
</trkpt>
<trkpt lat="40.0713749" lon="-105.229789">
  <ele>1583.0</ele>
  <time>2026-08-28T17:52:09Z</time>
  <course>0.0</course>
  <speed>0.0</speed>
  <fix>3d</fix>
</trkpt>
<trkpt lat="40.0713749" lon="-105.229789">
  <ele>1583.0</ele>
  <time>2026-08-28T17:52:09Z</time>
  <course>247.74</course>
  <speed>0.0316227766016838</speed>
  <fix>3d</fix>
</trkpt>
<trkpt lat="40.0713749" lon="-105.229789">
  <ele>1583.0</ele>
  <time>2026-08-28T17:52:09Z</time>
  <course>0.0</course>
  <speed>0.0</speed>
  <fix>3d</fix>
</trkpt>
<trkpt lat="40.0713749" lon="-105.229789">
  <ele>1583.0</ele>
  <time>2026-08-28T17:52:09Z</time>
  <course>247.74</course>
  <speed>0.0316227766016838</speed>
  <fix>3d</fix>
</trkpt>
<trkpt lat="40.0713749" lon="-105.229789">
  <ele>1583.0</ele>
  <time>2026-08-28T17:52:09Z</time>
  <course>0.0</course>
  <speed>0.0</speed>
  <fix>3d</fix>
</trkpt>
<trkpt lat="40.0713749" lon="-105.229789">
  <ele>1583.0</ele>
  <time>2026-08-28T17:52:09Z</time>
  <course>247.73</course>
  <speed>0.0316227766016838</speed>
  <fix>3d</fix>
</trkpt>
<trkpt lat="40.0713749" lon="-105.229789">
  <ele>1583.0</ele>
  <time>2026-08-28T17:52:09Z</time>
  <course>0.0</course>
  <speed>0.0</speed>
  <fix>3d</fix>
</trkpt>
<trkpt lat="40.0713749" lon="-105.229789">
  <ele>1583.0</ele>
  <time>2026-08-28T17:52:09Z</time>
  <course>247.73</course>
  <speed>0.0316227766016838</speed>
  <fix>3d</fix>
</trkpt>
<trkpt lat="40.0713749" lon="-105.229789">
  <ele>1583.0</ele>
  <time>2026-08-28T17:52:09Z</time>
  <course>0.0</course>
  <speed>0.0</speed>
  <fix>3d</fix>
</trkpt>
<trkpt lat="40.0713749" lon="-105.229789">
  <ele>1583.0</ele>
  <time>2026-08-28T17:52:09Z</time>
  <course>247.73</course>
  <speed>0.0316227766016838</speed>
  <fix>3d</fix>
</trkpt>
<trkpt lat="40.0713749" lon="-105.229789">
  <ele>1583.0</ele>
  <time>2026-08-28T17:52:09Z</time>
  <course>0.0</course>
  <speed>0.0</speed>
  <fix>3d</fix>
</trkpt>
<trkpt lat="40.0713749" lon="-105.229789">
  <ele>1583.0</ele>
  <time>2026-08-28T17:52:09Z</time>
  <course>247.72</course>
  <speed>0.0316227766016838</speed>
  <fix>3d</fix>
</trkpt>
<trkpt lat="40.0713749" lon="-105.229789">
  <ele>1583.0</ele>
  <time>2026-08-28T17:52:09Z</time>
  <course>0.0</course>
  <speed>0.0</speed>
  <fix>3d</fix>
</trkpt>
<trkpt lat="40.0713749" lon="-105.229789">
  <ele>1583.0</ele>
  <time>2026-08-28T17:52:09Z</time>
  <course>247.72</course>
  <speed>0.0316227766016838</speed>
  <fix>3d</fix>
</trkpt>
<trkpt lat="40.0713749" lon="-105.229789">
  <ele>1583.0</ele>
  <time>2026-08-28T17:52:09Z</time>
  <course>0.0</course>
  <speed>0.0</speed>
  <fix>3d</fix>
</trkpt>
<trkpt lat="40.0713749" lon="-105.229789">
  <ele>1583.0</ele>
  <time>2026-08-28T17:52:09Z</time>
  <course>247.72</course>
  <speed>0.0316227766016838</speed>
  <fix>3d</fix>
</trkpt>
<trkpt lat="40.0713749" lon="-105.229789">
  <ele>1583.0</ele>
  <time>2026-08-28T17:52:09Z</time>
  <course>0.0</course>
  <speed>0.0</speed>
  <fix>3d</fix>
</trkpt>
<trkpt lat="40.0713749" lon="-105.229789">
  <ele>1583.0</ele>
  <time>2026-08-28T17:52:09Z</time>
  <course>247.71</course>
  <speed>0.0316227766016838</speed>
  <fix>3d</fix>
</trkpt>
<trkpt lat="40.0713749" lon="-105.229789">
  <ele>1583.0</ele>
  <time>2026-08-28T17:52:09Z</time>
  <course>0.0</course>
  <speed>0.0</speed>
  <fix>3d</fix>
</trkpt>
<trkpt lat="40.0713749" lon="-105.229789">
  <ele>1583.0</ele>
  <time>2026-08-28T17:52:09Z</time>
  <course>247.71</course>
  <speed>0.0316227766016838</speed>
  <fix>3d</fix>
</trkpt>
<trkpt lat="40.0713749" lon="-105.229789">
  <ele>1583.0</ele>
  <time>2026-08-28T17:52:09Z</time>
  <course>0.0</course>
  <speed>0.0</speed>
  <fix>3d</fix>
</trkpt>
<trkpt lat="40.0713749" lon="-105.229789">
  <ele>1583.0</ele>
  <time>2026-08-28T17:52:09Z</time>
  <course>247.71</course>
  <speed>0.0316227766016838</speed>
  <fix>3d</fix>
</trkpt>
<trkpt lat="40.0713749" lon="-105.229789">
  <ele>1583.0</ele>
  <time>2026-08-28T17:52:09Z</time>
  <course>0.0</course>
  <speed>0.0</speed>
  <fix>3d</fix>
</trkpt>
<trkpt lat="40.0713749" lon="-105.229789">
  <ele>1583.0</ele>
  <time>2026-08-28T17:52:09Z</time>
  <course>247.7</course>
  <speed>0.0316227766016838</speed>
  <fix>3d</fix>
</trkpt>
<trkpt lat="40.0713749" lon="-105.229789">
  <ele>1583.0</ele>
  <time>2026-08-28T17:52:09Z</time>
  <course>0.0</course>
  <speed>0.0</speed>
  <fix>3d</fix>
</trkpt>
<trkpt lat="40.0713749" lon="-105.229789">
  <ele>1583.0</ele>
  <time>2026-08-28T17:52:09Z</time>
  <course>247.7</course>
  <speed>0.0316227766016838</speed>
  <fix>3d</fix>
</trkpt>
<trkpt lat="40.0713749" lon="-105.229789">
  <ele>1583.0</ele>
  <time>2026-08-28T17:52:09Z</time>
  <course>0.0</course>
  <speed>0.0</speed>
  <fix>3d</fix>
</trkpt>
<trkpt lat="40.0713749" lon="-105.229789">
  <ele>1583.0</ele>
  <time>2026-08-28T17:52:09Z</time>
  <course>247.7</course>
  <speed>0.0316227766016838</speed>
  <fix>3d</fix>
</trkpt>
<trkpt lat="40.0713749" lon="-105.229789">
  <ele>1583.0</ele>
  <time>2026-08-28T17:52:09Z</time>
  <course>0.0</course>
  <speed>0.0</speed>
  <fix>3d</fix>
</trkpt>
<trkpt lat="40.0713749" lon="-105.229789">
  <ele>1583.0</ele>
  <time>2026-08-28T17:52:09Z</time>
  <course>247.69</course>
  <speed>0.0316227766016838</speed>
  <fix>3d</fix>
</trkpt>
<trkpt lat="40.0713749" lon="-105.229789">
  <ele>1583.0</ele>
  <time>2026-08-28T17:52:09Z</time>
  <course>0.0</course>
  <speed>0.0</speed>
  <fix>3d</fix>
</trkpt>
<trkpt lat="40.0713749" lon="-105.229789">
  <ele>1583.0</ele>
  <time>2026-08-28T17:52:09Z</time>
  <course>247.69</course>
  <speed>0.0316227766016838</speed>
  <fix>3d</fix>
</trkpt>
<trkpt lat="40.0713749" lon="-105.229789">
  <ele>1583.0</ele>
  <time>2026-08-28T17:52:09Z</time>
  <course>0.0</course>
  <speed>0.0</speed>
  <fix>3d</fix>
</trkpt>
<trkpt lat="40.0713749" lon="-105.229789">
  <ele>1583.0</ele>
  <time>2026-08-28T17:52:09Z</time>
  <course>247.69</course>
  <speed>0.0316227766016838</speed>
  <fix>3d</fix>
</trkpt>
<trkpt lat="40.0713749" lon="-105.229789">
  <ele>1583.0</ele>
  <time>2026-08-28T17:52:09Z</time>
  <course>0.0</course>
  <speed>0.0</speed>
  <fix>3d</fix>
</trkpt>
<trkpt lat="40.0713749" lon="-105.229789">
  <ele>1583.0</ele>
  <time>2026-08-28T17:52:09Z</time>
  <course>247.68</course>
  <speed>0.0316227766016838</speed>
  <fix>3d</fix>
</trkpt>
<trkpt lat="40.0713749" lon="-105.229789">
  <ele>1583.0</ele>
  <time>2026-08-28T17:52:09Z</time>
  <course>0.0</course>
  <speed>0.0</speed>
  <fix>3d</fix>
</trkpt>
<trkpt lat="40.0713749" lon="-105.229789">
  <ele>1583.0</ele>
  <time>2026-08-28T17:52:09Z</time>
  <course>247.68</course>
  <speed>0.0316227766016838</speed>
  <fix>3d</fix>
</trkpt>
<trkpt lat="40.0713749" lon="-105.229789">
  <ele>1583.0</ele>
  <time>2026-08-28T17:52:09Z</time>
  <course>0.0</course>
  <speed>0.0</speed>
  <fix>3d</fix>
</trkpt>
<trkpt lat="40.0713749" lon="-105.229789">
  <ele>1583.0</ele>
  <time>2026-08-28T17:52:09Z</time>
  <course>247.68</course>
  <speed>0.0316227766016838</speed>
  <fix>3d</fix>
</trkpt>
<trkpt lat="40.0713749" lon="-105.229789">
  <ele>1583.0</ele>
  <time>2026-08-28T17:52:09Z</time>
  <course>0.0</course>
  <speed>0.0</speed>
  <fix>3d</fix>
</trkpt>
<trkpt lat="40.0713749" lon="-105.229789">
  <ele>1583.0</ele>
  <time>2026-08-28T17:52:09Z</time>
  <course>247.67</course>
  <speed>0.0316227766016838</speed>
  <fix>3d</fix>
</trkpt>
<trkpt lat="40.0713749" lon="-105.229789">
  <ele>1583.0</ele>
  <time>2026-08-28T17:52:09Z</time>
  <course>0.0</course>
  <speed>0.0</speed>
  <fix>3d</fix>
</trkpt>
<trkpt lat="40.0713749" lon="-105.229789">
  <ele>1583.0</ele>
  <time>2026-08-28T17:52:09Z</time>
  <course>247.67</course>
  <speed>0.0316227766016838</speed>
  <fix>3d</fix>
</trkpt>
<trkpt lat="40.0713749" lon="-105.229789">
  <ele>1583.0</ele>
  <time>2026-08-28T17:52:09Z</time>
  <course>0.0</course>
  <speed>0.0</speed>
  <fix>3d</fix>
</trkpt>
<trkpt lat="40.0713749" lon="-105.229789">
  <ele>1583.0</ele>
  <time>2026-08-28T17:52:09Z</time>
  <course>247.67</course>
  <speed>0.0316227766016838</speed>
  <fix>3d</fix>
</trkpt>
<trkpt lat="40.0713749" lon="-105.229789">
  <ele>1583.0</ele>
  <time>2026-08-28T17:52:09Z</time>
  <course>0.0</course>
  <speed>0.0</speed>
  <fix>3d</fix>
</trkpt>
<trkpt lat="40.0713749" lon="-105.229789">
  <ele>1583.0</ele>
  <time>2026-08-28T17:52:09Z</time>
  <course>247.66</course>
  <speed>0.0316227766016838</speed>
  <fix>3d</fix>
</trkpt>
<trkpt lat="40.0713749" lon="-105.229789">
  <ele>1583.0</ele>
  <time>2026-08-28T17:52:09Z</time>
  <course>0.0</course>
  <speed>0.0</speed>
  <fix>3d</fix>
</trkpt>
<trkpt lat="40.0713749" lon="-105.229789">
  <ele>1583.0</ele>
  <time>2026-08-28T17:52:09Z</time>
  <course>247.66</course>
  <speed>0.0316227766016838</speed>
  <fix>3d</fix>
</trkpt>
<trkpt lat="40.0713749" lon="-105.229789">
  <ele>1583.0</ele>
  <time>2026-08-28T17:52:09Z</time>
  <course>0.0</course>
  <speed>0.0</speed>
  <fix>3d</fix>
</trkpt>
<trkpt lat="40.0713749" lon="-105.229789">
  <ele>1583.0</ele>
  <time>2026-08-28T17:52:09Z</time>
  <course>247.66</course>
  <speed>0.0316227766016838</speed>
  <fix>3d</fix>
</trkpt>
<trkpt lat="40.0713749" lon="-105.229789">
  <ele>1583.0</ele>
  <time>2026-08-28T17:52:09Z</time>
  <course>0.0</course>
  <speed>0.0</speed>
  <fix>3d</fix>
</trkpt>
<trkpt lat="40.0713749" lon="-105.229789">
  <ele>1583.0</ele>
  <time>2026-08-28T17:52:09Z</time>
  <course>247.65</course>
  <speed>0.0316227766016838</speed>
  <fix>3d</fix>
</trkpt>
<trkpt lat="40.0713749" lon="-105.229789">
  <ele>1583.0</ele>
  <time>2026-08-28T17:52:09Z</time>
  <course>0.0</course>
  <speed>0.0</speed>
  <fix>3d</fix>
</trkpt>
<trkpt lat="40.0713749" lon="-105.229789">
  <ele>1583.0</ele>
  <time>2026-08-28T17:52:09Z</time>
  <course>247.65</course>
  <speed>0.0316227766016838</speed>
  <fix>3d</fix>
</trkpt>
<trkpt lat="40.0713749" lon="-105.229789">
  <ele>1583.0</ele>
  <time>2026-08-28T17:52:09Z</time>
  <course>0.0</course>
  <speed>0.0</speed>
  <fix>3d</fix>
</trkpt>
<trkpt lat="40.0713749" lon="-105.229789">
  <ele>1583.0</ele>
  <time>2026-08-28T17:52:09Z</time>
  <course>247.65</course>
  <speed>0.0316227766016838</speed>
  <fix>3d</fix>
</trkpt>
<trkpt lat="40.0713749" lon="-105.229789">
  <ele>1583.0</ele>
  <time>2026-08-28T17:52:09Z</time>
  <course>0.0</course>
  <speed>0.0</speed>
  <fix>3d</fix>
</trkpt>
<trkpt lat="40.0713749" lon="-105.229789">
  <ele>1583.0</ele>
  <time>2026-08-28T17:52:09Z</time>
  <course>247.64</course>
  <speed>0.0316227766016838</speed>
  <fix>3d</fix>
</trkpt>
<trkpt lat="40.0713749" lon="-105.229789">
  <ele>1583.0</ele>
  <time>2026-08-28T17:52:09Z</time>
  <course>0.0</course>
  <speed>0.0</speed>
  <fix>3d</fix>
</trkpt>
<trkpt lat="40.0713749" lon="-105.229789">
  <ele>1583.0</ele>
  <time>2026-08-28T17:52:09Z</time>
  <course>247.64</course>
  <speed>0.0316227766016838</speed>
  <fix>3d</fix>
</trkpt>
<trkpt lat="40.0713749" lon="-105.229789">
  <ele>1583.0</ele>
  <time>2026-08-28T17:52:09Z</time>
  <course>0.0</course>
  <speed>0.0</speed>
  <fix>3d</fix>
</trkpt>
<trkpt lat="40.0713749" lon="-105.229789">
  <ele>1583.0</ele>
  <time>2026-08-28T17:52:09Z</time>
  <course>247.64</course>
  <speed>0.0316227766016838</speed>
  <fix>3d</fix>
</trkpt>
<trkpt lat="40.0713749" lon="-105.229789">
  <ele>1583.0</ele>
  <time>2026-08-28T17:52:09Z</time>
  <course>0.0</course>
  <speed>0.0</speed>
  <fix>3d</fix>
</trkpt>
<trkpt lat="40.0713749" lon="-105.229789">
  <ele>1583.0</ele>
  <time>2026-08-28T17:52:09Z</time>
  <course>247.64</course>
  <speed>0.0316227766016838</speed>
  <fix>3d</fix>
</trkpt>
<trkpt lat="40.0713749" lon="-105.229789">
  <ele>1583.0</ele>
  <time>2026-08-28T17:52:09Z</time>
  <course>0.0</course>
  <speed>0.0</speed>
  <fix>3d</fix>
</trkpt>
<trkpt lat="40.0713749" lon="-105.229789">
  <ele>1583.0</ele>
  <time>2026-08-28T17:52:09Z</time>
  <course>247.63</course>
  <speed>0.0316227766016838</speed>
  <fix>3d</fix>
</trkpt>
<trkpt lat="40.0713749" lon="-105.229789">
  <ele>1583.0</ele>
  <time>2026-08-28T17:52:09Z</time>
  <course>0.0</course>
  <speed>0.0</speed>
  <fix>3d</fix>
</trkpt>
<trkpt lat="40.0713749" lon="-105.229789">
  <ele>1583.0</ele>
  <time>2026-08-28T17:52:09Z</time>
  <course>247.63</course>
  <speed>0.0316227766016838</speed>
  <fix>3d</fix>
</trkpt>
<trkpt lat="40.0713749" lon="-105.229789">
  <ele>1583.0</ele>
  <time>2026-08-28T17:52:09Z</time>
  <course>0.0</course>
  <speed>0.0</speed>
  <fix>3d</fix>
</trkpt>
<trkpt lat="40.0713749" lon="-105.229789">
  <ele>1583.0</ele>
  <time>2026-08-28T17:52:09Z</time>
  <course>247.63</course>
  <speed>0.0316227766016838</speed>
  <fix>3d</fix>
</trkpt>
<trkpt lat="40.0713749" lon="-105.229789">
  <ele>1583.0</ele>
  <time>2026-08-28T17:52:09Z</time>
  <course>0.0</course>
  <speed>0.0</speed>
  <fix>3d</fix>
</trkpt>
<trkpt lat="40.0713749" lon="-105.229789">
  <ele>1583.0</ele>
  <time>2026-08-28T17:52:09Z</time>
  <course>247.62</course>
  <speed>0.0316227766016838</speed>
  <fix>3d</fix>
</trkpt>
<trkpt lat="40.0713749" lon="-105.229789">
  <ele>1583.0</ele>
  <time>2026-08-28T17:52:09Z</time>
  <course>0.0</course>
  <speed>0.0</speed>
  <fix>3d</fix>
</trkpt>
<trkpt lat="40.0713749" lon="-105.229789">
  <ele>1583.0</ele>
  <time>2026-08-28T17:52:09Z</time>
  <course>247.62</course>
  <speed>0.0316227766016838</speed>
  <fix>3d</fix>
</trkpt>
<trkpt lat="40.0713749" lon="-105.229789">
  <ele>1583.0</ele>
  <time>2026-08-28T17:52:09Z</time>
  <course>0.0</course>
  <speed>0.0</speed>
  <fix>3d</fix>
</trkpt>
<trkpt lat="40.0713749" lon="-105.229789">
  <ele>1583.0</ele>
  <time>2026-08-28T17:52:09Z</time>
  <course>247.62</course>
  <speed>0.0316227766016838</speed>
  <fix>3d</fix>
</trkpt>
<trkpt lat="40.0713749" lon="-105.229789">
  <ele>1583.0</ele>
  <time>2026-08-28T17:52:09Z</time>
  <course>0.0</course>
  <speed>0.0</speed>
  <fix>3d</fix>
</trkpt>
<trkpt lat="40.0713749" lon="-105.229789">
  <ele>1583.0</ele>
  <time>2026-08-28T17:52:09Z</time>
  <course>247.62</course>
  <speed>0.0316227766016838</speed>
  <fix>3d</fix>
</trkpt>
<trkpt lat="40.0713749" lon="-105.229789">
  <ele>1583.0</ele>
  <time>2026-08-28T17:52:09Z</time>
  <course>0.0</course>
  <speed>0.0</speed>
  <fix>3d</fix>
</trkpt>
<trkpt lat="40.0713749" lon="-105.229789">
  <ele>1583.0</ele>
  <time>2026-08-28T17:52:09Z</time>
  <course>247.61</course>
  <speed>0.0316227766016838</speed>
  <fix>3d</fix>
</trkpt>
<trkpt lat="40.0713749" lon="-105.229789">
  <ele>1583.0</ele>
  <time>2026-08-28T17:52:09Z</time>
  <course>0.0</course>
  <speed>0.0</speed>
  <fix>3d</fix>
</trkpt>
<trkpt lat="40.0713749" lon="-105.229789">
  <ele>1583.0</ele>
  <time>2026-08-28T17:52:09Z</time>
  <course>247.61</course>
  <speed>0.0316227766016838</speed>
  <fix>3d</fix>
</trkpt>
<trkpt lat="40.0713749" lon="-105.229789">
  <ele>1583.0</ele>
  <time>2026-08-28T17:52:09Z</time>
  <course>0.0</course>
  <speed>0.0</speed>
  <fix>3d</fix>
</trkpt>
<trkpt lat="40.0713749" lon="-105.229789">
  <ele>1583.0</ele>
  <time>2026-08-28T17:52:09Z</time>
  <course>247.61</course>
  <speed>0.0316227766016838</speed>
  <fix>3d</fix>
</trkpt>
<trkpt lat="40.0713749" lon="-105.229789">
  <ele>1583.0</ele>
  <time>2026-08-28T17:52:09Z</time>
  <course>0.0</course>
  <speed>0.0</speed>
  <fix>3d</fix>
</trkpt>
<trkpt lat="40.0713749" lon="-105.229789">
  <ele>1583.0</ele>
  <time>2026-08-28T17:52:09Z</time>
  <course>247.6</course>
  <speed>0.0316227766016838</speed>
  <fix>3d</fix>
</trkpt>
<trkpt lat="40.0713749" lon="-105.229789">
  <ele>1583.0</ele>
  <time>2026-08-28T17:52:09Z</time>
  <course>0.0</course>
  <speed>0.0</speed>
  <fix>3d</fix>
</trkpt>
<trkpt lat="40.0713749" lon="-105.229789">
  <ele>1583.0</ele>
  <time>2026-08-28T17:52:09Z</time>
  <course>247.6</course>
  <speed>0.0316227766016838</speed>
  <fix>3d</fix>
</trkpt>
<trkpt lat="40.0713749" lon="-105.229789">
  <ele>1583.0</ele>
  <time>2026-08-28T17:52:09Z</time>
  <course>0.0</course>
  <speed>0.0</speed>
  <fix>3d</fix>
</trkpt>
<trkpt lat="40.0713749" lon="-105.229789">
  <ele>1583.0</ele>
  <time>2026-08-28T17:52:09Z</time>
  <course>247.6</course>
  <speed>0.0316227766016838</speed>
  <fix>3d</fix>
</trkpt>
<trkpt lat="40.0713749" lon="-105.229789">
  <ele>1583.0</ele>
  <time>2026-08-28T17:52:09Z</time>
  <course>0.0</course>
  <speed>0.0</speed>
  <fix>3d</fix>
</trkpt>
<trkpt lat="40.0713749" lon="-105.229789">
  <ele>1583.0</ele>
  <time>2026-08-28T17:52:09Z</time>
  <course>247.6</course>
  <speed>0.0316227766016838</speed>
  <fix>3d</fix>
</trkpt>
<trkpt lat="40.0713749" lon="-105.229789">
  <ele>1583.0</ele>
  <time>2026-08-28T17:52:09Z</time>
  <course>0.0</course>
  <speed>0.0</speed>
  <fix>3d</fix>
</trkpt>
<trkpt lat="40.0713749" lon="-105.229789">
  <ele>1583.0</ele>
  <time>2026-08-28T17:52:09Z</time>
  <course>247.59</course>
  <speed>0.0316227766016838</speed>
  <fix>3d</fix>
</trkpt>
<trkpt lat="40.0713749" lon="-105.229789">
  <ele>1583.0</ele>
  <time>2026-08-28T17:52:09Z</time>
  <course>0.0</course>
  <speed>0.0</speed>
  <fix>3d</fix>
</trkpt>
<trkpt lat="40.0713749" lon="-105.229789">
  <ele>1582.92</ele>
  <time>2026-08-28T17:52:09Z</time>
  <course>247.59</course>
  <speed>0.0</speed>
  <fix>3d</fix>
</trkpt>
<trkpt lat="40.0713749" lon="-105.229789">
  <ele>1583.0</ele>
  <time>2026-08-28T17:52:09Z</time>
  <course>0.0</course>
  <speed>0.0</speed>
  <fix>3d</fix>
</trkpt>
<trkpt lat="40.0713749" lon="-105.229789">
  <ele>1582.92</ele>
  <time>2026-08-28T17:52:09Z</time>
  <course>247.59</course>
  <speed>0.0</speed>
  <fix>3d</fix>
</trkpt>
<trkpt lat="40.0713749" lon="-105.229789">
  <ele>1583.0</ele>
  <time>2026-08-28T17:52:09Z</time>
  <course>0.0</course>
  <speed>0.0</speed>
  <fix>3d</fix>
</trkpt>
<trkpt lat="40.0713749" lon="-105.229789">
  <ele>1582.91</ele>
  <time>2026-08-28T17:52:09Z</time>
  <course>247.58</course>
  <speed>0.0</speed>
  <fix>3d</fix>
</trkpt>
<trkpt lat="40.0713749" lon="-105.229789">
  <ele>1583.0</ele>
  <time>2026-08-28T17:52:09Z</time>
  <course>0.0</course>
  <speed>0.0</speed>
  <fix>3d</fix>
</trkpt>
<trkpt lat="40.0713749" lon="-105.229789">
  <ele>1582.91</ele>
  <time>2026-08-28T17:52:09Z</time>
  <course>247.58</course>
  <speed>0.0</speed>
  <fix>3d</fix>
</trkpt>
<trkpt lat="40.0713749" lon="-105.229789">
  <ele>1583.0</ele>
  <time>2026-08-28T17:52:09Z</time>
  <course>0.0</course>
  <speed>0.0</speed>
  <fix>3d</fix>
</trkpt>
<trkpt lat="40.0713749" lon="-105.229789">
  <ele>1582.9</ele>
  <time>2026-08-28T17:52:09Z</time>
  <course>247.58</course>
  <speed>0.0</speed>
  <fix>3d</fix>
</trkpt>
<trkpt lat="40.0713749" lon="-105.229789">
  <ele>1583.0</ele>
  <time>2026-08-28T17:52:09Z</time>
  <course>0.0</course>
  <speed>0.0</speed>
  <fix>3d</fix>
</trkpt>
<trkpt lat="40.0713749" lon="-105.229789">
  <ele>1582.9</ele>
  <time>2026-08-28T17:52:09Z</time>
  <course>247.58</course>
  <speed>0.0</speed>
  <fix>3d</fix>
</trkpt>
<trkpt lat="40.0713749" lon="-105.229789">
  <ele>1583.0</ele>
  <time>2026-08-28T17:52:09Z</time>
  <course>0.0</course>
  <speed>0.0</speed>
  <fix>3d</fix>
</trkpt>
<trkpt lat="40.0713749" lon="-105.229789">
  <ele>1582.9</ele>
  <time>2026-08-28T17:52:09Z</time>
  <course>247.57</course>
  <speed>0.0</speed>
  <fix>3d</fix>
</trkpt>
<trkpt lat="40.0713749" lon="-105.229789">
  <ele>1583.0</ele>
  <time>2026-08-28T17:52:09Z</time>
  <course>0.0</course>
  <speed>0.0</speed>
  <fix>3d</fix>
</trkpt>
<trkpt lat="40.0713749" lon="-105.229789">
  <ele>1582.9</ele>
  <time>2026-08-28T17:52:09Z</time>
  <course>247.57</course>
  <speed>0.0</speed>
  <fix>3d</fix>
</trkpt>
<trkpt lat="40.0713749" lon="-105.229789">
  <ele>1583.0</ele>
  <time>2026-08-28T17:52:09Z</time>
  <course>0.0</course>
  <speed>0.0</speed>
  <fix>3d</fix>
</trkpt>
<trkpt lat="40.0713749" lon="-105.229789">
  <ele>1582.9</ele>
  <time>2026-08-28T17:52:09Z</time>
  <course>247.57</course>
  <speed>0.0</speed>
  <fix>3d</fix>
</trkpt>
<trkpt lat="40.0713749" lon="-105.229789">
  <ele>1583.0</ele>
  <time>2026-08-28T17:52:09Z</time>
  <course>0.0</course>
  <speed>0.0</speed>
  <fix>3d</fix>
</trkpt>
<trkpt lat="40.0713749" lon="-105.229789">
  <ele>1582.9</ele>
  <time>2026-08-28T17:52:09Z</time>
  <course>247.57</course>
  <speed>0.01</speed>
  <fix>3d</fix>
</trkpt>
<trkpt lat="40.0713749" lon="-105.229789">
  <ele>1583.0</ele>
  <time>2026-08-28T17:52:09Z</time>
  <course>0.0</course>
  <speed>0.0</speed>
  <fix>3d</fix>
</trkpt>
<trkpt lat="40.0713749" lon="-105.229789">
  <ele>1582.9</ele>
  <time>2026-08-28T17:52:09Z</time>
  <course>247.56</course>
  <speed>0.01</speed>
  <fix>3d</fix>
</trkpt>
<trkpt lat="40.0713749" lon="-105.229789">
  <ele>1583.0</ele>
  <time>2026-08-28T17:52:09Z</time>
  <course>0.0</course>
  <speed>0.0</speed>
  <fix>3d</fix>
</trkpt>
<trkpt lat="40.0713749" lon="-105.229789">
  <ele>1582.91</ele>
  <time>2026-08-28T17:52:09Z</time>
  <course>247.56</course>
  <speed>0.01</speed>
  <fix>3d</fix>
</trkpt>
<trkpt lat="40.0713749" lon="-105.229789">
  <ele>1583.0</ele>
  <time>2026-08-28T17:52:09Z</time>
  <course>0.0</course>
  <speed>0.0</speed>
  <fix>3d</fix>
</trkpt>
<trkpt lat="40.0713749" lon="-105.229789">
  <ele>1582.91</ele>
  <time>2026-08-28T17:52:09Z</time>
  <course>245.09</course>
  <speed>0.01</speed>
  <fix>3d</fix>
</trkpt>
<trkpt lat="40.0713749" lon="-105.229789">
  <ele>1583.0</ele>
  <time>2026-08-28T17:52:09Z</time>
  <course>0.0</course>
  <speed>0.0</speed>
  <fix>3d</fix>
</trkpt>
<trkpt lat="40.0713749" lon="-105.229789">
  <ele>1582.92</ele>
  <time>2026-08-28T17:52:09Z</time>
  <course>240.95</course>
  <speed>0.01</speed>
  <fix>3d</fix>
</trkpt>
<trkpt lat="40.0713749" lon="-105.229789">
  <ele>1583.0</ele>
  <time>2026-08-28T17:52:09Z</time>
  <course>0.0</course>
  <speed>0.0</speed>
  <fix>3d</fix>
</trkpt>
<trkpt lat="40.0713749" lon="-105.229789">
  <ele>1582.92</ele>
  <time>2026-08-28T17:52:09Z</time>
  <course>236.8</course>
  <speed>0.01</speed>
  <fix>3d</fix>
</trkpt>
<trkpt lat="40.0713749" lon="-105.229789">
  <ele>1583.0</ele>
  <time>2026-08-28T17:52:09Z</time>
  <course>0.0</course>
  <speed>0.0</speed>
  <fix>3d</fix>
</trkpt>
<trkpt lat="40.0713749" lon="-105.229789">
  <ele>1582.92</ele>
  <time>2026-08-28T17:52:09Z</time>
  <course>232.66</course>
  <speed>0.01</speed>
  <fix>3d</fix>
</trkpt>
<trkpt lat="40.0713749" lon="-105.229789">
  <ele>1583.0</ele>
  <time>2026-08-28T17:52:09Z</time>
  <course>0.0</course>
  <speed>0.0</speed>
  <fix>3d</fix>
</trkpt>
<trkpt lat="40.0713749" lon="-105.229789">
  <ele>1582.93</ele>
  <time>2026-08-28T17:52:09Z</time>
  <course>228.52</course>
  <speed>0.01</speed>
  <fix>3d</fix>
</trkpt>
<trkpt lat="40.0713749" lon="-105.229789">
  <ele>1583.0</ele>
  <time>2026-08-28T17:52:09Z</time>
  <course>0.0</course>
  <speed>0.0</speed>
  <fix>3d</fix>
</trkpt>
<trkpt lat="40.0713749" lon="-105.229789">
  <ele>1582.93</ele>
  <time>2026-08-28T17:52:09Z</time>
  <course>224.38</course>
  <speed>0.01</speed>
  <fix>3d</fix>
</trkpt>
<trkpt lat="40.0713749" lon="-105.229789">
  <ele>1583.0</ele>
  <time>2026-08-28T17:52:09Z</time>
  <course>0.0</course>
  <speed>0.0</speed>
  <fix>3d</fix>
</trkpt>
<trkpt lat="40.0713749" lon="-105.229789">
  <ele>1582.93</ele>
  <time>2026-08-28T17:52:09Z</time>
  <course>220.24</course>
  <speed>0.01</speed>
  <fix>3d</fix>
</trkpt>
<trkpt lat="40.0713749" lon="-105.229789">
  <ele>1583.0</ele>
  <time>2026-08-28T17:52:09Z</time>
  <course>0.0</course>
  <speed>0.0</speed>
  <fix>3d</fix>
</trkpt>
<trkpt lat="40.0713749" lon="-105.229789">
  <ele>1582.93</ele>
  <time>2026-08-28T17:52:09Z</time>
  <course>216.1</course>
  <speed>0.01</speed>
  <fix>3d</fix>
</trkpt>
<trkpt lat="40.0713749" lon="-105.229789">
  <ele>1583.0</ele>
  <time>2026-08-28T17:52:09Z</time>
  <course>0.0</course>
  <speed>0.0</speed>
  <fix>3d</fix>
</trkpt>
<trkpt lat="40.0713749" lon="-105.229789">
  <ele>1582.94</ele>
  <time>2026-08-28T17:52:09Z</time>
  <course>211.96</course>
  <speed>0.01</speed>
  <fix>3d</fix>
</trkpt>
<trkpt lat="40.0713749" lon="-105.229789">
  <ele>1583.0</ele>
  <time>2026-08-28T17:52:09Z</time>
  <course>0.0</course>
  <speed>0.0</speed>
  <fix>3d</fix>
</trkpt>
<trkpt lat="40.0713749" lon="-105.229789">
  <ele>1582.94</ele>
  <time>2026-08-28T17:52:09Z</time>
  <course>207.79</course>
  <speed>0.02</speed>
  <fix>3d</fix>
</trkpt>
<trkpt lat="40.0713749" lon="-105.229789">
  <ele>1583.0</ele>
  <time>2026-08-28T17:52:09Z</time>
  <course>0.0</course>
  <speed>0.0</speed>
  <fix>3d</fix>
</trkpt>
<trkpt lat="40.0713749" lon="-105.229789">
  <ele>1582.94</ele>
  <time>2026-08-28T17:52:09Z</time>
  <course>203.65</course>
  <speed>0.01</speed>
  <fix>3d</fix>
</trkpt>
<trkpt lat="40.0713749" lon="-105.229789">
  <ele>1583.0</ele>
  <time>2026-08-28T17:52:09Z</time>
  <course>0.0</course>
  <speed>0.0</speed>
  <fix>3d</fix>
</trkpt>
<trkpt lat="40.0713749" lon="-105.229789">
  <ele>1582.95</ele>
  <time>2026-08-28T17:52:09Z</time>
  <course>199.51</course>
  <speed>0.02</speed>
  <fix>3d</fix>
</trkpt>
<trkpt lat="40.0713749" lon="-105.229789">
  <ele>1583.0</ele>
  <time>2026-08-28T17:52:09Z</time>
  <course>0.0</course>
  <speed>0.0</speed>
  <fix>3d</fix>
</trkpt>
<trkpt lat="40.0713749" lon="-105.229789">
  <ele>1582.95</ele>
  <time>2026-08-28T17:52:09Z</time>
  <course>195.4</course>
  <speed>0.01</speed>
  <fix>3d</fix>
</trkpt>
<trkpt lat="40.0713749" lon="-105.229789">
  <ele>1583.0</ele>
  <time>2026-08-28T17:52:09Z</time>
  <course>0.0</course>
  <speed>0.0</speed>
  <fix>3d</fix>
</trkpt>
<trkpt lat="40.0713749" lon="-105.229789">
  <ele>1582.95</ele>
  <time>2026-08-28T17:52:09Z</time>
  <course>191.27</course>
  <speed>0.01</speed>
  <fix>3d</fix>
</trkpt>
<trkpt lat="40.0713749" lon="-105.229789">
  <ele>1583.0</ele>
  <time>2026-08-28T17:52:09Z</time>
  <course>0.0</course>
  <speed>0.0</speed>
  <fix>3d</fix>
</trkpt>
<trkpt lat="40.0713749" lon="-105.229789">
  <ele>1582.96</ele>
  <time>2026-08-28T17:52:09Z</time>
  <course>187.13</course>
  <speed>0.01</speed>
  <fix>3d</fix>
</trkpt>
<trkpt lat="40.0713749" lon="-105.229789">
  <ele>1583.0</ele>
  <time>2026-08-28T17:52:09Z</time>
  <course>0.0</course>
  <speed>0.0</speed>
  <fix>3d</fix>
</trkpt>
<trkpt lat="40.0713749" lon="-105.229789">
  <ele>1582.96</ele>
  <time>2026-08-28T17:52:09Z</time>
  <course>182.99</course>
  <speed>0.01414213562373095</speed>
  <fix>3d</fix>
</trkpt>
<trkpt lat="40.0713749" lon="-105.229789">
  <ele>1583.0</ele>
  <time>2026-08-28T17:52:09Z</time>
  <course>0.0</course>
  <speed>0.0</speed>
  <fix>3d</fix>
</trkpt>
<trkpt lat="40.0713749" lon="-105.229789">
  <ele>1582.96</ele>
  <time>2026-08-28T17:52:09Z</time>
  <course>178.8</course>
  <speed>0.01414213562373095</speed>
  <fix>3d</fix>
</trkpt>
<trkpt lat="40.0713749" lon="-105.229789">
  <ele>1583.0</ele>
  <time>2026-08-28T17:52:09Z</time>
  <course>0.0</course>
  <speed>0.0</speed>
  <fix>3d</fix>
</trkpt>
<trkpt lat="40.0713749" lon="-105.229789">
  <ele>1582.96</ele>
  <time>2026-08-28T17:52:09Z</time>
  <course>174.66</course>
  <speed>0.01414213562373095</speed>
  <fix>3d</fix>
</trkpt>
<trkpt lat="40.0713749" lon="-105.229789">
  <ele>1583.0</ele>
  <time>2026-08-28T17:52:09Z</time>
  <course>0.0</course>
  <speed>0.0</speed>
  <fix>3d</fix>
</trkpt>
<trkpt lat="40.0713749" lon="-105.229789">
  <ele>1582.96</ele>
  <time>2026-08-28T17:52:09Z</time>
  <course>170.52</course>
  <speed>0.01414213562373095</speed>
  <fix>3d</fix>
</trkpt>
<trkpt lat="40.0713749" lon="-105.229789">
  <ele>1583.0</ele>
  <time>2026-08-28T17:52:09Z</time>
  <course>0.0</course>
  <speed>0.0</speed>
  <fix>3d</fix>
</trkpt>
<trkpt lat="40.0713749" lon="-105.229789">
  <ele>1582.96</ele>
  <time>2026-08-28T17:52:09Z</time>
  <course>166.38</course>
  <speed>0.01414213562373095</speed>
  <fix>3d</fix>
</trkpt>
<trkpt lat="40.0713749" lon="-105.229789">
  <ele>1583.0</ele>
  <time>2026-08-28T17:52:09Z</time>
  <course>0.0</course>
  <speed>0.0</speed>
  <fix>3d</fix>
</trkpt>
<trkpt lat="40.0713749" lon="-105.229789">
  <ele>1582.95</ele>
  <time>2026-08-28T17:52:09Z</time>
  <course>162.24</course>
  <speed>0.01414213562373095</speed>
  <fix>3d</fix>
</trkpt>
<trkpt lat="40.0713749" lon="-105.229789">
  <ele>1583.0</ele>
  <time>2026-08-28T17:52:09Z</time>
  <course>0.0</course>
  <speed>0.0</speed>
  <fix>3d</fix>
</trkpt>
<trkpt lat="40.0713749" lon="-105.229789">
  <ele>1582.95</ele>
  <time>2026-08-28T17:52:09Z</time>
  <course>158.1</course>
  <speed>0.01414213562373095</speed>
  <fix>3d</fix>
</trkpt>
<trkpt lat="40.0713749" lon="-105.229789">
  <ele>1583.0</ele>
  <time>2026-08-28T17:52:09Z</time>
  <course>0.0</course>
  <speed>0.0</speed>
  <fix>3d</fix>
</trkpt>
<trkpt lat="40.0713749" lon="-105.229789">
  <ele>1582.95</ele>
  <time>2026-08-28T17:52:09Z</time>
  <course>153.96</course>
  <speed>0.01414213562373095</speed>
  <fix>3d</fix>
</trkpt>
<trkpt lat="40.0713749" lon="-105.229789">
  <ele>1583.0</ele>
  <time>2026-08-28T17:52:09Z</time>
  <course>0.0</course>
  <speed>0.0</speed>
  <fix>3d</fix>
</trkpt>
<trkpt lat="40.0713749" lon="-105.229789">
  <ele>1582.95</ele>
  <time>2026-08-28T17:52:09Z</time>
  <course>149.82</course>
  <speed>0.01414213562373095</speed>
  <fix>3d</fix>
</trkpt>
<trkpt lat="40.0713749" lon="-105.229789">
  <ele>1583.0</ele>
  <time>2026-08-28T17:52:09Z</time>
  <course>0.0</course>
  <speed>0.0</speed>
  <fix>3d</fix>
</trkpt>
<trkpt lat="40.0713749" lon="-105.229789">
  <ele>1582.95</ele>
  <time>2026-08-28T17:52:09Z</time>
  <course>145.68</course>
  <speed>0.01414213562373095</speed>
  <fix>3d</fix>
</trkpt>
<trkpt lat="40.0713749" lon="-105.229789">
  <ele>1583.0</ele>
  <time>2026-08-28T17:52:09Z</time>
  <course>0.0</course>
  <speed>0.0</speed>
  <fix>3d</fix>
</trkpt>
<trkpt lat="40.0713749" lon="-105.229789">
  <ele>1582.95</ele>
  <time>2026-08-28T17:52:09Z</time>
  <course>141.54</course>
  <speed>0.01414213562373095</speed>
  <fix>3d</fix>
</trkpt>
<trkpt lat="40.0713749" lon="-105.229789">
  <ele>1583.0</ele>
  <time>2026-08-28T17:52:09Z</time>
  <course>0.0</course>
  <speed>0.0</speed>
  <fix>3d</fix>
</trkpt>
<trkpt lat="40.0713749" lon="-105.229789">
  <ele>1582.95</ele>
  <time>2026-08-28T17:52:09Z</time>
  <course>137.4</course>
  <speed>0.01414213562373095</speed>
  <fix>3d</fix>
</trkpt>
<trkpt lat="40.0713749" lon="-105.229789">
  <ele>1583.0</ele>
  <time>2026-08-28T17:52:09Z</time>
  <course>0.0</course>
  <speed>0.0</speed>
  <fix>3d</fix>
</trkpt>
<trkpt lat="40.0713749" lon="-105.229789">
  <ele>1582.95</ele>
  <time>2026-08-28T17:52:09Z</time>
  <course>133.26</course>
  <speed>0.01414213562373095</speed>
  <fix>3d</fix>
</trkpt>
<trkpt lat="40.0713749" lon="-105.229789">
  <ele>1583.0</ele>
  <time>2026-08-28T17:52:09Z</time>
  <course>0.0</course>
  <speed>0.0</speed>
  <fix>3d</fix>
</trkpt>
<trkpt lat="40.0713749" lon="-105.229789">
  <ele>1582.95</ele>
  <time>2026-08-28T17:52:09Z</time>
  <course>129.12</course>
  <speed>0.01414213562373095</speed>
  <fix>3d</fix>
</trkpt>
<trkpt lat="40.0713749" lon="-105.229789">
  <ele>1583.0</ele>
  <time>2026-08-28T17:52:09Z</time>
  <course>0.0</course>
  <speed>0.0</speed>
  <fix>3d</fix>
</trkpt>
<trkpt lat="40.0713749" lon="-105.229789">
  <ele>1582.95</ele>
  <time>2026-08-28T17:52:09Z</time>
  <course>124.98</course>
  <speed>0.01414213562373095</speed>
  <fix>3d</fix>
</trkpt>
<trkpt lat="40.0713749" lon="-105.229789">
  <ele>1583.0</ele>
  <time>2026-08-28T17:52:09Z</time>
  <course>0.0</course>
  <speed>0.0</speed>
  <fix>3d</fix>
</trkpt>
<trkpt lat="40.0713749" lon="-105.229789">
  <ele>1582.95</ele>
  <time>2026-08-28T17:52:09Z</time>
  <course>120.8</course>
  <speed>0.01414213562373095</speed>
  <fix>3d</fix>
</trkpt>
<trkpt lat="40.0713749" lon="-105.229789">
  <ele>1583.0</ele>
  <time>2026-08-28T17:52:09Z</time>
  <course>0.0</course>
  <speed>0.0</speed>
  <fix>3d</fix>
</trkpt>
<trkpt lat="40.0713749" lon="-105.229789">
  <ele>1582.95</ele>
  <time>2026-08-28T17:52:09Z</time>
  <course>116.66</course>
  <speed>0.01414213562373095</speed>
  <fix>3d</fix>
</trkpt>
<trkpt lat="40.0713749" lon="-105.229789">
  <ele>1583.0</ele>
  <time>2026-08-28T17:52:09Z</time>
  <course>0.0</course>
  <speed>0.0</speed>
  <fix>3d</fix>
</trkpt>
<trkpt lat="40.0713749" lon="-105.229789">
  <ele>1582.96</ele>
  <time>2026-08-28T17:52:09Z</time>
  <course>112.52</course>
  <speed>0.01414213562373095</speed>
  <fix>3d</fix>
</trkpt>
<trkpt lat="40.0713749" lon="-105.229789">
  <ele>1583.0</ele>
  <time>2026-08-28T17:52:09Z</time>
  <course>0.0</course>
  <speed>0.0</speed>
  <fix>3d</fix>
</trkpt>
<trkpt lat="40.0713749" lon="-105.229789">
  <ele>1582.97</ele>
  <time>2026-08-28T17:52:09Z</time>
  <course>108.42</course>
  <speed>0.01414213562373095</speed>
  <fix>3d</fix>
</trkpt>
<trkpt lat="40.0713749" lon="-105.229789">
  <ele>1583.0</ele>
  <time>2026-08-28T17:52:09Z</time>
  <course>0.0</course>
  <speed>0.0</speed>
  <fix>3d</fix>
</trkpt>
<trkpt lat="40.0713749" lon="-105.229789">
  <ele>1582.97</ele>
  <time>2026-08-28T17:52:09Z</time>
  <course>104.27</course>
  <speed>0.01414213562373095</speed>
  <fix>3d</fix>
</trkpt>
<trkpt lat="40.0713749" lon="-105.229789">
  <ele>1583.0</ele>
  <time>2026-08-28T17:52:09Z</time>
  <course>0.0</course>
  <speed>0.0</speed>
  <fix>3d</fix>
</trkpt>
<trkpt lat="40.0713749" lon="-105.2297889">
  <ele>1582.98</ele>
  <time>2026-08-28T17:52:09Z</time>
  <course>100.13</course>
  <speed>0.01414213562373095</speed>
  <fix>3d</fix>
</trkpt>
<trkpt lat="40.0713749" lon="-105.229789">
  <ele>1583.0</ele>
  <time>2026-08-28T17:52:09Z</time>
  <course>0.0</course>
  <speed>0.0</speed>
  <fix>3d</fix>
</trkpt>
<trkpt lat="40.0713749" lon="-105.2297889">
  <ele>1582.98</ele>
  <time>2026-08-28T17:52:09Z</time>
  <course>95.99</course>
  <speed>0.01414213562373095</speed>
  <fix>3d</fix>
</trkpt>
<trkpt lat="40.0713749" lon="-105.229789">
  <ele>1583.0</ele>
  <time>2026-08-28T17:52:09Z</time>
  <course>0.0</course>
  <speed>0.0</speed>
  <fix>3d</fix>
</trkpt>
<trkpt lat="40.0713749" lon="-105.2297889">
  <ele>1582.98</ele>
  <time>2026-08-28T17:52:09Z</time>
  <course>94.3</course>
  <speed>0.01414213562373095</speed>
  <fix>3d</fix>
</trkpt>
<trkpt lat="40.0713749" lon="-105.229789">
  <ele>1583.0</ele>
  <time>2026-08-28T17:52:09Z</time>
  <course>0.0</course>
  <speed>0.0</speed>
  <fix>3d</fix>
</trkpt>
<trkpt lat="40.0713749" lon="-105.2297889">
  <ele>1582.98</ele>
  <time>2026-08-28T17:52:09Z</time>
  <course>94.3</course>
  <speed>0.01414213562373095</speed>
  <fix>3d</fix>
</trkpt>
<trkpt lat="40.0713749" lon="-105.229789">
  <ele>1583.0</ele>
  <time>2026-08-28T17:52:09Z</time>
  <course>0.0</course>
  <speed>0.0</speed>
  <fix>3d</fix>
</trkpt>
<trkpt lat="40.071375" lon="-105.2297889">
  <ele>1582.98</ele>
  <time>2026-08-28T17:52:09Z</time>
  <course>94.3</course>
  <speed>0.01414213562373095</speed>
  <fix>3d</fix>
</trkpt>
<trkpt lat="40.0713749" lon="-105.229789">
  <ele>1583.0</ele>
  <time>2026-08-28T17:52:09Z</time>
  <course>0.0</course>
  <speed>0.0</speed>
  <fix>3d</fix>
</trkpt>
<trkpt lat="40.071375" lon="-105.2297889">
  <ele>1582.98</ele>
  <time>2026-08-28T17:52:09Z</time>
  <course>94.3</course>
  <speed>0.01414213562373095</speed>
  <fix>3d</fix>
</trkpt>
<trkpt lat="40.0713749" lon="-105.229789">
  <ele>1583.0</ele>
  <time>2026-08-28T17:52:09Z</time>
  <course>0.0</course>
  <speed>0.0</speed>
  <fix>3d</fix>
</trkpt>
<trkpt lat="40.071375" lon="-105.2297889">
  <ele>1582.98</ele>
  <time>2026-08-28T17:52:09Z</time>
  <course>95.94</course>
  <speed>0.01414213562373095</speed>
  <fix>3d</fix>
</trkpt>
<trkpt lat="40.0713749" lon="-105.229789">
  <ele>1583.0</ele>
  <time>2026-08-28T17:52:09Z</time>
  <course>0.0</course>
  <speed>0.0</speed>
  <fix>3d</fix>
</trkpt>
<trkpt lat="40.071375" lon="-105.2297889">
  <ele>1582.98</ele>
  <time>2026-08-28T17:52:09Z</time>
  <course>100.08</course>
  <speed>0.01414213562373095</speed>
  <fix>3d</fix>
</trkpt>
<trkpt lat="40.0713749" lon="-105.229789">
  <ele>1583.0</ele>
  <time>2026-08-28T17:52:09Z</time>
  <course>0.0</course>
  <speed>0.0</speed>
  <fix>3d</fix>
</trkpt>
<trkpt lat="40.071375" lon="-105.2297889">
  <ele>1582.98</ele>
  <time>2026-08-28T17:52:09Z</time>
  <course>100.93</course>
  <speed>0.02</speed>
  <fix>3d</fix>
</trkpt>
<trkpt lat="40.0713749" lon="-105.229789">
  <ele>1583.0</ele>
  <time>2026-08-28T17:52:09Z</time>
  <course>279.29</course>
  <speed>0.0</speed>
  <fix>3d</fix>
</trkpt>
<trkpt lat="40.071375" lon="-105.229789">
  <ele>1582.98</ele>
  <time>2026-08-28T17:52:09Z</time>
  <course>96.79</course>
  <speed>0.11401754250991379</speed>
  <fix>3d</fix>
</trkpt>
<trkpt lat="40.0713749" lon="-105.229789">
  <ele>1583.0</ele>
  <time>2026-08-28T17:52:09Z</time>
  <course>279.29</course>
  <speed>0.0</speed>
  <fix>3d</fix>
</trkpt>
<trkpt lat="40.071375" lon="-105.2297892">
  <ele>1582.98</ele>
  <time>2026-08-28T17:52:09Z</time>
  <course>92.63</course>
  <speed>0.24083189157584592</speed>
  <fix>3d</fix>
</trkpt>
<trkpt lat="40.0713749" lon="-105.229789">
  <ele>1583.0</ele>
  <time>2026-08-28T17:52:09Z</time>
  <course>279.29</course>
  <speed>0.0</speed>
  <fix>3d</fix>
</trkpt>
<trkpt lat="40.071375" lon="-105.2297895">
  <ele>1582.98</ele>
  <time>2026-08-28T17:52:09Z</time>
  <course>88.48</course>
  <speed>0.33</speed>
  <fix>3d</fix>
</trkpt>
<trkpt lat="40.0713749" lon="-105.2297891">
  <ele>1583.0</ele>
  <time>2026-08-28T17:52:09Z</time>
  <course>271.45</course>
  <speed>0.13</speed>
  <fix>3d</fix>
</trkpt>
<trkpt lat="40.071375" lon="-105.22979">
  <ele>1582.98</ele>
  <time>2026-08-28T17:52:09Z</time>
  <course>84.34</course>
  <speed>0.3905124837953327</speed>
  <fix>3d</fix>
</trkpt>
<trkpt lat="40.0713749" lon="-105.2297891">
  <ele>1583.0</ele>
  <time>2026-08-28T17:52:09Z</time>
  <course>271.45</course>
  <speed>0.13</speed>
  <fix>3d</fix>
</trkpt>
<trkpt lat="40.071375" lon="-105.2297905">
  <ele>1582.98</ele>
  <time>2026-08-28T17:52:09Z</time>
  <course>80.19</course>
  <speed>0.4341658669218482</speed>
  <fix>3d</fix>
</trkpt>
<trkpt lat="40.0713749" lon="-105.2297897">
  <ele>1583.0</ele>
  <time>2026-08-28T17:52:09Z</time>
  <course>265.89</course>
  <speed>0.33</speed>
  <fix>3d</fix>
</trkpt>
<trkpt lat="40.0713749" lon="-105.2297911">
  <ele>1582.98</ele>
  <time>2026-08-28T17:52:09Z</time>
  <course>76.04</course>
  <speed>0.4707440918375928</speed>
  <fix>3d</fix>
</trkpt>
<trkpt lat="40.0713749" lon="-105.2297897">
  <ele>1583.0</ele>
  <time>2026-08-28T17:52:09Z</time>
  <course>265.89</course>
  <speed>0.33</speed>
  <fix>3d</fix>
</trkpt>
<trkpt lat="40.0713747" lon="-105.2297916">
  <ele>1582.98</ele>
  <time>2026-08-28T17:52:09Z</time>
  <course>71.9</course>
  <speed>0.4933558553417604</speed>
  <fix>3d</fix>
</trkpt>
<trkpt lat="40.0713749" lon="-105.2297906">
  <ele>1583.0</ele>
  <time>2026-08-28T17:52:09Z</time>
  <course>258.19</course>
  <speed>0.44</speed>
  <fix>3d</fix>
</trkpt>
<trkpt lat="40.0713746" lon="-105.2297922">
  <ele>1582.98</ele>
  <time>2026-08-28T17:52:09Z</time>
  <course>67.72</course>
  <speed>0.5069516742254631</speed>
  <fix>3d</fix>
</trkpt>
<trkpt lat="40.0713747" lon="-105.2297916">
  <ele>1583.0</ele>
  <time>2026-08-28T17:52:09Z</time>
  <course>250.1</course>
  <speed>0.5</speed>
  <fix>3d</fix>
</trkpt>
<trkpt lat="40.0713744" lon="-105.2297928">
  <ele>1582.98</ele>
  <time>2026-08-28T17:52:09Z</time>
  <course>63.58</course>
  <speed>0.5142956348249517</speed>
  <fix>3d</fix>
</trkpt>
<trkpt lat="40.0713747" lon="-105.2297916">
  <ele>1583.0</ele>
  <time>2026-08-28T17:52:09Z</time>
  <course>250.1</course>
  <speed>0.5</speed>
  <fix>3d</fix>
</trkpt>
<trkpt lat="40.0713741" lon="-105.2297934">
  <ele>1582.98</ele>
  <time>2026-08-28T17:52:09Z</time>
  <course>59.43</course>
  <speed>0.524785670536077</speed>
  <fix>3d</fix>
</trkpt>
<trkpt lat="40.0713743" lon="-105.2297927">
  <ele>1583.0</ele>
  <time>2026-08-28T17:52:09Z</time>
  <course>241.9</course>
  <speed>0.53</speed>
  <fix>3d</fix>
</trkpt>
<trkpt lat="40.0713738" lon="-105.2297939">
  <ele>1582.98</ele>
  <time>2026-08-28T17:52:09Z</time>
  <course>55.32</course>
  <speed>0.5382378656319156</speed>
  <fix>3d</fix>
</trkpt>
<trkpt lat="40.0713743" lon="-105.2297927">
  <ele>1583.0</ele>
  <time>2026-08-28T17:52:09Z</time>
  <course>241.9</course>
  <speed>0.53</speed>
  <fix>3d</fix>
</trkpt>
<trkpt lat="40.0713735" lon="-105.2297944">
  <ele>1582.98</ele>
  <time>2026-08-28T17:52:09Z</time>
  <course>51.18</course>
  <speed>0.532634959423431</speed>
  <fix>3d</fix>
</trkpt>
<trkpt lat="40.0713738" lon="-105.2297938">
  <ele>1583.0</ele>
  <time>2026-08-28T17:52:09Z</time>
  <course>233.65</course>
  <speed>0.54</speed>
  <fix>3d</fix>
</trkpt>
<trkpt lat="40.0713732" lon="-105.2297949">
  <ele>1582.99</ele>
  <time>2026-08-28T17:52:09Z</time>
  <course>47.04</course>
  <speed>0.5375872022286245</speed>
  <fix>3d</fix>
</trkpt>
<trkpt lat="40.0713738" lon="-105.2297938">
  <ele>1583.0</ele>
  <time>2026-08-28T17:52:09Z</time>
  <course>233.65</course>
  <speed>0.54</speed>
  <fix>3d</fix>
</trkpt>
<trkpt lat="40.0713728" lon="-105.2297953">
  <ele>1582.99</ele>
  <time>2026-08-28T17:52:09Z</time>
  <course>42.89</course>
  <speed>0.5381449618829484</speed>
  <fix>3d</fix>
</trkpt>
<trkpt lat="40.0713731" lon="-105.2297948">
  <ele>1583.0</ele>
  <time>2026-08-28T17:52:09Z</time>
  <course>225.39</course>
  <speed>0.55</speed>
  <fix>3d</fix>
</trkpt>
<trkpt lat="40.0713724" lon="-105.2297958">
  <ele>1582.99</ele>
  <time>2026-08-28T17:52:09Z</time>
  <course>38.71</course>
  <speed>0.5420332093147061</speed>
  <fix>3d</fix>
</trkpt>
<trkpt lat="40.0713731" lon="-105.2297948">
  <ele>1583.0</ele>
  <time>2026-08-28T17:52:09Z</time>
  <course>225.39</course>
  <speed>0.55</speed>
  <fix>3d</fix>
</trkpt>
<trkpt lat="40.071372" lon="-105.2297961">
  <ele>1582.99</ele>
  <time>2026-08-28T17:52:09Z</time>
  <course>34.57</course>
  <speed>0.5491812087098392</speed>
  <fix>3d</fix>
</trkpt>
<trkpt lat="40.0713724" lon="-105.2297957">
  <ele>1583.0</ele>
  <time>2026-08-28T17:52:09Z</time>
  <course>217.11</course>
  <speed>0.55</speed>
  <fix>3d</fix>
</trkpt>
<trkpt lat="40.0713715" lon="-105.2297965">
  <ele>1583.0</ele>
  <time>2026-08-28T17:52:09Z</time>
  <course>30.43</course>
  <speed>0.5458937625582473</speed>
  <fix>3d</fix>
</trkpt>
<trkpt lat="40.0713724" lon="-105.2297957">
  <ele>1583.0</ele>
  <time>2026-08-28T17:52:09Z</time>
  <course>217.11</course>
  <speed>0.55</speed>
  <fix>3d</fix>
</trkpt>
<trkpt lat="40.0713711" lon="-105.2297968">
  <ele>1583.0</ele>
  <time>2026-08-28T17:52:09Z</time>
  <course>26.28</course>
  <speed>0.5503635162326805</speed>
  <fix>3d</fix>
</trkpt>
<trkpt lat="40.0713716" lon="-105.2297964">
  <ele>1583.0</ele>
  <time>2026-08-28T17:52:09Z</time>
  <course>208.83</course>
  <speed>0.55</speed>
  <fix>3d</fix>
</trkpt>
<trkpt lat="40.0713706" lon="-105.229797">
  <ele>1583.0</ele>
  <time>2026-08-28T17:52:09Z</time>
  <course>22.14</course>
  <speed>0.5536244214266564</speed>
  <fix>3d</fix>
</trkpt>
<trkpt lat="40.0713716" lon="-105.2297964">
  <ele>1583.0</ele>
  <time>2026-08-28T17:52:09Z</time>
  <course>208.83</course>
  <speed>0.55</speed>
  <fix>3d</fix>
</trkpt>
<trkpt lat="40.0713701" lon="-105.2297972">
  <ele>1583.0</ele>
  <time>2026-08-28T17:52:09Z</time>
  <course>18.0</course>
  <speed>0.5508175741568164</speed>
  <fix>3d</fix>
</trkpt>
<trkpt lat="40.0713707" lon="-105.2297969">
  <ele>1583.0</ele>
  <time>2026-08-28T17:52:09Z</time>
  <course>200.55</course>
  <speed>0.55</speed>
  <fix>3d</fix>
</trkpt>
<trkpt lat="40.0713696" lon="-105.2297973">
  <ele>1583.0</ele>
  <time>2026-08-28T17:52:09Z</time>
  <course>13.86</course>
  <speed>0.5510898293381942</speed>
  <fix>3d</fix>
</trkpt>
<trkpt lat="40.0713707" lon="-105.2297969">
  <ele>1583.0</ele>
  <time>2026-08-28T17:52:09Z</time>
  <course>200.55</course>
  <speed>0.55</speed>
  <fix>3d</fix>
</trkpt>
<trkpt lat="40.0713691" lon="-105.2297974">
  <ele>1583.0</ele>
  <time>2026-08-28T17:52:09Z</time>
  <course>9.72</course>
  <speed>0.5544366510251645</speed>
  <fix>3d</fix>
</trkpt>
<trkpt lat="40.0713707" lon="-105.2297969">
  <ele>1583.0</ele>
  <time>2026-08-28T17:52:09Z</time>
  <course>200.55</course>
  <speed>0.55</speed>
  <fix>3d</fix>
</trkpt>
<trkpt lat="40.0713686" lon="-105.2297975">
  <ele>1583.01</ele>
  <time>2026-08-28T17:52:09Z</time>
  <course>5.57</course>
  <speed>0.5508175741568164</speed>
  <fix>3d</fix>
</trkpt>
<trkpt lat="40.0713697" lon="-105.2297973">
  <ele>1583.0</ele>
  <time>2026-08-28T17:52:09Z</time>
  <course>192.25</course>
  <speed>0.55</speed>
  <fix>3d</fix>
</trkpt>
<trkpt lat="40.0713681" lon="-105.2297975">
  <ele>1583.01</ele>
  <time>2026-08-28T17:52:09Z</time>
  <course>1.43</course>
  <speed>0.5600892785976178</speed>
  <fix>3d</fix>
</trkpt>
<trkpt lat="40.0713697" lon="-105.2297973">
  <ele>1583.0</ele>
  <time>2026-08-28T17:52:09Z</time>
  <course>192.25</course>
  <speed>0.55</speed>
  <fix>3d</fix>
</trkpt>
<trkpt lat="40.0713676" lon="-105.2297975">
  <ele>1583.0</ele>
  <time>2026-08-28T17:52:09Z</time>
  <course>357.3</course>
  <speed>0.552268050859363</speed>
  <fix>3d</fix>
</trkpt>
<trkpt lat="40.0713686" lon="-105.2297974">
  <ele>1583.0</ele>
  <time>2026-08-28T17:52:09Z</time>
  <course>183.94</course>
  <speed>0.55</speed>
  <fix>3d</fix>
</trkpt>
<trkpt lat="40.0713671" lon="-105.2297974">
  <ele>1583.01</ele>
  <time>2026-08-28T17:52:09Z</time>
  <course>353.16</course>
  <speed>0.5573149917237109</speed>
  <fix>3d</fix>
</trkpt>
<trkpt lat="40.0713686" lon="-105.2297974">
  <ele>1583.0</ele>
  <time>2026-08-28T17:52:09Z</time>
  <course>183.94</course>
  <speed>0.55</speed>
  <fix>3d</fix>
</trkpt>
<trkpt lat="40.0713666" lon="-105.2297973">
  <ele>1583.01</ele>
  <time>2026-08-28T17:52:09Z</time>
  <course>349.02</course>
  <speed>0.5554277630799526</speed>
  <fix>3d</fix>
</trkpt>
<trkpt lat="40.0713676" lon="-105.2297974">
  <ele>1583.0</ele>
  <time>2026-08-28T17:52:09Z</time>
  <course>175.66</course>
  <speed>0.55</speed>
  <fix>3d</fix>
</trkpt>
<trkpt lat="40.0713661" lon="-105.2297971">
  <ele>1583.01</ele>
  <time>2026-08-28T17:52:09Z</time>
  <course>344.87</course>
  <speed>0.5565968020030299</speed>
  <fix>3d</fix>
</trkpt>
<trkpt lat="40.0713676" lon="-105.2297974">
  <ele>1583.0</ele>
  <time>2026-08-28T17:52:09Z</time>
  <course>175.66</course>
  <speed>0.55</speed>
  <fix>3d</fix>
</trkpt>
<trkpt lat="40.0713656" lon="-105.2297969">
  <ele>1583.01</ele>
  <time>2026-08-28T17:52:09Z</time>
  <course>340.7</course>
  <speed>0.5608029957123981</speed>
  <fix>3d</fix>
</trkpt>
<trkpt lat="40.0713667" lon="-105.2297974">
  <ele>1583.0</ele>
  <time>2026-08-28T17:52:09Z</time>
  <course>167.37</course>
  <speed>0.55</speed>
  <fix>3d</fix>
</trkpt>
<trkpt lat="40.0713652" lon="-105.2297966">
  <ele>1583.01</ele>
  <time>2026-08-28T17:52:09Z</time>
  <course>336.56</course>
  <speed>0.5546169849544819</speed>
  <fix>3d</fix>
</trkpt>
<trkpt lat="40.0713657" lon="-105.229797">
  <ele>1583.0</ele>
  <time>2026-08-28T17:52:09Z</time>
  <course>159.09</course>
  <speed>0.55</speed>
  <fix>3d</fix>
</trkpt>
<trkpt lat="40.0713647" lon="-105.2297963">
  <ele>1583.01</ele>
  <time>2026-08-28T17:52:09Z</time>
  <course>332.42</course>
  <speed>0.5556977595779922</speed>
  <fix>3d</fix>
</trkpt>
<trkpt lat="40.0713657" lon="-105.229797">
  <ele>1583.0</ele>
  <time>2026-08-28T17:52:09Z</time>
  <course>159.09</course>
  <speed>0.55</speed>
  <fix>3d</fix>
</trkpt>
<trkpt lat="40.0713643" lon="-105.229796">
  <ele>1583.0</ele>
  <time>2026-08-28T17:52:09Z</time>
  <course>328.31</course>
  <speed>0.5547071299343466</speed>
  <fix>3d</fix>
</trkpt>
<trkpt lat="40.0713648" lon="-105.2297964">
  <ele>1583.0</ele>
  <time>2026-08-28T17:52:09Z</time>
  <course>150.81</course>
  <speed>0.55</speed>
  <fix>3d</fix>
</trkpt>
<trkpt lat="40.0713639" lon="-105.2297956">
  <ele>1583.0</ele>
  <time>2026-08-28T17:52:09Z</time>
  <course>324.17</course>
  <speed>0.5622277118748239</speed>
  <fix>3d</fix>
</trkpt>
<trkpt lat="40.0713648" lon="-105.2297964">
  <ele>1583.0</ele>
  <time>2026-08-28T17:52:09Z</time>
  <course>150.81</course>
  <speed>0.55</speed>
  <fix>3d</fix>
</trkpt>
<trkpt lat="40.0713635" lon="-105.2297951">
  <ele>1583.0</ele>
  <time>2026-08-28T17:52:09Z</time>
  <course>320.03</course>
  <speed>0.5590169943749475</speed>
  <fix>3d</fix>
</trkpt>
<trkpt lat="40.071364" lon="-105.2297957">
  <ele>1583.0</ele>
  <time>2026-08-28T17:52:09Z</time>
  <course>142.52</course>
  <speed>0.55</speed>
  <fix>3d</fix>
</trkpt>
<trkpt lat="40.0713632" lon="-105.2297947">
  <ele>1583.0</ele>
  <time>2026-08-28T17:52:09Z</time>
  <course>315.88</course>
  <speed>0.5590169943749475</speed>
  <fix>3d</fix>
</trkpt>
<trkpt lat="40.071364" lon="-105.2297957">
  <ele>1583.0</ele>
  <time>2026-08-28T17:52:09Z</time>
  <course>142.52</course>
  <speed>0.55</speed>
  <fix>3d</fix>
</trkpt>
<trkpt lat="40.0713628" lon="-105.2297942">
  <ele>1583.01</ele>
  <time>2026-08-28T17:52:09Z</time>
  <course>311.71</course>
  <speed>0.5622277118748239</speed>
  <fix>3d</fix>
</trkpt>
<trkpt lat="40.0713632" lon="-105.2297948">
  <ele>1583.0</ele>
  <time>2026-08-28T17:52:09Z</time>
  <course>134.24</course>
  <speed>0.55</speed>
  <fix>3d</fix>
</trkpt>
<trkpt lat="40.0713625" lon="-105.2297936">
  <ele>1583.01</ele>
  <time>2026-08-28T17:52:09Z</time>
  <course>307.57</course>
  <speed>0.560357029044876</speed>
  <fix>3d</fix>
</trkpt>
<trkpt lat="40.0713632" lon="-105.2297948">
  <ele>1583.0</ele>
  <time>2026-08-28T17:52:09Z</time>
  <course>134.24</course>
  <speed>0.55</speed>
  <fix>3d</fix>
</trkpt>
<trkpt lat="40.0713622" lon="-105.2297931">
  <ele>1583.01</ele>
  <time>2026-08-28T17:52:09Z</time>
  <course>303.42</course>
  <speed>0.5556977595779922</speed>
  <fix>3d</fix>
</trkpt>
<trkpt lat="40.0713626" lon="-105.2297938">
  <ele>1583.0</ele>
  <time>2026-08-28T17:52:09Z</time>
  <course>125.95</course>
  <speed>0.55</speed>
  <fix>3d</fix>
</trkpt>
<trkpt lat="40.071362" lon="-105.2297925">
  <ele>1583.01</ele>
  <time>2026-08-28T17:52:09Z</time>
  <course>299.28</course>
  <speed>0.5546169849544819</speed>
  <fix>3d</fix>
</trkpt>
<trkpt lat="40.0713626" lon="-105.2297938">
  <ele>1583.0</ele>
  <time>2026-08-28T17:52:09Z</time>
  <course>125.95</course>
  <speed>0.55</speed>
  <fix>3d</fix>
</trkpt>
<trkpt lat="40.0713618" lon="-105.2297919">
  <ele>1583.01</ele>
  <time>2026-08-28T17:52:09Z</time>
  <course>295.14</course>
  <speed>0.5608029957123981</speed>
  <fix>3d</fix>
</trkpt>
<trkpt lat="40.0713621" lon="-105.2297927">
  <ele>1583.0</ele>
  <time>2026-08-28T17:52:09Z</time>
  <course>117.67</course>
  <speed>0.55</speed>
  <fix>3d</fix>
</trkpt>
<trkpt lat="40.0713616" lon="-105.2297913">
  <ele>1583.01</ele>
  <time>2026-08-28T17:52:09Z</time>
  <course>291.0</course>
  <speed>0.5661271941887265</speed>
  <fix>3d</fix>
</trkpt>
<trkpt lat="40.0713621" lon="-105.2297927">
  <ele>1583.0</ele>
  <time>2026-08-28T17:52:09Z</time>
  <course>117.67</course>
  <speed>0.55</speed>
  <fix>3d</fix>
</trkpt>
<trkpt lat="40.0713615" lon="-105.2297906">
  <ele>1583.01</ele>
  <time>2026-08-28T17:52:09Z</time>
  <course>286.86</course>
  <speed>0.5651548460377916</speed>
  <fix>3d</fix>
</trkpt>
<trkpt lat="40.0713617" lon="-105.2297915">
  <ele>1583.0</ele>
  <time>2026-08-28T17:52:09Z</time>
  <course>109.38</course>
  <speed>0.55</speed>
  <fix>3d</fix>
</trkpt>
<trkpt lat="40.0713614" lon="-105.22979">
  <ele>1583.01</ele>
  <time>2026-08-28T17:52:09Z</time>
  <course>282.72</course>
  <speed>0.5671860364994893</speed>
  <fix>3d</fix>
</trkpt>
<trkpt lat="40.0713617" lon="-105.2297915">
  <ele>1583.0</ele>
  <time>2026-08-28T17:52:09Z</time>
  <course>109.38</course>
  <speed>0.55</speed>
  <fix>3d</fix>
</trkpt>
<trkpt lat="40.0713614" lon="-105.2297893">
  <ele>1583.01</ele>
  <time>2026-08-28T17:52:09Z</time>
  <course>278.57</course>
  <speed>0.5622277118748239</speed>
  <fix>3d</fix>
</trkpt>
<trkpt lat="40.0713617" lon="-105.2297915">
  <ele>1583.0</ele>
  <time>2026-08-28T17:52:09Z</time>
  <course>109.38</course>
  <speed>0.55</speed>
  <fix>3d</fix>
</trkpt>
<trkpt lat="40.0713613" lon="-105.2297887">
  <ele>1583.02</ele>
  <time>2026-08-28T17:52:09Z</time>
  <course>274.43</course>
  <speed>0.56</speed>
  <fix>3d</fix>
</trkpt>
<trkpt lat="40.0713614" lon="-105.2297902">
  <ele>1583.0</ele>
  <time>2026-08-28T17:52:09Z</time>
  <course>101.08</course>
  <speed>0.55</speed>
  <fix>3d</fix>
</trkpt>
<trkpt lat="40.0713613" lon="-105.229788">
  <ele>1583.02</ele>
  <time>2026-08-28T17:52:09Z</time>
  <course>270.29</course>
  <speed>0.5608029957123981</speed>
  <fix>3d</fix>
</trkpt>
<trkpt lat="40.0713614" lon="-105.2297902">
  <ele>1583.0</ele>
  <time>2026-08-28T17:52:09Z</time>
  <course>101.08</course>
  <speed>0.55</speed>
  <fix>3d</fix>
</trkpt>
<trkpt lat="40.0713614" lon="-105.2297874">
  <ele>1583.02</ele>
  <time>2026-08-28T17:52:09Z</time>
  <course>266.15</course>
  <speed>0.5643580423808985</speed>
  <fix>3d</fix>
</trkpt>
<trkpt lat="40.0713613" lon="-105.2297889">
  <ele>1583.0</ele>
  <time>2026-08-28T17:52:09Z</time>
  <course>92.78</course>
  <speed>0.55</speed>
  <fix>3d</fix>
</trkpt>
<trkpt lat="40.0713615" lon="-105.2297867">
  <ele>1583.02</ele>
  <time>2026-08-28T17:52:09Z</time>
  <course>262.01</course>
  <speed>0.5608921464952064</speed>
  <fix>3d</fix>
</trkpt>
<trkpt lat="40.0713613" lon="-105.2297889">
  <ele>1583.0</ele>
  <time>2026-08-28T17:52:09Z</time>
  <course>92.78</course>
  <speed>0.55</speed>
  <fix>3d</fix>
</trkpt>
<trkpt lat="40.0713615" lon="-105.2297861">
  <ele>1583.02</ele>
  <time>2026-08-28T17:52:09Z</time>
  <course>257.87</course>
  <speed>0.5604462507680822</speed>
  <fix>3d</fix>
</trkpt>
<trkpt lat="40.0713613" lon="-105.2297876">
  <ele>1583.0</ele>
  <time>2026-08-28T17:52:09Z</time>
  <course>84.49</course>
  <speed>0.55</speed>
  <fix>3d</fix>
</trkpt>
<trkpt lat="40.0713616" lon="-105.2297855">
  <ele>1583.02</ele>
  <time>2026-08-28T17:52:09Z</time>
  <course>253.69</course>
  <speed>0.5630275304103699</speed>
  <fix>3d</fix>
</trkpt>
<trkpt lat="40.0713614" lon="-105.2297864">
  <ele>1583.0</ele>
  <time>2026-08-28T17:52:09Z</time>
  <course>76.21</course>
  <speed>0.55</speed>
  <fix>3d</fix>
</trkpt>
<trkpt lat="40.0713618" lon="-105.2297849">
  <ele>1583.02</ele>
  <time>2026-08-28T17:52:09Z</time>
  <course>249.55</course>
  <speed>0.56859475903318</speed>
  <fix>3d</fix>
</trkpt>
<trkpt lat="40.0713614" lon="-105.2297864">
  <ele>1583.0</ele>
  <time>2026-08-28T17:52:09Z</time>
  <course>76.21</course>
  <speed>0.55</speed>
  <fix>3d</fix>
</trkpt>
<trkpt lat="40.071362" lon="-105.2297843">
  <ele>1583.02</ele>
  <time>2026-08-28T17:52:09Z</time>
  <course>245.41</course>
  <speed>0.5635601121442149</speed>
  <fix>3d</fix>
</trkpt>
<trkpt lat="40.0713617" lon="-105.2297851">
  <ele>1583.0</ele>
  <time>2026-08-28T17:52:09Z</time>
  <course>67.92</course>
  <speed>0.55</speed>
  <fix>3d</fix>
</trkpt>
<trkpt lat="40.0713623" lon="-105.2297837">
  <ele>1583.02</ele>
  <time>2026-08-28T17:52:09Z</time>
  <course>241.3</course>
  <speed>0.5660388679233962</speed>
  <fix>3d</fix>
</trkpt>
<trkpt lat="40.0713617" lon="-105.2297851">
  <ele>1583.0</ele>
  <time>2026-08-28T17:52:09Z</time>
  <course>67.92</course>
  <speed>0.55</speed>
  <fix>3d</fix>
</trkpt>
<trkpt lat="40.0713626" lon="-105.2297832">
  <ele>1583.03</ele>
  <time>2026-08-28T17:52:09Z</time>
  <course>237.16</course>
  <speed>0.5580322571321482</speed>
  <fix>3d</fix>
</trkpt>
<trkpt lat="40.0713621" lon="-105.2297839">
  <ele>1583.0</ele>
  <time>2026-08-28T17:52:09Z</time>
  <course>59.64</course>
  <speed>0.55</speed>
  <fix>3d</fix>
</trkpt>
<trkpt lat="40.0713629" lon="-105.2297827">
  <ele>1583.02</ele>
  <time>2026-08-28T17:52:09Z</time>
  <course>233.02</course>
  <speed>0.5672741841473133</speed>
  <fix>3d</fix>
</trkpt>
<trkpt lat="40.0713621" lon="-105.2297839">
  <ele>1583.0</ele>
  <time>2026-08-28T17:52:09Z</time>
  <course>59.64</course>
  <speed>0.55</speed>
  <fix>3d</fix>
</trkpt>
<trkpt lat="40.0713632" lon="-105.2297822">
  <ele>1583.03</ele>
  <time>2026-08-28T17:52:09Z</time>
  <course>228.87</course>
  <speed>0.565685424949238</speed>
  <fix>3d</fix>
</trkpt>
<trkpt lat="40.0713626" lon="-105.2297829">
  <ele>1583.0</ele>
  <time>2026-08-28T17:52:09Z</time>
  <course>51.35</course>
  <speed>0.55</speed>
  <fix>3d</fix>
</trkpt>
<trkpt lat="40.0713636" lon="-105.2297817">
  <ele>1583.03</ele>
  <time>2026-08-28T17:52:09Z</time>
  <course>224.7</course>
  <speed>0.5672741841473133</speed>
  <fix>3d</fix>
</trkpt>
<trkpt lat="40.0713626" lon="-105.2297829">
  <ele>1583.0</ele>
  <time>2026-08-28T17:52:09Z</time>
  <course>51.35</course>
  <speed>0.55</speed>
  <fix>3d</fix>
</trkpt>
<trkpt lat="40.071364" lon="-105.2297813">
  <ele>1583.03</ele>
  <time>2026-08-28T17:52:09Z</time>
  <course>220.56</course>
  <speed>0.564003546088143</speed>
  <fix>3d</fix>
</trkpt>
<trkpt lat="40.0713633" lon="-105.2297819">
  <ele>1583.0</ele>
  <time>2026-08-28T17:52:09Z</time>
  <course>43.07</course>
  <speed>0.55</speed>
  <fix>3d</fix>
</trkpt>
<trkpt lat="40.0713644" lon="-105.2297809">
  <ele>1583.03</ele>
  <time>2026-08-28T17:52:09Z</time>
  <course>216.42</course>
  <speed>0.5714017850864661</speed>
  <fix>3d</fix>
</trkpt>
<trkpt lat="40.0713633" lon="-105.2297819">
  <ele>1583.0</ele>
  <time>2026-08-28T17:52:09Z</time>
  <course>43.07</course>
  <speed>0.55</speed>
  <fix>3d</fix>
</trkpt>
<trkpt lat="40.0713648" lon="-105.2297806">
  <ele>1583.03</ele>
  <time>2026-08-28T17:52:09Z</time>
  <course>212.27</course>
  <speed>0.5682429058070149</speed>
  <fix>3d</fix>
</trkpt>
<trkpt lat="40.0713642" lon="-105.2297811">
  <ele>1583.0</ele>
  <time>2026-08-28T17:52:09Z</time>
  <course>34.79</course>
  <speed>0.55</speed>
  <fix>3d</fix>
</trkpt>
<trkpt lat="40.0713652" lon="-105.2297803">
  <ele>1583.03</ele>
  <time>2026-08-28T17:52:09Z</time>
  <course>208.13</course>
  <speed>0.56859475903318</speed>
  <fix>3d</fix>
</trkpt>
<trkpt lat="40.0713642" lon="-105.2297811">
  <ele>1583.0</ele>
  <time>2026-08-28T17:52:09Z</time>
  <course>34.79</course>
  <speed>0.55</speed>
  <fix>3d</fix>
</trkpt>
<trkpt lat="40.0713657" lon="-105.2297801">
  <ele>1583.03</ele>
  <time>2026-08-28T17:52:09Z</time>
  <course>203.99</course>
  <speed>0.5664803615307419</speed>
  <fix>3d</fix>
</trkpt>
<trkpt lat="40.071365" lon="-105.2297804">
  <ele>1583.0</ele>
  <time>2026-08-28T17:52:09Z</time>
  <course>26.5</course>
  <speed>0.55</speed>
  <fix>3d</fix>
</trkpt>
<trkpt lat="40.0713662" lon="-105.2297799">
  <ele>1583.03</ele>
  <time>2026-08-28T17:52:09Z</time>
  <course>199.85</course>
  <speed>0.5728001396647874</speed>
  <fix>3d</fix>
</trkpt>
<trkpt lat="40.071365" lon="-105.2297804">
  <ele>1583.0</ele>
  <time>2026-08-28T17:52:09Z</time>
  <course>26.5</course>
  <speed>0.55</speed>
  <fix>3d</fix>
</trkpt>
<trkpt lat="40.0713667" lon="-105.2297797">
  <ele>1583.03</ele>
  <time>2026-08-28T17:52:09Z</time>
  <course>195.7</course>
  <speed>0.5727128425310541</speed>
  <fix>3d</fix>
</trkpt>
<trkpt lat="40.071365" lon="-105.2297804">
  <ele>1583.0</ele>
  <time>2026-08-28T17:52:09Z</time>
  <course>26.5</course>
  <speed>0.55</speed>
  <fix>3d</fix>
</trkpt>
<trkpt lat="40.0713672" lon="-105.2297796">
  <ele>1583.03</ele>
  <time>2026-08-28T17:52:09Z</time>
  <course>191.56</course>
  <speed>0.565685424949238</speed>
  <fix>3d</fix>
</trkpt>
<trkpt lat="40.071366" lon="-105.2297799">
  <ele>1583.0</ele>
  <time>2026-08-28T17:52:09Z</time>
  <course>18.2</course>
  <speed>0.55</speed>
  <fix>3d</fix>
</trkpt>
<trkpt lat="40.0713677" lon="-105.2297795">
  <ele>1583.04</ele>
  <time>2026-08-28T17:52:09Z</time>
  <course>187.42</course>
  <speed>0.5707889277132134</speed>
  <fix>3d</fix>
</trkpt>
<trkpt lat="40.071366" lon="-105.2297799">
  <ele>1583.0</ele>
  <time>2026-08-28T17:52:09Z</time>
  <course>18.2</course>
  <speed>0.55</speed>
  <fix>3d</fix>
</trkpt>
<trkpt lat="40.0713682" lon="-105.2297795">
  <ele>1583.04</ele>
  <time>2026-08-28T17:52:09Z</time>
  <course>183.28</course>
  <speed>0.57</speed>
  <fix>3d</fix>
</trkpt>
<trkpt lat="40.0713669" lon="-105.2297796">
  <ele>1583.0</ele>
  <time>2026-08-28T17:52:09Z</time>
  <course>9.9</course>
  <speed>0.55</speed>
  <fix>3d</fix>
</trkpt>
<trkpt lat="40.0713687" lon="-105.2297795">
  <ele>1583.04</ele>
  <time>2026-08-28T17:52:09Z</time>
  <course>179.13</course>
  <speed>0.5714017850864661</speed>
  <fix>3d</fix>
</trkpt>
<trkpt lat="40.0713669" lon="-105.2297796">
  <ele>1583.0</ele>
  <time>2026-08-28T17:52:09Z</time>
  <course>9.9</course>
  <speed>0.55</speed>
  <fix>3d</fix>
</trkpt>
<trkpt lat="40.0713692" lon="-105.2297796">
  <ele>1583.04</ele>
  <time>2026-08-28T17:52:09Z</time>
  <course>174.98</course>
  <speed>0.5755866572463264</speed>
  <fix>3d</fix>
</trkpt>
<trkpt lat="40.071368" lon="-105.2297794">
  <ele>1583.0</ele>
  <time>2026-08-28T17:52:09Z</time>
  <course>1.61</course>
  <speed>0.55</speed>
  <fix>3d</fix>
</trkpt>
<trkpt lat="40.0713697" lon="-105.2297797">
  <ele>1583.04</ele>
  <time>2026-08-28T17:52:09Z</time>
  <course>170.81</course>
  <speed>0.5727128425310541</speed>
  <fix>3d</fix>
</trkpt>
<trkpt lat="40.071369" lon="-105.2297794">
  <ele>1583.0</ele>
  <time>2026-08-28T17:52:09Z</time>
  <course>353.33</course>
  <speed>0.55</speed>
  <fix>3d</fix>
</trkpt>
<trkpt lat="40.0713701" lon="-105.2297799">
  <ele>1583.05</ele>
  <time>2026-08-28T17:52:09Z</time>
  <course>166.67</course>
  <speed>0.5728001396647874</speed>
  <fix>3d</fix>
</trkpt>
<trkpt lat="40.071369" lon="-105.2297794">
  <ele>1583.0</ele>
  <time>2026-08-28T17:52:09Z</time>
  <course>353.33</course>
  <speed>0.55</speed>
  <fix>3d</fix>
</trkpt>
<trkpt lat="40.0713706" lon="-105.22978">
  <ele>1583.05</ele>
  <time>2026-08-28T17:52:09Z</time>
  <course>162.52</course>
  <speed>0.5758472019555188</speed>
  <fix>3d</fix>
</trkpt>
<trkpt lat="40.0713699" lon="-105.2297797">
  <ele>1583.0</ele>
  <time>2026-08-28T17:52:09Z</time>
  <course>345.04</course>
  <speed>0.55</speed>
  <fix>3d</fix>
</trkpt>
<trkpt lat="40.0713711" lon="-105.2297802">
  <ele>1583.05</ele>
  <time>2026-08-28T17:52:09Z</time>
  <course>158.41</course>
  <speed>0.5727128425310541</speed>
  <fix>3d</fix>
</trkpt>
<trkpt lat="40.0713699" lon="-105.2297797">
  <ele>1583.0</ele>
  <time>2026-08-28T17:52:09Z</time>
  <course>345.04</course>
  <speed>0.55</speed>
  <fix>3d</fix>
</trkpt>
<trkpt lat="40.0713715" lon="-105.2297806">
  <ele>1583.05</ele>
  <time>2026-08-28T17:52:09Z</time>
  <course>154.27</course>
  <speed>0.5730619512757761</speed>
  <fix>3d</fix>
</trkpt>
<trkpt lat="40.0713709" lon="-105.2297801">
  <ele>1583.0</ele>
  <time>2026-08-28T17:52:09Z</time>
  <course>336.76</course>
  <speed>0.55</speed>
  <fix>3d</fix>
</trkpt>
<trkpt lat="40.071372" lon="-105.2297809">
  <ele>1583.05</ele>
  <time>2026-08-28T17:52:09Z</time>
  <course>150.13</course>
  <speed>0.5714017850864661</speed>
  <fix>3d</fix>
</trkpt>
<trkpt lat="40.0713709" lon="-105.2297801">
  <ele>1583.0</ele>
  <time>2026-08-28T17:52:09Z</time>
  <course>336.76</course>
  <speed>0.55</speed>
  <fix>3d</fix>
</trkpt>
<trkpt lat="40.0713724" lon="-105.2297813">
  <ele>1583.06</ele>
  <time>2026-08-28T17:52:09Z</time>
  <course>145.99</course>
  <speed>0.578013840664737</speed>
  <fix>3d</fix>
</trkpt>
<trkpt lat="40.0713717" lon="-105.2297807">
  <ele>1583.0</ele>
  <time>2026-08-28T17:52:09Z</time>
  <course>328.47</course>
  <speed>0.55</speed>
  <fix>3d</fix>
</trkpt>
<trkpt lat="40.0713728" lon="-105.2297817">
  <ele>1583.06</ele>
  <time>2026-08-28T17:52:09Z</time>
  <course>141.84</course>
  <speed>0.5738466694161429</speed>
  <fix>3d</fix>
</trkpt>
<trkpt lat="40.0713717" lon="-105.2297807">
  <ele>1583.0</ele>
  <time>2026-08-28T17:52:09Z</time>
  <course>328.47</course>
  <speed>0.55</speed>
  <fix>3d</fix>
</trkpt>
<trkpt lat="40.0713731" lon="-105.2297822">
  <ele>1583.06</ele>
  <time>2026-08-28T17:52:09Z</time>
  <course>137.67</course>
  <speed>0.5728001396647874</speed>
  <fix>3d</fix>
</trkpt>
<trkpt lat="40.0713726" lon="-105.2297815">
  <ele>1583.0</ele>
  <time>2026-08-28T17:52:09Z</time>
  <course>320.19</course>
  <speed>0.55</speed>
  <fix>3d</fix>
</trkpt>
<trkpt lat="40.0713735" lon="-105.2297826">
  <ele>1583.06</ele>
  <time>2026-08-28T17:52:09Z</time>
  <course>133.52</course>
  <speed>0.5748912940721924</speed>
  <fix>3d</fix>
</trkpt>
<trkpt lat="40.0713726" lon="-105.2297815">
  <ele>1583.0</ele>
  <time>2026-08-28T17:52:09Z</time>
  <course>320.19</course>
  <speed>0.55</speed>
  <fix>3d</fix>
</trkpt>
<trkpt lat="40.0713738" lon="-105.2297832">
  <ele>1583.06</ele>
  <time>2026-08-28T17:52:09Z</time>
  <course>129.38</course>
  <speed>0.5720139858430037</speed>
  <fix>3d</fix>
</trkpt>
<trkpt lat="40.0713733" lon="-105.2297823">
  <ele>1583.0</ele>
  <time>2026-08-28T17:52:09Z</time>
  <course>311.9</course>
  <speed>0.55</speed>
  <fix>3d</fix>
</trkpt>
<trkpt lat="40.0713741" lon="-105.2297837">
  <ele>1583.06</ele>
  <time>2026-08-28T17:52:09Z</time>
  <course>125.23</course>
  <speed>0.5798275605729689</speed>
  <fix>3d</fix>
</trkpt>
<trkpt lat="40.0713733" lon="-105.2297823">
  <ele>1583.0</ele>
  <time>2026-08-28T17:52:09Z</time>
  <course>311.9</course>
  <speed>0.55</speed>
  <fix>3d</fix>
</trkpt>
<trkpt lat="40.0713743" lon="-105.2297843">
  <ele>1583.06</ele>
  <time>2026-08-28T17:52:09Z</time>
  <course>126.03</course>
  <speed>0.5714017850864661</speed>
  <fix>3d</fix>
</trkpt>
<trkpt lat="40.0713739" lon="-105.2297834">
  <ele>1583.0</ele>
  <time>2026-08-28T17:52:09Z</time>
  <course>306.1</course>
  <speed>0.55</speed>
  <fix>3d</fix>
</trkpt>
<trkpt lat="40.0713746" lon="-105.2297848">
  <ele>1583.06</ele>
  <time>2026-08-28T17:52:09Z</time>
  <course>130.17</course>
  <speed>0.564003546088143</speed>
  <fix>3d</fix>
</trkpt>
<trkpt lat="40.0713739" lon="-105.2297834">
  <ele>1583.0</ele>
  <time>2026-08-28T17:52:09Z</time>
  <course>306.1</course>
  <speed>0.55</speed>
  <fix>3d</fix>
</trkpt>
<trkpt lat="40.0713749" lon="-105.2297853">
  <ele>1583.06</ele>
  <time>2026-08-28T17:52:09Z</time>
  <course>134.31</course>
  <speed>0.5531726674375732</speed>
  <fix>3d</fix>
</trkpt>
<trkpt lat="40.0713739" lon="-105.2297834">
  <ele>1583.0</ele>
  <time>2026-08-28T17:52:09Z</time>
  <course>306.1</course>
  <speed>0.55</speed>
  <fix>3d</fix>
</trkpt>
<trkpt lat="40.0713752" lon="-105.2297857">
  <ele>1583.06</ele>
  <time>2026-08-28T17:52:09Z</time>
  <course>136.83</course>
  <speed>0.43185645763378366</speed>
  <fix>3d</fix>
</trkpt>
<trkpt lat="40.0713745" lon="-105.2297844">
  <ele>1583.0</ele>
  <time>2026-08-28T17:52:09Z</time>
  <course>308.54</course>
  <speed>0.55</speed>
  <fix>3d</fix>
</trkpt>
<trkpt lat="40.0713754" lon="-105.229786">
  <ele>1583.05</ele>
  <time>2026-08-28T17:52:09Z</time>
  <course>132.68</course>
  <speed>0.23021728866442676</speed>
  <fix>3d</fix>
</trkpt>
<trkpt lat="40.0713745" lon="-105.2297844">
  <ele>1583.0</ele>
  <time>2026-08-28T17:52:09Z</time>
  <course>308.54</course>
  <speed>0.55</speed>
  <fix>3d</fix>
</trkpt>
<trkpt lat="40.0713755" lon="-105.2297861">
  <ele>1583.05</ele>
  <time>2026-08-28T17:52:09Z</time>
  <course>128.53</course>
  <speed>0.022360679774997897</speed>
  <fix>3d</fix>
</trkpt>
<trkpt lat="40.0713751" lon="-105.2297853">
  <ele>1583.0</ele>
  <time>2026-08-28T17:52:09Z</time>
  <course>312.26</course>
  <speed>0.38</speed>
  <fix>3d</fix>
</trkpt>
<trkpt lat="40.0713754" lon="-105.229786">
  <ele>1583.05</ele>
  <time>2026-08-28T17:52:09Z</time>
  <course>124.38</course>
  <speed>0.15556349186104046</speed>
  <fix>3d</fix>
</trkpt>
<trkpt lat="40.0713751" lon="-105.2297853">
  <ele>1583.0</ele>
  <time>2026-08-28T17:52:09Z</time>
  <course>312.26</course>
  <speed>0.38</speed>
  <fix>3d</fix>
</trkpt>
<trkpt lat="40.0713752" lon="-105.2297857">
  <ele>1583.05</ele>
  <time>2026-08-28T17:52:09Z</time>
  <course>120.23</course>
  <speed>0.2720294101747089</speed>
  <fix>3d</fix>
</trkpt>
<trkpt lat="40.0713754" lon="-105.2297856">
  <ele>1583.0</ele>
  <time>2026-08-28T17:52:09Z</time>
  <course>333.5</course>
  <speed>0.03</speed>
  <fix>3d</fix>
</trkpt>
<trkpt lat="40.0713751" lon="-105.2297854">
  <ele>1583.05</ele>
  <time>2026-08-28T17:52:09Z</time>
  <course>116.08</course>
  <speed>0.3535533905932738</speed>
  <fix>3d</fix>
</trkpt>
<trkpt lat="40.0713754" lon="-105.2297856">
  <ele>1583.0</ele>
  <time>2026-08-28T17:52:09Z</time>
  <course>333.5</course>
  <speed>0.03</speed>
  <fix>3d</fix>
</trkpt>
<trkpt lat="40.0713749" lon="-105.2297849">
  <ele>1583.05</ele>
  <time>2026-08-28T17:52:09Z</time>
  <course>111.9</course>
  <speed>0.40718546143004664</speed>
  <fix>3d</fix>
</trkpt>
<trkpt lat="40.0713753" lon="-105.2297854">
  <ele>1583.0</ele>
  <time>2026-08-28T17:52:09Z</time>
  <course>117.08</course>
  <speed>0.26</speed>
  <fix>3d</fix>
</trkpt>
<trkpt lat="40.0713748" lon="-105.2297845">
  <ele>1583.05</ele>
  <time>2026-08-28T17:52:09Z</time>
  <course>107.75</course>
  <speed>0.455411901469428</speed>
  <fix>3d</fix>
</trkpt>
<trkpt lat="40.0713751" lon="-105.2297847">
  <ele>1583.0</ele>
  <time>2026-08-28T17:52:09Z</time>
  <course>109.84</course>
  <speed>0.41</speed>
  <fix>3d</fix>
</trkpt>
<trkpt lat="40.0713746" lon="-105.2297839">
  <ele>1583.05</ele>
  <time>2026-08-28T17:52:09Z</time>
  <course>103.6</course>
  <speed>0.4780167361086848</speed>
  <fix>3d</fix>
</trkpt>
<trkpt lat="40.0713751" lon="-105.2297847">
  <ele>1583.0</ele>
  <time>2026-08-28T17:52:09Z</time>
  <course>109.84</course>
  <speed>0.41</speed>
  <fix>3d</fix>
</trkpt>
<trkpt lat="40.0713746" lon="-105.2297833">
  <ele>1583.05</ele>
  <time>2026-08-28T17:52:09Z</time>
  <course>99.48</course>
  <speed>0.498196748283246</speed>
  <fix>3d</fix>
</trkpt>
<trkpt lat="40.0713748" lon="-105.2297837">
  <ele>1583.0</ele>
  <time>2026-08-28T17:52:09Z</time>
  <course>101.84</course>
  <speed>0.48</speed>
  <fix>3d</fix>
</trkpt>
<trkpt lat="40.0713746" lon="-105.2297826">
  <ele>1583.05</ele>
  <time>2026-08-28T17:52:09Z</time>
  <course>95.33</course>
  <speed>0.5135172830587107</speed>
  <fix>3d</fix>
</trkpt>
<trkpt lat="40.0713748" lon="-105.2297837">
  <ele>1583.0</ele>
  <time>2026-08-28T17:52:09Z</time>
  <course>101.84</course>
  <speed>0.48</speed>
  <fix>3d</fix>
</trkpt>
<trkpt lat="40.0713746" lon="-105.229782">
  <ele>1583.05</ele>
  <time>2026-08-28T17:52:09Z</time>
  <course>91.19</course>
  <speed>0.5303772242470448</speed>
  <fix>3d</fix>
</trkpt>
<trkpt lat="40.0713747" lon="-105.2297825">
  <ele>1583.0</ele>
  <time>2026-08-28T17:52:09Z</time>
  <course>93.66</course>
  <speed>0.52</speed>
  <fix>3d</fix>
</trkpt>
<trkpt lat="40.0713746" lon="-105.2297813">
  <ele>1583.05</ele>
  <time>2026-08-28T17:52:09Z</time>
  <course>87.04</course>
  <speed>0.540092584655631</speed>
  <fix>3d</fix>
</trkpt>
<trkpt lat="40.0713747" lon="-105.2297825">
  <ele>1583.0</ele>
  <time>2026-08-28T17:52:09Z</time>
  <course>93.66</course>
  <speed>0.52</speed>
  <fix>3d</fix>
</trkpt>
<trkpt lat="40.0713746" lon="-105.2297806">
  <ele>1583.05</ele>
  <time>2026-08-28T17:52:09Z</time>
  <course>82.85</course>
  <speed>0.5433231082882449</speed>
  <fix>3d</fix>
</trkpt>
<trkpt lat="40.0713747" lon="-105.2297812">
  <ele>1583.0</ele>
  <time>2026-08-28T17:52:09Z</time>
  <course>85.43</course>
  <speed>0.54</speed>
  <fix>3d</fix>
</trkpt>
<trkpt lat="40.0713747" lon="-105.22978">
  <ele>1583.04</ele>
  <time>2026-08-28T17:52:09Z</time>
  <course>78.7</course>
  <speed>0.5491812087098392</speed>
  <fix>3d</fix>
</trkpt>
<trkpt lat="40.0713747" lon="-105.2297812">
  <ele>1583.0</ele>
  <time>2026-08-28T17:52:09Z</time>
  <course>85.43</course>
  <speed>0.54</speed>
  <fix>3d</fix>
</trkpt>
<trkpt lat="40.0713748" lon="-105.2297793">
  <ele>1583.04</ele>
  <time>2026-08-28T17:52:09Z</time>
  <course>74.56</course>
  <speed>0.5481788029466298</speed>
  <fix>3d</fix>
</trkpt>
<trkpt lat="40.0713748" lon="-105.22978">
  <ele>1583.0</ele>
  <time>2026-08-28T17:52:09Z</time>
  <course>77.17</course>
  <speed>0.54</speed>
  <fix>3d</fix>
</trkpt>
<trkpt lat="40.071375" lon="-105.2297787">
  <ele>1583.04</ele>
  <time>2026-08-28T17:52:09Z</time>
  <course>70.41</course>
  <speed>0.5502726596879042</speed>
  <fix>3d</fix>
</trkpt>
<trkpt lat="40.0713748" lon="-105.22978">
  <ele>1583.0</ele>
  <time>2026-08-28T17:52:09Z</time>
  <course>77.17</course>
  <speed>0.54</speed>
  <fix>3d</fix>
</trkpt>
<trkpt lat="40.0713752" lon="-105.2297781">
  <ele>1583.04</ele>
  <time>2026-08-28T17:52:09Z</time>
  <course>66.26</course>
  <speed>0.5462600113499065</speed>
  <fix>3d</fix>
</trkpt>
<trkpt lat="40.0713751" lon="-105.2297787">
  <ele>1583.0</ele>
  <time>2026-08-28T17:52:09Z</time>
  <course>68.9</course>
  <speed>0.55</speed>
  <fix>3d</fix>
</trkpt>
<trkpt lat="40.0713754" lon="-105.2297775">
  <ele>1583.03</ele>
  <time>2026-08-28T17:52:09Z</time>
  <course>62.12</course>
  <speed>0.5547071299343466</speed>
  <fix>3d</fix>
</trkpt>
<trkpt lat="40.0713751" lon="-105.2297787">
  <ele>1583.0</ele>
  <time>2026-08-28T17:52:09Z</time>
  <course>68.9</course>
  <speed>0.55</speed>
  <fix>3d</fix>
</trkpt>
<trkpt lat="40.0713757" lon="-105.2297769">
  <ele>1583.03</ele>
  <time>2026-08-28T17:52:09Z</time>
  <course>57.97</course>
  <speed>0.521536192416212</speed>
  <fix>3d</fix>
</trkpt>
<trkpt lat="40.0713755" lon="-105.2297776">
  <ele>1583.0</ele>
  <time>2026-08-28T17:52:09Z</time>
  <course>60.73</course>
  <speed>0.54</speed>
  <fix>3d</fix>
</trkpt>
<trkpt lat="40.0713759" lon="-105.2297764">
  <ele>1583.03</ele>
  <time>2026-08-28T17:52:09Z</time>
  <course>53.83</course>
  <speed>0.3920459156782532</speed>
  <fix>3d</fix>
</trkpt>
<trkpt lat="40.0713755" lon="-105.2297776">
  <ele>1583.0</ele>
  <time>2026-08-28T17:52:09Z</time>
  <course>60.73</course>
  <speed>0.54</speed>
  <fix>3d</fix>
</trkpt>
<trkpt lat="40.0713761" lon="-105.2297761">
  <ele>1583.03</ele>
  <time>2026-08-28T17:52:09Z</time>
  <course>49.68</course>
  <speed>0.2765863337187866</speed>
  <fix>3d</fix>
</trkpt>
<trkpt lat="40.0713755" lon="-105.2297776">
  <ele>1583.0</ele>
  <time>2026-08-28T17:52:09Z</time>
  <course>60.73</course>
  <speed>0.54</speed>
  <fix>3d</fix>
</trkpt>
<trkpt lat="40.0713763" lon="-105.2297759">
  <ele>1583.03</ele>
  <time>2026-08-28T17:52:09Z</time>
  <course>46.35</course>
  <speed>0.191049731745428</speed>
  <fix>3d</fix>
</trkpt>
<trkpt lat="40.071376" lon="-105.2297767">
  <ele>1583.0</ele>
  <time>2026-08-28T17:52:09Z</time>
  <course>53.6</course>
  <speed>0.4</speed>
  <fix>3d</fix>
</trkpt>
<trkpt lat="40.0713764" lon="-105.2297758">
  <ele>1583.02</ele>
  <time>2026-08-28T17:52:09Z</time>
  <course>46.35</course>
  <speed>0.1345362404707371</speed>
  <fix>3d</fix>
</trkpt>
<trkpt lat="40.071376" lon="-105.2297767">
  <ele>1583.0</ele>
  <time>2026-08-28T17:52:09Z</time>
  <course>53.6</course>
  <speed>0.4</speed>
  <fix>3d</fix>
</trkpt>
<trkpt lat="40.0713765" lon="-105.2297757">
  <ele>1583.02</ele>
  <time>2026-08-28T17:52:09Z</time>
  <course>46.35</course>
  <speed>0.09219544457292887</speed>
  <fix>3d</fix>
</trkpt>
<trkpt lat="40.0713763" lon="-105.2297761">
  <ele>1583.0</ele>
  <time>2026-08-28T17:52:09Z</time>
  <course>47.07</course>
  <speed>0.2</speed>
  <fix>3d</fix>
</trkpt>
<trkpt lat="40.0713766" lon="-105.2297757">
  <ele>1583.02</ele>
  <time>2026-08-28T17:52:09Z</time>
  <course>46.35</course>
  <speed>0.06403124237432849</speed>
  <fix>3d</fix>
</trkpt>
<trkpt lat="40.0713763" lon="-105.2297761">
  <ele>1583.0</ele>
  <time>2026-08-28T17:52:09Z</time>
  <course>47.07</course>
  <speed>0.2</speed>
  <fix>3d</fix>
</trkpt>
<trkpt lat="40.0713766" lon="-105.2297757">
  <ele>1583.01</ele>
  <time>2026-08-28T17:52:09Z</time>
  <course>46.35</course>
  <speed>0.044721359549995794</speed>
  <fix>3d</fix>
</trkpt>
<trkpt lat="40.0713765" lon="-105.2297758">
  <ele>1583.0</ele>
  <time>2026-08-28T17:52:09Z</time>
  <course>44.88</course>
  <speed>0.1</speed>
  <fix>3d</fix>
</trkpt>
<trkpt lat="40.0713766" lon="-105.2297756">
  <ele>1583.01</ele>
  <time>2026-08-28T17:52:09Z</time>
  <course>46.35</course>
  <speed>0.0316227766016838</speed>
  <fix>3d</fix>
</trkpt>
<trkpt lat="40.0713766" lon="-105.2297757">
  <ele>1583.0</ele>
  <time>2026-08-28T17:52:09Z</time>
  <course>44.88</course>
  <speed>0.05</speed>
  <fix>3d</fix>
</trkpt>
<trkpt lat="40.0713767" lon="-105.2297756">
  <ele>1583.01</ele>
  <time>2026-08-28T17:52:09Z</time>
  <course>46.34</course>
  <speed>0.02</speed>
  <fix>3d</fix>
</trkpt>
<trkpt lat="40.0713766" lon="-105.2297757">
  <ele>1583.0</ele>
  <time>2026-08-28T17:52:09Z</time>
  <course>44.88</course>
  <speed>0.05</speed>
  <fix>3d</fix>
</trkpt>
<trkpt lat="40.0713767" lon="-105.2297756">
  <ele>1583.01</ele>
  <time>2026-08-28T17:52:09Z</time>
  <course>46.34</course>
  <speed>0.02</speed>
  <fix>3d</fix>
</trkpt>
<trkpt lat="40.0713766" lon="-105.2297756">
  <ele>1583.0</ele>
  <time>2026-08-28T17:52:09Z</time>
  <course>44.88</course>
  <speed>0.02</speed>
  <fix>3d</fix>
</trkpt>
<trkpt lat="40.0713767" lon="-105.2297756">
  <ele>1583.01</ele>
  <time>2026-08-28T17:52:09Z</time>
  <course>46.34</course>
  <speed>0.01</speed>
  <fix>3d</fix>
</trkpt>
<trkpt lat="40.0713766" lon="-105.2297756">
  <ele>1583.0</ele>
  <time>2026-08-28T17:52:09Z</time>
  <course>44.88</course>
  <speed>0.02</speed>
  <fix>3d</fix>
</trkpt>
<trkpt lat="40.0713767" lon="-105.2297756">
  <ele>1583.01</ele>
  <time>2026-08-28T17:52:09Z</time>
  <course>46.33</course>
  <speed>0.01</speed>
  <fix>3d</fix>
</trkpt>
<trkpt lat="40.0713766" lon="-105.2297756">
  <ele>1583.0</ele>
  <time>2026-08-28T17:52:09Z</time>
  <course>44.89</course>
  <speed>0.01</speed>
  <fix>3d</fix>
</trkpt>
<trkpt lat="40.0713767" lon="-105.2297756">
  <ele>1583.01</ele>
  <time>2026-08-28T17:52:09Z</time>
  <course>46.33</course>
  <speed>0.01</speed>
  <fix>3d</fix>
</trkpt>
<trkpt lat="40.0713766" lon="-105.2297756">
  <ele>1583.0</ele>
  <time>2026-08-28T17:52:09Z</time>
  <course>44.89</course>
  <speed>0.01</speed>
  <fix>3d</fix>
</trkpt>
<trkpt lat="40.0713767" lon="-105.2297757">
  <ele>1583.01</ele>
  <time>2026-08-28T17:52:09Z</time>
  <course>46.32</course>
  <speed>0.0</speed>
  <fix>3d</fix>
</trkpt>
<trkpt lat="40.0713766" lon="-105.2297756">
  <ele>1583.0</ele>
  <time>2026-08-28T17:52:09Z</time>
  <course>44.9</course>
  <speed>0.0</speed>
  <fix>3d</fix>
</trkpt>
<trkpt lat="40.0713767" lon="-105.2297757">
  <ele>1583.02</ele>
  <time>2026-08-28T17:52:09Z</time>
  <course>46.32</course>
  <speed>0.0</speed>
  <fix>3d</fix>
</trkpt>
<trkpt lat="40.0713766" lon="-105.2297756">
  <ele>1583.0</ele>
  <time>2026-08-28T17:52:09Z</time>
  <course>44.9</course>
  <speed>0.0</speed>
  <fix>3d</fix>
</trkpt>
<trkpt lat="40.0713767" lon="-105.2297757">
  <ele>1583.02</ele>
  <time>2026-08-28T17:52:09Z</time>
  <course>46.31</course>
  <speed>0.01</speed>
  <fix>3d</fix>
</trkpt>
<trkpt lat="40.0713766" lon="-105.2297756">
  <ele>1583.0</ele>
  <time>2026-08-28T17:52:09Z</time>
  <course>44.91</course>
  <speed>0.0</speed>
  <fix>3d</fix>
</trkpt>
<trkpt lat="40.0713767" lon="-105.2297757">
  <ele>1583.03</ele>
  <time>2026-08-28T17:52:09Z</time>
  <course>46.31</course>
  <speed>0.01</speed>
  <fix>3d</fix>
</trkpt>
<trkpt lat="40.0713766" lon="-105.2297756">
  <ele>1583.0</ele>
  <time>2026-08-28T17:52:09Z</time>
  <course>44.91</course>
  <speed>0.0</speed>
  <fix>3d</fix>
</trkpt>
<trkpt lat="40.0713767" lon="-105.2297757">
  <ele>1583.03</ele>
  <time>2026-08-28T17:52:09Z</time>
  <course>46.31</course>
  <speed>0.01</speed>
  <fix>3d</fix>
</trkpt>
<trkpt lat="40.0713766" lon="-105.2297756">
  <ele>1583.0</ele>
  <time>2026-08-28T17:52:09Z</time>
  <course>44.95</course>
  <speed>0.0</speed>
  <fix>3d</fix>
</trkpt>
<trkpt lat="40.0713766" lon="-105.2297757">
  <ele>1583.02</ele>
  <time>2026-08-28T17:52:09Z</time>
  <course>46.3</course>
  <speed>0.01</speed>
  <fix>3d</fix>
</trkpt>
<trkpt lat="40.0713766" lon="-105.2297756">
  <ele>1583.0</ele>
  <time>2026-08-28T17:52:09Z</time>
  <course>44.95</course>
  <speed>0.0</speed>
  <fix>3d</fix>
</trkpt>
<trkpt lat="40.0713766" lon="-105.2297757">
  <ele>1583.02</ele>
  <time>2026-08-28T17:52:09Z</time>
  <course>46.3</course>
  <speed>0.01</speed>
  <fix>3d</fix>
</trkpt>
<trkpt lat="40.0713766" lon="-105.2297756">
  <ele>1583.0</ele>
  <time>2026-08-28T17:52:09Z</time>
  <course>45.02</course>
  <speed>0.0</speed>
  <fix>3d</fix>
</trkpt>
<trkpt lat="40.0713766" lon="-105.2297757">
  <ele>1583.01</ele>
  <time>2026-08-28T17:52:09Z</time>
  <course>46.3</course>
  <speed>0.01</speed>
  <fix>3d</fix>
</trkpt>
<trkpt lat="40.0713766" lon="-105.2297756">
  <ele>1583.0</ele>
  <time>2026-08-28T17:52:09Z</time>
  <course>45.02</course>
  <speed>0.0</speed>
  <fix>3d</fix>
</trkpt>
<trkpt lat="40.0713766" lon="-105.2297757">
  <ele>1583.0</ele>
  <time>2026-08-28T17:52:09Z</time>
  <course>46.29</course>
  <speed>0.01</speed>
  <fix>3d</fix>
</trkpt>
<trkpt lat="40.0713766" lon="-105.2297756">
  <ele>1583.0</ele>
  <time>2026-08-28T17:52:09Z</time>
  <course>45.02</course>
  <speed>0.0</speed>
  <fix>3d</fix>
</trkpt>
<trkpt lat="40.0713766" lon="-105.2297757">
  <ele>1583.0</ele>
  <time>2026-08-28T17:52:09Z</time>
  <course>46.29</course>
  <speed>0.01</speed>
  <fix>3d</fix>
</trkpt>
<trkpt lat="40.0713766" lon="-105.2297756">
  <ele>1583.0</ele>
  <time>2026-08-28T17:52:09Z</time>
  <course>45.16</course>
  <speed>0.0</speed>
  <fix>3d</fix>
</trkpt>
<trkpt lat="40.0713766" lon="-105.2297757">
  <ele>1582.99</ele>
  <time>2026-08-28T17:52:09Z</time>
  <course>46.28</course>
  <speed>0.01</speed>
  <fix>3d</fix>
</trkpt>
<trkpt lat="40.0713766" lon="-105.2297756">
  <ele>1583.0</ele>
  <time>2026-08-28T17:52:09Z</time>
  <course>45.16</course>
  <speed>0.0</speed>
  <fix>3d</fix>
</trkpt>
<trkpt lat="40.0713766" lon="-105.2297757">
  <ele>1582.98</ele>
  <time>2026-08-28T17:52:09Z</time>
  <course>46.28</course>
  <speed>0.01</speed>
  <fix>3d</fix>
</trkpt>
<trkpt lat="40.0713766" lon="-105.2297756">
  <ele>1583.0</ele>
  <time>2026-08-28T17:52:09Z</time>
  <course>45.44</course>
  <speed>0.0</speed>
  <fix>3d</fix>
</trkpt>
<trkpt lat="40.0713766" lon="-105.2297757">
  <ele>1582.97</ele>
  <time>2026-08-28T17:52:09Z</time>
  <course>46.28</course>
  <speed>0.01</speed>
  <fix>3d</fix>
</trkpt>
<trkpt lat="40.0713766" lon="-105.2297756">
  <ele>1583.0</ele>
  <time>2026-08-28T17:52:09Z</time>
  <course>45.44</course>
  <speed>0.0</speed>
  <fix>3d</fix>
</trkpt>
<trkpt lat="40.0713766" lon="-105.2297757">
  <ele>1582.97</ele>
  <time>2026-08-28T17:52:09Z</time>
  <course>46.27</course>
  <speed>0.01</speed>
  <fix>3d</fix>
</trkpt>
<trkpt lat="40.0713766" lon="-105.2297756">
  <ele>1583.0</ele>
  <time>2026-08-28T17:52:09Z</time>
  <course>46.02</course>
  <speed>0.0</speed>
  <fix>3d</fix>
</trkpt>
<trkpt lat="40.0713766" lon="-105.2297757">
  <ele>1582.97</ele>
  <time>2026-08-28T17:52:09Z</time>
  <course>46.27</course>
  <speed>0.01</speed>
  <fix>3d</fix>
</trkpt>
<trkpt lat="40.0713766" lon="-105.2297756">
  <ele>1583.0</ele>
  <time>2026-08-28T17:52:09Z</time>
  <course>46.02</course>
  <speed>0.0</speed>
  <fix>3d</fix>
</trkpt>
<trkpt lat="40.0713766" lon="-105.2297757">
  <ele>1582.97</ele>
  <time>2026-08-28T17:52:09Z</time>
  <course>46.27</course>
  <speed>0.01</speed>
  <fix>3d</fix>
</trkpt>
<trkpt lat="40.0713766" lon="-105.2297756">
  <ele>1583.0</ele>
  <time>2026-08-28T17:52:09Z</time>
  <course>47.17</course>
  <speed>0.0</speed>
  <fix>3d</fix>
</trkpt>
<trkpt lat="40.0713766" lon="-105.2297757">
  <ele>1582.97</ele>
  <time>2026-08-28T17:52:09Z</time>
  <course>46.26</course>
  <speed>0.01414213562373095</speed>
  <fix>3d</fix>
</trkpt>
<trkpt lat="40.0713766" lon="-105.2297756">
  <ele>1583.0</ele>
  <time>2026-08-28T17:52:09Z</time>
  <course>49.49</course>
  <speed>0.0</speed>
  <fix>3d</fix>
</trkpt>
<trkpt lat="40.0713766" lon="-105.2297757">
  <ele>1582.98</ele>
  <time>2026-08-28T17:52:09Z</time>
  <course>46.26</course>
  <speed>0.01414213562373095</speed>
  <fix>3d</fix>
</trkpt>
<trkpt lat="40.0713766" lon="-105.2297756">
  <ele>1583.0</ele>
  <time>2026-08-28T17:52:09Z</time>
  <course>49.49</course>
  <speed>0.0</speed>
  <fix>3d</fix>
</trkpt>
<trkpt lat="39.655741" lon="-104.1383097">
  <ele>1566.58</ele>
  <time>2026-08-28T17:52:10Z</time>
  <course>0.0</course>
  <speed>0.0</speed>
  <fix>3d</fix>
</trkpt>
<trkpt lat="40.0713749" lon="-105.229789">
  <ele>1583.0</ele>
  <time>2026-08-28T17:52:10Z</time>
  <course>0.0</course>
  <speed>0.0</speed>
  <fix>3d</fix>
</trkpt>
<trkpt lat="40.0713749" lon="-105.229789">
  <ele>1583.0</ele>
  <time>2026-08-28T17:52:10Z</time>
  <course>238.36</course>
  <speed>0.0</speed>
  <fix>3d</fix>
</trkpt>
<trkpt lat="40.0713749" lon="-105.229789">
  <ele>1583.0</ele>
  <time>2026-08-28T17:52:10Z</time>
  <course>0.0</course>
  <speed>0.0</speed>
  <fix>3d</fix>
</trkpt>
<trkpt lat="40.0713749" lon="-105.229789">
  <ele>1583.0</ele>
  <time>2026-08-28T17:52:10Z</time>
  <course>238.44</course>
  <speed>0.0</speed>
  <fix>3d</fix>
</trkpt>
<trkpt lat="40.0713749" lon="-105.229789">
  <ele>1583.0</ele>
  <time>2026-08-28T17:52:10Z</time>
  <course>0.0</course>
  <speed>0.0</speed>
  <fix>3d</fix>
</trkpt>
<trkpt lat="40.0713749" lon="-105.229789">
  <ele>1583.0</ele>
  <time>2026-08-28T17:52:10Z</time>
  <course>238.64</course>
  <speed>0.0</speed>
  <fix>3d</fix>
</trkpt>
<trkpt lat="40.0713749" lon="-105.229789">
  <ele>1583.0</ele>
  <time>2026-08-28T17:52:10Z</time>
  <course>0.0</course>
  <speed>0.0</speed>
  <fix>3d</fix>
</trkpt>
<trkpt lat="40.0713749" lon="-105.229789">
  <ele>1583.0</ele>
  <time>2026-08-28T17:52:10Z</time>
  <course>238.93</course>
  <speed>0.0</speed>
  <fix>3d</fix>
</trkpt>
<trkpt lat="40.0713749" lon="-105.229789">
  <ele>1583.0</ele>
  <time>2026-08-28T17:52:10Z</time>
  <course>0.0</course>
  <speed>0.0</speed>
  <fix>3d</fix>
</trkpt>
<trkpt lat="40.0713749" lon="-105.229789">
  <ele>1583.0</ele>
  <time>2026-08-28T17:52:11Z</time>
  <course>239.26</course>
  <speed>0.0</speed>
  <fix>3d</fix>
</trkpt>
<trkpt lat="40.0713749" lon="-105.229789">
  <ele>1583.0</ele>
  <time>2026-08-28T17:52:11Z</time>
  <course>0.0</course>
  <speed>0.0</speed>
  <fix>3d</fix>
</trkpt>
<trkpt lat="40.0713749" lon="-105.229789">
  <ele>1583.0</ele>
  <time>2026-08-28T17:52:11Z</time>
  <course>239.61</course>
  <speed>0.0</speed>
  <fix>3d</fix>
</trkpt>
<trkpt lat="40.0713749" lon="-105.229789">
  <ele>1583.0</ele>
  <time>2026-08-28T17:52:11Z</time>
  <course>0.0</course>
  <speed>0.0</speed>
  <fix>3d</fix>
</trkpt>
<trkpt lat="40.0713749" lon="-105.229789">
  <ele>1583.0</ele>
  <time>2026-08-28T17:52:11Z</time>
  <course>239.96</course>
  <speed>0.0</speed>
  <fix>3d</fix>
</trkpt>
<trkpt lat="40.0713749" lon="-105.229789">
  <ele>1583.0</ele>
  <time>2026-08-28T17:52:11Z</time>
  <course>0.0</course>
  <speed>0.0</speed>
  <fix>3d</fix>
</trkpt>
<trkpt lat="40.0713749" lon="-105.229789">
  <ele>1583.0</ele>
  <time>2026-08-28T17:52:11Z</time>
  <course>240.29</course>
  <speed>0.0</speed>
  <fix>3d</fix>
</trkpt>
<trkpt lat="40.0713749" lon="-105.229789">
  <ele>1583.0</ele>
  <time>2026-08-28T17:52:11Z</time>
  <course>0.0</course>
  <speed>0.0</speed>
  <fix>3d</fix>
</trkpt>
<trkpt lat="40.0713749" lon="-105.229789">
  <ele>1583.0</ele>
  <time>2026-08-28T17:52:11Z</time>
  <course>240.61</course>
  <speed>0.0</speed>
  <fix>3d</fix>
</trkpt>
<trkpt lat="40.0713749" lon="-105.229789">
  <ele>1583.0</ele>
  <time>2026-08-28T17:52:11Z</time>
  <course>0.0</course>
  <speed>0.0</speed>
  <fix>3d</fix>
</trkpt>
<trkpt lat="40.0713749" lon="-105.229789">
  <ele>1583.0</ele>
  <time>2026-08-28T17:52:11Z</time>
  <course>240.91</course>
  <speed>0.0</speed>
  <fix>3d</fix>
</trkpt>
<trkpt lat="40.0713749" lon="-105.229789">
  <ele>1583.0</ele>
  <time>2026-08-28T17:52:11Z</time>
  <course>0.0</course>
  <speed>0.0</speed>
  <fix>3d</fix>
</trkpt>
<trkpt lat="40.0713749" lon="-105.229789">
  <ele>1583.0</ele>
  <time>2026-08-28T17:52:11Z</time>
  <course>241.21</course>
  <speed>0.0</speed>
  <fix>3d</fix>
</trkpt>
<trkpt lat="40.0713749" lon="-105.229789">
  <ele>1583.0</ele>
  <time>2026-08-28T17:52:11Z</time>
  <course>0.0</course>
  <speed>0.0</speed>
  <fix>3d</fix>
</trkpt>
<trkpt lat="40.0713749" lon="-105.229789">
  <ele>1583.0</ele>
  <time>2026-08-28T17:52:11Z</time>
  <course>241.49</course>
  <speed>0.0</speed>
  <fix>3d</fix>
</trkpt>
<trkpt lat="40.0713749" lon="-105.229789">
  <ele>1583.0</ele>
  <time>2026-08-28T17:52:11Z</time>
  <course>0.0</course>
  <speed>0.0</speed>
  <fix>3d</fix>
</trkpt>
<trkpt lat="40.0713749" lon="-105.229789">
  <ele>1583.0</ele>
  <time>2026-08-28T17:52:11Z</time>
  <course>241.76</course>
  <speed>0.0</speed>
  <fix>3d</fix>
</trkpt>
<trkpt lat="40.0713749" lon="-105.229789">
  <ele>1583.0</ele>
  <time>2026-08-28T17:52:11Z</time>
  <course>0.0</course>
  <speed>0.0</speed>
  <fix>3d</fix>
</trkpt>
<trkpt lat="40.0713749" lon="-105.229789">
  <ele>1583.0</ele>
  <time>2026-08-28T17:52:11Z</time>
  <course>242.03</course>
  <speed>0.0</speed>
  <fix>3d</fix>
</trkpt>
<trkpt lat="40.0713749" lon="-105.229789">
  <ele>1583.0</ele>
  <time>2026-08-28T17:52:11Z</time>
  <course>0.0</course>
  <speed>0.0</speed>
  <fix>3d</fix>
</trkpt>
<trkpt lat="40.0713749" lon="-105.229789">
  <ele>1583.0</ele>
  <time>2026-08-28T17:52:11Z</time>
  <course>242.29</course>
  <speed>0.0</speed>
  <fix>3d</fix>
</trkpt>
<trkpt lat="40.0713749" lon="-105.229789">
  <ele>1583.0</ele>
  <time>2026-08-28T17:52:11Z</time>
  <course>0.0</course>
  <speed>0.0</speed>
  <fix>3d</fix>
</trkpt>
<trkpt lat="40.0713749" lon="-105.229789">
  <ele>1583.0</ele>
  <time>2026-08-28T17:52:11Z</time>
  <course>242.54</course>
  <speed>0.0</speed>
  <fix>3d</fix>
</trkpt>
<trkpt lat="40.0713749" lon="-105.229789">
  <ele>1583.0</ele>
  <time>2026-08-28T17:52:11Z</time>
  <course>0.0</course>
  <speed>0.0</speed>
  <fix>3d</fix>
</trkpt>
<trkpt lat="40.0713749" lon="-105.229789">
  <ele>1583.0</ele>
  <time>2026-08-28T17:52:11Z</time>
  <course>242.78</course>
  <speed>0.0</speed>
  <fix>3d</fix>
</trkpt>
<trkpt lat="40.0713749" lon="-105.229789">
  <ele>1583.0</ele>
  <time>2026-08-28T17:52:11Z</time>
  <course>0.0</course>
  <speed>0.0</speed>
  <fix>3d</fix>
</trkpt>
<trkpt lat="40.0713749" lon="-105.229789">
  <ele>1583.0</ele>
  <time>2026-08-28T17:52:11Z</time>
  <course>243.02</course>
  <speed>0.0</speed>
  <fix>3d</fix>
</trkpt>
<trkpt lat="40.0713749" lon="-105.229789">
  <ele>1583.0</ele>
  <time>2026-08-28T17:52:11Z</time>
  <course>0.0</course>
  <speed>0.0</speed>
  <fix>3d</fix>
</trkpt>
<trkpt lat="40.0713749" lon="-105.229789">
  <ele>1583.0</ele>
  <time>2026-08-28T17:52:11Z</time>
  <course>243.25</course>
  <speed>0.0</speed>
  <fix>3d</fix>
</trkpt>
<trkpt lat="40.0713749" lon="-105.229789">
  <ele>1583.0</ele>
  <time>2026-08-28T17:52:11Z</time>
  <course>0.0</course>
  <speed>0.0</speed>
  <fix>3d</fix>
</trkpt>
<trkpt lat="40.0713749" lon="-105.229789">
  <ele>1583.0</ele>
  <time>2026-08-28T17:52:11Z</time>
  <course>243.47</course>
  <speed>0.0</speed>
  <fix>3d</fix>
</trkpt>
<trkpt lat="40.0713749" lon="-105.229789">
  <ele>1583.0</ele>
  <time>2026-08-28T17:52:11Z</time>
  <course>0.0</course>
  <speed>0.0</speed>
  <fix>3d</fix>
</trkpt>
<trkpt lat="40.0713749" lon="-105.229789">
  <ele>1583.0</ele>
  <time>2026-08-28T17:52:11Z</time>
  <course>243.68</course>
  <speed>0.0</speed>
  <fix>3d</fix>
</trkpt>
<trkpt lat="40.0713749" lon="-105.229789">
  <ele>1583.0</ele>
  <time>2026-08-28T17:52:11Z</time>
  <course>0.0</course>
  <speed>0.0</speed>
  <fix>3d</fix>
</trkpt>
<trkpt lat="40.0713749" lon="-105.229789">
  <ele>1583.0</ele>
  <time>2026-08-28T17:52:11Z</time>
  <course>243.89</course>
  <speed>0.0</speed>
  <fix>3d</fix>
</trkpt>
<trkpt lat="40.0713749" lon="-105.229789">
  <ele>1583.0</ele>
  <time>2026-08-28T17:52:11Z</time>
  <course>0.0</course>
  <speed>0.0</speed>
  <fix>3d</fix>
</trkpt>
<trkpt lat="40.0713749" lon="-105.229789">
  <ele>1583.0</ele>
  <time>2026-08-28T17:52:11Z</time>
  <course>244.09</course>
  <speed>0.0</speed>
  <fix>3d</fix>
</trkpt>
<trkpt lat="40.0713749" lon="-105.229789">
  <ele>1583.0</ele>
  <time>2026-08-28T17:52:11Z</time>
  <course>0.0</course>
  <speed>0.0</speed>
  <fix>3d</fix>
</trkpt>
<trkpt lat="40.0713749" lon="-105.229789">
  <ele>1583.0</ele>
  <time>2026-08-28T17:52:11Z</time>
  <course>244.28</course>
  <speed>0.0</speed>
  <fix>3d</fix>
</trkpt>
<trkpt lat="40.0713749" lon="-105.229789">
  <ele>1583.0</ele>
  <time>2026-08-28T17:52:11Z</time>
  <course>0.0</course>
  <speed>0.0</speed>
  <fix>3d</fix>
</trkpt>
<trkpt lat="40.0713749" lon="-105.229789">
  <ele>1583.0</ele>
  <time>2026-08-28T17:52:11Z</time>
  <course>244.46</course>
  <speed>0.0</speed>
  <fix>3d</fix>
</trkpt>
<trkpt lat="40.0713749" lon="-105.229789">
  <ele>1583.0</ele>
  <time>2026-08-28T17:52:11Z</time>
  <course>0.0</course>
  <speed>0.0</speed>
  <fix>3d</fix>
</trkpt>
<trkpt lat="40.0713749" lon="-105.229789">
  <ele>1583.0</ele>
  <time>2026-08-28T17:52:11Z</time>
  <course>244.64</course>
  <speed>0.0</speed>
  <fix>3d</fix>
</trkpt>
<trkpt lat="40.0713749" lon="-105.229789">
  <ele>1583.0</ele>
  <time>2026-08-28T17:52:11Z</time>
  <course>0.0</course>
  <speed>0.0</speed>
  <fix>3d</fix>
</trkpt>
<trkpt lat="40.0713749" lon="-105.229789">
  <ele>1583.0</ele>
  <time>2026-08-28T17:52:11Z</time>
  <course>244.81</course>
  <speed>0.0</speed>
  <fix>3d</fix>
</trkpt>
<trkpt lat="40.0713749" lon="-105.229789">
  <ele>1583.0</ele>
  <time>2026-08-28T17:52:11Z</time>
  <course>0.0</course>
  <speed>0.0</speed>
  <fix>3d</fix>
</trkpt>
<trkpt lat="40.0713749" lon="-105.229789">
  <ele>1583.0</ele>
  <time>2026-08-28T17:52:11Z</time>
  <course>244.97</course>
  <speed>0.0</speed>
  <fix>3d</fix>
</trkpt>
<trkpt lat="40.0713749" lon="-105.229789">
  <ele>1583.0</ele>
  <time>2026-08-28T17:52:11Z</time>
  <course>0.0</course>
  <speed>0.0</speed>
  <fix>3d</fix>
</trkpt>
<trkpt lat="40.0713749" lon="-105.229789">
  <ele>1583.0</ele>
  <time>2026-08-28T17:52:11Z</time>
  <course>245.13</course>
  <speed>0.0</speed>
  <fix>3d</fix>
</trkpt>
<trkpt lat="40.0713749" lon="-105.229789">
  <ele>1583.0</ele>
  <time>2026-08-28T17:52:11Z</time>
  <course>0.0</course>
  <speed>0.0</speed>
  <fix>3d</fix>
</trkpt>
<trkpt lat="40.0713749" lon="-105.229789">
  <ele>1583.0</ele>
  <time>2026-08-28T17:52:11Z</time>
  <course>245.28</course>
  <speed>0.0</speed>
  <fix>3d</fix>
</trkpt>
<trkpt lat="40.0713749" lon="-105.229789">
  <ele>1583.0</ele>
  <time>2026-08-28T17:52:11Z</time>
  <course>0.0</course>
  <speed>0.0</speed>
  <fix>3d</fix>
</trkpt>
<trkpt lat="40.0713749" lon="-105.229789">
  <ele>1583.0</ele>
  <time>2026-08-28T17:52:11Z</time>
  <course>245.43</course>
  <speed>0.0</speed>
  <fix>3d</fix>
</trkpt>
<trkpt lat="40.0713749" lon="-105.229789">
  <ele>1583.0</ele>
  <time>2026-08-28T17:52:11Z</time>
  <course>0.0</course>
  <speed>0.0</speed>
  <fix>3d</fix>
</trkpt>
<trkpt lat="40.0713749" lon="-105.229789">
  <ele>1583.0</ele>
  <time>2026-08-28T17:52:11Z</time>
  <course>245.57</course>
  <speed>0.0</speed>
  <fix>3d</fix>
</trkpt>
<trkpt lat="40.0713749" lon="-105.229789">
  <ele>1583.0</ele>
  <time>2026-08-28T17:52:11Z</time>
  <course>0.0</course>
  <speed>0.0</speed>
  <fix>3d</fix>
</trkpt>
<trkpt lat="40.0713749" lon="-105.229789">
  <ele>1583.0</ele>
  <time>2026-08-28T17:52:11Z</time>
  <course>245.7</course>
  <speed>0.0</speed>
  <fix>3d</fix>
</trkpt>
<trkpt lat="40.0713749" lon="-105.229789">
  <ele>1583.0</ele>
  <time>2026-08-28T17:52:11Z</time>
  <course>0.0</course>
  <speed>0.0</speed>
  <fix>3d</fix>
</trkpt>
<trkpt lat="40.0713749" lon="-105.229789">
  <ele>1583.0</ele>
  <time>2026-08-28T17:52:11Z</time>
  <course>245.83</course>
  <speed>0.0</speed>
  <fix>3d</fix>
</trkpt>
<trkpt lat="40.0713749" lon="-105.229789">
  <ele>1583.0</ele>
  <time>2026-08-28T17:52:11Z</time>
  <course>0.0</course>
  <speed>0.0</speed>
  <fix>3d</fix>
</trkpt>
<trkpt lat="40.0713749" lon="-105.229789">
  <ele>1583.0</ele>
  <time>2026-08-28T17:52:11Z</time>
  <course>245.96</course>
  <speed>0.0</speed>
  <fix>3d</fix>
</trkpt>
<trkpt lat="40.0713749" lon="-105.229789">
  <ele>1583.0</ele>
  <time>2026-08-28T17:52:11Z</time>
  <course>0.0</course>
  <speed>0.0</speed>
  <fix>3d</fix>
</trkpt>
<trkpt lat="40.0713749" lon="-105.229789">
  <ele>1583.0</ele>
  <time>2026-08-28T17:52:11Z</time>
  <course>246.08</course>
  <speed>0.0</speed>
  <fix>3d</fix>
</trkpt>
<trkpt lat="40.0713749" lon="-105.229789">
  <ele>1583.0</ele>
  <time>2026-08-28T17:52:11Z</time>
  <course>0.0</course>
  <speed>0.0</speed>
  <fix>3d</fix>
</trkpt>
<trkpt lat="40.0713749" lon="-105.229789">
  <ele>1583.0</ele>
  <time>2026-08-28T17:52:11Z</time>
  <course>246.19</course>
  <speed>0.0</speed>
  <fix>3d</fix>
</trkpt>
<trkpt lat="40.0713749" lon="-105.229789">
  <ele>1583.0</ele>
  <time>2026-08-28T17:52:11Z</time>
  <course>0.0</course>
  <speed>0.0</speed>
  <fix>3d</fix>
</trkpt>
<trkpt lat="40.0713749" lon="-105.229789">
  <ele>1583.0</ele>
  <time>2026-08-28T17:52:11Z</time>
  <course>246.3</course>
  <speed>0.0</speed>
  <fix>3d</fix>
</trkpt>
<trkpt lat="40.0713749" lon="-105.229789">
  <ele>1583.0</ele>
  <time>2026-08-28T17:52:11Z</time>
  <course>0.0</course>
  <speed>0.0</speed>
  <fix>3d</fix>
</trkpt>
<trkpt lat="40.0713749" lon="-105.229789">
  <ele>1583.0</ele>
  <time>2026-08-28T17:52:11Z</time>
  <course>246.41</course>
  <speed>0.0</speed>
  <fix>3d</fix>
</trkpt>
<trkpt lat="40.0713749" lon="-105.229789">
  <ele>1583.0</ele>
  <time>2026-08-28T17:52:11Z</time>
  <course>0.0</course>
  <speed>0.0</speed>
  <fix>3d</fix>
</trkpt>
<trkpt lat="40.0713749" lon="-105.229789">
  <ele>1583.0</ele>
  <time>2026-08-28T17:52:11Z</time>
  <course>246.51</course>
  <speed>0.0</speed>
  <fix>3d</fix>
</trkpt>
<trkpt lat="40.0713749" lon="-105.229789">
  <ele>1583.0</ele>
  <time>2026-08-28T17:52:11Z</time>
  <course>0.0</course>
  <speed>0.0</speed>
  <fix>3d</fix>
</trkpt>
<trkpt lat="40.0713749" lon="-105.229789">
  <ele>1583.0</ele>
  <time>2026-08-28T17:52:11Z</time>
  <course>246.6</course>
  <speed>0.0</speed>
  <fix>3d</fix>
</trkpt>
<trkpt lat="40.0713749" lon="-105.229789">
  <ele>1583.0</ele>
  <time>2026-08-28T17:52:11Z</time>
  <course>0.0</course>
  <speed>0.0</speed>
  <fix>3d</fix>
</trkpt>
<trkpt lat="40.0713749" lon="-105.229789">
  <ele>1583.0</ele>
  <time>2026-08-28T17:52:11Z</time>
  <course>246.69</course>
  <speed>0.0</speed>
  <fix>3d</fix>
</trkpt>
<trkpt lat="40.0713749" lon="-105.229789">
  <ele>1583.0</ele>
  <time>2026-08-28T17:52:11Z</time>
  <course>0.0</course>
  <speed>0.0</speed>
  <fix>3d</fix>
</trkpt>
<trkpt lat="40.0713749" lon="-105.229789">
  <ele>1583.0</ele>
  <time>2026-08-28T17:52:11Z</time>
  <course>246.78</course>
  <speed>0.0</speed>
  <fix>3d</fix>
</trkpt>
<trkpt lat="40.0713749" lon="-105.229789">
  <ele>1583.0</ele>
  <time>2026-08-28T17:52:11Z</time>
  <course>0.0</course>
  <speed>0.0</speed>
  <fix>3d</fix>
</trkpt>
<trkpt lat="40.0713749" lon="-105.229789">
  <ele>1583.0</ele>
  <time>2026-08-28T17:52:11Z</time>
  <course>246.87</course>
  <speed>0.0</speed>
  <fix>3d</fix>
</trkpt>
<trkpt lat="40.0713749" lon="-105.229789">
  <ele>1583.0</ele>
  <time>2026-08-28T17:52:11Z</time>
  <course>0.0</course>
  <speed>0.0</speed>
  <fix>3d</fix>
</trkpt>
<trkpt lat="40.0713749" lon="-105.229789">
  <ele>1583.0</ele>
  <time>2026-08-28T17:52:11Z</time>
  <course>246.95</course>
  <speed>0.0</speed>
  <fix>3d</fix>
</trkpt>
<trkpt lat="40.0713749" lon="-105.229789">
  <ele>1583.0</ele>
  <time>2026-08-28T17:52:11Z</time>
  <course>0.0</course>
  <speed>0.0</speed>
  <fix>3d</fix>
</trkpt>
<trkpt lat="40.0713749" lon="-105.229789">
  <ele>1583.0</ele>
  <time>2026-08-28T17:52:11Z</time>
  <course>247.02</course>
  <speed>0.0</speed>
  <fix>3d</fix>
</trkpt>
<trkpt lat="40.0713749" lon="-105.229789">
  <ele>1583.0</ele>
  <time>2026-08-28T17:52:11Z</time>
  <course>0.0</course>
  <speed>0.0</speed>
  <fix>3d</fix>
</trkpt>
<trkpt lat="40.0713749" lon="-105.229789">
  <ele>1583.0</ele>
  <time>2026-08-28T17:52:11Z</time>
  <course>247.1</course>
  <speed>0.0</speed>
  <fix>3d</fix>
</trkpt>
<trkpt lat="40.0713749" lon="-105.229789">
  <ele>1583.0</ele>
  <time>2026-08-28T17:52:11Z</time>
  <course>0.0</course>
  <speed>0.0</speed>
  <fix>3d</fix>
</trkpt>
<trkpt lat="40.0713749" lon="-105.229789">
  <ele>1583.0</ele>
  <time>2026-08-28T17:52:11Z</time>
  <course>247.17</course>
  <speed>0.0</speed>
  <fix>3d</fix>
</trkpt>
<trkpt lat="40.0713749" lon="-105.229789">
  <ele>1583.0</ele>
  <time>2026-08-28T17:52:11Z</time>
  <course>0.0</course>
  <speed>0.0</speed>
  <fix>3d</fix>
</trkpt>
<trkpt lat="40.0713749" lon="-105.229789">
  <ele>1583.0</ele>
  <time>2026-08-28T17:52:11Z</time>
  <course>247.23</course>
  <speed>0.0</speed>
  <fix>3d</fix>
</trkpt>
<trkpt lat="40.0713749" lon="-105.229789">
  <ele>1583.0</ele>
  <time>2026-08-28T17:52:11Z</time>
  <course>0.0</course>
  <speed>0.0</speed>
  <fix>3d</fix>
</trkpt>
<trkpt lat="40.0713749" lon="-105.229789">
  <ele>1583.0</ele>
  <time>2026-08-28T17:52:11Z</time>
  <course>247.3</course>
  <speed>0.0</speed>
  <fix>3d</fix>
</trkpt>
<trkpt lat="40.0713749" lon="-105.229789">
  <ele>1583.0</ele>
  <time>2026-08-28T17:52:11Z</time>
  <course>0.0</course>
  <speed>0.0</speed>
  <fix>3d</fix>
</trkpt>
<trkpt lat="40.0713749" lon="-105.229789">
  <ele>1583.0</ele>
  <time>2026-08-28T17:52:11Z</time>
  <course>247.36</course>
  <speed>0.0</speed>
  <fix>3d</fix>
</trkpt>
<trkpt lat="40.0713749" lon="-105.229789">
  <ele>1583.0</ele>
  <time>2026-08-28T17:52:11Z</time>
  <course>0.0</course>
  <speed>0.0</speed>
  <fix>3d</fix>
</trkpt>
<trkpt lat="40.0713749" lon="-105.229789">
  <ele>1583.0</ele>
  <time>2026-08-28T17:52:11Z</time>
  <course>247.42</course>
  <speed>0.0</speed>
  <fix>3d</fix>
</trkpt>
<trkpt lat="40.0713749" lon="-105.229789">
  <ele>1583.0</ele>
  <time>2026-08-28T17:52:11Z</time>
  <course>0.0</course>
  <speed>0.0</speed>
  <fix>3d</fix>
</trkpt>
<trkpt lat="40.0713749" lon="-105.229789">
  <ele>1583.0</ele>
  <time>2026-08-28T17:52:11Z</time>
  <course>247.47</course>
  <speed>0.0</speed>
  <fix>3d</fix>
</trkpt>
<trkpt lat="40.0713749" lon="-105.229789">
  <ele>1583.0</ele>
  <time>2026-08-28T17:52:11Z</time>
  <course>0.0</course>
  <speed>0.0</speed>
  <fix>3d</fix>
</trkpt>
<trkpt lat="40.0713749" lon="-105.229789">
  <ele>1583.0</ele>
  <time>2026-08-28T17:52:11Z</time>
  <course>247.53</course>
  <speed>0.0</speed>
  <fix>3d</fix>
</trkpt>
<trkpt lat="40.0713749" lon="-105.229789">
  <ele>1583.0</ele>
  <time>2026-08-28T17:52:11Z</time>
  <course>0.0</course>
  <speed>0.0</speed>
  <fix>3d</fix>
</trkpt>
<trkpt lat="40.0713749" lon="-105.229789">
  <ele>1583.0</ele>
  <time>2026-08-28T17:52:11Z</time>
  <course>247.58</course>
  <speed>0.0</speed>
  <fix>3d</fix>
</trkpt>
<trkpt lat="40.0713749" lon="-105.229789">
  <ele>1583.0</ele>
  <time>2026-08-28T17:52:11Z</time>
  <course>0.0</course>
  <speed>0.0</speed>
  <fix>3d</fix>
</trkpt>
<trkpt lat="40.0713749" lon="-105.229789">
  <ele>1583.0</ele>
  <time>2026-08-28T17:52:11Z</time>
  <course>247.62</course>
  <speed>0.0</speed>
  <fix>3d</fix>
</trkpt>
<trkpt lat="40.0713749" lon="-105.229789">
  <ele>1583.0</ele>
  <time>2026-08-28T17:52:11Z</time>
  <course>0.0</course>
  <speed>0.0</speed>
  <fix>3d</fix>
</trkpt>
<trkpt lat="40.0713749" lon="-105.229789">
  <ele>1583.0</ele>
  <time>2026-08-28T17:52:11Z</time>
  <course>247.67</course>
  <speed>0.0</speed>
  <fix>3d</fix>
</trkpt>
<trkpt lat="40.0713749" lon="-105.229789">
  <ele>1583.0</ele>
  <time>2026-08-28T17:52:11Z</time>
  <course>0.0</course>
  <speed>0.0</speed>
  <fix>3d</fix>
</trkpt>
<trkpt lat="40.0713749" lon="-105.229789">
  <ele>1583.0</ele>
  <time>2026-08-28T17:52:11Z</time>
  <course>247.71</course>
  <speed>0.0</speed>
  <fix>3d</fix>
</trkpt>
<trkpt lat="40.0713749" lon="-105.229789">
  <ele>1583.0</ele>
  <time>2026-08-28T17:52:11Z</time>
  <course>0.0</course>
  <speed>0.0</speed>
  <fix>3d</fix>
</trkpt>
<trkpt lat="40.0713749" lon="-105.229789">
  <ele>1583.0</ele>
  <time>2026-08-28T17:52:11Z</time>
  <course>247.76</course>
  <speed>0.0</speed>
  <fix>3d</fix>
</trkpt>
<trkpt lat="40.0713749" lon="-105.229789">
  <ele>1583.0</ele>
  <time>2026-08-28T17:52:11Z</time>
  <course>0.0</course>
  <speed>0.0</speed>
  <fix>3d</fix>
</trkpt>
<trkpt lat="40.0713749" lon="-105.229789">
  <ele>1583.0</ele>
  <time>2026-08-28T17:52:11Z</time>
  <course>247.8</course>
  <speed>0.0</speed>
  <fix>3d</fix>
</trkpt>
<trkpt lat="40.0713749" lon="-105.229789">
  <ele>1583.0</ele>
  <time>2026-08-28T17:52:11Z</time>
  <course>0.0</course>
  <speed>0.0</speed>
  <fix>3d</fix>
</trkpt>
<trkpt lat="40.0713749" lon="-105.229789">
  <ele>1583.0</ele>
  <time>2026-08-28T17:52:11Z</time>
  <course>247.83</course>
  <speed>0.0</speed>
  <fix>3d</fix>
</trkpt>
<trkpt lat="40.0713749" lon="-105.229789">
  <ele>1583.0</ele>
  <time>2026-08-28T17:52:11Z</time>
  <course>0.0</course>
  <speed>0.0</speed>
  <fix>3d</fix>
</trkpt>
<trkpt lat="40.0713749" lon="-105.229789">
  <ele>1583.0</ele>
  <time>2026-08-28T17:52:11Z</time>
  <course>247.87</course>
  <speed>0.0</speed>
  <fix>3d</fix>
</trkpt>
<trkpt lat="40.0713749" lon="-105.229789">
  <ele>1583.0</ele>
  <time>2026-08-28T17:52:11Z</time>
  <course>0.0</course>
  <speed>0.0</speed>
  <fix>3d</fix>
</trkpt>
<trkpt lat="40.0713749" lon="-105.229789">
  <ele>1583.0</ele>
  <time>2026-08-28T17:52:11Z</time>
  <course>247.9</course>
  <speed>0.0</speed>
  <fix>3d</fix>
</trkpt>
<trkpt lat="40.0713749" lon="-105.229789">
  <ele>1583.0</ele>
  <time>2026-08-28T17:52:11Z</time>
  <course>0.0</course>
  <speed>0.0</speed>
  <fix>3d</fix>
</trkpt>
<trkpt lat="40.0713749" lon="-105.229789">
  <ele>1583.0</ele>
  <time>2026-08-28T17:52:11Z</time>
  <course>247.94</course>
  <speed>0.0</speed>
  <fix>3d</fix>
</trkpt>
<trkpt lat="40.0713749" lon="-105.229789">
  <ele>1583.0</ele>
  <time>2026-08-28T17:52:11Z</time>
  <course>0.0</course>
  <speed>0.0</speed>
  <fix>3d</fix>
</trkpt>
<trkpt lat="40.0713749" lon="-105.229789">
  <ele>1583.0</ele>
  <time>2026-08-28T17:52:11Z</time>
  <course>247.97</course>
  <speed>0.0</speed>
  <fix>3d</fix>
</trkpt>
<trkpt lat="40.0713749" lon="-105.229789">
  <ele>1583.0</ele>
  <time>2026-08-28T17:52:11Z</time>
  <course>0.0</course>
  <speed>0.0</speed>
  <fix>3d</fix>
</trkpt>
<trkpt lat="40.0713749" lon="-105.229789">
  <ele>1583.0</ele>
  <time>2026-08-28T17:52:11Z</time>
  <course>248.0</course>
  <speed>0.0</speed>
  <fix>3d</fix>
</trkpt>
<trkpt lat="40.0713749" lon="-105.229789">
  <ele>1583.0</ele>
  <time>2026-08-28T17:52:11Z</time>
  <course>0.0</course>
  <speed>0.0</speed>
  <fix>3d</fix>
</trkpt>
<trkpt lat="40.0713749" lon="-105.229789">
  <ele>1583.0</ele>
  <time>2026-08-28T17:52:11Z</time>
  <course>248.02</course>
  <speed>0.0</speed>
  <fix>3d</fix>
</trkpt>
<trkpt lat="40.0713749" lon="-105.229789">
  <ele>1583.0</ele>
  <time>2026-08-28T17:52:11Z</time>
  <course>0.0</course>
  <speed>0.0</speed>
  <fix>3d</fix>
</trkpt>
<trkpt lat="40.0713749" lon="-105.229789">
  <ele>1583.0</ele>
  <time>2026-08-28T17:52:11Z</time>
  <course>248.05</course>
  <speed>0.0</speed>
  <fix>3d</fix>
</trkpt>
<trkpt lat="40.0713749" lon="-105.229789">
  <ele>1583.0</ele>
  <time>2026-08-28T17:52:11Z</time>
  <course>0.0</course>
  <speed>0.0</speed>
  <fix>3d</fix>
</trkpt>
<trkpt lat="40.0713749" lon="-105.229789">
  <ele>1583.0</ele>
  <time>2026-08-28T17:52:11Z</time>
  <course>248.07</course>
  <speed>0.0</speed>
  <fix>3d</fix>
</trkpt>
<trkpt lat="40.0713749" lon="-105.229789">
  <ele>1583.0</ele>
  <time>2026-08-28T17:52:11Z</time>
  <course>0.0</course>
  <speed>0.0</speed>
  <fix>3d</fix>
</trkpt>
<trkpt lat="40.0713749" lon="-105.229789">
  <ele>1583.0</ele>
  <time>2026-08-28T17:52:11Z</time>
  <course>248.1</course>
  <speed>0.0</speed>
  <fix>3d</fix>
</trkpt>
<trkpt lat="40.0713749" lon="-105.229789">
  <ele>1583.0</ele>
  <time>2026-08-28T17:52:11Z</time>
  <course>0.0</course>
  <speed>0.0</speed>
  <fix>3d</fix>
</trkpt>
<trkpt lat="40.0713749" lon="-105.229789">
  <ele>1583.0</ele>
  <time>2026-08-28T17:52:11Z</time>
  <course>248.12</course>
  <speed>0.0</speed>
  <fix>3d</fix>
</trkpt>
<trkpt lat="40.0713749" lon="-105.229789">
  <ele>1583.0</ele>
  <time>2026-08-28T17:52:11Z</time>
  <course>0.0</course>
  <speed>0.0</speed>
  <fix>3d</fix>
</trkpt>
<trkpt lat="40.0713749" lon="-105.229789">
  <ele>1583.0</ele>
  <time>2026-08-28T17:52:11Z</time>
  <course>248.14</course>
  <speed>0.0</speed>
  <fix>3d</fix>
</trkpt>
<trkpt lat="40.0713749" lon="-105.229789">
  <ele>1583.0</ele>
  <time>2026-08-28T17:52:11Z</time>
  <course>0.0</course>
  <speed>0.0</speed>
  <fix>3d</fix>
</trkpt>
<trkpt lat="40.0713749" lon="-105.229789">
  <ele>1583.0</ele>
  <time>2026-08-28T17:52:11Z</time>
  <course>248.16</course>
  <speed>0.0</speed>
  <fix>3d</fix>
</trkpt>
<trkpt lat="40.0713749" lon="-105.229789">
  <ele>1583.0</ele>
  <time>2026-08-28T17:52:11Z</time>
  <course>0.0</course>
  <speed>0.0</speed>
  <fix>3d</fix>
</trkpt>
<trkpt lat="40.0713749" lon="-105.229789">
  <ele>1583.0</ele>
  <time>2026-08-28T17:52:11Z</time>
  <course>248.18</course>
  <speed>0.0</speed>
  <fix>3d</fix>
</trkpt>
<trkpt lat="40.0713749" lon="-105.229789">
  <ele>1583.0</ele>
  <time>2026-08-28T17:52:11Z</time>
  <course>0.0</course>
  <speed>0.0</speed>
  <fix>3d</fix>
</trkpt>
<trkpt lat="40.0713749" lon="-105.229789">
  <ele>1583.0</ele>
  <time>2026-08-28T17:52:11Z</time>
  <course>248.2</course>
  <speed>0.0</speed>
  <fix>3d</fix>
</trkpt>
<trkpt lat="40.0713749" lon="-105.229789">
  <ele>1583.0</ele>
  <time>2026-08-28T17:52:11Z</time>
  <course>0.0</course>
  <speed>0.0</speed>
  <fix>3d</fix>
</trkpt>
<trkpt lat="40.0713749" lon="-105.229789">
  <ele>1583.0</ele>
  <time>2026-08-28T17:52:11Z</time>
  <course>248.21</course>
  <speed>0.0</speed>
  <fix>3d</fix>
</trkpt>
<trkpt lat="40.0713749" lon="-105.229789">
  <ele>1583.0</ele>
  <time>2026-08-28T17:52:11Z</time>
  <course>0.0</course>
  <speed>0.0</speed>
  <fix>3d</fix>
</trkpt>
<trkpt lat="40.0713749" lon="-105.229789">
  <ele>1583.0</ele>
  <time>2026-08-28T17:52:11Z</time>
  <course>248.23</course>
  <speed>0.0</speed>
  <fix>3d</fix>
</trkpt>
<trkpt lat="40.0713749" lon="-105.229789">
  <ele>1583.0</ele>
  <time>2026-08-28T17:52:11Z</time>
  <course>0.0</course>
  <speed>0.0</speed>
  <fix>3d</fix>
</trkpt>
<trkpt lat="40.0713749" lon="-105.229789">
  <ele>1583.0</ele>
  <time>2026-08-28T17:52:11Z</time>
  <course>248.25</course>
  <speed>0.0</speed>
  <fix>3d</fix>
</trkpt>
<trkpt lat="40.0713749" lon="-105.229789">
  <ele>1583.0</ele>
  <time>2026-08-28T17:52:11Z</time>
  <course>0.0</course>
  <speed>0.0</speed>
  <fix>3d</fix>
</trkpt>
<trkpt lat="40.0713749" lon="-105.229789">
  <ele>1583.0</ele>
  <time>2026-08-28T17:52:11Z</time>
  <course>248.26</course>
  <speed>0.0</speed>
  <fix>3d</fix>
</trkpt>
<trkpt lat="40.0713749" lon="-105.229789">
  <ele>1583.0</ele>
  <time>2026-08-28T17:52:11Z</time>
  <course>0.0</course>
  <speed>0.0</speed>
  <fix>3d</fix>
</trkpt>
<trkpt lat="40.0713749" lon="-105.229789">
  <ele>1583.0</ele>
  <time>2026-08-28T17:52:11Z</time>
  <course>248.27</course>
  <speed>0.0</speed>
  <fix>3d</fix>
</trkpt>
<trkpt lat="40.0713749" lon="-105.229789">
  <ele>1583.0</ele>
  <time>2026-08-28T17:52:11Z</time>
  <course>0.0</course>
  <speed>0.0</speed>
  <fix>3d</fix>
</trkpt>
<trkpt lat="40.0713749" lon="-105.229789">
  <ele>1583.0</ele>
  <time>2026-08-28T17:52:11Z</time>
  <course>248.29</course>
  <speed>0.0</speed>
  <fix>3d</fix>
</trkpt>
<trkpt lat="40.0713749" lon="-105.229789">
  <ele>1583.0</ele>
  <time>2026-08-28T17:52:11Z</time>
  <course>0.0</course>
  <speed>0.0</speed>
  <fix>3d</fix>
</trkpt>
<trkpt lat="40.0713749" lon="-105.229789">
  <ele>1583.0</ele>
  <time>2026-08-28T17:52:11Z</time>
  <course>248.3</course>
  <speed>0.0</speed>
  <fix>3d</fix>
</trkpt>
<trkpt lat="40.0713749" lon="-105.229789">
  <ele>1583.0</ele>
  <time>2026-08-28T17:52:11Z</time>
  <course>0.0</course>
  <speed>0.0</speed>
  <fix>3d</fix>
</trkpt>
<trkpt lat="40.0713749" lon="-105.229789">
  <ele>1583.0</ele>
  <time>2026-08-28T17:52:11Z</time>
  <course>248.31</course>
  <speed>0.0</speed>
  <fix>3d</fix>
</trkpt>
<trkpt lat="40.0713749" lon="-105.229789">
  <ele>1583.0</ele>
  <time>2026-08-28T17:52:11Z</time>
  <course>0.0</course>
  <speed>0.0</speed>
  <fix>3d</fix>
</trkpt>
<trkpt lat="40.0713749" lon="-105.229789">
  <ele>1583.0</ele>
  <time>2026-08-28T17:52:11Z</time>
  <course>248.32</course>
  <speed>0.0</speed>
  <fix>3d</fix>
</trkpt>
<trkpt lat="40.0713749" lon="-105.229789">
  <ele>1583.0</ele>
  <time>2026-08-28T17:52:11Z</time>
  <course>0.0</course>
  <speed>0.0</speed>
  <fix>3d</fix>
</trkpt>
<trkpt lat="40.0713749" lon="-105.229789">
  <ele>1583.0</ele>
  <time>2026-08-28T17:52:11Z</time>
  <course>248.33</course>
  <speed>0.0</speed>
  <fix>3d</fix>
</trkpt>
<trkpt lat="40.0713749" lon="-105.229789">
  <ele>1583.0</ele>
  <time>2026-08-28T17:52:11Z</time>
  <course>0.0</course>
  <speed>0.0</speed>
  <fix>3d</fix>
</trkpt>
<trkpt lat="40.0713749" lon="-105.229789">
  <ele>1583.0</ele>
  <time>2026-08-28T17:52:11Z</time>
  <course>248.34</course>
  <speed>0.0</speed>
  <fix>3d</fix>
</trkpt>
<trkpt lat="40.0713749" lon="-105.229789">
  <ele>1583.0</ele>
  <time>2026-08-28T17:52:11Z</time>
  <course>0.0</course>
  <speed>0.0</speed>
  <fix>3d</fix>
</trkpt>
<trkpt lat="40.0713749" lon="-105.229789">
  <ele>1583.0</ele>
  <time>2026-08-28T17:52:11Z</time>
  <course>248.34</course>
  <speed>0.0</speed>
  <fix>3d</fix>
</trkpt>
<trkpt lat="40.0713749" lon="-105.229789">
  <ele>1583.0</ele>
  <time>2026-08-28T17:52:11Z</time>
  <course>0.0</course>
  <speed>0.0</speed>
  <fix>3d</fix>
</trkpt>
<trkpt lat="40.0713749" lon="-105.229789">
  <ele>1583.0</ele>
  <time>2026-08-28T17:52:11Z</time>
  <course>248.35</course>
  <speed>0.0</speed>
  <fix>3d</fix>
</trkpt>
<trkpt lat="40.0713749" lon="-105.229789">
  <ele>1583.0</ele>
  <time>2026-08-28T17:52:11Z</time>
  <course>0.0</course>
  <speed>0.0</speed>
  <fix>3d</fix>
</trkpt>
<trkpt lat="40.0713749" lon="-105.229789">
  <ele>1583.0</ele>
  <time>2026-08-28T17:52:11Z</time>
  <course>248.36</course>
  <speed>0.0</speed>
  <fix>3d</fix>
</trkpt>
<trkpt lat="40.0713749" lon="-105.229789">
  <ele>1583.0</ele>
  <time>2026-08-28T17:52:11Z</time>
  <course>0.0</course>
  <speed>0.0</speed>
  <fix>3d</fix>
</trkpt>
<trkpt lat="40.0713749" lon="-105.229789">
  <ele>1583.0</ele>
  <time>2026-08-28T17:52:11Z</time>
  <course>248.37</course>
  <speed>0.0</speed>
  <fix>3d</fix>
</trkpt>
<trkpt lat="40.0713749" lon="-105.229789">
  <ele>1583.0</ele>
  <time>2026-08-28T17:52:11Z</time>
  <course>0.0</course>
  <speed>0.0</speed>
  <fix>3d</fix>
</trkpt>
<trkpt lat="40.0713749" lon="-105.229789">
  <ele>1583.0</ele>
  <time>2026-08-28T17:52:11Z</time>
  <course>248.37</course>
  <speed>0.0</speed>
  <fix>3d</fix>
</trkpt>
<trkpt lat="40.0713749" lon="-105.229789">
  <ele>1583.0</ele>
  <time>2026-08-28T17:52:11Z</time>
  <course>0.0</course>
  <speed>0.0</speed>
  <fix>3d</fix>
</trkpt>
<trkpt lat="40.0713749" lon="-105.229789">
  <ele>1583.0</ele>
  <time>2026-08-28T17:52:11Z</time>
  <course>248.38</course>
  <speed>0.0</speed>
  <fix>3d</fix>
</trkpt>
<trkpt lat="40.0713749" lon="-105.229789">
  <ele>1583.0</ele>
  <time>2026-08-28T17:52:11Z</time>
  <course>0.0</course>
  <speed>0.0</speed>
  <fix>3d</fix>
</trkpt>
<trkpt lat="40.0713749" lon="-105.229789">
  <ele>1583.0</ele>
  <time>2026-08-28T17:52:11Z</time>
  <course>248.38</course>
  <speed>0.0</speed>
  <fix>3d</fix>
</trkpt>
<trkpt lat="40.0713749" lon="-105.229789">
  <ele>1583.0</ele>
  <time>2026-08-28T17:52:11Z</time>
  <course>0.0</course>
  <speed>0.0</speed>
  <fix>3d</fix>
</trkpt>
<trkpt lat="40.0713749" lon="-105.229789">
  <ele>1583.0</ele>
  <time>2026-08-28T17:52:11Z</time>
  <course>248.39</course>
  <speed>0.0</speed>
  <fix>3d</fix>
</trkpt>
<trkpt lat="40.0713749" lon="-105.229789">
  <ele>1583.0</ele>
  <time>2026-08-28T17:52:11Z</time>
  <course>0.0</course>
  <speed>0.0</speed>
  <fix>3d</fix>
</trkpt>
<trkpt lat="40.0713749" lon="-105.229789">
  <ele>1583.0</ele>
  <time>2026-08-28T17:52:11Z</time>
  <course>248.39</course>
  <speed>0.0</speed>
  <fix>3d</fix>
</trkpt>
<trkpt lat="40.0713749" lon="-105.229789">
  <ele>1583.0</ele>
  <time>2026-08-28T17:52:11Z</time>
  <course>0.0</course>
  <speed>0.0</speed>
  <fix>3d</fix>
</trkpt>
<trkpt lat="40.0713749" lon="-105.229789">
  <ele>1583.0</ele>
  <time>2026-08-28T17:52:11Z</time>
  <course>248.39</course>
  <speed>0.0</speed>
  <fix>3d</fix>
</trkpt>
<trkpt lat="40.0713749" lon="-105.229789">
  <ele>1583.0</ele>
  <time>2026-08-28T17:52:11Z</time>
  <course>0.0</course>
  <speed>0.0</speed>
  <fix>3d</fix>
</trkpt>
<trkpt lat="40.0713749" lon="-105.229789">
  <ele>1583.0</ele>
  <time>2026-08-28T17:52:11Z</time>
  <course>248.4</course>
  <speed>0.0</speed>
  <fix>3d</fix>
</trkpt>
<trkpt lat="40.0713749" lon="-105.229789">
  <ele>1583.0</ele>
  <time>2026-08-28T17:52:11Z</time>
  <course>0.0</course>
  <speed>0.0</speed>
  <fix>3d</fix>
</trkpt>
<trkpt lat="40.0713749" lon="-105.229789">
  <ele>1583.0</ele>
  <time>2026-08-28T17:52:11Z</time>
  <course>248.4</course>
  <speed>0.0</speed>
  <fix>3d</fix>
</trkpt>
<trkpt lat="40.0713749" lon="-105.229789">
  <ele>1583.0</ele>
  <time>2026-08-28T17:52:11Z</time>
  <course>0.0</course>
  <speed>0.0</speed>
  <fix>3d</fix>
</trkpt>
<trkpt lat="40.0713749" lon="-105.229789">
  <ele>1583.0</ele>
  <time>2026-08-28T17:52:11Z</time>
  <course>248.4</course>
  <speed>0.0</speed>
  <fix>3d</fix>
</trkpt>
<trkpt lat="40.0713749" lon="-105.229789">
  <ele>1583.0</ele>
  <time>2026-08-28T17:52:11Z</time>
  <course>0.0</course>
  <speed>0.0</speed>
  <fix>3d</fix>
</trkpt>
<trkpt lat="40.0713749" lon="-105.229789">
  <ele>1583.0</ele>
  <time>2026-08-28T17:52:11Z</time>
  <course>248.4</course>
  <speed>0.0</speed>
  <fix>3d</fix>
</trkpt>
<trkpt lat="40.0713749" lon="-105.229789">
  <ele>1583.0</ele>
  <time>2026-08-28T17:52:11Z</time>
  <course>0.0</course>
  <speed>0.0</speed>
  <fix>3d</fix>
</trkpt>
<trkpt lat="40.0713749" lon="-105.229789">
  <ele>1583.0</ele>
  <time>2026-08-28T17:52:11Z</time>
  <course>248.41</course>
  <speed>0.0</speed>
  <fix>3d</fix>
</trkpt>
<trkpt lat="40.0713749" lon="-105.229789">
  <ele>1583.0</ele>
  <time>2026-08-28T17:52:11Z</time>
  <course>0.0</course>
  <speed>0.0</speed>
  <fix>3d</fix>
</trkpt>
<trkpt lat="40.0713749" lon="-105.229789">
  <ele>1583.0</ele>
  <time>2026-08-28T17:52:11Z</time>
  <course>248.41</course>
  <speed>0.0</speed>
  <fix>3d</fix>
</trkpt>
<trkpt lat="40.0713749" lon="-105.229789">
  <ele>1583.0</ele>
  <time>2026-08-28T17:52:11Z</time>
  <course>0.0</course>
  <speed>0.0</speed>
  <fix>3d</fix>
</trkpt>
<trkpt lat="40.0713749" lon="-105.229789">
  <ele>1583.0</ele>
  <time>2026-08-28T17:52:11Z</time>
  <course>248.41</course>
  <speed>0.0</speed>
  <fix>3d</fix>
</trkpt>
<trkpt lat="40.0713749" lon="-105.229789">
  <ele>1583.0</ele>
  <time>2026-08-28T17:52:11Z</time>
  <course>0.0</course>
  <speed>0.0</speed>
  <fix>3d</fix>
</trkpt>
<trkpt lat="40.0713749" lon="-105.229789">
  <ele>1583.0</ele>
  <time>2026-08-28T17:52:11Z</time>
  <course>248.41</course>
  <speed>0.0</speed>
  <fix>3d</fix>
</trkpt>
<trkpt lat="40.0713749" lon="-105.229789">
  <ele>1583.0</ele>
  <time>2026-08-28T17:52:11Z</time>
  <course>0.0</course>
  <speed>0.0</speed>
  <fix>3d</fix>
</trkpt>
<trkpt lat="40.0713749" lon="-105.229789">
  <ele>1583.0</ele>
  <time>2026-08-28T17:52:11Z</time>
  <course>248.41</course>
  <speed>0.0</speed>
  <fix>3d</fix>
</trkpt>
<trkpt lat="40.0713749" lon="-105.229789">
  <ele>1583.0</ele>
  <time>2026-08-28T17:52:11Z</time>
  <course>0.0</course>
  <speed>0.0</speed>
  <fix>3d</fix>
</trkpt>
<trkpt lat="40.0713749" lon="-105.229789">
  <ele>1583.0</ele>
  <time>2026-08-28T17:52:11Z</time>
  <course>248.41</course>
  <speed>0.0</speed>
  <fix>3d</fix>
</trkpt>
<trkpt lat="40.0713749" lon="-105.229789">
  <ele>1583.0</ele>
  <time>2026-08-28T17:52:11Z</time>
  <course>0.0</course>
  <speed>0.0</speed>
  <fix>3d</fix>
</trkpt>
<trkpt lat="40.0713749" lon="-105.229789">
  <ele>1583.0</ele>
  <time>2026-08-28T17:52:11Z</time>
  <course>248.41</course>
  <speed>0.0</speed>
  <fix>3d</fix>
</trkpt>
<trkpt lat="40.0713749" lon="-105.229789">
  <ele>1583.0</ele>
  <time>2026-08-28T17:52:11Z</time>
  <course>0.0</course>
  <speed>0.0</speed>
  <fix>3d</fix>
</trkpt>
<trkpt lat="40.0713749" lon="-105.229789">
  <ele>1583.0</ele>
  <time>2026-08-28T17:52:11Z</time>
  <course>248.41</course>
  <speed>0.0</speed>
  <fix>3d</fix>
</trkpt>
<trkpt lat="40.0713749" lon="-105.229789">
  <ele>1583.0</ele>
  <time>2026-08-28T17:52:11Z</time>
  <course>0.0</course>
  <speed>0.0</speed>
  <fix>3d</fix>
</trkpt>
<trkpt lat="40.0713749" lon="-105.229789">
  <ele>1583.0</ele>
  <time>2026-08-28T17:52:11Z</time>
  <course>248.41</course>
  <speed>0.0</speed>
  <fix>3d</fix>
</trkpt>
<trkpt lat="40.0713749" lon="-105.229789">
  <ele>1583.0</ele>
  <time>2026-08-28T17:52:11Z</time>
  <course>0.0</course>
  <speed>0.0</speed>
  <fix>3d</fix>
</trkpt>
<trkpt lat="40.0713749" lon="-105.229789">
  <ele>1583.0</ele>
  <time>2026-08-28T17:52:11Z</time>
  <course>248.41</course>
  <speed>0.0</speed>
  <fix>3d</fix>
</trkpt>
<trkpt lat="40.0713749" lon="-105.229789">
  <ele>1583.0</ele>
  <time>2026-08-28T17:52:11Z</time>
  <course>0.0</course>
  <speed>0.0</speed>
  <fix>3d</fix>
</trkpt>
<trkpt lat="40.0713749" lon="-105.229789">
  <ele>1583.0</ele>
  <time>2026-08-28T17:52:11Z</time>
  <course>248.41</course>
  <speed>0.0</speed>
  <fix>3d</fix>
</trkpt>
<trkpt lat="40.0713749" lon="-105.229789">
  <ele>1583.0</ele>
  <time>2026-08-28T17:52:11Z</time>
  <course>0.0</course>
  <speed>0.0</speed>
  <fix>3d</fix>
</trkpt>
<trkpt lat="40.0713749" lon="-105.229789">
  <ele>1583.0</ele>
  <time>2026-08-28T17:52:11Z</time>
  <course>248.41</course>
  <speed>0.0</speed>
  <fix>3d</fix>
</trkpt>
<trkpt lat="40.0713749" lon="-105.229789">
  <ele>1583.0</ele>
  <time>2026-08-28T17:52:11Z</time>
  <course>0.0</course>
  <speed>0.0</speed>
  <fix>3d</fix>
</trkpt>
<trkpt lat="40.0713749" lon="-105.229789">
  <ele>1583.0</ele>
  <time>2026-08-28T17:52:11Z</time>
  <course>248.41</course>
  <speed>0.0</speed>
  <fix>3d</fix>
</trkpt>
<trkpt lat="40.0713749" lon="-105.229789">
  <ele>1583.0</ele>
  <time>2026-08-28T17:52:11Z</time>
  <course>0.0</course>
  <speed>0.0</speed>
  <fix>3d</fix>
</trkpt>
<trkpt lat="40.0713749" lon="-105.229789">
  <ele>1583.0</ele>
  <time>2026-08-28T17:52:11Z</time>
  <course>248.41</course>
  <speed>0.01</speed>
  <fix>3d</fix>
</trkpt>
<trkpt lat="40.0713749" lon="-105.229789">
  <ele>1583.0</ele>
  <time>2026-08-28T17:52:11Z</time>
  <course>0.0</course>
  <speed>0.0</speed>
  <fix>3d</fix>
</trkpt>
<trkpt lat="40.0713749" lon="-105.229789">
  <ele>1583.0</ele>
  <time>2026-08-28T17:52:11Z</time>
  <course>248.4</course>
  <speed>0.01</speed>
  <fix>3d</fix>
</trkpt>
<trkpt lat="40.0713749" lon="-105.229789">
  <ele>1583.0</ele>
  <time>2026-08-28T17:52:11Z</time>
  <course>0.0</course>
  <speed>0.0</speed>
  <fix>3d</fix>
</trkpt>
<trkpt lat="40.0713749" lon="-105.229789">
  <ele>1583.0</ele>
  <time>2026-08-28T17:52:11Z</time>
  <course>248.4</course>
  <speed>0.01</speed>
  <fix>3d</fix>
</trkpt>
<trkpt lat="40.0713749" lon="-105.229789">
  <ele>1583.0</ele>
  <time>2026-08-28T17:52:11Z</time>
  <course>0.0</course>
  <speed>0.0</speed>
  <fix>3d</fix>
</trkpt>
<trkpt lat="40.0713749" lon="-105.229789">
  <ele>1583.0</ele>
  <time>2026-08-28T17:52:11Z</time>
  <course>248.4</course>
  <speed>0.01</speed>
  <fix>3d</fix>
</trkpt>
<trkpt lat="40.0713749" lon="-105.229789">
  <ele>1583.0</ele>
  <time>2026-08-28T17:52:11Z</time>
  <course>0.0</course>
  <speed>0.0</speed>
  <fix>3d</fix>
</trkpt>
<trkpt lat="40.0713749" lon="-105.229789">
  <ele>1583.0</ele>
  <time>2026-08-28T17:52:11Z</time>
  <course>248.4</course>
  <speed>0.01</speed>
  <fix>3d</fix>
</trkpt>
<trkpt lat="40.0713749" lon="-105.229789">
  <ele>1583.0</ele>
  <time>2026-08-28T17:52:11Z</time>
  <course>0.0</course>
  <speed>0.0</speed>
  <fix>3d</fix>
</trkpt>
<trkpt lat="40.0713749" lon="-105.229789">
  <ele>1583.0</ele>
  <time>2026-08-28T17:52:11Z</time>
  <course>248.39</course>
  <speed>0.01</speed>
  <fix>3d</fix>
</trkpt>
<trkpt lat="40.0713749" lon="-105.229789">
  <ele>1583.0</ele>
  <time>2026-08-28T17:52:11Z</time>
  <course>0.0</course>
  <speed>0.0</speed>
  <fix>3d</fix>
</trkpt>
<trkpt lat="40.0713749" lon="-105.229789">
  <ele>1583.0</ele>
  <time>2026-08-28T17:52:11Z</time>
  <course>248.39</course>
  <speed>0.01</speed>
  <fix>3d</fix>
</trkpt>
<trkpt lat="40.0713749" lon="-105.229789">
  <ele>1583.0</ele>
  <time>2026-08-28T17:52:11Z</time>
  <course>0.0</course>
  <speed>0.0</speed>
  <fix>3d</fix>
</trkpt>
<trkpt lat="40.0713749" lon="-105.229789">
  <ele>1583.0</ele>
  <time>2026-08-28T17:52:11Z</time>
  <course>248.39</course>
  <speed>0.01</speed>
  <fix>3d</fix>
</trkpt>
<trkpt lat="40.0713749" lon="-105.229789">
  <ele>1583.0</ele>
  <time>2026-08-28T17:52:11Z</time>
  <course>0.0</course>
  <speed>0.0</speed>
  <fix>3d</fix>
</trkpt>
<trkpt lat="40.0713749" lon="-105.229789">
  <ele>1583.0</ele>
  <time>2026-08-28T17:52:11Z</time>
  <course>248.39</course>
  <speed>0.01</speed>
  <fix>3d</fix>
</trkpt>
<trkpt lat="40.0713749" lon="-105.229789">
  <ele>1583.0</ele>
  <time>2026-08-28T17:52:11Z</time>
  <course>0.0</course>
  <speed>0.0</speed>
  <fix>3d</fix>
</trkpt>
<trkpt lat="40.0713749" lon="-105.229789">
  <ele>1583.0</ele>
  <time>2026-08-28T17:52:11Z</time>
  <course>248.38</course>
  <speed>0.01</speed>
  <fix>3d</fix>
</trkpt>
<trkpt lat="40.0713749" lon="-105.229789">
  <ele>1583.0</ele>
  <time>2026-08-28T17:52:11Z</time>
  <course>0.0</course>
  <speed>0.0</speed>
  <fix>3d</fix>
</trkpt>
<trkpt lat="40.0713749" lon="-105.229789">
  <ele>1583.0</ele>
  <time>2026-08-28T17:52:11Z</time>
  <course>248.38</course>
  <speed>0.01</speed>
  <fix>3d</fix>
</trkpt>
<trkpt lat="40.0713749" lon="-105.229789">
  <ele>1583.0</ele>
  <time>2026-08-28T17:52:11Z</time>
  <course>0.0</course>
  <speed>0.0</speed>
  <fix>3d</fix>
</trkpt>
<trkpt lat="40.0713749" lon="-105.229789">
  <ele>1583.0</ele>
  <time>2026-08-28T17:52:11Z</time>
  <course>248.38</course>
  <speed>0.01</speed>
  <fix>3d</fix>
</trkpt>
<trkpt lat="40.0713749" lon="-105.229789">
  <ele>1583.0</ele>
  <time>2026-08-28T17:52:11Z</time>
  <course>0.0</course>
  <speed>0.0</speed>
  <fix>3d</fix>
</trkpt>
<trkpt lat="40.0713749" lon="-105.229789">
  <ele>1583.0</ele>
  <time>2026-08-28T17:52:11Z</time>
  <course>248.37</course>
  <speed>0.01</speed>
  <fix>3d</fix>
</trkpt>
<trkpt lat="40.0713749" lon="-105.229789">
  <ele>1583.0</ele>
  <time>2026-08-28T17:52:11Z</time>
  <course>0.0</course>
  <speed>0.0</speed>
  <fix>3d</fix>
</trkpt>
<trkpt lat="40.0713749" lon="-105.229789">
  <ele>1583.0</ele>
  <time>2026-08-28T17:52:11Z</time>
  <course>248.37</course>
  <speed>0.01</speed>
  <fix>3d</fix>
</trkpt>
<trkpt lat="40.0713749" lon="-105.229789">
  <ele>1583.0</ele>
  <time>2026-08-28T17:52:11Z</time>
  <course>0.0</course>
  <speed>0.0</speed>
  <fix>3d</fix>
</trkpt>
<trkpt lat="40.0713749" lon="-105.229789">
  <ele>1583.0</ele>
  <time>2026-08-28T17:52:11Z</time>
  <course>248.37</course>
  <speed>0.01</speed>
  <fix>3d</fix>
</trkpt>
<trkpt lat="40.0713749" lon="-105.229789">
  <ele>1583.0</ele>
  <time>2026-08-28T17:52:11Z</time>
  <course>0.0</course>
  <speed>0.0</speed>
  <fix>3d</fix>
</trkpt>
<trkpt lat="40.0713749" lon="-105.229789">
  <ele>1583.0</ele>
  <time>2026-08-28T17:52:11Z</time>
  <course>248.36</course>
  <speed>0.01</speed>
  <fix>3d</fix>
</trkpt>
<trkpt lat="40.0713749" lon="-105.229789">
  <ele>1583.0</ele>
  <time>2026-08-28T17:52:11Z</time>
  <course>0.0</course>
  <speed>0.0</speed>
  <fix>3d</fix>
</trkpt>
<trkpt lat="40.0713749" lon="-105.229789">
  <ele>1583.0</ele>
  <time>2026-08-28T17:52:11Z</time>
  <course>248.36</course>
  <speed>0.01</speed>
  <fix>3d</fix>
</trkpt>
<trkpt lat="40.0713749" lon="-105.229789">
  <ele>1583.0</ele>
  <time>2026-08-28T17:52:11Z</time>
  <course>0.0</course>
  <speed>0.0</speed>
  <fix>3d</fix>
</trkpt>
<trkpt lat="40.0713749" lon="-105.229789">
  <ele>1583.0</ele>
  <time>2026-08-28T17:52:11Z</time>
  <course>248.36</course>
  <speed>0.01</speed>
  <fix>3d</fix>
</trkpt>
<trkpt lat="40.0713749" lon="-105.229789">
  <ele>1583.0</ele>
  <time>2026-08-28T17:52:11Z</time>
  <course>0.0</course>
  <speed>0.0</speed>
  <fix>3d</fix>
</trkpt>
<trkpt lat="40.0713749" lon="-105.229789">
  <ele>1583.0</ele>
  <time>2026-08-28T17:52:11Z</time>
  <course>248.35</course>
  <speed>0.01</speed>
  <fix>3d</fix>
</trkpt>
<trkpt lat="40.0713749" lon="-105.229789">
  <ele>1583.0</ele>
  <time>2026-08-28T17:52:11Z</time>
  <course>0.0</course>
  <speed>0.0</speed>
  <fix>3d</fix>
</trkpt>
<trkpt lat="40.0713749" lon="-105.229789">
  <ele>1583.0</ele>
  <time>2026-08-28T17:52:11Z</time>
  <course>248.35</course>
  <speed>0.01</speed>
  <fix>3d</fix>
</trkpt>
<trkpt lat="40.0713749" lon="-105.229789">
  <ele>1583.0</ele>
  <time>2026-08-28T17:52:11Z</time>
  <course>0.0</course>
  <speed>0.0</speed>
  <fix>3d</fix>
</trkpt>
<trkpt lat="40.0713749" lon="-105.229789">
  <ele>1583.0</ele>
  <time>2026-08-28T17:52:11Z</time>
  <course>248.35</course>
  <speed>0.01</speed>
  <fix>3d</fix>
</trkpt>
<trkpt lat="40.0713749" lon="-105.229789">
  <ele>1583.0</ele>
  <time>2026-08-28T17:52:11Z</time>
  <course>0.0</course>
  <speed>0.0</speed>
  <fix>3d</fix>
</trkpt>
<trkpt lat="40.0713749" lon="-105.229789">
  <ele>1583.0</ele>
  <time>2026-08-28T17:52:11Z</time>
  <course>248.34</course>
  <speed>0.01</speed>
  <fix>3d</fix>
</trkpt>
<trkpt lat="40.0713749" lon="-105.229789">
  <ele>1583.0</ele>
  <time>2026-08-28T17:52:11Z</time>
  <course>0.0</course>
  <speed>0.0</speed>
  <fix>3d</fix>
</trkpt>
<trkpt lat="40.0713749" lon="-105.229789">
  <ele>1583.0</ele>
  <time>2026-08-28T17:52:11Z</time>
  <course>248.34</course>
  <speed>0.01</speed>
  <fix>3d</fix>
</trkpt>
<trkpt lat="40.0713749" lon="-105.229789">
  <ele>1583.0</ele>
  <time>2026-08-28T17:52:11Z</time>
  <course>0.0</course>
  <speed>0.0</speed>
  <fix>3d</fix>
</trkpt>
<trkpt lat="40.0713749" lon="-105.229789">
  <ele>1583.0</ele>
  <time>2026-08-28T17:52:11Z</time>
  <course>248.33</course>
  <speed>0.01</speed>
  <fix>3d</fix>
</trkpt>
<trkpt lat="40.0713749" lon="-105.229789">
  <ele>1583.0</ele>
  <time>2026-08-28T17:52:11Z</time>
  <course>0.0</course>
  <speed>0.0</speed>
  <fix>3d</fix>
</trkpt>
<trkpt lat="40.0713749" lon="-105.229789">
  <ele>1583.0</ele>
  <time>2026-08-28T17:52:11Z</time>
  <course>248.33</course>
  <speed>0.01</speed>
  <fix>3d</fix>
</trkpt>
<trkpt lat="40.0713749" lon="-105.229789">
  <ele>1583.0</ele>
  <time>2026-08-28T17:52:11Z</time>
  <course>0.0</course>
  <speed>0.0</speed>
  <fix>3d</fix>
</trkpt>
<trkpt lat="40.0713749" lon="-105.229789">
  <ele>1583.0</ele>
  <time>2026-08-28T17:52:11Z</time>
  <course>248.33</course>
  <speed>0.01</speed>
  <fix>3d</fix>
</trkpt>
<trkpt lat="40.0713749" lon="-105.229789">
  <ele>1583.0</ele>
  <time>2026-08-28T17:52:11Z</time>
  <course>0.0</course>
  <speed>0.0</speed>
  <fix>3d</fix>
</trkpt>
<trkpt lat="40.0713749" lon="-105.229789">
  <ele>1583.0</ele>
  <time>2026-08-28T17:52:11Z</time>
  <course>248.32</course>
  <speed>0.01</speed>
  <fix>3d</fix>
</trkpt>
<trkpt lat="40.0713749" lon="-105.229789">
  <ele>1583.0</ele>
  <time>2026-08-28T17:52:11Z</time>
  <course>0.0</course>
  <speed>0.0</speed>
  <fix>3d</fix>
</trkpt>
<trkpt lat="40.0713749" lon="-105.229789">
  <ele>1583.0</ele>
  <time>2026-08-28T17:52:11Z</time>
  <course>248.32</course>
  <speed>0.01</speed>
  <fix>3d</fix>
</trkpt>
<trkpt lat="40.0713749" lon="-105.229789">
  <ele>1583.0</ele>
  <time>2026-08-28T17:52:11Z</time>
  <course>0.0</course>
  <speed>0.0</speed>
  <fix>3d</fix>
</trkpt>
<trkpt lat="40.0713749" lon="-105.229789">
  <ele>1583.0</ele>
  <time>2026-08-28T17:52:11Z</time>
  <course>248.31</course>
  <speed>0.01</speed>
  <fix>3d</fix>
</trkpt>
<trkpt lat="40.0713749" lon="-105.229789">
  <ele>1583.0</ele>
  <time>2026-08-28T17:52:11Z</time>
  <course>0.0</course>
  <speed>0.0</speed>
  <fix>3d</fix>
</trkpt>
<trkpt lat="40.0713749" lon="-105.229789">
  <ele>1583.0</ele>
  <time>2026-08-28T17:52:11Z</time>
  <course>248.31</course>
  <speed>0.01</speed>
  <fix>3d</fix>
</trkpt>
<trkpt lat="40.0713749" lon="-105.229789">
  <ele>1583.0</ele>
  <time>2026-08-28T17:52:11Z</time>
  <course>0.0</course>
  <speed>0.0</speed>
  <fix>3d</fix>
</trkpt>
<trkpt lat="40.0713749" lon="-105.229789">
  <ele>1583.0</ele>
  <time>2026-08-28T17:52:11Z</time>
  <course>248.3</course>
  <speed>0.01</speed>
  <fix>3d</fix>
</trkpt>
<trkpt lat="40.0713749" lon="-105.229789">
  <ele>1583.0</ele>
  <time>2026-08-28T17:52:11Z</time>
  <course>0.0</course>
  <speed>0.0</speed>
  <fix>3d</fix>
</trkpt>
<trkpt lat="40.0713749" lon="-105.229789">
  <ele>1583.0</ele>
  <time>2026-08-28T17:52:11Z</time>
  <course>248.3</course>
  <speed>0.01</speed>
  <fix>3d</fix>
</trkpt>
<trkpt lat="40.0713749" lon="-105.229789">
  <ele>1583.0</ele>
  <time>2026-08-28T17:52:11Z</time>
  <course>0.0</course>
  <speed>0.0</speed>
  <fix>3d</fix>
</trkpt>
<trkpt lat="40.0713749" lon="-105.229789">
  <ele>1583.0</ele>
  <time>2026-08-28T17:52:11Z</time>
  <course>248.29</course>
  <speed>0.01</speed>
  <fix>3d</fix>
</trkpt>
<trkpt lat="40.0713749" lon="-105.229789">
  <ele>1583.0</ele>
  <time>2026-08-28T17:52:11Z</time>
  <course>0.0</course>
  <speed>0.0</speed>
  <fix>3d</fix>
</trkpt>
<trkpt lat="40.0713749" lon="-105.229789">
  <ele>1583.0</ele>
  <time>2026-08-28T17:52:11Z</time>
  <course>248.29</course>
  <speed>0.01</speed>
  <fix>3d</fix>
</trkpt>
<trkpt lat="40.0713749" lon="-105.229789">
  <ele>1583.0</ele>
  <time>2026-08-28T17:52:11Z</time>
  <course>0.0</course>
  <speed>0.0</speed>
  <fix>3d</fix>
</trkpt>
<trkpt lat="40.0713749" lon="-105.229789">
  <ele>1583.0</ele>
  <time>2026-08-28T17:52:11Z</time>
  <course>248.29</course>
  <speed>0.01</speed>
  <fix>3d</fix>
</trkpt>
<trkpt lat="40.0713749" lon="-105.229789">
  <ele>1583.0</ele>
  <time>2026-08-28T17:52:11Z</time>
  <course>0.0</course>
  <speed>0.0</speed>
  <fix>3d</fix>
</trkpt>
<trkpt lat="40.0713749" lon="-105.229789">
  <ele>1583.0</ele>
  <time>2026-08-28T17:52:11Z</time>
  <course>248.28</course>
  <speed>0.01</speed>
  <fix>3d</fix>
</trkpt>
<trkpt lat="40.0713749" lon="-105.229789">
  <ele>1583.0</ele>
  <time>2026-08-28T17:52:11Z</time>
  <course>0.0</course>
  <speed>0.0</speed>
  <fix>3d</fix>
</trkpt>
<trkpt lat="40.0713749" lon="-105.229789">
  <ele>1583.0</ele>
  <time>2026-08-28T17:52:11Z</time>
  <course>248.28</course>
  <speed>0.01</speed>
  <fix>3d</fix>
</trkpt>
<trkpt lat="40.0713749" lon="-105.229789">
  <ele>1583.0</ele>
  <time>2026-08-28T17:52:11Z</time>
  <course>0.0</course>
  <speed>0.0</speed>
  <fix>3d</fix>
</trkpt>
<trkpt lat="40.0713749" lon="-105.229789">
  <ele>1583.0</ele>
  <time>2026-08-28T17:52:11Z</time>
  <course>248.27</course>
  <speed>0.01</speed>
  <fix>3d</fix>
</trkpt>
<trkpt lat="40.0713749" lon="-105.229789">
  <ele>1583.0</ele>
  <time>2026-08-28T17:52:11Z</time>
  <course>0.0</course>
  <speed>0.0</speed>
  <fix>3d</fix>
</trkpt>
<trkpt lat="40.0713749" lon="-105.229789">
  <ele>1583.0</ele>
  <time>2026-08-28T17:52:11Z</time>
  <course>248.27</course>
  <speed>0.01</speed>
  <fix>3d</fix>
</trkpt>
<trkpt lat="40.0713749" lon="-105.229789">
  <ele>1583.0</ele>
  <time>2026-08-28T17:52:11Z</time>
  <course>0.0</course>
  <speed>0.0</speed>
  <fix>3d</fix>
</trkpt>
<trkpt lat="40.0713749" lon="-105.229789">
  <ele>1583.0</ele>
  <time>2026-08-28T17:52:11Z</time>
  <course>248.26</course>
  <speed>0.01</speed>
  <fix>3d</fix>
</trkpt>
<trkpt lat="40.0713749" lon="-105.229789">
  <ele>1583.0</ele>
  <time>2026-08-28T17:52:11Z</time>
  <course>0.0</course>
  <speed>0.0</speed>
  <fix>3d</fix>
</trkpt>
<trkpt lat="40.0713749" lon="-105.229789">
  <ele>1583.0</ele>
  <time>2026-08-28T17:52:11Z</time>
  <course>248.26</course>
  <speed>0.01</speed>
  <fix>3d</fix>
</trkpt>
<trkpt lat="40.0713749" lon="-105.229789">
  <ele>1583.0</ele>
  <time>2026-08-28T17:52:11Z</time>
  <course>0.0</course>
  <speed>0.0</speed>
  <fix>3d</fix>
</trkpt>
<trkpt lat="40.0713749" lon="-105.229789">
  <ele>1583.0</ele>
  <time>2026-08-28T17:52:11Z</time>
  <course>248.25</course>
  <speed>0.01</speed>
  <fix>3d</fix>
</trkpt>
<trkpt lat="40.0713749" lon="-105.229789">
  <ele>1583.0</ele>
  <time>2026-08-28T17:52:11Z</time>
  <course>0.0</course>
  <speed>0.0</speed>
  <fix>3d</fix>
</trkpt>
<trkpt lat="40.0713749" lon="-105.229789">
  <ele>1583.0</ele>
  <time>2026-08-28T17:52:11Z</time>
  <course>248.25</course>
  <speed>0.01</speed>
  <fix>3d</fix>
</trkpt>
<trkpt lat="40.0713749" lon="-105.229789">
  <ele>1583.0</ele>
  <time>2026-08-28T17:52:11Z</time>
  <course>0.0</course>
  <speed>0.0</speed>
  <fix>3d</fix>
</trkpt>
<trkpt lat="40.0713749" lon="-105.229789">
  <ele>1583.0</ele>
  <time>2026-08-28T17:52:11Z</time>
  <course>248.24</course>
  <speed>0.01</speed>
  <fix>3d</fix>
</trkpt>
<trkpt lat="40.0713749" lon="-105.229789">
  <ele>1583.0</ele>
  <time>2026-08-28T17:52:11Z</time>
  <course>0.0</course>
  <speed>0.0</speed>
  <fix>3d</fix>
</trkpt>
<trkpt lat="40.0713749" lon="-105.229789">
  <ele>1583.0</ele>
  <time>2026-08-28T17:52:11Z</time>
  <course>248.24</course>
  <speed>0.01</speed>
  <fix>3d</fix>
</trkpt>
<trkpt lat="40.0713749" lon="-105.229789">
  <ele>1583.0</ele>
  <time>2026-08-28T17:52:11Z</time>
  <course>0.0</course>
  <speed>0.0</speed>
  <fix>3d</fix>
</trkpt>
<trkpt lat="40.0713749" lon="-105.229789">
  <ele>1583.0</ele>
  <time>2026-08-28T17:52:11Z</time>
  <course>248.23</course>
  <speed>0.01</speed>
  <fix>3d</fix>
</trkpt>
<trkpt lat="40.0713749" lon="-105.229789">
  <ele>1583.0</ele>
  <time>2026-08-28T17:52:11Z</time>
  <course>0.0</course>
  <speed>0.0</speed>
  <fix>3d</fix>
</trkpt>
<trkpt lat="40.0713749" lon="-105.229789">
  <ele>1583.0</ele>
  <time>2026-08-28T17:52:11Z</time>
  <course>248.23</course>
  <speed>0.01</speed>
  <fix>3d</fix>
</trkpt>
<trkpt lat="40.0713749" lon="-105.229789">
  <ele>1583.0</ele>
  <time>2026-08-28T17:52:11Z</time>
  <course>0.0</course>
  <speed>0.0</speed>
  <fix>3d</fix>
</trkpt>
<trkpt lat="40.0713749" lon="-105.229789">
  <ele>1583.0</ele>
  <time>2026-08-28T17:52:11Z</time>
  <course>248.22</course>
  <speed>0.01</speed>
  <fix>3d</fix>
</trkpt>
<trkpt lat="40.0713749" lon="-105.229789">
  <ele>1583.0</ele>
  <time>2026-08-28T17:52:11Z</time>
  <course>0.0</course>
  <speed>0.0</speed>
  <fix>3d</fix>
</trkpt>
<trkpt lat="40.0713749" lon="-105.229789">
  <ele>1583.0</ele>
  <time>2026-08-28T17:52:11Z</time>
  <course>248.22</course>
  <speed>0.01</speed>
  <fix>3d</fix>
</trkpt>
<trkpt lat="40.0713749" lon="-105.229789">
  <ele>1583.0</ele>
  <time>2026-08-28T17:52:11Z</time>
  <course>0.0</course>
  <speed>0.0</speed>
  <fix>3d</fix>
</trkpt>
<trkpt lat="40.0713749" lon="-105.229789">
  <ele>1583.0</ele>
  <time>2026-08-28T17:52:11Z</time>
  <course>248.21</course>
  <speed>0.01</speed>
  <fix>3d</fix>
</trkpt>
<trkpt lat="40.0713749" lon="-105.229789">
  <ele>1583.0</ele>
  <time>2026-08-28T17:52:11Z</time>
  <course>0.0</course>
  <speed>0.0</speed>
  <fix>3d</fix>
</trkpt>
<trkpt lat="40.0713749" lon="-105.229789">
  <ele>1583.0</ele>
  <time>2026-08-28T17:52:11Z</time>
  <course>248.21</course>
  <speed>0.01</speed>
  <fix>3d</fix>
</trkpt>
<trkpt lat="40.0713749" lon="-105.229789">
  <ele>1583.0</ele>
  <time>2026-08-28T17:52:11Z</time>
  <course>0.0</course>
  <speed>0.0</speed>
  <fix>3d</fix>
</trkpt>
<trkpt lat="40.0713749" lon="-105.229789">
  <ele>1583.0</ele>
  <time>2026-08-28T17:52:11Z</time>
  <course>248.2</course>
  <speed>0.01</speed>
  <fix>3d</fix>
</trkpt>
<trkpt lat="40.0713749" lon="-105.229789">
  <ele>1583.0</ele>
  <time>2026-08-28T17:52:11Z</time>
  <course>0.0</course>
  <speed>0.0</speed>
  <fix>3d</fix>
</trkpt>
<trkpt lat="40.0713749" lon="-105.229789">
  <ele>1583.0</ele>
  <time>2026-08-28T17:52:11Z</time>
  <course>248.2</course>
  <speed>0.01</speed>
  <fix>3d</fix>
</trkpt>
<trkpt lat="40.0713749" lon="-105.229789">
  <ele>1583.0</ele>
  <time>2026-08-28T17:52:11Z</time>
  <course>0.0</course>
  <speed>0.0</speed>
  <fix>3d</fix>
</trkpt>
<trkpt lat="40.0713749" lon="-105.229789">
  <ele>1583.0</ele>
  <time>2026-08-28T17:52:11Z</time>
  <course>248.19</course>
  <speed>0.01</speed>
  <fix>3d</fix>
</trkpt>
<trkpt lat="40.0713749" lon="-105.229789">
  <ele>1583.0</ele>
  <time>2026-08-28T17:52:11Z</time>
  <course>0.0</course>
  <speed>0.0</speed>
  <fix>3d</fix>
</trkpt>
<trkpt lat="40.0713749" lon="-105.229789">
  <ele>1583.0</ele>
  <time>2026-08-28T17:52:11Z</time>
  <course>248.19</course>
  <speed>0.01414213562373095</speed>
  <fix>3d</fix>
</trkpt>
<trkpt lat="40.0713749" lon="-105.229789">
  <ele>1583.0</ele>
  <time>2026-08-28T17:52:11Z</time>
  <course>0.0</course>
  <speed>0.0</speed>
  <fix>3d</fix>
</trkpt>
<trkpt lat="40.0713749" lon="-105.229789">
  <ele>1583.0</ele>
  <time>2026-08-28T17:52:11Z</time>
  <course>248.19</course>
  <speed>0.01414213562373095</speed>
  <fix>3d</fix>
</trkpt>
<trkpt lat="40.0713749" lon="-105.229789">
  <ele>1583.0</ele>
  <time>2026-08-28T17:52:11Z</time>
  <course>0.0</course>
  <speed>0.0</speed>
  <fix>3d</fix>
</trkpt>
<trkpt lat="40.0713749" lon="-105.229789">
  <ele>1583.0</ele>
  <time>2026-08-28T17:52:11Z</time>
  <course>248.18</course>
  <speed>0.01414213562373095</speed>
  <fix>3d</fix>
</trkpt>
<trkpt lat="40.0713749" lon="-105.229789">
  <ele>1583.0</ele>
  <time>2026-08-28T17:52:11Z</time>
  <course>0.0</course>
  <speed>0.0</speed>
  <fix>3d</fix>
</trkpt>
<trkpt lat="40.0713749" lon="-105.229789">
  <ele>1583.0</ele>
  <time>2026-08-28T17:52:11Z</time>
  <course>248.18</course>
  <speed>0.022360679774997897</speed>
  <fix>3d</fix>
</trkpt>
<trkpt lat="40.0713749" lon="-105.229789">
  <ele>1583.0</ele>
  <time>2026-08-28T17:52:11Z</time>
  <course>0.0</course>
  <speed>0.0</speed>
  <fix>3d</fix>
</trkpt>
<trkpt lat="40.0713749" lon="-105.229789">
  <ele>1583.0</ele>
  <time>2026-08-28T17:52:11Z</time>
  <course>248.17</course>
  <speed>0.022360679774997897</speed>
  <fix>3d</fix>
</trkpt>
<trkpt lat="40.0713749" lon="-105.229789">
  <ele>1583.0</ele>
  <time>2026-08-28T17:52:11Z</time>
  <course>0.0</course>
  <speed>0.0</speed>
  <fix>3d</fix>
</trkpt>
<trkpt lat="40.0713749" lon="-105.229789">
  <ele>1583.0</ele>
  <time>2026-08-28T17:52:11Z</time>
  <course>248.17</course>
  <speed>0.022360679774997897</speed>
  <fix>3d</fix>
</trkpt>
<trkpt lat="40.0713749" lon="-105.229789">
  <ele>1583.0</ele>
  <time>2026-08-28T17:52:11Z</time>
  <course>0.0</course>
  <speed>0.0</speed>
  <fix>3d</fix>
</trkpt>
<trkpt lat="40.0713749" lon="-105.229789">
  <ele>1583.0</ele>
  <time>2026-08-28T17:52:11Z</time>
  <course>248.16</course>
  <speed>0.022360679774997897</speed>
  <fix>3d</fix>
</trkpt>
<trkpt lat="40.0713749" lon="-105.229789">
  <ele>1583.0</ele>
  <time>2026-08-28T17:52:11Z</time>
  <course>0.0</course>
  <speed>0.0</speed>
  <fix>3d</fix>
</trkpt>
<trkpt lat="40.0713749" lon="-105.229789">
  <ele>1583.0</ele>
  <time>2026-08-28T17:52:11Z</time>
  <course>248.16</course>
  <speed>0.022360679774997897</speed>
  <fix>3d</fix>
</trkpt>
<trkpt lat="40.0713749" lon="-105.229789">
  <ele>1583.0</ele>
  <time>2026-08-28T17:52:11Z</time>
  <course>0.0</course>
  <speed>0.0</speed>
  <fix>3d</fix>
</trkpt>
<trkpt lat="40.0713749" lon="-105.229789">
  <ele>1583.0</ele>
  <time>2026-08-28T17:52:11Z</time>
  <course>248.15</course>
  <speed>0.022360679774997897</speed>
  <fix>3d</fix>
</trkpt>
<trkpt lat="40.0713749" lon="-105.229789">
  <ele>1583.0</ele>
  <time>2026-08-28T17:52:11Z</time>
  <course>0.0</course>
  <speed>0.0</speed>
  <fix>3d</fix>
</trkpt>
<trkpt lat="40.0713749" lon="-105.229789">
  <ele>1583.0</ele>
  <time>2026-08-28T17:52:11Z</time>
  <course>248.15</course>
  <speed>0.022360679774997897</speed>
  <fix>3d</fix>
</trkpt>
<trkpt lat="40.0713749" lon="-105.229789">
  <ele>1583.0</ele>
  <time>2026-08-28T17:52:11Z</time>
  <course>0.0</course>
  <speed>0.0</speed>
  <fix>3d</fix>
</trkpt>
<trkpt lat="40.0713749" lon="-105.229789">
  <ele>1583.0</ele>
  <time>2026-08-28T17:52:11Z</time>
  <course>248.14</course>
  <speed>0.022360679774997897</speed>
  <fix>3d</fix>
</trkpt>
<trkpt lat="40.0713749" lon="-105.229789">
  <ele>1583.0</ele>
  <time>2026-08-28T17:52:11Z</time>
  <course>0.0</course>
  <speed>0.0</speed>
  <fix>3d</fix>
</trkpt>
<trkpt lat="40.0713749" lon="-105.229789">
  <ele>1583.0</ele>
  <time>2026-08-28T17:52:11Z</time>
  <course>248.14</course>
  <speed>0.022360679774997897</speed>
  <fix>3d</fix>
</trkpt>
<trkpt lat="40.0713749" lon="-105.229789">
  <ele>1583.0</ele>
  <time>2026-08-28T17:52:11Z</time>
  <course>0.0</course>
  <speed>0.0</speed>
  <fix>3d</fix>
</trkpt>
<trkpt lat="40.0713749" lon="-105.229789">
  <ele>1583.0</ele>
  <time>2026-08-28T17:52:11Z</time>
  <course>248.13</course>
  <speed>0.022360679774997897</speed>
  <fix>3d</fix>
</trkpt>
<trkpt lat="40.0713749" lon="-105.229789">
  <ele>1583.0</ele>
  <time>2026-08-28T17:52:11Z</time>
  <course>0.0</course>
  <speed>0.0</speed>
  <fix>3d</fix>
</trkpt>
<trkpt lat="40.0713749" lon="-105.229789">
  <ele>1583.0</ele>
  <time>2026-08-28T17:52:11Z</time>
  <course>248.13</course>
  <speed>0.022360679774997897</speed>
  <fix>3d</fix>
</trkpt>
<trkpt lat="40.0713749" lon="-105.229789">
  <ele>1583.0</ele>
  <time>2026-08-28T17:52:11Z</time>
  <course>0.0</course>
  <speed>0.0</speed>
  <fix>3d</fix>
</trkpt>
<trkpt lat="40.0713749" lon="-105.229789">
  <ele>1583.0</ele>
  <time>2026-08-28T17:52:11Z</time>
  <course>248.12</course>
  <speed>0.022360679774997897</speed>
  <fix>3d</fix>
</trkpt>
<trkpt lat="40.0713749" lon="-105.229789">
  <ele>1583.0</ele>
  <time>2026-08-28T17:52:11Z</time>
  <course>0.0</course>
  <speed>0.0</speed>
  <fix>3d</fix>
</trkpt>
<trkpt lat="40.0713749" lon="-105.229789">
  <ele>1583.0</ele>
  <time>2026-08-28T17:52:11Z</time>
  <course>248.12</course>
  <speed>0.022360679774997897</speed>
  <fix>3d</fix>
</trkpt>
<trkpt lat="40.0713749" lon="-105.229789">
  <ele>1583.0</ele>
  <time>2026-08-28T17:52:11Z</time>
  <course>0.0</course>
  <speed>0.0</speed>
  <fix>3d</fix>
</trkpt>
<trkpt lat="40.0713749" lon="-105.229789">
  <ele>1583.0</ele>
  <time>2026-08-28T17:52:11Z</time>
  <course>248.11</course>
  <speed>0.022360679774997897</speed>
  <fix>3d</fix>
</trkpt>
<trkpt lat="40.0713749" lon="-105.229789">
  <ele>1583.0</ele>
  <time>2026-08-28T17:52:11Z</time>
  <course>0.0</course>
  <speed>0.0</speed>
  <fix>3d</fix>
</trkpt>
<trkpt lat="40.0713749" lon="-105.229789">
  <ele>1583.0</ele>
  <time>2026-08-28T17:52:11Z</time>
  <course>248.11</course>
  <speed>0.022360679774997897</speed>
  <fix>3d</fix>
</trkpt>
<trkpt lat="40.0713749" lon="-105.229789">
  <ele>1583.0</ele>
  <time>2026-08-28T17:52:11Z</time>
  <course>0.0</course>
  <speed>0.0</speed>
  <fix>3d</fix>
</trkpt>
<trkpt lat="40.0713749" lon="-105.229789">
  <ele>1583.0</ele>
  <time>2026-08-28T17:52:11Z</time>
  <course>248.1</course>
  <speed>0.022360679774997897</speed>
  <fix>3d</fix>
</trkpt>
<trkpt lat="40.0713749" lon="-105.229789">
  <ele>1583.0</ele>
  <time>2026-08-28T17:52:11Z</time>
  <course>0.0</course>
  <speed>0.0</speed>
  <fix>3d</fix>
</trkpt>
<trkpt lat="40.0713749" lon="-105.229789">
  <ele>1583.0</ele>
  <time>2026-08-28T17:52:11Z</time>
  <course>248.1</course>
  <speed>0.022360679774997897</speed>
  <fix>3d</fix>
</trkpt>
<trkpt lat="40.0713749" lon="-105.229789">
  <ele>1583.0</ele>
  <time>2026-08-28T17:52:11Z</time>
  <course>0.0</course>
  <speed>0.0</speed>
  <fix>3d</fix>
</trkpt>
<trkpt lat="40.0713749" lon="-105.229789">
  <ele>1583.0</ele>
  <time>2026-08-28T17:52:11Z</time>
  <course>248.09</course>
  <speed>0.022360679774997897</speed>
  <fix>3d</fix>
</trkpt>
<trkpt lat="40.0713749" lon="-105.229789">
  <ele>1583.0</ele>
  <time>2026-08-28T17:52:11Z</time>
  <course>0.0</course>
  <speed>0.0</speed>
  <fix>3d</fix>
</trkpt>
<trkpt lat="40.0713749" lon="-105.229789">
  <ele>1583.0</ele>
  <time>2026-08-28T17:52:11Z</time>
  <course>248.09</course>
  <speed>0.022360679774997897</speed>
  <fix>3d</fix>
</trkpt>
<trkpt lat="40.0713749" lon="-105.229789">
  <ele>1583.0</ele>
  <time>2026-08-28T17:52:11Z</time>
  <course>0.0</course>
  <speed>0.0</speed>
  <fix>3d</fix>
</trkpt>
<trkpt lat="40.0713749" lon="-105.229789">
  <ele>1583.0</ele>
  <time>2026-08-28T17:52:11Z</time>
  <course>248.08</course>
  <speed>0.022360679774997897</speed>
  <fix>3d</fix>
</trkpt>
<trkpt lat="40.0713749" lon="-105.229789">
  <ele>1583.0</ele>
  <time>2026-08-28T17:52:11Z</time>
  <course>0.0</course>
  <speed>0.0</speed>
  <fix>3d</fix>
</trkpt>
<trkpt lat="40.0713749" lon="-105.229789">
  <ele>1583.0</ele>
  <time>2026-08-28T17:52:11Z</time>
  <course>248.08</course>
  <speed>0.022360679774997897</speed>
  <fix>3d</fix>
</trkpt>
<trkpt lat="40.0713749" lon="-105.229789">
  <ele>1583.0</ele>
  <time>2026-08-28T17:52:11Z</time>
  <course>0.0</course>
  <speed>0.0</speed>
  <fix>3d</fix>
</trkpt>
<trkpt lat="40.0713749" lon="-105.229789">
  <ele>1583.0</ele>
  <time>2026-08-28T17:52:11Z</time>
  <course>248.07</course>
  <speed>0.022360679774997897</speed>
  <fix>3d</fix>
</trkpt>
<trkpt lat="40.0713749" lon="-105.229789">
  <ele>1583.0</ele>
  <time>2026-08-28T17:52:11Z</time>
  <course>0.0</course>
  <speed>0.0</speed>
  <fix>3d</fix>
</trkpt>
<trkpt lat="40.0713749" lon="-105.229789">
  <ele>1583.0</ele>
  <time>2026-08-28T17:52:11Z</time>
  <course>248.07</course>
  <speed>0.022360679774997897</speed>
  <fix>3d</fix>
</trkpt>
<trkpt lat="40.0713749" lon="-105.229789">
  <ele>1583.0</ele>
  <time>2026-08-28T17:52:11Z</time>
  <course>0.0</course>
  <speed>0.0</speed>
  <fix>3d</fix>
</trkpt>
<trkpt lat="40.0713749" lon="-105.229789">
  <ele>1583.0</ele>
  <time>2026-08-28T17:52:11Z</time>
  <course>248.06</course>
  <speed>0.022360679774997897</speed>
  <fix>3d</fix>
</trkpt>
<trkpt lat="40.0713749" lon="-105.229789">
  <ele>1583.0</ele>
  <time>2026-08-28T17:52:11Z</time>
  <course>0.0</course>
  <speed>0.0</speed>
  <fix>3d</fix>
</trkpt>
<trkpt lat="40.0713749" lon="-105.229789">
  <ele>1583.0</ele>
  <time>2026-08-28T17:52:11Z</time>
  <course>248.06</course>
  <speed>0.022360679774997897</speed>
  <fix>3d</fix>
</trkpt>
<trkpt lat="40.0713749" lon="-105.229789">
  <ele>1583.0</ele>
  <time>2026-08-28T17:52:11Z</time>
  <course>0.0</course>
  <speed>0.0</speed>
  <fix>3d</fix>
</trkpt>
<trkpt lat="40.0713749" lon="-105.229789">
  <ele>1583.0</ele>
  <time>2026-08-28T17:52:11Z</time>
  <course>248.05</course>
  <speed>0.022360679774997897</speed>
  <fix>3d</fix>
</trkpt>
<trkpt lat="40.0713749" lon="-105.229789">
  <ele>1583.0</ele>
  <time>2026-08-28T17:52:11Z</time>
  <course>0.0</course>
  <speed>0.0</speed>
  <fix>3d</fix>
</trkpt>
<trkpt lat="40.0713749" lon="-105.229789">
  <ele>1583.0</ele>
  <time>2026-08-28T17:52:11Z</time>
  <course>248.05</course>
  <speed>0.022360679774997897</speed>
  <fix>3d</fix>
</trkpt>
<trkpt lat="40.0713749" lon="-105.229789">
  <ele>1583.0</ele>
  <time>2026-08-28T17:52:11Z</time>
  <course>0.0</course>
  <speed>0.0</speed>
  <fix>3d</fix>
</trkpt>
<trkpt lat="40.0713749" lon="-105.229789">
  <ele>1583.0</ele>
  <time>2026-08-28T17:52:11Z</time>
  <course>248.05</course>
  <speed>0.022360679774997897</speed>
  <fix>3d</fix>
</trkpt>
<trkpt lat="40.0713749" lon="-105.229789">
  <ele>1583.0</ele>
  <time>2026-08-28T17:52:11Z</time>
  <course>0.0</course>
  <speed>0.0</speed>
  <fix>3d</fix>
</trkpt>
<trkpt lat="40.0713749" lon="-105.229789">
  <ele>1583.0</ele>
  <time>2026-08-28T17:52:11Z</time>
  <course>248.04</course>
  <speed>0.022360679774997897</speed>
  <fix>3d</fix>
</trkpt>
<trkpt lat="40.0713749" lon="-105.229789">
  <ele>1583.0</ele>
  <time>2026-08-28T17:52:11Z</time>
  <course>0.0</course>
  <speed>0.0</speed>
  <fix>3d</fix>
</trkpt>
<trkpt lat="40.0713749" lon="-105.229789">
  <ele>1583.0</ele>
  <time>2026-08-28T17:52:11Z</time>
  <course>248.04</course>
  <speed>0.022360679774997897</speed>
  <fix>3d</fix>
</trkpt>
<trkpt lat="40.0713749" lon="-105.229789">
  <ele>1583.0</ele>
  <time>2026-08-28T17:52:11Z</time>
  <course>0.0</course>
  <speed>0.0</speed>
  <fix>3d</fix>
</trkpt>
<trkpt lat="40.0713749" lon="-105.229789">
  <ele>1583.0</ele>
  <time>2026-08-28T17:52:11Z</time>
  <course>248.03</course>
  <speed>0.022360679774997897</speed>
  <fix>3d</fix>
</trkpt>
<trkpt lat="40.0713749" lon="-105.229789">
  <ele>1583.0</ele>
  <time>2026-08-28T17:52:11Z</time>
  <course>0.0</course>
  <speed>0.0</speed>
  <fix>3d</fix>
</trkpt>
<trkpt lat="40.0713749" lon="-105.229789">
  <ele>1583.0</ele>
  <time>2026-08-28T17:52:11Z</time>
  <course>248.03</course>
  <speed>0.022360679774997897</speed>
  <fix>3d</fix>
</trkpt>
<trkpt lat="40.0713749" lon="-105.229789">
  <ele>1583.0</ele>
  <time>2026-08-28T17:52:11Z</time>
  <course>0.0</course>
  <speed>0.0</speed>
  <fix>3d</fix>
</trkpt>
<trkpt lat="40.0713749" lon="-105.229789">
  <ele>1583.0</ele>
  <time>2026-08-28T17:52:11Z</time>
  <course>248.02</course>
  <speed>0.022360679774997897</speed>
  <fix>3d</fix>
</trkpt>
<trkpt lat="40.0713749" lon="-105.229789">
  <ele>1583.0</ele>
  <time>2026-08-28T17:52:11Z</time>
  <course>0.0</course>
  <speed>0.0</speed>
  <fix>3d</fix>
</trkpt>
<trkpt lat="40.0713749" lon="-105.229789">
  <ele>1583.0</ele>
  <time>2026-08-28T17:52:11Z</time>
  <course>248.02</course>
  <speed>0.022360679774997897</speed>
  <fix>3d</fix>
</trkpt>
<trkpt lat="40.0713749" lon="-105.229789">
  <ele>1583.0</ele>
  <time>2026-08-28T17:52:11Z</time>
  <course>0.0</course>
  <speed>0.0</speed>
  <fix>3d</fix>
</trkpt>
<trkpt lat="40.0713749" lon="-105.229789">
  <ele>1583.0</ele>
  <time>2026-08-28T17:52:11Z</time>
  <course>248.01</course>
  <speed>0.022360679774997897</speed>
  <fix>3d</fix>
</trkpt>
<trkpt lat="40.0713749" lon="-105.229789">
  <ele>1583.0</ele>
  <time>2026-08-28T17:52:11Z</time>
  <course>0.0</course>
  <speed>0.0</speed>
  <fix>3d</fix>
</trkpt>
<trkpt lat="40.0713749" lon="-105.229789">
  <ele>1583.0</ele>
  <time>2026-08-28T17:52:11Z</time>
  <course>248.01</course>
  <speed>0.022360679774997897</speed>
  <fix>3d</fix>
</trkpt>
<trkpt lat="40.0713749" lon="-105.229789">
  <ele>1583.0</ele>
  <time>2026-08-28T17:52:11Z</time>
  <course>0.0</course>
  <speed>0.0</speed>
  <fix>3d</fix>
</trkpt>
<trkpt lat="40.0713749" lon="-105.229789">
  <ele>1583.0</ele>
  <time>2026-08-28T17:52:11Z</time>
  <course>248.0</course>
  <speed>0.022360679774997897</speed>
  <fix>3d</fix>
</trkpt>
<trkpt lat="40.0713749" lon="-105.229789">
  <ele>1583.0</ele>
  <time>2026-08-28T17:52:11Z</time>
  <course>0.0</course>
  <speed>0.0</speed>
  <fix>3d</fix>
</trkpt>
<trkpt lat="40.0713749" lon="-105.229789">
  <ele>1583.0</ele>
  <time>2026-08-28T17:52:11Z</time>
  <course>248.0</course>
  <speed>0.022360679774997897</speed>
  <fix>3d</fix>
</trkpt>
<trkpt lat="40.0713749" lon="-105.229789">
  <ele>1583.0</ele>
  <time>2026-08-28T17:52:11Z</time>
  <course>0.0</course>
  <speed>0.0</speed>
  <fix>3d</fix>
</trkpt>
<trkpt lat="40.0713749" lon="-105.229789">
  <ele>1583.0</ele>
  <time>2026-08-28T17:52:11Z</time>
  <course>247.99</course>
  <speed>0.022360679774997897</speed>
  <fix>3d</fix>
</trkpt>
<trkpt lat="40.0713749" lon="-105.229789">
  <ele>1583.0</ele>
  <time>2026-08-28T17:52:11Z</time>
  <course>0.0</course>
  <speed>0.0</speed>
  <fix>3d</fix>
</trkpt>
<trkpt lat="40.0713749" lon="-105.229789">
  <ele>1583.0</ele>
  <time>2026-08-28T17:52:11Z</time>
  <course>247.99</course>
  <speed>0.022360679774997897</speed>
  <fix>3d</fix>
</trkpt>
<trkpt lat="40.0713749" lon="-105.229789">
  <ele>1583.0</ele>
  <time>2026-08-28T17:52:11Z</time>
  <course>0.0</course>
  <speed>0.0</speed>
  <fix>3d</fix>
</trkpt>
<trkpt lat="40.0713749" lon="-105.229789">
  <ele>1583.0</ele>
  <time>2026-08-28T17:52:11Z</time>
  <course>247.98</course>
  <speed>0.022360679774997897</speed>
  <fix>3d</fix>
</trkpt>
<trkpt lat="40.0713749" lon="-105.229789">
  <ele>1583.0</ele>
  <time>2026-08-28T17:52:11Z</time>
  <course>0.0</course>
  <speed>0.0</speed>
  <fix>3d</fix>
</trkpt>
<trkpt lat="40.0713749" lon="-105.229789">
  <ele>1583.0</ele>
  <time>2026-08-28T17:52:11Z</time>
  <course>247.98</course>
  <speed>0.022360679774997897</speed>
  <fix>3d</fix>
</trkpt>
<trkpt lat="40.0713749" lon="-105.229789">
  <ele>1583.0</ele>
  <time>2026-08-28T17:52:11Z</time>
  <course>0.0</course>
  <speed>0.0</speed>
  <fix>3d</fix>
</trkpt>
<trkpt lat="40.0713749" lon="-105.229789">
  <ele>1583.0</ele>
  <time>2026-08-28T17:52:11Z</time>
  <course>247.98</course>
  <speed>0.022360679774997897</speed>
  <fix>3d</fix>
</trkpt>
<trkpt lat="40.0713749" lon="-105.229789">
  <ele>1583.0</ele>
  <time>2026-08-28T17:52:11Z</time>
  <course>0.0</course>
  <speed>0.0</speed>
  <fix>3d</fix>
</trkpt>
<trkpt lat="40.0713749" lon="-105.229789">
  <ele>1583.0</ele>
  <time>2026-08-28T17:52:11Z</time>
  <course>247.97</course>
  <speed>0.022360679774997897</speed>
  <fix>3d</fix>
</trkpt>
<trkpt lat="40.0713749" lon="-105.229789">
  <ele>1583.0</ele>
  <time>2026-08-28T17:52:11Z</time>
  <course>0.0</course>
  <speed>0.0</speed>
  <fix>3d</fix>
</trkpt>
<trkpt lat="40.0713749" lon="-105.229789">
  <ele>1583.0</ele>
  <time>2026-08-28T17:52:11Z</time>
  <course>247.97</course>
  <speed>0.022360679774997897</speed>
  <fix>3d</fix>
</trkpt>
<trkpt lat="40.0713749" lon="-105.229789">
  <ele>1583.0</ele>
  <time>2026-08-28T17:52:11Z</time>
  <course>0.0</course>
  <speed>0.0</speed>
  <fix>3d</fix>
</trkpt>
<trkpt lat="40.0713749" lon="-105.229789">
  <ele>1583.0</ele>
  <time>2026-08-28T17:52:11Z</time>
  <course>247.96</course>
  <speed>0.022360679774997897</speed>
  <fix>3d</fix>
</trkpt>
<trkpt lat="40.0713749" lon="-105.229789">
  <ele>1583.0</ele>
  <time>2026-08-28T17:52:11Z</time>
  <course>0.0</course>
  <speed>0.0</speed>
  <fix>3d</fix>
</trkpt>
<trkpt lat="40.0713749" lon="-105.229789">
  <ele>1583.0</ele>
  <time>2026-08-28T17:52:11Z</time>
  <course>247.96</course>
  <speed>0.022360679774997897</speed>
  <fix>3d</fix>
</trkpt>
<trkpt lat="40.0713749" lon="-105.229789">
  <ele>1583.0</ele>
  <time>2026-08-28T17:52:11Z</time>
  <course>0.0</course>
  <speed>0.0</speed>
  <fix>3d</fix>
</trkpt>
<trkpt lat="40.0713749" lon="-105.229789">
  <ele>1583.0</ele>
  <time>2026-08-28T17:52:11Z</time>
  <course>247.95</course>
  <speed>0.022360679774997897</speed>
  <fix>3d</fix>
</trkpt>
<trkpt lat="40.0713749" lon="-105.229789">
  <ele>1583.0</ele>
  <time>2026-08-28T17:52:11Z</time>
  <course>0.0</course>
  <speed>0.0</speed>
  <fix>3d</fix>
</trkpt>
<trkpt lat="40.0713749" lon="-105.229789">
  <ele>1583.0</ele>
  <time>2026-08-28T17:52:11Z</time>
  <course>247.95</course>
  <speed>0.022360679774997897</speed>
  <fix>3d</fix>
</trkpt>
<trkpt lat="40.0713749" lon="-105.229789">
  <ele>1583.0</ele>
  <time>2026-08-28T17:52:11Z</time>
  <course>0.0</course>
  <speed>0.0</speed>
  <fix>3d</fix>
</trkpt>
<trkpt lat="40.0713749" lon="-105.229789">
  <ele>1583.0</ele>
  <time>2026-08-28T17:52:11Z</time>
  <course>247.94</course>
  <speed>0.022360679774997897</speed>
  <fix>3d</fix>
</trkpt>
<trkpt lat="40.0713749" lon="-105.229789">
  <ele>1583.0</ele>
  <time>2026-08-28T17:52:11Z</time>
  <course>0.0</course>
  <speed>0.0</speed>
  <fix>3d</fix>
</trkpt>
<trkpt lat="40.0713749" lon="-105.229789">
  <ele>1583.0</ele>
  <time>2026-08-28T17:52:11Z</time>
  <course>247.94</course>
  <speed>0.022360679774997897</speed>
  <fix>3d</fix>
</trkpt>
<trkpt lat="40.0713749" lon="-105.229789">
  <ele>1583.0</ele>
  <time>2026-08-28T17:52:11Z</time>
  <course>0.0</course>
  <speed>0.0</speed>
  <fix>3d</fix>
</trkpt>
<trkpt lat="40.0713749" lon="-105.229789">
  <ele>1583.0</ele>
  <time>2026-08-28T17:52:11Z</time>
  <course>247.94</course>
  <speed>0.022360679774997897</speed>
  <fix>3d</fix>
</trkpt>
<trkpt lat="40.0713749" lon="-105.229789">
  <ele>1583.0</ele>
  <time>2026-08-28T17:52:11Z</time>
  <course>0.0</course>
  <speed>0.0</speed>
  <fix>3d</fix>
</trkpt>
<trkpt lat="40.0713749" lon="-105.229789">
  <ele>1583.0</ele>
  <time>2026-08-28T17:52:11Z</time>
  <course>247.93</course>
  <speed>0.022360679774997897</speed>
  <fix>3d</fix>
</trkpt>
<trkpt lat="40.0713749" lon="-105.229789">
  <ele>1583.0</ele>
  <time>2026-08-28T17:52:11Z</time>
  <course>0.0</course>
  <speed>0.0</speed>
  <fix>3d</fix>
</trkpt>
<trkpt lat="40.0713749" lon="-105.229789">
  <ele>1583.0</ele>
  <time>2026-08-28T17:52:11Z</time>
  <course>247.93</course>
  <speed>0.022360679774997897</speed>
  <fix>3d</fix>
</trkpt>
<trkpt lat="40.0713749" lon="-105.229789">
  <ele>1583.0</ele>
  <time>2026-08-28T17:52:11Z</time>
  <course>0.0</course>
  <speed>0.0</speed>
  <fix>3d</fix>
</trkpt>
<trkpt lat="40.0713749" lon="-105.229789">
  <ele>1583.0</ele>
  <time>2026-08-28T17:52:11Z</time>
  <course>247.92</course>
  <speed>0.022360679774997897</speed>
  <fix>3d</fix>
</trkpt>
<trkpt lat="40.0713749" lon="-105.229789">
  <ele>1583.0</ele>
  <time>2026-08-28T17:52:11Z</time>
  <course>0.0</course>
  <speed>0.0</speed>
  <fix>3d</fix>
</trkpt>
<trkpt lat="40.0713749" lon="-105.229789">
  <ele>1583.0</ele>
  <time>2026-08-28T17:52:11Z</time>
  <course>247.92</course>
  <speed>0.022360679774997897</speed>
  <fix>3d</fix>
</trkpt>
<trkpt lat="40.0713749" lon="-105.229789">
  <ele>1583.0</ele>
  <time>2026-08-28T17:52:11Z</time>
  <course>0.0</course>
  <speed>0.0</speed>
  <fix>3d</fix>
</trkpt>
<trkpt lat="40.0713749" lon="-105.229789">
  <ele>1583.0</ele>
  <time>2026-08-28T17:52:11Z</time>
  <course>247.91</course>
  <speed>0.022360679774997897</speed>
  <fix>3d</fix>
</trkpt>
<trkpt lat="40.0713749" lon="-105.229789">
  <ele>1583.0</ele>
  <time>2026-08-28T17:52:11Z</time>
  <course>0.0</course>
  <speed>0.0</speed>
  <fix>3d</fix>
</trkpt>
<trkpt lat="40.0713749" lon="-105.229789">
  <ele>1583.0</ele>
  <time>2026-08-28T17:52:11Z</time>
  <course>247.91</course>
  <speed>0.022360679774997897</speed>
  <fix>3d</fix>
</trkpt>
<trkpt lat="40.0713749" lon="-105.229789">
  <ele>1583.0</ele>
  <time>2026-08-28T17:52:11Z</time>
  <course>0.0</course>
  <speed>0.0</speed>
  <fix>3d</fix>
</trkpt>
<trkpt lat="40.0713749" lon="-105.229789">
  <ele>1583.0</ele>
  <time>2026-08-28T17:52:11Z</time>
  <course>247.91</course>
  <speed>0.022360679774997897</speed>
  <fix>3d</fix>
</trkpt>
<trkpt lat="40.0713749" lon="-105.229789">
  <ele>1583.0</ele>
  <time>2026-08-28T17:52:11Z</time>
  <course>0.0</course>
  <speed>0.0</speed>
  <fix>3d</fix>
</trkpt>
<trkpt lat="40.0713749" lon="-105.229789">
  <ele>1583.0</ele>
  <time>2026-08-28T17:52:11Z</time>
  <course>247.9</course>
  <speed>0.022360679774997897</speed>
  <fix>3d</fix>
</trkpt>
<trkpt lat="40.0713749" lon="-105.229789">
  <ele>1583.0</ele>
  <time>2026-08-28T17:52:11Z</time>
  <course>0.0</course>
  <speed>0.0</speed>
  <fix>3d</fix>
</trkpt>
<trkpt lat="40.0713749" lon="-105.229789">
  <ele>1583.0</ele>
  <time>2026-08-28T17:52:11Z</time>
  <course>247.9</course>
  <speed>0.022360679774997897</speed>
  <fix>3d</fix>
</trkpt>
<trkpt lat="40.0713749" lon="-105.229789">
  <ele>1583.0</ele>
  <time>2026-08-28T17:52:11Z</time>
  <course>0.0</course>
  <speed>0.0</speed>
  <fix>3d</fix>
</trkpt>
<trkpt lat="40.0713749" lon="-105.229789">
  <ele>1583.0</ele>
  <time>2026-08-28T17:52:11Z</time>
  <course>247.89</course>
  <speed>0.022360679774997897</speed>
  <fix>3d</fix>
</trkpt>
<trkpt lat="40.0713749" lon="-105.229789">
  <ele>1583.0</ele>
  <time>2026-08-28T17:52:11Z</time>
  <course>0.0</course>
  <speed>0.0</speed>
  <fix>3d</fix>
</trkpt>
<trkpt lat="40.0713749" lon="-105.229789">
  <ele>1583.0</ele>
  <time>2026-08-28T17:52:11Z</time>
  <course>247.89</course>
  <speed>0.022360679774997897</speed>
  <fix>3d</fix>
</trkpt>
<trkpt lat="40.0713749" lon="-105.229789">
  <ele>1583.0</ele>
  <time>2026-08-28T17:52:11Z</time>
  <course>0.0</course>
  <speed>0.0</speed>
  <fix>3d</fix>
</trkpt>
<trkpt lat="40.0713749" lon="-105.229789">
  <ele>1583.0</ele>
  <time>2026-08-28T17:52:11Z</time>
  <course>247.89</course>
  <speed>0.022360679774997897</speed>
  <fix>3d</fix>
</trkpt>
<trkpt lat="40.0713749" lon="-105.229789">
  <ele>1583.0</ele>
  <time>2026-08-28T17:52:11Z</time>
  <course>0.0</course>
  <speed>0.0</speed>
  <fix>3d</fix>
</trkpt>
<trkpt lat="40.0713749" lon="-105.229789">
  <ele>1583.0</ele>
  <time>2026-08-28T17:52:11Z</time>
  <course>247.88</course>
  <speed>0.022360679774997897</speed>
  <fix>3d</fix>
</trkpt>
<trkpt lat="40.0713749" lon="-105.229789">
  <ele>1583.0</ele>
  <time>2026-08-28T17:52:11Z</time>
  <course>0.0</course>
  <speed>0.0</speed>
  <fix>3d</fix>
</trkpt>
<trkpt lat="40.0713749" lon="-105.229789">
  <ele>1583.0</ele>
  <time>2026-08-28T17:52:11Z</time>
  <course>247.88</course>
  <speed>0.022360679774997897</speed>
  <fix>3d</fix>
</trkpt>
<trkpt lat="40.0713749" lon="-105.229789">
  <ele>1583.0</ele>
  <time>2026-08-28T17:52:11Z</time>
  <course>0.0</course>
  <speed>0.0</speed>
  <fix>3d</fix>
</trkpt>
<trkpt lat="40.0713749" lon="-105.229789">
  <ele>1583.0</ele>
  <time>2026-08-28T17:52:11Z</time>
  <course>247.87</course>
  <speed>0.0316227766016838</speed>
  <fix>3d</fix>
</trkpt>
<trkpt lat="40.0713749" lon="-105.229789">
  <ele>1583.0</ele>
  <time>2026-08-28T17:52:11Z</time>
  <course>0.0</course>
  <speed>0.0</speed>
  <fix>3d</fix>
</trkpt>
<trkpt lat="40.0713749" lon="-105.229789">
  <ele>1583.0</ele>
  <time>2026-08-28T17:52:11Z</time>
  <course>247.87</course>
  <speed>0.0316227766016838</speed>
  <fix>3d</fix>
</trkpt>
<trkpt lat="40.0713749" lon="-105.229789">
  <ele>1583.0</ele>
  <time>2026-08-28T17:52:11Z</time>
  <course>0.0</course>
  <speed>0.0</speed>
  <fix>3d</fix>
</trkpt>
<trkpt lat="40.0713749" lon="-105.229789">
  <ele>1583.0</ele>
  <time>2026-08-28T17:52:11Z</time>
  <course>247.87</course>
  <speed>0.0316227766016838</speed>
  <fix>3d</fix>
</trkpt>
<trkpt lat="40.0713749" lon="-105.229789">
  <ele>1583.0</ele>
  <time>2026-08-28T17:52:11Z</time>
  <course>0.0</course>
  <speed>0.0</speed>
  <fix>3d</fix>
</trkpt>
<trkpt lat="40.0713749" lon="-105.229789">
  <ele>1583.0</ele>
  <time>2026-08-28T17:52:11Z</time>
  <course>247.86</course>
  <speed>0.0316227766016838</speed>
  <fix>3d</fix>
</trkpt>
<trkpt lat="40.0713749" lon="-105.229789">
  <ele>1583.0</ele>
  <time>2026-08-28T17:52:11Z</time>
  <course>0.0</course>
  <speed>0.0</speed>
  <fix>3d</fix>
</trkpt>
<trkpt lat="40.0713749" lon="-105.229789">
  <ele>1583.0</ele>
  <time>2026-08-28T17:52:11Z</time>
  <course>247.86</course>
  <speed>0.0316227766016838</speed>
  <fix>3d</fix>
</trkpt>
<trkpt lat="40.0713749" lon="-105.229789">
  <ele>1583.0</ele>
  <time>2026-08-28T17:52:11Z</time>
  <course>0.0</course>
  <speed>0.0</speed>
  <fix>3d</fix>
</trkpt>
<trkpt lat="40.0713749" lon="-105.229789">
  <ele>1583.0</ele>
  <time>2026-08-28T17:52:11Z</time>
  <course>247.85</course>
  <speed>0.0316227766016838</speed>
  <fix>3d</fix>
</trkpt>
<trkpt lat="40.0713749" lon="-105.229789">
  <ele>1583.0</ele>
  <time>2026-08-28T17:52:11Z</time>
  <course>0.0</course>
  <speed>0.0</speed>
  <fix>3d</fix>
</trkpt>
<trkpt lat="40.0713749" lon="-105.229789">
  <ele>1583.0</ele>
  <time>2026-08-28T17:52:11Z</time>
  <course>247.85</course>
  <speed>0.0316227766016838</speed>
  <fix>3d</fix>
</trkpt>
<trkpt lat="40.0713749" lon="-105.229789">
  <ele>1583.0</ele>
  <time>2026-08-28T17:52:11Z</time>
  <course>0.0</course>
  <speed>0.0</speed>
  <fix>3d</fix>
</trkpt>
<trkpt lat="40.0713749" lon="-105.229789">
  <ele>1583.0</ele>
  <time>2026-08-28T17:52:11Z</time>
  <course>247.84</course>
  <speed>0.0316227766016838</speed>
  <fix>3d</fix>
</trkpt>
<trkpt lat="40.0713749" lon="-105.229789">
  <ele>1583.0</ele>
  <time>2026-08-28T17:52:11Z</time>
  <course>0.0</course>
  <speed>0.0</speed>
  <fix>3d</fix>
</trkpt>
<trkpt lat="40.0713749" lon="-105.229789">
  <ele>1583.0</ele>
  <time>2026-08-28T17:52:11Z</time>
  <course>247.84</course>
  <speed>0.0316227766016838</speed>
  <fix>3d</fix>
</trkpt>
<trkpt lat="40.0713749" lon="-105.229789">
  <ele>1583.0</ele>
  <time>2026-08-28T17:52:11Z</time>
  <course>0.0</course>
  <speed>0.0</speed>
  <fix>3d</fix>
</trkpt>
<trkpt lat="40.0713749" lon="-105.229789">
  <ele>1583.0</ele>
  <time>2026-08-28T17:52:11Z</time>
  <course>247.84</course>
  <speed>0.0316227766016838</speed>
  <fix>3d</fix>
</trkpt>
<trkpt lat="40.0713749" lon="-105.229789">
  <ele>1583.0</ele>
  <time>2026-08-28T17:52:11Z</time>
  <course>0.0</course>
  <speed>0.0</speed>
  <fix>3d</fix>
</trkpt>
<trkpt lat="40.0713749" lon="-105.229789">
  <ele>1583.0</ele>
  <time>2026-08-28T17:52:11Z</time>
  <course>247.83</course>
  <speed>0.0316227766016838</speed>
  <fix>3d</fix>
</trkpt>
<trkpt lat="40.0713749" lon="-105.229789">
  <ele>1583.0</ele>
  <time>2026-08-28T17:52:11Z</time>
  <course>0.0</course>
  <speed>0.0</speed>
  <fix>3d</fix>
</trkpt>
<trkpt lat="40.0713749" lon="-105.229789">
  <ele>1583.0</ele>
  <time>2026-08-28T17:52:11Z</time>
  <course>247.83</course>
  <speed>0.0316227766016838</speed>
  <fix>3d</fix>
</trkpt>
<trkpt lat="40.0713749" lon="-105.229789">
  <ele>1583.0</ele>
  <time>2026-08-28T17:52:11Z</time>
  <course>0.0</course>
  <speed>0.0</speed>
  <fix>3d</fix>
</trkpt>
<trkpt lat="40.0713749" lon="-105.229789">
  <ele>1583.0</ele>
  <time>2026-08-28T17:52:11Z</time>
  <course>247.82</course>
  <speed>0.0316227766016838</speed>
  <fix>3d</fix>
</trkpt>
<trkpt lat="40.0713749" lon="-105.229789">
  <ele>1583.0</ele>
  <time>2026-08-28T17:52:11Z</time>
  <course>0.0</course>
  <speed>0.0</speed>
  <fix>3d</fix>
</trkpt>
<trkpt lat="40.0713749" lon="-105.229789">
  <ele>1583.0</ele>
  <time>2026-08-28T17:52:11Z</time>
  <course>247.82</course>
  <speed>0.0316227766016838</speed>
  <fix>3d</fix>
</trkpt>
<trkpt lat="40.0713749" lon="-105.229789">
  <ele>1583.0</ele>
  <time>2026-08-28T17:52:11Z</time>
  <course>0.0</course>
  <speed>0.0</speed>
  <fix>3d</fix>
</trkpt>
<trkpt lat="40.0713749" lon="-105.229789">
  <ele>1583.0</ele>
  <time>2026-08-28T17:52:11Z</time>
  <course>247.82</course>
  <speed>0.0316227766016838</speed>
  <fix>3d</fix>
</trkpt>
<trkpt lat="40.0713749" lon="-105.229789">
  <ele>1583.0</ele>
  <time>2026-08-28T17:52:11Z</time>
  <course>0.0</course>
  <speed>0.0</speed>
  <fix>3d</fix>
</trkpt>
<trkpt lat="40.0713749" lon="-105.229789">
  <ele>1583.0</ele>
  <time>2026-08-28T17:52:11Z</time>
  <course>247.81</course>
  <speed>0.0316227766016838</speed>
  <fix>3d</fix>
</trkpt>
<trkpt lat="40.0713749" lon="-105.229789">
  <ele>1583.0</ele>
  <time>2026-08-28T17:52:11Z</time>
  <course>0.0</course>
  <speed>0.0</speed>
  <fix>3d</fix>
</trkpt>
<trkpt lat="40.0713749" lon="-105.229789">
  <ele>1583.0</ele>
  <time>2026-08-28T17:52:11Z</time>
  <course>247.81</course>
  <speed>0.0316227766016838</speed>
  <fix>3d</fix>
</trkpt>
<trkpt lat="40.0713749" lon="-105.229789">
  <ele>1583.0</ele>
  <time>2026-08-28T17:52:11Z</time>
  <course>0.0</course>
  <speed>0.0</speed>
  <fix>3d</fix>
</trkpt>
<trkpt lat="40.0713749" lon="-105.229789">
  <ele>1583.0</ele>
  <time>2026-08-28T17:52:11Z</time>
  <course>247.81</course>
  <speed>0.0316227766016838</speed>
  <fix>3d</fix>
</trkpt>
<trkpt lat="40.0713749" lon="-105.229789">
  <ele>1583.0</ele>
  <time>2026-08-28T17:52:11Z</time>
  <course>0.0</course>
  <speed>0.0</speed>
  <fix>3d</fix>
</trkpt>
<trkpt lat="40.0713749" lon="-105.229789">
  <ele>1583.0</ele>
  <time>2026-08-28T17:52:11Z</time>
  <course>247.8</course>
  <speed>0.0316227766016838</speed>
  <fix>3d</fix>
</trkpt>
<trkpt lat="40.0713749" lon="-105.229789">
  <ele>1583.0</ele>
  <time>2026-08-28T17:52:11Z</time>
  <course>0.0</course>
  <speed>0.0</speed>
  <fix>3d</fix>
</trkpt>
<trkpt lat="40.0713749" lon="-105.229789">
  <ele>1583.0</ele>
  <time>2026-08-28T17:52:11Z</time>
  <course>247.8</course>
  <speed>0.0316227766016838</speed>
  <fix>3d</fix>
</trkpt>
<trkpt lat="40.0713749" lon="-105.229789">
  <ele>1583.0</ele>
  <time>2026-08-28T17:52:11Z</time>
  <course>0.0</course>
  <speed>0.0</speed>
  <fix>3d</fix>
</trkpt>
<trkpt lat="40.0713749" lon="-105.229789">
  <ele>1583.0</ele>
  <time>2026-08-28T17:52:11Z</time>
  <course>247.79</course>
  <speed>0.0316227766016838</speed>
  <fix>3d</fix>
</trkpt>
<trkpt lat="40.0713749" lon="-105.229789">
  <ele>1583.0</ele>
  <time>2026-08-28T17:52:11Z</time>
  <course>0.0</course>
  <speed>0.0</speed>
  <fix>3d</fix>
</trkpt>
<trkpt lat="40.0713749" lon="-105.229789">
  <ele>1583.0</ele>
  <time>2026-08-28T17:52:11Z</time>
  <course>247.79</course>
  <speed>0.0316227766016838</speed>
  <fix>3d</fix>
</trkpt>
<trkpt lat="40.0713749" lon="-105.229789">
  <ele>1583.0</ele>
  <time>2026-08-28T17:52:11Z</time>
  <course>0.0</course>
  <speed>0.0</speed>
  <fix>3d</fix>
</trkpt>
<trkpt lat="40.0713749" lon="-105.229789">
  <ele>1583.0</ele>
  <time>2026-08-28T17:52:11Z</time>
  <course>247.79</course>
  <speed>0.0316227766016838</speed>
  <fix>3d</fix>
</trkpt>
<trkpt lat="40.0713749" lon="-105.229789">
  <ele>1583.0</ele>
  <time>2026-08-28T17:52:11Z</time>
  <course>0.0</course>
  <speed>0.0</speed>
  <fix>3d</fix>
</trkpt>
<trkpt lat="40.0713749" lon="-105.229789">
  <ele>1583.0</ele>
  <time>2026-08-28T17:52:11Z</time>
  <course>247.78</course>
  <speed>0.0316227766016838</speed>
  <fix>3d</fix>
</trkpt>
<trkpt lat="40.0713749" lon="-105.229789">
  <ele>1583.0</ele>
  <time>2026-08-28T17:52:11Z</time>
  <course>0.0</course>
  <speed>0.0</speed>
  <fix>3d</fix>
</trkpt>
<trkpt lat="40.0713749" lon="-105.229789">
  <ele>1583.0</ele>
  <time>2026-08-28T17:52:11Z</time>
  <course>247.78</course>
  <speed>0.0316227766016838</speed>
  <fix>3d</fix>
</trkpt>
<trkpt lat="40.0713749" lon="-105.229789">
  <ele>1583.0</ele>
  <time>2026-08-28T17:52:11Z</time>
  <course>0.0</course>
  <speed>0.0</speed>
  <fix>3d</fix>
</trkpt>
<trkpt lat="40.0713749" lon="-105.229789">
  <ele>1583.0</ele>
  <time>2026-08-28T17:52:11Z</time>
  <course>247.78</course>
  <speed>0.0316227766016838</speed>
  <fix>3d</fix>
</trkpt>
<trkpt lat="40.0713749" lon="-105.229789">
  <ele>1583.0</ele>
  <time>2026-08-28T17:52:11Z</time>
  <course>0.0</course>
  <speed>0.0</speed>
  <fix>3d</fix>
</trkpt>
<trkpt lat="40.0713749" lon="-105.229789">
  <ele>1583.0</ele>
  <time>2026-08-28T17:52:11Z</time>
  <course>247.77</course>
  <speed>0.0316227766016838</speed>
  <fix>3d</fix>
</trkpt>
<trkpt lat="40.0713749" lon="-105.229789">
  <ele>1583.0</ele>
  <time>2026-08-28T17:52:11Z</time>
  <course>0.0</course>
  <speed>0.0</speed>
  <fix>3d</fix>
</trkpt>
<trkpt lat="40.0713749" lon="-105.229789">
  <ele>1583.0</ele>
  <time>2026-08-28T17:52:11Z</time>
  <course>247.77</course>
  <speed>0.0316227766016838</speed>
  <fix>3d</fix>
</trkpt>
<trkpt lat="40.0713749" lon="-105.229789">
  <ele>1583.0</ele>
  <time>2026-08-28T17:52:11Z</time>
  <course>0.0</course>
  <speed>0.0</speed>
  <fix>3d</fix>
</trkpt>
<trkpt lat="40.0713749" lon="-105.229789">
  <ele>1583.0</ele>
  <time>2026-08-28T17:52:11Z</time>
  <course>247.77</course>
  <speed>0.0316227766016838</speed>
  <fix>3d</fix>
</trkpt>
<trkpt lat="40.0713749" lon="-105.229789">
  <ele>1583.0</ele>
  <time>2026-08-28T17:52:11Z</time>
  <course>0.0</course>
  <speed>0.0</speed>
  <fix>3d</fix>
</trkpt>
<trkpt lat="40.0713749" lon="-105.229789">
  <ele>1583.0</ele>
  <time>2026-08-28T17:52:11Z</time>
  <course>247.76</course>
  <speed>0.0316227766016838</speed>
  <fix>3d</fix>
</trkpt>
<trkpt lat="40.0713749" lon="-105.229789">
  <ele>1583.0</ele>
  <time>2026-08-28T17:52:11Z</time>
  <course>0.0</course>
  <speed>0.0</speed>
  <fix>3d</fix>
</trkpt>
<trkpt lat="40.0713749" lon="-105.229789">
  <ele>1583.0</ele>
  <time>2026-08-28T17:52:11Z</time>
  <course>247.76</course>
  <speed>0.0316227766016838</speed>
  <fix>3d</fix>
</trkpt>
<trkpt lat="40.0713749" lon="-105.229789">
  <ele>1583.0</ele>
  <time>2026-08-28T17:52:11Z</time>
  <course>0.0</course>
  <speed>0.0</speed>
  <fix>3d</fix>
</trkpt>
<trkpt lat="40.0713749" lon="-105.229789">
  <ele>1583.0</ele>
  <time>2026-08-28T17:52:11Z</time>
  <course>247.75</course>
  <speed>0.0316227766016838</speed>
  <fix>3d</fix>
</trkpt>
<trkpt lat="40.0713749" lon="-105.229789">
  <ele>1583.0</ele>
  <time>2026-08-28T17:52:11Z</time>
  <course>0.0</course>
  <speed>0.0</speed>
  <fix>3d</fix>
</trkpt>
<trkpt lat="40.0713749" lon="-105.229789">
  <ele>1583.0</ele>
  <time>2026-08-28T17:52:11Z</time>
  <course>247.75</course>
  <speed>0.0316227766016838</speed>
  <fix>3d</fix>
</trkpt>
<trkpt lat="40.0713749" lon="-105.229789">
  <ele>1583.0</ele>
  <time>2026-08-28T17:52:11Z</time>
  <course>0.0</course>
  <speed>0.0</speed>
  <fix>3d</fix>
</trkpt>
<trkpt lat="40.0713749" lon="-105.229789">
  <ele>1583.0</ele>
  <time>2026-08-28T17:52:11Z</time>
  <course>247.75</course>
  <speed>0.0316227766016838</speed>
  <fix>3d</fix>
</trkpt>
<trkpt lat="40.0713749" lon="-105.229789">
  <ele>1583.0</ele>
  <time>2026-08-28T17:52:11Z</time>
  <course>0.0</course>
  <speed>0.0</speed>
  <fix>3d</fix>
</trkpt>
<trkpt lat="40.0713749" lon="-105.229789">
  <ele>1583.0</ele>
  <time>2026-08-28T17:52:11Z</time>
  <course>247.74</course>
  <speed>0.0316227766016838</speed>
  <fix>3d</fix>
</trkpt>
<trkpt lat="40.0713749" lon="-105.229789">
  <ele>1583.0</ele>
  <time>2026-08-28T17:52:11Z</time>
  <course>0.0</course>
  <speed>0.0</speed>
  <fix>3d</fix>
</trkpt>
<trkpt lat="40.0713749" lon="-105.229789">
  <ele>1583.0</ele>
  <time>2026-08-28T17:52:11Z</time>
  <course>247.74</course>
  <speed>0.0316227766016838</speed>
  <fix>3d</fix>
</trkpt>
<trkpt lat="40.0713749" lon="-105.229789">
  <ele>1583.0</ele>
  <time>2026-08-28T17:52:11Z</time>
  <course>0.0</course>
  <speed>0.0</speed>
  <fix>3d</fix>
</trkpt>
<trkpt lat="40.0713749" lon="-105.229789">
  <ele>1583.0</ele>
  <time>2026-08-28T17:52:11Z</time>
  <course>247.74</course>
  <speed>0.0316227766016838</speed>
  <fix>3d</fix>
</trkpt>
<trkpt lat="40.0713749" lon="-105.229789">
  <ele>1583.0</ele>
  <time>2026-08-28T17:52:11Z</time>
  <course>0.0</course>
  <speed>0.0</speed>
  <fix>3d</fix>
</trkpt>
<trkpt lat="40.0713749" lon="-105.229789">
  <ele>1583.0</ele>
  <time>2026-08-28T17:52:11Z</time>
  <course>247.73</course>
  <speed>0.0316227766016838</speed>
  <fix>3d</fix>
</trkpt>
<trkpt lat="40.0713749" lon="-105.229789">
  <ele>1583.0</ele>
  <time>2026-08-28T17:52:11Z</time>
  <course>0.0</course>
  <speed>0.0</speed>
  <fix>3d</fix>
</trkpt>
<trkpt lat="40.0713749" lon="-105.229789">
  <ele>1583.0</ele>
  <time>2026-08-28T17:52:11Z</time>
  <course>247.73</course>
  <speed>0.0316227766016838</speed>
  <fix>3d</fix>
</trkpt>
<trkpt lat="40.0713749" lon="-105.229789">
  <ele>1583.0</ele>
  <time>2026-08-28T17:52:11Z</time>
  <course>0.0</course>
  <speed>0.0</speed>
  <fix>3d</fix>
</trkpt>
<trkpt lat="40.0713749" lon="-105.229789">
  <ele>1583.0</ele>
  <time>2026-08-28T17:52:11Z</time>
  <course>247.73</course>
  <speed>0.0316227766016838</speed>
  <fix>3d</fix>
</trkpt>
<trkpt lat="40.0713749" lon="-105.229789">
  <ele>1583.0</ele>
  <time>2026-08-28T17:52:11Z</time>
  <course>0.0</course>
  <speed>0.0</speed>
  <fix>3d</fix>
</trkpt>
<trkpt lat="40.0713749" lon="-105.229789">
  <ele>1583.0</ele>
  <time>2026-08-28T17:52:11Z</time>
  <course>247.72</course>
  <speed>0.0316227766016838</speed>
  <fix>3d</fix>
</trkpt>
<trkpt lat="40.0713749" lon="-105.229789">
  <ele>1583.0</ele>
  <time>2026-08-28T17:52:11Z</time>
  <course>0.0</course>
  <speed>0.0</speed>
  <fix>3d</fix>
</trkpt>
<trkpt lat="40.0713749" lon="-105.229789">
  <ele>1583.0</ele>
  <time>2026-08-28T17:52:11Z</time>
  <course>247.72</course>
  <speed>0.0316227766016838</speed>
  <fix>3d</fix>
</trkpt>
<trkpt lat="40.0713749" lon="-105.229789">
  <ele>1583.0</ele>
  <time>2026-08-28T17:52:11Z</time>
  <course>0.0</course>
  <speed>0.0</speed>
  <fix>3d</fix>
</trkpt>
<trkpt lat="40.0713749" lon="-105.229789">
  <ele>1583.0</ele>
  <time>2026-08-28T17:52:11Z</time>
  <course>247.72</course>
  <speed>0.0316227766016838</speed>
  <fix>3d</fix>
</trkpt>
<trkpt lat="40.0713749" lon="-105.229789">
  <ele>1583.0</ele>
  <time>2026-08-28T17:52:11Z</time>
  <course>0.0</course>
  <speed>0.0</speed>
  <fix>3d</fix>
</trkpt>
<trkpt lat="40.0713749" lon="-105.229789">
  <ele>1583.0</ele>
  <time>2026-08-28T17:52:11Z</time>
  <course>247.71</course>
  <speed>0.0316227766016838</speed>
  <fix>3d</fix>
</trkpt>
<trkpt lat="40.0713749" lon="-105.229789">
  <ele>1583.0</ele>
  <time>2026-08-28T17:52:11Z</time>
  <course>0.0</course>
  <speed>0.0</speed>
  <fix>3d</fix>
</trkpt>
<trkpt lat="40.0713749" lon="-105.229789">
  <ele>1583.0</ele>
  <time>2026-08-28T17:52:11Z</time>
  <course>247.71</course>
  <speed>0.0316227766016838</speed>
  <fix>3d</fix>
</trkpt>
<trkpt lat="40.0713749" lon="-105.229789">
  <ele>1583.0</ele>
  <time>2026-08-28T17:52:11Z</time>
  <course>0.0</course>
  <speed>0.0</speed>
  <fix>3d</fix>
</trkpt>
<trkpt lat="40.0713749" lon="-105.229789">
  <ele>1583.0</ele>
  <time>2026-08-28T17:52:11Z</time>
  <course>247.71</course>
  <speed>0.0316227766016838</speed>
  <fix>3d</fix>
</trkpt>
<trkpt lat="40.0713749" lon="-105.229789">
  <ele>1583.0</ele>
  <time>2026-08-28T17:52:11Z</time>
  <course>0.0</course>
  <speed>0.0</speed>
  <fix>3d</fix>
</trkpt>
<trkpt lat="40.0713749" lon="-105.229789">
  <ele>1583.0</ele>
  <time>2026-08-28T17:52:11Z</time>
  <course>247.7</course>
  <speed>0.0316227766016838</speed>
  <fix>3d</fix>
</trkpt>
<trkpt lat="40.0713749" lon="-105.229789">
  <ele>1583.0</ele>
  <time>2026-08-28T17:52:11Z</time>
  <course>0.0</course>
  <speed>0.0</speed>
  <fix>3d</fix>
</trkpt>
<trkpt lat="40.0713749" lon="-105.229789">
  <ele>1583.0</ele>
  <time>2026-08-28T17:52:11Z</time>
  <course>247.7</course>
  <speed>0.0316227766016838</speed>
  <fix>3d</fix>
</trkpt>
<trkpt lat="40.0713749" lon="-105.229789">
  <ele>1583.0</ele>
  <time>2026-08-28T17:52:11Z</time>
  <course>0.0</course>
  <speed>0.0</speed>
  <fix>3d</fix>
</trkpt>
<trkpt lat="40.0713749" lon="-105.229789">
  <ele>1583.0</ele>
  <time>2026-08-28T17:52:11Z</time>
  <course>247.7</course>
  <speed>0.0316227766016838</speed>
  <fix>3d</fix>
</trkpt>
<trkpt lat="40.0713749" lon="-105.229789">
  <ele>1583.0</ele>
  <time>2026-08-28T17:52:11Z</time>
  <course>0.0</course>
  <speed>0.0</speed>
  <fix>3d</fix>
</trkpt>
<trkpt lat="40.0713749" lon="-105.229789">
  <ele>1583.0</ele>
  <time>2026-08-28T17:52:11Z</time>
  <course>247.69</course>
  <speed>0.0316227766016838</speed>
  <fix>3d</fix>
</trkpt>
<trkpt lat="40.0713749" lon="-105.229789">
  <ele>1583.0</ele>
  <time>2026-08-28T17:52:11Z</time>
  <course>0.0</course>
  <speed>0.0</speed>
  <fix>3d</fix>
</trkpt>
<trkpt lat="40.0713749" lon="-105.229789">
  <ele>1583.0</ele>
  <time>2026-08-28T17:52:11Z</time>
  <course>247.69</course>
  <speed>0.0316227766016838</speed>
  <fix>3d</fix>
</trkpt>
<trkpt lat="40.0713749" lon="-105.229789">
  <ele>1583.0</ele>
  <time>2026-08-28T17:52:11Z</time>
  <course>0.0</course>
  <speed>0.0</speed>
  <fix>3d</fix>
</trkpt>
<trkpt lat="40.0713749" lon="-105.229789">
  <ele>1583.0</ele>
  <time>2026-08-28T17:52:11Z</time>
  <course>247.69</course>
  <speed>0.0316227766016838</speed>
  <fix>3d</fix>
</trkpt>
<trkpt lat="40.0713749" lon="-105.229789">
  <ele>1583.0</ele>
  <time>2026-08-28T17:52:11Z</time>
  <course>0.0</course>
  <speed>0.0</speed>
  <fix>3d</fix>
</trkpt>
<trkpt lat="40.0713749" lon="-105.229789">
  <ele>1583.0</ele>
  <time>2026-08-28T17:52:11Z</time>
  <course>247.68</course>
  <speed>0.0316227766016838</speed>
  <fix>3d</fix>
</trkpt>
<trkpt lat="40.0713749" lon="-105.229789">
  <ele>1583.0</ele>
  <time>2026-08-28T17:52:11Z</time>
  <course>0.0</course>
  <speed>0.0</speed>
  <fix>3d</fix>
</trkpt>
<trkpt lat="40.0713749" lon="-105.229789">
  <ele>1583.0</ele>
  <time>2026-08-28T17:52:11Z</time>
  <course>247.68</course>
  <speed>0.0316227766016838</speed>
  <fix>3d</fix>
</trkpt>
<trkpt lat="40.0713749" lon="-105.229789">
  <ele>1583.0</ele>
  <time>2026-08-28T17:52:11Z</time>
  <course>0.0</course>
  <speed>0.0</speed>
  <fix>3d</fix>
</trkpt>
<trkpt lat="40.0713749" lon="-105.229789">
  <ele>1583.0</ele>
  <time>2026-08-28T17:52:11Z</time>
  <course>247.68</course>
  <speed>0.0316227766016838</speed>
  <fix>3d</fix>
</trkpt>
<trkpt lat="40.0713749" lon="-105.229789">
  <ele>1583.0</ele>
  <time>2026-08-28T17:52:11Z</time>
  <course>0.0</course>
  <speed>0.0</speed>
  <fix>3d</fix>
</trkpt>
<trkpt lat="40.0713749" lon="-105.229789">
  <ele>1583.0</ele>
  <time>2026-08-28T17:52:11Z</time>
  <course>247.67</course>
  <speed>0.0316227766016838</speed>
  <fix>3d</fix>
</trkpt>
<trkpt lat="40.0713749" lon="-105.229789">
  <ele>1583.0</ele>
  <time>2026-08-28T17:52:11Z</time>
  <course>0.0</course>
  <speed>0.0</speed>
  <fix>3d</fix>
</trkpt>
<trkpt lat="40.0713749" lon="-105.229789">
  <ele>1583.0</ele>
  <time>2026-08-28T17:52:11Z</time>
  <course>247.67</course>
  <speed>0.0316227766016838</speed>
  <fix>3d</fix>
</trkpt>
<trkpt lat="40.0713749" lon="-105.229789">
  <ele>1583.0</ele>
  <time>2026-08-28T17:52:11Z</time>
  <course>0.0</course>
  <speed>0.0</speed>
  <fix>3d</fix>
</trkpt>
<trkpt lat="40.0713749" lon="-105.229789">
  <ele>1583.0</ele>
  <time>2026-08-28T17:52:11Z</time>
  <course>247.67</course>
  <speed>0.0316227766016838</speed>
  <fix>3d</fix>
</trkpt>
<trkpt lat="40.0713749" lon="-105.229789">
  <ele>1583.0</ele>
  <time>2026-08-28T17:52:11Z</time>
  <course>0.0</course>
  <speed>0.0</speed>
  <fix>3d</fix>
</trkpt>
<trkpt lat="40.0713749" lon="-105.229789">
  <ele>1583.0</ele>
  <time>2026-08-28T17:52:11Z</time>
  <course>247.66</course>
  <speed>0.0316227766016838</speed>
  <fix>3d</fix>
</trkpt>
<trkpt lat="40.0713749" lon="-105.229789">
  <ele>1583.0</ele>
  <time>2026-08-28T17:52:11Z</time>
  <course>0.0</course>
  <speed>0.0</speed>
  <fix>3d</fix>
</trkpt>
<trkpt lat="40.0713749" lon="-105.229789">
  <ele>1583.0</ele>
  <time>2026-08-28T17:52:11Z</time>
  <course>247.66</course>
  <speed>0.0316227766016838</speed>
  <fix>3d</fix>
</trkpt>
<trkpt lat="40.0713749" lon="-105.229789">
  <ele>1583.0</ele>
  <time>2026-08-28T17:52:11Z</time>
  <course>0.0</course>
  <speed>0.0</speed>
  <fix>3d</fix>
</trkpt>
<trkpt lat="40.0713749" lon="-105.229789">
  <ele>1583.0</ele>
  <time>2026-08-28T17:52:11Z</time>
  <course>247.66</course>
  <speed>0.0316227766016838</speed>
  <fix>3d</fix>
</trkpt>
<trkpt lat="40.0713749" lon="-105.229789">
  <ele>1583.0</ele>
  <time>2026-08-28T17:52:11Z</time>
  <course>0.0</course>
  <speed>0.0</speed>
  <fix>3d</fix>
</trkpt>
<trkpt lat="40.0713749" lon="-105.229789">
  <ele>1583.0</ele>
  <time>2026-08-28T17:52:11Z</time>
  <course>247.66</course>
  <speed>0.0316227766016838</speed>
  <fix>3d</fix>
</trkpt>
<trkpt lat="40.0713749" lon="-105.229789">
  <ele>1583.0</ele>
  <time>2026-08-28T17:52:11Z</time>
  <course>0.0</course>
  <speed>0.0</speed>
  <fix>3d</fix>
</trkpt>
<trkpt lat="40.0713749" lon="-105.229789">
  <ele>1583.0</ele>
  <time>2026-08-28T17:52:11Z</time>
  <course>247.65</course>
  <speed>0.0316227766016838</speed>
  <fix>3d</fix>
</trkpt>
<trkpt lat="40.0713749" lon="-105.229789">
  <ele>1583.0</ele>
  <time>2026-08-28T17:52:11Z</time>
  <course>0.0</course>
  <speed>0.0</speed>
  <fix>3d</fix>
</trkpt>
<trkpt lat="40.0713749" lon="-105.229789">
  <ele>1583.0</ele>
  <time>2026-08-28T17:52:11Z</time>
  <course>247.65</course>
  <speed>0.0316227766016838</speed>
  <fix>3d</fix>
</trkpt>
<trkpt lat="40.0713749" lon="-105.229789">
  <ele>1583.0</ele>
  <time>2026-08-28T17:52:11Z</time>
  <course>0.0</course>
  <speed>0.0</speed>
  <fix>3d</fix>
</trkpt>
<trkpt lat="40.0713749" lon="-105.229789">
  <ele>1583.0</ele>
  <time>2026-08-28T17:52:11Z</time>
  <course>247.65</course>
  <speed>0.0316227766016838</speed>
  <fix>3d</fix>
</trkpt>
<trkpt lat="40.0713749" lon="-105.229789">
  <ele>1583.0</ele>
  <time>2026-08-28T17:52:11Z</time>
  <course>0.0</course>
  <speed>0.0</speed>
  <fix>3d</fix>
</trkpt>
<trkpt lat="40.0713749" lon="-105.229789">
  <ele>1583.0</ele>
  <time>2026-08-28T17:52:11Z</time>
  <course>247.64</course>
  <speed>0.0316227766016838</speed>
  <fix>3d</fix>
</trkpt>
<trkpt lat="40.0713749" lon="-105.229789">
  <ele>1583.0</ele>
  <time>2026-08-28T17:52:11Z</time>
  <course>0.0</course>
  <speed>0.0</speed>
  <fix>3d</fix>
</trkpt>
<trkpt lat="40.0713749" lon="-105.229789">
  <ele>1583.0</ele>
  <time>2026-08-28T17:52:11Z</time>
  <course>247.64</course>
  <speed>0.0316227766016838</speed>
  <fix>3d</fix>
</trkpt>
<trkpt lat="40.0713749" lon="-105.229789">
  <ele>1583.0</ele>
  <time>2026-08-28T17:52:11Z</time>
  <course>0.0</course>
  <speed>0.0</speed>
  <fix>3d</fix>
</trkpt>
<trkpt lat="40.0713749" lon="-105.229789">
  <ele>1583.0</ele>
  <time>2026-08-28T17:52:11Z</time>
  <course>247.64</course>
  <speed>0.0316227766016838</speed>
  <fix>3d</fix>
</trkpt>
<trkpt lat="40.0713749" lon="-105.229789">
  <ele>1583.0</ele>
  <time>2026-08-28T17:52:11Z</time>
  <course>0.0</course>
  <speed>0.0</speed>
  <fix>3d</fix>
</trkpt>
<trkpt lat="40.0713749" lon="-105.229789">
  <ele>1583.0</ele>
  <time>2026-08-28T17:52:11Z</time>
  <course>247.63</course>
  <speed>0.0316227766016838</speed>
  <fix>3d</fix>
</trkpt>
<trkpt lat="40.0713749" lon="-105.229789">
  <ele>1583.0</ele>
  <time>2026-08-28T17:52:11Z</time>
  <course>0.0</course>
  <speed>0.0</speed>
  <fix>3d</fix>
</trkpt>
<trkpt lat="40.0713749" lon="-105.229789">
  <ele>1583.0</ele>
  <time>2026-08-28T17:52:11Z</time>
  <course>247.63</course>
  <speed>0.0316227766016838</speed>
  <fix>3d</fix>
</trkpt>
<trkpt lat="40.0713749" lon="-105.229789">
  <ele>1583.0</ele>
  <time>2026-08-28T17:52:11Z</time>
  <course>0.0</course>
  <speed>0.0</speed>
  <fix>3d</fix>
</trkpt>
<trkpt lat="40.0713749" lon="-105.229789">
  <ele>1583.0</ele>
  <time>2026-08-28T17:52:11Z</time>
  <course>247.63</course>
  <speed>0.0316227766016838</speed>
  <fix>3d</fix>
</trkpt>
<trkpt lat="40.0713749" lon="-105.229789">
  <ele>1583.0</ele>
  <time>2026-08-28T17:52:11Z</time>
  <course>0.0</course>
  <speed>0.0</speed>
  <fix>3d</fix>
</trkpt>
<trkpt lat="40.0713749" lon="-105.229789">
  <ele>1583.0</ele>
  <time>2026-08-28T17:52:11Z</time>
  <course>247.63</course>
  <speed>0.0316227766016838</speed>
  <fix>3d</fix>
</trkpt>
<trkpt lat="40.0713749" lon="-105.229789">
  <ele>1583.0</ele>
  <time>2026-08-28T17:52:11Z</time>
  <course>0.0</course>
  <speed>0.0</speed>
  <fix>3d</fix>
</trkpt>
<trkpt lat="40.0713749" lon="-105.229789">
  <ele>1583.0</ele>
  <time>2026-08-28T17:52:11Z</time>
  <course>247.62</course>
  <speed>0.0316227766016838</speed>
  <fix>3d</fix>
</trkpt>
<trkpt lat="40.0713749" lon="-105.229789">
  <ele>1583.0</ele>
  <time>2026-08-28T17:52:11Z</time>
  <course>0.0</course>
  <speed>0.0</speed>
  <fix>3d</fix>
</trkpt>
<trkpt lat="40.0713749" lon="-105.229789">
  <ele>1583.0</ele>
  <time>2026-08-28T17:52:11Z</time>
  <course>247.62</course>
  <speed>0.0316227766016838</speed>
  <fix>3d</fix>
</trkpt>
<trkpt lat="40.0713749" lon="-105.229789">
  <ele>1583.0</ele>
  <time>2026-08-28T17:52:11Z</time>
  <course>0.0</course>
  <speed>0.0</speed>
  <fix>3d</fix>
</trkpt>
<trkpt lat="40.0713749" lon="-105.229789">
  <ele>1583.0</ele>
  <time>2026-08-28T17:52:11Z</time>
  <course>247.62</course>
  <speed>0.0316227766016838</speed>
  <fix>3d</fix>
</trkpt>
<trkpt lat="40.0713749" lon="-105.229789">
  <ele>1583.0</ele>
  <time>2026-08-28T17:52:11Z</time>
  <course>0.0</course>
  <speed>0.0</speed>
  <fix>3d</fix>
</trkpt>
<trkpt lat="40.0713749" lon="-105.229789">
  <ele>1583.0</ele>
  <time>2026-08-28T17:52:12Z</time>
  <course>247.61</course>
  <speed>0.0316227766016838</speed>
  <fix>3d</fix>
</trkpt>
<trkpt lat="40.0713749" lon="-105.229789">
  <ele>1583.0</ele>
  <time>2026-08-28T17:52:12Z</time>
  <course>0.0</course>
  <speed>0.0</speed>
  <fix>3d</fix>
</trkpt>
<trkpt lat="40.0713749" lon="-105.229789">
  <ele>1583.0</ele>
  <time>2026-08-28T17:52:12Z</time>
  <course>247.61</course>
  <speed>0.0316227766016838</speed>
  <fix>3d</fix>
</trkpt>
<trkpt lat="40.0713749" lon="-105.229789">
  <ele>1583.0</ele>
  <time>2026-08-28T17:52:12Z</time>
  <course>0.0</course>
  <speed>0.0</speed>
  <fix>3d</fix>
</trkpt>
<trkpt lat="40.0713749" lon="-105.229789">
  <ele>1583.0</ele>
  <time>2026-08-28T17:52:12Z</time>
  <course>247.61</course>
  <speed>0.0316227766016838</speed>
  <fix>3d</fix>
</trkpt>
<trkpt lat="40.0713749" lon="-105.229789">
  <ele>1583.0</ele>
  <time>2026-08-28T17:52:12Z</time>
  <course>0.0</course>
  <speed>0.0</speed>
  <fix>3d</fix>
</trkpt>
<trkpt lat="40.0713749" lon="-105.229789">
  <ele>1583.0</ele>
  <time>2026-08-28T17:52:12Z</time>
  <course>247.61</course>
  <speed>0.0316227766016838</speed>
  <fix>3d</fix>
</trkpt>
<trkpt lat="40.0713749" lon="-105.229789">
  <ele>1583.0</ele>
  <time>2026-08-28T17:52:12Z</time>
  <course>0.0</course>
  <speed>0.0</speed>
  <fix>3d</fix>
</trkpt>
<trkpt lat="40.0713749" lon="-105.229789">
  <ele>1583.0</ele>
  <time>2026-08-28T17:52:12Z</time>
  <course>247.6</course>
  <speed>0.0316227766016838</speed>
  <fix>3d</fix>
</trkpt>
<trkpt lat="40.0713749" lon="-105.229789">
  <ele>1583.0</ele>
  <time>2026-08-28T17:52:12Z</time>
  <course>0.0</course>
  <speed>0.0</speed>
  <fix>3d</fix>
</trkpt>
<trkpt lat="40.0713749" lon="-105.229789">
  <ele>1583.0</ele>
  <time>2026-08-28T17:52:12Z</time>
  <course>247.6</course>
  <speed>0.0316227766016838</speed>
  <fix>3d</fix>
</trkpt>
<trkpt lat="40.0713749" lon="-105.229789">
  <ele>1583.0</ele>
  <time>2026-08-28T17:52:12Z</time>
  <course>0.0</course>
  <speed>0.0</speed>
  <fix>3d</fix>
</trkpt>
<trkpt lat="40.0713749" lon="-105.229789">
  <ele>1583.0</ele>
  <time>2026-08-28T17:52:12Z</time>
  <course>247.6</course>
  <speed>0.0316227766016838</speed>
  <fix>3d</fix>
</trkpt>
<trkpt lat="40.0713749" lon="-105.229789">
  <ele>1583.0</ele>
  <time>2026-08-28T17:52:12Z</time>
  <course>0.0</course>
  <speed>0.0</speed>
  <fix>3d</fix>
</trkpt>
<trkpt lat="40.0713749" lon="-105.229789">
  <ele>1583.0</ele>
  <time>2026-08-28T17:52:12Z</time>
  <course>247.59</course>
  <speed>0.0316227766016838</speed>
  <fix>3d</fix>
</trkpt>
<trkpt lat="40.0713749" lon="-105.229789">
  <ele>1583.0</ele>
  <time>2026-08-28T17:52:12Z</time>
  <course>0.0</course>
  <speed>0.0</speed>
  <fix>3d</fix>
</trkpt>
<trkpt lat="40.0713749" lon="-105.229789">
  <ele>1583.0</ele>
  <time>2026-08-28T17:52:12Z</time>
  <course>247.59</course>
  <speed>0.0316227766016838</speed>
  <fix>3d</fix>
</trkpt>
<trkpt lat="40.0713749" lon="-105.229789">
  <ele>1583.0</ele>
  <time>2026-08-28T17:52:12Z</time>
  <course>0.0</course>
  <speed>0.0</speed>
  <fix>3d</fix>
</trkpt>
<trkpt lat="40.0713749" lon="-105.229789">
  <ele>1583.12</ele>
  <time>2026-08-28T17:52:12Z</time>
  <course>247.59</course>
  <speed>0.0</speed>
  <fix>3d</fix>
</trkpt>
<trkpt lat="40.0713749" lon="-105.229789">
  <ele>1583.0</ele>
  <time>2026-08-28T17:52:12Z</time>
  <course>0.0</course>
  <speed>0.0</speed>
  <fix>3d</fix>
</trkpt>
<trkpt lat="40.0713749" lon="-105.229789">
  <ele>1583.11</ele>
  <time>2026-08-28T17:52:12Z</time>
  <course>247.59</course>
  <speed>0.0</speed>
  <fix>3d</fix>
</trkpt>
<trkpt lat="40.0713749" lon="-105.229789">
  <ele>1583.0</ele>
  <time>2026-08-28T17:52:12Z</time>
  <course>0.0</course>
  <speed>0.0</speed>
  <fix>3d</fix>
</trkpt>
<trkpt lat="40.0713749" lon="-105.229789">
  <ele>1583.09</ele>
  <time>2026-08-28T17:52:12Z</time>
  <course>247.58</course>
  <speed>0.0</speed>
  <fix>3d</fix>
</trkpt>
<trkpt lat="40.0713749" lon="-105.229789">
  <ele>1583.0</ele>
  <time>2026-08-28T17:52:12Z</time>
  <course>0.0</course>
  <speed>0.0</speed>
  <fix>3d</fix>
</trkpt>
<trkpt lat="40.0713749" lon="-105.229789">
  <ele>1583.08</ele>
  <time>2026-08-28T17:52:12Z</time>
  <course>247.58</course>
  <speed>0.0</speed>
  <fix>3d</fix>
</trkpt>
<trkpt lat="40.0713749" lon="-105.229789">
  <ele>1583.0</ele>
  <time>2026-08-28T17:52:12Z</time>
  <course>0.0</course>
  <speed>0.0</speed>
  <fix>3d</fix>
</trkpt>
<trkpt lat="40.0713749" lon="-105.229789">
  <ele>1583.06</ele>
  <time>2026-08-28T17:52:12Z</time>
  <course>247.58</course>
  <speed>0.0</speed>
  <fix>3d</fix>
</trkpt>
<trkpt lat="40.0713749" lon="-105.229789">
  <ele>1583.0</ele>
  <time>2026-08-28T17:52:12Z</time>
  <course>0.0</course>
  <speed>0.0</speed>
  <fix>3d</fix>
</trkpt>
<trkpt lat="40.0713749" lon="-105.229789">
  <ele>1583.05</ele>
  <time>2026-08-28T17:52:12Z</time>
  <course>247.58</course>
  <speed>0.0</speed>
  <fix>3d</fix>
</trkpt>
<trkpt lat="40.0713749" lon="-105.229789">
  <ele>1583.0</ele>
  <time>2026-08-28T17:52:12Z</time>
  <course>0.0</course>
  <speed>0.0</speed>
  <fix>3d</fix>
</trkpt>
<trkpt lat="40.0713749" lon="-105.229789">
  <ele>1583.04</ele>
  <time>2026-08-28T17:52:12Z</time>
  <course>247.57</course>
  <speed>0.0</speed>
  <fix>3d</fix>
</trkpt>
<trkpt lat="40.0713749" lon="-105.229789">
  <ele>1583.0</ele>
  <time>2026-08-28T17:52:12Z</time>
  <course>0.0</course>
  <speed>0.0</speed>
  <fix>3d</fix>
</trkpt>
<trkpt lat="40.0713749" lon="-105.229789">
  <ele>1583.03</ele>
  <time>2026-08-28T17:52:12Z</time>
  <course>247.57</course>
  <speed>0.0</speed>
  <fix>3d</fix>
</trkpt>
<trkpt lat="40.0713749" lon="-105.229789">
  <ele>1583.0</ele>
  <time>2026-08-28T17:52:12Z</time>
  <course>0.0</course>
  <speed>0.0</speed>
  <fix>3d</fix>
</trkpt>
<trkpt lat="40.0713749" lon="-105.229789">
  <ele>1583.02</ele>
  <time>2026-08-28T17:52:12Z</time>
  <course>247.57</course>
  <speed>0.0</speed>
  <fix>3d</fix>
</trkpt>
<trkpt lat="40.0713749" lon="-105.229789">
  <ele>1583.0</ele>
  <time>2026-08-28T17:52:12Z</time>
  <course>0.0</course>
  <speed>0.0</speed>
  <fix>3d</fix>
</trkpt>
<trkpt lat="40.0713749" lon="-105.229789">
  <ele>1583.02</ele>
  <time>2026-08-28T17:52:12Z</time>
  <course>247.57</course>
  <speed>0.01</speed>
  <fix>3d</fix>
</trkpt>
<trkpt lat="40.0713749" lon="-105.229789">
  <ele>1583.0</ele>
  <time>2026-08-28T17:52:12Z</time>
  <course>0.0</course>
  <speed>0.0</speed>
  <fix>3d</fix>
</trkpt>
<trkpt lat="40.0713749" lon="-105.229789">
  <ele>1583.02</ele>
  <time>2026-08-28T17:52:12Z</time>
  <course>247.56</course>
  <speed>0.01</speed>
  <fix>3d</fix>
</trkpt>
<trkpt lat="40.0713749" lon="-105.229789">
  <ele>1583.02</ele>
  <time>2026-08-28T17:52:12Z</time>
  <course>247.56</course>
  <speed>0.01</speed>
  <fix>3d</fix>
</trkpt>
<trkpt lat="40.0713749" lon="-105.229789">
  <ele>1583.0</ele>
  <time>2026-08-28T17:52:12Z</time>
  <course>0.0</course>
  <speed>0.0</speed>
  <fix>3d</fix>
</trkpt>
<trkpt lat="40.0713749" lon="-105.229789">
  <ele>1583.02</ele>
  <time>2026-08-28T17:52:12Z</time>
  <course>247.56</course>
  <speed>0.01</speed>
  <fix>3d</fix>
</trkpt>
<trkpt lat="40.0713749" lon="-105.229789">
  <ele>1583.0</ele>
  <time>2026-08-28T17:52:12Z</time>
  <course>0.0</course>
  <speed>0.0</speed>
  <fix>3d</fix>
</trkpt>
<trkpt lat="40.0713749" lon="-105.229789">
  <ele>1583.02</ele>
  <time>2026-08-28T17:52:12Z</time>
  <course>247.53</course>
  <speed>0.01</speed>
  <fix>3d</fix>
</trkpt>
<trkpt lat="40.0713749" lon="-105.229789">
  <ele>1583.0</ele>
  <time>2026-08-28T17:52:12Z</time>
  <course>0.0</course>
  <speed>0.0</speed>
  <fix>3d</fix>
</trkpt>
<trkpt lat="40.0713749" lon="-105.229789">
  <ele>1583.03</ele>
  <time>2026-08-28T17:52:12Z</time>
  <course>247.49</course>
  <speed>0.01</speed>
  <fix>3d</fix>
</trkpt>
<trkpt lat="40.0713749" lon="-105.229789">
  <ele>1583.0</ele>
  <time>2026-08-28T17:52:12Z</time>
  <course>65.93</course>
  <speed>0.0</speed>
  <fix>3d</fix>
</trkpt>
<trkpt lat="40.0713749" lon="-105.229789">
  <ele>1583.03</ele>
  <time>2026-08-28T17:52:12Z</time>
  <course>247.48</course>
  <speed>0.01</speed>
  <fix>3d</fix>
</trkpt>
<trkpt lat="40.0713749" lon="-105.229789">
  <ele>1583.0</ele>
  <time>2026-08-28T17:52:12Z</time>
  <course>65.93</course>
  <speed>0.0</speed>
  <fix>3d</fix>
</trkpt>
<trkpt lat="40.0713749" lon="-105.229789">
  <ele>1583.04</ele>
  <time>2026-08-28T17:52:12Z</time>
  <course>247.46</course>
  <speed>0.02</speed>
  <fix>3d</fix>
</trkpt>
<trkpt lat="40.0713749" lon="-105.229789">
  <ele>1583.0</ele>
  <time>2026-08-28T17:52:12Z</time>
  <course>65.93</course>
  <speed>0.0</speed>
  <fix>3d</fix>
</trkpt>
<trkpt lat="40.0713749" lon="-105.229789">
  <ele>1583.04</ele>
  <time>2026-08-28T17:52:12Z</time>
  <course>247.45</course>
  <speed>0.02</speed>
  <fix>3d</fix>
</trkpt>
<trkpt lat="40.0713749" lon="-105.229789">
  <ele>1583.0</ele>
  <time>2026-08-28T17:52:12Z</time>
  <course>65.93</course>
  <speed>0.0</speed>
  <fix>3d</fix>
</trkpt>
<trkpt lat="40.0713749" lon="-105.229789">
  <ele>1583.04</ele>
  <time>2026-08-28T17:52:12Z</time>
  <course>247.43</course>
  <speed>0.02</speed>
  <fix>3d</fix>
</trkpt>
<trkpt lat="40.0713749" lon="-105.229789">
  <ele>1583.0</ele>
  <time>2026-08-28T17:52:12Z</time>
  <course>65.93</course>
  <speed>0.0</speed>
  <fix>3d</fix>
</trkpt>
<trkpt lat="40.0713749" lon="-105.229789">
  <ele>1583.05</ele>
  <time>2026-08-28T17:52:12Z</time>
  <course>247.42</course>
  <speed>0.02</speed>
  <fix>3d</fix>
</trkpt>
<trkpt lat="40.0713749" lon="-105.229789">
  <ele>1583.0</ele>
  <time>2026-08-28T17:52:12Z</time>
  <course>65.93</course>
  <speed>0.0</speed>
  <fix>3d</fix>
</trkpt>
<trkpt lat="40.0713749" lon="-105.229789">
  <ele>1583.05</ele>
  <time>2026-08-28T17:52:12Z</time>
  <course>247.4</course>
  <speed>0.02</speed>
  <fix>3d</fix>
</trkpt>
<trkpt lat="40.0713749" lon="-105.229789">
  <ele>1583.0</ele>
  <time>2026-08-28T17:52:12Z</time>
  <course>65.93</course>
  <speed>0.0</speed>
  <fix>3d</fix>
</trkpt>
<trkpt lat="40.0713749" lon="-105.229789">
  <ele>1583.06</ele>
  <time>2026-08-28T17:52:12Z</time>
  <course>247.38</course>
  <speed>0.02</speed>
  <fix>3d</fix>
</trkpt>
<trkpt lat="40.0713749" lon="-105.229789">
  <ele>1583.0</ele>
  <time>2026-08-28T17:52:12Z</time>
  <course>65.93</course>
  <speed>0.0</speed>
  <fix>3d</fix>
</trkpt>
<trkpt lat="40.0713749" lon="-105.229789">
  <ele>1583.06</ele>
  <time>2026-08-28T17:52:12Z</time>
  <course>247.37</course>
  <speed>0.02</speed>
  <fix>3d</fix>
</trkpt>
<trkpt lat="40.0713749" lon="-105.229789">
  <ele>1583.0</ele>
  <time>2026-08-28T17:52:12Z</time>
  <course>65.93</course>
  <speed>0.0</speed>
  <fix>3d</fix>
</trkpt>
<trkpt lat="40.0713749" lon="-105.229789">
  <ele>1583.07</ele>
  <time>2026-08-28T17:52:12Z</time>
  <course>247.36</course>
  <speed>0.02</speed>
  <fix>3d</fix>
</trkpt>
<trkpt lat="40.0713749" lon="-105.229789">
  <ele>1583.0</ele>
  <time>2026-08-28T17:52:12Z</time>
  <course>65.93</course>
  <speed>0.0</speed>
  <fix>3d</fix>
</trkpt>
<trkpt lat="40.071375" lon="-105.229789">
  <ele>1583.07</ele>
  <time>2026-08-28T17:52:12Z</time>
  <course>247.35</course>
  <speed>0.02</speed>
  <fix>3d</fix>
</trkpt>
<trkpt lat="40.0713749" lon="-105.229789">
  <ele>1583.0</ele>
  <time>2026-08-28T17:52:12Z</time>
  <course>65.94</course>
  <speed>0.0</speed>
  <fix>3d</fix>
</trkpt>
<trkpt lat="40.071375" lon="-105.229789">
  <ele>1583.08</ele>
  <time>2026-08-28T17:52:12Z</time>
  <course>247.31</course>
  <speed>0.02</speed>
  <fix>3d</fix>
</trkpt>
<trkpt lat="40.0713749" lon="-105.229789">
  <ele>1583.0</ele>
  <time>2026-08-28T17:52:12Z</time>
  <course>65.94</course>
  <speed>0.0</speed>
  <fix>3d</fix>
</trkpt>
<trkpt lat="40.071375" lon="-105.229789">
  <ele>1583.08</ele>
  <time>2026-08-28T17:52:12Z</time>
  <course>247.16</course>
  <speed>0.02</speed>
  <fix>3d</fix>
</trkpt>
<trkpt lat="40.0713749" lon="-105.229789">
  <ele>1583.0</ele>
  <time>2026-08-28T17:52:12Z</time>
  <course>66.07</course>
  <speed>0.0</speed>
  <fix>3d</fix>
</trkpt>
<trkpt lat="40.071375" lon="-105.229789">
  <ele>1583.08</ele>
  <time>2026-08-28T17:52:12Z</time>
  <course>246.95</course>
  <speed>0.02</speed>
  <fix>3d</fix>
</trkpt>
<trkpt lat="40.0713749" lon="-105.229789">
  <ele>1583.0</ele>
  <time>2026-08-28T17:52:12Z</time>
  <course>66.07</course>
  <speed>0.0</speed>
  <fix>3d</fix>
</trkpt>
<trkpt lat="40.071375" lon="-105.229789">
  <ele>1583.09</ele>
  <time>2026-08-28T17:52:12Z</time>
  <course>246.8</course>
  <speed>0.01414213562373095</speed>
  <fix>3d</fix>
</trkpt>
<trkpt lat="40.0713749" lon="-105.229789">
  <ele>1583.0</ele>
  <time>2026-08-28T17:52:12Z</time>
  <course>245.29</course>
  <speed>0.0</speed>
  <fix>3d</fix>
</trkpt>
<trkpt lat="40.0713749" lon="-105.229789">
  <ele>1583.09</ele>
  <time>2026-08-28T17:52:12Z</time>
  <course>246.75</course>
  <speed>0.04</speed>
  <fix>3d</fix>
</trkpt>
<trkpt lat="40.0713749" lon="-105.229789">
  <ele>1583.0</ele>
  <time>2026-08-28T17:52:12Z</time>
  <course>245.29</course>
  <speed>0.0</speed>
  <fix>3d</fix>
</trkpt>
<trkpt lat="40.0713749" lon="-105.2297891">
  <ele>1583.09</ele>
  <time>2026-08-28T17:52:12Z</time>
  <course>246.75</course>
  <speed>0.08062257748298549</speed>
  <fix>3d</fix>
</trkpt>
<trkpt lat="40.0713749" lon="-105.229789">
  <ele>1583.0</ele>
  <time>2026-08-28T17:52:12Z</time>
  <course>245.26</course>
  <speed>0.05</speed>
  <fix>3d</fix>
</trkpt>
<trkpt lat="40.0713749" lon="-105.2297892">
  <ele>1583.09</ele>
  <time>2026-08-28T17:52:12Z</time>
  <course>246.78</course>
  <speed>0.14560219778561037</speed>
  <fix>3d</fix>
</trkpt>
<trkpt lat="40.0713749" lon="-105.229789">
  <ele>1583.0</ele>
  <time>2026-08-28T17:52:12Z</time>
  <course>245.26</course>
  <speed>0.05</speed>
  <fix>3d</fix>
</trkpt>
<trkpt lat="40.0713749" lon="-105.2297894">
  <ele>1583.09</ele>
  <time>2026-08-28T17:52:12Z</time>
  <course>246.82</course>
  <speed>0.22472205054244232</speed>
  <fix>3d</fix>
</trkpt>
<trkpt lat="40.0713749" lon="-105.2297892">
  <ele>1583.0</ele>
  <time>2026-08-28T17:52:12Z</time>
  <course>245.3</course>
  <speed>0.16</speed>
  <fix>3d</fix>
</trkpt>
<trkpt lat="40.0713748" lon="-105.2297898">
  <ele>1583.09</ele>
  <time>2026-08-28T17:52:12Z</time>
  <course>246.85</course>
  <speed>0.33241540277189324</speed>
  <fix>3d</fix>
</trkpt>
<trkpt lat="40.0713749" lon="-105.2297892">
  <ele>1583.0</ele>
  <time>2026-08-28T17:52:12Z</time>
  <course>245.3</course>
  <speed>0.16</speed>
  <fix>3d</fix>
</trkpt>
<trkpt lat="40.0713746" lon="-105.2297902">
  <ele>1583.1</ele>
  <time>2026-08-28T17:52:12Z</time>
  <course>246.88</course>
  <speed>0.46238512086787564</speed>
  <fix>3d</fix>
</trkpt>
<trkpt lat="40.0713747" lon="-105.2297897">
  <ele>1583.0</ele>
  <time>2026-08-28T17:52:12Z</time>
  <course>245.36</course>
  <speed>0.35</speed>
  <fix>3d</fix>
</trkpt>
<trkpt lat="40.0713744" lon="-105.2297908">
  <ele>1583.1</ele>
  <time>2026-08-28T17:52:12Z</time>
  <course>246.88</course>
  <speed>0.6053924347066124</speed>
  <fix>3d</fix>
</trkpt>
<trkpt lat="40.0713747" lon="-105.2297897">
  <ele>1583.0</ele>
  <time>2026-08-28T17:52:12Z</time>
  <course>245.36</course>
  <speed>0.35</speed>
  <fix>3d</fix>
</trkpt>
<trkpt lat="40.0713741" lon="-105.2297916">
  <ele>1583.1</ele>
  <time>2026-08-28T17:52:12Z</time>
  <course>246.88</course>
  <speed>0.7669419795525605</speed>
  <fix>3d</fix>
</trkpt>
<trkpt lat="40.0713747" lon="-105.2297897">
  <ele>1583.0</ele>
  <time>2026-08-28T17:52:12Z</time>
  <course>245.36</course>
  <speed>0.35</speed>
  <fix>3d</fix>
</trkpt>
<trkpt lat="40.0713738" lon="-105.2297926">
  <ele>1583.1</ele>
  <time>2026-08-28T17:52:12Z</time>
  <course>246.87</course>
  <speed>0.9546203433826455</speed>
  <fix>3d</fix>
</trkpt>
<trkpt lat="40.0713743" lon="-105.2297908">
  <ele>1583.0</ele>
  <time>2026-08-28T17:52:12Z</time>
  <course>245.38</course>
  <speed>0.61</speed>
  <fix>3d</fix>
</trkpt>
<trkpt lat="40.0713734" lon="-105.2297937">
  <ele>1583.11</ele>
  <time>2026-08-28T17:52:12Z</time>
  <course>246.87</course>
  <speed>1.1384638773364748</speed>
  <fix>3d</fix>
</trkpt>
<trkpt lat="40.0713743" lon="-105.2297908">
  <ele>1583.0</ele>
  <time>2026-08-28T17:52:12Z</time>
  <course>245.38</course>
  <speed>0.61</speed>
  <fix>3d</fix>
</trkpt>
<trkpt lat="40.071373" lon="-105.2297951">
  <ele>1583.11</ele>
  <time>2026-08-28T17:52:12Z</time>
  <course>246.88</course>
  <speed>1.3261975720080323</speed>
  <fix>3d</fix>
</trkpt>
<trkpt lat="40.0713738" lon="-105.2297925">
  <ele>1583.0</ele>
  <time>2026-08-28T17:52:12Z</time>
  <course>245.38</course>
  <speed>0.95</speed>
  <fix>3d</fix>
</trkpt>
<trkpt lat="40.0713724" lon="-105.2297966">
  <ele>1583.11</ele>
  <time>2026-08-28T17:52:12Z</time>
  <course>246.9</course>
  <speed>1.5008331019803633</speed>
  <fix>3d</fix>
</trkpt>
<trkpt lat="40.0713738" lon="-105.2297925">
  <ele>1583.0</ele>
  <time>2026-08-28T17:52:12Z</time>
  <course>245.38</course>
  <speed>0.95</speed>
  <fix>3d</fix>
</trkpt>
<trkpt lat="40.0713718" lon="-105.2297983">
  <ele>1583.11</ele>
  <time>2026-08-28T17:52:12Z</time>
  <course>246.93</course>
  <speed>1.666283289239858</speed>
  <fix>3d</fix>
</trkpt>
<trkpt lat="40.0713729" lon="-105.2297949">
  <ele>1583.0</ele>
  <time>2026-08-28T17:52:12Z</time>
  <course>245.39</course>
  <speed>1.3</speed>
  <fix>3d</fix>
</trkpt>
<trkpt lat="40.0713712" lon="-105.2298002">
  <ele>1583.12</ele>
  <time>2026-08-28T17:52:12Z</time>
  <course>246.97</course>
  <speed>1.8094197965093672</speed>
  <fix>3d</fix>
</trkpt>
<trkpt lat="40.0713729" lon="-105.2297949">
  <ele>1583.0</ele>
  <time>2026-08-28T17:52:12Z</time>
  <course>245.39</course>
  <speed>1.3</speed>
  <fix>3d</fix>
</trkpt>
<trkpt lat="40.0713705" lon="-105.2298023">
  <ele>1583.12</ele>
  <time>2026-08-28T17:52:12Z</time>
  <course>247.01</course>
  <speed>1.9394071259021401</speed>
  <fix>3d</fix>
</trkpt>
<trkpt lat="40.0713718" lon="-105.229798">
  <ele>1583.0</ele>
  <time>2026-08-28T17:52:12Z</time>
  <course>245.43</course>
  <speed>1.63</speed>
  <fix>3d</fix>
</trkpt>
<trkpt lat="40.0713698" lon="-105.2298044">
  <ele>1583.12</ele>
  <time>2026-08-28T17:52:12Z</time>
  <course>247.05</course>
  <speed>2.060218435020908</speed>
  <fix>3d</fix>
</trkpt>
<trkpt lat="40.0713705" lon="-105.2298018">
  <ele>1583.0</ele>
  <time>2026-08-28T17:52:12Z</time>
  <course>245.5</course>
  <speed>1.91</speed>
  <fix>3d</fix>
</trkpt>
<trkpt lat="40.071369" lon="-105.2298067">
  <ele>1583.11</ele>
  <time>2026-08-28T17:52:12Z</time>
  <course>247.1</course>
  <speed>2.171865557533431</speed>
  <fix>3d</fix>
</trkpt>
<trkpt lat="40.0713705" lon="-105.2298018">
  <ele>1583.0</ele>
  <time>2026-08-28T17:52:12Z</time>
  <course>245.5</course>
  <speed>1.91</speed>
  <fix>3d</fix>
</trkpt>
<trkpt lat="40.0713681" lon="-105.2298091">
  <ele>1583.11</ele>
  <time>2026-08-28T17:52:12Z</time>
  <course>247.15</course>
  <speed>2.2703523955544878</speed>
  <fix>3d</fix>
</trkpt>
<trkpt lat="40.071369" lon="-105.2298061">
  <ele>1583.0</ele>
  <time>2026-08-28T17:52:12Z</time>
  <course>245.58</course>
  <speed>2.14</speed>
  <fix>3d</fix>
</trkpt>
<trkpt lat="40.0713673" lon="-105.2298116">
  <ele>1583.11</ele>
  <time>2026-08-28T17:52:12Z</time>
  <course>247.2</course>
  <speed>2.3648467180770933</speed>
  <fix>3d</fix>
</trkpt>
<trkpt lat="40.071369" lon="-105.2298061">
  <ele>1583.0</ele>
  <time>2026-08-28T17:52:12Z</time>
  <course>245.58</course>
  <speed>2.14</speed>
  <fix>3d</fix>
</trkpt>
<trkpt lat="40.0713664" lon="-105.2298143">
  <ele>1583.11</ele>
  <time>2026-08-28T17:52:12Z</time>
  <course>247.25</course>
  <speed>2.444994887520217</speed>
  <fix>3d</fix>
</trkpt>
<trkpt lat="40.0713673" lon="-105.2298109">
  <ele>1583.0</ele>
  <time>2026-08-28T17:52:12Z</time>
  <course>245.68</course>
  <speed>2.33</speed>
  <fix>3d</fix>
</trkpt>
<trkpt lat="40.0713654" lon="-105.2298169">
  <ele>1583.12</ele>
  <time>2026-08-28T17:52:12Z</time>
  <course>247.3</course>
  <speed>2.530316185775999</speed>
  <fix>3d</fix>
</trkpt>
<trkpt lat="40.0713673" lon="-105.2298109">
  <ele>1583.0</ele>
  <time>2026-08-28T17:52:12Z</time>
  <course>245.68</course>
  <speed>2.33</speed>
  <fix>3d</fix>
</trkpt>
<trkpt lat="40.0713645" lon="-105.2298197">
  <ele>1583.12</ele>
  <time>2026-08-28T17:52:12Z</time>
  <course>247.35</course>
  <speed>2.6064727123068065</speed>
  <fix>3d</fix>
</trkpt>
<trkpt lat="40.0713655" lon="-105.2298161">
  <ele>1583.0</ele>
  <time>2026-08-28T17:52:12Z</time>
  <course>245.79</course>
  <speed>2.49</speed>
  <fix>3d</fix>
</trkpt>
<trkpt lat="40.0713635" lon="-105.2298226">
  <ele>1583.12</ele>
  <time>2026-08-28T17:52:12Z</time>
  <course>247.4</course>
  <speed>2.6826293072282645</speed>
  <fix>3d</fix>
</trkpt>
<trkpt lat="40.0713655" lon="-105.2298161">
  <ele>1583.0</ele>
  <time>2026-08-28T17:52:12Z</time>
  <course>245.79</course>
  <speed>2.49</speed>
  <fix>3d</fix>
</trkpt>
<trkpt lat="40.0713625" lon="-105.2298255">
  <ele>1583.12</ele>
  <time>2026-08-28T17:52:12Z</time>
  <course>247.44</course>
  <speed>2.7496181553081147</speed>
  <fix>3d</fix>
</trkpt>
<trkpt lat="40.0713637" lon="-105.2298216">
  <ele>1583.0</ele>
  <time>2026-08-28T17:52:12Z</time>
  <course>245.91</course>
  <speed>2.64</speed>
  <fix>3d</fix>
</trkpt>
<trkpt lat="40.0713614" lon="-105.2298285">
  <ele>1583.12</ele>
  <time>2026-08-28T17:52:12Z</time>
  <course>247.49</course>
  <speed>2.8257742301889586</speed>
  <fix>3d</fix>
</trkpt>
<trkpt lat="40.0713637" lon="-105.2298216">
  <ele>1583.0</ele>
  <time>2026-08-28T17:52:12Z</time>
  <course>245.91</course>
  <speed>2.64</speed>
  <fix>3d</fix>
</trkpt>
<trkpt lat="40.0713604" lon="-105.2298316">
  <ele>1583.12</ele>
  <time>2026-08-28T17:52:12Z</time>
  <course>247.54</course>
  <speed>2.879600666759195</speed>
  <fix>3d</fix>
</trkpt>
<trkpt lat="40.0713617" lon="-105.2298274">
  <ele>1583.0</ele>
  <time>2026-08-28T17:52:12Z</time>
  <course>246.03</course>
  <speed>2.78</speed>
  <fix>3d</fix>
</trkpt>
<trkpt lat="40.0713593" lon="-105.2298347">
  <ele>1583.12</ele>
  <time>2026-08-28T17:52:12Z</time>
  <course>247.58</course>
  <speed>2.933428028774526</speed>
  <fix>3d</fix>
</trkpt>
<trkpt lat="40.0713617" lon="-105.2298274">
  <ele>1583.0</ele>
  <time>2026-08-28T17:52:12Z</time>
  <course>246.03</course>
  <speed>2.78</speed>
  <fix>3d</fix>
</trkpt>
<trkpt lat="40.0713582" lon="-105.2298379">
  <ele>1583.12</ele>
  <time>2026-08-28T17:52:12Z</time>
  <course>247.64</course>
  <speed>2.968922363417407</speed>
  <fix>3d</fix>
</trkpt>
<trkpt lat="40.0713596" lon="-105.2298335">
  <ele>1583.0</ele>
  <time>2026-08-28T17:52:12Z</time>
  <course>246.15</course>
  <speed>2.88</speed>
  <fix>3d</fix>
</trkpt>
<trkpt lat="40.0713572" lon="-105.2298411">
  <ele>1583.12</ele>
  <time>2026-08-28T17:52:12Z</time>
  <course>247.69</course>
  <speed>2.9964312106237316</speed>
  <fix>3d</fix>
</trkpt>
<trkpt lat="40.0713596" lon="-105.2298335">
  <ele>1583.0</ele>
  <time>2026-08-28T17:52:12Z</time>
  <course>246.15</course>
  <speed>2.88</speed>
  <fix>3d</fix>
</trkpt>
<trkpt lat="40.0713561" lon="-105.2298443">
  <ele>1583.12</ele>
  <time>2026-08-28T17:52:12Z</time>
  <course>247.75</course>
  <speed>3.0095846889562687</speed>
  <fix>3d</fix>
</trkpt>
<trkpt lat="40.0713596" lon="-105.2298335">
  <ele>1583.0</ele>
  <time>2026-08-28T17:52:12Z</time>
  <course>246.15</course>
  <speed>2.88</speed>
  <fix>3d</fix>
</trkpt>
<trkpt lat="40.071355" lon="-105.2298475">
  <ele>1583.12</ele>
  <time>2026-08-28T17:52:12Z</time>
  <course>247.82</course>
  <speed>3.0095846889562687</speed>
  <fix>3d</fix>
</trkpt>
<trkpt lat="40.0713575" lon="-105.2298398">
  <ele>1583.0</ele>
  <time>2026-08-28T17:52:12Z</time>
  <course>246.28</course>
  <speed>2.95</speed>
  <fix>3d</fix>
</trkpt>
<trkpt lat="40.0713539" lon="-105.2298507">
  <ele>1583.12</ele>
  <time>2026-08-28T17:52:12Z</time>
  <course>247.89</course>
  <speed>3.0056114186634306</speed>
  <fix>3d</fix>
</trkpt>
<trkpt lat="40.0713575" lon="-105.2298398">
  <ele>1583.0</ele>
  <time>2026-08-28T17:52:12Z</time>
  <course>246.28</course>
  <speed>2.95</speed>
  <fix>3d</fix>
</trkpt>
<trkpt lat="40.0713529" lon="-105.2298539">
  <ele>1583.12</ele>
  <time>2026-08-28T17:52:12Z</time>
  <course>247.96</course>
  <speed>2.9924738929521175</speed>
  <fix>3d</fix>
</trkpt>
<trkpt lat="40.0713554" lon="-105.2298462">
  <ele>1583.0</ele>
  <time>2026-08-28T17:52:12Z</time>
  <course>246.41</course>
  <speed>2.97</speed>
  <fix>3d</fix>
</trkpt>
<trkpt lat="40.0713518" lon="-105.229857">
  <ele>1583.12</ele>
  <time>2026-08-28T17:52:12Z</time>
  <course>248.03</course>
  <speed>2.98328677803526</speed>
  <fix>3d</fix>
</trkpt>
<trkpt lat="40.0713554" lon="-105.2298462">
  <ele>1583.0</ele>
  <time>2026-08-28T17:52:12Z</time>
  <course>246.41</course>
  <speed>2.97</speed>
  <fix>3d</fix>
</trkpt>
<trkpt lat="40.0713508" lon="-105.2298602">
  <ele>1583.12</ele>
  <time>2026-08-28T17:52:12Z</time>
  <course>248.11</course>
  <speed>2.96096268129134</speed>
  <fix>3d</fix>
</trkpt>
<trkpt lat="40.0713532" lon="-105.2298525">
  <ele>1583.0</ele>
  <time>2026-08-28T17:52:12Z</time>
  <course>246.54</course>
  <speed>2.96</speed>
  <fix>3d</fix>
</trkpt>
<trkpt lat="40.0713497" lon="-105.2298633">
  <ele>1583.13</ele>
  <time>2026-08-28T17:52:12Z</time>
  <course>248.18</course>
  <speed>2.947829710142701</speed>
  <fix>3d</fix>
</trkpt>
<trkpt lat="40.0713511" lon="-105.2298589">
  <ele>1583.0</ele>
  <time>2026-08-28T17:52:12Z</time>
  <course>246.67</course>
  <speed>2.93</speed>
  <fix>3d</fix>
</trkpt>
<trkpt lat="40.0713487" lon="-105.2298664">
  <ele>1583.13</ele>
  <time>2026-08-28T17:52:12Z</time>
  <course>248.24</course>
  <speed>2.925508502807674</speed>
  <fix>3d</fix>
</trkpt>
<trkpt lat="40.0713511" lon="-105.2298589">
  <ele>1583.0</ele>
  <time>2026-08-28T17:52:12Z</time>
  <course>246.67</course>
  <speed>2.93</speed>
  <fix>3d</fix>
</trkpt>
<trkpt lat="40.0713477" lon="-105.2298696">
  <ele>1583.13</ele>
  <time>2026-08-28T17:52:12Z</time>
  <course>248.3</course>
  <speed>2.912387336876742</speed>
  <fix>3d</fix>
</trkpt>
<trkpt lat="40.0713491" lon="-105.2298652">
  <ele>1583.0</ele>
  <time>2026-08-28T17:52:12Z</time>
  <course>246.79</course>
  <speed>2.9</speed>
  <fix>3d</fix>
</trkpt>
<trkpt lat="40.0713467" lon="-105.2298726">
  <ele>1583.13</ele>
  <time>2026-08-28T17:52:12Z</time>
  <course>248.36</course>
  <speed>2.890069203323685</speed>
  <fix>3d</fix>
</trkpt>
<trkpt lat="40.0713491" lon="-105.2298652">
  <ele>1583.0</ele>
  <time>2026-08-28T17:52:12Z</time>
  <course>246.79</course>
  <speed>2.9</speed>
  <fix>3d</fix>
</trkpt>
<trkpt lat="40.0713457" lon="-105.2298757">
  <ele>1583.14</ele>
  <time>2026-08-28T17:52:12Z</time>
  <course>248.41</course>
  <speed>2.8769602013236124</speed>
  <fix>3d</fix>
</trkpt>
<trkpt lat="40.071347" lon="-105.2298715">
  <ele>1583.0</ele>
  <time>2026-08-28T17:52:12Z</time>
  <course>246.92</course>
  <speed>2.87</speed>
  <fix>3d</fix>
</trkpt>
<trkpt lat="40.0713447" lon="-105.2298788">
  <ele>1583.14</ele>
  <time>2026-08-28T17:52:12Z</time>
  <course>248.46</course>
  <speed>2.854645336990219</speed>
  <fix>3d</fix>
</trkpt>
<trkpt lat="40.071347" lon="-105.2298715">
  <ele>1583.0</ele>
  <time>2026-08-28T17:52:12Z</time>
  <course>246.92</course>
  <speed>2.87</speed>
  <fix>3d</fix>
</trkpt>
<trkpt lat="40.0713437" lon="-105.2298819">
  <ele>1583.14</ele>
  <time>2026-08-28T17:52:12Z</time>
  <course>248.51</course>
  <speed>2.841548873413934</speed>
  <fix>3d</fix>
</trkpt>
<trkpt lat="40.0713449" lon="-105.2298777">
  <ele>1583.0</ele>
  <time>2026-08-28T17:52:12Z</time>
  <course>247.04</course>
  <speed>2.84</speed>
  <fix>3d</fix>
</trkpt>
<trkpt lat="40.0713427" lon="-105.229885">
  <ele>1583.14</ele>
  <time>2026-08-28T17:52:12Z</time>
  <course>248.56</course>
  <speed>2.8284624798642812</speed>
  <fix>3d</fix>
</trkpt>
<trkpt lat="40.0713449" lon="-105.2298777">
  <ele>1583.0</ele>
  <time>2026-08-28T17:52:12Z</time>
  <course>247.04</course>
  <speed>2.84</speed>
  <fix>3d</fix>
</trkpt>
<trkpt lat="40.0713417" lon="-105.229888">
  <ele>1583.14</ele>
  <time>2026-08-28T17:52:12Z</time>
  <course>248.61</course>
  <speed>2.8153862967628442</speed>
  <fix>3d</fix>
</trkpt>
<trkpt lat="40.071343" lon="-105.2298838">
  <ele>1583.0</ele>
  <time>2026-08-28T17:52:12Z</time>
  <course>247.16</course>
  <speed>2.82</speed>
  <fix>3d</fix>
</trkpt>
<trkpt lat="40.0713407" lon="-105.2298911">
  <ele>1583.14</ele>
  <time>2026-08-28T17:52:12Z</time>
  <course>248.67</course>
  <speed>2.806153951585693</speed>
  <fix>3d</fix>
</trkpt>
<trkpt lat="40.071343" lon="-105.2298838">
  <ele>1583.0</ele>
  <time>2026-08-28T17:52:12Z</time>
  <course>247.16</course>
  <speed>2.82</speed>
  <fix>3d</fix>
</trkpt>
<trkpt lat="40.0713398" lon="-105.2298941">
  <ele>1583.14</ele>
  <time>2026-08-28T17:52:12Z</time>
  <course>248.72</course>
  <speed>2.7930807363912704</speed>
  <fix>3d</fix>
</trkpt>
<trkpt lat="40.0713411" lon="-105.2298898">
  <ele>1583.0</ele>
  <time>2026-08-28T17:52:12Z</time>
  <course>247.28</course>
  <speed>2.79</speed>
  <fix>3d</fix>
</trkpt>
<trkpt lat="40.0713388" lon="-105.2298971">
  <ele>1583.14</ele>
  <time>2026-08-28T17:52:12Z</time>
  <course>248.78</course>
  <speed>2.780017985553331</speed>
  <fix>3d</fix>
</trkpt>
<trkpt lat="40.0713411" lon="-105.2298898">
  <ele>1583.0</ele>
  <time>2026-08-28T17:52:12Z</time>
  <course>247.28</course>
  <speed>2.79</speed>
  <fix>3d</fix>
</trkpt>
<trkpt lat="40.0713378" lon="-105.2299001">
  <ele>1583.15</ele>
  <time>2026-08-28T17:52:12Z</time>
  <course>248.85</course>
  <speed>2.780017985553331</speed>
  <fix>3d</fix>
</trkpt>
<trkpt lat="40.0713391" lon="-105.2298959">
  <ele>1583.0</ele>
  <time>2026-08-28T17:52:12Z</time>
  <course>247.39</course>
  <speed>2.78</speed>
  <fix>3d</fix>
</trkpt>
<trkpt lat="40.0713369" lon="-105.2299031">
  <ele>1583.15</ele>
  <time>2026-08-28T17:52:12Z</time>
  <course>248.91</course>
  <speed>2.7707760645710793</speed>
  <fix>3d</fix>
</trkpt>
<trkpt lat="40.0713391" lon="-105.2298959">
  <ele>1583.0</ele>
  <time>2026-08-28T17:52:12Z</time>
  <course>247.39</course>
  <speed>2.78</speed>
  <fix>3d</fix>
</trkpt>
<trkpt lat="40.0713359" lon="-105.2299061">
  <ele>1583.15</ele>
  <time>2026-08-28T17:52:12Z</time>
  <course>248.98</course>
  <speed>2.766965847277483</speed>
  <fix>3d</fix>
</trkpt>
<trkpt lat="40.0713391" lon="-105.2298959">
  <ele>1583.0</ele>
  <time>2026-08-28T17:52:12Z</time>
  <course>247.39</course>
  <speed>2.78</speed>
  <fix>3d</fix>
</trkpt>
<trkpt lat="40.071335" lon="-105.2299091">
  <ele>1583.15</ele>
  <time>2026-08-28T17:52:12Z</time>
  <course>249.05</course>
  <speed>2.766965847277483</speed>
  <fix>3d</fix>
</trkpt>
<trkpt lat="40.0713372" lon="-105.229902">
  <ele>1583.0</ele>
  <time>2026-08-28T17:52:12Z</time>
  <course>247.51</course>
  <speed>2.77</speed>
  <fix>3d</fix>
</trkpt>
<trkpt lat="40.0713341" lon="-105.2299121">
  <ele>1583.15</ele>
  <time>2026-08-28T17:52:12Z</time>
  <course>249.11</course>
  <speed>2.766965847277483</speed>
  <fix>3d</fix>
</trkpt>
<trkpt lat="40.0713372" lon="-105.229902">
  <ele>1583.0</ele>
  <time>2026-08-28T17:52:12Z</time>
  <course>247.51</course>
  <speed>2.77</speed>
  <fix>3d</fix>
</trkpt>
<trkpt lat="40.0713331" lon="-105.229915">
  <ele>1583.15</ele>
  <time>2026-08-28T17:52:12Z</time>
  <course>249.17</course>
  <speed>2.753924472457442</speed>
  <fix>3d</fix>
</trkpt>
<trkpt lat="40.0713353" lon="-105.229908">
  <ele>1583.0</ele>
  <time>2026-08-28T17:52:12Z</time>
  <course>247.62</course>
  <speed>2.77</speed>
  <fix>3d</fix>
</trkpt>
<trkpt lat="40.0713322" lon="-105.229918">
  <ele>1583.15</ele>
  <time>2026-08-28T17:52:12Z</time>
  <course>249.23</course>
  <speed>2.753924472457442</speed>
  <fix>3d</fix>
</trkpt>
<trkpt lat="40.0713353" lon="-105.229908">
  <ele>1583.0</ele>
  <time>2026-08-28T17:52:12Z</time>
  <course>247.62</course>
  <speed>2.77</speed>
  <fix>3d</fix>
</trkpt>
<trkpt lat="40.0713313" lon="-105.229921">
  <ele>1583.16</ele>
  <time>2026-08-28T17:52:12Z</time>
  <course>249.27</course>
  <speed>2.753924472457442</speed>
  <fix>3d</fix>
</trkpt>
<trkpt lat="40.0713334" lon="-105.229914">
  <ele>1583.0</ele>
  <time>2026-08-28T17:52:12Z</time>
  <course>247.72</course>
  <speed>2.77</speed>
  <fix>3d</fix>
</trkpt>
<trkpt lat="40.0713303" lon="-105.2299239">
  <ele>1583.16</ele>
  <time>2026-08-28T17:52:12Z</time>
  <course>249.32</course>
  <speed>2.753924472457442</speed>
  <fix>3d</fix>
</trkpt>
<trkpt lat="40.0713334" lon="-105.229914">
  <ele>1583.0</ele>
  <time>2026-08-28T17:52:12Z</time>
  <course>247.72</course>
  <speed>2.77</speed>
  <fix>3d</fix>
</trkpt>
<trkpt lat="40.0713294" lon="-105.2299269">
  <ele>1583.17</ele>
  <time>2026-08-28T17:52:12Z</time>
  <course>249.36</course>
  <speed>2.763186566267287</speed>
  <fix>3d</fix>
</trkpt>
<trkpt lat="40.0713315" lon="-105.22992">
  <ele>1583.0</ele>
  <time>2026-08-28T17:52:12Z</time>
  <course>247.83</course>
  <speed>2.77</speed>
  <fix>3d</fix>
</trkpt>
<trkpt lat="40.0713285" lon="-105.2299299">
  <ele>1583.17</ele>
  <time>2026-08-28T17:52:12Z</time>
  <course>249.4</course>
  <speed>2.763186566267287</speed>
  <fix>3d</fix>
</trkpt>
<trkpt lat="40.0713296" lon="-105.2299261">
  <ele>1583.0</ele>
  <time>2026-08-28T17:52:12Z</time>
  <course>247.92</course>
  <speed>2.78</speed>
  <fix>3d</fix>
</trkpt>
<trkpt lat="40.0713275" lon="-105.2299329">
  <ele>1583.17</ele>
  <time>2026-08-28T17:52:12Z</time>
  <course>249.44</course>
  <speed>2.763186566267287</speed>
  <fix>3d</fix>
</trkpt>
<trkpt lat="40.0713296" lon="-105.2299261">
  <ele>1583.0</ele>
  <time>2026-08-28T17:52:12Z</time>
  <course>247.92</course>
  <speed>2.78</speed>
  <fix>3d</fix>
</trkpt>
<trkpt lat="40.0713266" lon="-105.2299359">
  <ele>1583.17</ele>
  <time>2026-08-28T17:52:12Z</time>
  <course>249.48</course>
  <speed>2.7687181149405586</speed>
  <fix>3d</fix>
</trkpt>
<trkpt lat="40.0713278" lon="-105.2299321">
  <ele>1583.0</ele>
  <time>2026-08-28T17:52:12Z</time>
  <course>248.02</course>
  <speed>2.79</speed>
  <fix>3d</fix>
</trkpt>
<trkpt lat="40.0713257" lon="-105.229939">
  <ele>1583.17</ele>
  <time>2026-08-28T17:52:12Z</time>
  <course>249.52</course>
  <speed>2.7687181149405586</speed>
  <fix>3d</fix>
</trkpt>
<trkpt lat="40.0713278" lon="-105.2299321">
  <ele>1583.0</ele>
  <time>2026-08-28T17:52:12Z</time>
  <course>248.02</course>
  <speed>2.79</speed>
  <fix>3d</fix>
</trkpt>
<trkpt lat="40.0713247" lon="-105.229942">
  <ele>1583.17</ele>
  <time>2026-08-28T17:52:12Z</time>
  <course>249.57</course>
  <speed>2.7687181149405586</speed>
  <fix>3d</fix>
</trkpt>
<trkpt lat="40.0713259" lon="-105.2299382">
  <ele>1583.0</ele>
  <time>2026-08-28T17:52:12Z</time>
  <course>248.11</course>
  <speed>2.8</speed>
  <fix>3d</fix>
</trkpt>
<trkpt lat="40.0713238" lon="-105.2299451">
  <ele>1583.17</ele>
  <time>2026-08-28T17:52:12Z</time>
  <course>249.61</course>
  <speed>2.7780028797681258</speed>
  <fix>3d</fix>
</trkpt>
<trkpt lat="40.0713259" lon="-105.2299382">
  <ele>1583.0</ele>
  <time>2026-08-28T17:52:12Z</time>
  <course>248.11</course>
  <speed>2.8</speed>
  <fix>3d</fix>
</trkpt>
<trkpt lat="40.0713229" lon="-105.2299482">
  <ele>1583.17</ele>
  <time>2026-08-28T17:52:12Z</time>
  <course>249.66</course>
  <speed>2.7780028797681258</speed>
  <fix>3d</fix>
</trkpt>
<trkpt lat="40.071324" lon="-105.2299443">
  <ele>1583.0</ele>
  <time>2026-08-28T17:52:12Z</time>
  <course>248.19</course>
  <speed>2.8</speed>
  <fix>3d</fix>
</trkpt>
<trkpt lat="40.0713219" lon="-105.2299512">
  <ele>1583.17</ele>
  <time>2026-08-28T17:52:12Z</time>
  <course>249.7</course>
  <speed>2.774310725207254</speed>
  <fix>3d</fix>
</trkpt>
<trkpt lat="40.071324" lon="-105.2299443">
  <ele>1583.0</ele>
  <time>2026-08-28T17:52:12Z</time>
  <course>248.19</course>
  <speed>2.8</speed>
  <fix>3d</fix>
</trkpt>
<trkpt lat="40.071321" lon="-105.2299543">
  <ele>1583.17</ele>
  <time>2026-08-28T17:52:12Z</time>
  <course>249.75</course>
  <speed>2.7836127604248406</speed>
  <fix>3d</fix>
</trkpt>
<trkpt lat="40.0713222" lon="-105.2299504">
  <ele>1583.0</ele>
  <time>2026-08-28T17:52:12Z</time>
  <course>248.27</course>
  <speed>2.8</speed>
  <fix>3d</fix>
</trkpt>
<trkpt lat="40.0713201" lon="-105.2299574">
  <ele>1583.16</ele>
  <time>2026-08-28T17:52:12Z</time>
  <course>249.79</course>
  <speed>2.7836127604248406</speed>
  <fix>3d</fix>
</trkpt>
<trkpt lat="40.0713222" lon="-105.2299504">
  <ele>1583.0</ele>
  <time>2026-08-28T17:52:12Z</time>
  <course>248.27</course>
  <speed>2.8</speed>
  <fix>3d</fix>
</trkpt>
<trkpt lat="40.0713191" lon="-105.2299605">
  <ele>1583.16</ele>
  <time>2026-08-28T17:52:12Z</time>
  <course>249.83</course>
  <speed>2.779964028544254</speed>
  <fix>3d</fix>
</trkpt>
<trkpt lat="40.0713203" lon="-105.2299566">
  <ele>1583.0</ele>
  <time>2026-08-28T17:52:12Z</time>
  <course>248.33</course>
  <speed>2.8</speed>
  <fix>3d</fix>
</trkpt>
<trkpt lat="40.0713182" lon="-105.2299636">
  <ele>1583.16</ele>
  <time>2026-08-28T17:52:12Z</time>
  <course>249.86</course>
  <speed>2.779964028544254</speed>
  <fix>3d</fix>
</trkpt>
<trkpt lat="40.0713203" lon="-105.2299566">
  <ele>1583.0</ele>
  <time>2026-08-28T17:52:12Z</time>
  <course>248.33</course>
  <speed>2.8</speed>
  <fix>3d</fix>
</trkpt>
<trkpt lat="40.0713173" lon="-105.2299666">
  <ele>1583.15</ele>
  <time>2026-08-28T17:52:12Z</time>
  <course>249.88</course>
  <speed>2.779964028544254</speed>
  <fix>3d</fix>
</trkpt>
<trkpt lat="40.0713184" lon="-105.2299627">
  <ele>1583.0</ele>
  <time>2026-08-28T17:52:12Z</time>
  <course>248.39</course>
  <speed>2.81</speed>
  <fix>3d</fix>
</trkpt>
<trkpt lat="40.0713164" lon="-105.2299697">
  <ele>1583.15</ele>
  <time>2026-08-28T17:52:12Z</time>
  <course>249.9</course>
  <speed>2.7892830620071534</speed>
  <fix>3d</fix>
</trkpt>
<trkpt lat="40.0713184" lon="-105.2299627">
  <ele>1583.0</ele>
  <time>2026-08-28T17:52:12Z</time>
  <course>248.39</course>
  <speed>2.81</speed>
  <fix>3d</fix>
</trkpt>
<trkpt lat="40.0713155" lon="-105.2299728">
  <ele>1583.15</ele>
  <time>2026-08-28T17:52:12Z</time>
  <course>249.92</course>
  <speed>2.785677655436824</speed>
  <fix>3d</fix>
</trkpt>
<trkpt lat="40.0713184" lon="-105.2299627">
  <ele>1583.0</ele>
  <time>2026-08-28T17:52:12Z</time>
  <course>248.39</course>
  <speed>2.81</speed>
  <fix>3d</fix>
</trkpt>
<trkpt lat="40.0713146" lon="-105.2299759">
  <ele>1583.15</ele>
  <time>2026-08-28T17:52:12Z</time>
  <course>249.93</course>
  <speed>2.785677655436824</speed>
  <fix>3d</fix>
</trkpt>
<trkpt lat="40.0713166" lon="-105.2299688">
  <ele>1583.0</ele>
  <time>2026-08-28T17:52:12Z</time>
  <course>248.44</course>
  <speed>2.81</speed>
  <fix>3d</fix>
</trkpt>
<trkpt lat="40.0713136" lon="-105.2299789">
  <ele>1583.15</ele>
  <time>2026-08-28T17:52:12Z</time>
  <course>249.93</course>
  <speed>2.785677655436824</speed>
  <fix>3d</fix>
</trkpt>
<trkpt lat="40.0713166" lon="-105.2299688">
  <ele>1583.0</ele>
  <time>2026-08-28T17:52:12Z</time>
  <course>248.44</course>
  <speed>2.81</speed>
  <fix>3d</fix>
</trkpt>
<trkpt lat="40.0713127" lon="-105.229982">
  <ele>1583.15</ele>
  <time>2026-08-28T17:52:12Z</time>
  <course>249.94</course>
  <speed>2.785677655436824</speed>
  <fix>3d</fix>
</trkpt>
<trkpt lat="40.0713147" lon="-105.229975">
  <ele>1583.0</ele>
  <time>2026-08-28T17:52:12Z</time>
  <course>248.47</course>
  <speed>2.81</speed>
  <fix>3d</fix>
</trkpt>
<trkpt lat="40.0713118" lon="-105.229985">
  <ele>1583.15</ele>
  <time>2026-08-28T17:52:12Z</time>
  <course>249.94</course>
  <speed>2.7950134167835405</speed>
  <fix>3d</fix>
</trkpt>
<trkpt lat="40.0713147" lon="-105.229975">
  <ele>1583.0</ele>
  <time>2026-08-28T17:52:12Z</time>
  <course>248.47</course>
  <speed>2.81</speed>
  <fix>3d</fix>
</trkpt>
<trkpt lat="40.0713109" lon="-105.2299881">
  <ele>1583.15</ele>
  <time>2026-08-28T17:52:12Z</time>
  <course>249.94</course>
  <speed>2.7950134167835405</speed>
  <fix>3d</fix>
</trkpt>
<trkpt lat="40.0713128" lon="-105.2299812">
  <ele>1583.0</ele>
  <time>2026-08-28T17:52:12Z</time>
  <course>248.5</course>
  <speed>2.81</speed>
  <fix>3d</fix>
</trkpt>
<trkpt lat="40.07131" lon="-105.2299912">
  <ele>1583.16</ele>
  <time>2026-08-28T17:52:12Z</time>
  <course>249.95</course>
  <speed>2.7950134167835405</speed>
  <fix>3d</fix>
</trkpt>
<trkpt lat="40.071311" lon="-105.2299873">
  <ele>1583.0</ele>
  <time>2026-08-28T17:52:12Z</time>
  <course>248.52</course>
  <speed>2.82</speed>
  <fix>3d</fix>
</trkpt>
<trkpt lat="40.0713091" lon="-105.2299943">
  <ele>1583.16</ele>
  <time>2026-08-28T17:52:12Z</time>
  <course>249.96</course>
  <speed>2.7950134167835405</speed>
  <fix>3d</fix>
</trkpt>
<trkpt lat="40.071311" lon="-105.2299873">
  <ele>1583.0</ele>
  <time>2026-08-28T17:52:12Z</time>
  <course>248.52</course>
  <speed>2.82</speed>
  <fix>3d</fix>
</trkpt>
<trkpt lat="40.0713082" lon="-105.2299973">
  <ele>1583.16</ele>
  <time>2026-08-28T17:52:12Z</time>
  <course>249.98</course>
  <speed>2.785677655436824</speed>
  <fix>3d</fix>
</trkpt>
<trkpt lat="40.0713091" lon="-105.2299934">
  <ele>1583.0</ele>
  <time>2026-08-28T17:52:12Z</time>
  <course>248.53</course>
  <speed>2.82</speed>
  <fix>3d</fix>
</trkpt>
<trkpt lat="40.0713072" lon="-105.2300004">
  <ele>1583.16</ele>
  <time>2026-08-28T17:52:12Z</time>
  <course>250.0</course>
  <speed>2.7634217919094435</speed>
  <fix>3d</fix>
</trkpt>
<trkpt lat="40.0713091" lon="-105.2299934">
  <ele>1583.0</ele>
  <time>2026-08-28T17:52:12Z</time>
  <course>248.53</course>
  <speed>2.82</speed>
  <fix>3d</fix>
</trkpt>
<trkpt lat="40.0713063" lon="-105.2300034">
  <ele>1583.16</ele>
  <time>2026-08-28T17:52:12Z</time>
  <course>250.02</course>
  <speed>2.7318308878845334</speed>
  <fix>3d</fix>
</trkpt>
<trkpt lat="40.0713073" lon="-105.2299996">
  <ele>1583.0</ele>
  <time>2026-08-28T17:52:12Z</time>
  <course>248.54</course>
  <speed>2.79</speed>
  <fix>3d</fix>
</trkpt>
<trkpt lat="40.0713054" lon="-105.2300064">
  <ele>1583.16</ele>
  <time>2026-08-28T17:52:12Z</time>
  <course>250.04</course>
  <speed>2.677984316608296</speed>
  <fix>3d</fix>
</trkpt>
<trkpt lat="40.0713073" lon="-105.2299996">
  <ele>1583.0</ele>
  <time>2026-08-28T17:52:12Z</time>
  <course>248.54</course>
  <speed>2.79</speed>
  <fix>3d</fix>
</trkpt>
<trkpt lat="40.0713045" lon="-105.2300094">
  <ele>1583.16</ele>
  <time>2026-08-28T17:52:12Z</time>
  <course>250.06</course>
  <speed>2.6148040079516477</speed>
  <fix>3d</fix>
</trkpt>
<trkpt lat="40.0713054" lon="-105.2300056">
  <ele>1583.0</ele>
  <time>2026-08-28T17:52:12Z</time>
  <course>248.55</course>
  <speed>2.7</speed>
  <fix>3d</fix>
</trkpt>
<trkpt lat="40.0713037" lon="-105.2300122">
  <ele>1583.16</ele>
  <time>2026-08-28T17:52:12Z</time>
  <course>250.07</course>
  <speed>2.5387004549572207</speed>
  <fix>3d</fix>
</trkpt>
<trkpt lat="40.0713054" lon="-105.2300056">
  <ele>1583.0</ele>
  <time>2026-08-28T17:52:12Z</time>
  <course>248.55</course>
  <speed>2.7</speed>
  <fix>3d</fix>
</trkpt>
<trkpt lat="40.0713028" lon="-105.230015">
  <ele>1583.15</ele>
  <time>2026-08-28T17:52:12Z</time>
  <course>250.09</course>
  <speed>2.4568679248181007</speed>
  <fix>3d</fix>
</trkpt>
<trkpt lat="40.0713037" lon="-105.2300114">
  <ele>1583.0</ele>
  <time>2026-08-28T17:52:12Z</time>
  <course>248.55</course>
  <speed>2.57</speed>
  <fix>3d</fix>
</trkpt>
<trkpt lat="40.071302" lon="-105.2300177">
  <ele>1583.15</ele>
  <time>2026-08-28T17:52:12Z</time>
  <course>250.1</course>
  <speed>2.358495283014151</speed>
  <fix>3d</fix>
</trkpt>
<trkpt lat="40.0713037" lon="-105.2300114">
  <ele>1583.0</ele>
  <time>2026-08-28T17:52:12Z</time>
  <course>248.55</course>
  <speed>2.57</speed>
  <fix>3d</fix>
</trkpt>
<trkpt lat="40.0713012" lon="-105.2300202">
  <ele>1583.14</ele>
  <time>2026-08-28T17:52:12Z</time>
  <course>250.11</course>
  <speed>2.2544178849538965</speed>
  <fix>3d</fix>
</trkpt>
<trkpt lat="40.0713021" lon="-105.2300169">
  <ele>1583.0</ele>
  <time>2026-08-28T17:52:12Z</time>
  <course>248.56</course>
  <speed>2.39</speed>
  <fix>3d</fix>
</trkpt>
<trkpt lat="40.0713005" lon="-105.2300226">
  <ele>1583.14</ele>
  <time>2026-08-28T17:52:12Z</time>
  <course>250.12</course>
  <speed>2.1467184258770406</speed>
  <fix>3d</fix>
</trkpt>
<trkpt lat="40.0713021" lon="-105.2300169">
  <ele>1583.0</ele>
  <time>2026-08-28T17:52:12Z</time>
  <course>248.56</course>
  <speed>2.39</speed>
  <fix>3d</fix>
</trkpt>
<trkpt lat="40.0712998" lon="-105.230025">
  <ele>1583.13</ele>
  <time>2026-08-28T17:52:12Z</time>
  <course>250.12</course>
  <speed>2.0426698215815495</speed>
  <fix>3d</fix>
</trkpt>
<trkpt lat="40.0713006" lon="-105.2300219">
  <ele>1583.0</ele>
  <time>2026-08-28T17:52:12Z</time>
  <course>248.57</course>
  <speed>2.19</speed>
  <fix>3d</fix>
</trkpt>
<trkpt lat="40.0712991" lon="-105.2300271">
  <ele>1583.12</ele>
  <time>2026-08-28T17:52:12Z</time>
  <course>250.13</course>
  <speed>1.9349676999888137</speed>
  <fix>3d</fix>
</trkpt>
<trkpt lat="40.0713006" lon="-105.2300219">
  <ele>1583.0</ele>
  <time>2026-08-28T17:52:12Z</time>
  <course>248.57</course>
  <speed>2.19</speed>
  <fix>3d</fix>
</trkpt>
<trkpt lat="40.0712985" lon="-105.2300292">
  <ele>1583.12</ele>
  <time>2026-08-28T17:52:12Z</time>
  <course>250.13</course>
  <speed>1.8179658962697842</speed>
  <fix>3d</fix>
</trkpt>
<trkpt lat="40.0713006" lon="-105.2300219">
  <ele>1583.0</ele>
  <time>2026-08-28T17:52:12Z</time>
  <course>248.57</course>
  <speed>2.19</speed>
  <fix>3d</fix>
</trkpt>
<trkpt lat="40.0712979" lon="-105.2300311">
  <ele>1583.11</ele>
  <time>2026-08-28T17:52:12Z</time>
  <course>250.14</course>
  <speed>1.710263137648707</speed>
  <fix>3d</fix>
</trkpt>
<trkpt lat="40.0712992" lon="-105.2300264">
  <ele>1583.0</ele>
  <time>2026-08-28T17:52:12Z</time>
  <course>248.59</course>
  <speed>1.97</speed>
  <fix>3d</fix>
</trkpt>
<trkpt lat="40.0712973" lon="-105.2300329">
  <ele>1583.11</ele>
  <time>2026-08-28T17:52:12Z</time>
  <course>250.16</course>
  <speed>1.593267083699403</speed>
  <fix>3d</fix>
</trkpt>
<trkpt lat="40.0712992" lon="-105.2300264">
  <ele>1583.0</ele>
  <time>2026-08-28T17:52:12Z</time>
  <course>248.59</course>
  <speed>1.97</speed>
  <fix>3d</fix>
</trkpt>
<trkpt lat="40.0712968" lon="-105.2300346">
  <ele>1583.11</ele>
  <time>2026-08-28T17:52:12Z</time>
  <course>250.17</course>
  <speed>1.485563866011825</speed>
  <fix>3d</fix>
</trkpt>
<trkpt lat="40.071298" lon="-105.2300305">
  <ele>1583.0</ele>
  <time>2026-08-28T17:52:12Z</time>
  <course>248.61</course>
  <speed>1.75</speed>
  <fix>3d</fix>
</trkpt>
<trkpt lat="40.0712963" lon="-105.2300362">
  <ele>1583.1</ele>
  <time>2026-08-28T17:52:12Z</time>
  <course>250.19</course>
  <speed>1.3685759021698432</speed>
  <fix>3d</fix>
</trkpt>
<trkpt lat="40.071298" lon="-105.2300305">
  <ele>1583.0</ele>
  <time>2026-08-28T17:52:12Z</time>
  <course>248.61</course>
  <speed>1.75</speed>
  <fix>3d</fix>
</trkpt>
<trkpt lat="40.0712959" lon="-105.2300376">
  <ele>1583.1</ele>
  <time>2026-08-28T17:52:12Z</time>
  <course>250.21</course>
  <speed>1.2608727136392475</speed>
  <fix>3d</fix>
</trkpt>
<trkpt lat="40.071297" lon="-105.2300341">
  <ele>1583.0</ele>
  <time>2026-08-28T17:52:12Z</time>
  <course>248.63</course>
  <speed>1.53</speed>
  <fix>3d</fix>
</trkpt>
<trkpt lat="40.0712955" lon="-105.2300389">
  <ele>1583.1</ele>
  <time>2026-08-28T17:52:12Z</time>
  <course>250.24</course>
  <speed>1.1438968484964018</speed>
  <fix>3d</fix>
</trkpt>
<trkpt lat="40.071296" lon="-105.2300372">
  <ele>1583.0</ele>
  <time>2026-08-28T17:52:12Z</time>
  <course>248.66</course>
  <speed>1.31</speed>
  <fix>3d</fix>
</trkpt>
<trkpt lat="40.0712951" lon="-105.2300401">
  <ele>1583.11</ele>
  <time>2026-08-28T17:52:12Z</time>
  <course>250.26</course>
  <speed>1.0361949623502327</speed>
  <fix>3d</fix>
</trkpt>
<trkpt lat="40.071296" lon="-105.2300372">
  <ele>1583.0</ele>
  <time>2026-08-28T17:52:12Z</time>
  <course>248.66</course>
  <speed>1.31</speed>
  <fix>3d</fix>
</trkpt>
<trkpt lat="40.0712948" lon="-105.2300412">
  <ele>1583.11</ele>
  <time>2026-08-28T17:52:12Z</time>
  <course>250.29</course>
  <speed>0.9284934033152846</speed>
  <fix>3d</fix>
</trkpt>
<trkpt lat="40.0712952" lon="-105.2300399">
  <ele>1583.0</ele>
  <time>2026-08-28T17:52:12Z</time>
  <course>248.68</course>
  <speed>1.1</speed>
  <fix>3d</fix>
</trkpt>
<trkpt lat="40.0712945" lon="-105.2300422">
  <ele>1583.11</ele>
  <time>2026-08-28T17:52:12Z</time>
  <course>250.32</course>
  <speed>0.8300602387778854</speed>
  <fix>3d</fix>
</trkpt>
<trkpt lat="40.0712952" lon="-105.2300399">
  <ele>1583.0</ele>
  <time>2026-08-28T17:52:12Z</time>
  <course>248.68</course>
  <speed>1.1</speed>
  <fix>3d</fix>
</trkpt>
<trkpt lat="40.0712942" lon="-105.230043">
  <ele>1583.11</ele>
  <time>2026-08-28T17:52:12Z</time>
  <course>250.35</course>
  <speed>0.7261542535852834</speed>
  <fix>3d</fix>
</trkpt>
<trkpt lat="40.0712946" lon="-105.230042">
  <ele>1583.0</ele>
  <time>2026-08-28T17:52:12Z</time>
  <course>248.7</course>
  <speed>0.89</speed>
  <fix>3d</fix>
</trkpt>
<trkpt lat="40.071294" lon="-105.2300438">
  <ele>1583.11</ele>
  <time>2026-08-28T17:52:12Z</time>
  <course>250.38</course>
  <speed>0.6276941930590086</speed>
  <fix>3d</fix>
</trkpt>
<trkpt lat="40.0712946" lon="-105.230042">
  <ele>1583.0</ele>
  <time>2026-08-28T17:52:12Z</time>
  <course>248.7</course>
  <speed>0.89</speed>
  <fix>3d</fix>
</trkpt>
<trkpt lat="40.0712938" lon="-105.2300444">
  <ele>1583.11</ele>
  <time>2026-08-28T17:52:12Z</time>
  <course>250.42</course>
  <speed>0.52</speed>
  <fix>3d</fix>
</trkpt>
<trkpt lat="40.0712941" lon="-105.2300438">
  <ele>1583.0</ele>
  <time>2026-08-28T17:52:12Z</time>
  <course>248.7</course>
  <speed>0.69</speed>
  <fix>3d</fix>
</trkpt>
<trkpt lat="40.0712936" lon="-105.230045">
  <ele>1583.11</ele>
  <time>2026-08-28T17:52:12Z</time>
  <course>250.45</course>
  <speed>0.4215447781671598</speed>
  <fix>3d</fix>
</trkpt>
<trkpt lat="40.0712941" lon="-105.2300438">
  <ele>1583.0</ele>
  <time>2026-08-28T17:52:12Z</time>
  <course>248.7</course>
  <speed>0.69</speed>
  <fix>3d</fix>
</trkpt>
<trkpt lat="40.0712935" lon="-105.2300454">
  <ele>1583.11</ele>
  <time>2026-08-28T17:52:12Z</time>
  <course>250.48</course>
  <speed>0.32695565448543634</speed>
  <fix>3d</fix>
</trkpt>
<trkpt lat="40.0712937" lon="-105.2300451">
  <ele>1583.0</ele>
  <time>2026-08-28T17:52:12Z</time>
  <course>248.66</course>
  <speed>0.49</speed>
  <fix>3d</fix>
</trkpt>
<trkpt lat="40.0712934" lon="-105.2300458">
  <ele>1583.11</ele>
  <time>2026-08-28T17:52:12Z</time>
  <course>250.52</course>
  <speed>0.22847319317591727</speed>
  <fix>3d</fix>
</trkpt>
<trkpt lat="40.0712937" lon="-105.2300451">
  <ele>1583.0</ele>
  <time>2026-08-28T17:52:12Z</time>
  <course>248.66</course>
  <speed>0.49</speed>
  <fix>3d</fix>
</trkpt>
<trkpt lat="40.0712934" lon="-105.230046">
  <ele>1583.11</ele>
  <time>2026-08-28T17:52:12Z</time>
  <course>250.55</course>
  <speed>0.1341640786499874</speed>
  <fix>3d</fix>
</trkpt>
<trkpt lat="40.0712934" lon="-105.2300459">
  <ele>1583.0</ele>
  <time>2026-08-28T17:52:12Z</time>
  <course>248.49</course>
  <speed>0.3</speed>
  <fix>3d</fix>
</trkpt>
<trkpt lat="40.0712933" lon="-105.2300461">
  <ele>1583.12</ele>
  <time>2026-08-28T17:52:12Z</time>
  <course>250.59</course>
  <speed>0.044721359549995794</speed>
  <fix>3d</fix>
</trkpt>
<trkpt lat="40.0712934" lon="-105.2300459">
  <ele>1583.0</ele>
  <time>2026-08-28T17:52:12Z</time>
  <course>248.49</course>
  <speed>0.3</speed>
  <fix>3d</fix>
</trkpt>
<trkpt lat="40.0712933" lon="-105.2300462">
  <ele>1583.12</ele>
  <time>2026-08-28T17:52:12Z</time>
  <course>250.62</course>
  <speed>0.03</speed>
  <fix>3d</fix>
</trkpt>
<trkpt lat="40.0712933" lon="-105.2300464">
  <ele>1583.0</ele>
  <time>2026-08-28T17:52:12Z</time>
  <course>247.62</course>
  <speed>0.12</speed>
  <fix>3d</fix>
</trkpt>
<trkpt lat="40.0712933" lon="-105.2300461">
  <ele>1583.12</ele>
  <time>2026-08-28T17:52:12Z</time>
  <course>250.64</course>
  <speed>0.1044030650891055</speed>
  <fix>3d</fix>
</trkpt>
<trkpt lat="40.0712933" lon="-105.2300464">
  <ele>1583.0</ele>
  <time>2026-08-28T17:52:12Z</time>
  <course>247.62</course>
  <speed>0.12</speed>
  <fix>3d</fix>
</trkpt>
<trkpt lat="40.0712934" lon="-105.230046">
  <ele>1583.12</ele>
  <time>2026-08-28T17:52:12Z</time>
  <course>250.66</course>
  <speed>0.15811388300841897</speed>
  <fix>3d</fix>
</trkpt>
<trkpt lat="40.0712933" lon="-105.2300464">
  <ele>1583.0</ele>
  <time>2026-08-28T17:52:12Z</time>
  <course>247.62</course>
  <speed>0.12</speed>
  <fix>3d</fix>
</trkpt>
<trkpt lat="40.0712933" lon="-105.2300459">
  <ele>1583.12</ele>
  <time>2026-08-28T17:52:12Z</time>
  <course>250.67</course>
  <speed>0.19924858845171275</speed>
  <fix>3d</fix>
</trkpt>
<trkpt lat="40.0712933" lon="-105.2300465">
  <ele>1583.0</ele>
  <time>2026-08-28T17:52:12Z</time>
  <course>74.58</course>
  <speed>0.03</speed>
  <fix>3d</fix>
</trkpt>
<trkpt lat="40.0712934" lon="-105.2300457">
  <ele>1583.13</ele>
  <time>2026-08-28T17:52:12Z</time>
  <course>250.67</course>
  <speed>0.22135943621178655</speed>
  <fix>3d</fix>
</trkpt>
<trkpt lat="40.0712933" lon="-105.2300465">
  <ele>1583.0</ele>
  <time>2026-08-28T17:52:12Z</time>
  <course>74.58</course>
  <speed>0.03</speed>
  <fix>3d</fix>
</trkpt>
<trkpt lat="40.0712935" lon="-105.2300455">
  <ele>1583.13</ele>
  <time>2026-08-28T17:52:12Z</time>
  <course>250.67</course>
  <speed>0.22472205054244232</speed>
  <fix>3d</fix>
</trkpt>
<trkpt lat="40.0712933" lon="-105.2300463">
  <ele>1583.0</ele>
  <time>2026-08-28T17:52:12Z</time>
  <course>70.69</course>
  <speed>0.12</speed>
  <fix>3d</fix>
</trkpt>
<trkpt lat="40.0712935" lon="-105.2300453">
  <ele>1583.13</ele>
  <time>2026-08-28T17:52:12Z</time>
  <course>250.67</course>
  <speed>0.21540659228538014</speed>
  <fix>3d</fix>
</trkpt>
<trkpt lat="40.0712933" lon="-105.2300463">
  <ele>1583.0</ele>
  <time>2026-08-28T17:52:12Z</time>
  <course>70.69</course>
  <speed>0.12</speed>
  <fix>3d</fix>
</trkpt>
<trkpt lat="40.0712936" lon="-105.2300452">
  <ele>1583.13</ele>
  <time>2026-08-28T17:52:12Z</time>
  <course>250.66</course>
  <speed>0.19313207915827968</speed>
  <fix>3d</fix>
</trkpt>
<trkpt lat="40.0712933" lon="-105.2300461">
  <ele>1583.0</ele>
  <time>2026-08-28T17:52:12Z</time>
  <course>70.45</course>
  <speed>0.15</speed>
  <fix>3d</fix>
</trkpt>
<trkpt lat="40.0712936" lon="-105.230045">
  <ele>1583.13</ele>
  <time>2026-08-28T17:52:12Z</time>
  <course>250.65</course>
  <speed>0.16552945357246848</speed>
  <fix>3d</fix>
</trkpt>
<trkpt lat="40.0712933" lon="-105.2300461">
  <ele>1583.0</ele>
  <time>2026-08-28T17:52:12Z</time>
  <course>70.45</course>
  <speed>0.15</speed>
  <fix>3d</fix>
</trkpt>
<trkpt lat="40.0712937" lon="-105.2300449">
  <ele>1583.13</ele>
  <time>2026-08-28T17:52:12Z</time>
  <course>250.63</course>
  <speed>0.12529964086141668</speed>
  <fix>3d</fix>
</trkpt>
<trkpt lat="40.0712933" lon="-105.2300458">
  <ele>1583.0</ele>
  <time>2026-08-28T17:52:12Z</time>
  <course>70.68</course>
  <speed>0.13</speed>
  <fix>3d</fix>
</trkpt>
<trkpt lat="40.0712937" lon="-105.2300449">
  <ele>1583.12</ele>
  <time>2026-08-28T17:52:12Z</time>
  <course>250.61</course>
  <speed>0.08602325267042626</speed>
  <fix>3d</fix>
</trkpt>
<trkpt lat="40.0712934" lon="-105.2300455">
  <ele>1583.0</ele>
  <time>2026-08-28T17:52:12Z</time>
  <course>71.91</course>
  <speed>0.06</speed>
  <fix>3d</fix>
</trkpt>
<trkpt lat="40.0712937" lon="-105.2300449">
  <ele>1583.12</ele>
  <time>2026-08-28T17:52:12Z</time>
  <course>250.58</course>
  <speed>0.04242640687119285</speed>
  <fix>3d</fix>
</trkpt>
<trkpt lat="40.0712934" lon="-105.2300455">
  <ele>1583.0</ele>
  <time>2026-08-28T17:52:12Z</time>
  <course>71.91</course>
  <speed>0.06</speed>
  <fix>3d</fix>
</trkpt>
<trkpt lat="40.0712937" lon="-105.2300449">
  <ele>1583.12</ele>
  <time>2026-08-28T17:52:12Z</time>
  <course>250.55</course>
  <speed>0.02</speed>
  <fix>3d</fix>
</trkpt>
<trkpt lat="40.0712934" lon="-105.2300454">
  <ele>1583.0</ele>
  <time>2026-08-28T17:52:12Z</time>
  <course>221.23</course>
  <speed>0.0</speed>
  <fix>3d</fix>
</trkpt>
<trkpt lat="40.0712937" lon="-105.230045">
  <ele>1583.12</ele>
  <time>2026-08-28T17:52:12Z</time>
  <course>250.52</course>
  <speed>0.0316227766016838</speed>
  <fix>3d</fix>
</trkpt>
<trkpt lat="40.0712934" lon="-105.2300454">
  <ele>1583.0</ele>
  <time>2026-08-28T17:52:12Z</time>
  <course>221.23</course>
  <speed>0.0</speed>
  <fix>3d</fix>
</trkpt>
<trkpt lat="40.0712936" lon="-105.2300451">
  <ele>1583.12</ele>
  <time>2026-08-28T17:52:12Z</time>
  <course>250.48</course>
  <speed>0.06</speed>
  <fix>3d</fix>
</trkpt>
<trkpt lat="40.0712934" lon="-105.2300455">
  <ele>1583.0</ele>
  <time>2026-08-28T17:52:12Z</time>
  <course>246.69</course>
  <speed>0.07</speed>
  <fix>3d</fix>
</trkpt>
<trkpt lat="40.0712936" lon="-105.2300452">
  <ele>1583.12</ele>
  <time>2026-08-28T17:52:12Z</time>
  <course>250.44</course>
  <speed>0.09</speed>
  <fix>3d</fix>
</trkpt>
<trkpt lat="40.0712934" lon="-105.2300455">
  <ele>1583.0</ele>
  <time>2026-08-28T17:52:12Z</time>
  <course>246.69</course>
  <speed>0.07</speed>
  <fix>3d</fix>
</trkpt>
<trkpt lat="40.0712936" lon="-105.2300454">
  <ele>1583.12</ele>
  <time>2026-08-28T17:52:12Z</time>
  <course>250.39</course>
  <speed>0.12041594578792296</speed>
  <fix>3d</fix>
</trkpt>
<trkpt lat="40.0712933" lon="-105.2300457">
  <ele>1583.0</ele>
  <time>2026-08-28T17:52:12Z</time>
  <course>247.64</course>
  <speed>0.13</speed>
  <fix>3d</fix>
</trkpt>
<trkpt lat="40.0712936" lon="-105.2300456">
  <ele>1583.12</ele>
  <time>2026-08-28T17:52:12Z</time>
  <course>250.34</course>
  <speed>0.130384048104053</speed>
  <fix>3d</fix>
</trkpt>
<trkpt lat="40.0712933" lon="-105.2300457">
  <ele>1583.0</ele>
  <time>2026-08-28T17:52:12Z</time>
  <course>247.64</course>
  <speed>0.13</speed>
  <fix>3d</fix>
</trkpt>
<trkpt lat="40.0712936" lon="-105.2300459">
  <ele>1583.12</ele>
  <time>2026-08-28T17:52:12Z</time>
  <course>250.29</course>
  <speed>0.15033296378372907</speed>
  <fix>3d</fix>
</trkpt>
<trkpt lat="40.0712933" lon="-105.2300461">
  <ele>1583.0</ele>
  <time>2026-08-28T17:52:12Z</time>
  <course>247.87</course>
  <speed>0.17</speed>
  <fix>3d</fix>
</trkpt>
<trkpt lat="40.0712935" lon="-105.2300461">
  <ele>1583.12</ele>
  <time>2026-08-28T17:52:12Z</time>
  <course>250.23</course>
  <speed>0.16124515496597097</speed>
  <fix>3d</fix>
</trkpt>
<trkpt lat="40.0712933" lon="-105.2300461">
  <ele>1583.0</ele>
  <time>2026-08-28T17:52:12Z</time>
  <course>247.87</course>
  <speed>0.17</speed>
  <fix>3d</fix>
</trkpt>
<trkpt lat="40.0712934" lon="-105.2300463">
  <ele>1583.12</ele>
  <time>2026-08-28T17:52:12Z</time>
  <course>250.17</course>
  <speed>0.16124515496597097</speed>
  <fix>3d</fix>
</trkpt>
<trkpt lat="40.0712932" lon="-105.2300464">
  <ele>1583.0</ele>
  <time>2026-08-28T17:52:12Z</time>
  <course>247.87</course>
  <speed>0.19</speed>
  <fix>3d</fix>
</trkpt>
<trkpt lat="40.0712934" lon="-105.2300466">
  <ele>1583.12</ele>
  <time>2026-08-28T17:52:12Z</time>
  <course>250.1</course>
  <speed>0.16124515496597097</speed>
  <fix>3d</fix>
</trkpt>
<trkpt lat="40.0712932" lon="-105.2300464">
  <ele>1583.0</ele>
  <time>2026-08-28T17:52:12Z</time>
  <course>247.87</course>
  <speed>0.19</speed>
  <fix>3d</fix>
</trkpt>
<trkpt lat="40.0712933" lon="-105.2300468">
  <ele>1583.12</ele>
  <time>2026-08-28T17:52:12Z</time>
  <course>250.03</course>
  <speed>0.16124515496597097</speed>
  <fix>3d</fix>
</trkpt>
<trkpt lat="40.0712931" lon="-105.2300468">
  <ele>1583.0</ele>
  <time>2026-08-28T17:52:12Z</time>
  <course>247.78</course>
  <speed>0.19</speed>
  <fix>3d</fix>
</trkpt>
<trkpt lat="40.0712933" lon="-105.230047">
  <ele>1583.11</ele>
  <time>2026-08-28T17:52:12Z</time>
  <course>249.96</course>
  <speed>0.16124515496597097</speed>
  <fix>3d</fix>
</trkpt>
<trkpt lat="40.0712931" lon="-105.2300468">
  <ele>1583.0</ele>
  <time>2026-08-28T17:52:12Z</time>
  <course>247.78</course>
  <speed>0.19</speed>
  <fix>3d</fix>
</trkpt>
<trkpt lat="40.0712932" lon="-105.2300472">
  <ele>1583.11</ele>
  <time>2026-08-28T17:52:12Z</time>
  <course>249.88</course>
  <speed>0.15033296378372907</speed>
  <fix>3d</fix>
</trkpt>
<trkpt lat="40.0712931" lon="-105.2300468">
  <ele>1583.0</ele>
  <time>2026-08-28T17:52:12Z</time>
  <course>247.78</course>
  <speed>0.19</speed>
  <fix>3d</fix>
</trkpt>
<trkpt lat="40.0712932" lon="-105.2300475">
  <ele>1583.11</ele>
  <time>2026-08-28T17:52:12Z</time>
  <course>249.8</course>
  <speed>0.15033296378372907</speed>
  <fix>3d</fix>
</trkpt>
<trkpt lat="40.0712929" lon="-105.2300473">
  <ele>1583.0</ele>
  <time>2026-08-28T17:52:12Z</time>
  <course>247.63</course>
  <speed>0.18</speed>
  <fix>3d</fix>
</trkpt>
<trkpt lat="40.0712931" lon="-105.2300477">
  <ele>1583.11</ele>
  <time>2026-08-28T17:52:12Z</time>
  <course>249.72</course>
  <speed>0.15033296378372907</speed>
  <fix>3d</fix>
</trkpt>
<trkpt lat="40.0712929" lon="-105.2300473">
  <ele>1583.0</ele>
  <time>2026-08-28T17:52:12Z</time>
  <course>247.63</course>
  <speed>0.18</speed>
  <fix>3d</fix>
</trkpt>
<trkpt lat="40.0712931" lon="-105.2300479">
  <ele>1583.11</ele>
  <time>2026-08-28T17:52:12Z</time>
  <course>249.64</course>
  <speed>0.140356688476182</speed>
  <fix>3d</fix>
</trkpt>
<trkpt lat="40.0712928" lon="-105.2300477">
  <ele>1583.0</ele>
  <time>2026-08-28T17:52:12Z</time>
  <course>247.45</course>
  <speed>0.17</speed>
  <fix>3d</fix>
</trkpt>
<trkpt lat="40.071293" lon="-105.2300481">
  <ele>1583.11</ele>
  <time>2026-08-28T17:52:12Z</time>
  <course>249.55</course>
  <speed>0.140356688476182</speed>
  <fix>3d</fix>
</trkpt>
<trkpt lat="40.0712928" lon="-105.2300477">
  <ele>1583.0</ele>
  <time>2026-08-28T17:52:12Z</time>
  <course>247.45</course>
  <speed>0.17</speed>
  <fix>3d</fix>
</trkpt>
<trkpt lat="40.0712929" lon="-105.2300482">
  <ele>1583.1</ele>
  <time>2026-08-28T17:52:12Z</time>
  <course>249.47</course>
  <speed>0.140356688476182</speed>
  <fix>3d</fix>
</trkpt>
<trkpt lat="40.0712927" lon="-105.230048">
  <ele>1583.0</ele>
  <time>2026-08-28T17:52:12Z</time>
  <course>247.26</course>
  <speed>0.16</speed>
  <fix>3d</fix>
</trkpt>
<trkpt lat="40.0712929" lon="-105.2300484">
  <ele>1583.1</ele>
  <time>2026-08-28T17:52:12Z</time>
  <course>249.38</course>
  <speed>0.130384048104053</speed>
  <fix>3d</fix>
</trkpt>
<trkpt lat="40.0712926" lon="-105.2300484">
  <ele>1583.0</ele>
  <time>2026-08-28T17:52:12Z</time>
  <course>247.06</course>
  <speed>0.16</speed>
  <fix>3d</fix>
</trkpt>
<trkpt lat="40.0712928" lon="-105.2300486">
  <ele>1583.1</ele>
  <time>2026-08-28T17:52:12Z</time>
  <course>249.29</course>
  <speed>0.130384048104053</speed>
  <fix>3d</fix>
</trkpt>
<trkpt lat="40.0712926" lon="-105.2300484">
  <ele>1583.0</ele>
  <time>2026-08-28T17:52:12Z</time>
  <course>247.06</course>
  <speed>0.16</speed>
  <fix>3d</fix>
</trkpt>
<trkpt lat="40.0712928" lon="-105.2300488">
  <ele>1583.1</ele>
  <time>2026-08-28T17:52:12Z</time>
  <course>249.2</course>
  <speed>0.130384048104053</speed>
  <fix>3d</fix>
</trkpt>
<trkpt lat="40.0712924" lon="-105.2300487">
  <ele>1583.0</ele>
  <time>2026-08-28T17:52:12Z</time>
  <course>246.88</course>
  <speed>0.15</speed>
  <fix>3d</fix>
</trkpt>
<trkpt lat="40.0712927" lon="-105.230049">
  <ele>1583.1</ele>
  <time>2026-08-28T17:52:12Z</time>
  <course>249.11</course>
  <speed>0.130384048104053</speed>
  <fix>3d</fix>
</trkpt>
<trkpt lat="40.0712924" lon="-105.2300487">
  <ele>1583.0</ele>
  <time>2026-08-28T17:52:12Z</time>
  <course>246.88</course>
  <speed>0.15</speed>
  <fix>3d</fix>
</trkpt>
<trkpt lat="40.0712927" lon="-105.2300491">
  <ele>1583.1</ele>
  <time>2026-08-28T17:52:12Z</time>
  <course>249.02</course>
  <speed>0.130384048104053</speed>
  <fix>3d</fix>
</trkpt>
<trkpt lat="40.0712923" lon="-105.2300491">
  <ele>1583.0</ele>
  <time>2026-08-28T17:52:12Z</time>
  <course>246.69</course>
  <speed>0.15</speed>
  <fix>3d</fix>
</trkpt>
<trkpt lat="40.0712926" lon="-105.2300493">
  <ele>1583.1</ele>
  <time>2026-08-28T17:52:12Z</time>
  <course>248.93</course>
  <speed>0.130384048104053</speed>
  <fix>3d</fix>
</trkpt>
<trkpt lat="40.0712923" lon="-105.2300491">
  <ele>1583.0</ele>
  <time>2026-08-28T17:52:12Z</time>
  <course>246.69</course>
  <speed>0.15</speed>
  <fix>3d</fix>
</trkpt>
<trkpt lat="40.0712926" lon="-105.2300495">
  <ele>1583.1</ele>
  <time>2026-08-28T17:52:12Z</time>
  <course>248.85</course>
  <speed>0.130384048104053</speed>
  <fix>3d</fix>
</trkpt>
<trkpt lat="40.0712922" lon="-105.2300494">
  <ele>1583.0</ele>
  <time>2026-08-28T17:52:12Z</time>
  <course>246.52</course>
  <speed>0.14</speed>
  <fix>3d</fix>
</trkpt>
<trkpt lat="40.0712925" lon="-105.2300496">
  <ele>1583.1</ele>
  <time>2026-08-28T17:52:12Z</time>
  <course>248.76</course>
  <speed>0.130384048104053</speed>
  <fix>3d</fix>
</trkpt>
<trkpt lat="40.0712922" lon="-105.2300494">
  <ele>1583.0</ele>
  <time>2026-08-28T17:52:12Z</time>
  <course>246.52</course>
  <speed>0.14</speed>
  <fix>3d</fix>
</trkpt>
<trkpt lat="40.0712924" lon="-105.2300498">
  <ele>1583.1</ele>
  <time>2026-08-28T17:52:12Z</time>
  <course>248.67</course>
  <speed>0.130384048104053</speed>
  <fix>3d</fix>
</trkpt>
<trkpt lat="40.0712921" lon="-105.2300497">
  <ele>1583.0</ele>
  <time>2026-08-28T17:52:12Z</time>
  <course>246.35</course>
  <speed>0.14</speed>
  <fix>3d</fix>
</trkpt>
<trkpt lat="40.0712924" lon="-105.23005">
  <ele>1583.1</ele>
  <time>2026-08-28T17:52:12Z</time>
  <course>248.59</course>
  <speed>0.13152946437965907</speed>
  <fix>3d</fix>
</trkpt>
<trkpt lat="40.0712921" lon="-105.2300497">
  <ele>1583.0</ele>
  <time>2026-08-28T17:52:12Z</time>
  <course>246.35</course>
  <speed>0.14</speed>
  <fix>3d</fix>
</trkpt>
<trkpt lat="40.0712923" lon="-105.2300501">
  <ele>1583.11</ele>
  <time>2026-08-28T17:52:12Z</time>
  <course>248.5</course>
  <speed>0.13152946437965907</speed>
  <fix>3d</fix>
</trkpt>
<trkpt lat="40.071292" lon="-105.23005">
  <ele>1583.0</ele>
  <time>2026-08-28T17:52:12Z</time>
  <course>246.19</course>
  <speed>0.14</speed>
  <fix>3d</fix>
</trkpt>
<trkpt lat="40.0712923" lon="-105.2300503">
  <ele>1583.11</ele>
  <time>2026-08-28T17:52:12Z</time>
  <course>248.42</course>
  <speed>0.13152946437965907</speed>
  <fix>3d</fix>
</trkpt>
<trkpt lat="40.071292" lon="-105.23005">
  <ele>1583.0</ele>
  <time>2026-08-28T17:52:12Z</time>
  <course>246.19</course>
  <speed>0.14</speed>
  <fix>3d</fix>
</trkpt>
<trkpt lat="40.0712922" lon="-105.2300504">
  <ele>1583.12</ele>
  <time>2026-08-28T17:52:12Z</time>
  <course>248.34</course>
  <speed>0.13152946437965907</speed>
  <fix>3d</fix>
</trkpt>
<trkpt lat="40.0712919" lon="-105.2300504">
  <ele>1583.0</ele>
  <time>2026-08-28T17:52:12Z</time>
  <course>246.03</course>
  <speed>0.14</speed>
  <fix>3d</fix>
</trkpt>
<trkpt lat="40.0712921" lon="-105.2300506">
  <ele>1583.12</ele>
  <time>2026-08-28T17:52:12Z</time>
  <course>248.26</course>
  <speed>0.12165525060596438</speed>
  <fix>3d</fix>
</trkpt>
<trkpt lat="40.0712919" lon="-105.2300504">
  <ele>1583.0</ele>
  <time>2026-08-28T17:52:12Z</time>
  <course>246.03</course>
  <speed>0.14</speed>
  <fix>3d</fix>
</trkpt>
<trkpt lat="40.0712921" lon="-105.2300508">
  <ele>1583.12</ele>
  <time>2026-08-28T17:52:12Z</time>
  <course>248.18</course>
  <speed>0.12165525060596438</speed>
  <fix>3d</fix>
</trkpt>
<trkpt lat="40.0712919" lon="-105.2300504">
  <ele>1583.0</ele>
  <time>2026-08-28T17:52:12Z</time>
  <course>246.03</course>
  <speed>0.14</speed>
  <fix>3d</fix>
</trkpt>
<trkpt lat="40.071292" lon="-105.2300509">
  <ele>1583.12</ele>
  <time>2026-08-28T17:52:12Z</time>
  <course>248.11</course>
  <speed>0.12165525060596438</speed>
  <fix>3d</fix>
</trkpt>
<trkpt lat="40.0712918" lon="-105.2300507">
  <ele>1583.0</ele>
  <time>2026-08-28T17:52:12Z</time>
  <course>245.86</course>
  <speed>0.13</speed>
  <fix>3d</fix>
</trkpt>
<trkpt lat="40.071292" lon="-105.2300511">
  <ele>1583.12</ele>
  <time>2026-08-28T17:52:12Z</time>
  <course>248.03</course>
  <speed>0.12165525060596438</speed>
  <fix>3d</fix>
</trkpt>
<trkpt lat="40.0712918" lon="-105.2300507">
  <ele>1583.0</ele>
  <time>2026-08-28T17:52:12Z</time>
  <course>245.86</course>
  <speed>0.13</speed>
  <fix>3d</fix>
</trkpt>
<trkpt lat="40.0712919" lon="-105.2300512">
  <ele>1583.12</ele>
  <time>2026-08-28T17:52:12Z</time>
  <course>247.96</course>
  <speed>0.1118033988749895</speed>
  <fix>3d</fix>
</trkpt>
<trkpt lat="40.0712917" lon="-105.230051">
  <ele>1583.0</ele>
  <time>2026-08-28T17:52:12Z</time>
  <course>245.66</course>
  <speed>0.13</speed>
  <fix>3d</fix>
</trkpt>
<trkpt lat="40.0712919" lon="-105.2300513">
  <ele>1583.12</ele>
  <time>2026-08-28T17:52:12Z</time>
  <course>247.91</course>
  <speed>0.07</speed>
  <fix>3d</fix>
</trkpt>
<trkpt lat="40.0712917" lon="-105.230051">
  <ele>1583.0</ele>
  <time>2026-08-28T17:52:12Z</time>
  <course>245.66</course>
  <speed>0.13</speed>
  <fix>3d</fix>
</trkpt>
<trkpt lat="40.0712918" lon="-105.2300514">
  <ele>1583.12</ele>
  <time>2026-08-28T17:52:12Z</time>
  <course>247.86</course>
  <speed>0.02</speed>
  <fix>3d</fix>
</trkpt>
<trkpt lat="40.0712916" lon="-105.2300512">
  <ele>1583.0</ele>
  <time>2026-08-28T17:52:12Z</time>
  <course>245.24</course>
  <speed>0.1</speed>
  <fix>3d</fix>
</trkpt>
<trkpt lat="40.0712918" lon="-105.2300514">
  <ele>1583.12</ele>
  <time>2026-08-28T17:52:12Z</time>
  <course>247.82</course>
  <speed>0.01</speed>
  <fix>3d</fix>
</trkpt>
<trkpt lat="40.0712916" lon="-105.2300512">
  <ele>1583.0</ele>
  <time>2026-08-28T17:52:12Z</time>
  <course>245.24</course>
  <speed>0.1</speed>
  <fix>3d</fix>
</trkpt>
<trkpt lat="40.0712918" lon="-105.2300514">
  <ele>1583.12</ele>
  <time>2026-08-28T17:52:12Z</time>
  <course>247.79</course>
  <speed>0.01</speed>
  <fix>3d</fix>
</trkpt>
<trkpt lat="40.0712915" lon="-105.2300513">
  <ele>1583.0</ele>
  <time>2026-08-28T17:52:12Z</time>
  <course>242.9</course>
  <speed>0.04</speed>
  <fix>3d</fix>
</trkpt>
<trkpt lat="40.0712918" lon="-105.2300514">
  <ele>1583.12</ele>
  <time>2026-08-28T17:52:12Z</time>
  <course>247.75</course>
  <speed>0.01</speed>
  <fix>3d</fix>
</trkpt>
<trkpt lat="40.0712915" lon="-105.2300513">
  <ele>1583.0</ele>
  <time>2026-08-28T17:52:12Z</time>
  <course>199.48</course>
  <speed>0.0</speed>
  <fix>3d</fix>
</trkpt>
<trkpt lat="40.0712918" lon="-105.2300514">
  <ele>1583.12</ele>
  <time>2026-08-28T17:52:12Z</time>
  <course>247.72</course>
  <speed>0.01</speed>
  <fix>3d</fix>
</trkpt>
<trkpt lat="40.0712915" lon="-105.2300513">
  <ele>1583.0</ele>
  <time>2026-08-28T17:52:12Z</time>
  <course>199.48</course>
  <speed>0.0</speed>
  <fix>3d</fix>
</trkpt>
<trkpt lat="40.0712918" lon="-105.2300514">
  <ele>1583.11</ele>
  <time>2026-08-28T17:52:12Z</time>
  <course>247.69</course>
  <speed>0.01</speed>
  <fix>3d</fix>
</trkpt>
<trkpt lat="40.0712915" lon="-105.2300513">
  <ele>1583.0</ele>
  <time>2026-08-28T17:52:12Z</time>
  <course>199.45</course>
  <speed>0.0</speed>
  <fix>3d</fix>
</trkpt>
<trkpt lat="40.0712917" lon="-105.2300513">
  <ele>1583.11</ele>
  <time>2026-08-28T17:52:12Z</time>
  <course>247.66</course>
  <speed>0.01</speed>
  <fix>3d</fix>
</trkpt>
<trkpt lat="40.0712915" lon="-105.2300513">
  <ele>1583.0</ele>
  <time>2026-08-28T17:52:12Z</time>
  <course>199.45</course>
  <speed>0.0</speed>
  <fix>3d</fix>
</trkpt>
<trkpt lat="40.0712917" lon="-105.2300513">
  <ele>1583.11</ele>
  <time>2026-08-28T17:52:12Z</time>
  <course>247.64</course>
  <speed>0.01</speed>
  <fix>3d</fix>
</trkpt>
<trkpt lat="40.0712915" lon="-105.2300513">
  <ele>1583.0</ele>
  <time>2026-08-28T17:52:12Z</time>
  <course>199.42</course>
  <speed>0.0</speed>
  <fix>3d</fix>
</trkpt>
<trkpt lat="40.0712917" lon="-105.2300513">
  <ele>1583.11</ele>
  <time>2026-08-28T17:52:12Z</time>
  <course>247.62</course>
  <speed>0.01</speed>
  <fix>3d</fix>
</trkpt>
<trkpt lat="40.0712915" lon="-105.2300513">
  <ele>1583.0</ele>
  <time>2026-08-28T17:52:12Z</time>
  <course>199.42</course>
  <speed>0.0</speed>
  <fix>3d</fix>
</trkpt>
<trkpt lat="40.0712917" lon="-105.2300513">
  <ele>1583.1</ele>
  <time>2026-08-28T17:52:12Z</time>
  <course>247.6</course>
  <speed>0.01</speed>
  <fix>3d</fix>
</trkpt>
<trkpt lat="40.0712915" lon="-105.2300513">
  <ele>1583.0</ele>
  <time>2026-08-28T17:52:12Z</time>
  <course>199.39</course>
  <speed>0.0</speed>
  <fix>3d</fix>
</trkpt>
<trkpt lat="40.0712917" lon="-105.2300513">
  <ele>1583.1</ele>
  <time>2026-08-28T17:52:12Z</time>
  <course>247.58</course>
  <speed>0.01</speed>
  <fix>3d</fix>
</trkpt>
<trkpt lat="40.0712915" lon="-105.2300513">
  <ele>1583.0</ele>
  <time>2026-08-28T17:52:12Z</time>
  <course>199.39</course>
  <speed>0.0</speed>
  <fix>3d</fix>
</trkpt>
<trkpt lat="40.0712917" lon="-105.2300513">
  <ele>1583.1</ele>
  <time>2026-08-28T17:52:12Z</time>
  <course>247.57</course>
  <speed>0.01</speed>
  <fix>3d</fix>
</trkpt>
<trkpt lat="40.0712915" lon="-105.2300513">
  <ele>1583.0</ele>
  <time>2026-08-28T17:52:12Z</time>
  <course>199.36</course>
  <speed>0.0</speed>
  <fix>3d</fix>
</trkpt>
<trkpt lat="40.0712917" lon="-105.2300513">
  <ele>1583.1</ele>
  <time>2026-08-28T17:52:12Z</time>
  <course>247.56</course>
  <speed>0.0</speed>
  <fix>3d</fix>
</trkpt>
<trkpt lat="40.0712915" lon="-105.2300513">
  <ele>1583.0</ele>
  <time>2026-08-28T17:52:12Z</time>
  <course>199.36</course>
  <speed>0.0</speed>
  <fix>3d</fix>
</trkpt>
<trkpt lat="40.0712917" lon="-105.2300513">
  <ele>1583.1</ele>
  <time>2026-08-28T17:52:12Z</time>
  <course>247.54</course>
  <speed>0.0</speed>
  <fix>3d</fix>
</trkpt>
<trkpt lat="40.0712915" lon="-105.2300513">
  <ele>1583.0</ele>
  <time>2026-08-28T17:52:12Z</time>
  <course>199.34</course>
  <speed>0.0</speed>
  <fix>3d</fix>
</trkpt>
<trkpt lat="40.0712917" lon="-105.2300513">
  <ele>1583.1</ele>
  <time>2026-08-28T17:52:12Z</time>
  <course>247.53</course>
  <speed>0.0</speed>
  <fix>3d</fix>
</trkpt>
<trkpt lat="40.0712915" lon="-105.2300513">
  <ele>1583.0</ele>
  <time>2026-08-28T17:52:12Z</time>
  <course>199.34</course>
  <speed>0.0</speed>
  <fix>3d</fix>
</trkpt>
<trkpt lat="40.0712917" lon="-105.2300513">
  <ele>1583.1</ele>
  <time>2026-08-28T17:52:12Z</time>
  <course>247.53</course>
  <speed>0.0</speed>
  <fix>3d</fix>
</trkpt>
<trkpt lat="40.0712915" lon="-105.2300513">
  <ele>1583.0</ele>
  <time>2026-08-28T17:52:12Z</time>
  <course>199.32</course>
  <speed>0.0</speed>
  <fix>3d</fix>
</trkpt>
<trkpt lat="40.0712916" lon="-105.2300513">
  <ele>1583.1</ele>
  <time>2026-08-28T17:52:12Z</time>
  <course>247.52</course>
  <speed>0.0</speed>
  <fix>3d</fix>
</trkpt>
<trkpt lat="40.0712915" lon="-105.2300513">
  <ele>1583.0</ele>
  <time>2026-08-28T17:52:12Z</time>
  <course>199.32</course>
  <speed>0.0</speed>
  <fix>3d</fix>
</trkpt>
<trkpt lat="40.0712916" lon="-105.2300513">
  <ele>1583.1</ele>
  <time>2026-08-28T17:52:12Z</time>
  <course>247.51</course>
  <speed>0.0</speed>
  <fix>3d</fix>
</trkpt>
<trkpt lat="40.0712915" lon="-105.2300513">
  <ele>1583.0</ele>
  <time>2026-08-28T17:52:12Z</time>
  <course>199.32</course>
  <speed>0.0</speed>
  <fix>3d</fix>
</trkpt>
<trkpt lat="40.0712916" lon="-105.2300513">
  <ele>1583.11</ele>
  <time>2026-08-28T17:52:12Z</time>
  <course>247.51</course>
  <speed>0.0</speed>
  <fix>3d</fix>
</trkpt>
<trkpt lat="40.0712915" lon="-105.2300514">
  <ele>1583.0</ele>
  <time>2026-08-28T17:52:12Z</time>
  <course>199.31</course>
  <speed>0.0</speed>
  <fix>3d</fix>
</trkpt>
<trkpt lat="40.0712916" lon="-105.2300513">
  <ele>1583.11</ele>
  <time>2026-08-28T17:52:12Z</time>
  <course>247.5</course>
  <speed>0.0</speed>
  <fix>3d</fix>
</trkpt>
<trkpt lat="40.0712915" lon="-105.2300514">
  <ele>1583.0</ele>
  <time>2026-08-28T17:52:12Z</time>
  <course>199.31</course>
  <speed>0.0</speed>
  <fix>3d</fix>
</trkpt>
<trkpt lat="40.0712916" lon="-105.2300513">
  <ele>1583.1</ele>
  <time>2026-08-28T17:52:12Z</time>
  <course>247.5</course>
  <speed>0.0</speed>
  <fix>3d</fix>
</trkpt>
<trkpt lat="40.0712915" lon="-105.2300515">
  <ele>1583.0</ele>
  <time>2026-08-28T17:52:12Z</time>
  <course>199.29</course>
  <speed>0.0</speed>
  <fix>3d</fix>
</trkpt>
<trkpt lat="40.0712916" lon="-105.2300513">
  <ele>1583.1</ele>
  <time>2026-08-28T17:52:12Z</time>
  <course>247.5</course>
  <speed>0.0</speed>
  <fix>3d</fix>
</trkpt>
<trkpt lat="40.0712915" lon="-105.2300515">
  <ele>1583.0</ele>
  <time>2026-08-28T17:52:12Z</time>
  <course>199.29</course>
  <speed>0.0</speed>
  <fix>3d</fix>
</trkpt>
<trkpt lat="40.0712916" lon="-105.2300513">
  <ele>1583.1</ele>
  <time>2026-08-28T17:52:12Z</time>
  <course>247.5</course>
  <speed>0.0</speed>
  <fix>3d</fix>
</trkpt>
<trkpt lat="40.0712915" lon="-105.2300515">
  <ele>1583.0</ele>
  <time>2026-08-28T17:52:12Z</time>
  <course>199.28</course>
  <speed>0.0</speed>
  <fix>3d</fix>
</trkpt>
<trkpt lat="40.0712916" lon="-105.2300513">
  <ele>1583.1</ele>
  <time>2026-08-28T17:52:12Z</time>
  <course>247.5</course>
  <speed>0.0</speed>
  <fix>3d</fix>
</trkpt>
<trkpt lat="40.0712915" lon="-105.2300515">
  <ele>1583.0</ele>
  <time>2026-08-28T17:52:12Z</time>
  <course>199.27</course>
  <speed>0.0</speed>
  <fix>3d</fix>
</trkpt>
<trkpt lat="40.0712916" lon="-105.2300513">
  <ele>1583.1</ele>
  <time>2026-08-28T17:52:12Z</time>
  <course>247.5</course>
  <speed>0.0</speed>
  <fix>3d</fix>
</trkpt>
<trkpt lat="40.0712915" lon="-105.2300515">
  <ele>1583.0</ele>
  <time>2026-08-28T17:52:12Z</time>
  <course>199.27</course>
  <speed>0.0</speed>
  <fix>3d</fix>
</trkpt>
<trkpt lat="40.0712916" lon="-105.2300513">
  <ele>1583.11</ele>
  <time>2026-08-28T17:52:12Z</time>
  <course>247.5</course>
  <speed>0.0</speed>
  <fix>3d</fix>
</trkpt>
<trkpt lat="40.0712915" lon="-105.2300515">
  <ele>1583.0</ele>
  <time>2026-08-28T17:52:12Z</time>
  <course>199.26</course>
  <speed>0.0</speed>
  <fix>3d</fix>
</trkpt>
<trkpt lat="40.0712916" lon="-105.2300513">
  <ele>1583.11</ele>
  <time>2026-08-28T17:52:12Z</time>
  <course>247.5</course>
  <speed>0.0</speed>
  <fix>3d</fix>
</trkpt>
<trkpt lat="40.0712915" lon="-105.2300515">
  <ele>1583.0</ele>
  <time>2026-08-28T17:52:12Z</time>
  <course>199.26</course>
  <speed>0.0</speed>
  <fix>3d</fix>
</trkpt>
<trkpt lat="40.0712916" lon="-105.2300513">
  <ele>1583.11</ele>
  <time>2026-08-28T17:52:12Z</time>
  <course>247.51</course>
  <speed>0.0</speed>
  <fix>3d</fix>
</trkpt>
<trkpt lat="40.0712915" lon="-105.2300515">
  <ele>1583.0</ele>
  <time>2026-08-28T17:52:12Z</time>
  <course>199.25</course>
  <speed>0.0</speed>
  <fix>3d</fix>
</trkpt>
<trkpt lat="40.0712916" lon="-105.2300514">
  <ele>1583.11</ele>
  <time>2026-08-28T17:52:12Z</time>
  <course>247.51</course>
  <speed>0.0</speed>
  <fix>3d</fix>
</trkpt>
<trkpt lat="40.0712915" lon="-105.2300515">
  <ele>1583.0</ele>
  <time>2026-08-28T17:52:12Z</time>
  <course>199.25</course>
  <speed>0.0</speed>
  <fix>3d</fix>
</trkpt>
<trkpt lat="40.0712916" lon="-105.2300514">
  <ele>1583.11</ele>
  <time>2026-08-28T17:52:12Z</time>
  <course>247.52</course>
  <speed>0.0</speed>
  <fix>3d</fix>
</trkpt>
<trkpt lat="40.0712915" lon="-105.2300515">
  <ele>1583.0</ele>
  <time>2026-08-28T17:52:12Z</time>
  <course>199.24</course>
  <speed>0.0</speed>
  <fix>3d</fix>
</trkpt>
<trkpt lat="40.0712916" lon="-105.2300514">
  <ele>1583.11</ele>
  <time>2026-08-28T17:52:12Z</time>
  <course>247.5</course>
  <speed>0.0</speed>
  <fix>3d</fix>
</trkpt>
<trkpt lat="40.0712915" lon="-105.2300515">
  <ele>1583.0</ele>
  <time>2026-08-28T17:52:12Z</time>
  <course>199.24</course>
  <speed>0.0</speed>
  <fix>3d</fix>
</trkpt>
<trkpt lat="40.0712916" lon="-105.2300514">
  <ele>1583.11</ele>
  <time>2026-08-28T17:52:12Z</time>
  <course>247.41</course>
  <speed>0.0</speed>
  <fix>3d</fix>
</trkpt>
<trkpt lat="40.0712915" lon="-105.2300515">
  <ele>1583.0</ele>
  <time>2026-08-28T17:52:12Z</time>
  <course>199.21</course>
  <speed>0.0</speed>
  <fix>3d</fix>
</trkpt>
<trkpt lat="40.0712916" lon="-105.2300514">
  <ele>1583.11</ele>
  <time>2026-08-28T17:52:12Z</time>
  <course>247.3</course>
  <speed>0.0</speed>
  <fix>3d</fix>
</trkpt>
<trkpt lat="40.0712915" lon="-105.2300515">
  <ele>1583.0</ele>
  <time>2026-08-28T17:52:12Z</time>
  <course>199.21</course>
  <speed>0.0</speed>
  <fix>3d</fix>
</trkpt>
<trkpt lat="40.0712916" lon="-105.2300514">
  <ele>1583.11</ele>
  <time>2026-08-28T17:52:12Z</time>
  <course>247.22</course>
  <speed>0.0</speed>
  <fix>3d</fix>
</trkpt>
<trkpt lat="40.0712915" lon="-105.2300515">
  <ele>1583.0</ele>
  <time>2026-08-28T17:52:12Z</time>
  <course>199.14</course>
  <speed>0.0</speed>
  <fix>3d</fix>
</trkpt>
<trkpt lat="40.0712916" lon="-105.2300514">
  <ele>1583.11</ele>
  <time>2026-08-28T17:52:12Z</time>
  <course>247.16</course>
  <speed>0.0</speed>
  <fix>3d</fix>
</trkpt>
<trkpt lat="40.0712915" lon="-105.2300515">
  <ele>1583.0</ele>
  <time>2026-08-28T17:52:12Z</time>
  <course>199.14</course>
  <speed>0.0</speed>
  <fix>3d</fix>
</trkpt>
<trkpt lat="40.0712916" lon="-105.2300514">
  <ele>1583.11</ele>
  <time>2026-08-28T17:52:12Z</time>
  <course>247.12</course>
  <speed>0.0</speed>
  <fix>3d</fix>
</trkpt>
<trkpt lat="40.0712915" lon="-105.2300515">
  <ele>1583.0</ele>
  <time>2026-08-28T17:52:12Z</time>
  <course>199.06</course>
  <speed>0.0</speed>
  <fix>3d</fix>
</trkpt>
<trkpt lat="40.0712916" lon="-105.2300514">
  <ele>1583.11</ele>
  <time>2026-08-28T17:52:12Z</time>
  <course>247.09</course>
  <speed>0.0</speed>
  <fix>3d</fix>
</trkpt>
<trkpt lat="40.0712915" lon="-105.2300515">
  <ele>1583.0</ele>
  <time>2026-08-28T17:52:12Z</time>
  <course>199.06</course>
  <speed>0.0</speed>
  <fix>3d</fix>
</trkpt>
<trkpt lat="40.0712916" lon="-105.2300514">
  <ele>1583.11</ele>
  <time>2026-08-28T17:52:12Z</time>
  <course>247.07</course>
  <speed>0.01</speed>
  <fix>3d</fix>
</trkpt>
<trkpt lat="40.0712915" lon="-105.2300515">
  <ele>1583.0</ele>
  <time>2026-08-28T17:52:12Z</time>
  <course>199.06</course>
  <speed>0.0</speed>
  <fix>3d</fix>
</trkpt>
<trkpt lat="40.0712916" lon="-105.2300514">
  <ele>1583.11</ele>
  <time>2026-08-28T17:52:12Z</time>
  <course>247.04</course>
  <speed>0.01</speed>
  <fix>3d</fix>
</trkpt>
<trkpt lat="40.0712915" lon="-105.2300515">
  <ele>1583.0</ele>
  <time>2026-08-28T17:52:12Z</time>
  <course>199.02</course>
  <speed>0.0</speed>
  <fix>3d</fix>
</trkpt>
<trkpt lat="40.0712916" lon="-105.2300514">
  <ele>1583.11</ele>
  <time>2026-08-28T17:52:12Z</time>
  <course>247.01</course>
  <speed>0.01</speed>
  <fix>3d</fix>
</trkpt>
<trkpt lat="40.0712915" lon="-105.2300515">
  <ele>1583.0</ele>
  <time>2026-08-28T17:52:12Z</time>
  <course>199.02</course>
  <speed>0.0</speed>
  <fix>3d</fix>
</trkpt>
<trkpt lat="40.0712916" lon="-105.2300514">
  <ele>1583.11</ele>
  <time>2026-08-28T17:52:12Z</time>
  <course>246.96</course>
  <speed>0.01</speed>
  <fix>3d</fix>
</trkpt>
<trkpt lat="40.0712915" lon="-105.2300515">
  <ele>1583.0</ele>
  <time>2026-08-28T17:52:12Z</time>
  <course>198.99</course>
  <speed>0.0</speed>
  <fix>3d</fix>
</trkpt>
<trkpt lat="40.0712916" lon="-105.2300514">
  <ele>1583.11</ele>
  <time>2026-08-28T17:52:12Z</time>
  <course>246.89</course>
  <speed>0.01</speed>
  <fix>3d</fix>
</trkpt>
<trkpt lat="40.0712915" lon="-105.2300515">
  <ele>1583.0</ele>
  <time>2026-08-28T17:52:12Z</time>
  <course>198.99</course>
  <speed>0.0</speed>
  <fix>3d</fix>
</trkpt>
<trkpt lat="40.0712916" lon="-105.2300514">
  <ele>1583.11</ele>
  <time>2026-08-28T17:52:12Z</time>
  <course>246.82</course>
  <speed>0.01</speed>
  <fix>3d</fix>
</trkpt>
<trkpt lat="40.0712915" lon="-105.2300515">
  <ele>1583.0</ele>
  <time>2026-08-28T17:52:12Z</time>
  <course>198.95</course>
  <speed>0.0</speed>
  <fix>3d</fix>
</trkpt>
<trkpt lat="40.0712916" lon="-105.2300514">
  <ele>1583.11</ele>
  <time>2026-08-28T17:52:12Z</time>
  <course>246.75</course>
  <speed>0.01</speed>
  <fix>3d</fix>
</trkpt>
<trkpt lat="40.0712915" lon="-105.2300515">
  <ele>1583.0</ele>
  <time>2026-08-28T17:52:12Z</time>
  <course>198.88</course>
  <speed>0.0</speed>
  <fix>3d</fix>
</trkpt>
<trkpt lat="40.0712916" lon="-105.2300514">
  <ele>1583.11</ele>
  <time>2026-08-28T17:52:12Z</time>
  <course>246.67</course>
  <speed>0.01</speed>
  <fix>3d</fix>
</trkpt>
<trkpt lat="40.0712915" lon="-105.2300515">
  <ele>1583.0</ele>
  <time>2026-08-28T17:52:12Z</time>
  <course>198.88</course>
  <speed>0.0</speed>
  <fix>3d</fix>
</trkpt>
<trkpt lat="40.0712916" lon="-105.2300514">
  <ele>1583.11</ele>
  <time>2026-08-28T17:52:12Z</time>
  <course>246.58</course>
  <speed>0.01</speed>
  <fix>3d</fix>
</trkpt>
<trkpt lat="40.0712915" lon="-105.2300515">
  <ele>1583.0</ele>
  <time>2026-08-28T17:52:12Z</time>
  <course>198.81</course>
  <speed>0.0</speed>
  <fix>3d</fix>
</trkpt>
<trkpt lat="40.0712916" lon="-105.2300514">
  <ele>1583.12</ele>
  <time>2026-08-28T17:52:12Z</time>
  <course>246.49</course>
  <speed>0.01</speed>
  <fix>3d</fix>
</trkpt>
<trkpt lat="40.0712915" lon="-105.2300515">
  <ele>1583.0</ele>
  <time>2026-08-28T17:52:12Z</time>
  <course>198.81</course>
  <speed>0.0</speed>
  <fix>3d</fix>
</trkpt>
<trkpt lat="40.0712916" lon="-105.2300514">
  <ele>1583.12</ele>
  <time>2026-08-28T17:52:12Z</time>
  <course>246.38</course>
  <speed>0.01</speed>
  <fix>3d</fix>
</trkpt>
<trkpt lat="40.0712914" lon="-105.2300515">
  <ele>1583.0</ele>
  <time>2026-08-28T17:52:12Z</time>
  <course>198.72</course>
  <speed>0.0</speed>
  <fix>3d</fix>
</trkpt>
<trkpt lat="40.0712916" lon="-105.2300514">
  <ele>1583.12</ele>
  <time>2026-08-28T17:52:12Z</time>
  <course>246.26</course>
  <speed>0.01</speed>
  <fix>3d</fix>
</trkpt>
<trkpt lat="40.0712914" lon="-105.2300515">
  <ele>1583.0</ele>
  <time>2026-08-28T17:52:12Z</time>
  <course>198.72</course>
  <speed>0.0</speed>
  <fix>3d</fix>
</trkpt>
<trkpt lat="40.0712916" lon="-105.2300514">
  <ele>1583.12</ele>
  <time>2026-08-28T17:52:12Z</time>
  <course>246.13</course>
  <speed>0.01</speed>
  <fix>3d</fix>
</trkpt>
<trkpt lat="40.0712914" lon="-105.2300515">
  <ele>1583.0</ele>
  <time>2026-08-28T17:52:12Z</time>
  <course>198.61</course>
  <speed>0.0</speed>
  <fix>3d</fix>
</trkpt>
<trkpt lat="40.0712916" lon="-105.2300514">
  <ele>1583.12</ele>
  <time>2026-08-28T17:52:12Z</time>
  <course>245.99</course>
  <speed>0.01</speed>
  <fix>3d</fix>
</trkpt>
<trkpt lat="40.0712914" lon="-105.2300515">
  <ele>1583.0</ele>
  <time>2026-08-28T17:52:12Z</time>
  <course>198.61</course>
  <speed>0.0</speed>
  <fix>3d</fix>
</trkpt>
<trkpt lat="40.0712916" lon="-105.2300514">
  <ele>1583.12</ele>
  <time>2026-08-28T17:52:12Z</time>
  <course>245.82</course>
  <speed>0.01</speed>
  <fix>3d</fix>
</trkpt>
<trkpt lat="40.0712914" lon="-105.2300515">
  <ele>1583.0</ele>
  <time>2026-08-28T17:52:12Z</time>
  <course>198.48</course>
  <speed>0.0</speed>
  <fix>3d</fix>
</trkpt>
<trkpt lat="40.0712916" lon="-105.2300514">
  <ele>1583.12</ele>
  <time>2026-08-28T17:52:12Z</time>
  <course>245.64</course>
  <speed>0.01</speed>
  <fix>3d</fix>
</trkpt>
<trkpt lat="40.0712914" lon="-105.2300515">
  <ele>1583.0</ele>
  <time>2026-08-28T17:52:12Z</time>
  <course>198.48</course>
  <speed>0.0</speed>
  <fix>3d</fix>
</trkpt>
<trkpt lat="40.0712916" lon="-105.2300514">
  <ele>1583.12</ele>
  <time>2026-08-28T17:52:12Z</time>
  <course>245.44</course>
  <speed>0.01</speed>
  <fix>3d</fix>
</trkpt>
<trkpt lat="40.0712914" lon="-105.2300515">
  <ele>1583.0</ele>
  <time>2026-08-28T17:52:12Z</time>
  <course>198.31</course>
  <speed>0.0</speed>
  <fix>3d</fix>
</trkpt>
<trkpt lat="40.0712916" lon="-105.2300514">
  <ele>1583.12</ele>
  <time>2026-08-28T17:52:12Z</time>
  <course>245.22</course>
  <speed>0.01</speed>
  <fix>3d</fix>
</trkpt>
<trkpt lat="40.0712914" lon="-105.2300515">
  <ele>1583.0</ele>
  <time>2026-08-28T17:52:12Z</time>
  <course>198.31</course>
  <speed>0.0</speed>
  <fix>3d</fix>
</trkpt>
<trkpt lat="40.0712916" lon="-105.2300514">
  <ele>1583.12</ele>
  <time>2026-08-28T17:52:12Z</time>
  <course>244.97</course>
  <speed>0.01</speed>
  <fix>3d</fix>
</trkpt>
<trkpt lat="40.0712914" lon="-105.2300515">
  <ele>1583.0</ele>
  <time>2026-08-28T17:52:12Z</time>
  <course>198.11</course>
  <speed>0.0</speed>
  <fix>3d</fix>
</trkpt>
<trkpt lat="40.0712916" lon="-105.2300514">
  <ele>1583.12</ele>
  <time>2026-08-28T17:52:12Z</time>
  <course>244.68</course>
  <speed>0.01</speed>
  <fix>3d</fix>
</trkpt>
<trkpt lat="40.0712914" lon="-105.2300515">
  <ele>1583.0</ele>
  <time>2026-08-28T17:52:12Z</time>
  <course>198.11</course>
  <speed>0.0</speed>
  <fix>3d</fix>
</trkpt>
<trkpt lat="40.0712916" lon="-105.2300514">
  <ele>1583.13</ele>
  <time>2026-08-28T17:52:12Z</time>
  <course>244.38</course>
  <speed>0.01</speed>
  <fix>3d</fix>
</trkpt>
<trkpt lat="40.0712914" lon="-105.2300515">
  <ele>1583.0</ele>
  <time>2026-08-28T17:52:12Z</time>
  <course>198.11</course>
  <speed>0.0</speed>
  <fix>3d</fix>
</trkpt>
<trkpt lat="40.0712916" lon="-105.2300514">
  <ele>1583.13</ele>
  <time>2026-08-28T17:52:12Z</time>
  <course>244.03</course>
  <speed>0.01</speed>
  <fix>3d</fix>
</trkpt>
<trkpt lat="40.0712914" lon="-105.2300515">
  <ele>1583.0</ele>
  <time>2026-08-28T17:52:12Z</time>
  <course>197.85</course>
  <speed>0.0</speed>
  <fix>3d</fix>
</trkpt>
<trkpt lat="40.0712916" lon="-105.2300514">
  <ele>1583.13</ele>
  <time>2026-08-28T17:52:12Z</time>
  <course>243.65</course>
  <speed>0.01</speed>
  <fix>3d</fix>
</trkpt>
<trkpt lat="40.0712914" lon="-105.2300515">
  <ele>1583.0</ele>
  <time>2026-08-28T17:52:12Z</time>
  <course>197.85</course>
  <speed>0.0</speed>
  <fix>3d</fix>
</trkpt>
<trkpt lat="40.0712916" lon="-105.2300514">
  <ele>1583.13</ele>
  <time>2026-08-28T17:52:12Z</time>
  <course>243.22</course>
  <speed>0.01</speed>
  <fix>3d</fix>
</trkpt>
<trkpt lat="40.0712914" lon="-105.2300515">
  <ele>1583.0</ele>
  <time>2026-08-28T17:52:12Z</time>
  <course>197.53</course>
  <speed>0.0</speed>
  <fix>3d</fix>
</trkpt>
<trkpt lat="40.0712916" lon="-105.2300514">
  <ele>1583.13</ele>
  <time>2026-08-28T17:52:12Z</time>
  <course>242.75</course>
  <speed>0.01</speed>
  <fix>3d</fix>
</trkpt>
<trkpt lat="40.0712914" lon="-105.2300515">
  <ele>1583.0</ele>
  <time>2026-08-28T17:52:12Z</time>
  <course>197.53</course>
  <speed>0.0</speed>
  <fix>3d</fix>
</trkpt>
<trkpt lat="40.0712916" lon="-105.2300514">
  <ele>1583.13</ele>
  <time>2026-08-28T17:52:12Z</time>
  <course>242.25</course>
  <speed>0.01</speed>
  <fix>3d</fix>
</trkpt>
<trkpt lat="40.0712914" lon="-105.2300515">
  <ele>1583.0</ele>
  <time>2026-08-28T17:52:12Z</time>
  <course>197.13</course>
  <speed>0.0</speed>
  <fix>3d</fix>
</trkpt>
<trkpt lat="40.0712916" lon="-105.2300514">
  <ele>1583.13</ele>
  <time>2026-08-28T17:52:12Z</time>
  <course>241.69</course>
  <speed>0.01</speed>
  <fix>3d</fix>
</trkpt>
<trkpt lat="40.0712914" lon="-105.2300515">
  <ele>1583.0</ele>
  <time>2026-08-28T17:52:12Z</time>
  <course>197.13</course>
  <speed>0.0</speed>
  <fix>3d</fix>
</trkpt>
<trkpt lat="40.0712916" lon="-105.2300514">
  <ele>1583.13</ele>
  <time>2026-08-28T17:52:12Z</time>
  <course>241.08</course>
  <speed>0.01</speed>
  <fix>3d</fix>
</trkpt>
<trkpt lat="40.0712914" lon="-105.2300515">
  <ele>1583.0</ele>
  <time>2026-08-28T17:52:12Z</time>
  <course>196.64</course>
  <speed>0.0</speed>
  <fix>3d</fix>
</trkpt>
<trkpt lat="40.0712916" lon="-105.2300514">
  <ele>1583.13</ele>
  <time>2026-08-28T17:52:12Z</time>
  <course>240.42</course>
  <speed>0.02</speed>
  <fix>3d</fix>
</trkpt>
<trkpt lat="40.0712914" lon="-105.2300515">
  <ele>1583.0</ele>
  <time>2026-08-28T17:52:12Z</time>
  <course>196.04</course>
  <speed>0.0</speed>
  <fix>3d</fix>
</trkpt>
<trkpt lat="40.0712916" lon="-105.2300514">
  <ele>1583.13</ele>
  <time>2026-08-28T17:52:12Z</time>
  <course>239.71</course>
  <speed>0.02</speed>
  <fix>3d</fix>
</trkpt>
<trkpt lat="40.0712914" lon="-105.2300515">
  <ele>1583.0</ele>
  <time>2026-08-28T17:52:12Z</time>
  <course>196.04</course>
  <speed>0.0</speed>
  <fix>3d</fix>
</trkpt>
<trkpt lat="40.0712916" lon="-105.2300514">
  <ele>1583.12</ele>
  <time>2026-08-28T17:52:12Z</time>
  <course>238.94</course>
  <speed>0.02</speed>
  <fix>3d</fix>
</trkpt>
<trkpt lat="40.0712914" lon="-105.2300515">
  <ele>1583.0</ele>
  <time>2026-08-28T17:52:12Z</time>
  <course>195.32</course>
  <speed>0.0</speed>
  <fix>3d</fix>
</trkpt>
<trkpt lat="40.0712916" lon="-105.2300514">
  <ele>1583.12</ele>
  <time>2026-08-28T17:52:12Z</time>
  <course>238.09</course>
  <speed>0.02</speed>
  <fix>3d</fix>
</trkpt>
<trkpt lat="40.0712914" lon="-105.2300515">
  <ele>1583.0</ele>
  <time>2026-08-28T17:52:12Z</time>
  <course>195.32</course>
  <speed>0.0</speed>
  <fix>3d</fix>
</trkpt>
<trkpt lat="40.0712916" lon="-105.2300514">
  <ele>1583.12</ele>
  <time>2026-08-28T17:52:12Z</time>
  <course>237.17</course>
  <speed>0.02</speed>
  <fix>3d</fix>
</trkpt>
<trkpt lat="40.0712914" lon="-105.2300515">
  <ele>1583.0</ele>
  <time>2026-08-28T17:52:12Z</time>
  <course>194.45</course>
  <speed>0.0</speed>
  <fix>3d</fix>
</trkpt>
<trkpt lat="40.0712916" lon="-105.2300514">
  <ele>1583.12</ele>
  <time>2026-08-28T17:52:12Z</time>
  <course>236.16</course>
  <speed>0.02</speed>
  <fix>3d</fix>
</trkpt>
<trkpt lat="40.0712914" lon="-105.2300515">
  <ele>1583.0</ele>
  <time>2026-08-28T17:52:12Z</time>
  <course>194.45</course>
  <speed>0.0</speed>
  <fix>3d</fix>
</trkpt>
<trkpt lat="40.0712916" lon="-105.2300514">
  <ele>1583.12</ele>
  <time>2026-08-28T17:52:12Z</time>
  <course>235.07</course>
  <speed>0.02</speed>
  <fix>3d</fix>
</trkpt>
<trkpt lat="40.0712914" lon="-105.2300515">
  <ele>1583.0</ele>
  <time>2026-08-28T17:52:12Z</time>
  <course>193.39</course>
  <speed>0.0</speed>
  <fix>3d</fix>
</trkpt>
<trkpt lat="40.0712916" lon="-105.2300514">
  <ele>1583.12</ele>
  <time>2026-08-28T17:52:12Z</time>
  <course>233.88</course>
  <speed>0.02</speed>
  <fix>3d</fix>
</trkpt>
<trkpt lat="40.0712914" lon="-105.2300515">
  <ele>1583.0</ele>
  <time>2026-08-28T17:52:12Z</time>
  <course>193.39</course>
  <speed>0.0</speed>
  <fix>3d</fix>
</trkpt>
<trkpt lat="40.0712916" lon="-105.2300514">
  <ele>1583.12</ele>
  <time>2026-08-28T17:52:12Z</time>
  <course>232.59</course>
  <speed>0.02</speed>
  <fix>3d</fix>
</trkpt>
<trkpt lat="40.0712914" lon="-105.2300515">
  <ele>1583.0</ele>
  <time>2026-08-28T17:52:12Z</time>
  <course>192.1</course>
  <speed>0.0</speed>
  <fix>3d</fix>
</trkpt>
<trkpt lat="40.0712916" lon="-105.2300514">
  <ele>1583.12</ele>
  <time>2026-08-28T17:52:12Z</time>
  <course>231.19</course>
  <speed>0.02</speed>
  <fix>3d</fix>
</trkpt>
<trkpt lat="40.0712914" lon="-105.2300515">
  <ele>1583.0</ele>
  <time>2026-08-28T17:52:12Z</time>
  <course>192.1</course>
  <speed>0.0</speed>
  <fix>3d</fix>
</trkpt>
<trkpt lat="40.0712916" lon="-105.2300514">
  <ele>1583.12</ele>
  <time>2026-08-28T17:52:12Z</time>
  <course>229.67</course>
  <speed>0.02</speed>
  <fix>3d</fix>
</trkpt>
<trkpt lat="40.0712914" lon="-105.2300515">
  <ele>1583.0</ele>
  <time>2026-08-28T17:52:12Z</time>
  <course>190.53</course>
  <speed>0.0</speed>
  <fix>3d</fix>
</trkpt>
<trkpt lat="40.0712916" lon="-105.2300514">
  <ele>1583.12</ele>
  <time>2026-08-28T17:52:12Z</time>
  <course>228.03</course>
  <speed>0.02</speed>
  <fix>3d</fix>
</trkpt>
<trkpt lat="40.0712914" lon="-105.2300515">
  <ele>1583.0</ele>
  <time>2026-08-28T17:52:12Z</time>
  <course>190.53</course>
  <speed>0.0</speed>
  <fix>3d</fix>
</trkpt>
<trkpt lat="40.0712916" lon="-105.2300514">
  <ele>1583.12</ele>
  <time>2026-08-28T17:52:12Z</time>
  <course>226.24</course>
  <speed>0.02</speed>
  <fix>3d</fix>
</trkpt>
<trkpt lat="40.0712913" lon="-105.2300515">
  <ele>1583.0</ele>
  <time>2026-08-28T17:52:12Z</time>
  <course>188.61</course>
  <speed>0.0</speed>
  <fix>3d</fix>
</trkpt>
<trkpt lat="40.0712916" lon="-105.2300514">
  <ele>1583.12</ele>
  <time>2026-08-28T17:52:12Z</time>
  <course>224.31</course>
  <speed>0.02</speed>
  <fix>3d</fix>
</trkpt>
<trkpt lat="40.0712913" lon="-105.2300515">
  <ele>1583.0</ele>
  <time>2026-08-28T17:52:12Z</time>
  <course>188.61</course>
  <speed>0.0</speed>
  <fix>3d</fix>
</trkpt>
<trkpt lat="40.0712916" lon="-105.2300514">
  <ele>1583.12</ele>
  <time>2026-08-28T17:52:12Z</time>
  <course>222.21</course>
  <speed>0.02</speed>
  <fix>3d</fix>
</trkpt>
<trkpt lat="40.0712913" lon="-105.2300515">
  <ele>1583.0</ele>
  <time>2026-08-28T17:52:12Z</time>
  <course>188.61</course>
  <speed>0.0</speed>
  <fix>3d</fix>
</trkpt>
<trkpt lat="40.0712916" lon="-105.2300514">
  <ele>1583.11</ele>
  <time>2026-08-28T17:52:12Z</time>
  <course>219.95</course>
  <speed>0.02</speed>
  <fix>3d</fix>
</trkpt>
<trkpt lat="40.0712913" lon="-105.2300515">
  <ele>1583.0</ele>
  <time>2026-08-28T17:52:12Z</time>
  <course>186.27</course>
  <speed>0.0</speed>
  <fix>3d</fix>
</trkpt>
<trkpt lat="40.0712916" lon="-105.2300514">
  <ele>1583.11</ele>
  <time>2026-08-28T17:52:12Z</time>
  <course>217.51</course>
  <speed>0.02</speed>
  <fix>3d</fix>
</trkpt>
<trkpt lat="40.0712913" lon="-105.2300515">
  <ele>1583.0</ele>
  <time>2026-08-28T17:52:12Z</time>
  <course>186.27</course>
  <speed>0.0</speed>
  <fix>3d</fix>
</trkpt>
<trkpt lat="40.0712916" lon="-105.2300514">
  <ele>1583.12</ele>
  <time>2026-08-28T17:52:12Z</time>
  <course>214.87</course>
  <speed>0.02</speed>
  <fix>3d</fix>
</trkpt>
<trkpt lat="40.0712913" lon="-105.2300515">
  <ele>1583.0</ele>
  <time>2026-08-28T17:52:12Z</time>
  <course>183.42</course>
  <speed>0.0</speed>
  <fix>3d</fix>
</trkpt>
<trkpt lat="40.0712916" lon="-105.2300514">
  <ele>1583.12</ele>
  <time>2026-08-28T17:52:12Z</time>
  <course>212.04</course>
  <speed>0.02</speed>
  <fix>3d</fix>
</trkpt>
<trkpt lat="40.0712913" lon="-105.2300515">
  <ele>1583.0</ele>
  <time>2026-08-28T17:52:12Z</time>
  <course>183.42</course>
  <speed>0.0</speed>
  <fix>3d</fix>
</trkpt>
<trkpt lat="40.0712916" lon="-105.2300514">
  <ele>1583.12</ele>
  <time>2026-08-28T17:52:12Z</time>
  <course>208.99</course>
  <speed>0.02</speed>
  <fix>3d</fix>
</trkpt>
<trkpt lat="40.0712913" lon="-105.2300515">
  <ele>1583.0</ele>
  <time>2026-08-28T17:52:12Z</time>
  <course>179.96</course>
  <speed>0.0</speed>
  <fix>3d</fix>
</trkpt>
<trkpt lat="40.0712916" lon="-105.2300514">
  <ele>1583.12</ele>
  <time>2026-08-28T17:52:12Z</time>
  <course>205.79</course>
  <speed>0.02</speed>
  <fix>3d</fix>
</trkpt>
<trkpt lat="40.0712913" lon="-105.2300515">
  <ele>1583.0</ele>
  <time>2026-08-28T17:52:12Z</time>
  <course>175.84</course>
  <speed>0.0</speed>
  <fix>3d</fix>
</trkpt>
<trkpt lat="40.0712916" lon="-105.2300514">
  <ele>1583.12</ele>
  <time>2026-08-28T17:52:12Z</time>
  <course>202.61</course>
  <speed>0.02</speed>
  <fix>3d</fix>
</trkpt>
<trkpt lat="40.0712913" lon="-105.2300515">
  <ele>1583.0</ele>
  <time>2026-08-28T17:52:12Z</time>
  <course>175.84</course>
  <speed>0.0</speed>
  <fix>3d</fix>
</trkpt>
<trkpt lat="40.0712916" lon="-105.2300514">
  <ele>1583.12</ele>
  <time>2026-08-28T17:52:12Z</time>
  <course>199.44</course>
  <speed>0.02</speed>
  <fix>3d</fix>
</trkpt>
<trkpt lat="40.0712913" lon="-105.2300515">
  <ele>1583.0</ele>
  <time>2026-08-28T17:52:12Z</time>
  <course>171.26</course>
  <speed>0.0</speed>
  <fix>3d</fix>
</trkpt>
<trkpt lat="40.0712916" lon="-105.2300514">
  <ele>1583.12</ele>
  <time>2026-08-28T17:52:12Z</time>
  <course>196.29</course>
  <speed>0.02</speed>
  <fix>3d</fix>
</trkpt>
<trkpt lat="40.0712913" lon="-105.2300515">
  <ele>1583.0</ele>
  <time>2026-08-28T17:52:12Z</time>
  <course>171.26</course>
  <speed>0.0</speed>
  <fix>3d</fix>
</trkpt>
<trkpt lat="40.0712916" lon="-105.2300514">
  <ele>1583.13</ele>
  <time>2026-08-28T17:52:12Z</time>
  <course>193.11</course>
  <speed>0.02</speed>
  <fix>3d</fix>
</trkpt>
<trkpt lat="40.0712913" lon="-105.2300515">
  <ele>1583.0</ele>
  <time>2026-08-28T17:52:12Z</time>
  <course>166.48</course>
  <speed>0.0</speed>
  <fix>3d</fix>
</trkpt>
<trkpt lat="40.0712916" lon="-105.2300514">
  <ele>1583.13</ele>
  <time>2026-08-28T17:52:12Z</time>
  <course>189.94</course>
  <speed>0.02</speed>
  <fix>3d</fix>
</trkpt>
<trkpt lat="40.0712913" lon="-105.2300515">
  <ele>1583.0</ele>
  <time>2026-08-28T17:52:12Z</time>
  <course>166.48</course>
  <speed>0.0</speed>
  <fix>3d</fix>
</trkpt>
<trkpt lat="40.0712916" lon="-105.2300514">
  <ele>1583.13</ele>
  <time>2026-08-28T17:52:12Z</time>
  <course>186.76</course>
  <speed>0.02</speed>
  <fix>3d</fix>
</trkpt>
<trkpt lat="40.0712913" lon="-105.2300515">
  <ele>1583.0</ele>
  <time>2026-08-28T17:52:12Z</time>
  <course>161.57</course>
  <speed>0.0</speed>
  <fix>3d</fix>
</trkpt>
<trkpt lat="40.0712916" lon="-105.2300514">
  <ele>1583.14</ele>
  <time>2026-08-28T17:52:12Z</time>
  <course>183.56</course>
  <speed>0.02</speed>
  <fix>3d</fix>
</trkpt>
<trkpt lat="40.0712913" lon="-105.2300515">
  <ele>1583.0</ele>
  <time>2026-08-28T17:52:12Z</time>
  <course>161.57</course>
  <speed>0.0</speed>
  <fix>3d</fix>
</trkpt>
<trkpt lat="40.0712916" lon="-105.2300514">
  <ele>1583.14</ele>
  <time>2026-08-28T17:52:12Z</time>
  <course>180.39</course>
  <speed>0.02</speed>
  <fix>3d</fix>
</trkpt>
<trkpt lat="40.0712913" lon="-105.2300515">
  <ele>1583.0</ele>
  <time>2026-08-28T17:52:12Z</time>
  <course>156.53</course>
  <speed>0.0</speed>
  <fix>3d</fix>
</trkpt>
<trkpt lat="40.0712916" lon="-105.2300514">
  <ele>1583.14</ele>
  <time>2026-08-28T17:52:12Z</time>
  <course>177.21</course>
  <speed>0.02</speed>
  <fix>3d</fix>
</trkpt>
<trkpt lat="40.0712913" lon="-105.2300515">
  <ele>1583.0</ele>
  <time>2026-08-28T17:52:12Z</time>
  <course>156.53</course>
  <speed>0.0</speed>
  <fix>3d</fix>
</trkpt>
<trkpt lat="40.0712915" lon="-105.2300514">
  <ele>1583.14</ele>
  <time>2026-08-28T17:52:12Z</time>
  <course>174.05</course>
  <speed>0.02</speed>
  <fix>3d</fix>
</trkpt>
<trkpt lat="40.0712913" lon="-105.2300515">
  <ele>1583.0</ele>
  <time>2026-08-28T17:52:12Z</time>
  <course>151.39</course>
  <speed>0.0</speed>
  <fix>3d</fix>
</trkpt>
<trkpt lat="40.0712915" lon="-105.2300514">
  <ele>1583.15</ele>
  <time>2026-08-28T17:52:12Z</time>
  <course>170.88</course>
  <speed>0.02</speed>
  <fix>3d</fix>
</trkpt>
<trkpt lat="40.0712913" lon="-105.2300515">
  <ele>1583.0</ele>
  <time>2026-08-28T17:52:12Z</time>
  <course>151.39</course>
  <speed>0.0</speed>
  <fix>3d</fix>
</trkpt>
<trkpt lat="40.0712915" lon="-105.2300514">
  <ele>1583.15</ele>
  <time>2026-08-28T17:52:12Z</time>
  <course>167.72</course>
  <speed>0.02</speed>
  <fix>3d</fix>
</trkpt>
<trkpt lat="40.0712913" lon="-105.2300515">
  <ele>1583.0</ele>
  <time>2026-08-28T17:52:12Z</time>
  <course>146.16</course>
  <speed>0.0</speed>
  <fix>3d</fix>
</trkpt>
<trkpt lat="40.0712915" lon="-105.2300514">
  <ele>1583.15</ele>
  <time>2026-08-28T17:52:12Z</time>
  <course>164.56</course>
  <speed>0.02</speed>
  <fix>3d</fix>
</trkpt>
<trkpt lat="40.0712913" lon="-105.2300515">
  <ele>1583.0</ele>
  <time>2026-08-28T17:52:12Z</time>
  <course>146.16</course>
  <speed>0.0</speed>
  <fix>3d</fix>
</trkpt>
<trkpt lat="40.0712915" lon="-105.2300514">
  <ele>1583.15</ele>
  <time>2026-08-28T17:52:12Z</time>
  <course>161.4</course>
  <speed>0.02</speed>
  <fix>3d</fix>
</trkpt>
<trkpt lat="40.0712913" lon="-105.2300515">
  <ele>1583.0</ele>
  <time>2026-08-28T17:52:12Z</time>
  <course>146.16</course>
  <speed>0.0</speed>
  <fix>3d</fix>
</trkpt>
<trkpt lat="40.0712915" lon="-105.2300514">
  <ele>1583.15</ele>
  <time>2026-08-28T17:52:12Z</time>
  <course>158.24</course>
  <speed>0.02</speed>
  <fix>3d</fix>
</trkpt>
<trkpt lat="40.0712912" lon="-105.2300515">
  <ele>1583.0</ele>
  <time>2026-08-28T17:52:12Z</time>
  <course>140.83</course>
  <speed>0.0</speed>
  <fix>3d</fix>
</trkpt>
<trkpt lat="40.0712915" lon="-105.2300514">
  <ele>1583.15</ele>
  <time>2026-08-28T17:52:12Z</time>
  <course>155.11</course>
  <speed>0.01</speed>
  <fix>3d</fix>
</trkpt>
<trkpt lat="40.0712912" lon="-105.2300515">
  <ele>1583.0</ele>
  <time>2026-08-28T17:52:12Z</time>
  <course>140.83</course>
  <speed>0.0</speed>
  <fix>3d</fix>
</trkpt>
<trkpt lat="40.0712915" lon="-105.2300514">
  <ele>1583.15</ele>
  <time>2026-08-28T17:52:12Z</time>
  <course>152.08</course>
  <speed>0.08602325267042626</speed>
  <fix>3d</fix>
</trkpt>
<trkpt lat="40.0712912" lon="-105.2300515">
  <ele>1583.0</ele>
  <time>2026-08-28T17:52:12Z</time>
  <course>146.98</course>
  <speed>0.01</speed>
  <fix>3d</fix>
</trkpt>
<trkpt lat="40.0712913" lon="-105.2300514">
  <ele>1583.15</ele>
  <time>2026-08-28T17:52:12Z</time>
  <course>149.11</course>
  <speed>0.23853720883753127</speed>
  <fix>3d</fix>
</trkpt>
<trkpt lat="40.0712912" lon="-105.2300515">
  <ele>1583.0</ele>
  <time>2026-08-28T17:52:12Z</time>
  <course>146.98</course>
  <speed>0.01</speed>
  <fix>3d</fix>
</trkpt>
<trkpt lat="40.071291" lon="-105.2300511">
  <ele>1583.15</ele>
  <time>2026-08-28T17:52:12Z</time>
  <course>146.2</course>
  <speed>0.4301162633521314</speed>
  <fix>3d</fix>
</trkpt>
<trkpt lat="40.071291" lon="-105.2300514">
  <ele>1583.0</ele>
  <time>2026-08-28T17:52:12Z</time>
  <course>147.47</course>
  <speed>0.15</speed>
  <fix>3d</fix>
</trkpt>
<trkpt lat="40.0712906" lon="-105.2300507">
  <ele>1583.15</ele>
  <time>2026-08-28T17:52:12Z</time>
  <course>143.32</course>
  <speed>0.6481512169239521</speed>
  <fix>3d</fix>
</trkpt>
<trkpt lat="40.071291" lon="-105.2300514">
  <ele>1583.0</ele>
  <time>2026-08-28T17:52:12Z</time>
  <course>147.47</course>
  <speed>0.15</speed>
  <fix>3d</fix>
</trkpt>
<trkpt lat="40.07129" lon="-105.2300501">
  <ele>1583.15</ele>
  <time>2026-08-28T17:52:12Z</time>
  <course>140.46</course>
  <speed>0.8796590248499698</speed>
  <fix>3d</fix>
</trkpt>
<trkpt lat="40.0712906" lon="-105.2300511">
  <ele>1583.0</ele>
  <time>2026-08-28T17:52:12Z</time>
  <course>143.43</course>
  <speed>0.47</speed>
  <fix>3d</fix>
</trkpt>
<trkpt lat="40.0712892" lon="-105.2300493">
  <ele>1583.15</ele>
  <time>2026-08-28T17:52:12Z</time>
  <course>137.65</course>
  <speed>1.1321660655575223</speed>
  <fix>3d</fix>
</trkpt>
<trkpt lat="40.0712897" lon="-105.2300501">
  <ele>1583.0</ele>
  <time>2026-08-28T17:52:12Z</time>
  <course>138.36</course>
  <speed>0.9</speed>
  <fix>3d</fix>
</trkpt>
<trkpt lat="40.0712884" lon="-105.2300482">
  <ele>1583.15</ele>
  <time>2026-08-28T17:52:12Z</time>
  <course>134.86</course>
  <speed>1.3931618714277247</speed>
  <fix>3d</fix>
</trkpt>
<trkpt lat="40.0712897" lon="-105.2300501">
  <ele>1583.0</ele>
  <time>2026-08-28T17:52:12Z</time>
  <course>138.36</course>
  <speed>0.9</speed>
  <fix>3d</fix>
</trkpt>
<trkpt lat="40.0712874" lon="-105.2300469">
  <ele>1583.15</ele>
  <time>2026-08-28T17:52:12Z</time>
  <course>132.11</course>
  <speed>1.6434719346554112</speed>
  <fix>3d</fix>
</trkpt>
<trkpt lat="40.0712882" lon="-105.2300482">
  <ele>1583.0</ele>
  <time>2026-08-28T17:52:12Z</time>
  <course>133.08</course>
  <speed>1.39</speed>
  <fix>3d</fix>
</trkpt>
<trkpt lat="40.0712863" lon="-105.2300452">
  <ele>1583.15</ele>
  <time>2026-08-28T17:52:12Z</time>
  <course>129.37</course>
  <speed>1.8990787240133042</speed>
  <fix>3d</fix>
</trkpt>
<trkpt lat="40.0712882" lon="-105.2300482">
  <ele>1583.0</ele>
  <time>2026-08-28T17:52:12Z</time>
  <course>133.08</course>
  <speed>1.39</speed>
  <fix>3d</fix>
</trkpt>
<trkpt lat="40.0712851" lon="-105.2300432">
  <ele>1583.15</ele>
  <time>2026-08-28T17:52:12Z</time>
  <course>126.65</course>
  <speed>2.1541819793137256</speed>
  <fix>3d</fix>
</trkpt>
<trkpt lat="40.0712863" lon="-105.2300452">
  <ele>1583.0</ele>
  <time>2026-08-28T17:52:12Z</time>
  <course>127.76</course>
  <speed>1.88</speed>
  <fix>3d</fix>
</trkpt>
<trkpt lat="40.0712839" lon="-105.2300409">
  <ele>1583.15</ele>
  <time>2026-08-28T17:52:12Z</time>
  <course>123.94</course>
  <speed>2.3963305281200253</speed>
  <fix>3d</fix>
</trkpt>
<trkpt lat="40.0712863" lon="-105.2300452">
  <ele>1583.0</ele>
  <time>2026-08-28T17:52:12Z</time>
  <course>127.76</course>
  <speed>1.88</speed>
  <fix>3d</fix>
</trkpt>
<trkpt lat="40.0712827" lon="-105.2300383">
  <ele>1583.15</ele>
  <time>2026-08-28T17:52:13Z</time>
  <course>121.24</course>
  <speed>2.632508309578528</speed>
  <fix>3d</fix>
</trkpt>
<trkpt lat="40.0712841" lon="-105.2300411">
  <ele>1583.0</ele>
  <time>2026-08-28T17:52:13Z</time>
  <course>122.47</course>
  <speed>2.36</speed>
  <fix>3d</fix>
</trkpt>
<trkpt lat="40.0712814" lon="-105.2300354">
  <ele>1583.15</ele>
  <time>2026-08-28T17:52:13Z</time>
  <course>118.59</course>
  <speed>2.867647119155354</speed>
  <fix>3d</fix>
</trkpt>
<trkpt lat="40.0712841" lon="-105.2300411">
  <ele>1583.0</ele>
  <time>2026-08-28T17:52:13Z</time>
  <course>122.47</course>
  <speed>2.36</speed>
  <fix>3d</fix>
</trkpt>
<trkpt lat="40.0712802" lon="-105.2300322">
  <ele>1583.14</ele>
  <time>2026-08-28T17:52:13Z</time>
  <course>115.99</course>
  <speed>3.104126286090822</speed>
  <fix>3d</fix>
</trkpt>
<trkpt lat="40.0712818" lon="-105.2300358">
  <ele>1583.0</ele>
  <time>2026-08-28T17:52:13Z</time>
  <course>117.25</course>
  <speed>2.82</speed>
  <fix>3d</fix>
</trkpt>
<trkpt lat="40.071279" lon="-105.2300286">
  <ele>1583.14</ele>
  <time>2026-08-28T17:52:13Z</time>
  <course>113.44</course>
  <speed>3.3562181097181396</speed>
  <fix>3d</fix>
</trkpt>
<trkpt lat="40.0712818" lon="-105.2300358">
  <ele>1583.0</ele>
  <time>2026-08-28T17:52:13Z</time>
  <course>117.25</course>
  <speed>2.82</speed>
  <fix>3d</fix>
</trkpt>
<trkpt lat="40.0712779" lon="-105.2300247">
  <ele>1583.14</ele>
  <time>2026-08-28T17:52:13Z</time>
  <course>110.94</course>
  <speed>3.6072149922065915</speed>
  <fix>3d</fix>
</trkpt>
<trkpt lat="40.0712795" lon="-105.2300293">
  <ele>1583.0</ele>
  <time>2026-08-28T17:52:13Z</time>
  <course>112.18</course>
  <speed>3.28</speed>
  <fix>3d</fix>
</trkpt>
<trkpt lat="40.0712768" lon="-105.2300204">
  <ele>1583.14</ele>
  <time>2026-08-28T17:52:13Z</time>
  <course>108.5</course>
  <speed>3.858108344772085</speed>
  <fix>3d</fix>
</trkpt>
<trkpt lat="40.0712795" lon="-105.2300293">
  <ele>1583.0</ele>
  <time>2026-08-28T17:52:13Z</time>
  <course>112.18</course>
  <speed>3.28</speed>
  <fix>3d</fix>
</trkpt>
<trkpt lat="40.0712758" lon="-105.2300159">
  <ele>1583.14</ele>
  <time>2026-08-28T17:52:13Z</time>
  <course>106.14</course>
  <speed>4.027505431405401</speed>
  <fix>3d</fix>
</trkpt>
<trkpt lat="40.0712774" lon="-105.2300215">
  <ele>1583.0</ele>
  <time>2026-08-28T17:52:13Z</time>
  <course>107.38</course>
  <speed>3.73</speed>
  <fix>3d</fix>
</trkpt>
<trkpt lat="40.0712749" lon="-105.2300112">
  <ele>1583.14</ele>
  <time>2026-08-28T17:52:13Z</time>
  <course>103.84</course>
  <speed>4.108965806623365</speed>
  <fix>3d</fix>
</trkpt>
<trkpt lat="40.0712774" lon="-105.2300215">
  <ele>1583.0</ele>
  <time>2026-08-28T17:52:13Z</time>
  <course>107.38</course>
  <speed>3.73</speed>
  <fix>3d</fix>
</trkpt>
<trkpt lat="40.0712742" lon="-105.2300064">
  <ele>1583.14</ele>
  <time>2026-08-28T17:52:13Z</time>
  <course>101.62</course>
  <speed>4.145961890804111</speed>
  <fix>3d</fix>
</trkpt>
<trkpt lat="40.0712774" lon="-105.2300215">
  <ele>1583.0</ele>
  <time>2026-08-28T17:52:13Z</time>
  <course>107.38</course>
  <speed>3.73</speed>
  <fix>3d</fix>
</trkpt>
<trkpt lat="40.0712736" lon="-105.2300016">
  <ele>1583.14</ele>
  <time>2026-08-28T17:52:13Z</time>
  <course>99.45</course>
  <speed>4.149650587700126</speed>
  <fix>3d</fix>
</trkpt>
<trkpt lat="40.0712755" lon="-105.2300128">
  <ele>1583.0</ele>
  <time>2026-08-28T17:52:13Z</time>
  <course>102.88</course>
  <speed>3.98</speed>
  <fix>3d</fix>
</trkpt>
<trkpt lat="40.0712732" lon="-105.2299968">
  <ele>1583.14</ele>
  <time>2026-08-28T17:52:13Z</time>
  <course>97.35</course>
  <speed>4.137934267240116</speed>
  <fix>3d</fix>
</trkpt>
<trkpt lat="40.0712755" lon="-105.2300128">
  <ele>1583.0</ele>
  <time>2026-08-28T17:52:13Z</time>
  <course>102.88</course>
  <speed>3.98</speed>
  <fix>3d</fix>
</trkpt>
<trkpt lat="40.0712729" lon="-105.2299921">
  <ele>1583.14</ele>
  <time>2026-08-28T17:52:13Z</time>
  <course>95.3</course>
  <speed>4.123226891646881</speed>
  <fix>3d</fix>
</trkpt>
<trkpt lat="40.0712742" lon="-105.2300035">
  <ele>1583.0</ele>
  <time>2026-08-28T17:52:13Z</time>
  <course>98.59</course>
  <speed>4.03</speed>
  <fix>3d</fix>
</trkpt>
<trkpt lat="40.0712727" lon="-105.2299873">
  <ele>1583.14</ele>
  <time>2026-08-28T17:52:13Z</time>
  <course>93.3</course>
  <speed>4.114389383614536</speed>
  <fix>3d</fix>
</trkpt>
<trkpt lat="40.0712742" lon="-105.2300035">
  <ele>1583.0</ele>
  <time>2026-08-28T17:52:13Z</time>
  <course>98.59</course>
  <speed>4.03</speed>
  <fix>3d</fix>
</trkpt>
<trkpt lat="40.0712727" lon="-105.2299826">
  <ele>1583.13</ele>
  <time>2026-08-28T17:52:13Z</time>
  <course>91.36</course>
  <speed>4.110194642592976</speed>
  <fix>3d</fix>
</trkpt>
<trkpt lat="40.0712734" lon="-105.229994">
  <ele>1583.0</ele>
  <time>2026-08-28T17:52:13Z</time>
  <course>94.51</course>
  <speed>4.02</speed>
  <fix>3d</fix>
</trkpt>
<trkpt lat="40.0712727" lon="-105.2299779">
  <ele>1583.13</ele>
  <time>2026-08-28T17:52:13Z</time>
  <course>89.45</course>
  <speed>4.110985283359696</speed>
  <fix>3d</fix>
</trkpt>
<trkpt lat="40.0712731" lon="-105.2299846">
  <ele>1583.0</ele>
  <time>2026-08-28T17:52:13Z</time>
  <course>90.63</course>
  <speed>4.01</speed>
  <fix>3d</fix>
</trkpt>
<trkpt lat="40.071273" lon="-105.2299732">
  <ele>1583.13</ele>
  <time>2026-08-28T17:52:13Z</time>
  <course>87.59</course>
  <speed>4.075941609002759</speed>
  <fix>3d</fix>
</trkpt>
<trkpt lat="40.0712731" lon="-105.2299846">
  <ele>1583.0</ele>
  <time>2026-08-28T17:52:13Z</time>
  <course>90.63</course>
  <speed>4.01</speed>
  <fix>3d</fix>
</trkpt>
<trkpt lat="40.0712732" lon="-105.2299685">
  <ele>1583.13</ele>
  <time>2026-08-28T17:52:13Z</time>
  <course>85.77</course>
  <speed>4.0152833025827706</speed>
  <fix>3d</fix>
</trkpt>
<trkpt lat="40.0712732" lon="-105.2299752">
  <ele>1583.0</ele>
  <time>2026-08-28T17:52:13Z</time>
  <course>86.92</course>
  <speed>3.97</speed>
  <fix>3d</fix>
</trkpt>
<trkpt lat="40.0712736" lon="-105.229964">
  <ele>1583.13</ele>
  <time>2026-08-28T17:52:13Z</time>
  <course>83.99</course>
  <speed>3.9592044655460774</speed>
  <fix>3d</fix>
</trkpt>
<trkpt lat="40.0712732" lon="-105.2299752">
  <ele>1583.0</ele>
  <time>2026-08-28T17:52:13Z</time>
  <course>86.92</course>
  <speed>3.97</speed>
  <fix>3d</fix>
</trkpt>
<trkpt lat="40.0712742" lon="-105.2299595">
  <ele>1583.13</ele>
  <time>2026-08-28T17:52:13Z</time>
  <course>82.23</course>
  <speed>3.885061132080163</speed>
  <fix>3d</fix>
</trkpt>
<trkpt lat="40.0712738" lon="-105.2299661">
  <ele>1583.0</ele>
  <time>2026-08-28T17:52:13Z</time>
  <course>83.35</course>
  <speed>3.87</speed>
  <fix>3d</fix>
</trkpt>
<trkpt lat="40.0712748" lon="-105.2299551">
  <ele>1583.13</ele>
  <time>2026-08-28T17:52:13Z</time>
  <course>80.5</course>
  <speed>3.8246045547219647</speed>
  <fix>3d</fix>
</trkpt>
<trkpt lat="40.0712738" lon="-105.2299661">
  <ele>1583.0</ele>
  <time>2026-08-28T17:52:13Z</time>
  <course>83.35</course>
  <speed>3.87</speed>
  <fix>3d</fix>
</trkpt>
<trkpt lat="40.0712755" lon="-105.2299508">
  <ele>1583.13</ele>
  <time>2026-08-28T17:52:13Z</time>
  <course>78.81</course>
  <speed>3.756181571756083</speed>
  <fix>3d</fix>
</trkpt>
<trkpt lat="40.0712748" lon="-105.2299572">
  <ele>1583.0</ele>
  <time>2026-08-28T17:52:13Z</time>
  <course>79.89</course>
  <speed>3.74</speed>
  <fix>3d</fix>
</trkpt>
<trkpt lat="40.0712763" lon="-105.2299466">
  <ele>1583.13</ele>
  <time>2026-08-28T17:52:13Z</time>
  <course>77.13</course>
  <speed>3.6913954001163303</speed>
  <fix>3d</fix>
</trkpt>
<trkpt lat="40.0712748" lon="-105.2299572">
  <ele>1583.0</ele>
  <time>2026-08-28T17:52:13Z</time>
  <course>79.89</course>
  <speed>3.74</speed>
  <fix>3d</fix>
</trkpt>
<trkpt lat="40.0712772" lon="-105.2299425">
  <ele>1583.13</ele>
  <time>2026-08-28T17:52:13Z</time>
  <course>75.51</course>
  <speed>3.6373204423036474</speed>
  <fix>3d</fix>
</trkpt>
<trkpt lat="40.0712761" lon="-105.2299487">
  <ele>1583.0</ele>
  <time>2026-08-28T17:52:13Z</time>
  <course>76.57</course>
  <speed>3.62</speed>
  <fix>3d</fix>
</trkpt>
<trkpt lat="40.0712781" lon="-105.2299386">
  <ele>1583.13</ele>
  <time>2026-08-28T17:52:13Z</time>
  <course>73.92</course>
  <speed>3.583475966153533</speed>
  <fix>3d</fix>
</trkpt>
<trkpt lat="40.0712761" lon="-105.2299487">
  <ele>1583.0</ele>
  <time>2026-08-28T17:52:13Z</time>
  <course>76.57</course>
  <speed>3.62</speed>
  <fix>3d</fix>
</trkpt>
<trkpt lat="40.0712791" lon="-105.2299347">
  <ele>1583.13</ele>
  <time>2026-08-28T17:52:13Z</time>
  <course>72.37</course>
  <speed>3.5418921496849674</speed>
  <fix>3d</fix>
</trkpt>
<trkpt lat="40.0712778" lon="-105.2299406">
  <ele>1583.0</ele>
  <time>2026-08-28T17:52:13Z</time>
  <course>73.38</course>
  <speed>3.52</speed>
  <fix>3d</fix>
</trkpt>
<trkpt lat="40.0712802" lon="-105.2299309">
  <ele>1583.13</ele>
  <time>2026-08-28T17:52:13Z</time>
  <course>70.85</course>
  <speed>3.4901719155365396</speed>
  <fix>3d</fix>
</trkpt>
<trkpt lat="40.0712778" lon="-105.2299406">
  <ele>1583.0</ele>
  <time>2026-08-28T17:52:13Z</time>
  <course>73.38</course>
  <speed>3.52</speed>
  <fix>3d</fix>
</trkpt>
<trkpt lat="40.0712813" lon="-105.2299272">
  <ele>1583.13</ele>
  <time>2026-08-28T17:52:13Z</time>
  <course>69.37</course>
  <speed>3.45023187626571</speed>
  <fix>3d</fix>
</trkpt>
<trkpt lat="40.0712797" lon="-105.2299329">
  <ele>1583.0</ele>
  <time>2026-08-28T17:52:13Z</time>
  <course>70.33</course>
  <speed>3.43</speed>
  <fix>3d</fix>
</trkpt>
<trkpt lat="40.0712825" lon="-105.2299235">
  <ele>1583.14</ele>
  <time>2026-08-28T17:52:13Z</time>
  <course>67.93</course>
  <speed>3.4126968807674674</speed>
  <fix>3d</fix>
</trkpt>
<trkpt lat="40.0712797" lon="-105.2299329">
  <ele>1583.0</ele>
  <time>2026-08-28T17:52:13Z</time>
  <course>70.33</course>
  <speed>3.43</speed>
  <fix>3d</fix>
</trkpt>
<trkpt lat="40.0712837" lon="-105.22992">
  <ele>1583.14</ele>
  <time>2026-08-28T17:52:13Z</time>
  <course>66.52</course>
  <speed>3.3734255586865998</speed>
  <fix>3d</fix>
</trkpt>
<trkpt lat="40.0712797" lon="-105.2299329">
  <ele>1583.0</ele>
  <time>2026-08-28T17:52:13Z</time>
  <course>70.33</course>
  <speed>3.43</speed>
  <fix>3d</fix>
</trkpt>
<trkpt lat="40.071285" lon="-105.2299165">
  <ele>1583.14</ele>
  <time>2026-08-28T17:52:13Z</time>
  <course>65.15</course>
  <speed>3.340793318958837</speed>
  <fix>3d</fix>
</trkpt>
<trkpt lat="40.0712819" lon="-105.2299254">
  <ele>1583.0</ele>
  <time>2026-08-28T17:52:13Z</time>
  <course>67.41</course>
  <speed>3.36</speed>
  <fix>3d</fix>
</trkpt>
<trkpt lat="40.0712863" lon="-105.2299131">
  <ele>1583.14</ele>
  <time>2026-08-28T17:52:13Z</time>
  <course>63.81</course>
  <speed>3.3054197917964974</speed>
  <fix>3d</fix>
</trkpt>
<trkpt lat="40.0712819" lon="-105.2299254">
  <ele>1583.0</ele>
  <time>2026-08-28T17:52:13Z</time>
  <course>67.41</course>
  <speed>3.36</speed>
  <fix>3d</fix>
</trkpt>
<trkpt lat="40.0712877" lon="-105.2299098">
  <ele>1583.14</ele>
  <time>2026-08-28T17:52:13Z</time>
  <course>62.51</course>
  <speed>3.276171546180084</speed>
  <fix>3d</fix>
</trkpt>
<trkpt lat="40.0712843" lon="-105.2299183">
  <ele>1583.0</ele>
  <time>2026-08-28T17:52:13Z</time>
  <course>64.64</course>
  <speed>3.29</speed>
  <fix>3d</fix>
</trkpt>
<trkpt lat="40.0712891" lon="-105.2299066">
  <ele>1583.13</ele>
  <time>2026-08-28T17:52:13Z</time>
  <course>61.24</course>
  <speed>3.2435320254315356</speed>
  <fix>3d</fix>
</trkpt>
<trkpt lat="40.0712843" lon="-105.2299183">
  <ele>1583.0</ele>
  <time>2026-08-28T17:52:13Z</time>
  <course>64.64</course>
  <speed>3.29</speed>
  <fix>3d</fix>
</trkpt>
<trkpt lat="40.0712905" lon="-105.2299034">
  <ele>1583.13</ele>
  <time>2026-08-28T17:52:13Z</time>
  <course>60.0</course>
  <speed>3.208815981012311</speed>
  <fix>3d</fix>
</trkpt>
<trkpt lat="40.071287" lon="-105.2299114">
  <ele>1583.0</ele>
  <time>2026-08-28T17:52:13Z</time>
  <course>62.01</course>
  <speed>3.24</speed>
  <fix>3d</fix>
</trkpt>
<trkpt lat="40.0712919" lon="-105.2299003">
  <ele>1583.13</ele>
  <time>2026-08-28T17:52:13Z</time>
  <course>58.8</course>
  <speed>3.18750686273771</speed>
  <fix>3d</fix>
</trkpt>
<trkpt lat="40.071287" lon="-105.2299114">
  <ele>1583.0</ele>
  <time>2026-08-28T17:52:13Z</time>
  <course>62.01</course>
  <speed>3.24</speed>
  <fix>3d</fix>
</trkpt>
<trkpt lat="40.0712935" lon="-105.2298973">
  <ele>1583.13</ele>
  <time>2026-08-28T17:52:13Z</time>
  <course>57.63</course>
  <speed>3.1590188350182404</speed>
  <fix>3d</fix>
</trkpt>
<trkpt lat="40.0712898" lon="-105.2299048">
  <ele>1583.0</ele>
  <time>2026-08-28T17:52:13Z</time>
  <course>59.53</course>
  <speed>3.19</speed>
  <fix>3d</fix>
</trkpt>
<trkpt lat="40.071295" lon="-105.2298943">
  <ele>1583.13</ele>
  <time>2026-08-28T17:52:13Z</time>
  <course>56.5</course>
  <speed>3.126227758817326</speed>
  <fix>3d</fix>
</trkpt>
<trkpt lat="40.0712927" lon="-105.2298984">
  <ele>1583.0</ele>
  <time>2026-08-28T17:52:13Z</time>
  <course>57.2</course>
  <speed>3.14</speed>
  <fix>3d</fix>
</trkpt>
<trkpt lat="40.0712966" lon="-105.2298913">
  <ele>1583.12</ele>
  <time>2026-08-28T17:52:13Z</time>
  <course>55.4</course>
  <speed>3.1026601489689454</speed>
  <fix>3d</fix>
</trkpt>
<trkpt lat="40.0712927" lon="-105.2298984">
  <ele>1583.0</ele>
  <time>2026-08-28T17:52:13Z</time>
  <course>57.2</course>
  <speed>3.14</speed>
  <fix>3d</fix>
</trkpt>
<trkpt lat="40.0712982" lon="-105.2298885">
  <ele>1583.12</ele>
  <time>2026-08-28T17:52:13Z</time>
  <course>54.36</course>
  <speed>3.072002604165563</speed>
  <fix>3d</fix>
</trkpt>
<trkpt lat="40.0712958" lon="-105.2298924">
  <ele>1583.0</ele>
  <time>2026-08-28T17:52:13Z</time>
  <course>55.01</course>
  <speed>3.09</speed>
  <fix>3d</fix>
</trkpt>
<trkpt lat="40.0712998" lon="-105.2298856">
  <ele>1583.12</ele>
  <time>2026-08-28T17:52:13Z</time>
  <course>53.34</course>
  <speed>3.0504098085339284</speed>
  <fix>3d</fix>
</trkpt>
<trkpt lat="40.0712958" lon="-105.2298924">
  <ele>1583.0</ele>
  <time>2026-08-28T17:52:13Z</time>
  <course>55.01</course>
  <speed>3.09</speed>
  <fix>3d</fix>
</trkpt>
<trkpt lat="40.0713015" lon="-105.2298828">
  <ele>1583.12</ele>
  <time>2026-08-28T17:52:13Z</time>
  <course>52.37</course>
  <speed>3.023524433504714</speed>
  <fix>3d</fix>
</trkpt>
<trkpt lat="40.0712991" lon="-105.2298866">
  <ele>1583.0</ele>
  <time>2026-08-28T17:52:13Z</time>
  <course>52.99</course>
  <speed>3.05</speed>
  <fix>3d</fix>
</trkpt>
<trkpt lat="40.0713032" lon="-105.2298801">
  <ele>1583.12</ele>
  <time>2026-08-28T17:52:13Z</time>
  <course>51.43</course>
  <speed>3.003747659175118</speed>
  <fix>3d</fix>
</trkpt>
<trkpt lat="40.0712991" lon="-105.2298866">
  <ele>1583.0</ele>
  <time>2026-08-28T17:52:13Z</time>
  <course>52.99</course>
  <speed>3.05</speed>
  <fix>3d</fix>
</trkpt>
<trkpt lat="40.0713049" lon="-105.2298774">
  <ele>1583.12</ele>
  <time>2026-08-28T17:52:13Z</time>
  <course>50.53</course>
  <speed>2.9784559758371447</speed>
  <fix>3d</fix>
</trkpt>
<trkpt lat="40.0713025" lon="-105.229881">
  <ele>1583.0</ele>
  <time>2026-08-28T17:52:13Z</time>
  <course>51.12</course>
  <speed>3.01</speed>
  <fix>3d</fix>
</trkpt>
<trkpt lat="40.0713066" lon="-105.2298747">
  <ele>1583.12</ele>
  <time>2026-08-28T17:52:13Z</time>
  <course>49.68</course>
  <speed>2.9548096385384963</speed>
  <fix>3d</fix>
</trkpt>
<trkpt lat="40.0713025" lon="-105.229881">
  <ele>1583.0</ele>
  <time>2026-08-28T17:52:13Z</time>
  <course>51.12</course>
  <speed>3.01</speed>
  <fix>3d</fix>
</trkpt>
<trkpt lat="40.0713084" lon="-105.2298721">
  <ele>1583.13</ele>
  <time>2026-08-28T17:52:13Z</time>
  <course>48.87</course>
  <speed>2.9308360581922694</speed>
  <fix>3d</fix>
</trkpt>
<trkpt lat="40.0713059" lon="-105.2298756">
  <ele>1583.0</ele>
  <time>2026-08-28T17:52:13Z</time>
  <course>49.42</course>
  <speed>2.96</speed>
  <fix>3d</fix>
</trkpt>
<trkpt lat="40.0713101" lon="-105.2298696">
  <ele>1583.13</ele>
  <time>2026-08-28T17:52:13Z</time>
  <course>48.11</course>
  <speed>2.9081437378506587</speed>
  <fix>3d</fix>
</trkpt>
<trkpt lat="40.0713059" lon="-105.2298756">
  <ele>1583.0</ele>
  <time>2026-08-28T17:52:13Z</time>
  <course>49.42</course>
  <speed>2.96</speed>
  <fix>3d</fix>
</trkpt>
<trkpt lat="40.0713119" lon="-105.2298671">
  <ele>1583.13</ele>
  <time>2026-08-28T17:52:13Z</time>
  <course>47.39</course>
  <speed>2.87862814548875</speed>
  <fix>3d</fix>
</trkpt>
<trkpt lat="40.0713094" lon="-105.2298704">
  <ele>1583.0</ele>
  <time>2026-08-28T17:52:13Z</time>
  <course>47.87</course>
  <speed>2.92</speed>
  <fix>3d</fix>
</trkpt>
<trkpt lat="40.0713137" lon="-105.2298647">
  <ele>1583.13</ele>
  <time>2026-08-28T17:52:13Z</time>
  <course>46.71</course>
  <speed>2.8568514137070555</speed>
  <fix>3d</fix>
</trkpt>
<trkpt lat="40.0713094" lon="-105.2298704">
  <ele>1583.0</ele>
  <time>2026-08-28T17:52:13Z</time>
  <course>47.87</course>
  <speed>2.92</speed>
  <fix>3d</fix>
</trkpt>
<trkpt lat="40.0713155" lon="-105.2298623">
  <ele>1583.12</ele>
  <time>2026-08-28T17:52:13Z</time>
  <course>46.08</course>
  <speed>2.835507009337131</speed>
  <fix>3d</fix>
</trkpt>
<trkpt lat="40.0713094" lon="-105.2298704">
  <ele>1583.0</ele>
  <time>2026-08-28T17:52:13Z</time>
  <course>47.87</course>
  <speed>2.92</speed>
  <fix>3d</fix>
</trkpt>
<trkpt lat="40.0713173" lon="-105.2298599">
  <ele>1583.12</ele>
  <time>2026-08-28T17:52:13Z</time>
  <course>45.48</course>
  <speed>2.814427117549857</speed>
  <fix>3d</fix>
</trkpt>
<trkpt lat="40.0713129" lon="-105.2298654">
  <ele>1583.0</ele>
  <time>2026-08-28T17:52:13Z</time>
  <course>46.48</course>
  <speed>2.87</speed>
  <fix>3d</fix>
</trkpt>
<trkpt lat="40.071319" lon="-105.2298576">
  <ele>1583.12</ele>
  <time>2026-08-28T17:52:13Z</time>
  <course>44.93</course>
  <speed>2.793796699833401</speed>
  <fix>3d</fix>
</trkpt>
<trkpt lat="40.0713129" lon="-105.2298654">
  <ele>1583.0</ele>
  <time>2026-08-28T17:52:13Z</time>
  <course>46.48</course>
  <speed>2.87</speed>
  <fix>3d</fix>
</trkpt>
<trkpt lat="40.0713208" lon="-105.2298554">
  <ele>1583.12</ele>
  <time>2026-08-28T17:52:13Z</time>
  <course>44.42</course>
  <speed>2.773157045679166</speed>
  <fix>3d</fix>
</trkpt>
<trkpt lat="40.0713165" lon="-105.2298606">
  <ele>1583.0</ele>
  <time>2026-08-28T17:52:13Z</time>
  <course>45.26</course>
  <speed>2.84</speed>
  <fix>3d</fix>
</trkpt>
<trkpt lat="40.0713226" lon="-105.2298532">
  <ele>1583.12</ele>
  <time>2026-08-28T17:52:13Z</time>
  <course>43.95</course>
  <speed>2.7526895938336384</speed>
  <fix>3d</fix>
</trkpt>
<trkpt lat="40.0713165" lon="-105.2298606">
  <ele>1583.0</ele>
  <time>2026-08-28T17:52:13Z</time>
  <course>45.26</course>
  <speed>2.84</speed>
  <fix>3d</fix>
</trkpt>
<trkpt lat="40.0713244" lon="-105.229851">
  <ele>1583.11</ele>
  <time>2026-08-28T17:52:13Z</time>
  <course>43.52</course>
  <speed>2.7391422014930153</speed>
  <fix>3d</fix>
</trkpt>
<trkpt lat="40.0713201" lon="-105.2298559">
  <ele>1583.0</ele>
  <time>2026-08-28T17:52:13Z</time>
  <course>44.19</course>
  <speed>2.8</speed>
  <fix>3d</fix>
</trkpt>
<trkpt lat="40.0713262" lon="-105.2298488">
  <ele>1583.11</ele>
  <time>2026-08-28T17:52:13Z</time>
  <course>43.12</course>
  <speed>2.718970393365842</speed>
  <fix>3d</fix>
</trkpt>
<trkpt lat="40.0713201" lon="-105.2298559">
  <ele>1583.0</ele>
  <time>2026-08-28T17:52:13Z</time>
  <course>44.19</course>
  <speed>2.8</speed>
  <fix>3d</fix>
</trkpt>
<trkpt lat="40.071328" lon="-105.2298467">
  <ele>1583.11</ele>
  <time>2026-08-28T17:52:13Z</time>
  <course>42.76</course>
  <speed>2.7130978603802705</speed>
  <fix>3d</fix>
</trkpt>
<trkpt lat="40.0713238" lon="-105.2298514">
  <ele>1583.0</ele>
  <time>2026-08-28T17:52:13Z</time>
  <course>43.28</course>
  <speed>2.77</speed>
  <fix>3d</fix>
</trkpt>
<trkpt lat="40.0713298" lon="-105.2298445">
  <ele>1583.11</ele>
  <time>2026-08-28T17:52:13Z</time>
  <course>42.44</course>
  <speed>2.6998703672583986</speed>
  <fix>3d</fix>
</trkpt>
<trkpt lat="40.0713274" lon="-105.2298469">
  <ele>1583.0</ele>
  <time>2026-08-28T17:52:13Z</time>
  <course>42.51</course>
  <speed>2.75</speed>
  <fix>3d</fix>
</trkpt>
<trkpt lat="40.0713316" lon="-105.2298424">
  <ele>1583.11</ele>
  <time>2026-08-28T17:52:13Z</time>
  <course>42.16</course>
  <speed>2.686726632912251</speed>
  <fix>3d</fix>
</trkpt>
<trkpt lat="40.0713274" lon="-105.2298469">
  <ele>1583.0</ele>
  <time>2026-08-28T17:52:13Z</time>
  <course>42.51</course>
  <speed>2.75</speed>
  <fix>3d</fix>
</trkpt>
<trkpt lat="40.0713334" lon="-105.2298403">
  <ele>1583.11</ele>
  <time>2026-08-28T17:52:13Z</time>
  <course>41.92</course>
  <speed>2.6801865606707302</speed>
  <fix>3d</fix>
</trkpt>
<trkpt lat="40.0713311" lon="-105.2298426">
  <ele>1583.0</ele>
  <time>2026-08-28T17:52:13Z</time>
  <course>41.9</course>
  <speed>2.74</speed>
  <fix>3d</fix>
</trkpt>
<trkpt lat="40.0713352" lon="-105.2298382">
  <ele>1583.11</ele>
  <time>2026-08-28T17:52:13Z</time>
  <course>41.7</course>
  <speed>2.6736678926149375</speed>
  <fix>3d</fix>
</trkpt>
<trkpt lat="40.0713311" lon="-105.2298426">
  <ele>1583.0</ele>
  <time>2026-08-28T17:52:13Z</time>
  <course>41.9</course>
  <speed>2.74</speed>
  <fix>3d</fix>
</trkpt>
<trkpt lat="40.0713371" lon="-105.2298361">
  <ele>1583.11</ele>
  <time>2026-08-28T17:52:13Z</time>
  <course>41.52</course>
  <speed>2.660695397823659</speed>
  <fix>3d</fix>
</trkpt>
<trkpt lat="40.0713347" lon="-105.2298384">
  <ele>1583.0</ele>
  <time>2026-08-28T17:52:13Z</time>
  <course>41.43</course>
  <speed>2.72</speed>
  <fix>3d</fix>
</trkpt>
<trkpt lat="40.0713389" lon="-105.229834">
  <ele>1583.1</ele>
  <time>2026-08-28T17:52:13Z</time>
  <course>41.37</course>
  <speed>2.660695397823659</speed>
  <fix>3d</fix>
</trkpt>
<trkpt lat="40.0713347" lon="-105.2298384">
  <ele>1583.0</ele>
  <time>2026-08-28T17:52:13Z</time>
  <course>41.43</course>
  <speed>2.72</speed>
  <fix>3d</fix>
</trkpt>
<trkpt lat="40.0713407" lon="-105.2298319">
  <ele>1583.1</ele>
  <time>2026-08-28T17:52:13Z</time>
  <course>41.24</course>
  <speed>2.6542418879973995</speed>
  <fix>3d</fix>
</trkpt>
<trkpt lat="40.0713384" lon="-105.2298342">
  <ele>1583.0</ele>
  <time>2026-08-28T17:52:13Z</time>
  <course>41.09</course>
  <speed>2.71</speed>
  <fix>3d</fix>
</trkpt>
<trkpt lat="40.0713426" lon="-105.2298298">
  <ele>1583.1</ele>
  <time>2026-08-28T17:52:13Z</time>
  <course>41.15</course>
  <speed>2.6542418879973995</speed>
  <fix>3d</fix>
</trkpt>
<trkpt lat="40.0713384" lon="-105.2298342">
  <ele>1583.0</ele>
  <time>2026-08-28T17:52:13Z</time>
  <course>41.09</course>
  <speed>2.71</speed>
  <fix>3d</fix>
</trkpt>
<trkpt lat="40.0713444" lon="-105.2298278">
  <ele>1583.09</ele>
  <time>2026-08-28T17:52:13Z</time>
  <course>41.09</course>
  <speed>2.6478104161740883</speed>
  <fix>3d</fix>
</trkpt>
<trkpt lat="40.0713421" lon="-105.2298299">
  <ele>1583.0</ele>
  <time>2026-08-28T17:52:13Z</time>
  <course>40.89</course>
  <speed>2.7</speed>
  <fix>3d</fix>
</trkpt>
<trkpt lat="40.0713463" lon="-105.2298257">
  <ele>1583.09</ele>
  <time>2026-08-28T17:52:13Z</time>
  <course>41.05</course>
  <speed>2.6478104161740883</speed>
  <fix>3d</fix>
</trkpt>
<trkpt lat="40.0713421" lon="-105.2298299">
  <ele>1583.0</ele>
  <time>2026-08-28T17:52:13Z</time>
  <course>40.89</course>
  <speed>2.7</speed>
  <fix>3d</fix>
</trkpt>
<trkpt lat="40.0713481" lon="-105.2298236">
  <ele>1583.09</ele>
  <time>2026-08-28T17:52:13Z</time>
  <course>41.05</course>
  <speed>2.646601594498122</speed>
  <fix>3d</fix>
</trkpt>
<trkpt lat="40.0713458" lon="-105.2298258">
  <ele>1583.0</ele>
  <time>2026-08-28T17:52:13Z</time>
  <course>40.81</course>
  <speed>2.7</speed>
  <fix>3d</fix>
</trkpt>
<trkpt lat="40.0713499" lon="-105.2298215">
  <ele>1583.09</ele>
  <time>2026-08-28T17:52:13Z</time>
  <course>41.07</course>
  <speed>2.646601594498122</speed>
  <fix>3d</fix>
</trkpt>
<trkpt lat="40.0713458" lon="-105.2298258">
  <ele>1583.0</ele>
  <time>2026-08-28T17:52:13Z</time>
  <course>40.81</course>
  <speed>2.7</speed>
  <fix>3d</fix>
</trkpt>
<trkpt lat="40.0713518" lon="-105.2298194">
  <ele>1583.09</ele>
  <time>2026-08-28T17:52:13Z</time>
  <course>41.13</course>
  <speed>2.646601594498122</speed>
  <fix>3d</fix>
</trkpt>
<trkpt lat="40.0713494" lon="-105.2298217">
  <ele>1583.0</ele>
  <time>2026-08-28T17:52:13Z</time>
  <course>40.86</course>
  <speed>2.7</speed>
  <fix>3d</fix>
</trkpt>
<trkpt lat="40.0713536" lon="-105.2298173">
  <ele>1583.09</ele>
  <time>2026-08-28T17:52:13Z</time>
  <course>41.2</course>
  <speed>2.653073689138694</speed>
  <fix>3d</fix>
</trkpt>
<trkpt lat="40.0713494" lon="-105.2298217">
  <ele>1583.0</ele>
  <time>2026-08-28T17:52:13Z</time>
  <course>40.86</course>
  <speed>2.7</speed>
  <fix>3d</fix>
</trkpt>
<trkpt lat="40.0713554" lon="-105.2298153">
  <ele>1583.1</ele>
  <time>2026-08-28T17:52:13Z</time>
  <course>41.31</course>
  <speed>2.659567634033773</speed>
  <fix>3d</fix>
</trkpt>
<trkpt lat="40.0713494" lon="-105.2298217">
  <ele>1583.0</ele>
  <time>2026-08-28T17:52:13Z</time>
  <course>40.86</course>
  <speed>2.7</speed>
  <fix>3d</fix>
</trkpt>
<trkpt lat="40.0713573" lon="-105.2298132">
  <ele>1583.1</ele>
  <time>2026-08-28T17:52:13Z</time>
  <course>41.44</course>
  <speed>2.658514622867439</speed>
  <fix>3d</fix>
</trkpt>
<trkpt lat="40.0713531" lon="-105.2298175">
  <ele>1583.0</ele>
  <time>2026-08-28T17:52:13Z</time>
  <course>41.03</course>
  <speed>2.71</speed>
  <fix>3d</fix>
</trkpt>
<trkpt lat="40.0713591" lon="-105.2298111">
  <ele>1583.1</ele>
  <time>2026-08-28T17:52:13Z</time>
  <course>41.6</course>
  <speed>2.6650703555441084</speed>
  <fix>3d</fix>
</trkpt>
<trkpt lat="40.0713531" lon="-105.2298175">
  <ele>1583.0</ele>
  <time>2026-08-28T17:52:13Z</time>
  <course>41.03</course>
  <speed>2.71</speed>
  <fix>3d</fix>
</trkpt>
<trkpt lat="40.0713609" lon="-105.2298089">
  <ele>1583.11</ele>
  <time>2026-08-28T17:52:13Z</time>
  <course>41.78</course>
  <speed>2.6641321288554742</speed>
  <fix>3d</fix>
</trkpt>
<trkpt lat="40.0713568" lon="-105.2298132">
  <ele>1583.0</ele>
  <time>2026-08-28T17:52:13Z</time>
  <course>41.3</course>
  <speed>2.71</speed>
  <fix>3d</fix>
</trkpt>
<trkpt lat="40.0713627" lon="-105.2298068">
  <ele>1583.11</ele>
  <time>2026-08-28T17:52:13Z</time>
  <course>41.98</course>
  <speed>2.670748958625651</speed>
  <fix>3d</fix>
</trkpt>
<trkpt lat="40.0713568" lon="-105.2298132">
  <ele>1583.0</ele>
  <time>2026-08-28T17:52:13Z</time>
  <course>41.3</course>
  <speed>2.71</speed>
  <fix>3d</fix>
</trkpt>
<trkpt lat="40.0713645" lon="-105.2298047">
  <ele>1583.11</ele>
  <time>2026-08-28T17:52:13Z</time>
  <course>42.21</course>
  <speed>2.6840454541605663</speed>
  <fix>3d</fix>
</trkpt>
<trkpt lat="40.0713605" lon="-105.2298091">
  <ele>1583.0</ele>
  <time>2026-08-28T17:52:13Z</time>
  <course>41.66</course>
  <speed>2.73</speed>
  <fix>3d</fix>
</trkpt>
<trkpt lat="40.0713663" lon="-105.2298025">
  <ele>1583.11</ele>
  <time>2026-08-28T17:52:13Z</time>
  <course>42.46</course>
  <speed>2.6833002068348595</speed>
  <fix>3d</fix>
</trkpt>
<trkpt lat="40.0713642" lon="-105.2298048">
  <ele>1583.0</ele>
  <time>2026-08-28T17:52:13Z</time>
  <course>42.12</course>
  <speed>2.74</speed>
  <fix>3d</fix>
</trkpt>
<trkpt lat="40.0713681" lon="-105.2298003">
  <ele>1583.11</ele>
  <time>2026-08-28T17:52:13Z</time>
  <course>42.74</course>
  <speed>2.6967573120323602</speed>
  <fix>3d</fix>
</trkpt>
<trkpt lat="40.0713642" lon="-105.2298048">
  <ele>1583.0</ele>
  <time>2026-08-28T17:52:13Z</time>
  <course>42.12</course>
  <speed>2.74</speed>
  <fix>3d</fix>
</trkpt>
<trkpt lat="40.0713699" lon="-105.2297981">
  <ele>1583.11</ele>
  <time>2026-08-28T17:52:13Z</time>
  <course>43.02</course>
  <speed>2.7102951868754075</speed>
  <fix>3d</fix>
</trkpt>
<trkpt lat="40.0713678" lon="-105.2298003">
  <ele>1583.0</ele>
  <time>2026-08-28T17:52:13Z</time>
  <course>42.65</course>
  <speed>2.76</speed>
  <fix>3d</fix>
</trkpt>
<trkpt lat="40.0713717" lon="-105.2297958">
  <ele>1583.11</ele>
  <time>2026-08-28T17:52:13Z</time>
  <course>43.3</course>
  <speed>2.7166155414412247</speed>
  <fix>3d</fix>
</trkpt>
<trkpt lat="40.0713678" lon="-105.2298003">
  <ele>1583.0</ele>
  <time>2026-08-28T17:52:13Z</time>
  <course>42.65</course>
  <speed>2.76</speed>
  <fix>3d</fix>
</trkpt>
<trkpt lat="40.0713735" lon="-105.2297936">
  <ele>1583.12</ele>
  <time>2026-08-28T17:52:13Z</time>
  <course>43.6</course>
  <speed>2.73034796317246</speed>
  <fix>3d</fix>
</trkpt>
<trkpt lat="40.0713715" lon="-105.2297959">
  <ele>1583.0</ele>
  <time>2026-08-28T17:52:13Z</time>
  <course>43.22</course>
  <speed>2.78</speed>
  <fix>3d</fix>
</trkpt>
<trkpt lat="40.0713754" lon="-105.2297913">
  <ele>1583.12</ele>
  <time>2026-08-28T17:52:13Z</time>
  <course>43.9</course>
  <speed>2.736950858163149</speed>
  <fix>3d</fix>
</trkpt>
<trkpt lat="40.0713715" lon="-105.2297959">
  <ele>1583.0</ele>
  <time>2026-08-28T17:52:13Z</time>
  <course>43.22</course>
  <speed>2.78</speed>
  <fix>3d</fix>
</trkpt>
<trkpt lat="40.0713772" lon="-105.229789">
  <ele>1583.13</ele>
  <time>2026-08-28T17:52:13Z</time>
  <course>44.21</course>
  <speed>2.750872588834314</speed>
  <fix>3d</fix>
</trkpt>
<trkpt lat="40.0713751" lon="-105.2297915">
  <ele>1583.0</ele>
  <time>2026-08-28T17:52:13Z</time>
  <course>43.81</course>
  <speed>2.79</speed>
  <fix>3d</fix>
</trkpt>
<trkpt lat="40.071379" lon="-105.2297866">
  <ele>1583.13</ele>
  <time>2026-08-28T17:52:13Z</time>
  <course>44.53</course>
  <speed>2.750727176584403</speed>
  <fix>3d</fix>
</trkpt>
<trkpt lat="40.0713751" lon="-105.2297915">
  <ele>1583.0</ele>
  <time>2026-08-28T17:52:13Z</time>
  <course>43.81</course>
  <speed>2.79</speed>
  <fix>3d</fix>
</trkpt>
<trkpt lat="40.0713808" lon="-105.2297843">
  <ele>1583.14</ele>
  <time>2026-08-28T17:52:13Z</time>
  <course>44.86</course>
  <speed>2.7577164466275352</speed>
  <fix>3d</fix>
</trkpt>
<trkpt lat="40.0713786" lon="-105.2297868">
  <ele>1583.0</ele>
  <time>2026-08-28T17:52:13Z</time>
  <course>44.42</course>
  <speed>2.81</speed>
  <fix>3d</fix>
</trkpt>
<trkpt lat="40.0713826" lon="-105.2297819">
  <ele>1583.14</ele>
  <time>2026-08-28T17:52:13Z</time>
  <course>45.19</course>
  <speed>2.771894658893083</speed>
  <fix>3d</fix>
</trkpt>
<trkpt lat="40.0713786" lon="-105.2297868">
  <ele>1583.0</ele>
  <time>2026-08-28T17:52:13Z</time>
  <course>44.42</course>
  <speed>2.81</speed>
  <fix>3d</fix>
</trkpt>
<trkpt lat="40.0713844" lon="-105.2297795">
  <ele>1583.14</ele>
  <time>2026-08-28T17:52:13Z</time>
  <course>45.54</course>
  <speed>2.7791545476997133</speed>
  <fix>3d</fix>
</trkpt>
<trkpt lat="40.0713822" lon="-105.2297822">
  <ele>1583.0</ele>
  <time>2026-08-28T17:52:13Z</time>
  <course>45.06</course>
  <speed>2.82</speed>
  <fix>3d</fix>
</trkpt>
<trkpt lat="40.0713861" lon="-105.2297771">
  <ele>1583.14</ele>
  <time>2026-08-28T17:52:13Z</time>
  <course>45.89</course>
  <speed>2.779370432310166</speed>
  <fix>3d</fix>
</trkpt>
<trkpt lat="40.0713822" lon="-105.2297822">
  <ele>1583.0</ele>
  <time>2026-08-28T17:52:13Z</time>
  <course>45.06</course>
  <speed>2.82</speed>
  <fix>3d</fix>
</trkpt>
<trkpt lat="40.0713879" lon="-105.2297747">
  <ele>1583.14</ele>
  <time>2026-08-28T17:52:13Z</time>
  <course>46.25</course>
  <speed>2.786897917039661</speed>
  <fix>3d</fix>
</trkpt>
<trkpt lat="40.0713858" lon="-105.2297775">
  <ele>1583.0</ele>
  <time>2026-08-28T17:52:13Z</time>
  <course>45.73</course>
  <speed>2.82</speed>
  <fix>3d</fix>
</trkpt>
<trkpt lat="40.0713897" lon="-105.2297722">
  <ele>1583.14</ele>
  <time>2026-08-28T17:52:13Z</time>
  <course>46.62</course>
  <speed>2.7945840477609547</speed>
  <fix>3d</fix>
</trkpt>
<trkpt lat="40.0713858" lon="-105.2297775">
  <ele>1583.0</ele>
  <time>2026-08-28T17:52:13Z</time>
  <course>45.73</course>
  <speed>2.82</speed>
  <fix>3d</fix>
</trkpt>
<trkpt lat="40.0713914" lon="-105.2297698">
  <ele>1583.14</ele>
  <time>2026-08-28T17:52:13Z</time>
  <course>47.0</course>
  <speed>2.7956573466717987</speed>
  <fix>3d</fix>
</trkpt>
<trkpt lat="40.0713858" lon="-105.2297775">
  <ele>1583.0</ele>
  <time>2026-08-28T17:52:13Z</time>
  <course>45.73</course>
  <speed>2.82</speed>
  <fix>3d</fix>
</trkpt>
<trkpt lat="40.0713931" lon="-105.2297673">
  <ele>1583.14</ele>
  <time>2026-08-28T17:52:13Z</time>
  <course>47.38</course>
  <speed>2.796301128276424</speed>
  <fix>3d</fix>
</trkpt>
<trkpt lat="40.0713894" lon="-105.2297727">
  <ele>1583.0</ele>
  <time>2026-08-28T17:52:13Z</time>
  <course>46.42</course>
  <speed>2.83</speed>
  <fix>3d</fix>
</trkpt>
<trkpt lat="40.0713948" lon="-105.2297648">
  <ele>1583.14</ele>
  <time>2026-08-28T17:52:13Z</time>
  <course>47.77</course>
  <speed>2.804460732476032</speed>
  <fix>3d</fix>
</trkpt>
<trkpt lat="40.0713894" lon="-105.2297727">
  <ele>1583.0</ele>
  <time>2026-08-28T17:52:13Z</time>
  <course>46.42</course>
  <speed>2.83</speed>
  <fix>3d</fix>
</trkpt>
<trkpt lat="40.0713965" lon="-105.2297624">
  <ele>1583.14</ele>
  <time>2026-08-28T17:52:13Z</time>
  <course>48.16</course>
  <speed>2.8127744310555727</speed>
  <fix>3d</fix>
</trkpt>
<trkpt lat="40.0713929" lon="-105.2297678">
  <ele>1583.0</ele>
  <time>2026-08-28T17:52:13Z</time>
  <course>47.15</course>
  <speed>2.84</speed>
  <fix>3d</fix>
</trkpt>
<trkpt lat="40.0713982" lon="-105.2297599">
  <ele>1583.14</ele>
  <time>2026-08-28T17:52:13Z</time>
  <course>48.56</course>
  <speed>2.80713376952364</speed>
  <fix>3d</fix>
</trkpt>
<trkpt lat="40.0713929" lon="-105.2297678">
  <ele>1583.0</ele>
  <time>2026-08-28T17:52:13Z</time>
  <course>47.15</course>
  <speed>2.84</speed>
  <fix>3d</fix>
</trkpt>
<trkpt lat="40.0713999" lon="-105.2297573">
  <ele>1583.14</ele>
  <time>2026-08-28T17:52:13Z</time>
  <course>48.96</course>
  <speed>2.815759222660915</speed>
  <fix>3d</fix>
</trkpt>
<trkpt lat="40.0713964" lon="-105.2297629">
  <ele>1583.0</ele>
  <time>2026-08-28T17:52:13Z</time>
  <course>47.91</course>
  <speed>2.85</speed>
  <fix>3d</fix>
</trkpt>
<trkpt lat="40.0714016" lon="-105.2297548">
  <ele>1583.13</ele>
  <time>2026-08-28T17:52:13Z</time>
  <course>49.37</course>
  <speed>2.8245353600194143</speed>
  <fix>3d</fix>
</trkpt>
<trkpt lat="40.0713964" lon="-105.2297629">
  <ele>1583.0</ele>
  <time>2026-08-28T17:52:13Z</time>
  <course>47.91</course>
  <speed>2.85</speed>
  <fix>3d</fix>
</trkpt>
<trkpt lat="40.0714032" lon="-105.2297522">
  <ele>1583.13</ele>
  <time>2026-08-28T17:52:13Z</time>
  <course>49.79</course>
  <speed>2.827083302628347</speed>
  <fix>3d</fix>
</trkpt>
<trkpt lat="40.0713997" lon="-105.2297579">
  <ele>1583.0</ele>
  <time>2026-08-28T17:52:13Z</time>
  <course>48.7</course>
  <speed>2.85</speed>
  <fix>3d</fix>
</trkpt>
<trkpt lat="40.0714049" lon="-105.2297497">
  <ele>1583.13</ele>
  <time>2026-08-28T17:52:13Z</time>
  <course>50.2</course>
  <speed>2.8284624798642812</speed>
  <fix>3d</fix>
</trkpt>
<trkpt lat="40.0714031" lon="-105.2297528">
  <ele>1583.0</ele>
  <time>2026-08-28T17:52:13Z</time>
  <course>49.52</course>
  <speed>2.86</speed>
  <fix>3d</fix>
</trkpt>
<trkpt lat="40.0714065" lon="-105.2297471">
  <ele>1583.13</ele>
  <time>2026-08-28T17:52:13Z</time>
  <course>50.62</course>
  <speed>2.8314307337457505</speed>
  <fix>3d</fix>
</trkpt>
<trkpt lat="40.0714031" lon="-105.2297528">
  <ele>1583.0</ele>
  <time>2026-08-28T17:52:13Z</time>
  <course>49.52</course>
  <speed>2.86</speed>
  <fix>3d</fix>
</trkpt>
<trkpt lat="40.0714081" lon="-105.2297445">
  <ele>1583.13</ele>
  <time>2026-08-28T17:52:13Z</time>
  <course>51.04</course>
  <speed>2.83467811223779</speed>
  <fix>3d</fix>
</trkpt>
<trkpt lat="40.0714064" lon="-105.2297476">
  <ele>1583.0</ele>
  <time>2026-08-28T17:52:13Z</time>
  <course>50.38</course>
  <speed>2.87</speed>
  <fix>3d</fix>
</trkpt>
<trkpt lat="40.0714098" lon="-105.2297418">
  <ele>1583.12</ele>
  <time>2026-08-28T17:52:13Z</time>
  <course>51.47</course>
  <speed>2.844310109675104</speed>
  <fix>3d</fix>
</trkpt>
<trkpt lat="40.0714064" lon="-105.2297476">
  <ele>1583.0</ele>
  <time>2026-08-28T17:52:13Z</time>
  <course>50.38</course>
  <speed>2.87</speed>
  <fix>3d</fix>
</trkpt>
<trkpt lat="40.0714114" lon="-105.2297391">
  <ele>1583.12</ele>
  <time>2026-08-28T17:52:13Z</time>
  <course>51.91</course>
  <speed>2.840070421662111</speed>
  <fix>3d</fix>
</trkpt>
<trkpt lat="40.0714097" lon="-105.2297424">
  <ele>1583.0</ele>
  <time>2026-08-28T17:52:13Z</time>
  <course>51.26</course>
  <speed>2.87</speed>
  <fix>3d</fix>
</trkpt>
<trkpt lat="40.071413" lon="-105.2297364">
  <ele>1583.12</ele>
  <time>2026-08-28T17:52:13Z</time>
  <course>52.35</course>
  <speed>2.8440112517358296</speed>
  <fix>3d</fix>
</trkpt>
<trkpt lat="40.0714097" lon="-105.2297424">
  <ele>1583.0</ele>
  <time>2026-08-28T17:52:13Z</time>
  <course>51.26</course>
  <speed>2.87</speed>
  <fix>3d</fix>
</trkpt>
<trkpt lat="40.0714145" lon="-105.2297337">
  <ele>1583.12</ele>
  <time>2026-08-28T17:52:13Z</time>
  <course>52.81</course>
  <speed>2.8541373477812875</speed>
  <fix>3d</fix>
</trkpt>
<trkpt lat="40.0714129" lon="-105.2297371">
  <ele>1583.0</ele>
  <time>2026-08-28T17:52:13Z</time>
  <course>52.18</course>
  <speed>2.88</speed>
  <fix>3d</fix>
</trkpt>
<trkpt lat="40.0714161" lon="-105.2297309">
  <ele>1583.12</ele>
  <time>2026-08-28T17:52:13Z</time>
  <course>53.27</course>
  <speed>2.8504385627478452</speed>
  <fix>3d</fix>
</trkpt>
<trkpt lat="40.0714129" lon="-105.2297371">
  <ele>1583.0</ele>
  <time>2026-08-28T17:52:13Z</time>
  <course>52.18</course>
  <speed>2.88</speed>
  <fix>3d</fix>
</trkpt>
<trkpt lat="40.0714176" lon="-105.2297282">
  <ele>1583.12</ele>
  <time>2026-08-28T17:52:13Z</time>
  <course>53.74</course>
  <speed>2.8550656735003486</speed>
  <fix>3d</fix>
</trkpt>
<trkpt lat="40.071416" lon="-105.2297318">
  <ele>1583.0</ele>
  <time>2026-08-28T17:52:13Z</time>
  <course>53.14</course>
  <speed>2.88</speed>
  <fix>3d</fix>
</trkpt>
<trkpt lat="40.0714192" lon="-105.2297254">
  <ele>1583.12</ele>
  <time>2026-08-28T17:52:13Z</time>
  <course>54.23</course>
  <speed>2.8599650347512995</speed>
  <fix>3d</fix>
</trkpt>
<trkpt lat="40.071416" lon="-105.2297318">
  <ele>1583.0</ele>
  <time>2026-08-28T17:52:13Z</time>
  <course>53.14</course>
  <speed>2.88</speed>
  <fix>3d</fix>
</trkpt>
<trkpt lat="40.0714207" lon="-105.2297226">
  <ele>1583.12</ele>
  <time>2026-08-28T17:52:13Z</time>
  <course>54.73</course>
  <speed>2.8568689154387186</speed>
  <fix>3d</fix>
</trkpt>
<trkpt lat="40.0714191" lon="-105.2297263">
  <ele>1583.0</ele>
  <time>2026-08-28T17:52:13Z</time>
  <course>54.13</course>
  <speed>2.88</speed>
  <fix>3d</fix>
</trkpt>
<trkpt lat="40.0714222" lon="-105.2297198">
  <ele>1583.12</ele>
  <time>2026-08-28T17:52:13Z</time>
  <course>55.25</course>
  <speed>2.8622543562723424</speed>
  <fix>3d</fix>
</trkpt>
<trkpt lat="40.0714191" lon="-105.2297263">
  <ele>1583.0</ele>
  <time>2026-08-28T17:52:13Z</time>
  <course>54.13</course>
  <speed>2.88</speed>
  <fix>3d</fix>
</trkpt>
<trkpt lat="40.0714236" lon="-105.229717">
  <ele>1583.12</ele>
  <time>2026-08-28T17:52:13Z</time>
  <course>55.8</course>
  <speed>2.8540672732085346</speed>
  <fix>3d</fix>
</trkpt>
<trkpt lat="40.0714221" lon="-105.2297208">
  <ele>1583.0</ele>
  <time>2026-08-28T17:52:13Z</time>
  <course>55.18</course>
  <speed>2.88</speed>
  <fix>3d</fix>
</trkpt>
<trkpt lat="40.0714251" lon="-105.2297142">
  <ele>1583.13</ele>
  <time>2026-08-28T17:52:13Z</time>
  <course>56.36</course>
  <speed>2.860017482464049</speed>
  <fix>3d</fix>
</trkpt>
<trkpt lat="40.0714221" lon="-105.2297208">
  <ele>1583.0</ele>
  <time>2026-08-28T17:52:13Z</time>
  <course>55.18</course>
  <speed>2.88</speed>
  <fix>3d</fix>
</trkpt>
<trkpt lat="40.0714265" lon="-105.2297113">
  <ele>1583.13</ele>
  <time>2026-08-28T17:52:13Z</time>
  <course>56.94</course>
  <speed>2.866234463542716</speed>
  <fix>3d</fix>
</trkpt>
<trkpt lat="40.0714221" lon="-105.2297208">
  <ele>1583.0</ele>
  <time>2026-08-28T17:52:13Z</time>
  <course>55.18</course>
  <speed>2.88</speed>
  <fix>3d</fix>
</trkpt>
<trkpt lat="40.0714279" lon="-105.2297085">
  <ele>1583.12</ele>
  <time>2026-08-28T17:52:13Z</time>
  <course>57.54</course>
  <speed>2.8589683454001373</speed>
  <fix>3d</fix>
</trkpt>
<trkpt lat="40.071425" lon="-105.2297151">
  <ele>1583.0</ele>
  <time>2026-08-28T17:52:13Z</time>
  <course>56.29</course>
  <speed>2.88</speed>
  <fix>3d</fix>
</trkpt>
<trkpt lat="40.0714293" lon="-105.2297056">
  <ele>1583.12</ele>
  <time>2026-08-28T17:52:13Z</time>
  <course>58.16</course>
  <speed>2.8657459761814197</speed>
  <fix>3d</fix>
</trkpt>
<trkpt lat="40.071425" lon="-105.2297151">
  <ele>1583.0</ele>
  <time>2026-08-28T17:52:13Z</time>
  <course>56.29</course>
  <speed>2.88</speed>
  <fix>3d</fix>
</trkpt>
<trkpt lat="40.0714306" lon="-105.2297027">
  <ele>1583.12</ele>
  <time>2026-08-28T17:52:13Z</time>
  <course>58.79</course>
  <speed>2.8677517326295874</speed>
  <fix>3d</fix>
</trkpt>
<trkpt lat="40.0714279" lon="-105.2297095">
  <ele>1583.0</ele>
  <time>2026-08-28T17:52:13Z</time>
  <course>57.46</course>
  <speed>2.88</speed>
  <fix>3d</fix>
</trkpt>
<trkpt lat="40.0714319" lon="-105.2296999">
  <ele>1583.12</ele>
  <time>2026-08-28T17:52:13Z</time>
  <course>59.43</course>
  <speed>2.8664437897855244</speed>
  <fix>3d</fix>
</trkpt>
<trkpt lat="40.0714279" lon="-105.2297095">
  <ele>1583.0</ele>
  <time>2026-08-28T17:52:13Z</time>
  <course>57.46</course>
  <speed>2.88</speed>
  <fix>3d</fix>
</trkpt>
<trkpt lat="40.0714332" lon="-105.2296969">
  <ele>1583.12</ele>
  <time>2026-08-28T17:52:13Z</time>
  <course>60.08</course>
  <speed>2.8740389698123443</speed>
  <fix>3d</fix>
</trkpt>
<trkpt lat="40.0714306" lon="-105.2297038">
  <ele>1583.0</ele>
  <time>2026-08-28T17:52:13Z</time>
  <course>58.67</course>
  <speed>2.89</speed>
  <fix>3d</fix>
</trkpt>
<trkpt lat="40.0714345" lon="-105.229694">
  <ele>1583.12</ele>
  <time>2026-08-28T17:52:13Z</time>
  <course>60.75</course>
  <speed>2.8771166121657283</speed>
  <fix>3d</fix>
</trkpt>
<trkpt lat="40.0714332" lon="-105.2296979">
  <ele>1583.0</ele>
  <time>2026-08-28T17:52:13Z</time>
  <course>59.93</course>
  <speed>2.9</speed>
  <fix>3d</fix>
</trkpt>
<trkpt lat="40.0714358" lon="-105.229691">
  <ele>1583.12</ele>
  <time>2026-08-28T17:52:13Z</time>
  <course>61.41</course>
  <speed>2.8806422894903143</speed>
  <fix>3d</fix>
</trkpt>
<trkpt lat="40.0714332" lon="-105.2296979">
  <ele>1583.0</ele>
  <time>2026-08-28T17:52:13Z</time>
  <course>59.93</course>
  <speed>2.9</speed>
  <fix>3d</fix>
</trkpt>
<trkpt lat="40.071437" lon="-105.229688">
  <ele>1583.12</ele>
  <time>2026-08-28T17:52:13Z</time>
  <course>62.08</course>
  <speed>2.889169430822637</speed>
  <fix>3d</fix>
</trkpt>
<trkpt lat="40.0714358" lon="-105.229692">
  <ele>1583.0</ele>
  <time>2026-08-28T17:52:13Z</time>
  <course>61.22</course>
  <speed>2.91</speed>
  <fix>3d</fix>
</trkpt>
<trkpt lat="40.0714383" lon="-105.229685">
  <ele>1583.11</ele>
  <time>2026-08-28T17:52:13Z</time>
  <course>62.75</course>
  <speed>2.8934754189382703</speed>
  <fix>3d</fix>
</trkpt>
<trkpt lat="40.0714358" lon="-105.229692">
  <ele>1583.0</ele>
  <time>2026-08-28T17:52:13Z</time>
  <course>61.22</course>
  <speed>2.91</speed>
  <fix>3d</fix>
</trkpt>
<trkpt lat="40.0714395" lon="-105.2296819">
  <ele>1583.11</ele>
  <time>2026-08-28T17:52:13Z</time>
  <course>63.42</course>
  <speed>2.9025850547399985</speed>
  <fix>3d</fix>
</trkpt>
<trkpt lat="40.0714383" lon="-105.2296859">
  <ele>1583.0</ele>
  <time>2026-08-28T17:52:13Z</time>
  <course>62.54</course>
  <speed>2.93</speed>
  <fix>3d</fix>
</trkpt>
<trkpt lat="40.0714406" lon="-105.2296788">
  <ele>1583.11</ele>
  <time>2026-08-28T17:52:13Z</time>
  <course>64.1</course>
  <speed>2.8943565778942997</speed>
  <fix>3d</fix>
</trkpt>
<trkpt lat="40.0714383" lon="-105.2296859">
  <ele>1583.0</ele>
  <time>2026-08-28T17:52:13Z</time>
  <course>62.54</course>
  <speed>2.93</speed>
  <fix>3d</fix>
</trkpt>
<trkpt lat="40.0714418" lon="-105.2296758">
  <ele>1583.11</ele>
  <time>2026-08-28T17:52:13Z</time>
  <course>64.78</course>
  <speed>2.8370407117276266</speed>
  <fix>3d</fix>
</trkpt>
<trkpt lat="40.0714407" lon="-105.2296798">
  <ele>1583.0</ele>
  <time>2026-08-28T17:52:13Z</time>
  <course>63.88</course>
  <speed>2.9</speed>
  <fix>3d</fix>
</trkpt>
<trkpt lat="40.0714429" lon="-105.2296727">
  <ele>1583.11</ele>
  <time>2026-08-28T17:52:13Z</time>
  <course>65.46</course>
  <speed>2.7444853798116693</speed>
  <fix>3d</fix>
</trkpt>
<trkpt lat="40.0714407" lon="-105.2296798">
  <ele>1583.0</ele>
  <time>2026-08-28T17:52:13Z</time>
  <course>63.88</course>
  <speed>2.9</speed>
  <fix>3d</fix>
</trkpt>
<trkpt lat="40.0714439" lon="-105.2296698">
  <ele>1583.11</ele>
  <time>2026-08-28T17:52:13Z</time>
  <course>66.14</course>
  <speed>2.6431988196123273</speed>
  <fix>3d</fix>
</trkpt>
<trkpt lat="40.0714429" lon="-105.2296737">
  <ele>1583.0</ele>
  <time>2026-08-28T17:52:13Z</time>
  <course>65.24</course>
  <speed>2.77</speed>
  <fix>3d</fix>
</trkpt>
<trkpt lat="40.0714448" lon="-105.229667">
  <ele>1583.11</ele>
  <time>2026-08-28T17:52:13Z</time>
  <course>66.82</course>
  <speed>2.5200198411917314</speed>
  <fix>3d</fix>
</trkpt>
<trkpt lat="40.0714429" lon="-105.2296737">
  <ele>1583.0</ele>
  <time>2026-08-28T17:52:13Z</time>
  <course>65.24</course>
  <speed>2.77</speed>
  <fix>3d</fix>
</trkpt>
<trkpt lat="40.0714457" lon="-105.2296643">
  <ele>1583.11</ele>
  <time>2026-08-28T17:52:13Z</time>
  <course>67.5</course>
  <speed>2.4103319273494264</speed>
  <fix>3d</fix>
</trkpt>
<trkpt lat="40.0714449" lon="-105.229668">
  <ele>1583.0</ele>
  <time>2026-08-28T17:52:13Z</time>
  <course>66.63</course>
  <speed>2.55</speed>
  <fix>3d</fix>
</trkpt>
<trkpt lat="40.0714465" lon="-105.2296617">
  <ele>1583.11</ele>
  <time>2026-08-28T17:52:13Z</time>
  <course>68.17</course>
  <speed>2.2917242417009946</speed>
  <fix>3d</fix>
</trkpt>
<trkpt lat="40.0714449" lon="-105.229668">
  <ele>1583.0</ele>
  <time>2026-08-28T17:52:13Z</time>
  <course>66.63</course>
  <speed>2.55</speed>
  <fix>3d</fix>
</trkpt>
<trkpt lat="40.0714472" lon="-105.2296593">
  <ele>1583.1</ele>
  <time>2026-08-28T17:52:13Z</time>
  <course>68.85</course>
  <speed>2.186343980255623</speed>
  <fix>3d</fix>
</trkpt>
<trkpt lat="40.0714465" lon="-105.2296627">
  <ele>1583.0</ele>
  <time>2026-08-28T17:52:13Z</time>
  <course>68.04</course>
  <speed>2.33</speed>
  <fix>3d</fix>
</trkpt>
<trkpt lat="40.0714479" lon="-105.2296569">
  <ele>1583.1</ele>
  <time>2026-08-28T17:52:13Z</time>
  <course>69.53</course>
  <speed>2.0906697491473873</speed>
  <fix>3d</fix>
</trkpt>
<trkpt lat="40.0714465" lon="-105.2296627">
  <ele>1583.0</ele>
  <time>2026-08-28T17:52:13Z</time>
  <course>68.04</course>
  <speed>2.33</speed>
  <fix>3d</fix>
</trkpt>
<trkpt lat="40.0714486" lon="-105.2296547">
  <ele>1583.1</ele>
  <time>2026-08-28T17:52:13Z</time>
  <course>70.2</course>
  <speed>2.0081085628023203</speed>
  <fix>3d</fix>
</trkpt>
<trkpt lat="40.0714465" lon="-105.2296627">
  <ele>1583.0</ele>
  <time>2026-08-28T17:52:13Z</time>
  <course>68.04</course>
  <speed>2.33</speed>
  <fix>3d</fix>
</trkpt>
<trkpt lat="40.0714492" lon="-105.2296525">
  <ele>1583.1</ele>
  <time>2026-08-28T17:52:13Z</time>
  <course>70.88</course>
  <speed>1.925850461484484</speed>
  <fix>3d</fix>
</trkpt>
<trkpt lat="40.0714479" lon="-105.2296578">
  <ele>1583.0</ele>
  <time>2026-08-28T17:52:13Z</time>
  <course>69.46</course>
  <speed>2.13</speed>
  <fix>3d</fix>
</trkpt>
<trkpt lat="40.0714497" lon="-105.2296504">
  <ele>1583.1</ele>
  <time>2026-08-28T17:52:13Z</time>
  <course>71.55</course>
  <speed>1.8660117898877275</speed>
  <fix>3d</fix>
</trkpt>
<trkpt lat="40.0714479" lon="-105.2296578">
  <ele>1583.0</ele>
  <time>2026-08-28T17:52:13Z</time>
  <course>69.46</course>
  <speed>2.13</speed>
  <fix>3d</fix>
</trkpt>
<trkpt lat="40.0714502" lon="-105.2296483">
  <ele>1583.1</ele>
  <time>2026-08-28T17:52:13Z</time>
  <course>72.22</course>
  <speed>1.80646062785769</speed>
  <fix>3d</fix>
</trkpt>
<trkpt lat="40.0714493" lon="-105.2296533">
  <ele>1583.0</ele>
  <time>2026-08-28T17:52:13Z</time>
  <course>70.87</course>
  <speed>1.97</speed>
  <fix>3d</fix>
</trkpt>
<trkpt lat="40.0714507" lon="-105.2296463">
  <ele>1583.1</ele>
  <time>2026-08-28T17:52:13Z</time>
  <course>72.89</course>
  <speed>1.7568437608393068</speed>
  <fix>3d</fix>
</trkpt>
<trkpt lat="40.0714493" lon="-105.2296533">
  <ele>1583.0</ele>
  <time>2026-08-28T17:52:13Z</time>
  <course>70.87</course>
  <speed>1.97</speed>
  <fix>3d</fix>
</trkpt>
<trkpt lat="40.0714511" lon="-105.2296444">
  <ele>1583.1</ele>
  <time>2026-08-28T17:52:13Z</time>
  <course>73.55</course>
  <speed>1.710263137648707</speed>
  <fix>3d</fix>
</trkpt>
<trkpt lat="40.0714503" lon="-105.229649">
  <ele>1583.0</ele>
  <time>2026-08-28T17:52:13Z</time>
  <course>72.26</course>
  <speed>1.85</speed>
  <fix>3d</fix>
</trkpt>
<trkpt lat="40.0714515" lon="-105.2296425">
  <ele>1583.1</ele>
  <time>2026-08-28T17:52:13Z</time>
  <course>74.21</course>
  <speed>1.6832409215557944</speed>
  <fix>3d</fix>
</trkpt>
<trkpt lat="40.0714503" lon="-105.229649">
  <ele>1583.0</ele>
  <time>2026-08-28T17:52:13Z</time>
  <course>72.26</course>
  <speed>1.85</speed>
  <fix>3d</fix>
</trkpt>
<trkpt lat="40.071452" lon="-105.2296406">
  <ele>1583.09</ele>
  <time>2026-08-28T17:52:13Z</time>
  <course>74.87</course>
  <speed>1.6468454693747074</speed>
  <fix>3d</fix>
</trkpt>
<trkpt lat="40.0714513" lon="-105.229645">
  <ele>1583.0</ele>
  <time>2026-08-28T17:52:13Z</time>
  <course>73.62</course>
  <speed>1.77</speed>
  <fix>3d</fix>
</trkpt>
<trkpt lat="40.0714523" lon="-105.2296387">
  <ele>1583.09</ele>
  <time>2026-08-28T17:52:13Z</time>
  <course>75.51</course>
  <speed>1.6227445886522005</speed>
  <fix>3d</fix>
</trkpt>
<trkpt lat="40.0714521" lon="-105.229641">
  <ele>1583.0</ele>
  <time>2026-08-28T17:52:13Z</time>
  <course>74.94</course>
  <speed>1.7</speed>
  <fix>3d</fix>
</trkpt>
<trkpt lat="40.0714527" lon="-105.2296368">
  <ele>1583.09</ele>
  <time>2026-08-28T17:52:13Z</time>
  <course>76.15</course>
  <speed>1.598780785473731</speed>
  <fix>3d</fix>
</trkpt>
<trkpt lat="40.0714521" lon="-105.229641">
  <ele>1583.0</ele>
  <time>2026-08-28T17:52:13Z</time>
  <course>74.94</course>
  <speed>1.7</speed>
  <fix>3d</fix>
</trkpt>
<trkpt lat="40.071453" lon="-105.229635">
  <ele>1583.1</ele>
  <time>2026-08-28T17:52:13Z</time>
  <course>76.78</course>
  <speed>1.5826875876179733</speed>
  <fix>3d</fix>
</trkpt>
<trkpt lat="40.0714529" lon="-105.2296372">
  <ele>1583.0</ele>
  <time>2026-08-28T17:52:13Z</time>
  <course>76.23</course>
  <speed>1.65</speed>
  <fix>3d</fix>
</trkpt>
<trkpt lat="40.0714533" lon="-105.2296332">
  <ele>1583.1</ele>
  <time>2026-08-28T17:52:13Z</time>
  <course>77.41</course>
  <speed>1.5591343752223539</speed>
  <fix>3d</fix>
</trkpt>
<trkpt lat="40.0714529" lon="-105.2296372">
  <ele>1583.0</ele>
  <time>2026-08-28T17:52:13Z</time>
  <course>76.23</course>
  <speed>1.65</speed>
  <fix>3d</fix>
</trkpt>
<trkpt lat="40.0714536" lon="-105.2296313">
  <ele>1583.11</ele>
  <time>2026-08-28T17:52:13Z</time>
  <course>78.02</course>
  <speed>1.5357408635573906</speed>
  <fix>3d</fix>
</trkpt>
<trkpt lat="40.0714536" lon="-105.2296334">
  <ele>1583.0</ele>
  <time>2026-08-28T17:52:13Z</time>
  <course>77.48</course>
  <speed>1.61</speed>
  <fix>3d</fix>
</trkpt>
<trkpt lat="40.0714539" lon="-105.2296295">
  <ele>1583.11</ele>
  <time>2026-08-28T17:52:13Z</time>
  <course>78.63</course>
  <speed>1.5223665787188052</speed>
  <fix>3d</fix>
</trkpt>
<trkpt lat="40.0714536" lon="-105.2296334">
  <ele>1583.0</ele>
  <time>2026-08-28T17:52:13Z</time>
  <course>77.48</course>
  <speed>1.61</speed>
  <fix>3d</fix>
</trkpt>
<trkpt lat="40.0714542" lon="-105.2296277">
  <ele>1583.11</ele>
  <time>2026-08-28T17:52:13Z</time>
  <course>79.23</course>
  <speed>1.499333185119305</speed>
  <fix>3d</fix>
</trkpt>
<trkpt lat="40.0714541" lon="-105.2296298">
  <ele>1583.0</ele>
  <time>2026-08-28T17:52:13Z</time>
  <course>78.69</course>
  <speed>1.57</speed>
  <fix>3d</fix>
</trkpt>
<trkpt lat="40.0714544" lon="-105.2296259">
  <ele>1583.11</ele>
  <time>2026-08-28T17:52:13Z</time>
  <course>79.82</course>
  <speed>1.4764823060233399</speed>
  <fix>3d</fix>
</trkpt>
<trkpt lat="40.0714541" lon="-105.2296298">
  <ele>1583.0</ele>
  <time>2026-08-28T17:52:13Z</time>
  <course>78.69</course>
  <speed>1.57</speed>
  <fix>3d</fix>
</trkpt>
<trkpt lat="40.0714546" lon="-105.2296242">
  <ele>1583.11</ele>
  <time>2026-08-28T17:52:13Z</time>
  <course>80.39</course>
  <speed>1.4538225476308997</speed>
  <fix>3d</fix>
</trkpt>
<trkpt lat="40.0714546" lon="-105.2296262">
  <ele>1583.0</ele>
  <time>2026-08-28T17:52:13Z</time>
  <course>79.86</course>
  <speed>1.52</speed>
  <fix>3d</fix>
</trkpt>
<trkpt lat="40.0714548" lon="-105.2296225">
  <ele>1583.12</ele>
  <time>2026-08-28T17:52:13Z</time>
  <course>80.95</course>
  <speed>1.431362986806631</speed>
  <fix>3d</fix>
</trkpt>
<trkpt lat="40.0714546" lon="-105.2296262">
  <ele>1583.0</ele>
  <time>2026-08-28T17:52:13Z</time>
  <course>79.86</course>
  <speed>1.52</speed>
  <fix>3d</fix>
</trkpt>
<trkpt lat="40.071455" lon="-105.2296208">
  <ele>1583.12</ele>
  <time>2026-08-28T17:52:13Z</time>
  <course>81.5</course>
  <speed>1.4091131963046828</speed>
  <fix>3d</fix>
</trkpt>
<trkpt lat="40.071455" lon="-105.2296227">
  <ele>1583.0</ele>
  <time>2026-08-28T17:52:13Z</time>
  <course>80.99</course>
  <speed>1.47</speed>
  <fix>3d</fix>
</trkpt>
<trkpt lat="40.0714552" lon="-105.2296191">
  <ele>1583.12</ele>
  <time>2026-08-28T17:52:13Z</time>
  <course>82.04</course>
  <speed>1.388128236151113</speed>
  <fix>3d</fix>
</trkpt>
<trkpt lat="40.071455" lon="-105.2296227">
  <ele>1583.0</ele>
  <time>2026-08-28T17:52:13Z</time>
  <course>80.99</course>
  <speed>1.47</speed>
  <fix>3d</fix>
</trkpt>
<trkpt lat="40.0714554" lon="-105.2296174">
  <ele>1583.12</ele>
  <time>2026-08-28T17:52:13Z</time>
  <course>82.56</course>
  <speed>1.3661991070118586</speed>
  <fix>3d</fix>
</trkpt>
<trkpt lat="40.0714555" lon="-105.2296193">
  <ele>1583.0</ele>
  <time>2026-08-28T17:52:13Z</time>
  <course>82.07</course>
  <speed>1.43</speed>
  <fix>3d</fix>
</trkpt>
<trkpt lat="40.0714555" lon="-105.2296158">
  <ele>1583.12</ele>
  <time>2026-08-28T17:52:13Z</time>
  <course>83.07</course>
  <speed>1.3445073447177593</speed>
  <fix>3d</fix>
</trkpt>
<trkpt lat="40.0714555" lon="-105.2296193">
  <ele>1583.0</ele>
  <time>2026-08-28T17:52:13Z</time>
  <course>82.07</course>
  <speed>1.43</speed>
  <fix>3d</fix>
</trkpt>
<trkpt lat="40.0714556" lon="-105.2296142">
  <ele>1583.12</ele>
  <time>2026-08-28T17:52:13Z</time>
  <course>83.56</course>
  <speed>1.3138112497615477</speed>
  <fix>3d</fix>
</trkpt>
<trkpt lat="40.0714555" lon="-105.2296193">
  <ele>1583.0</ele>
  <time>2026-08-28T17:52:13Z</time>
  <course>82.07</course>
  <speed>1.43</speed>
  <fix>3d</fix>
</trkpt>
<trkpt lat="40.0714558" lon="-105.2296126">
  <ele>1583.12</ele>
  <time>2026-08-28T17:52:13Z</time>
  <course>84.04</course>
  <speed>1.2924782396620842</speed>
  <fix>3d</fix>
</trkpt>
<trkpt lat="40.0714558" lon="-105.229616">
  <ele>1583.0</ele>
  <time>2026-08-28T17:52:13Z</time>
  <course>83.1</course>
  <speed>1.38</speed>
  <fix>3d</fix>
</trkpt>
<trkpt lat="40.0714559" lon="-105.2296111">
  <ele>1583.13</ele>
  <time>2026-08-28T17:52:13Z</time>
  <course>84.51</course>
  <speed>1.271927670899568</speed>
  <fix>3d</fix>
</trkpt>
<trkpt lat="40.0714558" lon="-105.229616">
  <ele>1583.0</ele>
  <time>2026-08-28T17:52:13Z</time>
  <course>83.1</course>
  <speed>1.38</speed>
  <fix>3d</fix>
</trkpt>
<trkpt lat="40.071456" lon="-105.2296096">
  <ele>1583.12</ele>
  <time>2026-08-28T17:52:13Z</time>
  <course>84.96</course>
  <speed>1.251439171514141</speed>
  <fix>3d</fix>
</trkpt>
<trkpt lat="40.0714561" lon="-105.2296129">
  <ele>1583.0</ele>
  <time>2026-08-28T17:52:13Z</time>
  <course>84.08</course>
  <speed>1.33</speed>
  <fix>3d</fix>
</trkpt>
<trkpt lat="40.071456" lon="-105.2296081">
  <ele>1583.12</ele>
  <time>2026-08-28T17:52:13Z</time>
  <course>85.4</course>
  <speed>1.231015840677934</speed>
  <fix>3d</fix>
</trkpt>
<trkpt lat="40.0714561" lon="-105.2296129">
  <ele>1583.0</ele>
  <time>2026-08-28T17:52:13Z</time>
  <course>84.08</course>
  <speed>1.33</speed>
  <fix>3d</fix>
</trkpt>
<trkpt lat="40.0714561" lon="-105.2296067">
  <ele>1583.12</ele>
  <time>2026-08-28T17:52:13Z</time>
  <course>85.82</course>
  <speed>1.2006664815842907</speed>
  <fix>3d</fix>
</trkpt>
<trkpt lat="40.0714562" lon="-105.2296098">
  <ele>1583.0</ele>
  <time>2026-08-28T17:52:13Z</time>
  <course>85.01</course>
  <speed>1.28</speed>
  <fix>3d</fix>
</trkpt>
<trkpt lat="40.0714562" lon="-105.2296053">
  <ele>1583.12</ele>
  <time>2026-08-28T17:52:13Z</time>
  <course>86.23</course>
  <speed>1.1803812943282352</speed>
  <fix>3d</fix>
</trkpt>
<trkpt lat="40.0714564" lon="-105.2296069">
  <ele>1583.0</ele>
  <time>2026-08-28T17:52:13Z</time>
  <course>85.88</course>
  <speed>1.24</speed>
  <fix>3d</fix>
</trkpt>
<trkpt lat="40.0714563" lon="-105.2296038">
  <ele>1583.12</ele>
  <time>2026-08-28T17:52:13Z</time>
  <course>86.62</course>
  <speed>1.1601724009818541</speed>
  <fix>3d</fix>
</trkpt>
<trkpt lat="40.0714564" lon="-105.2296069">
  <ele>1583.0</ele>
  <time>2026-08-28T17:52:13Z</time>
  <course>85.88</course>
  <speed>1.24</speed>
  <fix>3d</fix>
</trkpt>
<trkpt lat="40.0714563" lon="-105.2296025">
  <ele>1583.12</ele>
  <time>2026-08-28T17:52:13Z</time>
  <course>87.0</course>
  <speed>1.140043858805441</speed>
  <fix>3d</fix>
</trkpt>
<trkpt lat="40.0714566" lon="-105.229604">
  <ele>1583.0</ele>
  <time>2026-08-28T17:52:13Z</time>
  <course>86.69</course>
  <speed>1.2</speed>
  <fix>3d</fix>
</trkpt>
<trkpt lat="40.0714563" lon="-105.2296011">
  <ele>1583.12</ele>
  <time>2026-08-28T17:52:13Z</time>
  <course>87.36</course>
  <speed>1.12</speed>
  <fix>3d</fix>
</trkpt>
<trkpt lat="40.0714566" lon="-105.229604">
  <ele>1583.0</ele>
  <time>2026-08-28T17:52:13Z</time>
  <course>86.69</course>
  <speed>1.2</speed>
  <fix>3d</fix>
</trkpt>
<trkpt lat="40.0714564" lon="-105.2295998">
  <ele>1583.12</ele>
  <time>2026-08-28T17:52:13Z</time>
  <course>87.7</course>
  <speed>1.11</speed>
  <fix>3d</fix>
</trkpt>
<trkpt lat="40.0714567" lon="-105.2296012">
  <ele>1583.0</ele>
  <time>2026-08-28T17:52:13Z</time>
  <course>87.44</course>
  <speed>1.16</speed>
  <fix>3d</fix>
</trkpt>
<trkpt lat="40.0714564" lon="-105.2295984">
  <ele>1583.12</ele>
  <time>2026-08-28T17:52:13Z</time>
  <course>88.03</course>
  <speed>1.0900458705944442</speed>
  <fix>3d</fix>
</trkpt>
<trkpt lat="40.0714567" lon="-105.2296012">
  <ele>1583.0</ele>
  <time>2026-08-28T17:52:13Z</time>
  <course>87.44</course>
  <speed>1.16</speed>
  <fix>3d</fix>
</trkpt>
<trkpt lat="40.0714564" lon="-105.2295971">
  <ele>1583.12</ele>
  <time>2026-08-28T17:52:13Z</time>
  <course>88.35</course>
  <speed>1.0700467279516348</speed>
  <fix>3d</fix>
</trkpt>
<trkpt lat="40.0714568" lon="-105.2295986">
  <ele>1583.0</ele>
  <time>2026-08-28T17:52:13Z</time>
  <course>88.14</course>
  <speed>1.12</speed>
  <fix>3d</fix>
</trkpt>
<trkpt lat="40.0714565" lon="-105.2295958">
  <ele>1583.12</ele>
  <time>2026-08-28T17:52:13Z</time>
  <course>88.65</course>
  <speed>1.0501904589168576</speed>
  <fix>3d</fix>
</trkpt>
<trkpt lat="40.0714568" lon="-105.2295986">
  <ele>1583.0</ele>
  <time>2026-08-28T17:52:13Z</time>
  <course>88.14</course>
  <speed>1.12</speed>
  <fix>3d</fix>
</trkpt>
<trkpt lat="40.0714565" lon="-105.2295946">
  <ele>1583.12</ele>
  <time>2026-08-28T17:52:13Z</time>
  <course>88.94</course>
  <speed>1.030194156457898</speed>
  <fix>3d</fix>
</trkpt>
<trkpt lat="40.0714569" lon="-105.229596">
  <ele>1583.0</ele>
  <time>2026-08-28T17:52:13Z</time>
  <course>88.78</course>
  <speed>1.08</speed>
  <fix>3d</fix>
</trkpt>
<trkpt lat="40.0714565" lon="-105.2295933">
  <ele>1583.12</ele>
  <time>2026-08-28T17:52:13Z</time>
  <course>89.21</course>
  <speed>1.0104454463255303</speed>
  <fix>3d</fix>
</trkpt>
<trkpt lat="40.0714569" lon="-105.229596">
  <ele>1583.0</ele>
  <time>2026-08-28T17:52:13Z</time>
  <course>88.78</course>
  <speed>1.08</speed>
  <fix>3d</fix>
</trkpt>
<trkpt lat="40.0714565" lon="-105.2295921">
  <ele>1583.12</ele>
  <time>2026-08-28T17:52:13Z</time>
  <course>89.47</course>
  <speed>0.9904544411531506</speed>
  <fix>3d</fix>
</trkpt>
<trkpt lat="40.0714569" lon="-105.2295935">
  <ele>1583.0</ele>
  <time>2026-08-28T17:52:13Z</time>
  <course>89.36</course>
  <speed>1.04</speed>
  <fix>3d</fix>
</trkpt>
<trkpt lat="40.0714565" lon="-105.2295909">
  <ele>1583.12</ele>
  <time>2026-08-28T17:52:13Z</time>
  <course>89.72</course>
  <speed>0.9808159868191383</speed>
  <fix>3d</fix>
</trkpt>
<trkpt lat="40.0714569" lon="-105.2295935">
  <ele>1583.0</ele>
  <time>2026-08-28T17:52:13Z</time>
  <course>89.36</course>
  <speed>1.04</speed>
  <fix>3d</fix>
</trkpt>
<trkpt lat="40.0714565" lon="-105.2295898">
  <ele>1583.12</ele>
  <time>2026-08-28T17:52:13Z</time>
  <course>89.94</course>
  <speed>0.9608329719571451</speed>
  <fix>3d</fix>
</trkpt>
<trkpt lat="40.0714569" lon="-105.229591">
  <ele>1583.0</ele>
  <time>2026-08-28T17:52:13Z</time>
  <course>89.88</course>
  <speed>1.0</speed>
  <fix>3d</fix>
</trkpt>
<trkpt lat="40.0714565" lon="-105.2295886">
  <ele>1583.12</ele>
  <time>2026-08-28T17:52:13Z</time>
  <course>90.16</course>
  <speed>0.940850678907126</speed>
  <fix>3d</fix>
</trkpt>
<trkpt lat="40.0714569" lon="-105.229591">
  <ele>1583.0</ele>
  <time>2026-08-28T17:52:13Z</time>
  <course>89.88</course>
  <speed>1.0</speed>
  <fix>3d</fix>
</trkpt>
<trkpt lat="40.0714566" lon="-105.2295875">
  <ele>1583.13</ele>
  <time>2026-08-28T17:52:13Z</time>
  <course>90.36</course>
  <speed>0.930859817588019</speed>
  <fix>3d</fix>
</trkpt>
<trkpt lat="40.0714569" lon="-105.229591">
  <ele>1583.0</ele>
  <time>2026-08-28T17:52:13Z</time>
  <course>89.88</course>
  <speed>1.0</speed>
  <fix>3d</fix>
</trkpt>
<trkpt lat="40.0714566" lon="-105.2295864">
  <ele>1583.13</ele>
  <time>2026-08-28T17:52:13Z</time>
  <course>90.55</course>
  <speed>0.9113725912051558</speed>
  <fix>3d</fix>
</trkpt>
<trkpt lat="40.0714569" lon="-105.2295887">
  <ele>1583.0</ele>
  <time>2026-08-28T17:52:13Z</time>
  <course>90.35</course>
  <speed>0.97</speed>
  <fix>3d</fix>
</trkpt>
<trkpt lat="40.0714566" lon="-105.2295853">
  <ele>1583.13</ele>
  <time>2026-08-28T17:52:13Z</time>
  <course>90.72</course>
  <speed>0.891403387922662</speed>
  <fix>3d</fix>
</trkpt>
<trkpt lat="40.0714569" lon="-105.2295887">
  <ele>1583.0</ele>
  <time>2026-08-28T17:52:13Z</time>
  <course>90.35</course>
  <speed>0.97</speed>
  <fix>3d</fix>
</trkpt>
<trkpt lat="40.0714566" lon="-105.2295842">
  <ele>1583.13</ele>
  <time>2026-08-28T17:52:13Z</time>
  <course>90.88</course>
  <speed>0.8814193099768123</speed>
  <fix>3d</fix>
</trkpt>
<trkpt lat="40.0714569" lon="-105.2295865">
  <ele>1583.0</ele>
  <time>2026-08-28T17:52:13Z</time>
  <course>90.76</course>
  <speed>0.94</speed>
  <fix>3d</fix>
</trkpt>
<trkpt lat="40.0714566" lon="-105.2295832">
  <ele>1583.13</ele>
  <time>2026-08-28T17:52:13Z</time>
  <course>91.03</course>
  <speed>0.8714355971613738</speed>
  <fix>3d</fix>
</trkpt>
<trkpt lat="40.0714569" lon="-105.2295865">
  <ele>1583.0</ele>
  <time>2026-08-28T17:52:13Z</time>
  <course>90.76</course>
  <speed>0.94</speed>
  <fix>3d</fix>
</trkpt>
<trkpt lat="40.0714566" lon="-105.2295821">
  <ele>1583.13</ele>
  <time>2026-08-28T17:52:13Z</time>
  <course>91.16</course>
  <speed>0.8514693182963201</speed>
  <fix>3d</fix>
</trkpt>
<trkpt lat="40.0714569" lon="-105.2295843">
  <ele>1583.0</ele>
  <time>2026-08-28T17:52:13Z</time>
  <course>91.11</course>
  <speed>0.91</speed>
  <fix>3d</fix>
</trkpt>
<trkpt lat="40.0714565" lon="-105.2295811">
  <ele>1583.13</ele>
  <time>2026-08-28T17:52:13Z</time>
  <course>91.28</course>
  <speed>0.841486779456457</speed>
  <fix>3d</fix>
</trkpt>
<trkpt lat="40.0714569" lon="-105.2295822">
  <ele>1583.0</ele>
  <time>2026-08-28T17:52:13Z</time>
  <course>91.41</course>
  <speed>0.88</speed>
  <fix>3d</fix>
</trkpt>
<trkpt lat="40.0714565" lon="-105.2295801">
  <ele>1583.12</ele>
  <time>2026-08-28T17:52:13Z</time>
  <course>91.39</course>
  <speed>0.8315046602394962</speed>
  <fix>3d</fix>
</trkpt>
<trkpt lat="40.0714569" lon="-105.2295822">
  <ele>1583.0</ele>
  <time>2026-08-28T17:52:13Z</time>
  <course>91.41</course>
  <speed>0.88</speed>
  <fix>3d</fix>
</trkpt>
<trkpt lat="40.0714565" lon="-105.2295791">
  <ele>1583.12</ele>
  <time>2026-08-28T17:52:13Z</time>
  <course>91.48</course>
  <speed>0.8115417426109393</speed>
  <fix>3d</fix>
</trkpt>
<trkpt lat="40.0714569" lon="-105.2295801">
  <ele>1583.0</ele>
  <time>2026-08-28T17:52:13Z</time>
  <course>91.65</course>
  <speed>0.85</speed>
  <fix>3d</fix>
</trkpt>
<trkpt lat="40.0714565" lon="-105.2295781">
  <ele>1583.12</ele>
  <time>2026-08-28T17:52:13Z</time>
  <course>91.56</course>
  <speed>0.8015609770940699</speed>
  <fix>3d</fix>
</trkpt>
<trkpt lat="40.0714569" lon="-105.2295801">
  <ele>1583.0</ele>
  <time>2026-08-28T17:52:13Z</time>
  <course>91.65</course>
  <speed>0.85</speed>
  <fix>3d</fix>
</trkpt>
<trkpt lat="40.0714565" lon="-105.2295772">
  <ele>1583.12</ele>
  <time>2026-08-28T17:52:13Z</time>
  <course>91.63</course>
  <speed>0.791580697086532</speed>
  <fix>3d</fix>
</trkpt>
<trkpt lat="40.0714569" lon="-105.2295782">
  <ele>1583.0</ele>
  <time>2026-08-28T17:52:13Z</time>
  <course>91.85</course>
  <speed>0.82</speed>
  <fix>3d</fix>
</trkpt>
<trkpt lat="40.0714565" lon="-105.2295762">
  <ele>1583.12</ele>
  <time>2026-08-28T17:52:13Z</time>
  <course>91.69</course>
  <speed>0.771621668954417</speed>
  <fix>3d</fix>
</trkpt>
<trkpt lat="40.0714569" lon="-105.2295782">
  <ele>1583.0</ele>
  <time>2026-08-28T17:52:13Z</time>
  <course>91.85</course>
  <speed>0.82</speed>
  <fix>3d</fix>
</trkpt>
<trkpt lat="40.0714565" lon="-105.2295753">
  <ele>1583.12</ele>
  <time>2026-08-28T17:52:13Z</time>
  <course>91.74</course>
  <speed>0.7616429609731845</speed>
  <fix>3d</fix>
</trkpt>
<trkpt lat="40.0714568" lon="-105.2295763">
  <ele>1583.0</ele>
  <time>2026-08-28T17:52:13Z</time>
  <course>92.0</course>
  <speed>0.8</speed>
  <fix>3d</fix>
</trkpt>
<trkpt lat="40.0714565" lon="-105.2295744">
  <ele>1583.12</ele>
  <time>2026-08-28T17:52:13Z</time>
  <course>91.78</course>
  <speed>0.7516648189186453</speed>
  <fix>3d</fix>
</trkpt>
<trkpt lat="40.0714568" lon="-105.2295763">
  <ele>1583.0</ele>
  <time>2026-08-28T17:52:13Z</time>
  <course>92.0</course>
  <speed>0.8</speed>
  <fix>3d</fix>
</trkpt>
<trkpt lat="40.0714565" lon="-105.2295735">
  <ele>1583.12</ele>
  <time>2026-08-28T17:52:13Z</time>
  <course>91.81</course>
  <speed>0.7416872656315463</speed>
  <fix>3d</fix>
</trkpt>
<trkpt lat="40.0714568" lon="-105.2295745">
  <ele>1583.0</ele>
  <time>2026-08-28T17:52:13Z</time>
  <course>92.11</course>
  <speed>0.77</speed>
  <fix>3d</fix>
</trkpt>
<trkpt lat="40.0714565" lon="-105.2295726">
  <ele>1583.11</ele>
  <time>2026-08-28T17:52:13Z</time>
  <course>91.84</course>
  <speed>0.7211102550927978</speed>
  <fix>3d</fix>
</trkpt>
<trkpt lat="40.0714568" lon="-105.2295745">
  <ele>1583.0</ele>
  <time>2026-08-28T17:52:13Z</time>
  <course>92.11</course>
  <speed>0.77</speed>
  <fix>3d</fix>
</trkpt>
<trkpt lat="40.0714564" lon="-105.2295717">
  <ele>1583.11</ele>
  <time>2026-08-28T17:52:13Z</time>
  <course>91.86</course>
  <speed>0.711125867902441</speed>
  <fix>3d</fix>
</trkpt>
<trkpt lat="40.0714567" lon="-105.2295727">
  <ele>1583.0</ele>
  <time>2026-08-28T17:52:13Z</time>
  <course>92.19</course>
  <speed>0.75</speed>
  <fix>3d</fix>
</trkpt>
<trkpt lat="40.0714564" lon="-105.2295708">
  <ele>1583.1</ele>
  <time>2026-08-28T17:52:13Z</time>
  <course>91.87</course>
  <speed>0.7011419257183242</speed>
  <fix>3d</fix>
</trkpt>
<trkpt lat="40.0714567" lon="-105.2295727">
  <ele>1583.0</ele>
  <time>2026-08-28T17:52:13Z</time>
  <course>92.19</course>
  <speed>0.75</speed>
  <fix>3d</fix>
</trkpt>
<trkpt lat="40.0714564" lon="-105.22957">
  <ele>1583.1</ele>
  <time>2026-08-28T17:52:13Z</time>
  <course>91.87</course>
  <speed>0.6911584478250989</speed>
  <fix>3d</fix>
</trkpt>
<trkpt lat="40.0714566" lon="-105.2295709">
  <ele>1583.0</ele>
  <time>2026-08-28T17:52:13Z</time>
  <course>92.25</course>
  <speed>0.72</speed>
  <fix>3d</fix>
</trkpt>
<trkpt lat="40.0714564" lon="-105.2295692">
  <ele>1583.1</ele>
  <time>2026-08-28T17:52:13Z</time>
  <course>91.87</course>
  <speed>0.6811754546370561</speed>
  <fix>3d</fix>
</trkpt>
<trkpt lat="40.0714566" lon="-105.2295709">
  <ele>1583.0</ele>
  <time>2026-08-28T17:52:13Z</time>
  <course>92.25</course>
  <speed>0.72</speed>
  <fix>3d</fix>
</trkpt>
<trkpt lat="40.0714564" lon="-105.2295684">
  <ele>1583.1</ele>
  <time>2026-08-28T17:52:13Z</time>
  <course>91.86</course>
  <speed>0.6711929677819934</speed>
  <fix>3d</fix>
</trkpt>
<trkpt lat="40.0714566" lon="-105.2295709">
  <ele>1583.0</ele>
  <time>2026-08-28T17:52:13Z</time>
  <course>92.25</course>
  <speed>0.72</speed>
  <fix>3d</fix>
</trkpt>
<trkpt lat="40.0714564" lon="-105.2295676">
  <ele>1583.1</ele>
  <time>2026-08-28T17:52:13Z</time>
  <course>91.85</course>
  <speed>0.6612110101926616</speed>
  <fix>3d</fix>
</trkpt>
<trkpt lat="40.0714566" lon="-105.2295692">
  <ele>1583.0</ele>
  <time>2026-08-28T17:52:13Z</time>
  <course>92.28</course>
  <speed>0.7</speed>
  <fix>3d</fix>
</trkpt>
<trkpt lat="40.0714564" lon="-105.2295668">
  <ele>1583.1</ele>
  <time>2026-08-28T17:52:13Z</time>
  <course>91.83</course>
  <speed>0.6512296062065974</speed>
  <fix>3d</fix>
</trkpt>
<trkpt lat="40.0714566" lon="-105.2295692">
  <ele>1583.0</ele>
  <time>2026-08-28T17:52:13Z</time>
  <course>92.28</course>
  <speed>0.7</speed>
  <fix>3d</fix>
</trkpt>
<trkpt lat="40.0714563" lon="-105.229566">
  <ele>1583.1</ele>
  <time>2026-08-28T17:52:13Z</time>
  <course>91.8</course>
  <speed>0.6412487816752559</speed>
  <fix>3d</fix>
</trkpt>
<trkpt lat="40.0714565" lon="-105.2295676">
  <ele>1583.0</ele>
  <time>2026-08-28T17:52:13Z</time>
  <course>92.29</course>
  <speed>0.68</speed>
  <fix>3d</fix>
</trkpt>
<trkpt lat="40.0714563" lon="-105.2295652">
  <ele>1583.1</ele>
  <time>2026-08-28T17:52:13Z</time>
  <course>91.76</course>
  <speed>0.6307138812488592</speed>
  <fix>3d</fix>
</trkpt>
<trkpt lat="40.0714565" lon="-105.2295676">
  <ele>1583.0</ele>
  <time>2026-08-28T17:52:13Z</time>
  <course>92.29</course>
  <speed>0.68</speed>
  <fix>3d</fix>
</trkpt>
<trkpt lat="40.0714563" lon="-105.2295645">
  <ele>1583.1</ele>
  <time>2026-08-28T17:52:13Z</time>
  <course>91.72</course>
  <speed>0.6207253821135398</speed>
  <fix>3d</fix>
</trkpt>
<trkpt lat="40.0714564" lon="-105.229566">
  <ele>1583.0</ele>
  <time>2026-08-28T17:52:13Z</time>
  <course>92.26</course>
  <speed>0.66</speed>
  <fix>3d</fix>
</trkpt>
<trkpt lat="40.0714563" lon="-105.2295637">
  <ele>1583.1</ele>
  <time>2026-08-28T17:52:13Z</time>
  <course>91.67</course>
  <speed>0.6107372593840988</speed>
  <fix>3d</fix>
</trkpt>
<trkpt lat="40.0714564" lon="-105.229566">
  <ele>1583.0</ele>
  <time>2026-08-28T17:52:13Z</time>
  <course>92.26</course>
  <speed>0.66</speed>
  <fix>3d</fix>
</trkpt>
<trkpt lat="40.0714563" lon="-105.229563">
  <ele>1583.1</ele>
  <time>2026-08-28T17:52:13Z</time>
  <course>91.62</course>
  <speed>0.6007495318350236</speed>
  <fix>3d</fix>
</trkpt>
<trkpt lat="40.0714564" lon="-105.2295645">
  <ele>1583.0</ele>
  <time>2026-08-28T17:52:13Z</time>
  <course>92.21</course>
  <speed>0.64</speed>
  <fix>3d</fix>
</trkpt>
<trkpt lat="40.0714563" lon="-105.2295623">
  <ele>1583.1</ele>
  <time>2026-08-28T17:52:13Z</time>
  <course>91.56</course>
  <speed>0.5907622195096772</speed>
  <fix>3d</fix>
</trkpt>
<trkpt lat="40.0714564" lon="-105.229563">
  <ele>1583.0</ele>
  <time>2026-08-28T17:52:13Z</time>
  <course>92.14</course>
  <speed>0.62</speed>
  <fix>3d</fix>
</trkpt>
<trkpt lat="40.0714562" lon="-105.2295616">
  <ele>1583.1</ele>
  <time>2026-08-28T17:52:13Z</time>
  <course>91.49</course>
  <speed>0.5807753438292642</speed>
  <fix>3d</fix>
</trkpt>
<trkpt lat="40.0714564" lon="-105.229563">
  <ele>1583.0</ele>
  <time>2026-08-28T17:52:13Z</time>
  <course>92.14</course>
  <speed>0.62</speed>
  <fix>3d</fix>
</trkpt>
<trkpt lat="40.0714562" lon="-105.2295609">
  <ele>1583.1</ele>
  <time>2026-08-28T17:52:13Z</time>
  <course>91.42</course>
  <speed>0.5707889277132134</speed>
  <fix>3d</fix>
</trkpt>
<trkpt lat="40.0714563" lon="-105.2295616">
  <ele>1583.0</ele>
  <time>2026-08-28T17:52:13Z</time>
  <course>92.05</course>
  <speed>0.6</speed>
  <fix>3d</fix>
</trkpt>
<trkpt lat="40.0714562" lon="-105.2295602">
  <ele>1583.1</ele>
  <time>2026-08-28T17:52:13Z</time>
  <course>91.34</course>
  <speed>0.5608029957123981</speed>
  <fix>3d</fix>
</trkpt>
<trkpt lat="40.0714563" lon="-105.2295616">
  <ele>1583.0</ele>
  <time>2026-08-28T17:52:13Z</time>
  <course>92.05</course>
  <speed>0.6</speed>
  <fix>3d</fix>
</trkpt>
<trkpt lat="40.0714562" lon="-105.2295595">
  <ele>1583.1</ele>
  <time>2026-08-28T17:52:13Z</time>
  <course>91.25</course>
  <speed>0.5503635162326805</speed>
  <fix>3d</fix>
</trkpt>
<trkpt lat="40.0714563" lon="-105.2295602">
  <ele>1583.0</ele>
  <time>2026-08-28T17:52:13Z</time>
  <course>91.93</course>
  <speed>0.58</speed>
  <fix>3d</fix>
</trkpt>
<trkpt lat="40.0714562" lon="-105.2295588">
  <ele>1583.1</ele>
  <time>2026-08-28T17:52:13Z</time>
  <course>91.16</course>
  <speed>0.5503635162326805</speed>
  <fix>3d</fix>
</trkpt>
<trkpt lat="40.0714563" lon="-105.2295602">
  <ele>1583.0</ele>
  <time>2026-08-28T17:52:13Z</time>
  <course>91.93</course>
  <speed>0.58</speed>
  <fix>3d</fix>
</trkpt>
<trkpt lat="40.0714562" lon="-105.2295582">
  <ele>1583.1</ele>
  <time>2026-08-28T17:52:13Z</time>
  <course>91.07</course>
  <speed>0.5403702434442519</speed>
  <fix>3d</fix>
</trkpt>
<trkpt lat="40.0714563" lon="-105.2295588">
  <ele>1583.0</ele>
  <time>2026-08-28T17:52:13Z</time>
  <course>91.8</course>
  <speed>0.57</speed>
  <fix>3d</fix>
</trkpt>
<trkpt lat="40.0714562" lon="-105.2295575">
  <ele>1583.1</ele>
  <time>2026-08-28T17:52:13Z</time>
  <course>90.97</course>
  <speed>0.5303772242470448</speed>
  <fix>3d</fix>
</trkpt>
<trkpt lat="40.0714563" lon="-105.2295588">
  <ele>1583.0</ele>
  <time>2026-08-28T17:52:13Z</time>
  <course>91.8</course>
  <speed>0.57</speed>
  <fix>3d</fix>
</trkpt>
<trkpt lat="40.0714562" lon="-105.2295569">
  <ele>1583.1</ele>
  <time>2026-08-28T17:52:13Z</time>
  <course>90.86</course>
  <speed>0.5203844732503076</speed>
  <fix>3d</fix>
</trkpt>
<trkpt lat="40.0714563" lon="-105.2295575">
  <ele>1583.0</ele>
  <time>2026-08-28T17:52:13Z</time>
  <course>91.64</course>
  <speed>0.55</speed>
  <fix>3d</fix>
</trkpt>
<trkpt lat="40.0714562" lon="-105.2295562">
  <ele>1583.11</ele>
  <time>2026-08-28T17:52:13Z</time>
  <course>90.75</course>
  <speed>0.5103920062069939</speed>
  <fix>3d</fix>
</trkpt>
<trkpt lat="40.0714563" lon="-105.2295575">
  <ele>1583.0</ele>
  <time>2026-08-28T17:52:13Z</time>
  <course>91.64</course>
  <speed>0.55</speed>
  <fix>3d</fix>
</trkpt>
<trkpt lat="40.0714562" lon="-105.2295556">
  <ele>1583.11</ele>
  <time>2026-08-28T17:52:13Z</time>
  <course>90.64</course>
  <speed>0.5003998401278722</speed>
  <fix>3d</fix>
</trkpt>
<trkpt lat="40.0714563" lon="-105.2295562">
  <ele>1583.0</ele>
  <time>2026-08-28T17:52:13Z</time>
  <course>91.47</course>
  <speed>0.53</speed>
  <fix>3d</fix>
</trkpt>
<trkpt lat="40.0714562" lon="-105.229555">
  <ele>1583.11</ele>
  <time>2026-08-28T17:52:13Z</time>
  <course>90.52</course>
  <speed>0.49040799340956914</speed>
  <fix>3d</fix>
</trkpt>
<trkpt lat="40.0714563" lon="-105.2295562">
  <ele>1583.0</ele>
  <time>2026-08-28T17:52:13Z</time>
  <course>91.47</course>
  <speed>0.53</speed>
  <fix>3d</fix>
</trkpt>
<trkpt lat="40.0714561" lon="-105.2295544">
  <ele>1583.11</ele>
  <time>2026-08-28T17:52:13Z</time>
  <course>90.39</course>
  <speed>0.4901020301937138</speed>
  <fix>3d</fix>
</trkpt>
<trkpt lat="40.0714562" lon="-105.229555">
  <ele>1583.0</ele>
  <time>2026-08-28T17:52:13Z</time>
  <course>91.29</course>
  <speed>0.51</speed>
  <fix>3d</fix>
</trkpt>
<trkpt lat="40.0714561" lon="-105.2295538">
  <ele>1583.11</ele>
  <time>2026-08-28T17:52:13Z</time>
  <course>90.27</course>
  <speed>0.4801041553663121</speed>
  <fix>3d</fix>
</trkpt>
<trkpt lat="40.0714562" lon="-105.229555">
  <ele>1583.0</ele>
  <time>2026-08-28T17:52:13Z</time>
  <course>91.29</course>
  <speed>0.51</speed>
  <fix>3d</fix>
</trkpt>
<trkpt lat="40.0714561" lon="-105.2295532">
  <ele>1583.11</ele>
  <time>2026-08-28T17:52:13Z</time>
  <course>90.14</course>
  <speed>0.47010637094172636</speed>
  <fix>3d</fix>
</trkpt>
<trkpt lat="40.0714562" lon="-105.229555">
  <ele>1583.0</ele>
  <time>2026-08-28T17:52:13Z</time>
  <course>91.29</course>
  <speed>0.51</speed>
  <fix>3d</fix>
</trkpt>
<trkpt lat="40.0714561" lon="-105.2295527">
  <ele>1583.12</ele>
  <time>2026-08-28T17:52:13Z</time>
  <course>90.0</course>
  <speed>0.46010868281309364</speed>
  <fix>3d</fix>
</trkpt>
<trkpt lat="40.0714562" lon="-105.2295537">
  <ele>1583.0</ele>
  <time>2026-08-28T17:52:13Z</time>
  <course>91.09</course>
  <speed>0.5</speed>
  <fix>3d</fix>
</trkpt>
<trkpt lat="40.0714561" lon="-105.2295521">
  <ele>1583.12</ele>
  <time>2026-08-28T17:52:13Z</time>
  <course>89.87</course>
  <speed>0.450111097397076</speed>
  <fix>3d</fix>
</trkpt>
<trkpt lat="40.0714562" lon="-105.2295537">
  <ele>1583.0</ele>
  <time>2026-08-28T17:52:13Z</time>
  <course>91.09</course>
  <speed>0.5</speed>
  <fix>3d</fix>
</trkpt>
<trkpt lat="40.0714561" lon="-105.2295516">
  <ele>1583.11</ele>
  <time>2026-08-28T17:52:13Z</time>
  <course>89.85</course>
  <speed>0.3901281840626232</speed>
  <fix>3d</fix>
</trkpt>
<trkpt lat="40.0714562" lon="-105.2295526">
  <ele>1583.0</ele>
  <time>2026-08-28T17:52:13Z</time>
  <course>90.88</course>
  <speed>0.48</speed>
  <fix>3d</fix>
</trkpt>
<trkpt lat="40.0714561" lon="-105.2295512">
  <ele>1583.11</ele>
  <time>2026-08-28T17:52:13Z</time>
  <course>89.84</course>
  <speed>0.27018512172212594</speed>
  <fix>3d</fix>
</trkpt>
<trkpt lat="40.0714562" lon="-105.2295526">
  <ele>1583.0</ele>
  <time>2026-08-28T17:52:13Z</time>
  <course>90.88</course>
  <speed>0.48</speed>
  <fix>3d</fix>
</trkpt>
<trkpt lat="40.0714561" lon="-105.2295509">
  <ele>1583.11</ele>
  <time>2026-08-28T17:52:13Z</time>
  <course>89.83</course>
  <speed>0.09055385138137417</speed>
  <fix>3d</fix>
</trkpt>
<trkpt lat="40.0714562" lon="-105.2295516">
  <ele>1583.0</ele>
  <time>2026-08-28T17:52:13Z</time>
  <course>91.19</course>
  <speed>0.38</speed>
  <fix>3d</fix>
</trkpt>
<trkpt lat="40.0714561" lon="-105.2295509">
  <ele>1583.11</ele>
  <time>2026-08-28T17:52:13Z</time>
  <course>89.82</course>
  <speed>0.11045361017187261</speed>
  <fix>3d</fix>
</trkpt>
<trkpt lat="40.0714562" lon="-105.229551">
  <ele>1583.0</ele>
  <time>2026-08-28T17:52:13Z</time>
  <course>97.24</course>
  <speed>0.09</speed>
  <fix>3d</fix>
</trkpt>
<trkpt lat="40.0714561" lon="-105.2295512">
  <ele>1583.11</ele>
  <time>2026-08-28T17:52:13Z</time>
  <course>89.81</course>
  <speed>0.3301514803843835</speed>
  <fix>3d</fix>
</trkpt>
<trkpt lat="40.0714562" lon="-105.229551">
  <ele>1583.0</ele>
  <time>2026-08-28T17:52:13Z</time>
  <course>97.24</course>
  <speed>0.09</speed>
  <fix>3d</fix>
</trkpt>
<trkpt lat="40.0714561" lon="-105.2295518">
  <ele>1583.12</ele>
  <time>2026-08-28T17:52:13Z</time>
  <course>89.8</course>
  <speed>0.570087712549569</speed>
  <fix>3d</fix>
</trkpt>
<trkpt lat="40.0714561" lon="-105.2295512">
  <ele>1583.0</ele>
  <time>2026-08-28T17:52:13Z</time>
  <course>266.53</course>
  <speed>0.31</speed>
  <fix>3d</fix>
</trkpt>
<trkpt lat="40.0714561" lon="-105.2295525">
  <ele>1583.12</ele>
  <time>2026-08-28T17:52:13Z</time>
  <course>89.8</course>
  <speed>0.7300684899377592</speed>
  <fix>3d</fix>
</trkpt>
<trkpt lat="40.0714561" lon="-105.2295512">
  <ele>1583.0</ele>
  <time>2026-08-28T17:52:13Z</time>
  <course>266.53</course>
  <speed>0.31</speed>
  <fix>3d</fix>
</trkpt>
<trkpt lat="40.0714561" lon="-105.2295534">
  <ele>1583.11</ele>
  <time>2026-08-28T17:52:13Z</time>
  <course>89.79</course>
  <speed>0.8202438661763951</speed>
  <fix>3d</fix>
</trkpt>
<trkpt lat="40.0714561" lon="-105.2295523">
  <ele>1583.0</ele>
  <time>2026-08-28T17:52:13Z</time>
  <course>267.84</course>
  <speed>0.67</speed>
  <fix>3d</fix>
</trkpt>
<trkpt lat="40.0714561" lon="-105.2295544">
  <ele>1583.11</ele>
  <time>2026-08-28T17:52:13Z</time>
  <course>89.78</course>
  <speed>0.8502352615599991</speed>
  <fix>3d</fix>
</trkpt>
<trkpt lat="40.0714561" lon="-105.2295523">
  <ele>1583.0</ele>
  <time>2026-08-28T17:52:13Z</time>
  <course>267.84</course>
  <speed>0.67</speed>
  <fix>3d</fix>
</trkpt>
<trkpt lat="40.0714561" lon="-105.2295554">
  <ele>1583.11</ele>
  <time>2026-08-28T17:52:13Z</time>
  <course>89.78</course>
  <speed>0.8302409288875127</speed>
  <fix>3d</fix>
</trkpt>
<trkpt lat="40.071456" lon="-105.2295541">
  <ele>1583.0</ele>
  <time>2026-08-28T17:52:13Z</time>
  <course>268.02</course>
  <speed>0.79</speed>
  <fix>3d</fix>
</trkpt>
<trkpt lat="40.071456" lon="-105.2295564">
  <ele>1583.11</ele>
  <time>2026-08-28T17:52:13Z</time>
  <course>89.78</course>
  <speed>0.7802563681252463</speed>
  <fix>3d</fix>
</trkpt>
<trkpt lat="40.071456" lon="-105.2295541">
  <ele>1583.0</ele>
  <time>2026-08-28T17:52:13Z</time>
  <course>268.02</course>
  <speed>0.79</speed>
  <fix>3d</fix>
</trkpt>
<trkpt lat="40.071456" lon="-105.2295573">
  <ele>1583.11</ele>
  <time>2026-08-28T17:52:13Z</time>
  <course>89.77</course>
  <speed>0.7102816342831905</speed>
  <fix>3d</fix>
</trkpt>
<trkpt lat="40.071456" lon="-105.2295559">
  <ele>1583.0</ele>
  <time>2026-08-28T17:52:13Z</time>
  <course>267.93</course>
  <speed>0.73</speed>
  <fix>3d</fix>
</trkpt>
<trkpt lat="40.071456" lon="-105.229558">
  <ele>1583.11</ele>
  <time>2026-08-28T17:52:13Z</time>
  <course>89.78</course>
  <speed>0.620322496770833</speed>
  <fix>3d</fix>
</trkpt>
<trkpt lat="40.071456" lon="-105.2295559">
  <ele>1583.0</ele>
  <time>2026-08-28T17:52:13Z</time>
  <course>267.93</course>
  <speed>0.73</speed>
  <fix>3d</fix>
</trkpt>
<trkpt lat="40.071456" lon="-105.2295587">
  <ele>1583.11</ele>
  <time>2026-08-28T17:52:13Z</time>
  <course>89.78</course>
  <speed>0.5203844732503076</speed>
  <fix>3d</fix>
</trkpt>
<trkpt lat="40.0714559" lon="-105.2295575">
  <ele>1583.0</ele>
  <time>2026-08-28T17:52:13Z</time>
  <course>267.65</course>
  <speed>0.58</speed>
  <fix>3d</fix>
</trkpt>
<trkpt lat="40.0714559" lon="-105.2295592">
  <ele>1583.1</ele>
  <time>2026-08-28T17:52:13Z</time>
  <course>89.78</course>
  <speed>0.4204759208325728</speed>
  <fix>3d</fix>
</trkpt>
<trkpt lat="40.0714559" lon="-105.2295575">
  <ele>1583.0</ele>
  <time>2026-08-28T17:52:13Z</time>
  <course>267.65</course>
  <speed>0.58</speed>
  <fix>3d</fix>
</trkpt>
<trkpt lat="40.0714559" lon="-105.2295596">
  <ele>1583.1</ele>
  <time>2026-08-28T17:52:13Z</time>
  <course>89.78</course>
  <speed>0.3306055050963308</speed>
  <fix>3d</fix>
</trkpt>
<trkpt lat="40.0714558" lon="-105.2295587">
  <ele>1583.0</ele>
  <time>2026-08-28T17:52:13Z</time>
  <course>267.03</course>
  <speed>0.4</speed>
  <fix>3d</fix>
</trkpt>
<trkpt lat="40.0714559" lon="-105.2295599">
  <ele>1583.1</ele>
  <time>2026-08-28T17:52:13Z</time>
  <course>89.78</course>
  <speed>0.25079872407968906</speed>
  <fix>3d</fix>
</trkpt>
<trkpt lat="40.0714558" lon="-105.2295587">
  <ele>1583.0</ele>
  <time>2026-08-28T17:52:13Z</time>
  <course>267.03</course>
  <speed>0.4</speed>
  <fix>3d</fix>
</trkpt>
<trkpt lat="40.0714559" lon="-105.2295601">
  <ele>1583.1</ele>
  <time>2026-08-28T17:52:13Z</time>
  <course>89.78</course>
  <speed>0.1711724276862369</speed>
  <fix>3d</fix>
</trkpt>
<trkpt lat="40.0714558" lon="-105.2295587">
  <ele>1583.0</ele>
  <time>2026-08-28T17:52:13Z</time>
  <course>267.03</course>
  <speed>0.4</speed>
  <fix>3d</fix>
</trkpt>
<trkpt lat="40.0714558" lon="-105.2295602">
  <ele>1583.1</ele>
  <time>2026-08-28T17:52:13Z</time>
  <course>89.79</course>
  <speed>0.1019803902718557</speed>
  <fix>3d</fix>
</trkpt>
<trkpt lat="40.0714558" lon="-105.2295594">
  <ele>1583.0</ele>
  <time>2026-08-28T17:52:13Z</time>
  <course>265.52</course>
  <speed>0.22</speed>
  <fix>3d</fix>
</trkpt>
<trkpt lat="40.0714558" lon="-105.2295603">
  <ele>1583.09</ele>
  <time>2026-08-28T17:52:13Z</time>
  <course>89.79</course>
  <speed>0.0824621125123532</speed>
  <fix>3d</fix>
</trkpt>
<trkpt lat="40.0714558" lon="-105.2295594">
  <ele>1583.0</ele>
  <time>2026-08-28T17:52:13Z</time>
  <course>265.52</course>
  <speed>0.22</speed>
  <fix>3d</fix>
</trkpt>
<trkpt lat="40.0714558" lon="-105.2295603">
  <ele>1583.09</ele>
  <time>2026-08-28T17:52:13Z</time>
  <course>89.79</course>
  <speed>0.0824621125123532</speed>
  <fix>3d</fix>
</trkpt>
<trkpt lat="40.0714558" lon="-105.2295598">
  <ele>1583.0</ele>
  <time>2026-08-28T17:52:13Z</time>
  <course>261.64</course>
  <speed>0.1</speed>
  <fix>3d</fix>
</trkpt>
<trkpt lat="40.0714558" lon="-105.2295604">
  <ele>1583.09</ele>
  <time>2026-08-28T17:52:13Z</time>
  <course>89.79</course>
  <speed>0.0824621125123532</speed>
  <fix>3d</fix>
</trkpt>
<trkpt lat="40.0714558" lon="-105.2295598">
  <ele>1583.0</ele>
  <time>2026-08-28T17:52:13Z</time>
  <course>261.64</course>
  <speed>0.1</speed>
  <fix>3d</fix>
</trkpt>
<trkpt lat="40.0714557" lon="-105.2295604">
  <ele>1583.09</ele>
  <time>2026-08-28T17:52:13Z</time>
  <course>89.8</course>
  <speed>0.0824621125123532</speed>
  <fix>3d</fix>
</trkpt>
<trkpt lat="40.0714557" lon="-105.2295599">
  <ele>1583.0</ele>
  <time>2026-08-28T17:52:13Z</time>
  <course>257.32</course>
  <speed>0.06</speed>
  <fix>3d</fix>
</trkpt>
<trkpt lat="40.0714557" lon="-105.2295605">
  <ele>1583.09</ele>
  <time>2026-08-28T17:52:13Z</time>
  <course>89.8</course>
  <speed>0.0854400374531753</speed>
  <fix>3d</fix>
</trkpt>
<trkpt lat="40.0714557" lon="-105.2295599">
  <ele>1583.0</ele>
  <time>2026-08-28T17:52:13Z</time>
  <course>257.32</course>
  <speed>0.06</speed>
  <fix>3d</fix>
</trkpt>
<trkpt lat="40.0714557" lon="-105.2295606">
  <ele>1583.09</ele>
  <time>2026-08-28T17:52:13Z</time>
  <course>89.8</course>
  <speed>0.0854400374531753</speed>
  <fix>3d</fix>
</trkpt>
<trkpt lat="40.0714557" lon="-105.22956">
  <ele>1583.0</ele>
  <time>2026-08-28T17:52:13Z</time>
  <course>257.28</course>
  <speed>0.06</speed>
  <fix>3d</fix>
</trkpt>
<trkpt lat="40.0714557" lon="-105.2295606">
  <ele>1583.09</ele>
  <time>2026-08-28T17:52:13Z</time>
  <course>89.8</course>
  <speed>0.0854400374531753</speed>
  <fix>3d</fix>
</trkpt>
<trkpt lat="40.0714557" lon="-105.2295603">
  <ele>1583.0</ele>
  <time>2026-08-28T17:52:13Z</time>
  <course>257.24</course>
  <speed>0.06</speed>
  <fix>3d</fix>
</trkpt>
<trkpt lat="40.0714556" lon="-105.2295607">
  <ele>1583.09</ele>
  <time>2026-08-28T17:52:13Z</time>
  <course>89.8</course>
  <speed>0.0854400374531753</speed>
  <fix>3d</fix>
</trkpt>
<trkpt lat="40.0714557" lon="-105.2295603">
  <ele>1583.0</ele>
  <time>2026-08-28T17:52:13Z</time>
  <course>257.24</course>
  <speed>0.06</speed>
  <fix>3d</fix>
</trkpt>
<trkpt lat="40.0714556" lon="-105.2295607">
  <ele>1583.09</ele>
  <time>2026-08-28T17:52:13Z</time>
  <course>89.8</course>
  <speed>0.0854400374531753</speed>
  <fix>3d</fix>
</trkpt>
<trkpt lat="40.0714557" lon="-105.2295604">
  <ele>1583.0</ele>
  <time>2026-08-28T17:52:13Z</time>
  <course>257.21</course>
  <speed>0.06</speed>
  <fix>3d</fix>
</trkpt>
<trkpt lat="40.0714556" lon="-105.2295608">
  <ele>1583.09</ele>
  <time>2026-08-28T17:52:13Z</time>
  <course>89.81</course>
  <speed>0.07615773105863909</speed>
  <fix>3d</fix>
</trkpt>
<trkpt lat="40.0714557" lon="-105.2295604">
  <ele>1583.0</ele>
  <time>2026-08-28T17:52:13Z</time>
  <course>257.21</course>
  <speed>0.06</speed>
  <fix>3d</fix>
</trkpt>
<trkpt lat="40.0714556" lon="-105.2295609">
  <ele>1583.1</ele>
  <time>2026-08-28T17:52:13Z</time>
  <course>89.81</course>
  <speed>0.07615773105863909</speed>
  <fix>3d</fix>
</trkpt>
<trkpt lat="40.0714557" lon="-105.2295605">
  <ele>1583.0</ele>
  <time>2026-08-28T17:52:13Z</time>
  <course>257.17</course>
  <speed>0.06</speed>
  <fix>3d</fix>
</trkpt>
<trkpt lat="40.0714556" lon="-105.2295609">
  <ele>1583.1</ele>
  <time>2026-08-28T17:52:13Z</time>
  <course>89.81</course>
  <speed>0.07615773105863909</speed>
  <fix>3d</fix>
</trkpt>
<trkpt lat="40.0714557" lon="-105.2295605">
  <ele>1583.0</ele>
  <time>2026-08-28T17:52:13Z</time>
  <course>257.17</course>
  <speed>0.06</speed>
  <fix>3d</fix>
</trkpt>
<trkpt lat="40.0714556" lon="-105.229561">
  <ele>1583.1</ele>
  <time>2026-08-28T17:52:13Z</time>
  <course>89.81</course>
  <speed>0.07615773105863909</speed>
  <fix>3d</fix>
</trkpt>
<trkpt lat="40.0714557" lon="-105.2295607">
  <ele>1583.0</ele>
  <time>2026-08-28T17:52:13Z</time>
  <course>257.13</course>
  <speed>0.06</speed>
  <fix>3d</fix>
</trkpt>
<trkpt lat="40.0714555" lon="-105.229561">
  <ele>1583.1</ele>
  <time>2026-08-28T17:52:13Z</time>
  <course>89.81</course>
  <speed>0.07615773105863909</speed>
  <fix>3d</fix>
</trkpt>
<trkpt lat="40.0714557" lon="-105.2295607">
  <ele>1583.0</ele>
  <time>2026-08-28T17:52:13Z</time>
  <course>257.13</course>
  <speed>0.06</speed>
  <fix>3d</fix>
</trkpt>
<trkpt lat="40.0714555" lon="-105.2295611">
  <ele>1583.1</ele>
  <time>2026-08-28T17:52:13Z</time>
  <course>89.81</course>
  <speed>0.07615773105863909</speed>
  <fix>3d</fix>
</trkpt>
<trkpt lat="40.0714557" lon="-105.2295609">
  <ele>1583.0</ele>
  <time>2026-08-28T17:52:13Z</time>
  <course>257.09</course>
  <speed>0.06</speed>
  <fix>3d</fix>
</trkpt>
<trkpt lat="40.0714555" lon="-105.2295612">
  <ele>1583.1</ele>
  <time>2026-08-28T17:52:13Z</time>
  <course>89.81</course>
  <speed>0.07615773105863909</speed>
  <fix>3d</fix>
</trkpt>
<trkpt lat="40.0714557" lon="-105.2295609">
  <ele>1583.0</ele>
  <time>2026-08-28T17:52:13Z</time>
  <course>257.09</course>
  <speed>0.06</speed>
  <fix>3d</fix>
</trkpt>
<trkpt lat="40.0714555" lon="-105.2295613">
  <ele>1583.1</ele>
  <time>2026-08-28T17:52:13Z</time>
  <course>89.81</course>
  <speed>0.07615773105863909</speed>
  <fix>3d</fix>
</trkpt>
<trkpt lat="40.0714556" lon="-105.229561">
  <ele>1583.0</ele>
  <time>2026-08-28T17:52:13Z</time>
  <course>257.06</course>
  <speed>0.06</speed>
  <fix>3d</fix>
</trkpt>
<trkpt lat="40.0714555" lon="-105.2295613">
  <ele>1583.1</ele>
  <time>2026-08-28T17:52:13Z</time>
  <course>89.81</course>
  <speed>0.07615773105863909</speed>
  <fix>3d</fix>
</trkpt>
<trkpt lat="40.0714556" lon="-105.229561">
  <ele>1583.0</ele>
  <time>2026-08-28T17:52:13Z</time>
  <course>257.06</course>
  <speed>0.06</speed>
  <fix>3d</fix>
</trkpt>
<trkpt lat="40.0714555" lon="-105.2295614">
  <ele>1583.1</ele>
  <time>2026-08-28T17:52:13Z</time>
  <course>89.81</course>
  <speed>0.07615773105863909</speed>
  <fix>3d</fix>
</trkpt>
<trkpt lat="40.0714556" lon="-105.2295612">
  <ele>1583.0</ele>
  <time>2026-08-28T17:52:13Z</time>
  <course>257.02</course>
  <speed>0.06</speed>
  <fix>3d</fix>
</trkpt>
<trkpt lat="40.0714555" lon="-105.2295615">
  <ele>1583.1</ele>
  <time>2026-08-28T17:52:13Z</time>
  <course>89.81</course>
  <speed>0.07615773105863909</speed>
  <fix>3d</fix>
</trkpt>
<trkpt lat="40.0714556" lon="-105.2295612">
  <ele>1583.0</ele>
  <time>2026-08-28T17:52:13Z</time>
  <course>257.02</course>
  <speed>0.06</speed>
  <fix>3d</fix>
</trkpt>
<trkpt lat="40.0714555" lon="-105.2295615">
  <ele>1583.1</ele>
  <time>2026-08-28T17:52:13Z</time>
  <course>89.81</course>
  <speed>0.07615773105863909</speed>
  <fix>3d</fix>
</trkpt>
<trkpt lat="40.0714556" lon="-105.2295612">
  <ele>1583.0</ele>
  <time>2026-08-28T17:52:13Z</time>
  <course>257.02</course>
  <speed>0.06</speed>
  <fix>3d</fix>
</trkpt>
<trkpt lat="40.0714555" lon="-105.2295616">
  <ele>1583.09</ele>
  <time>2026-08-28T17:52:13Z</time>
  <course>89.82</course>
  <speed>0.07615773105863909</speed>
  <fix>3d</fix>
</trkpt>
<trkpt lat="40.0714556" lon="-105.2295613">
  <ele>1583.0</ele>
  <time>2026-08-28T17:52:13Z</time>
  <course>256.98</course>
  <speed>0.06</speed>
  <fix>3d</fix>
</trkpt>
<trkpt lat="40.0714554" lon="-105.2295617">
  <ele>1583.09</ele>
  <time>2026-08-28T17:52:13Z</time>
  <course>89.82</course>
  <speed>0.07615773105863909</speed>
  <fix>3d</fix>
</trkpt>
<trkpt lat="40.0714556" lon="-105.2295613">
  <ele>1583.0</ele>
  <time>2026-08-28T17:52:13Z</time>
  <course>256.98</course>
  <speed>0.06</speed>
  <fix>3d</fix>
</trkpt>
<trkpt lat="40.0714554" lon="-105.2295617">
  <ele>1583.09</ele>
  <time>2026-08-28T17:52:13Z</time>
  <course>89.82</course>
  <speed>0.07615773105863909</speed>
  <fix>3d</fix>
</trkpt>
<trkpt lat="40.0714556" lon="-105.2295614">
  <ele>1583.0</ele>
  <time>2026-08-28T17:52:13Z</time>
  <course>256.94</course>
  <speed>0.06</speed>
  <fix>3d</fix>
</trkpt>
<trkpt lat="40.0714554" lon="-105.2295618">
  <ele>1583.09</ele>
  <time>2026-08-28T17:52:13Z</time>
  <course>89.82</course>
  <speed>0.07615773105863909</speed>
  <fix>3d</fix>
</trkpt>
<trkpt lat="40.0714556" lon="-105.2295614">
  <ele>1583.0</ele>
  <time>2026-08-28T17:52:13Z</time>
  <course>256.94</course>
  <speed>0.06</speed>
  <fix>3d</fix>
</trkpt>
<trkpt lat="40.0714554" lon="-105.2295619">
  <ele>1583.09</ele>
  <time>2026-08-28T17:52:13Z</time>
  <course>89.82</course>
  <speed>0.07615773105863909</speed>
  <fix>3d</fix>
</trkpt>
<trkpt lat="40.0714555" lon="-105.2295616">
  <ele>1583.0</ele>
  <time>2026-08-28T17:52:13Z</time>
  <course>256.9</course>
  <speed>0.06</speed>
  <fix>3d</fix>
</trkpt>
<trkpt lat="40.0714554" lon="-105.2295619">
  <ele>1583.09</ele>
  <time>2026-08-28T17:52:13Z</time>
  <course>89.82</course>
  <speed>0.07615773105863909</speed>
  <fix>3d</fix>
</trkpt>
<trkpt lat="40.0714555" lon="-105.2295618">
  <ele>1583.0</ele>
  <time>2026-08-28T17:52:13Z</time>
  <course>256.87</course>
  <speed>0.06</speed>
  <fix>3d</fix>
</trkpt>
<trkpt lat="40.0714554" lon="-105.229562">
  <ele>1583.1</ele>
  <time>2026-08-28T17:52:13Z</time>
  <course>89.82</course>
  <speed>0.07615773105863909</speed>
  <fix>3d</fix>
</trkpt>
<trkpt lat="40.0714555" lon="-105.2295618">
  <ele>1583.0</ele>
  <time>2026-08-28T17:52:13Z</time>
  <course>256.87</course>
  <speed>0.06</speed>
  <fix>3d</fix>
</trkpt>
<trkpt lat="40.0714554" lon="-105.2295621">
  <ele>1583.1</ele>
  <time>2026-08-28T17:52:13Z</time>
  <course>89.82</course>
  <speed>0.07615773105863909</speed>
  <fix>3d</fix>
</trkpt>
<trkpt lat="40.0714555" lon="-105.2295619">
  <ele>1583.0</ele>
  <time>2026-08-28T17:52:13Z</time>
  <course>256.83</course>
  <speed>0.06</speed>
  <fix>3d</fix>
</trkpt>
<trkpt lat="40.0714554" lon="-105.2295622">
  <ele>1583.1</ele>
  <time>2026-08-28T17:52:13Z</time>
  <course>89.82</course>
  <speed>0.07615773105863909</speed>
  <fix>3d</fix>
</trkpt>
<trkpt lat="40.0714555" lon="-105.2295619">
  <ele>1583.0</ele>
  <time>2026-08-28T17:52:13Z</time>
  <course>256.83</course>
  <speed>0.06</speed>
  <fix>3d</fix>
</trkpt>
<trkpt lat="40.0714553" lon="-105.2295622">
  <ele>1583.11</ele>
  <time>2026-08-28T17:52:13Z</time>
  <course>89.82</course>
  <speed>0.07615773105863909</speed>
  <fix>3d</fix>
</trkpt>
<trkpt lat="40.0714554" lon="-105.2295621">
  <ele>1583.0</ele>
  <time>2026-08-28T17:52:13Z</time>
  <course>256.79</course>
  <speed>0.06</speed>
  <fix>3d</fix>
</trkpt>
<trkpt lat="40.0714553" lon="-105.2295623">
  <ele>1583.11</ele>
  <time>2026-08-28T17:52:13Z</time>
  <course>89.82</course>
  <speed>0.07615773105863909</speed>
  <fix>3d</fix>
</trkpt>
<trkpt lat="40.0714554" lon="-105.2295621">
  <ele>1583.0</ele>
  <time>2026-08-28T17:52:13Z</time>
  <course>256.79</course>
  <speed>0.06</speed>
  <fix>3d</fix>
</trkpt>
<trkpt lat="40.0714553" lon="-105.2295624">
  <ele>1583.11</ele>
  <time>2026-08-28T17:52:13Z</time>
  <course>89.82</course>
  <speed>0.07615773105863909</speed>
  <fix>3d</fix>
</trkpt>
<trkpt lat="40.0714554" lon="-105.2295622">
  <ele>1583.0</ele>
  <time>2026-08-28T17:52:13Z</time>
  <course>256.75</course>
  <speed>0.06</speed>
  <fix>3d</fix>
</trkpt>
<trkpt lat="40.0714553" lon="-105.2295625">
  <ele>1583.12</ele>
  <time>2026-08-28T17:52:13Z</time>
  <course>89.82</course>
  <speed>0.07615773105863909</speed>
  <fix>3d</fix>
</trkpt>
<trkpt lat="40.0714554" lon="-105.2295622">
  <ele>1583.0</ele>
  <time>2026-08-28T17:52:13Z</time>
  <course>256.75</course>
  <speed>0.06</speed>
  <fix>3d</fix>
</trkpt>
<trkpt lat="40.0714553" lon="-105.2295625">
  <ele>1583.12</ele>
  <time>2026-08-28T17:52:13Z</time>
  <course>89.82</course>
  <speed>0.07615773105863909</speed>
  <fix>3d</fix>
</trkpt>
<trkpt lat="40.0714554" lon="-105.2295623">
  <ele>1583.0</ele>
  <time>2026-08-28T17:52:13Z</time>
  <course>256.72</course>
  <speed>0.06</speed>
  <fix>3d</fix>
</trkpt>
<trkpt lat="40.0714553" lon="-105.2295626">
  <ele>1583.12</ele>
  <time>2026-08-28T17:52:13Z</time>
  <course>89.82</course>
  <speed>0.07615773105863909</speed>
  <fix>3d</fix>
</trkpt>
<trkpt lat="40.0714554" lon="-105.2295623">
  <ele>1583.0</ele>
  <time>2026-08-28T17:52:13Z</time>
  <course>256.72</course>
  <speed>0.06</speed>
  <fix>3d</fix>
</trkpt>
<trkpt lat="40.0714553" lon="-105.2295627">
  <ele>1583.12</ele>
  <time>2026-08-28T17:52:13Z</time>
  <course>89.82</course>
  <speed>0.07615773105863909</speed>
  <fix>3d</fix>
</trkpt>
<trkpt lat="40.0714554" lon="-105.2295625">
  <ele>1583.0</ele>
  <time>2026-08-28T17:52:13Z</time>
  <course>256.68</course>
  <speed>0.06</speed>
  <fix>3d</fix>
</trkpt>
<trkpt lat="40.0714552" lon="-105.2295627">
  <ele>1583.12</ele>
  <time>2026-08-28T17:52:13Z</time>
  <course>89.82</course>
  <speed>0.07615773105863909</speed>
  <fix>3d</fix>
</trkpt>
<trkpt lat="40.0714554" lon="-105.2295625">
  <ele>1583.0</ele>
  <time>2026-08-28T17:52:13Z</time>
  <course>256.68</course>
  <speed>0.06</speed>
  <fix>3d</fix>
</trkpt>
<trkpt lat="40.0714552" lon="-105.2295628">
  <ele>1583.12</ele>
  <time>2026-08-28T17:52:13Z</time>
  <course>89.82</course>
  <speed>0.07615773105863909</speed>
  <fix>3d</fix>
</trkpt>
<trkpt lat="40.0714553" lon="-105.2295627">
  <ele>1583.0</ele>
  <time>2026-08-28T17:52:13Z</time>
  <course>256.64</course>
  <speed>0.06</speed>
  <fix>3d</fix>
</trkpt>
<trkpt lat="40.0714552" lon="-105.2295629">
  <ele>1583.11</ele>
  <time>2026-08-28T17:52:13Z</time>
  <course>89.82</course>
  <speed>0.07615773105863909</speed>
  <fix>3d</fix>
</trkpt>
<trkpt lat="40.0714553" lon="-105.2295627">
  <ele>1583.0</ele>
  <time>2026-08-28T17:52:13Z</time>
  <course>256.64</course>
  <speed>0.06</speed>
  <fix>3d</fix>
</trkpt>
<trkpt lat="40.0714552" lon="-105.229563">
  <ele>1583.11</ele>
  <time>2026-08-28T17:52:13Z</time>
  <course>89.82</course>
  <speed>0.07615773105863909</speed>
  <fix>3d</fix>
</trkpt>
<trkpt lat="40.0714553" lon="-105.2295627">
  <ele>1583.0</ele>
  <time>2026-08-28T17:52:13Z</time>
  <course>256.64</course>
  <speed>0.06</speed>
  <fix>3d</fix>
</trkpt>
<trkpt lat="40.0714552" lon="-105.229563">
  <ele>1583.11</ele>
  <time>2026-08-28T17:52:13Z</time>
  <course>89.82</course>
  <speed>0.07615773105863909</speed>
  <fix>3d</fix>
</trkpt>
<trkpt lat="40.0714552" lon="-105.2295628">
  <ele>1583.0</ele>
  <time>2026-08-28T17:52:13Z</time>
  <course>256.6</course>
  <speed>0.06</speed>
  <fix>3d</fix>
</trkpt>
<trkpt lat="40.0714552" lon="-105.2295631">
  <ele>1583.11</ele>
  <time>2026-08-28T17:52:13Z</time>
  <course>89.82</course>
  <speed>0.07615773105863909</speed>
  <fix>3d</fix>
</trkpt>
<trkpt lat="40.0714552" lon="-105.2295628">
  <ele>1583.0</ele>
  <time>2026-08-28T17:52:13Z</time>
  <course>256.6</course>
  <speed>0.06</speed>
  <fix>3d</fix>
</trkpt>
<trkpt lat="40.0714551" lon="-105.2295632">
  <ele>1583.11</ele>
  <time>2026-08-28T17:52:13Z</time>
  <course>89.82</course>
  <speed>0.07615773105863909</speed>
  <fix>3d</fix>
</trkpt>
<trkpt lat="40.0714552" lon="-105.2295629">
  <ele>1583.0</ele>
  <time>2026-08-28T17:52:13Z</time>
  <course>256.57</course>
  <speed>0.06</speed>
  <fix>3d</fix>
</trkpt>
<trkpt lat="40.0714551" lon="-105.2295633">
  <ele>1583.11</ele>
  <time>2026-08-28T17:52:13Z</time>
  <course>89.82</course>
  <speed>0.07615773105863909</speed>
  <fix>3d</fix>
</trkpt>
<trkpt lat="40.0714552" lon="-105.2295629">
  <ele>1583.0</ele>
  <time>2026-08-28T17:52:13Z</time>
  <course>256.57</course>
  <speed>0.06</speed>
  <fix>3d</fix>
</trkpt>
<trkpt lat="40.0714551" lon="-105.2295633">
  <ele>1583.11</ele>
  <time>2026-08-28T17:52:13Z</time>
  <course>89.81</course>
  <speed>0.07615773105863909</speed>
  <fix>3d</fix>
</trkpt>
<trkpt lat="40.0714552" lon="-105.2295631">
  <ele>1583.0</ele>
  <time>2026-08-28T17:52:13Z</time>
  <course>256.53</course>
  <speed>0.06</speed>
  <fix>3d</fix>
</trkpt>
<trkpt lat="40.0714551" lon="-105.2295634">
  <ele>1583.12</ele>
  <time>2026-08-28T17:52:13Z</time>
  <course>89.81</course>
  <speed>0.07615773105863909</speed>
  <fix>3d</fix>
</trkpt>
<trkpt lat="40.0714552" lon="-105.2295633">
  <ele>1583.0</ele>
  <time>2026-08-28T17:52:13Z</time>
  <course>256.49</course>
  <speed>0.06</speed>
  <fix>3d</fix>
</trkpt>
<trkpt lat="40.0714551" lon="-105.2295635">
  <ele>1583.12</ele>
  <time>2026-08-28T17:52:13Z</time>
  <course>89.81</course>
  <speed>0.07615773105863909</speed>
  <fix>3d</fix>
</trkpt>
<trkpt lat="40.0714552" lon="-105.2295633">
  <ele>1583.0</ele>
  <time>2026-08-28T17:52:13Z</time>
  <course>256.49</course>
  <speed>0.06</speed>
  <fix>3d</fix>
</trkpt>
<trkpt lat="40.071455" lon="-105.2295636">
  <ele>1583.12</ele>
  <time>2026-08-28T17:52:13Z</time>
  <course>89.81</course>
  <speed>0.07615773105863909</speed>
  <fix>3d</fix>
</trkpt>
<trkpt lat="40.0714551" lon="-105.2295634">
  <ele>1583.0</ele>
  <time>2026-08-28T17:52:13Z</time>
  <course>256.45</course>
  <speed>0.06</speed>
  <fix>3d</fix>
</trkpt>
<trkpt lat="40.071455" lon="-105.2295636">
  <ele>1583.12</ele>
  <time>2026-08-28T17:52:13Z</time>
  <course>89.81</course>
  <speed>0.07615773105863909</speed>
  <fix>3d</fix>
</trkpt>
<trkpt lat="40.0714551" lon="-105.2295634">
  <ele>1583.0</ele>
  <time>2026-08-28T17:52:13Z</time>
  <course>256.45</course>
  <speed>0.06</speed>
  <fix>3d</fix>
</trkpt>
<trkpt lat="40.071455" lon="-105.2295637">
  <ele>1583.11</ele>
  <time>2026-08-28T17:52:13Z</time>
  <course>89.81</course>
  <speed>0.07615773105863909</speed>
  <fix>3d</fix>
</trkpt>
<trkpt lat="40.0714551" lon="-105.2295635">
  <ele>1583.0</ele>
  <time>2026-08-28T17:52:13Z</time>
  <course>256.42</course>
  <speed>0.06</speed>
  <fix>3d</fix>
</trkpt>
<trkpt lat="40.071455" lon="-105.2295638">
  <ele>1583.11</ele>
  <time>2026-08-28T17:52:13Z</time>
  <course>89.81</course>
  <speed>0.08062257748298549</speed>
  <fix>3d</fix>
</trkpt>
<trkpt lat="40.0714551" lon="-105.2295635">
  <ele>1583.0</ele>
  <time>2026-08-28T17:52:13Z</time>
  <course>256.42</course>
  <speed>0.06</speed>
  <fix>3d</fix>
</trkpt>
<trkpt lat="40.071455" lon="-105.2295639">
  <ele>1583.11</ele>
  <time>2026-08-28T17:52:13Z</time>
  <course>89.82</course>
  <speed>0.08062257748298549</speed>
  <fix>3d</fix>
</trkpt>
<trkpt lat="40.0714551" lon="-105.2295637">
  <ele>1583.0</ele>
  <time>2026-08-28T17:52:13Z</time>
  <course>256.38</course>
  <speed>0.06</speed>
  <fix>3d</fix>
</trkpt>
<trkpt lat="40.0714549" lon="-105.229564">
  <ele>1583.11</ele>
  <time>2026-08-28T17:52:13Z</time>
  <course>89.82</course>
  <speed>0.08062257748298549</speed>
  <fix>3d</fix>
</trkpt>
<trkpt lat="40.0714551" lon="-105.2295637">
  <ele>1583.0</ele>
  <time>2026-08-28T17:52:13Z</time>
  <course>256.38</course>
  <speed>0.06</speed>
  <fix>3d</fix>
</trkpt>
<trkpt lat="40.0714549" lon="-105.229564">
  <ele>1583.11</ele>
  <time>2026-08-28T17:52:13Z</time>
  <course>89.82</course>
  <speed>0.08062257748298549</speed>
  <fix>3d</fix>
</trkpt>
<trkpt lat="40.0714551" lon="-105.2295638">
  <ele>1583.0</ele>
  <time>2026-08-28T17:52:13Z</time>
  <course>256.35</course>
  <speed>0.06</speed>
  <fix>3d</fix>
</trkpt>
<trkpt lat="40.0714549" lon="-105.2295641">
  <ele>1583.11</ele>
  <time>2026-08-28T17:52:13Z</time>
  <course>89.87</course>
  <speed>0.08062257748298549</speed>
  <fix>3d</fix>
</trkpt>
<trkpt lat="40.0714551" lon="-105.2295638">
  <ele>1583.0</ele>
  <time>2026-08-28T17:52:13Z</time>
  <course>256.35</course>
  <speed>0.06</speed>
  <fix>3d</fix>
</trkpt>
<trkpt lat="40.0714549" lon="-105.2295642">
  <ele>1583.11</ele>
  <time>2026-08-28T17:52:13Z</time>
  <course>89.96</course>
  <speed>0.08944271909999159</speed>
  <fix>3d</fix>
</trkpt>
<trkpt lat="40.0714551" lon="-105.229564">
  <ele>1583.0</ele>
  <time>2026-08-28T17:52:13Z</time>
  <course>256.38</course>
  <speed>0.06</speed>
  <fix>3d</fix>
</trkpt>
<trkpt lat="40.0714549" lon="-105.2295643">
  <ele>1583.11</ele>
  <time>2026-08-28T17:52:13Z</time>
  <course>90.11</course>
  <speed>0.08944271909999159</speed>
  <fix>3d</fix>
</trkpt>
<trkpt lat="40.0714551" lon="-105.229564">
  <ele>1583.0</ele>
  <time>2026-08-28T17:52:13Z</time>
  <course>256.38</course>
  <speed>0.06</speed>
  <fix>3d</fix>
</trkpt>
<trkpt lat="40.0714549" lon="-105.2295643">
  <ele>1583.11</ele>
  <time>2026-08-28T17:52:13Z</time>
  <course>90.31</course>
  <speed>0.08944271909999159</speed>
  <fix>3d</fix>
</trkpt>
<trkpt lat="40.0714551" lon="-105.2295641">
  <ele>1583.0</ele>
  <time>2026-08-28T17:52:13Z</time>
  <course>256.58</course>
  <speed>0.06</speed>
  <fix>3d</fix>
</trkpt>
<trkpt lat="40.0714549" lon="-105.2295644">
  <ele>1583.11</ele>
  <time>2026-08-28T17:52:13Z</time>
  <course>90.6</course>
  <speed>0.08944271909999159</speed>
  <fix>3d</fix>
</trkpt>
<trkpt lat="40.0714551" lon="-105.2295641">
  <ele>1583.0</ele>
  <time>2026-08-28T17:52:13Z</time>
  <course>256.58</course>
  <speed>0.06</speed>
  <fix>3d</fix>
</trkpt>
<trkpt lat="40.0714548" lon="-105.2295645">
  <ele>1583.12</ele>
  <time>2026-08-28T17:52:13Z</time>
  <course>90.97</course>
  <speed>0.08944271909999159</speed>
  <fix>3d</fix>
</trkpt>
<trkpt lat="40.0714551" lon="-105.2295641">
  <ele>1583.0</ele>
  <time>2026-08-28T17:52:13Z</time>
  <course>256.58</course>
  <speed>0.06</speed>
  <fix>3d</fix>
</trkpt>
<trkpt lat="40.0714548" lon="-105.2295646">
  <ele>1583.12</ele>
  <time>2026-08-28T17:52:13Z</time>
  <course>91.45</course>
  <speed>0.08944271909999159</speed>
  <fix>3d</fix>
</trkpt>
<trkpt lat="40.071455" lon="-105.2295642">
  <ele>1583.0</ele>
  <time>2026-08-28T17:52:13Z</time>
  <course>257.03</course>
  <speed>0.06</speed>
  <fix>3d</fix>
</trkpt>
<trkpt lat="40.0714548" lon="-105.2295646">
  <ele>1583.13</ele>
  <time>2026-08-28T17:52:13Z</time>
  <course>92.04</course>
  <speed>0.08944271909999159</speed>
  <fix>3d</fix>
</trkpt>
<trkpt lat="40.071455" lon="-105.2295642">
  <ele>1583.0</ele>
  <time>2026-08-28T17:52:13Z</time>
  <course>257.03</course>
  <speed>0.06</speed>
  <fix>3d</fix>
</trkpt>
<trkpt lat="40.0714548" lon="-105.2295647">
  <ele>1583.13</ele>
  <time>2026-08-28T17:52:13Z</time>
  <course>92.77</course>
  <speed>0.0854400374531753</speed>
  <fix>3d</fix>
</trkpt>
<trkpt lat="40.071455" lon="-105.2295644">
  <ele>1583.0</ele>
  <time>2026-08-28T17:52:13Z</time>
  <course>257.81</course>
  <speed>0.06</speed>
  <fix>3d</fix>
</trkpt>
<trkpt lat="40.0714548" lon="-105.2295648">
  <ele>1583.13</ele>
  <time>2026-08-28T17:52:13Z</time>
  <course>93.64</course>
  <speed>0.0854400374531753</speed>
  <fix>3d</fix>
</trkpt>
<trkpt lat="40.071455" lon="-105.2295644">
  <ele>1583.0</ele>
  <time>2026-08-28T17:52:13Z</time>
  <course>257.81</course>
  <speed>0.06</speed>
  <fix>3d</fix>
</trkpt>
<trkpt lat="40.0714548" lon="-105.2295649">
  <ele>1583.12</ele>
  <time>2026-08-28T17:52:13Z</time>
  <course>94.64</course>
  <speed>0.0854400374531753</speed>
  <fix>3d</fix>
</trkpt>
<trkpt lat="40.071455" lon="-105.2295645">
  <ele>1583.0</ele>
  <time>2026-08-28T17:52:13Z</time>
  <course>259.04</course>
  <speed>0.06</speed>
  <fix>3d</fix>
</trkpt>
<trkpt lat="40.0714548" lon="-105.2295649">
  <ele>1583.12</ele>
  <time>2026-08-28T17:52:13Z</time>
  <course>95.76</course>
  <speed>0.0854400374531753</speed>
  <fix>3d</fix>
</trkpt>
<trkpt lat="40.071455" lon="-105.2295645">
  <ele>1583.0</ele>
  <time>2026-08-28T17:52:13Z</time>
  <course>259.04</course>
  <speed>0.06</speed>
  <fix>3d</fix>
</trkpt>
<trkpt lat="40.0714548" lon="-105.229565">
  <ele>1583.12</ele>
  <time>2026-08-28T17:52:13Z</time>
  <course>97.04</course>
  <speed>0.0854400374531753</speed>
  <fix>3d</fix>
</trkpt>
<trkpt lat="40.071455" lon="-105.2295647">
  <ele>1583.0</ele>
  <time>2026-08-28T17:52:13Z</time>
  <course>260.77</course>
  <speed>0.06</speed>
  <fix>3d</fix>
</trkpt>
<trkpt lat="40.0714548" lon="-105.2295651">
  <ele>1583.11</ele>
  <time>2026-08-28T17:52:13Z</time>
  <course>98.45</course>
  <speed>0.0854400374531753</speed>
  <fix>3d</fix>
</trkpt>
<trkpt lat="40.071455" lon="-105.2295648">
  <ele>1583.0</ele>
  <time>2026-08-28T17:52:13Z</time>
  <course>263.0</course>
  <speed>0.05</speed>
  <fix>3d</fix>
</trkpt>
<trkpt lat="40.0714548" lon="-105.2295651">
  <ele>1583.11</ele>
  <time>2026-08-28T17:52:13Z</time>
  <course>100.04</course>
  <speed>0.0854400374531753</speed>
  <fix>3d</fix>
</trkpt>
<trkpt lat="40.071455" lon="-105.2295648">
  <ele>1583.0</ele>
  <time>2026-08-28T17:52:13Z</time>
  <course>263.0</course>
  <speed>0.05</speed>
  <fix>3d</fix>
</trkpt>
<trkpt lat="40.0714548" lon="-105.2295652">
  <ele>1583.11</ele>
  <time>2026-08-28T17:52:14Z</time>
  <course>101.8</course>
  <speed>0.0854400374531753</speed>
  <fix>3d</fix>
</trkpt>
<trkpt lat="40.071455" lon="-105.229565">
  <ele>1583.0</ele>
  <time>2026-08-28T17:52:14Z</time>
  <course>265.8</course>
  <speed>0.05</speed>
  <fix>3d</fix>
</trkpt>
<trkpt lat="40.0714548" lon="-105.2295653">
  <ele>1583.11</ele>
  <time>2026-08-28T17:52:14Z</time>
  <course>103.79</course>
  <speed>0.0824621125123532</speed>
  <fix>3d</fix>
</trkpt>
<trkpt lat="40.071455" lon="-105.229565">
  <ele>1583.0</ele>
  <time>2026-08-28T17:52:14Z</time>
  <course>265.8</course>
  <speed>0.05</speed>
  <fix>3d</fix>
</trkpt>
<trkpt lat="40.0714548" lon="-105.2295654">
  <ele>1583.11</ele>
  <time>2026-08-28T17:52:14Z</time>
  <course>106.0</course>
  <speed>0.0824621125123532</speed>
  <fix>3d</fix>
</trkpt>
<trkpt lat="40.071455" lon="-105.2295651">
  <ele>1583.0</ele>
  <time>2026-08-28T17:52:14Z</time>
  <course>269.31</course>
  <speed>0.05</speed>
  <fix>3d</fix>
</trkpt>
<trkpt lat="40.0714548" lon="-105.2295654">
  <ele>1583.1</ele>
  <time>2026-08-28T17:52:14Z</time>
  <course>108.47</course>
  <speed>0.0824621125123532</speed>
  <fix>3d</fix>
</trkpt>
<trkpt lat="40.071455" lon="-105.2295651">
  <ele>1583.0</ele>
  <time>2026-08-28T17:52:14Z</time>
  <course>269.31</course>
  <speed>0.05</speed>
  <fix>3d</fix>
</trkpt>
<trkpt lat="40.0714548" lon="-105.2295655">
  <ele>1583.1</ele>
  <time>2026-08-28T17:52:14Z</time>
  <course>111.21</course>
  <speed>0.0824621125123532</speed>
  <fix>3d</fix>
</trkpt>
<trkpt lat="40.071455" lon="-105.2295652">
  <ele>1583.0</ele>
  <time>2026-08-28T17:52:14Z</time>
  <course>273.67</course>
  <speed>0.05</speed>
  <fix>3d</fix>
</trkpt>
<trkpt lat="40.0714548" lon="-105.2295656">
  <ele>1583.1</ele>
  <time>2026-08-28T17:52:14Z</time>
  <course>114.28</course>
  <speed>0.08062257748298549</speed>
  <fix>3d</fix>
</trkpt>
<trkpt lat="40.071455" lon="-105.2295652">
  <ele>1583.0</ele>
  <time>2026-08-28T17:52:14Z</time>
  <course>273.67</course>
  <speed>0.05</speed>
  <fix>3d</fix>
</trkpt>
<trkpt lat="40.0714548" lon="-105.2295656">
  <ele>1583.1</ele>
  <time>2026-08-28T17:52:14Z</time>
  <course>117.44</course>
  <speed>0.08062257748298549</speed>
  <fix>3d</fix>
</trkpt>
<trkpt lat="40.071455" lon="-105.2295653">
  <ele>1583.0</ele>
  <time>2026-08-28T17:52:14Z</time>
  <course>278.94</course>
  <speed>0.05</speed>
  <fix>3d</fix>
</trkpt>
<trkpt lat="40.0714548" lon="-105.2295657">
  <ele>1583.1</ele>
  <time>2026-08-28T17:52:14Z</time>
  <course>120.61</course>
  <speed>0.07071067811865475</speed>
  <fix>3d</fix>
</trkpt>
<trkpt lat="40.071455" lon="-105.2295653">
  <ele>1583.0</ele>
  <time>2026-08-28T17:52:14Z</time>
  <course>278.94</course>
  <speed>0.05</speed>
  <fix>3d</fix>
</trkpt>
<trkpt lat="40.0714548" lon="-105.2295658">
  <ele>1583.1</ele>
  <time>2026-08-28T17:52:14Z</time>
  <course>123.78</course>
  <speed>0.07071067811865475</speed>
  <fix>3d</fix>
</trkpt>
<trkpt lat="40.071455" lon="-105.2295655">
  <ele>1583.0</ele>
  <time>2026-08-28T17:52:14Z</time>
  <course>284.71</course>
  <speed>0.05</speed>
  <fix>3d</fix>
</trkpt>
<trkpt lat="40.0714548" lon="-105.2295658">
  <ele>1583.1</ele>
  <time>2026-08-28T17:52:14Z</time>
  <course>126.95</course>
  <speed>0.07</speed>
  <fix>3d</fix>
</trkpt>
<trkpt lat="40.071455" lon="-105.2295655">
  <ele>1583.0</ele>
  <time>2026-08-28T17:52:14Z</time>
  <course>284.71</course>
  <speed>0.05</speed>
  <fix>3d</fix>
</trkpt>
<trkpt lat="40.0714548" lon="-105.2295659">
  <ele>1583.1</ele>
  <time>2026-08-28T17:52:14Z</time>
  <course>130.12</course>
  <speed>0.07</speed>
  <fix>3d</fix>
</trkpt>
<trkpt lat="40.071455" lon="-105.2295656">
  <ele>1583.0</ele>
  <time>2026-08-28T17:52:14Z</time>
  <course>290.51</course>
  <speed>0.05</speed>
  <fix>3d</fix>
</trkpt>
<trkpt lat="40.0714548" lon="-105.2295659">
  <ele>1583.1</ele>
  <time>2026-08-28T17:52:14Z</time>
  <course>133.29</course>
  <speed>0.07</speed>
  <fix>3d</fix>
</trkpt>
<trkpt lat="40.071455" lon="-105.2295656">
  <ele>1583.0</ele>
  <time>2026-08-28T17:52:14Z</time>
  <course>290.51</course>
  <speed>0.05</speed>
  <fix>3d</fix>
</trkpt>
<trkpt lat="40.0714548" lon="-105.229566">
  <ele>1583.1</ele>
  <time>2026-08-28T17:52:14Z</time>
  <course>136.47</course>
  <speed>0.07</speed>
  <fix>3d</fix>
</trkpt>
<trkpt lat="40.071455" lon="-105.2295656">
  <ele>1583.0</ele>
  <time>2026-08-28T17:52:14Z</time>
  <course>290.51</course>
  <speed>0.05</speed>
  <fix>3d</fix>
</trkpt>
<trkpt lat="40.0714548" lon="-105.2295661">
  <ele>1583.1</ele>
  <time>2026-08-28T17:52:14Z</time>
  <course>139.64</course>
  <speed>0.07</speed>
  <fix>3d</fix>
</trkpt>
<trkpt lat="40.071455" lon="-105.2295657">
  <ele>1583.0</ele>
  <time>2026-08-28T17:52:14Z</time>
  <course>296.3</course>
  <speed>0.05</speed>
  <fix>3d</fix>
</trkpt>
<trkpt lat="40.0714549" lon="-105.2295661">
  <ele>1583.09</ele>
  <time>2026-08-28T17:52:14Z</time>
  <course>142.8</course>
  <speed>0.06</speed>
  <fix>3d</fix>
</trkpt>
<trkpt lat="40.071455" lon="-105.2295657">
  <ele>1583.0</ele>
  <time>2026-08-28T17:52:14Z</time>
  <course>296.3</course>
  <speed>0.05</speed>
  <fix>3d</fix>
</trkpt>
<trkpt lat="40.0714549" lon="-105.2295661">
  <ele>1583.09</ele>
  <time>2026-08-28T17:52:14Z</time>
  <course>145.97</course>
  <speed>0.06</speed>
  <fix>3d</fix>
</trkpt>
<trkpt lat="40.071455" lon="-105.2295658">
  <ele>1583.0</ele>
  <time>2026-08-28T17:52:14Z</time>
  <course>302.05</course>
  <speed>0.04</speed>
  <fix>3d</fix>
</trkpt>
<trkpt lat="40.0714549" lon="-105.2295662">
  <ele>1583.1</ele>
  <time>2026-08-28T17:52:14Z</time>
  <course>149.14</course>
  <speed>0.06</speed>
  <fix>3d</fix>
</trkpt>
<trkpt lat="40.071455" lon="-105.2295658">
  <ele>1583.0</ele>
  <time>2026-08-28T17:52:14Z</time>
  <course>302.05</course>
  <speed>0.04</speed>
  <fix>3d</fix>
</trkpt>
<trkpt lat="40.0714549" lon="-105.2295662">
  <ele>1583.1</ele>
  <time>2026-08-28T17:52:14Z</time>
  <course>152.3</course>
  <speed>0.06</speed>
  <fix>3d</fix>
</trkpt>
<trkpt lat="40.071455" lon="-105.2295659">
  <ele>1583.0</ele>
  <time>2026-08-28T17:52:14Z</time>
  <course>307.75</course>
  <speed>0.04</speed>
  <fix>3d</fix>
</trkpt>
<trkpt lat="40.0714549" lon="-105.2295663">
  <ele>1583.1</ele>
  <time>2026-08-28T17:52:14Z</time>
  <course>155.48</course>
  <speed>0.06</speed>
  <fix>3d</fix>
</trkpt>
<trkpt lat="40.0714551" lon="-105.229566">
  <ele>1583.0</ele>
  <time>2026-08-28T17:52:14Z</time>
  <course>313.41</course>
  <speed>0.04</speed>
  <fix>3d</fix>
</trkpt>
<trkpt lat="40.071455" lon="-105.2295663">
  <ele>1583.1</ele>
  <time>2026-08-28T17:52:14Z</time>
  <course>158.61</course>
  <speed>0.05099019513592785</speed>
  <fix>3d</fix>
</trkpt>
<trkpt lat="40.0714551" lon="-105.229566">
  <ele>1583.0</ele>
  <time>2026-08-28T17:52:14Z</time>
  <course>313.41</course>
  <speed>0.04</speed>
  <fix>3d</fix>
</trkpt>
<trkpt lat="40.0714549" lon="-105.2295663">
  <ele>1583.11</ele>
  <time>2026-08-28T17:52:14Z</time>
  <course>161.65</course>
  <speed>0.1019803902718557</speed>
  <fix>3d</fix>
</trkpt>
<trkpt lat="40.0714551" lon="-105.2295661">
  <ele>1583.0</ele>
  <time>2026-08-28T17:52:14Z</time>
  <course>202.98</course>
  <speed>0.02</speed>
  <fix>3d</fix>
</trkpt>
<trkpt lat="40.0714549" lon="-105.2295663">
  <ele>1583.11</ele>
  <time>2026-08-28T17:52:14Z</time>
  <course>164.59</course>
  <speed>0.24020824298928628</speed>
  <fix>3d</fix>
</trkpt>
<trkpt lat="40.0714551" lon="-105.2295661">
  <ele>1583.0</ele>
  <time>2026-08-28T17:52:14Z</time>
  <course>202.98</course>
  <speed>0.02</speed>
  <fix>3d</fix>
</trkpt>
<trkpt lat="40.0714546" lon="-105.2295662">
  <ele>1583.11</ele>
  <time>2026-08-28T17:52:14Z</time>
  <course>167.5</course>
  <speed>0.43185645763378366</speed>
  <fix>3d</fix>
</trkpt>
<trkpt lat="40.0714549" lon="-105.229566">
  <ele>1583.0</ele>
  <time>2026-08-28T17:52:14Z</time>
  <course>169.12</course>
  <speed>0.24</speed>
  <fix>3d</fix>
</trkpt>
<trkpt lat="40.0714541" lon="-105.2295661">
  <ele>1583.12</ele>
  <time>2026-08-28T17:52:14Z</time>
  <course>170.37</course>
  <speed>0.6519202405202649</speed>
  <fix>3d</fix>
</trkpt>
<trkpt lat="40.0714549" lon="-105.229566">
  <ele>1583.0</ele>
  <time>2026-08-28T17:52:14Z</time>
  <course>169.12</course>
  <speed>0.24</speed>
  <fix>3d</fix>
</trkpt>
<trkpt lat="40.0714534" lon="-105.2295661">
  <ele>1583.12</ele>
  <time>2026-08-28T17:52:14Z</time>
  <course>173.2</course>
  <speed>0.891403387922662</speed>
  <fix>3d</fix>
</trkpt>
<trkpt lat="40.0714542" lon="-105.2295659">
  <ele>1583.0</ele>
  <time>2026-08-28T17:52:14Z</time>
  <course>171.87</course>
  <speed>0.63</speed>
  <fix>3d</fix>
</trkpt>
<trkpt lat="40.0714524" lon="-105.229566">
  <ele>1583.12</ele>
  <time>2026-08-28T17:52:14Z</time>
  <course>176.03</course>
  <speed>1.140175425099138</speed>
  <fix>3d</fix>
</trkpt>
<trkpt lat="40.0714542" lon="-105.2295659">
  <ele>1583.0</ele>
  <time>2026-08-28T17:52:14Z</time>
  <course>171.87</course>
  <speed>0.63</speed>
  <fix>3d</fix>
</trkpt>
<trkpt lat="40.0714513" lon="-105.229566">
  <ele>1583.12</ele>
  <time>2026-08-28T17:52:14Z</time>
  <course>178.81</course>
  <speed>1.3901438774457844</speed>
  <fix>3d</fix>
</trkpt>
<trkpt lat="40.0714526" lon="-105.2295657">
  <ele>1583.0</ele>
  <time>2026-08-28T17:52:14Z</time>
  <course>176.6</course>
  <speed>1.11</speed>
  <fix>3d</fix>
</trkpt>
<trkpt lat="40.0714499" lon="-105.229566">
  <ele>1583.12</ele>
  <time>2026-08-28T17:52:14Z</time>
  <course>181.58</course>
  <speed>1.6524527224704493</speed>
  <fix>3d</fix>
</trkpt>
<trkpt lat="40.0714526" lon="-105.2295657">
  <ele>1583.0</ele>
  <time>2026-08-28T17:52:14Z</time>
  <course>176.6</course>
  <speed>1.11</speed>
  <fix>3d</fix>
</trkpt>
<trkpt lat="40.0714483" lon="-105.229566">
  <ele>1583.12</ele>
  <time>2026-08-28T17:52:14Z</time>
  <course>184.31</course>
  <speed>1.9094763680129692</speed>
  <fix>3d</fix>
</trkpt>
<trkpt lat="40.0714502" lon="-105.2295657">
  <ele>1583.0</ele>
  <time>2026-08-28T17:52:14Z</time>
  <course>181.72</course>
  <speed>1.6</speed>
  <fix>3d</fix>
</trkpt>
<trkpt lat="40.0714464" lon="-105.2295663">
  <ele>1583.12</ele>
  <time>2026-08-28T17:52:14Z</time>
  <course>187.02</course>
  <speed>2.1524404753674373</speed>
  <fix>3d</fix>
</trkpt>
<trkpt lat="40.0714502" lon="-105.2295657">
  <ele>1583.0</ele>
  <time>2026-08-28T17:52:14Z</time>
  <course>181.72</course>
  <speed>1.6</speed>
  <fix>3d</fix>
</trkpt>
<trkpt lat="40.0714444" lon="-105.2295667">
  <ele>1583.12</ele>
  <time>2026-08-28T17:52:14Z</time>
  <course>189.7</course>
  <speed>2.4006665740997852</speed>
  <fix>3d</fix>
</trkpt>
<trkpt lat="40.0714469" lon="-105.229566">
  <ele>1583.0</ele>
  <time>2026-08-28T17:52:14Z</time>
  <course>186.93</course>
  <speed>2.1</speed>
  <fix>3d</fix>
</trkpt>
<trkpt lat="40.0714421" lon="-105.2295673">
  <ele>1583.12</ele>
  <time>2026-08-28T17:52:14Z</time>
  <course>192.35</course>
  <speed>2.6293725487271673</speed>
  <fix>3d</fix>
</trkpt>
<trkpt lat="40.0714469" lon="-105.229566">
  <ele>1583.0</ele>
  <time>2026-08-28T17:52:14Z</time>
  <course>186.93</course>
  <speed>2.1</speed>
  <fix>3d</fix>
</trkpt>
<trkpt lat="40.0714397" lon="-105.2295681">
  <ele>1583.12</ele>
  <time>2026-08-28T17:52:14Z</time>
  <course>194.97</course>
  <speed>2.8681004166521085</speed>
  <fix>3d</fix>
</trkpt>
<trkpt lat="40.0714469" lon="-105.229566">
  <ele>1583.0</ele>
  <time>2026-08-28T17:52:14Z</time>
  <course>186.93</course>
  <speed>2.1</speed>
  <fix>3d</fix>
</trkpt>
<trkpt lat="40.0714371" lon="-105.2295691">
  <ele>1583.11</ele>
  <time>2026-08-28T17:52:14Z</time>
  <course>197.52</course>
  <speed>3.114883625434504</speed>
  <fix>3d</fix>
</trkpt>
<trkpt lat="40.0714428" lon="-105.2295669">
  <ele>1583.0</ele>
  <time>2026-08-28T17:52:14Z</time>
  <course>192.14</course>
  <speed>2.57</speed>
  <fix>3d</fix>
</trkpt>
<trkpt lat="40.0714344" lon="-105.2295703">
  <ele>1583.11</ele>
  <time>2026-08-28T17:52:14Z</time>
  <course>200.01</course>
  <speed>3.3766403421152216</speed>
  <fix>3d</fix>
</trkpt>
<trkpt lat="40.0714428" lon="-105.2295669">
  <ele>1583.0</ele>
  <time>2026-08-28T17:52:14Z</time>
  <course>192.14</course>
  <speed>2.57</speed>
  <fix>3d</fix>
</trkpt>
<trkpt lat="40.0714315" lon="-105.2295718">
  <ele>1583.11</ele>
  <time>2026-08-28T17:52:14Z</time>
  <course>202.43</course>
  <speed>3.6162134892729996</speed>
  <fix>3d</fix>
</trkpt>
<trkpt lat="40.0714379" lon="-105.2295685">
  <ele>1583.0</ele>
  <time>2026-08-28T17:52:14Z</time>
  <course>197.24</course>
  <speed>3.06</speed>
  <fix>3d</fix>
</trkpt>
<trkpt lat="40.0714284" lon="-105.2295736">
  <ele>1583.11</ele>
  <time>2026-08-28T17:52:14Z</time>
  <course>204.76</course>
  <speed>3.7800132274900835</speed>
  <fix>3d</fix>
</trkpt>
<trkpt lat="40.0714379" lon="-105.2295685">
  <ele>1583.0</ele>
  <time>2026-08-28T17:52:14Z</time>
  <course>197.24</course>
  <speed>3.06</speed>
  <fix>3d</fix>
</trkpt>
<trkpt lat="40.0714254" lon="-105.2295755">
  <ele>1583.11</ele>
  <time>2026-08-28T17:52:14Z</time>
  <course>207.03</course>
  <speed>3.864362819405031</speed>
  <fix>3d</fix>
</trkpt>
<trkpt lat="40.0714323" lon="-105.2295712">
  <ele>1583.0</ele>
  <time>2026-08-28T17:52:14Z</time>
  <course>202.06</course>
  <speed>3.51</speed>
  <fix>3d</fix>
</trkpt>
<trkpt lat="40.0714223" lon="-105.2295777">
  <ele>1583.11</ele>
  <time>2026-08-28T17:52:14Z</time>
  <course>209.22</course>
  <speed>3.909590771423526</speed>
  <fix>3d</fix>
</trkpt>
<trkpt lat="40.0714323" lon="-105.2295712">
  <ele>1583.0</ele>
  <time>2026-08-28T17:52:14Z</time>
  <course>202.06</course>
  <speed>3.51</speed>
  <fix>3d</fix>
</trkpt>
<trkpt lat="40.0714193" lon="-105.22958">
  <ele>1583.11</ele>
  <time>2026-08-28T17:52:14Z</time>
  <course>211.38</course>
  <speed>3.915673632978111</speed>
  <fix>3d</fix>
</trkpt>
<trkpt lat="40.0714263" lon="-105.2295748">
  <ele>1583.0</ele>
  <time>2026-08-28T17:52:14Z</time>
  <course>206.58</course>
  <speed>3.78</speed>
  <fix>3d</fix>
</trkpt>
<trkpt lat="40.0714164" lon="-105.2295824">
  <ele>1583.11</ele>
  <time>2026-08-28T17:52:14Z</time>
  <course>213.46</course>
  <speed>3.9217343102255153</speed>
  <fix>3d</fix>
</trkpt>
<trkpt lat="40.0714203" lon="-105.2295791">
  <ele>1583.0</ele>
  <time>2026-08-28T17:52:14Z</time>
  <course>210.92</course>
  <speed>3.86</speed>
  <fix>3d</fix>
</trkpt>
<trkpt lat="40.0714135" lon="-105.229585">
  <ele>1583.11</ele>
  <time>2026-08-28T17:52:14Z</time>
  <course>215.5</course>
  <speed>3.93269627609354</speed>
  <fix>3d</fix>
</trkpt>
<trkpt lat="40.0714203" lon="-105.2295791">
  <ele>1583.0</ele>
  <time>2026-08-28T17:52:14Z</time>
  <course>210.92</course>
  <speed>3.86</speed>
  <fix>3d</fix>
</trkpt>
<trkpt lat="40.0714107" lon="-105.2295877">
  <ele>1583.11</ele>
  <time>2026-08-28T17:52:14Z</time>
  <course>217.48</course>
  <speed>3.9344885309274953</speed>
  <fix>3d</fix>
</trkpt>
<trkpt lat="40.0714144" lon="-105.229584">
  <ele>1583.0</ele>
  <time>2026-08-28T17:52:14Z</time>
  <course>215.06</course>
  <speed>3.88</speed>
  <fix>3d</fix>
</trkpt>
<trkpt lat="40.071408" lon="-105.2295906">
  <ele>1583.11</ele>
  <time>2026-08-28T17:52:14Z</time>
  <course>219.45</course>
  <speed>3.9128122878563953</speed>
  <fix>3d</fix>
</trkpt>
<trkpt lat="40.0714144" lon="-105.229584">
  <ele>1583.0</ele>
  <time>2026-08-28T17:52:14Z</time>
  <course>215.06</course>
  <speed>3.88</speed>
  <fix>3d</fix>
</trkpt>
<trkpt lat="40.0714053" lon="-105.2295936">
  <ele>1583.11</ele>
  <time>2026-08-28T17:52:14Z</time>
  <course>221.4</course>
  <speed>3.867428085950662</speed>
  <fix>3d</fix>
</trkpt>
<trkpt lat="40.0714088" lon="-105.2295895">
  <ele>1583.0</ele>
  <time>2026-08-28T17:52:14Z</time>
  <course>219.04</course>
  <speed>3.85</speed>
  <fix>3d</fix>
</trkpt>
<trkpt lat="40.0714028" lon="-105.2295966">
  <ele>1583.11</ele>
  <time>2026-08-28T17:52:14Z</time>
  <course>223.32</course>
  <speed>3.812413933454761</speed>
  <fix>3d</fix>
</trkpt>
<trkpt lat="40.0714088" lon="-105.2295895">
  <ele>1583.0</ele>
  <time>2026-08-28T17:52:14Z</time>
  <course>219.04</course>
  <speed>3.85</speed>
  <fix>3d</fix>
</trkpt>
<trkpt lat="40.0714004" lon="-105.2295997">
  <ele>1583.12</ele>
  <time>2026-08-28T17:52:14Z</time>
  <course>225.25</course>
  <speed>3.7549034608096115</speed>
  <fix>3d</fix>
</trkpt>
<trkpt lat="40.0714037" lon="-105.2295953">
  <ele>1583.0</ele>
  <time>2026-08-28T17:52:14Z</time>
  <course>222.91</course>
  <speed>3.77</speed>
  <fix>3d</fix>
</trkpt>
<trkpt lat="40.0713981" lon="-105.2296029">
  <ele>1583.12</ele>
  <time>2026-08-28T17:52:14Z</time>
  <course>227.13</course>
  <speed>3.694374101251794</speed>
  <fix>3d</fix>
</trkpt>
<trkpt lat="40.0714037" lon="-105.2295953">
  <ele>1583.0</ele>
  <time>2026-08-28T17:52:14Z</time>
  <course>222.91</course>
  <speed>3.77</speed>
  <fix>3d</fix>
</trkpt>
<trkpt lat="40.0713959" lon="-105.2296061">
  <ele>1583.12</ele>
  <time>2026-08-28T17:52:14Z</time>
  <course>229.0</course>
  <speed>3.6444478319767457</speed>
  <fix>3d</fix>
</trkpt>
<trkpt lat="40.0713989" lon="-105.2296015">
  <ele>1583.0</ele>
  <time>2026-08-28T17:52:14Z</time>
  <course>226.7</course>
  <speed>3.66</speed>
  <fix>3d</fix>
</trkpt>
<trkpt lat="40.0713938" lon="-105.2296093">
  <ele>1583.12</ele>
  <time>2026-08-28T17:52:14Z</time>
  <course>230.84</course>
  <speed>3.5905013577493605</speed>
  <fix>3d</fix>
</trkpt>
<trkpt lat="40.0713989" lon="-105.2296015">
  <ele>1583.0</ele>
  <time>2026-08-28T17:52:14Z</time>
  <course>226.7</course>
  <speed>3.66</speed>
  <fix>3d</fix>
</trkpt>
<trkpt lat="40.0713918" lon="-105.2296126">
  <ele>1583.13</ele>
  <time>2026-08-28T17:52:14Z</time>
  <course>232.66</course>
  <speed>3.5540680916380882</speed>
  <fix>3d</fix>
</trkpt>
<trkpt lat="40.0713947" lon="-105.2296078">
  <ele>1583.0</ele>
  <time>2026-08-28T17:52:14Z</time>
  <course>230.38</course>
  <speed>3.56</speed>
  <fix>3d</fix>
</trkpt>
<trkpt lat="40.07139" lon="-105.2296159">
  <ele>1583.13</ele>
  <time>2026-08-28T17:52:14Z</time>
  <course>234.46</course>
  <speed>3.5130044121805484</speed>
  <fix>3d</fix>
</trkpt>
<trkpt lat="40.0713947" lon="-105.2296078">
  <ele>1583.0</ele>
  <time>2026-08-28T17:52:14Z</time>
  <course>230.38</course>
  <speed>3.56</speed>
  <fix>3d</fix>
</trkpt>
<trkpt lat="40.0713882" lon="-105.2296193">
  <ele>1583.13</ele>
  <time>2026-08-28T17:52:14Z</time>
  <course>236.22</course>
  <speed>3.483518336394973</speed>
  <fix>3d</fix>
</trkpt>
<trkpt lat="40.0713908" lon="-105.2296144">
  <ele>1583.0</ele>
  <time>2026-08-28T17:52:14Z</time>
  <course>233.95</course>
  <speed>3.49</speed>
  <fix>3d</fix>
</trkpt>
<trkpt lat="40.0713865" lon="-105.2296226">
  <ele>1583.13</ele>
  <time>2026-08-28T17:52:14Z</time>
  <course>237.96</course>
  <speed>3.4545332535669706</speed>
  <fix>3d</fix>
</trkpt>
<trkpt lat="40.0713908" lon="-105.2296144">
  <ele>1583.0</ele>
  <time>2026-08-28T17:52:14Z</time>
  <course>233.95</course>
  <speed>3.49</speed>
  <fix>3d</fix>
</trkpt>
<trkpt lat="40.071385" lon="-105.2296261">
  <ele>1583.12</ele>
  <time>2026-08-28T17:52:14Z</time>
  <course>239.66</course>
  <speed>3.4284836298282073</speed>
  <fix>3d</fix>
</trkpt>
<trkpt lat="40.0713908" lon="-105.2296144">
  <ele>1583.0</ele>
  <time>2026-08-28T17:52:14Z</time>
  <course>233.95</course>
  <speed>3.49</speed>
  <fix>3d</fix>
</trkpt>
<trkpt lat="40.0713835" lon="-105.2296295">
  <ele>1583.12</ele>
  <time>2026-08-28T17:52:14Z</time>
  <course>241.33</course>
  <speed>3.405436829541843</speed>
  <fix>3d</fix>
</trkpt>
<trkpt lat="40.0713873" lon="-105.2296212">
  <ele>1583.0</ele>
  <time>2026-08-28T17:52:14Z</time>
  <course>237.41</course>
  <speed>3.43</speed>
  <fix>3d</fix>
</trkpt>
<trkpt lat="40.0713821" lon="-105.229633">
  <ele>1583.12</ele>
  <time>2026-08-28T17:52:14Z</time>
  <course>242.95</course>
  <speed>3.3854541792793476</speed>
  <fix>3d</fix>
</trkpt>
<trkpt lat="40.0713873" lon="-105.2296212">
  <ele>1583.0</ele>
  <time>2026-08-28T17:52:14Z</time>
  <course>237.41</course>
  <speed>3.43</speed>
  <fix>3d</fix>
</trkpt>
<trkpt lat="40.0713808" lon="-105.2296365">
  <ele>1583.12</ele>
  <time>2026-08-28T17:52:14Z</time>
  <course>244.54</course>
  <speed>3.3638073666605823</speed>
  <fix>3d</fix>
</trkpt>
<trkpt lat="40.0713841" lon="-105.229628">
  <ele>1583.0</ele>
  <time>2026-08-28T17:52:14Z</time>
  <course>240.76</course>
  <speed>3.39</speed>
  <fix>3d</fix>
</trkpt>
<trkpt lat="40.0713796" lon="-105.22964">
  <ele>1583.12</ele>
  <time>2026-08-28T17:52:14Z</time>
  <course>246.09</course>
  <speed>3.3537143587371894</speed>
  <fix>3d</fix>
</trkpt>
<trkpt lat="40.0713841" lon="-105.229628">
  <ele>1583.0</ele>
  <time>2026-08-28T17:52:14Z</time>
  <course>240.76</course>
  <speed>3.39</speed>
  <fix>3d</fix>
</trkpt>
<trkpt lat="40.0713784" lon="-105.2296435">
  <ele>1583.12</ele>
  <time>2026-08-28T17:52:14Z</time>
  <course>247.59</course>
  <speed>3.337019628351023</speed>
  <fix>3d</fix>
</trkpt>
<trkpt lat="40.0713813" lon="-105.229635">
  <ele>1583.0</ele>
  <time>2026-08-28T17:52:14Z</time>
  <course>243.97</course>
  <speed>3.35</speed>
  <fix>3d</fix>
</trkpt>
<trkpt lat="40.0713773" lon="-105.2296471">
  <ele>1583.11</ele>
  <time>2026-08-28T17:52:14Z</time>
  <course>249.08</course>
  <speed>3.3134423187977786</speed>
  <fix>3d</fix>
</trkpt>
<trkpt lat="40.0713788" lon="-105.2296422">
  <ele>1583.0</ele>
  <time>2026-08-28T17:52:14Z</time>
  <course>247.04</course>
  <speed>3.33</speed>
  <fix>3d</fix>
</trkpt>
<trkpt lat="40.0713763" lon="-105.2296508">
  <ele>1583.12</ele>
  <time>2026-08-28T17:52:14Z</time>
  <course>250.52</course>
  <speed>3.3049205739321486</speed>
  <fix>3d</fix>
</trkpt>
<trkpt lat="40.0713788" lon="-105.2296422">
  <ele>1583.0</ele>
  <time>2026-08-28T17:52:14Z</time>
  <course>247.04</course>
  <speed>3.33</speed>
  <fix>3d</fix>
</trkpt>
<trkpt lat="40.0713754" lon="-105.2296544">
  <ele>1583.12</ele>
  <time>2026-08-28T17:52:14Z</time>
  <course>251.92</course>
  <speed>3.2858636612008114</speed>
  <fix>3d</fix>
</trkpt>
<trkpt lat="40.0713766" lon="-105.2296494">
  <ele>1583.0</ele>
  <time>2026-08-28T17:52:14Z</time>
  <course>249.98</course>
  <speed>3.3</speed>
  <fix>3d</fix>
</trkpt>
<trkpt lat="40.0713745" lon="-105.229658">
  <ele>1583.12</ele>
  <time>2026-08-28T17:52:14Z</time>
  <course>253.29</course>
  <speed>3.2720024449868617</speed>
  <fix>3d</fix>
</trkpt>
<trkpt lat="40.0713766" lon="-105.2296494">
  <ele>1583.0</ele>
  <time>2026-08-28T17:52:14Z</time>
  <course>249.98</course>
  <speed>3.3</speed>
  <fix>3d</fix>
</trkpt>
<trkpt lat="40.0713737" lon="-105.2296617">
  <ele>1583.12</ele>
  <time>2026-08-28T17:52:14Z</time>
  <course>254.63</course>
  <speed>3.250415358073488</speed>
  <fix>3d</fix>
</trkpt>
<trkpt lat="40.0713747" lon="-105.2296567">
  <ele>1583.0</ele>
  <time>2026-08-28T17:52:14Z</time>
  <course>252.78</course>
  <speed>3.27</speed>
  <fix>3d</fix>
</trkpt>
<trkpt lat="40.071373" lon="-105.2296654">
  <ele>1583.12</ele>
  <time>2026-08-28T17:52:14Z</time>
  <course>255.94</course>
  <speed>3.2330326320654423</speed>
  <fix>3d</fix>
</trkpt>
<trkpt lat="40.0713747" lon="-105.2296567">
  <ele>1583.0</ele>
  <time>2026-08-28T17:52:14Z</time>
  <course>252.78</course>
  <speed>3.27</speed>
  <fix>3d</fix>
</trkpt>
<trkpt lat="40.0713723" lon="-105.2296691">
  <ele>1583.11</ele>
  <time>2026-08-28T17:52:14Z</time>
  <course>257.21</course>
  <speed>3.2149183504406453</speed>
  <fix>3d</fix>
</trkpt>
<trkpt lat="40.0713731" lon="-105.2296641">
  <ele>1583.0</ele>
  <time>2026-08-28T17:52:14Z</time>
  <course>255.43</course>
  <speed>3.24</speed>
  <fix>3d</fix>
</trkpt>
<trkpt lat="40.0713717" lon="-105.2296728">
  <ele>1583.11</ele>
  <time>2026-08-28T17:52:14Z</time>
  <course>258.46</course>
  <speed>3.190814942926023</speed>
  <fix>3d</fix>
</trkpt>
<trkpt lat="40.0713731" lon="-105.2296641">
  <ele>1583.0</ele>
  <time>2026-08-28T17:52:14Z</time>
  <course>255.43</course>
  <speed>3.24</speed>
  <fix>3d</fix>
</trkpt>
<trkpt lat="40.0713712" lon="-105.2296765">
  <ele>1583.11</ele>
  <time>2026-08-28T17:52:14Z</time>
  <course>259.66</course>
  <speed>3.1681066901226673</speed>
  <fix>3d</fix>
</trkpt>
<trkpt lat="40.0713718" lon="-105.2296715">
  <ele>1583.0</ele>
  <time>2026-08-28T17:52:14Z</time>
  <course>257.93</course>
  <speed>3.2</speed>
  <fix>3d</fix>
</trkpt>
<trkpt lat="40.0713707" lon="-105.2296802">
  <ele>1583.11</ele>
  <time>2026-08-28T17:52:14Z</time>
  <course>260.82</course>
  <speed>3.14836465486449</speed>
  <fix>3d</fix>
</trkpt>
<trkpt lat="40.0713718" lon="-105.2296715">
  <ele>1583.0</ele>
  <time>2026-08-28T17:52:14Z</time>
  <course>257.93</course>
  <speed>3.2</speed>
  <fix>3d</fix>
</trkpt>
<trkpt lat="40.0713703" lon="-105.2296838">
  <ele>1583.12</ele>
  <time>2026-08-28T17:52:14Z</time>
  <course>261.93</course>
  <speed>3.128322234041755</speed>
  <fix>3d</fix>
</trkpt>
<trkpt lat="40.0713707" lon="-105.2296788">
  <ele>1583.0</ele>
  <time>2026-08-28T17:52:14Z</time>
  <course>260.27</course>
  <speed>3.16</speed>
  <fix>3d</fix>
</trkpt>
<trkpt lat="40.0713699" lon="-105.2296874">
  <ele>1583.12</ele>
  <time>2026-08-28T17:52:14Z</time>
  <course>263.01</course>
  <speed>3.100967590930289</speed>
  <fix>3d</fix>
</trkpt>
<trkpt lat="40.0713707" lon="-105.2296788">
  <ele>1583.0</ele>
  <time>2026-08-28T17:52:14Z</time>
  <course>260.27</course>
  <speed>3.16</speed>
  <fix>3d</fix>
</trkpt>
<trkpt lat="40.0713696" lon="-105.2296911">
  <ele>1583.12</ele>
  <time>2026-08-28T17:52:14Z</time>
  <course>264.04</course>
  <speed>3.0756625302526284</speed>
  <fix>3d</fix>
</trkpt>
<trkpt lat="40.0713699" lon="-105.2296861">
  <ele>1583.0</ele>
  <time>2026-08-28T17:52:14Z</time>
  <course>262.46</course>
  <speed>3.11</speed>
  <fix>3d</fix>
</trkpt>
<trkpt lat="40.0713693" lon="-105.2296946">
  <ele>1583.12</ele>
  <time>2026-08-28T17:52:14Z</time>
  <course>265.03</course>
  <speed>3.05026228380446</speed>
  <fix>3d</fix>
</trkpt>
<trkpt lat="40.0713699" lon="-105.2296861">
  <ele>1583.0</ele>
  <time>2026-08-28T17:52:14Z</time>
  <course>262.46</course>
  <speed>3.11</speed>
  <fix>3d</fix>
</trkpt>
<trkpt lat="40.0713691" lon="-105.2296982">
  <ele>1583.12</ele>
  <time>2026-08-28T17:52:14Z</time>
  <course>265.98</course>
  <speed>3.026615271222955</speed>
  <fix>3d</fix>
</trkpt>
<trkpt lat="40.0713699" lon="-105.2296861">
  <ele>1583.0</ele>
  <time>2026-08-28T17:52:14Z</time>
  <course>262.46</course>
  <speed>3.11</speed>
  <fix>3d</fix>
</trkpt>
<trkpt lat="40.0713689" lon="-105.2297017">
  <ele>1583.12</ele>
  <time>2026-08-28T17:52:14Z</time>
  <course>266.89</course>
  <speed>2.993760177435728</speed>
  <fix>3d</fix>
</trkpt>
<trkpt lat="40.0713693" lon="-105.2296934">
  <ele>1583.0</ele>
  <time>2026-08-28T17:52:14Z</time>
  <course>264.49</course>
  <speed>3.06</speed>
  <fix>3d</fix>
</trkpt>
<trkpt lat="40.0713688" lon="-105.2297052">
  <ele>1583.12</ele>
  <time>2026-08-28T17:52:14Z</time>
  <course>267.75</course>
  <speed>2.962043213729334</speed>
  <fix>3d</fix>
</trkpt>
<trkpt lat="40.0713693" lon="-105.2296934">
  <ele>1583.0</ele>
  <time>2026-08-28T17:52:14Z</time>
  <course>264.49</course>
  <speed>3.06</speed>
  <fix>3d</fix>
</trkpt>
<trkpt lat="40.0713687" lon="-105.2297086">
  <ele>1583.12</ele>
  <time>2026-08-28T17:52:14Z</time>
  <course>268.58</course>
  <speed>2.930614270080592</speed>
  <fix>3d</fix>
</trkpt>
<trkpt lat="40.0713688" lon="-105.2297005">
  <ele>1583.0</ele>
  <time>2026-08-28T17:52:14Z</time>
  <course>266.35</course>
  <speed>3.01</speed>
  <fix>3d</fix>
</trkpt>
<trkpt lat="40.0713686" lon="-105.229712">
  <ele>1583.12</ele>
  <time>2026-08-28T17:52:14Z</time>
  <course>269.37</course>
  <speed>2.910068727710739</speed>
  <fix>3d</fix>
</trkpt>
<trkpt lat="40.0713688" lon="-105.2297005">
  <ele>1583.0</ele>
  <time>2026-08-28T17:52:14Z</time>
  <course>266.35</course>
  <speed>3.01</speed>
  <fix>3d</fix>
</trkpt>
<trkpt lat="40.0713686" lon="-105.2297154">
  <ele>1583.12</ele>
  <time>2026-08-28T17:52:14Z</time>
  <course>270.11</course>
  <speed>2.880017361058784</speed>
  <fix>3d</fix>
</trkpt>
<trkpt lat="40.0713686" lon="-105.2297074">
  <ele>1583.0</ele>
  <time>2026-08-28T17:52:14Z</time>
  <course>268.04</course>
  <speed>2.96</speed>
  <fix>3d</fix>
</trkpt>
<trkpt lat="40.0713686" lon="-105.2297187">
  <ele>1583.12</ele>
  <time>2026-08-28T17:52:14Z</time>
  <course>270.81</course>
  <speed>2.8502806879323304</speed>
  <fix>3d</fix>
</trkpt>
<trkpt lat="40.0713686" lon="-105.2297074">
  <ele>1583.0</ele>
  <time>2026-08-28T17:52:14Z</time>
  <course>268.04</course>
  <speed>2.96</speed>
  <fix>3d</fix>
</trkpt>
<trkpt lat="40.0713687" lon="-105.2297221">
  <ele>1583.12</ele>
  <time>2026-08-28T17:52:14Z</time>
  <course>271.47</course>
  <speed>2.820868660537034</speed>
  <fix>3d</fix>
</trkpt>
<trkpt lat="40.0713685" lon="-105.2297143">
  <ele>1583.0</ele>
  <time>2026-08-28T17:52:14Z</time>
  <course>269.56</course>
  <speed>2.91</speed>
  <fix>3d</fix>
</trkpt>
<trkpt lat="40.0713687" lon="-105.2297253">
  <ele>1583.11</ele>
  <time>2026-08-28T17:52:14Z</time>
  <course>272.08</course>
  <speed>2.80178514522438</speed>
  <fix>3d</fix>
</trkpt>
<trkpt lat="40.0713685" lon="-105.2297211">
  <ele>1583.0</ele>
  <time>2026-08-28T17:52:14Z</time>
  <course>270.91</course>
  <speed>2.86</speed>
  <fix>3d</fix>
</trkpt>
<trkpt lat="40.0713687" lon="-105.2297286">
  <ele>1583.11</ele>
  <time>2026-08-28T17:52:14Z</time>
  <course>272.64</course>
  <speed>2.773048863615641</speed>
  <fix>3d</fix>
</trkpt>
<trkpt lat="40.0713685" lon="-105.2297211">
  <ele>1583.0</ele>
  <time>2026-08-28T17:52:14Z</time>
  <course>270.91</course>
  <speed>2.86</speed>
  <fix>3d</fix>
</trkpt>
<trkpt lat="40.0713689" lon="-105.2297318">
  <ele>1583.11</ele>
  <time>2026-08-28T17:52:14Z</time>
  <course>273.16</course>
  <speed>2.754650613054222</speed>
  <fix>3d</fix>
</trkpt>
<trkpt lat="40.0713686" lon="-105.2297277">
  <ele>1583.0</ele>
  <time>2026-08-28T17:52:14Z</time>
  <course>272.08</course>
  <speed>2.81</speed>
  <fix>3d</fix>
</trkpt>
<trkpt lat="40.071369" lon="-105.2297351">
  <ele>1583.11</ele>
  <time>2026-08-28T17:52:14Z</time>
  <course>273.63</course>
  <speed>2.725949375905576</speed>
  <fix>3d</fix>
</trkpt>
<trkpt lat="40.0713686" lon="-105.2297277">
  <ele>1583.0</ele>
  <time>2026-08-28T17:52:14Z</time>
  <course>272.08</course>
  <speed>2.81</speed>
  <fix>3d</fix>
</trkpt>
<trkpt lat="40.0713692" lon="-105.2297383">
  <ele>1583.11</ele>
  <time>2026-08-28T17:52:14Z</time>
  <course>274.06</course>
  <speed>2.7073972741361767</speed>
  <fix>3d</fix>
</trkpt>
<trkpt lat="40.0713688" lon="-105.2297343">
  <ele>1583.0</ele>
  <time>2026-08-28T17:52:14Z</time>
  <course>273.08</course>
  <speed>2.76</speed>
  <fix>3d</fix>
</trkpt>
<trkpt lat="40.0713693" lon="-105.2297415">
  <ele>1583.11</ele>
  <time>2026-08-28T17:52:14Z</time>
  <course>274.45</course>
  <speed>2.6890146894355187</speed>
  <fix>3d</fix>
</trkpt>
<trkpt lat="40.0713688" lon="-105.2297343">
  <ele>1583.0</ele>
  <time>2026-08-28T17:52:14Z</time>
  <course>273.08</course>
  <speed>2.76</speed>
  <fix>3d</fix>
</trkpt>
<trkpt lat="40.0713695" lon="-105.2297447">
  <ele>1583.11</ele>
  <time>2026-08-28T17:52:14Z</time>
  <course>274.8</course>
  <speed>2.6699250925821874</speed>
  <fix>3d</fix>
</trkpt>
<trkpt lat="40.071369" lon="-105.2297408">
  <ele>1583.0</ele>
  <time>2026-08-28T17:52:14Z</time>
  <course>273.9</course>
  <speed>2.72</speed>
  <fix>3d</fix>
</trkpt>
<trkpt lat="40.0713697" lon="-105.2297478">
  <ele>1583.11</ele>
  <time>2026-08-28T17:52:14Z</time>
  <course>275.11</course>
  <speed>2.6518107021429715</speed>
  <fix>3d</fix>
</trkpt>
<trkpt lat="40.071369" lon="-105.2297408">
  <ele>1583.0</ele>
  <time>2026-08-28T17:52:14Z</time>
  <course>273.9</course>
  <speed>2.72</speed>
  <fix>3d</fix>
</trkpt>
<trkpt lat="40.0713699" lon="-105.229751">
  <ele>1583.11</ele>
  <time>2026-08-28T17:52:14Z</time>
  <course>275.37</course>
  <speed>2.6328691574022436</speed>
  <fix>3d</fix>
</trkpt>
<trkpt lat="40.0713693" lon="-105.2297471">
  <ele>1583.0</ele>
  <time>2026-08-28T17:52:14Z</time>
  <course>274.56</course>
  <speed>2.68</speed>
  <fix>3d</fix>
</trkpt>
<trkpt lat="40.0713701" lon="-105.2297541">
  <ele>1583.1</ele>
  <time>2026-08-28T17:52:14Z</time>
  <course>275.6</course>
  <speed>2.622918222133508</speed>
  <fix>3d</fix>
</trkpt>
<trkpt lat="40.0713693" lon="-105.2297471">
  <ele>1583.0</ele>
  <time>2026-08-28T17:52:14Z</time>
  <course>274.56</course>
  <speed>2.68</speed>
  <fix>3d</fix>
</trkpt>
<trkpt lat="40.0713703" lon="-105.2297572">
  <ele>1583.1</ele>
  <time>2026-08-28T17:52:14Z</time>
  <course>275.79</course>
  <speed>2.604035330021465</speed>
  <fix>3d</fix>
</trkpt>
<trkpt lat="40.0713698" lon="-105.2297533">
  <ele>1583.0</ele>
  <time>2026-08-28T17:52:14Z</time>
  <course>275.05</course>
  <speed>2.65</speed>
  <fix>3d</fix>
</trkpt>
<trkpt lat="40.0713705" lon="-105.2297603">
  <ele>1583.1</ele>
  <time>2026-08-28T17:52:14Z</time>
  <course>275.93</course>
  <speed>2.5940894356209077</speed>
  <fix>3d</fix>
</trkpt>
<trkpt lat="40.0713698" lon="-105.2297533">
  <ele>1583.0</ele>
  <time>2026-08-28T17:52:14Z</time>
  <course>275.05</course>
  <speed>2.65</speed>
  <fix>3d</fix>
</trkpt>
<trkpt lat="40.0713708" lon="-105.2297633">
  <ele>1583.1</ele>
  <time>2026-08-28T17:52:14Z</time>
  <course>276.04</course>
  <speed>2.585207922005501</speed>
  <fix>3d</fix>
</trkpt>
<trkpt lat="40.0713698" lon="-105.2297533">
  <ele>1583.0</ele>
  <time>2026-08-28T17:52:14Z</time>
  <course>275.05</course>
  <speed>2.65</speed>
  <fix>3d</fix>
</trkpt>
<trkpt lat="40.071371" lon="-105.2297664">
  <ele>1583.1</ele>
  <time>2026-08-28T17:52:14Z</time>
  <course>276.11</course>
  <speed>2.5752669764511795</speed>
  <fix>3d</fix>
</trkpt>
<trkpt lat="40.0713702" lon="-105.2297595">
  <ele>1583.0</ele>
  <time>2026-08-28T17:52:14Z</time>
  <course>275.38</course>
  <speed>2.62</speed>
  <fix>3d</fix>
</trkpt>
<trkpt lat="40.0713712" lon="-105.2297694">
  <ele>1583.1</ele>
  <time>2026-08-28T17:52:14Z</time>
  <course>276.15</course>
  <speed>2.565326489942362</speed>
  <fix>3d</fix>
</trkpt>
<trkpt lat="40.0713702" lon="-105.2297595">
  <ele>1583.0</ele>
  <time>2026-08-28T17:52:14Z</time>
  <course>275.38</course>
  <speed>2.62</speed>
  <fix>3d</fix>
</trkpt>
<trkpt lat="40.0713714" lon="-105.2297724">
  <ele>1583.1</ele>
  <time>2026-08-28T17:52:14Z</time>
  <course>276.15</course>
  <speed>2.5543100829773975</speed>
  <fix>3d</fix>
</trkpt>
<trkpt lat="40.0713707" lon="-105.2297656">
  <ele>1583.0</ele>
  <time>2026-08-28T17:52:14Z</time>
  <course>275.56</course>
  <speed>2.6</speed>
  <fix>3d</fix>
</trkpt>
<trkpt lat="40.0713716" lon="-105.2297754">
  <ele>1583.1</ele>
  <time>2026-08-28T17:52:14Z</time>
  <course>276.11</course>
  <speed>2.5543100829773975</speed>
  <fix>3d</fix>
</trkpt>
<trkpt lat="40.0713707" lon="-105.2297656">
  <ele>1583.0</ele>
  <time>2026-08-28T17:52:14Z</time>
  <course>275.56</course>
  <speed>2.6</speed>
  <fix>3d</fix>
</trkpt>
<trkpt lat="40.0713718" lon="-105.2297783">
  <ele>1583.1</ele>
  <time>2026-08-28T17:52:14Z</time>
  <course>276.05</course>
  <speed>2.5532724100651696</speed>
  <fix>3d</fix>
</trkpt>
<trkpt lat="40.0713711" lon="-105.2297717">
  <ele>1583.0</ele>
  <time>2026-08-28T17:52:14Z</time>
  <course>275.59</course>
  <speed>2.59</speed>
  <fix>3d</fix>
</trkpt>
<trkpt lat="40.0713721" lon="-105.2297813">
  <ele>1583.1</ele>
  <time>2026-08-28T17:52:14Z</time>
  <course>275.95</course>
  <speed>2.5532724100651696</speed>
  <fix>3d</fix>
</trkpt>
<trkpt lat="40.0713711" lon="-105.2297717">
  <ele>1583.0</ele>
  <time>2026-08-28T17:52:14Z</time>
  <course>275.59</course>
  <speed>2.59</speed>
  <fix>3d</fix>
</trkpt>
<trkpt lat="40.0713723" lon="-105.2297844">
  <ele>1583.1</ele>
  <time>2026-08-28T17:52:14Z</time>
  <course>275.81</course>
  <speed>2.5522734963165683</speed>
  <fix>3d</fix>
</trkpt>
<trkpt lat="40.0713716" lon="-105.2297777">
  <ele>1583.0</ele>
  <time>2026-08-28T17:52:14Z</time>
  <course>275.48</course>
  <speed>2.58</speed>
  <fix>3d</fix>
</trkpt>
<trkpt lat="40.0713725" lon="-105.2297874">
  <ele>1583.1</ele>
  <time>2026-08-28T17:52:14Z</time>
  <course>275.65</course>
  <speed>2.5612692166189794</speed>
  <fix>3d</fix>
</trkpt>
<trkpt lat="40.071372" lon="-105.2297838">
  <ele>1583.0</ele>
  <time>2026-08-28T17:52:14Z</time>
  <course>275.24</course>
  <speed>2.58</speed>
  <fix>3d</fix>
</trkpt>
<trkpt lat="40.0713726" lon="-105.2297904">
  <ele>1583.1</ele>
  <time>2026-08-28T17:52:14Z</time>
  <course>275.46</course>
  <speed>2.560351538363433</speed>
  <fix>3d</fix>
</trkpt>
<trkpt lat="40.071372" lon="-105.2297838">
  <ele>1583.0</ele>
  <time>2026-08-28T17:52:14Z</time>
  <course>275.24</course>
  <speed>2.58</speed>
  <fix>3d</fix>
</trkpt>
<trkpt lat="40.0713728" lon="-105.2297934">
  <ele>1583.1</ele>
  <time>2026-08-28T17:52:14Z</time>
  <course>275.24</course>
  <speed>2.569435735720977</speed>
  <fix>3d</fix>
</trkpt>
<trkpt lat="40.0713724" lon="-105.2297898">
  <ele>1583.0</ele>
  <time>2026-08-28T17:52:14Z</time>
  <course>274.87</course>
  <speed>2.59</speed>
  <fix>3d</fix>
</trkpt>
<trkpt lat="40.071373" lon="-105.2297965">
  <ele>1583.1</ele>
  <time>2026-08-28T17:52:14Z</time>
  <course>275.0</course>
  <speed>2.5777703543954416</speed>
  <fix>3d</fix>
</trkpt>
<trkpt lat="40.0713724" lon="-105.2297898">
  <ele>1583.0</ele>
  <time>2026-08-28T17:52:14Z</time>
  <course>274.87</course>
  <speed>2.59</speed>
  <fix>3d</fix>
</trkpt>
<trkpt lat="40.0713731" lon="-105.2297995">
  <ele>1583.1</ele>
  <time>2026-08-28T17:52:14Z</time>
  <course>274.72</course>
  <speed>2.5869866640553054</speed>
  <fix>3d</fix>
</trkpt>
<trkpt lat="40.0713728" lon="-105.2297959">
  <ele>1583.0</ele>
  <time>2026-08-28T17:52:14Z</time>
  <course>274.39</course>
  <speed>2.6</speed>
  <fix>3d</fix>
</trkpt>
<trkpt lat="40.0713733" lon="-105.2298026">
  <ele>1583.1</ele>
  <time>2026-08-28T17:52:14Z</time>
  <course>274.42</course>
  <speed>2.596247291765559</speed>
  <fix>3d</fix>
</trkpt>
<trkpt lat="40.0713728" lon="-105.2297959">
  <ele>1583.0</ele>
  <time>2026-08-28T17:52:14Z</time>
  <course>274.39</course>
  <speed>2.6</speed>
  <fix>3d</fix>
</trkpt>
<trkpt lat="40.0713734" lon="-105.2298057">
  <ele>1583.1</ele>
  <time>2026-08-28T17:52:14Z</time>
  <course>274.1</course>
  <speed>2.6049184248263897</speed>
  <fix>3d</fix>
</trkpt>
<trkpt lat="40.0713731" lon="-105.2298021">
  <ele>1583.0</ele>
  <time>2026-08-28T17:52:14Z</time>
  <course>273.81</course>
  <speed>2.62</speed>
  <fix>3d</fix>
</trkpt>
<trkpt lat="40.0713736" lon="-105.2298089">
  <ele>1583.1</ele>
  <time>2026-08-28T17:52:14Z</time>
  <course>273.74</course>
  <speed>2.6143067914841214</speed>
  <fix>3d</fix>
</trkpt>
<trkpt lat="40.0713731" lon="-105.2298021">
  <ele>1583.0</ele>
  <time>2026-08-28T17:52:14Z</time>
  <course>273.81</course>
  <speed>2.62</speed>
  <fix>3d</fix>
</trkpt>
<trkpt lat="40.0713737" lon="-105.229812">
  <ele>1583.1</ele>
  <time>2026-08-28T17:52:14Z</time>
  <course>273.37</course>
  <speed>2.6232232081925475</speed>
  <fix>3d</fix>
</trkpt>
<trkpt lat="40.0713734" lon="-105.2298083">
  <ele>1583.0</ele>
  <time>2026-08-28T17:52:14Z</time>
  <course>273.12</course>
  <speed>2.63</speed>
  <fix>3d</fix>
</trkpt>
<trkpt lat="40.0713738" lon="-105.2298152">
  <ele>1583.1</ele>
  <time>2026-08-28T17:52:14Z</time>
  <course>272.97</course>
  <speed>2.632299375071156</speed>
  <fix>3d</fix>
</trkpt>
<trkpt lat="40.0713734" lon="-105.2298083">
  <ele>1583.0</ele>
  <time>2026-08-28T17:52:14Z</time>
  <course>273.12</course>
  <speed>2.63</speed>
  <fix>3d</fix>
</trkpt>
<trkpt lat="40.0713738" lon="-105.2298183">
  <ele>1583.1</ele>
  <time>2026-08-28T17:52:14Z</time>
  <course>272.54</course>
  <speed>2.6415336454416023</speed>
  <fix>3d</fix>
</trkpt>
<trkpt lat="40.0713736" lon="-105.2298144">
  <ele>1583.0</ele>
  <time>2026-08-28T17:52:14Z</time>
  <course>272.34</course>
  <speed>2.65</speed>
  <fix>3d</fix>
</trkpt>
<trkpt lat="40.0713739" lon="-105.2298215">
  <ele>1583.1</ele>
  <time>2026-08-28T17:52:14Z</time>
  <course>272.1</course>
  <speed>2.6509243670840554</speed>
  <fix>3d</fix>
</trkpt>
<trkpt lat="40.0713736" lon="-105.2298144">
  <ele>1583.0</ele>
  <time>2026-08-28T17:52:14Z</time>
  <course>272.34</course>
  <speed>2.65</speed>
  <fix>3d</fix>
</trkpt>
<trkpt lat="40.0713739" lon="-105.2298246">
  <ele>1583.1</ele>
  <time>2026-08-28T17:52:14Z</time>
  <course>271.64</course>
  <speed>2.670468123756582</speed>
  <fix>3d</fix>
</trkpt>
<trkpt lat="40.0713738" lon="-105.2298206">
  <ele>1583.0</ele>
  <time>2026-08-28T17:52:14Z</time>
  <course>271.47</course>
  <speed>2.67</speed>
  <fix>3d</fix>
</trkpt>
<trkpt lat="40.071374" lon="-105.2298278">
  <ele>1583.1</ele>
  <time>2026-08-28T17:52:14Z</time>
  <course>271.16</course>
  <speed>2.680167905188031</speed>
  <fix>3d</fix>
</trkpt>
<trkpt lat="40.0713738" lon="-105.2298206">
  <ele>1583.0</ele>
  <time>2026-08-28T17:52:14Z</time>
  <course>271.47</course>
  <speed>2.67</speed>
  <fix>3d</fix>
</trkpt>
<trkpt lat="40.071374" lon="-105.229831">
  <ele>1583.1</ele>
  <time>2026-08-28T17:52:14Z</time>
  <course>270.66</course>
  <speed>2.6900185872963776</speed>
  <fix>3d</fix>
</trkpt>
<trkpt lat="40.0713738" lon="-105.2298206">
  <ele>1583.0</ele>
  <time>2026-08-28T17:52:14Z</time>
  <course>271.47</course>
  <speed>2.67</speed>
  <fix>3d</fix>
</trkpt>
<trkpt lat="40.071374" lon="-105.2298342">
  <ele>1583.1</ele>
  <time>2026-08-28T17:52:14Z</time>
  <course>270.15</course>
  <speed>2.7</speed>
  <fix>3d</fix>
</trkpt>
<trkpt lat="40.0713739" lon="-105.229827">
  <ele>1583.0</ele>
  <time>2026-08-28T17:52:14Z</time>
  <course>270.51</course>
  <speed>2.69</speed>
  <fix>3d</fix>
</trkpt>
<trkpt lat="40.0713739" lon="-105.2298374">
  <ele>1583.1</ele>
  <time>2026-08-28T17:52:14Z</time>
  <course>269.61</course>
  <speed>2.710166046573531</speed>
  <fix>3d</fix>
</trkpt>
<trkpt lat="40.0713739" lon="-105.229827">
  <ele>1583.0</ele>
  <time>2026-08-28T17:52:14Z</time>
  <course>270.51</course>
  <speed>2.69</speed>
  <fix>3d</fix>
</trkpt>
<trkpt lat="40.071374" lon="-105.2298406">
  <ele>1583.1</ele>
  <time>2026-08-28T17:52:14Z</time>
  <course>269.07</course>
  <speed>2.720459520007603</speed>
  <fix>3d</fix>
</trkpt>
<trkpt lat="40.0713739" lon="-105.2298333">
  <ele>1583.0</ele>
  <time>2026-08-28T17:52:14Z</time>
  <course>269.49</course>
  <speed>2.71</speed>
  <fix>3d</fix>
</trkpt>
<trkpt lat="40.0713739" lon="-105.2298438">
  <ele>1583.1</ele>
  <time>2026-08-28T17:52:14Z</time>
  <course>268.5</course>
  <speed>2.741167634421507</speed>
  <fix>3d</fix>
</trkpt>
<trkpt lat="40.0713739" lon="-105.2298333">
  <ele>1583.0</ele>
  <time>2026-08-28T17:52:14Z</time>
  <course>269.49</course>
  <speed>2.71</speed>
  <fix>3d</fix>
</trkpt>
<trkpt lat="40.0713738" lon="-105.229847">
  <ele>1583.1</ele>
  <time>2026-08-28T17:52:14Z</time>
  <course>267.93</course>
  <speed>2.7521991207032968</speed>
  <fix>3d</fix>
</trkpt>
<trkpt lat="40.0713739" lon="-105.2298397">
  <ele>1583.0</ele>
  <time>2026-08-28T17:52:14Z</time>
  <course>268.4</course>
  <speed>2.73</speed>
  <fix>3d</fix>
</trkpt>
<trkpt lat="40.0713737" lon="-105.2298502">
  <ele>1583.11</ele>
  <time>2026-08-28T17:52:14Z</time>
  <course>267.33</course>
  <speed>2.763548443577568</speed>
  <fix>3d</fix>
</trkpt>
<trkpt lat="40.0713737" lon="-105.2298462">
  <ele>1583.0</ele>
  <time>2026-08-28T17:52:14Z</time>
  <course>267.26</course>
  <speed>2.76</speed>
  <fix>3d</fix>
</trkpt>
<trkpt lat="40.0713735" lon="-105.2298535">
  <ele>1583.11</ele>
  <time>2026-08-28T17:52:14Z</time>
  <course>266.74</course>
  <speed>2.7752117036363186</speed>
  <fix>3d</fix>
</trkpt>
<trkpt lat="40.0713737" lon="-105.2298462">
  <ele>1583.0</ele>
  <time>2026-08-28T17:52:14Z</time>
  <course>267.26</course>
  <speed>2.76</speed>
  <fix>3d</fix>
</trkpt>
<trkpt lat="40.0713733" lon="-105.2298568">
  <ele>1583.11</ele>
  <time>2026-08-28T17:52:14Z</time>
  <course>266.13</course>
  <speed>2.7871849597757232</speed>
  <fix>3d</fix>
</trkpt>
<trkpt lat="40.0713734" lon="-105.2298527">
  <ele>1583.0</ele>
  <time>2026-08-28T17:52:14Z</time>
  <course>266.06</course>
  <speed>2.79</speed>
  <fix>3d</fix>
</trkpt>
<trkpt lat="40.0713731" lon="-105.2298601">
  <ele>1583.11</ele>
  <time>2026-08-28T17:52:14Z</time>
  <course>265.52</course>
  <speed>2.8094305472817798</speed>
  <fix>3d</fix>
</trkpt>
<trkpt lat="40.0713734" lon="-105.2298527">
  <ele>1583.0</ele>
  <time>2026-08-28T17:52:14Z</time>
  <course>266.06</course>
  <speed>2.79</speed>
  <fix>3d</fix>
</trkpt>
<trkpt lat="40.0713729" lon="-105.2298634">
  <ele>1583.11</ele>
  <time>2026-08-28T17:52:14Z</time>
  <course>264.9</course>
  <speed>2.8220028348674635</speed>
  <fix>3d</fix>
</trkpt>
<trkpt lat="40.071373" lon="-105.2298592">
  <ele>1583.0</ele>
  <time>2026-08-28T17:52:14Z</time>
  <course>264.83</course>
  <speed>2.81</speed>
  <fix>3d</fix>
</trkpt>
<trkpt lat="40.0713726" lon="-105.2298667">
  <ele>1583.11</ele>
  <time>2026-08-28T17:52:14Z</time>
  <course>264.27</course>
  <speed>2.834872131155125</speed>
  <fix>3d</fix>
</trkpt>
<trkpt lat="40.071373" lon="-105.2298592">
  <ele>1583.0</ele>
  <time>2026-08-28T17:52:14Z</time>
  <course>264.83</course>
  <speed>2.81</speed>
  <fix>3d</fix>
</trkpt>
<trkpt lat="40.0713723" lon="-105.2298701">
  <ele>1583.1</ele>
  <time>2026-08-28T17:52:14Z</time>
  <course>263.63</course>
  <speed>2.8491753192810023</speed>
  <fix>3d</fix>
</trkpt>
<trkpt lat="40.0713725" lon="-105.2298658">
  <ele>1583.0</ele>
  <time>2026-08-28T17:52:14Z</time>
  <course>263.56</course>
  <speed>2.84</speed>
  <fix>3d</fix>
</trkpt>
<trkpt lat="40.071372" lon="-105.2298735">
  <ele>1583.1</ele>
  <time>2026-08-28T17:52:14Z</time>
  <course>262.99</course>
  <speed>2.8528056365620142</speed>
  <fix>3d</fix>
</trkpt>
<trkpt lat="40.0713725" lon="-105.2298658">
  <ele>1583.0</ele>
  <time>2026-08-28T17:52:14Z</time>
  <course>263.56</course>
  <speed>2.84</speed>
  <fix>3d</fix>
</trkpt>
<trkpt lat="40.0713716" lon="-105.2298768">
  <ele>1583.1</ele>
  <time>2026-08-28T17:52:14Z</time>
  <course>262.34</course>
  <speed>2.868030683238936</speed>
  <fix>3d</fix>
</trkpt>
<trkpt lat="40.0713719" lon="-105.2298725">
  <ele>1583.0</ele>
  <time>2026-08-28T17:52:14Z</time>
  <course>262.27</course>
  <speed>2.86</speed>
  <fix>3d</fix>
</trkpt>
<trkpt lat="40.0713712" lon="-105.2298802">
  <ele>1583.09</ele>
  <time>2026-08-28T17:52:14Z</time>
  <course>261.69</course>
  <speed>2.8837649002649295</speed>
  <fix>3d</fix>
</trkpt>
<trkpt lat="40.0713719" lon="-105.2298725">
  <ele>1583.0</ele>
  <time>2026-08-28T17:52:14Z</time>
  <course>262.27</course>
  <speed>2.86</speed>
  <fix>3d</fix>
</trkpt>
<trkpt lat="40.0713708" lon="-105.2298836">
  <ele>1583.09</ele>
  <time>2026-08-28T17:52:14Z</time>
  <course>261.03</course>
  <speed>2.8884944175123484</speed>
  <fix>3d</fix>
</trkpt>
<trkpt lat="40.0713712" lon="-105.2298792">
  <ele>1583.0</ele>
  <time>2026-08-28T17:52:14Z</time>
  <course>260.96</course>
  <speed>2.89</speed>
  <fix>3d</fix>
</trkpt>
<trkpt lat="40.0713703" lon="-105.229887">
  <ele>1583.09</ele>
  <time>2026-08-28T17:52:14Z</time>
  <course>260.38</course>
  <speed>2.905116176678654</speed>
  <fix>3d</fix>
</trkpt>
<trkpt lat="40.0713712" lon="-105.2298792">
  <ele>1583.0</ele>
  <time>2026-08-28T17:52:14Z</time>
  <course>260.96</course>
  <speed>2.89</speed>
  <fix>3d</fix>
</trkpt>
<trkpt lat="40.0713698" lon="-105.2298903">
  <ele>1583.09</ele>
  <time>2026-08-28T17:52:14Z</time>
  <course>259.73</course>
  <speed>2.9105325973092966</speed>
  <fix>3d</fix>
</trkpt>
<trkpt lat="40.0713703" lon="-105.2298859">
  <ele>1583.0</ele>
  <time>2026-08-28T17:52:14Z</time>
  <course>259.65</course>
  <speed>2.91</speed>
  <fix>3d</fix>
</trkpt>
<trkpt lat="40.0713693" lon="-105.2298937">
  <ele>1583.1</ele>
  <time>2026-08-28T17:52:14Z</time>
  <course>259.08</course>
  <speed>2.9182186347153634</speed>
  <fix>3d</fix>
</trkpt>
<trkpt lat="40.0713703" lon="-105.2298859">
  <ele>1583.0</ele>
  <time>2026-08-28T17:52:14Z</time>
  <course>259.65</course>
  <speed>2.91</speed>
  <fix>3d</fix>
</trkpt>
<trkpt lat="40.0713687" lon="-105.2298971">
  <ele>1583.1</ele>
  <time>2026-08-28T17:52:14Z</time>
  <course>258.44</course>
  <speed>2.934109745732085</speed>
  <fix>3d</fix>
</trkpt>
<trkpt lat="40.0713703" lon="-105.2298859">
  <ele>1583.0</ele>
  <time>2026-08-28T17:52:14Z</time>
  <course>259.65</course>
  <speed>2.91</speed>
  <fix>3d</fix>
</trkpt>
<trkpt lat="40.0713681" lon="-105.2299005">
  <ele>1583.1</ele>
  <time>2026-08-28T17:52:14Z</time>
  <course>257.8</course>
  <speed>2.9426858479966906</speed>
  <fix>3d</fix>
</trkpt>
<trkpt lat="40.0713693" lon="-105.2298926">
  <ele>1583.0</ele>
  <time>2026-08-28T17:52:14Z</time>
  <course>258.35</course>
  <speed>2.92</speed>
  <fix>3d</fix>
</trkpt>
<trkpt lat="40.0713675" lon="-105.2299038">
  <ele>1583.09</ele>
  <time>2026-08-28T17:52:14Z</time>
  <course>257.17</course>
  <speed>2.939727878562912</speed>
  <fix>3d</fix>
</trkpt>
<trkpt lat="40.0713693" lon="-105.2298926">
  <ele>1583.0</ele>
  <time>2026-08-28T17:52:14Z</time>
  <course>258.35</course>
  <speed>2.92</speed>
  <fix>3d</fix>
</trkpt>
<trkpt lat="40.0713669" lon="-105.2299072">
  <ele>1583.09</ele>
  <time>2026-08-28T17:52:14Z</time>
  <course>256.54</course>
  <speed>2.946811836544709</speed>
  <fix>3d</fix>
</trkpt>
<trkpt lat="40.0713681" lon="-105.2298994">
  <ele>1583.0</ele>
  <time>2026-08-28T17:52:14Z</time>
  <course>257.07</course>
  <speed>2.94</speed>
  <fix>3d</fix>
</trkpt>
<trkpt lat="40.0713662" lon="-105.2299105">
  <ele>1583.09</ele>
  <time>2026-08-28T17:52:14Z</time>
  <course>255.92</course>
  <speed>2.9541834743292434</speed>
  <fix>3d</fix>
</trkpt>
<trkpt lat="40.0713681" lon="-105.2298994">
  <ele>1583.0</ele>
  <time>2026-08-28T17:52:14Z</time>
  <course>257.07</course>
  <speed>2.94</speed>
  <fix>3d</fix>
</trkpt>
<trkpt lat="40.0713655" lon="-105.2299138">
  <ele>1583.09</ele>
  <time>2026-08-28T17:52:14Z</time>
  <course>255.29</course>
  <speed>2.9644561052577587</speed>
  <fix>3d</fix>
</trkpt>
<trkpt lat="40.0713669" lon="-105.2299061">
  <ele>1583.0</ele>
  <time>2026-08-28T17:52:14Z</time>
  <course>255.81</course>
  <speed>2.96</speed>
  <fix>3d</fix>
</trkpt>
<trkpt lat="40.0713648" lon="-105.2299172">
  <ele>1583.09</ele>
  <time>2026-08-28T17:52:14Z</time>
  <course>254.68</course>
  <speed>2.962870230030333</speed>
  <fix>3d</fix>
</trkpt>
<trkpt lat="40.0713669" lon="-105.2299061">
  <ele>1583.0</ele>
  <time>2026-08-28T17:52:14Z</time>
  <course>255.81</course>
  <speed>2.96</speed>
  <fix>3d</fix>
</trkpt>
<trkpt lat="40.071364" lon="-105.2299205">
  <ele>1583.09</ele>
  <time>2026-08-28T17:52:14Z</time>
  <course>254.06</course>
  <speed>2.961621177666043</speed>
  <fix>3d</fix>
</trkpt>
<trkpt lat="40.0713656" lon="-105.2299129">
  <ele>1583.0</ele>
  <time>2026-08-28T17:52:14Z</time>
  <course>254.56</course>
  <speed>2.97</speed>
  <fix>3d</fix>
</trkpt>
<trkpt lat="40.0713633" lon="-105.2299238">
  <ele>1583.09</ele>
  <time>2026-08-28T17:52:14Z</time>
  <course>253.45</course>
  <speed>2.970269348055829</speed>
  <fix>3d</fix>
</trkpt>
<trkpt lat="40.071364" lon="-105.2299196">
  <ele>1583.0</ele>
  <time>2026-08-28T17:52:14Z</time>
  <course>253.32</course>
  <speed>2.98</speed>
  <fix>3d</fix>
</trkpt>
<trkpt lat="40.0713624" lon="-105.2299272">
  <ele>1583.09</ele>
  <time>2026-08-28T17:52:14Z</time>
  <course>252.84</course>
  <speed>2.969663280575763</speed>
  <fix>3d</fix>
</trkpt>
<trkpt lat="40.071364" lon="-105.2299196">
  <ele>1583.0</ele>
  <time>2026-08-28T17:52:14Z</time>
  <course>253.32</course>
  <speed>2.98</speed>
  <fix>3d</fix>
</trkpt>
<trkpt lat="40.0713616" lon="-105.2299305">
  <ele>1583.09</ele>
  <time>2026-08-28T17:52:14Z</time>
  <course>252.23</course>
  <speed>2.9788924116187885</speed>
  <fix>3d</fix>
</trkpt>
<trkpt lat="40.0713625" lon="-105.2299263">
  <ele>1583.0</ele>
  <time>2026-08-28T17:52:14Z</time>
  <course>252.08</course>
  <speed>2.99</speed>
  <fix>3d</fix>
</trkpt>
<trkpt lat="40.0713607" lon="-105.2299338">
  <ele>1583.09</ele>
  <time>2026-08-28T17:52:14Z</time>
  <course>251.62</course>
  <speed>2.978925980953538</speed>
  <fix>3d</fix>
</trkpt>
<trkpt lat="40.0713625" lon="-105.2299263">
  <ele>1583.0</ele>
  <time>2026-08-28T17:52:14Z</time>
  <course>252.08</course>
  <speed>2.99</speed>
  <fix>3d</fix>
</trkpt>
<trkpt lat="40.0713598" lon="-105.2299371">
  <ele>1583.09</ele>
  <time>2026-08-28T17:52:14Z</time>
  <course>251.0</course>
  <speed>2.979295218671691</speed>
  <fix>3d</fix>
</trkpt>
<trkpt lat="40.0713607" lon="-105.2299329">
  <ele>1583.0</ele>
  <time>2026-08-28T17:52:14Z</time>
  <course>250.84</course>
  <speed>2.99</speed>
  <fix>3d</fix>
</trkpt>
<trkpt lat="40.0713589" lon="-105.2299405">
  <ele>1583.09</ele>
  <time>2026-08-28T17:52:14Z</time>
  <course>250.38</course>
  <speed>2.9893979326948097</speed>
  <fix>3d</fix>
</trkpt>
<trkpt lat="40.0713607" lon="-105.2299329">
  <ele>1583.0</ele>
  <time>2026-08-28T17:52:14Z</time>
  <course>250.84</course>
  <speed>2.99</speed>
  <fix>3d</fix>
</trkpt>
<trkpt lat="40.0713579" lon="-105.2299438">
  <ele>1583.09</ele>
  <time>2026-08-28T17:52:14Z</time>
  <course>249.75</course>
  <speed>2.9904013108611363</speed>
  <fix>3d</fix>
</trkpt>
<trkpt lat="40.0713589" lon="-105.2299396">
  <ele>1583.0</ele>
  <time>2026-08-28T17:52:14Z</time>
  <course>249.6</course>
  <speed>3.0</speed>
  <fix>3d</fix>
</trkpt>
<trkpt lat="40.0713569" lon="-105.2299471">
  <ele>1583.1</ele>
  <time>2026-08-28T17:52:14Z</time>
  <course>249.12</course>
  <speed>2.9953630831670472</speed>
  <fix>3d</fix>
</trkpt>
<trkpt lat="40.0713589" lon="-105.2299396">
  <ele>1583.0</ele>
  <time>2026-08-28T17:52:14Z</time>
  <course>249.6</course>
  <speed>3.0</speed>
  <fix>3d</fix>
</trkpt>
<trkpt lat="40.0713559" lon="-105.2299504">
  <ele>1583.1</ele>
  <time>2026-08-28T17:52:14Z</time>
  <course>248.49</course>
  <speed>2.997131962393381</speed>
  <fix>3d</fix>
</trkpt>
<trkpt lat="40.071357" lon="-105.2299462">
  <ele>1583.0</ele>
  <time>2026-08-28T17:52:14Z</time>
  <course>248.36</course>
  <speed>3.0</speed>
  <fix>3d</fix>
</trkpt>
<trkpt lat="40.0713548" lon="-105.2299537">
  <ele>1583.1</ele>
  <time>2026-08-28T17:52:14Z</time>
  <course>247.86</course>
  <speed>2.9992332353453275</speed>
  <fix>3d</fix>
</trkpt>
<trkpt lat="40.071357" lon="-105.2299462">
  <ele>1583.0</ele>
  <time>2026-08-28T17:52:14Z</time>
  <course>248.36</course>
  <speed>3.0</speed>
  <fix>3d</fix>
</trkpt>
<trkpt lat="40.0713538" lon="-105.229957">
  <ele>1583.1</ele>
  <time>2026-08-28T17:52:14Z</time>
  <course>247.23</course>
  <speed>2.9924738929521175</speed>
  <fix>3d</fix>
</trkpt>
<trkpt lat="40.0713549" lon="-105.2299527">
  <ele>1583.0</ele>
  <time>2026-08-28T17:52:14Z</time>
  <course>247.11</course>
  <speed>3.0</speed>
  <fix>3d</fix>
</trkpt>
<trkpt lat="40.0713526" lon="-105.2299602">
  <ele>1583.11</ele>
  <time>2026-08-28T17:52:14Z</time>
  <course>246.61</course>
  <speed>2.995279619668254</speed>
  <fix>3d</fix>
</trkpt>
<trkpt lat="40.0713549" lon="-105.2299527">
  <ele>1583.0</ele>
  <time>2026-08-28T17:52:14Z</time>
  <course>247.11</course>
  <speed>3.0</speed>
  <fix>3d</fix>
</trkpt>
<trkpt lat="40.0713515" lon="-105.2299635">
  <ele>1583.11</ele>
  <time>2026-08-28T17:52:14Z</time>
  <course>245.99</course>
  <speed>2.9984162486219286</speed>
  <fix>3d</fix>
</trkpt>
<trkpt lat="40.0713528" lon="-105.2299592">
  <ele>1583.0</ele>
  <time>2026-08-28T17:52:14Z</time>
  <course>245.86</course>
  <speed>3.0</speed>
  <fix>3d</fix>
</trkpt>
<trkpt lat="40.0713504" lon="-105.2299667">
  <ele>1583.11</ele>
  <time>2026-08-28T17:52:14Z</time>
  <course>245.37</course>
  <speed>2.992824752637548</speed>
  <fix>3d</fix>
</trkpt>
<trkpt lat="40.0713528" lon="-105.2299592">
  <ele>1583.0</ele>
  <time>2026-08-28T17:52:14Z</time>
  <course>245.86</course>
  <speed>3.0</speed>
  <fix>3d</fix>
</trkpt>
<trkpt lat="40.0713492" lon="-105.2299699">
  <ele>1583.1</ele>
  <time>2026-08-28T17:52:14Z</time>
  <course>244.75</course>
  <speed>2.99666481275434</speed>
  <fix>3d</fix>
</trkpt>
<trkpt lat="40.0713528" lon="-105.2299592">
  <ele>1583.0</ele>
  <time>2026-08-28T17:52:14Z</time>
  <course>245.86</course>
  <speed>3.0</speed>
  <fix>3d</fix>
</trkpt>
<trkpt lat="40.071348" lon="-105.229973">
  <ele>1583.1</ele>
  <time>2026-08-28T17:52:14Z</time>
  <course>244.13</course>
  <speed>2.9918723234790616</speed>
  <fix>3d</fix>
</trkpt>
<trkpt lat="40.0713505" lon="-105.2299655">
  <ele>1583.0</ele>
  <time>2026-08-28T17:52:14Z</time>
  <course>244.6</course>
  <speed>3.0</speed>
  <fix>3d</fix>
</trkpt>
<trkpt lat="40.0713467" lon="-105.2299761">
  <ele>1583.1</ele>
  <time>2026-08-28T17:52:14Z</time>
  <course>243.51</course>
  <speed>2.9293343953874573</speed>
  <fix>3d</fix>
</trkpt>
<trkpt lat="40.0713505" lon="-105.2299655">
  <ele>1583.0</ele>
  <time>2026-08-28T17:52:14Z</time>
  <course>244.6</course>
  <speed>3.0</speed>
  <fix>3d</fix>
</trkpt>
<trkpt lat="40.0713455" lon="-105.2299791">
  <ele>1583.1</ele>
  <time>2026-08-28T17:52:14Z</time>
  <course>242.88</course>
  <speed>2.813574239290657</speed>
  <fix>3d</fix>
</trkpt>
<trkpt lat="40.0713481" lon="-105.2299719">
  <ele>1583.0</ele>
  <time>2026-08-28T17:52:14Z</time>
  <course>243.35</course>
  <speed>2.97</speed>
  <fix>3d</fix>
</trkpt>
<trkpt lat="40.0713444" lon="-105.2299819">
  <ele>1583.09</ele>
  <time>2026-08-28T17:52:14Z</time>
  <course>242.24</course>
  <speed>2.653639010867906</speed>
  <fix>3d</fix>
</trkpt>
<trkpt lat="40.0713481" lon="-105.2299719">
  <ele>1583.0</ele>
  <time>2026-08-28T17:52:14Z</time>
  <course>243.35</course>
  <speed>2.97</speed>
  <fix>3d</fix>
</trkpt>
<trkpt lat="40.0713432" lon="-105.2299845">
  <ele>1583.09</ele>
  <time>2026-08-28T17:52:14Z</time>
  <course>241.59</course>
  <speed>2.4622144504490264</speed>
  <fix>3d</fix>
</trkpt>
<trkpt lat="40.0713457" lon="-105.229978">
  <ele>1583.0</ele>
  <time>2026-08-28T17:52:14Z</time>
  <course>242.11</course>
  <speed>2.81</speed>
  <fix>3d</fix>
</trkpt>
<trkpt lat="40.0713422" lon="-105.2299868">
  <ele>1583.09</ele>
  <time>2026-08-28T17:52:14Z</time>
  <course>240.93</course>
  <speed>2.262410219213129</speed>
  <fix>3d</fix>
</trkpt>
<trkpt lat="40.0713435" lon="-105.2299835">
  <ele>1583.0</ele>
  <time>2026-08-28T17:52:14Z</time>
  <course>240.88</course>
  <speed>2.48</speed>
  <fix>3d</fix>
</trkpt>
<trkpt lat="40.0713412" lon="-105.229989">
  <ele>1583.09</ele>
  <time>2026-08-28T17:52:14Z</time>
  <course>240.28</course>
  <speed>2.0580087463370997</speed>
  <fix>3d</fix>
</trkpt>
<trkpt lat="40.0713435" lon="-105.2299835">
  <ele>1583.0</ele>
  <time>2026-08-28T17:52:14Z</time>
  <course>240.88</course>
  <speed>2.48</speed>
  <fix>3d</fix>
</trkpt>
<trkpt lat="40.0713403" lon="-105.2299909">
  <ele>1583.09</ele>
  <time>2026-08-28T17:52:14Z</time>
  <course>239.62</course>
  <speed>1.845480967119412</speed>
  <fix>3d</fix>
</trkpt>
<trkpt lat="40.0713414" lon="-105.2299881">
  <ele>1583.0</ele>
  <time>2026-08-28T17:52:14Z</time>
  <course>239.66</course>
  <speed>2.09</speed>
  <fix>3d</fix>
</trkpt>
<trkpt lat="40.0713395" lon="-105.2299926">
  <ele>1583.1</ele>
  <time>2026-08-28T17:52:14Z</time>
  <course>238.96</course>
  <speed>1.6451443705644804</speed>
  <fix>3d</fix>
</trkpt>
<trkpt lat="40.0713414" lon="-105.2299881">
  <ele>1583.0</ele>
  <time>2026-08-28T17:52:14Z</time>
  <course>239.66</course>
  <speed>2.09</speed>
  <fix>3d</fix>
</trkpt>
<trkpt lat="40.0713387" lon="-105.2299941">
  <ele>1583.1</ele>
  <time>2026-08-28T17:52:14Z</time>
  <course>238.3</course>
  <speed>1.436697602141801</speed>
  <fix>3d</fix>
</trkpt>
<trkpt lat="40.0713396" lon="-105.229992">
  <ele>1583.0</ele>
  <time>2026-08-28T17:52:14Z</time>
  <course>238.48</course>
  <speed>1.68</speed>
  <fix>3d</fix>
</trkpt>
<trkpt lat="40.071338" lon="-105.2299954">
  <ele>1583.1</ele>
  <time>2026-08-28T17:52:14Z</time>
  <course>237.64</course>
  <speed>1.2453513560437472</speed>
  <fix>3d</fix>
</trkpt>
<trkpt lat="40.0713396" lon="-105.229992">
  <ele>1583.0</ele>
  <time>2026-08-28T17:52:14Z</time>
  <course>238.48</course>
  <speed>1.68</speed>
  <fix>3d</fix>
</trkpt>
<trkpt lat="40.0713374" lon="-105.2299965">
  <ele>1583.1</ele>
  <time>2026-08-28T17:52:14Z</time>
  <course>236.98</course>
  <speed>1.0625441167311596</speed>
  <fix>3d</fix>
</trkpt>
<trkpt lat="40.0713383" lon="-105.2299949">
  <ele>1583.0</ele>
  <time>2026-08-28T17:52:14Z</time>
  <course>237.35</course>
  <speed>1.29</speed>
  <fix>3d</fix>
</trkpt>
<trkpt lat="40.0713369" lon="-105.2299975">
  <ele>1583.1</ele>
  <time>2026-08-28T17:52:14Z</time>
  <course>236.32</course>
  <speed>0.9160785992479029</speed>
  <fix>3d</fix>
</trkpt>
<trkpt lat="40.0713383" lon="-105.2299949">
  <ele>1583.0</ele>
  <time>2026-08-28T17:52:14Z</time>
  <course>237.35</course>
  <speed>1.29</speed>
  <fix>3d</fix>
</trkpt>
<trkpt lat="40.0713365" lon="-105.2299983">
  <ele>1583.1</ele>
  <time>2026-08-28T17:52:14Z</time>
  <course>235.67</course>
  <speed>0.8220097323024831</speed>
  <fix>3d</fix>
</trkpt>
<trkpt lat="40.0713372" lon="-105.2299971">
  <ele>1583.0</ele>
  <time>2026-08-28T17:52:14Z</time>
  <course>236.25</course>
  <speed>0.99</speed>
  <fix>3d</fix>
</trkpt>
<trkpt lat="40.0713361" lon="-105.229999">
  <ele>1583.1</ele>
  <time>2026-08-28T17:52:14Z</time>
  <course>235.02</course>
  <speed>0.756042326857432</speed>
  <fix>3d</fix>
</trkpt>
<trkpt lat="40.0713372" lon="-105.2299971">
  <ele>1583.0</ele>
  <time>2026-08-28T17:52:14Z</time>
  <course>236.25</course>
  <speed>0.99</speed>
  <fix>3d</fix>
</trkpt>
<trkpt lat="40.0713357" lon="-105.2299997">
  <ele>1583.11</ele>
  <time>2026-08-28T17:52:14Z</time>
  <course>234.38</course>
  <speed>0.7200694410957876</speed>
  <fix>3d</fix>
</trkpt>
<trkpt lat="40.0713363" lon="-105.2299989">
  <ele>1583.0</ele>
  <time>2026-08-28T17:52:14Z</time>
  <course>235.12</course>
  <speed>0.83</speed>
  <fix>3d</fix>
</trkpt>
<trkpt lat="40.0713353" lon="-105.2300004">
  <ele>1583.11</ele>
  <time>2026-08-28T17:52:14Z</time>
  <course>233.75</course>
  <speed>0.7043436661176133</speed>
  <fix>3d</fix>
</trkpt>
<trkpt lat="40.0713363" lon="-105.2299989">
  <ele>1583.0</ele>
  <time>2026-08-28T17:52:14Z</time>
  <course>235.12</course>
  <speed>0.83</speed>
  <fix>3d</fix>
</trkpt>
<trkpt lat="40.0713349" lon="-105.2300011">
  <ele>1583.11</ele>
  <time>2026-08-28T17:52:14Z</time>
  <course>233.13</course>
  <speed>0.7184010022264724</speed>
  <fix>3d</fix>
</trkpt>
<trkpt lat="40.0713354" lon="-105.2300004">
  <ele>1583.0</ele>
  <time>2026-08-28T17:52:14Z</time>
  <course>233.9</course>
  <speed>0.78</speed>
  <fix>3d</fix>
</trkpt>
<trkpt lat="40.0713345" lon="-105.2300018">
  <ele>1583.1</ele>
  <time>2026-08-28T17:52:14Z</time>
  <course>232.51</course>
  <speed>0.7387827826905551</speed>
  <fix>3d</fix>
</trkpt>
<trkpt lat="40.0713354" lon="-105.2300004">
  <ele>1583.0</ele>
  <time>2026-08-28T17:52:14Z</time>
  <course>233.9</course>
  <speed>0.78</speed>
  <fix>3d</fix>
</trkpt>
<trkpt lat="40.071334" lon="-105.2300025">
  <ele>1583.1</ele>
  <time>2026-08-28T17:52:14Z</time>
  <course>231.91</course>
  <speed>0.7669419795525605</speed>
  <fix>3d</fix>
</trkpt>
<trkpt lat="40.0713354" lon="-105.2300004">
  <ele>1583.0</ele>
  <time>2026-08-28T17:52:14Z</time>
  <course>233.9</course>
  <speed>0.78</speed>
  <fix>3d</fix>
</trkpt>
<trkpt lat="40.0713336" lon="-105.2300032">
  <ele>1583.1</ele>
  <time>2026-08-28T17:52:14Z</time>
  <course>231.31</course>
  <speed>0.8015609770940699</speed>
  <fix>3d</fix>
</trkpt>
<trkpt lat="40.0713346" lon="-105.2300019">
  <ele>1583.0</ele>
  <time>2026-08-28T17:52:14Z</time>
  <course>232.6</course>
  <speed>0.81</speed>
  <fix>3d</fix>
</trkpt>
<trkpt lat="40.0713331" lon="-105.230004">
  <ele>1583.1</ele>
  <time>2026-08-28T17:52:14Z</time>
  <course>230.72</course>
  <speed>0.8373768566183328</speed>
  <fix>3d</fix>
</trkpt>
<trkpt lat="40.0713346" lon="-105.2300019">
  <ele>1583.0</ele>
  <time>2026-08-28T17:52:14Z</time>
  <course>232.6</course>
  <speed>0.81</speed>
  <fix>3d</fix>
</trkpt>
<trkpt lat="40.0713326" lon="-105.2300048">
  <ele>1583.11</ele>
  <time>2026-08-28T17:52:14Z</time>
  <course>230.14</course>
  <speed>0.872066511224918</speed>
  <fix>3d</fix>
</trkpt>
<trkpt lat="40.0713336" lon="-105.2300035">
  <ele>1583.0</ele>
  <time>2026-08-28T17:52:14Z</time>
  <course>231.31</course>
  <speed>0.87</speed>
  <fix>3d</fix>
</trkpt>
<trkpt lat="40.0713321" lon="-105.2300057">
  <ele>1583.11</ele>
  <time>2026-08-28T17:52:14Z</time>
  <course>229.57</course>
  <speed>0.8927485648266257</speed>
  <fix>3d</fix>
</trkpt>
<trkpt lat="40.0713336" lon="-105.2300035">
  <ele>1583.0</ele>
  <time>2026-08-28T17:52:14Z</time>
  <course>231.31</course>
  <speed>0.87</speed>
  <fix>3d</fix>
</trkpt>
<trkpt lat="40.0713315" lon="-105.2300065">
  <ele>1583.11</ele>
  <time>2026-08-28T17:52:14Z</time>
  <course>229.01</course>
  <speed>0.9209777413162601</speed>
  <fix>3d</fix>
</trkpt>
<trkpt lat="40.0713326" lon="-105.2300051">
  <ele>1583.0</ele>
  <time>2026-08-28T17:52:14Z</time>
  <course>230.06</course>
  <speed>0.93</speed>
  <fix>3d</fix>
</trkpt>
<trkpt lat="40.0713309" lon="-105.2300074">
  <ele>1583.11</ele>
  <time>2026-08-28T17:52:14Z</time>
  <course>228.46</course>
  <speed>0.9276313923105448</speed>
  <fix>3d</fix>
</trkpt>
<trkpt lat="40.0713326" lon="-105.2300051">
  <ele>1583.0</ele>
  <time>2026-08-28T17:52:14Z</time>
  <course>230.06</course>
  <speed>0.93</speed>
  <fix>3d</fix>
</trkpt>
<trkpt lat="40.0713304" lon="-105.2300083">
  <ele>1583.11</ele>
  <time>2026-08-28T17:52:14Z</time>
  <course>227.91</course>
  <speed>0.94847245611035</speed>
  <fix>3d</fix>
</trkpt>
<trkpt lat="40.0713315" lon="-105.2300068">
  <ele>1583.0</ele>
  <time>2026-08-28T17:52:14Z</time>
  <course>228.87</course>
  <speed>0.98</speed>
  <fix>3d</fix>
</trkpt>
<trkpt lat="40.0713298" lon="-105.2300091">
  <ele>1583.11</ele>
  <time>2026-08-28T17:52:14Z</time>
  <course>227.37</course>
  <speed>0.9411163583744573</speed>
  <fix>3d</fix>
</trkpt>
<trkpt lat="40.0713303" lon="-105.2300085">
  <ele>1583.0</ele>
  <time>2026-08-28T17:52:14Z</time>
  <course>227.74</course>
  <speed>1.0</speed>
  <fix>3d</fix>
</trkpt>
<trkpt lat="40.0713291" lon="-105.23001">
  <ele>1583.11</ele>
  <time>2026-08-28T17:52:14Z</time>
  <course>226.84</course>
  <speed>0.9479451460923254</speed>
  <fix>3d</fix>
</trkpt>
<trkpt lat="40.0713303" lon="-105.2300085">
  <ele>1583.0</ele>
  <time>2026-08-28T17:52:14Z</time>
  <course>227.74</course>
  <speed>1.0</speed>
  <fix>3d</fix>
</trkpt>
<trkpt lat="40.0713285" lon="-105.2300109">
  <ele>1583.11</ele>
  <time>2026-08-28T17:52:14Z</time>
  <course>226.32</course>
  <speed>0.9406912352095134</speed>
  <fix>3d</fix>
</trkpt>
<trkpt lat="40.0713291" lon="-105.2300103">
  <ele>1583.0</ele>
  <time>2026-08-28T17:52:14Z</time>
  <course>226.65</course>
  <speed>1.0</speed>
  <fix>3d</fix>
</trkpt>
<trkpt lat="40.0713279" lon="-105.2300117">
  <ele>1583.11</ele>
  <time>2026-08-28T17:52:14Z</time>
  <course>225.8</course>
  <speed>0.9334880824091971</speed>
  <fix>3d</fix>
</trkpt>
<trkpt lat="40.0713291" lon="-105.2300103">
  <ele>1583.0</ele>
  <time>2026-08-28T17:52:14Z</time>
  <course>226.65</course>
  <speed>1.0</speed>
  <fix>3d</fix>
</trkpt>
<trkpt lat="40.0713273" lon="-105.2300126">
  <ele>1583.11</ele>
  <time>2026-08-28T17:52:14Z</time>
  <course>225.3</course>
  <speed>0.9193475947648964</speed>
  <fix>3d</fix>
</trkpt>
<trkpt lat="40.0713278" lon="-105.230012">
  <ele>1583.0</ele>
  <time>2026-08-28T17:52:14Z</time>
  <course>225.62</course>
  <speed>0.99</speed>
  <fix>3d</fix>
</trkpt>
<trkpt lat="40.0713267" lon="-105.2300134">
  <ele>1583.11</ele>
  <time>2026-08-28T17:52:14Z</time>
  <course>224.8</course>
  <speed>0.9050966799187808</speed>
  <fix>3d</fix>
</trkpt>
<trkpt lat="40.0713278" lon="-105.230012">
  <ele>1583.0</ele>
  <time>2026-08-28T17:52:14Z</time>
  <course>225.62</course>
  <speed>0.99</speed>
  <fix>3d</fix>
</trkpt>
<trkpt lat="40.0713261" lon="-105.2300142">
  <ele>1583.11</ele>
  <time>2026-08-28T17:52:14Z</time>
  <course>224.3</course>
  <speed>0.8909545442950498</speed>
  <fix>3d</fix>
</trkpt>
<trkpt lat="40.0713266" lon="-105.2300137">
  <ele>1583.0</ele>
  <time>2026-08-28T17:52:14Z</time>
  <course>224.63</course>
  <speed>0.96</speed>
  <fix>3d</fix>
</trkpt>
<trkpt lat="40.0713255" lon="-105.230015">
  <ele>1583.1</ele>
  <time>2026-08-28T17:52:14Z</time>
  <course>223.81</course>
  <speed>0.8697700845625813</speed>
  <fix>3d</fix>
</trkpt>
<trkpt lat="40.0713266" lon="-105.2300137">
  <ele>1583.0</ele>
  <time>2026-08-28T17:52:14Z</time>
  <course>224.63</course>
  <speed>0.96</speed>
  <fix>3d</fix>
</trkpt>
<trkpt lat="40.0713249" lon="-105.2300158">
  <ele>1583.1</ele>
  <time>2026-08-28T17:52:14Z</time>
  <course>223.34</course>
  <speed>0.8486459803710851</speed>
  <fix>3d</fix>
</trkpt>
<trkpt lat="40.0713254" lon="-105.2300152">
  <ele>1583.0</ele>
  <time>2026-08-28T17:52:14Z</time>
  <course>223.69</course>
  <speed>0.92</speed>
  <fix>3d</fix>
</trkpt>
<trkpt lat="40.0713243" lon="-105.2300165">
  <ele>1583.1</ele>
  <time>2026-08-28T17:52:14Z</time>
  <course>222.87</course>
  <speed>0.8345058418010026</speed>
  <fix>3d</fix>
</trkpt>
<trkpt lat="40.0713254" lon="-105.2300152">
  <ele>1583.0</ele>
  <time>2026-08-28T17:52:14Z</time>
  <course>223.69</course>
  <speed>0.92</speed>
  <fix>3d</fix>
</trkpt>
<trkpt lat="40.0713238" lon="-105.2300172">
  <ele>1583.1</ele>
  <time>2026-08-28T17:52:14Z</time>
  <course>222.41</course>
  <speed>0.8134494452638098</speed>
  <fix>3d</fix>
</trkpt>
<trkpt lat="40.0713242" lon="-105.2300166">
  <ele>1583.0</ele>
  <time>2026-08-28T17:52:14Z</time>
  <course>222.8</course>
  <speed>0.88</speed>
  <fix>3d</fix>
</trkpt>
<trkpt lat="40.0713232" lon="-105.2300179">
  <ele>1583.1</ele>
  <time>2026-08-28T17:52:14Z</time>
  <course>221.95</course>
  <speed>0.7993122043357026</speed>
  <fix>3d</fix>
</trkpt>
<trkpt lat="40.0713242" lon="-105.2300166">
  <ele>1583.0</ele>
  <time>2026-08-28T17:52:14Z</time>
  <course>222.8</course>
  <speed>0.88</speed>
  <fix>3d</fix>
</trkpt>
<trkpt lat="40.0713226" lon="-105.2300186">
  <ele>1583.1</ele>
  <time>2026-08-28T17:52:14Z</time>
  <course>221.51</course>
  <speed>0.7783315488916018</speed>
  <fix>3d</fix>
</trkpt>
<trkpt lat="40.071323" lon="-105.230018">
  <ele>1583.0</ele>
  <time>2026-08-28T17:52:14Z</time>
  <course>221.95</course>
  <speed>0.85</speed>
  <fix>3d</fix>
</trkpt>
<trkpt lat="40.0713221" lon="-105.2300193">
  <ele>1583.09</ele>
  <time>2026-08-28T17:52:14Z</time>
  <course>221.08</course>
  <speed>0.764198926981712</speed>
  <fix>3d</fix>
</trkpt>
<trkpt lat="40.071323" lon="-105.230018">
  <ele>1583.0</ele>
  <time>2026-08-28T17:52:14Z</time>
  <course>221.95</course>
  <speed>0.85</speed>
  <fix>3d</fix>
</trkpt>
<trkpt lat="40.0713215" lon="-105.2300199">
  <ele>1583.09</ele>
  <time>2026-08-28T17:52:14Z</time>
  <course>220.65</course>
  <speed>0.750066663703967</speed>
  <fix>3d</fix>
</trkpt>
<trkpt lat="40.071323" lon="-105.230018">
  <ele>1583.0</ele>
  <time>2026-08-28T17:52:14Z</time>
  <course>221.95</course>
  <speed>0.85</speed>
  <fix>3d</fix>
</trkpt>
<trkpt lat="40.071321" lon="-105.2300205">
  <ele>1583.09</ele>
  <time>2026-08-28T17:52:14Z</time>
  <course>220.24</course>
  <speed>0.7433034373659253</speed>
  <fix>3d</fix>
</trkpt>
<trkpt lat="40.0713219" lon="-105.2300193">
  <ele>1583.0</ele>
  <time>2026-08-28T17:52:14Z</time>
  <course>221.14</course>
  <speed>0.81</speed>
  <fix>3d</fix>
</trkpt>
<trkpt lat="40.0713205" lon="-105.2300211">
  <ele>1583.09</ele>
  <time>2026-08-28T17:52:14Z</time>
  <course>219.84</course>
  <speed>0.7291776189653656</speed>
  <fix>3d</fix>
</trkpt>
<trkpt lat="40.0713219" lon="-105.2300193">
  <ele>1583.0</ele>
  <time>2026-08-28T17:52:14Z</time>
  <course>221.14</course>
  <speed>0.81</speed>
  <fix>3d</fix>
</trkpt>
<trkpt lat="40.07132" lon="-105.2300217">
  <ele>1583.09</ele>
  <time>2026-08-28T17:52:14Z</time>
  <course>219.45</course>
  <speed>0.7150524456289902</speed>
  <fix>3d</fix>
</trkpt>
<trkpt lat="40.0713208" lon="-105.2300205">
  <ele>1583.0</ele>
  <time>2026-08-28T17:52:14Z</time>
  <course>220.38</course>
  <speed>0.78</speed>
  <fix>3d</fix>
</trkpt>
<trkpt lat="40.0713195" lon="-105.2300223">
  <ele>1583.09</ele>
  <time>2026-08-28T17:52:14Z</time>
  <course>219.07</course>
  <speed>0.6942621983083913</speed>
  <fix>3d</fix>
</trkpt>
<trkpt lat="40.0713208" lon="-105.2300205">
  <ele>1583.0</ele>
  <time>2026-08-28T17:52:14Z</time>
  <course>220.38</course>
  <speed>0.78</speed>
  <fix>3d</fix>
</trkpt>
<trkpt lat="40.0713189" lon="-105.2300228">
  <ele>1583.09</ele>
  <time>2026-08-28T17:52:14Z</time>
  <course>218.71</course>
  <speed>0.6942621983083913</speed>
  <fix>3d</fix>
</trkpt>
<trkpt lat="40.0713197" lon="-105.2300217">
  <ele>1583.0</ele>
  <time>2026-08-28T17:52:14Z</time>
  <course>219.67</course>
  <speed>0.76</speed>
  <fix>3d</fix>
</trkpt>
<trkpt lat="40.0713184" lon="-105.2300234">
  <ele>1583.09</ele>
  <time>2026-08-28T17:52:14Z</time>
  <course>218.35</course>
  <speed>0.6801470429252781</speed>
  <fix>3d</fix>
</trkpt>
<trkpt lat="40.0713187" lon="-105.2300228">
  <ele>1583.0</ele>
  <time>2026-08-28T17:52:14Z</time>
  <course>219.0</course>
  <speed>0.73</speed>
  <fix>3d</fix>
</trkpt>
<trkpt lat="40.0713179" lon="-105.2300239">
  <ele>1583.09</ele>
  <time>2026-08-28T17:52:14Z</time>
  <course>218.01</course>
  <speed>0.6735725647619565</speed>
  <fix>3d</fix>
</trkpt>
<trkpt lat="40.0713187" lon="-105.2300228">
  <ele>1583.0</ele>
  <time>2026-08-28T17:52:14Z</time>
  <course>219.0</course>
  <speed>0.73</speed>
  <fix>3d</fix>
</trkpt>
<trkpt lat="40.0713174" lon="-105.2300244">
  <ele>1583.09</ele>
  <time>2026-08-28T17:52:14Z</time>
  <course>217.67</course>
  <speed>0.6594694837519018</speed>
  <fix>3d</fix>
</trkpt>
<trkpt lat="40.0713176" lon="-105.2300239">
  <ele>1583.0</ele>
  <time>2026-08-28T17:52:14Z</time>
  <course>218.39</course>
  <speed>0.71</speed>
  <fix>3d</fix>
</trkpt>
<trkpt lat="40.0713169" lon="-105.2300249">
  <ele>1583.09</ele>
  <time>2026-08-28T17:52:14Z</time>
  <course>217.36</course>
  <speed>0.6453681120105021</speed>
  <fix>3d</fix>
</trkpt>
<trkpt lat="40.0713176" lon="-105.2300239">
  <ele>1583.0</ele>
  <time>2026-08-28T17:52:14Z</time>
  <course>218.39</course>
  <speed>0.71</speed>
  <fix>3d</fix>
</trkpt>
<trkpt lat="40.0713164" lon="-105.2300254">
  <ele>1583.09</ele>
  <time>2026-08-28T17:52:14Z</time>
  <course>217.05</course>
  <speed>0.6389053137985315</speed>
  <fix>3d</fix>
</trkpt>
<trkpt lat="40.0713166" lon="-105.230025">
  <ele>1583.0</ele>
  <time>2026-08-28T17:52:14Z</time>
  <course>217.81</course>
  <speed>0.69</speed>
  <fix>3d</fix>
</trkpt>
<trkpt lat="40.0713159" lon="-105.2300259">
  <ele>1583.09</ele>
  <time>2026-08-28T17:52:14Z</time>
  <course>216.76</course>
  <speed>0.6248199740725323</speed>
  <fix>3d</fix>
</trkpt>
<trkpt lat="40.0713166" lon="-105.230025">
  <ele>1583.0</ele>
  <time>2026-08-28T17:52:14Z</time>
  <course>217.81</course>
  <speed>0.69</speed>
  <fix>3d</fix>
</trkpt>
<trkpt lat="40.0713155" lon="-105.2300264">
  <ele>1583.09</ele>
  <time>2026-08-28T17:52:14Z</time>
  <course>216.48</course>
  <speed>0.6171709649683789</speed>
  <fix>3d</fix>
</trkpt>
<trkpt lat="40.0713157" lon="-105.2300259">
  <ele>1583.0</ele>
  <time>2026-08-28T17:52:14Z</time>
  <course>217.29</course>
  <speed>0.67</speed>
  <fix>3d</fix>
</trkpt>
<trkpt lat="40.071315" lon="-105.2300269">
  <ele>1583.08</ele>
  <time>2026-08-28T17:52:14Z</time>
  <course>216.2</course>
  <speed>0.6107372593840988</speed>
  <fix>3d</fix>
</trkpt>
<trkpt lat="40.0713157" lon="-105.2300259">
  <ele>1583.0</ele>
  <time>2026-08-28T17:52:14Z</time>
  <course>217.29</course>
  <speed>0.67</speed>
  <fix>3d</fix>
</trkpt>
<trkpt lat="40.0713145" lon="-105.2300274">
  <ele>1583.08</ele>
  <time>2026-08-28T17:52:14Z</time>
  <course>215.95</course>
  <speed>0.5966573556070519</speed>
  <fix>3d</fix>
</trkpt>
<trkpt lat="40.0713147" lon="-105.2300268">
  <ele>1583.0</ele>
  <time>2026-08-28T17:52:14Z</time>
  <course>216.82</course>
  <speed>0.65</speed>
  <fix>3d</fix>
</trkpt>
<trkpt lat="40.0713141" lon="-105.2300278">
  <ele>1583.08</ele>
  <time>2026-08-28T17:52:14Z</time>
  <course>215.7</course>
  <speed>0.5825804665451804</speed>
  <fix>3d</fix>
</trkpt>
<trkpt lat="40.0713147" lon="-105.2300268">
  <ele>1583.0</ele>
  <time>2026-08-28T17:52:14Z</time>
  <course>216.82</course>
  <speed>0.65</speed>
  <fix>3d</fix>
</trkpt>
<trkpt lat="40.0713136" lon="-105.2300283">
  <ele>1583.08</ele>
  <time>2026-08-28T17:52:14Z</time>
  <course>215.47</course>
  <speed>0.5762811813689563</speed>
  <fix>3d</fix>
</trkpt>
<trkpt lat="40.0713138" lon="-105.2300277">
  <ele>1583.0</ele>
  <time>2026-08-28T17:52:14Z</time>
  <course>216.4</course>
  <speed>0.62</speed>
  <fix>3d</fix>
</trkpt>
<trkpt lat="40.0713132" lon="-105.2300287">
  <ele>1583.08</ele>
  <time>2026-08-28T17:52:14Z</time>
  <course>215.25</course>
  <speed>0.5685068161420758</speed>
  <fix>3d</fix>
</trkpt>
<trkpt lat="40.0713138" lon="-105.2300277">
  <ele>1583.0</ele>
  <time>2026-08-28T17:52:14Z</time>
  <course>216.4</course>
  <speed>0.62</speed>
  <fix>3d</fix>
</trkpt>
<trkpt lat="40.0713127" lon="-105.2300291">
  <ele>1583.08</ele>
  <time>2026-08-28T17:52:14Z</time>
  <course>215.05</course>
  <speed>0.5544366510251645</speed>
  <fix>3d</fix>
</trkpt>
<trkpt lat="40.0713129" lon="-105.2300286">
  <ele>1583.0</ele>
  <time>2026-08-28T17:52:14Z</time>
  <course>216.01</course>
  <speed>0.6</speed>
  <fix>3d</fix>
</trkpt>
<trkpt lat="40.0713123" lon="-105.2300295">
  <ele>1583.09</ele>
  <time>2026-08-28T17:52:14Z</time>
  <course>214.85</course>
  <speed>0.5481788029466298</speed>
  <fix>3d</fix>
</trkpt>
<trkpt lat="40.0713129" lon="-105.2300286">
  <ele>1583.0</ele>
  <time>2026-08-28T17:52:14Z</time>
  <course>216.01</course>
  <speed>0.6</speed>
  <fix>3d</fix>
</trkpt>
<trkpt lat="40.0713119" lon="-105.2300299">
  <ele>1583.09</ele>
  <time>2026-08-28T17:52:14Z</time>
  <course>214.67</course>
  <speed>0.5341348144429456</speed>
  <fix>3d</fix>
</trkpt>
<trkpt lat="40.0713129" lon="-105.2300286">
  <ele>1583.0</ele>
  <time>2026-08-28T17:52:14Z</time>
  <course>216.01</course>
  <speed>0.6</speed>
  <fix>3d</fix>
</trkpt>
<trkpt lat="40.0713114" lon="-105.2300303">
  <ele>1583.09</ele>
  <time>2026-08-28T17:52:14Z</time>
  <course>214.5</course>
  <speed>0.5263078946776306</speed>
  <fix>3d</fix>
</trkpt>
<trkpt lat="40.0713121" lon="-105.2300294">
  <ele>1583.0</ele>
  <time>2026-08-28T17:52:14Z</time>
  <course>215.67</course>
  <speed>0.58</speed>
  <fix>3d</fix>
</trkpt>
<trkpt lat="40.071311" lon="-105.2300307">
  <ele>1583.09</ele>
  <time>2026-08-28T17:52:14Z</time>
  <course>214.34</course>
  <speed>0.5200961449578337</speed>
  <fix>3d</fix>
</trkpt>
<trkpt lat="40.0713121" lon="-105.2300294">
  <ele>1583.0</ele>
  <time>2026-08-28T17:52:14Z</time>
  <course>215.67</course>
  <speed>0.58</speed>
  <fix>3d</fix>
</trkpt>
<trkpt lat="40.0713106" lon="-105.2300311">
  <ele>1583.09</ele>
  <time>2026-08-28T17:52:14Z</time>
  <course>214.19</course>
  <speed>0.5060632371551997</speed>
  <fix>3d</fix>
</trkpt>
<trkpt lat="40.0713112" lon="-105.2300301">
  <ele>1583.0</ele>
  <time>2026-08-28T17:52:14Z</time>
  <course>215.37</course>
  <speed>0.56</speed>
  <fix>3d</fix>
</trkpt>
<trkpt lat="40.0713102" lon="-105.2300314">
  <ele>1583.1</ele>
  <time>2026-08-28T17:52:14Z</time>
  <course>214.05</course>
  <speed>0.5060632371551997</speed>
  <fix>3d</fix>
</trkpt>
<trkpt lat="40.0713112" lon="-105.2300301">
  <ele>1583.0</ele>
  <time>2026-08-28T17:52:14Z</time>
  <course>215.37</course>
  <speed>0.56</speed>
  <fix>3d</fix>
</trkpt>
<trkpt lat="40.0713098" lon="-105.2300318">
  <ele>1583.1</ele>
  <time>2026-08-28T17:52:14Z</time>
  <course>213.92</course>
  <speed>0.49203658400570177</speed>
  <fix>3d</fix>
</trkpt>
<trkpt lat="40.0713104" lon="-105.230031">
  <ele>1583.0</ele>
  <time>2026-08-28T17:52:14Z</time>
  <course>215.11</course>
  <speed>0.55</speed>
  <fix>3d</fix>
</trkpt>
<trkpt lat="40.0713095" lon="-105.2300321">
  <ele>1583.1</ele>
  <time>2026-08-28T17:52:14Z</time>
  <course>213.8</course>
  <speed>0.4841487374764082</speed>
  <fix>3d</fix>
</trkpt>
<trkpt lat="40.0713096" lon="-105.2300317">
  <ele>1583.0</ele>
  <time>2026-08-28T17:52:14Z</time>
  <course>214.89</course>
  <speed>0.53</speed>
  <fix>3d</fix>
</trkpt>
<trkpt lat="40.0713091" lon="-105.2300325">
  <ele>1583.1</ele>
  <time>2026-08-28T17:52:14Z</time>
  <course>213.69</course>
  <speed>0.4780167361086848</speed>
  <fix>3d</fix>
</trkpt>
<trkpt lat="40.0713096" lon="-105.2300317">
  <ele>1583.0</ele>
  <time>2026-08-28T17:52:14Z</time>
  <course>214.89</course>
  <speed>0.53</speed>
  <fix>3d</fix>
</trkpt>
<trkpt lat="40.0713087" lon="-105.2300328">
  <ele>1583.1</ele>
  <time>2026-08-28T17:52:14Z</time>
  <course>213.59</course>
  <speed>0.47010637094172636</speed>
  <fix>3d</fix>
</trkpt>
<trkpt lat="40.0713088" lon="-105.2300324">
  <ele>1583.0</ele>
  <time>2026-08-28T17:52:14Z</time>
  <course>214.7</course>
  <speed>0.51</speed>
  <fix>3d</fix>
</trkpt>
<trkpt lat="40.0713083" lon="-105.2300332">
  <ele>1583.11</ele>
  <time>2026-08-28T17:52:14Z</time>
  <course>213.5</course>
  <speed>0.46400431032480727</speed>
  <fix>3d</fix>
</trkpt>
<trkpt lat="40.0713088" lon="-105.2300324">
  <ele>1583.0</ele>
  <time>2026-08-28T17:52:14Z</time>
  <course>214.7</course>
  <speed>0.51</speed>
  <fix>3d</fix>
</trkpt>
<trkpt lat="40.0713079" lon="-105.2300335">
  <ele>1583.11</ele>
  <time>2026-08-28T17:52:14Z</time>
  <course>213.42</course>
  <speed>0.45607017003965516</speed>
  <fix>3d</fix>
</trkpt>
<trkpt lat="40.071308" lon="-105.230033">
  <ele>1583.0</ele>
  <time>2026-08-28T17:52:14Z</time>
  <course>214.55</course>
  <speed>0.5</speed>
  <fix>3d</fix>
</trkpt>
<trkpt lat="40.0713076" lon="-105.2300338">
  <ele>1583.11</ele>
  <time>2026-08-28T17:52:14Z</time>
  <course>213.35</course>
  <speed>0.45</speed>
  <fix>3d</fix>
</trkpt>
<trkpt lat="40.071308" lon="-105.230033">
  <ele>1583.0</ele>
  <time>2026-08-28T17:52:14Z</time>
  <course>214.55</course>
  <speed>0.5</speed>
  <fix>3d</fix>
</trkpt>
<trkpt lat="40.0713072" lon="-105.2300341">
  <ele>1583.11</ele>
  <time>2026-08-28T17:52:14Z</time>
  <course>213.29</course>
  <speed>0.44204072210600687</speed>
  <fix>3d</fix>
</trkpt>
<trkpt lat="40.0713073" lon="-105.2300337">
  <ele>1583.0</ele>
  <time>2026-08-28T17:52:14Z</time>
  <course>214.44</course>
  <speed>0.48</speed>
  <fix>3d</fix>
</trkpt>
<trkpt lat="40.0713069" lon="-105.2300344">
  <ele>1583.12</ele>
  <time>2026-08-28T17:52:14Z</time>
  <course>213.18</course>
  <speed>0.41400483088968904</speed>
  <fix>3d</fix>
</trkpt>
<trkpt lat="40.0713073" lon="-105.2300337">
  <ele>1583.0</ele>
  <time>2026-08-28T17:52:14Z</time>
  <course>214.44</course>
  <speed>0.48</speed>
  <fix>3d</fix>
</trkpt>
<trkpt lat="40.0713065" lon="-105.2300347">
  <ele>1583.12</ele>
  <time>2026-08-28T17:52:14Z</time>
  <course>212.99</course>
  <speed>0.3280243893371345</speed>
  <fix>3d</fix>
</trkpt>
<trkpt lat="40.0713066" lon="-105.2300343">
  <ele>1583.0</ele>
  <time>2026-08-28T17:52:14Z</time>
  <course>214.54</course>
  <speed>0.42</speed>
  <fix>3d</fix>
</trkpt>
<trkpt lat="40.0713063" lon="-105.2300349">
  <ele>1583.12</ele>
  <time>2026-08-28T17:52:14Z</time>
  <course>212.82</course>
  <speed>0.18439088914585774</speed>
  <fix>3d</fix>
</trkpt>
<trkpt lat="40.0713066" lon="-105.2300343">
  <ele>1583.0</ele>
  <time>2026-08-28T17:52:14Z</time>
  <course>214.54</course>
  <speed>0.42</speed>
  <fix>3d</fix>
</trkpt>
<trkpt lat="40.0713062" lon="-105.230035">
  <ele>1583.12</ele>
  <time>2026-08-28T17:52:14Z</time>
  <course>212.65</course>
  <speed>0.022360679774997897</speed>
  <fix>3d</fix>
</trkpt>
<trkpt lat="40.0713061" lon="-105.2300348">
  <ele>1583.0</ele>
  <time>2026-08-28T17:52:14Z</time>
  <course>216.95</course>
  <speed>0.2</speed>
  <fix>3d</fix>
</trkpt>
<trkpt lat="40.0713063" lon="-105.2300349">
  <ele>1583.13</ele>
  <time>2026-08-28T17:52:14Z</time>
  <course>212.49</course>
  <speed>0.2102379604162864</speed>
  <fix>3d</fix>
</trkpt>
<trkpt lat="40.0713061" lon="-105.2300348">
  <ele>1583.0</ele>
  <time>2026-08-28T17:52:14Z</time>
  <course>216.95</course>
  <speed>0.2</speed>
  <fix>3d</fix>
</trkpt>
<trkpt lat="40.0713066" lon="-105.2300347">
  <ele>1583.13</ele>
  <time>2026-08-28T17:52:14Z</time>
  <course>212.34</course>
  <speed>0.442944691807002</speed>
  <fix>3d</fix>
</trkpt>
<trkpt lat="40.0713061" lon="-105.2300348">
  <ele>1583.0</ele>
  <time>2026-08-28T17:52:14Z</time>
  <course>25.93</course>
  <speed>0.18</speed>
  <fix>3d</fix>
</trkpt>
<trkpt lat="40.071307" lon="-105.2300344">
  <ele>1583.13</ele>
  <time>2026-08-28T17:52:14Z</time>
  <course>212.2</course>
  <speed>0.6449806198638839</speed>
  <fix>3d</fix>
</trkpt>
<trkpt lat="40.0713061" lon="-105.2300348">
  <ele>1583.0</ele>
  <time>2026-08-28T17:52:14Z</time>
  <course>25.93</course>
  <speed>0.18</speed>
  <fix>3d</fix>
</trkpt>
<trkpt lat="40.0713075" lon="-105.230034">
  <ele>1583.13</ele>
  <time>2026-08-28T17:52:14Z</time>
  <course>212.07</course>
  <speed>0.7702596964660685</speed>
  <fix>3d</fix>
</trkpt>
<trkpt lat="40.0713061" lon="-105.2300348">
  <ele>1583.0</ele>
  <time>2026-08-28T17:52:14Z</time>
  <course>25.93</course>
  <speed>0.18</speed>
  <fix>3d</fix>
</trkpt>
<trkpt lat="40.0713081" lon="-105.2300336">
  <ele>1583.13</ele>
  <time>2026-08-28T17:52:14Z</time>
  <course>211.95</course>
  <speed>0.8285529554590945</speed>
  <fix>3d</fix>
</trkpt>
<trkpt lat="40.0713067" lon="-105.2300344">
  <ele>1583.0</ele>
  <time>2026-08-28T17:52:14Z</time>
  <course>29.38</course>
  <speed>0.57</speed>
  <fix>3d</fix>
</trkpt>
<trkpt lat="40.0713087" lon="-105.2300331">
  <ele>1583.14</ele>
  <time>2026-08-28T17:52:14Z</time>
  <course>211.83</course>
  <speed>0.8285529554590945</speed>
  <fix>3d</fix>
</trkpt>
<trkpt lat="40.0713067" lon="-105.2300344">
  <ele>1583.0</ele>
  <time>2026-08-28T17:52:14Z</time>
  <course>29.38</course>
  <speed>0.57</speed>
  <fix>3d</fix>
</trkpt>
<trkpt lat="40.0713093" lon="-105.2300326">
  <ele>1583.14</ele>
  <time>2026-08-28T17:52:14Z</time>
  <course>211.73</course>
  <speed>0.7925906888173744</speed>
  <fix>3d</fix>
</trkpt>
<trkpt lat="40.0713078" lon="-105.2300337">
  <ele>1583.0</ele>
  <time>2026-08-28T17:52:14Z</time>
  <course>29.6</course>
  <speed>0.76</speed>
  <fix>3d</fix>
</trkpt>
<trkpt lat="40.0713099" lon="-105.2300322">
  <ele>1583.14</ele>
  <time>2026-08-28T17:52:14Z</time>
  <course>211.62</course>
  <speed>0.7294518489934754</speed>
  <fix>3d</fix>
</trkpt>
<trkpt lat="40.0713078" lon="-105.2300337">
  <ele>1583.0</ele>
  <time>2026-08-28T17:52:14Z</time>
  <course>29.6</course>
  <speed>0.76</speed>
  <fix>3d</fix>
</trkpt>
<trkpt lat="40.0713104" lon="-105.2300318">
  <ele>1583.14</ele>
  <time>2026-08-28T17:52:14Z</time>
  <course>211.53</course>
  <speed>0.6488451279003334</speed>
  <fix>3d</fix>
</trkpt>
<trkpt lat="40.071309" lon="-105.2300328">
  <ele>1583.0</ele>
  <time>2026-08-28T17:52:14Z</time>
  <course>29.34</course>
  <speed>0.74</speed>
  <fix>3d</fix>
</trkpt>
<trkpt lat="40.0713109" lon="-105.2300315">
  <ele>1583.14</ele>
  <time>2026-08-28T17:52:14Z</time>
  <course>211.44</course>
  <speed>0.5635601121442149</speed>
  <fix>3d</fix>
</trkpt>
<trkpt lat="40.071309" lon="-105.2300328">
  <ele>1583.0</ele>
  <time>2026-08-28T17:52:14Z</time>
  <course>29.34</course>
  <speed>0.74</speed>
  <fix>3d</fix>
</trkpt>
<trkpt lat="40.0713113" lon="-105.2300312">
  <ele>1583.14</ele>
  <time>2026-08-28T17:52:14Z</time>
  <course>211.35</course>
  <speed>0.4606517122512408</speed>
  <fix>3d</fix>
</trkpt>
<trkpt lat="40.07131" lon="-105.230032">
  <ele>1583.0</ele>
  <time>2026-08-28T17:52:14Z</time>
  <course>28.83</course>
  <speed>0.6</speed>
  <fix>3d</fix>
</trkpt>
<trkpt lat="40.0713116" lon="-105.230031">
  <ele>1583.15</ele>
  <time>2026-08-28T17:52:14Z</time>
  <course>211.28</course>
  <speed>0.3757658845611187</speed>
  <fix>3d</fix>
</trkpt>
<trkpt lat="40.0713108" lon="-105.2300315">
  <ele>1583.0</ele>
  <time>2026-08-28T17:52:14Z</time>
  <course>27.95</course>
  <speed>0.42</speed>
  <fix>3d</fix>
</trkpt>
<trkpt lat="40.0713118" lon="-105.2300309">
  <ele>1583.15</ele>
  <time>2026-08-28T17:52:14Z</time>
  <course>211.21</course>
  <speed>0.2823118842698621</speed>
  <fix>3d</fix>
</trkpt>
<trkpt lat="40.0713108" lon="-105.2300315">
  <ele>1583.0</ele>
  <time>2026-08-28T17:52:14Z</time>
  <course>27.95</course>
  <speed>0.42</speed>
  <fix>3d</fix>
</trkpt>
<trkpt lat="40.0713119" lon="-105.2300308">
  <ele>1583.15</ele>
  <time>2026-08-28T17:52:14Z</time>
  <course>211.15</course>
  <speed>0.20248456731316586</speed>
  <fix>3d</fix>
</trkpt>
<trkpt lat="40.0713114" lon="-105.2300311">
  <ele>1583.0</ele>
  <time>2026-08-28T17:52:14Z</time>
  <course>26.15</course>
  <speed>0.25</speed>
  <fix>3d</fix>
</trkpt>
<trkpt lat="40.071312" lon="-105.2300308">
  <ele>1583.15</ele>
  <time>2026-08-28T17:52:14Z</time>
  <course>211.1</course>
  <speed>0.13341664064126335</speed>
  <fix>3d</fix>
</trkpt>
<trkpt lat="40.0713114" lon="-105.2300311">
  <ele>1583.0</ele>
  <time>2026-08-28T17:52:14Z</time>
  <course>26.15</course>
  <speed>0.25</speed>
  <fix>3d</fix>
</trkpt>
<trkpt lat="40.0713121" lon="-105.2300308">
  <ele>1583.16</ele>
  <time>2026-08-28T17:52:14Z</time>
  <course>211.06</course>
  <speed>0.1004987562112089</speed>
  <fix>3d</fix>
</trkpt>
<trkpt lat="40.0713116" lon="-105.2300309">
  <ele>1583.0</ele>
  <time>2026-08-28T17:52:14Z</time>
  <course>21.22</course>
  <speed>0.11</speed>
  <fix>3d</fix>
</trkpt>
<trkpt lat="40.0713121" lon="-105.2300308">
  <ele>1583.16</ele>
  <time>2026-08-28T17:52:14Z</time>
  <course>211.02</course>
  <speed>0.09055385138137417</speed>
  <fix>3d</fix>
</trkpt>
<trkpt lat="40.0713116" lon="-105.2300309">
  <ele>1583.0</ele>
  <time>2026-08-28T17:52:14Z</time>
  <course>21.22</course>
  <speed>0.11</speed>
  <fix>3d</fix>
</trkpt>
<trkpt lat="40.0713122" lon="-105.2300308">
  <ele>1583.16</ele>
  <time>2026-08-28T17:52:14Z</time>
  <course>210.99</course>
  <speed>0.09</speed>
  <fix>3d</fix>
</trkpt>
<trkpt lat="40.0713118" lon="-105.2300308">
  <ele>1583.0</ele>
  <time>2026-08-28T17:52:14Z</time>
  <course>13.29</course>
  <speed>0.06</speed>
  <fix>3d</fix>
</trkpt>
<trkpt lat="40.0713122" lon="-105.2300308">
  <ele>1583.16</ele>
  <time>2026-08-28T17:52:14Z</time>
  <course>210.96</course>
  <speed>0.09</speed>
  <fix>3d</fix>
</trkpt>
<trkpt lat="40.0713118" lon="-105.2300308">
  <ele>1583.0</ele>
  <time>2026-08-28T17:52:14Z</time>
  <course>13.29</course>
  <speed>0.06</speed>
  <fix>3d</fix>
</trkpt>
<trkpt lat="40.0713123" lon="-105.2300308">
  <ele>1583.16</ele>
  <time>2026-08-28T17:52:14Z</time>
  <course>210.94</course>
  <speed>0.09</speed>
  <fix>3d</fix>
</trkpt>
<trkpt lat="40.0713119" lon="-105.2300308">
  <ele>1583.0</ele>
  <time>2026-08-28T17:52:14Z</time>
  <course>13.19</course>
  <speed>0.06</speed>
  <fix>3d</fix>
</trkpt>
<trkpt lat="40.0713123" lon="-105.2300308">
  <ele>1583.16</ele>
  <time>2026-08-28T17:52:14Z</time>
  <course>210.92</course>
  <speed>0.09</speed>
  <fix>3d</fix>
</trkpt>
<trkpt lat="40.0713119" lon="-105.2300308">
  <ele>1583.0</ele>
  <time>2026-08-28T17:52:14Z</time>
  <course>13.19</course>
  <speed>0.06</speed>
  <fix>3d</fix>
</trkpt>
<trkpt lat="40.0713124" lon="-105.2300308">
  <ele>1583.16</ele>
  <time>2026-08-28T17:52:14Z</time>
  <course>210.91</course>
  <speed>0.09</speed>
  <fix>3d</fix>
</trkpt>
<trkpt lat="40.071312" lon="-105.2300308">
  <ele>1583.0</ele>
  <time>2026-08-28T17:52:14Z</time>
  <course>13.12</course>
  <speed>0.06</speed>
  <fix>3d</fix>
</trkpt>
<trkpt lat="40.0713124" lon="-105.2300308">
  <ele>1583.16</ele>
  <time>2026-08-28T17:52:14Z</time>
  <course>210.9</course>
  <speed>0.09</speed>
  <fix>3d</fix>
</trkpt>
<trkpt lat="40.071312" lon="-105.2300308">
  <ele>1583.0</ele>
  <time>2026-08-28T17:52:14Z</time>
  <course>13.12</course>
  <speed>0.06</speed>
  <fix>3d</fix>
</trkpt>
<trkpt lat="40.0713125" lon="-105.2300308">
  <ele>1583.16</ele>
  <time>2026-08-28T17:52:14Z</time>
  <course>210.9</course>
  <speed>0.09</speed>
  <fix>3d</fix>
</trkpt>
<trkpt lat="40.0713121" lon="-105.2300308">
  <ele>1583.0</ele>
  <time>2026-08-28T17:52:14Z</time>
  <course>13.06</course>
  <speed>0.06</speed>
  <fix>3d</fix>
</trkpt>
<trkpt lat="40.0713125" lon="-105.2300308">
  <ele>1583.16</ele>
  <time>2026-08-28T17:52:14Z</time>
  <course>210.9</course>
  <speed>0.09</speed>
  <fix>3d</fix>
</trkpt>
<trkpt lat="40.0713121" lon="-105.2300308">
  <ele>1583.0</ele>
  <time>2026-08-28T17:52:14Z</time>
  <course>13.06</course>
  <speed>0.06</speed>
  <fix>3d</fix>
</trkpt>
<trkpt lat="40.0713125" lon="-105.2300308">
  <ele>1583.16</ele>
  <time>2026-08-28T17:52:14Z</time>
  <course>210.9</course>
  <speed>0.09</speed>
  <fix>3d</fix>
</trkpt>
<trkpt lat="40.0713121" lon="-105.2300308">
  <ele>1583.0</ele>
  <time>2026-08-28T17:52:14Z</time>
  <course>13.06</course>
  <speed>0.06</speed>
  <fix>3d</fix>
</trkpt>
<trkpt lat="40.0713126" lon="-105.2300308">
  <ele>1583.16</ele>
  <time>2026-08-28T17:52:14Z</time>
  <course>210.9</course>
  <speed>0.09</speed>
  <fix>3d</fix>
</trkpt>
<trkpt lat="40.0713122" lon="-105.2300308">
  <ele>1583.0</ele>
  <time>2026-08-28T17:52:14Z</time>
  <course>13.01</course>
  <speed>0.06</speed>
  <fix>3d</fix>
</trkpt>
<trkpt lat="40.0713126" lon="-105.2300308">
  <ele>1583.16</ele>
  <time>2026-08-28T17:52:14Z</time>
  <course>210.91</course>
  <speed>0.09</speed>
  <fix>3d</fix>
</trkpt>
<trkpt lat="40.0713122" lon="-105.2300308">
  <ele>1583.0</ele>
  <time>2026-08-28T17:52:14Z</time>
  <course>13.01</course>
  <speed>0.06</speed>
  <fix>3d</fix>
</trkpt>
<trkpt lat="40.0713127" lon="-105.2300308">
  <ele>1583.16</ele>
  <time>2026-08-28T17:52:14Z</time>
  <course>210.92</course>
  <speed>0.08</speed>
  <fix>3d</fix>
</trkpt>
<trkpt lat="40.0713123" lon="-105.2300307">
  <ele>1583.0</ele>
  <time>2026-08-28T17:52:14Z</time>
  <course>12.98</course>
  <speed>0.06</speed>
  <fix>3d</fix>
</trkpt>
<trkpt lat="40.0713127" lon="-105.2300308">
  <ele>1583.16</ele>
  <time>2026-08-28T17:52:14Z</time>
  <course>210.94</course>
  <speed>0.08</speed>
  <fix>3d</fix>
</trkpt>
<trkpt lat="40.0713123" lon="-105.2300307">
  <ele>1583.0</ele>
  <time>2026-08-28T17:52:14Z</time>
  <course>12.98</course>
  <speed>0.06</speed>
  <fix>3d</fix>
</trkpt>
<trkpt lat="40.0713128" lon="-105.2300308">
  <ele>1583.16</ele>
  <time>2026-08-28T17:52:14Z</time>
  <course>210.96</course>
  <speed>0.08</speed>
  <fix>3d</fix>
</trkpt>
<trkpt lat="40.0713124" lon="-105.2300307">
  <ele>1583.0</ele>
  <time>2026-08-28T17:52:14Z</time>
  <course>12.97</course>
  <speed>0.06</speed>
  <fix>3d</fix>
</trkpt>
<trkpt lat="40.0713128" lon="-105.2300308">
  <ele>1583.16</ele>
  <time>2026-08-28T17:52:14Z</time>
  <course>210.98</course>
  <speed>0.08</speed>
  <fix>3d</fix>
</trkpt>
<trkpt lat="40.0713125" lon="-105.2300307">
  <ele>1583.0</ele>
  <time>2026-08-28T17:52:14Z</time>
  <course>12.97</course>
  <speed>0.06</speed>
  <fix>3d</fix>
</trkpt>
<trkpt lat="40.0713129" lon="-105.2300308">
  <ele>1583.16</ele>
  <time>2026-08-28T17:52:14Z</time>
  <course>211.01</course>
  <speed>0.08</speed>
  <fix>3d</fix>
</trkpt>
<trkpt lat="40.0713125" lon="-105.2300307">
  <ele>1583.0</ele>
  <time>2026-08-28T17:52:14Z</time>
  <course>12.97</course>
  <speed>0.06</speed>
  <fix>3d</fix>
</trkpt>
<trkpt lat="40.0713129" lon="-105.2300307">
  <ele>1583.15</ele>
  <time>2026-08-28T17:52:14Z</time>
  <course>211.04</course>
  <speed>0.08</speed>
  <fix>3d</fix>
</trkpt>
<trkpt lat="40.0713126" lon="-105.2300306">
  <ele>1583.0</ele>
  <time>2026-08-28T17:52:14Z</time>
  <course>12.98</course>
  <speed>0.06</speed>
  <fix>3d</fix>
</trkpt>
<trkpt lat="40.071313" lon="-105.2300307">
  <ele>1583.15</ele>
  <time>2026-08-28T17:52:14Z</time>
  <course>211.07</course>
  <speed>0.08</speed>
  <fix>3d</fix>
</trkpt>
<trkpt lat="40.0713126" lon="-105.2300306">
  <ele>1583.0</ele>
  <time>2026-08-28T17:52:14Z</time>
  <course>12.98</course>
  <speed>0.06</speed>
  <fix>3d</fix>
</trkpt>
<trkpt lat="40.071313" lon="-105.2300307">
  <ele>1583.14</ele>
  <time>2026-08-28T17:52:14Z</time>
  <course>211.1</course>
  <speed>0.08</speed>
  <fix>3d</fix>
</trkpt>
<trkpt lat="40.0713127" lon="-105.2300305">
  <ele>1583.0</ele>
  <time>2026-08-28T17:52:14Z</time>
  <course>13.0</course>
  <speed>0.06</speed>
  <fix>3d</fix>
</trkpt>
<trkpt lat="40.071313" lon="-105.2300307">
  <ele>1583.14</ele>
  <time>2026-08-28T17:52:14Z</time>
  <course>211.14</course>
  <speed>0.08</speed>
  <fix>3d</fix>
</trkpt>
<trkpt lat="40.0713127" lon="-105.2300305">
  <ele>1583.0</ele>
  <time>2026-08-28T17:52:14Z</time>
  <course>13.0</course>
  <speed>0.06</speed>
  <fix>3d</fix>
</trkpt>
<trkpt lat="40.0713131" lon="-105.2300307">
  <ele>1583.14</ele>
  <time>2026-08-28T17:52:14Z</time>
  <course>211.18</course>
  <speed>0.08</speed>
  <fix>3d</fix>
</trkpt>
<trkpt lat="40.0713128" lon="-105.2300305">
  <ele>1583.0</ele>
  <time>2026-08-28T17:52:14Z</time>
  <course>13.03</course>
  <speed>0.06</speed>
  <fix>3d</fix>
</trkpt>
<trkpt lat="40.0713131" lon="-105.2300307">
  <ele>1583.13</ele>
  <time>2026-08-28T17:52:14Z</time>
  <course>211.22</course>
  <speed>0.08</speed>
  <fix>3d</fix>
</trkpt>
<trkpt lat="40.0713128" lon="-105.2300305">
  <ele>1583.0</ele>
  <time>2026-08-28T17:52:14Z</time>
  <course>13.03</course>
  <speed>0.06</speed>
  <fix>3d</fix>
</trkpt>
<trkpt lat="40.0713132" lon="-105.2300307">
  <ele>1583.13</ele>
  <time>2026-08-28T17:52:14Z</time>
  <course>211.26</course>
  <speed>0.08</speed>
  <fix>3d</fix>
</trkpt>
<trkpt lat="40.0713129" lon="-105.2300305">
  <ele>1583.0</ele>
  <time>2026-08-28T17:52:14Z</time>
  <course>13.07</course>
  <speed>0.06</speed>
  <fix>3d</fix>
</trkpt>
<trkpt lat="40.0713132" lon="-105.2300307">
  <ele>1583.13</ele>
  <time>2026-08-28T17:52:14Z</time>
  <course>211.3</course>
  <speed>0.08</speed>
  <fix>3d</fix>
</trkpt>
<trkpt lat="40.0713129" lon="-105.2300305">
  <ele>1583.0</ele>
  <time>2026-08-28T17:52:14Z</time>
  <course>13.07</course>
  <speed>0.06</speed>
  <fix>3d</fix>
</trkpt>
<trkpt lat="40.0713133" lon="-105.2300307">
  <ele>1583.13</ele>
  <time>2026-08-28T17:52:14Z</time>
  <course>211.35</course>
  <speed>0.08</speed>
  <fix>3d</fix>
</trkpt>
<trkpt lat="40.0713131" lon="-105.2300305">
  <ele>1583.0</ele>
  <time>2026-08-28T17:52:14Z</time>
  <course>13.12</course>
  <speed>0.06</speed>
  <fix>3d</fix>
</trkpt>
<trkpt lat="40.0713133" lon="-105.2300307">
  <ele>1583.13</ele>
  <time>2026-08-28T17:52:14Z</time>
  <course>211.39</course>
  <speed>0.08</speed>
  <fix>3d</fix>
</trkpt>
<trkpt lat="40.0713131" lon="-105.2300305">
  <ele>1583.0</ele>
  <time>2026-08-28T17:52:14Z</time>
  <course>13.12</course>
  <speed>0.06</speed>
  <fix>3d</fix>
</trkpt>
<trkpt lat="40.0713134" lon="-105.2300306">
  <ele>1583.14</ele>
  <time>2026-08-28T17:52:14Z</time>
  <course>211.44</course>
  <speed>0.08</speed>
  <fix>3d</fix>
</trkpt>
<trkpt lat="40.0713132" lon="-105.2300305">
  <ele>1583.0</ele>
  <time>2026-08-28T17:52:14Z</time>
  <course>13.18</course>
  <speed>0.05</speed>
  <fix>3d</fix>
</trkpt>
<trkpt lat="40.0713134" lon="-105.2300306">
  <ele>1583.14</ele>
  <time>2026-08-28T17:52:14Z</time>
  <course>211.49</course>
  <speed>0.08</speed>
  <fix>3d</fix>
</trkpt>
<trkpt lat="40.0713132" lon="-105.2300305">
  <ele>1583.0</ele>
  <time>2026-08-28T17:52:14Z</time>
  <course>13.18</course>
  <speed>0.05</speed>
  <fix>3d</fix>
</trkpt>
<trkpt lat="40.0713135" lon="-105.2300306">
  <ele>1583.13</ele>
  <time>2026-08-28T17:52:14Z</time>
  <course>211.54</course>
  <speed>0.08</speed>
  <fix>3d</fix>
</trkpt>
<trkpt lat="40.0713132" lon="-105.2300305">
  <ele>1583.0</ele>
  <time>2026-08-28T17:52:14Z</time>
  <course>13.18</course>
  <speed>0.05</speed>
  <fix>3d</fix>
</trkpt>
<trkpt lat="40.0713135" lon="-105.2300306">
  <ele>1583.13</ele>
  <time>2026-08-28T17:52:14Z</time>
  <course>211.59</course>
  <speed>0.08</speed>
  <fix>3d</fix>
</trkpt>
<trkpt lat="40.0713133" lon="-105.2300305">
  <ele>1583.0</ele>
  <time>2026-08-28T17:52:14Z</time>
  <course>13.23</course>
  <speed>0.05</speed>
  <fix>3d</fix>
</trkpt>
<trkpt lat="40.0713136" lon="-105.2300306">
  <ele>1583.13</ele>
  <time>2026-08-28T17:52:14Z</time>
  <course>211.65</course>
  <speed>0.08</speed>
  <fix>3d</fix>
</trkpt>
<trkpt lat="40.0713133" lon="-105.2300305">
  <ele>1583.0</ele>
  <time>2026-08-28T17:52:14Z</time>
  <course>13.23</course>
  <speed>0.05</speed>
  <fix>3d</fix>
</trkpt>
<trkpt lat="40.0713136" lon="-105.2300306">
  <ele>1583.13</ele>
  <time>2026-08-28T17:52:14Z</time>
  <course>211.7</course>
  <speed>0.08</speed>
  <fix>3d</fix>
</trkpt>
<trkpt lat="40.0713134" lon="-105.2300304">
  <ele>1583.0</ele>
  <time>2026-08-28T17:52:14Z</time>
  <course>13.29</course>
  <speed>0.05</speed>
  <fix>3d</fix>
</trkpt>
<trkpt lat="40.0713137" lon="-105.2300306">
  <ele>1583.12</ele>
  <time>2026-08-28T17:52:14Z</time>
  <course>211.76</course>
  <speed>0.08</speed>
  <fix>3d</fix>
</trkpt>
<trkpt lat="40.0713134" lon="-105.2300304">
  <ele>1583.0</ele>
  <time>2026-08-28T17:52:14Z</time>
  <course>13.29</course>
  <speed>0.05</speed>
  <fix>3d</fix>
</trkpt>
<trkpt lat="40.0713137" lon="-105.2300306">
  <ele>1583.12</ele>
  <time>2026-08-28T17:52:14Z</time>
  <course>211.81</course>
  <speed>0.08</speed>
  <fix>3d</fix>
</trkpt>
<trkpt lat="40.0713135" lon="-105.2300303">
  <ele>1583.0</ele>
  <time>2026-08-28T17:52:14Z</time>
  <course>13.36</course>
  <speed>0.05</speed>
  <fix>3d</fix>
</trkpt>
<trkpt lat="40.0713138" lon="-105.2300306">
  <ele>1583.12</ele>
  <time>2026-08-28T17:52:14Z</time>
  <course>211.87</course>
  <speed>0.08</speed>
  <fix>3d</fix>
</trkpt>
<trkpt lat="40.0713135" lon="-105.2300303">
  <ele>1583.0</ele>
  <time>2026-08-28T17:52:14Z</time>
  <course>13.36</course>
  <speed>0.05</speed>
  <fix>3d</fix>
</trkpt>
<trkpt lat="40.0713139" lon="-105.2300305">
  <ele>1583.12</ele>
  <time>2026-08-28T17:52:14Z</time>
  <course>211.92</course>
  <speed>0.08</speed>
  <fix>3d</fix>
</trkpt>
<trkpt lat="40.0713136" lon="-105.2300303">
  <ele>1583.0</ele>
  <time>2026-08-28T17:52:14Z</time>
  <course>13.43</course>
  <speed>0.05</speed>
  <fix>3d</fix>
</trkpt>
<trkpt lat="40.0713139" lon="-105.2300305">
  <ele>1583.12</ele>
  <time>2026-08-28T17:52:14Z</time>
  <course>211.98</course>
  <speed>0.08</speed>
  <fix>3d</fix>
</trkpt>
<trkpt lat="40.0713137" lon="-105.2300303">
  <ele>1583.0</ele>
  <time>2026-08-28T17:52:14Z</time>
  <course>13.5</course>
  <speed>0.05</speed>
  <fix>3d</fix>
</trkpt>
<trkpt lat="40.071314" lon="-105.2300305">
  <ele>1583.12</ele>
  <time>2026-08-28T17:52:14Z</time>
  <course>212.03</course>
  <speed>0.08</speed>
  <fix>3d</fix>
</trkpt>
<trkpt lat="40.0713137" lon="-105.2300303">
  <ele>1583.0</ele>
  <time>2026-08-28T17:52:14Z</time>
  <course>13.5</course>
  <speed>0.05</speed>
  <fix>3d</fix>
</trkpt>
<trkpt lat="40.071314" lon="-105.2300305">
  <ele>1583.12</ele>
  <time>2026-08-28T17:52:14Z</time>
  <course>212.09</course>
  <speed>0.08</speed>
  <fix>3d</fix>
</trkpt>
<trkpt lat="40.0713138" lon="-105.2300303">
  <ele>1583.0</ele>
  <time>2026-08-28T17:52:14Z</time>
  <course>13.56</course>
  <speed>0.05</speed>
  <fix>3d</fix>
</trkpt>
<trkpt lat="40.0713141" lon="-105.2300305">
  <ele>1583.12</ele>
  <time>2026-08-28T17:52:14Z</time>
  <course>212.14</course>
  <speed>0.08</speed>
  <fix>3d</fix>
</trkpt>
<trkpt lat="40.0713138" lon="-105.2300303">
  <ele>1583.0</ele>
  <time>2026-08-28T17:52:14Z</time>
  <course>13.56</course>
  <speed>0.05</speed>
  <fix>3d</fix>
</trkpt>
<trkpt lat="40.0713141" lon="-105.2300305">
  <ele>1583.12</ele>
  <time>2026-08-28T17:52:14Z</time>
  <course>212.19</course>
  <speed>0.08</speed>
  <fix>3d</fix>
</trkpt>
<trkpt lat="40.0713139" lon="-105.2300303">
  <ele>1583.0</ele>
  <time>2026-08-28T17:52:14Z</time>
  <course>13.63</course>
  <speed>0.05</speed>
  <fix>3d</fix>
</trkpt>
<trkpt lat="40.0713142" lon="-105.2300304">
  <ele>1583.12</ele>
  <time>2026-08-28T17:52:14Z</time>
  <course>212.25</course>
  <speed>0.08</speed>
  <fix>3d</fix>
</trkpt>
<trkpt lat="40.0713139" lon="-105.2300303">
  <ele>1583.0</ele>
  <time>2026-08-28T17:52:14Z</time>
  <course>13.63</course>
  <speed>0.05</speed>
  <fix>3d</fix>
</trkpt>
<trkpt lat="40.0713142" lon="-105.2300304">
  <ele>1583.11</ele>
  <time>2026-08-28T17:52:14Z</time>
  <course>212.3</course>
  <speed>0.08</speed>
  <fix>3d</fix>
</trkpt>
<trkpt lat="40.071314" lon="-105.2300302">
  <ele>1583.0</ele>
  <time>2026-08-28T17:52:14Z</time>
  <course>13.68</course>
  <speed>0.05</speed>
  <fix>3d</fix>
</trkpt>
<trkpt lat="40.0713143" lon="-105.2300304">
  <ele>1583.11</ele>
  <time>2026-08-28T17:52:14Z</time>
  <course>212.35</course>
  <speed>0.08</speed>
  <fix>3d</fix>
</trkpt>
<trkpt lat="40.071314" lon="-105.2300302">
  <ele>1583.0</ele>
  <time>2026-08-28T17:52:14Z</time>
  <course>13.68</course>
  <speed>0.05</speed>
  <fix>3d</fix>
</trkpt>
<trkpt lat="40.0713143" lon="-105.2300304">
  <ele>1583.11</ele>
  <time>2026-08-28T17:52:14Z</time>
  <course>212.4</course>
  <speed>0.08</speed>
  <fix>3d</fix>
</trkpt>
<trkpt lat="40.0713141" lon="-105.2300302">
  <ele>1583.0</ele>
  <time>2026-08-28T17:52:14Z</time>
  <course>13.74</course>
  <speed>0.05</speed>
  <fix>3d</fix>
</trkpt>
<trkpt lat="40.0713144" lon="-105.2300304">
  <ele>1583.11</ele>
  <time>2026-08-28T17:52:14Z</time>
  <course>212.46</course>
  <speed>0.08</speed>
  <fix>3d</fix>
</trkpt>
<trkpt lat="40.0713141" lon="-105.2300302">
  <ele>1583.0</ele>
  <time>2026-08-28T17:52:14Z</time>
  <course>13.74</course>
  <speed>0.05</speed>
  <fix>3d</fix>
</trkpt>
<trkpt lat="40.0713144" lon="-105.2300304">
  <ele>1583.11</ele>
  <time>2026-08-28T17:52:14Z</time>
  <course>212.51</course>
  <speed>0.08</speed>
  <fix>3d</fix>
</trkpt>
<trkpt lat="40.0713142" lon="-105.2300302">
  <ele>1583.0</ele>
  <time>2026-08-28T17:52:14Z</time>
  <course>13.8</course>
  <speed>0.05</speed>
  <fix>3d</fix>
</trkpt>
<trkpt lat="40.0713145" lon="-105.2300304">
  <ele>1583.11</ele>
  <time>2026-08-28T17:52:14Z</time>
  <course>212.56</course>
  <speed>0.08</speed>
  <fix>3d</fix>
</trkpt>
<trkpt lat="40.0713142" lon="-105.2300302">
  <ele>1583.0</ele>
  <time>2026-08-28T17:52:14Z</time>
  <course>13.8</course>
  <speed>0.05</speed>
  <fix>3d</fix>
</trkpt>
<trkpt lat="40.0713145" lon="-105.2300304">
  <ele>1583.12</ele>
  <time>2026-08-28T17:52:14Z</time>
  <course>212.61</course>
  <speed>0.08</speed>
  <fix>3d</fix>
</trkpt>
<trkpt lat="40.0713143" lon="-105.2300301">
  <ele>1583.0</ele>
  <time>2026-08-28T17:52:14Z</time>
  <course>13.85</course>
  <speed>0.05</speed>
  <fix>3d</fix>
</trkpt>
<trkpt lat="40.0713146" lon="-105.2300303">
  <ele>1583.12</ele>
  <time>2026-08-28T17:52:14Z</time>
  <course>212.66</course>
  <speed>0.08</speed>
  <fix>3d</fix>
</trkpt>
<trkpt lat="40.0713143" lon="-105.2300301">
  <ele>1583.0</ele>
  <time>2026-08-28T17:52:14Z</time>
  <course>13.85</course>
  <speed>0.05</speed>
  <fix>3d</fix>
</trkpt>
<trkpt lat="40.0713146" lon="-105.2300303">
  <ele>1583.12</ele>
  <time>2026-08-28T17:52:14Z</time>
  <course>212.71</course>
  <speed>0.08</speed>
  <fix>3d</fix>
</trkpt>
<trkpt lat="40.0713143" lon="-105.2300301">
  <ele>1583.0</ele>
  <time>2026-08-28T17:52:14Z</time>
  <course>13.85</course>
  <speed>0.05</speed>
  <fix>3d</fix>
</trkpt>
<trkpt lat="40.0713147" lon="-105.2300303">
  <ele>1583.12</ele>
  <time>2026-08-28T17:52:14Z</time>
  <course>212.76</course>
  <speed>0.08</speed>
  <fix>3d</fix>
</trkpt>
<trkpt lat="40.0713144" lon="-105.23003">
  <ele>1583.0</ele>
  <time>2026-08-28T17:52:14Z</time>
  <course>13.89</course>
  <speed>0.05</speed>
  <fix>3d</fix>
</trkpt>
<trkpt lat="40.0713147" lon="-105.2300303">
  <ele>1583.12</ele>
  <time>2026-08-28T17:52:14Z</time>
  <course>212.8</course>
  <speed>0.08</speed>
  <fix>3d</fix>
</trkpt>
<trkpt lat="40.0713144" lon="-105.23003">
  <ele>1583.0</ele>
  <time>2026-08-28T17:52:14Z</time>
  <course>13.89</course>
  <speed>0.05</speed>
  <fix>3d</fix>
</trkpt>
<trkpt lat="40.0713148" lon="-105.2300303">
  <ele>1583.12</ele>
  <time>2026-08-28T17:52:14Z</time>
  <course>212.85</course>
  <speed>0.08</speed>
  <fix>3d</fix>
</trkpt>
<trkpt lat="40.0713145" lon="-105.23003">
  <ele>1583.0</ele>
  <time>2026-08-28T17:52:14Z</time>
  <course>13.94</course>
  <speed>0.05</speed>
  <fix>3d</fix>
</trkpt>
<trkpt lat="40.0713148" lon="-105.2300303">
  <ele>1583.12</ele>
  <time>2026-08-28T17:52:15Z</time>
  <course>212.89</course>
  <speed>0.08</speed>
  <fix>3d</fix>
</trkpt>
<trkpt lat="40.0713145" lon="-105.23003">
  <ele>1583.0</ele>
  <time>2026-08-28T17:52:15Z</time>
  <course>13.94</course>
  <speed>0.05</speed>
  <fix>3d</fix>
</trkpt>
<trkpt lat="40.0713149" lon="-105.2300302">
  <ele>1583.12</ele>
  <time>2026-08-28T17:52:15Z</time>
  <course>212.87</course>
  <speed>0.08</speed>
  <fix>3d</fix>
</trkpt>
<trkpt lat="40.0713146" lon="-105.23003">
  <ele>1583.0</ele>
  <time>2026-08-28T17:52:15Z</time>
  <course>13.97</course>
  <speed>0.05</speed>
  <fix>3d</fix>
</trkpt>
<trkpt lat="40.0713149" lon="-105.2300302">
  <ele>1583.12</ele>
  <time>2026-08-28T17:52:15Z</time>
  <course>212.75</course>
  <speed>0.08</speed>
  <fix>3d</fix>
</trkpt>
<trkpt lat="40.0713147" lon="-105.23003">
  <ele>1583.0</ele>
  <time>2026-08-28T17:52:15Z</time>
  <course>13.9</course>
  <speed>0.05</speed>
  <fix>3d</fix>
</trkpt>
<trkpt lat="40.071315" lon="-105.2300302">
  <ele>1583.12</ele>
  <time>2026-08-28T17:52:15Z</time>
  <course>212.49</course>
  <speed>0.07</speed>
  <fix>3d</fix>
</trkpt>
<trkpt lat="40.0713147" lon="-105.23003">
  <ele>1583.0</ele>
  <time>2026-08-28T17:52:15Z</time>
  <course>13.9</course>
  <speed>0.05</speed>
  <fix>3d</fix>
</trkpt>
<trkpt lat="40.071315" lon="-105.2300302">
  <ele>1583.12</ele>
  <time>2026-08-28T17:52:15Z</time>
  <course>212.08</course>
  <speed>0.08</speed>
  <fix>3d</fix>
</trkpt>
<trkpt lat="40.0713148" lon="-105.23003">
  <ele>1583.0</ele>
  <time>2026-08-28T17:52:15Z</time>
  <course>13.48</course>
  <speed>0.05</speed>
  <fix>3d</fix>
</trkpt>
<trkpt lat="40.0713151" lon="-105.2300302">
  <ele>1583.12</ele>
  <time>2026-08-28T17:52:15Z</time>
  <course>211.5</course>
  <speed>0.08</speed>
  <fix>3d</fix>
</trkpt>
<trkpt lat="40.0713148" lon="-105.23003">
  <ele>1583.0</ele>
  <time>2026-08-28T17:52:15Z</time>
  <course>13.48</course>
  <speed>0.05</speed>
  <fix>3d</fix>
</trkpt>
<trkpt lat="40.0713151" lon="-105.2300302">
  <ele>1583.13</ele>
  <time>2026-08-28T17:52:15Z</time>
  <course>210.79</course>
  <speed>0.08</speed>
  <fix>3d</fix>
</trkpt>
<trkpt lat="40.0713149" lon="-105.2300299">
  <ele>1583.0</ele>
  <time>2026-08-28T17:52:15Z</time>
  <course>12.55</course>
  <speed>0.05</speed>
  <fix>3d</fix>
</trkpt>
<trkpt lat="40.0713152" lon="-105.2300301">
  <ele>1583.13</ele>
  <time>2026-08-28T17:52:15Z</time>
  <course>209.95</course>
  <speed>0.08</speed>
  <fix>3d</fix>
</trkpt>
<trkpt lat="40.0713149" lon="-105.2300299">
  <ele>1583.0</ele>
  <time>2026-08-28T17:52:15Z</time>
  <course>12.55</course>
  <speed>0.05</speed>
  <fix>3d</fix>
</trkpt>
<trkpt lat="40.0713152" lon="-105.2300301">
  <ele>1583.13</ele>
  <time>2026-08-28T17:52:15Z</time>
  <course>209.01</course>
  <speed>0.08</speed>
  <fix>3d</fix>
</trkpt>
<trkpt lat="40.071315" lon="-105.2300298">
  <ele>1583.0</ele>
  <time>2026-08-28T17:52:15Z</time>
  <course>11.12</course>
  <speed>0.05</speed>
  <fix>3d</fix>
</trkpt>
<trkpt lat="40.0713153" lon="-105.2300301">
  <ele>1583.13</ele>
  <time>2026-08-28T17:52:15Z</time>
  <course>207.93</course>
  <speed>0.08</speed>
  <fix>3d</fix>
</trkpt>
<trkpt lat="40.071315" lon="-105.2300298">
  <ele>1583.0</ele>
  <time>2026-08-28T17:52:15Z</time>
  <course>11.12</course>
  <speed>0.05</speed>
  <fix>3d</fix>
</trkpt>
<trkpt lat="40.0713153" lon="-105.2300301">
  <ele>1583.12</ele>
  <time>2026-08-28T17:52:15Z</time>
  <course>206.74</course>
  <speed>0.08062257748298549</speed>
  <fix>3d</fix>
</trkpt>
<trkpt lat="40.0713151" lon="-105.2300298">
  <ele>1583.0</ele>
  <time>2026-08-28T17:52:15Z</time>
  <course>9.25</course>
  <speed>0.05</speed>
  <fix>3d</fix>
</trkpt>
<trkpt lat="40.0713154" lon="-105.2300301">
  <ele>1583.12</ele>
  <time>2026-08-28T17:52:15Z</time>
  <course>205.4</course>
  <speed>0.08062257748298549</speed>
  <fix>3d</fix>
</trkpt>
<trkpt lat="40.0713151" lon="-105.2300298">
  <ele>1583.0</ele>
  <time>2026-08-28T17:52:15Z</time>
  <course>9.25</course>
  <speed>0.05</speed>
  <fix>3d</fix>
</trkpt>
<trkpt lat="40.0713154" lon="-105.2300301">
  <ele>1583.12</ele>
  <time>2026-08-28T17:52:15Z</time>
  <course>203.86</course>
  <speed>0.08062257748298549</speed>
  <fix>3d</fix>
</trkpt>
<trkpt lat="40.0713152" lon="-105.2300298">
  <ele>1583.0</ele>
  <time>2026-08-28T17:52:15Z</time>
  <course>6.89</course>
  <speed>0.05</speed>
  <fix>3d</fix>
</trkpt>
<trkpt lat="40.0713155" lon="-105.23003">
  <ele>1583.12</ele>
  <time>2026-08-28T17:52:15Z</time>
  <course>202.11</course>
  <speed>0.08062257748298549</speed>
  <fix>3d</fix>
</trkpt>
<trkpt lat="40.0713152" lon="-105.2300298">
  <ele>1583.0</ele>
  <time>2026-08-28T17:52:15Z</time>
  <course>6.89</course>
  <speed>0.05</speed>
  <fix>3d</fix>
</trkpt>
<trkpt lat="40.0713155" lon="-105.23003">
  <ele>1583.12</ele>
  <time>2026-08-28T17:52:15Z</time>
  <course>200.16</course>
  <speed>0.08062257748298549</speed>
  <fix>3d</fix>
</trkpt>
<trkpt lat="40.0713153" lon="-105.2300298">
  <ele>1583.0</ele>
  <time>2026-08-28T17:52:15Z</time>
  <course>3.86</course>
  <speed>0.05</speed>
  <fix>3d</fix>
</trkpt>
<trkpt lat="40.0713156" lon="-105.23003">
  <ele>1583.12</ele>
  <time>2026-08-28T17:52:15Z</time>
  <course>197.99</course>
  <speed>0.08062257748298549</speed>
  <fix>3d</fix>
</trkpt>
<trkpt lat="40.0713153" lon="-105.2300298">
  <ele>1583.0</ele>
  <time>2026-08-28T17:52:15Z</time>
  <course>3.86</course>
  <speed>0.05</speed>
  <fix>3d</fix>
</trkpt>
<trkpt lat="40.0713156" lon="-105.23003">
  <ele>1583.12</ele>
  <time>2026-08-28T17:52:15Z</time>
  <course>195.59</course>
  <speed>0.0824621125123532</speed>
  <fix>3d</fix>
</trkpt>
<trkpt lat="40.0713153" lon="-105.2300298">
  <ele>1583.0</ele>
  <time>2026-08-28T17:52:15Z</time>
  <course>3.86</course>
  <speed>0.05</speed>
  <fix>3d</fix>
</trkpt>
<trkpt lat="40.0713157" lon="-105.23003">
  <ele>1583.12</ele>
  <time>2026-08-28T17:52:15Z</time>
  <course>192.94</course>
  <speed>0.0824621125123532</speed>
  <fix>3d</fix>
</trkpt>
<trkpt lat="40.0713154" lon="-105.2300298">
  <ele>1583.0</ele>
  <time>2026-08-28T17:52:15Z</time>
  <course>0.03</course>
  <speed>0.06</speed>
  <fix>3d</fix>
</trkpt>
<trkpt lat="40.0713157" lon="-105.23003">
  <ele>1583.12</ele>
  <time>2026-08-28T17:52:15Z</time>
  <course>190.03</course>
  <speed>0.0824621125123532</speed>
  <fix>3d</fix>
</trkpt>
<trkpt lat="40.0713154" lon="-105.2300298">
  <ele>1583.0</ele>
  <time>2026-08-28T17:52:15Z</time>
  <course>0.03</course>
  <speed>0.06</speed>
  <fix>3d</fix>
</trkpt>
<trkpt lat="40.0713158" lon="-105.23003">
  <ele>1583.12</ele>
  <time>2026-08-28T17:52:15Z</time>
  <course>186.9</course>
  <speed>0.0824621125123532</speed>
  <fix>3d</fix>
</trkpt>
<trkpt lat="40.0713155" lon="-105.2300298">
  <ele>1583.0</ele>
  <time>2026-08-28T17:52:15Z</time>
  <course>355.34</course>
  <speed>0.06</speed>
  <fix>3d</fix>
</trkpt>
<trkpt lat="40.0713159" lon="-105.23003">
  <ele>1583.11</ele>
  <time>2026-08-28T17:52:15Z</time>
  <course>183.76</course>
  <speed>0.0854400374531753</speed>
  <fix>3d</fix>
</trkpt>
<trkpt lat="40.0713155" lon="-105.2300298">
  <ele>1583.0</ele>
  <time>2026-08-28T17:52:15Z</time>
  <course>355.34</course>
  <speed>0.06</speed>
  <fix>3d</fix>
</trkpt>
<trkpt lat="40.0713159" lon="-105.23003">
  <ele>1583.11</ele>
  <time>2026-08-28T17:52:15Z</time>
  <course>180.62</course>
  <speed>0.0854400374531753</speed>
  <fix>3d</fix>
</trkpt>
<trkpt lat="40.0713156" lon="-105.2300298">
  <ele>1583.0</ele>
  <time>2026-08-28T17:52:15Z</time>
  <course>349.86</course>
  <speed>0.06</speed>
  <fix>3d</fix>
</trkpt>
<trkpt lat="40.071316" lon="-105.23003">
  <ele>1583.11</ele>
  <time>2026-08-28T17:52:15Z</time>
  <course>177.47</course>
  <speed>0.08944271909999159</speed>
  <fix>3d</fix>
</trkpt>
<trkpt lat="40.0713156" lon="-105.2300298">
  <ele>1583.0</ele>
  <time>2026-08-28T17:52:15Z</time>
  <course>349.86</course>
  <speed>0.06</speed>
  <fix>3d</fix>
</trkpt>
<trkpt lat="40.071316" lon="-105.23003">
  <ele>1583.11</ele>
  <time>2026-08-28T17:52:15Z</time>
  <course>174.3</course>
  <speed>0.08944271909999159</speed>
  <fix>3d</fix>
</trkpt>
<trkpt lat="40.0713157" lon="-105.2300298">
  <ele>1583.0</ele>
  <time>2026-08-28T17:52:15Z</time>
  <course>344.03</course>
  <speed>0.06</speed>
  <fix>3d</fix>
</trkpt>
<trkpt lat="40.0713161" lon="-105.2300301">
  <ele>1583.11</ele>
  <time>2026-08-28T17:52:15Z</time>
  <course>171.16</course>
  <speed>0.08944271909999159</speed>
  <fix>3d</fix>
</trkpt>
<trkpt lat="40.0713159" lon="-105.2300298">
  <ele>1583.0</ele>
  <time>2026-08-28T17:52:15Z</time>
  <course>338.16</course>
  <speed>0.06</speed>
  <fix>3d</fix>
</trkpt>
<trkpt lat="40.0713161" lon="-105.2300301">
  <ele>1583.11</ele>
  <time>2026-08-28T17:52:15Z</time>
  <course>168.02</course>
  <speed>0.09433981132056603</speed>
  <fix>3d</fix>
</trkpt>
<trkpt lat="40.0713159" lon="-105.2300298">
  <ele>1583.0</ele>
  <time>2026-08-28T17:52:15Z</time>
  <course>338.16</course>
  <speed>0.06</speed>
  <fix>3d</fix>
</trkpt>
<trkpt lat="40.0713162" lon="-105.2300301">
  <ele>1583.11</ele>
  <time>2026-08-28T17:52:15Z</time>
  <course>164.91</course>
  <speed>0.09433981132056603</speed>
  <fix>3d</fix>
</trkpt>
<trkpt lat="40.071316" lon="-105.2300299">
  <ele>1583.0</ele>
  <time>2026-08-28T17:52:15Z</time>
  <course>332.26</course>
  <speed>0.06</speed>
  <fix>3d</fix>
</trkpt>
<trkpt lat="40.0713162" lon="-105.2300302">
  <ele>1583.11</ele>
  <time>2026-08-28T17:52:15Z</time>
  <course>161.77</course>
  <speed>0.09433981132056603</speed>
  <fix>3d</fix>
</trkpt>
<trkpt lat="40.071316" lon="-105.2300299">
  <ele>1583.0</ele>
  <time>2026-08-28T17:52:15Z</time>
  <course>332.26</course>
  <speed>0.06</speed>
  <fix>3d</fix>
</trkpt>
<trkpt lat="40.0713163" lon="-105.2300302">
  <ele>1583.11</ele>
  <time>2026-08-28T17:52:15Z</time>
  <course>158.66</course>
  <speed>0.07810249675906654</speed>
  <fix>3d</fix>
</trkpt>
<trkpt lat="40.0713161" lon="-105.23003">
  <ele>1583.0</ele>
  <time>2026-08-28T17:52:15Z</time>
  <course>324.49</course>
  <speed>0.06</speed>
  <fix>3d</fix>
</trkpt>
<trkpt lat="40.0713163" lon="-105.2300302">
  <ele>1583.11</ele>
  <time>2026-08-28T17:52:15Z</time>
  <course>155.64</course>
  <speed>0.022360679774997897</speed>
  <fix>3d</fix>
</trkpt>
<trkpt lat="40.0713161" lon="-105.23003">
  <ele>1583.0</ele>
  <time>2026-08-28T17:52:15Z</time>
  <course>324.49</course>
  <speed>0.06</speed>
  <fix>3d</fix>
</trkpt>
<trkpt lat="40.0713162" lon="-105.2300302">
  <ele>1583.11</ele>
  <time>2026-08-28T17:52:15Z</time>
  <course>152.67</course>
  <speed>0.1676305461424021</speed>
  <fix>3d</fix>
</trkpt>
<trkpt lat="40.0713161" lon="-105.23003">
  <ele>1583.0</ele>
  <time>2026-08-28T17:52:15Z</time>
  <course>163.29</course>
  <speed>0.07</speed>
  <fix>3d</fix>
</trkpt>
<trkpt lat="40.0713159" lon="-105.23003">
  <ele>1583.11</ele>
  <time>2026-08-28T17:52:15Z</time>
  <course>149.77</course>
  <speed>0.35777087639996635</speed>
  <fix>3d</fix>
</trkpt>
<trkpt lat="40.0713161" lon="-105.23003">
  <ele>1583.0</ele>
  <time>2026-08-28T17:52:15Z</time>
  <course>163.29</course>
  <speed>0.07</speed>
  <fix>3d</fix>
</trkpt>
<trkpt lat="40.0713156" lon="-105.2300298">
  <ele>1583.11</ele>
  <time>2026-08-28T17:52:15Z</time>
  <course>146.91</course>
  <speed>0.5693856338194704</speed>
  <fix>3d</fix>
</trkpt>
<trkpt lat="40.0713158" lon="-105.2300298">
  <ele>1583.0</ele>
  <time>2026-08-28T17:52:15Z</time>
  <course>149.9</course>
  <speed>0.39</speed>
  <fix>3d</fix>
</trkpt>
<trkpt lat="40.071315" lon="-105.2300293">
  <ele>1583.11</ele>
  <time>2026-08-28T17:52:15Z</time>
  <course>144.09</course>
  <speed>0.8127115109311545</speed>
  <fix>3d</fix>
</trkpt>
<trkpt lat="40.0713158" lon="-105.2300298">
  <ele>1583.0</ele>
  <time>2026-08-28T17:52:15Z</time>
  <course>149.9</course>
  <speed>0.39</speed>
  <fix>3d</fix>
</trkpt>
<trkpt lat="40.0713143" lon="-105.2300286">
  <ele>1583.11</ele>
  <time>2026-08-28T17:52:15Z</time>
  <course>141.29</course>
  <speed>1.0621205204683695</speed>
  <fix>3d</fix>
</trkpt>
<trkpt lat="40.0713149" lon="-105.2300291">
  <ele>1583.0</ele>
  <time>2026-08-28T17:52:15Z</time>
  <course>143.55</course>
  <speed>0.84</speed>
  <fix>3d</fix>
</trkpt>
<trkpt lat="40.0713135" lon="-105.2300277">
  <ele>1583.11</ele>
  <time>2026-08-28T17:52:15Z</time>
  <course>138.51</course>
  <speed>1.3113733259449805</speed>
  <fix>3d</fix>
</trkpt>
<trkpt lat="40.0713149" lon="-105.2300291">
  <ele>1583.0</ele>
  <time>2026-08-28T17:52:15Z</time>
  <course>143.55</course>
  <speed>0.84</speed>
  <fix>3d</fix>
</trkpt>
<trkpt lat="40.0713125" lon="-105.2300265">
  <ele>1583.11</ele>
  <time>2026-08-28T17:52:15Z</time>
  <course>135.75</course>
  <speed>1.5700318468107581</speed>
  <fix>3d</fix>
</trkpt>
<trkpt lat="40.0713149" lon="-105.2300291">
  <ele>1583.0</ele>
  <time>2026-08-28T17:52:15Z</time>
  <course>143.55</course>
  <speed>0.84</speed>
  <fix>3d</fix>
</trkpt>
<trkpt lat="40.0713113" lon="-105.230025">
  <ele>1583.11</ele>
  <time>2026-08-28T17:52:15Z</time>
  <course>133.02</course>
  <speed>1.825212316416915</speed>
  <fix>3d</fix>
</trkpt>
<trkpt lat="40.0713133" lon="-105.2300274">
  <ele>1583.0</ele>
  <time>2026-08-28T17:52:15Z</time>
  <course>137.8</course>
  <speed>1.33</speed>
  <fix>3d</fix>
</trkpt>
<trkpt lat="40.0713101" lon="-105.2300232">
  <ele>1583.11</ele>
  <time>2026-08-28T17:52:15Z</time>
  <course>130.3</course>
  <speed>2.0781963333621776</speed>
  <fix>3d</fix>
</trkpt>
<trkpt lat="40.0713133" lon="-105.2300274">
  <ele>1583.0</ele>
  <time>2026-08-28T17:52:15Z</time>
  <course>137.8</course>
  <speed>1.33</speed>
  <fix>3d</fix>
</trkpt>
<trkpt lat="40.0713089" lon="-105.2300211">
  <ele>1583.1</ele>
  <time>2026-08-28T17:52:15Z</time>
  <course>127.61</course>
  <speed>2.316311723408574</speed>
  <fix>3d</fix>
</trkpt>
<trkpt lat="40.0713114" lon="-105.2300248">
  <ele>1583.0</ele>
  <time>2026-08-28T17:52:15Z</time>
  <course>132.26</course>
  <speed>1.83</speed>
  <fix>3d</fix>
</trkpt>
<trkpt lat="40.0713075" lon="-105.2300188">
  <ele>1583.1</ele>
  <time>2026-08-28T17:52:15Z</time>
  <course>124.94</course>
  <speed>2.549450921276972</speed>
  <fix>3d</fix>
</trkpt>
<trkpt lat="40.0713114" lon="-105.2300248">
  <ele>1583.0</ele>
  <time>2026-08-28T17:52:15Z</time>
  <course>132.26</course>
  <speed>1.83</speed>
  <fix>3d</fix>
</trkpt>
<trkpt lat="40.0713062" lon="-105.2300161">
  <ele>1583.1</ele>
  <time>2026-08-28T17:52:15Z</time>
  <course>122.3</course>
  <speed>2.7772108310317383</speed>
  <fix>3d</fix>
</trkpt>
<trkpt lat="40.071309" lon="-105.230021">
  <ele>1583.0</ele>
  <time>2026-08-28T17:52:15Z</time>
  <course>126.85</course>
  <speed>2.32</speed>
  <fix>3d</fix>
</trkpt>
<trkpt lat="40.0713049" lon="-105.2300131">
  <ele>1583.1</ele>
  <time>2026-08-28T17:52:15Z</time>
  <course>119.71</course>
  <speed>3.0140504308985943</speed>
  <fix>3d</fix>
</trkpt>
<trkpt lat="40.071309" lon="-105.230021">
  <ele>1583.0</ele>
  <time>2026-08-28T17:52:15Z</time>
  <course>126.85</course>
  <speed>2.32</speed>
  <fix>3d</fix>
</trkpt>
<trkpt lat="40.0713035" lon="-105.2300098">
  <ele>1583.1</ele>
  <time>2026-08-28T17:52:15Z</time>
  <course>117.15</course>
  <speed>3.255825548152112</speed>
  <fix>3d</fix>
</trkpt>
<trkpt lat="40.0713065" lon="-105.2300161">
  <ele>1583.0</ele>
  <time>2026-08-28T17:52:15Z</time>
  <course>121.56</course>
  <speed>2.78</speed>
  <fix>3d</fix>
</trkpt>
<trkpt lat="40.0713022" lon="-105.2300061">
  <ele>1583.1</ele>
  <time>2026-08-28T17:52:15Z</time>
  <course>114.68</course>
  <speed>3.5173285317126695</speed>
  <fix>3d</fix>
</trkpt>
<trkpt lat="40.0713038" lon="-105.2300099">
  <ele>1583.0</ele>
  <time>2026-08-28T17:52:15Z</time>
  <course>116.43</course>
  <speed>3.26</speed>
  <fix>3d</fix>
</trkpt>
<trkpt lat="40.0713009" lon="-105.230002">
  <ele>1583.09</ele>
  <time>2026-08-28T17:52:15Z</time>
  <course>112.26</course>
  <speed>3.764066949457727</speed>
  <fix>3d</fix>
</trkpt>
<trkpt lat="40.0713038" lon="-105.2300099">
  <ele>1583.0</ele>
  <time>2026-08-28T17:52:15Z</time>
  <course>116.43</course>
  <speed>3.26</speed>
  <fix>3d</fix>
</trkpt>
<trkpt lat="40.0712997" lon="-105.2299977">
  <ele>1583.09</ele>
  <time>2026-08-28T17:52:15Z</time>
  <course>109.94</course>
  <speed>3.9411927128725894</speed>
  <fix>3d</fix>
</trkpt>
<trkpt lat="40.0713013" lon="-105.2300023">
  <ele>1583.0</ele>
  <time>2026-08-28T17:52:15Z</time>
  <course>111.6</course>
  <speed>3.71</speed>
  <fix>3d</fix>
</trkpt>
<trkpt lat="40.0712985" lon="-105.2299932">
  <ele>1583.1</ele>
  <time>2026-08-28T17:52:15Z</time>
  <course>107.67</course>
  <speed>4.032679010285842</speed>
  <fix>3d</fix>
</trkpt>
<trkpt lat="40.0713013" lon="-105.2300023">
  <ele>1583.0</ele>
  <time>2026-08-28T17:52:15Z</time>
  <course>111.6</course>
  <speed>3.71</speed>
  <fix>3d</fix>
</trkpt>
<trkpt lat="40.0712975" lon="-105.2299885">
  <ele>1583.1</ele>
  <time>2026-08-28T17:52:15Z</time>
  <course>105.47</course>
  <speed>4.073057819378458</speed>
  <fix>3d</fix>
</trkpt>
<trkpt lat="40.0712989" lon="-105.2299937">
  <ele>1583.0</ele>
  <time>2026-08-28T17:52:15Z</time>
  <course>107.1</course>
  <speed>3.98</speed>
  <fix>3d</fix>
</trkpt>
<trkpt lat="40.0712967" lon="-105.2299837">
  <ele>1583.1</ele>
  <time>2026-08-28T17:52:15Z</time>
  <course>103.31</course>
  <speed>4.094691685585131</speed>
  <fix>3d</fix>
</trkpt>
<trkpt lat="40.0712989" lon="-105.2299937">
  <ele>1583.0</ele>
  <time>2026-08-28T17:52:15Z</time>
  <course>107.1</course>
  <speed>3.98</speed>
  <fix>3d</fix>
</trkpt>
<trkpt lat="40.0712959" lon="-105.2299789">
  <ele>1583.1</ele>
  <time>2026-08-28T17:52:15Z</time>
  <course>101.22</course>
  <speed>4.093079525247464</speed>
  <fix>3d</fix>
</trkpt>
<trkpt lat="40.071297" lon="-105.2299846">
  <ele>1583.0</ele>
  <time>2026-08-28T17:52:15Z</time>
  <course>102.81</course>
  <speed>4.05</speed>
  <fix>3d</fix>
</trkpt>
<trkpt lat="40.0712953" lon="-105.2299741">
  <ele>1583.1</ele>
  <time>2026-08-28T17:52:15Z</time>
  <course>99.13</course>
  <speed>4.057647101461634</speed>
  <fix>3d</fix>
</trkpt>
<trkpt lat="40.071297" lon="-105.2299846">
  <ele>1583.0</ele>
  <time>2026-08-28T17:52:15Z</time>
  <course>102.81</course>
  <speed>4.05</speed>
  <fix>3d</fix>
</trkpt>
<trkpt lat="40.0712949" lon="-105.2299693">
  <ele>1583.1</ele>
  <time>2026-08-28T17:52:15Z</time>
  <course>97.09</course>
  <speed>3.997724352678659</speed>
  <fix>3d</fix>
</trkpt>
<trkpt lat="40.0712957" lon="-105.2299753">
  <ele>1583.0</ele>
  <time>2026-08-28T17:52:15Z</time>
  <course>98.72</course>
  <speed>4.01</speed>
  <fix>3d</fix>
</trkpt>
<trkpt lat="40.0712946" lon="-105.2299646">
  <ele>1583.1</ele>
  <time>2026-08-28T17:52:15Z</time>
  <course>95.07</course>
  <speed>3.9330395370501936</speed>
  <fix>3d</fix>
</trkpt>
<trkpt lat="40.0712957" lon="-105.2299753">
  <ele>1583.0</ele>
  <time>2026-08-28T17:52:15Z</time>
  <course>98.72</course>
  <speed>4.01</speed>
  <fix>3d</fix>
</trkpt>
<trkpt lat="40.0712944" lon="-105.22996">
  <ele>1583.1</ele>
  <time>2026-08-28T17:52:15Z</time>
  <course>93.08</course>
  <speed>3.8542054952999067</speed>
  <fix>3d</fix>
</trkpt>
<trkpt lat="40.0712949" lon="-105.2299661">
  <ele>1583.0</ele>
  <time>2026-08-28T17:52:15Z</time>
  <course>94.74</course>
  <speed>3.88</speed>
  <fix>3d</fix>
</trkpt>
<trkpt lat="40.0712943" lon="-105.2299555">
  <ele>1583.1</ele>
  <time>2026-08-28T17:52:15Z</time>
  <course>91.12</course>
  <speed>3.7802116342871597</speed>
  <fix>3d</fix>
</trkpt>
<trkpt lat="40.0712949" lon="-105.2299661">
  <ele>1583.0</ele>
  <time>2026-08-28T17:52:15Z</time>
  <course>94.74</course>
  <speed>3.88</speed>
  <fix>3d</fix>
</trkpt>
<trkpt lat="40.0712944" lon="-105.2299511">
  <ele>1583.1</ele>
  <time>2026-08-28T17:52:15Z</time>
  <course>89.19</course>
  <speed>3.710862433451286</speed>
  <fix>3d</fix>
</trkpt>
<trkpt lat="40.0712946" lon="-105.2299572">
  <ele>1583.0</ele>
  <time>2026-08-28T17:52:15Z</time>
  <course>90.85</course>
  <speed>3.74</speed>
  <fix>3d</fix>
</trkpt>
<trkpt lat="40.0712945" lon="-105.2299468">
  <ele>1583.11</ele>
  <time>2026-08-28T17:52:15Z</time>
  <course>87.29</course>
  <speed>3.6554753452868476</speed>
  <fix>3d</fix>
</trkpt>
<trkpt lat="40.0712946" lon="-105.2299572">
  <ele>1583.0</ele>
  <time>2026-08-28T17:52:15Z</time>
  <course>90.85</course>
  <speed>3.74</speed>
  <fix>3d</fix>
</trkpt>
<trkpt lat="40.0712948" lon="-105.2299425">
  <ele>1583.11</ele>
  <time>2026-08-28T17:52:15Z</time>
  <course>85.42</course>
  <speed>3.5942732227809286</speed>
  <fix>3d</fix>
</trkpt>
<trkpt lat="40.0712946" lon="-105.2299572">
  <ele>1583.0</ele>
  <time>2026-08-28T17:52:15Z</time>
  <course>90.85</course>
  <speed>3.74</speed>
  <fix>3d</fix>
</trkpt>
<trkpt lat="40.0712952" lon="-105.2299384">
  <ele>1583.11</ele>
  <time>2026-08-28T17:52:15Z</time>
  <course>83.59</course>
  <speed>3.5461669447447055</speed>
  <fix>3d</fix>
</trkpt>
<trkpt lat="40.0712946" lon="-105.2299485">
  <ele>1583.0</ele>
  <time>2026-08-28T17:52:15Z</time>
  <course>87.06</course>
  <speed>3.61</speed>
  <fix>3d</fix>
</trkpt>
<trkpt lat="40.0712956" lon="-105.2299344">
  <ele>1583.11</ele>
  <time>2026-08-28T17:52:15Z</time>
  <course>81.79</course>
  <speed>3.5117659375305754</speed>
  <fix>3d</fix>
</trkpt>
<trkpt lat="40.0712946" lon="-105.2299485">
  <ele>1583.0</ele>
  <time>2026-08-28T17:52:15Z</time>
  <course>87.06</course>
  <speed>3.61</speed>
  <fix>3d</fix>
</trkpt>
<trkpt lat="40.0712961" lon="-105.2299304">
  <ele>1583.11</ele>
  <time>2026-08-28T17:52:15Z</time>
  <course>80.03</course>
  <speed>3.4695388742598054</speed>
  <fix>3d</fix>
</trkpt>
<trkpt lat="40.0712951" lon="-105.2299401">
  <ele>1583.0</ele>
  <time>2026-08-28T17:52:15Z</time>
  <course>83.38</course>
  <speed>3.51</speed>
  <fix>3d</fix>
</trkpt>
<trkpt lat="40.0712967" lon="-105.2299265">
  <ele>1583.11</ele>
  <time>2026-08-28T17:52:15Z</time>
  <course>78.29</course>
  <speed>3.4405232160239816</speed>
  <fix>3d</fix>
</trkpt>
<trkpt lat="40.0712951" lon="-105.2299401">
  <ele>1583.0</ele>
  <time>2026-08-28T17:52:15Z</time>
  <course>83.38</course>
  <speed>3.51</speed>
  <fix>3d</fix>
</trkpt>
<trkpt lat="40.0712974" lon="-105.2299227">
  <ele>1583.11</ele>
  <time>2026-08-28T17:52:15Z</time>
  <course>76.59</course>
  <speed>3.424616766880639</speed>
  <fix>3d</fix>
</trkpt>
<trkpt lat="40.071296" lon="-105.2299321">
  <ele>1583.0</ele>
  <time>2026-08-28T17:52:15Z</time>
  <course>79.82</course>
  <speed>3.44</speed>
  <fix>3d</fix>
</trkpt>
<trkpt lat="40.0712982" lon="-105.2299188">
  <ele>1583.11</ele>
  <time>2026-08-28T17:52:15Z</time>
  <course>74.91</course>
  <speed>3.399676455193935</speed>
  <fix>3d</fix>
</trkpt>
<trkpt lat="40.0712973" lon="-105.2299242">
  <ele>1583.0</ele>
  <time>2026-08-28T17:52:15Z</time>
  <course>76.39</course>
  <speed>3.39</speed>
  <fix>3d</fix>
</trkpt>
<trkpt lat="40.0712991" lon="-105.2299151">
  <ele>1583.11</ele>
  <time>2026-08-28T17:52:15Z</time>
  <course>73.26</course>
  <speed>3.3776915193664445</speed>
  <fix>3d</fix>
</trkpt>
<trkpt lat="40.0712973" lon="-105.2299242">
  <ele>1583.0</ele>
  <time>2026-08-28T17:52:15Z</time>
  <course>76.39</course>
  <speed>3.39</speed>
  <fix>3d</fix>
</trkpt>
<trkpt lat="40.0713001" lon="-105.2299114">
  <ele>1583.11</ele>
  <time>2026-08-28T17:52:15Z</time>
  <course>71.66</course>
  <speed>3.3681597349294465</speed>
  <fix>3d</fix>
</trkpt>
<trkpt lat="40.0712989" lon="-105.2299166">
  <ele>1583.0</ele>
  <time>2026-08-28T17:52:15Z</time>
  <course>73.09</course>
  <speed>3.35</speed>
  <fix>3d</fix>
</trkpt>
<trkpt lat="40.0713011" lon="-105.2299077">
  <ele>1583.11</ele>
  <time>2026-08-28T17:52:15Z</time>
  <course>70.1</course>
  <speed>3.3579309105459574</speed>
  <fix>3d</fix>
</trkpt>
<trkpt lat="40.0712989" lon="-105.2299166">
  <ele>1583.0</ele>
  <time>2026-08-28T17:52:15Z</time>
  <course>73.09</course>
  <speed>3.35</speed>
  <fix>3d</fix>
</trkpt>
<trkpt lat="40.0713022" lon="-105.2299041">
  <ele>1583.12</ele>
  <time>2026-08-28T17:52:15Z</time>
  <course>68.56</course>
  <speed>3.340808285430339</speed>
  <fix>3d</fix>
</trkpt>
<trkpt lat="40.0713008" lon="-105.2299092">
  <ele>1583.0</ele>
  <time>2026-08-28T17:52:15Z</time>
  <course>69.92</course>
  <speed>3.33</speed>
  <fix>3d</fix>
</trkpt>
<trkpt lat="40.0713034" lon="-105.2299005">
  <ele>1583.12</ele>
  <time>2026-08-28T17:52:15Z</time>
  <course>67.05</course>
  <speed>3.3354160160315836</speed>
  <fix>3d</fix>
</trkpt>
<trkpt lat="40.0713008" lon="-105.2299092">
  <ele>1583.0</ele>
  <time>2026-08-28T17:52:15Z</time>
  <course>69.92</course>
  <speed>3.33</speed>
  <fix>3d</fix>
</trkpt>
<trkpt lat="40.0713047" lon="-105.229897">
  <ele>1583.12</ele>
  <time>2026-08-28T17:52:15Z</time>
  <course>65.59</course>
  <speed>3.319096262538946</speed>
  <fix>3d</fix>
</trkpt>
<trkpt lat="40.071303" lon="-105.2299019">
  <ele>1583.0</ele>
  <time>2026-08-28T17:52:15Z</time>
  <course>66.89</course>
  <speed>3.31</speed>
  <fix>3d</fix>
</trkpt>
<trkpt lat="40.071306" lon="-105.2298935">
  <ele>1583.12</ele>
  <time>2026-08-28T17:52:15Z</time>
  <course>64.15</course>
  <speed>3.304935702854142</speed>
  <fix>3d</fix>
</trkpt>
<trkpt lat="40.071303" lon="-105.2299019">
  <ele>1583.0</ele>
  <time>2026-08-28T17:52:15Z</time>
  <course>66.89</course>
  <speed>3.31</speed>
  <fix>3d</fix>
</trkpt>
<trkpt lat="40.0713073" lon="-105.22989">
  <ele>1583.12</ele>
  <time>2026-08-28T17:52:15Z</time>
  <course>62.76</course>
  <speed>3.288236609491476</speed>
  <fix>3d</fix>
</trkpt>
<trkpt lat="40.0713054" lon="-105.2298949">
  <ele>1583.0</ele>
  <time>2026-08-28T17:52:15Z</time>
  <course>64.0</course>
  <speed>3.28</speed>
  <fix>3d</fix>
</trkpt>
<trkpt lat="40.0713088" lon="-105.2298867">
  <ele>1583.11</ele>
  <time>2026-08-28T17:52:15Z</time>
  <course>61.41</course>
  <speed>3.2733163611236846</speed>
  <fix>3d</fix>
</trkpt>
<trkpt lat="40.0713054" lon="-105.2298949">
  <ele>1583.0</ele>
  <time>2026-08-28T17:52:15Z</time>
  <course>64.0</course>
  <speed>3.28</speed>
  <fix>3d</fix>
</trkpt>
<trkpt lat="40.0713102" lon="-105.2298834">
  <ele>1583.11</ele>
  <time>2026-08-28T17:52:15Z</time>
  <course>60.1</course>
  <speed>3.260199380406051</speed>
  <fix>3d</fix>
</trkpt>
<trkpt lat="40.0713082" lon="-105.2298881">
  <ele>1583.0</ele>
  <time>2026-08-28T17:52:15Z</time>
  <course>61.25</course>
  <speed>3.25</speed>
  <fix>3d</fix>
</trkpt>
<trkpt lat="40.0713117" lon="-105.2298801">
  <ele>1583.11</ele>
  <time>2026-08-28T17:52:15Z</time>
  <course>58.83</course>
  <speed>3.235119781399137</speed>
  <fix>3d</fix>
</trkpt>
<trkpt lat="40.0713082" lon="-105.2298881">
  <ele>1583.0</ele>
  <time>2026-08-28T17:52:15Z</time>
  <course>61.25</course>
  <speed>3.25</speed>
  <fix>3d</fix>
</trkpt>
<trkpt lat="40.0713133" lon="-105.229877">
  <ele>1583.11</ele>
  <time>2026-08-28T17:52:15Z</time>
  <course>57.59</course>
  <speed>3.220093166354042</speed>
  <fix>3d</fix>
</trkpt>
<trkpt lat="40.0713111" lon="-105.2298815">
  <ele>1583.0</ele>
  <time>2026-08-28T17:52:15Z</time>
  <course>58.66</course>
  <speed>3.22</speed>
  <fix>3d</fix>
</trkpt>
<trkpt lat="40.0713149" lon="-105.2298739">
  <ele>1583.11</ele>
  <time>2026-08-28T17:52:15Z</time>
  <course>56.39</course>
  <speed>3.198327688026979</speed>
  <fix>3d</fix>
</trkpt>
<trkpt lat="40.0713111" lon="-105.2298815">
  <ele>1583.0</ele>
  <time>2026-08-28T17:52:15Z</time>
  <course>58.66</course>
  <speed>3.22</speed>
  <fix>3d</fix>
</trkpt>
<trkpt lat="40.0713165" lon="-105.2298708">
  <ele>1583.11</ele>
  <time>2026-08-28T17:52:15Z</time>
  <course>55.23</course>
  <speed>3.180565987367657</speed>
  <fix>3d</fix>
</trkpt>
<trkpt lat="40.0713111" lon="-105.2298815">
  <ele>1583.0</ele>
  <time>2026-08-28T17:52:15Z</time>
  <course>58.66</course>
  <speed>3.22</speed>
  <fix>3d</fix>
</trkpt>
<trkpt lat="40.0713182" lon="-105.2298678">
  <ele>1583.11</ele>
  <time>2026-08-28T17:52:15Z</time>
  <course>54.1</course>
  <speed>3.15</speed>
  <fix>3d</fix>
</trkpt>
<trkpt lat="40.0713142" lon="-105.2298751">
  <ele>1583.0</ele>
  <time>2026-08-28T17:52:15Z</time>
  <course>56.21</course>
  <speed>3.18</speed>
  <fix>3d</fix>
</trkpt>
<trkpt lat="40.0713199" lon="-105.2298649">
  <ele>1583.11</ele>
  <time>2026-08-28T17:52:15Z</time>
  <course>53.01</course>
  <speed>3.12846607780874</speed>
  <fix>3d</fix>
</trkpt>
<trkpt lat="40.0713142" lon="-105.2298751">
  <ele>1583.0</ele>
  <time>2026-08-28T17:52:15Z</time>
  <course>56.21</course>
  <speed>3.18</speed>
  <fix>3d</fix>
</trkpt>
<trkpt lat="40.0713216" lon="-105.2298621">
  <ele>1583.11</ele>
  <time>2026-08-28T17:52:15Z</time>
  <course>51.96</course>
  <speed>3.100096772683072</speed>
  <fix>3d</fix>
</trkpt>
<trkpt lat="40.0713175" lon="-105.229869">
  <ele>1583.0</ele>
  <time>2026-08-28T17:52:15Z</time>
  <course>53.92</course>
  <speed>3.14</speed>
  <fix>3d</fix>
</trkpt>
<trkpt lat="40.0713233" lon="-105.2298594">
  <ele>1583.11</ele>
  <time>2026-08-28T17:52:15Z</time>
  <course>50.94</course>
  <speed>3.074166553718259</speed>
  <fix>3d</fix>
</trkpt>
<trkpt lat="40.0713175" lon="-105.229869">
  <ele>1583.0</ele>
  <time>2026-08-28T17:52:15Z</time>
  <course>53.92</course>
  <speed>3.14</speed>
  <fix>3d</fix>
</trkpt>
<trkpt lat="40.0713251" lon="-105.2298567">
  <ele>1583.11</ele>
  <time>2026-08-28T17:52:15Z</time>
  <course>49.96</course>
  <speed>3.0413977050034084</speed>
  <fix>3d</fix>
</trkpt>
<trkpt lat="40.0713208" lon="-105.2298632">
  <ele>1583.0</ele>
  <time>2026-08-28T17:52:15Z</time>
  <course>51.79</course>
  <speed>3.09</speed>
  <fix>3d</fix>
</trkpt>
<trkpt lat="40.0713268" lon="-105.229854">
  <ele>1583.11</ele>
  <time>2026-08-28T17:52:15Z</time>
  <course>49.02</course>
  <speed>3.01705154082591</speed>
  <fix>3d</fix>
</trkpt>
<trkpt lat="40.0713208" lon="-105.2298632">
  <ele>1583.0</ele>
  <time>2026-08-28T17:52:15Z</time>
  <course>51.79</course>
  <speed>3.09</speed>
  <fix>3d</fix>
</trkpt>
<trkpt lat="40.0713286" lon="-105.2298514">
  <ele>1583.11</ele>
  <time>2026-08-28T17:52:15Z</time>
  <course>48.12</course>
  <speed>2.9861346252304166</speed>
  <fix>3d</fix>
</trkpt>
<trkpt lat="40.0713243" lon="-105.2298576">
  <ele>1583.0</ele>
  <time>2026-08-28T17:52:15Z</time>
  <course>49.84</course>
  <speed>3.05</speed>
  <fix>3d</fix>
</trkpt>
<trkpt lat="40.0713304" lon="-105.2298489">
  <ele>1583.11</ele>
  <time>2026-08-28T17:52:15Z</time>
  <course>47.27</course>
  <speed>2.9565520458804713</speed>
  <fix>3d</fix>
</trkpt>
<trkpt lat="40.071328" lon="-105.2298522">
  <ele>1583.0</ele>
  <time>2026-08-28T17:52:15Z</time>
  <course>48.06</course>
  <speed>2.99</speed>
  <fix>3d</fix>
</trkpt>
<trkpt lat="40.0713322" lon="-105.2298464">
  <ele>1583.11</ele>
  <time>2026-08-28T17:52:15Z</time>
  <course>46.46</course>
  <speed>2.9347061181658374</speed>
  <fix>3d</fix>
</trkpt>
<trkpt lat="40.071328" lon="-105.2298522">
  <ele>1583.0</ele>
  <time>2026-08-28T17:52:15Z</time>
  <course>48.06</course>
  <speed>2.99</speed>
  <fix>3d</fix>
</trkpt>
<trkpt lat="40.071334" lon="-105.229844">
  <ele>1583.11</ele>
  <time>2026-08-28T17:52:15Z</time>
  <course>45.71</course>
  <speed>2.899137802864845</speed>
  <fix>3d</fix>
</trkpt>
<trkpt lat="40.0713316" lon="-105.2298471">
  <ele>1583.0</ele>
  <time>2026-08-28T17:52:15Z</time>
  <course>46.45</course>
  <speed>2.94</speed>
  <fix>3d</fix>
</trkpt>
<trkpt lat="40.0713359" lon="-105.2298416">
  <ele>1583.11</ele>
  <time>2026-08-28T17:52:15Z</time>
  <course>45.0</course>
  <speed>2.871167010119753</speed>
  <fix>3d</fix>
</trkpt>
<trkpt lat="40.0713316" lon="-105.2298471">
  <ele>1583.0</ele>
  <time>2026-08-28T17:52:15Z</time>
  <course>46.45</course>
  <speed>2.94</speed>
  <fix>3d</fix>
</trkpt>
<trkpt lat="40.0713377" lon="-105.2298393">
  <ele>1583.11</ele>
  <time>2026-08-28T17:52:15Z</time>
  <course>44.34</course>
  <speed>2.843448610402516</speed>
  <fix>3d</fix>
</trkpt>
<trkpt lat="40.0713352" lon="-105.2298421">
  <ele>1583.0</ele>
  <time>2026-08-28T17:52:15Z</time>
  <course>45.02</course>
  <speed>2.89</speed>
  <fix>3d</fix>
</trkpt>
<trkpt lat="40.0713396" lon="-105.2298369">
  <ele>1583.11</ele>
  <time>2026-08-28T17:52:15Z</time>
  <course>43.72</course>
  <speed>2.8160255680657444</speed>
  <fix>3d</fix>
</trkpt>
<trkpt lat="40.0713352" lon="-105.2298421">
  <ele>1583.0</ele>
  <time>2026-08-28T17:52:15Z</time>
  <course>45.02</course>
  <speed>2.89</speed>
  <fix>3d</fix>
</trkpt>
<trkpt lat="40.0713414" lon="-105.2298347">
  <ele>1583.11</ele>
  <time>2026-08-28T17:52:15Z</time>
  <course>43.14</course>
  <speed>2.7889065957826555</speed>
  <fix>3d</fix>
</trkpt>
<trkpt lat="40.0713389" lon="-105.2298375">
  <ele>1583.0</ele>
  <time>2026-08-28T17:52:15Z</time>
  <course>43.76</course>
  <speed>2.84</speed>
  <fix>3d</fix>
</trkpt>
<trkpt lat="40.0713433" lon="-105.2298324">
  <ele>1583.12</ele>
  <time>2026-08-28T17:52:15Z</time>
  <course>42.62</course>
  <speed>2.7621006498677776</speed>
  <fix>3d</fix>
</trkpt>
<trkpt lat="40.0713389" lon="-105.2298375">
  <ele>1583.0</ele>
  <time>2026-08-28T17:52:15Z</time>
  <course>43.76</course>
  <speed>2.84</speed>
  <fix>3d</fix>
</trkpt>
<trkpt lat="40.0713451" lon="-105.2298303">
  <ele>1583.12</ele>
  <time>2026-08-28T17:52:15Z</time>
  <course>42.14</course>
  <speed>2.734702908909851</speed>
  <fix>3d</fix>
</trkpt>
<trkpt lat="40.0713426" lon="-105.229833">
  <ele>1583.0</ele>
  <time>2026-08-28T17:52:15Z</time>
  <course>42.69</course>
  <speed>2.78</speed>
  <fix>3d</fix>
</trkpt>
<trkpt lat="40.0713469" lon="-105.2298281">
  <ele>1583.12</ele>
  <time>2026-08-28T17:52:15Z</time>
  <course>41.71</course>
  <speed>2.7149401466699037</speed>
  <fix>3d</fix>
</trkpt>
<trkpt lat="40.0713426" lon="-105.229833">
  <ele>1583.0</ele>
  <time>2026-08-28T17:52:15Z</time>
  <course>42.69</course>
  <speed>2.78</speed>
  <fix>3d</fix>
</trkpt>
<trkpt lat="40.0713488" lon="-105.229826">
  <ele>1583.12</ele>
  <time>2026-08-28T17:52:15Z</time>
  <course>41.33</course>
  <speed>2.6877685912295353</speed>
  <fix>3d</fix>
</trkpt>
<trkpt lat="40.0713462" lon="-105.2298286">
  <ele>1583.0</ele>
  <time>2026-08-28T17:52:15Z</time>
  <course>41.79</course>
  <speed>2.74</speed>
  <fix>3d</fix>
</trkpt>
<trkpt lat="40.0713506" lon="-105.2298239">
  <ele>1583.12</ele>
  <time>2026-08-28T17:52:15Z</time>
  <course>40.99</course>
  <speed>2.660695397823659</speed>
  <fix>3d</fix>
</trkpt>
<trkpt lat="40.0713462" lon="-105.2298286">
  <ele>1583.0</ele>
  <time>2026-08-28T17:52:15Z</time>
  <course>41.79</course>
  <speed>2.74</speed>
  <fix>3d</fix>
</trkpt>
<trkpt lat="40.0713524" lon="-105.2298219">
  <ele>1583.12</ele>
  <time>2026-08-28T17:52:15Z</time>
  <course>40.7</course>
  <speed>2.6478104161740883</speed>
  <fix>3d</fix>
</trkpt>
<trkpt lat="40.0713499" lon="-105.2298244">
  <ele>1583.0</ele>
  <time>2026-08-28T17:52:15Z</time>
  <course>41.06</course>
  <speed>2.7</speed>
  <fix>3d</fix>
</trkpt>
<trkpt lat="40.0713542" lon="-105.2298199">
  <ele>1583.12</ele>
  <time>2026-08-28T17:52:15Z</time>
  <course>40.45</course>
  <speed>2.6273180241455356</speed>
  <fix>3d</fix>
</trkpt>
<trkpt lat="40.0713499" lon="-105.2298244">
  <ele>1583.0</ele>
  <time>2026-08-28T17:52:15Z</time>
  <course>41.06</course>
  <speed>2.7</speed>
  <fix>3d</fix>
</trkpt>
<trkpt lat="40.0713561" lon="-105.2298179">
  <ele>1583.12</ele>
  <time>2026-08-28T17:52:15Z</time>
  <course>40.24</course>
  <speed>2.606856344335069</speed>
  <fix>3d</fix>
</trkpt>
<trkpt lat="40.0713499" lon="-105.2298244">
  <ele>1583.0</ele>
  <time>2026-08-28T17:52:15Z</time>
  <course>41.06</course>
  <speed>2.7</speed>
  <fix>3d</fix>
</trkpt>
<trkpt lat="40.0713578" lon="-105.2298159">
  <ele>1583.12</ele>
  <time>2026-08-28T17:52:15Z</time>
  <course>40.08</course>
  <speed>2.586426105652354</speed>
  <fix>3d</fix>
</trkpt>
<trkpt lat="40.0713535" lon="-105.2298203">
  <ele>1583.0</ele>
  <time>2026-08-28T17:52:15Z</time>
  <course>40.5</course>
  <speed>2.66</speed>
  <fix>3d</fix>
</trkpt>
<trkpt lat="40.0713596" lon="-105.229814">
  <ele>1583.12</ele>
  <time>2026-08-28T17:52:15Z</time>
  <course>39.95</course>
  <speed>2.580096897405212</speed>
  <fix>3d</fix>
</trkpt>
<trkpt lat="40.0713535" lon="-105.2298203">
  <ele>1583.0</ele>
  <time>2026-08-28T17:52:15Z</time>
  <course>40.5</course>
  <speed>2.66</speed>
  <fix>3d</fix>
</trkpt>
<trkpt lat="40.0713614" lon="-105.229812">
  <ele>1583.12</ele>
  <time>2026-08-28T17:52:15Z</time>
  <course>39.86</course>
  <speed>2.5660280590827527</speed>
  <fix>3d</fix>
</trkpt>
<trkpt lat="40.0713572" lon="-105.2298163">
  <ele>1583.0</ele>
  <time>2026-08-28T17:52:15Z</time>
  <course>40.11</course>
  <speed>2.63</speed>
  <fix>3d</fix>
</trkpt>
<trkpt lat="40.0713632" lon="-105.2298101">
  <ele>1583.12</ele>
  <time>2026-08-28T17:52:15Z</time>
  <course>39.81</course>
  <speed>2.551960031034969</speed>
  <fix>3d</fix>
</trkpt>
<trkpt lat="40.0713572" lon="-105.2298163">
  <ele>1583.0</ele>
  <time>2026-08-28T17:52:15Z</time>
  <course>40.11</course>
  <speed>2.63</speed>
  <fix>3d</fix>
</trkpt>
<trkpt lat="40.0713649" lon="-105.2298082">
  <ele>1583.13</ele>
  <time>2026-08-28T17:52:15Z</time>
  <course>39.79</course>
  <speed>2.54566297847928</speed>
  <fix>3d</fix>
</trkpt>
<trkpt lat="40.0713608" lon="-105.2298123">
  <ele>1583.0</ele>
  <time>2026-08-28T17:52:15Z</time>
  <course>39.88</course>
  <speed>2.61</speed>
  <fix>3d</fix>
</trkpt>
<trkpt lat="40.0713667" lon="-105.2298063">
  <ele>1583.13</ele>
  <time>2026-08-28T17:52:15Z</time>
  <course>39.81</course>
  <speed>2.5378928267363854</speed>
  <fix>3d</fix>
</trkpt>
<trkpt lat="40.0713644" lon="-105.2298084">
  <ele>1583.0</ele>
  <time>2026-08-28T17:52:15Z</time>
  <course>39.8</course>
  <speed>2.6</speed>
  <fix>3d</fix>
</trkpt>
<trkpt lat="40.0713685" lon="-105.2298044">
  <ele>1583.13</ele>
  <time>2026-08-28T17:52:15Z</time>
  <course>39.87</course>
  <speed>2.5378928267363854</speed>
  <fix>3d</fix>
</trkpt>
<trkpt lat="40.0713644" lon="-105.2298084">
  <ele>1583.0</ele>
  <time>2026-08-28T17:52:15Z</time>
  <course>39.8</course>
  <speed>2.6</speed>
  <fix>3d</fix>
</trkpt>
<trkpt lat="40.0713702" lon="-105.2298024">
  <ele>1583.13</ele>
  <time>2026-08-28T17:52:15Z</time>
  <course>39.97</course>
  <speed>2.5364739304790813</speed>
  <fix>3d</fix>
</trkpt>
<trkpt lat="40.071368" lon="-105.2298045">
  <ele>1583.0</ele>
  <time>2026-08-28T17:52:15Z</time>
  <course>39.86</course>
  <speed>2.59</speed>
  <fix>3d</fix>
</trkpt>
<trkpt lat="40.071372" lon="-105.2298005">
  <ele>1583.13</ele>
  <time>2026-08-28T17:52:15Z</time>
  <course>40.09</course>
  <speed>2.5364739304790813</speed>
  <fix>3d</fix>
</trkpt>
<trkpt lat="40.071368" lon="-105.2298045">
  <ele>1583.0</ele>
  <time>2026-08-28T17:52:15Z</time>
  <course>39.86</course>
  <speed>2.59</speed>
  <fix>3d</fix>
</trkpt>
<trkpt lat="40.0713738" lon="-105.2297985">
  <ele>1583.13</ele>
  <time>2026-08-28T17:52:15Z</time>
  <course>40.24</course>
  <speed>2.5351331325987596</speed>
  <fix>3d</fix>
</trkpt>
<trkpt lat="40.0713716" lon="-105.2298005">
  <ele>1583.0</ele>
  <time>2026-08-28T17:52:15Z</time>
  <course>40.07</course>
  <speed>2.6</speed>
  <fix>3d</fix>
</trkpt>
<trkpt lat="40.0713755" lon="-105.2297965">
  <ele>1583.13</ele>
  <time>2026-08-28T17:52:15Z</time>
  <course>40.43</course>
  <speed>2.5415349692656206</speed>
  <fix>3d</fix>
</trkpt>
<trkpt lat="40.0713716" lon="-105.2298005">
  <ele>1583.0</ele>
  <time>2026-08-28T17:52:15Z</time>
  <course>40.07</course>
  <speed>2.6</speed>
  <fix>3d</fix>
</trkpt>
<trkpt lat="40.0713773" lon="-105.2297946">
  <ele>1583.13</ele>
  <time>2026-08-28T17:52:15Z</time>
  <course>40.65</course>
  <speed>2.547959968288356</speed>
  <fix>3d</fix>
</trkpt>
<trkpt lat="40.0713752" lon="-105.2297966">
  <ele>1583.0</ele>
  <time>2026-08-28T17:52:15Z</time>
  <course>40.41</course>
  <speed>2.6</speed>
  <fix>3d</fix>
</trkpt>
<trkpt lat="40.0713791" lon="-105.2297925">
  <ele>1583.13</ele>
  <time>2026-08-28T17:52:15Z</time>
  <course>40.89</course>
  <speed>2.5608787554275194</speed>
  <fix>3d</fix>
</trkpt>
<trkpt lat="40.0713752" lon="-105.2297966">
  <ele>1583.0</ele>
  <time>2026-08-28T17:52:15Z</time>
  <course>40.41</course>
  <speed>2.6</speed>
  <fix>3d</fix>
</trkpt>
<trkpt lat="40.0713809" lon="-105.2297905">
  <ele>1583.13</ele>
  <time>2026-08-28T17:52:15Z</time>
  <course>41.16</course>
  <speed>2.5597851472340407</speed>
  <fix>3d</fix>
</trkpt>
<trkpt lat="40.0713787" lon="-105.2297926">
  <ele>1583.0</ele>
  <time>2026-08-28T17:52:15Z</time>
  <course>40.87</course>
  <speed>2.62</speed>
  <fix>3d</fix>
</trkpt>
<trkpt lat="40.0713827" lon="-105.2297884">
  <ele>1583.13</ele>
  <time>2026-08-28T17:52:15Z</time>
  <course>41.45</course>
  <speed>2.5728777662376423</speed>
  <fix>3d</fix>
</trkpt>
<trkpt lat="40.0713787" lon="-105.2297926">
  <ele>1583.0</ele>
  <time>2026-08-28T17:52:15Z</time>
  <course>40.87</course>
  <speed>2.62</speed>
  <fix>3d</fix>
</trkpt>
<trkpt lat="40.0713844" lon="-105.2297864">
  <ele>1583.12</ele>
  <time>2026-08-28T17:52:15Z</time>
  <course>41.78</course>
  <speed>2.578565492672234</speed>
  <fix>3d</fix>
</trkpt>
<trkpt lat="40.0713822" lon="-105.2297885">
  <ele>1583.0</ele>
  <time>2026-08-28T17:52:15Z</time>
  <course>41.45</course>
  <speed>2.63</speed>
  <fix>3d</fix>
</trkpt>
<trkpt lat="40.0713862" lon="-105.2297843">
  <ele>1583.12</ele>
  <time>2026-08-28T17:52:15Z</time>
  <course>42.12</course>
  <speed>2.5844341740504824</speed>
  <fix>3d</fix>
</trkpt>
<trkpt lat="40.0713822" lon="-105.2297885">
  <ele>1583.0</ele>
  <time>2026-08-28T17:52:15Z</time>
  <course>41.45</course>
  <speed>2.63</speed>
  <fix>3d</fix>
</trkpt>
<trkpt lat="40.0713879" lon="-105.2297822">
  <ele>1583.12</ele>
  <time>2026-08-28T17:52:15Z</time>
  <course>42.49</course>
  <speed>2.597864507629295</speed>
  <fix>3d</fix>
</trkpt>
<trkpt lat="40.0713858" lon="-105.2297844">
  <ele>1583.0</ele>
  <time>2026-08-28T17:52:15Z</time>
  <course>42.13</course>
  <speed>2.64</speed>
  <fix>3d</fix>
</trkpt>
<trkpt lat="40.0713897" lon="-105.22978">
  <ele>1583.11</ele>
  <time>2026-08-28T17:52:15Z</time>
  <course>42.88</course>
  <speed>2.604035330021465</speed>
  <fix>3d</fix>
</trkpt>
<trkpt lat="40.0713858" lon="-105.2297844">
  <ele>1583.0</ele>
  <time>2026-08-28T17:52:15Z</time>
  <course>42.13</course>
  <speed>2.64</speed>
  <fix>3d</fix>
</trkpt>
<trkpt lat="40.0713914" lon="-105.2297779">
  <ele>1583.11</ele>
  <time>2026-08-28T17:52:15Z</time>
  <course>43.29</course>
  <speed>2.6103831136444318</speed>
  <fix>3d</fix>
</trkpt>
<trkpt lat="40.0713858" lon="-105.2297844">
  <ele>1583.0</ele>
  <time>2026-08-28T17:52:15Z</time>
  <course>42.13</course>
  <speed>2.64</speed>
  <fix>3d</fix>
</trkpt>
<trkpt lat="40.0713932" lon="-105.2297757">
  <ele>1583.11</ele>
  <time>2026-08-28T17:52:15Z</time>
  <course>43.73</course>
  <speed>2.616906570743404</speed>
  <fix>3d</fix>
</trkpt>
<trkpt lat="40.0713893" lon="-105.2297802">
  <ele>1583.0</ele>
  <time>2026-08-28T17:52:15Z</time>
  <course>42.92</course>
  <speed>2.66</speed>
  <fix>3d</fix>
</trkpt>
<trkpt lat="40.0713949" lon="-105.2297735">
  <ele>1583.11</ele>
  <time>2026-08-28T17:52:15Z</time>
  <course>44.19</course>
  <speed>2.6377452492611946</speed>
  <fix>3d</fix>
</trkpt>
<trkpt lat="40.0713893" lon="-105.2297802">
  <ele>1583.0</ele>
  <time>2026-08-28T17:52:15Z</time>
  <course>42.92</course>
  <speed>2.66</speed>
  <fix>3d</fix>
</trkpt>
<trkpt lat="40.0713966" lon="-105.2297713">
  <ele>1583.11</ele>
  <time>2026-08-28T17:52:15Z</time>
  <course>44.66</course>
  <speed>2.644617174564213</speed>
  <fix>3d</fix>
</trkpt>
<trkpt lat="40.0713928" lon="-105.2297758">
  <ele>1583.0</ele>
  <time>2026-08-28T17:52:15Z</time>
  <course>43.79</course>
  <speed>2.68</speed>
  <fix>3d</fix>
</trkpt>
<trkpt lat="40.0713983" lon="-105.229769">
  <ele>1583.12</ele>
  <time>2026-08-28T17:52:15Z</time>
  <course>45.16</course>
  <speed>2.658759109058209</speed>
  <fix>3d</fix>
</trkpt>
<trkpt lat="40.0713928" lon="-105.2297758">
  <ele>1583.0</ele>
  <time>2026-08-28T17:52:15Z</time>
  <course>43.79</course>
  <speed>2.68</speed>
  <fix>3d</fix>
</trkpt>
<trkpt lat="40.0714" lon="-105.2297667">
  <ele>1583.12</ele>
  <time>2026-08-28T17:52:15Z</time>
  <course>45.67</course>
  <speed>2.6732003291934556</speed>
  <fix>3d</fix>
</trkpt>
<trkpt lat="40.0713963" lon="-105.2297714">
  <ele>1583.0</ele>
  <time>2026-08-28T17:52:15Z</time>
  <course>44.75</course>
  <speed>2.7</speed>
  <fix>3d</fix>
</trkpt>
<trkpt lat="40.0714016" lon="-105.2297644">
  <ele>1583.12</ele>
  <time>2026-08-28T17:52:15Z</time>
  <course>46.21</course>
  <speed>2.681063221932672</speed>
  <fix>3d</fix>
</trkpt>
<trkpt lat="40.0713963" lon="-105.2297714">
  <ele>1583.0</ele>
  <time>2026-08-28T17:52:15Z</time>
  <course>44.75</course>
  <speed>2.7</speed>
  <fix>3d</fix>
</trkpt>
<trkpt lat="40.0714033" lon="-105.2297621">
  <ele>1583.12</ele>
  <time>2026-08-28T17:52:15Z</time>
  <course>46.76</course>
  <speed>2.6961639416029586</speed>
  <fix>3d</fix>
</trkpt>
<trkpt lat="40.0713997" lon="-105.2297668">
  <ele>1583.0</ele>
  <time>2026-08-28T17:52:15Z</time>
  <course>45.77</course>
  <speed>2.73</speed>
  <fix>3d</fix>
</trkpt>
<trkpt lat="40.071405" lon="-105.2297597">
  <ele>1583.12</ele>
  <time>2026-08-28T17:52:15Z</time>
  <course>47.33</course>
  <speed>2.7115493725912496</speed>
  <fix>3d</fix>
</trkpt>
<trkpt lat="40.0714032" lon="-105.2297622">
  <ele>1583.0</ele>
  <time>2026-08-28T17:52:15Z</time>
  <course>46.86</course>
  <speed>2.76</speed>
  <fix>3d</fix>
</trkpt>
<trkpt lat="40.0714067" lon="-105.2297572">
  <ele>1583.12</ele>
  <time>2026-08-28T17:52:15Z</time>
  <course>47.92</course>
  <speed>2.7272146963523056</speed>
  <fix>3d</fix>
</trkpt>
<trkpt lat="40.0714032" lon="-105.2297622">
  <ele>1583.0</ele>
  <time>2026-08-28T17:52:15Z</time>
  <course>46.86</course>
  <speed>2.76</speed>
  <fix>3d</fix>
</trkpt>
<trkpt lat="40.0714083" lon="-105.2297548">
  <ele>1583.12</ele>
  <time>2026-08-28T17:52:15Z</time>
  <course>48.51</course>
  <speed>2.7431551177430706</speed>
  <fix>3d</fix>
</trkpt>
<trkpt lat="40.0714065" lon="-105.2297574">
  <ele>1583.0</ele>
  <time>2026-08-28T17:52:15Z</time>
  <course>48.01</course>
  <speed>2.78</speed>
  <fix>3d</fix>
</trkpt>
<trkpt lat="40.07141" lon="-105.2297522">
  <ele>1583.12</ele>
  <time>2026-08-28T17:52:15Z</time>
  <course>49.12</course>
  <speed>2.752889391167033</speed>
  <fix>3d</fix>
</trkpt>
<trkpt lat="40.0714065" lon="-105.2297574">
  <ele>1583.0</ele>
  <time>2026-08-28T17:52:15Z</time>
  <course>48.01</course>
  <speed>2.78</speed>
  <fix>3d</fix>
</trkpt>
<trkpt lat="40.0714116" lon="-105.2297497">
  <ele>1583.12</ele>
  <time>2026-08-28T17:52:15Z</time>
  <course>49.75</course>
  <speed>2.7694403766826254</speed>
  <fix>3d</fix>
</trkpt>
<trkpt lat="40.0714098" lon="-105.2297525">
  <ele>1583.0</ele>
  <time>2026-08-28T17:52:15Z</time>
  <course>49.2</course>
  <speed>2.81</speed>
  <fix>3d</fix>
</trkpt>
<trkpt lat="40.0714132" lon="-105.2297471">
  <ele>1583.12</ele>
  <time>2026-08-28T17:52:15Z</time>
  <course>50.39</course>
  <speed>2.7877230852435826</speed>
  <fix>3d</fix>
</trkpt>
<trkpt lat="40.0714098" lon="-105.2297525">
  <ele>1583.0</ele>
  <time>2026-08-28T17:52:15Z</time>
  <course>49.2</course>
  <speed>2.81</speed>
  <fix>3d</fix>
</trkpt>
<trkpt lat="40.0714148" lon="-105.2297444">
  <ele>1583.12</ele>
  <time>2026-08-28T17:52:15Z</time>
  <course>51.04</course>
  <speed>2.798731855680354</speed>
  <fix>3d</fix>
</trkpt>
<trkpt lat="40.0714131" lon="-105.2297475">
  <ele>1583.0</ele>
  <time>2026-08-28T17:52:15Z</time>
  <course>50.43</course>
  <speed>2.83</speed>
  <fix>3d</fix>
</trkpt>
<trkpt lat="40.0714165" lon="-105.2297418">
  <ele>1583.12</ele>
  <time>2026-08-28T17:52:15Z</time>
  <course>51.7</course>
  <speed>2.816256380374486</speed>
  <fix>3d</fix>
</trkpt>
<trkpt lat="40.0714131" lon="-105.2297475">
  <ele>1583.0</ele>
  <time>2026-08-28T17:52:15Z</time>
  <course>50.43</course>
  <speed>2.83</speed>
  <fix>3d</fix>
</trkpt>
<trkpt lat="40.071418" lon="-105.2297391">
  <ele>1583.12</ele>
  <time>2026-08-28T17:52:15Z</time>
  <course>52.37</course>
  <speed>2.828002828852899</speed>
  <fix>3d</fix>
</trkpt>
<trkpt lat="40.0714164" lon="-105.2297422">
  <ele>1583.0</ele>
  <time>2026-08-28T17:52:15Z</time>
  <course>51.7</course>
  <speed>2.86</speed>
  <fix>3d</fix>
</trkpt>
<trkpt lat="40.0714196" lon="-105.2297363">
  <ele>1583.12</ele>
  <time>2026-08-28T17:52:15Z</time>
  <course>53.04</course>
  <speed>2.8401584462842915</speed>
  <fix>3d</fix>
</trkpt>
<trkpt lat="40.0714164" lon="-105.2297422">
  <ele>1583.0</ele>
  <time>2026-08-28T17:52:15Z</time>
  <course>51.7</course>
  <speed>2.86</speed>
  <fix>3d</fix>
</trkpt>
<trkpt lat="40.0714212" lon="-105.2297336">
  <ele>1583.12</ele>
  <time>2026-08-28T17:52:15Z</time>
  <course>53.72</course>
  <speed>2.8527180021866867</speed>
  <fix>3d</fix>
</trkpt>
<trkpt lat="40.0714195" lon="-105.2297369">
  <ele>1583.0</ele>
  <time>2026-08-28T17:52:15Z</time>
  <course>53.0</course>
  <speed>2.88</speed>
  <fix>3d</fix>
</trkpt>
<trkpt lat="40.0714227" lon="-105.2297308">
  <ele>1583.12</ele>
  <time>2026-08-28T17:52:15Z</time>
  <course>54.4</course>
  <speed>2.8656761854752535</speed>
  <fix>3d</fix>
</trkpt>
<trkpt lat="40.0714195" lon="-105.2297369">
  <ele>1583.0</ele>
  <time>2026-08-28T17:52:15Z</time>
  <course>53.0</course>
  <speed>2.88</speed>
  <fix>3d</fix>
</trkpt>
<trkpt lat="40.0714242" lon="-105.229728">
  <ele>1583.12</ele>
  <time>2026-08-28T17:52:15Z</time>
  <course>55.08</course>
  <speed>2.873412605248331</speed>
  <fix>3d</fix>
</trkpt>
<trkpt lat="40.0714226" lon="-105.2297314">
  <ele>1583.0</ele>
  <time>2026-08-28T17:52:15Z</time>
  <course>54.32</course>
  <speed>2.9</speed>
  <fix>3d</fix>
</trkpt>
<trkpt lat="40.0714257" lon="-105.2297251">
  <ele>1583.12</ele>
  <time>2026-08-28T17:52:15Z</time>
  <course>55.77</course>
  <speed>2.887247824486149</speed>
  <fix>3d</fix>
</trkpt>
<trkpt lat="40.0714226" lon="-105.2297314">
  <ele>1583.0</ele>
  <time>2026-08-28T17:52:15Z</time>
  <course>54.32</course>
  <speed>2.9</speed>
  <fix>3d</fix>
</trkpt>
<trkpt lat="40.0714272" lon="-105.2297222">
  <ele>1583.11</ele>
  <time>2026-08-28T17:52:15Z</time>
  <course>56.45</course>
  <speed>2.901465147128257</speed>
  <fix>3d</fix>
</trkpt>
<trkpt lat="40.0714226" lon="-105.2297314">
  <ele>1583.0</ele>
  <time>2026-08-28T17:52:15Z</time>
  <course>54.32</course>
  <speed>2.9</speed>
  <fix>3d</fix>
</trkpt>
<trkpt lat="40.0714286" lon="-105.2297193">
  <ele>1583.11</ele>
  <time>2026-08-28T17:52:15Z</time>
  <course>57.13</course>
  <speed>2.910755915565577</speed>
  <fix>3d</fix>
</trkpt>
<trkpt lat="40.0714256" lon="-105.2297258">
  <ele>1583.0</ele>
  <time>2026-08-28T17:52:15Z</time>
  <course>55.66</course>
  <speed>2.92</speed>
  <fix>3d</fix>
</trkpt>
<trkpt lat="40.07143" lon="-105.2297164">
  <ele>1583.12</ele>
  <time>2026-08-28T17:52:15Z</time>
  <course>57.81</course>
  <speed>2.925816125459698</speed>
  <fix>3d</fix>
</trkpt>
<trkpt lat="40.0714256" lon="-105.2297258">
  <ele>1583.0</ele>
  <time>2026-08-28T17:52:15Z</time>
  <course>55.66</course>
  <speed>2.92</speed>
  <fix>3d</fix>
</trkpt>
<trkpt lat="40.0714314" lon="-105.2297134">
  <ele>1583.11</ele>
  <time>2026-08-28T17:52:15Z</time>
  <course>58.48</course>
  <speed>2.927541630788536</speed>
  <fix>3d</fix>
</trkpt>
<trkpt lat="40.0714285" lon="-105.2297201">
  <ele>1583.0</ele>
  <time>2026-08-28T17:52:15Z</time>
  <course>57.01</course>
  <speed>2.93</speed>
  <fix>3d</fix>
</trkpt>
<trkpt lat="40.0714328" lon="-105.2297105">
  <ele>1583.11</ele>
  <time>2026-08-28T17:52:15Z</time>
  <course>59.15</course>
  <speed>2.9433654207386484</speed>
  <fix>3d</fix>
</trkpt>
<trkpt lat="40.0714285" lon="-105.2297201">
  <ele>1583.0</ele>
  <time>2026-08-28T17:52:15Z</time>
  <course>57.01</course>
  <speed>2.93</speed>
  <fix>3d</fix>
</trkpt>
<trkpt lat="40.0714341" lon="-105.2297074">
  <ele>1583.11</ele>
  <time>2026-08-28T17:52:15Z</time>
  <course>59.82</course>
  <speed>2.945929394944828</speed>
  <fix>3d</fix>
</trkpt>
<trkpt lat="40.0714313" lon="-105.2297142">
  <ele>1583.0</ele>
  <time>2026-08-28T17:52:15Z</time>
  <course>58.36</course>
  <speed>2.95</speed>
  <fix>3d</fix>
</trkpt>
<trkpt lat="40.0714354" lon="-105.2297044">
  <ele>1583.11</ele>
  <time>2026-08-28T17:52:15Z</time>
  <course>60.48</course>
  <speed>2.957718715496793</speed>
  <fix>3d</fix>
</trkpt>
<trkpt lat="40.071434" lon="-105.2297083">
  <ele>1583.0</ele>
  <time>2026-08-28T17:52:15Z</time>
  <course>59.71</course>
  <speed>2.97</speed>
  <fix>3d</fix>
</trkpt>
<trkpt lat="40.0714367" lon="-105.2297013">
  <ele>1583.11</ele>
  <time>2026-08-28T17:52:15Z</time>
  <course>61.13</course>
  <speed>2.961215966457023</speed>
  <fix>3d</fix>
</trkpt>
<trkpt lat="40.071434" lon="-105.2297083">
  <ele>1583.0</ele>
  <time>2026-08-28T17:52:15Z</time>
  <course>59.71</course>
  <speed>2.97</speed>
  <fix>3d</fix>
</trkpt>
<trkpt lat="40.071438" lon="-105.2296982">
  <ele>1583.12</ele>
  <time>2026-08-28T17:52:15Z</time>
  <course>61.78</course>
  <speed>2.9697137909232936</speed>
  <fix>3d</fix>
</trkpt>
<trkpt lat="40.0714367" lon="-105.2297022">
  <ele>1583.0</ele>
  <time>2026-08-28T17:52:15Z</time>
  <course>61.05</course>
  <speed>2.98</speed>
  <fix>3d</fix>
</trkpt>
<trkpt lat="40.0714392" lon="-105.2296951">
  <ele>1583.12</ele>
  <time>2026-08-28T17:52:15Z</time>
  <course>62.41</course>
  <speed>2.9829180344085886</speed>
  <fix>3d</fix>
</trkpt>
<trkpt lat="40.0714367" lon="-105.2297022">
  <ele>1583.0</ele>
  <time>2026-08-28T17:52:15Z</time>
  <course>61.05</course>
  <speed>2.98</speed>
  <fix>3d</fix>
</trkpt>
<trkpt lat="40.0714404" lon="-105.229692">
  <ele>1583.12</ele>
  <time>2026-08-28T17:52:15Z</time>
  <course>63.05</course>
  <speed>2.987657945615595</speed>
  <fix>3d</fix>
</trkpt>
<trkpt lat="40.0714392" lon="-105.229696">
  <ele>1583.0</ele>
  <time>2026-08-28T17:52:15Z</time>
  <course>62.37</course>
  <speed>2.99</speed>
  <fix>3d</fix>
</trkpt>
<trkpt lat="40.0714417" lon="-105.2296888">
  <ele>1583.12</ele>
  <time>2026-08-28T17:52:15Z</time>
  <course>63.69</course>
  <speed>2.992824752637548</speed>
  <fix>3d</fix>
</trkpt>
<trkpt lat="40.0714392" lon="-105.229696">
  <ele>1583.0</ele>
  <time>2026-08-28T17:52:15Z</time>
  <course>62.37</course>
  <speed>2.99</speed>
  <fix>3d</fix>
</trkpt>
<trkpt lat="40.0714428" lon="-105.2296856">
  <ele>1583.12</ele>
  <time>2026-08-28T17:52:15Z</time>
  <course>64.31</course>
  <speed>2.9984162486219286</speed>
  <fix>3d</fix>
</trkpt>
<trkpt lat="40.0714417" lon="-105.2296897">
  <ele>1583.0</ele>
  <time>2026-08-28T17:52:15Z</time>
  <course>63.68</course>
  <speed>3.0</speed>
  <fix>3d</fix>
</trkpt>
<trkpt lat="40.071444" lon="-105.2296823">
  <ele>1583.12</ele>
  <time>2026-08-28T17:52:15Z</time>
  <course>64.94</course>
  <speed>3.00847137264093</speed>
  <fix>3d</fix>
</trkpt>
<trkpt lat="40.0714417" lon="-105.2296897">
  <ele>1583.0</ele>
  <time>2026-08-28T17:52:15Z</time>
  <course>63.68</course>
  <speed>3.0</speed>
  <fix>3d</fix>
</trkpt>
<trkpt lat="40.0714451" lon="-105.229679">
  <ele>1583.12</ele>
  <time>2026-08-28T17:52:15Z</time>
  <course>65.56</course>
  <speed>3.0056114186634306</speed>
  <fix>3d</fix>
</trkpt>
<trkpt lat="40.071444" lon="-105.2296834">
  <ele>1583.0</ele>
  <time>2026-08-28T17:52:15Z</time>
  <course>64.95</course>
  <speed>3.01</speed>
  <fix>3d</fix>
</trkpt>
<trkpt lat="40.0714462" lon="-105.2296758">
  <ele>1583.12</ele>
  <time>2026-08-28T17:52:15Z</time>
  <course>66.18</course>
  <speed>3.0123080851732285</speed>
  <fix>3d</fix>
</trkpt>
<trkpt lat="40.071444" lon="-105.2296834">
  <ele>1583.0</ele>
  <time>2026-08-28T17:52:15Z</time>
  <course>64.95</course>
  <speed>3.01</speed>
  <fix>3d</fix>
</trkpt>
<trkpt lat="40.0714473" lon="-105.2296725">
  <ele>1583.11</ele>
  <time>2026-08-28T17:52:15Z</time>
  <course>66.8</course>
  <speed>3.0101494979485652</speed>
  <fix>3d</fix>
</trkpt>
<trkpt lat="40.0714463" lon="-105.2296769">
  <ele>1583.0</ele>
  <time>2026-08-28T17:52:15Z</time>
  <course>66.2</course>
  <speed>3.02</speed>
  <fix>3d</fix>
</trkpt>
<trkpt lat="40.0714484" lon="-105.2296692">
  <ele>1583.11</ele>
  <time>2026-08-28T17:52:15Z</time>
  <course>67.42</course>
  <speed>3.017631521574495</speed>
  <fix>3d</fix>
</trkpt>
<trkpt lat="40.0714463" lon="-105.2296769">
  <ele>1583.0</ele>
  <time>2026-08-28T17:52:15Z</time>
  <course>66.2</course>
  <speed>3.02</speed>
  <fix>3d</fix>
</trkpt>
<trkpt lat="40.0714494" lon="-105.2296659">
  <ele>1583.1</ele>
  <time>2026-08-28T17:52:15Z</time>
  <course>68.04</course>
  <speed>3.0197350877187885</speed>
  <fix>3d</fix>
</trkpt>
<trkpt lat="40.0714484" lon="-105.2296704">
  <ele>1583.0</ele>
  <time>2026-08-28T17:52:15Z</time>
  <course>67.42</course>
  <speed>3.02</speed>
  <fix>3d</fix>
</trkpt>
<trkpt lat="40.0714504" lon="-105.2296625">
  <ele>1583.1</ele>
  <time>2026-08-28T17:52:15Z</time>
  <course>68.65</course>
  <speed>3.0185095659944494</speed>
  <fix>3d</fix>
</trkpt>
<trkpt lat="40.0714484" lon="-105.2296704">
  <ele>1583.0</ele>
  <time>2026-08-28T17:52:15Z</time>
  <course>67.42</course>
  <speed>3.02</speed>
  <fix>3d</fix>
</trkpt>
<trkpt lat="40.0714514" lon="-105.2296592">
  <ele>1583.1</ele>
  <time>2026-08-28T17:52:15Z</time>
  <course>69.26</course>
  <speed>3.017614952242913</speed>
  <fix>3d</fix>
</trkpt>
<trkpt lat="40.0714484" lon="-105.2296704">
  <ele>1583.0</ele>
  <time>2026-08-28T17:52:15Z</time>
  <course>67.42</course>
  <speed>3.02</speed>
  <fix>3d</fix>
</trkpt>
<trkpt lat="40.0714523" lon="-105.2296559">
  <ele>1583.1</ele>
  <time>2026-08-28T17:52:15Z</time>
  <course>69.87</course>
  <speed>3.01705154082591</speed>
  <fix>3d</fix>
</trkpt>
<trkpt lat="40.0714505" lon="-105.2296638">
  <ele>1583.0</ele>
  <time>2026-08-28T17:52:15Z</time>
  <course>68.63</course>
  <speed>3.02</speed>
  <fix>3d</fix>
</trkpt>
<trkpt lat="40.0714532" lon="-105.2296526">
  <ele>1583.1</ele>
  <time>2026-08-28T17:52:15Z</time>
  <course>70.48</course>
  <speed>3.016819517306264</speed>
  <fix>3d</fix>
</trkpt>
<trkpt lat="40.0714505" lon="-105.2296638">
  <ele>1583.0</ele>
  <time>2026-08-28T17:52:15Z</time>
  <course>68.63</course>
  <speed>3.02</speed>
  <fix>3d</fix>
</trkpt>
<trkpt lat="40.0714541" lon="-105.2296492">
  <ele>1583.09</ele>
  <time>2026-08-28T17:52:15Z</time>
  <course>71.08</course>
  <speed>3.0200165562460084</speed>
  <fix>3d</fix>
</trkpt>
<trkpt lat="40.0714524" lon="-105.2296571">
  <ele>1583.0</ele>
  <time>2026-08-28T17:52:15Z</time>
  <course>69.83</course>
  <speed>3.02</speed>
  <fix>3d</fix>
</trkpt>
<trkpt lat="40.071455" lon="-105.2296459">
  <ele>1583.09</ele>
  <time>2026-08-28T17:52:15Z</time>
  <course>71.68</course>
  <speed>3.010813843464919</speed>
  <fix>3d</fix>
</trkpt>
<trkpt lat="40.0714524" lon="-105.2296571">
  <ele>1583.0</ele>
  <time>2026-08-28T17:52:15Z</time>
  <course>69.83</course>
  <speed>3.02</speed>
  <fix>3d</fix>
</trkpt>
<trkpt lat="40.0714558" lon="-105.2296426">
  <ele>1583.09</ele>
  <time>2026-08-28T17:52:15Z</time>
  <course>72.28</course>
  <speed>3.0114448359549937</speed>
  <fix>3d</fix>
</trkpt>
<trkpt lat="40.0714542" lon="-105.2296504">
  <ele>1583.0</ele>
  <time>2026-08-28T17:52:15Z</time>
  <course>71.02</course>
  <speed>3.02</speed>
  <fix>3d</fix>
</trkpt>
<trkpt lat="40.0714566" lon="-105.2296392">
  <ele>1583.09</ele>
  <time>2026-08-28T17:52:15Z</time>
  <course>72.87</course>
  <speed>3.0124076749337894</speed>
  <fix>3d</fix>
</trkpt>
<trkpt lat="40.0714559" lon="-105.2296437">
  <ele>1583.0</ele>
  <time>2026-08-28T17:52:15Z</time>
  <course>72.19</course>
  <speed>3.03</speed>
  <fix>3d</fix>
</trkpt>
<trkpt lat="40.0714574" lon="-105.2296358">
  <ele>1583.09</ele>
  <time>2026-08-28T17:52:15Z</time>
  <course>73.45</course>
  <speed>3.0137020423392884</speed>
  <fix>3d</fix>
</trkpt>
<trkpt lat="40.0714559" lon="-105.2296437">
  <ele>1583.0</ele>
  <time>2026-08-28T17:52:15Z</time>
  <course>72.19</course>
  <speed>3.03</speed>
  <fix>3d</fix>
</trkpt>
<trkpt lat="40.0714582" lon="-105.2296324">
  <ele>1583.09</ele>
  <time>2026-08-28T17:52:15Z</time>
  <course>74.02</course>
  <speed>3.017962889102515</speed>
  <fix>3d</fix>
</trkpt>
<trkpt lat="40.0714575" lon="-105.2296369">
  <ele>1583.0</ele>
  <time>2026-08-28T17:52:15Z</time>
  <course>73.36</course>
  <speed>3.03</speed>
  <fix>3d</fix>
</trkpt>
<trkpt lat="40.0714589" lon="-105.229629">
  <ele>1583.09</ele>
  <time>2026-08-28T17:52:15Z</time>
  <course>74.59</course>
  <speed>3.0101494979485652</speed>
  <fix>3d</fix>
</trkpt>
<trkpt lat="40.0714575" lon="-105.2296369">
  <ele>1583.0</ele>
  <time>2026-08-28T17:52:15Z</time>
  <course>73.36</course>
  <speed>3.03</speed>
  <fix>3d</fix>
</trkpt>
<trkpt lat="40.0714597" lon="-105.2296256">
  <ele>1583.09</ele>
  <time>2026-08-28T17:52:15Z</time>
  <course>75.16</course>
  <speed>3.0123080851732285</speed>
  <fix>3d</fix>
</trkpt>
<trkpt lat="40.071459" lon="-105.2296301">
  <ele>1583.0</ele>
  <time>2026-08-28T17:52:15Z</time>
  <course>74.52</course>
  <speed>3.03</speed>
  <fix>3d</fix>
</trkpt>
<trkpt lat="40.0714603" lon="-105.2296221">
  <ele>1583.1</ele>
  <time>2026-08-28T17:52:15Z</time>
  <course>75.72</course>
  <speed>3.014796842243271</speed>
  <fix>3d</fix>
</trkpt>
<trkpt lat="40.071459" lon="-105.2296301">
  <ele>1583.0</ele>
  <time>2026-08-28T17:52:15Z</time>
  <course>74.52</course>
  <speed>3.03</speed>
  <fix>3d</fix>
</trkpt>
<trkpt lat="40.071461" lon="-105.2296186">
  <ele>1583.1</ele>
  <time>2026-08-28T17:52:15Z</time>
  <course>76.29</course>
  <speed>3.007873002638243</speed>
  <fix>3d</fix>
</trkpt>
<trkpt lat="40.0714604" lon="-105.2296232">
  <ele>1583.0</ele>
  <time>2026-08-28T17:52:15Z</time>
  <course>75.68</course>
  <speed>3.03</speed>
  <fix>3d</fix>
</trkpt>
<trkpt lat="40.0714616" lon="-105.2296152">
  <ele>1583.1</ele>
  <time>2026-08-28T17:52:15Z</time>
  <course>76.86</course>
  <speed>2.950254226333724</speed>
  <fix>3d</fix>
</trkpt>
<trkpt lat="40.0714604" lon="-105.2296232">
  <ele>1583.0</ele>
  <time>2026-08-28T17:52:15Z</time>
  <course>75.68</course>
  <speed>3.03</speed>
  <fix>3d</fix>
</trkpt>
<trkpt lat="40.0714622" lon="-105.2296118">
  <ele>1583.1</ele>
  <time>2026-08-28T17:52:15Z</time>
  <course>77.44</course>
  <speed>2.8202836736753985</speed>
  <fix>3d</fix>
</trkpt>
<trkpt lat="40.0714617" lon="-105.2296164">
  <ele>1583.0</ele>
  <time>2026-08-28T17:52:15Z</time>
  <course>76.83</course>
  <speed>2.93</speed>
  <fix>3d</fix>
</trkpt>
<trkpt lat="40.0714627" lon="-105.2296087">
  <ele>1583.11</ele>
  <time>2026-08-28T17:52:15Z</time>
  <course>78.02</course>
  <speed>2.661296676434253</speed>
  <fix>3d</fix>
</trkpt>
<trkpt lat="40.0714617" lon="-105.2296164">
  <ele>1583.0</ele>
  <time>2026-08-28T17:52:15Z</time>
  <course>76.83</course>
  <speed>2.93</speed>
  <fix>3d</fix>
</trkpt>
<trkpt lat="40.0714632" lon="-105.2296057">
  <ele>1583.11</ele>
  <time>2026-08-28T17:52:15Z</time>
  <course>78.6</course>
  <speed>2.4731558786295698</speed>
  <fix>3d</fix>
</trkpt>
<trkpt lat="40.0714628" lon="-105.2296099">
  <ele>1583.0</ele>
  <time>2026-08-28T17:52:15Z</time>
  <course>78.02</course>
  <speed>2.67</speed>
  <fix>3d</fix>
</trkpt>
<trkpt lat="40.0714636" lon="-105.229603">
  <ele>1583.11</ele>
  <time>2026-08-28T17:52:15Z</time>
  <course>79.19</course>
  <speed>2.273697429298806</speed>
  <fix>3d</fix>
</trkpt>
<trkpt lat="40.0714628" lon="-105.2296099">
  <ele>1583.0</ele>
  <time>2026-08-28T17:52:15Z</time>
  <course>78.02</course>
  <speed>2.67</speed>
  <fix>3d</fix>
</trkpt>
<trkpt lat="40.071464" lon="-105.2296005">
  <ele>1583.11</ele>
  <time>2026-08-28T17:52:15Z</time>
  <course>79.79</course>
  <speed>2.066518811915343</speed>
  <fix>3d</fix>
</trkpt>
<trkpt lat="40.0714636" lon="-105.2296041">
  <ele>1583.0</ele>
  <time>2026-08-28T17:52:15Z</time>
  <course>79.26</course>
  <speed>2.3</speed>
  <fix>3d</fix>
</trkpt>
<trkpt lat="40.0714643" lon="-105.2295982">
  <ele>1583.11</ele>
  <time>2026-08-28T17:52:15Z</time>
  <course>80.39</course>
  <speed>1.8611824198610947</speed>
  <fix>3d</fix>
</trkpt>
<trkpt lat="40.0714636" lon="-105.2296041">
  <ele>1583.0</ele>
  <time>2026-08-28T17:52:15Z</time>
  <course>79.26</course>
  <speed>2.3</speed>
  <fix>3d</fix>
</trkpt>
<trkpt lat="40.0714645" lon="-105.2295962">
  <ele>1583.11</ele>
  <time>2026-08-28T17:52:15Z</time>
  <course>81.0</course>
  <speed>1.6546903033498443</speed>
  <fix>3d</fix>
</trkpt>
<trkpt lat="40.0714636" lon="-105.2296041">
  <ele>1583.0</ele>
  <time>2026-08-28T17:52:15Z</time>
  <course>79.26</course>
  <speed>2.3</speed>
  <fix>3d</fix>
</trkpt>
<trkpt lat="40.0714647" lon="-105.2295944">
  <ele>1583.11</ele>
  <time>2026-08-28T17:52:15Z</time>
  <course>81.63</course>
  <speed>1.4512063946937388</speed>
  <fix>3d</fix>
</trkpt>
<trkpt lat="40.0714643" lon="-105.2295992">
  <ele>1583.0</ele>
  <time>2026-08-28T17:52:15Z</time>
  <course>80.56</course>
  <speed>1.89</speed>
  <fix>3d</fix>
</trkpt>
<trkpt lat="40.0714648" lon="-105.2295929">
  <ele>1583.11</ele>
  <time>2026-08-28T17:52:15Z</time>
  <course>82.25</course>
  <speed>1.2567418191498205</speed>
  <fix>3d</fix>
</trkpt>
<trkpt lat="40.0714643" lon="-105.2295992">
  <ele>1583.0</ele>
  <time>2026-08-28T17:52:15Z</time>
  <course>80.56</course>
  <speed>1.89</speed>
  <fix>3d</fix>
</trkpt>
<trkpt lat="40.071465" lon="-105.2295916">
  <ele>1583.11</ele>
  <time>2026-08-28T17:52:15Z</time>
  <course>82.87</course>
  <speed>1.0647065323364933</speed>
  <fix>3d</fix>
</trkpt>
<trkpt lat="40.0714648" lon="-105.2295953">
  <ele>1583.0</ele>
  <time>2026-08-28T17:52:15Z</time>
  <course>81.94</course>
  <speed>1.49</speed>
  <fix>3d</fix>
</trkpt>
<trkpt lat="40.0714651" lon="-105.2295905">
  <ele>1583.11</ele>
  <time>2026-08-28T17:52:15Z</time>
  <course>83.49</course>
  <speed>0.8820430828479978</speed>
  <fix>3d</fix>
</trkpt>
<trkpt lat="40.0714648" lon="-105.2295953">
  <ele>1583.0</ele>
  <time>2026-08-28T17:52:15Z</time>
  <course>81.94</course>
  <speed>1.49</speed>
  <fix>3d</fix>
</trkpt>
<trkpt lat="40.0714651" lon="-105.2295896">
  <ele>1583.11</ele>
  <time>2026-08-28T17:52:15Z</time>
  <course>84.11</course>
  <speed>0.711125867902441</speed>
  <fix>3d</fix>
</trkpt>
<trkpt lat="40.0714651" lon="-105.2295924">
  <ele>1583.0</ele>
  <time>2026-08-28T17:52:15Z</time>
  <course>83.44</course>
  <speed>1.11</speed>
  <fix>3d</fix>
</trkpt>
<trkpt lat="40.0714652" lon="-105.2295889">
  <ele>1583.11</ele>
  <time>2026-08-28T17:52:15Z</time>
  <course>84.73</course>
  <speed>0.5800862004909271</speed>
  <fix>3d</fix>
</trkpt>
<trkpt lat="40.0714651" lon="-105.2295924">
  <ele>1583.0</ele>
  <time>2026-08-28T17:52:15Z</time>
  <course>83.44</course>
  <speed>1.11</speed>
  <fix>3d</fix>
</trkpt>
<trkpt lat="40.0714652" lon="-105.2295883">
  <ele>1583.11</ele>
  <time>2026-08-28T17:52:15Z</time>
  <course>85.35</course>
  <speed>0.49</speed>
  <fix>3d</fix>
</trkpt>
<trkpt lat="40.0714653" lon="-105.2295901">
  <ele>1583.0</ele>
  <time>2026-08-28T17:52:15Z</time>
  <course>85.12</course>
  <speed>0.78</speed>
  <fix>3d</fix>
</trkpt>
<trkpt lat="40.0714652" lon="-105.2295878">
  <ele>1583.11</ele>
  <time>2026-08-28T17:52:15Z</time>
  <course>85.95</course>
  <speed>0.43</speed>
  <fix>3d</fix>
</trkpt>
<trkpt lat="40.0714654" lon="-105.2295886">
  <ele>1583.0</ele>
  <time>2026-08-28T17:52:15Z</time>
  <course>87.0</course>
  <speed>0.56</speed>
  <fix>3d</fix>
</trkpt>
<trkpt lat="40.0714652" lon="-105.2295873">
  <ele>1583.11</ele>
  <time>2026-08-28T17:52:15Z</time>
  <course>86.54</course>
  <speed>0.4001249804748511</speed>
  <fix>3d</fix>
</trkpt>
<trkpt lat="40.0714654" lon="-105.2295886">
  <ele>1583.0</ele>
  <time>2026-08-28T17:52:15Z</time>
  <course>87.0</course>
  <speed>0.56</speed>
  <fix>3d</fix>
</trkpt>
<trkpt lat="40.0714652" lon="-105.2295868">
  <ele>1583.11</ele>
  <time>2026-08-28T17:52:15Z</time>
  <course>87.13</course>
  <speed>0.41012193308819755</speed>
  <fix>3d</fix>
</trkpt>
<trkpt lat="40.0714654" lon="-105.2295874">
  <ele>1583.0</ele>
  <time>2026-08-28T17:52:15Z</time>
  <course>88.63</course>
  <speed>0.47</speed>
  <fix>3d</fix>
</trkpt>
<trkpt lat="40.0714652" lon="-105.2295863">
  <ele>1583.12</ele>
  <time>2026-08-28T17:52:15Z</time>
  <course>87.71</course>
  <speed>0.4304648650006177</speed>
  <fix>3d</fix>
</trkpt>
<trkpt lat="40.0714654" lon="-105.2295874">
  <ele>1583.0</ele>
  <time>2026-08-28T17:52:15Z</time>
  <course>88.63</course>
  <speed>0.47</speed>
  <fix>3d</fix>
</trkpt>
<trkpt lat="40.0714652" lon="-105.2295858">
  <ele>1583.12</ele>
  <time>2026-08-28T17:52:15Z</time>
  <course>88.27</course>
  <speed>0.4604345773288535</speed>
  <fix>3d</fix>
</trkpt>
<trkpt lat="40.0714654" lon="-105.2295862">
  <ele>1583.0</ele>
  <time>2026-08-28T17:52:15Z</time>
  <course>89.72</course>
  <speed>0.49</speed>
  <fix>3d</fix>
</trkpt>
<trkpt lat="40.0714652" lon="-105.2295851">
  <ele>1583.11</ele>
  <time>2026-08-28T17:52:15Z</time>
  <course>88.83</course>
  <speed>0.5108815909777921</speed>
  <fix>3d</fix>
</trkpt>
<trkpt lat="40.0714654" lon="-105.2295862">
  <ele>1583.0</ele>
  <time>2026-08-28T17:52:15Z</time>
  <course>89.72</course>
  <speed>0.49</speed>
  <fix>3d</fix>
</trkpt>
<trkpt lat="40.0714652" lon="-105.2295845">
  <ele>1583.11</ele>
  <time>2026-08-28T17:52:15Z</time>
  <course>89.38</course>
  <speed>0.5608029957123981</speed>
  <fix>3d</fix>
</trkpt>
<trkpt lat="40.0714654" lon="-105.229585">
  <ele>1583.0</ele>
  <time>2026-08-28T17:52:15Z</time>
  <course>90.52</course>
  <speed>0.57</speed>
  <fix>3d</fix>
</trkpt>
<trkpt lat="40.0714652" lon="-105.2295837">
  <ele>1583.11</ele>
  <time>2026-08-28T17:52:15Z</time>
  <course>89.92</course>
  <speed>0.6013318551349163</speed>
  <fix>3d</fix>
</trkpt>
<trkpt lat="40.0714654" lon="-105.229585">
  <ele>1583.0</ele>
  <time>2026-08-28T17:52:15Z</time>
  <course>90.52</course>
  <speed>0.57</speed>
  <fix>3d</fix>
</trkpt>
<trkpt lat="40.0714652" lon="-105.2295829">
  <ele>1583.11</ele>
  <time>2026-08-28T17:52:15Z</time>
  <course>90.45</course>
  <speed>0.6512296062065974</speed>
  <fix>3d</fix>
</trkpt>
<trkpt lat="40.0714654" lon="-105.2295835">
  <ele>1583.0</ele>
  <time>2026-08-28T17:52:15Z</time>
  <course>91.29</course>
  <speed>0.66</speed>
  <fix>3d</fix>
</trkpt>
<trkpt lat="40.0714652" lon="-105.2295821">
  <ele>1583.11</ele>
  <time>2026-08-28T17:52:15Z</time>
  <course>90.96</course>
  <speed>0.691809222257119</speed>
  <fix>3d</fix>
</trkpt>
<trkpt lat="40.0714654" lon="-105.2295835">
  <ele>1583.0</ele>
  <time>2026-08-28T17:52:15Z</time>
  <course>91.29</course>
  <speed>0.66</speed>
  <fix>3d</fix>
</trkpt>
<trkpt lat="40.0714652" lon="-105.2295812">
  <ele>1583.11</ele>
  <time>2026-08-28T17:52:15Z</time>
  <course>91.46</course>
  <speed>0.7224956747275377</speed>
  <fix>3d</fix>
</trkpt>
<trkpt lat="40.0714654" lon="-105.2295819">
  <ele>1583.0</ele>
  <time>2026-08-28T17:52:15Z</time>
  <course>92.11</course>
  <speed>0.74</speed>
  <fix>3d</fix>
</trkpt>
<trkpt lat="40.0714652" lon="-105.2295803">
  <ele>1583.12</ele>
  <time>2026-08-28T17:52:15Z</time>
  <course>91.95</course>
  <speed>0.7433034373659253</speed>
  <fix>3d</fix>
</trkpt>
<trkpt lat="40.0714654" lon="-105.2295819">
  <ele>1583.0</ele>
  <time>2026-08-28T17:52:15Z</time>
  <course>92.11</course>
  <speed>0.74</speed>
  <fix>3d</fix>
</trkpt>
<trkpt lat="40.0714651" lon="-105.2295793">
  <ele>1583.11</ele>
  <time>2026-08-28T17:52:15Z</time>
  <course>92.43</course>
  <speed>0.7632168761236874</speed>
  <fix>3d</fix>
</trkpt>
<trkpt lat="40.0714654" lon="-105.2295801">
  <ele>1583.0</ele>
  <time>2026-08-28T17:52:15Z</time>
  <course>92.97</course>
  <speed>0.79</speed>
  <fix>3d</fix>
</trkpt>
<trkpt lat="40.0714651" lon="-105.2295784">
  <ele>1583.12</ele>
  <time>2026-08-28T17:52:15Z</time>
  <course>92.89</course>
  <speed>0.7741446893184762</speed>
  <fix>3d</fix>
</trkpt>
<trkpt lat="40.0714654" lon="-105.2295801">
  <ele>1583.0</ele>
  <time>2026-08-28T17:52:15Z</time>
  <course>92.97</course>
  <speed>0.79</speed>
  <fix>3d</fix>
</trkpt>
<trkpt lat="40.071465" lon="-105.2295774">
  <ele>1583.12</ele>
  <time>2026-08-28T17:52:15Z</time>
  <course>93.34</course>
  <speed>0.7752418977325722</speed>
  <fix>3d</fix>
</trkpt>
<trkpt lat="40.0714654" lon="-105.2295801">
  <ele>1583.0</ele>
  <time>2026-08-28T17:52:15Z</time>
  <course>92.97</course>
  <speed>0.79</speed>
  <fix>3d</fix>
</trkpt>
<trkpt lat="40.0714649" lon="-105.2295765">
  <ele>1583.12</ele>
  <time>2026-08-28T17:52:15Z</time>
  <course>93.77</course>
  <speed>0.7653103945458993</speed>
  <fix>3d</fix>
</trkpt>
<trkpt lat="40.0714653" lon="-105.2295782">
  <ele>1583.0</ele>
  <time>2026-08-28T17:52:15Z</time>
  <course>93.85</course>
  <speed>0.81</speed>
  <fix>3d</fix>
</trkpt>
<trkpt lat="40.0714649" lon="-105.2295755">
  <ele>1583.11</ele>
  <time>2026-08-28T17:52:15Z</time>
  <course>94.19</course>
  <speed>0.766550715869472</speed>
  <fix>3d</fix>
</trkpt>
<trkpt lat="40.0714653" lon="-105.2295782">
  <ele>1583.0</ele>
  <time>2026-08-28T17:52:15Z</time>
  <course>93.85</course>
  <speed>0.81</speed>
  <fix>3d</fix>
</trkpt>
<trkpt lat="40.0714648" lon="-105.2295746">
  <ele>1583.11</ele>
  <time>2026-08-28T17:52:15Z</time>
  <course>94.6</course>
  <speed>0.7566372975210779</speed>
  <fix>3d</fix>
</trkpt>
<trkpt lat="40.0714652" lon="-105.2295763">
  <ele>1583.0</ele>
  <time>2026-08-28T17:52:15Z</time>
  <course>94.72</course>
  <speed>0.81</speed>
  <fix>3d</fix>
</trkpt>
<trkpt lat="40.0714648" lon="-105.2295737">
  <ele>1583.11</ele>
  <time>2026-08-28T17:52:15Z</time>
  <course>94.99</course>
  <speed>0.7382411530116699</speed>
  <fix>3d</fix>
</trkpt>
<trkpt lat="40.0714652" lon="-105.2295763">
  <ele>1583.0</ele>
  <time>2026-08-28T17:52:15Z</time>
  <course>94.72</course>
  <speed>0.81</speed>
  <fix>3d</fix>
</trkpt>
<trkpt lat="40.0714647" lon="-105.2295728">
  <ele>1583.11</ele>
  <time>2026-08-28T17:52:15Z</time>
  <course>95.37</course>
  <speed>0.7283543093852057</speed>
  <fix>3d</fix>
</trkpt>
<trkpt lat="40.0714651" lon="-105.2295744">
  <ele>1583.0</ele>
  <time>2026-08-28T17:52:15Z</time>
  <course>95.57</course>
  <speed>0.79</speed>
  <fix>3d</fix>
</trkpt>
<trkpt lat="40.0714646" lon="-105.2295719">
  <ele>1583.11</ele>
  <time>2026-08-28T17:52:15Z</time>
  <course>95.74</course>
  <speed>0.708590149522275</speed>
  <fix>3d</fix>
</trkpt>
<trkpt lat="40.0714649" lon="-105.2295726">
  <ele>1583.0</ele>
  <time>2026-08-28T17:52:15Z</time>
  <course>96.38</course>
  <speed>0.76</speed>
  <fix>3d</fix>
</trkpt>
<trkpt lat="40.0714645" lon="-105.229571">
  <ele>1583.11</ele>
  <time>2026-08-28T17:52:15Z</time>
  <course>96.09</course>
  <speed>0.6987131027825368</speed>
  <fix>3d</fix>
</trkpt>
<trkpt lat="40.0714649" lon="-105.2295726">
  <ele>1583.0</ele>
  <time>2026-08-28T17:52:15Z</time>
  <course>96.38</course>
  <speed>0.76</speed>
  <fix>3d</fix>
</trkpt>
<trkpt lat="40.0714645" lon="-105.2295702">
  <ele>1583.11</ele>
  <time>2026-08-28T17:52:15Z</time>
  <course>96.43</course>
  <speed>0.6806614430096655</speed>
  <fix>3d</fix>
</trkpt>
<trkpt lat="40.0714648" lon="-105.2295709">
  <ele>1583.0</ele>
  <time>2026-08-28T17:52:15Z</time>
  <course>97.16</course>
  <speed>0.73</speed>
  <fix>3d</fix>
</trkpt>
<trkpt lat="40.0714644" lon="-105.2295693">
  <ele>1583.11</ele>
  <time>2026-08-28T17:52:15Z</time>
  <course>96.75</course>
  <speed>0.6708203932499369</speed>
  <fix>3d</fix>
</trkpt>
<trkpt lat="40.0714648" lon="-105.2295709">
  <ele>1583.0</ele>
  <time>2026-08-28T17:52:15Z</time>
  <course>97.16</course>
  <speed>0.73</speed>
  <fix>3d</fix>
</trkpt>
<trkpt lat="40.0714643" lon="-105.2295685">
  <ele>1583.11</ele>
  <time>2026-08-28T17:52:15Z</time>
  <course>97.07</course>
  <speed>0.6609841147864296</speed>
  <fix>3d</fix>
</trkpt>
<trkpt lat="40.0714646" lon="-105.2295691">
  <ele>1583.0</ele>
  <time>2026-08-28T17:52:15Z</time>
  <course>97.89</course>
  <speed>0.7</speed>
  <fix>3d</fix>
</trkpt>
<trkpt lat="40.0714642" lon="-105.2295677">
  <ele>1583.11</ele>
  <time>2026-08-28T17:52:15Z</time>
  <course>97.37</course>
  <speed>0.6413267497929586</speed>
  <fix>3d</fix>
</trkpt>
<trkpt lat="40.0714646" lon="-105.2295691">
  <ele>1583.0</ele>
  <time>2026-08-28T17:52:15Z</time>
  <course>97.89</course>
  <speed>0.7</speed>
  <fix>3d</fix>
</trkpt>
<trkpt lat="40.0714641" lon="-105.2295669">
  <ele>1583.12</ele>
  <time>2026-08-28T17:52:15Z</time>
  <course>97.65</course>
  <speed>0.6315061361538777</speed>
  <fix>3d</fix>
</trkpt>
<trkpt lat="40.0714644" lon="-105.2295676">
  <ele>1583.0</ele>
  <time>2026-08-28T17:52:15Z</time>
  <course>98.57</course>
  <speed>0.68</speed>
  <fix>3d</fix>
</trkpt>
<trkpt lat="40.071464" lon="-105.2295662">
  <ele>1583.12</ele>
  <time>2026-08-28T17:52:15Z</time>
  <course>97.93</course>
  <speed>0.6216912416947821</speed>
  <fix>3d</fix>
</trkpt>
<trkpt lat="40.0714644" lon="-105.2295676">
  <ele>1583.0</ele>
  <time>2026-08-28T17:52:15Z</time>
  <course>98.57</course>
  <speed>0.68</speed>
  <fix>3d</fix>
</trkpt>
<trkpt lat="40.0714639" lon="-105.2295654">
  <ele>1583.12</ele>
  <time>2026-08-28T17:52:15Z</time>
  <course>98.2</course>
  <speed>0.6139218191268331</speed>
  <fix>3d</fix>
</trkpt>
<trkpt lat="40.0714643" lon="-105.229566">
  <ele>1583.0</ele>
  <time>2026-08-28T17:52:15Z</time>
  <course>99.19</course>
  <speed>0.65</speed>
  <fix>3d</fix>
</trkpt>
<trkpt lat="40.0714638" lon="-105.2295647">
  <ele>1583.13</ele>
  <time>2026-08-28T17:52:15Z</time>
  <course>98.45</course>
  <speed>0.6041522986797286</speed>
  <fix>3d</fix>
</trkpt>
<trkpt lat="40.0714643" lon="-105.229566">
  <ele>1583.0</ele>
  <time>2026-08-28T17:52:15Z</time>
  <course>99.19</course>
  <speed>0.65</speed>
  <fix>3d</fix>
</trkpt>
<trkpt lat="40.0714638" lon="-105.2295639">
  <ele>1583.13</ele>
  <time>2026-08-28T17:52:15Z</time>
  <course>98.69</course>
  <speed>0.5943904440685432</speed>
  <fix>3d</fix>
</trkpt>
<trkpt lat="40.0714641" lon="-105.2295645">
  <ele>1583.0</ele>
  <time>2026-08-28T17:52:15Z</time>
  <course>99.77</course>
  <speed>0.63</speed>
  <fix>3d</fix>
</trkpt>
<trkpt lat="40.0714637" lon="-105.2295632">
  <ele>1583.13</ele>
  <time>2026-08-28T17:52:15Z</time>
  <course>98.92</course>
  <speed>0.5846366392897386</speed>
  <fix>3d</fix>
</trkpt>
<trkpt lat="40.0714641" lon="-105.2295645">
  <ele>1583.0</ele>
  <time>2026-08-28T17:52:15Z</time>
  <course>99.77</course>
  <speed>0.63</speed>
  <fix>3d</fix>
</trkpt>
<trkpt lat="40.0714636" lon="-105.2295625">
  <ele>1583.13</ele>
  <time>2026-08-28T17:52:15Z</time>
  <course>99.14</course>
  <speed>0.5748912940721924</speed>
  <fix>3d</fix>
</trkpt>
<trkpt lat="40.0714639" lon="-105.229563">
  <ele>1583.0</ele>
  <time>2026-08-28T17:52:15Z</time>
  <course>100.3</course>
  <speed>0.61</speed>
  <fix>3d</fix>
</trkpt>
<trkpt lat="40.0714635" lon="-105.2295618">
  <ele>1583.13</ele>
  <time>2026-08-28T17:52:15Z</time>
  <course>99.35</course>
  <speed>0.5651548460377916</speed>
  <fix>3d</fix>
</trkpt>
<trkpt lat="40.0714639" lon="-105.229563">
  <ele>1583.0</ele>
  <time>2026-08-28T17:52:15Z</time>
  <course>100.3</course>
  <speed>0.61</speed>
  <fix>3d</fix>
</trkpt>
<trkpt lat="40.0714634" lon="-105.2295611">
  <ele>1583.13</ele>
  <time>2026-08-28T17:52:15Z</time>
  <course>99.55</course>
  <speed>0.5554277630799526</speed>
  <fix>3d</fix>
</trkpt>
<trkpt lat="40.0714639" lon="-105.229563">
  <ele>1583.0</ele>
  <time>2026-08-28T17:52:15Z</time>
  <course>100.3</course>
  <speed>0.61</speed>
  <fix>3d</fix>
</trkpt>
<trkpt lat="40.0714633" lon="-105.2295604">
  <ele>1583.13</ele>
  <time>2026-08-28T17:52:15Z</time>
  <course>99.73</course>
  <speed>0.5457105459856901</speed>
  <fix>3d</fix>
</trkpt>
<trkpt lat="40.0714636" lon="-105.2295616">
  <ele>1583.0</ele>
  <time>2026-08-28T17:52:15Z</time>
  <course>100.78</course>
  <speed>0.59</speed>
  <fix>3d</fix>
</trkpt>
<trkpt lat="40.0714632" lon="-105.2295598">
  <ele>1583.13</ele>
  <time>2026-08-28T17:52:15Z</time>
  <course>99.91</course>
  <speed>0.5457105459856901</speed>
  <fix>3d</fix>
</trkpt>
<trkpt lat="40.0714636" lon="-105.2295616">
  <ele>1583.0</ele>
  <time>2026-08-28T17:52:15Z</time>
  <course>100.78</course>
  <speed>0.59</speed>
  <fix>3d</fix>
</trkpt>
<trkpt lat="40.0714631" lon="-105.2295591">
  <ele>1583.13</ele>
  <time>2026-08-28T17:52:15Z</time>
  <course>100.08</course>
  <speed>0.5360037313302959</speed>
  <fix>3d</fix>
</trkpt>
<trkpt lat="40.0714635" lon="-105.2295603">
  <ele>1583.0</ele>
  <time>2026-08-28T17:52:15Z</time>
  <course>101.22</course>
  <speed>0.57</speed>
  <fix>3d</fix>
</trkpt>
<trkpt lat="40.071463" lon="-105.2295585">
  <ele>1583.13</ele>
  <time>2026-08-28T17:52:15Z</time>
  <course>100.23</course>
  <speed>0.5263078946776306</speed>
  <fix>3d</fix>
</trkpt>
<trkpt lat="40.0714635" lon="-105.2295603">
  <ele>1583.0</ele>
  <time>2026-08-28T17:52:15Z</time>
  <course>101.22</course>
  <speed>0.57</speed>
  <fix>3d</fix>
</trkpt>
<trkpt lat="40.0714629" lon="-105.2295579">
  <ele>1583.13</ele>
  <time>2026-08-28T17:52:15Z</time>
  <course>100.38</course>
  <speed>0.5166236541235796</speed>
  <fix>3d</fix>
</trkpt>
<trkpt lat="40.0714633" lon="-105.229559">
  <ele>1583.0</ele>
  <time>2026-08-28T17:52:15Z</time>
  <course>101.63</course>
  <speed>0.56</speed>
  <fix>3d</fix>
</trkpt>
<trkpt lat="40.0714628" lon="-105.2295572">
  <ele>1583.13</ele>
  <time>2026-08-28T17:52:15Z</time>
  <course>100.52</course>
  <speed>0.5069516742254631</speed>
  <fix>3d</fix>
</trkpt>
<trkpt lat="40.0714633" lon="-105.229559">
  <ele>1583.0</ele>
  <time>2026-08-28T17:52:15Z</time>
  <course>101.63</course>
  <speed>0.56</speed>
  <fix>3d</fix>
</trkpt>
<trkpt lat="40.0714627" lon="-105.2295566">
  <ele>1583.13</ele>
  <time>2026-08-28T17:52:15Z</time>
  <course>100.65</course>
  <speed>0.5069516742254631</speed>
  <fix>3d</fix>
</trkpt>
<trkpt lat="40.0714631" lon="-105.2295578">
  <ele>1583.0</ele>
  <time>2026-08-28T17:52:15Z</time>
  <course>101.99</course>
  <speed>0.54</speed>
  <fix>3d</fix>
</trkpt>
<trkpt lat="40.0714626" lon="-105.229556">
  <ele>1583.13</ele>
  <time>2026-08-28T17:52:15Z</time>
  <course>100.77</course>
  <speed>0.49729267036625424</speed>
  <fix>3d</fix>
</trkpt>
<trkpt lat="40.0714629" lon="-105.2295565">
  <ele>1583.0</ele>
  <time>2026-08-28T17:52:15Z</time>
  <course>102.32</course>
  <speed>0.52</speed>
  <fix>3d</fix>
</trkpt>
<trkpt lat="40.0714625" lon="-105.2295554">
  <ele>1583.13</ele>
  <time>2026-08-28T17:52:15Z</time>
  <course>100.87</course>
  <speed>0.4850773134253961</speed>
  <fix>3d</fix>
</trkpt>
<trkpt lat="40.0714629" lon="-105.2295565">
  <ele>1583.0</ele>
  <time>2026-08-28T17:52:15Z</time>
  <course>102.32</course>
  <speed>0.52</speed>
  <fix>3d</fix>
</trkpt>
<trkpt lat="40.0714624" lon="-105.2295549">
  <ele>1583.13</ele>
  <time>2026-08-28T17:52:15Z</time>
  <course>100.97</course>
  <speed>0.4850773134253961</speed>
  <fix>3d</fix>
</trkpt>
<trkpt lat="40.0714627" lon="-105.2295553">
  <ele>1583.0</ele>
  <time>2026-08-28T17:52:15Z</time>
  <course>102.61</course>
  <speed>0.51</speed>
  <fix>3d</fix>
</trkpt>
<trkpt lat="40.0714623" lon="-105.2295543">
  <ele>1583.13</ele>
  <time>2026-08-28T17:52:15Z</time>
  <course>101.07</course>
  <speed>0.4753945729601885</speed>
  <fix>3d</fix>
</trkpt>
<trkpt lat="40.0714627" lon="-105.2295553">
  <ele>1583.0</ele>
  <time>2026-08-28T17:52:15Z</time>
  <course>102.61</course>
  <speed>0.51</speed>
  <fix>3d</fix>
</trkpt>
<trkpt lat="40.0714622" lon="-105.2295537">
  <ele>1583.13</ele>
  <time>2026-08-28T17:52:15Z</time>
  <course>101.15</course>
  <speed>0.4657252408878007</speed>
  <fix>3d</fix>
</trkpt>
<trkpt lat="40.0714624" lon="-105.2295542">
  <ele>1583.0</ele>
  <time>2026-08-28T17:52:15Z</time>
  <course>102.87</course>
  <speed>0.49</speed>
  <fix>3d</fix>
</trkpt>
<trkpt lat="40.0714621" lon="-105.2295531">
  <ele>1583.13</ele>
  <time>2026-08-28T17:52:15Z</time>
  <course>101.23</course>
  <speed>0.45607017003965516</speed>
  <fix>3d</fix>
</trkpt>
<trkpt lat="40.0714624" lon="-105.2295542">
  <ele>1583.0</ele>
  <time>2026-08-28T17:52:15Z</time>
  <course>102.87</course>
  <speed>0.49</speed>
  <fix>3d</fix>
</trkpt>
<trkpt lat="40.071462" lon="-105.2295526">
  <ele>1583.14</ele>
  <time>2026-08-28T17:52:15Z</time>
  <course>101.31</course>
  <speed>0.4464302857109943</speed>
  <fix>3d</fix>
</trkpt>
<trkpt lat="40.0714623" lon="-105.229553">
  <ele>1583.0</ele>
  <time>2026-08-28T17:52:15Z</time>
  <course>103.11</course>
  <speed>0.48</speed>
  <fix>3d</fix>
</trkpt>
<trkpt lat="40.071462" lon="-105.2295521">
  <ele>1583.14</ele>
  <time>2026-08-28T17:52:15Z</time>
  <course>101.49</course>
  <speed>0.38600518131237566</speed>
  <fix>3d</fix>
</trkpt>
<trkpt lat="40.0714623" lon="-105.229553">
  <ele>1583.0</ele>
  <time>2026-08-28T17:52:15Z</time>
  <course>103.11</course>
  <speed>0.48</speed>
  <fix>3d</fix>
</trkpt>
<trkpt lat="40.0714619" lon="-105.2295517">
  <ele>1583.14</ele>
  <time>2026-08-28T17:52:15Z</time>
  <course>101.68</course>
  <speed>0.26248809496813374</speed>
  <fix>3d</fix>
</trkpt>
<trkpt lat="40.0714621" lon="-105.229552">
  <ele>1583.0</ele>
  <time>2026-08-28T17:52:15Z</time>
  <course>104.02</course>
  <speed>0.37</speed>
  <fix>3d</fix>
</trkpt>
<trkpt lat="40.0714618" lon="-105.2295515">
  <ele>1583.14</ele>
  <time>2026-08-28T17:52:15Z</time>
  <course>101.86</course>
  <speed>0.09433981132056603</speed>
  <fix>3d</fix>
</trkpt>
<trkpt lat="40.0714621" lon="-105.229552">
  <ele>1583.0</ele>
  <time>2026-08-28T17:52:15Z</time>
  <course>104.02</course>
  <speed>0.37</speed>
  <fix>3d</fix>
</trkpt>
<trkpt lat="40.0714618" lon="-105.2295515">
  <ele>1583.14</ele>
  <time>2026-08-28T17:52:15Z</time>
  <course>102.02</course>
  <speed>0.11045361017187261</speed>
  <fix>3d</fix>
</trkpt>
<trkpt lat="40.0714619" lon="-105.2295514">
  <ele>1583.0</ele>
  <time>2026-08-28T17:52:15Z</time>
  <course>113.27</course>
  <speed>0.09</speed>
  <fix>3d</fix>
</trkpt>
<trkpt lat="40.0714619" lon="-105.2295517">
  <ele>1583.13</ele>
  <time>2026-08-28T17:52:15Z</time>
  <course>102.18</course>
  <speed>0.3313608305156178</speed>
  <fix>3d</fix>
</trkpt>
<trkpt lat="40.0714619" lon="-105.2295514">
  <ele>1583.0</ele>
  <time>2026-08-28T17:52:15Z</time>
  <course>113.27</course>
  <speed>0.09</speed>
  <fix>3d</fix>
</trkpt>
<trkpt lat="40.0714619" lon="-105.2295523">
  <ele>1583.13</ele>
  <time>2026-08-28T17:52:15Z</time>
  <course>102.33</course>
  <speed>0.565685424949238</speed>
  <fix>3d</fix>
</trkpt>
<trkpt lat="40.0714619" lon="-105.2295517">
  <ele>1583.0</ele>
  <time>2026-08-28T17:52:15Z</time>
  <course>277.76</course>
  <speed>0.31</speed>
  <fix>3d</fix>
</trkpt>
<trkpt lat="40.0714619" lon="-105.229553">
  <ele>1583.14</ele>
  <time>2026-08-28T17:52:15Z</time>
  <course>102.46</course>
  <speed>0.7299315036357864</speed>
  <fix>3d</fix>
</trkpt>
<trkpt lat="40.0714619" lon="-105.2295517">
  <ele>1583.0</ele>
  <time>2026-08-28T17:52:15Z</time>
  <course>277.76</course>
  <speed>0.31</speed>
  <fix>3d</fix>
</trkpt>
<trkpt lat="40.0714621" lon="-105.2295539">
  <ele>1583.14</ele>
  <time>2026-08-28T17:52:15Z</time>
  <course>102.59</course>
  <speed>0.8220097323024831</speed>
  <fix>3d</fix>
</trkpt>
<trkpt lat="40.0714619" lon="-105.2295517">
  <ele>1583.0</ele>
  <time>2026-08-28T17:52:15Z</time>
  <course>277.76</course>
  <speed>0.31</speed>
  <fix>3d</fix>
</trkpt>
<trkpt lat="40.0714622" lon="-105.2295549">
  <ele>1583.13</ele>
  <time>2026-08-28T17:52:15Z</time>
  <course>102.71</course>
  <speed>0.8532877591996736</speed>
  <fix>3d</fix>
</trkpt>
<trkpt lat="40.0714621" lon="-105.2295528">
  <ele>1583.0</ele>
  <time>2026-08-28T17:52:15Z</time>
  <course>280.0</course>
  <speed>0.67</speed>
  <fix>3d</fix>
</trkpt>
<trkpt lat="40.0714624" lon="-105.2295559">
  <ele>1583.13</ele>
  <time>2026-08-28T17:52:15Z</time>
  <course>102.82</course>
  <speed>0.833606621854697</speed>
  <fix>3d</fix>
</trkpt>
<trkpt lat="40.0714621" lon="-105.2295528">
  <ele>1583.0</ele>
  <time>2026-08-28T17:52:15Z</time>
  <course>280.0</course>
  <speed>0.67</speed>
  <fix>3d</fix>
</trkpt>
<trkpt lat="40.0714625" lon="-105.2295568">
  <ele>1583.13</ele>
  <time>2026-08-28T17:52:15Z</time>
  <course>102.92</course>
  <speed>0.7826237921249263</speed>
  <fix>3d</fix>
</trkpt>
<trkpt lat="40.0714623" lon="-105.2295545">
  <ele>1583.0</ele>
  <time>2026-08-28T17:52:15Z</time>
  <course>280.52</course>
  <speed>0.8</speed>
  <fix>3d</fix>
</trkpt>
<trkpt lat="40.0714627" lon="-105.2295576">
  <ele>1583.13</ele>
  <time>2026-08-28T17:52:15Z</time>
  <course>103.01</course>
  <speed>0.7102112361825881</speed>
  <fix>3d</fix>
</trkpt>
<trkpt lat="40.0714623" lon="-105.2295545">
  <ele>1583.0</ele>
  <time>2026-08-28T17:52:15Z</time>
  <course>280.52</course>
  <speed>0.8</speed>
  <fix>3d</fix>
</trkpt>
<trkpt lat="40.0714628" lon="-105.2295584">
  <ele>1583.13</ele>
  <time>2026-08-28T17:52:15Z</time>
  <course>103.1</course>
  <speed>0.6181423784210236</speed>
  <fix>3d</fix>
</trkpt>
<trkpt lat="40.0714624" lon="-105.2295563">
  <ele>1583.0</ele>
  <time>2026-08-28T17:52:15Z</time>
  <course>280.6</course>
  <speed>0.74</speed>
  <fix>3d</fix>
</trkpt>
<trkpt lat="40.0714628" lon="-105.229559">
  <ele>1583.14</ele>
  <time>2026-08-28T17:52:15Z</time>
  <course>103.19</course>
  <speed>0.5261178575186363</speed>
  <fix>3d</fix>
</trkpt>
<trkpt lat="40.0714627" lon="-105.2295579">
  <ele>1583.0</ele>
  <time>2026-08-28T17:52:15Z</time>
  <course>280.35</course>
  <speed>0.59</speed>
  <fix>3d</fix>
</trkpt>
<trkpt lat="40.0714629" lon="-105.2295595">
  <ele>1583.14</ele>
  <time>2026-08-28T17:52:15Z</time>
  <course>103.27</course>
  <speed>0.4242640687119285</speed>
  <fix>3d</fix>
</trkpt>
<trkpt lat="40.0714627" lon="-105.2295579">
  <ele>1583.0</ele>
  <time>2026-08-28T17:52:15Z</time>
  <course>280.35</course>
  <speed>0.59</speed>
  <fix>3d</fix>
</trkpt>
<trkpt lat="40.0714629" lon="-105.2295599">
  <ele>1583.14</ele>
  <time>2026-08-28T17:52:15Z</time>
  <course>103.33</course>
  <speed>0.3423448553724738</speed>
  <fix>3d</fix>
</trkpt>
<trkpt lat="40.0714628" lon="-105.229559">
  <ele>1583.0</ele>
  <time>2026-08-28T17:52:15Z</time>
  <course>279.58</course>
  <speed>0.4</speed>
  <fix>3d</fix>
</trkpt>
<trkpt lat="40.071463" lon="-105.2295602">
  <ele>1583.14</ele>
  <time>2026-08-28T17:52:15Z</time>
  <course>103.4</course>
  <speed>0.25079872407968906</speed>
  <fix>3d</fix>
</trkpt>
<trkpt lat="40.0714628" lon="-105.229559">
  <ele>1583.0</ele>
  <time>2026-08-28T17:52:15Z</time>
  <course>279.58</course>
  <speed>0.4</speed>
  <fix>3d</fix>
</trkpt>
<trkpt lat="40.071463" lon="-105.2295604">
  <ele>1583.14</ele>
  <time>2026-08-28T17:52:15Z</time>
  <course>103.45</course>
  <speed>0.18</speed>
  <fix>3d</fix>
</trkpt>
<trkpt lat="40.0714629" lon="-105.2295598">
  <ele>1583.0</ele>
  <time>2026-08-28T17:52:15Z</time>
  <course>277.53</course>
  <speed>0.23</speed>
  <fix>3d</fix>
</trkpt>
<trkpt lat="40.071463" lon="-105.2295605">
  <ele>1583.15</ele>
  <time>2026-08-28T17:52:15Z</time>
  <course>103.5</course>
  <speed>0.11045361017187261</speed>
  <fix>3d</fix>
</trkpt>
<trkpt lat="40.0714629" lon="-105.2295598">
  <ele>1583.0</ele>
  <time>2026-08-28T17:52:15Z</time>
  <course>277.53</course>
  <speed>0.23</speed>
  <fix>3d</fix>
</trkpt>
<trkpt lat="40.0714629" lon="-105.2295606">
  <ele>1583.15</ele>
  <time>2026-08-28T17:52:15Z</time>
  <course>103.54</course>
  <speed>0.09055385138137417</speed>
  <fix>3d</fix>
</trkpt>
<trkpt lat="40.071463" lon="-105.2295602">
  <ele>1583.0</ele>
  <time>2026-08-28T17:52:15Z</time>
  <course>272.23</course>
  <speed>0.11</speed>
  <fix>3d</fix>
</trkpt>
<trkpt lat="40.0714629" lon="-105.2295607">
  <ele>1583.15</ele>
  <time>2026-08-28T17:52:15Z</time>
  <course>103.57</course>
  <speed>0.09055385138137417</speed>
  <fix>3d</fix>
</trkpt>
<trkpt lat="40.071463" lon="-105.2295602">
  <ele>1583.0</ele>
  <time>2026-08-28T17:52:15Z</time>
  <course>272.23</course>
  <speed>0.11</speed>
  <fix>3d</fix>
</trkpt>
<trkpt lat="40.0714629" lon="-105.2295608">
  <ele>1583.15</ele>
  <time>2026-08-28T17:52:15Z</time>
  <course>103.6</course>
  <speed>0.09055385138137417</speed>
  <fix>3d</fix>
</trkpt>
<trkpt lat="40.071463" lon="-105.2295604">
  <ele>1583.0</ele>
  <time>2026-08-28T17:52:15Z</time>
  <course>266.72</course>
  <speed>0.07</speed>
  <fix>3d</fix>
</trkpt>
<trkpt lat="40.0714629" lon="-105.2295608">
  <ele>1583.15</ele>
  <time>2026-08-28T17:52:15Z</time>
  <course>103.62</course>
  <speed>0.09055385138137417</speed>
  <fix>3d</fix>
</trkpt>
<trkpt lat="40.071463" lon="-105.2295604">
  <ele>1583.0</ele>
  <time>2026-08-28T17:52:15Z</time>
  <course>266.72</course>
  <speed>0.07</speed>
  <fix>3d</fix>
</trkpt>
<trkpt lat="40.0714629" lon="-105.2295609">
  <ele>1583.14</ele>
  <time>2026-08-28T17:52:15Z</time>
  <course>103.63</course>
  <speed>0.09055385138137417</speed>
  <fix>3d</fix>
</trkpt>
<trkpt lat="40.071463" lon="-105.2295605">
  <ele>1583.0</ele>
  <time>2026-08-28T17:52:15Z</time>
  <course>266.7</course>
  <speed>0.07</speed>
  <fix>3d</fix>
</trkpt>
<trkpt lat="40.0714629" lon="-105.229561">
  <ele>1583.14</ele>
  <time>2026-08-28T17:52:15Z</time>
  <course>103.64</course>
  <speed>0.09055385138137417</speed>
  <fix>3d</fix>
</trkpt>
<trkpt lat="40.071463" lon="-105.2295605">
  <ele>1583.0</ele>
  <time>2026-08-28T17:52:15Z</time>
  <course>266.7</course>
  <speed>0.07</speed>
  <fix>3d</fix>
</trkpt>
<trkpt lat="40.0714629" lon="-105.2295611">
  <ele>1583.15</ele>
  <time>2026-08-28T17:52:15Z</time>
  <course>103.65</course>
  <speed>0.09055385138137417</speed>
  <fix>3d</fix>
</trkpt>
<trkpt lat="40.071463" lon="-105.2295608">
  <ele>1583.0</ele>
  <time>2026-08-28T17:52:15Z</time>
  <course>266.66</course>
  <speed>0.07</speed>
  <fix>3d</fix>
</trkpt>
<trkpt lat="40.0714629" lon="-105.2295611">
  <ele>1583.15</ele>
  <time>2026-08-28T17:52:15Z</time>
  <course>103.65</course>
  <speed>0.09055385138137417</speed>
  <fix>3d</fix>
</trkpt>
<trkpt lat="40.071463" lon="-105.2295608">
  <ele>1583.0</ele>
  <time>2026-08-28T17:52:15Z</time>
  <course>266.66</course>
  <speed>0.07</speed>
  <fix>3d</fix>
</trkpt>
<trkpt lat="40.0714629" lon="-105.2295612">
  <ele>1583.15</ele>
  <time>2026-08-28T17:52:15Z</time>
  <course>103.66</course>
  <speed>0.09055385138137417</speed>
  <fix>3d</fix>
</trkpt>
<trkpt lat="40.071463" lon="-105.2295608">
  <ele>1583.0</ele>
  <time>2026-08-28T17:52:15Z</time>
  <course>266.66</course>
  <speed>0.07</speed>
  <fix>3d</fix>
</trkpt>
<trkpt lat="40.0714629" lon="-105.2295613">
  <ele>1583.15</ele>
  <time>2026-08-28T17:52:15Z</time>
  <course>103.65</course>
  <speed>0.09055385138137417</speed>
  <fix>3d</fix>
</trkpt>
<trkpt lat="40.071463" lon="-105.2295609">
  <ele>1583.0</ele>
  <time>2026-08-28T17:52:15Z</time>
  <course>266.6</course>
  <speed>0.07</speed>
  <fix>3d</fix>
</trkpt>
<trkpt lat="40.0714629" lon="-105.2295614">
  <ele>1583.15</ele>
  <time>2026-08-28T17:52:15Z</time>
  <course>103.64</course>
  <speed>0.09055385138137417</speed>
  <fix>3d</fix>
</trkpt>
<trkpt lat="40.071463" lon="-105.2295609">
  <ele>1583.0</ele>
  <time>2026-08-28T17:52:15Z</time>
  <course>266.6</course>
  <speed>0.07</speed>
  <fix>3d</fix>
</trkpt>
<trkpt lat="40.0714629" lon="-105.2295615">
  <ele>1583.15</ele>
  <time>2026-08-28T17:52:15Z</time>
  <course>103.63</course>
  <speed>0.09055385138137417</speed>
  <fix>3d</fix>
</trkpt>
<trkpt lat="40.071463" lon="-105.2295611">
  <ele>1583.0</ele>
  <time>2026-08-28T17:52:15Z</time>
  <course>266.53</course>
  <speed>0.07</speed>
  <fix>3d</fix>
</trkpt>
<trkpt lat="40.0714629" lon="-105.2295616">
  <ele>1583.15</ele>
  <time>2026-08-28T17:52:15Z</time>
  <course>103.61</course>
  <speed>0.09055385138137417</speed>
  <fix>3d</fix>
</trkpt>
<trkpt lat="40.071463" lon="-105.2295611">
  <ele>1583.0</ele>
  <time>2026-08-28T17:52:15Z</time>
  <course>266.53</course>
  <speed>0.07</speed>
  <fix>3d</fix>
</trkpt>
<trkpt lat="40.0714629" lon="-105.2295616">
  <ele>1583.16</ele>
  <time>2026-08-28T17:52:15Z</time>
  <course>103.59</course>
  <speed>0.09055385138137417</speed>
  <fix>3d</fix>
</trkpt>
<trkpt lat="40.071463" lon="-105.2295613">
  <ele>1583.0</ele>
  <time>2026-08-28T17:52:15Z</time>
  <course>266.45</course>
  <speed>0.07</speed>
  <fix>3d</fix>
</trkpt>
<trkpt lat="40.0714629" lon="-105.2295617">
  <ele>1583.16</ele>
  <time>2026-08-28T17:52:15Z</time>
  <course>103.57</course>
  <speed>0.09055385138137417</speed>
  <fix>3d</fix>
</trkpt>
<trkpt lat="40.071463" lon="-105.2295614">
  <ele>1583.0</ele>
  <time>2026-08-28T17:52:15Z</time>
  <course>266.35</course>
  <speed>0.07</speed>
  <fix>3d</fix>
</trkpt>
<trkpt lat="40.0714629" lon="-105.2295618">
  <ele>1583.16</ele>
  <time>2026-08-28T17:52:15Z</time>
  <course>103.54</course>
  <speed>0.09055385138137417</speed>
  <fix>3d</fix>
</trkpt>
<trkpt lat="40.071463" lon="-105.2295614">
  <ele>1583.0</ele>
  <time>2026-08-28T17:52:15Z</time>
  <course>266.35</course>
  <speed>0.07</speed>
  <fix>3d</fix>
</trkpt>
<trkpt lat="40.0714629" lon="-105.2295619">
  <ele>1583.16</ele>
  <time>2026-08-28T17:52:15Z</time>
  <course>103.51</course>
  <speed>0.09219544457292887</speed>
  <fix>3d</fix>
</trkpt>
<trkpt lat="40.071463" lon="-105.2295617">
  <ele>1583.0</ele>
  <time>2026-08-28T17:52:15Z</time>
  <course>266.23</course>
  <speed>0.07</speed>
  <fix>3d</fix>
</trkpt>
<trkpt lat="40.0714629" lon="-105.229562">
  <ele>1583.15</ele>
  <time>2026-08-28T17:52:15Z</time>
  <course>103.48</course>
  <speed>0.09219544457292887</speed>
  <fix>3d</fix>
</trkpt>
<trkpt lat="40.071463" lon="-105.2295617">
  <ele>1583.0</ele>
  <time>2026-08-28T17:52:15Z</time>
  <course>266.23</course>
  <speed>0.07</speed>
  <fix>3d</fix>
</trkpt>
<trkpt lat="40.0714629" lon="-105.2295621">
  <ele>1583.15</ele>
  <time>2026-08-28T17:52:15Z</time>
  <course>103.44</course>
  <speed>0.09219544457292887</speed>
  <fix>3d</fix>
</trkpt>
<trkpt lat="40.071463" lon="-105.2295618">
  <ele>1583.0</ele>
  <time>2026-08-28T17:52:15Z</time>
  <course>266.11</course>
  <speed>0.07</speed>
  <fix>3d</fix>
</trkpt>
<trkpt lat="40.0714629" lon="-105.2295621">
  <ele>1583.15</ele>
  <time>2026-08-28T17:52:15Z</time>
  <course>103.4</course>
  <speed>0.09219544457292887</speed>
  <fix>3d</fix>
</trkpt>
<trkpt lat="40.071463" lon="-105.2295618">
  <ele>1583.0</ele>
  <time>2026-08-28T17:52:15Z</time>
  <course>266.11</course>
  <speed>0.07</speed>
  <fix>3d</fix>
</trkpt>
<trkpt lat="40.0714629" lon="-105.2295622">
  <ele>1583.14</ele>
  <time>2026-08-28T17:52:15Z</time>
  <course>103.36</course>
  <speed>0.09219544457292887</speed>
  <fix>3d</fix>
</trkpt>
<trkpt lat="40.071463" lon="-105.2295619">
  <ele>1583.0</ele>
  <time>2026-08-28T17:52:15Z</time>
  <course>265.98</course>
  <speed>0.07</speed>
  <fix>3d</fix>
</trkpt>
<trkpt lat="40.0714629" lon="-105.2295623">
  <ele>1583.14</ele>
  <time>2026-08-28T17:52:15Z</time>
  <course>103.31</course>
  <speed>0.09219544457292887</speed>
  <fix>3d</fix>
</trkpt>
<trkpt lat="40.071463" lon="-105.2295619">
  <ele>1583.0</ele>
  <time>2026-08-28T17:52:15Z</time>
  <course>265.98</course>
  <speed>0.07</speed>
  <fix>3d</fix>
</trkpt>
<trkpt lat="40.0714629" lon="-105.2295624">
  <ele>1583.14</ele>
  <time>2026-08-28T17:52:15Z</time>
  <course>103.27</course>
  <speed>0.09219544457292887</speed>
  <fix>3d</fix>
</trkpt>
<trkpt lat="40.071463" lon="-105.2295622">
  <ele>1583.0</ele>
  <time>2026-08-28T17:52:15Z</time>
  <course>265.83</course>
  <speed>0.07</speed>
  <fix>3d</fix>
</trkpt>
<trkpt lat="40.0714629" lon="-105.2295625">
  <ele>1583.14</ele>
  <time>2026-08-28T17:52:15Z</time>
  <course>103.22</course>
  <speed>0.09219544457292887</speed>
  <fix>3d</fix>
</trkpt>
<trkpt lat="40.071463" lon="-105.2295622">
  <ele>1583.0</ele>
  <time>2026-08-28T17:52:15Z</time>
  <course>265.83</course>
  <speed>0.07</speed>
  <fix>3d</fix>
</trkpt>
<trkpt lat="40.0714629" lon="-105.2295626">
  <ele>1583.14</ele>
  <time>2026-08-28T17:52:15Z</time>
  <course>103.17</course>
  <speed>0.09219544457292887</speed>
  <fix>3d</fix>
</trkpt>
<trkpt lat="40.071463" lon="-105.2295623">
  <ele>1583.0</ele>
  <time>2026-08-28T17:52:15Z</time>
  <course>265.68</course>
  <speed>0.07</speed>
  <fix>3d</fix>
</trkpt>
<trkpt lat="40.0714629" lon="-105.2295627">
  <ele>1583.14</ele>
  <time>2026-08-28T17:52:15Z</time>
  <course>103.12</course>
  <speed>0.09219544457292887</speed>
  <fix>3d</fix>
</trkpt>
<trkpt lat="40.071463" lon="-105.2295623">
  <ele>1583.0</ele>
  <time>2026-08-28T17:52:15Z</time>
  <course>265.68</course>
  <speed>0.07</speed>
  <fix>3d</fix>
</trkpt>
<trkpt lat="40.0714629" lon="-105.2295627">
  <ele>1583.14</ele>
  <time>2026-08-28T17:52:15Z</time>
  <course>103.06</course>
  <speed>0.09219544457292887</speed>
  <fix>3d</fix>
</trkpt>
<trkpt lat="40.071463" lon="-105.2295625">
  <ele>1583.0</ele>
  <time>2026-08-28T17:52:15Z</time>
  <course>265.53</course>
  <speed>0.07</speed>
  <fix>3d</fix>
</trkpt>
<trkpt lat="40.0714629" lon="-105.2295628">
  <ele>1583.14</ele>
  <time>2026-08-28T17:52:15Z</time>
  <course>103.01</course>
  <speed>0.09219544457292887</speed>
  <fix>3d</fix>
</trkpt>
<trkpt lat="40.071463" lon="-105.2295625">
  <ele>1583.0</ele>
  <time>2026-08-28T17:52:15Z</time>
  <course>265.53</course>
  <speed>0.07</speed>
  <fix>3d</fix>
</trkpt>
<trkpt lat="40.0714629" lon="-105.2295629">
  <ele>1583.14</ele>
  <time>2026-08-28T17:52:15Z</time>
  <course>102.95</course>
  <speed>0.09219544457292887</speed>
  <fix>3d</fix>
</trkpt>
<trkpt lat="40.071463" lon="-105.2295625">
  <ele>1583.0</ele>
  <time>2026-08-28T17:52:15Z</time>
  <course>265.53</course>
  <speed>0.07</speed>
  <fix>3d</fix>
</trkpt>
<trkpt lat="40.0714629" lon="-105.229563">
  <ele>1583.14</ele>
  <time>2026-08-28T17:52:15Z</time>
  <course>102.9</course>
  <speed>0.09219544457292887</speed>
  <fix>3d</fix>
</trkpt>
<trkpt lat="40.071463" lon="-105.2295627">
  <ele>1583.0</ele>
  <time>2026-08-28T17:52:15Z</time>
  <course>265.37</course>
  <speed>0.07</speed>
  <fix>3d</fix>
</trkpt>
<trkpt lat="40.0714629" lon="-105.2295631">
  <ele>1583.14</ele>
  <time>2026-08-28T17:52:15Z</time>
  <course>102.84</course>
  <speed>0.09219544457292887</speed>
  <fix>3d</fix>
</trkpt>
<trkpt lat="40.071463" lon="-105.2295627">
  <ele>1583.0</ele>
  <time>2026-08-28T17:52:15Z</time>
  <course>265.37</course>
  <speed>0.07</speed>
  <fix>3d</fix>
</trkpt>
<trkpt lat="40.0714629" lon="-105.2295632">
  <ele>1583.14</ele>
  <time>2026-08-28T17:52:15Z</time>
  <course>102.78</course>
  <speed>0.09219544457292887</speed>
  <fix>3d</fix>
</trkpt>
<trkpt lat="40.071463" lon="-105.2295628">
  <ele>1583.0</ele>
  <time>2026-08-28T17:52:15Z</time>
  <course>265.21</course>
  <speed>0.07</speed>
  <fix>3d</fix>
</trkpt>
<trkpt lat="40.0714629" lon="-105.2295633">
  <ele>1583.14</ele>
  <time>2026-08-28T17:52:15Z</time>
  <course>102.73</course>
  <speed>0.09219544457292887</speed>
  <fix>3d</fix>
</trkpt>
<trkpt lat="40.071463" lon="-105.2295628">
  <ele>1583.0</ele>
  <time>2026-08-28T17:52:15Z</time>
  <course>265.21</course>
  <speed>0.07</speed>
  <fix>3d</fix>
</trkpt>
<trkpt lat="40.0714629" lon="-105.2295634">
  <ele>1583.14</ele>
  <time>2026-08-28T17:52:15Z</time>
  <course>102.67</course>
  <speed>0.09219544457292887</speed>
  <fix>3d</fix>
</trkpt>
<trkpt lat="40.071463" lon="-105.229563">
  <ele>1583.0</ele>
  <time>2026-08-28T17:52:15Z</time>
  <course>265.05</course>
  <speed>0.07</speed>
  <fix>3d</fix>
</trkpt>
<trkpt lat="40.0714629" lon="-105.2295634">
  <ele>1583.14</ele>
  <time>2026-08-28T17:52:15Z</time>
  <course>102.61</course>
  <speed>0.09219544457292887</speed>
  <fix>3d</fix>
</trkpt>
<trkpt lat="40.071463" lon="-105.229563">
  <ele>1583.0</ele>
  <time>2026-08-28T17:52:15Z</time>
  <course>265.05</course>
  <speed>0.07</speed>
  <fix>3d</fix>
</trkpt>
<trkpt lat="40.0714629" lon="-105.2295635">
  <ele>1583.15</ele>
  <time>2026-08-28T17:52:15Z</time>
  <course>102.55</course>
  <speed>0.09219544457292887</speed>
  <fix>3d</fix>
</trkpt>
<trkpt lat="40.0714629" lon="-105.2295632">
  <ele>1583.0</ele>
  <time>2026-08-28T17:52:15Z</time>
  <course>264.89</course>
  <speed>0.07</speed>
  <fix>3d</fix>
</trkpt>
<trkpt lat="40.0714628" lon="-105.2295636">
  <ele>1583.15</ele>
  <time>2026-08-28T17:52:15Z</time>
  <course>102.5</course>
  <speed>0.09219544457292887</speed>
  <fix>3d</fix>
</trkpt>
<trkpt lat="40.0714629" lon="-105.2295633">
  <ele>1583.0</ele>
  <time>2026-08-28T17:52:15Z</time>
  <course>264.73</course>
  <speed>0.07</speed>
  <fix>3d</fix>
</trkpt>
<trkpt lat="40.0714628" lon="-105.2295637">
  <ele>1583.15</ele>
  <time>2026-08-28T17:52:15Z</time>
  <course>102.44</course>
  <speed>0.09219544457292887</speed>
  <fix>3d</fix>
</trkpt>
<trkpt lat="40.0714629" lon="-105.2295633">
  <ele>1583.0</ele>
  <time>2026-08-28T17:52:15Z</time>
  <course>264.73</course>
  <speed>0.07</speed>
  <fix>3d</fix>
</trkpt>
<trkpt lat="40.0714628" lon="-105.2295638">
  <ele>1583.15</ele>
  <time>2026-08-28T17:52:15Z</time>
  <course>102.38</course>
  <speed>0.09219544457292887</speed>
  <fix>3d</fix>
</trkpt>
<trkpt lat="40.0714629" lon="-105.2295636">
  <ele>1583.0</ele>
  <time>2026-08-28T17:52:15Z</time>
  <course>264.57</course>
  <speed>0.07</speed>
  <fix>3d</fix>
</trkpt>
<trkpt lat="40.0714628" lon="-105.2295639">
  <ele>1583.15</ele>
  <time>2026-08-28T17:52:15Z</time>
  <course>102.32</course>
  <speed>0.09219544457292887</speed>
  <fix>3d</fix>
</trkpt>
<trkpt lat="40.0714629" lon="-105.2295636">
  <ele>1583.0</ele>
  <time>2026-08-28T17:52:15Z</time>
  <course>264.57</course>
  <speed>0.07</speed>
  <fix>3d</fix>
</trkpt>
<trkpt lat="40.0714628" lon="-105.229564">
  <ele>1583.15</ele>
  <time>2026-08-28T17:52:15Z</time>
  <course>102.26</course>
  <speed>0.09219544457292887</speed>
  <fix>3d</fix>
</trkpt>
<trkpt lat="40.0714629" lon="-105.2295637">
  <ele>1583.0</ele>
  <time>2026-08-28T17:52:15Z</time>
  <course>264.41</course>
  <speed>0.07</speed>
  <fix>3d</fix>
</trkpt>
<trkpt lat="40.0714628" lon="-105.2295641">
  <ele>1583.15</ele>
  <time>2026-08-28T17:52:15Z</time>
  <course>102.2</course>
  <speed>0.09219544457292887</speed>
  <fix>3d</fix>
</trkpt>
<trkpt lat="40.0714629" lon="-105.2295637">
  <ele>1583.0</ele>
  <time>2026-08-28T17:52:15Z</time>
  <course>264.41</course>
  <speed>0.07</speed>
  <fix>3d</fix>
</trkpt>
<trkpt lat="40.0714628" lon="-105.2295642">
  <ele>1583.15</ele>
  <time>2026-08-28T17:52:15Z</time>
  <course>102.14</course>
  <speed>0.09219544457292887</speed>
  <fix>3d</fix>
</trkpt>
<trkpt lat="40.0714629" lon="-105.2295638">
  <ele>1583.0</ele>
  <time>2026-08-28T17:52:15Z</time>
  <course>264.26</course>
  <speed>0.07</speed>
  <fix>3d</fix>
</trkpt>
<trkpt lat="40.0714628" lon="-105.2295642">
  <ele>1583.15</ele>
  <time>2026-08-28T17:52:15Z</time>
  <course>102.09</course>
  <speed>0.09219544457292887</speed>
  <fix>3d</fix>
</trkpt>
<trkpt lat="40.0714629" lon="-105.2295638">
  <ele>1583.0</ele>
  <time>2026-08-28T17:52:15Z</time>
  <course>264.26</course>
  <speed>0.07</speed>
  <fix>3d</fix>
</trkpt>
<trkpt lat="40.0714628" lon="-105.2295643">
  <ele>1583.14</ele>
  <time>2026-08-28T17:52:15Z</time>
  <course>102.03</course>
  <speed>0.09219544457292887</speed>
  <fix>3d</fix>
</trkpt>
<trkpt lat="40.0714629" lon="-105.2295641">
  <ele>1583.0</ele>
  <time>2026-08-28T17:52:15Z</time>
  <course>264.1</course>
  <speed>0.07</speed>
  <fix>3d</fix>
</trkpt>
<trkpt lat="40.0714628" lon="-105.2295644">
  <ele>1583.14</ele>
  <time>2026-08-28T17:52:15Z</time>
  <course>101.98</course>
  <speed>0.09219544457292887</speed>
  <fix>3d</fix>
</trkpt>
<trkpt lat="40.0714629" lon="-105.2295641">
  <ele>1583.0</ele>
  <time>2026-08-28T17:52:15Z</time>
  <course>264.1</course>
  <speed>0.07</speed>
  <fix>3d</fix>
</trkpt>
<trkpt lat="40.0714628" lon="-105.2295645">
  <ele>1583.14</ele>
  <time>2026-08-28T17:52:15Z</time>
  <course>101.92</course>
  <speed>0.09219544457292887</speed>
  <fix>3d</fix>
</trkpt>
<trkpt lat="40.0714629" lon="-105.2295642">
  <ele>1583.0</ele>
  <time>2026-08-28T17:52:15Z</time>
  <course>263.96</course>
  <speed>0.07</speed>
  <fix>3d</fix>
</trkpt>
<trkpt lat="40.0714628" lon="-105.2295646">
  <ele>1583.15</ele>
  <time>2026-08-28T17:52:15Z</time>
  <course>101.87</course>
  <speed>0.09219544457292887</speed>
  <fix>3d</fix>
</trkpt>
<trkpt lat="40.0714629" lon="-105.2295642">
  <ele>1583.0</ele>
  <time>2026-08-28T17:52:15Z</time>
  <course>263.96</course>
  <speed>0.07</speed>
  <fix>3d</fix>
</trkpt>
<trkpt lat="40.0714627" lon="-105.2295647">
  <ele>1583.14</ele>
  <time>2026-08-28T17:52:15Z</time>
  <course>101.82</course>
  <speed>0.09219544457292887</speed>
  <fix>3d</fix>
</trkpt>
<trkpt lat="40.0714629" lon="-105.2295643">
  <ele>1583.0</ele>
  <time>2026-08-28T17:52:16Z</time>
  <course>263.81</course>
  <speed>0.07</speed>
  <fix>3d</fix>
</trkpt>
<trkpt lat="40.0714627" lon="-105.2295648">
  <ele>1583.14</ele>
  <time>2026-08-28T17:52:16Z</time>
  <course>101.77</course>
  <speed>0.09219544457292887</speed>
  <fix>3d</fix>
</trkpt>
<trkpt lat="40.0714629" lon="-105.2295643">
  <ele>1583.0</ele>
  <time>2026-08-28T17:52:16Z</time>
  <course>263.81</course>
  <speed>0.07</speed>
  <fix>3d</fix>
</trkpt>
<trkpt lat="40.0714627" lon="-105.2295649">
  <ele>1583.14</ele>
  <time>2026-08-28T17:52:16Z</time>
  <course>101.72</course>
  <speed>0.09219544457292887</speed>
  <fix>3d</fix>
</trkpt>
<trkpt lat="40.0714629" lon="-105.2295643">
  <ele>1583.0</ele>
  <time>2026-08-28T17:52:16Z</time>
  <course>263.81</course>
  <speed>0.07</speed>
  <fix>3d</fix>
</trkpt>
<trkpt lat="40.0714627" lon="-105.2295649">
  <ele>1583.14</ele>
  <time>2026-08-28T17:52:16Z</time>
  <course>101.67</course>
  <speed>0.09219544457292887</speed>
  <fix>3d</fix>
</trkpt>
<trkpt lat="40.0714628" lon="-105.2295646">
  <ele>1583.0</ele>
  <time>2026-08-28T17:52:16Z</time>
  <course>263.67</course>
  <speed>0.07</speed>
  <fix>3d</fix>
</trkpt>
<trkpt lat="40.0714627" lon="-105.229565">
  <ele>1583.14</ele>
  <time>2026-08-28T17:52:16Z</time>
  <course>101.62</course>
  <speed>0.1044030650891055</speed>
  <fix>3d</fix>
</trkpt>
<trkpt lat="40.0714628" lon="-105.2295646">
  <ele>1583.0</ele>
  <time>2026-08-28T17:52:16Z</time>
  <course>263.67</course>
  <speed>0.07</speed>
  <fix>3d</fix>
</trkpt>
<trkpt lat="40.0714627" lon="-105.2295651">
  <ele>1583.14</ele>
  <time>2026-08-28T17:52:16Z</time>
  <course>101.58</course>
  <speed>0.1044030650891055</speed>
  <fix>3d</fix>
</trkpt>
<trkpt lat="40.0714628" lon="-105.2295647">
  <ele>1583.0</ele>
  <time>2026-08-28T17:52:16Z</time>
  <course>263.54</course>
  <speed>0.07</speed>
  <fix>3d</fix>
</trkpt>
<trkpt lat="40.0714627" lon="-105.2295652">
  <ele>1583.14</ele>
  <time>2026-08-28T17:52:16Z</time>
  <course>101.54</course>
  <speed>0.1044030650891055</speed>
  <fix>3d</fix>
</trkpt>
<trkpt lat="40.0714628" lon="-105.2295647">
  <ele>1583.0</ele>
  <time>2026-08-28T17:52:16Z</time>
  <course>263.54</course>
  <speed>0.07</speed>
  <fix>3d</fix>
</trkpt>
<trkpt lat="40.0714627" lon="-105.2295653">
  <ele>1583.13</ele>
  <time>2026-08-28T17:52:16Z</time>
  <course>101.49</course>
  <speed>0.1044030650891055</speed>
  <fix>3d</fix>
</trkpt>
<trkpt lat="40.0714628" lon="-105.2295648">
  <ele>1583.0</ele>
  <time>2026-08-28T17:52:16Z</time>
  <course>263.41</course>
  <speed>0.07</speed>
  <fix>3d</fix>
</trkpt>
<trkpt lat="40.0714627" lon="-105.2295654">
  <ele>1583.13</ele>
  <time>2026-08-28T17:52:16Z</time>
  <course>101.45</course>
  <speed>0.1044030650891055</speed>
  <fix>3d</fix>
</trkpt>
<trkpt lat="40.0714628" lon="-105.2295651">
  <ele>1583.0</ele>
  <time>2026-08-28T17:52:16Z</time>
  <course>263.29</course>
  <speed>0.07</speed>
  <fix>3d</fix>
</trkpt>
<trkpt lat="40.0714627" lon="-105.2295655">
  <ele>1583.13</ele>
  <time>2026-08-28T17:52:16Z</time>
  <course>101.44</course>
  <speed>0.1044030650891055</speed>
  <fix>3d</fix>
</trkpt>
<trkpt lat="40.0714628" lon="-105.2295651">
  <ele>1583.0</ele>
  <time>2026-08-28T17:52:16Z</time>
  <course>263.29</course>
  <speed>0.07</speed>
  <fix>3d</fix>
</trkpt>
<trkpt lat="40.0714626" lon="-105.2295656">
  <ele>1583.13</ele>
  <time>2026-08-28T17:52:16Z</time>
  <course>101.43</course>
  <speed>0.1044030650891055</speed>
  <fix>3d</fix>
</trkpt>
<trkpt lat="40.0714628" lon="-105.2295652">
  <ele>1583.0</ele>
  <time>2026-08-28T17:52:16Z</time>
  <course>263.2</course>
  <speed>0.07</speed>
  <fix>3d</fix>
</trkpt>
<trkpt lat="40.0714626" lon="-105.2295656">
  <ele>1583.14</ele>
  <time>2026-08-28T17:52:16Z</time>
  <course>101.42</course>
  <speed>0.1044030650891055</speed>
  <fix>3d</fix>
</trkpt>
<trkpt lat="40.0714628" lon="-105.2295652">
  <ele>1583.0</ele>
  <time>2026-08-28T17:52:16Z</time>
  <course>263.2</course>
  <speed>0.07</speed>
  <fix>3d</fix>
</trkpt>
<trkpt lat="40.0714626" lon="-105.2295657">
  <ele>1583.14</ele>
  <time>2026-08-28T17:52:16Z</time>
  <course>101.42</course>
  <speed>0.1044030650891055</speed>
  <fix>3d</fix>
</trkpt>
<trkpt lat="40.0714628" lon="-105.2295653">
  <ele>1583.0</ele>
  <time>2026-08-28T17:52:16Z</time>
  <course>263.14</course>
  <speed>0.07</speed>
  <fix>3d</fix>
</trkpt>
<trkpt lat="40.0714626" lon="-105.2295658">
  <ele>1583.14</ele>
  <time>2026-08-28T17:52:16Z</time>
  <course>101.41</course>
  <speed>0.1044030650891055</speed>
  <fix>3d</fix>
</trkpt>
<trkpt lat="40.0714628" lon="-105.2295653">
  <ele>1583.0</ele>
  <time>2026-08-28T17:52:16Z</time>
  <course>263.14</course>
  <speed>0.07</speed>
  <fix>3d</fix>
</trkpt>
<trkpt lat="40.0714626" lon="-105.2295659">
  <ele>1583.13</ele>
  <time>2026-08-28T17:52:16Z</time>
  <course>101.41</course>
  <speed>0.1044030650891055</speed>
  <fix>3d</fix>
</trkpt>
<trkpt lat="40.0714628" lon="-105.2295655">
  <ele>1583.0</ele>
  <time>2026-08-28T17:52:16Z</time>
  <course>263.09</course>
  <speed>0.07</speed>
  <fix>3d</fix>
</trkpt>
<trkpt lat="40.0714626" lon="-105.229566">
  <ele>1583.13</ele>
  <time>2026-08-28T17:52:16Z</time>
  <course>101.4</course>
  <speed>0.1044030650891055</speed>
  <fix>3d</fix>
</trkpt>
<trkpt lat="40.0714628" lon="-105.2295655">
  <ele>1583.0</ele>
  <time>2026-08-28T17:52:16Z</time>
  <course>263.09</course>
  <speed>0.07</speed>
  <fix>3d</fix>
</trkpt>
<trkpt lat="40.0714626" lon="-105.2295661">
  <ele>1583.13</ele>
  <time>2026-08-28T17:52:16Z</time>
  <course>101.4</course>
  <speed>0.1044030650891055</speed>
  <fix>3d</fix>
</trkpt>
<trkpt lat="40.0714627" lon="-105.2295657">
  <ele>1583.0</ele>
  <time>2026-08-28T17:52:16Z</time>
  <course>263.03</course>
  <speed>0.06</speed>
  <fix>3d</fix>
</trkpt>
<trkpt lat="40.0714626" lon="-105.2295661">
  <ele>1583.12</ele>
  <time>2026-08-28T17:52:16Z</time>
  <course>101.4</course>
  <speed>0.1044030650891055</speed>
  <fix>3d</fix>
</trkpt>
<trkpt lat="40.0714627" lon="-105.2295657">
  <ele>1583.0</ele>
  <time>2026-08-28T17:52:16Z</time>
  <course>263.03</course>
  <speed>0.06</speed>
  <fix>3d</fix>
</trkpt>
<trkpt lat="40.0714626" lon="-105.2295662">
  <ele>1583.12</ele>
  <time>2026-08-28T17:52:16Z</time>
  <course>101.4</course>
  <speed>0.1044030650891055</speed>
  <fix>3d</fix>
</trkpt>
<trkpt lat="40.0714627" lon="-105.2295658">
  <ele>1583.0</ele>
  <time>2026-08-28T17:52:16Z</time>
  <course>262.98</course>
  <speed>0.06</speed>
  <fix>3d</fix>
</trkpt>
<trkpt lat="40.0714626" lon="-105.2295663">
  <ele>1583.12</ele>
  <time>2026-08-28T17:52:16Z</time>
  <course>101.4</course>
  <speed>0.1044030650891055</speed>
  <fix>3d</fix>
</trkpt>
<trkpt lat="40.0714627" lon="-105.2295658">
  <ele>1583.0</ele>
  <time>2026-08-28T17:52:16Z</time>
  <course>262.98</course>
  <speed>0.06</speed>
  <fix>3d</fix>
</trkpt>
<trkpt lat="40.0714626" lon="-105.2295664">
  <ele>1583.12</ele>
  <time>2026-08-28T17:52:16Z</time>
  <course>101.39</course>
  <speed>0.1044030650891055</speed>
  <fix>3d</fix>
</trkpt>
<trkpt lat="40.0714627" lon="-105.229566">
  <ele>1583.0</ele>
  <time>2026-08-28T17:52:16Z</time>
  <course>262.92</course>
  <speed>0.06</speed>
  <fix>3d</fix>
</trkpt>
<trkpt lat="40.0714626" lon="-105.2295665">
  <ele>1583.12</ele>
  <time>2026-08-28T17:52:16Z</time>
  <course>101.39</course>
  <speed>0.1044030650891055</speed>
  <fix>3d</fix>
</trkpt>
<trkpt lat="40.0714627" lon="-105.229566">
  <ele>1583.0</ele>
  <time>2026-08-28T17:52:16Z</time>
  <course>262.92</course>
  <speed>0.06</speed>
  <fix>3d</fix>
</trkpt>
<trkpt lat="40.0714625" lon="-105.2295666">
  <ele>1583.11</ele>
  <time>2026-08-28T17:52:16Z</time>
  <course>101.39</course>
  <speed>0.1044030650891055</speed>
  <fix>3d</fix>
</trkpt>
<trkpt lat="40.0714627" lon="-105.229566">
  <ele>1583.0</ele>
  <time>2026-08-28T17:52:16Z</time>
  <course>262.92</course>
  <speed>0.06</speed>
  <fix>3d</fix>
</trkpt>
<trkpt lat="40.0714625" lon="-105.2295666">
  <ele>1583.11</ele>
  <time>2026-08-28T17:52:16Z</time>
  <course>101.39</course>
  <speed>0.1044030650891055</speed>
  <fix>3d</fix>
</trkpt>
<trkpt lat="40.0714627" lon="-105.2295661">
  <ele>1583.0</ele>
  <time>2026-08-28T17:52:16Z</time>
  <course>262.87</course>
  <speed>0.06</speed>
  <fix>3d</fix>
</trkpt>
<trkpt lat="40.0714625" lon="-105.2295667">
  <ele>1583.11</ele>
  <time>2026-08-28T17:52:16Z</time>
  <course>101.39</course>
  <speed>0.1044030650891055</speed>
  <fix>3d</fix>
</trkpt>
<trkpt lat="40.0714627" lon="-105.2295661">
  <ele>1583.0</ele>
  <time>2026-08-28T17:52:16Z</time>
  <course>262.87</course>
  <speed>0.06</speed>
  <fix>3d</fix>
</trkpt>
<trkpt lat="40.0714625" lon="-105.2295668">
  <ele>1583.11</ele>
  <time>2026-08-28T17:52:16Z</time>
  <course>101.39</course>
  <speed>0.09486832980505139</speed>
  <fix>3d</fix>
</trkpt>
<trkpt lat="40.0714627" lon="-105.2295664">
  <ele>1583.0</ele>
  <time>2026-08-28T17:52:16Z</time>
  <course>262.81</course>
  <speed>0.06</speed>
  <fix>3d</fix>
</trkpt>
<trkpt lat="40.0714625" lon="-105.2295669">
  <ele>1583.11</ele>
  <time>2026-08-28T17:52:16Z</time>
  <course>101.39</course>
  <speed>0.09486832980505139</speed>
  <fix>3d</fix>
</trkpt>
<trkpt lat="40.0714627" lon="-105.2295664">
  <ele>1583.0</ele>
  <time>2026-08-28T17:52:16Z</time>
  <course>262.81</course>
  <speed>0.06</speed>
  <fix>3d</fix>
</trkpt>
<trkpt lat="40.0714625" lon="-105.2295669">
  <ele>1583.1</ele>
  <time>2026-08-28T17:52:16Z</time>
  <course>101.39</course>
  <speed>0.09486832980505139</speed>
  <fix>3d</fix>
</trkpt>
<trkpt lat="40.0714627" lon="-105.2295665">
  <ele>1583.0</ele>
  <time>2026-08-28T17:52:16Z</time>
  <course>262.75</course>
  <speed>0.06</speed>
  <fix>3d</fix>
</trkpt>
<trkpt lat="40.0714625" lon="-105.229567">
  <ele>1583.1</ele>
  <time>2026-08-28T17:52:16Z</time>
  <course>101.39</course>
  <speed>0.09486832980505139</speed>
  <fix>3d</fix>
</trkpt>
<trkpt lat="40.0714627" lon="-105.2295665">
  <ele>1583.0</ele>
  <time>2026-08-28T17:52:16Z</time>
  <course>262.75</course>
  <speed>0.06</speed>
  <fix>3d</fix>
</trkpt>
<trkpt lat="40.0714625" lon="-105.2295671">
  <ele>1583.09</ele>
  <time>2026-08-28T17:52:16Z</time>
  <course>101.39</course>
  <speed>0.09219544457292887</speed>
  <fix>3d</fix>
</trkpt>
<trkpt lat="40.0714626" lon="-105.2295666">
  <ele>1583.0</ele>
  <time>2026-08-28T17:52:16Z</time>
  <course>262.7</course>
  <speed>0.06</speed>
  <fix>3d</fix>
</trkpt>
<trkpt lat="39.655741" lon="-104.1383097">
  <ele>1566.58</ele>
  <time>2026-08-28T17:52:16Z</time>
  <course>0.0</course>
  <speed>0.0</speed>
  <fix>3d</fix>
</trkpt>
<trkpt lat="40.0713749" lon="-105.229789">
  <ele>1583.0</ele>
  <time>2026-08-28T17:52:16Z</time>
  <course>238.36</course>
  <speed>0.0</speed>
  <fix>3d</fix>
</trkpt>
<trkpt lat="40.0713749" lon="-105.229789">
  <ele>1583.0</ele>
  <time>2026-08-28T17:52:16Z</time>
  <course>0.0</course>
  <speed>0.0</speed>
  <fix>3d</fix>
</trkpt>
<trkpt lat="40.0713749" lon="-105.229789">
  <ele>1583.0</ele>
  <time>2026-08-28T17:52:16Z</time>
  <course>238.36</course>
  <speed>0.0</speed>
  <fix>3d</fix>
</trkpt>
<trkpt lat="40.0713749" lon="-105.229789">
  <ele>1583.0</ele>
  <time>2026-08-28T17:52:16Z</time>
  <course>0.0</course>
  <speed>0.0</speed>
  <fix>3d</fix>
</trkpt>
<trkpt lat="40.0713749" lon="-105.229789">
  <ele>1583.0</ele>
  <time>2026-08-28T17:52:16Z</time>
  <course>238.47</course>
  <speed>0.0</speed>
  <fix>3d</fix>
</trkpt>
<trkpt lat="40.0713749" lon="-105.229789">
  <ele>1583.0</ele>
  <time>2026-08-28T17:52:16Z</time>
  <course>0.0</course>
  <speed>0.0</speed>
  <fix>3d</fix>
</trkpt>
<trkpt lat="40.0713749" lon="-105.229789">
  <ele>1583.0</ele>
  <time>2026-08-28T17:52:16Z</time>
  <course>238.69</course>
  <speed>0.0</speed>
  <fix>3d</fix>
</trkpt>
<trkpt lat="40.0713749" lon="-105.229789">
  <ele>1583.0</ele>
  <time>2026-08-28T17:52:16Z</time>
  <course>0.0</course>
  <speed>0.0</speed>
  <fix>3d</fix>
</trkpt>
<trkpt lat="40.0713749" lon="-105.229789">
  <ele>1583.0</ele>
  <time>2026-08-28T17:52:16Z</time>
  <course>238.98</course>
  <speed>0.0</speed>
  <fix>3d</fix>
</trkpt>
<trkpt lat="40.0713749" lon="-105.229789">
  <ele>1583.0</ele>
  <time>2026-08-28T17:52:16Z</time>
  <course>0.0</course>
  <speed>0.0</speed>
  <fix>3d</fix>
</trkpt>
<trkpt lat="40.0713749" lon="-105.229789">
  <ele>1583.0</ele>
  <time>2026-08-28T17:52:16Z</time>
  <course>239.32</course>
  <speed>0.0</speed>
  <fix>3d</fix>
</trkpt>
<trkpt lat="40.0713749" lon="-105.229789">
  <ele>1583.0</ele>
  <time>2026-08-28T17:52:16Z</time>
  <course>0.0</course>
  <speed>0.0</speed>
  <fix>3d</fix>
</trkpt>
<trkpt lat="40.0713749" lon="-105.229789">
  <ele>1583.0</ele>
  <time>2026-08-28T17:52:16Z</time>
  <course>239.67</course>
  <speed>0.0</speed>
  <fix>3d</fix>
</trkpt>
<trkpt lat="40.0713749" lon="-105.229789">
  <ele>1583.0</ele>
  <time>2026-08-28T17:52:16Z</time>
  <course>0.0</course>
  <speed>0.0</speed>
  <fix>3d</fix>
</trkpt>
<trkpt lat="40.0713749" lon="-105.229789">
  <ele>1583.0</ele>
  <time>2026-08-28T17:52:16Z</time>
  <course>240.02</course>
  <speed>0.0</speed>
  <fix>3d</fix>
</trkpt>
<trkpt lat="40.0713749" lon="-105.229789">
  <ele>1583.0</ele>
  <time>2026-08-28T17:52:16Z</time>
  <course>0.0</course>
  <speed>0.0</speed>
  <fix>3d</fix>
</trkpt>
<trkpt lat="40.0713749" lon="-105.229789">
  <ele>1583.0</ele>
  <time>2026-08-28T17:52:16Z</time>
  <course>240.35</course>
  <speed>0.0</speed>
  <fix>3d</fix>
</trkpt>
<trkpt lat="40.0713749" lon="-105.229789">
  <ele>1583.0</ele>
  <time>2026-08-28T17:52:16Z</time>
  <course>0.0</course>
  <speed>0.0</speed>
  <fix>3d</fix>
</trkpt>
<trkpt lat="40.0713749" lon="-105.229789">
  <ele>1583.0</ele>
  <time>2026-08-28T17:52:16Z</time>
  <course>240.61</course>
  <speed>0.0</speed>
  <fix>3d</fix>
</trkpt>
<trkpt lat="40.0713749" lon="-105.229789">
  <ele>1583.0</ele>
  <time>2026-08-28T17:52:16Z</time>
  <course>0.0</course>
  <speed>0.0</speed>
  <fix>3d</fix>
</trkpt>
<trkpt lat="40.0713749" lon="-105.229789">
  <ele>1583.0</ele>
  <time>2026-08-28T17:52:16Z</time>
  <course>240.92</course>
  <speed>0.0</speed>
  <fix>3d</fix>
</trkpt>
<trkpt lat="40.0713749" lon="-105.229789">
  <ele>1583.0</ele>
  <time>2026-08-28T17:52:16Z</time>
  <course>0.0</course>
  <speed>0.0</speed>
  <fix>3d</fix>
</trkpt>
<trkpt lat="40.0713749" lon="-105.229789">
  <ele>1583.0</ele>
  <time>2026-08-28T17:52:16Z</time>
  <course>241.21</course>
  <speed>0.0</speed>
  <fix>3d</fix>
</trkpt>
<trkpt lat="40.0713749" lon="-105.229789">
  <ele>1583.0</ele>
  <time>2026-08-28T17:52:16Z</time>
  <course>0.0</course>
  <speed>0.0</speed>
  <fix>3d</fix>
</trkpt>
<trkpt lat="40.0713749" lon="-105.229789">
  <ele>1583.0</ele>
  <time>2026-08-28T17:52:16Z</time>
  <course>241.49</course>
  <speed>0.0</speed>
  <fix>3d</fix>
</trkpt>
<trkpt lat="40.0713749" lon="-105.229789">
  <ele>1583.0</ele>
  <time>2026-08-28T17:52:16Z</time>
  <course>0.0</course>
  <speed>0.0</speed>
  <fix>3d</fix>
</trkpt>
<trkpt lat="40.0713749" lon="-105.229789">
  <ele>1583.0</ele>
  <time>2026-08-28T17:52:16Z</time>
  <course>241.77</course>
  <speed>0.0</speed>
  <fix>3d</fix>
</trkpt>
<trkpt lat="40.0713749" lon="-105.229789">
  <ele>1583.0</ele>
  <time>2026-08-28T17:52:16Z</time>
  <course>0.0</course>
  <speed>0.0</speed>
  <fix>3d</fix>
</trkpt>
<trkpt lat="40.0713749" lon="-105.229789">
  <ele>1583.0</ele>
  <time>2026-08-28T17:52:16Z</time>
  <course>242.03</course>
  <speed>0.0</speed>
  <fix>3d</fix>
</trkpt>
<trkpt lat="40.0713749" lon="-105.229789">
  <ele>1583.0</ele>
  <time>2026-08-28T17:52:16Z</time>
  <course>0.0</course>
  <speed>0.0</speed>
  <fix>3d</fix>
</trkpt>
<trkpt lat="40.0713749" lon="-105.229789">
  <ele>1583.0</ele>
  <time>2026-08-28T17:52:16Z</time>
  <course>242.29</course>
  <speed>0.0</speed>
  <fix>3d</fix>
</trkpt>
<trkpt lat="40.0713749" lon="-105.229789">
  <ele>1583.0</ele>
  <time>2026-08-28T17:52:16Z</time>
  <course>0.0</course>
  <speed>0.0</speed>
  <fix>3d</fix>
</trkpt>
<trkpt lat="40.0713749" lon="-105.229789">
  <ele>1583.0</ele>
  <time>2026-08-28T17:52:16Z</time>
  <course>242.54</course>
  <speed>0.0</speed>
  <fix>3d</fix>
</trkpt>
<trkpt lat="40.0713749" lon="-105.229789">
  <ele>1583.0</ele>
  <time>2026-08-28T17:52:16Z</time>
  <course>0.0</course>
  <speed>0.0</speed>
  <fix>3d</fix>
</trkpt>
<trkpt lat="40.0713749" lon="-105.229789">
  <ele>1583.0</ele>
  <time>2026-08-28T17:52:16Z</time>
  <course>242.79</course>
  <speed>0.0</speed>
  <fix>3d</fix>
</trkpt>
<trkpt lat="40.0713749" lon="-105.229789">
  <ele>1583.0</ele>
  <time>2026-08-28T17:52:16Z</time>
  <course>0.0</course>
  <speed>0.0</speed>
  <fix>3d</fix>
</trkpt>
<trkpt lat="40.0713749" lon="-105.229789">
  <ele>1583.0</ele>
  <time>2026-08-28T17:52:16Z</time>
  <course>243.02</course>
  <speed>0.0</speed>
  <fix>3d</fix>
</trkpt>
<trkpt lat="40.0713749" lon="-105.229789">
  <ele>1583.0</ele>
  <time>2026-08-28T17:52:16Z</time>
  <course>0.0</course>
  <speed>0.0</speed>
  <fix>3d</fix>
</trkpt>
<trkpt lat="40.0713749" lon="-105.229789">
  <ele>1583.0</ele>
  <time>2026-08-28T17:52:16Z</time>
  <course>243.29</course>
  <speed>0.0</speed>
  <fix>3d</fix>
</trkpt>
<trkpt lat="40.0713749" lon="-105.229789">
  <ele>1583.0</ele>
  <time>2026-08-28T17:52:16Z</time>
  <course>0.0</course>
  <speed>0.0</speed>
  <fix>3d</fix>
</trkpt>
<trkpt lat="40.0713749" lon="-105.229789">
  <ele>1583.0</ele>
  <time>2026-08-28T17:52:16Z</time>
  <course>243.51</course>
  <speed>0.0</speed>
  <fix>3d</fix>
</trkpt>
<trkpt lat="40.0713749" lon="-105.229789">
  <ele>1583.0</ele>
  <time>2026-08-28T17:52:16Z</time>
  <course>0.0</course>
  <speed>0.0</speed>
  <fix>3d</fix>
</trkpt>
<trkpt lat="40.0713749" lon="-105.229789">
  <ele>1583.0</ele>
  <time>2026-08-28T17:52:16Z</time>
  <course>243.72</course>
  <speed>0.0</speed>
  <fix>3d</fix>
</trkpt>
<trkpt lat="40.0713749" lon="-105.229789">
  <ele>1583.0</ele>
  <time>2026-08-28T17:52:16Z</time>
  <course>0.0</course>
  <speed>0.0</speed>
  <fix>3d</fix>
</trkpt>
<trkpt lat="40.0713749" lon="-105.229789">
  <ele>1583.0</ele>
  <time>2026-08-28T17:52:16Z</time>
  <course>243.93</course>
  <speed>0.0</speed>
  <fix>3d</fix>
</trkpt>
<trkpt lat="40.0713749" lon="-105.229789">
  <ele>1583.0</ele>
  <time>2026-08-28T17:52:16Z</time>
  <course>0.0</course>
  <speed>0.0</speed>
  <fix>3d</fix>
</trkpt>
<trkpt lat="40.0713749" lon="-105.229789">
  <ele>1583.0</ele>
  <time>2026-08-28T17:52:16Z</time>
  <course>244.12</course>
  <speed>0.0</speed>
  <fix>3d</fix>
</trkpt>
<trkpt lat="40.0713749" lon="-105.229789">
  <ele>1583.0</ele>
  <time>2026-08-28T17:52:16Z</time>
  <course>0.0</course>
  <speed>0.0</speed>
  <fix>3d</fix>
</trkpt>
<trkpt lat="40.0713749" lon="-105.229789">
  <ele>1583.0</ele>
  <time>2026-08-28T17:52:16Z</time>
  <course>244.31</course>
  <speed>0.0</speed>
  <fix>3d</fix>
</trkpt>
<trkpt lat="40.0713749" lon="-105.229789">
  <ele>1583.0</ele>
  <time>2026-08-28T17:52:16Z</time>
  <course>0.0</course>
  <speed>0.0</speed>
  <fix>3d</fix>
</trkpt>
<trkpt lat="40.0713749" lon="-105.229789">
  <ele>1583.0</ele>
  <time>2026-08-28T17:52:16Z</time>
  <course>244.5</course>
  <speed>0.0</speed>
  <fix>3d</fix>
</trkpt>
<trkpt lat="40.0713749" lon="-105.229789">
  <ele>1583.0</ele>
  <time>2026-08-28T17:52:16Z</time>
  <course>0.0</course>
  <speed>0.0</speed>
  <fix>3d</fix>
</trkpt>
<trkpt lat="40.0713749" lon="-105.229789">
  <ele>1583.0</ele>
  <time>2026-08-28T17:52:16Z</time>
  <course>244.67</course>
  <speed>0.0</speed>
  <fix>3d</fix>
</trkpt>
<trkpt lat="40.0713749" lon="-105.229789">
  <ele>1583.0</ele>
  <time>2026-08-28T17:52:16Z</time>
  <course>0.0</course>
  <speed>0.0</speed>
  <fix>3d</fix>
</trkpt>
<trkpt lat="40.0713749" lon="-105.229789">
  <ele>1583.0</ele>
  <time>2026-08-28T17:52:16Z</time>
  <course>244.84</course>
  <speed>0.0</speed>
  <fix>3d</fix>
</trkpt>
<trkpt lat="40.0713749" lon="-105.229789">
  <ele>1583.0</ele>
  <time>2026-08-28T17:52:16Z</time>
  <course>0.0</course>
  <speed>0.0</speed>
  <fix>3d</fix>
</trkpt>
<trkpt lat="40.0713749" lon="-105.229789">
  <ele>1583.0</ele>
  <time>2026-08-28T17:52:16Z</time>
  <course>245.01</course>
  <speed>0.0</speed>
  <fix>3d</fix>
</trkpt>
<trkpt lat="40.0713749" lon="-105.229789">
  <ele>1583.0</ele>
  <time>2026-08-28T17:52:16Z</time>
  <course>0.0</course>
  <speed>0.0</speed>
  <fix>3d</fix>
</trkpt>
<trkpt lat="40.0713749" lon="-105.229789">
  <ele>1583.0</ele>
  <time>2026-08-28T17:52:16Z</time>
  <course>245.16</course>
  <speed>0.0</speed>
  <fix>3d</fix>
</trkpt>
<trkpt lat="40.0713749" lon="-105.229789">
  <ele>1583.0</ele>
  <time>2026-08-28T17:52:16Z</time>
  <course>0.0</course>
  <speed>0.0</speed>
  <fix>3d</fix>
</trkpt>
<trkpt lat="40.0713749" lon="-105.229789">
  <ele>1583.0</ele>
  <time>2026-08-28T17:52:16Z</time>
  <course>245.29</course>
  <speed>0.0</speed>
  <fix>3d</fix>
</trkpt>
<trkpt lat="40.0713749" lon="-105.229789">
  <ele>1583.0</ele>
  <time>2026-08-28T17:52:16Z</time>
  <course>0.0</course>
  <speed>0.0</speed>
  <fix>3d</fix>
</trkpt>
<trkpt lat="40.0713749" lon="-105.229789">
  <ele>1583.0</ele>
  <time>2026-08-28T17:52:16Z</time>
  <course>245.43</course>
  <speed>0.0</speed>
  <fix>3d</fix>
</trkpt>
<trkpt lat="40.0713749" lon="-105.229789">
  <ele>1583.0</ele>
  <time>2026-08-28T17:52:16Z</time>
  <course>0.0</course>
  <speed>0.0</speed>
  <fix>3d</fix>
</trkpt>
<trkpt lat="40.0713749" lon="-105.229789">
  <ele>1583.0</ele>
  <time>2026-08-28T17:52:16Z</time>
  <course>245.57</course>
  <speed>0.0</speed>
  <fix>3d</fix>
</trkpt>
<trkpt lat="40.0713749" lon="-105.229789">
  <ele>1583.0</ele>
  <time>2026-08-28T17:52:16Z</time>
  <course>0.0</course>
  <speed>0.0</speed>
  <fix>3d</fix>
</trkpt>
<trkpt lat="40.0713749" lon="-105.229789">
  <ele>1583.0</ele>
  <time>2026-08-28T17:52:16Z</time>
  <course>245.71</course>
  <speed>0.0</speed>
  <fix>3d</fix>
</trkpt>
<trkpt lat="40.0713749" lon="-105.229789">
  <ele>1583.0</ele>
  <time>2026-08-28T17:52:16Z</time>
  <course>0.0</course>
  <speed>0.0</speed>
  <fix>3d</fix>
</trkpt>
<trkpt lat="40.0713749" lon="-105.229789">
  <ele>1583.0</ele>
  <time>2026-08-28T17:52:16Z</time>
  <course>245.84</course>
  <speed>0.0</speed>
  <fix>3d</fix>
</trkpt>
<trkpt lat="40.0713749" lon="-105.229789">
  <ele>1583.0</ele>
  <time>2026-08-28T17:52:16Z</time>
  <course>0.0</course>
  <speed>0.0</speed>
  <fix>3d</fix>
</trkpt>
<trkpt lat="40.0713749" lon="-105.229789">
  <ele>1583.0</ele>
  <time>2026-08-28T17:52:16Z</time>
  <course>245.96</course>
  <speed>0.0</speed>
  <fix>3d</fix>
</trkpt>
<trkpt lat="40.0713749" lon="-105.229789">
  <ele>1583.0</ele>
  <time>2026-08-28T17:52:16Z</time>
  <course>0.0</course>
  <speed>0.0</speed>
  <fix>3d</fix>
</trkpt>
<trkpt lat="40.0713749" lon="-105.229789">
  <ele>1583.0</ele>
  <time>2026-08-28T17:52:16Z</time>
  <course>246.08</course>
  <speed>0.0</speed>
  <fix>3d</fix>
</trkpt>
<trkpt lat="40.0713749" lon="-105.229789">
  <ele>1583.0</ele>
  <time>2026-08-28T17:52:16Z</time>
  <course>0.0</course>
  <speed>0.0</speed>
  <fix>3d</fix>
</trkpt>
<trkpt lat="40.0713749" lon="-105.229789">
  <ele>1583.0</ele>
  <time>2026-08-28T17:52:16Z</time>
  <course>246.19</course>
  <speed>0.0</speed>
  <fix>3d</fix>
</trkpt>
<trkpt lat="40.0713749" lon="-105.229789">
  <ele>1583.0</ele>
  <time>2026-08-28T17:52:16Z</time>
  <course>0.0</course>
  <speed>0.0</speed>
  <fix>3d</fix>
</trkpt>
<trkpt lat="40.0713749" lon="-105.229789">
  <ele>1583.0</ele>
  <time>2026-08-28T17:52:16Z</time>
  <course>246.3</course>
  <speed>0.0</speed>
  <fix>3d</fix>
</trkpt>
<trkpt lat="40.0713749" lon="-105.229789">
  <ele>1583.0</ele>
  <time>2026-08-28T17:52:16Z</time>
  <course>0.0</course>
  <speed>0.0</speed>
  <fix>3d</fix>
</trkpt>
<trkpt lat="40.0713749" lon="-105.229789">
  <ele>1583.0</ele>
  <time>2026-08-28T17:52:16Z</time>
  <course>246.41</course>
  <speed>0.0</speed>
  <fix>3d</fix>
</trkpt>
<trkpt lat="40.0713749" lon="-105.229789">
  <ele>1583.0</ele>
  <time>2026-08-28T17:52:16Z</time>
  <course>0.0</course>
  <speed>0.0</speed>
  <fix>3d</fix>
</trkpt>
<trkpt lat="40.0713749" lon="-105.229789">
  <ele>1583.0</ele>
  <time>2026-08-28T17:52:16Z</time>
  <course>246.53</course>
  <speed>0.0</speed>
  <fix>3d</fix>
</trkpt>
<trkpt lat="40.0713749" lon="-105.229789">
  <ele>1583.0</ele>
  <time>2026-08-28T17:52:16Z</time>
  <course>0.0</course>
  <speed>0.0</speed>
  <fix>3d</fix>
</trkpt>
<trkpt lat="40.0713749" lon="-105.229789">
  <ele>1583.0</ele>
  <time>2026-08-28T17:52:16Z</time>
  <course>246.62</course>
  <speed>0.0</speed>
  <fix>3d</fix>
</trkpt>
<trkpt lat="40.0713749" lon="-105.229789">
  <ele>1583.0</ele>
  <time>2026-08-28T17:52:16Z</time>
  <course>0.0</course>
  <speed>0.0</speed>
  <fix>3d</fix>
</trkpt>
<trkpt lat="40.0713749" lon="-105.229789">
  <ele>1583.0</ele>
  <time>2026-08-28T17:52:16Z</time>
  <course>246.71</course>
  <speed>0.0</speed>
  <fix>3d</fix>
</trkpt>
<trkpt lat="40.0713749" lon="-105.229789">
  <ele>1583.0</ele>
  <time>2026-08-28T17:52:16Z</time>
  <course>0.0</course>
  <speed>0.0</speed>
  <fix>3d</fix>
</trkpt>
<trkpt lat="40.0713749" lon="-105.229789">
  <ele>1583.0</ele>
  <time>2026-08-28T17:52:16Z</time>
  <course>246.8</course>
  <speed>0.0</speed>
  <fix>3d</fix>
</trkpt>
<trkpt lat="40.0713749" lon="-105.229789">
  <ele>1583.0</ele>
  <time>2026-08-28T17:52:16Z</time>
  <course>0.0</course>
  <speed>0.0</speed>
  <fix>3d</fix>
</trkpt>
<trkpt lat="40.0713749" lon="-105.229789">
  <ele>1583.0</ele>
  <time>2026-08-28T17:52:16Z</time>
  <course>246.88</course>
  <speed>0.0</speed>
  <fix>3d</fix>
</trkpt>
<trkpt lat="40.0713749" lon="-105.229789">
  <ele>1583.0</ele>
  <time>2026-08-28T17:52:16Z</time>
  <course>0.0</course>
  <speed>0.0</speed>
  <fix>3d</fix>
</trkpt>
<trkpt lat="40.0713749" lon="-105.229789">
  <ele>1583.0</ele>
  <time>2026-08-28T17:52:16Z</time>
  <course>246.96</course>
  <speed>0.0</speed>
  <fix>3d</fix>
</trkpt>
<trkpt lat="40.0713749" lon="-105.229789">
  <ele>1583.0</ele>
  <time>2026-08-28T17:52:16Z</time>
  <course>0.0</course>
  <speed>0.0</speed>
  <fix>3d</fix>
</trkpt>
<trkpt lat="40.0713749" lon="-105.229789">
  <ele>1583.0</ele>
  <time>2026-08-28T17:52:16Z</time>
  <course>247.04</course>
  <speed>0.0</speed>
  <fix>3d</fix>
</trkpt>
<trkpt lat="40.0713749" lon="-105.229789">
  <ele>1583.0</ele>
  <time>2026-08-28T17:52:16Z</time>
  <course>0.0</course>
  <speed>0.0</speed>
  <fix>3d</fix>
</trkpt>
<trkpt lat="40.0713749" lon="-105.229789">
  <ele>1583.0</ele>
  <time>2026-08-28T17:52:16Z</time>
  <course>247.11</course>
  <speed>0.0</speed>
  <fix>3d</fix>
</trkpt>
<trkpt lat="40.0713749" lon="-105.229789">
  <ele>1583.0</ele>
  <time>2026-08-28T17:52:16Z</time>
  <course>0.0</course>
  <speed>0.0</speed>
  <fix>3d</fix>
</trkpt>
<trkpt lat="40.0713749" lon="-105.229789">
  <ele>1583.0</ele>
  <time>2026-08-28T17:52:16Z</time>
  <course>247.18</course>
  <speed>0.0</speed>
  <fix>3d</fix>
</trkpt>
<trkpt lat="40.0713749" lon="-105.229789">
  <ele>1583.0</ele>
  <time>2026-08-28T17:52:16Z</time>
  <course>0.0</course>
  <speed>0.0</speed>
  <fix>3d</fix>
</trkpt>
<trkpt lat="40.0713749" lon="-105.229789">
  <ele>1583.0</ele>
  <time>2026-08-28T17:52:16Z</time>
  <course>247.25</course>
  <speed>0.0</speed>
  <fix>3d</fix>
</trkpt>
<trkpt lat="40.0713749" lon="-105.229789">
  <ele>1583.0</ele>
  <time>2026-08-28T17:52:16Z</time>
  <course>0.0</course>
  <speed>0.0</speed>
  <fix>3d</fix>
</trkpt>
<trkpt lat="40.0713749" lon="-105.229789">
  <ele>1583.0</ele>
  <time>2026-08-28T17:52:16Z</time>
  <course>247.31</course>
  <speed>0.0</speed>
  <fix>3d</fix>
</trkpt>
<trkpt lat="40.0713749" lon="-105.229789">
  <ele>1583.0</ele>
  <time>2026-08-28T17:52:16Z</time>
  <course>0.0</course>
  <speed>0.0</speed>
  <fix>3d</fix>
</trkpt>
<trkpt lat="40.0713749" lon="-105.229789">
  <ele>1583.0</ele>
  <time>2026-08-28T17:52:16Z</time>
  <course>247.36</course>
  <speed>0.0</speed>
  <fix>3d</fix>
</trkpt>
<trkpt lat="40.0713749" lon="-105.229789">
  <ele>1583.0</ele>
  <time>2026-08-28T17:52:16Z</time>
  <course>0.0</course>
  <speed>0.0</speed>
  <fix>3d</fix>
</trkpt>
<trkpt lat="40.0713749" lon="-105.229789">
  <ele>1583.0</ele>
  <time>2026-08-28T17:52:16Z</time>
  <course>247.42</course>
  <speed>0.0</speed>
  <fix>3d</fix>
</trkpt>
<trkpt lat="40.0713749" lon="-105.229789">
  <ele>1583.0</ele>
  <time>2026-08-28T17:52:16Z</time>
  <course>0.0</course>
  <speed>0.0</speed>
  <fix>3d</fix>
</trkpt>
<trkpt lat="40.0713749" lon="-105.229789">
  <ele>1583.0</ele>
  <time>2026-08-28T17:52:16Z</time>
  <course>247.47</course>
  <speed>0.0</speed>
  <fix>3d</fix>
</trkpt>
<trkpt lat="40.0713749" lon="-105.229789">
  <ele>1583.0</ele>
  <time>2026-08-28T17:52:16Z</time>
  <course>0.0</course>
  <speed>0.0</speed>
  <fix>3d</fix>
</trkpt>
<trkpt lat="40.0713749" lon="-105.229789">
  <ele>1583.0</ele>
  <time>2026-08-28T17:52:16Z</time>
  <course>247.53</course>
  <speed>0.0</speed>
  <fix>3d</fix>
</trkpt>
<trkpt lat="40.0713749" lon="-105.229789">
  <ele>1583.0</ele>
  <time>2026-08-28T17:52:16Z</time>
  <course>0.0</course>
  <speed>0.0</speed>
  <fix>3d</fix>
</trkpt>
<trkpt lat="40.0713749" lon="-105.229789">
  <ele>1583.0</ele>
  <time>2026-08-28T17:52:16Z</time>
  <course>247.58</course>
  <speed>0.0</speed>
  <fix>3d</fix>
</trkpt>
<trkpt lat="40.0713749" lon="-105.229789">
  <ele>1583.0</ele>
  <time>2026-08-28T17:52:16Z</time>
  <course>0.0</course>
  <speed>0.0</speed>
  <fix>3d</fix>
</trkpt>
<trkpt lat="40.0713749" lon="-105.229789">
  <ele>1583.0</ele>
  <time>2026-08-28T17:52:16Z</time>
  <course>247.63</course>
  <speed>0.0</speed>
  <fix>3d</fix>
</trkpt>
<trkpt lat="40.0713749" lon="-105.229789">
  <ele>1583.0</ele>
  <time>2026-08-28T17:52:16Z</time>
  <course>0.0</course>
  <speed>0.0</speed>
  <fix>3d</fix>
</trkpt>
<trkpt lat="40.0713749" lon="-105.229789">
  <ele>1583.0</ele>
  <time>2026-08-28T17:52:16Z</time>
  <course>247.67</course>
  <speed>0.0</speed>
  <fix>3d</fix>
</trkpt>
<trkpt lat="40.0713749" lon="-105.229789">
  <ele>1583.0</ele>
  <time>2026-08-28T17:52:16Z</time>
  <course>0.0</course>
  <speed>0.0</speed>
  <fix>3d</fix>
</trkpt>
<trkpt lat="40.0713749" lon="-105.229789">
  <ele>1583.0</ele>
  <time>2026-08-28T17:52:16Z</time>
  <course>247.72</course>
  <speed>0.0</speed>
  <fix>3d</fix>
</trkpt>
<trkpt lat="40.0713749" lon="-105.229789">
  <ele>1583.0</ele>
  <time>2026-08-28T17:52:16Z</time>
  <course>0.0</course>
  <speed>0.0</speed>
  <fix>3d</fix>
</trkpt>
<trkpt lat="40.0713749" lon="-105.229789">
  <ele>1583.0</ele>
  <time>2026-08-28T17:52:16Z</time>
  <course>247.76</course>
  <speed>0.0</speed>
  <fix>3d</fix>
</trkpt>
<trkpt lat="40.0713749" lon="-105.229789">
  <ele>1583.0</ele>
  <time>2026-08-28T17:52:16Z</time>
  <course>0.0</course>
  <speed>0.0</speed>
  <fix>3d</fix>
</trkpt>
<trkpt lat="40.0713749" lon="-105.229789">
  <ele>1583.0</ele>
  <time>2026-08-28T17:52:16Z</time>
  <course>247.81</course>
  <speed>0.0</speed>
  <fix>3d</fix>
</trkpt>
<trkpt lat="40.0713749" lon="-105.229789">
  <ele>1583.0</ele>
  <time>2026-08-28T17:52:16Z</time>
  <course>0.0</course>
  <speed>0.0</speed>
  <fix>3d</fix>
</trkpt>
<trkpt lat="40.0713749" lon="-105.229789">
  <ele>1583.0</ele>
  <time>2026-08-28T17:52:16Z</time>
  <course>247.84</course>
  <speed>0.0</speed>
  <fix>3d</fix>
</trkpt>
<trkpt lat="40.0713749" lon="-105.229789">
  <ele>1583.0</ele>
  <time>2026-08-28T17:52:16Z</time>
  <course>0.0</course>
  <speed>0.0</speed>
  <fix>3d</fix>
</trkpt>
<trkpt lat="40.0713749" lon="-105.229789">
  <ele>1583.0</ele>
  <time>2026-08-28T17:52:16Z</time>
  <course>247.88</course>
  <speed>0.0</speed>
  <fix>3d</fix>
</trkpt>
<trkpt lat="40.0713749" lon="-105.229789">
  <ele>1583.0</ele>
  <time>2026-08-28T17:52:16Z</time>
  <course>0.0</course>
  <speed>0.0</speed>
  <fix>3d</fix>
</trkpt>
<trkpt lat="40.0713749" lon="-105.229789">
  <ele>1583.0</ele>
  <time>2026-08-28T17:52:16Z</time>
  <course>247.91</course>
  <speed>0.0</speed>
  <fix>3d</fix>
</trkpt>
<trkpt lat="40.0713749" lon="-105.229789">
  <ele>1583.0</ele>
  <time>2026-08-28T17:52:16Z</time>
  <course>0.0</course>
  <speed>0.0</speed>
  <fix>3d</fix>
</trkpt>
<trkpt lat="40.0713749" lon="-105.229789">
  <ele>1583.0</ele>
  <time>2026-08-28T17:52:16Z</time>
  <course>247.94</course>
  <speed>0.0</speed>
  <fix>3d</fix>
</trkpt>
<trkpt lat="40.0713749" lon="-105.229789">
  <ele>1583.0</ele>
  <time>2026-08-28T17:52:16Z</time>
  <course>0.0</course>
  <speed>0.0</speed>
  <fix>3d</fix>
</trkpt>
<trkpt lat="40.0713749" lon="-105.229789">
  <ele>1583.0</ele>
  <time>2026-08-28T17:52:16Z</time>
  <course>247.97</course>
  <speed>0.0</speed>
  <fix>3d</fix>
</trkpt>
<trkpt lat="40.0713749" lon="-105.229789">
  <ele>1583.0</ele>
  <time>2026-08-28T17:52:16Z</time>
  <course>0.0</course>
  <speed>0.0</speed>
  <fix>3d</fix>
</trkpt>
<trkpt lat="40.0713749" lon="-105.229789">
  <ele>1583.0</ele>
  <time>2026-08-28T17:52:16Z</time>
  <course>248.0</course>
  <speed>0.0</speed>
  <fix>3d</fix>
</trkpt>
<trkpt lat="40.0713749" lon="-105.229789">
  <ele>1583.0</ele>
  <time>2026-08-28T17:52:16Z</time>
  <course>0.0</course>
  <speed>0.0</speed>
  <fix>3d</fix>
</trkpt>
<trkpt lat="40.0713749" lon="-105.229789">
  <ele>1583.0</ele>
  <time>2026-08-28T17:52:16Z</time>
  <course>248.03</course>
  <speed>0.0</speed>
  <fix>3d</fix>
</trkpt>
<trkpt lat="40.0713749" lon="-105.229789">
  <ele>1583.0</ele>
  <time>2026-08-28T17:52:16Z</time>
  <course>0.0</course>
  <speed>0.0</speed>
  <fix>3d</fix>
</trkpt>
<trkpt lat="40.0713749" lon="-105.229789">
  <ele>1583.0</ele>
  <time>2026-08-28T17:52:16Z</time>
  <course>248.06</course>
  <speed>0.0</speed>
  <fix>3d</fix>
</trkpt>
<trkpt lat="40.0713749" lon="-105.229789">
  <ele>1583.0</ele>
  <time>2026-08-28T17:52:16Z</time>
  <course>0.0</course>
  <speed>0.0</speed>
  <fix>3d</fix>
</trkpt>
<trkpt lat="40.0713749" lon="-105.229789">
  <ele>1583.0</ele>
  <time>2026-08-28T17:52:16Z</time>
  <course>248.08</course>
  <speed>0.0</speed>
  <fix>3d</fix>
</trkpt>
<trkpt lat="40.0713749" lon="-105.229789">
  <ele>1583.0</ele>
  <time>2026-08-28T17:52:16Z</time>
  <course>0.0</course>
  <speed>0.0</speed>
  <fix>3d</fix>
</trkpt>
<trkpt lat="40.0713749" lon="-105.229789">
  <ele>1583.0</ele>
  <time>2026-08-28T17:52:16Z</time>
  <course>248.11</course>
  <speed>0.0</speed>
  <fix>3d</fix>
</trkpt>
<trkpt lat="40.0713749" lon="-105.229789">
  <ele>1583.0</ele>
  <time>2026-08-28T17:52:16Z</time>
  <course>0.0</course>
  <speed>0.0</speed>
  <fix>3d</fix>
</trkpt>
<trkpt lat="40.0713749" lon="-105.229789">
  <ele>1583.0</ele>
  <time>2026-08-28T17:52:16Z</time>
  <course>248.12</course>
  <speed>0.0</speed>
  <fix>3d</fix>
</trkpt>
<trkpt lat="40.0713749" lon="-105.229789">
  <ele>1583.0</ele>
  <time>2026-08-28T17:52:16Z</time>
  <course>0.0</course>
  <speed>0.0</speed>
  <fix>3d</fix>
</trkpt>
<trkpt lat="40.0713749" lon="-105.229789">
  <ele>1583.0</ele>
  <time>2026-08-28T17:52:16Z</time>
  <course>248.14</course>
  <speed>0.0</speed>
  <fix>3d</fix>
</trkpt>
<trkpt lat="40.0713749" lon="-105.229789">
  <ele>1583.0</ele>
  <time>2026-08-28T17:52:16Z</time>
  <course>0.0</course>
  <speed>0.0</speed>
  <fix>3d</fix>
</trkpt>
<trkpt lat="40.0713749" lon="-105.229789">
  <ele>1583.0</ele>
  <time>2026-08-28T17:52:16Z</time>
  <course>248.16</course>
  <speed>0.0</speed>
  <fix>3d</fix>
</trkpt>
<trkpt lat="40.0713749" lon="-105.229789">
  <ele>1583.0</ele>
  <time>2026-08-28T17:52:16Z</time>
  <course>0.0</course>
  <speed>0.0</speed>
  <fix>3d</fix>
</trkpt>
<trkpt lat="40.0713749" lon="-105.229789">
  <ele>1583.0</ele>
  <time>2026-08-28T17:52:16Z</time>
  <course>248.18</course>
  <speed>0.0</speed>
  <fix>3d</fix>
</trkpt>
<trkpt lat="40.0713749" lon="-105.229789">
  <ele>1583.0</ele>
  <time>2026-08-28T17:52:16Z</time>
  <course>0.0</course>
  <speed>0.0</speed>
  <fix>3d</fix>
</trkpt>
<trkpt lat="40.0713749" lon="-105.229789">
  <ele>1583.0</ele>
  <time>2026-08-28T17:52:16Z</time>
  <course>248.2</course>
  <speed>0.0</speed>
  <fix>3d</fix>
</trkpt>
<trkpt lat="40.0713749" lon="-105.229789">
  <ele>1583.0</ele>
  <time>2026-08-28T17:52:16Z</time>
  <course>0.0</course>
  <speed>0.0</speed>
  <fix>3d</fix>
</trkpt>
<trkpt lat="40.0713749" lon="-105.229789">
  <ele>1583.0</ele>
  <time>2026-08-28T17:52:16Z</time>
  <course>248.22</course>
  <speed>0.0</speed>
  <fix>3d</fix>
</trkpt>
<trkpt lat="40.0713749" lon="-105.229789">
  <ele>1583.0</ele>
  <time>2026-08-28T17:52:16Z</time>
  <course>0.0</course>
  <speed>0.0</speed>
  <fix>3d</fix>
</trkpt>
<trkpt lat="40.0713749" lon="-105.229789">
  <ele>1583.0</ele>
  <time>2026-08-28T17:52:16Z</time>
  <course>248.23</course>
  <speed>0.0</speed>
  <fix>3d</fix>
</trkpt>
<trkpt lat="40.0713749" lon="-105.229789">
  <ele>1583.0</ele>
  <time>2026-08-28T17:52:16Z</time>
  <course>0.0</course>
  <speed>0.0</speed>
  <fix>3d</fix>
</trkpt>
<trkpt lat="40.0713749" lon="-105.229789">
  <ele>1583.0</ele>
  <time>2026-08-28T17:52:16Z</time>
  <course>248.25</course>
  <speed>0.0</speed>
  <fix>3d</fix>
</trkpt>
<trkpt lat="40.0713749" lon="-105.229789">
  <ele>1583.0</ele>
  <time>2026-08-28T17:52:16Z</time>
  <course>0.0</course>
  <speed>0.0</speed>
  <fix>3d</fix>
</trkpt>
<trkpt lat="40.0713749" lon="-105.229789">
  <ele>1583.0</ele>
  <time>2026-08-28T17:52:17Z</time>
  <course>248.26</course>
  <speed>0.0</speed>
  <fix>3d</fix>
</trkpt>
<trkpt lat="40.0713749" lon="-105.229789">
  <ele>1583.0</ele>
  <time>2026-08-28T17:52:17Z</time>
  <course>0.0</course>
  <speed>0.0</speed>
  <fix>3d</fix>
</trkpt>
<trkpt lat="40.0713749" lon="-105.229789">
  <ele>1583.0</ele>
  <time>2026-08-28T17:52:17Z</time>
  <course>248.28</course>
  <speed>0.0</speed>
  <fix>3d</fix>
</trkpt>
<trkpt lat="40.0713749" lon="-105.229789">
  <ele>1583.0</ele>
  <time>2026-08-28T17:52:17Z</time>
  <course>0.0</course>
  <speed>0.0</speed>
  <fix>3d</fix>
</trkpt>
<trkpt lat="40.0713749" lon="-105.229789">
  <ele>1583.0</ele>
  <time>2026-08-28T17:52:17Z</time>
  <course>248.29</course>
  <speed>0.0</speed>
  <fix>3d</fix>
</trkpt>
<trkpt lat="40.0713749" lon="-105.229789">
  <ele>1583.0</ele>
  <time>2026-08-28T17:52:17Z</time>
  <course>0.0</course>
  <speed>0.0</speed>
  <fix>3d</fix>
</trkpt>
<trkpt lat="40.0713749" lon="-105.229789">
  <ele>1583.0</ele>
  <time>2026-08-28T17:52:17Z</time>
  <course>248.3</course>
  <speed>0.0</speed>
  <fix>3d</fix>
</trkpt>
<trkpt lat="40.0713749" lon="-105.229789">
  <ele>1583.0</ele>
  <time>2026-08-28T17:52:17Z</time>
  <course>0.0</course>
  <speed>0.0</speed>
  <fix>3d</fix>
</trkpt>
<trkpt lat="40.0713749" lon="-105.229789">
  <ele>1583.0</ele>
  <time>2026-08-28T17:52:17Z</time>
  <course>248.31</course>
  <speed>0.0</speed>
  <fix>3d</fix>
</trkpt>
<trkpt lat="40.0713749" lon="-105.229789">
  <ele>1583.0</ele>
  <time>2026-08-28T17:52:17Z</time>
  <course>0.0</course>
  <speed>0.0</speed>
  <fix>3d</fix>
</trkpt>
<trkpt lat="40.0713749" lon="-105.229789">
  <ele>1583.0</ele>
  <time>2026-08-28T17:52:17Z</time>
  <course>248.32</course>
  <speed>0.0</speed>
  <fix>3d</fix>
</trkpt>
<trkpt lat="40.0713749" lon="-105.229789">
  <ele>1583.0</ele>
  <time>2026-08-28T17:52:17Z</time>
  <course>0.0</course>
  <speed>0.0</speed>
  <fix>3d</fix>
</trkpt>
<trkpt lat="40.0713749" lon="-105.229789">
  <ele>1583.0</ele>
  <time>2026-08-28T17:52:17Z</time>
  <course>248.33</course>
  <speed>0.0</speed>
  <fix>3d</fix>
</trkpt>
<trkpt lat="40.0713749" lon="-105.229789">
  <ele>1583.0</ele>
  <time>2026-08-28T17:52:17Z</time>
  <course>0.0</course>
  <speed>0.0</speed>
  <fix>3d</fix>
</trkpt>
<trkpt lat="40.0713749" lon="-105.229789">
  <ele>1583.0</ele>
  <time>2026-08-28T17:52:17Z</time>
  <course>248.34</course>
  <speed>0.0</speed>
  <fix>3d</fix>
</trkpt>
<trkpt lat="40.0713749" lon="-105.229789">
  <ele>1583.0</ele>
  <time>2026-08-28T17:52:17Z</time>
  <course>0.0</course>
  <speed>0.0</speed>
  <fix>3d</fix>
</trkpt>
<trkpt lat="40.0713749" lon="-105.229789">
  <ele>1583.0</ele>
  <time>2026-08-28T17:52:17Z</time>
  <course>248.35</course>
  <speed>0.0</speed>
  <fix>3d</fix>
</trkpt>
<trkpt lat="40.0713749" lon="-105.229789">
  <ele>1583.0</ele>
  <time>2026-08-28T17:52:17Z</time>
  <course>0.0</course>
  <speed>0.0</speed>
  <fix>3d</fix>
</trkpt>
<trkpt lat="40.0713749" lon="-105.229789">
  <ele>1583.0</ele>
  <time>2026-08-28T17:52:17Z</time>
  <course>248.36</course>
  <speed>0.0</speed>
  <fix>3d</fix>
</trkpt>
<trkpt lat="40.0713749" lon="-105.229789">
  <ele>1583.0</ele>
  <time>2026-08-28T17:52:17Z</time>
  <course>0.0</course>
  <speed>0.0</speed>
  <fix>3d</fix>
</trkpt>
<trkpt lat="40.0713749" lon="-105.229789">
  <ele>1583.0</ele>
  <time>2026-08-28T17:52:17Z</time>
  <course>248.36</course>
  <speed>0.0</speed>
  <fix>3d</fix>
</trkpt>
<trkpt lat="40.0713749" lon="-105.229789">
  <ele>1583.0</ele>
  <time>2026-08-28T17:52:17Z</time>
  <course>0.0</course>
  <speed>0.0</speed>
  <fix>3d</fix>
</trkpt>
<trkpt lat="40.0713749" lon="-105.229789">
  <ele>1583.0</ele>
  <time>2026-08-28T17:52:17Z</time>
  <course>248.37</course>
  <speed>0.0</speed>
  <fix>3d</fix>
</trkpt>
<trkpt lat="40.0713749" lon="-105.229789">
  <ele>1583.0</ele>
  <time>2026-08-28T17:52:17Z</time>
  <course>0.0</course>
  <speed>0.0</speed>
  <fix>3d</fix>
</trkpt>
<trkpt lat="40.0713749" lon="-105.229789">
  <ele>1583.0</ele>
  <time>2026-08-28T17:52:17Z</time>
  <course>248.38</course>
  <speed>0.0</speed>
  <fix>3d</fix>
</trkpt>
<trkpt lat="40.0713749" lon="-105.229789">
  <ele>1583.0</ele>
  <time>2026-08-28T17:52:17Z</time>
  <course>0.0</course>
  <speed>0.0</speed>
  <fix>3d</fix>
</trkpt>
<trkpt lat="40.0713749" lon="-105.229789">
  <ele>1583.0</ele>
  <time>2026-08-28T17:52:17Z</time>
  <course>248.38</course>
  <speed>0.0</speed>
  <fix>3d</fix>
</trkpt>
<trkpt lat="40.0713749" lon="-105.229789">
  <ele>1583.0</ele>
  <time>2026-08-28T17:52:17Z</time>
  <course>0.0</course>
  <speed>0.0</speed>
  <fix>3d</fix>
</trkpt>
<trkpt lat="40.0713749" lon="-105.229789">
  <ele>1583.0</ele>
  <time>2026-08-28T17:52:17Z</time>
  <course>248.38</course>
  <speed>0.0</speed>
  <fix>3d</fix>
</trkpt>
<trkpt lat="40.0713749" lon="-105.229789">
  <ele>1583.0</ele>
  <time>2026-08-28T17:52:17Z</time>
  <course>0.0</course>
  <speed>0.0</speed>
  <fix>3d</fix>
</trkpt>
<trkpt lat="40.0713749" lon="-105.229789">
  <ele>1583.0</ele>
  <time>2026-08-28T17:52:17Z</time>
  <course>248.39</course>
  <speed>0.0</speed>
  <fix>3d</fix>
</trkpt>
<trkpt lat="40.0713749" lon="-105.229789">
  <ele>1583.0</ele>
  <time>2026-08-28T17:52:17Z</time>
  <course>0.0</course>
  <speed>0.0</speed>
  <fix>3d</fix>
</trkpt>
<trkpt lat="40.0713749" lon="-105.229789">
  <ele>1583.0</ele>
  <time>2026-08-28T17:52:17Z</time>
  <course>248.39</course>
  <speed>0.0</speed>
  <fix>3d</fix>
</trkpt>
<trkpt lat="40.0713749" lon="-105.229789">
  <ele>1583.0</ele>
  <time>2026-08-28T17:52:17Z</time>
  <course>0.0</course>
  <speed>0.0</speed>
  <fix>3d</fix>
</trkpt>
<trkpt lat="40.0713749" lon="-105.229789">
  <ele>1583.0</ele>
  <time>2026-08-28T17:52:17Z</time>
  <course>248.4</course>
  <speed>0.0</speed>
  <fix>3d</fix>
</trkpt>
<trkpt lat="40.0713749" lon="-105.229789">
  <ele>1583.0</ele>
  <time>2026-08-28T17:52:17Z</time>
  <course>0.0</course>
  <speed>0.0</speed>
  <fix>3d</fix>
</trkpt>
<trkpt lat="40.0713749" lon="-105.229789">
  <ele>1583.0</ele>
  <time>2026-08-28T17:52:17Z</time>
  <course>248.4</course>
  <speed>0.0</speed>
  <fix>3d</fix>
</trkpt>
<trkpt lat="40.0713749" lon="-105.229789">
  <ele>1583.0</ele>
  <time>2026-08-28T17:52:17Z</time>
  <course>0.0</course>
  <speed>0.0</speed>
  <fix>3d</fix>
</trkpt>
<trkpt lat="40.0713749" lon="-105.229789">
  <ele>1583.0</ele>
  <time>2026-08-28T17:52:17Z</time>
  <course>248.4</course>
  <speed>0.0</speed>
  <fix>3d</fix>
</trkpt>
<trkpt lat="40.0713749" lon="-105.229789">
  <ele>1583.0</ele>
  <time>2026-08-28T17:52:17Z</time>
  <course>0.0</course>
  <speed>0.0</speed>
  <fix>3d</fix>
</trkpt>
<trkpt lat="40.0713749" lon="-105.229789">
  <ele>1583.0</ele>
  <time>2026-08-28T17:52:17Z</time>
  <course>248.4</course>
  <speed>0.0</speed>
  <fix>3d</fix>
</trkpt>
<trkpt lat="40.0713749" lon="-105.229789">
  <ele>1583.0</ele>
  <time>2026-08-28T17:52:17Z</time>
  <course>0.0</course>
  <speed>0.0</speed>
  <fix>3d</fix>
</trkpt>
<trkpt lat="40.0713749" lon="-105.229789">
  <ele>1583.0</ele>
  <time>2026-08-28T17:52:17Z</time>
  <course>248.41</course>
  <speed>0.0</speed>
  <fix>3d</fix>
</trkpt>
<trkpt lat="40.0713749" lon="-105.229789">
  <ele>1583.0</ele>
  <time>2026-08-28T17:52:17Z</time>
  <course>0.0</course>
  <speed>0.0</speed>
  <fix>3d</fix>
</trkpt>
<trkpt lat="40.0713749" lon="-105.229789">
  <ele>1583.0</ele>
  <time>2026-08-28T17:52:17Z</time>
  <course>248.41</course>
  <speed>0.0</speed>
  <fix>3d</fix>
</trkpt>
<trkpt lat="40.0713749" lon="-105.229789">
  <ele>1583.0</ele>
  <time>2026-08-28T17:52:17Z</time>
  <course>0.0</course>
  <speed>0.0</speed>
  <fix>3d</fix>
</trkpt>
<trkpt lat="40.0713749" lon="-105.229789">
  <ele>1583.0</ele>
  <time>2026-08-28T17:52:17Z</time>
  <course>248.41</course>
  <speed>0.0</speed>
  <fix>3d</fix>
</trkpt>
<trkpt lat="40.0713749" lon="-105.229789">
  <ele>1583.0</ele>
  <time>2026-08-28T17:52:17Z</time>
  <course>0.0</course>
  <speed>0.0</speed>
  <fix>3d</fix>
</trkpt>
<trkpt lat="40.0713749" lon="-105.229789">
  <ele>1583.0</ele>
  <time>2026-08-28T17:52:17Z</time>
  <course>248.41</course>
  <speed>0.0</speed>
  <fix>3d</fix>
</trkpt>
<trkpt lat="40.0713749" lon="-105.229789">
  <ele>1583.0</ele>
  <time>2026-08-28T17:52:17Z</time>
  <course>0.0</course>
  <speed>0.0</speed>
  <fix>3d</fix>
</trkpt>
<trkpt lat="40.0713749" lon="-105.229789">
  <ele>1583.0</ele>
  <time>2026-08-28T17:52:17Z</time>
  <course>248.41</course>
  <speed>0.0</speed>
  <fix>3d</fix>
</trkpt>
<trkpt lat="40.0713749" lon="-105.229789">
  <ele>1583.0</ele>
  <time>2026-08-28T17:52:17Z</time>
  <course>0.0</course>
  <speed>0.0</speed>
  <fix>3d</fix>
</trkpt>
<trkpt lat="40.0713749" lon="-105.229789">
  <ele>1583.0</ele>
  <time>2026-08-28T17:52:17Z</time>
  <course>248.41</course>
  <speed>0.0</speed>
  <fix>3d</fix>
</trkpt>
<trkpt lat="40.0713749" lon="-105.229789">
  <ele>1583.0</ele>
  <time>2026-08-28T17:52:17Z</time>
  <course>0.0</course>
  <speed>0.0</speed>
  <fix>3d</fix>
</trkpt>
<trkpt lat="40.0713749" lon="-105.229789">
  <ele>1583.0</ele>
  <time>2026-08-28T17:52:17Z</time>
  <course>248.41</course>
  <speed>0.0</speed>
  <fix>3d</fix>
</trkpt>
<trkpt lat="40.0713749" lon="-105.229789">
  <ele>1583.0</ele>
  <time>2026-08-28T17:52:17Z</time>
  <course>0.0</course>
  <speed>0.0</speed>
  <fix>3d</fix>
</trkpt>
<trkpt lat="40.0713749" lon="-105.229789">
  <ele>1583.0</ele>
  <time>2026-08-28T17:52:17Z</time>
  <course>248.41</course>
  <speed>0.0</speed>
  <fix>3d</fix>
</trkpt>
<trkpt lat="40.0713749" lon="-105.229789">
  <ele>1583.0</ele>
  <time>2026-08-28T17:52:17Z</time>
  <course>0.0</course>
  <speed>0.0</speed>
  <fix>3d</fix>
</trkpt>
<trkpt lat="40.0713749" lon="-105.229789">
  <ele>1583.0</ele>
  <time>2026-08-28T17:52:17Z</time>
  <course>248.41</course>
  <speed>0.0</speed>
  <fix>3d</fix>
</trkpt>
<trkpt lat="40.0713749" lon="-105.229789">
  <ele>1583.0</ele>
  <time>2026-08-28T17:52:17Z</time>
  <course>0.0</course>
  <speed>0.0</speed>
  <fix>3d</fix>
</trkpt>
<trkpt lat="40.0713749" lon="-105.229789">
  <ele>1583.0</ele>
  <time>2026-08-28T17:52:17Z</time>
  <course>248.41</course>
  <speed>0.0</speed>
  <fix>3d</fix>
</trkpt>
<trkpt lat="40.0713749" lon="-105.229789">
  <ele>1583.0</ele>
  <time>2026-08-28T17:52:17Z</time>
  <course>0.0</course>
  <speed>0.0</speed>
  <fix>3d</fix>
</trkpt>
<trkpt lat="40.0713749" lon="-105.229789">
  <ele>1583.0</ele>
  <time>2026-08-28T17:52:17Z</time>
  <course>248.41</course>
  <speed>0.0</speed>
  <fix>3d</fix>
</trkpt>
<trkpt lat="40.0713749" lon="-105.229789">
  <ele>1583.0</ele>
  <time>2026-08-28T17:52:17Z</time>
  <course>0.0</course>
  <speed>0.0</speed>
  <fix>3d</fix>
</trkpt>
<trkpt lat="40.0713749" lon="-105.229789">
  <ele>1583.0</ele>
  <time>2026-08-28T17:52:17Z</time>
  <course>248.41</course>
  <speed>0.0</speed>
  <fix>3d</fix>
</trkpt>
<trkpt lat="40.0713749" lon="-105.229789">
  <ele>1583.0</ele>
  <time>2026-08-28T17:52:17Z</time>
  <course>0.0</course>
  <speed>0.0</speed>
  <fix>3d</fix>
</trkpt>
<trkpt lat="40.0713749" lon="-105.229789">
  <ele>1583.0</ele>
  <time>2026-08-28T17:52:17Z</time>
  <course>248.41</course>
  <speed>0.0</speed>
  <fix>3d</fix>
</trkpt>
<trkpt lat="40.0713749" lon="-105.229789">
  <ele>1583.0</ele>
  <time>2026-08-28T17:52:17Z</time>
  <course>0.0</course>
  <speed>0.0</speed>
  <fix>3d</fix>
</trkpt>
<trkpt lat="40.0713749" lon="-105.229789">
  <ele>1583.0</ele>
  <time>2026-08-28T17:52:17Z</time>
  <course>248.41</course>
  <speed>0.0</speed>
  <fix>3d</fix>
</trkpt>
<trkpt lat="40.0713749" lon="-105.229789">
  <ele>1583.0</ele>
  <time>2026-08-28T17:52:17Z</time>
  <course>0.0</course>
  <speed>0.0</speed>
  <fix>3d</fix>
</trkpt>
<trkpt lat="40.0713749" lon="-105.229789">
  <ele>1583.0</ele>
  <time>2026-08-28T17:52:17Z</time>
  <course>248.41</course>
  <speed>0.0</speed>
  <fix>3d</fix>
</trkpt>
<trkpt lat="40.0713749" lon="-105.229789">
  <ele>1583.0</ele>
  <time>2026-08-28T17:52:17Z</time>
  <course>0.0</course>
  <speed>0.0</speed>
  <fix>3d</fix>
</trkpt>
<trkpt lat="40.0713749" lon="-105.229789">
  <ele>1583.0</ele>
  <time>2026-08-28T17:52:17Z</time>
  <course>248.41</course>
  <speed>0.0</speed>
  <fix>3d</fix>
</trkpt>
<trkpt lat="40.0713749" lon="-105.229789">
  <ele>1583.0</ele>
  <time>2026-08-28T17:52:17Z</time>
  <course>0.0</course>
  <speed>0.0</speed>
  <fix>3d</fix>
</trkpt>
<trkpt lat="40.0713749" lon="-105.229789">
  <ele>1583.0</ele>
  <time>2026-08-28T17:52:17Z</time>
  <course>248.4</course>
  <speed>0.0</speed>
  <fix>3d</fix>
</trkpt>
<trkpt lat="40.0713749" lon="-105.229789">
  <ele>1583.0</ele>
  <time>2026-08-28T17:52:17Z</time>
  <course>0.0</course>
  <speed>0.0</speed>
  <fix>3d</fix>
</trkpt>
<trkpt lat="40.0713749" lon="-105.229789">
  <ele>1583.0</ele>
  <time>2026-08-28T17:52:17Z</time>
  <course>248.4</course>
  <speed>0.01</speed>
  <fix>3d</fix>
</trkpt>
<trkpt lat="40.0713749" lon="-105.229789">
  <ele>1583.0</ele>
  <time>2026-08-28T17:52:17Z</time>
  <course>0.0</course>
  <speed>0.0</speed>
  <fix>3d</fix>
</trkpt>
<trkpt lat="40.0713749" lon="-105.229789">
  <ele>1583.0</ele>
  <time>2026-08-28T17:52:17Z</time>
  <course>248.4</course>
  <speed>0.01</speed>
  <fix>3d</fix>
</trkpt>
<trkpt lat="40.0713749" lon="-105.229789">
  <ele>1583.0</ele>
  <time>2026-08-28T17:52:17Z</time>
  <course>0.0</course>
  <speed>0.0</speed>
  <fix>3d</fix>
</trkpt>
<trkpt lat="40.0713749" lon="-105.229789">
  <ele>1583.0</ele>
  <time>2026-08-28T17:52:17Z</time>
  <course>248.4</course>
  <speed>0.01</speed>
  <fix>3d</fix>
</trkpt>
<trkpt lat="40.0713749" lon="-105.229789">
  <ele>1583.0</ele>
  <time>2026-08-28T17:52:17Z</time>
  <course>0.0</course>
  <speed>0.0</speed>
  <fix>3d</fix>
</trkpt>
<trkpt lat="40.0713749" lon="-105.229789">
  <ele>1583.0</ele>
  <time>2026-08-28T17:52:17Z</time>
  <course>248.4</course>
  <speed>0.01</speed>
  <fix>3d</fix>
</trkpt>
<trkpt lat="40.0713749" lon="-105.229789">
  <ele>1583.0</ele>
  <time>2026-08-28T17:52:17Z</time>
  <course>0.0</course>
  <speed>0.0</speed>
  <fix>3d</fix>
</trkpt>
<trkpt lat="40.0713749" lon="-105.229789">
  <ele>1583.0</ele>
  <time>2026-08-28T17:52:17Z</time>
  <course>248.39</course>
  <speed>0.01</speed>
  <fix>3d</fix>
</trkpt>
<trkpt lat="40.0713749" lon="-105.229789">
  <ele>1583.0</ele>
  <time>2026-08-28T17:52:17Z</time>
  <course>0.0</course>
  <speed>0.0</speed>
  <fix>3d</fix>
</trkpt>
<trkpt lat="40.0713749" lon="-105.229789">
  <ele>1583.0</ele>
  <time>2026-08-28T17:52:17Z</time>
  <course>248.39</course>
  <speed>0.01</speed>
  <fix>3d</fix>
</trkpt>
<trkpt lat="40.0713749" lon="-105.229789">
  <ele>1583.0</ele>
  <time>2026-08-28T17:52:17Z</time>
  <course>0.0</course>
  <speed>0.0</speed>
  <fix>3d</fix>
</trkpt>
<trkpt lat="40.0713749" lon="-105.229789">
  <ele>1583.0</ele>
  <time>2026-08-28T17:52:17Z</time>
  <course>248.39</course>
  <speed>0.01</speed>
  <fix>3d</fix>
</trkpt>
<trkpt lat="40.0713749" lon="-105.229789">
  <ele>1583.0</ele>
  <time>2026-08-28T17:52:17Z</time>
  <course>0.0</course>
  <speed>0.0</speed>
  <fix>3d</fix>
</trkpt>
<trkpt lat="40.0713749" lon="-105.229789">
  <ele>1583.0</ele>
  <time>2026-08-28T17:52:17Z</time>
  <course>248.38</course>
  <speed>0.01</speed>
  <fix>3d</fix>
</trkpt>
<trkpt lat="40.0713749" lon="-105.229789">
  <ele>1583.0</ele>
  <time>2026-08-28T17:52:17Z</time>
  <course>0.0</course>
  <speed>0.0</speed>
  <fix>3d</fix>
</trkpt>
<trkpt lat="40.0713749" lon="-105.229789">
  <ele>1583.0</ele>
  <time>2026-08-28T17:52:17Z</time>
  <course>248.38</course>
  <speed>0.01</speed>
  <fix>3d</fix>
</trkpt>
<trkpt lat="40.0713749" lon="-105.229789">
  <ele>1583.0</ele>
  <time>2026-08-28T17:52:17Z</time>
  <course>0.0</course>
  <speed>0.0</speed>
  <fix>3d</fix>
</trkpt>
<trkpt lat="40.0713749" lon="-105.229789">
  <ele>1583.0</ele>
  <time>2026-08-28T17:52:17Z</time>
  <course>248.38</course>
  <speed>0.01</speed>
  <fix>3d</fix>
</trkpt>
<trkpt lat="40.0713749" lon="-105.229789">
  <ele>1583.0</ele>
  <time>2026-08-28T17:52:17Z</time>
  <course>0.0</course>
  <speed>0.0</speed>
  <fix>3d</fix>
</trkpt>
<trkpt lat="40.0713749" lon="-105.229789">
  <ele>1583.0</ele>
  <time>2026-08-28T17:52:17Z</time>
  <course>248.38</course>
  <speed>0.01</speed>
  <fix>3d</fix>
</trkpt>
<trkpt lat="40.0713749" lon="-105.229789">
  <ele>1583.0</ele>
  <time>2026-08-28T17:52:17Z</time>
  <course>0.0</course>
  <speed>0.0</speed>
  <fix>3d</fix>
</trkpt>
<trkpt lat="40.0713749" lon="-105.229789">
  <ele>1583.0</ele>
  <time>2026-08-28T17:52:17Z</time>
  <course>248.37</course>
  <speed>0.01</speed>
  <fix>3d</fix>
</trkpt>
<trkpt lat="40.0713749" lon="-105.229789">
  <ele>1583.0</ele>
  <time>2026-08-28T17:52:17Z</time>
  <course>0.0</course>
  <speed>0.0</speed>
  <fix>3d</fix>
</trkpt>
<trkpt lat="40.0713749" lon="-105.229789">
  <ele>1583.0</ele>
  <time>2026-08-28T17:52:17Z</time>
  <course>248.37</course>
  <speed>0.01</speed>
  <fix>3d</fix>
</trkpt>
<trkpt lat="40.0713749" lon="-105.229789">
  <ele>1583.0</ele>
  <time>2026-08-28T17:52:17Z</time>
  <course>0.0</course>
  <speed>0.0</speed>
  <fix>3d</fix>
</trkpt>
<trkpt lat="40.0713749" lon="-105.229789">
  <ele>1583.0</ele>
  <time>2026-08-28T17:52:17Z</time>
  <course>248.37</course>
  <speed>0.01</speed>
  <fix>3d</fix>
</trkpt>
<trkpt lat="40.0713749" lon="-105.229789">
  <ele>1583.0</ele>
  <time>2026-08-28T17:52:17Z</time>
  <course>0.0</course>
  <speed>0.0</speed>
  <fix>3d</fix>
</trkpt>
<trkpt lat="40.0713749" lon="-105.229789">
  <ele>1583.0</ele>
  <time>2026-08-28T17:52:17Z</time>
  <course>248.36</course>
  <speed>0.01</speed>
  <fix>3d</fix>
</trkpt>
<trkpt lat="40.0713749" lon="-105.229789">
  <ele>1583.0</ele>
  <time>2026-08-28T17:52:17Z</time>
  <course>0.0</course>
  <speed>0.0</speed>
  <fix>3d</fix>
</trkpt>
<trkpt lat="40.0713749" lon="-105.229789">
  <ele>1583.0</ele>
  <time>2026-08-28T17:52:17Z</time>
  <course>248.36</course>
  <speed>0.01</speed>
  <fix>3d</fix>
</trkpt>
<trkpt lat="40.0713749" lon="-105.229789">
  <ele>1583.0</ele>
  <time>2026-08-28T17:52:17Z</time>
  <course>0.0</course>
  <speed>0.0</speed>
  <fix>3d</fix>
</trkpt>
<trkpt lat="40.0713749" lon="-105.229789">
  <ele>1583.0</ele>
  <time>2026-08-28T17:52:17Z</time>
  <course>248.35</course>
  <speed>0.01</speed>
  <fix>3d</fix>
</trkpt>
<trkpt lat="40.0713749" lon="-105.229789">
  <ele>1583.0</ele>
  <time>2026-08-28T17:52:17Z</time>
  <course>0.0</course>
  <speed>0.0</speed>
  <fix>3d</fix>
</trkpt>
<trkpt lat="40.0713749" lon="-105.229789">
  <ele>1583.0</ele>
  <time>2026-08-28T17:52:17Z</time>
  <course>248.35</course>
  <speed>0.01</speed>
  <fix>3d</fix>
</trkpt>
<trkpt lat="40.0713749" lon="-105.229789">
  <ele>1583.0</ele>
  <time>2026-08-28T17:52:17Z</time>
  <course>0.0</course>
  <speed>0.0</speed>
  <fix>3d</fix>
</trkpt>
<trkpt lat="40.0713749" lon="-105.229789">
  <ele>1583.0</ele>
  <time>2026-08-28T17:52:17Z</time>
  <course>248.35</course>
  <speed>0.01</speed>
  <fix>3d</fix>
</trkpt>
<trkpt lat="40.0713749" lon="-105.229789">
  <ele>1583.0</ele>
  <time>2026-08-28T17:52:17Z</time>
  <course>0.0</course>
  <speed>0.0</speed>
  <fix>3d</fix>
</trkpt>
<trkpt lat="40.0713749" lon="-105.229789">
  <ele>1583.0</ele>
  <time>2026-08-28T17:52:17Z</time>
  <course>248.34</course>
  <speed>0.01</speed>
  <fix>3d</fix>
</trkpt>
<trkpt lat="40.0713749" lon="-105.229789">
  <ele>1583.0</ele>
  <time>2026-08-28T17:52:17Z</time>
  <course>0.0</course>
  <speed>0.0</speed>
  <fix>3d</fix>
</trkpt>
<trkpt lat="40.0713749" lon="-105.229789">
  <ele>1583.0</ele>
  <time>2026-08-28T17:52:17Z</time>
  <course>248.34</course>
  <speed>0.01</speed>
  <fix>3d</fix>
</trkpt>
<trkpt lat="40.0713749" lon="-105.229789">
  <ele>1583.0</ele>
  <time>2026-08-28T17:52:17Z</time>
  <course>0.0</course>
  <speed>0.0</speed>
  <fix>3d</fix>
</trkpt>
<trkpt lat="40.0713749" lon="-105.229789">
  <ele>1583.0</ele>
  <time>2026-08-28T17:52:17Z</time>
  <course>248.33</course>
  <speed>0.01</speed>
  <fix>3d</fix>
</trkpt>
<trkpt lat="40.0713749" lon="-105.229789">
  <ele>1583.0</ele>
  <time>2026-08-28T17:52:17Z</time>
  <course>0.0</course>
  <speed>0.0</speed>
  <fix>3d</fix>
</trkpt>
<trkpt lat="40.0713749" lon="-105.229789">
  <ele>1583.0</ele>
  <time>2026-08-28T17:52:17Z</time>
  <course>248.33</course>
  <speed>0.01</speed>
  <fix>3d</fix>
</trkpt>
<trkpt lat="40.0713749" lon="-105.229789">
  <ele>1583.0</ele>
  <time>2026-08-28T17:52:17Z</time>
  <course>0.0</course>
  <speed>0.0</speed>
  <fix>3d</fix>
</trkpt>
<trkpt lat="40.0713749" lon="-105.229789">
  <ele>1583.0</ele>
  <time>2026-08-28T17:52:17Z</time>
  <course>248.32</course>
  <speed>0.01</speed>
  <fix>3d</fix>
</trkpt>
<trkpt lat="40.0713749" lon="-105.229789">
  <ele>1583.0</ele>
  <time>2026-08-28T17:52:17Z</time>
  <course>0.0</course>
  <speed>0.0</speed>
  <fix>3d</fix>
</trkpt>
<trkpt lat="40.0713749" lon="-105.229789">
  <ele>1583.0</ele>
  <time>2026-08-28T17:52:17Z</time>
  <course>248.32</course>
  <speed>0.01</speed>
  <fix>3d</fix>
</trkpt>
<trkpt lat="40.0713749" lon="-105.229789">
  <ele>1583.0</ele>
  <time>2026-08-28T17:52:17Z</time>
  <course>0.0</course>
  <speed>0.0</speed>
  <fix>3d</fix>
</trkpt>
<trkpt lat="40.0713749" lon="-105.229789">
  <ele>1583.0</ele>
  <time>2026-08-28T17:52:17Z</time>
  <course>248.32</course>
  <speed>0.01</speed>
  <fix>3d</fix>
</trkpt>
<trkpt lat="40.0713749" lon="-105.229789">
  <ele>1583.0</ele>
  <time>2026-08-28T17:52:17Z</time>
  <course>0.0</course>
  <speed>0.0</speed>
  <fix>3d</fix>
</trkpt>
<trkpt lat="40.0713749" lon="-105.229789">
  <ele>1583.0</ele>
  <time>2026-08-28T17:52:17Z</time>
  <course>248.31</course>
  <speed>0.01</speed>
  <fix>3d</fix>
</trkpt>
<trkpt lat="40.0713749" lon="-105.229789">
  <ele>1583.0</ele>
  <time>2026-08-28T17:52:17Z</time>
  <course>0.0</course>
  <speed>0.0</speed>
  <fix>3d</fix>
</trkpt>
<trkpt lat="40.0713749" lon="-105.229789">
  <ele>1583.0</ele>
  <time>2026-08-28T17:52:17Z</time>
  <course>248.31</course>
  <speed>0.01</speed>
  <fix>3d</fix>
</trkpt>
<trkpt lat="40.0713749" lon="-105.229789">
  <ele>1583.0</ele>
  <time>2026-08-28T17:52:17Z</time>
  <course>0.0</course>
  <speed>0.0</speed>
  <fix>3d</fix>
</trkpt>
<trkpt lat="40.0713749" lon="-105.229789">
  <ele>1583.0</ele>
  <time>2026-08-28T17:52:17Z</time>
  <course>248.3</course>
  <speed>0.01</speed>
  <fix>3d</fix>
</trkpt>
<trkpt lat="40.0713749" lon="-105.229789">
  <ele>1583.0</ele>
  <time>2026-08-28T17:52:17Z</time>
  <course>0.0</course>
  <speed>0.0</speed>
  <fix>3d</fix>
</trkpt>
<trkpt lat="40.0713749" lon="-105.229789">
  <ele>1583.0</ele>
  <time>2026-08-28T17:52:17Z</time>
  <course>248.3</course>
  <speed>0.01</speed>
  <fix>3d</fix>
</trkpt>
<trkpt lat="40.0713749" lon="-105.229789">
  <ele>1583.0</ele>
  <time>2026-08-28T17:52:17Z</time>
  <course>0.0</course>
  <speed>0.0</speed>
  <fix>3d</fix>
</trkpt>
<trkpt lat="40.0713749" lon="-105.229789">
  <ele>1583.0</ele>
  <time>2026-08-28T17:52:17Z</time>
  <course>248.29</course>
  <speed>0.01</speed>
  <fix>3d</fix>
</trkpt>
<trkpt lat="40.0713749" lon="-105.229789">
  <ele>1583.0</ele>
  <time>2026-08-28T17:52:17Z</time>
  <course>0.0</course>
  <speed>0.0</speed>
  <fix>3d</fix>
</trkpt>
<trkpt lat="40.0713749" lon="-105.229789">
  <ele>1583.0</ele>
  <time>2026-08-28T17:52:17Z</time>
  <course>248.29</course>
  <speed>0.01</speed>
  <fix>3d</fix>
</trkpt>
<trkpt lat="40.0713749" lon="-105.229789">
  <ele>1583.0</ele>
  <time>2026-08-28T17:52:17Z</time>
  <course>0.0</course>
  <speed>0.0</speed>
  <fix>3d</fix>
</trkpt>
<trkpt lat="40.0713749" lon="-105.229789">
  <ele>1583.0</ele>
  <time>2026-08-28T17:52:17Z</time>
  <course>248.28</course>
  <speed>0.01</speed>
  <fix>3d</fix>
</trkpt>
<trkpt lat="40.0713749" lon="-105.229789">
  <ele>1583.0</ele>
  <time>2026-08-28T17:52:17Z</time>
  <course>0.0</course>
  <speed>0.0</speed>
  <fix>3d</fix>
</trkpt>
<trkpt lat="40.0713749" lon="-105.229789">
  <ele>1583.0</ele>
  <time>2026-08-28T17:52:17Z</time>
  <course>248.28</course>
  <speed>0.01</speed>
  <fix>3d</fix>
</trkpt>
<trkpt lat="40.0713749" lon="-105.229789">
  <ele>1583.0</ele>
  <time>2026-08-28T17:52:17Z</time>
  <course>0.0</course>
  <speed>0.0</speed>
  <fix>3d</fix>
</trkpt>
<trkpt lat="40.0713749" lon="-105.229789">
  <ele>1583.0</ele>
  <time>2026-08-28T17:52:17Z</time>
  <course>248.27</course>
  <speed>0.01</speed>
  <fix>3d</fix>
</trkpt>
<trkpt lat="40.0713749" lon="-105.229789">
  <ele>1583.0</ele>
  <time>2026-08-28T17:52:17Z</time>
  <course>0.0</course>
  <speed>0.0</speed>
  <fix>3d</fix>
</trkpt>
<trkpt lat="40.0713749" lon="-105.229789">
  <ele>1583.0</ele>
  <time>2026-08-28T17:52:17Z</time>
  <course>248.27</course>
  <speed>0.01</speed>
  <fix>3d</fix>
</trkpt>
<trkpt lat="40.0713749" lon="-105.229789">
  <ele>1583.0</ele>
  <time>2026-08-28T17:52:17Z</time>
  <course>0.0</course>
  <speed>0.0</speed>
  <fix>3d</fix>
</trkpt>
<trkpt lat="40.0713749" lon="-105.229789">
  <ele>1583.0</ele>
  <time>2026-08-28T17:52:17Z</time>
  <course>248.27</course>
  <speed>0.01</speed>
  <fix>3d</fix>
</trkpt>
<trkpt lat="40.0713749" lon="-105.229789">
  <ele>1583.0</ele>
  <time>2026-08-28T17:52:17Z</time>
  <course>0.0</course>
  <speed>0.0</speed>
  <fix>3d</fix>
</trkpt>
<trkpt lat="40.0713749" lon="-105.229789">
  <ele>1583.0</ele>
  <time>2026-08-28T17:52:17Z</time>
  <course>248.26</course>
  <speed>0.01</speed>
  <fix>3d</fix>
</trkpt>
<trkpt lat="40.0713749" lon="-105.229789">
  <ele>1583.0</ele>
  <time>2026-08-28T17:52:17Z</time>
  <course>0.0</course>
  <speed>0.0</speed>
  <fix>3d</fix>
</trkpt>
<trkpt lat="40.0713749" lon="-105.229789">
  <ele>1583.0</ele>
  <time>2026-08-28T17:52:17Z</time>
  <course>248.26</course>
  <speed>0.01</speed>
  <fix>3d</fix>
</trkpt>
<trkpt lat="40.0713749" lon="-105.229789">
  <ele>1583.0</ele>
  <time>2026-08-28T17:52:17Z</time>
  <course>0.0</course>
  <speed>0.0</speed>
  <fix>3d</fix>
</trkpt>
<trkpt lat="40.0713749" lon="-105.229789">
  <ele>1583.0</ele>
  <time>2026-08-28T17:52:17Z</time>
  <course>248.25</course>
  <speed>0.01</speed>
  <fix>3d</fix>
</trkpt>
<trkpt lat="40.0713749" lon="-105.229789">
  <ele>1583.0</ele>
  <time>2026-08-28T17:52:17Z</time>
  <course>0.0</course>
  <speed>0.0</speed>
  <fix>3d</fix>
</trkpt>
<trkpt lat="40.0713749" lon="-105.229789">
  <ele>1583.0</ele>
  <time>2026-08-28T17:52:17Z</time>
  <course>248.25</course>
  <speed>0.01</speed>
  <fix>3d</fix>
</trkpt>
<trkpt lat="40.0713749" lon="-105.229789">
  <ele>1583.0</ele>
  <time>2026-08-28T17:52:17Z</time>
  <course>0.0</course>
  <speed>0.0</speed>
  <fix>3d</fix>
</trkpt>
<trkpt lat="40.0713749" lon="-105.229789">
  <ele>1583.0</ele>
  <time>2026-08-28T17:52:17Z</time>
  <course>248.24</course>
  <speed>0.01</speed>
  <fix>3d</fix>
</trkpt>
<trkpt lat="40.0713749" lon="-105.229789">
  <ele>1583.0</ele>
  <time>2026-08-28T17:52:17Z</time>
  <course>0.0</course>
  <speed>0.0</speed>
  <fix>3d</fix>
</trkpt>
<trkpt lat="40.0713749" lon="-105.229789">
  <ele>1583.0</ele>
  <time>2026-08-28T17:52:17Z</time>
  <course>248.24</course>
  <speed>0.01</speed>
  <fix>3d</fix>
</trkpt>
<trkpt lat="40.0713749" lon="-105.229789">
  <ele>1583.0</ele>
  <time>2026-08-28T17:52:17Z</time>
  <course>0.0</course>
  <speed>0.0</speed>
  <fix>3d</fix>
</trkpt>
<trkpt lat="40.0713749" lon="-105.229789">
  <ele>1583.0</ele>
  <time>2026-08-28T17:52:17Z</time>
  <course>248.23</course>
  <speed>0.01</speed>
  <fix>3d</fix>
</trkpt>
<trkpt lat="40.0713749" lon="-105.229789">
  <ele>1583.0</ele>
  <time>2026-08-28T17:52:17Z</time>
  <course>0.0</course>
  <speed>0.0</speed>
  <fix>3d</fix>
</trkpt>
<trkpt lat="40.0713749" lon="-105.229789">
  <ele>1583.0</ele>
  <time>2026-08-28T17:52:17Z</time>
  <course>248.23</course>
  <speed>0.01</speed>
  <fix>3d</fix>
</trkpt>
<trkpt lat="40.0713749" lon="-105.229789">
  <ele>1583.0</ele>
  <time>2026-08-28T17:52:17Z</time>
  <course>0.0</course>
  <speed>0.0</speed>
  <fix>3d</fix>
</trkpt>
<trkpt lat="40.0713749" lon="-105.229789">
  <ele>1583.0</ele>
  <time>2026-08-28T17:52:17Z</time>
  <course>248.22</course>
  <speed>0.01</speed>
  <fix>3d</fix>
</trkpt>
<trkpt lat="40.0713749" lon="-105.229789">
  <ele>1583.0</ele>
  <time>2026-08-28T17:52:17Z</time>
  <course>0.0</course>
  <speed>0.0</speed>
  <fix>3d</fix>
</trkpt>
<trkpt lat="40.0713749" lon="-105.229789">
  <ele>1583.0</ele>
  <time>2026-08-28T17:52:17Z</time>
  <course>248.22</course>
  <speed>0.01</speed>
  <fix>3d</fix>
</trkpt>
<trkpt lat="40.0713749" lon="-105.229789">
  <ele>1583.0</ele>
  <time>2026-08-28T17:52:17Z</time>
  <course>0.0</course>
  <speed>0.0</speed>
  <fix>3d</fix>
</trkpt>
<trkpt lat="40.0713749" lon="-105.229789">
  <ele>1583.0</ele>
  <time>2026-08-28T17:52:17Z</time>
  <course>248.21</course>
  <speed>0.01</speed>
  <fix>3d</fix>
</trkpt>
<trkpt lat="40.0713749" lon="-105.229789">
  <ele>1583.0</ele>
  <time>2026-08-28T17:52:17Z</time>
  <course>0.0</course>
  <speed>0.0</speed>
  <fix>3d</fix>
</trkpt>
<trkpt lat="40.0713749" lon="-105.229789">
  <ele>1583.0</ele>
  <time>2026-08-28T17:52:17Z</time>
  <course>248.21</course>
  <speed>0.01</speed>
  <fix>3d</fix>
</trkpt>
<trkpt lat="40.0713749" lon="-105.229789">
  <ele>1583.0</ele>
  <time>2026-08-28T17:52:17Z</time>
  <course>0.0</course>
  <speed>0.0</speed>
  <fix>3d</fix>
</trkpt>
<trkpt lat="40.0713749" lon="-105.229789">
  <ele>1583.0</ele>
  <time>2026-08-28T17:52:17Z</time>
  <course>248.2</course>
  <speed>0.01</speed>
  <fix>3d</fix>
</trkpt>
<trkpt lat="40.0713749" lon="-105.229789">
  <ele>1583.0</ele>
  <time>2026-08-28T17:52:17Z</time>
  <course>0.0</course>
  <speed>0.0</speed>
  <fix>3d</fix>
</trkpt>
<trkpt lat="40.0713749" lon="-105.229789">
  <ele>1583.0</ele>
  <time>2026-08-28T17:52:17Z</time>
  <course>248.2</course>
  <speed>0.01</speed>
  <fix>3d</fix>
</trkpt>
<trkpt lat="40.0713749" lon="-105.229789">
  <ele>1583.0</ele>
  <time>2026-08-28T17:52:17Z</time>
  <course>0.0</course>
  <speed>0.0</speed>
  <fix>3d</fix>
</trkpt>
<trkpt lat="40.0713749" lon="-105.229789">
  <ele>1583.0</ele>
  <time>2026-08-28T17:52:17Z</time>
  <course>248.19</course>
  <speed>0.01</speed>
  <fix>3d</fix>
</trkpt>
<trkpt lat="40.0713749" lon="-105.229789">
  <ele>1583.0</ele>
  <time>2026-08-28T17:52:17Z</time>
  <course>0.0</course>
  <speed>0.0</speed>
  <fix>3d</fix>
</trkpt>
<trkpt lat="40.0713749" lon="-105.229789">
  <ele>1583.0</ele>
  <time>2026-08-28T17:52:17Z</time>
  <course>248.19</course>
  <speed>0.01</speed>
  <fix>3d</fix>
</trkpt>
<trkpt lat="40.0713749" lon="-105.229789">
  <ele>1583.0</ele>
  <time>2026-08-28T17:52:17Z</time>
  <course>0.0</course>
  <speed>0.0</speed>
  <fix>3d</fix>
</trkpt>
<trkpt lat="40.0713749" lon="-105.229789">
  <ele>1583.0</ele>
  <time>2026-08-28T17:52:17Z</time>
  <course>248.18</course>
  <speed>0.01</speed>
  <fix>3d</fix>
</trkpt>
<trkpt lat="40.0713749" lon="-105.229789">
  <ele>1583.0</ele>
  <time>2026-08-28T17:52:17Z</time>
  <course>0.0</course>
  <speed>0.0</speed>
  <fix>3d</fix>
</trkpt>
<trkpt lat="40.0713749" lon="-105.229789">
  <ele>1583.0</ele>
  <time>2026-08-28T17:52:17Z</time>
  <course>248.18</course>
  <speed>0.01</speed>
  <fix>3d</fix>
</trkpt>
<trkpt lat="40.0713749" lon="-105.229789">
  <ele>1583.0</ele>
  <time>2026-08-28T17:52:17Z</time>
  <course>0.0</course>
  <speed>0.0</speed>
  <fix>3d</fix>
</trkpt>
<trkpt lat="40.0713749" lon="-105.229789">
  <ele>1583.0</ele>
  <time>2026-08-28T17:52:17Z</time>
  <course>248.17</course>
  <speed>0.022360679774997897</speed>
  <fix>3d</fix>
</trkpt>
<trkpt lat="40.0713749" lon="-105.229789">
  <ele>1583.0</ele>
  <time>2026-08-28T17:52:17Z</time>
  <course>0.0</course>
  <speed>0.0</speed>
  <fix>3d</fix>
</trkpt>
<trkpt lat="40.0713749" lon="-105.229789">
  <ele>1583.0</ele>
  <time>2026-08-28T17:52:17Z</time>
  <course>248.17</course>
  <speed>0.022360679774997897</speed>
  <fix>3d</fix>
</trkpt>
<trkpt lat="40.0713749" lon="-105.229789">
  <ele>1583.0</ele>
  <time>2026-08-28T17:52:17Z</time>
  <course>0.0</course>
  <speed>0.0</speed>
  <fix>3d</fix>
</trkpt>
<trkpt lat="40.0713749" lon="-105.229789">
  <ele>1583.0</ele>
  <time>2026-08-28T17:52:17Z</time>
  <course>248.16</course>
  <speed>0.022360679774997897</speed>
  <fix>3d</fix>
</trkpt>
<trkpt lat="40.0713749" lon="-105.229789">
  <ele>1583.0</ele>
  <time>2026-08-28T17:52:17Z</time>
  <course>0.0</course>
  <speed>0.0</speed>
  <fix>3d</fix>
</trkpt>
<trkpt lat="40.0713749" lon="-105.229789">
  <ele>1583.0</ele>
  <time>2026-08-28T17:52:17Z</time>
  <course>248.16</course>
  <speed>0.022360679774997897</speed>
  <fix>3d</fix>
</trkpt>
<trkpt lat="40.0713749" lon="-105.229789">
  <ele>1583.0</ele>
  <time>2026-08-28T17:52:17Z</time>
  <course>0.0</course>
  <speed>0.0</speed>
  <fix>3d</fix>
</trkpt>
<trkpt lat="40.0713749" lon="-105.229789">
  <ele>1583.0</ele>
  <time>2026-08-28T17:52:17Z</time>
  <course>248.15</course>
  <speed>0.022360679774997897</speed>
  <fix>3d</fix>
</trkpt>
<trkpt lat="40.0713749" lon="-105.229789">
  <ele>1583.0</ele>
  <time>2026-08-28T17:52:17Z</time>
  <course>0.0</course>
  <speed>0.0</speed>
  <fix>3d</fix>
</trkpt>
<trkpt lat="40.0713749" lon="-105.229789">
  <ele>1583.0</ele>
  <time>2026-08-28T17:52:17Z</time>
  <course>248.15</course>
  <speed>0.022360679774997897</speed>
  <fix>3d</fix>
</trkpt>
<trkpt lat="40.0713749" lon="-105.229789">
  <ele>1583.0</ele>
  <time>2026-08-28T17:52:17Z</time>
  <course>0.0</course>
  <speed>0.0</speed>
  <fix>3d</fix>
</trkpt>
<trkpt lat="40.0713749" lon="-105.229789">
  <ele>1583.0</ele>
  <time>2026-08-28T17:52:17Z</time>
  <course>248.14</course>
  <speed>0.022360679774997897</speed>
  <fix>3d</fix>
</trkpt>
<trkpt lat="40.0713749" lon="-105.229789">
  <ele>1583.0</ele>
  <time>2026-08-28T17:52:17Z</time>
  <course>0.0</course>
  <speed>0.0</speed>
  <fix>3d</fix>
</trkpt>
<trkpt lat="40.0713749" lon="-105.229789">
  <ele>1583.0</ele>
  <time>2026-08-28T17:52:17Z</time>
  <course>248.14</course>
  <speed>0.022360679774997897</speed>
  <fix>3d</fix>
</trkpt>
<trkpt lat="40.0713749" lon="-105.229789">
  <ele>1583.0</ele>
  <time>2026-08-28T17:52:17Z</time>
  <course>0.0</course>
  <speed>0.0</speed>
  <fix>3d</fix>
</trkpt>
<trkpt lat="40.0713749" lon="-105.229789">
  <ele>1583.0</ele>
  <time>2026-08-28T17:52:17Z</time>
  <course>248.13</course>
  <speed>0.022360679774997897</speed>
  <fix>3d</fix>
</trkpt>
<trkpt lat="40.0713749" lon="-105.229789">
  <ele>1583.0</ele>
  <time>2026-08-28T17:52:17Z</time>
  <course>0.0</course>
  <speed>0.0</speed>
  <fix>3d</fix>
</trkpt>
<trkpt lat="40.0713749" lon="-105.229789">
  <ele>1583.0</ele>
  <time>2026-08-28T17:52:17Z</time>
  <course>248.13</course>
  <speed>0.022360679774997897</speed>
  <fix>3d</fix>
</trkpt>
<trkpt lat="40.0713749" lon="-105.229789">
  <ele>1583.0</ele>
  <time>2026-08-28T17:52:17Z</time>
  <course>0.0</course>
  <speed>0.0</speed>
  <fix>3d</fix>
</trkpt>
<trkpt lat="40.0713749" lon="-105.229789">
  <ele>1583.0</ele>
  <time>2026-08-28T17:52:17Z</time>
  <course>248.12</course>
  <speed>0.022360679774997897</speed>
  <fix>3d</fix>
</trkpt>
<trkpt lat="40.0713749" lon="-105.229789">
  <ele>1583.0</ele>
  <time>2026-08-28T17:52:17Z</time>
  <course>0.0</course>
  <speed>0.0</speed>
  <fix>3d</fix>
</trkpt>
<trkpt lat="40.0713749" lon="-105.229789">
  <ele>1583.0</ele>
  <time>2026-08-28T17:52:17Z</time>
  <course>248.12</course>
  <speed>0.022360679774997897</speed>
  <fix>3d</fix>
</trkpt>
<trkpt lat="40.0713749" lon="-105.229789">
  <ele>1583.0</ele>
  <time>2026-08-28T17:52:17Z</time>
  <course>0.0</course>
  <speed>0.0</speed>
  <fix>3d</fix>
</trkpt>
<trkpt lat="40.0713749" lon="-105.229789">
  <ele>1583.0</ele>
  <time>2026-08-28T17:52:17Z</time>
  <course>248.11</course>
  <speed>0.022360679774997897</speed>
  <fix>3d</fix>
</trkpt>
<trkpt lat="40.0713749" lon="-105.229789">
  <ele>1583.0</ele>
  <time>2026-08-28T17:52:17Z</time>
  <course>0.0</course>
  <speed>0.0</speed>
  <fix>3d</fix>
</trkpt>
<trkpt lat="40.0713749" lon="-105.229789">
  <ele>1583.0</ele>
  <time>2026-08-28T17:52:17Z</time>
  <course>248.11</course>
  <speed>0.022360679774997897</speed>
  <fix>3d</fix>
</trkpt>
<trkpt lat="40.0713749" lon="-105.229789">
  <ele>1583.0</ele>
  <time>2026-08-28T17:52:17Z</time>
  <course>0.0</course>
  <speed>0.0</speed>
  <fix>3d</fix>
</trkpt>
<trkpt lat="40.0713749" lon="-105.229789">
  <ele>1583.0</ele>
  <time>2026-08-28T17:52:17Z</time>
  <course>248.1</course>
  <speed>0.022360679774997897</speed>
  <fix>3d</fix>
</trkpt>
<trkpt lat="40.0713749" lon="-105.229789">
  <ele>1583.0</ele>
  <time>2026-08-28T17:52:17Z</time>
  <course>0.0</course>
  <speed>0.0</speed>
  <fix>3d</fix>
</trkpt>
<trkpt lat="40.0713749" lon="-105.229789">
  <ele>1583.0</ele>
  <time>2026-08-28T17:52:17Z</time>
  <course>248.1</course>
  <speed>0.022360679774997897</speed>
  <fix>3d</fix>
</trkpt>
<trkpt lat="40.0713749" lon="-105.229789">
  <ele>1583.0</ele>
  <time>2026-08-28T17:52:17Z</time>
  <course>0.0</course>
  <speed>0.0</speed>
  <fix>3d</fix>
</trkpt>
<trkpt lat="40.0713749" lon="-105.229789">
  <ele>1583.0</ele>
  <time>2026-08-28T17:52:17Z</time>
  <course>248.09</course>
  <speed>0.022360679774997897</speed>
  <fix>3d</fix>
</trkpt>
<trkpt lat="40.0713749" lon="-105.229789">
  <ele>1583.0</ele>
  <time>2026-08-28T17:52:17Z</time>
  <course>0.0</course>
  <speed>0.0</speed>
  <fix>3d</fix>
</trkpt>
<trkpt lat="40.0713749" lon="-105.229789">
  <ele>1583.0</ele>
  <time>2026-08-28T17:52:17Z</time>
  <course>248.09</course>
  <speed>0.022360679774997897</speed>
  <fix>3d</fix>
</trkpt>
<trkpt lat="40.0713749" lon="-105.229789">
  <ele>1583.0</ele>
  <time>2026-08-28T17:52:17Z</time>
  <course>0.0</course>
  <speed>0.0</speed>
  <fix>3d</fix>
</trkpt>
<trkpt lat="40.0713749" lon="-105.229789">
  <ele>1583.0</ele>
  <time>2026-08-28T17:52:17Z</time>
  <course>248.08</course>
  <speed>0.022360679774997897</speed>
  <fix>3d</fix>
</trkpt>
<trkpt lat="40.0713749" lon="-105.229789">
  <ele>1583.0</ele>
  <time>2026-08-28T17:52:17Z</time>
  <course>0.0</course>
  <speed>0.0</speed>
  <fix>3d</fix>
</trkpt>
<trkpt lat="40.0713749" lon="-105.229789">
  <ele>1583.0</ele>
  <time>2026-08-28T17:52:17Z</time>
  <course>248.08</course>
  <speed>0.022360679774997897</speed>
  <fix>3d</fix>
</trkpt>
<trkpt lat="40.0713749" lon="-105.229789">
  <ele>1583.0</ele>
  <time>2026-08-28T17:52:17Z</time>
  <course>0.0</course>
  <speed>0.0</speed>
  <fix>3d</fix>
</trkpt>
<trkpt lat="40.0713749" lon="-105.229789">
  <ele>1583.0</ele>
  <time>2026-08-28T17:52:17Z</time>
  <course>248.07</course>
  <speed>0.022360679774997897</speed>
  <fix>3d</fix>
</trkpt>
<trkpt lat="40.0713749" lon="-105.229789">
  <ele>1583.0</ele>
  <time>2026-08-28T17:52:17Z</time>
  <course>0.0</course>
  <speed>0.0</speed>
  <fix>3d</fix>
</trkpt>
<trkpt lat="40.0713749" lon="-105.229789">
  <ele>1583.0</ele>
  <time>2026-08-28T17:52:17Z</time>
  <course>248.07</course>
  <speed>0.022360679774997897</speed>
  <fix>3d</fix>
</trkpt>
<trkpt lat="40.0713749" lon="-105.229789">
  <ele>1583.0</ele>
  <time>2026-08-28T17:52:17Z</time>
  <course>0.0</course>
  <speed>0.0</speed>
  <fix>3d</fix>
</trkpt>
<trkpt lat="40.0713749" lon="-105.229789">
  <ele>1583.0</ele>
  <time>2026-08-28T17:52:17Z</time>
  <course>248.06</course>
  <speed>0.022360679774997897</speed>
  <fix>3d</fix>
</trkpt>
<trkpt lat="40.0713749" lon="-105.229789">
  <ele>1583.0</ele>
  <time>2026-08-28T17:52:17Z</time>
  <course>0.0</course>
  <speed>0.0</speed>
  <fix>3d</fix>
</trkpt>
<trkpt lat="40.0713749" lon="-105.229789">
  <ele>1583.0</ele>
  <time>2026-08-28T17:52:17Z</time>
  <course>248.06</course>
  <speed>0.022360679774997897</speed>
  <fix>3d</fix>
</trkpt>
<trkpt lat="40.0713749" lon="-105.229789">
  <ele>1583.0</ele>
  <time>2026-08-28T17:52:17Z</time>
  <course>0.0</course>
  <speed>0.0</speed>
  <fix>3d</fix>
</trkpt>
<trkpt lat="40.0713749" lon="-105.229789">
  <ele>1583.0</ele>
  <time>2026-08-28T17:52:17Z</time>
  <course>248.05</course>
  <speed>0.022360679774997897</speed>
  <fix>3d</fix>
</trkpt>
<trkpt lat="40.0713749" lon="-105.229789">
  <ele>1583.0</ele>
  <time>2026-08-28T17:52:17Z</time>
  <course>0.0</course>
  <speed>0.0</speed>
  <fix>3d</fix>
</trkpt>
<trkpt lat="40.0713749" lon="-105.229789">
  <ele>1583.0</ele>
  <time>2026-08-28T17:52:17Z</time>
  <course>248.05</course>
  <speed>0.022360679774997897</speed>
  <fix>3d</fix>
</trkpt>
<trkpt lat="40.0713749" lon="-105.229789">
  <ele>1583.0</ele>
  <time>2026-08-28T17:52:17Z</time>
  <course>0.0</course>
  <speed>0.0</speed>
  <fix>3d</fix>
</trkpt>
<trkpt lat="40.0713749" lon="-105.229789">
  <ele>1583.0</ele>
  <time>2026-08-28T17:52:17Z</time>
  <course>248.05</course>
  <speed>0.022360679774997897</speed>
  <fix>3d</fix>
</trkpt>
<trkpt lat="40.0713749" lon="-105.229789">
  <ele>1583.0</ele>
  <time>2026-08-28T17:52:17Z</time>
  <course>0.0</course>
  <speed>0.0</speed>
  <fix>3d</fix>
</trkpt>
<trkpt lat="40.0713749" lon="-105.229789">
  <ele>1583.0</ele>
  <time>2026-08-28T17:52:17Z</time>
  <course>248.04</course>
  <speed>0.022360679774997897</speed>
  <fix>3d</fix>
</trkpt>
<trkpt lat="40.0713749" lon="-105.229789">
  <ele>1583.0</ele>
  <time>2026-08-28T17:52:17Z</time>
  <course>0.0</course>
  <speed>0.0</speed>
  <fix>3d</fix>
</trkpt>
<trkpt lat="40.0713749" lon="-105.229789">
  <ele>1583.0</ele>
  <time>2026-08-28T17:52:17Z</time>
  <course>248.04</course>
  <speed>0.022360679774997897</speed>
  <fix>3d</fix>
</trkpt>
<trkpt lat="40.0713749" lon="-105.229789">
  <ele>1583.0</ele>
  <time>2026-08-28T17:52:17Z</time>
  <course>0.0</course>
  <speed>0.0</speed>
  <fix>3d</fix>
</trkpt>
<trkpt lat="40.0713749" lon="-105.229789">
  <ele>1583.0</ele>
  <time>2026-08-28T17:52:17Z</time>
  <course>248.03</course>
  <speed>0.022360679774997897</speed>
  <fix>3d</fix>
</trkpt>
<trkpt lat="40.0713749" lon="-105.229789">
  <ele>1583.0</ele>
  <time>2026-08-28T17:52:17Z</time>
  <course>0.0</course>
  <speed>0.0</speed>
  <fix>3d</fix>
</trkpt>
<trkpt lat="40.0713749" lon="-105.229789">
  <ele>1583.0</ele>
  <time>2026-08-28T17:52:17Z</time>
  <course>248.03</course>
  <speed>0.022360679774997897</speed>
  <fix>3d</fix>
</trkpt>
<trkpt lat="40.0713749" lon="-105.229789">
  <ele>1583.0</ele>
  <time>2026-08-28T17:52:17Z</time>
  <course>0.0</course>
  <speed>0.0</speed>
  <fix>3d</fix>
</trkpt>
<trkpt lat="40.0713749" lon="-105.229789">
  <ele>1583.0</ele>
  <time>2026-08-28T17:52:17Z</time>
  <course>248.02</course>
  <speed>0.022360679774997897</speed>
  <fix>3d</fix>
</trkpt>
<trkpt lat="40.0713749" lon="-105.229789">
  <ele>1583.0</ele>
  <time>2026-08-28T17:52:17Z</time>
  <course>0.0</course>
  <speed>0.0</speed>
  <fix>3d</fix>
</trkpt>
<trkpt lat="40.0713749" lon="-105.229789">
  <ele>1583.0</ele>
  <time>2026-08-28T17:52:17Z</time>
  <course>248.02</course>
  <speed>0.022360679774997897</speed>
  <fix>3d</fix>
</trkpt>
<trkpt lat="40.0713749" lon="-105.229789">
  <ele>1583.0</ele>
  <time>2026-08-28T17:52:17Z</time>
  <course>0.0</course>
  <speed>0.0</speed>
  <fix>3d</fix>
</trkpt>
<trkpt lat="40.0713749" lon="-105.229789">
  <ele>1583.0</ele>
  <time>2026-08-28T17:52:17Z</time>
  <course>248.01</course>
  <speed>0.022360679774997897</speed>
  <fix>3d</fix>
</trkpt>
<trkpt lat="40.0713749" lon="-105.229789">
  <ele>1583.0</ele>
  <time>2026-08-28T17:52:17Z</time>
  <course>0.0</course>
  <speed>0.0</speed>
  <fix>3d</fix>
</trkpt>
<trkpt lat="40.0713749" lon="-105.229789">
  <ele>1583.0</ele>
  <time>2026-08-28T17:52:17Z</time>
  <course>248.01</course>
  <speed>0.022360679774997897</speed>
  <fix>3d</fix>
</trkpt>
<trkpt lat="40.0713749" lon="-105.229789">
  <ele>1583.0</ele>
  <time>2026-08-28T17:52:17Z</time>
  <course>0.0</course>
  <speed>0.0</speed>
  <fix>3d</fix>
</trkpt>
<trkpt lat="40.0713749" lon="-105.229789">
  <ele>1583.0</ele>
  <time>2026-08-28T17:52:17Z</time>
  <course>248.0</course>
  <speed>0.022360679774997897</speed>
  <fix>3d</fix>
</trkpt>
<trkpt lat="40.0713749" lon="-105.229789">
  <ele>1583.0</ele>
  <time>2026-08-28T17:52:17Z</time>
  <course>0.0</course>
  <speed>0.0</speed>
  <fix>3d</fix>
</trkpt>
<trkpt lat="40.0713749" lon="-105.229789">
  <ele>1583.0</ele>
  <time>2026-08-28T17:52:17Z</time>
  <course>248.0</course>
  <speed>0.022360679774997897</speed>
  <fix>3d</fix>
</trkpt>
<trkpt lat="40.0713749" lon="-105.229789">
  <ele>1583.0</ele>
  <time>2026-08-28T17:52:17Z</time>
  <course>0.0</course>
  <speed>0.0</speed>
  <fix>3d</fix>
</trkpt>
<trkpt lat="40.0713749" lon="-105.229789">
  <ele>1583.0</ele>
  <time>2026-08-28T17:52:17Z</time>
  <course>247.99</course>
  <speed>0.022360679774997897</speed>
  <fix>3d</fix>
</trkpt>
<trkpt lat="40.0713749" lon="-105.229789">
  <ele>1583.0</ele>
  <time>2026-08-28T17:52:17Z</time>
  <course>0.0</course>
  <speed>0.0</speed>
  <fix>3d</fix>
</trkpt>
<trkpt lat="40.0713749" lon="-105.229789">
  <ele>1583.0</ele>
  <time>2026-08-28T17:52:17Z</time>
  <course>247.99</course>
  <speed>0.022360679774997897</speed>
  <fix>3d</fix>
</trkpt>
<trkpt lat="40.0713749" lon="-105.229789">
  <ele>1583.0</ele>
  <time>2026-08-28T17:52:17Z</time>
  <course>0.0</course>
  <speed>0.0</speed>
  <fix>3d</fix>
</trkpt>
<trkpt lat="40.0713749" lon="-105.229789">
  <ele>1583.0</ele>
  <time>2026-08-28T17:52:17Z</time>
  <course>247.99</course>
  <speed>0.022360679774997897</speed>
  <fix>3d</fix>
</trkpt>
<trkpt lat="40.0713749" lon="-105.229789">
  <ele>1583.0</ele>
  <time>2026-08-28T17:52:17Z</time>
  <course>0.0</course>
  <speed>0.0</speed>
  <fix>3d</fix>
</trkpt>
<trkpt lat="40.0713749" lon="-105.229789">
  <ele>1583.0</ele>
  <time>2026-08-28T17:52:17Z</time>
  <course>247.98</course>
  <speed>0.022360679774997897</speed>
  <fix>3d</fix>
</trkpt>
<trkpt lat="40.0713749" lon="-105.229789">
  <ele>1583.0</ele>
  <time>2026-08-28T17:52:17Z</time>
  <course>0.0</course>
  <speed>0.0</speed>
  <fix>3d</fix>
</trkpt>
<trkpt lat="40.0713749" lon="-105.229789">
  <ele>1583.0</ele>
  <time>2026-08-28T17:52:17Z</time>
  <course>247.98</course>
  <speed>0.022360679774997897</speed>
  <fix>3d</fix>
</trkpt>
<trkpt lat="40.0713749" lon="-105.229789">
  <ele>1583.0</ele>
  <time>2026-08-28T17:52:17Z</time>
  <course>0.0</course>
  <speed>0.0</speed>
  <fix>3d</fix>
</trkpt>
<trkpt lat="40.0713749" lon="-105.229789">
  <ele>1583.0</ele>
  <time>2026-08-28T17:52:17Z</time>
  <course>247.97</course>
  <speed>0.022360679774997897</speed>
  <fix>3d</fix>
</trkpt>
<trkpt lat="40.0713749" lon="-105.229789">
  <ele>1583.0</ele>
  <time>2026-08-28T17:52:17Z</time>
  <course>0.0</course>
  <speed>0.0</speed>
  <fix>3d</fix>
</trkpt>
<trkpt lat="40.0713749" lon="-105.229789">
  <ele>1583.0</ele>
  <time>2026-08-28T17:52:17Z</time>
  <course>247.97</course>
  <speed>0.022360679774997897</speed>
  <fix>3d</fix>
</trkpt>
<trkpt lat="40.0713749" lon="-105.229789">
  <ele>1583.0</ele>
  <time>2026-08-28T17:52:17Z</time>
  <course>0.0</course>
  <speed>0.0</speed>
  <fix>3d</fix>
</trkpt>
<trkpt lat="40.0713749" lon="-105.229789">
  <ele>1583.0</ele>
  <time>2026-08-28T17:52:17Z</time>
  <course>247.96</course>
  <speed>0.022360679774997897</speed>
  <fix>3d</fix>
</trkpt>
<trkpt lat="40.0713749" lon="-105.229789">
  <ele>1583.0</ele>
  <time>2026-08-28T17:52:17Z</time>
  <course>0.0</course>
  <speed>0.0</speed>
  <fix>3d</fix>
</trkpt>
<trkpt lat="40.0713749" lon="-105.229789">
  <ele>1583.0</ele>
  <time>2026-08-28T17:52:17Z</time>
  <course>247.96</course>
  <speed>0.022360679774997897</speed>
  <fix>3d</fix>
</trkpt>
<trkpt lat="40.0713749" lon="-105.229789">
  <ele>1583.0</ele>
  <time>2026-08-28T17:52:17Z</time>
  <course>0.0</course>
  <speed>0.0</speed>
  <fix>3d</fix>
</trkpt>
<trkpt lat="40.0713749" lon="-105.229789">
  <ele>1583.0</ele>
  <time>2026-08-28T17:52:17Z</time>
  <course>247.95</course>
  <speed>0.022360679774997897</speed>
  <fix>3d</fix>
</trkpt>
<trkpt lat="40.0713749" lon="-105.229789">
  <ele>1583.0</ele>
  <time>2026-08-28T17:52:17Z</time>
  <course>0.0</course>
  <speed>0.0</speed>
  <fix>3d</fix>
</trkpt>
<trkpt lat="40.0713749" lon="-105.229789">
  <ele>1583.0</ele>
  <time>2026-08-28T17:52:17Z</time>
  <course>247.95</course>
  <speed>0.022360679774997897</speed>
  <fix>3d</fix>
</trkpt>
<trkpt lat="40.0713749" lon="-105.229789">
  <ele>1583.0</ele>
  <time>2026-08-28T17:52:17Z</time>
  <course>0.0</course>
  <speed>0.0</speed>
  <fix>3d</fix>
</trkpt>
<trkpt lat="40.0713749" lon="-105.229789">
  <ele>1583.0</ele>
  <time>2026-08-28T17:52:17Z</time>
  <course>247.95</course>
  <speed>0.022360679774997897</speed>
  <fix>3d</fix>
</trkpt>
<trkpt lat="40.0713749" lon="-105.229789">
  <ele>1583.0</ele>
  <time>2026-08-28T17:52:17Z</time>
  <course>0.0</course>
  <speed>0.0</speed>
  <fix>3d</fix>
</trkpt>
<trkpt lat="40.0713749" lon="-105.229789">
  <ele>1583.0</ele>
  <time>2026-08-28T17:52:17Z</time>
  <course>247.94</course>
  <speed>0.022360679774997897</speed>
  <fix>3d</fix>
</trkpt>
<trkpt lat="40.0713749" lon="-105.229789">
  <ele>1583.0</ele>
  <time>2026-08-28T17:52:17Z</time>
  <course>0.0</course>
  <speed>0.0</speed>
  <fix>3d</fix>
</trkpt>
<trkpt lat="40.0713749" lon="-105.229789">
  <ele>1583.0</ele>
  <time>2026-08-28T17:52:17Z</time>
  <course>247.94</course>
  <speed>0.022360679774997897</speed>
  <fix>3d</fix>
</trkpt>
<trkpt lat="40.0713749" lon="-105.229789">
  <ele>1583.0</ele>
  <time>2026-08-28T17:52:17Z</time>
  <course>0.0</course>
  <speed>0.0</speed>
  <fix>3d</fix>
</trkpt>
<trkpt lat="40.0713749" lon="-105.229789">
  <ele>1583.0</ele>
  <time>2026-08-28T17:52:17Z</time>
  <course>247.93</course>
  <speed>0.022360679774997897</speed>
  <fix>3d</fix>
</trkpt>
<trkpt lat="40.0713749" lon="-105.229789">
  <ele>1583.0</ele>
  <time>2026-08-28T17:52:17Z</time>
  <course>0.0</course>
  <speed>0.0</speed>
  <fix>3d</fix>
</trkpt>
<trkpt lat="40.0713749" lon="-105.229789">
  <ele>1583.0</ele>
  <time>2026-08-28T17:52:17Z</time>
  <course>247.93</course>
  <speed>0.022360679774997897</speed>
  <fix>3d</fix>
</trkpt>
<trkpt lat="40.0713749" lon="-105.229789">
  <ele>1583.0</ele>
  <time>2026-08-28T17:52:17Z</time>
  <course>0.0</course>
  <speed>0.0</speed>
  <fix>3d</fix>
</trkpt>
<trkpt lat="40.0713749" lon="-105.229789">
  <ele>1583.0</ele>
  <time>2026-08-28T17:52:17Z</time>
  <course>247.92</course>
  <speed>0.022360679774997897</speed>
  <fix>3d</fix>
</trkpt>
<trkpt lat="40.0713749" lon="-105.229789">
  <ele>1583.0</ele>
  <time>2026-08-28T17:52:17Z</time>
  <course>0.0</course>
  <speed>0.0</speed>
  <fix>3d</fix>
</trkpt>
<trkpt lat="40.0713749" lon="-105.229789">
  <ele>1583.0</ele>
  <time>2026-08-28T17:52:17Z</time>
  <course>247.92</course>
  <speed>0.022360679774997897</speed>
  <fix>3d</fix>
</trkpt>
<trkpt lat="40.0713749" lon="-105.229789">
  <ele>1583.0</ele>
  <time>2026-08-28T17:52:17Z</time>
  <course>0.0</course>
  <speed>0.0</speed>
  <fix>3d</fix>
</trkpt>
<trkpt lat="40.0713749" lon="-105.229789">
  <ele>1583.0</ele>
  <time>2026-08-28T17:52:17Z</time>
  <course>247.92</course>
  <speed>0.022360679774997897</speed>
  <fix>3d</fix>
</trkpt>
<trkpt lat="40.0713749" lon="-105.229789">
  <ele>1583.0</ele>
  <time>2026-08-28T17:52:17Z</time>
  <course>0.0</course>
  <speed>0.0</speed>
  <fix>3d</fix>
</trkpt>
<trkpt lat="40.0713749" lon="-105.229789">
  <ele>1583.0</ele>
  <time>2026-08-28T17:52:17Z</time>
  <course>247.91</course>
  <speed>0.022360679774997897</speed>
  <fix>3d</fix>
</trkpt>
<trkpt lat="40.0713749" lon="-105.229789">
  <ele>1583.0</ele>
  <time>2026-08-28T17:52:17Z</time>
  <course>0.0</course>
  <speed>0.0</speed>
  <fix>3d</fix>
</trkpt>
<trkpt lat="40.0713749" lon="-105.229789">
  <ele>1583.0</ele>
  <time>2026-08-28T17:52:17Z</time>
  <course>247.91</course>
  <speed>0.022360679774997897</speed>
  <fix>3d</fix>
</trkpt>
<trkpt lat="40.0713749" lon="-105.229789">
  <ele>1583.0</ele>
  <time>2026-08-28T17:52:17Z</time>
  <course>0.0</course>
  <speed>0.0</speed>
  <fix>3d</fix>
</trkpt>
<trkpt lat="40.0713749" lon="-105.229789">
  <ele>1583.0</ele>
  <time>2026-08-28T17:52:17Z</time>
  <course>247.9</course>
  <speed>0.022360679774997897</speed>
  <fix>3d</fix>
</trkpt>
<trkpt lat="40.0713749" lon="-105.229789">
  <ele>1583.0</ele>
  <time>2026-08-28T17:52:17Z</time>
  <course>0.0</course>
  <speed>0.0</speed>
  <fix>3d</fix>
</trkpt>
<trkpt lat="40.0713749" lon="-105.229789">
  <ele>1583.0</ele>
  <time>2026-08-28T17:52:17Z</time>
  <course>247.9</course>
  <speed>0.022360679774997897</speed>
  <fix>3d</fix>
</trkpt>
<trkpt lat="40.0713749" lon="-105.229789">
  <ele>1583.0</ele>
  <time>2026-08-28T17:52:17Z</time>
  <course>0.0</course>
  <speed>0.0</speed>
  <fix>3d</fix>
</trkpt>
<trkpt lat="40.0713749" lon="-105.229789">
  <ele>1583.0</ele>
  <time>2026-08-28T17:52:17Z</time>
  <course>247.89</course>
  <speed>0.022360679774997897</speed>
  <fix>3d</fix>
</trkpt>
<trkpt lat="40.0713749" lon="-105.229789">
  <ele>1583.0</ele>
  <time>2026-08-28T17:52:17Z</time>
  <course>0.0</course>
  <speed>0.0</speed>
  <fix>3d</fix>
</trkpt>
<trkpt lat="40.0713749" lon="-105.229789">
  <ele>1583.0</ele>
  <time>2026-08-28T17:52:17Z</time>
  <course>247.89</course>
  <speed>0.022360679774997897</speed>
  <fix>3d</fix>
</trkpt>
<trkpt lat="40.0713749" lon="-105.229789">
  <ele>1583.0</ele>
  <time>2026-08-28T17:52:17Z</time>
  <course>0.0</course>
  <speed>0.0</speed>
  <fix>3d</fix>
</trkpt>
<trkpt lat="40.0713749" lon="-105.229789">
  <ele>1583.0</ele>
  <time>2026-08-28T17:52:17Z</time>
  <course>247.89</course>
  <speed>0.022360679774997897</speed>
  <fix>3d</fix>
</trkpt>
<trkpt lat="40.0713749" lon="-105.229789">
  <ele>1583.0</ele>
  <time>2026-08-28T17:52:17Z</time>
  <course>0.0</course>
  <speed>0.0</speed>
  <fix>3d</fix>
</trkpt>
<trkpt lat="40.0713749" lon="-105.229789">
  <ele>1583.0</ele>
  <time>2026-08-28T17:52:17Z</time>
  <course>247.88</course>
  <speed>0.0316227766016838</speed>
  <fix>3d</fix>
</trkpt>
<trkpt lat="40.0713749" lon="-105.229789">
  <ele>1583.0</ele>
  <time>2026-08-28T17:52:17Z</time>
  <course>0.0</course>
  <speed>0.0</speed>
  <fix>3d</fix>
</trkpt>
<trkpt lat="40.0713749" lon="-105.229789">
  <ele>1583.0</ele>
  <time>2026-08-28T17:52:17Z</time>
  <course>247.88</course>
  <speed>0.0316227766016838</speed>
  <fix>3d</fix>
</trkpt>
<trkpt lat="40.0713749" lon="-105.229789">
  <ele>1583.0</ele>
  <time>2026-08-28T17:52:17Z</time>
  <course>0.0</course>
  <speed>0.0</speed>
  <fix>3d</fix>
</trkpt>
<trkpt lat="40.0713749" lon="-105.229789">
  <ele>1583.0</ele>
  <time>2026-08-28T17:52:17Z</time>
  <course>247.87</course>
  <speed>0.0316227766016838</speed>
  <fix>3d</fix>
</trkpt>
<trkpt lat="40.0713749" lon="-105.229789">
  <ele>1583.0</ele>
  <time>2026-08-28T17:52:17Z</time>
  <course>0.0</course>
  <speed>0.0</speed>
  <fix>3d</fix>
</trkpt>
<trkpt lat="40.0713749" lon="-105.229789">
  <ele>1583.0</ele>
  <time>2026-08-28T17:52:17Z</time>
  <course>247.87</course>
  <speed>0.0316227766016838</speed>
  <fix>3d</fix>
</trkpt>
<trkpt lat="40.0713749" lon="-105.229789">
  <ele>1583.0</ele>
  <time>2026-08-28T17:52:17Z</time>
  <course>0.0</course>
  <speed>0.0</speed>
  <fix>3d</fix>
</trkpt>
<trkpt lat="40.0713749" lon="-105.229789">
  <ele>1583.0</ele>
  <time>2026-08-28T17:52:17Z</time>
  <course>247.87</course>
  <speed>0.0316227766016838</speed>
  <fix>3d</fix>
</trkpt>
<trkpt lat="40.0713749" lon="-105.229789">
  <ele>1583.0</ele>
  <time>2026-08-28T17:52:17Z</time>
  <course>0.0</course>
  <speed>0.0</speed>
  <fix>3d</fix>
</trkpt>
<trkpt lat="40.0713749" lon="-105.229789">
  <ele>1583.0</ele>
  <time>2026-08-28T17:52:17Z</time>
  <course>247.86</course>
  <speed>0.0316227766016838</speed>
  <fix>3d</fix>
</trkpt>
<trkpt lat="40.0713749" lon="-105.229789">
  <ele>1583.0</ele>
  <time>2026-08-28T17:52:17Z</time>
  <course>0.0</course>
  <speed>0.0</speed>
  <fix>3d</fix>
</trkpt>
<trkpt lat="40.0713749" lon="-105.229789">
  <ele>1583.0</ele>
  <time>2026-08-28T17:52:17Z</time>
  <course>247.86</course>
  <speed>0.0316227766016838</speed>
  <fix>3d</fix>
</trkpt>
<trkpt lat="40.0713749" lon="-105.229789">
  <ele>1583.0</ele>
  <time>2026-08-28T17:52:17Z</time>
  <course>0.0</course>
  <speed>0.0</speed>
  <fix>3d</fix>
</trkpt>
<trkpt lat="40.0713749" lon="-105.229789">
  <ele>1583.0</ele>
  <time>2026-08-28T17:52:17Z</time>
  <course>247.85</course>
  <speed>0.0316227766016838</speed>
  <fix>3d</fix>
</trkpt>
<trkpt lat="40.0713749" lon="-105.229789">
  <ele>1583.0</ele>
  <time>2026-08-28T17:52:17Z</time>
  <course>0.0</course>
  <speed>0.0</speed>
  <fix>3d</fix>
</trkpt>
<trkpt lat="40.0713749" lon="-105.229789">
  <ele>1583.0</ele>
  <time>2026-08-28T17:52:17Z</time>
  <course>247.85</course>
  <speed>0.0316227766016838</speed>
  <fix>3d</fix>
</trkpt>
<trkpt lat="40.0713749" lon="-105.229789">
  <ele>1583.0</ele>
  <time>2026-08-28T17:52:17Z</time>
  <course>0.0</course>
  <speed>0.0</speed>
  <fix>3d</fix>
</trkpt>
<trkpt lat="40.0713749" lon="-105.229789">
  <ele>1583.0</ele>
  <time>2026-08-28T17:52:17Z</time>
  <course>247.85</course>
  <speed>0.0316227766016838</speed>
  <fix>3d</fix>
</trkpt>
<trkpt lat="40.0713749" lon="-105.229789">
  <ele>1583.0</ele>
  <time>2026-08-28T17:52:17Z</time>
  <course>0.0</course>
  <speed>0.0</speed>
  <fix>3d</fix>
</trkpt>
<trkpt lat="40.0713749" lon="-105.229789">
  <ele>1583.0</ele>
  <time>2026-08-28T17:52:17Z</time>
  <course>247.84</course>
  <speed>0.0316227766016838</speed>
  <fix>3d</fix>
</trkpt>
<trkpt lat="40.0713749" lon="-105.229789">
  <ele>1583.0</ele>
  <time>2026-08-28T17:52:17Z</time>
  <course>0.0</course>
  <speed>0.0</speed>
  <fix>3d</fix>
</trkpt>
<trkpt lat="40.0713749" lon="-105.229789">
  <ele>1583.0</ele>
  <time>2026-08-28T17:52:17Z</time>
  <course>247.84</course>
  <speed>0.0316227766016838</speed>
  <fix>3d</fix>
</trkpt>
<trkpt lat="40.0713749" lon="-105.229789">
  <ele>1583.0</ele>
  <time>2026-08-28T17:52:17Z</time>
  <course>0.0</course>
  <speed>0.0</speed>
  <fix>3d</fix>
</trkpt>
<trkpt lat="40.0713749" lon="-105.229789">
  <ele>1583.0</ele>
  <time>2026-08-28T17:52:17Z</time>
  <course>247.83</course>
  <speed>0.0316227766016838</speed>
  <fix>3d</fix>
</trkpt>
<trkpt lat="40.0713749" lon="-105.229789">
  <ele>1583.0</ele>
  <time>2026-08-28T17:52:17Z</time>
  <course>0.0</course>
  <speed>0.0</speed>
  <fix>3d</fix>
</trkpt>
<trkpt lat="40.0713749" lon="-105.229789">
  <ele>1583.0</ele>
  <time>2026-08-28T17:52:17Z</time>
  <course>247.83</course>
  <speed>0.0316227766016838</speed>
  <fix>3d</fix>
</trkpt>
<trkpt lat="40.0713749" lon="-105.229789">
  <ele>1583.0</ele>
  <time>2026-08-28T17:52:17Z</time>
  <course>0.0</course>
  <speed>0.0</speed>
  <fix>3d</fix>
</trkpt>
<trkpt lat="40.0713749" lon="-105.229789">
  <ele>1583.0</ele>
  <time>2026-08-28T17:52:17Z</time>
  <course>247.83</course>
  <speed>0.0316227766016838</speed>
  <fix>3d</fix>
</trkpt>
<trkpt lat="40.0713749" lon="-105.229789">
  <ele>1583.0</ele>
  <time>2026-08-28T17:52:17Z</time>
  <course>0.0</course>
  <speed>0.0</speed>
  <fix>3d</fix>
</trkpt>
<trkpt lat="40.0713749" lon="-105.229789">
  <ele>1583.0</ele>
  <time>2026-08-28T17:52:17Z</time>
  <course>247.82</course>
  <speed>0.0316227766016838</speed>
  <fix>3d</fix>
</trkpt>
<trkpt lat="40.0713749" lon="-105.229789">
  <ele>1583.0</ele>
  <time>2026-08-28T17:52:17Z</time>
  <course>0.0</course>
  <speed>0.0</speed>
  <fix>3d</fix>
</trkpt>
<trkpt lat="40.0713749" lon="-105.229789">
  <ele>1583.0</ele>
  <time>2026-08-28T17:52:17Z</time>
  <course>247.82</course>
  <speed>0.0316227766016838</speed>
  <fix>3d</fix>
</trkpt>
<trkpt lat="40.0713749" lon="-105.229789">
  <ele>1583.0</ele>
  <time>2026-08-28T17:52:17Z</time>
  <course>0.0</course>
  <speed>0.0</speed>
  <fix>3d</fix>
</trkpt>
<trkpt lat="40.0713749" lon="-105.229789">
  <ele>1583.0</ele>
  <time>2026-08-28T17:52:17Z</time>
  <course>247.82</course>
  <speed>0.0316227766016838</speed>
  <fix>3d</fix>
</trkpt>
<trkpt lat="40.0713749" lon="-105.229789">
  <ele>1583.0</ele>
  <time>2026-08-28T17:52:17Z</time>
  <course>0.0</course>
  <speed>0.0</speed>
  <fix>3d</fix>
</trkpt>
<trkpt lat="40.0713749" lon="-105.229789">
  <ele>1583.0</ele>
  <time>2026-08-28T17:52:17Z</time>
  <course>247.81</course>
  <speed>0.0316227766016838</speed>
  <fix>3d</fix>
</trkpt>
<trkpt lat="40.0713749" lon="-105.229789">
  <ele>1583.0</ele>
  <time>2026-08-28T17:52:17Z</time>
  <course>0.0</course>
  <speed>0.0</speed>
  <fix>3d</fix>
</trkpt>
<trkpt lat="40.0713749" lon="-105.229789">
  <ele>1583.0</ele>
  <time>2026-08-28T17:52:17Z</time>
  <course>247.81</course>
  <speed>0.0316227766016838</speed>
  <fix>3d</fix>
</trkpt>
<trkpt lat="40.0713749" lon="-105.229789">
  <ele>1583.0</ele>
  <time>2026-08-28T17:52:17Z</time>
  <course>0.0</course>
  <speed>0.0</speed>
  <fix>3d</fix>
</trkpt>
<trkpt lat="40.0713749" lon="-105.229789">
  <ele>1583.0</ele>
  <time>2026-08-28T17:52:17Z</time>
  <course>247.8</course>
  <speed>0.0316227766016838</speed>
  <fix>3d</fix>
</trkpt>
<trkpt lat="40.0713749" lon="-105.229789">
  <ele>1583.0</ele>
  <time>2026-08-28T17:52:17Z</time>
  <course>0.0</course>
  <speed>0.0</speed>
  <fix>3d</fix>
</trkpt>
<trkpt lat="40.0713749" lon="-105.229789">
  <ele>1583.0</ele>
  <time>2026-08-28T17:52:17Z</time>
  <course>247.8</course>
  <speed>0.0316227766016838</speed>
  <fix>3d</fix>
</trkpt>
<trkpt lat="40.0713749" lon="-105.229789">
  <ele>1583.0</ele>
  <time>2026-08-28T17:52:17Z</time>
  <course>0.0</course>
  <speed>0.0</speed>
  <fix>3d</fix>
</trkpt>
<trkpt lat="40.0713749" lon="-105.229789">
  <ele>1583.0</ele>
  <time>2026-08-28T17:52:17Z</time>
  <course>247.8</course>
  <speed>0.0316227766016838</speed>
  <fix>3d</fix>
</trkpt>
<trkpt lat="40.0713749" lon="-105.229789">
  <ele>1583.0</ele>
  <time>2026-08-28T17:52:17Z</time>
  <course>0.0</course>
  <speed>0.0</speed>
  <fix>3d</fix>
</trkpt>
<trkpt lat="40.0713749" lon="-105.229789">
  <ele>1583.0</ele>
  <time>2026-08-28T17:52:17Z</time>
  <course>247.79</course>
  <speed>0.0316227766016838</speed>
  <fix>3d</fix>
</trkpt>
<trkpt lat="40.0713749" lon="-105.229789">
  <ele>1583.0</ele>
  <time>2026-08-28T17:52:17Z</time>
  <course>0.0</course>
  <speed>0.0</speed>
  <fix>3d</fix>
</trkpt>
<trkpt lat="40.0713749" lon="-105.229789">
  <ele>1583.0</ele>
  <time>2026-08-28T17:52:17Z</time>
  <course>247.79</course>
  <speed>0.0316227766016838</speed>
  <fix>3d</fix>
</trkpt>
<trkpt lat="40.0713749" lon="-105.229789">
  <ele>1583.0</ele>
  <time>2026-08-28T17:52:17Z</time>
  <course>0.0</course>
  <speed>0.0</speed>
  <fix>3d</fix>
</trkpt>
<trkpt lat="40.0713749" lon="-105.229789">
  <ele>1583.0</ele>
  <time>2026-08-28T17:52:17Z</time>
  <course>247.79</course>
  <speed>0.0316227766016838</speed>
  <fix>3d</fix>
</trkpt>
<trkpt lat="40.0713749" lon="-105.229789">
  <ele>1583.0</ele>
  <time>2026-08-28T17:52:17Z</time>
  <course>0.0</course>
  <speed>0.0</speed>
  <fix>3d</fix>
</trkpt>
<trkpt lat="40.0713749" lon="-105.229789">
  <ele>1583.0</ele>
  <time>2026-08-28T17:52:17Z</time>
  <course>247.78</course>
  <speed>0.0316227766016838</speed>
  <fix>3d</fix>
</trkpt>
<trkpt lat="40.0713749" lon="-105.229789">
  <ele>1583.0</ele>
  <time>2026-08-28T17:52:17Z</time>
  <course>0.0</course>
  <speed>0.0</speed>
  <fix>3d</fix>
</trkpt>
<trkpt lat="40.0713749" lon="-105.229789">
  <ele>1583.0</ele>
  <time>2026-08-28T17:52:17Z</time>
  <course>247.78</course>
  <speed>0.0316227766016838</speed>
  <fix>3d</fix>
</trkpt>
<trkpt lat="40.0713749" lon="-105.229789">
  <ele>1583.0</ele>
  <time>2026-08-28T17:52:17Z</time>
  <course>0.0</course>
  <speed>0.0</speed>
  <fix>3d</fix>
</trkpt>
<trkpt lat="40.0713749" lon="-105.229789">
  <ele>1583.0</ele>
  <time>2026-08-28T17:52:17Z</time>
  <course>247.78</course>
  <speed>0.0316227766016838</speed>
  <fix>3d</fix>
</trkpt>
<trkpt lat="40.0713749" lon="-105.229789">
  <ele>1583.0</ele>
  <time>2026-08-28T17:52:17Z</time>
  <course>0.0</course>
  <speed>0.0</speed>
  <fix>3d</fix>
</trkpt>
<trkpt lat="40.0713749" lon="-105.229789">
  <ele>1583.0</ele>
  <time>2026-08-28T17:52:17Z</time>
  <course>247.77</course>
  <speed>0.0316227766016838</speed>
  <fix>3d</fix>
</trkpt>
<trkpt lat="40.0713749" lon="-105.229789">
  <ele>1583.0</ele>
  <time>2026-08-28T17:52:17Z</time>
  <course>0.0</course>
  <speed>0.0</speed>
  <fix>3d</fix>
</trkpt>
<trkpt lat="40.0713749" lon="-105.229789">
  <ele>1583.0</ele>
  <time>2026-08-28T17:52:17Z</time>
  <course>247.77</course>
  <speed>0.0316227766016838</speed>
  <fix>3d</fix>
</trkpt>
<trkpt lat="40.0713749" lon="-105.229789">
  <ele>1583.0</ele>
  <time>2026-08-28T17:52:17Z</time>
  <course>0.0</course>
  <speed>0.0</speed>
  <fix>3d</fix>
</trkpt>
<trkpt lat="40.0713749" lon="-105.229789">
  <ele>1583.0</ele>
  <time>2026-08-28T17:52:17Z</time>
  <course>247.76</course>
  <speed>0.0316227766016838</speed>
  <fix>3d</fix>
</trkpt>
<trkpt lat="40.0713749" lon="-105.229789">
  <ele>1583.0</ele>
  <time>2026-08-28T17:52:17Z</time>
  <course>0.0</course>
  <speed>0.0</speed>
  <fix>3d</fix>
</trkpt>
<trkpt lat="40.0713749" lon="-105.229789">
  <ele>1583.0</ele>
  <time>2026-08-28T17:52:17Z</time>
  <course>247.76</course>
  <speed>0.0316227766016838</speed>
  <fix>3d</fix>
</trkpt>
<trkpt lat="40.0713749" lon="-105.229789">
  <ele>1583.0</ele>
  <time>2026-08-28T17:52:17Z</time>
  <course>0.0</course>
  <speed>0.0</speed>
  <fix>3d</fix>
</trkpt>
<trkpt lat="40.0713749" lon="-105.229789">
  <ele>1583.0</ele>
  <time>2026-08-28T17:52:17Z</time>
  <course>247.76</course>
  <speed>0.0316227766016838</speed>
  <fix>3d</fix>
</trkpt>
<trkpt lat="40.0713749" lon="-105.229789">
  <ele>1583.0</ele>
  <time>2026-08-28T17:52:17Z</time>
  <course>0.0</course>
  <speed>0.0</speed>
  <fix>3d</fix>
</trkpt>
<trkpt lat="40.0713749" lon="-105.229789">
  <ele>1583.0</ele>
  <time>2026-08-28T17:52:17Z</time>
  <course>247.75</course>
  <speed>0.0316227766016838</speed>
  <fix>3d</fix>
</trkpt>
<trkpt lat="40.0713749" lon="-105.229789">
  <ele>1583.0</ele>
  <time>2026-08-28T17:52:17Z</time>
  <course>0.0</course>
  <speed>0.0</speed>
  <fix>3d</fix>
</trkpt>
<trkpt lat="40.0713749" lon="-105.229789">
  <ele>1583.0</ele>
  <time>2026-08-28T17:52:17Z</time>
  <course>247.75</course>
  <speed>0.0316227766016838</speed>
  <fix>3d</fix>
</trkpt>
<trkpt lat="40.0713749" lon="-105.229789">
  <ele>1583.0</ele>
  <time>2026-08-28T17:52:17Z</time>
  <course>0.0</course>
  <speed>0.0</speed>
  <fix>3d</fix>
</trkpt>
<trkpt lat="40.0713749" lon="-105.229789">
  <ele>1583.0</ele>
  <time>2026-08-28T17:52:17Z</time>
  <course>247.75</course>
  <speed>0.0316227766016838</speed>
  <fix>3d</fix>
</trkpt>
<trkpt lat="40.0713749" lon="-105.229789">
  <ele>1583.0</ele>
  <time>2026-08-28T17:52:17Z</time>
  <course>0.0</course>
  <speed>0.0</speed>
  <fix>3d</fix>
</trkpt>
<trkpt lat="40.0713749" lon="-105.229789">
  <ele>1583.0</ele>
  <time>2026-08-28T17:52:17Z</time>
  <course>247.74</course>
  <speed>0.0316227766016838</speed>
  <fix>3d</fix>
</trkpt>
<trkpt lat="40.0713749" lon="-105.229789">
  <ele>1583.0</ele>
  <time>2026-08-28T17:52:17Z</time>
  <course>0.0</course>
  <speed>0.0</speed>
  <fix>3d</fix>
</trkpt>
<trkpt lat="40.0713749" lon="-105.229789">
  <ele>1583.0</ele>
  <time>2026-08-28T17:52:17Z</time>
  <course>247.74</course>
  <speed>0.0316227766016838</speed>
  <fix>3d</fix>
</trkpt>
<trkpt lat="40.0713749" lon="-105.229789">
  <ele>1583.0</ele>
  <time>2026-08-28T17:52:17Z</time>
  <course>0.0</course>
  <speed>0.0</speed>
  <fix>3d</fix>
</trkpt>
<trkpt lat="40.0713749" lon="-105.229789">
  <ele>1583.0</ele>
  <time>2026-08-28T17:52:17Z</time>
  <course>247.74</course>
  <speed>0.0316227766016838</speed>
  <fix>3d</fix>
</trkpt>
<trkpt lat="40.0713749" lon="-105.229789">
  <ele>1583.0</ele>
  <time>2026-08-28T17:52:17Z</time>
  <course>0.0</course>
  <speed>0.0</speed>
  <fix>3d</fix>
</trkpt>
<trkpt lat="40.0713749" lon="-105.229789">
  <ele>1583.0</ele>
  <time>2026-08-28T17:52:17Z</time>
  <course>247.73</course>
  <speed>0.0316227766016838</speed>
  <fix>3d</fix>
</trkpt>
<trkpt lat="40.0713749" lon="-105.229789">
  <ele>1583.0</ele>
  <time>2026-08-28T17:52:17Z</time>
  <course>0.0</course>
  <speed>0.0</speed>
  <fix>3d</fix>
</trkpt>
<trkpt lat="40.0713749" lon="-105.229789">
  <ele>1583.0</ele>
  <time>2026-08-28T17:52:17Z</time>
  <course>247.73</course>
  <speed>0.0316227766016838</speed>
  <fix>3d</fix>
</trkpt>
<trkpt lat="40.0713749" lon="-105.229789">
  <ele>1583.0</ele>
  <time>2026-08-28T17:52:17Z</time>
  <course>0.0</course>
  <speed>0.0</speed>
  <fix>3d</fix>
</trkpt>
<trkpt lat="40.0713749" lon="-105.229789">
  <ele>1583.0</ele>
  <time>2026-08-28T17:52:17Z</time>
  <course>247.73</course>
  <speed>0.0316227766016838</speed>
  <fix>3d</fix>
</trkpt>
<trkpt lat="40.0713749" lon="-105.229789">
  <ele>1583.0</ele>
  <time>2026-08-28T17:52:17Z</time>
  <course>0.0</course>
  <speed>0.0</speed>
  <fix>3d</fix>
</trkpt>
<trkpt lat="40.0713749" lon="-105.229789">
  <ele>1583.0</ele>
  <time>2026-08-28T17:52:17Z</time>
  <course>247.72</course>
  <speed>0.0316227766016838</speed>
  <fix>3d</fix>
</trkpt>
<trkpt lat="40.0713749" lon="-105.229789">
  <ele>1583.0</ele>
  <time>2026-08-28T17:52:17Z</time>
  <course>0.0</course>
  <speed>0.0</speed>
  <fix>3d</fix>
</trkpt>
<trkpt lat="40.0713749" lon="-105.229789">
  <ele>1583.0</ele>
  <time>2026-08-28T17:52:17Z</time>
  <course>247.72</course>
  <speed>0.0316227766016838</speed>
  <fix>3d</fix>
</trkpt>
<trkpt lat="40.0713749" lon="-105.229789">
  <ele>1583.0</ele>
  <time>2026-08-28T17:52:17Z</time>
  <course>0.0</course>
  <speed>0.0</speed>
  <fix>3d</fix>
</trkpt>
<trkpt lat="40.0713749" lon="-105.229789">
  <ele>1583.0</ele>
  <time>2026-08-28T17:52:17Z</time>
  <course>247.72</course>
  <speed>0.0316227766016838</speed>
  <fix>3d</fix>
</trkpt>
<trkpt lat="40.0713749" lon="-105.229789">
  <ele>1583.0</ele>
  <time>2026-08-28T17:52:17Z</time>
  <course>0.0</course>
  <speed>0.0</speed>
  <fix>3d</fix>
</trkpt>
<trkpt lat="40.0713749" lon="-105.229789">
  <ele>1583.0</ele>
  <time>2026-08-28T17:52:17Z</time>
  <course>247.71</course>
  <speed>0.0316227766016838</speed>
  <fix>3d</fix>
</trkpt>
<trkpt lat="40.0713749" lon="-105.229789">
  <ele>1583.0</ele>
  <time>2026-08-28T17:52:17Z</time>
  <course>0.0</course>
  <speed>0.0</speed>
  <fix>3d</fix>
</trkpt>
<trkpt lat="40.0713749" lon="-105.229789">
  <ele>1583.0</ele>
  <time>2026-08-28T17:52:17Z</time>
  <course>247.71</course>
  <speed>0.0316227766016838</speed>
  <fix>3d</fix>
</trkpt>
<trkpt lat="40.0713749" lon="-105.229789">
  <ele>1583.0</ele>
  <time>2026-08-28T17:52:17Z</time>
  <course>0.0</course>
  <speed>0.0</speed>
  <fix>3d</fix>
</trkpt>
<trkpt lat="40.0713749" lon="-105.229789">
  <ele>1583.0</ele>
  <time>2026-08-28T17:52:17Z</time>
  <course>247.71</course>
  <speed>0.0316227766016838</speed>
  <fix>3d</fix>
</trkpt>
<trkpt lat="40.0713749" lon="-105.229789">
  <ele>1583.0</ele>
  <time>2026-08-28T17:52:17Z</time>
  <course>0.0</course>
  <speed>0.0</speed>
  <fix>3d</fix>
</trkpt>
<trkpt lat="40.0713749" lon="-105.229789">
  <ele>1583.0</ele>
  <time>2026-08-28T17:52:17Z</time>
  <course>247.7</course>
  <speed>0.0316227766016838</speed>
  <fix>3d</fix>
</trkpt>
<trkpt lat="40.0713749" lon="-105.229789">
  <ele>1583.0</ele>
  <time>2026-08-28T17:52:17Z</time>
  <course>0.0</course>
  <speed>0.0</speed>
  <fix>3d</fix>
</trkpt>
<trkpt lat="40.0713749" lon="-105.229789">
  <ele>1583.0</ele>
  <time>2026-08-28T17:52:17Z</time>
  <course>247.7</course>
  <speed>0.0316227766016838</speed>
  <fix>3d</fix>
</trkpt>
<trkpt lat="40.0713749" lon="-105.229789">
  <ele>1583.0</ele>
  <time>2026-08-28T17:52:17Z</time>
  <course>0.0</course>
  <speed>0.0</speed>
  <fix>3d</fix>
</trkpt>
<trkpt lat="40.0713749" lon="-105.229789">
  <ele>1583.0</ele>
  <time>2026-08-28T17:52:17Z</time>
  <course>247.7</course>
  <speed>0.0316227766016838</speed>
  <fix>3d</fix>
</trkpt>
<trkpt lat="40.0713749" lon="-105.229789">
  <ele>1583.0</ele>
  <time>2026-08-28T17:52:17Z</time>
  <course>0.0</course>
  <speed>0.0</speed>
  <fix>3d</fix>
</trkpt>
<trkpt lat="40.0713749" lon="-105.229789">
  <ele>1583.0</ele>
  <time>2026-08-28T17:52:17Z</time>
  <course>247.69</course>
  <speed>0.0316227766016838</speed>
  <fix>3d</fix>
</trkpt>
<trkpt lat="40.0713749" lon="-105.229789">
  <ele>1583.0</ele>
  <time>2026-08-28T17:52:17Z</time>
  <course>0.0</course>
  <speed>0.0</speed>
  <fix>3d</fix>
</trkpt>
<trkpt lat="40.0713749" lon="-105.229789">
  <ele>1583.0</ele>
  <time>2026-08-28T17:52:17Z</time>
  <course>247.69</course>
  <speed>0.0316227766016838</speed>
  <fix>3d</fix>
</trkpt>
<trkpt lat="40.0713749" lon="-105.229789">
  <ele>1583.0</ele>
  <time>2026-08-28T17:52:17Z</time>
  <course>0.0</course>
  <speed>0.0</speed>
  <fix>3d</fix>
</trkpt>
<trkpt lat="40.0713749" lon="-105.229789">
  <ele>1583.0</ele>
  <time>2026-08-28T17:52:17Z</time>
  <course>247.69</course>
  <speed>0.0316227766016838</speed>
  <fix>3d</fix>
</trkpt>
<trkpt lat="40.0713749" lon="-105.229789">
  <ele>1583.0</ele>
  <time>2026-08-28T17:52:17Z</time>
  <course>0.0</course>
  <speed>0.0</speed>
  <fix>3d</fix>
</trkpt>
<trkpt lat="40.0713749" lon="-105.229789">
  <ele>1583.0</ele>
  <time>2026-08-28T17:52:17Z</time>
  <course>247.68</course>
  <speed>0.0316227766016838</speed>
  <fix>3d</fix>
</trkpt>
<trkpt lat="40.0713749" lon="-105.229789">
  <ele>1583.0</ele>
  <time>2026-08-28T17:52:17Z</time>
  <course>0.0</course>
  <speed>0.0</speed>
  <fix>3d</fix>
</trkpt>
<trkpt lat="40.0713749" lon="-105.229789">
  <ele>1583.0</ele>
  <time>2026-08-28T17:52:17Z</time>
  <course>247.68</course>
  <speed>0.0316227766016838</speed>
  <fix>3d</fix>
</trkpt>
<trkpt lat="40.0713749" lon="-105.229789">
  <ele>1583.0</ele>
  <time>2026-08-28T17:52:17Z</time>
  <course>0.0</course>
  <speed>0.0</speed>
  <fix>3d</fix>
</trkpt>
<trkpt lat="40.0713749" lon="-105.229789">
  <ele>1583.0</ele>
  <time>2026-08-28T17:52:17Z</time>
  <course>247.68</course>
  <speed>0.0316227766016838</speed>
  <fix>3d</fix>
</trkpt>
<trkpt lat="40.0713749" lon="-105.229789">
  <ele>1583.0</ele>
  <time>2026-08-28T17:52:17Z</time>
  <course>0.0</course>
  <speed>0.0</speed>
  <fix>3d</fix>
</trkpt>
<trkpt lat="40.0713749" lon="-105.229789">
  <ele>1583.0</ele>
  <time>2026-08-28T17:52:17Z</time>
  <course>247.67</course>
  <speed>0.0316227766016838</speed>
  <fix>3d</fix>
</trkpt>
<trkpt lat="40.0713749" lon="-105.229789">
  <ele>1583.0</ele>
  <time>2026-08-28T17:52:17Z</time>
  <course>0.0</course>
  <speed>0.0</speed>
  <fix>3d</fix>
</trkpt>
<trkpt lat="40.0713749" lon="-105.229789">
  <ele>1583.0</ele>
  <time>2026-08-28T17:52:17Z</time>
  <course>247.67</course>
  <speed>0.0316227766016838</speed>
  <fix>3d</fix>
</trkpt>
<trkpt lat="40.0713749" lon="-105.229789">
  <ele>1583.0</ele>
  <time>2026-08-28T17:52:17Z</time>
  <course>0.0</course>
  <speed>0.0</speed>
  <fix>3d</fix>
</trkpt>
<trkpt lat="40.0713749" lon="-105.229789">
  <ele>1583.0</ele>
  <time>2026-08-28T17:52:17Z</time>
  <course>247.67</course>
  <speed>0.0316227766016838</speed>
  <fix>3d</fix>
</trkpt>
<trkpt lat="40.0713749" lon="-105.229789">
  <ele>1583.0</ele>
  <time>2026-08-28T17:52:17Z</time>
  <course>0.0</course>
  <speed>0.0</speed>
  <fix>3d</fix>
</trkpt>
<trkpt lat="40.0713749" lon="-105.229789">
  <ele>1583.0</ele>
  <time>2026-08-28T17:52:17Z</time>
  <course>247.66</course>
  <speed>0.0316227766016838</speed>
  <fix>3d</fix>
</trkpt>
<trkpt lat="40.0713749" lon="-105.229789">
  <ele>1583.0</ele>
  <time>2026-08-28T17:52:17Z</time>
  <course>0.0</course>
  <speed>0.0</speed>
  <fix>3d</fix>
</trkpt>
<trkpt lat="40.0713749" lon="-105.229789">
  <ele>1583.0</ele>
  <time>2026-08-28T17:52:17Z</time>
  <course>247.66</course>
  <speed>0.0316227766016838</speed>
  <fix>3d</fix>
</trkpt>
<trkpt lat="40.0713749" lon="-105.229789">
  <ele>1583.0</ele>
  <time>2026-08-28T17:52:17Z</time>
  <course>0.0</course>
  <speed>0.0</speed>
  <fix>3d</fix>
</trkpt>
<trkpt lat="40.0713749" lon="-105.229789">
  <ele>1583.0</ele>
  <time>2026-08-28T17:52:17Z</time>
  <course>247.66</course>
  <speed>0.0316227766016838</speed>
  <fix>3d</fix>
</trkpt>
<trkpt lat="40.0713749" lon="-105.229789">
  <ele>1583.0</ele>
  <time>2026-08-28T17:52:17Z</time>
  <course>0.0</course>
  <speed>0.0</speed>
  <fix>3d</fix>
</trkpt>
<trkpt lat="40.0713749" lon="-105.229789">
  <ele>1583.0</ele>
  <time>2026-08-28T17:52:17Z</time>
  <course>247.65</course>
  <speed>0.0316227766016838</speed>
  <fix>3d</fix>
</trkpt>
<trkpt lat="40.0713749" lon="-105.229789">
  <ele>1583.0</ele>
  <time>2026-08-28T17:52:17Z</time>
  <course>0.0</course>
  <speed>0.0</speed>
  <fix>3d</fix>
</trkpt>
<trkpt lat="40.0713749" lon="-105.229789">
  <ele>1583.0</ele>
  <time>2026-08-28T17:52:17Z</time>
  <course>247.65</course>
  <speed>0.0316227766016838</speed>
  <fix>3d</fix>
</trkpt>
<trkpt lat="40.0713749" lon="-105.229789">
  <ele>1583.0</ele>
  <time>2026-08-28T17:52:17Z</time>
  <course>0.0</course>
  <speed>0.0</speed>
  <fix>3d</fix>
</trkpt>
<trkpt lat="40.0713749" lon="-105.229789">
  <ele>1583.0</ele>
  <time>2026-08-28T17:52:17Z</time>
  <course>247.65</course>
  <speed>0.0316227766016838</speed>
  <fix>3d</fix>
</trkpt>
<trkpt lat="40.0713749" lon="-105.229789">
  <ele>1583.0</ele>
  <time>2026-08-28T17:52:17Z</time>
  <course>0.0</course>
  <speed>0.0</speed>
  <fix>3d</fix>
</trkpt>
<trkpt lat="40.0713749" lon="-105.229789">
  <ele>1583.0</ele>
  <time>2026-08-28T17:52:17Z</time>
  <course>247.64</course>
  <speed>0.0316227766016838</speed>
  <fix>3d</fix>
</trkpt>
<trkpt lat="40.0713749" lon="-105.229789">
  <ele>1583.0</ele>
  <time>2026-08-28T17:52:17Z</time>
  <course>0.0</course>
  <speed>0.0</speed>
  <fix>3d</fix>
</trkpt>
<trkpt lat="40.0713749" lon="-105.229789">
  <ele>1583.0</ele>
  <time>2026-08-28T17:52:17Z</time>
  <course>247.64</course>
  <speed>0.0316227766016838</speed>
  <fix>3d</fix>
</trkpt>
<trkpt lat="40.0713749" lon="-105.229789">
  <ele>1583.0</ele>
  <time>2026-08-28T17:52:17Z</time>
  <course>0.0</course>
  <speed>0.0</speed>
  <fix>3d</fix>
</trkpt>
<trkpt lat="40.0713749" lon="-105.229789">
  <ele>1583.0</ele>
  <time>2026-08-28T17:52:17Z</time>
  <course>247.64</course>
  <speed>0.0316227766016838</speed>
  <fix>3d</fix>
</trkpt>
<trkpt lat="40.0713749" lon="-105.229789">
  <ele>1583.0</ele>
  <time>2026-08-28T17:52:17Z</time>
  <course>0.0</course>
  <speed>0.0</speed>
  <fix>3d</fix>
</trkpt>
<trkpt lat="40.0713749" lon="-105.229789">
  <ele>1583.0</ele>
  <time>2026-08-28T17:52:17Z</time>
  <course>247.64</course>
  <speed>0.0316227766016838</speed>
  <fix>3d</fix>
</trkpt>
<trkpt lat="40.0713749" lon="-105.229789">
  <ele>1583.0</ele>
  <time>2026-08-28T17:52:17Z</time>
  <course>0.0</course>
  <speed>0.0</speed>
  <fix>3d</fix>
</trkpt>
<trkpt lat="40.0713749" lon="-105.229789">
  <ele>1583.0</ele>
  <time>2026-08-28T17:52:17Z</time>
  <course>247.63</course>
  <speed>0.0316227766016838</speed>
  <fix>3d</fix>
</trkpt>
<trkpt lat="40.0713749" lon="-105.229789">
  <ele>1583.0</ele>
  <time>2026-08-28T17:52:17Z</time>
  <course>0.0</course>
  <speed>0.0</speed>
  <fix>3d</fix>
</trkpt>
<trkpt lat="40.0713749" lon="-105.229789">
  <ele>1583.0</ele>
  <time>2026-08-28T17:52:17Z</time>
  <course>247.63</course>
  <speed>0.0316227766016838</speed>
  <fix>3d</fix>
</trkpt>
<trkpt lat="40.0713749" lon="-105.229789">
  <ele>1583.0</ele>
  <time>2026-08-28T17:52:17Z</time>
  <course>0.0</course>
  <speed>0.0</speed>
  <fix>3d</fix>
</trkpt>
<trkpt lat="40.0713749" lon="-105.229789">
  <ele>1583.0</ele>
  <time>2026-08-28T17:52:17Z</time>
  <course>247.63</course>
  <speed>0.0316227766016838</speed>
  <fix>3d</fix>
</trkpt>
<trkpt lat="40.0713749" lon="-105.229789">
  <ele>1583.0</ele>
  <time>2026-08-28T17:52:17Z</time>
  <course>0.0</course>
  <speed>0.0</speed>
  <fix>3d</fix>
</trkpt>
<trkpt lat="40.0713749" lon="-105.229789">
  <ele>1583.0</ele>
  <time>2026-08-28T17:52:17Z</time>
  <course>247.62</course>
  <speed>0.0316227766016838</speed>
  <fix>3d</fix>
</trkpt>
<trkpt lat="40.0713749" lon="-105.229789">
  <ele>1583.0</ele>
  <time>2026-08-28T17:52:17Z</time>
  <course>0.0</course>
  <speed>0.0</speed>
  <fix>3d</fix>
</trkpt>
<trkpt lat="40.0713749" lon="-105.229789">
  <ele>1583.0</ele>
  <time>2026-08-28T17:52:17Z</time>
  <course>247.62</course>
  <speed>0.0316227766016838</speed>
  <fix>3d</fix>
</trkpt>
<trkpt lat="40.0713749" lon="-105.229789">
  <ele>1583.0</ele>
  <time>2026-08-28T17:52:17Z</time>
  <course>0.0</course>
  <speed>0.0</speed>
  <fix>3d</fix>
</trkpt>
<trkpt lat="40.0713749" lon="-105.229789">
  <ele>1583.0</ele>
  <time>2026-08-28T17:52:17Z</time>
  <course>247.62</course>
  <speed>0.0316227766016838</speed>
  <fix>3d</fix>
</trkpt>
<trkpt lat="40.0713749" lon="-105.229789">
  <ele>1583.0</ele>
  <time>2026-08-28T17:52:17Z</time>
  <course>0.0</course>
  <speed>0.0</speed>
  <fix>3d</fix>
</trkpt>
<trkpt lat="40.0713749" lon="-105.229789">
  <ele>1583.0</ele>
  <time>2026-08-28T17:52:17Z</time>
  <course>247.61</course>
  <speed>0.0316227766016838</speed>
  <fix>3d</fix>
</trkpt>
<trkpt lat="40.0713749" lon="-105.229789">
  <ele>1583.0</ele>
  <time>2026-08-28T17:52:17Z</time>
  <course>0.0</course>
  <speed>0.0</speed>
  <fix>3d</fix>
</trkpt>
<trkpt lat="40.0713749" lon="-105.229789">
  <ele>1583.0</ele>
  <time>2026-08-28T17:52:17Z</time>
  <course>247.61</course>
  <speed>0.0316227766016838</speed>
  <fix>3d</fix>
</trkpt>
<trkpt lat="40.0713749" lon="-105.229789">
  <ele>1583.0</ele>
  <time>2026-08-28T17:52:17Z</time>
  <course>0.0</course>
  <speed>0.0</speed>
  <fix>3d</fix>
</trkpt>
<trkpt lat="40.0713749" lon="-105.229789">
  <ele>1583.0</ele>
  <time>2026-08-28T17:52:17Z</time>
  <course>247.61</course>
  <speed>0.0316227766016838</speed>
  <fix>3d</fix>
</trkpt>
<trkpt lat="40.0713749" lon="-105.229789">
  <ele>1583.0</ele>
  <time>2026-08-28T17:52:17Z</time>
  <course>0.0</course>
  <speed>0.0</speed>
  <fix>3d</fix>
</trkpt>
<trkpt lat="40.0713749" lon="-105.229789">
  <ele>1583.0</ele>
  <time>2026-08-28T17:52:17Z</time>
  <course>247.61</course>
  <speed>0.0316227766016838</speed>
  <fix>3d</fix>
</trkpt>
<trkpt lat="40.0713749" lon="-105.229789">
  <ele>1583.0</ele>
  <time>2026-08-28T17:52:17Z</time>
  <course>0.0</course>
  <speed>0.0</speed>
  <fix>3d</fix>
</trkpt>
<trkpt lat="40.0713749" lon="-105.229789">
  <ele>1583.0</ele>
  <time>2026-08-28T17:52:17Z</time>
  <course>247.6</course>
  <speed>0.0316227766016838</speed>
  <fix>3d</fix>
</trkpt>
<trkpt lat="40.0713749" lon="-105.229789">
  <ele>1583.0</ele>
  <time>2026-08-28T17:52:17Z</time>
  <course>0.0</course>
  <speed>0.0</speed>
  <fix>3d</fix>
</trkpt>
<trkpt lat="40.0713749" lon="-105.229789">
  <ele>1583.0</ele>
  <time>2026-08-28T17:52:17Z</time>
  <course>247.6</course>
  <speed>0.0316227766016838</speed>
  <fix>3d</fix>
</trkpt>
<trkpt lat="40.0713749" lon="-105.229789">
  <ele>1583.0</ele>
  <time>2026-08-28T17:52:17Z</time>
  <course>0.0</course>
  <speed>0.0</speed>
  <fix>3d</fix>
</trkpt>
<trkpt lat="40.0713749" lon="-105.229789">
  <ele>1583.0</ele>
  <time>2026-08-28T17:52:17Z</time>
  <course>247.6</course>
  <speed>0.0316227766016838</speed>
  <fix>3d</fix>
</trkpt>
<trkpt lat="40.0713749" lon="-105.229789">
  <ele>1583.0</ele>
  <time>2026-08-28T17:52:17Z</time>
  <course>0.0</course>
  <speed>0.0</speed>
  <fix>3d</fix>
</trkpt>
<trkpt lat="40.0713749" lon="-105.229789">
  <ele>1583.0</ele>
  <time>2026-08-28T17:52:17Z</time>
  <course>247.6</course>
  <speed>0.0316227766016838</speed>
  <fix>3d</fix>
</trkpt>
<trkpt lat="40.0713749" lon="-105.229789">
  <ele>1583.0</ele>
  <time>2026-08-28T17:52:17Z</time>
  <course>0.0</course>
  <speed>0.0</speed>
  <fix>3d</fix>
</trkpt>
<trkpt lat="40.0713749" lon="-105.229789">
  <ele>1583.0</ele>
  <time>2026-08-28T17:52:17Z</time>
  <course>247.59</course>
  <speed>0.0316227766016838</speed>
  <fix>3d</fix>
</trkpt>
<trkpt lat="40.0713749" lon="-105.229789">
  <ele>1583.0</ele>
  <time>2026-08-28T17:52:17Z</time>
  <course>0.0</course>
  <speed>0.0</speed>
  <fix>3d</fix>
</trkpt>
<trkpt lat="40.0713749" lon="-105.229789">
  <ele>1582.92</ele>
  <time>2026-08-28T17:52:17Z</time>
  <course>247.59</course>
  <speed>0.0</speed>
  <fix>3d</fix>
</trkpt>
<trkpt lat="40.0713749" lon="-105.229789">
  <ele>1583.0</ele>
  <time>2026-08-28T17:52:17Z</time>
  <course>0.0</course>
  <speed>0.0</speed>
  <fix>3d</fix>
</trkpt>
<trkpt lat="40.0713749" lon="-105.229789">
  <ele>1582.92</ele>
  <time>2026-08-28T17:52:17Z</time>
  <course>247.59</course>
  <speed>0.0</speed>
  <fix>3d</fix>
</trkpt>
<trkpt lat="40.0713749" lon="-105.229789">
  <ele>1583.0</ele>
  <time>2026-08-28T17:52:17Z</time>
  <course>0.0</course>
  <speed>0.0</speed>
  <fix>3d</fix>
</trkpt>
<trkpt lat="40.0713749" lon="-105.229789">
  <ele>1582.91</ele>
  <time>2026-08-28T17:52:17Z</time>
  <course>247.58</course>
  <speed>0.0</speed>
  <fix>3d</fix>
</trkpt>
<trkpt lat="40.0713749" lon="-105.229789">
  <ele>1583.0</ele>
  <time>2026-08-28T17:52:17Z</time>
  <course>0.0</course>
  <speed>0.0</speed>
  <fix>3d</fix>
</trkpt>
<trkpt lat="40.0713749" lon="-105.229789">
  <ele>1582.91</ele>
  <time>2026-08-28T17:52:17Z</time>
  <course>247.58</course>
  <speed>0.0</speed>
  <fix>3d</fix>
</trkpt>
<trkpt lat="40.0713749" lon="-105.229789">
  <ele>1583.0</ele>
  <time>2026-08-28T17:52:17Z</time>
  <course>0.0</course>
  <speed>0.0</speed>
  <fix>3d</fix>
</trkpt>
<trkpt lat="40.0713749" lon="-105.229789">
  <ele>1582.9</ele>
  <time>2026-08-28T17:52:17Z</time>
  <course>247.58</course>
  <speed>0.0</speed>
  <fix>3d</fix>
</trkpt>
<trkpt lat="40.0713749" lon="-105.229789">
  <ele>1583.0</ele>
  <time>2026-08-28T17:52:17Z</time>
  <course>0.0</course>
  <speed>0.0</speed>
  <fix>3d</fix>
</trkpt>
<trkpt lat="40.0713749" lon="-105.229789">
  <ele>1582.9</ele>
  <time>2026-08-28T17:52:17Z</time>
  <course>247.58</course>
  <speed>0.0</speed>
  <fix>3d</fix>
</trkpt>
<trkpt lat="40.0713749" lon="-105.229789">
  <ele>1583.0</ele>
  <time>2026-08-28T17:52:17Z</time>
  <course>0.0</course>
  <speed>0.0</speed>
  <fix>3d</fix>
</trkpt>
<trkpt lat="40.0713749" lon="-105.229789">
  <ele>1582.9</ele>
  <time>2026-08-28T17:52:17Z</time>
  <course>247.57</course>
  <speed>0.0</speed>
  <fix>3d</fix>
</trkpt>
<trkpt lat="40.0713749" lon="-105.229789">
  <ele>1583.0</ele>
  <time>2026-08-28T17:52:17Z</time>
  <course>0.0</course>
  <speed>0.0</speed>
  <fix>3d</fix>
</trkpt>
<trkpt lat="40.0713749" lon="-105.229789">
  <ele>1582.9</ele>
  <time>2026-08-28T17:52:17Z</time>
  <course>247.57</course>
  <speed>0.0</speed>
  <fix>3d</fix>
</trkpt>
<trkpt lat="40.0713749" lon="-105.229789">
  <ele>1583.0</ele>
  <time>2026-08-28T17:52:17Z</time>
  <course>0.0</course>
  <speed>0.0</speed>
  <fix>3d</fix>
</trkpt>
<trkpt lat="40.0713749" lon="-105.229789">
  <ele>1582.9</ele>
  <time>2026-08-28T17:52:17Z</time>
  <course>247.57</course>
  <speed>0.0</speed>
  <fix>3d</fix>
</trkpt>
<trkpt lat="40.0713749" lon="-105.229789">
  <ele>1583.0</ele>
  <time>2026-08-28T17:52:17Z</time>
  <course>0.0</course>
  <speed>0.0</speed>
  <fix>3d</fix>
</trkpt>
<trkpt lat="40.0713749" lon="-105.229789">
  <ele>1582.9</ele>
  <time>2026-08-28T17:52:17Z</time>
  <course>247.57</course>
  <speed>0.01</speed>
  <fix>3d</fix>
</trkpt>
<trkpt lat="40.0713749" lon="-105.229789">
  <ele>1582.9</ele>
  <time>2026-08-28T17:52:17Z</time>
  <course>247.57</course>
  <speed>0.01</speed>
  <fix>3d</fix>
</trkpt>
<trkpt lat="40.0713749" lon="-105.229789">
  <ele>1583.0</ele>
  <time>2026-08-28T17:52:17Z</time>
  <course>0.0</course>
  <speed>0.0</speed>
  <fix>3d</fix>
</trkpt>
<trkpt lat="40.0713749" lon="-105.229789">
  <ele>1582.91</ele>
  <time>2026-08-28T17:52:17Z</time>
  <course>247.56</course>
  <speed>0.01</speed>
  <fix>3d</fix>
</trkpt>
<trkpt lat="40.0713749" lon="-105.229789">
  <ele>1583.0</ele>
  <time>2026-08-28T17:52:17Z</time>
  <course>0.0</course>
  <speed>0.0</speed>
  <fix>3d</fix>
</trkpt>
<trkpt lat="40.0713749" lon="-105.229789">
  <ele>1582.91</ele>
  <time>2026-08-28T17:52:17Z</time>
  <course>247.56</course>
  <speed>0.01</speed>
  <fix>3d</fix>
</trkpt>
<trkpt lat="40.0713749" lon="-105.229789">
  <ele>1583.0</ele>
  <time>2026-08-28T17:52:17Z</time>
  <course>0.0</course>
  <speed>0.0</speed>
  <fix>3d</fix>
</trkpt>
<trkpt lat="40.0713749" lon="-105.229789">
  <ele>1582.91</ele>
  <time>2026-08-28T17:52:17Z</time>
  <course>247.56</course>
  <speed>0.01</speed>
  <fix>3d</fix>
</trkpt>
<trkpt lat="40.0713749" lon="-105.229789">
  <ele>1583.0</ele>
  <time>2026-08-28T17:52:17Z</time>
  <course>0.0</course>
  <speed>0.0</speed>
  <fix>3d</fix>
</trkpt>
<trkpt lat="40.0713749" lon="-105.229789">
  <ele>1582.93</ele>
  <time>2026-08-28T17:52:17Z</time>
  <course>247.55</course>
  <speed>0.01</speed>
  <fix>3d</fix>
</trkpt>
<trkpt lat="40.0713749" lon="-105.229789">
  <ele>1583.0</ele>
  <time>2026-08-28T17:52:17Z</time>
  <course>0.0</course>
  <speed>0.0</speed>
  <fix>3d</fix>
</trkpt>
<trkpt lat="40.0713749" lon="-105.229789">
  <ele>1582.93</ele>
  <time>2026-08-28T17:52:17Z</time>
  <course>247.54</course>
  <speed>0.02</speed>
  <fix>3d</fix>
</trkpt>
<trkpt lat="40.0713749" lon="-105.229789">
  <ele>1583.0</ele>
  <time>2026-08-28T17:52:17Z</time>
  <course>0.0</course>
  <speed>0.0</speed>
  <fix>3d</fix>
</trkpt>
<trkpt lat="40.071375" lon="-105.229789">
  <ele>1582.94</ele>
  <time>2026-08-28T17:52:17Z</time>
  <course>247.53</course>
  <speed>0.022360679774997897</speed>
  <fix>3d</fix>
</trkpt>
<trkpt lat="40.0713749" lon="-105.229789">
  <ele>1583.0</ele>
  <time>2026-08-28T17:52:17Z</time>
  <course>0.0</course>
  <speed>0.0</speed>
  <fix>3d</fix>
</trkpt>
<trkpt lat="40.071375" lon="-105.229789">
  <ele>1582.95</ele>
  <time>2026-08-28T17:52:17Z</time>
  <course>247.52</course>
  <speed>0.022360679774997897</speed>
  <fix>3d</fix>
</trkpt>
<trkpt lat="40.0713749" lon="-105.229789">
  <ele>1583.0</ele>
  <time>2026-08-28T17:52:17Z</time>
  <course>0.0</course>
  <speed>0.0</speed>
  <fix>3d</fix>
</trkpt>
<trkpt lat="40.071375" lon="-105.229789">
  <ele>1582.95</ele>
  <time>2026-08-28T17:52:17Z</time>
  <course>247.51</course>
  <speed>0.0316227766016838</speed>
  <fix>3d</fix>
</trkpt>
<trkpt lat="40.0713749" lon="-105.229789">
  <ele>1583.0</ele>
  <time>2026-08-28T17:52:17Z</time>
  <course>0.0</course>
  <speed>0.0</speed>
  <fix>3d</fix>
</trkpt>
<trkpt lat="40.071375" lon="-105.2297889">
  <ele>1582.95</ele>
  <time>2026-08-28T17:52:17Z</time>
  <course>247.5</course>
  <speed>0.0316227766016838</speed>
  <fix>3d</fix>
</trkpt>
<trkpt lat="40.0713749" lon="-105.229789">
  <ele>1583.0</ele>
  <time>2026-08-28T17:52:17Z</time>
  <course>0.0</course>
  <speed>0.0</speed>
  <fix>3d</fix>
</trkpt>
<trkpt lat="40.0713751" lon="-105.2297889">
  <ele>1582.96</ele>
  <time>2026-08-28T17:52:17Z</time>
  <course>247.49</course>
  <speed>0.0316227766016838</speed>
  <fix>3d</fix>
</trkpt>
<trkpt lat="40.0713749" lon="-105.229789">
  <ele>1583.0</ele>
  <time>2026-08-28T17:52:17Z</time>
  <course>0.0</course>
  <speed>0.0</speed>
  <fix>3d</fix>
</trkpt>
<trkpt lat="40.0713751" lon="-105.2297889">
  <ele>1582.98</ele>
  <time>2026-08-28T17:52:17Z</time>
  <course>247.49</course>
  <speed>0.0316227766016838</speed>
  <fix>3d</fix>
</trkpt>
<trkpt lat="40.0713749" lon="-105.229789">
  <ele>1583.0</ele>
  <time>2026-08-28T17:52:17Z</time>
  <course>0.0</course>
  <speed>0.0</speed>
  <fix>3d</fix>
</trkpt>
<trkpt lat="40.0713751" lon="-105.2297889">
  <ele>1583.01</ele>
  <time>2026-08-28T17:52:17Z</time>
  <course>247.48</course>
  <speed>0.022360679774997897</speed>
  <fix>3d</fix>
</trkpt>
<trkpt lat="40.0713749" lon="-105.229789">
  <ele>1583.0</ele>
  <time>2026-08-28T17:52:17Z</time>
  <course>0.0</course>
  <speed>0.0</speed>
  <fix>3d</fix>
</trkpt>
<trkpt lat="40.071375" lon="-105.2297889">
  <ele>1583.0</ele>
  <time>2026-08-28T17:52:17Z</time>
  <course>247.47</course>
  <speed>0.022360679774997897</speed>
  <fix>3d</fix>
</trkpt>
<trkpt lat="40.0713749" lon="-105.229789">
  <ele>1583.0</ele>
  <time>2026-08-28T17:52:17Z</time>
  <course>0.0</course>
  <speed>0.0</speed>
  <fix>3d</fix>
</trkpt>
<trkpt lat="40.071375" lon="-105.2297889">
  <ele>1582.99</ele>
  <time>2026-08-28T17:52:17Z</time>
  <course>247.46</course>
  <speed>0.022360679774997897</speed>
  <fix>3d</fix>
</trkpt>
<trkpt lat="40.0713749" lon="-105.229789">
  <ele>1583.0</ele>
  <time>2026-08-28T17:52:17Z</time>
  <course>0.0</course>
  <speed>0.0</speed>
  <fix>3d</fix>
</trkpt>
<trkpt lat="40.071375" lon="-105.2297889">
  <ele>1582.99</ele>
  <time>2026-08-28T17:52:17Z</time>
  <course>247.45</course>
  <speed>0.022360679774997897</speed>
  <fix>3d</fix>
</trkpt>
<trkpt lat="40.0713749" lon="-105.229789">
  <ele>1583.0</ele>
  <time>2026-08-28T17:52:17Z</time>
  <course>0.0</course>
  <speed>0.0</speed>
  <fix>3d</fix>
</trkpt>
<trkpt lat="40.071375" lon="-105.229789">
  <ele>1583.0</ele>
  <time>2026-08-28T17:52:17Z</time>
  <course>247.44</course>
  <speed>0.02</speed>
  <fix>3d</fix>
</trkpt>
<trkpt lat="40.0713749" lon="-105.229789">
  <ele>1583.0</ele>
  <time>2026-08-28T17:52:17Z</time>
  <course>0.0</course>
  <speed>0.0</speed>
  <fix>3d</fix>
</trkpt>
<trkpt lat="40.071375" lon="-105.229789">
  <ele>1583.01</ele>
  <time>2026-08-28T17:52:18Z</time>
  <course>247.43</course>
  <speed>0.02</speed>
  <fix>3d</fix>
</trkpt>
<trkpt lat="40.0713749" lon="-105.229789">
  <ele>1583.0</ele>
  <time>2026-08-28T17:52:18Z</time>
  <course>0.0</course>
  <speed>0.0</speed>
  <fix>3d</fix>
</trkpt>
<trkpt lat="40.071375" lon="-105.229789">
  <ele>1583.01</ele>
  <time>2026-08-28T17:52:18Z</time>
  <course>247.42</course>
  <speed>0.02</speed>
  <fix>3d</fix>
</trkpt>
<trkpt lat="40.0713749" lon="-105.229789">
  <ele>1583.0</ele>
  <time>2026-08-28T17:52:18Z</time>
  <course>0.0</course>
  <speed>0.0</speed>
  <fix>3d</fix>
</trkpt>
<trkpt lat="40.071375" lon="-105.229789">
  <ele>1583.01</ele>
  <time>2026-08-28T17:52:18Z</time>
  <course>247.42</course>
  <speed>0.02</speed>
  <fix>3d</fix>
</trkpt>
<trkpt lat="40.0713749" lon="-105.229789">
  <ele>1583.0</ele>
  <time>2026-08-28T17:52:18Z</time>
  <course>0.0</course>
  <speed>0.0</speed>
  <fix>3d</fix>
</trkpt>
<trkpt lat="40.071375" lon="-105.229789">
  <ele>1583.01</ele>
  <time>2026-08-28T17:52:18Z</time>
  <course>247.41</course>
  <speed>0.02</speed>
  <fix>3d</fix>
</trkpt>
<trkpt lat="40.0713749" lon="-105.229789">
  <ele>1583.0</ele>
  <time>2026-08-28T17:52:18Z</time>
  <course>0.0</course>
  <speed>0.0</speed>
  <fix>3d</fix>
</trkpt>
<trkpt lat="40.071375" lon="-105.229789">
  <ele>1583.02</ele>
  <time>2026-08-28T17:52:18Z</time>
  <course>247.4</course>
  <speed>0.02</speed>
  <fix>3d</fix>
</trkpt>
<trkpt lat="40.0713749" lon="-105.229789">
  <ele>1583.0</ele>
  <time>2026-08-28T17:52:18Z</time>
  <course>0.0</course>
  <speed>0.0</speed>
  <fix>3d</fix>
</trkpt>
<trkpt lat="40.071375" lon="-105.229789">
  <ele>1583.03</ele>
  <time>2026-08-28T17:52:18Z</time>
  <course>247.39</course>
  <speed>0.01</speed>
  <fix>3d</fix>
</trkpt>
<trkpt lat="40.0713749" lon="-105.229789">
  <ele>1583.0</ele>
  <time>2026-08-28T17:52:18Z</time>
  <course>0.0</course>
  <speed>0.0</speed>
  <fix>3d</fix>
</trkpt>
<trkpt lat="40.071375" lon="-105.229789">
  <ele>1583.04</ele>
  <time>2026-08-28T17:52:18Z</time>
  <course>247.38</course>
  <speed>0.02</speed>
  <fix>3d</fix>
</trkpt>
<trkpt lat="40.0713749" lon="-105.229789">
  <ele>1583.0</ele>
  <time>2026-08-28T17:52:18Z</time>
  <course>0.0</course>
  <speed>0.0</speed>
  <fix>3d</fix>
</trkpt>
<trkpt lat="40.071375" lon="-105.229789">
  <ele>1583.04</ele>
  <time>2026-08-28T17:52:18Z</time>
  <course>247.38</course>
  <speed>0.02</speed>
  <fix>3d</fix>
</trkpt>
<trkpt lat="40.0713749" lon="-105.229789">
  <ele>1583.0</ele>
  <time>2026-08-28T17:52:18Z</time>
  <course>0.0</course>
  <speed>0.0</speed>
  <fix>3d</fix>
</trkpt>
<trkpt lat="40.071375" lon="-105.229789">
  <ele>1583.05</ele>
  <time>2026-08-28T17:52:18Z</time>
  <course>247.38</course>
  <speed>0.02</speed>
  <fix>3d</fix>
</trkpt>
<trkpt lat="40.0713749" lon="-105.229789">
  <ele>1583.0</ele>
  <time>2026-08-28T17:52:18Z</time>
  <course>0.0</course>
  <speed>0.0</speed>
  <fix>3d</fix>
</trkpt>
<trkpt lat="40.071375" lon="-105.229789">
  <ele>1583.05</ele>
  <time>2026-08-28T17:52:18Z</time>
  <course>247.38</course>
  <speed>0.02</speed>
  <fix>3d</fix>
</trkpt>
<trkpt lat="40.0713749" lon="-105.229789">
  <ele>1583.0</ele>
  <time>2026-08-28T17:52:18Z</time>
  <course>0.0</course>
  <speed>0.0</speed>
  <fix>3d</fix>
</trkpt>
<trkpt lat="40.071375" lon="-105.229789">
  <ele>1583.06</ele>
  <time>2026-08-28T17:52:18Z</time>
  <course>247.37</course>
  <speed>0.02</speed>
  <fix>3d</fix>
</trkpt>
<trkpt lat="40.0713749" lon="-105.229789">
  <ele>1583.0</ele>
  <time>2026-08-28T17:52:18Z</time>
  <course>0.0</course>
  <speed>0.0</speed>
  <fix>3d</fix>
</trkpt>
<trkpt lat="40.071375" lon="-105.229789">
  <ele>1583.06</ele>
  <time>2026-08-28T17:52:18Z</time>
  <course>247.36</course>
  <speed>0.02</speed>
  <fix>3d</fix>
</trkpt>
<trkpt lat="40.0713749" lon="-105.229789">
  <ele>1583.0</ele>
  <time>2026-08-28T17:52:18Z</time>
  <course>0.0</course>
  <speed>0.0</speed>
  <fix>3d</fix>
</trkpt>
<trkpt lat="40.071375" lon="-105.229789">
  <ele>1583.06</ele>
  <time>2026-08-28T17:52:18Z</time>
  <course>247.36</course>
  <speed>0.02</speed>
  <fix>3d</fix>
</trkpt>
<trkpt lat="40.0713749" lon="-105.229789">
  <ele>1583.0</ele>
  <time>2026-08-28T17:52:18Z</time>
  <course>0.0</course>
  <speed>0.0</speed>
  <fix>3d</fix>
</trkpt>
<trkpt lat="40.071375" lon="-105.229789">
  <ele>1583.04</ele>
  <time>2026-08-28T17:52:18Z</time>
  <course>247.35</course>
  <speed>0.02</speed>
  <fix>3d</fix>
</trkpt>
<trkpt lat="40.0713749" lon="-105.229789">
  <ele>1583.0</ele>
  <time>2026-08-28T17:52:18Z</time>
  <course>0.0</course>
  <speed>0.0</speed>
  <fix>3d</fix>
</trkpt>
<trkpt lat="40.071375" lon="-105.229789">
  <ele>1583.03</ele>
  <time>2026-08-28T17:52:18Z</time>
  <course>247.34</course>
  <speed>0.02</speed>
  <fix>3d</fix>
</trkpt>
<trkpt lat="40.0713749" lon="-105.229789">
  <ele>1583.0</ele>
  <time>2026-08-28T17:52:18Z</time>
  <course>0.0</course>
  <speed>0.0</speed>
  <fix>3d</fix>
</trkpt>
<trkpt lat="40.071375" lon="-105.229789">
  <ele>1583.02</ele>
  <time>2026-08-28T17:52:18Z</time>
  <course>247.34</course>
  <speed>0.02</speed>
  <fix>3d</fix>
</trkpt>
<trkpt lat="40.0713749" lon="-105.229789">
  <ele>1583.0</ele>
  <time>2026-08-28T17:52:18Z</time>
  <course>0.0</course>
  <speed>0.0</speed>
  <fix>3d</fix>
</trkpt>
<trkpt lat="40.071375" lon="-105.229789">
  <ele>1583.01</ele>
  <time>2026-08-28T17:52:18Z</time>
  <course>247.33</course>
  <speed>0.02</speed>
  <fix>3d</fix>
</trkpt>
<trkpt lat="40.0713749" lon="-105.229789">
  <ele>1583.0</ele>
  <time>2026-08-28T17:52:18Z</time>
  <course>0.0</course>
  <speed>0.0</speed>
  <fix>3d</fix>
</trkpt>
<trkpt lat="40.071375" lon="-105.229789">
  <ele>1583.01</ele>
  <time>2026-08-28T17:52:18Z</time>
  <course>247.33</course>
  <speed>0.02</speed>
  <fix>3d</fix>
</trkpt>
<trkpt lat="40.0713749" lon="-105.229789">
  <ele>1583.0</ele>
  <time>2026-08-28T17:52:18Z</time>
  <course>0.0</course>
  <speed>0.0</speed>
  <fix>3d</fix>
</trkpt>
<trkpt lat="40.071375" lon="-105.229789">
  <ele>1583.0</ele>
  <time>2026-08-28T17:52:18Z</time>
  <course>247.32</course>
  <speed>0.02</speed>
  <fix>3d</fix>
</trkpt>
<trkpt lat="40.0713749" lon="-105.229789">
  <ele>1583.0</ele>
  <time>2026-08-28T17:52:18Z</time>
  <course>0.0</course>
  <speed>0.0</speed>
  <fix>3d</fix>
</trkpt>
<trkpt lat="40.071375" lon="-105.229789">
  <ele>1582.97</ele>
  <time>2026-08-28T17:52:18Z</time>
  <course>247.31</course>
  <speed>0.02</speed>
  <fix>3d</fix>
</trkpt>
<trkpt lat="40.0713749" lon="-105.229789">
  <ele>1583.0</ele>
  <time>2026-08-28T17:52:18Z</time>
  <course>0.0</course>
  <speed>0.0</speed>
  <fix>3d</fix>
</trkpt>
<trkpt lat="40.071375" lon="-105.229789">
  <ele>1582.95</ele>
  <time>2026-08-28T17:52:18Z</time>
  <course>247.31</course>
  <speed>0.02</speed>
  <fix>3d</fix>
</trkpt>
<trkpt lat="40.0713749" lon="-105.229789">
  <ele>1583.0</ele>
  <time>2026-08-28T17:52:18Z</time>
  <course>0.0</course>
  <speed>0.0</speed>
  <fix>3d</fix>
</trkpt>
<trkpt lat="40.071375" lon="-105.229789">
  <ele>1582.93</ele>
  <time>2026-08-28T17:52:18Z</time>
  <course>247.3</course>
  <speed>0.02</speed>
  <fix>3d</fix>
</trkpt>
<trkpt lat="40.0713749" lon="-105.229789">
  <ele>1583.0</ele>
  <time>2026-08-28T17:52:18Z</time>
  <course>0.0</course>
  <speed>0.0</speed>
  <fix>3d</fix>
</trkpt>
<trkpt lat="40.071375" lon="-105.229789">
  <ele>1582.91</ele>
  <time>2026-08-28T17:52:18Z</time>
  <course>247.3</course>
  <speed>0.02</speed>
  <fix>3d</fix>
</trkpt>
<trkpt lat="40.0713749" lon="-105.229789">
  <ele>1583.0</ele>
  <time>2026-08-28T17:52:18Z</time>
  <course>0.0</course>
  <speed>0.0</speed>
  <fix>3d</fix>
</trkpt>
<trkpt lat="40.071375" lon="-105.229789">
  <ele>1582.91</ele>
  <time>2026-08-28T17:52:18Z</time>
  <course>247.29</course>
  <speed>0.02</speed>
  <fix>3d</fix>
</trkpt>
<trkpt lat="40.0713749" lon="-105.229789">
  <ele>1583.0</ele>
  <time>2026-08-28T17:52:18Z</time>
  <course>0.0</course>
  <speed>0.0</speed>
  <fix>3d</fix>
</trkpt>
<trkpt lat="40.071375" lon="-105.229789">
  <ele>1582.9</ele>
  <time>2026-08-28T17:52:18Z</time>
  <course>247.28</course>
  <speed>0.02</speed>
  <fix>3d</fix>
</trkpt>
<trkpt lat="40.0713749" lon="-105.229789">
  <ele>1583.0</ele>
  <time>2026-08-28T17:52:18Z</time>
  <course>0.0</course>
  <speed>0.0</speed>
  <fix>3d</fix>
</trkpt>
<trkpt lat="40.071375" lon="-105.229789">
  <ele>1582.9</ele>
  <time>2026-08-28T17:52:18Z</time>
  <course>247.28</course>
  <speed>0.02</speed>
  <fix>3d</fix>
</trkpt>
<trkpt lat="40.0713749" lon="-105.229789">
  <ele>1583.0</ele>
  <time>2026-08-28T17:52:18Z</time>
  <course>0.0</course>
  <speed>0.0</speed>
  <fix>3d</fix>
</trkpt>
<trkpt lat="40.071375" lon="-105.2297889">
  <ele>1582.93</ele>
  <time>2026-08-28T17:52:18Z</time>
  <course>247.27</course>
  <speed>0.02</speed>
  <fix>3d</fix>
</trkpt>
<trkpt lat="40.0713749" lon="-105.229789">
  <ele>1583.0</ele>
  <time>2026-08-28T17:52:18Z</time>
  <course>0.0</course>
  <speed>0.0</speed>
  <fix>3d</fix>
</trkpt>
<trkpt lat="40.071375" lon="-105.2297889">
  <ele>1582.96</ele>
  <time>2026-08-28T17:52:18Z</time>
  <course>247.27</course>
  <speed>0.02</speed>
  <fix>3d</fix>
</trkpt>
<trkpt lat="40.0713749" lon="-105.229789">
  <ele>1583.0</ele>
  <time>2026-08-28T17:52:18Z</time>
  <course>0.0</course>
  <speed>0.0</speed>
  <fix>3d</fix>
</trkpt>
<trkpt lat="40.071375" lon="-105.2297889">
  <ele>1582.97</ele>
  <time>2026-08-28T17:52:18Z</time>
  <course>247.26</course>
  <speed>0.02</speed>
  <fix>3d</fix>
</trkpt>
<trkpt lat="40.0713749" lon="-105.229789">
  <ele>1583.0</ele>
  <time>2026-08-28T17:52:18Z</time>
  <course>0.0</course>
  <speed>0.0</speed>
  <fix>3d</fix>
</trkpt>
<trkpt lat="40.071375" lon="-105.2297889">
  <ele>1582.99</ele>
  <time>2026-08-28T17:52:18Z</time>
  <course>247.26</course>
  <speed>0.02</speed>
  <fix>3d</fix>
</trkpt>
<trkpt lat="40.0713749" lon="-105.229789">
  <ele>1583.0</ele>
  <time>2026-08-28T17:52:18Z</time>
  <course>0.0</course>
  <speed>0.0</speed>
  <fix>3d</fix>
</trkpt>
<trkpt lat="40.071375" lon="-105.229789">
  <ele>1583.0</ele>
  <time>2026-08-28T17:52:18Z</time>
  <course>247.26</course>
  <speed>0.02</speed>
  <fix>3d</fix>
</trkpt>
<trkpt lat="40.0713749" lon="-105.229789">
  <ele>1583.0</ele>
  <time>2026-08-28T17:52:18Z</time>
  <course>0.0</course>
  <speed>0.0</speed>
  <fix>3d</fix>
</trkpt>
<trkpt lat="40.071375" lon="-105.229789">
  <ele>1583.0</ele>
  <time>2026-08-28T17:52:18Z</time>
  <course>247.26</course>
  <speed>0.02</speed>
  <fix>3d</fix>
</trkpt>
<trkpt lat="40.0713749" lon="-105.229789">
  <ele>1583.0</ele>
  <time>2026-08-28T17:52:18Z</time>
  <course>0.0</course>
  <speed>0.0</speed>
  <fix>3d</fix>
</trkpt>
<trkpt lat="40.071375" lon="-105.229789">
  <ele>1583.0</ele>
  <time>2026-08-28T17:52:18Z</time>
  <course>247.25</course>
  <speed>0.02</speed>
  <fix>3d</fix>
</trkpt>
<trkpt lat="40.0713749" lon="-105.229789">
  <ele>1583.0</ele>
  <time>2026-08-28T17:52:18Z</time>
  <course>0.0</course>
  <speed>0.0</speed>
  <fix>3d</fix>
</trkpt>
<trkpt lat="40.071375" lon="-105.229789">
  <ele>1583.0</ele>
  <time>2026-08-28T17:52:18Z</time>
  <course>247.25</course>
  <speed>0.02</speed>
  <fix>3d</fix>
</trkpt>
<trkpt lat="40.0713749" lon="-105.229789">
  <ele>1583.0</ele>
  <time>2026-08-28T17:52:18Z</time>
  <course>0.0</course>
  <speed>0.0</speed>
  <fix>3d</fix>
</trkpt>
<trkpt lat="40.071375" lon="-105.229789">
  <ele>1582.99</ele>
  <time>2026-08-28T17:52:18Z</time>
  <course>247.25</course>
  <speed>0.02</speed>
  <fix>3d</fix>
</trkpt>
<trkpt lat="40.0713749" lon="-105.229789">
  <ele>1583.0</ele>
  <time>2026-08-28T17:52:18Z</time>
  <course>0.0</course>
  <speed>0.0</speed>
  <fix>3d</fix>
</trkpt>
<trkpt lat="40.071375" lon="-105.2297889">
  <ele>1582.98</ele>
  <time>2026-08-28T17:52:18Z</time>
  <course>247.25</course>
  <speed>0.02</speed>
  <fix>3d</fix>
</trkpt>
<trkpt lat="40.0713749" lon="-105.229789">
  <ele>1583.0</ele>
  <time>2026-08-28T17:52:18Z</time>
  <course>0.0</course>
  <speed>0.0</speed>
  <fix>3d</fix>
</trkpt>
<trkpt lat="40.071375" lon="-105.229789">
  <ele>1582.98</ele>
  <time>2026-08-28T17:52:18Z</time>
  <course>247.25</course>
  <speed>0.02</speed>
  <fix>3d</fix>
</trkpt>
<trkpt lat="40.0713749" lon="-105.229789">
  <ele>1583.0</ele>
  <time>2026-08-28T17:52:18Z</time>
  <course>0.0</course>
  <speed>0.0</speed>
  <fix>3d</fix>
</trkpt>
<trkpt lat="40.071375" lon="-105.2297889">
  <ele>1582.97</ele>
  <time>2026-08-28T17:52:18Z</time>
  <course>247.25</course>
  <speed>0.02</speed>
  <fix>3d</fix>
</trkpt>
<trkpt lat="40.0713749" lon="-105.229789">
  <ele>1583.0</ele>
  <time>2026-08-28T17:52:18Z</time>
  <course>0.0</course>
  <speed>0.0</speed>
  <fix>3d</fix>
</trkpt>
<trkpt lat="40.071375" lon="-105.229789">
  <ele>1582.96</ele>
  <time>2026-08-28T17:52:18Z</time>
  <course>247.25</course>
  <speed>0.02</speed>
  <fix>3d</fix>
</trkpt>
<trkpt lat="40.0713749" lon="-105.229789">
  <ele>1583.0</ele>
  <time>2026-08-28T17:52:18Z</time>
  <course>0.0</course>
  <speed>0.0</speed>
  <fix>3d</fix>
</trkpt>
<trkpt lat="40.071375" lon="-105.2297889">
  <ele>1582.96</ele>
  <time>2026-08-28T17:52:18Z</time>
  <course>247.25</course>
  <speed>0.02</speed>
  <fix>3d</fix>
</trkpt>
<trkpt lat="40.0713749" lon="-105.229789">
  <ele>1583.0</ele>
  <time>2026-08-28T17:52:18Z</time>
  <course>0.0</course>
  <speed>0.0</speed>
  <fix>3d</fix>
</trkpt>
<trkpt lat="40.071375" lon="-105.229789">
  <ele>1582.95</ele>
  <time>2026-08-28T17:52:18Z</time>
  <course>247.25</course>
  <speed>0.02</speed>
  <fix>3d</fix>
</trkpt>
<trkpt lat="40.0713749" lon="-105.229789">
  <ele>1583.0</ele>
  <time>2026-08-28T17:52:18Z</time>
  <course>0.0</course>
  <speed>0.0</speed>
  <fix>3d</fix>
</trkpt>
<trkpt lat="40.071375" lon="-105.2297889">
  <ele>1582.95</ele>
  <time>2026-08-28T17:52:18Z</time>
  <course>247.24</course>
  <speed>0.02</speed>
  <fix>3d</fix>
</trkpt>
<trkpt lat="40.0713749" lon="-105.229789">
  <ele>1583.0</ele>
  <time>2026-08-28T17:52:18Z</time>
  <course>0.0</course>
  <speed>0.0</speed>
  <fix>3d</fix>
</trkpt>
<trkpt lat="40.071375" lon="-105.229789">
  <ele>1582.96</ele>
  <time>2026-08-28T17:52:18Z</time>
  <course>247.24</course>
  <speed>0.02</speed>
  <fix>3d</fix>
</trkpt>
<trkpt lat="40.0713749" lon="-105.229789">
  <ele>1583.0</ele>
  <time>2026-08-28T17:52:18Z</time>
  <course>0.0</course>
  <speed>0.0</speed>
  <fix>3d</fix>
</trkpt>
<trkpt lat="40.071375" lon="-105.2297889">
  <ele>1582.96</ele>
  <time>2026-08-28T17:52:18Z</time>
  <course>247.24</course>
  <speed>0.02</speed>
  <fix>3d</fix>
</trkpt>
<trkpt lat="40.0713749" lon="-105.229789">
  <ele>1583.0</ele>
  <time>2026-08-28T17:52:18Z</time>
  <course>0.0</course>
  <speed>0.0</speed>
  <fix>3d</fix>
</trkpt>
<trkpt lat="40.071375" lon="-105.229789">
  <ele>1582.97</ele>
  <time>2026-08-28T17:52:18Z</time>
  <course>247.24</course>
  <speed>0.02</speed>
  <fix>3d</fix>
</trkpt>
<trkpt lat="40.0713749" lon="-105.229789">
  <ele>1583.0</ele>
  <time>2026-08-28T17:52:18Z</time>
  <course>0.0</course>
  <speed>0.0</speed>
  <fix>3d</fix>
</trkpt>
<trkpt lat="40.071375" lon="-105.229789">
  <ele>1582.97</ele>
  <time>2026-08-28T17:52:18Z</time>
  <course>247.24</course>
  <speed>0.02</speed>
  <fix>3d</fix>
</trkpt>
<trkpt lat="40.0713749" lon="-105.229789">
  <ele>1583.0</ele>
  <time>2026-08-28T17:52:18Z</time>
  <course>0.0</course>
  <speed>0.0</speed>
  <fix>3d</fix>
</trkpt>
<trkpt lat="40.071375" lon="-105.229789">
  <ele>1582.98</ele>
  <time>2026-08-28T17:52:18Z</time>
  <course>247.24</course>
  <speed>0.02</speed>
  <fix>3d</fix>
</trkpt>
<trkpt lat="40.0713749" lon="-105.229789">
  <ele>1583.0</ele>
  <time>2026-08-28T17:52:18Z</time>
  <course>0.0</course>
  <speed>0.0</speed>
  <fix>3d</fix>
</trkpt>
<trkpt lat="40.071375" lon="-105.229789">
  <ele>1582.98</ele>
  <time>2026-08-28T17:52:18Z</time>
  <course>247.24</course>
  <speed>0.02</speed>
  <fix>3d</fix>
</trkpt>
<trkpt lat="40.0713749" lon="-105.229789">
  <ele>1583.0</ele>
  <time>2026-08-28T17:52:18Z</time>
  <course>0.0</course>
  <speed>0.0</speed>
  <fix>3d</fix>
</trkpt>
<trkpt lat="40.071375" lon="-105.229789">
  <ele>1582.99</ele>
  <time>2026-08-28T17:52:18Z</time>
  <course>247.24</course>
  <speed>0.02</speed>
  <fix>3d</fix>
</trkpt>
<trkpt lat="40.0713749" lon="-105.229789">
  <ele>1583.0</ele>
  <time>2026-08-28T17:52:18Z</time>
  <course>0.0</course>
  <speed>0.0</speed>
  <fix>3d</fix>
</trkpt>
<trkpt lat="40.071375" lon="-105.229789">
  <ele>1583.0</ele>
  <time>2026-08-28T17:52:18Z</time>
  <course>247.24</course>
  <speed>0.02</speed>
  <fix>3d</fix>
</trkpt>
<trkpt lat="40.0713749" lon="-105.229789">
  <ele>1583.0</ele>
  <time>2026-08-28T17:52:18Z</time>
  <course>0.0</course>
  <speed>0.0</speed>
  <fix>3d</fix>
</trkpt>
<trkpt lat="40.071375" lon="-105.229789">
  <ele>1583.01</ele>
  <time>2026-08-28T17:52:18Z</time>
  <course>247.23</course>
  <speed>0.02</speed>
  <fix>3d</fix>
</trkpt>
<trkpt lat="40.0713749" lon="-105.229789">
  <ele>1583.0</ele>
  <time>2026-08-28T17:52:18Z</time>
  <course>0.0</course>
  <speed>0.0</speed>
  <fix>3d</fix>
</trkpt>
<trkpt lat="40.071375" lon="-105.229789">
  <ele>1583.01</ele>
  <time>2026-08-28T17:52:18Z</time>
  <course>247.23</course>
  <speed>0.02</speed>
  <fix>3d</fix>
</trkpt>
<trkpt lat="40.0713749" lon="-105.229789">
  <ele>1583.0</ele>
  <time>2026-08-28T17:52:18Z</time>
  <course>0.0</course>
  <speed>0.0</speed>
  <fix>3d</fix>
</trkpt>
<trkpt lat="40.071375" lon="-105.229789">
  <ele>1583.02</ele>
  <time>2026-08-28T17:52:18Z</time>
  <course>247.23</course>
  <speed>0.02</speed>
  <fix>3d</fix>
</trkpt>
<trkpt lat="40.0713749" lon="-105.229789">
  <ele>1583.0</ele>
  <time>2026-08-28T17:52:18Z</time>
  <course>0.0</course>
  <speed>0.0</speed>
  <fix>3d</fix>
</trkpt>
<trkpt lat="40.071375" lon="-105.229789">
  <ele>1583.03</ele>
  <time>2026-08-28T17:52:18Z</time>
  <course>247.23</course>
  <speed>0.02</speed>
  <fix>3d</fix>
</trkpt>
<trkpt lat="40.0713749" lon="-105.229789">
  <ele>1583.0</ele>
  <time>2026-08-28T17:52:18Z</time>
  <course>0.0</course>
  <speed>0.0</speed>
  <fix>3d</fix>
</trkpt>
<trkpt lat="40.071375" lon="-105.229789">
  <ele>1583.04</ele>
  <time>2026-08-28T17:52:18Z</time>
  <course>247.23</course>
  <speed>0.02</speed>
  <fix>3d</fix>
</trkpt>
<trkpt lat="40.0713749" lon="-105.229789">
  <ele>1583.0</ele>
  <time>2026-08-28T17:52:18Z</time>
  <course>0.0</course>
  <speed>0.0</speed>
  <fix>3d</fix>
</trkpt>
<trkpt lat="40.071375" lon="-105.229789">
  <ele>1583.05</ele>
  <time>2026-08-28T17:52:18Z</time>
  <course>247.23</course>
  <speed>0.02</speed>
  <fix>3d</fix>
</trkpt>
<trkpt lat="40.0713749" lon="-105.229789">
  <ele>1583.0</ele>
  <time>2026-08-28T17:52:18Z</time>
  <course>0.0</course>
  <speed>0.0</speed>
  <fix>3d</fix>
</trkpt>
<trkpt lat="40.071375" lon="-105.229789">
  <ele>1583.06</ele>
  <time>2026-08-28T17:52:18Z</time>
  <course>247.23</course>
  <speed>0.02</speed>
  <fix>3d</fix>
</trkpt>
<trkpt lat="40.0713749" lon="-105.229789">
  <ele>1583.0</ele>
  <time>2026-08-28T17:52:18Z</time>
  <course>0.0</course>
  <speed>0.0</speed>
  <fix>3d</fix>
</trkpt>
<trkpt lat="40.071375" lon="-105.229789">
  <ele>1583.07</ele>
  <time>2026-08-28T17:52:18Z</time>
  <course>247.23</course>
  <speed>0.01</speed>
  <fix>3d</fix>
</trkpt>
<trkpt lat="40.0713749" lon="-105.229789">
  <ele>1583.0</ele>
  <time>2026-08-28T17:52:18Z</time>
  <course>0.0</course>
  <speed>0.0</speed>
  <fix>3d</fix>
</trkpt>
<trkpt lat="40.071375" lon="-105.229789">
  <ele>1583.07</ele>
  <time>2026-08-28T17:52:18Z</time>
  <course>247.23</course>
  <speed>0.01</speed>
  <fix>3d</fix>
</trkpt>
<trkpt lat="40.0713749" lon="-105.229789">
  <ele>1583.0</ele>
  <time>2026-08-28T17:52:18Z</time>
  <course>0.0</course>
  <speed>0.0</speed>
  <fix>3d</fix>
</trkpt>
<trkpt lat="40.071375" lon="-105.229789">
  <ele>1583.08</ele>
  <time>2026-08-28T17:52:18Z</time>
  <course>247.22</course>
  <speed>0.01</speed>
  <fix>3d</fix>
</trkpt>
<trkpt lat="40.0713749" lon="-105.229789">
  <ele>1583.0</ele>
  <time>2026-08-28T17:52:18Z</time>
  <course>0.0</course>
  <speed>0.0</speed>
  <fix>3d</fix>
</trkpt>
<trkpt lat="40.071375" lon="-105.229789">
  <ele>1583.08</ele>
  <time>2026-08-28T17:52:18Z</time>
  <course>247.22</course>
  <speed>0.01</speed>
  <fix>3d</fix>
</trkpt>
<trkpt lat="40.0713749" lon="-105.229789">
  <ele>1583.0</ele>
  <time>2026-08-28T17:52:18Z</time>
  <course>0.0</course>
  <speed>0.0</speed>
  <fix>3d</fix>
</trkpt>
<trkpt lat="40.071375" lon="-105.229789">
  <ele>1583.08</ele>
  <time>2026-08-28T17:52:18Z</time>
  <course>247.22</course>
  <speed>0.01</speed>
  <fix>3d</fix>
</trkpt>
<trkpt lat="40.0713749" lon="-105.229789">
  <ele>1583.0</ele>
  <time>2026-08-28T17:52:18Z</time>
  <course>0.0</course>
  <speed>0.0</speed>
  <fix>3d</fix>
</trkpt>
<trkpt lat="40.071375" lon="-105.229789">
  <ele>1583.08</ele>
  <time>2026-08-28T17:52:18Z</time>
  <course>247.22</course>
  <speed>0.01</speed>
  <fix>3d</fix>
</trkpt>
<trkpt lat="40.0713749" lon="-105.229789">
  <ele>1583.0</ele>
  <time>2026-08-28T17:52:18Z</time>
  <course>0.0</course>
  <speed>0.0</speed>
  <fix>3d</fix>
</trkpt>
<trkpt lat="40.071375" lon="-105.229789">
  <ele>1583.08</ele>
  <time>2026-08-28T17:52:18Z</time>
  <course>247.22</course>
  <speed>0.01</speed>
  <fix>3d</fix>
</trkpt>
<trkpt lat="40.0713749" lon="-105.229789">
  <ele>1583.0</ele>
  <time>2026-08-28T17:52:18Z</time>
  <course>0.0</course>
  <speed>0.0</speed>
  <fix>3d</fix>
</trkpt>
<trkpt lat="40.071375" lon="-105.229789">
  <ele>1583.07</ele>
  <time>2026-08-28T17:52:18Z</time>
  <course>247.22</course>
  <speed>0.01</speed>
  <fix>3d</fix>
</trkpt>
<trkpt lat="40.0713749" lon="-105.229789">
  <ele>1583.0</ele>
  <time>2026-08-28T17:52:18Z</time>
  <course>0.0</course>
  <speed>0.0</speed>
  <fix>3d</fix>
</trkpt>
<trkpt lat="40.071375" lon="-105.229789">
  <ele>1583.07</ele>
  <time>2026-08-28T17:52:18Z</time>
  <course>247.22</course>
  <speed>0.01</speed>
  <fix>3d</fix>
</trkpt>
<trkpt lat="40.0713749" lon="-105.229789">
  <ele>1583.0</ele>
  <time>2026-08-28T17:52:18Z</time>
  <course>0.0</course>
  <speed>0.0</speed>
  <fix>3d</fix>
</trkpt>
<trkpt lat="40.071375" lon="-105.229789">
  <ele>1583.06</ele>
  <time>2026-08-28T17:52:18Z</time>
  <course>247.22</course>
  <speed>0.01</speed>
  <fix>3d</fix>
</trkpt>
<trkpt lat="40.0713749" lon="-105.229789">
  <ele>1583.0</ele>
  <time>2026-08-28T17:52:18Z</time>
  <course>0.0</course>
  <speed>0.0</speed>
  <fix>3d</fix>
</trkpt>
<trkpt lat="40.071375" lon="-105.229789">
  <ele>1583.06</ele>
  <time>2026-08-28T17:52:18Z</time>
  <course>247.22</course>
  <speed>0.01</speed>
  <fix>3d</fix>
</trkpt>
<trkpt lat="40.0713749" lon="-105.229789">
  <ele>1583.0</ele>
  <time>2026-08-28T17:52:18Z</time>
  <course>0.0</course>
  <speed>0.0</speed>
  <fix>3d</fix>
</trkpt>
<trkpt lat="40.071375" lon="-105.229789">
  <ele>1583.05</ele>
  <time>2026-08-28T17:52:18Z</time>
  <course>247.22</course>
  <speed>0.01</speed>
  <fix>3d</fix>
</trkpt>
<trkpt lat="40.0713749" lon="-105.229789">
  <ele>1583.0</ele>
  <time>2026-08-28T17:52:18Z</time>
  <course>0.0</course>
  <speed>0.0</speed>
  <fix>3d</fix>
</trkpt>
<trkpt lat="40.071375" lon="-105.229789">
  <ele>1583.05</ele>
  <time>2026-08-28T17:52:18Z</time>
  <course>247.22</course>
  <speed>0.01</speed>
  <fix>3d</fix>
</trkpt>
<trkpt lat="40.071375" lon="-105.229789">
  <ele>1583.05</ele>
  <time>2026-08-28T17:52:18Z</time>
  <course>247.22</course>
  <speed>0.01</speed>
  <fix>3d</fix>
</trkpt>
<trkpt lat="40.0713749" lon="-105.229789">
  <ele>1583.0</ele>
  <time>2026-08-28T17:52:18Z</time>
  <course>0.0</course>
  <speed>0.0</speed>
  <fix>3d</fix>
</trkpt>
<trkpt lat="40.071375" lon="-105.229789">
  <ele>1583.05</ele>
  <time>2026-08-28T17:52:18Z</time>
  <course>247.21</course>
  <speed>0.01</speed>
  <fix>3d</fix>
</trkpt>
<trkpt lat="40.0713749" lon="-105.229789">
  <ele>1583.0</ele>
  <time>2026-08-28T17:52:18Z</time>
  <course>0.0</course>
  <speed>0.0</speed>
  <fix>3d</fix>
</trkpt>
<trkpt lat="40.071375" lon="-105.229789">
  <ele>1583.04</ele>
  <time>2026-08-28T17:52:18Z</time>
  <course>247.21</course>
  <speed>0.01</speed>
  <fix>3d</fix>
</trkpt>
<trkpt lat="40.0713749" lon="-105.229789">
  <ele>1583.0</ele>
  <time>2026-08-28T17:52:18Z</time>
  <course>0.0</course>
  <speed>0.0</speed>
  <fix>3d</fix>
</trkpt>
<trkpt lat="40.071375" lon="-105.229789">
  <ele>1583.04</ele>
  <time>2026-08-28T17:52:18Z</time>
  <course>247.21</course>
  <speed>0.01</speed>
  <fix>3d</fix>
</trkpt>
<trkpt lat="40.0713749" lon="-105.229789">
  <ele>1583.0</ele>
  <time>2026-08-28T17:52:18Z</time>
  <course>0.0</course>
  <speed>0.0</speed>
  <fix>3d</fix>
</trkpt>
<trkpt lat="40.071375" lon="-105.229789">
  <ele>1583.04</ele>
  <time>2026-08-28T17:52:18Z</time>
  <course>247.21</course>
  <speed>0.01</speed>
  <fix>3d</fix>
</trkpt>
<trkpt lat="40.0713749" lon="-105.229789">
  <ele>1583.0</ele>
  <time>2026-08-28T17:52:18Z</time>
  <course>0.0</course>
  <speed>0.0</speed>
  <fix>3d</fix>
</trkpt>
<trkpt lat="40.071375" lon="-105.229789">
  <ele>1583.03</ele>
  <time>2026-08-28T17:52:18Z</time>
  <course>247.21</course>
  <speed>0.01</speed>
  <fix>3d</fix>
</trkpt>
<trkpt lat="40.0713749" lon="-105.229789">
  <ele>1583.0</ele>
  <time>2026-08-28T17:52:18Z</time>
  <course>0.0</course>
  <speed>0.0</speed>
  <fix>3d</fix>
</trkpt>
<trkpt lat="40.071375" lon="-105.229789">
  <ele>1583.03</ele>
  <time>2026-08-28T17:52:18Z</time>
  <course>247.21</course>
  <speed>0.01</speed>
  <fix>3d</fix>
</trkpt>
<trkpt lat="40.0713749" lon="-105.229789">
  <ele>1583.0</ele>
  <time>2026-08-28T17:52:18Z</time>
  <course>0.0</course>
  <speed>0.0</speed>
  <fix>3d</fix>
</trkpt>
<trkpt lat="40.071375" lon="-105.229789">
  <ele>1583.02</ele>
  <time>2026-08-28T17:52:18Z</time>
  <course>247.21</course>
  <speed>0.01</speed>
  <fix>3d</fix>
</trkpt>
<trkpt lat="40.0713749" lon="-105.229789">
  <ele>1583.0</ele>
  <time>2026-08-28T17:52:18Z</time>
  <course>0.0</course>
  <speed>0.0</speed>
  <fix>3d</fix>
</trkpt>
<trkpt lat="40.071375" lon="-105.229789">
  <ele>1583.02</ele>
  <time>2026-08-28T17:52:18Z</time>
  <course>247.21</course>
  <speed>0.01</speed>
  <fix>3d</fix>
</trkpt>
<trkpt lat="40.0713749" lon="-105.229789">
  <ele>1583.0</ele>
  <time>2026-08-28T17:52:18Z</time>
  <course>0.0</course>
  <speed>0.0</speed>
  <fix>3d</fix>
</trkpt>
<trkpt lat="40.071375" lon="-105.229789">
  <ele>1583.02</ele>
  <time>2026-08-28T17:52:18Z</time>
  <course>247.21</course>
  <speed>0.01</speed>
  <fix>3d</fix>
</trkpt>
<trkpt lat="40.0713749" lon="-105.229789">
  <ele>1583.0</ele>
  <time>2026-08-28T17:52:18Z</time>
  <course>0.0</course>
  <speed>0.0</speed>
  <fix>3d</fix>
</trkpt>
<trkpt lat="40.071375" lon="-105.229789">
  <ele>1583.01</ele>
  <time>2026-08-28T17:52:18Z</time>
  <course>247.21</course>
  <speed>0.01</speed>
  <fix>3d</fix>
</trkpt>
<trkpt lat="40.0713749" lon="-105.229789">
  <ele>1583.0</ele>
  <time>2026-08-28T17:52:18Z</time>
  <course>0.0</course>
  <speed>0.0</speed>
  <fix>3d</fix>
</trkpt>
<trkpt lat="40.071375" lon="-105.229789">
  <ele>1583.01</ele>
  <time>2026-08-28T17:52:18Z</time>
  <course>247.21</course>
  <speed>0.01</speed>
  <fix>3d</fix>
</trkpt>
<trkpt lat="40.0713749" lon="-105.229789">
  <ele>1583.0</ele>
  <time>2026-08-28T17:52:18Z</time>
  <course>0.0</course>
  <speed>0.0</speed>
  <fix>3d</fix>
</trkpt>
<trkpt lat="40.071375" lon="-105.229789">
  <ele>1583.01</ele>
  <time>2026-08-28T17:52:18Z</time>
  <course>247.2</course>
  <speed>0.01</speed>
  <fix>3d</fix>
</trkpt>
<trkpt lat="40.0713749" lon="-105.229789">
  <ele>1583.0</ele>
  <time>2026-08-28T17:52:18Z</time>
  <course>0.0</course>
  <speed>0.0</speed>
  <fix>3d</fix>
</trkpt>
<trkpt lat="40.071375" lon="-105.229789">
  <ele>1583.01</ele>
  <time>2026-08-28T17:52:18Z</time>
  <course>247.2</course>
  <speed>0.01</speed>
  <fix>3d</fix>
</trkpt>
<trkpt lat="40.0713749" lon="-105.229789">
  <ele>1583.0</ele>
  <time>2026-08-28T17:52:18Z</time>
  <course>0.0</course>
  <speed>0.0</speed>
  <fix>3d</fix>
</trkpt>
<trkpt lat="40.071375" lon="-105.229789">
  <ele>1583.0</ele>
  <time>2026-08-28T17:52:18Z</time>
  <course>247.2</course>
  <speed>0.01</speed>
  <fix>3d</fix>
</trkpt>
<trkpt lat="40.0713749" lon="-105.229789">
  <ele>1583.0</ele>
  <time>2026-08-28T17:52:18Z</time>
  <course>0.0</course>
  <speed>0.0</speed>
  <fix>3d</fix>
</trkpt>
<trkpt lat="40.071375" lon="-105.229789">
  <ele>1583.0</ele>
  <time>2026-08-28T17:52:18Z</time>
  <course>247.2</course>
  <speed>0.01</speed>
  <fix>3d</fix>
</trkpt>
<trkpt lat="40.0713749" lon="-105.229789">
  <ele>1583.0</ele>
  <time>2026-08-28T17:52:18Z</time>
  <course>0.0</course>
  <speed>0.0</speed>
  <fix>3d</fix>
</trkpt>
<trkpt lat="40.071375" lon="-105.229789">
  <ele>1583.0</ele>
  <time>2026-08-28T17:52:18Z</time>
  <course>247.2</course>
  <speed>0.01</speed>
  <fix>3d</fix>
</trkpt>
<trkpt lat="40.0713749" lon="-105.229789">
  <ele>1583.0</ele>
  <time>2026-08-28T17:52:18Z</time>
  <course>0.0</course>
  <speed>0.0</speed>
  <fix>3d</fix>
</trkpt>
<trkpt lat="40.071375" lon="-105.229789">
  <ele>1583.0</ele>
  <time>2026-08-28T17:52:18Z</time>
  <course>247.2</course>
  <speed>0.01</speed>
  <fix>3d</fix>
</trkpt>
<trkpt lat="40.0713749" lon="-105.229789">
  <ele>1583.0</ele>
  <time>2026-08-28T17:52:18Z</time>
  <course>0.0</course>
  <speed>0.0</speed>
  <fix>3d</fix>
</trkpt>
<trkpt lat="40.071375" lon="-105.229789">
  <ele>1583.0</ele>
  <time>2026-08-28T17:52:18Z</time>
  <course>247.2</course>
  <speed>0.01</speed>
  <fix>3d</fix>
</trkpt>
<trkpt lat="40.0713749" lon="-105.229789">
  <ele>1583.0</ele>
  <time>2026-08-28T17:52:18Z</time>
  <course>0.0</course>
  <speed>0.0</speed>
  <fix>3d</fix>
</trkpt>
<trkpt lat="40.071375" lon="-105.229789">
  <ele>1583.0</ele>
  <time>2026-08-28T17:52:18Z</time>
  <course>247.2</course>
  <speed>0.01</speed>
  <fix>3d</fix>
</trkpt>
<trkpt lat="40.0713749" lon="-105.229789">
  <ele>1583.0</ele>
  <time>2026-08-28T17:52:18Z</time>
  <course>0.0</course>
  <speed>0.0</speed>
  <fix>3d</fix>
</trkpt>
<trkpt lat="40.071375" lon="-105.229789">
  <ele>1583.0</ele>
  <time>2026-08-28T17:52:18Z</time>
  <course>247.2</course>
  <speed>0.02</speed>
  <fix>3d</fix>
</trkpt>
<trkpt lat="40.0713749" lon="-105.229789">
  <ele>1583.0</ele>
  <time>2026-08-28T17:52:18Z</time>
  <course>0.0</course>
  <speed>0.0</speed>
  <fix>3d</fix>
</trkpt>
<trkpt lat="40.071375" lon="-105.229789">
  <ele>1583.01</ele>
  <time>2026-08-28T17:52:18Z</time>
  <course>247.2</course>
  <speed>0.02</speed>
  <fix>3d</fix>
</trkpt>
<trkpt lat="40.0713749" lon="-105.229789">
  <ele>1583.0</ele>
  <time>2026-08-28T17:52:18Z</time>
  <course>0.0</course>
  <speed>0.0</speed>
  <fix>3d</fix>
</trkpt>
<trkpt lat="40.071375" lon="-105.229789">
  <ele>1583.01</ele>
  <time>2026-08-28T17:52:18Z</time>
  <course>247.2</course>
  <speed>0.02</speed>
  <fix>3d</fix>
</trkpt>
<trkpt lat="40.0713749" lon="-105.229789">
  <ele>1583.0</ele>
  <time>2026-08-28T17:52:18Z</time>
  <course>0.0</course>
  <speed>0.0</speed>
  <fix>3d</fix>
</trkpt>
<trkpt lat="40.071375" lon="-105.229789">
  <ele>1583.01</ele>
  <time>2026-08-28T17:52:18Z</time>
  <course>247.2</course>
  <speed>0.02</speed>
  <fix>3d</fix>
</trkpt>
<trkpt lat="40.0713749" lon="-105.229789">
  <ele>1583.0</ele>
  <time>2026-08-28T17:52:18Z</time>
  <course>0.0</course>
  <speed>0.0</speed>
  <fix>3d</fix>
</trkpt>
<trkpt lat="40.071375" lon="-105.229789">
  <ele>1583.01</ele>
  <time>2026-08-28T17:52:18Z</time>
  <course>247.2</course>
  <speed>0.02</speed>
  <fix>3d</fix>
</trkpt>
<trkpt lat="40.0713749" lon="-105.229789">
  <ele>1583.0</ele>
  <time>2026-08-28T17:52:18Z</time>
  <course>0.0</course>
  <speed>0.0</speed>
  <fix>3d</fix>
</trkpt>
<trkpt lat="40.071375" lon="-105.229789">
  <ele>1583.01</ele>
  <time>2026-08-28T17:52:18Z</time>
  <course>247.19</course>
  <speed>0.02</speed>
  <fix>3d</fix>
</trkpt>
<trkpt lat="40.0713749" lon="-105.229789">
  <ele>1583.0</ele>
  <time>2026-08-28T17:52:18Z</time>
  <course>0.0</course>
  <speed>0.0</speed>
  <fix>3d</fix>
</trkpt>
<trkpt lat="40.071375" lon="-105.229789">
  <ele>1583.02</ele>
  <time>2026-08-28T17:52:18Z</time>
  <course>247.19</course>
  <speed>0.02</speed>
  <fix>3d</fix>
</trkpt>
<trkpt lat="40.0713749" lon="-105.229789">
  <ele>1583.0</ele>
  <time>2026-08-28T17:52:18Z</time>
  <course>0.0</course>
  <speed>0.0</speed>
  <fix>3d</fix>
</trkpt>
<trkpt lat="40.071375" lon="-105.229789">
  <ele>1583.02</ele>
  <time>2026-08-28T17:52:18Z</time>
  <course>247.19</course>
  <speed>0.02</speed>
  <fix>3d</fix>
</trkpt>
<trkpt lat="40.0713749" lon="-105.229789">
  <ele>1583.0</ele>
  <time>2026-08-28T17:52:18Z</time>
  <course>0.0</course>
  <speed>0.0</speed>
  <fix>3d</fix>
</trkpt>
<trkpt lat="40.071375" lon="-105.229789">
  <ele>1583.03</ele>
  <time>2026-08-28T17:52:18Z</time>
  <course>247.19</course>
  <speed>0.02</speed>
  <fix>3d</fix>
</trkpt>
<trkpt lat="40.0713749" lon="-105.229789">
  <ele>1583.0</ele>
  <time>2026-08-28T17:52:18Z</time>
  <course>0.0</course>
  <speed>0.0</speed>
  <fix>3d</fix>
</trkpt>
<trkpt lat="40.071375" lon="-105.229789">
  <ele>1583.03</ele>
  <time>2026-08-28T17:52:18Z</time>
  <course>247.19</course>
  <speed>0.02</speed>
  <fix>3d</fix>
</trkpt>
<trkpt lat="40.0713749" lon="-105.229789">
  <ele>1583.0</ele>
  <time>2026-08-28T17:52:18Z</time>
  <course>0.0</course>
  <speed>0.0</speed>
  <fix>3d</fix>
</trkpt>
<trkpt lat="40.071375" lon="-105.229789">
  <ele>1583.04</ele>
  <time>2026-08-28T17:52:18Z</time>
  <course>247.19</course>
  <speed>0.02</speed>
  <fix>3d</fix>
</trkpt>
<trkpt lat="40.0713749" lon="-105.229789">
  <ele>1583.0</ele>
  <time>2026-08-28T17:52:18Z</time>
  <course>0.0</course>
  <speed>0.0</speed>
  <fix>3d</fix>
</trkpt>
<trkpt lat="40.071375" lon="-105.229789">
  <ele>1583.04</ele>
  <time>2026-08-28T17:52:18Z</time>
  <course>247.19</course>
  <speed>0.02</speed>
  <fix>3d</fix>
</trkpt>
<trkpt lat="40.0713749" lon="-105.229789">
  <ele>1583.0</ele>
  <time>2026-08-28T17:52:18Z</time>
  <course>0.0</course>
  <speed>0.0</speed>
  <fix>3d</fix>
</trkpt>
<trkpt lat="40.071375" lon="-105.229789">
  <ele>1583.04</ele>
  <time>2026-08-28T17:52:18Z</time>
  <course>247.19</course>
  <speed>0.02</speed>
  <fix>3d</fix>
</trkpt>
<trkpt lat="40.0713749" lon="-105.229789">
  <ele>1583.0</ele>
  <time>2026-08-28T17:52:18Z</time>
  <course>0.0</course>
  <speed>0.0</speed>
  <fix>3d</fix>
</trkpt>
<trkpt lat="40.071375" lon="-105.229789">
  <ele>1583.04</ele>
  <time>2026-08-28T17:52:19Z</time>
  <course>247.19</course>
  <speed>0.02</speed>
  <fix>3d</fix>
</trkpt>
<trkpt lat="40.0713749" lon="-105.229789">
  <ele>1583.0</ele>
  <time>2026-08-28T17:52:19Z</time>
  <course>0.0</course>
  <speed>0.0</speed>
  <fix>3d</fix>
</trkpt>
<trkpt lat="40.071375" lon="-105.229789">
  <ele>1583.04</ele>
  <time>2026-08-28T17:52:19Z</time>
  <course>247.19</course>
  <speed>0.02</speed>
  <fix>3d</fix>
</trkpt>
<trkpt lat="40.0713749" lon="-105.229789">
  <ele>1583.0</ele>
  <time>2026-08-28T17:52:19Z</time>
  <course>0.0</course>
  <speed>0.0</speed>
  <fix>3d</fix>
</trkpt>
<trkpt lat="40.071375" lon="-105.229789">
  <ele>1583.04</ele>
  <time>2026-08-28T17:52:19Z</time>
  <course>247.19</course>
  <speed>0.02</speed>
  <fix>3d</fix>
</trkpt>
<trkpt lat="40.0713749" lon="-105.229789">
  <ele>1583.0</ele>
  <time>2026-08-28T17:52:19Z</time>
  <course>0.0</course>
  <speed>0.0</speed>
  <fix>3d</fix>
</trkpt>
<trkpt lat="40.071375" lon="-105.229789">
  <ele>1583.04</ele>
  <time>2026-08-28T17:52:19Z</time>
  <course>247.19</course>
  <speed>0.022360679774997897</speed>
  <fix>3d</fix>
</trkpt>
<trkpt lat="40.0713749" lon="-105.229789">
  <ele>1583.0</ele>
  <time>2026-08-28T17:52:19Z</time>
  <course>0.0</course>
  <speed>0.0</speed>
  <fix>3d</fix>
</trkpt>
<trkpt lat="40.071375" lon="-105.229789">
  <ele>1583.03</ele>
  <time>2026-08-28T17:52:19Z</time>
  <course>247.19</course>
  <speed>0.02</speed>
  <fix>3d</fix>
</trkpt>
<trkpt lat="40.0713749" lon="-105.229789">
  <ele>1583.0</ele>
  <time>2026-08-28T17:52:19Z</time>
  <course>0.0</course>
  <speed>0.0</speed>
  <fix>3d</fix>
</trkpt>
<trkpt lat="40.071375" lon="-105.229789">
  <ele>1583.03</ele>
  <time>2026-08-28T17:52:19Z</time>
  <course>247.19</course>
  <speed>0.02</speed>
  <fix>3d</fix>
</trkpt>
<trkpt lat="40.0713749" lon="-105.229789">
  <ele>1583.0</ele>
  <time>2026-08-28T17:52:19Z</time>
  <course>0.0</course>
  <speed>0.0</speed>
  <fix>3d</fix>
</trkpt>
<trkpt lat="40.071375" lon="-105.229789">
  <ele>1583.03</ele>
  <time>2026-08-28T17:52:19Z</time>
  <course>247.19</course>
  <speed>0.02</speed>
  <fix>3d</fix>
</trkpt>
<trkpt lat="40.0713749" lon="-105.229789">
  <ele>1583.0</ele>
  <time>2026-08-28T17:52:19Z</time>
  <course>0.0</course>
  <speed>0.0</speed>
  <fix>3d</fix>
</trkpt>
<trkpt lat="40.071375" lon="-105.229789">
  <ele>1583.02</ele>
  <time>2026-08-28T17:52:19Z</time>
  <course>247.18</course>
  <speed>0.022360679774997897</speed>
  <fix>3d</fix>
</trkpt>
<trkpt lat="40.0713749" lon="-105.229789">
  <ele>1583.0</ele>
  <time>2026-08-28T17:52:19Z</time>
  <course>0.0</course>
  <speed>0.0</speed>
  <fix>3d</fix>
</trkpt>
<trkpt lat="40.071375" lon="-105.229789">
  <ele>1583.02</ele>
  <time>2026-08-28T17:52:19Z</time>
  <course>247.18</course>
  <speed>0.02</speed>
  <fix>3d</fix>
</trkpt>
<trkpt lat="40.0713749" lon="-105.229789">
  <ele>1583.0</ele>
  <time>2026-08-28T17:52:19Z</time>
  <course>0.0</course>
  <speed>0.0</speed>
  <fix>3d</fix>
</trkpt>
<trkpt lat="40.071375" lon="-105.229789">
  <ele>1583.02</ele>
  <time>2026-08-28T17:52:19Z</time>
  <course>247.18</course>
  <speed>0.022360679774997897</speed>
  <fix>3d</fix>
</trkpt>
<trkpt lat="40.0713749" lon="-105.229789">
  <ele>1583.0</ele>
  <time>2026-08-28T17:52:19Z</time>
  <course>0.0</course>
  <speed>0.0</speed>
  <fix>3d</fix>
</trkpt>
<trkpt lat="40.071375" lon="-105.229789">
  <ele>1583.01</ele>
  <time>2026-08-28T17:52:19Z</time>
  <course>247.18</course>
  <speed>0.022360679774997897</speed>
  <fix>3d</fix>
</trkpt>
<trkpt lat="40.0713749" lon="-105.229789">
  <ele>1583.0</ele>
  <time>2026-08-28T17:52:19Z</time>
  <course>0.0</course>
  <speed>0.0</speed>
  <fix>3d</fix>
</trkpt>
<trkpt lat="40.071375" lon="-105.229789">
  <ele>1583.0</ele>
  <time>2026-08-28T17:52:19Z</time>
  <course>247.18</course>
  <speed>0.022360679774997897</speed>
  <fix>3d</fix>
</trkpt>
<trkpt lat="40.0713749" lon="-105.229789">
  <ele>1583.0</ele>
  <time>2026-08-28T17:52:19Z</time>
  <course>0.0</course>
  <speed>0.0</speed>
  <fix>3d</fix>
</trkpt>
<trkpt lat="40.071375" lon="-105.229789">
  <ele>1582.99</ele>
  <time>2026-08-28T17:52:19Z</time>
  <course>247.18</course>
  <speed>0.022360679774997897</speed>
  <fix>3d</fix>
</trkpt>
<trkpt lat="40.0713749" lon="-105.229789">
  <ele>1583.0</ele>
  <time>2026-08-28T17:52:19Z</time>
  <course>0.0</course>
  <speed>0.0</speed>
  <fix>3d</fix>
</trkpt>
<trkpt lat="40.071375" lon="-105.229789">
  <ele>1582.98</ele>
  <time>2026-08-28T17:52:19Z</time>
  <course>247.18</course>
  <speed>0.022360679774997897</speed>
  <fix>3d</fix>
</trkpt>
<trkpt lat="40.0713749" lon="-105.229789">
  <ele>1583.0</ele>
  <time>2026-08-28T17:52:19Z</time>
  <course>0.0</course>
  <speed>0.0</speed>
  <fix>3d</fix>
</trkpt>
<trkpt lat="40.071375" lon="-105.229789">
  <ele>1582.98</ele>
  <time>2026-08-28T17:52:19Z</time>
  <course>247.18</course>
  <speed>0.022360679774997897</speed>
  <fix>3d</fix>
</trkpt>
<trkpt lat="40.0713749" lon="-105.229789">
  <ele>1583.0</ele>
  <time>2026-08-28T17:52:19Z</time>
  <course>0.0</course>
  <speed>0.0</speed>
  <fix>3d</fix>
</trkpt>
<trkpt lat="40.071375" lon="-105.2297889">
  <ele>1582.97</ele>
  <time>2026-08-28T17:52:19Z</time>
  <course>247.18</course>
  <speed>0.022360679774997897</speed>
  <fix>3d</fix>
</trkpt>
<trkpt lat="40.0713749" lon="-105.229789">
  <ele>1583.0</ele>
  <time>2026-08-28T17:52:19Z</time>
  <course>0.0</course>
  <speed>0.0</speed>
  <fix>3d</fix>
</trkpt>
<trkpt lat="40.071375" lon="-105.229789">
  <ele>1582.97</ele>
  <time>2026-08-28T17:52:19Z</time>
  <course>247.18</course>
  <speed>0.022360679774997897</speed>
  <fix>3d</fix>
</trkpt>
<trkpt lat="40.0713749" lon="-105.229789">
  <ele>1583.0</ele>
  <time>2026-08-28T17:52:19Z</time>
  <course>0.0</course>
  <speed>0.0</speed>
  <fix>3d</fix>
</trkpt>
<trkpt lat="40.071375" lon="-105.2297889">
  <ele>1582.96</ele>
  <time>2026-08-28T17:52:19Z</time>
  <course>247.18</course>
  <speed>0.022360679774997897</speed>
  <fix>3d</fix>
</trkpt>
<trkpt lat="40.0713749" lon="-105.229789">
  <ele>1583.0</ele>
  <time>2026-08-28T17:52:19Z</time>
  <course>0.0</course>
  <speed>0.0</speed>
  <fix>3d</fix>
</trkpt>
<trkpt lat="40.071375" lon="-105.2297889">
  <ele>1582.96</ele>
  <time>2026-08-28T17:52:19Z</time>
  <course>247.18</course>
  <speed>0.022360679774997897</speed>
  <fix>3d</fix>
</trkpt>
<trkpt lat="40.0713749" lon="-105.229789">
  <ele>1583.0</ele>
  <time>2026-08-28T17:52:19Z</time>
  <course>0.0</course>
  <speed>0.0</speed>
  <fix>3d</fix>
</trkpt>
<trkpt lat="40.071375" lon="-105.2297889">
  <ele>1582.96</ele>
  <time>2026-08-28T17:52:19Z</time>
  <course>247.18</course>
  <speed>0.022360679774997897</speed>
  <fix>3d</fix>
</trkpt>
<trkpt lat="40.0713749" lon="-105.229789">
  <ele>1583.0</ele>
  <time>2026-08-28T17:52:19Z</time>
  <course>0.0</course>
  <speed>0.0</speed>
  <fix>3d</fix>
</trkpt>
<trkpt lat="40.071375" lon="-105.2297889">
  <ele>1582.96</ele>
  <time>2026-08-28T17:52:19Z</time>
  <course>247.18</course>
  <speed>0.022360679774997897</speed>
  <fix>3d</fix>
</trkpt>
<trkpt lat="40.0713749" lon="-105.229789">
  <ele>1583.0</ele>
  <time>2026-08-28T17:52:19Z</time>
  <course>0.0</course>
  <speed>0.0</speed>
  <fix>3d</fix>
</trkpt>
<trkpt lat="40.071375" lon="-105.2297889">
  <ele>1582.96</ele>
  <time>2026-08-28T17:52:19Z</time>
  <course>247.18</course>
  <speed>0.022360679774997897</speed>
  <fix>3d</fix>
</trkpt>
<trkpt lat="40.0713749" lon="-105.229789">
  <ele>1583.0</ele>
  <time>2026-08-28T17:52:19Z</time>
  <course>0.0</course>
  <speed>0.0</speed>
  <fix>3d</fix>
</trkpt>
<trkpt lat="40.071375" lon="-105.2297889">
  <ele>1582.97</ele>
  <time>2026-08-28T17:52:19Z</time>
  <course>247.18</course>
  <speed>0.022360679774997897</speed>
  <fix>3d</fix>
</trkpt>
<trkpt lat="40.0713749" lon="-105.229789">
  <ele>1583.0</ele>
  <time>2026-08-28T17:52:19Z</time>
  <course>0.0</course>
  <speed>0.0</speed>
  <fix>3d</fix>
</trkpt>
<trkpt lat="40.071375" lon="-105.2297889">
  <ele>1582.97</ele>
  <time>2026-08-28T17:52:19Z</time>
  <course>247.18</course>
  <speed>0.022360679774997897</speed>
  <fix>3d</fix>
</trkpt>
<trkpt lat="40.0713749" lon="-105.229789">
  <ele>1583.0</ele>
  <time>2026-08-28T17:52:19Z</time>
  <course>0.0</course>
  <speed>0.0</speed>
  <fix>3d</fix>
</trkpt>
<trkpt lat="40.071375" lon="-105.2297889">
  <ele>1582.97</ele>
  <time>2026-08-28T17:52:19Z</time>
  <course>247.17</course>
  <speed>0.022360679774997897</speed>
  <fix>3d</fix>
</trkpt>
<trkpt lat="40.0713749" lon="-105.229789">
  <ele>1583.0</ele>
  <time>2026-08-28T17:52:19Z</time>
  <course>0.0</course>
  <speed>0.0</speed>
  <fix>3d</fix>
</trkpt>
<trkpt lat="40.071375" lon="-105.2297889">
  <ele>1582.98</ele>
  <time>2026-08-28T17:52:19Z</time>
  <course>247.17</course>
  <speed>0.022360679774997897</speed>
  <fix>3d</fix>
</trkpt>
<trkpt lat="40.0713749" lon="-105.229789">
  <ele>1583.0</ele>
  <time>2026-08-28T17:52:19Z</time>
  <course>0.0</course>
  <speed>0.0</speed>
  <fix>3d</fix>
</trkpt>
<trkpt lat="40.071375" lon="-105.2297889">
  <ele>1582.98</ele>
  <time>2026-08-28T17:52:19Z</time>
  <course>247.17</course>
  <speed>0.022360679774997897</speed>
  <fix>3d</fix>
</trkpt>
<trkpt lat="40.0713749" lon="-105.229789">
  <ele>1583.0</ele>
  <time>2026-08-28T17:52:19Z</time>
  <course>0.0</course>
  <speed>0.0</speed>
  <fix>3d</fix>
</trkpt>
<trkpt lat="40.071375" lon="-105.2297889">
  <ele>1582.99</ele>
  <time>2026-08-28T17:52:19Z</time>
  <course>247.17</course>
  <speed>0.022360679774997897</speed>
  <fix>3d</fix>
</trkpt>
<trkpt lat="40.0713749" lon="-105.229789">
  <ele>1583.0</ele>
  <time>2026-08-28T17:52:19Z</time>
  <course>0.0</course>
  <speed>0.0</speed>
  <fix>3d</fix>
</trkpt>
<trkpt lat="40.071375" lon="-105.2297889">
  <ele>1582.99</ele>
  <time>2026-08-28T17:52:19Z</time>
  <course>247.17</course>
  <speed>0.022360679774997897</speed>
  <fix>3d</fix>
</trkpt>
<trkpt lat="40.0713749" lon="-105.229789">
  <ele>1583.0</ele>
  <time>2026-08-28T17:52:19Z</time>
  <course>0.0</course>
  <speed>0.0</speed>
  <fix>3d</fix>
</trkpt>
<trkpt lat="40.071375" lon="-105.2297889">
  <ele>1583.0</ele>
  <time>2026-08-28T17:52:19Z</time>
  <course>247.17</course>
  <speed>0.022360679774997897</speed>
  <fix>3d</fix>
</trkpt>
<trkpt lat="40.0713749" lon="-105.229789">
  <ele>1583.0</ele>
  <time>2026-08-28T17:52:19Z</time>
  <course>0.0</course>
  <speed>0.0</speed>
  <fix>3d</fix>
</trkpt>
<trkpt lat="40.071375" lon="-105.2297889">
  <ele>1583.0</ele>
  <time>2026-08-28T17:52:19Z</time>
  <course>247.17</course>
  <speed>0.022360679774997897</speed>
  <fix>3d</fix>
</trkpt>
<trkpt lat="40.0713749" lon="-105.229789">
  <ele>1583.0</ele>
  <time>2026-08-28T17:52:19Z</time>
  <course>0.0</course>
  <speed>0.0</speed>
  <fix>3d</fix>
</trkpt>
<trkpt lat="40.071375" lon="-105.2297889">
  <ele>1583.0</ele>
  <time>2026-08-28T17:52:19Z</time>
  <course>247.17</course>
  <speed>0.022360679774997897</speed>
  <fix>3d</fix>
</trkpt>
<trkpt lat="40.0713749" lon="-105.229789">
  <ele>1583.0</ele>
  <time>2026-08-28T17:52:19Z</time>
  <course>0.0</course>
  <speed>0.0</speed>
  <fix>3d</fix>
</trkpt>
<trkpt lat="40.071375" lon="-105.2297889">
  <ele>1583.01</ele>
  <time>2026-08-28T17:52:19Z</time>
  <course>247.17</course>
  <speed>0.022360679774997897</speed>
  <fix>3d</fix>
</trkpt>
<trkpt lat="40.0713749" lon="-105.229789">
  <ele>1583.0</ele>
  <time>2026-08-28T17:52:19Z</time>
  <course>0.0</course>
  <speed>0.0</speed>
  <fix>3d</fix>
</trkpt>
<trkpt lat="40.071375" lon="-105.2297889">
  <ele>1583.01</ele>
  <time>2026-08-28T17:52:19Z</time>
  <course>247.17</course>
  <speed>0.022360679774997897</speed>
  <fix>3d</fix>
</trkpt>
<trkpt lat="40.0713749" lon="-105.229789">
  <ele>1583.0</ele>
  <time>2026-08-28T17:52:19Z</time>
  <course>0.0</course>
  <speed>0.0</speed>
  <fix>3d</fix>
</trkpt>
<trkpt lat="40.071375" lon="-105.2297889">
  <ele>1583.01</ele>
  <time>2026-08-28T17:52:19Z</time>
  <course>247.17</course>
  <speed>0.022360679774997897</speed>
  <fix>3d</fix>
</trkpt>
<trkpt lat="40.0713749" lon="-105.229789">
  <ele>1583.0</ele>
  <time>2026-08-28T17:52:19Z</time>
  <course>0.0</course>
  <speed>0.0</speed>
  <fix>3d</fix>
</trkpt>
<trkpt lat="40.071375" lon="-105.2297889">
  <ele>1583.01</ele>
  <time>2026-08-28T17:52:19Z</time>
  <course>247.17</course>
  <speed>0.022360679774997897</speed>
  <fix>3d</fix>
</trkpt>
<trkpt lat="40.0713749" lon="-105.229789">
  <ele>1583.0</ele>
  <time>2026-08-28T17:52:19Z</time>
  <course>0.0</course>
  <speed>0.0</speed>
  <fix>3d</fix>
</trkpt>
<trkpt lat="40.071375" lon="-105.2297889">
  <ele>1583.02</ele>
  <time>2026-08-28T17:52:19Z</time>
  <course>247.17</course>
  <speed>0.022360679774997897</speed>
  <fix>3d</fix>
</trkpt>
<trkpt lat="40.0713749" lon="-105.229789">
  <ele>1583.0</ele>
  <time>2026-08-28T17:52:19Z</time>
  <course>0.0</course>
  <speed>0.0</speed>
  <fix>3d</fix>
</trkpt>
<trkpt lat="40.071375" lon="-105.2297889">
  <ele>1583.02</ele>
  <time>2026-08-28T17:52:19Z</time>
  <course>247.17</course>
  <speed>0.022360679774997897</speed>
  <fix>3d</fix>
</trkpt>
<trkpt lat="40.0713749" lon="-105.229789">
  <ele>1583.0</ele>
  <time>2026-08-28T17:52:19Z</time>
  <course>0.0</course>
  <speed>0.0</speed>
  <fix>3d</fix>
</trkpt>
<trkpt lat="40.071375" lon="-105.2297889">
  <ele>1583.03</ele>
  <time>2026-08-28T17:52:19Z</time>
  <course>247.17</course>
  <speed>0.022360679774997897</speed>
  <fix>3d</fix>
</trkpt>
<trkpt lat="40.0713749" lon="-105.229789">
  <ele>1583.0</ele>
  <time>2026-08-28T17:52:19Z</time>
  <course>0.0</course>
  <speed>0.0</speed>
  <fix>3d</fix>
</trkpt>
<trkpt lat="40.071375" lon="-105.2297889">
  <ele>1583.03</ele>
  <time>2026-08-28T17:52:19Z</time>
  <course>247.17</course>
  <speed>0.022360679774997897</speed>
  <fix>3d</fix>
</trkpt>
<trkpt lat="40.0713749" lon="-105.229789">
  <ele>1583.0</ele>
  <time>2026-08-28T17:52:19Z</time>
  <course>0.0</course>
  <speed>0.0</speed>
  <fix>3d</fix>
</trkpt>
<trkpt lat="40.071375" lon="-105.2297889">
  <ele>1583.02</ele>
  <time>2026-08-28T17:52:19Z</time>
  <course>247.17</course>
  <speed>0.022360679774997897</speed>
  <fix>3d</fix>
</trkpt>
<trkpt lat="40.0713749" lon="-105.229789">
  <ele>1583.0</ele>
  <time>2026-08-28T17:52:19Z</time>
  <course>0.0</course>
  <speed>0.0</speed>
  <fix>3d</fix>
</trkpt>
<trkpt lat="40.071375" lon="-105.2297889">
  <ele>1583.02</ele>
  <time>2026-08-28T17:52:19Z</time>
  <course>247.17</course>
  <speed>0.022360679774997897</speed>
  <fix>3d</fix>
</trkpt>
<trkpt lat="40.0713749" lon="-105.229789">
  <ele>1583.0</ele>
  <time>2026-08-28T17:52:19Z</time>
  <course>0.0</course>
  <speed>0.0</speed>
  <fix>3d</fix>
</trkpt>
<trkpt lat="40.071375" lon="-105.2297889">
  <ele>1583.02</ele>
  <time>2026-08-28T17:52:19Z</time>
  <course>247.16</course>
  <speed>0.022360679774997897</speed>
  <fix>3d</fix>
</trkpt>
<trkpt lat="40.0713749" lon="-105.229789">
  <ele>1583.0</ele>
  <time>2026-08-28T17:52:19Z</time>
  <course>0.0</course>
  <speed>0.0</speed>
  <fix>3d</fix>
</trkpt>
<trkpt lat="40.0713751" lon="-105.2297889">
  <ele>1583.02</ele>
  <time>2026-08-28T17:52:19Z</time>
  <course>247.16</course>
  <speed>0.022360679774997897</speed>
  <fix>3d</fix>
</trkpt>
<trkpt lat="40.0713749" lon="-105.229789">
  <ele>1583.0</ele>
  <time>2026-08-28T17:52:19Z</time>
  <course>0.0</course>
  <speed>0.0</speed>
  <fix>3d</fix>
</trkpt>
<trkpt lat="40.071375" lon="-105.2297889">
  <ele>1583.02</ele>
  <time>2026-08-28T17:52:19Z</time>
  <course>247.16</course>
  <speed>0.022360679774997897</speed>
  <fix>3d</fix>
</trkpt>
<trkpt lat="40.0713749" lon="-105.229789">
  <ele>1583.0</ele>
  <time>2026-08-28T17:52:19Z</time>
  <course>0.0</course>
  <speed>0.0</speed>
  <fix>3d</fix>
</trkpt>
<trkpt lat="40.0713751" lon="-105.2297889">
  <ele>1583.02</ele>
  <time>2026-08-28T17:52:19Z</time>
  <course>247.16</course>
  <speed>0.022360679774997897</speed>
  <fix>3d</fix>
</trkpt>
<trkpt lat="40.0713749" lon="-105.229789">
  <ele>1583.0</ele>
  <time>2026-08-28T17:52:19Z</time>
  <course>0.0</course>
  <speed>0.0</speed>
  <fix>3d</fix>
</trkpt>
<trkpt lat="40.071375" lon="-105.2297889">
  <ele>1583.02</ele>
  <time>2026-08-28T17:52:19Z</time>
  <course>247.16</course>
  <speed>0.022360679774997897</speed>
  <fix>3d</fix>
</trkpt>
<trkpt lat="40.0713749" lon="-105.229789">
  <ele>1583.0</ele>
  <time>2026-08-28T17:52:19Z</time>
  <course>0.0</course>
  <speed>0.0</speed>
  <fix>3d</fix>
</trkpt>
<trkpt lat="40.071375" lon="-105.2297889">
  <ele>1583.02</ele>
  <time>2026-08-28T17:52:19Z</time>
  <course>247.16</course>
  <speed>0.022360679774997897</speed>
  <fix>3d</fix>
</trkpt>
<trkpt lat="40.0713749" lon="-105.229789">
  <ele>1583.0</ele>
  <time>2026-08-28T17:52:19Z</time>
  <course>0.0</course>
  <speed>0.0</speed>
  <fix>3d</fix>
</trkpt>
<trkpt lat="40.071375" lon="-105.2297889">
  <ele>1583.02</ele>
  <time>2026-08-28T17:52:19Z</time>
  <course>247.16</course>
  <speed>0.022360679774997897</speed>
  <fix>3d</fix>
</trkpt>
<trkpt lat="40.0713749" lon="-105.229789">
  <ele>1583.0</ele>
  <time>2026-08-28T17:52:19Z</time>
  <course>0.0</course>
  <speed>0.0</speed>
  <fix>3d</fix>
</trkpt>
<trkpt lat="40.071375" lon="-105.2297889">
  <ele>1583.01</ele>
  <time>2026-08-28T17:52:19Z</time>
  <course>247.16</course>
  <speed>0.022360679774997897</speed>
  <fix>3d</fix>
</trkpt>
<trkpt lat="40.0713749" lon="-105.229789">
  <ele>1583.0</ele>
  <time>2026-08-28T17:52:19Z</time>
  <course>0.0</course>
  <speed>0.0</speed>
  <fix>3d</fix>
</trkpt>
<trkpt lat="40.071375" lon="-105.2297889">
  <ele>1583.01</ele>
  <time>2026-08-28T17:52:19Z</time>
  <course>247.16</course>
  <speed>0.022360679774997897</speed>
  <fix>3d</fix>
</trkpt>
<trkpt lat="40.0713749" lon="-105.229789">
  <ele>1583.0</ele>
  <time>2026-08-28T17:52:19Z</time>
  <course>0.0</course>
  <speed>0.0</speed>
  <fix>3d</fix>
</trkpt>
<trkpt lat="40.0713751" lon="-105.2297889">
  <ele>1583.01</ele>
  <time>2026-08-28T17:52:19Z</time>
  <course>247.16</course>
  <speed>0.022360679774997897</speed>
  <fix>3d</fix>
</trkpt>
<trkpt lat="40.0713749" lon="-105.229789">
  <ele>1583.0</ele>
  <time>2026-08-28T17:52:19Z</time>
  <course>0.0</course>
  <speed>0.0</speed>
  <fix>3d</fix>
</trkpt>
<trkpt lat="40.071375" lon="-105.2297889">
  <ele>1583.01</ele>
  <time>2026-08-28T17:52:19Z</time>
  <course>247.16</course>
  <speed>0.022360679774997897</speed>
  <fix>3d</fix>
</trkpt>
<trkpt lat="40.0713749" lon="-105.229789">
  <ele>1583.0</ele>
  <time>2026-08-28T17:52:19Z</time>
  <course>0.0</course>
  <speed>0.0</speed>
  <fix>3d</fix>
</trkpt>
<trkpt lat="40.0713751" lon="-105.2297889">
  <ele>1583.01</ele>
  <time>2026-08-28T17:52:19Z</time>
  <course>247.16</course>
  <speed>0.022360679774997897</speed>
  <fix>3d</fix>
</trkpt>
<trkpt lat="40.0713749" lon="-105.229789">
  <ele>1583.0</ele>
  <time>2026-08-28T17:52:19Z</time>
  <course>0.0</course>
  <speed>0.0</speed>
  <fix>3d</fix>
</trkpt>
<trkpt lat="40.071375" lon="-105.2297889">
  <ele>1583.02</ele>
  <time>2026-08-28T17:52:19Z</time>
  <course>247.16</course>
  <speed>0.022360679774997897</speed>
  <fix>3d</fix>
</trkpt>
<trkpt lat="40.0713749" lon="-105.229789">
  <ele>1583.0</ele>
  <time>2026-08-28T17:52:19Z</time>
  <course>0.0</course>
  <speed>0.0</speed>
  <fix>3d</fix>
</trkpt>
<trkpt lat="40.0713751" lon="-105.2297889">
  <ele>1583.02</ele>
  <time>2026-08-28T17:52:19Z</time>
  <course>247.16</course>
  <speed>0.022360679774997897</speed>
  <fix>3d</fix>
</trkpt>
<trkpt lat="40.0713749" lon="-105.229789">
  <ele>1583.0</ele>
  <time>2026-08-28T17:52:19Z</time>
  <course>0.0</course>
  <speed>0.0</speed>
  <fix>3d</fix>
</trkpt>
<trkpt lat="40.0713751" lon="-105.2297889">
  <ele>1583.02</ele>
  <time>2026-08-28T17:52:19Z</time>
  <course>247.16</course>
  <speed>0.022360679774997897</speed>
  <fix>3d</fix>
</trkpt>
<trkpt lat="40.0713749" lon="-105.229789">
  <ele>1583.0</ele>
  <time>2026-08-28T17:52:19Z</time>
  <course>0.0</course>
  <speed>0.0</speed>
  <fix>3d</fix>
</trkpt>
<trkpt lat="40.0713751" lon="-105.2297889">
  <ele>1583.02</ele>
  <time>2026-08-28T17:52:19Z</time>
  <course>247.16</course>
  <speed>0.022360679774997897</speed>
  <fix>3d</fix>
</trkpt>
<trkpt lat="40.0713749" lon="-105.229789">
  <ele>1583.0</ele>
  <time>2026-08-28T17:52:19Z</time>
  <course>0.0</course>
  <speed>0.0</speed>
  <fix>3d</fix>
</trkpt>
<trkpt lat="40.0713751" lon="-105.2297889">
  <ele>1583.03</ele>
  <time>2026-08-28T17:52:19Z</time>
  <course>247.16</course>
  <speed>0.022360679774997897</speed>
  <fix>3d</fix>
</trkpt>
<trkpt lat="40.0713749" lon="-105.229789">
  <ele>1583.0</ele>
  <time>2026-08-28T17:52:19Z</time>
  <course>0.0</course>
  <speed>0.0</speed>
  <fix>3d</fix>
</trkpt>
<trkpt lat="40.0713751" lon="-105.2297889">
  <ele>1583.03</ele>
  <time>2026-08-28T17:52:19Z</time>
  <course>247.16</course>
  <speed>0.022360679774997897</speed>
  <fix>3d</fix>
</trkpt>
<trkpt lat="40.0713749" lon="-105.229789">
  <ele>1583.0</ele>
  <time>2026-08-28T17:52:19Z</time>
  <course>0.0</course>
  <speed>0.0</speed>
  <fix>3d</fix>
</trkpt>
<trkpt lat="40.0713751" lon="-105.2297889">
  <ele>1583.03</ele>
  <time>2026-08-28T17:52:19Z</time>
  <course>247.16</course>
  <speed>0.022360679774997897</speed>
  <fix>3d</fix>
</trkpt>
<trkpt lat="40.0713749" lon="-105.229789">
  <ele>1583.0</ele>
  <time>2026-08-28T17:52:19Z</time>
  <course>0.0</course>
  <speed>0.0</speed>
  <fix>3d</fix>
</trkpt>
<trkpt lat="40.0713751" lon="-105.2297889">
  <ele>1583.03</ele>
  <time>2026-08-28T17:52:19Z</time>
  <course>247.16</course>
  <speed>0.022360679774997897</speed>
  <fix>3d</fix>
</trkpt>
<trkpt lat="40.0713749" lon="-105.229789">
  <ele>1583.0</ele>
  <time>2026-08-28T17:52:19Z</time>
  <course>0.0</course>
  <speed>0.0</speed>
  <fix>3d</fix>
</trkpt>
<trkpt lat="40.0713751" lon="-105.2297889">
  <ele>1583.03</ele>
  <time>2026-08-28T17:52:19Z</time>
  <course>247.16</course>
  <speed>0.022360679774997897</speed>
  <fix>3d</fix>
</trkpt>
<trkpt lat="40.0713749" lon="-105.229789">
  <ele>1583.0</ele>
  <time>2026-08-28T17:52:19Z</time>
  <course>0.0</course>
  <speed>0.0</speed>
  <fix>3d</fix>
</trkpt>
<trkpt lat="40.0713751" lon="-105.2297889">
  <ele>1583.03</ele>
  <time>2026-08-28T17:52:19Z</time>
  <course>247.16</course>
  <speed>0.022360679774997897</speed>
  <fix>3d</fix>
</trkpt>
<trkpt lat="40.0713749" lon="-105.229789">
  <ele>1583.0</ele>
  <time>2026-08-28T17:52:19Z</time>
  <course>0.0</course>
  <speed>0.0</speed>
  <fix>3d</fix>
</trkpt>
<trkpt lat="40.0713751" lon="-105.2297889">
  <ele>1583.03</ele>
  <time>2026-08-28T17:52:19Z</time>
  <course>247.16</course>
  <speed>0.022360679774997897</speed>
  <fix>3d</fix>
</trkpt>
<trkpt lat="40.0713749" lon="-105.229789">
  <ele>1583.0</ele>
  <time>2026-08-28T17:52:19Z</time>
  <course>0.0</course>
  <speed>0.0</speed>
  <fix>3d</fix>
</trkpt>
<trkpt lat="40.0713751" lon="-105.2297889">
  <ele>1583.03</ele>
  <time>2026-08-28T17:52:19Z</time>
  <course>247.16</course>
  <speed>0.022360679774997897</speed>
  <fix>3d</fix>
</trkpt>
<trkpt lat="40.0713749" lon="-105.229789">
  <ele>1583.0</ele>
  <time>2026-08-28T17:52:19Z</time>
  <course>0.0</course>
  <speed>0.0</speed>
  <fix>3d</fix>
</trkpt>
<trkpt lat="40.0713751" lon="-105.2297889">
  <ele>1583.02</ele>
  <time>2026-08-28T17:52:19Z</time>
  <course>247.16</course>
  <speed>0.022360679774997897</speed>
  <fix>3d</fix>
</trkpt>
<trkpt lat="40.0713749" lon="-105.229789">
  <ele>1583.0</ele>
  <time>2026-08-28T17:52:19Z</time>
  <course>0.0</course>
  <speed>0.0</speed>
  <fix>3d</fix>
</trkpt>
<trkpt lat="40.0713751" lon="-105.2297889">
  <ele>1583.02</ele>
  <time>2026-08-28T17:52:19Z</time>
  <course>247.15</course>
  <speed>0.022360679774997897</speed>
  <fix>3d</fix>
</trkpt>
<trkpt lat="40.0713749" lon="-105.229789">
  <ele>1583.0</ele>
  <time>2026-08-28T17:52:19Z</time>
  <course>0.0</course>
  <speed>0.0</speed>
  <fix>3d</fix>
</trkpt>
<trkpt lat="40.0713751" lon="-105.2297889">
  <ele>1583.02</ele>
  <time>2026-08-28T17:52:19Z</time>
  <course>247.15</course>
  <speed>0.022360679774997897</speed>
  <fix>3d</fix>
</trkpt>
<trkpt lat="40.0713749" lon="-105.229789">
  <ele>1583.0</ele>
  <time>2026-08-28T17:52:19Z</time>
  <course>0.0</course>
  <speed>0.0</speed>
  <fix>3d</fix>
</trkpt>
<trkpt lat="40.0713751" lon="-105.2297889">
  <ele>1583.02</ele>
  <time>2026-08-28T17:52:19Z</time>
  <course>247.15</course>
  <speed>0.022360679774997897</speed>
  <fix>3d</fix>
</trkpt>
<trkpt lat="40.0713749" lon="-105.229789">
  <ele>1583.0</ele>
  <time>2026-08-28T17:52:19Z</time>
  <course>0.0</course>
  <speed>0.0</speed>
  <fix>3d</fix>
</trkpt>
<trkpt lat="40.0713751" lon="-105.2297889">
  <ele>1583.02</ele>
  <time>2026-08-28T17:52:19Z</time>
  <course>247.15</course>
  <speed>0.022360679774997897</speed>
  <fix>3d</fix>
</trkpt>
<trkpt lat="40.0713749" lon="-105.229789">
  <ele>1583.0</ele>
  <time>2026-08-28T17:52:19Z</time>
  <course>0.0</course>
  <speed>0.0</speed>
  <fix>3d</fix>
</trkpt>
<trkpt lat="40.0713751" lon="-105.2297889">
  <ele>1583.02</ele>
  <time>2026-08-28T17:52:19Z</time>
  <course>247.15</course>
  <speed>0.022360679774997897</speed>
  <fix>3d</fix>
</trkpt>
<trkpt lat="40.0713749" lon="-105.229789">
  <ele>1583.0</ele>
  <time>2026-08-28T17:52:19Z</time>
  <course>0.0</course>
  <speed>0.0</speed>
  <fix>3d</fix>
</trkpt>
<trkpt lat="40.0713751" lon="-105.2297889">
  <ele>1583.02</ele>
  <time>2026-08-28T17:52:19Z</time>
  <course>247.15</course>
  <speed>0.022360679774997897</speed>
  <fix>3d</fix>
</trkpt>
<trkpt lat="40.0713749" lon="-105.229789">
  <ele>1583.0</ele>
  <time>2026-08-28T17:52:19Z</time>
  <course>0.0</course>
  <speed>0.0</speed>
  <fix>3d</fix>
</trkpt>
<trkpt lat="40.0713751" lon="-105.2297889">
  <ele>1583.02</ele>
  <time>2026-08-28T17:52:19Z</time>
  <course>247.15</course>
  <speed>0.022360679774997897</speed>
  <fix>3d</fix>
</trkpt>
<trkpt lat="40.0713749" lon="-105.229789">
  <ele>1583.0</ele>
  <time>2026-08-28T17:52:19Z</time>
  <course>0.0</course>
  <speed>0.0</speed>
  <fix>3d</fix>
</trkpt>
<trkpt lat="40.0713751" lon="-105.2297889">
  <ele>1583.02</ele>
  <time>2026-08-28T17:52:19Z</time>
  <course>247.15</course>
  <speed>0.022360679774997897</speed>
  <fix>3d</fix>
</trkpt>
<trkpt lat="40.0713749" lon="-105.229789">
  <ele>1583.0</ele>
  <time>2026-08-28T17:52:19Z</time>
  <course>0.0</course>
  <speed>0.0</speed>
  <fix>3d</fix>
</trkpt>
<trkpt lat="40.0713751" lon="-105.2297889">
  <ele>1583.02</ele>
  <time>2026-08-28T17:52:19Z</time>
  <course>247.15</course>
  <speed>0.022360679774997897</speed>
  <fix>3d</fix>
</trkpt>
<trkpt lat="40.0713749" lon="-105.229789">
  <ele>1583.0</ele>
  <time>2026-08-28T17:52:19Z</time>
  <course>0.0</course>
  <speed>0.0</speed>
  <fix>3d</fix>
</trkpt>
<trkpt lat="40.0713751" lon="-105.2297889">
  <ele>1583.02</ele>
  <time>2026-08-28T17:52:19Z</time>
  <course>247.15</course>
  <speed>0.022360679774997897</speed>
  <fix>3d</fix>
</trkpt>
<trkpt lat="40.0713749" lon="-105.229789">
  <ele>1583.0</ele>
  <time>2026-08-28T17:52:19Z</time>
  <course>0.0</course>
  <speed>0.0</speed>
  <fix>3d</fix>
</trkpt>
<trkpt lat="40.0713751" lon="-105.2297889">
  <ele>1583.03</ele>
  <time>2026-08-28T17:52:19Z</time>
  <course>247.15</course>
  <speed>0.022360679774997897</speed>
  <fix>3d</fix>
</trkpt>
<trkpt lat="40.0713749" lon="-105.229789">
  <ele>1583.0</ele>
  <time>2026-08-28T17:52:19Z</time>
  <course>0.0</course>
  <speed>0.0</speed>
  <fix>3d</fix>
</trkpt>
<trkpt lat="40.0713751" lon="-105.2297889">
  <ele>1583.03</ele>
  <time>2026-08-28T17:52:19Z</time>
  <course>247.15</course>
  <speed>0.022360679774997897</speed>
  <fix>3d</fix>
</trkpt>
<trkpt lat="40.0713749" lon="-105.229789">
  <ele>1583.0</ele>
  <time>2026-08-28T17:52:19Z</time>
  <course>0.0</course>
  <speed>0.0</speed>
  <fix>3d</fix>
</trkpt>
<trkpt lat="40.0713751" lon="-105.2297889">
  <ele>1583.03</ele>
  <time>2026-08-28T17:52:19Z</time>
  <course>247.15</course>
  <speed>0.022360679774997897</speed>
  <fix>3d</fix>
</trkpt>
<trkpt lat="40.0713749" lon="-105.229789">
  <ele>1583.0</ele>
  <time>2026-08-28T17:52:19Z</time>
  <course>0.0</course>
  <speed>0.0</speed>
  <fix>3d</fix>
</trkpt>
<trkpt lat="40.0713751" lon="-105.2297889">
  <ele>1583.03</ele>
  <time>2026-08-28T17:52:19Z</time>
  <course>247.15</course>
  <speed>0.022360679774997897</speed>
  <fix>3d</fix>
</trkpt>
<trkpt lat="40.0713749" lon="-105.229789">
  <ele>1583.0</ele>
  <time>2026-08-28T17:52:19Z</time>
  <course>0.0</course>
  <speed>0.0</speed>
  <fix>3d</fix>
</trkpt>
<trkpt lat="40.0713751" lon="-105.2297889">
  <ele>1583.02</ele>
  <time>2026-08-28T17:52:19Z</time>
  <course>247.15</course>
  <speed>0.022360679774997897</speed>
  <fix>3d</fix>
</trkpt>
<trkpt lat="40.0713749" lon="-105.229789">
  <ele>1583.0</ele>
  <time>2026-08-28T17:52:19Z</time>
  <course>0.0</course>
  <speed>0.0</speed>
  <fix>3d</fix>
</trkpt>
<trkpt lat="40.0713751" lon="-105.2297889">
  <ele>1583.02</ele>
  <time>2026-08-28T17:52:19Z</time>
  <course>247.15</course>
  <speed>0.022360679774997897</speed>
  <fix>3d</fix>
</trkpt>
<trkpt lat="40.0713749" lon="-105.229789">
  <ele>1583.0</ele>
  <time>2026-08-28T17:52:19Z</time>
  <course>0.0</course>
  <speed>0.0</speed>
  <fix>3d</fix>
</trkpt>
<trkpt lat="40.0713751" lon="-105.2297889">
  <ele>1583.01</ele>
  <time>2026-08-28T17:52:19Z</time>
  <course>247.15</course>
  <speed>0.022360679774997897</speed>
  <fix>3d</fix>
</trkpt>
<trkpt lat="40.0713749" lon="-105.229789">
  <ele>1583.0</ele>
  <time>2026-08-28T17:52:19Z</time>
  <course>0.0</course>
  <speed>0.0</speed>
  <fix>3d</fix>
</trkpt>
<trkpt lat="40.0713751" lon="-105.2297889">
  <ele>1583.0</ele>
  <time>2026-08-28T17:52:19Z</time>
  <course>247.15</course>
  <speed>0.022360679774997897</speed>
  <fix>3d</fix>
</trkpt>
<trkpt lat="40.0713749" lon="-105.229789">
  <ele>1583.0</ele>
  <time>2026-08-28T17:52:19Z</time>
  <course>0.0</course>
  <speed>0.0</speed>
  <fix>3d</fix>
</trkpt>
<trkpt lat="40.0713751" lon="-105.2297889">
  <ele>1582.99</ele>
  <time>2026-08-28T17:52:19Z</time>
  <course>247.15</course>
  <speed>0.022360679774997897</speed>
  <fix>3d</fix>
</trkpt>
<trkpt lat="40.0713749" lon="-105.229789">
  <ele>1583.0</ele>
  <time>2026-08-28T17:52:19Z</time>
  <course>0.0</course>
  <speed>0.0</speed>
  <fix>3d</fix>
</trkpt>
<trkpt lat="40.0713751" lon="-105.2297889">
  <ele>1582.99</ele>
  <time>2026-08-28T17:52:19Z</time>
  <course>247.15</course>
  <speed>0.022360679774997897</speed>
  <fix>3d</fix>
</trkpt>
<trkpt lat="40.0713749" lon="-105.229789">
  <ele>1583.0</ele>
  <time>2026-08-28T17:52:19Z</time>
  <course>0.0</course>
  <speed>0.0</speed>
  <fix>3d</fix>
</trkpt>
<trkpt lat="40.0713751" lon="-105.2297889">
  <ele>1582.98</ele>
  <time>2026-08-28T17:52:19Z</time>
  <course>247.15</course>
  <speed>0.022360679774997897</speed>
  <fix>3d</fix>
</trkpt>
<trkpt lat="40.0713749" lon="-105.229789">
  <ele>1583.0</ele>
  <time>2026-08-28T17:52:19Z</time>
  <course>0.0</course>
  <speed>0.0</speed>
  <fix>3d</fix>
</trkpt>
<trkpt lat="40.0713751" lon="-105.2297889">
  <ele>1582.98</ele>
  <time>2026-08-28T17:52:19Z</time>
  <course>247.14</course>
  <speed>0.022360679774997897</speed>
  <fix>3d</fix>
</trkpt>
<trkpt lat="40.0713749" lon="-105.229789">
  <ele>1583.0</ele>
  <time>2026-08-28T17:52:19Z</time>
  <course>0.0</course>
  <speed>0.0</speed>
  <fix>3d</fix>
</trkpt>
<trkpt lat="40.0713751" lon="-105.2297889">
  <ele>1582.98</ele>
  <time>2026-08-28T17:52:19Z</time>
  <course>247.14</course>
  <speed>0.022360679774997897</speed>
  <fix>3d</fix>
</trkpt>
<trkpt lat="40.0713749" lon="-105.229789">
  <ele>1583.0</ele>
  <time>2026-08-28T17:52:19Z</time>
  <course>0.0</course>
  <speed>0.0</speed>
  <fix>3d</fix>
</trkpt>
<trkpt lat="40.0713751" lon="-105.2297889">
  <ele>1582.97</ele>
  <time>2026-08-28T17:52:19Z</time>
  <course>247.14</course>
  <speed>0.022360679774997897</speed>
  <fix>3d</fix>
</trkpt>
<trkpt lat="40.0713749" lon="-105.229789">
  <ele>1583.0</ele>
  <time>2026-08-28T17:52:19Z</time>
  <course>0.0</course>
  <speed>0.0</speed>
  <fix>3d</fix>
</trkpt>
<trkpt lat="40.0713751" lon="-105.2297889">
  <ele>1582.96</ele>
  <time>2026-08-28T17:52:19Z</time>
  <course>247.14</course>
  <speed>0.022360679774997897</speed>
  <fix>3d</fix>
</trkpt>
<trkpt lat="40.0713749" lon="-105.229789">
  <ele>1583.0</ele>
  <time>2026-08-28T17:52:19Z</time>
  <course>0.0</course>
  <speed>0.0</speed>
  <fix>3d</fix>
</trkpt>
<trkpt lat="40.0713751" lon="-105.2297889">
  <ele>1582.96</ele>
  <time>2026-08-28T17:52:19Z</time>
  <course>247.14</course>
  <speed>0.022360679774997897</speed>
  <fix>3d</fix>
</trkpt>
<trkpt lat="40.0713749" lon="-105.229789">
  <ele>1583.0</ele>
  <time>2026-08-28T17:52:19Z</time>
  <course>0.0</course>
  <speed>0.0</speed>
  <fix>3d</fix>
</trkpt>
<trkpt lat="40.0713751" lon="-105.2297889">
  <ele>1582.95</ele>
  <time>2026-08-28T17:52:19Z</time>
  <course>247.14</course>
  <speed>0.022360679774997897</speed>
  <fix>3d</fix>
</trkpt>
<trkpt lat="40.0713749" lon="-105.229789">
  <ele>1583.0</ele>
  <time>2026-08-28T17:52:19Z</time>
  <course>0.0</course>
  <speed>0.0</speed>
  <fix>3d</fix>
</trkpt>
<trkpt lat="40.0713751" lon="-105.2297889">
  <ele>1582.95</ele>
  <time>2026-08-28T17:52:19Z</time>
  <course>247.14</course>
  <speed>0.022360679774997897</speed>
  <fix>3d</fix>
</trkpt>
<trkpt lat="40.0713749" lon="-105.229789">
  <ele>1583.0</ele>
  <time>2026-08-28T17:52:19Z</time>
  <course>0.0</course>
  <speed>0.0</speed>
  <fix>3d</fix>
</trkpt>
<trkpt lat="40.0713751" lon="-105.2297889">
  <ele>1582.95</ele>
  <time>2026-08-28T17:52:19Z</time>
  <course>247.14</course>
  <speed>0.022360679774997897</speed>
  <fix>3d</fix>
</trkpt>
<trkpt lat="40.0713749" lon="-105.229789">
  <ele>1583.0</ele>
  <time>2026-08-28T17:52:19Z</time>
  <course>0.0</course>
  <speed>0.0</speed>
  <fix>3d</fix>
</trkpt>
<trkpt lat="40.0713751" lon="-105.2297889">
  <ele>1582.95</ele>
  <time>2026-08-28T17:52:19Z</time>
  <course>247.14</course>
  <speed>0.022360679774997897</speed>
  <fix>3d</fix>
</trkpt>
<trkpt lat="40.0713749" lon="-105.229789">
  <ele>1583.0</ele>
  <time>2026-08-28T17:52:19Z</time>
  <course>0.0</course>
  <speed>0.0</speed>
  <fix>3d</fix>
</trkpt>
<trkpt lat="40.0713751" lon="-105.2297889">
  <ele>1582.95</ele>
  <time>2026-08-28T17:52:19Z</time>
  <course>247.14</course>
  <speed>0.022360679774997897</speed>
  <fix>3d</fix>
</trkpt>
<trkpt lat="40.0713749" lon="-105.229789">
  <ele>1583.0</ele>
  <time>2026-08-28T17:52:19Z</time>
  <course>0.0</course>
  <speed>0.0</speed>
  <fix>3d</fix>
</trkpt>
<trkpt lat="40.0713751" lon="-105.2297889">
  <ele>1582.95</ele>
  <time>2026-08-28T17:52:19Z</time>
  <course>247.14</course>
  <speed>0.022360679774997897</speed>
  <fix>3d</fix>
</trkpt>
<trkpt lat="40.0713749" lon="-105.229789">
  <ele>1583.0</ele>
  <time>2026-08-28T17:52:19Z</time>
  <course>0.0</course>
  <speed>0.0</speed>
  <fix>3d</fix>
</trkpt>
<trkpt lat="40.0713751" lon="-105.2297889">
  <ele>1582.96</ele>
  <time>2026-08-28T17:52:19Z</time>
  <course>247.14</course>
  <speed>0.022360679774997897</speed>
  <fix>3d</fix>
</trkpt>
<trkpt lat="40.0713749" lon="-105.229789">
  <ele>1583.0</ele>
  <time>2026-08-28T17:52:19Z</time>
  <course>0.0</course>
  <speed>0.0</speed>
  <fix>3d</fix>
</trkpt>
<trkpt lat="40.0713751" lon="-105.2297889">
  <ele>1582.96</ele>
  <time>2026-08-28T17:52:19Z</time>
  <course>247.14</course>
  <speed>0.022360679774997897</speed>
  <fix>3d</fix>
</trkpt>
<trkpt lat="40.0713749" lon="-105.229789">
  <ele>1583.0</ele>
  <time>2026-08-28T17:52:19Z</time>
  <course>0.0</course>
  <speed>0.0</speed>
  <fix>3d</fix>
</trkpt>
<trkpt lat="40.0713751" lon="-105.2297889">
  <ele>1582.97</ele>
  <time>2026-08-28T17:52:19Z</time>
  <course>247.14</course>
  <speed>0.022360679774997897</speed>
  <fix>3d</fix>
</trkpt>
<trkpt lat="40.0713749" lon="-105.229789">
  <ele>1583.0</ele>
  <time>2026-08-28T17:52:19Z</time>
  <course>0.0</course>
  <speed>0.0</speed>
  <fix>3d</fix>
</trkpt>
<trkpt lat="40.0713751" lon="-105.2297889">
  <ele>1582.97</ele>
  <time>2026-08-28T17:52:19Z</time>
  <course>247.14</course>
  <speed>0.022360679774997897</speed>
  <fix>3d</fix>
</trkpt>
<trkpt lat="40.0713749" lon="-105.229789">
  <ele>1583.0</ele>
  <time>2026-08-28T17:52:19Z</time>
  <course>0.0</course>
  <speed>0.0</speed>
  <fix>3d</fix>
</trkpt>
<trkpt lat="40.0713751" lon="-105.2297889">
  <ele>1582.98</ele>
  <time>2026-08-28T17:52:19Z</time>
  <course>247.14</course>
  <speed>0.022360679774997897</speed>
  <fix>3d</fix>
</trkpt>
<trkpt lat="40.0713749" lon="-105.229789">
  <ele>1583.0</ele>
  <time>2026-08-28T17:52:19Z</time>
  <course>0.0</course>
  <speed>0.0</speed>
  <fix>3d</fix>
</trkpt>
<trkpt lat="40.0713751" lon="-105.2297889">
  <ele>1582.99</ele>
  <time>2026-08-28T17:52:19Z</time>
  <course>247.14</course>
  <speed>0.022360679774997897</speed>
  <fix>3d</fix>
</trkpt>
<trkpt lat="40.0713749" lon="-105.229789">
  <ele>1583.0</ele>
  <time>2026-08-28T17:52:19Z</time>
  <course>0.0</course>
  <speed>0.0</speed>
  <fix>3d</fix>
</trkpt>
<trkpt lat="40.0713751" lon="-105.2297889">
  <ele>1582.99</ele>
  <time>2026-08-28T17:52:19Z</time>
  <course>247.14</course>
  <speed>0.022360679774997897</speed>
  <fix>3d</fix>
</trkpt>
<trkpt lat="40.0713749" lon="-105.229789">
  <ele>1583.0</ele>
  <time>2026-08-28T17:52:19Z</time>
  <course>0.0</course>
  <speed>0.0</speed>
  <fix>3d</fix>
</trkpt>
<trkpt lat="40.0713751" lon="-105.2297889">
  <ele>1583.0</ele>
  <time>2026-08-28T17:52:19Z</time>
  <course>247.14</course>
  <speed>0.022360679774997897</speed>
  <fix>3d</fix>
</trkpt>
<trkpt lat="40.0713749" lon="-105.229789">
  <ele>1583.0</ele>
  <time>2026-08-28T17:52:19Z</time>
  <course>0.0</course>
  <speed>0.0</speed>
  <fix>3d</fix>
</trkpt>
<trkpt lat="40.0713751" lon="-105.2297889">
  <ele>1583.0</ele>
  <time>2026-08-28T17:52:19Z</time>
  <course>247.14</course>
  <speed>0.022360679774997897</speed>
  <fix>3d</fix>
</trkpt>
<trkpt lat="40.0713749" lon="-105.229789">
  <ele>1583.0</ele>
  <time>2026-08-28T17:52:19Z</time>
  <course>0.0</course>
  <speed>0.0</speed>
  <fix>3d</fix>
</trkpt>
<trkpt lat="40.0713751" lon="-105.2297889">
  <ele>1583.01</ele>
  <time>2026-08-28T17:52:19Z</time>
  <course>247.14</course>
  <speed>0.022360679774997897</speed>
  <fix>3d</fix>
</trkpt>
<trkpt lat="40.0713749" lon="-105.229789">
  <ele>1583.0</ele>
  <time>2026-08-28T17:52:19Z</time>
  <course>0.0</course>
  <speed>0.0</speed>
  <fix>3d</fix>
</trkpt>
<trkpt lat="40.0713751" lon="-105.2297889">
  <ele>1583.01</ele>
  <time>2026-08-28T17:52:19Z</time>
  <course>247.14</course>
  <speed>0.022360679774997897</speed>
  <fix>3d</fix>
</trkpt>
<trkpt lat="40.0713749" lon="-105.229789">
  <ele>1583.0</ele>
  <time>2026-08-28T17:52:19Z</time>
  <course>0.0</course>
  <speed>0.0</speed>
  <fix>3d</fix>
</trkpt>
<trkpt lat="40.0713751" lon="-105.2297889">
  <ele>1583.01</ele>
  <time>2026-08-28T17:52:19Z</time>
  <course>247.14</course>
  <speed>0.022360679774997897</speed>
  <fix>3d</fix>
</trkpt>
<trkpt lat="40.0713749" lon="-105.229789">
  <ele>1583.0</ele>
  <time>2026-08-28T17:52:19Z</time>
  <course>0.0</course>
  <speed>0.0</speed>
  <fix>3d</fix>
</trkpt>
<trkpt lat="40.0713751" lon="-105.2297889">
  <ele>1583.01</ele>
  <time>2026-08-28T17:52:19Z</time>
  <course>247.14</course>
  <speed>0.022360679774997897</speed>
  <fix>3d</fix>
</trkpt>
<trkpt lat="40.0713749" lon="-105.229789">
  <ele>1583.0</ele>
  <time>2026-08-28T17:52:19Z</time>
  <course>0.0</course>
  <speed>0.0</speed>
  <fix>3d</fix>
</trkpt>
<trkpt lat="40.0713751" lon="-105.2297889">
  <ele>1583.0</ele>
  <time>2026-08-28T17:52:19Z</time>
  <course>247.14</course>
  <speed>0.022360679774997897</speed>
  <fix>3d</fix>
</trkpt>
<trkpt lat="40.0713749" lon="-105.229789">
  <ele>1583.0</ele>
  <time>2026-08-28T17:52:19Z</time>
  <course>0.0</course>
  <speed>0.0</speed>
  <fix>3d</fix>
</trkpt>
<trkpt lat="40.0713751" lon="-105.2297889">
  <ele>1583.0</ele>
  <time>2026-08-28T17:52:19Z</time>
  <course>247.14</course>
  <speed>0.022360679774997897</speed>
  <fix>3d</fix>
</trkpt>
<trkpt lat="40.0713749" lon="-105.229789">
  <ele>1583.0</ele>
  <time>2026-08-28T17:52:19Z</time>
  <course>0.0</course>
  <speed>0.0</speed>
  <fix>3d</fix>
</trkpt>
<trkpt lat="40.0713751" lon="-105.2297889">
  <ele>1582.99</ele>
  <time>2026-08-28T17:52:19Z</time>
  <course>247.14</course>
  <speed>0.022360679774997897</speed>
  <fix>3d</fix>
</trkpt>
<trkpt lat="40.0713749" lon="-105.229789">
  <ele>1583.0</ele>
  <time>2026-08-28T17:52:19Z</time>
  <course>0.0</course>
  <speed>0.0</speed>
  <fix>3d</fix>
</trkpt>
<trkpt lat="40.0713751" lon="-105.2297889">
  <ele>1582.99</ele>
  <time>2026-08-28T17:52:19Z</time>
  <course>247.14</course>
  <speed>0.022360679774997897</speed>
  <fix>3d</fix>
</trkpt>
<trkpt lat="40.0713749" lon="-105.229789">
  <ele>1583.0</ele>
  <time>2026-08-28T17:52:19Z</time>
  <course>0.0</course>
  <speed>0.0</speed>
  <fix>3d</fix>
</trkpt>
<trkpt lat="40.0713751" lon="-105.2297889">
  <ele>1582.98</ele>
  <time>2026-08-28T17:52:19Z</time>
  <course>247.14</course>
  <speed>0.022360679774997897</speed>
  <fix>3d</fix>
</trkpt>
<trkpt lat="40.0713749" lon="-105.229789">
  <ele>1583.0</ele>
  <time>2026-08-28T17:52:19Z</time>
  <course>0.0</course>
  <speed>0.0</speed>
  <fix>3d</fix>
</trkpt>
<trkpt lat="40.0713751" lon="-105.2297889">
  <ele>1582.98</ele>
  <time>2026-08-28T17:52:19Z</time>
  <course>247.13</course>
  <speed>0.022360679774997897</speed>
  <fix>3d</fix>
</trkpt>
<trkpt lat="40.0713749" lon="-105.229789">
  <ele>1583.0</ele>
  <time>2026-08-28T17:52:19Z</time>
  <course>0.0</course>
  <speed>0.0</speed>
  <fix>3d</fix>
</trkpt>
<trkpt lat="40.0713751" lon="-105.2297889">
  <ele>1582.98</ele>
  <time>2026-08-28T17:52:19Z</time>
  <course>247.13</course>
  <speed>0.022360679774997897</speed>
  <fix>3d</fix>
</trkpt>
<trkpt lat="40.0713749" lon="-105.229789">
  <ele>1583.0</ele>
  <time>2026-08-28T17:52:19Z</time>
  <course>0.0</course>
  <speed>0.0</speed>
  <fix>3d</fix>
</trkpt>
<trkpt lat="40.0713751" lon="-105.2297889">
  <ele>1582.98</ele>
  <time>2026-08-28T17:52:19Z</time>
  <course>247.13</course>
  <speed>0.022360679774997897</speed>
  <fix>3d</fix>
</trkpt>
<trkpt lat="40.0713749" lon="-105.229789">
  <ele>1583.0</ele>
  <time>2026-08-28T17:52:19Z</time>
  <course>0.0</course>
  <speed>0.0</speed>
  <fix>3d</fix>
</trkpt>
<trkpt lat="40.0713751" lon="-105.2297889">
  <ele>1582.97</ele>
  <time>2026-08-28T17:52:19Z</time>
  <course>247.13</course>
  <speed>0.022360679774997897</speed>
  <fix>3d</fix>
</trkpt>
<trkpt lat="40.0713749" lon="-105.229789">
  <ele>1583.0</ele>
  <time>2026-08-28T17:52:19Z</time>
  <course>0.0</course>
  <speed>0.0</speed>
  <fix>3d</fix>
</trkpt>
<trkpt lat="40.0713751" lon="-105.2297889">
  <ele>1582.96</ele>
  <time>2026-08-28T17:52:19Z</time>
  <course>247.13</course>
  <speed>0.022360679774997897</speed>
  <fix>3d</fix>
</trkpt>
<trkpt lat="40.0713749" lon="-105.229789">
  <ele>1583.0</ele>
  <time>2026-08-28T17:52:19Z</time>
  <course>0.0</course>
  <speed>0.0</speed>
  <fix>3d</fix>
</trkpt>
<trkpt lat="40.0713751" lon="-105.2297889">
  <ele>1582.96</ele>
  <time>2026-08-28T17:52:19Z</time>
  <course>247.13</course>
  <speed>0.022360679774997897</speed>
  <fix>3d</fix>
</trkpt>
<trkpt lat="40.0713749" lon="-105.229789">
  <ele>1583.0</ele>
  <time>2026-08-28T17:52:19Z</time>
  <course>0.0</course>
  <speed>0.0</speed>
  <fix>3d</fix>
</trkpt>
<trkpt lat="40.0713751" lon="-105.2297889">
  <ele>1582.95</ele>
  <time>2026-08-28T17:52:19Z</time>
  <course>247.13</course>
  <speed>0.022360679774997897</speed>
  <fix>3d</fix>
</trkpt>
<trkpt lat="40.0713749" lon="-105.229789">
  <ele>1583.0</ele>
  <time>2026-08-28T17:52:19Z</time>
  <course>0.0</course>
  <speed>0.0</speed>
  <fix>3d</fix>
</trkpt>
<trkpt lat="40.0713751" lon="-105.2297889">
  <ele>1582.94</ele>
  <time>2026-08-28T17:52:19Z</time>
  <course>247.13</course>
  <speed>0.022360679774997897</speed>
  <fix>3d</fix>
</trkpt>
<trkpt lat="40.0713749" lon="-105.229789">
  <ele>1583.0</ele>
  <time>2026-08-28T17:52:19Z</time>
  <course>0.0</course>
  <speed>0.0</speed>
  <fix>3d</fix>
</trkpt>
<trkpt lat="40.0713751" lon="-105.2297889">
  <ele>1582.93</ele>
  <time>2026-08-28T17:52:19Z</time>
  <course>247.13</course>
  <speed>0.022360679774997897</speed>
  <fix>3d</fix>
</trkpt>
<trkpt lat="40.0713749" lon="-105.229789">
  <ele>1583.0</ele>
  <time>2026-08-28T17:52:19Z</time>
  <course>0.0</course>
  <speed>0.0</speed>
  <fix>3d</fix>
</trkpt>
<trkpt lat="40.0713751" lon="-105.2297889">
  <ele>1582.93</ele>
  <time>2026-08-28T17:52:19Z</time>
  <course>247.13</course>
  <speed>0.022360679774997897</speed>
  <fix>3d</fix>
</trkpt>
<trkpt lat="40.0713749" lon="-105.229789">
  <ele>1583.0</ele>
  <time>2026-08-28T17:52:19Z</time>
  <course>0.0</course>
  <speed>0.0</speed>
  <fix>3d</fix>
</trkpt>
<trkpt lat="40.0713751" lon="-105.2297889">
  <ele>1582.92</ele>
  <time>2026-08-28T17:52:19Z</time>
  <course>247.13</course>
  <speed>0.022360679774997897</speed>
  <fix>3d</fix>
</trkpt>
<trkpt lat="40.0713749" lon="-105.229789">
  <ele>1583.0</ele>
  <time>2026-08-28T17:52:19Z</time>
  <course>0.0</course>
  <speed>0.0</speed>
  <fix>3d</fix>
</trkpt>
<trkpt lat="40.0713751" lon="-105.2297889">
  <ele>1582.91</ele>
  <time>2026-08-28T17:52:19Z</time>
  <course>247.13</course>
  <speed>0.022360679774997897</speed>
  <fix>3d</fix>
</trkpt>
<trkpt lat="40.0713749" lon="-105.229789">
  <ele>1583.0</ele>
  <time>2026-08-28T17:52:19Z</time>
  <course>0.0</course>
  <speed>0.0</speed>
  <fix>3d</fix>
</trkpt>
<trkpt lat="40.0713751" lon="-105.2297889">
  <ele>1582.9</ele>
  <time>2026-08-28T17:52:19Z</time>
  <course>247.13</course>
  <speed>0.022360679774997897</speed>
  <fix>3d</fix>
</trkpt>
<trkpt lat="40.0713749" lon="-105.229789">
  <ele>1583.0</ele>
  <time>2026-08-28T17:52:19Z</time>
  <course>0.0</course>
  <speed>0.0</speed>
  <fix>3d</fix>
</trkpt>
<trkpt lat="40.0713751" lon="-105.2297889">
  <ele>1582.9</ele>
  <time>2026-08-28T17:52:19Z</time>
  <course>247.13</course>
  <speed>0.022360679774997897</speed>
  <fix>3d</fix>
</trkpt>
<trkpt lat="40.0713749" lon="-105.229789">
  <ele>1583.0</ele>
  <time>2026-08-28T17:52:19Z</time>
  <course>0.0</course>
  <speed>0.0</speed>
  <fix>3d</fix>
</trkpt>
<trkpt lat="40.0713751" lon="-105.2297889">
  <ele>1582.91</ele>
  <time>2026-08-28T17:52:19Z</time>
  <course>247.13</course>
  <speed>0.022360679774997897</speed>
  <fix>3d</fix>
</trkpt>
<trkpt lat="40.0713749" lon="-105.229789">
  <ele>1583.0</ele>
  <time>2026-08-28T17:52:19Z</time>
  <course>0.0</course>
  <speed>0.0</speed>
  <fix>3d</fix>
</trkpt>
<trkpt lat="40.0713751" lon="-105.2297889">
  <ele>1582.92</ele>
  <time>2026-08-28T17:52:19Z</time>
  <course>247.13</course>
  <speed>0.022360679774997897</speed>
  <fix>3d</fix>
</trkpt>
<trkpt lat="40.0713749" lon="-105.229789">
  <ele>1583.0</ele>
  <time>2026-08-28T17:52:19Z</time>
  <course>0.0</course>
  <speed>0.0</speed>
  <fix>3d</fix>
</trkpt>
<trkpt lat="40.0713751" lon="-105.2297889">
  <ele>1582.93</ele>
  <time>2026-08-28T17:52:19Z</time>
  <course>247.13</course>
  <speed>0.022360679774997897</speed>
  <fix>3d</fix>
</trkpt>
<trkpt lat="40.0713749" lon="-105.229789">
  <ele>1583.0</ele>
  <time>2026-08-28T17:52:19Z</time>
  <course>0.0</course>
  <speed>0.0</speed>
  <fix>3d</fix>
</trkpt>
<trkpt lat="40.0713751" lon="-105.2297889">
  <ele>1582.94</ele>
  <time>2026-08-28T17:52:19Z</time>
  <course>247.13</course>
  <speed>0.022360679774997897</speed>
  <fix>3d</fix>
</trkpt>
<trkpt lat="40.0713749" lon="-105.229789">
  <ele>1583.0</ele>
  <time>2026-08-28T17:52:19Z</time>
  <course>0.0</course>
  <speed>0.0</speed>
  <fix>3d</fix>
</trkpt>
<trkpt lat="40.0713751" lon="-105.2297889">
  <ele>1582.95</ele>
  <time>2026-08-28T17:52:19Z</time>
  <course>247.13</course>
  <speed>0.022360679774997897</speed>
  <fix>3d</fix>
</trkpt>
<trkpt lat="40.0713749" lon="-105.229789">
  <ele>1583.0</ele>
  <time>2026-08-28T17:52:19Z</time>
  <course>0.0</course>
  <speed>0.0</speed>
  <fix>3d</fix>
</trkpt>
<trkpt lat="40.0713751" lon="-105.2297889">
  <ele>1582.96</ele>
  <time>2026-08-28T17:52:19Z</time>
  <course>247.13</course>
  <speed>0.022360679774997897</speed>
  <fix>3d</fix>
</trkpt>
<trkpt lat="40.0713749" lon="-105.229789">
  <ele>1583.0</ele>
  <time>2026-08-28T17:52:19Z</time>
  <course>0.0</course>
  <speed>0.0</speed>
  <fix>3d</fix>
</trkpt>
<trkpt lat="40.0713751" lon="-105.2297889">
  <ele>1582.97</ele>
  <time>2026-08-28T17:52:19Z</time>
  <course>247.13</course>
  <speed>0.022360679774997897</speed>
  <fix>3d</fix>
</trkpt>
<trkpt lat="40.0713749" lon="-105.229789">
  <ele>1583.0</ele>
  <time>2026-08-28T17:52:19Z</time>
  <course>0.0</course>
  <speed>0.0</speed>
  <fix>3d</fix>
</trkpt>
<trkpt lat="40.0713751" lon="-105.2297889">
  <ele>1582.98</ele>
  <time>2026-08-28T17:52:19Z</time>
  <course>247.13</course>
  <speed>0.022360679774997897</speed>
  <fix>3d</fix>
</trkpt>
<trkpt lat="40.0713749" lon="-105.229789">
  <ele>1583.0</ele>
  <time>2026-08-28T17:52:19Z</time>
  <course>0.0</course>
  <speed>0.0</speed>
  <fix>3d</fix>
</trkpt>
<trkpt lat="40.0713751" lon="-105.2297889">
  <ele>1582.99</ele>
  <time>2026-08-28T17:52:19Z</time>
  <course>247.13</course>
  <speed>0.022360679774997897</speed>
  <fix>3d</fix>
</trkpt>
<trkpt lat="40.0713749" lon="-105.229789">
  <ele>1583.0</ele>
  <time>2026-08-28T17:52:19Z</time>
  <course>0.0</course>
  <speed>0.0</speed>
  <fix>3d</fix>
</trkpt>
<trkpt lat="40.0713751" lon="-105.2297889">
  <ele>1582.99</ele>
  <time>2026-08-28T17:52:19Z</time>
  <course>247.13</course>
  <speed>0.022360679774997897</speed>
  <fix>3d</fix>
</trkpt>
<trkpt lat="40.0713749" lon="-105.229789">
  <ele>1583.0</ele>
  <time>2026-08-28T17:52:19Z</time>
  <course>0.0</course>
  <speed>0.0</speed>
  <fix>3d</fix>
</trkpt>
<trkpt lat="40.0713751" lon="-105.2297889">
  <ele>1583.0</ele>
  <time>2026-08-28T17:52:19Z</time>
  <course>247.13</course>
  <speed>0.022360679774997897</speed>
  <fix>3d</fix>
</trkpt>
<trkpt lat="40.0713749" lon="-105.229789">
  <ele>1583.0</ele>
  <time>2026-08-28T17:52:19Z</time>
  <course>0.0</course>
  <speed>0.0</speed>
  <fix>3d</fix>
</trkpt>
<trkpt lat="40.0713751" lon="-105.2297889">
  <ele>1583.0</ele>
  <time>2026-08-28T17:52:19Z</time>
  <course>247.13</course>
  <speed>0.022360679774997897</speed>
  <fix>3d</fix>
</trkpt>
<trkpt lat="40.0713749" lon="-105.229789">
  <ele>1583.0</ele>
  <time>2026-08-28T17:52:19Z</time>
  <course>0.0</course>
  <speed>0.0</speed>
  <fix>3d</fix>
</trkpt>
<trkpt lat="40.0713751" lon="-105.2297889">
  <ele>1583.0</ele>
  <time>2026-08-28T17:52:19Z</time>
  <course>247.13</course>
  <speed>0.022360679774997897</speed>
  <fix>3d</fix>
</trkpt>
<trkpt lat="40.0713749" lon="-105.229789">
  <ele>1583.0</ele>
  <time>2026-08-28T17:52:19Z</time>
  <course>0.0</course>
  <speed>0.0</speed>
  <fix>3d</fix>
</trkpt>
<trkpt lat="40.0713751" lon="-105.2297889">
  <ele>1583.01</ele>
  <time>2026-08-28T17:52:19Z</time>
  <course>247.13</course>
  <speed>0.022360679774997897</speed>
  <fix>3d</fix>
</trkpt>
<trkpt lat="40.0713749" lon="-105.229789">
  <ele>1583.0</ele>
  <time>2026-08-28T17:52:19Z</time>
  <course>0.0</course>
  <speed>0.0</speed>
  <fix>3d</fix>
</trkpt>
<trkpt lat="40.0713751" lon="-105.2297889">
  <ele>1583.01</ele>
  <time>2026-08-28T17:52:19Z</time>
  <course>247.13</course>
  <speed>0.022360679774997897</speed>
  <fix>3d</fix>
</trkpt>
<trkpt lat="40.0713749" lon="-105.229789">
  <ele>1583.0</ele>
  <time>2026-08-28T17:52:19Z</time>
  <course>0.0</course>
  <speed>0.0</speed>
  <fix>3d</fix>
</trkpt>
<trkpt lat="40.0713751" lon="-105.2297889">
  <ele>1583.01</ele>
  <time>2026-08-28T17:52:19Z</time>
  <course>247.13</course>
  <speed>0.022360679774997897</speed>
  <fix>3d</fix>
</trkpt>
<trkpt lat="40.0713749" lon="-105.229789">
  <ele>1583.0</ele>
  <time>2026-08-28T17:52:19Z</time>
  <course>0.0</course>
  <speed>0.0</speed>
  <fix>3d</fix>
</trkpt>
<trkpt lat="40.0713751" lon="-105.2297889">
  <ele>1583.01</ele>
  <time>2026-08-28T17:52:19Z</time>
  <course>247.13</course>
  <speed>0.022360679774997897</speed>
  <fix>3d</fix>
</trkpt>
<trkpt lat="40.0713749" lon="-105.229789">
  <ele>1583.0</ele>
  <time>2026-08-28T17:52:19Z</time>
  <course>0.0</course>
  <speed>0.0</speed>
  <fix>3d</fix>
</trkpt>
<trkpt lat="40.0713751" lon="-105.2297889">
  <ele>1583.02</ele>
  <time>2026-08-28T17:52:19Z</time>
  <course>247.13</course>
  <speed>0.022360679774997897</speed>
  <fix>3d</fix>
</trkpt>
<trkpt lat="40.0713749" lon="-105.229789">
  <ele>1583.0</ele>
  <time>2026-08-28T17:52:19Z</time>
  <course>0.0</course>
  <speed>0.0</speed>
  <fix>3d</fix>
</trkpt>
<trkpt lat="40.0713751" lon="-105.2297889">
  <ele>1583.02</ele>
  <time>2026-08-28T17:52:19Z</time>
  <course>247.13</course>
  <speed>0.022360679774997897</speed>
  <fix>3d</fix>
</trkpt>
<trkpt lat="40.0713749" lon="-105.229789">
  <ele>1583.0</ele>
  <time>2026-08-28T17:52:19Z</time>
  <course>0.0</course>
  <speed>0.0</speed>
  <fix>3d</fix>
</trkpt>
<trkpt lat="40.0713751" lon="-105.2297889">
  <ele>1583.02</ele>
  <time>2026-08-28T17:52:19Z</time>
  <course>247.13</course>
  <speed>0.022360679774997897</speed>
  <fix>3d</fix>
</trkpt>
<trkpt lat="40.0713749" lon="-105.229789">
  <ele>1583.0</ele>
  <time>2026-08-28T17:52:19Z</time>
  <course>0.0</course>
  <speed>0.0</speed>
  <fix>3d</fix>
</trkpt>
<trkpt lat="40.0713751" lon="-105.2297889">
  <ele>1583.02</ele>
  <time>2026-08-28T17:52:19Z</time>
  <course>247.12</course>
  <speed>0.022360679774997897</speed>
  <fix>3d</fix>
</trkpt>
<trkpt lat="40.0713749" lon="-105.229789">
  <ele>1583.0</ele>
  <time>2026-08-28T17:52:19Z</time>
  <course>0.0</course>
  <speed>0.0</speed>
  <fix>3d</fix>
</trkpt>
<trkpt lat="40.071375" lon="-105.2297889">
  <ele>1583.02</ele>
  <time>2026-08-28T17:52:19Z</time>
  <course>247.12</course>
  <speed>0.022360679774997897</speed>
  <fix>3d</fix>
</trkpt>
<trkpt lat="40.0713749" lon="-105.229789">
  <ele>1583.0</ele>
  <time>2026-08-28T17:52:19Z</time>
  <course>0.0</course>
  <speed>0.0</speed>
  <fix>3d</fix>
</trkpt>
<trkpt lat="40.0713751" lon="-105.2297889">
  <ele>1583.01</ele>
  <time>2026-08-28T17:52:19Z</time>
  <course>247.12</course>
  <speed>0.022360679774997897</speed>
  <fix>3d</fix>
</trkpt>
<trkpt lat="40.0713749" lon="-105.229789">
  <ele>1583.0</ele>
  <time>2026-08-28T17:52:19Z</time>
  <course>0.0</course>
  <speed>0.0</speed>
  <fix>3d</fix>
</trkpt>
<trkpt lat="40.071375" lon="-105.2297889">
  <ele>1583.01</ele>
  <time>2026-08-28T17:52:19Z</time>
  <course>247.12</course>
  <speed>0.022360679774997897</speed>
  <fix>3d</fix>
</trkpt>
<trkpt lat="40.0713749" lon="-105.229789">
  <ele>1583.0</ele>
  <time>2026-08-28T17:52:19Z</time>
  <course>0.0</course>
  <speed>0.0</speed>
  <fix>3d</fix>
</trkpt>
<trkpt lat="40.0713751" lon="-105.2297889">
  <ele>1583.0</ele>
  <time>2026-08-28T17:52:19Z</time>
  <course>247.12</course>
  <speed>0.022360679774997897</speed>
  <fix>3d</fix>
</trkpt>
<trkpt lat="40.0713749" lon="-105.229789">
  <ele>1583.0</ele>
  <time>2026-08-28T17:52:19Z</time>
  <course>0.0</course>
  <speed>0.0</speed>
  <fix>3d</fix>
</trkpt>
<trkpt lat="40.071375" lon="-105.2297889">
  <ele>1583.0</ele>
  <time>2026-08-28T17:52:19Z</time>
  <course>247.12</course>
  <speed>0.022360679774997897</speed>
  <fix>3d</fix>
</trkpt>
<trkpt lat="40.0713749" lon="-105.229789">
  <ele>1583.0</ele>
  <time>2026-08-28T17:52:19Z</time>
  <course>0.0</course>
  <speed>0.0</speed>
  <fix>3d</fix>
</trkpt>
<trkpt lat="40.0713751" lon="-105.2297889">
  <ele>1582.99</ele>
  <time>2026-08-28T17:52:19Z</time>
  <course>247.12</course>
  <speed>0.022360679774997897</speed>
  <fix>3d</fix>
</trkpt>
<trkpt lat="40.0713749" lon="-105.229789">
  <ele>1583.0</ele>
  <time>2026-08-28T17:52:19Z</time>
  <course>0.0</course>
  <speed>0.0</speed>
  <fix>3d</fix>
</trkpt>
<trkpt lat="40.0713751" lon="-105.2297889">
  <ele>1582.99</ele>
  <time>2026-08-28T17:52:19Z</time>
  <course>247.12</course>
  <speed>0.022360679774997897</speed>
  <fix>3d</fix>
</trkpt>
<trkpt lat="40.0713749" lon="-105.229789">
  <ele>1583.0</ele>
  <time>2026-08-28T17:52:19Z</time>
  <course>0.0</course>
  <speed>0.0</speed>
  <fix>3d</fix>
</trkpt>
<trkpt lat="40.0713751" lon="-105.2297889">
  <ele>1582.99</ele>
  <time>2026-08-28T17:52:19Z</time>
  <course>247.12</course>
  <speed>0.022360679774997897</speed>
  <fix>3d</fix>
</trkpt>
<trkpt lat="40.0713749" lon="-105.229789">
  <ele>1583.0</ele>
  <time>2026-08-28T17:52:19Z</time>
  <course>0.0</course>
  <speed>0.0</speed>
  <fix>3d</fix>
</trkpt>
<trkpt lat="40.0713751" lon="-105.2297889">
  <ele>1582.98</ele>
  <time>2026-08-28T17:52:19Z</time>
  <course>247.12</course>
  <speed>0.022360679774997897</speed>
  <fix>3d</fix>
</trkpt>
<trkpt lat="40.0713749" lon="-105.229789">
  <ele>1583.0</ele>
  <time>2026-08-28T17:52:19Z</time>
  <course>0.0</course>
  <speed>0.0</speed>
  <fix>3d</fix>
</trkpt>
<trkpt lat="40.0713751" lon="-105.2297889">
  <ele>1582.98</ele>
  <time>2026-08-28T17:52:19Z</time>
  <course>247.12</course>
  <speed>0.022360679774997897</speed>
  <fix>3d</fix>
</trkpt>
<trkpt lat="40.0713749" lon="-105.229789">
  <ele>1583.0</ele>
  <time>2026-08-28T17:52:19Z</time>
  <course>0.0</course>
  <speed>0.0</speed>
  <fix>3d</fix>
</trkpt>
<trkpt lat="40.0713751" lon="-105.2297889">
  <ele>1582.97</ele>
  <time>2026-08-28T17:52:19Z</time>
  <course>247.12</course>
  <speed>0.022360679774997897</speed>
  <fix>3d</fix>
</trkpt>
<trkpt lat="40.0713749" lon="-105.229789">
  <ele>1583.0</ele>
  <time>2026-08-28T17:52:19Z</time>
  <course>0.0</course>
  <speed>0.0</speed>
  <fix>3d</fix>
</trkpt>
<trkpt lat="40.0713751" lon="-105.2297889">
  <ele>1582.97</ele>
  <time>2026-08-28T17:52:19Z</time>
  <course>247.12</course>
  <speed>0.022360679774997897</speed>
  <fix>3d</fix>
</trkpt>
<trkpt lat="40.0713749" lon="-105.229789">
  <ele>1583.0</ele>
  <time>2026-08-28T17:52:19Z</time>
  <course>0.0</course>
  <speed>0.0</speed>
  <fix>3d</fix>
</trkpt>
<trkpt lat="40.0713751" lon="-105.2297889">
  <ele>1582.96</ele>
  <time>2026-08-28T17:52:19Z</time>
  <course>247.12</course>
  <speed>0.022360679774997897</speed>
  <fix>3d</fix>
</trkpt>
<trkpt lat="40.0713749" lon="-105.229789">
  <ele>1583.0</ele>
  <time>2026-08-28T17:52:19Z</time>
  <course>0.0</course>
  <speed>0.0</speed>
  <fix>3d</fix>
</trkpt>
<trkpt lat="40.0713751" lon="-105.2297889">
  <ele>1582.96</ele>
  <time>2026-08-28T17:52:19Z</time>
  <course>247.12</course>
  <speed>0.022360679774997897</speed>
  <fix>3d</fix>
</trkpt>
<trkpt lat="40.0713749" lon="-105.229789">
  <ele>1583.0</ele>
  <time>2026-08-28T17:52:19Z</time>
  <course>0.0</course>
  <speed>0.0</speed>
  <fix>3d</fix>
</trkpt>
<trkpt lat="40.0713751" lon="-105.2297889">
  <ele>1582.95</ele>
  <time>2026-08-28T17:52:19Z</time>
  <course>247.12</course>
  <speed>0.022360679774997897</speed>
  <fix>3d</fix>
</trkpt>
<trkpt lat="40.0713749" lon="-105.229789">
  <ele>1583.0</ele>
  <time>2026-08-28T17:52:19Z</time>
  <course>0.0</course>
  <speed>0.0</speed>
  <fix>3d</fix>
</trkpt>
<trkpt lat="40.0713751" lon="-105.2297889">
  <ele>1582.95</ele>
  <time>2026-08-28T17:52:19Z</time>
  <course>247.12</course>
  <speed>0.022360679774997897</speed>
  <fix>3d</fix>
</trkpt>
<trkpt lat="40.0713749" lon="-105.229789">
  <ele>1583.0</ele>
  <time>2026-08-28T17:52:19Z</time>
  <course>0.0</course>
  <speed>0.0</speed>
  <fix>3d</fix>
</trkpt>
<trkpt lat="40.0713751" lon="-105.2297889">
  <ele>1582.95</ele>
  <time>2026-08-28T17:52:19Z</time>
  <course>247.12</course>
  <speed>0.022360679774997897</speed>
  <fix>3d</fix>
</trkpt>
<trkpt lat="40.0713749" lon="-105.229789">
  <ele>1583.0</ele>
  <time>2026-08-28T17:52:19Z</time>
  <course>0.0</course>
  <speed>0.0</speed>
  <fix>3d</fix>
</trkpt>
<trkpt lat="40.0713751" lon="-105.2297889">
  <ele>1582.95</ele>
  <time>2026-08-28T17:52:19Z</time>
  <course>247.12</course>
  <speed>0.022360679774997897</speed>
  <fix>3d</fix>
</trkpt>
<trkpt lat="40.0713749" lon="-105.229789">
  <ele>1583.0</ele>
  <time>2026-08-28T17:52:19Z</time>
  <course>0.0</course>
  <speed>0.0</speed>
  <fix>3d</fix>
</trkpt>
<trkpt lat="40.0713751" lon="-105.2297889">
  <ele>1582.95</ele>
  <time>2026-08-28T17:52:19Z</time>
  <course>247.12</course>
  <speed>0.022360679774997897</speed>
  <fix>3d</fix>
</trkpt>
<trkpt lat="40.0713749" lon="-105.229789">
  <ele>1583.0</ele>
  <time>2026-08-28T17:52:19Z</time>
  <course>0.0</course>
  <speed>0.0</speed>
  <fix>3d</fix>
</trkpt>
<trkpt lat="40.0713751" lon="-105.2297889">
  <ele>1582.95</ele>
  <time>2026-08-28T17:52:19Z</time>
  <course>247.12</course>
  <speed>0.022360679774997897</speed>
  <fix>3d</fix>
</trkpt>
<trkpt lat="40.0713749" lon="-105.229789">
  <ele>1583.0</ele>
  <time>2026-08-28T17:52:19Z</time>
  <course>0.0</course>
  <speed>0.0</speed>
  <fix>3d</fix>
</trkpt>
<trkpt lat="40.0713751" lon="-105.2297889">
  <ele>1582.95</ele>
  <time>2026-08-28T17:52:19Z</time>
  <course>247.12</course>
  <speed>0.022360679774997897</speed>
  <fix>3d</fix>
</trkpt>
<trkpt lat="40.0713749" lon="-105.229789">
  <ele>1583.0</ele>
  <time>2026-08-28T17:52:19Z</time>
  <course>0.0</course>
  <speed>0.0</speed>
  <fix>3d</fix>
</trkpt>
<trkpt lat="40.0713751" lon="-105.2297889">
  <ele>1582.95</ele>
  <time>2026-08-28T17:52:19Z</time>
  <course>247.12</course>
  <speed>0.022360679774997897</speed>
  <fix>3d</fix>
</trkpt>
<trkpt lat="40.0713749" lon="-105.229789">
  <ele>1583.0</ele>
  <time>2026-08-28T17:52:19Z</time>
  <course>0.0</course>
  <speed>0.0</speed>
  <fix>3d</fix>
</trkpt>
<trkpt lat="40.0713751" lon="-105.2297889">
  <ele>1582.95</ele>
  <time>2026-08-28T17:52:19Z</time>
  <course>247.12</course>
  <speed>0.022360679774997897</speed>
  <fix>3d</fix>
</trkpt>
<trkpt lat="40.0713749" lon="-105.229789">
  <ele>1583.0</ele>
  <time>2026-08-28T17:52:19Z</time>
  <course>0.0</course>
  <speed>0.0</speed>
  <fix>3d</fix>
</trkpt>
<trkpt lat="40.0713751" lon="-105.2297889">
  <ele>1582.96</ele>
  <time>2026-08-28T17:52:19Z</time>
  <course>247.12</course>
  <speed>0.022360679774997897</speed>
  <fix>3d</fix>
</trkpt>
<trkpt lat="40.0713749" lon="-105.229789">
  <ele>1583.0</ele>
  <time>2026-08-28T17:52:19Z</time>
  <course>0.0</course>
  <speed>0.0</speed>
  <fix>3d</fix>
</trkpt>
<trkpt lat="40.0713751" lon="-105.2297889">
  <ele>1582.96</ele>
  <time>2026-08-28T17:52:19Z</time>
  <course>247.12</course>
  <speed>0.022360679774997897</speed>
  <fix>3d</fix>
</trkpt>
<trkpt lat="40.0713749" lon="-105.229789">
  <ele>1583.0</ele>
  <time>2026-08-28T17:52:19Z</time>
  <course>0.0</course>
  <speed>0.0</speed>
  <fix>3d</fix>
</trkpt>
<trkpt lat="40.0713751" lon="-105.2297889">
  <ele>1582.97</ele>
  <time>2026-08-28T17:52:19Z</time>
  <course>247.12</course>
  <speed>0.022360679774997897</speed>
  <fix>3d</fix>
</trkpt>
<trkpt lat="40.0713749" lon="-105.229789">
  <ele>1583.0</ele>
  <time>2026-08-28T17:52:19Z</time>
  <course>0.0</course>
  <speed>0.0</speed>
  <fix>3d</fix>
</trkpt>
<trkpt lat="40.0713751" lon="-105.2297889">
  <ele>1582.97</ele>
  <time>2026-08-28T17:52:19Z</time>
  <course>247.12</course>
  <speed>0.022360679774997897</speed>
  <fix>3d</fix>
</trkpt>
<trkpt lat="40.0713749" lon="-105.229789">
  <ele>1583.0</ele>
  <time>2026-08-28T17:52:19Z</time>
  <course>0.0</course>
  <speed>0.0</speed>
  <fix>3d</fix>
</trkpt>
<trkpt lat="40.0713751" lon="-105.2297889">
  <ele>1582.97</ele>
  <time>2026-08-28T17:52:19Z</time>
  <course>247.12</course>
  <speed>0.022360679774997897</speed>
  <fix>3d</fix>
</trkpt>
<trkpt lat="40.0713749" lon="-105.229789">
  <ele>1583.0</ele>
  <time>2026-08-28T17:52:19Z</time>
  <course>0.0</course>
  <speed>0.0</speed>
  <fix>3d</fix>
</trkpt>
<trkpt lat="40.0713751" lon="-105.2297889">
  <ele>1582.97</ele>
  <time>2026-08-28T17:52:19Z</time>
  <course>247.12</course>
  <speed>0.022360679774997897</speed>
  <fix>3d</fix>
</trkpt>
<trkpt lat="40.0713749" lon="-105.229789">
  <ele>1583.0</ele>
  <time>2026-08-28T17:52:19Z</time>
  <course>0.0</course>
  <speed>0.0</speed>
  <fix>3d</fix>
</trkpt>
<trkpt lat="40.0713751" lon="-105.2297889">
  <ele>1582.97</ele>
  <time>2026-08-28T17:52:19Z</time>
  <course>247.12</course>
  <speed>0.022360679774997897</speed>
  <fix>3d</fix>
</trkpt>
<trkpt lat="40.0713749" lon="-105.229789">
  <ele>1583.0</ele>
  <time>2026-08-28T17:52:19Z</time>
  <course>0.0</course>
  <speed>0.0</speed>
  <fix>3d</fix>
</trkpt>
<trkpt lat="40.0713751" lon="-105.2297889">
  <ele>1582.97</ele>
  <time>2026-08-28T17:52:19Z</time>
  <course>247.12</course>
  <speed>0.022360679774997897</speed>
  <fix>3d</fix>
</trkpt>
<trkpt lat="40.0713749" lon="-105.229789">
  <ele>1583.0</ele>
  <time>2026-08-28T17:52:19Z</time>
  <course>0.0</course>
  <speed>0.0</speed>
  <fix>3d</fix>
</trkpt>
<trkpt lat="40.0713751" lon="-105.2297889">
  <ele>1582.96</ele>
  <time>2026-08-28T17:52:19Z</time>
  <course>247.12</course>
  <speed>0.022360679774997897</speed>
  <fix>3d</fix>
</trkpt>
<trkpt lat="40.0713749" lon="-105.229789">
  <ele>1583.0</ele>
  <time>2026-08-28T17:52:19Z</time>
  <course>0.0</course>
  <speed>0.0</speed>
  <fix>3d</fix>
</trkpt>
<trkpt lat="40.0713751" lon="-105.2297889">
  <ele>1582.96</ele>
  <time>2026-08-28T17:52:19Z</time>
  <course>247.12</course>
  <speed>0.022360679774997897</speed>
  <fix>3d</fix>
</trkpt>
<trkpt lat="40.0713749" lon="-105.229789">
  <ele>1583.0</ele>
  <time>2026-08-28T17:52:19Z</time>
  <course>0.0</course>
  <speed>0.0</speed>
  <fix>3d</fix>
</trkpt>
<trkpt lat="40.0713751" lon="-105.2297889">
  <ele>1582.95</ele>
  <time>2026-08-28T17:52:19Z</time>
  <course>247.12</course>
  <speed>0.022360679774997897</speed>
  <fix>3d</fix>
</trkpt>
<trkpt lat="40.0713749" lon="-105.229789">
  <ele>1583.0</ele>
  <time>2026-08-28T17:52:19Z</time>
  <course>0.0</course>
  <speed>0.0</speed>
  <fix>3d</fix>
</trkpt>
<trkpt lat="40.0713751" lon="-105.2297889">
  <ele>1582.95</ele>
  <time>2026-08-28T17:52:19Z</time>
  <course>247.12</course>
  <speed>0.022360679774997897</speed>
  <fix>3d</fix>
</trkpt>
<trkpt lat="40.0713749" lon="-105.229789">
  <ele>1583.0</ele>
  <time>2026-08-28T17:52:19Z</time>
  <course>0.0</course>
  <speed>0.0</speed>
  <fix>3d</fix>
</trkpt>
<trkpt lat="40.0713751" lon="-105.2297889">
  <ele>1582.94</ele>
  <time>2026-08-28T17:52:19Z</time>
  <course>247.12</course>
  <speed>0.022360679774997897</speed>
  <fix>3d</fix>
</trkpt>
<trkpt lat="40.0713749" lon="-105.229789">
  <ele>1583.0</ele>
  <time>2026-08-28T17:52:19Z</time>
  <course>0.0</course>
  <speed>0.0</speed>
  <fix>3d</fix>
</trkpt>
<trkpt lat="40.0713751" lon="-105.2297889">
  <ele>1582.93</ele>
  <time>2026-08-28T17:52:19Z</time>
  <course>247.12</course>
  <speed>0.022360679774997897</speed>
  <fix>3d</fix>
</trkpt>
<trkpt lat="40.0713749" lon="-105.229789">
  <ele>1583.0</ele>
  <time>2026-08-28T17:52:19Z</time>
  <course>0.0</course>
  <speed>0.0</speed>
  <fix>3d</fix>
</trkpt>
<trkpt lat="40.0713751" lon="-105.2297889">
  <ele>1582.93</ele>
  <time>2026-08-28T17:52:19Z</time>
  <course>247.12</course>
  <speed>0.022360679774997897</speed>
  <fix>3d</fix>
</trkpt>
<trkpt lat="40.0713749" lon="-105.229789">
  <ele>1583.0</ele>
  <time>2026-08-28T17:52:19Z</time>
  <course>0.0</course>
  <speed>0.0</speed>
  <fix>3d</fix>
</trkpt>
<trkpt lat="40.0713751" lon="-105.2297889">
  <ele>1582.94</ele>
  <time>2026-08-28T17:52:19Z</time>
  <course>247.12</course>
  <speed>0.022360679774997897</speed>
  <fix>3d</fix>
</trkpt>
<trkpt lat="40.0713749" lon="-105.229789">
  <ele>1583.0</ele>
  <time>2026-08-28T17:52:19Z</time>
  <course>0.0</course>
  <speed>0.0</speed>
  <fix>3d</fix>
</trkpt>
<trkpt lat="40.0713751" lon="-105.2297889">
  <ele>1582.94</ele>
  <time>2026-08-28T17:52:19Z</time>
  <course>247.12</course>
  <speed>0.022360679774997897</speed>
  <fix>3d</fix>
</trkpt>
<trkpt lat="40.0713749" lon="-105.229789">
  <ele>1583.0</ele>
  <time>2026-08-28T17:52:19Z</time>
  <course>0.0</course>
  <speed>0.0</speed>
  <fix>3d</fix>
</trkpt>
<trkpt lat="40.0713751" lon="-105.2297889">
  <ele>1582.95</ele>
  <time>2026-08-28T17:52:19Z</time>
  <course>247.12</course>
  <speed>0.022360679774997897</speed>
  <fix>3d</fix>
</trkpt>
<trkpt lat="40.0713749" lon="-105.229789">
  <ele>1583.0</ele>
  <time>2026-08-28T17:52:19Z</time>
  <course>0.0</course>
  <speed>0.0</speed>
  <fix>3d</fix>
</trkpt>
<trkpt lat="40.0713751" lon="-105.2297889">
  <ele>1582.95</ele>
  <time>2026-08-28T17:52:19Z</time>
  <course>247.11</course>
  <speed>0.022360679774997897</speed>
  <fix>3d</fix>
</trkpt>
<trkpt lat="40.0713749" lon="-105.229789">
  <ele>1583.0</ele>
  <time>2026-08-28T17:52:19Z</time>
  <course>0.0</course>
  <speed>0.0</speed>
  <fix>3d</fix>
</trkpt>
<trkpt lat="40.0713751" lon="-105.2297889">
  <ele>1582.96</ele>
  <time>2026-08-28T17:52:19Z</time>
  <course>247.11</course>
  <speed>0.022360679774997897</speed>
  <fix>3d</fix>
</trkpt>
<trkpt lat="40.0713749" lon="-105.229789">
  <ele>1583.0</ele>
  <time>2026-08-28T17:52:19Z</time>
  <course>0.0</course>
  <speed>0.0</speed>
  <fix>3d</fix>
</trkpt>
<trkpt lat="40.0713751" lon="-105.2297889">
  <ele>1582.97</ele>
  <time>2026-08-28T17:52:19Z</time>
  <course>247.11</course>
  <speed>0.022360679774997897</speed>
  <fix>3d</fix>
</trkpt>
<trkpt lat="40.0713749" lon="-105.229789">
  <ele>1583.0</ele>
  <time>2026-08-28T17:52:19Z</time>
  <course>0.0</course>
  <speed>0.0</speed>
  <fix>3d</fix>
</trkpt>
<trkpt lat="40.071375" lon="-105.2297889">
  <ele>1582.98</ele>
  <time>2026-08-28T17:52:19Z</time>
  <course>247.11</course>
  <speed>0.022360679774997897</speed>
  <fix>3d</fix>
</trkpt>
<trkpt lat="40.0713749" lon="-105.229789">
  <ele>1583.0</ele>
  <time>2026-08-28T17:52:19Z</time>
  <course>0.0</course>
  <speed>0.0</speed>
  <fix>3d</fix>
</trkpt>
<trkpt lat="40.0713751" lon="-105.2297889">
  <ele>1582.98</ele>
  <time>2026-08-28T17:52:19Z</time>
  <course>247.11</course>
  <speed>0.022360679774997897</speed>
  <fix>3d</fix>
</trkpt>
<trkpt lat="40.0713749" lon="-105.229789">
  <ele>1583.0</ele>
  <time>2026-08-28T17:52:19Z</time>
  <course>0.0</course>
  <speed>0.0</speed>
  <fix>3d</fix>
</trkpt>
<trkpt lat="40.071375" lon="-105.2297889">
  <ele>1582.99</ele>
  <time>2026-08-28T17:52:19Z</time>
  <course>247.11</course>
  <speed>0.022360679774997897</speed>
  <fix>3d</fix>
</trkpt>
<trkpt lat="40.071375" lon="-105.2297889">
  <ele>1582.99</ele>
  <time>2026-08-28T17:52:19Z</time>
  <course>247.11</course>
  <speed>0.022360679774997897</speed>
  <fix>3d</fix>
</trkpt>
<trkpt lat="40.0713749" lon="-105.229789">
  <ele>1583.0</ele>
  <time>2026-08-28T17:52:19Z</time>
  <course>0.0</course>
  <speed>0.0</speed>
  <fix>3d</fix>
</trkpt>
<trkpt lat="40.0713751" lon="-105.2297889">
  <ele>1582.99</ele>
  <time>2026-08-28T17:52:19Z</time>
  <course>247.11</course>
  <speed>0.022360679774997897</speed>
  <fix>3d</fix>
</trkpt>
<trkpt lat="40.0713749" lon="-105.229789">
  <ele>1583.0</ele>
  <time>2026-08-28T17:52:19Z</time>
  <course>0.0</course>
  <speed>0.0</speed>
  <fix>3d</fix>
</trkpt>
<trkpt lat="40.071375" lon="-105.2297889">
  <ele>1583.0</ele>
  <time>2026-08-28T17:52:19Z</time>
  <course>247.11</course>
  <speed>0.022360679774997897</speed>
  <fix>3d</fix>
</trkpt>
<trkpt lat="40.0713749" lon="-105.229789">
  <ele>1583.0</ele>
  <time>2026-08-28T17:52:19Z</time>
  <course>0.0</course>
  <speed>0.0</speed>
  <fix>3d</fix>
</trkpt>
<trkpt lat="40.0713751" lon="-105.2297889">
  <ele>1583.0</ele>
  <time>2026-08-28T17:52:19Z</time>
  <course>247.11</course>
  <speed>0.022360679774997897</speed>
  <fix>3d</fix>
</trkpt>
<trkpt lat="40.0713749" lon="-105.229789">
  <ele>1583.0</ele>
  <time>2026-08-28T17:52:19Z</time>
  <course>0.0</course>
  <speed>0.0</speed>
  <fix>3d</fix>
</trkpt>
<trkpt lat="40.0713751" lon="-105.2297889">
  <ele>1583.0</ele>
  <time>2026-08-28T17:52:19Z</time>
  <course>247.11</course>
  <speed>0.022360679774997897</speed>
  <fix>3d</fix>
</trkpt>
<trkpt lat="40.0713749" lon="-105.229789">
  <ele>1583.0</ele>
  <time>2026-08-28T17:52:19Z</time>
  <course>0.0</course>
  <speed>0.0</speed>
  <fix>3d</fix>
</trkpt>
<trkpt lat="40.0713751" lon="-105.2297889">
  <ele>1583.0</ele>
  <time>2026-08-28T17:52:19Z</time>
  <course>247.11</course>
  <speed>0.022360679774997897</speed>
  <fix>3d</fix>
</trkpt>
<trkpt lat="40.0713749" lon="-105.229789">
  <ele>1583.0</ele>
  <time>2026-08-28T17:52:19Z</time>
  <course>0.0</course>
  <speed>0.0</speed>
  <fix>3d</fix>
</trkpt>
<trkpt lat="40.0713751" lon="-105.2297889">
  <ele>1583.0</ele>
  <time>2026-08-28T17:52:19Z</time>
  <course>247.11</course>
  <speed>0.022360679774997897</speed>
  <fix>3d</fix>
</trkpt>
<trkpt lat="40.0713749" lon="-105.229789">
  <ele>1583.0</ele>
  <time>2026-08-28T17:52:19Z</time>
  <course>0.0</course>
  <speed>0.0</speed>
  <fix>3d</fix>
</trkpt>
<trkpt lat="40.0713751" lon="-105.2297889">
  <ele>1583.0</ele>
  <time>2026-08-28T17:52:19Z</time>
  <course>247.11</course>
  <speed>0.022360679774997897</speed>
  <fix>3d</fix>
</trkpt>
<trkpt lat="40.0713749" lon="-105.229789">
  <ele>1583.0</ele>
  <time>2026-08-28T17:52:19Z</time>
  <course>0.0</course>
  <speed>0.0</speed>
  <fix>3d</fix>
</trkpt>
<trkpt lat="40.0713751" lon="-105.2297889">
  <ele>1583.0</ele>
  <time>2026-08-28T17:52:19Z</time>
  <course>247.11</course>
  <speed>0.022360679774997897</speed>
  <fix>3d</fix>
</trkpt>
<trkpt lat="40.0713749" lon="-105.229789">
  <ele>1583.0</ele>
  <time>2026-08-28T17:52:19Z</time>
  <course>0.0</course>
  <speed>0.0</speed>
  <fix>3d</fix>
</trkpt>
<trkpt lat="40.0713751" lon="-105.2297889">
  <ele>1583.01</ele>
  <time>2026-08-28T17:52:19Z</time>
  <course>247.11</course>
  <speed>0.022360679774997897</speed>
  <fix>3d</fix>
</trkpt>
<trkpt lat="40.0713749" lon="-105.229789">
  <ele>1583.0</ele>
  <time>2026-08-28T17:52:19Z</time>
  <course>0.0</course>
  <speed>0.0</speed>
  <fix>3d</fix>
</trkpt>
<trkpt lat="40.0713751" lon="-105.2297889">
  <ele>1583.01</ele>
  <time>2026-08-28T17:52:19Z</time>
  <course>247.11</course>
  <speed>0.022360679774997897</speed>
  <fix>3d</fix>
</trkpt>
<trkpt lat="40.0713749" lon="-105.229789">
  <ele>1583.0</ele>
  <time>2026-08-28T17:52:19Z</time>
  <course>0.0</course>
  <speed>0.0</speed>
  <fix>3d</fix>
</trkpt>
<trkpt lat="40.0713751" lon="-105.2297889">
  <ele>1583.01</ele>
  <time>2026-08-28T17:52:19Z</time>
  <course>247.11</course>
  <speed>0.022360679774997897</speed>
  <fix>3d</fix>
</trkpt>
<trkpt lat="40.0713749" lon="-105.229789">
  <ele>1583.0</ele>
  <time>2026-08-28T17:52:19Z</time>
  <course>0.0</course>
  <speed>0.0</speed>
  <fix>3d</fix>
</trkpt>
<trkpt lat="40.0713751" lon="-105.2297889">
  <ele>1583.01</ele>
  <time>2026-08-28T17:52:19Z</time>
  <course>247.11</course>
  <speed>0.022360679774997897</speed>
  <fix>3d</fix>
</trkpt>
<trkpt lat="40.0713749" lon="-105.229789">
  <ele>1583.0</ele>
  <time>2026-08-28T17:52:19Z</time>
  <course>0.0</course>
  <speed>0.0</speed>
  <fix>3d</fix>
</trkpt>
<trkpt lat="40.0713751" lon="-105.2297889">
  <ele>1583.01</ele>
  <time>2026-08-28T17:52:19Z</time>
  <course>247.11</course>
  <speed>0.022360679774997897</speed>
  <fix>3d</fix>
</trkpt>
<trkpt lat="40.0713749" lon="-105.229789">
  <ele>1583.0</ele>
  <time>2026-08-28T17:52:19Z</time>
  <course>0.0</course>
  <speed>0.0</speed>
  <fix>3d</fix>
</trkpt>
<trkpt lat="40.0713751" lon="-105.2297889">
  <ele>1583.01</ele>
  <time>2026-08-28T17:52:19Z</time>
  <course>247.11</course>
  <speed>0.022360679774997897</speed>
  <fix>3d</fix>
</trkpt>
<trkpt lat="40.0713749" lon="-105.229789">
  <ele>1583.0</ele>
  <time>2026-08-28T17:52:19Z</time>
  <course>0.0</course>
  <speed>0.0</speed>
  <fix>3d</fix>
</trkpt>
<trkpt lat="40.0713751" lon="-105.2297889">
  <ele>1583.01</ele>
  <time>2026-08-28T17:52:19Z</time>
  <course>247.11</course>
  <speed>0.022360679774997897</speed>
  <fix>3d</fix>
</trkpt>
<trkpt lat="40.0713749" lon="-105.229789">
  <ele>1583.0</ele>
  <time>2026-08-28T17:52:19Z</time>
  <course>0.0</course>
  <speed>0.0</speed>
  <fix>3d</fix>
</trkpt>
<trkpt lat="40.071375" lon="-105.2297889">
  <ele>1583.01</ele>
  <time>2026-08-28T17:52:19Z</time>
  <course>247.11</course>
  <speed>0.022360679774997897</speed>
  <fix>3d</fix>
</trkpt>
<trkpt lat="40.0713749" lon="-105.229789">
  <ele>1583.0</ele>
  <time>2026-08-28T17:52:19Z</time>
  <course>0.0</course>
  <speed>0.0</speed>
  <fix>3d</fix>
</trkpt>
<trkpt lat="40.0713751" lon="-105.2297889">
  <ele>1583.01</ele>
  <time>2026-08-28T17:52:19Z</time>
  <course>247.11</course>
  <speed>0.022360679774997897</speed>
  <fix>3d</fix>
</trkpt>
<trkpt lat="40.0713749" lon="-105.229789">
  <ele>1583.0</ele>
  <time>2026-08-28T17:52:19Z</time>
  <course>0.0</course>
  <speed>0.0</speed>
  <fix>3d</fix>
</trkpt>
<trkpt lat="40.071375" lon="-105.2297889">
  <ele>1583.01</ele>
  <time>2026-08-28T17:52:19Z</time>
  <course>247.11</course>
  <speed>0.022360679774997897</speed>
  <fix>3d</fix>
</trkpt>
<trkpt lat="40.0713749" lon="-105.229789">
  <ele>1583.0</ele>
  <time>2026-08-28T17:52:19Z</time>
  <course>0.0</course>
  <speed>0.0</speed>
  <fix>3d</fix>
</trkpt>
<trkpt lat="40.0713751" lon="-105.2297889">
  <ele>1583.01</ele>
  <time>2026-08-28T17:52:19Z</time>
  <course>247.11</course>
  <speed>0.022360679774997897</speed>
  <fix>3d</fix>
</trkpt>
<trkpt lat="40.0713749" lon="-105.229789">
  <ele>1583.0</ele>
  <time>2026-08-28T17:52:19Z</time>
  <course>0.0</course>
  <speed>0.0</speed>
  <fix>3d</fix>
</trkpt>
<trkpt lat="40.071375" lon="-105.2297889">
  <ele>1583.01</ele>
  <time>2026-08-28T17:52:19Z</time>
  <course>247.11</course>
  <speed>0.022360679774997897</speed>
  <fix>3d</fix>
</trkpt>
<trkpt lat="40.0713749" lon="-105.229789">
  <ele>1583.0</ele>
  <time>2026-08-28T17:52:19Z</time>
  <course>0.0</course>
  <speed>0.0</speed>
  <fix>3d</fix>
</trkpt>
<trkpt lat="40.0713751" lon="-105.2297889">
  <ele>1583.01</ele>
  <time>2026-08-28T17:52:19Z</time>
  <course>247.11</course>
  <speed>0.022360679774997897</speed>
  <fix>3d</fix>
</trkpt>
<trkpt lat="40.0713749" lon="-105.229789">
  <ele>1583.0</ele>
  <time>2026-08-28T17:52:19Z</time>
  <course>0.0</course>
  <speed>0.0</speed>
  <fix>3d</fix>
</trkpt>
<trkpt lat="40.071375" lon="-105.2297889">
  <ele>1583.01</ele>
  <time>2026-08-28T17:52:19Z</time>
  <course>247.11</course>
  <speed>0.022360679774997897</speed>
  <fix>3d</fix>
</trkpt>
<trkpt lat="40.0713749" lon="-105.229789">
  <ele>1583.0</ele>
  <time>2026-08-28T17:52:19Z</time>
  <course>0.0</course>
  <speed>0.0</speed>
  <fix>3d</fix>
</trkpt>
<trkpt lat="40.0713751" lon="-105.2297889">
  <ele>1583.01</ele>
  <time>2026-08-28T17:52:19Z</time>
  <course>247.11</course>
  <speed>0.022360679774997897</speed>
  <fix>3d</fix>
</trkpt>
<trkpt lat="40.0713749" lon="-105.229789">
  <ele>1583.0</ele>
  <time>2026-08-28T17:52:19Z</time>
  <course>0.0</course>
  <speed>0.0</speed>
  <fix>3d</fix>
</trkpt>
<trkpt lat="40.071375" lon="-105.2297889">
  <ele>1583.0</ele>
  <time>2026-08-28T17:52:19Z</time>
  <course>247.11</course>
  <speed>0.022360679774997897</speed>
  <fix>3d</fix>
</trkpt>
<trkpt lat="40.0713749" lon="-105.229789">
  <ele>1583.0</ele>
  <time>2026-08-28T17:52:19Z</time>
  <course>0.0</course>
  <speed>0.0</speed>
  <fix>3d</fix>
</trkpt>
<trkpt lat="40.0713751" lon="-105.2297889">
  <ele>1583.0</ele>
  <time>2026-08-28T17:52:19Z</time>
  <course>247.11</course>
  <speed>0.022360679774997897</speed>
  <fix>3d</fix>
</trkpt>
<trkpt lat="40.0713749" lon="-105.229789">
  <ele>1583.0</ele>
  <time>2026-08-28T17:52:19Z</time>
  <course>0.0</course>
  <speed>0.0</speed>
  <fix>3d</fix>
</trkpt>
<trkpt lat="40.0713751" lon="-105.2297889">
  <ele>1583.0</ele>
  <time>2026-08-28T17:52:19Z</time>
  <course>247.11</course>
  <speed>0.022360679774997897</speed>
  <fix>3d</fix>
</trkpt>
<trkpt lat="40.0713749" lon="-105.229789">
  <ele>1583.0</ele>
  <time>2026-08-28T17:52:19Z</time>
  <course>0.0</course>
  <speed>0.0</speed>
  <fix>3d</fix>
</trkpt>
<trkpt lat="40.0713751" lon="-105.2297889">
  <ele>1583.0</ele>
  <time>2026-08-28T17:52:19Z</time>
  <course>247.11</course>
  <speed>0.022360679774997897</speed>
  <fix>3d</fix>
</trkpt>
<trkpt lat="40.0713749" lon="-105.229789">
  <ele>1583.0</ele>
  <time>2026-08-28T17:52:19Z</time>
  <course>0.0</course>
  <speed>0.0</speed>
  <fix>3d</fix>
</trkpt>
<trkpt lat="40.0713751" lon="-105.2297889">
  <ele>1583.0</ele>
  <time>2026-08-28T17:52:19Z</time>
  <course>247.11</course>
  <speed>0.022360679774997897</speed>
  <fix>3d</fix>
</trkpt>
<trkpt lat="40.0713749" lon="-105.229789">
  <ele>1583.0</ele>
  <time>2026-08-28T17:52:19Z</time>
  <course>0.0</course>
  <speed>0.0</speed>
  <fix>3d</fix>
</trkpt>
<trkpt lat="40.0713751" lon="-105.2297889">
  <ele>1583.0</ele>
  <time>2026-08-28T17:52:19Z</time>
  <course>247.11</course>
  <speed>0.022360679774997897</speed>
  <fix>3d</fix>
</trkpt>
<trkpt lat="40.0713749" lon="-105.229789">
  <ele>1583.0</ele>
  <time>2026-08-28T17:52:19Z</time>
  <course>0.0</course>
  <speed>0.0</speed>
  <fix>3d</fix>
</trkpt>
<trkpt lat="40.0713751" lon="-105.2297889">
  <ele>1583.0</ele>
  <time>2026-08-28T17:52:19Z</time>
  <course>247.11</course>
  <speed>0.022360679774997897</speed>
  <fix>3d</fix>
</trkpt>
<trkpt lat="40.0713749" lon="-105.229789">
  <ele>1583.0</ele>
  <time>2026-08-28T17:52:19Z</time>
  <course>0.0</course>
  <speed>0.0</speed>
  <fix>3d</fix>
</trkpt>
<trkpt lat="40.0713751" lon="-105.2297889">
  <ele>1583.0</ele>
  <time>2026-08-28T17:52:19Z</time>
  <course>247.11</course>
  <speed>0.022360679774997897</speed>
  <fix>3d</fix>
</trkpt>
<trkpt lat="40.0713749" lon="-105.229789">
  <ele>1583.0</ele>
  <time>2026-08-28T17:52:19Z</time>
  <course>0.0</course>
  <speed>0.0</speed>
  <fix>3d</fix>
</trkpt>
<trkpt lat="40.0713751" lon="-105.2297889">
  <ele>1582.99</ele>
  <time>2026-08-28T17:52:19Z</time>
  <course>247.11</course>
  <speed>0.022360679774997897</speed>
  <fix>3d</fix>
</trkpt>
<trkpt lat="40.0713749" lon="-105.229789">
  <ele>1583.0</ele>
  <time>2026-08-28T17:52:19Z</time>
  <course>0.0</course>
  <speed>0.0</speed>
  <fix>3d</fix>
</trkpt>
<trkpt lat="40.0713751" lon="-105.2297889">
  <ele>1582.99</ele>
  <time>2026-08-28T17:52:19Z</time>
  <course>247.11</course>
  <speed>0.022360679774997897</speed>
  <fix>3d</fix>
</trkpt>
<trkpt lat="40.0713749" lon="-105.229789">
  <ele>1583.0</ele>
  <time>2026-08-28T17:52:19Z</time>
  <course>0.0</course>
  <speed>0.0</speed>
  <fix>3d</fix>
</trkpt>
<trkpt lat="40.0713751" lon="-105.2297889">
  <ele>1582.99</ele>
  <time>2026-08-28T17:52:19Z</time>
  <course>247.11</course>
  <speed>0.022360679774997897</speed>
  <fix>3d</fix>
</trkpt>
<trkpt lat="40.0713749" lon="-105.229789">
  <ele>1583.0</ele>
  <time>2026-08-28T17:52:19Z</time>
  <course>0.0</course>
  <speed>0.0</speed>
  <fix>3d</fix>
</trkpt>
<trkpt lat="40.0713751" lon="-105.2297889">
  <ele>1582.99</ele>
  <time>2026-08-28T17:52:19Z</time>
  <course>247.11</course>
  <speed>0.022360679774997897</speed>
  <fix>3d</fix>
</trkpt>
<trkpt lat="40.0713749" lon="-105.229789">
  <ele>1583.0</ele>
  <time>2026-08-28T17:52:19Z</time>
  <course>0.0</course>
  <speed>0.0</speed>
  <fix>3d</fix>
</trkpt>
<trkpt lat="40.071375" lon="-105.2297889">
  <ele>1582.99</ele>
  <time>2026-08-28T17:52:19Z</time>
  <course>247.11</course>
  <speed>0.022360679774997897</speed>
  <fix>3d</fix>
</trkpt>
<trkpt lat="40.0713749" lon="-105.229789">
  <ele>1583.0</ele>
  <time>2026-08-28T17:52:19Z</time>
  <course>0.0</course>
  <speed>0.0</speed>
  <fix>3d</fix>
</trkpt>
<trkpt lat="40.0713751" lon="-105.2297889">
  <ele>1582.99</ele>
  <time>2026-08-28T17:52:19Z</time>
  <course>247.11</course>
  <speed>0.022360679774997897</speed>
  <fix>3d</fix>
</trkpt>
<trkpt lat="40.0713749" lon="-105.229789">
  <ele>1583.0</ele>
  <time>2026-08-28T17:52:19Z</time>
  <course>0.0</course>
  <speed>0.0</speed>
  <fix>3d</fix>
</trkpt>
<trkpt lat="40.071375" lon="-105.2297889">
  <ele>1582.99</ele>
  <time>2026-08-28T17:52:19Z</time>
  <course>247.11</course>
  <speed>0.022360679774997897</speed>
  <fix>3d</fix>
</trkpt>
<trkpt lat="40.0713749" lon="-105.229789">
  <ele>1583.0</ele>
  <time>2026-08-28T17:52:19Z</time>
  <course>0.0</course>
  <speed>0.0</speed>
  <fix>3d</fix>
</trkpt>
<trkpt lat="40.0713751" lon="-105.2297889">
  <ele>1582.99</ele>
  <time>2026-08-28T17:52:19Z</time>
  <course>247.11</course>
  <speed>0.022360679774997897</speed>
  <fix>3d</fix>
</trkpt>
<trkpt lat="40.0713749" lon="-105.229789">
  <ele>1583.0</ele>
  <time>2026-08-28T17:52:19Z</time>
  <course>0.0</course>
  <speed>0.0</speed>
  <fix>3d</fix>
</trkpt>
<trkpt lat="40.071375" lon="-105.2297889">
  <ele>1582.99</ele>
  <time>2026-08-28T17:52:19Z</time>
  <course>247.11</course>
  <speed>0.022360679774997897</speed>
  <fix>3d</fix>
</trkpt>
<trkpt lat="40.0713749" lon="-105.229789">
  <ele>1583.0</ele>
  <time>2026-08-28T17:52:19Z</time>
  <course>0.0</course>
  <speed>0.0</speed>
  <fix>3d</fix>
</trkpt>
<trkpt lat="40.0713751" lon="-105.2297889">
  <ele>1582.99</ele>
  <time>2026-08-28T17:52:19Z</time>
  <course>247.11</course>
  <speed>0.022360679774997897</speed>
  <fix>3d</fix>
</trkpt>
<trkpt lat="40.0713749" lon="-105.229789">
  <ele>1583.0</ele>
  <time>2026-08-28T17:52:19Z</time>
  <course>0.0</course>
  <speed>0.0</speed>
  <fix>3d</fix>
</trkpt>
<trkpt lat="40.071375" lon="-105.2297889">
  <ele>1582.99</ele>
  <time>2026-08-28T17:52:19Z</time>
  <course>247.11</course>
  <speed>0.022360679774997897</speed>
  <fix>3d</fix>
</trkpt>
<trkpt lat="40.0713749" lon="-105.229789">
  <ele>1583.0</ele>
  <time>2026-08-28T17:52:19Z</time>
  <course>0.0</course>
  <speed>0.0</speed>
  <fix>3d</fix>
</trkpt>
<trkpt lat="40.0713751" lon="-105.2297889">
  <ele>1582.98</ele>
  <time>2026-08-28T17:52:19Z</time>
  <course>247.11</course>
  <speed>0.022360679774997897</speed>
  <fix>3d</fix>
</trkpt>
<trkpt lat="40.0713749" lon="-105.229789">
  <ele>1583.0</ele>
  <time>2026-08-28T17:52:19Z</time>
  <course>0.0</course>
  <speed>0.0</speed>
  <fix>3d</fix>
</trkpt>
<trkpt lat="40.0713751" lon="-105.2297889">
  <ele>1582.98</ele>
  <time>2026-08-28T17:52:19Z</time>
  <course>247.11</course>
  <speed>0.022360679774997897</speed>
  <fix>3d</fix>
</trkpt>
<trkpt lat="40.0713749" lon="-105.229789">
  <ele>1583.0</ele>
  <time>2026-08-28T17:52:19Z</time>
  <course>0.0</course>
  <speed>0.0</speed>
  <fix>3d</fix>
</trkpt>
<trkpt lat="40.0713751" lon="-105.2297889">
  <ele>1582.98</ele>
  <time>2026-08-28T17:52:19Z</time>
  <course>247.11</course>
  <speed>0.022360679774997897</speed>
  <fix>3d</fix>
</trkpt>
<trkpt lat="40.0713749" lon="-105.229789">
  <ele>1583.0</ele>
  <time>2026-08-28T17:52:19Z</time>
  <course>0.0</course>
  <speed>0.0</speed>
  <fix>3d</fix>
</trkpt>
<trkpt lat="40.071375" lon="-105.2297889">
  <ele>1582.98</ele>
  <time>2026-08-28T17:52:19Z</time>
  <course>247.11</course>
  <speed>0.022360679774997897</speed>
  <fix>3d</fix>
</trkpt>
<trkpt lat="40.0713749" lon="-105.229789">
  <ele>1583.0</ele>
  <time>2026-08-28T17:52:19Z</time>
  <course>0.0</course>
  <speed>0.0</speed>
  <fix>3d</fix>
</trkpt>
<trkpt lat="40.0713751" lon="-105.2297889">
  <ele>1582.99</ele>
  <time>2026-08-28T17:52:19Z</time>
  <course>247.11</course>
  <speed>0.022360679774997897</speed>
  <fix>3d</fix>
</trkpt>
<trkpt lat="40.0713749" lon="-105.229789">
  <ele>1583.0</ele>
  <time>2026-08-28T17:52:19Z</time>
  <course>0.0</course>
  <speed>0.0</speed>
  <fix>3d</fix>
</trkpt>
<trkpt lat="40.0713751" lon="-105.2297889">
  <ele>1582.99</ele>
  <time>2026-08-28T17:52:19Z</time>
  <course>247.11</course>
  <speed>0.022360679774997897</speed>
  <fix>3d</fix>
</trkpt>
<trkpt lat="40.0713749" lon="-105.229789">
  <ele>1583.0</ele>
  <time>2026-08-28T17:52:19Z</time>
  <course>0.0</course>
  <speed>0.0</speed>
  <fix>3d</fix>
</trkpt>
<trkpt lat="40.0713751" lon="-105.2297889">
  <ele>1582.98</ele>
  <time>2026-08-28T17:52:19Z</time>
  <course>247.11</course>
  <speed>0.022360679774997897</speed>
  <fix>3d</fix>
</trkpt>
<trkpt lat="40.0713749" lon="-105.229789">
  <ele>1583.0</ele>
  <time>2026-08-28T17:52:19Z</time>
  <course>0.0</course>
  <speed>0.0</speed>
  <fix>3d</fix>
</trkpt>
<trkpt lat="40.0713751" lon="-105.2297889">
  <ele>1582.98</ele>
  <time>2026-08-28T17:52:19Z</time>
  <course>247.11</course>
  <speed>0.022360679774997897</speed>
  <fix>3d</fix>
</trkpt>
<trkpt lat="40.0713749" lon="-105.229789">
  <ele>1583.0</ele>
  <time>2026-08-28T17:52:19Z</time>
  <course>0.0</course>
  <speed>0.0</speed>
  <fix>3d</fix>
</trkpt>
<trkpt lat="40.0713751" lon="-105.2297889">
  <ele>1582.98</ele>
  <time>2026-08-28T17:52:19Z</time>
  <course>247.11</course>
  <speed>0.022360679774997897</speed>
  <fix>3d</fix>
</trkpt>
<trkpt lat="40.0713749" lon="-105.229789">
  <ele>1583.0</ele>
  <time>2026-08-28T17:52:19Z</time>
  <course>0.0</course>
  <speed>0.0</speed>
  <fix>3d</fix>
</trkpt>
<trkpt lat="40.0713751" lon="-105.2297889">
  <ele>1582.98</ele>
  <time>2026-08-28T17:52:19Z</time>
  <course>247.11</course>
  <speed>0.022360679774997897</speed>
  <fix>3d</fix>
</trkpt>
<trkpt lat="40.0713749" lon="-105.229789">
  <ele>1583.0</ele>
  <time>2026-08-28T17:52:19Z</time>
  <course>0.0</course>
  <speed>0.0</speed>
  <fix>3d</fix>
</trkpt>
<trkpt lat="40.0713751" lon="-105.2297889">
  <ele>1582.97</ele>
  <time>2026-08-28T17:52:19Z</time>
  <course>247.11</course>
  <speed>0.022360679774997897</speed>
  <fix>3d</fix>
</trkpt>
<trkpt lat="40.0713749" lon="-105.229789">
  <ele>1583.0</ele>
  <time>2026-08-28T17:52:19Z</time>
  <course>0.0</course>
  <speed>0.0</speed>
  <fix>3d</fix>
</trkpt>
<trkpt lat="40.0713751" lon="-105.2297889">
  <ele>1582.97</ele>
  <time>2026-08-28T17:52:19Z</time>
  <course>247.11</course>
  <speed>0.022360679774997897</speed>
  <fix>3d</fix>
</trkpt>
<trkpt lat="40.0713749" lon="-105.229789">
  <ele>1583.0</ele>
  <time>2026-08-28T17:52:19Z</time>
  <course>0.0</course>
  <speed>0.0</speed>
  <fix>3d</fix>
</trkpt>
<trkpt lat="40.0713751" lon="-105.2297889">
  <ele>1582.97</ele>
  <time>2026-08-28T17:52:19Z</time>
  <course>247.11</course>
  <speed>0.022360679774997897</speed>
  <fix>3d</fix>
</trkpt>
<trkpt lat="40.0713749" lon="-105.229789">
  <ele>1583.0</ele>
  <time>2026-08-28T17:52:19Z</time>
  <course>0.0</course>
  <speed>0.0</speed>
  <fix>3d</fix>
</trkpt>
<trkpt lat="40.071375" lon="-105.2297889">
  <ele>1582.97</ele>
  <time>2026-08-28T17:52:19Z</time>
  <course>247.11</course>
  <speed>0.022360679774997897</speed>
  <fix>3d</fix>
</trkpt>
<trkpt lat="40.0713749" lon="-105.229789">
  <ele>1583.0</ele>
  <time>2026-08-28T17:52:19Z</time>
  <course>0.0</course>
  <speed>0.0</speed>
  <fix>3d</fix>
</trkpt>
<trkpt lat="40.0713751" lon="-105.2297889">
  <ele>1582.97</ele>
  <time>2026-08-28T17:52:19Z</time>
  <course>247.11</course>
  <speed>0.022360679774997897</speed>
  <fix>3d</fix>
</trkpt>
<trkpt lat="40.0713749" lon="-105.229789">
  <ele>1583.0</ele>
  <time>2026-08-28T17:52:19Z</time>
  <course>0.0</course>
  <speed>0.0</speed>
  <fix>3d</fix>
</trkpt>
<trkpt lat="40.071375" lon="-105.2297889">
  <ele>1582.97</ele>
  <time>2026-08-28T17:52:19Z</time>
  <course>247.11</course>
  <speed>0.022360679774997897</speed>
  <fix>3d</fix>
</trkpt>
<trkpt lat="40.0713749" lon="-105.229789">
  <ele>1583.0</ele>
  <time>2026-08-28T17:52:19Z</time>
  <course>0.0</course>
  <speed>0.0</speed>
  <fix>3d</fix>
</trkpt>
<trkpt lat="40.0713751" lon="-105.2297889">
  <ele>1582.97</ele>
  <time>2026-08-28T17:52:19Z</time>
  <course>247.11</course>
  <speed>0.022360679774997897</speed>
  <fix>3d</fix>
</trkpt>
<trkpt lat="40.0713749" lon="-105.229789">
  <ele>1583.0</ele>
  <time>2026-08-28T17:52:19Z</time>
  <course>0.0</course>
  <speed>0.0</speed>
  <fix>3d</fix>
</trkpt>
<trkpt lat="40.071375" lon="-105.2297889">
  <ele>1582.98</ele>
  <time>2026-08-28T17:52:19Z</time>
  <course>247.11</course>
  <speed>0.022360679774997897</speed>
  <fix>3d</fix>
</trkpt>
<trkpt lat="40.0713749" lon="-105.229789">
  <ele>1583.0</ele>
  <time>2026-08-28T17:52:19Z</time>
  <course>0.0</course>
  <speed>0.0</speed>
  <fix>3d</fix>
</trkpt>
<trkpt lat="40.0713751" lon="-105.2297889">
  <ele>1582.98</ele>
  <time>2026-08-28T17:52:19Z</time>
  <course>247.11</course>
  <speed>0.022360679774997897</speed>
  <fix>3d</fix>
</trkpt>
<trkpt lat="40.0713749" lon="-105.229789">
  <ele>1583.0</ele>
  <time>2026-08-28T17:52:19Z</time>
  <course>0.0</course>
  <speed>0.0</speed>
  <fix>3d</fix>
</trkpt>
<trkpt lat="40.071375" lon="-105.2297889">
  <ele>1582.98</ele>
  <time>2026-08-28T17:52:19Z</time>
  <course>247.11</course>
  <speed>0.022360679774997897</speed>
  <fix>3d</fix>
</trkpt>
<trkpt lat="40.0713749" lon="-105.229789">
  <ele>1583.0</ele>
  <time>2026-08-28T17:52:19Z</time>
  <course>0.0</course>
  <speed>0.0</speed>
  <fix>3d</fix>
</trkpt>
<trkpt lat="40.0713751" lon="-105.2297889">
  <ele>1582.98</ele>
  <time>2026-08-28T17:52:19Z</time>
  <course>247.11</course>
  <speed>0.022360679774997897</speed>
  <fix>3d</fix>
</trkpt>
<trkpt lat="40.0713749" lon="-105.229789">
  <ele>1583.0</ele>
  <time>2026-08-28T17:52:19Z</time>
  <course>0.0</course>
  <speed>0.0</speed>
  <fix>3d</fix>
</trkpt>
<trkpt lat="40.071375" lon="-105.2297889">
  <ele>1582.98</ele>
  <time>2026-08-28T17:52:19Z</time>
  <course>247.11</course>
  <speed>0.022360679774997897</speed>
  <fix>3d</fix>
</trkpt>
<trkpt lat="40.0713749" lon="-105.229789">
  <ele>1583.0</ele>
  <time>2026-08-28T17:52:19Z</time>
  <course>0.0</course>
  <speed>0.0</speed>
  <fix>3d</fix>
</trkpt>
<trkpt lat="40.0713751" lon="-105.2297889">
  <ele>1582.97</ele>
  <time>2026-08-28T17:52:19Z</time>
  <course>247.11</course>
  <speed>0.022360679774997897</speed>
  <fix>3d</fix>
</trkpt>
<trkpt lat="40.0713749" lon="-105.229789">
  <ele>1583.0</ele>
  <time>2026-08-28T17:52:19Z</time>
  <course>0.0</course>
  <speed>0.0</speed>
  <fix>3d</fix>
</trkpt>
<trkpt lat="40.071375" lon="-105.2297889">
  <ele>1582.97</ele>
  <time>2026-08-28T17:52:19Z</time>
  <course>247.11</course>
  <speed>0.022360679774997897</speed>
  <fix>3d</fix>
</trkpt>
<trkpt lat="40.0713749" lon="-105.229789">
  <ele>1583.0</ele>
  <time>2026-08-28T17:52:19Z</time>
  <course>0.0</course>
  <speed>0.0</speed>
  <fix>3d</fix>
</trkpt>
<trkpt lat="40.0713751" lon="-105.2297889">
  <ele>1582.97</ele>
  <time>2026-08-28T17:52:19Z</time>
  <course>247.11</course>
  <speed>0.022360679774997897</speed>
  <fix>3d</fix>
</trkpt>
<trkpt lat="40.0713749" lon="-105.229789">
  <ele>1583.0</ele>
  <time>2026-08-28T17:52:19Z</time>
  <course>0.0</course>
  <speed>0.0</speed>
  <fix>3d</fix>
</trkpt>
<trkpt lat="40.071375" lon="-105.2297889">
  <ele>1582.97</ele>
  <time>2026-08-28T17:52:19Z</time>
  <course>247.11</course>
  <speed>0.022360679774997897</speed>
  <fix>3d</fix>
</trkpt>
<trkpt lat="40.0713749" lon="-105.229789">
  <ele>1583.0</ele>
  <time>2026-08-28T17:52:19Z</time>
  <course>0.0</course>
  <speed>0.0</speed>
  <fix>3d</fix>
</trkpt>
<trkpt lat="40.0713751" lon="-105.2297889">
  <ele>1582.97</ele>
  <time>2026-08-28T17:52:19Z</time>
  <course>247.11</course>
  <speed>0.022360679774997897</speed>
  <fix>3d</fix>
</trkpt>
<trkpt lat="40.0713749" lon="-105.229789">
  <ele>1583.0</ele>
  <time>2026-08-28T17:52:19Z</time>
  <course>0.0</course>
  <speed>0.0</speed>
  <fix>3d</fix>
</trkpt>
<trkpt lat="40.0713751" lon="-105.2297889">
  <ele>1582.97</ele>
  <time>2026-08-28T17:52:19Z</time>
  <course>247.11</course>
  <speed>0.022360679774997897</speed>
  <fix>3d</fix>
</trkpt>
<trkpt lat="40.0713749" lon="-105.229789">
  <ele>1583.0</ele>
  <time>2026-08-28T17:52:19Z</time>
  <course>0.0</course>
  <speed>0.0</speed>
  <fix>3d</fix>
</trkpt>
<trkpt lat="40.0713751" lon="-105.2297889">
  <ele>1582.96</ele>
  <time>2026-08-28T17:52:19Z</time>
  <course>247.11</course>
  <speed>0.022360679774997897</speed>
  <fix>3d</fix>
</trkpt>
<trkpt lat="40.0713749" lon="-105.229789">
  <ele>1583.0</ele>
  <time>2026-08-28T17:52:19Z</time>
  <course>0.0</course>
  <speed>0.0</speed>
  <fix>3d</fix>
</trkpt>
<trkpt lat="40.0713751" lon="-105.2297889">
  <ele>1582.96</ele>
  <time>2026-08-28T17:52:19Z</time>
  <course>247.11</course>
  <speed>0.022360679774997897</speed>
  <fix>3d</fix>
</trkpt>
<trkpt lat="40.0713749" lon="-105.229789">
  <ele>1583.0</ele>
  <time>2026-08-28T17:52:19Z</time>
  <course>0.0</course>
  <speed>0.0</speed>
  <fix>3d</fix>
</trkpt>
<trkpt lat="40.0713751" lon="-105.2297889">
  <ele>1582.96</ele>
  <time>2026-08-28T17:52:19Z</time>
  <course>247.11</course>
  <speed>0.022360679774997897</speed>
  <fix>3d</fix>
</trkpt>
<trkpt lat="40.0713749" lon="-105.229789">
  <ele>1583.0</ele>
  <time>2026-08-28T17:52:19Z</time>
  <course>0.0</course>
  <speed>0.0</speed>
  <fix>3d</fix>
</trkpt>
<trkpt lat="40.0713751" lon="-105.2297889">
  <ele>1582.95</ele>
  <time>2026-08-28T17:52:19Z</time>
  <course>247.11</course>
  <speed>0.022360679774997897</speed>
  <fix>3d</fix>
</trkpt>
<trkpt lat="40.0713749" lon="-105.229789">
  <ele>1583.0</ele>
  <time>2026-08-28T17:52:19Z</time>
  <course>0.0</course>
  <speed>0.0</speed>
  <fix>3d</fix>
</trkpt>
<trkpt lat="40.0713751" lon="-105.2297889">
  <ele>1582.95</ele>
  <time>2026-08-28T17:52:19Z</time>
  <course>247.11</course>
  <speed>0.022360679774997897</speed>
  <fix>3d</fix>
</trkpt>
<trkpt lat="40.0713749" lon="-105.229789">
  <ele>1583.0</ele>
  <time>2026-08-28T17:52:19Z</time>
  <course>0.0</course>
  <speed>0.0</speed>
  <fix>3d</fix>
</trkpt>
<trkpt lat="40.071375" lon="-105.2297889">
  <ele>1582.95</ele>
  <time>2026-08-28T17:52:19Z</time>
  <course>247.11</course>
  <speed>0.022360679774997897</speed>
  <fix>3d</fix>
</trkpt>
<trkpt lat="40.0713749" lon="-105.229789">
  <ele>1583.0</ele>
  <time>2026-08-28T17:52:19Z</time>
  <course>0.0</course>
  <speed>0.0</speed>
  <fix>3d</fix>
</trkpt>
<trkpt lat="40.0713751" lon="-105.2297889">
  <ele>1582.94</ele>
  <time>2026-08-28T17:52:19Z</time>
  <course>247.11</course>
  <speed>0.022360679774997897</speed>
  <fix>3d</fix>
</trkpt>
<trkpt lat="40.0713749" lon="-105.229789">
  <ele>1583.0</ele>
  <time>2026-08-28T17:52:19Z</time>
  <course>0.0</course>
  <speed>0.0</speed>
  <fix>3d</fix>
</trkpt>
<trkpt lat="40.071375" lon="-105.2297889">
  <ele>1582.94</ele>
  <time>2026-08-28T17:52:19Z</time>
  <course>247.11</course>
  <speed>0.022360679774997897</speed>
  <fix>3d</fix>
</trkpt>
<trkpt lat="40.0713749" lon="-105.229789">
  <ele>1583.0</ele>
  <time>2026-08-28T17:52:19Z</time>
  <course>0.0</course>
  <speed>0.0</speed>
  <fix>3d</fix>
</trkpt>
<trkpt lat="40.0713751" lon="-105.2297889">
  <ele>1582.93</ele>
  <time>2026-08-28T17:52:19Z</time>
  <course>247.11</course>
  <speed>0.022360679774997897</speed>
  <fix>3d</fix>
</trkpt>
<trkpt lat="40.0713749" lon="-105.229789">
  <ele>1583.0</ele>
  <time>2026-08-28T17:52:19Z</time>
  <course>0.0</course>
  <speed>0.0</speed>
  <fix>3d</fix>
</trkpt>
<trkpt lat="40.071375" lon="-105.2297889">
  <ele>1582.93</ele>
  <time>2026-08-28T17:52:19Z</time>
  <course>247.11</course>
  <speed>0.022360679774997897</speed>
  <fix>3d</fix>
</trkpt>
<trkpt lat="40.0713749" lon="-105.229789">
  <ele>1583.0</ele>
  <time>2026-08-28T17:52:19Z</time>
  <course>0.0</course>
  <speed>0.0</speed>
  <fix>3d</fix>
</trkpt>
<trkpt lat="40.0713751" lon="-105.2297889">
  <ele>1582.93</ele>
  <time>2026-08-28T17:52:19Z</time>
  <course>247.11</course>
  <speed>0.022360679774997897</speed>
  <fix>3d</fix>
</trkpt>
<trkpt lat="40.0713749" lon="-105.229789">
  <ele>1583.0</ele>
  <time>2026-08-28T17:52:19Z</time>
  <course>0.0</course>
  <speed>0.0</speed>
  <fix>3d</fix>
</trkpt>
<trkpt lat="40.071375" lon="-105.2297889">
  <ele>1582.93</ele>
  <time>2026-08-28T17:52:19Z</time>
  <course>247.11</course>
  <speed>0.022360679774997897</speed>
  <fix>3d</fix>
</trkpt>
<trkpt lat="40.0713749" lon="-105.229789">
  <ele>1583.0</ele>
  <time>2026-08-28T17:52:19Z</time>
  <course>0.0</course>
  <speed>0.0</speed>
  <fix>3d</fix>
</trkpt>
<trkpt lat="40.0713751" lon="-105.2297889">
  <ele>1582.93</ele>
  <time>2026-08-28T17:52:19Z</time>
  <course>247.11</course>
  <speed>0.022360679774997897</speed>
  <fix>3d</fix>
</trkpt>
<trkpt lat="40.0713749" lon="-105.229789">
  <ele>1583.0</ele>
  <time>2026-08-28T17:52:19Z</time>
  <course>0.0</course>
  <speed>0.0</speed>
  <fix>3d</fix>
</trkpt>
<trkpt lat="40.071375" lon="-105.2297889">
  <ele>1582.93</ele>
  <time>2026-08-28T17:52:19Z</time>
  <course>247.11</course>
  <speed>0.022360679774997897</speed>
  <fix>3d</fix>
</trkpt>
<trkpt lat="40.0713749" lon="-105.229789">
  <ele>1583.0</ele>
  <time>2026-08-28T17:52:19Z</time>
  <course>0.0</course>
  <speed>0.0</speed>
  <fix>3d</fix>
</trkpt>
<trkpt lat="40.0713751" lon="-105.2297889">
  <ele>1582.93</ele>
  <time>2026-08-28T17:52:19Z</time>
  <course>247.11</course>
  <speed>0.022360679774997897</speed>
  <fix>3d</fix>
</trkpt>
<trkpt lat="40.0713749" lon="-105.229789">
  <ele>1583.0</ele>
  <time>2026-08-28T17:52:19Z</time>
  <course>0.0</course>
  <speed>0.0</speed>
  <fix>3d</fix>
</trkpt>
<trkpt lat="40.0713751" lon="-105.2297889">
  <ele>1582.94</ele>
  <time>2026-08-28T17:52:19Z</time>
  <course>247.11</course>
  <speed>0.022360679774997897</speed>
  <fix>3d</fix>
</trkpt>
<trkpt lat="40.0713749" lon="-105.229789">
  <ele>1583.0</ele>
  <time>2026-08-28T17:52:19Z</time>
  <course>0.0</course>
  <speed>0.0</speed>
  <fix>3d</fix>
</trkpt>
<trkpt lat="40.0713751" lon="-105.2297889">
  <ele>1582.95</ele>
  <time>2026-08-28T17:52:19Z</time>
  <course>247.11</course>
  <speed>0.022360679774997897</speed>
  <fix>3d</fix>
</trkpt>
<trkpt lat="40.0713749" lon="-105.229789">
  <ele>1583.0</ele>
  <time>2026-08-28T17:52:19Z</time>
  <course>0.0</course>
  <speed>0.0</speed>
  <fix>3d</fix>
</trkpt>
<trkpt lat="40.0713751" lon="-105.2297889">
  <ele>1582.95</ele>
  <time>2026-08-28T17:52:19Z</time>
  <course>247.11</course>
  <speed>0.022360679774997897</speed>
  <fix>3d</fix>
</trkpt>
<trkpt lat="40.0713749" lon="-105.229789">
  <ele>1583.0</ele>
  <time>2026-08-28T17:52:19Z</time>
  <course>0.0</course>
  <speed>0.0</speed>
  <fix>3d</fix>
</trkpt>
<trkpt lat="40.0713751" lon="-105.2297889">
  <ele>1582.96</ele>
  <time>2026-08-28T17:52:19Z</time>
  <course>247.11</course>
  <speed>0.022360679774997897</speed>
  <fix>3d</fix>
</trkpt>
<trkpt lat="40.0713749" lon="-105.229789">
  <ele>1583.0</ele>
  <time>2026-08-28T17:52:19Z</time>
  <course>0.0</course>
  <speed>0.0</speed>
  <fix>3d</fix>
</trkpt>
<trkpt lat="40.0713751" lon="-105.2297889">
  <ele>1582.97</ele>
  <time>2026-08-28T17:52:19Z</time>
  <course>247.11</course>
  <speed>0.022360679774997897</speed>
  <fix>3d</fix>
</trkpt>
<trkpt lat="40.0713749" lon="-105.229789">
  <ele>1583.0</ele>
  <time>2026-08-28T17:52:19Z</time>
  <course>0.0</course>
  <speed>0.0</speed>
  <fix>3d</fix>
</trkpt>
<trkpt lat="40.0713751" lon="-105.2297889">
  <ele>1582.97</ele>
  <time>2026-08-28T17:52:19Z</time>
  <course>247.11</course>
  <speed>0.022360679774997897</speed>
  <fix>3d</fix>
</trkpt>
<trkpt lat="40.0713749" lon="-105.229789">
  <ele>1583.0</ele>
  <time>2026-08-28T17:52:19Z</time>
  <course>0.0</course>
  <speed>0.0</speed>
  <fix>3d</fix>
</trkpt>
<trkpt lat="40.0713751" lon="-105.2297889">
  <ele>1582.97</ele>
  <time>2026-08-28T17:52:19Z</time>
  <course>247.11</course>
  <speed>0.022360679774997897</speed>
  <fix>3d</fix>
</trkpt>
<trkpt lat="40.0713749" lon="-105.229789">
  <ele>1583.0</ele>
  <time>2026-08-28T17:52:19Z</time>
  <course>0.0</course>
  <speed>0.0</speed>
  <fix>3d</fix>
</trkpt>
<trkpt lat="40.0713751" lon="-105.2297889">
  <ele>1582.98</ele>
  <time>2026-08-28T17:52:19Z</time>
  <course>247.11</course>
  <speed>0.022360679774997897</speed>
  <fix>3d</fix>
</trkpt>
<trkpt lat="40.0713749" lon="-105.229789">
  <ele>1583.0</ele>
  <time>2026-08-28T17:52:19Z</time>
  <course>0.0</course>
  <speed>0.0</speed>
  <fix>3d</fix>
</trkpt>
<trkpt lat="40.0713751" lon="-105.2297889">
  <ele>1582.98</ele>
  <time>2026-08-28T17:52:19Z</time>
  <course>247.11</course>
  <speed>0.022360679774997897</speed>
  <fix>3d</fix>
</trkpt>
<trkpt lat="40.0713749" lon="-105.229789">
  <ele>1583.0</ele>
  <time>2026-08-28T17:52:19Z</time>
  <course>0.0</course>
  <speed>0.0</speed>
  <fix>3d</fix>
</trkpt>
<trkpt lat="40.0713751" lon="-105.2297889">
  <ele>1582.98</ele>
  <time>2026-08-28T17:52:19Z</time>
  <course>247.11</course>
  <speed>0.022360679774997897</speed>
  <fix>3d</fix>
</trkpt>
<trkpt lat="40.0713749" lon="-105.229789">
  <ele>1583.0</ele>
  <time>2026-08-28T17:52:19Z</time>
  <course>0.0</course>
  <speed>0.0</speed>
  <fix>3d</fix>
</trkpt>
<trkpt lat="40.0713751" lon="-105.2297889">
  <ele>1582.98</ele>
  <time>2026-08-28T17:52:19Z</time>
  <course>247.11</course>
  <speed>0.022360679774997897</speed>
  <fix>3d</fix>
</trkpt>
<trkpt lat="40.0713749" lon="-105.229789">
  <ele>1583.0</ele>
  <time>2026-08-28T17:52:19Z</time>
  <course>0.0</course>
  <speed>0.0</speed>
  <fix>3d</fix>
</trkpt>
<trkpt lat="40.0713751" lon="-105.2297889">
  <ele>1582.98</ele>
  <time>2026-08-28T17:52:19Z</time>
  <course>247.11</course>
  <speed>0.022360679774997897</speed>
  <fix>3d</fix>
</trkpt>
<trkpt lat="40.0713749" lon="-105.229789">
  <ele>1583.0</ele>
  <time>2026-08-28T17:52:19Z</time>
  <course>0.0</course>
  <speed>0.0</speed>
  <fix>3d</fix>
</trkpt>
<trkpt lat="40.0713751" lon="-105.2297889">
  <ele>1582.98</ele>
  <time>2026-08-28T17:52:19Z</time>
  <course>247.11</course>
  <speed>0.022360679774997897</speed>
  <fix>3d</fix>
</trkpt>
<trkpt lat="40.0713749" lon="-105.229789">
  <ele>1583.0</ele>
  <time>2026-08-28T17:52:19Z</time>
  <course>0.0</course>
  <speed>0.0</speed>
  <fix>3d</fix>
</trkpt>
<trkpt lat="40.0713751" lon="-105.2297889">
  <ele>1582.98</ele>
  <time>2026-08-28T17:52:19Z</time>
  <course>247.11</course>
  <speed>0.022360679774997897</speed>
  <fix>3d</fix>
</trkpt>
<trkpt lat="40.0713749" lon="-105.229789">
  <ele>1583.0</ele>
  <time>2026-08-28T17:52:19Z</time>
  <course>0.0</course>
  <speed>0.0</speed>
  <fix>3d</fix>
</trkpt>
<trkpt lat="40.0713751" lon="-105.2297889">
  <ele>1582.98</ele>
  <time>2026-08-28T17:52:19Z</time>
  <course>247.11</course>
  <speed>0.022360679774997897</speed>
  <fix>3d</fix>
</trkpt>
<trkpt lat="40.0713749" lon="-105.229789">
  <ele>1583.0</ele>
  <time>2026-08-28T17:52:19Z</time>
  <course>0.0</course>
  <speed>0.0</speed>
  <fix>3d</fix>
</trkpt>
<trkpt lat="40.0713751" lon="-105.2297889">
  <ele>1582.99</ele>
  <time>2026-08-28T17:52:19Z</time>
  <course>247.11</course>
  <speed>0.022360679774997897</speed>
  <fix>3d</fix>
</trkpt>
<trkpt lat="40.0713749" lon="-105.229789">
  <ele>1583.0</ele>
  <time>2026-08-28T17:52:19Z</time>
  <course>0.0</course>
  <speed>0.0</speed>
  <fix>3d</fix>
</trkpt>
<trkpt lat="40.0713751" lon="-105.2297889">
  <ele>1582.99</ele>
  <time>2026-08-28T17:52:19Z</time>
  <course>247.11</course>
  <speed>0.022360679774997897</speed>
  <fix>3d</fix>
</trkpt>
<trkpt lat="40.0713749" lon="-105.229789">
  <ele>1583.0</ele>
  <time>2026-08-28T17:52:19Z</time>
  <course>0.0</course>
  <speed>0.0</speed>
  <fix>3d</fix>
</trkpt>
<trkpt lat="40.0713751" lon="-105.2297889">
  <ele>1582.99</ele>
  <time>2026-08-28T17:52:19Z</time>
  <course>247.11</course>
  <speed>0.022360679774997897</speed>
  <fix>3d</fix>
</trkpt>
<trkpt lat="40.0713749" lon="-105.229789">
  <ele>1583.0</ele>
  <time>2026-08-28T17:52:19Z</time>
  <course>0.0</course>
  <speed>0.0</speed>
  <fix>3d</fix>
</trkpt>
<trkpt lat="40.0713751" lon="-105.2297889">
  <ele>1582.99</ele>
  <time>2026-08-28T17:52:19Z</time>
  <course>247.1</course>
  <speed>0.022360679774997897</speed>
  <fix>3d</fix>
</trkpt>
<trkpt lat="40.0713749" lon="-105.229789">
  <ele>1583.0</ele>
  <time>2026-08-28T17:52:19Z</time>
  <course>0.0</course>
  <speed>0.0</speed>
  <fix>3d</fix>
</trkpt>
<trkpt lat="40.0713751" lon="-105.2297889">
  <ele>1582.99</ele>
  <time>2026-08-28T17:52:19Z</time>
  <course>247.11</course>
  <speed>0.022360679774997897</speed>
  <fix>3d</fix>
</trkpt>
<trkpt lat="40.0713749" lon="-105.229789">
  <ele>1583.0</ele>
  <time>2026-08-28T17:52:19Z</time>
  <course>0.0</course>
  <speed>0.0</speed>
  <fix>3d</fix>
</trkpt>
<trkpt lat="40.0713751" lon="-105.2297889">
  <ele>1583.0</ele>
  <time>2026-08-28T17:52:19Z</time>
  <course>247.11</course>
  <speed>0.022360679774997897</speed>
  <fix>3d</fix>
</trkpt>
<trkpt lat="40.0713749" lon="-105.229789">
  <ele>1583.0</ele>
  <time>2026-08-28T17:52:19Z</time>
  <course>0.0</course>
  <speed>0.0</speed>
  <fix>3d</fix>
</trkpt>
<trkpt lat="40.0713751" lon="-105.2297889">
  <ele>1583.0</ele>
  <time>2026-08-28T17:52:19Z</time>
  <course>247.11</course>
  <speed>0.022360679774997897</speed>
  <fix>3d</fix>
</trkpt>
<trkpt lat="40.0713749" lon="-105.229789">
  <ele>1583.0</ele>
  <time>2026-08-28T17:52:19Z</time>
  <course>0.0</course>
  <speed>0.0</speed>
  <fix>3d</fix>
</trkpt>
<trkpt lat="40.0713751" lon="-105.2297889">
  <ele>1583.0</ele>
  <time>2026-08-28T17:52:19Z</time>
  <course>247.11</course>
  <speed>0.022360679774997897</speed>
  <fix>3d</fix>
</trkpt>
<trkpt lat="40.0713749" lon="-105.229789">
  <ele>1583.0</ele>
  <time>2026-08-28T17:52:19Z</time>
  <course>0.0</course>
  <speed>0.0</speed>
  <fix>3d</fix>
</trkpt>
<trkpt lat="40.0713751" lon="-105.2297889">
  <ele>1583.01</ele>
  <time>2026-08-28T17:52:19Z</time>
  <course>247.11</course>
  <speed>0.022360679774997897</speed>
  <fix>3d</fix>
</trkpt>
<trkpt lat="40.0713749" lon="-105.229789">
  <ele>1583.0</ele>
  <time>2026-08-28T17:52:19Z</time>
  <course>0.0</course>
  <speed>0.0</speed>
  <fix>3d</fix>
</trkpt>
<trkpt lat="40.0713751" lon="-105.2297889">
  <ele>1583.01</ele>
  <time>2026-08-28T17:52:19Z</time>
  <course>247.11</course>
  <speed>0.022360679774997897</speed>
  <fix>3d</fix>
</trkpt>
<trkpt lat="40.0713749" lon="-105.229789">
  <ele>1583.0</ele>
  <time>2026-08-28T17:52:19Z</time>
  <course>0.0</course>
  <speed>0.0</speed>
  <fix>3d</fix>
</trkpt>
<trkpt lat="40.0713751" lon="-105.2297889">
  <ele>1583.02</ele>
  <time>2026-08-28T17:52:20Z</time>
  <course>247.11</course>
  <speed>0.022360679774997897</speed>
  <fix>3d</fix>
</trkpt>
<trkpt lat="40.0713749" lon="-105.229789">
  <ele>1583.0</ele>
  <time>2026-08-28T17:52:20Z</time>
  <course>0.0</course>
  <speed>0.0</speed>
  <fix>3d</fix>
</trkpt>
<trkpt lat="40.0713751" lon="-105.2297889">
  <ele>1583.02</ele>
  <time>2026-08-28T17:52:20Z</time>
  <course>247.11</course>
  <speed>0.022360679774997897</speed>
  <fix>3d</fix>
</trkpt>
<trkpt lat="40.0713749" lon="-105.229789">
  <ele>1583.0</ele>
  <time>2026-08-28T17:52:20Z</time>
  <course>0.0</course>
  <speed>0.0</speed>
  <fix>3d</fix>
</trkpt>
<trkpt lat="40.0713751" lon="-105.2297889">
  <ele>1583.02</ele>
  <time>2026-08-28T17:52:20Z</time>
  <course>247.11</course>
  <speed>0.022360679774997897</speed>
  <fix>3d</fix>
</trkpt>
<trkpt lat="40.0713749" lon="-105.229789">
  <ele>1583.0</ele>
  <time>2026-08-28T17:52:20Z</time>
  <course>0.0</course>
  <speed>0.0</speed>
  <fix>3d</fix>
</trkpt>
<trkpt lat="40.0713751" lon="-105.2297889">
  <ele>1583.03</ele>
  <time>2026-08-28T17:52:20Z</time>
  <course>247.11</course>
  <speed>0.022360679774997897</speed>
  <fix>3d</fix>
</trkpt>
<trkpt lat="40.0713749" lon="-105.229789">
  <ele>1583.0</ele>
  <time>2026-08-28T17:52:20Z</time>
  <course>0.0</course>
  <speed>0.0</speed>
  <fix>3d</fix>
</trkpt>
<trkpt lat="40.0713751" lon="-105.2297889">
  <ele>1583.04</ele>
  <time>2026-08-28T17:52:20Z</time>
  <course>247.1</course>
  <speed>0.022360679774997897</speed>
  <fix>3d</fix>
</trkpt>
<trkpt lat="40.0713749" lon="-105.229789">
  <ele>1583.0</ele>
  <time>2026-08-28T17:52:20Z</time>
  <course>0.0</course>
  <speed>0.0</speed>
  <fix>3d</fix>
</trkpt>
<trkpt lat="40.0713751" lon="-105.2297889">
  <ele>1583.04</ele>
  <time>2026-08-28T17:52:20Z</time>
  <course>247.1</course>
  <speed>0.022360679774997897</speed>
  <fix>3d</fix>
</trkpt>
<trkpt lat="40.0713749" lon="-105.229789">
  <ele>1583.0</ele>
  <time>2026-08-28T17:52:20Z</time>
  <course>0.0</course>
  <speed>0.0</speed>
  <fix>3d</fix>
</trkpt>
<trkpt lat="40.0713751" lon="-105.2297889">
  <ele>1583.04</ele>
  <time>2026-08-28T17:52:20Z</time>
  <course>247.1</course>
  <speed>0.022360679774997897</speed>
  <fix>3d</fix>
</trkpt>
<trkpt lat="40.0713749" lon="-105.229789">
  <ele>1583.0</ele>
  <time>2026-08-28T17:52:20Z</time>
  <course>0.0</course>
  <speed>0.0</speed>
  <fix>3d</fix>
</trkpt>
<trkpt lat="40.0713751" lon="-105.2297889">
  <ele>1583.04</ele>
  <time>2026-08-28T17:52:20Z</time>
  <course>247.1</course>
  <speed>0.022360679774997897</speed>
  <fix>3d</fix>
</trkpt>
<trkpt lat="40.0713749" lon="-105.229789">
  <ele>1583.0</ele>
  <time>2026-08-28T17:52:20Z</time>
  <course>0.0</course>
  <speed>0.0</speed>
  <fix>3d</fix>
</trkpt>
<trkpt lat="40.0713751" lon="-105.2297889">
  <ele>1583.04</ele>
  <time>2026-08-28T17:52:20Z</time>
  <course>247.1</course>
  <speed>0.022360679774997897</speed>
  <fix>3d</fix>
</trkpt>
<trkpt lat="40.0713749" lon="-105.229789">
  <ele>1583.0</ele>
  <time>2026-08-28T17:52:20Z</time>
  <course>0.0</course>
  <speed>0.0</speed>
  <fix>3d</fix>
</trkpt>
<trkpt lat="40.0713751" lon="-105.2297889">
  <ele>1583.04</ele>
  <time>2026-08-28T17:52:20Z</time>
  <course>247.1</course>
  <speed>0.022360679774997897</speed>
  <fix>3d</fix>
</trkpt>
<trkpt lat="40.0713749" lon="-105.229789">
  <ele>1583.0</ele>
  <time>2026-08-28T17:52:20Z</time>
  <course>0.0</course>
  <speed>0.0</speed>
  <fix>3d</fix>
</trkpt>
<trkpt lat="40.0713751" lon="-105.2297889">
  <ele>1583.04</ele>
  <time>2026-08-28T17:52:20Z</time>
  <course>247.1</course>
  <speed>0.022360679774997897</speed>
  <fix>3d</fix>
</trkpt>
<trkpt lat="40.0713749" lon="-105.229789">
  <ele>1583.0</ele>
  <time>2026-08-28T17:52:20Z</time>
  <course>0.0</course>
  <speed>0.0</speed>
  <fix>3d</fix>
</trkpt>
<trkpt lat="40.0713751" lon="-105.2297889">
  <ele>1583.04</ele>
  <time>2026-08-28T17:52:20Z</time>
  <course>247.1</course>
  <speed>0.022360679774997897</speed>
  <fix>3d</fix>
</trkpt>
<trkpt lat="40.0713749" lon="-105.229789">
  <ele>1583.0</ele>
  <time>2026-08-28T17:52:20Z</time>
  <course>0.0</course>
  <speed>0.0</speed>
  <fix>3d</fix>
</trkpt>
<trkpt lat="40.0713751" lon="-105.2297889">
  <ele>1583.04</ele>
  <time>2026-08-28T17:52:20Z</time>
  <course>247.1</course>
  <speed>0.022360679774997897</speed>
  <fix>3d</fix>
</trkpt>
<trkpt lat="40.0713749" lon="-105.229789">
  <ele>1583.0</ele>
  <time>2026-08-28T17:52:20Z</time>
  <course>0.0</course>
  <speed>0.0</speed>
  <fix>3d</fix>
</trkpt>
<trkpt lat="40.0713751" lon="-105.2297889">
  <ele>1583.04</ele>
  <time>2026-08-28T17:52:20Z</time>
  <course>247.1</course>
  <speed>0.022360679774997897</speed>
  <fix>3d</fix>
</trkpt>
<trkpt lat="40.0713749" lon="-105.229789">
  <ele>1583.0</ele>
  <time>2026-08-28T17:52:20Z</time>
  <course>0.0</course>
  <speed>0.0</speed>
  <fix>3d</fix>
</trkpt>
<trkpt lat="40.0713751" lon="-105.2297889">
  <ele>1583.05</ele>
  <time>2026-08-28T17:52:20Z</time>
  <course>247.1</course>
  <speed>0.022360679774997897</speed>
  <fix>3d</fix>
</trkpt>
<trkpt lat="40.0713749" lon="-105.229789">
  <ele>1583.0</ele>
  <time>2026-08-28T17:52:20Z</time>
  <course>0.0</course>
  <speed>0.0</speed>
  <fix>3d</fix>
</trkpt>
<trkpt lat="40.0713751" lon="-105.2297889">
  <ele>1583.05</ele>
  <time>2026-08-28T17:52:20Z</time>
  <course>247.1</course>
  <speed>0.022360679774997897</speed>
  <fix>3d</fix>
</trkpt>
<trkpt lat="40.0713749" lon="-105.229789">
  <ele>1583.0</ele>
  <time>2026-08-28T17:52:20Z</time>
  <course>0.0</course>
  <speed>0.0</speed>
  <fix>3d</fix>
</trkpt>
<trkpt lat="40.0713751" lon="-105.2297889">
  <ele>1583.05</ele>
  <time>2026-08-28T17:52:20Z</time>
  <course>247.1</course>
  <speed>0.022360679774997897</speed>
  <fix>3d</fix>
</trkpt>
<trkpt lat="40.0713749" lon="-105.229789">
  <ele>1583.0</ele>
  <time>2026-08-28T17:52:20Z</time>
  <course>0.0</course>
  <speed>0.0</speed>
  <fix>3d</fix>
</trkpt>
<trkpt lat="40.0713751" lon="-105.2297889">
  <ele>1583.05</ele>
  <time>2026-08-28T17:52:20Z</time>
  <course>247.1</course>
  <speed>0.022360679774997897</speed>
  <fix>3d</fix>
</trkpt>
<trkpt lat="40.0713749" lon="-105.229789">
  <ele>1583.0</ele>
  <time>2026-08-28T17:52:20Z</time>
  <course>0.0</course>
  <speed>0.0</speed>
  <fix>3d</fix>
</trkpt>
<trkpt lat="40.0713751" lon="-105.2297889">
  <ele>1583.05</ele>
  <time>2026-08-28T17:52:20Z</time>
  <course>247.1</course>
  <speed>0.022360679774997897</speed>
  <fix>3d</fix>
</trkpt>
<trkpt lat="40.0713749" lon="-105.229789">
  <ele>1583.0</ele>
  <time>2026-08-28T17:52:20Z</time>
  <course>0.0</course>
  <speed>0.0</speed>
  <fix>3d</fix>
</trkpt>
<trkpt lat="40.0713751" lon="-105.2297889">
  <ele>1583.06</ele>
  <time>2026-08-28T17:52:20Z</time>
  <course>247.1</course>
  <speed>0.022360679774997897</speed>
  <fix>3d</fix>
</trkpt>
<trkpt lat="40.0713749" lon="-105.229789">
  <ele>1583.0</ele>
  <time>2026-08-28T17:52:20Z</time>
  <course>0.0</course>
  <speed>0.0</speed>
  <fix>3d</fix>
</trkpt>
<trkpt lat="40.0713751" lon="-105.2297889">
  <ele>1583.06</ele>
  <time>2026-08-28T17:52:20Z</time>
  <course>247.1</course>
  <speed>0.022360679774997897</speed>
  <fix>3d</fix>
</trkpt>
<trkpt lat="40.0713749" lon="-105.229789">
  <ele>1583.0</ele>
  <time>2026-08-28T17:52:20Z</time>
  <course>0.0</course>
  <speed>0.0</speed>
  <fix>3d</fix>
</trkpt>
<trkpt lat="40.0713751" lon="-105.2297889">
  <ele>1583.06</ele>
  <time>2026-08-28T17:52:20Z</time>
  <course>247.1</course>
  <speed>0.022360679774997897</speed>
  <fix>3d</fix>
</trkpt>
<trkpt lat="40.0713749" lon="-105.229789">
  <ele>1583.0</ele>
  <time>2026-08-28T17:52:20Z</time>
  <course>0.0</course>
  <speed>0.0</speed>
  <fix>3d</fix>
</trkpt>
<trkpt lat="40.0713751" lon="-105.2297889">
  <ele>1583.06</ele>
  <time>2026-08-28T17:52:20Z</time>
  <course>247.1</course>
  <speed>0.022360679774997897</speed>
  <fix>3d</fix>
</trkpt>
<trkpt lat="40.0713749" lon="-105.229789">
  <ele>1583.0</ele>
  <time>2026-08-28T17:52:20Z</time>
  <course>0.0</course>
  <speed>0.0</speed>
  <fix>3d</fix>
</trkpt>
<trkpt lat="40.0713751" lon="-105.2297889">
  <ele>1583.07</ele>
  <time>2026-08-28T17:52:20Z</time>
  <course>247.1</course>
  <speed>0.022360679774997897</speed>
  <fix>3d</fix>
</trkpt>
<trkpt lat="40.0713749" lon="-105.229789">
  <ele>1583.0</ele>
  <time>2026-08-28T17:52:20Z</time>
  <course>0.0</course>
  <speed>0.0</speed>
  <fix>3d</fix>
</trkpt>
<trkpt lat="40.0713751" lon="-105.2297889">
  <ele>1583.07</ele>
  <time>2026-08-28T17:52:20Z</time>
  <course>247.1</course>
  <speed>0.022360679774997897</speed>
  <fix>3d</fix>
</trkpt>
<trkpt lat="40.0713749" lon="-105.229789">
  <ele>1583.0</ele>
  <time>2026-08-28T17:52:20Z</time>
  <course>0.0</course>
  <speed>0.0</speed>
  <fix>3d</fix>
</trkpt>
<trkpt lat="40.0713751" lon="-105.2297889">
  <ele>1583.07</ele>
  <time>2026-08-28T17:52:20Z</time>
  <course>247.1</course>
  <speed>0.022360679774997897</speed>
  <fix>3d</fix>
</trkpt>
<trkpt lat="40.0713749" lon="-105.229789">
  <ele>1583.0</ele>
  <time>2026-08-28T17:52:20Z</time>
  <course>0.0</course>
  <speed>0.0</speed>
  <fix>3d</fix>
</trkpt>
<trkpt lat="40.0713751" lon="-105.2297889">
  <ele>1583.08</ele>
  <time>2026-08-28T17:52:20Z</time>
  <course>247.1</course>
  <speed>0.022360679774997897</speed>
  <fix>3d</fix>
</trkpt>
<trkpt lat="40.0713749" lon="-105.229789">
  <ele>1583.0</ele>
  <time>2026-08-28T17:52:20Z</time>
  <course>0.0</course>
  <speed>0.0</speed>
  <fix>3d</fix>
</trkpt>
<trkpt lat="40.0713751" lon="-105.2297889">
  <ele>1583.08</ele>
  <time>2026-08-28T17:52:20Z</time>
  <course>247.1</course>
  <speed>0.022360679774997897</speed>
  <fix>3d</fix>
</trkpt>
<trkpt lat="40.0713749" lon="-105.229789">
  <ele>1583.0</ele>
  <time>2026-08-28T17:52:20Z</time>
  <course>0.0</course>
  <speed>0.0</speed>
  <fix>3d</fix>
</trkpt>
<trkpt lat="40.0713751" lon="-105.2297889">
  <ele>1583.09</ele>
  <time>2026-08-28T17:52:20Z</time>
  <course>247.1</course>
  <speed>0.022360679774997897</speed>
  <fix>3d</fix>
</trkpt>
<trkpt lat="40.0713749" lon="-105.229789">
  <ele>1583.0</ele>
  <time>2026-08-28T17:52:20Z</time>
  <course>0.0</course>
  <speed>0.0</speed>
  <fix>3d</fix>
</trkpt>
<trkpt lat="40.0713751" lon="-105.2297889">
  <ele>1583.09</ele>
  <time>2026-08-28T17:52:20Z</time>
  <course>247.1</course>
  <speed>0.022360679774997897</speed>
  <fix>3d</fix>
</trkpt>
<trkpt lat="40.0713749" lon="-105.229789">
  <ele>1583.0</ele>
  <time>2026-08-28T17:52:20Z</time>
  <course>0.0</course>
  <speed>0.0</speed>
  <fix>3d</fix>
</trkpt>
<trkpt lat="40.0713751" lon="-105.2297889">
  <ele>1583.09</ele>
  <time>2026-08-28T17:52:20Z</time>
  <course>247.1</course>
  <speed>0.022360679774997897</speed>
  <fix>3d</fix>
</trkpt>
<trkpt lat="40.0713749" lon="-105.229789">
  <ele>1583.0</ele>
  <time>2026-08-28T17:52:20Z</time>
  <course>0.0</course>
  <speed>0.0</speed>
  <fix>3d</fix>
</trkpt>
<trkpt lat="40.0713751" lon="-105.2297889">
  <ele>1583.09</ele>
  <time>2026-08-28T17:52:20Z</time>
  <course>247.1</course>
  <speed>0.022360679774997897</speed>
  <fix>3d</fix>
</trkpt>
<trkpt lat="40.0713749" lon="-105.229789">
  <ele>1583.0</ele>
  <time>2026-08-28T17:52:20Z</time>
  <course>0.0</course>
  <speed>0.0</speed>
  <fix>3d</fix>
</trkpt>
<trkpt lat="40.0713751" lon="-105.2297889">
  <ele>1583.08</ele>
  <time>2026-08-28T17:52:20Z</time>
  <course>247.1</course>
  <speed>0.022360679774997897</speed>
  <fix>3d</fix>
</trkpt>
<trkpt lat="40.0713749" lon="-105.229789">
  <ele>1583.0</ele>
  <time>2026-08-28T17:52:20Z</time>
  <course>0.0</course>
  <speed>0.0</speed>
  <fix>3d</fix>
</trkpt>
<trkpt lat="40.0713751" lon="-105.2297889">
  <ele>1583.07</ele>
  <time>2026-08-28T17:52:20Z</time>
  <course>247.1</course>
  <speed>0.022360679774997897</speed>
  <fix>3d</fix>
</trkpt>
<trkpt lat="40.0713749" lon="-105.229789">
  <ele>1583.0</ele>
  <time>2026-08-28T17:52:20Z</time>
  <course>0.0</course>
  <speed>0.0</speed>
  <fix>3d</fix>
</trkpt>
<trkpt lat="40.0713751" lon="-105.2297889">
  <ele>1583.06</ele>
  <time>2026-08-28T17:52:20Z</time>
  <course>247.1</course>
  <speed>0.022360679774997897</speed>
  <fix>3d</fix>
</trkpt>
<trkpt lat="40.0713749" lon="-105.229789">
  <ele>1583.0</ele>
  <time>2026-08-28T17:52:20Z</time>
  <course>0.0</course>
  <speed>0.0</speed>
  <fix>3d</fix>
</trkpt>
<trkpt lat="40.0713751" lon="-105.2297889">
  <ele>1583.06</ele>
  <time>2026-08-28T17:52:20Z</time>
  <course>247.1</course>
  <speed>0.022360679774997897</speed>
  <fix>3d</fix>
</trkpt>
<trkpt lat="40.0713749" lon="-105.229789">
  <ele>1583.0</ele>
  <time>2026-08-28T17:52:20Z</time>
  <course>0.0</course>
  <speed>0.0</speed>
  <fix>3d</fix>
</trkpt>
<trkpt lat="40.0713751" lon="-105.2297889">
  <ele>1583.05</ele>
  <time>2026-08-28T17:52:20Z</time>
  <course>247.1</course>
  <speed>0.022360679774997897</speed>
  <fix>3d</fix>
</trkpt>
<trkpt lat="40.0713749" lon="-105.229789">
  <ele>1583.0</ele>
  <time>2026-08-28T17:52:20Z</time>
  <course>0.0</course>
  <speed>0.0</speed>
  <fix>3d</fix>
</trkpt>
<trkpt lat="40.0713751" lon="-105.2297889">
  <ele>1583.05</ele>
  <time>2026-08-28T17:52:20Z</time>
  <course>247.1</course>
  <speed>0.022360679774997897</speed>
  <fix>3d</fix>
</trkpt>
<trkpt lat="40.0713749" lon="-105.229789">
  <ele>1583.0</ele>
  <time>2026-08-28T17:52:20Z</time>
  <course>0.0</course>
  <speed>0.0</speed>
  <fix>3d</fix>
</trkpt>
<trkpt lat="40.0713751" lon="-105.2297889">
  <ele>1583.04</ele>
  <time>2026-08-28T17:52:20Z</time>
  <course>247.1</course>
  <speed>0.022360679774997897</speed>
  <fix>3d</fix>
</trkpt>
<trkpt lat="40.0713749" lon="-105.229789">
  <ele>1583.0</ele>
  <time>2026-08-28T17:52:20Z</time>
  <course>0.0</course>
  <speed>0.0</speed>
  <fix>3d</fix>
</trkpt>
<trkpt lat="40.0713751" lon="-105.2297889">
  <ele>1583.03</ele>
  <time>2026-08-28T17:52:20Z</time>
  <course>247.1</course>
  <speed>0.022360679774997897</speed>
  <fix>3d</fix>
</trkpt>
<trkpt lat="40.0713749" lon="-105.229789">
  <ele>1583.0</ele>
  <time>2026-08-28T17:52:20Z</time>
  <course>0.0</course>
  <speed>0.0</speed>
  <fix>3d</fix>
</trkpt>
<trkpt lat="40.0713751" lon="-105.2297889">
  <ele>1583.03</ele>
  <time>2026-08-28T17:52:20Z</time>
  <course>247.1</course>
  <speed>0.022360679774997897</speed>
  <fix>3d</fix>
</trkpt>
<trkpt lat="40.0713749" lon="-105.229789">
  <ele>1583.0</ele>
  <time>2026-08-28T17:52:20Z</time>
  <course>0.0</course>
  <speed>0.0</speed>
  <fix>3d</fix>
</trkpt>
<trkpt lat="40.0713751" lon="-105.2297889">
  <ele>1583.02</ele>
  <time>2026-08-28T17:52:20Z</time>
  <course>247.1</course>
  <speed>0.022360679774997897</speed>
  <fix>3d</fix>
</trkpt>
<trkpt lat="40.0713749" lon="-105.229789">
  <ele>1583.0</ele>
  <time>2026-08-28T17:52:20Z</time>
  <course>0.0</course>
  <speed>0.0</speed>
  <fix>3d</fix>
</trkpt>
<trkpt lat="40.0713751" lon="-105.2297889">
  <ele>1583.02</ele>
  <time>2026-08-28T17:52:20Z</time>
  <course>247.1</course>
  <speed>0.022360679774997897</speed>
  <fix>3d</fix>
</trkpt>
<trkpt lat="40.0713749" lon="-105.229789">
  <ele>1583.0</ele>
  <time>2026-08-28T17:52:20Z</time>
  <course>0.0</course>
  <speed>0.0</speed>
  <fix>3d</fix>
</trkpt>
<trkpt lat="40.0713751" lon="-105.2297889">
  <ele>1583.02</ele>
  <time>2026-08-28T17:52:20Z</time>
  <course>247.1</course>
  <speed>0.022360679774997897</speed>
  <fix>3d</fix>
</trkpt>
<trkpt lat="40.0713749" lon="-105.229789">
  <ele>1583.0</ele>
  <time>2026-08-28T17:52:20Z</time>
  <course>0.0</course>
  <speed>0.0</speed>
  <fix>3d</fix>
</trkpt>
<trkpt lat="40.0713751" lon="-105.2297889">
  <ele>1583.01</ele>
  <time>2026-08-28T17:52:20Z</time>
  <course>247.1</course>
  <speed>0.022360679774997897</speed>
  <fix>3d</fix>
</trkpt>
<trkpt lat="40.0713749" lon="-105.229789">
  <ele>1583.0</ele>
  <time>2026-08-28T17:52:20Z</time>
  <course>0.0</course>
  <speed>0.0</speed>
  <fix>3d</fix>
</trkpt>
<trkpt lat="40.0713751" lon="-105.2297889">
  <ele>1583.01</ele>
  <time>2026-08-28T17:52:20Z</time>
  <course>247.1</course>
  <speed>0.022360679774997897</speed>
  <fix>3d</fix>
</trkpt>
<trkpt lat="40.0713749" lon="-105.229789">
  <ele>1583.0</ele>
  <time>2026-08-28T17:52:20Z</time>
  <course>0.0</course>
  <speed>0.0</speed>
  <fix>3d</fix>
</trkpt>
<trkpt lat="40.0713751" lon="-105.2297889">
  <ele>1583.0</ele>
  <time>2026-08-28T17:52:20Z</time>
  <course>247.1</course>
  <speed>0.022360679774997897</speed>
  <fix>3d</fix>
</trkpt>
<trkpt lat="40.0713749" lon="-105.229789">
  <ele>1583.0</ele>
  <time>2026-08-28T17:52:20Z</time>
  <course>0.0</course>
  <speed>0.0</speed>
  <fix>3d</fix>
</trkpt>
<trkpt lat="40.0713751" lon="-105.2297889">
  <ele>1583.0</ele>
  <time>2026-08-28T17:52:20Z</time>
  <course>247.1</course>
  <speed>0.022360679774997897</speed>
  <fix>3d</fix>
</trkpt>
<trkpt lat="40.0713749" lon="-105.229789">
  <ele>1583.0</ele>
  <time>2026-08-28T17:52:20Z</time>
  <course>0.0</course>
  <speed>0.0</speed>
  <fix>3d</fix>
</trkpt>
<trkpt lat="40.0713751" lon="-105.2297889">
  <ele>1582.99</ele>
  <time>2026-08-28T17:52:20Z</time>
  <course>247.1</course>
  <speed>0.022360679774997897</speed>
  <fix>3d</fix>
</trkpt>
<trkpt lat="40.0713749" lon="-105.229789">
  <ele>1583.0</ele>
  <time>2026-08-28T17:52:20Z</time>
  <course>0.0</course>
  <speed>0.0</speed>
  <fix>3d</fix>
</trkpt>
<trkpt lat="40.0713751" lon="-105.2297889">
  <ele>1582.99</ele>
  <time>2026-08-28T17:52:20Z</time>
  <course>247.1</course>
  <speed>0.022360679774997897</speed>
  <fix>3d</fix>
</trkpt>
<trkpt lat="40.0713749" lon="-105.229789">
  <ele>1583.0</ele>
  <time>2026-08-28T17:52:20Z</time>
  <course>0.0</course>
  <speed>0.0</speed>
  <fix>3d</fix>
</trkpt>
<trkpt lat="40.0713751" lon="-105.2297889">
  <ele>1582.98</ele>
  <time>2026-08-28T17:52:20Z</time>
  <course>247.1</course>
  <speed>0.022360679774997897</speed>
  <fix>3d</fix>
</trkpt>
<trkpt lat="40.0713749" lon="-105.229789">
  <ele>1583.0</ele>
  <time>2026-08-28T17:52:20Z</time>
  <course>0.0</course>
  <speed>0.0</speed>
  <fix>3d</fix>
</trkpt>
<trkpt lat="40.0713751" lon="-105.2297889">
  <ele>1582.98</ele>
  <time>2026-08-28T17:52:20Z</time>
  <course>247.1</course>
  <speed>0.022360679774997897</speed>
  <fix>3d</fix>
</trkpt>
<trkpt lat="40.0713749" lon="-105.229789">
  <ele>1583.0</ele>
  <time>2026-08-28T17:52:20Z</time>
  <course>0.0</course>
  <speed>0.0</speed>
  <fix>3d</fix>
</trkpt>
<trkpt lat="40.0713751" lon="-105.2297889">
  <ele>1582.98</ele>
  <time>2026-08-28T17:52:20Z</time>
  <course>247.1</course>
  <speed>0.022360679774997897</speed>
  <fix>3d</fix>
</trkpt>
<trkpt lat="40.0713749" lon="-105.229789">
  <ele>1583.0</ele>
  <time>2026-08-28T17:52:20Z</time>
  <course>0.0</course>
  <speed>0.0</speed>
  <fix>3d</fix>
</trkpt>
<trkpt lat="40.0713751" lon="-105.2297889">
  <ele>1582.98</ele>
  <time>2026-08-28T17:52:20Z</time>
  <course>247.1</course>
  <speed>0.022360679774997897</speed>
  <fix>3d</fix>
</trkpt>
<trkpt lat="40.0713749" lon="-105.229789">
  <ele>1583.0</ele>
  <time>2026-08-28T17:52:20Z</time>
  <course>0.0</course>
  <speed>0.0</speed>
  <fix>3d</fix>
</trkpt>
<trkpt lat="40.0713751" lon="-105.2297889">
  <ele>1582.99</ele>
  <time>2026-08-28T17:52:20Z</time>
  <course>247.1</course>
  <speed>0.022360679774997897</speed>
  <fix>3d</fix>
</trkpt>
<trkpt lat="40.0713749" lon="-105.229789">
  <ele>1583.0</ele>
  <time>2026-08-28T17:52:20Z</time>
  <course>0.0</course>
  <speed>0.0</speed>
  <fix>3d</fix>
</trkpt>
<trkpt lat="40.0713751" lon="-105.2297889">
  <ele>1582.99</ele>
  <time>2026-08-28T17:52:20Z</time>
  <course>247.1</course>
  <speed>0.022360679774997897</speed>
  <fix>3d</fix>
</trkpt>
<trkpt lat="40.0713749" lon="-105.229789">
  <ele>1583.0</ele>
  <time>2026-08-28T17:52:20Z</time>
  <course>0.0</course>
  <speed>0.0</speed>
  <fix>3d</fix>
</trkpt>
<trkpt lat="40.0713751" lon="-105.2297889">
  <ele>1582.99</ele>
  <time>2026-08-28T17:52:20Z</time>
  <course>247.1</course>
  <speed>0.022360679774997897</speed>
  <fix>3d</fix>
</trkpt>
<trkpt lat="40.0713749" lon="-105.229789">
  <ele>1583.0</ele>
  <time>2026-08-28T17:52:20Z</time>
  <course>0.0</course>
  <speed>0.0</speed>
  <fix>3d</fix>
</trkpt>
<trkpt lat="40.0713751" lon="-105.2297889">
  <ele>1583.0</ele>
  <time>2026-08-28T17:52:20Z</time>
  <course>247.1</course>
  <speed>0.022360679774997897</speed>
  <fix>3d</fix>
</trkpt>
<trkpt lat="40.0713749" lon="-105.229789">
  <ele>1583.0</ele>
  <time>2026-08-28T17:52:20Z</time>
  <course>0.0</course>
  <speed>0.0</speed>
  <fix>3d</fix>
</trkpt>
<trkpt lat="40.0713751" lon="-105.2297889">
  <ele>1583.0</ele>
  <time>2026-08-28T17:52:20Z</time>
  <course>247.1</course>
  <speed>0.022360679774997897</speed>
  <fix>3d</fix>
</trkpt>
<trkpt lat="40.0713749" lon="-105.229789">
  <ele>1583.0</ele>
  <time>2026-08-28T17:52:20Z</time>
  <course>0.0</course>
  <speed>0.0</speed>
  <fix>3d</fix>
</trkpt>
<trkpt lat="40.0713751" lon="-105.2297889">
  <ele>1583.01</ele>
  <time>2026-08-28T17:52:20Z</time>
  <course>247.1</course>
  <speed>0.022360679774997897</speed>
  <fix>3d</fix>
</trkpt>
<trkpt lat="40.0713749" lon="-105.229789">
  <ele>1583.0</ele>
  <time>2026-08-28T17:52:20Z</time>
  <course>0.0</course>
  <speed>0.0</speed>
  <fix>3d</fix>
</trkpt>
<trkpt lat="40.0713751" lon="-105.2297889">
  <ele>1583.01</ele>
  <time>2026-08-28T17:52:20Z</time>
  <course>247.1</course>
  <speed>0.022360679774997897</speed>
  <fix>3d</fix>
</trkpt>
<trkpt lat="40.0713749" lon="-105.229789">
  <ele>1583.0</ele>
  <time>2026-08-28T17:52:20Z</time>
  <course>0.0</course>
  <speed>0.0</speed>
  <fix>3d</fix>
</trkpt>
<trkpt lat="40.0713751" lon="-105.2297889">
  <ele>1583.01</ele>
  <time>2026-08-28T17:52:20Z</time>
  <course>247.1</course>
  <speed>0.022360679774997897</speed>
  <fix>3d</fix>
</trkpt>
<trkpt lat="40.0713749" lon="-105.229789">
  <ele>1583.0</ele>
  <time>2026-08-28T17:52:20Z</time>
  <course>0.0</course>
  <speed>0.0</speed>
  <fix>3d</fix>
</trkpt>
<trkpt lat="40.0713751" lon="-105.2297889">
  <ele>1583.01</ele>
  <time>2026-08-28T17:52:20Z</time>
  <course>247.1</course>
  <speed>0.022360679774997897</speed>
  <fix>3d</fix>
</trkpt>
<trkpt lat="40.0713749" lon="-105.229789">
  <ele>1583.0</ele>
  <time>2026-08-28T17:52:20Z</time>
  <course>0.0</course>
  <speed>0.0</speed>
  <fix>3d</fix>
</trkpt>
<trkpt lat="40.0713751" lon="-105.2297889">
  <ele>1583.01</ele>
  <time>2026-08-28T17:52:20Z</time>
  <course>247.1</course>
  <speed>0.022360679774997897</speed>
  <fix>3d</fix>
</trkpt>
<trkpt lat="40.0713749" lon="-105.229789">
  <ele>1583.0</ele>
  <time>2026-08-28T17:52:20Z</time>
  <course>0.0</course>
  <speed>0.0</speed>
  <fix>3d</fix>
</trkpt>
<trkpt lat="40.0713751" lon="-105.2297889">
  <ele>1583.0</ele>
  <time>2026-08-28T17:52:20Z</time>
  <course>247.1</course>
  <speed>0.022360679774997897</speed>
  <fix>3d</fix>
</trkpt>
<trkpt lat="40.0713749" lon="-105.229789">
  <ele>1583.0</ele>
  <time>2026-08-28T17:52:20Z</time>
  <course>0.0</course>
  <speed>0.0</speed>
  <fix>3d</fix>
</trkpt>
<trkpt lat="40.0713751" lon="-105.2297889">
  <ele>1583.0</ele>
  <time>2026-08-28T17:52:20Z</time>
  <course>247.1</course>
  <speed>0.022360679774997897</speed>
  <fix>3d</fix>
</trkpt>
<trkpt lat="40.0713749" lon="-105.229789">
  <ele>1583.0</ele>
  <time>2026-08-28T17:52:20Z</time>
  <course>0.0</course>
  <speed>0.0</speed>
  <fix>3d</fix>
</trkpt>
<trkpt lat="40.0713751" lon="-105.2297889">
  <ele>1582.99</ele>
  <time>2026-08-28T17:52:20Z</time>
  <course>247.1</course>
  <speed>0.022360679774997897</speed>
  <fix>3d</fix>
</trkpt>
<trkpt lat="40.0713749" lon="-105.229789">
  <ele>1583.0</ele>
  <time>2026-08-28T17:52:20Z</time>
  <course>0.0</course>
  <speed>0.0</speed>
  <fix>3d</fix>
</trkpt>
<trkpt lat="40.0713751" lon="-105.2297889">
  <ele>1582.99</ele>
  <time>2026-08-28T17:52:20Z</time>
  <course>247.1</course>
  <speed>0.022360679774997897</speed>
  <fix>3d</fix>
</trkpt>
<trkpt lat="40.0713749" lon="-105.229789">
  <ele>1583.0</ele>
  <time>2026-08-28T17:52:20Z</time>
  <course>0.0</course>
  <speed>0.0</speed>
  <fix>3d</fix>
</trkpt>
<trkpt lat="40.0713751" lon="-105.2297889">
  <ele>1582.98</ele>
  <time>2026-08-28T17:52:20Z</time>
  <course>247.1</course>
  <speed>0.022360679774997897</speed>
  <fix>3d</fix>
</trkpt>
<trkpt lat="40.0713749" lon="-105.229789">
  <ele>1583.0</ele>
  <time>2026-08-28T17:52:20Z</time>
  <course>0.0</course>
  <speed>0.0</speed>
  <fix>3d</fix>
</trkpt>
<trkpt lat="40.0713751" lon="-105.2297889">
  <ele>1582.98</ele>
  <time>2026-08-28T17:52:20Z</time>
  <course>247.1</course>
  <speed>0.022360679774997897</speed>
  <fix>3d</fix>
</trkpt>
<trkpt lat="40.0713749" lon="-105.229789">
  <ele>1583.0</ele>
  <time>2026-08-28T17:52:20Z</time>
  <course>0.0</course>
  <speed>0.0</speed>
  <fix>3d</fix>
</trkpt>
<trkpt lat="40.0713751" lon="-105.2297889">
  <ele>1582.98</ele>
  <time>2026-08-28T17:52:20Z</time>
  <course>247.1</course>
  <speed>0.022360679774997897</speed>
  <fix>3d</fix>
</trkpt>
<trkpt lat="40.0713749" lon="-105.229789">
  <ele>1583.0</ele>
  <time>2026-08-28T17:52:20Z</time>
  <course>0.0</course>
  <speed>0.0</speed>
  <fix>3d</fix>
</trkpt>
<trkpt lat="40.0713751" lon="-105.2297889">
  <ele>1582.97</ele>
  <time>2026-08-28T17:52:20Z</time>
  <course>247.1</course>
  <speed>0.022360679774997897</speed>
  <fix>3d</fix>
</trkpt>
<trkpt lat="40.0713749" lon="-105.229789">
  <ele>1583.0</ele>
  <time>2026-08-28T17:52:20Z</time>
  <course>0.0</course>
  <speed>0.0</speed>
  <fix>3d</fix>
</trkpt>
<trkpt lat="40.0713751" lon="-105.2297889">
  <ele>1582.97</ele>
  <time>2026-08-28T17:52:20Z</time>
  <course>247.1</course>
  <speed>0.022360679774997897</speed>
  <fix>3d</fix>
</trkpt>
<trkpt lat="40.0713749" lon="-105.229789">
  <ele>1583.0</ele>
  <time>2026-08-28T17:52:20Z</time>
  <course>0.0</course>
  <speed>0.0</speed>
  <fix>3d</fix>
</trkpt>
<trkpt lat="40.0713751" lon="-105.2297889">
  <ele>1582.97</ele>
  <time>2026-08-28T17:52:20Z</time>
  <course>247.1</course>
  <speed>0.022360679774997897</speed>
  <fix>3d</fix>
</trkpt>
<trkpt lat="40.0713749" lon="-105.229789">
  <ele>1583.0</ele>
  <time>2026-08-28T17:52:20Z</time>
  <course>0.0</course>
  <speed>0.0</speed>
  <fix>3d</fix>
</trkpt>
<trkpt lat="40.0713751" lon="-105.2297889">
  <ele>1582.96</ele>
  <time>2026-08-28T17:52:20Z</time>
  <course>247.1</course>
  <speed>0.022360679774997897</speed>
  <fix>3d</fix>
</trkpt>
<trkpt lat="40.0713749" lon="-105.229789">
  <ele>1583.0</ele>
  <time>2026-08-28T17:52:20Z</time>
  <course>0.0</course>
  <speed>0.0</speed>
  <fix>3d</fix>
</trkpt>
<trkpt lat="40.0713751" lon="-105.2297889">
  <ele>1582.96</ele>
  <time>2026-08-28T17:52:20Z</time>
  <course>247.1</course>
  <speed>0.022360679774997897</speed>
  <fix>3d</fix>
</trkpt>
<trkpt lat="40.0713749" lon="-105.229789">
  <ele>1583.0</ele>
  <time>2026-08-28T17:52:20Z</time>
  <course>0.0</course>
  <speed>0.0</speed>
  <fix>3d</fix>
</trkpt>
<trkpt lat="40.0713751" lon="-105.2297889">
  <ele>1582.95</ele>
  <time>2026-08-28T17:52:20Z</time>
  <course>247.1</course>
  <speed>0.022360679774997897</speed>
  <fix>3d</fix>
</trkpt>
<trkpt lat="40.0713749" lon="-105.229789">
  <ele>1583.0</ele>
  <time>2026-08-28T17:52:20Z</time>
  <course>0.0</course>
  <speed>0.0</speed>
  <fix>3d</fix>
</trkpt>
<trkpt lat="40.0713751" lon="-105.2297889">
  <ele>1582.95</ele>
  <time>2026-08-28T17:52:20Z</time>
  <course>247.1</course>
  <speed>0.022360679774997897</speed>
  <fix>3d</fix>
</trkpt>
<trkpt lat="40.0713749" lon="-105.229789">
  <ele>1583.0</ele>
  <time>2026-08-28T17:52:20Z</time>
  <course>0.0</course>
  <speed>0.0</speed>
  <fix>3d</fix>
</trkpt>
<trkpt lat="40.0713751" lon="-105.2297889">
  <ele>1582.94</ele>
  <time>2026-08-28T17:52:20Z</time>
  <course>247.1</course>
  <speed>0.022360679774997897</speed>
  <fix>3d</fix>
</trkpt>
<trkpt lat="40.0713749" lon="-105.229789">
  <ele>1583.0</ele>
  <time>2026-08-28T17:52:20Z</time>
  <course>0.0</course>
  <speed>0.0</speed>
  <fix>3d</fix>
</trkpt>
<trkpt lat="40.0713751" lon="-105.2297889">
  <ele>1582.94</ele>
  <time>2026-08-28T17:52:20Z</time>
  <course>247.11</course>
  <speed>0.022360679774997897</speed>
  <fix>3d</fix>
</trkpt>
<trkpt lat="40.0713749" lon="-105.229789">
  <ele>1583.0</ele>
  <time>2026-08-28T17:52:20Z</time>
  <course>0.0</course>
  <speed>0.0</speed>
  <fix>3d</fix>
</trkpt>
<trkpt lat="40.0713751" lon="-105.2297889">
  <ele>1582.94</ele>
  <time>2026-08-28T17:52:20Z</time>
  <course>247.1</course>
  <speed>0.022360679774997897</speed>
  <fix>3d</fix>
</trkpt>
<trkpt lat="40.0713749" lon="-105.229789">
  <ele>1583.0</ele>
  <time>2026-08-28T17:52:20Z</time>
  <course>0.0</course>
  <speed>0.0</speed>
  <fix>3d</fix>
</trkpt>
<trkpt lat="40.0713751" lon="-105.2297889">
  <ele>1582.94</ele>
  <time>2026-08-28T17:52:20Z</time>
  <course>247.1</course>
  <speed>0.022360679774997897</speed>
  <fix>3d</fix>
</trkpt>
<trkpt lat="40.0713749" lon="-105.229789">
  <ele>1583.0</ele>
  <time>2026-08-28T17:52:20Z</time>
  <course>0.0</course>
  <speed>0.0</speed>
  <fix>3d</fix>
</trkpt>
<trkpt lat="40.0713751" lon="-105.2297889">
  <ele>1582.94</ele>
  <time>2026-08-28T17:52:20Z</time>
  <course>247.1</course>
  <speed>0.022360679774997897</speed>
  <fix>3d</fix>
</trkpt>
<trkpt lat="40.0713749" lon="-105.229789">
  <ele>1583.0</ele>
  <time>2026-08-28T17:52:20Z</time>
  <course>0.0</course>
  <speed>0.0</speed>
  <fix>3d</fix>
</trkpt>
<trkpt lat="40.0713751" lon="-105.2297889">
  <ele>1582.94</ele>
  <time>2026-08-28T17:52:20Z</time>
  <course>247.1</course>
  <speed>0.022360679774997897</speed>
  <fix>3d</fix>
</trkpt>
<trkpt lat="40.0713749" lon="-105.229789">
  <ele>1583.0</ele>
  <time>2026-08-28T17:52:20Z</time>
  <course>0.0</course>
  <speed>0.0</speed>
  <fix>3d</fix>
</trkpt>
<trkpt lat="40.0713751" lon="-105.2297889">
  <ele>1582.94</ele>
  <time>2026-08-28T17:52:20Z</time>
  <course>247.1</course>
  <speed>0.022360679774997897</speed>
  <fix>3d</fix>
</trkpt>
<trkpt lat="40.0713749" lon="-105.229789">
  <ele>1583.0</ele>
  <time>2026-08-28T17:52:20Z</time>
  <course>0.0</course>
  <speed>0.0</speed>
  <fix>3d</fix>
</trkpt>
<trkpt lat="40.0713751" lon="-105.2297889">
  <ele>1582.94</ele>
  <time>2026-08-28T17:52:20Z</time>
  <course>247.1</course>
  <speed>0.022360679774997897</speed>
  <fix>3d</fix>
</trkpt>
<trkpt lat="40.0713749" lon="-105.229789">
  <ele>1583.0</ele>
  <time>2026-08-28T17:52:20Z</time>
  <course>0.0</course>
  <speed>0.0</speed>
  <fix>3d</fix>
</trkpt>
<trkpt lat="40.0713751" lon="-105.2297889">
  <ele>1582.95</ele>
  <time>2026-08-28T17:52:20Z</time>
  <course>247.1</course>
  <speed>0.022360679774997897</speed>
  <fix>3d</fix>
</trkpt>
<trkpt lat="40.0713749" lon="-105.229789">
  <ele>1583.0</ele>
  <time>2026-08-28T17:52:20Z</time>
  <course>0.0</course>
  <speed>0.0</speed>
  <fix>3d</fix>
</trkpt>
<trkpt lat="40.0713751" lon="-105.2297889">
  <ele>1582.95</ele>
  <time>2026-08-28T17:52:20Z</time>
  <course>247.1</course>
  <speed>0.022360679774997897</speed>
  <fix>3d</fix>
</trkpt>
<trkpt lat="40.0713749" lon="-105.229789">
  <ele>1583.0</ele>
  <time>2026-08-28T17:52:20Z</time>
  <course>0.0</course>
  <speed>0.0</speed>
  <fix>3d</fix>
</trkpt>
<trkpt lat="40.0713751" lon="-105.2297889">
  <ele>1582.96</ele>
  <time>2026-08-28T17:52:20Z</time>
  <course>247.11</course>
  <speed>0.022360679774997897</speed>
  <fix>3d</fix>
</trkpt>
<trkpt lat="40.0713749" lon="-105.229789">
  <ele>1583.0</ele>
  <time>2026-08-28T17:52:20Z</time>
  <course>0.0</course>
  <speed>0.0</speed>
  <fix>3d</fix>
</trkpt>
<trkpt lat="40.0713751" lon="-105.2297889">
  <ele>1582.96</ele>
  <time>2026-08-28T17:52:20Z</time>
  <course>247.11</course>
  <speed>0.022360679774997897</speed>
  <fix>3d</fix>
</trkpt>
<trkpt lat="40.0713749" lon="-105.229789">
  <ele>1583.0</ele>
  <time>2026-08-28T17:52:20Z</time>
  <course>0.0</course>
  <speed>0.0</speed>
  <fix>3d</fix>
</trkpt>
<trkpt lat="40.0713751" lon="-105.2297889">
  <ele>1582.96</ele>
  <time>2026-08-28T17:52:20Z</time>
  <course>247.11</course>
  <speed>0.022360679774997897</speed>
  <fix>3d</fix>
</trkpt>
<trkpt lat="40.0713749" lon="-105.229789">
  <ele>1583.0</ele>
  <time>2026-08-28T17:52:20Z</time>
  <course>0.0</course>
  <speed>0.0</speed>
  <fix>3d</fix>
</trkpt>
<trkpt lat="40.0713751" lon="-105.2297889">
  <ele>1582.96</ele>
  <time>2026-08-28T17:52:20Z</time>
  <course>247.11</course>
  <speed>0.022360679774997897</speed>
  <fix>3d</fix>
</trkpt>
<trkpt lat="40.0713749" lon="-105.229789">
  <ele>1583.0</ele>
  <time>2026-08-28T17:52:20Z</time>
  <course>0.0</course>
  <speed>0.0</speed>
  <fix>3d</fix>
</trkpt>
<trkpt lat="40.0713751" lon="-105.2297889">
  <ele>1582.96</ele>
  <time>2026-08-28T17:52:20Z</time>
  <course>247.11</course>
  <speed>0.022360679774997897</speed>
  <fix>3d</fix>
</trkpt>
<trkpt lat="40.0713749" lon="-105.229789">
  <ele>1583.0</ele>
  <time>2026-08-28T17:52:20Z</time>
  <course>0.0</course>
  <speed>0.0</speed>
  <fix>3d</fix>
</trkpt>
<trkpt lat="40.0713751" lon="-105.2297889">
  <ele>1582.96</ele>
  <time>2026-08-28T17:52:20Z</time>
  <course>247.11</course>
  <speed>0.022360679774997897</speed>
  <fix>3d</fix>
</trkpt>
<trkpt lat="40.0713749" lon="-105.229789">
  <ele>1583.0</ele>
  <time>2026-08-28T17:52:20Z</time>
  <course>0.0</course>
  <speed>0.0</speed>
  <fix>3d</fix>
</trkpt>
<trkpt lat="40.0713751" lon="-105.2297889">
  <ele>1582.96</ele>
  <time>2026-08-28T17:52:20Z</time>
  <course>247.11</course>
  <speed>0.022360679774997897</speed>
  <fix>3d</fix>
</trkpt>
<trkpt lat="40.0713749" lon="-105.229789">
  <ele>1583.0</ele>
  <time>2026-08-28T17:52:20Z</time>
  <course>0.0</course>
  <speed>0.0</speed>
  <fix>3d</fix>
</trkpt>
<trkpt lat="40.0713751" lon="-105.2297889">
  <ele>1582.96</ele>
  <time>2026-08-28T17:52:20Z</time>
  <course>247.11</course>
  <speed>0.022360679774997897</speed>
  <fix>3d</fix>
</trkpt>
<trkpt lat="40.0713749" lon="-105.229789">
  <ele>1583.0</ele>
  <time>2026-08-28T17:52:20Z</time>
  <course>0.0</course>
  <speed>0.0</speed>
  <fix>3d</fix>
</trkpt>
<trkpt lat="40.0713751" lon="-105.2297889">
  <ele>1582.95</ele>
  <time>2026-08-28T17:52:20Z</time>
  <course>247.11</course>
  <speed>0.022360679774997897</speed>
  <fix>3d</fix>
</trkpt>
<trkpt lat="40.0713749" lon="-105.229789">
  <ele>1583.0</ele>
  <time>2026-08-28T17:52:20Z</time>
  <course>0.0</course>
  <speed>0.0</speed>
  <fix>3d</fix>
</trkpt>
<trkpt lat="40.0713751" lon="-105.2297889">
  <ele>1582.95</ele>
  <time>2026-08-28T17:52:20Z</time>
  <course>247.11</course>
  <speed>0.022360679774997897</speed>
  <fix>3d</fix>
</trkpt>
<trkpt lat="40.0713749" lon="-105.229789">
  <ele>1583.0</ele>
  <time>2026-08-28T17:52:20Z</time>
  <course>0.0</course>
  <speed>0.0</speed>
  <fix>3d</fix>
</trkpt>
<trkpt lat="40.0713751" lon="-105.2297889">
  <ele>1582.94</ele>
  <time>2026-08-28T17:52:20Z</time>
  <course>247.11</course>
  <speed>0.022360679774997897</speed>
  <fix>3d</fix>
</trkpt>
<trkpt lat="40.0713749" lon="-105.229789">
  <ele>1583.0</ele>
  <time>2026-08-28T17:52:20Z</time>
  <course>0.0</course>
  <speed>0.0</speed>
  <fix>3d</fix>
</trkpt>
<trkpt lat="40.0713751" lon="-105.2297889">
  <ele>1582.94</ele>
  <time>2026-08-28T17:52:20Z</time>
  <course>247.11</course>
  <speed>0.022360679774997897</speed>
  <fix>3d</fix>
</trkpt>
<trkpt lat="40.0713749" lon="-105.229789">
  <ele>1583.0</ele>
  <time>2026-08-28T17:52:20Z</time>
  <course>0.0</course>
  <speed>0.0</speed>
  <fix>3d</fix>
</trkpt>
<trkpt lat="40.0713751" lon="-105.2297889">
  <ele>1582.94</ele>
  <time>2026-08-28T17:52:20Z</time>
  <course>247.11</course>
  <speed>0.022360679774997897</speed>
  <fix>3d</fix>
</trkpt>
<trkpt lat="40.0713749" lon="-105.229789">
  <ele>1583.0</ele>
  <time>2026-08-28T17:52:20Z</time>
  <course>0.0</course>
  <speed>0.0</speed>
  <fix>3d</fix>
</trkpt>
<trkpt lat="40.0713751" lon="-105.2297889">
  <ele>1582.94</ele>
  <time>2026-08-28T17:52:20Z</time>
  <course>247.11</course>
  <speed>0.022360679774997897</speed>
  <fix>3d</fix>
</trkpt>
<trkpt lat="40.0713749" lon="-105.229789">
  <ele>1583.0</ele>
  <time>2026-08-28T17:52:20Z</time>
  <course>0.0</course>
  <speed>0.0</speed>
  <fix>3d</fix>
</trkpt>
<trkpt lat="40.0713751" lon="-105.2297889">
  <ele>1582.95</ele>
  <time>2026-08-28T17:52:20Z</time>
  <course>247.11</course>
  <speed>0.022360679774997897</speed>
  <fix>3d</fix>
</trkpt>
<trkpt lat="40.0713749" lon="-105.229789">
  <ele>1583.0</ele>
  <time>2026-08-28T17:52:20Z</time>
  <course>0.0</course>
  <speed>0.0</speed>
  <fix>3d</fix>
</trkpt>
<trkpt lat="40.0713751" lon="-105.2297889">
  <ele>1582.96</ele>
  <time>2026-08-28T17:52:20Z</time>
  <course>247.11</course>
  <speed>0.022360679774997897</speed>
  <fix>3d</fix>
</trkpt>
<trkpt lat="40.0713749" lon="-105.229789">
  <ele>1583.0</ele>
  <time>2026-08-28T17:52:20Z</time>
  <course>0.0</course>
  <speed>0.0</speed>
  <fix>3d</fix>
</trkpt>
<trkpt lat="40.0713751" lon="-105.2297889">
  <ele>1582.96</ele>
  <time>2026-08-28T17:52:20Z</time>
  <course>247.11</course>
  <speed>0.022360679774997897</speed>
  <fix>3d</fix>
</trkpt>
<trkpt lat="40.0713749" lon="-105.229789">
  <ele>1583.0</ele>
  <time>2026-08-28T17:52:20Z</time>
  <course>0.0</course>
  <speed>0.0</speed>
  <fix>3d</fix>
</trkpt>
<trkpt lat="40.0713751" lon="-105.2297889">
  <ele>1582.97</ele>
  <time>2026-08-28T17:52:20Z</time>
  <course>247.11</course>
  <speed>0.022360679774997897</speed>
  <fix>3d</fix>
</trkpt>
<trkpt lat="40.0713749" lon="-105.229789">
  <ele>1583.0</ele>
  <time>2026-08-28T17:52:20Z</time>
  <course>0.0</course>
  <speed>0.0</speed>
  <fix>3d</fix>
</trkpt>
<trkpt lat="40.0713751" lon="-105.2297889">
  <ele>1582.97</ele>
  <time>2026-08-28T17:52:20Z</time>
  <course>247.11</course>
  <speed>0.022360679774997897</speed>
  <fix>3d</fix>
</trkpt>
<trkpt lat="40.0713749" lon="-105.229789">
  <ele>1583.0</ele>
  <time>2026-08-28T17:52:20Z</time>
  <course>0.0</course>
  <speed>0.0</speed>
  <fix>3d</fix>
</trkpt>
<trkpt lat="40.0713751" lon="-105.2297889">
  <ele>1582.98</ele>
  <time>2026-08-28T17:52:20Z</time>
  <course>247.11</course>
  <speed>0.022360679774997897</speed>
  <fix>3d</fix>
</trkpt>
<trkpt lat="40.0713749" lon="-105.229789">
  <ele>1583.0</ele>
  <time>2026-08-28T17:52:20Z</time>
  <course>0.0</course>
  <speed>0.0</speed>
  <fix>3d</fix>
</trkpt>
<trkpt lat="40.0713751" lon="-105.2297889">
  <ele>1582.99</ele>
  <time>2026-08-28T17:52:20Z</time>
  <course>247.11</course>
  <speed>0.022360679774997897</speed>
  <fix>3d</fix>
</trkpt>
<trkpt lat="40.0713749" lon="-105.229789">
  <ele>1583.0</ele>
  <time>2026-08-28T17:52:20Z</time>
  <course>0.0</course>
  <speed>0.0</speed>
  <fix>3d</fix>
</trkpt>
<trkpt lat="40.0713751" lon="-105.2297889">
  <ele>1583.0</ele>
  <time>2026-08-28T17:52:20Z</time>
  <course>247.11</course>
  <speed>0.022360679774997897</speed>
  <fix>3d</fix>
</trkpt>
<trkpt lat="40.0713749" lon="-105.229789">
  <ele>1583.0</ele>
  <time>2026-08-28T17:52:20Z</time>
  <course>0.0</course>
  <speed>0.0</speed>
  <fix>3d</fix>
</trkpt>
<trkpt lat="40.0713751" lon="-105.2297889">
  <ele>1583.0</ele>
  <time>2026-08-28T17:52:20Z</time>
  <course>247.11</course>
  <speed>0.022360679774997897</speed>
  <fix>3d</fix>
</trkpt>
<trkpt lat="40.0713749" lon="-105.229789">
  <ele>1583.0</ele>
  <time>2026-08-28T17:52:20Z</time>
  <course>0.0</course>
  <speed>0.0</speed>
  <fix>3d</fix>
</trkpt>
<trkpt lat="40.0713751" lon="-105.2297889">
  <ele>1583.01</ele>
  <time>2026-08-28T17:52:20Z</time>
  <course>247.11</course>
  <speed>0.022360679774997897</speed>
  <fix>3d</fix>
</trkpt>
<trkpt lat="40.0713749" lon="-105.229789">
  <ele>1583.0</ele>
  <time>2026-08-28T17:52:20Z</time>
  <course>0.0</course>
  <speed>0.0</speed>
  <fix>3d</fix>
</trkpt>
<trkpt lat="40.0713751" lon="-105.2297889">
  <ele>1583.01</ele>
  <time>2026-08-28T17:52:20Z</time>
  <course>247.11</course>
  <speed>0.022360679774997897</speed>
  <fix>3d</fix>
</trkpt>
<trkpt lat="40.0713749" lon="-105.229789">
  <ele>1583.0</ele>
  <time>2026-08-28T17:52:20Z</time>
  <course>0.0</course>
  <speed>0.0</speed>
  <fix>3d</fix>
</trkpt>
<trkpt lat="40.0713751" lon="-105.2297889">
  <ele>1583.01</ele>
  <time>2026-08-28T17:52:20Z</time>
  <course>247.11</course>
  <speed>0.022360679774997897</speed>
  <fix>3d</fix>
</trkpt>
<trkpt lat="40.0713749" lon="-105.229789">
  <ele>1583.0</ele>
  <time>2026-08-28T17:52:20Z</time>
  <course>0.0</course>
  <speed>0.0</speed>
  <fix>3d</fix>
</trkpt>
<trkpt lat="40.0713751" lon="-105.2297889">
  <ele>1583.02</ele>
  <time>2026-08-28T17:52:20Z</time>
  <course>247.11</course>
  <speed>0.022360679774997897</speed>
  <fix>3d</fix>
</trkpt>
<trkpt lat="40.0713749" lon="-105.229789">
  <ele>1583.0</ele>
  <time>2026-08-28T17:52:20Z</time>
  <course>0.0</course>
  <speed>0.0</speed>
  <fix>3d</fix>
</trkpt>
<trkpt lat="40.0713751" lon="-105.2297889">
  <ele>1583.02</ele>
  <time>2026-08-28T17:52:20Z</time>
  <course>247.11</course>
  <speed>0.022360679774997897</speed>
  <fix>3d</fix>
</trkpt>
<trkpt lat="40.0713749" lon="-105.229789">
  <ele>1583.0</ele>
  <time>2026-08-28T17:52:20Z</time>
  <course>0.0</course>
  <speed>0.0</speed>
  <fix>3d</fix>
</trkpt>
<trkpt lat="40.0713751" lon="-105.2297889">
  <ele>1583.03</ele>
  <time>2026-08-28T17:52:20Z</time>
  <course>247.11</course>
  <speed>0.022360679774997897</speed>
  <fix>3d</fix>
</trkpt>
<trkpt lat="40.0713749" lon="-105.229789">
  <ele>1583.0</ele>
  <time>2026-08-28T17:52:20Z</time>
  <course>0.0</course>
  <speed>0.0</speed>
  <fix>3d</fix>
</trkpt>
<trkpt lat="40.0713751" lon="-105.2297889">
  <ele>1583.03</ele>
  <time>2026-08-28T17:52:20Z</time>
  <course>247.11</course>
  <speed>0.022360679774997897</speed>
  <fix>3d</fix>
</trkpt>
<trkpt lat="40.0713749" lon="-105.229789">
  <ele>1583.0</ele>
  <time>2026-08-28T17:52:20Z</time>
  <course>0.0</course>
  <speed>0.0</speed>
  <fix>3d</fix>
</trkpt>
<trkpt lat="40.0713751" lon="-105.2297889">
  <ele>1583.04</ele>
  <time>2026-08-28T17:52:20Z</time>
  <course>247.11</course>
  <speed>0.022360679774997897</speed>
  <fix>3d</fix>
</trkpt>
<trkpt lat="40.0713749" lon="-105.229789">
  <ele>1583.0</ele>
  <time>2026-08-28T17:52:20Z</time>
  <course>0.0</course>
  <speed>0.0</speed>
  <fix>3d</fix>
</trkpt>
<trkpt lat="40.0713751" lon="-105.2297889">
  <ele>1583.04</ele>
  <time>2026-08-28T17:52:20Z</time>
  <course>247.11</course>
  <speed>0.022360679774997897</speed>
  <fix>3d</fix>
</trkpt>
<trkpt lat="40.0713751" lon="-105.2297889">
  <ele>1583.05</ele>
  <time>2026-08-28T17:52:20Z</time>
  <course>247.11</course>
  <speed>0.022360679774997897</speed>
  <fix>3d</fix>
</trkpt>
<trkpt lat="40.0713749" lon="-105.229789">
  <ele>1583.0</ele>
  <time>2026-08-28T17:52:20Z</time>
  <course>0.0</course>
  <speed>0.0</speed>
  <fix>3d</fix>
</trkpt>
<trkpt lat="40.0713751" lon="-105.2297889">
  <ele>1583.05</ele>
  <time>2026-08-28T17:52:20Z</time>
  <course>247.11</course>
  <speed>0.022360679774997897</speed>
  <fix>3d</fix>
</trkpt>
<trkpt lat="40.0713749" lon="-105.229789">
  <ele>1583.0</ele>
  <time>2026-08-28T17:52:20Z</time>
  <course>0.0</course>
  <speed>0.0</speed>
  <fix>3d</fix>
</trkpt>
<trkpt lat="40.0713751" lon="-105.2297889">
  <ele>1583.05</ele>
  <time>2026-08-28T17:52:20Z</time>
  <course>247.11</course>
  <speed>0.022360679774997897</speed>
  <fix>3d</fix>
</trkpt>
<trkpt lat="40.0713749" lon="-105.229789">
  <ele>1583.0</ele>
  <time>2026-08-28T17:52:20Z</time>
  <course>0.0</course>
  <speed>0.0</speed>
  <fix>3d</fix>
</trkpt>
<trkpt lat="40.0713751" lon="-105.2297889">
  <ele>1583.05</ele>
  <time>2026-08-28T17:52:20Z</time>
  <course>247.11</course>
  <speed>0.022360679774997897</speed>
  <fix>3d</fix>
</trkpt>
<trkpt lat="40.0713749" lon="-105.229789">
  <ele>1583.0</ele>
  <time>2026-08-28T17:52:20Z</time>
  <course>0.0</course>
  <speed>0.0</speed>
  <fix>3d</fix>
</trkpt>
<trkpt lat="40.0713751" lon="-105.2297889">
  <ele>1583.04</ele>
  <time>2026-08-28T17:52:20Z</time>
  <course>247.11</course>
  <speed>0.022360679774997897</speed>
  <fix>3d</fix>
</trkpt>
<trkpt lat="40.0713749" lon="-105.229789">
  <ele>1583.0</ele>
  <time>2026-08-28T17:52:20Z</time>
  <course>0.0</course>
  <speed>0.0</speed>
  <fix>3d</fix>
</trkpt>
<trkpt lat="40.0713751" lon="-105.2297889">
  <ele>1583.04</ele>
  <time>2026-08-28T17:52:20Z</time>
  <course>247.11</course>
  <speed>0.022360679774997897</speed>
  <fix>3d</fix>
</trkpt>
<trkpt lat="40.0713749" lon="-105.229789">
  <ele>1583.0</ele>
  <time>2026-08-28T17:52:20Z</time>
  <course>0.0</course>
  <speed>0.0</speed>
  <fix>3d</fix>
</trkpt>
<trkpt lat="40.0713751" lon="-105.2297889">
  <ele>1583.03</ele>
  <time>2026-08-28T17:52:20Z</time>
  <course>247.11</course>
  <speed>0.022360679774997897</speed>
  <fix>3d</fix>
</trkpt>
<trkpt lat="40.0713749" lon="-105.229789">
  <ele>1583.0</ele>
  <time>2026-08-28T17:52:20Z</time>
  <course>0.0</course>
  <speed>0.0</speed>
  <fix>3d</fix>
</trkpt>
<trkpt lat="40.0713751" lon="-105.2297889">
  <ele>1583.03</ele>
  <time>2026-08-28T17:52:20Z</time>
  <course>247.11</course>
  <speed>0.022360679774997897</speed>
  <fix>3d</fix>
</trkpt>
<trkpt lat="40.0713749" lon="-105.229789">
  <ele>1583.0</ele>
  <time>2026-08-28T17:52:20Z</time>
  <course>0.0</course>
  <speed>0.0</speed>
  <fix>3d</fix>
</trkpt>
<trkpt lat="40.0713751" lon="-105.2297889">
  <ele>1583.02</ele>
  <time>2026-08-28T17:52:20Z</time>
  <course>247.11</course>
  <speed>0.022360679774997897</speed>
  <fix>3d</fix>
</trkpt>
<trkpt lat="40.0713749" lon="-105.229789">
  <ele>1583.0</ele>
  <time>2026-08-28T17:52:20Z</time>
  <course>0.0</course>
  <speed>0.0</speed>
  <fix>3d</fix>
</trkpt>
<trkpt lat="40.0713751" lon="-105.2297889">
  <ele>1583.01</ele>
  <time>2026-08-28T17:52:20Z</time>
  <course>247.11</course>
  <speed>0.022360679774997897</speed>
  <fix>3d</fix>
</trkpt>
<trkpt lat="40.0713749" lon="-105.229789">
  <ele>1583.0</ele>
  <time>2026-08-28T17:52:20Z</time>
  <course>0.0</course>
  <speed>0.0</speed>
  <fix>3d</fix>
</trkpt>
<trkpt lat="40.0713751" lon="-105.2297889">
  <ele>1583.01</ele>
  <time>2026-08-28T17:52:20Z</time>
  <course>247.11</course>
  <speed>0.022360679774997897</speed>
  <fix>3d</fix>
</trkpt>
<trkpt lat="40.0713749" lon="-105.229789">
  <ele>1583.0</ele>
  <time>2026-08-28T17:52:20Z</time>
  <course>0.0</course>
  <speed>0.0</speed>
  <fix>3d</fix>
</trkpt>
<trkpt lat="40.0713751" lon="-105.2297889">
  <ele>1583.0</ele>
  <time>2026-08-28T17:52:20Z</time>
  <course>247.11</course>
  <speed>0.022360679774997897</speed>
  <fix>3d</fix>
</trkpt>
<trkpt lat="40.0713749" lon="-105.229789">
  <ele>1583.0</ele>
  <time>2026-08-28T17:52:20Z</time>
  <course>0.0</course>
  <speed>0.0</speed>
  <fix>3d</fix>
</trkpt>
<trkpt lat="40.0713751" lon="-105.2297889">
  <ele>1582.99</ele>
  <time>2026-08-28T17:52:20Z</time>
  <course>247.11</course>
  <speed>0.022360679774997897</speed>
  <fix>3d</fix>
</trkpt>
<trkpt lat="40.0713749" lon="-105.229789">
  <ele>1583.0</ele>
  <time>2026-08-28T17:52:20Z</time>
  <course>0.0</course>
  <speed>0.0</speed>
  <fix>3d</fix>
</trkpt>
<trkpt lat="40.0713751" lon="-105.2297889">
  <ele>1582.99</ele>
  <time>2026-08-28T17:52:20Z</time>
  <course>247.11</course>
  <speed>0.022360679774997897</speed>
  <fix>3d</fix>
</trkpt>
<trkpt lat="40.0713749" lon="-105.229789">
  <ele>1583.0</ele>
  <time>2026-08-28T17:52:20Z</time>
  <course>0.0</course>
  <speed>0.0</speed>
  <fix>3d</fix>
</trkpt>
<trkpt lat="40.0713751" lon="-105.2297889">
  <ele>1582.98</ele>
  <time>2026-08-28T17:52:20Z</time>
  <course>247.11</course>
  <speed>0.022360679774997897</speed>
  <fix>3d</fix>
</trkpt>
<trkpt lat="40.0713749" lon="-105.229789">
  <ele>1583.0</ele>
  <time>2026-08-28T17:52:20Z</time>
  <course>0.0</course>
  <speed>0.0</speed>
  <fix>3d</fix>
</trkpt>
<trkpt lat="40.0713751" lon="-105.2297889">
  <ele>1582.97</ele>
  <time>2026-08-28T17:52:20Z</time>
  <course>247.11</course>
  <speed>0.022360679774997897</speed>
  <fix>3d</fix>
</trkpt>
<trkpt lat="40.0713749" lon="-105.229789">
  <ele>1583.0</ele>
  <time>2026-08-28T17:52:20Z</time>
  <course>0.0</course>
  <speed>0.0</speed>
  <fix>3d</fix>
</trkpt>
<trkpt lat="40.071375" lon="-105.2297889">
  <ele>1582.97</ele>
  <time>2026-08-28T17:52:20Z</time>
  <course>247.11</course>
  <speed>0.022360679774997897</speed>
  <fix>3d</fix>
</trkpt>
<trkpt lat="40.0713749" lon="-105.229789">
  <ele>1583.0</ele>
  <time>2026-08-28T17:52:20Z</time>
  <course>0.0</course>
  <speed>0.0</speed>
  <fix>3d</fix>
</trkpt>
<trkpt lat="40.0713751" lon="-105.2297889">
  <ele>1582.96</ele>
  <time>2026-08-28T17:52:20Z</time>
  <course>247.11</course>
  <speed>0.022360679774997897</speed>
  <fix>3d</fix>
</trkpt>
<trkpt lat="40.0713749" lon="-105.229789">
  <ele>1583.0</ele>
  <time>2026-08-28T17:52:20Z</time>
  <course>0.0</course>
  <speed>0.0</speed>
  <fix>3d</fix>
</trkpt>
<trkpt lat="40.071375" lon="-105.2297889">
  <ele>1582.95</ele>
  <time>2026-08-28T17:52:20Z</time>
  <course>247.11</course>
  <speed>0.022360679774997897</speed>
  <fix>3d</fix>
</trkpt>
<trkpt lat="40.0713749" lon="-105.229789">
  <ele>1583.0</ele>
  <time>2026-08-28T17:52:20Z</time>
  <course>0.0</course>
  <speed>0.0</speed>
  <fix>3d</fix>
</trkpt>
<trkpt lat="40.0713751" lon="-105.2297889">
  <ele>1582.94</ele>
  <time>2026-08-28T17:52:20Z</time>
  <course>247.11</course>
  <speed>0.022360679774997897</speed>
  <fix>3d</fix>
</trkpt>
<trkpt lat="40.0713749" lon="-105.229789">
  <ele>1583.0</ele>
  <time>2026-08-28T17:52:20Z</time>
  <course>0.0</course>
  <speed>0.0</speed>
  <fix>3d</fix>
</trkpt>
<trkpt lat="40.071375" lon="-105.2297889">
  <ele>1582.93</ele>
  <time>2026-08-28T17:52:20Z</time>
  <course>247.11</course>
  <speed>0.022360679774997897</speed>
  <fix>3d</fix>
</trkpt>
<trkpt lat="40.0713749" lon="-105.229789">
  <ele>1583.0</ele>
  <time>2026-08-28T17:52:20Z</time>
  <course>0.0</course>
  <speed>0.0</speed>
  <fix>3d</fix>
</trkpt>
<trkpt lat="40.0713751" lon="-105.2297889">
  <ele>1582.93</ele>
  <time>2026-08-28T17:52:20Z</time>
  <course>247.11</course>
  <speed>0.022360679774997897</speed>
  <fix>3d</fix>
</trkpt>
<trkpt lat="40.0713749" lon="-105.229789">
  <ele>1583.0</ele>
  <time>2026-08-28T17:52:20Z</time>
  <course>0.0</course>
  <speed>0.0</speed>
  <fix>3d</fix>
</trkpt>
<trkpt lat="40.071375" lon="-105.2297889">
  <ele>1582.92</ele>
  <time>2026-08-28T17:52:20Z</time>
  <course>247.11</course>
  <speed>0.022360679774997897</speed>
  <fix>3d</fix>
</trkpt>
<trkpt lat="40.0713749" lon="-105.229789">
  <ele>1583.0</ele>
  <time>2026-08-28T17:52:20Z</time>
  <course>0.0</course>
  <speed>0.0</speed>
  <fix>3d</fix>
</trkpt>
<trkpt lat="40.0713751" lon="-105.2297889">
  <ele>1582.92</ele>
  <time>2026-08-28T17:52:20Z</time>
  <course>247.11</course>
  <speed>0.022360679774997897</speed>
  <fix>3d</fix>
</trkpt>
<trkpt lat="40.0713749" lon="-105.229789">
  <ele>1583.0</ele>
  <time>2026-08-28T17:52:20Z</time>
  <course>0.0</course>
  <speed>0.0</speed>
  <fix>3d</fix>
</trkpt>
<trkpt lat="40.0713751" lon="-105.2297889">
  <ele>1582.92</ele>
  <time>2026-08-28T17:52:20Z</time>
  <course>247.11</course>
  <speed>0.022360679774997897</speed>
  <fix>3d</fix>
</trkpt>
<trkpt lat="40.0713749" lon="-105.229789">
  <ele>1583.0</ele>
  <time>2026-08-28T17:52:20Z</time>
  <course>0.0</course>
  <speed>0.0</speed>
  <fix>3d</fix>
</trkpt>
<trkpt lat="40.0713751" lon="-105.2297889">
  <ele>1582.91</ele>
  <time>2026-08-28T17:52:20Z</time>
  <course>247.11</course>
  <speed>0.022360679774997897</speed>
  <fix>3d</fix>
</trkpt>
<trkpt lat="40.0713749" lon="-105.229789">
  <ele>1583.0</ele>
  <time>2026-08-28T17:52:20Z</time>
  <course>0.0</course>
  <speed>0.0</speed>
  <fix>3d</fix>
</trkpt>
<trkpt lat="40.0713751" lon="-105.2297889">
  <ele>1582.91</ele>
  <time>2026-08-28T17:52:20Z</time>
  <course>247.11</course>
  <speed>0.022360679774997897</speed>
  <fix>3d</fix>
</trkpt>
<trkpt lat="40.0713749" lon="-105.229789">
  <ele>1583.0</ele>
  <time>2026-08-28T17:52:20Z</time>
  <course>0.0</course>
  <speed>0.0</speed>
  <fix>3d</fix>
</trkpt>
<trkpt lat="40.0713751" lon="-105.2297889">
  <ele>1582.91</ele>
  <time>2026-08-28T17:52:20Z</time>
  <course>247.11</course>
  <speed>0.022360679774997897</speed>
  <fix>3d</fix>
</trkpt>
<trkpt lat="40.0713749" lon="-105.229789">
  <ele>1583.0</ele>
  <time>2026-08-28T17:52:20Z</time>
  <course>0.0</course>
  <speed>0.0</speed>
  <fix>3d</fix>
</trkpt>
<trkpt lat="40.0713751" lon="-105.2297889">
  <ele>1582.9</ele>
  <time>2026-08-28T17:52:20Z</time>
  <course>247.11</course>
  <speed>0.022360679774997897</speed>
  <fix>3d</fix>
</trkpt>
<trkpt lat="40.0713749" lon="-105.229789">
  <ele>1583.0</ele>
  <time>2026-08-28T17:52:20Z</time>
  <course>0.0</course>
  <speed>0.0</speed>
  <fix>3d</fix>
</trkpt>
<trkpt lat="40.0713751" lon="-105.2297889">
  <ele>1582.9</ele>
  <time>2026-08-28T17:52:20Z</time>
  <course>247.11</course>
  <speed>0.022360679774997897</speed>
  <fix>3d</fix>
</trkpt>
<trkpt lat="40.0713749" lon="-105.229789">
  <ele>1583.0</ele>
  <time>2026-08-28T17:52:20Z</time>
  <course>0.0</course>
  <speed>0.0</speed>
  <fix>3d</fix>
</trkpt>
<trkpt lat="40.0713751" lon="-105.2297889">
  <ele>1582.9</ele>
  <time>2026-08-28T17:52:20Z</time>
  <course>247.11</course>
  <speed>0.022360679774997897</speed>
  <fix>3d</fix>
</trkpt>
<trkpt lat="40.0713749" lon="-105.229789">
  <ele>1583.0</ele>
  <time>2026-08-28T17:52:20Z</time>
  <course>0.0</course>
  <speed>0.0</speed>
  <fix>3d</fix>
</trkpt>
<trkpt lat="40.0713751" lon="-105.2297889">
  <ele>1582.91</ele>
  <time>2026-08-28T17:52:20Z</time>
  <course>247.11</course>
  <speed>0.022360679774997897</speed>
  <fix>3d</fix>
</trkpt>
<trkpt lat="40.0713749" lon="-105.229789">
  <ele>1583.0</ele>
  <time>2026-08-28T17:52:20Z</time>
  <course>0.0</course>
  <speed>0.0</speed>
  <fix>3d</fix>
</trkpt>
<trkpt lat="40.0713751" lon="-105.2297889">
  <ele>1582.92</ele>
  <time>2026-08-28T17:52:20Z</time>
  <course>247.11</course>
  <speed>0.022360679774997897</speed>
  <fix>3d</fix>
</trkpt>
<trkpt lat="40.0713749" lon="-105.229789">
  <ele>1583.0</ele>
  <time>2026-08-28T17:52:20Z</time>
  <course>0.0</course>
  <speed>0.0</speed>
  <fix>3d</fix>
</trkpt>
<trkpt lat="40.0713751" lon="-105.2297889">
  <ele>1582.93</ele>
  <time>2026-08-28T17:52:20Z</time>
  <course>247.11</course>
  <speed>0.022360679774997897</speed>
  <fix>3d</fix>
</trkpt>
<trkpt lat="40.0713749" lon="-105.229789">
  <ele>1583.0</ele>
  <time>2026-08-28T17:52:20Z</time>
  <course>0.0</course>
  <speed>0.0</speed>
  <fix>3d</fix>
</trkpt>
<trkpt lat="40.071375" lon="-105.2297889">
  <ele>1582.93</ele>
  <time>2026-08-28T17:52:20Z</time>
  <course>247.11</course>
  <speed>0.022360679774997897</speed>
  <fix>3d</fix>
</trkpt>
<trkpt lat="40.0713749" lon="-105.229789">
  <ele>1583.0</ele>
  <time>2026-08-28T17:52:20Z</time>
  <course>0.0</course>
  <speed>0.0</speed>
  <fix>3d</fix>
</trkpt>
<trkpt lat="40.071375" lon="-105.2297889">
  <ele>1582.94</ele>
  <time>2026-08-28T17:52:20Z</time>
  <course>247.11</course>
  <speed>0.022360679774997897</speed>
  <fix>3d</fix>
</trkpt>
<trkpt lat="40.0713749" lon="-105.229789">
  <ele>1583.0</ele>
  <time>2026-08-28T17:52:20Z</time>
  <course>0.0</course>
  <speed>0.0</speed>
  <fix>3d</fix>
</trkpt>
<trkpt lat="40.071375" lon="-105.2297889">
  <ele>1582.95</ele>
  <time>2026-08-28T17:52:20Z</time>
  <course>247.11</course>
  <speed>0.022360679774997897</speed>
  <fix>3d</fix>
</trkpt>
<trkpt lat="40.0713749" lon="-105.229789">
  <ele>1583.0</ele>
  <time>2026-08-28T17:52:20Z</time>
  <course>0.0</course>
  <speed>0.0</speed>
  <fix>3d</fix>
</trkpt>
<trkpt lat="40.071375" lon="-105.2297889">
  <ele>1582.96</ele>
  <time>2026-08-28T17:52:20Z</time>
  <course>247.11</course>
  <speed>0.022360679774997897</speed>
  <fix>3d</fix>
</trkpt>
<trkpt lat="40.0713749" lon="-105.229789">
  <ele>1583.0</ele>
  <time>2026-08-28T17:52:20Z</time>
  <course>0.0</course>
  <speed>0.0</speed>
  <fix>3d</fix>
</trkpt>
<trkpt lat="40.071375" lon="-105.2297889">
  <ele>1582.97</ele>
  <time>2026-08-28T17:52:20Z</time>
  <course>247.11</course>
  <speed>0.022360679774997897</speed>
  <fix>3d</fix>
</trkpt>
<trkpt lat="40.0713749" lon="-105.229789">
  <ele>1583.0</ele>
  <time>2026-08-28T17:52:20Z</time>
  <course>0.0</course>
  <speed>0.0</speed>
  <fix>3d</fix>
</trkpt>
<trkpt lat="40.071375" lon="-105.2297889">
  <ele>1582.97</ele>
  <time>2026-08-28T17:52:20Z</time>
  <course>247.11</course>
  <speed>0.022360679774997897</speed>
  <fix>3d</fix>
</trkpt>
<trkpt lat="40.0713749" lon="-105.229789">
  <ele>1583.0</ele>
  <time>2026-08-28T17:52:20Z</time>
  <course>0.0</course>
  <speed>0.0</speed>
  <fix>3d</fix>
</trkpt>
<trkpt lat="40.071375" lon="-105.2297889">
  <ele>1582.97</ele>
  <time>2026-08-28T17:52:20Z</time>
  <course>247.11</course>
  <speed>0.022360679774997897</speed>
  <fix>3d</fix>
</trkpt>
<trkpt lat="40.0713749" lon="-105.229789">
  <ele>1583.0</ele>
  <time>2026-08-28T17:52:20Z</time>
  <course>0.0</course>
  <speed>0.0</speed>
  <fix>3d</fix>
</trkpt>
<trkpt lat="40.0713751" lon="-105.2297889">
  <ele>1582.97</ele>
  <time>2026-08-28T17:52:20Z</time>
  <course>247.11</course>
  <speed>0.022360679774997897</speed>
  <fix>3d</fix>
</trkpt>
<trkpt lat="40.0713749" lon="-105.229789">
  <ele>1583.0</ele>
  <time>2026-08-28T17:52:20Z</time>
  <course>0.0</course>
  <speed>0.0</speed>
  <fix>3d</fix>
</trkpt>
<trkpt lat="40.071375" lon="-105.2297889">
  <ele>1582.97</ele>
  <time>2026-08-28T17:52:20Z</time>
  <course>247.11</course>
  <speed>0.022360679774997897</speed>
  <fix>3d</fix>
</trkpt>
<trkpt lat="40.0713749" lon="-105.229789">
  <ele>1583.0</ele>
  <time>2026-08-28T17:52:20Z</time>
  <course>0.0</course>
  <speed>0.0</speed>
  <fix>3d</fix>
</trkpt>
<trkpt lat="40.0713751" lon="-105.2297889">
  <ele>1582.97</ele>
  <time>2026-08-28T17:52:20Z</time>
  <course>247.11</course>
  <speed>0.022360679774997897</speed>
  <fix>3d</fix>
</trkpt>
<trkpt lat="40.0713749" lon="-105.229789">
  <ele>1583.0</ele>
  <time>2026-08-28T17:52:20Z</time>
  <course>0.0</course>
  <speed>0.0</speed>
  <fix>3d</fix>
</trkpt>
<trkpt lat="40.0713751" lon="-105.2297889">
  <ele>1582.97</ele>
  <time>2026-08-28T17:52:20Z</time>
  <course>247.11</course>
  <speed>0.022360679774997897</speed>
  <fix>3d</fix>
</trkpt>
<trkpt lat="40.0713749" lon="-105.229789">
  <ele>1583.0</ele>
  <time>2026-08-28T17:52:20Z</time>
  <course>0.0</course>
  <speed>0.0</speed>
  <fix>3d</fix>
</trkpt>
<trkpt lat="40.0713751" lon="-105.2297889">
  <ele>1582.97</ele>
  <time>2026-08-28T17:52:20Z</time>
  <course>247.11</course>
  <speed>0.022360679774997897</speed>
  <fix>3d</fix>
</trkpt>
<trkpt lat="40.0713749" lon="-105.229789">
  <ele>1583.0</ele>
  <time>2026-08-28T17:52:20Z</time>
  <course>0.0</course>
  <speed>0.0</speed>
  <fix>3d</fix>
</trkpt>
<trkpt lat="40.0713751" lon="-105.2297889">
  <ele>1582.96</ele>
  <time>2026-08-28T17:52:20Z</time>
  <course>247.11</course>
  <speed>0.022360679774997897</speed>
  <fix>3d</fix>
</trkpt>
<trkpt lat="40.0713749" lon="-105.229789">
  <ele>1583.0</ele>
  <time>2026-08-28T17:52:20Z</time>
  <course>0.0</course>
  <speed>0.0</speed>
  <fix>3d</fix>
</trkpt>
<trkpt lat="40.0713751" lon="-105.2297889">
  <ele>1582.96</ele>
  <time>2026-08-28T17:52:20Z</time>
  <course>247.11</course>
  <speed>0.022360679774997897</speed>
  <fix>3d</fix>
</trkpt>
<trkpt lat="40.0713749" lon="-105.229789">
  <ele>1583.0</ele>
  <time>2026-08-28T17:52:20Z</time>
  <course>0.0</course>
  <speed>0.0</speed>
  <fix>3d</fix>
</trkpt>
<trkpt lat="40.0713751" lon="-105.2297889">
  <ele>1582.95</ele>
  <time>2026-08-28T17:52:20Z</time>
  <course>247.11</course>
  <speed>0.022360679774997897</speed>
  <fix>3d</fix>
</trkpt>
<trkpt lat="40.0713749" lon="-105.229789">
  <ele>1583.0</ele>
  <time>2026-08-28T17:52:20Z</time>
  <course>0.0</course>
  <speed>0.0</speed>
  <fix>3d</fix>
</trkpt>
<trkpt lat="40.0713751" lon="-105.2297889">
  <ele>1582.95</ele>
  <time>2026-08-28T17:52:20Z</time>
  <course>247.11</course>
  <speed>0.022360679774997897</speed>
  <fix>3d</fix>
</trkpt>
<trkpt lat="40.0713749" lon="-105.229789">
  <ele>1583.0</ele>
  <time>2026-08-28T17:52:20Z</time>
  <course>0.0</course>
  <speed>0.0</speed>
  <fix>3d</fix>
</trkpt>
<trkpt lat="40.0713751" lon="-105.2297889">
  <ele>1582.95</ele>
  <time>2026-08-28T17:52:20Z</time>
  <course>247.11</course>
  <speed>0.022360679774997897</speed>
  <fix>3d</fix>
</trkpt>
<trkpt lat="40.0713749" lon="-105.229789">
  <ele>1583.0</ele>
  <time>2026-08-28T17:52:20Z</time>
  <course>0.0</course>
  <speed>0.0</speed>
  <fix>3d</fix>
</trkpt>
<trkpt lat="40.0713751" lon="-105.2297889">
  <ele>1582.95</ele>
  <time>2026-08-28T17:52:20Z</time>
  <course>247.11</course>
  <speed>0.022360679774997897</speed>
  <fix>3d</fix>
</trkpt>
<trkpt lat="40.0713749" lon="-105.229789">
  <ele>1583.0</ele>
  <time>2026-08-28T17:52:20Z</time>
  <course>0.0</course>
  <speed>0.0</speed>
  <fix>3d</fix>
</trkpt>
<trkpt lat="40.0713751" lon="-105.2297889">
  <ele>1582.95</ele>
  <time>2026-08-28T17:52:20Z</time>
  <course>247.11</course>
  <speed>0.022360679774997897</speed>
  <fix>3d</fix>
</trkpt>
<trkpt lat="40.0713749" lon="-105.229789">
  <ele>1583.0</ele>
  <time>2026-08-28T17:52:20Z</time>
  <course>0.0</course>
  <speed>0.0</speed>
  <fix>3d</fix>
</trkpt>
<trkpt lat="40.0713751" lon="-105.2297889">
  <ele>1582.95</ele>
  <time>2026-08-28T17:52:20Z</time>
  <course>247.11</course>
  <speed>0.022360679774997897</speed>
  <fix>3d</fix>
</trkpt>
<trkpt lat="40.0713749" lon="-105.229789">
  <ele>1583.0</ele>
  <time>2026-08-28T17:52:20Z</time>
  <course>0.0</course>
  <speed>0.0</speed>
  <fix>3d</fix>
</trkpt>
<trkpt lat="40.0713751" lon="-105.2297889">
  <ele>1582.94</ele>
  <time>2026-08-28T17:52:20Z</time>
  <course>247.11</course>
  <speed>0.022360679774997897</speed>
  <fix>3d</fix>
</trkpt>
<trkpt lat="40.0713749" lon="-105.229789">
  <ele>1583.0</ele>
  <time>2026-08-28T17:52:20Z</time>
  <course>0.0</course>
  <speed>0.0</speed>
  <fix>3d</fix>
</trkpt>
<trkpt lat="40.0713751" lon="-105.2297889">
  <ele>1582.94</ele>
  <time>2026-08-28T17:52:20Z</time>
  <course>247.11</course>
  <speed>0.022360679774997897</speed>
  <fix>3d</fix>
</trkpt>
<trkpt lat="40.0713749" lon="-105.229789">
  <ele>1583.0</ele>
  <time>2026-08-28T17:52:20Z</time>
  <course>0.0</course>
  <speed>0.0</speed>
  <fix>3d</fix>
</trkpt>
<trkpt lat="40.0713751" lon="-105.2297889">
  <ele>1582.94</ele>
  <time>2026-08-28T17:52:20Z</time>
  <course>247.11</course>
  <speed>0.022360679774997897</speed>
  <fix>3d</fix>
</trkpt>
<trkpt lat="40.0713749" lon="-105.229789">
  <ele>1583.0</ele>
  <time>2026-08-28T17:52:20Z</time>
  <course>0.0</course>
  <speed>0.0</speed>
  <fix>3d</fix>
</trkpt>
<trkpt lat="40.0713751" lon="-105.2297889">
  <ele>1582.93</ele>
  <time>2026-08-28T17:52:20Z</time>
  <course>247.11</course>
  <speed>0.022360679774997897</speed>
  <fix>3d</fix>
</trkpt>
<trkpt lat="40.0713749" lon="-105.229789">
  <ele>1583.0</ele>
  <time>2026-08-28T17:52:20Z</time>
  <course>0.0</course>
  <speed>0.0</speed>
  <fix>3d</fix>
</trkpt>
<trkpt lat="40.0713751" lon="-105.2297889">
  <ele>1582.93</ele>
  <time>2026-08-28T17:52:20Z</time>
  <course>247.11</course>
  <speed>0.022360679774997897</speed>
  <fix>3d</fix>
</trkpt>
<trkpt lat="40.0713749" lon="-105.229789">
  <ele>1583.0</ele>
  <time>2026-08-28T17:52:20Z</time>
  <course>0.0</course>
  <speed>0.0</speed>
  <fix>3d</fix>
</trkpt>
<trkpt lat="40.0713751" lon="-105.2297889">
  <ele>1582.93</ele>
  <time>2026-08-28T17:52:20Z</time>
  <course>247.11</course>
  <speed>0.022360679774997897</speed>
  <fix>3d</fix>
</trkpt>
<trkpt lat="40.0713749" lon="-105.229789">
  <ele>1583.0</ele>
  <time>2026-08-28T17:52:20Z</time>
  <course>0.0</course>
  <speed>0.0</speed>
  <fix>3d</fix>
</trkpt>
<trkpt lat="40.0713751" lon="-105.2297889">
  <ele>1582.93</ele>
  <time>2026-08-28T17:52:20Z</time>
  <course>247.11</course>
  <speed>0.022360679774997897</speed>
  <fix>3d</fix>
</trkpt>
<trkpt lat="40.0713749" lon="-105.229789">
  <ele>1583.0</ele>
  <time>2026-08-28T17:52:20Z</time>
  <course>0.0</course>
  <speed>0.0</speed>
  <fix>3d</fix>
</trkpt>
<trkpt lat="40.0713751" lon="-105.2297889">
  <ele>1582.93</ele>
  <time>2026-08-28T17:52:20Z</time>
  <course>247.11</course>
  <speed>0.022360679774997897</speed>
  <fix>3d</fix>
</trkpt>
<trkpt lat="40.0713749" lon="-105.229789">
  <ele>1583.0</ele>
  <time>2026-08-28T17:52:20Z</time>
  <course>0.0</course>
  <speed>0.0</speed>
  <fix>3d</fix>
</trkpt>
<trkpt lat="40.0713751" lon="-105.2297889">
  <ele>1582.93</ele>
  <time>2026-08-28T17:52:20Z</time>
  <course>247.11</course>
  <speed>0.022360679774997897</speed>
  <fix>3d</fix>
</trkpt>
<trkpt lat="40.0713749" lon="-105.229789">
  <ele>1583.0</ele>
  <time>2026-08-28T17:52:20Z</time>
  <course>0.0</course>
  <speed>0.0</speed>
  <fix>3d</fix>
</trkpt>
<trkpt lat="40.0713751" lon="-105.2297889">
  <ele>1582.93</ele>
  <time>2026-08-28T17:52:20Z</time>
  <course>247.11</course>
  <speed>0.022360679774997897</speed>
  <fix>3d</fix>
</trkpt>
<trkpt lat="40.0713749" lon="-105.229789">
  <ele>1583.0</ele>
  <time>2026-08-28T17:52:20Z</time>
  <course>0.0</course>
  <speed>0.0</speed>
  <fix>3d</fix>
</trkpt>
<trkpt lat="40.0713751" lon="-105.2297889">
  <ele>1582.93</ele>
  <time>2026-08-28T17:52:20Z</time>
  <course>247.11</course>
  <speed>0.022360679774997897</speed>
  <fix>3d</fix>
</trkpt>
<trkpt lat="40.0713749" lon="-105.229789">
  <ele>1583.0</ele>
  <time>2026-08-28T17:52:20Z</time>
  <course>0.0</course>
  <speed>0.0</speed>
  <fix>3d</fix>
</trkpt>
<trkpt lat="40.0713751" lon="-105.2297889">
  <ele>1582.93</ele>
  <time>2026-08-28T17:52:20Z</time>
  <course>247.11</course>
  <speed>0.022360679774997897</speed>
  <fix>3d</fix>
</trkpt>
<trkpt lat="40.0713749" lon="-105.229789">
  <ele>1583.0</ele>
  <time>2026-08-28T17:52:20Z</time>
  <course>0.0</course>
  <speed>0.0</speed>
  <fix>3d</fix>
</trkpt>
<trkpt lat="40.0713751" lon="-105.2297889">
  <ele>1582.93</ele>
  <time>2026-08-28T17:52:20Z</time>
  <course>247.11</course>
  <speed>0.022360679774997897</speed>
  <fix>3d</fix>
</trkpt>
<trkpt lat="40.0713749" lon="-105.229789">
  <ele>1583.0</ele>
  <time>2026-08-28T17:52:20Z</time>
  <course>0.0</course>
  <speed>0.0</speed>
  <fix>3d</fix>
</trkpt>
<trkpt lat="40.0713751" lon="-105.2297889">
  <ele>1582.93</ele>
  <time>2026-08-28T17:52:20Z</time>
  <course>247.11</course>
  <speed>0.022360679774997897</speed>
  <fix>3d</fix>
</trkpt>
<trkpt lat="40.0713749" lon="-105.229789">
  <ele>1583.0</ele>
  <time>2026-08-28T17:52:20Z</time>
  <course>0.0</course>
  <speed>0.0</speed>
  <fix>3d</fix>
</trkpt>
<trkpt lat="40.0713751" lon="-105.2297889">
  <ele>1582.93</ele>
  <time>2026-08-28T17:52:20Z</time>
  <course>247.11</course>
  <speed>0.022360679774997897</speed>
  <fix>3d</fix>
</trkpt>
<trkpt lat="40.0713749" lon="-105.229789">
  <ele>1583.0</ele>
  <time>2026-08-28T17:52:20Z</time>
  <course>0.0</course>
  <speed>0.0</speed>
  <fix>3d</fix>
</trkpt>
<trkpt lat="40.0713751" lon="-105.2297889">
  <ele>1582.93</ele>
  <time>2026-08-28T17:52:20Z</time>
  <course>247.11</course>
  <speed>0.022360679774997897</speed>
  <fix>3d</fix>
</trkpt>
<trkpt lat="40.0713749" lon="-105.229789">
  <ele>1583.0</ele>
  <time>2026-08-28T17:52:20Z</time>
  <course>0.0</course>
  <speed>0.0</speed>
  <fix>3d</fix>
</trkpt>
<trkpt lat="40.0713751" lon="-105.2297889">
  <ele>1582.93</ele>
  <time>2026-08-28T17:52:20Z</time>
  <course>247.11</course>
  <speed>0.022360679774997897</speed>
  <fix>3d</fix>
</trkpt>
<trkpt lat="40.0713749" lon="-105.229789">
  <ele>1583.0</ele>
  <time>2026-08-28T17:52:20Z</time>
  <course>0.0</course>
  <speed>0.0</speed>
  <fix>3d</fix>
</trkpt>
<trkpt lat="40.0713751" lon="-105.2297889">
  <ele>1582.93</ele>
  <time>2026-08-28T17:52:20Z</time>
  <course>247.11</course>
  <speed>0.022360679774997897</speed>
  <fix>3d</fix>
</trkpt>
<trkpt lat="40.0713749" lon="-105.229789">
  <ele>1583.0</ele>
  <time>2026-08-28T17:52:20Z</time>
  <course>0.0</course>
  <speed>0.0</speed>
  <fix>3d</fix>
</trkpt>
<trkpt lat="40.0713751" lon="-105.2297889">
  <ele>1582.93</ele>
  <time>2026-08-28T17:52:20Z</time>
  <course>247.11</course>
  <speed>0.022360679774997897</speed>
  <fix>3d</fix>
</trkpt>
<trkpt lat="40.0713749" lon="-105.229789">
  <ele>1583.0</ele>
  <time>2026-08-28T17:52:20Z</time>
  <course>0.0</course>
  <speed>0.0</speed>
  <fix>3d</fix>
</trkpt>
<trkpt lat="40.0713751" lon="-105.2297889">
  <ele>1582.93</ele>
  <time>2026-08-28T17:52:20Z</time>
  <course>247.11</course>
  <speed>0.022360679774997897</speed>
  <fix>3d</fix>
</trkpt>
<trkpt lat="40.0713749" lon="-105.229789">
  <ele>1583.0</ele>
  <time>2026-08-28T17:52:20Z</time>
  <course>0.0</course>
  <speed>0.0</speed>
  <fix>3d</fix>
</trkpt>
<trkpt lat="40.0713751" lon="-105.2297889">
  <ele>1582.93</ele>
  <time>2026-08-28T17:52:20Z</time>
  <course>247.11</course>
  <speed>0.022360679774997897</speed>
  <fix>3d</fix>
</trkpt>
<trkpt lat="40.0713749" lon="-105.229789">
  <ele>1583.0</ele>
  <time>2026-08-28T17:52:20Z</time>
  <course>0.0</course>
  <speed>0.0</speed>
  <fix>3d</fix>
</trkpt>
<trkpt lat="40.0713751" lon="-105.2297889">
  <ele>1582.93</ele>
  <time>2026-08-28T17:52:20Z</time>
  <course>247.11</course>
  <speed>0.022360679774997897</speed>
  <fix>3d</fix>
</trkpt>
<trkpt lat="40.0713749" lon="-105.229789">
  <ele>1583.0</ele>
  <time>2026-08-28T17:52:20Z</time>
  <course>0.0</course>
  <speed>0.0</speed>
  <fix>3d</fix>
</trkpt>
<trkpt lat="40.0713751" lon="-105.2297889">
  <ele>1582.93</ele>
  <time>2026-08-28T17:52:20Z</time>
  <course>247.11</course>
  <speed>0.022360679774997897</speed>
  <fix>3d</fix>
</trkpt>
<trkpt lat="40.0713749" lon="-105.229789">
  <ele>1583.0</ele>
  <time>2026-08-28T17:52:20Z</time>
  <course>0.0</course>
  <speed>0.0</speed>
  <fix>3d</fix>
</trkpt>
<trkpt lat="40.0713751" lon="-105.2297889">
  <ele>1582.93</ele>
  <time>2026-08-28T17:52:20Z</time>
  <course>247.11</course>
  <speed>0.022360679774997897</speed>
  <fix>3d</fix>
</trkpt>
<trkpt lat="40.0713749" lon="-105.229789">
  <ele>1583.0</ele>
  <time>2026-08-28T17:52:20Z</time>
  <course>0.0</course>
  <speed>0.0</speed>
  <fix>3d</fix>
</trkpt>
<trkpt lat="40.0713751" lon="-105.2297889">
  <ele>1582.93</ele>
  <time>2026-08-28T17:52:20Z</time>
  <course>247.11</course>
  <speed>0.022360679774997897</speed>
  <fix>3d</fix>
</trkpt>
<trkpt lat="40.0713749" lon="-105.229789">
  <ele>1583.0</ele>
  <time>2026-08-28T17:52:20Z</time>
  <course>0.0</course>
  <speed>0.0</speed>
  <fix>3d</fix>
</trkpt>
<trkpt lat="40.0713751" lon="-105.2297889">
  <ele>1582.93</ele>
  <time>2026-08-28T17:52:20Z</time>
  <course>247.11</course>
  <speed>0.022360679774997897</speed>
  <fix>3d</fix>
</trkpt>
<trkpt lat="40.0713749" lon="-105.229789">
  <ele>1583.0</ele>
  <time>2026-08-28T17:52:20Z</time>
  <course>0.0</course>
  <speed>0.0</speed>
  <fix>3d</fix>
</trkpt>
<trkpt lat="40.0713751" lon="-105.2297889">
  <ele>1582.93</ele>
  <time>2026-08-28T17:52:20Z</time>
  <course>247.11</course>
  <speed>0.022360679774997897</speed>
  <fix>3d</fix>
</trkpt>
<trkpt lat="40.0713749" lon="-105.229789">
  <ele>1583.0</ele>
  <time>2026-08-28T17:52:20Z</time>
  <course>0.0</course>
  <speed>0.0</speed>
  <fix>3d</fix>
</trkpt>
<trkpt lat="40.0713751" lon="-105.2297889">
  <ele>1582.94</ele>
  <time>2026-08-28T17:52:20Z</time>
  <course>247.11</course>
  <speed>0.022360679774997897</speed>
  <fix>3d</fix>
</trkpt>
<trkpt lat="40.0713749" lon="-105.229789">
  <ele>1583.0</ele>
  <time>2026-08-28T17:52:20Z</time>
  <course>0.0</course>
  <speed>0.0</speed>
  <fix>3d</fix>
</trkpt>
<trkpt lat="40.0713751" lon="-105.2297889">
  <ele>1582.94</ele>
  <time>2026-08-28T17:52:20Z</time>
  <course>247.11</course>
  <speed>0.022360679774997897</speed>
  <fix>3d</fix>
</trkpt>
<trkpt lat="40.0713749" lon="-105.229789">
  <ele>1583.0</ele>
  <time>2026-08-28T17:52:20Z</time>
  <course>0.0</course>
  <speed>0.0</speed>
  <fix>3d</fix>
</trkpt>
<trkpt lat="40.0713751" lon="-105.2297889">
  <ele>1582.95</ele>
  <time>2026-08-28T17:52:20Z</time>
  <course>247.11</course>
  <speed>0.022360679774997897</speed>
  <fix>3d</fix>
</trkpt>
<trkpt lat="40.0713749" lon="-105.229789">
  <ele>1583.0</ele>
  <time>2026-08-28T17:52:20Z</time>
  <course>0.0</course>
  <speed>0.0</speed>
  <fix>3d</fix>
</trkpt>
<trkpt lat="40.0713751" lon="-105.2297889">
  <ele>1582.96</ele>
  <time>2026-08-28T17:52:20Z</time>
  <course>247.11</course>
  <speed>0.022360679774997897</speed>
  <fix>3d</fix>
</trkpt>
<trkpt lat="40.0713749" lon="-105.229789">
  <ele>1583.0</ele>
  <time>2026-08-28T17:52:20Z</time>
  <course>0.0</course>
  <speed>0.0</speed>
  <fix>3d</fix>
</trkpt>
<trkpt lat="40.0713751" lon="-105.2297889">
  <ele>1582.96</ele>
  <time>2026-08-28T17:52:20Z</time>
  <course>247.11</course>
  <speed>0.022360679774997897</speed>
  <fix>3d</fix>
</trkpt>
<trkpt lat="40.0713749" lon="-105.229789">
  <ele>1583.0</ele>
  <time>2026-08-28T17:52:20Z</time>
  <course>0.0</course>
  <speed>0.0</speed>
  <fix>3d</fix>
</trkpt>
<trkpt lat="40.0713751" lon="-105.2297889">
  <ele>1582.97</ele>
  <time>2026-08-28T17:52:20Z</time>
  <course>247.11</course>
  <speed>0.022360679774997897</speed>
  <fix>3d</fix>
</trkpt>
<trkpt lat="40.0713749" lon="-105.229789">
  <ele>1583.0</ele>
  <time>2026-08-28T17:52:20Z</time>
  <course>0.0</course>
  <speed>0.0</speed>
  <fix>3d</fix>
</trkpt>
<trkpt lat="40.0713751" lon="-105.2297889">
  <ele>1582.98</ele>
  <time>2026-08-28T17:52:20Z</time>
  <course>247.11</course>
  <speed>0.022360679774997897</speed>
  <fix>3d</fix>
</trkpt>
<trkpt lat="40.0713749" lon="-105.229789">
  <ele>1583.0</ele>
  <time>2026-08-28T17:52:20Z</time>
  <course>0.0</course>
  <speed>0.0</speed>
  <fix>3d</fix>
</trkpt>
<trkpt lat="40.0713751" lon="-105.2297889">
  <ele>1582.99</ele>
  <time>2026-08-28T17:52:20Z</time>
  <course>247.11</course>
  <speed>0.022360679774997897</speed>
  <fix>3d</fix>
</trkpt>
<trkpt lat="40.0713749" lon="-105.229789">
  <ele>1583.0</ele>
  <time>2026-08-28T17:52:20Z</time>
  <course>0.0</course>
  <speed>0.0</speed>
  <fix>3d</fix>
</trkpt>
<trkpt lat="40.0713751" lon="-105.2297889">
  <ele>1583.0</ele>
  <time>2026-08-28T17:52:20Z</time>
  <course>247.11</course>
  <speed>0.022360679774997897</speed>
  <fix>3d</fix>
</trkpt>
<trkpt lat="40.0713749" lon="-105.229789">
  <ele>1583.0</ele>
  <time>2026-08-28T17:52:20Z</time>
  <course>0.0</course>
  <speed>0.0</speed>
  <fix>3d</fix>
</trkpt>
<trkpt lat="40.0713751" lon="-105.2297889">
  <ele>1583.0</ele>
  <time>2026-08-28T17:52:20Z</time>
  <course>247.11</course>
  <speed>0.022360679774997897</speed>
  <fix>3d</fix>
</trkpt>
<trkpt lat="40.0713749" lon="-105.229789">
  <ele>1583.0</ele>
  <time>2026-08-28T17:52:20Z</time>
  <course>0.0</course>
  <speed>0.0</speed>
  <fix>3d</fix>
</trkpt>
<trkpt lat="40.0713751" lon="-105.2297889">
  <ele>1583.0</ele>
  <time>2026-08-28T17:52:20Z</time>
  <course>247.11</course>
  <speed>0.022360679774997897</speed>
  <fix>3d</fix>
</trkpt>
<trkpt lat="40.0713749" lon="-105.229789">
  <ele>1583.0</ele>
  <time>2026-08-28T17:52:20Z</time>
  <course>0.0</course>
  <speed>0.0</speed>
  <fix>3d</fix>
</trkpt>
<trkpt lat="40.0713751" lon="-105.2297889">
  <ele>1582.99</ele>
  <time>2026-08-28T17:52:20Z</time>
  <course>247.11</course>
  <speed>0.022360679774997897</speed>
  <fix>3d</fix>
</trkpt>
<trkpt lat="40.0713749" lon="-105.229789">
  <ele>1583.0</ele>
  <time>2026-08-28T17:52:20Z</time>
  <course>0.0</course>
  <speed>0.0</speed>
  <fix>3d</fix>
</trkpt>
<trkpt lat="40.0713751" lon="-105.2297889">
  <ele>1582.99</ele>
  <time>2026-08-28T17:52:20Z</time>
  <course>247.11</course>
  <speed>0.022360679774997897</speed>
  <fix>3d</fix>
</trkpt>
<trkpt lat="40.0713749" lon="-105.229789">
  <ele>1583.0</ele>
  <time>2026-08-28T17:52:20Z</time>
  <course>0.0</course>
  <speed>0.0</speed>
  <fix>3d</fix>
</trkpt>
<trkpt lat="40.0713751" lon="-105.2297889">
  <ele>1582.99</ele>
  <time>2026-08-28T17:52:20Z</time>
  <course>247.11</course>
  <speed>0.022360679774997897</speed>
  <fix>3d</fix>
</trkpt>
<trkpt lat="40.0713749" lon="-105.229789">
  <ele>1583.0</ele>
  <time>2026-08-28T17:52:20Z</time>
  <course>0.0</course>
  <speed>0.0</speed>
  <fix>3d</fix>
</trkpt>
<trkpt lat="40.0713751" lon="-105.2297889">
  <ele>1582.98</ele>
  <time>2026-08-28T17:52:20Z</time>
  <course>247.11</course>
  <speed>0.022360679774997897</speed>
  <fix>3d</fix>
</trkpt>
<trkpt lat="40.0713749" lon="-105.229789">
  <ele>1583.0</ele>
  <time>2026-08-28T17:52:20Z</time>
  <course>0.0</course>
  <speed>0.0</speed>
  <fix>3d</fix>
</trkpt>
<trkpt lat="40.0713751" lon="-105.2297889">
  <ele>1582.98</ele>
  <time>2026-08-28T17:52:20Z</time>
  <course>247.11</course>
  <speed>0.022360679774997897</speed>
  <fix>3d</fix>
</trkpt>
<trkpt lat="40.0713749" lon="-105.229789">
  <ele>1583.0</ele>
  <time>2026-08-28T17:52:20Z</time>
  <course>0.0</course>
  <speed>0.0</speed>
  <fix>3d</fix>
</trkpt>
<trkpt lat="40.0713751" lon="-105.2297889">
  <ele>1582.97</ele>
  <time>2026-08-28T17:52:20Z</time>
  <course>247.11</course>
  <speed>0.022360679774997897</speed>
  <fix>3d</fix>
</trkpt>
<trkpt lat="40.0713749" lon="-105.229789">
  <ele>1583.0</ele>
  <time>2026-08-28T17:52:20Z</time>
  <course>0.0</course>
  <speed>0.0</speed>
  <fix>3d</fix>
</trkpt>
<trkpt lat="40.071375" lon="-105.2297889">
  <ele>1582.96</ele>
  <time>2026-08-28T17:52:20Z</time>
  <course>247.11</course>
  <speed>0.022360679774997897</speed>
  <fix>3d</fix>
</trkpt>
<trkpt lat="40.0713749" lon="-105.229789">
  <ele>1583.0</ele>
  <time>2026-08-28T17:52:20Z</time>
  <course>0.0</course>
  <speed>0.0</speed>
  <fix>3d</fix>
</trkpt>
<trkpt lat="40.0713751" lon="-105.2297889">
  <ele>1582.96</ele>
  <time>2026-08-28T17:52:20Z</time>
  <course>247.11</course>
  <speed>0.022360679774997897</speed>
  <fix>3d</fix>
</trkpt>
<trkpt lat="40.0713749" lon="-105.229789">
  <ele>1583.0</ele>
  <time>2026-08-28T17:52:20Z</time>
  <course>0.0</course>
  <speed>0.0</speed>
  <fix>3d</fix>
</trkpt>
<trkpt lat="40.071375" lon="-105.2297889">
  <ele>1582.95</ele>
  <time>2026-08-28T17:52:20Z</time>
  <course>247.11</course>
  <speed>0.022360679774997897</speed>
  <fix>3d</fix>
</trkpt>
<trkpt lat="40.0713749" lon="-105.229789">
  <ele>1583.0</ele>
  <time>2026-08-28T17:52:20Z</time>
  <course>0.0</course>
  <speed>0.0</speed>
  <fix>3d</fix>
</trkpt>
<trkpt lat="40.0713751" lon="-105.2297889">
  <ele>1582.96</ele>
  <time>2026-08-28T17:52:20Z</time>
  <course>247.11</course>
  <speed>0.022360679774997897</speed>
  <fix>3d</fix>
</trkpt>
<trkpt lat="40.0713749" lon="-105.229789">
  <ele>1583.0</ele>
  <time>2026-08-28T17:52:20Z</time>
  <course>0.0</course>
  <speed>0.0</speed>
  <fix>3d</fix>
</trkpt>
<trkpt lat="40.071375" lon="-105.2297889">
  <ele>1582.96</ele>
  <time>2026-08-28T17:52:20Z</time>
  <course>247.11</course>
  <speed>0.022360679774997897</speed>
  <fix>3d</fix>
</trkpt>
<trkpt lat="40.0713749" lon="-105.229789">
  <ele>1583.0</ele>
  <time>2026-08-28T17:52:20Z</time>
  <course>0.0</course>
  <speed>0.0</speed>
  <fix>3d</fix>
</trkpt>
<trkpt lat="40.0713751" lon="-105.2297889">
  <ele>1582.97</ele>
  <time>2026-08-28T17:52:20Z</time>
  <course>247.11</course>
  <speed>0.022360679774997897</speed>
  <fix>3d</fix>
</trkpt>
<trkpt lat="40.0713749" lon="-105.229789">
  <ele>1583.0</ele>
  <time>2026-08-28T17:52:20Z</time>
  <course>0.0</course>
  <speed>0.0</speed>
  <fix>3d</fix>
</trkpt>
<trkpt lat="40.071375" lon="-105.2297889">
  <ele>1582.97</ele>
  <time>2026-08-28T17:52:20Z</time>
  <course>247.11</course>
  <speed>0.022360679774997897</speed>
  <fix>3d</fix>
</trkpt>
<trkpt lat="40.0713749" lon="-105.229789">
  <ele>1583.0</ele>
  <time>2026-08-28T17:52:20Z</time>
  <course>0.0</course>
  <speed>0.0</speed>
  <fix>3d</fix>
</trkpt>
<trkpt lat="40.0713751" lon="-105.2297889">
  <ele>1582.98</ele>
  <time>2026-08-28T17:52:20Z</time>
  <course>247.11</course>
  <speed>0.022360679774997897</speed>
  <fix>3d</fix>
</trkpt>
<trkpt lat="40.0713749" lon="-105.229789">
  <ele>1583.0</ele>
  <time>2026-08-28T17:52:20Z</time>
  <course>0.0</course>
  <speed>0.0</speed>
  <fix>3d</fix>
</trkpt>
<trkpt lat="40.071375" lon="-105.2297889">
  <ele>1582.99</ele>
  <time>2026-08-28T17:52:20Z</time>
  <course>247.11</course>
  <speed>0.022360679774997897</speed>
  <fix>3d</fix>
</trkpt>
<trkpt lat="40.0713749" lon="-105.229789">
  <ele>1583.0</ele>
  <time>2026-08-28T17:52:20Z</time>
  <course>0.0</course>
  <speed>0.0</speed>
  <fix>3d</fix>
</trkpt>
<trkpt lat="40.0713751" lon="-105.2297889">
  <ele>1583.0</ele>
  <time>2026-08-28T17:52:20Z</time>
  <course>247.11</course>
  <speed>0.022360679774997897</speed>
  <fix>3d</fix>
</trkpt>
<trkpt lat="40.0713749" lon="-105.229789">
  <ele>1583.0</ele>
  <time>2026-08-28T17:52:20Z</time>
  <course>0.0</course>
  <speed>0.0</speed>
  <fix>3d</fix>
</trkpt>
<trkpt lat="40.0713751" lon="-105.2297889">
  <ele>1583.0</ele>
  <time>2026-08-28T17:52:20Z</time>
  <course>247.11</course>
  <speed>0.022360679774997897</speed>
  <fix>3d</fix>
</trkpt>
<trkpt lat="40.0713749" lon="-105.229789">
  <ele>1583.0</ele>
  <time>2026-08-28T17:52:20Z</time>
  <course>0.0</course>
  <speed>0.0</speed>
  <fix>3d</fix>
</trkpt>
<trkpt lat="40.0713751" lon="-105.2297889">
  <ele>1583.01</ele>
  <time>2026-08-28T17:52:20Z</time>
  <course>247.11</course>
  <speed>0.022360679774997897</speed>
  <fix>3d</fix>
</trkpt>
<trkpt lat="40.0713749" lon="-105.229789">
  <ele>1583.0</ele>
  <time>2026-08-28T17:52:20Z</time>
  <course>0.0</course>
  <speed>0.0</speed>
  <fix>3d</fix>
</trkpt>
<trkpt lat="40.0713751" lon="-105.2297889">
  <ele>1583.02</ele>
  <time>2026-08-28T17:52:20Z</time>
  <course>247.11</course>
  <speed>0.022360679774997897</speed>
  <fix>3d</fix>
</trkpt>
<trkpt lat="40.0713749" lon="-105.229789">
  <ele>1583.0</ele>
  <time>2026-08-28T17:52:20Z</time>
  <course>0.0</course>
  <speed>0.0</speed>
  <fix>3d</fix>
</trkpt>
<trkpt lat="40.0713751" lon="-105.2297889">
  <ele>1583.02</ele>
  <time>2026-08-28T17:52:20Z</time>
  <course>247.11</course>
  <speed>0.022360679774997897</speed>
  <fix>3d</fix>
</trkpt>
<trkpt lat="40.0713749" lon="-105.229789">
  <ele>1583.0</ele>
  <time>2026-08-28T17:52:20Z</time>
  <course>0.0</course>
  <speed>0.0</speed>
  <fix>3d</fix>
</trkpt>
<trkpt lat="40.0713751" lon="-105.2297889">
  <ele>1583.02</ele>
  <time>2026-08-28T17:52:20Z</time>
  <course>247.11</course>
  <speed>0.022360679774997897</speed>
  <fix>3d</fix>
</trkpt>
<trkpt lat="40.0713749" lon="-105.229789">
  <ele>1583.0</ele>
  <time>2026-08-28T17:52:20Z</time>
  <course>0.0</course>
  <speed>0.0</speed>
  <fix>3d</fix>
</trkpt>
<trkpt lat="40.0713751" lon="-105.2297889">
  <ele>1583.03</ele>
  <time>2026-08-28T17:52:20Z</time>
  <course>247.11</course>
  <speed>0.022360679774997897</speed>
  <fix>3d</fix>
</trkpt>
<trkpt lat="40.0713749" lon="-105.229789">
  <ele>1583.0</ele>
  <time>2026-08-28T17:52:20Z</time>
  <course>0.0</course>
  <speed>0.0</speed>
  <fix>3d</fix>
</trkpt>
<trkpt lat="40.0713751" lon="-105.2297889">
  <ele>1583.03</ele>
  <time>2026-08-28T17:52:20Z</time>
  <course>247.11</course>
  <speed>0.022360679774997897</speed>
  <fix>3d</fix>
</trkpt>
<trkpt lat="40.0713749" lon="-105.229789">
  <ele>1583.0</ele>
  <time>2026-08-28T17:52:20Z</time>
  <course>0.0</course>
  <speed>0.0</speed>
  <fix>3d</fix>
</trkpt>
<trkpt lat="40.0713751" lon="-105.2297889">
  <ele>1583.04</ele>
  <time>2026-08-28T17:52:20Z</time>
  <course>247.11</course>
  <speed>0.022360679774997897</speed>
  <fix>3d</fix>
</trkpt>
<trkpt lat="40.0713749" lon="-105.229789">
  <ele>1583.0</ele>
  <time>2026-08-28T17:52:20Z</time>
  <course>0.0</course>
  <speed>0.0</speed>
  <fix>3d</fix>
</trkpt>
<trkpt lat="40.071375" lon="-105.2297889">
  <ele>1583.04</ele>
  <time>2026-08-28T17:52:20Z</time>
  <course>247.11</course>
  <speed>0.022360679774997897</speed>
  <fix>3d</fix>
</trkpt>
<trkpt lat="40.0713749" lon="-105.229789">
  <ele>1583.0</ele>
  <time>2026-08-28T17:52:20Z</time>
  <course>0.0</course>
  <speed>0.0</speed>
  <fix>3d</fix>
</trkpt>
<trkpt lat="40.071375" lon="-105.2297889">
  <ele>1583.04</ele>
  <time>2026-08-28T17:52:20Z</time>
  <course>247.11</course>
  <speed>0.022360679774997897</speed>
  <fix>3d</fix>
</trkpt>
<trkpt lat="40.0713749" lon="-105.229789">
  <ele>1583.0</ele>
  <time>2026-08-28T17:52:20Z</time>
  <course>0.0</course>
  <speed>0.0</speed>
  <fix>3d</fix>
</trkpt>
<trkpt lat="40.071375" lon="-105.2297889">
  <ele>1583.04</ele>
  <time>2026-08-28T17:52:20Z</time>
  <course>247.11</course>
  <speed>0.022360679774997897</speed>
  <fix>3d</fix>
</trkpt>
<trkpt lat="40.0713749" lon="-105.229789">
  <ele>1583.0</ele>
  <time>2026-08-28T17:52:20Z</time>
  <course>0.0</course>
  <speed>0.0</speed>
  <fix>3d</fix>
</trkpt>
<trkpt lat="40.071375" lon="-105.2297889">
  <ele>1583.04</ele>
  <time>2026-08-28T17:52:20Z</time>
  <course>247.11</course>
  <speed>0.022360679774997897</speed>
  <fix>3d</fix>
</trkpt>
<trkpt lat="40.0713749" lon="-105.229789">
  <ele>1583.0</ele>
  <time>2026-08-28T17:52:20Z</time>
  <course>0.0</course>
  <speed>0.0</speed>
  <fix>3d</fix>
</trkpt>
<trkpt lat="40.071375" lon="-105.2297889">
  <ele>1583.04</ele>
  <time>2026-08-28T17:52:20Z</time>
  <course>247.11</course>
  <speed>0.022360679774997897</speed>
  <fix>3d</fix>
</trkpt>
<trkpt lat="40.0713749" lon="-105.229789">
  <ele>1583.0</ele>
  <time>2026-08-28T17:52:20Z</time>
  <course>0.0</course>
  <speed>0.0</speed>
  <fix>3d</fix>
</trkpt>
<trkpt lat="40.071375" lon="-105.2297889">
  <ele>1583.04</ele>
  <time>2026-08-28T17:52:20Z</time>
  <course>247.11</course>
  <speed>0.022360679774997897</speed>
  <fix>3d</fix>
</trkpt>
<trkpt lat="40.0713749" lon="-105.229789">
  <ele>1583.0</ele>
  <time>2026-08-28T17:52:20Z</time>
  <course>0.0</course>
  <speed>0.0</speed>
  <fix>3d</fix>
</trkpt>
<trkpt lat="40.071375" lon="-105.2297889">
  <ele>1583.04</ele>
  <time>2026-08-28T17:52:20Z</time>
  <course>247.11</course>
  <speed>0.022360679774997897</speed>
  <fix>3d</fix>
</trkpt>
<trkpt lat="40.0713749" lon="-105.229789">
  <ele>1583.0</ele>
  <time>2026-08-28T17:52:20Z</time>
  <course>0.0</course>
  <speed>0.0</speed>
  <fix>3d</fix>
</trkpt>
<trkpt lat="40.071375" lon="-105.2297889">
  <ele>1583.03</ele>
  <time>2026-08-28T17:52:20Z</time>
  <course>247.11</course>
  <speed>0.022360679774997897</speed>
  <fix>3d</fix>
</trkpt>
<trkpt lat="40.0713749" lon="-105.229789">
  <ele>1583.0</ele>
  <time>2026-08-28T17:52:20Z</time>
  <course>0.0</course>
  <speed>0.0</speed>
  <fix>3d</fix>
</trkpt>
<trkpt lat="40.071375" lon="-105.2297889">
  <ele>1583.03</ele>
  <time>2026-08-28T17:52:20Z</time>
  <course>247.11</course>
  <speed>0.022360679774997897</speed>
  <fix>3d</fix>
</trkpt>
<trkpt lat="40.0713749" lon="-105.229789">
  <ele>1583.0</ele>
  <time>2026-08-28T17:52:20Z</time>
  <course>0.0</course>
  <speed>0.0</speed>
  <fix>3d</fix>
</trkpt>
<trkpt lat="40.071375" lon="-105.2297889">
  <ele>1583.03</ele>
  <time>2026-08-28T17:52:20Z</time>
  <course>247.11</course>
  <speed>0.022360679774997897</speed>
  <fix>3d</fix>
</trkpt>
<trkpt lat="40.0713749" lon="-105.229789">
  <ele>1583.0</ele>
  <time>2026-08-28T17:52:20Z</time>
  <course>0.0</course>
  <speed>0.0</speed>
  <fix>3d</fix>
</trkpt>
<trkpt lat="40.071375" lon="-105.2297889">
  <ele>1583.03</ele>
  <time>2026-08-28T17:52:20Z</time>
  <course>247.11</course>
  <speed>0.022360679774997897</speed>
  <fix>3d</fix>
</trkpt>
<trkpt lat="40.0713749" lon="-105.229789">
  <ele>1583.0</ele>
  <time>2026-08-28T17:52:20Z</time>
  <course>0.0</course>
  <speed>0.0</speed>
  <fix>3d</fix>
</trkpt>
<trkpt lat="40.071375" lon="-105.2297889">
  <ele>1583.03</ele>
  <time>2026-08-28T17:52:20Z</time>
  <course>247.11</course>
  <speed>0.022360679774997897</speed>
  <fix>3d</fix>
</trkpt>
<trkpt lat="40.0713749" lon="-105.229789">
  <ele>1583.0</ele>
  <time>2026-08-28T17:52:20Z</time>
  <course>0.0</course>
  <speed>0.0</speed>
  <fix>3d</fix>
</trkpt>
<trkpt lat="40.071375" lon="-105.2297889">
  <ele>1583.03</ele>
  <time>2026-08-28T17:52:20Z</time>
  <course>247.11</course>
  <speed>0.022360679774997897</speed>
  <fix>3d</fix>
</trkpt>
<trkpt lat="40.0713749" lon="-105.229789">
  <ele>1583.0</ele>
  <time>2026-08-28T17:52:20Z</time>
  <course>0.0</course>
  <speed>0.0</speed>
  <fix>3d</fix>
</trkpt>
<trkpt lat="40.071375" lon="-105.2297889">
  <ele>1583.03</ele>
  <time>2026-08-28T17:52:20Z</time>
  <course>247.11</course>
  <speed>0.022360679774997897</speed>
  <fix>3d</fix>
</trkpt>
<trkpt lat="40.0713749" lon="-105.229789">
  <ele>1583.0</ele>
  <time>2026-08-28T17:52:20Z</time>
  <course>0.0</course>
  <speed>0.0</speed>
  <fix>3d</fix>
</trkpt>
<trkpt lat="40.071375" lon="-105.2297889">
  <ele>1583.03</ele>
  <time>2026-08-28T17:52:20Z</time>
  <course>247.11</course>
  <speed>0.022360679774997897</speed>
  <fix>3d</fix>
</trkpt>
<trkpt lat="40.0713749" lon="-105.229789">
  <ele>1583.0</ele>
  <time>2026-08-28T17:52:20Z</time>
  <course>0.0</course>
  <speed>0.0</speed>
  <fix>3d</fix>
</trkpt>
<trkpt lat="40.0713751" lon="-105.2297889">
  <ele>1583.03</ele>
  <time>2026-08-28T17:52:20Z</time>
  <course>247.11</course>
  <speed>0.022360679774997897</speed>
  <fix>3d</fix>
</trkpt>
<trkpt lat="40.0713749" lon="-105.229789">
  <ele>1583.0</ele>
  <time>2026-08-28T17:52:20Z</time>
  <course>0.0</course>
  <speed>0.0</speed>
  <fix>3d</fix>
</trkpt>
<trkpt lat="40.0713751" lon="-105.2297889">
  <ele>1583.03</ele>
  <time>2026-08-28T17:52:20Z</time>
  <course>247.11</course>
  <speed>0.022360679774997897</speed>
  <fix>3d</fix>
</trkpt>
<trkpt lat="40.0713749" lon="-105.229789">
  <ele>1583.0</ele>
  <time>2026-08-28T17:52:20Z</time>
  <course>0.0</course>
  <speed>0.0</speed>
  <fix>3d</fix>
</trkpt>
<trkpt lat="40.0713751" lon="-105.2297889">
  <ele>1583.02</ele>
  <time>2026-08-28T17:52:20Z</time>
  <course>247.11</course>
  <speed>0.022360679774997897</speed>
  <fix>3d</fix>
</trkpt>
<trkpt lat="40.0713749" lon="-105.229789">
  <ele>1583.0</ele>
  <time>2026-08-28T17:52:20Z</time>
  <course>0.0</course>
  <speed>0.0</speed>
  <fix>3d</fix>
</trkpt>
<trkpt lat="40.0713751" lon="-105.2297889">
  <ele>1583.03</ele>
  <time>2026-08-28T17:52:20Z</time>
  <course>247.11</course>
  <speed>0.022360679774997897</speed>
  <fix>3d</fix>
</trkpt>
<trkpt lat="40.0713749" lon="-105.229789">
  <ele>1583.0</ele>
  <time>2026-08-28T17:52:20Z</time>
  <course>0.0</course>
  <speed>0.0</speed>
  <fix>3d</fix>
</trkpt>
<trkpt lat="40.0713751" lon="-105.2297889">
  <ele>1583.03</ele>
  <time>2026-08-28T17:52:20Z</time>
  <course>247.11</course>
  <speed>0.022360679774997897</speed>
  <fix>3d</fix>
</trkpt>
<trkpt lat="40.0713749" lon="-105.229789">
  <ele>1583.0</ele>
  <time>2026-08-28T17:52:20Z</time>
  <course>0.0</course>
  <speed>0.0</speed>
  <fix>3d</fix>
</trkpt>
<trkpt lat="40.071375" lon="-105.2297889">
  <ele>1583.03</ele>
  <time>2026-08-28T17:52:20Z</time>
  <course>247.11</course>
  <speed>0.022360679774997897</speed>
  <fix>3d</fix>
</trkpt>
<trkpt lat="40.0713749" lon="-105.229789">
  <ele>1583.0</ele>
  <time>2026-08-28T17:52:20Z</time>
  <course>0.0</course>
  <speed>0.0</speed>
  <fix>3d</fix>
</trkpt>
<trkpt lat="40.071375" lon="-105.2297889">
  <ele>1583.03</ele>
  <time>2026-08-28T17:52:20Z</time>
  <course>247.11</course>
  <speed>0.022360679774997897</speed>
  <fix>3d</fix>
</trkpt>
<trkpt lat="40.0713749" lon="-105.229789">
  <ele>1583.0</ele>
  <time>2026-08-28T17:52:20Z</time>
  <course>0.0</course>
  <speed>0.0</speed>
  <fix>3d</fix>
</trkpt>
<trkpt lat="40.071375" lon="-105.2297889">
  <ele>1583.03</ele>
  <time>2026-08-28T17:52:20Z</time>
  <course>247.11</course>
  <speed>0.022360679774997897</speed>
  <fix>3d</fix>
</trkpt>
<trkpt lat="40.0713749" lon="-105.229789">
  <ele>1583.0</ele>
  <time>2026-08-28T17:52:20Z</time>
  <course>0.0</course>
  <speed>0.0</speed>
  <fix>3d</fix>
</trkpt>
<trkpt lat="40.071375" lon="-105.2297889">
  <ele>1583.03</ele>
  <time>2026-08-28T17:52:20Z</time>
  <course>247.11</course>
  <speed>0.022360679774997897</speed>
  <fix>3d</fix>
</trkpt>
<trkpt lat="40.0713749" lon="-105.229789">
  <ele>1583.0</ele>
  <time>2026-08-28T17:52:20Z</time>
  <course>0.0</course>
  <speed>0.0</speed>
  <fix>3d</fix>
</trkpt>
<trkpt lat="40.071375" lon="-105.2297889">
  <ele>1583.03</ele>
  <time>2026-08-28T17:52:20Z</time>
  <course>247.11</course>
  <speed>0.022360679774997897</speed>
  <fix>3d</fix>
</trkpt>
<trkpt lat="40.0713749" lon="-105.229789">
  <ele>1583.0</ele>
  <time>2026-08-28T17:52:20Z</time>
  <course>0.0</course>
  <speed>0.0</speed>
  <fix>3d</fix>
</trkpt>
<trkpt lat="40.071375" lon="-105.2297889">
  <ele>1583.04</ele>
  <time>2026-08-28T17:52:20Z</time>
  <course>247.11</course>
  <speed>0.022360679774997897</speed>
  <fix>3d</fix>
</trkpt>
<trkpt lat="40.0713749" lon="-105.229789">
  <ele>1583.0</ele>
  <time>2026-08-28T17:52:20Z</time>
  <course>0.0</course>
  <speed>0.0</speed>
  <fix>3d</fix>
</trkpt>
<trkpt lat="40.071375" lon="-105.2297889">
  <ele>1583.04</ele>
  <time>2026-08-28T17:52:20Z</time>
  <course>247.11</course>
  <speed>0.022360679774997897</speed>
  <fix>3d</fix>
</trkpt>
<trkpt lat="40.0713749" lon="-105.229789">
  <ele>1583.0</ele>
  <time>2026-08-28T17:52:20Z</time>
  <course>0.0</course>
  <speed>0.0</speed>
  <fix>3d</fix>
</trkpt>
<trkpt lat="40.071375" lon="-105.2297889">
  <ele>1583.04</ele>
  <time>2026-08-28T17:52:20Z</time>
  <course>247.11</course>
  <speed>0.022360679774997897</speed>
  <fix>3d</fix>
</trkpt>
<trkpt lat="40.0713749" lon="-105.229789">
  <ele>1583.0</ele>
  <time>2026-08-28T17:52:20Z</time>
  <course>0.0</course>
  <speed>0.0</speed>
  <fix>3d</fix>
</trkpt>
<trkpt lat="40.071375" lon="-105.2297889">
  <ele>1583.04</ele>
  <time>2026-08-28T17:52:20Z</time>
  <course>247.11</course>
  <speed>0.022360679774997897</speed>
  <fix>3d</fix>
</trkpt>
<trkpt lat="40.0713749" lon="-105.229789">
  <ele>1583.0</ele>
  <time>2026-08-28T17:52:20Z</time>
  <course>0.0</course>
  <speed>0.0</speed>
  <fix>3d</fix>
</trkpt>
<trkpt lat="40.071375" lon="-105.2297889">
  <ele>1583.05</ele>
  <time>2026-08-28T17:52:20Z</time>
  <course>247.11</course>
  <speed>0.022360679774997897</speed>
  <fix>3d</fix>
</trkpt>
<trkpt lat="40.0713749" lon="-105.229789">
  <ele>1583.0</ele>
  <time>2026-08-28T17:52:20Z</time>
  <course>0.0</course>
  <speed>0.0</speed>
  <fix>3d</fix>
</trkpt>
<trkpt lat="40.071375" lon="-105.2297889">
  <ele>1583.05</ele>
  <time>2026-08-28T17:52:20Z</time>
  <course>247.11</course>
  <speed>0.022360679774997897</speed>
  <fix>3d</fix>
</trkpt>
<trkpt lat="40.0713749" lon="-105.229789">
  <ele>1583.0</ele>
  <time>2026-08-28T17:52:20Z</time>
  <course>0.0</course>
  <speed>0.0</speed>
  <fix>3d</fix>
</trkpt>
<trkpt lat="40.071375" lon="-105.2297889">
  <ele>1583.05</ele>
  <time>2026-08-28T17:52:20Z</time>
  <course>247.11</course>
  <speed>0.022360679774997897</speed>
  <fix>3d</fix>
</trkpt>
<trkpt lat="40.0713749" lon="-105.229789">
  <ele>1583.0</ele>
  <time>2026-08-28T17:52:20Z</time>
  <course>0.0</course>
  <speed>0.0</speed>
  <fix>3d</fix>
</trkpt>
<trkpt lat="40.071375" lon="-105.2297889">
  <ele>1583.05</ele>
  <time>2026-08-28T17:52:20Z</time>
  <course>247.11</course>
  <speed>0.022360679774997897</speed>
  <fix>3d</fix>
</trkpt>
<trkpt lat="40.0713749" lon="-105.229789">
  <ele>1583.0</ele>
  <time>2026-08-28T17:52:20Z</time>
  <course>0.0</course>
  <speed>0.0</speed>
  <fix>3d</fix>
</trkpt>
<trkpt lat="40.071375" lon="-105.2297889">
  <ele>1583.05</ele>
  <time>2026-08-28T17:52:20Z</time>
  <course>247.11</course>
  <speed>0.022360679774997897</speed>
  <fix>3d</fix>
</trkpt>
<trkpt lat="40.0713749" lon="-105.229789">
  <ele>1583.0</ele>
  <time>2026-08-28T17:52:20Z</time>
  <course>0.0</course>
  <speed>0.0</speed>
  <fix>3d</fix>
</trkpt>
<trkpt lat="40.071375" lon="-105.2297889">
  <ele>1583.05</ele>
  <time>2026-08-28T17:52:20Z</time>
  <course>247.11</course>
  <speed>0.022360679774997897</speed>
  <fix>3d</fix>
</trkpt>
<trkpt lat="40.0713749" lon="-105.229789">
  <ele>1583.0</ele>
  <time>2026-08-28T17:52:20Z</time>
  <course>0.0</course>
  <speed>0.0</speed>
  <fix>3d</fix>
</trkpt>
<trkpt lat="40.071375" lon="-105.2297889">
  <ele>1583.05</ele>
  <time>2026-08-28T17:52:20Z</time>
  <course>247.11</course>
  <speed>0.022360679774997897</speed>
  <fix>3d</fix>
</trkpt>
<trkpt lat="40.0713749" lon="-105.229789">
  <ele>1583.0</ele>
  <time>2026-08-28T17:52:20Z</time>
  <course>0.0</course>
  <speed>0.0</speed>
  <fix>3d</fix>
</trkpt>
<trkpt lat="40.0713751" lon="-105.2297889">
  <ele>1583.04</ele>
  <time>2026-08-28T17:52:20Z</time>
  <course>247.11</course>
  <speed>0.022360679774997897</speed>
  <fix>3d</fix>
</trkpt>
<trkpt lat="40.0713749" lon="-105.229789">
  <ele>1583.0</ele>
  <time>2026-08-28T17:52:20Z</time>
  <course>0.0</course>
  <speed>0.0</speed>
  <fix>3d</fix>
</trkpt>
<trkpt lat="40.0713751" lon="-105.2297889">
  <ele>1583.04</ele>
  <time>2026-08-28T17:52:20Z</time>
  <course>247.11</course>
  <speed>0.022360679774997897</speed>
  <fix>3d</fix>
</trkpt>
<trkpt lat="40.0713749" lon="-105.229789">
  <ele>1583.0</ele>
  <time>2026-08-28T17:52:20Z</time>
  <course>0.0</course>
  <speed>0.0</speed>
  <fix>3d</fix>
</trkpt>
<trkpt lat="40.0713751" lon="-105.2297889">
  <ele>1583.04</ele>
  <time>2026-08-28T17:52:20Z</time>
  <course>247.11</course>
  <speed>0.022360679774997897</speed>
  <fix>3d</fix>
</trkpt>
<trkpt lat="40.0713749" lon="-105.229789">
  <ele>1583.0</ele>
  <time>2026-08-28T17:52:20Z</time>
  <course>0.0</course>
  <speed>0.0</speed>
  <fix>3d</fix>
</trkpt>
<trkpt lat="40.0713751" lon="-105.2297889">
  <ele>1583.03</ele>
  <time>2026-08-28T17:52:20Z</time>
  <course>247.11</course>
  <speed>0.022360679774997897</speed>
  <fix>3d</fix>
</trkpt>
<trkpt lat="40.0713749" lon="-105.229789">
  <ele>1583.0</ele>
  <time>2026-08-28T17:52:20Z</time>
  <course>0.0</course>
  <speed>0.0</speed>
  <fix>3d</fix>
</trkpt>
<trkpt lat="40.071375" lon="-105.2297889">
  <ele>1583.03</ele>
  <time>2026-08-28T17:52:20Z</time>
  <course>247.11</course>
  <speed>0.022360679774997897</speed>
  <fix>3d</fix>
</trkpt>
<trkpt lat="40.0713749" lon="-105.229789">
  <ele>1583.0</ele>
  <time>2026-08-28T17:52:20Z</time>
  <course>0.0</course>
  <speed>0.0</speed>
  <fix>3d</fix>
</trkpt>
<trkpt lat="40.071375" lon="-105.2297889">
  <ele>1583.02</ele>
  <time>2026-08-28T17:52:20Z</time>
  <course>247.11</course>
  <speed>0.022360679774997897</speed>
  <fix>3d</fix>
</trkpt>
<trkpt lat="40.0713749" lon="-105.229789">
  <ele>1583.0</ele>
  <time>2026-08-28T17:52:20Z</time>
  <course>0.0</course>
  <speed>0.0</speed>
  <fix>3d</fix>
</trkpt>
<trkpt lat="40.071375" lon="-105.2297889">
  <ele>1583.02</ele>
  <time>2026-08-28T17:52:20Z</time>
  <course>247.11</course>
  <speed>0.02</speed>
  <fix>3d</fix>
</trkpt>
<trkpt lat="40.0713749" lon="-105.229789">
  <ele>1583.0</ele>
  <time>2026-08-28T17:52:20Z</time>
  <course>0.0</course>
  <speed>0.0</speed>
  <fix>3d</fix>
</trkpt>
<trkpt lat="40.071375" lon="-105.2297889">
  <ele>1583.01</ele>
  <time>2026-08-28T17:52:20Z</time>
  <course>247.11</course>
  <speed>0.02</speed>
  <fix>3d</fix>
</trkpt>
<trkpt lat="40.0713749" lon="-105.229789">
  <ele>1583.0</ele>
  <time>2026-08-28T17:52:20Z</time>
  <course>0.0</course>
  <speed>0.0</speed>
  <fix>3d</fix>
</trkpt>
<trkpt lat="40.071375" lon="-105.2297889">
  <ele>1583.01</ele>
  <time>2026-08-28T17:52:20Z</time>
  <course>247.11</course>
  <speed>0.02</speed>
  <fix>3d</fix>
</trkpt>
<trkpt lat="40.0713749" lon="-105.229789">
  <ele>1583.0</ele>
  <time>2026-08-28T17:52:20Z</time>
  <course>0.0</course>
  <speed>0.0</speed>
  <fix>3d</fix>
</trkpt>
<trkpt lat="40.071375" lon="-105.2297889">
  <ele>1583.01</ele>
  <time>2026-08-28T17:52:20Z</time>
  <course>247.11</course>
  <speed>0.02</speed>
  <fix>3d</fix>
</trkpt>
<trkpt lat="40.0713749" lon="-105.229789">
  <ele>1583.0</ele>
  <time>2026-08-28T17:52:20Z</time>
  <course>0.0</course>
  <speed>0.0</speed>
  <fix>3d</fix>
</trkpt>
<trkpt lat="40.071375" lon="-105.2297889">
  <ele>1583.01</ele>
  <time>2026-08-28T17:52:20Z</time>
  <course>247.11</course>
  <speed>0.02</speed>
  <fix>3d</fix>
</trkpt>
<trkpt lat="40.0713749" lon="-105.229789">
  <ele>1583.0</ele>
  <time>2026-08-28T17:52:20Z</time>
  <course>0.0</course>
  <speed>0.0</speed>
  <fix>3d</fix>
</trkpt>
<trkpt lat="40.071375" lon="-105.2297889">
  <ele>1583.02</ele>
  <time>2026-08-28T17:52:20Z</time>
  <course>247.11</course>
  <speed>0.02</speed>
  <fix>3d</fix>
</trkpt>
<trkpt lat="40.0713749" lon="-105.229789">
  <ele>1583.0</ele>
  <time>2026-08-28T17:52:20Z</time>
  <course>0.0</course>
  <speed>0.0</speed>
  <fix>3d</fix>
</trkpt>
<trkpt lat="40.071375" lon="-105.2297889">
  <ele>1583.02</ele>
  <time>2026-08-28T17:52:20Z</time>
  <course>247.11</course>
  <speed>0.02</speed>
  <fix>3d</fix>
</trkpt>
<trkpt lat="40.0713749" lon="-105.229789">
  <ele>1583.0</ele>
  <time>2026-08-28T17:52:20Z</time>
  <course>0.0</course>
  <speed>0.0</speed>
  <fix>3d</fix>
</trkpt>
<trkpt lat="40.071375" lon="-105.2297889">
  <ele>1583.03</ele>
  <time>2026-08-28T17:52:20Z</time>
  <course>247.11</course>
  <speed>0.02</speed>
  <fix>3d</fix>
</trkpt>
<trkpt lat="40.0713749" lon="-105.229789">
  <ele>1583.0</ele>
  <time>2026-08-28T17:52:20Z</time>
  <course>0.0</course>
  <speed>0.0</speed>
  <fix>3d</fix>
</trkpt>
<trkpt lat="40.071375" lon="-105.2297889">
  <ele>1583.03</ele>
  <time>2026-08-28T17:52:20Z</time>
  <course>247.11</course>
  <speed>0.02</speed>
  <fix>3d</fix>
</trkpt>
<trkpt lat="40.0713749" lon="-105.229789">
  <ele>1583.0</ele>
  <time>2026-08-28T17:52:20Z</time>
  <course>0.0</course>
  <speed>0.0</speed>
  <fix>3d</fix>
</trkpt>
<trkpt lat="40.071375" lon="-105.2297889">
  <ele>1583.04</ele>
  <time>2026-08-28T17:52:20Z</time>
  <course>247.11</course>
  <speed>0.022360679774997897</speed>
  <fix>3d</fix>
</trkpt>
<trkpt lat="40.0713749" lon="-105.229789">
  <ele>1583.0</ele>
  <time>2026-08-28T17:52:20Z</time>
  <course>0.0</course>
  <speed>0.0</speed>
  <fix>3d</fix>
</trkpt>
<trkpt lat="40.071375" lon="-105.2297889">
  <ele>1583.04</ele>
  <time>2026-08-28T17:52:20Z</time>
  <course>247.11</course>
  <speed>0.02</speed>
  <fix>3d</fix>
</trkpt>
<trkpt lat="40.0713749" lon="-105.229789">
  <ele>1583.0</ele>
  <time>2026-08-28T17:52:20Z</time>
  <course>0.0</course>
  <speed>0.0</speed>
  <fix>3d</fix>
</trkpt>
<trkpt lat="40.071375" lon="-105.2297889">
  <ele>1583.05</ele>
  <time>2026-08-28T17:52:20Z</time>
  <course>247.11</course>
  <speed>0.022360679774997897</speed>
  <fix>3d</fix>
</trkpt>
<trkpt lat="40.0713749" lon="-105.229789">
  <ele>1583.0</ele>
  <time>2026-08-28T17:52:20Z</time>
  <course>0.0</course>
  <speed>0.0</speed>
  <fix>3d</fix>
</trkpt>
<trkpt lat="40.0713751" lon="-105.2297889">
  <ele>1583.05</ele>
  <time>2026-08-28T17:52:20Z</time>
  <course>247.11</course>
  <speed>0.022360679774997897</speed>
  <fix>3d</fix>
</trkpt>
<trkpt lat="40.0713749" lon="-105.229789">
  <ele>1583.0</ele>
  <time>2026-08-28T17:52:20Z</time>
  <course>0.0</course>
  <speed>0.0</speed>
  <fix>3d</fix>
</trkpt>
<trkpt lat="40.0713751" lon="-105.2297889">
  <ele>1583.05</ele>
  <time>2026-08-28T17:52:20Z</time>
  <course>247.11</course>
  <speed>0.022360679774997897</speed>
  <fix>3d</fix>
</trkpt>
<trkpt lat="40.0713749" lon="-105.229789">
  <ele>1583.0</ele>
  <time>2026-08-28T17:52:20Z</time>
  <course>0.0</course>
  <speed>0.0</speed>
  <fix>3d</fix>
</trkpt>
<trkpt lat="40.0713751" lon="-105.2297889">
  <ele>1583.06</ele>
  <time>2026-08-28T17:52:20Z</time>
  <course>247.11</course>
  <speed>0.022360679774997897</speed>
  <fix>3d</fix>
</trkpt>
<trkpt lat="40.0713749" lon="-105.229789">
  <ele>1583.0</ele>
  <time>2026-08-28T17:52:20Z</time>
  <course>0.0</course>
  <speed>0.0</speed>
  <fix>3d</fix>
</trkpt>
<trkpt lat="40.0713751" lon="-105.2297889">
  <ele>1583.06</ele>
  <time>2026-08-28T17:52:20Z</time>
  <course>247.11</course>
  <speed>0.022360679774997897</speed>
  <fix>3d</fix>
</trkpt>
<trkpt lat="40.0713749" lon="-105.229789">
  <ele>1583.0</ele>
  <time>2026-08-28T17:52:20Z</time>
  <course>0.0</course>
  <speed>0.0</speed>
  <fix>3d</fix>
</trkpt>
<trkpt lat="40.0713751" lon="-105.2297889">
  <ele>1583.06</ele>
  <time>2026-08-28T17:52:20Z</time>
  <course>247.11</course>
  <speed>0.022360679774997897</speed>
  <fix>3d</fix>
</trkpt>
<trkpt lat="40.0713749" lon="-105.229789">
  <ele>1583.0</ele>
  <time>2026-08-28T17:52:20Z</time>
  <course>0.0</course>
  <speed>0.0</speed>
  <fix>3d</fix>
</trkpt>
<trkpt lat="40.0713751" lon="-105.2297889">
  <ele>1583.07</ele>
  <time>2026-08-28T17:52:20Z</time>
  <course>247.11</course>
  <speed>0.022360679774997897</speed>
  <fix>3d</fix>
</trkpt>
<trkpt lat="40.0713749" lon="-105.229789">
  <ele>1583.0</ele>
  <time>2026-08-28T17:52:20Z</time>
  <course>0.0</course>
  <speed>0.0</speed>
  <fix>3d</fix>
</trkpt>
<trkpt lat="40.0713751" lon="-105.2297889">
  <ele>1583.07</ele>
  <time>2026-08-28T17:52:20Z</time>
  <course>247.11</course>
  <speed>0.022360679774997897</speed>
  <fix>3d</fix>
</trkpt>
<trkpt lat="40.0713749" lon="-105.229789">
  <ele>1583.0</ele>
  <time>2026-08-28T17:52:20Z</time>
  <course>0.0</course>
  <speed>0.0</speed>
  <fix>3d</fix>
</trkpt>
<trkpt lat="40.0713751" lon="-105.2297889">
  <ele>1583.08</ele>
  <time>2026-08-28T17:52:20Z</time>
  <course>247.11</course>
  <speed>0.022360679774997897</speed>
  <fix>3d</fix>
</trkpt>
<trkpt lat="40.0713749" lon="-105.229789">
  <ele>1583.0</ele>
  <time>2026-08-28T17:52:20Z</time>
  <course>0.0</course>
  <speed>0.0</speed>
  <fix>3d</fix>
</trkpt>
<trkpt lat="40.071375" lon="-105.2297889">
  <ele>1583.08</ele>
  <time>2026-08-28T17:52:20Z</time>
  <course>247.11</course>
  <speed>0.022360679774997897</speed>
  <fix>3d</fix>
</trkpt>
<trkpt lat="40.0713749" lon="-105.229789">
  <ele>1583.0</ele>
  <time>2026-08-28T17:52:20Z</time>
  <course>0.0</course>
  <speed>0.0</speed>
  <fix>3d</fix>
</trkpt>
<trkpt lat="40.071375" lon="-105.2297889">
  <ele>1583.08</ele>
  <time>2026-08-28T17:52:20Z</time>
  <course>247.11</course>
  <speed>0.022360679774997897</speed>
  <fix>3d</fix>
</trkpt>
<trkpt lat="40.0713749" lon="-105.229789">
  <ele>1583.0</ele>
  <time>2026-08-28T17:52:20Z</time>
  <course>0.0</course>
  <speed>0.0</speed>
  <fix>3d</fix>
</trkpt>
<trkpt lat="40.071375" lon="-105.2297889">
  <ele>1583.08</ele>
  <time>2026-08-28T17:52:20Z</time>
  <course>247.11</course>
  <speed>0.022360679774997897</speed>
  <fix>3d</fix>
</trkpt>
<trkpt lat="40.0713749" lon="-105.229789">
  <ele>1583.0</ele>
  <time>2026-08-28T17:52:20Z</time>
  <course>0.0</course>
  <speed>0.0</speed>
  <fix>3d</fix>
</trkpt>
<trkpt lat="40.071375" lon="-105.2297889">
  <ele>1583.08</ele>
  <time>2026-08-28T17:52:20Z</time>
  <course>247.11</course>
  <speed>0.022360679774997897</speed>
  <fix>3d</fix>
</trkpt>
<trkpt lat="40.0713749" lon="-105.229789">
  <ele>1583.0</ele>
  <time>2026-08-28T17:52:20Z</time>
  <course>0.0</course>
  <speed>0.0</speed>
  <fix>3d</fix>
</trkpt>
<trkpt lat="40.071375" lon="-105.2297889">
  <ele>1583.08</ele>
  <time>2026-08-28T17:52:20Z</time>
  <course>247.11</course>
  <speed>0.022360679774997897</speed>
  <fix>3d</fix>
</trkpt>
<trkpt lat="40.0713749" lon="-105.229789">
  <ele>1583.0</ele>
  <time>2026-08-28T17:52:20Z</time>
  <course>0.0</course>
  <speed>0.0</speed>
  <fix>3d</fix>
</trkpt>
<trkpt lat="40.071375" lon="-105.2297889">
  <ele>1583.08</ele>
  <time>2026-08-28T17:52:20Z</time>
  <course>247.11</course>
  <speed>0.022360679774997897</speed>
  <fix>3d</fix>
</trkpt>
<trkpt lat="40.0713749" lon="-105.229789">
  <ele>1583.0</ele>
  <time>2026-08-28T17:52:20Z</time>
  <course>0.0</course>
  <speed>0.0</speed>
  <fix>3d</fix>
</trkpt>
<trkpt lat="40.071375" lon="-105.2297889">
  <ele>1583.08</ele>
  <time>2026-08-28T17:52:20Z</time>
  <course>247.11</course>
  <speed>0.022360679774997897</speed>
  <fix>3d</fix>
</trkpt>
<trkpt lat="40.0713749" lon="-105.229789">
  <ele>1583.0</ele>
  <time>2026-08-28T17:52:20Z</time>
  <course>0.0</course>
  <speed>0.0</speed>
  <fix>3d</fix>
</trkpt>
<trkpt lat="40.071375" lon="-105.2297889">
  <ele>1583.08</ele>
  <time>2026-08-28T17:52:20Z</time>
  <course>247.11</course>
  <speed>0.022360679774997897</speed>
  <fix>3d</fix>
</trkpt>
<trkpt lat="40.0713749" lon="-105.229789">
  <ele>1583.0</ele>
  <time>2026-08-28T17:52:20Z</time>
  <course>0.0</course>
  <speed>0.0</speed>
  <fix>3d</fix>
</trkpt>
<trkpt lat="40.071375" lon="-105.2297889">
  <ele>1583.08</ele>
  <time>2026-08-28T17:52:21Z</time>
  <course>247.11</course>
  <speed>0.022360679774997897</speed>
  <fix>3d</fix>
</trkpt>
<trkpt lat="40.0713749" lon="-105.229789">
  <ele>1583.0</ele>
  <time>2026-08-28T17:52:21Z</time>
  <course>0.0</course>
  <speed>0.0</speed>
  <fix>3d</fix>
</trkpt>
<trkpt lat="40.071375" lon="-105.2297889">
  <ele>1583.08</ele>
  <time>2026-08-28T17:52:21Z</time>
  <course>247.11</course>
  <speed>0.022360679774997897</speed>
  <fix>3d</fix>
</trkpt>
<trkpt lat="40.0713749" lon="-105.229789">
  <ele>1583.0</ele>
  <time>2026-08-28T17:52:21Z</time>
  <course>0.0</course>
  <speed>0.0</speed>
  <fix>3d</fix>
</trkpt>
<trkpt lat="40.071375" lon="-105.2297889">
  <ele>1583.08</ele>
  <time>2026-08-28T17:52:21Z</time>
  <course>247.11</course>
  <speed>0.022360679774997897</speed>
  <fix>3d</fix>
</trkpt>
<trkpt lat="40.0713749" lon="-105.229789">
  <ele>1583.0</ele>
  <time>2026-08-28T17:52:21Z</time>
  <course>0.0</course>
  <speed>0.0</speed>
  <fix>3d</fix>
</trkpt>
<trkpt lat="40.071375" lon="-105.2297889">
  <ele>1583.08</ele>
  <time>2026-08-28T17:52:21Z</time>
  <course>247.11</course>
  <speed>0.022360679774997897</speed>
  <fix>3d</fix>
</trkpt>
<trkpt lat="40.0713749" lon="-105.229789">
  <ele>1583.0</ele>
  <time>2026-08-28T17:52:21Z</time>
  <course>0.0</course>
  <speed>0.0</speed>
  <fix>3d</fix>
</trkpt>
<trkpt lat="40.071375" lon="-105.2297889">
  <ele>1583.08</ele>
  <time>2026-08-28T17:52:21Z</time>
  <course>247.11</course>
  <speed>0.022360679774997897</speed>
  <fix>3d</fix>
</trkpt>
<trkpt lat="40.0713749" lon="-105.229789">
  <ele>1583.0</ele>
  <time>2026-08-28T17:52:21Z</time>
  <course>0.0</course>
  <speed>0.0</speed>
  <fix>3d</fix>
</trkpt>
<trkpt lat="40.071375" lon="-105.2297889">
  <ele>1583.08</ele>
  <time>2026-08-28T17:52:21Z</time>
  <course>247.11</course>
  <speed>0.022360679774997897</speed>
  <fix>3d</fix>
</trkpt>
<trkpt lat="40.0713749" lon="-105.229789">
  <ele>1583.0</ele>
  <time>2026-08-28T17:52:21Z</time>
  <course>0.0</course>
  <speed>0.0</speed>
  <fix>3d</fix>
</trkpt>
<trkpt lat="40.0713751" lon="-105.2297889">
  <ele>1583.08</ele>
  <time>2026-08-28T17:52:21Z</time>
  <course>247.11</course>
  <speed>0.022360679774997897</speed>
  <fix>3d</fix>
</trkpt>
<trkpt lat="40.0713749" lon="-105.229789">
  <ele>1583.0</ele>
  <time>2026-08-28T17:52:21Z</time>
  <course>0.0</course>
  <speed>0.0</speed>
  <fix>3d</fix>
</trkpt>
<trkpt lat="40.0713751" lon="-105.2297889">
  <ele>1583.09</ele>
  <time>2026-08-28T17:52:21Z</time>
  <course>247.11</course>
  <speed>0.022360679774997897</speed>
  <fix>3d</fix>
</trkpt>
<trkpt lat="40.0713749" lon="-105.229789">
  <ele>1583.0</ele>
  <time>2026-08-28T17:52:21Z</time>
  <course>0.0</course>
  <speed>0.0</speed>
  <fix>3d</fix>
</trkpt>
<trkpt lat="40.0713751" lon="-105.2297889">
  <ele>1583.09</ele>
  <time>2026-08-28T17:52:21Z</time>
  <course>247.11</course>
  <speed>0.022360679774997897</speed>
  <fix>3d</fix>
</trkpt>
<trkpt lat="40.0713749" lon="-105.229789">
  <ele>1583.0</ele>
  <time>2026-08-28T17:52:21Z</time>
  <course>0.0</course>
  <speed>0.0</speed>
  <fix>3d</fix>
</trkpt>
<trkpt lat="40.0713751" lon="-105.2297889">
  <ele>1583.1</ele>
  <time>2026-08-28T17:52:21Z</time>
  <course>247.11</course>
  <speed>0.022360679774997897</speed>
  <fix>3d</fix>
</trkpt>
<trkpt lat="40.0713749" lon="-105.229789">
  <ele>1583.0</ele>
  <time>2026-08-28T17:52:21Z</time>
  <course>0.0</course>
  <speed>0.0</speed>
  <fix>3d</fix>
</trkpt>
<trkpt lat="40.0713751" lon="-105.2297889">
  <ele>1583.1</ele>
  <time>2026-08-28T17:52:21Z</time>
  <course>247.11</course>
  <speed>0.022360679774997897</speed>
  <fix>3d</fix>
</trkpt>
<trkpt lat="40.0713749" lon="-105.229789">
  <ele>1583.0</ele>
  <time>2026-08-28T17:52:21Z</time>
  <course>0.0</course>
  <speed>0.0</speed>
  <fix>3d</fix>
</trkpt>
<trkpt lat="40.0713751" lon="-105.2297889">
  <ele>1583.1</ele>
  <time>2026-08-28T17:52:21Z</time>
  <course>247.11</course>
  <speed>0.022360679774997897</speed>
  <fix>3d</fix>
</trkpt>
<trkpt lat="40.0713749" lon="-105.229789">
  <ele>1583.0</ele>
  <time>2026-08-28T17:52:21Z</time>
  <course>0.0</course>
  <speed>0.0</speed>
  <fix>3d</fix>
</trkpt>
<trkpt lat="40.071375" lon="-105.2297889">
  <ele>1583.1</ele>
  <time>2026-08-28T17:52:21Z</time>
  <course>247.11</course>
  <speed>0.022360679774997897</speed>
  <fix>3d</fix>
</trkpt>
<trkpt lat="40.0713749" lon="-105.229789">
  <ele>1583.0</ele>
  <time>2026-08-28T17:52:21Z</time>
  <course>0.0</course>
  <speed>0.0</speed>
  <fix>3d</fix>
</trkpt>
<trkpt lat="40.071375" lon="-105.2297889">
  <ele>1583.11</ele>
  <time>2026-08-28T17:52:21Z</time>
  <course>247.11</course>
  <speed>0.022360679774997897</speed>
  <fix>3d</fix>
</trkpt>
<trkpt lat="40.0713749" lon="-105.229789">
  <ele>1583.0</ele>
  <time>2026-08-28T17:52:21Z</time>
  <course>0.0</course>
  <speed>0.0</speed>
  <fix>3d</fix>
</trkpt>
<trkpt lat="40.071375" lon="-105.2297889">
  <ele>1583.11</ele>
  <time>2026-08-28T17:52:21Z</time>
  <course>247.11</course>
  <speed>0.022360679774997897</speed>
  <fix>3d</fix>
</trkpt>
<trkpt lat="40.0713749" lon="-105.229789">
  <ele>1583.0</ele>
  <time>2026-08-28T17:52:21Z</time>
  <course>0.0</course>
  <speed>0.0</speed>
  <fix>3d</fix>
</trkpt>
<trkpt lat="40.071375" lon="-105.2297889">
  <ele>1583.11</ele>
  <time>2026-08-28T17:52:21Z</time>
  <course>247.11</course>
  <speed>0.022360679774997897</speed>
  <fix>3d</fix>
</trkpt>
<trkpt lat="40.0713749" lon="-105.229789">
  <ele>1583.0</ele>
  <time>2026-08-28T17:52:21Z</time>
  <course>0.0</course>
  <speed>0.0</speed>
  <fix>3d</fix>
</trkpt>
<trkpt lat="40.071375" lon="-105.2297889">
  <ele>1583.11</ele>
  <time>2026-08-28T17:52:21Z</time>
  <course>247.11</course>
  <speed>0.022360679774997897</speed>
  <fix>3d</fix>
</trkpt>
<trkpt lat="40.0713749" lon="-105.229789">
  <ele>1583.0</ele>
  <time>2026-08-28T17:52:21Z</time>
  <course>0.0</course>
  <speed>0.0</speed>
  <fix>3d</fix>
</trkpt>
<trkpt lat="40.071375" lon="-105.2297889">
  <ele>1583.12</ele>
  <time>2026-08-28T17:52:21Z</time>
  <course>247.11</course>
  <speed>0.022360679774997897</speed>
  <fix>3d</fix>
</trkpt>
<trkpt lat="40.0713749" lon="-105.229789">
  <ele>1583.0</ele>
  <time>2026-08-28T17:52:21Z</time>
  <course>0.0</course>
  <speed>0.0</speed>
  <fix>3d</fix>
</trkpt>
<trkpt lat="40.071375" lon="-105.2297889">
  <ele>1583.13</ele>
  <time>2026-08-28T17:52:21Z</time>
  <course>247.11</course>
  <speed>0.022360679774997897</speed>
  <fix>3d</fix>
</trkpt>
<trkpt lat="40.0713749" lon="-105.229789">
  <ele>1583.0</ele>
  <time>2026-08-28T17:52:21Z</time>
  <course>0.0</course>
  <speed>0.0</speed>
  <fix>3d</fix>
</trkpt>
<trkpt lat="40.071375" lon="-105.2297889">
  <ele>1583.13</ele>
  <time>2026-08-28T17:52:21Z</time>
  <course>247.11</course>
  <speed>0.022360679774997897</speed>
  <fix>3d</fix>
</trkpt>
<trkpt lat="40.0713749" lon="-105.229789">
  <ele>1583.0</ele>
  <time>2026-08-28T17:52:21Z</time>
  <course>0.0</course>
  <speed>0.0</speed>
  <fix>3d</fix>
</trkpt>
<trkpt lat="40.071375" lon="-105.2297889">
  <ele>1583.13</ele>
  <time>2026-08-28T17:52:21Z</time>
  <course>247.11</course>
  <speed>0.022360679774997897</speed>
  <fix>3d</fix>
</trkpt>
<trkpt lat="40.0713749" lon="-105.229789">
  <ele>1583.0</ele>
  <time>2026-08-28T17:52:21Z</time>
  <course>0.0</course>
  <speed>0.0</speed>
  <fix>3d</fix>
</trkpt>
<trkpt lat="40.071375" lon="-105.2297889">
  <ele>1583.14</ele>
  <time>2026-08-28T17:52:21Z</time>
  <course>247.11</course>
  <speed>0.022360679774997897</speed>
  <fix>3d</fix>
</trkpt>
<trkpt lat="40.0713749" lon="-105.229789">
  <ele>1583.0</ele>
  <time>2026-08-28T17:52:21Z</time>
  <course>0.0</course>
  <speed>0.0</speed>
  <fix>3d</fix>
</trkpt>
<trkpt lat="40.071375" lon="-105.2297889">
  <ele>1583.14</ele>
  <time>2026-08-28T17:52:21Z</time>
  <course>247.11</course>
  <speed>0.022360679774997897</speed>
  <fix>3d</fix>
</trkpt>
<trkpt lat="40.0713749" lon="-105.229789">
  <ele>1583.0</ele>
  <time>2026-08-28T17:52:21Z</time>
  <course>0.0</course>
  <speed>0.0</speed>
  <fix>3d</fix>
</trkpt>
<trkpt lat="40.0713751" lon="-105.2297889">
  <ele>1583.14</ele>
  <time>2026-08-28T17:52:21Z</time>
  <course>247.11</course>
  <speed>0.022360679774997897</speed>
  <fix>3d</fix>
</trkpt>
<trkpt lat="40.0713749" lon="-105.229789">
  <ele>1583.0</ele>
  <time>2026-08-28T17:52:21Z</time>
  <course>0.0</course>
  <speed>0.0</speed>
  <fix>3d</fix>
</trkpt>
<trkpt lat="40.071375" lon="-105.2297889">
  <ele>1583.14</ele>
  <time>2026-08-28T17:52:21Z</time>
  <course>247.11</course>
  <speed>0.022360679774997897</speed>
  <fix>3d</fix>
</trkpt>
<trkpt lat="40.0713749" lon="-105.229789">
  <ele>1583.0</ele>
  <time>2026-08-28T17:52:21Z</time>
  <course>0.0</course>
  <speed>0.0</speed>
  <fix>3d</fix>
</trkpt>
<trkpt lat="40.0713751" lon="-105.2297889">
  <ele>1583.14</ele>
  <time>2026-08-28T17:52:21Z</time>
  <course>247.11</course>
  <speed>0.022360679774997897</speed>
  <fix>3d</fix>
</trkpt>
<trkpt lat="40.0713749" lon="-105.229789">
  <ele>1583.0</ele>
  <time>2026-08-28T17:52:21Z</time>
  <course>0.0</course>
  <speed>0.0</speed>
  <fix>3d</fix>
</trkpt>
<trkpt lat="40.0713751" lon="-105.2297889">
  <ele>1583.13</ele>
  <time>2026-08-28T17:52:21Z</time>
  <course>247.11</course>
  <speed>0.022360679774997897</speed>
  <fix>3d</fix>
</trkpt>
<trkpt lat="40.0713749" lon="-105.229789">
  <ele>1583.0</ele>
  <time>2026-08-28T17:52:21Z</time>
  <course>0.0</course>
  <speed>0.0</speed>
  <fix>3d</fix>
</trkpt>
<trkpt lat="40.0713751" lon="-105.2297889">
  <ele>1583.13</ele>
  <time>2026-08-28T17:52:21Z</time>
  <course>247.11</course>
  <speed>0.022360679774997897</speed>
  <fix>3d</fix>
</trkpt>
<trkpt lat="40.0713749" lon="-105.229789">
  <ele>1583.0</ele>
  <time>2026-08-28T17:52:21Z</time>
  <course>0.0</course>
  <speed>0.0</speed>
  <fix>3d</fix>
</trkpt>
<trkpt lat="40.0713751" lon="-105.2297889">
  <ele>1583.13</ele>
  <time>2026-08-28T17:52:21Z</time>
  <course>247.11</course>
  <speed>0.022360679774997897</speed>
  <fix>3d</fix>
</trkpt>
<trkpt lat="40.0713749" lon="-105.229789">
  <ele>1583.0</ele>
  <time>2026-08-28T17:52:21Z</time>
  <course>0.0</course>
  <speed>0.0</speed>
  <fix>3d</fix>
</trkpt>
<trkpt lat="40.0713751" lon="-105.2297889">
  <ele>1583.12</ele>
  <time>2026-08-28T17:52:21Z</time>
  <course>247.11</course>
  <speed>0.022360679774997897</speed>
  <fix>3d</fix>
</trkpt>
<trkpt lat="40.0713749" lon="-105.229789">
  <ele>1583.0</ele>
  <time>2026-08-28T17:52:21Z</time>
  <course>0.0</course>
  <speed>0.0</speed>
  <fix>3d</fix>
</trkpt>
<trkpt lat="40.0713751" lon="-105.2297889">
  <ele>1583.12</ele>
  <time>2026-08-28T17:52:21Z</time>
  <course>247.11</course>
  <speed>0.022360679774997897</speed>
  <fix>3d</fix>
</trkpt>
<trkpt lat="40.0713749" lon="-105.229789">
  <ele>1583.0</ele>
  <time>2026-08-28T17:52:21Z</time>
  <course>0.0</course>
  <speed>0.0</speed>
  <fix>3d</fix>
</trkpt>
<trkpt lat="40.0713751" lon="-105.2297889">
  <ele>1583.12</ele>
  <time>2026-08-28T17:52:21Z</time>
  <course>247.11</course>
  <speed>0.022360679774997897</speed>
  <fix>3d</fix>
</trkpt>
<trkpt lat="40.0713749" lon="-105.229789">
  <ele>1583.0</ele>
  <time>2026-08-28T17:52:21Z</time>
  <course>0.0</course>
  <speed>0.0</speed>
  <fix>3d</fix>
</trkpt>
<trkpt lat="40.0713751" lon="-105.2297889">
  <ele>1583.11</ele>
  <time>2026-08-28T17:52:21Z</time>
  <course>247.11</course>
  <speed>0.022360679774997897</speed>
  <fix>3d</fix>
</trkpt>
<trkpt lat="40.0713749" lon="-105.229789">
  <ele>1583.0</ele>
  <time>2026-08-28T17:52:21Z</time>
  <course>0.0</course>
  <speed>0.0</speed>
  <fix>3d</fix>
</trkpt>
<trkpt lat="40.0713751" lon="-105.2297889">
  <ele>1583.1</ele>
  <time>2026-08-28T17:52:21Z</time>
  <course>247.11</course>
  <speed>0.022360679774997897</speed>
  <fix>3d</fix>
</trkpt>
<trkpt lat="40.0713749" lon="-105.229789">
  <ele>1583.0</ele>
  <time>2026-08-28T17:52:21Z</time>
  <course>0.0</course>
  <speed>0.0</speed>
  <fix>3d</fix>
</trkpt>
<trkpt lat="40.071375" lon="-105.2297889">
  <ele>1583.1</ele>
  <time>2026-08-28T17:52:21Z</time>
  <course>247.11</course>
  <speed>0.022360679774997897</speed>
  <fix>3d</fix>
</trkpt>
<trkpt lat="40.0713749" lon="-105.229789">
  <ele>1583.0</ele>
  <time>2026-08-28T17:52:21Z</time>
  <course>0.0</course>
  <speed>0.0</speed>
  <fix>3d</fix>
</trkpt>
<trkpt lat="40.071375" lon="-105.2297889">
  <ele>1583.09</ele>
  <time>2026-08-28T17:52:21Z</time>
  <course>247.11</course>
  <speed>0.022360679774997897</speed>
  <fix>3d</fix>
</trkpt>
<trkpt lat="40.0713749" lon="-105.229789">
  <ele>1583.0</ele>
  <time>2026-08-28T17:52:21Z</time>
  <course>0.0</course>
  <speed>0.0</speed>
  <fix>3d</fix>
</trkpt>
<trkpt lat="40.071375" lon="-105.2297889">
  <ele>1583.09</ele>
  <time>2026-08-28T17:52:21Z</time>
  <course>247.11</course>
  <speed>0.022360679774997897</speed>
  <fix>3d</fix>
</trkpt>
<trkpt lat="40.0713749" lon="-105.229789">
  <ele>1583.0</ele>
  <time>2026-08-28T17:52:21Z</time>
  <course>0.0</course>
  <speed>0.0</speed>
  <fix>3d</fix>
</trkpt>
<trkpt lat="40.071375" lon="-105.2297889">
  <ele>1583.09</ele>
  <time>2026-08-28T17:52:21Z</time>
  <course>247.11</course>
  <speed>0.022360679774997897</speed>
  <fix>3d</fix>
</trkpt>
<trkpt lat="40.0713749" lon="-105.229789">
  <ele>1583.0</ele>
  <time>2026-08-28T17:52:21Z</time>
  <course>0.0</course>
  <speed>0.0</speed>
  <fix>3d</fix>
</trkpt>
<trkpt lat="40.071375" lon="-105.2297889">
  <ele>1583.08</ele>
  <time>2026-08-28T17:52:21Z</time>
  <course>247.11</course>
  <speed>0.022360679774997897</speed>
  <fix>3d</fix>
</trkpt>
<trkpt lat="40.0713749" lon="-105.229789">
  <ele>1583.0</ele>
  <time>2026-08-28T17:52:21Z</time>
  <course>0.0</course>
  <speed>0.0</speed>
  <fix>3d</fix>
</trkpt>
<trkpt lat="40.071375" lon="-105.2297889">
  <ele>1583.08</ele>
  <time>2026-08-28T17:52:21Z</time>
  <course>247.11</course>
  <speed>0.022360679774997897</speed>
  <fix>3d</fix>
</trkpt>
<trkpt lat="40.0713749" lon="-105.229789">
  <ele>1583.0</ele>
  <time>2026-08-28T17:52:21Z</time>
  <course>0.0</course>
  <speed>0.0</speed>
  <fix>3d</fix>
</trkpt>
<trkpt lat="40.071375" lon="-105.2297889">
  <ele>1583.08</ele>
  <time>2026-08-28T17:52:21Z</time>
  <course>247.11</course>
  <speed>0.022360679774997897</speed>
  <fix>3d</fix>
</trkpt>
<trkpt lat="40.0713749" lon="-105.229789">
  <ele>1583.0</ele>
  <time>2026-08-28T17:52:21Z</time>
  <course>0.0</course>
  <speed>0.0</speed>
  <fix>3d</fix>
</trkpt>
<trkpt lat="40.071375" lon="-105.2297889">
  <ele>1583.08</ele>
  <time>2026-08-28T17:52:21Z</time>
  <course>247.11</course>
  <speed>0.022360679774997897</speed>
  <fix>3d</fix>
</trkpt>
<trkpt lat="40.0713749" lon="-105.229789">
  <ele>1583.0</ele>
  <time>2026-08-28T17:52:21Z</time>
  <course>0.0</course>
  <speed>0.0</speed>
  <fix>3d</fix>
</trkpt>
<trkpt lat="40.071375" lon="-105.2297889">
  <ele>1583.07</ele>
  <time>2026-08-28T17:52:21Z</time>
  <course>247.11</course>
  <speed>0.022360679774997897</speed>
  <fix>3d</fix>
</trkpt>
<trkpt lat="40.0713749" lon="-105.229789">
  <ele>1583.0</ele>
  <time>2026-08-28T17:52:21Z</time>
  <course>0.0</course>
  <speed>0.0</speed>
  <fix>3d</fix>
</trkpt>
<trkpt lat="40.071375" lon="-105.2297889">
  <ele>1583.07</ele>
  <time>2026-08-28T17:52:21Z</time>
  <course>247.11</course>
  <speed>0.022360679774997897</speed>
  <fix>3d</fix>
</trkpt>
<trkpt lat="40.0713749" lon="-105.229789">
  <ele>1583.0</ele>
  <time>2026-08-28T17:52:21Z</time>
  <course>0.0</course>
  <speed>0.0</speed>
  <fix>3d</fix>
</trkpt>
<trkpt lat="40.071375" lon="-105.2297889">
  <ele>1583.07</ele>
  <time>2026-08-28T17:52:21Z</time>
  <course>247.11</course>
  <speed>0.022360679774997897</speed>
  <fix>3d</fix>
</trkpt>
<trkpt lat="40.0713749" lon="-105.229789">
  <ele>1583.0</ele>
  <time>2026-08-28T17:52:21Z</time>
  <course>0.0</course>
  <speed>0.0</speed>
  <fix>3d</fix>
</trkpt>
<trkpt lat="40.071375" lon="-105.2297889">
  <ele>1583.07</ele>
  <time>2026-08-28T17:52:21Z</time>
  <course>247.11</course>
  <speed>0.022360679774997897</speed>
  <fix>3d</fix>
</trkpt>
<trkpt lat="40.0713749" lon="-105.229789">
  <ele>1583.0</ele>
  <time>2026-08-28T17:52:21Z</time>
  <course>0.0</course>
  <speed>0.0</speed>
  <fix>3d</fix>
</trkpt>
<trkpt lat="40.071375" lon="-105.2297889">
  <ele>1583.07</ele>
  <time>2026-08-28T17:52:21Z</time>
  <course>247.11</course>
  <speed>0.022360679774997897</speed>
  <fix>3d</fix>
</trkpt>
<trkpt lat="40.0713749" lon="-105.229789">
  <ele>1583.0</ele>
  <time>2026-08-28T17:52:21Z</time>
  <course>0.0</course>
  <speed>0.0</speed>
  <fix>3d</fix>
</trkpt>
<trkpt lat="40.071375" lon="-105.2297889">
  <ele>1583.07</ele>
  <time>2026-08-28T17:52:21Z</time>
  <course>247.11</course>
  <speed>0.022360679774997897</speed>
  <fix>3d</fix>
</trkpt>
<trkpt lat="40.0713749" lon="-105.229789">
  <ele>1583.0</ele>
  <time>2026-08-28T17:52:21Z</time>
  <course>0.0</course>
  <speed>0.0</speed>
  <fix>3d</fix>
</trkpt>
<trkpt lat="40.0713751" lon="-105.2297889">
  <ele>1583.08</ele>
  <time>2026-08-28T17:52:21Z</time>
  <course>247.11</course>
  <speed>0.022360679774997897</speed>
  <fix>3d</fix>
</trkpt>
<trkpt lat="40.0713749" lon="-105.229789">
  <ele>1583.0</ele>
  <time>2026-08-28T17:52:21Z</time>
  <course>0.0</course>
  <speed>0.0</speed>
  <fix>3d</fix>
</trkpt>
<trkpt lat="40.0713751" lon="-105.2297889">
  <ele>1583.08</ele>
  <time>2026-08-28T17:52:21Z</time>
  <course>247.11</course>
  <speed>0.022360679774997897</speed>
  <fix>3d</fix>
</trkpt>
<trkpt lat="40.0713749" lon="-105.229789">
  <ele>1583.0</ele>
  <time>2026-08-28T17:52:21Z</time>
  <course>0.0</course>
  <speed>0.0</speed>
  <fix>3d</fix>
</trkpt>
<trkpt lat="40.0713751" lon="-105.2297889">
  <ele>1583.08</ele>
  <time>2026-08-28T17:52:21Z</time>
  <course>247.11</course>
  <speed>0.022360679774997897</speed>
  <fix>3d</fix>
</trkpt>
<trkpt lat="40.0713749" lon="-105.229789">
  <ele>1583.0</ele>
  <time>2026-08-28T17:52:21Z</time>
  <course>0.0</course>
  <speed>0.0</speed>
  <fix>3d</fix>
</trkpt>
<trkpt lat="40.0713751" lon="-105.2297889">
  <ele>1583.08</ele>
  <time>2026-08-28T17:52:21Z</time>
  <course>247.11</course>
  <speed>0.022360679774997897</speed>
  <fix>3d</fix>
</trkpt>
<trkpt lat="40.0713749" lon="-105.229789">
  <ele>1583.0</ele>
  <time>2026-08-28T17:52:21Z</time>
  <course>0.0</course>
  <speed>0.0</speed>
  <fix>3d</fix>
</trkpt>
<trkpt lat="40.0713751" lon="-105.2297889">
  <ele>1583.08</ele>
  <time>2026-08-28T17:52:21Z</time>
  <course>247.11</course>
  <speed>0.022360679774997897</speed>
  <fix>3d</fix>
</trkpt>
<trkpt lat="40.0713751" lon="-105.2297889">
  <ele>1583.08</ele>
  <time>2026-08-28T17:52:21Z</time>
  <course>247.11</course>
  <speed>0.022360679774997897</speed>
  <fix>3d</fix>
</trkpt>
<trkpt lat="40.0713749" lon="-105.229789">
  <ele>1583.0</ele>
  <time>2026-08-28T17:52:21Z</time>
  <course>0.0</course>
  <speed>0.0</speed>
  <fix>3d</fix>
</trkpt>
<trkpt lat="40.0713751" lon="-105.2297889">
  <ele>1583.07</ele>
  <time>2026-08-28T17:52:21Z</time>
  <course>247.11</course>
  <speed>0.022360679774997897</speed>
  <fix>3d</fix>
</trkpt>
<trkpt lat="40.0713749" lon="-105.229789">
  <ele>1583.0</ele>
  <time>2026-08-28T17:52:21Z</time>
  <course>0.0</course>
  <speed>0.0</speed>
  <fix>3d</fix>
</trkpt>
<trkpt lat="40.0713751" lon="-105.2297889">
  <ele>1583.06</ele>
  <time>2026-08-28T17:52:21Z</time>
  <course>247.11</course>
  <speed>0.022360679774997897</speed>
  <fix>3d</fix>
</trkpt>
<trkpt lat="40.0713749" lon="-105.229789">
  <ele>1583.0</ele>
  <time>2026-08-28T17:52:21Z</time>
  <course>0.0</course>
  <speed>0.0</speed>
  <fix>3d</fix>
</trkpt>
<trkpt lat="40.071375" lon="-105.2297889">
  <ele>1583.06</ele>
  <time>2026-08-28T17:52:21Z</time>
  <course>247.11</course>
  <speed>0.022360679774997897</speed>
  <fix>3d</fix>
</trkpt>
<trkpt lat="40.0713749" lon="-105.229789">
  <ele>1583.0</ele>
  <time>2026-08-28T17:52:21Z</time>
  <course>0.0</course>
  <speed>0.0</speed>
  <fix>3d</fix>
</trkpt>
<trkpt lat="40.0713751" lon="-105.2297889">
  <ele>1583.05</ele>
  <time>2026-08-28T17:52:21Z</time>
  <course>247.11</course>
  <speed>0.022360679774997897</speed>
  <fix>3d</fix>
</trkpt>
<trkpt lat="40.0713749" lon="-105.229789">
  <ele>1583.0</ele>
  <time>2026-08-28T17:52:21Z</time>
  <course>0.0</course>
  <speed>0.0</speed>
  <fix>3d</fix>
</trkpt>
<trkpt lat="40.071375" lon="-105.2297889">
  <ele>1583.04</ele>
  <time>2026-08-28T17:52:21Z</time>
  <course>247.11</course>
  <speed>0.022360679774997897</speed>
  <fix>3d</fix>
</trkpt>
<trkpt lat="40.0713749" lon="-105.229789">
  <ele>1583.0</ele>
  <time>2026-08-28T17:52:21Z</time>
  <course>0.0</course>
  <speed>0.0</speed>
  <fix>3d</fix>
</trkpt>
<trkpt lat="40.0713751" lon="-105.2297889">
  <ele>1583.04</ele>
  <time>2026-08-28T17:52:21Z</time>
  <course>247.11</course>
  <speed>0.022360679774997897</speed>
  <fix>3d</fix>
</trkpt>
<trkpt lat="40.0713749" lon="-105.229789">
  <ele>1583.0</ele>
  <time>2026-08-28T17:52:21Z</time>
  <course>0.0</course>
  <speed>0.0</speed>
  <fix>3d</fix>
</trkpt>
<trkpt lat="40.071375" lon="-105.2297889">
  <ele>1583.03</ele>
  <time>2026-08-28T17:52:21Z</time>
  <course>247.11</course>
  <speed>0.022360679774997897</speed>
  <fix>3d</fix>
</trkpt>
<trkpt lat="40.0713749" lon="-105.229789">
  <ele>1583.0</ele>
  <time>2026-08-28T17:52:21Z</time>
  <course>0.0</course>
  <speed>0.0</speed>
  <fix>3d</fix>
</trkpt>
<trkpt lat="40.0713751" lon="-105.2297889">
  <ele>1583.02</ele>
  <time>2026-08-28T17:52:21Z</time>
  <course>247.11</course>
  <speed>0.022360679774997897</speed>
  <fix>3d</fix>
</trkpt>
<trkpt lat="40.0713749" lon="-105.229789">
  <ele>1583.0</ele>
  <time>2026-08-28T17:52:21Z</time>
  <course>0.0</course>
  <speed>0.0</speed>
  <fix>3d</fix>
</trkpt>
<trkpt lat="40.071375" lon="-105.2297889">
  <ele>1583.01</ele>
  <time>2026-08-28T17:52:21Z</time>
  <course>247.11</course>
  <speed>0.022360679774997897</speed>
  <fix>3d</fix>
</trkpt>
<trkpt lat="40.0713749" lon="-105.229789">
  <ele>1583.0</ele>
  <time>2026-08-28T17:52:21Z</time>
  <course>0.0</course>
  <speed>0.0</speed>
  <fix>3d</fix>
</trkpt>
<trkpt lat="40.071375" lon="-105.2297889">
  <ele>1583.01</ele>
  <time>2026-08-28T17:52:21Z</time>
  <course>247.11</course>
  <speed>0.022360679774997897</speed>
  <fix>3d</fix>
</trkpt>
<trkpt lat="40.0713749" lon="-105.229789">
  <ele>1583.0</ele>
  <time>2026-08-28T17:52:21Z</time>
  <course>0.0</course>
  <speed>0.0</speed>
  <fix>3d</fix>
</trkpt>
<trkpt lat="40.071375" lon="-105.2297889">
  <ele>1583.01</ele>
  <time>2026-08-28T17:52:21Z</time>
  <course>247.11</course>
  <speed>0.022360679774997897</speed>
  <fix>3d</fix>
</trkpt>
<trkpt lat="40.0713749" lon="-105.229789">
  <ele>1583.0</ele>
  <time>2026-08-28T17:52:21Z</time>
  <course>0.0</course>
  <speed>0.0</speed>
  <fix>3d</fix>
</trkpt>
<trkpt lat="40.071375" lon="-105.2297889">
  <ele>1583.01</ele>
  <time>2026-08-28T17:52:21Z</time>
  <course>247.11</course>
  <speed>0.022360679774997897</speed>
  <fix>3d</fix>
</trkpt>
<trkpt lat="40.0713749" lon="-105.229789">
  <ele>1583.0</ele>
  <time>2026-08-28T17:52:21Z</time>
  <course>0.0</course>
  <speed>0.0</speed>
  <fix>3d</fix>
</trkpt>
<trkpt lat="40.071375" lon="-105.2297889">
  <ele>1583.01</ele>
  <time>2026-08-28T17:52:21Z</time>
  <course>247.11</course>
  <speed>0.022360679774997897</speed>
  <fix>3d</fix>
</trkpt>
<trkpt lat="40.0713749" lon="-105.229789">
  <ele>1583.0</ele>
  <time>2026-08-28T17:52:21Z</time>
  <course>0.0</course>
  <speed>0.0</speed>
  <fix>3d</fix>
</trkpt>
<trkpt lat="40.0713751" lon="-105.2297889">
  <ele>1583.01</ele>
  <time>2026-08-28T17:52:21Z</time>
  <course>247.11</course>
  <speed>0.022360679774997897</speed>
  <fix>3d</fix>
</trkpt>
<trkpt lat="40.0713749" lon="-105.229789">
  <ele>1583.0</ele>
  <time>2026-08-28T17:52:21Z</time>
  <course>0.0</course>
  <speed>0.0</speed>
  <fix>3d</fix>
</trkpt>
<trkpt lat="40.071375" lon="-105.2297889">
  <ele>1583.02</ele>
  <time>2026-08-28T17:52:21Z</time>
  <course>247.11</course>
  <speed>0.022360679774997897</speed>
  <fix>3d</fix>
</trkpt>
<trkpt lat="40.0713749" lon="-105.229789">
  <ele>1583.0</ele>
  <time>2026-08-28T17:52:21Z</time>
  <course>0.0</course>
  <speed>0.0</speed>
  <fix>3d</fix>
</trkpt>
<trkpt lat="40.0713751" lon="-105.2297889">
  <ele>1583.02</ele>
  <time>2026-08-28T17:52:21Z</time>
  <course>247.11</course>
  <speed>0.022360679774997897</speed>
  <fix>3d</fix>
</trkpt>
<trkpt lat="40.0713749" lon="-105.229789">
  <ele>1583.0</ele>
  <time>2026-08-28T17:52:21Z</time>
  <course>0.0</course>
  <speed>0.0</speed>
  <fix>3d</fix>
</trkpt>
<trkpt lat="40.0713751" lon="-105.2297889">
  <ele>1583.02</ele>
  <time>2026-08-28T17:52:21Z</time>
  <course>247.11</course>
  <speed>0.022360679774997897</speed>
  <fix>3d</fix>
</trkpt>
<trkpt lat="40.0713749" lon="-105.229789">
  <ele>1583.0</ele>
  <time>2026-08-28T17:52:21Z</time>
  <course>0.0</course>
  <speed>0.0</speed>
  <fix>3d</fix>
</trkpt>
<trkpt lat="40.0713751" lon="-105.2297889">
  <ele>1583.02</ele>
  <time>2026-08-28T17:52:21Z</time>
  <course>247.11</course>
  <speed>0.022360679774997897</speed>
  <fix>3d</fix>
</trkpt>
<trkpt lat="40.0713749" lon="-105.229789">
  <ele>1583.0</ele>
  <time>2026-08-28T17:52:21Z</time>
  <course>0.0</course>
  <speed>0.0</speed>
  <fix>3d</fix>
</trkpt>
<trkpt lat="40.0713751" lon="-105.2297889">
  <ele>1583.02</ele>
  <time>2026-08-28T17:52:21Z</time>
  <course>247.11</course>
  <speed>0.022360679774997897</speed>
  <fix>3d</fix>
</trkpt>
<trkpt lat="40.0713749" lon="-105.229789">
  <ele>1583.0</ele>
  <time>2026-08-28T17:52:21Z</time>
  <course>0.0</course>
  <speed>0.0</speed>
  <fix>3d</fix>
</trkpt>
<trkpt lat="40.0713751" lon="-105.2297889">
  <ele>1583.02</ele>
  <time>2026-08-28T17:52:21Z</time>
  <course>247.11</course>
  <speed>0.022360679774997897</speed>
  <fix>3d</fix>
</trkpt>
<trkpt lat="40.0713749" lon="-105.229789">
  <ele>1583.0</ele>
  <time>2026-08-28T17:52:21Z</time>
  <course>0.0</course>
  <speed>0.0</speed>
  <fix>3d</fix>
</trkpt>
<trkpt lat="40.0713751" lon="-105.2297889">
  <ele>1583.03</ele>
  <time>2026-08-28T17:52:21Z</time>
  <course>247.11</course>
  <speed>0.022360679774997897</speed>
  <fix>3d</fix>
</trkpt>
<trkpt lat="40.0713749" lon="-105.229789">
  <ele>1583.0</ele>
  <time>2026-08-28T17:52:21Z</time>
  <course>0.0</course>
  <speed>0.0</speed>
  <fix>3d</fix>
</trkpt>
<trkpt lat="40.0713751" lon="-105.2297889">
  <ele>1583.03</ele>
  <time>2026-08-28T17:52:21Z</time>
  <course>247.11</course>
  <speed>0.022360679774997897</speed>
  <fix>3d</fix>
</trkpt>
<trkpt lat="40.0713749" lon="-105.229789">
  <ele>1583.0</ele>
  <time>2026-08-28T17:52:21Z</time>
  <course>0.0</course>
  <speed>0.0</speed>
  <fix>3d</fix>
</trkpt>
<trkpt lat="40.071375" lon="-105.2297889">
  <ele>1583.03</ele>
  <time>2026-08-28T17:52:21Z</time>
  <course>247.11</course>
  <speed>0.022360679774997897</speed>
  <fix>3d</fix>
</trkpt>
<trkpt lat="40.0713749" lon="-105.229789">
  <ele>1583.0</ele>
  <time>2026-08-28T17:52:21Z</time>
  <course>0.0</course>
  <speed>0.0</speed>
  <fix>3d</fix>
</trkpt>
<trkpt lat="40.0713751" lon="-105.2297889">
  <ele>1583.04</ele>
  <time>2026-08-28T17:52:21Z</time>
  <course>247.11</course>
  <speed>0.022360679774997897</speed>
  <fix>3d</fix>
</trkpt>
<trkpt lat="40.0713749" lon="-105.229789">
  <ele>1583.0</ele>
  <time>2026-08-28T17:52:21Z</time>
  <course>0.0</course>
  <speed>0.0</speed>
  <fix>3d</fix>
</trkpt>
<trkpt lat="40.071375" lon="-105.2297889">
  <ele>1583.04</ele>
  <time>2026-08-28T17:52:21Z</time>
  <course>247.11</course>
  <speed>0.022360679774997897</speed>
  <fix>3d</fix>
</trkpt>
<trkpt lat="40.0713749" lon="-105.229789">
  <ele>1583.0</ele>
  <time>2026-08-28T17:52:21Z</time>
  <course>0.0</course>
  <speed>0.0</speed>
  <fix>3d</fix>
</trkpt>
<trkpt lat="40.0713751" lon="-105.2297889">
  <ele>1583.04</ele>
  <time>2026-08-28T17:52:21Z</time>
  <course>247.11</course>
  <speed>0.022360679774997897</speed>
  <fix>3d</fix>
</trkpt>
<trkpt lat="40.0713749" lon="-105.229789">
  <ele>1583.0</ele>
  <time>2026-08-28T17:52:21Z</time>
  <course>0.0</course>
  <speed>0.0</speed>
  <fix>3d</fix>
</trkpt>
<trkpt lat="40.071375" lon="-105.2297889">
  <ele>1583.04</ele>
  <time>2026-08-28T17:52:21Z</time>
  <course>247.11</course>
  <speed>0.022360679774997897</speed>
  <fix>3d</fix>
</trkpt>
<trkpt lat="40.0713749" lon="-105.229789">
  <ele>1583.0</ele>
  <time>2026-08-28T17:52:21Z</time>
  <course>0.0</course>
  <speed>0.0</speed>
  <fix>3d</fix>
</trkpt>
<trkpt lat="40.0713751" lon="-105.2297889">
  <ele>1583.05</ele>
  <time>2026-08-28T17:52:21Z</time>
  <course>247.11</course>
  <speed>0.022360679774997897</speed>
  <fix>3d</fix>
</trkpt>
<trkpt lat="40.0713749" lon="-105.229789">
  <ele>1583.0</ele>
  <time>2026-08-28T17:52:21Z</time>
  <course>0.0</course>
  <speed>0.0</speed>
  <fix>3d</fix>
</trkpt>
<trkpt lat="40.071375" lon="-105.2297889">
  <ele>1583.05</ele>
  <time>2026-08-28T17:52:21Z</time>
  <course>247.11</course>
  <speed>0.022360679774997897</speed>
  <fix>3d</fix>
</trkpt>
<trkpt lat="40.0713749" lon="-105.229789">
  <ele>1583.0</ele>
  <time>2026-08-28T17:52:21Z</time>
  <course>0.0</course>
  <speed>0.0</speed>
  <fix>3d</fix>
</trkpt>
<trkpt lat="40.071375" lon="-105.2297889">
  <ele>1583.05</ele>
  <time>2026-08-28T17:52:21Z</time>
  <course>247.11</course>
  <speed>0.022360679774997897</speed>
  <fix>3d</fix>
</trkpt>
<trkpt lat="40.0713749" lon="-105.229789">
  <ele>1583.0</ele>
  <time>2026-08-28T17:52:21Z</time>
  <course>0.0</course>
  <speed>0.0</speed>
  <fix>3d</fix>
</trkpt>
<trkpt lat="40.071375" lon="-105.2297889">
  <ele>1583.05</ele>
  <time>2026-08-28T17:52:21Z</time>
  <course>247.11</course>
  <speed>0.022360679774997897</speed>
  <fix>3d</fix>
</trkpt>
<trkpt lat="40.0713749" lon="-105.229789">
  <ele>1583.0</ele>
  <time>2026-08-28T17:52:21Z</time>
  <course>0.0</course>
  <speed>0.0</speed>
  <fix>3d</fix>
</trkpt>
<trkpt lat="40.0713751" lon="-105.2297889">
  <ele>1583.06</ele>
  <time>2026-08-28T17:52:21Z</time>
  <course>247.11</course>
  <speed>0.022360679774997897</speed>
  <fix>3d</fix>
</trkpt>
<trkpt lat="40.0713749" lon="-105.229789">
  <ele>1583.0</ele>
  <time>2026-08-28T17:52:21Z</time>
  <course>0.0</course>
  <speed>0.0</speed>
  <fix>3d</fix>
</trkpt>
<trkpt lat="40.071375" lon="-105.2297889">
  <ele>1583.06</ele>
  <time>2026-08-28T17:52:21Z</time>
  <course>247.11</course>
  <speed>0.022360679774997897</speed>
  <fix>3d</fix>
</trkpt>
<trkpt lat="40.0713749" lon="-105.229789">
  <ele>1583.0</ele>
  <time>2026-08-28T17:52:21Z</time>
  <course>0.0</course>
  <speed>0.0</speed>
  <fix>3d</fix>
</trkpt>
<trkpt lat="40.0713751" lon="-105.2297889">
  <ele>1583.06</ele>
  <time>2026-08-28T17:52:21Z</time>
  <course>247.11</course>
  <speed>0.022360679774997897</speed>
  <fix>3d</fix>
</trkpt>
<trkpt lat="40.0713749" lon="-105.229789">
  <ele>1583.0</ele>
  <time>2026-08-28T17:52:21Z</time>
  <course>0.0</course>
  <speed>0.0</speed>
  <fix>3d</fix>
</trkpt>
<trkpt lat="40.0713751" lon="-105.2297889">
  <ele>1583.06</ele>
  <time>2026-08-28T17:52:21Z</time>
  <course>247.11</course>
  <speed>0.022360679774997897</speed>
  <fix>3d</fix>
</trkpt>
<trkpt lat="40.0713749" lon="-105.229789">
  <ele>1583.0</ele>
  <time>2026-08-28T17:52:21Z</time>
  <course>0.0</course>
  <speed>0.0</speed>
  <fix>3d</fix>
</trkpt>
<trkpt lat="40.0713751" lon="-105.2297889">
  <ele>1583.06</ele>
  <time>2026-08-28T17:52:21Z</time>
  <course>247.11</course>
  <speed>0.022360679774997897</speed>
  <fix>3d</fix>
</trkpt>
<trkpt lat="40.0713749" lon="-105.229789">
  <ele>1583.0</ele>
  <time>2026-08-28T17:52:21Z</time>
  <course>0.0</course>
  <speed>0.0</speed>
  <fix>3d</fix>
</trkpt>
<trkpt lat="40.0713751" lon="-105.2297889">
  <ele>1583.06</ele>
  <time>2026-08-28T17:52:21Z</time>
  <course>247.11</course>
  <speed>0.022360679774997897</speed>
  <fix>3d</fix>
</trkpt>
<trkpt lat="40.0713749" lon="-105.229789">
  <ele>1583.0</ele>
  <time>2026-08-28T17:52:21Z</time>
  <course>0.0</course>
  <speed>0.0</speed>
  <fix>3d</fix>
</trkpt>
<trkpt lat="40.0713751" lon="-105.2297889">
  <ele>1583.06</ele>
  <time>2026-08-28T17:52:21Z</time>
  <course>247.11</course>
  <speed>0.022360679774997897</speed>
  <fix>3d</fix>
</trkpt>
<trkpt lat="40.0713749" lon="-105.229789">
  <ele>1583.0</ele>
  <time>2026-08-28T17:52:21Z</time>
  <course>0.0</course>
  <speed>0.0</speed>
  <fix>3d</fix>
</trkpt>
<trkpt lat="40.0713751" lon="-105.2297889">
  <ele>1583.06</ele>
  <time>2026-08-28T17:52:21Z</time>
  <course>247.11</course>
  <speed>0.022360679774997897</speed>
  <fix>3d</fix>
</trkpt>
<trkpt lat="40.0713749" lon="-105.229789">
  <ele>1583.0</ele>
  <time>2026-08-28T17:52:21Z</time>
  <course>0.0</course>
  <speed>0.0</speed>
  <fix>3d</fix>
</trkpt>
<trkpt lat="40.0713751" lon="-105.2297889">
  <ele>1583.06</ele>
  <time>2026-08-28T17:52:21Z</time>
  <course>247.11</course>
  <speed>0.022360679774997897</speed>
  <fix>3d</fix>
</trkpt>
<trkpt lat="40.0713749" lon="-105.229789">
  <ele>1583.0</ele>
  <time>2026-08-28T17:52:21Z</time>
  <course>0.0</course>
  <speed>0.0</speed>
  <fix>3d</fix>
</trkpt>
<trkpt lat="40.0713751" lon="-105.2297889">
  <ele>1583.06</ele>
  <time>2026-08-28T17:52:21Z</time>
  <course>247.11</course>
  <speed>0.022360679774997897</speed>
  <fix>3d</fix>
</trkpt>
<trkpt lat="40.0713749" lon="-105.229789">
  <ele>1583.0</ele>
  <time>2026-08-28T17:52:21Z</time>
  <course>0.0</course>
  <speed>0.0</speed>
  <fix>3d</fix>
</trkpt>
<trkpt lat="40.0713751" lon="-105.2297889">
  <ele>1583.05</ele>
  <time>2026-08-28T17:52:21Z</time>
  <course>247.11</course>
  <speed>0.022360679774997897</speed>
  <fix>3d</fix>
</trkpt>
<trkpt lat="40.0713749" lon="-105.229789">
  <ele>1583.0</ele>
  <time>2026-08-28T17:52:21Z</time>
  <course>0.0</course>
  <speed>0.0</speed>
  <fix>3d</fix>
</trkpt>
<trkpt lat="40.0713751" lon="-105.2297889">
  <ele>1583.05</ele>
  <time>2026-08-28T17:52:21Z</time>
  <course>247.11</course>
  <speed>0.022360679774997897</speed>
  <fix>3d</fix>
</trkpt>
<trkpt lat="40.0713749" lon="-105.229789">
  <ele>1583.0</ele>
  <time>2026-08-28T17:52:21Z</time>
  <course>0.0</course>
  <speed>0.0</speed>
  <fix>3d</fix>
</trkpt>
<trkpt lat="40.0713751" lon="-105.2297889">
  <ele>1583.04</ele>
  <time>2026-08-28T17:52:21Z</time>
  <course>247.11</course>
  <speed>0.022360679774997897</speed>
  <fix>3d</fix>
</trkpt>
<trkpt lat="40.0713749" lon="-105.229789">
  <ele>1583.0</ele>
  <time>2026-08-28T17:52:21Z</time>
  <course>0.0</course>
  <speed>0.0</speed>
  <fix>3d</fix>
</trkpt>
<trkpt lat="40.071375" lon="-105.2297889">
  <ele>1583.04</ele>
  <time>2026-08-28T17:52:21Z</time>
  <course>247.11</course>
  <speed>0.022360679774997897</speed>
  <fix>3d</fix>
</trkpt>
<trkpt lat="40.0713749" lon="-105.229789">
  <ele>1583.0</ele>
  <time>2026-08-28T17:52:21Z</time>
  <course>0.0</course>
  <speed>0.0</speed>
  <fix>3d</fix>
</trkpt>
<trkpt lat="40.0713751" lon="-105.2297889">
  <ele>1583.03</ele>
  <time>2026-08-28T17:52:21Z</time>
  <course>247.11</course>
  <speed>0.022360679774997897</speed>
  <fix>3d</fix>
</trkpt>
<trkpt lat="40.0713749" lon="-105.229789">
  <ele>1583.0</ele>
  <time>2026-08-28T17:52:21Z</time>
  <course>0.0</course>
  <speed>0.0</speed>
  <fix>3d</fix>
</trkpt>
<trkpt lat="40.071375" lon="-105.2297889">
  <ele>1583.03</ele>
  <time>2026-08-28T17:52:21Z</time>
  <course>247.11</course>
  <speed>0.022360679774997897</speed>
  <fix>3d</fix>
</trkpt>
<trkpt lat="40.0713749" lon="-105.229789">
  <ele>1583.0</ele>
  <time>2026-08-28T17:52:21Z</time>
  <course>0.0</course>
  <speed>0.0</speed>
  <fix>3d</fix>
</trkpt>
<trkpt lat="40.0713751" lon="-105.2297889">
  <ele>1583.03</ele>
  <time>2026-08-28T17:52:21Z</time>
  <course>247.11</course>
  <speed>0.022360679774997897</speed>
  <fix>3d</fix>
</trkpt>
<trkpt lat="40.0713749" lon="-105.229789">
  <ele>1583.0</ele>
  <time>2026-08-28T17:52:21Z</time>
  <course>0.0</course>
  <speed>0.0</speed>
  <fix>3d</fix>
</trkpt>
<trkpt lat="40.071375" lon="-105.2297889">
  <ele>1583.02</ele>
  <time>2026-08-28T17:52:21Z</time>
  <course>247.11</course>
  <speed>0.022360679774997897</speed>
  <fix>3d</fix>
</trkpt>
<trkpt lat="40.0713749" lon="-105.229789">
  <ele>1583.0</ele>
  <time>2026-08-28T17:52:21Z</time>
  <course>0.0</course>
  <speed>0.0</speed>
  <fix>3d</fix>
</trkpt>
<trkpt lat="40.0713751" lon="-105.2297889">
  <ele>1583.02</ele>
  <time>2026-08-28T17:52:21Z</time>
  <course>247.11</course>
  <speed>0.022360679774997897</speed>
  <fix>3d</fix>
</trkpt>
<trkpt lat="40.0713749" lon="-105.229789">
  <ele>1583.0</ele>
  <time>2026-08-28T17:52:21Z</time>
  <course>0.0</course>
  <speed>0.0</speed>
  <fix>3d</fix>
</trkpt>
<trkpt lat="40.0713751" lon="-105.2297889">
  <ele>1583.02</ele>
  <time>2026-08-28T17:52:21Z</time>
  <course>247.11</course>
  <speed>0.022360679774997897</speed>
  <fix>3d</fix>
</trkpt>
<trkpt lat="40.0713749" lon="-105.229789">
  <ele>1583.0</ele>
  <time>2026-08-28T17:52:21Z</time>
  <course>0.0</course>
  <speed>0.0</speed>
  <fix>3d</fix>
</trkpt>
<trkpt lat="40.0713751" lon="-105.2297889">
  <ele>1583.02</ele>
  <time>2026-08-28T17:52:21Z</time>
  <course>247.11</course>
  <speed>0.022360679774997897</speed>
  <fix>3d</fix>
</trkpt>
<trkpt lat="40.0713749" lon="-105.229789">
  <ele>1583.0</ele>
  <time>2026-08-28T17:52:21Z</time>
  <course>0.0</course>
  <speed>0.0</speed>
  <fix>3d</fix>
</trkpt>
<trkpt lat="40.0713751" lon="-105.2297889">
  <ele>1583.02</ele>
  <time>2026-08-28T17:52:21Z</time>
  <course>247.11</course>
  <speed>0.022360679774997897</speed>
  <fix>3d</fix>
</trkpt>
<trkpt lat="40.0713749" lon="-105.229789">
  <ele>1583.0</ele>
  <time>2026-08-28T17:52:21Z</time>
  <course>0.0</course>
  <speed>0.0</speed>
  <fix>3d</fix>
</trkpt>
<trkpt lat="40.0713751" lon="-105.2297889">
  <ele>1583.02</ele>
  <time>2026-08-28T17:52:21Z</time>
  <course>247.11</course>
  <speed>0.022360679774997897</speed>
  <fix>3d</fix>
</trkpt>
<trkpt lat="40.0713749" lon="-105.229789">
  <ele>1583.0</ele>
  <time>2026-08-28T17:52:21Z</time>
  <course>0.0</course>
  <speed>0.0</speed>
  <fix>3d</fix>
</trkpt>
<trkpt lat="40.0713751" lon="-105.2297889">
  <ele>1583.02</ele>
  <time>2026-08-28T17:52:21Z</time>
  <course>247.11</course>
  <speed>0.022360679774997897</speed>
  <fix>3d</fix>
</trkpt>
<trkpt lat="40.0713749" lon="-105.229789">
  <ele>1583.0</ele>
  <time>2026-08-28T17:52:21Z</time>
  <course>0.0</course>
  <speed>0.0</speed>
  <fix>3d</fix>
</trkpt>
<trkpt lat="40.0713751" lon="-105.2297889">
  <ele>1583.01</ele>
  <time>2026-08-28T17:52:21Z</time>
  <course>247.11</course>
  <speed>0.022360679774997897</speed>
  <fix>3d</fix>
</trkpt>
<trkpt lat="40.0713749" lon="-105.229789">
  <ele>1583.0</ele>
  <time>2026-08-28T17:52:21Z</time>
  <course>0.0</course>
  <speed>0.0</speed>
  <fix>3d</fix>
</trkpt>
<trkpt lat="40.0713751" lon="-105.2297889">
  <ele>1583.01</ele>
  <time>2026-08-28T17:52:21Z</time>
  <course>247.11</course>
  <speed>0.022360679774997897</speed>
  <fix>3d</fix>
</trkpt>
<trkpt lat="40.0713749" lon="-105.229789">
  <ele>1583.0</ele>
  <time>2026-08-28T17:52:21Z</time>
  <course>0.0</course>
  <speed>0.0</speed>
  <fix>3d</fix>
</trkpt>
<trkpt lat="40.0713751" lon="-105.2297889">
  <ele>1583.02</ele>
  <time>2026-08-28T17:52:21Z</time>
  <course>247.11</course>
  <speed>0.022360679774997897</speed>
  <fix>3d</fix>
</trkpt>
<trkpt lat="40.0713749" lon="-105.229789">
  <ele>1583.0</ele>
  <time>2026-08-28T17:52:21Z</time>
  <course>0.0</course>
  <speed>0.0</speed>
  <fix>3d</fix>
</trkpt>
<trkpt lat="40.0713751" lon="-105.2297889">
  <ele>1583.02</ele>
  <time>2026-08-28T17:52:21Z</time>
  <course>247.11</course>
  <speed>0.022360679774997897</speed>
  <fix>3d</fix>
</trkpt>
<trkpt lat="40.0713749" lon="-105.229789">
  <ele>1583.0</ele>
  <time>2026-08-28T17:52:21Z</time>
  <course>0.0</course>
  <speed>0.0</speed>
  <fix>3d</fix>
</trkpt>
<trkpt lat="40.0713751" lon="-105.2297889">
  <ele>1583.02</ele>
  <time>2026-08-28T17:52:21Z</time>
  <course>247.11</course>
  <speed>0.022360679774997897</speed>
  <fix>3d</fix>
</trkpt>
<trkpt lat="40.0713749" lon="-105.229789">
  <ele>1583.0</ele>
  <time>2026-08-28T17:52:21Z</time>
  <course>0.0</course>
  <speed>0.0</speed>
  <fix>3d</fix>
</trkpt>
<trkpt lat="40.0713751" lon="-105.2297889">
  <ele>1583.01</ele>
  <time>2026-08-28T17:52:21Z</time>
  <course>247.11</course>
  <speed>0.022360679774997897</speed>
  <fix>3d</fix>
</trkpt>
<trkpt lat="40.0713749" lon="-105.229789">
  <ele>1583.0</ele>
  <time>2026-08-28T17:52:21Z</time>
  <course>0.0</course>
  <speed>0.0</speed>
  <fix>3d</fix>
</trkpt>
<trkpt lat="40.0713751" lon="-105.2297889">
  <ele>1583.01</ele>
  <time>2026-08-28T17:52:21Z</time>
  <course>247.11</course>
  <speed>0.022360679774997897</speed>
  <fix>3d</fix>
</trkpt>
<trkpt lat="40.0713749" lon="-105.229789">
  <ele>1583.0</ele>
  <time>2026-08-28T17:52:21Z</time>
  <course>0.0</course>
  <speed>0.0</speed>
  <fix>3d</fix>
</trkpt>
<trkpt lat="40.0713751" lon="-105.2297889">
  <ele>1583.0</ele>
  <time>2026-08-28T17:52:21Z</time>
  <course>247.11</course>
  <speed>0.022360679774997897</speed>
  <fix>3d</fix>
</trkpt>
<trkpt lat="40.0713749" lon="-105.229789">
  <ele>1583.0</ele>
  <time>2026-08-28T17:52:21Z</time>
  <course>0.0</course>
  <speed>0.0</speed>
  <fix>3d</fix>
</trkpt>
<trkpt lat="40.0713751" lon="-105.2297889">
  <ele>1583.0</ele>
  <time>2026-08-28T17:52:21Z</time>
  <course>247.11</course>
  <speed>0.022360679774997897</speed>
  <fix>3d</fix>
</trkpt>
<trkpt lat="40.0713749" lon="-105.229789">
  <ele>1583.0</ele>
  <time>2026-08-28T17:52:21Z</time>
  <course>0.0</course>
  <speed>0.0</speed>
  <fix>3d</fix>
</trkpt>
<trkpt lat="40.0713751" lon="-105.2297889">
  <ele>1582.99</ele>
  <time>2026-08-28T17:52:21Z</time>
  <course>247.11</course>
  <speed>0.022360679774997897</speed>
  <fix>3d</fix>
</trkpt>
<trkpt lat="40.0713749" lon="-105.229789">
  <ele>1583.0</ele>
  <time>2026-08-28T17:52:21Z</time>
  <course>0.0</course>
  <speed>0.0</speed>
  <fix>3d</fix>
</trkpt>
<trkpt lat="40.0713751" lon="-105.2297889">
  <ele>1582.98</ele>
  <time>2026-08-28T17:52:21Z</time>
  <course>247.11</course>
  <speed>0.022360679774997897</speed>
  <fix>3d</fix>
</trkpt>
<trkpt lat="40.0713749" lon="-105.229789">
  <ele>1583.0</ele>
  <time>2026-08-28T17:52:21Z</time>
  <course>0.0</course>
  <speed>0.0</speed>
  <fix>3d</fix>
</trkpt>
<trkpt lat="40.0713751" lon="-105.2297889">
  <ele>1582.97</ele>
  <time>2026-08-28T17:52:21Z</time>
  <course>247.11</course>
  <speed>0.022360679774997897</speed>
  <fix>3d</fix>
</trkpt>
<trkpt lat="40.0713749" lon="-105.229789">
  <ele>1583.0</ele>
  <time>2026-08-28T17:52:21Z</time>
  <course>0.0</course>
  <speed>0.0</speed>
  <fix>3d</fix>
</trkpt>
<trkpt lat="40.0713751" lon="-105.2297889">
  <ele>1582.96</ele>
  <time>2026-08-28T17:52:21Z</time>
  <course>247.11</course>
  <speed>0.022360679774997897</speed>
  <fix>3d</fix>
</trkpt>
<trkpt lat="40.0713749" lon="-105.229789">
  <ele>1583.0</ele>
  <time>2026-08-28T17:52:21Z</time>
  <course>0.0</course>
  <speed>0.0</speed>
  <fix>3d</fix>
</trkpt>
<trkpt lat="40.0713751" lon="-105.2297889">
  <ele>1582.95</ele>
  <time>2026-08-28T17:52:21Z</time>
  <course>247.1</course>
  <speed>0.022360679774997897</speed>
  <fix>3d</fix>
</trkpt>
<trkpt lat="40.0713749" lon="-105.229789">
  <ele>1583.0</ele>
  <time>2026-08-28T17:52:21Z</time>
  <course>0.0</course>
  <speed>0.0</speed>
  <fix>3d</fix>
</trkpt>
<trkpt lat="40.0713751" lon="-105.2297889">
  <ele>1582.94</ele>
  <time>2026-08-28T17:52:21Z</time>
  <course>247.1</course>
  <speed>0.022360679774997897</speed>
  <fix>3d</fix>
</trkpt>
<trkpt lat="40.0713749" lon="-105.229789">
  <ele>1583.0</ele>
  <time>2026-08-28T17:52:21Z</time>
  <course>0.0</course>
  <speed>0.0</speed>
  <fix>3d</fix>
</trkpt>
<trkpt lat="40.0713751" lon="-105.2297889">
  <ele>1582.94</ele>
  <time>2026-08-28T17:52:21Z</time>
  <course>247.1</course>
  <speed>0.022360679774997897</speed>
  <fix>3d</fix>
</trkpt>
<trkpt lat="40.0713749" lon="-105.229789">
  <ele>1583.0</ele>
  <time>2026-08-28T17:52:21Z</time>
  <course>0.0</course>
  <speed>0.0</speed>
  <fix>3d</fix>
</trkpt>
<trkpt lat="40.0713751" lon="-105.2297889">
  <ele>1582.94</ele>
  <time>2026-08-28T17:52:21Z</time>
  <course>247.1</course>
  <speed>0.022360679774997897</speed>
  <fix>3d</fix>
</trkpt>
<trkpt lat="40.0713749" lon="-105.229789">
  <ele>1583.0</ele>
  <time>2026-08-28T17:52:21Z</time>
  <course>0.0</course>
  <speed>0.0</speed>
  <fix>3d</fix>
</trkpt>
<trkpt lat="40.0713751" lon="-105.2297889">
  <ele>1582.94</ele>
  <time>2026-08-28T17:52:21Z</time>
  <course>247.1</course>
  <speed>0.022360679774997897</speed>
  <fix>3d</fix>
</trkpt>
<trkpt lat="40.0713749" lon="-105.229789">
  <ele>1583.0</ele>
  <time>2026-08-28T17:52:21Z</time>
  <course>0.0</course>
  <speed>0.0</speed>
  <fix>3d</fix>
</trkpt>
<trkpt lat="40.0713751" lon="-105.2297889">
  <ele>1582.94</ele>
  <time>2026-08-28T17:52:21Z</time>
  <course>247.1</course>
  <speed>0.022360679774997897</speed>
  <fix>3d</fix>
</trkpt>
<trkpt lat="40.0713749" lon="-105.229789">
  <ele>1583.0</ele>
  <time>2026-08-28T17:52:21Z</time>
  <course>0.0</course>
  <speed>0.0</speed>
  <fix>3d</fix>
</trkpt>
<trkpt lat="40.0713751" lon="-105.2297889">
  <ele>1582.95</ele>
  <time>2026-08-28T17:52:21Z</time>
  <course>247.1</course>
  <speed>0.022360679774997897</speed>
  <fix>3d</fix>
</trkpt>
<trkpt lat="40.0713749" lon="-105.229789">
  <ele>1583.0</ele>
  <time>2026-08-28T17:52:21Z</time>
  <course>0.0</course>
  <speed>0.0</speed>
  <fix>3d</fix>
</trkpt>
<trkpt lat="40.0713751" lon="-105.2297889">
  <ele>1582.95</ele>
  <time>2026-08-28T17:52:21Z</time>
  <course>247.1</course>
  <speed>0.022360679774997897</speed>
  <fix>3d</fix>
</trkpt>
<trkpt lat="40.0713749" lon="-105.229789">
  <ele>1583.0</ele>
  <time>2026-08-28T17:52:21Z</time>
  <course>0.0</course>
  <speed>0.0</speed>
  <fix>3d</fix>
</trkpt>
<trkpt lat="40.0713751" lon="-105.2297889">
  <ele>1582.96</ele>
  <time>2026-08-28T17:52:21Z</time>
  <course>247.1</course>
  <speed>0.022360679774997897</speed>
  <fix>3d</fix>
</trkpt>
<trkpt lat="40.0713749" lon="-105.229789">
  <ele>1583.0</ele>
  <time>2026-08-28T17:52:21Z</time>
  <course>0.0</course>
  <speed>0.0</speed>
  <fix>3d</fix>
</trkpt>
<trkpt lat="40.0713751" lon="-105.2297889">
  <ele>1582.96</ele>
  <time>2026-08-28T17:52:21Z</time>
  <course>247.1</course>
  <speed>0.022360679774997897</speed>
  <fix>3d</fix>
</trkpt>
<trkpt lat="40.0713749" lon="-105.229789">
  <ele>1583.0</ele>
  <time>2026-08-28T17:52:21Z</time>
  <course>0.0</course>
  <speed>0.0</speed>
  <fix>3d</fix>
</trkpt>
<trkpt lat="40.0713751" lon="-105.2297889">
  <ele>1582.97</ele>
  <time>2026-08-28T17:52:21Z</time>
  <course>247.1</course>
  <speed>0.022360679774997897</speed>
  <fix>3d</fix>
</trkpt>
<trkpt lat="40.0713749" lon="-105.229789">
  <ele>1583.0</ele>
  <time>2026-08-28T17:52:21Z</time>
  <course>0.0</course>
  <speed>0.0</speed>
  <fix>3d</fix>
</trkpt>
<trkpt lat="40.0713751" lon="-105.2297889">
  <ele>1582.98</ele>
  <time>2026-08-28T17:52:21Z</time>
  <course>247.1</course>
  <speed>0.022360679774997897</speed>
  <fix>3d</fix>
</trkpt>
<trkpt lat="40.0713749" lon="-105.229789">
  <ele>1583.0</ele>
  <time>2026-08-28T17:52:21Z</time>
  <course>0.0</course>
  <speed>0.0</speed>
  <fix>3d</fix>
</trkpt>
<trkpt lat="40.0713751" lon="-105.2297889">
  <ele>1582.98</ele>
  <time>2026-08-28T17:52:21Z</time>
  <course>247.1</course>
  <speed>0.022360679774997897</speed>
  <fix>3d</fix>
</trkpt>
<trkpt lat="40.0713749" lon="-105.229789">
  <ele>1583.0</ele>
  <time>2026-08-28T17:52:21Z</time>
  <course>0.0</course>
  <speed>0.0</speed>
  <fix>3d</fix>
</trkpt>
<trkpt lat="40.0713751" lon="-105.2297889">
  <ele>1582.97</ele>
  <time>2026-08-28T17:52:21Z</time>
  <course>247.1</course>
  <speed>0.022360679774997897</speed>
  <fix>3d</fix>
</trkpt>
<trkpt lat="40.0713749" lon="-105.229789">
  <ele>1583.0</ele>
  <time>2026-08-28T17:52:21Z</time>
  <course>0.0</course>
  <speed>0.0</speed>
  <fix>3d</fix>
</trkpt>
<trkpt lat="40.0713751" lon="-105.2297889">
  <ele>1582.97</ele>
  <time>2026-08-28T17:52:21Z</time>
  <course>247.1</course>
  <speed>0.022360679774997897</speed>
  <fix>3d</fix>
</trkpt>
<trkpt lat="40.0713749" lon="-105.229789">
  <ele>1583.0</ele>
  <time>2026-08-28T17:52:21Z</time>
  <course>0.0</course>
  <speed>0.0</speed>
  <fix>3d</fix>
</trkpt>
<trkpt lat="40.0713751" lon="-105.2297889">
  <ele>1582.97</ele>
  <time>2026-08-28T17:52:21Z</time>
  <course>247.1</course>
  <speed>0.022360679774997897</speed>
  <fix>3d</fix>
</trkpt>
<trkpt lat="40.0713749" lon="-105.229789">
  <ele>1583.0</ele>
  <time>2026-08-28T17:52:21Z</time>
  <course>0.0</course>
  <speed>0.0</speed>
  <fix>3d</fix>
</trkpt>
<trkpt lat="40.0713751" lon="-105.2297889">
  <ele>1582.96</ele>
  <time>2026-08-28T17:52:21Z</time>
  <course>247.1</course>
  <speed>0.022360679774997897</speed>
  <fix>3d</fix>
</trkpt>
<trkpt lat="40.0713749" lon="-105.229789">
  <ele>1583.0</ele>
  <time>2026-08-28T17:52:21Z</time>
  <course>0.0</course>
  <speed>0.0</speed>
  <fix>3d</fix>
</trkpt>
<trkpt lat="40.0713751" lon="-105.2297889">
  <ele>1582.95</ele>
  <time>2026-08-28T17:52:21Z</time>
  <course>247.1</course>
  <speed>0.022360679774997897</speed>
  <fix>3d</fix>
</trkpt>
<trkpt lat="40.0713749" lon="-105.229789">
  <ele>1583.0</ele>
  <time>2026-08-28T17:52:21Z</time>
  <course>0.0</course>
  <speed>0.0</speed>
  <fix>3d</fix>
</trkpt>
<trkpt lat="40.0713751" lon="-105.2297889">
  <ele>1582.95</ele>
  <time>2026-08-28T17:52:21Z</time>
  <course>247.1</course>
  <speed>0.022360679774997897</speed>
  <fix>3d</fix>
</trkpt>
<trkpt lat="40.0713749" lon="-105.229789">
  <ele>1583.0</ele>
  <time>2026-08-28T17:52:21Z</time>
  <course>0.0</course>
  <speed>0.0</speed>
  <fix>3d</fix>
</trkpt>
<trkpt lat="40.0713751" lon="-105.2297889">
  <ele>1582.94</ele>
  <time>2026-08-28T17:52:21Z</time>
  <course>247.1</course>
  <speed>0.022360679774997897</speed>
  <fix>3d</fix>
</trkpt>
<trkpt lat="40.0713749" lon="-105.229789">
  <ele>1583.0</ele>
  <time>2026-08-28T17:52:21Z</time>
  <course>0.0</course>
  <speed>0.0</speed>
  <fix>3d</fix>
</trkpt>
<trkpt lat="40.0713751" lon="-105.2297889">
  <ele>1582.93</ele>
  <time>2026-08-28T17:52:21Z</time>
  <course>247.1</course>
  <speed>0.02</speed>
  <fix>3d</fix>
</trkpt>
<trkpt lat="40.0713749" lon="-105.229789">
  <ele>1583.0</ele>
  <time>2026-08-28T17:52:21Z</time>
  <course>0.0</course>
  <speed>0.0</speed>
  <fix>3d</fix>
</trkpt>
<trkpt lat="40.0713751" lon="-105.2297889">
  <ele>1582.93</ele>
  <time>2026-08-28T17:52:21Z</time>
  <course>247.1</course>
  <speed>0.022360679774997897</speed>
  <fix>3d</fix>
</trkpt>
<trkpt lat="40.0713749" lon="-105.229789">
  <ele>1583.0</ele>
  <time>2026-08-28T17:52:21Z</time>
  <course>0.0</course>
  <speed>0.0</speed>
  <fix>3d</fix>
</trkpt>
<trkpt lat="40.0713751" lon="-105.2297889">
  <ele>1582.92</ele>
  <time>2026-08-28T17:52:21Z</time>
  <course>247.1</course>
  <speed>0.02</speed>
  <fix>3d</fix>
</trkpt>
<trkpt lat="40.0713749" lon="-105.229789">
  <ele>1583.0</ele>
  <time>2026-08-28T17:52:21Z</time>
  <course>0.0</course>
  <speed>0.0</speed>
  <fix>3d</fix>
</trkpt>
<trkpt lat="40.0713751" lon="-105.2297889">
  <ele>1582.92</ele>
  <time>2026-08-28T17:52:21Z</time>
  <course>247.1</course>
  <speed>0.022360679774997897</speed>
  <fix>3d</fix>
</trkpt>
<trkpt lat="40.0713749" lon="-105.229789">
  <ele>1583.0</ele>
  <time>2026-08-28T17:52:21Z</time>
  <course>0.0</course>
  <speed>0.0</speed>
  <fix>3d</fix>
</trkpt>
<trkpt lat="40.0713751" lon="-105.2297889">
  <ele>1582.91</ele>
  <time>2026-08-28T17:52:21Z</time>
  <course>247.1</course>
  <speed>0.02</speed>
  <fix>3d</fix>
</trkpt>
<trkpt lat="40.0713749" lon="-105.229789">
  <ele>1583.0</ele>
  <time>2026-08-28T17:52:21Z</time>
  <course>0.0</course>
  <speed>0.0</speed>
  <fix>3d</fix>
</trkpt>
<trkpt lat="40.0713751" lon="-105.2297889">
  <ele>1582.91</ele>
  <time>2026-08-28T17:52:21Z</time>
  <course>247.1</course>
  <speed>0.022360679774997897</speed>
  <fix>3d</fix>
</trkpt>
<trkpt lat="40.0713749" lon="-105.229789">
  <ele>1583.0</ele>
  <time>2026-08-28T17:52:21Z</time>
  <course>0.0</course>
  <speed>0.0</speed>
  <fix>3d</fix>
</trkpt>
<trkpt lat="40.0713751" lon="-105.2297889">
  <ele>1582.91</ele>
  <time>2026-08-28T17:52:21Z</time>
  <course>247.1</course>
  <speed>0.022360679774997897</speed>
  <fix>3d</fix>
</trkpt>
<trkpt lat="40.0713749" lon="-105.229789">
  <ele>1583.0</ele>
  <time>2026-08-28T17:52:21Z</time>
  <course>0.0</course>
  <speed>0.0</speed>
  <fix>3d</fix>
</trkpt>
<trkpt lat="40.0713751" lon="-105.2297889">
  <ele>1582.9</ele>
  <time>2026-08-28T17:52:21Z</time>
  <course>247.1</course>
  <speed>0.022360679774997897</speed>
  <fix>3d</fix>
</trkpt>
<trkpt lat="40.0713749" lon="-105.229789">
  <ele>1583.0</ele>
  <time>2026-08-28T17:52:21Z</time>
  <course>0.0</course>
  <speed>0.0</speed>
  <fix>3d</fix>
</trkpt>
<trkpt lat="40.0713751" lon="-105.2297889">
  <ele>1582.9</ele>
  <time>2026-08-28T17:52:21Z</time>
  <course>247.1</course>
  <speed>0.022360679774997897</speed>
  <fix>3d</fix>
</trkpt>
<trkpt lat="40.0713749" lon="-105.229789">
  <ele>1583.0</ele>
  <time>2026-08-28T17:52:21Z</time>
  <course>0.0</course>
  <speed>0.0</speed>
  <fix>3d</fix>
</trkpt>
<trkpt lat="40.0713751" lon="-105.2297889">
  <ele>1582.9</ele>
  <time>2026-08-28T17:52:21Z</time>
  <course>247.1</course>
  <speed>0.022360679774997897</speed>
  <fix>3d</fix>
</trkpt>
<trkpt lat="40.0713749" lon="-105.229789">
  <ele>1583.0</ele>
  <time>2026-08-28T17:52:21Z</time>
  <course>0.0</course>
  <speed>0.0</speed>
  <fix>3d</fix>
</trkpt>
<trkpt lat="40.0713751" lon="-105.2297889">
  <ele>1582.89</ele>
  <time>2026-08-28T17:52:21Z</time>
  <course>247.1</course>
  <speed>0.022360679774997897</speed>
  <fix>3d</fix>
</trkpt>
<trkpt lat="40.0713749" lon="-105.229789">
  <ele>1583.0</ele>
  <time>2026-08-28T17:52:21Z</time>
  <course>0.0</course>
  <speed>0.0</speed>
  <fix>3d</fix>
</trkpt>
<trkpt lat="40.0713751" lon="-105.2297889">
  <ele>1582.89</ele>
  <time>2026-08-28T17:52:21Z</time>
  <course>247.1</course>
  <speed>0.022360679774997897</speed>
  <fix>3d</fix>
</trkpt>
<trkpt lat="40.0713749" lon="-105.229789">
  <ele>1583.0</ele>
  <time>2026-08-28T17:52:21Z</time>
  <course>0.0</course>
  <speed>0.0</speed>
  <fix>3d</fix>
</trkpt>
<trkpt lat="40.0713751" lon="-105.2297889">
  <ele>1582.89</ele>
  <time>2026-08-28T17:52:21Z</time>
  <course>247.1</course>
  <speed>0.022360679774997897</speed>
  <fix>3d</fix>
</trkpt>
<trkpt lat="40.0713749" lon="-105.229789">
  <ele>1583.0</ele>
  <time>2026-08-28T17:52:21Z</time>
  <course>0.0</course>
  <speed>0.0</speed>
  <fix>3d</fix>
</trkpt>
<trkpt lat="40.0713751" lon="-105.2297889">
  <ele>1582.9</ele>
  <time>2026-08-28T17:52:21Z</time>
  <course>247.1</course>
  <speed>0.022360679774997897</speed>
  <fix>3d</fix>
</trkpt>
<trkpt lat="40.0713749" lon="-105.229789">
  <ele>1583.0</ele>
  <time>2026-08-28T17:52:21Z</time>
  <course>0.0</course>
  <speed>0.0</speed>
  <fix>3d</fix>
</trkpt>
<trkpt lat="40.0713751" lon="-105.2297889">
  <ele>1582.9</ele>
  <time>2026-08-28T17:52:21Z</time>
  <course>247.1</course>
  <speed>0.022360679774997897</speed>
  <fix>3d</fix>
</trkpt>
<trkpt lat="40.0713749" lon="-105.229789">
  <ele>1583.0</ele>
  <time>2026-08-28T17:52:21Z</time>
  <course>0.0</course>
  <speed>0.0</speed>
  <fix>3d</fix>
</trkpt>
<trkpt lat="40.0713751" lon="-105.2297889">
  <ele>1582.9</ele>
  <time>2026-08-28T17:52:21Z</time>
  <course>247.1</course>
  <speed>0.022360679774997897</speed>
  <fix>3d</fix>
</trkpt>
<trkpt lat="40.0713749" lon="-105.229789">
  <ele>1583.0</ele>
  <time>2026-08-28T17:52:21Z</time>
  <course>0.0</course>
  <speed>0.0</speed>
  <fix>3d</fix>
</trkpt>
<trkpt lat="40.0713751" lon="-105.2297889">
  <ele>1582.9</ele>
  <time>2026-08-28T17:52:21Z</time>
  <course>247.1</course>
  <speed>0.022360679774997897</speed>
  <fix>3d</fix>
</trkpt>
<trkpt lat="40.0713749" lon="-105.229789">
  <ele>1583.0</ele>
  <time>2026-08-28T17:52:21Z</time>
  <course>0.0</course>
  <speed>0.0</speed>
  <fix>3d</fix>
</trkpt>
<trkpt lat="40.0713751" lon="-105.2297889">
  <ele>1582.91</ele>
  <time>2026-08-28T17:52:21Z</time>
  <course>247.1</course>
  <speed>0.022360679774997897</speed>
  <fix>3d</fix>
</trkpt>
<trkpt lat="40.0713749" lon="-105.229789">
  <ele>1583.0</ele>
  <time>2026-08-28T17:52:21Z</time>
  <course>0.0</course>
  <speed>0.0</speed>
  <fix>3d</fix>
</trkpt>
<trkpt lat="40.0713751" lon="-105.2297889">
  <ele>1582.91</ele>
  <time>2026-08-28T17:52:21Z</time>
  <course>247.1</course>
  <speed>0.022360679774997897</speed>
  <fix>3d</fix>
</trkpt>
<trkpt lat="40.0713749" lon="-105.229789">
  <ele>1583.0</ele>
  <time>2026-08-28T17:52:21Z</time>
  <course>0.0</course>
  <speed>0.0</speed>
  <fix>3d</fix>
</trkpt>
<trkpt lat="40.0713751" lon="-105.2297889">
  <ele>1582.91</ele>
  <time>2026-08-28T17:52:21Z</time>
  <course>247.1</course>
  <speed>0.022360679774997897</speed>
  <fix>3d</fix>
</trkpt>
<trkpt lat="40.0713749" lon="-105.229789">
  <ele>1583.0</ele>
  <time>2026-08-28T17:52:21Z</time>
  <course>0.0</course>
  <speed>0.0</speed>
  <fix>3d</fix>
</trkpt>
<trkpt lat="40.071375" lon="-105.2297889">
  <ele>1582.91</ele>
  <time>2026-08-28T17:52:21Z</time>
  <course>247.1</course>
  <speed>0.022360679774997897</speed>
  <fix>3d</fix>
</trkpt>
<trkpt lat="40.0713749" lon="-105.229789">
  <ele>1583.0</ele>
  <time>2026-08-28T17:52:21Z</time>
  <course>0.0</course>
  <speed>0.0</speed>
  <fix>3d</fix>
</trkpt>
<trkpt lat="40.0713751" lon="-105.2297889">
  <ele>1582.92</ele>
  <time>2026-08-28T17:52:21Z</time>
  <course>247.1</course>
  <speed>0.022360679774997897</speed>
  <fix>3d</fix>
</trkpt>
<trkpt lat="40.0713749" lon="-105.229789">
  <ele>1583.0</ele>
  <time>2026-08-28T17:52:21Z</time>
  <course>0.0</course>
  <speed>0.0</speed>
  <fix>3d</fix>
</trkpt>
<trkpt lat="40.071375" lon="-105.2297889">
  <ele>1582.92</ele>
  <time>2026-08-28T17:52:21Z</time>
  <course>247.1</course>
  <speed>0.022360679774997897</speed>
  <fix>3d</fix>
</trkpt>
<trkpt lat="40.0713749" lon="-105.229789">
  <ele>1583.0</ele>
  <time>2026-08-28T17:52:21Z</time>
  <course>0.0</course>
  <speed>0.0</speed>
  <fix>3d</fix>
</trkpt>
<trkpt lat="40.0713751" lon="-105.2297889">
  <ele>1582.93</ele>
  <time>2026-08-28T17:52:21Z</time>
  <course>247.1</course>
  <speed>0.022360679774997897</speed>
  <fix>3d</fix>
</trkpt>
<trkpt lat="40.0713749" lon="-105.229789">
  <ele>1583.0</ele>
  <time>2026-08-28T17:52:21Z</time>
  <course>0.0</course>
  <speed>0.0</speed>
  <fix>3d</fix>
</trkpt>
<trkpt lat="40.071375" lon="-105.2297889">
  <ele>1582.93</ele>
  <time>2026-08-28T17:52:21Z</time>
  <course>247.1</course>
  <speed>0.022360679774997897</speed>
  <fix>3d</fix>
</trkpt>
<trkpt lat="40.0713749" lon="-105.229789">
  <ele>1583.0</ele>
  <time>2026-08-28T17:52:21Z</time>
  <course>0.0</course>
  <speed>0.0</speed>
  <fix>3d</fix>
</trkpt>
<trkpt lat="40.0713751" lon="-105.2297889">
  <ele>1582.94</ele>
  <time>2026-08-28T17:52:21Z</time>
  <course>247.1</course>
  <speed>0.022360679774997897</speed>
  <fix>3d</fix>
</trkpt>
<trkpt lat="40.0713749" lon="-105.229789">
  <ele>1583.0</ele>
  <time>2026-08-28T17:52:21Z</time>
  <course>0.0</course>
  <speed>0.0</speed>
  <fix>3d</fix>
</trkpt>
<trkpt lat="40.0713751" lon="-105.2297889">
  <ele>1582.95</ele>
  <time>2026-08-28T17:52:21Z</time>
  <course>247.1</course>
  <speed>0.022360679774997897</speed>
  <fix>3d</fix>
</trkpt>
<trkpt lat="40.0713749" lon="-105.229789">
  <ele>1583.0</ele>
  <time>2026-08-28T17:52:21Z</time>
  <course>0.0</course>
  <speed>0.0</speed>
  <fix>3d</fix>
</trkpt>
<trkpt lat="40.0713751" lon="-105.2297889">
  <ele>1582.95</ele>
  <time>2026-08-28T17:52:21Z</time>
  <course>247.1</course>
  <speed>0.022360679774997897</speed>
  <fix>3d</fix>
</trkpt>
<trkpt lat="40.0713749" lon="-105.229789">
  <ele>1583.0</ele>
  <time>2026-08-28T17:52:21Z</time>
  <course>0.0</course>
  <speed>0.0</speed>
  <fix>3d</fix>
</trkpt>
<trkpt lat="40.0713751" lon="-105.2297889">
  <ele>1582.96</ele>
  <time>2026-08-28T17:52:21Z</time>
  <course>247.1</course>
  <speed>0.022360679774997897</speed>
  <fix>3d</fix>
</trkpt>
<trkpt lat="40.0713749" lon="-105.229789">
  <ele>1583.0</ele>
  <time>2026-08-28T17:52:21Z</time>
  <course>0.0</course>
  <speed>0.0</speed>
  <fix>3d</fix>
</trkpt>
<trkpt lat="40.0713751" lon="-105.2297889">
  <ele>1582.96</ele>
  <time>2026-08-28T17:52:21Z</time>
  <course>247.1</course>
  <speed>0.022360679774997897</speed>
  <fix>3d</fix>
</trkpt>
<trkpt lat="40.0713749" lon="-105.229789">
  <ele>1583.0</ele>
  <time>2026-08-28T17:52:21Z</time>
  <course>0.0</course>
  <speed>0.0</speed>
  <fix>3d</fix>
</trkpt>
<trkpt lat="40.0713751" lon="-105.2297889">
  <ele>1582.97</ele>
  <time>2026-08-28T17:52:21Z</time>
  <course>247.1</course>
  <speed>0.022360679774997897</speed>
  <fix>3d</fix>
</trkpt>
<trkpt lat="40.0713749" lon="-105.229789">
  <ele>1583.0</ele>
  <time>2026-08-28T17:52:21Z</time>
  <course>0.0</course>
  <speed>0.0</speed>
  <fix>3d</fix>
</trkpt>
<trkpt lat="40.0713751" lon="-105.2297889">
  <ele>1582.97</ele>
  <time>2026-08-28T17:52:21Z</time>
  <course>247.1</course>
  <speed>0.022360679774997897</speed>
  <fix>3d</fix>
</trkpt>
<trkpt lat="40.0713749" lon="-105.229789">
  <ele>1583.0</ele>
  <time>2026-08-28T17:52:21Z</time>
  <course>0.0</course>
  <speed>0.0</speed>
  <fix>3d</fix>
</trkpt>
<trkpt lat="40.0713751" lon="-105.2297889">
  <ele>1582.97</ele>
  <time>2026-08-28T17:52:21Z</time>
  <course>247.1</course>
  <speed>0.022360679774997897</speed>
  <fix>3d</fix>
</trkpt>
<trkpt lat="40.0713749" lon="-105.229789">
  <ele>1583.0</ele>
  <time>2026-08-28T17:52:21Z</time>
  <course>0.0</course>
  <speed>0.0</speed>
  <fix>3d</fix>
</trkpt>
<trkpt lat="40.0713751" lon="-105.2297889">
  <ele>1582.98</ele>
  <time>2026-08-28T17:52:21Z</time>
  <course>247.1</course>
  <speed>0.022360679774997897</speed>
  <fix>3d</fix>
</trkpt>
<trkpt lat="40.0713749" lon="-105.229789">
  <ele>1583.0</ele>
  <time>2026-08-28T17:52:21Z</time>
  <course>0.0</course>
  <speed>0.0</speed>
  <fix>3d</fix>
</trkpt>
<trkpt lat="40.0713751" lon="-105.2297889">
  <ele>1582.98</ele>
  <time>2026-08-28T17:52:21Z</time>
  <course>247.1</course>
  <speed>0.022360679774997897</speed>
  <fix>3d</fix>
</trkpt>
<trkpt lat="40.0713749" lon="-105.229789">
  <ele>1583.0</ele>
  <time>2026-08-28T17:52:21Z</time>
  <course>0.0</course>
  <speed>0.0</speed>
  <fix>3d</fix>
</trkpt>
<trkpt lat="40.0713751" lon="-105.2297889">
  <ele>1582.97</ele>
  <time>2026-08-28T17:52:21Z</time>
  <course>247.1</course>
  <speed>0.022360679774997897</speed>
  <fix>3d</fix>
</trkpt>
<trkpt lat="40.0713749" lon="-105.229789">
  <ele>1583.0</ele>
  <time>2026-08-28T17:52:21Z</time>
  <course>0.0</course>
  <speed>0.0</speed>
  <fix>3d</fix>
</trkpt>
<trkpt lat="40.0713751" lon="-105.2297889">
  <ele>1582.97</ele>
  <time>2026-08-28T17:52:21Z</time>
  <course>247.1</course>
  <speed>0.022360679774997897</speed>
  <fix>3d</fix>
</trkpt>
<trkpt lat="40.0713749" lon="-105.229789">
  <ele>1583.0</ele>
  <time>2026-08-28T17:52:21Z</time>
  <course>0.0</course>
  <speed>0.0</speed>
  <fix>3d</fix>
</trkpt>
<trkpt lat="40.0713751" lon="-105.2297889">
  <ele>1582.97</ele>
  <time>2026-08-28T17:52:21Z</time>
  <course>247.1</course>
  <speed>0.022360679774997897</speed>
  <fix>3d</fix>
</trkpt>
<trkpt lat="40.0713749" lon="-105.229789">
  <ele>1583.0</ele>
  <time>2026-08-28T17:52:21Z</time>
  <course>0.0</course>
  <speed>0.0</speed>
  <fix>3d</fix>
</trkpt>
<trkpt lat="40.0713751" lon="-105.2297889">
  <ele>1582.97</ele>
  <time>2026-08-28T17:52:21Z</time>
  <course>247.1</course>
  <speed>0.022360679774997897</speed>
  <fix>3d</fix>
</trkpt>
<trkpt lat="40.0713749" lon="-105.229789">
  <ele>1583.0</ele>
  <time>2026-08-28T17:52:21Z</time>
  <course>0.0</course>
  <speed>0.0</speed>
  <fix>3d</fix>
</trkpt>
<trkpt lat="40.0713751" lon="-105.2297889">
  <ele>1582.96</ele>
  <time>2026-08-28T17:52:21Z</time>
  <course>247.1</course>
  <speed>0.022360679774997897</speed>
  <fix>3d</fix>
</trkpt>
<trkpt lat="40.0713749" lon="-105.229789">
  <ele>1583.0</ele>
  <time>2026-08-28T17:52:21Z</time>
  <course>0.0</course>
  <speed>0.0</speed>
  <fix>3d</fix>
</trkpt>
<trkpt lat="40.071375" lon="-105.2297889">
  <ele>1582.96</ele>
  <time>2026-08-28T17:52:21Z</time>
  <course>247.1</course>
  <speed>0.022360679774997897</speed>
  <fix>3d</fix>
</trkpt>
<trkpt lat="40.0713749" lon="-105.229789">
  <ele>1583.0</ele>
  <time>2026-08-28T17:52:21Z</time>
  <course>0.0</course>
  <speed>0.0</speed>
  <fix>3d</fix>
</trkpt>
<trkpt lat="40.0713751" lon="-105.2297889">
  <ele>1582.95</ele>
  <time>2026-08-28T17:52:21Z</time>
  <course>247.1</course>
  <speed>0.022360679774997897</speed>
  <fix>3d</fix>
</trkpt>
<trkpt lat="40.0713749" lon="-105.229789">
  <ele>1583.0</ele>
  <time>2026-08-28T17:52:21Z</time>
  <course>0.0</course>
  <speed>0.0</speed>
  <fix>3d</fix>
</trkpt>
<trkpt lat="40.071375" lon="-105.2297889">
  <ele>1582.95</ele>
  <time>2026-08-28T17:52:21Z</time>
  <course>247.1</course>
  <speed>0.022360679774997897</speed>
  <fix>3d</fix>
</trkpt>
<trkpt lat="40.0713749" lon="-105.229789">
  <ele>1583.0</ele>
  <time>2026-08-28T17:52:21Z</time>
  <course>0.0</course>
  <speed>0.0</speed>
  <fix>3d</fix>
</trkpt>
<trkpt lat="40.0713751" lon="-105.2297889">
  <ele>1582.94</ele>
  <time>2026-08-28T17:52:21Z</time>
  <course>247.1</course>
  <speed>0.022360679774997897</speed>
  <fix>3d</fix>
</trkpt>
<trkpt lat="40.0713749" lon="-105.229789">
  <ele>1583.0</ele>
  <time>2026-08-28T17:52:21Z</time>
  <course>0.0</course>
  <speed>0.0</speed>
  <fix>3d</fix>
</trkpt>
<trkpt lat="40.071375" lon="-105.2297889">
  <ele>1582.94</ele>
  <time>2026-08-28T17:52:21Z</time>
  <course>247.1</course>
  <speed>0.022360679774997897</speed>
  <fix>3d</fix>
</trkpt>
<trkpt lat="40.0713749" lon="-105.229789">
  <ele>1583.0</ele>
  <time>2026-08-28T17:52:21Z</time>
  <course>0.0</course>
  <speed>0.0</speed>
  <fix>3d</fix>
</trkpt>
<trkpt lat="40.0713751" lon="-105.2297889">
  <ele>1582.95</ele>
  <time>2026-08-28T17:52:21Z</time>
  <course>247.1</course>
  <speed>0.022360679774997897</speed>
  <fix>3d</fix>
</trkpt>
<trkpt lat="40.0713749" lon="-105.229789">
  <ele>1583.0</ele>
  <time>2026-08-28T17:52:21Z</time>
  <course>0.0</course>
  <speed>0.0</speed>
  <fix>3d</fix>
</trkpt>
<trkpt lat="40.071375" lon="-105.2297889">
  <ele>1582.95</ele>
  <time>2026-08-28T17:52:21Z</time>
  <course>247.1</course>
  <speed>0.022360679774997897</speed>
  <fix>3d</fix>
</trkpt>
<trkpt lat="40.0713749" lon="-105.229789">
  <ele>1583.0</ele>
  <time>2026-08-28T17:52:21Z</time>
  <course>0.0</course>
  <speed>0.0</speed>
  <fix>3d</fix>
</trkpt>
<trkpt lat="40.0713751" lon="-105.2297889">
  <ele>1582.95</ele>
  <time>2026-08-28T17:52:21Z</time>
  <course>247.1</course>
  <speed>0.022360679774997897</speed>
  <fix>3d</fix>
</trkpt>
<trkpt lat="40.0713749" lon="-105.229789">
  <ele>1583.0</ele>
  <time>2026-08-28T17:52:21Z</time>
  <course>0.0</course>
  <speed>0.0</speed>
  <fix>3d</fix>
</trkpt>
<trkpt lat="40.071375" lon="-105.2297889">
  <ele>1582.96</ele>
  <time>2026-08-28T17:52:21Z</time>
  <course>247.1</course>
  <speed>0.022360679774997897</speed>
  <fix>3d</fix>
</trkpt>
<trkpt lat="40.0713749" lon="-105.229789">
  <ele>1583.0</ele>
  <time>2026-08-28T17:52:21Z</time>
  <course>0.0</course>
  <speed>0.0</speed>
  <fix>3d</fix>
</trkpt>
<trkpt lat="40.0713751" lon="-105.2297889">
  <ele>1582.96</ele>
  <time>2026-08-28T17:52:21Z</time>
  <course>247.1</course>
  <speed>0.022360679774997897</speed>
  <fix>3d</fix>
</trkpt>
<trkpt lat="40.0713749" lon="-105.229789">
  <ele>1583.0</ele>
  <time>2026-08-28T17:52:21Z</time>
  <course>0.0</course>
  <speed>0.0</speed>
  <fix>3d</fix>
</trkpt>
<trkpt lat="40.071375" lon="-105.2297889">
  <ele>1582.96</ele>
  <time>2026-08-28T17:52:21Z</time>
  <course>247.1</course>
  <speed>0.022360679774997897</speed>
  <fix>3d</fix>
</trkpt>
<trkpt lat="40.0713749" lon="-105.229789">
  <ele>1583.0</ele>
  <time>2026-08-28T17:52:21Z</time>
  <course>0.0</course>
  <speed>0.0</speed>
  <fix>3d</fix>
</trkpt>
<trkpt lat="40.0713751" lon="-105.2297889">
  <ele>1582.97</ele>
  <time>2026-08-28T17:52:21Z</time>
  <course>247.1</course>
  <speed>0.022360679774997897</speed>
  <fix>3d</fix>
</trkpt>
<trkpt lat="40.0713749" lon="-105.229789">
  <ele>1583.0</ele>
  <time>2026-08-28T17:52:21Z</time>
  <course>0.0</course>
  <speed>0.0</speed>
  <fix>3d</fix>
</trkpt>
<trkpt lat="40.0713751" lon="-105.2297889">
  <ele>1582.97</ele>
  <time>2026-08-28T17:52:21Z</time>
  <course>247.1</course>
  <speed>0.022360679774997897</speed>
  <fix>3d</fix>
</trkpt>
<trkpt lat="40.0713749" lon="-105.229789">
  <ele>1583.0</ele>
  <time>2026-08-28T17:52:21Z</time>
  <course>0.0</course>
  <speed>0.0</speed>
  <fix>3d</fix>
</trkpt>
<trkpt lat="40.0713751" lon="-105.2297889">
  <ele>1582.97</ele>
  <time>2026-08-28T17:52:21Z</time>
  <course>247.1</course>
  <speed>0.022360679774997897</speed>
  <fix>3d</fix>
</trkpt>
<trkpt lat="40.0713749" lon="-105.229789">
  <ele>1583.0</ele>
  <time>2026-08-28T17:52:21Z</time>
  <course>0.0</course>
  <speed>0.0</speed>
  <fix>3d</fix>
</trkpt>
<trkpt lat="40.0713751" lon="-105.2297889">
  <ele>1582.97</ele>
  <time>2026-08-28T17:52:21Z</time>
  <course>247.1</course>
  <speed>0.022360679774997897</speed>
  <fix>3d</fix>
</trkpt>
<trkpt lat="40.0713749" lon="-105.229789">
  <ele>1583.0</ele>
  <time>2026-08-28T17:52:21Z</time>
  <course>0.0</course>
  <speed>0.0</speed>
  <fix>3d</fix>
</trkpt>
<trkpt lat="40.0713751" lon="-105.2297889">
  <ele>1582.97</ele>
  <time>2026-08-28T17:52:21Z</time>
  <course>247.1</course>
  <speed>0.022360679774997897</speed>
  <fix>3d</fix>
</trkpt>
<trkpt lat="40.0713749" lon="-105.229789">
  <ele>1583.0</ele>
  <time>2026-08-28T17:52:21Z</time>
  <course>0.0</course>
  <speed>0.0</speed>
  <fix>3d</fix>
</trkpt>
<trkpt lat="40.0713751" lon="-105.2297889">
  <ele>1582.97</ele>
  <time>2026-08-28T17:52:21Z</time>
  <course>247.1</course>
  <speed>0.022360679774997897</speed>
  <fix>3d</fix>
</trkpt>
<trkpt lat="40.0713749" lon="-105.229789">
  <ele>1583.0</ele>
  <time>2026-08-28T17:52:21Z</time>
  <course>0.0</course>
  <speed>0.0</speed>
  <fix>3d</fix>
</trkpt>
<trkpt lat="40.0713751" lon="-105.2297889">
  <ele>1582.97</ele>
  <time>2026-08-28T17:52:21Z</time>
  <course>247.1</course>
  <speed>0.022360679774997897</speed>
  <fix>3d</fix>
</trkpt>
<trkpt lat="40.0713749" lon="-105.229789">
  <ele>1583.0</ele>
  <time>2026-08-28T17:52:21Z</time>
  <course>0.0</course>
  <speed>0.0</speed>
  <fix>3d</fix>
</trkpt>
<trkpt lat="40.071375" lon="-105.2297889">
  <ele>1582.97</ele>
  <time>2026-08-28T17:52:21Z</time>
  <course>247.1</course>
  <speed>0.022360679774997897</speed>
  <fix>3d</fix>
</trkpt>
<trkpt lat="40.0713749" lon="-105.229789">
  <ele>1583.0</ele>
  <time>2026-08-28T17:52:21Z</time>
  <course>0.0</course>
  <speed>0.0</speed>
  <fix>3d</fix>
</trkpt>
<trkpt lat="40.0713751" lon="-105.2297889">
  <ele>1582.97</ele>
  <time>2026-08-28T17:52:21Z</time>
  <course>247.1</course>
  <speed>0.022360679774997897</speed>
  <fix>3d</fix>
</trkpt>
<trkpt lat="40.0713749" lon="-105.229789">
  <ele>1583.0</ele>
  <time>2026-08-28T17:52:21Z</time>
  <course>0.0</course>
  <speed>0.0</speed>
  <fix>3d</fix>
</trkpt>
<trkpt lat="40.071375" lon="-105.2297889">
  <ele>1582.97</ele>
  <time>2026-08-28T17:52:21Z</time>
  <course>247.1</course>
  <speed>0.022360679774997897</speed>
  <fix>3d</fix>
</trkpt>
<trkpt lat="40.0713749" lon="-105.229789">
  <ele>1583.0</ele>
  <time>2026-08-28T17:52:21Z</time>
  <course>0.0</course>
  <speed>0.0</speed>
  <fix>3d</fix>
</trkpt>
<trkpt lat="40.0713751" lon="-105.2297889">
  <ele>1582.97</ele>
  <time>2026-08-28T17:52:21Z</time>
  <course>247.1</course>
  <speed>0.022360679774997897</speed>
  <fix>3d</fix>
</trkpt>
<trkpt lat="40.0713749" lon="-105.229789">
  <ele>1583.0</ele>
  <time>2026-08-28T17:52:21Z</time>
  <course>0.0</course>
  <speed>0.0</speed>
  <fix>3d</fix>
</trkpt>
<trkpt lat="40.071375" lon="-105.2297889">
  <ele>1582.97</ele>
  <time>2026-08-28T17:52:21Z</time>
  <course>247.1</course>
  <speed>0.022360679774997897</speed>
  <fix>3d</fix>
</trkpt>
<trkpt lat="40.0713749" lon="-105.229789">
  <ele>1583.0</ele>
  <time>2026-08-28T17:52:21Z</time>
  <course>0.0</course>
  <speed>0.0</speed>
  <fix>3d</fix>
</trkpt>
<trkpt lat="40.0713751" lon="-105.2297889">
  <ele>1582.98</ele>
  <time>2026-08-28T17:52:21Z</time>
  <course>247.1</course>
  <speed>0.022360679774997897</speed>
  <fix>3d</fix>
</trkpt>
<trkpt lat="40.0713749" lon="-105.229789">
  <ele>1583.0</ele>
  <time>2026-08-28T17:52:21Z</time>
  <course>0.0</course>
  <speed>0.0</speed>
  <fix>3d</fix>
</trkpt>
<trkpt lat="40.071375" lon="-105.2297889">
  <ele>1582.98</ele>
  <time>2026-08-28T17:52:21Z</time>
  <course>247.1</course>
  <speed>0.022360679774997897</speed>
  <fix>3d</fix>
</trkpt>
<trkpt lat="40.0713749" lon="-105.229789">
  <ele>1583.0</ele>
  <time>2026-08-28T17:52:21Z</time>
  <course>0.0</course>
  <speed>0.0</speed>
  <fix>3d</fix>
</trkpt>
<trkpt lat="40.0713751" lon="-105.2297889">
  <ele>1582.99</ele>
  <time>2026-08-28T17:52:21Z</time>
  <course>247.1</course>
  <speed>0.022360679774997897</speed>
  <fix>3d</fix>
</trkpt>
<trkpt lat="40.0713749" lon="-105.229789">
  <ele>1583.0</ele>
  <time>2026-08-28T17:52:21Z</time>
  <course>0.0</course>
  <speed>0.0</speed>
  <fix>3d</fix>
</trkpt>
<trkpt lat="40.071375" lon="-105.2297889">
  <ele>1582.99</ele>
  <time>2026-08-28T17:52:21Z</time>
  <course>247.1</course>
  <speed>0.022360679774997897</speed>
  <fix>3d</fix>
</trkpt>
<trkpt lat="40.0713749" lon="-105.229789">
  <ele>1583.0</ele>
  <time>2026-08-28T17:52:21Z</time>
  <course>0.0</course>
  <speed>0.0</speed>
  <fix>3d</fix>
</trkpt>
<trkpt lat="40.0713751" lon="-105.2297889">
  <ele>1582.99</ele>
  <time>2026-08-28T17:52:21Z</time>
  <course>247.1</course>
  <speed>0.022360679774997897</speed>
  <fix>3d</fix>
</trkpt>
<trkpt lat="40.0713749" lon="-105.229789">
  <ele>1583.0</ele>
  <time>2026-08-28T17:52:21Z</time>
  <course>0.0</course>
  <speed>0.0</speed>
  <fix>3d</fix>
</trkpt>
<trkpt lat="40.071375" lon="-105.2297889">
  <ele>1582.99</ele>
  <time>2026-08-28T17:52:21Z</time>
  <course>247.1</course>
  <speed>0.022360679774997897</speed>
  <fix>3d</fix>
</trkpt>
<trkpt lat="40.0713749" lon="-105.229789">
  <ele>1583.0</ele>
  <time>2026-08-28T17:52:21Z</time>
  <course>0.0</course>
  <speed>0.0</speed>
  <fix>3d</fix>
</trkpt>
<trkpt lat="40.0713751" lon="-105.2297889">
  <ele>1583.0</ele>
  <time>2026-08-28T17:52:21Z</time>
  <course>247.1</course>
  <speed>0.022360679774997897</speed>
  <fix>3d</fix>
</trkpt>
<trkpt lat="40.0713749" lon="-105.229789">
  <ele>1583.0</ele>
  <time>2026-08-28T17:52:21Z</time>
  <course>0.0</course>
  <speed>0.0</speed>
  <fix>3d</fix>
</trkpt>
<trkpt lat="40.071375" lon="-105.2297889">
  <ele>1583.0</ele>
  <time>2026-08-28T17:52:21Z</time>
  <course>247.1</course>
  <speed>0.022360679774997897</speed>
  <fix>3d</fix>
</trkpt>
<trkpt lat="40.0713749" lon="-105.229789">
  <ele>1583.0</ele>
  <time>2026-08-28T17:52:21Z</time>
  <course>0.0</course>
  <speed>0.0</speed>
  <fix>3d</fix>
</trkpt>
<trkpt lat="40.0713751" lon="-105.2297889">
  <ele>1583.0</ele>
  <time>2026-08-28T17:52:21Z</time>
  <course>247.1</course>
  <speed>0.022360679774997897</speed>
  <fix>3d</fix>
</trkpt>
<trkpt lat="40.0713749" lon="-105.229789">
  <ele>1583.0</ele>
  <time>2026-08-28T17:52:21Z</time>
  <course>0.0</course>
  <speed>0.0</speed>
  <fix>3d</fix>
</trkpt>
<trkpt lat="40.0713751" lon="-105.2297889">
  <ele>1583.01</ele>
  <time>2026-08-28T17:52:21Z</time>
  <course>247.1</course>
  <speed>0.022360679774997897</speed>
  <fix>3d</fix>
</trkpt>
<trkpt lat="40.0713749" lon="-105.229789">
  <ele>1583.0</ele>
  <time>2026-08-28T17:52:21Z</time>
  <course>0.0</course>
  <speed>0.0</speed>
  <fix>3d</fix>
</trkpt>
<trkpt lat="40.0713751" lon="-105.2297889">
  <ele>1583.01</ele>
  <time>2026-08-28T17:52:21Z</time>
  <course>247.1</course>
  <speed>0.022360679774997897</speed>
  <fix>3d</fix>
</trkpt>
<trkpt lat="40.0713749" lon="-105.229789">
  <ele>1583.0</ele>
  <time>2026-08-28T17:52:21Z</time>
  <course>0.0</course>
  <speed>0.0</speed>
  <fix>3d</fix>
</trkpt>
<trkpt lat="40.0713751" lon="-105.2297889">
  <ele>1583.01</ele>
  <time>2026-08-28T17:52:21Z</time>
  <course>247.1</course>
  <speed>0.022360679774997897</speed>
  <fix>3d</fix>
</trkpt>
<trkpt lat="40.0713749" lon="-105.229789">
  <ele>1583.0</ele>
  <time>2026-08-28T17:52:21Z</time>
  <course>0.0</course>
  <speed>0.0</speed>
  <fix>3d</fix>
</trkpt>
<trkpt lat="40.0713751" lon="-105.2297889">
  <ele>1583.02</ele>
  <time>2026-08-28T17:52:21Z</time>
  <course>247.1</course>
  <speed>0.022360679774997897</speed>
  <fix>3d</fix>
</trkpt>
<trkpt lat="40.0713749" lon="-105.229789">
  <ele>1583.0</ele>
  <time>2026-08-28T17:52:21Z</time>
  <course>0.0</course>
  <speed>0.0</speed>
  <fix>3d</fix>
</trkpt>
<trkpt lat="40.0713751" lon="-105.2297889">
  <ele>1583.02</ele>
  <time>2026-08-28T17:52:21Z</time>
  <course>247.1</course>
  <speed>0.022360679774997897</speed>
  <fix>3d</fix>
</trkpt>
<trkpt lat="40.0713749" lon="-105.229789">
  <ele>1583.0</ele>
  <time>2026-08-28T17:52:21Z</time>
  <course>0.0</course>
  <speed>0.0</speed>
  <fix>3d</fix>
</trkpt>
<trkpt lat="40.0713751" lon="-105.2297889">
  <ele>1583.02</ele>
  <time>2026-08-28T17:52:21Z</time>
  <course>247.1</course>
  <speed>0.022360679774997897</speed>
  <fix>3d</fix>
</trkpt>
<trkpt lat="40.0713749" lon="-105.229789">
  <ele>1583.0</ele>
  <time>2026-08-28T17:52:21Z</time>
  <course>0.0</course>
  <speed>0.0</speed>
  <fix>3d</fix>
</trkpt>
<trkpt lat="40.071375" lon="-105.2297889">
  <ele>1583.02</ele>
  <time>2026-08-28T17:52:21Z</time>
  <course>247.1</course>
  <speed>0.022360679774997897</speed>
  <fix>3d</fix>
</trkpt>
<trkpt lat="40.0713749" lon="-105.229789">
  <ele>1583.0</ele>
  <time>2026-08-28T17:52:21Z</time>
  <course>0.0</course>
  <speed>0.0</speed>
  <fix>3d</fix>
</trkpt>
<trkpt lat="40.0713751" lon="-105.2297889">
  <ele>1583.02</ele>
  <time>2026-08-28T17:52:21Z</time>
  <course>247.1</course>
  <speed>0.022360679774997897</speed>
  <fix>3d</fix>
</trkpt>
<trkpt lat="40.0713749" lon="-105.229789">
  <ele>1583.0</ele>
  <time>2026-08-28T17:52:21Z</time>
  <course>0.0</course>
  <speed>0.0</speed>
  <fix>3d</fix>
</trkpt>
<trkpt lat="40.071375" lon="-105.2297889">
  <ele>1583.02</ele>
  <time>2026-08-28T17:52:21Z</time>
  <course>247.1</course>
  <speed>0.022360679774997897</speed>
  <fix>3d</fix>
</trkpt>
<trkpt lat="40.0713749" lon="-105.229789">
  <ele>1583.0</ele>
  <time>2026-08-28T17:52:21Z</time>
  <course>0.0</course>
  <speed>0.0</speed>
  <fix>3d</fix>
</trkpt>
<trkpt lat="40.0713751" lon="-105.2297889">
  <ele>1583.02</ele>
  <time>2026-08-28T17:52:21Z</time>
  <course>247.1</course>
  <speed>0.022360679774997897</speed>
  <fix>3d</fix>
</trkpt>
<trkpt lat="40.0713749" lon="-105.229789">
  <ele>1583.0</ele>
  <time>2026-08-28T17:52:21Z</time>
  <course>0.0</course>
  <speed>0.0</speed>
  <fix>3d</fix>
</trkpt>
<trkpt lat="40.071375" lon="-105.2297889">
  <ele>1583.01</ele>
  <time>2026-08-28T17:52:21Z</time>
  <course>247.1</course>
  <speed>0.022360679774997897</speed>
  <fix>3d</fix>
</trkpt>
<trkpt lat="40.0713749" lon="-105.229789">
  <ele>1583.0</ele>
  <time>2026-08-28T17:52:21Z</time>
  <course>0.0</course>
  <speed>0.0</speed>
  <fix>3d</fix>
</trkpt>
<trkpt lat="40.0713751" lon="-105.2297889">
  <ele>1583.01</ele>
  <time>2026-08-28T17:52:21Z</time>
  <course>247.1</course>
  <speed>0.022360679774997897</speed>
  <fix>3d</fix>
</trkpt>
<trkpt lat="40.0713749" lon="-105.229789">
  <ele>1583.0</ele>
  <time>2026-08-28T17:52:21Z</time>
  <course>0.0</course>
  <speed>0.0</speed>
  <fix>3d</fix>
</trkpt>
<trkpt lat="40.071375" lon="-105.2297889">
  <ele>1583.01</ele>
  <time>2026-08-28T17:52:21Z</time>
  <course>247.1</course>
  <speed>0.022360679774997897</speed>
  <fix>3d</fix>
</trkpt>
<trkpt lat="40.0713749" lon="-105.229789">
  <ele>1583.0</ele>
  <time>2026-08-28T17:52:21Z</time>
  <course>0.0</course>
  <speed>0.0</speed>
  <fix>3d</fix>
</trkpt>
<trkpt lat="40.0713751" lon="-105.2297889">
  <ele>1583.0</ele>
  <time>2026-08-28T17:52:21Z</time>
  <course>247.1</course>
  <speed>0.022360679774997897</speed>
  <fix>3d</fix>
</trkpt>
<trkpt lat="40.0713749" lon="-105.229789">
  <ele>1583.0</ele>
  <time>2026-08-28T17:52:21Z</time>
  <course>0.0</course>
  <speed>0.0</speed>
  <fix>3d</fix>
</trkpt>
<trkpt lat="40.071375" lon="-105.2297889">
  <ele>1583.0</ele>
  <time>2026-08-28T17:52:21Z</time>
  <course>247.1</course>
  <speed>0.022360679774997897</speed>
  <fix>3d</fix>
</trkpt>
<trkpt lat="40.0713749" lon="-105.229789">
  <ele>1583.0</ele>
  <time>2026-08-28T17:52:21Z</time>
  <course>0.0</course>
  <speed>0.0</speed>
  <fix>3d</fix>
</trkpt>
<trkpt lat="40.0713751" lon="-105.2297889">
  <ele>1583.0</ele>
  <time>2026-08-28T17:52:21Z</time>
  <course>247.1</course>
  <speed>0.022360679774997897</speed>
  <fix>3d</fix>
</trkpt>
<trkpt lat="40.0713749" lon="-105.229789">
  <ele>1583.0</ele>
  <time>2026-08-28T17:52:21Z</time>
  <course>0.0</course>
  <speed>0.0</speed>
  <fix>3d</fix>
</trkpt>
<trkpt lat="40.071375" lon="-105.2297889">
  <ele>1583.0</ele>
  <time>2026-08-28T17:52:21Z</time>
  <course>247.1</course>
  <speed>0.022360679774997897</speed>
  <fix>3d</fix>
</trkpt>
<trkpt lat="40.0713749" lon="-105.229789">
  <ele>1583.0</ele>
  <time>2026-08-28T17:52:21Z</time>
  <course>0.0</course>
  <speed>0.0</speed>
  <fix>3d</fix>
</trkpt>
<trkpt lat="40.0713751" lon="-105.2297889">
  <ele>1583.0</ele>
  <time>2026-08-28T17:52:21Z</time>
  <course>247.1</course>
  <speed>0.022360679774997897</speed>
  <fix>3d</fix>
</trkpt>
<trkpt lat="40.0713749" lon="-105.229789">
  <ele>1583.0</ele>
  <time>2026-08-28T17:52:21Z</time>
  <course>0.0</course>
  <speed>0.0</speed>
  <fix>3d</fix>
</trkpt>
<trkpt lat="40.071375" lon="-105.2297889">
  <ele>1583.0</ele>
  <time>2026-08-28T17:52:21Z</time>
  <course>247.1</course>
  <speed>0.022360679774997897</speed>
  <fix>3d</fix>
</trkpt>
<trkpt lat="40.0713749" lon="-105.229789">
  <ele>1583.0</ele>
  <time>2026-08-28T17:52:21Z</time>
  <course>0.0</course>
  <speed>0.0</speed>
  <fix>3d</fix>
</trkpt>
<trkpt lat="40.0713751" lon="-105.2297889">
  <ele>1582.99</ele>
  <time>2026-08-28T17:52:21Z</time>
  <course>247.1</course>
  <speed>0.022360679774997897</speed>
  <fix>3d</fix>
</trkpt>
<trkpt lat="40.0713749" lon="-105.229789">
  <ele>1583.0</ele>
  <time>2026-08-28T17:52:21Z</time>
  <course>0.0</course>
  <speed>0.0</speed>
  <fix>3d</fix>
</trkpt>
<trkpt lat="40.0713751" lon="-105.2297889">
  <ele>1582.99</ele>
  <time>2026-08-28T17:52:21Z</time>
  <course>247.1</course>
  <speed>0.022360679774997897</speed>
  <fix>3d</fix>
</trkpt>
<trkpt lat="40.0713749" lon="-105.229789">
  <ele>1583.0</ele>
  <time>2026-08-28T17:52:21Z</time>
  <course>0.0</course>
  <speed>0.0</speed>
  <fix>3d</fix>
</trkpt>
<trkpt lat="40.0713751" lon="-105.2297889">
  <ele>1582.98</ele>
  <time>2026-08-28T17:52:21Z</time>
  <course>247.1</course>
  <speed>0.022360679774997897</speed>
  <fix>3d</fix>
</trkpt>
<trkpt lat="40.0713749" lon="-105.229789">
  <ele>1583.0</ele>
  <time>2026-08-28T17:52:21Z</time>
  <course>0.0</course>
  <speed>0.0</speed>
  <fix>3d</fix>
</trkpt>
<trkpt lat="40.0713751" lon="-105.2297889">
  <ele>1582.98</ele>
  <time>2026-08-28T17:52:21Z</time>
  <course>247.1</course>
  <speed>0.022360679774997897</speed>
  <fix>3d</fix>
</trkpt>
<trkpt lat="40.0713749" lon="-105.229789">
  <ele>1583.0</ele>
  <time>2026-08-28T17:52:21Z</time>
  <course>0.0</course>
  <speed>0.0</speed>
  <fix>3d</fix>
</trkpt>
<trkpt lat="40.0713751" lon="-105.2297889">
  <ele>1582.97</ele>
  <time>2026-08-28T17:52:21Z</time>
  <course>247.1</course>
  <speed>0.022360679774997897</speed>
  <fix>3d</fix>
</trkpt>
<trkpt lat="40.0713749" lon="-105.229789">
  <ele>1583.0</ele>
  <time>2026-08-28T17:52:21Z</time>
  <course>0.0</course>
  <speed>0.0</speed>
  <fix>3d</fix>
</trkpt>
<trkpt lat="40.0713751" lon="-105.2297889">
  <ele>1582.97</ele>
  <time>2026-08-28T17:52:21Z</time>
  <course>247.1</course>
  <speed>0.022360679774997897</speed>
  <fix>3d</fix>
</trkpt>
<trkpt lat="40.0713749" lon="-105.229789">
  <ele>1583.0</ele>
  <time>2026-08-28T17:52:21Z</time>
  <course>0.0</course>
  <speed>0.0</speed>
  <fix>3d</fix>
</trkpt>
<trkpt lat="40.0713751" lon="-105.2297889">
  <ele>1582.96</ele>
  <time>2026-08-28T17:52:21Z</time>
  <course>247.1</course>
  <speed>0.022360679774997897</speed>
  <fix>3d</fix>
</trkpt>
<trkpt lat="40.0713749" lon="-105.229789">
  <ele>1583.0</ele>
  <time>2026-08-28T17:52:21Z</time>
  <course>0.0</course>
  <speed>0.0</speed>
  <fix>3d</fix>
</trkpt>
<trkpt lat="40.0713751" lon="-105.2297889">
  <ele>1582.96</ele>
  <time>2026-08-28T17:52:21Z</time>
  <course>247.1</course>
  <speed>0.022360679774997897</speed>
  <fix>3d</fix>
</trkpt>
<trkpt lat="40.0713749" lon="-105.229789">
  <ele>1583.0</ele>
  <time>2026-08-28T17:52:21Z</time>
  <course>0.0</course>
  <speed>0.0</speed>
  <fix>3d</fix>
</trkpt>
<trkpt lat="40.0713751" lon="-105.2297889">
  <ele>1582.95</ele>
  <time>2026-08-28T17:52:21Z</time>
  <course>247.1</course>
  <speed>0.022360679774997897</speed>
  <fix>3d</fix>
</trkpt>
<trkpt lat="40.0713749" lon="-105.229789">
  <ele>1583.0</ele>
  <time>2026-08-28T17:52:21Z</time>
  <course>0.0</course>
  <speed>0.0</speed>
  <fix>3d</fix>
</trkpt>
<trkpt lat="40.071375" lon="-105.2297889">
  <ele>1582.95</ele>
  <time>2026-08-28T17:52:21Z</time>
  <course>247.1</course>
  <speed>0.022360679774997897</speed>
  <fix>3d</fix>
</trkpt>
<trkpt lat="40.0713749" lon="-105.229789">
  <ele>1583.0</ele>
  <time>2026-08-28T17:52:21Z</time>
  <course>0.0</course>
  <speed>0.0</speed>
  <fix>3d</fix>
</trkpt>
<trkpt lat="40.0713751" lon="-105.2297889">
  <ele>1582.94</ele>
  <time>2026-08-28T17:52:21Z</time>
  <course>247.1</course>
  <speed>0.022360679774997897</speed>
  <fix>3d</fix>
</trkpt>
<trkpt lat="40.0713749" lon="-105.229789">
  <ele>1583.0</ele>
  <time>2026-08-28T17:52:21Z</time>
  <course>0.0</course>
  <speed>0.0</speed>
  <fix>3d</fix>
</trkpt>
<trkpt lat="40.071375" lon="-105.2297889">
  <ele>1582.94</ele>
  <time>2026-08-28T17:52:21Z</time>
  <course>247.1</course>
  <speed>0.022360679774997897</speed>
  <fix>3d</fix>
</trkpt>
<trkpt lat="40.0713749" lon="-105.229789">
  <ele>1583.0</ele>
  <time>2026-08-28T17:52:21Z</time>
  <course>0.0</course>
  <speed>0.0</speed>
  <fix>3d</fix>
</trkpt>
<trkpt lat="40.0713751" lon="-105.2297889">
  <ele>1582.94</ele>
  <time>2026-08-28T17:52:21Z</time>
  <course>247.1</course>
  <speed>0.022360679774997897</speed>
  <fix>3d</fix>
</trkpt>
<trkpt lat="40.0713749" lon="-105.229789">
  <ele>1583.0</ele>
  <time>2026-08-28T17:52:21Z</time>
  <course>0.0</course>
  <speed>0.0</speed>
  <fix>3d</fix>
</trkpt>
<trkpt lat="40.071375" lon="-105.2297889">
  <ele>1582.93</ele>
  <time>2026-08-28T17:52:21Z</time>
  <course>247.1</course>
  <speed>0.022360679774997897</speed>
  <fix>3d</fix>
</trkpt>
<trkpt lat="40.0713749" lon="-105.229789">
  <ele>1583.0</ele>
  <time>2026-08-28T17:52:21Z</time>
  <course>0.0</course>
  <speed>0.0</speed>
  <fix>3d</fix>
</trkpt>
<trkpt lat="40.0713751" lon="-105.2297889">
  <ele>1582.93</ele>
  <time>2026-08-28T17:52:21Z</time>
  <course>247.1</course>
  <speed>0.022360679774997897</speed>
  <fix>3d</fix>
</trkpt>
<trkpt lat="40.0713749" lon="-105.229789">
  <ele>1583.0</ele>
  <time>2026-08-28T17:52:21Z</time>
  <course>0.0</course>
  <speed>0.0</speed>
  <fix>3d</fix>
</trkpt>
<trkpt lat="40.071375" lon="-105.2297889">
  <ele>1582.92</ele>
  <time>2026-08-28T17:52:21Z</time>
  <course>247.1</course>
  <speed>0.022360679774997897</speed>
  <fix>3d</fix>
</trkpt>
<trkpt lat="40.0713749" lon="-105.229789">
  <ele>1583.0</ele>
  <time>2026-08-28T17:52:21Z</time>
  <course>0.0</course>
  <speed>0.0</speed>
  <fix>3d</fix>
</trkpt>
<trkpt lat="40.0713751" lon="-105.2297889">
  <ele>1582.92</ele>
  <time>2026-08-28T17:52:21Z</time>
  <course>247.1</course>
  <speed>0.022360679774997897</speed>
  <fix>3d</fix>
</trkpt>
<trkpt lat="40.0713749" lon="-105.229789">
  <ele>1583.0</ele>
  <time>2026-08-28T17:52:21Z</time>
  <course>0.0</course>
  <speed>0.0</speed>
  <fix>3d</fix>
</trkpt>
<trkpt lat="40.071375" lon="-105.2297889">
  <ele>1582.92</ele>
  <time>2026-08-28T17:52:21Z</time>
  <course>247.1</course>
  <speed>0.022360679774997897</speed>
  <fix>3d</fix>
</trkpt>
<trkpt lat="40.0713749" lon="-105.229789">
  <ele>1583.0</ele>
  <time>2026-08-28T17:52:21Z</time>
  <course>0.0</course>
  <speed>0.0</speed>
  <fix>3d</fix>
</trkpt>
<trkpt lat="40.0713751" lon="-105.2297889">
  <ele>1582.91</ele>
  <time>2026-08-28T17:52:21Z</time>
  <course>247.1</course>
  <speed>0.022360679774997897</speed>
  <fix>3d</fix>
</trkpt>
<trkpt lat="40.0713749" lon="-105.229789">
  <ele>1583.0</ele>
  <time>2026-08-28T17:52:21Z</time>
  <course>0.0</course>
  <speed>0.0</speed>
  <fix>3d</fix>
</trkpt>
<trkpt lat="40.071375" lon="-105.2297889">
  <ele>1582.91</ele>
  <time>2026-08-28T17:52:21Z</time>
  <course>247.1</course>
  <speed>0.022360679774997897</speed>
  <fix>3d</fix>
</trkpt>
<trkpt lat="40.0713749" lon="-105.229789">
  <ele>1583.0</ele>
  <time>2026-08-28T17:52:21Z</time>
  <course>0.0</course>
  <speed>0.0</speed>
  <fix>3d</fix>
</trkpt>
<trkpt lat="40.0713751" lon="-105.2297889">
  <ele>1582.91</ele>
  <time>2026-08-28T17:52:21Z</time>
  <course>247.1</course>
  <speed>0.022360679774997897</speed>
  <fix>3d</fix>
</trkpt>
<trkpt lat="40.0713749" lon="-105.229789">
  <ele>1583.0</ele>
  <time>2026-08-28T17:52:21Z</time>
  <course>0.0</course>
  <speed>0.0</speed>
  <fix>3d</fix>
</trkpt>
<trkpt lat="40.071375" lon="-105.2297889">
  <ele>1582.91</ele>
  <time>2026-08-28T17:52:21Z</time>
  <course>247.1</course>
  <speed>0.022360679774997897</speed>
  <fix>3d</fix>
</trkpt>
<trkpt lat="40.0713749" lon="-105.229789">
  <ele>1583.0</ele>
  <time>2026-08-28T17:52:21Z</time>
  <course>0.0</course>
  <speed>0.0</speed>
  <fix>3d</fix>
</trkpt>
<trkpt lat="40.0713751" lon="-105.2297889">
  <ele>1582.91</ele>
  <time>2026-08-28T17:52:21Z</time>
  <course>247.1</course>
  <speed>0.022360679774997897</speed>
  <fix>3d</fix>
</trkpt>
<trkpt lat="40.0713749" lon="-105.229789">
  <ele>1583.0</ele>
  <time>2026-08-28T17:52:21Z</time>
  <course>0.0</course>
  <speed>0.0</speed>
  <fix>3d</fix>
</trkpt>
<trkpt lat="40.0713751" lon="-105.2297889">
  <ele>1582.91</ele>
  <time>2026-08-28T17:52:21Z</time>
  <course>247.1</course>
  <speed>0.022360679774997897</speed>
  <fix>3d</fix>
</trkpt>
<trkpt lat="40.0713749" lon="-105.229789">
  <ele>1583.0</ele>
  <time>2026-08-28T17:52:21Z</time>
  <course>0.0</course>
  <speed>0.0</speed>
  <fix>3d</fix>
</trkpt>
<trkpt lat="40.0713751" lon="-105.2297889">
  <ele>1582.92</ele>
  <time>2026-08-28T17:52:21Z</time>
  <course>247.1</course>
  <speed>0.022360679774997897</speed>
  <fix>3d</fix>
</trkpt>
<trkpt lat="40.0713749" lon="-105.229789">
  <ele>1583.0</ele>
  <time>2026-08-28T17:52:21Z</time>
  <course>0.0</course>
  <speed>0.0</speed>
  <fix>3d</fix>
</trkpt>
<trkpt lat="40.0713751" lon="-105.2297889">
  <ele>1582.92</ele>
  <time>2026-08-28T17:52:21Z</time>
  <course>247.1</course>
  <speed>0.022360679774997897</speed>
  <fix>3d</fix>
</trkpt>
<trkpt lat="40.0713749" lon="-105.229789">
  <ele>1583.0</ele>
  <time>2026-08-28T17:52:21Z</time>
  <course>0.0</course>
  <speed>0.0</speed>
  <fix>3d</fix>
</trkpt>
<trkpt lat="40.0713751" lon="-105.2297889">
  <ele>1582.93</ele>
  <time>2026-08-28T17:52:21Z</time>
  <course>247.1</course>
  <speed>0.022360679774997897</speed>
  <fix>3d</fix>
</trkpt>
<trkpt lat="40.0713749" lon="-105.229789">
  <ele>1583.0</ele>
  <time>2026-08-28T17:52:21Z</time>
  <course>0.0</course>
  <speed>0.0</speed>
  <fix>3d</fix>
</trkpt>
<trkpt lat="40.0713751" lon="-105.2297889">
  <ele>1582.93</ele>
  <time>2026-08-28T17:52:21Z</time>
  <course>247.1</course>
  <speed>0.022360679774997897</speed>
  <fix>3d</fix>
</trkpt>
<trkpt lat="40.0713749" lon="-105.229789">
  <ele>1583.0</ele>
  <time>2026-08-28T17:52:21Z</time>
  <course>0.0</course>
  <speed>0.0</speed>
  <fix>3d</fix>
</trkpt>
<trkpt lat="40.0713751" lon="-105.2297889">
  <ele>1582.94</ele>
  <time>2026-08-28T17:52:21Z</time>
  <course>247.1</course>
  <speed>0.022360679774997897</speed>
  <fix>3d</fix>
</trkpt>
<trkpt lat="40.0713749" lon="-105.229789">
  <ele>1583.0</ele>
  <time>2026-08-28T17:52:21Z</time>
  <course>0.0</course>
  <speed>0.0</speed>
  <fix>3d</fix>
</trkpt>
<trkpt lat="40.071375" lon="-105.2297889">
  <ele>1582.94</ele>
  <time>2026-08-28T17:52:21Z</time>
  <course>247.1</course>
  <speed>0.022360679774997897</speed>
  <fix>3d</fix>
</trkpt>
<trkpt lat="40.0713749" lon="-105.229789">
  <ele>1583.0</ele>
  <time>2026-08-28T17:52:21Z</time>
  <course>0.0</course>
  <speed>0.0</speed>
  <fix>3d</fix>
</trkpt>
<trkpt lat="40.0713751" lon="-105.2297889">
  <ele>1582.94</ele>
  <time>2026-08-28T17:52:21Z</time>
  <course>247.1</course>
  <speed>0.022360679774997897</speed>
  <fix>3d</fix>
</trkpt>
<trkpt lat="40.0713749" lon="-105.229789">
  <ele>1583.0</ele>
  <time>2026-08-28T17:52:21Z</time>
  <course>0.0</course>
  <speed>0.0</speed>
  <fix>3d</fix>
</trkpt>
<trkpt lat="40.071375" lon="-105.2297889">
  <ele>1582.94</ele>
  <time>2026-08-28T17:52:21Z</time>
  <course>247.1</course>
  <speed>0.022360679774997897</speed>
  <fix>3d</fix>
</trkpt>
<trkpt lat="40.0713749" lon="-105.229789">
  <ele>1583.0</ele>
  <time>2026-08-28T17:52:21Z</time>
  <course>0.0</course>
  <speed>0.0</speed>
  <fix>3d</fix>
</trkpt>
<trkpt lat="40.0713751" lon="-105.2297889">
  <ele>1582.94</ele>
  <time>2026-08-28T17:52:21Z</time>
  <course>247.1</course>
  <speed>0.022360679774997897</speed>
  <fix>3d</fix>
</trkpt>
<trkpt lat="40.0713749" lon="-105.229789">
  <ele>1583.0</ele>
  <time>2026-08-28T17:52:21Z</time>
  <course>0.0</course>
  <speed>0.0</speed>
  <fix>3d</fix>
</trkpt>
<trkpt lat="40.071375" lon="-105.2297889">
  <ele>1582.94</ele>
  <time>2026-08-28T17:52:21Z</time>
  <course>247.1</course>
  <speed>0.022360679774997897</speed>
  <fix>3d</fix>
</trkpt>
<trkpt lat="40.0713749" lon="-105.229789">
  <ele>1583.0</ele>
  <time>2026-08-28T17:52:21Z</time>
  <course>0.0</course>
  <speed>0.0</speed>
  <fix>3d</fix>
</trkpt>
<trkpt lat="40.0713751" lon="-105.2297889">
  <ele>1582.93</ele>
  <time>2026-08-28T17:52:21Z</time>
  <course>247.1</course>
  <speed>0.022360679774997897</speed>
  <fix>3d</fix>
</trkpt>
<trkpt lat="40.0713749" lon="-105.229789">
  <ele>1583.0</ele>
  <time>2026-08-28T17:52:21Z</time>
  <course>0.0</course>
  <speed>0.0</speed>
  <fix>3d</fix>
</trkpt>
<trkpt lat="40.071375" lon="-105.2297889">
  <ele>1582.93</ele>
  <time>2026-08-28T17:52:21Z</time>
  <course>247.1</course>
  <speed>0.022360679774997897</speed>
  <fix>3d</fix>
</trkpt>
<trkpt lat="40.0713749" lon="-105.229789">
  <ele>1583.0</ele>
  <time>2026-08-28T17:52:21Z</time>
  <course>0.0</course>
  <speed>0.0</speed>
  <fix>3d</fix>
</trkpt>
<trkpt lat="40.0713751" lon="-105.2297889">
  <ele>1582.93</ele>
  <time>2026-08-28T17:52:21Z</time>
  <course>247.1</course>
  <speed>0.022360679774997897</speed>
  <fix>3d</fix>
</trkpt>
<trkpt lat="40.0713749" lon="-105.229789">
  <ele>1583.0</ele>
  <time>2026-08-28T17:52:21Z</time>
  <course>0.0</course>
  <speed>0.0</speed>
  <fix>3d</fix>
</trkpt>
<trkpt lat="40.071375" lon="-105.2297889">
  <ele>1582.93</ele>
  <time>2026-08-28T17:52:21Z</time>
  <course>247.1</course>
  <speed>0.022360679774997897</speed>
  <fix>3d</fix>
</trkpt>
<trkpt lat="40.0713749" lon="-105.229789">
  <ele>1583.0</ele>
  <time>2026-08-28T17:52:21Z</time>
  <course>0.0</course>
  <speed>0.0</speed>
  <fix>3d</fix>
</trkpt>
<trkpt lat="40.071375" lon="-105.2297889">
  <ele>1582.92</ele>
  <time>2026-08-28T17:52:21Z</time>
  <course>247.1</course>
  <speed>0.022360679774997897</speed>
  <fix>3d</fix>
</trkpt>
<trkpt lat="40.0713749" lon="-105.229789">
  <ele>1583.0</ele>
  <time>2026-08-28T17:52:21Z</time>
  <course>0.0</course>
  <speed>0.0</speed>
  <fix>3d</fix>
</trkpt>
<trkpt lat="40.071375" lon="-105.2297889">
  <ele>1582.92</ele>
  <time>2026-08-28T17:52:21Z</time>
  <course>247.1</course>
  <speed>0.022360679774997897</speed>
  <fix>3d</fix>
</trkpt>
<trkpt lat="40.0713749" lon="-105.229789">
  <ele>1583.0</ele>
  <time>2026-08-28T17:52:21Z</time>
  <course>0.0</course>
  <speed>0.0</speed>
  <fix>3d</fix>
</trkpt>
<trkpt lat="40.071375" lon="-105.2297889">
  <ele>1582.92</ele>
  <time>2026-08-28T17:52:21Z</time>
  <course>247.1</course>
  <speed>0.022360679774997897</speed>
  <fix>3d</fix>
</trkpt>
<trkpt lat="40.0713749" lon="-105.229789">
  <ele>1583.0</ele>
  <time>2026-08-28T17:52:21Z</time>
  <course>0.0</course>
  <speed>0.0</speed>
  <fix>3d</fix>
</trkpt>
<trkpt lat="40.071375" lon="-105.2297889">
  <ele>1582.91</ele>
  <time>2026-08-28T17:52:21Z</time>
  <course>247.1</course>
  <speed>0.022360679774997897</speed>
  <fix>3d</fix>
</trkpt>
<trkpt lat="40.0713749" lon="-105.229789">
  <ele>1583.0</ele>
  <time>2026-08-28T17:52:21Z</time>
  <course>0.0</course>
  <speed>0.0</speed>
  <fix>3d</fix>
</trkpt>
<trkpt lat="40.0713751" lon="-105.2297889">
  <ele>1582.91</ele>
  <time>2026-08-28T17:52:21Z</time>
  <course>247.1</course>
  <speed>0.022360679774997897</speed>
  <fix>3d</fix>
</trkpt>
<trkpt lat="40.0713749" lon="-105.229789">
  <ele>1583.0</ele>
  <time>2026-08-28T17:52:21Z</time>
  <course>0.0</course>
  <speed>0.0</speed>
  <fix>3d</fix>
</trkpt>
<trkpt lat="40.071375" lon="-105.2297889">
  <ele>1582.9</ele>
  <time>2026-08-28T17:52:21Z</time>
  <course>247.09</course>
  <speed>0.022360679774997897</speed>
  <fix>3d</fix>
</trkpt>
<trkpt lat="40.0713749" lon="-105.229789">
  <ele>1583.0</ele>
  <time>2026-08-28T17:52:21Z</time>
  <course>0.0</course>
  <speed>0.0</speed>
  <fix>3d</fix>
</trkpt>
<trkpt lat="40.0713751" lon="-105.2297889">
  <ele>1582.89</ele>
  <time>2026-08-28T17:52:21Z</time>
  <course>247.09</course>
  <speed>0.022360679774997897</speed>
  <fix>3d</fix>
</trkpt>
<trkpt lat="40.0713749" lon="-105.229789">
  <ele>1583.0</ele>
  <time>2026-08-28T17:52:21Z</time>
  <course>0.0</course>
  <speed>0.0</speed>
  <fix>3d</fix>
</trkpt>
<trkpt lat="40.071375" lon="-105.2297889">
  <ele>1582.89</ele>
  <time>2026-08-28T17:52:21Z</time>
  <course>247.09</course>
  <speed>0.022360679774997897</speed>
  <fix>3d</fix>
</trkpt>
<trkpt lat="40.0713749" lon="-105.229789">
  <ele>1583.0</ele>
  <time>2026-08-28T17:52:21Z</time>
  <course>0.0</course>
  <speed>0.0</speed>
  <fix>3d</fix>
</trkpt>
<trkpt lat="40.0713751" lon="-105.2297889">
  <ele>1582.88</ele>
  <time>2026-08-28T17:52:21Z</time>
  <course>247.09</course>
  <speed>0.022360679774997897</speed>
  <fix>3d</fix>
</trkpt>
<trkpt lat="40.0713749" lon="-105.229789">
  <ele>1583.0</ele>
  <time>2026-08-28T17:52:21Z</time>
  <course>0.0</course>
  <speed>0.0</speed>
  <fix>3d</fix>
</trkpt>
<trkpt lat="40.071375" lon="-105.2297889">
  <ele>1582.88</ele>
  <time>2026-08-28T17:52:21Z</time>
  <course>247.09</course>
  <speed>0.022360679774997897</speed>
  <fix>3d</fix>
</trkpt>
<trkpt lat="40.0713749" lon="-105.229789">
  <ele>1583.0</ele>
  <time>2026-08-28T17:52:21Z</time>
  <course>0.0</course>
  <speed>0.0</speed>
  <fix>3d</fix>
</trkpt>
<trkpt lat="40.0713751" lon="-105.2297889">
  <ele>1582.87</ele>
  <time>2026-08-28T17:52:21Z</time>
  <course>247.09</course>
  <speed>0.022360679774997897</speed>
  <fix>3d</fix>
</trkpt>
<trkpt lat="40.0713749" lon="-105.229789">
  <ele>1583.0</ele>
  <time>2026-08-28T17:52:21Z</time>
  <course>0.0</course>
  <speed>0.0</speed>
  <fix>3d</fix>
</trkpt>
<trkpt lat="40.071375" lon="-105.2297889">
  <ele>1582.87</ele>
  <time>2026-08-28T17:52:21Z</time>
  <course>247.09</course>
  <speed>0.022360679774997897</speed>
  <fix>3d</fix>
</trkpt>
<trkpt lat="40.0713749" lon="-105.229789">
  <ele>1583.0</ele>
  <time>2026-08-28T17:52:21Z</time>
  <course>0.0</course>
  <speed>0.0</speed>
  <fix>3d</fix>
</trkpt>
<trkpt lat="40.0713751" lon="-105.2297889">
  <ele>1582.87</ele>
  <time>2026-08-28T17:52:21Z</time>
  <course>247.09</course>
  <speed>0.022360679774997897</speed>
  <fix>3d</fix>
</trkpt>
<trkpt lat="40.0713749" lon="-105.229789">
  <ele>1583.0</ele>
  <time>2026-08-28T17:52:21Z</time>
  <course>0.0</course>
  <speed>0.0</speed>
  <fix>3d</fix>
</trkpt>
<trkpt lat="40.071375" lon="-105.2297889">
  <ele>1582.87</ele>
  <time>2026-08-28T17:52:21Z</time>
  <course>247.09</course>
  <speed>0.022360679774997897</speed>
  <fix>3d</fix>
</trkpt>
<trkpt lat="40.0713749" lon="-105.229789">
  <ele>1583.0</ele>
  <time>2026-08-28T17:52:21Z</time>
  <course>0.0</course>
  <speed>0.0</speed>
  <fix>3d</fix>
</trkpt>
<trkpt lat="40.0713751" lon="-105.2297889">
  <ele>1582.88</ele>
  <time>2026-08-28T17:52:21Z</time>
  <course>247.09</course>
  <speed>0.022360679774997897</speed>
  <fix>3d</fix>
</trkpt>
<trkpt lat="40.0713749" lon="-105.229789">
  <ele>1583.0</ele>
  <time>2026-08-28T17:52:21Z</time>
  <course>0.0</course>
  <speed>0.0</speed>
  <fix>3d</fix>
</trkpt>
<trkpt lat="40.071375" lon="-105.2297889">
  <ele>1582.88</ele>
  <time>2026-08-28T17:52:21Z</time>
  <course>247.09</course>
  <speed>0.022360679774997897</speed>
  <fix>3d</fix>
</trkpt>
<trkpt lat="40.0713749" lon="-105.229789">
  <ele>1583.0</ele>
  <time>2026-08-28T17:52:21Z</time>
  <course>0.0</course>
  <speed>0.0</speed>
  <fix>3d</fix>
</trkpt>
<trkpt lat="40.071375" lon="-105.2297889">
  <ele>1582.89</ele>
  <time>2026-08-28T17:52:21Z</time>
  <course>247.09</course>
  <speed>0.022360679774997897</speed>
  <fix>3d</fix>
</trkpt>
<trkpt lat="40.0713749" lon="-105.229789">
  <ele>1583.0</ele>
  <time>2026-08-28T17:52:21Z</time>
  <course>0.0</course>
  <speed>0.0</speed>
  <fix>3d</fix>
</trkpt>
<trkpt lat="40.071375" lon="-105.2297889">
  <ele>1582.89</ele>
  <time>2026-08-28T17:52:21Z</time>
  <course>247.09</course>
  <speed>0.022360679774997897</speed>
  <fix>3d</fix>
</trkpt>
<trkpt lat="40.0713749" lon="-105.229789">
  <ele>1583.0</ele>
  <time>2026-08-28T17:52:21Z</time>
  <course>0.0</course>
  <speed>0.0</speed>
  <fix>3d</fix>
</trkpt>
<trkpt lat="40.071375" lon="-105.2297889">
  <ele>1582.89</ele>
  <time>2026-08-28T17:52:21Z</time>
  <course>247.09</course>
  <speed>0.022360679774997897</speed>
  <fix>3d</fix>
</trkpt>
<trkpt lat="40.0713749" lon="-105.229789">
  <ele>1583.0</ele>
  <time>2026-08-28T17:52:21Z</time>
  <course>0.0</course>
  <speed>0.0</speed>
  <fix>3d</fix>
</trkpt>
<trkpt lat="40.071375" lon="-105.2297889">
  <ele>1582.9</ele>
  <time>2026-08-28T17:52:21Z</time>
  <course>247.09</course>
  <speed>0.022360679774997897</speed>
  <fix>3d</fix>
</trkpt>
<trkpt lat="40.0713749" lon="-105.229789">
  <ele>1583.0</ele>
  <time>2026-08-28T17:52:21Z</time>
  <course>0.0</course>
  <speed>0.0</speed>
  <fix>3d</fix>
</trkpt>
<trkpt lat="40.071375" lon="-105.2297889">
  <ele>1582.91</ele>
  <time>2026-08-28T17:52:21Z</time>
  <course>247.09</course>
  <speed>0.022360679774997897</speed>
  <fix>3d</fix>
</trkpt>
<trkpt lat="40.0713749" lon="-105.229789">
  <ele>1583.0</ele>
  <time>2026-08-28T17:52:21Z</time>
  <course>0.0</course>
  <speed>0.0</speed>
  <fix>3d</fix>
</trkpt>
<trkpt lat="40.071375" lon="-105.2297889">
  <ele>1582.92</ele>
  <time>2026-08-28T17:52:21Z</time>
  <course>247.09</course>
  <speed>0.022360679774997897</speed>
  <fix>3d</fix>
</trkpt>
<trkpt lat="40.0713749" lon="-105.229789">
  <ele>1583.0</ele>
  <time>2026-08-28T17:52:21Z</time>
  <course>0.0</course>
  <speed>0.0</speed>
  <fix>3d</fix>
</trkpt>
<trkpt lat="40.071375" lon="-105.2297889">
  <ele>1582.92</ele>
  <time>2026-08-28T17:52:21Z</time>
  <course>247.09</course>
  <speed>0.022360679774997897</speed>
  <fix>3d</fix>
</trkpt>
<trkpt lat="40.0713749" lon="-105.229789">
  <ele>1583.0</ele>
  <time>2026-08-28T17:52:21Z</time>
  <course>0.0</course>
  <speed>0.0</speed>
  <fix>3d</fix>
</trkpt>
<trkpt lat="40.071375" lon="-105.2297889">
  <ele>1582.93</ele>
  <time>2026-08-28T17:52:21Z</time>
  <course>247.09</course>
  <speed>0.022360679774997897</speed>
  <fix>3d</fix>
</trkpt>
<trkpt lat="40.0713749" lon="-105.229789">
  <ele>1583.0</ele>
  <time>2026-08-28T17:52:21Z</time>
  <course>0.0</course>
  <speed>0.0</speed>
  <fix>3d</fix>
</trkpt>
<trkpt lat="40.071375" lon="-105.2297889">
  <ele>1582.94</ele>
  <time>2026-08-28T17:52:21Z</time>
  <course>247.09</course>
  <speed>0.022360679774997897</speed>
  <fix>3d</fix>
</trkpt>
<trkpt lat="40.0713749" lon="-105.229789">
  <ele>1583.0</ele>
  <time>2026-08-28T17:52:21Z</time>
  <course>0.0</course>
  <speed>0.0</speed>
  <fix>3d</fix>
</trkpt>
<trkpt lat="40.071375" lon="-105.2297889">
  <ele>1582.95</ele>
  <time>2026-08-28T17:52:21Z</time>
  <course>247.09</course>
  <speed>0.022360679774997897</speed>
  <fix>3d</fix>
</trkpt>
<trkpt lat="40.0713749" lon="-105.229789">
  <ele>1583.0</ele>
  <time>2026-08-28T17:52:21Z</time>
  <course>0.0</course>
  <speed>0.0</speed>
  <fix>3d</fix>
</trkpt>
<trkpt lat="40.0713751" lon="-105.2297889">
  <ele>1582.96</ele>
  <time>2026-08-28T17:52:21Z</time>
  <course>247.09</course>
  <speed>0.022360679774997897</speed>
  <fix>3d</fix>
</trkpt>
<trkpt lat="40.0713749" lon="-105.229789">
  <ele>1583.0</ele>
  <time>2026-08-28T17:52:21Z</time>
  <course>0.0</course>
  <speed>0.0</speed>
  <fix>3d</fix>
</trkpt>
<trkpt lat="40.071375" lon="-105.2297889">
  <ele>1582.96</ele>
  <time>2026-08-28T17:52:21Z</time>
  <course>247.09</course>
  <speed>0.022360679774997897</speed>
  <fix>3d</fix>
</trkpt>
<trkpt lat="40.0713749" lon="-105.229789">
  <ele>1583.0</ele>
  <time>2026-08-28T17:52:21Z</time>
  <course>0.0</course>
  <speed>0.0</speed>
  <fix>3d</fix>
</trkpt>
<trkpt lat="40.0713751" lon="-105.2297889">
  <ele>1582.97</ele>
  <time>2026-08-28T17:52:21Z</time>
  <course>247.09</course>
  <speed>0.022360679774997897</speed>
  <fix>3d</fix>
</trkpt>
<trkpt lat="40.0713749" lon="-105.229789">
  <ele>1583.0</ele>
  <time>2026-08-28T17:52:21Z</time>
  <course>0.0</course>
  <speed>0.0</speed>
  <fix>3d</fix>
</trkpt>
<trkpt lat="40.071375" lon="-105.2297889">
  <ele>1582.98</ele>
  <time>2026-08-28T17:52:21Z</time>
  <course>247.09</course>
  <speed>0.02</speed>
  <fix>3d</fix>
</trkpt>
<trkpt lat="40.0713749" lon="-105.229789">
  <ele>1583.0</ele>
  <time>2026-08-28T17:52:21Z</time>
  <course>0.0</course>
  <speed>0.0</speed>
  <fix>3d</fix>
</trkpt>
<trkpt lat="40.071375" lon="-105.2297889">
  <ele>1582.99</ele>
  <time>2026-08-28T17:52:21Z</time>
  <course>247.09</course>
  <speed>0.02</speed>
  <fix>3d</fix>
</trkpt>
<trkpt lat="40.0713749" lon="-105.229789">
  <ele>1583.0</ele>
  <time>2026-08-28T17:52:21Z</time>
  <course>0.0</course>
  <speed>0.0</speed>
  <fix>3d</fix>
</trkpt>
<trkpt lat="40.071375" lon="-105.2297889">
  <ele>1583.0</ele>
  <time>2026-08-28T17:52:21Z</time>
  <course>247.09</course>
  <speed>0.02</speed>
  <fix>3d</fix>
</trkpt>
<trkpt lat="40.0713749" lon="-105.229789">
  <ele>1583.0</ele>
  <time>2026-08-28T17:52:21Z</time>
  <course>0.0</course>
  <speed>0.0</speed>
  <fix>3d</fix>
</trkpt>
<trkpt lat="40.071375" lon="-105.2297889">
  <ele>1583.01</ele>
  <time>2026-08-28T17:52:21Z</time>
  <course>247.09</course>
  <speed>0.02</speed>
  <fix>3d</fix>
</trkpt>
<trkpt lat="40.0713749" lon="-105.229789">
  <ele>1583.0</ele>
  <time>2026-08-28T17:52:21Z</time>
  <course>0.0</course>
  <speed>0.0</speed>
  <fix>3d</fix>
</trkpt>
<trkpt lat="40.071375" lon="-105.2297889">
  <ele>1583.02</ele>
  <time>2026-08-28T17:52:21Z</time>
  <course>247.09</course>
  <speed>0.01</speed>
  <fix>3d</fix>
</trkpt>
<trkpt lat="40.0713749" lon="-105.229789">
  <ele>1583.0</ele>
  <time>2026-08-28T17:52:21Z</time>
  <course>0.0</course>
  <speed>0.0</speed>
  <fix>3d</fix>
</trkpt>
<trkpt lat="40.071375" lon="-105.2297889">
  <ele>1583.03</ele>
  <time>2026-08-28T17:52:21Z</time>
  <course>247.09</course>
  <speed>0.01</speed>
  <fix>3d</fix>
</trkpt>
<trkpt lat="40.0713749" lon="-105.229789">
  <ele>1583.0</ele>
  <time>2026-08-28T17:52:21Z</time>
  <course>0.0</course>
  <speed>0.0</speed>
  <fix>3d</fix>
</trkpt>
<trkpt lat="40.071375" lon="-105.2297889">
  <ele>1583.04</ele>
  <time>2026-08-28T17:52:21Z</time>
  <course>247.09</course>
  <speed>0.01</speed>
  <fix>3d</fix>
</trkpt>
<trkpt lat="40.0713749" lon="-105.229789">
  <ele>1583.0</ele>
  <time>2026-08-28T17:52:21Z</time>
  <course>0.0</course>
  <speed>0.0</speed>
  <fix>3d</fix>
</trkpt>
<trkpt lat="40.071375" lon="-105.2297889">
  <ele>1583.05</ele>
  <time>2026-08-28T17:52:21Z</time>
  <course>247.09</course>
  <speed>0.01</speed>
  <fix>3d</fix>
</trkpt>
<trkpt lat="40.0713749" lon="-105.229789">
  <ele>1583.0</ele>
  <time>2026-08-28T17:52:21Z</time>
  <course>0.0</course>
  <speed>0.0</speed>
  <fix>3d</fix>
</trkpt>
<trkpt lat="40.071375" lon="-105.2297889">
  <ele>1583.06</ele>
  <time>2026-08-28T17:52:22Z</time>
  <course>247.09</course>
  <speed>0.01</speed>
  <fix>3d</fix>
</trkpt>
<trkpt lat="40.0713749" lon="-105.229789">
  <ele>1583.0</ele>
  <time>2026-08-28T17:52:22Z</time>
  <course>0.0</course>
  <speed>0.0</speed>
  <fix>3d</fix>
</trkpt>
<trkpt lat="40.071375" lon="-105.2297889">
  <ele>1583.07</ele>
  <time>2026-08-28T17:52:22Z</time>
  <course>247.09</course>
  <speed>0.01</speed>
  <fix>3d</fix>
</trkpt>
<trkpt lat="40.0713749" lon="-105.229789">
  <ele>1583.0</ele>
  <time>2026-08-28T17:52:22Z</time>
  <course>0.0</course>
  <speed>0.0</speed>
  <fix>3d</fix>
</trkpt>
<trkpt lat="40.071375" lon="-105.2297889">
  <ele>1583.07</ele>
  <time>2026-08-28T17:52:22Z</time>
  <course>247.09</course>
  <speed>0.01</speed>
  <fix>3d</fix>
</trkpt>
<trkpt lat="40.0713749" lon="-105.229789">
  <ele>1583.0</ele>
  <time>2026-08-28T17:52:22Z</time>
  <course>0.0</course>
  <speed>0.0</speed>
  <fix>3d</fix>
</trkpt>
<trkpt lat="40.071375" lon="-105.2297889">
  <ele>1583.07</ele>
  <time>2026-08-28T17:52:22Z</time>
  <course>247.09</course>
  <speed>0.0</speed>
  <fix>3d</fix>
</trkpt>
<trkpt lat="40.0713749" lon="-105.229789">
  <ele>1583.0</ele>
  <time>2026-08-28T17:52:22Z</time>
  <course>0.0</course>
  <speed>0.0</speed>
  <fix>3d</fix>
</trkpt>
<trkpt lat="40.071375" lon="-105.2297889">
  <ele>1583.07</ele>
  <time>2026-08-28T17:52:22Z</time>
  <course>247.09</course>
  <speed>0.0</speed>
  <fix>3d</fix>
</trkpt>
<trkpt lat="40.0713749" lon="-105.229789">
  <ele>1583.0</ele>
  <time>2026-08-28T17:52:22Z</time>
  <course>0.0</course>
  <speed>0.0</speed>
  <fix>3d</fix>
</trkpt>
<trkpt lat="40.071375" lon="-105.2297889">
  <ele>1583.08</ele>
  <time>2026-08-28T17:52:22Z</time>
  <course>247.09</course>
  <speed>0.0</speed>
  <fix>3d</fix>
</trkpt>
<trkpt lat="40.0713749" lon="-105.229789">
  <ele>1583.0</ele>
  <time>2026-08-28T17:52:22Z</time>
  <course>0.0</course>
  <speed>0.0</speed>
  <fix>3d</fix>
</trkpt>
<trkpt lat="40.071375" lon="-105.2297889">
  <ele>1583.08</ele>
  <time>2026-08-28T17:52:22Z</time>
  <course>247.09</course>
  <speed>0.0</speed>
  <fix>3d</fix>
</trkpt>
<trkpt lat="40.0713749" lon="-105.229789">
  <ele>1583.0</ele>
  <time>2026-08-28T17:52:22Z</time>
  <course>0.0</course>
  <speed>0.0</speed>
  <fix>3d</fix>
</trkpt>
<trkpt lat="40.071375" lon="-105.2297889">
  <ele>1583.08</ele>
  <time>2026-08-28T17:52:22Z</time>
  <course>247.09</course>
  <speed>0.0</speed>
  <fix>3d</fix>
</trkpt>
<trkpt lat="40.0713749" lon="-105.229789">
  <ele>1583.0</ele>
  <time>2026-08-28T17:52:22Z</time>
  <course>0.0</course>
  <speed>0.0</speed>
  <fix>3d</fix>
</trkpt>
<trkpt lat="40.071375" lon="-105.2297889">
  <ele>1583.08</ele>
  <time>2026-08-28T17:52:22Z</time>
  <course>247.09</course>
  <speed>0.0</speed>
  <fix>3d</fix>
</trkpt>
<trkpt lat="40.0713749" lon="-105.229789">
  <ele>1583.0</ele>
  <time>2026-08-28T17:52:22Z</time>
  <course>0.0</course>
  <speed>0.0</speed>
  <fix>3d</fix>
</trkpt>
<trkpt lat="40.071375" lon="-105.2297889">
  <ele>1583.08</ele>
  <time>2026-08-28T17:52:22Z</time>
  <course>247.09</course>
  <speed>0.0</speed>
  <fix>3d</fix>
</trkpt>
<trkpt lat="40.0713749" lon="-105.229789">
  <ele>1583.0</ele>
  <time>2026-08-28T17:52:22Z</time>
  <course>0.0</course>
  <speed>0.0</speed>
  <fix>3d</fix>
</trkpt>
<trkpt lat="40.071375" lon="-105.2297889">
  <ele>1583.08</ele>
  <time>2026-08-28T17:52:22Z</time>
  <course>247.09</course>
  <speed>0.0</speed>
  <fix>3d</fix>
</trkpt>
<trkpt lat="40.0713749" lon="-105.229789">
  <ele>1583.0</ele>
  <time>2026-08-28T17:52:22Z</time>
  <course>0.0</course>
  <speed>0.0</speed>
  <fix>3d</fix>
</trkpt>
<trkpt lat="40.071375" lon="-105.2297889">
  <ele>1583.09</ele>
  <time>2026-08-28T17:52:22Z</time>
  <course>247.09</course>
  <speed>0.0</speed>
  <fix>3d</fix>
</trkpt>
<trkpt lat="40.0713749" lon="-105.229789">
  <ele>1583.0</ele>
  <time>2026-08-28T17:52:22Z</time>
  <course>0.0</course>
  <speed>0.0</speed>
  <fix>3d</fix>
</trkpt>
<trkpt lat="40.071375" lon="-105.2297889">
  <ele>1583.09</ele>
  <time>2026-08-28T17:52:22Z</time>
  <course>247.09</course>
  <speed>0.0</speed>
  <fix>3d</fix>
</trkpt>
<trkpt lat="40.0713749" lon="-105.229789">
  <ele>1583.0</ele>
  <time>2026-08-28T17:52:22Z</time>
  <course>0.0</course>
  <speed>0.0</speed>
  <fix>3d</fix>
</trkpt>
<trkpt lat="40.071375" lon="-105.2297889">
  <ele>1583.09</ele>
  <time>2026-08-28T17:52:22Z</time>
  <course>247.09</course>
  <speed>0.0</speed>
  <fix>3d</fix>
</trkpt>
<trkpt lat="40.0713749" lon="-105.229789">
  <ele>1583.0</ele>
  <time>2026-08-28T17:52:22Z</time>
  <course>0.0</course>
  <speed>0.0</speed>
  <fix>3d</fix>
</trkpt>
<trkpt lat="40.071375" lon="-105.2297889">
  <ele>1583.09</ele>
  <time>2026-08-28T17:52:22Z</time>
  <course>247.09</course>
  <speed>0.0</speed>
  <fix>3d</fix>
</trkpt>
<trkpt lat="40.0713749" lon="-105.229789">
  <ele>1583.0</ele>
  <time>2026-08-28T17:52:22Z</time>
  <course>0.0</course>
  <speed>0.0</speed>
  <fix>3d</fix>
</trkpt>
<trkpt lat="40.071375" lon="-105.2297889">
  <ele>1583.09</ele>
  <time>2026-08-28T17:52:22Z</time>
  <course>247.09</course>
  <speed>0.0</speed>
  <fix>3d</fix>
</trkpt>
<trkpt lat="40.0713749" lon="-105.229789">
  <ele>1583.0</ele>
  <time>2026-08-28T17:52:22Z</time>
  <course>0.0</course>
  <speed>0.0</speed>
  <fix>3d</fix>
</trkpt>
<trkpt lat="40.071375" lon="-105.2297889">
  <ele>1583.1</ele>
  <time>2026-08-28T17:52:22Z</time>
  <course>247.09</course>
  <speed>0.0</speed>
  <fix>3d</fix>
</trkpt>
<trkpt lat="40.0713749" lon="-105.229789">
  <ele>1583.0</ele>
  <time>2026-08-28T17:52:22Z</time>
  <course>0.0</course>
  <speed>0.0</speed>
  <fix>3d</fix>
</trkpt>
<trkpt lat="40.071375" lon="-105.2297889">
  <ele>1583.1</ele>
  <time>2026-08-28T17:52:22Z</time>
  <course>247.09</course>
  <speed>0.0</speed>
  <fix>3d</fix>
</trkpt>
<trkpt lat="40.0713749" lon="-105.229789">
  <ele>1583.0</ele>
  <time>2026-08-28T17:52:22Z</time>
  <course>0.0</course>
  <speed>0.0</speed>
  <fix>3d</fix>
</trkpt>
<trkpt lat="40.071375" lon="-105.2297889">
  <ele>1583.1</ele>
  <time>2026-08-28T17:52:22Z</time>
  <course>247.09</course>
  <speed>0.0</speed>
  <fix>3d</fix>
</trkpt>
<trkpt lat="40.0713749" lon="-105.229789">
  <ele>1583.0</ele>
  <time>2026-08-28T17:52:22Z</time>
  <course>0.0</course>
  <speed>0.0</speed>
  <fix>3d</fix>
</trkpt>
<trkpt lat="40.071375" lon="-105.2297889">
  <ele>1583.11</ele>
  <time>2026-08-28T17:52:22Z</time>
  <course>247.09</course>
  <speed>0.0</speed>
  <fix>3d</fix>
</trkpt>
<trkpt lat="40.0713749" lon="-105.229789">
  <ele>1583.0</ele>
  <time>2026-08-28T17:52:22Z</time>
  <course>0.0</course>
  <speed>0.0</speed>
  <fix>3d</fix>
</trkpt>
<trkpt lat="40.071375" lon="-105.2297889">
  <ele>1583.11</ele>
  <time>2026-08-28T17:52:22Z</time>
  <course>247.09</course>
  <speed>0.0</speed>
  <fix>3d</fix>
</trkpt>
<trkpt lat="40.0713749" lon="-105.229789">
  <ele>1583.0</ele>
  <time>2026-08-28T17:52:22Z</time>
  <course>0.0</course>
  <speed>0.0</speed>
  <fix>3d</fix>
</trkpt>
<trkpt lat="40.071375" lon="-105.2297889">
  <ele>1583.11</ele>
  <time>2026-08-28T17:52:22Z</time>
  <course>247.09</course>
  <speed>0.0</speed>
  <fix>3d</fix>
</trkpt>
<trkpt lat="40.0713749" lon="-105.229789">
  <ele>1583.0</ele>
  <time>2026-08-28T17:52:22Z</time>
  <course>0.0</course>
  <speed>0.0</speed>
  <fix>3d</fix>
</trkpt>
<trkpt lat="40.071375" lon="-105.229789">
  <ele>1583.11</ele>
  <time>2026-08-28T17:52:22Z</time>
  <course>247.09</course>
  <speed>0.0</speed>
  <fix>3d</fix>
</trkpt>
<trkpt lat="40.0713749" lon="-105.229789">
  <ele>1583.0</ele>
  <time>2026-08-28T17:52:22Z</time>
  <course>0.0</course>
  <speed>0.0</speed>
  <fix>3d</fix>
</trkpt>
<trkpt lat="40.071375" lon="-105.2297889">
  <ele>1583.11</ele>
  <time>2026-08-28T17:52:22Z</time>
  <course>247.09</course>
  <speed>0.0</speed>
  <fix>3d</fix>
</trkpt>
<trkpt lat="40.0713749" lon="-105.229789">
  <ele>1583.0</ele>
  <time>2026-08-28T17:52:22Z</time>
  <course>0.0</course>
  <speed>0.0</speed>
  <fix>3d</fix>
</trkpt>
<trkpt lat="40.071375" lon="-105.2297889">
  <ele>1583.11</ele>
  <time>2026-08-28T17:52:22Z</time>
  <course>247.09</course>
  <speed>0.0</speed>
  <fix>3d</fix>
</trkpt>
<trkpt lat="40.0713749" lon="-105.229789">
  <ele>1583.0</ele>
  <time>2026-08-28T17:52:22Z</time>
  <course>0.0</course>
  <speed>0.0</speed>
  <fix>3d</fix>
</trkpt>
<trkpt lat="40.071375" lon="-105.2297889">
  <ele>1583.12</ele>
  <time>2026-08-28T17:52:22Z</time>
  <course>247.09</course>
  <speed>0.0</speed>
  <fix>3d</fix>
</trkpt>
<trkpt lat="40.0713749" lon="-105.229789">
  <ele>1583.0</ele>
  <time>2026-08-28T17:52:22Z</time>
  <course>0.0</course>
  <speed>0.0</speed>
  <fix>3d</fix>
</trkpt>
<trkpt lat="40.071375" lon="-105.2297889">
  <ele>1583.12</ele>
  <time>2026-08-28T17:52:22Z</time>
  <course>247.09</course>
  <speed>0.0</speed>
  <fix>3d</fix>
</trkpt>
<trkpt lat="40.0713749" lon="-105.229789">
  <ele>1583.0</ele>
  <time>2026-08-28T17:52:22Z</time>
  <course>0.0</course>
  <speed>0.0</speed>
  <fix>3d</fix>
</trkpt>
<trkpt lat="40.071375" lon="-105.2297889">
  <ele>1583.12</ele>
  <time>2026-08-28T17:52:22Z</time>
  <course>247.09</course>
  <speed>0.0</speed>
  <fix>3d</fix>
</trkpt>
<trkpt lat="40.0713749" lon="-105.229789">
  <ele>1583.0</ele>
  <time>2026-08-28T17:52:22Z</time>
  <course>0.0</course>
  <speed>0.0</speed>
  <fix>3d</fix>
</trkpt>
<trkpt lat="40.071375" lon="-105.2297889">
  <ele>1583.13</ele>
  <time>2026-08-28T17:52:22Z</time>
  <course>247.09</course>
  <speed>0.0</speed>
  <fix>3d</fix>
</trkpt>
<trkpt lat="40.0713749" lon="-105.229789">
  <ele>1583.0</ele>
  <time>2026-08-28T17:52:22Z</time>
  <course>0.0</course>
  <speed>0.0</speed>
  <fix>3d</fix>
</trkpt>
<trkpt lat="40.071375" lon="-105.2297889">
  <ele>1583.13</ele>
  <time>2026-08-28T17:52:22Z</time>
  <course>247.09</course>
  <speed>0.0</speed>
  <fix>3d</fix>
</trkpt>
<trkpt lat="40.0713749" lon="-105.229789">
  <ele>1583.0</ele>
  <time>2026-08-28T17:52:22Z</time>
  <course>0.0</course>
  <speed>0.0</speed>
  <fix>3d</fix>
</trkpt>
<trkpt lat="40.071375" lon="-105.2297889">
  <ele>1583.14</ele>
  <time>2026-08-28T17:52:22Z</time>
  <course>247.09</course>
  <speed>0.0</speed>
  <fix>3d</fix>
</trkpt>
<trkpt lat="40.0713749" lon="-105.229789">
  <ele>1583.0</ele>
  <time>2026-08-28T17:52:22Z</time>
  <course>0.0</course>
  <speed>0.0</speed>
  <fix>3d</fix>
</trkpt>
<trkpt lat="40.071375" lon="-105.2297889">
  <ele>1583.14</ele>
  <time>2026-08-28T17:52:22Z</time>
  <course>247.09</course>
  <speed>0.0</speed>
  <fix>3d</fix>
</trkpt>
<trkpt lat="40.0713749" lon="-105.229789">
  <ele>1583.0</ele>
  <time>2026-08-28T17:52:22Z</time>
  <course>0.0</course>
  <speed>0.0</speed>
  <fix>3d</fix>
</trkpt>
<trkpt lat="40.071375" lon="-105.2297889">
  <ele>1583.14</ele>
  <time>2026-08-28T17:52:22Z</time>
  <course>247.09</course>
  <speed>0.0</speed>
  <fix>3d</fix>
</trkpt>
<trkpt lat="40.0713749" lon="-105.229789">
  <ele>1583.0</ele>
  <time>2026-08-28T17:52:22Z</time>
  <course>0.0</course>
  <speed>0.0</speed>
  <fix>3d</fix>
</trkpt>
<trkpt lat="40.071375" lon="-105.2297889">
  <ele>1583.15</ele>
  <time>2026-08-28T17:52:22Z</time>
  <course>247.09</course>
  <speed>0.0</speed>
  <fix>3d</fix>
</trkpt>
<trkpt lat="40.0713749" lon="-105.229789">
  <ele>1583.0</ele>
  <time>2026-08-28T17:52:22Z</time>
  <course>0.0</course>
  <speed>0.0</speed>
  <fix>3d</fix>
</trkpt>
<trkpt lat="40.071375" lon="-105.2297889">
  <ele>1583.15</ele>
  <time>2026-08-28T17:52:22Z</time>
  <course>247.09</course>
  <speed>0.0</speed>
  <fix>3d</fix>
</trkpt>
<trkpt lat="40.0713749" lon="-105.229789">
  <ele>1583.0</ele>
  <time>2026-08-28T17:52:22Z</time>
  <course>0.0</course>
  <speed>0.0</speed>
  <fix>3d</fix>
</trkpt>
<trkpt lat="40.071375" lon="-105.2297889">
  <ele>1583.15</ele>
  <time>2026-08-28T17:52:22Z</time>
  <course>247.09</course>
  <speed>0.0</speed>
  <fix>3d</fix>
</trkpt>
<trkpt lat="40.0713749" lon="-105.229789">
  <ele>1583.0</ele>
  <time>2026-08-28T17:52:22Z</time>
  <course>0.0</course>
  <speed>0.0</speed>
  <fix>3d</fix>
</trkpt>
<trkpt lat="40.071375" lon="-105.2297889">
  <ele>1583.15</ele>
  <time>2026-08-28T17:52:22Z</time>
  <course>247.09</course>
  <speed>0.0</speed>
  <fix>3d</fix>
</trkpt>
<trkpt lat="40.0713749" lon="-105.229789">
  <ele>1583.0</ele>
  <time>2026-08-28T17:52:22Z</time>
  <course>0.0</course>
  <speed>0.0</speed>
  <fix>3d</fix>
</trkpt>
<trkpt lat="40.071375" lon="-105.2297889">
  <ele>1583.16</ele>
  <time>2026-08-28T17:52:22Z</time>
  <course>247.09</course>
  <speed>0.01</speed>
  <fix>3d</fix>
</trkpt>
<trkpt lat="40.0713749" lon="-105.229789">
  <ele>1583.0</ele>
  <time>2026-08-28T17:52:22Z</time>
  <course>0.0</course>
  <speed>0.0</speed>
  <fix>3d</fix>
</trkpt>
<trkpt lat="40.071375" lon="-105.2297889">
  <ele>1583.16</ele>
  <time>2026-08-28T17:52:22Z</time>
  <course>247.09</course>
  <speed>0.01</speed>
  <fix>3d</fix>
</trkpt>
<trkpt lat="40.0713749" lon="-105.229789">
  <ele>1583.0</ele>
  <time>2026-08-28T17:52:22Z</time>
  <course>0.0</course>
  <speed>0.0</speed>
  <fix>3d</fix>
</trkpt>
<trkpt lat="40.071375" lon="-105.2297889">
  <ele>1583.16</ele>
  <time>2026-08-28T17:52:22Z</time>
  <course>247.09</course>
  <speed>0.01</speed>
  <fix>3d</fix>
</trkpt>
<trkpt lat="40.0713749" lon="-105.229789">
  <ele>1583.0</ele>
  <time>2026-08-28T17:52:22Z</time>
  <course>0.0</course>
  <speed>0.0</speed>
  <fix>3d</fix>
</trkpt>
<trkpt lat="40.071375" lon="-105.2297889">
  <ele>1583.16</ele>
  <time>2026-08-28T17:52:22Z</time>
  <course>247.09</course>
  <speed>0.01</speed>
  <fix>3d</fix>
</trkpt>
<trkpt lat="40.0713749" lon="-105.229789">
  <ele>1583.0</ele>
  <time>2026-08-28T17:52:22Z</time>
  <course>0.0</course>
  <speed>0.0</speed>
  <fix>3d</fix>
</trkpt>
<trkpt lat="40.071375" lon="-105.2297889">
  <ele>1583.16</ele>
  <time>2026-08-28T17:52:22Z</time>
  <course>247.09</course>
  <speed>0.01</speed>
  <fix>3d</fix>
</trkpt>
<trkpt lat="40.0713749" lon="-105.229789">
  <ele>1583.0</ele>
  <time>2026-08-28T17:52:22Z</time>
  <course>0.0</course>
  <speed>0.0</speed>
  <fix>3d</fix>
</trkpt>
<trkpt lat="40.071375" lon="-105.2297889">
  <ele>1583.16</ele>
  <time>2026-08-28T17:52:22Z</time>
  <course>247.09</course>
  <speed>0.01</speed>
  <fix>3d</fix>
</trkpt>
<trkpt lat="40.0713749" lon="-105.229789">
  <ele>1583.0</ele>
  <time>2026-08-28T17:52:22Z</time>
  <course>0.0</course>
  <speed>0.0</speed>
  <fix>3d</fix>
</trkpt>
<trkpt lat="40.071375" lon="-105.2297889">
  <ele>1583.17</ele>
  <time>2026-08-28T17:52:22Z</time>
  <course>247.09</course>
  <speed>0.01</speed>
  <fix>3d</fix>
</trkpt>
<trkpt lat="40.0713749" lon="-105.229789">
  <ele>1583.0</ele>
  <time>2026-08-28T17:52:22Z</time>
  <course>0.0</course>
  <speed>0.0</speed>
  <fix>3d</fix>
</trkpt>
<trkpt lat="40.071375" lon="-105.2297889">
  <ele>1583.17</ele>
  <time>2026-08-28T17:52:22Z</time>
  <course>247.09</course>
  <speed>0.01</speed>
  <fix>3d</fix>
</trkpt>
<trkpt lat="40.0713749" lon="-105.229789">
  <ele>1583.0</ele>
  <time>2026-08-28T17:52:22Z</time>
  <course>0.0</course>
  <speed>0.0</speed>
  <fix>3d</fix>
</trkpt>
<trkpt lat="40.071375" lon="-105.2297889">
  <ele>1583.17</ele>
  <time>2026-08-28T17:52:22Z</time>
  <course>247.09</course>
  <speed>0.01</speed>
  <fix>3d</fix>
</trkpt>
<trkpt lat="40.0713749" lon="-105.229789">
  <ele>1583.0</ele>
  <time>2026-08-28T17:52:22Z</time>
  <course>0.0</course>
  <speed>0.0</speed>
  <fix>3d</fix>
</trkpt>
<trkpt lat="40.071375" lon="-105.2297889">
  <ele>1583.17</ele>
  <time>2026-08-28T17:52:22Z</time>
  <course>247.09</course>
  <speed>0.01</speed>
  <fix>3d</fix>
</trkpt>
<trkpt lat="40.0713749" lon="-105.229789">
  <ele>1583.0</ele>
  <time>2026-08-28T17:52:22Z</time>
  <course>0.0</course>
  <speed>0.0</speed>
  <fix>3d</fix>
</trkpt>
<trkpt lat="40.071375" lon="-105.2297889">
  <ele>1583.17</ele>
  <time>2026-08-28T17:52:22Z</time>
  <course>247.09</course>
  <speed>0.01</speed>
  <fix>3d</fix>
</trkpt>
<trkpt lat="40.0713749" lon="-105.229789">
  <ele>1583.0</ele>
  <time>2026-08-28T17:52:22Z</time>
  <course>0.0</course>
  <speed>0.0</speed>
  <fix>3d</fix>
</trkpt>
<trkpt lat="40.071375" lon="-105.2297889">
  <ele>1583.17</ele>
  <time>2026-08-28T17:52:22Z</time>
  <course>247.09</course>
  <speed>0.01</speed>
  <fix>3d</fix>
</trkpt>
<trkpt lat="40.0713749" lon="-105.229789">
  <ele>1583.0</ele>
  <time>2026-08-28T17:52:22Z</time>
  <course>0.0</course>
  <speed>0.0</speed>
  <fix>3d</fix>
</trkpt>
<trkpt lat="40.071375" lon="-105.2297889">
  <ele>1583.17</ele>
  <time>2026-08-28T17:52:22Z</time>
  <course>247.09</course>
  <speed>0.01</speed>
  <fix>3d</fix>
</trkpt>
<trkpt lat="40.0713749" lon="-105.229789">
  <ele>1583.0</ele>
  <time>2026-08-28T17:52:22Z</time>
  <course>0.0</course>
  <speed>0.0</speed>
  <fix>3d</fix>
</trkpt>
<trkpt lat="40.071375" lon="-105.2297889">
  <ele>1583.17</ele>
  <time>2026-08-28T17:52:22Z</time>
  <course>247.09</course>
  <speed>0.01</speed>
  <fix>3d</fix>
</trkpt>
<trkpt lat="40.0713749" lon="-105.229789">
  <ele>1583.0</ele>
  <time>2026-08-28T17:52:22Z</time>
  <course>0.0</course>
  <speed>0.0</speed>
  <fix>3d</fix>
</trkpt>
<trkpt lat="40.071375" lon="-105.2297889">
  <ele>1583.17</ele>
  <time>2026-08-28T17:52:22Z</time>
  <course>247.09</course>
  <speed>0.01</speed>
  <fix>3d</fix>
</trkpt>
<trkpt lat="40.0713749" lon="-105.229789">
  <ele>1583.0</ele>
  <time>2026-08-28T17:52:22Z</time>
  <course>246.0</course>
  <speed>0.0</speed>
  <fix>3d</fix>
</trkpt>
<trkpt lat="40.071375" lon="-105.2297889">
  <ele>1583.17</ele>
  <time>2026-08-28T17:52:22Z</time>
  <course>247.1</course>
  <speed>0.01</speed>
  <fix>3d</fix>
</trkpt>
<trkpt lat="40.0713749" lon="-105.229789">
  <ele>1583.0</ele>
  <time>2026-08-28T17:52:22Z</time>
  <course>246.0</course>
  <speed>0.0</speed>
  <fix>3d</fix>
</trkpt>
<trkpt lat="40.071375" lon="-105.2297889">
  <ele>1583.17</ele>
  <time>2026-08-28T17:52:22Z</time>
  <course>247.11</course>
  <speed>0.01</speed>
  <fix>3d</fix>
</trkpt>
<trkpt lat="40.0713749" lon="-105.229789">
  <ele>1583.0</ele>
  <time>2026-08-28T17:52:22Z</time>
  <course>246.0</course>
  <speed>0.0</speed>
  <fix>3d</fix>
</trkpt>
<trkpt lat="40.071375" lon="-105.2297889">
  <ele>1583.17</ele>
  <time>2026-08-28T17:52:22Z</time>
  <course>247.13</course>
  <speed>0.01</speed>
  <fix>3d</fix>
</trkpt>
<trkpt lat="40.0713749" lon="-105.229789">
  <ele>1583.0</ele>
  <time>2026-08-28T17:52:22Z</time>
  <course>246.0</course>
  <speed>0.0</speed>
  <fix>3d</fix>
</trkpt>
<trkpt lat="40.071375" lon="-105.2297889">
  <ele>1583.17</ele>
  <time>2026-08-28T17:52:22Z</time>
  <course>247.09</course>
  <speed>0.01414213562373095</speed>
  <fix>3d</fix>
</trkpt>
<trkpt lat="40.0713749" lon="-105.229789">
  <ele>1583.0</ele>
  <time>2026-08-28T17:52:22Z</time>
  <course>246.01</course>
  <speed>0.01</speed>
  <fix>3d</fix>
</trkpt>
<trkpt lat="40.071375" lon="-105.229789">
  <ele>1583.16</ele>
  <time>2026-08-28T17:52:22Z</time>
  <course>246.96</course>
  <speed>0.03</speed>
  <fix>3d</fix>
</trkpt>
<trkpt lat="40.0713749" lon="-105.229789">
  <ele>1583.0</ele>
  <time>2026-08-28T17:52:22Z</time>
  <course>246.01</course>
  <speed>0.01</speed>
  <fix>3d</fix>
</trkpt>
<trkpt lat="40.071375" lon="-105.229789">
  <ele>1583.16</ele>
  <time>2026-08-28T17:52:22Z</time>
  <course>246.77</course>
  <speed>0.05</speed>
  <fix>3d</fix>
</trkpt>
<trkpt lat="40.0713749" lon="-105.229789">
  <ele>1583.0</ele>
  <time>2026-08-28T17:52:22Z</time>
  <course>245.76</course>
  <speed>0.04</speed>
  <fix>3d</fix>
</trkpt>
<trkpt lat="40.071375" lon="-105.2297891">
  <ele>1583.16</ele>
  <time>2026-08-28T17:52:22Z</time>
  <course>246.34</course>
  <speed>0.08062257748298549</speed>
  <fix>3d</fix>
</trkpt>
<trkpt lat="40.0713749" lon="-105.229789">
  <ele>1583.0</ele>
  <time>2026-08-28T17:52:22Z</time>
  <course>245.76</course>
  <speed>0.04</speed>
  <fix>3d</fix>
</trkpt>
<trkpt lat="40.071375" lon="-105.2297892">
  <ele>1583.15</ele>
  <time>2026-08-28T17:52:22Z</time>
  <course>245.62</course>
  <speed>0.12369316876852982</speed>
  <fix>3d</fix>
</trkpt>
<trkpt lat="40.0713749" lon="-105.2297892">
  <ele>1583.0</ele>
  <time>2026-08-28T17:52:22Z</time>
  <course>244.88</course>
  <speed>0.1</speed>
  <fix>3d</fix>
</trkpt>
<trkpt lat="40.0713749" lon="-105.2297894">
  <ele>1583.15</ele>
  <time>2026-08-28T17:52:22Z</time>
  <course>244.54</course>
  <speed>0.18027756377319945</speed>
  <fix>3d</fix>
</trkpt>
<trkpt lat="40.0713749" lon="-105.2297892">
  <ele>1583.0</ele>
  <time>2026-08-28T17:52:22Z</time>
  <course>244.88</course>
  <speed>0.1</speed>
  <fix>3d</fix>
</trkpt>
<trkpt lat="40.0713748" lon="-105.2297897">
  <ele>1583.15</ele>
  <time>2026-08-28T17:52:22Z</time>
  <course>243.07</course>
  <speed>0.23769728648009425</speed>
  <fix>3d</fix>
</trkpt>
<trkpt lat="40.0713748" lon="-105.2297895">
  <ele>1583.0</ele>
  <time>2026-08-28T17:52:22Z</time>
  <course>242.85</course>
  <speed>0.2</speed>
  <fix>3d</fix>
</trkpt>
<trkpt lat="40.0713747" lon="-105.22979">
  <ele>1583.15</ele>
  <time>2026-08-28T17:52:22Z</time>
  <course>241.13</course>
  <speed>0.32202484376209234</speed>
  <fix>3d</fix>
</trkpt>
<trkpt lat="40.0713748" lon="-105.2297895">
  <ele>1583.0</ele>
  <time>2026-08-28T17:52:22Z</time>
  <course>242.85</course>
  <speed>0.2</speed>
  <fix>3d</fix>
</trkpt>
<trkpt lat="40.0713745" lon="-105.2297904">
  <ele>1583.15</ele>
  <time>2026-08-28T17:52:22Z</time>
  <course>238.65</course>
  <speed>0.41182520563948005</speed>
  <fix>3d</fix>
</trkpt>
<trkpt lat="40.0713746" lon="-105.22979">
  <ele>1583.0</ele>
  <time>2026-08-28T17:52:22Z</time>
  <course>239.2</course>
  <speed>0.35</speed>
  <fix>3d</fix>
</trkpt>
<trkpt lat="40.0713743" lon="-105.2297909">
  <ele>1583.15</ele>
  <time>2026-08-28T17:52:22Z</time>
  <course>235.54</course>
  <speed>0.5077400909914441</speed>
  <fix>3d</fix>
</trkpt>
<trkpt lat="40.0713746" lon="-105.22979">
  <ele>1583.0</ele>
  <time>2026-08-28T17:52:22Z</time>
  <course>239.2</course>
  <speed>0.35</speed>
  <fix>3d</fix>
</trkpt>
<trkpt lat="40.071374" lon="-105.2297914">
  <ele>1583.15</ele>
  <time>2026-08-28T17:52:22Z</time>
  <course>231.81</course>
  <speed>0.6140032573203501</speed>
  <fix>3d</fix>
</trkpt>
<trkpt lat="40.0713741" lon="-105.2297909">
  <ele>1583.0</ele>
  <time>2026-08-28T17:52:22Z</time>
  <course>233.46</course>
  <speed>0.53</speed>
  <fix>3d</fix>
</trkpt>
<trkpt lat="40.0713736" lon="-105.2297921">
  <ele>1583.15</ele>
  <time>2026-08-28T17:52:22Z</time>
  <course>227.39</course>
  <speed>0.7224956747275377</speed>
  <fix>3d</fix>
</trkpt>
<trkpt lat="40.0713741" lon="-105.2297909">
  <ele>1583.0</ele>
  <time>2026-08-28T17:52:22Z</time>
  <course>233.46</course>
  <speed>0.53</speed>
  <fix>3d</fix>
</trkpt>
<trkpt lat="40.0713729" lon="-105.2297929">
  <ele>1583.15</ele>
  <time>2026-08-28T17:52:22Z</time>
  <course>221.11</course>
  <speed>0.8645229898620395</speed>
  <fix>3d</fix>
</trkpt>
<trkpt lat="40.0713734" lon="-105.2297921">
  <ele>1583.0</ele>
  <time>2026-08-28T17:52:22Z</time>
  <course>225.17</course>
  <speed>0.75</speed>
  <fix>3d</fix>
</trkpt>
<trkpt lat="40.0713722" lon="-105.2297936">
  <ele>1583.15</ele>
  <time>2026-08-28T17:52:22Z</time>
  <course>215.23</course>
  <speed>0.9904544411531506</speed>
  <fix>3d</fix>
</trkpt>
<trkpt lat="40.0713734" lon="-105.2297921">
  <ele>1583.0</ele>
  <time>2026-08-28T17:52:22Z</time>
  <course>225.17</course>
  <speed>0.75</speed>
  <fix>3d</fix>
</trkpt>
<trkpt lat="40.0713714" lon="-105.2297943">
  <ele>1583.15</ele>
  <time>2026-08-28T17:52:22Z</time>
  <course>209.85</course>
  <speed>1.1150784725749125</speed>
  <fix>3d</fix>
</trkpt>
<trkpt lat="40.0713722" lon="-105.2297933">
  <ele>1583.0</ele>
  <time>2026-08-28T17:52:22Z</time>
  <course>214.71</course>
  <speed>0.98</speed>
  <fix>3d</fix>
</trkpt>
<trkpt lat="40.0713703" lon="-105.2297949">
  <ele>1583.15</ele>
  <time>2026-08-28T17:52:22Z</time>
  <course>205.29</course>
  <speed>1.2439051410778879</speed>
  <fix>3d</fix>
</trkpt>
<trkpt lat="40.0713722" lon="-105.2297933">
  <ele>1583.0</ele>
  <time>2026-08-28T17:52:22Z</time>
  <course>214.71</course>
  <speed>0.98</speed>
  <fix>3d</fix>
</trkpt>
<trkpt lat="40.0713692" lon="-105.2297955">
  <ele>1583.15</ele>
  <time>2026-08-28T17:52:22Z</time>
  <course>201.41</course>
  <speed>1.3764083696345355</speed>
  <fix>3d</fix>
</trkpt>
<trkpt lat="40.0713704" lon="-105.2297946">
  <ele>1583.0</ele>
  <time>2026-08-28T17:52:22Z</time>
  <course>204.92</course>
  <speed>1.24</speed>
  <fix>3d</fix>
</trkpt>
<trkpt lat="40.0713679" lon="-105.229796">
  <ele>1583.15</ele>
  <time>2026-08-28T17:52:22Z</time>
  <course>198.11</course>
  <speed>1.5057224179774968</speed>
  <fix>3d</fix>
</trkpt>
<trkpt lat="40.0713704" lon="-105.2297946">
  <ele>1583.0</ele>
  <time>2026-08-28T17:52:22Z</time>
  <course>204.92</course>
  <speed>1.24</speed>
  <fix>3d</fix>
</trkpt>
<trkpt lat="40.0713665" lon="-105.2297965">
  <ele>1583.16</ele>
  <time>2026-08-28T17:52:22Z</time>
  <course>195.28</course>
  <speed>1.6298466185503468</speed>
  <fix>3d</fix>
</trkpt>
<trkpt lat="40.0713681" lon="-105.2297958">
  <ele>1583.0</ele>
  <time>2026-08-28T17:52:22Z</time>
  <course>197.58</course>
  <speed>1.5</speed>
  <fix>3d</fix>
</trkpt>
<trkpt lat="40.071365" lon="-105.229797">
  <ele>1583.16</ele>
  <time>2026-08-28T17:52:22Z</time>
  <course>192.88</course>
  <speed>1.7572706109191036</speed>
  <fix>3d</fix>
</trkpt>
<trkpt lat="40.0713681" lon="-105.2297958">
  <ele>1583.0</ele>
  <time>2026-08-28T17:52:22Z</time>
  <course>197.58</course>
  <speed>1.5</speed>
  <fix>3d</fix>
</trkpt>
<trkpt lat="40.0713634" lon="-105.2297974">
  <ele>1583.17</ele>
  <time>2026-08-28T17:52:22Z</time>
  <course>190.86</course>
  <speed>1.8856563843924483</speed>
  <fix>3d</fix>
</trkpt>
<trkpt lat="40.0713653" lon="-105.2297968">
  <ele>1583.0</ele>
  <time>2026-08-28T17:52:22Z</time>
  <course>192.24</course>
  <speed>1.75</speed>
  <fix>3d</fix>
</trkpt>
<trkpt lat="40.0713616" lon="-105.2297977">
  <ele>1583.17</ele>
  <time>2026-08-28T17:52:22Z</time>
  <course>189.13</course>
  <speed>2.008233054204616</speed>
  <fix>3d</fix>
</trkpt>
<trkpt lat="40.0713653" lon="-105.2297968">
  <ele>1583.0</ele>
  <time>2026-08-28T17:52:22Z</time>
  <course>192.24</course>
  <speed>1.75</speed>
  <fix>3d</fix>
</trkpt>
<trkpt lat="40.0713597" lon="-105.229798">
  <ele>1583.17</ele>
  <time>2026-08-28T17:52:22Z</time>
  <course>187.68</course>
  <speed>2.1224985276791126</speed>
  <fix>3d</fix>
</trkpt>
<trkpt lat="40.071362" lon="-105.2297975">
  <ele>1583.0</ele>
  <time>2026-08-28T17:52:22Z</time>
  <course>188.39</course>
  <speed>1.99</speed>
  <fix>3d</fix>
</trkpt>
<trkpt lat="40.0713581" lon="-105.2297982">
  <ele>1583.17</ele>
  <time>2026-08-28T17:52:22Z</time>
  <course>186.65</course>
  <speed>2.228990803031722</speed>
  <fix>3d</fix>
</trkpt>
<trkpt lat="40.071362" lon="-105.2297975">
  <ele>1583.0</ele>
  <time>2026-08-28T17:52:22Z</time>
  <course>188.39</course>
  <speed>1.99</speed>
  <fix>3d</fix>
</trkpt>
<trkpt lat="40.071356" lon="-105.2297984">
  <ele>1583.17</ele>
  <time>2026-08-28T17:52:22Z</time>
  <course>185.56</course>
  <speed>2.346167086973986</speed>
  <fix>3d</fix>
</trkpt>
<trkpt lat="40.0713582" lon="-105.2297981">
  <ele>1583.0</ele>
  <time>2026-08-28T17:52:22Z</time>
  <course>185.59</course>
  <speed>2.23</speed>
  <fix>3d</fix>
</trkpt>
<trkpt lat="40.0713538" lon="-105.2297986">
  <ele>1583.17</ele>
  <time>2026-08-28T17:52:22Z</time>
  <course>184.63</course>
  <speed>2.463980519403512</speed>
  <fix>3d</fix>
</trkpt>
<trkpt lat="40.0713582" lon="-105.2297981">
  <ele>1583.0</ele>
  <time>2026-08-28T17:52:22Z</time>
  <course>185.59</course>
  <speed>2.23</speed>
  <fix>3d</fix>
</trkpt>
<trkpt lat="40.0713515" lon="-105.2297987">
  <ele>1583.17</ele>
  <time>2026-08-28T17:52:22Z</time>
  <course>183.85</course>
  <speed>2.572353008434107</speed>
  <fix>3d</fix>
</trkpt>
<trkpt lat="40.071354" lon="-105.2297986">
  <ele>1583.0</ele>
  <time>2026-08-28T17:52:22Z</time>
  <course>183.57</course>
  <speed>2.46</speed>
  <fix>3d</fix>
</trkpt>
<trkpt lat="40.0713491" lon="-105.2297989">
  <ele>1583.18</ele>
  <time>2026-08-28T17:52:22Z</time>
  <course>183.17</course>
  <speed>2.6911893281595782</speed>
  <fix>3d</fix>
</trkpt>
<trkpt lat="40.071354" lon="-105.2297986">
  <ele>1583.0</ele>
  <time>2026-08-28T17:52:22Z</time>
  <course>183.57</course>
  <speed>2.46</speed>
  <fix>3d</fix>
</trkpt>
<trkpt lat="40.0713466" lon="-105.2297989">
  <ele>1583.18</ele>
  <time>2026-08-28T17:52:22Z</time>
  <course>182.59</course>
  <speed>2.800446392988089</speed>
  <fix>3d</fix>
</trkpt>
<trkpt lat="40.0713493" lon="-105.2297988">
  <ele>1583.0</ele>
  <time>2026-08-28T17:52:22Z</time>
  <course>182.1</course>
  <speed>2.69</speed>
  <fix>3d</fix>
</trkpt>
<trkpt lat="40.0713439" lon="-105.229799">
  <ele>1583.18</ele>
  <time>2026-08-28T17:52:22Z</time>
  <course>182.1</course>
  <speed>2.9101546350666663</speed>
  <fix>3d</fix>
</trkpt>
<trkpt lat="40.0713493" lon="-105.2297988">
  <ele>1583.0</ele>
  <time>2026-08-28T17:52:22Z</time>
  <course>182.1</course>
  <speed>2.69</speed>
  <fix>3d</fix>
</trkpt>
<trkpt lat="40.0713412" lon="-105.229799">
  <ele>1583.18</ele>
  <time>2026-08-28T17:52:22Z</time>
  <course>181.68</course>
  <speed>3.0200165562460084</speed>
  <fix>3d</fix>
</trkpt>
<trkpt lat="40.0713443" lon="-105.229799">
  <ele>1583.0</ele>
  <time>2026-08-28T17:52:22Z</time>
  <course>181.03</course>
  <speed>2.9</speed>
  <fix>3d</fix>
</trkpt>
<trkpt lat="40.0713383" lon="-105.229799">
  <ele>1583.18</ele>
  <time>2026-08-28T17:52:22Z</time>
  <course>181.33</course>
  <speed>3.13</speed>
  <fix>3d</fix>
</trkpt>
<trkpt lat="40.0713443" lon="-105.229799">
  <ele>1583.0</ele>
  <time>2026-08-28T17:52:22Z</time>
  <course>181.03</course>
  <speed>2.9</speed>
  <fix>3d</fix>
</trkpt>
<trkpt lat="40.0713354" lon="-105.229799">
  <ele>1583.18</ele>
  <time>2026-08-28T17:52:22Z</time>
  <course>181.04</course>
  <speed>3.230061918911153</speed>
  <fix>3d</fix>
</trkpt>
<trkpt lat="40.0713389" lon="-105.2297991">
  <ele>1583.0</ele>
  <time>2026-08-28T17:52:22Z</time>
  <course>180.25</course>
  <speed>3.11</speed>
  <fix>3d</fix>
</trkpt>
<trkpt lat="40.0713318" lon="-105.229799">
  <ele>1583.18</ele>
  <time>2026-08-28T17:52:22Z</time>
  <course>180.75</course>
  <speed>3.350238797459071</speed>
  <fix>3d</fix>
</trkpt>
<trkpt lat="40.0713389" lon="-105.2297991">
  <ele>1583.0</ele>
  <time>2026-08-28T17:52:22Z</time>
  <course>180.25</course>
  <speed>3.11</speed>
  <fix>3d</fix>
</trkpt>
<trkpt lat="40.0713287" lon="-105.229799">
  <ele>1583.18</ele>
  <time>2026-08-28T17:52:22Z</time>
  <course>180.54</course>
  <speed>3.450362299817223</speed>
  <fix>3d</fix>
</trkpt>
<trkpt lat="40.0713332" lon="-105.2297991">
  <ele>1583.0</ele>
  <time>2026-08-28T17:52:22Z</time>
  <course>179.7</course>
  <speed>3.31</speed>
  <fix>3d</fix>
</trkpt>
<trkpt lat="40.0713255" lon="-105.229799">
  <ele>1583.18</ele>
  <time>2026-08-28T17:52:22Z</time>
  <course>180.37</course>
  <speed>3.550507006048573</speed>
  <fix>3d</fix>
</trkpt>
<trkpt lat="40.0713332" lon="-105.2297991">
  <ele>1583.0</ele>
  <time>2026-08-28T17:52:22Z</time>
  <course>179.7</course>
  <speed>3.31</speed>
  <fix>3d</fix>
</trkpt>
<trkpt lat="40.0713222" lon="-105.2297989">
  <ele>1583.19</ele>
  <time>2026-08-28T17:52:22Z</time>
  <course>180.23</course>
  <speed>3.650671171168392</speed>
  <fix>3d</fix>
</trkpt>
<trkpt lat="40.071327" lon="-105.229799">
  <ele>1583.0</ele>
  <time>2026-08-28T17:52:22Z</time>
  <course>179.31</course>
  <speed>3.51</speed>
  <fix>3d</fix>
</trkpt>
<trkpt lat="40.0713189" lon="-105.2297988">
  <ele>1583.19</ele>
  <time>2026-08-28T17:52:22Z</time>
  <course>180.11</course>
  <speed>3.7408555171243916</speed>
  <fix>3d</fix>
</trkpt>
<trkpt lat="40.071327" lon="-105.229799">
  <ele>1583.0</ele>
  <time>2026-08-28T17:52:22Z</time>
  <course>179.31</course>
  <speed>3.51</speed>
  <fix>3d</fix>
</trkpt>
<trkpt lat="40.0713154" lon="-105.2297987">
  <ele>1583.19</ele>
  <time>2026-08-28T17:52:22Z</time>
  <course>180.02</course>
  <speed>3.8410545427004807</speed>
  <fix>3d</fix>
</trkpt>
<trkpt lat="40.0713205" lon="-105.229799">
  <ele>1583.0</ele>
  <time>2026-08-28T17:52:22Z</time>
  <course>179.03</course>
  <speed>3.7</speed>
  <fix>3d</fix>
</trkpt>
<trkpt lat="40.0713119" lon="-105.2297986">
  <ele>1583.2</ele>
  <time>2026-08-28T17:52:22Z</time>
  <course>179.94</course>
  <speed>3.931272058761642</speed>
  <fix>3d</fix>
</trkpt>
<trkpt lat="40.0713205" lon="-105.229799">
  <ele>1583.0</ele>
  <time>2026-08-28T17:52:22Z</time>
  <course>179.03</course>
  <speed>3.7</speed>
  <fix>3d</fix>
</trkpt>
<trkpt lat="40.0713084" lon="-105.2297985">
  <ele>1583.2</ele>
  <time>2026-08-28T17:52:22Z</time>
  <course>179.89</course>
  <speed>4.031240503864784</speed>
  <fix>3d</fix>
</trkpt>
<trkpt lat="40.0713137" lon="-105.2297988">
  <ele>1583.0</ele>
  <time>2026-08-28T17:52:22Z</time>
  <course>178.85</course>
  <speed>3.89</speed>
  <fix>3d</fix>
</trkpt>
<trkpt lat="40.0713047" lon="-105.2297984">
  <ele>1583.2</ele>
  <time>2026-08-28T17:52:22Z</time>
  <course>179.83</course>
  <speed>4.12146818500398</speed>
  <fix>3d</fix>
</trkpt>
<trkpt lat="40.0713137" lon="-105.2297988">
  <ele>1583.0</ele>
  <time>2026-08-28T17:52:22Z</time>
  <course>178.85</course>
  <speed>3.89</speed>
  <fix>3d</fix>
</trkpt>
<trkpt lat="40.071301" lon="-105.2297983">
  <ele>1583.2</ele>
  <time>2026-08-28T17:52:22Z</time>
  <course>179.78</course>
  <speed>4.21143680945114</speed>
  <fix>3d</fix>
</trkpt>
<trkpt lat="40.0713065" lon="-105.2297987">
  <ele>1583.0</ele>
  <time>2026-08-28T17:52:22Z</time>
  <course>178.73</course>
  <speed>4.08</speed>
  <fix>3d</fix>
</trkpt>
<trkpt lat="40.0712972" lon="-105.2297982">
  <ele>1583.2</ele>
  <time>2026-08-28T17:52:22Z</time>
  <course>179.76</course>
  <speed>4.301406746635338</speed>
  <fix>3d</fix>
</trkpt>
<trkpt lat="40.0713065" lon="-105.2297987">
  <ele>1583.0</ele>
  <time>2026-08-28T17:52:22Z</time>
  <course>178.73</course>
  <speed>4.08</speed>
  <fix>3d</fix>
</trkpt>
<trkpt lat="40.0712941" lon="-105.2297981">
  <ele>1583.2</ele>
  <time>2026-08-28T17:52:22Z</time>
  <course>179.75</course>
  <speed>4.381643527262344</speed>
  <fix>3d</fix>
</trkpt>
<trkpt lat="40.071299" lon="-105.2297984">
  <ele>1583.0</ele>
  <time>2026-08-28T17:52:22Z</time>
  <course>178.65</course>
  <speed>4.27</speed>
  <fix>3d</fix>
</trkpt>
<trkpt lat="40.0712901" lon="-105.229798">
  <ele>1583.2</ele>
  <time>2026-08-28T17:52:22Z</time>
  <course>179.75</course>
  <speed>4.48160685468951</speed>
  <fix>3d</fix>
</trkpt>
<trkpt lat="40.071299" lon="-105.2297984">
  <ele>1583.0</ele>
  <time>2026-08-28T17:52:22Z</time>
  <course>178.65</course>
  <speed>4.27</speed>
  <fix>3d</fix>
</trkpt>
<trkpt lat="40.071286" lon="-105.2297979">
  <ele>1583.2</ele>
  <time>2026-08-28T17:52:22Z</time>
  <course>179.76</course>
  <speed>4.571575220862061</speed>
  <fix>3d</fix>
</trkpt>
<trkpt lat="40.0712912" lon="-105.2297982">
  <ele>1583.0</ele>
  <time>2026-08-28T17:52:22Z</time>
  <course>178.63</course>
  <speed>4.46</speed>
  <fix>3d</fix>
</trkpt>
<trkpt lat="40.0712818" lon="-105.2297977">
  <ele>1583.2</ele>
  <time>2026-08-28T17:52:22Z</time>
  <course>179.76</course>
  <speed>4.661544808322666</speed>
  <fix>3d</fix>
</trkpt>
<trkpt lat="40.0712912" lon="-105.2297982">
  <ele>1583.0</ele>
  <time>2026-08-28T17:52:22Z</time>
  <course>178.63</course>
  <speed>4.46</speed>
  <fix>3d</fix>
</trkpt>
<trkpt lat="40.0712776" lon="-105.2297976">
  <ele>1583.2</ele>
  <time>2026-08-28T17:52:22Z</time>
  <course>179.76</course>
  <speed>4.741518744031284</speed>
  <fix>3d</fix>
</trkpt>
<trkpt lat="40.071283" lon="-105.2297979">
  <ele>1583.0</ele>
  <time>2026-08-28T17:52:22Z</time>
  <course>178.63</course>
  <speed>4.64</speed>
  <fix>3d</fix>
</trkpt>
<trkpt lat="40.0712732" lon="-105.2297975">
  <ele>1583.19</ele>
  <time>2026-08-28T17:52:22Z</time>
  <course>179.77</course>
  <speed>4.811496648653099</speed>
  <fix>3d</fix>
</trkpt>
<trkpt lat="40.071283" lon="-105.2297979">
  <ele>1583.0</ele>
  <time>2026-08-28T17:52:22Z</time>
  <course>178.63</course>
  <speed>4.64</speed>
  <fix>3d</fix>
</trkpt>
<trkpt lat="40.0712689" lon="-105.2297974">
  <ele>1583.19</ele>
  <time>2026-08-28T17:52:22Z</time>
  <course>179.79</course>
  <speed>4.851484308951231</speed>
  <fix>3d</fix>
</trkpt>
<trkpt lat="40.0712745" lon="-105.2297977">
  <ele>1583.0</ele>
  <time>2026-08-28T17:52:22Z</time>
  <course>178.64</course>
  <speed>4.78</speed>
  <fix>3d</fix>
</trkpt>
<trkpt lat="40.0712644" lon="-105.2297972">
  <ele>1583.18</ele>
  <time>2026-08-28T17:52:22Z</time>
  <course>179.81</course>
  <speed>4.861481255749116</speed>
  <fix>3d</fix>
</trkpt>
<trkpt lat="40.0712745" lon="-105.2297977">
  <ele>1583.0</ele>
  <time>2026-08-28T17:52:22Z</time>
  <course>178.64</course>
  <speed>4.78</speed>
  <fix>3d</fix>
</trkpt>
<trkpt lat="40.07126" lon="-105.2297971">
  <ele>1583.18</ele>
  <time>2026-08-28T17:52:22Z</time>
  <course>179.87</course>
  <speed>4.841249838626385</speed>
  <fix>3d</fix>
</trkpt>
<trkpt lat="40.0712659" lon="-105.2297974">
  <ele>1583.0</ele>
  <time>2026-08-28T17:52:22Z</time>
  <course>178.69</course>
  <speed>4.82</speed>
  <fix>3d</fix>
</trkpt>
<trkpt lat="40.0712548" lon="-105.229797">
  <ele>1583.18</ele>
  <time>2026-08-28T17:52:22Z</time>
  <course>179.92</course>
  <speed>4.781265522850618</speed>
  <fix>3d</fix>
</trkpt>
<trkpt lat="40.0712659" lon="-105.2297974">
  <ele>1583.0</ele>
  <time>2026-08-28T17:52:22Z</time>
  <course>178.69</course>
  <speed>4.82</speed>
  <fix>3d</fix>
</trkpt>
<trkpt lat="40.0712506" lon="-105.2297969">
  <ele>1583.18</ele>
  <time>2026-08-28T17:52:22Z</time>
  <course>179.98</course>
  <speed>4.71128432595614</speed>
  <fix>3d</fix>
</trkpt>
<trkpt lat="40.0712573" lon="-105.2297972">
  <ele>1583.0</ele>
  <time>2026-08-28T17:52:22Z</time>
  <course>178.78</course>
  <speed>4.76</speed>
  <fix>3d</fix>
</trkpt>
<trkpt lat="40.0712464" lon="-105.2297968">
  <ele>1583.18</ele>
  <time>2026-08-28T17:52:22Z</time>
  <course>180.05</course>
  <speed>4.611084471141252</speed>
  <fix>3d</fix>
</trkpt>
<trkpt lat="40.0712573" lon="-105.2297972">
  <ele>1583.0</ele>
  <time>2026-08-28T17:52:22Z</time>
  <course>178.78</course>
  <speed>4.76</speed>
  <fix>3d</fix>
</trkpt>
<trkpt lat="40.0712423" lon="-105.2297967">
  <ele>1583.17</ele>
  <time>2026-08-28T17:52:22Z</time>
  <course>180.12</course>
  <speed>4.511108511219831</speed>
  <fix>3d</fix>
</trkpt>
<trkpt lat="40.0712488" lon="-105.2297969">
  <ele>1583.0</ele>
  <time>2026-08-28T17:52:22Z</time>
  <course>178.88</course>
  <speed>4.61</speed>
  <fix>3d</fix>
</trkpt>
<trkpt lat="40.0712383" lon="-105.2297966">
  <ele>1583.18</ele>
  <time>2026-08-28T17:52:22Z</time>
  <course>180.18</course>
  <speed>4.38092455995307</speed>
  <fix>3d</fix>
</trkpt>
<trkpt lat="40.0712488" lon="-105.2297969">
  <ele>1583.0</ele>
  <time>2026-08-28T17:52:22Z</time>
  <course>178.88</course>
  <speed>4.61</speed>
  <fix>3d</fix>
</trkpt>
<trkpt lat="40.0712344" lon="-105.2297965">
  <ele>1583.18</ele>
  <time>2026-08-28T17:52:22Z</time>
  <course>180.24</course>
  <speed>4.250952834365491</speed>
  <fix>3d</fix>
</trkpt>
<trkpt lat="40.0712407" lon="-105.2297968">
  <ele>1583.0</ele>
  <time>2026-08-28T17:52:22Z</time>
  <course>179.01</course>
  <speed>4.39</speed>
  <fix>3d</fix>
</trkpt>
<trkpt lat="40.0712307" lon="-105.2297964">
  <ele>1583.18</ele>
  <time>2026-08-28T17:52:22Z</time>
  <course>180.29</course>
  <speed>4.100987685911773</speed>
  <fix>3d</fix>
</trkpt>
<trkpt lat="40.0712407" lon="-105.2297968">
  <ele>1583.0</ele>
  <time>2026-08-28T17:52:22Z</time>
  <course>179.01</course>
  <speed>4.39</speed>
  <fix>3d</fix>
</trkpt>
<trkpt lat="40.0712272" lon="-105.2297963">
  <ele>1583.18</ele>
  <time>2026-08-28T17:52:22Z</time>
  <course>180.35</course>
  <speed>3.9508100435227202</speed>
  <fix>3d</fix>
</trkpt>
<trkpt lat="40.0712331" lon="-105.2297965">
  <ele>1583.0</ele>
  <time>2026-08-28T17:52:22Z</time>
  <course>179.12</course>
  <speed>4.12</speed>
  <fix>3d</fix>
</trkpt>
<trkpt lat="40.0712238" lon="-105.2297962">
  <ele>1583.19</ele>
  <time>2026-08-28T17:52:22Z</time>
  <course>180.4</course>
  <speed>3.790844233149128</speed>
  <fix>3d</fix>
</trkpt>
<trkpt lat="40.0712331" lon="-105.2297965">
  <ele>1583.0</ele>
  <time>2026-08-28T17:52:22Z</time>
  <course>179.12</course>
  <speed>4.12</speed>
  <fix>3d</fix>
</trkpt>
<trkpt lat="40.0712205" lon="-105.2297962">
  <ele>1583.19</ele>
  <time>2026-08-28T17:52:22Z</time>
  <course>180.44</course>
  <speed>3.6208838699963852</speed>
  <fix>3d</fix>
</trkpt>
<trkpt lat="40.0712259" lon="-105.2297964">
  <ele>1583.0</ele>
  <time>2026-08-28T17:52:22Z</time>
  <course>179.23</course>
  <speed>3.82</speed>
  <fix>3d</fix>
</trkpt>
<trkpt lat="40.0712174" lon="-105.2297961">
  <ele>1583.19</ele>
  <time>2026-08-28T17:52:22Z</time>
  <course>180.54</course>
  <speed>3.4607080200444535</speed>
  <fix>3d</fix>
</trkpt>
<trkpt lat="40.0712259" lon="-105.2297964">
  <ele>1583.0</ele>
  <time>2026-08-28T17:52:22Z</time>
  <course>179.23</course>
  <speed>3.82</speed>
  <fix>3d</fix>
</trkpt>
<trkpt lat="40.0712144" lon="-105.229796">
  <ele>1583.2</ele>
  <time>2026-08-28T17:52:22Z</time>
  <course>180.62</course>
  <speed>3.3007423407470027</speed>
  <fix>3d</fix>
</trkpt>
<trkpt lat="40.0712193" lon="-105.2297963">
  <ele>1583.0</ele>
  <time>2026-08-28T17:52:22Z</time>
  <course>179.37</course>
  <speed>3.51</speed>
  <fix>3d</fix>
</trkpt>
<trkpt lat="40.0712121" lon="-105.229796">
  <ele>1583.2</ele>
  <time>2026-08-28T17:52:22Z</time>
  <course>180.69</course>
  <speed>3.170567772497538</speed>
  <fix>3d</fix>
</trkpt>
<trkpt lat="40.0712193" lon="-105.2297963">
  <ele>1583.0</ele>
  <time>2026-08-28T17:52:22Z</time>
  <course>179.37</course>
  <speed>3.51</speed>
  <fix>3d</fix>
</trkpt>
<trkpt lat="40.0712094" lon="-105.229796">
  <ele>1583.19</ele>
  <time>2026-08-28T17:52:22Z</time>
  <course>180.77</course>
  <speed>3.0105979472523394</speed>
  <fix>3d</fix>
</trkpt>
<trkpt lat="40.0712132" lon="-105.2297962">
  <ele>1583.0</ele>
  <time>2026-08-28T17:52:22Z</time>
  <course>179.55</course>
  <speed>3.2</speed>
  <fix>3d</fix>
</trkpt>
<trkpt lat="40.0712068" lon="-105.2297959">
  <ele>1583.19</ele>
  <time>2026-08-28T17:52:22Z</time>
  <course>180.84</course>
  <speed>2.8504385627478452</speed>
  <fix>3d</fix>
</trkpt>
<trkpt lat="40.0712132" lon="-105.2297962">
  <ele>1583.0</ele>
  <time>2026-08-28T17:52:22Z</time>
  <course>179.55</course>
  <speed>3.2</speed>
  <fix>3d</fix>
</trkpt>
<trkpt lat="40.0712044" lon="-105.2297959">
  <ele>1583.19</ele>
  <time>2026-08-28T17:52:22Z</time>
  <course>180.92</course>
  <speed>2.700462923278155</speed>
  <fix>3d</fix>
</trkpt>
<trkpt lat="40.0712077" lon="-105.2297962">
  <ele>1583.0</ele>
  <time>2026-08-28T17:52:22Z</time>
  <course>179.72</course>
  <speed>2.9</speed>
  <fix>3d</fix>
</trkpt>
<trkpt lat="40.071202" lon="-105.2297959">
  <ele>1583.19</ele>
  <time>2026-08-28T17:52:22Z</time>
  <course>181.02</course>
  <speed>2.5603124809288413</speed>
  <fix>3d</fix>
</trkpt>
<trkpt lat="40.0712077" lon="-105.2297962">
  <ele>1583.0</ele>
  <time>2026-08-28T17:52:22Z</time>
  <course>179.72</course>
  <speed>2.9</speed>
  <fix>3d</fix>
</trkpt>
<trkpt lat="40.0711998" lon="-105.2297959">
  <ele>1583.19</ele>
  <time>2026-08-28T17:52:22Z</time>
  <course>181.11</course>
  <speed>2.4203305559365234</speed>
  <fix>3d</fix>
</trkpt>
<trkpt lat="40.0712028" lon="-105.2297962">
  <ele>1583.0</ele>
  <time>2026-08-28T17:52:22Z</time>
  <course>179.91</course>
  <speed>2.61</speed>
  <fix>3d</fix>
</trkpt>
<trkpt lat="40.0711977" lon="-105.2297959">
  <ele>1583.19</ele>
  <time>2026-08-28T17:52:22Z</time>
  <course>181.2</course>
  <speed>2.2801973598791836</speed>
  <fix>3d</fix>
</trkpt>
<trkpt lat="40.0712028" lon="-105.2297962">
  <ele>1583.0</ele>
  <time>2026-08-28T17:52:22Z</time>
  <course>179.91</course>
  <speed>2.61</speed>
  <fix>3d</fix>
</trkpt>
<trkpt lat="40.0711957" lon="-105.2297959">
  <ele>1583.19</ele>
  <time>2026-08-28T17:52:22Z</time>
  <course>181.29</course>
  <speed>2.1402102700435766</speed>
  <fix>3d</fix>
</trkpt>
<trkpt lat="40.0711984" lon="-105.2297962">
  <ele>1583.0</ele>
  <time>2026-08-28T17:52:22Z</time>
  <course>180.12</course>
  <speed>2.33</speed>
  <fix>3d</fix>
</trkpt>
<trkpt lat="40.0711938" lon="-105.2297959">
  <ele>1583.19</ele>
  <time>2026-08-28T17:52:22Z</time>
  <course>181.39</course>
  <speed>2.010099500024812</speed>
  <fix>3d</fix>
</trkpt>
<trkpt lat="40.0711984" lon="-105.2297962">
  <ele>1583.0</ele>
  <time>2026-08-28T17:52:22Z</time>
  <course>180.12</course>
  <speed>2.33</speed>
  <fix>3d</fix>
</trkpt>
<trkpt lat="40.0711917" lon="-105.2297959">
  <ele>1583.19</ele>
  <time>2026-08-28T17:52:22Z</time>
  <course>181.51</course>
  <speed>1.8701069488133562</speed>
  <fix>3d</fix>
</trkpt>
<trkpt lat="40.0711944" lon="-105.2297962">
  <ele>1583.0</ele>
  <time>2026-08-28T17:52:22Z</time>
  <course>180.33</course>
  <speed>2.08</speed>
  <fix>3d</fix>
</trkpt>
<trkpt lat="40.0711901" lon="-105.2297959">
  <ele>1583.18</ele>
  <time>2026-08-28T17:52:22Z</time>
  <course>181.61</course>
  <speed>1.750028571195339</speed>
  <fix>3d</fix>
</trkpt>
<trkpt lat="40.0711944" lon="-105.2297962">
  <ele>1583.0</ele>
  <time>2026-08-28T17:52:22Z</time>
  <course>180.33</course>
  <speed>2.08</speed>
  <fix>3d</fix>
</trkpt>
<trkpt lat="40.0711885" lon="-105.229796">
  <ele>1583.18</ele>
  <time>2026-08-28T17:52:22Z</time>
  <course>181.72</course>
  <speed>1.6300306745579973</speed>
  <fix>3d</fix>
</trkpt>
<trkpt lat="40.0711909" lon="-105.2297962">
  <ele>1583.0</ele>
  <time>2026-08-28T17:52:22Z</time>
  <course>180.56</course>
  <speed>1.84</speed>
  <fix>3d</fix>
</trkpt>
<trkpt lat="40.0711871" lon="-105.229796">
  <ele>1583.18</ele>
  <time>2026-08-28T17:52:22Z</time>
  <course>181.83</course>
  <speed>1.5200328943809078</speed>
  <fix>3d</fix>
</trkpt>
<trkpt lat="40.0711909" lon="-105.2297962">
  <ele>1583.0</ele>
  <time>2026-08-28T17:52:22Z</time>
  <course>180.56</course>
  <speed>1.84</speed>
  <fix>3d</fix>
</trkpt>
<trkpt lat="40.0711858" lon="-105.229796">
  <ele>1583.18</ele>
  <time>2026-08-28T17:52:22Z</time>
  <course>181.94</course>
  <speed>1.41</speed>
  <fix>3d</fix>
</trkpt>
<trkpt lat="40.0711878" lon="-105.2297962">
  <ele>1583.0</ele>
  <time>2026-08-28T17:52:22Z</time>
  <course>180.8</course>
  <speed>1.61</speed>
  <fix>3d</fix>
</trkpt>
<trkpt lat="40.0711846" lon="-105.229796">
  <ele>1583.18</ele>
  <time>2026-08-28T17:52:22Z</time>
  <course>182.07</course>
  <speed>1.3</speed>
  <fix>3d</fix>
</trkpt>
<trkpt lat="40.0711878" lon="-105.2297962">
  <ele>1583.0</ele>
  <time>2026-08-28T17:52:22Z</time>
  <course>180.8</course>
  <speed>1.61</speed>
  <fix>3d</fix>
</trkpt>
<trkpt lat="40.0711834" lon="-105.229796">
  <ele>1583.18</ele>
  <time>2026-08-28T17:52:22Z</time>
  <course>182.19</course>
  <speed>1.2</speed>
  <fix>3d</fix>
</trkpt>
<trkpt lat="40.0711851" lon="-105.2297962">
  <ele>1583.0</ele>
  <time>2026-08-28T17:52:22Z</time>
  <course>181.05</course>
  <speed>1.4</speed>
  <fix>3d</fix>
</trkpt>
<trkpt lat="40.0711824" lon="-105.229796">
  <ele>1583.17</ele>
  <time>2026-08-28T17:52:22Z</time>
  <course>182.33</course>
  <speed>1.1</speed>
  <fix>3d</fix>
</trkpt>
<trkpt lat="40.0711851" lon="-105.2297962">
  <ele>1583.0</ele>
  <time>2026-08-28T17:52:22Z</time>
  <course>181.05</course>
  <speed>1.4</speed>
  <fix>3d</fix>
</trkpt>
<trkpt lat="40.0711814" lon="-105.2297961">
  <ele>1583.18</ele>
  <time>2026-08-28T17:52:22Z</time>
  <course>182.48</course>
  <speed>1.0</speed>
  <fix>3d</fix>
</trkpt>
<trkpt lat="40.0711828" lon="-105.2297963">
  <ele>1583.0</ele>
  <time>2026-08-28T17:52:22Z</time>
  <course>181.34</course>
  <speed>1.2</speed>
  <fix>3d</fix>
</trkpt>
<trkpt lat="40.0711805" lon="-105.2297961">
  <ele>1583.18</ele>
  <time>2026-08-28T17:52:22Z</time>
  <course>182.64</course>
  <speed>0.91</speed>
  <fix>3d</fix>
</trkpt>
<trkpt lat="40.0711828" lon="-105.2297963">
  <ele>1583.0</ele>
  <time>2026-08-28T17:52:22Z</time>
  <course>181.34</course>
  <speed>1.2</speed>
  <fix>3d</fix>
</trkpt>
<trkpt lat="40.0711798" lon="-105.2297962">
  <ele>1583.18</ele>
  <time>2026-08-28T17:52:22Z</time>
  <course>182.81</course>
  <speed>0.81</speed>
  <fix>3d</fix>
</trkpt>
<trkpt lat="40.0711807" lon="-105.2297964">
  <ele>1583.0</ele>
  <time>2026-08-28T17:52:22Z</time>
  <course>181.66</course>
  <speed>1.01</speed>
  <fix>3d</fix>
</trkpt>
<trkpt lat="40.0711792" lon="-105.2297962">
  <ele>1583.18</ele>
  <time>2026-08-28T17:52:22Z</time>
  <course>182.93</course>
  <speed>0.74</speed>
  <fix>3d</fix>
</trkpt>
<trkpt lat="40.0711807" lon="-105.2297964">
  <ele>1583.0</ele>
  <time>2026-08-28T17:52:22Z</time>
  <course>181.66</course>
  <speed>1.01</speed>
  <fix>3d</fix>
</trkpt>
<trkpt lat="40.0711785" lon="-105.2297962">
  <ele>1583.18</ele>
  <time>2026-08-28T17:52:22Z</time>
  <course>183.08</course>
  <speed>0.64</speed>
  <fix>3d</fix>
</trkpt>
<trkpt lat="40.0711791" lon="-105.2297964">
  <ele>1583.0</ele>
  <time>2026-08-28T17:52:22Z</time>
  <course>181.98</course>
  <speed>0.82</speed>
  <fix>3d</fix>
</trkpt>
<trkpt lat="40.0711779" lon="-105.2297963">
  <ele>1583.17</ele>
  <time>2026-08-28T17:52:22Z</time>
  <course>183.2</course>
  <speed>0.55</speed>
  <fix>3d</fix>
</trkpt>
<trkpt lat="40.0711791" lon="-105.2297964">
  <ele>1583.0</ele>
  <time>2026-08-28T17:52:22Z</time>
  <course>181.98</course>
  <speed>0.82</speed>
  <fix>3d</fix>
</trkpt>
<trkpt lat="40.0711775" lon="-105.2297963">
  <ele>1583.17</ele>
  <time>2026-08-28T17:52:22Z</time>
  <course>183.31</course>
  <speed>0.46</speed>
  <fix>3d</fix>
</trkpt>
<trkpt lat="40.0711778" lon="-105.2297965">
  <ele>1583.0</ele>
  <time>2026-08-28T17:52:22Z</time>
  <course>182.26</course>
  <speed>0.64</speed>
  <fix>3d</fix>
</trkpt>
<trkpt lat="40.071177" lon="-105.2297964">
  <ele>1583.17</ele>
  <time>2026-08-28T17:52:22Z</time>
  <course>183.39</course>
  <speed>0.37</speed>
  <fix>3d</fix>
</trkpt>
<trkpt lat="40.0711778" lon="-105.2297965">
  <ele>1583.0</ele>
  <time>2026-08-28T17:52:22Z</time>
  <course>182.26</course>
  <speed>0.64</speed>
  <fix>3d</fix>
</trkpt>
<trkpt lat="40.0711767" lon="-105.2297964">
  <ele>1583.17</ele>
  <time>2026-08-28T17:52:22Z</time>
  <course>183.46</course>
  <speed>0.28</speed>
  <fix>3d</fix>
</trkpt>
<trkpt lat="40.0711768" lon="-105.2297966">
  <ele>1583.0</ele>
  <time>2026-08-28T17:52:22Z</time>
  <course>182.47</course>
  <speed>0.46</speed>
  <fix>3d</fix>
</trkpt>
<trkpt lat="40.0711764" lon="-105.2297964">
  <ele>1583.17</ele>
  <time>2026-08-28T17:52:22Z</time>
  <course>183.52</course>
  <speed>0.21</speed>
  <fix>3d</fix>
</trkpt>
<trkpt lat="40.0711768" lon="-105.2297966">
  <ele>1583.0</ele>
  <time>2026-08-28T17:52:22Z</time>
  <course>182.47</course>
  <speed>0.46</speed>
  <fix>3d</fix>
</trkpt>
<trkpt lat="40.0711762" lon="-105.2297964">
  <ele>1583.17</ele>
  <time>2026-08-28T17:52:22Z</time>
  <course>183.56</course>
  <speed>0.15</speed>
  <fix>3d</fix>
</trkpt>
<trkpt lat="40.0711761" lon="-105.2297966">
  <ele>1583.0</ele>
  <time>2026-08-28T17:52:22Z</time>
  <course>182.61</course>
  <speed>0.31</speed>
  <fix>3d</fix>
</trkpt>
<trkpt lat="40.0711761" lon="-105.2297965">
  <ele>1583.16</ele>
  <time>2026-08-28T17:52:22Z</time>
  <course>183.58</course>
  <speed>0.11</speed>
  <fix>3d</fix>
</trkpt>
<trkpt lat="40.0711761" lon="-105.2297966">
  <ele>1583.0</ele>
  <time>2026-08-28T17:52:22Z</time>
  <course>182.61</course>
  <speed>0.31</speed>
  <fix>3d</fix>
</trkpt>
<trkpt lat="40.0711759" lon="-105.2297965">
  <ele>1583.16</ele>
  <time>2026-08-28T17:52:22Z</time>
  <course>183.61</course>
  <speed>0.08</speed>
  <fix>3d</fix>
</trkpt>
<trkpt lat="40.0711756" lon="-105.2297967">
  <ele>1583.0</ele>
  <time>2026-08-28T17:52:22Z</time>
  <course>182.7</course>
  <speed>0.2</speed>
  <fix>3d</fix>
</trkpt>
<trkpt lat="40.0711758" lon="-105.2297965">
  <ele>1583.16</ele>
  <time>2026-08-28T17:52:22Z</time>
  <course>183.62</course>
  <speed>0.06</speed>
  <fix>3d</fix>
</trkpt>
<trkpt lat="40.0711756" lon="-105.2297967">
  <ele>1583.0</ele>
  <time>2026-08-28T17:52:22Z</time>
  <course>182.7</course>
  <speed>0.2</speed>
  <fix>3d</fix>
</trkpt>
<trkpt lat="40.0711757" lon="-105.2297966">
  <ele>1583.15</ele>
  <time>2026-08-28T17:52:22Z</time>
  <course>183.63</course>
  <speed>0.05099019513592785</speed>
  <fix>3d</fix>
</trkpt>
<trkpt lat="40.0711753" lon="-105.2297967">
  <ele>1583.0</ele>
  <time>2026-08-28T17:52:22Z</time>
  <course>182.75</course>
  <speed>0.15</speed>
  <fix>3d</fix>
</trkpt>
<trkpt lat="40.0711756" lon="-105.2297966">
  <ele>1583.15</ele>
  <time>2026-08-28T17:52:22Z</time>
  <course>183.64</course>
  <speed>0.06082762530298219</speed>
  <fix>3d</fix>
</trkpt>
<trkpt lat="40.0711753" lon="-105.2297967">
  <ele>1583.0</ele>
  <time>2026-08-28T17:52:22Z</time>
  <course>182.75</course>
  <speed>0.15</speed>
  <fix>3d</fix>
</trkpt>
<trkpt lat="40.0711755" lon="-105.2297966">
  <ele>1583.15</ele>
  <time>2026-08-28T17:52:22Z</time>
  <course>183.65</course>
  <speed>0.07071067811865475</speed>
  <fix>3d</fix>
</trkpt>
<trkpt lat="40.071175" lon="-105.2297967">
  <ele>1583.0</ele>
  <time>2026-08-28T17:52:22Z</time>
  <course>182.78</course>
  <speed>0.15</speed>
  <fix>3d</fix>
</trkpt>
<trkpt lat="40.0711753" lon="-105.2297967">
  <ele>1583.15</ele>
  <time>2026-08-28T17:52:22Z</time>
  <course>183.65</course>
  <speed>0.09219544457292887</speed>
  <fix>3d</fix>
</trkpt>
<trkpt lat="40.071175" lon="-105.2297967">
  <ele>1583.0</ele>
  <time>2026-08-28T17:52:22Z</time>
  <course>182.78</course>
  <speed>0.15</speed>
  <fix>3d</fix>
</trkpt>
<trkpt lat="40.0711752" lon="-105.2297967">
  <ele>1583.15</ele>
  <time>2026-08-28T17:52:22Z</time>
  <course>183.66</course>
  <speed>0.1118033988749895</speed>
  <fix>3d</fix>
</trkpt>
<trkpt lat="40.0711747" lon="-105.2297967">
  <ele>1583.0</ele>
  <time>2026-08-28T17:52:22Z</time>
  <course>182.79</course>
  <speed>0.17</speed>
  <fix>3d</fix>
</trkpt>
<trkpt lat="40.071175" lon="-105.2297967">
  <ele>1583.14</ele>
  <time>2026-08-28T17:52:22Z</time>
  <course>183.66</course>
  <speed>0.15297058540778355</speed>
  <fix>3d</fix>
</trkpt>
<trkpt lat="40.0711747" lon="-105.2297967">
  <ele>1583.0</ele>
  <time>2026-08-28T17:52:22Z</time>
  <course>182.79</course>
  <speed>0.17</speed>
  <fix>3d</fix>
</trkpt>
<trkpt lat="40.0711747" lon="-105.2297968">
  <ele>1583.14</ele>
  <time>2026-08-28T17:52:22Z</time>
  <course>183.66</course>
  <speed>0.1824828759089466</speed>
  <fix>3d</fix>
</trkpt>
<trkpt lat="40.0711744" lon="-105.2297967">
  <ele>1583.0</ele>
  <time>2026-08-28T17:52:22Z</time>
  <course>182.8</course>
  <speed>0.22</speed>
  <fix>3d</fix>
</trkpt>
<trkpt lat="40.0711745" lon="-105.2297968">
  <ele>1583.14</ele>
  <time>2026-08-28T17:52:22Z</time>
  <course>183.65</course>
  <speed>0.21213203435596426</speed>
  <fix>3d</fix>
</trkpt>
<trkpt lat="40.0711744" lon="-105.2297967">
  <ele>1583.0</ele>
  <time>2026-08-28T17:52:22Z</time>
  <course>182.8</course>
  <speed>0.22</speed>
  <fix>3d</fix>
</trkpt>
<trkpt lat="40.0711742" lon="-105.2297968">
  <ele>1583.14</ele>
  <time>2026-08-28T17:52:22Z</time>
  <course>183.65</course>
  <speed>0.25317977802344327</speed>
  <fix>3d</fix>
</trkpt>
<trkpt lat="40.0711739" lon="-105.2297967">
  <ele>1583.0</ele>
  <time>2026-08-28T17:52:22Z</time>
  <course>182.8</course>
  <speed>0.28</speed>
  <fix>3d</fix>
</trkpt>
<trkpt lat="40.0711739" lon="-105.2297969">
  <ele>1583.14</ele>
  <time>2026-08-28T17:52:22Z</time>
  <course>183.63</course>
  <speed>0.29274562336608895</speed>
  <fix>3d</fix>
</trkpt>
<trkpt lat="40.0711739" lon="-105.2297967">
  <ele>1583.0</ele>
  <time>2026-08-28T17:52:22Z</time>
  <course>182.8</course>
  <speed>0.28</speed>
  <fix>3d</fix>
</trkpt>
<trkpt lat="40.0711736" lon="-105.2297969">
  <ele>1583.14</ele>
  <time>2026-08-28T17:52:22Z</time>
  <course>183.62</course>
  <speed>0.32249030993194194</speed>
  <fix>3d</fix>
</trkpt>
<trkpt lat="40.0711733" lon="-105.2297967">
  <ele>1583.0</ele>
  <time>2026-08-28T17:52:22Z</time>
  <course>182.78</course>
  <speed>0.35</speed>
  <fix>3d</fix>
</trkpt>
<trkpt lat="40.0711732" lon="-105.229797">
  <ele>1583.14</ele>
  <time>2026-08-28T17:52:22Z</time>
  <course>183.59</course>
  <speed>0.3634556369077249</speed>
  <fix>3d</fix>
</trkpt>
<trkpt lat="40.0711733" lon="-105.2297967">
  <ele>1583.0</ele>
  <time>2026-08-28T17:52:22Z</time>
  <course>182.78</course>
  <speed>0.35</speed>
  <fix>3d</fix>
</trkpt>
<trkpt lat="40.0711728" lon="-105.229797">
  <ele>1583.14</ele>
  <time>2026-08-28T17:52:22Z</time>
  <course>183.56</course>
  <speed>0.40311288741492746</speed>
  <fix>3d</fix>
</trkpt>
<trkpt lat="40.0711726" lon="-105.2297968">
  <ele>1583.0</ele>
  <time>2026-08-28T17:52:22Z</time>
  <course>182.73</course>
  <speed>0.43</speed>
  <fix>3d</fix>
</trkpt>
<trkpt lat="40.0711723" lon="-105.229797">
  <ele>1583.14</ele>
  <time>2026-08-28T17:52:22Z</time>
  <course>183.52</course>
  <speed>0.4428317965096906</speed>
  <fix>3d</fix>
</trkpt>
<trkpt lat="40.0711726" lon="-105.2297968">
  <ele>1583.0</ele>
  <time>2026-08-28T17:52:22Z</time>
  <course>182.73</course>
  <speed>0.43</speed>
  <fix>3d</fix>
</trkpt>
<trkpt lat="40.0711718" lon="-105.2297971">
  <ele>1583.13</ele>
  <time>2026-08-28T17:52:22Z</time>
  <course>183.47</course>
  <speed>0.4738143096192854</speed>
  <fix>3d</fix>
</trkpt>
<trkpt lat="40.0711718" lon="-105.2297969">
  <ele>1583.0</ele>
  <time>2026-08-28T17:52:22Z</time>
  <course>182.66</course>
  <speed>0.5</speed>
  <fix>3d</fix>
</trkpt>
<trkpt lat="40.0711713" lon="-105.2297971">
  <ele>1583.13</ele>
  <time>2026-08-28T17:52:22Z</time>
  <course>183.41</course>
  <speed>0.5135172830587107</speed>
  <fix>3d</fix>
</trkpt>
<trkpt lat="40.0711718" lon="-105.2297969">
  <ele>1583.0</ele>
  <time>2026-08-28T17:52:22Z</time>
  <course>182.66</course>
  <speed>0.5</speed>
  <fix>3d</fix>
</trkpt>
<trkpt lat="40.0711708" lon="-105.2297972">
  <ele>1583.13</ele>
  <time>2026-08-28T17:52:22Z</time>
  <course>183.33</course>
  <speed>0.5433231082882449</speed>
  <fix>3d</fix>
</trkpt>
<trkpt lat="40.0711709" lon="-105.2297969">
  <ele>1583.0</ele>
  <time>2026-08-28T17:52:22Z</time>
  <course>182.54</course>
  <speed>0.56</speed>
  <fix>3d</fix>
</trkpt>
<trkpt lat="40.0711702" lon="-105.2297972">
  <ele>1583.13</ele>
  <time>2026-08-28T17:52:22Z</time>
  <course>183.24</course>
  <speed>0.58309518948453</speed>
  <fix>3d</fix>
</trkpt>
<trkpt lat="40.0711709" lon="-105.2297969">
  <ele>1583.0</ele>
  <time>2026-08-28T17:52:22Z</time>
  <course>182.54</course>
  <speed>0.56</speed>
  <fix>3d</fix>
</trkpt>
<trkpt lat="40.0711696" lon="-105.2297973">
  <ele>1583.13</ele>
  <time>2026-08-28T17:52:22Z</time>
  <course>183.13</course>
  <speed>0.6129437168288782</speed>
  <fix>3d</fix>
</trkpt>
<trkpt lat="40.0711698" lon="-105.229797">
  <ele>1583.0</ele>
  <time>2026-08-28T17:52:22Z</time>
  <course>182.37</course>
  <speed>0.62</speed>
  <fix>3d</fix>
</trkpt>
<trkpt lat="40.071169" lon="-105.2297973">
  <ele>1583.13</ele>
  <time>2026-08-28T17:52:22Z</time>
  <course>183.01</course>
  <speed>0.6328506932918696</speed>
  <fix>3d</fix>
</trkpt>
<trkpt lat="40.0711698" lon="-105.229797">
  <ele>1583.0</ele>
  <time>2026-08-28T17:52:22Z</time>
  <course>182.37</course>
  <speed>0.62</speed>
  <fix>3d</fix>
</trkpt>
<trkpt lat="40.0711682" lon="-105.2297974">
  <ele>1583.13</ele>
  <time>2026-08-28T17:52:22Z</time>
  <course>182.83</course>
  <speed>0.6637017402418047</speed>
  <fix>3d</fix>
</trkpt>
<trkpt lat="40.0711686" lon="-105.2297971">
  <ele>1583.0</ele>
  <time>2026-08-28T17:52:22Z</time>
  <course>182.14</course>
  <speed>0.67</speed>
  <fix>3d</fix>
</trkpt>
<trkpt lat="40.0711675" lon="-105.2297974">
  <ele>1583.14</ele>
  <time>2026-08-28T17:52:22Z</time>
  <course>182.65</course>
  <speed>0.6926037828369117</speed>
  <fix>3d</fix>
</trkpt>
<trkpt lat="40.0711686" lon="-105.2297971">
  <ele>1583.0</ele>
  <time>2026-08-28T17:52:22Z</time>
  <course>182.14</course>
  <speed>0.67</speed>
  <fix>3d</fix>
</trkpt>
<trkpt lat="40.0711668" lon="-105.2297975">
  <ele>1583.14</ele>
  <time>2026-08-28T17:52:22Z</time>
  <course>182.45</course>
  <speed>0.7125307010929425</speed>
  <fix>3d</fix>
</trkpt>
<trkpt lat="40.0711673" lon="-105.2297971">
  <ele>1583.0</ele>
  <time>2026-08-28T17:52:22Z</time>
  <course>181.83</course>
  <speed>0.72</speed>
  <fix>3d</fix>
</trkpt>
<trkpt lat="40.0711661" lon="-105.2297975">
  <ele>1583.13</ele>
  <time>2026-08-28T17:52:22Z</time>
  <course>182.21</course>
  <speed>0.7424284477308234</speed>
  <fix>3d</fix>
</trkpt>
<trkpt lat="40.0711673" lon="-105.2297971">
  <ele>1583.0</ele>
  <time>2026-08-28T17:52:22Z</time>
  <course>181.83</course>
  <speed>0.72</speed>
  <fix>3d</fix>
</trkpt>
<trkpt lat="40.0711654" lon="-105.2297976">
  <ele>1583.13</ele>
  <time>2026-08-28T17:52:22Z</time>
  <course>181.94</course>
  <speed>0.7523961722390672</speed>
  <fix>3d</fix>
</trkpt>
<trkpt lat="40.071166" lon="-105.2297971">
  <ele>1583.0</ele>
  <time>2026-08-28T17:52:22Z</time>
  <course>181.4</course>
  <speed>0.76</speed>
  <fix>3d</fix>
</trkpt>
<trkpt lat="40.0711646" lon="-105.2297976">
  <ele>1583.13</ele>
  <time>2026-08-28T17:52:22Z</time>
  <course>181.63</course>
  <speed>0.771621668954417</speed>
  <fix>3d</fix>
</trkpt>
<trkpt lat="40.071166" lon="-105.2297971">
  <ele>1583.0</ele>
  <time>2026-08-28T17:52:22Z</time>
  <course>181.4</course>
  <speed>0.76</speed>
  <fix>3d</fix>
</trkpt>
<trkpt lat="40.0711639" lon="-105.2297976">
  <ele>1583.13</ele>
  <time>2026-08-28T17:52:22Z</time>
  <course>181.27</course>
  <speed>0.791580697086532</speed>
  <fix>3d</fix>
</trkpt>
<trkpt lat="40.0711645" lon="-105.2297972">
  <ele>1583.0</ele>
  <time>2026-08-28T17:52:22Z</time>
  <course>180.83</course>
  <speed>0.8</speed>
  <fix>3d</fix>
</trkpt>
<trkpt lat="40.0711631" lon="-105.2297976">
  <ele>1583.13</ele>
  <time>2026-08-28T17:52:22Z</time>
  <course>180.85</course>
  <speed>0.8109870529176159</speed>
  <fix>3d</fix>
</trkpt>
<trkpt lat="40.0711645" lon="-105.2297972">
  <ele>1583.0</ele>
  <time>2026-08-28T17:52:22Z</time>
  <course>180.83</course>
  <speed>0.8</speed>
  <fix>3d</fix>
</trkpt>
<trkpt lat="40.0711624" lon="-105.2297976">
  <ele>1583.13</ele>
  <time>2026-08-28T17:52:22Z</time>
  <course>180.37</course>
  <speed>0.8309632964216891</speed>
  <fix>3d</fix>
</trkpt>
<trkpt lat="40.0711631" lon="-105.2297973">
  <ele>1583.0</ele>
  <time>2026-08-28T17:52:22Z</time>
  <course>180.07</course>
  <speed>0.83</speed>
  <fix>3d</fix>
</trkpt>
<trkpt lat="40.0711616" lon="-105.2297976">
  <ele>1583.12</ele>
  <time>2026-08-28T17:52:22Z</time>
  <course>179.79</course>
  <speed>0.840535543567314</speed>
  <fix>3d</fix>
</trkpt>
<trkpt lat="40.0711631" lon="-105.2297973">
  <ele>1583.0</ele>
  <time>2026-08-28T17:52:22Z</time>
  <course>180.07</course>
  <speed>0.83</speed>
  <fix>3d</fix>
</trkpt>
<trkpt lat="40.0711608" lon="-105.2297976">
  <ele>1583.12</ele>
  <time>2026-08-28T17:52:22Z</time>
  <course>179.13</course>
  <speed>0.8602325267042628</speed>
  <fix>3d</fix>
</trkpt>
<trkpt lat="40.0711615" lon="-105.2297973">
  <ele>1583.0</ele>
  <time>2026-08-28T17:52:22Z</time>
  <course>179.04</course>
  <speed>0.86</speed>
  <fix>3d</fix>
</trkpt>
<trkpt lat="40.0711601" lon="-105.2297976">
  <ele>1583.12</ele>
  <time>2026-08-28T17:52:22Z</time>
  <course>178.52</course>
  <speed>0.8700574693662483</speed>
  <fix>3d</fix>
</trkpt>
<trkpt lat="40.0711615" lon="-105.2297973">
  <ele>1583.0</ele>
  <time>2026-08-28T17:52:22Z</time>
  <course>179.04</course>
  <speed>0.86</speed>
  <fix>3d</fix>
</trkpt>
<trkpt lat="40.0711593" lon="-105.2297975">
  <ele>1583.12</ele>
  <time>2026-08-28T17:52:22Z</time>
  <course>177.64</course>
  <speed>0.89</speed>
  <fix>3d</fix>
</trkpt>
<trkpt lat="40.07116" lon="-105.2297972">
  <ele>1583.0</ele>
  <time>2026-08-28T17:52:22Z</time>
  <course>177.63</course>
  <speed>0.89</speed>
  <fix>3d</fix>
</trkpt>
<trkpt lat="40.0711584" lon="-105.2297975">
  <ele>1583.12</ele>
  <time>2026-08-28T17:52:22Z</time>
  <course>176.61</course>
  <speed>0.900222194794152</speed>
  <fix>3d</fix>
</trkpt>
<trkpt lat="40.07116" lon="-105.2297972">
  <ele>1583.0</ele>
  <time>2026-08-28T17:52:22Z</time>
  <course>177.63</course>
  <speed>0.89</speed>
  <fix>3d</fix>
</trkpt>
<trkpt lat="40.0711576" lon="-105.2297975">
  <ele>1583.13</ele>
  <time>2026-08-28T17:52:22Z</time>
  <course>175.39</course>
  <speed>0.9108786966440703</speed>
  <fix>3d</fix>
</trkpt>
<trkpt lat="40.0711584" lon="-105.2297971">
  <ele>1583.0</ele>
  <time>2026-08-28T17:52:22Z</time>
  <course>175.69</course>
  <speed>0.92</speed>
  <fix>3d</fix>
</trkpt>
<trkpt lat="40.0711567" lon="-105.2297973">
  <ele>1583.13</ele>
  <time>2026-08-28T17:52:22Z</time>
  <course>173.95</course>
  <speed>0.931933474020544</speed>
  <fix>3d</fix>
</trkpt>
<trkpt lat="40.0711584" lon="-105.2297971">
  <ele>1583.0</ele>
  <time>2026-08-28T17:52:22Z</time>
  <course>175.69</course>
  <speed>0.92</speed>
  <fix>3d</fix>
</trkpt>
<trkpt lat="40.0711559" lon="-105.2297972">
  <ele>1583.13</ele>
  <time>2026-08-28T17:52:22Z</time>
  <course>172.24</course>
  <speed>0.9442986815621421</speed>
  <fix>3d</fix>
</trkpt>
<trkpt lat="40.0711567" lon="-105.2297969">
  <ele>1583.0</ele>
  <time>2026-08-28T17:52:22Z</time>
  <course>172.98</course>
  <speed>0.95</speed>
  <fix>3d</fix>
</trkpt>
<trkpt lat="40.071155" lon="-105.229797">
  <ele>1583.13</ele>
  <time>2026-08-28T17:52:22Z</time>
  <course>170.19</course>
  <speed>0.9588534820294495</speed>
  <fix>3d</fix>
</trkpt>
<trkpt lat="40.0711567" lon="-105.2297969">
  <ele>1583.0</ele>
  <time>2026-08-28T17:52:22Z</time>
  <course>172.98</course>
  <speed>0.95</speed>
  <fix>3d</fix>
</trkpt>
<trkpt lat="40.0711541" lon="-105.2297968">
  <ele>1583.13</ele>
  <time>2026-08-28T17:52:22Z</time>
  <course>167.73</course>
  <speed>0.9767292357659824</speed>
  <fix>3d</fix>
</trkpt>
<trkpt lat="40.071155" lon="-105.2297965">
  <ele>1583.0</ele>
  <time>2026-08-28T17:52:22Z</time>
  <course>169.15</course>
  <speed>0.98</speed>
  <fix>3d</fix>
</trkpt>
<trkpt lat="40.0711532" lon="-105.2297964">
  <ele>1583.13</ele>
  <time>2026-08-28T17:52:22Z</time>
  <course>164.79</course>
  <speed>0.9968951800465282</speed>
  <fix>3d</fix>
</trkpt>
<trkpt lat="40.071155" lon="-105.2297965">
  <ele>1583.0</ele>
  <time>2026-08-28T17:52:22Z</time>
  <course>169.15</course>
  <speed>0.98</speed>
  <fix>3d</fix>
</trkpt>
<trkpt lat="40.0711523" lon="-105.2297961">
  <ele>1583.14</ele>
  <time>2026-08-28T17:52:22Z</time>
  <course>161.32</course>
  <speed>1.0057832768544126</speed>
  <fix>3d</fix>
</trkpt>
<trkpt lat="40.0711532" lon="-105.229796">
  <ele>1583.0</ele>
  <time>2026-08-28T17:52:22Z</time>
  <course>163.69</course>
  <speed>1.01</speed>
  <fix>3d</fix>
</trkpt>
<trkpt lat="40.0711512" lon="-105.2297955">
  <ele>1583.14</ele>
  <time>2026-08-28T17:52:22Z</time>
  <course>156.42</course>
  <speed>1.0269371937952194</speed>
  <fix>3d</fix>
</trkpt>
<trkpt lat="40.0711532" lon="-105.229796">
  <ele>1583.0</ele>
  <time>2026-08-28T17:52:22Z</time>
  <course>163.69</course>
  <speed>1.01</speed>
  <fix>3d</fix>
</trkpt>
<trkpt lat="40.0711503" lon="-105.2297949">
  <ele>1583.14</ele>
  <time>2026-08-28T17:52:22Z</time>
  <course>151.68</course>
  <speed>1.0465658125507444</speed>
  <fix>3d</fix>
</trkpt>
<trkpt lat="40.0711515" lon="-105.2297952">
  <ele>1583.0</ele>
  <time>2026-08-28T17:52:22Z</time>
  <course>156.15</course>
  <speed>1.04</speed>
  <fix>3d</fix>
</trkpt>
<trkpt lat="40.0711495" lon="-105.2297942">
  <ele>1583.14</ele>
  <time>2026-08-28T17:52:22Z</time>
  <course>146.29</course>
  <speed>1.0623088063270492</speed>
  <fix>3d</fix>
</trkpt>
<trkpt lat="40.0711515" lon="-105.2297952">
  <ele>1583.0</ele>
  <time>2026-08-28T17:52:22Z</time>
  <course>156.15</course>
  <speed>1.04</speed>
  <fix>3d</fix>
</trkpt>
<trkpt lat="40.0711487" lon="-105.2297934">
  <ele>1583.14</ele>
  <time>2026-08-28T17:52:22Z</time>
  <course>140.22</course>
  <speed>1.0870602559196063</speed>
  <fix>3d</fix>
</trkpt>
<trkpt lat="40.0711498" lon="-105.229794">
  <ele>1583.0</ele>
  <time>2026-08-28T17:52:22Z</time>
  <course>146.22</course>
  <speed>1.08</speed>
  <fix>3d</fix>
</trkpt>
<trkpt lat="40.071148" lon="-105.2297924">
  <ele>1583.13</ele>
  <time>2026-08-28T17:52:22Z</time>
  <course>133.48</course>
  <speed>1.1034491379306979</speed>
  <fix>3d</fix>
</trkpt>
<trkpt lat="40.0711498" lon="-105.229794">
  <ele>1583.0</ele>
  <time>2026-08-28T17:52:22Z</time>
  <course>146.22</course>
  <speed>1.08</speed>
  <fix>3d</fix>
</trkpt>
<trkpt lat="40.0711473" lon="-105.2297914">
  <ele>1583.13</ele>
  <time>2026-08-28T17:52:22Z</time>
  <course>126.23</course>
  <speed>1.124144118874444</speed>
  <fix>3d</fix>
</trkpt>
<trkpt lat="40.0711483" lon="-105.2297923">
  <ele>1583.0</ele>
  <time>2026-08-28T17:52:22Z</time>
  <course>133.68</course>
  <speed>1.11</speed>
  <fix>3d</fix>
</trkpt>
<trkpt lat="40.0711468" lon="-105.2297902">
  <ele>1583.13</ele>
  <time>2026-08-28T17:52:22Z</time>
  <course>118.86</course>
  <speed>1.1364858116140297</speed>
  <fix>3d</fix>
</trkpt>
<trkpt lat="40.0711483" lon="-105.2297923">
  <ele>1583.0</ele>
  <time>2026-08-28T17:52:22Z</time>
  <course>133.68</course>
  <speed>1.11</speed>
  <fix>3d</fix>
</trkpt>
<trkpt lat="40.0711464" lon="-105.2297889">
  <ele>1583.13</ele>
  <time>2026-08-28T17:52:22Z</time>
  <course>111.38</course>
  <speed>1.1516944039110375</speed>
  <fix>3d</fix>
</trkpt>
<trkpt lat="40.0711471" lon="-105.2297902">
  <ele>1583.0</ele>
  <time>2026-08-28T17:52:22Z</time>
  <course>119.35</course>
  <speed>1.15</speed>
  <fix>3d</fix>
</trkpt>
<trkpt lat="40.0711461" lon="-105.2297875">
  <ele>1583.13</ele>
  <time>2026-08-28T17:52:22Z</time>
  <course>103.79</course>
  <speed>1.1670903992407786</speed>
  <fix>3d</fix>
</trkpt>
<trkpt lat="40.0711471" lon="-105.2297902">
  <ele>1583.0</ele>
  <time>2026-08-28T17:52:22Z</time>
  <course>119.35</course>
  <speed>1.15</speed>
  <fix>3d</fix>
</trkpt>
<trkpt lat="40.0711459" lon="-105.2297861">
  <ele>1583.13</ele>
  <time>2026-08-28T17:52:22Z</time>
  <course>96.1</course>
  <speed>1.1933985084622822</speed>
  <fix>3d</fix>
</trkpt>
<trkpt lat="40.0711463" lon="-105.2297876">
  <ele>1583.0</ele>
  <time>2026-08-28T17:52:22Z</time>
  <course>104.34</course>
  <speed>1.18</speed>
  <fix>3d</fix>
</trkpt>
<trkpt lat="40.0711459" lon="-105.2297846">
  <ele>1583.13</ele>
  <time>2026-08-28T17:52:22Z</time>
  <course>88.32</course>
  <speed>1.2020399327809372</speed>
  <fix>3d</fix>
</trkpt>
<trkpt lat="40.0711463" lon="-105.2297876">
  <ele>1583.0</ele>
  <time>2026-08-28T17:52:22Z</time>
  <course>104.34</course>
  <speed>1.18</speed>
  <fix>3d</fix>
</trkpt>
<trkpt lat="40.0711461" lon="-105.2297835">
  <ele>1583.14</ele>
  <time>2026-08-28T17:52:22Z</time>
  <course>81.98</course>
  <speed>1.2182364302548172</speed>
  <fix>3d</fix>
</trkpt>
<trkpt lat="40.0711461" lon="-105.2297849">
  <ele>1583.0</ele>
  <time>2026-08-28T17:52:22Z</time>
  <course>88.95</course>
  <speed>1.21</speed>
  <fix>3d</fix>
</trkpt>
<trkpt lat="40.0711464" lon="-105.229782">
  <ele>1583.14</ele>
  <time>2026-08-28T17:52:22Z</time>
  <course>74.08</course>
  <speed>1.2301625908797584</speed>
  <fix>3d</fix>
</trkpt>
<trkpt lat="40.0711461" lon="-105.2297849">
  <ele>1583.0</ele>
  <time>2026-08-28T17:52:22Z</time>
  <course>88.95</course>
  <speed>1.21</speed>
  <fix>3d</fix>
</trkpt>
<trkpt lat="40.0711468" lon="-105.2297806">
  <ele>1583.14</ele>
  <time>2026-08-28T17:52:22Z</time>
  <course>66.15</course>
  <speed>1.238789731956154</speed>
  <fix>3d</fix>
</trkpt>
<trkpt lat="40.0711464" lon="-105.2297821">
  <ele>1583.0</ele>
  <time>2026-08-28T17:52:22Z</time>
  <course>73.27</course>
  <speed>1.23</speed>
  <fix>3d</fix>
</trkpt>
<trkpt lat="40.0711473" lon="-105.2297793">
  <ele>1583.14</ele>
  <time>2026-08-28T17:52:22Z</time>
  <course>58.27</course>
  <speed>1.2453513560437472</speed>
  <fix>3d</fix>
</trkpt>
<trkpt lat="40.0711464" lon="-105.2297821">
  <ele>1583.0</ele>
  <time>2026-08-28T17:52:22Z</time>
  <course>73.27</course>
  <speed>1.23</speed>
  <fix>3d</fix>
</trkpt>
<trkpt lat="40.071148" lon="-105.2297781">
  <ele>1583.14</ele>
  <time>2026-08-28T17:52:22Z</time>
  <course>50.38</course>
  <speed>1.245792920191795</speed>
  <fix>3d</fix>
</trkpt>
<trkpt lat="40.0711473" lon="-105.2297794">
  <ele>1583.0</ele>
  <time>2026-08-28T17:52:22Z</time>
  <course>57.49</course>
  <speed>1.23</speed>
  <fix>3d</fix>
</trkpt>
<trkpt lat="40.0711489" lon="-105.2297771">
  <ele>1583.13</ele>
  <time>2026-08-28T17:52:22Z</time>
  <course>43.04</course>
  <speed>1.241974234837422</speed>
  <fix>3d</fix>
</trkpt>
<trkpt lat="40.0711473" lon="-105.2297794">
  <ele>1583.0</ele>
  <time>2026-08-28T17:52:22Z</time>
  <course>57.49</course>
  <speed>1.23</speed>
  <fix>3d</fix>
</trkpt>
<trkpt lat="40.0711498" lon="-105.2297762">
  <ele>1583.13</ele>
  <time>2026-08-28T17:52:22Z</time>
  <course>36.34</course>
  <speed>1.2425779653607254</speed>
  <fix>3d</fix>
</trkpt>
<trkpt lat="40.0711486" lon="-105.2297772">
  <ele>1583.0</ele>
  <time>2026-08-28T17:52:22Z</time>
  <course>42.59</course>
  <speed>1.22</speed>
  <fix>3d</fix>
</trkpt>
<trkpt lat="40.0711508" lon="-105.2297754">
  <ele>1583.13</ele>
  <time>2026-08-28T17:52:22Z</time>
  <course>30.25</course>
  <speed>1.2389108119634762</speed>
  <fix>3d</fix>
</trkpt>
<trkpt lat="40.0711486" lon="-105.2297772">
  <ele>1583.0</ele>
  <time>2026-08-28T17:52:22Z</time>
  <course>42.59</course>
  <speed>1.22</speed>
  <fix>3d</fix>
</trkpt>
<trkpt lat="40.0711518" lon="-105.2297748">
  <ele>1583.13</ele>
  <time>2026-08-28T17:52:22Z</time>
  <course>24.91</course>
  <speed>1.238587905640936</speed>
  <fix>3d</fix>
</trkpt>
<trkpt lat="40.0711504" lon="-105.2297756">
  <ele>1583.0</ele>
  <time>2026-08-28T17:52:22Z</time>
  <course>29.89</course>
  <speed>1.21</speed>
  <fix>3d</fix>
</trkpt>
<trkpt lat="40.0711528" lon="-105.2297743">
  <ele>1583.13</ele>
  <time>2026-08-28T17:52:22Z</time>
  <course>20.25</course>
  <speed>1.2336936410632908</speed>
  <fix>3d</fix>
</trkpt>
<trkpt lat="40.0711504" lon="-105.2297756">
  <ele>1583.0</ele>
  <time>2026-08-28T17:52:22Z</time>
  <course>29.89</course>
  <speed>1.21</speed>
  <fix>3d</fix>
</trkpt>
<trkpt lat="40.0711541" lon="-105.2297739">
  <ele>1583.13</ele>
  <time>2026-08-28T17:52:22Z</time>
  <course>15.5</course>
  <speed>1.2278436382536662</speed>
  <fix>3d</fix>
</trkpt>
<trkpt lat="40.0711524" lon="-105.2297744">
  <ele>1583.0</ele>
  <time>2026-08-28T17:52:22Z</time>
  <course>19.84</course>
  <speed>1.19</speed>
  <fix>3d</fix>
</trkpt>
<trkpt lat="40.0711552" lon="-105.2297736">
  <ele>1583.13</ele>
  <time>2026-08-28T17:52:22Z</time>
  <course>12.17</course>
  <speed>1.2347064428438042</speed>
  <fix>3d</fix>
</trkpt>
<trkpt lat="40.0711524" lon="-105.2297744">
  <ele>1583.0</ele>
  <time>2026-08-28T17:52:22Z</time>
  <course>19.84</course>
  <speed>1.19</speed>
  <fix>3d</fix>
</trkpt>
<trkpt lat="40.0711563" lon="-105.2297734">
  <ele>1583.13</ele>
  <time>2026-08-28T17:52:22Z</time>
  <course>9.34</course>
  <speed>1.2368508398347797</speed>
  <fix>3d</fix>
</trkpt>
<trkpt lat="40.0711544" lon="-105.2297735">
  <ele>1583.0</ele>
  <time>2026-08-28T17:52:22Z</time>
  <course>12.3</course>
  <speed>1.19</speed>
  <fix>3d</fix>
</trkpt>
<trkpt lat="40.0711574" lon="-105.2297733">
  <ele>1583.13</ele>
  <time>2026-08-28T17:52:22Z</time>
  <course>6.95</course>
  <speed>1.2525573839150046</speed>
  <fix>3d</fix>
</trkpt>
<trkpt lat="40.0711544" lon="-105.2297735">
  <ele>1583.0</ele>
  <time>2026-08-28T17:52:22Z</time>
  <course>12.3</course>
  <speed>1.19</speed>
  <fix>3d</fix>
</trkpt>
<trkpt lat="40.0711585" lon="-105.2297732">
  <ele>1583.13</ele>
  <time>2026-08-28T17:52:22Z</time>
  <course>4.93</course>
  <speed>1.260634760745554</speed>
  <fix>3d</fix>
</trkpt>
<trkpt lat="40.0711565" lon="-105.2297731">
  <ele>1583.0</ele>
  <time>2026-08-28T17:52:22Z</time>
  <course>6.8</course>
  <speed>1.2</speed>
  <fix>3d</fix>
</trkpt>
<trkpt lat="40.0711596" lon="-105.2297731">
  <ele>1583.13</ele>
  <time>2026-08-28T17:52:22Z</time>
  <course>3.23</course>
  <speed>1.29</speed>
  <fix>3d</fix>
</trkpt>
<trkpt lat="40.0711565" lon="-105.2297731">
  <ele>1583.0</ele>
  <time>2026-08-28T17:52:22Z</time>
  <course>6.8</course>
  <speed>1.2</speed>
  <fix>3d</fix>
</trkpt>
<trkpt lat="40.0711607" lon="-105.2297731">
  <ele>1583.13</ele>
  <time>2026-08-28T17:52:22Z</time>
  <course>1.81</course>
  <speed>1.3101526628603246</speed>
  <fix>3d</fix>
</trkpt>
<trkpt lat="40.0711588" lon="-105.2297729">
  <ele>1583.0</ele>
  <time>2026-08-28T17:52:22Z</time>
  <course>2.89</course>
  <speed>1.24</speed>
  <fix>3d</fix>
</trkpt>
<trkpt lat="40.0711619" lon="-105.2297731">
  <ele>1583.13</ele>
  <time>2026-08-28T17:52:22Z</time>
  <course>0.62</course>
  <speed>1.3509256086106296</speed>
  <fix>3d</fix>
</trkpt>
<trkpt lat="40.0711588" lon="-105.2297729">
  <ele>1583.0</ele>
  <time>2026-08-28T17:52:22Z</time>
  <course>2.89</course>
  <speed>1.24</speed>
  <fix>3d</fix>
</trkpt>
<trkpt lat="40.0711631" lon="-105.2297731">
  <ele>1583.13</ele>
  <time>2026-08-28T17:52:22Z</time>
  <course>359.64</course>
  <speed>1.3917614738165447</speed>
  <fix>3d</fix>
</trkpt>
<trkpt lat="40.071161" lon="-105.2297728">
  <ele>1583.0</ele>
  <time>2026-08-28T17:52:22Z</time>
  <course>0.14</course>
  <speed>1.3</speed>
  <fix>3d</fix>
</trkpt>
<trkpt lat="40.0711643" lon="-105.2297731">
  <ele>1583.12</ele>
  <time>2026-08-28T17:52:22Z</time>
  <course>358.82</course>
  <speed>1.4428097587693258</speed>
  <fix>3d</fix>
</trkpt>
<trkpt lat="40.071161" lon="-105.2297728">
  <ele>1583.0</ele>
  <time>2026-08-28T17:52:22Z</time>
  <course>0.14</course>
  <speed>1.3</speed>
  <fix>3d</fix>
</trkpt>
<trkpt lat="40.0711656" lon="-105.2297732">
  <ele>1583.12</ele>
  <time>2026-08-28T17:52:22Z</time>
  <course>358.13</course>
  <speed>1.4940548852033515</speed>
  <fix>3d</fix>
</trkpt>
<trkpt lat="40.0711634" lon="-105.2297728">
  <ele>1583.0</ele>
  <time>2026-08-28T17:52:22Z</time>
  <course>358.24</course>
  <speed>1.39</speed>
  <fix>3d</fix>
</trkpt>
<trkpt lat="40.0711666" lon="-105.2297733">
  <ele>1583.12</ele>
  <time>2026-08-28T17:52:22Z</time>
  <course>357.67</course>
  <speed>1.54466824917197</speed>
  <fix>3d</fix>
</trkpt>
<trkpt lat="40.0711634" lon="-105.2297728">
  <ele>1583.0</ele>
  <time>2026-08-28T17:52:22Z</time>
  <course>358.24</course>
  <speed>1.39</speed>
  <fix>3d</fix>
</trkpt>
<trkpt lat="40.071168" lon="-105.2297734">
  <ele>1583.12</ele>
  <time>2026-08-28T17:52:22Z</time>
  <course>357.2</course>
  <speed>1.6052725625263766</speed>
  <fix>3d</fix>
</trkpt>
<trkpt lat="40.071166" lon="-105.2297729">
  <ele>1583.0</ele>
  <time>2026-08-28T17:52:22Z</time>
  <course>356.94</course>
  <speed>1.51</speed>
  <fix>3d</fix>
</trkpt>
<trkpt lat="40.0711694" lon="-105.2297735">
  <ele>1583.12</ele>
  <time>2026-08-28T17:52:22Z</time>
  <course>356.82</course>
  <speed>1.6767229944149988</speed>
  <fix>3d</fix>
</trkpt>
<trkpt lat="40.071166" lon="-105.2297729">
  <ele>1583.0</ele>
  <time>2026-08-28T17:52:22Z</time>
  <course>356.94</course>
  <speed>1.51</speed>
  <fix>3d</fix>
</trkpt>
<trkpt lat="40.0711709" lon="-105.2297736">
  <ele>1583.13</ele>
  <time>2026-08-28T17:52:22Z</time>
  <course>356.51</course>
  <speed>1.7473408368146153</speed>
  <fix>3d</fix>
</trkpt>
<trkpt lat="40.0711689" lon="-105.2297731">
  <ele>1583.0</ele>
  <time>2026-08-28T17:52:22Z</time>
  <course>356.07</course>
  <speed>1.65</speed>
  <fix>3d</fix>
</trkpt>
<trkpt lat="40.0711725" lon="-105.2297738">
  <ele>1583.13</ele>
  <time>2026-08-28T17:52:22Z</time>
  <course>356.28</course>
  <speed>1.827922317824256</speed>
  <fix>3d</fix>
</trkpt>
<trkpt lat="40.0711689" lon="-105.2297731">
  <ele>1583.0</ele>
  <time>2026-08-28T17:52:22Z</time>
  <course>356.07</course>
  <speed>1.65</speed>
  <fix>3d</fix>
</trkpt>
<trkpt lat="40.0711742" lon="-105.229774">
  <ele>1583.13</ele>
  <time>2026-08-28T17:52:22Z</time>
  <course>356.1</course>
  <speed>1.9184629264074926</speed>
  <fix>3d</fix>
</trkpt>
<trkpt lat="40.071172" lon="-105.2297734">
  <ele>1583.0</ele>
  <time>2026-08-28T17:52:22Z</time>
  <course>355.53</course>
  <speed>1.8</speed>
  <fix>3d</fix>
</trkpt>
<trkpt lat="40.0711759" lon="-105.2297741">
  <ele>1583.14</ele>
  <time>2026-08-28T17:52:22Z</time>
  <course>355.96</course>
  <speed>2.0090047287151918</speed>
  <fix>3d</fix>
</trkpt>
<trkpt lat="40.071172" lon="-105.2297734">
  <ele>1583.0</ele>
  <time>2026-08-28T17:52:22Z</time>
  <course>355.53</course>
  <speed>1.8</speed>
  <fix>3d</fix>
</trkpt>
<trkpt lat="40.0711778" lon="-105.2297743">
  <ele>1583.14</ele>
  <time>2026-08-28T17:52:22Z</time>
  <course>355.87</course>
  <speed>2.0995475703112803</speed>
  <fix>3d</fix>
</trkpt>
<trkpt lat="40.0711754" lon="-105.2297738">
  <ele>1583.0</ele>
  <time>2026-08-28T17:52:22Z</time>
  <course>355.2</course>
  <speed>1.98</speed>
  <fix>3d</fix>
</trkpt>
<trkpt lat="40.0711797" lon="-105.2297745">
  <ele>1583.14</ele>
  <time>2026-08-28T17:52:22Z</time>
  <course>355.81</course>
  <speed>2.190091322296858</speed>
  <fix>3d</fix>
</trkpt>
<trkpt lat="40.0711754" lon="-105.2297738">
  <ele>1583.0</ele>
  <time>2026-08-28T17:52:22Z</time>
  <course>355.2</course>
  <speed>1.98</speed>
  <fix>3d</fix>
</trkpt>
<trkpt lat="40.0711822" lon="-105.2297748">
  <ele>1583.14</ele>
  <time>2026-08-28T17:52:22Z</time>
  <course>355.77</course>
  <speed>2.3095670589961226</speed>
  <fix>3d</fix>
</trkpt>
<trkpt lat="40.0711791" lon="-105.2297742">
  <ele>1583.0</ele>
  <time>2026-08-28T17:52:22Z</time>
  <course>355.04</course>
  <speed>2.16</speed>
  <fix>3d</fix>
</trkpt>
<trkpt lat="40.0711843" lon="-105.229775">
  <ele>1583.14</ele>
  <time>2026-08-28T17:52:22Z</time>
  <course>355.78</course>
  <speed>2.4100622398602076</speed>
  <fix>3d</fix>
</trkpt>
<trkpt lat="40.0711791" lon="-105.2297742">
  <ele>1583.0</ele>
  <time>2026-08-28T17:52:22Z</time>
  <course>355.04</course>
  <speed>2.16</speed>
  <fix>3d</fix>
</trkpt>
<trkpt lat="40.0711865" lon="-105.2297752">
  <ele>1583.14</ele>
  <time>2026-08-28T17:52:22Z</time>
  <course>355.78</course>
  <speed>2.500599928017275</speed>
  <fix>3d</fix>
</trkpt>
<trkpt lat="40.0711831" lon="-105.2297747">
  <ele>1583.0</ele>
  <time>2026-08-28T17:52:22Z</time>
  <course>354.99</course>
  <speed>2.36</speed>
  <fix>3d</fix>
</trkpt>
<trkpt lat="40.0711888" lon="-105.2297755">
  <ele>1583.14</ele>
  <time>2026-08-28T17:52:22Z</time>
  <course>355.79</course>
  <speed>2.600192300580863</speed>
  <fix>3d</fix>
</trkpt>
<trkpt lat="40.0711831" lon="-105.2297747">
  <ele>1583.0</ele>
  <time>2026-08-28T17:52:22Z</time>
  <course>354.99</course>
  <speed>2.36</speed>
  <fix>3d</fix>
</trkpt>
<trkpt lat="40.0711912" lon="-105.2297757">
  <ele>1583.14</ele>
  <time>2026-08-28T17:52:22Z</time>
  <course>355.83</course>
  <speed>2.7006850982667343</speed>
  <fix>3d</fix>
</trkpt>
<trkpt lat="40.0711876" lon="-105.2297752">
  <ele>1583.0</ele>
  <time>2026-08-28T17:52:22Z</time>
  <course>355.01</course>
  <speed>2.55</speed>
  <fix>3d</fix>
</trkpt>
<trkpt lat="40.0711937" lon="-105.229776">
  <ele>1583.14</ele>
  <time>2026-08-28T17:52:22Z</time>
  <course>355.87</course>
  <speed>2.800303554973996</speed>
  <fix>3d</fix>
</trkpt>
<trkpt lat="40.0711876" lon="-105.2297752">
  <ele>1583.0</ele>
  <time>2026-08-28T17:52:22Z</time>
  <course>355.01</course>
  <speed>2.55</speed>
  <fix>3d</fix>
</trkpt>
<trkpt lat="40.0711962" lon="-105.2297763">
  <ele>1583.14</ele>
  <time>2026-08-28T17:52:22Z</time>
  <course>355.95</course>
  <speed>2.8999482754007873</speed>
  <fix>3d</fix>
</trkpt>
<trkpt lat="40.0711923" lon="-105.2297757">
  <ele>1583.0</ele>
  <time>2026-08-28T17:52:22Z</time>
  <course>355.09</course>
  <speed>2.75</speed>
  <fix>3d</fix>
</trkpt>
<trkpt lat="40.0711988" lon="-105.2297765">
  <ele>1583.14</ele>
  <time>2026-08-28T17:52:22Z</time>
  <course>356.03</course>
  <speed>3.000433302041557</speed>
  <fix>3d</fix>
</trkpt>
<trkpt lat="40.0711923" lon="-105.2297757">
  <ele>1583.0</ele>
  <time>2026-08-28T17:52:22Z</time>
  <course>355.09</course>
  <speed>2.75</speed>
  <fix>3d</fix>
</trkpt>
<trkpt lat="40.0712016" lon="-105.2297768">
  <ele>1583.13</ele>
  <time>2026-08-28T17:52:22Z</time>
  <course>356.11</course>
  <speed>3.100096772683072</speed>
  <fix>3d</fix>
</trkpt>
<trkpt lat="40.0711974" lon="-105.2297763">
  <ele>1583.0</ele>
  <time>2026-08-28T17:52:22Z</time>
  <course>355.22</course>
  <speed>2.95</speed>
  <fix>3d</fix>
</trkpt>
<trkpt lat="40.0712043" lon="-105.2297771">
  <ele>1583.13</ele>
  <time>2026-08-28T17:52:22Z</time>
  <course>356.2</course>
  <speed>3.1898119066803923</speed>
  <fix>3d</fix>
</trkpt>
<trkpt lat="40.0711974" lon="-105.2297763">
  <ele>1583.0</ele>
  <time>2026-08-28T17:52:22Z</time>
  <course>355.22</course>
  <speed>2.95</speed>
  <fix>3d</fix>
</trkpt>
<trkpt lat="40.0712072" lon="-105.2297774">
  <ele>1583.13</ele>
  <time>2026-08-28T17:52:22Z</time>
  <course>356.29</course>
  <speed>3.2895136418625777</speed>
  <fix>3d</fix>
</trkpt>
<trkpt lat="40.0712029" lon="-105.2297768">
  <ele>1583.0</ele>
  <time>2026-08-28T17:52:22Z</time>
  <course>355.39</course>
  <speed>3.15</speed>
  <fix>3d</fix>
</trkpt>
<trkpt lat="40.0712096" lon="-105.2297776">
  <ele>1583.13</ele>
  <time>2026-08-28T17:52:22Z</time>
  <course>356.36</course>
  <speed>3.3692877585626313</speed>
  <fix>3d</fix>
</trkpt>
<trkpt lat="40.0712029" lon="-105.2297768">
  <ele>1583.0</ele>
  <time>2026-08-28T17:52:22Z</time>
  <course>355.39</course>
  <speed>3.15</speed>
  <fix>3d</fix>
</trkpt>
<trkpt lat="40.0712126" lon="-105.2297779">
  <ele>1583.13</ele>
  <time>2026-08-28T17:52:22Z</time>
  <course>356.46</course>
  <speed>3.4590461112855957</speed>
  <fix>3d</fix>
</trkpt>
<trkpt lat="40.0712088" lon="-105.2297775">
  <ele>1583.0</ele>
  <time>2026-08-28T17:52:22Z</time>
  <course>355.56</course>
  <speed>3.34</speed>
  <fix>3d</fix>
</trkpt>
<trkpt lat="40.0712158" lon="-105.2297782">
  <ele>1583.13</ele>
  <time>2026-08-28T17:52:22Z</time>
  <course>356.56</course>
  <speed>3.558791929854849</speed>
  <fix>3d</fix>
</trkpt>
<trkpt lat="40.0712088" lon="-105.2297775">
  <ele>1583.0</ele>
  <time>2026-08-28T17:52:22Z</time>
  <course>355.56</course>
  <speed>3.34</speed>
  <fix>3d</fix>
</trkpt>
<trkpt lat="40.071219" lon="-105.2297785">
  <ele>1583.13</ele>
  <time>2026-08-28T17:52:22Z</time>
  <course>356.67</course>
  <speed>3.6585516259853432</speed>
  <fix>3d</fix>
</trkpt>
<trkpt lat="40.0712149" lon="-105.2297781">
  <ele>1583.0</ele>
  <time>2026-08-28T17:52:22Z</time>
  <course>355.76</course>
  <speed>3.54</speed>
  <fix>3d</fix>
</trkpt>
<trkpt lat="40.0712224" lon="-105.2297787">
  <ele>1583.13</ele>
  <time>2026-08-28T17:52:22Z</time>
  <course>356.77</course>
  <speed>3.758324094593227</speed>
  <fix>3d</fix>
</trkpt>
<trkpt lat="40.0712149" lon="-105.2297781">
  <ele>1583.0</ele>
  <time>2026-08-28T17:52:22Z</time>
  <course>355.76</course>
  <speed>3.54</speed>
  <fix>3d</fix>
</trkpt>
<trkpt lat="40.0712258" lon="-105.229779">
  <ele>1583.13</ele>
  <time>2026-08-28T17:52:22Z</time>
  <course>356.89</course>
  <speed>3.8481294157031676</speed>
  <fix>3d</fix>
</trkpt>
<trkpt lat="40.0712214" lon="-105.2297787">
  <ele>1583.0</ele>
  <time>2026-08-28T17:52:22Z</time>
  <course>355.97</course>
  <speed>3.73</speed>
  <fix>3d</fix>
</trkpt>
<trkpt lat="40.0712293" lon="-105.2297793">
  <ele>1583.13</ele>
  <time>2026-08-28T17:52:22Z</time>
  <course>356.99</course>
  <speed>3.9473028766488136</speed>
  <fix>3d</fix>
</trkpt>
<trkpt lat="40.0712214" lon="-105.2297787">
  <ele>1583.0</ele>
  <time>2026-08-28T17:52:22Z</time>
  <course>355.97</course>
  <speed>3.73</speed>
  <fix>3d</fix>
</trkpt>
<trkpt lat="40.0712329" lon="-105.2297796">
  <ele>1583.14</ele>
  <time>2026-08-28T17:52:22Z</time>
  <course>357.1</course>
  <speed>4.047122434520606</speed>
  <fix>3d</fix>
</trkpt>
<trkpt lat="40.0712283" lon="-105.2297793">
  <ele>1583.0</ele>
  <time>2026-08-28T17:52:22Z</time>
  <course>356.18</course>
  <speed>3.93</speed>
  <fix>3d</fix>
</trkpt>
<trkpt lat="40.0712367" lon="-105.2297799">
  <ele>1583.14</ele>
  <time>2026-08-28T17:52:22Z</time>
  <course>357.22</course>
  <speed>4.1369674883905</speed>
  <fix>3d</fix>
</trkpt>
<trkpt lat="40.0712283" lon="-105.2297793">
  <ele>1583.0</ele>
  <time>2026-08-28T17:52:22Z</time>
  <course>356.18</course>
  <speed>3.93</speed>
  <fix>3d</fix>
</trkpt>
<trkpt lat="40.0712404" lon="-105.2297802">
  <ele>1583.14</ele>
  <time>2026-08-28T17:52:22Z</time>
  <course>357.33</course>
  <speed>4.226263124794764</speed>
  <fix>3d</fix>
</trkpt>
<trkpt lat="40.0712355" lon="-105.22978">
  <ele>1583.0</ele>
  <time>2026-08-28T17:52:22Z</time>
  <course>356.4</course>
  <speed>4.11</speed>
  <fix>3d</fix>
</trkpt>
<trkpt lat="40.0712451" lon="-105.2297806">
  <ele>1583.14</ele>
  <time>2026-08-28T17:52:22Z</time>
  <course>357.47</course>
  <speed>4.326118352518803</speed>
  <fix>3d</fix>
</trkpt>
<trkpt lat="40.0712355" lon="-105.22978">
  <ele>1583.0</ele>
  <time>2026-08-28T17:52:22Z</time>
  <course>356.4</course>
  <speed>4.11</speed>
  <fix>3d</fix>
</trkpt>
<trkpt lat="40.071249" lon="-105.2297808">
  <ele>1583.14</ele>
  <time>2026-08-28T17:52:22Z</time>
  <course>357.55</course>
  <speed>4.406007262817437</speed>
  <fix>3d</fix>
</trkpt>
<trkpt lat="40.071243" lon="-105.2297806">
  <ele>1583.0</ele>
  <time>2026-08-28T17:52:22Z</time>
  <course>356.62</course>
  <speed>4.28</speed>
  <fix>3d</fix>
</trkpt>
<trkpt lat="40.071253" lon="-105.2297811">
  <ele>1583.14</ele>
  <time>2026-08-28T17:52:22Z</time>
  <course>357.64</course>
  <speed>4.465422712353221</speed>
  <fix>3d</fix>
</trkpt>
<trkpt lat="40.071243" lon="-105.2297806">
  <ele>1583.0</ele>
  <time>2026-08-28T17:52:22Z</time>
  <course>356.62</course>
  <speed>4.28</speed>
  <fix>3d</fix>
</trkpt>
<trkpt lat="40.0712571" lon="-105.2297814">
  <ele>1583.14</ele>
  <time>2026-08-28T17:52:22Z</time>
  <course>357.7</course>
  <speed>4.525350815130248</speed>
  <fix>3d</fix>
</trkpt>
<trkpt lat="40.0712508" lon="-105.2297811">
  <ele>1583.0</ele>
  <time>2026-08-28T17:52:22Z</time>
  <course>356.79</course>
  <speed>4.43</speed>
  <fix>3d</fix>
</trkpt>
<trkpt lat="40.0712612" lon="-105.2297817">
  <ele>1583.14</ele>
  <time>2026-08-28T17:52:22Z</time>
  <course>357.76</course>
  <speed>4.575292340386568</speed>
  <fix>3d</fix>
</trkpt>
<trkpt lat="40.0712508" lon="-105.2297811">
  <ele>1583.0</ele>
  <time>2026-08-28T17:52:22Z</time>
  <course>356.79</course>
  <speed>4.43</speed>
  <fix>3d</fix>
</trkpt>
<trkpt lat="40.0712653" lon="-105.229782">
  <ele>1583.14</ele>
  <time>2026-08-28T17:52:22Z</time>
  <course>357.82</course>
  <speed>4.615246472291593</speed>
  <fix>3d</fix>
</trkpt>
<trkpt lat="40.071259" lon="-105.2297816">
  <ele>1583.0</ele>
  <time>2026-08-28T17:52:22Z</time>
  <course>356.93</course>
  <speed>4.54</speed>
  <fix>3d</fix>
</trkpt>
<trkpt lat="40.0712694" lon="-105.2297822">
  <ele>1583.14</ele>
  <time>2026-08-28T17:52:22Z</time>
  <course>357.89</course>
  <speed>4.634759972209995</speed>
  <fix>3d</fix>
</trkpt>
<trkpt lat="40.071259" lon="-105.2297816">
  <ele>1583.0</ele>
  <time>2026-08-28T17:52:22Z</time>
  <course>356.93</course>
  <speed>4.54</speed>
  <fix>3d</fix>
</trkpt>
<trkpt lat="40.0712736" lon="-105.2297825">
  <ele>1583.14</ele>
  <time>2026-08-28T17:52:22Z</time>
  <course>357.95</course>
  <speed>4.654739520102065</speed>
  <fix>3d</fix>
</trkpt>
<trkpt lat="40.0712671" lon="-105.2297823">
  <ele>1583.0</ele>
  <time>2026-08-28T17:52:22Z</time>
  <course>357.05</course>
  <speed>4.61</speed>
  <fix>3d</fix>
</trkpt>
<trkpt lat="40.0712777" lon="-105.2297828">
  <ele>1583.14</ele>
  <time>2026-08-28T17:52:22Z</time>
  <course>358.02</course>
  <speed>4.654299087940095</speed>
  <fix>3d</fix>
</trkpt>
<trkpt lat="40.0712671" lon="-105.2297823">
  <ele>1583.0</ele>
  <time>2026-08-28T17:52:22Z</time>
  <course>357.05</course>
  <speed>4.61</speed>
  <fix>3d</fix>
</trkpt>
<trkpt lat="40.0712819" lon="-105.229783">
  <ele>1583.13</ele>
  <time>2026-08-28T17:52:22Z</time>
  <course>358.08</course>
  <speed>4.644308344630016</speed>
  <fix>3d</fix>
</trkpt>
<trkpt lat="40.0712755" lon="-105.2297828">
  <ele>1583.0</ele>
  <time>2026-08-28T17:52:22Z</time>
  <course>357.18</course>
  <speed>4.63</speed>
  <fix>3d</fix>
</trkpt>
<trkpt lat="40.071286" lon="-105.2297833">
  <ele>1583.13</ele>
  <time>2026-08-28T17:52:22Z</time>
  <course>358.15</course>
  <speed>4.623905275846381</speed>
  <fix>3d</fix>
</trkpt>
<trkpt lat="40.0712755" lon="-105.2297828">
  <ele>1583.0</ele>
  <time>2026-08-28T17:52:22Z</time>
  <course>357.18</course>
  <speed>4.63</speed>
  <fix>3d</fix>
</trkpt>
<trkpt lat="40.0712893" lon="-105.2297835">
  <ele>1583.13</ele>
  <time>2026-08-28T17:52:22Z</time>
  <course>358.2</course>
  <speed>4.593930778755814</speed>
  <fix>3d</fix>
</trkpt>
<trkpt lat="40.0712838" lon="-105.2297833">
  <ele>1583.0</ele>
  <time>2026-08-28T17:52:22Z</time>
  <course>357.3</course>
  <speed>4.61</speed>
  <fix>3d</fix>
</trkpt>
<trkpt lat="40.0712934" lon="-105.2297837">
  <ele>1583.13</ele>
  <time>2026-08-28T17:52:22Z</time>
  <course>358.27</course>
  <speed>4.553559047602216</speed>
  <fix>3d</fix>
</trkpt>
<trkpt lat="40.0712838" lon="-105.2297833">
  <ele>1583.0</ele>
  <time>2026-08-28T17:52:22Z</time>
  <course>357.3</course>
  <speed>4.61</speed>
  <fix>3d</fix>
</trkpt>
<trkpt lat="40.0712974" lon="-105.2297839">
  <ele>1583.12</ele>
  <time>2026-08-28T17:52:22Z</time>
  <course>358.33</course>
  <speed>4.5035985611508496</speed>
  <fix>3d</fix>
</trkpt>
<trkpt lat="40.071292" lon="-105.2297838">
  <ele>1583.0</ele>
  <time>2026-08-28T17:52:22Z</time>
  <course>357.43</course>
  <speed>4.55</speed>
  <fix>3d</fix>
</trkpt>
<trkpt lat="40.0713014" lon="-105.2297842">
  <ele>1583.12</ele>
  <time>2026-08-28T17:52:22Z</time>
  <course>358.39</course>
  <speed>4.443253312607779</speed>
  <fix>3d</fix>
</trkpt>
<trkpt lat="40.071292" lon="-105.2297838">
  <ele>1583.0</ele>
  <time>2026-08-28T17:52:22Z</time>
  <course>357.43</course>
  <speed>4.55</speed>
  <fix>3d</fix>
</trkpt>
<trkpt lat="40.0713054" lon="-105.2297844">
  <ele>1583.12</ele>
  <time>2026-08-28T17:52:22Z</time>
  <course>358.45</course>
  <speed>4.373305386089565</speed>
  <fix>3d</fix>
</trkpt>
<trkpt lat="40.0713001" lon="-105.2297842">
  <ele>1583.0</ele>
  <time>2026-08-28T17:52:22Z</time>
  <course>357.55</course>
  <speed>4.44</speed>
  <fix>3d</fix>
</trkpt>
<trkpt lat="40.0713093" lon="-105.2297846">
  <ele>1583.12</ele>
  <time>2026-08-28T17:52:22Z</time>
  <course>358.51</course>
  <speed>4.282989610073786</speed>
  <fix>3d</fix>
</trkpt>
<trkpt lat="40.0713001" lon="-105.2297842">
  <ele>1583.0</ele>
  <time>2026-08-28T17:52:22Z</time>
  <course>357.55</course>
  <speed>4.44</speed>
  <fix>3d</fix>
</trkpt>
<trkpt lat="40.0713131" lon="-105.2297848">
  <ele>1583.13</ele>
  <time>2026-08-28T17:52:22Z</time>
  <course>358.57</course>
  <speed>4.182690521661865</speed>
  <fix>3d</fix>
</trkpt>
<trkpt lat="40.0713079" lon="-105.2297847">
  <ele>1583.0</ele>
  <time>2026-08-28T17:52:22Z</time>
  <course>357.67</course>
  <speed>4.28</speed>
  <fix>3d</fix>
</trkpt>
<trkpt lat="40.0713168" lon="-105.229785">
  <ele>1583.13</ele>
  <time>2026-08-28T17:52:22Z</time>
  <course>358.63</course>
  <speed>4.0727631897766905</speed>
  <fix>3d</fix>
</trkpt>
<trkpt lat="40.0713079" lon="-105.2297847">
  <ele>1583.0</ele>
  <time>2026-08-28T17:52:22Z</time>
  <course>357.67</course>
  <speed>4.28</speed>
  <fix>3d</fix>
</trkpt>
<trkpt lat="40.0713204" lon="-105.2297852">
  <ele>1583.12</ele>
  <time>2026-08-28T17:52:22Z</time>
  <course>358.69</course>
  <speed>3.952480233979672</speed>
  <fix>3d</fix>
</trkpt>
<trkpt lat="40.0713154" lon="-105.229785">
  <ele>1583.0</ele>
  <time>2026-08-28T17:52:22Z</time>
  <course>357.78</course>
  <speed>4.08</speed>
  <fix>3d</fix>
</trkpt>
<trkpt lat="40.0713239" lon="-105.2297853">
  <ele>1583.13</ele>
  <time>2026-08-28T17:52:22Z</time>
  <course>358.73</course>
  <speed>3.832205631225966</speed>
  <fix>3d</fix>
</trkpt>
<trkpt lat="40.0713154" lon="-105.229785">
  <ele>1583.0</ele>
  <time>2026-08-28T17:52:22Z</time>
  <course>357.78</course>
  <speed>4.08</speed>
  <fix>3d</fix>
</trkpt>
<trkpt lat="40.0713279" lon="-105.2297855">
  <ele>1583.12</ele>
  <time>2026-08-28T17:52:22Z</time>
  <course>358.73</course>
  <speed>3.672301730522698</speed>
  <fix>3d</fix>
</trkpt>
<trkpt lat="40.0713225" lon="-105.2297854">
  <ele>1583.0</ele>
  <time>2026-08-28T17:52:22Z</time>
  <course>357.85</course>
  <speed>3.84</speed>
  <fix>3d</fix>
</trkpt>
<trkpt lat="40.0713312" lon="-105.2297857">
  <ele>1583.12</ele>
  <time>2026-08-28T17:52:22Z</time>
  <course>358.73</course>
  <speed>3.552379484233068</speed>
  <fix>3d</fix>
</trkpt>
<trkpt lat="40.0713225" lon="-105.2297854">
  <ele>1583.0</ele>
  <time>2026-08-28T17:52:22Z</time>
  <course>357.85</course>
  <speed>3.84</speed>
  <fix>3d</fix>
</trkpt>
<trkpt lat="40.0713343" lon="-105.2297859">
  <ele>1583.12</ele>
  <time>2026-08-28T17:52:22Z</time>
  <course>358.74</course>
  <speed>3.452448406565984</speed>
  <fix>3d</fix>
</trkpt>
<trkpt lat="40.0713292" lon="-105.2297858">
  <ele>1583.0</ele>
  <time>2026-08-28T17:52:22Z</time>
  <course>357.87</course>
  <speed>3.61</speed>
  <fix>3d</fix>
</trkpt>
<trkpt lat="40.0713374" lon="-105.229786">
  <ele>1583.13</ele>
  <time>2026-08-28T17:52:22Z</time>
  <course>358.74</course>
  <speed>3.362142174269256</speed>
  <fix>3d</fix>
</trkpt>
<trkpt lat="40.0713292" lon="-105.2297858">
  <ele>1583.0</ele>
  <time>2026-08-28T17:52:22Z</time>
  <course>357.87</course>
  <speed>3.61</speed>
  <fix>3d</fix>
</trkpt>
<trkpt lat="40.0713403" lon="-105.2297862">
  <ele>1583.13</ele>
  <time>2026-08-28T17:52:22Z</time>
  <course>358.74</course>
  <speed>3.272201094064972</speed>
  <fix>3d</fix>
</trkpt>
<trkpt lat="40.0713356" lon="-105.2297861">
  <ele>1583.0</ele>
  <time>2026-08-28T17:52:22Z</time>
  <course>357.87</course>
  <speed>3.41</speed>
  <fix>3d</fix>
</trkpt>
<trkpt lat="40.0713432" lon="-105.2297863">
  <ele>1583.13</ele>
  <time>2026-08-28T17:52:22Z</time>
  <course>358.78</course>
  <speed>3.182263345482269</speed>
  <fix>3d</fix>
</trkpt>
<trkpt lat="40.0713356" lon="-105.2297861">
  <ele>1583.0</ele>
  <time>2026-08-28T17:52:22Z</time>
  <course>357.87</course>
  <speed>3.41</speed>
  <fix>3d</fix>
</trkpt>
<trkpt lat="40.071346" lon="-105.2297865">
  <ele>1583.13</ele>
  <time>2026-08-28T17:52:22Z</time>
  <course>358.82</course>
  <speed>3.0819636597468176</speed>
  <fix>3d</fix>
</trkpt>
<trkpt lat="40.0713415" lon="-105.2297864">
  <ele>1583.0</ele>
  <time>2026-08-28T17:52:22Z</time>
  <course>357.9</course>
  <speed>3.23</speed>
  <fix>3d</fix>
</trkpt>
<trkpt lat="40.0713487" lon="-105.2297866">
  <ele>1583.12</ele>
  <time>2026-08-28T17:52:22Z</time>
  <course>358.89</course>
  <speed>2.982029510249689</speed>
  <fix>3d</fix>
</trkpt>
<trkpt lat="40.0713415" lon="-105.2297864">
  <ele>1583.0</ele>
  <time>2026-08-28T17:52:22Z</time>
  <course>357.9</course>
  <speed>3.23</speed>
  <fix>3d</fix>
</trkpt>
<trkpt lat="40.0713513" lon="-105.2297868">
  <ele>1583.12</ele>
  <time>2026-08-28T17:52:22Z</time>
  <course>358.98</course>
  <speed>2.891729586251107</speed>
  <fix>3d</fix>
</trkpt>
<trkpt lat="40.0713472" lon="-105.2297866">
  <ele>1583.0</ele>
  <time>2026-08-28T17:52:22Z</time>
  <course>358.01</course>
  <speed>3.05</speed>
  <fix>3d</fix>
</trkpt>
<trkpt lat="40.0713538" lon="-105.2297869">
  <ele>1583.12</ele>
  <time>2026-08-28T17:52:22Z</time>
  <course>359.08</course>
  <speed>2.8014460551650817</speed>
  <fix>3d</fix>
</trkpt>
<trkpt lat="40.0713472" lon="-105.2297866">
  <ele>1583.0</ele>
  <time>2026-08-28T17:52:22Z</time>
  <course>358.01</course>
  <speed>3.05</speed>
  <fix>3d</fix>
</trkpt>
<trkpt lat="40.0713563" lon="-105.229787">
  <ele>1583.12</ele>
  <time>2026-08-28T17:52:22Z</time>
  <course>359.19</course>
  <speed>2.721176216271192</speed>
  <fix>3d</fix>
</trkpt>
<trkpt lat="40.0713525" lon="-105.2297868">
  <ele>1583.0</ele>
  <time>2026-08-28T17:52:22Z</time>
  <course>358.18</course>
  <speed>2.88</speed>
  <fix>3d</fix>
</trkpt>
<trkpt lat="40.0713582" lon="-105.2297871">
  <ele>1583.12</ele>
  <time>2026-08-28T17:52:22Z</time>
  <course>359.29</course>
  <speed>2.671198233003309</speed>
  <fix>3d</fix>
</trkpt>
<trkpt lat="40.0713525" lon="-105.2297868">
  <ele>1583.0</ele>
  <time>2026-08-28T17:52:22Z</time>
  <course>358.18</course>
  <speed>2.88</speed>
  <fix>3d</fix>
</trkpt>
<trkpt lat="40.0713606" lon="-105.2297871">
  <ele>1583.12</ele>
  <time>2026-08-28T17:52:22Z</time>
  <course>359.42</course>
  <speed>2.6009421369957466</speed>
  <fix>3d</fix>
</trkpt>
<trkpt lat="40.0713575" lon="-105.2297871">
  <ele>1583.0</ele>
  <time>2026-08-28T17:52:22Z</time>
  <course>358.41</course>
  <speed>2.73</speed>
  <fix>3d</fix>
</trkpt>
<trkpt lat="40.0713629" lon="-105.2297872">
  <ele>1583.12</ele>
  <time>2026-08-28T17:52:22Z</time>
  <course>359.56</course>
  <speed>2.550705784679997</speed>
  <fix>3d</fix>
</trkpt>
<trkpt lat="40.0713575" lon="-105.2297871">
  <ele>1583.0</ele>
  <time>2026-08-28T17:52:22Z</time>
  <course>358.41</course>
  <speed>2.73</speed>
  <fix>3d</fix>
</trkpt>
<trkpt lat="40.0713652" lon="-105.2297873">
  <ele>1583.13</ele>
  <time>2026-08-28T17:52:22Z</time>
  <course>359.7</course>
  <speed>2.5104979585731595</speed>
  <fix>3d</fix>
</trkpt>
<trkpt lat="40.0713623" lon="-105.2297872">
  <ele>1583.0</ele>
  <time>2026-08-28T17:52:22Z</time>
  <course>358.67</course>
  <speed>2.62</speed>
  <fix>3d</fix>
</trkpt>
<trkpt lat="40.0713674" lon="-105.2297873">
  <ele>1583.13</ele>
  <time>2026-08-28T17:52:22Z</time>
  <course>359.84</course>
  <speed>2.480503981049013</speed>
  <fix>3d</fix>
</trkpt>
<trkpt lat="40.0713623" lon="-105.2297872">
  <ele>1583.0</ele>
  <time>2026-08-28T17:52:22Z</time>
  <course>358.67</course>
  <speed>2.62</speed>
  <fix>3d</fix>
</trkpt>
<trkpt lat="40.0713697" lon="-105.2297874">
  <ele>1583.13</ele>
  <time>2026-08-28T17:52:22Z</time>
  <course>359.94</course>
  <speed>2.470323865407125</speed>
  <fix>3d</fix>
</trkpt>
<trkpt lat="40.0713669" lon="-105.2297873">
  <ele>1583.0</ele>
  <time>2026-08-28T17:52:22Z</time>
  <course>358.94</course>
  <speed>2.56</speed>
  <fix>3d</fix>
</trkpt>
<trkpt lat="40.0713719" lon="-105.2297874">
  <ele>1583.13</ele>
  <time>2026-08-28T17:52:22Z</time>
  <course>0.03</course>
  <speed>2.470182179516321</speed>
  <fix>3d</fix>
</trkpt>
<trkpt lat="40.0713669" lon="-105.2297873">
  <ele>1583.0</ele>
  <time>2026-08-28T17:52:22Z</time>
  <course>358.94</course>
  <speed>2.56</speed>
  <fix>3d</fix>
</trkpt>
<trkpt lat="40.0713742" lon="-105.2297875">
  <ele>1583.13</ele>
  <time>2026-08-28T17:52:22Z</time>
  <course>0.14</course>
  <speed>2.480181444975347</speed>
  <fix>3d</fix>
</trkpt>
<trkpt lat="40.0713716" lon="-105.2297874">
  <ele>1583.0</ele>
  <time>2026-08-28T17:52:22Z</time>
  <course>359.17</course>
  <speed>2.55</speed>
  <fix>3d</fix>
</trkpt>
<trkpt lat="40.0713765" lon="-105.2297875">
  <ele>1583.14</ele>
  <time>2026-08-28T17:52:22Z</time>
  <course>0.21</course>
  <speed>2.5100796800101786</speed>
  <fix>3d</fix>
</trkpt>
<trkpt lat="40.0713716" lon="-105.2297874">
  <ele>1583.0</ele>
  <time>2026-08-28T17:52:22Z</time>
  <course>359.17</course>
  <speed>2.55</speed>
  <fix>3d</fix>
</trkpt>
<trkpt lat="40.0713788" lon="-105.2297875">
  <ele>1583.14</ele>
  <time>2026-08-28T17:52:22Z</time>
  <course>0.28</course>
  <speed>2.5600781238079433</speed>
  <fix>3d</fix>
</trkpt>
<trkpt lat="40.0713762" lon="-105.2297875">
  <ele>1583.0</ele>
  <time>2026-08-28T17:52:22Z</time>
  <course>359.34</course>
  <speed>2.59</speed>
  <fix>3d</fix>
</trkpt>
<trkpt lat="40.0713817" lon="-105.2297875">
  <ele>1583.14</ele>
  <time>2026-08-28T17:52:22Z</time>
  <course>0.33</course>
  <speed>2.6300190113381308</speed>
  <fix>3d</fix>
</trkpt>
<trkpt lat="40.0713762" lon="-105.2297875">
  <ele>1583.0</ele>
  <time>2026-08-28T17:52:22Z</time>
  <course>359.34</course>
  <speed>2.59</speed>
  <fix>3d</fix>
</trkpt>
<trkpt lat="40.0713842" lon="-105.2297876">
  <ele>1583.14</ele>
  <time>2026-08-28T17:52:22Z</time>
  <course>0.34</course>
  <speed>2.7000185184550123</speed>
  <fix>3d</fix>
</trkpt>
<trkpt lat="40.0713809" lon="-105.2297876">
  <ele>1583.0</ele>
  <time>2026-08-28T17:52:22Z</time>
  <course>359.45</course>
  <speed>2.69</speed>
  <fix>3d</fix>
</trkpt>
<trkpt lat="40.0713867" lon="-105.2297876">
  <ele>1583.14</ele>
  <time>2026-08-28T17:52:22Z</time>
  <course>0.34</course>
  <speed>2.790017921089397</speed>
  <fix>3d</fix>
</trkpt>
<trkpt lat="40.0713809" lon="-105.2297876">
  <ele>1583.0</ele>
  <time>2026-08-28T17:52:22Z</time>
  <course>359.45</course>
  <speed>2.69</speed>
  <fix>3d</fix>
</trkpt>
<trkpt lat="40.0713893" lon="-105.2297876">
  <ele>1583.14</ele>
  <time>2026-08-28T17:52:22Z</time>
  <course>0.34</course>
  <speed>2.890017300986276</speed>
  <fix>3d</fix>
</trkpt>
<trkpt lat="40.0713859" lon="-105.2297876">
  <ele>1583.0</ele>
  <time>2026-08-28T17:52:22Z</time>
  <course>359.47</course>
  <speed>2.84</speed>
  <fix>3d</fix>
</trkpt>
<trkpt lat="40.0713921" lon="-105.2297876">
  <ele>1583.14</ele>
  <time>2026-08-28T17:52:22Z</time>
  <course>0.34</course>
  <speed>3.0100166112498448</speed>
  <fix>3d</fix>
</trkpt>
<trkpt lat="40.0713859" lon="-105.2297876">
  <ele>1583.0</ele>
  <time>2026-08-28T17:52:22Z</time>
  <course>359.47</course>
  <speed>2.84</speed>
  <fix>3d</fix>
</trkpt>
<trkpt lat="40.0713949" lon="-105.2297876">
  <ele>1583.14</ele>
  <time>2026-08-28T17:52:22Z</time>
  <course>0.34</course>
  <speed>3.13</speed>
  <fix>3d</fix>
</trkpt>
<trkpt lat="40.0713912" lon="-105.2297877">
  <ele>1583.0</ele>
  <time>2026-08-28T17:52:22Z</time>
  <course>359.47</course>
  <speed>3.04</speed>
  <fix>3d</fix>
</trkpt>
<trkpt lat="40.0713978" lon="-105.2297876">
  <ele>1583.14</ele>
  <time>2026-08-28T17:52:22Z</time>
  <course>0.35</course>
  <speed>3.26</speed>
  <fix>3d</fix>
</trkpt>
<trkpt lat="40.0713912" lon="-105.2297877">
  <ele>1583.0</ele>
  <time>2026-08-28T17:52:22Z</time>
  <course>359.47</course>
  <speed>3.04</speed>
  <fix>3d</fix>
</trkpt>
<trkpt lat="40.0714009" lon="-105.2297876">
  <ele>1583.14</ele>
  <time>2026-08-28T17:52:22Z</time>
  <course>0.35</course>
  <speed>3.39</speed>
  <fix>3d</fix>
</trkpt>
<trkpt lat="40.0713969" lon="-105.2297878">
  <ele>1583.0</ele>
  <time>2026-08-28T17:52:22Z</time>
  <course>359.47</course>
  <speed>3.29</speed>
  <fix>3d</fix>
</trkpt>
<trkpt lat="40.071404" lon="-105.2297877">
  <ele>1583.14</ele>
  <time>2026-08-28T17:52:22Z</time>
  <course>0.35</course>
  <speed>3.53</speed>
  <fix>3d</fix>
</trkpt>
<trkpt lat="40.0713969" lon="-105.2297878">
  <ele>1583.0</ele>
  <time>2026-08-28T17:52:22Z</time>
  <course>359.47</course>
  <speed>3.29</speed>
  <fix>3d</fix>
</trkpt>
<trkpt lat="40.0714073" lon="-105.2297877">
  <ele>1583.13</ele>
  <time>2026-08-28T17:52:22Z</time>
  <course>0.35</course>
  <speed>3.68</speed>
  <fix>3d</fix>
</trkpt>
<trkpt lat="40.0714031" lon="-105.2297878">
  <ele>1583.0</ele>
  <time>2026-08-28T17:52:22Z</time>
  <course>359.47</course>
  <speed>3.56</speed>
  <fix>3d</fix>
</trkpt>
<trkpt lat="40.0714107" lon="-105.2297877">
  <ele>1583.13</ele>
  <time>2026-08-28T17:52:22Z</time>
  <course>0.35</course>
  <speed>3.82</speed>
  <fix>3d</fix>
</trkpt>
<trkpt lat="40.0714031" lon="-105.2297878">
  <ele>1583.0</ele>
  <time>2026-08-28T17:52:22Z</time>
  <course>359.47</course>
  <speed>3.56</speed>
  <fix>3d</fix>
</trkpt>
<trkpt lat="40.0714136" lon="-105.2297877">
  <ele>1583.13</ele>
  <time>2026-08-28T17:52:22Z</time>
  <course>0.36</course>
  <speed>3.94</speed>
  <fix>3d</fix>
</trkpt>
<trkpt lat="40.0714097" lon="-105.2297879">
  <ele>1583.0</ele>
  <time>2026-08-28T17:52:23Z</time>
  <course>359.47</course>
  <speed>3.84</speed>
  <fix>3d</fix>
</trkpt>
<trkpt lat="40.0714173" lon="-105.2297877">
  <ele>1583.12</ele>
  <time>2026-08-28T17:52:23Z</time>
  <course>0.36</course>
  <speed>4.09</speed>
  <fix>3d</fix>
</trkpt>
<trkpt lat="40.0714097" lon="-105.2297879">
  <ele>1583.0</ele>
  <time>2026-08-28T17:52:23Z</time>
  <course>359.47</course>
  <speed>3.84</speed>
  <fix>3d</fix>
</trkpt>
<trkpt lat="40.0714211" lon="-105.2297878">
  <ele>1583.12</ele>
  <time>2026-08-28T17:52:23Z</time>
  <course>0.36</course>
  <speed>4.23</speed>
  <fix>3d</fix>
</trkpt>
<trkpt lat="40.0714168" lon="-105.229788">
  <ele>1583.0</ele>
  <time>2026-08-28T17:52:23Z</time>
  <course>359.47</course>
  <speed>4.13</speed>
  <fix>3d</fix>
</trkpt>
<trkpt lat="40.071425" lon="-105.2297878">
  <ele>1583.12</ele>
  <time>2026-08-28T17:52:23Z</time>
  <course>0.36</course>
  <speed>4.38</speed>
  <fix>3d</fix>
</trkpt>
<trkpt lat="40.0714168" lon="-105.229788">
  <ele>1583.0</ele>
  <time>2026-08-28T17:52:23Z</time>
  <course>359.47</course>
  <speed>4.13</speed>
  <fix>3d</fix>
</trkpt>
<trkpt lat="40.0714291" lon="-105.2297878">
  <ele>1583.12</ele>
  <time>2026-08-28T17:52:23Z</time>
  <course>0.36</course>
  <speed>4.51</speed>
  <fix>3d</fix>
</trkpt>
<trkpt lat="40.0714245" lon="-105.2297881">
  <ele>1583.0</ele>
  <time>2026-08-28T17:52:23Z</time>
  <course>359.47</course>
  <speed>4.4</speed>
  <fix>3d</fix>
</trkpt>
<trkpt lat="40.0714333" lon="-105.2297878">
  <ele>1583.12</ele>
  <time>2026-08-28T17:52:23Z</time>
  <course>0.35</course>
  <speed>4.64</speed>
  <fix>3d</fix>
</trkpt>
<trkpt lat="40.0714245" lon="-105.2297881">
  <ele>1583.0</ele>
  <time>2026-08-28T17:52:23Z</time>
  <course>359.47</course>
  <speed>4.4</speed>
  <fix>3d</fix>
</trkpt>
<trkpt lat="40.0714377" lon="-105.2297879">
  <ele>1583.12</ele>
  <time>2026-08-28T17:52:23Z</time>
  <course>0.35</course>
  <speed>4.76</speed>
  <fix>3d</fix>
</trkpt>
<trkpt lat="40.0714326" lon="-105.2297882">
  <ele>1583.0</ele>
  <time>2026-08-28T17:52:23Z</time>
  <course>359.47</course>
  <speed>4.66</speed>
  <fix>3d</fix>
</trkpt>
<trkpt lat="40.0714421" lon="-105.2297879">
  <ele>1583.12</ele>
  <time>2026-08-28T17:52:23Z</time>
  <course>0.35</course>
  <speed>4.86</speed>
  <fix>3d</fix>
</trkpt>
<trkpt lat="40.0714326" lon="-105.2297882">
  <ele>1583.0</ele>
  <time>2026-08-28T17:52:23Z</time>
  <course>359.47</course>
  <speed>4.66</speed>
  <fix>3d</fix>
</trkpt>
<trkpt lat="40.0714466" lon="-105.2297879">
  <ele>1583.12</ele>
  <time>2026-08-28T17:52:23Z</time>
  <course>0.35</course>
  <speed>4.95</speed>
  <fix>3d</fix>
</trkpt>
<trkpt lat="40.0714412" lon="-105.2297883">
  <ele>1583.0</ele>
  <time>2026-08-28T17:52:23Z</time>
  <course>359.47</course>
  <speed>4.87</speed>
  <fix>3d</fix>
</trkpt>
<trkpt lat="40.0714512" lon="-105.229788">
  <ele>1583.13</ele>
  <time>2026-08-28T17:52:23Z</time>
  <course>0.34</course>
  <speed>5.03</speed>
  <fix>3d</fix>
</trkpt>
<trkpt lat="40.0714412" lon="-105.2297883">
  <ele>1583.0</ele>
  <time>2026-08-28T17:52:23Z</time>
  <course>359.47</course>
  <speed>4.87</speed>
  <fix>3d</fix>
</trkpt>
<trkpt lat="40.0714567" lon="-105.229788">
  <ele>1583.13</ele>
  <time>2026-08-28T17:52:23Z</time>
  <course>0.34</course>
  <speed>5.11</speed>
  <fix>3d</fix>
</trkpt>
<trkpt lat="40.0714502" lon="-105.2297884">
  <ele>1583.0</ele>
  <time>2026-08-28T17:52:23Z</time>
  <course>359.47</course>
  <speed>5.03</speed>
  <fix>3d</fix>
</trkpt>
<trkpt lat="40.0714614" lon="-105.2297881">
  <ele>1583.12</ele>
  <time>2026-08-28T17:52:23Z</time>
  <course>0.34</course>
  <speed>5.16</speed>
  <fix>3d</fix>
</trkpt>
<trkpt lat="40.0714502" lon="-105.2297884">
  <ele>1583.0</ele>
  <time>2026-08-28T17:52:23Z</time>
  <course>359.47</course>
  <speed>5.03</speed>
  <fix>3d</fix>
</trkpt>
<trkpt lat="40.0714662" lon="-105.2297881">
  <ele>1583.12</ele>
  <time>2026-08-28T17:52:23Z</time>
  <course>0.33</course>
  <speed>5.2</speed>
  <fix>3d</fix>
</trkpt>
<trkpt lat="40.0714593" lon="-105.2297885">
  <ele>1583.0</ele>
  <time>2026-08-28T17:52:23Z</time>
  <course>359.47</course>
  <speed>5.14</speed>
  <fix>3d</fix>
</trkpt>
<trkpt lat="40.0714709" lon="-105.2297882">
  <ele>1583.12</ele>
  <time>2026-08-28T17:52:23Z</time>
  <course>0.33</course>
  <speed>5.23</speed>
  <fix>3d</fix>
</trkpt>
<trkpt lat="40.0714593" lon="-105.2297885">
  <ele>1583.0</ele>
  <time>2026-08-28T17:52:23Z</time>
  <course>359.47</course>
  <speed>5.14</speed>
  <fix>3d</fix>
</trkpt>
<trkpt lat="40.0714757" lon="-105.2297882">
  <ele>1583.12</ele>
  <time>2026-08-28T17:52:23Z</time>
  <course>0.33</course>
  <speed>5.24</speed>
  <fix>3d</fix>
</trkpt>
<trkpt lat="40.0714686" lon="-105.2297886">
  <ele>1583.0</ele>
  <time>2026-08-28T17:52:23Z</time>
  <course>359.47</course>
  <speed>5.21</speed>
  <fix>3d</fix>
</trkpt>
<trkpt lat="40.0714804" lon="-105.2297883">
  <ele>1583.12</ele>
  <time>2026-08-28T17:52:23Z</time>
  <course>0.32</course>
  <speed>5.22</speed>
  <fix>3d</fix>
</trkpt>
<trkpt lat="40.0714686" lon="-105.2297886">
  <ele>1583.0</ele>
  <time>2026-08-28T17:52:23Z</time>
  <course>359.47</course>
  <speed>5.21</speed>
  <fix>3d</fix>
</trkpt>
<trkpt lat="40.071485" lon="-105.2297883">
  <ele>1583.12</ele>
  <time>2026-08-28T17:52:23Z</time>
  <course>0.32</course>
  <speed>5.18</speed>
  <fix>3d</fix>
</trkpt>
<trkpt lat="40.071478" lon="-105.2297887">
  <ele>1583.0</ele>
  <time>2026-08-28T17:52:23Z</time>
  <course>359.47</course>
  <speed>5.2</speed>
  <fix>3d</fix>
</trkpt>
<trkpt lat="40.0714896" lon="-105.2297884">
  <ele>1583.12</ele>
  <time>2026-08-28T17:52:23Z</time>
  <course>0.32</course>
  <speed>5.11</speed>
  <fix>3d</fix>
</trkpt>
<trkpt lat="40.071478" lon="-105.2297887">
  <ele>1583.0</ele>
  <time>2026-08-28T17:52:23Z</time>
  <course>359.47</course>
  <speed>5.2</speed>
  <fix>3d</fix>
</trkpt>
<trkpt lat="40.0714942" lon="-105.2297884">
  <ele>1583.13</ele>
  <time>2026-08-28T17:52:23Z</time>
  <course>0.32</course>
  <speed>5.020009960149482</speed>
  <fix>3d</fix>
</trkpt>
<trkpt lat="40.0714873" lon="-105.2297888">
  <ele>1583.0</ele>
  <time>2026-08-28T17:52:23Z</time>
  <course>359.47</course>
  <speed>5.11</speed>
  <fix>3d</fix>
</trkpt>
<trkpt lat="40.0714986" lon="-105.2297885">
  <ele>1583.13</ele>
  <time>2026-08-28T17:52:23Z</time>
  <course>0.31</course>
  <speed>4.92001016259113</speed>
  <fix>3d</fix>
</trkpt>
<trkpt lat="40.0714873" lon="-105.2297888">
  <ele>1583.0</ele>
  <time>2026-08-28T17:52:23Z</time>
  <course>359.47</course>
  <speed>5.11</speed>
  <fix>3d</fix>
</trkpt>
<trkpt lat="40.0715029" lon="-105.2297886">
  <ele>1583.13</ele>
  <time>2026-08-28T17:52:23Z</time>
  <course>0.31</course>
  <speed>4.800010416655364</speed>
  <fix>3d</fix>
</trkpt>
<trkpt lat="40.0714963" lon="-105.2297889">
  <ele>1583.0</ele>
  <time>2026-08-28T17:52:23Z</time>
  <course>359.47</course>
  <speed>4.93</speed>
  <fix>3d</fix>
</trkpt>
<trkpt lat="40.0715063" lon="-105.2297886">
  <ele>1583.13</ele>
  <time>2026-08-28T17:52:23Z</time>
  <course>0.31</course>
  <speed>4.700010638285833</speed>
  <fix>3d</fix>
</trkpt>
<trkpt lat="40.0714963" lon="-105.2297889">
  <ele>1583.0</ele>
  <time>2026-08-28T17:52:23Z</time>
  <course>359.47</course>
  <speed>4.93</speed>
  <fix>3d</fix>
</trkpt>
<trkpt lat="40.0715104" lon="-105.2297887">
  <ele>1583.13</ele>
  <time>2026-08-28T17:52:23Z</time>
  <course>0.31</course>
  <speed>4.560010964899098</speed>
  <fix>3d</fix>
</trkpt>
<trkpt lat="40.071505" lon="-105.229789">
  <ele>1583.0</ele>
  <time>2026-08-28T17:52:23Z</time>
  <course>359.47</course>
  <speed>4.7</speed>
  <fix>3d</fix>
</trkpt>
<trkpt lat="40.0715145" lon="-105.2297888">
  <ele>1583.13</ele>
  <time>2026-08-28T17:52:23Z</time>
  <course>0.33</course>
  <speed>4.410011337853906</speed>
  <fix>3d</fix>
</trkpt>
<trkpt lat="40.071505" lon="-105.229789">
  <ele>1583.0</ele>
  <time>2026-08-28T17:52:23Z</time>
  <course>359.47</course>
  <speed>4.7</speed>
  <fix>3d</fix>
</trkpt>
<trkpt lat="40.0715183" lon="-105.2297888">
  <ele>1583.14</ele>
  <time>2026-08-28T17:52:23Z</time>
  <course>0.39</course>
  <speed>4.260011737073032</speed>
  <fix>3d</fix>
</trkpt>
<trkpt lat="40.0715132" lon="-105.2297891">
  <ele>1583.0</ele>
  <time>2026-08-28T17:52:23Z</time>
  <course>359.51</course>
  <speed>4.42</speed>
  <fix>3d</fix>
</trkpt>
<trkpt lat="40.0715221" lon="-105.2297889">
  <ele>1583.14</ele>
  <time>2026-08-28T17:52:23Z</time>
  <course>0.45</course>
  <speed>4.110012165432117</speed>
  <fix>3d</fix>
</trkpt>
<trkpt lat="40.0715132" lon="-105.2297891">
  <ele>1583.0</ele>
  <time>2026-08-28T17:52:23Z</time>
  <course>359.51</course>
  <speed>4.42</speed>
  <fix>3d</fix>
</trkpt>
<trkpt lat="40.0715257" lon="-105.2297889">
  <ele>1583.14</ele>
  <time>2026-08-28T17:52:23Z</time>
  <course>0.5</course>
  <speed>3.950012658207566</speed>
  <fix>3d</fix>
</trkpt>
<trkpt lat="40.0715208" lon="-105.2297892">
  <ele>1583.0</ele>
  <time>2026-08-28T17:52:23Z</time>
  <course>359.61</course>
  <speed>4.12</speed>
  <fix>3d</fix>
</trkpt>
<trkpt lat="40.0715292" lon="-105.229789">
  <ele>1583.14</ele>
  <time>2026-08-28T17:52:23Z</time>
  <course>0.55</course>
  <speed>3.7900131925891767</speed>
  <fix>3d</fix>
</trkpt>
<trkpt lat="40.0715208" lon="-105.2297892">
  <ele>1583.0</ele>
  <time>2026-08-28T17:52:23Z</time>
  <course>359.61</course>
  <speed>4.12</speed>
  <fix>3d</fix>
</trkpt>
<trkpt lat="40.0715325" lon="-105.229789">
  <ele>1583.14</ele>
  <time>2026-08-28T17:52:23Z</time>
  <course>0.61</course>
  <speed>3.63</speed>
  <fix>3d</fix>
</trkpt>
<trkpt lat="40.071528" lon="-105.2297892">
  <ele>1583.0</ele>
  <time>2026-08-28T17:52:23Z</time>
  <course>359.72</course>
  <speed>3.81</speed>
  <fix>3d</fix>
</trkpt>
<trkpt lat="40.0715357" lon="-105.229789">
  <ele>1583.14</ele>
  <time>2026-08-28T17:52:23Z</time>
  <course>0.66</course>
  <speed>3.48</speed>
  <fix>3d</fix>
</trkpt>
<trkpt lat="40.071528" lon="-105.2297892">
  <ele>1583.0</ele>
  <time>2026-08-28T17:52:23Z</time>
  <course>359.72</course>
  <speed>3.81</speed>
  <fix>3d</fix>
</trkpt>
<trkpt lat="40.0715394" lon="-105.2297891">
  <ele>1583.14</ele>
  <time>2026-08-28T17:52:23Z</time>
  <course>0.77</course>
  <speed>3.29</speed>
  <fix>3d</fix>
</trkpt>
<trkpt lat="40.0715346" lon="-105.2297893">
  <ele>1583.0</ele>
  <time>2026-08-28T17:52:23Z</time>
  <course>359.84</course>
  <speed>3.5</speed>
  <fix>3d</fix>
</trkpt>
<trkpt lat="40.0715423" lon="-105.2297891">
  <ele>1583.15</ele>
  <time>2026-08-28T17:52:23Z</time>
  <course>0.86</course>
  <speed>3.14</speed>
  <fix>3d</fix>
</trkpt>
<trkpt lat="40.0715346" lon="-105.2297893">
  <ele>1583.0</ele>
  <time>2026-08-28T17:52:23Z</time>
  <course>359.84</course>
  <speed>3.5</speed>
  <fix>3d</fix>
</trkpt>
<trkpt lat="40.071545" lon="-105.2297891">
  <ele>1583.15</ele>
  <time>2026-08-28T17:52:23Z</time>
  <course>0.94</course>
  <speed>2.99</speed>
  <fix>3d</fix>
</trkpt>
<trkpt lat="40.0715406" lon="-105.2297894">
  <ele>1583.0</ele>
  <time>2026-08-28T17:52:23Z</time>
  <course>0.0</course>
  <speed>3.2</speed>
  <fix>3d</fix>
</trkpt>
<trkpt lat="40.0715476" lon="-105.2297891">
  <ele>1583.15</ele>
  <time>2026-08-28T17:52:23Z</time>
  <course>1.05</course>
  <speed>2.84</speed>
  <fix>3d</fix>
</trkpt>
<trkpt lat="40.0715406" lon="-105.2297894">
  <ele>1583.0</ele>
  <time>2026-08-28T17:52:23Z</time>
  <course>0.0</course>
  <speed>3.2</speed>
  <fix>3d</fix>
</trkpt>
<trkpt lat="40.0715501" lon="-105.2297891">
  <ele>1583.15</ele>
  <time>2026-08-28T17:52:23Z</time>
  <course>1.17</course>
  <speed>2.7</speed>
  <fix>3d</fix>
</trkpt>
<trkpt lat="40.0715461" lon="-105.2297894">
  <ele>1583.0</ele>
  <time>2026-08-28T17:52:23Z</time>
  <course>0.19</course>
  <speed>2.91</speed>
  <fix>3d</fix>
</trkpt>
<trkpt lat="40.0715525" lon="-105.2297891">
  <ele>1583.14</ele>
  <time>2026-08-28T17:52:23Z</time>
  <course>1.28</course>
  <speed>2.57</speed>
  <fix>3d</fix>
</trkpt>
<trkpt lat="40.0715461" lon="-105.2297894">
  <ele>1583.0</ele>
  <time>2026-08-28T17:52:23Z</time>
  <course>0.19</course>
  <speed>2.91</speed>
  <fix>3d</fix>
</trkpt>
<trkpt lat="40.0715547" lon="-105.2297891">
  <ele>1583.14</ele>
  <time>2026-08-28T17:52:23Z</time>
  <course>1.42</course>
  <speed>2.4400204917172315</speed>
  <fix>3d</fix>
</trkpt>
<trkpt lat="40.0715511" lon="-105.2297894">
  <ele>1583.0</ele>
  <time>2026-08-28T17:52:23Z</time>
  <course>0.42</course>
  <speed>2.64</speed>
  <fix>3d</fix>
</trkpt>
<trkpt lat="40.0715568" lon="-105.2297891">
  <ele>1583.14</ele>
  <time>2026-08-28T17:52:23Z</time>
  <course>1.56</course>
  <speed>2.3100216449202375</speed>
  <fix>3d</fix>
</trkpt>
<trkpt lat="40.0715511" lon="-105.2297894">
  <ele>1583.0</ele>
  <time>2026-08-28T17:52:23Z</time>
  <course>0.42</course>
  <speed>2.64</speed>
  <fix>3d</fix>
</trkpt>
<trkpt lat="40.0715588" lon="-105.2297891">
  <ele>1583.14</ele>
  <time>2026-08-28T17:52:23Z</time>
  <course>1.71</course>
  <speed>2.190022830931221</speed>
  <fix>3d</fix>
</trkpt>
<trkpt lat="40.0715556" lon="-105.2297893">
  <ele>1583.0</ele>
  <time>2026-08-28T17:52:23Z</time>
  <course>0.68</course>
  <speed>2.38</speed>
  <fix>3d</fix>
</trkpt>
<trkpt lat="40.0715607" lon="-105.2297891">
  <ele>1583.14</ele>
  <time>2026-08-28T17:52:23Z</time>
  <course>1.89</course>
  <speed>2.0700966161027363</speed>
  <fix>3d</fix>
</trkpt>
<trkpt lat="40.0715556" lon="-105.2297893">
  <ele>1583.0</ele>
  <time>2026-08-28T17:52:23Z</time>
  <course>0.68</course>
  <speed>2.38</speed>
  <fix>3d</fix>
</trkpt>
<trkpt lat="40.0715625" lon="-105.2297891">
  <ele>1583.14</ele>
  <time>2026-08-28T17:52:23Z</time>
  <course>2.07</course>
  <speed>1.9601020381602587</speed>
  <fix>3d</fix>
</trkpt>
<trkpt lat="40.0715597" lon="-105.2297892">
  <ele>1583.0</ele>
  <time>2026-08-28T17:52:23Z</time>
  <course>1.0</course>
  <speed>2.15</speed>
  <fix>3d</fix>
</trkpt>
<trkpt lat="40.0715642" lon="-105.2297891">
  <ele>1583.14</ele>
  <time>2026-08-28T17:52:23Z</time>
  <course>2.28</course>
  <speed>1.8502432272541898</speed>
  <fix>3d</fix>
</trkpt>
<trkpt lat="40.0715597" lon="-105.2297892">
  <ele>1583.0</ele>
  <time>2026-08-28T17:52:23Z</time>
  <course>1.0</course>
  <speed>2.15</speed>
  <fix>3d</fix>
</trkpt>
<trkpt lat="40.0715655" lon="-105.2297891">
  <ele>1583.13</ele>
  <time>2026-08-28T17:52:23Z</time>
  <course>2.46</course>
  <speed>1.7602556632489499</speed>
  <fix>3d</fix>
</trkpt>
<trkpt lat="40.0715634" lon="-105.2297891">
  <ele>1583.0</ele>
  <time>2026-08-28T17:52:23Z</time>
  <course>1.38</course>
  <speed>1.93</speed>
  <fix>3d</fix>
</trkpt>
<trkpt lat="40.0715671" lon="-105.2297891">
  <ele>1583.13</ele>
  <time>2026-08-28T17:52:23Z</time>
  <course>2.7</course>
  <speed>1.6602710622064096</speed>
  <fix>3d</fix>
</trkpt>
<trkpt lat="40.0715634" lon="-105.2297891">
  <ele>1583.0</ele>
  <time>2026-08-28T17:52:23Z</time>
  <course>1.38</course>
  <speed>1.93</speed>
  <fix>3d</fix>
</trkpt>
<trkpt lat="40.0715685" lon="-105.229789">
  <ele>1583.13</ele>
  <time>2026-08-28T17:52:23Z</time>
  <course>2.96</course>
  <speed>1.5605127362504927</speed>
  <fix>3d</fix>
</trkpt>
<trkpt lat="40.0715667" lon="-105.229789">
  <ele>1583.0</ele>
  <time>2026-08-28T17:52:23Z</time>
  <course>1.84</course>
  <speed>1.72</speed>
  <fix>3d</fix>
</trkpt>
<trkpt lat="40.0715699" lon="-105.229789">
  <ele>1583.13</ele>
  <time>2026-08-28T17:52:23Z</time>
  <course>3.25</course>
  <speed>1.4605478424207814</speed>
  <fix>3d</fix>
</trkpt>
<trkpt lat="40.0715667" lon="-105.229789">
  <ele>1583.0</ele>
  <time>2026-08-28T17:52:23Z</time>
  <course>1.84</course>
  <speed>1.72</speed>
  <fix>3d</fix>
</trkpt>
<trkpt lat="40.0715712" lon="-105.2297889">
  <ele>1583.13</ele>
  <time>2026-08-28T17:52:23Z</time>
  <course>3.58</course>
  <speed>1.3609188072769072</speed>
  <fix>3d</fix>
</trkpt>
<trkpt lat="40.0715696" lon="-105.2297888">
  <ele>1583.0</ele>
  <time>2026-08-28T17:52:23Z</time>
  <course>2.4</course>
  <speed>1.53</speed>
  <fix>3d</fix>
</trkpt>
<trkpt lat="40.0715724" lon="-105.2297888">
  <ele>1583.13</ele>
  <time>2026-08-28T17:52:23Z</time>
  <course>3.94</course>
  <speed>1.2709838708654018</speed>
  <fix>3d</fix>
</trkpt>
<trkpt lat="40.0715696" lon="-105.2297888">
  <ele>1583.0</ele>
  <time>2026-08-28T17:52:23Z</time>
  <course>2.4</course>
  <speed>1.53</speed>
  <fix>3d</fix>
</trkpt>
<trkpt lat="40.0715735" lon="-105.2297887">
  <ele>1583.12</ele>
  <time>2026-08-28T17:52:23Z</time>
  <course>4.37</course>
  <speed>1.1815244390193544</speed>
  <fix>3d</fix>
</trkpt>
<trkpt lat="40.0715722" lon="-105.2297887">
  <ele>1583.0</ele>
  <time>2026-08-28T17:52:23Z</time>
  <course>3.1</course>
  <speed>1.34</speed>
  <fix>3d</fix>
</trkpt>
<trkpt lat="40.0715745" lon="-105.2297886">
  <ele>1583.12</ele>
  <time>2026-08-28T17:52:23Z</time>
  <course>4.85</course>
  <speed>1.0816653826391969</speed>
  <fix>3d</fix>
</trkpt>
<trkpt lat="40.0715722" lon="-105.2297887">
  <ele>1583.0</ele>
  <time>2026-08-28T17:52:23Z</time>
  <course>3.1</course>
  <speed>1.34</speed>
  <fix>3d</fix>
</trkpt>
<trkpt lat="40.0715755" lon="-105.2297885">
  <ele>1583.12</ele>
  <time>2026-08-28T17:52:23Z</time>
  <course>5.4</course>
  <speed>0.9924716620639604</speed>
  <fix>3d</fix>
</trkpt>
<trkpt lat="40.0715744" lon="-105.2297886">
  <ele>1583.0</ele>
  <time>2026-08-28T17:52:23Z</time>
  <course>3.99</course>
  <speed>1.15</speed>
  <fix>3d</fix>
</trkpt>
<trkpt lat="40.0715765" lon="-105.2297884">
  <ele>1583.13</ele>
  <time>2026-08-28T17:52:23Z</time>
  <course>6.16</course>
  <speed>0.8827797007181349</speed>
  <fix>3d</fix>
</trkpt>
<trkpt lat="40.0715744" lon="-105.2297886">
  <ele>1583.0</ele>
  <time>2026-08-28T17:52:23Z</time>
  <course>3.99</course>
  <speed>1.15</speed>
  <fix>3d</fix>
</trkpt>
<trkpt lat="40.0715773" lon="-105.2297883">
  <ele>1583.13</ele>
  <time>2026-08-28T17:52:23Z</time>
  <course>6.82</course>
  <speed>0.7930952023559341</speed>
  <fix>3d</fix>
</trkpt>
<trkpt lat="40.0715763" lon="-105.2297883">
  <ele>1583.0</ele>
  <time>2026-08-28T17:52:23Z</time>
  <course>5.13</course>
  <speed>0.97</speed>
  <fix>3d</fix>
</trkpt>
<trkpt lat="40.071578" lon="-105.2297882">
  <ele>1583.14</ele>
  <time>2026-08-28T17:52:23Z</time>
  <course>7.47</course>
  <speed>0.7034912934784623</speed>
  <fix>3d</fix>
</trkpt>
<trkpt lat="40.0715763" lon="-105.2297883">
  <ele>1583.0</ele>
  <time>2026-08-28T17:52:23Z</time>
  <course>5.13</course>
  <speed>0.97</speed>
  <fix>3d</fix>
</trkpt>
<trkpt lat="40.0715786" lon="-105.2297881">
  <ele>1583.14</ele>
  <time>2026-08-28T17:52:23Z</time>
  <course>8.1</course>
  <speed>0.6040695324215583</speed>
  <fix>3d</fix>
</trkpt>
<trkpt lat="40.0715779" lon="-105.2297882">
  <ele>1583.0</ele>
  <time>2026-08-28T17:52:23Z</time>
  <course>6.41</course>
  <speed>0.79</speed>
  <fix>3d</fix>
</trkpt>
<trkpt lat="40.0715792" lon="-105.229788">
  <ele>1583.14</ele>
  <time>2026-08-28T17:52:23Z</time>
  <course>8.69</course>
  <speed>0.5135172830587107</speed>
  <fix>3d</fix>
</trkpt>
<trkpt lat="40.0715779" lon="-105.2297882">
  <ele>1583.0</ele>
  <time>2026-08-28T17:52:23Z</time>
  <course>6.41</course>
  <speed>0.79</speed>
  <fix>3d</fix>
</trkpt>
<trkpt lat="40.0715796" lon="-105.2297879">
  <ele>1583.14</ele>
  <time>2026-08-28T17:52:23Z</time>
  <course>9.23</course>
  <speed>0.4242640687119285</speed>
  <fix>3d</fix>
</trkpt>
<trkpt lat="40.0715792" lon="-105.2297879">
  <ele>1583.0</ele>
  <time>2026-08-28T17:52:23Z</time>
  <course>7.61</course>
  <speed>0.61</speed>
  <fix>3d</fix>
</trkpt>
<trkpt lat="40.07158" lon="-105.2297879">
  <ele>1583.13</ele>
  <time>2026-08-28T17:52:23Z</time>
  <course>9.7</course>
  <speed>0.33376638536557274</speed>
  <fix>3d</fix>
</trkpt>
<trkpt lat="40.0715792" lon="-105.2297879">
  <ele>1583.0</ele>
  <time>2026-08-28T17:52:23Z</time>
  <course>7.61</course>
  <speed>0.61</speed>
  <fix>3d</fix>
</trkpt>
<trkpt lat="40.0715803" lon="-105.2297878">
  <ele>1583.13</ele>
  <time>2026-08-28T17:52:23Z</time>
  <course>10.1</course>
  <speed>0.23345235059857505</speed>
  <fix>3d</fix>
</trkpt>
<trkpt lat="40.0715801" lon="-105.2297878">
  <ele>1583.0</ele>
  <time>2026-08-28T17:52:23Z</time>
  <course>8.62</course>
  <speed>0.42</speed>
  <fix>3d</fix>
</trkpt>
<trkpt lat="40.0715805" lon="-105.2297877">
  <ele>1583.13</ele>
  <time>2026-08-28T17:52:23Z</time>
  <course>10.41</course>
  <speed>0.1414213562373095</speed>
  <fix>3d</fix>
</trkpt>
<trkpt lat="40.0715801" lon="-105.2297878">
  <ele>1583.0</ele>
  <time>2026-08-28T17:52:23Z</time>
  <course>8.62</course>
  <speed>0.42</speed>
  <fix>3d</fix>
</trkpt>
<trkpt lat="40.0715806" lon="-105.2297877">
  <ele>1583.13</ele>
  <time>2026-08-28T17:52:23Z</time>
  <course>10.62</course>
  <speed>0.05099019513592785</speed>
  <fix>3d</fix>
</trkpt>
<trkpt lat="40.0715807" lon="-105.2297876">
  <ele>1583.0</ele>
  <time>2026-08-28T17:52:23Z</time>
  <course>9.34</course>
  <speed>0.24</speed>
  <fix>3d</fix>
</trkpt>
<trkpt lat="40.0715806" lon="-105.2297877">
  <ele>1583.13</ele>
  <time>2026-08-28T17:52:23Z</time>
  <course>10.71</course>
  <speed>0.01</speed>
  <fix>3d</fix>
</trkpt>
<trkpt lat="40.0715807" lon="-105.2297876">
  <ele>1583.0</ele>
  <time>2026-08-28T17:52:23Z</time>
  <course>9.34</course>
  <speed>0.24</speed>
  <fix>3d</fix>
</trkpt>
<trkpt lat="40.0715806" lon="-105.2297877">
  <ele>1583.13</ele>
  <time>2026-08-28T17:52:23Z</time>
  <course>10.68</course>
  <speed>0.06</speed>
  <fix>3d</fix>
</trkpt>
<trkpt lat="40.0715809" lon="-105.2297876">
  <ele>1583.0</ele>
  <time>2026-08-28T17:52:23Z</time>
  <course>9.73</course>
  <speed>0.08</speed>
  <fix>3d</fix>
</trkpt>
<trkpt lat="40.0715806" lon="-105.2297877">
  <ele>1583.13</ele>
  <time>2026-08-28T17:52:23Z</time>
  <course>10.7</course>
  <speed>0.1004987562112089</speed>
  <fix>3d</fix>
</trkpt>
<trkpt lat="40.0715809" lon="-105.2297876">
  <ele>1583.0</ele>
  <time>2026-08-28T17:52:23Z</time>
  <course>9.73</course>
  <speed>0.08</speed>
  <fix>3d</fix>
</trkpt>
<trkpt lat="40.0715806" lon="-105.2297877">
  <ele>1583.13</ele>
  <time>2026-08-28T17:52:23Z</time>
  <course>10.76</course>
  <speed>0.130384048104053</speed>
  <fix>3d</fix>
</trkpt>
<trkpt lat="40.071581" lon="-105.2297876">
  <ele>1583.0</ele>
  <time>2026-08-28T17:52:23Z</time>
  <course>189.9</course>
  <speed>0.02</speed>
  <fix>3d</fix>
</trkpt>
<trkpt lat="40.0715805" lon="-105.2297877">
  <ele>1583.13</ele>
  <time>2026-08-28T17:52:23Z</time>
  <course>10.86</course>
  <speed>0.140356688476182</speed>
  <fix>3d</fix>
</trkpt>
<trkpt lat="40.071581" lon="-105.2297876">
  <ele>1583.0</ele>
  <time>2026-08-28T17:52:23Z</time>
  <course>189.9</course>
  <speed>0.02</speed>
  <fix>3d</fix>
</trkpt>
<trkpt lat="40.0715805" lon="-105.2297877">
  <ele>1583.13</ele>
  <time>2026-08-28T17:52:23Z</time>
  <course>10.97</course>
  <speed>0.140356688476182</speed>
  <fix>3d</fix>
</trkpt>
<trkpt lat="40.071581" lon="-105.2297876">
  <ele>1583.0</ele>
  <time>2026-08-28T17:52:23Z</time>
  <course>189.99</course>
  <speed>0.06</speed>
  <fix>3d</fix>
</trkpt>
<trkpt lat="40.0715804" lon="-105.2297877">
  <ele>1583.13</ele>
  <time>2026-08-28T17:52:23Z</time>
  <course>11.07</course>
  <speed>0.12</speed>
  <fix>3d</fix>
</trkpt>
<trkpt lat="40.071581" lon="-105.2297876">
  <ele>1583.0</ele>
  <time>2026-08-28T17:52:23Z</time>
  <course>189.99</course>
  <speed>0.06</speed>
  <fix>3d</fix>
</trkpt>
<trkpt lat="40.0715803" lon="-105.2297877">
  <ele>1583.13</ele>
  <time>2026-08-28T17:52:23Z</time>
  <course>11.14</course>
  <speed>0.09</speed>
  <fix>3d</fix>
</trkpt>
<trkpt lat="40.0715809" lon="-105.2297876">
  <ele>1583.0</ele>
  <time>2026-08-28T17:52:23Z</time>
  <course>190.14</course>
  <speed>0.05</speed>
  <fix>3d</fix>
</trkpt>
<trkpt lat="40.0715803" lon="-105.2297877">
  <ele>1583.13</ele>
  <time>2026-08-28T17:52:23Z</time>
  <course>11.17</course>
  <speed>0.05</speed>
  <fix>3d</fix>
</trkpt>
<trkpt lat="40.0715809" lon="-105.2297876">
  <ele>1583.0</ele>
  <time>2026-08-28T17:52:23Z</time>
  <course>190.14</course>
  <speed>0.05</speed>
  <fix>3d</fix>
</trkpt>
<trkpt lat="40.0715804" lon="-105.2297877">
  <ele>1583.13</ele>
  <time>2026-08-28T17:52:23Z</time>
  <course>11.11</course>
  <speed>0.02</speed>
  <fix>3d</fix>
</trkpt>
<trkpt lat="40.0715809" lon="-105.2297876">
  <ele>1583.0</ele>
  <time>2026-08-28T17:52:23Z</time>
  <course>10.2</course>
  <speed>0.01</speed>
  <fix>3d</fix>
</trkpt>
<trkpt lat="40.0715805" lon="-105.2297877">
  <ele>1583.13</ele>
  <time>2026-08-28T17:52:23Z</time>
  <course>11.27</course>
  <speed>0.0670820393249937</speed>
  <fix>3d</fix>
</trkpt>
<trkpt lat="40.0715809" lon="-105.2297876">
  <ele>1583.0</ele>
  <time>2026-08-28T17:52:23Z</time>
  <course>10.2</course>
  <speed>0.01</speed>
  <fix>3d</fix>
</trkpt>
<trkpt lat="40.0715806" lon="-105.2297876">
  <ele>1583.13</ele>
  <time>2026-08-28T17:52:23Z</time>
  <course>11.6</course>
  <speed>0.14866068747318506</speed>
  <fix>3d</fix>
</trkpt>
<trkpt lat="40.0715809" lon="-105.2297876">
  <ele>1583.0</ele>
  <time>2026-08-28T17:52:23Z</time>
  <course>10.54</course>
  <speed>0.12</speed>
  <fix>3d</fix>
</trkpt>
<trkpt lat="40.0715808" lon="-105.2297875">
  <ele>1583.14</ele>
  <time>2026-08-28T17:52:23Z</time>
  <course>12.04</course>
  <speed>0.2308679276123039</speed>
  <fix>3d</fix>
</trkpt>
<trkpt lat="40.0715809" lon="-105.2297876">
  <ele>1583.0</ele>
  <time>2026-08-28T17:52:23Z</time>
  <course>10.54</course>
  <speed>0.12</speed>
  <fix>3d</fix>
</trkpt>
<trkpt lat="40.0715811" lon="-105.2297874">
  <ele>1583.14</ele>
  <time>2026-08-28T17:52:23Z</time>
  <course>12.65</course>
  <speed>0.3132091952673165</speed>
  <fix>3d</fix>
</trkpt>
<trkpt lat="40.0715813" lon="-105.2297875">
  <ele>1583.0</ele>
  <time>2026-08-28T17:52:23Z</time>
  <course>11.27</course>
  <speed>0.26</speed>
  <fix>3d</fix>
</trkpt>
<trkpt lat="40.0715815" lon="-105.2297873">
  <ele>1583.14</ele>
  <time>2026-08-28T17:52:23Z</time>
  <course>13.47</course>
  <speed>0.3984971769034255</speed>
  <fix>3d</fix>
</trkpt>
<trkpt lat="40.0715813" lon="-105.2297875">
  <ele>1583.0</ele>
  <time>2026-08-28T17:52:23Z</time>
  <course>11.27</course>
  <speed>0.26</speed>
  <fix>3d</fix>
</trkpt>
<trkpt lat="40.0715819" lon="-105.2297871">
  <ele>1583.15</ele>
  <time>2026-08-28T17:52:23Z</time>
  <course>14.53</course>
  <speed>0.4838388161361178</speed>
  <fix>3d</fix>
</trkpt>
<trkpt lat="40.0715819" lon="-105.2297873">
  <ele>1583.0</ele>
  <time>2026-08-28T17:52:23Z</time>
  <course>12.68</course>
  <speed>0.42</speed>
  <fix>3d</fix>
</trkpt>
<trkpt lat="40.0715824" lon="-105.2297869">
  <ele>1583.15</ele>
  <time>2026-08-28T17:52:23Z</time>
  <course>15.89</course>
  <speed>0.5818934610390462</speed>
  <fix>3d</fix>
</trkpt>
<trkpt lat="40.0715819" lon="-105.2297873">
  <ele>1583.0</ele>
  <time>2026-08-28T17:52:23Z</time>
  <course>12.68</course>
  <speed>0.42</speed>
  <fix>3d</fix>
</trkpt>
<trkpt lat="40.071583" lon="-105.2297867">
  <ele>1583.15</ele>
  <time>2026-08-28T17:52:23Z</time>
  <course>17.62</course>
  <speed>0.6612866246946176</speed>
  <fix>3d</fix>
</trkpt>
<trkpt lat="40.0715828" lon="-105.2297871">
  <ele>1583.0</ele>
  <time>2026-08-28T17:52:23Z</time>
  <course>15.08</course>
  <speed>0.59</speed>
  <fix>3d</fix>
</trkpt>
<trkpt lat="40.0715837" lon="-105.2297864">
  <ele>1583.15</ele>
  <time>2026-08-28T17:52:23Z</time>
  <course>19.82</course>
  <speed>0.7484650960465692</speed>
  <fix>3d</fix>
</trkpt>
<trkpt lat="40.0715828" lon="-105.2297871">
  <ele>1583.0</ele>
  <time>2026-08-28T17:52:23Z</time>
  <course>15.08</course>
  <speed>0.59</speed>
  <fix>3d</fix>
</trkpt>
<trkpt lat="40.0715844" lon="-105.229786">
  <ele>1583.15</ele>
  <time>2026-08-28T17:52:23Z</time>
  <course>22.58</course>
  <speed>0.8276472678623424</speed>
  <fix>3d</fix>
</trkpt>
<trkpt lat="40.0715839" lon="-105.2297866">
  <ele>1583.0</ele>
  <time>2026-08-28T17:52:23Z</time>
  <course>18.97</course>
  <speed>0.75</speed>
  <fix>3d</fix>
</trkpt>
<trkpt lat="40.0715851" lon="-105.2297856">
  <ele>1583.15</ele>
  <time>2026-08-28T17:52:23Z</time>
  <course>26.05</course>
  <speed>0.9082400563727632</speed>
  <fix>3d</fix>
</trkpt>
<trkpt lat="40.0715839" lon="-105.2297866">
  <ele>1583.0</ele>
  <time>2026-08-28T17:52:23Z</time>
  <course>18.97</course>
  <speed>0.75</speed>
  <fix>3d</fix>
</trkpt>
<trkpt lat="40.0715859" lon="-105.229785">
  <ele>1583.16</ele>
  <time>2026-08-28T17:52:23Z</time>
  <course>30.35</course>
  <speed>0.9847842403288144</speed>
  <fix>3d</fix>
</trkpt>
<trkpt lat="40.0715853" lon="-105.2297858">
  <ele>1583.0</ele>
  <time>2026-08-28T17:52:23Z</time>
  <course>25.13</course>
  <speed>0.91</speed>
  <fix>3d</fix>
</trkpt>
<trkpt lat="40.0715866" lon="-105.2297845">
  <ele>1583.16</ele>
  <time>2026-08-28T17:52:23Z</time>
  <course>34.4</course>
  <speed>1.044030650891055</speed>
  <fix>3d</fix>
</trkpt>
<trkpt lat="40.0715853" lon="-105.2297858">
  <ele>1583.0</ele>
  <time>2026-08-28T17:52:23Z</time>
  <course>25.13</course>
  <speed>0.91</speed>
  <fix>3d</fix>
</trkpt>
<trkpt lat="40.0715874" lon="-105.2297837">
  <ele>1583.16</ele>
  <time>2026-08-28T17:52:23Z</time>
  <course>39.97</course>
  <speed>1.104536101718726</speed>
  <fix>3d</fix>
</trkpt>
<trkpt lat="40.0715868" lon="-105.2297847">
  <ele>1583.0</ele>
  <time>2026-08-28T17:52:23Z</time>
  <course>34.15</course>
  <speed>1.04</speed>
  <fix>3d</fix>
</trkpt>
<trkpt lat="40.0715882" lon="-105.2297827">
  <ele>1583.16</ele>
  <time>2026-08-28T17:52:23Z</time>
  <course>46.19</course>
  <speed>1.175925167687128</speed>
  <fix>3d</fix>
</trkpt>
<trkpt lat="40.0715868" lon="-105.2297847">
  <ele>1583.0</ele>
  <time>2026-08-28T17:52:23Z</time>
  <course>34.15</course>
  <speed>1.04</speed>
  <fix>3d</fix>
</trkpt>
<trkpt lat="40.0715889" lon="-105.2297816">
  <ele>1583.16</ele>
  <time>2026-08-28T17:52:23Z</time>
  <course>52.98</course>
  <speed>1.2345849504995596</speed>
  <fix>3d</fix>
</trkpt>
<trkpt lat="40.0715883" lon="-105.229783">
  <ele>1583.0</ele>
  <time>2026-08-28T17:52:23Z</time>
  <course>45.93</course>
  <speed>1.16</speed>
  <fix>3d</fix>
</trkpt>
<trkpt lat="40.0715895" lon="-105.2297804">
  <ele>1583.16</ele>
  <time>2026-08-28T17:52:23Z</time>
  <course>60.42</course>
  <speed>1.2882546332150333</speed>
  <fix>3d</fix>
</trkpt>
<trkpt lat="40.0715883" lon="-105.229783">
  <ele>1583.0</ele>
  <time>2026-08-28T17:52:23Z</time>
  <course>45.93</course>
  <speed>1.16</speed>
  <fix>3d</fix>
</trkpt>
<trkpt lat="40.07159" lon="-105.229779">
  <ele>1583.16</ele>
  <time>2026-08-28T17:52:23Z</time>
  <course>68.41</course>
  <speed>1.3285330255586423</speed>
  <fix>3d</fix>
</trkpt>
<trkpt lat="40.0715896" lon="-105.2297808">
  <ele>1583.0</ele>
  <time>2026-08-28T17:52:23Z</time>
  <course>60.15</course>
  <speed>1.25</speed>
  <fix>3d</fix>
</trkpt>
<trkpt lat="40.0715904" lon="-105.2297774">
  <ele>1583.16</ele>
  <time>2026-08-28T17:52:23Z</time>
  <course>76.84</course>
  <speed>1.376735268670052</speed>
  <fix>3d</fix>
</trkpt>
<trkpt lat="40.0715896" lon="-105.2297808">
  <ele>1583.0</ele>
  <time>2026-08-28T17:52:23Z</time>
  <course>60.15</course>
  <speed>1.25</speed>
  <fix>3d</fix>
</trkpt>
<trkpt lat="40.0715905" lon="-105.2297758">
  <ele>1583.16</ele>
  <time>2026-08-28T17:52:23Z</time>
  <course>85.59</course>
  <speed>1.4117365193264642</speed>
  <fix>3d</fix>
</trkpt>
<trkpt lat="40.0715905" lon="-105.229778">
  <ele>1583.0</ele>
  <time>2026-08-28T17:52:23Z</time>
  <course>76.37</course>
  <speed>1.32</speed>
  <fix>3d</fix>
</trkpt>
<trkpt lat="40.0715905" lon="-105.2297741">
  <ele>1583.16</ele>
  <time>2026-08-28T17:52:23Z</time>
  <course>94.44</course>
  <speed>1.4358969322343438</speed>
  <fix>3d</fix>
</trkpt>
<trkpt lat="40.0715905" lon="-105.229778">
  <ele>1583.0</ele>
  <time>2026-08-28T17:52:23Z</time>
  <course>76.37</course>
  <speed>1.32</speed>
  <fix>3d</fix>
</trkpt>
<trkpt lat="40.0715903" lon="-105.2297724">
  <ele>1583.16</ele>
  <time>2026-08-28T17:52:23Z</time>
  <course>103.4</course>
  <speed>1.4527904184706066</speed>
  <fix>3d</fix>
</trkpt>
<trkpt lat="40.0715907" lon="-105.2297748">
  <ele>1583.0</ele>
  <time>2026-08-28T17:52:23Z</time>
  <course>93.76</course>
  <speed>1.38</speed>
  <fix>3d</fix>
</trkpt>
<trkpt lat="40.0715898" lon="-105.2297705">
  <ele>1583.16</ele>
  <time>2026-08-28T17:52:23Z</time>
  <course>114.0</course>
  <speed>1.4723111084278349</speed>
  <fix>3d</fix>
</trkpt>
<trkpt lat="40.0715907" lon="-105.2297748">
  <ele>1583.0</ele>
  <time>2026-08-28T17:52:23Z</time>
  <course>93.76</course>
  <speed>1.38</speed>
  <fix>3d</fix>
</trkpt>
<trkpt lat="40.0715891" lon="-105.229769">
  <ele>1583.16</ele>
  <time>2026-08-28T17:52:23Z</time>
  <course>122.5</course>
  <speed>1.4756693396557372</speed>
  <fix>3d</fix>
</trkpt>
<trkpt lat="40.0715902" lon="-105.2297716">
  <ele>1583.0</ele>
  <time>2026-08-28T17:52:23Z</time>
  <course>111.31</course>
  <speed>1.41</speed>
  <fix>3d</fix>
</trkpt>
<trkpt lat="40.0715884" lon="-105.2297676">
  <ele>1583.16</ele>
  <time>2026-08-28T17:52:23Z</time>
  <course>130.57</course>
  <speed>1.4816544806398015</speed>
  <fix>3d</fix>
</trkpt>
<trkpt lat="40.0715902" lon="-105.2297716">
  <ele>1583.0</ele>
  <time>2026-08-28T17:52:23Z</time>
  <course>111.31</course>
  <speed>1.41</speed>
  <fix>3d</fix>
</trkpt>
<trkpt lat="40.0715875" lon="-105.2297664">
  <ele>1583.16</ele>
  <time>2026-08-28T17:52:23Z</time>
  <course>138.07</course>
  <speed>1.4798986451781082</speed>
  <fix>3d</fix>
</trkpt>
<trkpt lat="40.071589" lon="-105.2297687">
  <ele>1583.0</ele>
  <time>2026-08-28T17:52:23Z</time>
  <course>127.87</course>
  <speed>1.43</speed>
  <fix>3d</fix>
</trkpt>
<trkpt lat="40.0715865" lon="-105.2297654">
  <ele>1583.16</ele>
  <time>2026-08-28T17:52:23Z</time>
  <course>144.93</course>
  <speed>1.4787156589419075</speed>
  <fix>3d</fix>
</trkpt>
<trkpt lat="40.071589" lon="-105.2297687">
  <ele>1583.0</ele>
  <time>2026-08-28T17:52:23Z</time>
  <course>127.87</course>
  <speed>1.43</speed>
  <fix>3d</fix>
</trkpt>
<trkpt lat="40.0715853" lon="-105.2297645">
  <ele>1583.15</ele>
  <time>2026-08-28T17:52:23Z</time>
  <course>151.12</course>
  <speed>1.4860686390607938</speed>
  <fix>3d</fix>
</trkpt>
<trkpt lat="40.0715871" lon="-105.2297663">
  <ele>1583.0</ele>
  <time>2026-08-28T17:52:23Z</time>
  <course>142.43</course>
  <speed>1.44</speed>
  <fix>3d</fix>
</trkpt>
<trkpt lat="40.0715842" lon="-105.2297638">
  <ele>1583.15</ele>
  <time>2026-08-28T17:52:23Z</time>
  <course>156.62</course>
  <speed>1.4824641648282766</speed>
  <fix>3d</fix>
</trkpt>
<trkpt lat="40.0715871" lon="-105.2297663">
  <ele>1583.0</ele>
  <time>2026-08-28T17:52:23Z</time>
  <course>142.43</course>
  <speed>1.44</speed>
  <fix>3d</fix>
</trkpt>
<trkpt lat="40.0715829" lon="-105.2297632">
  <ele>1583.15</ele>
  <time>2026-08-28T17:52:23Z</time>
  <course>161.46</course>
  <speed>1.489462990476769</speed>
  <fix>3d</fix>
</trkpt>
<trkpt lat="40.071585" lon="-105.2297646">
  <ele>1583.0</ele>
  <time>2026-08-28T17:52:23Z</time>
  <course>154.42</course>
  <speed>1.45</speed>
  <fix>3d</fix>
</trkpt>
<trkpt lat="40.0715817" lon="-105.2297628">
  <ele>1583.15</ele>
  <time>2026-08-28T17:52:23Z</time>
  <course>165.68</course>
  <speed>1.498966310495336</speed>
  <fix>3d</fix>
</trkpt>
<trkpt lat="40.071585" lon="-105.2297646">
  <ele>1583.0</ele>
  <time>2026-08-28T17:52:23Z</time>
  <course>154.42</course>
  <speed>1.45</speed>
  <fix>3d</fix>
</trkpt>
<trkpt lat="40.0715804" lon="-105.2297624">
  <ele>1583.15</ele>
  <time>2026-08-28T17:52:23Z</time>
  <course>169.32</course>
  <speed>1.5081445554057475</speed>
  <fix>3d</fix>
</trkpt>
<trkpt lat="40.0715825" lon="-105.2297634">
  <ele>1583.0</ele>
  <time>2026-08-28T17:52:23Z</time>
  <course>163.78</course>
  <speed>1.47</speed>
  <fix>3d</fix>
</trkpt>
<trkpt lat="40.0715791" lon="-105.2297622">
  <ele>1583.15</ele>
  <time>2026-08-28T17:52:23Z</time>
  <course>172.46</course>
  <speed>1.5245327152934436</speed>
  <fix>3d</fix>
</trkpt>
<trkpt lat="40.0715825" lon="-105.2297634">
  <ele>1583.0</ele>
  <time>2026-08-28T17:52:23Z</time>
  <course>163.78</course>
  <speed>1.47</speed>
  <fix>3d</fix>
</trkpt>
<trkpt lat="40.071578" lon="-105.229762">
  <ele>1583.15</ele>
  <time>2026-08-28T17:52:23Z</time>
  <course>174.67</course>
  <speed>1.5472879499304582</speed>
  <fix>3d</fix>
</trkpt>
<trkpt lat="40.0715799" lon="-105.2297626">
  <ele>1583.0</ele>
  <time>2026-08-28T17:52:23Z</time>
  <course>170.83</course>
  <speed>1.5</speed>
  <fix>3d</fix>
</trkpt>
<trkpt lat="40.0715766" lon="-105.2297619">
  <ele>1583.15</ele>
  <time>2026-08-28T17:52:23Z</time>
  <course>177.03</course>
  <speed>1.5725775020646835</speed>
  <fix>3d</fix>
</trkpt>
<trkpt lat="40.0715799" lon="-105.2297626">
  <ele>1583.0</ele>
  <time>2026-08-28T17:52:23Z</time>
  <course>170.83</course>
  <speed>1.5</speed>
  <fix>3d</fix>
</trkpt>
<trkpt lat="40.0715752" lon="-105.2297619">
  <ele>1583.14</ele>
  <time>2026-08-28T17:52:23Z</time>
  <course>179.09</course>
  <speed>1.600281225285106</speed>
  <fix>3d</fix>
</trkpt>
<trkpt lat="40.0715771" lon="-105.2297622">
  <ele>1583.0</ele>
  <time>2026-08-28T17:52:23Z</time>
  <course>176.03</course>
  <speed>1.56</speed>
  <fix>3d</fix>
</trkpt>
<trkpt lat="40.0715738" lon="-105.2297619">
  <ele>1583.14</ele>
  <time>2026-08-28T17:52:23Z</time>
  <course>180.8</course>
  <speed>1.64</speed>
  <fix>3d</fix>
</trkpt>
<trkpt lat="40.0715771" lon="-105.2297622">
  <ele>1583.0</ele>
  <time>2026-08-28T17:52:23Z</time>
  <course>176.03</course>
  <speed>1.56</speed>
  <fix>3d</fix>
</trkpt>
<trkpt lat="40.0715723" lon="-105.229762">
  <ele>1583.14</ele>
  <time>2026-08-28T17:52:23Z</time>
  <course>182.21</course>
  <speed>1.6807438829280326</speed>
  <fix>3d</fix>
</trkpt>
<trkpt lat="40.0715743" lon="-105.2297621">
  <ele>1583.0</ele>
  <time>2026-08-28T17:52:23Z</time>
  <course>179.8</course>
  <speed>1.63</speed>
  <fix>3d</fix>
</trkpt>
<trkpt lat="40.0715707" lon="-105.2297621">
  <ele>1583.14</ele>
  <time>2026-08-28T17:52:23Z</time>
  <course>183.38</course>
  <speed>1.7318487231857176</speed>
  <fix>3d</fix>
</trkpt>
<trkpt lat="40.0715743" lon="-105.2297621">
  <ele>1583.0</ele>
  <time>2026-08-28T17:52:23Z</time>
  <course>179.8</course>
  <speed>1.63</speed>
  <fix>3d</fix>
</trkpt>
<trkpt lat="40.0715692" lon="-105.2297622">
  <ele>1583.14</ele>
  <time>2026-08-28T17:52:23Z</time>
  <course>184.34</course>
  <speed>1.794017837146554</speed>
  <fix>3d</fix>
</trkpt>
<trkpt lat="40.0715713" lon="-105.2297622">
  <ele>1583.0</ele>
  <time>2026-08-28T17:52:23Z</time>
  <course>182.42</course>
  <speed>1.73</speed>
  <fix>3d</fix>
</trkpt>
<trkpt lat="40.0715675" lon="-105.2297624">
  <ele>1583.14</ele>
  <time>2026-08-28T17:52:23Z</time>
  <course>185.14</course>
  <speed>1.8660385848100784</speed>
  <fix>3d</fix>
</trkpt>
<trkpt lat="40.0715713" lon="-105.2297622">
  <ele>1583.0</ele>
  <time>2026-08-28T17:52:23Z</time>
  <course>182.42</course>
  <speed>1.73</speed>
  <fix>3d</fix>
</trkpt>
<trkpt lat="40.0715658" lon="-105.2297625">
  <ele>1583.14</ele>
  <time>2026-08-28T17:52:23Z</time>
  <course>185.78</course>
  <speed>1.9483326204732085</speed>
  <fix>3d</fix>
</trkpt>
<trkpt lat="40.071568" lon="-105.2297624">
  <ele>1583.0</ele>
  <time>2026-08-28T17:52:23Z</time>
  <course>184.18</course>
  <speed>1.86</speed>
  <fix>3d</fix>
</trkpt>
<trkpt lat="40.071564" lon="-105.2297628">
  <ele>1583.14</ele>
  <time>2026-08-28T17:52:23Z</time>
  <course>186.29</course>
  <speed>2.0298768435548005</speed>
  <fix>3d</fix>
</trkpt>
<trkpt lat="40.071568" lon="-105.2297624">
  <ele>1583.0</ele>
  <time>2026-08-28T17:52:23Z</time>
  <course>184.18</course>
  <speed>1.86</speed>
  <fix>3d</fix>
</trkpt>
<trkpt lat="40.0715617" lon="-105.2297631">
  <ele>1583.14</ele>
  <time>2026-08-28T17:52:23Z</time>
  <course>186.77</course>
  <speed>2.13243991709028</speed>
  <fix>3d</fix>
</trkpt>
<trkpt lat="40.0715645" lon="-105.2297628">
  <ele>1583.0</ele>
  <time>2026-08-28T17:52:23Z</time>
  <course>185.35</course>
  <speed>2.02</speed>
  <fix>3d</fix>
</trkpt>
<trkpt lat="40.0715598" lon="-105.2297634">
  <ele>1583.14</ele>
  <time>2026-08-28T17:52:23Z</time>
  <course>187.08</course>
  <speed>2.234032228952841</speed>
  <fix>3d</fix>
</trkpt>
<trkpt lat="40.0715645" lon="-105.2297628">
  <ele>1583.0</ele>
  <time>2026-08-28T17:52:23Z</time>
  <course>185.35</course>
  <speed>2.02</speed>
  <fix>3d</fix>
</trkpt>
<trkpt lat="40.0715577" lon="-105.2297637">
  <ele>1583.13</ele>
  <time>2026-08-28T17:52:23Z</time>
  <course>187.3</course>
  <speed>2.325725693197717</speed>
  <fix>3d</fix>
</trkpt>
<trkpt lat="40.0715608" lon="-105.2297632">
  <ele>1583.0</ele>
  <time>2026-08-28T17:52:23Z</time>
  <course>186.08</course>
  <speed>2.2</speed>
  <fix>3d</fix>
</trkpt>
<trkpt lat="40.0715556" lon="-105.229764">
  <ele>1583.13</ele>
  <time>2026-08-28T17:52:23Z</time>
  <course>187.47</course>
  <speed>2.427385424690525</speed>
  <fix>3d</fix>
</trkpt>
<trkpt lat="40.0715608" lon="-105.2297632">
  <ele>1583.0</ele>
  <time>2026-08-28T17:52:23Z</time>
  <course>186.08</course>
  <speed>2.2</speed>
  <fix>3d</fix>
</trkpt>
<trkpt lat="40.0715533" lon="-105.2297644">
  <ele>1583.13</ele>
  <time>2026-08-28T17:52:23Z</time>
  <course>187.58</course>
  <speed>2.53899586451022</speed>
  <fix>3d</fix>
</trkpt>
<trkpt lat="40.0715567" lon="-105.2297638">
  <ele>1583.0</ele>
  <time>2026-08-28T17:52:23Z</time>
  <course>186.51</course>
  <speed>2.39</speed>
  <fix>3d</fix>
</trkpt>
<trkpt lat="40.071551" lon="-105.2297648">
  <ele>1583.14</ele>
  <time>2026-08-28T17:52:23Z</time>
  <course>187.65</course>
  <speed>2.640700664596425</speed>
  <fix>3d</fix>
</trkpt>
<trkpt lat="40.0715567" lon="-105.2297638">
  <ele>1583.0</ele>
  <time>2026-08-28T17:52:23Z</time>
  <course>186.51</course>
  <speed>2.39</speed>
  <fix>3d</fix>
</trkpt>
<trkpt lat="40.0715486" lon="-105.2297651">
  <ele>1583.14</ele>
  <time>2026-08-28T17:52:23Z</time>
  <course>187.68</course>
  <speed>2.7510906927980403</speed>
  <fix>3d</fix>
</trkpt>
<trkpt lat="40.0715522" lon="-105.2297645">
  <ele>1583.0</ele>
  <time>2026-08-28T17:52:23Z</time>
  <course>186.71</course>
  <speed>2.6</speed>
  <fix>3d</fix>
</trkpt>
<trkpt lat="40.0715462" lon="-105.2297655">
  <ele>1583.14</ele>
  <time>2026-08-28T17:52:23Z</time>
  <course>187.68</course>
  <speed>2.85156097602699</speed>
  <fix>3d</fix>
</trkpt>
<trkpt lat="40.0715522" lon="-105.2297645">
  <ele>1583.0</ele>
  <time>2026-08-28T17:52:23Z</time>
  <course>186.71</course>
  <speed>2.6</speed>
  <fix>3d</fix>
</trkpt>
<trkpt lat="40.0715436" lon="-105.229766">
  <ele>1583.15</ele>
  <time>2026-08-28T17:52:23Z</time>
  <course>187.68</course>
  <speed>2.9631908477180473</speed>
  <fix>3d</fix>
</trkpt>
<trkpt lat="40.0715474" lon="-105.2297653">
  <ele>1583.0</ele>
  <time>2026-08-28T17:52:23Z</time>
  <course>186.76</course>
  <speed>2.82</speed>
  <fix>3d</fix>
</trkpt>
<trkpt lat="40.0715409" lon="-105.2297664">
  <ele>1583.15</ele>
  <time>2026-08-28T17:52:23Z</time>
  <course>187.65</course>
  <speed>3.0735809733924366</speed>
  <fix>3d</fix>
</trkpt>
<trkpt lat="40.0715474" lon="-105.2297653">
  <ele>1583.0</ele>
  <time>2026-08-28T17:52:23Z</time>
  <course>186.76</course>
  <speed>2.82</speed>
  <fix>3d</fix>
</trkpt>
<trkpt lat="40.0715381" lon="-105.2297668">
  <ele>1583.15</ele>
  <time>2026-08-28T17:52:23Z</time>
  <course>187.61</course>
  <speed>3.183975502418321</speed>
  <fix>3d</fix>
</trkpt>
<trkpt lat="40.0715421" lon="-105.2297661">
  <ele>1583.0</ele>
  <time>2026-08-28T17:52:23Z</time>
  <course>186.73</course>
  <speed>3.04</speed>
  <fix>3d</fix>
</trkpt>
<trkpt lat="40.0715358" lon="-105.2297672">
  <ele>1583.15</ele>
  <time>2026-08-28T17:52:23Z</time>
  <course>187.55</course>
  <speed>3.274522866006588</speed>
  <fix>3d</fix>
</trkpt>
<trkpt lat="40.0715421" lon="-105.2297661">
  <ele>1583.0</ele>
  <time>2026-08-28T17:52:23Z</time>
  <course>186.73</course>
  <speed>3.04</speed>
  <fix>3d</fix>
</trkpt>
<trkpt lat="40.0715328" lon="-105.2297676">
  <ele>1583.15</ele>
  <time>2026-08-28T17:52:23Z</time>
  <course>187.46</course>
  <speed>3.3849224511057856</speed>
  <fix>3d</fix>
</trkpt>
<trkpt lat="40.0715365" lon="-105.2297669">
  <ele>1583.0</ele>
  <time>2026-08-28T17:52:23Z</time>
  <course>186.61</course>
  <speed>3.26</speed>
  <fix>3d</fix>
</trkpt>
<trkpt lat="40.0715297" lon="-105.2297681">
  <ele>1583.15</ele>
  <time>2026-08-28T17:52:23Z</time>
  <course>187.37</course>
  <speed>3.4941379480495613</speed>
  <fix>3d</fix>
</trkpt>
<trkpt lat="40.0715365" lon="-105.2297669">
  <ele>1583.0</ele>
  <time>2026-08-28T17:52:23Z</time>
  <course>186.61</course>
  <speed>3.26</speed>
  <fix>3d</fix>
</trkpt>
<trkpt lat="40.0715266" lon="-105.2297686">
  <ele>1583.15</ele>
  <time>2026-08-28T17:52:23Z</time>
  <course>187.27</course>
  <speed>3.6045526768241296</speed>
  <fix>3d</fix>
</trkpt>
<trkpt lat="40.0715304" lon="-105.2297678">
  <ele>1583.0</ele>
  <time>2026-08-28T17:52:23Z</time>
  <course>186.44</course>
  <speed>3.48</speed>
  <fix>3d</fix>
</trkpt>
<trkpt lat="40.0715233" lon="-105.229769">
  <ele>1583.15</ele>
  <time>2026-08-28T17:52:23Z</time>
  <course>187.17</course>
  <speed>3.7138255209419837</speed>
  <fix>3d</fix>
</trkpt>
<trkpt lat="40.0715304" lon="-105.2297678">
  <ele>1583.0</ele>
  <time>2026-08-28T17:52:23Z</time>
  <course>186.44</course>
  <speed>3.48</speed>
  <fix>3d</fix>
</trkpt>
<trkpt lat="40.0715199" lon="-105.2297695">
  <ele>1583.15</ele>
  <time>2026-08-28T17:52:23Z</time>
  <course>187.04</course>
  <speed>3.82425156076323</speed>
  <fix>3d</fix>
</trkpt>
<trkpt lat="40.0715241" lon="-105.2297687">
  <ele>1583.0</ele>
  <time>2026-08-28T17:52:23Z</time>
  <course>186.23</course>
  <speed>3.7</speed>
  <fix>3d</fix>
</trkpt>
<trkpt lat="40.0715164" lon="-105.22977">
  <ele>1583.15</ele>
  <time>2026-08-28T17:52:23Z</time>
  <course>186.93</course>
  <speed>3.9335734389992005</speed>
  <fix>3d</fix>
</trkpt>
<trkpt lat="40.0715241" lon="-105.2297687">
  <ele>1583.0</ele>
  <time>2026-08-28T17:52:23Z</time>
  <course>186.23</course>
  <speed>3.7</speed>
  <fix>3d</fix>
</trkpt>
<trkpt lat="40.0715127" lon="-105.2297705">
  <ele>1583.14</ele>
  <time>2026-08-28T17:52:23Z</time>
  <course>186.82</course>
  <speed>4.044007912949726</speed>
  <fix>3d</fix>
</trkpt>
<trkpt lat="40.0715172" lon="-105.2297696">
  <ele>1583.0</ele>
  <time>2026-08-28T17:52:23Z</time>
  <course>186.01</course>
  <speed>3.91</speed>
  <fix>3d</fix>
</trkpt>
<trkpt lat="40.071509" lon="-105.229771">
  <ele>1583.14</ele>
  <time>2026-08-28T17:52:23Z</time>
  <course>186.71</course>
  <speed>4.14342853202514</speed>
  <fix>3d</fix>
</trkpt>
<trkpt lat="40.0715172" lon="-105.2297696">
  <ele>1583.0</ele>
  <time>2026-08-28T17:52:23Z</time>
  <course>186.01</course>
  <speed>3.91</speed>
  <fix>3d</fix>
</trkpt>
<trkpt lat="40.0715052" lon="-105.2297715">
  <ele>1583.14</ele>
  <time>2026-08-28T17:52:23Z</time>
  <course>186.6</course>
  <speed>4.232930427020978</speed>
  <fix>3d</fix>
</trkpt>
<trkpt lat="40.0715101" lon="-105.2297706">
  <ele>1583.0</ele>
  <time>2026-08-28T17:52:23Z</time>
  <course>185.79</course>
  <speed>4.11</speed>
  <fix>3d</fix>
</trkpt>
<trkpt lat="40.0715006" lon="-105.2297721">
  <ele>1583.14</ele>
  <time>2026-08-28T17:52:23Z</time>
  <course>186.5</course>
  <speed>4.34234959440163</speed>
  <fix>3d</fix>
</trkpt>
<trkpt lat="40.0715101" lon="-105.2297706">
  <ele>1583.0</ele>
  <time>2026-08-28T17:52:23Z</time>
  <course>185.79</course>
  <speed>4.11</speed>
  <fix>3d</fix>
</trkpt>
<trkpt lat="40.0714966" lon="-105.2297726">
  <ele>1583.14</ele>
  <time>2026-08-28T17:52:23Z</time>
  <course>186.43</course>
  <speed>4.421945273293192</speed>
  <fix>3d</fix>
</trkpt>
<trkpt lat="40.0715026" lon="-105.2297717">
  <ele>1583.0</ele>
  <time>2026-08-28T17:52:23Z</time>
  <course>185.6</course>
  <speed>4.29</speed>
  <fix>3d</fix>
</trkpt>
<trkpt lat="40.0714926" lon="-105.2297731">
  <ele>1583.14</ele>
  <time>2026-08-28T17:52:23Z</time>
  <course>186.37</course>
  <speed>4.492593905529411</speed>
  <fix>3d</fix>
</trkpt>
<trkpt lat="40.0715026" lon="-105.2297717">
  <ele>1583.0</ele>
  <time>2026-08-28T17:52:23Z</time>
  <course>185.6</course>
  <speed>4.29</speed>
  <fix>3d</fix>
</trkpt>
<trkpt lat="40.0714886" lon="-105.2297736">
  <ele>1583.15</ele>
  <time>2026-08-28T17:52:23Z</time>
  <course>186.31</course>
  <speed>4.5522961239357</speed>
  <fix>3d</fix>
</trkpt>
<trkpt lat="40.0714947" lon="-105.2297727">
  <ele>1583.0</ele>
  <time>2026-08-28T17:52:23Z</time>
  <course>185.47</course>
  <speed>4.44</speed>
  <fix>3d</fix>
</trkpt>
<trkpt lat="40.0714845" lon="-105.2297741">
  <ele>1583.15</ele>
  <time>2026-08-28T17:52:23Z</time>
  <course>186.25</course>
  <speed>4.591132757827854</speed>
  <fix>3d</fix>
</trkpt>
<trkpt lat="40.0714947" lon="-105.2297727">
  <ele>1583.0</ele>
  <time>2026-08-28T17:52:23Z</time>
  <course>185.47</course>
  <speed>4.44</speed>
  <fix>3d</fix>
</trkpt>
<trkpt lat="40.0714803" lon="-105.2297746">
  <ele>1583.15</ele>
  <time>2026-08-28T17:52:23Z</time>
  <course>186.19</course>
  <speed>4.630950226465407</speed>
  <fix>3d</fix>
</trkpt>
<trkpt lat="40.0714867" lon="-105.2297737">
  <ele>1583.0</ele>
  <time>2026-08-28T17:52:23Z</time>
  <course>185.35</course>
  <speed>4.54</speed>
  <fix>3d</fix>
</trkpt>
<trkpt lat="40.0714762" lon="-105.2297751">
  <ele>1583.15</ele>
  <time>2026-08-28T17:52:23Z</time>
  <course>186.12</course>
  <speed>4.650860135501819</speed>
  <fix>3d</fix>
</trkpt>
<trkpt lat="40.0714867" lon="-105.2297737">
  <ele>1583.0</ele>
  <time>2026-08-28T17:52:23Z</time>
  <course>185.35</course>
  <speed>4.54</speed>
  <fix>3d</fix>
</trkpt>
<trkpt lat="40.071472" lon="-105.2297756">
  <ele>1583.15</ele>
  <time>2026-08-28T17:52:23Z</time>
  <course>186.06</course>
  <speed>4.6598819727542455</speed>
  <fix>3d</fix>
</trkpt>
<trkpt lat="40.0714785" lon="-105.2297746">
  <ele>1583.0</ele>
  <time>2026-08-28T17:52:23Z</time>
  <course>185.22</course>
  <speed>4.61</speed>
  <fix>3d</fix>
</trkpt>
<trkpt lat="40.0714679" lon="-105.2297761">
  <ele>1583.15</ele>
  <time>2026-08-28T17:52:23Z</time>
  <course>186.0</course>
  <speed>4.6598819727542455</speed>
  <fix>3d</fix>
</trkpt>
<trkpt lat="40.0714785" lon="-105.2297746">
  <ele>1583.0</ele>
  <time>2026-08-28T17:52:23Z</time>
  <course>185.22</course>
  <speed>4.61</speed>
  <fix>3d</fix>
</trkpt>
<trkpt lat="40.0714638" lon="-105.2297765">
  <ele>1583.15</ele>
  <time>2026-08-28T17:52:23Z</time>
  <course>185.94</course>
  <speed>4.63905162721865</speed>
  <fix>3d</fix>
</trkpt>
<trkpt lat="40.0714702" lon="-105.2297756">
  <ele>1583.0</ele>
  <time>2026-08-28T17:52:23Z</time>
  <course>185.1</course>
  <speed>4.62</speed>
  <fix>3d</fix>
</trkpt>
<trkpt lat="40.0714597" lon="-105.229777">
  <ele>1583.15</ele>
  <time>2026-08-28T17:52:23Z</time>
  <course>185.91</course>
  <speed>4.618235593817189</speed>
  <fix>3d</fix>
</trkpt>
<trkpt lat="40.0714702" lon="-105.2297756">
  <ele>1583.0</ele>
  <time>2026-08-28T17:52:23Z</time>
  <course>185.1</course>
  <speed>4.62</speed>
  <fix>3d</fix>
</trkpt>
<trkpt lat="40.0714564" lon="-105.2297774">
  <ele>1583.15</ele>
  <time>2026-08-28T17:52:23Z</time>
  <course>185.89</course>
  <speed>4.588354824989018</speed>
  <fix>3d</fix>
</trkpt>
<trkpt lat="40.0714619" lon="-105.2297765">
  <ele>1583.0</ele>
  <time>2026-08-28T17:52:23Z</time>
  <course>185.0</course>
  <speed>4.59</speed>
  <fix>3d</fix>
</trkpt>
<trkpt lat="40.0714524" lon="-105.2297778">
  <ele>1583.15</ele>
  <time>2026-08-28T17:52:23Z</time>
  <course>185.89</course>
  <speed>4.5476257541710705</speed>
  <fix>3d</fix>
</trkpt>
<trkpt lat="40.0714619" lon="-105.2297765">
  <ele>1583.0</ele>
  <time>2026-08-28T17:52:23Z</time>
  <course>185.0</course>
  <speed>4.59</speed>
  <fix>3d</fix>
</trkpt>
<trkpt lat="40.0714483" lon="-105.2297782">
  <ele>1583.15</ele>
  <time>2026-08-28T17:52:23Z</time>
  <course>185.89</course>
  <speed>4.486981167778621</speed>
  <fix>3d</fix>
</trkpt>
<trkpt lat="40.0714538" lon="-105.2297775">
  <ele>1583.0</ele>
  <time>2026-08-28T17:52:23Z</time>
  <course>184.97</course>
  <speed>4.52</speed>
  <fix>3d</fix>
</trkpt>
<trkpt lat="40.0714444" lon="-105.2297787">
  <ele>1583.15</ele>
  <time>2026-08-28T17:52:23Z</time>
  <course>185.89</course>
  <speed>4.417250275906947</speed>
  <fix>3d</fix>
</trkpt>
<trkpt lat="40.0714538" lon="-105.2297775">
  <ele>1583.0</ele>
  <time>2026-08-28T17:52:23Z</time>
  <course>184.97</course>
  <speed>4.52</speed>
  <fix>3d</fix>
</trkpt>
<trkpt lat="40.0714405" lon="-105.2297791">
  <ele>1583.15</ele>
  <time>2026-08-28T17:52:23Z</time>
  <course>185.89</course>
  <speed>4.336680758368086</speed>
  <fix>3d</fix>
</trkpt>
<trkpt lat="40.0714458" lon="-105.2297784">
  <ele>1583.0</ele>
  <time>2026-08-28T17:52:23Z</time>
  <course>184.97</course>
  <speed>4.4</speed>
  <fix>3d</fix>
</trkpt>
<trkpt lat="40.0714366" lon="-105.2297795">
  <ele>1583.15</ele>
  <time>2026-08-28T17:52:23Z</time>
  <course>185.89</course>
  <speed>4.246151198438416</speed>
  <fix>3d</fix>
</trkpt>
<trkpt lat="40.0714458" lon="-105.2297784">
  <ele>1583.0</ele>
  <time>2026-08-28T17:52:23Z</time>
  <course>184.97</course>
  <speed>4.4</speed>
  <fix>3d</fix>
</trkpt>
<trkpt lat="40.0714329" lon="-105.2297799">
  <ele>1583.15</ele>
  <time>2026-08-28T17:52:23Z</time>
  <course>185.89</course>
  <speed>4.14566038165212</speed>
  <fix>3d</fix>
</trkpt>
<trkpt lat="40.071438" lon="-105.2297792">
  <ele>1583.0</ele>
  <time>2026-08-28T17:52:23Z</time>
  <course>184.97</course>
  <speed>4.23</speed>
  <fix>3d</fix>
</trkpt>
<trkpt lat="40.0714292" lon="-105.2297803">
  <ele>1583.16</ele>
  <time>2026-08-28T17:52:23Z</time>
  <course>185.89</course>
  <speed>4.024388152253706</speed>
  <fix>3d</fix>
</trkpt>
<trkpt lat="40.071438" lon="-105.2297792">
  <ele>1583.0</ele>
  <time>2026-08-28T17:52:23Z</time>
  <course>184.97</course>
  <speed>4.23</speed>
  <fix>3d</fix>
</trkpt>
<trkpt lat="40.0714229" lon="-105.229781">
  <ele>1583.16</ele>
  <time>2026-08-28T17:52:23Z</time>
  <course>185.89</course>
  <speed>3.8034852438257207</speed>
  <fix>3d</fix>
</trkpt>
<trkpt lat="40.0714307" lon="-105.2297801">
  <ele>1583.0</ele>
  <time>2026-08-28T17:52:23Z</time>
  <course>184.97</course>
  <speed>4.02</speed>
  <fix>3d</fix>
</trkpt>
<trkpt lat="40.0714216" lon="-105.2297812">
  <ele>1583.16</ele>
  <time>2026-08-28T17:52:23Z</time>
  <course>185.89</course>
  <speed>3.752825602129681</speed>
  <fix>3d</fix>
</trkpt>
<trkpt lat="40.0714307" lon="-105.2297801">
  <ele>1583.0</ele>
  <time>2026-08-28T17:52:23Z</time>
  <course>184.97</course>
  <speed>4.02</speed>
  <fix>3d</fix>
</trkpt>
<trkpt lat="40.0714183" lon="-105.2297815">
  <ele>1583.16</ele>
  <time>2026-08-28T17:52:23Z</time>
  <course>185.89</course>
  <speed>3.612478373637688</speed>
  <fix>3d</fix>
</trkpt>
<trkpt lat="40.0714236" lon="-105.2297809">
  <ele>1583.0</ele>
  <time>2026-08-28T17:52:23Z</time>
  <course>184.97</course>
  <speed>3.78</speed>
  <fix>3d</fix>
</trkpt>
<trkpt lat="40.0714151" lon="-105.2297819">
  <ele>1583.16</ele>
  <time>2026-08-28T17:52:23Z</time>
  <course>185.89</course>
  <speed>3.4721319099366026</speed>
  <fix>3d</fix>
</trkpt>
<trkpt lat="40.0714236" lon="-105.2297809">
  <ele>1583.0</ele>
  <time>2026-08-28T17:52:23Z</time>
  <course>184.97</course>
  <speed>3.78</speed>
  <fix>3d</fix>
</trkpt>
<trkpt lat="40.0714121" lon="-105.2297822">
  <ele>1583.17</ele>
  <time>2026-08-28T17:52:23Z</time>
  <course>185.89</course>
  <speed>3.330960822345409</speed>
  <fix>3d</fix>
</trkpt>
<trkpt lat="40.0714171" lon="-105.2297816">
  <ele>1583.0</ele>
  <time>2026-08-28T17:52:23Z</time>
  <course>184.97</course>
  <speed>3.51</speed>
  <fix>3d</fix>
</trkpt>
<trkpt lat="40.0714092" lon="-105.2297825">
  <ele>1583.17</ele>
  <time>2026-08-28T17:52:23Z</time>
  <course>185.9</course>
  <speed>3.1906112267087634</speed>
  <fix>3d</fix>
</trkpt>
<trkpt lat="40.0714171" lon="-105.2297816">
  <ele>1583.0</ele>
  <time>2026-08-28T17:52:23Z</time>
  <course>184.97</course>
  <speed>3.51</speed>
  <fix>3d</fix>
</trkpt>
<trkpt lat="40.0714064" lon="-105.2297828">
  <ele>1583.17</ele>
  <time>2026-08-28T17:52:23Z</time>
  <course>185.94</course>
  <speed>3.05026228380446</speed>
  <fix>3d</fix>
</trkpt>
<trkpt lat="40.0714111" lon="-105.2297824">
  <ele>1583.0</ele>
  <time>2026-08-28T17:52:23Z</time>
  <course>185.0</course>
  <speed>3.23</speed>
  <fix>3d</fix>
</trkpt>
<trkpt lat="40.0714038" lon="-105.2297831">
  <ele>1583.17</ele>
  <time>2026-08-28T17:52:23Z</time>
  <course>185.98</course>
  <speed>2.899137802864845</speed>
  <fix>3d</fix>
</trkpt>
<trkpt lat="40.0714111" lon="-105.2297824">
  <ele>1583.0</ele>
  <time>2026-08-28T17:52:23Z</time>
  <course>185.0</course>
  <speed>3.23</speed>
  <fix>3d</fix>
</trkpt>
<trkpt lat="40.0714013" lon="-105.2297834">
  <ele>1583.17</ele>
  <time>2026-08-28T17:52:23Z</time>
  <course>186.02</course>
  <speed>2.7587859648765796</speed>
  <fix>3d</fix>
</trkpt>
<trkpt lat="40.0714055" lon="-105.229783">
  <ele>1583.0</ele>
  <time>2026-08-28T17:52:23Z</time>
  <course>185.06</course>
  <speed>2.95</speed>
  <fix>3d</fix>
</trkpt>
<trkpt lat="40.071399" lon="-105.2297836">
  <ele>1583.17</ele>
  <time>2026-08-28T17:52:23Z</time>
  <course>186.07</course>
  <speed>2.618434646883516</speed>
  <fix>3d</fix>
</trkpt>
<trkpt lat="40.0714055" lon="-105.229783">
  <ele>1583.0</ele>
  <time>2026-08-28T17:52:23Z</time>
  <course>185.06</course>
  <speed>2.95</speed>
  <fix>3d</fix>
</trkpt>
<trkpt lat="40.0713967" lon="-105.2297839">
  <ele>1583.17</ele>
  <time>2026-08-28T17:52:23Z</time>
  <course>186.19</course>
  <speed>2.488051446413438</speed>
  <fix>3d</fix>
</trkpt>
<trkpt lat="40.0714004" lon="-105.2297835">
  <ele>1583.0</ele>
  <time>2026-08-28T17:52:23Z</time>
  <course>185.18</course>
  <speed>2.68</speed>
  <fix>3d</fix>
</trkpt>
<trkpt lat="40.0713946" lon="-105.2297841">
  <ele>1583.17</ele>
  <time>2026-08-28T17:52:23Z</time>
  <course>186.27</course>
  <speed>2.368459414893994</speed>
  <fix>3d</fix>
</trkpt>
<trkpt lat="40.0714004" lon="-105.2297835">
  <ele>1583.0</ele>
  <time>2026-08-28T17:52:23Z</time>
  <course>185.18</course>
  <speed>2.68</speed>
  <fix>3d</fix>
</trkpt>
<trkpt lat="40.0713926" lon="-105.2297844">
  <ele>1583.17</ele>
  <time>2026-08-28T17:52:23Z</time>
  <course>186.31</course>
  <speed>2.248043593883357</speed>
  <fix>3d</fix>
</trkpt>
<trkpt lat="40.0713959" lon="-105.2297841">
  <ele>1583.0</ele>
  <time>2026-08-28T17:52:23Z</time>
  <course>185.33</course>
  <speed>2.43</speed>
  <fix>3d</fix>
</trkpt>
<trkpt lat="40.071391" lon="-105.2297845">
  <ele>1583.17</ele>
  <time>2026-08-28T17:52:23Z</time>
  <course>186.32</course>
  <speed>2.1475567512873788</speed>
  <fix>3d</fix>
</trkpt>
<trkpt lat="40.0713959" lon="-105.2297841">
  <ele>1583.0</ele>
  <time>2026-08-28T17:52:23Z</time>
  <course>185.33</course>
  <speed>2.43</speed>
  <fix>3d</fix>
</trkpt>
<trkpt lat="40.0713892" lon="-105.2297848">
  <ele>1583.17</ele>
  <time>2026-08-28T17:52:23Z</time>
  <course>186.3</course>
  <speed>2.037105790085532</speed>
  <fix>3d</fix>
</trkpt>
<trkpt lat="40.0713918" lon="-105.2297846">
  <ele>1583.0</ele>
  <time>2026-08-28T17:52:23Z</time>
  <course>185.41</course>
  <speed>2.2</speed>
  <fix>3d</fix>
</trkpt>
<trkpt lat="40.0713874" lon="-105.229785">
  <ele>1583.17</ele>
  <time>2026-08-28T17:52:23Z</time>
  <course>186.23</course>
  <speed>1.925850461484484</speed>
  <fix>3d</fix>
</trkpt>
<trkpt lat="40.0713918" lon="-105.2297846">
  <ele>1583.0</ele>
  <time>2026-08-28T17:52:23Z</time>
  <course>185.41</course>
  <speed>2.2</speed>
  <fix>3d</fix>
</trkpt>
<trkpt lat="40.0713858" lon="-105.2297852">
  <ele>1583.16</ele>
  <time>2026-08-28T17:52:23Z</time>
  <course>186.11</course>
  <speed>1.815406290613757</speed>
  <fix>3d</fix>
</trkpt>
<trkpt lat="40.071388" lon="-105.2297851">
  <ele>1583.0</ele>
  <time>2026-08-28T17:52:23Z</time>
  <course>185.32</course>
  <speed>1.98</speed>
  <fix>3d</fix>
</trkpt>
<trkpt lat="40.0713842" lon="-105.2297853">
  <ele>1583.16</ele>
  <time>2026-08-28T17:52:23Z</time>
  <course>185.92</course>
  <speed>1.7149344010777787</speed>
  <fix>3d</fix>
</trkpt>
<trkpt lat="40.071388" lon="-105.2297851">
  <ele>1583.0</ele>
  <time>2026-08-28T17:52:23Z</time>
  <course>185.32</course>
  <speed>1.98</speed>
  <fix>3d</fix>
</trkpt>
<trkpt lat="40.0713827" lon="-105.2297855">
  <ele>1583.16</ele>
  <time>2026-08-28T17:52:23Z</time>
  <course>185.68</course>
  <speed>1.6137533888422977</speed>
  <fix>3d</fix>
</trkpt>
<trkpt lat="40.0713846" lon="-105.2297855">
  <ele>1583.0</ele>
  <time>2026-08-28T17:52:23Z</time>
  <course>185.02</course>
  <speed>1.78</speed>
  <fix>3d</fix>
</trkpt>
<trkpt lat="40.0713813" lon="-105.2297857">
  <ele>1583.16</ele>
  <time>2026-08-28T17:52:23Z</time>
  <course>185.38</course>
  <speed>1.5332644912082194</speed>
  <fix>3d</fix>
</trkpt>
<trkpt lat="40.0713846" lon="-105.2297855">
  <ele>1583.0</ele>
  <time>2026-08-28T17:52:23Z</time>
  <course>185.02</course>
  <speed>1.78</speed>
  <fix>3d</fix>
</trkpt>
<trkpt lat="40.0713799" lon="-105.2297858">
  <ele>1583.16</ele>
  <time>2026-08-28T17:52:23Z</time>
  <course>185.03</course>
  <speed>1.452205219657332</speed>
  <fix>3d</fix>
</trkpt>
<trkpt lat="40.0713816" lon="-105.2297858">
  <ele>1583.0</ele>
  <time>2026-08-28T17:52:23Z</time>
  <course>184.49</course>
  <speed>1.6</speed>
  <fix>3d</fix>
</trkpt>
<trkpt lat="40.0713786" lon="-105.2297859">
  <ele>1583.16</ele>
  <time>2026-08-28T17:52:23Z</time>
  <course>184.65</course>
  <speed>1.381774221788784</speed>
  <fix>3d</fix>
</trkpt>
<trkpt lat="40.0713816" lon="-105.2297858">
  <ele>1583.0</ele>
  <time>2026-08-28T17:52:23Z</time>
  <course>184.49</course>
  <speed>1.6</speed>
  <fix>3d</fix>
</trkpt>
<trkpt lat="40.0713771" lon="-105.229786">
  <ele>1583.16</ele>
  <time>2026-08-28T17:52:23Z</time>
  <course>184.15</course>
  <speed>1.3213629327327143</speed>
  <fix>3d</fix>
</trkpt>
<trkpt lat="40.0713789" lon="-105.229786">
  <ele>1583.0</ele>
  <time>2026-08-28T17:52:23Z</time>
  <course>183.77</course>
  <speed>1.46</speed>
  <fix>3d</fix>
</trkpt>
<trkpt lat="40.0713759" lon="-105.2297861">
  <ele>1583.16</ele>
  <time>2026-08-28T17:52:23Z</time>
  <course>183.72</course>
  <speed>1.2909686285886268</speed>
  <fix>3d</fix>
</trkpt>
<trkpt lat="40.0713789" lon="-105.229786">
  <ele>1583.0</ele>
  <time>2026-08-28T17:52:23Z</time>
  <course>183.77</course>
  <speed>1.46</speed>
  <fix>3d</fix>
</trkpt>
<trkpt lat="40.0713747" lon="-105.2297862">
  <ele>1583.16</ele>
  <time>2026-08-28T17:52:23Z</time>
  <course>183.29</course>
  <speed>1.2706297651164953</speed>
  <fix>3d</fix>
</trkpt>
<trkpt lat="40.0713763" lon="-105.2297863">
  <ele>1583.0</ele>
  <time>2026-08-28T17:52:23Z</time>
  <course>182.94</course>
  <speed>1.38</speed>
  <fix>3d</fix>
</trkpt>
<trkpt lat="40.0713736" lon="-105.2297862">
  <ele>1583.16</ele>
  <time>2026-08-28T17:52:23Z</time>
  <course>182.87</course>
  <speed>1.2603570922560003</speed>
  <fix>3d</fix>
</trkpt>
<trkpt lat="40.0713763" lon="-105.2297863">
  <ele>1583.0</ele>
  <time>2026-08-28T17:52:23Z</time>
  <course>182.94</course>
  <speed>1.38</speed>
  <fix>3d</fix>
</trkpt>
<trkpt lat="40.0713724" lon="-105.2297863">
  <ele>1583.17</ele>
  <time>2026-08-28T17:52:23Z</time>
  <course>182.48</course>
  <speed>1.2701574705523722</speed>
  <fix>3d</fix>
</trkpt>
<trkpt lat="40.0713739" lon="-105.2297864">
  <ele>1583.0</ele>
  <time>2026-08-28T17:52:23Z</time>
  <course>182.09</course>
  <speed>1.34</speed>
  <fix>3d</fix>
</trkpt>
<trkpt lat="40.0713712" lon="-105.2297863">
  <ele>1583.17</ele>
  <time>2026-08-28T17:52:23Z</time>
  <course>182.12</course>
  <speed>1.2901550294441362</speed>
  <fix>3d</fix>
</trkpt>
<trkpt lat="40.0713739" lon="-105.2297864">
  <ele>1583.0</ele>
  <time>2026-08-28T17:52:23Z</time>
  <course>182.09</course>
  <speed>1.34</speed>
  <fix>3d</fix>
</trkpt>
<trkpt lat="40.07137" lon="-105.2297864">
  <ele>1583.17</ele>
  <time>2026-08-28T17:52:23Z</time>
  <course>181.8</course>
  <speed>1.3300375934536586</speed>
  <fix>3d</fix>
</trkpt>
<trkpt lat="40.0713715" lon="-105.2297865">
  <ele>1583.0</ele>
  <time>2026-08-28T17:52:23Z</time>
  <course>181.32</course>
  <speed>1.37</speed>
  <fix>3d</fix>
</trkpt>
<trkpt lat="40.0713687" lon="-105.2297864">
  <ele>1583.17</ele>
  <time>2026-08-28T17:52:23Z</time>
  <course>181.53</course>
  <speed>1.3800362314084367</speed>
  <fix>3d</fix>
</trkpt>
<trkpt lat="40.0713715" lon="-105.2297865">
  <ele>1583.0</ele>
  <time>2026-08-28T17:52:23Z</time>
  <course>181.32</course>
  <speed>1.37</speed>
  <fix>3d</fix>
</trkpt>
<trkpt lat="40.0713674" lon="-105.2297864">
  <ele>1583.17</ele>
  <time>2026-08-28T17:52:23Z</time>
  <course>181.31</course>
  <speed>1.4500344823486093</speed>
  <fix>3d</fix>
</trkpt>
<trkpt lat="40.0713689" lon="-105.2297866">
  <ele>1583.0</ele>
  <time>2026-08-28T17:52:23Z</time>
  <course>180.72</course>
  <speed>1.45</speed>
  <fix>3d</fix>
</trkpt>
<trkpt lat="40.071366" lon="-105.2297865">
  <ele>1583.17</ele>
  <time>2026-08-28T17:52:23Z</time>
  <course>181.15</course>
  <speed>1.5300326793895613</speed>
  <fix>3d</fix>
</trkpt>
<trkpt lat="40.0713689" lon="-105.2297866">
  <ele>1583.0</ele>
  <time>2026-08-28T17:52:23Z</time>
  <course>180.72</course>
  <speed>1.45</speed>
  <fix>3d</fix>
</trkpt>
<trkpt lat="40.0713646" lon="-105.2297865">
  <ele>1583.16</ele>
  <time>2026-08-28T17:52:23Z</time>
  <course>181.04</course>
  <speed>1.6200308639035246</speed>
  <fix>3d</fix>
</trkpt>
<trkpt lat="40.0713662" lon="-105.2297866">
  <ele>1583.0</ele>
  <time>2026-08-28T17:52:23Z</time>
  <course>180.31</course>
  <speed>1.59</speed>
  <fix>3d</fix>
</trkpt>
<trkpt lat="40.0713633" lon="-105.2297865">
  <ele>1583.16</ele>
  <time>2026-08-28T17:52:23Z</time>
  <course>180.98</course>
  <speed>1.7100292395160965</speed>
  <fix>3d</fix>
</trkpt>
<trkpt lat="40.0713662" lon="-105.2297866">
  <ele>1583.0</ele>
  <time>2026-08-28T17:52:23Z</time>
  <course>180.31</course>
  <speed>1.59</speed>
  <fix>3d</fix>
</trkpt>
<trkpt lat="40.0713617" lon="-105.2297865">
  <ele>1583.16</ele>
  <time>2026-08-28T17:52:23Z</time>
  <course>180.94</course>
  <speed>1.8200274723201295</speed>
  <fix>3d</fix>
</trkpt>
<trkpt lat="40.0713631" lon="-105.2297866">
  <ele>1583.0</ele>
  <time>2026-08-28T17:52:23Z</time>
  <course>180.11</course>
  <speed>1.78</speed>
  <fix>3d</fix>
</trkpt>
<trkpt lat="40.0713599" lon="-105.2297866">
  <ele>1583.16</ele>
  <time>2026-08-28T17:52:23Z</time>
  <course>180.89</course>
  <speed>1.9500256408570633</speed>
  <fix>3d</fix>
</trkpt>
<trkpt lat="40.0713631" lon="-105.2297866">
  <ele>1583.0</ele>
  <time>2026-08-28T17:52:23Z</time>
  <course>180.11</course>
  <speed>1.78</speed>
  <fix>3d</fix>
</trkpt>
<trkpt lat="40.071358" lon="-105.2297866">
  <ele>1583.15</ele>
  <time>2026-08-28T17:52:23Z</time>
  <course>180.83</course>
  <speed>2.090095691589263</speed>
  <fix>3d</fix>
</trkpt>
<trkpt lat="40.0713597" lon="-105.2297866">
  <ele>1583.0</ele>
  <time>2026-08-28T17:52:23Z</time>
  <course>179.99</course>
  <speed>2.02</speed>
  <fix>3d</fix>
</trkpt>
<trkpt lat="40.071356" lon="-105.2297866">
  <ele>1583.15</ele>
  <time>2026-08-28T17:52:23Z</time>
  <course>180.78</course>
  <speed>2.2300896842952302</speed>
  <fix>3d</fix>
</trkpt>
<trkpt lat="40.0713597" lon="-105.2297866">
  <ele>1583.0</ele>
  <time>2026-08-28T17:52:23Z</time>
  <course>179.99</course>
  <speed>2.02</speed>
  <fix>3d</fix>
</trkpt>
<trkpt lat="40.0713538" lon="-105.2297866">
  <ele>1583.15</ele>
  <time>2026-08-28T17:52:23Z</time>
  <course>180.73</course>
  <speed>2.3700843866833097</speed>
  <fix>3d</fix>
</trkpt>
<trkpt lat="40.0713558" lon="-105.2297866">
  <ele>1583.0</ele>
  <time>2026-08-28T17:52:23Z</time>
  <course>179.88</course>
  <speed>2.29</speed>
  <fix>3d</fix>
</trkpt>
<trkpt lat="40.0713515" lon="-105.2297867">
  <ele>1583.15</ele>
  <time>2026-08-28T17:52:23Z</time>
  <course>180.7</course>
  <speed>2.5200793638296393</speed>
  <fix>3d</fix>
</trkpt>
<trkpt lat="40.0713558" lon="-105.2297866">
  <ele>1583.0</ele>
  <time>2026-08-28T17:52:23Z</time>
  <course>179.88</course>
  <speed>2.29</speed>
  <fix>3d</fix>
</trkpt>
<trkpt lat="40.0713491" lon="-105.2297867">
  <ele>1583.15</ele>
  <time>2026-08-28T17:52:23Z</time>
  <course>180.66</course>
  <speed>2.670074905316328</speed>
  <fix>3d</fix>
</trkpt>
<trkpt lat="40.0713515" lon="-105.2297866">
  <ele>1583.0</ele>
  <time>2026-08-28T17:52:23Z</time>
  <course>179.79</course>
  <speed>2.58</speed>
  <fix>3d</fix>
</trkpt>
<trkpt lat="40.0713465" lon="-105.2297867">
  <ele>1583.15</ele>
  <time>2026-08-28T17:52:23Z</time>
  <course>180.63</course>
  <speed>2.830070670495703</speed>
  <fix>3d</fix>
</trkpt>
<trkpt lat="40.0713515" lon="-105.2297866">
  <ele>1583.0</ele>
  <time>2026-08-28T17:52:23Z</time>
  <course>179.79</course>
  <speed>2.58</speed>
  <fix>3d</fix>
</trkpt>
<trkpt lat="40.0713438" lon="-105.2297867">
  <ele>1583.15</ele>
  <time>2026-08-28T17:52:23Z</time>
  <course>180.59</course>
  <speed>2.980067113338221</speed>
  <fix>3d</fix>
</trkpt>
<trkpt lat="40.0713466" lon="-105.2297866">
  <ele>1583.0</ele>
  <time>2026-08-28T17:52:23Z</time>
  <course>179.72</course>
  <speed>2.87</speed>
  <fix>3d</fix>
</trkpt>
<trkpt lat="40.0713403" lon="-105.2297867">
  <ele>1583.15</ele>
  <time>2026-08-28T17:52:23Z</time>
  <course>180.54</course>
  <speed>3.150063491423625</speed>
  <fix>3d</fix>
</trkpt>
<trkpt lat="40.0713466" lon="-105.2297866">
  <ele>1583.0</ele>
  <time>2026-08-28T17:52:23Z</time>
  <course>179.72</course>
  <speed>2.87</speed>
  <fix>3d</fix>
</trkpt>
<trkpt lat="40.0713374" lon="-105.2297867">
  <ele>1583.15</ele>
  <time>2026-08-28T17:52:23Z</time>
  <course>180.49</course>
  <speed>3.3000606055040866</speed>
  <fix>3d</fix>
</trkpt>
<trkpt lat="40.0713411" lon="-105.2297866">
  <ele>1583.0</ele>
  <time>2026-08-28T17:52:23Z</time>
  <course>179.64</course>
  <speed>3.15</speed>
  <fix>3d</fix>
</trkpt>
<trkpt lat="40.0713342" lon="-105.2297867">
  <ele>1583.15</ele>
  <time>2026-08-28T17:52:23Z</time>
  <course>180.46</course>
  <speed>3.4400581390435834</speed>
  <fix>3d</fix>
</trkpt>
<trkpt lat="40.0713411" lon="-105.2297866">
  <ele>1583.0</ele>
  <time>2026-08-28T17:52:23Z</time>
  <course>179.64</course>
  <speed>3.15</speed>
  <fix>3d</fix>
</trkpt>
<trkpt lat="40.071331" lon="-105.2297867">
  <ele>1583.15</ele>
  <time>2026-08-28T17:52:23Z</time>
  <course>180.44</course>
  <speed>3.5800558654859005</speed>
  <fix>3d</fix>
</trkpt>
<trkpt lat="40.0713352" lon="-105.2297866">
  <ele>1583.0</ele>
  <time>2026-08-28T17:52:23Z</time>
  <course>179.57</course>
  <speed>3.43</speed>
  <fix>3d</fix>
</trkpt>
<trkpt lat="40.0713276" lon="-105.2297867">
  <ele>1583.15</ele>
  <time>2026-08-28T17:52:23Z</time>
  <course>180.42</course>
  <speed>3.720053763052357</speed>
  <fix>3d</fix>
</trkpt>
<trkpt lat="40.0713352" lon="-105.2297866">
  <ele>1583.0</ele>
  <time>2026-08-28T17:52:23Z</time>
  <course>179.57</course>
  <speed>3.43</speed>
  <fix>3d</fix>
</trkpt>
<trkpt lat="40.0713241" lon="-105.2297867">
  <ele>1583.15</ele>
  <time>2026-08-28T17:52:23Z</time>
  <course>180.41</course>
  <speed>3.8500519477014854</speed>
  <fix>3d</fix>
</trkpt>
<trkpt lat="40.0713288" lon="-105.2297865">
  <ele>1583.0</ele>
  <time>2026-08-28T17:52:23Z</time>
  <course>179.53</course>
  <speed>3.7</speed>
  <fix>3d</fix>
</trkpt>
<trkpt lat="40.0713206" lon="-105.2297867">
  <ele>1583.15</ele>
  <time>2026-08-28T17:52:23Z</time>
  <course>180.41</course>
  <speed>3.970050377514119</speed>
  <fix>3d</fix>
</trkpt>
<trkpt lat="40.0713288" lon="-105.2297865">
  <ele>1583.0</ele>
  <time>2026-08-28T17:52:23Z</time>
  <course>179.53</course>
  <speed>3.7</speed>
  <fix>3d</fix>
</trkpt>
<trkpt lat="40.0713169" lon="-105.2297867">
  <ele>1583.15</ele>
  <time>2026-08-28T17:52:23Z</time>
  <course>180.4</course>
  <speed>4.090110022970042</speed>
  <fix>3d</fix>
</trkpt>
<trkpt lat="40.0713219" lon="-105.2297864">
  <ele>1583.0</ele>
  <time>2026-08-28T17:52:23Z</time>
  <course>179.52</course>
  <speed>3.95</speed>
  <fix>3d</fix>
</trkpt>
<trkpt lat="40.0713131" lon="-105.2297867">
  <ele>1583.15</ele>
  <time>2026-08-28T17:52:23Z</time>
  <course>180.39</course>
  <speed>4.2101068870041765</speed>
  <fix>3d</fix>
</trkpt>
<trkpt lat="40.0713219" lon="-105.2297864">
  <ele>1583.0</ele>
  <time>2026-08-28T17:52:23Z</time>
  <course>179.52</course>
  <speed>3.95</speed>
  <fix>3d</fix>
</trkpt>
<trkpt lat="40.0713093" lon="-105.2297867">
  <ele>1583.14</ele>
  <time>2026-08-28T17:52:23Z</time>
  <course>180.38</course>
  <speed>4.32010416541083</speed>
  <fix>3d</fix>
</trkpt>
<trkpt lat="40.0713145" lon="-105.2297864">
  <ele>1583.0</ele>
  <time>2026-08-28T17:52:23Z</time>
  <course>179.52</course>
  <speed>4.19</speed>
  <fix>3d</fix>
</trkpt>
<trkpt lat="40.0713053" lon="-105.2297867">
  <ele>1583.14</ele>
  <time>2026-08-28T17:52:23Z</time>
  <course>180.37</course>
  <speed>4.430045146496816</speed>
  <fix>3d</fix>
</trkpt>
<trkpt lat="40.0713145" lon="-105.2297864">
  <ele>1583.0</ele>
  <time>2026-08-28T17:52:23Z</time>
  <course>179.52</course>
  <speed>4.19</speed>
  <fix>3d</fix>
</trkpt>
<trkpt lat="40.071302" lon="-105.2297867">
  <ele>1583.14</ele>
  <time>2026-08-28T17:52:23Z</time>
  <course>180.36</course>
  <speed>4.520044247571034</speed>
  <fix>3d</fix>
</trkpt>
<trkpt lat="40.0713068" lon="-105.2297863">
  <ele>1583.0</ele>
  <time>2026-08-28T17:52:23Z</time>
  <course>179.52</course>
  <speed>4.41</speed>
  <fix>3d</fix>
</trkpt>
<trkpt lat="40.0712979" lon="-105.2297866">
  <ele>1583.14</ele>
  <time>2026-08-28T17:52:23Z</time>
  <course>180.35</course>
  <speed>4.620043289840475</speed>
  <fix>3d</fix>
</trkpt>
<trkpt lat="40.0713068" lon="-105.2297863">
  <ele>1583.0</ele>
  <time>2026-08-28T17:52:23Z</time>
  <course>179.52</course>
  <speed>4.41</speed>
  <fix>3d</fix>
</trkpt>
<trkpt lat="40.0712936" lon="-105.2297866">
  <ele>1583.13</ele>
  <time>2026-08-28T17:52:23Z</time>
  <course>180.34</course>
  <speed>4.710042462653601</speed>
  <fix>3d</fix>
</trkpt>
<trkpt lat="40.0712987" lon="-105.2297862">
  <ele>1583.0</ele>
  <time>2026-08-28T17:52:23Z</time>
  <course>179.52</course>
  <speed>4.61</speed>
  <fix>3d</fix>
</trkpt>
<trkpt lat="40.0712893" lon="-105.2297866">
  <ele>1583.13</ele>
  <time>2026-08-28T17:52:23Z</time>
  <course>180.33</course>
  <speed>4.790041753471467</speed>
  <fix>3d</fix>
</trkpt>
<trkpt lat="40.0712987" lon="-105.2297862">
  <ele>1583.0</ele>
  <time>2026-08-28T17:52:23Z</time>
  <course>179.52</course>
  <speed>4.61</speed>
  <fix>3d</fix>
</trkpt>
<trkpt lat="40.0712849" lon="-105.2297866">
  <ele>1583.13</ele>
  <time>2026-08-28T17:52:23Z</time>
  <course>180.32</course>
  <speed>4.87004106758865</speed>
  <fix>3d</fix>
</trkpt>
<trkpt lat="40.0712903" lon="-105.2297861">
  <ele>1583.0</ele>
  <time>2026-08-28T17:52:23Z</time>
  <course>179.52</course>
  <speed>4.78</speed>
  <fix>3d</fix>
</trkpt>
<trkpt lat="40.0712805" lon="-105.2297866">
  <ele>1583.13</ele>
  <time>2026-08-28T17:52:23Z</time>
  <course>180.31</course>
  <speed>4.930040567784407</speed>
  <fix>3d</fix>
</trkpt>
<trkpt lat="40.0712903" lon="-105.2297861">
  <ele>1583.0</ele>
  <time>2026-08-28T17:52:23Z</time>
  <course>179.52</course>
  <speed>4.78</speed>
  <fix>3d</fix>
</trkpt>
<trkpt lat="40.071276" lon="-105.2297866">
  <ele>1583.13</ele>
  <time>2026-08-28T17:52:23Z</time>
  <course>180.3</course>
  <speed>4.990040079999358</speed>
  <fix>3d</fix>
</trkpt>
<trkpt lat="40.0712816" lon="-105.229786">
  <ele>1583.0</ele>
  <time>2026-08-28T17:52:23Z</time>
  <course>179.52</course>
  <speed>4.91</speed>
  <fix>3d</fix>
</trkpt>
<trkpt lat="40.0712714" lon="-105.2297865">
  <ele>1583.12</ele>
  <time>2026-08-28T17:52:23Z</time>
  <course>180.29</course>
  <speed>5.03000994034803</speed>
  <fix>3d</fix>
</trkpt>
<trkpt lat="40.0712816" lon="-105.229786">
  <ele>1583.0</ele>
  <time>2026-08-28T17:52:23Z</time>
  <course>179.52</course>
  <speed>4.91</speed>
  <fix>3d</fix>
</trkpt>
<trkpt lat="40.0712668" lon="-105.2297864">
  <ele>1583.12</ele>
  <time>2026-08-28T17:52:23Z</time>
  <course>180.28</course>
  <speed>5.070009861923348</speed>
  <fix>3d</fix>
</trkpt>
<trkpt lat="40.0712726" lon="-105.2297859">
  <ele>1583.0</ele>
  <time>2026-08-28T17:52:23Z</time>
  <course>179.52</course>
  <speed>5.01</speed>
  <fix>3d</fix>
</trkpt>
<trkpt lat="40.0712621" lon="-105.2297864">
  <ele>1583.12</ele>
  <time>2026-08-28T17:52:23Z</time>
  <course>180.27</course>
  <speed>5.100009803912146</speed>
  <fix>3d</fix>
</trkpt>
<trkpt lat="40.0712726" lon="-105.2297859">
  <ele>1583.0</ele>
  <time>2026-08-28T17:52:23Z</time>
  <course>179.52</course>
  <speed>5.01</speed>
  <fix>3d</fix>
</trkpt>
<trkpt lat="40.0712566" lon="-105.2297864">
  <ele>1583.11</ele>
  <time>2026-08-28T17:52:23Z</time>
  <course>180.26</course>
  <speed>5.120009765615687</speed>
  <fix>3d</fix>
</trkpt>
<trkpt lat="40.0712636" lon="-105.2297858">
  <ele>1583.0</ele>
  <time>2026-08-28T17:52:23Z</time>
  <course>179.52</course>
  <speed>5.07</speed>
  <fix>3d</fix>
</trkpt>
<trkpt lat="40.0712519" lon="-105.2297863">
  <ele>1583.11</ele>
  <time>2026-08-28T17:52:23Z</time>
  <course>180.25</course>
  <speed>5.140009727617254</speed>
  <fix>3d</fix>
</trkpt>
<trkpt lat="40.0712636" lon="-105.2297858">
  <ele>1583.0</ele>
  <time>2026-08-28T17:52:23Z</time>
  <course>179.52</course>
  <speed>5.07</speed>
  <fix>3d</fix>
</trkpt>
<trkpt lat="40.0712473" lon="-105.2297862">
  <ele>1583.11</ele>
  <time>2026-08-28T17:52:23Z</time>
  <course>180.24</course>
  <speed>5.14</speed>
  <fix>3d</fix>
</trkpt>
<trkpt lat="40.0712544" lon="-105.2297857">
  <ele>1583.0</ele>
  <time>2026-08-28T17:52:23Z</time>
  <course>179.52</course>
  <speed>5.1</speed>
  <fix>3d</fix>
</trkpt>
<trkpt lat="40.0712427" lon="-105.2297862">
  <ele>1583.11</ele>
  <time>2026-08-28T17:52:23Z</time>
  <course>180.23</course>
  <speed>5.14</speed>
  <fix>3d</fix>
</trkpt>
<trkpt lat="40.0712544" lon="-105.2297857">
  <ele>1583.0</ele>
  <time>2026-08-28T17:52:23Z</time>
  <course>179.52</course>
  <speed>5.1</speed>
  <fix>3d</fix>
</trkpt>
<trkpt lat="40.071238" lon="-105.2297861">
  <ele>1583.11</ele>
  <time>2026-08-28T17:52:23Z</time>
  <course>180.22</course>
  <speed>5.14</speed>
  <fix>3d</fix>
</trkpt>
<trkpt lat="40.0712452" lon="-105.2297856">
  <ele>1583.0</ele>
  <time>2026-08-28T17:52:23Z</time>
  <course>179.52</course>
  <speed>5.11</speed>
  <fix>3d</fix>
</trkpt>
<trkpt lat="40.0712335" lon="-105.2297861">
  <ele>1583.11</ele>
  <time>2026-08-28T17:52:23Z</time>
  <course>180.21</course>
  <speed>5.12</speed>
  <fix>3d</fix>
</trkpt>
<trkpt lat="40.0712452" lon="-105.2297856">
  <ele>1583.0</ele>
  <time>2026-08-28T17:52:23Z</time>
  <course>179.52</course>
  <speed>5.11</speed>
  <fix>3d</fix>
</trkpt>
<trkpt lat="40.0712289" lon="-105.229786">
  <ele>1583.1</ele>
  <time>2026-08-28T17:52:23Z</time>
  <course>180.21</course>
  <speed>5.11</speed>
  <fix>3d</fix>
</trkpt>
<trkpt lat="40.071236" lon="-105.2297855">
  <ele>1583.0</ele>
  <time>2026-08-28T17:52:23Z</time>
  <course>179.52</course>
  <speed>5.1</speed>
  <fix>3d</fix>
</trkpt>
<trkpt lat="40.0712244" lon="-105.2297859">
  <ele>1583.1</ele>
  <time>2026-08-28T17:52:23Z</time>
  <course>180.2</course>
  <speed>5.09</speed>
  <fix>3d</fix>
</trkpt>
<trkpt lat="40.071236" lon="-105.2297855">
  <ele>1583.0</ele>
  <time>2026-08-28T17:52:23Z</time>
  <course>179.52</course>
  <speed>5.1</speed>
  <fix>3d</fix>
</trkpt>
<trkpt lat="40.0712198" lon="-105.2297859">
  <ele>1583.1</ele>
  <time>2026-08-28T17:52:23Z</time>
  <course>180.2</course>
  <speed>5.08</speed>
  <fix>3d</fix>
</trkpt>
<trkpt lat="40.0712269" lon="-105.2297854">
  <ele>1583.0</ele>
  <time>2026-08-28T17:52:23Z</time>
  <course>179.52</course>
  <speed>5.08</speed>
  <fix>3d</fix>
</trkpt>
<trkpt lat="40.0712153" lon="-105.2297858">
  <ele>1583.1</ele>
  <time>2026-08-28T17:52:23Z</time>
  <course>180.19</course>
  <speed>5.06</speed>
  <fix>3d</fix>
</trkpt>
<trkpt lat="40.0712269" lon="-105.2297854">
  <ele>1583.0</ele>
  <time>2026-08-28T17:52:23Z</time>
  <course>179.52</course>
  <speed>5.08</speed>
  <fix>3d</fix>
</trkpt>
<trkpt lat="40.0712109" lon="-105.2297858">
  <ele>1583.09</ele>
  <time>2026-08-28T17:52:23Z</time>
  <course>180.19</course>
  <speed>5.04</speed>
  <fix>3d</fix>
</trkpt>
<trkpt lat="40.0712178" lon="-105.2297853">
  <ele>1583.0</ele>
  <time>2026-08-28T17:52:23Z</time>
  <course>179.52</course>
  <speed>5.05</speed>
  <fix>3d</fix>
</trkpt>
<trkpt lat="40.0712072" lon="-105.2297857">
  <ele>1583.09</ele>
  <time>2026-08-28T17:52:23Z</time>
  <course>180.19</course>
  <speed>5.03</speed>
  <fix>3d</fix>
</trkpt>
<trkpt lat="40.0712178" lon="-105.2297853">
  <ele>1583.0</ele>
  <time>2026-08-28T17:52:23Z</time>
  <course>179.52</course>
  <speed>5.05</speed>
  <fix>3d</fix>
</trkpt>
<trkpt lat="40.0712028" lon="-105.2297856">
  <ele>1583.09</ele>
  <time>2026-08-28T17:52:23Z</time>
  <course>180.18</course>
  <speed>5.01</speed>
  <fix>3d</fix>
</trkpt>
<trkpt lat="40.0712087" lon="-105.2297852">
  <ele>1583.0</ele>
  <time>2026-08-28T17:52:23Z</time>
  <course>179.52</course>
  <speed>5.02</speed>
  <fix>3d</fix>
</trkpt>
<trkpt lat="40.0711983" lon="-105.2297856">
  <ele>1583.09</ele>
  <time>2026-08-28T17:52:23Z</time>
  <course>180.18</course>
  <speed>5.0</speed>
  <fix>3d</fix>
</trkpt>
<trkpt lat="40.0712087" lon="-105.2297852">
  <ele>1583.0</ele>
  <time>2026-08-28T17:52:23Z</time>
  <course>179.52</course>
  <speed>5.02</speed>
  <fix>3d</fix>
</trkpt>
<trkpt lat="40.0711939" lon="-105.2297855">
  <ele>1583.09</ele>
  <time>2026-08-28T17:52:23Z</time>
  <course>180.18</course>
  <speed>4.98</speed>
  <fix>3d</fix>
</trkpt>
<trkpt lat="40.0711998" lon="-105.2297851">
  <ele>1583.0</ele>
  <time>2026-08-28T17:52:23Z</time>
  <course>179.52</course>
  <speed>5.0</speed>
  <fix>3d</fix>
</trkpt>
<trkpt lat="40.0711894" lon="-105.2297854">
  <ele>1583.09</ele>
  <time>2026-08-28T17:52:23Z</time>
  <course>180.17</course>
  <speed>4.970010060351991</speed>
  <fix>3d</fix>
</trkpt>
<trkpt lat="40.0711998" lon="-105.2297851">
  <ele>1583.0</ele>
  <time>2026-08-28T17:52:23Z</time>
  <course>179.52</course>
  <speed>5.0</speed>
  <fix>3d</fix>
</trkpt>
<trkpt lat="40.0711849" lon="-105.2297854">
  <ele>1583.09</ele>
  <time>2026-08-28T17:52:23Z</time>
  <course>180.17</course>
  <speed>4.960010080634917</speed>
  <fix>3d</fix>
</trkpt>
<trkpt lat="40.0711907" lon="-105.229785">
  <ele>1583.0</ele>
  <time>2026-08-28T17:52:23Z</time>
  <course>179.52</course>
  <speed>4.97</speed>
  <fix>3d</fix>
</trkpt>
<trkpt lat="40.0711804" lon="-105.2297853">
  <ele>1583.08</ele>
  <time>2026-08-28T17:52:23Z</time>
  <course>180.17</course>
  <speed>4.950010100999795</speed>
  <fix>3d</fix>
</trkpt>
<trkpt lat="40.0711907" lon="-105.229785">
  <ele>1583.0</ele>
  <time>2026-08-28T17:52:23Z</time>
  <course>179.52</course>
  <speed>4.97</speed>
  <fix>3d</fix>
</trkpt>
<trkpt lat="40.0711759" lon="-105.2297853">
  <ele>1583.08</ele>
  <time>2026-08-28T17:52:23Z</time>
  <course>180.17</course>
  <speed>4.950010100999795</speed>
  <fix>3d</fix>
</trkpt>
<trkpt lat="40.0711818" lon="-105.2297849">
  <ele>1583.0</ele>
  <time>2026-08-28T17:52:23Z</time>
  <course>179.52</course>
  <speed>4.95</speed>
  <fix>3d</fix>
</trkpt>
<trkpt lat="40.0711715" lon="-105.2297852">
  <ele>1583.08</ele>
  <time>2026-08-28T17:52:23Z</time>
  <course>180.17</course>
  <speed>4.940010121447121</speed>
  <fix>3d</fix>
</trkpt>
<trkpt lat="40.0711818" lon="-105.2297849">
  <ele>1583.0</ele>
  <time>2026-08-28T17:52:23Z</time>
  <course>179.52</course>
  <speed>4.95</speed>
  <fix>3d</fix>
</trkpt>
<trkpt lat="40.071167" lon="-105.2297851">
  <ele>1583.07</ele>
  <time>2026-08-28T17:52:23Z</time>
  <course>180.18</course>
  <speed>4.930010141977398</speed>
  <fix>3d</fix>
</trkpt>
<trkpt lat="40.0711729" lon="-105.2297848">
  <ele>1583.0</ele>
  <time>2026-08-28T17:52:23Z</time>
  <course>179.53</course>
  <speed>4.94</speed>
  <fix>3d</fix>
</trkpt>
<trkpt lat="40.0711617" lon="-105.2297851">
  <ele>1583.07</ele>
  <time>2026-08-28T17:52:23Z</time>
  <course>180.21</course>
  <speed>4.930010141977398</speed>
  <fix>3d</fix>
</trkpt>
<trkpt lat="40.0711729" lon="-105.2297848">
  <ele>1583.0</ele>
  <time>2026-08-28T17:52:23Z</time>
  <course>179.53</course>
  <speed>4.94</speed>
  <fix>3d</fix>
</trkpt>
<trkpt lat="40.0711572" lon="-105.229785">
  <ele>1583.07</ele>
  <time>2026-08-28T17:52:23Z</time>
  <course>180.23</course>
  <speed>4.930010141977398</speed>
  <fix>3d</fix>
</trkpt>
<trkpt lat="40.0711641" lon="-105.2297847">
  <ele>1583.0</ele>
  <time>2026-08-28T17:52:23Z</time>
  <course>179.56</course>
  <speed>4.93</speed>
  <fix>3d</fix>
</trkpt>
<trkpt lat="40.0711528" lon="-105.229785">
  <ele>1583.08</ele>
  <time>2026-08-28T17:52:23Z</time>
  <course>180.26</course>
  <speed>4.93</speed>
  <fix>3d</fix>
</trkpt>
<trkpt lat="40.0711641" lon="-105.2297847">
  <ele>1583.0</ele>
  <time>2026-08-28T17:52:23Z</time>
  <course>179.56</course>
  <speed>4.93</speed>
  <fix>3d</fix>
</trkpt>
<trkpt lat="40.0711483" lon="-105.2297849">
  <ele>1583.08</ele>
  <time>2026-08-28T17:52:23Z</time>
  <course>180.27</course>
  <speed>4.92</speed>
  <fix>3d</fix>
</trkpt>
<trkpt lat="40.0711552" lon="-105.2297847">
  <ele>1583.0</ele>
  <time>2026-08-28T17:52:23Z</time>
  <course>179.6</course>
  <speed>4.93</speed>
  <fix>3d</fix>
</trkpt>
<trkpt lat="40.0711439" lon="-105.2297849">
  <ele>1583.08</ele>
  <time>2026-08-28T17:52:23Z</time>
  <course>180.29</course>
  <speed>4.92</speed>
  <fix>3d</fix>
</trkpt>
<trkpt lat="40.0711552" lon="-105.2297847">
  <ele>1583.0</ele>
  <time>2026-08-28T17:52:23Z</time>
  <course>179.6</course>
  <speed>4.93</speed>
  <fix>3d</fix>
</trkpt>
<trkpt lat="40.0711394" lon="-105.2297848">
  <ele>1583.08</ele>
  <time>2026-08-28T17:52:23Z</time>
  <course>180.31</course>
  <speed>4.92</speed>
  <fix>3d</fix>
</trkpt>
<trkpt lat="40.0711463" lon="-105.2297846">
  <ele>1583.0</ele>
  <time>2026-08-28T17:52:23Z</time>
  <course>179.64</course>
  <speed>4.93</speed>
  <fix>3d</fix>
</trkpt>
<trkpt lat="40.0711351" lon="-105.2297848">
  <ele>1583.08</ele>
  <time>2026-08-28T17:52:23Z</time>
  <course>180.34</course>
  <speed>4.92</speed>
  <fix>3d</fix>
</trkpt>
<trkpt lat="40.0711463" lon="-105.2297846">
  <ele>1583.0</ele>
  <time>2026-08-28T17:52:23Z</time>
  <course>179.64</course>
  <speed>4.93</speed>
  <fix>3d</fix>
</trkpt>
<trkpt lat="40.0711306" lon="-105.2297848">
  <ele>1583.08</ele>
  <time>2026-08-28T17:52:23Z</time>
  <course>180.36</course>
  <speed>4.92</speed>
  <fix>3d</fix>
</trkpt>
<trkpt lat="40.0711375" lon="-105.2297845">
  <ele>1583.0</ele>
  <time>2026-08-28T17:52:23Z</time>
  <course>179.68</course>
  <speed>4.93</speed>
  <fix>3d</fix>
</trkpt>
<trkpt lat="40.0711263" lon="-105.2297847">
  <ele>1583.09</ele>
  <time>2026-08-28T17:52:23Z</time>
  <course>180.37</course>
  <speed>4.92</speed>
  <fix>3d</fix>
</trkpt>
<trkpt lat="40.0711375" lon="-105.2297845">
  <ele>1583.0</ele>
  <time>2026-08-28T17:52:23Z</time>
  <course>179.68</course>
  <speed>4.93</speed>
  <fix>3d</fix>
</trkpt>
<trkpt lat="40.0711219" lon="-105.2297847">
  <ele>1583.09</ele>
  <time>2026-08-28T17:52:23Z</time>
  <course>180.4</course>
  <speed>4.93</speed>
  <fix>3d</fix>
</trkpt>
<trkpt lat="40.0711286" lon="-105.2297844">
  <ele>1583.0</ele>
  <time>2026-08-28T17:52:23Z</time>
  <course>179.72</course>
  <speed>4.94</speed>
  <fix>3d</fix>
</trkpt>
<trkpt lat="40.0711175" lon="-105.2297847">
  <ele>1583.09</ele>
  <time>2026-08-28T17:52:23Z</time>
  <course>180.42</course>
  <speed>4.93</speed>
  <fix>3d</fix>
</trkpt>
<trkpt lat="40.0711286" lon="-105.2297844">
  <ele>1583.0</ele>
  <time>2026-08-28T17:52:23Z</time>
  <course>179.72</course>
  <speed>4.94</speed>
  <fix>3d</fix>
</trkpt>
<trkpt lat="40.0711139" lon="-105.2297847">
  <ele>1583.09</ele>
  <time>2026-08-28T17:52:23Z</time>
  <course>180.43</course>
  <speed>4.93</speed>
  <fix>3d</fix>
</trkpt>
<trkpt lat="40.0711197" lon="-105.2297844">
  <ele>1583.0</ele>
  <time>2026-08-28T17:52:23Z</time>
  <course>179.76</course>
  <speed>4.95</speed>
  <fix>3d</fix>
</trkpt>
<trkpt lat="40.0711095" lon="-105.2297846">
  <ele>1583.09</ele>
  <time>2026-08-28T17:52:23Z</time>
  <course>180.46</course>
  <speed>4.94</speed>
  <fix>3d</fix>
</trkpt>
<trkpt lat="40.0711197" lon="-105.2297844">
  <ele>1583.0</ele>
  <time>2026-08-28T17:52:23Z</time>
  <course>179.76</course>
  <speed>4.95</speed>
  <fix>3d</fix>
</trkpt>
<trkpt lat="40.0711051" lon="-105.2297846">
  <ele>1583.09</ele>
  <time>2026-08-28T17:52:23Z</time>
  <course>180.46</course>
  <speed>4.94</speed>
  <fix>3d</fix>
</trkpt>
<trkpt lat="40.0711108" lon="-105.2297844">
  <ele>1583.0</ele>
  <time>2026-08-28T17:52:23Z</time>
  <course>179.79</course>
  <speed>4.96</speed>
  <fix>3d</fix>
</trkpt>
<trkpt lat="40.0711006" lon="-105.2297846">
  <ele>1583.09</ele>
  <time>2026-08-28T17:52:23Z</time>
  <course>180.49</course>
  <speed>4.95</speed>
  <fix>3d</fix>
</trkpt>
<trkpt lat="40.0711108" lon="-105.2297844">
  <ele>1583.0</ele>
  <time>2026-08-28T17:52:23Z</time>
  <course>179.79</course>
  <speed>4.96</speed>
  <fix>3d</fix>
</trkpt>
<trkpt lat="40.0710962" lon="-105.2297846">
  <ele>1583.09</ele>
  <time>2026-08-28T17:52:23Z</time>
  <course>180.49</course>
  <speed>4.96</speed>
  <fix>3d</fix>
</trkpt>
<trkpt lat="40.0711019" lon="-105.2297843">
  <ele>1583.0</ele>
  <time>2026-08-28T17:52:23Z</time>
  <course>179.81</course>
  <speed>4.97</speed>
  <fix>3d</fix>
</trkpt>
<trkpt lat="40.0710917" lon="-105.2297845">
  <ele>1583.09</ele>
  <time>2026-08-28T17:52:23Z</time>
  <course>180.5</course>
  <speed>4.96</speed>
  <fix>3d</fix>
</trkpt>
<trkpt lat="40.0711019" lon="-105.2297843">
  <ele>1583.0</ele>
  <time>2026-08-28T17:52:23Z</time>
  <course>179.81</course>
  <speed>4.97</speed>
  <fix>3d</fix>
</trkpt>
<trkpt lat="40.0710872" lon="-105.2297845">
  <ele>1583.09</ele>
  <time>2026-08-28T17:52:23Z</time>
  <course>180.53</course>
  <speed>4.97</speed>
  <fix>3d</fix>
</trkpt>
<trkpt lat="40.071093" lon="-105.2297842">
  <ele>1583.0</ele>
  <time>2026-08-28T17:52:23Z</time>
  <course>179.85</course>
  <speed>4.98</speed>
  <fix>3d</fix>
</trkpt>
<trkpt lat="40.0710826" lon="-105.2297845">
  <ele>1583.1</ele>
  <time>2026-08-28T17:52:23Z</time>
  <course>180.53</course>
  <speed>4.97</speed>
  <fix>3d</fix>
</trkpt>
<trkpt lat="40.071093" lon="-105.2297842">
  <ele>1583.0</ele>
  <time>2026-08-28T17:52:23Z</time>
  <course>179.85</course>
  <speed>4.98</speed>
  <fix>3d</fix>
</trkpt>
<trkpt lat="40.0710781" lon="-105.2297845">
  <ele>1583.1</ele>
  <time>2026-08-28T17:52:23Z</time>
  <course>180.55</course>
  <speed>4.98</speed>
  <fix>3d</fix>
</trkpt>
<trkpt lat="40.071084" lon="-105.2297842">
  <ele>1583.0</ele>
  <time>2026-08-28T17:52:23Z</time>
  <course>179.88</course>
  <speed>4.99</speed>
  <fix>3d</fix>
</trkpt>
<trkpt lat="40.0710736" lon="-105.2297845">
  <ele>1583.1</ele>
  <time>2026-08-28T17:52:23Z</time>
  <course>180.58</course>
  <speed>4.980010040150521</speed>
  <fix>3d</fix>
</trkpt>
<trkpt lat="40.071084" lon="-105.2297842">
  <ele>1583.0</ele>
  <time>2026-08-28T17:52:23Z</time>
  <course>179.88</course>
  <speed>4.99</speed>
  <fix>3d</fix>
</trkpt>
<trkpt lat="40.0710682" lon="-105.2297845">
  <ele>1583.1</ele>
  <time>2026-08-28T17:52:23Z</time>
  <course>180.58</course>
  <speed>4.980010040150521</speed>
  <fix>3d</fix>
</trkpt>
<trkpt lat="40.0710749" lon="-105.2297842">
  <ele>1583.0</ele>
  <time>2026-08-28T17:52:23Z</time>
  <course>179.9</course>
  <speed>5.0</speed>
  <fix>3d</fix>
</trkpt>
<trkpt lat="40.0710637" lon="-105.2297845">
  <ele>1583.1</ele>
  <time>2026-08-28T17:52:23Z</time>
  <course>180.61</course>
  <speed>4.99001002003002</speed>
  <fix>3d</fix>
</trkpt>
<trkpt lat="40.0710749" lon="-105.2297842">
  <ele>1583.0</ele>
  <time>2026-08-28T17:52:23Z</time>
  <course>179.9</course>
  <speed>5.0</speed>
  <fix>3d</fix>
</trkpt>
<trkpt lat="40.0710592" lon="-105.2297844">
  <ele>1583.11</ele>
  <time>2026-08-28T17:52:23Z</time>
  <course>180.61</course>
  <speed>4.99001002003002</speed>
  <fix>3d</fix>
</trkpt>
<trkpt lat="40.071066" lon="-105.2297842">
  <ele>1583.0</ele>
  <time>2026-08-28T17:52:23Z</time>
  <course>179.92</course>
  <speed>5.0</speed>
  <fix>3d</fix>
</trkpt>
<trkpt lat="40.0710546" lon="-105.2297844">
  <ele>1583.11</ele>
  <time>2026-08-28T17:52:23Z</time>
  <course>180.63</course>
  <speed>4.99001002003002</speed>
  <fix>3d</fix>
</trkpt>
<trkpt lat="40.071066" lon="-105.2297842">
  <ele>1583.0</ele>
  <time>2026-08-28T17:52:23Z</time>
  <course>179.92</course>
  <speed>5.0</speed>
  <fix>3d</fix>
</trkpt>
<trkpt lat="40.0710501" lon="-105.2297844">
  <ele>1583.11</ele>
  <time>2026-08-28T17:52:23Z</time>
  <course>180.63</course>
  <speed>4.99001002003002</speed>
  <fix>3d</fix>
</trkpt>
<trkpt lat="40.0710569" lon="-105.2297842">
  <ele>1583.0</ele>
  <time>2026-08-28T17:52:23Z</time>
  <course>179.94</course>
  <speed>5.01</speed>
  <fix>3d</fix>
</trkpt>
<trkpt lat="40.0710457" lon="-105.2297844">
  <ele>1583.12</ele>
  <time>2026-08-28T17:52:23Z</time>
  <course>180.64</course>
  <speed>4.99001002003002</speed>
  <fix>3d</fix>
</trkpt>
<trkpt lat="40.0710569" lon="-105.2297842">
  <ele>1583.0</ele>
  <time>2026-08-28T17:52:23Z</time>
  <course>179.94</course>
  <speed>5.01</speed>
  <fix>3d</fix>
</trkpt>
<trkpt lat="40.0710412" lon="-105.2297844">
  <ele>1583.12</ele>
  <time>2026-08-28T17:52:23Z</time>
  <course>180.65</course>
  <speed>4.980010040150521</speed>
  <fix>3d</fix>
</trkpt>
<trkpt lat="40.071048" lon="-105.2297842">
  <ele>1583.0</ele>
  <time>2026-08-28T17:52:23Z</time>
  <course>179.96</course>
  <speed>5.01</speed>
  <fix>3d</fix>
</trkpt>
<trkpt lat="40.0710367" lon="-105.2297844">
  <ele>1583.12</ele>
  <time>2026-08-28T17:52:23Z</time>
  <course>180.66</course>
  <speed>4.980010040150521</speed>
  <fix>3d</fix>
</trkpt>
<trkpt lat="40.071048" lon="-105.2297842">
  <ele>1583.0</ele>
  <time>2026-08-28T17:52:23Z</time>
  <course>179.96</course>
  <speed>5.01</speed>
  <fix>3d</fix>
</trkpt>
<trkpt lat="40.0710323" lon="-105.2297844">
  <ele>1583.12</ele>
  <time>2026-08-28T17:52:23Z</time>
  <course>180.66</course>
  <speed>4.980010040150521</speed>
  <fix>3d</fix>
</trkpt>
<trkpt lat="40.071039" lon="-105.2297842">
  <ele>1583.0</ele>
  <time>2026-08-28T17:52:23Z</time>
  <course>179.97</course>
  <speed>5.01</speed>
  <fix>3d</fix>
</trkpt>
<trkpt lat="40.0710278" lon="-105.2297844">
  <ele>1583.12</ele>
  <time>2026-08-28T17:52:23Z</time>
  <course>180.68</course>
  <speed>4.980010040150521</speed>
  <fix>3d</fix>
</trkpt>
<trkpt lat="40.071039" lon="-105.2297842">
  <ele>1583.0</ele>
  <time>2026-08-28T17:52:23Z</time>
  <course>179.97</course>
  <speed>5.01</speed>
  <fix>3d</fix>
</trkpt>
<trkpt lat="40.0710233" lon="-105.2297844">
  <ele>1583.12</ele>
  <time>2026-08-28T17:52:23Z</time>
  <course>180.68</course>
  <speed>4.980010040150521</speed>
  <fix>3d</fix>
</trkpt>
<trkpt lat="40.0710299" lon="-105.2297842">
  <ele>1583.0</ele>
  <time>2026-08-28T17:52:23Z</time>
  <course>179.98</course>
  <speed>5.01</speed>
  <fix>3d</fix>
</trkpt>
<trkpt lat="40.0710198" lon="-105.2297844">
  <ele>1583.12</ele>
  <time>2026-08-28T17:52:23Z</time>
  <course>180.7</course>
  <speed>4.980040160480636</speed>
  <fix>3d</fix>
</trkpt>
<trkpt lat="40.0710299" lon="-105.2297842">
  <ele>1583.0</ele>
  <time>2026-08-28T17:52:23Z</time>
  <course>179.98</course>
  <speed>5.01</speed>
  <fix>3d</fix>
</trkpt>
<trkpt lat="40.0710153" lon="-105.2297844">
  <ele>1583.12</ele>
  <time>2026-08-28T17:52:23Z</time>
  <course>180.7</course>
  <speed>4.980040160480636</speed>
  <fix>3d</fix>
</trkpt>
<trkpt lat="40.071021" lon="-105.2297842">
  <ele>1583.0</ele>
  <time>2026-08-28T17:52:23Z</time>
  <course>180.0</course>
  <speed>5.01</speed>
  <fix>3d</fix>
</trkpt>
<trkpt lat="40.0710108" lon="-105.2297844">
  <ele>1583.12</ele>
  <time>2026-08-28T17:52:23Z</time>
  <course>180.7</course>
  <speed>4.980040160480636</speed>
  <fix>3d</fix>
</trkpt>
<trkpt lat="40.071021" lon="-105.2297842">
  <ele>1583.0</ele>
  <time>2026-08-28T17:52:23Z</time>
  <course>180.0</course>
  <speed>5.01</speed>
  <fix>3d</fix>
</trkpt>
<trkpt lat="40.0710064" lon="-105.2297844">
  <ele>1583.11</ele>
  <time>2026-08-28T17:52:23Z</time>
  <course>180.72</course>
  <speed>4.970040241285778</speed>
  <fix>3d</fix>
</trkpt>
<trkpt lat="40.0710119" lon="-105.2297842">
  <ele>1583.0</ele>
  <time>2026-08-28T17:52:23Z</time>
  <course>180.01</course>
  <speed>5.01</speed>
  <fix>3d</fix>
</trkpt>
<trkpt lat="40.0710019" lon="-105.2297844">
  <ele>1583.11</ele>
  <time>2026-08-28T17:52:23Z</time>
  <course>180.72</course>
  <speed>4.950040403875508</speed>
  <fix>3d</fix>
</trkpt>
<trkpt lat="40.0710119" lon="-105.2297842">
  <ele>1583.0</ele>
  <time>2026-08-28T17:52:23Z</time>
  <course>180.01</course>
  <speed>5.01</speed>
  <fix>3d</fix>
</trkpt>
<trkpt lat="40.0709974" lon="-105.2297844">
  <ele>1583.11</ele>
  <time>2026-08-28T17:52:23Z</time>
  <course>180.75</course>
  <speed>4.920040650238573</speed>
  <fix>3d</fix>
</trkpt>
<trkpt lat="40.071003" lon="-105.2297842">
  <ele>1583.0</ele>
  <time>2026-08-28T17:52:23Z</time>
  <course>180.03</course>
  <speed>4.98</speed>
  <fix>3d</fix>
</trkpt>
<trkpt lat="40.0709929" lon="-105.2297844">
  <ele>1583.12</ele>
  <time>2026-08-28T17:52:23Z</time>
  <course>180.76</course>
  <speed>4.87004106758865</speed>
  <fix>3d</fix>
</trkpt>
<trkpt lat="40.071003" lon="-105.2297842">
  <ele>1583.0</ele>
  <time>2026-08-28T17:52:23Z</time>
  <course>180.03</course>
  <speed>4.98</speed>
  <fix>3d</fix>
</trkpt>
<trkpt lat="40.0709885" lon="-105.2297844">
  <ele>1583.12</ele>
  <time>2026-08-28T17:52:23Z</time>
  <course>180.82</course>
  <speed>4.8100415798618625</speed>
  <fix>3d</fix>
</trkpt>
<trkpt lat="40.070994" lon="-105.2297842">
  <ele>1583.0</ele>
  <time>2026-08-28T17:52:23Z</time>
  <course>180.08</course>
  <speed>4.89</speed>
  <fix>3d</fix>
</trkpt>
<trkpt lat="40.0709842" lon="-105.2297844">
  <ele>1583.12</ele>
  <time>2026-08-28T17:52:23Z</time>
  <course>180.86</course>
  <speed>4.73009513646396</speed>
  <fix>3d</fix>
</trkpt>
<trkpt lat="40.070994" lon="-105.2297842">
  <ele>1583.0</ele>
  <time>2026-08-28T17:52:23Z</time>
  <course>180.08</course>
  <speed>4.89</speed>
  <fix>3d</fix>
</trkpt>
<trkpt lat="40.0709791" lon="-105.2297844">
  <ele>1583.12</ele>
  <time>2026-08-28T17:52:23Z</time>
  <course>180.94</course>
  <speed>4.630097191204522</speed>
  <fix>3d</fix>
</trkpt>
<trkpt lat="40.0709854" lon="-105.2297842">
  <ele>1583.0</ele>
  <time>2026-08-28T17:52:23Z</time>
  <course>180.16</course>
  <speed>4.76</speed>
  <fix>3d</fix>
</trkpt>
<trkpt lat="40.0709749" lon="-105.2297844">
  <ele>1583.12</ele>
  <time>2026-08-28T17:52:23Z</time>
  <course>181.0</course>
  <speed>4.530099336659187</speed>
  <fix>3d</fix>
</trkpt>
<trkpt lat="40.0709854" lon="-105.2297842">
  <ele>1583.0</ele>
  <time>2026-08-28T17:52:23Z</time>
  <course>180.16</course>
  <speed>4.76</speed>
  <fix>3d</fix>
</trkpt>
<trkpt lat="40.0709709" lon="-105.2297844">
  <ele>1583.12</ele>
  <time>2026-08-28T17:52:23Z</time>
  <course>181.06</course>
  <speed>4.420180991769454</speed>
  <fix>3d</fix>
</trkpt>
<trkpt lat="40.070977" lon="-105.2297842">
  <ele>1583.0</ele>
  <time>2026-08-28T17:52:23Z</time>
  <course>180.27</course>
  <speed>4.57</speed>
  <fix>3d</fix>
</trkpt>
<trkpt lat="40.0709669" lon="-105.2297845">
  <ele>1583.12</ele>
  <time>2026-08-28T17:52:23Z</time>
  <course>181.12</course>
  <speed>4.310185610852507</speed>
  <fix>3d</fix>
</trkpt>
<trkpt lat="40.070977" lon="-105.2297842">
  <ele>1583.0</ele>
  <time>2026-08-28T17:52:23Z</time>
  <course>180.27</course>
  <speed>4.57</speed>
  <fix>3d</fix>
</trkpt>
<trkpt lat="40.0709631" lon="-105.2297845">
  <ele>1583.12</ele>
  <time>2026-08-28T17:52:23Z</time>
  <course>181.18</course>
  <speed>4.190190926437601</speed>
  <fix>3d</fix>
</trkpt>
<trkpt lat="40.070969" lon="-105.2297842">
  <ele>1583.0</ele>
  <time>2026-08-28T17:52:23Z</time>
  <course>180.4</course>
  <speed>4.36</speed>
  <fix>3d</fix>
</trkpt>
<trkpt lat="40.0709593" lon="-105.2297845">
  <ele>1583.12</ele>
  <time>2026-08-28T17:52:23Z</time>
  <course>181.24</course>
  <speed>4.060197039553622</speed>
  <fix>3d</fix>
</trkpt>
<trkpt lat="40.070969" lon="-105.2297842">
  <ele>1583.0</ele>
  <time>2026-08-28T17:52:23Z</time>
  <course>180.4</course>
  <speed>4.36</speed>
  <fix>3d</fix>
</trkpt>
<trkpt lat="40.0709557" lon="-105.2297846">
  <ele>1583.12</ele>
  <time>2026-08-28T17:52:23Z</time>
  <course>181.3</course>
  <speed>3.930203557069277</speed>
  <fix>3d</fix>
</trkpt>
<trkpt lat="40.0709614" lon="-105.2297843">
  <ele>1583.0</ele>
  <time>2026-08-28T17:52:23Z</time>
  <course>180.51</course>
  <speed>4.12</speed>
  <fix>3d</fix>
</trkpt>
<trkpt lat="40.0709523" lon="-105.2297846">
  <ele>1583.12</ele>
  <time>2026-08-28T17:52:23Z</time>
  <course>181.36</course>
  <speed>3.800328933131973</speed>
  <fix>3d</fix>
</trkpt>
<trkpt lat="40.0709614" lon="-105.2297843">
  <ele>1583.0</ele>
  <time>2026-08-28T17:52:23Z</time>
  <course>180.51</course>
  <speed>4.12</speed>
  <fix>3d</fix>
</trkpt>
<trkpt lat="40.070949" lon="-105.2297846">
  <ele>1583.12</ele>
  <time>2026-08-28T17:52:23Z</time>
  <course>181.46</course>
  <speed>3.6703405836516043</speed>
  <fix>3d</fix>
</trkpt>
<trkpt lat="40.0709542" lon="-105.2297844">
  <ele>1583.0</ele>
  <time>2026-08-28T17:52:23Z</time>
  <course>180.64</course>
  <speed>3.86</speed>
  <fix>3d</fix>
</trkpt>
<trkpt lat="40.0709458" lon="-105.2297847">
  <ele>1583.12</ele>
  <time>2026-08-28T17:52:23Z</time>
  <course>181.56</course>
  <speed>3.5303540898895682</speed>
  <fix>3d</fix>
</trkpt>
<trkpt lat="40.0709542" lon="-105.2297844">
  <ele>1583.0</ele>
  <time>2026-08-28T17:52:23Z</time>
  <course>180.64</course>
  <speed>3.86</speed>
  <fix>3d</fix>
</trkpt>
<trkpt lat="40.0709427" lon="-105.2297847">
  <ele>1583.12</ele>
  <time>2026-08-28T17:52:23Z</time>
  <course>181.66</course>
  <speed>3.4003676271838605</speed>
  <fix>3d</fix>
</trkpt>
<trkpt lat="40.0709475" lon="-105.2297845">
  <ele>1583.0</ele>
  <time>2026-08-28T17:52:23Z</time>
  <course>180.81</course>
  <speed>3.6</speed>
  <fix>3d</fix>
</trkpt>
<trkpt lat="40.0709397" lon="-105.2297848">
  <ele>1583.12</ele>
  <time>2026-08-28T17:52:23Z</time>
  <course>181.75</course>
  <speed>3.2605521004885047</speed>
  <fix>3d</fix>
</trkpt>
<trkpt lat="40.0709475" lon="-105.2297845">
  <ele>1583.0</ele>
  <time>2026-08-28T17:52:23Z</time>
  <course>180.81</course>
  <speed>3.6</speed>
  <fix>3d</fix>
</trkpt>
<trkpt lat="40.0709374" lon="-105.2297848">
  <ele>1583.12</ele>
  <time>2026-08-28T17:52:23Z</time>
  <course>181.83</course>
  <speed>3.160569568922665</speed>
  <fix>3d</fix>
</trkpt>
<trkpt lat="40.0709412" lon="-105.2297847">
  <ele>1583.0</ele>
  <time>2026-08-28T17:52:23Z</time>
  <course>181.0</course>
  <speed>3.34</speed>
  <fix>3d</fix>
</trkpt>
<trkpt lat="40.0709346" lon="-105.2297849">
  <ele>1583.13</ele>
  <time>2026-08-28T17:52:23Z</time>
  <course>181.95</course>
  <speed>3.0305940011819468</speed>
  <fix>3d</fix>
</trkpt>
<trkpt lat="40.0709412" lon="-105.2297847">
  <ele>1583.0</ele>
  <time>2026-08-28T17:52:23Z</time>
  <course>181.0</course>
  <speed>3.34</speed>
  <fix>3d</fix>
</trkpt>
<trkpt lat="40.0709319" lon="-105.229785">
  <ele>1583.13</ele>
  <time>2026-08-28T17:52:23Z</time>
  <course>182.07</course>
  <speed>2.9006206232459975</speed>
  <fix>3d</fix>
</trkpt>
<trkpt lat="40.0709354" lon="-105.2297848">
  <ele>1583.0</ele>
  <time>2026-08-28T17:52:23Z</time>
  <course>181.21</course>
  <speed>3.09</speed>
  <fix>3d</fix>
</trkpt>
<trkpt lat="40.0709294" lon="-105.229785">
  <ele>1583.13</ele>
  <time>2026-08-28T17:52:23Z</time>
  <course>182.19</course>
  <speed>2.7808811553175015</speed>
  <fix>3d</fix>
</trkpt>
<trkpt lat="40.0709354" lon="-105.2297848">
  <ele>1583.0</ele>
  <time>2026-08-28T17:52:23Z</time>
  <course>181.21</course>
  <speed>3.09</speed>
  <fix>3d</fix>
</trkpt>
<trkpt lat="40.0709269" lon="-105.2297851">
  <ele>1583.13</ele>
  <time>2026-08-28T17:52:23Z</time>
  <course>182.33</course>
  <speed>2.6609208932247497</speed>
  <fix>3d</fix>
</trkpt>
<trkpt lat="40.0709301" lon="-105.2297849">
  <ele>1583.0</ele>
  <time>2026-08-28T17:52:23Z</time>
  <course>181.46</course>
  <speed>2.84</speed>
  <fix>3d</fix>
</trkpt>
<trkpt lat="40.0709246" lon="-105.2297852">
  <ele>1583.13</ele>
  <time>2026-08-28T17:52:23Z</time>
  <course>182.47</course>
  <speed>2.5409643838511395</speed>
  <fix>3d</fix>
</trkpt>
<trkpt lat="40.0709301" lon="-105.2297849">
  <ele>1583.0</ele>
  <time>2026-08-28T17:52:23Z</time>
  <course>181.46</course>
  <speed>2.84</speed>
  <fix>3d</fix>
</trkpt>
<trkpt lat="40.0709223" lon="-105.2297853">
  <ele>1583.13</ele>
  <time>2026-08-28T17:52:23Z</time>
  <course>182.63</course>
  <speed>2.421321952983535</speed>
  <fix>3d</fix>
</trkpt>
<trkpt lat="40.0709252" lon="-105.2297852">
  <ele>1583.0</ele>
  <time>2026-08-28T17:52:23Z</time>
  <course>181.73</course>
  <speed>2.6</speed>
  <fix>3d</fix>
</trkpt>
<trkpt lat="40.0709202" lon="-105.2297854">
  <ele>1583.13</ele>
  <time>2026-08-28T17:52:23Z</time>
  <course>182.79</course>
  <speed>2.3113848662652443</speed>
  <fix>3d</fix>
</trkpt>
<trkpt lat="40.0709252" lon="-105.2297852">
  <ele>1583.0</ele>
  <time>2026-08-28T17:52:23Z</time>
  <course>181.73</course>
  <speed>2.6</speed>
  <fix>3d</fix>
</trkpt>
<trkpt lat="40.0709181" lon="-105.2297855">
  <ele>1583.14</ele>
  <time>2026-08-28T17:52:23Z</time>
  <course>182.98</course>
  <speed>2.201454064930722</speed>
  <fix>3d</fix>
</trkpt>
<trkpt lat="40.0709207" lon="-105.2297854">
  <ele>1583.0</ele>
  <time>2026-08-28T17:52:23Z</time>
  <course>182.05</course>
  <speed>2.37</speed>
  <fix>3d</fix>
</trkpt>
<trkpt lat="40.0709158" lon="-105.2297856">
  <ele>1583.14</ele>
  <time>2026-08-28T17:52:23Z</time>
  <course>183.21</course>
  <speed>2.06196508214858</speed>
  <fix>3d</fix>
</trkpt>
<trkpt lat="40.0709207" lon="-105.2297854">
  <ele>1583.0</ele>
  <time>2026-08-28T17:52:23Z</time>
  <course>182.05</course>
  <speed>2.37</speed>
  <fix>3d</fix>
</trkpt>
<trkpt lat="40.070914" lon="-105.2297857">
  <ele>1583.14</ele>
  <time>2026-08-28T17:52:23Z</time>
  <course>183.43</course>
  <speed>1.962065238466856</speed>
  <fix>3d</fix>
</trkpt>
<trkpt lat="40.0709167" lon="-105.2297855">
  <ele>1583.0</ele>
  <time>2026-08-28T17:52:23Z</time>
  <course>182.42</course>
  <speed>2.16</speed>
  <fix>3d</fix>
</trkpt>
<trkpt lat="40.0709122" lon="-105.2297858">
  <ele>1583.14</ele>
  <time>2026-08-28T17:52:23Z</time>
  <course>183.66</course>
  <speed>1.8621761463406192</speed>
  <fix>3d</fix>
</trkpt>
<trkpt lat="40.0709167" lon="-105.2297855">
  <ele>1583.0</ele>
  <time>2026-08-28T17:52:23Z</time>
  <course>182.42</course>
  <speed>2.16</speed>
  <fix>3d</fix>
</trkpt>
<trkpt lat="40.0709106" lon="-105.2297859">
  <ele>1583.14</ele>
  <time>2026-08-28T17:52:23Z</time>
  <course>183.92</course>
  <speed>1.7528548142958105</speed>
  <fix>3d</fix>
</trkpt>
<trkpt lat="40.070913" lon="-105.2297858">
  <ele>1583.0</ele>
  <time>2026-08-28T17:52:23Z</time>
  <course>182.86</course>
  <speed>1.95</speed>
  <fix>3d</fix>
</trkpt>
<trkpt lat="40.070909" lon="-105.229786">
  <ele>1583.14</ele>
  <time>2026-08-28T17:52:23Z</time>
  <course>184.2</course>
  <speed>1.6530275254816538</speed>
  <fix>3d</fix>
</trkpt>
<trkpt lat="40.070913" lon="-105.2297858">
  <ele>1583.0</ele>
  <time>2026-08-28T17:52:23Z</time>
  <course>182.86</course>
  <speed>1.95</speed>
  <fix>3d</fix>
</trkpt>
<trkpt lat="40.0709076" lon="-105.2297862">
  <ele>1583.14</ele>
  <time>2026-08-28T17:52:23Z</time>
  <course>184.52</course>
  <speed>1.5532224567009068</speed>
  <fix>3d</fix>
</trkpt>
<trkpt lat="40.0709097" lon="-105.229786">
  <ele>1583.0</ele>
  <time>2026-08-28T17:52:23Z</time>
  <course>183.4</course>
  <speed>1.74</speed>
  <fix>3d</fix>
</trkpt>
<trkpt lat="40.0709062" lon="-105.2297863">
  <ele>1583.14</ele>
  <time>2026-08-28T17:52:23Z</time>
  <course>184.88</course>
  <speed>1.4541664278891877</speed>
  <fix>3d</fix>
</trkpt>
<trkpt lat="40.0709097" lon="-105.229786">
  <ele>1583.0</ele>
  <time>2026-08-28T17:52:23Z</time>
  <course>183.4</course>
  <speed>1.74</speed>
  <fix>3d</fix>
</trkpt>
<trkpt lat="40.0709049" lon="-105.2297864">
  <ele>1583.15</ele>
  <time>2026-08-28T17:52:24Z</time>
  <course>185.3</course>
  <speed>1.3544740676735012</speed>
  <fix>3d</fix>
</trkpt>
<trkpt lat="40.0709066" lon="-105.2297863">
  <ele>1583.0</ele>
  <time>2026-08-28T17:52:24Z</time>
  <course>184.06</course>
  <speed>1.55</speed>
  <fix>3d</fix>
</trkpt>
<trkpt lat="40.0709037" lon="-105.2297866">
  <ele>1583.15</ele>
  <time>2026-08-28T17:52:24Z</time>
  <course>185.77</course>
  <speed>1.264792473095883</speed>
  <fix>3d</fix>
</trkpt>
<trkpt lat="40.0709066" lon="-105.2297863">
  <ele>1583.0</ele>
  <time>2026-08-28T17:52:24Z</time>
  <course>184.06</course>
  <speed>1.55</speed>
  <fix>3d</fix>
</trkpt>
<trkpt lat="40.0709026" lon="-105.2297867">
  <ele>1583.15</ele>
  <time>2026-08-28T17:52:24Z</time>
  <course>186.32</course>
  <speed>1.16619037896906</speed>
  <fix>3d</fix>
</trkpt>
<trkpt lat="40.0709041" lon="-105.2297865">
  <ele>1583.0</ele>
  <time>2026-08-28T17:52:24Z</time>
  <course>184.92</course>
  <speed>1.35</speed>
  <fix>3d</fix>
</trkpt>
<trkpt lat="40.0709016" lon="-105.2297868">
  <ele>1583.15</ele>
  <time>2026-08-28T17:52:24Z</time>
  <course>186.97</course>
  <speed>1.066770828247567</speed>
  <fix>3d</fix>
</trkpt>
<trkpt lat="40.0709041" lon="-105.2297865">
  <ele>1583.0</ele>
  <time>2026-08-28T17:52:24Z</time>
  <course>184.92</course>
  <speed>1.35</speed>
  <fix>3d</fix>
</trkpt>
<trkpt lat="40.0709008" lon="-105.229787">
  <ele>1583.15</ele>
  <time>2026-08-28T17:52:24Z</time>
  <course>187.59</course>
  <speed>0.9873196037757986</speed>
  <fix>3d</fix>
</trkpt>
<trkpt lat="40.0709018" lon="-105.2297868">
  <ele>1583.0</ele>
  <time>2026-08-28T17:52:24Z</time>
  <course>186.09</course>
  <speed>1.16</speed>
  <fix>3d</fix>
</trkpt>
<trkpt lat="40.0709" lon="-105.2297871">
  <ele>1583.16</ele>
  <time>2026-08-28T17:52:24Z</time>
  <course>188.48</course>
  <speed>0.8994442728707542</speed>
  <fix>3d</fix>
</trkpt>
<trkpt lat="40.0709018" lon="-105.2297868">
  <ele>1583.0</ele>
  <time>2026-08-28T17:52:24Z</time>
  <course>186.09</course>
  <speed>1.16</speed>
  <fix>3d</fix>
</trkpt>
<trkpt lat="40.0708992" lon="-105.2297873">
  <ele>1583.16</ele>
  <time>2026-08-28T17:52:24Z</time>
  <course>189.42</course>
  <speed>0.8006247560499239</speed>
  <fix>3d</fix>
</trkpt>
<trkpt lat="40.0708999" lon="-105.2297871">
  <ele>1583.0</ele>
  <time>2026-08-28T17:52:24Z</time>
  <course>187.66</course>
  <speed>0.97</speed>
  <fix>3d</fix>
</trkpt>
<trkpt lat="40.0708985" lon="-105.2297874">
  <ele>1583.16</ele>
  <time>2026-08-28T17:52:24Z</time>
  <course>190.36</course>
  <speed>0.7021395872616784</speed>
  <fix>3d</fix>
</trkpt>
<trkpt lat="40.0708999" lon="-105.2297871">
  <ele>1583.0</ele>
  <time>2026-08-28T17:52:24Z</time>
  <course>187.66</course>
  <speed>0.97</speed>
  <fix>3d</fix>
</trkpt>
<trkpt lat="40.0708979" lon="-105.2297876">
  <ele>1583.16</ele>
  <time>2026-08-28T17:52:24Z</time>
  <course>191.29</course>
  <speed>0.6118823416311342</speed>
  <fix>3d</fix>
</trkpt>
<trkpt lat="40.0708984" lon="-105.2297874">
  <ele>1583.0</ele>
  <time>2026-08-28T17:52:24Z</time>
  <course>189.49</course>
  <speed>0.78</speed>
  <fix>3d</fix>
</trkpt>
<trkpt lat="40.0708973" lon="-105.2297877">
  <ele>1583.16</ele>
  <time>2026-08-28T17:52:24Z</time>
  <course>192.18</course>
  <speed>0.5141984052872977</speed>
  <fix>3d</fix>
</trkpt>
<trkpt lat="40.0708984" lon="-105.2297874">
  <ele>1583.0</ele>
  <time>2026-08-28T17:52:24Z</time>
  <course>189.49</course>
  <speed>0.78</speed>
  <fix>3d</fix>
</trkpt>
<trkpt lat="40.0708969" lon="-105.2297879">
  <ele>1583.16</ele>
  <time>2026-08-28T17:52:24Z</time>
  <course>193.01</course>
  <speed>0.41484937025383084</speed>
  <fix>3d</fix>
</trkpt>
<trkpt lat="40.0708972" lon="-105.2297877">
  <ele>1583.0</ele>
  <time>2026-08-28T17:52:24Z</time>
  <course>191.26</course>
  <speed>0.59</speed>
  <fix>3d</fix>
</trkpt>
<trkpt lat="40.0708965" lon="-105.229788">
  <ele>1583.15</ele>
  <time>2026-08-28T17:52:24Z</time>
  <course>193.75</course>
  <speed>0.33241540277189324</speed>
  <fix>3d</fix>
</trkpt>
<trkpt lat="40.0708972" lon="-105.2297877">
  <ele>1583.0</ele>
  <time>2026-08-28T17:52:24Z</time>
  <course>191.26</course>
  <speed>0.59</speed>
  <fix>3d</fix>
</trkpt>
<trkpt lat="40.0708962" lon="-105.2297881">
  <ele>1583.15</ele>
  <time>2026-08-28T17:52:24Z</time>
  <course>194.42</course>
  <speed>0.26248809496813374</speed>
  <fix>3d</fix>
</trkpt>
<trkpt lat="40.0708963" lon="-105.2297879">
  <ele>1583.0</ele>
  <time>2026-08-28T17:52:24Z</time>
  <course>192.83</course>
  <speed>0.41</speed>
  <fix>3d</fix>
</trkpt>
<trkpt lat="40.070896" lon="-105.2297882">
  <ele>1583.16</ele>
  <time>2026-08-28T17:52:24Z</time>
  <course>195.02</course>
  <speed>0.21189620100417092</speed>
  <fix>3d</fix>
</trkpt>
<trkpt lat="40.0708963" lon="-105.2297879">
  <ele>1583.0</ele>
  <time>2026-08-28T17:52:24Z</time>
  <course>192.83</course>
  <speed>0.41</speed>
  <fix>3d</fix>
</trkpt>
<trkpt lat="40.0708957" lon="-105.2297883">
  <ele>1583.16</ele>
  <time>2026-08-28T17:52:24Z</time>
  <course>195.65</course>
  <speed>0.17464249196572978</speed>
  <fix>3d</fix>
</trkpt>
<trkpt lat="40.0708956" lon="-105.2297881">
  <ele>1583.0</ele>
  <time>2026-08-28T17:52:24Z</time>
  <course>194.14</course>
  <speed>0.29</speed>
  <fix>3d</fix>
</trkpt>
<trkpt lat="40.0708956" lon="-105.2297883">
  <ele>1583.16</ele>
  <time>2026-08-28T17:52:24Z</time>
  <course>196.14</course>
  <speed>0.15231546211727817</speed>
  <fix>3d</fix>
</trkpt>
<trkpt lat="40.0708956" lon="-105.2297881">
  <ele>1583.0</ele>
  <time>2026-08-28T17:52:24Z</time>
  <course>194.14</course>
  <speed>0.29</speed>
  <fix>3d</fix>
</trkpt>
<trkpt lat="40.0708954" lon="-105.2297884">
  <ele>1583.16</ele>
  <time>2026-08-28T17:52:24Z</time>
  <course>196.6</course>
  <speed>0.14317821063276354</speed>
  <fix>3d</fix>
</trkpt>
<trkpt lat="40.0708951" lon="-105.2297883">
  <ele>1583.0</ele>
  <time>2026-08-28T17:52:24Z</time>
  <course>195.22</course>
  <speed>0.23</speed>
  <fix>3d</fix>
</trkpt>
<trkpt lat="40.0708952" lon="-105.2297885">
  <ele>1583.16</ele>
  <time>2026-08-28T17:52:24Z</time>
  <course>197.07</course>
  <speed>0.147648230602334</speed>
  <fix>3d</fix>
</trkpt>
<trkpt lat="40.0708951" lon="-105.2297883">
  <ele>1583.0</ele>
  <time>2026-08-28T17:52:24Z</time>
  <course>195.22</course>
  <speed>0.23</speed>
  <fix>3d</fix>
</trkpt>
<trkpt lat="40.070895" lon="-105.2297886">
  <ele>1583.16</ele>
  <time>2026-08-28T17:52:24Z</time>
  <course>197.56</course>
  <speed>0.15652475842498528</speed>
  <fix>3d</fix>
</trkpt>
<trkpt lat="40.0708948" lon="-105.2297884">
  <ele>1583.0</ele>
  <time>2026-08-28T17:52:24Z</time>
  <course>196.22</course>
  <speed>0.21</speed>
  <fix>3d</fix>
</trkpt>
<trkpt lat="40.0708949" lon="-105.2297887">
  <ele>1583.16</ele>
  <time>2026-08-28T17:52:24Z</time>
  <course>198.08</course>
  <speed>0.17</speed>
  <fix>3d</fix>
</trkpt>
<trkpt lat="40.0708948" lon="-105.2297884">
  <ele>1583.0</ele>
  <time>2026-08-28T17:52:24Z</time>
  <course>196.22</course>
  <speed>0.21</speed>
  <fix>3d</fix>
</trkpt>
<trkpt lat="40.0708947" lon="-105.2297887">
  <ele>1583.16</ele>
  <time>2026-08-28T17:52:24Z</time>
  <course>198.65</course>
  <speed>0.19235384061671343</speed>
  <fix>3d</fix>
</trkpt>
<trkpt lat="40.0708944" lon="-105.2297886">
  <ele>1583.0</ele>
  <time>2026-08-28T17:52:24Z</time>
  <course>197.26</course>
  <speed>0.22</speed>
  <fix>3d</fix>
</trkpt>
<trkpt lat="40.0708944" lon="-105.2297889">
  <ele>1583.16</ele>
  <time>2026-08-28T17:52:24Z</time>
  <course>199.3</course>
  <speed>0.21470910553583888</speed>
  <fix>3d</fix>
</trkpt>
<trkpt lat="40.0708944" lon="-105.2297886">
  <ele>1583.0</ele>
  <time>2026-08-28T17:52:24Z</time>
  <course>197.26</course>
  <speed>0.22</speed>
  <fix>3d</fix>
</trkpt>
<trkpt lat="40.0708942" lon="-105.229789">
  <ele>1583.15</ele>
  <time>2026-08-28T17:52:24Z</time>
  <course>200.04</course>
  <speed>0.25059928172283336</speed>
  <fix>3d</fix>
</trkpt>
<trkpt lat="40.070894" lon="-105.2297888">
  <ele>1583.0</ele>
  <time>2026-08-28T17:52:24Z</time>
  <course>198.51</course>
  <speed>0.27</speed>
  <fix>3d</fix>
</trkpt>
<trkpt lat="40.0708939" lon="-105.2297891">
  <ele>1583.15</ele>
  <time>2026-08-28T17:52:24Z</time>
  <course>200.9</course>
  <speed>0.28178005607210743</speed>
  <fix>3d</fix>
</trkpt>
<trkpt lat="40.070894" lon="-105.2297888">
  <ele>1583.0</ele>
  <time>2026-08-28T17:52:24Z</time>
  <course>198.51</course>
  <speed>0.27</speed>
  <fix>3d</fix>
</trkpt>
<trkpt lat="40.0708936" lon="-105.2297893">
  <ele>1583.15</ele>
  <time>2026-08-28T17:52:24Z</time>
  <course>201.87</course>
  <speed>0.3176476034853718</speed>
  <fix>3d</fix>
</trkpt>
<trkpt lat="40.0708935" lon="-105.2297889">
  <ele>1583.0</ele>
  <time>2026-08-28T17:52:24Z</time>
  <course>200.1</course>
  <speed>0.33</speed>
  <fix>3d</fix>
</trkpt>
<trkpt lat="40.0708933" lon="-105.2297894">
  <ele>1583.15</ele>
  <time>2026-08-28T17:52:24Z</time>
  <course>202.77</course>
  <speed>0.3535533905932738</speed>
  <fix>3d</fix>
</trkpt>
<trkpt lat="40.0708935" lon="-105.2297889">
  <ele>1583.0</ele>
  <time>2026-08-28T17:52:24Z</time>
  <course>200.1</course>
  <speed>0.33</speed>
  <fix>3d</fix>
</trkpt>
<trkpt lat="40.070893" lon="-105.2297896">
  <ele>1583.15</ele>
  <time>2026-08-28T17:52:24Z</time>
  <course>204.03</course>
  <speed>0.3944616584663204</speed>
  <fix>3d</fix>
</trkpt>
<trkpt lat="40.0708929" lon="-105.2297892">
  <ele>1583.0</ele>
  <time>2026-08-28T17:52:24Z</time>
  <course>202.18</course>
  <speed>0.39</speed>
  <fix>3d</fix>
</trkpt>
<trkpt lat="40.0708926" lon="-105.2297899">
  <ele>1583.15</ele>
  <time>2026-08-28T17:52:24Z</time>
  <course>205.47</course>
  <speed>0.4304648650006177</speed>
  <fix>3d</fix>
</trkpt>
<trkpt lat="40.0708929" lon="-105.2297892">
  <ele>1583.0</ele>
  <time>2026-08-28T17:52:24Z</time>
  <course>202.18</course>
  <speed>0.39</speed>
  <fix>3d</fix>
</trkpt>
<trkpt lat="40.0708922" lon="-105.2297901">
  <ele>1583.15</ele>
  <time>2026-08-28T17:52:24Z</time>
  <course>207.11</course>
  <speed>0.47169905660283024</speed>
  <fix>3d</fix>
</trkpt>
<trkpt lat="40.0708922" lon="-105.2297897">
  <ele>1583.0</ele>
  <time>2026-08-28T17:52:24Z</time>
  <course>204.92</course>
  <speed>0.46</speed>
  <fix>3d</fix>
</trkpt>
<trkpt lat="40.0708918" lon="-105.2297904">
  <ele>1583.15</ele>
  <time>2026-08-28T17:52:24Z</time>
  <course>209.0</course>
  <speed>0.5186520991955976</speed>
  <fix>3d</fix>
</trkpt>
<trkpt lat="40.0708922" lon="-105.2297897">
  <ele>1583.0</ele>
  <time>2026-08-28T17:52:24Z</time>
  <course>204.92</course>
  <speed>0.46</speed>
  <fix>3d</fix>
</trkpt>
<trkpt lat="40.0708913" lon="-105.2297908">
  <ele>1583.15</ele>
  <time>2026-08-28T17:52:24Z</time>
  <course>211.15</course>
  <speed>0.5521775076911409</speed>
  <fix>3d</fix>
</trkpt>
<trkpt lat="40.0708913" lon="-105.2297902">
  <ele>1583.0</ele>
  <time>2026-08-28T17:52:24Z</time>
  <course>208.51</course>
  <speed>0.54</speed>
  <fix>3d</fix>
</trkpt>
<trkpt lat="40.0708908" lon="-105.2297912">
  <ele>1583.15</ele>
  <time>2026-08-28T17:52:24Z</time>
  <course>213.6</course>
  <speed>0.5920304046246274</speed>
  <fix>3d</fix>
</trkpt>
<trkpt lat="40.0708913" lon="-105.2297902">
  <ele>1583.0</ele>
  <time>2026-08-28T17:52:24Z</time>
  <course>208.51</course>
  <speed>0.54</speed>
  <fix>3d</fix>
</trkpt>
<trkpt lat="40.0708904" lon="-105.2297916">
  <ele>1583.15</ele>
  <time>2026-08-28T17:52:24Z</time>
  <course>216.4</course>
  <speed>0.6312685640834652</speed>
  <fix>3d</fix>
</trkpt>
<trkpt lat="40.0708905" lon="-105.2297909">
  <ele>1583.0</ele>
  <time>2026-08-28T17:52:24Z</time>
  <course>213.15</course>
  <speed>0.6</speed>
  <fix>3d</fix>
</trkpt>
<trkpt lat="40.0708899" lon="-105.2297921">
  <ele>1583.15</ele>
  <time>2026-08-28T17:52:24Z</time>
  <course>219.54</course>
  <speed>0.6579513659838392</speed>
  <fix>3d</fix>
</trkpt>
<trkpt lat="40.0708905" lon="-105.2297909">
  <ele>1583.0</ele>
  <time>2026-08-28T17:52:24Z</time>
  <course>213.15</course>
  <speed>0.6</speed>
  <fix>3d</fix>
</trkpt>
<trkpt lat="40.0708894" lon="-105.2297926">
  <ele>1583.15</ele>
  <time>2026-08-28T17:52:24Z</time>
  <course>223.07</course>
  <speed>0.6862215385719105</speed>
  <fix>3d</fix>
</trkpt>
<trkpt lat="40.0708896" lon="-105.2297918">
  <ele>1583.0</ele>
  <time>2026-08-28T17:52:24Z</time>
  <course>219.11</course>
  <speed>0.66</speed>
  <fix>3d</fix>
</trkpt>
<trkpt lat="40.0708888" lon="-105.2297934">
  <ele>1583.15</ele>
  <time>2026-08-28T17:52:24Z</time>
  <course>227.85</course>
  <speed>0.7262231062146123</speed>
  <fix>3d</fix>
</trkpt>
<trkpt lat="40.0708896" lon="-105.2297918">
  <ele>1583.0</ele>
  <time>2026-08-28T17:52:24Z</time>
  <course>219.11</course>
  <speed>0.66</speed>
  <fix>3d</fix>
</trkpt>
<trkpt lat="40.0708884" lon="-105.2297941">
  <ele>1583.15</ele>
  <time>2026-08-28T17:52:24Z</time>
  <course>232.33</course>
  <speed>0.7545197147855052</speed>
  <fix>3d</fix>
</trkpt>
<trkpt lat="40.0708886" lon="-105.2297929">
  <ele>1583.0</ele>
  <time>2026-08-28T17:52:24Z</time>
  <course>226.62</course>
  <speed>0.71</speed>
  <fix>3d</fix>
</trkpt>
<trkpt lat="40.070888" lon="-105.2297948">
  <ele>1583.15</ele>
  <time>2026-08-28T17:52:24Z</time>
  <course>237.14</course>
  <speed>0.7839005038906405</speed>
  <fix>3d</fix>
</trkpt>
<trkpt lat="40.0708886" lon="-105.2297929">
  <ele>1583.0</ele>
  <time>2026-08-28T17:52:24Z</time>
  <course>226.62</course>
  <speed>0.71</speed>
  <fix>3d</fix>
</trkpt>
<trkpt lat="40.0708876" lon="-105.2297956">
  <ele>1583.15</ele>
  <time>2026-08-28T17:52:24Z</time>
  <course>242.08</course>
  <speed>0.8052949770115296</speed>
  <fix>3d</fix>
</trkpt>
<trkpt lat="40.0708878" lon="-105.2297942">
  <ele>1583.0</ele>
  <time>2026-08-28T17:52:24Z</time>
  <course>235.62</course>
  <speed>0.75</speed>
  <fix>3d</fix>
</trkpt>
<trkpt lat="40.0708873" lon="-105.2297965">
  <ele>1583.15</ele>
  <time>2026-08-28T17:52:24Z</time>
  <course>247.12</course>
  <speed>0.8193289937503738</speed>
  <fix>3d</fix>
</trkpt>
<trkpt lat="40.0708878" lon="-105.2297942">
  <ele>1583.0</ele>
  <time>2026-08-28T17:52:24Z</time>
  <course>235.62</course>
  <speed>0.75</speed>
  <fix>3d</fix>
</trkpt>
<trkpt lat="40.070887" lon="-105.2297974">
  <ele>1583.15</ele>
  <time>2026-08-28T17:52:24Z</time>
  <course>252.26</course>
  <speed>0.8393449827097318</speed>
  <fix>3d</fix>
</trkpt>
<trkpt lat="40.0708872" lon="-105.2297958">
  <ele>1583.0</ele>
  <time>2026-08-28T17:52:24Z</time>
  <course>245.53</course>
  <speed>0.79</speed>
  <fix>3d</fix>
</trkpt>
<trkpt lat="40.0708868" lon="-105.2297983">
  <ele>1583.15</ele>
  <time>2026-08-28T17:52:24Z</time>
  <course>257.47</course>
  <speed>0.8532877591996736</speed>
  <fix>3d</fix>
</trkpt>
<trkpt lat="40.0708872" lon="-105.2297958">
  <ele>1583.0</ele>
  <time>2026-08-28T17:52:24Z</time>
  <course>245.53</course>
  <speed>0.79</speed>
  <fix>3d</fix>
</trkpt>
<trkpt lat="40.0708867" lon="-105.2297993">
  <ele>1583.15</ele>
  <time>2026-08-28T17:52:24Z</time>
  <course>262.76</course>
  <speed>0.8637129152675673</speed>
  <fix>3d</fix>
</trkpt>
<trkpt lat="40.0708867" lon="-105.2297976">
  <ele>1583.0</ele>
  <time>2026-08-28T17:52:24Z</time>
  <course>255.85</course>
  <speed>0.81</speed>
  <fix>3d</fix>
</trkpt>
<trkpt lat="40.0708866" lon="-105.2298003">
  <ele>1583.15</ele>
  <time>2026-08-28T17:52:24Z</time>
  <course>268.1</course>
  <speed>0.87</speed>
  <fix>3d</fix>
</trkpt>
<trkpt lat="40.0708867" lon="-105.2297976">
  <ele>1583.0</ele>
  <time>2026-08-28T17:52:24Z</time>
  <course>255.85</course>
  <speed>0.81</speed>
  <fix>3d</fix>
</trkpt>
<trkpt lat="40.0708866" lon="-105.2298013">
  <ele>1583.15</ele>
  <time>2026-08-28T17:52:24Z</time>
  <course>273.49</course>
  <speed>0.8827797007181349</speed>
  <fix>3d</fix>
</trkpt>
<trkpt lat="40.0708864" lon="-105.2297995">
  <ele>1583.0</ele>
  <time>2026-08-28T17:52:24Z</time>
  <course>266.43</course>
  <speed>0.83</speed>
  <fix>3d</fix>
</trkpt>
<trkpt lat="40.0708867" lon="-105.2298023">
  <ele>1583.15</ele>
  <time>2026-08-28T17:52:24Z</time>
  <course>278.91</course>
  <speed>0.8828363381737298</speed>
  <fix>3d</fix>
</trkpt>
<trkpt lat="40.0708864" lon="-105.2297995">
  <ele>1583.0</ele>
  <time>2026-08-28T17:52:24Z</time>
  <course>266.43</course>
  <speed>0.83</speed>
  <fix>3d</fix>
</trkpt>
<trkpt lat="40.0708868" lon="-105.2298031">
  <ele>1583.15</ele>
  <time>2026-08-28T17:52:24Z</time>
  <course>283.32</course>
  <speed>0.8852683209061533</speed>
  <fix>3d</fix>
</trkpt>
<trkpt lat="40.0708864" lon="-105.2298016">
  <ele>1583.0</ele>
  <time>2026-08-28T17:52:24Z</time>
  <course>277.21</course>
  <speed>0.85</speed>
  <fix>3d</fix>
</trkpt>
<trkpt lat="40.070887" lon="-105.229804">
  <ele>1583.15</ele>
  <time>2026-08-28T17:52:24Z</time>
  <course>288.78</course>
  <speed>0.8886506625215557</speed>
  <fix>3d</fix>
</trkpt>
<trkpt lat="40.0708864" lon="-105.2298016">
  <ele>1583.0</ele>
  <time>2026-08-28T17:52:24Z</time>
  <course>277.21</course>
  <speed>0.85</speed>
  <fix>3d</fix>
</trkpt>
<trkpt lat="40.0708873" lon="-105.229805">
  <ele>1583.15</ele>
  <time>2026-08-28T17:52:24Z</time>
  <course>294.25</course>
  <speed>0.8863972021616494</speed>
  <fix>3d</fix>
</trkpt>
<trkpt lat="40.0708867" lon="-105.2298035">
  <ele>1583.0</ele>
  <time>2026-08-28T17:52:24Z</time>
  <course>288.1</course>
  <speed>0.85</speed>
  <fix>3d</fix>
</trkpt>
<trkpt lat="40.0708876" lon="-105.2298059">
  <ele>1583.14</ele>
  <time>2026-08-28T17:52:24Z</time>
  <course>299.68</course>
  <speed>0.8868483523128404</speed>
  <fix>3d</fix>
</trkpt>
<trkpt lat="40.0708867" lon="-105.2298035">
  <ele>1583.0</ele>
  <time>2026-08-28T17:52:24Z</time>
  <course>288.1</course>
  <speed>0.85</speed>
  <fix>3d</fix>
</trkpt>
<trkpt lat="40.070888" lon="-105.2298067">
  <ele>1583.14</ele>
  <time>2026-08-28T17:52:24Z</time>
  <course>305.15</course>
  <speed>0.8848163651289458</speed>
  <fix>3d</fix>
</trkpt>
<trkpt lat="40.0708873" lon="-105.2298053">
  <ele>1583.0</ele>
  <time>2026-08-28T17:52:24Z</time>
  <course>299.03</course>
  <speed>0.85</speed>
  <fix>3d</fix>
</trkpt>
<trkpt lat="40.0708885" lon="-105.2298075">
  <ele>1583.14</ele>
  <time>2026-08-28T17:52:24Z</time>
  <course>310.61</course>
  <speed>0.8796590248499698</speed>
  <fix>3d</fix>
</trkpt>
<trkpt lat="40.0708873" lon="-105.2298053">
  <ele>1583.0</ele>
  <time>2026-08-28T17:52:24Z</time>
  <course>299.03</course>
  <speed>0.85</speed>
  <fix>3d</fix>
</trkpt>
<trkpt lat="40.070889" lon="-105.2298082">
  <ele>1583.14</ele>
  <time>2026-08-28T17:52:24Z</time>
  <course>316.06</course>
  <speed>0.883911760301898</speed>
  <fix>3d</fix>
</trkpt>
<trkpt lat="40.0708882" lon="-105.2298069">
  <ele>1583.0</ele>
  <time>2026-08-28T17:52:24Z</time>
  <course>309.97</course>
  <speed>0.85</speed>
  <fix>3d</fix>
</trkpt>
<trkpt lat="40.0708896" lon="-105.2298089">
  <ele>1583.13</ele>
  <time>2026-08-28T17:52:24Z</time>
  <course>321.56</course>
  <speed>0.8745856161634491</speed>
  <fix>3d</fix>
</trkpt>
<trkpt lat="40.0708882" lon="-105.2298069">
  <ele>1583.0</ele>
  <time>2026-08-28T17:52:24Z</time>
  <course>309.97</course>
  <speed>0.85</speed>
  <fix>3d</fix>
</trkpt>
<trkpt lat="40.0708902" lon="-105.2298095">
  <ele>1583.13</ele>
  <time>2026-08-28T17:52:24Z</time>
  <course>327.04</course>
  <speed>0.8792041856133307</speed>
  <fix>3d</fix>
</trkpt>
<trkpt lat="40.0708893" lon="-105.2298084">
  <ele>1583.0</ele>
  <time>2026-08-28T17:52:24Z</time>
  <course>320.92</course>
  <speed>0.85</speed>
  <fix>3d</fix>
</trkpt>
<trkpt lat="40.0708909" lon="-105.22981">
  <ele>1583.13</ele>
  <time>2026-08-28T17:52:24Z</time>
  <course>332.54</course>
  <speed>0.885889383614004</speed>
  <fix>3d</fix>
</trkpt>
<trkpt lat="40.0708893" lon="-105.2298084">
  <ele>1583.0</ele>
  <time>2026-08-28T17:52:24Z</time>
  <course>320.92</course>
  <speed>0.85</speed>
  <fix>3d</fix>
</trkpt>
<trkpt lat="40.0708917" lon="-105.2298104">
  <ele>1583.13</ele>
  <time>2026-08-28T17:52:24Z</time>
  <course>338.88</course>
  <speed>0.8931965069345043</speed>
  <fix>3d</fix>
</trkpt>
<trkpt lat="40.0708906" lon="-105.2298094">
  <ele>1583.0</ele>
  <time>2026-08-28T17:52:24Z</time>
  <course>331.85</course>
  <speed>0.86</speed>
  <fix>3d</fix>
</trkpt>
<trkpt lat="40.0708925" lon="-105.2298108">
  <ele>1583.14</ele>
  <time>2026-08-28T17:52:24Z</time>
  <course>343.66</course>
  <speed>0.9109335870413386</speed>
  <fix>3d</fix>
</trkpt>
<trkpt lat="40.0708906" lon="-105.2298094">
  <ele>1583.0</ele>
  <time>2026-08-28T17:52:24Z</time>
  <course>331.85</course>
  <speed>0.86</speed>
  <fix>3d</fix>
</trkpt>
<trkpt lat="40.0708933" lon="-105.229811">
  <ele>1583.14</ele>
  <time>2026-08-28T17:52:24Z</time>
  <course>347.97</course>
  <speed>0.9317188417113823</speed>
  <fix>3d</fix>
</trkpt>
<trkpt lat="40.070892" lon="-105.2298103">
  <ele>1583.0</ele>
  <time>2026-08-28T17:52:24Z</time>
  <course>341.95</course>
  <speed>0.89</speed>
  <fix>3d</fix>
</trkpt>
<trkpt lat="40.0708941" lon="-105.2298112">
  <ele>1583.14</ele>
  <time>2026-08-28T17:52:24Z</time>
  <course>351.68</course>
  <speed>0.951892851112981</speed>
  <fix>3d</fix>
</trkpt>
<trkpt lat="40.070892" lon="-105.2298103">
  <ele>1583.0</ele>
  <time>2026-08-28T17:52:24Z</time>
  <course>341.95</course>
  <speed>0.89</speed>
  <fix>3d</fix>
</trkpt>
<trkpt lat="40.070895" lon="-105.2298113">
  <ele>1583.15</ele>
  <time>2026-08-28T17:52:24Z</time>
  <course>354.86</course>
  <speed>0.9850888284819801</speed>
  <fix>3d</fix>
</trkpt>
<trkpt lat="40.0708936" lon="-105.2298108">
  <ele>1583.0</ele>
  <time>2026-08-28T17:52:24Z</time>
  <course>350.18</course>
  <speed>0.94</speed>
  <fix>3d</fix>
</trkpt>
<trkpt lat="40.0708959" lon="-105.2298113">
  <ele>1583.15</ele>
  <time>2026-08-28T17:52:24Z</time>
  <course>357.55</course>
  <speed>1.0212247548899311</speed>
  <fix>3d</fix>
</trkpt>
<trkpt lat="40.0708936" lon="-105.2298108">
  <ele>1583.0</ele>
  <time>2026-08-28T17:52:24Z</time>
  <course>350.18</course>
  <speed>0.94</speed>
  <fix>3d</fix>
</trkpt>
<trkpt lat="40.0708968" lon="-105.2298113">
  <ele>1583.16</ele>
  <time>2026-08-28T17:52:24Z</time>
  <course>359.74</course>
  <speed>1.0700467279516348</speed>
  <fix>3d</fix>
</trkpt>
<trkpt lat="40.0708954" lon="-105.2298111">
  <ele>1583.0</ele>
  <time>2026-08-28T17:52:24Z</time>
  <course>356.27</course>
  <speed>1.01</speed>
  <fix>3d</fix>
</trkpt>
<trkpt lat="40.0708978" lon="-105.2298113">
  <ele>1583.16</ele>
  <time>2026-08-28T17:52:24Z</time>
  <course>1.52</course>
  <speed>1.120044641967453</speed>
  <fix>3d</fix>
</trkpt>
<trkpt lat="40.0708954" lon="-105.2298111">
  <ele>1583.0</ele>
  <time>2026-08-28T17:52:24Z</time>
  <course>356.27</course>
  <speed>1.01</speed>
  <fix>3d</fix>
</trkpt>
<trkpt lat="40.0708988" lon="-105.2298112">
  <ele>1583.16</ele>
  <time>2026-08-28T17:52:24Z</time>
  <course>2.97</course>
  <speed>1.1710678887237922</speed>
  <fix>3d</fix>
</trkpt>
<trkpt lat="40.0708973" lon="-105.2298112">
  <ele>1583.0</ele>
  <time>2026-08-28T17:52:24Z</time>
  <course>0.46</course>
  <speed>1.11</speed>
  <fix>3d</fix>
</trkpt>
<trkpt lat="40.0708999" lon="-105.2298111">
  <ele>1583.16</ele>
  <time>2026-08-28T17:52:24Z</time>
  <course>4.12</course>
  <speed>1.231990259701756</speed>
  <fix>3d</fix>
</trkpt>
<trkpt lat="40.0708973" lon="-105.2298112">
  <ele>1583.0</ele>
  <time>2026-08-28T17:52:24Z</time>
  <course>0.46</course>
  <speed>1.11</speed>
  <fix>3d</fix>
</trkpt>
<trkpt lat="40.070901" lon="-105.229811">
  <ele>1583.16</ele>
  <time>2026-08-28T17:52:24Z</time>
  <course>5.05</course>
  <speed>1.3038404810405297</speed>
  <fix>3d</fix>
</trkpt>
<trkpt lat="40.0708994" lon="-105.2298111">
  <ele>1583.0</ele>
  <time>2026-08-28T17:52:24Z</time>
  <course>3.21</course>
  <speed>1.22</speed>
  <fix>3d</fix>
</trkpt>
<trkpt lat="40.070902" lon="-105.2298109">
  <ele>1583.17</ele>
  <time>2026-08-28T17:52:24Z</time>
  <course>5.65</course>
  <speed>1.3553228397691819</speed>
  <fix>3d</fix>
</trkpt>
<trkpt lat="40.0708994" lon="-105.2298111">
  <ele>1583.0</ele>
  <time>2026-08-28T17:52:24Z</time>
  <course>3.21</course>
  <speed>1.22</speed>
  <fix>3d</fix>
</trkpt>
<trkpt lat="40.0709032" lon="-105.2298107">
  <ele>1583.17</ele>
  <time>2026-08-28T17:52:24Z</time>
  <course>6.25</course>
  <speed>1.4368368035375485</speed>
  <fix>3d</fix>
</trkpt>
<trkpt lat="40.0709017" lon="-105.2298109">
  <ele>1583.0</ele>
  <time>2026-08-28T17:52:24Z</time>
  <course>4.96</course>
  <speed>1.36</speed>
  <fix>3d</fix>
</trkpt>
<trkpt lat="40.0709045" lon="-105.2298106">
  <ele>1583.17</ele>
  <time>2026-08-28T17:52:24Z</time>
  <course>6.7</course>
  <speed>1.508509197850646</speed>
  <fix>3d</fix>
</trkpt>
<trkpt lat="40.0709017" lon="-105.2298109">
  <ele>1583.0</ele>
  <time>2026-08-28T17:52:24Z</time>
  <course>4.96</course>
  <speed>1.36</speed>
  <fix>3d</fix>
</trkpt>
<trkpt lat="40.0709059" lon="-105.2298104">
  <ele>1583.17</ele>
  <time>2026-08-28T17:52:24Z</time>
  <course>7.04</course>
  <speed>1.5902201105507376</speed>
  <fix>3d</fix>
</trkpt>
<trkpt lat="40.0709043" lon="-105.2298105">
  <ele>1583.0</ele>
  <time>2026-08-28T17:52:24Z</time>
  <course>6.02</course>
  <speed>1.51</speed>
  <fix>3d</fix>
</trkpt>
<trkpt lat="40.0709074" lon="-105.2298102">
  <ele>1583.17</ele>
  <time>2026-08-28T17:52:24Z</time>
  <course>7.29</course>
  <speed>1.6819334112859523</speed>
  <fix>3d</fix>
</trkpt>
<trkpt lat="40.0709043" lon="-105.2298105">
  <ele>1583.0</ele>
  <time>2026-08-28T17:52:24Z</time>
  <course>6.02</course>
  <speed>1.51</speed>
  <fix>3d</fix>
</trkpt>
<trkpt lat="40.070909" lon="-105.2298099">
  <ele>1583.17</ele>
  <time>2026-08-28T17:52:24Z</time>
  <course>7.44</course>
  <speed>1.7724841325100769</speed>
  <fix>3d</fix>
</trkpt>
<trkpt lat="40.0709071" lon="-105.2298102">
  <ele>1583.0</ele>
  <time>2026-08-28T17:52:24Z</time>
  <course>6.6</course>
  <speed>1.68</speed>
  <fix>3d</fix>
</trkpt>
<trkpt lat="40.0709106" lon="-105.2298096">
  <ele>1583.18</ele>
  <time>2026-08-28T17:52:24Z</time>
  <course>7.53</course>
  <speed>1.8642424734996252</speed>
  <fix>3d</fix>
</trkpt>
<trkpt lat="40.0709071" lon="-105.2298102">
  <ele>1583.0</ele>
  <time>2026-08-28T17:52:24Z</time>
  <course>6.6</course>
  <speed>1.68</speed>
  <fix>3d</fix>
</trkpt>
<trkpt lat="40.0709124" lon="-105.2298093">
  <ele>1583.17</ele>
  <time>2026-08-28T17:52:24Z</time>
  <course>7.57</course>
  <speed>1.9547889911701466</speed>
  <fix>3d</fix>
</trkpt>
<trkpt lat="40.0709103" lon="-105.2298097">
  <ele>1583.0</ele>
  <time>2026-08-28T17:52:24Z</time>
  <course>6.86</course>
  <speed>1.86</speed>
  <fix>3d</fix>
</trkpt>
<trkpt lat="40.0709142" lon="-105.229809">
  <ele>1583.17</ele>
  <time>2026-08-28T17:52:24Z</time>
  <course>7.57</course>
  <speed>2.0565018842685263</speed>
  <fix>3d</fix>
</trkpt>
<trkpt lat="40.0709103" lon="-105.2298097">
  <ele>1583.0</ele>
  <time>2026-08-28T17:52:24Z</time>
  <course>6.86</course>
  <speed>1.86</speed>
  <fix>3d</fix>
</trkpt>
<trkpt lat="40.0709161" lon="-105.2298087">
  <ele>1583.17</ele>
  <time>2026-08-28T17:52:24Z</time>
  <course>7.55</course>
  <speed>2.1470444802099466</speed>
  <fix>3d</fix>
</trkpt>
<trkpt lat="40.0709138" lon="-105.2298092">
  <ele>1583.0</ele>
  <time>2026-08-28T17:52:24Z</time>
  <course>6.91</course>
  <speed>2.04</speed>
  <fix>3d</fix>
</trkpt>
<trkpt lat="40.0709185" lon="-105.2298084">
  <ele>1583.17</ele>
  <time>2026-08-28T17:52:24Z</time>
  <course>7.48</course>
  <speed>2.2673552875542025</speed>
  <fix>3d</fix>
</trkpt>
<trkpt lat="40.0709138" lon="-105.2298092">
  <ele>1583.0</ele>
  <time>2026-08-28T17:52:24Z</time>
  <course>6.91</course>
  <speed>2.04</speed>
  <fix>3d</fix>
</trkpt>
<trkpt lat="40.0709206" lon="-105.229808">
  <ele>1583.17</ele>
  <time>2026-08-28T17:52:24Z</time>
  <course>7.39</course>
  <speed>2.3678260071213004</speed>
  <fix>3d</fix>
</trkpt>
<trkpt lat="40.0709176" lon="-105.2298086">
  <ele>1583.0</ele>
  <time>2026-08-28T17:52:24Z</time>
  <course>6.83</course>
  <speed>2.24</speed>
  <fix>3d</fix>
</trkpt>
<trkpt lat="40.0709228" lon="-105.2298077">
  <ele>1583.17</ele>
  <time>2026-08-28T17:52:24Z</time>
  <course>7.29</course>
  <speed>2.478225171367606</speed>
  <fix>3d</fix>
</trkpt>
<trkpt lat="40.0709176" lon="-105.2298086">
  <ele>1583.0</ele>
  <time>2026-08-28T17:52:24Z</time>
  <course>6.83</course>
  <speed>2.24</speed>
  <fix>3d</fix>
</trkpt>
<trkpt lat="40.0709251" lon="-105.2298073">
  <ele>1583.16</ele>
  <time>2026-08-28T17:52:24Z</time>
  <course>7.15</course>
  <speed>2.5775181861628056</speed>
  <fix>3d</fix>
</trkpt>
<trkpt lat="40.0709218" lon="-105.2298079">
  <ele>1583.0</ele>
  <time>2026-08-28T17:52:24Z</time>
  <course>6.64</course>
  <speed>2.44</speed>
  <fix>3d</fix>
</trkpt>
<trkpt lat="40.0709275" lon="-105.229807">
  <ele>1583.16</ele>
  <time>2026-08-28T17:52:24Z</time>
  <course>7.01</course>
  <speed>2.678002987302292</speed>
  <fix>3d</fix>
</trkpt>
<trkpt lat="40.0709218" lon="-105.2298079">
  <ele>1583.0</ele>
  <time>2026-08-28T17:52:24Z</time>
  <course>6.64</course>
  <speed>2.44</speed>
  <fix>3d</fix>
</trkpt>
<trkpt lat="40.0709299" lon="-105.2298066">
  <ele>1583.16</ele>
  <time>2026-08-28T17:52:24Z</time>
  <course>6.87</course>
  <speed>2.777354856693685</speed>
  <fix>3d</fix>
</trkpt>
<trkpt lat="40.0709264" lon="-105.2298072">
  <ele>1583.0</ele>
  <time>2026-08-28T17:52:24Z</time>
  <course>6.38</course>
  <speed>2.64</speed>
  <fix>3d</fix>
</trkpt>
<trkpt lat="40.0709325" lon="-105.2298063">
  <ele>1583.16</ele>
  <time>2026-08-28T17:52:24Z</time>
  <course>6.71</course>
  <speed>2.876751640305433</speed>
  <fix>3d</fix>
</trkpt>
<trkpt lat="40.0709264" lon="-105.2298072">
  <ele>1583.0</ele>
  <time>2026-08-28T17:52:24Z</time>
  <course>6.38</course>
  <speed>2.64</speed>
  <fix>3d</fix>
</trkpt>
<trkpt lat="40.0709351" lon="-105.2298059">
  <ele>1583.16</ele>
  <time>2026-08-28T17:52:24Z</time>
  <course>6.56</course>
  <speed>2.9772470505485433</speed>
  <fix>3d</fix>
</trkpt>
<trkpt lat="40.0709313" lon="-105.2298065">
  <ele>1583.0</ele>
  <time>2026-08-28T17:52:24Z</time>
  <course>6.08</course>
  <speed>2.84</speed>
  <fix>3d</fix>
</trkpt>
<trkpt lat="40.0709378" lon="-105.2298055">
  <ele>1583.16</ele>
  <time>2026-08-28T17:52:24Z</time>
  <course>6.4</course>
  <speed>3.0766865293688928</speed>
  <fix>3d</fix>
</trkpt>
<trkpt lat="40.0709313" lon="-105.2298065">
  <ele>1583.0</ele>
  <time>2026-08-28T17:52:24Z</time>
  <course>6.08</course>
  <speed>2.84</speed>
  <fix>3d</fix>
</trkpt>
<trkpt lat="40.0709406" lon="-105.2298052">
  <ele>1583.16</ele>
  <time>2026-08-28T17:52:24Z</time>
  <course>6.23</course>
  <speed>3.1761612049768506</speed>
  <fix>3d</fix>
</trkpt>
<trkpt lat="40.0709365" lon="-105.2298058">
  <ele>1583.0</ele>
  <time>2026-08-28T17:52:24Z</time>
  <course>5.76</course>
  <speed>3.04</speed>
  <fix>3d</fix>
</trkpt>
<trkpt lat="40.0709435" lon="-105.2298048">
  <ele>1583.16</ele>
  <time>2026-08-28T17:52:24Z</time>
  <course>6.05</course>
  <speed>3.2756678708318403</speed>
  <fix>3d</fix>
</trkpt>
<trkpt lat="40.0709365" lon="-105.2298058">
  <ele>1583.0</ele>
  <time>2026-08-28T17:52:24Z</time>
  <course>5.76</course>
  <speed>3.04</speed>
  <fix>3d</fix>
</trkpt>
<trkpt lat="40.0709458" lon="-105.2298045">
  <ele>1583.16</ele>
  <time>2026-08-28T17:52:24Z</time>
  <course>5.91</course>
  <speed>3.3552943239006616</speed>
  <fix>3d</fix>
</trkpt>
<trkpt lat="40.0709422" lon="-105.229805">
  <ele>1583.0</ele>
  <time>2026-08-28T17:52:24Z</time>
  <course>5.42</course>
  <speed>3.24</speed>
  <fix>3d</fix>
</trkpt>
<trkpt lat="40.0709489" lon="-105.2298042">
  <ele>1583.17</ele>
  <time>2026-08-28T17:52:24Z</time>
  <course>5.73</course>
  <speed>3.4548516610702693</speed>
  <fix>3d</fix>
</trkpt>
<trkpt lat="40.0709422" lon="-105.229805">
  <ele>1583.0</ele>
  <time>2026-08-28T17:52:24Z</time>
  <course>5.42</course>
  <speed>3.24</speed>
  <fix>3d</fix>
</trkpt>
<trkpt lat="40.0709521" lon="-105.2298038">
  <ele>1583.17</ele>
  <time>2026-08-28T17:52:24Z</time>
  <course>5.57</course>
  <speed>3.554433850840384</speed>
  <fix>3d</fix>
</trkpt>
<trkpt lat="40.0709481" lon="-105.2298043">
  <ele>1583.0</ele>
  <time>2026-08-28T17:52:24Z</time>
  <course>5.08</course>
  <speed>3.44</speed>
  <fix>3d</fix>
</trkpt>
<trkpt lat="40.0709553" lon="-105.2298034">
  <ele>1583.16</ele>
  <time>2026-08-28T17:52:24Z</time>
  <course>5.4</course>
  <speed>3.653176699805253</speed>
  <fix>3d</fix>
</trkpt>
<trkpt lat="40.0709481" lon="-105.2298043">
  <ele>1583.0</ele>
  <time>2026-08-28T17:52:24Z</time>
  <course>5.08</course>
  <speed>3.44</speed>
  <fix>3d</fix>
</trkpt>
<trkpt lat="40.0709586" lon="-105.2298031">
  <ele>1583.16</ele>
  <time>2026-08-28T17:52:24Z</time>
  <course>5.25</course>
  <speed>3.752825602129681</speed>
  <fix>3d</fix>
</trkpt>
<trkpt lat="40.0709544" lon="-105.2298036">
  <ele>1583.0</ele>
  <time>2026-08-28T17:52:24Z</time>
  <course>4.75</course>
  <speed>3.64</speed>
  <fix>3d</fix>
</trkpt>
<trkpt lat="40.0709621" lon="-105.2298027">
  <ele>1583.16</ele>
  <time>2026-08-28T17:52:24Z</time>
  <course>5.1</course>
  <speed>3.8524926995388324</speed>
  <fix>3d</fix>
</trkpt>
<trkpt lat="40.0709544" lon="-105.2298036">
  <ele>1583.0</ele>
  <time>2026-08-28T17:52:24Z</time>
  <course>4.75</course>
  <speed>3.64</speed>
  <fix>3d</fix>
</trkpt>
<trkpt lat="40.0709656" lon="-105.2298024">
  <ele>1583.16</ele>
  <time>2026-08-28T17:52:24Z</time>
  <course>4.94</course>
  <speed>3.952176615486712</speed>
  <fix>3d</fix>
</trkpt>
<trkpt lat="40.0709611" lon="-105.2298029">
  <ele>1583.0</ele>
  <time>2026-08-28T17:52:24Z</time>
  <course>4.43</course>
  <speed>3.83</speed>
  <fix>3d</fix>
</trkpt>
<trkpt lat="40.0709693" lon="-105.229802">
  <ele>1583.16</ele>
  <time>2026-08-28T17:52:24Z</time>
  <course>4.78</course>
  <speed>4.0511233010117085</speed>
  <fix>3d</fix>
</trkpt>
<trkpt lat="40.0709611" lon="-105.2298029">
  <ele>1583.0</ele>
  <time>2026-08-28T17:52:24Z</time>
  <course>4.43</course>
  <speed>3.83</speed>
  <fix>3d</fix>
</trkpt>
<trkpt lat="40.070973" lon="-105.2298017">
  <ele>1583.16</ele>
  <time>2026-08-28T17:52:24Z</time>
  <course>4.61</course>
  <speed>4.150855333542714</speed>
  <fix>3d</fix>
</trkpt>
<trkpt lat="40.0709681" lon="-105.2298022">
  <ele>1583.0</ele>
  <time>2026-08-28T17:52:24Z</time>
  <course>4.11</course>
  <speed>4.03</speed>
  <fix>3d</fix>
</trkpt>
<trkpt lat="40.0709775" lon="-105.2298013">
  <ele>1583.16</ele>
  <time>2026-08-28T17:52:24Z</time>
  <course>4.41</course>
  <speed>4.269859482465436</speed>
  <fix>3d</fix>
</trkpt>
<trkpt lat="40.0709681" lon="-105.2298022">
  <ele>1583.0</ele>
  <time>2026-08-28T17:52:24Z</time>
  <course>4.11</course>
  <speed>4.03</speed>
  <fix>3d</fix>
</trkpt>
<trkpt lat="40.0709814" lon="-105.2298009">
  <ele>1583.16</ele>
  <time>2026-08-28T17:52:24Z</time>
  <course>4.27</course>
  <speed>4.359655949728143</speed>
  <fix>3d</fix>
</trkpt>
<trkpt lat="40.0709756" lon="-105.2298016">
  <ele>1583.0</ele>
  <time>2026-08-28T17:52:24Z</time>
  <course>3.79</course>
  <speed>4.22</speed>
  <fix>3d</fix>
</trkpt>
<trkpt lat="40.0709854" lon="-105.2298006">
  <ele>1583.16</ele>
  <time>2026-08-28T17:52:24Z</time>
  <course>4.15</course>
  <speed>4.459439426654431</speed>
  <fix>3d</fix>
</trkpt>
<trkpt lat="40.0709756" lon="-105.2298016">
  <ele>1583.0</ele>
  <time>2026-08-28T17:52:24Z</time>
  <course>3.79</course>
  <speed>4.22</speed>
  <fix>3d</fix>
</trkpt>
<trkpt lat="40.0709895" lon="-105.2298003">
  <ele>1583.15</ele>
  <time>2026-08-28T17:52:24Z</time>
  <course>4.03</course>
  <speed>4.558607243446183</speed>
  <fix>3d</fix>
</trkpt>
<trkpt lat="40.0709833" lon="-105.229801">
  <ele>1583.0</ele>
  <time>2026-08-28T17:52:24Z</time>
  <course>3.52</course>
  <speed>4.41</speed>
  <fix>3d</fix>
</trkpt>
<trkpt lat="40.0709936" lon="-105.2298">
  <ele>1583.15</ele>
  <time>2026-08-28T17:52:24Z</time>
  <course>3.9</course>
  <speed>4.648440598738463</speed>
  <fix>3d</fix>
</trkpt>
<trkpt lat="40.0709833" lon="-105.229801">
  <ele>1583.0</ele>
  <time>2026-08-28T17:52:24Z</time>
  <course>3.52</course>
  <speed>4.41</speed>
  <fix>3d</fix>
</trkpt>
<trkpt lat="40.0709979" lon="-105.2297997">
  <ele>1583.15</ele>
  <time>2026-08-28T17:52:24Z</time>
  <course>3.77</course>
  <speed>4.74768364573715</speed>
  <fix>3d</fix>
</trkpt>
<trkpt lat="40.0709914" lon="-105.2298003">
  <ele>1583.0</ele>
  <time>2026-08-28T17:52:24Z</time>
  <course>3.27</course>
  <speed>4.6</speed>
  <fix>3d</fix>
</trkpt>
<trkpt lat="40.0710021" lon="-105.2297994">
  <ele>1583.14</ele>
  <time>2026-08-28T17:52:24Z</time>
  <course>3.64</course>
  <speed>4.8375406975032265</speed>
  <fix>3d</fix>
</trkpt>
<trkpt lat="40.0709914" lon="-105.2298003">
  <ele>1583.0</ele>
  <time>2026-08-28T17:52:24Z</time>
  <course>3.27</course>
  <speed>4.6</speed>
  <fix>3d</fix>
</trkpt>
<trkpt lat="40.0710065" lon="-105.2297991">
  <ele>1583.14</ele>
  <time>2026-08-28T17:52:24Z</time>
  <course>3.55</course>
  <speed>4.926865129065337</speed>
  <fix>3d</fix>
</trkpt>
<trkpt lat="40.0709998" lon="-105.2297997">
  <ele>1583.0</ele>
  <time>2026-08-28T17:52:24Z</time>
  <course>3.02</course>
  <speed>4.78</speed>
  <fix>3d</fix>
</trkpt>
<trkpt lat="40.0710109" lon="-105.2297988">
  <ele>1583.14</ele>
  <time>2026-08-28T17:52:24Z</time>
  <course>3.48</course>
  <speed>4.99676895603549</speed>
  <fix>3d</fix>
</trkpt>
<trkpt lat="40.0709998" lon="-105.2297997">
  <ele>1583.0</ele>
  <time>2026-08-28T17:52:24Z</time>
  <course>3.02</course>
  <speed>4.78</speed>
  <fix>3d</fix>
</trkpt>
<trkpt lat="40.0710154" lon="-105.2297985">
  <ele>1583.14</ele>
  <time>2026-08-28T17:52:24Z</time>
  <course>3.42</course>
  <speed>5.076662289339326</speed>
  <fix>3d</fix>
</trkpt>
<trkpt lat="40.0710086" lon="-105.2297991">
  <ele>1583.0</ele>
  <time>2026-08-28T17:52:24Z</time>
  <course>2.84</course>
  <speed>4.96</speed>
  <fix>3d</fix>
</trkpt>
<trkpt lat="40.0710199" lon="-105.2297982">
  <ele>1583.13</ele>
  <time>2026-08-28T17:52:24Z</time>
  <course>3.35</course>
  <speed>5.136088005476541</speed>
  <fix>3d</fix>
</trkpt>
<trkpt lat="40.0710086" lon="-105.2297991">
  <ele>1583.0</ele>
  <time>2026-08-28T17:52:24Z</time>
  <course>2.84</course>
  <speed>4.96</speed>
  <fix>3d</fix>
</trkpt>
<trkpt lat="40.0710237" lon="-105.229798">
  <ele>1583.13</ele>
  <time>2026-08-28T17:52:24Z</time>
  <course>3.29</course>
  <speed>5.1860293095970835</speed>
  <fix>3d</fix>
</trkpt>
<trkpt lat="40.0710177" lon="-105.2297986">
  <ele>1583.0</ele>
  <time>2026-08-28T17:52:24Z</time>
  <course>2.7</course>
  <speed>5.1</speed>
  <fix>3d</fix>
</trkpt>
<trkpt lat="40.0710283" lon="-105.2297978">
  <ele>1583.13</ele>
  <time>2026-08-28T17:52:24Z</time>
  <course>3.22</course>
  <speed>5.23597173407191</speed>
  <fix>3d</fix>
</trkpt>
<trkpt lat="40.0710177" lon="-105.2297986">
  <ele>1583.0</ele>
  <time>2026-08-28T17:52:24Z</time>
  <course>2.7</course>
  <speed>5.1</speed>
  <fix>3d</fix>
</trkpt>
<trkpt lat="40.0710331" lon="-105.2297975">
  <ele>1583.14</ele>
  <time>2026-08-28T17:52:24Z</time>
  <course>3.15</course>
  <speed>5.285451730930857</speed>
  <fix>3d</fix>
</trkpt>
<trkpt lat="40.0710269" lon="-105.229798">
  <ele>1583.0</ele>
  <time>2026-08-28T17:52:24Z</time>
  <course>2.56</course>
  <speed>5.22</speed>
  <fix>3d</fix>
</trkpt>
<trkpt lat="40.0710378" lon="-105.2297972">
  <ele>1583.14</ele>
  <time>2026-08-28T17:52:24Z</time>
  <course>3.08</course>
  <speed>5.3149788334479755</speed>
  <fix>3d</fix>
</trkpt>
<trkpt lat="40.0710269" lon="-105.229798">
  <ele>1583.0</ele>
  <time>2026-08-28T17:52:24Z</time>
  <course>2.56</course>
  <speed>5.22</speed>
  <fix>3d</fix>
</trkpt>
<trkpt lat="40.0710426" lon="-105.229797">
  <ele>1583.14</ele>
  <time>2026-08-28T17:52:24Z</time>
  <course>3.01</course>
  <speed>5.324969483480633</speed>
  <fix>3d</fix>
</trkpt>
<trkpt lat="40.0710363" lon="-105.2297974">
  <ele>1583.0</ele>
  <time>2026-08-28T17:52:24Z</time>
  <course>2.42</course>
  <speed>5.29</speed>
  <fix>3d</fix>
</trkpt>
<trkpt lat="40.0710474" lon="-105.2297967">
  <ele>1583.14</ele>
  <time>2026-08-28T17:52:24Z</time>
  <course>2.93</course>
  <speed>5.334538405523013</speed>
  <fix>3d</fix>
</trkpt>
<trkpt lat="40.0710363" lon="-105.2297974">
  <ele>1583.0</ele>
  <time>2026-08-28T17:52:24Z</time>
  <course>2.42</course>
  <speed>5.29</speed>
  <fix>3d</fix>
</trkpt>
<trkpt lat="40.0710522" lon="-105.2297965">
  <ele>1583.14</ele>
  <time>2026-08-28T17:52:24Z</time>
  <course>2.86</course>
  <speed>5.334135356362829</speed>
  <fix>3d</fix>
</trkpt>
<trkpt lat="40.0710459" lon="-105.2297969">
  <ele>1583.0</ele>
  <time>2026-08-28T17:52:24Z</time>
  <course>2.28</course>
  <speed>5.31</speed>
  <fix>3d</fix>
</trkpt>
<trkpt lat="40.071057" lon="-105.2297963">
  <ele>1583.14</ele>
  <time>2026-08-28T17:52:24Z</time>
  <course>2.8</course>
  <speed>5.324143123545797</speed>
  <fix>3d</fix>
</trkpt>
<trkpt lat="40.0710459" lon="-105.2297969">
  <ele>1583.0</ele>
  <time>2026-08-28T17:52:24Z</time>
  <course>2.28</course>
  <speed>5.31</speed>
  <fix>3d</fix>
</trkpt>
<trkpt lat="40.0710618" lon="-105.229796">
  <ele>1583.15</ele>
  <time>2026-08-28T17:52:24Z</time>
  <course>2.76</course>
  <speed>5.31376514347407</speed>
  <fix>3d</fix>
</trkpt>
<trkpt lat="40.0710554" lon="-105.2297964">
  <ele>1583.0</ele>
  <time>2026-08-28T17:52:24Z</time>
  <course>2.16</course>
  <speed>5.3</speed>
  <fix>3d</fix>
</trkpt>
<trkpt lat="40.0710666" lon="-105.2297958">
  <ele>1583.15</ele>
  <time>2026-08-28T17:52:24Z</time>
  <course>2.69</course>
  <speed>5.28341745464051</speed>
  <fix>3d</fix>
</trkpt>
<trkpt lat="40.0710554" lon="-105.2297964">
  <ele>1583.0</ele>
  <time>2026-08-28T17:52:24Z</time>
  <course>2.16</course>
  <speed>5.3</speed>
  <fix>3d</fix>
</trkpt>
<trkpt lat="40.0710723" lon="-105.2297955">
  <ele>1583.15</ele>
  <time>2026-08-28T17:52:24Z</time>
  <course>2.63</course>
  <speed>5.253084807996155</speed>
  <fix>3d</fix>
</trkpt>
<trkpt lat="40.0710649" lon="-105.229796">
  <ele>1583.0</ele>
  <time>2026-08-28T17:52:24Z</time>
  <course>2.05</course>
  <speed>5.27</speed>
  <fix>3d</fix>
</trkpt>
<trkpt lat="40.071077" lon="-105.2297953">
  <ele>1583.15</ele>
  <time>2026-08-28T17:52:24Z</time>
  <course>2.59</course>
  <speed>5.223102526276887</speed>
  <fix>3d</fix>
</trkpt>
<trkpt lat="40.0710649" lon="-105.229796">
  <ele>1583.0</ele>
  <time>2026-08-28T17:52:24Z</time>
  <course>2.05</course>
  <speed>5.27</speed>
  <fix>3d</fix>
</trkpt>
<trkpt lat="40.0710817" lon="-105.2297951">
  <ele>1583.15</ele>
  <time>2026-08-28T17:52:24Z</time>
  <course>2.55</course>
  <speed>5.18278882456154</speed>
  <fix>3d</fix>
</trkpt>
<trkpt lat="40.0710744" lon="-105.2297955">
  <ele>1583.0</ele>
  <time>2026-08-28T17:52:24Z</time>
  <course>1.95</course>
  <speed>5.21</speed>
  <fix>3d</fix>
</trkpt>
<trkpt lat="40.0710863" lon="-105.229795">
  <ele>1583.15</ele>
  <time>2026-08-28T17:52:24Z</time>
  <course>2.51</course>
  <speed>5.152805061323395</speed>
  <fix>3d</fix>
</trkpt>
<trkpt lat="40.0710744" lon="-105.2297955">
  <ele>1583.0</ele>
  <time>2026-08-28T17:52:24Z</time>
  <course>1.95</course>
  <speed>5.21</speed>
  <fix>3d</fix>
</trkpt>
<trkpt lat="40.071091" lon="-105.2297948">
  <ele>1583.15</ele>
  <time>2026-08-28T17:52:24Z</time>
  <course>2.46</course>
  <speed>5.112504278726816</speed>
  <fix>3d</fix>
</trkpt>
<trkpt lat="40.0710837" lon="-105.2297952">
  <ele>1583.0</ele>
  <time>2026-08-28T17:52:24Z</time>
  <course>1.85</course>
  <speed>5.15</speed>
  <fix>3d</fix>
</trkpt>
<trkpt lat="40.0710955" lon="-105.2297946">
  <ele>1583.15</ele>
  <time>2026-08-28T17:52:24Z</time>
  <course>2.4</course>
  <speed>5.082214084432099</speed>
  <fix>3d</fix>
</trkpt>
<trkpt lat="40.0710837" lon="-105.2297952">
  <ele>1583.0</ele>
  <time>2026-08-28T17:52:24Z</time>
  <course>1.85</course>
  <speed>5.15</speed>
  <fix>3d</fix>
</trkpt>
<trkpt lat="40.0711" lon="-105.2297944">
  <ele>1583.15</ele>
  <time>2026-08-28T17:52:24Z</time>
  <course>2.36</course>
  <speed>5.042231648784098</speed>
  <fix>3d</fix>
</trkpt>
<trkpt lat="40.0710928" lon="-105.2297947">
  <ele>1583.0</ele>
  <time>2026-08-28T17:52:24Z</time>
  <course>1.75</course>
  <speed>5.08</speed>
  <fix>3d</fix>
</trkpt>
<trkpt lat="40.0711045" lon="-105.2297943">
  <ele>1583.15</ele>
  <time>2026-08-28T17:52:24Z</time>
  <course>2.32</course>
  <speed>5.011955706109143</speed>
  <fix>3d</fix>
</trkpt>
<trkpt lat="40.0710928" lon="-105.2297947">
  <ele>1583.0</ele>
  <time>2026-08-28T17:52:24Z</time>
  <course>1.75</course>
  <speed>5.08</speed>
  <fix>3d</fix>
</trkpt>
<trkpt lat="40.0711089" lon="-105.2297941">
  <ele>1583.15</ele>
  <time>2026-08-28T17:52:24Z</time>
  <course>2.28</course>
  <speed>4.98196748283246</speed>
  <fix>3d</fix>
</trkpt>
<trkpt lat="40.0711019" lon="-105.2297944">
  <ele>1583.0</ele>
  <time>2026-08-28T17:52:24Z</time>
  <course>1.67</course>
  <speed>5.02</speed>
  <fix>3d</fix>
</trkpt>
<trkpt lat="40.0711133" lon="-105.229794">
  <ele>1583.16</ele>
  <time>2026-08-28T17:52:24Z</time>
  <course>2.24</course>
  <speed>4.951706776455973</speed>
  <fix>3d</fix>
</trkpt>
<trkpt lat="40.0711019" lon="-105.2297944">
  <ele>1583.0</ele>
  <time>2026-08-28T17:52:24Z</time>
  <course>1.67</course>
  <speed>5.02</speed>
  <fix>3d</fix>
</trkpt>
<trkpt lat="40.0711177" lon="-105.2297938">
  <ele>1583.16</ele>
  <time>2026-08-28T17:52:24Z</time>
  <course>2.19</course>
  <speed>4.921717180009432</speed>
  <fix>3d</fix>
</trkpt>
<trkpt lat="40.0711109" lon="-105.2297941">
  <ele>1583.0</ele>
  <time>2026-08-28T17:52:24Z</time>
  <course>1.58</course>
  <speed>4.97</speed>
  <fix>3d</fix>
</trkpt>
<trkpt lat="40.0711212" lon="-105.2297937">
  <ele>1583.15</ele>
  <time>2026-08-28T17:52:24Z</time>
  <course>2.15</course>
  <speed>4.911466176204413</speed>
  <fix>3d</fix>
</trkpt>
<trkpt lat="40.0711109" lon="-105.2297941">
  <ele>1583.0</ele>
  <time>2026-08-28T17:52:24Z</time>
  <course>1.58</course>
  <speed>4.97</speed>
  <fix>3d</fix>
</trkpt>
<trkpt lat="40.0711255" lon="-105.2297936">
  <ele>1583.15</ele>
  <time>2026-08-28T17:52:24Z</time>
  <course>2.12</course>
  <speed>4.891472171033993</speed>
  <fix>3d</fix>
</trkpt>
<trkpt lat="40.0711198" lon="-105.2297938">
  <ele>1583.0</ele>
  <time>2026-08-28T17:52:24Z</time>
  <course>1.49</course>
  <speed>4.93</speed>
  <fix>3d</fix>
</trkpt>
<trkpt lat="40.0711299" lon="-105.2297934">
  <ele>1583.15</ele>
  <time>2026-08-28T17:52:24Z</time>
  <course>2.07</course>
  <speed>4.8812395966598485</speed>
  <fix>3d</fix>
</trkpt>
<trkpt lat="40.0711198" lon="-105.2297938">
  <ele>1583.0</ele>
  <time>2026-08-28T17:52:24Z</time>
  <course>1.49</course>
  <speed>4.93</speed>
  <fix>3d</fix>
</trkpt>
<trkpt lat="40.0711343" lon="-105.2297933">
  <ele>1583.15</ele>
  <time>2026-08-28T17:52:24Z</time>
  <course>2.03</course>
  <speed>4.871242141384474</speed>
  <fix>3d</fix>
</trkpt>
<trkpt lat="40.0711287" lon="-105.2297935">
  <ele>1583.0</ele>
  <time>2026-08-28T17:52:24Z</time>
  <course>1.41</course>
  <speed>4.91</speed>
  <fix>3d</fix>
</trkpt>
<trkpt lat="40.0711387" lon="-105.2297932">
  <ele>1583.15</ele>
  <time>2026-08-28T17:52:24Z</time>
  <course>2.01</course>
  <speed>4.861244696577205</speed>
  <fix>3d</fix>
</trkpt>
<trkpt lat="40.0711287" lon="-105.2297935">
  <ele>1583.0</ele>
  <time>2026-08-28T17:52:24Z</time>
  <course>1.41</course>
  <speed>4.91</speed>
  <fix>3d</fix>
</trkpt>
<trkpt lat="40.0711431" lon="-105.229793">
  <ele>1583.15</ele>
  <time>2026-08-28T17:52:24Z</time>
  <course>1.97</course>
  <speed>4.8610286977140955</speed>
  <fix>3d</fix>
</trkpt>
<trkpt lat="40.0711375" lon="-105.2297932">
  <ele>1583.0</ele>
  <time>2026-08-28T17:52:24Z</time>
  <course>1.33</course>
  <speed>4.89</speed>
  <fix>3d</fix>
</trkpt>
<trkpt lat="40.0711475" lon="-105.2297929">
  <ele>1583.15</ele>
  <time>2026-08-28T17:52:24Z</time>
  <course>1.92</course>
  <speed>4.8610286977140955</speed>
  <fix>3d</fix>
</trkpt>
<trkpt lat="40.0711375" lon="-105.2297932">
  <ele>1583.0</ele>
  <time>2026-08-28T17:52:24Z</time>
  <course>1.33</course>
  <speed>4.89</speed>
  <fix>3d</fix>
</trkpt>
<trkpt lat="40.0711519" lon="-105.2297928">
  <ele>1583.15</ele>
  <time>2026-08-28T17:52:24Z</time>
  <course>1.9</course>
  <speed>4.8610286977140955</speed>
  <fix>3d</fix>
</trkpt>
<trkpt lat="40.0711462" lon="-105.229793">
  <ele>1583.0</ele>
  <time>2026-08-28T17:52:24Z</time>
  <course>1.26</course>
  <speed>4.89</speed>
  <fix>3d</fix>
</trkpt>
<trkpt lat="40.0711563" lon="-105.2297927">
  <ele>1583.15</ele>
  <time>2026-08-28T17:52:24Z</time>
  <course>1.88</course>
  <speed>4.8610286977140955</speed>
  <fix>3d</fix>
</trkpt>
<trkpt lat="40.0711462" lon="-105.229793">
  <ele>1583.0</ele>
  <time>2026-08-28T17:52:24Z</time>
  <course>1.26</course>
  <speed>4.89</speed>
  <fix>3d</fix>
</trkpt>
<trkpt lat="40.0711607" lon="-105.2297926">
  <ele>1583.14</ele>
  <time>2026-08-28T17:52:24Z</time>
  <course>1.83</course>
  <speed>4.860833261900679</speed>
  <fix>3d</fix>
</trkpt>
<trkpt lat="40.0711551" lon="-105.2297927">
  <ele>1583.0</ele>
  <time>2026-08-28T17:52:24Z</time>
  <course>1.18</course>
  <speed>4.89</speed>
  <fix>3d</fix>
</trkpt>
<trkpt lat="40.071166" lon="-105.2297924">
  <ele>1583.14</ele>
  <time>2026-08-28T17:52:24Z</time>
  <course>1.78</course>
  <speed>4.870831551183022</speed>
  <fix>3d</fix>
</trkpt>
<trkpt lat="40.0711551" lon="-105.2297927">
  <ele>1583.0</ele>
  <time>2026-08-28T17:52:24Z</time>
  <course>1.18</course>
  <speed>4.89</speed>
  <fix>3d</fix>
</trkpt>
<trkpt lat="40.0711704" lon="-105.2297923">
  <ele>1583.14</ele>
  <time>2026-08-28T17:52:24Z</time>
  <course>1.75</course>
  <speed>4.88082984747471</speed>
  <fix>3d</fix>
</trkpt>
<trkpt lat="40.0711639" lon="-105.2297925">
  <ele>1583.0</ele>
  <time>2026-08-28T17:52:24Z</time>
  <course>1.1</course>
  <speed>4.9</speed>
  <fix>3d</fix>
</trkpt>
<trkpt lat="40.0711749" lon="-105.2297922">
  <ele>1583.14</ele>
  <time>2026-08-28T17:52:24Z</time>
  <course>1.73</course>
  <speed>4.880655693654286</speed>
  <fix>3d</fix>
</trkpt>
<trkpt lat="40.0711639" lon="-105.2297925">
  <ele>1583.0</ele>
  <time>2026-08-28T17:52:24Z</time>
  <course>1.1</course>
  <speed>4.9</speed>
  <fix>3d</fix>
</trkpt>
<trkpt lat="40.0711793" lon="-105.2297921">
  <ele>1583.15</ele>
  <time>2026-08-28T17:52:24Z</time>
  <course>1.69</course>
  <speed>4.890654352947057</speed>
  <fix>3d</fix>
</trkpt>
<trkpt lat="40.0711727" lon="-105.2297922">
  <ele>1583.0</ele>
  <time>2026-08-28T17:52:24Z</time>
  <course>1.03</course>
  <speed>4.91</speed>
  <fix>3d</fix>
</trkpt>
<trkpt lat="40.0711837" lon="-105.229792">
  <ele>1583.15</ele>
  <time>2026-08-28T17:52:24Z</time>
  <course>1.66</course>
  <speed>4.900653017711007</speed>
  <fix>3d</fix>
</trkpt>
<trkpt lat="40.0711727" lon="-105.2297922">
  <ele>1583.0</ele>
  <time>2026-08-28T17:52:24Z</time>
  <course>1.03</course>
  <speed>4.91</speed>
  <fix>3d</fix>
</trkpt>
<trkpt lat="40.0711882" lon="-105.2297919">
  <ele>1583.15</ele>
  <time>2026-08-28T17:52:24Z</time>
  <course>1.63</course>
  <speed>4.900653017711007</speed>
  <fix>3d</fix>
</trkpt>
<trkpt lat="40.0711815" lon="-105.2297921">
  <ele>1583.0</ele>
  <time>2026-08-28T17:52:24Z</time>
  <course>0.96</course>
  <speed>4.92</speed>
  <fix>3d</fix>
</trkpt>
<trkpt lat="40.0711926" lon="-105.2297919">
  <ele>1583.15</ele>
  <time>2026-08-28T17:52:24Z</time>
  <course>1.61</course>
  <speed>4.910651687912716</speed>
  <fix>3d</fix>
</trkpt>
<trkpt lat="40.0711815" lon="-105.2297921">
  <ele>1583.0</ele>
  <time>2026-08-28T17:52:24Z</time>
  <course>0.96</course>
  <speed>4.92</speed>
  <fix>3d</fix>
</trkpt>
<trkpt lat="40.071197" lon="-105.2297918">
  <ele>1583.15</ele>
  <time>2026-08-28T17:52:24Z</time>
  <course>1.57</course>
  <speed>4.910498956317983</speed>
  <fix>3d</fix>
</trkpt>
<trkpt lat="40.0711904" lon="-105.2297919">
  <ele>1583.0</ele>
  <time>2026-08-28T17:52:24Z</time>
  <course>0.9</course>
  <speed>4.94</speed>
  <fix>3d</fix>
</trkpt>
<trkpt lat="40.0712014" lon="-105.2297917">
  <ele>1583.15</ele>
  <time>2026-08-28T17:52:24Z</time>
  <course>1.53</course>
  <speed>4.920497942281858</speed>
  <fix>3d</fix>
</trkpt>
<trkpt lat="40.0711904" lon="-105.2297919">
  <ele>1583.0</ele>
  <time>2026-08-28T17:52:24Z</time>
  <course>0.9</course>
  <speed>4.94</speed>
  <fix>3d</fix>
</trkpt>
<trkpt lat="40.0712058" lon="-105.2297916">
  <ele>1583.15</ele>
  <time>2026-08-28T17:52:24Z</time>
  <course>1.49</course>
  <speed>4.920497942281858</speed>
  <fix>3d</fix>
</trkpt>
<trkpt lat="40.0711992" lon="-105.2297917">
  <ele>1583.0</ele>
  <time>2026-08-28T17:52:24Z</time>
  <course>0.82</course>
  <speed>4.95</speed>
  <fix>3d</fix>
</trkpt>
<trkpt lat="40.0712102" lon="-105.2297915">
  <ele>1583.15</ele>
  <time>2026-08-28T17:52:24Z</time>
  <course>1.47</course>
  <speed>4.930496932358847</speed>
  <fix>3d</fix>
</trkpt>
<trkpt lat="40.0711992" lon="-105.2297917">
  <ele>1583.0</ele>
  <time>2026-08-28T17:52:24Z</time>
  <course>0.82</course>
  <speed>4.95</speed>
  <fix>3d</fix>
</trkpt>
<trkpt lat="40.0712138" lon="-105.2297915">
  <ele>1583.15</ele>
  <time>2026-08-28T17:52:24Z</time>
  <course>1.46</course>
  <speed>4.930365098042944</speed>
  <fix>3d</fix>
</trkpt>
<trkpt lat="40.0712082" lon="-105.2297916">
  <ele>1583.0</ele>
  <time>2026-08-28T17:52:24Z</time>
  <course>0.76</course>
  <speed>4.97</speed>
  <fix>3d</fix>
</trkpt>
<trkpt lat="40.0712183" lon="-105.2297914">
  <ele>1583.15</ele>
  <time>2026-08-28T17:52:24Z</time>
  <course>1.42</course>
  <speed>4.940364359032642</speed>
  <fix>3d</fix>
</trkpt>
<trkpt lat="40.0712082" lon="-105.2297916">
  <ele>1583.0</ele>
  <time>2026-08-28T17:52:24Z</time>
  <course>0.76</course>
  <speed>4.97</speed>
  <fix>3d</fix>
</trkpt>
<trkpt lat="40.0712227" lon="-105.2297913">
  <ele>1583.15</ele>
  <time>2026-08-28T17:52:24Z</time>
  <course>1.38</course>
  <speed>4.940364359032642</speed>
  <fix>3d</fix>
</trkpt>
<trkpt lat="40.0712171" lon="-105.2297914">
  <ele>1583.0</ele>
  <time>2026-08-28T17:52:24Z</time>
  <course>0.69</course>
  <speed>4.98</speed>
  <fix>3d</fix>
</trkpt>
<trkpt lat="40.0712272" lon="-105.2297912">
  <ele>1583.15</ele>
  <time>2026-08-28T17:52:24Z</time>
  <course>1.37</course>
  <speed>4.9503636230079096</speed>
  <fix>3d</fix>
</trkpt>
<trkpt lat="40.0712171" lon="-105.2297914">
  <ele>1583.0</ele>
  <time>2026-08-28T17:52:24Z</time>
  <course>0.69</course>
  <speed>4.98</speed>
  <fix>3d</fix>
</trkpt>
<trkpt lat="40.0712317" lon="-105.2297912">
  <ele>1583.15</ele>
  <time>2026-08-28T17:52:24Z</time>
  <course>1.35</course>
  <speed>4.960362889950694</speed>
  <fix>3d</fix>
</trkpt>
<trkpt lat="40.0712261" lon="-105.2297912">
  <ele>1583.0</ele>
  <time>2026-08-28T17:52:24Z</time>
  <course>0.63</course>
  <speed>4.99</speed>
  <fix>3d</fix>
</trkpt>
<trkpt lat="40.0712362" lon="-105.2297911">
  <ele>1583.15</ele>
  <time>2026-08-28T17:52:24Z</time>
  <course>1.31</course>
  <speed>4.960252009726926</speed>
  <fix>3d</fix>
</trkpt>
<trkpt lat="40.0712261" lon="-105.2297912">
  <ele>1583.0</ele>
  <time>2026-08-28T17:52:24Z</time>
  <course>0.63</course>
  <speed>4.99</speed>
  <fix>3d</fix>
</trkpt>
<trkpt lat="40.0712407" lon="-105.229791">
  <ele>1583.15</ele>
  <time>2026-08-28T17:52:24Z</time>
  <course>1.29</course>
  <speed>4.970251502690784</speed>
  <fix>3d</fix>
</trkpt>
<trkpt lat="40.071235" lon="-105.2297911">
  <ele>1583.0</ele>
  <time>2026-08-28T17:52:24Z</time>
  <course>0.58</course>
  <speed>5.0</speed>
  <fix>3d</fix>
</trkpt>
<trkpt lat="40.0712453" lon="-105.229791">
  <ele>1583.15</ele>
  <time>2026-08-28T17:52:24Z</time>
  <course>1.27</course>
  <speed>4.970251502690784</speed>
  <fix>3d</fix>
</trkpt>
<trkpt lat="40.071235" lon="-105.2297911">
  <ele>1583.0</ele>
  <time>2026-08-28T17:52:24Z</time>
  <course>0.58</course>
  <speed>5.0</speed>
  <fix>3d</fix>
</trkpt>
<trkpt lat="40.0712498" lon="-105.2297909">
  <ele>1583.15</ele>
  <time>2026-08-28T17:52:24Z</time>
  <course>1.25</course>
  <speed>4.970251502690784</speed>
  <fix>3d</fix>
</trkpt>
<trkpt lat="40.0712441" lon="-105.229791">
  <ele>1583.0</ele>
  <time>2026-08-28T17:52:24Z</time>
  <course>0.53</course>
  <speed>5.01</speed>
  <fix>3d</fix>
</trkpt>
<trkpt lat="40.0712543" lon="-105.2297909">
  <ele>1583.15</ele>
  <time>2026-08-28T17:52:24Z</time>
  <course>1.25</course>
  <speed>4.970251502690784</speed>
  <fix>3d</fix>
</trkpt>
<trkpt lat="40.0712441" lon="-105.229791">
  <ele>1583.0</ele>
  <time>2026-08-28T17:52:24Z</time>
  <course>0.53</course>
  <speed>5.01</speed>
  <fix>3d</fix>
</trkpt>
<trkpt lat="40.0712597" lon="-105.2297908">
  <ele>1583.15</ele>
  <time>2026-08-28T17:52:24Z</time>
  <course>1.26</course>
  <speed>4.960252009726926</speed>
  <fix>3d</fix>
</trkpt>
<trkpt lat="40.071253" lon="-105.2297909">
  <ele>1583.0</ele>
  <time>2026-08-28T17:52:24Z</time>
  <course>0.5</course>
  <speed>5.0</speed>
  <fix>3d</fix>
</trkpt>
<trkpt lat="40.0712642" lon="-105.2297907">
  <ele>1583.15</ele>
  <time>2026-08-28T17:52:24Z</time>
  <course>1.26</course>
  <speed>4.95025251881154</speed>
  <fix>3d</fix>
</trkpt>
<trkpt lat="40.071253" lon="-105.2297909">
  <ele>1583.0</ele>
  <time>2026-08-28T17:52:24Z</time>
  <course>0.5</course>
  <speed>5.0</speed>
  <fix>3d</fix>
</trkpt>
<trkpt lat="40.0712687" lon="-105.2297907">
  <ele>1583.15</ele>
  <time>2026-08-28T17:52:24Z</time>
  <course>1.26</course>
  <speed>4.920254058481127</speed>
  <fix>3d</fix>
</trkpt>
<trkpt lat="40.071262" lon="-105.2297908">
  <ele>1583.0</ele>
  <time>2026-08-28T17:52:24Z</time>
  <course>0.5</course>
  <speed>4.98</speed>
  <fix>3d</fix>
</trkpt>
<trkpt lat="40.0712732" lon="-105.2297906">
  <ele>1583.15</ele>
  <time>2026-08-28T17:52:24Z</time>
  <course>1.27</course>
  <speed>4.890255617040892</speed>
  <fix>3d</fix>
</trkpt>
<trkpt lat="40.071262" lon="-105.2297908">
  <ele>1583.0</ele>
  <time>2026-08-28T17:52:24Z</time>
  <course>0.5</course>
  <speed>4.98</speed>
  <fix>3d</fix>
</trkpt>
<trkpt lat="40.0712776" lon="-105.2297906">
  <ele>1583.15</ele>
  <time>2026-08-28T17:52:24Z</time>
  <course>1.27</course>
  <speed>4.85025772511111</speed>
  <fix>3d</fix>
</trkpt>
<trkpt lat="40.0712709" lon="-105.2297907">
  <ele>1583.0</ele>
  <time>2026-08-28T17:52:24Z</time>
  <course>0.5</course>
  <speed>4.93</speed>
  <fix>3d</fix>
</trkpt>
<trkpt lat="40.0712819" lon="-105.2297905">
  <ele>1583.15</ele>
  <time>2026-08-28T17:52:24Z</time>
  <course>1.27</course>
  <speed>4.800260409602796</speed>
  <fix>3d</fix>
</trkpt>
<trkpt lat="40.0712709" lon="-105.2297907">
  <ele>1583.0</ele>
  <time>2026-08-28T17:52:24Z</time>
  <course>0.5</course>
  <speed>4.93</speed>
  <fix>3d</fix>
</trkpt>
<trkpt lat="40.0712862" lon="-105.2297905">
  <ele>1583.15</ele>
  <time>2026-08-28T17:52:24Z</time>
  <course>1.27</course>
  <speed>4.730264263230967</speed>
  <fix>3d</fix>
</trkpt>
<trkpt lat="40.0712797" lon="-105.2297906">
  <ele>1583.0</ele>
  <time>2026-08-28T17:52:24Z</time>
  <course>0.5</course>
  <speed>4.84</speed>
  <fix>3d</fix>
</trkpt>
<trkpt lat="40.0712904" lon="-105.2297904">
  <ele>1583.15</ele>
  <time>2026-08-28T17:52:24Z</time>
  <course>1.28</course>
  <speed>4.650268809434568</speed>
  <fix>3d</fix>
</trkpt>
<trkpt lat="40.0712797" lon="-105.2297906">
  <ele>1583.0</ele>
  <time>2026-08-28T17:52:24Z</time>
  <course>0.5</course>
  <speed>4.84</speed>
  <fix>3d</fix>
</trkpt>
<trkpt lat="40.0712945" lon="-105.2297904">
  <ele>1583.15</ele>
  <time>2026-08-28T17:52:24Z</time>
  <course>1.28</course>
  <speed>4.570273514790991</speed>
  <fix>3d</fix>
</trkpt>
<trkpt lat="40.0712883" lon="-105.2297905">
  <ele>1583.0</ele>
  <time>2026-08-28T17:52:24Z</time>
  <course>0.5</course>
  <speed>4.7</speed>
  <fix>3d</fix>
</trkpt>
<trkpt lat="40.0712985" lon="-105.2297903">
  <ele>1583.15</ele>
  <time>2026-08-28T17:52:24Z</time>
  <course>1.28</course>
  <speed>4.47017896733453</speed>
  <fix>3d</fix>
</trkpt>
<trkpt lat="40.0712883" lon="-105.2297905">
  <ele>1583.0</ele>
  <time>2026-08-28T17:52:24Z</time>
  <course>0.5</course>
  <speed>4.7</speed>
  <fix>3d</fix>
</trkpt>
<trkpt lat="40.0713025" lon="-105.2297903">
  <ele>1583.15</ele>
  <time>2026-08-28T17:52:24Z</time>
  <course>1.28</course>
  <speed>4.360183482377777</speed>
  <fix>3d</fix>
</trkpt>
<trkpt lat="40.0712966" lon="-105.2297904">
  <ele>1583.0</ele>
  <time>2026-08-28T17:52:24Z</time>
  <course>0.5</course>
  <speed>4.53</speed>
  <fix>3d</fix>
</trkpt>
<trkpt lat="40.0713056" lon="-105.2297902">
  <ele>1583.15</ele>
  <time>2026-08-28T17:52:24Z</time>
  <course>1.28</course>
  <speed>4.270187349519925</speed>
  <fix>3d</fix>
</trkpt>
<trkpt lat="40.0712966" lon="-105.2297904">
  <ele>1583.0</ele>
  <time>2026-08-28T17:52:24Z</time>
  <course>0.5</course>
  <speed>4.53</speed>
  <fix>3d</fix>
</trkpt>
<trkpt lat="40.0713094" lon="-105.2297902">
  <ele>1583.14</ele>
  <time>2026-08-28T17:52:24Z</time>
  <course>1.29</course>
  <speed>4.160192303247531</speed>
  <fix>3d</fix>
</trkpt>
<trkpt lat="40.0713046" lon="-105.2297903">
  <ele>1583.0</ele>
  <time>2026-08-28T17:52:24Z</time>
  <course>0.5</course>
  <speed>4.32</speed>
  <fix>3d</fix>
</trkpt>
<trkpt lat="40.0713131" lon="-105.2297902">
  <ele>1583.15</ele>
  <time>2026-08-28T17:52:24Z</time>
  <course>1.29</course>
  <speed>4.040198014949268</speed>
  <fix>3d</fix>
</trkpt>
<trkpt lat="40.0713046" lon="-105.2297903">
  <ele>1583.0</ele>
  <time>2026-08-28T17:52:24Z</time>
  <course>0.5</course>
  <speed>4.32</speed>
  <fix>3d</fix>
</trkpt>
<trkpt lat="40.0713166" lon="-105.2297901">
  <ele>1583.15</ele>
  <time>2026-08-28T17:52:24Z</time>
  <course>1.29</course>
  <speed>3.920114794237536</speed>
  <fix>3d</fix>
</trkpt>
<trkpt lat="40.0713121" lon="-105.2297902">
  <ele>1583.0</ele>
  <time>2026-08-28T17:52:24Z</time>
  <course>0.5</course>
  <speed>4.09</speed>
  <fix>3d</fix>
</trkpt>
<trkpt lat="40.0713201" lon="-105.2297901">
  <ele>1583.15</ele>
  <time>2026-08-28T17:52:24Z</time>
  <course>1.3</course>
  <speed>3.790118731649445</speed>
  <fix>3d</fix>
</trkpt>
<trkpt lat="40.0713121" lon="-105.2297902">
  <ele>1583.0</ele>
  <time>2026-08-28T17:52:24Z</time>
  <course>0.5</course>
  <speed>4.09</speed>
  <fix>3d</fix>
</trkpt>
<trkpt lat="40.0713235" lon="-105.2297901">
  <ele>1583.15</ele>
  <time>2026-08-28T17:52:24Z</time>
  <course>1.3</course>
  <speed>3.6601229487545908</speed>
  <fix>3d</fix>
</trkpt>
<trkpt lat="40.0713193" lon="-105.2297901">
  <ele>1583.0</ele>
  <time>2026-08-28T17:52:24Z</time>
  <course>0.5</course>
  <speed>3.85</speed>
  <fix>3d</fix>
</trkpt>
<trkpt lat="40.0713268" lon="-105.22979">
  <ele>1583.15</ele>
  <time>2026-08-28T17:52:24Z</time>
  <course>1.3</course>
  <speed>3.540127116361784</speed>
  <fix>3d</fix>
</trkpt>
<trkpt lat="40.0713193" lon="-105.2297901">
  <ele>1583.0</ele>
  <time>2026-08-28T17:52:24Z</time>
  <course>0.5</course>
  <speed>3.85</speed>
  <fix>3d</fix>
</trkpt>
<trkpt lat="40.07133" lon="-105.22979">
  <ele>1583.15</ele>
  <time>2026-08-28T17:52:24Z</time>
  <course>1.3</course>
  <speed>3.4201315764163223</speed>
  <fix>3d</fix>
</trkpt>
<trkpt lat="40.071326" lon="-105.22979">
  <ele>1583.0</ele>
  <time>2026-08-28T17:52:24Z</time>
  <course>0.5</course>
  <speed>3.6</speed>
  <fix>3d</fix>
</trkpt>
<trkpt lat="40.071333" lon="-105.22979">
  <ele>1583.15</ele>
  <time>2026-08-28T17:52:24Z</time>
  <course>1.31</course>
  <speed>3.3101359488697737</speed>
  <fix>3d</fix>
</trkpt>
<trkpt lat="40.071326" lon="-105.22979">
  <ele>1583.0</ele>
  <time>2026-08-28T17:52:24Z</time>
  <course>0.5</course>
  <speed>3.6</speed>
  <fix>3d</fix>
</trkpt>
<trkpt lat="40.071336" lon="-105.2297899">
  <ele>1583.15</ele>
  <time>2026-08-28T17:52:24Z</time>
  <course>1.31</course>
  <speed>3.210062304691297</speed>
  <fix>3d</fix>
</trkpt>
<trkpt lat="40.0713322" lon="-105.22979">
  <ele>1583.0</ele>
  <time>2026-08-28T17:52:24Z</time>
  <course>0.5</course>
  <speed>3.37</speed>
  <fix>3d</fix>
</trkpt>
<trkpt lat="40.0713394" lon="-105.2297899">
  <ele>1583.15</ele>
  <time>2026-08-28T17:52:24Z</time>
  <course>1.31</course>
  <speed>3.0800649343804425</speed>
  <fix>3d</fix>
</trkpt>
<trkpt lat="40.0713322" lon="-105.22979">
  <ele>1583.0</ele>
  <time>2026-08-28T17:52:24Z</time>
  <course>0.5</course>
  <speed>3.37</speed>
  <fix>3d</fix>
</trkpt>
<trkpt lat="40.0713422" lon="-105.2297899">
  <ele>1583.15</ele>
  <time>2026-08-28T17:52:24Z</time>
  <course>1.3</course>
  <speed>2.980067113338221</speed>
  <fix>3d</fix>
</trkpt>
<trkpt lat="40.0713381" lon="-105.2297899">
  <ele>1583.0</ele>
  <time>2026-08-28T17:52:24Z</time>
  <course>0.5</course>
  <speed>3.16</speed>
  <fix>3d</fix>
</trkpt>
<trkpt lat="40.0713448" lon="-105.2297898">
  <ele>1583.15</ele>
  <time>2026-08-28T17:52:24Z</time>
  <course>1.26</course>
  <speed>2.8700696855651433</speed>
  <fix>3d</fix>
</trkpt>
<trkpt lat="40.0713381" lon="-105.2297899">
  <ele>1583.0</ele>
  <time>2026-08-28T17:52:24Z</time>
  <course>0.5</course>
  <speed>3.16</speed>
  <fix>3d</fix>
</trkpt>
<trkpt lat="40.0713474" lon="-105.2297898">
  <ele>1583.14</ele>
  <time>2026-08-28T17:52:24Z</time>
  <course>1.22</course>
  <speed>2.770018050482704</speed>
  <fix>3d</fix>
</trkpt>
<trkpt lat="40.0713436" lon="-105.2297899">
  <ele>1583.0</ele>
  <time>2026-08-28T17:52:24Z</time>
  <course>0.46</course>
  <speed>2.95</speed>
  <fix>3d</fix>
</trkpt>
<trkpt lat="40.0713499" lon="-105.2297898">
  <ele>1583.14</ele>
  <time>2026-08-28T17:52:24Z</time>
  <course>1.19</course>
  <speed>2.6700187265260893</speed>
  <fix>3d</fix>
</trkpt>
<trkpt lat="40.0713436" lon="-105.2297899">
  <ele>1583.0</ele>
  <time>2026-08-28T17:52:24Z</time>
  <course>0.46</course>
  <speed>2.95</speed>
  <fix>3d</fix>
</trkpt>
<trkpt lat="40.0713523" lon="-105.2297898">
  <ele>1583.15</ele>
  <time>2026-08-28T17:52:24Z</time>
  <course>1.15</course>
  <speed>2.590019304947359</speed>
  <fix>3d</fix>
</trkpt>
<trkpt lat="40.0713487" lon="-105.2297898">
  <ele>1583.0</ele>
  <time>2026-08-28T17:52:24Z</time>
  <course>0.38</course>
  <speed>2.76</speed>
  <fix>3d</fix>
</trkpt>
<trkpt lat="40.0713546" lon="-105.2297898">
  <ele>1583.15</ele>
  <time>2026-08-28T17:52:24Z</time>
  <course>1.12</course>
  <speed>2.510019920239678</speed>
  <fix>3d</fix>
</trkpt>
<trkpt lat="40.0713487" lon="-105.2297898">
  <ele>1583.0</ele>
  <time>2026-08-28T17:52:24Z</time>
  <course>0.38</course>
  <speed>2.76</speed>
  <fix>3d</fix>
</trkpt>
<trkpt lat="40.0713568" lon="-105.2297898">
  <ele>1583.15</ele>
  <time>2026-08-28T17:52:24Z</time>
  <course>1.06</course>
  <speed>2.4400204917172315</speed>
  <fix>3d</fix>
</trkpt>
<trkpt lat="40.0713536" lon="-105.2297897">
  <ele>1583.0</ele>
  <time>2026-08-28T17:52:24Z</time>
  <course>0.3</course>
  <speed>2.59</speed>
  <fix>3d</fix>
</trkpt>
<trkpt lat="40.071359" lon="-105.2297898">
  <ele>1583.15</ele>
  <time>2026-08-28T17:52:24Z</time>
  <course>0.99</course>
  <speed>2.39</speed>
  <fix>3d</fix>
</trkpt>
<trkpt lat="40.0713536" lon="-105.2297897">
  <ele>1583.0</ele>
  <time>2026-08-28T17:52:24Z</time>
  <course>0.3</course>
  <speed>2.59</speed>
  <fix>3d</fix>
</trkpt>
<trkpt lat="40.0713611" lon="-105.2297897">
  <ele>1583.15</ele>
  <time>2026-08-28T17:52:24Z</time>
  <course>0.93</course>
  <speed>2.34</speed>
  <fix>3d</fix>
</trkpt>
<trkpt lat="40.0713582" lon="-105.2297897">
  <ele>1583.0</ele>
  <time>2026-08-28T17:52:24Z</time>
  <course>0.18</course>
  <speed>2.47</speed>
  <fix>3d</fix>
</trkpt>
<trkpt lat="40.0713632" lon="-105.2297897">
  <ele>1583.15</ele>
  <time>2026-08-28T17:52:24Z</time>
  <course>0.87</course>
  <speed>2.31</speed>
  <fix>3d</fix>
</trkpt>
<trkpt lat="40.0713582" lon="-105.2297897">
  <ele>1583.0</ele>
  <time>2026-08-28T17:52:24Z</time>
  <course>0.18</course>
  <speed>2.47</speed>
  <fix>3d</fix>
</trkpt>
<trkpt lat="40.0713649" lon="-105.2297897">
  <ele>1583.15</ele>
  <time>2026-08-28T17:52:24Z</time>
  <course>0.82</course>
  <speed>2.3</speed>
  <fix>3d</fix>
</trkpt>
<trkpt lat="40.0713625" lon="-105.2297897">
  <ele>1583.0</ele>
  <time>2026-08-28T17:52:24Z</time>
  <course>0.05</course>
  <speed>2.4</speed>
  <fix>3d</fix>
</trkpt>
<trkpt lat="40.071367" lon="-105.2297897">
  <ele>1583.15</ele>
  <time>2026-08-28T17:52:24Z</time>
  <course>0.75</course>
  <speed>2.3</speed>
  <fix>3d</fix>
</trkpt>
<trkpt lat="40.0713625" lon="-105.2297897">
  <ele>1583.0</ele>
  <time>2026-08-28T17:52:24Z</time>
  <course>0.05</course>
  <speed>2.4</speed>
  <fix>3d</fix>
</trkpt>
<trkpt lat="40.0713691" lon="-105.2297897">
  <ele>1583.15</ele>
  <time>2026-08-28T17:52:24Z</time>
  <course>0.69</course>
  <speed>2.31</speed>
  <fix>3d</fix>
</trkpt>
<trkpt lat="40.0713668" lon="-105.2297897">
  <ele>1583.0</ele>
  <time>2026-08-28T17:52:24Z</time>
  <course>359.92</course>
  <speed>2.37</speed>
  <fix>3d</fix>
</trkpt>
<trkpt lat="40.0713713" lon="-105.2297897">
  <ele>1583.15</ele>
  <time>2026-08-28T17:52:24Z</time>
  <course>0.63</course>
  <speed>2.34</speed>
  <fix>3d</fix>
</trkpt>
<trkpt lat="40.0713668" lon="-105.2297897">
  <ele>1583.0</ele>
  <time>2026-08-28T17:52:24Z</time>
  <course>359.92</course>
  <speed>2.37</speed>
  <fix>3d</fix>
</trkpt>
<trkpt lat="40.0713734" lon="-105.2297897">
  <ele>1583.15</ele>
  <time>2026-08-28T17:52:24Z</time>
  <course>0.59</course>
  <speed>2.38</speed>
  <fix>3d</fix>
</trkpt>
<trkpt lat="40.0713711" lon="-105.2297897">
  <ele>1583.0</ele>
  <time>2026-08-28T17:52:24Z</time>
  <course>359.8</course>
  <speed>2.41</speed>
  <fix>3d</fix>
</trkpt>
<trkpt lat="40.0713757" lon="-105.2297897">
  <ele>1583.15</ele>
  <time>2026-08-28T17:52:24Z</time>
  <course>0.56</course>
  <speed>2.43</speed>
  <fix>3d</fix>
</trkpt>
<trkpt lat="40.0713711" lon="-105.2297897">
  <ele>1583.0</ele>
  <time>2026-08-28T17:52:24Z</time>
  <course>359.8</course>
  <speed>2.41</speed>
  <fix>3d</fix>
</trkpt>
<trkpt lat="40.071378" lon="-105.2297897">
  <ele>1583.15</ele>
  <time>2026-08-28T17:52:24Z</time>
  <course>0.52</course>
  <speed>2.5</speed>
  <fix>3d</fix>
</trkpt>
<trkpt lat="40.0713755" lon="-105.2297897">
  <ele>1583.0</ele>
  <time>2026-08-28T17:52:24Z</time>
  <course>359.71</course>
  <speed>2.5</speed>
  <fix>3d</fix>
</trkpt>
<trkpt lat="40.0713804" lon="-105.2297897">
  <ele>1583.15</ele>
  <time>2026-08-28T17:52:24Z</time>
  <course>0.49</course>
  <speed>2.59</speed>
  <fix>3d</fix>
</trkpt>
<trkpt lat="40.0713755" lon="-105.2297897">
  <ele>1583.0</ele>
  <time>2026-08-28T17:52:24Z</time>
  <course>359.71</course>
  <speed>2.5</speed>
  <fix>3d</fix>
</trkpt>
<trkpt lat="40.0713828" lon="-105.2297897">
  <ele>1583.15</ele>
  <time>2026-08-28T17:52:24Z</time>
  <course>0.46</course>
  <speed>2.68</speed>
  <fix>3d</fix>
</trkpt>
<trkpt lat="40.0713802" lon="-105.2297897">
  <ele>1583.0</ele>
  <time>2026-08-28T17:52:24Z</time>
  <course>359.64</course>
  <speed>2.65</speed>
  <fix>3d</fix>
</trkpt>
<trkpt lat="40.0713859" lon="-105.2297897">
  <ele>1583.15</ele>
  <time>2026-08-28T17:52:24Z</time>
  <course>0.41</course>
  <speed>2.82</speed>
  <fix>3d</fix>
</trkpt>
<trkpt lat="40.0713802" lon="-105.2297897">
  <ele>1583.0</ele>
  <time>2026-08-28T17:52:24Z</time>
  <course>359.64</course>
  <speed>2.65</speed>
  <fix>3d</fix>
</trkpt>
<trkpt lat="40.0713885" lon="-105.2297897">
  <ele>1583.16</ele>
  <time>2026-08-28T17:52:24Z</time>
  <course>0.37</course>
  <speed>2.94</speed>
  <fix>3d</fix>
</trkpt>
<trkpt lat="40.0713851" lon="-105.2297897">
  <ele>1583.0</ele>
  <time>2026-08-28T17:52:24Z</time>
  <course>359.57</course>
  <speed>2.85</speed>
  <fix>3d</fix>
</trkpt>
<trkpt lat="40.0713913" lon="-105.2297897">
  <ele>1583.16</ele>
  <time>2026-08-28T17:52:24Z</time>
  <course>0.35</course>
  <speed>3.07</speed>
  <fix>3d</fix>
</trkpt>
<trkpt lat="40.0713851" lon="-105.2297897">
  <ele>1583.0</ele>
  <time>2026-08-28T17:52:24Z</time>
  <course>359.57</course>
  <speed>2.85</speed>
  <fix>3d</fix>
</trkpt>
<trkpt lat="40.0713942" lon="-105.2297897">
  <ele>1583.16</ele>
  <time>2026-08-28T17:52:24Z</time>
  <course>0.33</course>
  <speed>3.21</speed>
  <fix>3d</fix>
</trkpt>
<trkpt lat="40.0713904" lon="-105.2297898">
  <ele>1583.0</ele>
  <time>2026-08-28T17:52:24Z</time>
  <course>359.5</course>
  <speed>3.09</speed>
  <fix>3d</fix>
</trkpt>
<trkpt lat="40.0713973" lon="-105.2297897">
  <ele>1583.16</ele>
  <time>2026-08-28T17:52:24Z</time>
  <course>0.31</course>
  <speed>3.35</speed>
  <fix>3d</fix>
</trkpt>
<trkpt lat="40.0713904" lon="-105.2297898">
  <ele>1583.0</ele>
  <time>2026-08-28T17:52:24Z</time>
  <course>359.5</course>
  <speed>3.09</speed>
  <fix>3d</fix>
</trkpt>
<trkpt lat="40.0714004" lon="-105.2297897">
  <ele>1583.16</ele>
  <time>2026-08-28T17:52:24Z</time>
  <course>0.29</course>
  <speed>3.5</speed>
  <fix>3d</fix>
</trkpt>
<trkpt lat="40.0713962" lon="-105.2297899">
  <ele>1583.0</ele>
  <time>2026-08-28T17:52:24Z</time>
  <course>359.46</course>
  <speed>3.36</speed>
  <fix>3d</fix>
</trkpt>
<trkpt lat="40.0714037" lon="-105.2297897">
  <ele>1583.16</ele>
  <time>2026-08-28T17:52:24Z</time>
  <course>0.29</course>
  <speed>3.64</speed>
  <fix>3d</fix>
</trkpt>
<trkpt lat="40.0713962" lon="-105.2297899">
  <ele>1583.0</ele>
  <time>2026-08-28T17:52:24Z</time>
  <course>359.46</course>
  <speed>3.36</speed>
  <fix>3d</fix>
</trkpt>
<trkpt lat="40.071407" lon="-105.2297897">
  <ele>1583.16</ele>
  <time>2026-08-28T17:52:24Z</time>
  <course>0.29</course>
  <speed>3.79</speed>
  <fix>3d</fix>
</trkpt>
<trkpt lat="40.0714025" lon="-105.2297899">
  <ele>1583.0</ele>
  <time>2026-08-28T17:52:24Z</time>
  <course>359.44</course>
  <speed>3.64</speed>
  <fix>3d</fix>
</trkpt>
<trkpt lat="40.0714106" lon="-105.2297897">
  <ele>1583.15</ele>
  <time>2026-08-28T17:52:24Z</time>
  <course>0.29</course>
  <speed>3.93</speed>
  <fix>3d</fix>
</trkpt>
<trkpt lat="40.0714025" lon="-105.2297899">
  <ele>1583.0</ele>
  <time>2026-08-28T17:52:24Z</time>
  <course>359.44</course>
  <speed>3.64</speed>
  <fix>3d</fix>
</trkpt>
<trkpt lat="40.0714142" lon="-105.2297897">
  <ele>1583.15</ele>
  <time>2026-08-28T17:52:24Z</time>
  <course>0.29</course>
  <speed>4.080012254883556</speed>
  <fix>3d</fix>
</trkpt>
<trkpt lat="40.0714093" lon="-105.22979">
  <ele>1583.0</ele>
  <time>2026-08-28T17:52:24Z</time>
  <course>359.43</course>
  <speed>3.93</speed>
  <fix>3d</fix>
</trkpt>
<trkpt lat="40.071418" lon="-105.2297898">
  <ele>1583.14</ele>
  <time>2026-08-28T17:52:24Z</time>
  <course>0.28</course>
  <speed>4.220011848324599</speed>
  <fix>3d</fix>
</trkpt>
<trkpt lat="40.0714093" lon="-105.22979">
  <ele>1583.0</ele>
  <time>2026-08-28T17:52:24Z</time>
  <course>359.43</course>
  <speed>3.93</speed>
  <fix>3d</fix>
</trkpt>
<trkpt lat="40.0714219" lon="-105.2297898">
  <ele>1583.14</ele>
  <time>2026-08-28T17:52:24Z</time>
  <course>0.28</course>
  <speed>4.360011467874826</speed>
  <fix>3d</fix>
</trkpt>
<trkpt lat="40.0714167" lon="-105.2297901">
  <ele>1583.0</ele>
  <time>2026-08-28T17:52:24Z</time>
  <course>359.43</course>
  <speed>4.21</speed>
  <fix>3d</fix>
</trkpt>
<trkpt lat="40.0714251" lon="-105.2297898">
  <ele>1583.13</ele>
  <time>2026-08-28T17:52:24Z</time>
  <course>0.27</course>
  <speed>4.470011185668331</speed>
  <fix>3d</fix>
</trkpt>
<trkpt lat="40.0714167" lon="-105.2297901">
  <ele>1583.0</ele>
  <time>2026-08-28T17:52:24Z</time>
  <course>359.43</course>
  <speed>4.21</speed>
  <fix>3d</fix>
</trkpt>
<trkpt lat="40.0714292" lon="-105.2297898">
  <ele>1583.12</ele>
  <time>2026-08-28T17:52:24Z</time>
  <course>0.27</course>
  <speed>4.600010869552375</speed>
  <fix>3d</fix>
</trkpt>
<trkpt lat="40.0714245" lon="-105.2297902">
  <ele>1583.0</ele>
  <time>2026-08-28T17:52:24Z</time>
  <course>359.43</course>
  <speed>4.48</speed>
  <fix>3d</fix>
</trkpt>
<trkpt lat="40.0714335" lon="-105.2297899">
  <ele>1583.12</ele>
  <time>2026-08-28T17:52:24Z</time>
  <course>0.26</course>
  <speed>4.7200105932084515</speed>
  <fix>3d</fix>
</trkpt>
<trkpt lat="40.0714245" lon="-105.2297902">
  <ele>1583.0</ele>
  <time>2026-08-28T17:52:24Z</time>
  <course>359.43</course>
  <speed>4.48</speed>
  <fix>3d</fix>
</trkpt>
<trkpt lat="40.0714378" lon="-105.2297899">
  <ele>1583.11</ele>
  <time>2026-08-28T17:52:24Z</time>
  <course>0.25</course>
  <speed>4.830010351955781</speed>
  <fix>3d</fix>
</trkpt>
<trkpt lat="40.0714328" lon="-105.2297903">
  <ele>1583.0</ele>
  <time>2026-08-28T17:52:24Z</time>
  <course>359.43</course>
  <speed>4.72</speed>
  <fix>3d</fix>
</trkpt>
<trkpt lat="40.0714422" lon="-105.2297899">
  <ele>1583.11</ele>
  <time>2026-08-28T17:52:24Z</time>
  <course>0.24</course>
  <speed>4.92</speed>
  <fix>3d</fix>
</trkpt>
<trkpt lat="40.0714328" lon="-105.2297903">
  <ele>1583.0</ele>
  <time>2026-08-28T17:52:24Z</time>
  <course>359.43</course>
  <speed>4.72</speed>
  <fix>3d</fix>
</trkpt>
<trkpt lat="40.0714468" lon="-105.22979">
  <ele>1583.11</ele>
  <time>2026-08-28T17:52:24Z</time>
  <course>0.23</course>
  <speed>5.01</speed>
  <fix>3d</fix>
</trkpt>
<trkpt lat="40.0714415" lon="-105.2297904">
  <ele>1583.0</ele>
  <time>2026-08-28T17:52:24Z</time>
  <course>359.43</course>
  <speed>4.92</speed>
  <fix>3d</fix>
</trkpt>
<trkpt lat="40.0714514" lon="-105.22979">
  <ele>1583.11</ele>
  <time>2026-08-28T17:52:24Z</time>
  <course>0.22</course>
  <speed>5.08</speed>
  <fix>3d</fix>
</trkpt>
<trkpt lat="40.0714415" lon="-105.2297904">
  <ele>1583.0</ele>
  <time>2026-08-28T17:52:24Z</time>
  <course>359.43</course>
  <speed>4.92</speed>
  <fix>3d</fix>
</trkpt>
<trkpt lat="40.0714561" lon="-105.2297901">
  <ele>1583.11</ele>
  <time>2026-08-28T17:52:24Z</time>
  <course>0.21</course>
  <speed>5.14</speed>
  <fix>3d</fix>
</trkpt>
<trkpt lat="40.0714504" lon="-105.2297906">
  <ele>1583.0</ele>
  <time>2026-08-28T17:52:24Z</time>
  <course>359.43</course>
  <speed>5.07</speed>
  <fix>3d</fix>
</trkpt>
<trkpt lat="40.0714608" lon="-105.2297902">
  <ele>1583.11</ele>
  <time>2026-08-28T17:52:24Z</time>
  <course>0.2</course>
  <speed>5.19</speed>
  <fix>3d</fix>
</trkpt>
<trkpt lat="40.0714504" lon="-105.2297906">
  <ele>1583.0</ele>
  <time>2026-08-28T17:52:24Z</time>
  <course>359.43</course>
  <speed>5.07</speed>
  <fix>3d</fix>
</trkpt>
<trkpt lat="40.0714665" lon="-105.2297902">
  <ele>1583.12</ele>
  <time>2026-08-28T17:52:24Z</time>
  <course>0.19</course>
  <speed>5.23</speed>
  <fix>3d</fix>
</trkpt>
<trkpt lat="40.0714596" lon="-105.2297907">
  <ele>1583.0</ele>
  <time>2026-08-28T17:52:24Z</time>
  <course>359.43</course>
  <speed>5.17</speed>
  <fix>3d</fix>
</trkpt>
<trkpt lat="40.0714713" lon="-105.2297903">
  <ele>1583.12</ele>
  <time>2026-08-28T17:52:24Z</time>
  <course>0.18</course>
  <speed>5.25</speed>
  <fix>3d</fix>
</trkpt>
<trkpt lat="40.0714596" lon="-105.2297907">
  <ele>1583.0</ele>
  <time>2026-08-28T17:52:24Z</time>
  <course>359.43</course>
  <speed>5.17</speed>
  <fix>3d</fix>
</trkpt>
<trkpt lat="40.071476" lon="-105.2297903">
  <ele>1583.12</ele>
  <time>2026-08-28T17:52:24Z</time>
  <course>0.17</course>
  <speed>5.25</speed>
  <fix>3d</fix>
</trkpt>
<trkpt lat="40.0714689" lon="-105.2297908">
  <ele>1583.0</ele>
  <time>2026-08-28T17:52:24Z</time>
  <course>359.43</course>
  <speed>5.22</speed>
  <fix>3d</fix>
</trkpt>
<trkpt lat="40.0714808" lon="-105.2297904">
  <ele>1583.13</ele>
  <time>2026-08-28T17:52:24Z</time>
  <course>0.16</course>
  <speed>5.23</speed>
  <fix>3d</fix>
</trkpt>
<trkpt lat="40.0714689" lon="-105.2297908">
  <ele>1583.0</ele>
  <time>2026-08-28T17:52:24Z</time>
  <course>359.43</course>
  <speed>5.22</speed>
  <fix>3d</fix>
</trkpt>
<trkpt lat="40.0714855" lon="-105.2297905">
  <ele>1583.13</ele>
  <time>2026-08-28T17:52:24Z</time>
  <course>0.15</course>
  <speed>5.18</speed>
  <fix>3d</fix>
</trkpt>
<trkpt lat="40.0714783" lon="-105.2297909">
  <ele>1583.0</ele>
  <time>2026-08-28T17:52:24Z</time>
  <course>359.43</course>
  <speed>5.2</speed>
  <fix>3d</fix>
</trkpt>
<trkpt lat="40.0714901" lon="-105.2297905">
  <ele>1583.13</ele>
  <time>2026-08-28T17:52:24Z</time>
  <course>0.14</course>
  <speed>5.11</speed>
  <fix>3d</fix>
</trkpt>
<trkpt lat="40.0714783" lon="-105.2297909">
  <ele>1583.0</ele>
  <time>2026-08-28T17:52:24Z</time>
  <course>359.43</course>
  <speed>5.2</speed>
  <fix>3d</fix>
</trkpt>
<trkpt lat="40.0714946" lon="-105.2297906">
  <ele>1583.14</ele>
  <time>2026-08-28T17:52:24Z</time>
  <course>0.14</course>
  <speed>5.020009960149482</speed>
  <fix>3d</fix>
</trkpt>
<trkpt lat="40.0714876" lon="-105.229791">
  <ele>1583.0</ele>
  <time>2026-08-28T17:52:24Z</time>
  <course>359.43</course>
  <speed>5.1</speed>
  <fix>3d</fix>
</trkpt>
<trkpt lat="40.0714991" lon="-105.2297907">
  <ele>1583.14</ele>
  <time>2026-08-28T17:52:24Z</time>
  <course>0.13</course>
  <speed>4.92001016259113</speed>
  <fix>3d</fix>
</trkpt>
<trkpt lat="40.0714876" lon="-105.229791">
  <ele>1583.0</ele>
  <time>2026-08-28T17:52:24Z</time>
  <course>359.43</course>
  <speed>5.1</speed>
  <fix>3d</fix>
</trkpt>
<trkpt lat="40.0715034" lon="-105.2297907">
  <ele>1583.14</ele>
  <time>2026-08-28T17:52:24Z</time>
  <course>0.13</course>
  <speed>4.800010416655364</speed>
  <fix>3d</fix>
</trkpt>
<trkpt lat="40.0714967" lon="-105.2297911">
  <ele>1583.0</ele>
  <time>2026-08-28T17:52:24Z</time>
  <course>359.43</course>
  <speed>4.91</speed>
  <fix>3d</fix>
</trkpt>
<trkpt lat="40.0715076" lon="-105.2297908">
  <ele>1583.14</ele>
  <time>2026-08-28T17:52:24Z</time>
  <course>0.12</course>
  <speed>4.660010729601382</speed>
  <fix>3d</fix>
</trkpt>
<trkpt lat="40.0714967" lon="-105.2297911">
  <ele>1583.0</ele>
  <time>2026-08-28T17:52:24Z</time>
  <course>359.43</course>
  <speed>4.91</speed>
  <fix>3d</fix>
</trkpt>
<trkpt lat="40.0715117" lon="-105.2297909">
  <ele>1583.14</ele>
  <time>2026-08-28T17:52:24Z</time>
  <course>0.12</course>
  <speed>4.520011061933367</speed>
  <fix>3d</fix>
</trkpt>
<trkpt lat="40.0715053" lon="-105.2297912">
  <ele>1583.0</ele>
  <time>2026-08-28T17:52:24Z</time>
  <course>359.43</course>
  <speed>4.67</speed>
  <fix>3d</fix>
</trkpt>
<trkpt lat="40.0715148" lon="-105.2297909">
  <ele>1583.14</ele>
  <time>2026-08-28T17:52:24Z</time>
  <course>0.12</course>
  <speed>4.400011363621689</speed>
  <fix>3d</fix>
</trkpt>
<trkpt lat="40.0715053" lon="-105.2297912">
  <ele>1583.0</ele>
  <time>2026-08-28T17:52:24Z</time>
  <course>359.43</course>
  <speed>4.67</speed>
  <fix>3d</fix>
</trkpt>
<trkpt lat="40.0715187" lon="-105.229791">
  <ele>1583.14</ele>
  <time>2026-08-28T17:52:24Z</time>
  <course>0.11</course>
  <speed>4.250011764689599</speed>
  <fix>3d</fix>
</trkpt>
<trkpt lat="40.0715134" lon="-105.2297914">
  <ele>1583.0</ele>
  <time>2026-08-28T17:52:24Z</time>
  <course>359.43</course>
  <speed>4.4</speed>
  <fix>3d</fix>
</trkpt>
<trkpt lat="40.0715224" lon="-105.2297911">
  <ele>1583.14</ele>
  <time>2026-08-28T17:52:24Z</time>
  <course>0.11</course>
  <speed>4.090048899463183</speed>
  <fix>3d</fix>
</trkpt>
<trkpt lat="40.0715134" lon="-105.2297914">
  <ele>1583.0</ele>
  <time>2026-08-28T17:52:24Z</time>
  <course>359.43</course>
  <speed>4.4</speed>
  <fix>3d</fix>
</trkpt>
<trkpt lat="40.0715259" lon="-105.2297911">
  <ele>1583.14</ele>
  <time>2026-08-28T17:52:24Z</time>
  <course>0.16</course>
  <speed>3.9400126903348927</speed>
  <fix>3d</fix>
</trkpt>
<trkpt lat="40.0715211" lon="-105.2297914">
  <ele>1583.0</ele>
  <time>2026-08-28T17:52:24Z</time>
  <course>359.46</course>
  <speed>4.1</speed>
  <fix>3d</fix>
</trkpt>
<trkpt lat="40.0715294" lon="-105.2297912">
  <ele>1583.14</ele>
  <time>2026-08-28T17:52:24Z</time>
  <course>0.22</course>
  <speed>3.7800132274900835</speed>
  <fix>3d</fix>
</trkpt>
<trkpt lat="40.0715211" lon="-105.2297914">
  <ele>1583.0</ele>
  <time>2026-08-28T17:52:24Z</time>
  <course>359.46</course>
  <speed>4.1</speed>
  <fix>3d</fix>
</trkpt>
<trkpt lat="40.0715327" lon="-105.2297912">
  <ele>1583.14</ele>
  <time>2026-08-28T17:52:24Z</time>
  <course>0.27</course>
  <speed>3.620013812128346</speed>
  <fix>3d</fix>
</trkpt>
<trkpt lat="40.0715282" lon="-105.2297915">
  <ele>1583.0</ele>
  <time>2026-08-28T17:52:24Z</time>
  <course>359.54</course>
  <speed>3.79</speed>
  <fix>3d</fix>
</trkpt>
<trkpt lat="40.0715359" lon="-105.2297913">
  <ele>1583.14</ele>
  <time>2026-08-28T17:52:24Z</time>
  <course>0.31</course>
  <speed>3.4600144508368746</speed>
  <fix>3d</fix>
</trkpt>
<trkpt lat="40.0715282" lon="-105.2297915">
  <ele>1583.0</ele>
  <time>2026-08-28T17:52:24Z</time>
  <course>359.54</course>
  <speed>3.79</speed>
  <fix>3d</fix>
</trkpt>
<trkpt lat="40.0715389" lon="-105.2297913">
  <ele>1583.14</ele>
  <time>2026-08-28T17:52:24Z</time>
  <course>0.36</course>
  <speed>3.3100151057057126</speed>
  <fix>3d</fix>
</trkpt>
<trkpt lat="40.0715347" lon="-105.2297916">
  <ele>1583.0</ele>
  <time>2026-08-28T17:52:24Z</time>
  <course>359.64</course>
  <speed>3.48</speed>
  <fix>3d</fix>
</trkpt>
<trkpt lat="40.0715418" lon="-105.2297914">
  <ele>1583.15</ele>
  <time>2026-08-28T17:52:24Z</time>
  <course>0.42</course>
  <speed>3.16</speed>
  <fix>3d</fix>
</trkpt>
<trkpt lat="40.0715347" lon="-105.2297916">
  <ele>1583.0</ele>
  <time>2026-08-28T17:52:24Z</time>
  <course>359.64</course>
  <speed>3.48</speed>
  <fix>3d</fix>
</trkpt>
<trkpt lat="40.0715446" lon="-105.2297914">
  <ele>1583.15</ele>
  <time>2026-08-28T17:52:24Z</time>
  <course>0.51</course>
  <speed>3.01</speed>
  <fix>3d</fix>
</trkpt>
<trkpt lat="40.0715407" lon="-105.2297916">
  <ele>1583.0</ele>
  <time>2026-08-28T17:52:24Z</time>
  <course>359.76</course>
  <speed>3.18</speed>
  <fix>3d</fix>
</trkpt>
<trkpt lat="40.0715477" lon="-105.2297914">
  <ele>1583.14</ele>
  <time>2026-08-28T17:52:24Z</time>
  <course>0.61</course>
  <speed>2.84</speed>
  <fix>3d</fix>
</trkpt>
<trkpt lat="40.0715407" lon="-105.2297916">
  <ele>1583.0</ele>
  <time>2026-08-28T17:52:24Z</time>
  <course>359.76</course>
  <speed>3.18</speed>
  <fix>3d</fix>
</trkpt>
<trkpt lat="40.0715502" lon="-105.2297915">
  <ele>1583.14</ele>
  <time>2026-08-28T17:52:24Z</time>
  <course>0.69</course>
  <speed>2.7</speed>
  <fix>3d</fix>
</trkpt>
<trkpt lat="40.0715462" lon="-105.2297916">
  <ele>1583.0</ele>
  <time>2026-08-28T17:52:24Z</time>
  <course>359.91</course>
  <speed>2.89</speed>
  <fix>3d</fix>
</trkpt>
<trkpt lat="40.0715526" lon="-105.2297915">
  <ele>1583.14</ele>
  <time>2026-08-28T17:52:24Z</time>
  <course>0.8</course>
  <speed>2.57</speed>
  <fix>3d</fix>
</trkpt>
<trkpt lat="40.0715462" lon="-105.2297916">
  <ele>1583.0</ele>
  <time>2026-08-28T17:52:24Z</time>
  <course>359.91</course>
  <speed>2.89</speed>
  <fix>3d</fix>
</trkpt>
<trkpt lat="40.0715548" lon="-105.2297915">
  <ele>1583.14</ele>
  <time>2026-08-28T17:52:24Z</time>
  <course>0.9</course>
  <speed>2.44</speed>
  <fix>3d</fix>
</trkpt>
<trkpt lat="40.0715511" lon="-105.2297916">
  <ele>1583.0</ele>
  <time>2026-08-28T17:52:24Z</time>
  <course>0.09</course>
  <speed>2.63</speed>
  <fix>3d</fix>
</trkpt>
<trkpt lat="40.0715569" lon="-105.2297915">
  <ele>1583.14</ele>
  <time>2026-08-28T17:52:24Z</time>
  <course>1.02</course>
  <speed>2.3100216449202375</speed>
  <fix>3d</fix>
</trkpt>
<trkpt lat="40.0715511" lon="-105.2297916">
  <ele>1583.0</ele>
  <time>2026-08-28T17:52:24Z</time>
  <course>0.09</course>
  <speed>2.63</speed>
  <fix>3d</fix>
</trkpt>
<trkpt lat="40.0715589" lon="-105.2297915">
  <ele>1583.14</ele>
  <time>2026-08-28T17:52:24Z</time>
  <course>1.15</course>
  <speed>2.190022830931221</speed>
  <fix>3d</fix>
</trkpt>
<trkpt lat="40.0715556" lon="-105.2297916">
  <ele>1583.0</ele>
  <time>2026-08-28T17:52:24Z</time>
  <course>0.31</course>
  <speed>2.38</speed>
  <fix>3d</fix>
</trkpt>
<trkpt lat="40.0715608" lon="-105.2297914">
  <ele>1583.13</ele>
  <time>2026-08-28T17:52:24Z</time>
  <course>1.29</course>
  <speed>2.0800240383226343</speed>
  <fix>3d</fix>
</trkpt>
<trkpt lat="40.0715556" lon="-105.2297916">
  <ele>1583.0</ele>
  <time>2026-08-28T17:52:24Z</time>
  <course>0.31</course>
  <speed>2.38</speed>
  <fix>3d</fix>
</trkpt>
<trkpt lat="40.0715626" lon="-105.2297914">
  <ele>1583.13</ele>
  <time>2026-08-28T17:52:24Z</time>
  <course>1.45</course>
  <speed>1.9601020381602587</speed>
  <fix>3d</fix>
</trkpt>
<trkpt lat="40.0715597" lon="-105.2297916">
  <ele>1583.0</ele>
  <time>2026-08-28T17:52:24Z</time>
  <course>0.57</course>
  <speed>2.14</speed>
  <fix>3d</fix>
</trkpt>
<trkpt lat="40.0715643" lon="-105.2297914">
  <ele>1583.13</ele>
  <time>2026-08-28T17:52:24Z</time>
  <course>1.61</course>
  <speed>1.8601075237738274</speed>
  <fix>3d</fix>
</trkpt>
<trkpt lat="40.0715597" lon="-105.2297916">
  <ele>1583.0</ele>
  <time>2026-08-28T17:52:24Z</time>
  <course>0.57</course>
  <speed>2.14</speed>
  <fix>3d</fix>
</trkpt>
<trkpt lat="40.0715659" lon="-105.2297914">
  <ele>1583.13</ele>
  <time>2026-08-28T17:52:24Z</time>
  <course>1.8</course>
  <speed>1.7501142819827509</speed>
  <fix>3d</fix>
</trkpt>
<trkpt lat="40.0715634" lon="-105.2297916">
  <ele>1583.0</ele>
  <time>2026-08-28T17:52:24Z</time>
  <course>0.88</course>
  <speed>1.93</speed>
  <fix>3d</fix>
</trkpt>
<trkpt lat="40.0715674" lon="-105.2297914">
  <ele>1583.13</ele>
  <time>2026-08-28T17:52:24Z</time>
  <course>2.01</course>
  <speed>1.650272704737008</speed>
  <fix>3d</fix>
</trkpt>
<trkpt lat="40.0715634" lon="-105.2297916">
  <ele>1583.0</ele>
  <time>2026-08-28T17:52:24Z</time>
  <course>0.88</course>
  <speed>1.93</speed>
  <fix>3d</fix>
</trkpt>
<trkpt lat="40.0715686" lon="-105.2297914">
  <ele>1583.13</ele>
  <time>2026-08-28T17:52:24Z</time>
  <course>2.19</course>
  <speed>1.560288434873501</speed>
  <fix>3d</fix>
</trkpt>
<trkpt lat="40.0715666" lon="-105.2297916">
  <ele>1583.0</ele>
  <time>2026-08-28T17:52:24Z</time>
  <course>1.26</course>
  <speed>1.72</speed>
  <fix>3d</fix>
</trkpt>
<trkpt lat="40.0715699" lon="-105.2297914">
  <ele>1583.13</ele>
  <time>2026-08-28T17:52:24Z</time>
  <course>2.44</course>
  <speed>1.4703060905811416</speed>
  <fix>3d</fix>
</trkpt>
<trkpt lat="40.0715666" lon="-105.2297916">
  <ele>1583.0</ele>
  <time>2026-08-28T17:52:24Z</time>
  <course>1.26</course>
  <speed>1.72</speed>
  <fix>3d</fix>
</trkpt>
<trkpt lat="40.0715712" lon="-105.2297913">
  <ele>1583.13</ele>
  <time>2026-08-28T17:52:24Z</time>
  <course>2.72</course>
  <speed>1.3705838172107534</speed>
  <fix>3d</fix>
</trkpt>
<trkpt lat="40.0715696" lon="-105.2297915">
  <ele>1583.0</ele>
  <time>2026-08-28T17:52:24Z</time>
  <course>1.73</course>
  <speed>1.53</speed>
  <fix>3d</fix>
</trkpt>
<trkpt lat="40.0715724" lon="-105.2297913">
  <ele>1583.13</ele>
  <time>2026-08-28T17:52:24Z</time>
  <course>3.04</course>
  <speed>1.2806248474865698</speed>
  <fix>3d</fix>
</trkpt>
<trkpt lat="40.0715696" lon="-105.2297915">
  <ele>1583.0</ele>
  <time>2026-08-28T17:52:24Z</time>
  <course>1.73</course>
  <speed>1.53</speed>
  <fix>3d</fix>
</trkpt>
<trkpt lat="40.0715735" lon="-105.2297913">
  <ele>1583.12</ele>
  <time>2026-08-28T17:52:24Z</time>
  <course>3.4</course>
  <speed>1.181058846967415</speed>
  <fix>3d</fix>
</trkpt>
<trkpt lat="40.0715722" lon="-105.2297914">
  <ele>1583.0</ele>
  <time>2026-08-28T17:52:24Z</time>
  <course>2.33</course>
  <speed>1.34</speed>
  <fix>3d</fix>
</trkpt>
<trkpt lat="40.0715746" lon="-105.2297912">
  <ele>1583.12</ele>
  <time>2026-08-28T17:52:24Z</time>
  <course>3.82</course>
  <speed>1.091146186356347</speed>
  <fix>3d</fix>
</trkpt>
<trkpt lat="40.0715722" lon="-105.2297914">
  <ele>1583.0</ele>
  <time>2026-08-28T17:52:24Z</time>
  <course>2.33</course>
  <speed>1.34</speed>
  <fix>3d</fix>
</trkpt>
<trkpt lat="40.0715755" lon="-105.2297911">
  <ele>1583.12</ele>
  <time>2026-08-28T17:52:24Z</time>
  <course>4.32</course>
  <speed>1.0012492197250393</speed>
  <fix>3d</fix>
</trkpt>
<trkpt lat="40.0715744" lon="-105.2297912">
  <ele>1583.0</ele>
  <time>2026-08-28T17:52:24Z</time>
  <course>3.11</course>
  <speed>1.15</speed>
  <fix>3d</fix>
</trkpt>
<trkpt lat="40.0715764" lon="-105.2297911">
  <ele>1583.12</ele>
  <time>2026-08-28T17:52:24Z</time>
  <course>4.89</course>
  <speed>0.9019977827023744</speed>
  <fix>3d</fix>
</trkpt>
<trkpt lat="40.0715744" lon="-105.2297912">
  <ele>1583.0</ele>
  <time>2026-08-28T17:52:24Z</time>
  <course>3.11</course>
  <speed>1.15</speed>
  <fix>3d</fix>
</trkpt>
<trkpt lat="40.0715772" lon="-105.229791">
  <ele>1583.11</ele>
  <time>2026-08-28T17:52:24Z</time>
  <course>5.49</course>
  <speed>0.812219182240853</speed>
  <fix>3d</fix>
</trkpt>
<trkpt lat="40.0715763" lon="-105.2297911">
  <ele>1583.0</ele>
  <time>2026-08-28T17:52:24Z</time>
  <course>4.14</course>
  <speed>0.97</speed>
  <fix>3d</fix>
</trkpt>
<trkpt lat="40.0715779" lon="-105.2297909">
  <ele>1583.11</ele>
  <time>2026-08-28T17:52:24Z</time>
  <course>6.09</course>
  <speed>0.7224956747275377</speed>
  <fix>3d</fix>
</trkpt>
<trkpt lat="40.0715763" lon="-105.2297911">
  <ele>1583.0</ele>
  <time>2026-08-28T17:52:24Z</time>
  <course>4.14</course>
  <speed>0.97</speed>
  <fix>3d</fix>
</trkpt>
<trkpt lat="40.0715787" lon="-105.2297908">
  <ele>1583.11</ele>
  <time>2026-08-28T17:52:24Z</time>
  <course>6.78</course>
  <speed>0.6129437168288782</speed>
  <fix>3d</fix>
</trkpt>
<trkpt lat="40.0715778" lon="-105.2297908">
  <ele>1583.0</ele>
  <time>2026-08-28T17:52:24Z</time>
  <course>5.29</course>
  <speed>0.79</speed>
  <fix>3d</fix>
</trkpt>
<trkpt lat="40.0715792" lon="-105.2297907">
  <ele>1583.11</ele>
  <time>2026-08-28T17:52:24Z</time>
  <course>7.32</course>
  <speed>0.523450093132096</speed>
  <fix>3d</fix>
</trkpt>
<trkpt lat="40.0715778" lon="-105.2297908">
  <ele>1583.0</ele>
  <time>2026-08-28T17:52:24Z</time>
  <course>5.29</course>
  <speed>0.79</speed>
  <fix>3d</fix>
</trkpt>
<trkpt lat="40.0715796" lon="-105.2297907">
  <ele>1583.11</ele>
  <time>2026-08-28T17:52:24Z</time>
  <course>7.82</course>
  <speed>0.43289721643826723</speed>
  <fix>3d</fix>
</trkpt>
<trkpt lat="40.0715791" lon="-105.2297907">
  <ele>1583.0</ele>
  <time>2026-08-28T17:52:24Z</time>
  <course>6.39</course>
  <speed>0.61</speed>
  <fix>3d</fix>
</trkpt>
<trkpt lat="40.07158" lon="-105.2297906">
  <ele>1583.11</ele>
  <time>2026-08-28T17:52:24Z</time>
  <course>8.25</course>
  <speed>0.33241540277189324</speed>
  <fix>3d</fix>
</trkpt>
<trkpt lat="40.0715791" lon="-105.2297907">
  <ele>1583.0</ele>
  <time>2026-08-28T17:52:24Z</time>
  <course>6.39</course>
  <speed>0.61</speed>
  <fix>3d</fix>
</trkpt>
<trkpt lat="40.0715803" lon="-105.2297905">
  <ele>1583.11</ele>
  <time>2026-08-28T17:52:24Z</time>
  <course>8.62</course>
  <speed>0.24186773244895649</speed>
  <fix>3d</fix>
</trkpt>
<trkpt lat="40.0715801" lon="-105.2297906">
  <ele>1583.0</ele>
  <time>2026-08-28T17:52:24Z</time>
  <course>7.32</course>
  <speed>0.42</speed>
  <fix>3d</fix>
</trkpt>
<trkpt lat="40.0715805" lon="-105.2297905">
  <ele>1583.11</ele>
  <time>2026-08-28T17:52:24Z</time>
  <course>8.9</course>
  <speed>0.15132745950421556</speed>
  <fix>3d</fix>
</trkpt>
<trkpt lat="40.0715801" lon="-105.2297906">
  <ele>1583.0</ele>
  <time>2026-08-28T17:52:24Z</time>
  <course>7.32</course>
  <speed>0.42</speed>
  <fix>3d</fix>
</trkpt>
<trkpt lat="40.0715806" lon="-105.2297905">
  <ele>1583.11</ele>
  <time>2026-08-28T17:52:24Z</time>
  <course>9.1</course>
  <speed>0.05099019513592785</speed>
  <fix>3d</fix>
</trkpt>
<trkpt lat="40.0715807" lon="-105.2297904">
  <ele>1583.0</ele>
  <time>2026-08-28T17:52:24Z</time>
  <course>7.98</course>
  <speed>0.24</speed>
  <fix>3d</fix>
</trkpt>
<trkpt lat="40.0715807" lon="-105.2297904">
  <ele>1583.12</ele>
  <time>2026-08-28T17:52:24Z</time>
  <course>9.18</course>
  <speed>0.01</speed>
  <fix>3d</fix>
</trkpt>
<trkpt lat="40.0715807" lon="-105.2297904">
  <ele>1583.0</ele>
  <time>2026-08-28T17:52:24Z</time>
  <course>7.98</course>
  <speed>0.24</speed>
  <fix>3d</fix>
</trkpt>
<trkpt lat="40.0715806" lon="-105.2297904">
  <ele>1583.12</ele>
  <time>2026-08-28T17:52:24Z</time>
  <course>9.16</course>
  <speed>0.08</speed>
  <fix>3d</fix>
</trkpt>
<trkpt lat="40.0715809" lon="-105.2297904">
  <ele>1583.0</ele>
  <time>2026-08-28T17:52:24Z</time>
  <course>8.34</course>
  <speed>0.07</speed>
  <fix>3d</fix>
</trkpt>
<trkpt lat="40.0715806" lon="-105.2297904">
  <ele>1583.12</ele>
  <time>2026-08-28T17:52:24Z</time>
  <course>9.2</course>
  <speed>0.12041594578792296</speed>
  <fix>3d</fix>
</trkpt>
<trkpt lat="40.0715809" lon="-105.2297904">
  <ele>1583.0</ele>
  <time>2026-08-28T17:52:24Z</time>
  <course>8.34</course>
  <speed>0.07</speed>
  <fix>3d</fix>
</trkpt>
<trkpt lat="40.0715806" lon="-105.2297904">
  <ele>1583.12</ele>
  <time>2026-08-28T17:52:24Z</time>
  <course>9.29</course>
  <speed>0.15033296378372907</speed>
  <fix>3d</fix>
</trkpt>
<trkpt lat="40.071581" lon="-105.2297904">
  <ele>1583.0</ele>
  <time>2026-08-28T17:52:24Z</time>
  <course>188.51</course>
  <speed>0.03</speed>
  <fix>3d</fix>
</trkpt>
<trkpt lat="40.0715805" lon="-105.2297904">
  <ele>1583.12</ele>
  <time>2026-08-28T17:52:24Z</time>
  <course>9.38</course>
  <speed>0.16031219541881397</speed>
  <fix>3d</fix>
</trkpt>
<trkpt lat="40.071581" lon="-105.2297904">
  <ele>1583.0</ele>
  <time>2026-08-28T17:52:24Z</time>
  <course>188.51</course>
  <speed>0.03</speed>
  <fix>3d</fix>
</trkpt>
<trkpt lat="40.0715804" lon="-105.2297904">
  <ele>1583.12</ele>
  <time>2026-08-28T17:52:24Z</time>
  <course>9.5</course>
  <speed>0.15033296378372907</speed>
  <fix>3d</fix>
</trkpt>
<trkpt lat="40.0715809" lon="-105.2297904">
  <ele>1583.0</ele>
  <time>2026-08-28T17:52:24Z</time>
  <course>188.64</course>
  <speed>0.08</speed>
  <fix>3d</fix>
</trkpt>
<trkpt lat="40.0715803" lon="-105.2297904">
  <ele>1583.12</ele>
  <time>2026-08-28T17:52:24Z</time>
  <course>9.63</course>
  <speed>0.14</speed>
  <fix>3d</fix>
</trkpt>
<trkpt lat="40.0715809" lon="-105.2297904">
  <ele>1583.0</ele>
  <time>2026-08-28T17:52:24Z</time>
  <course>188.64</course>
  <speed>0.08</speed>
  <fix>3d</fix>
</trkpt>
<trkpt lat="40.0715803" lon="-105.2297904">
  <ele>1583.12</ele>
  <time>2026-08-28T17:52:24Z</time>
  <course>9.72</course>
  <speed>0.11</speed>
  <fix>3d</fix>
</trkpt>
<trkpt lat="40.0715808" lon="-105.2297904">
  <ele>1583.0</ele>
  <time>2026-08-28T17:52:24Z</time>
  <course>188.82</course>
  <speed>0.07</speed>
  <fix>3d</fix>
</trkpt>
<trkpt lat="40.0715802" lon="-105.2297904">
  <ele>1583.12</ele>
  <time>2026-08-28T17:52:24Z</time>
  <course>9.77</course>
  <speed>0.07</speed>
  <fix>3d</fix>
</trkpt>
<trkpt lat="40.0715808" lon="-105.2297904">
  <ele>1583.0</ele>
  <time>2026-08-28T17:52:24Z</time>
  <course>188.82</course>
  <speed>0.07</speed>
  <fix>3d</fix>
</trkpt>
<trkpt lat="40.0715802" lon="-105.2297904">
  <ele>1583.12</ele>
  <time>2026-08-28T17:52:24Z</time>
  <course>9.74</course>
  <speed>0.01414213562373095</speed>
  <fix>3d</fix>
</trkpt>
<trkpt lat="40.0715808" lon="-105.2297904">
  <ele>1583.0</ele>
  <time>2026-08-28T17:52:24Z</time>
  <course>188.51</course>
  <speed>0.0</speed>
  <fix>3d</fix>
</trkpt>
<trkpt lat="40.0715803" lon="-105.2297904">
  <ele>1583.11</ele>
  <time>2026-08-28T17:52:24Z</time>
  <course>9.79</course>
  <speed>0.05</speed>
  <fix>3d</fix>
</trkpt>
<trkpt lat="40.0715808" lon="-105.2297904">
  <ele>1583.0</ele>
  <time>2026-08-28T17:52:24Z</time>
  <course>188.51</course>
  <speed>0.0</speed>
  <fix>3d</fix>
</trkpt>
<trkpt lat="40.0715804" lon="-105.2297904">
  <ele>1583.11</ele>
  <time>2026-08-28T17:52:24Z</time>
  <course>10.04</course>
  <speed>0.1264911064067352</speed>
  <fix>3d</fix>
</trkpt>
<trkpt lat="40.0715809" lon="-105.2297904">
  <ele>1583.0</ele>
  <time>2026-08-28T17:52:24Z</time>
  <course>9.21</course>
  <speed>0.11</speed>
  <fix>3d</fix>
</trkpt>
<trkpt lat="40.0715806" lon="-105.2297903">
  <ele>1583.11</ele>
  <time>2026-08-28T17:52:24Z</time>
  <course>10.41</course>
  <speed>0.208806130178211</speed>
  <fix>3d</fix>
</trkpt>
<trkpt lat="40.0715809" lon="-105.2297904">
  <ele>1583.0</ele>
  <time>2026-08-28T17:52:24Z</time>
  <course>9.21</course>
  <speed>0.11</speed>
  <fix>3d</fix>
</trkpt>
<trkpt lat="40.0715809" lon="-105.2297903">
  <ele>1583.11</ele>
  <time>2026-08-28T17:52:24Z</time>
  <course>10.95</course>
  <speed>0.30083217912982646</speed>
  <fix>3d</fix>
</trkpt>
<trkpt lat="40.0715811" lon="-105.2297904">
  <ele>1583.0</ele>
  <time>2026-08-28T17:52:24Z</time>
  <course>9.87</course>
  <speed>0.26</speed>
  <fix>3d</fix>
</trkpt>
<trkpt lat="40.0715813" lon="-105.2297901">
  <ele>1583.11</ele>
  <time>2026-08-28T17:52:24Z</time>
  <course>11.88</course>
  <speed>0.4052159917870962</speed>
  <fix>3d</fix>
</trkpt>
<trkpt lat="40.0715811" lon="-105.2297904">
  <ele>1583.0</ele>
  <time>2026-08-28T17:52:24Z</time>
  <course>9.87</course>
  <speed>0.26</speed>
  <fix>3d</fix>
</trkpt>
<trkpt lat="40.0715818" lon="-105.22979">
  <ele>1583.11</ele>
  <time>2026-08-28T17:52:24Z</time>
  <course>12.92</course>
  <speed>0.5</speed>
  <fix>3d</fix>
</trkpt>
<trkpt lat="40.0715816" lon="-105.2297902">
  <ele>1583.0</ele>
  <time>2026-08-28T17:52:24Z</time>
  <course>11.22</course>
  <speed>0.43</speed>
  <fix>3d</fix>
</trkpt>
<trkpt lat="40.0715823" lon="-105.2297898">
  <ele>1583.11</ele>
  <time>2026-08-28T17:52:24Z</time>
  <course>14.28</course>
  <speed>0.5948108943185221</speed>
  <fix>3d</fix>
</trkpt>
<trkpt lat="40.0715816" lon="-105.2297902">
  <ele>1583.0</ele>
  <time>2026-08-28T17:52:24Z</time>
  <course>11.22</course>
  <speed>0.43</speed>
  <fix>3d</fix>
</trkpt>
<trkpt lat="40.071583" lon="-105.2297896">
  <ele>1583.11</ele>
  <time>2026-08-28T17:52:24Z</time>
  <course>16.02</course>
  <speed>0.6862215385719105</speed>
  <fix>3d</fix>
</trkpt>
<trkpt lat="40.0715826" lon="-105.22979">
  <ele>1583.0</ele>
  <time>2026-08-28T17:52:24Z</time>
  <course>13.6</course>
  <speed>0.61</speed>
  <fix>3d</fix>
</trkpt>
<trkpt lat="40.0715836" lon="-105.2297893">
  <ele>1583.11</ele>
  <time>2026-08-28T17:52:24Z</time>
  <course>18.25</course>
  <speed>0.7783315488916018</speed>
  <fix>3d</fix>
</trkpt>
<trkpt lat="40.0715826" lon="-105.22979">
  <ele>1583.0</ele>
  <time>2026-08-28T17:52:24Z</time>
  <course>13.6</course>
  <speed>0.61</speed>
  <fix>3d</fix>
</trkpt>
<trkpt lat="40.0715844" lon="-105.2297889">
  <ele>1583.11</ele>
  <time>2026-08-28T17:52:24Z</time>
  <course>21.1</course>
  <speed>0.8692525524840292</speed>
  <fix>3d</fix>
</trkpt>
<trkpt lat="40.0715838" lon="-105.2297895">
  <ele>1583.0</ele>
  <time>2026-08-28T17:52:24Z</time>
  <course>17.56</course>
  <speed>0.78</speed>
  <fix>3d</fix>
</trkpt>
<trkpt lat="40.0715852" lon="-105.2297885">
  <ele>1583.12</ele>
  <time>2026-08-28T17:52:24Z</time>
  <course>24.65</course>
  <speed>0.9525754563287887</speed>
  <fix>3d</fix>
</trkpt>
<trkpt lat="40.0715838" lon="-105.2297895">
  <ele>1583.0</ele>
  <time>2026-08-28T17:52:24Z</time>
  <course>17.56</course>
  <speed>0.78</speed>
  <fix>3d</fix>
</trkpt>
<trkpt lat="40.071586" lon="-105.2297879">
  <ele>1583.12</ele>
  <time>2026-08-28T17:52:24Z</time>
  <course>28.93</course>
  <speed>1.027277956543408</speed>
  <fix>3d</fix>
</trkpt>
<trkpt lat="40.0715852" lon="-105.2297888">
  <ele>1583.0</ele>
  <time>2026-08-28T17:52:24Z</time>
  <course>23.82</course>
  <speed>0.95</speed>
  <fix>3d</fix>
</trkpt>
<trkpt lat="40.0715869" lon="-105.2297873">
  <ele>1583.12</ele>
  <time>2026-08-28T17:52:24Z</time>
  <course>33.81</course>
  <speed>1.110180165558726</speed>
  <fix>3d</fix>
</trkpt>
<trkpt lat="40.0715852" lon="-105.2297888">
  <ele>1583.0</ele>
  <time>2026-08-28T17:52:24Z</time>
  <course>23.82</course>
  <speed>0.95</speed>
  <fix>3d</fix>
</trkpt>
<trkpt lat="40.0715877" lon="-105.2297864">
  <ele>1583.12</ele>
  <time>2026-08-28T17:52:24Z</time>
  <course>39.29</course>
  <speed>1.183427226321923</speed>
  <fix>3d</fix>
</trkpt>
<trkpt lat="40.0715869" lon="-105.2297877">
  <ele>1583.0</ele>
  <time>2026-08-28T17:52:24Z</time>
  <course>32.68</course>
  <speed>1.09</speed>
  <fix>3d</fix>
</trkpt>
<trkpt lat="40.0715885" lon="-105.2297855">
  <ele>1583.12</ele>
  <time>2026-08-28T17:52:24Z</time>
  <course>45.4</course>
  <speed>1.245792920191795</speed>
  <fix>3d</fix>
</trkpt>
<trkpt lat="40.0715869" lon="-105.2297877">
  <ele>1583.0</ele>
  <time>2026-08-28T17:52:24Z</time>
  <course>32.68</course>
  <speed>1.09</speed>
  <fix>3d</fix>
</trkpt>
<trkpt lat="40.0715892" lon="-105.2297845">
  <ele>1583.11</ele>
  <time>2026-08-28T17:52:24Z</time>
  <course>50.8</course>
  <speed>1.298075498574717</speed>
  <fix>3d</fix>
</trkpt>
<trkpt lat="40.0715886" lon="-105.2297859">
  <ele>1583.0</ele>
  <time>2026-08-28T17:52:24Z</time>
  <course>44.05</course>
  <speed>1.22</speed>
  <fix>3d</fix>
</trkpt>
<trkpt lat="40.0715899" lon="-105.2297832">
  <ele>1583.11</ele>
  <time>2026-08-28T17:52:24Z</time>
  <course>58.01</course>
  <speed>1.353255334369682</speed>
  <fix>3d</fix>
</trkpt>
<trkpt lat="40.0715886" lon="-105.2297859">
  <ele>1583.0</ele>
  <time>2026-08-28T17:52:24Z</time>
  <course>44.05</course>
  <speed>1.22</speed>
  <fix>3d</fix>
</trkpt>
<trkpt lat="40.0715904" lon="-105.2297818">
  <ele>1583.11</ele>
  <time>2026-08-28T17:52:24Z</time>
  <course>65.77</course>
  <speed>1.4076931483814221</speed>
  <fix>3d</fix>
</trkpt>
<trkpt lat="40.07159" lon="-105.2297836">
  <ele>1583.0</ele>
  <time>2026-08-28T17:52:24Z</time>
  <course>57.81</course>
  <speed>1.33</speed>
  <fix>3d</fix>
</trkpt>
<trkpt lat="40.0715909" lon="-105.2297802">
  <ele>1583.11</ele>
  <time>2026-08-28T17:52:24Z</time>
  <course>73.92</course>
  <speed>1.4552319402761884</speed>
  <fix>3d</fix>
</trkpt>
<trkpt lat="40.07159" lon="-105.2297836">
  <ele>1583.0</ele>
  <time>2026-08-28T17:52:24Z</time>
  <course>57.81</course>
  <speed>1.33</speed>
  <fix>3d</fix>
</trkpt>
<trkpt lat="40.0715911" lon="-105.2297785">
  <ele>1583.11</ele>
  <time>2026-08-28T17:52:24Z</time>
  <course>82.5</course>
  <speed>1.4886235252742717</speed>
  <fix>3d</fix>
</trkpt>
<trkpt lat="40.071591" lon="-105.2297807">
  <ele>1583.0</ele>
  <time>2026-08-28T17:52:24Z</time>
  <course>73.65</course>
  <speed>1.41</speed>
  <fix>3d</fix>
</trkpt>
<trkpt lat="40.0715912" lon="-105.2297767">
  <ele>1583.11</ele>
  <time>2026-08-28T17:52:24Z</time>
  <course>91.32</course>
  <speed>1.5211837495845133</speed>
  <fix>3d</fix>
</trkpt>
<trkpt lat="40.071591" lon="-105.2297807">
  <ele>1583.0</ele>
  <time>2026-08-28T17:52:24Z</time>
  <course>73.65</course>
  <speed>1.41</speed>
  <fix>3d</fix>
</trkpt>
<trkpt lat="40.071591" lon="-105.2297749">
  <ele>1583.1</ele>
  <time>2026-08-28T17:52:24Z</time>
  <course>100.23</course>
  <speed>1.549322432549145</speed>
  <fix>3d</fix>
</trkpt>
<trkpt lat="40.0715913" lon="-105.2297774">
  <ele>1583.0</ele>
  <time>2026-08-28T17:52:24Z</time>
  <course>90.84</course>
  <speed>1.47</speed>
  <fix>3d</fix>
</trkpt>
<trkpt lat="40.0715908" lon="-105.2297732">
  <ele>1583.1</ele>
  <time>2026-08-28T17:52:24Z</time>
  <course>109.13</course>
  <speed>1.5626259949200898</speed>
  <fix>3d</fix>
</trkpt>
<trkpt lat="40.0715913" lon="-105.2297774">
  <ele>1583.0</ele>
  <time>2026-08-28T17:52:24Z</time>
  <course>90.84</course>
  <speed>1.47</speed>
  <fix>3d</fix>
</trkpt>
<trkpt lat="40.0715902" lon="-105.2297715">
  <ele>1583.11</ele>
  <time>2026-08-28T17:52:24Z</time>
  <course>117.73</course>
  <speed>1.5794302770302968</speed>
  <fix>3d</fix>
</trkpt>
<trkpt lat="40.071591" lon="-105.2297739">
  <ele>1583.0</ele>
  <time>2026-08-28T17:52:24Z</time>
  <course>108.34</course>
  <speed>1.51</speed>
  <fix>3d</fix>
</trkpt>
<trkpt lat="40.0715894" lon="-105.2297699">
  <ele>1583.11</ele>
  <time>2026-08-28T17:52:24Z</time>
  <course>125.95</course>
  <speed>1.5800316452527143</speed>
  <fix>3d</fix>
</trkpt>
<trkpt lat="40.071591" lon="-105.2297739">
  <ele>1583.0</ele>
  <time>2026-08-28T17:52:24Z</time>
  <course>108.34</course>
  <speed>1.51</speed>
  <fix>3d</fix>
</trkpt>
<trkpt lat="40.0715883" lon="-105.2297683">
  <ele>1583.11</ele>
  <time>2026-08-28T17:52:24Z</time>
  <course>135.14</course>
  <speed>1.5839823231336896</speed>
  <fix>3d</fix>
</trkpt>
<trkpt lat="40.0715898" lon="-105.2297708">
  <ele>1583.0</ele>
  <time>2026-08-28T17:52:24Z</time>
  <course>124.97</course>
  <speed>1.53</speed>
  <fix>3d</fix>
</trkpt>
<trkpt lat="40.0715872" lon="-105.2297671">
  <ele>1583.12</ele>
  <time>2026-08-28T17:52:24Z</time>
  <course>142.14</course>
  <speed>1.5822136391777186</speed>
  <fix>3d</fix>
</trkpt>
<trkpt lat="40.0715898" lon="-105.2297708">
  <ele>1583.0</ele>
  <time>2026-08-28T17:52:25Z</time>
  <course>124.97</course>
  <speed>1.53</speed>
  <fix>3d</fix>
</trkpt>
<trkpt lat="40.0715861" lon="-105.2297661">
  <ele>1583.12</ele>
  <time>2026-08-28T17:52:25Z</time>
  <course>148.49</course>
  <speed>1.5795252451290545</speed>
  <fix>3d</fix>
</trkpt>
<trkpt lat="40.0715879" lon="-105.2297681">
  <ele>1583.0</ele>
  <time>2026-08-28T17:52:25Z</time>
  <course>139.72</course>
  <speed>1.54</speed>
  <fix>3d</fix>
</trkpt>
<trkpt lat="40.0715848" lon="-105.2297652">
  <ele>1583.11</ele>
  <time>2026-08-28T17:52:25Z</time>
  <course>154.17</course>
  <speed>1.5787653403846944</speed>
  <fix>3d</fix>
</trkpt>
<trkpt lat="40.0715879" lon="-105.2297681">
  <ele>1583.0</ele>
  <time>2026-08-28T17:52:25Z</time>
  <course>139.72</course>
  <speed>1.54</speed>
  <fix>3d</fix>
</trkpt>
<trkpt lat="40.0715835" lon="-105.2297646">
  <ele>1583.11</ele>
  <time>2026-08-28T17:52:25Z</time>
  <course>159.19</course>
  <speed>1.5824032355881985</speed>
  <fix>3d</fix>
</trkpt>
<trkpt lat="40.0715856" lon="-105.2297661">
  <ele>1583.0</ele>
  <time>2026-08-28T17:52:25Z</time>
  <course>152.02</course>
  <speed>1.54</speed>
  <fix>3d</fix>
</trkpt>
<trkpt lat="40.0715822" lon="-105.229764">
  <ele>1583.11</ele>
  <time>2026-08-28T17:52:25Z</time>
  <course>163.59</course>
  <speed>1.5852129194527782</speed>
  <fix>3d</fix>
</trkpt>
<trkpt lat="40.0715856" lon="-105.2297661">
  <ele>1583.0</ele>
  <time>2026-08-28T17:52:25Z</time>
  <course>152.02</course>
  <speed>1.54</speed>
  <fix>3d</fix>
</trkpt>
<trkpt lat="40.0715808" lon="-105.2297636">
  <ele>1583.12</ele>
  <time>2026-08-28T17:52:25Z</time>
  <course>167.42</course>
  <speed>1.598780785473731</speed>
  <fix>3d</fix>
</trkpt>
<trkpt lat="40.071583" lon="-105.2297647">
  <ele>1583.0</ele>
  <time>2026-08-28T17:52:25Z</time>
  <course>161.76</course>
  <speed>1.56</speed>
  <fix>3d</fix>
</trkpt>
<trkpt lat="40.0715794" lon="-105.2297633">
  <ele>1583.12</ele>
  <time>2026-08-28T17:52:25Z</time>
  <course>170.73</course>
  <speed>1.6111176245079064</speed>
  <fix>3d</fix>
</trkpt>
<trkpt lat="40.071583" lon="-105.2297647">
  <ele>1583.0</ele>
  <time>2026-08-28T17:52:25Z</time>
  <course>161.76</course>
  <speed>1.56</speed>
  <fix>3d</fix>
</trkpt>
<trkpt lat="40.071578" lon="-105.229763">
  <ele>1583.12</ele>
  <time>2026-08-28T17:52:25Z</time>
  <course>173.61</course>
  <speed>1.629969324864735</speed>
  <fix>3d</fix>
</trkpt>
<trkpt lat="40.0715802" lon="-105.2297637">
  <ele>1583.0</ele>
  <time>2026-08-28T17:52:25Z</time>
  <course>169.17</course>
  <speed>1.59</speed>
  <fix>3d</fix>
</trkpt>
<trkpt lat="40.0715766" lon="-105.2297629">
  <ele>1583.13</ele>
  <time>2026-08-28T17:52:25Z</time>
  <course>176.15</course>
  <speed>1.6436848846418222</speed>
  <fix>3d</fix>
</trkpt>
<trkpt lat="40.0715802" lon="-105.2297637">
  <ele>1583.0</ele>
  <time>2026-08-28T17:52:25Z</time>
  <course>169.17</course>
  <speed>1.59</speed>
  <fix>3d</fix>
</trkpt>
<trkpt lat="40.0715751" lon="-105.2297628">
  <ele>1583.13</ele>
  <time>2026-08-28T17:52:25Z</time>
  <course>178.28</course>
  <speed>1.670748335327616</speed>
  <fix>3d</fix>
</trkpt>
<trkpt lat="40.0715774" lon="-105.2297632">
  <ele>1583.0</ele>
  <time>2026-08-28T17:52:25Z</time>
  <course>174.75</course>
  <speed>1.62</speed>
  <fix>3d</fix>
</trkpt>
<trkpt lat="40.0715739" lon="-105.2297628">
  <ele>1583.13</ele>
  <time>2026-08-28T17:52:25Z</time>
  <course>179.74</course>
  <speed>1.6900295855398508</speed>
  <fix>3d</fix>
</trkpt>
<trkpt lat="40.0715774" lon="-105.2297632">
  <ele>1583.0</ele>
  <time>2026-08-28T17:52:25Z</time>
  <course>174.75</course>
  <speed>1.62</speed>
  <fix>3d</fix>
</trkpt>
<trkpt lat="40.0715724" lon="-105.2297629">
  <ele>1583.14</ele>
  <time>2026-08-28T17:52:25Z</time>
  <course>181.28</course>
  <speed>1.7302600960549257</speed>
  <fix>3d</fix>
</trkpt>
<trkpt lat="40.0715744" lon="-105.229763">
  <ele>1583.0</ele>
  <time>2026-08-28T17:52:25Z</time>
  <course>178.84</course>
  <speed>1.68</speed>
  <fix>3d</fix>
</trkpt>
<trkpt lat="40.0715708" lon="-105.2297629">
  <ele>1583.14</ele>
  <time>2026-08-28T17:52:25Z</time>
  <course>182.55</course>
  <speed>1.7813758727455584</speed>
  <fix>3d</fix>
</trkpt>
<trkpt lat="40.0715744" lon="-105.229763">
  <ele>1583.0</ele>
  <time>2026-08-28T17:52:25Z</time>
  <course>178.84</course>
  <speed>1.68</speed>
  <fix>3d</fix>
</trkpt>
<trkpt lat="40.0715692" lon="-105.2297631">
  <ele>1583.14</ele>
  <time>2026-08-28T17:52:25Z</time>
  <course>183.59</course>
  <speed>1.8427153876819935</speed>
  <fix>3d</fix>
</trkpt>
<trkpt lat="40.0715713" lon="-105.229763">
  <ele>1583.0</ele>
  <time>2026-08-28T17:52:25Z</time>
  <course>181.68</course>
  <speed>1.77</speed>
  <fix>3d</fix>
</trkpt>
<trkpt lat="40.0715675" lon="-105.2297632">
  <ele>1583.14</ele>
  <time>2026-08-28T17:52:25Z</time>
  <course>184.46</course>
  <speed>1.9051509126575774</speed>
  <fix>3d</fix>
</trkpt>
<trkpt lat="40.0715713" lon="-105.229763">
  <ele>1583.0</ele>
  <time>2026-08-28T17:52:25Z</time>
  <course>181.68</course>
  <speed>1.77</speed>
  <fix>3d</fix>
</trkpt>
<trkpt lat="40.0715658" lon="-105.2297633">
  <ele>1583.14</ele>
  <time>2026-08-28T17:52:25Z</time>
  <course>185.18</course>
  <speed>1.9872845795205074</speed>
  <fix>3d</fix>
</trkpt>
<trkpt lat="40.071568" lon="-105.2297633">
  <ele>1583.0</ele>
  <time>2026-08-28T17:52:25Z</time>
  <course>183.62</course>
  <speed>1.9</speed>
  <fix>3d</fix>
</trkpt>
<trkpt lat="40.071564" lon="-105.2297636">
  <ele>1583.14</ele>
  <time>2026-08-28T17:52:25Z</time>
  <course>185.75</course>
  <speed>2.0687435800504614</speed>
  <fix>3d</fix>
</trkpt>
<trkpt lat="40.071568" lon="-105.2297633">
  <ele>1583.0</ele>
  <time>2026-08-28T17:52:25Z</time>
  <course>183.62</course>
  <speed>1.9</speed>
  <fix>3d</fix>
</trkpt>
<trkpt lat="40.071562" lon="-105.2297638">
  <ele>1583.15</ele>
  <time>2026-08-28T17:52:25Z</time>
  <course>186.22</course>
  <speed>2.161226503631676</speed>
  <fix>3d</fix>
</trkpt>
<trkpt lat="40.0715645" lon="-105.2297636">
  <ele>1583.0</ele>
  <time>2026-08-28T17:52:25Z</time>
  <course>184.93</course>
  <speed>2.06</speed>
  <fix>3d</fix>
</trkpt>
<trkpt lat="40.0715601" lon="-105.2297641">
  <ele>1583.15</ele>
  <time>2026-08-28T17:52:25Z</time>
  <course>186.59</course>
  <speed>2.2539077177204927</speed>
  <fix>3d</fix>
</trkpt>
<trkpt lat="40.0715645" lon="-105.2297636">
  <ele>1583.0</ele>
  <time>2026-08-28T17:52:25Z</time>
  <course>184.93</course>
  <speed>2.06</speed>
  <fix>3d</fix>
</trkpt>
<trkpt lat="40.0715576" lon="-105.2297645">
  <ele>1583.15</ele>
  <time>2026-08-28T17:52:25Z</time>
  <course>186.93</course>
  <speed>2.3654597861726585</speed>
  <fix>3d</fix>
</trkpt>
<trkpt lat="40.0715607" lon="-105.229764">
  <ele>1583.0</ele>
  <time>2026-08-28T17:52:25Z</time>
  <course>185.77</course>
  <speed>2.24</speed>
  <fix>3d</fix>
</trkpt>
<trkpt lat="40.0715554" lon="-105.2297648">
  <ele>1583.14</ele>
  <time>2026-08-28T17:52:25Z</time>
  <course>187.13</course>
  <speed>2.4671035649116964</speed>
  <fix>3d</fix>
</trkpt>
<trkpt lat="40.0715607" lon="-105.229764">
  <ele>1583.0</ele>
  <time>2026-08-28T17:52:25Z</time>
  <course>185.77</course>
  <speed>2.24</speed>
  <fix>3d</fix>
</trkpt>
<trkpt lat="40.0715531" lon="-105.2297652">
  <ele>1583.14</ele>
  <time>2026-08-28T17:52:25Z</time>
  <course>187.27</course>
  <speed>2.5787012234844116</speed>
  <fix>3d</fix>
</trkpt>
<trkpt lat="40.0715565" lon="-105.2297646">
  <ele>1583.0</ele>
  <time>2026-08-28T17:52:25Z</time>
  <course>186.27</course>
  <speed>2.43</speed>
  <fix>3d</fix>
</trkpt>
<trkpt lat="40.0715507" lon="-105.2297655">
  <ele>1583.14</ele>
  <time>2026-08-28T17:52:25Z</time>
  <course>187.37</course>
  <speed>2.680391762410861</speed>
  <fix>3d</fix>
</trkpt>
<trkpt lat="40.0715565" lon="-105.2297646">
  <ele>1583.0</ele>
  <time>2026-08-28T17:52:25Z</time>
  <course>186.27</course>
  <speed>2.43</speed>
  <fix>3d</fix>
</trkpt>
<trkpt lat="40.0715483" lon="-105.2297659">
  <ele>1583.14</ele>
  <time>2026-08-28T17:52:25Z</time>
  <course>187.42</course>
  <speed>2.790788419067271</speed>
  <fix>3d</fix>
</trkpt>
<trkpt lat="40.071552" lon="-105.2297652">
  <ele>1583.0</ele>
  <time>2026-08-28T17:52:25Z</time>
  <course>186.53</course>
  <speed>2.64</speed>
  <fix>3d</fix>
</trkpt>
<trkpt lat="40.0715457" lon="-105.2297663">
  <ele>1583.14</ele>
  <time>2026-08-28T17:52:25Z</time>
  <course>187.43</course>
  <speed>2.9024127893874776</speed>
  <fix>3d</fix>
</trkpt>
<trkpt lat="40.071552" lon="-105.2297652">
  <ele>1583.0</ele>
  <time>2026-08-28T17:52:25Z</time>
  <course>186.53</course>
  <speed>2.64</speed>
  <fix>3d</fix>
</trkpt>
<trkpt lat="40.0715431" lon="-105.2297667">
  <ele>1583.14</ele>
  <time>2026-08-28T17:52:25Z</time>
  <course>187.43</course>
  <speed>3.012806001056158</speed>
  <fix>3d</fix>
</trkpt>
<trkpt lat="40.0715471" lon="-105.2297659">
  <ele>1583.0</ele>
  <time>2026-08-28T17:52:25Z</time>
  <course>186.62</course>
  <speed>2.86</speed>
  <fix>3d</fix>
</trkpt>
<trkpt lat="40.0715403" lon="-105.2297672">
  <ele>1583.14</ele>
  <time>2026-08-28T17:52:25Z</time>
  <course>187.43</course>
  <speed>3.1232034836046147</speed>
  <fix>3d</fix>
</trkpt>
<trkpt lat="40.0715471" lon="-105.2297659">
  <ele>1583.0</ele>
  <time>2026-08-28T17:52:25Z</time>
  <course>186.62</course>
  <speed>2.86</speed>
  <fix>3d</fix>
</trkpt>
<trkpt lat="40.0715375" lon="-105.2297676">
  <ele>1583.14</ele>
  <time>2026-08-28T17:52:25Z</time>
  <course>187.39</course>
  <speed>3.2336047996005943</speed>
  <fix>3d</fix>
</trkpt>
<trkpt lat="40.0715417" lon="-105.2297667">
  <ele>1583.0</ele>
  <time>2026-08-28T17:52:25Z</time>
  <course>186.61</course>
  <speed>3.08</speed>
  <fix>3d</fix>
</trkpt>
<trkpt lat="40.0715346" lon="-105.229768">
  <ele>1583.15</ele>
  <time>2026-08-28T17:52:25Z</time>
  <course>187.33</course>
  <speed>3.3440095693642986</speed>
  <fix>3d</fix>
</trkpt>
<trkpt lat="40.0715417" lon="-105.2297667">
  <ele>1583.0</ele>
  <time>2026-08-28T17:52:25Z</time>
  <course>186.61</course>
  <speed>3.08</speed>
  <fix>3d</fix>
</trkpt>
<trkpt lat="40.0715316" lon="-105.2297685">
  <ele>1583.15</ele>
  <time>2026-08-28T17:52:25Z</time>
  <course>187.24</course>
  <speed>3.4544174617437307</speed>
  <fix>3d</fix>
</trkpt>
<trkpt lat="40.071536" lon="-105.2297676">
  <ele>1583.0</ele>
  <time>2026-08-28T17:52:25Z</time>
  <course>186.52</course>
  <speed>3.3</speed>
  <fix>3d</fix>
</trkpt>
<trkpt lat="40.0715285" lon="-105.2297689">
  <ele>1583.15</ele>
  <time>2026-08-28T17:52:25Z</time>
  <course>187.15</course>
  <speed>3.5636638449775258</speed>
  <fix>3d</fix>
</trkpt>
<trkpt lat="40.071536" lon="-105.2297676">
  <ele>1583.0</ele>
  <time>2026-08-28T17:52:25Z</time>
  <course>186.52</course>
  <speed>3.3</speed>
  <fix>3d</fix>
</trkpt>
<trkpt lat="40.0715259" lon="-105.2297693">
  <ele>1583.15</ele>
  <time>2026-08-28T17:52:25Z</time>
  <course>187.07</course>
  <speed>3.644283194264683</speed>
  <fix>3d</fix>
</trkpt>
<trkpt lat="40.0715299" lon="-105.2297685">
  <ele>1583.0</ele>
  <time>2026-08-28T17:52:25Z</time>
  <course>186.35</course>
  <speed>3.52</speed>
  <fix>3d</fix>
</trkpt>
<trkpt lat="40.0715226" lon="-105.2297698">
  <ele>1583.15</ele>
  <time>2026-08-28T17:52:25Z</time>
  <course>186.97</course>
  <speed>3.7535716324588773</speed>
  <fix>3d</fix>
</trkpt>
<trkpt lat="40.0715299" lon="-105.2297685">
  <ele>1583.0</ele>
  <time>2026-08-28T17:52:25Z</time>
  <course>186.35</course>
  <speed>3.52</speed>
  <fix>3d</fix>
</trkpt>
<trkpt lat="40.0715192" lon="-105.2297703">
  <ele>1583.15</ele>
  <time>2026-08-28T17:52:25Z</time>
  <course>186.87</course>
  <speed>3.864000517598309</speed>
  <fix>3d</fix>
</trkpt>
<trkpt lat="40.0715235" lon="-105.2297695">
  <ele>1583.0</ele>
  <time>2026-08-28T17:52:25Z</time>
  <course>186.16</course>
  <speed>3.74</speed>
  <fix>3d</fix>
</trkpt>
<trkpt lat="40.0715156" lon="-105.2297707">
  <ele>1583.15</ele>
  <time>2026-08-28T17:52:25Z</time>
  <course>186.76</course>
  <speed>3.973336129752931</speed>
  <fix>3d</fix>
</trkpt>
<trkpt lat="40.0715235" lon="-105.2297695">
  <ele>1583.0</ele>
  <time>2026-08-28T17:52:25Z</time>
  <course>186.16</course>
  <speed>3.74</speed>
  <fix>3d</fix>
</trkpt>
<trkpt lat="40.071512" lon="-105.2297712">
  <ele>1583.15</ele>
  <time>2026-08-28T17:52:25Z</time>
  <course>186.65</course>
  <speed>4.0738311207019855</speed>
  <fix>3d</fix>
</trkpt>
<trkpt lat="40.0715166" lon="-105.2297704">
  <ele>1583.0</ele>
  <time>2026-08-28T17:52:25Z</time>
  <course>185.95</course>
  <speed>3.95</speed>
  <fix>3d</fix>
</trkpt>
<trkpt lat="40.0715083" lon="-105.2297717">
  <ele>1583.15</ele>
  <time>2026-08-28T17:52:25Z</time>
  <course>186.54</course>
  <speed>4.173260116503643</speed>
  <fix>3d</fix>
</trkpt>
<trkpt lat="40.0715166" lon="-105.2297704">
  <ele>1583.0</ele>
  <time>2026-08-28T17:52:25Z</time>
  <course>185.95</course>
  <speed>3.95</speed>
  <fix>3d</fix>
</trkpt>
<trkpt lat="40.0715045" lon="-105.2297722">
  <ele>1583.15</ele>
  <time>2026-08-28T17:52:25Z</time>
  <course>186.42</course>
  <speed>4.272715764007711</speed>
  <fix>3d</fix>
</trkpt>
<trkpt lat="40.0715093" lon="-105.2297713">
  <ele>1583.0</ele>
  <time>2026-08-28T17:52:25Z</time>
  <course>185.73</course>
  <speed>4.15</speed>
  <fix>3d</fix>
</trkpt>
<trkpt lat="40.0715006" lon="-105.2297727">
  <ele>1583.15</ele>
  <time>2026-08-28T17:52:25Z</time>
  <course>186.34</course>
  <speed>4.362247127341595</speed>
  <fix>3d</fix>
</trkpt>
<trkpt lat="40.0715093" lon="-105.2297713">
  <ele>1583.0</ele>
  <time>2026-08-28T17:52:25Z</time>
  <course>185.73</course>
  <speed>4.15</speed>
  <fix>3d</fix>
</trkpt>
<trkpt lat="40.0714966" lon="-105.2297732">
  <ele>1583.15</ele>
  <time>2026-08-28T17:52:25Z</time>
  <course>186.28</course>
  <speed>4.441846462902562</speed>
  <fix>3d</fix>
</trkpt>
<trkpt lat="40.0715017" lon="-105.2297724">
  <ele>1583.0</ele>
  <time>2026-08-28T17:52:25Z</time>
  <course>185.55</course>
  <speed>4.33</speed>
  <fix>3d</fix>
</trkpt>
<trkpt lat="40.0714917" lon="-105.2297738">
  <ele>1583.15</ele>
  <time>2026-08-28T17:52:25Z</time>
  <course>186.21</course>
  <speed>4.522444029504401</speed>
  <fix>3d</fix>
</trkpt>
<trkpt lat="40.0715017" lon="-105.2297724">
  <ele>1583.0</ele>
  <time>2026-08-28T17:52:25Z</time>
  <course>185.55</course>
  <speed>4.33</speed>
  <fix>3d</fix>
</trkpt>
<trkpt lat="40.0714876" lon="-105.2297743">
  <ele>1583.15</ele>
  <time>2026-08-28T17:52:25Z</time>
  <course>186.14</course>
  <speed>4.572198595861733</speed>
  <fix>3d</fix>
</trkpt>
<trkpt lat="40.0714938" lon="-105.2297734">
  <ele>1583.0</ele>
  <time>2026-08-28T17:52:25Z</time>
  <course>185.42</course>
  <speed>4.47</speed>
  <fix>3d</fix>
</trkpt>
<trkpt lat="40.0714835" lon="-105.2297748">
  <ele>1583.15</ele>
  <time>2026-08-28T17:52:25Z</time>
  <course>186.08</course>
  <speed>4.620995563728664</speed>
  <fix>3d</fix>
</trkpt>
<trkpt lat="40.0714938" lon="-105.2297734">
  <ele>1583.0</ele>
  <time>2026-08-28T17:52:25Z</time>
  <course>185.42</course>
  <speed>4.47</speed>
  <fix>3d</fix>
</trkpt>
<trkpt lat="40.0714793" lon="-105.2297753">
  <ele>1583.15</ele>
  <time>2026-08-28T17:52:25Z</time>
  <course>186.02</course>
  <speed>4.650860135501819</speed>
  <fix>3d</fix>
</trkpt>
<trkpt lat="40.0714858" lon="-105.2297744">
  <ele>1583.0</ele>
  <time>2026-08-28T17:52:25Z</time>
  <course>185.3</course>
  <speed>4.57</speed>
  <fix>3d</fix>
</trkpt>
<trkpt lat="40.0714751" lon="-105.2297758">
  <ele>1583.15</ele>
  <time>2026-08-28T17:52:25Z</time>
  <course>185.95</course>
  <speed>4.670770814330329</speed>
  <fix>3d</fix>
</trkpt>
<trkpt lat="40.0714858" lon="-105.2297744">
  <ele>1583.0</ele>
  <time>2026-08-28T17:52:25Z</time>
  <course>185.3</course>
  <speed>4.57</speed>
  <fix>3d</fix>
</trkpt>
<trkpt lat="40.071471" lon="-105.2297763">
  <ele>1583.15</ele>
  <time>2026-08-28T17:52:25Z</time>
  <course>185.89</course>
  <speed>4.679797004144517</speed>
  <fix>3d</fix>
</trkpt>
<trkpt lat="40.0714775" lon="-105.2297754">
  <ele>1583.0</ele>
  <time>2026-08-28T17:52:25Z</time>
  <course>185.17</course>
  <speed>4.63</speed>
  <fix>3d</fix>
</trkpt>
<trkpt lat="40.0714668" lon="-105.2297768">
  <ele>1583.15</ele>
  <time>2026-08-28T17:52:25Z</time>
  <course>185.83</course>
  <speed>4.66892921342785</speed>
  <fix>3d</fix>
</trkpt>
<trkpt lat="40.0714775" lon="-105.2297754">
  <ele>1583.0</ele>
  <time>2026-08-28T17:52:25Z</time>
  <course>185.17</course>
  <speed>4.63</speed>
  <fix>3d</fix>
</trkpt>
<trkpt lat="40.0714627" lon="-105.2297773">
  <ele>1583.15</ele>
  <time>2026-08-28T17:52:25Z</time>
  <course>185.77</course>
  <speed>4.649010647438872</speed>
  <fix>3d</fix>
</trkpt>
<trkpt lat="40.0714692" lon="-105.2297763">
  <ele>1583.0</ele>
  <time>2026-08-28T17:52:25Z</time>
  <course>185.04</course>
  <speed>4.64</speed>
  <fix>3d</fix>
</trkpt>
<trkpt lat="40.0714586" lon="-105.2297777">
  <ele>1583.15</ele>
  <time>2026-08-28T17:52:25Z</time>
  <course>185.71</course>
  <speed>4.618235593817189</speed>
  <fix>3d</fix>
</trkpt>
<trkpt lat="40.0714692" lon="-105.2297763">
  <ele>1583.0</ele>
  <time>2026-08-28T17:52:25Z</time>
  <course>185.04</course>
  <speed>4.64</speed>
  <fix>3d</fix>
</trkpt>
<trkpt lat="40.0714545" lon="-105.2297782">
  <ele>1583.16</ele>
  <time>2026-08-28T17:52:25Z</time>
  <course>185.69</course>
  <speed>4.57751024029439</speed>
  <fix>3d</fix>
</trkpt>
<trkpt lat="40.0714609" lon="-105.2297773">
  <ele>1583.0</ele>
  <time>2026-08-28T17:52:25Z</time>
  <course>184.94</course>
  <speed>4.6</speed>
  <fix>3d</fix>
</trkpt>
<trkpt lat="40.0714505" lon="-105.2297786">
  <ele>1583.16</ele>
  <time>2026-08-28T17:52:25Z</time>
  <course>185.67</course>
  <speed>4.526831121214928</speed>
  <fix>3d</fix>
</trkpt>
<trkpt lat="40.0714609" lon="-105.2297773">
  <ele>1583.0</ele>
  <time>2026-08-28T17:52:25Z</time>
  <course>184.94</course>
  <speed>4.6</speed>
  <fix>3d</fix>
</trkpt>
<trkpt lat="40.0714473" lon="-105.229779">
  <ele>1583.16</ele>
  <time>2026-08-28T17:52:25Z</time>
  <course>185.67</course>
  <speed>4.477019097569274</speed>
  <fix>3d</fix>
</trkpt>
<trkpt lat="40.0714528" lon="-105.2297782">
  <ele>1583.0</ele>
  <time>2026-08-28T17:52:25Z</time>
  <course>184.88</course>
  <speed>4.51</speed>
  <fix>3d</fix>
</trkpt>
<trkpt lat="40.0714434" lon="-105.2297794">
  <ele>1583.16</ele>
  <time>2026-08-28T17:52:25Z</time>
  <course>185.67</course>
  <speed>4.396453115865106</speed>
  <fix>3d</fix>
</trkpt>
<trkpt lat="40.0714528" lon="-105.2297782">
  <ele>1583.0</ele>
  <time>2026-08-28T17:52:25Z</time>
  <course>184.88</course>
  <speed>4.51</speed>
  <fix>3d</fix>
</trkpt>
<trkpt lat="40.0714395" lon="-105.2297798">
  <ele>1583.16</ele>
  <time>2026-08-28T17:52:25Z</time>
  <course>185.67</course>
  <speed>4.315889247883917</speed>
  <fix>3d</fix>
</trkpt>
<trkpt lat="40.0714448" lon="-105.2297791">
  <ele>1583.0</ele>
  <time>2026-08-28T17:52:25Z</time>
  <course>184.87</course>
  <speed>4.38</speed>
  <fix>3d</fix>
</trkpt>
<trkpt lat="40.0714357" lon="-105.2297802">
  <ele>1583.16</ele>
  <time>2026-08-28T17:52:25Z</time>
  <course>185.67</course>
  <speed>4.215400336860071</speed>
  <fix>3d</fix>
</trkpt>
<trkpt lat="40.0714448" lon="-105.2297791">
  <ele>1583.0</ele>
  <time>2026-08-28T17:52:25Z</time>
  <course>184.87</course>
  <speed>4.38</speed>
  <fix>3d</fix>
</trkpt>
<trkpt lat="40.071432" lon="-105.2297806">
  <ele>1583.16</ele>
  <time>2026-08-28T17:52:25Z</time>
  <course>185.67</course>
  <speed>4.104948233534742</speed>
  <fix>3d</fix>
</trkpt>
<trkpt lat="40.0714371" lon="-105.2297799">
  <ele>1583.0</ele>
  <time>2026-08-28T17:52:25Z</time>
  <course>184.87</course>
  <speed>4.21</speed>
  <fix>3d</fix>
</trkpt>
<trkpt lat="40.0714284" lon="-105.229781">
  <ele>1583.16</ele>
  <time>2026-08-28T17:52:25Z</time>
  <course>185.67</course>
  <speed>3.994496213541828</speed>
  <fix>3d</fix>
</trkpt>
<trkpt lat="40.0714371" lon="-105.2297799">
  <ele>1583.0</ele>
  <time>2026-08-28T17:52:25Z</time>
  <course>184.87</course>
  <speed>4.21</speed>
  <fix>3d</fix>
</trkpt>
<trkpt lat="40.0714195" lon="-105.2297819">
  <ele>1583.15</ele>
  <time>2026-08-28T17:52:25Z</time>
  <course>185.67</course>
  <speed>3.6523417145716253</speed>
  <fix>3d</fix>
</trkpt>
<trkpt lat="40.0714298" lon="-105.2297807">
  <ele>1583.0</ele>
  <time>2026-08-28T17:52:25Z</time>
  <course>184.87</course>
  <speed>3.99</speed>
  <fix>3d</fix>
</trkpt>
<trkpt lat="40.0714163" lon="-105.2297823">
  <ele>1583.15</ele>
  <time>2026-08-28T17:52:25Z</time>
  <course>185.67</course>
  <speed>3.5119937357575113</speed>
  <fix>3d</fix>
</trkpt>
<trkpt lat="40.0714228" lon="-105.2297815">
  <ele>1583.0</ele>
  <time>2026-08-28T17:52:25Z</time>
  <course>184.87</course>
  <speed>3.74</speed>
  <fix>3d</fix>
</trkpt>
<trkpt lat="40.0714126" lon="-105.2297827">
  <ele>1583.15</ele>
  <time>2026-08-28T17:52:25Z</time>
  <course>185.67</course>
  <speed>3.3508954027244715</speed>
  <fix>3d</fix>
</trkpt>
<trkpt lat="40.0714228" lon="-105.2297815">
  <ele>1583.0</ele>
  <time>2026-08-28T17:52:25Z</time>
  <course>184.87</course>
  <speed>3.74</speed>
  <fix>3d</fix>
</trkpt>
<trkpt lat="40.0714097" lon="-105.229783">
  <ele>1583.15</ele>
  <time>2026-08-28T17:52:25Z</time>
  <course>185.68</course>
  <speed>3.200578072786227</speed>
  <fix>3d</fix>
</trkpt>
<trkpt lat="40.0714163" lon="-105.2297822">
  <ele>1583.0</ele>
  <time>2026-08-28T17:52:25Z</time>
  <course>184.87</course>
  <speed>3.47</speed>
  <fix>3d</fix>
</trkpt>
<trkpt lat="40.0714069" lon="-105.2297833">
  <ele>1583.15</ele>
  <time>2026-08-28T17:52:25Z</time>
  <course>185.68</course>
  <speed>3.060228749619871</speed>
  <fix>3d</fix>
</trkpt>
<trkpt lat="40.0714163" lon="-105.2297822">
  <ele>1583.0</ele>
  <time>2026-08-28T17:52:25Z</time>
  <course>184.87</course>
  <speed>3.47</speed>
  <fix>3d</fix>
</trkpt>
<trkpt lat="40.0714043" lon="-105.2297836">
  <ele>1583.15</ele>
  <time>2026-08-28T17:52:25Z</time>
  <course>185.67</course>
  <speed>2.9190751960167107</speed>
  <fix>3d</fix>
</trkpt>
<trkpt lat="40.0714104" lon="-105.2297829">
  <ele>1583.0</ele>
  <time>2026-08-28T17:52:25Z</time>
  <course>184.87</course>
  <speed>3.2</speed>
  <fix>3d</fix>
</trkpt>
<trkpt lat="40.0714017" lon="-105.2297838">
  <ele>1583.15</ele>
  <time>2026-08-28T17:52:25Z</time>
  <course>185.67</course>
  <speed>2.778722728161268</speed>
  <fix>3d</fix>
</trkpt>
<trkpt lat="40.0714104" lon="-105.2297829">
  <ele>1583.0</ele>
  <time>2026-08-28T17:52:25Z</time>
  <course>184.87</course>
  <speed>3.2</speed>
  <fix>3d</fix>
</trkpt>
<trkpt lat="40.0713993" lon="-105.2297841">
  <ele>1583.16</ele>
  <time>2026-08-28T17:52:25Z</time>
  <course>185.67</course>
  <speed>2.6383707093583344</speed>
  <fix>3d</fix>
</trkpt>
<trkpt lat="40.0714049" lon="-105.2297835">
  <ele>1583.0</ele>
  <time>2026-08-28T17:52:25Z</time>
  <course>184.87</course>
  <speed>2.92</speed>
  <fix>3d</fix>
</trkpt>
<trkpt lat="40.0713971" lon="-105.2297843">
  <ele>1583.16</ele>
  <time>2026-08-28T17:52:25Z</time>
  <course>185.7</course>
  <speed>2.498019215298393</speed>
  <fix>3d</fix>
</trkpt>
<trkpt lat="40.0714049" lon="-105.2297835">
  <ele>1583.0</ele>
  <time>2026-08-28T17:52:25Z</time>
  <course>184.87</course>
  <speed>2.92</speed>
  <fix>3d</fix>
</trkpt>
<trkpt lat="40.0713949" lon="-105.2297845">
  <ele>1583.16</ele>
  <time>2026-08-28T17:52:25Z</time>
  <course>185.73</course>
  <speed>2.366854452643846</speed>
  <fix>3d</fix>
</trkpt>
<trkpt lat="40.0713998" lon="-105.229784">
  <ele>1583.0</ele>
  <time>2026-08-28T17:52:25Z</time>
  <course>184.89</course>
  <speed>2.65</speed>
  <fix>3d</fix>
</trkpt>
<trkpt lat="40.0713929" lon="-105.2297847">
  <ele>1583.16</ele>
  <time>2026-08-28T17:52:25Z</time>
  <course>185.77</course>
  <speed>2.2364704335179573</speed>
  <fix>3d</fix>
</trkpt>
<trkpt lat="40.0713998" lon="-105.229784">
  <ele>1583.0</ele>
  <time>2026-08-28T17:52:25Z</time>
  <course>184.89</course>
  <speed>2.65</speed>
  <fix>3d</fix>
</trkpt>
<trkpt lat="40.071391" lon="-105.229785">
  <ele>1583.15</ele>
  <time>2026-08-28T17:52:25Z</time>
  <course>185.83</course>
  <speed>2.1168372634664196</speed>
  <fix>3d</fix>
</trkpt>
<trkpt lat="40.0713954" lon="-105.2297846">
  <ele>1583.0</ele>
  <time>2026-08-28T17:52:25Z</time>
  <course>184.94</course>
  <speed>2.39</speed>
  <fix>3d</fix>
</trkpt>
<trkpt lat="40.0713892" lon="-105.2297852">
  <ele>1583.15</ele>
  <time>2026-08-28T17:52:25Z</time>
  <course>185.95</course>
  <speed>1.986454127333425</speed>
  <fix>3d</fix>
</trkpt>
<trkpt lat="40.0713954" lon="-105.2297846">
  <ele>1583.0</ele>
  <time>2026-08-28T17:52:25Z</time>
  <course>184.94</course>
  <speed>2.39</speed>
  <fix>3d</fix>
</trkpt>
<trkpt lat="40.0713874" lon="-105.2297854">
  <ele>1583.15</ele>
  <time>2026-08-28T17:52:25Z</time>
  <course>186.04</course>
  <speed>1.8660385848100784</speed>
  <fix>3d</fix>
</trkpt>
<trkpt lat="40.0713913" lon="-105.229785">
  <ele>1583.0</ele>
  <time>2026-08-28T17:52:25Z</time>
  <course>185.07</course>
  <speed>2.14</speed>
  <fix>3d</fix>
</trkpt>
<trkpt lat="40.0713862" lon="-105.2297855">
  <ele>1583.15</ele>
  <time>2026-08-28T17:52:25Z</time>
  <course>186.08</course>
  <speed>1.7755280904564703</speed>
  <fix>3d</fix>
</trkpt>
<trkpt lat="40.0713913" lon="-105.229785">
  <ele>1583.0</ele>
  <time>2026-08-28T17:52:25Z</time>
  <course>185.07</course>
  <speed>2.14</speed>
  <fix>3d</fix>
</trkpt>
<trkpt lat="40.0713846" lon="-105.2297857">
  <ele>1583.15</ele>
  <time>2026-08-28T17:52:25Z</time>
  <course>186.08</course>
  <speed>1.6551132891738862</speed>
  <fix>3d</fix>
</trkpt>
<trkpt lat="40.0713877" lon="-105.2297854">
  <ele>1583.0</ele>
  <time>2026-08-28T17:52:25Z</time>
  <course>185.23</course>
  <speed>1.91</speed>
  <fix>3d</fix>
</trkpt>
<trkpt lat="40.0713832" lon="-105.2297858">
  <ele>1583.15</ele>
  <time>2026-08-28T17:52:25Z</time>
  <course>186.05</course>
  <speed>1.54466824917197</speed>
  <fix>3d</fix>
</trkpt>
<trkpt lat="40.0713877" lon="-105.2297854">
  <ele>1583.0</ele>
  <time>2026-08-28T17:52:25Z</time>
  <course>185.23</course>
  <speed>1.91</speed>
  <fix>3d</fix>
</trkpt>
<trkpt lat="40.0713819" lon="-105.229786">
  <ele>1583.15</ele>
  <time>2026-08-28T17:52:25Z</time>
  <course>185.95</course>
  <speed>1.444195277654653</speed>
  <fix>3d</fix>
</trkpt>
<trkpt lat="40.0713844" lon="-105.2297859">
  <ele>1583.0</ele>
  <time>2026-08-28T17:52:25Z</time>
  <course>185.26</course>
  <speed>1.68</speed>
  <fix>3d</fix>
</trkpt>
<trkpt lat="40.0713806" lon="-105.2297861">
  <ele>1583.14</ele>
  <time>2026-08-28T17:52:25Z</time>
  <course>185.78</course>
  <speed>1.3337541002748594</speed>
  <fix>3d</fix>
</trkpt>
<trkpt lat="40.0713844" lon="-105.2297859">
  <ele>1583.0</ele>
  <time>2026-08-28T17:52:25Z</time>
  <course>185.26</course>
  <speed>1.68</speed>
  <fix>3d</fix>
</trkpt>
<trkpt lat="40.0713794" lon="-105.2297863">
  <ele>1583.14</ele>
  <time>2026-08-28T17:52:25Z</time>
  <course>185.54</course>
  <speed>1.2432618388738552</speed>
  <fix>3d</fix>
</trkpt>
<trkpt lat="40.0713816" lon="-105.2297862">
  <ele>1583.0</ele>
  <time>2026-08-28T17:52:25Z</time>
  <course>185.07</course>
  <speed>1.47</speed>
  <fix>3d</fix>
</trkpt>
<trkpt lat="40.0713783" lon="-105.2297864">
  <ele>1583.14</ele>
  <time>2026-08-28T17:52:25Z</time>
  <course>185.22</course>
  <speed>1.152128465059344</speed>
  <fix>3d</fix>
</trkpt>
<trkpt lat="40.0713816" lon="-105.2297862">
  <ele>1583.0</ele>
  <time>2026-08-28T17:52:25Z</time>
  <course>185.07</course>
  <speed>1.47</speed>
  <fix>3d</fix>
</trkpt>
<trkpt lat="40.0713773" lon="-105.2297865">
  <ele>1583.14</ele>
  <time>2026-08-28T17:52:25Z</time>
  <course>184.85</course>
  <speed>1.0816653826391969</speed>
  <fix>3d</fix>
</trkpt>
<trkpt lat="40.0713792" lon="-105.2297864">
  <ele>1583.0</ele>
  <time>2026-08-28T17:52:25Z</time>
  <course>184.61</course>
  <speed>1.29</speed>
  <fix>3d</fix>
</trkpt>
<trkpt lat="40.0713763" lon="-105.2297866">
  <ele>1583.14</ele>
  <time>2026-08-28T17:52:25Z</time>
  <course>184.44</course>
  <speed>1.0212247548899311</speed>
  <fix>3d</fix>
</trkpt>
<trkpt lat="40.0713792" lon="-105.2297864">
  <ele>1583.0</ele>
  <time>2026-08-28T17:52:25Z</time>
  <course>184.61</course>
  <speed>1.29</speed>
  <fix>3d</fix>
</trkpt>
<trkpt lat="40.0713752" lon="-105.2297867">
  <ele>1583.14</ele>
  <time>2026-08-28T17:52:25Z</time>
  <course>183.9</course>
  <speed>0.9608329719571451</speed>
  <fix>3d</fix>
</trkpt>
<trkpt lat="40.071377" lon="-105.2297867">
  <ele>1583.0</ele>
  <time>2026-08-28T17:52:25Z</time>
  <course>183.9</course>
  <speed>1.14</speed>
  <fix>3d</fix>
</trkpt>
<trkpt lat="40.0713743" lon="-105.2297867">
  <ele>1583.14</ele>
  <time>2026-08-28T17:52:25Z</time>
  <course>183.45</course>
  <speed>0.9304837451562494</speed>
  <fix>3d</fix>
</trkpt>
<trkpt lat="40.071377" lon="-105.2297867">
  <ele>1583.0</ele>
  <time>2026-08-28T17:52:25Z</time>
  <course>183.9</course>
  <speed>1.14</speed>
  <fix>3d</fix>
</trkpt>
<trkpt lat="40.0713735" lon="-105.2297868">
  <ele>1583.14</ele>
  <time>2026-08-28T17:52:25Z</time>
  <course>183.0</course>
  <speed>0.910494371207203</speed>
  <fix>3d</fix>
</trkpt>
<trkpt lat="40.071375" lon="-105.2297868">
  <ele>1583.0</ele>
  <time>2026-08-28T17:52:25Z</time>
  <course>183.03</course>
  <speed>1.04</speed>
  <fix>3d</fix>
</trkpt>
<trkpt lat="40.0713726" lon="-105.2297868">
  <ele>1583.14</ele>
  <time>2026-08-28T17:52:25Z</time>
  <course>182.58</course>
  <speed>0.9102197536858887</speed>
  <fix>3d</fix>
</trkpt>
<trkpt lat="40.071375" lon="-105.2297868">
  <ele>1583.0</ele>
  <time>2026-08-28T17:52:25Z</time>
  <course>183.03</course>
  <speed>1.04</speed>
  <fix>3d</fix>
</trkpt>
<trkpt lat="40.0713718" lon="-105.2297869">
  <ele>1583.14</ele>
  <time>2026-08-28T17:52:25Z</time>
  <course>182.18</course>
  <speed>0.9202173656261873</speed>
  <fix>3d</fix>
</trkpt>
<trkpt lat="40.0713732" lon="-105.2297869">
  <ele>1583.0</ele>
  <time>2026-08-28T17:52:25Z</time>
  <course>182.13</course>
  <speed>0.99</speed>
  <fix>3d</fix>
</trkpt>
<trkpt lat="40.0713709" lon="-105.2297869">
  <ele>1583.14</ele>
  <time>2026-08-28T17:52:25Z</time>
  <course>181.81</course>
  <speed>0.9400531899844816</speed>
  <fix>3d</fix>
</trkpt>
<trkpt lat="40.0713732" lon="-105.2297869">
  <ele>1583.0</ele>
  <time>2026-08-28T17:52:25Z</time>
  <course>182.13</course>
  <speed>0.99</speed>
  <fix>3d</fix>
</trkpt>
<trkpt lat="40.0713699" lon="-105.2297869">
  <ele>1583.14</ele>
  <time>2026-08-28T17:52:25Z</time>
  <course>181.49</course>
  <speed>0.9800510190801294</speed>
  <fix>3d</fix>
</trkpt>
<trkpt lat="40.0713714" lon="-105.229787">
  <ele>1583.0</ele>
  <time>2026-08-28T17:52:25Z</time>
  <course>181.31</course>
  <speed>1.01</speed>
  <fix>3d</fix>
</trkpt>
<trkpt lat="40.071369" lon="-105.2297869">
  <ele>1583.14</ele>
  <time>2026-08-28T17:52:25Z</time>
  <course>181.21</course>
  <speed>1.0400480758118829</speed>
  <fix>3d</fix>
</trkpt>
<trkpt lat="40.0713714" lon="-105.229787">
  <ele>1583.0</ele>
  <time>2026-08-28T17:52:25Z</time>
  <course>181.31</course>
  <speed>1.01</speed>
  <fix>3d</fix>
</trkpt>
<trkpt lat="40.071368" lon="-105.229787">
  <ele>1583.14</ele>
  <time>2026-08-28T17:52:25Z</time>
  <course>181.0</course>
  <speed>1.110045044131093</speed>
  <fix>3d</fix>
</trkpt>
<trkpt lat="40.0713695" lon="-105.2297871">
  <ele>1583.0</ele>
  <time>2026-08-28T17:52:25Z</time>
  <course>180.63</course>
  <speed>1.08</speed>
  <fix>3d</fix>
</trkpt>
<trkpt lat="40.0713669" lon="-105.229787">
  <ele>1583.14</ele>
  <time>2026-08-28T17:52:25Z</time>
  <course>180.85</course>
  <speed>1.1900420160649792</speed>
  <fix>3d</fix>
</trkpt>
<trkpt lat="40.0713695" lon="-105.2297871">
  <ele>1583.0</ele>
  <time>2026-08-28T17:52:25Z</time>
  <course>180.63</course>
  <speed>1.08</speed>
  <fix>3d</fix>
</trkpt>
<trkpt lat="40.0713657" lon="-105.229787">
  <ele>1583.14</ele>
  <time>2026-08-28T17:52:25Z</time>
  <course>180.76</course>
  <speed>1.2900387591076479</speed>
  <fix>3d</fix>
</trkpt>
<trkpt lat="40.0713674" lon="-105.2297871">
  <ele>1583.0</ele>
  <time>2026-08-28T17:52:25Z</time>
  <course>180.18</course>
  <speed>1.21</speed>
  <fix>3d</fix>
</trkpt>
<trkpt lat="40.0713647" lon="-105.229787">
  <ele>1583.14</ele>
  <time>2026-08-28T17:52:25Z</time>
  <course>180.71</course>
  <speed>1.3800362314084367</speed>
  <fix>3d</fix>
</trkpt>
<trkpt lat="40.0713674" lon="-105.2297871">
  <ele>1583.0</ele>
  <time>2026-08-28T17:52:25Z</time>
  <course>180.18</course>
  <speed>1.21</speed>
  <fix>3d</fix>
</trkpt>
<trkpt lat="40.0713633" lon="-105.2297871">
  <ele>1583.14</ele>
  <time>2026-08-28T17:52:25Z</time>
  <course>180.65</course>
  <speed>1.5000333329629711</speed>
  <fix>3d</fix>
</trkpt>
<trkpt lat="40.0713651" lon="-105.2297871">
  <ele>1583.0</ele>
  <time>2026-08-28T17:52:25Z</time>
  <course>179.94</course>
  <speed>1.39</speed>
  <fix>3d</fix>
</trkpt>
<trkpt lat="40.0713618" lon="-105.2297871">
  <ele>1583.14</ele>
  <time>2026-08-28T17:52:25Z</time>
  <course>180.61</course>
  <speed>1.6300306745579973</speed>
  <fix>3d</fix>
</trkpt>
<trkpt lat="40.0713651" lon="-105.2297871">
  <ele>1583.0</ele>
  <time>2026-08-28T17:52:25Z</time>
  <course>179.94</course>
  <speed>1.39</speed>
  <fix>3d</fix>
</trkpt>
<trkpt lat="40.0713602" lon="-105.2297871">
  <ele>1583.14</ele>
  <time>2026-08-28T17:52:25Z</time>
  <course>180.57</course>
  <speed>1.7701129907438113</speed>
  <fix>3d</fix>
</trkpt>
<trkpt lat="40.0713624" lon="-105.2297871">
  <ele>1583.0</ele>
  <time>2026-08-28T17:52:25Z</time>
  <course>179.82</course>
  <speed>1.62</speed>
  <fix>3d</fix>
</trkpt>
<trkpt lat="40.0713584" lon="-105.2297871">
  <ele>1583.15</ele>
  <time>2026-08-28T17:52:25Z</time>
  <course>180.52</course>
  <speed>1.910104709171725</speed>
  <fix>3d</fix>
</trkpt>
<trkpt lat="40.0713624" lon="-105.2297871">
  <ele>1583.0</ele>
  <time>2026-08-28T17:52:25Z</time>
  <course>179.82</course>
  <speed>1.62</speed>
  <fix>3d</fix>
</trkpt>
<trkpt lat="40.0713566" lon="-105.2297871">
  <ele>1583.15</ele>
  <time>2026-08-28T17:52:25Z</time>
  <course>180.47</course>
  <speed>2.0600970850908946</speed>
  <fix>3d</fix>
</trkpt>
<trkpt lat="40.0713593" lon="-105.2297871">
  <ele>1583.0</ele>
  <time>2026-08-28T17:52:25Z</time>
  <course>179.72</course>
  <speed>1.88</speed>
  <fix>3d</fix>
</trkpt>
<trkpt lat="40.0713546" lon="-105.2297872">
  <ele>1583.15</ele>
  <time>2026-08-28T17:52:25Z</time>
  <course>180.45</course>
  <speed>2.2000909072126995</speed>
  <fix>3d</fix>
</trkpt>
<trkpt lat="40.0713593" lon="-105.2297871">
  <ele>1583.0</ele>
  <time>2026-08-28T17:52:25Z</time>
  <course>179.72</course>
  <speed>1.88</speed>
  <fix>3d</fix>
</trkpt>
<trkpt lat="40.0713524" lon="-105.2297872">
  <ele>1583.15</ele>
  <time>2026-08-28T17:52:25Z</time>
  <course>180.42</course>
  <speed>2.360084744241189</speed>
  <fix>3d</fix>
</trkpt>
<trkpt lat="40.0713556" lon="-105.2297871">
  <ele>1583.0</ele>
  <time>2026-08-28T17:52:25Z</time>
  <course>179.63</course>
  <speed>2.17</speed>
  <fix>3d</fix>
</trkpt>
<trkpt lat="40.0713501" lon="-105.2297872">
  <ele>1583.15</ele>
  <time>2026-08-28T17:52:25Z</time>
  <course>180.38</course>
  <speed>2.5100796800101786</speed>
  <fix>3d</fix>
</trkpt>
<trkpt lat="40.0713556" lon="-105.2297871">
  <ele>1583.0</ele>
  <time>2026-08-28T17:52:25Z</time>
  <course>179.63</course>
  <speed>2.17</speed>
  <fix>3d</fix>
</trkpt>
<trkpt lat="40.0713477" lon="-105.2297872">
  <ele>1583.15</ele>
  <time>2026-08-28T17:52:25Z</time>
  <course>180.35</course>
  <speed>2.660075186907317</speed>
  <fix>3d</fix>
</trkpt>
<trkpt lat="40.0713515" lon="-105.2297871">
  <ele>1583.0</ele>
  <time>2026-08-28T17:52:25Z</time>
  <course>179.56</course>
  <speed>2.46</speed>
  <fix>3d</fix>
</trkpt>
<trkpt lat="40.0713446" lon="-105.2297872">
  <ele>1583.14</ele>
  <time>2026-08-28T17:52:25Z</time>
  <course>180.3</course>
  <speed>2.840070421662111</speed>
  <fix>3d</fix>
</trkpt>
<trkpt lat="40.0713515" lon="-105.2297871">
  <ele>1583.0</ele>
  <time>2026-08-28T17:52:25Z</time>
  <course>179.56</course>
  <speed>2.46</speed>
  <fix>3d</fix>
</trkpt>
<trkpt lat="40.0713419" lon="-105.2297872">
  <ele>1583.14</ele>
  <time>2026-08-28T17:52:25Z</time>
  <course>180.27</course>
  <speed>2.980067113338221</speed>
  <fix>3d</fix>
</trkpt>
<trkpt lat="40.0713468" lon="-105.229787">
  <ele>1583.0</ele>
  <time>2026-08-28T17:52:25Z</time>
  <course>179.49</course>
  <speed>2.75</speed>
  <fix>3d</fix>
</trkpt>
<trkpt lat="40.0713391" lon="-105.2297872">
  <ele>1583.14</ele>
  <time>2026-08-28T17:52:25Z</time>
  <course>180.25</course>
  <speed>3.1200641019056</speed>
  <fix>3d</fix>
</trkpt>
<trkpt lat="40.0713468" lon="-105.229787">
  <ele>1583.0</ele>
  <time>2026-08-28T17:52:25Z</time>
  <course>179.49</course>
  <speed>2.75</speed>
  <fix>3d</fix>
</trkpt>
<trkpt lat="40.0713361" lon="-105.2297872">
  <ele>1583.14</ele>
  <time>2026-08-28T17:52:25Z</time>
  <course>180.24</course>
  <speed>3.2600613491159947</speed>
  <fix>3d</fix>
</trkpt>
<trkpt lat="40.0713416" lon="-105.229787">
  <ele>1583.0</ele>
  <time>2026-08-28T17:52:25Z</time>
  <course>179.44</course>
  <speed>3.03</speed>
  <fix>3d</fix>
</trkpt>
<trkpt lat="40.071333" lon="-105.2297872">
  <ele>1583.13</ele>
  <time>2026-08-28T17:52:25Z</time>
  <course>180.24</course>
  <speed>3.3900589965367858</speed>
  <fix>3d</fix>
</trkpt>
<trkpt lat="40.0713416" lon="-105.229787">
  <ele>1583.0</ele>
  <time>2026-08-28T17:52:25Z</time>
  <course>179.44</course>
  <speed>3.03</speed>
  <fix>3d</fix>
</trkpt>
<trkpt lat="40.0713299" lon="-105.2297872">
  <ele>1583.13</ele>
  <time>2026-08-28T17:52:25Z</time>
  <course>180.23</course>
  <speed>3.5200568177232596</speed>
  <fix>3d</fix>
</trkpt>
<trkpt lat="40.0713359" lon="-105.2297869">
  <ele>1583.0</ele>
  <time>2026-08-28T17:52:25Z</time>
  <course>179.42</course>
  <speed>3.3</speed>
  <fix>3d</fix>
</trkpt>
<trkpt lat="40.0713266" lon="-105.2297872">
  <ele>1583.13</ele>
  <time>2026-08-28T17:52:25Z</time>
  <course>180.23</course>
  <speed>3.650054794109261</speed>
  <fix>3d</fix>
</trkpt>
<trkpt lat="40.0713359" lon="-105.2297869">
  <ele>1583.0</ele>
  <time>2026-08-28T17:52:25Z</time>
  <course>179.42</course>
  <speed>3.3</speed>
  <fix>3d</fix>
</trkpt>
<trkpt lat="40.0713232" lon="-105.2297872">
  <ele>1583.13</ele>
  <time>2026-08-28T17:52:25Z</time>
  <course>180.22</course>
  <speed>3.7700530500246283</speed>
  <fix>3d</fix>
</trkpt>
<trkpt lat="40.0713298" lon="-105.2297868">
  <ele>1583.0</ele>
  <time>2026-08-28T17:52:25Z</time>
  <course>179.42</course>
  <speed>3.55</speed>
  <fix>3d</fix>
</trkpt>
<trkpt lat="40.0713198" lon="-105.2297871">
  <ele>1583.13</ele>
  <time>2026-08-28T17:52:25Z</time>
  <course>180.21</course>
  <speed>3.8900514135419852</speed>
  <fix>3d</fix>
</trkpt>
<trkpt lat="40.0713298" lon="-105.2297868">
  <ele>1583.0</ele>
  <time>2026-08-28T17:52:25Z</time>
  <course>179.42</course>
  <speed>3.55</speed>
  <fix>3d</fix>
</trkpt>
<trkpt lat="40.0713162" lon="-105.2297871">
  <ele>1583.13</ele>
  <time>2026-08-28T17:52:25Z</time>
  <course>180.2</course>
  <speed>4.000049999687504</speed>
  <fix>3d</fix>
</trkpt>
<trkpt lat="40.0713231" lon="-105.2297867">
  <ele>1583.0</ele>
  <time>2026-08-28T17:52:25Z</time>
  <course>179.42</course>
  <speed>3.79</speed>
  <fix>3d</fix>
</trkpt>
<trkpt lat="40.0713125" lon="-105.2297871">
  <ele>1583.12</ele>
  <time>2026-08-28T17:52:25Z</time>
  <course>180.19</course>
  <speed>4.110048661512415</speed>
  <fix>3d</fix>
</trkpt>
<trkpt lat="40.0713231" lon="-105.2297867">
  <ele>1583.0</ele>
  <time>2026-08-28T17:52:25Z</time>
  <course>179.42</course>
  <speed>3.79</speed>
  <fix>3d</fix>
</trkpt>
<trkpt lat="40.0713095" lon="-105.2297871">
  <ele>1583.12</ele>
  <time>2026-08-28T17:52:25Z</time>
  <course>180.18</course>
  <speed>4.200047618777673</speed>
  <fix>3d</fix>
</trkpt>
<trkpt lat="40.0713161" lon="-105.2297866">
  <ele>1583.0</ele>
  <time>2026-08-28T17:52:25Z</time>
  <course>179.42</course>
  <speed>4.02</speed>
  <fix>3d</fix>
</trkpt>
<trkpt lat="40.0713057" lon="-105.2297871">
  <ele>1583.12</ele>
  <time>2026-08-28T17:52:25Z</time>
  <course>180.17</course>
  <speed>4.30004651137636</speed>
  <fix>3d</fix>
</trkpt>
<trkpt lat="40.0713161" lon="-105.2297866">
  <ele>1583.0</ele>
  <time>2026-08-28T17:52:25Z</time>
  <course>179.42</course>
  <speed>4.02</speed>
  <fix>3d</fix>
</trkpt>
<trkpt lat="40.0713017" lon="-105.229787">
  <ele>1583.12</ele>
  <time>2026-08-28T17:52:25Z</time>
  <course>180.16</course>
  <speed>4.400045454310671</speed>
  <fix>3d</fix>
</trkpt>
<trkpt lat="40.0713087" lon="-105.2297865">
  <ele>1583.0</ele>
  <time>2026-08-28T17:52:25Z</time>
  <course>179.42</course>
  <speed>4.23</speed>
  <fix>3d</fix>
</trkpt>
<trkpt lat="40.0712977" lon="-105.2297869">
  <ele>1583.12</ele>
  <time>2026-08-28T17:52:25Z</time>
  <course>180.15</course>
  <speed>4.500011111097394</speed>
  <fix>3d</fix>
</trkpt>
<trkpt lat="40.0713087" lon="-105.2297865">
  <ele>1583.0</ele>
  <time>2026-08-28T17:52:25Z</time>
  <course>179.42</course>
  <speed>4.23</speed>
  <fix>3d</fix>
</trkpt>
<trkpt lat="40.0712936" lon="-105.2297869">
  <ele>1583.11</ele>
  <time>2026-08-28T17:52:25Z</time>
  <course>180.13</course>
  <speed>4.590010893233261</speed>
  <fix>3d</fix>
</trkpt>
<trkpt lat="40.0713009" lon="-105.2297864">
  <ele>1583.0</ele>
  <time>2026-08-28T17:52:25Z</time>
  <course>179.42</course>
  <speed>4.43</speed>
  <fix>3d</fix>
</trkpt>
<trkpt lat="40.0712893" lon="-105.2297869">
  <ele>1583.11</ele>
  <time>2026-08-28T17:52:25Z</time>
  <course>180.12</course>
  <speed>4.680010683748489</speed>
  <fix>3d</fix>
</trkpt>
<trkpt lat="40.0713009" lon="-105.2297864">
  <ele>1583.0</ele>
  <time>2026-08-28T17:52:25Z</time>
  <course>179.42</course>
  <speed>4.43</speed>
  <fix>3d</fix>
</trkpt>
<trkpt lat="40.071285" lon="-105.2297868">
  <ele>1583.11</ele>
  <time>2026-08-28T17:52:25Z</time>
  <course>180.11</course>
  <speed>4.760010504190091</speed>
  <fix>3d</fix>
</trkpt>
<trkpt lat="40.0712927" lon="-105.2297863">
  <ele>1583.0</ele>
  <time>2026-08-28T17:52:25Z</time>
  <course>179.42</course>
  <speed>4.61</speed>
  <fix>3d</fix>
</trkpt>
<trkpt lat="40.0712806" lon="-105.2297868">
  <ele>1583.11</ele>
  <time>2026-08-28T17:52:25Z</time>
  <course>180.1</course>
  <speed>4.830010351955781</speed>
  <fix>3d</fix>
</trkpt>
<trkpt lat="40.0712927" lon="-105.2297863">
  <ele>1583.0</ele>
  <time>2026-08-28T17:52:25Z</time>
  <course>179.42</course>
  <speed>4.61</speed>
  <fix>3d</fix>
</trkpt>
<trkpt lat="40.0712762" lon="-105.2297867">
  <ele>1583.11</ele>
  <time>2026-08-28T17:52:25Z</time>
  <course>180.09</course>
  <speed>4.89</speed>
  <fix>3d</fix>
</trkpt>
<trkpt lat="40.0712843" lon="-105.2297862">
  <ele>1583.0</ele>
  <time>2026-08-28T17:52:25Z</time>
  <course>179.42</course>
  <speed>4.76</speed>
  <fix>3d</fix>
</trkpt>
<trkpt lat="40.0712717" lon="-105.2297867">
  <ele>1583.11</ele>
  <time>2026-08-28T17:52:25Z</time>
  <course>180.08</course>
  <speed>4.94</speed>
  <fix>3d</fix>
</trkpt>
<trkpt lat="40.0712843" lon="-105.2297862">
  <ele>1583.0</ele>
  <time>2026-08-28T17:52:25Z</time>
  <course>179.42</course>
  <speed>4.76</speed>
  <fix>3d</fix>
</trkpt>
<trkpt lat="40.0712663" lon="-105.2297866">
  <ele>1583.1</ele>
  <time>2026-08-28T17:52:25Z</time>
  <course>180.07</course>
  <speed>4.99</speed>
  <fix>3d</fix>
</trkpt>
<trkpt lat="40.0712756" lon="-105.2297861">
  <ele>1583.0</ele>
  <time>2026-08-28T17:52:25Z</time>
  <course>179.42</course>
  <speed>4.88</speed>
  <fix>3d</fix>
</trkpt>
<trkpt lat="40.0712618" lon="-105.2297865">
  <ele>1583.1</ele>
  <time>2026-08-28T17:52:25Z</time>
  <course>180.06</course>
  <speed>5.03</speed>
  <fix>3d</fix>
</trkpt>
<trkpt lat="40.0712756" lon="-105.2297861">
  <ele>1583.0</ele>
  <time>2026-08-28T17:52:25Z</time>
  <course>179.42</course>
  <speed>4.88</speed>
  <fix>3d</fix>
</trkpt>
<trkpt lat="40.0712572" lon="-105.2297864">
  <ele>1583.1</ele>
  <time>2026-08-28T17:52:25Z</time>
  <course>180.05</course>
  <speed>5.05</speed>
  <fix>3d</fix>
</trkpt>
<trkpt lat="40.0712668" lon="-105.229786">
  <ele>1583.0</ele>
  <time>2026-08-28T17:52:25Z</time>
  <course>179.42</course>
  <speed>4.97</speed>
  <fix>3d</fix>
</trkpt>
<trkpt lat="40.0712526" lon="-105.2297864">
  <ele>1583.11</ele>
  <time>2026-08-28T17:52:25Z</time>
  <course>180.04</course>
  <speed>5.07</speed>
  <fix>3d</fix>
</trkpt>
<trkpt lat="40.0712668" lon="-105.229786">
  <ele>1583.0</ele>
  <time>2026-08-28T17:52:25Z</time>
  <course>179.42</course>
  <speed>4.97</speed>
  <fix>3d</fix>
</trkpt>
<trkpt lat="40.071248" lon="-105.2297863">
  <ele>1583.11</ele>
  <time>2026-08-28T17:52:25Z</time>
  <course>180.03</course>
  <speed>5.09</speed>
  <fix>3d</fix>
</trkpt>
<trkpt lat="40.0712578" lon="-105.2297859">
  <ele>1583.0</ele>
  <time>2026-08-28T17:52:25Z</time>
  <course>179.42</course>
  <speed>5.02</speed>
  <fix>3d</fix>
</trkpt>
<trkpt lat="40.0712434" lon="-105.2297863">
  <ele>1583.11</ele>
  <time>2026-08-28T17:52:25Z</time>
  <course>180.02</course>
  <speed>5.1</speed>
  <fix>3d</fix>
</trkpt>
<trkpt lat="40.0712578" lon="-105.2297859">
  <ele>1583.0</ele>
  <time>2026-08-28T17:52:25Z</time>
  <course>179.42</course>
  <speed>5.02</speed>
  <fix>3d</fix>
</trkpt>
<trkpt lat="40.0712389" lon="-105.2297862">
  <ele>1583.11</ele>
  <time>2026-08-28T17:52:25Z</time>
  <course>180.02</course>
  <speed>5.1</speed>
  <fix>3d</fix>
</trkpt>
<trkpt lat="40.0712487" lon="-105.2297857">
  <ele>1583.0</ele>
  <time>2026-08-28T17:52:25Z</time>
  <course>179.42</course>
  <speed>5.05</speed>
  <fix>3d</fix>
</trkpt>
<trkpt lat="40.0712343" lon="-105.2297861">
  <ele>1583.12</ele>
  <time>2026-08-28T17:52:25Z</time>
  <course>180.01</course>
  <speed>5.09</speed>
  <fix>3d</fix>
</trkpt>
<trkpt lat="40.0712487" lon="-105.2297857">
  <ele>1583.0</ele>
  <time>2026-08-28T17:52:25Z</time>
  <course>179.42</course>
  <speed>5.05</speed>
  <fix>3d</fix>
</trkpt>
<trkpt lat="40.0712298" lon="-105.229786">
  <ele>1583.12</ele>
  <time>2026-08-28T17:52:25Z</time>
  <course>180.01</course>
  <speed>5.09</speed>
  <fix>3d</fix>
</trkpt>
<trkpt lat="40.0712396" lon="-105.2297856">
  <ele>1583.0</ele>
  <time>2026-08-28T17:52:25Z</time>
  <course>179.42</course>
  <speed>5.06</speed>
  <fix>3d</fix>
</trkpt>
<trkpt lat="40.0712253" lon="-105.229786">
  <ele>1583.12</ele>
  <time>2026-08-28T17:52:25Z</time>
  <course>179.99</course>
  <speed>5.08000984251015</speed>
  <fix>3d</fix>
</trkpt>
<trkpt lat="40.0712396" lon="-105.2297856">
  <ele>1583.0</ele>
  <time>2026-08-28T17:52:25Z</time>
  <course>179.42</course>
  <speed>5.06</speed>
  <fix>3d</fix>
</trkpt>
<trkpt lat="40.0712208" lon="-105.2297859">
  <ele>1583.13</ele>
  <time>2026-08-28T17:52:25Z</time>
  <course>179.99</course>
  <speed>5.060009881413277</speed>
  <fix>3d</fix>
</trkpt>
<trkpt lat="40.0712305" lon="-105.2297855">
  <ele>1583.0</ele>
  <time>2026-08-28T17:52:25Z</time>
  <course>179.42</course>
  <speed>5.06</speed>
  <fix>3d</fix>
</trkpt>
<trkpt lat="40.0712172" lon="-105.2297858">
  <ele>1583.13</ele>
  <time>2026-08-28T17:52:25Z</time>
  <course>179.98</course>
  <speed>5.050009900980394</speed>
  <fix>3d</fix>
</trkpt>
<trkpt lat="40.0712305" lon="-105.2297855">
  <ele>1583.0</ele>
  <time>2026-08-28T17:52:25Z</time>
  <course>179.42</course>
  <speed>5.06</speed>
  <fix>3d</fix>
</trkpt>
<trkpt lat="40.0712126" lon="-105.2297858">
  <ele>1583.13</ele>
  <time>2026-08-28T17:52:25Z</time>
  <course>179.99</course>
  <speed>5.040009920625157</speed>
  <fix>3d</fix>
</trkpt>
<trkpt lat="40.0712214" lon="-105.2297854">
  <ele>1583.0</ele>
  <time>2026-08-28T17:52:25Z</time>
  <course>179.42</course>
  <speed>5.04</speed>
  <fix>3d</fix>
</trkpt>
<trkpt lat="40.0712081" lon="-105.2297857">
  <ele>1583.13</ele>
  <time>2026-08-28T17:52:25Z</time>
  <course>180.01</course>
  <speed>5.03000994034803</speed>
  <fix>3d</fix>
</trkpt>
<trkpt lat="40.0712214" lon="-105.2297854">
  <ele>1583.0</ele>
  <time>2026-08-28T17:52:25Z</time>
  <course>179.42</course>
  <speed>5.04</speed>
  <fix>3d</fix>
</trkpt>
<trkpt lat="40.0712037" lon="-105.2297856">
  <ele>1583.13</ele>
  <time>2026-08-28T17:52:25Z</time>
  <course>180.02</course>
  <speed>5.020009960149482</speed>
  <fix>3d</fix>
</trkpt>
<trkpt lat="40.0712123" lon="-105.2297853">
  <ele>1583.0</ele>
  <time>2026-08-28T17:52:25Z</time>
  <course>179.44</course>
  <speed>5.02</speed>
  <fix>3d</fix>
</trkpt>
<trkpt lat="40.0711992" lon="-105.2297856">
  <ele>1583.14</ele>
  <time>2026-08-28T17:52:25Z</time>
  <course>180.06</course>
  <speed>5.01000998002998</speed>
  <fix>3d</fix>
</trkpt>
<trkpt lat="40.0712123" lon="-105.2297853">
  <ele>1583.0</ele>
  <time>2026-08-28T17:52:25Z</time>
  <course>179.44</course>
  <speed>5.02</speed>
  <fix>3d</fix>
</trkpt>
<trkpt lat="40.0711947" lon="-105.2297855">
  <ele>1583.13</ele>
  <time>2026-08-28T17:52:25Z</time>
  <course>180.09</course>
  <speed>4.99</speed>
  <fix>3d</fix>
</trkpt>
<trkpt lat="40.0712034" lon="-105.2297852">
  <ele>1583.0</ele>
  <time>2026-08-28T17:52:25Z</time>
  <course>179.48</course>
  <speed>5.0</speed>
  <fix>3d</fix>
</trkpt>
<trkpt lat="40.0711902" lon="-105.2297854">
  <ele>1583.13</ele>
  <time>2026-08-28T17:52:25Z</time>
  <course>180.1</course>
  <speed>4.98</speed>
  <fix>3d</fix>
</trkpt>
<trkpt lat="40.0712034" lon="-105.2297852">
  <ele>1583.0</ele>
  <time>2026-08-28T17:52:25Z</time>
  <course>179.48</course>
  <speed>5.0</speed>
  <fix>3d</fix>
</trkpt>
<trkpt lat="40.0711857" lon="-105.2297854">
  <ele>1583.13</ele>
  <time>2026-08-28T17:52:25Z</time>
  <course>180.12</course>
  <speed>4.97</speed>
  <fix>3d</fix>
</trkpt>
<trkpt lat="40.0711943" lon="-105.2297851">
  <ele>1583.0</ele>
  <time>2026-08-28T17:52:25Z</time>
  <course>179.53</course>
  <speed>4.98</speed>
  <fix>3d</fix>
</trkpt>
<trkpt lat="40.0711812" lon="-105.2297853">
  <ele>1583.13</ele>
  <time>2026-08-28T17:52:25Z</time>
  <course>180.12</course>
  <speed>4.95</speed>
  <fix>3d</fix>
</trkpt>
<trkpt lat="40.0711943" lon="-105.2297851">
  <ele>1583.0</ele>
  <time>2026-08-28T17:52:25Z</time>
  <course>179.53</course>
  <speed>4.98</speed>
  <fix>3d</fix>
</trkpt>
<trkpt lat="40.0711767" lon="-105.2297853">
  <ele>1583.13</ele>
  <time>2026-08-28T17:52:25Z</time>
  <course>180.12</course>
  <speed>4.91</speed>
  <fix>3d</fix>
</trkpt>
<trkpt lat="40.0711854" lon="-105.229785">
  <ele>1583.0</ele>
  <time>2026-08-28T17:52:25Z</time>
  <course>179.57</course>
  <speed>4.94</speed>
  <fix>3d</fix>
</trkpt>
<trkpt lat="40.0711715" lon="-105.2297852">
  <ele>1583.13</ele>
  <time>2026-08-28T17:52:25Z</time>
  <course>180.12</course>
  <speed>4.8400103305674875</speed>
  <fix>3d</fix>
</trkpt>
<trkpt lat="40.0711854" lon="-105.229785">
  <ele>1583.0</ele>
  <time>2026-08-28T17:52:25Z</time>
  <course>179.57</course>
  <speed>4.94</speed>
  <fix>3d</fix>
</trkpt>
<trkpt lat="40.0711672" lon="-105.2297852">
  <ele>1583.13</ele>
  <time>2026-08-28T17:52:25Z</time>
  <course>180.12</course>
  <speed>4.770010482168776</speed>
  <fix>3d</fix>
</trkpt>
<trkpt lat="40.0711766" lon="-105.2297849">
  <ele>1583.0</ele>
  <time>2026-08-28T17:52:25Z</time>
  <course>179.57</course>
  <speed>4.87</speed>
  <fix>3d</fix>
</trkpt>
<trkpt lat="40.0711629" lon="-105.2297851">
  <ele>1583.13</ele>
  <time>2026-08-28T17:52:25Z</time>
  <course>180.12</course>
  <speed>4.680010683748489</speed>
  <fix>3d</fix>
</trkpt>
<trkpt lat="40.0711766" lon="-105.2297849">
  <ele>1583.0</ele>
  <time>2026-08-28T17:52:25Z</time>
  <course>179.57</course>
  <speed>4.87</speed>
  <fix>3d</fix>
</trkpt>
<trkpt lat="40.0711587" lon="-105.2297851">
  <ele>1583.13</ele>
  <time>2026-08-28T17:52:25Z</time>
  <course>180.14</course>
  <speed>4.590010893233261</speed>
  <fix>3d</fix>
</trkpt>
<trkpt lat="40.071168" lon="-105.2297848">
  <ele>1583.0</ele>
  <time>2026-08-28T17:52:25Z</time>
  <course>179.57</course>
  <speed>4.74</speed>
  <fix>3d</fix>
</trkpt>
<trkpt lat="40.0711547" lon="-105.229785">
  <ele>1583.13</ele>
  <time>2026-08-28T17:52:25Z</time>
  <course>180.17</course>
  <speed>4.49</speed>
  <fix>3d</fix>
</trkpt>
<trkpt lat="40.071168" lon="-105.2297848">
  <ele>1583.0</ele>
  <time>2026-08-28T17:52:25Z</time>
  <course>179.57</course>
  <speed>4.74</speed>
  <fix>3d</fix>
</trkpt>
<trkpt lat="40.0711507" lon="-105.229785">
  <ele>1583.13</ele>
  <time>2026-08-28T17:52:25Z</time>
  <course>180.22</course>
  <speed>4.37</speed>
  <fix>3d</fix>
</trkpt>
<trkpt lat="40.0711596" lon="-105.2297847">
  <ele>1583.0</ele>
  <time>2026-08-28T17:52:25Z</time>
  <course>179.59</course>
  <speed>4.56</speed>
  <fix>3d</fix>
</trkpt>
<trkpt lat="40.0711469" lon="-105.229785">
  <ele>1583.14</ele>
  <time>2026-08-28T17:52:25Z</time>
  <course>180.28</course>
  <speed>4.25</speed>
  <fix>3d</fix>
</trkpt>
<trkpt lat="40.0711596" lon="-105.2297847">
  <ele>1583.0</ele>
  <time>2026-08-28T17:52:25Z</time>
  <course>179.59</course>
  <speed>4.56</speed>
  <fix>3d</fix>
</trkpt>
<trkpt lat="40.0711432" lon="-105.2297849">
  <ele>1583.13</ele>
  <time>2026-08-28T17:52:25Z</time>
  <course>180.34</course>
  <speed>4.13</speed>
  <fix>3d</fix>
</trkpt>
<trkpt lat="40.0711515" lon="-105.2297847">
  <ele>1583.0</ele>
  <time>2026-08-28T17:52:25Z</time>
  <course>179.67</course>
  <speed>4.35</speed>
  <fix>3d</fix>
</trkpt>
<trkpt lat="40.0711396" lon="-105.2297849">
  <ele>1583.14</ele>
  <time>2026-08-28T17:52:25Z</time>
  <course>180.4</course>
  <speed>4.0</speed>
  <fix>3d</fix>
</trkpt>
<trkpt lat="40.0711515" lon="-105.2297847">
  <ele>1583.0</ele>
  <time>2026-08-28T17:52:25Z</time>
  <course>179.67</course>
  <speed>4.35</speed>
  <fix>3d</fix>
</trkpt>
<trkpt lat="40.0711361" lon="-105.2297849">
  <ele>1583.14</ele>
  <time>2026-08-28T17:52:25Z</time>
  <course>180.46</course>
  <speed>3.87</speed>
  <fix>3d</fix>
</trkpt>
<trkpt lat="40.0711439" lon="-105.2297846">
  <ele>1583.0</ele>
  <time>2026-08-28T17:52:25Z</time>
  <course>179.79</course>
  <speed>4.11</speed>
  <fix>3d</fix>
</trkpt>
<trkpt lat="40.0711328" lon="-105.2297849">
  <ele>1583.14</ele>
  <time>2026-08-28T17:52:25Z</time>
  <course>180.51</course>
  <speed>3.74</speed>
  <fix>3d</fix>
</trkpt>
<trkpt lat="40.0711439" lon="-105.2297846">
  <ele>1583.0</ele>
  <time>2026-08-28T17:52:25Z</time>
  <course>179.79</course>
  <speed>4.11</speed>
  <fix>3d</fix>
</trkpt>
<trkpt lat="40.0711301" lon="-105.2297848">
  <ele>1583.14</ele>
  <time>2026-08-28T17:52:25Z</time>
  <course>180.56</course>
  <speed>3.63</speed>
  <fix>3d</fix>
</trkpt>
<trkpt lat="40.0711368" lon="-105.2297846">
  <ele>1583.0</ele>
  <time>2026-08-28T17:52:25Z</time>
  <course>179.9</course>
  <speed>3.86</speed>
  <fix>3d</fix>
</trkpt>
<trkpt lat="40.0711269" lon="-105.2297848">
  <ele>1583.14</ele>
  <time>2026-08-28T17:52:25Z</time>
  <course>180.61</course>
  <speed>3.5000142856851313</speed>
  <fix>3d</fix>
</trkpt>
<trkpt lat="40.0711368" lon="-105.2297846">
  <ele>1583.0</ele>
  <time>2026-08-28T17:52:25Z</time>
  <course>179.9</course>
  <speed>3.86</speed>
  <fix>3d</fix>
</trkpt>
<trkpt lat="40.0711239" lon="-105.2297848">
  <ele>1583.14</ele>
  <time>2026-08-28T17:52:25Z</time>
  <course>180.69</course>
  <speed>3.3700148367625924</speed>
  <fix>3d</fix>
</trkpt>
<trkpt lat="40.0711301" lon="-105.2297846">
  <ele>1583.0</ele>
  <time>2026-08-28T17:52:25Z</time>
  <course>180.0</course>
  <speed>3.61</speed>
  <fix>3d</fix>
</trkpt>
<trkpt lat="40.071121" lon="-105.2297848">
  <ele>1583.14</ele>
  <time>2026-08-28T17:52:25Z</time>
  <course>180.79</course>
  <speed>3.2400154320620143</speed>
  <fix>3d</fix>
</trkpt>
<trkpt lat="40.0711301" lon="-105.2297846">
  <ele>1583.0</ele>
  <time>2026-08-28T17:52:25Z</time>
  <course>180.0</course>
  <speed>3.61</speed>
  <fix>3d</fix>
</trkpt>
<trkpt lat="40.0711181" lon="-105.2297848">
  <ele>1583.15</ele>
  <time>2026-08-28T17:52:25Z</time>
  <course>180.88</course>
  <speed>3.110064308016797</speed>
  <fix>3d</fix>
</trkpt>
<trkpt lat="40.0711238" lon="-105.2297846">
  <ele>1583.0</ele>
  <time>2026-08-28T17:52:25Z</time>
  <course>180.15</course>
  <speed>3.35</speed>
  <fix>3d</fix>
</trkpt>
<trkpt lat="40.0711154" lon="-105.2297848">
  <ele>1583.15</ele>
  <time>2026-08-28T17:52:25Z</time>
  <course>180.96</course>
  <speed>2.980067113338221</speed>
  <fix>3d</fix>
</trkpt>
<trkpt lat="40.0711238" lon="-105.2297846">
  <ele>1583.0</ele>
  <time>2026-08-28T17:52:25Z</time>
  <course>180.15</course>
  <speed>3.35</speed>
  <fix>3d</fix>
</trkpt>
<trkpt lat="40.0711128" lon="-105.2297849">
  <ele>1583.15</ele>
  <time>2026-08-28T17:52:25Z</time>
  <course>181.05</course>
  <speed>2.850070174574654</speed>
  <fix>3d</fix>
</trkpt>
<trkpt lat="40.071118" lon="-105.2297846">
  <ele>1583.0</ele>
  <time>2026-08-28T17:52:25Z</time>
  <course>180.32</course>
  <speed>3.1</speed>
  <fix>3d</fix>
</trkpt>
<trkpt lat="40.0711102" lon="-105.2297849">
  <ele>1583.15</ele>
  <time>2026-08-28T17:52:25Z</time>
  <course>181.17</course>
  <speed>2.730164830188829</speed>
  <fix>3d</fix>
</trkpt>
<trkpt lat="40.071118" lon="-105.2297846">
  <ele>1583.0</ele>
  <time>2026-08-28T17:52:25Z</time>
  <course>180.32</course>
  <speed>3.1</speed>
  <fix>3d</fix>
</trkpt>
<trkpt lat="40.0711078" lon="-105.2297849">
  <ele>1583.15</ele>
  <time>2026-08-28T17:52:25Z</time>
  <course>181.28</course>
  <speed>2.6101724080987445</speed>
  <fix>3d</fix>
</trkpt>
<trkpt lat="40.0711127" lon="-105.2297846">
  <ele>1583.0</ele>
  <time>2026-08-28T17:52:25Z</time>
  <course>180.51</course>
  <speed>2.85</speed>
  <fix>3d</fix>
</trkpt>
<trkpt lat="40.0711056" lon="-105.2297849">
  <ele>1583.15</ele>
  <time>2026-08-28T17:52:25Z</time>
  <course>181.4</course>
  <speed>2.490180716333656</speed>
  <fix>3d</fix>
</trkpt>
<trkpt lat="40.0711127" lon="-105.2297846">
  <ele>1583.0</ele>
  <time>2026-08-28T17:52:25Z</time>
  <course>180.51</course>
  <speed>2.85</speed>
  <fix>3d</fix>
</trkpt>
<trkpt lat="40.0711029" lon="-105.2297849">
  <ele>1583.15</ele>
  <time>2026-08-28T17:52:25Z</time>
  <course>181.56</course>
  <speed>2.3503404008781366</speed>
  <fix>3d</fix>
</trkpt>
<trkpt lat="40.0711078" lon="-105.2297846">
  <ele>1583.0</ele>
  <time>2026-08-28T17:52:25Z</time>
  <course>180.73</course>
  <speed>2.61</speed>
  <fix>3d</fix>
</trkpt>
<trkpt lat="40.0711009" lon="-105.2297849">
  <ele>1583.15</ele>
  <time>2026-08-28T17:52:25Z</time>
  <course>181.7</course>
  <speed>2.2403571143904712</speed>
  <fix>3d</fix>
</trkpt>
<trkpt lat="40.0711078" lon="-105.2297846">
  <ele>1583.0</ele>
  <time>2026-08-28T17:52:25Z</time>
  <course>180.73</course>
  <speed>2.61</speed>
  <fix>3d</fix>
</trkpt>
<trkpt lat="40.0710989" lon="-105.2297849">
  <ele>1583.15</ele>
  <time>2026-08-28T17:52:25Z</time>
  <course>181.86</course>
  <speed>2.120377324911771</speed>
  <fix>3d</fix>
</trkpt>
<trkpt lat="40.0711033" lon="-105.2297847">
  <ele>1583.0</ele>
  <time>2026-08-28T17:52:25Z</time>
  <course>180.98</course>
  <speed>2.39</speed>
  <fix>3d</fix>
</trkpt>
<trkpt lat="40.071097" lon="-105.229785">
  <ele>1583.14</ele>
  <time>2026-08-28T17:52:25Z</time>
  <course>182.04</course>
  <speed>2.0206187171260193</speed>
  <fix>3d</fix>
</trkpt>
<trkpt lat="40.0711033" lon="-105.2297847">
  <ele>1583.0</ele>
  <time>2026-08-28T17:52:25Z</time>
  <course>180.98</course>
  <speed>2.39</speed>
  <fix>3d</fix>
</trkpt>
<trkpt lat="40.0710953" lon="-105.229785">
  <ele>1583.14</ele>
  <time>2026-08-28T17:52:25Z</time>
  <course>182.23</course>
  <speed>1.9106543381784158</speed>
  <fix>3d</fix>
</trkpt>
<trkpt lat="40.0710992" lon="-105.2297848">
  <ele>1583.0</ele>
  <time>2026-08-28T17:52:25Z</time>
  <course>181.29</course>
  <speed>2.17</speed>
  <fix>3d</fix>
</trkpt>
<trkpt lat="40.0710936" lon="-105.2297851">
  <ele>1583.14</ele>
  <time>2026-08-28T17:52:25Z</time>
  <course>182.43</course>
  <speed>1.8106904760339355</speed>
  <fix>3d</fix>
</trkpt>
<trkpt lat="40.0710992" lon="-105.2297848">
  <ele>1583.0</ele>
  <time>2026-08-28T17:52:25Z</time>
  <course>181.29</course>
  <speed>2.17</speed>
  <fix>3d</fix>
</trkpt>
<trkpt lat="40.071092" lon="-105.2297851">
  <ele>1583.14</ele>
  <time>2026-08-28T17:52:25Z</time>
  <course>182.67</course>
  <speed>1.7110523077919038</speed>
  <fix>3d</fix>
</trkpt>
<trkpt lat="40.0710955" lon="-105.2297849">
  <ele>1583.0</ele>
  <time>2026-08-28T17:52:25Z</time>
  <course>181.65</course>
  <speed>1.96</speed>
  <fix>3d</fix>
</trkpt>
<trkpt lat="40.0710906" lon="-105.2297852">
  <ele>1583.14</ele>
  <time>2026-08-28T17:52:25Z</time>
  <course>182.93</course>
  <speed>1.6011246047700347</speed>
  <fix>3d</fix>
</trkpt>
<trkpt lat="40.0710955" lon="-105.2297849">
  <ele>1583.0</ele>
  <time>2026-08-28T17:52:25Z</time>
  <course>181.65</course>
  <speed>1.96</speed>
  <fix>3d</fix>
</trkpt>
<trkpt lat="40.0710892" lon="-105.2297853">
  <ele>1583.14</ele>
  <time>2026-08-28T17:52:25Z</time>
  <course>183.22</course>
  <speed>1.5016324450410627</speed>
  <fix>3d</fix>
</trkpt>
<trkpt lat="40.0710921" lon="-105.2297851">
  <ele>1583.0</ele>
  <time>2026-08-28T17:52:25Z</time>
  <course>182.1</course>
  <speed>1.76</speed>
  <fix>3d</fix>
</trkpt>
<trkpt lat="40.0710878" lon="-105.2297854">
  <ele>1583.14</ele>
  <time>2026-08-28T17:52:25Z</time>
  <course>183.55</course>
  <speed>1.4117365193264642</speed>
  <fix>3d</fix>
</trkpt>
<trkpt lat="40.0710921" lon="-105.2297851">
  <ele>1583.0</ele>
  <time>2026-08-28T17:52:25Z</time>
  <course>182.1</course>
  <speed>1.76</speed>
  <fix>3d</fix>
</trkpt>
<trkpt lat="40.0710866" lon="-105.2297854">
  <ele>1583.15</ele>
  <time>2026-08-28T17:52:25Z</time>
  <course>183.93</course>
  <speed>1.3124404748406686</speed>
  <fix>3d</fix>
</trkpt>
<trkpt lat="40.0710892" lon="-105.2297853">
  <ele>1583.0</ele>
  <time>2026-08-28T17:52:25Z</time>
  <course>182.66</course>
  <speed>1.56</speed>
  <fix>3d</fix>
</trkpt>
<trkpt lat="40.0710857" lon="-105.2297855">
  <ele>1583.15</ele>
  <time>2026-08-28T17:52:25Z</time>
  <course>184.28</course>
  <speed>1.2325988804148738</speed>
  <fix>3d</fix>
</trkpt>
<trkpt lat="40.0710892" lon="-105.2297853">
  <ele>1583.0</ele>
  <time>2026-08-28T17:52:25Z</time>
  <course>182.66</course>
  <speed>1.56</speed>
  <fix>3d</fix>
</trkpt>
<trkpt lat="40.0710846" lon="-105.2297856">
  <ele>1583.15</ele>
  <time>2026-08-28T17:52:25Z</time>
  <course>184.77</course>
  <speed>1.1328283188550683</speed>
  <fix>3d</fix>
</trkpt>
<trkpt lat="40.0710865" lon="-105.2297854">
  <ele>1583.0</ele>
  <time>2026-08-28T17:52:25Z</time>
  <course>183.39</course>
  <speed>1.37</speed>
  <fix>3d</fix>
</trkpt>
<trkpt lat="40.0710836" lon="-105.2297857">
  <ele>1583.15</ele>
  <time>2026-08-28T17:52:25Z</time>
  <course>185.35</course>
  <speed>1.0438869670610895</speed>
  <fix>3d</fix>
</trkpt>
<trkpt lat="40.0710865" lon="-105.2297854">
  <ele>1583.0</ele>
  <time>2026-08-28T17:52:25Z</time>
  <course>183.39</course>
  <speed>1.37</speed>
  <fix>3d</fix>
</trkpt>
<trkpt lat="40.0710827" lon="-105.2297858">
  <ele>1583.15</ele>
  <time>2026-08-28T17:52:25Z</time>
  <course>186.04</course>
  <speed>0.9442986815621421</speed>
  <fix>3d</fix>
</trkpt>
<trkpt lat="40.0710842" lon="-105.2297857">
  <ele>1583.0</ele>
  <time>2026-08-28T17:52:25Z</time>
  <course>184.36</course>
  <speed>1.18</speed>
  <fix>3d</fix>
</trkpt>
<trkpt lat="40.0710818" lon="-105.2297859">
  <ele>1583.15</ele>
  <time>2026-08-28T17:52:25Z</time>
  <course>186.82</course>
  <speed>0.8558621384311844</speed>
  <fix>3d</fix>
</trkpt>
<trkpt lat="40.0710842" lon="-105.2297857">
  <ele>1583.0</ele>
  <time>2026-08-28T17:52:25Z</time>
  <course>184.36</course>
  <speed>1.18</speed>
  <fix>3d</fix>
</trkpt>
<trkpt lat="40.0710811" lon="-105.2297861">
  <ele>1583.15</ele>
  <time>2026-08-28T17:52:25Z</time>
  <course>187.6</course>
  <speed>0.7566372975210779</speed>
  <fix>3d</fix>
</trkpt>
<trkpt lat="40.0710823" lon="-105.2297859">
  <ele>1583.0</ele>
  <time>2026-08-28T17:52:25Z</time>
  <course>185.66</course>
  <speed>0.99</speed>
  <fix>3d</fix>
</trkpt>
<trkpt lat="40.0710804" lon="-105.2297862">
  <ele>1583.15</ele>
  <time>2026-08-28T17:52:25Z</time>
  <course>188.37</course>
  <speed>0.6576473218982953</speed>
  <fix>3d</fix>
</trkpt>
<trkpt lat="40.0710823" lon="-105.2297859">
  <ele>1583.0</ele>
  <time>2026-08-28T17:52:25Z</time>
  <course>185.66</course>
  <speed>0.99</speed>
  <fix>3d</fix>
</trkpt>
<trkpt lat="40.0710798" lon="-105.2297863">
  <ele>1583.15</ele>
  <time>2026-08-28T17:52:25Z</time>
  <course>189.13</course>
  <speed>0.5671860364994893</speed>
  <fix>3d</fix>
</trkpt>
<trkpt lat="40.0710806" lon="-105.2297861">
  <ele>1583.0</ele>
  <time>2026-08-28T17:52:25Z</time>
  <course>187.18</course>
  <speed>0.8</speed>
  <fix>3d</fix>
</trkpt>
<trkpt lat="40.0710793" lon="-105.2297864">
  <ele>1583.14</ele>
  <time>2026-08-28T17:52:25Z</time>
  <course>189.84</course>
  <speed>0.4687216658103186</speed>
  <fix>3d</fix>
</trkpt>
<trkpt lat="40.0710806" lon="-105.2297861">
  <ele>1583.0</ele>
  <time>2026-08-28T17:52:25Z</time>
  <course>187.18</course>
  <speed>0.8</speed>
  <fix>3d</fix>
</trkpt>
<trkpt lat="40.0710788" lon="-105.2297865">
  <ele>1583.14</ele>
  <time>2026-08-28T17:52:25Z</time>
  <course>190.6</course>
  <speed>0.3590264614203248</speed>
  <fix>3d</fix>
</trkpt>
<trkpt lat="40.0710794" lon="-105.2297864">
  <ele>1583.0</ele>
  <time>2026-08-28T17:52:25Z</time>
  <course>188.64</course>
  <speed>0.61</speed>
  <fix>3d</fix>
</trkpt>
<trkpt lat="40.0710785" lon="-105.2297866">
  <ele>1583.14</ele>
  <time>2026-08-28T17:52:25Z</time>
  <course>191.15</course>
  <speed>0.2668332812825267</speed>
  <fix>3d</fix>
</trkpt>
<trkpt lat="40.0710794" lon="-105.2297864">
  <ele>1583.0</ele>
  <time>2026-08-28T17:52:25Z</time>
  <course>188.64</course>
  <speed>0.61</speed>
  <fix>3d</fix>
</trkpt>
<trkpt lat="40.0710783" lon="-105.2297867">
  <ele>1583.13</ele>
  <time>2026-08-28T17:52:25Z</time>
  <course>191.6</course>
  <speed>0.196468827043885</speed>
  <fix>3d</fix>
</trkpt>
<trkpt lat="40.0710785" lon="-105.2297865">
  <ele>1583.0</ele>
  <time>2026-08-28T17:52:25Z</time>
  <course>189.9</course>
  <speed>0.42</speed>
  <fix>3d</fix>
</trkpt>
<trkpt lat="40.0710781" lon="-105.2297868">
  <ele>1583.13</ele>
  <time>2026-08-28T17:52:25Z</time>
  <course>191.99</course>
  <speed>0.13601470508735444</speed>
  <fix>3d</fix>
</trkpt>
<trkpt lat="40.0710785" lon="-105.2297865">
  <ele>1583.0</ele>
  <time>2026-08-28T17:52:25Z</time>
  <course>189.9</course>
  <speed>0.42</speed>
  <fix>3d</fix>
</trkpt>
<trkpt lat="40.0710779" lon="-105.2297868">
  <ele>1583.13</ele>
  <time>2026-08-28T17:52:25Z</time>
  <course>192.3</course>
  <speed>0.09848857801796104</speed>
  <fix>3d</fix>
</trkpt>
<trkpt lat="40.0710779" lon="-105.2297867">
  <ele>1583.0</ele>
  <time>2026-08-28T17:52:25Z</time>
  <course>190.91</course>
  <speed>0.27</speed>
  <fix>3d</fix>
</trkpt>
<trkpt lat="40.0710778" lon="-105.2297868">
  <ele>1583.12</ele>
  <time>2026-08-28T17:52:25Z</time>
  <course>192.57</course>
  <speed>0.0670820393249937</speed>
  <fix>3d</fix>
</trkpt>
<trkpt lat="40.0710779" lon="-105.2297867">
  <ele>1583.0</ele>
  <time>2026-08-28T17:52:25Z</time>
  <course>190.91</course>
  <speed>0.27</speed>
  <fix>3d</fix>
</trkpt>
<trkpt lat="40.0710777" lon="-105.2297869">
  <ele>1583.12</ele>
  <time>2026-08-28T17:52:25Z</time>
  <course>192.8</course>
  <speed>0.05</speed>
  <fix>3d</fix>
</trkpt>
<trkpt lat="40.0710775" lon="-105.2297868">
  <ele>1583.0</ele>
  <time>2026-08-28T17:52:25Z</time>
  <course>191.63</course>
  <speed>0.17</speed>
  <fix>3d</fix>
</trkpt>
<trkpt lat="40.0710776" lon="-105.2297869">
  <ele>1583.12</ele>
  <time>2026-08-28T17:52:25Z</time>
  <course>193.02</course>
  <speed>0.04242640687119285</speed>
  <fix>3d</fix>
</trkpt>
<trkpt lat="40.0710775" lon="-105.2297868">
  <ele>1583.0</ele>
  <time>2026-08-28T17:52:25Z</time>
  <course>191.63</course>
  <speed>0.17</speed>
  <fix>3d</fix>
</trkpt>
<trkpt lat="40.0710776" lon="-105.229787">
  <ele>1583.11</ele>
  <time>2026-08-28T17:52:25Z</time>
  <course>193.23</course>
  <speed>0.05</speed>
  <fix>3d</fix>
</trkpt>
<trkpt lat="40.0710772" lon="-105.2297868">
  <ele>1583.0</ele>
  <time>2026-08-28T17:52:25Z</time>
  <course>192.16</course>
  <speed>0.13</speed>
  <fix>3d</fix>
</trkpt>
<trkpt lat="40.0710775" lon="-105.229787">
  <ele>1583.11</ele>
  <time>2026-08-28T17:52:25Z</time>
  <course>193.44</course>
  <speed>0.0565685424949238</speed>
  <fix>3d</fix>
</trkpt>
<trkpt lat="40.0710772" lon="-105.2297868">
  <ele>1583.0</ele>
  <time>2026-08-28T17:52:25Z</time>
  <course>192.16</course>
  <speed>0.13</speed>
  <fix>3d</fix>
</trkpt>
<trkpt lat="40.0710773" lon="-105.229787">
  <ele>1583.11</ele>
  <time>2026-08-28T17:52:25Z</time>
  <course>193.69</course>
  <speed>0.07211102550927978</speed>
  <fix>3d</fix>
</trkpt>
<trkpt lat="40.071077" lon="-105.2297869">
  <ele>1583.0</ele>
  <time>2026-08-28T17:52:25Z</time>
  <course>192.62</course>
  <speed>0.12</speed>
  <fix>3d</fix>
</trkpt>
<trkpt lat="40.0710772" lon="-105.2297871">
  <ele>1583.11</ele>
  <time>2026-08-28T17:52:25Z</time>
  <course>193.96</course>
  <speed>0.09433981132056603</speed>
  <fix>3d</fix>
</trkpt>
<trkpt lat="40.071077" lon="-105.2297869">
  <ele>1583.0</ele>
  <time>2026-08-28T17:52:25Z</time>
  <course>192.62</course>
  <speed>0.12</speed>
  <fix>3d</fix>
</trkpt>
<trkpt lat="40.0710771" lon="-105.2297871">
  <ele>1583.11</ele>
  <time>2026-08-28T17:52:25Z</time>
  <course>194.22</course>
  <speed>0.11661903789690602</speed>
  <fix>3d</fix>
</trkpt>
<trkpt lat="40.0710768" lon="-105.229787">
  <ele>1583.0</ele>
  <time>2026-08-28T17:52:25Z</time>
  <course>193.12</course>
  <speed>0.14</speed>
  <fix>3d</fix>
</trkpt>
<trkpt lat="40.0710769" lon="-105.2297872">
  <ele>1583.12</ele>
  <time>2026-08-28T17:52:25Z</time>
  <course>194.58</course>
  <speed>0.147648230602334</speed>
  <fix>3d</fix>
</trkpt>
<trkpt lat="40.0710768" lon="-105.229787">
  <ele>1583.0</ele>
  <time>2026-08-28T17:52:25Z</time>
  <course>193.12</course>
  <speed>0.14</speed>
  <fix>3d</fix>
</trkpt>
<trkpt lat="40.0710767" lon="-105.2297873">
  <ele>1583.12</ele>
  <time>2026-08-28T17:52:25Z</time>
  <course>195.01</course>
  <speed>0.17888543819998318</speed>
  <fix>3d</fix>
</trkpt>
<trkpt lat="40.0710765" lon="-105.2297871">
  <ele>1583.0</ele>
  <time>2026-08-28T17:52:25Z</time>
  <course>193.76</course>
  <speed>0.19</speed>
  <fix>3d</fix>
</trkpt>
<trkpt lat="40.0710765" lon="-105.2297874">
  <ele>1583.12</ele>
  <time>2026-08-28T17:52:25Z</time>
  <course>195.51</course>
  <speed>0.2193171219946131</speed>
  <fix>3d</fix>
</trkpt>
<trkpt lat="40.0710765" lon="-105.2297871">
  <ele>1583.0</ele>
  <time>2026-08-28T17:52:25Z</time>
  <course>193.76</course>
  <speed>0.19</speed>
  <fix>3d</fix>
</trkpt>
<trkpt lat="40.0710762" lon="-105.2297875">
  <ele>1583.12</ele>
  <time>2026-08-28T17:52:25Z</time>
  <course>196.09</course>
  <speed>0.25079872407968906</speed>
  <fix>3d</fix>
</trkpt>
<trkpt lat="40.0710761" lon="-105.2297872">
  <ele>1583.0</ele>
  <time>2026-08-28T17:52:25Z</time>
  <course>194.62</course>
  <speed>0.25</speed>
  <fix>3d</fix>
</trkpt>
<trkpt lat="40.0710759" lon="-105.2297876">
  <ele>1583.12</ele>
  <time>2026-08-28T17:52:25Z</time>
  <course>196.76</course>
  <speed>0.2863564212655271</speed>
  <fix>3d</fix>
</trkpt>
<trkpt lat="40.0710761" lon="-105.2297872">
  <ele>1583.0</ele>
  <time>2026-08-28T17:52:25Z</time>
  <course>194.62</course>
  <speed>0.25</speed>
  <fix>3d</fix>
</trkpt>
<trkpt lat="40.0710756" lon="-105.2297877">
  <ele>1583.12</ele>
  <time>2026-08-28T17:52:25Z</time>
  <course>197.53</course>
  <speed>0.32695565448543634</speed>
  <fix>3d</fix>
</trkpt>
<trkpt lat="40.0710756" lon="-105.2297873">
  <ele>1583.0</ele>
  <time>2026-08-28T17:52:25Z</time>
  <course>195.78</course>
  <speed>0.31</speed>
  <fix>3d</fix>
</trkpt>
<trkpt lat="40.0710753" lon="-105.2297879">
  <ele>1583.12</ele>
  <time>2026-08-28T17:52:25Z</time>
  <course>198.41</course>
  <speed>0.3624913792078372</speed>
  <fix>3d</fix>
</trkpt>
<trkpt lat="40.0710756" lon="-105.2297873">
  <ele>1583.0</ele>
  <time>2026-08-28T17:52:25Z</time>
  <course>195.78</course>
  <speed>0.31</speed>
  <fix>3d</fix>
</trkpt>
<trkpt lat="40.0710749" lon="-105.229788">
  <ele>1583.12</ele>
  <time>2026-08-28T17:52:25Z</time>
  <course>199.42</course>
  <speed>0.39812058474788764</speed>
  <fix>3d</fix>
</trkpt>
<trkpt lat="40.0710749" lon="-105.2297876">
  <ele>1583.0</ele>
  <time>2026-08-28T17:52:25Z</time>
  <course>197.32</course>
  <speed>0.38</speed>
  <fix>3d</fix>
</trkpt>
<trkpt lat="40.0710744" lon="-105.2297883">
  <ele>1583.12</ele>
  <time>2026-08-28T17:52:25Z</time>
  <course>200.8</course>
  <speed>0.4428317965096906</speed>
  <fix>3d</fix>
</trkpt>
<trkpt lat="40.0710749" lon="-105.2297876">
  <ele>1583.0</ele>
  <time>2026-08-28T17:52:25Z</time>
  <course>197.32</course>
  <speed>0.38</speed>
  <fix>3d</fix>
</trkpt>
<trkpt lat="40.071074" lon="-105.2297885">
  <ele>1583.12</ele>
  <time>2026-08-28T17:52:25Z</time>
  <course>202.12</course>
  <speed>0.4695742752749558</speed>
  <fix>3d</fix>
</trkpt>
<trkpt lat="40.0710742" lon="-105.2297879">
  <ele>1583.0</ele>
  <time>2026-08-28T17:52:25Z</time>
  <course>199.31</course>
  <speed>0.45</speed>
  <fix>3d</fix>
</trkpt>
<trkpt lat="40.0710735" lon="-105.2297887">
  <ele>1583.12</ele>
  <time>2026-08-28T17:52:25Z</time>
  <course>203.6</course>
  <speed>0.51</speed>
  <fix>3d</fix>
</trkpt>
<trkpt lat="40.0710742" lon="-105.2297879">
  <ele>1583.0</ele>
  <time>2026-08-28T17:52:25Z</time>
  <course>199.31</course>
  <speed>0.45</speed>
  <fix>3d</fix>
</trkpt>
<trkpt lat="40.071073" lon="-105.229789">
  <ele>1583.12</ele>
  <time>2026-08-28T17:52:25Z</time>
  <course>205.28</course>
  <speed>0.5371219600798314</speed>
  <fix>3d</fix>
</trkpt>
<trkpt lat="40.0710734" lon="-105.2297883">
  <ele>1583.0</ele>
  <time>2026-08-28T17:52:25Z</time>
  <course>201.88</course>
  <speed>0.51</speed>
  <fix>3d</fix>
</trkpt>
<trkpt lat="40.0710725" lon="-105.2297893">
  <ele>1583.12</ele>
  <time>2026-08-28T17:52:25Z</time>
  <course>207.15</course>
  <speed>0.5608029957123981</speed>
  <fix>3d</fix>
</trkpt>
<trkpt lat="40.0710734" lon="-105.2297883">
  <ele>1583.0</ele>
  <time>2026-08-28T17:52:25Z</time>
  <course>201.88</course>
  <speed>0.51</speed>
  <fix>3d</fix>
</trkpt>
<trkpt lat="40.071072" lon="-105.2297897">
  <ele>1583.12</ele>
  <time>2026-08-28T17:52:25Z</time>
  <course>209.25</course>
  <speed>0.5852349955359812</speed>
  <fix>3d</fix>
</trkpt>
<trkpt lat="40.0710725" lon="-105.2297888">
  <ele>1583.0</ele>
  <time>2026-08-28T17:52:25Z</time>
  <course>205.14</course>
  <speed>0.56</speed>
  <fix>3d</fix>
</trkpt>
<trkpt lat="40.0710715" lon="-105.22979">
  <ele>1583.13</ele>
  <time>2026-08-28T17:52:25Z</time>
  <course>211.59</course>
  <speed>0.6161168720299746</speed>
  <fix>3d</fix>
</trkpt>
<trkpt lat="40.0710725" lon="-105.2297888">
  <ele>1583.0</ele>
  <time>2026-08-28T17:52:25Z</time>
  <course>205.14</course>
  <speed>0.56</speed>
  <fix>3d</fix>
</trkpt>
<trkpt lat="40.071071" lon="-105.2297905">
  <ele>1583.13</ele>
  <time>2026-08-28T17:52:25Z</time>
  <course>214.19</course>
  <speed>0.6341135544995076</speed>
  <fix>3d</fix>
</trkpt>
<trkpt lat="40.0710716" lon="-105.2297894">
  <ele>1583.0</ele>
  <time>2026-08-28T17:52:25Z</time>
  <course>209.23</course>
  <speed>0.6</speed>
  <fix>3d</fix>
</trkpt>
<trkpt lat="40.0710705" lon="-105.2297909">
  <ele>1583.13</ele>
  <time>2026-08-28T17:52:25Z</time>
  <course>217.08</course>
  <speed>0.6594694837519018</speed>
  <fix>3d</fix>
</trkpt>
<trkpt lat="40.0710716" lon="-105.2297894">
  <ele>1583.0</ele>
  <time>2026-08-28T17:52:25Z</time>
  <course>209.23</course>
  <speed>0.6</speed>
  <fix>3d</fix>
</trkpt>
<trkpt lat="40.0710701" lon="-105.2297914">
  <ele>1583.12</ele>
  <time>2026-08-28T17:52:25Z</time>
  <course>220.28</course>
  <speed>0.6789698078707183</speed>
  <fix>3d</fix>
</trkpt>
<trkpt lat="40.0710707" lon="-105.2297902">
  <ele>1583.0</ele>
  <time>2026-08-28T17:52:25Z</time>
  <course>214.32</course>
  <speed>0.64</speed>
  <fix>3d</fix>
</trkpt>
<trkpt lat="40.0710696" lon="-105.2297919">
  <ele>1583.12</ele>
  <time>2026-08-28T17:52:25Z</time>
  <course>223.8</course>
  <speed>0.6935416353759881</speed>
  <fix>3d</fix>
</trkpt>
<trkpt lat="40.0710707" lon="-105.2297902">
  <ele>1583.0</ele>
  <time>2026-08-28T17:52:25Z</time>
  <course>214.32</course>
  <speed>0.64</speed>
  <fix>3d</fix>
</trkpt>
<trkpt lat="40.0710692" lon="-105.2297924">
  <ele>1583.12</ele>
  <time>2026-08-28T17:52:25Z</time>
  <course>226.9</course>
  <speed>0.702922470831599</speed>
  <fix>3d</fix>
</trkpt>
<trkpt lat="40.0710697" lon="-105.2297911">
  <ele>1583.0</ele>
  <time>2026-08-28T17:52:25Z</time>
  <course>220.55</course>
  <speed>0.67</speed>
  <fix>3d</fix>
</trkpt>
<trkpt lat="40.0710688" lon="-105.229793">
  <ele>1583.12</ele>
  <time>2026-08-28T17:52:25Z</time>
  <course>231.04</course>
  <speed>0.7161005515987263</speed>
  <fix>3d</fix>
</trkpt>
<trkpt lat="40.0710697" lon="-105.2297911">
  <ele>1583.0</ele>
  <time>2026-08-28T17:52:25Z</time>
  <course>220.55</course>
  <speed>0.67</speed>
  <fix>3d</fix>
</trkpt>
<trkpt lat="40.0710684" lon="-105.2297937">
  <ele>1583.11</ele>
  <time>2026-08-28T17:52:25Z</time>
  <course>235.53</course>
  <speed>0.7271863585079137</speed>
  <fix>3d</fix>
</trkpt>
<trkpt lat="40.0710688" lon="-105.2297923">
  <ele>1583.0</ele>
  <time>2026-08-28T17:52:25Z</time>
  <course>228.1</course>
  <speed>0.7</speed>
  <fix>3d</fix>
</trkpt>
<trkpt lat="40.071068" lon="-105.2297945">
  <ele>1583.11</ele>
  <time>2026-08-28T17:52:25Z</time>
  <course>240.11</course>
  <speed>0.7424284477308234</speed>
  <fix>3d</fix>
</trkpt>
<trkpt lat="40.0710688" lon="-105.2297923">
  <ele>1583.0</ele>
  <time>2026-08-28T17:52:25Z</time>
  <course>228.1</course>
  <speed>0.7</speed>
  <fix>3d</fix>
</trkpt>
<trkpt lat="40.0710677" lon="-105.2297952">
  <ele>1583.11</ele>
  <time>2026-08-28T17:52:25Z</time>
  <course>244.8</course>
  <speed>0.7576938695805846</speed>
  <fix>3d</fix>
</trkpt>
<trkpt lat="40.071068" lon="-105.2297936">
  <ele>1583.0</ele>
  <time>2026-08-28T17:52:25Z</time>
  <course>236.82</course>
  <speed>0.72</speed>
  <fix>3d</fix>
</trkpt>
<trkpt lat="40.0710674" lon="-105.229796">
  <ele>1583.1</ele>
  <time>2026-08-28T17:52:25Z</time>
  <course>249.53</course>
  <speed>0.7684399781375251</speed>
  <fix>3d</fix>
</trkpt>
<trkpt lat="40.071068" lon="-105.2297936">
  <ele>1583.0</ele>
  <time>2026-08-28T17:52:25Z</time>
  <course>236.82</course>
  <speed>0.72</speed>
  <fix>3d</fix>
</trkpt>
<trkpt lat="40.0710672" lon="-105.2297969">
  <ele>1583.1</ele>
  <time>2026-08-28T17:52:25Z</time>
  <course>254.3</course>
  <speed>0.7712976079309465</speed>
  <fix>3d</fix>
</trkpt>
<trkpt lat="40.0710674" lon="-105.2297951">
  <ele>1583.0</ele>
  <time>2026-08-28T17:52:25Z</time>
  <course>246.15</course>
  <speed>0.74</speed>
  <fix>3d</fix>
</trkpt>
<trkpt lat="40.0710671" lon="-105.2297978">
  <ele>1583.1</ele>
  <time>2026-08-28T17:52:25Z</time>
  <course>259.11</course>
  <speed>0.7792945527847606</speed>
  <fix>3d</fix>
</trkpt>
<trkpt lat="40.0710674" lon="-105.2297951">
  <ele>1583.0</ele>
  <time>2026-08-28T17:52:25Z</time>
  <course>246.15</course>
  <speed>0.74</speed>
  <fix>3d</fix>
</trkpt>
<trkpt lat="40.0710669" lon="-105.2297987">
  <ele>1583.1</ele>
  <time>2026-08-28T17:52:25Z</time>
  <course>263.98</course>
  <speed>0.7922752047110904</speed>
  <fix>3d</fix>
</trkpt>
<trkpt lat="40.071067" lon="-105.2297968">
  <ele>1583.0</ele>
  <time>2026-08-28T17:52:25Z</time>
  <course>255.67</course>
  <speed>0.75</speed>
  <fix>3d</fix>
</trkpt>
<trkpt lat="40.0710669" lon="-105.2297996">
  <ele>1583.1</ele>
  <time>2026-08-28T17:52:25Z</time>
  <course>268.84</course>
  <speed>0.79</speed>
  <fix>3d</fix>
</trkpt>
<trkpt lat="40.071067" lon="-105.2297968">
  <ele>1583.0</ele>
  <time>2026-08-28T17:52:25Z</time>
  <course>255.67</course>
  <speed>0.75</speed>
  <fix>3d</fix>
</trkpt>
<trkpt lat="40.0710669" lon="-105.2298007">
  <ele>1583.11</ele>
  <time>2026-08-28T17:52:25Z</time>
  <course>274.69</course>
  <speed>0.7930952023559341</speed>
  <fix>3d</fix>
</trkpt>
<trkpt lat="40.0710667" lon="-105.2297986">
  <ele>1583.0</ele>
  <time>2026-08-28T17:52:25Z</time>
  <course>265.32</course>
  <speed>0.76</speed>
  <fix>3d</fix>
</trkpt>
<trkpt lat="40.071067" lon="-105.2298016">
  <ele>1583.11</ele>
  <time>2026-08-28T17:52:25Z</time>
  <course>279.58</course>
  <speed>0.8023091673413684</speed>
  <fix>3d</fix>
</trkpt>
<trkpt lat="40.0710667" lon="-105.2297986">
  <ele>1583.0</ele>
  <time>2026-08-28T17:52:25Z</time>
  <course>265.32</course>
  <speed>0.76</speed>
  <fix>3d</fix>
</trkpt>
<trkpt lat="40.0710671" lon="-105.2298025">
  <ele>1583.11</ele>
  <time>2026-08-28T17:52:25Z</time>
  <course>284.48</course>
  <speed>0.7955501241279521</speed>
  <fix>3d</fix>
</trkpt>
<trkpt lat="40.0710666" lon="-105.2298003">
  <ele>1583.0</ele>
  <time>2026-08-28T17:52:25Z</time>
  <course>275.06</course>
  <speed>0.76</speed>
  <fix>3d</fix>
</trkpt>
<trkpt lat="40.0710672" lon="-105.2298034">
  <ele>1583.11</ele>
  <time>2026-08-28T17:52:25Z</time>
  <course>289.39</course>
  <speed>0.7937883848986453</speed>
  <fix>3d</fix>
</trkpt>
<trkpt lat="40.0710666" lon="-105.2298003">
  <ele>1583.0</ele>
  <time>2026-08-28T17:52:25Z</time>
  <course>275.06</course>
  <speed>0.76</speed>
  <fix>3d</fix>
</trkpt>
<trkpt lat="40.0710675" lon="-105.2298042">
  <ele>1583.11</ele>
  <time>2026-08-28T17:52:25Z</time>
  <course>294.29</course>
  <speed>0.797057087039567</speed>
  <fix>3d</fix>
</trkpt>
<trkpt lat="40.0710669" lon="-105.2298021">
  <ele>1583.0</ele>
  <time>2026-08-28T17:52:25Z</time>
  <course>284.85</course>
  <speed>0.76</speed>
  <fix>3d</fix>
</trkpt>
<trkpt lat="40.0710678" lon="-105.229805">
  <ele>1583.11</ele>
  <time>2026-08-28T17:52:25Z</time>
  <course>299.19</course>
  <speed>0.7877182237323191</speed>
  <fix>3d</fix>
</trkpt>
<trkpt lat="40.0710669" lon="-105.2298021">
  <ele>1583.0</ele>
  <time>2026-08-28T17:52:25Z</time>
  <course>284.85</course>
  <speed>0.76</speed>
  <fix>3d</fix>
</trkpt>
<trkpt lat="40.0710682" lon="-105.2298058">
  <ele>1583.12</ele>
  <time>2026-08-28T17:52:25Z</time>
  <course>304.08</course>
  <speed>0.7932212806020776</speed>
  <fix>3d</fix>
</trkpt>
<trkpt lat="40.0710674" lon="-105.2298038">
  <ele>1583.0</ele>
  <time>2026-08-28T17:52:25Z</time>
  <course>294.67</course>
  <speed>0.76</speed>
  <fix>3d</fix>
</trkpt>
<trkpt lat="40.0710686" lon="-105.2298065">
  <ele>1583.12</ele>
  <time>2026-08-28T17:52:25Z</time>
  <course>308.98</course>
  <speed>0.7902531240052139</speed>
  <fix>3d</fix>
</trkpt>
<trkpt lat="40.0710674" lon="-105.2298038">
  <ele>1583.0</ele>
  <time>2026-08-28T17:52:25Z</time>
  <course>294.67</course>
  <speed>0.76</speed>
  <fix>3d</fix>
</trkpt>
<trkpt lat="40.071069" lon="-105.2298071">
  <ele>1583.12</ele>
  <time>2026-08-28T17:52:25Z</time>
  <course>313.88</course>
  <speed>0.785175139698144</speed>
  <fix>3d</fix>
</trkpt>
<trkpt lat="40.0710681" lon="-105.2298053">
  <ele>1583.0</ele>
  <time>2026-08-28T17:52:25Z</time>
  <course>304.49</course>
  <speed>0.76</speed>
  <fix>3d</fix>
</trkpt>
<trkpt lat="40.0710695" lon="-105.2298077">
  <ele>1583.12</ele>
  <time>2026-08-28T17:52:25Z</time>
  <course>318.8</course>
  <speed>0.7930952023559341</speed>
  <fix>3d</fix>
</trkpt>
<trkpt lat="40.0710681" lon="-105.2298053">
  <ele>1583.0</ele>
  <time>2026-08-28T17:52:25Z</time>
  <course>304.49</course>
  <speed>0.76</speed>
  <fix>3d</fix>
</trkpt>
<trkpt lat="40.0710701" lon="-105.2298083">
  <ele>1583.12</ele>
  <time>2026-08-28T17:52:25Z</time>
  <course>323.75</course>
  <speed>0.7920227269466451</speed>
  <fix>3d</fix>
</trkpt>
<trkpt lat="40.0710689" lon="-105.2298067">
  <ele>1583.0</ele>
  <time>2026-08-28T17:52:25Z</time>
  <course>314.33</course>
  <speed>0.77</speed>
  <fix>3d</fix>
</trkpt>
<trkpt lat="40.0710705" lon="-105.2298087">
  <ele>1583.12</ele>
  <time>2026-08-28T17:52:25Z</time>
  <course>327.8</course>
  <speed>0.8015609770940699</speed>
  <fix>3d</fix>
</trkpt>
<trkpt lat="40.0710689" lon="-105.2298067">
  <ele>1583.0</ele>
  <time>2026-08-28T17:52:25Z</time>
  <course>314.33</course>
  <speed>0.77</speed>
  <fix>3d</fix>
</trkpt>
<trkpt lat="40.0710712" lon="-105.2298091">
  <ele>1583.11</ele>
  <time>2026-08-28T17:52:25Z</time>
  <course>332.86</course>
  <speed>0.8141252974819048</speed>
  <fix>3d</fix>
</trkpt>
<trkpt lat="40.07107" lon="-105.2298079">
  <ele>1583.0</ele>
  <time>2026-08-28T17:52:25Z</time>
  <course>324.29</course>
  <speed>0.78</speed>
  <fix>3d</fix>
</trkpt>
<trkpt lat="40.0710718" lon="-105.2298095">
  <ele>1583.11</ele>
  <time>2026-08-28T17:52:25Z</time>
  <course>337.7</course>
  <speed>0.8246211251235321</speed>
  <fix>3d</fix>
</trkpt>
<trkpt lat="40.07107" lon="-105.2298079">
  <ele>1583.0</ele>
  <time>2026-08-28T17:52:25Z</time>
  <course>324.29</course>
  <speed>0.78</speed>
  <fix>3d</fix>
</trkpt>
<trkpt lat="40.0710725" lon="-105.2298098">
  <ele>1583.11</ele>
  <time>2026-08-28T17:52:25Z</time>
  <course>342.17</course>
  <speed>0.8538149682454624</speed>
  <fix>3d</fix>
</trkpt>
<trkpt lat="40.0710712" lon="-105.2298089">
  <ele>1583.0</ele>
  <time>2026-08-28T17:52:25Z</time>
  <course>334.19</course>
  <speed>0.81</speed>
  <fix>3d</fix>
</trkpt>
<trkpt lat="40.0710733" lon="-105.2298101">
  <ele>1583.11</ele>
  <time>2026-08-28T17:52:25Z</time>
  <course>346.36</course>
  <speed>0.8755569655939013</speed>
  <fix>3d</fix>
</trkpt>
<trkpt lat="40.0710712" lon="-105.2298089">
  <ele>1583.0</ele>
  <time>2026-08-28T17:52:25Z</time>
  <course>334.19</course>
  <speed>0.81</speed>
  <fix>3d</fix>
</trkpt>
<trkpt lat="40.0710741" lon="-105.2298102">
  <ele>1583.11</ele>
  <time>2026-08-28T17:52:25Z</time>
  <course>350.08</course>
  <speed>0.904267659490264</speed>
  <fix>3d</fix>
</trkpt>
<trkpt lat="40.0710726" lon="-105.2298096">
  <ele>1583.0</ele>
  <time>2026-08-28T17:52:25Z</time>
  <course>343.28</course>
  <speed>0.85</speed>
  <fix>3d</fix>
</trkpt>
<trkpt lat="40.0710749" lon="-105.2298104">
  <ele>1583.11</ele>
  <time>2026-08-28T17:52:25Z</time>
  <course>353.31</course>
  <speed>0.9464142856064675</speed>
  <fix>3d</fix>
</trkpt>
<trkpt lat="40.0710726" lon="-105.2298096">
  <ele>1583.0</ele>
  <time>2026-08-28T17:52:25Z</time>
  <course>343.28</course>
  <speed>0.85</speed>
  <fix>3d</fix>
</trkpt>
<trkpt lat="40.0710758" lon="-105.2298105">
  <ele>1583.11</ele>
  <time>2026-08-28T17:52:25Z</time>
  <course>356.1</course>
  <speed>0.9924716620639604</speed>
  <fix>3d</fix>
</trkpt>
<trkpt lat="40.0710742" lon="-105.2298101">
  <ele>1583.0</ele>
  <time>2026-08-28T17:52:25Z</time>
  <course>350.76</course>
  <speed>0.92</speed>
  <fix>3d</fix>
</trkpt>
<trkpt lat="40.0710767" lon="-105.2298105">
  <ele>1583.12</ele>
  <time>2026-08-28T17:52:25Z</time>
  <course>358.42</course>
  <speed>1.0404326023342407</speed>
  <fix>3d</fix>
</trkpt>
<trkpt lat="40.0710742" lon="-105.2298101">
  <ele>1583.0</ele>
  <time>2026-08-28T17:52:25Z</time>
  <course>350.76</course>
  <speed>0.92</speed>
  <fix>3d</fix>
</trkpt>
<trkpt lat="40.0710777" lon="-105.2298105">
  <ele>1583.12</ele>
  <time>2026-08-28T17:52:25Z</time>
  <course>0.29</course>
  <speed>1.1</speed>
  <fix>3d</fix>
</trkpt>
<trkpt lat="40.0710758" lon="-105.2298103">
  <ele>1583.0</ele>
  <time>2026-08-28T17:52:25Z</time>
  <course>356.38</course>
  <speed>1.01</speed>
  <fix>3d</fix>
</trkpt>
<trkpt lat="40.0710789" lon="-105.2298104">
  <ele>1583.12</ele>
  <time>2026-08-28T17:52:25Z</time>
  <course>2.07</course>
  <speed>1.1703845521878697</speed>
  <fix>3d</fix>
</trkpt>
<trkpt lat="40.0710758" lon="-105.2298103">
  <ele>1583.0</ele>
  <time>2026-08-28T17:52:25Z</time>
  <course>356.38</course>
  <speed>1.01</speed>
  <fix>3d</fix>
</trkpt>
<trkpt lat="40.07108" lon="-105.2298104">
  <ele>1583.12</ele>
  <time>2026-08-28T17:52:25Z</time>
  <course>3.25</course>
  <speed>1.2414507642270796</speed>
  <fix>3d</fix>
</trkpt>
<trkpt lat="40.0710778" lon="-105.2298103">
  <ele>1583.0</ele>
  <time>2026-08-28T17:52:25Z</time>
  <course>0.26</course>
  <speed>1.12</speed>
  <fix>3d</fix>
</trkpt>
<trkpt lat="40.0710812" lon="-105.2298103">
  <ele>1583.13</ele>
  <time>2026-08-28T17:52:25Z</time>
  <course>4.18</course>
  <speed>1.3130879635424275</speed>
  <fix>3d</fix>
</trkpt>
<trkpt lat="40.0710778" lon="-105.2298103">
  <ele>1583.0</ele>
  <time>2026-08-28T17:52:25Z</time>
  <course>0.26</course>
  <speed>1.12</speed>
  <fix>3d</fix>
</trkpt>
<trkpt lat="40.0710824" lon="-105.2298102">
  <ele>1583.13</ele>
  <time>2026-08-28T17:52:25Z</time>
  <course>4.91</course>
  <speed>1.3843771162512042</speed>
  <fix>3d</fix>
</trkpt>
<trkpt lat="40.0710799" lon="-105.2298103">
  <ele>1583.0</ele>
  <time>2026-08-28T17:52:25Z</time>
  <course>2.8</course>
  <speed>1.25</speed>
  <fix>3d</fix>
</trkpt>
<trkpt lat="40.0710837" lon="-105.22981">
  <ele>1583.13</ele>
  <time>2026-08-28T17:52:25Z</time>
  <course>5.48</course>
  <speed>1.4657762448614045</speed>
  <fix>3d</fix>
</trkpt>
<trkpt lat="40.0710799" lon="-105.2298103">
  <ele>1583.0</ele>
  <time>2026-08-28T17:52:25Z</time>
  <course>2.8</course>
  <speed>1.25</speed>
  <fix>3d</fix>
</trkpt>
<trkpt lat="40.071085" lon="-105.2298099">
  <ele>1583.13</ele>
  <time>2026-08-28T17:52:25Z</time>
  <course>5.93</course>
  <speed>1.5472879499304582</speed>
  <fix>3d</fix>
</trkpt>
<trkpt lat="40.0710823" lon="-105.2298102">
  <ele>1583.0</ele>
  <time>2026-08-28T17:52:25Z</time>
  <course>4.4</course>
  <speed>1.39</speed>
  <fix>3d</fix>
</trkpt>
<trkpt lat="40.0710864" lon="-105.2298097">
  <ele>1583.12</ele>
  <time>2026-08-28T17:52:25Z</time>
  <course>6.25</course>
  <speed>1.6288953311984167</speed>
  <fix>3d</fix>
</trkpt>
<trkpt lat="40.0710823" lon="-105.2298102">
  <ele>1583.0</ele>
  <time>2026-08-28T17:52:25Z</time>
  <course>4.4</course>
  <speed>1.39</speed>
  <fix>3d</fix>
</trkpt>
<trkpt lat="40.0710879" lon="-105.2298095">
  <ele>1583.13</ele>
  <time>2026-08-28T17:52:25Z</time>
  <course>6.49</course>
  <speed>1.7105846953600397</speed>
  <fix>3d</fix>
</trkpt>
<trkpt lat="40.0710849" lon="-105.2298098">
  <ele>1583.0</ele>
  <time>2026-08-28T17:52:25Z</time>
  <course>5.37</course>
  <speed>1.55</speed>
  <fix>3d</fix>
</trkpt>
<trkpt lat="40.0710895" lon="-105.2298092">
  <ele>1583.13</ele>
  <time>2026-08-28T17:52:25Z</time>
  <course>6.65</course>
  <speed>1.801138528820035</speed>
  <fix>3d</fix>
</trkpt>
<trkpt lat="40.0710849" lon="-105.2298098">
  <ele>1583.0</ele>
  <time>2026-08-28T17:52:25Z</time>
  <course>5.37</course>
  <speed>1.55</speed>
  <fix>3d</fix>
</trkpt>
<trkpt lat="40.0710912" lon="-105.229809">
  <ele>1583.13</ele>
  <time>2026-08-28T17:52:25Z</time>
  <course>6.75</course>
  <speed>1.902761151589973</speed>
  <fix>3d</fix>
</trkpt>
<trkpt lat="40.0710879" lon="-105.2298094">
  <ele>1583.0</ele>
  <time>2026-08-28T17:52:25Z</time>
  <course>5.9</course>
  <speed>1.73</speed>
  <fix>3d</fix>
</trkpt>
<trkpt lat="40.0710929" lon="-105.2298087">
  <ele>1583.13</ele>
  <time>2026-08-28T17:52:25Z</time>
  <course>6.79</course>
  <speed>1.993313823761828</speed>
  <fix>3d</fix>
</trkpt>
<trkpt lat="40.0710879" lon="-105.2298094">
  <ele>1583.0</ele>
  <time>2026-08-28T17:52:25Z</time>
  <course>5.9</course>
  <speed>1.73</speed>
  <fix>3d</fix>
</trkpt>
<trkpt lat="40.0710944" lon="-105.2298085">
  <ele>1583.13</ele>
  <time>2026-08-28T17:52:25Z</time>
  <course>6.8</course>
  <speed>2.0739334608419817</speed>
  <fix>3d</fix>
</trkpt>
<trkpt lat="40.0710912" lon="-105.229809">
  <ele>1583.0</ele>
  <time>2026-08-28T17:52:25Z</time>
  <course>6.13</course>
  <speed>1.91</speed>
  <fix>3d</fix>
</trkpt>
<trkpt lat="40.0710963" lon="-105.2298082">
  <ele>1583.13</ele>
  <time>2026-08-28T17:52:25Z</time>
  <course>6.79</course>
  <speed>2.1744194627532196</speed>
  <fix>3d</fix>
</trkpt>
<trkpt lat="40.0710912" lon="-105.229809">
  <ele>1583.0</ele>
  <time>2026-08-28T17:52:25Z</time>
  <course>6.13</course>
  <speed>1.91</speed>
  <fix>3d</fix>
</trkpt>
<trkpt lat="40.0710983" lon="-105.2298079">
  <ele>1583.13</ele>
  <time>2026-08-28T17:52:25Z</time>
  <course>6.75</course>
  <speed>2.274906591488978</speed>
  <fix>3d</fix>
</trkpt>
<trkpt lat="40.0710948" lon="-105.2298085">
  <ele>1583.0</ele>
  <time>2026-08-28T17:52:25Z</time>
  <course>6.18</course>
  <speed>2.1</speed>
  <fix>3d</fix>
</trkpt>
<trkpt lat="40.0711003" lon="-105.2298076">
  <ele>1583.13</ele>
  <time>2026-08-28T17:52:25Z</time>
  <course>6.69</course>
  <speed>2.3753947040439405</speed>
  <fix>3d</fix>
</trkpt>
<trkpt lat="40.0710948" lon="-105.2298085">
  <ele>1583.0</ele>
  <time>2026-08-28T17:52:25Z</time>
  <course>6.18</course>
  <speed>2.1</speed>
  <fix>3d</fix>
</trkpt>
<trkpt lat="40.0711025" lon="-105.2298073">
  <ele>1583.14</ele>
  <time>2026-08-28T17:52:25Z</time>
  <course>6.59</course>
  <speed>2.474772716836841</speed>
  <fix>3d</fix>
</trkpt>
<trkpt lat="40.0710987" lon="-105.2298079">
  <ele>1583.0</ele>
  <time>2026-08-28T17:52:25Z</time>
  <course>6.1</course>
  <speed>2.3</speed>
  <fix>3d</fix>
</trkpt>
<trkpt lat="40.0711048" lon="-105.229807">
  <ele>1583.13</ele>
  <time>2026-08-28T17:52:25Z</time>
  <course>6.49</course>
  <speed>2.5752669764511795</speed>
  <fix>3d</fix>
</trkpt>
<trkpt lat="40.0710987" lon="-105.2298079">
  <ele>1583.0</ele>
  <time>2026-08-28T17:52:25Z</time>
  <course>6.1</course>
  <speed>2.3</speed>
  <fix>3d</fix>
</trkpt>
<trkpt lat="40.0711072" lon="-105.2298067">
  <ele>1583.13</ele>
  <time>2026-08-28T17:52:25Z</time>
  <course>6.36</course>
  <speed>2.6846415030688924</speed>
  <fix>3d</fix>
</trkpt>
<trkpt lat="40.071103" lon="-105.2298074">
  <ele>1583.0</ele>
  <time>2026-08-28T17:52:25Z</time>
  <course>5.93</course>
  <speed>2.51</speed>
  <fix>3d</fix>
</trkpt>
<trkpt lat="40.0711097" lon="-105.2298063">
  <ele>1583.13</ele>
  <time>2026-08-28T17:52:25Z</time>
  <course>6.21</course>
  <speed>2.7851391347650836</speed>
  <fix>3d</fix>
</trkpt>
<trkpt lat="40.071103" lon="-105.2298074">
  <ele>1583.0</ele>
  <time>2026-08-28T17:52:25Z</time>
  <course>5.93</course>
  <speed>2.51</speed>
  <fix>3d</fix>
</trkpt>
<trkpt lat="40.0711123" lon="-105.229806">
  <ele>1583.13</ele>
  <time>2026-08-28T17:52:25Z</time>
  <course>6.06</course>
  <speed>2.894563870430224</speed>
  <fix>3d</fix>
</trkpt>
<trkpt lat="40.0711077" lon="-105.2298068">
  <ele>1583.0</ele>
  <time>2026-08-28T17:52:25Z</time>
  <course>5.68</course>
  <speed>2.71</speed>
  <fix>3d</fix>
</trkpt>
<trkpt lat="40.071115" lon="-105.2298057">
  <ele>1583.14</ele>
  <time>2026-08-28T17:52:25Z</time>
  <course>5.91</course>
  <speed>2.9940774873072344</speed>
  <fix>3d</fix>
</trkpt>
<trkpt lat="40.0711077" lon="-105.2298068">
  <ele>1583.0</ele>
  <time>2026-08-28T17:52:25Z</time>
  <course>5.68</course>
  <speed>2.71</speed>
  <fix>3d</fix>
</trkpt>
<trkpt lat="40.0711183" lon="-105.2298053">
  <ele>1583.14</ele>
  <time>2026-08-28T17:52:25Z</time>
  <course>5.73</course>
  <speed>3.1135349684883904</speed>
  <fix>3d</fix>
</trkpt>
<trkpt lat="40.0711127" lon="-105.2298062">
  <ele>1583.0</ele>
  <time>2026-08-28T17:52:25Z</time>
  <course>5.38</course>
  <speed>2.91</speed>
  <fix>3d</fix>
</trkpt>
<trkpt lat="40.0711212" lon="-105.229805">
  <ele>1583.14</ele>
  <time>2026-08-28T17:52:25Z</time>
  <course>5.57</course>
  <speed>3.223073067741406</speed>
  <fix>3d</fix>
</trkpt>
<trkpt lat="40.0711127" lon="-105.2298062">
  <ele>1583.0</ele>
  <time>2026-08-28T17:52:25Z</time>
  <course>5.38</course>
  <speed>2.91</speed>
  <fix>3d</fix>
</trkpt>
<trkpt lat="40.0711241" lon="-105.2298046">
  <ele>1583.14</ele>
  <time>2026-08-28T17:52:25Z</time>
  <course>5.43</course>
  <speed>3.323567360532956</speed>
  <fix>3d</fix>
</trkpt>
<trkpt lat="40.071118" lon="-105.2298055">
  <ele>1583.0</ele>
  <time>2026-08-28T17:52:25Z</time>
  <course>5.08</course>
  <speed>3.11</speed>
  <fix>3d</fix>
</trkpt>
<trkpt lat="40.0711272" lon="-105.2298043">
  <ele>1583.14</ele>
  <time>2026-08-28T17:52:25Z</time>
  <course>5.3</course>
  <speed>3.423171044514136</speed>
  <fix>3d</fix>
</trkpt>
<trkpt lat="40.071118" lon="-105.2298055">
  <ele>1583.0</ele>
  <time>2026-08-28T17:52:25Z</time>
  <course>5.08</course>
  <speed>3.11</speed>
  <fix>3d</fix>
</trkpt>
<trkpt lat="40.0711303" lon="-105.229804">
  <ele>1583.15</ele>
  <time>2026-08-28T17:52:25Z</time>
  <course>5.16</course>
  <speed>3.5119937357575113</speed>
  <fix>3d</fix>
</trkpt>
<trkpt lat="40.0711238" lon="-105.2298048">
  <ele>1583.0</ele>
  <time>2026-08-28T17:52:25Z</time>
  <course>4.79</course>
  <speed>3.31</speed>
  <fix>3d</fix>
</trkpt>
<trkpt lat="40.0711335" lon="-105.2298036">
  <ele>1583.15</ele>
  <time>2026-08-28T17:52:25Z</time>
  <course>5.01</course>
  <speed>3.6116616674323194</speed>
  <fix>3d</fix>
</trkpt>
<trkpt lat="40.0711238" lon="-105.2298048">
  <ele>1583.0</ele>
  <time>2026-08-28T17:52:25Z</time>
  <course>4.79</course>
  <speed>3.31</speed>
  <fix>3d</fix>
</trkpt>
<trkpt lat="40.0711367" lon="-105.2298033">
  <ele>1583.15</ele>
  <time>2026-08-28T17:52:25Z</time>
  <course>4.87</course>
  <speed>3.7113474641967974</speed>
  <fix>3d</fix>
</trkpt>
<trkpt lat="40.07113" lon="-105.2298041">
  <ele>1583.0</ele>
  <time>2026-08-28T17:52:25Z</time>
  <course>4.51</course>
  <speed>3.51</speed>
  <fix>3d</fix>
</trkpt>
<trkpt lat="40.0711401" lon="-105.229803">
  <ele>1583.15</ele>
  <time>2026-08-28T17:52:25Z</time>
  <course>4.72</course>
  <speed>3.8110497241573746</speed>
  <fix>3d</fix>
</trkpt>
<trkpt lat="40.07113" lon="-105.2298041">
  <ele>1583.0</ele>
  <time>2026-08-28T17:52:25Z</time>
  <course>4.51</course>
  <speed>3.51</speed>
  <fix>3d</fix>
</trkpt>
<trkpt lat="40.0711435" lon="-105.2298027">
  <ele>1583.16</ele>
  <time>2026-08-28T17:52:25Z</time>
  <course>4.56</course>
  <speed>3.9000641020372986</speed>
  <fix>3d</fix>
</trkpt>
<trkpt lat="40.0711364" lon="-105.2298036">
  <ele>1583.0</ele>
  <time>2026-08-28T17:52:25Z</time>
  <course>4.22</course>
  <speed>3.7</speed>
  <fix>3d</fix>
</trkpt>
<trkpt lat="40.071147" lon="-105.2298024">
  <ele>1583.16</ele>
  <time>2026-08-28T17:52:25Z</time>
  <course>4.4</course>
  <speed>3.999812495605263</speed>
  <fix>3d</fix>
</trkpt>
<trkpt lat="40.0711364" lon="-105.2298036">
  <ele>1583.0</ele>
  <time>2026-08-28T17:52:25Z</time>
  <course>4.22</course>
  <speed>3.7</speed>
  <fix>3d</fix>
</trkpt>
<trkpt lat="40.0711506" lon="-105.2298021">
  <ele>1583.16</ele>
  <time>2026-08-28T17:52:25Z</time>
  <course>4.24</course>
  <speed>4.098902292077722</speed>
  <fix>3d</fix>
</trkpt>
<trkpt lat="40.0711433" lon="-105.2298029">
  <ele>1583.0</ele>
  <time>2026-08-28T17:52:25Z</time>
  <course>3.91</course>
  <speed>3.9</speed>
  <fix>3d</fix>
</trkpt>
<trkpt lat="40.0711536" lon="-105.2298018">
  <ele>1583.16</ele>
  <time>2026-08-28T17:52:25Z</time>
  <course>4.13</course>
  <speed>4.168752811093505</speed>
  <fix>3d</fix>
</trkpt>
<trkpt lat="40.0711433" lon="-105.2298029">
  <ele>1583.0</ele>
  <time>2026-08-28T17:52:25Z</time>
  <course>3.91</course>
  <speed>3.9</speed>
  <fix>3d</fix>
</trkpt>
<trkpt lat="40.0711574" lon="-105.2298015">
  <ele>1583.16</ele>
  <time>2026-08-28T17:52:25Z</time>
  <course>3.99</course>
  <speed>4.268547762412879</speed>
  <fix>3d</fix>
</trkpt>
<trkpt lat="40.0711505" lon="-105.2298022">
  <ele>1583.0</ele>
  <time>2026-08-28T17:52:25Z</time>
  <course>3.61</course>
  <speed>4.1</speed>
  <fix>3d</fix>
</trkpt>
<trkpt lat="40.0711613" lon="-105.2298012">
  <ele>1583.16</ele>
  <time>2026-08-28T17:52:25Z</time>
  <course>3.87</course>
  <speed>4.367745413826222</speed>
  <fix>3d</fix>
</trkpt>
<trkpt lat="40.0711505" lon="-105.2298022">
  <ele>1583.0</ele>
  <time>2026-08-28T17:52:25Z</time>
  <course>3.61</course>
  <speed>4.1</speed>
  <fix>3d</fix>
</trkpt>
<trkpt lat="40.0711653" lon="-105.229801">
  <ele>1583.16</ele>
  <time>2026-08-28T17:52:25Z</time>
  <course>3.75</course>
  <speed>4.467572047544393</speed>
  <fix>3d</fix>
</trkpt>
<trkpt lat="40.071158" lon="-105.2298017">
  <ele>1583.0</ele>
  <time>2026-08-28T17:52:25Z</time>
  <course>3.33</course>
  <speed>4.29</speed>
  <fix>3d</fix>
</trkpt>
<trkpt lat="40.0711694" lon="-105.2298007">
  <ele>1583.16</ele>
  <time>2026-08-28T17:52:25Z</time>
  <course>3.63</course>
  <speed>4.5674062661427435</speed>
  <fix>3d</fix>
</trkpt>
<trkpt lat="40.071158" lon="-105.2298017">
  <ele>1583.0</ele>
  <time>2026-08-28T17:52:25Z</time>
  <course>3.33</course>
  <speed>4.29</speed>
  <fix>3d</fix>
</trkpt>
<trkpt lat="40.0711735" lon="-105.2298004">
  <ele>1583.15</ele>
  <time>2026-08-28T17:52:25Z</time>
  <course>3.51</course>
  <speed>4.666701190348489</speed>
  <fix>3d</fix>
</trkpt>
<trkpt lat="40.0711658" lon="-105.2298011">
  <ele>1583.0</ele>
  <time>2026-08-28T17:52:25Z</time>
  <course>3.08</course>
  <speed>4.49</speed>
  <fix>3d</fix>
</trkpt>
<trkpt lat="40.0711778" lon="-105.2298001">
  <ele>1583.15</ele>
  <time>2026-08-28T17:52:25Z</time>
  <course>3.38</course>
  <speed>4.76656060488063</speed>
  <fix>3d</fix>
</trkpt>
<trkpt lat="40.0711658" lon="-105.2298011">
  <ele>1583.0</ele>
  <time>2026-08-28T17:52:25Z</time>
  <course>3.08</course>
  <speed>4.49</speed>
  <fix>3d</fix>
</trkpt>
<trkpt lat="40.0711822" lon="-105.2297999">
  <ele>1583.15</ele>
  <time>2026-08-28T17:52:25Z</time>
  <course>3.27</course>
  <speed>4.8559345135617304</speed>
  <fix>3d</fix>
</trkpt>
<trkpt lat="40.0711741" lon="-105.2298006">
  <ele>1583.0</ele>
  <time>2026-08-28T17:52:25Z</time>
  <course>2.84</course>
  <speed>4.68</speed>
  <fix>3d</fix>
</trkpt>
<trkpt lat="40.0711867" lon="-105.2297996">
  <ele>1583.15</ele>
  <time>2026-08-28T17:52:25Z</time>
  <course>3.21</course>
  <speed>4.945826523443781</speed>
  <fix>3d</fix>
</trkpt>
<trkpt lat="40.0711741" lon="-105.2298006">
  <ele>1583.0</ele>
  <time>2026-08-28T17:52:25Z</time>
  <course>2.84</course>
  <speed>4.68</speed>
  <fix>3d</fix>
</trkpt>
<trkpt lat="40.0711912" lon="-105.2297993">
  <ele>1583.15</ele>
  <time>2026-08-28T17:52:25Z</time>
  <course>3.14</course>
  <speed>5.025733777270738</speed>
  <fix>3d</fix>
</trkpt>
<trkpt lat="40.0711826" lon="-105.2298">
  <ele>1583.0</ele>
  <time>2026-08-28T17:52:25Z</time>
  <course>2.64</course>
  <speed>4.86</speed>
  <fix>3d</fix>
</trkpt>
<trkpt lat="40.0711967" lon="-105.229799">
  <ele>1583.15</ele>
  <time>2026-08-28T17:52:25Z</time>
  <course>3.06</course>
  <speed>5.115173506343651</speed>
  <fix>3d</fix>
</trkpt>
<trkpt lat="40.0711826" lon="-105.2298">
  <ele>1583.0</ele>
  <time>2026-08-28T17:52:25Z</time>
  <course>2.64</course>
  <speed>4.86</speed>
  <fix>3d</fix>
</trkpt>
<trkpt lat="40.0712013" lon="-105.2297988">
  <ele>1583.15</ele>
  <time>2026-08-28T17:52:25Z</time>
  <course>2.99</course>
  <speed>5.175113525324831</speed>
  <fix>3d</fix>
</trkpt>
<trkpt lat="40.0711916" lon="-105.2297995">
  <ele>1583.0</ele>
  <time>2026-08-28T17:52:25Z</time>
  <course>2.5</course>
  <speed>5.03</speed>
  <fix>3d</fix>
</trkpt>
<trkpt lat="40.071206" lon="-105.2297985">
  <ele>1583.15</ele>
  <time>2026-08-28T17:52:25Z</time>
  <course>2.92</course>
  <speed>5.234625105965088</speed>
  <fix>3d</fix>
</trkpt>
<trkpt lat="40.0711916" lon="-105.2297995">
  <ele>1583.0</ele>
  <time>2026-08-28T17:52:25Z</time>
  <course>2.5</course>
  <speed>5.03</speed>
  <fix>3d</fix>
</trkpt>
<trkpt lat="40.0712108" lon="-105.2297983">
  <ele>1583.15</ele>
  <time>2026-08-28T17:52:25Z</time>
  <course>2.85</course>
  <speed>5.274590031462161</speed>
  <fix>3d</fix>
</trkpt>
<trkpt lat="40.0712007" lon="-105.229799">
  <ele>1583.0</ele>
  <time>2026-08-28T17:52:25Z</time>
  <course>2.36</course>
  <speed>5.15</speed>
  <fix>3d</fix>
</trkpt>
<trkpt lat="40.0712155" lon="-105.2297981">
  <ele>1583.15</ele>
  <time>2026-08-28T17:52:25Z</time>
  <course>2.78</course>
  <speed>5.304158745739045</speed>
  <fix>3d</fix>
</trkpt>
<trkpt lat="40.0712007" lon="-105.229799">
  <ele>1583.0</ele>
  <time>2026-08-28T17:52:25Z</time>
  <course>2.36</course>
  <speed>5.15</speed>
  <fix>3d</fix>
</trkpt>
<trkpt lat="40.0712203" lon="-105.2297978">
  <ele>1583.15</ele>
  <time>2026-08-28T17:52:25Z</time>
  <course>2.71</course>
  <speed>5.314150919949489</speed>
  <fix>3d</fix>
</trkpt>
<trkpt lat="40.0712101" lon="-105.2297985">
  <ele>1583.0</ele>
  <time>2026-08-28T17:52:25Z</time>
  <course>2.22</course>
  <speed>5.24</speed>
  <fix>3d</fix>
</trkpt>
<trkpt lat="40.071225" lon="-105.2297976">
  <ele>1583.15</ele>
  <time>2026-08-28T17:52:25Z</time>
  <course>2.63</course>
  <speed>5.323758071137343</speed>
  <fix>3d</fix>
</trkpt>
<trkpt lat="40.0712101" lon="-105.2297985">
  <ele>1583.0</ele>
  <time>2026-08-28T17:52:25Z</time>
  <course>2.22</course>
  <speed>5.24</speed>
  <fix>3d</fix>
</trkpt>
<trkpt lat="40.0712298" lon="-105.2297974">
  <ele>1583.15</ele>
  <time>2026-08-28T17:52:25Z</time>
  <course>2.58</course>
  <speed>5.313398159370329</speed>
  <fix>3d</fix>
</trkpt>
<trkpt lat="40.0712195" lon="-105.2297981">
  <ele>1583.0</ele>
  <time>2026-08-28T17:52:25Z</time>
  <course>2.08</course>
  <speed>5.28</speed>
  <fix>3d</fix>
</trkpt>
<trkpt lat="40.0712345" lon="-105.2297972">
  <ele>1583.15</ele>
  <time>2026-08-28T17:52:25Z</time>
  <course>2.53</course>
  <speed>5.303404566879657</speed>
  <fix>3d</fix>
</trkpt>
<trkpt lat="40.0712195" lon="-105.2297981">
  <ele>1583.0</ele>
  <time>2026-08-28T17:52:25Z</time>
  <course>2.08</course>
  <speed>5.28</speed>
  <fix>3d</fix>
</trkpt>
<trkpt lat="40.0712392" lon="-105.229797">
  <ele>1583.15</ele>
  <time>2026-08-28T17:52:25Z</time>
  <course>2.47</course>
  <speed>5.283067290883205</speed>
  <fix>3d</fix>
</trkpt>
<trkpt lat="40.071229" lon="-105.2297976">
  <ele>1583.0</ele>
  <time>2026-08-28T17:52:25Z</time>
  <course>1.95</course>
  <speed>5.29</speed>
  <fix>3d</fix>
</trkpt>
<trkpt lat="40.0712439" lon="-105.2297968">
  <ele>1583.15</ele>
  <time>2026-08-28T17:52:25Z</time>
  <course>2.43</course>
  <speed>5.2627464312847145</speed>
  <fix>3d</fix>
</trkpt>
<trkpt lat="40.071229" lon="-105.2297976">
  <ele>1583.0</ele>
  <time>2026-08-28T17:52:25Z</time>
  <course>1.95</course>
  <speed>5.29</speed>
  <fix>3d</fix>
</trkpt>
<trkpt lat="40.0712476" lon="-105.2297967">
  <ele>1583.14</ele>
  <time>2026-08-28T17:52:25Z</time>
  <course>2.42</course>
  <speed>5.232762176900456</speed>
  <fix>3d</fix>
</trkpt>
<trkpt lat="40.0712385" lon="-105.2297971">
  <ele>1583.0</ele>
  <time>2026-08-28T17:52:25Z</time>
  <course>1.85</course>
  <speed>5.26</speed>
  <fix>3d</fix>
</trkpt>
<trkpt lat="40.0712523" lon="-105.2297965">
  <ele>1583.14</ele>
  <time>2026-08-28T17:52:25Z</time>
  <course>2.39</course>
  <speed>5.202778104051719</speed>
  <fix>3d</fix>
</trkpt>
<trkpt lat="40.0712385" lon="-105.2297971">
  <ele>1583.0</ele>
  <time>2026-08-28T17:52:25Z</time>
  <course>1.85</course>
  <speed>5.26</speed>
  <fix>3d</fix>
</trkpt>
<trkpt lat="40.071257" lon="-105.2297963">
  <ele>1583.14</ele>
  <time>2026-08-28T17:52:25Z</time>
  <course>2.39</course>
  <speed>5.172475229520196</speed>
  <fix>3d</fix>
</trkpt>
<trkpt lat="40.071248" lon="-105.2297968">
  <ele>1583.0</ele>
  <time>2026-08-28T17:52:25Z</time>
  <course>1.79</course>
  <speed>5.21</speed>
  <fix>3d</fix>
</trkpt>
<trkpt lat="40.0712616" lon="-105.2297961">
  <ele>1583.14</ele>
  <time>2026-08-28T17:52:25Z</time>
  <course>2.39</course>
  <speed>5.132494520211395</speed>
  <fix>3d</fix>
</trkpt>
<trkpt lat="40.071248" lon="-105.2297968">
  <ele>1583.0</ele>
  <time>2026-08-28T17:52:25Z</time>
  <course>1.79</course>
  <speed>5.21</speed>
  <fix>3d</fix>
</trkpt>
<trkpt lat="40.0712661" lon="-105.229796">
  <ele>1583.14</ele>
  <time>2026-08-28T17:52:25Z</time>
  <course>2.39</course>
  <speed>5.082519060465981</speed>
  <fix>3d</fix>
</trkpt>
<trkpt lat="40.0712573" lon="-105.2297964">
  <ele>1583.0</ele>
  <time>2026-08-28T17:52:25Z</time>
  <course>1.77</course>
  <speed>5.15</speed>
  <fix>3d</fix>
</trkpt>
<trkpt lat="40.0712707" lon="-105.2297958">
  <ele>1583.14</ele>
  <time>2026-08-28T17:52:25Z</time>
  <course>2.4</course>
  <speed>5.032544088232114</speed>
  <fix>3d</fix>
</trkpt>
<trkpt lat="40.0712573" lon="-105.2297964">
  <ele>1583.0</ele>
  <time>2026-08-28T17:52:25Z</time>
  <course>1.77</course>
  <speed>5.15</speed>
  <fix>3d</fix>
</trkpt>
<trkpt lat="40.0712752" lon="-105.2297956">
  <ele>1583.14</ele>
  <time>2026-08-28T17:52:26Z</time>
  <course>2.4</course>
  <speed>4.972263066250618</speed>
  <fix>3d</fix>
</trkpt>
<trkpt lat="40.0712664" lon="-105.229796">
  <ele>1583.0</ele>
  <time>2026-08-28T17:52:26Z</time>
  <course>1.77</course>
  <speed>5.06</speed>
  <fix>3d</fix>
</trkpt>
<trkpt lat="40.0712797" lon="-105.2297954">
  <ele>1583.13</ele>
  <time>2026-08-28T17:52:26Z</time>
  <course>2.4</course>
  <speed>4.902295380737477</speed>
  <fix>3d</fix>
</trkpt>
<trkpt lat="40.0712664" lon="-105.229796">
  <ele>1583.0</ele>
  <time>2026-08-28T17:52:26Z</time>
  <course>1.77</course>
  <speed>5.06</speed>
  <fix>3d</fix>
</trkpt>
<trkpt lat="40.071284" lon="-105.2297953">
  <ele>1583.13</ele>
  <time>2026-08-28T17:52:26Z</time>
  <course>2.4</course>
  <speed>4.822333460058522</speed>
  <fix>3d</fix>
</trkpt>
<trkpt lat="40.0712754" lon="-105.2297957">
  <ele>1583.0</ele>
  <time>2026-08-28T17:52:26Z</time>
  <course>1.77</course>
  <speed>4.94</speed>
  <fix>3d</fix>
</trkpt>
<trkpt lat="40.0712892" lon="-105.2297951">
  <ele>1583.13</ele>
  <time>2026-08-28T17:52:26Z</time>
  <course>2.4</course>
  <speed>4.712080220030215</speed>
  <fix>3d</fix>
</trkpt>
<trkpt lat="40.0712754" lon="-105.2297957">
  <ele>1583.0</ele>
  <time>2026-08-28T17:52:26Z</time>
  <course>1.77</course>
  <speed>4.94</speed>
  <fix>3d</fix>
</trkpt>
<trkpt lat="40.0712934" lon="-105.2297949">
  <ele>1583.13</ele>
  <time>2026-08-28T17:52:26Z</time>
  <course>2.41</course>
  <speed>4.6121253235357775</speed>
  <fix>3d</fix>
</trkpt>
<trkpt lat="40.0712842" lon="-105.2297953">
  <ele>1583.0</ele>
  <time>2026-08-28T17:52:26Z</time>
  <course>1.77</course>
  <speed>4.79</speed>
  <fix>3d</fix>
</trkpt>
<trkpt lat="40.0712975" lon="-105.2297948">
  <ele>1583.14</ele>
  <time>2026-08-28T17:52:26Z</time>
  <course>2.41</course>
  <speed>4.511873225169342</speed>
  <fix>3d</fix>
</trkpt>
<trkpt lat="40.0712842" lon="-105.2297953">
  <ele>1583.0</ele>
  <time>2026-08-28T17:52:26Z</time>
  <course>1.77</course>
  <speed>4.79</speed>
  <fix>3d</fix>
</trkpt>
<trkpt lat="40.0713015" lon="-105.2297946">
  <ele>1583.14</ele>
  <time>2026-08-28T17:52:26Z</time>
  <course>2.41</course>
  <speed>4.391924407364043</speed>
  <fix>3d</fix>
</trkpt>
<trkpt lat="40.0712926" lon="-105.229795">
  <ele>1583.0</ele>
  <time>2026-08-28T17:52:26Z</time>
  <course>1.77</course>
  <speed>4.6</speed>
  <fix>3d</fix>
</trkpt>
<trkpt lat="40.0713054" lon="-105.2297945">
  <ele>1583.14</ele>
  <time>2026-08-28T17:52:26Z</time>
  <course>2.41</course>
  <speed>4.271685849872389</speed>
  <fix>3d</fix>
</trkpt>
<trkpt lat="40.0712926" lon="-105.229795">
  <ele>1583.0</ele>
  <time>2026-08-28T17:52:26Z</time>
  <course>1.77</course>
  <speed>4.6</speed>
  <fix>3d</fix>
</trkpt>
<trkpt lat="40.0713091" lon="-105.2297943">
  <ele>1583.13</ele>
  <time>2026-08-28T17:52:26Z</time>
  <course>2.41</course>
  <speed>4.151734577258041</speed>
  <fix>3d</fix>
</trkpt>
<trkpt lat="40.0713007" lon="-105.2297947">
  <ele>1583.0</ele>
  <time>2026-08-28T17:52:26Z</time>
  <course>1.77</course>
  <speed>4.38</speed>
  <fix>3d</fix>
</trkpt>
<trkpt lat="40.0713128" lon="-105.2297942">
  <ele>1583.13</ele>
  <time>2026-08-28T17:52:26Z</time>
  <course>2.41</course>
  <speed>4.021504693519578</speed>
  <fix>3d</fix>
</trkpt>
<trkpt lat="40.0713007" lon="-105.2297947">
  <ele>1583.0</ele>
  <time>2026-08-28T17:52:26Z</time>
  <course>1.77</course>
  <speed>4.38</speed>
  <fix>3d</fix>
</trkpt>
<trkpt lat="40.0713163" lon="-105.2297941">
  <ele>1583.13</ele>
  <time>2026-08-28T17:52:26Z</time>
  <course>2.42</course>
  <speed>3.8915549591390843</speed>
  <fix>3d</fix>
</trkpt>
<trkpt lat="40.0713084" lon="-105.2297943">
  <ele>1583.0</ele>
  <time>2026-08-28T17:52:26Z</time>
  <course>1.77</course>
  <speed>4.15</speed>
  <fix>3d</fix>
</trkpt>
<trkpt lat="40.0713197" lon="-105.2297939">
  <ele>1583.13</ele>
  <time>2026-08-28T17:52:26Z</time>
  <course>2.42</course>
  <speed>3.761329552166361</speed>
  <fix>3d</fix>
</trkpt>
<trkpt lat="40.0713084" lon="-105.2297943">
  <ele>1583.0</ele>
  <time>2026-08-28T17:52:26Z</time>
  <course>1.77</course>
  <speed>4.15</speed>
  <fix>3d</fix>
</trkpt>
<trkpt lat="40.0713229" lon="-105.2297938">
  <ele>1583.13</ele>
  <time>2026-08-28T17:52:26Z</time>
  <course>2.42</course>
  <speed>3.631377149236912</speed>
  <fix>3d</fix>
</trkpt>
<trkpt lat="40.0713156" lon="-105.229794">
  <ele>1583.0</ele>
  <time>2026-08-28T17:52:26Z</time>
  <course>1.77</course>
  <speed>3.9</speed>
  <fix>3d</fix>
</trkpt>
<trkpt lat="40.0713261" lon="-105.2297937">
  <ele>1583.13</ele>
  <time>2026-08-28T17:52:26Z</time>
  <course>2.42</course>
  <speed>3.5011569516375585</speed>
  <fix>3d</fix>
</trkpt>
<trkpt lat="40.0713156" lon="-105.229794">
  <ele>1583.0</ele>
  <time>2026-08-28T17:52:26Z</time>
  <course>1.77</course>
  <speed>3.9</speed>
  <fix>3d</fix>
</trkpt>
<trkpt lat="40.0713285" lon="-105.2297936">
  <ele>1583.13</ele>
  <time>2026-08-28T17:52:26Z</time>
  <course>2.42</course>
  <speed>3.3911944798256557</speed>
  <fix>3d</fix>
</trkpt>
<trkpt lat="40.0713224" lon="-105.2297938">
  <ele>1583.0</ele>
  <time>2026-08-28T17:52:26Z</time>
  <course>1.77</course>
  <speed>3.64</speed>
  <fix>3d</fix>
</trkpt>
<trkpt lat="40.0713315" lon="-105.2297935">
  <ele>1583.13</ele>
  <time>2026-08-28T17:52:26Z</time>
  <course>2.42</course>
  <speed>3.261242094662707</speed>
  <fix>3d</fix>
</trkpt>
<trkpt lat="40.0713224" lon="-105.2297938">
  <ele>1583.0</ele>
  <time>2026-08-28T17:52:26Z</time>
  <course>1.77</course>
  <speed>3.64</speed>
  <fix>3d</fix>
</trkpt>
<trkpt lat="40.0713343" lon="-105.2297934">
  <ele>1583.13</ele>
  <time>2026-08-28T17:52:26Z</time>
  <course>2.42</course>
  <speed>3.1310221973023444</speed>
  <fix>3d</fix>
</trkpt>
<trkpt lat="40.0713287" lon="-105.2297935">
  <ele>1583.0</ele>
  <time>2026-08-28T17:52:26Z</time>
  <course>1.77</course>
  <speed>3.39</speed>
  <fix>3d</fix>
</trkpt>
<trkpt lat="40.0713371" lon="-105.2297933">
  <ele>1583.13</ele>
  <time>2026-08-28T17:52:26Z</time>
  <course>2.42</course>
  <speed>3.0110629352439644</speed>
  <fix>3d</fix>
</trkpt>
<trkpt lat="40.0713287" lon="-105.2297935">
  <ele>1583.0</ele>
  <time>2026-08-28T17:52:26Z</time>
  <course>1.77</course>
  <speed>3.39</speed>
  <fix>3d</fix>
</trkpt>
<trkpt lat="40.0713397" lon="-105.2297932">
  <ele>1583.13</ele>
  <time>2026-08-28T17:52:26Z</time>
  <course>2.42</course>
  <speed>2.890847626562147</speed>
  <fix>3d</fix>
</trkpt>
<trkpt lat="40.0713346" lon="-105.2297932">
  <ele>1583.0</ele>
  <time>2026-08-28T17:52:26Z</time>
  <course>1.77</course>
  <speed>3.15</speed>
  <fix>3d</fix>
</trkpt>
<trkpt lat="40.0713423" lon="-105.2297931">
  <ele>1583.13</ele>
  <time>2026-08-28T17:52:26Z</time>
  <course>2.39</course>
  <speed>2.7808811553175015</speed>
  <fix>3d</fix>
</trkpt>
<trkpt lat="40.0713346" lon="-105.2297932">
  <ele>1583.0</ele>
  <time>2026-08-28T17:52:26Z</time>
  <course>1.77</course>
  <speed>3.15</speed>
  <fix>3d</fix>
</trkpt>
<trkpt lat="40.0713447" lon="-105.229793">
  <ele>1583.13</ele>
  <time>2026-08-28T17:52:26Z</time>
  <course>2.36</course>
  <speed>2.6706740722147284</speed>
  <fix>3d</fix>
</trkpt>
<trkpt lat="40.07134" lon="-105.2297931">
  <ele>1583.0</ele>
  <time>2026-08-28T17:52:26Z</time>
  <course>1.75</course>
  <speed>2.91</speed>
  <fix>3d</fix>
</trkpt>
<trkpt lat="40.0713471" lon="-105.2297929">
  <ele>1583.13</ele>
  <time>2026-08-28T17:52:26Z</time>
  <course>2.31</course>
  <speed>2.550705784679997</speed>
  <fix>3d</fix>
</trkpt>
<trkpt lat="40.07134" lon="-105.2297931">
  <ele>1583.0</ele>
  <time>2026-08-28T17:52:26Z</time>
  <course>1.75</course>
  <speed>2.91</speed>
  <fix>3d</fix>
</trkpt>
<trkpt lat="40.0713494" lon="-105.2297928">
  <ele>1583.13</ele>
  <time>2026-08-28T17:52:26Z</time>
  <course>2.24</course>
  <speed>2.4405122413132863</speed>
  <fix>3d</fix>
</trkpt>
<trkpt lat="40.0713451" lon="-105.2297929">
  <ele>1583.0</ele>
  <time>2026-08-28T17:52:26Z</time>
  <course>1.68</course>
  <speed>2.69</speed>
  <fix>3d</fix>
</trkpt>
<trkpt lat="40.0713516" lon="-105.2297927">
  <ele>1583.13</ele>
  <time>2026-08-28T17:52:26Z</time>
  <course>2.16</course>
  <speed>2.340534127074416</speed>
  <fix>3d</fix>
</trkpt>
<trkpt lat="40.0713451" lon="-105.2297929">
  <ele>1583.0</ele>
  <time>2026-08-28T17:52:26Z</time>
  <course>1.68</course>
  <speed>2.69</speed>
  <fix>3d</fix>
</trkpt>
<trkpt lat="40.0713541" lon="-105.2297927">
  <ele>1583.13</ele>
  <time>2026-08-28T17:52:26Z</time>
  <course>2.05</course>
  <speed>2.2303587155433093</speed>
  <fix>3d</fix>
</trkpt>
<trkpt lat="40.0713497" lon="-105.2297926">
  <ele>1583.0</ele>
  <time>2026-08-28T17:52:26Z</time>
  <course>1.55</course>
  <speed>2.48</speed>
  <fix>3d</fix>
</trkpt>
<trkpt lat="40.0713561" lon="-105.2297926">
  <ele>1583.13</ele>
  <time>2026-08-28T17:52:26Z</time>
  <course>1.93</course>
  <speed>2.1502092921387908</speed>
  <fix>3d</fix>
</trkpt>
<trkpt lat="40.0713497" lon="-105.2297926">
  <ele>1583.0</ele>
  <time>2026-08-28T17:52:26Z</time>
  <course>1.55</course>
  <speed>2.48</speed>
  <fix>3d</fix>
</trkpt>
<trkpt lat="40.071358" lon="-105.2297925">
  <ele>1583.14</ele>
  <time>2026-08-28T17:52:26Z</time>
  <course>1.81</course>
  <speed>2.080216334903656</speed>
  <fix>3d</fix>
</trkpt>
<trkpt lat="40.071354" lon="-105.2297925">
  <ele>1583.0</ele>
  <time>2026-08-28T17:52:26Z</time>
  <course>1.36</course>
  <speed>2.29</speed>
  <fix>3d</fix>
</trkpt>
<trkpt lat="40.0713599" lon="-105.2297925">
  <ele>1583.14</ele>
  <time>2026-08-28T17:52:26Z</time>
  <course>1.68</course>
  <speed>2.020099007474634</speed>
  <fix>3d</fix>
</trkpt>
<trkpt lat="40.071354" lon="-105.2297925">
  <ele>1583.0</ele>
  <time>2026-08-28T17:52:26Z</time>
  <course>1.36</course>
  <speed>2.29</speed>
  <fix>3d</fix>
</trkpt>
<trkpt lat="40.0713617" lon="-105.2297925">
  <ele>1583.14</ele>
  <time>2026-08-28T17:52:26Z</time>
  <course>1.54</course>
  <speed>1.970101520226813</speed>
  <fix>3d</fix>
</trkpt>
<trkpt lat="40.0713579" lon="-105.2297924">
  <ele>1583.0</ele>
  <time>2026-08-28T17:52:26Z</time>
  <course>1.12</course>
  <speed>2.15</speed>
  <fix>3d</fix>
</trkpt>
<trkpt lat="40.0713635" lon="-105.2297924">
  <ele>1583.14</ele>
  <time>2026-08-28T17:52:26Z</time>
  <course>1.4</course>
  <speed>1.9400257730246782</speed>
  <fix>3d</fix>
</trkpt>
<trkpt lat="40.0713579" lon="-105.2297924">
  <ele>1583.0</ele>
  <time>2026-08-28T17:52:26Z</time>
  <course>1.12</course>
  <speed>2.15</speed>
  <fix>3d</fix>
</trkpt>
<trkpt lat="40.0713653" lon="-105.2297924">
  <ele>1583.15</ele>
  <time>2026-08-28T17:52:26Z</time>
  <course>1.27</course>
  <speed>1.9200260414900625</speed>
  <fix>3d</fix>
</trkpt>
<trkpt lat="40.0713617" lon="-105.2297923">
  <ele>1583.0</ele>
  <time>2026-08-28T17:52:26Z</time>
  <course>0.85</course>
  <speed>2.05</speed>
  <fix>3d</fix>
</trkpt>
<trkpt lat="40.071367" lon="-105.2297924">
  <ele>1583.15</ele>
  <time>2026-08-28T17:52:26Z</time>
  <course>1.13</course>
  <speed>1.9200260414900625</speed>
  <fix>3d</fix>
</trkpt>
<trkpt lat="40.0713617" lon="-105.2297923">
  <ele>1583.0</ele>
  <time>2026-08-28T17:52:26Z</time>
  <course>0.85</course>
  <speed>2.05</speed>
  <fix>3d</fix>
</trkpt>
<trkpt lat="40.0713688" lon="-105.2297923">
  <ele>1583.15</ele>
  <time>2026-08-28T17:52:26Z</time>
  <course>1.0</course>
  <speed>1.93</speed>
  <fix>3d</fix>
</trkpt>
<trkpt lat="40.0713654" lon="-105.2297923">
  <ele>1583.0</ele>
  <time>2026-08-28T17:52:26Z</time>
  <course>0.57</course>
  <speed>2.01</speed>
  <fix>3d</fix>
</trkpt>
<trkpt lat="40.0713706" lon="-105.2297923">
  <ele>1583.15</ele>
  <time>2026-08-28T17:52:26Z</time>
  <course>0.89</course>
  <speed>1.95</speed>
  <fix>3d</fix>
</trkpt>
<trkpt lat="40.0713654" lon="-105.2297923">
  <ele>1583.0</ele>
  <time>2026-08-28T17:52:26Z</time>
  <course>0.57</course>
  <speed>2.01</speed>
  <fix>3d</fix>
</trkpt>
<trkpt lat="40.0713724" lon="-105.2297923">
  <ele>1583.15</ele>
  <time>2026-08-28T17:52:26Z</time>
  <course>0.78</course>
  <speed>1.99</speed>
  <fix>3d</fix>
</trkpt>
<trkpt lat="40.071369" lon="-105.2297923">
  <ele>1583.0</ele>
  <time>2026-08-28T17:52:26Z</time>
  <course>0.31</course>
  <speed>2.02</speed>
  <fix>3d</fix>
</trkpt>
<trkpt lat="40.0713739" lon="-105.2297923">
  <ele>1583.15</ele>
  <time>2026-08-28T17:52:26Z</time>
  <course>0.72</course>
  <speed>2.03</speed>
  <fix>3d</fix>
</trkpt>
<trkpt lat="40.071369" lon="-105.2297923">
  <ele>1583.0</ele>
  <time>2026-08-28T17:52:26Z</time>
  <course>0.31</course>
  <speed>2.02</speed>
  <fix>3d</fix>
</trkpt>
<trkpt lat="40.0713758" lon="-105.2297923">
  <ele>1583.15</ele>
  <time>2026-08-28T17:52:26Z</time>
  <course>0.63</course>
  <speed>2.1</speed>
  <fix>3d</fix>
</trkpt>
<trkpt lat="40.0713727" lon="-105.2297923">
  <ele>1583.0</ele>
  <time>2026-08-28T17:52:26Z</time>
  <course>0.1</course>
  <speed>2.09</speed>
  <fix>3d</fix>
</trkpt>
<trkpt lat="40.0713778" lon="-105.2297923">
  <ele>1583.15</ele>
  <time>2026-08-28T17:52:26Z</time>
  <course>0.58</course>
  <speed>2.18</speed>
  <fix>3d</fix>
</trkpt>
<trkpt lat="40.0713727" lon="-105.2297923">
  <ele>1583.0</ele>
  <time>2026-08-28T17:52:26Z</time>
  <course>0.1</course>
  <speed>2.09</speed>
  <fix>3d</fix>
</trkpt>
<trkpt lat="40.0713798" lon="-105.2297923">
  <ele>1583.15</ele>
  <time>2026-08-28T17:52:26Z</time>
  <course>0.54</course>
  <speed>2.27</speed>
  <fix>3d</fix>
</trkpt>
<trkpt lat="40.0713765" lon="-105.2297923">
  <ele>1583.0</ele>
  <time>2026-08-28T17:52:26Z</time>
  <course>359.93</course>
  <speed>2.22</speed>
  <fix>3d</fix>
</trkpt>
<trkpt lat="40.071382" lon="-105.2297923">
  <ele>1583.15</ele>
  <time>2026-08-28T17:52:26Z</time>
  <course>0.51</course>
  <speed>2.38</speed>
  <fix>3d</fix>
</trkpt>
<trkpt lat="40.0713765" lon="-105.2297923">
  <ele>1583.0</ele>
  <time>2026-08-28T17:52:26Z</time>
  <course>359.93</course>
  <speed>2.22</speed>
  <fix>3d</fix>
</trkpt>
<trkpt lat="40.0713843" lon="-105.2297923">
  <ele>1583.15</ele>
  <time>2026-08-28T17:52:26Z</time>
  <course>0.48</course>
  <speed>2.5</speed>
  <fix>3d</fix>
</trkpt>
<trkpt lat="40.0713807" lon="-105.2297923">
  <ele>1583.0</ele>
  <time>2026-08-28T17:52:26Z</time>
  <course>359.83</course>
  <speed>2.4</speed>
  <fix>3d</fix>
</trkpt>
<trkpt lat="40.0713867" lon="-105.2297923">
  <ele>1583.15</ele>
  <time>2026-08-28T17:52:26Z</time>
  <course>0.45</course>
  <speed>2.63</speed>
  <fix>3d</fix>
</trkpt>
<trkpt lat="40.0713807" lon="-105.2297923">
  <ele>1583.0</ele>
  <time>2026-08-28T17:52:26Z</time>
  <course>359.83</course>
  <speed>2.4</speed>
  <fix>3d</fix>
</trkpt>
<trkpt lat="40.0713892" lon="-105.2297923">
  <ele>1583.15</ele>
  <time>2026-08-28T17:52:26Z</time>
  <course>0.41</course>
  <speed>2.76</speed>
  <fix>3d</fix>
</trkpt>
<trkpt lat="40.0713852" lon="-105.2297923">
  <ele>1583.0</ele>
  <time>2026-08-28T17:52:26Z</time>
  <course>359.76</course>
  <speed>2.62</speed>
  <fix>3d</fix>
</trkpt>
<trkpt lat="40.0713919" lon="-105.2297923">
  <ele>1583.15</ele>
  <time>2026-08-28T17:52:26Z</time>
  <course>0.39</course>
  <speed>2.9</speed>
  <fix>3d</fix>
</trkpt>
<trkpt lat="40.0713852" lon="-105.2297923">
  <ele>1583.0</ele>
  <time>2026-08-28T17:52:26Z</time>
  <course>359.76</course>
  <speed>2.62</speed>
  <fix>3d</fix>
</trkpt>
<trkpt lat="40.0713946" lon="-105.2297923">
  <ele>1583.15</ele>
  <time>2026-08-28T17:52:26Z</time>
  <course>0.38</course>
  <speed>3.05</speed>
  <fix>3d</fix>
</trkpt>
<trkpt lat="40.0713901" lon="-105.2297923">
  <ele>1583.0</ele>
  <time>2026-08-28T17:52:26Z</time>
  <course>359.7</course>
  <speed>2.88</speed>
  <fix>3d</fix>
</trkpt>
<trkpt lat="40.0713981" lon="-105.2297923">
  <ele>1583.15</ele>
  <time>2026-08-28T17:52:26Z</time>
  <course>0.37</course>
  <speed>3.2300154798390674</speed>
  <fix>3d</fix>
</trkpt>
<trkpt lat="40.0713901" lon="-105.2297923">
  <ele>1583.0</ele>
  <time>2026-08-28T17:52:26Z</time>
  <course>359.7</course>
  <speed>2.88</speed>
  <fix>3d</fix>
</trkpt>
<trkpt lat="40.0714012" lon="-105.2297923">
  <ele>1583.14</ele>
  <time>2026-08-28T17:52:26Z</time>
  <course>0.35</course>
  <speed>3.3800147928670374</speed>
  <fix>3d</fix>
</trkpt>
<trkpt lat="40.0713956" lon="-105.2297923">
  <ele>1583.0</ele>
  <time>2026-08-28T17:52:26Z</time>
  <course>359.66</course>
  <speed>3.16</speed>
  <fix>3d</fix>
</trkpt>
<trkpt lat="40.0714044" lon="-105.2297923">
  <ele>1583.14</ele>
  <time>2026-08-28T17:52:26Z</time>
  <course>0.35</course>
  <speed>3.5200142045167944</speed>
  <fix>3d</fix>
</trkpt>
<trkpt lat="40.0713956" lon="-105.2297923">
  <ele>1583.0</ele>
  <time>2026-08-28T17:52:26Z</time>
  <course>359.66</course>
  <speed>3.16</speed>
  <fix>3d</fix>
</trkpt>
<trkpt lat="40.0714077" lon="-105.2297923">
  <ele>1583.15</ele>
  <time>2026-08-28T17:52:26Z</time>
  <course>0.35</course>
  <speed>3.6700136239529138</speed>
  <fix>3d</fix>
</trkpt>
<trkpt lat="40.0714016" lon="-105.2297923">
  <ele>1583.0</ele>
  <time>2026-08-28T17:52:26Z</time>
  <course>359.64</course>
  <speed>3.45</speed>
  <fix>3d</fix>
</trkpt>
<trkpt lat="40.0714112" lon="-105.2297923">
  <ele>1583.15</ele>
  <time>2026-08-28T17:52:26Z</time>
  <course>0.35</course>
  <speed>3.8200130889828112</speed>
  <fix>3d</fix>
</trkpt>
<trkpt lat="40.0714016" lon="-105.2297923">
  <ele>1583.0</ele>
  <time>2026-08-28T17:52:26Z</time>
  <course>359.64</course>
  <speed>3.45</speed>
  <fix>3d</fix>
</trkpt>
<trkpt lat="40.0714148" lon="-105.2297923">
  <ele>1583.15</ele>
  <time>2026-08-28T17:52:26Z</time>
  <course>0.35</course>
  <speed>3.960012626242497</speed>
  <fix>3d</fix>
</trkpt>
<trkpt lat="40.071408" lon="-105.2297923">
  <ele>1583.0</ele>
  <time>2026-08-28T17:52:26Z</time>
  <course>359.63</course>
  <speed>3.73</speed>
  <fix>3d</fix>
</trkpt>
<trkpt lat="40.0714185" lon="-105.2297923">
  <ele>1583.15</ele>
  <time>2026-08-28T17:52:26Z</time>
  <course>0.35</course>
  <speed>4.100012195103814</speed>
  <fix>3d</fix>
</trkpt>
<trkpt lat="40.071408" lon="-105.2297923">
  <ele>1583.0</ele>
  <time>2026-08-28T17:52:26Z</time>
  <course>359.63</course>
  <speed>3.73</speed>
  <fix>3d</fix>
</trkpt>
<trkpt lat="40.0714223" lon="-105.2297923">
  <ele>1583.15</ele>
  <time>2026-08-28T17:52:26Z</time>
  <course>0.35</course>
  <speed>4.240011792436431</speed>
  <fix>3d</fix>
</trkpt>
<trkpt lat="40.071415" lon="-105.2297924">
  <ele>1583.0</ele>
  <time>2026-08-28T17:52:26Z</time>
  <course>359.63</course>
  <speed>4.01</speed>
  <fix>3d</fix>
</trkpt>
<trkpt lat="40.0714262" lon="-105.2297923">
  <ele>1583.15</ele>
  <time>2026-08-28T17:52:26Z</time>
  <course>0.35</course>
  <speed>4.370045766350737</speed>
  <fix>3d</fix>
</trkpt>
<trkpt lat="40.071415" lon="-105.2297924">
  <ele>1583.0</ele>
  <time>2026-08-28T17:52:26Z</time>
  <course>359.63</course>
  <speed>4.01</speed>
  <fix>3d</fix>
</trkpt>
<trkpt lat="40.0714302" lon="-105.2297923">
  <ele>1583.15</ele>
  <time>2026-08-28T17:52:26Z</time>
  <course>0.35</course>
  <speed>4.500044444224968</speed>
  <fix>3d</fix>
</trkpt>
<trkpt lat="40.0714224" lon="-105.2297925">
  <ele>1583.0</ele>
  <time>2026-08-28T17:52:26Z</time>
  <course>359.63</course>
  <speed>4.28</speed>
  <fix>3d</fix>
</trkpt>
<trkpt lat="40.0714343" lon="-105.2297923">
  <ele>1583.15</ele>
  <time>2026-08-28T17:52:26Z</time>
  <course>0.34</course>
  <speed>4.610043383743801</speed>
  <fix>3d</fix>
</trkpt>
<trkpt lat="40.0714224" lon="-105.2297925">
  <ele>1583.0</ele>
  <time>2026-08-28T17:52:26Z</time>
  <course>359.63</course>
  <speed>4.28</speed>
  <fix>3d</fix>
</trkpt>
<trkpt lat="40.0714377" lon="-105.2297923">
  <ele>1583.15</ele>
  <time>2026-08-28T17:52:26Z</time>
  <course>0.34</course>
  <speed>4.700042552998855</speed>
  <fix>3d</fix>
</trkpt>
<trkpt lat="40.0714303" lon="-105.2297925">
  <ele>1583.0</ele>
  <time>2026-08-28T17:52:26Z</time>
  <course>359.63</course>
  <speed>4.53</speed>
  <fix>3d</fix>
</trkpt>
<trkpt lat="40.071442" lon="-105.2297923">
  <ele>1583.15</ele>
  <time>2026-08-28T17:52:26Z</time>
  <course>0.34</course>
  <speed>4.800041666485823</speed>
  <fix>3d</fix>
</trkpt>
<trkpt lat="40.0714303" lon="-105.2297925">
  <ele>1583.0</ele>
  <time>2026-08-28T17:52:26Z</time>
  <course>359.63</course>
  <speed>4.53</speed>
  <fix>3d</fix>
</trkpt>
<trkpt lat="40.0714464" lon="-105.2297923">
  <ele>1583.15</ele>
  <time>2026-08-28T17:52:26Z</time>
  <course>0.33</course>
  <speed>4.89004089962446</speed>
  <fix>3d</fix>
</trkpt>
<trkpt lat="40.0714387" lon="-105.2297926">
  <ele>1583.0</ele>
  <time>2026-08-28T17:52:26Z</time>
  <course>359.63</course>
  <speed>4.75</speed>
  <fix>3d</fix>
</trkpt>
<trkpt lat="40.0714509" lon="-105.2297923">
  <ele>1583.15</ele>
  <time>2026-08-28T17:52:26Z</time>
  <course>0.32</course>
  <speed>4.970040241285778</speed>
  <fix>3d</fix>
</trkpt>
<trkpt lat="40.0714387" lon="-105.2297926">
  <ele>1583.0</ele>
  <time>2026-08-28T17:52:26Z</time>
  <course>359.63</course>
  <speed>4.75</speed>
  <fix>3d</fix>
</trkpt>
<trkpt lat="40.0714554" lon="-105.2297923">
  <ele>1583.15</ele>
  <time>2026-08-28T17:52:26Z</time>
  <course>0.32</course>
  <speed>5.040009920625157</speed>
  <fix>3d</fix>
</trkpt>
<trkpt lat="40.0714474" lon="-105.2297926">
  <ele>1583.0</ele>
  <time>2026-08-28T17:52:26Z</time>
  <course>359.63</course>
  <speed>4.93</speed>
  <fix>3d</fix>
</trkpt>
<trkpt lat="40.0714601" lon="-105.2297924">
  <ele>1583.15</ele>
  <time>2026-08-28T17:52:26Z</time>
  <course>0.31</course>
  <speed>5.100009803912146</speed>
  <fix>3d</fix>
</trkpt>
<trkpt lat="40.0714474" lon="-105.2297926">
  <ele>1583.0</ele>
  <time>2026-08-28T17:52:26Z</time>
  <course>359.63</course>
  <speed>4.93</speed>
  <fix>3d</fix>
</trkpt>
<trkpt lat="40.0714647" lon="-105.2297924">
  <ele>1583.15</ele>
  <time>2026-08-28T17:52:26Z</time>
  <course>0.31</course>
  <speed>5.140009727617254</speed>
  <fix>3d</fix>
</trkpt>
<trkpt lat="40.0714564" lon="-105.2297927">
  <ele>1583.0</ele>
  <time>2026-08-28T17:52:26Z</time>
  <course>359.63</course>
  <speed>5.06</speed>
  <fix>3d</fix>
</trkpt>
<trkpt lat="40.0714695" lon="-105.2297924">
  <ele>1583.15</ele>
  <time>2026-08-28T17:52:26Z</time>
  <course>0.3</course>
  <speed>5.18000965250066</speed>
  <fix>3d</fix>
</trkpt>
<trkpt lat="40.0714564" lon="-105.2297927">
  <ele>1583.0</ele>
  <time>2026-08-28T17:52:26Z</time>
  <course>359.63</course>
  <speed>5.06</speed>
  <fix>3d</fix>
</trkpt>
<trkpt lat="40.0714742" lon="-105.2297924">
  <ele>1583.15</ele>
  <time>2026-08-28T17:52:26Z</time>
  <course>0.3</course>
  <speed>5.210009596920144</speed>
  <fix>3d</fix>
</trkpt>
<trkpt lat="40.0714656" lon="-105.2297928">
  <ele>1583.0</ele>
  <time>2026-08-28T17:52:26Z</time>
  <course>359.63</course>
  <speed>5.15</speed>
  <fix>3d</fix>
</trkpt>
<trkpt lat="40.071479" lon="-105.2297924">
  <ele>1583.15</ele>
  <time>2026-08-28T17:52:26Z</time>
  <course>0.29</course>
  <speed>5.220009578535273</speed>
  <fix>3d</fix>
</trkpt>
<trkpt lat="40.0714656" lon="-105.2297928">
  <ele>1583.0</ele>
  <time>2026-08-28T17:52:26Z</time>
  <course>359.63</course>
  <speed>5.15</speed>
  <fix>3d</fix>
</trkpt>
<trkpt lat="40.0714847" lon="-105.2297925">
  <ele>1583.14</ele>
  <time>2026-08-28T17:52:26Z</time>
  <course>0.28</course>
  <speed>5.230009560220708</speed>
  <fix>3d</fix>
</trkpt>
<trkpt lat="40.0714749" lon="-105.2297929">
  <ele>1583.0</ele>
  <time>2026-08-28T17:52:26Z</time>
  <course>359.63</course>
  <speed>5.2</speed>
  <fix>3d</fix>
</trkpt>
<trkpt lat="40.0714894" lon="-105.2297925">
  <ele>1583.14</ele>
  <time>2026-08-28T17:52:26Z</time>
  <course>0.28</course>
  <speed>5.230009560220708</speed>
  <fix>3d</fix>
</trkpt>
<trkpt lat="40.0714749" lon="-105.2297929">
  <ele>1583.0</ele>
  <time>2026-08-28T17:52:26Z</time>
  <course>359.63</course>
  <speed>5.2</speed>
  <fix>3d</fix>
</trkpt>
<trkpt lat="40.0714942" lon="-105.2297926">
  <ele>1583.14</ele>
  <time>2026-08-28T17:52:26Z</time>
  <course>0.27</course>
  <speed>5.22</speed>
  <fix>3d</fix>
</trkpt>
<trkpt lat="40.0714842" lon="-105.229793">
  <ele>1583.0</ele>
  <time>2026-08-28T17:52:26Z</time>
  <course>359.63</course>
  <speed>5.21</speed>
  <fix>3d</fix>
</trkpt>
<trkpt lat="40.0714989" lon="-105.2297926">
  <ele>1583.14</ele>
  <time>2026-08-28T17:52:26Z</time>
  <course>0.27</course>
  <speed>5.21</speed>
  <fix>3d</fix>
</trkpt>
<trkpt lat="40.0714842" lon="-105.229793">
  <ele>1583.0</ele>
  <time>2026-08-28T17:52:26Z</time>
  <course>359.63</course>
  <speed>5.21</speed>
  <fix>3d</fix>
</trkpt>
<trkpt lat="40.0715036" lon="-105.2297926">
  <ele>1583.14</ele>
  <time>2026-08-28T17:52:26Z</time>
  <course>0.26</course>
  <speed>5.19</speed>
  <fix>3d</fix>
</trkpt>
<trkpt lat="40.0714936" lon="-105.229793">
  <ele>1583.0</ele>
  <time>2026-08-28T17:52:26Z</time>
  <course>359.63</course>
  <speed>5.2</speed>
  <fix>3d</fix>
</trkpt>
<trkpt lat="40.0715083" lon="-105.2297927">
  <ele>1583.14</ele>
  <time>2026-08-28T17:52:26Z</time>
  <course>0.26</course>
  <speed>5.17</speed>
  <fix>3d</fix>
</trkpt>
<trkpt lat="40.0714936" lon="-105.229793">
  <ele>1583.0</ele>
  <time>2026-08-28T17:52:26Z</time>
  <course>359.63</course>
  <speed>5.2</speed>
  <fix>3d</fix>
</trkpt>
<trkpt lat="40.0715129" lon="-105.2297927">
  <ele>1583.14</ele>
  <time>2026-08-28T17:52:26Z</time>
  <course>0.26</course>
  <speed>5.15</speed>
  <fix>3d</fix>
</trkpt>
<trkpt lat="40.0715029" lon="-105.2297931">
  <ele>1583.0</ele>
  <time>2026-08-28T17:52:26Z</time>
  <course>359.63</course>
  <speed>5.17</speed>
  <fix>3d</fix>
</trkpt>
<trkpt lat="40.0715175" lon="-105.2297928">
  <ele>1583.14</ele>
  <time>2026-08-28T17:52:26Z</time>
  <course>0.25</course>
  <speed>5.12</speed>
  <fix>3d</fix>
</trkpt>
<trkpt lat="40.0715029" lon="-105.2297931">
  <ele>1583.0</ele>
  <time>2026-08-28T17:52:26Z</time>
  <course>359.63</course>
  <speed>5.17</speed>
  <fix>3d</fix>
</trkpt>
<trkpt lat="40.071522" lon="-105.2297928">
  <ele>1583.14</ele>
  <time>2026-08-28T17:52:26Z</time>
  <course>0.25</course>
  <speed>5.1</speed>
  <fix>3d</fix>
</trkpt>
<trkpt lat="40.0715122" lon="-105.2297932">
  <ele>1583.0</ele>
  <time>2026-08-28T17:52:26Z</time>
  <course>359.63</course>
  <speed>5.12</speed>
  <fix>3d</fix>
</trkpt>
<trkpt lat="40.0715265" lon="-105.2297929">
  <ele>1583.14</ele>
  <time>2026-08-28T17:52:26Z</time>
  <course>0.25</course>
  <speed>5.07</speed>
  <fix>3d</fix>
</trkpt>
<trkpt lat="40.0715122" lon="-105.2297932">
  <ele>1583.0</ele>
  <time>2026-08-28T17:52:26Z</time>
  <course>359.63</course>
  <speed>5.12</speed>
  <fix>3d</fix>
</trkpt>
<trkpt lat="40.071531" lon="-105.2297929">
  <ele>1583.14</ele>
  <time>2026-08-28T17:52:26Z</time>
  <course>0.25</course>
  <speed>5.04</speed>
  <fix>3d</fix>
</trkpt>
<trkpt lat="40.0715214" lon="-105.2297933">
  <ele>1583.0</ele>
  <time>2026-08-28T17:52:26Z</time>
  <course>359.63</course>
  <speed>5.08</speed>
  <fix>3d</fix>
</trkpt>
<trkpt lat="40.0715347" lon="-105.229793">
  <ele>1583.14</ele>
  <time>2026-08-28T17:52:26Z</time>
  <course>0.25</course>
  <speed>5.02</speed>
  <fix>3d</fix>
</trkpt>
<trkpt lat="40.0715214" lon="-105.2297933">
  <ele>1583.0</ele>
  <time>2026-08-28T17:52:26Z</time>
  <course>359.63</course>
  <speed>5.08</speed>
  <fix>3d</fix>
</trkpt>
<trkpt lat="40.0715391" lon="-105.229793">
  <ele>1583.14</ele>
  <time>2026-08-28T17:52:26Z</time>
  <course>0.25</course>
  <speed>5.0</speed>
  <fix>3d</fix>
</trkpt>
<trkpt lat="40.0715304" lon="-105.2297933">
  <ele>1583.0</ele>
  <time>2026-08-28T17:52:26Z</time>
  <course>359.63</course>
  <speed>5.03</speed>
  <fix>3d</fix>
</trkpt>
<trkpt lat="40.0715436" lon="-105.2297931">
  <ele>1583.14</ele>
  <time>2026-08-28T17:52:26Z</time>
  <course>0.24</course>
  <speed>4.98</speed>
  <fix>3d</fix>
</trkpt>
<trkpt lat="40.0715304" lon="-105.2297933">
  <ele>1583.0</ele>
  <time>2026-08-28T17:52:26Z</time>
  <course>359.63</course>
  <speed>5.03</speed>
  <fix>3d</fix>
</trkpt>
<trkpt lat="40.071548" lon="-105.2297931">
  <ele>1583.14</ele>
  <time>2026-08-28T17:52:26Z</time>
  <course>0.24</course>
  <speed>4.97</speed>
  <fix>3d</fix>
</trkpt>
<trkpt lat="40.0715395" lon="-105.2297934">
  <ele>1583.0</ele>
  <time>2026-08-28T17:52:26Z</time>
  <course>359.63</course>
  <speed>4.99</speed>
  <fix>3d</fix>
</trkpt>
<trkpt lat="40.0715525" lon="-105.2297932">
  <ele>1583.14</ele>
  <time>2026-08-28T17:52:26Z</time>
  <course>0.24</course>
  <speed>4.95</speed>
  <fix>3d</fix>
</trkpt>
<trkpt lat="40.0715395" lon="-105.2297934">
  <ele>1583.0</ele>
  <time>2026-08-28T17:52:26Z</time>
  <course>359.63</course>
  <speed>4.99</speed>
  <fix>3d</fix>
</trkpt>
<trkpt lat="40.071557" lon="-105.2297932">
  <ele>1583.14</ele>
  <time>2026-08-28T17:52:26Z</time>
  <course>0.24</course>
  <speed>4.94</speed>
  <fix>3d</fix>
</trkpt>
<trkpt lat="40.0715484" lon="-105.2297935">
  <ele>1583.0</ele>
  <time>2026-08-28T17:52:26Z</time>
  <course>359.63</course>
  <speed>4.96</speed>
  <fix>3d</fix>
</trkpt>
<trkpt lat="40.0715614" lon="-105.2297932">
  <ele>1583.14</ele>
  <time>2026-08-28T17:52:26Z</time>
  <course>0.24</course>
  <speed>4.93</speed>
  <fix>3d</fix>
</trkpt>
<trkpt lat="40.0715484" lon="-105.2297935">
  <ele>1583.0</ele>
  <time>2026-08-28T17:52:26Z</time>
  <course>359.63</course>
  <speed>4.96</speed>
  <fix>3d</fix>
</trkpt>
<trkpt lat="40.0715659" lon="-105.2297933">
  <ele>1583.14</ele>
  <time>2026-08-28T17:52:26Z</time>
  <course>0.24</course>
  <speed>4.92001016259113</speed>
  <fix>3d</fix>
</trkpt>
<trkpt lat="40.0715573" lon="-105.2297935">
  <ele>1583.0</ele>
  <time>2026-08-28T17:52:26Z</time>
  <course>359.63</course>
  <speed>4.94</speed>
  <fix>3d</fix>
</trkpt>
<trkpt lat="40.0715703" lon="-105.2297933">
  <ele>1583.13</ele>
  <time>2026-08-28T17:52:26Z</time>
  <course>0.24</course>
  <speed>4.900010204071008</speed>
  <fix>3d</fix>
</trkpt>
<trkpt lat="40.0715573" lon="-105.2297935">
  <ele>1583.0</ele>
  <time>2026-08-28T17:52:26Z</time>
  <course>359.63</course>
  <speed>4.94</speed>
  <fix>3d</fix>
</trkpt>
<trkpt lat="40.0715747" lon="-105.2297934">
  <ele>1583.13</ele>
  <time>2026-08-28T17:52:26Z</time>
  <course>0.25</course>
  <speed>4.860010288054954</speed>
  <fix>3d</fix>
</trkpt>
<trkpt lat="40.0715662" lon="-105.2297936">
  <ele>1583.0</ele>
  <time>2026-08-28T17:52:26Z</time>
  <course>359.63</course>
  <speed>4.91</speed>
  <fix>3d</fix>
</trkpt>
<trkpt lat="40.07158" lon="-105.2297934">
  <ele>1583.13</ele>
  <time>2026-08-28T17:52:26Z</time>
  <course>0.25</course>
  <speed>4.800010416655364</speed>
  <fix>3d</fix>
</trkpt>
<trkpt lat="40.0715662" lon="-105.2297936">
  <ele>1583.0</ele>
  <time>2026-08-28T17:52:26Z</time>
  <course>359.63</course>
  <speed>4.91</speed>
  <fix>3d</fix>
</trkpt>
<trkpt lat="40.0715843" lon="-105.2297935">
  <ele>1583.12</ele>
  <time>2026-08-28T17:52:26Z</time>
  <course>0.25</course>
  <speed>4.740010548511469</speed>
  <fix>3d</fix>
</trkpt>
<trkpt lat="40.0715749" lon="-105.2297937">
  <ele>1583.0</ele>
  <time>2026-08-28T17:52:26Z</time>
  <course>359.63</course>
  <speed>4.84</speed>
  <fix>3d</fix>
</trkpt>
<trkpt lat="40.0715885" lon="-105.2297935">
  <ele>1583.12</ele>
  <time>2026-08-28T17:52:26Z</time>
  <course>0.25</course>
  <speed>4.660010729601382</speed>
  <fix>3d</fix>
</trkpt>
<trkpt lat="40.0715749" lon="-105.2297937">
  <ele>1583.0</ele>
  <time>2026-08-28T17:52:26Z</time>
  <course>359.63</course>
  <speed>4.84</speed>
  <fix>3d</fix>
</trkpt>
<trkpt lat="40.0715926" lon="-105.2297936">
  <ele>1583.13</ele>
  <time>2026-08-28T17:52:26Z</time>
  <course>0.25</course>
  <speed>4.570010940905941</speed>
  <fix>3d</fix>
</trkpt>
<trkpt lat="40.0715835" lon="-105.2297938">
  <ele>1583.0</ele>
  <time>2026-08-28T17:52:26Z</time>
  <course>359.63</course>
  <speed>4.72</speed>
  <fix>3d</fix>
</trkpt>
<trkpt lat="40.0715967" lon="-105.2297936">
  <ele>1583.13</ele>
  <time>2026-08-28T17:52:26Z</time>
  <course>0.25</course>
  <speed>4.480011160700384</speed>
  <fix>3d</fix>
</trkpt>
<trkpt lat="40.0715835" lon="-105.2297938">
  <ele>1583.0</ele>
  <time>2026-08-28T17:52:26Z</time>
  <course>359.63</course>
  <speed>4.72</speed>
  <fix>3d</fix>
</trkpt>
<trkpt lat="40.0716007" lon="-105.2297936">
  <ele>1583.13</ele>
  <time>2026-08-28T17:52:26Z</time>
  <course>0.26</course>
  <speed>4.370011441632618</speed>
  <fix>3d</fix>
</trkpt>
<trkpt lat="40.0715919" lon="-105.2297938">
  <ele>1583.0</ele>
  <time>2026-08-28T17:52:26Z</time>
  <course>359.63</course>
  <speed>4.55</speed>
  <fix>3d</fix>
</trkpt>
<trkpt lat="40.0716045" lon="-105.2297937">
  <ele>1583.13</ele>
  <time>2026-08-28T17:52:26Z</time>
  <course>0.27</course>
  <speed>4.260011737073032</speed>
  <fix>3d</fix>
</trkpt>
<trkpt lat="40.0715919" lon="-105.2297938">
  <ele>1583.0</ele>
  <time>2026-08-28T17:52:26Z</time>
  <course>359.63</course>
  <speed>4.55</speed>
  <fix>3d</fix>
</trkpt>
<trkpt lat="40.0716082" lon="-105.2297937">
  <ele>1583.13</ele>
  <time>2026-08-28T17:52:26Z</time>
  <course>0.32</course>
  <speed>4.14001207727707</speed>
  <fix>3d</fix>
</trkpt>
<trkpt lat="40.0716" lon="-105.2297939">
  <ele>1583.0</ele>
  <time>2026-08-28T17:52:26Z</time>
  <course>359.64</course>
  <speed>4.35</speed>
  <fix>3d</fix>
</trkpt>
<trkpt lat="40.0716118" lon="-105.2297938">
  <ele>1583.13</ele>
  <time>2026-08-28T17:52:26Z</time>
  <course>0.36</course>
  <speed>4.020012437791704</speed>
  <fix>3d</fix>
</trkpt>
<trkpt lat="40.0716" lon="-105.2297939">
  <ele>1583.0</ele>
  <time>2026-08-28T17:52:26Z</time>
  <course>359.64</course>
  <speed>4.35</speed>
  <fix>3d</fix>
</trkpt>
<trkpt lat="40.0716153" lon="-105.2297938">
  <ele>1583.13</ele>
  <time>2026-08-28T17:52:26Z</time>
  <course>0.42</course>
  <speed>3.89</speed>
  <fix>3d</fix>
</trkpt>
<trkpt lat="40.0716076" lon="-105.229794">
  <ele>1583.0</ele>
  <time>2026-08-28T17:52:26Z</time>
  <course>359.7</course>
  <speed>4.13</speed>
  <fix>3d</fix>
</trkpt>
<trkpt lat="40.0716187" lon="-105.2297938">
  <ele>1583.13</ele>
  <time>2026-08-28T17:52:26Z</time>
  <course>0.48</course>
  <speed>3.76</speed>
  <fix>3d</fix>
</trkpt>
<trkpt lat="40.0716076" lon="-105.229794">
  <ele>1583.0</ele>
  <time>2026-08-28T17:52:26Z</time>
  <course>359.7</course>
  <speed>4.13</speed>
  <fix>3d</fix>
</trkpt>
<trkpt lat="40.0716214" lon="-105.2297938">
  <ele>1583.13</ele>
  <time>2026-08-28T17:52:26Z</time>
  <course>0.52</course>
  <speed>3.66</speed>
  <fix>3d</fix>
</trkpt>
<trkpt lat="40.0716148" lon="-105.229794">
  <ele>1583.0</ele>
  <time>2026-08-28T17:52:26Z</time>
  <course>359.8</course>
  <speed>3.89</speed>
  <fix>3d</fix>
</trkpt>
<trkpt lat="40.0716246" lon="-105.2297939">
  <ele>1583.12</ele>
  <time>2026-08-28T17:52:26Z</time>
  <course>0.57</course>
  <speed>3.53</speed>
  <fix>3d</fix>
</trkpt>
<trkpt lat="40.0716148" lon="-105.229794">
  <ele>1583.0</ele>
  <time>2026-08-28T17:52:26Z</time>
  <course>359.8</course>
  <speed>3.89</speed>
  <fix>3d</fix>
</trkpt>
<trkpt lat="40.0716277" lon="-105.2297939">
  <ele>1583.12</ele>
  <time>2026-08-28T17:52:26Z</time>
  <course>0.63</course>
  <speed>3.4</speed>
  <fix>3d</fix>
</trkpt>
<trkpt lat="40.0716216" lon="-105.229794">
  <ele>1583.0</ele>
  <time>2026-08-28T17:52:26Z</time>
  <course>359.9</course>
  <speed>3.64</speed>
  <fix>3d</fix>
</trkpt>
<trkpt lat="40.0716307" lon="-105.2297939">
  <ele>1583.12</ele>
  <time>2026-08-28T17:52:26Z</time>
  <course>0.73</course>
  <speed>3.28</speed>
  <fix>3d</fix>
</trkpt>
<trkpt lat="40.0716216" lon="-105.229794">
  <ele>1583.0</ele>
  <time>2026-08-28T17:52:26Z</time>
  <course>359.9</course>
  <speed>3.64</speed>
  <fix>3d</fix>
</trkpt>
<trkpt lat="40.0716336" lon="-105.2297939">
  <ele>1583.12</ele>
  <time>2026-08-28T17:52:26Z</time>
  <course>0.82</course>
  <speed>3.15</speed>
  <fix>3d</fix>
</trkpt>
<trkpt lat="40.0716279" lon="-105.229794">
  <ele>1583.0</ele>
  <time>2026-08-28T17:52:26Z</time>
  <course>0.03</course>
  <speed>3.39</speed>
  <fix>3d</fix>
</trkpt>
<trkpt lat="40.0716364" lon="-105.2297939">
  <ele>1583.11</ele>
  <time>2026-08-28T17:52:26Z</time>
  <course>0.9</course>
  <speed>3.0300165016052305</speed>
  <fix>3d</fix>
</trkpt>
<trkpt lat="40.0716279" lon="-105.229794">
  <ele>1583.0</ele>
  <time>2026-08-28T17:52:26Z</time>
  <course>0.03</course>
  <speed>3.39</speed>
  <fix>3d</fix>
</trkpt>
<trkpt lat="40.071639" lon="-105.2297939">
  <ele>1583.11</ele>
  <time>2026-08-28T17:52:26Z</time>
  <course>1.0</course>
  <speed>2.900017241328058</speed>
  <fix>3d</fix>
</trkpt>
<trkpt lat="40.0716338" lon="-105.229794">
  <ele>1583.0</ele>
  <time>2026-08-28T17:52:26Z</time>
  <course>0.2</course>
  <speed>3.14</speed>
  <fix>3d</fix>
</trkpt>
<trkpt lat="40.0716416" lon="-105.2297939">
  <ele>1583.11</ele>
  <time>2026-08-28T17:52:26Z</time>
  <course>1.12</course>
  <speed>2.780017985553331</speed>
  <fix>3d</fix>
</trkpt>
<trkpt lat="40.0716338" lon="-105.229794">
  <ele>1583.0</ele>
  <time>2026-08-28T17:52:26Z</time>
  <course>0.2</course>
  <speed>3.14</speed>
  <fix>3d</fix>
</trkpt>
<trkpt lat="40.0716441" lon="-105.2297938">
  <ele>1583.12</ele>
  <time>2026-08-28T17:52:26Z</time>
  <course>1.23</course>
  <speed>2.660075186907317</speed>
  <fix>3d</fix>
</trkpt>
<trkpt lat="40.0716391" lon="-105.229794">
  <ele>1583.0</ele>
  <time>2026-08-28T17:52:26Z</time>
  <course>0.39</course>
  <speed>2.9</speed>
  <fix>3d</fix>
</trkpt>
<trkpt lat="40.0716469" lon="-105.2297938">
  <ele>1583.12</ele>
  <time>2026-08-28T17:52:26Z</time>
  <course>1.39</course>
  <speed>2.5100796800101786</speed>
  <fix>3d</fix>
</trkpt>
<trkpt lat="40.0716391" lon="-105.229794">
  <ele>1583.0</ele>
  <time>2026-08-28T17:52:26Z</time>
  <course>0.39</course>
  <speed>2.9</speed>
  <fix>3d</fix>
</trkpt>
<trkpt lat="40.0716491" lon="-105.2297938">
  <ele>1583.12</ele>
  <time>2026-08-28T17:52:26Z</time>
  <course>1.53</course>
  <speed>2.4001874926763533</speed>
  <fix>3d</fix>
</trkpt>
<trkpt lat="40.0716441" lon="-105.229794">
  <ele>1583.0</ele>
  <time>2026-08-28T17:52:26Z</time>
  <course>0.62</course>
  <speed>2.66</speed>
  <fix>3d</fix>
</trkpt>
<trkpt lat="40.0716512" lon="-105.2297938">
  <ele>1583.12</ele>
  <time>2026-08-28T17:52:26Z</time>
  <course>1.68</course>
  <speed>2.2801973598791836</speed>
  <fix>3d</fix>
</trkpt>
<trkpt lat="40.0716441" lon="-105.229794">
  <ele>1583.0</ele>
  <time>2026-08-28T17:52:26Z</time>
  <course>0.62</course>
  <speed>2.66</speed>
  <fix>3d</fix>
</trkpt>
<trkpt lat="40.0716532" lon="-105.2297938">
  <ele>1583.11</ele>
  <time>2026-08-28T17:52:26Z</time>
  <course>1.85</course>
  <speed>2.1703686322834654</speed>
  <fix>3d</fix>
</trkpt>
<trkpt lat="40.0716488" lon="-105.229794">
  <ele>1583.0</ele>
  <time>2026-08-28T17:52:26Z</time>
  <course>0.89</course>
  <speed>2.43</speed>
  <fix>3d</fix>
</trkpt>
<trkpt lat="40.0716551" lon="-105.2297938">
  <ele>1583.11</ele>
  <time>2026-08-28T17:52:26Z</time>
  <course>2.04</course>
  <speed>2.060388312915796</speed>
  <fix>3d</fix>
</trkpt>
<trkpt lat="40.0716488" lon="-105.229794">
  <ele>1583.0</ele>
  <time>2026-08-28T17:52:26Z</time>
  <course>0.89</course>
  <speed>2.43</speed>
  <fix>3d</fix>
</trkpt>
<trkpt lat="40.0716569" lon="-105.2297937">
  <ele>1583.11</ele>
  <time>2026-08-28T17:52:26Z</time>
  <course>2.25</course>
  <speed>1.9604081207748552</speed>
  <fix>3d</fix>
</trkpt>
<trkpt lat="40.071653" lon="-105.2297939">
  <ele>1583.0</ele>
  <time>2026-08-28T17:52:26Z</time>
  <course>1.22</course>
  <speed>2.21</speed>
  <fix>3d</fix>
</trkpt>
<trkpt lat="40.0716586" lon="-105.2297937">
  <ele>1583.11</ele>
  <time>2026-08-28T17:52:26Z</time>
  <course>2.47</course>
  <speed>1.8506755523321745</speed>
  <fix>3d</fix>
</trkpt>
<trkpt lat="40.071653" lon="-105.2297939">
  <ele>1583.0</ele>
  <time>2026-08-28T17:52:26Z</time>
  <course>1.22</course>
  <speed>2.21</speed>
  <fix>3d</fix>
</trkpt>
<trkpt lat="40.0716602" lon="-105.2297936">
  <ele>1583.1</ele>
  <time>2026-08-28T17:52:26Z</time>
  <course>2.73</course>
  <speed>1.7507141400011597</speed>
  <fix>3d</fix>
</trkpt>
<trkpt lat="40.0716568" lon="-105.2297937">
  <ele>1583.0</ele>
  <time>2026-08-28T17:52:26Z</time>
  <course>1.61</course>
  <speed>2.0</speed>
  <fix>3d</fix>
</trkpt>
<trkpt lat="40.0716618" lon="-105.2297935">
  <ele>1583.1</ele>
  <time>2026-08-28T17:52:26Z</time>
  <course>3.01</course>
  <speed>1.6510905486980416</speed>
  <fix>3d</fix>
</trkpt>
<trkpt lat="40.0716568" lon="-105.2297937">
  <ele>1583.0</ele>
  <time>2026-08-28T17:52:26Z</time>
  <course>1.61</course>
  <speed>2.0</speed>
  <fix>3d</fix>
</trkpt>
<trkpt lat="40.0716632" lon="-105.2297935">
  <ele>1583.1</ele>
  <time>2026-08-28T17:52:26Z</time>
  <course>3.34</course>
  <speed>1.5511608556174952</speed>
  <fix>3d</fix>
</trkpt>
<trkpt lat="40.0716601" lon="-105.2297936">
  <ele>1583.0</ele>
  <time>2026-08-28T17:52:26Z</time>
  <course>2.1</course>
  <speed>1.8</speed>
  <fix>3d</fix>
</trkpt>
<trkpt lat="40.0716646" lon="-105.2297934">
  <ele>1583.09</ele>
  <time>2026-08-28T17:52:26Z</time>
  <course>3.71</course>
  <speed>1.4516886718577091</speed>
  <fix>3d</fix>
</trkpt>
<trkpt lat="40.0716601" lon="-105.2297936">
  <ele>1583.0</ele>
  <time>2026-08-28T17:52:26Z</time>
  <course>2.1</course>
  <speed>1.8</speed>
  <fix>3d</fix>
</trkpt>
<trkpt lat="40.0716658" lon="-105.2297933">
  <ele>1583.09</ele>
  <time>2026-08-28T17:52:26Z</time>
  <course>4.14</course>
  <speed>1.3518135966175218</speed>
  <fix>3d</fix>
</trkpt>
<trkpt lat="40.0716632" lon="-105.2297935">
  <ele>1583.0</ele>
  <time>2026-08-28T17:52:26Z</time>
  <course>2.73</course>
  <speed>1.6</speed>
  <fix>3d</fix>
</trkpt>
<trkpt lat="40.0716668" lon="-105.2297932">
  <ele>1583.09</ele>
  <time>2026-08-28T17:52:26Z</time>
  <course>4.52</course>
  <speed>1.27251719045363</speed>
  <fix>3d</fix>
</trkpt>
<trkpt lat="40.0716632" lon="-105.2297935">
  <ele>1583.0</ele>
  <time>2026-08-28T17:52:26Z</time>
  <course>2.73</course>
  <speed>1.6</speed>
  <fix>3d</fix>
</trkpt>
<trkpt lat="40.0716679" lon="-105.2297931">
  <ele>1583.09</ele>
  <time>2026-08-28T17:52:26Z</time>
  <course>5.08</course>
  <speed>1.172731853408954</speed>
  <fix>3d</fix>
</trkpt>
<trkpt lat="40.0716659" lon="-105.2297932">
  <ele>1583.0</ele>
  <time>2026-08-28T17:52:26Z</time>
  <course>3.54</course>
  <speed>1.4</speed>
  <fix>3d</fix>
</trkpt>
<trkpt lat="40.0716689" lon="-105.229793">
  <ele>1583.09</ele>
  <time>2026-08-28T17:52:26Z</time>
  <course>5.75</course>
  <speed>1.0737783756436894</speed>
  <fix>3d</fix>
</trkpt>
<trkpt lat="40.0716659" lon="-105.2297932">
  <ele>1583.0</ele>
  <time>2026-08-28T17:52:26Z</time>
  <course>3.54</course>
  <speed>1.4</speed>
  <fix>3d</fix>
</trkpt>
<trkpt lat="40.0716699" lon="-105.2297929">
  <ele>1583.09</ele>
  <time>2026-08-28T17:52:26Z</time>
  <course>6.55</course>
  <speed>0.9850888284819801</speed>
  <fix>3d</fix>
</trkpt>
<trkpt lat="40.0716683" lon="-105.229793">
  <ele>1583.0</ele>
  <time>2026-08-28T17:52:26Z</time>
  <course>4.65</course>
  <speed>1.21</speed>
  <fix>3d</fix>
</trkpt>
<trkpt lat="40.0716708" lon="-105.2297927">
  <ele>1583.09</ele>
  <time>2026-08-28T17:52:26Z</time>
  <course>7.49</course>
  <speed>0.8856635930193812</speed>
  <fix>3d</fix>
</trkpt>
<trkpt lat="40.0716683" lon="-105.229793">
  <ele>1583.0</ele>
  <time>2026-08-28T17:52:26Z</time>
  <course>4.65</course>
  <speed>1.21</speed>
  <fix>3d</fix>
</trkpt>
<trkpt lat="40.0716715" lon="-105.2297926">
  <ele>1583.1</ele>
  <time>2026-08-28T17:52:26Z</time>
  <course>8.47</course>
  <speed>0.7877182237323191</speed>
  <fix>3d</fix>
</trkpt>
<trkpt lat="40.0716702" lon="-105.2297927">
  <ele>1583.0</ele>
  <time>2026-08-28T17:52:26Z</time>
  <course>6.19</course>
  <speed>1.02</speed>
  <fix>3d</fix>
</trkpt>
<trkpt lat="40.0716722" lon="-105.2297925">
  <ele>1583.1</ele>
  <time>2026-08-28T17:52:26Z</time>
  <course>9.46</course>
  <speed>0.6987131027825368</speed>
  <fix>3d</fix>
</trkpt>
<trkpt lat="40.0716702" lon="-105.2297927">
  <ele>1583.0</ele>
  <time>2026-08-28T17:52:26Z</time>
  <course>6.19</course>
  <speed>1.02</speed>
  <fix>3d</fix>
</trkpt>
<trkpt lat="40.0716728" lon="-105.2297923">
  <ele>1583.1</ele>
  <time>2026-08-28T17:52:26Z</time>
  <course>10.43</course>
  <speed>0.6001666435249463</speed>
  <fix>3d</fix>
</trkpt>
<trkpt lat="40.0716719" lon="-105.2297925">
  <ele>1583.0</ele>
  <time>2026-08-28T17:52:26Z</time>
  <course>8.06</course>
  <speed>0.83</speed>
  <fix>3d</fix>
</trkpt>
<trkpt lat="40.0716734" lon="-105.2297922">
  <ele>1583.1</ele>
  <time>2026-08-28T17:52:26Z</time>
  <course>11.36</course>
  <speed>0.5000999900019995</speed>
  <fix>3d</fix>
</trkpt>
<trkpt lat="40.0716719" lon="-105.2297925">
  <ele>1583.0</ele>
  <time>2026-08-28T17:52:26Z</time>
  <course>8.06</course>
  <speed>0.83</speed>
  <fix>3d</fix>
</trkpt>
<trkpt lat="40.0716739" lon="-105.229792">
  <ele>1583.1</ele>
  <time>2026-08-28T17:52:26Z</time>
  <course>12.37</course>
  <speed>0.3905124837953327</speed>
  <fix>3d</fix>
</trkpt>
<trkpt lat="40.0716732" lon="-105.2297922">
  <ele>1583.0</ele>
  <time>2026-08-28T17:52:26Z</time>
  <course>9.94</course>
  <speed>0.64</speed>
  <fix>3d</fix>
</trkpt>
<trkpt lat="40.0716742" lon="-105.2297919">
  <ele>1583.1</ele>
  <time>2026-08-28T17:52:26Z</time>
  <course>13.11</course>
  <speed>0.31048349392520047</speed>
  <fix>3d</fix>
</trkpt>
<trkpt lat="40.0716732" lon="-105.2297922">
  <ele>1583.0</ele>
  <time>2026-08-28T17:52:26Z</time>
  <course>9.94</course>
  <speed>0.64</speed>
  <fix>3d</fix>
</trkpt>
<trkpt lat="40.0716745" lon="-105.2297918">
  <ele>1583.1</ele>
  <time>2026-08-28T17:52:26Z</time>
  <course>13.77</course>
  <speed>0.24041630560342614</speed>
  <fix>3d</fix>
</trkpt>
<trkpt lat="40.0716742" lon="-105.229792">
  <ele>1583.0</ele>
  <time>2026-08-28T17:52:26Z</time>
  <course>11.63</course>
  <speed>0.46</speed>
  <fix>3d</fix>
</trkpt>
<trkpt lat="40.0716747" lon="-105.2297918">
  <ele>1583.1</ele>
  <time>2026-08-28T17:52:26Z</time>
  <course>14.35</course>
  <speed>0.18973665961010278</speed>
  <fix>3d</fix>
</trkpt>
<trkpt lat="40.0716742" lon="-105.229792">
  <ele>1583.0</ele>
  <time>2026-08-28T17:52:26Z</time>
  <course>11.63</course>
  <speed>0.46</speed>
  <fix>3d</fix>
</trkpt>
<trkpt lat="40.0716749" lon="-105.2297917">
  <ele>1583.09</ele>
  <time>2026-08-28T17:52:26Z</time>
  <course>14.86</course>
  <speed>0.14866068747318506</speed>
  <fix>3d</fix>
</trkpt>
<trkpt lat="40.0716749" lon="-105.2297918">
  <ele>1583.0</ele>
  <time>2026-08-28T17:52:26Z</time>
  <course>13.04</course>
  <speed>0.31</speed>
  <fix>3d</fix>
</trkpt>
<trkpt lat="40.0716751" lon="-105.2297916">
  <ele>1583.09</ele>
  <time>2026-08-28T17:52:26Z</time>
  <course>15.33</course>
  <speed>0.13</speed>
  <fix>3d</fix>
</trkpt>
<trkpt lat="40.0716749" lon="-105.2297918">
  <ele>1583.0</ele>
  <time>2026-08-28T17:52:26Z</time>
  <course>13.04</course>
  <speed>0.31</speed>
  <fix>3d</fix>
</trkpt>
<trkpt lat="40.0716752" lon="-105.2297916">
  <ele>1583.09</ele>
  <time>2026-08-28T17:52:26Z</time>
  <course>15.77</course>
  <speed>0.12083045973594572</speed>
  <fix>3d</fix>
</trkpt>
<trkpt lat="40.0716754" lon="-105.2297916">
  <ele>1583.0</ele>
  <time>2026-08-28T17:52:26Z</time>
  <course>14.16</course>
  <speed>0.23</speed>
  <fix>3d</fix>
</trkpt>
<trkpt lat="40.0716754" lon="-105.2297915">
  <ele>1583.09</ele>
  <time>2026-08-28T17:52:26Z</time>
  <course>16.21</course>
  <speed>0.1118033988749895</speed>
  <fix>3d</fix>
</trkpt>
<trkpt lat="40.0716754" lon="-105.2297916">
  <ele>1583.0</ele>
  <time>2026-08-28T17:52:26Z</time>
  <course>14.16</course>
  <speed>0.23</speed>
  <fix>3d</fix>
</trkpt>
<trkpt lat="40.0716755" lon="-105.2297914">
  <ele>1583.09</ele>
  <time>2026-08-28T17:52:26Z</time>
  <course>16.66</course>
  <speed>0.12529964086141668</speed>
  <fix>3d</fix>
</trkpt>
<trkpt lat="40.0716757" lon="-105.2297915">
  <ele>1583.0</ele>
  <time>2026-08-28T17:52:26Z</time>
  <course>15.13</course>
  <speed>0.19</speed>
  <fix>3d</fix>
</trkpt>
<trkpt lat="40.0716757" lon="-105.2297913">
  <ele>1583.09</ele>
  <time>2026-08-28T17:52:26Z</time>
  <course>17.14</course>
  <speed>0.1341640786499874</speed>
  <fix>3d</fix>
</trkpt>
<trkpt lat="40.0716757" lon="-105.2297915">
  <ele>1583.0</ele>
  <time>2026-08-28T17:52:26Z</time>
  <course>15.13</course>
  <speed>0.19</speed>
  <fix>3d</fix>
</trkpt>
<trkpt lat="40.0716759" lon="-105.2297913">
  <ele>1583.09</ele>
  <time>2026-08-28T17:52:26Z</time>
  <course>17.66</course>
  <speed>0.15652475842498528</speed>
  <fix>3d</fix>
</trkpt>
<trkpt lat="40.071676" lon="-105.2297914">
  <ele>1583.0</ele>
  <time>2026-08-28T17:52:26Z</time>
  <course>16.07</course>
  <speed>0.2</speed>
  <fix>3d</fix>
</trkpt>
<trkpt lat="40.071676" lon="-105.2297912">
  <ele>1583.1</ele>
  <time>2026-08-28T17:52:26Z</time>
  <course>18.14</course>
  <speed>0.17888543819998318</speed>
  <fix>3d</fix>
</trkpt>
<trkpt lat="40.071676" lon="-105.2297914">
  <ele>1583.0</ele>
  <time>2026-08-28T17:52:26Z</time>
  <course>16.07</course>
  <speed>0.2</speed>
  <fix>3d</fix>
</trkpt>
<trkpt lat="40.0716763" lon="-105.2297911">
  <ele>1583.1</ele>
  <time>2026-08-28T17:52:26Z</time>
  <course>18.8</course>
  <speed>0.2102379604162864</speed>
  <fix>3d</fix>
</trkpt>
<trkpt lat="40.0716764" lon="-105.2297912">
  <ele>1583.0</ele>
  <time>2026-08-28T17:52:26Z</time>
  <course>17.14</course>
  <speed>0.23</speed>
  <fix>3d</fix>
</trkpt>
<trkpt lat="40.0716765" lon="-105.229791">
  <ele>1583.11</ele>
  <time>2026-08-28T17:52:26Z</time>
  <course>19.56</course>
  <speed>0.24596747752497689</speed>
  <fix>3d</fix>
</trkpt>
<trkpt lat="40.0716764" lon="-105.2297912">
  <ele>1583.0</ele>
  <time>2026-08-28T17:52:26Z</time>
  <course>17.14</course>
  <speed>0.23</speed>
  <fix>3d</fix>
</trkpt>
<trkpt lat="40.0716768" lon="-105.2297908">
  <ele>1583.11</ele>
  <time>2026-08-28T17:52:26Z</time>
  <course>20.43</course>
  <speed>0.28178005607210743</speed>
  <fix>3d</fix>
</trkpt>
<trkpt lat="40.0716768" lon="-105.2297911">
  <ele>1583.0</ele>
  <time>2026-08-28T17:52:26Z</time>
  <course>18.48</course>
  <speed>0.28</speed>
  <fix>3d</fix>
</trkpt>
<trkpt lat="40.0716771" lon="-105.2297907">
  <ele>1583.11</ele>
  <time>2026-08-28T17:52:26Z</time>
  <course>21.43</course>
  <speed>0.3176476034853718</speed>
  <fix>3d</fix>
</trkpt>
<trkpt lat="40.0716768" lon="-105.2297911">
  <ele>1583.0</ele>
  <time>2026-08-28T17:52:26Z</time>
  <course>18.48</course>
  <speed>0.28</speed>
  <fix>3d</fix>
</trkpt>
<trkpt lat="40.0716774" lon="-105.2297905">
  <ele>1583.12</ele>
  <time>2026-08-28T17:52:26Z</time>
  <course>22.59</course>
  <speed>0.3535533905932738</speed>
  <fix>3d</fix>
</trkpt>
<trkpt lat="40.0716774" lon="-105.2297908">
  <ele>1583.0</ele>
  <time>2026-08-28T17:52:26Z</time>
  <course>20.24</course>
  <speed>0.34</speed>
  <fix>3d</fix>
</trkpt>
<trkpt lat="40.0716778" lon="-105.2297903">
  <ele>1583.12</ele>
  <time>2026-08-28T17:52:26Z</time>
  <course>23.91</course>
  <speed>0.39824615503479754</speed>
  <fix>3d</fix>
</trkpt>
<trkpt lat="40.0716774" lon="-105.2297908">
  <ele>1583.0</ele>
  <time>2026-08-28T17:52:26Z</time>
  <course>20.24</course>
  <speed>0.34</speed>
  <fix>3d</fix>
</trkpt>
<trkpt lat="40.0716782" lon="-105.22979">
  <ele>1583.12</ele>
  <time>2026-08-28T17:52:26Z</time>
  <course>25.42</course>
  <speed>0.439089968002003</speed>
  <fix>3d</fix>
</trkpt>
<trkpt lat="40.071678" lon="-105.2297904">
  <ele>1583.0</ele>
  <time>2026-08-28T17:52:26Z</time>
  <course>22.56</course>
  <speed>0.42</speed>
  <fix>3d</fix>
</trkpt>
<trkpt lat="40.0716786" lon="-105.2297897">
  <ele>1583.11</ele>
  <time>2026-08-28T17:52:26Z</time>
  <course>27.16</course>
  <speed>0.47169905660283024</speed>
  <fix>3d</fix>
</trkpt>
<trkpt lat="40.071678" lon="-105.2297904">
  <ele>1583.0</ele>
  <time>2026-08-28T17:52:26Z</time>
  <course>22.56</course>
  <speed>0.42</speed>
  <fix>3d</fix>
</trkpt>
<trkpt lat="40.071679" lon="-105.2297894">
  <ele>1583.12</ele>
  <time>2026-08-28T17:52:26Z</time>
  <course>29.12</course>
  <speed>0.5131276644267</speed>
  <fix>3d</fix>
</trkpt>
<trkpt lat="40.0716788" lon="-105.2297901">
  <ele>1583.0</ele>
  <time>2026-08-28T17:52:26Z</time>
  <course>25.58</course>
  <speed>0.49</speed>
  <fix>3d</fix>
</trkpt>
<trkpt lat="40.0716796" lon="-105.229789">
  <ele>1583.12</ele>
  <time>2026-08-28T17:52:26Z</time>
  <course>31.82</course>
  <speed>0.5580322571321482</speed>
  <fix>3d</fix>
</trkpt>
<trkpt lat="40.0716788" lon="-105.2297901">
  <ele>1583.0</ele>
  <time>2026-08-28T17:52:26Z</time>
  <course>25.58</course>
  <speed>0.49</speed>
  <fix>3d</fix>
</trkpt>
<trkpt lat="40.07168" lon="-105.2297886">
  <ele>1583.12</ele>
  <time>2026-08-28T17:52:26Z</time>
  <course>34.39</course>
  <speed>0.5903388857258176</speed>
  <fix>3d</fix>
</trkpt>
<trkpt lat="40.0716796" lon="-105.2297895">
  <ele>1583.0</ele>
  <time>2026-08-28T17:52:26Z</time>
  <course>29.48</course>
  <speed>0.55</speed>
  <fix>3d</fix>
</trkpt>
<trkpt lat="40.0716805" lon="-105.2297882">
  <ele>1583.12</ele>
  <time>2026-08-28T17:52:26Z</time>
  <course>37.29</course>
  <speed>0.623698645180507</speed>
  <fix>3d</fix>
</trkpt>
<trkpt lat="40.0716796" lon="-105.2297895">
  <ele>1583.0</ele>
  <time>2026-08-28T17:52:26Z</time>
  <course>29.48</course>
  <speed>0.55</speed>
  <fix>3d</fix>
</trkpt>
<trkpt lat="40.071681" lon="-105.2297877">
  <ele>1583.13</ele>
  <time>2026-08-28T17:52:26Z</time>
  <course>40.54</course>
  <speed>0.6576473218982953</speed>
  <fix>3d</fix>
</trkpt>
<trkpt lat="40.0716805" lon="-105.2297888">
  <ele>1583.0</ele>
  <time>2026-08-28T17:52:26Z</time>
  <course>34.49</course>
  <speed>0.61</speed>
  <fix>3d</fix>
</trkpt>
<trkpt lat="40.0716815" lon="-105.2297871">
  <ele>1583.13</ele>
  <time>2026-08-28T17:52:26Z</time>
  <course>44.16</course>
  <speed>0.686804193347711</speed>
  <fix>3d</fix>
</trkpt>
<trkpt lat="40.0716805" lon="-105.2297888">
  <ele>1583.0</ele>
  <time>2026-08-28T17:52:26Z</time>
  <course>34.49</course>
  <speed>0.61</speed>
  <fix>3d</fix>
</trkpt>
<trkpt lat="40.0716819" lon="-105.2297865">
  <ele>1583.13</ele>
  <time>2026-08-28T17:52:26Z</time>
  <course>48.18</course>
  <speed>0.7121797525905943</speed>
  <fix>3d</fix>
</trkpt>
<trkpt lat="40.0716814" lon="-105.2297878">
  <ele>1583.0</ele>
  <time>2026-08-28T17:52:26Z</time>
  <course>40.82</course>
  <speed>0.67</speed>
  <fix>3d</fix>
</trkpt>
<trkpt lat="40.0716824" lon="-105.2297858">
  <ele>1583.13</ele>
  <time>2026-08-28T17:52:26Z</time>
  <course>52.62</course>
  <speed>0.7349829930005184</speed>
  <fix>3d</fix>
</trkpt>
<trkpt lat="40.0716814" lon="-105.2297878">
  <ele>1583.0</ele>
  <time>2026-08-28T17:52:26Z</time>
  <course>40.82</course>
  <speed>0.67</speed>
  <fix>3d</fix>
</trkpt>
<trkpt lat="40.0716828" lon="-105.2297851">
  <ele>1583.14</ele>
  <time>2026-08-28T17:52:26Z</time>
  <course>57.35</course>
  <speed>0.7566372975210779</speed>
  <fix>3d</fix>
</trkpt>
<trkpt lat="40.0716823" lon="-105.2297867">
  <ele>1583.0</ele>
  <time>2026-08-28T17:52:26Z</time>
  <course>48.66</course>
  <speed>0.71</speed>
  <fix>3d</fix>
</trkpt>
<trkpt lat="40.0716831" lon="-105.2297843">
  <ele>1583.14</ele>
  <time>2026-08-28T17:52:26Z</time>
  <course>62.19</course>
  <speed>0.7787810988975015</speed>
  <fix>3d</fix>
</trkpt>
<trkpt lat="40.0716823" lon="-105.2297867">
  <ele>1583.0</ele>
  <time>2026-08-28T17:52:26Z</time>
  <course>48.66</course>
  <speed>0.71</speed>
  <fix>3d</fix>
</trkpt>
<trkpt lat="40.0716834" lon="-105.2297835">
  <ele>1583.14</ele>
  <time>2026-08-28T17:52:26Z</time>
  <course>67.13</course>
  <speed>0.7971198153351854</speed>
  <fix>3d</fix>
</trkpt>
<trkpt lat="40.0716831" lon="-105.2297853">
  <ele>1583.0</ele>
  <time>2026-08-28T17:52:26Z</time>
  <course>57.76</course>
  <speed>0.75</speed>
  <fix>3d</fix>
</trkpt>
<trkpt lat="40.0716837" lon="-105.2297826">
  <ele>1583.14</ele>
  <time>2026-08-28T17:52:26Z</time>
  <course>72.15</course>
  <speed>0.8077747210701756</speed>
  <fix>3d</fix>
</trkpt>
<trkpt lat="40.0716831" lon="-105.2297853">
  <ele>1583.0</ele>
  <time>2026-08-28T17:52:26Z</time>
  <course>57.76</course>
  <speed>0.75</speed>
  <fix>3d</fix>
</trkpt>
<trkpt lat="40.0716838" lon="-105.2297819">
  <ele>1583.15</ele>
  <time>2026-08-28T17:52:26Z</time>
  <course>76.25</course>
  <speed>0.8158431221748456</speed>
  <fix>3d</fix>
</trkpt>
<trkpt lat="40.0716837" lon="-105.2297837">
  <ele>1583.0</ele>
  <time>2026-08-28T17:52:26Z</time>
  <course>67.55</course>
  <speed>0.78</speed>
  <fix>3d</fix>
</trkpt>
<trkpt lat="40.071684" lon="-105.2297809">
  <ele>1583.15</ele>
  <time>2026-08-28T17:52:26Z</time>
  <course>81.39</course>
  <speed>0.8348652585896721</speed>
  <fix>3d</fix>
</trkpt>
<trkpt lat="40.0716837" lon="-105.2297837">
  <ele>1583.0</ele>
  <time>2026-08-28T17:52:26Z</time>
  <course>67.55</course>
  <speed>0.78</speed>
  <fix>3d</fix>
</trkpt>
<trkpt lat="40.0716841" lon="-105.22978">
  <ele>1583.15</ele>
  <time>2026-08-28T17:52:26Z</time>
  <course>86.58</course>
  <speed>0.8402380615040002</speed>
  <fix>3d</fix>
</trkpt>
<trkpt lat="40.0716841" lon="-105.2297819">
  <ele>1583.0</ele>
  <time>2026-08-28T17:52:26Z</time>
  <course>77.65</course>
  <speed>0.8</speed>
  <fix>3d</fix>
</trkpt>
<trkpt lat="40.0716841" lon="-105.229779">
  <ele>1583.15</ele>
  <time>2026-08-28T17:52:26Z</time>
  <course>91.76</course>
  <speed>0.8514693182963201</speed>
  <fix>3d</fix>
</trkpt>
<trkpt lat="40.0716841" lon="-105.2297819">
  <ele>1583.0</ele>
  <time>2026-08-28T17:52:26Z</time>
  <course>77.65</course>
  <speed>0.8</speed>
  <fix>3d</fix>
</trkpt>
<trkpt lat="40.071684" lon="-105.229778">
  <ele>1583.15</ele>
  <time>2026-08-28T17:52:26Z</time>
  <course>97.01</course>
  <speed>0.848528137423857</speed>
  <fix>3d</fix>
</trkpt>
<trkpt lat="40.0716843" lon="-105.22978">
  <ele>1583.0</ele>
  <time>2026-08-28T17:52:26Z</time>
  <course>87.99</course>
  <speed>0.81</speed>
  <fix>3d</fix>
</trkpt>
<trkpt lat="40.0716839" lon="-105.2297771">
  <ele>1583.15</ele>
  <time>2026-08-28T17:52:26Z</time>
  <course>102.28</course>
  <speed>0.8537564055396598</speed>
  <fix>3d</fix>
</trkpt>
<trkpt lat="40.0716843" lon="-105.22978">
  <ele>1583.0</ele>
  <time>2026-08-28T17:52:26Z</time>
  <course>87.99</course>
  <speed>0.81</speed>
  <fix>3d</fix>
</trkpt>
<trkpt lat="40.0716838" lon="-105.2297761">
  <ele>1583.15</ele>
  <time>2026-08-28T17:52:26Z</time>
  <course>107.56</course>
  <speed>0.8538149682454624</speed>
  <fix>3d</fix>
</trkpt>
<trkpt lat="40.0716843" lon="-105.2297781">
  <ele>1583.0</ele>
  <time>2026-08-28T17:52:26Z</time>
  <course>98.46</course>
  <speed>0.82</speed>
  <fix>3d</fix>
</trkpt>
<trkpt lat="40.0716835" lon="-105.2297752">
  <ele>1583.15</ele>
  <time>2026-08-28T17:52:26Z</time>
  <course>112.89</course>
  <speed>0.850881895447306</speed>
  <fix>3d</fix>
</trkpt>
<trkpt lat="40.0716843" lon="-105.2297781">
  <ele>1583.0</ele>
  <time>2026-08-28T17:52:26Z</time>
  <course>98.46</course>
  <speed>0.82</speed>
  <fix>3d</fix>
</trkpt>
<trkpt lat="40.0716832" lon="-105.2297743">
  <ele>1583.15</ele>
  <time>2026-08-28T17:52:26Z</time>
  <course>118.16</course>
  <speed>0.8547514258543241</speed>
  <fix>3d</fix>
</trkpt>
<trkpt lat="40.071684" lon="-105.2297763">
  <ele>1583.0</ele>
  <time>2026-08-28T17:52:26Z</time>
  <course>108.99</course>
  <speed>0.82</speed>
  <fix>3d</fix>
</trkpt>
<trkpt lat="40.0716828" lon="-105.2297735">
  <ele>1583.16</ele>
  <time>2026-08-28T17:52:26Z</time>
  <course>123.42</course>
  <speed>0.8514693182963201</speed>
  <fix>3d</fix>
</trkpt>
<trkpt lat="40.071684" lon="-105.2297763">
  <ele>1583.0</ele>
  <time>2026-08-28T17:52:26Z</time>
  <course>108.99</course>
  <speed>0.82</speed>
  <fix>3d</fix>
</trkpt>
<trkpt lat="40.0716823" lon="-105.2297726">
  <ele>1583.16</ele>
  <time>2026-08-28T17:52:26Z</time>
  <course>129.72</course>
  <speed>0.8450443775329198</speed>
  <fix>3d</fix>
</trkpt>
<trkpt lat="40.0716834" lon="-105.2297745">
  <ele>1583.0</ele>
  <time>2026-08-28T17:52:26Z</time>
  <course>119.53</course>
  <speed>0.82</speed>
  <fix>3d</fix>
</trkpt>
<trkpt lat="40.0716818" lon="-105.2297718">
  <ele>1583.17</ele>
  <time>2026-08-28T17:52:26Z</time>
  <course>134.95</course>
  <speed>0.848528137423857</speed>
  <fix>3d</fix>
</trkpt>
<trkpt lat="40.0716834" lon="-105.2297745">
  <ele>1583.0</ele>
  <time>2026-08-28T17:52:26Z</time>
  <course>119.53</course>
  <speed>0.82</speed>
  <fix>3d</fix>
</trkpt>
<trkpt lat="40.0716813" lon="-105.2297712">
  <ele>1583.17</ele>
  <time>2026-08-28T17:52:26Z</time>
  <course>140.19</course>
  <speed>0.8450443775329198</speed>
  <fix>3d</fix>
</trkpt>
<trkpt lat="40.0716826" lon="-105.2297729">
  <ele>1583.0</ele>
  <time>2026-08-28T17:52:26Z</time>
  <course>130.04</course>
  <speed>0.82</speed>
  <fix>3d</fix>
</trkpt>
<trkpt lat="40.0716807" lon="-105.2297706">
  <ele>1583.17</ele>
  <time>2026-08-28T17:52:26Z</time>
  <course>145.44</course>
  <speed>0.840535543567314</speed>
  <fix>3d</fix>
</trkpt>
<trkpt lat="40.0716826" lon="-105.2297729">
  <ele>1583.0</ele>
  <time>2026-08-28T17:52:26Z</time>
  <course>130.04</course>
  <speed>0.82</speed>
  <fix>3d</fix>
</trkpt>
<trkpt lat="40.07168" lon="-105.2297701">
  <ele>1583.17</ele>
  <time>2026-08-28T17:52:26Z</time>
  <course>150.73</course>
  <speed>0.850881895447306</speed>
  <fix>3d</fix>
</trkpt>
<trkpt lat="40.0716815" lon="-105.2297715">
  <ele>1583.0</ele>
  <time>2026-08-28T17:52:26Z</time>
  <course>140.56</course>
  <speed>0.82</speed>
  <fix>3d</fix>
</trkpt>
<trkpt lat="40.0716794" lon="-105.2297697">
  <ele>1583.17</ele>
  <time>2026-08-28T17:52:26Z</time>
  <course>155.85</course>
  <speed>0.8590692637965812</speed>
  <fix>3d</fix>
</trkpt>
<trkpt lat="40.0716815" lon="-105.2297715">
  <ele>1583.0</ele>
  <time>2026-08-28T17:52:26Z</time>
  <course>140.56</course>
  <speed>0.82</speed>
  <fix>3d</fix>
</trkpt>
<trkpt lat="40.0716787" lon="-105.2297693">
  <ele>1583.17</ele>
  <time>2026-08-28T17:52:26Z</time>
  <course>160.59</course>
  <speed>0.8697700845625813</speed>
  <fix>3d</fix>
</trkpt>
<trkpt lat="40.0716803" lon="-105.2297705">
  <ele>1583.0</ele>
  <time>2026-08-28T17:52:26Z</time>
  <course>151.04</course>
  <speed>0.83</speed>
  <fix>3d</fix>
</trkpt>
<trkpt lat="40.0716779" lon="-105.2297691">
  <ele>1583.17</ele>
  <time>2026-08-28T17:52:26Z</time>
  <course>164.95</course>
  <speed>0.8928605714219886</speed>
  <fix>3d</fix>
</trkpt>
<trkpt lat="40.0716803" lon="-105.2297705">
  <ele>1583.0</ele>
  <time>2026-08-28T17:52:26Z</time>
  <course>151.04</course>
  <speed>0.83</speed>
  <fix>3d</fix>
</trkpt>
<trkpt lat="40.0716772" lon="-105.2297689">
  <ele>1583.17</ele>
  <time>2026-08-28T17:52:26Z</time>
  <course>168.83</course>
  <speed>0.9178235124467012</speed>
  <fix>3d</fix>
</trkpt>
<trkpt lat="40.0716789" lon="-105.2297696">
  <ele>1583.0</ele>
  <time>2026-08-28T17:52:26Z</time>
  <course>160.73</course>
  <speed>0.86</speed>
  <fix>3d</fix>
</trkpt>
<trkpt lat="40.0716763" lon="-105.2297687">
  <ele>1583.16</ele>
  <time>2026-08-28T17:52:26Z</time>
  <course>172.18</course>
  <speed>0.9489467845985885</speed>
  <fix>3d</fix>
</trkpt>
<trkpt lat="40.0716789" lon="-105.2297696">
  <ele>1583.0</ele>
  <time>2026-08-28T17:52:26Z</time>
  <course>160.73</course>
  <speed>0.86</speed>
  <fix>3d</fix>
</trkpt>
<trkpt lat="40.0716755" lon="-105.2297686">
  <ele>1583.16</ele>
  <time>2026-08-28T17:52:26Z</time>
  <course>175.05</course>
  <speed>0.9940824915468535</speed>
  <fix>3d</fix>
</trkpt>
<trkpt lat="40.0716774" lon="-105.2297691">
  <ele>1583.0</ele>
  <time>2026-08-28T17:52:26Z</time>
  <course>168.72</course>
  <speed>0.92</speed>
  <fix>3d</fix>
</trkpt>
<trkpt lat="40.0716748" lon="-105.2297685">
  <ele>1583.16</ele>
  <time>2026-08-28T17:52:26Z</time>
  <course>177.05</course>
  <speed>1.0212247548899311</speed>
  <fix>3d</fix>
</trkpt>
<trkpt lat="40.0716774" lon="-105.2297691">
  <ele>1583.0</ele>
  <time>2026-08-28T17:52:26Z</time>
  <course>168.72</course>
  <speed>0.92</speed>
  <fix>3d</fix>
</trkpt>
<trkpt lat="40.0716739" lon="-105.2297685">
  <ele>1583.15</ele>
  <time>2026-08-28T17:52:26Z</time>
  <course>179.1</course>
  <speed>1.070186899564744</speed>
  <fix>3d</fix>
</trkpt>
<trkpt lat="40.0716757" lon="-105.2297687">
  <ele>1583.0</ele>
  <time>2026-08-28T17:52:26Z</time>
  <course>174.77</course>
  <speed>0.99</speed>
  <fix>3d</fix>
</trkpt>
<trkpt lat="40.0716729" lon="-105.2297685">
  <ele>1583.15</ele>
  <time>2026-08-28T17:52:26Z</time>
  <course>180.78</course>
  <speed>1.1300442469213319</speed>
  <fix>3d</fix>
</trkpt>
<trkpt lat="40.0716757" lon="-105.2297687">
  <ele>1583.0</ele>
  <time>2026-08-28T17:52:26Z</time>
  <course>174.77</course>
  <speed>0.99</speed>
  <fix>3d</fix>
</trkpt>
<trkpt lat="40.0716718" lon="-105.2297686">
  <ele>1583.15</ele>
  <time>2026-08-28T17:52:26Z</time>
  <course>182.13</course>
  <speed>1.1906720791217034</speed>
  <fix>3d</fix>
</trkpt>
<trkpt lat="40.0716738" lon="-105.2297686">
  <ele>1583.0</ele>
  <time>2026-08-28T17:52:26Z</time>
  <course>179.0</course>
  <speed>1.09</speed>
  <fix>3d</fix>
</trkpt>
<trkpt lat="40.0716707" lon="-105.2297687">
  <ele>1583.15</ele>
  <time>2026-08-28T17:52:26Z</time>
  <course>183.21</course>
  <speed>1.2614277624977184</speed>
  <fix>3d</fix>
</trkpt>
<trkpt lat="40.0716738" lon="-105.2297686">
  <ele>1583.0</ele>
  <time>2026-08-28T17:52:26Z</time>
  <course>179.0</course>
  <speed>1.09</speed>
  <fix>3d</fix>
</trkpt>
<trkpt lat="40.0716696" lon="-105.2297687">
  <ele>1583.15</ele>
  <time>2026-08-28T17:52:26Z</time>
  <course>184.07</course>
  <speed>1.3330416347586447</speed>
  <fix>3d</fix>
</trkpt>
<trkpt lat="40.0716716" lon="-105.2297687">
  <ele>1583.0</ele>
  <time>2026-08-28T17:52:26Z</time>
  <course>181.8</course>
  <speed>1.21</speed>
  <fix>3d</fix>
</trkpt>
<trkpt lat="40.0716683" lon="-105.2297688">
  <ele>1583.16</ele>
  <time>2026-08-28T17:52:26Z</time>
  <course>184.76</course>
  <speed>1.4043147795277242</speed>
  <fix>3d</fix>
</trkpt>
<trkpt lat="40.0716716" lon="-105.2297687">
  <ele>1583.0</ele>
  <time>2026-08-28T17:52:26Z</time>
  <course>181.8</course>
  <speed>1.21</speed>
  <fix>3d</fix>
</trkpt>
<trkpt lat="40.071667" lon="-105.229769">
  <ele>1583.16</ele>
  <time>2026-08-28T17:52:26Z</time>
  <course>185.3</course>
  <speed>1.4856984889270097</speed>
  <fix>3d</fix>
</trkpt>
<trkpt lat="40.0716694" lon="-105.2297689">
  <ele>1583.0</ele>
  <time>2026-08-28T17:52:26Z</time>
  <course>183.6</course>
  <speed>1.36</speed>
  <fix>3d</fix>
</trkpt>
<trkpt lat="40.0716656" lon="-105.2297691">
  <ele>1583.16</ele>
  <time>2026-08-28T17:52:26Z</time>
  <course>185.7</course>
  <speed>1.5671949463930772</speed>
  <fix>3d</fix>
</trkpt>
<trkpt lat="40.0716694" lon="-105.2297689">
  <ele>1583.0</ele>
  <time>2026-08-28T17:52:26Z</time>
  <course>183.6</course>
  <speed>1.36</speed>
  <fix>3d</fix>
</trkpt>
<trkpt lat="40.0716642" lon="-105.2297693">
  <ele>1583.16</ele>
  <time>2026-08-28T17:52:26Z</time>
  <course>186.01</course>
  <speed>1.6487874332369228</speed>
  <fix>3d</fix>
</trkpt>
<trkpt lat="40.0716668" lon="-105.2297691">
  <ele>1583.0</ele>
  <time>2026-08-28T17:52:26Z</time>
  <course>184.7</course>
  <speed>1.51</speed>
  <fix>3d</fix>
</trkpt>
<trkpt lat="40.0716623" lon="-105.2297696">
  <ele>1583.16</ele>
  <time>2026-08-28T17:52:26Z</time>
  <course>186.25</course>
  <speed>1.760284067984483</speed>
  <fix>3d</fix>
</trkpt>
<trkpt lat="40.0716668" lon="-105.2297691">
  <ele>1583.0</ele>
  <time>2026-08-28T17:52:26Z</time>
  <course>184.7</course>
  <speed>1.51</speed>
  <fix>3d</fix>
</trkpt>
<trkpt lat="40.0716607" lon="-105.2297698">
  <ele>1583.17</ele>
  <time>2026-08-28T17:52:26Z</time>
  <course>186.38</course>
  <speed>1.8508376482014839</speed>
  <fix>3d</fix>
</trkpt>
<trkpt lat="40.071664" lon="-105.2297693">
  <ele>1583.0</ele>
  <time>2026-08-28T17:52:26Z</time>
  <course>185.34</course>
  <speed>1.68</speed>
  <fix>3d</fix>
</trkpt>
<trkpt lat="40.071659" lon="-105.2297701">
  <ele>1583.17</ele>
  <time>2026-08-28T17:52:26Z</time>
  <course>186.45</course>
  <speed>1.9413912537147169</speed>
  <fix>3d</fix>
</trkpt>
<trkpt lat="40.071664" lon="-105.2297693">
  <ele>1583.0</ele>
  <time>2026-08-28T17:52:26Z</time>
  <course>185.34</course>
  <speed>1.68</speed>
  <fix>3d</fix>
</trkpt>
<trkpt lat="40.0716572" lon="-105.2297703">
  <ele>1583.17</ele>
  <time>2026-08-28T17:52:26Z</time>
  <course>186.47</course>
  <speed>2.041886382735337</speed>
  <fix>3d</fix>
</trkpt>
<trkpt lat="40.0716608" lon="-105.2297697">
  <ele>1583.0</ele>
  <time>2026-08-28T17:52:26Z</time>
  <course>185.64</course>
  <speed>1.86</speed>
  <fix>3d</fix>
</trkpt>
<trkpt lat="40.0716553" lon="-105.2297706">
  <ele>1583.17</ele>
  <time>2026-08-28T17:52:26Z</time>
  <course>186.47</course>
  <speed>2.1423818520515896</speed>
  <fix>3d</fix>
</trkpt>
<trkpt lat="40.0716608" lon="-105.2297697">
  <ele>1583.0</ele>
  <time>2026-08-28T17:52:26Z</time>
  <course>185.64</course>
  <speed>1.86</speed>
  <fix>3d</fix>
</trkpt>
<trkpt lat="40.0716533" lon="-105.2297709">
  <ele>1583.17</ele>
  <time>2026-08-28T17:52:26Z</time>
  <course>186.44</course>
  <speed>2.2329352879114075</speed>
  <fix>3d</fix>
</trkpt>
<trkpt lat="40.0716573" lon="-105.2297702">
  <ele>1583.0</ele>
  <time>2026-08-28T17:52:26Z</time>
  <course>185.73</course>
  <speed>2.05</speed>
  <fix>3d</fix>
</trkpt>
<trkpt lat="40.0716513" lon="-105.2297711">
  <ele>1583.17</ele>
  <time>2026-08-28T17:52:26Z</time>
  <course>186.38</course>
  <speed>2.333430950339007</speed>
  <fix>3d</fix>
</trkpt>
<trkpt lat="40.0716573" lon="-105.2297702">
  <ele>1583.0</ele>
  <time>2026-08-28T17:52:26Z</time>
  <course>185.73</course>
  <speed>2.05</speed>
  <fix>3d</fix>
</trkpt>
<trkpt lat="40.0716491" lon="-105.2297714">
  <ele>1583.16</ele>
  <time>2026-08-28T17:52:26Z</time>
  <course>186.31</course>
  <speed>2.433926868252208</speed>
  <fix>3d</fix>
</trkpt>
<trkpt lat="40.0716534" lon="-105.2297707">
  <ele>1583.0</ele>
  <time>2026-08-28T17:52:26Z</time>
  <course>185.68</course>
  <speed>2.24</speed>
  <fix>3d</fix>
</trkpt>
<trkpt lat="40.0716469" lon="-105.2297717">
  <ele>1583.16</ele>
  <time>2026-08-28T17:52:26Z</time>
  <course>186.21</course>
  <speed>2.5344230112591704</speed>
  <fix>3d</fix>
</trkpt>
<trkpt lat="40.0716534" lon="-105.2297707">
  <ele>1583.0</ele>
  <time>2026-08-28T17:52:26Z</time>
  <course>185.68</course>
  <speed>2.24</speed>
  <fix>3d</fix>
</trkpt>
<trkpt lat="40.0716446" lon="-105.229772">
  <ele>1583.17</ele>
  <time>2026-08-28T17:52:26Z</time>
  <course>186.1</course>
  <speed>2.6338754716197195</speed>
  <fix>3d</fix>
</trkpt>
<trkpt lat="40.0716493" lon="-105.2297712">
  <ele>1583.0</ele>
  <time>2026-08-28T17:52:26Z</time>
  <course>185.53</course>
  <speed>2.44</speed>
  <fix>3d</fix>
</trkpt>
<trkpt lat="40.0716422" lon="-105.2297723">
  <ele>1583.16</ele>
  <time>2026-08-28T17:52:26Z</time>
  <course>185.99</course>
  <speed>2.7343737857140162</speed>
  <fix>3d</fix>
</trkpt>
<trkpt lat="40.0716493" lon="-105.2297712">
  <ele>1583.0</ele>
  <time>2026-08-28T17:52:26Z</time>
  <course>185.53</course>
  <speed>2.44</speed>
  <fix>3d</fix>
</trkpt>
<trkpt lat="40.0716402" lon="-105.2297725">
  <ele>1583.17</ele>
  <time>2026-08-28T17:52:26Z</time>
  <course>185.88</course>
  <speed>2.8239157211220025</speed>
  <fix>3d</fix>
</trkpt>
<trkpt lat="40.0716447" lon="-105.2297718">
  <ele>1583.0</ele>
  <time>2026-08-28T17:52:26Z</time>
  <course>185.33</course>
  <speed>2.64</speed>
  <fix>3d</fix>
</trkpt>
<trkpt lat="40.0716377" lon="-105.2297728">
  <ele>1583.17</ele>
  <time>2026-08-28T17:52:26Z</time>
  <course>185.74</course>
  <speed>2.923439754809392</speed>
  <fix>3d</fix>
</trkpt>
<trkpt lat="40.0716447" lon="-105.2297718">
  <ele>1583.0</ele>
  <time>2026-08-28T17:52:26Z</time>
  <course>185.33</course>
  <speed>2.64</speed>
  <fix>3d</fix>
</trkpt>
<trkpt lat="40.071635" lon="-105.2297732">
  <ele>1583.17</ele>
  <time>2026-08-28T17:52:26Z</time>
  <course>185.6</course>
  <speed>3.0229952034364858</speed>
  <fix>3d</fix>
</trkpt>
<trkpt lat="40.0716398" lon="-105.2297724">
  <ele>1583.0</ele>
  <time>2026-08-28T17:52:26Z</time>
  <course>185.07</course>
  <speed>2.85</speed>
  <fix>3d</fix>
</trkpt>
<trkpt lat="40.0716322" lon="-105.2297735">
  <ele>1583.17</ele>
  <time>2026-08-28T17:52:26Z</time>
  <course>185.45</course>
  <speed>3.122579062249665</speed>
  <fix>3d</fix>
</trkpt>
<trkpt lat="40.0716398" lon="-105.2297724">
  <ele>1583.0</ele>
  <time>2026-08-28T17:52:26Z</time>
  <course>185.07</course>
  <speed>2.85</speed>
  <fix>3d</fix>
</trkpt>
<trkpt lat="40.0716294" lon="-105.2297738">
  <ele>1583.17</ele>
  <time>2026-08-28T17:52:26Z</time>
  <course>185.3</course>
  <speed>3.232150986572255</speed>
  <fix>3d</fix>
</trkpt>
<trkpt lat="40.0716345" lon="-105.229773">
  <ele>1583.0</ele>
  <time>2026-08-28T17:52:26Z</time>
  <course>184.79</course>
  <speed>3.05</speed>
  <fix>3d</fix>
</trkpt>
<trkpt lat="40.0716264" lon="-105.2297741">
  <ele>1583.17</ele>
  <time>2026-08-28T17:52:26Z</time>
  <course>185.17</course>
  <speed>3.3317863076734078</speed>
  <fix>3d</fix>
</trkpt>
<trkpt lat="40.0716345" lon="-105.229773">
  <ele>1583.0</ele>
  <time>2026-08-28T17:52:26Z</time>
  <course>184.79</course>
  <speed>3.05</speed>
  <fix>3d</fix>
</trkpt>
<trkpt lat="40.0716233" lon="-105.2297744">
  <ele>1583.18</ele>
  <time>2026-08-28T17:52:26Z</time>
  <course>185.03</course>
  <speed>3.43144284521832</speed>
  <fix>3d</fix>
</trkpt>
<trkpt lat="40.0716288" lon="-105.2297735">
  <ele>1583.0</ele>
  <time>2026-08-28T17:52:26Z</time>
  <course>184.51</course>
  <speed>3.25</speed>
  <fix>3d</fix>
</trkpt>
<trkpt lat="40.0716201" lon="-105.2297747">
  <ele>1583.18</ele>
  <time>2026-08-28T17:52:26Z</time>
  <course>184.88</course>
  <speed>3.541087403609236</speed>
  <fix>3d</fix>
</trkpt>
<trkpt lat="40.0716288" lon="-105.2297735">
  <ele>1583.0</ele>
  <time>2026-08-28T17:52:26Z</time>
  <course>184.51</course>
  <speed>3.25</speed>
  <fix>3d</fix>
</trkpt>
<trkpt lat="40.0716169" lon="-105.229775">
  <ele>1583.18</ele>
  <time>2026-08-28T17:52:26Z</time>
  <course>184.74</course>
  <speed>3.640782882842645</speed>
  <fix>3d</fix>
</trkpt>
<trkpt lat="40.0716228" lon="-105.2297742">
  <ele>1583.0</ele>
  <time>2026-08-28T17:52:26Z</time>
  <course>184.23</course>
  <speed>3.45</speed>
  <fix>3d</fix>
</trkpt>
<trkpt lat="40.0716135" lon="-105.2297753">
  <ele>1583.18</ele>
  <time>2026-08-28T17:52:26Z</time>
  <course>184.59</course>
  <speed>3.7404946196993785</speed>
  <fix>3d</fix>
</trkpt>
<trkpt lat="40.0716228" lon="-105.2297742">
  <ele>1583.0</ele>
  <time>2026-08-28T17:52:26Z</time>
  <course>184.23</course>
  <speed>3.45</speed>
  <fix>3d</fix>
</trkpt>
<trkpt lat="40.0716094" lon="-105.2297756">
  <ele>1583.18</ele>
  <time>2026-08-28T17:52:26Z</time>
  <course>184.4</course>
  <speed>3.8594559202042973</speed>
  <fix>3d</fix>
</trkpt>
<trkpt lat="40.0716164" lon="-105.2297748">
  <ele>1583.0</ele>
  <time>2026-08-28T17:52:26Z</time>
  <course>183.94</course>
  <speed>3.65</speed>
  <fix>3d</fix>
</trkpt>
<trkpt lat="40.0716059" lon="-105.2297759">
  <ele>1583.18</ele>
  <time>2026-08-28T17:52:26Z</time>
  <course>184.24</course>
  <speed>3.949240433298535</speed>
  <fix>3d</fix>
</trkpt>
<trkpt lat="40.0716164" lon="-105.2297748">
  <ele>1583.0</ele>
  <time>2026-08-28T17:52:26Z</time>
  <course>183.94</course>
  <speed>3.65</speed>
  <fix>3d</fix>
</trkpt>
<trkpt lat="40.0716022" lon="-105.2297762">
  <ele>1583.17</ele>
  <time>2026-08-28T17:52:26Z</time>
  <course>184.09</course>
  <speed>4.0483576917066015</speed>
  <fix>3d</fix>
</trkpt>
<trkpt lat="40.0716097" lon="-105.2297754">
  <ele>1583.0</ele>
  <time>2026-08-28T17:52:26Z</time>
  <course>183.63</course>
  <speed>3.84</speed>
  <fix>3d</fix>
</trkpt>
<trkpt lat="40.0715985" lon="-105.2297765">
  <ele>1583.17</ele>
  <time>2026-08-28T17:52:26Z</time>
  <course>183.95</course>
  <speed>4.148156216923369</speed>
  <fix>3d</fix>
</trkpt>
<trkpt lat="40.0716097" lon="-105.2297754">
  <ele>1583.0</ele>
  <time>2026-08-28T17:52:26Z</time>
  <course>183.63</course>
  <speed>3.84</speed>
  <fix>3d</fix>
</trkpt>
<trkpt lat="40.0715948" lon="-105.2297768">
  <ele>1583.16</ele>
  <time>2026-08-28T17:52:26Z</time>
  <course>183.84</course>
  <speed>4.237983010820123</speed>
  <fix>3d</fix>
</trkpt>
<trkpt lat="40.0716026" lon="-105.2297759">
  <ele>1583.0</ele>
  <time>2026-08-28T17:52:26Z</time>
  <course>183.34</course>
  <speed>4.04</speed>
  <fix>3d</fix>
</trkpt>
<trkpt lat="40.0715909" lon="-105.2297771">
  <ele>1583.16</ele>
  <time>2026-08-28T17:52:26Z</time>
  <course>183.72</course>
  <speed>4.337211085478778</speed>
  <fix>3d</fix>
</trkpt>
<trkpt lat="40.0716026" lon="-105.2297759">
  <ele>1583.0</ele>
  <time>2026-08-28T17:52:26Z</time>
  <course>183.34</course>
  <speed>4.04</speed>
  <fix>3d</fix>
</trkpt>
<trkpt lat="40.071587" lon="-105.2297773">
  <ele>1583.16</ele>
  <time>2026-08-28T17:52:26Z</time>
  <course>183.6</course>
  <speed>4.427064490155977</speed>
  <fix>3d</fix>
</trkpt>
<trkpt lat="40.0715952" lon="-105.2297764">
  <ele>1583.0</ele>
  <time>2026-08-28T17:52:26Z</time>
  <course>183.09</course>
  <speed>4.23</speed>
  <fix>3d</fix>
</trkpt>
<trkpt lat="40.071583" lon="-105.2297776">
  <ele>1583.16</ele>
  <time>2026-08-28T17:52:26Z</time>
  <course>183.48</course>
  <speed>4.526367196770496</speed>
  <fix>3d</fix>
</trkpt>
<trkpt lat="40.0715952" lon="-105.2297764">
  <ele>1583.0</ele>
  <time>2026-08-28T17:52:26Z</time>
  <course>183.09</course>
  <speed>4.23</speed>
  <fix>3d</fix>
</trkpt>
<trkpt lat="40.071579" lon="-105.2297778">
  <ele>1583.16</ele>
  <time>2026-08-28T17:52:26Z</time>
  <course>183.35</course>
  <speed>4.616243061191644</speed>
  <fix>3d</fix>
</trkpt>
<trkpt lat="40.0715874" lon="-105.229777">
  <ele>1583.0</ele>
  <time>2026-08-28T17:52:26Z</time>
  <course>182.86</course>
  <speed>4.42</speed>
  <fix>3d</fix>
</trkpt>
<trkpt lat="40.0715748" lon="-105.2297781">
  <ele>1583.16</ele>
  <time>2026-08-28T17:52:26Z</time>
  <course>183.23</course>
  <speed>4.705624294394953</speed>
  <fix>3d</fix>
</trkpt>
<trkpt lat="40.0715874" lon="-105.229777">
  <ele>1583.0</ele>
  <time>2026-08-28T17:52:26Z</time>
  <course>182.86</course>
  <speed>4.42</speed>
  <fix>3d</fix>
</trkpt>
<trkpt lat="40.0715706" lon="-105.2297783">
  <ele>1583.16</ele>
  <time>2026-08-28T17:52:26Z</time>
  <course>183.12</course>
  <speed>4.805507257303853</speed>
  <fix>3d</fix>
</trkpt>
<trkpt lat="40.0715793" lon="-105.2297775">
  <ele>1583.0</ele>
  <time>2026-08-28T17:52:26Z</time>
  <course>182.61</course>
  <speed>4.61</speed>
  <fix>3d</fix>
</trkpt>
<trkpt lat="40.0715671" lon="-105.2297785">
  <ele>1583.16</ele>
  <time>2026-08-28T17:52:26Z</time>
  <course>183.07</course>
  <speed>4.875428186323741</speed>
  <fix>3d</fix>
</trkpt>
<trkpt lat="40.0715793" lon="-105.2297775">
  <ele>1583.0</ele>
  <time>2026-08-28T17:52:26Z</time>
  <course>182.61</course>
  <speed>4.61</speed>
  <fix>3d</fix>
</trkpt>
<trkpt lat="40.0715627" lon="-105.2297787">
  <ele>1583.16</ele>
  <time>2026-08-28T17:52:26Z</time>
  <course>183.0</course>
  <speed>4.964876634922564</speed>
  <fix>3d</fix>
</trkpt>
<trkpt lat="40.0715709" lon="-105.229778">
  <ele>1583.0</ele>
  <time>2026-08-28T17:52:26Z</time>
  <course>182.41</course>
  <speed>4.79</speed>
  <fix>3d</fix>
</trkpt>
<trkpt lat="40.0715582" lon="-105.2297789">
  <ele>1583.16</ele>
  <time>2026-08-28T17:52:26Z</time>
  <course>182.93</course>
  <speed>5.044799302251776</speed>
  <fix>3d</fix>
</trkpt>
<trkpt lat="40.0715709" lon="-105.229778">
  <ele>1583.0</ele>
  <time>2026-08-28T17:52:26Z</time>
  <course>182.41</course>
  <speed>4.79</speed>
  <fix>3d</fix>
</trkpt>
<trkpt lat="40.0715536" lon="-105.2297792">
  <ele>1583.16</ele>
  <time>2026-08-28T17:52:26Z</time>
  <course>182.86</course>
  <speed>5.114733619652151</speed>
  <fix>3d</fix>
</trkpt>
<trkpt lat="40.0715621" lon="-105.2297784">
  <ele>1583.0</ele>
  <time>2026-08-28T17:52:26Z</time>
  <course>182.26</course>
  <speed>4.97</speed>
  <fix>3d</fix>
</trkpt>
<trkpt lat="40.071549" lon="-105.2297794">
  <ele>1583.16</ele>
  <time>2026-08-28T17:52:26Z</time>
  <course>182.79</course>
  <speed>5.184255009159947</speed>
  <fix>3d</fix>
</trkpt>
<trkpt lat="40.0715621" lon="-105.2297784">
  <ele>1583.0</ele>
  <time>2026-08-28T17:52:26Z</time>
  <course>182.26</course>
  <speed>4.97</speed>
  <fix>3d</fix>
</trkpt>
<trkpt lat="40.0715443" lon="-105.2297796">
  <ele>1583.16</ele>
  <time>2026-08-28T17:52:26Z</time>
  <course>182.71</course>
  <speed>5.234214363206766</speed>
  <fix>3d</fix>
</trkpt>
<trkpt lat="40.0715531" lon="-105.2297789">
  <ele>1583.0</ele>
  <time>2026-08-28T17:52:26Z</time>
  <course>182.13</course>
  <speed>5.11</speed>
  <fix>3d</fix>
</trkpt>
<trkpt lat="40.0715395" lon="-105.2297798">
  <ele>1583.15</ele>
  <time>2026-08-28T17:52:26Z</time>
  <course>182.64</course>
  <speed>5.283786521047193</speed>
  <fix>3d</fix>
</trkpt>
<trkpt lat="40.0715531" lon="-105.2297789">
  <ele>1583.0</ele>
  <time>2026-08-28T17:52:26Z</time>
  <course>182.13</course>
  <speed>5.11</speed>
  <fix>3d</fix>
</trkpt>
<trkpt lat="40.0715347" lon="-105.22978">
  <ele>1583.15</ele>
  <time>2026-08-28T17:52:26Z</time>
  <course>182.6</course>
  <speed>5.31376514347407</speed>
  <fix>3d</fix>
</trkpt>
<trkpt lat="40.0715438" lon="-105.2297794">
  <ele>1583.0</ele>
  <time>2026-08-28T17:52:26Z</time>
  <course>181.99</course>
  <speed>5.22</speed>
  <fix>3d</fix>
</trkpt>
<trkpt lat="40.0715299" lon="-105.2297802">
  <ele>1583.15</ele>
  <time>2026-08-28T17:52:26Z</time>
  <course>182.52</course>
  <speed>5.333385416412356</speed>
  <fix>3d</fix>
</trkpt>
<trkpt lat="40.0715438" lon="-105.2297794">
  <ele>1583.0</ele>
  <time>2026-08-28T17:52:26Z</time>
  <course>181.99</course>
  <speed>5.22</speed>
  <fix>3d</fix>
</trkpt>
<trkpt lat="40.0715241" lon="-105.2297804">
  <ele>1583.15</ele>
  <time>2026-08-28T17:52:26Z</time>
  <course>182.46</course>
  <speed>5.343032846614364</speed>
  <fix>3d</fix>
</trkpt>
<trkpt lat="40.0715343" lon="-105.2297797">
  <ele>1583.0</ele>
  <time>2026-08-28T17:52:26Z</time>
  <course>181.87</course>
  <speed>5.29</speed>
  <fix>3d</fix>
</trkpt>
<trkpt lat="40.0715193" lon="-105.2297806">
  <ele>1583.15</ele>
  <time>2026-08-28T17:52:26Z</time>
  <course>182.43</course>
  <speed>5.333038533519142</speed>
  <fix>3d</fix>
</trkpt>
<trkpt lat="40.0715343" lon="-105.2297797">
  <ele>1583.0</ele>
  <time>2026-08-28T17:52:26Z</time>
  <course>181.87</course>
  <speed>5.29</speed>
  <fix>3d</fix>
</trkpt>
<trkpt lat="40.0715145" lon="-105.2297808">
  <ele>1583.15</ele>
  <time>2026-08-28T17:52:26Z</time>
  <course>182.39</course>
  <speed>5.32271547238813</speed>
  <fix>3d</fix>
</trkpt>
<trkpt lat="40.0715248" lon="-105.2297801">
  <ele>1583.0</ele>
  <time>2026-08-28T17:52:26Z</time>
  <course>181.78</course>
  <speed>5.31</speed>
  <fix>3d</fix>
</trkpt>
<trkpt lat="40.0715097" lon="-105.229781">
  <ele>1583.14</ele>
  <time>2026-08-28T17:52:26Z</time>
  <course>182.33</course>
  <speed>5.312720583655798</speed>
  <fix>3d</fix>
</trkpt>
<trkpt lat="40.0715248" lon="-105.2297801">
  <ele>1583.0</ele>
  <time>2026-08-28T17:52:26Z</time>
  <course>181.78</course>
  <speed>5.31</speed>
  <fix>3d</fix>
</trkpt>
<trkpt lat="40.0715049" lon="-105.2297811">
  <ele>1583.14</ele>
  <time>2026-08-28T17:52:26Z</time>
  <course>182.31</course>
  <speed>5.282423686150136</speed>
  <fix>3d</fix>
</trkpt>
<trkpt lat="40.0715153" lon="-105.2297805">
  <ele>1583.0</ele>
  <time>2026-08-28T17:52:26Z</time>
  <course>181.69</course>
  <speed>5.29</speed>
  <fix>3d</fix>
</trkpt>
<trkpt lat="40.0715002" lon="-105.2297813">
  <ele>1583.14</ele>
  <time>2026-08-28T17:52:26Z</time>
  <course>182.28</course>
  <speed>5.252437529376242</speed>
  <fix>3d</fix>
</trkpt>
<trkpt lat="40.0715153" lon="-105.2297805">
  <ele>1583.0</ele>
  <time>2026-08-28T17:52:26Z</time>
  <course>181.69</course>
  <speed>5.29</speed>
  <fix>3d</fix>
</trkpt>
<trkpt lat="40.0714955" lon="-105.2297815">
  <ele>1583.13</ele>
  <time>2026-08-28T17:52:26Z</time>
  <course>182.28</course>
  <speed>5.2124562348282595</speed>
  <fix>3d</fix>
</trkpt>
<trkpt lat="40.0715058" lon="-105.2297809">
  <ele>1583.0</ele>
  <time>2026-08-28T17:52:26Z</time>
  <course>181.62</course>
  <speed>5.25</speed>
  <fix>3d</fix>
</trkpt>
<trkpt lat="40.0714909" lon="-105.2297816">
  <ele>1583.13</ele>
  <time>2026-08-28T17:52:26Z</time>
  <course>182.28</course>
  <speed>5.172175557731968</speed>
  <fix>3d</fix>
</trkpt>
<trkpt lat="40.0715058" lon="-105.2297809">
  <ele>1583.0</ele>
  <time>2026-08-28T17:52:26Z</time>
  <course>181.62</course>
  <speed>5.25</speed>
  <fix>3d</fix>
</trkpt>
<trkpt lat="40.0714863" lon="-105.2297818">
  <ele>1583.12</ele>
  <time>2026-08-28T17:52:26Z</time>
  <course>182.28</course>
  <speed>5.122196794345176</speed>
  <fix>3d</fix>
</trkpt>
<trkpt lat="40.0714964" lon="-105.2297812">
  <ele>1583.0</ele>
  <time>2026-08-28T17:52:26Z</time>
  <course>181.6</course>
  <speed>5.18</speed>
  <fix>3d</fix>
</trkpt>
<trkpt lat="40.0714818" lon="-105.2297819">
  <ele>1583.12</ele>
  <time>2026-08-28T17:52:26Z</time>
  <course>182.27</course>
  <speed>5.072218449554396</speed>
  <fix>3d</fix>
</trkpt>
<trkpt lat="40.0714964" lon="-105.2297812">
  <ele>1583.0</ele>
  <time>2026-08-28T17:52:26Z</time>
  <course>181.6</course>
  <speed>5.18</speed>
  <fix>3d</fix>
</trkpt>
<trkpt lat="40.0714774" lon="-105.2297821">
  <ele>1583.12</ele>
  <time>2026-08-28T17:52:26Z</time>
  <course>182.27</course>
  <speed>5.012245005982848</speed>
  <fix>3d</fix>
</trkpt>
<trkpt lat="40.0714871" lon="-105.2297816">
  <ele>1583.0</ele>
  <time>2026-08-28T17:52:26Z</time>
  <course>181.6</course>
  <speed>5.1</speed>
  <fix>3d</fix>
</trkpt>
<trkpt lat="40.0714729" lon="-105.2297822">
  <ele>1583.11</ele>
  <time>2026-08-28T17:52:26Z</time>
  <course>182.27</course>
  <speed>4.941983407499463</speed>
  <fix>3d</fix>
</trkpt>
<trkpt lat="40.0714871" lon="-105.2297816">
  <ele>1583.0</ele>
  <time>2026-08-28T17:52:26Z</time>
  <course>181.6</course>
  <speed>5.1</speed>
  <fix>3d</fix>
</trkpt>
<trkpt lat="40.0714694" lon="-105.2297823">
  <ele>1583.11</ele>
  <time>2026-08-28T17:52:26Z</time>
  <course>182.27</course>
  <speed>4.8820077836890015</speed>
  <fix>3d</fix>
</trkpt>
<trkpt lat="40.071478" lon="-105.2297819">
  <ele>1583.0</ele>
  <time>2026-08-28T17:52:26Z</time>
  <course>181.6</course>
  <speed>4.99</speed>
  <fix>3d</fix>
</trkpt>
<trkpt lat="40.0714651" lon="-105.2297825">
  <ele>1583.11</ele>
  <time>2026-08-28T17:52:26Z</time>
  <course>182.27</course>
  <speed>4.802041232642635</speed>
  <fix>3d</fix>
</trkpt>
<trkpt lat="40.071478" lon="-105.2297819">
  <ele>1583.0</ele>
  <time>2026-08-28T17:52:26Z</time>
  <course>181.6</course>
  <speed>4.99</speed>
  <fix>3d</fix>
</trkpt>
<trkpt lat="40.0714608" lon="-105.2297826">
  <ele>1583.11</ele>
  <time>2026-08-28T17:52:26Z</time>
  <course>182.27</course>
  <speed>4.711793713650885</speed>
  <fix>3d</fix>
</trkpt>
<trkpt lat="40.0714692" lon="-105.2297822">
  <ele>1583.0</ele>
  <time>2026-08-28T17:52:26Z</time>
  <course>181.6</course>
  <speed>4.85</speed>
  <fix>3d</fix>
</trkpt>
<trkpt lat="40.0714567" lon="-105.2297828">
  <ele>1583.11</ele>
  <time>2026-08-28T17:52:26Z</time>
  <course>182.27</course>
  <speed>4.61183260754334</speed>
  <fix>3d</fix>
</trkpt>
<trkpt lat="40.0714692" lon="-105.2297822">
  <ele>1583.0</ele>
  <time>2026-08-28T17:52:26Z</time>
  <course>181.6</course>
  <speed>4.85</speed>
  <fix>3d</fix>
</trkpt>
<trkpt lat="40.0714526" lon="-105.2297829">
  <ele>1583.11</ele>
  <time>2026-08-28T17:52:26Z</time>
  <course>182.27</course>
  <speed>4.5015997156566465</speed>
  <fix>3d</fix>
</trkpt>
<trkpt lat="40.0714606" lon="-105.2297825">
  <ele>1583.0</ele>
  <time>2026-08-28T17:52:26Z</time>
  <course>181.6</course>
  <speed>4.67</speed>
  <fix>3d</fix>
</trkpt>
<trkpt lat="40.0714486" lon="-105.229783">
  <ele>1583.11</ele>
  <time>2026-08-28T17:52:26Z</time>
  <course>182.27</course>
  <speed>4.391639784863964</speed>
  <fix>3d</fix>
</trkpt>
<trkpt lat="40.0714606" lon="-105.2297825">
  <ele>1583.0</ele>
  <time>2026-08-28T17:52:26Z</time>
  <course>181.6</course>
  <speed>4.67</speed>
  <fix>3d</fix>
</trkpt>
<trkpt lat="40.0714447" lon="-105.2297832">
  <ele>1583.11</ele>
  <time>2026-08-28T17:52:26Z</time>
  <course>182.27</course>
  <speed>4.271416626834709</speed>
  <fix>3d</fix>
</trkpt>
<trkpt lat="40.0714524" lon="-105.2297828">
  <ele>1583.0</ele>
  <time>2026-08-28T17:52:26Z</time>
  <course>181.6</course>
  <speed>4.47</speed>
  <fix>3d</fix>
</trkpt>
<trkpt lat="40.0714409" lon="-105.2297833">
  <ele>1583.11</ele>
  <time>2026-08-28T17:52:26Z</time>
  <course>182.27</course>
  <speed>4.1514575753583225</speed>
  <fix>3d</fix>
</trkpt>
<trkpt lat="40.0714524" lon="-105.2297828">
  <ele>1583.0</ele>
  <time>2026-08-28T17:52:26Z</time>
  <course>181.6</course>
  <speed>4.47</speed>
  <fix>3d</fix>
</trkpt>
<trkpt lat="40.0714372" lon="-105.2297834">
  <ele>1583.11</ele>
  <time>2026-08-28T17:52:26Z</time>
  <course>182.27</course>
  <speed>4.021243588742169</speed>
  <fix>3d</fix>
</trkpt>
<trkpt lat="40.0714447" lon="-105.2297831">
  <ele>1583.0</ele>
  <time>2026-08-28T17:52:26Z</time>
  <course>181.6</course>
  <speed>4.24</speed>
  <fix>3d</fix>
</trkpt>
<trkpt lat="40.071433" lon="-105.2297835">
  <ele>1583.11</ele>
  <time>2026-08-28T17:52:26Z</time>
  <course>182.27</course>
  <speed>3.8712917740723185</speed>
  <fix>3d</fix>
</trkpt>
<trkpt lat="40.0714447" lon="-105.2297831">
  <ele>1583.0</ele>
  <time>2026-08-28T17:52:26Z</time>
  <course>181.6</course>
  <speed>4.24</speed>
  <fix>3d</fix>
</trkpt>
<trkpt lat="40.0714296" lon="-105.2297837">
  <ele>1583.11</ele>
  <time>2026-08-28T17:52:26Z</time>
  <course>182.27</course>
  <speed>3.7410827309750854</speed>
  <fix>3d</fix>
</trkpt>
<trkpt lat="40.0714373" lon="-105.2297834">
  <ele>1583.0</ele>
  <time>2026-08-28T17:52:26Z</time>
  <course>181.6</course>
  <speed>3.99</speed>
  <fix>3d</fix>
</trkpt>
<trkpt lat="40.0714213" lon="-105.2297839">
  <ele>1583.1</ele>
  <time>2026-08-28T17:52:26Z</time>
  <course>182.27</course>
  <speed>3.4009410462399963</speed>
  <fix>3d</fix>
</trkpt>
<trkpt lat="40.0714303" lon="-105.2297836">
  <ele>1583.0</ele>
  <time>2026-08-28T17:52:26Z</time>
  <course>181.6</course>
  <speed>3.74</speed>
  <fix>3d</fix>
</trkpt>
<trkpt lat="40.0714183" lon="-105.229784">
  <ele>1583.1</ele>
  <time>2026-08-28T17:52:26Z</time>
  <course>182.27</course>
  <speed>3.270978446887108</speed>
  <fix>3d</fix>
</trkpt>
<trkpt lat="40.0714238" lon="-105.2297839">
  <ele>1583.0</ele>
  <time>2026-08-28T17:52:26Z</time>
  <course>181.6</course>
  <speed>3.49</speed>
  <fix>3d</fix>
</trkpt>
<trkpt lat="40.0714154" lon="-105.2297841">
  <ele>1583.1</ele>
  <time>2026-08-28T17:52:26Z</time>
  <course>182.29</course>
  <speed>3.140780157858872</speed>
  <fix>3d</fix>
</trkpt>
<trkpt lat="40.0714238" lon="-105.2297839">
  <ele>1583.0</ele>
  <time>2026-08-28T17:52:26Z</time>
  <course>181.6</course>
  <speed>3.49</speed>
  <fix>3d</fix>
</trkpt>
<trkpt lat="40.0714127" lon="-105.2297842">
  <ele>1583.11</ele>
  <time>2026-08-28T17:52:26Z</time>
  <course>182.32</course>
  <speed>3.0208111493438317</speed>
  <fix>3d</fix>
</trkpt>
<trkpt lat="40.0714178" lon="-105.2297841">
  <ele>1583.0</ele>
  <time>2026-08-28T17:52:26Z</time>
  <course>181.62</course>
  <speed>3.23</speed>
  <fix>3d</fix>
</trkpt>
<trkpt lat="40.0714101" lon="-105.2297843">
  <ele>1583.11</ele>
  <time>2026-08-28T17:52:26Z</time>
  <course>182.36</course>
  <speed>2.890847626562147</speed>
  <fix>3d</fix>
</trkpt>
<trkpt lat="40.0714178" lon="-105.2297841">
  <ele>1583.0</ele>
  <time>2026-08-28T17:52:26Z</time>
  <course>181.62</course>
  <speed>3.23</speed>
  <fix>3d</fix>
</trkpt>
<trkpt lat="40.0714076" lon="-105.2297844">
  <ele>1583.11</ele>
  <time>2026-08-28T17:52:26Z</time>
  <course>182.4</course>
  <speed>2.770884335370208</speed>
  <fix>3d</fix>
</trkpt>
<trkpt lat="40.0714122" lon="-105.2297844">
  <ele>1583.0</ele>
  <time>2026-08-28T17:52:26Z</time>
  <course>181.68</course>
  <speed>2.99</speed>
  <fix>3d</fix>
</trkpt>
<trkpt lat="40.0714052" lon="-105.2297845">
  <ele>1583.11</ele>
  <time>2026-08-28T17:52:26Z</time>
  <course>182.43</course>
  <speed>2.6509243670840554</speed>
  <fix>3d</fix>
</trkpt>
<trkpt lat="40.0714122" lon="-105.2297844">
  <ele>1583.0</ele>
  <time>2026-08-28T17:52:26Z</time>
  <course>181.68</course>
  <speed>2.99</speed>
  <fix>3d</fix>
</trkpt>
<trkpt lat="40.0714029" lon="-105.2297846">
  <ele>1583.11</ele>
  <time>2026-08-28T17:52:26Z</time>
  <course>182.47</course>
  <speed>2.5309681941897257</speed>
  <fix>3d</fix>
</trkpt>
<trkpt lat="40.071407" lon="-105.2297845">
  <ele>1583.0</ele>
  <time>2026-08-28T17:52:26Z</time>
  <course>181.75</course>
  <speed>2.75</speed>
  <fix>3d</fix>
</trkpt>
<trkpt lat="40.0714007" lon="-105.2297847">
  <ele>1583.11</ele>
  <time>2026-08-28T17:52:26Z</time>
  <course>182.5</course>
  <speed>2.420743687382041</speed>
  <fix>3d</fix>
</trkpt>
<trkpt lat="40.071407" lon="-105.2297845">
  <ele>1583.0</ele>
  <time>2026-08-28T17:52:26Z</time>
  <course>181.75</course>
  <speed>2.75</speed>
  <fix>3d</fix>
</trkpt>
<trkpt lat="40.0713986" lon="-105.2297848">
  <ele>1583.11</ele>
  <time>2026-08-28T17:52:26Z</time>
  <course>182.56</course>
  <speed>2.3107790893982054</speed>
  <fix>3d</fix>
</trkpt>
<trkpt lat="40.0714022" lon="-105.2297848">
  <ele>1583.0</ele>
  <time>2026-08-28T17:52:26Z</time>
  <course>181.83</course>
  <speed>2.53</speed>
  <fix>3d</fix>
</trkpt>
<trkpt lat="40.0713965" lon="-105.2297848">
  <ele>1583.12</ele>
  <time>2026-08-28T17:52:26Z</time>
  <course>182.56</course>
  <speed>2.20081802973349</speed>
  <fix>3d</fix>
</trkpt>
<trkpt lat="40.0714022" lon="-105.2297848">
  <ele>1583.0</ele>
  <time>2026-08-28T17:52:26Z</time>
  <course>181.83</course>
  <speed>2.53</speed>
  <fix>3d</fix>
</trkpt>
<trkpt lat="40.0713946" lon="-105.2297849">
  <ele>1583.12</ele>
  <time>2026-08-28T17:52:26Z</time>
  <course>182.48</course>
  <speed>2.090598000573042</speed>
  <fix>3d</fix>
</trkpt>
<trkpt lat="40.0713978" lon="-105.2297849">
  <ele>1583.0</ele>
  <time>2026-08-28T17:52:26Z</time>
  <course>181.88</course>
  <speed>2.31</speed>
  <fix>3d</fix>
</trkpt>
<trkpt lat="40.0713928" lon="-105.229785">
  <ele>1583.12</ele>
  <time>2026-08-28T17:52:26Z</time>
  <course>182.15</course>
  <speed>1.9904019694524018</speed>
  <fix>3d</fix>
</trkpt>
<trkpt lat="40.0713978" lon="-105.2297849">
  <ele>1583.0</ele>
  <time>2026-08-28T17:52:26Z</time>
  <course>181.88</course>
  <speed>2.31</speed>
  <fix>3d</fix>
</trkpt>
<trkpt lat="40.071391" lon="-105.2297851">
  <ele>1583.11</ele>
  <time>2026-08-28T17:52:26Z</time>
  <course>181.55</course>
  <speed>1.8901058171435798</speed>
  <fix>3d</fix>
</trkpt>
<trkpt lat="40.0713938" lon="-105.229785">
  <ele>1583.0</ele>
  <time>2026-08-28T17:52:26Z</time>
  <course>181.54</course>
  <speed>2.1</speed>
  <fix>3d</fix>
</trkpt>
<trkpt lat="40.0713893" lon="-105.2297851">
  <ele>1583.11</ele>
  <time>2026-08-28T17:52:26Z</time>
  <course>180.64</course>
  <speed>1.7900279327429502</speed>
  <fix>3d</fix>
</trkpt>
<trkpt lat="40.0713938" lon="-105.229785">
  <ele>1583.0</ele>
  <time>2026-08-28T17:52:26Z</time>
  <course>181.54</course>
  <speed>2.1</speed>
  <fix>3d</fix>
</trkpt>
<trkpt lat="40.0713877" lon="-105.229785">
  <ele>1583.11</ele>
  <time>2026-08-28T17:52:26Z</time>
  <course>179.36</course>
  <speed>1.690473306503241</speed>
  <fix>3d</fix>
</trkpt>
<trkpt lat="40.0713903" lon="-105.2297852">
  <ele>1583.0</ele>
  <time>2026-08-28T17:52:26Z</time>
  <course>180.27</course>
  <speed>1.9</speed>
  <fix>3d</fix>
</trkpt>
<trkpt lat="40.0713862" lon="-105.2297851">
  <ele>1583.11</ele>
  <time>2026-08-28T17:52:26Z</time>
  <course>177.71</course>
  <speed>1.5925451327984397</speed>
  <fix>3d</fix>
</trkpt>
<trkpt lat="40.0713903" lon="-105.2297852">
  <ele>1583.0</ele>
  <time>2026-08-28T17:52:26Z</time>
  <course>180.27</course>
  <speed>1.9</speed>
  <fix>3d</fix>
</trkpt>
<trkpt lat="40.0713848" lon="-105.2297849">
  <ele>1583.11</ele>
  <time>2026-08-28T17:52:26Z</time>
  <course>175.61</course>
  <speed>1.496562728387955</speed>
  <fix>3d</fix>
</trkpt>
<trkpt lat="40.071387" lon="-105.2297851">
  <ele>1583.0</ele>
  <time>2026-08-28T17:52:26Z</time>
  <course>177.66</course>
  <speed>1.7</speed>
  <fix>3d</fix>
</trkpt>
<trkpt lat="40.0713834" lon="-105.2297847">
  <ele>1583.11</ele>
  <time>2026-08-28T17:52:26Z</time>
  <course>173.05</course>
  <speed>1.4043147795277242</speed>
  <fix>3d</fix>
</trkpt>
<trkpt lat="40.071387" lon="-105.2297851">
  <ele>1583.0</ele>
  <time>2026-08-28T17:52:26Z</time>
  <course>177.66</course>
  <speed>1.7</speed>
  <fix>3d</fix>
</trkpt>
<trkpt lat="40.0713822" lon="-105.2297844">
  <ele>1583.11</ele>
  <time>2026-08-28T17:52:26Z</time>
  <course>170.06</course>
  <speed>1.3159407281484983</speed>
  <fix>3d</fix>
</trkpt>
<trkpt lat="40.0713842" lon="-105.2297849">
  <ele>1583.0</ele>
  <time>2026-08-28T17:52:26Z</time>
  <course>173.41</course>
  <speed>1.51</speed>
  <fix>3d</fix>
</trkpt>
<trkpt lat="40.0713811" lon="-105.2297841">
  <ele>1583.11</ele>
  <time>2026-08-28T17:52:26Z</time>
  <course>166.73</course>
  <speed>1.23227432010896</speed>
  <fix>3d</fix>
</trkpt>
<trkpt lat="40.0713842" lon="-105.2297849">
  <ele>1583.0</ele>
  <time>2026-08-28T17:52:26Z</time>
  <course>173.41</course>
  <speed>1.51</speed>
  <fix>3d</fix>
</trkpt>
<trkpt lat="40.07138" lon="-105.2297837">
  <ele>1583.1</ele>
  <time>2026-08-28T17:52:26Z</time>
  <course>163.14</course>
  <speed>1.1637869220780923</speed>
  <fix>3d</fix>
</trkpt>
<trkpt lat="40.0713816" lon="-105.2297844">
  <ele>1583.0</ele>
  <time>2026-08-28T17:52:26Z</time>
  <course>167.49</course>
  <speed>1.33</speed>
  <fix>3d</fix>
</trkpt>
<trkpt lat="40.071379" lon="-105.2297832">
  <ele>1583.1</ele>
  <time>2026-08-28T17:52:26Z</time>
  <course>159.32</course>
  <speed>1.1069326989478627</speed>
  <fix>3d</fix>
</trkpt>
<trkpt lat="40.0713816" lon="-105.2297844">
  <ele>1583.0</ele>
  <time>2026-08-28T17:52:26Z</time>
  <course>167.49</course>
  <speed>1.33</speed>
  <fix>3d</fix>
</trkpt>
<trkpt lat="40.0713781" lon="-105.2297827">
  <ele>1583.1</ele>
  <time>2026-08-28T17:52:26Z</time>
  <course>155.48</course>
  <speed>1.064377752492037</speed>
  <fix>3d</fix>
</trkpt>
<trkpt lat="40.0713795" lon="-105.2297835">
  <ele>1583.0</ele>
  <time>2026-08-28T17:52:26Z</time>
  <course>160.3</course>
  <speed>1.2</speed>
  <fix>3d</fix>
</trkpt>
<trkpt lat="40.0713772" lon="-105.229782">
  <ele>1583.1</ele>
  <time>2026-08-28T17:52:26Z</time>
  <course>151.65</course>
  <speed>1.0410091258005378</speed>
  <fix>3d</fix>
</trkpt>
<trkpt lat="40.0713795" lon="-105.2297835">
  <ele>1583.0</ele>
  <time>2026-08-28T17:52:26Z</time>
  <course>160.3</course>
  <speed>1.2</speed>
  <fix>3d</fix>
</trkpt>
<trkpt lat="40.0713764" lon="-105.2297814">
  <ele>1583.1</ele>
  <time>2026-08-28T17:52:26Z</time>
  <course>147.84</course>
  <speed>1.026498904042279</speed>
  <fix>3d</fix>
</trkpt>
<trkpt lat="40.0713776" lon="-105.2297825">
  <ele>1583.0</ele>
  <time>2026-08-28T17:52:26Z</time>
  <course>152.58</course>
  <speed>1.11</speed>
  <fix>3d</fix>
</trkpt>
<trkpt lat="40.0713757" lon="-105.2297807">
  <ele>1583.1</ele>
  <time>2026-08-28T17:52:26Z</time>
  <course>144.05</course>
  <speed>1.0167103815738285</speed>
  <fix>3d</fix>
</trkpt>
<trkpt lat="40.0713776" lon="-105.2297825">
  <ele>1583.0</ele>
  <time>2026-08-28T17:52:26Z</time>
  <course>152.58</course>
  <speed>1.11</speed>
  <fix>3d</fix>
</trkpt>
<trkpt lat="40.0713749" lon="-105.2297799">
  <ele>1583.1</ele>
  <time>2026-08-28T17:52:26Z</time>
  <course>140.26</course>
  <speed>1.0259142264341596</speed>
  <fix>3d</fix>
</trkpt>
<trkpt lat="40.0713758" lon="-105.2297811">
  <ele>1583.0</ele>
  <time>2026-08-28T17:52:26Z</time>
  <course>144.88</course>
  <speed>1.08</speed>
  <fix>3d</fix>
</trkpt>
<trkpt lat="40.0713742" lon="-105.229779">
  <ele>1583.1</ele>
  <time>2026-08-28T17:52:26Z</time>
  <course>136.46</course>
  <speed>1.0400480758118829</speed>
  <fix>3d</fix>
</trkpt>
<trkpt lat="40.0713758" lon="-105.2297811">
  <ele>1583.0</ele>
  <time>2026-08-28T17:52:26Z</time>
  <course>144.88</course>
  <speed>1.08</speed>
  <fix>3d</fix>
</trkpt>
<trkpt lat="40.0713736" lon="-105.2297781">
  <ele>1583.11</ele>
  <time>2026-08-28T17:52:26Z</time>
  <course>132.7</course>
  <speed>1.065269918846862</speed>
  <fix>3d</fix>
</trkpt>
<trkpt lat="40.0713743" lon="-105.2297795">
  <ele>1583.0</ele>
  <time>2026-08-28T17:52:26Z</time>
  <course>137.24</course>
  <speed>1.09</speed>
  <fix>3d</fix>
</trkpt>
<trkpt lat="40.0713729" lon="-105.229777">
  <ele>1583.11</ele>
  <time>2026-08-28T17:52:26Z</time>
  <course>128.96</course>
  <speed>1.0962207806824318</speed>
  <fix>3d</fix>
</trkpt>
<trkpt lat="40.0713743" lon="-105.2297795">
  <ele>1583.0</ele>
  <time>2026-08-28T17:52:26Z</time>
  <course>137.24</course>
  <speed>1.09</speed>
  <fix>3d</fix>
</trkpt>
<trkpt lat="40.0713723" lon="-105.2297759">
  <ele>1583.11</ele>
  <time>2026-08-28T17:52:26Z</time>
  <course>125.26</course>
  <speed>1.1320777358467924</speed>
  <fix>3d</fix>
</trkpt>
<trkpt lat="40.071373" lon="-105.2297776">
  <ele>1583.0</ele>
  <time>2026-08-28T17:52:26Z</time>
  <course>129.68</course>
  <speed>1.13</speed>
  <fix>3d</fix>
</trkpt>
<trkpt lat="40.0713718" lon="-105.2297747">
  <ele>1583.12</ele>
  <time>2026-08-28T17:52:26Z</time>
  <course>121.53</course>
  <speed>1.1676472069936192</speed>
  <fix>3d</fix>
</trkpt>
<trkpt lat="40.071373" lon="-105.2297776">
  <ele>1583.0</ele>
  <time>2026-08-28T17:52:26Z</time>
  <course>129.68</course>
  <speed>1.13</speed>
  <fix>3d</fix>
</trkpt>
<trkpt lat="40.0713712" lon="-105.2297735">
  <ele>1583.12</ele>
  <time>2026-08-28T17:52:26Z</time>
  <course>117.79</course>
  <speed>1.2083045973594573</speed>
  <fix>3d</fix>
</trkpt>
<trkpt lat="40.0713718" lon="-105.2297754">
  <ele>1583.0</ele>
  <time>2026-08-28T17:52:26Z</time>
  <course>122.18</course>
  <speed>1.18</speed>
  <fix>3d</fix>
</trkpt>
<trkpt lat="40.0713708" lon="-105.2297721">
  <ele>1583.12</ele>
  <time>2026-08-28T17:52:26Z</time>
  <course>114.06</course>
  <speed>1.240644993541666</speed>
  <fix>3d</fix>
</trkpt>
<trkpt lat="40.0713718" lon="-105.2297754">
  <ele>1583.0</ele>
  <time>2026-08-28T17:52:26Z</time>
  <course>122.18</course>
  <speed>1.18</speed>
  <fix>3d</fix>
</trkpt>
<trkpt lat="40.0713704" lon="-105.2297707">
  <ele>1583.12</ele>
  <time>2026-08-28T17:52:26Z</time>
  <course>110.39</course>
  <speed>1.277810627597063</speed>
  <fix>3d</fix>
</trkpt>
<trkpt lat="40.0713707" lon="-105.2297729">
  <ele>1583.0</ele>
  <time>2026-08-28T17:52:26Z</time>
  <course>114.71</course>
  <speed>1.25</speed>
  <fix>3d</fix>
</trkpt>
<trkpt lat="40.07137" lon="-105.2297692">
  <ele>1583.12</ele>
  <time>2026-08-28T17:52:26Z</time>
  <course>106.88</course>
  <speed>1.3267252918370103</speed>
  <fix>3d</fix>
</trkpt>
<trkpt lat="40.0713707" lon="-105.2297729">
  <ele>1583.0</ele>
  <time>2026-08-28T17:52:26Z</time>
  <course>114.71</course>
  <speed>1.25</speed>
  <fix>3d</fix>
</trkpt>
<trkpt lat="40.0713697" lon="-105.2297676">
  <ele>1583.12</ele>
  <time>2026-08-28T17:52:26Z</time>
  <course>103.7</course>
  <speed>1.372953021774598</speed>
  <fix>3d</fix>
</trkpt>
<trkpt lat="40.0713699" lon="-105.2297701">
  <ele>1583.0</ele>
  <time>2026-08-28T17:52:26Z</time>
  <course>107.54</course>
  <speed>1.32</speed>
  <fix>3d</fix>
</trkpt>
<trkpt lat="40.0713695" lon="-105.2297659">
  <ele>1583.13</ele>
  <time>2026-08-28T17:52:26Z</time>
  <course>100.88</course>
  <speed>1.4241137595009747</speed>
  <fix>3d</fix>
</trkpt>
<trkpt lat="40.0713699" lon="-105.2297701">
  <ele>1583.0</ele>
  <time>2026-08-28T17:52:26Z</time>
  <course>107.54</course>
  <speed>1.32</speed>
  <fix>3d</fix>
</trkpt>
<trkpt lat="40.0713693" lon="-105.2297642">
  <ele>1583.13</ele>
  <time>2026-08-28T17:52:26Z</time>
  <course>98.43</course>
  <speed>1.4766516176810291</speed>
  <fix>3d</fix>
</trkpt>
<trkpt lat="40.0713693" lon="-105.229767">
  <ele>1583.0</ele>
  <time>2026-08-28T17:52:26Z</time>
  <course>101.32</course>
  <speed>1.41</speed>
  <fix>3d</fix>
</trkpt>
<trkpt lat="40.0713691" lon="-105.2297624">
  <ele>1583.13</ele>
  <time>2026-08-28T17:52:26Z</time>
  <course>96.38</course>
  <speed>1.5332644912082194</speed>
  <fix>3d</fix>
</trkpt>
<trkpt lat="40.0713693" lon="-105.229767">
  <ele>1583.0</ele>
  <time>2026-08-28T17:52:26Z</time>
  <course>101.32</course>
  <speed>1.41</speed>
  <fix>3d</fix>
</trkpt>
<trkpt lat="40.071369" lon="-105.2297605">
  <ele>1583.12</ele>
  <time>2026-08-28T17:52:26Z</time>
  <course>94.71</course>
  <speed>1.6111176245079064</speed>
  <fix>3d</fix>
</trkpt>
<trkpt lat="40.0713689" lon="-105.2297635">
  <ele>1583.0</ele>
  <time>2026-08-28T17:52:26Z</time>
  <course>96.52</course>
  <speed>1.52</speed>
  <fix>3d</fix>
</trkpt>
<trkpt lat="40.0713689" lon="-105.2297586">
  <ele>1583.12</ele>
  <time>2026-08-28T17:52:26Z</time>
  <course>93.41</course>
  <speed>1.6802678357928535</speed>
  <fix>3d</fix>
</trkpt>
<trkpt lat="40.0713689" lon="-105.2297635">
  <ele>1583.0</ele>
  <time>2026-08-28T17:52:26Z</time>
  <course>96.52</course>
  <speed>1.52</speed>
  <fix>3d</fix>
</trkpt>
<trkpt lat="40.0713689" lon="-105.2297565">
  <ele>1583.12</ele>
  <time>2026-08-28T17:52:26Z</time>
  <course>92.44</course>
  <speed>1.77</speed>
  <fix>3d</fix>
</trkpt>
<trkpt lat="40.0713686" lon="-105.2297598">
  <ele>1583.0</ele>
  <time>2026-08-28T17:52:26Z</time>
  <course>93.25</course>
  <speed>1.66</speed>
  <fix>3d</fix>
</trkpt>
<trkpt lat="40.0713689" lon="-105.2297544">
  <ele>1583.12</ele>
  <time>2026-08-28T17:52:26Z</time>
  <course>91.76</course>
  <speed>1.86</speed>
  <fix>3d</fix>
</trkpt>
<trkpt lat="40.0713686" lon="-105.2297598">
  <ele>1583.0</ele>
  <time>2026-08-28T17:52:26Z</time>
  <course>93.25</course>
  <speed>1.66</speed>
  <fix>3d</fix>
</trkpt>
<trkpt lat="40.0713688" lon="-105.2297521">
  <ele>1583.12</ele>
  <time>2026-08-28T17:52:26Z</time>
  <course>91.37</course>
  <speed>1.960025510038071</speed>
  <fix>3d</fix>
</trkpt>
<trkpt lat="40.0713685" lon="-105.2297557">
  <ele>1583.0</ele>
  <time>2026-08-28T17:52:26Z</time>
  <course>91.35</course>
  <speed>1.83</speed>
  <fix>3d</fix>
</trkpt>
<trkpt lat="40.0713688" lon="-105.2297497">
  <ele>1583.12</ele>
  <time>2026-08-28T17:52:26Z</time>
  <course>91.13</course>
  <speed>2.0700241544484452</speed>
  <fix>3d</fix>
</trkpt>
<trkpt lat="40.0713685" lon="-105.2297557">
  <ele>1583.0</ele>
  <time>2026-08-28T17:52:26Z</time>
  <course>91.35</course>
  <speed>1.83</speed>
  <fix>3d</fix>
</trkpt>
<trkpt lat="40.0713688" lon="-105.2297472">
  <ele>1583.12</ele>
  <time>2026-08-28T17:52:26Z</time>
  <course>90.89</course>
  <speed>2.1800917411888885</speed>
  <fix>3d</fix>
</trkpt>
<trkpt lat="40.0713685" lon="-105.2297512">
  <ele>1583.0</ele>
  <time>2026-08-28T17:52:26Z</time>
  <course>90.47</course>
  <speed>2.03</speed>
  <fix>3d</fix>
</trkpt>
<trkpt lat="40.0713688" lon="-105.2297446">
  <ele>1583.12</ele>
  <time>2026-08-28T17:52:26Z</time>
  <course>90.67</course>
  <speed>2.300195643852931</speed>
  <fix>3d</fix>
</trkpt>
<trkpt lat="40.0713685" lon="-105.2297512">
  <ele>1583.0</ele>
  <time>2026-08-28T17:52:26Z</time>
  <course>90.47</course>
  <speed>2.03</speed>
  <fix>3d</fix>
</trkpt>
<trkpt lat="40.0713688" lon="-105.2297418">
  <ele>1583.12</ele>
  <time>2026-08-28T17:52:26Z</time>
  <course>90.46</course>
  <speed>2.420185943269649</speed>
  <fix>3d</fix>
</trkpt>
<trkpt lat="40.0713685" lon="-105.2297461">
  <ele>1583.0</ele>
  <time>2026-08-28T17:52:26Z</time>
  <course>89.99</course>
  <speed>2.25</speed>
  <fix>3d</fix>
</trkpt>
<trkpt lat="40.0713688" lon="-105.2297389">
  <ele>1583.12</ele>
  <time>2026-08-28T17:52:26Z</time>
  <course>90.28</course>
  <speed>2.5403149411047443</speed>
  <fix>3d</fix>
</trkpt>
<trkpt lat="40.0713685" lon="-105.2297461">
  <ele>1583.0</ele>
  <time>2026-08-28T17:52:26Z</time>
  <course>89.99</course>
  <speed>2.25</speed>
  <fix>3d</fix>
</trkpt>
<trkpt lat="40.0713688" lon="-105.2297358">
  <ele>1583.12</ele>
  <time>2026-08-28T17:52:27Z</time>
  <course>90.1</course>
  <speed>2.6603007348794234</speed>
  <fix>3d</fix>
</trkpt>
<trkpt lat="40.0713685" lon="-105.2297406">
  <ele>1583.0</ele>
  <time>2026-08-28T17:52:27Z</time>
  <course>89.59</course>
  <speed>2.49</speed>
  <fix>3d</fix>
</trkpt>
<trkpt lat="40.0713688" lon="-105.2297326">
  <ele>1583.13</ele>
  <time>2026-08-28T17:52:27Z</time>
  <course>89.95</course>
  <speed>2.790447992706547</speed>
  <fix>3d</fix>
</trkpt>
<trkpt lat="40.0713685" lon="-105.2297406">
  <ele>1583.0</ele>
  <time>2026-08-28T17:52:27Z</time>
  <course>89.59</course>
  <speed>2.49</speed>
  <fix>3d</fix>
</trkpt>
<trkpt lat="40.0713688" lon="-105.2297292">
  <ele>1583.13</ele>
  <time>2026-08-28T17:52:27Z</time>
  <course>89.8</course>
  <speed>2.920428050817209</speed>
  <fix>3d</fix>
</trkpt>
<trkpt lat="40.0713685" lon="-105.2297344">
  <ele>1583.0</ele>
  <time>2026-08-28T17:52:27Z</time>
  <course>89.25</course>
  <speed>2.74</speed>
  <fix>3d</fix>
</trkpt>
<trkpt lat="40.0713688" lon="-105.2297256">
  <ele>1583.13</ele>
  <time>2026-08-28T17:52:27Z</time>
  <course>89.68</course>
  <speed>3.04059204761178</speed>
  <fix>3d</fix>
</trkpt>
<trkpt lat="40.0713685" lon="-105.2297344">
  <ele>1583.0</ele>
  <time>2026-08-28T17:52:27Z</time>
  <course>89.25</course>
  <speed>2.74</speed>
  <fix>3d</fix>
</trkpt>
<trkpt lat="40.0713688" lon="-105.2297219">
  <ele>1583.13</ele>
  <time>2026-08-28T17:52:27Z</time>
  <course>89.55</course>
  <speed>3.170772776469484</speed>
  <fix>3d</fix>
</trkpt>
<trkpt lat="40.0713686" lon="-105.2297276">
  <ele>1583.0</ele>
  <time>2026-08-28T17:52:27Z</time>
  <course>88.96</course>
  <speed>3.0</speed>
  <fix>3d</fix>
</trkpt>
<trkpt lat="40.0713689" lon="-105.229718">
  <ele>1583.13</ele>
  <time>2026-08-28T17:52:27Z</time>
  <course>89.43</course>
  <speed>3.3007423407470027</speed>
  <fix>3d</fix>
</trkpt>
<trkpt lat="40.0713686" lon="-105.2297276">
  <ele>1583.0</ele>
  <time>2026-08-28T17:52:27Z</time>
  <course>88.96</course>
  <speed>3.0</speed>
  <fix>3d</fix>
</trkpt>
<trkpt lat="40.0713689" lon="-105.2297139">
  <ele>1583.13</ele>
  <time>2026-08-28T17:52:27Z</time>
  <course>89.34</course>
  <speed>3.4209355445550274</speed>
  <fix>3d</fix>
</trkpt>
<trkpt lat="40.0713686" lon="-105.2297203">
  <ele>1583.0</ele>
  <time>2026-08-28T17:52:27Z</time>
  <course>88.72</course>
  <speed>3.24</speed>
  <fix>3d</fix>
</trkpt>
<trkpt lat="40.071369" lon="-105.2297098">
  <ele>1583.13</ele>
  <time>2026-08-28T17:52:27Z</time>
  <course>89.24</course>
  <speed>3.5511406618155807</speed>
  <fix>3d</fix>
</trkpt>
<trkpt lat="40.0713686" lon="-105.2297203">
  <ele>1583.0</ele>
  <time>2026-08-28T17:52:27Z</time>
  <course>88.72</course>
  <speed>3.24</speed>
  <fix>3d</fix>
</trkpt>
<trkpt lat="40.071369" lon="-105.2297055">
  <ele>1583.13</ele>
  <time>2026-08-28T17:52:27Z</time>
  <course>89.14</course>
  <speed>3.671103376370652</speed>
  <fix>3d</fix>
</trkpt>
<trkpt lat="40.0713688" lon="-105.2297124">
  <ele>1583.0</ele>
  <time>2026-08-28T17:52:27Z</time>
  <course>88.52</course>
  <speed>3.49</speed>
  <fix>3d</fix>
</trkpt>
<trkpt lat="40.0713691" lon="-105.229701">
  <ele>1583.12</ele>
  <time>2026-08-28T17:52:27Z</time>
  <course>89.05</course>
  <speed>3.791319031682773</speed>
  <fix>3d</fix>
</trkpt>
<trkpt lat="40.0713688" lon="-105.2297124">
  <ele>1583.0</ele>
  <time>2026-08-28T17:52:27Z</time>
  <course>88.52</course>
  <speed>3.49</speed>
  <fix>3d</fix>
</trkpt>
<trkpt lat="40.0713692" lon="-105.2296964">
  <ele>1583.12</ele>
  <time>2026-08-28T17:52:27Z</time>
  <course>89.0</course>
  <speed>3.9012818406262317</speed>
  <fix>3d</fix>
</trkpt>
<trkpt lat="40.071369" lon="-105.2297039">
  <ele>1583.0</ele>
  <time>2026-08-28T17:52:27Z</time>
  <course>88.35</course>
  <speed>3.72</speed>
  <fix>3d</fix>
</trkpt>
<trkpt lat="40.0713693" lon="-105.2296917">
  <ele>1583.12</ele>
  <time>2026-08-28T17:52:27Z</time>
  <course>88.94</course>
  <speed>4.021504693519578</speed>
  <fix>3d</fix>
</trkpt>
<trkpt lat="40.071369" lon="-105.2297039">
  <ele>1583.0</ele>
  <time>2026-08-28T17:52:27Z</time>
  <course>88.35</course>
  <speed>3.72</speed>
  <fix>3d</fix>
</trkpt>
<trkpt lat="40.0713694" lon="-105.2296869">
  <ele>1583.11</ele>
  <time>2026-08-28T17:52:27Z</time>
  <course>88.88</course>
  <speed>4.131742973612952</speed>
  <fix>3d</fix>
</trkpt>
<trkpt lat="40.0713692" lon="-105.2296949">
  <ele>1583.0</ele>
  <time>2026-08-28T17:52:27Z</time>
  <course>88.21</course>
  <speed>3.95</speed>
  <fix>3d</fix>
</trkpt>
<trkpt lat="40.0713695" lon="-105.2296819">
  <ele>1583.11</ele>
  <time>2026-08-28T17:52:27Z</time>
  <course>88.82</course>
  <speed>4.241697773297857</speed>
  <fix>3d</fix>
</trkpt>
<trkpt lat="40.0713692" lon="-105.2296949">
  <ele>1583.0</ele>
  <time>2026-08-28T17:52:27Z</time>
  <course>88.21</course>
  <speed>3.95</speed>
  <fix>3d</fix>
</trkpt>
<trkpt lat="40.0713696" lon="-105.2296768">
  <ele>1583.11</ele>
  <time>2026-08-28T17:52:27Z</time>
  <course>88.76</course>
  <speed>4.341946568072896</speed>
  <fix>3d</fix>
</trkpt>
<trkpt lat="40.0713693" lon="-105.2296853">
  <ele>1583.0</ele>
  <time>2026-08-28T17:52:27Z</time>
  <course>88.1</course>
  <speed>4.17</speed>
  <fix>3d</fix>
</trkpt>
<trkpt lat="40.0713697" lon="-105.2296717">
  <ele>1583.11</ele>
  <time>2026-08-28T17:52:27Z</time>
  <course>88.7</course>
  <speed>4.44190274544592</speed>
  <fix>3d</fix>
</trkpt>
<trkpt lat="40.0713693" lon="-105.2296853">
  <ele>1583.0</ele>
  <time>2026-08-28T17:52:27Z</time>
  <course>88.1</course>
  <speed>4.17</speed>
  <fix>3d</fix>
</trkpt>
<trkpt lat="40.0713698" lon="-105.2296664">
  <ele>1583.11</ele>
  <time>2026-08-28T17:52:27Z</time>
  <course>88.67</course>
  <speed>4.542158077390086</speed>
  <fix>3d</fix>
</trkpt>
<trkpt lat="40.0713696" lon="-105.2296753">
  <ele>1583.0</ele>
  <time>2026-08-28T17:52:27Z</time>
  <course>87.99</course>
  <speed>4.38</speed>
  <fix>3d</fix>
</trkpt>
<trkpt lat="40.07137" lon="-105.229661">
  <ele>1583.11</ele>
  <time>2026-08-28T17:52:27Z</time>
  <course>88.63</course>
  <speed>4.62212072538137</speed>
  <fix>3d</fix>
</trkpt>
<trkpt lat="40.0713696" lon="-105.2296753">
  <ele>1583.0</ele>
  <time>2026-08-28T17:52:27Z</time>
  <course>87.99</course>
  <speed>4.38</speed>
  <fix>3d</fix>
</trkpt>
<trkpt lat="40.0713701" lon="-105.2296556">
  <ele>1583.11</ele>
  <time>2026-08-28T17:52:27Z</time>
  <course>88.63</course>
  <speed>4.702393007820593</speed>
  <fix>3d</fix>
</trkpt>
<trkpt lat="40.0713699" lon="-105.2296648">
  <ele>1583.0</ele>
  <time>2026-08-28T17:52:27Z</time>
  <course>87.91</course>
  <speed>4.56</speed>
  <fix>3d</fix>
</trkpt>
<trkpt lat="40.0713702" lon="-105.22965">
  <ele>1583.12</ele>
  <time>2026-08-28T17:52:27Z</time>
  <course>88.62</course>
  <speed>4.772357907785207</speed>
  <fix>3d</fix>
</trkpt>
<trkpt lat="40.0713699" lon="-105.2296648">
  <ele>1583.0</ele>
  <time>2026-08-28T17:52:27Z</time>
  <course>87.91</course>
  <speed>4.56</speed>
  <fix>3d</fix>
</trkpt>
<trkpt lat="40.0713704" lon="-105.2296444">
  <ele>1583.11</ele>
  <time>2026-08-28T17:52:27Z</time>
  <course>88.62</course>
  <speed>4.842323822298546</speed>
  <fix>3d</fix>
</trkpt>
<trkpt lat="40.0713702" lon="-105.2296539">
  <ele>1583.0</ele>
  <time>2026-08-28T17:52:27Z</time>
  <course>87.88</course>
  <speed>4.72</speed>
  <fix>3d</fix>
</trkpt>
<trkpt lat="40.0713705" lon="-105.2296387">
  <ele>1583.11</ele>
  <time>2026-08-28T17:52:27Z</time>
  <course>88.62</course>
  <speed>4.902295380737477</speed>
  <fix>3d</fix>
</trkpt>
<trkpt lat="40.0713702" lon="-105.2296539">
  <ele>1583.0</ele>
  <time>2026-08-28T17:52:27Z</time>
  <course>87.88</course>
  <speed>4.72</speed>
  <fix>3d</fix>
</trkpt>
<trkpt lat="40.0713707" lon="-105.2296329">
  <ele>1583.11</ele>
  <time>2026-08-28T17:52:27Z</time>
  <course>88.61</course>
  <speed>4.9522722057657536</speed>
  <fix>3d</fix>
</trkpt>
<trkpt lat="40.0713705" lon="-105.2296427">
  <ele>1583.0</ele>
  <time>2026-08-28T17:52:27Z</time>
  <course>87.88</course>
  <speed>4.85</speed>
  <fix>3d</fix>
</trkpt>
<trkpt lat="40.0713708" lon="-105.2296271">
  <ele>1583.11</ele>
  <time>2026-08-28T17:52:27Z</time>
  <course>88.61</course>
  <speed>4.992564471291282</speed>
  <fix>3d</fix>
</trkpt>
<trkpt lat="40.0713705" lon="-105.2296427">
  <ele>1583.0</ele>
  <time>2026-08-28T17:52:27Z</time>
  <course>87.88</course>
  <speed>4.85</speed>
  <fix>3d</fix>
</trkpt>
<trkpt lat="40.071371" lon="-105.2296211">
  <ele>1583.11</ele>
  <time>2026-08-28T17:52:27Z</time>
  <course>88.6</course>
  <speed>5.02254915356734</speed>
  <fix>3d</fix>
</trkpt>
<trkpt lat="40.0713709" lon="-105.2296311">
  <ele>1583.0</ele>
  <time>2026-08-28T17:52:27Z</time>
  <course>87.88</course>
  <speed>4.95</speed>
  <fix>3d</fix>
</trkpt>
<trkpt lat="40.0713711" lon="-105.2296152">
  <ele>1583.11</ele>
  <time>2026-08-28T17:52:27Z</time>
  <course>88.6</course>
  <speed>5.042539042982216</speed>
  <fix>3d</fix>
</trkpt>
<trkpt lat="40.0713709" lon="-105.2296311">
  <ele>1583.0</ele>
  <time>2026-08-28T17:52:27Z</time>
  <course>87.88</course>
  <speed>4.95</speed>
  <fix>3d</fix>
</trkpt>
<trkpt lat="40.0713713" lon="-105.2296092">
  <ele>1583.11</ele>
  <time>2026-08-28T17:52:27Z</time>
  <course>88.6</course>
  <speed>5.052534017698446</speed>
  <fix>3d</fix>
</trkpt>
<trkpt lat="40.0713712" lon="-105.2296194">
  <ele>1583.0</ele>
  <time>2026-08-28T17:52:27Z</time>
  <course>87.88</course>
  <speed>5.01</speed>
  <fix>3d</fix>
</trkpt>
<trkpt lat="40.0713715" lon="-105.2296032">
  <ele>1583.11</ele>
  <time>2026-08-28T17:52:27Z</time>
  <course>88.59</course>
  <speed>5.052534017698446</speed>
  <fix>3d</fix>
</trkpt>
<trkpt lat="40.0713712" lon="-105.2296194">
  <ele>1583.0</ele>
  <time>2026-08-28T17:52:27Z</time>
  <course>87.88</course>
  <speed>5.01</speed>
  <fix>3d</fix>
</trkpt>
<trkpt lat="40.0713716" lon="-105.2295973">
  <ele>1583.11</ele>
  <time>2026-08-28T17:52:27Z</time>
  <course>88.59</course>
  <speed>5.042539042982216</speed>
  <fix>3d</fix>
</trkpt>
<trkpt lat="40.0713716" lon="-105.2296076">
  <ele>1583.0</ele>
  <time>2026-08-28T17:52:27Z</time>
  <course>87.88</course>
  <speed>5.03</speed>
  <fix>3d</fix>
</trkpt>
<trkpt lat="40.0713718" lon="-105.2295913">
  <ele>1583.11</ele>
  <time>2026-08-28T17:52:27Z</time>
  <course>88.59</course>
  <speed>5.0125542391080415</speed>
  <fix>3d</fix>
</trkpt>
<trkpt lat="40.0713716" lon="-105.2296076">
  <ele>1583.0</ele>
  <time>2026-08-28T17:52:27Z</time>
  <course>87.88</course>
  <speed>5.03</speed>
  <fix>3d</fix>
</trkpt>
<trkpt lat="40.071372" lon="-105.2295855">
  <ele>1583.12</ele>
  <time>2026-08-28T17:52:27Z</time>
  <course>88.59</course>
  <speed>4.972574785762402</speed>
  <fix>3d</fix>
</trkpt>
<trkpt lat="40.0713719" lon="-105.2295958">
  <ele>1583.0</ele>
  <time>2026-08-28T17:52:27Z</time>
  <course>87.88</course>
  <speed>5.0</speed>
  <fix>3d</fix>
</trkpt>
<trkpt lat="40.0713722" lon="-105.2295796">
  <ele>1583.12</ele>
  <time>2026-08-28T17:52:27Z</time>
  <course>88.59</course>
  <speed>4.922600938528331</speed>
  <fix>3d</fix>
</trkpt>
<trkpt lat="40.0713719" lon="-105.2295958">
  <ele>1583.0</ele>
  <time>2026-08-28T17:52:27Z</time>
  <course>87.88</course>
  <speed>5.0</speed>
  <fix>3d</fix>
</trkpt>
<trkpt lat="40.0713723" lon="-105.2295739">
  <ele>1583.12</ele>
  <time>2026-08-28T17:52:27Z</time>
  <course>88.59</course>
  <speed>4.8626330315992385</speed>
  <fix>3d</fix>
</trkpt>
<trkpt lat="40.0713722" lon="-105.2295842">
  <ele>1583.0</ele>
  <time>2026-08-28T17:52:27Z</time>
  <course>87.88</course>
  <speed>4.92</speed>
  <fix>3d</fix>
</trkpt>
<trkpt lat="40.0713725" lon="-105.2295683">
  <ele>1583.13</ele>
  <time>2026-08-28T17:52:27Z</time>
  <course>88.6</course>
  <speed>4.782677074609993</speed>
  <fix>3d</fix>
</trkpt>
<trkpt lat="40.0713722" lon="-105.2295842">
  <ele>1583.0</ele>
  <time>2026-08-28T17:52:27Z</time>
  <course>87.88</course>
  <speed>4.92</speed>
  <fix>3d</fix>
</trkpt>
<trkpt lat="40.0713726" lon="-105.2295627">
  <ele>1583.13</ele>
  <time>2026-08-28T17:52:27Z</time>
  <course>88.6</course>
  <speed>4.702722615677008</speed>
  <fix>3d</fix>
</trkpt>
<trkpt lat="40.0713725" lon="-105.2295728">
  <ele>1583.0</ele>
  <time>2026-08-28T17:52:27Z</time>
  <course>87.88</course>
  <speed>4.79</speed>
  <fix>3d</fix>
</trkpt>
<trkpt lat="40.0713728" lon="-105.2295573">
  <ele>1583.13</ele>
  <time>2026-08-28T17:52:27Z</time>
  <course>88.6</course>
  <speed>4.612775737015621</speed>
  <fix>3d</fix>
</trkpt>
<trkpt lat="40.0713725" lon="-105.2295728">
  <ele>1583.0</ele>
  <time>2026-08-28T17:52:27Z</time>
  <course>87.88</course>
  <speed>4.79</speed>
  <fix>3d</fix>
</trkpt>
<trkpt lat="40.071373" lon="-105.229552">
  <ele>1583.13</ele>
  <time>2026-08-28T17:52:27Z</time>
  <course>88.61</course>
  <speed>4.512837245015601</speed>
  <fix>3d</fix>
</trkpt>
<trkpt lat="40.0713728" lon="-105.2295617">
  <ele>1583.0</ele>
  <time>2026-08-28T17:52:27Z</time>
  <course>87.88</course>
  <speed>4.63</speed>
  <fix>3d</fix>
</trkpt>
<trkpt lat="40.0713731" lon="-105.2295469">
  <ele>1583.14</ele>
  <time>2026-08-28T17:52:27Z</time>
  <course>88.61</course>
  <speed>4.402908129861444</speed>
  <fix>3d</fix>
</trkpt>
<trkpt lat="40.0713728" lon="-105.2295617">
  <ele>1583.0</ele>
  <time>2026-08-28T17:52:27Z</time>
  <course>87.88</course>
  <speed>4.63</speed>
  <fix>3d</fix>
</trkpt>
<trkpt lat="40.0713733" lon="-105.2295419">
  <ele>1583.14</ele>
  <time>2026-08-28T17:52:27Z</time>
  <course>88.62</course>
  <speed>4.292621576612595</speed>
  <fix>3d</fix>
</trkpt>
<trkpt lat="40.0713731" lon="-105.2295511">
  <ele>1583.0</ele>
  <time>2026-08-28T17:52:27Z</time>
  <course>87.88</course>
  <speed>4.44</speed>
  <fix>3d</fix>
</trkpt>
<trkpt lat="40.0713734" lon="-105.229537">
  <ele>1583.14</ele>
  <time>2026-08-28T17:52:27Z</time>
  <course>88.63</course>
  <speed>4.172696969586936</speed>
  <fix>3d</fix>
</trkpt>
<trkpt lat="40.0713731" lon="-105.2295511">
  <ele>1583.0</ele>
  <time>2026-08-28T17:52:27Z</time>
  <course>87.88</course>
  <speed>4.44</speed>
  <fix>3d</fix>
</trkpt>
<trkpt lat="40.0713735" lon="-105.2295322">
  <ele>1583.14</ele>
  <time>2026-08-28T17:52:27Z</time>
  <course>88.63</course>
  <speed>4.042783694436298</speed>
  <fix>3d</fix>
</trkpt>
<trkpt lat="40.0713734" lon="-105.2295409">
  <ele>1583.0</ele>
  <time>2026-08-28T17:52:27Z</time>
  <course>87.88</course>
  <speed>4.22</speed>
  <fix>3d</fix>
</trkpt>
<trkpt lat="40.0713737" lon="-105.2295276">
  <ele>1583.14</ele>
  <time>2026-08-28T17:52:27Z</time>
  <course>88.63</course>
  <speed>3.9128761799985443</speed>
  <fix>3d</fix>
</trkpt>
<trkpt lat="40.0713734" lon="-105.2295409">
  <ele>1583.0</ele>
  <time>2026-08-28T17:52:27Z</time>
  <course>87.88</course>
  <speed>4.22</speed>
  <fix>3d</fix>
</trkpt>
<trkpt lat="40.0713738" lon="-105.2295231">
  <ele>1583.15</ele>
  <time>2026-08-28T17:52:27Z</time>
  <course>88.63</course>
  <speed>3.782591704109763</speed>
  <fix>3d</fix>
</trkpt>
<trkpt lat="40.0713737" lon="-105.2295312">
  <ele>1583.0</ele>
  <time>2026-08-28T17:52:27Z</time>
  <course>87.88</course>
  <speed>3.98</speed>
  <fix>3d</fix>
</trkpt>
<trkpt lat="40.071374" lon="-105.2295188">
  <ele>1583.15</ele>
  <time>2026-08-28T17:52:27Z</time>
  <course>88.64</course>
  <speed>3.652683944717911</speed>
  <fix>3d</fix>
</trkpt>
<trkpt lat="40.0713737" lon="-105.2295312">
  <ele>1583.0</ele>
  <time>2026-08-28T17:52:27Z</time>
  <course>87.88</course>
  <speed>3.98</speed>
  <fix>3d</fix>
</trkpt>
<trkpt lat="40.0713741" lon="-105.2295146">
  <ele>1583.15</ele>
  <time>2026-08-28T17:52:27Z</time>
  <course>88.63</course>
  <speed>3.5227829907617076</speed>
  <fix>3d</fix>
</trkpt>
<trkpt lat="40.071374" lon="-105.2295222">
  <ele>1583.0</ele>
  <time>2026-08-28T17:52:27Z</time>
  <course>87.88</course>
  <speed>3.72</speed>
  <fix>3d</fix>
</trkpt>
<trkpt lat="40.0713742" lon="-105.2295106">
  <ele>1583.15</ele>
  <time>2026-08-28T17:52:27Z</time>
  <course>88.63</course>
  <speed>3.3824990761269986</speed>
  <fix>3d</fix>
</trkpt>
<trkpt lat="40.071374" lon="-105.2295222">
  <ele>1583.0</ele>
  <time>2026-08-28T17:52:27Z</time>
  <course>87.88</course>
  <speed>3.72</speed>
  <fix>3d</fix>
</trkpt>
<trkpt lat="40.0713744" lon="-105.2295067">
  <ele>1583.15</ele>
  <time>2026-08-28T17:52:27Z</time>
  <course>88.63</course>
  <speed>3.2525989608311687</speed>
  <fix>3d</fix>
</trkpt>
<trkpt lat="40.0713742" lon="-105.2295138">
  <ele>1583.0</ele>
  <time>2026-08-28T17:52:27Z</time>
  <course>87.88</course>
  <speed>3.46</speed>
  <fix>3d</fix>
</trkpt>
<trkpt lat="40.0713745" lon="-105.229503">
  <ele>1583.15</ele>
  <time>2026-08-28T17:52:27Z</time>
  <course>88.63</course>
  <speed>3.112715855968868</speed>
  <fix>3d</fix>
</trkpt>
<trkpt lat="40.0713742" lon="-105.2295138">
  <ele>1583.0</ele>
  <time>2026-08-28T17:52:27Z</time>
  <course>87.88</course>
  <speed>3.46</speed>
  <fix>3d</fix>
</trkpt>
<trkpt lat="40.0713746" lon="-105.2294994">
  <ele>1583.15</ele>
  <time>2026-08-28T17:52:27Z</time>
  <course>88.63</course>
  <speed>2.9824151287169935</speed>
  <fix>3d</fix>
</trkpt>
<trkpt lat="40.0713745" lon="-105.2295059">
  <ele>1583.0</ele>
  <time>2026-08-28T17:52:27Z</time>
  <course>87.88</course>
  <speed>3.2</speed>
  <fix>3d</fix>
</trkpt>
<trkpt lat="40.0713747" lon="-105.229496">
  <ele>1583.14</ele>
  <time>2026-08-28T17:52:27Z</time>
  <course>88.63</course>
  <speed>2.8525251970841556</speed>
  <fix>3d</fix>
</trkpt>
<trkpt lat="40.0713745" lon="-105.2295059">
  <ele>1583.0</ele>
  <time>2026-08-28T17:52:27Z</time>
  <course>87.88</course>
  <speed>3.2</speed>
  <fix>3d</fix>
</trkpt>
<trkpt lat="40.0713748" lon="-105.2294927">
  <ele>1583.14</ele>
  <time>2026-08-28T17:52:27Z</time>
  <course>88.63</course>
  <speed>2.7326360899322104</speed>
  <fix>3d</fix>
</trkpt>
<trkpt lat="40.0713747" lon="-105.2294987">
  <ele>1583.0</ele>
  <time>2026-08-28T17:52:27Z</time>
  <course>87.88</course>
  <speed>2.94</speed>
  <fix>3d</fix>
</trkpt>
<trkpt lat="40.0713749" lon="-105.2294896">
  <ele>1583.14</ele>
  <time>2026-08-28T17:52:27Z</time>
  <course>88.63</course>
  <speed>2.6027677575995902</speed>
  <fix>3d</fix>
</trkpt>
<trkpt lat="40.0713747" lon="-105.2294987">
  <ele>1583.0</ele>
  <time>2026-08-28T17:52:27Z</time>
  <course>87.88</course>
  <speed>2.94</speed>
  <fix>3d</fix>
</trkpt>
<trkpt lat="40.071375" lon="-105.2294866">
  <ele>1583.13</ele>
  <time>2026-08-28T17:52:27Z</time>
  <course>88.63</course>
  <speed>2.482438317461282</speed>
  <fix>3d</fix>
</trkpt>
<trkpt lat="40.0713748" lon="-105.2294921">
  <ele>1583.0</ele>
  <time>2026-08-28T17:52:27Z</time>
  <course>87.88</course>
  <speed>2.69</speed>
  <fix>3d</fix>
</trkpt>
<trkpt lat="40.0713751" lon="-105.2294838">
  <ele>1583.13</ele>
  <time>2026-08-28T17:52:27Z</time>
  <course>88.66</course>
  <speed>2.3625621684941964</speed>
  <fix>3d</fix>
</trkpt>
<trkpt lat="40.0713748" lon="-105.2294921">
  <ele>1583.0</ele>
  <time>2026-08-28T17:52:27Z</time>
  <course>87.88</course>
  <speed>2.69</speed>
  <fix>3d</fix>
</trkpt>
<trkpt lat="40.0713752" lon="-105.2294811">
  <ele>1583.13</ele>
  <time>2026-08-28T17:52:27Z</time>
  <course>88.69</course>
  <speed>2.242231031807383</speed>
  <fix>3d</fix>
</trkpt>
<trkpt lat="40.0713749" lon="-105.2294861">
  <ele>1583.0</ele>
  <time>2026-08-28T17:52:27Z</time>
  <course>87.91</course>
  <speed>2.45</speed>
  <fix>3d</fix>
</trkpt>
<trkpt lat="40.0713753" lon="-105.2294786">
  <ele>1583.13</ele>
  <time>2026-08-28T17:52:27Z</time>
  <course>88.71</course>
  <speed>2.1323461257497573</speed>
  <fix>3d</fix>
</trkpt>
<trkpt lat="40.0713749" lon="-105.2294861">
  <ele>1583.0</ele>
  <time>2026-08-28T17:52:27Z</time>
  <course>87.91</course>
  <speed>2.45</speed>
  <fix>3d</fix>
</trkpt>
<trkpt lat="40.0713753" lon="-105.2294762">
  <ele>1583.13</ele>
  <time>2026-08-28T17:52:27Z</time>
  <course>88.74</course>
  <speed>2.0120139164528656</speed>
  <fix>3d</fix>
</trkpt>
<trkpt lat="40.0713751" lon="-105.2294805">
  <ele>1583.0</ele>
  <time>2026-08-28T17:52:27Z</time>
  <course>87.97</course>
  <speed>2.22</speed>
  <fix>3d</fix>
</trkpt>
<trkpt lat="40.0713754" lon="-105.2294739">
  <ele>1583.13</ele>
  <time>2026-08-28T17:52:27Z</time>
  <course>88.76</course>
  <speed>1.9021303845951254</speed>
  <fix>3d</fix>
</trkpt>
<trkpt lat="40.0713751" lon="-105.2294805">
  <ele>1583.0</ele>
  <time>2026-08-28T17:52:27Z</time>
  <course>87.97</course>
  <speed>2.22</speed>
  <fix>3d</fix>
</trkpt>
<trkpt lat="40.0713755" lon="-105.2294717">
  <ele>1583.13</ele>
  <time>2026-08-28T17:52:27Z</time>
  <course>88.78</course>
  <speed>1.8017769007288333</speed>
  <fix>3d</fix>
</trkpt>
<trkpt lat="40.0713753" lon="-105.2294756">
  <ele>1583.0</ele>
  <time>2026-08-28T17:52:27Z</time>
  <course>88.02</course>
  <speed>2.0</speed>
  <fix>3d</fix>
</trkpt>
<trkpt lat="40.0713755" lon="-105.2294697">
  <ele>1583.13</ele>
  <time>2026-08-28T17:52:27Z</time>
  <course>88.81</course>
  <speed>1.691892431568863</speed>
  <fix>3d</fix>
</trkpt>
<trkpt lat="40.0713753" lon="-105.2294756">
  <ele>1583.0</ele>
  <time>2026-08-28T17:52:27Z</time>
  <course>88.02</course>
  <speed>2.0</speed>
  <fix>3d</fix>
</trkpt>
<trkpt lat="40.0713756" lon="-105.2294678">
  <ele>1583.13</ele>
  <time>2026-08-28T17:52:27Z</time>
  <course>88.85</course>
  <speed>1.5915401345866211</speed>
  <fix>3d</fix>
</trkpt>
<trkpt lat="40.0713754" lon="-105.2294711">
  <ele>1583.0</ele>
  <time>2026-08-28T17:52:27Z</time>
  <course>88.08</course>
  <speed>1.79</speed>
  <fix>3d</fix>
</trkpt>
<trkpt lat="40.0713756" lon="-105.229466">
  <ele>1583.13</ele>
  <time>2026-08-28T17:52:27Z</time>
  <course>88.89</course>
  <speed>1.49164338901763</speed>
  <fix>3d</fix>
</trkpt>
<trkpt lat="40.0713754" lon="-105.2294711">
  <ele>1583.0</ele>
  <time>2026-08-28T17:52:27Z</time>
  <course>88.08</course>
  <speed>1.79</speed>
  <fix>3d</fix>
</trkpt>
<trkpt lat="40.0713757" lon="-105.2294643">
  <ele>1583.14</ele>
  <time>2026-08-28T17:52:27Z</time>
  <course>88.92</course>
  <speed>1.391294361377203</speed>
  <fix>3d</fix>
</trkpt>
<trkpt lat="40.0713755" lon="-105.2294672">
  <ele>1583.0</ele>
  <time>2026-08-28T17:52:27Z</time>
  <course>88.16</course>
  <speed>1.59</speed>
  <fix>3d</fix>
</trkpt>
<trkpt lat="40.0713757" lon="-105.2294627">
  <ele>1583.13</ele>
  <time>2026-08-28T17:52:27Z</time>
  <course>88.96</course>
  <speed>1.291394595001853</speed>
  <fix>3d</fix>
</trkpt>
<trkpt lat="40.0713755" lon="-105.2294672">
  <ele>1583.0</ele>
  <time>2026-08-28T17:52:27Z</time>
  <course>88.16</course>
  <speed>1.59</speed>
  <fix>3d</fix>
</trkpt>
<trkpt lat="40.0713757" lon="-105.2294612">
  <ele>1583.13</ele>
  <time>2026-08-28T17:52:27Z</time>
  <course>89.01</course>
  <speed>1.1910499569707393</speed>
  <fix>3d</fix>
</trkpt>
<trkpt lat="40.0713755" lon="-105.2294637">
  <ele>1583.0</ele>
  <time>2026-08-28T17:52:27Z</time>
  <course>88.25</course>
  <speed>1.39</speed>
  <fix>3d</fix>
</trkpt>
<trkpt lat="40.0713758" lon="-105.2294599">
  <ele>1583.13</ele>
  <time>2026-08-28T17:52:27Z</time>
  <course>89.05</course>
  <speed>1.101135777277262</speed>
  <fix>3d</fix>
</trkpt>
<trkpt lat="40.0713755" lon="-105.2294637">
  <ele>1583.0</ele>
  <time>2026-08-28T17:52:27Z</time>
  <course>88.25</course>
  <speed>1.39</speed>
  <fix>3d</fix>
</trkpt>
<trkpt lat="40.0713758" lon="-105.2294586">
  <ele>1583.13</ele>
  <time>2026-08-28T17:52:27Z</time>
  <course>89.1</course>
  <speed>1.0012492197250393</speed>
  <fix>3d</fix>
</trkpt>
<trkpt lat="40.0713756" lon="-105.2294607">
  <ele>1583.0</ele>
  <time>2026-08-28T17:52:27Z</time>
  <course>88.34</course>
  <speed>1.2</speed>
  <fix>3d</fix>
</trkpt>
<trkpt lat="40.0713758" lon="-105.2294575">
  <ele>1583.13</ele>
  <time>2026-08-28T17:52:27Z</time>
  <course>89.15</course>
  <speed>0.9108786966440703</speed>
  <fix>3d</fix>
</trkpt>
<trkpt lat="40.0713756" lon="-105.2294607">
  <ele>1583.0</ele>
  <time>2026-08-28T17:52:27Z</time>
  <course>88.34</course>
  <speed>1.2</speed>
  <fix>3d</fix>
</trkpt>
<trkpt lat="40.0713758" lon="-105.2294564">
  <ele>1583.13</ele>
  <time>2026-08-28T17:52:27Z</time>
  <course>89.2</course>
  <speed>0.8109870529176159</speed>
  <fix>3d</fix>
</trkpt>
<trkpt lat="40.0713757" lon="-105.229458">
  <ele>1583.0</ele>
  <time>2026-08-28T17:52:27Z</time>
  <course>88.45</course>
  <speed>1.01</speed>
  <fix>3d</fix>
</trkpt>
<trkpt lat="40.0713758" lon="-105.2294555">
  <ele>1583.13</ele>
  <time>2026-08-28T17:52:27Z</time>
  <course>89.24</course>
  <speed>0.7206247289678588</speed>
  <fix>3d</fix>
</trkpt>
<trkpt lat="40.0713757" lon="-105.229458">
  <ele>1583.0</ele>
  <time>2026-08-28T17:52:27Z</time>
  <course>88.45</course>
  <speed>1.01</speed>
  <fix>3d</fix>
</trkpt>
<trkpt lat="40.0713759" lon="-105.2294547">
  <ele>1583.13</ele>
  <time>2026-08-28T17:52:27Z</time>
  <course>89.27</course>
  <speed>0.6207253821135398</speed>
  <fix>3d</fix>
</trkpt>
<trkpt lat="40.0713758" lon="-105.2294559">
  <ele>1583.0</ele>
  <time>2026-08-28T17:52:27Z</time>
  <course>88.55</course>
  <speed>0.82</speed>
  <fix>3d</fix>
</trkpt>
<trkpt lat="40.0713759" lon="-105.2294539">
  <ele>1583.13</ele>
  <time>2026-08-28T17:52:27Z</time>
  <course>89.29</course>
  <speed>0.5308483775994799</speed>
  <fix>3d</fix>
</trkpt>
<trkpt lat="40.0713758" lon="-105.2294559">
  <ele>1583.0</ele>
  <time>2026-08-28T17:52:27Z</time>
  <course>88.55</course>
  <speed>0.82</speed>
  <fix>3d</fix>
</trkpt>
<trkpt lat="40.0713759" lon="-105.2294534">
  <ele>1583.13</ele>
  <time>2026-08-28T17:52:27Z</time>
  <course>89.31</course>
  <speed>0.4304648650006177</speed>
  <fix>3d</fix>
</trkpt>
<trkpt lat="40.0713758" lon="-105.2294542">
  <ele>1583.0</ele>
  <time>2026-08-28T17:52:27Z</time>
  <course>88.62</course>
  <speed>0.63</speed>
  <fix>3d</fix>
</trkpt>
<trkpt lat="40.0713759" lon="-105.2294529">
  <ele>1583.13</ele>
  <time>2026-08-28T17:52:27Z</time>
  <course>89.32</course>
  <speed>0.34058772731852804</speed>
  <fix>3d</fix>
</trkpt>
<trkpt lat="40.0713758" lon="-105.2294542">
  <ele>1583.0</ele>
  <time>2026-08-28T17:52:27Z</time>
  <course>88.62</course>
  <speed>0.63</speed>
  <fix>3d</fix>
</trkpt>
<trkpt lat="40.0713759" lon="-105.2294525">
  <ele>1583.13</ele>
  <time>2026-08-28T17:52:27Z</time>
  <course>89.32</course>
  <speed>0.24083189157584592</speed>
  <fix>3d</fix>
</trkpt>
<trkpt lat="40.0713758" lon="-105.2294529">
  <ele>1583.0</ele>
  <time>2026-08-28T17:52:27Z</time>
  <course>88.66</course>
  <speed>0.44</speed>
  <fix>3d</fix>
</trkpt>
<trkpt lat="40.0713759" lon="-105.2294522">
  <ele>1583.13</ele>
  <time>2026-08-28T17:52:27Z</time>
  <course>89.32</course>
  <speed>0.1414213562373095</speed>
  <fix>3d</fix>
</trkpt>
<trkpt lat="40.0713758" lon="-105.2294529">
  <ele>1583.0</ele>
  <time>2026-08-28T17:52:27Z</time>
  <course>88.66</course>
  <speed>0.44</speed>
  <fix>3d</fix>
</trkpt>
<trkpt lat="40.0713759" lon="-105.2294521">
  <ele>1583.13</ele>
  <time>2026-08-28T17:52:27Z</time>
  <course>89.32</course>
  <speed>0.05099019513592785</speed>
  <fix>3d</fix>
</trkpt>
<trkpt lat="40.0713758" lon="-105.2294522">
  <ele>1583.0</ele>
  <time>2026-08-28T17:52:27Z</time>
  <course>88.68</course>
  <speed>0.24</speed>
  <fix>3d</fix>
</trkpt>
<trkpt lat="40.0713759" lon="-105.2294521">
  <ele>1583.13</ele>
  <time>2026-08-28T17:52:27Z</time>
  <course>89.32</course>
  <speed>0.0316227766016838</speed>
  <fix>3d</fix>
</trkpt>
<trkpt lat="40.0713758" lon="-105.2294522">
  <ele>1583.0</ele>
  <time>2026-08-28T17:52:27Z</time>
  <course>88.68</course>
  <speed>0.24</speed>
  <fix>3d</fix>
</trkpt>
<trkpt lat="40.0713759" lon="-105.2294521">
  <ele>1583.13</ele>
  <time>2026-08-28T17:52:27Z</time>
  <course>89.31</course>
  <speed>0.1004987562112089</speed>
  <fix>3d</fix>
</trkpt>
<trkpt lat="40.0713758" lon="-105.2294517">
  <ele>1583.0</ele>
  <time>2026-08-28T17:52:27Z</time>
  <course>88.69</course>
  <speed>0.06</speed>
  <fix>3d</fix>
</trkpt>
<trkpt lat="40.0713759" lon="-105.2294522">
  <ele>1583.12</ele>
  <time>2026-08-28T17:52:27Z</time>
  <course>89.31</course>
  <speed>0.140356688476182</speed>
  <fix>3d</fix>
</trkpt>
<trkpt lat="40.0713758" lon="-105.2294517">
  <ele>1583.0</ele>
  <time>2026-08-28T17:52:27Z</time>
  <course>88.69</course>
  <speed>0.06</speed>
  <fix>3d</fix>
</trkpt>
<trkpt lat="40.0713759" lon="-105.2294524">
  <ele>1583.12</ele>
  <time>2026-08-28T17:52:27Z</time>
  <course>89.3</course>
  <speed>0.17</speed>
  <fix>3d</fix>
</trkpt>
<trkpt lat="40.0713758" lon="-105.2294517">
  <ele>1583.0</ele>
  <time>2026-08-28T17:52:27Z</time>
  <course>268.68</course>
  <speed>0.06</speed>
  <fix>3d</fix>
</trkpt>
<trkpt lat="40.0713759" lon="-105.2294524">
  <ele>1583.12</ele>
  <time>2026-08-28T17:52:27Z</time>
  <course>89.29</course>
  <speed>0.19</speed>
  <fix>3d</fix>
</trkpt>
<trkpt lat="40.0713758" lon="-105.2294517">
  <ele>1583.0</ele>
  <time>2026-08-28T17:52:27Z</time>
  <course>268.68</course>
  <speed>0.06</speed>
  <fix>3d</fix>
</trkpt>
<trkpt lat="40.0713759" lon="-105.2294526">
  <ele>1583.12</ele>
  <time>2026-08-28T17:52:27Z</time>
  <course>89.28</course>
  <speed>0.18</speed>
  <fix>3d</fix>
</trkpt>
<trkpt lat="40.0713758" lon="-105.229452">
  <ele>1583.0</ele>
  <time>2026-08-28T17:52:27Z</time>
  <course>268.68</course>
  <speed>0.12</speed>
  <fix>3d</fix>
</trkpt>
<trkpt lat="40.0713759" lon="-105.2294528">
  <ele>1583.11</ele>
  <time>2026-08-28T17:52:27Z</time>
  <course>89.27</course>
  <speed>0.16</speed>
  <fix>3d</fix>
</trkpt>
<trkpt lat="40.0713758" lon="-105.229452">
  <ele>1583.0</ele>
  <time>2026-08-28T17:52:27Z</time>
  <course>268.68</course>
  <speed>0.12</speed>
  <fix>3d</fix>
</trkpt>
<trkpt lat="40.0713759" lon="-105.2294529">
  <ele>1583.11</ele>
  <time>2026-08-28T17:52:27Z</time>
  <course>89.26</course>
  <speed>0.13</speed>
  <fix>3d</fix>
</trkpt>
<trkpt lat="40.0713758" lon="-105.2294522">
  <ele>1583.0</ele>
  <time>2026-08-28T17:52:27Z</time>
  <course>268.67</course>
  <speed>0.11</speed>
  <fix>3d</fix>
</trkpt>
<trkpt lat="40.0713759" lon="-105.229453">
  <ele>1583.11</ele>
  <time>2026-08-28T17:52:27Z</time>
  <course>89.25</course>
  <speed>0.08</speed>
  <fix>3d</fix>
</trkpt>
<trkpt lat="40.0713758" lon="-105.2294522">
  <ele>1583.0</ele>
  <time>2026-08-28T17:52:27Z</time>
  <course>268.67</course>
  <speed>0.11</speed>
  <fix>3d</fix>
</trkpt>
<trkpt lat="40.0713759" lon="-105.229453">
  <ele>1583.1</ele>
  <time>2026-08-28T17:52:27Z</time>
  <course>89.25</course>
  <speed>0.01</speed>
  <fix>3d</fix>
</trkpt>
<trkpt lat="40.0713758" lon="-105.2294524">
  <ele>1583.0</ele>
  <time>2026-08-28T17:52:27Z</time>
  <course>268.66</course>
  <speed>0.04</speed>
  <fix>3d</fix>
</trkpt>
<trkpt lat="40.0713759" lon="-105.2294529">
  <ele>1583.1</ele>
  <time>2026-08-28T17:52:27Z</time>
  <course>89.25</course>
  <speed>0.05</speed>
  <fix>3d</fix>
</trkpt>
<trkpt lat="40.0713758" lon="-105.2294524">
  <ele>1583.0</ele>
  <time>2026-08-28T17:52:27Z</time>
  <course>268.66</course>
  <speed>0.04</speed>
  <fix>3d</fix>
</trkpt>
<trkpt lat="40.0713759" lon="-105.2294528">
  <ele>1583.1</ele>
  <time>2026-08-28T17:52:27Z</time>
  <course>89.23</course>
  <speed>0.14</speed>
  <fix>3d</fix>
</trkpt>
<trkpt lat="40.0713758" lon="-105.2294524">
  <ele>1583.0</ele>
  <time>2026-08-28T17:52:27Z</time>
  <course>88.64</course>
  <speed>0.07</speed>
  <fix>3d</fix>
</trkpt>
<trkpt lat="40.0713759" lon="-105.2294525">
  <ele>1583.1</ele>
  <time>2026-08-28T17:52:27Z</time>
  <course>89.19</course>
  <speed>0.23</speed>
  <fix>3d</fix>
</trkpt>
<trkpt lat="40.0713758" lon="-105.2294524">
  <ele>1583.0</ele>
  <time>2026-08-28T17:52:27Z</time>
  <course>88.64</course>
  <speed>0.07</speed>
  <fix>3d</fix>
</trkpt>
<trkpt lat="40.0713759" lon="-105.2294521">
  <ele>1583.11</ele>
  <time>2026-08-28T17:52:27Z</time>
  <course>89.14</course>
  <speed>0.33</speed>
  <fix>3d</fix>
</trkpt>
<trkpt lat="40.0713758" lon="-105.2294521">
  <ele>1583.0</ele>
  <time>2026-08-28T17:52:27Z</time>
  <course>88.59</course>
  <speed>0.23</speed>
  <fix>3d</fix>
</trkpt>
<trkpt lat="40.0713759" lon="-105.2294516">
  <ele>1583.11</ele>
  <time>2026-08-28T17:52:27Z</time>
  <course>89.06</course>
  <speed>0.43</speed>
  <fix>3d</fix>
</trkpt>
<trkpt lat="40.0713758" lon="-105.2294521">
  <ele>1583.0</ele>
  <time>2026-08-28T17:52:27Z</time>
  <course>88.59</course>
  <speed>0.23</speed>
  <fix>3d</fix>
</trkpt>
<trkpt lat="40.0713759" lon="-105.2294509">
  <ele>1583.11</ele>
  <time>2026-08-28T17:52:27Z</time>
  <course>88.96</course>
  <speed>0.53</speed>
  <fix>3d</fix>
</trkpt>
<trkpt lat="40.0713758" lon="-105.2294513">
  <ele>1583.0</ele>
  <time>2026-08-28T17:52:27Z</time>
  <course>88.47</course>
  <speed>0.41</speed>
  <fix>3d</fix>
</trkpt>
<trkpt lat="40.0713759" lon="-105.2294502">
  <ele>1583.12</ele>
  <time>2026-08-28T17:52:27Z</time>
  <course>88.82</course>
  <speed>0.6300793600809346</speed>
  <fix>3d</fix>
</trkpt>
<trkpt lat="40.0713758" lon="-105.2294513">
  <ele>1583.0</ele>
  <time>2026-08-28T17:52:27Z</time>
  <course>88.47</course>
  <speed>0.41</speed>
  <fix>3d</fix>
</trkpt>
<trkpt lat="40.0713759" lon="-105.2294493">
  <ele>1583.12</ele>
  <time>2026-08-28T17:52:27Z</time>
  <course>88.64</course>
  <speed>0.7300684899377592</speed>
  <fix>3d</fix>
</trkpt>
<trkpt lat="40.0713759" lon="-105.2294502">
  <ele>1583.0</ele>
  <time>2026-08-28T17:52:27Z</time>
  <course>88.25</course>
  <speed>0.61</speed>
  <fix>3d</fix>
</trkpt>
<trkpt lat="40.0713759" lon="-105.2294483">
  <ele>1583.12</ele>
  <time>2026-08-28T17:52:27Z</time>
  <course>88.4</course>
  <speed>0.8300602387778854</speed>
  <fix>3d</fix>
</trkpt>
<trkpt lat="40.0713759" lon="-105.2294502">
  <ele>1583.0</ele>
  <time>2026-08-28T17:52:27Z</time>
  <course>88.25</course>
  <speed>0.61</speed>
  <fix>3d</fix>
</trkpt>
<trkpt lat="40.0713759" lon="-105.2294472">
  <ele>1583.12</ele>
  <time>2026-08-28T17:52:27Z</time>
  <course>88.09</course>
  <speed>0.9302150289046076</speed>
  <fix>3d</fix>
</trkpt>
<trkpt lat="40.0713759" lon="-105.2294485">
  <ele>1583.0</ele>
  <time>2026-08-28T17:52:27Z</time>
  <course>87.85</course>
  <speed>0.8</speed>
  <fix>3d</fix>
</trkpt>
<trkpt lat="40.0713759" lon="-105.229446">
  <ele>1583.13</ele>
  <time>2026-08-28T17:52:27Z</time>
  <course>87.71</course>
  <speed>1.0204410811016968</speed>
  <fix>3d</fix>
</trkpt>
<trkpt lat="40.0713759" lon="-105.2294485">
  <ele>1583.0</ele>
  <time>2026-08-28T17:52:27Z</time>
  <course>87.85</course>
  <speed>0.8</speed>
  <fix>3d</fix>
</trkpt>
<trkpt lat="40.0713759" lon="-105.2294447">
  <ele>1583.13</ele>
  <time>2026-08-28T17:52:27Z</time>
  <course>87.26</course>
  <speed>1.110720486891279</speed>
  <fix>3d</fix>
</trkpt>
<trkpt lat="40.071376" lon="-105.2294464">
  <ele>1583.0</ele>
  <time>2026-08-28T17:52:27Z</time>
  <course>87.21</course>
  <speed>0.99</speed>
  <fix>3d</fix>
</trkpt>
<trkpt lat="40.071376" lon="-105.2294433">
  <ele>1583.14</ele>
  <time>2026-08-28T17:52:27Z</time>
  <course>86.74</course>
  <speed>1.1915116449284078</speed>
  <fix>3d</fix>
</trkpt>
<trkpt lat="40.071376" lon="-105.2294464">
  <ele>1583.0</ele>
  <time>2026-08-28T17:52:27Z</time>
  <course>87.21</course>
  <speed>0.99</speed>
  <fix>3d</fix>
</trkpt>
<trkpt lat="40.0713761" lon="-105.2294418">
  <ele>1583.14</ele>
  <time>2026-08-28T17:52:27Z</time>
  <course>86.14</course>
  <speed>1.27251719045363</speed>
  <fix>3d</fix>
</trkpt>
<trkpt lat="40.071376" lon="-105.2294438">
  <ele>1583.0</ele>
  <time>2026-08-28T17:52:27Z</time>
  <course>86.29</course>
  <speed>1.15</speed>
  <fix>3d</fix>
</trkpt>
<trkpt lat="40.0713762" lon="-105.2294403">
  <ele>1583.14</ele>
  <time>2026-08-28T17:52:27Z</time>
  <course>85.45</course>
  <speed>1.343726162579266</speed>
  <fix>3d</fix>
</trkpt>
<trkpt lat="40.071376" lon="-105.2294438">
  <ele>1583.0</ele>
  <time>2026-08-28T17:52:27Z</time>
  <course>86.29</course>
  <speed>1.15</speed>
  <fix>3d</fix>
</trkpt>
<trkpt lat="40.0713763" lon="-105.2294386">
  <ele>1583.14</ele>
  <time>2026-08-28T17:52:27Z</time>
  <course>84.65</course>
  <speed>1.4150971698084904</speed>
  <fix>3d</fix>
</trkpt>
<trkpt lat="40.0713763" lon="-105.229441">
  <ele>1583.0</ele>
  <time>2026-08-28T17:52:27Z</time>
  <course>85.06</course>
  <speed>1.31</speed>
  <fix>3d</fix>
</trkpt>
<trkpt lat="40.0713764" lon="-105.2294369">
  <ele>1583.14</ele>
  <time>2026-08-28T17:52:27Z</time>
  <course>83.73</course>
  <speed>1.4776332427229701</speed>
  <fix>3d</fix>
</trkpt>
<trkpt lat="40.0713763" lon="-105.229441">
  <ele>1583.0</ele>
  <time>2026-08-28T17:52:27Z</time>
  <course>85.06</course>
  <speed>1.31</speed>
  <fix>3d</fix>
</trkpt>
<trkpt lat="40.0713766" lon="-105.2294351">
  <ele>1583.14</ele>
  <time>2026-08-28T17:52:27Z</time>
  <course>82.69</course>
  <speed>1.5318289721767244</speed>
  <fix>3d</fix>
</trkpt>
<trkpt lat="40.0713765" lon="-105.2294378">
  <ele>1583.0</ele>
  <time>2026-08-28T17:52:27Z</time>
  <course>83.43</course>
  <speed>1.44</speed>
  <fix>3d</fix>
</trkpt>
<trkpt lat="40.0713768" lon="-105.2294333">
  <ele>1583.14</ele>
  <time>2026-08-28T17:52:27Z</time>
  <course>81.51</course>
  <speed>1.5966527487215245</speed>
  <fix>3d</fix>
</trkpt>
<trkpt lat="40.0713765" lon="-105.2294378">
  <ele>1583.0</ele>
  <time>2026-08-28T17:52:27Z</time>
  <course>83.43</course>
  <speed>1.44</speed>
  <fix>3d</fix>
</trkpt>
<trkpt lat="40.071377" lon="-105.2294314">
  <ele>1583.14</ele>
  <time>2026-08-28T17:52:27Z</time>
  <course>80.16</course>
  <speed>1.6440194646049662</speed>
  <fix>3d</fix>
</trkpt>
<trkpt lat="40.0713769" lon="-105.2294343">
  <ele>1583.0</ele>
  <time>2026-08-28T17:52:27Z</time>
  <course>81.3</course>
  <speed>1.55</speed>
  <fix>3d</fix>
</trkpt>
<trkpt lat="40.0713773" lon="-105.2294294">
  <ele>1583.14</ele>
  <time>2026-08-28T17:52:27Z</time>
  <course>78.62</course>
  <speed>1.6924833824885843</speed>
  <fix>3d</fix>
</trkpt>
<trkpt lat="40.0713769" lon="-105.2294343">
  <ele>1583.0</ele>
  <time>2026-08-28T17:52:27Z</time>
  <course>81.3</course>
  <speed>1.55</speed>
  <fix>3d</fix>
</trkpt>
<trkpt lat="40.0713777" lon="-105.2294274">
  <ele>1583.14</ele>
  <time>2026-08-28T17:52:27Z</time>
  <course>76.87</course>
  <speed>1.744161689752415</speed>
  <fix>3d</fix>
</trkpt>
<trkpt lat="40.0713774" lon="-105.2294306">
  <ele>1583.0</ele>
  <time>2026-08-28T17:52:27Z</time>
  <course>78.53</course>
  <speed>1.65</speed>
  <fix>3d</fix>
</trkpt>
<trkpt lat="40.0713781" lon="-105.2294254">
  <ele>1583.14</ele>
  <time>2026-08-28T17:52:27Z</time>
  <course>74.88</course>
  <speed>1.7804493814764857</speed>
  <fix>3d</fix>
</trkpt>
<trkpt lat="40.0713774" lon="-105.2294306">
  <ele>1583.0</ele>
  <time>2026-08-28T17:52:27Z</time>
  <course>78.53</course>
  <speed>1.65</speed>
  <fix>3d</fix>
</trkpt>
<trkpt lat="40.0713786" lon="-105.2294233">
  <ele>1583.14</ele>
  <time>2026-08-28T17:52:27Z</time>
  <course>72.57</course>
  <speed>1.8218671740826773</speed>
  <fix>3d</fix>
</trkpt>
<trkpt lat="40.0713781" lon="-105.2294267">
  <ele>1583.0</ele>
  <time>2026-08-28T17:52:27Z</time>
  <course>74.95</course>
  <speed>1.74</speed>
  <fix>3d</fix>
</trkpt>
<trkpt lat="40.0713792" lon="-105.2294212">
  <ele>1583.14</ele>
  <time>2026-08-28T17:52:27Z</time>
  <course>69.9</course>
  <speed>1.8411409506064438</speed>
  <fix>3d</fix>
</trkpt>
<trkpt lat="40.0713781" lon="-105.2294267">
  <ele>1583.0</ele>
  <time>2026-08-28T17:52:27Z</time>
  <course>74.95</course>
  <speed>1.74</speed>
  <fix>3d</fix>
</trkpt>
<trkpt lat="40.0713798" lon="-105.2294192">
  <ele>1583.14</ele>
  <time>2026-08-28T17:52:27Z</time>
  <course>66.79</course>
  <speed>1.85930094390338</speed>
  <fix>3d</fix>
</trkpt>
<trkpt lat="40.071379" lon="-105.2294226">
  <ele>1583.0</ele>
  <time>2026-08-28T17:52:27Z</time>
  <course>70.23</course>
  <speed>1.8</speed>
  <fix>3d</fix>
</trkpt>
<trkpt lat="40.0713806" lon="-105.2294172">
  <ele>1583.13</ele>
  <time>2026-08-28T17:52:27Z</time>
  <course>63.19</course>
  <speed>1.8693581786270923</speed>
  <fix>3d</fix>
</trkpt>
<trkpt lat="40.071379" lon="-105.2294226">
  <ele>1583.0</ele>
  <time>2026-08-28T17:52:27Z</time>
  <course>70.23</course>
  <speed>1.8</speed>
  <fix>3d</fix>
</trkpt>
<trkpt lat="40.0713814" lon="-105.2294153">
  <ele>1583.13</ele>
  <time>2026-08-28T17:52:27Z</time>
  <course>59.02</course>
  <speed>1.8796276226955169</speed>
  <fix>3d</fix>
</trkpt>
<trkpt lat="40.0713803" lon="-105.2294187">
  <ele>1583.0</ele>
  <time>2026-08-28T17:52:27Z</time>
  <course>63.87</course>
  <speed>1.83</speed>
  <fix>3d</fix>
</trkpt>
<trkpt lat="40.0713824" lon="-105.2294134">
  <ele>1583.13</ele>
  <time>2026-08-28T17:52:27Z</time>
  <course>54.2</course>
  <speed>1.8762729012593025</speed>
  <fix>3d</fix>
</trkpt>
<trkpt lat="40.0713803" lon="-105.2294187">
  <ele>1583.0</ele>
  <time>2026-08-28T17:52:27Z</time>
  <course>63.87</course>
  <speed>1.83</speed>
  <fix>3d</fix>
</trkpt>
<trkpt lat="40.0713835" lon="-105.2294117">
  <ele>1583.12</ele>
  <time>2026-08-28T17:52:27Z</time>
  <course>48.67</course>
  <speed>1.871095935541521</speed>
  <fix>3d</fix>
</trkpt>
<trkpt lat="40.0713819" lon="-105.2294149">
  <ele>1583.0</ele>
  <time>2026-08-28T17:52:27Z</time>
  <course>55.35</course>
  <speed>1.84</speed>
  <fix>3d</fix>
</trkpt>
<trkpt lat="40.0713847" lon="-105.2294102">
  <ele>1583.12</ele>
  <time>2026-08-28T17:52:27Z</time>
  <course>42.37</course>
  <speed>1.854561942885705</speed>
  <fix>3d</fix>
</trkpt>
<trkpt lat="40.0713819" lon="-105.2294149">
  <ele>1583.0</ele>
  <time>2026-08-28T17:52:27Z</time>
  <course>55.35</course>
  <speed>1.84</speed>
  <fix>3d</fix>
</trkpt>
<trkpt lat="40.071386" lon="-105.2294088">
  <ele>1583.12</ele>
  <time>2026-08-28T17:52:27Z</time>
  <course>35.27</course>
  <speed>1.8425254408012932</speed>
  <fix>3d</fix>
</trkpt>
<trkpt lat="40.071384" lon="-105.2294116">
  <ele>1583.0</ele>
  <time>2026-08-28T17:52:27Z</time>
  <course>44.08</course>
  <speed>1.82</speed>
  <fix>3d</fix>
</trkpt>
<trkpt lat="40.0713874" lon="-105.2294078">
  <ele>1583.12</ele>
  <time>2026-08-28T17:52:27Z</time>
  <course>27.37</course>
  <speed>1.824828759089466</speed>
  <fix>3d</fix>
</trkpt>
<trkpt lat="40.071384" lon="-105.2294116">
  <ele>1583.0</ele>
  <time>2026-08-28T17:52:27Z</time>
  <course>44.08</course>
  <speed>1.82</speed>
  <fix>3d</fix>
</trkpt>
<trkpt lat="40.0713889" lon="-105.229407">
  <ele>1583.12</ele>
  <time>2026-08-28T17:52:27Z</time>
  <course>18.74</course>
  <speed>1.805685465411958</speed>
  <fix>3d</fix>
</trkpt>
<trkpt lat="40.0713867" lon="-105.2294091">
  <ele>1583.0</ele>
  <time>2026-08-28T17:52:27Z</time>
  <course>29.73</course>
  <speed>1.79</speed>
  <fix>3d</fix>
</trkpt>
<trkpt lat="40.0713905" lon="-105.2294066">
  <ele>1583.12</ele>
  <time>2026-08-28T17:52:27Z</time>
  <course>9.49</course>
  <speed>1.785385112517745</speed>
  <fix>3d</fix>
</trkpt>
<trkpt lat="40.0713867" lon="-105.2294091">
  <ele>1583.0</ele>
  <time>2026-08-28T17:52:27Z</time>
  <course>29.73</course>
  <speed>1.79</speed>
  <fix>3d</fix>
</trkpt>
<trkpt lat="40.0713921" lon="-105.2294065">
  <ele>1583.12</ele>
  <time>2026-08-28T17:52:27Z</time>
  <course>359.82</course>
  <speed>1.76</speed>
  <fix>3d</fix>
</trkpt>
<trkpt lat="40.0713896" lon="-105.2294076">
  <ele>1583.0</ele>
  <time>2026-08-28T17:52:27Z</time>
  <course>12.51</course>
  <speed>1.75</speed>
  <fix>3d</fix>
</trkpt>
<trkpt lat="40.0713937" lon="-105.2294067">
  <ele>1583.12</ele>
  <time>2026-08-28T17:52:27Z</time>
  <course>349.84</course>
  <speed>1.7361163555476344</speed>
  <fix>3d</fix>
</trkpt>
<trkpt lat="40.0713896" lon="-105.2294076">
  <ele>1583.0</ele>
  <time>2026-08-28T17:52:27Z</time>
  <course>12.51</course>
  <speed>1.75</speed>
  <fix>3d</fix>
</trkpt>
<trkpt lat="40.0713952" lon="-105.2294074">
  <ele>1583.12</ele>
  <time>2026-08-28T17:52:27Z</time>
  <course>339.99</course>
  <speed>1.711286066091815</speed>
  <fix>3d</fix>
</trkpt>
<trkpt lat="40.0713927" lon="-105.2294074">
  <ele>1583.0</ele>
  <time>2026-08-28T17:52:27Z</time>
  <course>353.37</course>
  <speed>1.71</speed>
  <fix>3d</fix>
</trkpt>
<trkpt lat="40.0713966" lon="-105.2294083">
  <ele>1583.11</ele>
  <time>2026-08-28T17:52:27Z</time>
  <course>330.43</course>
  <speed>1.6930741271426952</speed>
  <fix>3d</fix>
</trkpt>
<trkpt lat="40.0713927" lon="-105.2294074">
  <ele>1583.0</ele>
  <time>2026-08-28T17:52:27Z</time>
  <course>353.37</course>
  <speed>1.71</speed>
  <fix>3d</fix>
</trkpt>
<trkpt lat="40.0713978" lon="-105.2294095">
  <ele>1583.11</ele>
  <time>2026-08-28T17:52:27Z</time>
  <course>321.44</course>
  <speed>1.6788686666919483</speed>
  <fix>3d</fix>
</trkpt>
<trkpt lat="40.0713956" lon="-105.2294084">
  <ele>1583.0</ele>
  <time>2026-08-28T17:52:27Z</time>
  <course>334.02</course>
  <speed>1.68</speed>
  <fix>3d</fix>
</trkpt>
<trkpt lat="40.0713989" lon="-105.2294109">
  <ele>1583.12</ele>
  <time>2026-08-28T17:52:27Z</time>
  <course>313.05</course>
  <speed>1.670269439342048</speed>
  <fix>3d</fix>
</trkpt>
<trkpt lat="40.0713956" lon="-105.2294084">
  <ele>1583.0</ele>
  <time>2026-08-28T17:52:27Z</time>
  <course>334.02</course>
  <speed>1.68</speed>
  <fix>3d</fix>
</trkpt>
<trkpt lat="40.0713998" lon="-105.2294125">
  <ele>1583.12</ele>
  <time>2026-08-28T17:52:27Z</time>
  <course>305.43</course>
  <speed>1.6532392446346051</speed>
  <fix>3d</fix>
</trkpt>
<trkpt lat="40.071398" lon="-105.2294106">
  <ele>1583.0</ele>
  <time>2026-08-28T17:52:27Z</time>
  <course>316.22</course>
  <speed>1.66</speed>
  <fix>3d</fix>
</trkpt>
<trkpt lat="40.0714006" lon="-105.2294143">
  <ele>1583.12</ele>
  <time>2026-08-28T17:52:27Z</time>
  <course>298.61</course>
  <speed>1.650605949341029</speed>
  <fix>3d</fix>
</trkpt>
<trkpt lat="40.071398" lon="-105.2294106">
  <ele>1583.0</ele>
  <time>2026-08-28T17:52:27Z</time>
  <course>316.22</course>
  <speed>1.66</speed>
  <fix>3d</fix>
</trkpt>
<trkpt lat="40.0714012" lon="-105.2294161">
  <ele>1583.12</ele>
  <time>2026-08-28T17:52:27Z</time>
  <course>292.54</course>
  <speed>1.6341358572652396</speed>
  <fix>3d</fix>
</trkpt>
<trkpt lat="40.0713999" lon="-105.2294137">
  <ele>1583.0</ele>
  <time>2026-08-28T17:52:27Z</time>
  <course>301.18</course>
  <speed>1.64</speed>
  <fix>3d</fix>
</trkpt>
<trkpt lat="40.0714016" lon="-105.229418">
  <ele>1583.12</ele>
  <time>2026-08-28T17:52:27Z</time>
  <course>287.31</course>
  <speed>1.6360012224934308</speed>
  <fix>3d</fix>
</trkpt>
<trkpt lat="40.0713999" lon="-105.2294137">
  <ele>1583.0</ele>
  <time>2026-08-28T17:52:27Z</time>
  <course>301.18</course>
  <speed>1.64</speed>
  <fix>3d</fix>
</trkpt>
<trkpt lat="40.071402" lon="-105.22942">
  <ele>1583.11</ele>
  <time>2026-08-28T17:52:27Z</time>
  <course>282.99</course>
  <speed>1.6455090397806995</speed>
  <fix>3d</fix>
</trkpt>
<trkpt lat="40.0714011" lon="-105.2294172">
  <ele>1583.0</ele>
  <time>2026-08-28T17:52:27Z</time>
  <course>289.32</course>
  <speed>1.62</speed>
  <fix>3d</fix>
</trkpt>
<trkpt lat="40.0714022" lon="-105.2294219">
  <ele>1583.11</ele>
  <time>2026-08-28T17:52:27Z</time>
  <course>279.38</course>
  <speed>1.6673631877908304</speed>
  <fix>3d</fix>
</trkpt>
<trkpt lat="40.0714011" lon="-105.2294172">
  <ele>1583.0</ele>
  <time>2026-08-28T17:52:27Z</time>
  <course>289.32</course>
  <speed>1.62</speed>
  <fix>3d</fix>
</trkpt>
<trkpt lat="40.0714023" lon="-105.229424">
  <ele>1583.11</ele>
  <time>2026-08-28T17:52:27Z</time>
  <course>276.33</course>
  <speed>1.6966437457521835</speed>
  <fix>3d</fix>
</trkpt>
<trkpt lat="40.0714019" lon="-105.2294208">
  <ele>1583.0</ele>
  <time>2026-08-28T17:52:27Z</time>
  <course>280.59</course>
  <speed>1.64</speed>
  <fix>3d</fix>
</trkpt>
<trkpt lat="40.0714024" lon="-105.229426">
  <ele>1583.11</ele>
  <time>2026-08-28T17:52:27Z</time>
  <course>273.75</course>
  <speed>1.7318487231857176</speed>
  <fix>3d</fix>
</trkpt>
<trkpt lat="40.0714019" lon="-105.2294208">
  <ele>1583.0</ele>
  <time>2026-08-28T17:52:27Z</time>
  <course>280.59</course>
  <speed>1.64</speed>
  <fix>3d</fix>
</trkpt>
<trkpt lat="40.0714025" lon="-105.2294281">
  <ele>1583.11</ele>
  <time>2026-08-28T17:52:27Z</time>
  <course>271.56</course>
  <speed>1.7900279327429502</speed>
  <fix>3d</fix>
</trkpt>
<trkpt lat="40.0714023" lon="-105.2294248">
  <ele>1583.0</ele>
  <time>2026-08-28T17:52:27Z</time>
  <course>274.47</course>
  <speed>1.7</speed>
  <fix>3d</fix>
</trkpt>
<trkpt lat="40.0714024" lon="-105.2294303">
  <ele>1583.11</ele>
  <time>2026-08-28T17:52:27Z</time>
  <course>269.69</course>
  <speed>1.8404347312523746</speed>
  <fix>3d</fix>
</trkpt>
<trkpt lat="40.0714023" lon="-105.2294248">
  <ele>1583.0</ele>
  <time>2026-08-28T17:52:27Z</time>
  <course>274.47</course>
  <speed>1.7</speed>
  <fix>3d</fix>
</trkpt>
<trkpt lat="40.0714024" lon="-105.2294325">
  <ele>1583.11</ele>
  <time>2026-08-28T17:52:27Z</time>
  <course>268.11</course>
  <speed>1.9021303845951254</speed>
  <fix>3d</fix>
</trkpt>
<trkpt lat="40.0714023" lon="-105.2294288">
  <ele>1583.0</ele>
  <time>2026-08-28T17:52:27Z</time>
  <course>270.09</course>
  <speed>1.8</speed>
  <fix>3d</fix>
</trkpt>
<trkpt lat="40.0714023" lon="-105.2294348">
  <ele>1583.11</ele>
  <time>2026-08-28T17:52:27Z</time>
  <course>266.77</course>
  <speed>1.9649936386665479</speed>
  <fix>3d</fix>
</trkpt>
<trkpt lat="40.0714023" lon="-105.2294288">
  <ele>1583.0</ele>
  <time>2026-08-28T17:52:27Z</time>
  <course>270.09</course>
  <speed>1.8</speed>
  <fix>3d</fix>
</trkpt>
<trkpt lat="40.0714022" lon="-105.2294371">
  <ele>1583.11</ele>
  <time>2026-08-28T17:52:27Z</time>
  <course>265.63</course>
  <speed>2.0280039447693388</speed>
  <fix>3d</fix>
</trkpt>
<trkpt lat="40.0714023" lon="-105.2294332">
  <ele>1583.0</ele>
  <time>2026-08-28T17:52:27Z</time>
  <course>266.94</course>
  <speed>1.91</speed>
  <fix>3d</fix>
</trkpt>
<trkpt lat="40.071402" lon="-105.2294395">
  <ele>1583.11</ele>
  <time>2026-08-28T17:52:27Z</time>
  <course>264.68</course>
  <speed>2.101547049199708</speed>
  <fix>3d</fix>
</trkpt>
<trkpt lat="40.0714023" lon="-105.2294332">
  <ele>1583.0</ele>
  <time>2026-08-28T17:52:27Z</time>
  <course>266.94</course>
  <speed>1.91</speed>
  <fix>3d</fix>
</trkpt>
<trkpt lat="40.0714018" lon="-105.229442">
  <ele>1583.11</ele>
  <time>2026-08-28T17:52:27Z</time>
  <course>263.88</course>
  <speed>2.1755918734909816</speed>
  <fix>3d</fix>
</trkpt>
<trkpt lat="40.071402" lon="-105.2294378">
  <ele>1583.0</ele>
  <time>2026-08-28T17:52:27Z</time>
  <course>264.69</course>
  <speed>2.05</speed>
  <fix>3d</fix>
</trkpt>
<trkpt lat="40.0714015" lon="-105.2294445">
  <ele>1583.11</ele>
  <time>2026-08-28T17:52:27Z</time>
  <course>263.23</course>
  <speed>2.248777445635739</speed>
  <fix>3d</fix>
</trkpt>
<trkpt lat="40.071402" lon="-105.2294378">
  <ele>1583.0</ele>
  <time>2026-08-28T17:52:27Z</time>
  <course>264.69</course>
  <speed>2.05</speed>
  <fix>3d</fix>
</trkpt>
<trkpt lat="40.0714012" lon="-105.2294472">
  <ele>1583.11</ele>
  <time>2026-08-28T17:52:27Z</time>
  <course>262.68</course>
  <speed>2.333452377915607</speed>
  <fix>3d</fix>
</trkpt>
<trkpt lat="40.0714016" lon="-105.2294428">
  <ele>1583.0</ele>
  <time>2026-08-28T17:52:27Z</time>
  <course>263.12</course>
  <speed>2.19</speed>
  <fix>3d</fix>
</trkpt>
<trkpt lat="40.0714009" lon="-105.22945">
  <ele>1583.11</ele>
  <time>2026-08-28T17:52:27Z</time>
  <course>262.24</course>
  <speed>2.4055976388415417</speed>
  <fix>3d</fix>
</trkpt>
<trkpt lat="40.0714016" lon="-105.2294428">
  <ele>1583.0</ele>
  <time>2026-08-28T17:52:27Z</time>
  <course>263.12</course>
  <speed>2.19</speed>
  <fix>3d</fix>
</trkpt>
<trkpt lat="40.0714006" lon="-105.2294528">
  <ele>1583.12</ele>
  <time>2026-08-28T17:52:27Z</time>
  <course>261.89</course>
  <speed>2.4891765706755318</speed>
  <fix>3d</fix>
</trkpt>
<trkpt lat="40.0714011" lon="-105.2294481">
  <ele>1583.0</ele>
  <time>2026-08-28T17:52:27Z</time>
  <course>262.05</course>
  <speed>2.35</speed>
  <fix>3d</fix>
</trkpt>
<trkpt lat="40.0714002" lon="-105.2294558">
  <ele>1583.12</ele>
  <time>2026-08-28T17:52:27Z</time>
  <course>261.63</course>
  <speed>2.5713031715455106</speed>
  <fix>3d</fix>
</trkpt>
<trkpt lat="40.0714011" lon="-105.2294481">
  <ele>1583.0</ele>
  <time>2026-08-28T17:52:27Z</time>
  <course>262.05</course>
  <speed>2.35</speed>
  <fix>3d</fix>
</trkpt>
<trkpt lat="40.0713998" lon="-105.2294588">
  <ele>1583.12</ele>
  <time>2026-08-28T17:52:27Z</time>
  <course>261.42</course>
  <speed>2.6633249895572266</speed>
  <fix>3d</fix>
</trkpt>
<trkpt lat="40.0714005" lon="-105.2294537">
  <ele>1583.0</ele>
  <time>2026-08-28T17:52:27Z</time>
  <course>261.36</course>
  <speed>2.51</speed>
  <fix>3d</fix>
</trkpt>
<trkpt lat="40.0713995" lon="-105.229462">
  <ele>1583.13</ele>
  <time>2026-08-28T17:52:27Z</time>
  <course>261.28</course>
  <speed>2.7454872063078346</speed>
  <fix>3d</fix>
</trkpt>
<trkpt lat="40.0714005" lon="-105.2294537">
  <ele>1583.0</ele>
  <time>2026-08-28T17:52:27Z</time>
  <course>261.36</course>
  <speed>2.51</speed>
  <fix>3d</fix>
</trkpt>
<trkpt lat="40.0713991" lon="-105.2294652">
  <ele>1583.13</ele>
  <time>2026-08-28T17:52:27Z</time>
  <course>261.19</course>
  <speed>2.8375341407637724</speed>
  <fix>3d</fix>
</trkpt>
<trkpt lat="40.0713998" lon="-105.2294598">
  <ele>1583.0</ele>
  <time>2026-08-28T17:52:27Z</time>
  <course>260.96</course>
  <speed>2.68</speed>
  <fix>3d</fix>
</trkpt>
<trkpt lat="40.0713986" lon="-105.2294686">
  <ele>1583.13</ele>
  <time>2026-08-28T17:52:27Z</time>
  <course>261.14</course>
  <speed>2.9295904150580503</speed>
  <fix>3d</fix>
</trkpt>
<trkpt lat="40.0713998" lon="-105.2294598">
  <ele>1583.0</ele>
  <time>2026-08-28T17:52:27Z</time>
  <course>260.96</course>
  <speed>2.68</speed>
  <fix>3d</fix>
</trkpt>
<trkpt lat="40.0713982" lon="-105.2294721">
  <ele>1583.12</ele>
  <time>2026-08-28T17:52:27Z</time>
  <course>261.14</course>
  <speed>3.0101494979485652</speed>
  <fix>3d</fix>
</trkpt>
<trkpt lat="40.071399" lon="-105.2294663">
  <ele>1583.0</ele>
  <time>2026-08-28T17:52:27Z</time>
  <course>260.79</course>
  <speed>2.85</speed>
  <fix>3d</fix>
</trkpt>
<trkpt lat="40.0713978" lon="-105.2294757">
  <ele>1583.12</ele>
  <time>2026-08-28T17:52:27Z</time>
  <course>261.14</course>
  <speed>3.100580590792634</speed>
  <fix>3d</fix>
</trkpt>
<trkpt lat="40.071399" lon="-105.2294663">
  <ele>1583.0</ele>
  <time>2026-08-28T17:52:27Z</time>
  <course>260.79</course>
  <speed>2.85</speed>
  <fix>3d</fix>
</trkpt>
<trkpt lat="40.0713973" lon="-105.2294793">
  <ele>1583.12</ele>
  <time>2026-08-28T17:52:27Z</time>
  <course>261.17</course>
  <speed>3.1926321429190683</speed>
  <fix>3d</fix>
</trkpt>
<trkpt lat="40.0713982" lon="-105.2294731">
  <ele>1583.0</ele>
  <time>2026-08-28T17:52:27Z</time>
  <course>260.76</course>
  <speed>3.03</speed>
  <fix>3d</fix>
</trkpt>
<trkpt lat="40.0713969" lon="-105.2294831">
  <ele>1583.12</ele>
  <time>2026-08-28T17:52:27Z</time>
  <course>261.23</course>
  <speed>3.283062594590606</speed>
  <fix>3d</fix>
</trkpt>
<trkpt lat="40.0713982" lon="-105.2294731">
  <ele>1583.0</ele>
  <time>2026-08-28T17:52:27Z</time>
  <course>260.76</course>
  <speed>3.03</speed>
  <fix>3d</fix>
</trkpt>
<trkpt lat="40.0713964" lon="-105.229487">
  <ele>1583.12</ele>
  <time>2026-08-28T17:52:27Z</time>
  <course>261.31</course>
  <speed>3.3719134033957636</speed>
  <fix>3d</fix>
</trkpt>
<trkpt lat="40.0713973" lon="-105.2294803">
  <ele>1583.0</ele>
  <time>2026-08-28T17:52:27Z</time>
  <course>260.83</course>
  <speed>3.21</speed>
  <fix>3d</fix>
</trkpt>
<trkpt lat="40.0713959" lon="-105.229491">
  <ele>1583.11</ele>
  <time>2026-08-28T17:52:27Z</time>
  <course>261.41</course>
  <speed>3.4623691311008424</speed>
  <fix>3d</fix>
</trkpt>
<trkpt lat="40.0713973" lon="-105.2294803">
  <ele>1583.0</ele>
  <time>2026-08-28T17:52:27Z</time>
  <course>260.83</course>
  <speed>3.21</speed>
  <fix>3d</fix>
</trkpt>
<trkpt lat="40.0713954" lon="-105.2294951">
  <ele>1583.11</ele>
  <time>2026-08-28T17:52:27Z</time>
  <course>261.54</course>
  <speed>3.552829858014594</speed>
  <fix>3d</fix>
</trkpt>
<trkpt lat="40.0713964" lon="-105.229488">
  <ele>1583.0</ele>
  <time>2026-08-28T17:52:27Z</time>
  <course>261.0</course>
  <speed>3.38</speed>
  <fix>3d</fix>
</trkpt>
<trkpt lat="40.071395" lon="-105.2294992">
  <ele>1583.12</ele>
  <time>2026-08-28T17:52:27Z</time>
  <course>261.68</course>
  <speed>3.641771546926029</speed>
  <fix>3d</fix>
</trkpt>
<trkpt lat="40.0713964" lon="-105.229488">
  <ele>1583.0</ele>
  <time>2026-08-28T17:52:27Z</time>
  <course>261.0</course>
  <speed>3.38</speed>
  <fix>3d</fix>
</trkpt>
<trkpt lat="40.0713945" lon="-105.2295035">
  <ele>1583.12</ele>
  <time>2026-08-28T17:52:27Z</time>
  <course>261.82</course>
  <speed>3.740655022853618</speed>
  <fix>3d</fix>
</trkpt>
<trkpt lat="40.0713954" lon="-105.229496">
  <ele>1583.0</ele>
  <time>2026-08-28T17:52:27Z</time>
  <course>261.24</course>
  <speed>3.56</speed>
  <fix>3d</fix>
</trkpt>
<trkpt lat="40.071394" lon="-105.2295078">
  <ele>1583.12</ele>
  <time>2026-08-28T17:52:27Z</time>
  <course>261.97</course>
  <speed>3.8311486528194125</speed>
  <fix>3d</fix>
</trkpt>
<trkpt lat="40.0713954" lon="-105.229496">
  <ele>1583.0</ele>
  <time>2026-08-28T17:52:27Z</time>
  <course>261.24</course>
  <speed>3.56</speed>
  <fix>3d</fix>
</trkpt>
<trkpt lat="40.0713935" lon="-105.2295123">
  <ele>1583.12</ele>
  <time>2026-08-28T17:52:27Z</time>
  <course>262.13</course>
  <speed>3.9202040763205175</speed>
  <fix>3d</fix>
</trkpt>
<trkpt lat="40.0713944" lon="-105.2295045">
  <ele>1583.0</ele>
  <time>2026-08-28T17:52:27Z</time>
  <course>261.54</course>
  <speed>3.75</speed>
  <fix>3d</fix>
</trkpt>
<trkpt lat="40.071393" lon="-105.2295168">
  <ele>1583.12</ele>
  <time>2026-08-28T17:52:27Z</time>
  <course>262.28</course>
  <speed>4.00930168483241</speed>
  <fix>3d</fix>
</trkpt>
<trkpt lat="40.0713944" lon="-105.2295045">
  <ele>1583.0</ele>
  <time>2026-08-28T17:52:27Z</time>
  <course>261.54</course>
  <speed>3.75</speed>
  <fix>3d</fix>
</trkpt>
<trkpt lat="40.0713925" lon="-105.2295215">
  <ele>1583.12</ele>
  <time>2026-08-28T17:52:27Z</time>
  <course>262.44</course>
  <speed>4.108345165635429</speed>
  <fix>3d</fix>
</trkpt>
<trkpt lat="40.0713934" lon="-105.2295135">
  <ele>1583.0</ele>
  <time>2026-08-28T17:52:27Z</time>
  <course>261.86</course>
  <speed>3.94</speed>
  <fix>3d</fix>
</trkpt>
<trkpt lat="40.071392" lon="-105.2295263">
  <ele>1583.12</ele>
  <time>2026-08-28T17:52:27Z</time>
  <course>262.61</course>
  <speed>4.197523079150369</speed>
  <fix>3d</fix>
</trkpt>
<trkpt lat="40.0713934" lon="-105.2295135">
  <ele>1583.0</ele>
  <time>2026-08-28T17:52:27Z</time>
  <course>261.86</course>
  <speed>3.94</speed>
  <fix>3d</fix>
</trkpt>
<trkpt lat="40.0713915" lon="-105.2295312">
  <ele>1583.12</ele>
  <time>2026-08-28T17:52:27Z</time>
  <course>262.78</course>
  <speed>4.296649857738003</speed>
  <fix>3d</fix>
</trkpt>
<trkpt lat="40.0713923" lon="-105.2295228">
  <ele>1583.0</ele>
  <time>2026-08-28T17:52:27Z</time>
  <course>262.18</course>
  <speed>4.13</speed>
  <fix>3d</fix>
</trkpt>
<trkpt lat="40.071391" lon="-105.2295363">
  <ele>1583.12</ele>
  <time>2026-08-28T17:52:27Z</time>
  <course>262.95</course>
  <speed>4.395816192699599</speed>
  <fix>3d</fix>
</trkpt>
<trkpt lat="40.0713923" lon="-105.2295228">
  <ele>1583.0</ele>
  <time>2026-08-28T17:52:27Z</time>
  <course>262.18</course>
  <speed>4.13</speed>
  <fix>3d</fix>
</trkpt>
<trkpt lat="40.0713905" lon="-105.2295414">
  <ele>1583.12</ele>
  <time>2026-08-28T17:52:27Z</time>
  <course>263.13</course>
  <speed>4.495019466031265</speed>
  <fix>3d</fix>
</trkpt>
<trkpt lat="40.0713913" lon="-105.2295326">
  <ele>1583.0</ele>
  <time>2026-08-28T17:52:27Z</time>
  <course>262.53</course>
  <speed>4.32</speed>
  <fix>3d</fix>
</trkpt>
<trkpt lat="40.07139" lon="-105.2295467">
  <ele>1583.13</ele>
  <time>2026-08-28T17:52:27Z</time>
  <course>263.31</course>
  <speed>4.593049096188718</speed>
  <fix>3d</fix>
</trkpt>
<trkpt lat="40.0713913" lon="-105.2295326">
  <ele>1583.0</ele>
  <time>2026-08-28T17:52:27Z</time>
  <course>262.53</course>
  <speed>4.32</speed>
  <fix>3d</fix>
</trkpt>
<trkpt lat="40.0713895" lon="-105.2295521">
  <ele>1583.13</ele>
  <time>2026-08-28T17:52:27Z</time>
  <course>263.5</course>
  <speed>4.692344829613441</speed>
  <fix>3d</fix>
</trkpt>
<trkpt lat="40.0713904" lon="-105.2295429">
  <ele>1583.0</ele>
  <time>2026-08-28T17:52:27Z</time>
  <course>262.89</course>
  <speed>4.51</speed>
  <fix>3d</fix>
</trkpt>
<trkpt lat="40.071389" lon="-105.2295577">
  <ele>1583.13</ele>
  <time>2026-08-28T17:52:27Z</time>
  <course>263.69</course>
  <speed>4.791669855071403</speed>
  <fix>3d</fix>
</trkpt>
<trkpt lat="40.0713904" lon="-105.2295429">
  <ele>1583.0</ele>
  <time>2026-08-28T17:52:27Z</time>
  <course>262.89</course>
  <speed>4.51</speed>
  <fix>3d</fix>
</trkpt>
<trkpt lat="40.0713885" lon="-105.2295634">
  <ele>1583.13</ele>
  <time>2026-08-28T17:52:27Z</time>
  <course>263.83</course>
  <speed>4.881085944746312</speed>
  <fix>3d</fix>
</trkpt>
<trkpt lat="40.0713894" lon="-105.2295537">
  <ele>1583.0</ele>
  <time>2026-08-28T17:52:27Z</time>
  <course>263.25</course>
  <speed>4.7</speed>
  <fix>3d</fix>
</trkpt>
<trkpt lat="40.071388" lon="-105.2295692">
  <ele>1583.13</ele>
  <time>2026-08-28T17:52:27Z</time>
  <course>263.96</course>
  <speed>4.969426526270411</speed>
  <fix>3d</fix>
</trkpt>
<trkpt lat="40.0713894" lon="-105.2295537">
  <ele>1583.0</ele>
  <time>2026-08-28T17:52:27Z</time>
  <course>263.25</course>
  <speed>4.7</speed>
  <fix>3d</fix>
</trkpt>
<trkpt lat="40.0713875" lon="-105.229575">
  <ele>1583.13</ele>
  <time>2026-08-28T17:52:27Z</time>
  <course>264.1</course>
  <speed>5.0589030431507584</speed>
  <fix>3d</fix>
</trkpt>
<trkpt lat="40.0713883" lon="-105.2295649">
  <ele>1583.0</ele>
  <time>2026-08-28T17:52:27Z</time>
  <course>263.56</course>
  <speed>4.89</speed>
  <fix>3d</fix>
</trkpt>
<trkpt lat="40.071387" lon="-105.229581">
  <ele>1583.13</ele>
  <time>2026-08-28T17:52:27Z</time>
  <course>264.23</course>
  <speed>5.128508555125944</speed>
  <fix>3d</fix>
</trkpt>
<trkpt lat="40.0713883" lon="-105.2295649">
  <ele>1583.0</ele>
  <time>2026-08-28T17:52:27Z</time>
  <course>263.56</course>
  <speed>4.89</speed>
  <fix>3d</fix>
</trkpt>
<trkpt lat="40.0713866" lon="-105.2295871">
  <ele>1583.13</ele>
  <time>2026-08-28T17:52:27Z</time>
  <course>264.37</course>
  <speed>5.197095342592823</speed>
  <fix>3d</fix>
</trkpt>
<trkpt lat="40.0713874" lon="-105.2295766">
  <ele>1583.0</ele>
  <time>2026-08-28T17:52:27Z</time>
  <course>263.83</course>
  <speed>5.05</speed>
  <fix>3d</fix>
</trkpt>
<trkpt lat="40.0713861" lon="-105.2295932">
  <ele>1583.13</ele>
  <time>2026-08-28T17:52:27Z</time>
  <course>264.51</course>
  <speed>5.256786090378797</speed>
  <fix>3d</fix>
</trkpt>
<trkpt lat="40.0713874" lon="-105.2295766">
  <ele>1583.0</ele>
  <time>2026-08-28T17:52:27Z</time>
  <course>263.83</course>
  <speed>5.05</speed>
  <fix>3d</fix>
</trkpt>
<trkpt lat="40.0713856" lon="-105.2295994">
  <ele>1583.12</ele>
  <time>2026-08-28T17:52:27Z</time>
  <course>264.65</course>
  <speed>5.295592506981632</speed>
  <fix>3d</fix>
</trkpt>
<trkpt lat="40.0713864" lon="-105.2295884">
  <ele>1583.0</ele>
  <time>2026-08-28T17:52:27Z</time>
  <course>264.1</course>
  <speed>5.17</speed>
  <fix>3d</fix>
</trkpt>
<trkpt lat="40.0713851" lon="-105.2296056">
  <ele>1583.12</ele>
  <time>2026-08-28T17:52:27Z</time>
  <course>264.76</course>
  <speed>5.3344353028225955</speed>
  <fix>3d</fix>
</trkpt>
<trkpt lat="40.0713864" lon="-105.2295884">
  <ele>1583.0</ele>
  <time>2026-08-28T17:52:27Z</time>
  <course>264.1</course>
  <speed>5.17</speed>
  <fix>3d</fix>
</trkpt>
<trkpt lat="40.0713847" lon="-105.2296118">
  <ele>1583.12</ele>
  <time>2026-08-28T17:52:27Z</time>
  <course>264.9</course>
  <speed>5.353400788284023</speed>
  <fix>3d</fix>
</trkpt>
<trkpt lat="40.0713855" lon="-105.2296006">
  <ele>1583.0</ele>
  <time>2026-08-28T17:52:27Z</time>
  <course>264.37</course>
  <speed>5.26</speed>
  <fix>3d</fix>
</trkpt>
<trkpt lat="40.0713842" lon="-105.229618">
  <ele>1583.12</ele>
  <time>2026-08-28T17:52:27Z</time>
  <course>264.99</course>
  <speed>5.362434148779824</speed>
  <fix>3d</fix>
</trkpt>
<trkpt lat="40.0713855" lon="-105.2296006">
  <ele>1583.0</ele>
  <time>2026-08-28T17:52:27Z</time>
  <course>264.37</course>
  <speed>5.26</speed>
  <fix>3d</fix>
</trkpt>
<trkpt lat="40.0713838" lon="-105.2296242">
  <ele>1583.12</ele>
  <time>2026-08-28T17:52:27Z</time>
  <course>265.1</course>
  <speed>5.3615296324836255</speed>
  <fix>3d</fix>
</trkpt>
<trkpt lat="40.0713846" lon="-105.2296131">
  <ele>1583.0</ele>
  <time>2026-08-28T17:52:27Z</time>
  <course>264.62</course>
  <speed>5.3</speed>
  <fix>3d</fix>
</trkpt>
<trkpt lat="40.0713834" lon="-105.2296303">
  <ele>1583.13</ele>
  <time>2026-08-28T17:52:27Z</time>
  <course>265.17</course>
  <speed>5.341610244111788</speed>
  <fix>3d</fix>
</trkpt>
<trkpt lat="40.0713846" lon="-105.2296131">
  <ele>1583.0</ele>
  <time>2026-08-28T17:52:27Z</time>
  <course>264.62</course>
  <speed>5.3</speed>
  <fix>3d</fix>
</trkpt>
<trkpt lat="40.071383" lon="-105.2296365">
  <ele>1583.13</ele>
  <time>2026-08-28T17:52:27Z</time>
  <course>265.24</course>
  <speed>5.320798812208558</speed>
  <fix>3d</fix>
</trkpt>
<trkpt lat="40.0713837" lon="-105.2296255">
  <ele>1583.0</ele>
  <time>2026-08-28T17:52:27Z</time>
  <course>264.8</course>
  <speed>5.3</speed>
  <fix>3d</fix>
</trkpt>
<trkpt lat="40.0713826" lon="-105.2296426">
  <ele>1583.13</ele>
  <time>2026-08-28T17:52:27Z</time>
  <course>265.32</course>
  <speed>5.290037807048264</speed>
  <fix>3d</fix>
</trkpt>
<trkpt lat="40.0713837" lon="-105.2296255">
  <ele>1583.0</ele>
  <time>2026-08-28T17:52:27Z</time>
  <course>264.8</course>
  <speed>5.3</speed>
  <fix>3d</fix>
</trkpt>
<trkpt lat="40.0713822" lon="-105.2296487">
  <ele>1583.13</ele>
  <time>2026-08-28T17:52:27Z</time>
  <course>265.39</course>
  <speed>5.239360648018038</speed>
  <fix>3d</fix>
</trkpt>
<trkpt lat="40.0713829" lon="-105.2296378">
  <ele>1583.0</ele>
  <time>2026-08-28T17:52:27Z</time>
  <course>264.95</course>
  <speed>5.25</speed>
  <fix>3d</fix>
</trkpt>
<trkpt lat="40.0713818" lon="-105.2296548">
  <ele>1583.13</ele>
  <time>2026-08-28T17:52:27Z</time>
  <course>265.46</course>
  <speed>5.1787257119874575</speed>
  <fix>3d</fix>
</trkpt>
<trkpt lat="40.0713829" lon="-105.2296378">
  <ele>1583.0</ele>
  <time>2026-08-28T17:52:27Z</time>
  <course>264.95</course>
  <speed>5.25</speed>
  <fix>3d</fix>
</trkpt>
<trkpt lat="40.0713814" lon="-105.2296607">
  <ele>1583.13</ele>
  <time>2026-08-28T17:52:27Z</time>
  <course>265.53</course>
  <speed>5.118095348857815</speed>
  <fix>3d</fix>
</trkpt>
<trkpt lat="40.071382" lon="-105.22965">
  <ele>1583.0</ele>
  <time>2026-08-28T17:52:27Z</time>
  <course>265.09</course>
  <speed>5.16</speed>
  <fix>3d</fix>
</trkpt>
<trkpt lat="40.071381" lon="-105.2296666">
  <ele>1583.13</ele>
  <time>2026-08-28T17:52:27Z</time>
  <course>265.59</course>
  <speed>5.037539081734255</speed>
  <fix>3d</fix>
</trkpt>
<trkpt lat="40.071382" lon="-105.22965">
  <ele>1583.0</ele>
  <time>2026-08-28T17:52:27Z</time>
  <course>265.09</course>
  <speed>5.16</speed>
  <fix>3d</fix>
</trkpt>
<trkpt lat="40.0713806" lon="-105.2296724">
  <ele>1583.13</ele>
  <time>2026-08-28T17:52:27Z</time>
  <course>265.66</course>
  <speed>4.946200562047601</speed>
  <fix>3d</fix>
</trkpt>
<trkpt lat="40.0713813" lon="-105.2296619">
  <ele>1583.0</ele>
  <time>2026-08-28T17:52:27Z</time>
  <course>265.22</course>
  <speed>5.03</speed>
  <fix>3d</fix>
</trkpt>
<trkpt lat="40.0713803" lon="-105.2296781">
  <ele>1583.13</ele>
  <time>2026-08-28T17:52:27Z</time>
  <course>265.72</course>
  <speed>4.8357522682618885</speed>
  <fix>3d</fix>
</trkpt>
<trkpt lat="40.0713813" lon="-105.2296619">
  <ele>1583.0</ele>
  <time>2026-08-28T17:52:27Z</time>
  <course>265.22</course>
  <speed>5.03</speed>
  <fix>3d</fix>
</trkpt>
<trkpt lat="40.0713799" lon="-105.2296836">
  <ele>1583.13</ele>
  <time>2026-08-28T17:52:27Z</time>
  <course>265.79</course>
  <speed>4.725304223010409</speed>
  <fix>3d</fix>
</trkpt>
<trkpt lat="40.0713805" lon="-105.2296735">
  <ele>1583.0</ele>
  <time>2026-08-28T17:52:27Z</time>
  <course>265.36</course>
  <speed>4.84</speed>
  <fix>3d</fix>
</trkpt>
<trkpt lat="40.0713796" lon="-105.2296891">
  <ele>1583.14</ele>
  <time>2026-08-28T17:52:27Z</time>
  <course>265.88</course>
  <speed>4.604096002474319</speed>
  <fix>3d</fix>
</trkpt>
<trkpt lat="40.0713805" lon="-105.2296735">
  <ele>1583.0</ele>
  <time>2026-08-28T17:52:27Z</time>
  <course>265.36</course>
  <speed>4.84</speed>
  <fix>3d</fix>
</trkpt>
<trkpt lat="40.0713793" lon="-105.2296944">
  <ele>1583.14</ele>
  <time>2026-08-28T17:52:27Z</time>
  <course>265.96</course>
  <speed>4.473712105176193</speed>
  <fix>3d</fix>
</trkpt>
<trkpt lat="40.0713798" lon="-105.2296845">
  <ele>1583.0</ele>
  <time>2026-08-28T17:52:27Z</time>
  <course>265.5</course>
  <speed>4.62</speed>
  <fix>3d</fix>
</trkpt>
<trkpt lat="40.071379" lon="-105.2296995">
  <ele>1583.14</ele>
  <time>2026-08-28T17:52:27Z</time>
  <course>266.08</course>
  <speed>4.332585832963959</speed>
  <fix>3d</fix>
</trkpt>
<trkpt lat="40.0713798" lon="-105.2296845">
  <ele>1583.0</ele>
  <time>2026-08-28T17:52:27Z</time>
  <course>265.5</course>
  <speed>4.62</speed>
  <fix>3d</fix>
</trkpt>
<trkpt lat="40.0713787" lon="-105.2297044">
  <ele>1583.13</ele>
  <time>2026-08-28T17:52:27Z</time>
  <course>266.18</course>
  <speed>4.191479452412954</speed>
  <fix>3d</fix>
</trkpt>
<trkpt lat="40.0713793" lon="-105.2296951">
  <ele>1583.0</ele>
  <time>2026-08-28T17:52:27Z</time>
  <course>265.69</course>
  <speed>4.36</speed>
  <fix>3d</fix>
</trkpt>
<trkpt lat="40.0713784" lon="-105.2297092">
  <ele>1583.13</ele>
  <time>2026-08-28T17:52:27Z</time>
  <course>266.29</course>
  <speed>4.060369441319349</speed>
  <fix>3d</fix>
</trkpt>
<trkpt lat="40.0713793" lon="-105.2296951">
  <ele>1583.0</ele>
  <time>2026-08-28T17:52:27Z</time>
  <course>265.69</course>
  <speed>4.36</speed>
  <fix>3d</fix>
</trkpt>
<trkpt lat="40.0713782" lon="-105.2297138">
  <ele>1583.14</ele>
  <time>2026-08-28T17:52:27Z</time>
  <course>266.4</course>
  <speed>3.910038362983156</speed>
  <fix>3d</fix>
</trkpt>
<trkpt lat="40.0713787" lon="-105.229705">
  <ele>1583.0</ele>
  <time>2026-08-28T17:52:27Z</time>
  <course>265.91</course>
  <speed>4.09</speed>
  <fix>3d</fix>
</trkpt>
<trkpt lat="40.0713779" lon="-105.2297183">
  <ele>1583.14</ele>
  <time>2026-08-28T17:52:27Z</time>
  <course>266.5</course>
  <speed>3.7689786414889643</speed>
  <fix>3d</fix>
</trkpt>
<trkpt lat="40.0713787" lon="-105.229705">
  <ele>1583.0</ele>
  <time>2026-08-28T17:52:27Z</time>
  <course>265.91</course>
  <speed>4.09</speed>
  <fix>3d</fix>
</trkpt>
<trkpt lat="40.0713777" lon="-105.2297225">
  <ele>1583.14</ele>
  <time>2026-08-28T17:52:27Z</time>
  <course>266.6</course>
  <speed>3.628622328101948</speed>
  <fix>3d</fix>
</trkpt>
<trkpt lat="40.0713782" lon="-105.2297143">
  <ele>1583.0</ele>
  <time>2026-08-28T17:52:27Z</time>
  <course>266.12</course>
  <speed>3.82</speed>
  <fix>3d</fix>
</trkpt>
<trkpt lat="40.0713775" lon="-105.2297266">
  <ele>1583.13</ele>
  <time>2026-08-28T17:52:27Z</time>
  <course>266.7</course>
  <speed>3.4875922926855996</speed>
  <fix>3d</fix>
</trkpt>
<trkpt lat="40.0713782" lon="-105.2297143">
  <ele>1583.0</ele>
  <time>2026-08-28T17:52:27Z</time>
  <course>266.12</course>
  <speed>3.82</speed>
  <fix>3d</fix>
</trkpt>
<trkpt lat="40.0713773" lon="-105.2297305">
  <ele>1583.14</ele>
  <time>2026-08-28T17:52:27Z</time>
  <course>266.79</course>
  <speed>3.3472376670920756</speed>
  <fix>3d</fix>
</trkpt>
<trkpt lat="40.0713777" lon="-105.2297229">
  <ele>1583.0</ele>
  <time>2026-08-28T17:52:27Z</time>
  <course>266.32</course>
  <speed>3.54</speed>
  <fix>3d</fix>
</trkpt>
<trkpt lat="40.0713771" lon="-105.2297343">
  <ele>1583.14</ele>
  <time>2026-08-28T17:52:27Z</time>
  <course>266.87</course>
  <speed>3.2068832220709256</speed>
  <fix>3d</fix>
</trkpt>
<trkpt lat="40.0713777" lon="-105.2297229">
  <ele>1583.0</ele>
  <time>2026-08-28T17:52:27Z</time>
  <course>266.32</course>
  <speed>3.54</speed>
  <fix>3d</fix>
</trkpt>
<trkpt lat="40.071377" lon="-105.2297379">
  <ele>1583.14</ele>
  <time>2026-08-28T17:52:27Z</time>
  <course>266.96</course>
  <speed>3.076507760432273</speed>
  <fix>3d</fix>
</trkpt>
<trkpt lat="40.0713774" lon="-105.2297309">
  <ele>1583.0</ele>
  <time>2026-08-28T17:52:27Z</time>
  <course>266.51</course>
  <speed>3.27</speed>
  <fix>3d</fix>
</trkpt>
<trkpt lat="40.0713768" lon="-105.2297413">
  <ele>1583.14</ele>
  <time>2026-08-28T17:52:27Z</time>
  <course>267.04</course>
  <speed>2.9455050500720588</speed>
  <fix>3d</fix>
</trkpt>
<trkpt lat="40.0713774" lon="-105.2297309">
  <ele>1583.0</ele>
  <time>2026-08-28T17:52:27Z</time>
  <course>266.51</course>
  <speed>3.27</speed>
  <fix>3d</fix>
</trkpt>
<trkpt lat="40.0713767" lon="-105.2297446">
  <ele>1583.14</ele>
  <time>2026-08-28T17:52:27Z</time>
  <course>267.11</course>
  <speed>2.8151376520518494</speed>
  <fix>3d</fix>
</trkpt>
<trkpt lat="40.071377" lon="-105.2297383">
  <ele>1583.0</ele>
  <time>2026-08-28T17:52:27Z</time>
  <course>266.68</course>
  <speed>3.01</speed>
  <fix>3d</fix>
</trkpt>
<trkpt lat="40.0713765" lon="-105.2297477">
  <ele>1583.14</ele>
  <time>2026-08-28T17:52:27Z</time>
  <course>267.21</course>
  <speed>2.694754163184464</speed>
  <fix>3d</fix>
</trkpt>
<trkpt lat="40.071377" lon="-105.2297383">
  <ele>1583.0</ele>
  <time>2026-08-28T17:52:27Z</time>
  <course>266.68</course>
  <speed>3.01</speed>
  <fix>3d</fix>
</trkpt>
<trkpt lat="40.0713764" lon="-105.2297508">
  <ele>1583.14</ele>
  <time>2026-08-28T17:52:27Z</time>
  <course>267.29</course>
  <speed>2.574373710244882</speed>
  <fix>3d</fix>
</trkpt>
<trkpt lat="40.0713767" lon="-105.2297451">
  <ele>1583.0</ele>
  <time>2026-08-28T17:52:27Z</time>
  <course>266.85</course>
  <speed>2.76</speed>
  <fix>3d</fix>
</trkpt>
<trkpt lat="40.0713763" lon="-105.2297537">
  <ele>1583.14</ele>
  <time>2026-08-28T17:52:27Z</time>
  <course>267.39</course>
  <speed>2.4539967400141345</speed>
  <fix>3d</fix>
</trkpt>
<trkpt lat="40.0713767" lon="-105.2297451">
  <ele>1583.0</ele>
  <time>2026-08-28T17:52:27Z</time>
  <course>266.85</course>
  <speed>2.76</speed>
  <fix>3d</fix>
</trkpt>
<trkpt lat="40.0713762" lon="-105.2297564">
  <ele>1583.14</ele>
  <time>2026-08-28T17:52:27Z</time>
  <course>267.48</course>
  <speed>2.3436083290515928</speed>
  <fix>3d</fix>
</trkpt>
<trkpt lat="40.0713765" lon="-105.2297513">
  <ele>1583.0</ele>
  <time>2026-08-28T17:52:27Z</time>
  <course>267.04</course>
  <speed>2.53</speed>
  <fix>3d</fix>
</trkpt>
<trkpt lat="40.0713761" lon="-105.2297591">
  <ele>1583.14</ele>
  <time>2026-08-28T17:52:27Z</time>
  <course>267.57</course>
  <speed>2.2332263655975404</speed>
  <fix>3d</fix>
</trkpt>
<trkpt lat="40.0713765" lon="-105.2297513">
  <ele>1583.0</ele>
  <time>2026-08-28T17:52:27Z</time>
  <course>267.04</course>
  <speed>2.53</speed>
  <fix>3d</fix>
</trkpt>
<trkpt lat="40.071376" lon="-105.2297616">
  <ele>1583.14</ele>
  <time>2026-08-28T17:52:27Z</time>
  <course>267.65</course>
  <speed>2.1233935103979196</speed>
  <fix>3d</fix>
</trkpt>
<trkpt lat="40.0713763" lon="-105.2297569">
  <ele>1583.0</ele>
  <time>2026-08-28T17:52:27Z</time>
  <course>267.23</course>
  <speed>2.31</speed>
  <fix>3d</fix>
</trkpt>
<trkpt lat="40.0713759" lon="-105.229764">
  <ele>1583.15</ele>
  <time>2026-08-28T17:52:27Z</time>
  <course>267.73</course>
  <speed>2.022992832414391</speed>
  <fix>3d</fix>
</trkpt>
<trkpt lat="40.0713763" lon="-105.2297569">
  <ele>1583.0</ele>
  <time>2026-08-28T17:52:27Z</time>
  <course>267.23</course>
  <speed>2.31</speed>
  <fix>3d</fix>
</trkpt>
<trkpt lat="40.0713758" lon="-105.2297663">
  <ele>1583.15</ele>
  <time>2026-08-28T17:52:27Z</time>
  <course>267.81</course>
  <speed>1.9226024029944413</speed>
  <fix>3d</fix>
</trkpt>
<trkpt lat="40.071376" lon="-105.2297621">
  <ele>1583.0</ele>
  <time>2026-08-28T17:52:27Z</time>
  <course>267.41</course>
  <speed>2.1</speed>
  <fix>3d</fix>
</trkpt>
<trkpt lat="40.0713757" lon="-105.2297685">
  <ele>1583.15</ele>
  <time>2026-08-28T17:52:27Z</time>
  <course>267.88</course>
  <speed>1.8222239159883729</speed>
  <fix>3d</fix>
</trkpt>
<trkpt lat="40.071376" lon="-105.2297621">
  <ele>1583.0</ele>
  <time>2026-08-28T17:52:27Z</time>
  <course>267.41</course>
  <speed>2.1</speed>
  <fix>3d</fix>
</trkpt>
<trkpt lat="40.0713757" lon="-105.2297706">
  <ele>1583.15</ele>
  <time>2026-08-28T17:52:27Z</time>
  <course>267.95</course>
  <speed>1.7223530416264836</speed>
  <fix>3d</fix>
</trkpt>
<trkpt lat="40.0713759" lon="-105.2297668">
  <ele>1583.0</ele>
  <time>2026-08-28T17:52:27Z</time>
  <course>267.58</course>
  <speed>1.89</speed>
  <fix>3d</fix>
</trkpt>
<trkpt lat="40.0713756" lon="-105.2297725">
  <ele>1583.15</ele>
  <time>2026-08-28T17:52:27Z</time>
  <course>268.01</course>
  <speed>1.6219741058352317</speed>
  <fix>3d</fix>
</trkpt>
<trkpt lat="40.0713759" lon="-105.2297668">
  <ele>1583.0</ele>
  <time>2026-08-28T17:52:27Z</time>
  <course>267.58</course>
  <speed>1.89</speed>
  <fix>3d</fix>
</trkpt>
<trkpt lat="40.0713756" lon="-105.2297744">
  <ele>1583.15</ele>
  <time>2026-08-28T17:52:27Z</time>
  <course>268.08</course>
  <speed>1.5320900756809308</speed>
  <fix>3d</fix>
</trkpt>
<trkpt lat="40.0713758" lon="-105.229771">
  <ele>1583.0</ele>
  <time>2026-08-28T17:52:27Z</time>
  <course>267.72</course>
  <speed>1.7</speed>
  <fix>3d</fix>
</trkpt>
<trkpt lat="40.0713755" lon="-105.2297761">
  <ele>1583.15</ele>
  <time>2026-08-28T17:52:27Z</time>
  <course>268.14</course>
  <speed>1.4317122615944868</speed>
  <fix>3d</fix>
</trkpt>
<trkpt lat="40.0713758" lon="-105.229771">
  <ele>1583.0</ele>
  <time>2026-08-28T17:52:27Z</time>
  <course>267.72</course>
  <speed>1.7</speed>
  <fix>3d</fix>
</trkpt>
<trkpt lat="40.0713755" lon="-105.2297778">
  <ele>1583.15</ele>
  <time>2026-08-28T17:52:27Z</time>
  <course>268.21</course>
  <speed>1.3418271125595878</speed>
  <fix>3d</fix>
</trkpt>
<trkpt lat="40.0713757" lon="-105.2297748">
  <ele>1583.0</ele>
  <time>2026-08-28T17:52:27Z</time>
  <course>267.86</course>
  <speed>1.51</speed>
  <fix>3d</fix>
</trkpt>
<trkpt lat="40.0713754" lon="-105.2297793">
  <ele>1583.15</ele>
  <time>2026-08-28T17:52:27Z</time>
  <course>268.28</course>
  <speed>1.251439171514141</speed>
  <fix>3d</fix>
</trkpt>
<trkpt lat="40.0713757" lon="-105.2297748">
  <ele>1583.0</ele>
  <time>2026-08-28T17:52:27Z</time>
  <course>267.86</course>
  <speed>1.51</speed>
  <fix>3d</fix>
</trkpt>
<trkpt lat="40.0713754" lon="-105.2297807">
  <ele>1583.15</ele>
  <time>2026-08-28T17:52:27Z</time>
  <course>268.34</course>
  <speed>1.1615506876585284</speed>
  <fix>3d</fix>
</trkpt>
<trkpt lat="40.0713756" lon="-105.2297782">
  <ele>1583.0</ele>
  <time>2026-08-28T17:52:27Z</time>
  <course>268.01</course>
  <speed>1.33</speed>
  <fix>3d</fix>
</trkpt>
<trkpt lat="40.0713754" lon="-105.229782">
  <ele>1583.15</ele>
  <time>2026-08-28T17:52:27Z</time>
  <course>268.4</course>
  <speed>1.071167587261676</speed>
  <fix>3d</fix>
</trkpt>
<trkpt lat="40.0713756" lon="-105.2297782">
  <ele>1583.0</ele>
  <time>2026-08-28T17:52:27Z</time>
  <course>268.01</course>
  <speed>1.33</speed>
  <fix>3d</fix>
</trkpt>
<trkpt lat="40.0713753" lon="-105.2297832">
  <ele>1583.15</ele>
  <time>2026-08-28T17:52:27Z</time>
  <course>268.45</course>
  <speed>0.9712878049270464</speed>
  <fix>3d</fix>
</trkpt>
<trkpt lat="40.0713755" lon="-105.2297811">
  <ele>1583.0</ele>
  <time>2026-08-28T17:52:27Z</time>
  <course>268.15</course>
  <speed>1.14</speed>
  <fix>3d</fix>
</trkpt>
<trkpt lat="40.0713753" lon="-105.2297843">
  <ele>1583.15</ele>
  <time>2026-08-28T17:52:27Z</time>
  <course>268.5</course>
  <speed>0.8809086218218095</speed>
  <fix>3d</fix>
</trkpt>
<trkpt lat="40.0713755" lon="-105.2297811">
  <ele>1583.0</ele>
  <time>2026-08-28T17:52:27Z</time>
  <course>268.15</course>
  <speed>1.14</speed>
  <fix>3d</fix>
</trkpt>
<trkpt lat="40.0713753" lon="-105.2297853">
  <ele>1583.15</ele>
  <time>2026-08-28T17:52:27Z</time>
  <course>268.54</course>
  <speed>0.7910120100226039</speed>
  <fix>3d</fix>
</trkpt>
<trkpt lat="40.0713754" lon="-105.2297835">
  <ele>1583.0</ele>
  <time>2026-08-28T17:52:27Z</time>
  <course>268.26</course>
  <speed>0.96</speed>
  <fix>3d</fix>
</trkpt>
<trkpt lat="40.0713753" lon="-105.2297862">
  <ele>1583.15</ele>
  <time>2026-08-28T17:52:27Z</time>
  <course>268.57</course>
  <speed>0.7011419257183242</speed>
  <fix>3d</fix>
</trkpt>
<trkpt lat="40.0713754" lon="-105.2297835">
  <ele>1583.0</ele>
  <time>2026-08-28T17:52:27Z</time>
  <course>268.26</course>
  <speed>0.96</speed>
  <fix>3d</fix>
</trkpt>
<trkpt lat="40.0713753" lon="-105.2297869">
  <ele>1583.15</ele>
  <time>2026-08-28T17:52:27Z</time>
  <course>268.58</course>
  <speed>0.6107372593840988</speed>
  <fix>3d</fix>
</trkpt>
<trkpt lat="40.0713754" lon="-105.2297856">
  <ele>1583.0</ele>
  <time>2026-08-28T17:52:27Z</time>
  <course>268.34</course>
  <speed>0.78</speed>
  <fix>3d</fix>
</trkpt>
<trkpt lat="40.0713752" lon="-105.2297876">
  <ele>1583.15</ele>
  <time>2026-08-28T17:52:27Z</time>
  <course>268.59</course>
  <speed>0.5208646657242167</speed>
  <fix>3d</fix>
</trkpt>
<trkpt lat="40.0713754" lon="-105.2297856">
  <ele>1583.0</ele>
  <time>2026-08-28T17:52:27Z</time>
  <course>268.34</course>
  <speed>0.78</speed>
  <fix>3d</fix>
</trkpt>
<trkpt lat="40.0713752" lon="-105.2297882">
  <ele>1583.15</ele>
  <time>2026-08-28T17:52:27Z</time>
  <course>268.59</course>
  <speed>0.4310452412450461</speed>
  <fix>3d</fix>
</trkpt>
<trkpt lat="40.0713754" lon="-105.2297873">
  <ele>1583.0</ele>
  <time>2026-08-28T17:52:27Z</time>
  <course>268.39</course>
  <speed>0.6</speed>
  <fix>3d</fix>
</trkpt>
<trkpt lat="40.0713752" lon="-105.2297886">
  <ele>1583.15</ele>
  <time>2026-08-28T17:52:27Z</time>
  <course>268.58</course>
  <speed>0.34058772731852804</speed>
  <fix>3d</fix>
</trkpt>
<trkpt lat="40.0713754" lon="-105.2297873">
  <ele>1583.0</ele>
  <time>2026-08-28T17:52:27Z</time>
  <course>268.39</course>
  <speed>0.6</speed>
  <fix>3d</fix>
</trkpt>
<trkpt lat="40.0713752" lon="-105.229789">
  <ele>1583.15</ele>
  <time>2026-08-28T17:52:27Z</time>
  <course>268.58</course>
  <speed>0.25079872407968906</speed>
  <fix>3d</fix>
</trkpt>
<trkpt lat="40.0713754" lon="-105.2297885">
  <ele>1583.0</ele>
  <time>2026-08-28T17:52:27Z</time>
  <course>268.4</course>
  <speed>0.42</speed>
  <fix>3d</fix>
</trkpt>
<trkpt lat="40.0713752" lon="-105.2297893">
  <ele>1583.15</ele>
  <time>2026-08-28T17:52:27Z</time>
  <course>268.57</course>
  <speed>0.1711724276862369</speed>
  <fix>3d</fix>
</trkpt>
<trkpt lat="40.0713754" lon="-105.2297885">
  <ele>1583.0</ele>
  <time>2026-08-28T17:52:27Z</time>
  <course>268.4</course>
  <speed>0.42</speed>
  <fix>3d</fix>
</trkpt>
<trkpt lat="40.0713752" lon="-105.2297894">
  <ele>1583.15</ele>
  <time>2026-08-28T17:52:27Z</time>
  <course>268.57</course>
  <speed>0.0824621125123532</speed>
  <fix>3d</fix>
</trkpt>
<trkpt lat="40.0713754" lon="-105.2297892">
  <ele>1583.0</ele>
  <time>2026-08-28T17:52:27Z</time>
  <course>268.4</course>
  <speed>0.24</speed>
  <fix>3d</fix>
</trkpt>
<trkpt lat="40.0713752" lon="-105.2297895">
  <ele>1583.15</ele>
  <time>2026-08-28T17:52:27Z</time>
  <course>268.56</course>
  <speed>0.01</speed>
  <fix>3d</fix>
</trkpt>
<trkpt lat="40.0713754" lon="-105.2297892">
  <ele>1583.0</ele>
  <time>2026-08-28T17:52:27Z</time>
  <course>268.4</course>
  <speed>0.24</speed>
  <fix>3d</fix>
</trkpt>
<trkpt lat="40.0713752" lon="-105.2297895">
  <ele>1583.15</ele>
  <time>2026-08-28T17:52:27Z</time>
  <course>268.56</course>
  <speed>0.06082762530298219</speed>
  <fix>3d</fix>
</trkpt>
<trkpt lat="40.0713754" lon="-105.2297896">
  <ele>1583.0</ele>
  <time>2026-08-28T17:52:27Z</time>
  <course>268.4</course>
  <speed>0.08</speed>
  <fix>3d</fix>
</trkpt>
<trkpt lat="40.0713752" lon="-105.2297894">
  <ele>1583.15</ele>
  <time>2026-08-28T17:52:27Z</time>
  <course>268.55</course>
  <speed>0.12041594578792296</speed>
  <fix>3d</fix>
</trkpt>
<trkpt lat="40.0713754" lon="-105.2297896">
  <ele>1583.0</ele>
  <time>2026-08-28T17:52:27Z</time>
  <course>268.4</course>
  <speed>0.08</speed>
  <fix>3d</fix>
</trkpt>
<trkpt lat="40.0713753" lon="-105.2297893">
  <ele>1583.15</ele>
  <time>2026-08-28T17:52:27Z</time>
  <course>268.55</course>
  <speed>0.18027756377319945</speed>
  <fix>3d</fix>
</trkpt>
<trkpt lat="40.0713754" lon="-105.2297896">
  <ele>1583.0</ele>
  <time>2026-08-28T17:52:27Z</time>
  <course>88.4</course>
  <speed>0.06</speed>
  <fix>3d</fix>
</trkpt>
<trkpt lat="40.0713753" lon="-105.2297891">
  <ele>1583.15</ele>
  <time>2026-08-28T17:52:27Z</time>
  <course>268.54</course>
  <speed>0.22022715545545238</speed>
  <fix>3d</fix>
</trkpt>
<trkpt lat="40.0713754" lon="-105.2297896">
  <ele>1583.0</ele>
  <time>2026-08-28T17:52:27Z</time>
  <course>88.4</course>
  <speed>0.06</speed>
  <fix>3d</fix>
</trkpt>
<trkpt lat="40.0713753" lon="-105.2297888">
  <ele>1583.15</ele>
  <time>2026-08-28T17:52:27Z</time>
  <course>268.54</course>
  <speed>0.26</speed>
  <fix>3d</fix>
</trkpt>
<trkpt lat="40.0713754" lon="-105.2297893">
  <ele>1583.0</ele>
  <time>2026-08-28T17:52:27Z</time>
  <course>88.4</course>
  <speed>0.16</speed>
  <fix>3d</fix>
</trkpt>
<trkpt lat="40.0713753" lon="-105.2297885">
  <ele>1583.15</ele>
  <time>2026-08-28T17:52:27Z</time>
  <course>268.54</course>
  <speed>0.28</speed>
  <fix>3d</fix>
</trkpt>
<trkpt lat="40.0713754" lon="-105.2297893">
  <ele>1583.0</ele>
  <time>2026-08-28T17:52:27Z</time>
  <course>88.4</course>
  <speed>0.16</speed>
  <fix>3d</fix>
</trkpt>
<trkpt lat="40.0713753" lon="-105.2297882">
  <ele>1583.16</ele>
  <time>2026-08-28T17:52:27Z</time>
  <course>268.53</course>
  <speed>0.3</speed>
  <fix>3d</fix>
</trkpt>
<trkpt lat="40.0713754" lon="-105.2297889">
  <ele>1583.0</ele>
  <time>2026-08-28T17:52:27Z</time>
  <course>88.4</course>
  <speed>0.23</speed>
  <fix>3d</fix>
</trkpt>
<trkpt lat="40.0713753" lon="-105.2297878">
  <ele>1583.15</ele>
  <time>2026-08-28T17:52:27Z</time>
  <course>268.53</course>
  <speed>0.31</speed>
  <fix>3d</fix>
</trkpt>
<trkpt lat="40.0713754" lon="-105.2297889">
  <ele>1583.0</ele>
  <time>2026-08-28T17:52:27Z</time>
  <course>88.4</course>
  <speed>0.23</speed>
  <fix>3d</fix>
</trkpt>
<trkpt lat="40.0713753" lon="-105.2297875">
  <ele>1583.15</ele>
  <time>2026-08-28T17:52:27Z</time>
  <course>268.52</course>
  <speed>0.31</speed>
  <fix>3d</fix>
</trkpt>
<trkpt lat="40.0713754" lon="-105.2297883">
  <ele>1583.0</ele>
  <time>2026-08-28T17:52:27Z</time>
  <course>88.4</course>
  <speed>0.27</speed>
  <fix>3d</fix>
</trkpt>
<trkpt lat="40.0713753" lon="-105.2297872">
  <ele>1583.15</ele>
  <time>2026-08-28T17:52:27Z</time>
  <course>268.53</course>
  <speed>0.3</speed>
  <fix>3d</fix>
</trkpt>
<trkpt lat="40.0713754" lon="-105.2297883">
  <ele>1583.0</ele>
  <time>2026-08-28T17:52:27Z</time>
  <course>88.4</course>
  <speed>0.27</speed>
  <fix>3d</fix>
</trkpt>
<trkpt lat="40.0713753" lon="-105.2297868">
  <ele>1583.15</ele>
  <time>2026-08-28T17:52:27Z</time>
  <course>268.53</course>
  <speed>0.28</speed>
  <fix>3d</fix>
</trkpt>
<trkpt lat="40.0713754" lon="-105.2297877">
  <ele>1583.0</ele>
  <time>2026-08-28T17:52:27Z</time>
  <course>88.41</course>
  <speed>0.27</speed>
  <fix>3d</fix>
</trkpt>
<trkpt lat="40.0713753" lon="-105.2297866">
  <ele>1583.15</ele>
  <time>2026-08-28T17:52:27Z</time>
  <course>268.53</course>
  <speed>0.27</speed>
  <fix>3d</fix>
</trkpt>
<trkpt lat="40.0713754" lon="-105.2297877">
  <ele>1583.0</ele>
  <time>2026-08-28T17:52:27Z</time>
  <course>88.41</course>
  <speed>0.27</speed>
  <fix>3d</fix>
</trkpt>
<trkpt lat="40.0713753" lon="-105.2297863">
  <ele>1583.15</ele>
  <time>2026-08-28T17:52:27Z</time>
  <course>268.53</course>
  <speed>0.25</speed>
  <fix>3d</fix>
</trkpt>
<trkpt lat="40.0713754" lon="-105.2297871">
  <ele>1583.0</ele>
  <time>2026-08-28T17:52:27Z</time>
  <course>88.41</course>
  <speed>0.25</speed>
  <fix>3d</fix>
</trkpt>
<trkpt lat="40.0713753" lon="-105.229786">
  <ele>1583.15</ele>
  <time>2026-08-28T17:52:27Z</time>
  <course>268.53</course>
  <speed>0.22</speed>
  <fix>3d</fix>
</trkpt>
<trkpt lat="40.0713754" lon="-105.2297871">
  <ele>1583.0</ele>
  <time>2026-08-28T17:52:27Z</time>
  <course>88.41</course>
  <speed>0.25</speed>
  <fix>3d</fix>
</trkpt>
<trkpt lat="40.0713753" lon="-105.2297858">
  <ele>1583.15</ele>
  <time>2026-08-28T17:52:27Z</time>
  <course>268.52</course>
  <speed>0.2</speed>
  <fix>3d</fix>
</trkpt>
<trkpt lat="40.0713754" lon="-105.2297865">
  <ele>1583.0</ele>
  <time>2026-08-28T17:52:27Z</time>
  <course>88.42</course>
  <speed>0.21</speed>
  <fix>3d</fix>
</trkpt>
<trkpt lat="40.0713753" lon="-105.2297857">
  <ele>1583.15</ele>
  <time>2026-08-28T17:52:27Z</time>
  <course>268.52</course>
  <speed>0.18</speed>
  <fix>3d</fix>
</trkpt>
<trkpt lat="40.0713754" lon="-105.2297865">
  <ele>1583.0</ele>
  <time>2026-08-28T17:52:27Z</time>
  <course>88.42</course>
  <speed>0.21</speed>
  <fix>3d</fix>
</trkpt>
<trkpt lat="40.0713753" lon="-105.2297855">
  <ele>1583.15</ele>
  <time>2026-08-28T17:52:27Z</time>
  <course>268.51</course>
  <speed>0.15</speed>
  <fix>3d</fix>
</trkpt>
<trkpt lat="40.0713754" lon="-105.2297861">
  <ele>1583.0</ele>
  <time>2026-08-28T17:52:27Z</time>
  <course>88.42</course>
  <speed>0.17</speed>
  <fix>3d</fix>
</trkpt>
<trkpt lat="40.0713753" lon="-105.2297854">
  <ele>1583.15</ele>
  <time>2026-08-28T17:52:27Z</time>
  <course>268.51</course>
  <speed>0.130384048104053</speed>
  <fix>3d</fix>
</trkpt>
<trkpt lat="40.0713754" lon="-105.2297861">
  <ele>1583.0</ele>
  <time>2026-08-28T17:52:27Z</time>
  <course>88.42</course>
  <speed>0.17</speed>
  <fix>3d</fix>
</trkpt>
<trkpt lat="40.0713753" lon="-105.2297852">
  <ele>1583.15</ele>
  <time>2026-08-28T17:52:27Z</time>
  <course>268.51</course>
  <speed>0.09055385138137417</speed>
  <fix>3d</fix>
</trkpt>
<trkpt lat="40.0713754" lon="-105.2297856">
  <ele>1583.0</ele>
  <time>2026-08-28T17:52:27Z</time>
  <course>88.41</course>
  <speed>0.13</speed>
  <fix>3d</fix>
</trkpt>
<trkpt lat="40.0713753" lon="-105.2297852">
  <ele>1583.16</ele>
  <time>2026-08-28T17:52:27Z</time>
  <course>268.52</course>
  <speed>0.06082762530298219</speed>
  <fix>3d</fix>
</trkpt>
<trkpt lat="40.0713754" lon="-105.2297856">
  <ele>1583.0</ele>
  <time>2026-08-28T17:52:27Z</time>
  <course>88.41</course>
  <speed>0.13</speed>
  <fix>3d</fix>
</trkpt>
<trkpt lat="40.0713753" lon="-105.2297852">
  <ele>1583.15</ele>
  <time>2026-08-28T17:52:27Z</time>
  <course>268.54</course>
  <speed>0.0316227766016838</speed>
  <fix>3d</fix>
</trkpt>
<trkpt lat="40.0713754" lon="-105.2297854">
  <ele>1583.0</ele>
  <time>2026-08-28T17:52:27Z</time>
  <course>88.42</course>
  <speed>0.07</speed>
  <fix>3d</fix>
</trkpt>
<trkpt lat="40.0713753" lon="-105.2297851">
  <ele>1583.15</ele>
  <time>2026-08-28T17:52:27Z</time>
  <course>268.56</course>
  <speed>0.01414213562373095</speed>
  <fix>3d</fix>
</trkpt>
<trkpt lat="40.0713754" lon="-105.2297854">
  <ele>1583.0</ele>
  <time>2026-08-28T17:52:27Z</time>
  <course>88.42</course>
  <speed>0.07</speed>
  <fix>3d</fix>
</trkpt>
<trkpt lat="40.0713753" lon="-105.2297852">
  <ele>1583.15</ele>
  <time>2026-08-28T17:52:27Z</time>
  <course>268.56</course>
  <speed>0.01</speed>
  <fix>3d</fix>
</trkpt>
<trkpt lat="40.0713754" lon="-105.2297853">
  <ele>1583.0</ele>
  <time>2026-08-28T17:52:27Z</time>
  <course>88.44</course>
  <speed>0.02</speed>
  <fix>3d</fix>
</trkpt>
<trkpt lat="40.0713753" lon="-105.2297852">
  <ele>1583.15</ele>
  <time>2026-08-28T17:52:27Z</time>
  <course>268.57</course>
  <speed>0.0412310562561766</speed>
  <fix>3d</fix>
</trkpt>
<trkpt lat="40.0713754" lon="-105.2297853">
  <ele>1583.0</ele>
  <time>2026-08-28T17:52:27Z</time>
  <course>88.44</course>
  <speed>0.02</speed>
  <fix>3d</fix>
</trkpt>
<trkpt lat="40.0713753" lon="-105.2297852">
  <ele>1583.15</ele>
  <time>2026-08-28T17:52:27Z</time>
  <course>268.58</course>
  <speed>0.09055385138137417</speed>
  <fix>3d</fix>
</trkpt>
<trkpt lat="40.0713754" lon="-105.2297853">
  <ele>1583.0</ele>
  <time>2026-08-28T17:52:27Z</time>
  <course>268.49</course>
  <speed>0.02</speed>
  <fix>3d</fix>
</trkpt>
<trkpt lat="40.0713753" lon="-105.2297854">
  <ele>1583.15</ele>
  <time>2026-08-28T17:52:27Z</time>
  <course>268.59</course>
  <speed>0.140356688476182</speed>
  <fix>3d</fix>
</trkpt>
<trkpt lat="40.0713754" lon="-105.2297853">
  <ele>1583.0</ele>
  <time>2026-08-28T17:52:27Z</time>
  <course>268.49</course>
  <speed>0.02</speed>
  <fix>3d</fix>
</trkpt>
<trkpt lat="40.0713753" lon="-105.2297856">
  <ele>1583.15</ele>
  <time>2026-08-28T17:52:27Z</time>
  <course>268.63</course>
  <speed>0.2109502310972899</speed>
  <fix>3d</fix>
</trkpt>
<trkpt lat="40.0713754" lon="-105.2297854">
  <ele>1583.0</ele>
  <time>2026-08-28T17:52:27Z</time>
  <course>268.51</course>
  <speed>0.11</speed>
  <fix>3d</fix>
</trkpt>
<trkpt lat="40.0713753" lon="-105.2297859">
  <ele>1583.15</ele>
  <time>2026-08-28T17:52:27Z</time>
  <course>268.69</course>
  <speed>0.2906888370749727</speed>
  <fix>3d</fix>
</trkpt>
<trkpt lat="40.0713754" lon="-105.2297854">
  <ele>1583.0</ele>
  <time>2026-08-28T17:52:27Z</time>
  <course>268.51</course>
  <speed>0.11</speed>
  <fix>3d</fix>
</trkpt>
<trkpt lat="40.0713753" lon="-105.2297863">
  <ele>1583.15</ele>
  <time>2026-08-28T17:52:27Z</time>
  <course>268.77</course>
  <speed>0.38052595180880894</speed>
  <fix>3d</fix>
</trkpt>
<trkpt lat="40.0713754" lon="-105.2297858">
  <ele>1583.0</ele>
  <time>2026-08-28T17:52:27Z</time>
  <course>268.61</course>
  <speed>0.24</speed>
  <fix>3d</fix>
</trkpt>
<trkpt lat="40.0713753" lon="-105.2297868">
  <ele>1583.15</ele>
  <time>2026-08-28T17:52:27Z</time>
  <course>268.88</course>
  <speed>0.48041648597857256</speed>
  <fix>3d</fix>
</trkpt>
<trkpt lat="40.0713754" lon="-105.2297858">
  <ele>1583.0</ele>
  <time>2026-08-28T17:52:27Z</time>
  <course>268.61</course>
  <speed>0.24</speed>
  <fix>3d</fix>
</trkpt>
<trkpt lat="40.0713753" lon="-105.2297875">
  <ele>1583.15</ele>
  <time>2026-08-28T17:52:27Z</time>
  <course>269.02</course>
  <speed>0.5803447251418763</speed>
  <fix>3d</fix>
</trkpt>
<trkpt lat="40.0713754" lon="-105.2297866">
  <ele>1583.0</ele>
  <time>2026-08-28T17:52:27Z</time>
  <course>268.79</course>
  <speed>0.42</speed>
  <fix>3d</fix>
</trkpt>
<trkpt lat="40.0713753" lon="-105.2297882">
  <ele>1583.15</ele>
  <time>2026-08-28T17:52:27Z</time>
  <course>269.17</course>
  <speed>0.7002856560004639</speed>
  <fix>3d</fix>
</trkpt>
<trkpt lat="40.0713754" lon="-105.2297866">
  <ele>1583.0</ele>
  <time>2026-08-28T17:52:27Z</time>
  <course>268.79</course>
  <speed>0.42</speed>
  <fix>3d</fix>
</trkpt>
<trkpt lat="40.0713753" lon="-105.2297891">
  <ele>1583.15</ele>
  <time>2026-08-28T17:52:27Z</time>
  <course>269.32</course>
  <speed>0.8102468759581859</speed>
  <fix>3d</fix>
</trkpt>
<trkpt lat="40.0713754" lon="-105.2297878">
  <ele>1583.0</ele>
  <time>2026-08-28T17:52:27Z</time>
  <course>269.06</course>
  <speed>0.62</speed>
  <fix>3d</fix>
</trkpt>
<trkpt lat="40.0713753" lon="-105.2297902">
  <ele>1583.15</ele>
  <time>2026-08-28T17:52:27Z</time>
  <course>269.46</course>
  <speed>0.9302150289046076</speed>
  <fix>3d</fix>
</trkpt>
<trkpt lat="40.0713754" lon="-105.2297878">
  <ele>1583.0</ele>
  <time>2026-08-28T17:52:27Z</time>
  <course>269.06</course>
  <speed>0.62</speed>
  <fix>3d</fix>
</trkpt>
<trkpt lat="40.0713753" lon="-105.2297913">
  <ele>1583.15</ele>
  <time>2026-08-28T17:52:27Z</time>
  <course>269.59</course>
  <speed>1.0601886624558856</speed>
  <fix>3d</fix>
</trkpt>
<trkpt lat="40.0713754" lon="-105.2297896">
  <ele>1583.0</ele>
  <time>2026-08-28T17:52:27Z</time>
  <course>269.34</course>
  <speed>0.85</speed>
  <fix>3d</fix>
</trkpt>
<trkpt lat="40.0713753" lon="-105.2297927">
  <ele>1583.15</ele>
  <time>2026-08-28T17:52:27Z</time>
  <course>269.69</course>
  <speed>1.1801694793545543</speed>
  <fix>3d</fix>
</trkpt>
<trkpt lat="40.0713754" lon="-105.2297896">
  <ele>1583.0</ele>
  <time>2026-08-28T17:52:27Z</time>
  <course>269.34</course>
  <speed>0.85</speed>
  <fix>3d</fix>
</trkpt>
<trkpt lat="40.0713753" lon="-105.2297941">
  <ele>1583.15</ele>
  <time>2026-08-28T17:52:27Z</time>
  <course>269.77</course>
  <speed>1.3100381673829202</speed>
  <fix>3d</fix>
</trkpt>
<trkpt lat="40.0713754" lon="-105.2297918">
  <ele>1583.0</ele>
  <time>2026-08-28T17:52:27Z</time>
  <course>269.57</course>
  <speed>1.09</speed>
  <fix>3d</fix>
</trkpt>
<trkpt lat="40.0713753" lon="-105.2297958">
  <ele>1583.15</ele>
  <time>2026-08-28T17:52:27Z</time>
  <course>269.83</course>
  <speed>1.4400347218036098</speed>
  <fix>3d</fix>
</trkpt>
<trkpt lat="40.0713754" lon="-105.2297918">
  <ele>1583.0</ele>
  <time>2026-08-28T17:52:27Z</time>
  <course>269.57</course>
  <speed>1.09</speed>
  <fix>3d</fix>
</trkpt>
<trkpt lat="40.0713753" lon="-105.2297976">
  <ele>1583.14</ele>
  <time>2026-08-28T17:52:27Z</time>
  <course>269.88</course>
  <speed>1.5700318468107581</speed>
  <fix>3d</fix>
</trkpt>
<trkpt lat="40.0713754" lon="-105.2297946">
  <ele>1583.0</ele>
  <time>2026-08-28T17:52:27Z</time>
  <course>269.73</course>
  <speed>1.34</speed>
  <fix>3d</fix>
</trkpt>
<trkpt lat="40.0713753" lon="-105.2297995">
  <ele>1583.14</ele>
  <time>2026-08-28T17:52:27Z</time>
  <course>269.93</course>
  <speed>1.7000294115102832</speed>
  <fix>3d</fix>
</trkpt>
<trkpt lat="40.0713754" lon="-105.2297946">
  <ele>1583.0</ele>
  <time>2026-08-28T17:52:27Z</time>
  <course>269.73</course>
  <speed>1.34</speed>
  <fix>3d</fix>
</trkpt>
<trkpt lat="40.0713753" lon="-105.2298016">
  <ele>1583.14</ele>
  <time>2026-08-28T17:52:27Z</time>
  <course>269.95</course>
  <speed>1.8200274723201295</speed>
  <fix>3d</fix>
</trkpt>
<trkpt lat="40.0713754" lon="-105.2297981">
  <ele>1583.0</ele>
  <time>2026-08-28T17:52:27Z</time>
  <course>269.82</course>
  <speed>1.59</speed>
  <fix>3d</fix>
</trkpt>
<trkpt lat="40.0713753" lon="-105.2298038">
  <ele>1583.14</ele>
  <time>2026-08-28T17:52:27Z</time>
  <course>269.97</course>
  <speed>1.9500256408570633</speed>
  <fix>3d</fix>
</trkpt>
<trkpt lat="40.0713754" lon="-105.2297981">
  <ele>1583.0</ele>
  <time>2026-08-28T17:52:27Z</time>
  <course>269.82</course>
  <speed>1.59</speed>
  <fix>3d</fix>
</trkpt>
<trkpt lat="40.0713753" lon="-105.2298062">
  <ele>1583.14</ele>
  <time>2026-08-28T17:52:27Z</time>
  <course>270.0</course>
  <speed>2.0700241544484452</speed>
  <fix>3d</fix>
</trkpt>
<trkpt lat="40.0713754" lon="-105.2298022">
  <ele>1583.0</ele>
  <time>2026-08-28T17:52:27Z</time>
  <course>269.88</course>
  <speed>1.84</speed>
  <fix>3d</fix>
</trkpt>
<trkpt lat="40.0713753" lon="-105.2298087">
  <ele>1583.15</ele>
  <time>2026-08-28T17:52:27Z</time>
  <course>270.0</course>
  <speed>2.190022830931221</speed>
  <fix>3d</fix>
</trkpt>
<trkpt lat="40.0713754" lon="-105.2298022">
  <ele>1583.0</ele>
  <time>2026-08-28T17:52:27Z</time>
  <course>269.88</course>
  <speed>1.84</speed>
  <fix>3d</fix>
</trkpt>
<trkpt lat="40.0713753" lon="-105.2298114">
  <ele>1583.15</ele>
  <time>2026-08-28T17:52:27Z</time>
  <course>270.0</course>
  <speed>2.3100216449202375</speed>
  <fix>3d</fix>
</trkpt>
<trkpt lat="40.0713754" lon="-105.2298068">
  <ele>1583.0</ele>
  <time>2026-08-28T17:52:27Z</time>
  <course>269.91</course>
  <speed>2.08</speed>
  <fix>3d</fix>
</trkpt>
<trkpt lat="40.0713753" lon="-105.2298142">
  <ele>1583.15</ele>
  <time>2026-08-28T17:52:27Z</time>
  <course>270.0</course>
  <speed>2.430020576044573</speed>
  <fix>3d</fix>
</trkpt>
<trkpt lat="40.0713754" lon="-105.2298068">
  <ele>1583.0</ele>
  <time>2026-08-28T17:52:27Z</time>
  <course>269.91</course>
  <speed>2.08</speed>
  <fix>3d</fix>
</trkpt>
<trkpt lat="40.0713753" lon="-105.2298171">
  <ele>1583.15</ele>
  <time>2026-08-28T17:52:27Z</time>
  <course>270.0</course>
  <speed>2.550019607767752</speed>
  <fix>3d</fix>
</trkpt>
<trkpt lat="40.0713753" lon="-105.229812">
  <ele>1583.0</ele>
  <time>2026-08-28T17:52:27Z</time>
  <course>269.92</course>
  <speed>2.31</speed>
  <fix>3d</fix>
</trkpt>
<trkpt lat="40.0713753" lon="-105.2298201">
  <ele>1583.15</ele>
  <time>2026-08-28T17:52:27Z</time>
  <course>270.0</course>
  <speed>2.660018796926067</speed>
  <fix>3d</fix>
</trkpt>
<trkpt lat="40.0713753" lon="-105.229812">
  <ele>1583.0</ele>
  <time>2026-08-28T17:52:27Z</time>
  <course>269.92</course>
  <speed>2.31</speed>
  <fix>3d</fix>
</trkpt>
<trkpt lat="40.0713753" lon="-105.2298233">
  <ele>1583.15</ele>
  <time>2026-08-28T17:52:27Z</time>
  <course>270.0</course>
  <speed>2.770018050482704</speed>
  <fix>3d</fix>
</trkpt>
<trkpt lat="40.0713753" lon="-105.2298176">
  <ele>1583.0</ele>
  <time>2026-08-28T17:52:27Z</time>
  <course>269.92</course>
  <speed>2.54</speed>
  <fix>3d</fix>
</trkpt>
<trkpt lat="40.0713753" lon="-105.2298266">
  <ele>1583.16</ele>
  <time>2026-08-28T17:52:27Z</time>
  <course>270.0</course>
  <speed>2.880017361058784</speed>
  <fix>3d</fix>
</trkpt>
<trkpt lat="40.0713753" lon="-105.2298176">
  <ele>1583.0</ele>
  <time>2026-08-28T17:52:27Z</time>
  <course>269.92</course>
  <speed>2.54</speed>
  <fix>3d</fix>
</trkpt>
<trkpt lat="40.0713753" lon="-105.22983">
  <ele>1583.16</ele>
  <time>2026-08-28T17:52:27Z</time>
  <course>270.0</course>
  <speed>2.9800167784762555</speed>
  <fix>3d</fix>
</trkpt>
<trkpt lat="40.0713753" lon="-105.2298239">
  <ele>1583.0</ele>
  <time>2026-08-28T17:52:27Z</time>
  <course>269.92</course>
  <speed>2.75</speed>
  <fix>3d</fix>
</trkpt>
<trkpt lat="40.0713753" lon="-105.2298335">
  <ele>1583.16</ele>
  <time>2026-08-28T17:52:27Z</time>
  <course>270.0</course>
  <speed>3.0800162337234527</speed>
  <fix>3d</fix>
</trkpt>
<trkpt lat="40.0713753" lon="-105.2298239">
  <ele>1583.0</ele>
  <time>2026-08-28T17:52:27Z</time>
  <course>269.92</course>
  <speed>2.75</speed>
  <fix>3d</fix>
</trkpt>
<trkpt lat="40.0713753" lon="-105.2298371">
  <ele>1583.15</ele>
  <time>2026-08-28T17:52:27Z</time>
  <course>269.99</course>
  <speed>3.1900156739426846</speed>
  <fix>3d</fix>
</trkpt>
<trkpt lat="40.0713753" lon="-105.2298306">
  <ele>1583.0</ele>
  <time>2026-08-28T17:52:27Z</time>
  <course>269.92</course>
  <speed>2.96</speed>
  <fix>3d</fix>
</trkpt>
<trkpt lat="40.0713753" lon="-105.2298408">
  <ele>1583.15</ele>
  <time>2026-08-28T17:52:27Z</time>
  <course>269.99</course>
  <speed>3.290015197533288</speed>
  <fix>3d</fix>
</trkpt>
<trkpt lat="40.0713753" lon="-105.2298306">
  <ele>1583.0</ele>
  <time>2026-08-28T17:52:27Z</time>
  <course>269.92</course>
  <speed>2.96</speed>
  <fix>3d</fix>
</trkpt>
<trkpt lat="40.0713753" lon="-105.2298447">
  <ele>1583.15</ele>
  <time>2026-08-28T17:52:27Z</time>
  <course>269.99</course>
  <speed>3.3900147492304513</speed>
  <fix>3d</fix>
</trkpt>
<trkpt lat="40.0713753" lon="-105.2298379">
  <ele>1583.0</ele>
  <time>2026-08-28T17:52:27Z</time>
  <course>269.92</course>
  <speed>3.17</speed>
  <fix>3d</fix>
</trkpt>
<trkpt lat="40.0713753" lon="-105.2298487">
  <ele>1583.15</ele>
  <time>2026-08-28T17:52:27Z</time>
  <course>269.99</course>
  <speed>3.490014326618159</speed>
  <fix>3d</fix>
</trkpt>
<trkpt lat="40.0713753" lon="-105.2298379">
  <ele>1583.0</ele>
  <time>2026-08-28T17:52:27Z</time>
  <course>269.92</course>
  <speed>3.17</speed>
  <fix>3d</fix>
</trkpt>
<trkpt lat="40.0713753" lon="-105.2298528">
  <ele>1583.15</ele>
  <time>2026-08-28T17:52:27Z</time>
  <course>269.99</course>
  <speed>3.5900139275495855</speed>
  <fix>3d</fix>
</trkpt>
<trkpt lat="40.0713753" lon="-105.2298455">
  <ele>1583.0</ele>
  <time>2026-08-28T17:52:27Z</time>
  <course>269.92</course>
  <speed>3.37</speed>
  <fix>3d</fix>
</trkpt>
<trkpt lat="40.0713753" lon="-105.229857">
  <ele>1583.15</ele>
  <time>2026-08-28T17:52:27Z</time>
  <course>269.99</course>
  <speed>3.6800135869314397</speed>
  <fix>3d</fix>
</trkpt>
<trkpt lat="40.0713753" lon="-105.2298455">
  <ele>1583.0</ele>
  <time>2026-08-28T17:52:27Z</time>
  <course>269.92</course>
  <speed>3.37</speed>
  <fix>3d</fix>
</trkpt>
<trkpt lat="40.0713753" lon="-105.2298614">
  <ele>1583.15</ele>
  <time>2026-08-28T17:52:27Z</time>
  <course>269.99</course>
  <speed>3.7800132274900835</speed>
  <fix>3d</fix>
</trkpt>
<trkpt lat="40.0713753" lon="-105.2298537">
  <ele>1583.0</ele>
  <time>2026-08-28T17:52:27Z</time>
  <course>269.92</course>
  <speed>3.57</speed>
  <fix>3d</fix>
</trkpt>
<trkpt lat="40.0713752" lon="-105.2298659">
  <ele>1583.14</ele>
  <time>2026-08-28T17:52:27Z</time>
  <course>269.99</course>
  <speed>3.8800128865765378</speed>
  <fix>3d</fix>
</trkpt>
<trkpt lat="40.0713753" lon="-105.2298537">
  <ele>1583.0</ele>
  <time>2026-08-28T17:52:27Z</time>
  <course>269.92</course>
  <speed>3.57</speed>
  <fix>3d</fix>
</trkpt>
<trkpt lat="40.0713752" lon="-105.2298705">
  <ele>1583.14</ele>
  <time>2026-08-28T17:52:27Z</time>
  <course>269.99</course>
  <speed>3.980012562794243</speed>
  <fix>3d</fix>
</trkpt>
<trkpt lat="40.0713753" lon="-105.2298623">
  <ele>1583.0</ele>
  <time>2026-08-28T17:52:27Z</time>
  <course>269.92</course>
  <speed>3.76</speed>
  <fix>3d</fix>
</trkpt>
<trkpt lat="40.0713752" lon="-105.2298752">
  <ele>1583.14</ele>
  <time>2026-08-28T17:52:27Z</time>
  <course>269.99</course>
  <speed>4.080012254883556</speed>
  <fix>3d</fix>
</trkpt>
<trkpt lat="40.0713753" lon="-105.2298623">
  <ele>1583.0</ele>
  <time>2026-08-28T17:52:27Z</time>
  <course>269.92</course>
  <speed>3.76</speed>
  <fix>3d</fix>
</trkpt>
<trkpt lat="40.0713752" lon="-105.22988">
  <ele>1583.14</ele>
  <time>2026-08-28T17:52:27Z</time>
  <course>269.99</course>
  <speed>4.170011990390435</speed>
  <fix>3d</fix>
</trkpt>
<trkpt lat="40.0713753" lon="-105.2298713">
  <ele>1583.0</ele>
  <time>2026-08-28T17:52:27Z</time>
  <course>269.92</course>
  <speed>3.95</speed>
  <fix>3d</fix>
</trkpt>
<trkpt lat="40.0713752" lon="-105.229885">
  <ele>1583.14</ele>
  <time>2026-08-28T17:52:27Z</time>
  <course>269.99</course>
  <speed>4.270011709585818</speed>
  <fix>3d</fix>
</trkpt>
<trkpt lat="40.0713753" lon="-105.2298713">
  <ele>1583.0</ele>
  <time>2026-08-28T17:52:27Z</time>
  <course>269.92</course>
  <speed>3.95</speed>
  <fix>3d</fix>
</trkpt>
<trkpt lat="40.0713752" lon="-105.22989">
  <ele>1583.14</ele>
  <time>2026-08-28T17:52:27Z</time>
  <course>269.99</course>
  <speed>4.370011441632618</speed>
  <fix>3d</fix>
</trkpt>
<trkpt lat="40.0713753" lon="-105.2298808">
  <ele>1583.0</ele>
  <time>2026-08-28T17:52:27Z</time>
  <course>269.92</course>
  <speed>4.14</speed>
  <fix>3d</fix>
</trkpt>
<trkpt lat="40.0713752" lon="-105.2298952">
  <ele>1583.14</ele>
  <time>2026-08-28T17:52:27Z</time>
  <course>269.99</course>
  <speed>4.460011210748242</speed>
  <fix>3d</fix>
</trkpt>
<trkpt lat="40.0713753" lon="-105.2298808">
  <ele>1583.0</ele>
  <time>2026-08-28T17:52:27Z</time>
  <course>269.92</course>
  <speed>4.14</speed>
  <fix>3d</fix>
</trkpt>
<trkpt lat="40.0713752" lon="-105.2299004">
  <ele>1583.14</ele>
  <time>2026-08-28T17:52:27Z</time>
  <course>269.99</course>
  <speed>4.550010988997719</speed>
  <fix>3d</fix>
</trkpt>
<trkpt lat="40.0713753" lon="-105.2298908">
  <ele>1583.0</ele>
  <time>2026-08-28T17:52:27Z</time>
  <course>269.92</course>
  <speed>4.33</speed>
  <fix>3d</fix>
</trkpt>
<trkpt lat="40.0713752" lon="-105.2299058">
  <ele>1583.14</ele>
  <time>2026-08-28T17:52:27Z</time>
  <course>269.98</course>
  <speed>4.640010775849556</speed>
  <fix>3d</fix>
</trkpt>
<trkpt lat="40.0713753" lon="-105.2298908">
  <ele>1583.0</ele>
  <time>2026-08-28T17:52:27Z</time>
  <course>269.92</course>
  <speed>4.33</speed>
  <fix>3d</fix>
</trkpt>
<trkpt lat="40.0713752" lon="-105.2299112">
  <ele>1583.14</ele>
  <time>2026-08-28T17:52:27Z</time>
  <course>269.98</course>
  <speed>4.710010615699289</speed>
  <fix>3d</fix>
</trkpt>
<trkpt lat="40.0713753" lon="-105.2299013">
  <ele>1583.0</ele>
  <time>2026-08-28T17:52:27Z</time>
  <course>269.92</course>
  <speed>4.51</speed>
  <fix>3d</fix>
</trkpt>
<trkpt lat="40.0713752" lon="-105.2299167">
  <ele>1583.14</ele>
  <time>2026-08-28T17:52:27Z</time>
  <course>269.98</course>
  <speed>4.780010460239601</speed>
  <fix>3d</fix>
</trkpt>
<trkpt lat="40.0713753" lon="-105.2299013">
  <ele>1583.0</ele>
  <time>2026-08-28T17:52:27Z</time>
  <course>269.92</course>
  <speed>4.51</speed>
  <fix>3d</fix>
</trkpt>
<trkpt lat="40.0713752" lon="-105.2299223">
  <ele>1583.14</ele>
  <time>2026-08-28T17:52:27Z</time>
  <course>269.98</course>
  <speed>4.840041322137653</speed>
  <fix>3d</fix>
</trkpt>
<trkpt lat="40.0713752" lon="-105.229912">
  <ele>1583.0</ele>
  <time>2026-08-28T17:52:27Z</time>
  <course>269.92</course>
  <speed>4.66</speed>
  <fix>3d</fix>
</trkpt>
<trkpt lat="40.0713752" lon="-105.2299278">
  <ele>1583.14</ele>
  <time>2026-08-28T17:52:27Z</time>
  <course>269.98</course>
  <speed>4.89004089962446</speed>
  <fix>3d</fix>
</trkpt>
<trkpt lat="40.0713752" lon="-105.229912">
  <ele>1583.0</ele>
  <time>2026-08-28T17:52:27Z</time>
  <course>269.92</course>
  <speed>4.66</speed>
  <fix>3d</fix>
</trkpt>
<trkpt lat="40.0713752" lon="-105.2299335">
  <ele>1583.14</ele>
  <time>2026-08-28T17:52:28Z</time>
  <course>269.98</course>
  <speed>4.94004048566406</speed>
  <fix>3d</fix>
</trkpt>
<trkpt lat="40.0713752" lon="-105.2299232">
  <ele>1583.0</ele>
  <time>2026-08-28T17:52:28Z</time>
  <course>269.92</course>
  <speed>4.79</speed>
  <fix>3d</fix>
</trkpt>
<trkpt lat="40.0713752" lon="-105.2299392">
  <ele>1583.14</ele>
  <time>2026-08-28T17:52:28Z</time>
  <course>269.98</course>
  <speed>4.980040160480636</speed>
  <fix>3d</fix>
</trkpt>
<trkpt lat="40.0713752" lon="-105.2299232">
  <ele>1583.0</ele>
  <time>2026-08-28T17:52:28Z</time>
  <course>269.92</course>
  <speed>4.79</speed>
  <fix>3d</fix>
</trkpt>
<trkpt lat="40.0713752" lon="-105.229945">
  <ele>1583.13</ele>
  <time>2026-08-28T17:52:28Z</time>
  <course>269.97</course>
  <speed>5.010039920000638</speed>
  <fix>3d</fix>
</trkpt>
<trkpt lat="40.0713752" lon="-105.2299345">
  <ele>1583.0</ele>
  <time>2026-08-28T17:52:28Z</time>
  <course>269.92</course>
  <speed>4.89</speed>
  <fix>3d</fix>
</trkpt>
<trkpt lat="40.0713752" lon="-105.2299508">
  <ele>1583.13</ele>
  <time>2026-08-28T17:52:28Z</time>
  <course>269.97</course>
  <speed>5.040039682383463</speed>
  <fix>3d</fix>
</trkpt>
<trkpt lat="40.0713752" lon="-105.2299345">
  <ele>1583.0</ele>
  <time>2026-08-28T17:52:28Z</time>
  <course>269.92</course>
  <speed>4.89</speed>
  <fix>3d</fix>
</trkpt>
<trkpt lat="40.0713751" lon="-105.2299566">
  <ele>1583.13</ele>
  <time>2026-08-28T17:52:28Z</time>
  <course>269.97</course>
  <speed>5.050039603805103</speed>
  <fix>3d</fix>
</trkpt>
<trkpt lat="40.0713752" lon="-105.229946">
  <ele>1583.0</ele>
  <time>2026-08-28T17:52:28Z</time>
  <course>269.92</course>
  <speed>4.95</speed>
  <fix>3d</fix>
</trkpt>
<trkpt lat="40.0713751" lon="-105.2299625">
  <ele>1583.13</ele>
  <time>2026-08-28T17:52:28Z</time>
  <course>269.97</course>
  <speed>5.060039525537325</speed>
  <fix>3d</fix>
</trkpt>
<trkpt lat="40.0713752" lon="-105.229946">
  <ele>1583.0</ele>
  <time>2026-08-28T17:52:28Z</time>
  <course>269.92</course>
  <speed>4.95</speed>
  <fix>3d</fix>
</trkpt>
<trkpt lat="40.0713751" lon="-105.2299683">
  <ele>1583.13</ele>
  <time>2026-08-28T17:52:28Z</time>
  <course>269.97</course>
  <speed>5.060039525537325</speed>
  <fix>3d</fix>
</trkpt>
<trkpt lat="40.0713752" lon="-105.2299577">
  <ele>1583.0</ele>
  <time>2026-08-28T17:52:28Z</time>
  <course>269.92</course>
  <speed>4.99</speed>
  <fix>3d</fix>
</trkpt>
<trkpt lat="40.0713751" lon="-105.2299742">
  <ele>1583.13</ele>
  <time>2026-08-28T17:52:28Z</time>
  <course>269.97</course>
  <speed>5.050039603805103</speed>
  <fix>3d</fix>
</trkpt>
<trkpt lat="40.0713752" lon="-105.2299577">
  <ele>1583.0</ele>
  <time>2026-08-28T17:52:28Z</time>
  <course>269.92</course>
  <speed>4.99</speed>
  <fix>3d</fix>
</trkpt>
<trkpt lat="40.0713751" lon="-105.22998">
  <ele>1583.13</ele>
  <time>2026-08-28T17:52:28Z</time>
  <course>269.96</course>
  <speed>5.030039761274258</speed>
  <fix>3d</fix>
</trkpt>
<trkpt lat="40.0713752" lon="-105.2299695">
  <ele>1583.0</ele>
  <time>2026-08-28T17:52:28Z</time>
  <course>269.92</course>
  <speed>4.99</speed>
  <fix>3d</fix>
</trkpt>
<trkpt lat="40.0713751" lon="-105.2299859">
  <ele>1583.13</ele>
  <time>2026-08-28T17:52:28Z</time>
  <course>269.96</course>
  <speed>4.990040079999358</speed>
  <fix>3d</fix>
</trkpt>
<trkpt lat="40.0713752" lon="-105.2299695">
  <ele>1583.0</ele>
  <time>2026-08-28T17:52:28Z</time>
  <course>269.92</course>
  <speed>4.99</speed>
  <fix>3d</fix>
</trkpt>
<trkpt lat="40.0713751" lon="-105.2299917">
  <ele>1583.13</ele>
  <time>2026-08-28T17:52:28Z</time>
  <course>269.96</course>
  <speed>4.950040403875508</speed>
  <fix>3d</fix>
</trkpt>
<trkpt lat="40.0713752" lon="-105.2299812">
  <ele>1583.0</ele>
  <time>2026-08-28T17:52:28Z</time>
  <course>269.92</course>
  <speed>4.94</speed>
  <fix>3d</fix>
</trkpt>
<trkpt lat="40.0713751" lon="-105.2299975">
  <ele>1583.13</ele>
  <time>2026-08-28T17:52:28Z</time>
  <course>269.96</course>
  <speed>4.89004089962446</speed>
  <fix>3d</fix>
</trkpt>
<trkpt lat="40.0713752" lon="-105.2299812">
  <ele>1583.0</ele>
  <time>2026-08-28T17:52:28Z</time>
  <course>269.92</course>
  <speed>4.94</speed>
  <fix>3d</fix>
</trkpt>
<trkpt lat="40.0713751" lon="-105.2300031">
  <ele>1583.14</ele>
  <time>2026-08-28T17:52:28Z</time>
  <course>269.96</course>
  <speed>4.8300414076900005</speed>
  <fix>3d</fix>
</trkpt>
<trkpt lat="40.0713752" lon="-105.2299927">
  <ele>1583.0</ele>
  <time>2026-08-28T17:52:28Z</time>
  <course>269.92</course>
  <speed>4.85</speed>
  <fix>3d</fix>
</trkpt>
<trkpt lat="40.0713751" lon="-105.2300087">
  <ele>1583.14</ele>
  <time>2026-08-28T17:52:28Z</time>
  <course>269.96</course>
  <speed>4.750042105076544</speed>
  <fix>3d</fix>
</trkpt>
<trkpt lat="40.0713752" lon="-105.2299927">
  <ele>1583.0</ele>
  <time>2026-08-28T17:52:28Z</time>
  <course>269.92</course>
  <speed>4.85</speed>
  <fix>3d</fix>
</trkpt>
<trkpt lat="40.0713751" lon="-105.2300142">
  <ele>1583.14</ele>
  <time>2026-08-28T17:52:28Z</time>
  <course>269.95</course>
  <speed>4.6700428263560925</speed>
  <fix>3d</fix>
</trkpt>
<trkpt lat="40.0713751" lon="-105.2300039">
  <ele>1583.0</ele>
  <time>2026-08-28T17:52:28Z</time>
  <course>269.92</course>
  <speed>4.72</speed>
  <fix>3d</fix>
</trkpt>
<trkpt lat="40.0713751" lon="-105.2300196">
  <ele>1583.14</ele>
  <time>2026-08-28T17:52:28Z</time>
  <course>269.95</course>
  <speed>4.5800436679140955</speed>
  <fix>3d</fix>
</trkpt>
<trkpt lat="40.0713751" lon="-105.2300039">
  <ele>1583.0</ele>
  <time>2026-08-28T17:52:28Z</time>
  <course>269.92</course>
  <speed>4.72</speed>
  <fix>3d</fix>
</trkpt>
<trkpt lat="40.071375" lon="-105.2300248">
  <ele>1583.14</ele>
  <time>2026-08-28T17:52:28Z</time>
  <course>269.95</course>
  <speed>4.4900445432088985</speed>
  <fix>3d</fix>
</trkpt>
<trkpt lat="40.0713751" lon="-105.2300148">
  <ele>1583.0</ele>
  <time>2026-08-28T17:52:28Z</time>
  <course>269.92</course>
  <speed>4.56</speed>
  <fix>3d</fix>
</trkpt>
<trkpt lat="40.071375" lon="-105.23003">
  <ele>1583.14</ele>
  <time>2026-08-28T17:52:28Z</time>
  <course>269.94</course>
  <speed>4.380045661862442</speed>
  <fix>3d</fix>
</trkpt>
<trkpt lat="40.0713751" lon="-105.2300148">
  <ele>1583.0</ele>
  <time>2026-08-28T17:52:28Z</time>
  <course>269.92</course>
  <speed>4.56</speed>
  <fix>3d</fix>
</trkpt>
<trkpt lat="40.071375" lon="-105.230035">
  <ele>1583.15</ele>
  <time>2026-08-28T17:52:28Z</time>
  <course>269.94</course>
  <speed>4.280046728716872</speed>
  <fix>3d</fix>
</trkpt>
<trkpt lat="40.0713751" lon="-105.2300253">
  <ele>1583.0</ele>
  <time>2026-08-28T17:52:28Z</time>
  <course>269.92</course>
  <speed>4.38</speed>
  <fix>3d</fix>
</trkpt>
<trkpt lat="40.071375" lon="-105.2300398">
  <ele>1583.15</ele>
  <time>2026-08-28T17:52:28Z</time>
  <course>269.94</course>
  <speed>4.1600480766452685</speed>
  <fix>3d</fix>
</trkpt>
<trkpt lat="40.0713751" lon="-105.2300253">
  <ele>1583.0</ele>
  <time>2026-08-28T17:52:28Z</time>
  <course>269.92</course>
  <speed>4.38</speed>
  <fix>3d</fix>
</trkpt>
<trkpt lat="40.071375" lon="-105.2300445">
  <ele>1583.15</ele>
  <time>2026-08-28T17:52:28Z</time>
  <course>269.93</course>
  <speed>4.04004950464719</speed>
  <fix>3d</fix>
</trkpt>
<trkpt lat="40.0713751" lon="-105.2300354">
  <ele>1583.0</ele>
  <time>2026-08-28T17:52:28Z</time>
  <course>269.92</course>
  <speed>4.16</speed>
  <fix>3d</fix>
</trkpt>
<trkpt lat="40.071375" lon="-105.2300491">
  <ele>1583.15</ele>
  <time>2026-08-28T17:52:28Z</time>
  <course>269.93</course>
  <speed>3.910051150560565</speed>
  <fix>3d</fix>
</trkpt>
<trkpt lat="40.0713751" lon="-105.2300354">
  <ele>1583.0</ele>
  <time>2026-08-28T17:52:28Z</time>
  <course>269.92</course>
  <speed>4.16</speed>
  <fix>3d</fix>
</trkpt>
<trkpt lat="40.071375" lon="-105.2300535">
  <ele>1583.15</ele>
  <time>2026-08-28T17:52:28Z</time>
  <course>269.92</course>
  <speed>3.780052909682614</speed>
  <fix>3d</fix>
</trkpt>
<trkpt lat="40.0713751" lon="-105.2300449">
  <ele>1583.0</ele>
  <time>2026-08-28T17:52:28Z</time>
  <course>269.92</course>
  <speed>3.93</speed>
  <fix>3d</fix>
</trkpt>
<trkpt lat="40.071375" lon="-105.2300577">
  <ele>1583.15</ele>
  <time>2026-08-28T17:52:28Z</time>
  <course>269.94</course>
  <speed>3.650054794109261</speed>
  <fix>3d</fix>
</trkpt>
<trkpt lat="40.0713751" lon="-105.2300449">
  <ele>1583.0</ele>
  <time>2026-08-28T17:52:28Z</time>
  <course>269.92</course>
  <speed>3.93</speed>
  <fix>3d</fix>
</trkpt>
<trkpt lat="40.071375" lon="-105.2300618">
  <ele>1583.15</ele>
  <time>2026-08-28T17:52:28Z</time>
  <course>269.94</course>
  <speed>3.5200568177232596</speed>
  <fix>3d</fix>
</trkpt>
<trkpt lat="40.0713751" lon="-105.2300539">
  <ele>1583.0</ele>
  <time>2026-08-28T17:52:28Z</time>
  <course>269.93</course>
  <speed>3.68</speed>
  <fix>3d</fix>
</trkpt>
<trkpt lat="40.071375" lon="-105.2300658">
  <ele>1583.15</ele>
  <time>2026-08-28T17:52:28Z</time>
  <course>269.97</course>
  <speed>3.3900589965367858</speed>
  <fix>3d</fix>
</trkpt>
<trkpt lat="40.0713751" lon="-105.2300539">
  <ele>1583.0</ele>
  <time>2026-08-28T17:52:28Z</time>
  <course>269.93</course>
  <speed>3.68</speed>
  <fix>3d</fix>
</trkpt>
<trkpt lat="40.071375" lon="-105.2300696">
  <ele>1583.14</ele>
  <time>2026-08-28T17:52:28Z</time>
  <course>269.98</course>
  <speed>3.2600613491159947</speed>
  <fix>3d</fix>
</trkpt>
<trkpt lat="40.0713751" lon="-105.2300622">
  <ele>1583.0</ele>
  <time>2026-08-28T17:52:28Z</time>
  <course>269.96</course>
  <speed>3.43</speed>
  <fix>3d</fix>
</trkpt>
<trkpt lat="40.071375" lon="-105.2300732">
  <ele>1583.14</ele>
  <time>2026-08-28T17:52:28Z</time>
  <course>270.01</course>
  <speed>3.130015974400131</speed>
  <fix>3d</fix>
</trkpt>
<trkpt lat="40.0713751" lon="-105.2300622">
  <ele>1583.0</ele>
  <time>2026-08-28T17:52:28Z</time>
  <course>269.96</course>
  <speed>3.43</speed>
  <fix>3d</fix>
</trkpt>
<trkpt lat="40.071375" lon="-105.2300768">
  <ele>1583.14</ele>
  <time>2026-08-28T17:52:28Z</time>
  <course>270.03</course>
  <speed>3.0000166666203705</speed>
  <fix>3d</fix>
</trkpt>
<trkpt lat="40.0713751" lon="-105.23007">
  <ele>1583.0</ele>
  <time>2026-08-28T17:52:28Z</time>
  <course>270.01</course>
  <speed>3.18</speed>
  <fix>3d</fix>
</trkpt>
<trkpt lat="40.071375" lon="-105.2300802">
  <ele>1583.15</ele>
  <time>2026-08-28T17:52:28Z</time>
  <course>270.06</course>
  <speed>2.8700174215499112</speed>
  <fix>3d</fix>
</trkpt>
<trkpt lat="40.0713751" lon="-105.23007">
  <ele>1583.0</ele>
  <time>2026-08-28T17:52:28Z</time>
  <course>270.01</course>
  <speed>3.18</speed>
  <fix>3d</fix>
</trkpt>
<trkpt lat="40.071375" lon="-105.2300834">
  <ele>1583.15</ele>
  <time>2026-08-28T17:52:28Z</time>
  <course>270.1</course>
  <speed>2.7500181817580773</speed>
  <fix>3d</fix>
</trkpt>
<trkpt lat="40.0713751" lon="-105.2300772">
  <ele>1583.0</ele>
  <time>2026-08-28T17:52:28Z</time>
  <course>270.08</course>
  <speed>2.93</speed>
  <fix>3d</fix>
</trkpt>
<trkpt lat="40.071375" lon="-105.2300865">
  <ele>1583.15</ele>
  <time>2026-08-28T17:52:28Z</time>
  <course>270.13</course>
  <speed>2.620019083899963</speed>
  <fix>3d</fix>
</trkpt>
<trkpt lat="40.0713751" lon="-105.2300772">
  <ele>1583.0</ele>
  <time>2026-08-28T17:52:28Z</time>
  <course>270.08</course>
  <speed>2.93</speed>
  <fix>3d</fix>
</trkpt>
<trkpt lat="40.071375" lon="-105.2300895">
  <ele>1583.15</ele>
  <time>2026-08-28T17:52:28Z</time>
  <course>270.16</course>
  <speed>2.5000199999200006</speed>
  <fix>3d</fix>
</trkpt>
<trkpt lat="40.0713751" lon="-105.2300838">
  <ele>1583.0</ele>
  <time>2026-08-28T17:52:28Z</time>
  <course>270.15</course>
  <speed>2.68</speed>
  <fix>3d</fix>
</trkpt>
<trkpt lat="40.071375" lon="-105.2300923">
  <ele>1583.15</ele>
  <time>2026-08-28T17:52:28Z</time>
  <course>270.19</course>
  <speed>2.39</speed>
  <fix>3d</fix>
</trkpt>
<trkpt lat="40.0713751" lon="-105.2300838">
  <ele>1583.0</ele>
  <time>2026-08-28T17:52:28Z</time>
  <course>270.15</course>
  <speed>2.68</speed>
  <fix>3d</fix>
</trkpt>
<trkpt lat="40.071375" lon="-105.230095">
  <ele>1583.15</ele>
  <time>2026-08-28T17:52:28Z</time>
  <course>270.21</course>
  <speed>2.27</speed>
  <fix>3d</fix>
</trkpt>
<trkpt lat="40.0713751" lon="-105.2300898">
  <ele>1583.0</ele>
  <time>2026-08-28T17:52:28Z</time>
  <course>270.22</course>
  <speed>2.45</speed>
  <fix>3d</fix>
</trkpt>
<trkpt lat="40.071375" lon="-105.2300976">
  <ele>1583.15</ele>
  <time>2026-08-28T17:52:28Z</time>
  <course>270.24</course>
  <speed>2.16</speed>
  <fix>3d</fix>
</trkpt>
<trkpt lat="40.0713751" lon="-105.2300898">
  <ele>1583.0</ele>
  <time>2026-08-28T17:52:28Z</time>
  <course>270.22</course>
  <speed>2.45</speed>
  <fix>3d</fix>
</trkpt>
<trkpt lat="40.071375" lon="-105.2301">
  <ele>1583.15</ele>
  <time>2026-08-28T17:52:28Z</time>
  <course>270.26</course>
  <speed>2.05</speed>
  <fix>3d</fix>
</trkpt>
<trkpt lat="40.0713751" lon="-105.2300952">
  <ele>1583.0</ele>
  <time>2026-08-28T17:52:28Z</time>
  <course>270.28</course>
  <speed>2.22</speed>
  <fix>3d</fix>
</trkpt>
<trkpt lat="40.071375" lon="-105.2301023">
  <ele>1583.15</ele>
  <time>2026-08-28T17:52:28Z</time>
  <course>270.28</course>
  <speed>1.94</speed>
  <fix>3d</fix>
</trkpt>
<trkpt lat="40.0713751" lon="-105.2300952">
  <ele>1583.0</ele>
  <time>2026-08-28T17:52:28Z</time>
  <course>270.28</course>
  <speed>2.22</speed>
  <fix>3d</fix>
</trkpt>
<trkpt lat="40.071375" lon="-105.2301045">
  <ele>1583.15</ele>
  <time>2026-08-28T17:52:28Z</time>
  <course>270.3</course>
  <speed>1.83</speed>
  <fix>3d</fix>
</trkpt>
<trkpt lat="40.0713751" lon="-105.2301002">
  <ele>1583.0</ele>
  <time>2026-08-28T17:52:28Z</time>
  <course>270.34</course>
  <speed>2.01</speed>
  <fix>3d</fix>
</trkpt>
<trkpt lat="40.071375" lon="-105.2301066">
  <ele>1583.15</ele>
  <time>2026-08-28T17:52:28Z</time>
  <course>270.33</course>
  <speed>1.73</speed>
  <fix>3d</fix>
</trkpt>
<trkpt lat="40.0713751" lon="-105.2301002">
  <ele>1583.0</ele>
  <time>2026-08-28T17:52:28Z</time>
  <course>270.34</course>
  <speed>2.01</speed>
  <fix>3d</fix>
</trkpt>
<trkpt lat="40.071375" lon="-105.2301085">
  <ele>1583.15</ele>
  <time>2026-08-28T17:52:28Z</time>
  <course>270.37</course>
  <speed>1.63</speed>
  <fix>3d</fix>
</trkpt>
<trkpt lat="40.0713751" lon="-105.2301047">
  <ele>1583.0</ele>
  <time>2026-08-28T17:52:28Z</time>
  <course>270.4</course>
  <speed>1.8</speed>
  <fix>3d</fix>
</trkpt>
<trkpt lat="40.071375" lon="-105.2301103">
  <ele>1583.15</ele>
  <time>2026-08-28T17:52:28Z</time>
  <course>270.41</course>
  <speed>1.52</speed>
  <fix>3d</fix>
</trkpt>
<trkpt lat="40.0713751" lon="-105.2301047">
  <ele>1583.0</ele>
  <time>2026-08-28T17:52:28Z</time>
  <course>270.4</course>
  <speed>1.8</speed>
  <fix>3d</fix>
</trkpt>
<trkpt lat="40.071375" lon="-105.230112">
  <ele>1583.15</ele>
  <time>2026-08-28T17:52:28Z</time>
  <course>270.44</course>
  <speed>1.42</speed>
  <fix>3d</fix>
</trkpt>
<trkpt lat="40.0713751" lon="-105.2301088">
  <ele>1583.0</ele>
  <time>2026-08-28T17:52:28Z</time>
  <course>270.48</course>
  <speed>1.6</speed>
  <fix>3d</fix>
</trkpt>
<trkpt lat="40.071375" lon="-105.2301136">
  <ele>1583.15</ele>
  <time>2026-08-28T17:52:28Z</time>
  <course>270.49</course>
  <speed>1.33</speed>
  <fix>3d</fix>
</trkpt>
<trkpt lat="40.0713751" lon="-105.2301088">
  <ele>1583.0</ele>
  <time>2026-08-28T17:52:28Z</time>
  <course>270.48</course>
  <speed>1.6</speed>
  <fix>3d</fix>
</trkpt>
<trkpt lat="40.071375" lon="-105.2301151">
  <ele>1583.14</ele>
  <time>2026-08-28T17:52:28Z</time>
  <course>270.55</course>
  <speed>1.23</speed>
  <fix>3d</fix>
</trkpt>
<trkpt lat="40.0713751" lon="-105.2301123">
  <ele>1583.0</ele>
  <time>2026-08-28T17:52:28Z</time>
  <course>270.58</course>
  <speed>1.4</speed>
  <fix>3d</fix>
</trkpt>
<trkpt lat="40.071375" lon="-105.2301164">
  <ele>1583.14</ele>
  <time>2026-08-28T17:52:28Z</time>
  <course>270.61</course>
  <speed>1.13</speed>
  <fix>3d</fix>
</trkpt>
<trkpt lat="40.0713751" lon="-105.2301123">
  <ele>1583.0</ele>
  <time>2026-08-28T17:52:28Z</time>
  <course>270.58</course>
  <speed>1.4</speed>
  <fix>3d</fix>
</trkpt>
<trkpt lat="40.071375" lon="-105.2301177">
  <ele>1583.14</ele>
  <time>2026-08-28T17:52:28Z</time>
  <course>270.68</course>
  <speed>1.03</speed>
  <fix>3d</fix>
</trkpt>
<trkpt lat="40.0713751" lon="-105.2301153">
  <ele>1583.0</ele>
  <time>2026-08-28T17:52:28Z</time>
  <course>270.7</course>
  <speed>1.21</speed>
  <fix>3d</fix>
</trkpt>
<trkpt lat="40.071375" lon="-105.2301188">
  <ele>1583.14</ele>
  <time>2026-08-28T17:52:28Z</time>
  <course>270.77</course>
  <speed>0.94</speed>
  <fix>3d</fix>
</trkpt>
<trkpt lat="40.0713751" lon="-105.2301153">
  <ele>1583.0</ele>
  <time>2026-08-28T17:52:28Z</time>
  <course>270.7</course>
  <speed>1.21</speed>
  <fix>3d</fix>
</trkpt>
<trkpt lat="40.0713751" lon="-105.2301198">
  <ele>1583.14</ele>
  <time>2026-08-28T17:52:28Z</time>
  <course>270.87</course>
  <speed>0.84</speed>
  <fix>3d</fix>
</trkpt>
<trkpt lat="40.0713752" lon="-105.2301179">
  <ele>1583.0</ele>
  <time>2026-08-28T17:52:28Z</time>
  <course>270.86</course>
  <speed>1.02</speed>
  <fix>3d</fix>
</trkpt>
<trkpt lat="40.0713751" lon="-105.2301208">
  <ele>1583.14</ele>
  <time>2026-08-28T17:52:28Z</time>
  <course>270.96</course>
  <speed>0.75</speed>
  <fix>3d</fix>
</trkpt>
<trkpt lat="40.0713752" lon="-105.2301179">
  <ele>1583.0</ele>
  <time>2026-08-28T17:52:28Z</time>
  <course>270.86</course>
  <speed>1.02</speed>
  <fix>3d</fix>
</trkpt>
<trkpt lat="40.0713751" lon="-105.2301216">
  <ele>1583.14</ele>
  <time>2026-08-28T17:52:28Z</time>
  <course>271.06</course>
  <speed>0.65</speed>
  <fix>3d</fix>
</trkpt>
<trkpt lat="40.0713752" lon="-105.2301201">
  <ele>1583.0</ele>
  <time>2026-08-28T17:52:28Z</time>
  <course>271.05</course>
  <speed>0.83</speed>
  <fix>3d</fix>
</trkpt>
<trkpt lat="40.0713751" lon="-105.2301223">
  <ele>1583.14</ele>
  <time>2026-08-28T17:52:28Z</time>
  <course>271.15</course>
  <speed>0.55</speed>
  <fix>3d</fix>
</trkpt>
<trkpt lat="40.0713752" lon="-105.2301201">
  <ele>1583.0</ele>
  <time>2026-08-28T17:52:28Z</time>
  <course>271.05</course>
  <speed>0.83</speed>
  <fix>3d</fix>
</trkpt>
<trkpt lat="40.0713751" lon="-105.2301229">
  <ele>1583.15</ele>
  <time>2026-08-28T17:52:28Z</time>
  <course>271.23</course>
  <speed>0.46</speed>
  <fix>3d</fix>
</trkpt>
<trkpt lat="40.0713752" lon="-105.2301219">
  <ele>1583.0</ele>
  <time>2026-08-28T17:52:28Z</time>
  <course>271.24</course>
  <speed>0.64</speed>
  <fix>3d</fix>
</trkpt>
<trkpt lat="40.0713751" lon="-105.2301234">
  <ele>1583.15</ele>
  <time>2026-08-28T17:52:28Z</time>
  <course>271.31</course>
  <speed>0.36</speed>
  <fix>3d</fix>
</trkpt>
<trkpt lat="40.0713752" lon="-105.2301219">
  <ele>1583.0</ele>
  <time>2026-08-28T17:52:28Z</time>
  <course>271.24</course>
  <speed>0.64</speed>
  <fix>3d</fix>
</trkpt>
<trkpt lat="40.0713751" lon="-105.2301238">
  <ele>1583.15</ele>
  <time>2026-08-28T17:52:28Z</time>
  <course>271.37</course>
  <speed>0.27018512172212594</speed>
  <fix>3d</fix>
</trkpt>
<trkpt lat="40.0713753" lon="-105.2301232">
  <ele>1583.0</ele>
  <time>2026-08-28T17:52:28Z</time>
  <course>271.41</course>
  <speed>0.45</speed>
  <fix>3d</fix>
</trkpt>
<trkpt lat="40.0713751" lon="-105.2301241">
  <ele>1583.15</ele>
  <time>2026-08-28T17:52:28Z</time>
  <course>271.41</course>
  <speed>0.17029386365926402</speed>
  <fix>3d</fix>
</trkpt>
<trkpt lat="40.0713753" lon="-105.2301232">
  <ele>1583.0</ele>
  <time>2026-08-28T17:52:28Z</time>
  <course>271.41</course>
  <speed>0.45</speed>
  <fix>3d</fix>
</trkpt>
<trkpt lat="40.0713751" lon="-105.2301242">
  <ele>1583.15</ele>
  <time>2026-08-28T17:52:28Z</time>
  <course>271.44</course>
  <speed>0.07071067811865475</speed>
  <fix>3d</fix>
</trkpt>
<trkpt lat="40.0713753" lon="-105.2301241">
  <ele>1583.0</ele>
  <time>2026-08-28T17:52:28Z</time>
  <course>271.54</course>
  <speed>0.26</speed>
  <fix>3d</fix>
</trkpt>
<trkpt lat="40.0713751" lon="-105.2301243">
  <ele>1583.15</ele>
  <time>2026-08-28T17:52:28Z</time>
  <course>271.46</course>
  <speed>0.01</speed>
  <fix>3d</fix>
</trkpt>
<trkpt lat="40.0713753" lon="-105.2301241">
  <ele>1583.0</ele>
  <time>2026-08-28T17:52:28Z</time>
  <course>271.54</course>
  <speed>0.26</speed>
  <fix>3d</fix>
</trkpt>
<trkpt lat="40.0713751" lon="-105.2301242">
  <ele>1583.15</ele>
  <time>2026-08-28T17:52:28Z</time>
  <course>271.45</course>
  <speed>0.08062257748298549</speed>
  <fix>3d</fix>
</trkpt>
<trkpt lat="40.0713753" lon="-105.2301244">
  <ele>1583.0</ele>
  <time>2026-08-28T17:52:28Z</time>
  <course>271.61</course>
  <speed>0.07</speed>
  <fix>3d</fix>
</trkpt>
<trkpt lat="40.0713751" lon="-105.2301241">
  <ele>1583.15</ele>
  <time>2026-08-28T17:52:28Z</time>
  <course>271.46</course>
  <speed>0.13152946437965907</speed>
  <fix>3d</fix>
</trkpt>
<trkpt lat="40.0713753" lon="-105.2301244">
  <ele>1583.0</ele>
  <time>2026-08-28T17:52:28Z</time>
  <course>271.61</course>
  <speed>0.07</speed>
  <fix>3d</fix>
</trkpt>
<trkpt lat="40.0713751" lon="-105.230124">
  <ele>1583.15</ele>
  <time>2026-08-28T17:52:28Z</time>
  <course>271.48</course>
  <speed>0.16124515496597097</speed>
  <fix>3d</fix>
</trkpt>
<trkpt lat="40.0713753" lon="-105.2301244">
  <ele>1583.0</ele>
  <time>2026-08-28T17:52:28Z</time>
  <course>91.66</course>
  <speed>0.06</speed>
  <fix>3d</fix>
</trkpt>
<trkpt lat="40.0713751" lon="-105.2301239">
  <ele>1583.15</ele>
  <time>2026-08-28T17:52:28Z</time>
  <course>271.51</course>
  <speed>0.18110770276274835</speed>
  <fix>3d</fix>
</trkpt>
<trkpt lat="40.0713753" lon="-105.2301244">
  <ele>1583.0</ele>
  <time>2026-08-28T17:52:28Z</time>
  <course>91.66</course>
  <speed>0.06</speed>
  <fix>3d</fix>
</trkpt>
<trkpt lat="40.0713751" lon="-105.2301237">
  <ele>1583.15</ele>
  <time>2026-08-28T17:52:28Z</time>
  <course>271.54</course>
  <speed>0.18110770276274835</speed>
  <fix>3d</fix>
</trkpt>
<trkpt lat="40.0713753" lon="-105.2301242">
  <ele>1583.0</ele>
  <time>2026-08-28T17:52:28Z</time>
  <course>91.7</course>
  <speed>0.12</speed>
  <fix>3d</fix>
</trkpt>
<trkpt lat="40.0713751" lon="-105.2301235">
  <ele>1583.15</ele>
  <time>2026-08-28T17:52:28Z</time>
  <course>271.58</course>
  <speed>0.1711724276862369</speed>
  <fix>3d</fix>
</trkpt>
<trkpt lat="40.0713753" lon="-105.2301242">
  <ele>1583.0</ele>
  <time>2026-08-28T17:52:28Z</time>
  <course>91.7</course>
  <speed>0.12</speed>
  <fix>3d</fix>
</trkpt>
<trkpt lat="40.0713751" lon="-105.2301233">
  <ele>1583.15</ele>
  <time>2026-08-28T17:52:28Z</time>
  <course>271.61</course>
  <speed>0.13152946437965907</speed>
  <fix>3d</fix>
</trkpt>
<trkpt lat="40.0713753" lon="-105.2301239">
  <ele>1583.0</ele>
  <time>2026-08-28T17:52:28Z</time>
  <course>91.77</course>
  <speed>0.12</speed>
  <fix>3d</fix>
</trkpt>
<trkpt lat="40.0713751" lon="-105.2301233">
  <ele>1583.14</ele>
  <time>2026-08-28T17:52:28Z</time>
  <course>271.63</course>
  <speed>0.09219544457292887</speed>
  <fix>3d</fix>
</trkpt>
<trkpt lat="40.0713753" lon="-105.2301239">
  <ele>1583.0</ele>
  <time>2026-08-28T17:52:28Z</time>
  <course>91.77</course>
  <speed>0.12</speed>
  <fix>3d</fix>
</trkpt>
<trkpt lat="40.0713751" lon="-105.2301232">
  <ele>1583.14</ele>
  <time>2026-08-28T17:52:28Z</time>
  <course>271.63</course>
  <speed>0.0316227766016838</speed>
  <fix>3d</fix>
</trkpt>
<trkpt lat="40.0713753" lon="-105.2301237">
  <ele>1583.0</ele>
  <time>2026-08-28T17:52:28Z</time>
  <course>91.82</course>
  <speed>0.07</speed>
  <fix>3d</fix>
</trkpt>
<trkpt lat="40.0713751" lon="-105.2301233">
  <ele>1583.14</ele>
  <time>2026-08-28T17:52:28Z</time>
  <course>271.63</course>
  <speed>0.0316227766016838</speed>
  <fix>3d</fix>
</trkpt>
<trkpt lat="40.0713753" lon="-105.2301237">
  <ele>1583.0</ele>
  <time>2026-08-28T17:52:28Z</time>
  <course>91.82</course>
  <speed>0.07</speed>
  <fix>3d</fix>
</trkpt>
<trkpt lat="40.0713751" lon="-105.2301234">
  <ele>1583.14</ele>
  <time>2026-08-28T17:52:28Z</time>
  <course>271.66</course>
  <speed>0.11045361017187261</speed>
  <fix>3d</fix>
</trkpt>
<trkpt lat="40.0713753" lon="-105.2301237">
  <ele>1583.0</ele>
  <time>2026-08-28T17:52:28Z</time>
  <course>271.89</course>
  <speed>0.04</speed>
  <fix>3d</fix>
</trkpt>
<trkpt lat="40.0713751" lon="-105.2301237">
  <ele>1583.15</ele>
  <time>2026-08-28T17:52:28Z</time>
  <course>271.73</course>
  <speed>0.2002498439450079</speed>
  <fix>3d</fix>
</trkpt>
<trkpt lat="40.0713753" lon="-105.2301237">
  <ele>1583.0</ele>
  <time>2026-08-28T17:52:28Z</time>
  <course>271.89</course>
  <speed>0.04</speed>
  <fix>3d</fix>
</trkpt>
<trkpt lat="40.0713751" lon="-105.230124">
  <ele>1583.15</ele>
  <time>2026-08-28T17:52:28Z</time>
  <course>271.83</course>
  <speed>0.29</speed>
  <fix>3d</fix>
</trkpt>
<trkpt lat="40.0713753" lon="-105.2301239">
  <ele>1583.0</ele>
  <time>2026-08-28T17:52:28Z</time>
  <course>271.98</course>
  <speed>0.19</speed>
  <fix>3d</fix>
</trkpt>
<trkpt lat="40.0713751" lon="-105.2301244">
  <ele>1583.15</ele>
  <time>2026-08-28T17:52:28Z</time>
  <course>271.97</course>
  <speed>0.39</speed>
  <fix>3d</fix>
</trkpt>
<trkpt lat="40.0713753" lon="-105.2301239">
  <ele>1583.0</ele>
  <time>2026-08-28T17:52:28Z</time>
  <course>271.98</course>
  <speed>0.19</speed>
  <fix>3d</fix>
</trkpt>
<trkpt lat="40.0713751" lon="-105.230125">
  <ele>1583.15</ele>
  <time>2026-08-28T17:52:28Z</time>
  <course>272.18</course>
  <speed>0.49</speed>
  <fix>3d</fix>
</trkpt>
<trkpt lat="40.0713753" lon="-105.2301245">
  <ele>1583.0</ele>
  <time>2026-08-28T17:52:28Z</time>
  <course>272.22</course>
  <speed>0.37</speed>
  <fix>3d</fix>
</trkpt>
<trkpt lat="40.0713752" lon="-105.2301257">
  <ele>1583.15</ele>
  <time>2026-08-28T17:52:28Z</time>
  <course>272.45</course>
  <speed>0.59</speed>
  <fix>3d</fix>
</trkpt>
<trkpt lat="40.0713753" lon="-105.2301245">
  <ele>1583.0</ele>
  <time>2026-08-28T17:52:28Z</time>
  <course>272.22</course>
  <speed>0.37</speed>
  <fix>3d</fix>
</trkpt>
<trkpt lat="40.0713752" lon="-105.2301265">
  <ele>1583.15</ele>
  <time>2026-08-28T17:52:28Z</time>
  <course>272.81</course>
  <speed>0.6900724599634447</speed>
  <fix>3d</fix>
</trkpt>
<trkpt lat="40.0713753" lon="-105.2301256">
  <ele>1583.0</ele>
  <time>2026-08-28T17:52:28Z</time>
  <course>272.67</course>
  <speed>0.56</speed>
  <fix>3d</fix>
</trkpt>
<trkpt lat="40.0713752" lon="-105.2301274">
  <ele>1583.15</ele>
  <time>2026-08-28T17:52:28Z</time>
  <course>273.28</course>
  <speed>0.7902531240052139</speed>
  <fix>3d</fix>
</trkpt>
<trkpt lat="40.0713753" lon="-105.2301256">
  <ele>1583.0</ele>
  <time>2026-08-28T17:52:28Z</time>
  <course>272.67</course>
  <speed>0.56</speed>
  <fix>3d</fix>
</trkpt>
<trkpt lat="40.0713753" lon="-105.2301285">
  <ele>1583.15</ele>
  <time>2026-08-28T17:52:28Z</time>
  <course>273.89</course>
  <speed>0.8908984229416954</speed>
  <fix>3d</fix>
</trkpt>
<trkpt lat="40.0713754" lon="-105.2301272">
  <ele>1583.0</ele>
  <time>2026-08-28T17:52:28Z</time>
  <course>273.46</course>
  <speed>0.75</speed>
  <fix>3d</fix>
</trkpt>
<trkpt lat="40.0713753" lon="-105.2301296">
  <ele>1583.15</ele>
  <time>2026-08-28T17:52:28Z</time>
  <course>274.64</course>
  <speed>0.9812746812182611</speed>
  <fix>3d</fix>
</trkpt>
<trkpt lat="40.0713754" lon="-105.2301272">
  <ele>1583.0</ele>
  <time>2026-08-28T17:52:28Z</time>
  <course>273.46</course>
  <speed>0.75</speed>
  <fix>3d</fix>
</trkpt>
<trkpt lat="40.0713754" lon="-105.2301309">
  <ele>1583.16</ele>
  <time>2026-08-28T17:52:28Z</time>
  <course>275.57</course>
  <speed>1.0630145812734648</speed>
  <fix>3d</fix>
</trkpt>
<trkpt lat="40.0713755" lon="-105.2301291">
  <ele>1583.0</ele>
  <time>2026-08-28T17:52:28Z</time>
  <course>274.74</course>
  <speed>0.93</speed>
  <fix>3d</fix>
</trkpt>
<trkpt lat="40.0713755" lon="-105.2301322">
  <ele>1583.16</ele>
  <time>2026-08-28T17:52:28Z</time>
  <course>276.64</course>
  <speed>1.155248890932166</speed>
  <fix>3d</fix>
</trkpt>
<trkpt lat="40.0713755" lon="-105.2301291">
  <ele>1583.0</ele>
  <time>2026-08-28T17:52:28Z</time>
  <course>274.74</course>
  <speed>0.93</speed>
  <fix>3d</fix>
</trkpt>
<trkpt lat="40.0713757" lon="-105.2301336">
  <ele>1583.16</ele>
  <time>2026-08-28T17:52:28Z</time>
  <course>277.87</course>
  <speed>1.2280065146407002</speed>
  <fix>3d</fix>
</trkpt>
<trkpt lat="40.0713757" lon="-105.2301315">
  <ele>1583.0</ele>
  <time>2026-08-28T17:52:28Z</time>
  <course>276.62</course>
  <speed>1.1</speed>
  <fix>3d</fix>
</trkpt>
<trkpt lat="40.0713758" lon="-105.2301351">
  <ele>1583.15</ele>
  <time>2026-08-28T17:52:28Z</time>
  <course>279.3</course>
  <speed>1.3039171752837677</speed>
  <fix>3d</fix>
</trkpt>
<trkpt lat="40.0713757" lon="-105.2301315">
  <ele>1583.0</ele>
  <time>2026-08-28T17:52:28Z</time>
  <course>276.62</course>
  <speed>1.1</speed>
  <fix>3d</fix>
</trkpt>
<trkpt lat="40.071376" lon="-105.2301367">
  <ele>1583.15</ele>
  <time>2026-08-28T17:52:28Z</time>
  <course>280.94</course>
  <speed>1.3711673858431725</speed>
  <fix>3d</fix>
</trkpt>
<trkpt lat="40.071376" lon="-105.2301343">
  <ele>1583.0</ele>
  <time>2026-08-28T17:52:28Z</time>
  <course>279.17</course>
  <speed>1.25</speed>
  <fix>3d</fix>
</trkpt>
<trkpt lat="40.0713763" lon="-105.2301383">
  <ele>1583.15</ele>
  <time>2026-08-28T17:52:28Z</time>
  <course>282.83</course>
  <speed>1.4297202523570827</speed>
  <fix>3d</fix>
</trkpt>
<trkpt lat="40.071376" lon="-105.2301343">
  <ele>1583.0</ele>
  <time>2026-08-28T17:52:28Z</time>
  <course>279.17</course>
  <speed>1.25</speed>
  <fix>3d</fix>
</trkpt>
<trkpt lat="40.0713766" lon="-105.23014">
  <ele>1583.14</ele>
  <time>2026-08-28T17:52:28Z</time>
  <course>284.99</course>
  <speed>1.4940214188558343</speed>
  <fix>3d</fix>
</trkpt>
<trkpt lat="40.0713764" lon="-105.2301373">
  <ele>1583.0</ele>
  <time>2026-08-28T17:52:28Z</time>
  <course>282.55</course>
  <speed>1.38</speed>
  <fix>3d</fix>
</trkpt>
<trkpt lat="40.071377" lon="-105.2301417">
  <ele>1583.14</ele>
  <time>2026-08-28T17:52:28Z</time>
  <course>287.46</course>
  <speed>1.5440207252495026</speed>
  <fix>3d</fix>
</trkpt>
<trkpt lat="40.0713764" lon="-105.2301373">
  <ele>1583.0</ele>
  <time>2026-08-28T17:52:28Z</time>
  <course>282.55</course>
  <speed>1.38</speed>
  <fix>3d</fix>
</trkpt>
<trkpt lat="40.0713775" lon="-105.2301435">
  <ele>1583.14</ele>
  <time>2026-08-28T17:52:28Z</time>
  <course>290.3</course>
  <speed>1.6003124694883808</speed>
  <fix>3d</fix>
</trkpt>
<trkpt lat="40.071377" lon="-105.2301406">
  <ele>1583.0</ele>
  <time>2026-08-28T17:52:28Z</time>
  <course>286.98</course>
  <speed>1.5</speed>
  <fix>3d</fix>
</trkpt>
<trkpt lat="40.0713781" lon="-105.2301453">
  <ele>1583.14</ele>
  <time>2026-08-28T17:52:28Z</time>
  <course>293.5</course>
  <speed>1.645387492355524</speed>
  <fix>3d</fix>
</trkpt>
<trkpt lat="40.071377" lon="-105.2301406">
  <ele>1583.0</ele>
  <time>2026-08-28T17:52:28Z</time>
  <course>286.98</course>
  <speed>1.5</speed>
  <fix>3d</fix>
</trkpt>
<trkpt lat="40.0713787" lon="-105.2301471">
  <ele>1583.14</ele>
  <time>2026-08-28T17:52:28Z</time>
  <course>297.11</course>
  <speed>1.686001186239203</speed>
  <fix>3d</fix>
</trkpt>
<trkpt lat="40.071378" lon="-105.2301441">
  <ele>1583.0</ele>
  <time>2026-08-28T17:52:28Z</time>
  <course>292.74</course>
  <speed>1.6</speed>
  <fix>3d</fix>
</trkpt>
<trkpt lat="40.0713795" lon="-105.2301488">
  <ele>1583.14</ele>
  <time>2026-08-28T17:52:28Z</time>
  <course>301.14</course>
  <speed>1.7253985046939155</speed>
  <fix>3d</fix>
</trkpt>
<trkpt lat="40.071378" lon="-105.2301441">
  <ele>1583.0</ele>
  <time>2026-08-28T17:52:28Z</time>
  <course>292.74</course>
  <speed>1.6</speed>
  <fix>3d</fix>
</trkpt>
<trkpt lat="40.0713804" lon="-105.2301505">
  <ele>1583.14</ele>
  <time>2026-08-28T17:52:28Z</time>
  <course>305.68</course>
  <speed>1.7670880000724356</speed>
  <fix>3d</fix>
</trkpt>
<trkpt lat="40.0713793" lon="-105.2301476">
  <ele>1583.0</ele>
  <time>2026-08-28T17:52:28Z</time>
  <course>300.1</course>
  <speed>1.68</speed>
  <fix>3d</fix>
</trkpt>
<trkpt lat="40.0713814" lon="-105.2301522">
  <ele>1583.14</ele>
  <time>2026-08-28T17:52:28Z</time>
  <course>310.8</course>
  <speed>1.8027756377319946</speed>
  <fix>3d</fix>
</trkpt>
<trkpt lat="40.0713793" lon="-105.2301476">
  <ele>1583.0</ele>
  <time>2026-08-28T17:52:28Z</time>
  <course>300.1</course>
  <speed>1.68</speed>
  <fix>3d</fix>
</trkpt>
<trkpt lat="40.0713826" lon="-105.2301537">
  <ele>1583.14</ele>
  <time>2026-08-28T17:52:28Z</time>
  <course>316.59</course>
  <speed>1.8245547402037574</speed>
  <fix>3d</fix>
</trkpt>
<trkpt lat="40.071381" lon="-105.2301509">
  <ele>1583.0</ele>
  <time>2026-08-28T17:52:28Z</time>
  <course>309.41</course>
  <speed>1.75</speed>
  <fix>3d</fix>
</trkpt>
<trkpt lat="40.0713839" lon="-105.2301551">
  <ele>1583.14</ele>
  <time>2026-08-28T17:52:28Z</time>
  <course>323.16</course>
  <speed>1.8321844885272882</speed>
  <fix>3d</fix>
</trkpt>
<trkpt lat="40.071381" lon="-105.2301509">
  <ele>1583.0</ele>
  <time>2026-08-28T17:52:28Z</time>
  <course>309.41</course>
  <speed>1.75</speed>
  <fix>3d</fix>
</trkpt>
<trkpt lat="40.0713853" lon="-105.2301563">
  <ele>1583.14</ele>
  <time>2026-08-28T17:52:28Z</time>
  <course>330.38</course>
  <speed>1.8420097719610502</speed>
  <fix>3d</fix>
</trkpt>
<trkpt lat="40.0713833" lon="-105.2301539">
  <ele>1583.0</ele>
  <time>2026-08-28T17:52:28Z</time>
  <course>321.15</course>
  <speed>1.8</speed>
  <fix>3d</fix>
</trkpt>
<trkpt lat="40.0713868" lon="-105.2301572">
  <ele>1583.14</ele>
  <time>2026-08-28T17:52:28Z</time>
  <course>338.28</course>
  <speed>1.8477283350103175</speed>
  <fix>3d</fix>
</trkpt>
<trkpt lat="40.0713833" lon="-105.2301539">
  <ele>1583.0</ele>
  <time>2026-08-28T17:52:28Z</time>
  <course>321.15</course>
  <speed>1.8</speed>
  <fix>3d</fix>
</trkpt>
<trkpt lat="40.0713885" lon="-105.2301579">
  <ele>1583.14</ele>
  <time>2026-08-28T17:52:28Z</time>
  <course>346.79</course>
  <speed>1.8432851108821986</speed>
  <fix>3d</fix>
</trkpt>
<trkpt lat="40.0713861" lon="-105.230156">
  <ele>1583.0</ele>
  <time>2026-08-28T17:52:28Z</time>
  <course>335.64</course>
  <speed>1.82</speed>
  <fix>3d</fix>
</trkpt>
<trkpt lat="40.0713901" lon="-105.2301581">
  <ele>1583.14</ele>
  <time>2026-08-28T17:52:28Z</time>
  <course>355.77</course>
  <speed>1.8361372497719228</speed>
  <fix>3d</fix>
</trkpt>
<trkpt lat="40.0713861" lon="-105.230156">
  <ele>1583.0</ele>
  <time>2026-08-28T17:52:28Z</time>
  <course>335.64</course>
  <speed>1.82</speed>
  <fix>3d</fix>
</trkpt>
<trkpt lat="40.0713918" lon="-105.230158">
  <ele>1583.14</ele>
  <time>2026-08-28T17:52:28Z</time>
  <course>5.05</course>
  <speed>1.8253766734567416</speed>
  <fix>3d</fix>
</trkpt>
<trkpt lat="40.0713892" lon="-105.2301573">
  <ele>1583.0</ele>
  <time>2026-08-28T17:52:28Z</time>
  <course>352.55</course>
  <speed>1.81</speed>
  <fix>3d</fix>
</trkpt>
<trkpt lat="40.0713935" lon="-105.2301576">
  <ele>1583.14</ele>
  <time>2026-08-28T17:52:28Z</time>
  <course>14.43</course>
  <speed>1.8141664752717708</speed>
  <fix>3d</fix>
</trkpt>
<trkpt lat="40.0713892" lon="-105.2301573">
  <ele>1583.0</ele>
  <time>2026-08-28T17:52:28Z</time>
  <course>352.55</course>
  <speed>1.81</speed>
  <fix>3d</fix>
</trkpt>
<trkpt lat="40.071395" lon="-105.2301568">
  <ele>1583.14</ele>
  <time>2026-08-28T17:52:28Z</time>
  <course>23.69</course>
  <speed>1.7962739212046697</speed>
  <fix>3d</fix>
</trkpt>
<trkpt lat="40.0713925" lon="-105.2301571">
  <ele>1583.0</ele>
  <time>2026-08-28T17:52:28Z</time>
  <course>10.89</course>
  <speed>1.8</speed>
  <fix>3d</fix>
</trkpt>
<trkpt lat="40.0713965" lon="-105.2301558">
  <ele>1583.14</ele>
  <time>2026-08-28T17:52:28Z</time>
  <course>32.62</course>
  <speed>1.7808986495586996</speed>
  <fix>3d</fix>
</trkpt>
<trkpt lat="40.0713925" lon="-105.2301571">
  <ele>1583.0</ele>
  <time>2026-08-28T17:52:28Z</time>
  <course>10.89</course>
  <speed>1.8</speed>
  <fix>3d</fix>
</trkpt>
<trkpt lat="40.0713977" lon="-105.2301545">
  <ele>1583.14</ele>
  <time>2026-08-28T17:52:28Z</time>
  <course>41.07</course>
  <speed>1.7647946056127892</speed>
  <fix>3d</fix>
</trkpt>
<trkpt lat="40.0713954" lon="-105.2301557">
  <ele>1583.0</ele>
  <time>2026-08-28T17:52:28Z</time>
  <course>29.12</course>
  <speed>1.78</speed>
  <fix>3d</fix>
</trkpt>
<trkpt lat="40.0713988" lon="-105.2301529">
  <ele>1583.14</ele>
  <time>2026-08-28T17:52:28Z</time>
  <course>48.91</course>
  <speed>1.744133022449836</speed>
  <fix>3d</fix>
</trkpt>
<trkpt lat="40.0713954" lon="-105.2301557">
  <ele>1583.0</ele>
  <time>2026-08-28T17:52:28Z</time>
  <course>29.12</course>
  <speed>1.78</speed>
  <fix>3d</fix>
</trkpt>
<trkpt lat="40.0713998" lon="-105.2301512">
  <ele>1583.14</ele>
  <time>2026-08-28T17:52:28Z</time>
  <course>56.08</course>
  <speed>1.7334935823359716</speed>
  <fix>3d</fix>
</trkpt>
<trkpt lat="40.071398" lon="-105.2301532">
  <ele>1583.0</ele>
  <time>2026-08-28T17:52:28Z</time>
  <course>45.75</course>
  <speed>1.76</speed>
  <fix>3d</fix>
</trkpt>
<trkpt lat="40.0714005" lon="-105.2301494">
  <ele>1583.14</ele>
  <time>2026-08-28T17:52:28Z</time>
  <course>62.54</course>
  <speed>1.7217723426748381</speed>
  <fix>3d</fix>
</trkpt>
<trkpt lat="40.071398" lon="-105.2301532">
  <ele>1583.0</ele>
  <time>2026-08-28T17:52:28Z</time>
  <course>45.75</course>
  <speed>1.76</speed>
  <fix>3d</fix>
</trkpt>
<trkpt lat="40.0714011" lon="-105.2301475">
  <ele>1583.14</ele>
  <time>2026-08-28T17:52:28Z</time>
  <course>68.29</course>
  <speed>1.712337583538947</speed>
  <fix>3d</fix>
</trkpt>
<trkpt lat="40.0713999" lon="-105.23015">
  <ele>1583.0</ele>
  <time>2026-08-28T17:52:28Z</time>
  <course>59.91</course>
  <speed>1.74</speed>
  <fix>3d</fix>
</trkpt>
<trkpt lat="40.0714016" lon="-105.2301455">
  <ele>1583.14</ele>
  <time>2026-08-28T17:52:28Z</time>
  <course>73.41</course>
  <speed>1.6936646657470302</speed>
  <fix>3d</fix>
</trkpt>
<trkpt lat="40.0713999" lon="-105.23015">
  <ele>1583.0</ele>
  <time>2026-08-28T17:52:28Z</time>
  <course>59.91</course>
  <speed>1.74</speed>
  <fix>3d</fix>
</trkpt>
<trkpt lat="40.0714019" lon="-105.2301435">
  <ele>1583.14</ele>
  <time>2026-08-28T17:52:28Z</time>
  <course>77.84</course>
  <speed>1.6807438829280326</speed>
  <fix>3d</fix>
</trkpt>
<trkpt lat="40.0714011" lon="-105.2301463">
  <ele>1583.0</ele>
  <time>2026-08-28T17:52:28Z</time>
  <course>71.31</course>
  <speed>1.72</speed>
  <fix>3d</fix>
</trkpt>
<trkpt lat="40.0714021" lon="-105.2301415">
  <ele>1583.14</ele>
  <time>2026-08-28T17:52:28Z</time>
  <course>81.58</course>
  <speed>1.6831518053936787</speed>
  <fix>3d</fix>
</trkpt>
<trkpt lat="40.0714011" lon="-105.2301463">
  <ele>1583.0</ele>
  <time>2026-08-28T17:52:28Z</time>
  <course>71.31</course>
  <speed>1.72</speed>
  <fix>3d</fix>
</trkpt>
<trkpt lat="40.0714023" lon="-105.2301395">
  <ele>1583.14</ele>
  <time>2026-08-28T17:52:28Z</time>
  <course>84.64</course>
  <speed>1.6842802617141839</speed>
  <fix>3d</fix>
</trkpt>
<trkpt lat="40.0714019" lon="-105.2301424">
  <ele>1583.0</ele>
  <time>2026-08-28T17:52:28Z</time>
  <course>80.03</course>
  <speed>1.7</speed>
  <fix>3d</fix>
</trkpt>
<trkpt lat="40.0714023" lon="-105.2301374">
  <ele>1583.14</ele>
  <time>2026-08-28T17:52:28Z</time>
  <course>87.22</course>
  <speed>1.7104677722775137</speed>
  <fix>3d</fix>
</trkpt>
<trkpt lat="40.0714019" lon="-105.2301424">
  <ele>1583.0</ele>
  <time>2026-08-28T17:52:28Z</time>
  <course>80.03</course>
  <speed>1.7</speed>
  <fix>3d</fix>
</trkpt>
<trkpt lat="40.0714023" lon="-105.2301354">
  <ele>1583.14</ele>
  <time>2026-08-28T17:52:28Z</time>
  <course>89.37</course>
  <speed>1.740028735394907</speed>
  <fix>3d</fix>
</trkpt>
<trkpt lat="40.0714023" lon="-105.2301383">
  <ele>1583.0</ele>
  <time>2026-08-28T17:52:28Z</time>
  <course>86.29</course>
  <speed>1.72</speed>
  <fix>3d</fix>
</trkpt>
<trkpt lat="40.0714023" lon="-105.2301332">
  <ele>1583.14</ele>
  <time>2026-08-28T17:52:28Z</time>
  <course>91.18</course>
  <speed>1.7913681921927718</speed>
  <fix>3d</fix>
</trkpt>
<trkpt lat="40.0714023" lon="-105.2301383">
  <ele>1583.0</ele>
  <time>2026-08-28T17:52:28Z</time>
  <course>86.29</course>
  <speed>1.72</speed>
  <fix>3d</fix>
</trkpt>
<trkpt lat="40.0714022" lon="-105.230131">
  <ele>1583.14</ele>
  <time>2026-08-28T17:52:28Z</time>
  <course>92.7</course>
  <speed>1.8439088914585775</speed>
  <fix>3d</fix>
</trkpt>
<trkpt lat="40.0714023" lon="-105.2301343">
  <ele>1583.0</ele>
  <time>2026-08-28T17:52:28Z</time>
  <course>90.62</course>
  <speed>1.78</speed>
  <fix>3d</fix>
</trkpt>
<trkpt lat="40.0714021" lon="-105.2301288">
  <ele>1583.14</ele>
  <time>2026-08-28T17:52:28Z</time>
  <course>93.96</course>
  <speed>1.8967603960437387</speed>
  <fix>3d</fix>
</trkpt>
<trkpt lat="40.0714023" lon="-105.2301343">
  <ele>1583.0</ele>
  <time>2026-08-28T17:52:28Z</time>
  <course>90.62</course>
  <speed>1.78</speed>
  <fix>3d</fix>
</trkpt>
<trkpt lat="40.071402" lon="-105.2301264">
  <ele>1583.14</ele>
  <time>2026-08-28T17:52:28Z</time>
  <course>95.02</course>
  <speed>1.9701776569639602</speed>
  <fix>3d</fix>
</trkpt>
<trkpt lat="40.0714023" lon="-105.23013">
  <ele>1583.0</ele>
  <time>2026-08-28T17:52:28Z</time>
  <course>93.65</course>
  <speed>1.89</speed>
  <fix>3d</fix>
</trkpt>
<trkpt lat="40.0714018" lon="-105.230124">
  <ele>1583.14</ele>
  <time>2026-08-28T17:52:28Z</time>
  <course>95.89</course>
  <speed>2.0441379601191305</speed>
  <fix>3d</fix>
</trkpt>
<trkpt lat="40.0714023" lon="-105.23013">
  <ele>1583.0</ele>
  <time>2026-08-28T17:52:28Z</time>
  <course>93.65</course>
  <speed>1.89</speed>
  <fix>3d</fix>
</trkpt>
<trkpt lat="40.0714015" lon="-105.2301216">
  <ele>1583.14</ele>
  <time>2026-08-28T17:52:28Z</time>
  <course>96.61</course>
  <speed>2.117285998631267</speed>
  <fix>3d</fix>
</trkpt>
<trkpt lat="40.071402" lon="-105.2301254">
  <ele>1583.0</ele>
  <time>2026-08-28T17:52:28Z</time>
  <course>95.76</course>
  <speed>2.02</speed>
  <fix>3d</fix>
</trkpt>
<trkpt lat="40.0714013" lon="-105.230119">
  <ele>1583.14</ele>
  <time>2026-08-28T17:52:28Z</time>
  <course>97.19</course>
  <speed>2.2019309707617993</speed>
  <fix>3d</fix>
</trkpt>
<trkpt lat="40.071402" lon="-105.2301254">
  <ele>1583.0</ele>
  <time>2026-08-28T17:52:28Z</time>
  <course>95.76</course>
  <speed>2.02</speed>
  <fix>3d</fix>
</trkpt>
<trkpt lat="40.071401" lon="-105.2301163">
  <ele>1583.14</ele>
  <time>2026-08-28T17:52:28Z</time>
  <course>97.66</course>
  <speed>2.2938613733179256</speed>
  <fix>3d</fix>
</trkpt>
<trkpt lat="40.0714016" lon="-105.2301205">
  <ele>1583.0</ele>
  <time>2026-08-28T17:52:28Z</time>
  <course>97.2</course>
  <speed>2.17</speed>
  <fix>3d</fix>
</trkpt>
<trkpt lat="40.0714007" lon="-105.2301135">
  <ele>1583.13</ele>
  <time>2026-08-28T17:52:28Z</time>
  <course>98.03</course>
  <speed>2.377414562082095</speed>
  <fix>3d</fix>
</trkpt>
<trkpt lat="40.0714016" lon="-105.2301205">
  <ele>1583.0</ele>
  <time>2026-08-28T17:52:28Z</time>
  <course>97.2</course>
  <speed>2.17</speed>
  <fix>3d</fix>
</trkpt>
<trkpt lat="40.0714004" lon="-105.2301107">
  <ele>1583.13</ele>
  <time>2026-08-28T17:52:28Z</time>
  <course>98.33</course>
  <speed>2.4694128856876083</speed>
  <fix>3d</fix>
</trkpt>
<trkpt lat="40.0714011" lon="-105.2301152">
  <ele>1583.0</ele>
  <time>2026-08-28T17:52:28Z</time>
  <course>98.14</course>
  <speed>2.34</speed>
  <fix>3d</fix>
</trkpt>
<trkpt lat="40.0714001" lon="-105.2301077">
  <ele>1583.13</ele>
  <time>2026-08-28T17:52:28Z</time>
  <course>98.56</course>
  <speed>2.5630060475933334</speed>
  <fix>3d</fix>
</trkpt>
<trkpt lat="40.0714011" lon="-105.2301152">
  <ele>1583.0</ele>
  <time>2026-08-28T17:52:28Z</time>
  <course>98.14</course>
  <speed>2.34</speed>
  <fix>3d</fix>
</trkpt>
<trkpt lat="40.0713997" lon="-105.2301047">
  <ele>1583.13</ele>
  <time>2026-08-28T17:52:28Z</time>
  <course>98.71</course>
  <speed>2.664920261471251</speed>
  <fix>3d</fix>
</trkpt>
<trkpt lat="40.0714004" lon="-105.2301095">
  <ele>1583.0</ele>
  <time>2026-08-28T17:52:28Z</time>
  <course>98.73</course>
  <speed>2.52</speed>
  <fix>3d</fix>
</trkpt>
<trkpt lat="40.0713993" lon="-105.2301015">
  <ele>1583.13</ele>
  <time>2026-08-28T17:52:28Z</time>
  <course>98.82</course>
  <speed>2.755358415887124</speed>
  <fix>3d</fix>
</trkpt>
<trkpt lat="40.0714004" lon="-105.2301095">
  <ele>1583.0</ele>
  <time>2026-08-28T17:52:28Z</time>
  <course>98.73</course>
  <speed>2.52</speed>
  <fix>3d</fix>
</trkpt>
<trkpt lat="40.0713989" lon="-105.2300983">
  <ele>1583.13</ele>
  <time>2026-08-28T17:52:28Z</time>
  <course>98.88</course>
  <speed>2.8572714256787015</speed>
  <fix>3d</fix>
</trkpt>
<trkpt lat="40.0713997" lon="-105.2301035">
  <ele>1583.0</ele>
  <time>2026-08-28T17:52:28Z</time>
  <course>99.06</course>
  <speed>2.71</speed>
  <fix>3d</fix>
</trkpt>
<trkpt lat="40.0713985" lon="-105.2300949">
  <ele>1583.14</ele>
  <time>2026-08-28T17:52:28Z</time>
  <course>98.89</course>
  <speed>2.9575834730401103</speed>
  <fix>3d</fix>
</trkpt>
<trkpt lat="40.0713997" lon="-105.2301035">
  <ele>1583.0</ele>
  <time>2026-08-28T17:52:28Z</time>
  <course>99.06</course>
  <speed>2.71</speed>
  <fix>3d</fix>
</trkpt>
<trkpt lat="40.0713981" lon="-105.2300914">
  <ele>1583.14</ele>
  <time>2026-08-28T17:52:28Z</time>
  <course>98.88</course>
  <speed>3.0594934221207275</speed>
  <fix>3d</fix>
</trkpt>
<trkpt lat="40.0713989" lon="-105.230097">
  <ele>1583.0</ele>
  <time>2026-08-28T17:52:28Z</time>
  <course>99.18</course>
  <speed>2.91</speed>
  <fix>3d</fix>
</trkpt>
<trkpt lat="40.0713977" lon="-105.2300877">
  <ele>1583.14</ele>
  <time>2026-08-28T17:52:28Z</time>
  <course>98.87</course>
  <speed>3.159810120877519</speed>
  <fix>3d</fix>
</trkpt>
<trkpt lat="40.0713989" lon="-105.230097">
  <ele>1583.0</ele>
  <time>2026-08-28T17:52:28Z</time>
  <course>99.18</course>
  <speed>2.91</speed>
  <fix>3d</fix>
</trkpt>
<trkpt lat="40.0713972" lon="-105.230084">
  <ele>1583.14</ele>
  <time>2026-08-28T17:52:28Z</time>
  <course>98.82</course>
  <speed>3.2601380338875225</speed>
  <fix>3d</fix>
</trkpt>
<trkpt lat="40.071398" lon="-105.2300899">
  <ele>1583.0</ele>
  <time>2026-08-28T17:52:28Z</time>
  <course>99.18</course>
  <speed>3.1</speed>
  <fix>3d</fix>
</trkpt>
<trkpt lat="40.0713968" lon="-105.2300801">
  <ele>1583.14</ele>
  <time>2026-08-28T17:52:28Z</time>
  <course>98.73</course>
  <speed>3.360476156737316</speed>
  <fix>3d</fix>
</trkpt>
<trkpt lat="40.071398" lon="-105.2300899">
  <ele>1583.0</ele>
  <time>2026-08-28T17:52:28Z</time>
  <course>99.18</course>
  <speed>3.1</speed>
  <fix>3d</fix>
</trkpt>
<trkpt lat="40.0713963" lon="-105.2300761">
  <ele>1583.14</ele>
  <time>2026-08-28T17:52:28Z</time>
  <course>98.64</course>
  <speed>3.46082360139895</speed>
  <fix>3d</fix>
</trkpt>
<trkpt lat="40.0713971" lon="-105.2300826">
  <ele>1583.0</ele>
  <time>2026-08-28T17:52:28Z</time>
  <course>99.08</course>
  <speed>3.3</speed>
  <fix>3d</fix>
</trkpt>
<trkpt lat="40.0713958" lon="-105.230072">
  <ele>1583.14</ele>
  <time>2026-08-28T17:52:28Z</time>
  <course>98.54</course>
  <speed>3.561179579858337</speed>
  <fix>3d</fix>
</trkpt>
<trkpt lat="40.0713971" lon="-105.2300826">
  <ele>1583.0</ele>
  <time>2026-08-28T17:52:28Z</time>
  <course>99.08</course>
  <speed>3.3</speed>
  <fix>3d</fix>
</trkpt>
<trkpt lat="40.0713953" lon="-105.2300677">
  <ele>1583.14</ele>
  <time>2026-08-28T17:52:28Z</time>
  <course>98.39</course>
  <speed>3.660054644400818</speed>
  <fix>3d</fix>
</trkpt>
<trkpt lat="40.0713961" lon="-105.2300746">
  <ele>1583.0</ele>
  <time>2026-08-28T17:52:28Z</time>
  <course>98.89</course>
  <speed>3.5</speed>
  <fix>3d</fix>
</trkpt>
<trkpt lat="40.0713948" lon="-105.2300633">
  <ele>1583.14</ele>
  <time>2026-08-28T17:52:28Z</time>
  <course>98.23</course>
  <speed>3.7604388041822987</speed>
  <fix>3d</fix>
</trkpt>
<trkpt lat="40.0713961" lon="-105.2300746">
  <ele>1583.0</ele>
  <time>2026-08-28T17:52:28Z</time>
  <course>98.89</course>
  <speed>3.5</speed>
  <fix>3d</fix>
</trkpt>
<trkpt lat="40.0713943" lon="-105.2300588">
  <ele>1583.14</ele>
  <time>2026-08-28T17:52:28Z</time>
  <course>98.07</course>
  <speed>3.859391143690932</speed>
  <fix>3d</fix>
</trkpt>
<trkpt lat="40.0713952" lon="-105.2300663">
  <ele>1583.0</ele>
  <time>2026-08-28T17:52:28Z</time>
  <course>98.63</course>
  <speed>3.7</speed>
  <fix>3d</fix>
</trkpt>
<trkpt lat="40.0713938" lon="-105.2300542">
  <ele>1583.14</ele>
  <time>2026-08-28T17:52:28Z</time>
  <course>97.91</course>
  <speed>3.958396139852604</speed>
  <fix>3d</fix>
</trkpt>
<trkpt lat="40.0713952" lon="-105.2300663">
  <ele>1583.0</ele>
  <time>2026-08-28T17:52:28Z</time>
  <course>98.63</course>
  <speed>3.7</speed>
  <fix>3d</fix>
</trkpt>
<trkpt lat="40.0713933" lon="-105.2300495">
  <ele>1583.14</ele>
  <time>2026-08-28T17:52:28Z</time>
  <course>97.75</course>
  <speed>4.0574499380768705</speed>
  <fix>3d</fix>
</trkpt>
<trkpt lat="40.0713942" lon="-105.2300575">
  <ele>1583.0</ele>
  <time>2026-08-28T17:52:28Z</time>
  <course>98.32</course>
  <speed>3.89</speed>
  <fix>3d</fix>
</trkpt>
<trkpt lat="40.0713928" lon="-105.2300447">
  <ele>1583.13</ele>
  <time>2026-08-28T17:52:28Z</time>
  <course>97.58</course>
  <speed>4.156549049391815</speed>
  <fix>3d</fix>
</trkpt>
<trkpt lat="40.0713942" lon="-105.2300575">
  <ele>1583.0</ele>
  <time>2026-08-28T17:52:28Z</time>
  <course>98.32</course>
  <speed>3.89</speed>
  <fix>3d</fix>
</trkpt>
<trkpt lat="40.0713923" lon="-105.2300398">
  <ele>1583.13</ele>
  <time>2026-08-28T17:52:28Z</time>
  <course>97.4</course>
  <speed>4.245774369888254</speed>
  <fix>3d</fix>
</trkpt>
<trkpt lat="40.0713932" lon="-105.2300482">
  <ele>1583.0</ele>
  <time>2026-08-28T17:52:28Z</time>
  <course>98.0</course>
  <speed>4.08</speed>
  <fix>3d</fix>
</trkpt>
<trkpt lat="40.0713918" lon="-105.2300348">
  <ele>1583.13</ele>
  <time>2026-08-28T17:52:28Z</time>
  <course>97.23</course>
  <speed>4.344951092935339</speed>
  <fix>3d</fix>
</trkpt>
<trkpt lat="40.0713932" lon="-105.2300482">
  <ele>1583.0</ele>
  <time>2026-08-28T17:52:28Z</time>
  <course>98.0</course>
  <speed>4.08</speed>
  <fix>3d</fix>
</trkpt>
<trkpt lat="40.0713913" lon="-105.2300296">
  <ele>1583.13</ele>
  <time>2026-08-28T17:52:28Z</time>
  <course>97.05</course>
  <speed>4.444164713419159</speed>
  <fix>3d</fix>
</trkpt>
<trkpt lat="40.0713921" lon="-105.2300384">
  <ele>1583.0</ele>
  <time>2026-08-28T17:52:28Z</time>
  <course>97.66</course>
  <speed>4.27</speed>
  <fix>3d</fix>
</trkpt>
<trkpt lat="40.0713908" lon="-105.2300244">
  <ele>1583.13</ele>
  <time>2026-08-28T17:52:28Z</time>
  <course>96.86</course>
  <speed>4.532284192325102</speed>
  <fix>3d</fix>
</trkpt>
<trkpt lat="40.0713921" lon="-105.2300384">
  <ele>1583.0</ele>
  <time>2026-08-28T17:52:28Z</time>
  <course>97.66</course>
  <speed>4.27</speed>
  <fix>3d</fix>
</trkpt>
<trkpt lat="40.0713903" lon="-105.2300191">
  <ele>1583.13</ele>
  <time>2026-08-28T17:52:28Z</time>
  <course>96.68</course>
  <speed>4.6216555475283965</speed>
  <fix>3d</fix>
</trkpt>
<trkpt lat="40.0713911" lon="-105.2300282">
  <ele>1583.0</ele>
  <time>2026-08-28T17:52:28Z</time>
  <course>97.3</course>
  <speed>4.46</speed>
  <fix>3d</fix>
</trkpt>
<trkpt lat="40.0713898" lon="-105.2300137">
  <ele>1583.13</ele>
  <time>2026-08-28T17:52:28Z</time>
  <course>96.5</course>
  <speed>4.719851692585266</speed>
  <fix>3d</fix>
</trkpt>
<trkpt lat="40.0713911" lon="-105.2300282">
  <ele>1583.0</ele>
  <time>2026-08-28T17:52:28Z</time>
  <course>97.3</course>
  <speed>4.46</speed>
  <fix>3d</fix>
</trkpt>
<trkpt lat="40.0713894" lon="-105.2300082">
  <ele>1583.13</ele>
  <time>2026-08-28T17:52:28Z</time>
  <course>96.37</course>
  <speed>4.809293087346622</speed>
  <fix>3d</fix>
</trkpt>
<trkpt lat="40.0713901" lon="-105.2300176">
  <ele>1583.0</ele>
  <time>2026-08-28T17:52:28Z</time>
  <course>96.96</course>
  <speed>4.64</speed>
  <fix>3d</fix>
</trkpt>
<trkpt lat="40.0713889" lon="-105.2300026">
  <ele>1583.14</ele>
  <time>2026-08-28T17:52:28Z</time>
  <course>96.24</course>
  <speed>4.888813762049031</speed>
  <fix>3d</fix>
</trkpt>
<trkpt lat="40.0713901" lon="-105.2300176">
  <ele>1583.0</ele>
  <time>2026-08-28T17:52:28Z</time>
  <course>96.96</course>
  <speed>4.64</speed>
  <fix>3d</fix>
</trkpt>
<trkpt lat="40.0713884" lon="-105.2299968">
  <ele>1583.14</ele>
  <time>2026-08-28T17:52:28Z</time>
  <course>96.11</course>
  <speed>4.968349826652709</speed>
  <fix>3d</fix>
</trkpt>
<trkpt lat="40.0713891" lon="-105.2300066">
  <ele>1583.0</ele>
  <time>2026-08-28T17:52:28Z</time>
  <course>96.66</course>
  <speed>4.82</speed>
  <fix>3d</fix>
</trkpt>
<trkpt lat="40.0713879" lon="-105.229991">
  <ele>1583.14</ele>
  <time>2026-08-28T17:52:28Z</time>
  <course>95.97</course>
  <speed>5.04686041019563</speed>
  <fix>3d</fix>
</trkpt>
<trkpt lat="40.0713891" lon="-105.2300066">
  <ele>1583.0</ele>
  <time>2026-08-28T17:52:28Z</time>
  <course>96.66</course>
  <speed>4.82</speed>
  <fix>3d</fix>
</trkpt>
<trkpt lat="40.0713874" lon="-105.2299851">
  <ele>1583.14</ele>
  <time>2026-08-28T17:52:28Z</time>
  <course>95.83</course>
  <speed>5.106544820130339</speed>
  <fix>3d</fix>
</trkpt>
<trkpt lat="40.0713881" lon="-105.2299952">
  <ele>1583.0</ele>
  <time>2026-08-28T17:52:28Z</time>
  <course>96.4</course>
  <speed>4.98</speed>
  <fix>3d</fix>
</trkpt>
<trkpt lat="40.0713869" lon="-105.2299792">
  <ele>1583.14</ele>
  <time>2026-08-28T17:52:28Z</time>
  <course>95.69</course>
  <speed>5.165239587860373</speed>
  <fix>3d</fix>
</trkpt>
<trkpt lat="40.0713881" lon="-105.2299952">
  <ele>1583.0</ele>
  <time>2026-08-28T17:52:28Z</time>
  <course>96.4</course>
  <speed>4.98</speed>
  <fix>3d</fix>
</trkpt>
<trkpt lat="40.0713865" lon="-105.2299731">
  <ele>1583.15</ele>
  <time>2026-08-28T17:52:28Z</time>
  <course>95.58</course>
  <speed>5.2149976030675225</speed>
  <fix>3d</fix>
</trkpt>
<trkpt lat="40.071387" lon="-105.2299834">
  <ele>1583.0</ele>
  <time>2026-08-28T17:52:28Z</time>
  <course>96.13</course>
  <speed>5.11</speed>
  <fix>3d</fix>
</trkpt>
<trkpt lat="40.071386" lon="-105.229967">
  <ele>1583.15</ele>
  <time>2026-08-28T17:52:28Z</time>
  <course>95.46</course>
  <speed>5.253846210158802</speed>
  <fix>3d</fix>
</trkpt>
<trkpt lat="40.071387" lon="-105.2299834">
  <ele>1583.0</ele>
  <time>2026-08-28T17:52:28Z</time>
  <course>96.13</course>
  <speed>5.11</speed>
  <fix>3d</fix>
</trkpt>
<trkpt lat="40.0713855" lon="-105.2299608">
  <ele>1583.15</ele>
  <time>2026-08-28T17:52:28Z</time>
  <course>95.35</course>
  <speed>5.272817083874616</speed>
  <fix>3d</fix>
</trkpt>
<trkpt lat="40.0713861" lon="-105.2299713">
  <ele>1583.0</ele>
  <time>2026-08-28T17:52:28Z</time>
  <course>95.89</course>
  <speed>5.2</speed>
  <fix>3d</fix>
</trkpt>
<trkpt lat="40.071385" lon="-105.2299546">
  <ele>1583.15</ele>
  <time>2026-08-28T17:52:28Z</time>
  <course>95.26</course>
  <speed>5.291814433632381</speed>
  <fix>3d</fix>
</trkpt>
<trkpt lat="40.0713861" lon="-105.2299713">
  <ele>1583.0</ele>
  <time>2026-08-28T17:52:28Z</time>
  <course>95.89</course>
  <speed>5.2</speed>
  <fix>3d</fix>
</trkpt>
<trkpt lat="40.0713846" lon="-105.2299484">
  <ele>1583.14</ele>
  <time>2026-08-28T17:52:28Z</time>
  <course>95.17</course>
  <speed>5.291814433632381</speed>
  <fix>3d</fix>
</trkpt>
<trkpt lat="40.0713851" lon="-105.2299592">
  <ele>1583.0</ele>
  <time>2026-08-28T17:52:28Z</time>
  <course>95.7</course>
  <speed>5.25</speed>
  <fix>3d</fix>
</trkpt>
<trkpt lat="40.0713841" lon="-105.2299422">
  <ele>1583.14</ele>
  <time>2026-08-28T17:52:28Z</time>
  <course>95.1</course>
  <speed>5.2809563527830825</speed>
  <fix>3d</fix>
</trkpt>
<trkpt lat="40.0713851" lon="-105.2299592">
  <ele>1583.0</ele>
  <time>2026-08-28T17:52:28Z</time>
  <course>95.7</course>
  <speed>5.25</speed>
  <fix>3d</fix>
</trkpt>
<trkpt lat="40.0713837" lon="-105.229936">
  <ele>1583.14</ele>
  <time>2026-08-28T17:52:28Z</time>
  <course>95.03</course>
  <speed>5.260152089055981</speed>
  <fix>3d</fix>
</trkpt>
<trkpt lat="40.0713842" lon="-105.2299469">
  <ele>1583.0</ele>
  <time>2026-08-28T17:52:28Z</time>
  <course>95.53</course>
  <speed>5.25</speed>
  <fix>3d</fix>
</trkpt>
<trkpt lat="40.0713832" lon="-105.2299298">
  <ele>1583.13</ele>
  <time>2026-08-28T17:52:28Z</time>
  <course>94.95</course>
  <speed>5.229397670860383</speed>
  <fix>3d</fix>
</trkpt>
<trkpt lat="40.0713842" lon="-105.2299469">
  <ele>1583.0</ele>
  <time>2026-08-28T17:52:28Z</time>
  <course>95.53</course>
  <speed>5.25</speed>
  <fix>3d</fix>
</trkpt>
<trkpt lat="40.0713828" lon="-105.2299238">
  <ele>1583.13</ele>
  <time>2026-08-28T17:52:28Z</time>
  <course>94.88</course>
  <speed>5.1787257119874575</speed>
  <fix>3d</fix>
</trkpt>
<trkpt lat="40.0713833" lon="-105.2299347">
  <ele>1583.0</ele>
  <time>2026-08-28T17:52:28Z</time>
  <course>95.38</course>
  <speed>5.2</speed>
  <fix>3d</fix>
</trkpt>
<trkpt lat="40.0713824" lon="-105.2299178">
  <ele>1583.13</ele>
  <time>2026-08-28T17:52:28Z</time>
  <course>94.81</course>
  <speed>5.118095348857815</speed>
  <fix>3d</fix>
</trkpt>
<trkpt lat="40.0713833" lon="-105.2299347">
  <ele>1583.0</ele>
  <time>2026-08-28T17:52:28Z</time>
  <course>95.38</course>
  <speed>5.2</speed>
  <fix>3d</fix>
</trkpt>
<trkpt lat="40.071382" lon="-105.2299118">
  <ele>1583.13</ele>
  <time>2026-08-28T17:52:28Z</time>
  <course>94.74</course>
  <speed>5.047504333826768</speed>
  <fix>3d</fix>
</trkpt>
<trkpt lat="40.0713825" lon="-105.2299226">
  <ele>1583.0</ele>
  <time>2026-08-28T17:52:28Z</time>
  <course>95.24</course>
  <speed>5.1</speed>
  <fix>3d</fix>
</trkpt>
<trkpt lat="40.0713816" lon="-105.229906">
  <ele>1583.12</ele>
  <time>2026-08-28T17:52:28Z</time>
  <course>94.66</course>
  <speed>4.956984970725653</speed>
  <fix>3d</fix>
</trkpt>
<trkpt lat="40.0713825" lon="-105.2299226">
  <ele>1583.0</ele>
  <time>2026-08-28T17:52:28Z</time>
  <course>95.24</course>
  <speed>5.1</speed>
  <fix>3d</fix>
</trkpt>
<trkpt lat="40.0713812" lon="-105.2299003">
  <ele>1583.12</ele>
  <time>2026-08-28T17:52:28Z</time>
  <course>94.59</course>
  <speed>4.865655146020934</speed>
  <fix>3d</fix>
</trkpt>
<trkpt lat="40.0713817" lon="-105.2299108">
  <ele>1583.0</ele>
  <time>2026-08-28T17:52:28Z</time>
  <course>95.1</course>
  <speed>4.95</speed>
  <fix>3d</fix>
</trkpt>
<trkpt lat="40.0713808" lon="-105.2298948">
  <ele>1583.12</ele>
  <time>2026-08-28T17:52:28Z</time>
  <course>94.52</course>
  <speed>4.755207671595427</speed>
  <fix>3d</fix>
</trkpt>
<trkpt lat="40.0713817" lon="-105.2299108">
  <ele>1583.0</ele>
  <time>2026-08-28T17:52:28Z</time>
  <course>95.1</course>
  <speed>4.95</speed>
  <fix>3d</fix>
</trkpt>
<trkpt lat="40.0713805" lon="-105.2298893">
  <ele>1583.12</ele>
  <time>2026-08-28T17:52:28Z</time>
  <course>94.46</course>
  <speed>4.634004747515911</speed>
  <fix>3d</fix>
</trkpt>
<trkpt lat="40.0713808" lon="-105.2298994">
  <ele>1583.0</ele>
  <time>2026-08-28T17:52:28Z</time>
  <course>94.97</course>
  <speed>4.76</speed>
  <fix>3d</fix>
</trkpt>
<trkpt lat="40.0713801" lon="-105.2298841">
  <ele>1583.12</ele>
  <time>2026-08-28T17:52:28Z</time>
  <course>94.39</course>
  <speed>4.503620765561861</speed>
  <fix>3d</fix>
</trkpt>
<trkpt lat="40.0713808" lon="-105.2298994">
  <ele>1583.0</ele>
  <time>2026-08-28T17:52:28Z</time>
  <course>94.97</course>
  <speed>4.76</speed>
  <fix>3d</fix>
</trkpt>
<trkpt lat="40.0713798" lon="-105.229879">
  <ele>1583.13</ele>
  <time>2026-08-28T17:52:28Z</time>
  <course>94.32</course>
  <speed>4.373236787552213</speed>
  <fix>3d</fix>
</trkpt>
<trkpt lat="40.0713801" lon="-105.2298886">
  <ele>1583.0</ele>
  <time>2026-08-28T17:52:28Z</time>
  <course>94.84</course>
  <speed>4.53</speed>
  <fix>3d</fix>
</trkpt>
<trkpt lat="40.0713795" lon="-105.2298741">
  <ele>1583.13</ele>
  <time>2026-08-28T17:52:28Z</time>
  <course>94.26</course>
  <speed>4.232115310338318</speed>
  <fix>3d</fix>
</trkpt>
<trkpt lat="40.0713801" lon="-105.2298886">
  <ele>1583.0</ele>
  <time>2026-08-28T17:52:28Z</time>
  <course>94.84</course>
  <speed>4.53</speed>
  <fix>3d</fix>
</trkpt>
<trkpt lat="40.0713792" lon="-105.2298693">
  <ele>1583.13</ele>
  <time>2026-08-28T17:52:28Z</time>
  <course>94.16</course>
  <speed>4.091760012512953</speed>
  <fix>3d</fix>
</trkpt>
<trkpt lat="40.0713795" lon="-105.2298783">
  <ele>1583.0</ele>
  <time>2026-08-28T17:52:28Z</time>
  <course>94.72</course>
  <speed>4.27</speed>
  <fix>3d</fix>
</trkpt>
<trkpt lat="40.0713789" lon="-105.2298647">
  <ele>1583.13</ele>
  <time>2026-08-28T17:52:28Z</time>
  <course>94.08</course>
  <speed>3.9506581730137067</speed>
  <fix>3d</fix>
</trkpt>
<trkpt lat="40.0713795" lon="-105.2298783">
  <ele>1583.0</ele>
  <time>2026-08-28T17:52:28Z</time>
  <course>94.72</course>
  <speed>4.27</speed>
  <fix>3d</fix>
</trkpt>
<trkpt lat="40.0713786" lon="-105.2298602">
  <ele>1583.13</ele>
  <time>2026-08-28T17:52:28Z</time>
  <course>93.97</course>
  <speed>3.799605242653505</speed>
  <fix>3d</fix>
</trkpt>
<trkpt lat="40.0713789" lon="-105.2298686">
  <ele>1583.0</ele>
  <time>2026-08-28T17:52:28Z</time>
  <course>94.57</course>
  <speed>4.0</speed>
  <fix>3d</fix>
</trkpt>
<trkpt lat="40.0713783" lon="-105.2298559">
  <ele>1583.13</ele>
  <time>2026-08-28T17:52:28Z</time>
  <course>93.86</course>
  <speed>3.6592485567394846</speed>
  <fix>3d</fix>
</trkpt>
<trkpt lat="40.0713789" lon="-105.2298686">
  <ele>1583.0</ele>
  <time>2026-08-28T17:52:28Z</time>
  <course>94.57</course>
  <speed>4.0</speed>
  <fix>3d</fix>
</trkpt>
<trkpt lat="40.0713781" lon="-105.2298518">
  <ele>1583.13</ele>
  <time>2026-08-28T17:52:28Z</time>
  <course>93.76</course>
  <speed>3.5181955602268613</speed>
  <fix>3d</fix>
</trkpt>
<trkpt lat="40.0713784" lon="-105.2298595">
  <ele>1583.0</ele>
  <time>2026-08-28T17:52:28Z</time>
  <course>94.37</course>
  <speed>3.72</speed>
  <fix>3d</fix>
</trkpt>
<trkpt lat="40.0713779" lon="-105.2298478">
  <ele>1583.13</ele>
  <time>2026-08-28T17:52:28Z</time>
  <course>93.66</course>
  <speed>3.377839546218855</speed>
  <fix>3d</fix>
</trkpt>
<trkpt lat="40.0713784" lon="-105.2298595">
  <ele>1583.0</ele>
  <time>2026-08-28T17:52:28Z</time>
  <course>94.37</course>
  <speed>3.72</speed>
  <fix>3d</fix>
</trkpt>
<trkpt lat="40.0713777" lon="-105.2298439">
  <ele>1583.13</ele>
  <time>2026-08-28T17:52:28Z</time>
  <course>93.56</course>
  <speed>3.246798423062325</speed>
  <fix>3d</fix>
</trkpt>
<trkpt lat="40.0713779" lon="-105.2298511">
  <ele>1583.0</ele>
  <time>2026-08-28T17:52:28Z</time>
  <course>94.18</course>
  <speed>3.45</speed>
  <fix>3d</fix>
</trkpt>
<trkpt lat="40.0713775" lon="-105.2298402">
  <ele>1583.13</ele>
  <time>2026-08-28T17:52:28Z</time>
  <course>93.47</course>
  <speed>3.1064449134018135</speed>
  <fix>3d</fix>
</trkpt>
<trkpt lat="40.0713779" lon="-105.2298511">
  <ele>1583.0</ele>
  <time>2026-08-28T17:52:28Z</time>
  <course>94.18</course>
  <speed>3.45</speed>
  <fix>3d</fix>
</trkpt>
<trkpt lat="40.0713773" lon="-105.2298367">
  <ele>1583.13</ele>
  <time>2026-08-28T17:52:28Z</time>
  <course>93.38</course>
  <speed>2.9760712357065646</speed>
  <fix>3d</fix>
</trkpt>
<trkpt lat="40.0713774" lon="-105.2298433">
  <ele>1583.0</ele>
  <time>2026-08-28T17:52:28Z</time>
  <course>94.0</course>
  <speed>3.18</speed>
  <fix>3d</fix>
</trkpt>
<trkpt lat="40.0713771" lon="-105.2298333">
  <ele>1583.13</ele>
  <time>2026-08-28T17:52:28Z</time>
  <course>93.29</course>
  <speed>2.8450834785643817</speed>
  <fix>3d</fix>
</trkpt>
<trkpt lat="40.0713774" lon="-105.2298433">
  <ele>1583.0</ele>
  <time>2026-08-28T17:52:28Z</time>
  <course>94.0</course>
  <speed>3.18</speed>
  <fix>3d</fix>
</trkpt>
<trkpt lat="40.0713769" lon="-105.2298301">
  <ele>1583.13</ele>
  <time>2026-08-28T17:52:28Z</time>
  <course>93.21</course>
  <speed>2.7247018185482244</speed>
  <fix>3d</fix>
</trkpt>
<trkpt lat="40.071377" lon="-105.2298362">
  <ele>1583.0</ele>
  <time>2026-08-28T17:52:28Z</time>
  <course>93.83</course>
  <speed>2.92</speed>
  <fix>3d</fix>
</trkpt>
<trkpt lat="40.0713768" lon="-105.229827">
  <ele>1583.13</ele>
  <time>2026-08-28T17:52:28Z</time>
  <course>93.13</course>
  <speed>2.5943399931389104</speed>
  <fix>3d</fix>
</trkpt>
<trkpt lat="40.071377" lon="-105.2298362">
  <ele>1583.0</ele>
  <time>2026-08-28T17:52:28Z</time>
  <course>93.83</course>
  <speed>2.92</speed>
  <fix>3d</fix>
</trkpt>
<trkpt lat="40.0713766" lon="-105.229824">
  <ele>1583.13</ele>
  <time>2026-08-28T17:52:28Z</time>
  <course>93.06</course>
  <speed>2.47396442981705</speed>
  <fix>3d</fix>
</trkpt>
<trkpt lat="40.0713767" lon="-105.2298297">
  <ele>1583.0</ele>
  <time>2026-08-28T17:52:28Z</time>
  <course>93.68</course>
  <speed>2.67</speed>
  <fix>3d</fix>
</trkpt>
<trkpt lat="40.0713765" lon="-105.2298212">
  <ele>1583.13</ele>
  <time>2026-08-28T17:52:28Z</time>
  <course>92.99</course>
  <speed>2.3635777964771965</speed>
  <fix>3d</fix>
</trkpt>
<trkpt lat="40.0713767" lon="-105.2298297">
  <ele>1583.0</ele>
  <time>2026-08-28T17:52:28Z</time>
  <course>93.68</course>
  <speed>2.67</speed>
  <fix>3d</fix>
</trkpt>
<trkpt lat="40.0713763" lon="-105.2298186">
  <ele>1583.13</ele>
  <time>2026-08-28T17:52:28Z</time>
  <course>92.92</course>
  <speed>2.2531977276750483</speed>
  <fix>3d</fix>
</trkpt>
<trkpt lat="40.0713765" lon="-105.2298237">
  <ele>1583.0</ele>
  <time>2026-08-28T17:52:28Z</time>
  <course>93.54</course>
  <speed>2.44</speed>
  <fix>3d</fix>
</trkpt>
<trkpt lat="40.0713762" lon="-105.229816">
  <ele>1583.13</ele>
  <time>2026-08-28T17:52:28Z</time>
  <course>92.85</course>
  <speed>2.133377603707323</speed>
  <fix>3d</fix>
</trkpt>
<trkpt lat="40.0713765" lon="-105.2298237">
  <ele>1583.0</ele>
  <time>2026-08-28T17:52:28Z</time>
  <course>93.54</course>
  <speed>2.44</speed>
  <fix>3d</fix>
</trkpt>
<trkpt lat="40.0713761" lon="-105.2298136">
  <ele>1583.13</ele>
  <time>2026-08-28T17:52:28Z</time>
  <course>92.79</course>
  <speed>2.0329781110479277</speed>
  <fix>3d</fix>
</trkpt>
<trkpt lat="40.0713762" lon="-105.2298182">
  <ele>1583.0</ele>
  <time>2026-08-28T17:52:28Z</time>
  <course>93.42</course>
  <speed>2.21</speed>
  <fix>3d</fix>
</trkpt>
<trkpt lat="40.071376" lon="-105.2298114">
  <ele>1583.13</ele>
  <time>2026-08-28T17:52:28Z</time>
  <course>92.73</course>
  <speed>1.9226024029944413</speed>
  <fix>3d</fix>
</trkpt>
<trkpt lat="40.0713762" lon="-105.2298182">
  <ele>1583.0</ele>
  <time>2026-08-28T17:52:28Z</time>
  <course>93.42</course>
  <speed>2.21</speed>
  <fix>3d</fix>
</trkpt>
<trkpt lat="40.0713759" lon="-105.2298092">
  <ele>1583.13</ele>
  <time>2026-08-28T17:52:28Z</time>
  <course>92.67</course>
  <speed>1.8222239159883729</speed>
  <fix>3d</fix>
</trkpt>
<trkpt lat="40.071376" lon="-105.2298132">
  <ele>1583.0</ele>
  <time>2026-08-28T17:52:28Z</time>
  <course>93.3</course>
  <speed>2.01</speed>
  <fix>3d</fix>
</trkpt>
<trkpt lat="40.0713758" lon="-105.2298071">
  <ele>1583.13</ele>
  <time>2026-08-28T17:52:28Z</time>
  <course>92.62</course>
  <speed>1.7323394586512193</speed>
  <fix>3d</fix>
</trkpt>
<trkpt lat="40.071376" lon="-105.2298132">
  <ele>1583.0</ele>
  <time>2026-08-28T17:52:28Z</time>
  <course>93.3</course>
  <speed>2.01</speed>
  <fix>3d</fix>
</trkpt>
<trkpt lat="40.0713757" lon="-105.2298052">
  <ele>1583.13</ele>
  <time>2026-08-28T17:52:28Z</time>
  <course>92.57</course>
  <speed>1.6319620093617377</speed>
  <fix>3d</fix>
</trkpt>
<trkpt lat="40.0713758" lon="-105.2298088">
  <ele>1583.0</ele>
  <time>2026-08-28T17:52:28Z</time>
  <course>93.2</course>
  <speed>1.81</speed>
  <fix>3d</fix>
</trkpt>
<trkpt lat="40.0713757" lon="-105.2298033">
  <ele>1583.13</ele>
  <time>2026-08-28T17:52:28Z</time>
  <course>92.52</course>
  <speed>1.5415900881881668</speed>
  <fix>3d</fix>
</trkpt>
<trkpt lat="40.0713758" lon="-105.2298088">
  <ele>1583.0</ele>
  <time>2026-08-28T17:52:28Z</time>
  <course>93.2</course>
  <speed>1.81</speed>
  <fix>3d</fix>
</trkpt>
<trkpt lat="40.0713756" lon="-105.2298016">
  <ele>1583.13</ele>
  <time>2026-08-28T17:52:28Z</time>
  <course>92.49</course>
  <speed>1.4516886718577091</speed>
  <fix>3d</fix>
</trkpt>
<trkpt lat="40.0713756" lon="-105.2298047">
  <ele>1583.0</ele>
  <time>2026-08-28T17:52:28Z</time>
  <course>93.11</course>
  <speed>1.63</speed>
  <fix>3d</fix>
</trkpt>
<trkpt lat="40.0713755" lon="-105.2297999">
  <ele>1583.13</ele>
  <time>2026-08-28T17:52:28Z</time>
  <course>92.47</course>
  <speed>1.361322886019331</speed>
  <fix>3d</fix>
</trkpt>
<trkpt lat="40.0713756" lon="-105.2298047">
  <ele>1583.0</ele>
  <time>2026-08-28T17:52:28Z</time>
  <course>93.11</course>
  <speed>1.63</speed>
  <fix>3d</fix>
</trkpt>
<trkpt lat="40.0713755" lon="-105.2297984">
  <ele>1583.13</ele>
  <time>2026-08-28T17:52:28Z</time>
  <course>92.45</course>
  <speed>1.2814054783713078</speed>
  <fix>3d</fix>
</trkpt>
<trkpt lat="40.0713755" lon="-105.2298011">
  <ele>1583.0</ele>
  <time>2026-08-28T17:52:28Z</time>
  <course>93.05</course>
  <speed>1.45</speed>
  <fix>3d</fix>
</trkpt>
<trkpt lat="40.0713754" lon="-105.2297969">
  <ele>1583.13</ele>
  <time>2026-08-28T17:52:28Z</time>
  <course>92.44</course>
  <speed>1.1910499569707393</speed>
  <fix>3d</fix>
</trkpt>
<trkpt lat="40.0713755" lon="-105.2298011">
  <ele>1583.0</ele>
  <time>2026-08-28T17:52:28Z</time>
  <course>93.05</course>
  <speed>1.45</speed>
  <fix>3d</fix>
</trkpt>
<trkpt lat="40.0713753" lon="-105.2297956">
  <ele>1583.13</ele>
  <time>2026-08-28T17:52:28Z</time>
  <course>92.44</course>
  <speed>1.101135777277262</speed>
  <fix>3d</fix>
</trkpt>
<trkpt lat="40.0713753" lon="-105.2297979">
  <ele>1583.0</ele>
  <time>2026-08-28T17:52:28Z</time>
  <course>93.03</course>
  <speed>1.27</speed>
  <fix>3d</fix>
</trkpt>
<trkpt lat="40.0713753" lon="-105.2297943">
  <ele>1583.13</ele>
  <time>2026-08-28T17:52:28Z</time>
  <course>92.44</course>
  <speed>1.0207840124139878</speed>
  <fix>3d</fix>
</trkpt>
<trkpt lat="40.0713753" lon="-105.2297979">
  <ele>1583.0</ele>
  <time>2026-08-28T17:52:28Z</time>
  <course>93.03</course>
  <speed>1.27</speed>
  <fix>3d</fix>
</trkpt>
<trkpt lat="40.0713752" lon="-105.2297931">
  <ele>1583.13</ele>
  <time>2026-08-28T17:52:28Z</time>
  <course>92.47</course>
  <speed>0.930859817588019</speed>
  <fix>3d</fix>
</trkpt>
<trkpt lat="40.0713752" lon="-105.2297951">
  <ele>1583.0</ele>
  <time>2026-08-28T17:52:28Z</time>
  <course>93.03</course>
  <speed>1.1</speed>
  <fix>3d</fix>
</trkpt>
<trkpt lat="40.0713752" lon="-105.2297921">
  <ele>1583.13</ele>
  <time>2026-08-28T17:52:28Z</time>
  <course>92.51</course>
  <speed>0.840535543567314</speed>
  <fix>3d</fix>
</trkpt>
<trkpt lat="40.0713752" lon="-105.2297951">
  <ele>1583.0</ele>
  <time>2026-08-28T17:52:28Z</time>
  <course>93.03</course>
  <speed>1.1</speed>
  <fix>3d</fix>
</trkpt>
<trkpt lat="40.0713752" lon="-105.2297911">
  <ele>1583.13</ele>
  <time>2026-08-28T17:52:28Z</time>
  <course>92.57</course>
  <speed>0.7605918747922567</speed>
  <fix>3d</fix>
</trkpt>
<trkpt lat="40.0713751" lon="-105.2297927">
  <ele>1583.0</ele>
  <time>2026-08-28T17:52:28Z</time>
  <course>93.09</course>
  <speed>0.93</speed>
  <fix>3d</fix>
</trkpt>
<trkpt lat="40.0713751" lon="-105.2297903">
  <ele>1583.13</ele>
  <time>2026-08-28T17:52:28Z</time>
  <course>92.65</course>
  <speed>0.6706713054842887</speed>
  <fix>3d</fix>
</trkpt>
<trkpt lat="40.0713751" lon="-105.2297927">
  <ele>1583.0</ele>
  <time>2026-08-28T17:52:28Z</time>
  <course>93.09</course>
  <speed>0.93</speed>
  <fix>3d</fix>
</trkpt>
<trkpt lat="40.0713751" lon="-105.2297895">
  <ele>1583.13</ele>
  <time>2026-08-28T17:52:28Z</time>
  <course>92.73</course>
  <speed>0.5803447251418763</speed>
  <fix>3d</fix>
</trkpt>
<trkpt lat="40.071375" lon="-105.2297907">
  <ele>1583.0</ele>
  <time>2026-08-28T17:52:28Z</time>
  <course>93.21</course>
  <speed>0.75</speed>
  <fix>3d</fix>
</trkpt>
<trkpt lat="40.0713751" lon="-105.2297888">
  <ele>1583.13</ele>
  <time>2026-08-28T17:52:28Z</time>
  <course>92.82</course>
  <speed>0.49040799340956914</speed>
  <fix>3d</fix>
</trkpt>
<trkpt lat="40.071375" lon="-105.2297907">
  <ele>1583.0</ele>
  <time>2026-08-28T17:52:28Z</time>
  <course>93.21</course>
  <speed>0.75</speed>
  <fix>3d</fix>
</trkpt>
<trkpt lat="40.071375" lon="-105.2297883">
  <ele>1583.13</ele>
  <time>2026-08-28T17:52:28Z</time>
  <course>92.91</course>
  <speed>0.4001249804748511</speed>
  <fix>3d</fix>
</trkpt>
<trkpt lat="40.0713749" lon="-105.2297892">
  <ele>1583.0</ele>
  <time>2026-08-28T17:52:28Z</time>
  <course>93.38</course>
  <speed>0.58</speed>
  <fix>3d</fix>
</trkpt>
<trkpt lat="40.071375" lon="-105.2297879">
  <ele>1583.13</ele>
  <time>2026-08-28T17:52:28Z</time>
  <course>93.0</course>
  <speed>0.32015621187164245</speed>
  <fix>3d</fix>
</trkpt>
<trkpt lat="40.0713749" lon="-105.2297892">
  <ele>1583.0</ele>
  <time>2026-08-28T17:52:28Z</time>
  <course>93.38</course>
  <speed>0.58</speed>
  <fix>3d</fix>
</trkpt>
<trkpt lat="40.071375" lon="-105.2297875">
  <ele>1583.12</ele>
  <time>2026-08-28T17:52:28Z</time>
  <course>93.07</course>
  <speed>0.23</speed>
  <fix>3d</fix>
</trkpt>
<trkpt lat="40.0713749" lon="-105.229788">
  <ele>1583.0</ele>
  <time>2026-08-28T17:52:28Z</time>
  <course>93.56</course>
  <speed>0.4</speed>
  <fix>3d</fix>
</trkpt>
<trkpt lat="40.071375" lon="-105.2297873">
  <ele>1583.12</ele>
  <time>2026-08-28T17:52:28Z</time>
  <course>93.12</course>
  <speed>0.14</speed>
  <fix>3d</fix>
</trkpt>
<trkpt lat="40.0713749" lon="-105.229788">
  <ele>1583.0</ele>
  <time>2026-08-28T17:52:28Z</time>
  <course>93.56</course>
  <speed>0.4</speed>
  <fix>3d</fix>
</trkpt>
<trkpt lat="40.071375" lon="-105.2297872">
  <ele>1583.12</ele>
  <time>2026-08-28T17:52:28Z</time>
  <course>93.16</course>
  <speed>0.06</speed>
  <fix>3d</fix>
</trkpt>
<trkpt lat="40.0713748" lon="-105.2297873">
  <ele>1583.0</ele>
  <time>2026-08-28T17:52:28Z</time>
  <course>93.7</course>
  <speed>0.22</speed>
  <fix>3d</fix>
</trkpt>
<trkpt lat="40.071375" lon="-105.2297871">
  <ele>1583.13</ele>
  <time>2026-08-28T17:52:28Z</time>
  <course>93.17</course>
  <speed>0.01414213562373095</speed>
  <fix>3d</fix>
</trkpt>
<trkpt lat="40.0713748" lon="-105.2297873">
  <ele>1583.0</ele>
  <time>2026-08-28T17:52:28Z</time>
  <course>93.7</course>
  <speed>0.22</speed>
  <fix>3d</fix>
</trkpt>
<trkpt lat="40.071375" lon="-105.2297872">
  <ele>1583.13</ele>
  <time>2026-08-28T17:52:28Z</time>
  <course>93.17</course>
  <speed>0.08062257748298549</speed>
  <fix>3d</fix>
</trkpt>
<trkpt lat="40.0713748" lon="-105.2297869">
  <ele>1583.0</ele>
  <time>2026-08-28T17:52:28Z</time>
  <course>93.78</course>
  <speed>0.06</speed>
  <fix>3d</fix>
</trkpt>
<trkpt lat="40.071375" lon="-105.2297873">
  <ele>1583.13</ele>
  <time>2026-08-28T17:52:28Z</time>
  <course>93.18</course>
  <speed>0.140356688476182</speed>
  <fix>3d</fix>
</trkpt>
<trkpt lat="40.0713748" lon="-105.2297869">
  <ele>1583.0</ele>
  <time>2026-08-28T17:52:28Z</time>
  <course>93.78</course>
  <speed>0.06</speed>
  <fix>3d</fix>
</trkpt>
<trkpt lat="40.0713749" lon="-105.2297874">
  <ele>1583.13</ele>
  <time>2026-08-28T17:52:28Z</time>
  <course>93.21</course>
  <speed>0.2009975124224178</speed>
  <fix>3d</fix>
</trkpt>
<trkpt lat="40.0713748" lon="-105.2297869">
  <ele>1583.0</ele>
  <time>2026-08-28T17:52:28Z</time>
  <course>273.83</course>
  <speed>0.07</speed>
  <fix>3d</fix>
</trkpt>
<trkpt lat="40.0713749" lon="-105.2297876">
  <ele>1583.13</ele>
  <time>2026-08-28T17:52:28Z</time>
  <course>93.24</course>
  <speed>0.24083189157584592</speed>
  <fix>3d</fix>
</trkpt>
<trkpt lat="40.0713748" lon="-105.2297869">
  <ele>1583.0</ele>
  <time>2026-08-28T17:52:28Z</time>
  <course>273.83</course>
  <speed>0.07</speed>
  <fix>3d</fix>
</trkpt>
<trkpt lat="40.0713749" lon="-105.2297879">
  <ele>1583.13</ele>
  <time>2026-08-28T17:52:28Z</time>
  <course>93.29</course>
  <speed>0.2816025568065745</speed>
  <fix>3d</fix>
</trkpt>
<trkpt lat="40.0713748" lon="-105.2297873">
  <ele>1583.0</ele>
  <time>2026-08-28T17:52:28Z</time>
  <course>273.89</course>
  <speed>0.18</speed>
  <fix>3d</fix>
</trkpt>
<trkpt lat="40.0713749" lon="-105.2297882">
  <ele>1583.13</ele>
  <time>2026-08-28T17:52:28Z</time>
  <course>93.34</course>
  <speed>0.3014962686336267</speed>
  <fix>3d</fix>
</trkpt>
<trkpt lat="40.0713748" lon="-105.2297873">
  <ele>1583.0</ele>
  <time>2026-08-28T17:52:28Z</time>
  <course>273.89</course>
  <speed>0.18</speed>
  <fix>3d</fix>
</trkpt>
<trkpt lat="40.0713749" lon="-105.2297885">
  <ele>1583.13</ele>
  <time>2026-08-28T17:52:28Z</time>
  <course>93.39</course>
  <speed>0.32140317359976395</speed>
  <fix>3d</fix>
</trkpt>
<trkpt lat="40.0713748" lon="-105.2297878">
  <ele>1583.0</ele>
  <time>2026-08-28T17:52:28Z</time>
  <course>273.98</course>
  <speed>0.25</speed>
  <fix>3d</fix>
</trkpt>
<trkpt lat="40.071375" lon="-105.2297889">
  <ele>1583.12</ele>
  <time>2026-08-28T17:52:28Z</time>
  <course>93.44</course>
  <speed>0.32140317359976395</speed>
  <fix>3d</fix>
</trkpt>
<trkpt lat="40.0713748" lon="-105.2297878">
  <ele>1583.0</ele>
  <time>2026-08-28T17:52:28Z</time>
  <course>273.98</course>
  <speed>0.25</speed>
  <fix>3d</fix>
</trkpt>
<trkpt lat="40.071375" lon="-105.2297893">
  <ele>1583.12</ele>
  <time>2026-08-28T17:52:28Z</time>
  <course>93.49</course>
  <speed>0.32140317359976395</speed>
  <fix>3d</fix>
</trkpt>
<trkpt lat="40.0713748" lon="-105.2297884">
  <ele>1583.0</ele>
  <time>2026-08-28T17:52:28Z</time>
  <course>274.08</course>
  <speed>0.29</speed>
  <fix>3d</fix>
</trkpt>
<trkpt lat="40.071375" lon="-105.2297896">
  <ele>1583.12</ele>
  <time>2026-08-28T17:52:28Z</time>
  <course>93.54</course>
  <speed>0.32249030993194194</speed>
  <fix>3d</fix>
</trkpt>
<trkpt lat="40.0713748" lon="-105.2297884">
  <ele>1583.0</ele>
  <time>2026-08-28T17:52:28Z</time>
  <course>274.08</course>
  <speed>0.29</speed>
  <fix>3d</fix>
</trkpt>
<trkpt lat="40.071375" lon="-105.22979">
  <ele>1583.11</ele>
  <time>2026-08-28T17:52:28Z</time>
  <course>93.59</course>
  <speed>0.3026549190084311</speed>
  <fix>3d</fix>
</trkpt>
<trkpt lat="40.0713748" lon="-105.2297891">
  <ele>1583.0</ele>
  <time>2026-08-28T17:52:28Z</time>
  <course>274.19</course>
  <speed>0.29</speed>
  <fix>3d</fix>
</trkpt>
<trkpt lat="40.071375" lon="-105.2297903">
  <ele>1583.11</ele>
  <time>2026-08-28T17:52:28Z</time>
  <course>93.63</course>
  <speed>0.282842712474619</speed>
  <fix>3d</fix>
</trkpt>
<trkpt lat="40.0713748" lon="-105.2297891">
  <ele>1583.0</ele>
  <time>2026-08-28T17:52:28Z</time>
  <course>274.19</course>
  <speed>0.29</speed>
  <fix>3d</fix>
</trkpt>
<trkpt lat="40.071375" lon="-105.2297906">
  <ele>1583.11</ele>
  <time>2026-08-28T17:52:28Z</time>
  <course>93.68</course>
  <speed>0.261725046566048</speed>
  <fix>3d</fix>
</trkpt>
<trkpt lat="40.0713749" lon="-105.2297897">
  <ele>1583.0</ele>
  <time>2026-08-28T17:52:28Z</time>
  <course>274.29</course>
  <speed>0.27</speed>
  <fix>3d</fix>
</trkpt>
<trkpt lat="40.0713751" lon="-105.2297908">
  <ele>1583.11</ele>
  <time>2026-08-28T17:52:28Z</time>
  <course>93.68</course>
  <speed>0.24186773244895649</speed>
  <fix>3d</fix>
</trkpt>
<trkpt lat="40.0713749" lon="-105.2297897">
  <ele>1583.0</ele>
  <time>2026-08-28T17:52:28Z</time>
  <course>274.29</course>
  <speed>0.27</speed>
  <fix>3d</fix>
</trkpt>
<trkpt lat="40.0713751" lon="-105.2297911">
  <ele>1583.11</ele>
  <time>2026-08-28T17:52:28Z</time>
  <course>93.68</course>
  <speed>0.2220360331117452</speed>
  <fix>3d</fix>
</trkpt>
<trkpt lat="40.0713749" lon="-105.2297903">
  <ele>1583.0</ele>
  <time>2026-08-28T17:52:28Z</time>
  <course>274.35</course>
  <speed>0.23</speed>
  <fix>3d</fix>
</trkpt>
<trkpt lat="40.0713751" lon="-105.2297913">
  <ele>1583.11</ele>
  <time>2026-08-28T17:52:28Z</time>
  <course>93.69</course>
  <speed>0.19235384061671343</speed>
  <fix>3d</fix>
</trkpt>
<trkpt lat="40.0713749" lon="-105.2297903">
  <ele>1583.0</ele>
  <time>2026-08-28T17:52:28Z</time>
  <course>274.35</course>
  <speed>0.23</speed>
  <fix>3d</fix>
</trkpt>
<trkpt lat="40.0713751" lon="-105.2297915">
  <ele>1583.11</ele>
  <time>2026-08-28T17:52:28Z</time>
  <course>93.69</course>
  <speed>0.17262676501632068</speed>
  <fix>3d</fix>
</trkpt>
<trkpt lat="40.0713749" lon="-105.2297909">
  <ele>1583.0</ele>
  <time>2026-08-28T17:52:28Z</time>
  <course>274.37</course>
  <speed>0.19</speed>
  <fix>3d</fix>
</trkpt>
<trkpt lat="40.0713751" lon="-105.2297916">
  <ele>1583.12</ele>
  <time>2026-08-28T17:52:28Z</time>
  <course>93.69</course>
  <speed>0.14317821063276354</speed>
  <fix>3d</fix>
</trkpt>
<trkpt lat="40.0713749" lon="-105.2297909">
  <ele>1583.0</ele>
  <time>2026-08-28T17:52:28Z</time>
  <course>274.37</course>
  <speed>0.19</speed>
  <fix>3d</fix>
</trkpt>
<trkpt lat="40.0713751" lon="-105.2297918">
  <ele>1583.12</ele>
  <time>2026-08-28T17:52:28Z</time>
  <course>93.71</course>
  <speed>0.11401754250991379</speed>
  <fix>3d</fix>
</trkpt>
<trkpt lat="40.071375" lon="-105.2297912">
  <ele>1583.0</ele>
  <time>2026-08-28T17:52:28Z</time>
  <course>274.38</course>
  <speed>0.15</speed>
  <fix>3d</fix>
</trkpt>
<trkpt lat="40.0713751" lon="-105.2297918">
  <ele>1583.12</ele>
  <time>2026-08-28T17:52:28Z</time>
  <course>93.78</course>
  <speed>0.07615773105863909</speed>
  <fix>3d</fix>
</trkpt>
<trkpt lat="40.071375" lon="-105.2297912">
  <ele>1583.0</ele>
  <time>2026-08-28T17:52:28Z</time>
  <course>274.38</course>
  <speed>0.15</speed>
  <fix>3d</fix>
</trkpt>
<trkpt lat="40.0713751" lon="-105.2297919">
  <ele>1583.12</ele>
  <time>2026-08-28T17:52:28Z</time>
  <course>93.87</course>
  <speed>0.05</speed>
  <fix>3d</fix>
</trkpt>
<trkpt lat="40.0713751" lon="-105.2297916">
  <ele>1583.0</ele>
  <time>2026-08-28T17:52:28Z</time>
  <course>274.43</course>
  <speed>0.09</speed>
  <fix>3d</fix>
</trkpt>
<trkpt lat="40.0713752" lon="-105.2297919">
  <ele>1583.11</ele>
  <time>2026-08-28T17:52:28Z</time>
  <course>93.94</course>
  <speed>0.022360679774997897</speed>
  <fix>3d</fix>
</trkpt>
<trkpt lat="40.0713751" lon="-105.2297916">
  <ele>1583.0</ele>
  <time>2026-08-28T17:52:28Z</time>
  <course>274.43</course>
  <speed>0.09</speed>
  <fix>3d</fix>
</trkpt>
<trkpt lat="40.0713752" lon="-105.2297919">
  <ele>1583.11</ele>
  <time>2026-08-28T17:52:28Z</time>
  <course>93.96</course>
  <speed>0.022360679774997897</speed>
  <fix>3d</fix>
</trkpt>
<trkpt lat="40.0713751" lon="-105.2297917">
  <ele>1583.0</ele>
  <time>2026-08-28T17:52:28Z</time>
  <course>274.52</course>
  <speed>0.02</speed>
  <fix>3d</fix>
</trkpt>
<trkpt lat="40.0713752" lon="-105.2297918">
  <ele>1583.11</ele>
  <time>2026-08-28T17:52:28Z</time>
  <course>94.04</course>
  <speed>0.044721359549995794</speed>
  <fix>3d</fix>
</trkpt>
<trkpt lat="40.0713751" lon="-105.2297917">
  <ele>1583.0</ele>
  <time>2026-08-28T17:52:28Z</time>
  <course>274.52</course>
  <speed>0.02</speed>
  <fix>3d</fix>
</trkpt>
<trkpt lat="40.0713752" lon="-105.2297918">
  <ele>1583.11</ele>
  <time>2026-08-28T17:52:28Z</time>
  <course>94.26</course>
  <speed>0.07280109889280519</speed>
  <fix>3d</fix>
</trkpt>
<trkpt lat="40.0713751" lon="-105.2297917">
  <ele>1583.0</ele>
  <time>2026-08-28T17:52:28Z</time>
  <course>94.88</course>
  <speed>0.02</speed>
  <fix>3d</fix>
</trkpt>
<trkpt lat="40.0713752" lon="-105.2297917">
  <ele>1583.11</ele>
  <time>2026-08-28T17:52:28Z</time>
  <course>94.7</course>
  <speed>0.1118033988749895</speed>
  <fix>3d</fix>
</trkpt>
<trkpt lat="40.0713751" lon="-105.2297917">
  <ele>1583.0</ele>
  <time>2026-08-28T17:52:28Z</time>
  <course>94.88</course>
  <speed>0.02</speed>
  <fix>3d</fix>
</trkpt>
<trkpt lat="40.0713752" lon="-105.2297915">
  <ele>1583.11</ele>
  <time>2026-08-28T17:52:28Z</time>
  <course>95.46</course>
  <speed>0.16031219541881397</speed>
  <fix>3d</fix>
</trkpt>
<trkpt lat="40.0713751" lon="-105.2297916">
  <ele>1583.0</ele>
  <time>2026-08-28T17:52:28Z</time>
  <course>95.55</course>
  <speed>0.09</speed>
  <fix>3d</fix>
</trkpt>
<trkpt lat="40.0713752" lon="-105.2297912">
  <ele>1583.11</ele>
  <time>2026-08-28T17:52:28Z</time>
  <course>96.6</course>
  <speed>0.22</speed>
  <fix>3d</fix>
</trkpt>
<trkpt lat="40.0713751" lon="-105.2297916">
  <ele>1583.0</ele>
  <time>2026-08-28T17:52:28Z</time>
  <course>95.55</course>
  <speed>0.09</speed>
  <fix>3d</fix>
</trkpt>
<trkpt lat="40.0713751" lon="-105.2297909">
  <ele>1583.11</ele>
  <time>2026-08-28T17:52:28Z</time>
  <course>98.12</course>
  <speed>0.29</speed>
  <fix>3d</fix>
</trkpt>
<trkpt lat="40.0713751" lon="-105.2297914">
  <ele>1583.0</ele>
  <time>2026-08-28T17:52:28Z</time>
  <course>97.35</course>
  <speed>0.18</speed>
  <fix>3d</fix>
</trkpt>
<trkpt lat="40.0713751" lon="-105.2297905">
  <ele>1583.11</ele>
  <time>2026-08-28T17:52:28Z</time>
  <course>100.1</course>
  <speed>0.36124783736376886</speed>
  <fix>3d</fix>
</trkpt>
<trkpt lat="40.0713751" lon="-105.2297914">
  <ele>1583.0</ele>
  <time>2026-08-28T17:52:28Z</time>
  <course>97.35</course>
  <speed>0.18</speed>
  <fix>3d</fix>
</trkpt>
<trkpt lat="40.0713751" lon="-105.2297901">
  <ele>1583.12</ele>
  <time>2026-08-28T17:52:28Z</time>
  <course>102.55</course>
  <speed>0.4440720662234904</speed>
  <fix>3d</fix>
</trkpt>
<trkpt lat="40.071375" lon="-105.2297907">
  <ele>1583.0</ele>
  <time>2026-08-28T17:52:28Z</time>
  <course>100.66</course>
  <speed>0.31</speed>
  <fix>3d</fix>
</trkpt>
<trkpt lat="40.071375" lon="-105.2297895">
  <ele>1583.12</ele>
  <time>2026-08-28T17:52:28Z</time>
  <course>105.55</course>
  <speed>0.5295280917949491</speed>
  <fix>3d</fix>
</trkpt>
<trkpt lat="40.071375" lon="-105.2297907">
  <ele>1583.0</ele>
  <time>2026-08-28T17:52:28Z</time>
  <course>100.66</course>
  <speed>0.31</speed>
  <fix>3d</fix>
</trkpt>
<trkpt lat="40.0713749" lon="-105.2297888">
  <ele>1583.13</ele>
  <time>2026-08-28T17:52:28Z</time>
  <course>109.15</course>
  <speed>0.6332456079595026</speed>
  <fix>3d</fix>
</trkpt>
<trkpt lat="40.0713748" lon="-105.2297898">
  <ele>1583.0</ele>
  <time>2026-08-28T17:52:28Z</time>
  <course>105.86</course>
  <speed>0.48</speed>
  <fix>3d</fix>
</trkpt>
<trkpt lat="40.0713747" lon="-105.229788">
  <ele>1583.13</ele>
  <time>2026-08-28T17:52:28Z</time>
  <course>113.4</course>
  <speed>0.7373601562330311</speed>
  <fix>3d</fix>
</trkpt>
<trkpt lat="40.0713748" lon="-105.2297898">
  <ele>1583.0</ele>
  <time>2026-08-28T17:52:28Z</time>
  <course>105.86</course>
  <speed>0.48</speed>
  <fix>3d</fix>
</trkpt>
<trkpt lat="40.0713743" lon="-105.2297872">
  <ele>1583.13</ele>
  <time>2026-08-28T17:52:28Z</time>
  <course>118.33</course>
  <speed>0.8409518416651456</speed>
  <fix>3d</fix>
</trkpt>
<trkpt lat="40.0713745" lon="-105.2297885">
  <ele>1583.0</ele>
  <time>2026-08-28T17:52:28Z</time>
  <course>113.33</course>
  <speed>0.67</speed>
  <fix>3d</fix>
</trkpt>
<trkpt lat="40.0713739" lon="-105.2297862">
  <ele>1583.13</ele>
  <time>2026-08-28T17:52:28Z</time>
  <course>123.97</course>
  <speed>0.951892851112981</speed>
  <fix>3d</fix>
</trkpt>
<trkpt lat="40.0713745" lon="-105.2297885">
  <ele>1583.0</ele>
  <time>2026-08-28T17:52:28Z</time>
  <course>113.33</course>
  <speed>0.67</speed>
  <fix>3d</fix>
</trkpt>
<trkpt lat="40.0713733" lon="-105.2297852">
  <ele>1583.13</ele>
  <time>2026-08-28T17:52:28Z</time>
  <course>130.35</course>
  <speed>1.0682696288858913</speed>
  <fix>3d</fix>
</trkpt>
<trkpt lat="40.0713738" lon="-105.2297869">
  <ele>1583.0</ele>
  <time>2026-08-28T17:52:28Z</time>
  <course>123.45</course>
  <speed>0.89</speed>
  <fix>3d</fix>
</trkpt>
<trkpt lat="40.0713726" lon="-105.2297843">
  <ele>1583.13</ele>
  <time>2026-08-28T17:52:28Z</time>
  <course>137.3</course>
  <speed>1.188023568789778</speed>
  <fix>3d</fix>
</trkpt>
<trkpt lat="40.0713738" lon="-105.2297869">
  <ele>1583.0</ele>
  <time>2026-08-28T17:52:28Z</time>
  <course>123.45</course>
  <speed>0.89</speed>
  <fix>3d</fix>
</trkpt>
<trkpt lat="40.0713717" lon="-105.2297833">
  <ele>1583.13</ele>
  <time>2026-08-28T17:52:28Z</time>
  <course>143.53</course>
  <speed>1.3041855696180662</speed>
  <fix>3d</fix>
</trkpt>
<trkpt lat="40.0713727" lon="-105.2297851">
  <ele>1583.0</ele>
  <time>2026-08-28T17:52:28Z</time>
  <course>135.88</course>
  <speed>1.12</speed>
  <fix>3d</fix>
</trkpt>
<trkpt lat="40.0713707" lon="-105.2297824">
  <ele>1583.13</ele>
  <time>2026-08-28T17:52:28Z</time>
  <course>149.01</course>
  <speed>1.4288806808127823</speed>
  <fix>3d</fix>
</trkpt>
<trkpt lat="40.0713727" lon="-105.2297851">
  <ele>1583.0</ele>
  <time>2026-08-28T17:52:28Z</time>
  <course>135.88</course>
  <speed>1.12</speed>
  <fix>3d</fix>
</trkpt>
<trkpt lat="40.0713694" lon="-105.2297816">
  <ele>1583.13</ele>
  <time>2026-08-28T17:52:28Z</time>
  <course>153.86</course>
  <speed>1.5519342769589182</speed>
  <fix>3d</fix>
</trkpt>
<trkpt lat="40.0713709" lon="-105.2297833">
  <ele>1583.0</ele>
  <time>2026-08-28T17:52:28Z</time>
  <course>147.76</course>
  <speed>1.37</speed>
  <fix>3d</fix>
</trkpt>
<trkpt lat="40.0713681" lon="-105.2297808">
  <ele>1583.13</ele>
  <time>2026-08-28T17:52:28Z</time>
  <course>158.26</course>
  <speed>1.658463143998081</speed>
  <fix>3d</fix>
</trkpt>
<trkpt lat="40.0713709" lon="-105.2297833">
  <ele>1583.0</ele>
  <time>2026-08-28T17:52:28Z</time>
  <course>147.76</course>
  <speed>1.37</speed>
  <fix>3d</fix>
</trkpt>
<trkpt lat="40.0713666" lon="-105.2297802">
  <ele>1583.13</ele>
  <time>2026-08-28T17:52:28Z</time>
  <course>161.98</course>
  <speed>1.7740631330367023</speed>
  <fix>3d</fix>
</trkpt>
<trkpt lat="40.0713685" lon="-105.2297817">
  <ele>1583.0</ele>
  <time>2026-08-28T17:52:28Z</time>
  <course>157.25</course>
  <speed>1.61</speed>
  <fix>3d</fix>
</trkpt>
<trkpt lat="40.071365" lon="-105.2297796">
  <ele>1583.13</ele>
  <time>2026-08-28T17:52:28Z</time>
  <course>165.17</course>
  <speed>1.8777912557044245</speed>
  <fix>3d</fix>
</trkpt>
<trkpt lat="40.0713685" lon="-105.2297817">
  <ele>1583.0</ele>
  <time>2026-08-28T17:52:28Z</time>
  <course>157.25</course>
  <speed>1.61</speed>
  <fix>3d</fix>
</trkpt>
<trkpt lat="40.0713632" lon="-105.2297791">
  <ele>1583.13</ele>
  <time>2026-08-28T17:52:28Z</time>
  <course>167.85</course>
  <speed>1.9892712233378333</speed>
  <fix>3d</fix>
</trkpt>
<trkpt lat="40.0713655" lon="-105.2297804">
  <ele>1583.0</ele>
  <time>2026-08-28T17:52:28Z</time>
  <course>164.52</course>
  <speed>1.83</speed>
  <fix>3d</fix>
</trkpt>
<trkpt lat="40.0713613" lon="-105.2297787">
  <ele>1583.13</ele>
  <time>2026-08-28T17:52:28Z</time>
  <course>170.14</course>
  <speed>2.10459022139703</speed>
  <fix>3d</fix>
</trkpt>
<trkpt lat="40.0713655" lon="-105.2297804">
  <ele>1583.0</ele>
  <time>2026-08-28T17:52:28Z</time>
  <course>164.52</course>
  <speed>1.83</speed>
  <fix>3d</fix>
</trkpt>
<trkpt lat="40.0713594" lon="-105.2297783">
  <ele>1583.14</ele>
  <time>2026-08-28T17:52:28Z</time>
  <course>172.06</course>
  <speed>2.2132555207205518</speed>
  <fix>3d</fix>
</trkpt>
<trkpt lat="40.0713621" lon="-105.2297794">
  <ele>1583.0</ele>
  <time>2026-08-28T17:52:28Z</time>
  <course>169.8</course>
  <speed>2.05</speed>
  <fix>3d</fix>
</trkpt>
<trkpt lat="40.0713573" lon="-105.229778">
  <ele>1583.14</ele>
  <time>2026-08-28T17:52:28Z</time>
  <course>173.7</course>
  <speed>2.315793600474792</speed>
  <fix>3d</fix>
</trkpt>
<trkpt lat="40.0713621" lon="-105.2297794">
  <ele>1583.0</ele>
  <time>2026-08-28T17:52:28Z</time>
  <course>169.8</course>
  <speed>2.05</speed>
  <fix>3d</fix>
</trkpt>
<trkpt lat="40.0713551" lon="-105.2297778">
  <ele>1583.14</ele>
  <time>2026-08-28T17:52:28Z</time>
  <course>175.1</course>
  <speed>2.4299794237811976</speed>
  <fix>3d</fix>
</trkpt>
<trkpt lat="40.0713583" lon="-105.2297787">
  <ele>1583.0</ele>
  <time>2026-08-28T17:52:28Z</time>
  <course>173.6</course>
  <speed>2.27</speed>
  <fix>3d</fix>
</trkpt>
<trkpt lat="40.0713528" lon="-105.2297776">
  <ele>1583.14</ele>
  <time>2026-08-28T17:52:28Z</time>
  <course>176.28</course>
  <speed>2.5363950796356627</speed>
  <fix>3d</fix>
</trkpt>
<trkpt lat="40.0713583" lon="-105.2297787">
  <ele>1583.0</ele>
  <time>2026-08-28T17:52:28Z</time>
  <course>173.6</course>
  <speed>2.27</speed>
  <fix>3d</fix>
</trkpt>
<trkpt lat="40.0713504" lon="-105.2297775">
  <ele>1583.14</ele>
  <time>2026-08-28T17:52:28Z</time>
  <course>177.3</course>
  <speed>2.6431988196123273</speed>
  <fix>3d</fix>
</trkpt>
<trkpt lat="40.071354" lon="-105.2297782">
  <ele>1583.0</ele>
  <time>2026-08-28T17:52:28Z</time>
  <course>176.34</course>
  <speed>2.48</speed>
  <fix>3d</fix>
</trkpt>
<trkpt lat="40.0713479" lon="-105.2297774">
  <ele>1583.15</ele>
  <time>2026-08-28T17:52:28Z</time>
  <course>178.14</course>
  <speed>2.7518175811634027</speed>
  <fix>3d</fix>
</trkpt>
<trkpt lat="40.071354" lon="-105.2297782">
  <ele>1583.0</ele>
  <time>2026-08-28T17:52:28Z</time>
  <course>176.34</course>
  <speed>2.48</speed>
  <fix>3d</fix>
</trkpt>
<trkpt lat="40.0713453" lon="-105.2297774">
  <ele>1583.15</ele>
  <time>2026-08-28T17:52:28Z</time>
  <course>178.87</course>
  <speed>2.860629301395062</speed>
  <fix>3d</fix>
</trkpt>
<trkpt lat="40.0713494" lon="-105.229778">
  <ele>1583.0</ele>
  <time>2026-08-28T17:52:28Z</time>
  <course>178.31</course>
  <speed>2.69</speed>
  <fix>3d</fix>
</trkpt>
<trkpt lat="40.0713427" lon="-105.2297774">
  <ele>1583.15</ele>
  <time>2026-08-28T17:52:28Z</time>
  <course>179.48</course>
  <speed>2.960152023123137</speed>
  <fix>3d</fix>
</trkpt>
<trkpt lat="40.0713494" lon="-105.229778">
  <ele>1583.0</ele>
  <time>2026-08-28T17:52:28Z</time>
  <course>178.31</course>
  <speed>2.69</speed>
  <fix>3d</fix>
</trkpt>
<trkpt lat="40.0713399" lon="-105.2297774">
  <ele>1583.15</ele>
  <time>2026-08-28T17:52:28Z</time>
  <course>180.01</course>
  <speed>3.06</speed>
  <fix>3d</fix>
</trkpt>
<trkpt lat="40.0713444" lon="-105.2297778">
  <ele>1583.0</ele>
  <time>2026-08-28T17:52:28Z</time>
  <course>179.73</course>
  <speed>2.89</speed>
  <fix>3d</fix>
</trkpt>
<trkpt lat="40.0713371" lon="-105.2297775">
  <ele>1583.15</ele>
  <time>2026-08-28T17:52:28Z</time>
  <course>180.45</course>
  <speed>3.170015772831422</speed>
  <fix>3d</fix>
</trkpt>
<trkpt lat="40.0713444" lon="-105.2297778">
  <ele>1583.0</ele>
  <time>2026-08-28T17:52:28Z</time>
  <course>179.73</course>
  <speed>2.89</speed>
  <fix>3d</fix>
</trkpt>
<trkpt lat="40.0713342" lon="-105.2297776">
  <ele>1583.15</ele>
  <time>2026-08-28T17:52:28Z</time>
  <course>180.82</course>
  <speed>3.270137611783333</speed>
  <fix>3d</fix>
</trkpt>
<trkpt lat="40.071339" lon="-105.2297777">
  <ele>1583.0</ele>
  <time>2026-08-28T17:52:28Z</time>
  <course>180.74</course>
  <speed>3.09</speed>
  <fix>3d</fix>
</trkpt>
<trkpt lat="40.0713311" lon="-105.2297776">
  <ele>1583.15</ele>
  <time>2026-08-28T17:52:28Z</time>
  <course>181.12</course>
  <speed>3.370370899470858</speed>
  <fix>3d</fix>
</trkpt>
<trkpt lat="40.071339" lon="-105.2297777">
  <ele>1583.0</ele>
  <time>2026-08-28T17:52:28Z</time>
  <course>180.74</course>
  <speed>3.09</speed>
  <fix>3d</fix>
</trkpt>
<trkpt lat="40.0713281" lon="-105.2297777">
  <ele>1583.15</ele>
  <time>2026-08-28T17:52:28Z</time>
  <course>181.37</course>
  <speed>3.470705980056507</speed>
  <fix>3d</fix>
</trkpt>
<trkpt lat="40.0713333" lon="-105.2297778">
  <ele>1583.0</ele>
  <time>2026-08-28T17:52:28Z</time>
  <course>181.45</course>
  <speed>3.29</speed>
  <fix>3d</fix>
</trkpt>
<trkpt lat="40.0713249" lon="-105.2297778">
  <ele>1583.15</ele>
  <time>2026-08-28T17:52:28Z</time>
  <course>181.58</course>
  <speed>3.571134273588715</speed>
  <fix>3d</fix>
</trkpt>
<trkpt lat="40.0713333" lon="-105.2297778">
  <ele>1583.0</ele>
  <time>2026-08-28T17:52:28Z</time>
  <course>181.45</course>
  <speed>3.29</speed>
  <fix>3d</fix>
</trkpt>
<trkpt lat="40.0713217" lon="-105.229778">
  <ele>1583.15</ele>
  <time>2026-08-28T17:52:28Z</time>
  <course>181.74</course>
  <speed>3.661365865356807</speed>
  <fix>3d</fix>
</trkpt>
<trkpt lat="40.0713271" lon="-105.2297781">
  <ele>1583.0</ele>
  <time>2026-08-28T17:52:28Z</time>
  <course>181.95</course>
  <speed>3.49</speed>
  <fix>3d</fix>
</trkpt>
<trkpt lat="40.0713183" lon="-105.2297782">
  <ele>1583.15</ele>
  <time>2026-08-28T17:52:28Z</time>
  <course>181.88</course>
  <speed>3.7616086984161443</speed>
  <fix>3d</fix>
</trkpt>
<trkpt lat="40.0713271" lon="-105.2297781">
  <ele>1583.0</ele>
  <time>2026-08-28T17:52:28Z</time>
  <course>181.95</course>
  <speed>3.49</speed>
  <fix>3d</fix>
</trkpt>
<trkpt lat="40.0713149" lon="-105.2297783">
  <ele>1583.14</ele>
  <time>2026-08-28T17:52:28Z</time>
  <course>181.98</course>
  <speed>3.8618648345067697</speed>
  <fix>3d</fix>
</trkpt>
<trkpt lat="40.0713207" lon="-105.2297785">
  <ele>1583.0</ele>
  <time>2026-08-28T17:52:28Z</time>
  <course>182.28</course>
  <speed>3.68</speed>
  <fix>3d</fix>
</trkpt>
<trkpt lat="40.0713114" lon="-105.2297785">
  <ele>1583.14</ele>
  <time>2026-08-28T17:52:28Z</time>
  <course>182.06</course>
  <speed>3.952138661535043</speed>
  <fix>3d</fix>
</trkpt>
<trkpt lat="40.0713207" lon="-105.2297785">
  <ele>1583.0</ele>
  <time>2026-08-28T17:52:28Z</time>
  <course>182.28</course>
  <speed>3.68</speed>
  <fix>3d</fix>
</trkpt>
<trkpt lat="40.0713079" lon="-105.2297788">
  <ele>1583.14</ele>
  <time>2026-08-28T17:52:28Z</time>
  <course>182.11</course>
  <speed>4.052419030653173</speed>
  <fix>3d</fix>
</trkpt>
<trkpt lat="40.0713139" lon="-105.2297789">
  <ele>1583.0</ele>
  <time>2026-08-28T17:52:28Z</time>
  <course>182.48</course>
  <speed>3.88</speed>
  <fix>3d</fix>
</trkpt>
<trkpt lat="40.0713042" lon="-105.229779">
  <ele>1583.14</ele>
  <time>2026-08-28T17:52:28Z</time>
  <course>182.17</course>
  <speed>4.152709958569224</speed>
  <fix>3d</fix>
</trkpt>
<trkpt lat="40.0713139" lon="-105.2297789">
  <ele>1583.0</ele>
  <time>2026-08-28T17:52:28Z</time>
  <course>182.48</course>
  <speed>3.88</speed>
  <fix>3d</fix>
</trkpt>
<trkpt lat="40.0713004" lon="-105.2297792">
  <ele>1583.14</ele>
  <time>2026-08-28T17:52:28Z</time>
  <course>182.2</course>
  <speed>4.2530106983171345</speed>
  <fix>3d</fix>
</trkpt>
<trkpt lat="40.0713068" lon="-105.2297792">
  <ele>1583.0</ele>
  <time>2026-08-28T17:52:28Z</time>
  <course>182.6</course>
  <speed>4.07</speed>
  <fix>3d</fix>
</trkpt>
<trkpt lat="40.0712965" lon="-105.2297795">
  <ele>1583.15</ele>
  <time>2026-08-28T17:52:28Z</time>
  <course>182.2</course>
  <speed>4.352941534181226</speed>
  <fix>3d</fix>
</trkpt>
<trkpt lat="40.0713068" lon="-105.2297792">
  <ele>1583.0</ele>
  <time>2026-08-28T17:52:28Z</time>
  <course>182.6</course>
  <speed>4.07</speed>
  <fix>3d</fix>
</trkpt>
<trkpt lat="40.0712926" lon="-105.2297797">
  <ele>1583.15</ele>
  <time>2026-08-28T17:52:28Z</time>
  <course>182.21</course>
  <speed>4.443253312607779</speed>
  <fix>3d</fix>
</trkpt>
<trkpt lat="40.0712993" lon="-105.2297797">
  <ele>1583.0</ele>
  <time>2026-08-28T17:52:28Z</time>
  <course>182.65</course>
  <speed>4.27</speed>
  <fix>3d</fix>
</trkpt>
<trkpt lat="40.0712885" lon="-105.2297799">
  <ele>1583.15</ele>
  <time>2026-08-28T17:52:28Z</time>
  <course>182.21</course>
  <speed>4.543181704488607</speed>
  <fix>3d</fix>
</trkpt>
<trkpt lat="40.0712993" lon="-105.2297797">
  <ele>1583.0</ele>
  <time>2026-08-28T17:52:28Z</time>
  <course>182.65</course>
  <speed>4.27</speed>
  <fix>3d</fix>
</trkpt>
<trkpt lat="40.0712844" lon="-105.2297802">
  <ele>1583.15</ele>
  <time>2026-08-28T17:52:28Z</time>
  <course>182.21</course>
  <speed>4.643490066749362</speed>
  <fix>3d</fix>
</trkpt>
<trkpt lat="40.0712914" lon="-105.2297801">
  <ele>1583.0</ele>
  <time>2026-08-28T17:52:28Z</time>
  <course>182.65</course>
  <speed>4.46</speed>
  <fix>3d</fix>
</trkpt>
<trkpt lat="40.0712801" lon="-105.2297805">
  <ele>1583.16</ele>
  <time>2026-08-28T17:52:28Z</time>
  <course>182.21</course>
  <speed>4.743416490252569</speed>
  <fix>3d</fix>
</trkpt>
<trkpt lat="40.0712914" lon="-105.2297801">
  <ele>1583.0</ele>
  <time>2026-08-28T17:52:28Z</time>
  <course>182.65</course>
  <speed>4.46</speed>
  <fix>3d</fix>
</trkpt>
<trkpt lat="40.0712758" lon="-105.2297807">
  <ele>1583.16</ele>
  <time>2026-08-28T17:52:28Z</time>
  <course>182.22</course>
  <speed>4.843727903175404</speed>
  <fix>3d</fix>
</trkpt>
<trkpt lat="40.0712832" lon="-105.2297806">
  <ele>1583.0</ele>
  <time>2026-08-28T17:52:28Z</time>
  <course>182.65</course>
  <speed>4.66</speed>
  <fix>3d</fix>
</trkpt>
<trkpt lat="40.0712714" lon="-105.229781">
  <ele>1583.17</ele>
  <time>2026-08-28T17:52:28Z</time>
  <course>182.22</course>
  <speed>4.933659899101275</speed>
  <fix>3d</fix>
</trkpt>
<trkpt lat="40.0712832" lon="-105.2297806">
  <ele>1583.0</ele>
  <time>2026-08-28T17:52:28Z</time>
  <course>182.65</course>
  <speed>4.66</speed>
  <fix>3d</fix>
</trkpt>
<trkpt lat="40.0712669" lon="-105.2297813">
  <ele>1583.17</ele>
  <time>2026-08-28T17:52:28Z</time>
  <course>182.22</course>
  <speed>5.0039984012787215</speed>
  <fix>3d</fix>
</trkpt>
<trkpt lat="40.0712747" lon="-105.2297812">
  <ele>1583.0</ele>
  <time>2026-08-28T17:52:28Z</time>
  <course>182.65</course>
  <speed>4.84</speed>
  <fix>3d</fix>
</trkpt>
<trkpt lat="40.0712623" lon="-105.2297815">
  <ele>1583.18</ele>
  <time>2026-08-28T17:52:28Z</time>
  <course>182.22</course>
  <speed>5.073943239729826</speed>
  <fix>3d</fix>
</trkpt>
<trkpt lat="40.0712747" lon="-105.2297812">
  <ele>1583.0</ele>
  <time>2026-08-28T17:52:28Z</time>
  <course>182.65</course>
  <speed>4.84</speed>
  <fix>3d</fix>
</trkpt>
<trkpt lat="40.0712578" lon="-105.2297818">
  <ele>1583.18</ele>
  <time>2026-08-28T17:52:28Z</time>
  <course>182.22</course>
  <speed>5.1239047610196655</speed>
  <fix>3d</fix>
</trkpt>
<trkpt lat="40.0712659" lon="-105.2297817">
  <ele>1583.0</ele>
  <time>2026-08-28T17:52:28Z</time>
  <course>182.65</course>
  <speed>4.99</speed>
  <fix>3d</fix>
</trkpt>
<trkpt lat="40.0712531" lon="-105.2297821">
  <ele>1583.18</ele>
  <time>2026-08-28T17:52:28Z</time>
  <course>182.22</course>
  <speed>5.1738670257361665</speed>
  <fix>3d</fix>
</trkpt>
<trkpt lat="40.0712659" lon="-105.2297817">
  <ele>1583.0</ele>
  <time>2026-08-28T17:52:28Z</time>
  <course>182.65</course>
  <speed>4.99</speed>
  <fix>3d</fix>
</trkpt>
<trkpt lat="40.0712485" lon="-105.2297824">
  <ele>1583.18</ele>
  <time>2026-08-28T17:52:28Z</time>
  <course>182.22</course>
  <speed>5.204238657094811</speed>
  <fix>3d</fix>
</trkpt>
<trkpt lat="40.0712568" lon="-105.2297823">
  <ele>1583.0</ele>
  <time>2026-08-28T17:52:28Z</time>
  <course>182.65</course>
  <speed>5.09</speed>
  <fix>3d</fix>
</trkpt>
<trkpt lat="40.0712439" lon="-105.2297827">
  <ele>1583.18</ele>
  <time>2026-08-28T17:52:28Z</time>
  <course>182.22</course>
  <speed>5.224222430180399</speed>
  <fix>3d</fix>
</trkpt>
<trkpt lat="40.0712568" lon="-105.2297823">
  <ele>1583.0</ele>
  <time>2026-08-28T17:52:28Z</time>
  <course>182.65</course>
  <speed>5.09</speed>
  <fix>3d</fix>
</trkpt>
<trkpt lat="40.0712392" lon="-105.229783">
  <ele>1583.18</ele>
  <time>2026-08-28T17:52:28Z</time>
  <course>182.22</course>
  <speed>5.244206326986001</speed>
  <fix>3d</fix>
</trkpt>
<trkpt lat="40.0712475" lon="-105.2297828">
  <ele>1583.0</ele>
  <time>2026-08-28T17:52:28Z</time>
  <course>182.65</course>
  <speed>5.16</speed>
  <fix>3d</fix>
</trkpt>
<trkpt lat="40.0712346" lon="-105.2297832">
  <ele>1583.18</ele>
  <time>2026-08-28T17:52:28Z</time>
  <course>182.22</course>
  <speed>5.254198321342658</speed>
  <fix>3d</fix>
</trkpt>
<trkpt lat="40.0712475" lon="-105.2297828">
  <ele>1583.0</ele>
  <time>2026-08-28T17:52:28Z</time>
  <course>182.65</course>
  <speed>5.16</speed>
  <fix>3d</fix>
</trkpt>
<trkpt lat="40.0712299" lon="-105.2297835">
  <ele>1583.18</ele>
  <time>2026-08-28T17:52:28Z</time>
  <course>182.2</course>
  <speed>5.254198321342658</speed>
  <fix>3d</fix>
</trkpt>
<trkpt lat="40.0712383" lon="-105.2297834">
  <ele>1583.0</ele>
  <time>2026-08-28T17:52:28Z</time>
  <course>182.65</course>
  <speed>5.19</speed>
  <fix>3d</fix>
</trkpt>
<trkpt lat="40.0712253" lon="-105.2297838">
  <ele>1583.19</ele>
  <time>2026-08-28T17:52:28Z</time>
  <course>182.17</course>
  <speed>5.244206326986001</speed>
  <fix>3d</fix>
</trkpt>
<trkpt lat="40.0712383" lon="-105.2297834">
  <ele>1583.0</ele>
  <time>2026-08-28T17:52:28Z</time>
  <course>182.65</course>
  <speed>5.19</speed>
  <fix>3d</fix>
</trkpt>
<trkpt lat="40.0712206" lon="-105.2297841">
  <ele>1583.19</ele>
  <time>2026-08-28T17:52:28Z</time>
  <course>182.11</course>
  <speed>5.243815404836443</speed>
  <fix>3d</fix>
</trkpt>
<trkpt lat="40.0712289" lon="-105.229784">
  <ele>1583.0</ele>
  <time>2026-08-28T17:52:28Z</time>
  <course>182.61</course>
  <speed>5.2</speed>
  <fix>3d</fix>
</trkpt>
<trkpt lat="40.071216" lon="-105.2297844">
  <ele>1583.19</ele>
  <time>2026-08-28T17:52:28Z</time>
  <course>182.07</course>
  <speed>5.223830012548265</speed>
  <fix>3d</fix>
</trkpt>
<trkpt lat="40.0712289" lon="-105.229784">
  <ele>1583.0</ele>
  <time>2026-08-28T17:52:28Z</time>
  <course>182.61</course>
  <speed>5.2</speed>
  <fix>3d</fix>
</trkpt>
<trkpt lat="40.0712114" lon="-105.2297846">
  <ele>1583.19</ele>
  <time>2026-08-28T17:52:28Z</time>
  <course>182.0</course>
  <speed>5.213837358414626</speed>
  <fix>3d</fix>
</trkpt>
<trkpt lat="40.0712196" lon="-105.2297845">
  <ele>1583.0</ele>
  <time>2026-08-28T17:52:28Z</time>
  <course>182.52</course>
  <speed>5.19</speed>
  <fix>3d</fix>
</trkpt>
<trkpt lat="40.0712068" lon="-105.2297849">
  <ele>1583.19</ele>
  <time>2026-08-28T17:52:28Z</time>
  <course>181.94</course>
  <speed>5.193476677525374</speed>
  <fix>3d</fix>
</trkpt>
<trkpt lat="40.0712196" lon="-105.2297845">
  <ele>1583.0</ele>
  <time>2026-08-28T17:52:28Z</time>
  <course>182.52</course>
  <speed>5.19</speed>
  <fix>3d</fix>
</trkpt>
<trkpt lat="40.0712022" lon="-105.2297852">
  <ele>1583.18</ele>
  <time>2026-08-28T17:52:28Z</time>
  <course>181.87</course>
  <speed>5.183126469612719</speed>
  <fix>3d</fix>
</trkpt>
<trkpt lat="40.0712103" lon="-105.229785">
  <ele>1583.0</ele>
  <time>2026-08-28T17:52:28Z</time>
  <course>182.4</course>
  <speed>5.17</speed>
  <fix>3d</fix>
</trkpt>
<trkpt lat="40.0711975" lon="-105.2297854">
  <ele>1583.18</ele>
  <time>2026-08-28T17:52:28Z</time>
  <course>181.8</course>
  <speed>5.163138580359819</speed>
  <fix>3d</fix>
</trkpt>
<trkpt lat="40.0712103" lon="-105.229785">
  <ele>1583.0</ele>
  <time>2026-08-28T17:52:28Z</time>
  <course>182.4</course>
  <speed>5.17</speed>
  <fix>3d</fix>
</trkpt>
<trkpt lat="40.0711929" lon="-105.2297856">
  <ele>1583.18</ele>
  <time>2026-08-28T17:52:28Z</time>
  <course>181.72</course>
  <speed>5.142810515661646</speed>
  <fix>3d</fix>
</trkpt>
<trkpt lat="40.071201" lon="-105.2297855">
  <ele>1583.0</ele>
  <time>2026-08-28T17:52:28Z</time>
  <course>182.27</course>
  <speed>5.14</speed>
  <fix>3d</fix>
</trkpt>
<trkpt lat="40.0711883" lon="-105.2297859">
  <ele>1583.18</ele>
  <time>2026-08-28T17:52:28Z</time>
  <course>181.67</course>
  <speed>5.122821488203547</speed>
  <fix>3d</fix>
</trkpt>
<trkpt lat="40.071201" lon="-105.2297855">
  <ele>1583.0</ele>
  <time>2026-08-28T17:52:28Z</time>
  <course>182.27</course>
  <speed>5.14</speed>
  <fix>3d</fix>
</trkpt>
<trkpt lat="40.0711837" lon="-105.2297861">
  <ele>1583.18</ele>
  <time>2026-08-28T17:52:28Z</time>
  <course>181.59</course>
  <speed>5.102509186664929</speed>
  <fix>3d</fix>
</trkpt>
<trkpt lat="40.0711919" lon="-105.2297859">
  <ele>1583.0</ele>
  <time>2026-08-28T17:52:28Z</time>
  <course>182.14</course>
  <speed>5.1</speed>
  <fix>3d</fix>
</trkpt>
<trkpt lat="40.0711791" lon="-105.2297863">
  <ele>1583.18</ele>
  <time>2026-08-28T17:52:28Z</time>
  <course>181.54</course>
  <speed>5.082519060465981</speed>
  <fix>3d</fix>
</trkpt>
<trkpt lat="40.0711919" lon="-105.2297859">
  <ele>1583.0</ele>
  <time>2026-08-28T17:52:28Z</time>
  <course>182.14</course>
  <speed>5.1</speed>
  <fix>3d</fix>
</trkpt>
<trkpt lat="40.0711746" lon="-105.2297865">
  <ele>1583.18</ele>
  <time>2026-08-28T17:52:28Z</time>
  <course>181.48</course>
  <speed>5.072218449554396</speed>
  <fix>3d</fix>
</trkpt>
<trkpt lat="40.0711827" lon="-105.2297864">
  <ele>1583.0</ele>
  <time>2026-08-28T17:52:28Z</time>
  <course>182.01</course>
  <speed>5.06</speed>
  <fix>3d</fix>
</trkpt>
<trkpt lat="40.07117" lon="-105.2297867">
  <ele>1583.18</ele>
  <time>2026-08-28T17:52:28Z</time>
  <course>181.41</course>
  <speed>5.051940221340708</speed>
  <fix>3d</fix>
</trkpt>
<trkpt lat="40.0711827" lon="-105.2297864">
  <ele>1583.0</ele>
  <time>2026-08-28T17:52:28Z</time>
  <course>182.01</course>
  <speed>5.06</speed>
  <fix>3d</fix>
</trkpt>
<trkpt lat="40.0711655" lon="-105.2297869">
  <ele>1583.18</ele>
  <time>2026-08-28T17:52:29Z</time>
  <course>181.36</course>
  <speed>5.031947932957971</speed>
  <fix>3d</fix>
</trkpt>
<trkpt lat="40.0711737" lon="-105.2297868">
  <ele>1583.0</ele>
  <time>2026-08-28T17:52:29Z</time>
  <course>181.9</course>
  <speed>5.03</speed>
  <fix>3d</fix>
</trkpt>
<trkpt lat="40.071161" lon="-105.2297871">
  <ele>1583.18</ele>
  <time>2026-08-28T17:52:29Z</time>
  <course>181.31</course>
  <speed>5.021951811795888</speed>
  <fix>3d</fix>
</trkpt>
<trkpt lat="40.0711737" lon="-105.2297868">
  <ele>1583.0</ele>
  <time>2026-08-28T17:52:29Z</time>
  <course>181.9</course>
  <speed>5.03</speed>
  <fix>3d</fix>
</trkpt>
<trkpt lat="40.0711565" lon="-105.2297873">
  <ele>1583.18</ele>
  <time>2026-08-28T17:52:29Z</time>
  <course>181.25</course>
  <speed>5.011686342938871</speed>
  <fix>3d</fix>
</trkpt>
<trkpt lat="40.0711647" lon="-105.2297872">
  <ele>1583.0</ele>
  <time>2026-08-28T17:52:29Z</time>
  <course>181.8</course>
  <speed>5.0</speed>
  <fix>3d</fix>
</trkpt>
<trkpt lat="40.0711521" lon="-105.2297875">
  <ele>1583.17</ele>
  <time>2026-08-28T17:52:29Z</time>
  <course>181.2</course>
  <speed>4.991693099540475</speed>
  <fix>3d</fix>
</trkpt>
<trkpt lat="40.0711647" lon="-105.2297872">
  <ele>1583.0</ele>
  <time>2026-08-28T17:52:29Z</time>
  <course>181.8</course>
  <speed>5.0</speed>
  <fix>3d</fix>
</trkpt>
<trkpt lat="40.0711477" lon="-105.2297876">
  <ele>1583.17</ele>
  <time>2026-08-28T17:52:29Z</time>
  <course>181.13</course>
  <speed>4.981445573325076</speed>
  <fix>3d</fix>
</trkpt>
<trkpt lat="40.0711557" lon="-105.2297876">
  <ele>1583.0</ele>
  <time>2026-08-28T17:52:29Z</time>
  <course>181.69</course>
  <speed>4.97</speed>
  <fix>3d</fix>
</trkpt>
<trkpt lat="40.0711433" lon="-105.2297878">
  <ele>1583.16</ele>
  <time>2026-08-28T17:52:29Z</time>
  <course>181.09</course>
  <speed>4.971448481076718</speed>
  <fix>3d</fix>
</trkpt>
<trkpt lat="40.0711557" lon="-105.2297876">
  <ele>1583.0</ele>
  <time>2026-08-28T17:52:29Z</time>
  <course>181.69</course>
  <speed>4.97</speed>
  <fix>3d</fix>
</trkpt>
<trkpt lat="40.0711389" lon="-105.229788">
  <ele>1583.16</ele>
  <time>2026-08-28T17:52:29Z</time>
  <course>181.04</course>
  <speed>4.971448481076718</speed>
  <fix>3d</fix>
</trkpt>
<trkpt lat="40.0711467" lon="-105.2297879">
  <ele>1583.0</ele>
  <time>2026-08-28T17:52:29Z</time>
  <course>181.59</course>
  <speed>4.96</speed>
  <fix>3d</fix>
</trkpt>
<trkpt lat="40.0711345" lon="-105.2297881">
  <ele>1583.16</ele>
  <time>2026-08-28T17:52:29Z</time>
  <course>180.98</course>
  <speed>4.961219608120568</speed>
  <fix>3d</fix>
</trkpt>
<trkpt lat="40.0711467" lon="-105.2297879">
  <ele>1583.0</ele>
  <time>2026-08-28T17:52:29Z</time>
  <course>181.59</course>
  <speed>4.96</speed>
  <fix>3d</fix>
</trkpt>
<trkpt lat="40.0711301" lon="-105.2297883">
  <ele>1583.16</ele>
  <time>2026-08-28T17:52:29Z</time>
  <course>180.92</course>
  <speed>4.951222071367836</speed>
  <fix>3d</fix>
</trkpt>
<trkpt lat="40.0711378" lon="-105.2297882">
  <ele>1583.0</ele>
  <time>2026-08-28T17:52:29Z</time>
  <course>181.5</course>
  <speed>4.95</speed>
  <fix>3d</fix>
</trkpt>
<trkpt lat="40.0711257" lon="-105.2297884">
  <ele>1583.16</ele>
  <time>2026-08-28T17:52:29Z</time>
  <course>180.88</course>
  <speed>4.951009997970111</speed>
  <fix>3d</fix>
</trkpt>
<trkpt lat="40.0711378" lon="-105.2297882">
  <ele>1583.0</ele>
  <time>2026-08-28T17:52:29Z</time>
  <course>181.5</course>
  <speed>4.95</speed>
  <fix>3d</fix>
</trkpt>
<trkpt lat="40.0711213" lon="-105.2297886">
  <ele>1583.16</ele>
  <time>2026-08-28T17:52:29Z</time>
  <course>180.85</course>
  <speed>4.951009997970111</speed>
  <fix>3d</fix>
</trkpt>
<trkpt lat="40.0711289" lon="-105.2297885">
  <ele>1583.0</ele>
  <time>2026-08-28T17:52:29Z</time>
  <course>181.41</course>
  <speed>4.95</speed>
  <fix>3d</fix>
</trkpt>
<trkpt lat="40.0711168" lon="-105.2297887">
  <ele>1583.16</ele>
  <time>2026-08-28T17:52:29Z</time>
  <course>180.79</course>
  <speed>4.951009997970111</speed>
  <fix>3d</fix>
</trkpt>
<trkpt lat="40.0711289" lon="-105.2297885">
  <ele>1583.0</ele>
  <time>2026-08-28T17:52:29Z</time>
  <course>181.41</course>
  <speed>4.95</speed>
  <fix>3d</fix>
</trkpt>
<trkpt lat="40.0711124" lon="-105.2297888">
  <ele>1583.16</ele>
  <time>2026-08-28T17:52:29Z</time>
  <course>180.75</course>
  <speed>4.960816465058953</speed>
  <fix>3d</fix>
</trkpt>
<trkpt lat="40.07112" lon="-105.2297888">
  <ele>1583.0</ele>
  <time>2026-08-28T17:52:29Z</time>
  <course>181.33</course>
  <speed>4.95</speed>
  <fix>3d</fix>
</trkpt>
<trkpt lat="40.071108" lon="-105.229789">
  <ele>1583.16</ele>
  <time>2026-08-28T17:52:29Z</time>
  <course>180.72</course>
  <speed>4.960816465058953</speed>
  <fix>3d</fix>
</trkpt>
<trkpt lat="40.07112" lon="-105.2297888">
  <ele>1583.0</ele>
  <time>2026-08-28T17:52:29Z</time>
  <course>181.33</course>
  <speed>4.95</speed>
  <fix>3d</fix>
</trkpt>
<trkpt lat="40.0711035" lon="-105.2297891">
  <ele>1583.16</ele>
  <time>2026-08-28T17:52:29Z</time>
  <course>180.67</course>
  <speed>4.960816465058953</speed>
  <fix>3d</fix>
</trkpt>
<trkpt lat="40.0711111" lon="-105.2297891">
  <ele>1583.0</ele>
  <time>2026-08-28T17:52:29Z</time>
  <course>181.24</course>
  <speed>4.95</speed>
  <fix>3d</fix>
</trkpt>
<trkpt lat="40.071099" lon="-105.2297892">
  <ele>1583.16</ele>
  <time>2026-08-28T17:52:29Z</time>
  <course>180.63</course>
  <speed>4.97064382147826</speed>
  <fix>3d</fix>
</trkpt>
<trkpt lat="40.0711111" lon="-105.2297891">
  <ele>1583.0</ele>
  <time>2026-08-28T17:52:29Z</time>
  <course>181.24</course>
  <speed>4.95</speed>
  <fix>3d</fix>
</trkpt>
<trkpt lat="40.0710945" lon="-105.2297893">
  <ele>1583.16</ele>
  <time>2026-08-28T17:52:29Z</time>
  <course>180.63</course>
  <speed>4.960645119336799</speed>
  <fix>3d</fix>
</trkpt>
<trkpt lat="40.0711022" lon="-105.2297893">
  <ele>1583.0</ele>
  <time>2026-08-28T17:52:29Z</time>
  <course>181.18</course>
  <speed>4.95</speed>
  <fix>3d</fix>
</trkpt>
<trkpt lat="40.07109" lon="-105.2297894">
  <ele>1583.17</ele>
  <time>2026-08-28T17:52:29Z</time>
  <course>180.62</course>
  <speed>4.94064773081425</speed>
  <fix>3d</fix>
</trkpt>
<trkpt lat="40.0711022" lon="-105.2297893">
  <ele>1583.0</ele>
  <time>2026-08-28T17:52:29Z</time>
  <course>181.18</course>
  <speed>4.95</speed>
  <fix>3d</fix>
</trkpt>
<trkpt lat="40.0710856" lon="-105.2297896">
  <ele>1583.17</ele>
  <time>2026-08-28T17:52:29Z</time>
  <course>180.62</course>
  <speed>4.900653017711007</speed>
  <fix>3d</fix>
</trkpt>
<trkpt lat="40.0710933" lon="-105.2297896">
  <ele>1583.0</ele>
  <time>2026-08-28T17:52:29Z</time>
  <course>181.16</course>
  <speed>4.93</speed>
  <fix>3d</fix>
</trkpt>
<trkpt lat="40.0710812" lon="-105.2297897">
  <ele>1583.17</ele>
  <time>2026-08-28T17:52:29Z</time>
  <course>180.62</course>
  <speed>4.850659748941375</speed>
  <fix>3d</fix>
</trkpt>
<trkpt lat="40.0710933" lon="-105.2297896">
  <ele>1583.0</ele>
  <time>2026-08-28T17:52:29Z</time>
  <course>181.16</course>
  <speed>4.93</speed>
  <fix>3d</fix>
</trkpt>
<trkpt lat="40.0710769" lon="-105.2297898">
  <ele>1583.18</ele>
  <time>2026-08-28T17:52:29Z</time>
  <course>180.61</course>
  <speed>4.780669409193654</speed>
  <fix>3d</fix>
</trkpt>
<trkpt lat="40.0710846" lon="-105.2297897">
  <ele>1583.0</ele>
  <time>2026-08-28T17:52:29Z</time>
  <course>181.16</course>
  <speed>4.85</speed>
  <fix>3d</fix>
</trkpt>
<trkpt lat="40.0710726" lon="-105.2297899">
  <ele>1583.18</ele>
  <time>2026-08-28T17:52:29Z</time>
  <course>180.61</course>
  <speed>4.700680801756273</speed>
  <fix>3d</fix>
</trkpt>
<trkpt lat="40.0710846" lon="-105.2297897">
  <ele>1583.0</ele>
  <time>2026-08-28T17:52:29Z</time>
  <course>181.16</course>
  <speed>4.85</speed>
  <fix>3d</fix>
</trkpt>
<trkpt lat="40.0710684" lon="-105.22979">
  <ele>1583.18</ele>
  <time>2026-08-28T17:52:29Z</time>
  <course>180.61</course>
  <speed>4.610694090915163</speed>
  <fix>3d</fix>
</trkpt>
<trkpt lat="40.071076" lon="-105.22979">
  <ele>1583.0</ele>
  <time>2026-08-28T17:52:29Z</time>
  <course>181.16</course>
  <speed>4.71</speed>
  <fix>3d</fix>
</trkpt>
<trkpt lat="40.0710643" lon="-105.2297902">
  <ele>1583.18</ele>
  <time>2026-08-28T17:52:29Z</time>
  <course>180.6</course>
  <speed>4.510709478563212</speed>
  <fix>3d</fix>
</trkpt>
<trkpt lat="40.071076" lon="-105.22979">
  <ele>1583.0</ele>
  <time>2026-08-28T17:52:29Z</time>
  <course>181.16</course>
  <speed>4.71</speed>
  <fix>3d</fix>
</trkpt>
<trkpt lat="40.0710603" lon="-105.2297903">
  <ele>1583.18</ele>
  <time>2026-08-28T17:52:29Z</time>
  <course>180.6</course>
  <speed>4.4107255638953555</speed>
  <fix>3d</fix>
</trkpt>
<trkpt lat="40.0710677" lon="-105.2297902">
  <ele>1583.0</ele>
  <time>2026-08-28T17:52:29Z</time>
  <course>181.16</course>
  <speed>4.54</speed>
  <fix>3d</fix>
</trkpt>
<trkpt lat="40.0710565" lon="-105.2297904">
  <ele>1583.19</ele>
  <time>2026-08-28T17:52:29Z</time>
  <course>180.59</course>
  <speed>4.29074585590897</speed>
  <fix>3d</fix>
</trkpt>
<trkpt lat="40.0710677" lon="-105.2297902">
  <ele>1583.0</ele>
  <time>2026-08-28T17:52:29Z</time>
  <course>181.16</course>
  <speed>4.54</speed>
  <fix>3d</fix>
</trkpt>
<trkpt lat="40.0710527" lon="-105.2297905">
  <ele>1583.19</ele>
  <time>2026-08-28T17:52:29Z</time>
  <course>180.59</course>
  <speed>4.170767315494836</speed>
  <fix>3d</fix>
</trkpt>
<trkpt lat="40.0710596" lon="-105.2297905">
  <ele>1583.0</ele>
  <time>2026-08-28T17:52:29Z</time>
  <course>181.16</course>
  <speed>4.32</speed>
  <fix>3d</fix>
</trkpt>
<trkpt lat="40.0710491" lon="-105.2297906">
  <ele>1583.19</ele>
  <time>2026-08-28T17:52:29Z</time>
  <course>180.59</course>
  <speed>4.040606390135025</speed>
  <fix>3d</fix>
</trkpt>
<trkpt lat="40.0710596" lon="-105.2297905">
  <ele>1583.0</ele>
  <time>2026-08-28T17:52:29Z</time>
  <course>181.16</course>
  <speed>4.32</speed>
  <fix>3d</fix>
</trkpt>
<trkpt lat="40.0710456" lon="-105.2297907">
  <ele>1583.2</ele>
  <time>2026-08-28T17:52:29Z</time>
  <course>180.58</course>
  <speed>3.9206249501833255</speed>
  <fix>3d</fix>
</trkpt>
<trkpt lat="40.071052" lon="-105.2297907">
  <ele>1583.0</ele>
  <time>2026-08-28T17:52:29Z</time>
  <course>181.16</course>
  <speed>4.09</speed>
  <fix>3d</fix>
</trkpt>
<trkpt lat="40.0710422" lon="-105.2297908">
  <ele>1583.2</ele>
  <time>2026-08-28T17:52:29Z</time>
  <course>180.58</course>
  <speed>3.7806480925894177</speed>
  <fix>3d</fix>
</trkpt>
<trkpt lat="40.071052" lon="-105.2297907">
  <ele>1583.0</ele>
  <time>2026-08-28T17:52:29Z</time>
  <course>181.16</course>
  <speed>4.09</speed>
  <fix>3d</fix>
</trkpt>
<trkpt lat="40.0710389" lon="-105.2297909">
  <ele>1583.2</ele>
  <time>2026-08-28T17:52:29Z</time>
  <course>180.53</course>
  <speed>3.650671171168392</speed>
  <fix>3d</fix>
</trkpt>
<trkpt lat="40.0710449" lon="-105.2297908">
  <ele>1583.0</ele>
  <time>2026-08-28T17:52:29Z</time>
  <course>181.14</course>
  <speed>3.84</speed>
  <fix>3d</fix>
</trkpt>
<trkpt lat="40.0710357" lon="-105.229791">
  <ele>1583.2</ele>
  <time>2026-08-28T17:52:29Z</time>
  <course>180.5</course>
  <speed>3.5205113264978998</speed>
  <fix>3d</fix>
</trkpt>
<trkpt lat="40.0710449" lon="-105.2297908">
  <ele>1583.0</ele>
  <time>2026-08-28T17:52:29Z</time>
  <course>181.14</course>
  <speed>3.84</speed>
  <fix>3d</fix>
</trkpt>
<trkpt lat="40.0710326" lon="-105.2297911">
  <ele>1583.2</ele>
  <time>2026-08-28T17:52:29Z</time>
  <course>180.45</course>
  <speed>3.3905309318748293</speed>
  <fix>3d</fix>
</trkpt>
<trkpt lat="40.0710383" lon="-105.229791">
  <ele>1583.0</ele>
  <time>2026-08-28T17:52:29Z</time>
  <course>181.09</course>
  <speed>3.58</speed>
  <fix>3d</fix>
</trkpt>
<trkpt lat="40.0710297" lon="-105.2297911">
  <ele>1583.2</ele>
  <time>2026-08-28T17:52:29Z</time>
  <course>180.4</course>
  <speed>3.2605521004885047</speed>
  <fix>3d</fix>
</trkpt>
<trkpt lat="40.0710383" lon="-105.229791">
  <ele>1583.0</ele>
  <time>2026-08-28T17:52:29Z</time>
  <course>181.09</course>
  <speed>3.58</speed>
  <fix>3d</fix>
</trkpt>
<trkpt lat="40.0710268" lon="-105.2297912">
  <ele>1583.2</ele>
  <time>2026-08-28T17:52:29Z</time>
  <course>180.35</course>
  <speed>3.130399335548102</speed>
  <fix>3d</fix>
</trkpt>
<trkpt lat="40.071032" lon="-105.2297911">
  <ele>1583.0</ele>
  <time>2026-08-28T17:52:29Z</time>
  <course>181.01</course>
  <speed>3.33</speed>
  <fix>3d</fix>
</trkpt>
<trkpt lat="40.0710241" lon="-105.2297913">
  <ele>1583.2</ele>
  <time>2026-08-28T17:52:29Z</time>
  <course>180.31</course>
  <speed>3.0104152537482265</speed>
  <fix>3d</fix>
</trkpt>
<trkpt lat="40.071032" lon="-105.2297911">
  <ele>1583.0</ele>
  <time>2026-08-28T17:52:29Z</time>
  <course>181.01</course>
  <speed>3.33</speed>
  <fix>3d</fix>
</trkpt>
<trkpt lat="40.0710215" lon="-105.2297913">
  <ele>1583.19</ele>
  <time>2026-08-28T17:52:29Z</time>
  <course>180.27</course>
  <speed>2.8802777643831505</speed>
  <fix>3d</fix>
</trkpt>
<trkpt lat="40.0710263" lon="-105.2297912">
  <ele>1583.0</ele>
  <time>2026-08-28T17:52:29Z</time>
  <course>180.93</course>
  <speed>3.07</speed>
  <fix>3d</fix>
</trkpt>
<trkpt lat="40.0710189" lon="-105.2297914">
  <ele>1583.19</ele>
  <time>2026-08-28T17:52:29Z</time>
  <course>180.23</course>
  <speed>2.7602898398537787</speed>
  <fix>3d</fix>
</trkpt>
<trkpt lat="40.0710263" lon="-105.2297912">
  <ele>1583.0</ele>
  <time>2026-08-28T17:52:29Z</time>
  <course>180.93</course>
  <speed>3.07</speed>
  <fix>3d</fix>
</trkpt>
<trkpt lat="40.0710165" lon="-105.2297914">
  <ele>1583.19</ele>
  <time>2026-08-28T17:52:29Z</time>
  <course>180.18</course>
  <speed>2.64030301291348</speed>
  <fix>3d</fix>
</trkpt>
<trkpt lat="40.071021" lon="-105.2297914">
  <ele>1583.0</ele>
  <time>2026-08-28T17:52:29Z</time>
  <course>180.85</course>
  <speed>2.82</speed>
  <fix>3d</fix>
</trkpt>
<trkpt lat="40.0710142" lon="-105.2297915">
  <ele>1583.19</ele>
  <time>2026-08-28T17:52:29Z</time>
  <course>180.11</course>
  <speed>2.5201785651020843</speed>
  <fix>3d</fix>
</trkpt>
<trkpt lat="40.071021" lon="-105.2297914">
  <ele>1583.0</ele>
  <time>2026-08-28T17:52:29Z</time>
  <course>180.85</course>
  <speed>2.82</speed>
  <fix>3d</fix>
</trkpt>
<trkpt lat="40.071012" lon="-105.2297915">
  <ele>1583.19</ele>
  <time>2026-08-28T17:52:29Z</time>
  <course>180.04</course>
  <speed>2.4001874926763533</speed>
  <fix>3d</fix>
</trkpt>
<trkpt lat="40.0710162" lon="-105.2297914">
  <ele>1583.0</ele>
  <time>2026-08-28T17:52:29Z</time>
  <course>180.74</course>
  <speed>2.59</speed>
  <fix>3d</fix>
</trkpt>
<trkpt lat="40.0710099" lon="-105.2297915">
  <ele>1583.19</ele>
  <time>2026-08-28T17:52:29Z</time>
  <course>179.96</course>
  <speed>2.290087334579186</speed>
  <fix>3d</fix>
</trkpt>
<trkpt lat="40.0710162" lon="-105.2297914">
  <ele>1583.0</ele>
  <time>2026-08-28T17:52:29Z</time>
  <course>180.74</course>
  <speed>2.59</speed>
  <fix>3d</fix>
</trkpt>
<trkpt lat="40.071008" lon="-105.2297916">
  <ele>1583.18</ele>
  <time>2026-08-28T17:52:29Z</time>
  <course>179.9</course>
  <speed>2.1800917411888885</speed>
  <fix>3d</fix>
</trkpt>
<trkpt lat="40.0710117" lon="-105.2297915">
  <ele>1583.0</ele>
  <time>2026-08-28T17:52:29Z</time>
  <course>180.61</course>
  <speed>2.36</speed>
  <fix>3d</fix>
</trkpt>
<trkpt lat="40.0710061" lon="-105.2297916">
  <ele>1583.18</ele>
  <time>2026-08-28T17:52:29Z</time>
  <course>179.82</course>
  <speed>2.0700966161027363</speed>
  <fix>3d</fix>
</trkpt>
<trkpt lat="40.0710117" lon="-105.2297915">
  <ele>1583.0</ele>
  <time>2026-08-28T17:52:29Z</time>
  <course>180.61</course>
  <speed>2.36</speed>
  <fix>3d</fix>
</trkpt>
<trkpt lat="40.0710043" lon="-105.2297916">
  <ele>1583.18</ele>
  <time>2026-08-28T17:52:29Z</time>
  <course>179.73</course>
  <speed>1.960025510038071</speed>
  <fix>3d</fix>
</trkpt>
<trkpt lat="40.0710076" lon="-105.2297916">
  <ele>1583.0</ele>
  <time>2026-08-28T17:52:29Z</time>
  <course>180.47</course>
  <speed>2.14</speed>
  <fix>3d</fix>
</trkpt>
<trkpt lat="40.0710026" lon="-105.2297916">
  <ele>1583.17</ele>
  <time>2026-08-28T17:52:29Z</time>
  <course>179.65</course>
  <speed>1.8600268815261785</speed>
  <fix>3d</fix>
</trkpt>
<trkpt lat="40.0710076" lon="-105.2297916">
  <ele>1583.0</ele>
  <time>2026-08-28T17:52:29Z</time>
  <course>180.47</course>
  <speed>2.14</speed>
  <fix>3d</fix>
</trkpt>
<trkpt lat="40.071001" lon="-105.2297916">
  <ele>1583.17</ele>
  <time>2026-08-28T17:52:29Z</time>
  <course>179.55</course>
  <speed>1.75</speed>
  <fix>3d</fix>
</trkpt>
<trkpt lat="40.071004" lon="-105.2297916">
  <ele>1583.0</ele>
  <time>2026-08-28T17:52:29Z</time>
  <course>180.31</course>
  <speed>1.93</speed>
  <fix>3d</fix>
</trkpt>
<trkpt lat="40.0709995" lon="-105.2297916">
  <ele>1583.17</ele>
  <time>2026-08-28T17:52:29Z</time>
  <course>179.44</course>
  <speed>1.65</speed>
  <fix>3d</fix>
</trkpt>
<trkpt lat="40.071004" lon="-105.2297916">
  <ele>1583.0</ele>
  <time>2026-08-28T17:52:29Z</time>
  <course>180.31</course>
  <speed>1.93</speed>
  <fix>3d</fix>
</trkpt>
<trkpt lat="40.0709981" lon="-105.2297916">
  <ele>1583.17</ele>
  <time>2026-08-28T17:52:29Z</time>
  <course>179.32</course>
  <speed>1.55</speed>
  <fix>3d</fix>
</trkpt>
<trkpt lat="40.0710007" lon="-105.2297916">
  <ele>1583.0</ele>
  <time>2026-08-28T17:52:29Z</time>
  <course>180.11</course>
  <speed>1.72</speed>
  <fix>3d</fix>
</trkpt>
<trkpt lat="40.0709967" lon="-105.2297916">
  <ele>1583.18</ele>
  <time>2026-08-28T17:52:29Z</time>
  <course>179.18</course>
  <speed>1.45</speed>
  <fix>3d</fix>
</trkpt>
<trkpt lat="40.0710007" lon="-105.2297916">
  <ele>1583.0</ele>
  <time>2026-08-28T17:52:29Z</time>
  <course>180.11</course>
  <speed>1.72</speed>
  <fix>3d</fix>
</trkpt>
<trkpt lat="40.0709955" lon="-105.2297916">
  <ele>1583.17</ele>
  <time>2026-08-28T17:52:29Z</time>
  <course>179.03</course>
  <speed>1.35</speed>
  <fix>3d</fix>
</trkpt>
<trkpt lat="40.0709978" lon="-105.2297916">
  <ele>1583.0</ele>
  <time>2026-08-28T17:52:29Z</time>
  <course>179.87</course>
  <speed>1.52</speed>
  <fix>3d</fix>
</trkpt>
<trkpt lat="40.0709943" lon="-105.2297916">
  <ele>1583.17</ele>
  <time>2026-08-28T17:52:29Z</time>
  <course>178.86</course>
  <speed>1.2600396819148196</speed>
  <fix>3d</fix>
</trkpt>
<trkpt lat="40.0709978" lon="-105.2297916">
  <ele>1583.0</ele>
  <time>2026-08-28T17:52:29Z</time>
  <course>179.87</course>
  <speed>1.52</speed>
  <fix>3d</fix>
</trkpt>
<trkpt lat="40.0709933" lon="-105.2297916">
  <ele>1583.17</ele>
  <time>2026-08-28T17:52:29Z</time>
  <course>178.66</course>
  <speed>1.1600431026474836</speed>
  <fix>3d</fix>
</trkpt>
<trkpt lat="40.0709953" lon="-105.2297916">
  <ele>1583.0</ele>
  <time>2026-08-28T17:52:29Z</time>
  <course>179.57</course>
  <speed>1.33</speed>
  <fix>3d</fix>
</trkpt>
<trkpt lat="40.0709923" lon="-105.2297916">
  <ele>1583.17</ele>
  <time>2026-08-28T17:52:29Z</time>
  <course>178.43</course>
  <speed>1.0600471687618434</speed>
  <fix>3d</fix>
</trkpt>
<trkpt lat="40.0709953" lon="-105.2297916">
  <ele>1583.0</ele>
  <time>2026-08-28T17:52:29Z</time>
  <course>179.57</course>
  <speed>1.33</speed>
  <fix>3d</fix>
</trkpt>
<trkpt lat="40.0709914" lon="-105.2297916">
  <ele>1583.17</ele>
  <time>2026-08-28T17:52:29Z</time>
  <course>178.16</course>
  <speed>0.9702061636580135</speed>
  <fix>3d</fix>
</trkpt>
<trkpt lat="40.070993" lon="-105.2297916">
  <ele>1583.0</ele>
  <time>2026-08-28T17:52:29Z</time>
  <course>179.16</course>
  <speed>1.14</speed>
  <fix>3d</fix>
</trkpt>
<trkpt lat="40.0709906" lon="-105.2297916">
  <ele>1583.17</ele>
  <time>2026-08-28T17:52:29Z</time>
  <course>177.85</course>
  <speed>0.8702298546935746</speed>
  <fix>3d</fix>
</trkpt>
<trkpt lat="40.070993" lon="-105.2297916">
  <ele>1583.0</ele>
  <time>2026-08-28T17:52:29Z</time>
  <course>179.16</course>
  <speed>1.14</speed>
  <fix>3d</fix>
</trkpt>
<trkpt lat="40.0709898" lon="-105.2297915">
  <ele>1583.17</ele>
  <time>2026-08-28T17:52:29Z</time>
  <course>177.53</course>
  <speed>0.7802563681252463</speed>
  <fix>3d</fix>
</trkpt>
<trkpt lat="40.0709911" lon="-105.2297916">
  <ele>1583.0</ele>
  <time>2026-08-28T17:52:29Z</time>
  <course>178.64</course>
  <speed>0.95</speed>
  <fix>3d</fix>
</trkpt>
<trkpt lat="40.0709892" lon="-105.2297915">
  <ele>1583.17</ele>
  <time>2026-08-28T17:52:29Z</time>
  <course>177.22</course>
  <speed>0.680294054067798</speed>
  <fix>3d</fix>
</trkpt>
<trkpt lat="40.0709911" lon="-105.2297916">
  <ele>1583.0</ele>
  <time>2026-08-28T17:52:29Z</time>
  <course>178.64</course>
  <speed>0.95</speed>
  <fix>3d</fix>
</trkpt>
<trkpt lat="40.0709886" lon="-105.2297915">
  <ele>1583.16</ele>
  <time>2026-08-28T17:52:29Z</time>
  <course>176.91</course>
  <speed>0.5803447251418763</speed>
  <fix>3d</fix>
</trkpt>
<trkpt lat="40.0709896" lon="-105.2297916">
  <ele>1583.0</ele>
  <time>2026-08-28T17:52:29Z</time>
  <course>178.03</course>
  <speed>0.76</speed>
  <fix>3d</fix>
</trkpt>
<trkpt lat="40.0709881" lon="-105.2297915">
  <ele>1583.16</ele>
  <time>2026-08-28T17:52:29Z</time>
  <course>176.63</course>
  <speed>0.49040799340956914</speed>
  <fix>3d</fix>
</trkpt>
<trkpt lat="40.0709896" lon="-105.2297916">
  <ele>1583.0</ele>
  <time>2026-08-28T17:52:29Z</time>
  <course>178.03</course>
  <speed>0.76</speed>
  <fix>3d</fix>
</trkpt>
<trkpt lat="40.0709877" lon="-105.2297914">
  <ele>1583.16</ele>
  <time>2026-08-28T17:52:29Z</time>
  <course>176.38</course>
  <speed>0.3905124837953327</speed>
  <fix>3d</fix>
</trkpt>
<trkpt lat="40.0709884" lon="-105.2297915">
  <ele>1583.0</ele>
  <time>2026-08-28T17:52:29Z</time>
  <course>177.45</course>
  <speed>0.56</speed>
  <fix>3d</fix>
</trkpt>
<trkpt lat="40.0709874" lon="-105.2297914">
  <ele>1583.16</ele>
  <time>2026-08-28T17:52:29Z</time>
  <course>176.15</course>
  <speed>0.31064449134018135</speed>
  <fix>3d</fix>
</trkpt>
<trkpt lat="40.0709884" lon="-105.2297915">
  <ele>1583.0</ele>
  <time>2026-08-28T17:52:29Z</time>
  <course>177.45</course>
  <speed>0.56</speed>
  <fix>3d</fix>
</trkpt>
<trkpt lat="40.0709871" lon="-105.2297914">
  <ele>1583.16</ele>
  <time>2026-08-28T17:52:29Z</time>
  <course>175.96</course>
  <speed>0.2501999200639361</speed>
  <fix>3d</fix>
</trkpt>
<trkpt lat="40.0709875" lon="-105.2297914">
  <ele>1583.0</ele>
  <time>2026-08-28T17:52:29Z</time>
  <course>176.96</course>
  <speed>0.39</speed>
  <fix>3d</fix>
</trkpt>
<trkpt lat="40.0709869" lon="-105.2297914">
  <ele>1583.16</ele>
  <time>2026-08-28T17:52:29Z</time>
  <course>175.79</course>
  <speed>0.2002498439450079</speed>
  <fix>3d</fix>
</trkpt>
<trkpt lat="40.0709875" lon="-105.2297914">
  <ele>1583.0</ele>
  <time>2026-08-28T17:52:29Z</time>
  <course>176.96</course>
  <speed>0.39</speed>
  <fix>3d</fix>
</trkpt>
<trkpt lat="40.0709867" lon="-105.2297914">
  <ele>1583.16</ele>
  <time>2026-08-28T17:52:29Z</time>
  <course>175.65</course>
  <speed>0.16031219541881397</speed>
  <fix>3d</fix>
</trkpt>
<trkpt lat="40.070987" lon="-105.2297914">
  <ele>1583.0</ele>
  <time>2026-08-28T17:52:29Z</time>
  <course>176.56</course>
  <speed>0.26</speed>
  <fix>3d</fix>
</trkpt>
<trkpt lat="40.0709866" lon="-105.2297913">
  <ele>1583.16</ele>
  <time>2026-08-28T17:52:29Z</time>
  <course>175.52</course>
  <speed>0.140356688476182</speed>
  <fix>3d</fix>
</trkpt>
<trkpt lat="40.070987" lon="-105.2297914">
  <ele>1583.0</ele>
  <time>2026-08-28T17:52:29Z</time>
  <course>176.56</course>
  <speed>0.26</speed>
  <fix>3d</fix>
</trkpt>
<trkpt lat="40.0709865" lon="-105.2297913">
  <ele>1583.16</ele>
  <time>2026-08-28T17:52:29Z</time>
  <course>175.4</course>
  <speed>0.130384048104053</speed>
  <fix>3d</fix>
</trkpt>
<trkpt lat="40.0709866" lon="-105.2297914">
  <ele>1583.0</ele>
  <time>2026-08-28T17:52:29Z</time>
  <course>176.26</course>
  <speed>0.19</speed>
  <fix>3d</fix>
</trkpt>
<trkpt lat="40.0709863" lon="-105.2297913">
  <ele>1583.16</ele>
  <time>2026-08-28T17:52:29Z</time>
  <course>175.29</course>
  <speed>0.130384048104053</speed>
  <fix>3d</fix>
</trkpt>
<trkpt lat="40.0709866" lon="-105.2297914">
  <ele>1583.0</ele>
  <time>2026-08-28T17:52:29Z</time>
  <course>176.26</course>
  <speed>0.19</speed>
  <fix>3d</fix>
</trkpt>
<trkpt lat="40.0709862" lon="-105.2297913">
  <ele>1583.16</ele>
  <time>2026-08-28T17:52:29Z</time>
  <course>175.17</course>
  <speed>0.13152946437965907</speed>
  <fix>3d</fix>
</trkpt>
<trkpt lat="40.0709862" lon="-105.2297914">
  <ele>1583.0</ele>
  <time>2026-08-28T17:52:29Z</time>
  <course>176.01</course>
  <speed>0.16</speed>
  <fix>3d</fix>
</trkpt>
<trkpt lat="40.070986" lon="-105.2297913">
  <ele>1583.16</ele>
  <time>2026-08-28T17:52:29Z</time>
  <course>175.04</course>
  <speed>0.15132745950421556</speed>
  <fix>3d</fix>
</trkpt>
<trkpt lat="40.0709862" lon="-105.2297914">
  <ele>1583.0</ele>
  <time>2026-08-28T17:52:29Z</time>
  <course>176.01</course>
  <speed>0.16</speed>
  <fix>3d</fix>
</trkpt>
<trkpt lat="40.0709859" lon="-105.2297913">
  <ele>1583.16</ele>
  <time>2026-08-28T17:52:29Z</time>
  <course>174.9</course>
  <speed>0.1711724276862369</speed>
  <fix>3d</fix>
</trkpt>
<trkpt lat="40.0709859" lon="-105.2297914">
  <ele>1583.0</ele>
  <time>2026-08-28T17:52:29Z</time>
  <course>175.76</course>
  <speed>0.17</speed>
  <fix>3d</fix>
</trkpt>
<trkpt lat="40.0709857" lon="-105.2297912">
  <ele>1583.16</ele>
  <time>2026-08-28T17:52:29Z</time>
  <course>174.74</course>
  <speed>0.20223748416156684</speed>
  <fix>3d</fix>
</trkpt>
<trkpt lat="40.0709859" lon="-105.2297914">
  <ele>1583.0</ele>
  <time>2026-08-28T17:52:29Z</time>
  <course>175.76</course>
  <speed>0.17</speed>
  <fix>3d</fix>
</trkpt>
<trkpt lat="40.0709855" lon="-105.2297912">
  <ele>1583.15</ele>
  <time>2026-08-28T17:52:29Z</time>
  <course>174.56</course>
  <speed>0.23194827009486402</speed>
  <fix>3d</fix>
</trkpt>
<trkpt lat="40.0709856" lon="-105.2297913">
  <ele>1583.0</ele>
  <time>2026-08-28T17:52:29Z</time>
  <course>175.46</course>
  <speed>0.21</speed>
  <fix>3d</fix>
</trkpt>
<trkpt lat="40.0709852" lon="-105.2297912">
  <ele>1583.15</ele>
  <time>2026-08-28T17:52:29Z</time>
  <course>174.34</course>
  <speed>0.26305892875931813</speed>
  <fix>3d</fix>
</trkpt>
<trkpt lat="40.0709856" lon="-105.2297913">
  <ele>1583.0</ele>
  <time>2026-08-28T17:52:29Z</time>
  <course>175.46</course>
  <speed>0.21</speed>
  <fix>3d</fix>
</trkpt>
<trkpt lat="40.070985" lon="-105.2297911">
  <ele>1583.15</ele>
  <time>2026-08-28T17:52:29Z</time>
  <course>174.1</course>
  <speed>0.3026549190084311</speed>
  <fix>3d</fix>
</trkpt>
<trkpt lat="40.0709851" lon="-105.2297913">
  <ele>1583.0</ele>
  <time>2026-08-28T17:52:29Z</time>
  <course>175.08</course>
  <speed>0.27</speed>
  <fix>3d</fix>
</trkpt>
<trkpt lat="40.0709846" lon="-105.2297911">
  <ele>1583.15</ele>
  <time>2026-08-28T17:52:29Z</time>
  <course>173.82</course>
  <speed>0.33376638536557274</speed>
  <fix>3d</fix>
</trkpt>
<trkpt lat="40.0709851" lon="-105.2297913">
  <ele>1583.0</ele>
  <time>2026-08-28T17:52:29Z</time>
  <course>175.08</course>
  <speed>0.27</speed>
  <fix>3d</fix>
</trkpt>
<trkpt lat="40.0709843" lon="-105.229791">
  <ele>1583.15</ele>
  <time>2026-08-28T17:52:29Z</time>
  <course>173.49</course>
  <speed>0.37336309405188944</speed>
  <fix>3d</fix>
</trkpt>
<trkpt lat="40.0709846" lon="-105.2297912">
  <ele>1583.0</ele>
  <time>2026-08-28T17:52:29Z</time>
  <course>174.57</course>
  <speed>0.33</speed>
  <fix>3d</fix>
</trkpt>
<trkpt lat="40.0709839" lon="-105.229791">
  <ele>1583.14</ele>
  <time>2026-08-28T17:52:29Z</time>
  <course>173.11</course>
  <speed>0.4143669871020132</speed>
  <fix>3d</fix>
</trkpt>
<trkpt lat="40.0709846" lon="-105.2297912">
  <ele>1583.0</ele>
  <time>2026-08-28T17:52:29Z</time>
  <course>174.57</course>
  <speed>0.33</speed>
  <fix>3d</fix>
</trkpt>
<trkpt lat="40.0709835" lon="-105.2297909">
  <ele>1583.14</ele>
  <time>2026-08-28T17:52:29Z</time>
  <course>172.68</course>
  <speed>0.455411901469428</speed>
  <fix>3d</fix>
</trkpt>
<trkpt lat="40.0709839" lon="-105.2297911">
  <ele>1583.0</ele>
  <time>2026-08-28T17:52:29Z</time>
  <course>173.9</course>
  <speed>0.4</speed>
  <fix>3d</fix>
</trkpt>
<trkpt lat="40.070983" lon="-105.2297908">
  <ele>1583.14</ele>
  <time>2026-08-28T17:52:29Z</time>
  <course>172.17</course>
  <speed>0.48662100242385753</speed>
  <fix>3d</fix>
</trkpt>
<trkpt lat="40.0709839" lon="-105.2297911">
  <ele>1583.0</ele>
  <time>2026-08-28T17:52:29Z</time>
  <course>173.9</course>
  <speed>0.4</speed>
  <fix>3d</fix>
</trkpt>
<trkpt lat="40.0709826" lon="-105.2297907">
  <ele>1583.14</ele>
  <time>2026-08-28T17:52:29Z</time>
  <course>171.6</course>
  <speed>0.5277309920783505</speed>
  <fix>3d</fix>
</trkpt>
<trkpt lat="40.0709832" lon="-105.229791">
  <ele>1583.0</ele>
  <time>2026-08-28T17:52:29Z</time>
  <course>173.0</course>
  <speed>0.47</speed>
  <fix>3d</fix>
</trkpt>
<trkpt lat="40.0709821" lon="-105.2297906">
  <ele>1583.14</ele>
  <time>2026-08-28T17:52:29Z</time>
  <course>170.94</course>
  <speed>0.5590169943749475</speed>
  <fix>3d</fix>
</trkpt>
<trkpt lat="40.0709832" lon="-105.229791">
  <ele>1583.0</ele>
  <time>2026-08-28T17:52:29Z</time>
  <course>173.0</course>
  <speed>0.47</speed>
  <fix>3d</fix>
</trkpt>
<trkpt lat="40.0709815" lon="-105.2297905">
  <ele>1583.14</ele>
  <time>2026-08-28T17:52:29Z</time>
  <course>170.18</course>
  <speed>0.6020797289396147</speed>
  <fix>3d</fix>
</trkpt>
<trkpt lat="40.0709823" lon="-105.2297908">
  <ele>1583.0</ele>
  <time>2026-08-28T17:52:29Z</time>
  <course>171.82</course>
  <speed>0.54</speed>
  <fix>3d</fix>
</trkpt>
<trkpt lat="40.070981" lon="-105.2297904">
  <ele>1583.15</ele>
  <time>2026-08-28T17:52:29Z</time>
  <course>169.32</course>
  <speed>0.6334824385884742</speed>
  <fix>3d</fix>
</trkpt>
<trkpt lat="40.0709823" lon="-105.2297908">
  <ele>1583.0</ele>
  <time>2026-08-28T17:52:29Z</time>
  <course>171.82</course>
  <speed>0.54</speed>
  <fix>3d</fix>
</trkpt>
<trkpt lat="40.0709804" lon="-105.2297902">
  <ele>1583.15</ele>
  <time>2026-08-28T17:52:29Z</time>
  <course>168.32</course>
  <speed>0.6573431371817918</speed>
  <fix>3d</fix>
</trkpt>
<trkpt lat="40.0709812" lon="-105.2297906">
  <ele>1583.0</ele>
  <time>2026-08-28T17:52:29Z</time>
  <course>170.27</course>
  <speed>0.6</speed>
  <fix>3d</fix>
</trkpt>
<trkpt lat="40.0709798" lon="-105.2297901">
  <ele>1583.15</ele>
  <time>2026-08-28T17:52:29Z</time>
  <course>167.18</course>
  <speed>0.6912307863514182</speed>
  <fix>3d</fix>
</trkpt>
<trkpt lat="40.0709812" lon="-105.2297906">
  <ele>1583.0</ele>
  <time>2026-08-28T17:52:29Z</time>
  <course>170.27</course>
  <speed>0.6</speed>
  <fix>3d</fix>
</trkpt>
<trkpt lat="40.0709792" lon="-105.2297899">
  <ele>1583.15</ele>
  <time>2026-08-28T17:52:29Z</time>
  <course>165.87</course>
  <speed>0.7156814934033155</speed>
  <fix>3d</fix>
</trkpt>
<trkpt lat="40.0709801" lon="-105.2297903">
  <ele>1583.0</ele>
  <time>2026-08-28T17:52:29Z</time>
  <course>168.21</course>
  <speed>0.66</speed>
  <fix>3d</fix>
</trkpt>
<trkpt lat="40.0709785" lon="-105.2297897">
  <ele>1583.15</ele>
  <time>2026-08-28T17:52:29Z</time>
  <course>164.36</course>
  <speed>0.7404052944165107</speed>
  <fix>3d</fix>
</trkpt>
<trkpt lat="40.0709801" lon="-105.2297903">
  <ele>1583.0</ele>
  <time>2026-08-28T17:52:29Z</time>
  <course>168.21</course>
  <speed>0.66</speed>
  <fix>3d</fix>
</trkpt>
<trkpt lat="40.0709779" lon="-105.2297894">
  <ele>1583.15</ele>
  <time>2026-08-28T17:52:29Z</time>
  <course>162.62</course>
  <speed>0.7589466384404111</speed>
  <fix>3d</fix>
</trkpt>
<trkpt lat="40.0709789" lon="-105.22979">
  <ele>1583.0</ele>
  <time>2026-08-28T17:52:29Z</time>
  <course>165.5</course>
  <speed>0.7</speed>
  <fix>3d</fix>
</trkpt>
<trkpt lat="40.0709772" lon="-105.2297891">
  <ele>1583.15</ele>
  <time>2026-08-28T17:52:29Z</time>
  <course>160.62</course>
  <speed>0.7877182237323191</speed>
  <fix>3d</fix>
</trkpt>
<trkpt lat="40.0709789" lon="-105.22979">
  <ele>1583.0</ele>
  <time>2026-08-28T17:52:29Z</time>
  <course>165.5</course>
  <speed>0.7</speed>
  <fix>3d</fix>
</trkpt>
<trkpt lat="40.0709765" lon="-105.2297888">
  <ele>1583.14</ele>
  <time>2026-08-28T17:52:29Z</time>
  <course>158.32</course>
  <speed>0.8023091673413684</speed>
  <fix>3d</fix>
</trkpt>
<trkpt lat="40.0709776" lon="-105.2297895">
  <ele>1583.0</ele>
  <time>2026-08-28T17:52:29Z</time>
  <course>161.92</course>
  <speed>0.75</speed>
  <fix>3d</fix>
</trkpt>
<trkpt lat="40.0709759" lon="-105.2297884">
  <ele>1583.14</ele>
  <time>2026-08-28T17:52:29Z</time>
  <course>155.67</course>
  <speed>0.8276472678623424</speed>
  <fix>3d</fix>
</trkpt>
<trkpt lat="40.0709776" lon="-105.2297895">
  <ele>1583.0</ele>
  <time>2026-08-28T17:52:29Z</time>
  <course>161.92</course>
  <speed>0.75</speed>
  <fix>3d</fix>
</trkpt>
<trkpt lat="40.0709752" lon="-105.229788">
  <ele>1583.14</ele>
  <time>2026-08-28T17:52:29Z</time>
  <course>152.6</course>
  <speed>0.8364807230295268</speed>
  <fix>3d</fix>
</trkpt>
<trkpt lat="40.0709763" lon="-105.2297888">
  <ele>1583.0</ele>
  <time>2026-08-28T17:52:29Z</time>
  <course>157.18</course>
  <speed>0.78</speed>
  <fix>3d</fix>
</trkpt>
<trkpt lat="40.0709746" lon="-105.2297876">
  <ele>1583.14</ele>
  <time>2026-08-28T17:52:29Z</time>
  <course>149.12</course>
  <speed>0.8575546629807339</speed>
  <fix>3d</fix>
</trkpt>
<trkpt lat="40.0709763" lon="-105.2297888">
  <ele>1583.0</ele>
  <time>2026-08-28T17:52:29Z</time>
  <course>157.18</course>
  <speed>0.78</speed>
  <fix>3d</fix>
</trkpt>
<trkpt lat="40.0709739" lon="-105.229787">
  <ele>1583.14</ele>
  <time>2026-08-28T17:52:29Z</time>
  <course>145.14</course>
  <speed>0.8683893136145793</speed>
  <fix>3d</fix>
</trkpt>
<trkpt lat="40.0709751" lon="-105.229788">
  <ele>1583.0</ele>
  <time>2026-08-28T17:52:29Z</time>
  <course>150.93</course>
  <speed>0.81</speed>
  <fix>3d</fix>
</trkpt>
<trkpt lat="40.0709733" lon="-105.2297864">
  <ele>1583.14</ele>
  <time>2026-08-28T17:52:29Z</time>
  <course>140.67</course>
  <speed>0.8886506625215557</speed>
  <fix>3d</fix>
</trkpt>
<trkpt lat="40.0709751" lon="-105.229788">
  <ele>1583.0</ele>
  <time>2026-08-28T17:52:29Z</time>
  <course>150.93</course>
  <speed>0.81</speed>
  <fix>3d</fix>
</trkpt>
<trkpt lat="40.0709727" lon="-105.2297857">
  <ele>1583.13</ele>
  <time>2026-08-28T17:52:29Z</time>
  <course>135.58</course>
  <speed>0.9052071586106685</speed>
  <fix>3d</fix>
</trkpt>
<trkpt lat="40.0709738" lon="-105.2297869">
  <ele>1583.0</ele>
  <time>2026-08-28T17:52:29Z</time>
  <course>142.8</course>
  <speed>0.84</speed>
  <fix>3d</fix>
</trkpt>
<trkpt lat="40.0709722" lon="-105.2297849">
  <ele>1583.13</ele>
  <time>2026-08-28T17:52:29Z</time>
  <course>130.05</course>
  <speed>0.9154780172128657</speed>
  <fix>3d</fix>
</trkpt>
<trkpt lat="40.0709738" lon="-105.2297869">
  <ele>1583.0</ele>
  <time>2026-08-28T17:52:29Z</time>
  <course>142.8</course>
  <speed>0.84</speed>
  <fix>3d</fix>
</trkpt>
<trkpt lat="40.0709717" lon="-105.2297841">
  <ele>1583.13</ele>
  <time>2026-08-28T17:52:29Z</time>
  <course>124.42</course>
  <speed>0.9265527507918802</speed>
  <fix>3d</fix>
</trkpt>
<trkpt lat="40.0709727" lon="-105.2297856">
  <ele>1583.0</ele>
  <time>2026-08-28T17:52:29Z</time>
  <course>132.71</course>
  <speed>0.86</speed>
  <fix>3d</fix>
</trkpt>
<trkpt lat="40.0709712" lon="-105.2297832">
  <ele>1583.13</ele>
  <time>2026-08-28T17:52:29Z</time>
  <course>118.71</course>
  <speed>0.9402127418834527</speed>
  <fix>3d</fix>
</trkpt>
<trkpt lat="40.0709727" lon="-105.2297856">
  <ele>1583.0</ele>
  <time>2026-08-28T17:52:29Z</time>
  <course>132.71</course>
  <speed>0.86</speed>
  <fix>3d</fix>
</trkpt>
<trkpt lat="40.0709709" lon="-105.2297822">
  <ele>1583.13</ele>
  <time>2026-08-28T17:52:29Z</time>
  <course>112.89</course>
  <speed>0.9493682109698007</speed>
  <fix>3d</fix>
</trkpt>
<trkpt lat="40.0709717" lon="-105.229784">
  <ele>1583.0</ele>
  <time>2026-08-28T17:52:29Z</time>
  <course>121.5</course>
  <speed>0.89</speed>
  <fix>3d</fix>
</trkpt>
<trkpt lat="40.0709706" lon="-105.2297812">
  <ele>1583.13</ele>
  <time>2026-08-28T17:52:29Z</time>
  <course>107.05</course>
  <speed>0.9581753492967766</speed>
  <fix>3d</fix>
</trkpt>
<trkpt lat="40.0709717" lon="-105.229784">
  <ele>1583.0</ele>
  <time>2026-08-28T17:52:29Z</time>
  <course>121.5</course>
  <speed>0.89</speed>
  <fix>3d</fix>
</trkpt>
<trkpt lat="40.0709704" lon="-105.2297801">
  <ele>1583.13</ele>
  <time>2026-08-28T17:52:29Z</time>
  <course>101.15</course>
  <speed>0.96317184344228</speed>
  <fix>3d</fix>
</trkpt>
<trkpt lat="40.070971" lon="-105.2297821">
  <ele>1583.0</ele>
  <time>2026-08-28T17:52:29Z</time>
  <course>109.95</course>
  <speed>0.91</speed>
  <fix>3d</fix>
</trkpt>
<trkpt lat="40.0709703" lon="-105.229779">
  <ele>1583.13</ele>
  <time>2026-08-28T17:52:29Z</time>
  <course>95.19</course>
  <speed>0.9662815324738437</speed>
  <fix>3d</fix>
</trkpt>
<trkpt lat="40.070971" lon="-105.2297821">
  <ele>1583.0</ele>
  <time>2026-08-28T17:52:29Z</time>
  <course>109.95</course>
  <speed>0.91</speed>
  <fix>3d</fix>
</trkpt>
<trkpt lat="40.0709703" lon="-105.2297779">
  <ele>1583.13</ele>
  <time>2026-08-28T17:52:29Z</time>
  <course>89.17</course>
  <speed>0.9800510190801294</speed>
  <fix>3d</fix>
</trkpt>
<trkpt lat="40.0709706" lon="-105.22978">
  <ele>1583.0</ele>
  <time>2026-08-28T17:52:29Z</time>
  <course>98.15</course>
  <speed>0.93</speed>
  <fix>3d</fix>
</trkpt>
<trkpt lat="40.0709703" lon="-105.2297767">
  <ele>1583.13</ele>
  <time>2026-08-28T17:52:29Z</time>
  <course>83.1</course>
  <speed>0.9832598842625484</speed>
  <fix>3d</fix>
</trkpt>
<trkpt lat="40.0709706" lon="-105.22978">
  <ele>1583.0</ele>
  <time>2026-08-28T17:52:29Z</time>
  <course>98.15</course>
  <speed>0.93</speed>
  <fix>3d</fix>
</trkpt>
<trkpt lat="40.0709705" lon="-105.2297756">
  <ele>1583.12</ele>
  <time>2026-08-28T17:52:29Z</time>
  <course>76.98</course>
  <speed>0.9884331034521254</speed>
  <fix>3d</fix>
</trkpt>
<trkpt lat="40.0709705" lon="-105.2297777">
  <ele>1583.0</ele>
  <time>2026-08-28T17:52:29Z</time>
  <course>86.11</course>
  <speed>0.94</speed>
  <fix>3d</fix>
</trkpt>
<trkpt lat="40.0709707" lon="-105.2297745">
  <ele>1583.12</ele>
  <time>2026-08-28T17:52:29Z</time>
  <course>70.83</course>
  <speed>0.9837174391053561</speed>
  <fix>3d</fix>
</trkpt>
<trkpt lat="40.0709705" lon="-105.2297777">
  <ele>1583.0</ele>
  <time>2026-08-28T17:52:29Z</time>
  <course>86.11</course>
  <speed>0.94</speed>
  <fix>3d</fix>
</trkpt>
<trkpt lat="40.070971" lon="-105.2297734">
  <ele>1583.12</ele>
  <time>2026-08-28T17:52:29Z</time>
  <course>64.63</course>
  <speed>0.9900505037623081</speed>
  <fix>3d</fix>
</trkpt>
<trkpt lat="40.0709708" lon="-105.2297756">
  <ele>1583.0</ele>
  <time>2026-08-28T17:52:29Z</time>
  <course>73.86</course>
  <speed>0.96</speed>
  <fix>3d</fix>
</trkpt>
<trkpt lat="40.0709714" lon="-105.2297724">
  <ele>1583.12</ele>
  <time>2026-08-28T17:52:29Z</time>
  <course>58.42</course>
  <speed>0.9848857801796105</speed>
  <fix>3d</fix>
</trkpt>
<trkpt lat="40.0709708" lon="-105.2297756">
  <ele>1583.0</ele>
  <time>2026-08-28T17:52:29Z</time>
  <course>73.86</course>
  <speed>0.96</speed>
  <fix>3d</fix>
</trkpt>
<trkpt lat="40.0709719" lon="-105.2297715">
  <ele>1583.13</ele>
  <time>2026-08-28T17:52:29Z</time>
  <course>52.19</course>
  <speed>0.9822932352408826</speed>
  <fix>3d</fix>
</trkpt>
<trkpt lat="40.0709714" lon="-105.2297734">
  <ele>1583.0</ele>
  <time>2026-08-28T17:52:29Z</time>
  <course>61.47</course>
  <speed>0.97</speed>
  <fix>3d</fix>
</trkpt>
<trkpt lat="40.0709725" lon="-105.2297706">
  <ele>1583.13</ele>
  <time>2026-08-28T17:52:29Z</time>
  <course>45.95</course>
  <speed>0.9774456506629922</speed>
  <fix>3d</fix>
</trkpt>
<trkpt lat="40.0709714" lon="-105.2297734">
  <ele>1583.0</ele>
  <time>2026-08-28T17:52:29Z</time>
  <course>61.47</course>
  <speed>0.97</speed>
  <fix>3d</fix>
</trkpt>
<trkpt lat="40.0709732" lon="-105.2297699">
  <ele>1583.13</ele>
  <time>2026-08-28T17:52:29Z</time>
  <course>39.7</course>
  <speed>0.97</speed>
  <fix>3d</fix>
</trkpt>
<trkpt lat="40.0709724" lon="-105.2297716">
  <ele>1583.0</ele>
  <time>2026-08-28T17:52:29Z</time>
  <course>49.03</course>
  <speed>0.97</speed>
  <fix>3d</fix>
</trkpt>
<trkpt lat="40.0709739" lon="-105.2297692">
  <ele>1583.13</ele>
  <time>2026-08-28T17:52:29Z</time>
  <course>33.4</course>
  <speed>0.9683491106000975</speed>
  <fix>3d</fix>
</trkpt>
<trkpt lat="40.0709724" lon="-105.2297716">
  <ele>1583.0</ele>
  <time>2026-08-28T17:52:29Z</time>
  <course>49.03</course>
  <speed>0.97</speed>
  <fix>3d</fix>
</trkpt>
<trkpt lat="40.0709746" lon="-105.2297687">
  <ele>1583.13</ele>
  <time>2026-08-28T17:52:29Z</time>
  <course>27.14</course>
  <speed>0.9712878049270464</speed>
  <fix>3d</fix>
</trkpt>
<trkpt lat="40.0709736" lon="-105.2297701">
  <ele>1583.0</ele>
  <time>2026-08-28T17:52:29Z</time>
  <course>36.53</course>
  <speed>0.97</speed>
  <fix>3d</fix>
</trkpt>
<trkpt lat="40.0709755" lon="-105.2297682">
  <ele>1583.12</ele>
  <time>2026-08-28T17:52:29Z</time>
  <course>21.24</course>
  <speed>0.9638464608017192</speed>
  <fix>3d</fix>
</trkpt>
<trkpt lat="40.0709736" lon="-105.2297701">
  <ele>1583.0</ele>
  <time>2026-08-28T17:52:29Z</time>
  <course>36.53</course>
  <speed>0.97</speed>
  <fix>3d</fix>
</trkpt>
<trkpt lat="40.0709763" lon="-105.2297679">
  <ele>1583.12</ele>
  <time>2026-08-28T17:52:29Z</time>
  <course>16.08</course>
  <speed>0.9741663102366043</speed>
  <fix>3d</fix>
</trkpt>
<trkpt lat="40.0709752" lon="-105.2297689">
  <ele>1583.0</ele>
  <time>2026-08-28T17:52:29Z</time>
  <course>24.45</course>
  <speed>0.98</speed>
  <fix>3d</fix>
</trkpt>
<trkpt lat="40.0709772" lon="-105.2297676">
  <ele>1583.12</ele>
  <time>2026-08-28T17:52:29Z</time>
  <course>11.61</course>
  <speed>0.9848857801796105</speed>
  <fix>3d</fix>
</trkpt>
<trkpt lat="40.0709752" lon="-105.2297689">
  <ele>1583.0</ele>
  <time>2026-08-28T17:52:29Z</time>
  <course>24.45</course>
  <speed>0.98</speed>
  <fix>3d</fix>
</trkpt>
<trkpt lat="40.0709781" lon="-105.2297674">
  <ele>1583.12</ele>
  <time>2026-08-28T17:52:29Z</time>
  <course>7.82</course>
  <speed>1.0012991560967182</speed>
  <fix>3d</fix>
</trkpt>
<trkpt lat="40.0709769" lon="-105.2297681">
  <ele>1583.0</ele>
  <time>2026-08-28T17:52:29Z</time>
  <course>14.22</course>
  <speed>1.0</speed>
  <fix>3d</fix>
</trkpt>
<trkpt lat="40.070979" lon="-105.2297673">
  <ele>1583.12</ele>
  <time>2026-08-28T17:52:29Z</time>
  <course>4.68</course>
  <speed>1.0149384217774002</speed>
  <fix>3d</fix>
</trkpt>
<trkpt lat="40.0709769" lon="-105.2297681">
  <ele>1583.0</ele>
  <time>2026-08-28T17:52:29Z</time>
  <course>14.22</course>
  <speed>1.0</speed>
  <fix>3d</fix>
</trkpt>
<trkpt lat="40.07098" lon="-105.2297673">
  <ele>1583.12</ele>
  <time>2026-08-28T17:52:29Z</time>
  <course>2.08</course>
  <speed>1.0412012293500235</speed>
  <fix>3d</fix>
</trkpt>
<trkpt lat="40.0709787" lon="-105.2297677">
  <ele>1583.0</ele>
  <time>2026-08-28T17:52:29Z</time>
  <course>6.72</course>
  <speed>1.03</speed>
  <fix>3d</fix>
</trkpt>
<trkpt lat="40.070981" lon="-105.2297673">
  <ele>1583.12</ele>
  <time>2026-08-28T17:52:29Z</time>
  <course>359.99</course>
  <speed>1.0800462953040486</speed>
  <fix>3d</fix>
</trkpt>
<trkpt lat="40.0709787" lon="-105.2297677">
  <ele>1583.0</ele>
  <time>2026-08-28T17:52:29Z</time>
  <course>6.72</course>
  <speed>1.03</speed>
  <fix>3d</fix>
</trkpt>
<trkpt lat="40.070982" lon="-105.2297673">
  <ele>1583.12</ele>
  <time>2026-08-28T17:52:29Z</time>
  <course>358.3</course>
  <speed>1.110180165558726</speed>
  <fix>3d</fix>
</trkpt>
<trkpt lat="40.0709806" lon="-105.2297675">
  <ele>1583.0</ele>
  <time>2026-08-28T17:52:29Z</time>
  <course>1.57</course>
  <speed>1.09</speed>
  <fix>3d</fix>
</trkpt>
<trkpt lat="40.0709831" lon="-105.2297674">
  <ele>1583.12</ele>
  <time>2026-08-28T17:52:29Z</time>
  <course>356.94</course>
  <speed>1.1606894502837526</speed>
  <fix>3d</fix>
</trkpt>
<trkpt lat="40.0709806" lon="-105.2297675">
  <ele>1583.0</ele>
  <time>2026-08-28T17:52:29Z</time>
  <course>1.57</course>
  <speed>1.09</speed>
  <fix>3d</fix>
</trkpt>
<trkpt lat="40.0709842" lon="-105.2297675">
  <ele>1583.12</ele>
  <time>2026-08-28T17:52:29Z</time>
  <course>355.86</course>
  <speed>1.2020399327809372</speed>
  <fix>3d</fix>
</trkpt>
<trkpt lat="40.0709826" lon="-105.2297675">
  <ele>1583.0</ele>
  <time>2026-08-28T17:52:29Z</time>
  <course>358.18</course>
  <speed>1.16</speed>
  <fix>3d</fix>
</trkpt>
<trkpt lat="40.0709853" lon="-105.2297676">
  <ele>1583.12</ele>
  <time>2026-08-28T17:52:29Z</time>
  <course>355.0</course>
  <speed>1.2632101962856381</speed>
  <fix>3d</fix>
</trkpt>
<trkpt lat="40.0709826" lon="-105.2297675">
  <ele>1583.0</ele>
  <time>2026-08-28T17:52:29Z</time>
  <course>358.18</course>
  <speed>1.16</speed>
  <fix>3d</fix>
</trkpt>
<trkpt lat="40.0709865" lon="-105.2297678">
  <ele>1583.12</ele>
  <time>2026-08-28T17:52:29Z</time>
  <course>354.32</course>
  <speed>1.3154847015454039</speed>
  <fix>3d</fix>
</trkpt>
<trkpt lat="40.0709848" lon="-105.2297677">
  <ele>1583.0</ele>
  <time>2026-08-28T17:52:29Z</time>
  <course>356.02</course>
  <speed>1.25</speed>
  <fix>3d</fix>
</trkpt>
<trkpt lat="40.0709878" lon="-105.2297679">
  <ele>1583.13</ele>
  <time>2026-08-28T17:52:29Z</time>
  <course>353.81</course>
  <speed>1.3861096637712327</speed>
  <fix>3d</fix>
</trkpt>
<trkpt lat="40.0709848" lon="-105.2297677">
  <ele>1583.0</ele>
  <time>2026-08-28T17:52:29Z</time>
  <course>356.02</course>
  <speed>1.25</speed>
  <fix>3d</fix>
</trkpt>
<trkpt lat="40.0709891" lon="-105.229768">
  <ele>1583.13</ele>
  <time>2026-08-28T17:52:29Z</time>
  <course>353.42</course>
  <speed>1.457737973711325</speed>
  <fix>3d</fix>
</trkpt>
<trkpt lat="40.0709871" lon="-105.2297678">
  <ele>1583.0</ele>
  <time>2026-08-28T17:52:29Z</time>
  <course>354.68</course>
  <speed>1.37</speed>
  <fix>3d</fix>
</trkpt>
<trkpt lat="40.0709904" lon="-105.2297682">
  <ele>1583.13</ele>
  <time>2026-08-28T17:52:29Z</time>
  <course>353.14</course>
  <speed>1.529477034806342</speed>
  <fix>3d</fix>
</trkpt>
<trkpt lat="40.0709871" lon="-105.2297678">
  <ele>1583.0</ele>
  <time>2026-08-28T17:52:29Z</time>
  <course>354.68</course>
  <speed>1.37</speed>
  <fix>3d</fix>
</trkpt>
<trkpt lat="40.0709918" lon="-105.2297685">
  <ele>1583.13</ele>
  <time>2026-08-28T17:52:29Z</time>
  <course>352.94</course>
  <speed>1.6001562423713507</speed>
  <fix>3d</fix>
</trkpt>
<trkpt lat="40.0709897" lon="-105.2297682">
  <ele>1583.0</ele>
  <time>2026-08-28T17:52:29Z</time>
  <course>353.91</course>
  <speed>1.5</speed>
  <fix>3d</fix>
</trkpt>
<trkpt lat="40.0709933" lon="-105.2297687">
  <ele>1583.12</ele>
  <time>2026-08-28T17:52:29Z</time>
  <course>352.81</course>
  <speed>1.680773631397161</speed>
  <fix>3d</fix>
</trkpt>
<trkpt lat="40.0709897" lon="-105.2297682">
  <ele>1583.0</ele>
  <time>2026-08-28T17:52:29Z</time>
  <course>353.91</course>
  <speed>1.5</speed>
  <fix>3d</fix>
</trkpt>
<trkpt lat="40.0709949" lon="-105.2297689">
  <ele>1583.12</ele>
  <time>2026-08-28T17:52:29Z</time>
  <course>352.74</course>
  <speed>1.7625549636819842</speed>
  <fix>3d</fix>
</trkpt>
<trkpt lat="40.0709925" lon="-105.2297686">
  <ele>1583.0</ele>
  <time>2026-08-28T17:52:29Z</time>
  <course>353.52</course>
  <speed>1.65</speed>
  <fix>3d</fix>
</trkpt>
<trkpt lat="40.0709965" lon="-105.2297692">
  <ele>1583.12</ele>
  <time>2026-08-28T17:52:29Z</time>
  <course>352.72</course>
  <speed>1.8531055015837603</speed>
  <fix>3d</fix>
</trkpt>
<trkpt lat="40.0709925" lon="-105.2297686">
  <ele>1583.0</ele>
  <time>2026-08-28T17:52:29Z</time>
  <course>353.52</course>
  <speed>1.65</speed>
  <fix>3d</fix>
</trkpt>
<trkpt lat="40.0709982" lon="-105.2297694">
  <ele>1583.12</ele>
  <time>2026-08-28T17:52:29Z</time>
  <course>352.72</course>
  <speed>1.9436563482261981</speed>
  <fix>3d</fix>
</trkpt>
<trkpt lat="40.0709957" lon="-105.229769">
  <ele>1583.0</ele>
  <time>2026-08-28T17:52:29Z</time>
  <course>353.38</course>
  <speed>1.82</speed>
  <fix>3d</fix>
</trkpt>
<trkpt lat="40.071" lon="-105.2297697">
  <ele>1583.12</ele>
  <time>2026-08-28T17:52:29Z</time>
  <course>352.76</course>
  <speed>2.0342074623793907</speed>
  <fix>3d</fix>
</trkpt>
<trkpt lat="40.0709957" lon="-105.229769">
  <ele>1583.0</ele>
  <time>2026-08-28T17:52:29Z</time>
  <course>353.38</course>
  <speed>1.82</speed>
  <fix>3d</fix>
</trkpt>
<trkpt lat="40.0710019" lon="-105.22977">
  <ele>1583.11</ele>
  <time>2026-08-28T17:52:29Z</time>
  <course>352.82</course>
  <speed>2.134689672996991</speed>
  <fix>3d</fix>
</trkpt>
<trkpt lat="40.070999" lon="-105.2297696">
  <ele>1583.0</ele>
  <time>2026-08-28T17:52:29Z</time>
  <course>353.4</course>
  <speed>1.99</speed>
  <fix>3d</fix>
</trkpt>
<trkpt lat="40.0710039" lon="-105.2297703">
  <ele>1583.11</ele>
  <time>2026-08-28T17:52:29Z</time>
  <course>352.91</course>
  <speed>2.2240953216982406</speed>
  <fix>3d</fix>
</trkpt>
<trkpt lat="40.070999" lon="-105.2297696">
  <ele>1583.0</ele>
  <time>2026-08-28T17:52:29Z</time>
  <course>353.4</course>
  <speed>1.99</speed>
  <fix>3d</fix>
</trkpt>
<trkpt lat="40.071006" lon="-105.2297706">
  <ele>1583.11</ele>
  <time>2026-08-28T17:52:29Z</time>
  <course>353.02</course>
  <speed>2.324585984643287</speed>
  <fix>3d</fix>
</trkpt>
<trkpt lat="40.0710028" lon="-105.2297701">
  <ele>1583.0</ele>
  <time>2026-08-28T17:52:29Z</time>
  <course>353.53</course>
  <speed>2.18</speed>
  <fix>3d</fix>
</trkpt>
<trkpt lat="40.0710081" lon="-105.2297709">
  <ele>1583.12</ele>
  <time>2026-08-28T17:52:29Z</time>
  <course>353.14</course>
  <speed>2.425077318355025</speed>
  <fix>3d</fix>
</trkpt>
<trkpt lat="40.0710028" lon="-105.2297701">
  <ele>1583.0</ele>
  <time>2026-08-28T17:52:29Z</time>
  <course>353.53</course>
  <speed>2.18</speed>
  <fix>3d</fix>
</trkpt>
<trkpt lat="40.0710104" lon="-105.2297713">
  <ele>1583.12</ele>
  <time>2026-08-28T17:52:29Z</time>
  <course>353.28</course>
  <speed>2.524480144505003</speed>
  <fix>3d</fix>
</trkpt>
<trkpt lat="40.0710069" lon="-105.2297708">
  <ele>1583.0</ele>
  <time>2026-08-28T17:52:29Z</time>
  <course>353.75</course>
  <speed>2.37</speed>
  <fix>3d</fix>
</trkpt>
<trkpt lat="40.0710128" lon="-105.2297716">
  <ele>1583.12</ele>
  <time>2026-08-28T17:52:29Z</time>
  <course>353.42</course>
  <speed>2.62497619036821</speed>
  <fix>3d</fix>
</trkpt>
<trkpt lat="40.0710069" lon="-105.2297708">
  <ele>1583.0</ele>
  <time>2026-08-28T17:52:29Z</time>
  <course>353.75</course>
  <speed>2.37</speed>
  <fix>3d</fix>
</trkpt>
<trkpt lat="40.0710152" lon="-105.2297719">
  <ele>1583.13</ele>
  <time>2026-08-28T17:52:29Z</time>
  <course>353.56</course>
  <speed>2.7244265451650556</speed>
  <fix>3d</fix>
</trkpt>
<trkpt lat="40.0710112" lon="-105.2297714">
  <ele>1583.0</ele>
  <time>2026-08-28T17:52:29Z</time>
  <course>354.02</course>
  <speed>2.56</speed>
  <fix>3d</fix>
</trkpt>
<trkpt lat="40.0710177" lon="-105.2297723">
  <ele>1583.13</ele>
  <time>2026-08-28T17:52:29Z</time>
  <course>353.71</course>
  <speed>2.834872131155125</speed>
  <fix>3d</fix>
</trkpt>
<trkpt lat="40.0710112" lon="-105.2297714">
  <ele>1583.0</ele>
  <time>2026-08-28T17:52:29Z</time>
  <course>354.02</course>
  <speed>2.56</speed>
  <fix>3d</fix>
</trkpt>
<trkpt lat="40.0710203" lon="-105.2297726">
  <ele>1583.13</ele>
  <time>2026-08-28T17:52:29Z</time>
  <course>353.86</course>
  <speed>2.9343653487594215</speed>
  <fix>3d</fix>
</trkpt>
<trkpt lat="40.071016" lon="-105.229772">
  <ele>1583.0</ele>
  <time>2026-08-28T17:52:29Z</time>
  <course>354.31</course>
  <speed>2.76</speed>
  <fix>3d</fix>
</trkpt>
<trkpt lat="40.071023" lon="-105.2297729">
  <ele>1583.14</ele>
  <time>2026-08-28T17:52:29Z</time>
  <course>354.02</course>
  <speed>3.033891889965758</speed>
  <fix>3d</fix>
</trkpt>
<trkpt lat="40.071016" lon="-105.229772">
  <ele>1583.0</ele>
  <time>2026-08-28T17:52:29Z</time>
  <course>354.31</course>
  <speed>2.76</speed>
  <fix>3d</fix>
</trkpt>
<trkpt lat="40.0710258" lon="-105.2297733">
  <ele>1583.14</ele>
  <time>2026-08-28T17:52:29Z</time>
  <course>354.18</course>
  <speed>3.133448579440869</speed>
  <fix>3d</fix>
</trkpt>
<trkpt lat="40.0710211" lon="-105.2297726">
  <ele>1583.0</ele>
  <time>2026-08-28T17:52:29Z</time>
  <course>354.62</course>
  <speed>2.95</speed>
  <fix>3d</fix>
</trkpt>
<trkpt lat="40.0710287" lon="-105.2297736">
  <ele>1583.14</ele>
  <time>2026-08-28T17:52:29Z</time>
  <course>354.35</course>
  <speed>3.2330326320654423</speed>
  <fix>3d</fix>
</trkpt>
<trkpt lat="40.0710211" lon="-105.2297726">
  <ele>1583.0</ele>
  <time>2026-08-28T17:52:29Z</time>
  <course>354.62</course>
  <speed>2.95</speed>
  <fix>3d</fix>
</trkpt>
<trkpt lat="40.0710316" lon="-105.2297739">
  <ele>1583.14</ele>
  <time>2026-08-28T17:52:29Z</time>
  <course>354.53</course>
  <speed>3.332641594891356</speed>
  <fix>3d</fix>
</trkpt>
<trkpt lat="40.0710266" lon="-105.2297733">
  <ele>1583.0</ele>
  <time>2026-08-28T17:52:29Z</time>
  <course>354.95</course>
  <speed>3.15</speed>
  <fix>3d</fix>
</trkpt>
<trkpt lat="40.0710346" lon="-105.2297743">
  <ele>1583.14</ele>
  <time>2026-08-28T17:52:29Z</time>
  <course>354.71</course>
  <speed>3.4223091619548343</speed>
  <fix>3d</fix>
</trkpt>
<trkpt lat="40.0710266" lon="-105.2297733">
  <ele>1583.0</ele>
  <time>2026-08-28T17:52:29Z</time>
  <course>354.95</course>
  <speed>3.15</speed>
  <fix>3d</fix>
</trkpt>
<trkpt lat="40.0710377" lon="-105.2297746">
  <ele>1583.14</ele>
  <time>2026-08-28T17:52:29Z</time>
  <course>354.87</course>
  <speed>3.5219596817680916</speed>
  <fix>3d</fix>
</trkpt>
<trkpt lat="40.0710325" lon="-105.2297739">
  <ele>1583.0</ele>
  <time>2026-08-28T17:52:29Z</time>
  <course>355.3</course>
  <speed>3.34</speed>
  <fix>3d</fix>
</trkpt>
<trkpt lat="40.0710409" lon="-105.2297749">
  <ele>1583.13</ele>
  <time>2026-08-28T17:52:29Z</time>
  <course>355.02</course>
  <speed>3.62162946751873</speed>
  <fix>3d</fix>
</trkpt>
<trkpt lat="40.0710325" lon="-105.2297739">
  <ele>1583.0</ele>
  <time>2026-08-28T17:52:29Z</time>
  <course>355.3</course>
  <speed>3.34</speed>
  <fix>3d</fix>
</trkpt>
<trkpt lat="40.0710441" lon="-105.2297752">
  <ele>1583.13</ele>
  <time>2026-08-28T17:52:29Z</time>
  <course>355.16</course>
  <speed>3.7105794695707566</speed>
  <fix>3d</fix>
</trkpt>
<trkpt lat="40.0710386" lon="-105.2297745">
  <ele>1583.0</ele>
  <time>2026-08-28T17:52:29Z</time>
  <course>355.63</course>
  <speed>3.53</speed>
  <fix>3d</fix>
</trkpt>
<trkpt lat="40.0710475" lon="-105.2297755">
  <ele>1583.13</ele>
  <time>2026-08-28T17:52:29Z</time>
  <course>355.31</course>
  <speed>3.810301825315155</speed>
  <fix>3d</fix>
</trkpt>
<trkpt lat="40.0710386" lon="-105.2297745">
  <ele>1583.0</ele>
  <time>2026-08-28T17:52:29Z</time>
  <course>355.63</course>
  <speed>3.53</speed>
  <fix>3d</fix>
</trkpt>
<trkpt lat="40.0710509" lon="-105.2297758">
  <ele>1583.13</ele>
  <time>2026-08-28T17:52:29Z</time>
  <course>355.47</course>
  <speed>3.910038362983156</speed>
  <fix>3d</fix>
</trkpt>
<trkpt lat="40.0710451" lon="-105.2297751">
  <ele>1583.0</ele>
  <time>2026-08-28T17:52:29Z</time>
  <course>355.92</course>
  <speed>3.73</speed>
  <fix>3d</fix>
</trkpt>
<trkpt lat="40.0710545" lon="-105.2297761">
  <ele>1583.13</ele>
  <time>2026-08-28T17:52:29Z</time>
  <course>355.63</course>
  <speed>3.9991249042759343</speed>
  <fix>3d</fix>
</trkpt>
<trkpt lat="40.0710451" lon="-105.2297751">
  <ele>1583.0</ele>
  <time>2026-08-28T17:52:29Z</time>
  <course>355.92</course>
  <speed>3.73</speed>
  <fix>3d</fix>
</trkpt>
<trkpt lat="40.0710581" lon="-105.2297764">
  <ele>1583.13</ele>
  <time>2026-08-28T17:52:29Z</time>
  <course>355.79</course>
  <speed>4.098902292077722</speed>
  <fix>3d</fix>
</trkpt>
<trkpt lat="40.0710519" lon="-105.2297758">
  <ele>1583.0</ele>
  <time>2026-08-28T17:52:29Z</time>
  <course>356.23</course>
  <speed>3.92</speed>
  <fix>3d</fix>
</trkpt>
<trkpt lat="40.0710618" lon="-105.2297767">
  <ele>1583.13</ele>
  <time>2026-08-28T17:52:29Z</time>
  <course>355.92</course>
  <speed>4.198059075334696</speed>
  <fix>3d</fix>
</trkpt>
<trkpt lat="40.0710519" lon="-105.2297758">
  <ele>1583.0</ele>
  <time>2026-08-28T17:52:29Z</time>
  <course>356.23</course>
  <speed>3.92</speed>
  <fix>3d</fix>
</trkpt>
<trkpt lat="40.0710656" lon="-105.229777">
  <ele>1583.13</ele>
  <time>2026-08-28T17:52:29Z</time>
  <course>356.05</course>
  <speed>4.2978715662523</speed>
  <fix>3d</fix>
</trkpt>
<trkpt lat="40.0710592" lon="-105.2297763">
  <ele>1583.0</ele>
  <time>2026-08-28T17:52:29Z</time>
  <course>356.53</course>
  <speed>4.11</speed>
  <fix>3d</fix>
</trkpt>
<trkpt lat="40.0710695" lon="-105.2297773">
  <ele>1583.12</ele>
  <time>2026-08-28T17:52:29Z</time>
  <course>356.16</course>
  <speed>4.397692576795245</speed>
  <fix>3d</fix>
</trkpt>
<trkpt lat="40.0710592" lon="-105.2297763">
  <ele>1583.0</ele>
  <time>2026-08-28T17:52:29Z</time>
  <course>356.53</course>
  <speed>4.11</speed>
  <fix>3d</fix>
</trkpt>
<trkpt lat="40.0710735" lon="-105.2297776">
  <ele>1583.12</ele>
  <time>2026-08-28T17:52:29Z</time>
  <course>356.28</course>
  <speed>4.496954525009119</speed>
  <fix>3d</fix>
</trkpt>
<trkpt lat="40.0710667" lon="-105.229777">
  <ele>1583.0</ele>
  <time>2026-08-28T17:52:29Z</time>
  <course>356.79</course>
  <speed>4.31</speed>
  <fix>3d</fix>
</trkpt>
<trkpt lat="40.0710776" lon="-105.2297779">
  <ele>1583.12</ele>
  <time>2026-08-28T17:52:29Z</time>
  <course>356.4</course>
  <speed>4.596803237033319</speed>
  <fix>3d</fix>
</trkpt>
<trkpt lat="40.0710667" lon="-105.229777">
  <ele>1583.0</ele>
  <time>2026-08-28T17:52:29Z</time>
  <course>356.79</course>
  <speed>4.31</speed>
  <fix>3d</fix>
</trkpt>
<trkpt lat="40.0710818" lon="-105.2297781">
  <ele>1583.12</ele>
  <time>2026-08-28T17:52:29Z</time>
  <course>356.53</course>
  <speed>4.696658386555275</speed>
  <fix>3d</fix>
</trkpt>
<trkpt lat="40.0710746" lon="-105.2297775">
  <ele>1583.0</ele>
  <time>2026-08-28T17:52:29Z</time>
  <course>357.03</course>
  <speed>4.5</speed>
  <fix>3d</fix>
</trkpt>
<trkpt lat="40.0710861" lon="-105.2297784">
  <ele>1583.13</ele>
  <time>2026-08-28T17:52:29Z</time>
  <course>356.65</course>
  <speed>4.786021312113016</speed>
  <fix>3d</fix>
</trkpt>
<trkpt lat="40.0710746" lon="-105.2297775">
  <ele>1583.0</ele>
  <time>2026-08-28T17:52:29Z</time>
  <course>357.03</course>
  <speed>4.5</speed>
  <fix>3d</fix>
</trkpt>
<trkpt lat="40.0710904" lon="-105.2297787">
  <ele>1583.12</ele>
  <time>2026-08-28T17:52:29Z</time>
  <course>356.76</course>
  <speed>4.885898075072791</speed>
  <fix>3d</fix>
</trkpt>
<trkpt lat="40.0710829" lon="-105.2297781">
  <ele>1583.0</ele>
  <time>2026-08-28T17:52:29Z</time>
  <course>357.27</course>
  <speed>4.69</speed>
  <fix>3d</fix>
</trkpt>
<trkpt lat="40.0710948" lon="-105.2297789">
  <ele>1583.13</ele>
  <time>2026-08-28T17:52:29Z</time>
  <course>356.82</course>
  <speed>4.975319085244684</speed>
  <fix>3d</fix>
</trkpt>
<trkpt lat="40.0710829" lon="-105.2297781">
  <ele>1583.0</ele>
  <time>2026-08-28T17:52:29Z</time>
  <course>357.27</course>
  <speed>4.69</speed>
  <fix>3d</fix>
</trkpt>
<trkpt lat="40.0710994" lon="-105.2297792">
  <ele>1583.13</ele>
  <time>2026-08-28T17:52:29Z</time>
  <course>356.89</course>
  <speed>5.0552349104665755</speed>
  <fix>3d</fix>
</trkpt>
<trkpt lat="40.0710914" lon="-105.2297786">
  <ele>1583.0</ele>
  <time>2026-08-28T17:52:29Z</time>
  <course>357.47</course>
  <speed>4.87</speed>
  <fix>3d</fix>
</trkpt>
<trkpt lat="40.0711039" lon="-105.2297794">
  <ele>1583.13</ele>
  <time>2026-08-28T17:52:29Z</time>
  <course>356.96</course>
  <speed>5.125163412028928</speed>
  <fix>3d</fix>
</trkpt>
<trkpt lat="40.0710914" lon="-105.2297786">
  <ele>1583.0</ele>
  <time>2026-08-28T17:52:29Z</time>
  <course>357.47</course>
  <speed>4.87</speed>
  <fix>3d</fix>
</trkpt>
<trkpt lat="40.0711086" lon="-105.2297797">
  <ele>1583.13</ele>
  <time>2026-08-28T17:52:29Z</time>
  <course>357.03</course>
  <speed>5.195093839383462</speed>
  <fix>3d</fix>
</trkpt>
<trkpt lat="40.0711004" lon="-105.2297791">
  <ele>1583.0</ele>
  <time>2026-08-28T17:52:29Z</time>
  <course>357.6</course>
  <speed>5.03</speed>
  <fix>3d</fix>
</trkpt>
<trkpt lat="40.0711133" lon="-105.2297799">
  <ele>1583.13</ele>
  <time>2026-08-28T17:52:29Z</time>
  <course>357.1</course>
  <speed>5.2546075019928935</speed>
  <fix>3d</fix>
</trkpt>
<trkpt lat="40.0711004" lon="-105.2297791">
  <ele>1583.0</ele>
  <time>2026-08-28T17:52:29Z</time>
  <course>357.6</course>
  <speed>5.03</speed>
  <fix>3d</fix>
</trkpt>
<trkpt lat="40.071118" lon="-105.2297802">
  <ele>1583.14</ele>
  <time>2026-08-28T17:52:29Z</time>
  <course>357.17</course>
  <speed>5.304564072569961</speed>
  <fix>3d</fix>
</trkpt>
<trkpt lat="40.0711095" lon="-105.2297796">
  <ele>1583.0</ele>
  <time>2026-08-28T17:52:29Z</time>
  <course>357.74</course>
  <speed>5.16</speed>
  <fix>3d</fix>
</trkpt>
<trkpt lat="40.0711227" lon="-105.2297804">
  <ele>1583.14</ele>
  <time>2026-08-28T17:52:29Z</time>
  <course>357.24</course>
  <speed>5.334135356362829</speed>
  <fix>3d</fix>
</trkpt>
<trkpt lat="40.0711095" lon="-105.2297796">
  <ele>1583.0</ele>
  <time>2026-08-28T17:52:29Z</time>
  <course>357.74</course>
  <speed>5.16</speed>
  <fix>3d</fix>
</trkpt>
<trkpt lat="40.0711274" lon="-105.2297806">
  <ele>1583.15</ele>
  <time>2026-08-28T17:52:29Z</time>
  <course>357.31</course>
  <speed>5.3541199090046545</speed>
  <fix>3d</fix>
</trkpt>
<trkpt lat="40.0711189" lon="-105.22978">
  <ele>1583.0</ele>
  <time>2026-08-28T17:52:29Z</time>
  <course>357.88</course>
  <speed>5.24</speed>
  <fix>3d</fix>
</trkpt>
<trkpt lat="40.0711322" lon="-105.2297808">
  <ele>1583.15</ele>
  <time>2026-08-28T17:52:29Z</time>
  <course>357.39</course>
  <speed>5.363730045406834</speed>
  <fix>3d</fix>
</trkpt>
<trkpt lat="40.0711189" lon="-105.22978">
  <ele>1583.0</ele>
  <time>2026-08-28T17:52:29Z</time>
  <course>357.88</course>
  <speed>5.24</speed>
  <fix>3d</fix>
</trkpt>
<trkpt lat="40.0711369" lon="-105.229781">
  <ele>1583.15</ele>
  <time>2026-08-28T17:52:29Z</time>
  <course>357.45</course>
  <speed>5.363366480113027</speed>
  <fix>3d</fix>
</trkpt>
<trkpt lat="40.0711284" lon="-105.2297805">
  <ele>1583.0</ele>
  <time>2026-08-28T17:52:29Z</time>
  <course>358.02</course>
  <speed>5.29</speed>
  <fix>3d</fix>
</trkpt>
<trkpt lat="40.0711416" lon="-105.2297812">
  <ele>1583.15</ele>
  <time>2026-08-28T17:52:29Z</time>
  <course>357.49</course>
  <speed>5.353372768638478</speed>
  <fix>3d</fix>
</trkpt>
<trkpt lat="40.0711284" lon="-105.2297805">
  <ele>1583.0</ele>
  <time>2026-08-28T17:52:29Z</time>
  <course>358.02</course>
  <speed>5.29</speed>
  <fix>3d</fix>
</trkpt>
<trkpt lat="40.0711464" lon="-105.2297814">
  <ele>1583.15</ele>
  <time>2026-08-28T17:52:29Z</time>
  <course>357.56</course>
  <speed>5.343032846614364</speed>
  <fix>3d</fix>
</trkpt>
<trkpt lat="40.0711379" lon="-105.2297809">
  <ele>1583.0</ele>
  <time>2026-08-28T17:52:29Z</time>
  <course>358.14</course>
  <speed>5.29</speed>
  <fix>3d</fix>
</trkpt>
<trkpt lat="40.0711511" lon="-105.2297816">
  <ele>1583.15</ele>
  <time>2026-08-28T17:52:29Z</time>
  <course>357.59</course>
  <speed>5.323044241784958</speed>
  <fix>3d</fix>
</trkpt>
<trkpt lat="40.0711379" lon="-105.2297809">
  <ele>1583.0</ele>
  <time>2026-08-28T17:52:29Z</time>
  <course>358.14</course>
  <speed>5.29</speed>
  <fix>3d</fix>
</trkpt>
<trkpt lat="40.0711559" lon="-105.2297818">
  <ele>1583.16</ele>
  <time>2026-08-28T17:52:29Z</time>
  <course>357.64</course>
  <speed>5.302725714196426</speed>
  <fix>3d</fix>
</trkpt>
<trkpt lat="40.0711474" lon="-105.2297813">
  <ele>1583.0</ele>
  <time>2026-08-28T17:52:29Z</time>
  <course>358.24</course>
  <speed>5.27</speed>
  <fix>3d</fix>
</trkpt>
<trkpt lat="40.0711606" lon="-105.229782">
  <ele>1583.16</ele>
  <time>2026-08-28T17:52:29Z</time>
  <course>357.69</course>
  <speed>5.272428283058955</speed>
  <fix>3d</fix>
</trkpt>
<trkpt lat="40.0711474" lon="-105.2297813">
  <ele>1583.0</ele>
  <time>2026-08-28T17:52:29Z</time>
  <course>358.24</course>
  <speed>5.27</speed>
  <fix>3d</fix>
</trkpt>
<trkpt lat="40.0711653" lon="-105.2297821">
  <ele>1583.16</ele>
  <time>2026-08-28T17:52:29Z</time>
  <course>357.72</course>
  <speed>5.252437529376242</speed>
  <fix>3d</fix>
</trkpt>
<trkpt lat="40.0711569" lon="-105.2297816">
  <ele>1583.0</ele>
  <time>2026-08-28T17:52:29Z</time>
  <course>358.32</course>
  <speed>5.23</speed>
  <fix>3d</fix>
</trkpt>
<trkpt lat="40.0711699" lon="-105.2297823">
  <ele>1583.16</ele>
  <time>2026-08-28T17:52:29Z</time>
  <course>357.75</course>
  <speed>5.222451531608503</speed>
  <fix>3d</fix>
</trkpt>
<trkpt lat="40.0711569" lon="-105.2297816">
  <ele>1583.0</ele>
  <time>2026-08-28T17:52:29Z</time>
  <course>358.32</course>
  <speed>5.23</speed>
  <fix>3d</fix>
</trkpt>
<trkpt lat="40.0711746" lon="-105.2297825">
  <ele>1583.16</ele>
  <time>2026-08-28T17:52:29Z</time>
  <course>357.8</course>
  <speed>5.182171359575058</speed>
  <fix>3d</fix>
</trkpt>
<trkpt lat="40.0711662" lon="-105.229782">
  <ele>1583.0</ele>
  <time>2026-08-28T17:52:29Z</time>
  <course>358.4</course>
  <speed>5.18</speed>
  <fix>3d</fix>
</trkpt>
<trkpt lat="40.0711792" lon="-105.2297826">
  <ele>1583.16</ele>
  <time>2026-08-28T17:52:29Z</time>
  <course>357.85</course>
  <speed>5.15190256119038</speed>
  <fix>3d</fix>
</trkpt>
<trkpt lat="40.0711662" lon="-105.229782">
  <ele>1583.0</ele>
  <time>2026-08-28T17:52:29Z</time>
  <course>358.4</course>
  <speed>5.18</speed>
  <fix>3d</fix>
</trkpt>
<trkpt lat="40.0711838" lon="-105.2297828">
  <ele>1583.17</ele>
  <time>2026-08-28T17:52:29Z</time>
  <course>357.87</course>
  <speed>5.121913704856809</speed>
  <fix>3d</fix>
</trkpt>
<trkpt lat="40.0711754" lon="-105.2297823">
  <ele>1583.0</ele>
  <time>2026-08-28T17:52:29Z</time>
  <course>358.48</course>
  <speed>5.11</speed>
  <fix>3d</fix>
</trkpt>
<trkpt lat="40.0711884" lon="-105.2297829">
  <ele>1583.17</ele>
  <time>2026-08-28T17:52:29Z</time>
  <course>357.9</course>
  <speed>5.0919249798087165</speed>
  <fix>3d</fix>
</trkpt>
<trkpt lat="40.0711754" lon="-105.2297823">
  <ele>1583.0</ele>
  <time>2026-08-28T17:52:29Z</time>
  <course>358.48</course>
  <speed>5.11</speed>
  <fix>3d</fix>
</trkpt>
<trkpt lat="40.0711929" lon="-105.229783">
  <ele>1583.17</ele>
  <time>2026-08-28T17:52:29Z</time>
  <course>357.95</course>
  <speed>5.061669684995259</speed>
  <fix>3d</fix>
</trkpt>
<trkpt lat="40.0711845" lon="-105.2297826">
  <ele>1583.0</ele>
  <time>2026-08-28T17:52:29Z</time>
  <course>358.56</course>
  <speed>5.05</speed>
  <fix>3d</fix>
</trkpt>
<trkpt lat="40.0711974" lon="-105.2297832">
  <ele>1583.17</ele>
  <time>2026-08-28T17:52:29Z</time>
  <course>357.99</course>
  <speed>5.031431207916889</speed>
  <fix>3d</fix>
</trkpt>
<trkpt lat="40.0711845" lon="-105.2297826">
  <ele>1583.0</ele>
  <time>2026-08-28T17:52:29Z</time>
  <course>358.56</course>
  <speed>5.05</speed>
  <fix>3d</fix>
</trkpt>
<trkpt lat="40.0712019" lon="-105.2297833">
  <ele>1583.17</ele>
  <time>2026-08-28T17:52:29Z</time>
  <course>358.02</course>
  <speed>5.001439792699698</speed>
  <fix>3d</fix>
</trkpt>
<trkpt lat="40.0711936" lon="-105.2297829">
  <ele>1583.0</ele>
  <time>2026-08-28T17:52:29Z</time>
  <course>358.63</course>
  <speed>4.99</speed>
  <fix>3d</fix>
</trkpt>
<trkpt lat="40.0712063" lon="-105.2297834">
  <ele>1583.16</ele>
  <time>2026-08-28T17:52:29Z</time>
  <course>358.04</course>
  <speed>4.981445573325076</speed>
  <fix>3d</fix>
</trkpt>
<trkpt lat="40.0711936" lon="-105.2297829">
  <ele>1583.0</ele>
  <time>2026-08-28T17:52:29Z</time>
  <course>358.63</course>
  <speed>4.99</speed>
  <fix>3d</fix>
</trkpt>
<trkpt lat="40.0712108" lon="-105.2297835">
  <ele>1583.16</ele>
  <time>2026-08-28T17:52:29Z</time>
  <course>358.08</course>
  <speed>4.961219608120568</speed>
  <fix>3d</fix>
</trkpt>
<trkpt lat="40.0712025" lon="-105.2297832">
  <ele>1583.0</ele>
  <time>2026-08-28T17:52:29Z</time>
  <course>358.7</course>
  <speed>4.95</speed>
  <fix>3d</fix>
</trkpt>
<trkpt lat="40.0712151" lon="-105.2297837">
  <ele>1583.16</ele>
  <time>2026-08-28T17:52:29Z</time>
  <course>358.13</course>
  <speed>4.941224544584065</speed>
  <fix>3d</fix>
</trkpt>
<trkpt lat="40.0712025" lon="-105.2297832">
  <ele>1583.0</ele>
  <time>2026-08-28T17:52:29Z</time>
  <course>358.7</course>
  <speed>4.95</speed>
  <fix>3d</fix>
</trkpt>
<trkpt lat="40.0712195" lon="-105.2297838">
  <ele>1583.16</ele>
  <time>2026-08-28T17:52:29Z</time>
  <course>358.16</course>
  <speed>4.921229521166433</speed>
  <fix>3d</fix>
</trkpt>
<trkpt lat="40.0712113" lon="-105.2297835">
  <ele>1583.0</ele>
  <time>2026-08-28T17:52:29Z</time>
  <course>358.78</course>
  <speed>4.91</speed>
  <fix>3d</fix>
</trkpt>
<trkpt lat="40.0712238" lon="-105.2297839">
  <ele>1583.16</ele>
  <time>2026-08-28T17:52:29Z</time>
  <course>358.18</course>
  <speed>4.911018224360403</speed>
  <fix>3d</fix>
</trkpt>
<trkpt lat="40.0712113" lon="-105.2297835">
  <ele>1583.0</ele>
  <time>2026-08-28T17:52:29Z</time>
  <course>358.78</course>
  <speed>4.91</speed>
  <fix>3d</fix>
</trkpt>
<trkpt lat="40.0712281" lon="-105.229784">
  <ele>1583.16</ele>
  <time>2026-08-28T17:52:29Z</time>
  <course>358.22</course>
  <speed>4.901020301937138</speed>
  <fix>3d</fix>
</trkpt>
<trkpt lat="40.0712202" lon="-105.2297836">
  <ele>1583.0</ele>
  <time>2026-08-28T17:52:29Z</time>
  <course>358.85</course>
  <speed>4.88</speed>
  <fix>3d</fix>
</trkpt>
<trkpt lat="40.0712324" lon="-105.2297841">
  <ele>1583.16</ele>
  <time>2026-08-28T17:52:29Z</time>
  <course>358.27</course>
  <speed>4.891022388008462</speed>
  <fix>3d</fix>
</trkpt>
<trkpt lat="40.0712202" lon="-105.2297836">
  <ele>1583.0</ele>
  <time>2026-08-28T17:52:29Z</time>
  <course>358.85</course>
  <speed>4.88</speed>
  <fix>3d</fix>
</trkpt>
<trkpt lat="40.0712368" lon="-105.2297842">
  <ele>1583.16</ele>
  <time>2026-08-28T17:52:29Z</time>
  <course>358.28</course>
  <speed>4.891022388008462</speed>
  <fix>3d</fix>
</trkpt>
<trkpt lat="40.071229" lon="-105.2297839">
  <ele>1583.0</ele>
  <time>2026-08-28T17:52:29Z</time>
  <course>358.92</course>
  <speed>4.87</speed>
  <fix>3d</fix>
</trkpt>
<trkpt lat="40.0712411" lon="-105.2297843">
  <ele>1583.16</ele>
  <time>2026-08-28T17:52:29Z</time>
  <course>358.32</course>
  <speed>4.890828150732757</speed>
  <fix>3d</fix>
</trkpt>
<trkpt lat="40.071229" lon="-105.2297839">
  <ele>1583.0</ele>
  <time>2026-08-28T17:52:29Z</time>
  <course>358.92</course>
  <speed>4.87</speed>
  <fix>3d</fix>
</trkpt>
<trkpt lat="40.0712454" lon="-105.2297844">
  <ele>1583.16</ele>
  <time>2026-08-28T17:52:29Z</time>
  <course>358.35</course>
  <speed>4.890828150732757</speed>
  <fix>3d</fix>
</trkpt>
<trkpt lat="40.0712377" lon="-105.229784">
  <ele>1583.0</ele>
  <time>2026-08-28T17:52:29Z</time>
  <course>358.98</course>
  <speed>4.87</speed>
  <fix>3d</fix>
</trkpt>
<trkpt lat="40.0712497" lon="-105.2297845">
  <ele>1583.16</ele>
  <time>2026-08-28T17:52:29Z</time>
  <course>358.34</course>
  <speed>4.890828150732757</speed>
  <fix>3d</fix>
</trkpt>
<trkpt lat="40.0712377" lon="-105.229784">
  <ele>1583.0</ele>
  <time>2026-08-28T17:52:29Z</time>
  <course>358.98</course>
  <speed>4.87</speed>
  <fix>3d</fix>
</trkpt>
<trkpt lat="40.0712541" lon="-105.2297846">
  <ele>1583.16</ele>
  <time>2026-08-28T17:52:29Z</time>
  <course>358.34</course>
  <speed>4.890828150732757</speed>
  <fix>3d</fix>
</trkpt>
<trkpt lat="40.0712465" lon="-105.2297843">
  <ele>1583.0</ele>
  <time>2026-08-28T17:52:29Z</time>
  <course>359.02</course>
  <speed>4.88</speed>
  <fix>3d</fix>
</trkpt>
<trkpt lat="40.0712585" lon="-105.2297846">
  <ele>1583.16</ele>
  <time>2026-08-28T17:52:29Z</time>
  <course>358.34</course>
  <speed>4.890828150732757</speed>
  <fix>3d</fix>
</trkpt>
<trkpt lat="40.0712465" lon="-105.2297843">
  <ele>1583.0</ele>
  <time>2026-08-28T17:52:29Z</time>
  <course>359.02</course>
  <speed>4.88</speed>
  <fix>3d</fix>
</trkpt>
<trkpt lat="40.0712629" lon="-105.2297847">
  <ele>1583.17</ele>
  <time>2026-08-28T17:52:29Z</time>
  <course>358.33</course>
  <speed>4.890828150732757</speed>
  <fix>3d</fix>
</trkpt>
<trkpt lat="40.0712553" lon="-105.2297844">
  <ele>1583.0</ele>
  <time>2026-08-28T17:52:29Z</time>
  <course>359.03</course>
  <speed>4.88</speed>
  <fix>3d</fix>
</trkpt>
<trkpt lat="40.0712673" lon="-105.2297848">
  <ele>1583.16</ele>
  <time>2026-08-28T17:52:29Z</time>
  <course>358.33</course>
  <speed>4.88082984747471</speed>
  <fix>3d</fix>
</trkpt>
<trkpt lat="40.0712553" lon="-105.2297844">
  <ele>1583.0</ele>
  <time>2026-08-28T17:52:29Z</time>
  <course>359.03</course>
  <speed>4.88</speed>
  <fix>3d</fix>
</trkpt>
<trkpt lat="40.0712717" lon="-105.2297849">
  <ele>1583.16</ele>
  <time>2026-08-28T17:52:29Z</time>
  <course>358.32</course>
  <speed>4.860833261900679</speed>
  <fix>3d</fix>
</trkpt>
<trkpt lat="40.071264" lon="-105.2297847">
  <ele>1583.0</ele>
  <time>2026-08-28T17:52:29Z</time>
  <course>359.03</course>
  <speed>4.87</speed>
  <fix>3d</fix>
</trkpt>
<trkpt lat="40.0712761" lon="-105.229785">
  <ele>1583.17</ele>
  <time>2026-08-28T17:52:29Z</time>
  <course>358.32</course>
  <speed>4.820840175737005</speed>
  <fix>3d</fix>
</trkpt>
<trkpt lat="40.071264" lon="-105.2297847">
  <ele>1583.0</ele>
  <time>2026-08-28T17:52:29Z</time>
  <course>359.03</course>
  <speed>4.87</speed>
  <fix>3d</fix>
</trkpt>
<trkpt lat="40.0712804" lon="-105.2297851">
  <ele>1583.17</ele>
  <time>2026-08-28T17:52:29Z</time>
  <course>358.32</course>
  <speed>4.78084720525557</speed>
  <fix>3d</fix>
</trkpt>
<trkpt lat="40.0712727" lon="-105.2297849">
  <ele>1583.0</ele>
  <time>2026-08-28T17:52:29Z</time>
  <course>359.03</course>
  <speed>4.82</speed>
  <fix>3d</fix>
</trkpt>
<trkpt lat="40.0712846" lon="-105.2297852">
  <ele>1583.17</ele>
  <time>2026-08-28T17:52:29Z</time>
  <course>358.31</course>
  <speed>4.730856159301401</speed>
  <fix>3d</fix>
</trkpt>
<trkpt lat="40.0712727" lon="-105.2297849">
  <ele>1583.0</ele>
  <time>2026-08-28T17:52:29Z</time>
  <course>359.03</course>
  <speed>4.82</speed>
  <fix>3d</fix>
</trkpt>
<trkpt lat="40.0712889" lon="-105.2297853">
  <ele>1583.17</ele>
  <time>2026-08-28T17:52:29Z</time>
  <course>358.31</course>
  <speed>4.66086901768329</speed>
  <fix>3d</fix>
</trkpt>
<trkpt lat="40.0712813" lon="-105.229785">
  <ele>1583.0</ele>
  <time>2026-08-28T17:52:29Z</time>
  <course>359.03</course>
  <speed>4.73</speed>
  <fix>3d</fix>
</trkpt>
<trkpt lat="40.071293" lon="-105.2297854">
  <ele>1583.17</ele>
  <time>2026-08-28T17:52:29Z</time>
  <course>358.3</course>
  <speed>4.580884194126719</speed>
  <fix>3d</fix>
</trkpt>
<trkpt lat="40.0712813" lon="-105.229785">
  <ele>1583.0</ele>
  <time>2026-08-28T17:52:29Z</time>
  <course>359.03</course>
  <speed>4.73</speed>
  <fix>3d</fix>
</trkpt>
<trkpt lat="40.0712971" lon="-105.2297855">
  <ele>1583.16</ele>
  <time>2026-08-28T17:52:29Z</time>
  <course>358.3</course>
  <speed>4.490712638323677</speed>
  <fix>3d</fix>
</trkpt>
<trkpt lat="40.0712897" lon="-105.2297853">
  <ele>1583.0</ele>
  <time>2026-08-28T17:52:29Z</time>
  <course>359.03</course>
  <speed>4.6</speed>
  <fix>3d</fix>
</trkpt>
<trkpt lat="40.0713011" lon="-105.2297856">
  <ele>1583.16</ele>
  <time>2026-08-28T17:52:29Z</time>
  <course>358.3</course>
  <speed>4.400727212632021</speed>
  <fix>3d</fix>
</trkpt>
<trkpt lat="40.0712897" lon="-105.2297853">
  <ele>1583.0</ele>
  <time>2026-08-28T17:52:29Z</time>
  <course>359.03</course>
  <speed>4.6</speed>
  <fix>3d</fix>
</trkpt>
<trkpt lat="40.0713049" lon="-105.2297857">
  <ele>1583.16</ele>
  <time>2026-08-28T17:52:29Z</time>
  <course>358.29</course>
  <speed>4.29074585590897</speed>
  <fix>3d</fix>
</trkpt>
<trkpt lat="40.0712979" lon="-105.2297854">
  <ele>1583.0</ele>
  <time>2026-08-28T17:52:29Z</time>
  <course>359.03</course>
  <speed>4.42</speed>
  <fix>3d</fix>
</trkpt>
<trkpt lat="40.0713087" lon="-105.2297857">
  <ele>1583.17</ele>
  <time>2026-08-28T17:52:29Z</time>
  <course>358.29</course>
  <speed>4.1807654801483425</speed>
  <fix>3d</fix>
</trkpt>
<trkpt lat="40.0712979" lon="-105.2297854">
  <ele>1583.0</ele>
  <time>2026-08-28T17:52:29Z</time>
  <course>359.03</course>
  <speed>4.42</speed>
  <fix>3d</fix>
</trkpt>
<trkpt lat="40.0713124" lon="-105.2297858">
  <ele>1583.17</ele>
  <time>2026-08-28T17:52:29Z</time>
  <course>358.29</course>
  <speed>4.060603403436489</speed>
  <fix>3d</fix>
</trkpt>
<trkpt lat="40.0713056" lon="-105.2297856">
  <ele>1583.0</ele>
  <time>2026-08-28T17:52:29Z</time>
  <course>359.03</course>
  <speed>4.21</speed>
  <fix>3d</fix>
</trkpt>
<trkpt lat="40.0713159" lon="-105.2297859">
  <ele>1583.17</ele>
  <time>2026-08-28T17:52:29Z</time>
  <course>358.28</course>
  <speed>3.9406217783491986</speed>
  <fix>3d</fix>
</trkpt>
<trkpt lat="40.0713056" lon="-105.2297856">
  <ele>1583.0</ele>
  <time>2026-08-28T17:52:29Z</time>
  <course>359.03</course>
  <speed>4.21</speed>
  <fix>3d</fix>
</trkpt>
<trkpt lat="40.0713193" lon="-105.229786">
  <ele>1583.16</ele>
  <time>2026-08-28T17:52:29Z</time>
  <course>358.32</course>
  <speed>3.780476160485607</speed>
  <fix>3d</fix>
</trkpt>
<trkpt lat="40.0713129" lon="-105.2297858">
  <ele>1583.0</ele>
  <time>2026-08-28T17:52:29Z</time>
  <course>359.03</course>
  <speed>3.98</speed>
  <fix>3d</fix>
</trkpt>
<trkpt lat="40.0713226" lon="-105.229786">
  <ele>1583.16</ele>
  <time>2026-08-28T17:52:29Z</time>
  <course>358.39</course>
  <speed>3.5903481725314608</speed>
  <fix>3d</fix>
</trkpt>
<trkpt lat="40.0713129" lon="-105.2297858">
  <ele>1583.0</ele>
  <time>2026-08-28T17:52:29Z</time>
  <course>359.03</course>
  <speed>3.98</speed>
  <fix>3d</fix>
</trkpt>
<trkpt lat="40.0713256" lon="-105.2297861">
  <ele>1583.16</ele>
  <time>2026-08-28T17:52:29Z</time>
  <course>358.43</course>
  <speed>3.410366549214322</speed>
  <fix>3d</fix>
</trkpt>
<trkpt lat="40.0713256" lon="-105.2297861">
  <ele>1583.16</ele>
  <time>2026-08-28T17:52:29Z</time>
  <course>358.43</course>
  <speed>3.410366549214322</speed>
  <fix>3d</fix>
</trkpt>
<trkpt lat="40.0713198" lon="-105.2297859">
  <ele>1583.0</ele>
  <time>2026-08-28T17:52:29Z</time>
  <course>359.1</course>
  <speed>3.68</speed>
  <fix>3d</fix>
</trkpt>
<trkpt lat="40.0713286" lon="-105.2297861">
  <ele>1583.16</ele>
  <time>2026-08-28T17:52:29Z</time>
  <course>358.47</course>
  <speed>3.2402469041725817</speed>
  <fix>3d</fix>
</trkpt>
<trkpt lat="40.0713198" lon="-105.2297859">
  <ele>1583.0</ele>
  <time>2026-08-28T17:52:29Z</time>
  <course>359.1</course>
  <speed>3.68</speed>
  <fix>3d</fix>
</trkpt>
<trkpt lat="40.0713314" lon="-105.2297862">
  <ele>1583.16</ele>
  <time>2026-08-28T17:52:29Z</time>
  <course>358.51</course>
  <speed>3.080259729308553</speed>
  <fix>3d</fix>
</trkpt>
<trkpt lat="40.0713262" lon="-105.229786">
  <ele>1583.0</ele>
  <time>2026-08-28T17:52:29Z</time>
  <course>359.21</course>
  <speed>3.33</speed>
  <fix>3d</fix>
</trkpt>
<trkpt lat="40.0713385" lon="-105.2297862">
  <ele>1583.15</ele>
  <time>2026-08-28T17:52:29Z</time>
  <course>358.61</course>
  <speed>2.670074905316328</speed>
  <fix>3d</fix>
</trkpt>
<trkpt lat="40.0713319" lon="-105.2297861">
  <ele>1583.0</ele>
  <time>2026-08-28T17:52:29Z</time>
  <course>359.3</course>
  <speed>3.01</speed>
  <fix>3d</fix>
</trkpt>
<trkpt lat="40.0713408" lon="-105.2297863">
  <ele>1583.15</ele>
  <time>2026-08-28T17:52:29Z</time>
  <course>358.64</course>
  <speed>2.5400787389370434</speed>
  <fix>3d</fix>
</trkpt>
<trkpt lat="40.071337" lon="-105.2297862">
  <ele>1583.0</ele>
  <time>2026-08-28T17:52:29Z</time>
  <course>359.38</course>
  <speed>2.72</speed>
  <fix>3d</fix>
</trkpt>
<trkpt lat="40.0713431" lon="-105.2297863">
  <ele>1583.15</ele>
  <time>2026-08-28T17:52:29Z</time>
  <course>358.67</course>
  <speed>2.410082986123092</speed>
  <fix>3d</fix>
</trkpt>
<trkpt lat="40.071337" lon="-105.2297862">
  <ele>1583.0</ele>
  <time>2026-08-28T17:52:29Z</time>
  <course>359.38</course>
  <speed>2.72</speed>
  <fix>3d</fix>
</trkpt>
<trkpt lat="40.0713451" lon="-105.2297863">
  <ele>1583.15</ele>
  <time>2026-08-28T17:52:29Z</time>
  <course>358.7</course>
  <speed>2.2900218339570477</speed>
  <fix>3d</fix>
</trkpt>
<trkpt lat="40.0713417" lon="-105.2297863">
  <ele>1583.0</ele>
  <time>2026-08-28T17:52:29Z</time>
  <course>359.45</course>
  <speed>2.46</speed>
  <fix>3d</fix>
</trkpt>
<trkpt lat="40.0713475" lon="-105.2297863">
  <ele>1583.15</ele>
  <time>2026-08-28T17:52:29Z</time>
  <course>358.73</course>
  <speed>2.15002325568818</speed>
  <fix>3d</fix>
</trkpt>
<trkpt lat="40.0713417" lon="-105.2297863">
  <ele>1583.0</ele>
  <time>2026-08-28T17:52:29Z</time>
  <course>359.45</course>
  <speed>2.46</speed>
  <fix>3d</fix>
</trkpt>
<trkpt lat="40.0713494" lon="-105.2297863">
  <ele>1583.15</ele>
  <time>2026-08-28T17:52:29Z</time>
  <course>358.76</course>
  <speed>2.0500243900988107</speed>
  <fix>3d</fix>
</trkpt>
<trkpt lat="40.0713459" lon="-105.2297863">
  <ele>1583.0</ele>
  <time>2026-08-28T17:52:29Z</time>
  <course>359.51</course>
  <speed>2.23</speed>
  <fix>3d</fix>
</trkpt>
<trkpt lat="40.0713512" lon="-105.2297863">
  <ele>1583.15</ele>
  <time>2026-08-28T17:52:29Z</time>
  <course>358.78</course>
  <speed>1.9400257730246782</speed>
  <fix>3d</fix>
</trkpt>
<trkpt lat="40.0713459" lon="-105.2297863">
  <ele>1583.0</ele>
  <time>2026-08-28T17:52:29Z</time>
  <course>359.51</course>
  <speed>2.23</speed>
  <fix>3d</fix>
</trkpt>
<trkpt lat="40.0713529" lon="-105.2297864">
  <ele>1583.15</ele>
  <time>2026-08-28T17:52:29Z</time>
  <course>358.81</course>
  <speed>1.8500270268296084</speed>
  <fix>3d</fix>
</trkpt>
<trkpt lat="40.0713497" lon="-105.2297864">
  <ele>1583.0</ele>
  <time>2026-08-28T17:52:29Z</time>
  <course>359.57</course>
  <speed>2.02</speed>
  <fix>3d</fix>
</trkpt>
<trkpt lat="40.0713545" lon="-105.2297864">
  <ele>1583.15</ele>
  <time>2026-08-28T17:52:29Z</time>
  <course>358.83</course>
  <speed>1.750028571195339</speed>
  <fix>3d</fix>
</trkpt>
<trkpt lat="40.0713497" lon="-105.2297864">
  <ele>1583.0</ele>
  <time>2026-08-28T17:52:29Z</time>
  <course>359.57</course>
  <speed>2.02</speed>
  <fix>3d</fix>
</trkpt>
<trkpt lat="40.071356" lon="-105.2297864">
  <ele>1583.15</ele>
  <time>2026-08-28T17:52:29Z</time>
  <course>358.85</course>
  <speed>1.6600301202086667</speed>
  <fix>3d</fix>
</trkpt>
<trkpt lat="40.0713531" lon="-105.2297864">
  <ele>1583.0</ele>
  <time>2026-08-28T17:52:29Z</time>
  <course>359.62</course>
  <speed>1.82</speed>
  <fix>3d</fix>
</trkpt>
<trkpt lat="40.0713574" lon="-105.2297864">
  <ele>1583.15</ele>
  <time>2026-08-28T17:52:29Z</time>
  <course>358.87</course>
  <speed>1.5800316452527143</speed>
  <fix>3d</fix>
</trkpt>
<trkpt lat="40.0713531" lon="-105.2297864">
  <ele>1583.0</ele>
  <time>2026-08-28T17:52:29Z</time>
  <course>359.62</course>
  <speed>1.82</speed>
  <fix>3d</fix>
</trkpt>
<trkpt lat="40.0713588" lon="-105.2297864">
  <ele>1583.15</ele>
  <time>2026-08-28T17:52:29Z</time>
  <course>358.89</course>
  <speed>1.5000333329629711</speed>
  <fix>3d</fix>
</trkpt>
<trkpt lat="40.0713563" lon="-105.2297864">
  <ele>1583.0</ele>
  <time>2026-08-28T17:52:29Z</time>
  <course>359.67</course>
  <speed>1.65</speed>
  <fix>3d</fix>
</trkpt>
<trkpt lat="40.0713601" lon="-105.2297864">
  <ele>1583.14</ele>
  <time>2026-08-28T17:52:29Z</time>
  <course>358.9</course>
  <speed>1.4200352108310554</speed>
  <fix>3d</fix>
</trkpt>
<trkpt lat="40.0713563" lon="-105.2297864">
  <ele>1583.0</ele>
  <time>2026-08-28T17:52:29Z</time>
  <course>359.67</course>
  <speed>1.65</speed>
  <fix>3d</fix>
</trkpt>
<trkpt lat="40.0713613" lon="-105.2297864">
  <ele>1583.14</ele>
  <time>2026-08-28T17:52:29Z</time>
  <course>358.92</course>
  <speed>1.3500370365289984</speed>
  <fix>3d</fix>
</trkpt>
<trkpt lat="40.0713591" lon="-105.2297864">
  <ele>1583.0</ele>
  <time>2026-08-28T17:52:29Z</time>
  <course>359.71</course>
  <speed>1.49</speed>
  <fix>3d</fix>
</trkpt>
<trkpt lat="40.0713625" lon="-105.2297864">
  <ele>1583.13</ele>
  <time>2026-08-28T17:52:29Z</time>
  <course>358.94</course>
  <speed>1.2800390619039717</speed>
  <fix>3d</fix>
</trkpt>
<trkpt lat="40.0713591" lon="-105.2297864">
  <ele>1583.0</ele>
  <time>2026-08-28T17:52:29Z</time>
  <course>359.71</course>
  <speed>1.49</speed>
  <fix>3d</fix>
</trkpt>
<trkpt lat="40.0713634" lon="-105.2297864">
  <ele>1583.12</ele>
  <time>2026-08-28T17:52:29Z</time>
  <course>358.95</course>
  <speed>1.2300406497347964</speed>
  <fix>3d</fix>
</trkpt>
<trkpt lat="40.0713617" lon="-105.2297864">
  <ele>1583.0</ele>
  <time>2026-08-28T17:52:29Z</time>
  <course>359.75</course>
  <speed>1.35</speed>
  <fix>3d</fix>
</trkpt>
<trkpt lat="40.0713645" lon="-105.2297864">
  <ele>1583.11</ele>
  <time>2026-08-28T17:52:29Z</time>
  <course>358.96</course>
  <speed>1.1700427342623003</speed>
  <fix>3d</fix>
</trkpt>
<trkpt lat="40.0713617" lon="-105.2297864">
  <ele>1583.0</ele>
  <time>2026-08-28T17:52:29Z</time>
  <course>359.75</course>
  <speed>1.35</speed>
  <fix>3d</fix>
</trkpt>
<trkpt lat="40.0713655" lon="-105.2297865">
  <ele>1583.1</ele>
  <time>2026-08-28T17:52:29Z</time>
  <course>358.97</course>
  <speed>1.110045044131093</speed>
  <fix>3d</fix>
</trkpt>
<trkpt lat="40.071364" lon="-105.2297864">
  <ele>1583.0</ele>
  <time>2026-08-28T17:52:29Z</time>
  <course>359.79</course>
  <speed>1.22</speed>
  <fix>3d</fix>
</trkpt>
<trkpt lat="40.0713665" lon="-105.2297865">
  <ele>1583.1</ele>
  <time>2026-08-28T17:52:29Z</time>
  <course>358.98</course>
  <speed>1.050047617967871</speed>
  <fix>3d</fix>
</trkpt>
<trkpt lat="40.071364" lon="-105.2297864">
  <ele>1583.0</ele>
  <time>2026-08-28T17:52:29Z</time>
  <course>359.79</course>
  <speed>1.22</speed>
  <fix>3d</fix>
</trkpt>
<trkpt lat="39.655741" lon="-104.1383097">
  <ele>1566.58</ele>
  <time>2026-08-28T17:52:30Z</time>
  <course>0.0</course>
  <speed>0.0</speed>
  <fix>3d</fix>
</trkpt>
<trkpt lat="40.0713749" lon="-105.229789">
  <ele>1583.0</ele>
  <time>2026-08-28T17:52:30Z</time>
  <course>0.0</course>
  <speed>0.0</speed>
  <fix>3d</fix>
</trkpt>
<trkpt lat="40.0713749" lon="-105.229789">
  <ele>1583.0</ele>
  <time>2026-08-28T17:52:30Z</time>
  <course>238.36</course>
  <speed>0.0</speed>
  <fix>3d</fix>
</trkpt>
<trkpt lat="40.0713749" lon="-105.229789">
  <ele>1583.0</ele>
  <time>2026-08-28T17:52:30Z</time>
  <course>0.0</course>
  <speed>0.0</speed>
  <fix>3d</fix>
</trkpt>
<trkpt lat="40.0713749" lon="-105.229789">
  <ele>1583.0</ele>
  <time>2026-08-28T17:52:30Z</time>
  <course>238.44</course>
  <speed>0.0</speed>
  <fix>3d</fix>
</trkpt>
<trkpt lat="40.0713749" lon="-105.229789">
  <ele>1583.0</ele>
  <time>2026-08-28T17:52:30Z</time>
  <course>0.0</course>
  <speed>0.0</speed>
  <fix>3d</fix>
</trkpt>
<trkpt lat="40.0713749" lon="-105.229789">
  <ele>1583.0</ele>
  <time>2026-08-28T17:52:30Z</time>
  <course>238.64</course>
  <speed>0.0</speed>
  <fix>3d</fix>
</trkpt>
<trkpt lat="40.0713749" lon="-105.229789">
  <ele>1583.0</ele>
  <time>2026-08-28T17:52:30Z</time>
  <course>0.0</course>
  <speed>0.0</speed>
  <fix>3d</fix>
</trkpt>
<trkpt lat="40.0713749" lon="-105.229789">
  <ele>1583.0</ele>
  <time>2026-08-28T17:52:30Z</time>
  <course>238.93</course>
  <speed>0.0</speed>
  <fix>3d</fix>
</trkpt>
<trkpt lat="40.0713749" lon="-105.229789">
  <ele>1583.0</ele>
  <time>2026-08-28T17:52:30Z</time>
  <course>0.0</course>
  <speed>0.0</speed>
  <fix>3d</fix>
</trkpt>
<trkpt lat="40.0713749" lon="-105.229789">
  <ele>1583.0</ele>
  <time>2026-08-28T17:52:30Z</time>
  <course>239.26</course>
  <speed>0.0</speed>
  <fix>3d</fix>
</trkpt>
<trkpt lat="40.0713749" lon="-105.229789">
  <ele>1583.0</ele>
  <time>2026-08-28T17:52:30Z</time>
  <course>0.0</course>
  <speed>0.0</speed>
  <fix>3d</fix>
</trkpt>
<trkpt lat="40.0713749" lon="-105.229789">
  <ele>1583.0</ele>
  <time>2026-08-28T17:52:30Z</time>
  <course>239.61</course>
  <speed>0.0</speed>
  <fix>3d</fix>
</trkpt>
<trkpt lat="40.0713749" lon="-105.229789">
  <ele>1583.0</ele>
  <time>2026-08-28T17:52:30Z</time>
  <course>0.0</course>
  <speed>0.0</speed>
  <fix>3d</fix>
</trkpt>
<trkpt lat="40.0713749" lon="-105.229789">
  <ele>1583.0</ele>
  <time>2026-08-28T17:52:30Z</time>
  <course>239.96</course>
  <speed>0.0</speed>
  <fix>3d</fix>
</trkpt>
<trkpt lat="40.0713749" lon="-105.229789">
  <ele>1583.0</ele>
  <time>2026-08-28T17:52:30Z</time>
  <course>0.0</course>
  <speed>0.0</speed>
  <fix>3d</fix>
</trkpt>
<trkpt lat="40.0713749" lon="-105.229789">
  <ele>1583.0</ele>
  <time>2026-08-28T17:52:30Z</time>
  <course>240.29</course>
  <speed>0.0</speed>
  <fix>3d</fix>
</trkpt>
<trkpt lat="40.0713749" lon="-105.229789">
  <ele>1583.0</ele>
  <time>2026-08-28T17:52:30Z</time>
  <course>0.0</course>
  <speed>0.0</speed>
  <fix>3d</fix>
</trkpt>
<trkpt lat="40.0713749" lon="-105.229789">
  <ele>1583.0</ele>
  <time>2026-08-28T17:52:30Z</time>
  <course>240.61</course>
  <speed>0.0</speed>
  <fix>3d</fix>
</trkpt>
<trkpt lat="40.0713749" lon="-105.229789">
  <ele>1583.0</ele>
  <time>2026-08-28T17:52:30Z</time>
  <course>0.0</course>
  <speed>0.0</speed>
  <fix>3d</fix>
</trkpt>
<trkpt lat="40.0713749" lon="-105.229789">
  <ele>1583.0</ele>
  <time>2026-08-28T17:52:30Z</time>
  <course>240.92</course>
  <speed>0.0</speed>
  <fix>3d</fix>
</trkpt>
<trkpt lat="40.0713749" lon="-105.229789">
  <ele>1583.0</ele>
  <time>2026-08-28T17:52:30Z</time>
  <course>0.0</course>
  <speed>0.0</speed>
  <fix>3d</fix>
</trkpt>
<trkpt lat="40.0713749" lon="-105.229789">
  <ele>1583.0</ele>
  <time>2026-08-28T17:52:30Z</time>
  <course>241.21</course>
  <speed>0.0</speed>
  <fix>3d</fix>
</trkpt>
<trkpt lat="40.0713749" lon="-105.229789">
  <ele>1583.0</ele>
  <time>2026-08-28T17:52:30Z</time>
  <course>0.0</course>
  <speed>0.0</speed>
  <fix>3d</fix>
</trkpt>
<trkpt lat="40.0713749" lon="-105.229789">
  <ele>1583.0</ele>
  <time>2026-08-28T17:52:30Z</time>
  <course>241.49</course>
  <speed>0.0</speed>
  <fix>3d</fix>
</trkpt>
<trkpt lat="40.0713749" lon="-105.229789">
  <ele>1583.0</ele>
  <time>2026-08-28T17:52:30Z</time>
  <course>0.0</course>
  <speed>0.0</speed>
  <fix>3d</fix>
</trkpt>
<trkpt lat="40.0713749" lon="-105.229789">
  <ele>1583.0</ele>
  <time>2026-08-28T17:52:30Z</time>
  <course>241.77</course>
  <speed>0.0</speed>
  <fix>3d</fix>
</trkpt>
<trkpt lat="40.0713749" lon="-105.229789">
  <ele>1583.0</ele>
  <time>2026-08-28T17:52:30Z</time>
  <course>0.0</course>
  <speed>0.0</speed>
  <fix>3d</fix>
</trkpt>
<trkpt lat="40.0713749" lon="-105.229789">
  <ele>1583.0</ele>
  <time>2026-08-28T17:52:30Z</time>
  <course>242.03</course>
  <speed>0.0</speed>
  <fix>3d</fix>
</trkpt>
<trkpt lat="40.0713749" lon="-105.229789">
  <ele>1583.0</ele>
  <time>2026-08-28T17:52:30Z</time>
  <course>0.0</course>
  <speed>0.0</speed>
  <fix>3d</fix>
</trkpt>
<trkpt lat="40.0713749" lon="-105.229789">
  <ele>1583.0</ele>
  <time>2026-08-28T17:52:30Z</time>
  <course>242.29</course>
  <speed>0.0</speed>
  <fix>3d</fix>
</trkpt>
<trkpt lat="40.0713749" lon="-105.229789">
  <ele>1583.0</ele>
  <time>2026-08-28T17:52:30Z</time>
  <course>0.0</course>
  <speed>0.0</speed>
  <fix>3d</fix>
</trkpt>
<trkpt lat="40.0713749" lon="-105.229789">
  <ele>1583.0</ele>
  <time>2026-08-28T17:52:30Z</time>
  <course>242.54</course>
  <speed>0.0</speed>
  <fix>3d</fix>
</trkpt>
<trkpt lat="40.0713749" lon="-105.229789">
  <ele>1583.0</ele>
  <time>2026-08-28T17:52:30Z</time>
  <course>0.0</course>
  <speed>0.0</speed>
  <fix>3d</fix>
</trkpt>
<trkpt lat="40.0713749" lon="-105.229789">
  <ele>1583.0</ele>
  <time>2026-08-28T17:52:30Z</time>
  <course>242.79</course>
  <speed>0.0</speed>
  <fix>3d</fix>
</trkpt>
<trkpt lat="40.0713749" lon="-105.229789">
  <ele>1583.0</ele>
  <time>2026-08-28T17:52:30Z</time>
  <course>0.0</course>
  <speed>0.0</speed>
  <fix>3d</fix>
</trkpt>
<trkpt lat="40.0713749" lon="-105.229789">
  <ele>1583.0</ele>
  <time>2026-08-28T17:52:30Z</time>
  <course>243.02</course>
  <speed>0.0</speed>
  <fix>3d</fix>
</trkpt>
<trkpt lat="40.0713749" lon="-105.229789">
  <ele>1583.0</ele>
  <time>2026-08-28T17:52:30Z</time>
  <course>0.0</course>
  <speed>0.0</speed>
  <fix>3d</fix>
</trkpt>
<trkpt lat="40.0713749" lon="-105.229789">
  <ele>1583.0</ele>
  <time>2026-08-28T17:52:30Z</time>
  <course>243.25</course>
  <speed>0.0</speed>
  <fix>3d</fix>
</trkpt>
<trkpt lat="40.0713749" lon="-105.229789">
  <ele>1583.0</ele>
  <time>2026-08-28T17:52:30Z</time>
  <course>0.0</course>
  <speed>0.0</speed>
  <fix>3d</fix>
</trkpt>
<trkpt lat="40.0713749" lon="-105.229789">
  <ele>1583.0</ele>
  <time>2026-08-28T17:52:30Z</time>
  <course>243.47</course>
  <speed>0.0</speed>
  <fix>3d</fix>
</trkpt>
<trkpt lat="40.0713749" lon="-105.229789">
  <ele>1583.0</ele>
  <time>2026-08-28T17:52:30Z</time>
  <course>0.0</course>
  <speed>0.0</speed>
  <fix>3d</fix>
</trkpt>
<trkpt lat="40.0713749" lon="-105.229789">
  <ele>1583.0</ele>
  <time>2026-08-28T17:52:30Z</time>
  <course>243.68</course>
  <speed>0.0</speed>
  <fix>3d</fix>
</trkpt>
<trkpt lat="40.0713749" lon="-105.229789">
  <ele>1583.0</ele>
  <time>2026-08-28T17:52:30Z</time>
  <course>0.0</course>
  <speed>0.0</speed>
  <fix>3d</fix>
</trkpt>
<trkpt lat="40.0713749" lon="-105.229789">
  <ele>1583.0</ele>
  <time>2026-08-28T17:52:30Z</time>
  <course>243.89</course>
  <speed>0.0</speed>
  <fix>3d</fix>
</trkpt>
<trkpt lat="40.0713749" lon="-105.229789">
  <ele>1583.0</ele>
  <time>2026-08-28T17:52:30Z</time>
  <course>0.0</course>
  <speed>0.0</speed>
  <fix>3d</fix>
</trkpt>
<trkpt lat="40.0713749" lon="-105.229789">
  <ele>1583.0</ele>
  <time>2026-08-28T17:52:30Z</time>
  <course>244.09</course>
  <speed>0.0</speed>
  <fix>3d</fix>
</trkpt>
<trkpt lat="40.0713749" lon="-105.229789">
  <ele>1583.0</ele>
  <time>2026-08-28T17:52:30Z</time>
  <course>0.0</course>
  <speed>0.0</speed>
  <fix>3d</fix>
</trkpt>
<trkpt lat="40.0713749" lon="-105.229789">
  <ele>1583.0</ele>
  <time>2026-08-28T17:52:30Z</time>
  <course>244.28</course>
  <speed>0.0</speed>
  <fix>3d</fix>
</trkpt>
<trkpt lat="40.0713749" lon="-105.229789">
  <ele>1583.0</ele>
  <time>2026-08-28T17:52:30Z</time>
  <course>0.0</course>
  <speed>0.0</speed>
  <fix>3d</fix>
</trkpt>
<trkpt lat="40.0713749" lon="-105.229789">
  <ele>1583.0</ele>
  <time>2026-08-28T17:52:30Z</time>
  <course>244.97</course>
  <speed>0.0</speed>
  <fix>3d</fix>
</trkpt>
<trkpt lat="40.0713749" lon="-105.229789">
  <ele>1583.0</ele>
  <time>2026-08-28T17:52:30Z</time>
  <course>0.0</course>
  <speed>0.0</speed>
  <fix>3d</fix>
</trkpt>
<trkpt lat="40.0713749" lon="-105.229789">
  <ele>1583.0</ele>
  <time>2026-08-28T17:52:30Z</time>
  <course>245.57</course>
  <speed>0.0</speed>
  <fix>3d</fix>
</trkpt>
<trkpt lat="40.0713749" lon="-105.229789">
  <ele>1583.0</ele>
  <time>2026-08-28T17:52:30Z</time>
  <course>0.0</course>
  <speed>0.0</speed>
  <fix>3d</fix>
</trkpt>
<trkpt lat="40.0713749" lon="-105.229789">
  <ele>1583.0</ele>
  <time>2026-08-28T17:52:30Z</time>
  <course>246.08</course>
  <speed>0.0</speed>
  <fix>3d</fix>
</trkpt>
<trkpt lat="40.0713749" lon="-105.229789">
  <ele>1583.0</ele>
  <time>2026-08-28T17:52:30Z</time>
  <course>0.0</course>
  <speed>0.0</speed>
  <fix>3d</fix>
</trkpt>
<trkpt lat="40.0713749" lon="-105.229789">
  <ele>1583.0</ele>
  <time>2026-08-28T17:52:30Z</time>
  <course>246.51</course>
  <speed>0.0</speed>
  <fix>3d</fix>
</trkpt>
<trkpt lat="40.0713749" lon="-105.229789">
  <ele>1583.0</ele>
  <time>2026-08-28T17:52:30Z</time>
  <course>0.0</course>
  <speed>0.0</speed>
  <fix>3d</fix>
</trkpt>
<trkpt lat="40.0713749" lon="-105.229789">
  <ele>1583.0</ele>
  <time>2026-08-28T17:52:30Z</time>
  <course>246.87</course>
  <speed>0.0</speed>
  <fix>3d</fix>
</trkpt>
<trkpt lat="40.0713749" lon="-105.229789">
  <ele>1583.0</ele>
  <time>2026-08-28T17:52:30Z</time>
  <course>0.0</course>
  <speed>0.0</speed>
  <fix>3d</fix>
</trkpt>
<trkpt lat="40.0713749" lon="-105.229789">
  <ele>1583.0</ele>
  <time>2026-08-28T17:52:30Z</time>
  <course>247.17</course>
  <speed>0.0</speed>
  <fix>3d</fix>
</trkpt>
<trkpt lat="40.0713749" lon="-105.229789">
  <ele>1583.0</ele>
  <time>2026-08-28T17:52:30Z</time>
  <course>0.0</course>
  <speed>0.0</speed>
  <fix>3d</fix>
</trkpt>
<trkpt lat="40.0713749" lon="-105.229789">
  <ele>1583.0</ele>
  <time>2026-08-28T17:52:30Z</time>
  <course>247.42</course>
  <speed>0.0</speed>
  <fix>3d</fix>
</trkpt>
<trkpt lat="40.0713749" lon="-105.229789">
  <ele>1583.0</ele>
  <time>2026-08-28T17:52:30Z</time>
  <course>0.0</course>
  <speed>0.0</speed>
  <fix>3d</fix>
</trkpt>
<trkpt lat="40.0713749" lon="-105.229789">
  <ele>1583.0</ele>
  <time>2026-08-28T17:52:30Z</time>
  <course>247.63</course>
  <speed>0.0</speed>
  <fix>3d</fix>
</trkpt>
<trkpt lat="40.0713749" lon="-105.229789">
  <ele>1583.0</ele>
  <time>2026-08-28T17:52:30Z</time>
  <course>0.0</course>
  <speed>0.0</speed>
  <fix>3d</fix>
</trkpt>
<trkpt lat="40.0713749" lon="-105.229789">
  <ele>1583.0</ele>
  <time>2026-08-28T17:52:30Z</time>
  <course>247.8</course>
  <speed>0.0</speed>
  <fix>3d</fix>
</trkpt>
<trkpt lat="40.0713749" lon="-105.229789">
  <ele>1583.0</ele>
  <time>2026-08-28T17:52:30Z</time>
  <course>0.0</course>
  <speed>0.0</speed>
  <fix>3d</fix>
</trkpt>
<trkpt lat="40.0713749" lon="-105.229789">
  <ele>1583.0</ele>
  <time>2026-08-28T17:52:30Z</time>
  <course>247.94</course>
  <speed>0.0</speed>
  <fix>3d</fix>
</trkpt>
<trkpt lat="40.0713749" lon="-105.229789">
  <ele>1583.0</ele>
  <time>2026-08-28T17:52:30Z</time>
  <course>0.0</course>
  <speed>0.0</speed>
  <fix>3d</fix>
</trkpt>
<trkpt lat="40.0713749" lon="-105.229789">
  <ele>1583.0</ele>
  <time>2026-08-28T17:52:30Z</time>
  <course>248.05</course>
  <speed>0.0</speed>
  <fix>3d</fix>
</trkpt>
<trkpt lat="40.0713749" lon="-105.229789">
  <ele>1583.0</ele>
  <time>2026-08-28T17:52:30Z</time>
  <course>0.0</course>
  <speed>0.0</speed>
  <fix>3d</fix>
</trkpt>
<trkpt lat="40.0713749" lon="-105.229789">
  <ele>1583.0</ele>
  <time>2026-08-28T17:52:30Z</time>
  <course>248.14</course>
  <speed>0.0</speed>
  <fix>3d</fix>
</trkpt>
<trkpt lat="40.0713749" lon="-105.229789">
  <ele>1583.0</ele>
  <time>2026-08-28T17:52:30Z</time>
  <course>0.0</course>
  <speed>0.0</speed>
  <fix>3d</fix>
</trkpt>
<trkpt lat="40.0713749" lon="-105.229789">
  <ele>1583.0</ele>
  <time>2026-08-28T17:52:30Z</time>
  <course>248.22</course>
  <speed>0.0</speed>
  <fix>3d</fix>
</trkpt>
<trkpt lat="40.0713749" lon="-105.229789">
  <ele>1583.0</ele>
  <time>2026-08-28T17:52:30Z</time>
  <course>0.0</course>
  <speed>0.0</speed>
  <fix>3d</fix>
</trkpt>
<trkpt lat="40.0713749" lon="-105.229789">
  <ele>1583.0</ele>
  <time>2026-08-28T17:52:30Z</time>
  <course>248.28</course>
  <speed>0.0</speed>
  <fix>3d</fix>
</trkpt>
<trkpt lat="40.0713749" lon="-105.229789">
  <ele>1583.0</ele>
  <time>2026-08-28T17:52:30Z</time>
  <course>0.0</course>
  <speed>0.0</speed>
  <fix>3d</fix>
</trkpt>
<trkpt lat="40.0713749" lon="-105.229789">
  <ele>1583.0</ele>
  <time>2026-08-28T17:52:30Z</time>
  <course>248.32</course>
  <speed>0.0</speed>
  <fix>3d</fix>
</trkpt>
<trkpt lat="40.0713749" lon="-105.229789">
  <ele>1583.0</ele>
  <time>2026-08-28T17:52:30Z</time>
  <course>0.0</course>
  <speed>0.0</speed>
  <fix>3d</fix>
</trkpt>
<trkpt lat="40.0713749" lon="-105.229789">
  <ele>1583.0</ele>
  <time>2026-08-28T17:52:30Z</time>
  <course>248.35</course>
  <speed>0.0</speed>
  <fix>3d</fix>
</trkpt>
<trkpt lat="40.0713749" lon="-105.229789">
  <ele>1583.0</ele>
  <time>2026-08-28T17:52:30Z</time>
  <course>0.0</course>
  <speed>0.0</speed>
  <fix>3d</fix>
</trkpt>
<trkpt lat="40.0713749" lon="-105.229789">
  <ele>1583.0</ele>
  <time>2026-08-28T17:52:31Z</time>
  <course>248.38</course>
  <speed>0.0</speed>
  <fix>3d</fix>
</trkpt>
<trkpt lat="40.0713749" lon="-105.229789">
  <ele>1583.0</ele>
  <time>2026-08-28T17:52:31Z</time>
  <course>0.0</course>
  <speed>0.0</speed>
  <fix>3d</fix>
</trkpt>
<trkpt lat="40.0713749" lon="-105.229789">
  <ele>1583.0</ele>
  <time>2026-08-28T17:52:31Z</time>
  <course>248.4</course>
  <speed>0.0</speed>
  <fix>3d</fix>
</trkpt>
<trkpt lat="40.0713749" lon="-105.229789">
  <ele>1583.0</ele>
  <time>2026-08-28T17:52:31Z</time>
  <course>0.0</course>
  <speed>0.0</speed>
  <fix>3d</fix>
</trkpt>
<trkpt lat="40.0713749" lon="-105.229789">
  <ele>1583.0</ele>
  <time>2026-08-28T17:52:31Z</time>
  <course>248.41</course>
  <speed>0.0</speed>
  <fix>3d</fix>
</trkpt>
<trkpt lat="40.0713749" lon="-105.229789">
  <ele>1583.0</ele>
  <time>2026-08-28T17:52:31Z</time>
  <course>0.0</course>
  <speed>0.0</speed>
  <fix>3d</fix>
</trkpt>
<trkpt lat="40.0713749" lon="-105.229789">
  <ele>1583.0</ele>
  <time>2026-08-28T17:52:31Z</time>
  <course>248.41</course>
  <speed>0.0</speed>
  <fix>3d</fix>
</trkpt>
<trkpt lat="40.0713749" lon="-105.229789">
  <ele>1583.0</ele>
  <time>2026-08-28T17:52:31Z</time>
  <course>0.0</course>
  <speed>0.0</speed>
  <fix>3d</fix>
</trkpt>
<trkpt lat="40.0713749" lon="-105.229789">
  <ele>1583.0</ele>
  <time>2026-08-28T17:52:31Z</time>
  <course>248.41</course>
  <speed>0.0</speed>
  <fix>3d</fix>
</trkpt>
<trkpt lat="40.0713749" lon="-105.229789">
  <ele>1583.0</ele>
  <time>2026-08-28T17:52:31Z</time>
  <course>0.0</course>
  <speed>0.0</speed>
  <fix>3d</fix>
</trkpt>
<trkpt lat="40.0713749" lon="-105.229789">
  <ele>1583.0</ele>
  <time>2026-08-28T17:52:31Z</time>
  <course>248.41</course>
  <speed>0.0</speed>
  <fix>3d</fix>
</trkpt>
<trkpt lat="40.0713749" lon="-105.229789">
  <ele>1583.0</ele>
  <time>2026-08-28T17:52:31Z</time>
  <course>0.0</course>
  <speed>0.0</speed>
  <fix>3d</fix>
</trkpt>
<trkpt lat="40.0713749" lon="-105.229789">
  <ele>1583.0</ele>
  <time>2026-08-28T17:52:31Z</time>
  <course>248.4</course>
  <speed>0.0</speed>
  <fix>3d</fix>
</trkpt>
<trkpt lat="40.0713749" lon="-105.229789">
  <ele>1583.0</ele>
  <time>2026-08-28T17:52:31Z</time>
  <course>0.0</course>
  <speed>0.0</speed>
  <fix>3d</fix>
</trkpt>
<trkpt lat="40.0713749" lon="-105.229789">
  <ele>1583.0</ele>
  <time>2026-08-28T17:52:31Z</time>
  <course>248.4</course>
  <speed>0.01</speed>
  <fix>3d</fix>
</trkpt>
<trkpt lat="40.0713749" lon="-105.229789">
  <ele>1583.0</ele>
  <time>2026-08-28T17:52:31Z</time>
  <course>0.0</course>
  <speed>0.0</speed>
  <fix>3d</fix>
</trkpt>
<trkpt lat="40.0713749" lon="-105.229789">
  <ele>1583.0</ele>
  <time>2026-08-28T17:52:31Z</time>
  <course>248.38</course>
  <speed>0.01</speed>
  <fix>3d</fix>
</trkpt>
<trkpt lat="40.0713749" lon="-105.229789">
  <ele>1583.0</ele>
  <time>2026-08-28T17:52:31Z</time>
  <course>0.0</course>
  <speed>0.0</speed>
  <fix>3d</fix>
</trkpt>
<trkpt lat="40.0713749" lon="-105.229789">
  <ele>1583.0</ele>
  <time>2026-08-28T17:52:31Z</time>
  <course>248.37</course>
  <speed>0.01</speed>
  <fix>3d</fix>
</trkpt>
<trkpt lat="40.0713749" lon="-105.229789">
  <ele>1583.0</ele>
  <time>2026-08-28T17:52:31Z</time>
  <course>0.0</course>
  <speed>0.0</speed>
  <fix>3d</fix>
</trkpt>
<trkpt lat="40.0713749" lon="-105.229789">
  <ele>1583.0</ele>
  <time>2026-08-28T17:52:31Z</time>
  <course>248.36</course>
  <speed>0.01</speed>
  <fix>3d</fix>
</trkpt>
<trkpt lat="40.0713749" lon="-105.229789">
  <ele>1583.0</ele>
  <time>2026-08-28T17:52:31Z</time>
  <course>0.0</course>
  <speed>0.0</speed>
  <fix>3d</fix>
</trkpt>
<trkpt lat="40.0713749" lon="-105.229789">
  <ele>1583.0</ele>
  <time>2026-08-28T17:52:31Z</time>
  <course>248.34</course>
  <speed>0.01</speed>
  <fix>3d</fix>
</trkpt>
<trkpt lat="40.0713749" lon="-105.229789">
  <ele>1583.0</ele>
  <time>2026-08-28T17:52:31Z</time>
  <course>0.0</course>
  <speed>0.0</speed>
  <fix>3d</fix>
</trkpt>
<trkpt lat="40.0713749" lon="-105.229789">
  <ele>1583.0</ele>
  <time>2026-08-28T17:52:31Z</time>
  <course>248.32</course>
  <speed>0.01</speed>
  <fix>3d</fix>
</trkpt>
<trkpt lat="40.0713749" lon="-105.229789">
  <ele>1583.0</ele>
  <time>2026-08-28T17:52:31Z</time>
  <course>0.0</course>
  <speed>0.0</speed>
  <fix>3d</fix>
</trkpt>
<trkpt lat="40.0713749" lon="-105.229789">
  <ele>1583.0</ele>
  <time>2026-08-28T17:52:31Z</time>
  <course>248.31</course>
  <speed>0.01</speed>
  <fix>3d</fix>
</trkpt>
<trkpt lat="40.0713749" lon="-105.229789">
  <ele>1583.0</ele>
  <time>2026-08-28T17:52:31Z</time>
  <course>0.0</course>
  <speed>0.0</speed>
  <fix>3d</fix>
</trkpt>
<trkpt lat="40.0713749" lon="-105.229789">
  <ele>1583.0</ele>
  <time>2026-08-28T17:52:31Z</time>
  <course>248.29</course>
  <speed>0.01</speed>
  <fix>3d</fix>
</trkpt>
<trkpt lat="40.0713749" lon="-105.229789">
  <ele>1583.0</ele>
  <time>2026-08-28T17:52:31Z</time>
  <course>0.0</course>
  <speed>0.0</speed>
  <fix>3d</fix>
</trkpt>
<trkpt lat="40.0713749" lon="-105.229789">
  <ele>1583.0</ele>
  <time>2026-08-28T17:52:31Z</time>
  <course>248.27</course>
  <speed>0.01</speed>
  <fix>3d</fix>
</trkpt>
<trkpt lat="40.0713749" lon="-105.229789">
  <ele>1583.0</ele>
  <time>2026-08-28T17:52:31Z</time>
  <course>0.0</course>
  <speed>0.0</speed>
  <fix>3d</fix>
</trkpt>
<trkpt lat="40.0713749" lon="-105.229789">
  <ele>1583.0</ele>
  <time>2026-08-28T17:52:31Z</time>
  <course>248.25</course>
  <speed>0.01</speed>
  <fix>3d</fix>
</trkpt>
<trkpt lat="40.0713749" lon="-105.229789">
  <ele>1583.0</ele>
  <time>2026-08-28T17:52:31Z</time>
  <course>0.0</course>
  <speed>0.0</speed>
  <fix>3d</fix>
</trkpt>
<trkpt lat="40.0713749" lon="-105.229789">
  <ele>1583.0</ele>
  <time>2026-08-28T17:52:31Z</time>
  <course>248.23</course>
  <speed>0.01</speed>
  <fix>3d</fix>
</trkpt>
<trkpt lat="40.0713749" lon="-105.229789">
  <ele>1583.0</ele>
  <time>2026-08-28T17:52:31Z</time>
  <course>0.0</course>
  <speed>0.0</speed>
  <fix>3d</fix>
</trkpt>
<trkpt lat="40.0713749" lon="-105.229789">
  <ele>1583.0</ele>
  <time>2026-08-28T17:52:31Z</time>
  <course>248.21</course>
  <speed>0.01</speed>
  <fix>3d</fix>
</trkpt>
<trkpt lat="40.0713749" lon="-105.229789">
  <ele>1583.0</ele>
  <time>2026-08-28T17:52:31Z</time>
  <course>0.0</course>
  <speed>0.0</speed>
  <fix>3d</fix>
</trkpt>
<trkpt lat="40.0713749" lon="-105.229789">
  <ele>1583.0</ele>
  <time>2026-08-28T17:52:31Z</time>
  <course>248.19</course>
  <speed>0.01</speed>
  <fix>3d</fix>
</trkpt>
<trkpt lat="40.0713749" lon="-105.229789">
  <ele>1583.0</ele>
  <time>2026-08-28T17:52:31Z</time>
  <course>0.0</course>
  <speed>0.0</speed>
  <fix>3d</fix>
</trkpt>
<trkpt lat="40.0713749" lon="-105.229789">
  <ele>1583.0</ele>
  <time>2026-08-28T17:52:31Z</time>
  <course>248.17</course>
  <speed>0.022360679774997897</speed>
  <fix>3d</fix>
</trkpt>
<trkpt lat="40.0713749" lon="-105.229789">
  <ele>1583.0</ele>
  <time>2026-08-28T17:52:31Z</time>
  <course>0.0</course>
  <speed>0.0</speed>
  <fix>3d</fix>
</trkpt>
<trkpt lat="40.0713749" lon="-105.229789">
  <ele>1583.0</ele>
  <time>2026-08-28T17:52:31Z</time>
  <course>248.15</course>
  <speed>0.022360679774997897</speed>
  <fix>3d</fix>
</trkpt>
<trkpt lat="40.0713749" lon="-105.229789">
  <ele>1583.0</ele>
  <time>2026-08-28T17:52:31Z</time>
  <course>0.0</course>
  <speed>0.0</speed>
  <fix>3d</fix>
</trkpt>
<trkpt lat="40.0713749" lon="-105.229789">
  <ele>1583.0</ele>
  <time>2026-08-28T17:52:31Z</time>
  <course>248.13</course>
  <speed>0.022360679774997897</speed>
  <fix>3d</fix>
</trkpt>
<trkpt lat="40.0713749" lon="-105.229789">
  <ele>1583.0</ele>
  <time>2026-08-28T17:52:31Z</time>
  <course>0.0</course>
  <speed>0.0</speed>
  <fix>3d</fix>
</trkpt>
<trkpt lat="40.0713749" lon="-105.229789">
  <ele>1583.0</ele>
  <time>2026-08-28T17:52:31Z</time>
  <course>248.11</course>
  <speed>0.022360679774997897</speed>
  <fix>3d</fix>
</trkpt>
<trkpt lat="40.0713749" lon="-105.229789">
  <ele>1583.0</ele>
  <time>2026-08-28T17:52:31Z</time>
  <course>0.0</course>
  <speed>0.0</speed>
  <fix>3d</fix>
</trkpt>
<trkpt lat="40.0713749" lon="-105.229789">
  <ele>1583.0</ele>
  <time>2026-08-28T17:52:31Z</time>
  <course>248.09</course>
  <speed>0.022360679774997897</speed>
  <fix>3d</fix>
</trkpt>
<trkpt lat="40.0713749" lon="-105.229789">
  <ele>1583.0</ele>
  <time>2026-08-28T17:52:31Z</time>
  <course>0.0</course>
  <speed>0.0</speed>
  <fix>3d</fix>
</trkpt>
<trkpt lat="40.0713749" lon="-105.229789">
  <ele>1583.0</ele>
  <time>2026-08-28T17:52:31Z</time>
  <course>248.08</course>
  <speed>0.022360679774997897</speed>
  <fix>3d</fix>
</trkpt>
<trkpt lat="40.0713749" lon="-105.229789">
  <ele>1583.0</ele>
  <time>2026-08-28T17:52:31Z</time>
  <course>0.0</course>
  <speed>0.0</speed>
  <fix>3d</fix>
</trkpt>
<trkpt lat="40.0713749" lon="-105.229789">
  <ele>1583.0</ele>
  <time>2026-08-28T17:52:31Z</time>
  <course>248.07</course>
  <speed>0.022360679774997897</speed>
  <fix>3d</fix>
</trkpt>
<trkpt lat="40.0713749" lon="-105.229789">
  <ele>1583.0</ele>
  <time>2026-08-28T17:52:31Z</time>
  <course>0.0</course>
  <speed>0.0</speed>
  <fix>3d</fix>
</trkpt>
<trkpt lat="40.0713749" lon="-105.229789">
  <ele>1583.0</ele>
  <time>2026-08-28T17:52:31Z</time>
  <course>248.07</course>
  <speed>0.022360679774997897</speed>
  <fix>3d</fix>
</trkpt>
<trkpt lat="40.0713749" lon="-105.229789">
  <ele>1583.0</ele>
  <time>2026-08-28T17:52:31Z</time>
  <course>0.0</course>
  <speed>0.0</speed>
  <fix>3d</fix>
</trkpt>
<trkpt lat="40.0713749" lon="-105.229789">
  <ele>1583.0</ele>
  <time>2026-08-28T17:52:31Z</time>
  <course>248.06</course>
  <speed>0.022360679774997897</speed>
  <fix>3d</fix>
</trkpt>
<trkpt lat="40.0713749" lon="-105.229789">
  <ele>1583.0</ele>
  <time>2026-08-28T17:52:31Z</time>
  <course>0.0</course>
  <speed>0.0</speed>
  <fix>3d</fix>
</trkpt>
<trkpt lat="40.0713749" lon="-105.229789">
  <ele>1583.0</ele>
  <time>2026-08-28T17:52:31Z</time>
  <course>248.06</course>
  <speed>0.022360679774997897</speed>
  <fix>3d</fix>
</trkpt>
<trkpt lat="40.0713749" lon="-105.229789">
  <ele>1583.0</ele>
  <time>2026-08-28T17:52:31Z</time>
  <course>0.0</course>
  <speed>0.0</speed>
  <fix>3d</fix>
</trkpt>
<trkpt lat="40.0713749" lon="-105.229789">
  <ele>1583.0</ele>
  <time>2026-08-28T17:52:31Z</time>
  <course>248.05</course>
  <speed>0.022360679774997897</speed>
  <fix>3d</fix>
</trkpt>
<trkpt lat="40.0713749" lon="-105.229789">
  <ele>1583.0</ele>
  <time>2026-08-28T17:52:31Z</time>
  <course>0.0</course>
  <speed>0.0</speed>
  <fix>3d</fix>
</trkpt>
<trkpt lat="40.0713749" lon="-105.229789">
  <ele>1583.0</ele>
  <time>2026-08-28T17:52:31Z</time>
  <course>248.05</course>
  <speed>0.022360679774997897</speed>
  <fix>3d</fix>
</trkpt>
<trkpt lat="40.0713749" lon="-105.229789">
  <ele>1583.0</ele>
  <time>2026-08-28T17:52:31Z</time>
  <course>0.0</course>
  <speed>0.0</speed>
  <fix>3d</fix>
</trkpt>
<trkpt lat="40.0713749" lon="-105.229789">
  <ele>1583.0</ele>
  <time>2026-08-28T17:52:31Z</time>
  <course>248.05</course>
  <speed>0.022360679774997897</speed>
  <fix>3d</fix>
</trkpt>
<trkpt lat="40.0713749" lon="-105.229789">
  <ele>1583.0</ele>
  <time>2026-08-28T17:52:31Z</time>
  <course>0.0</course>
  <speed>0.0</speed>
  <fix>3d</fix>
</trkpt>
<trkpt lat="40.0713749" lon="-105.229789">
  <ele>1583.0</ele>
  <time>2026-08-28T17:52:31Z</time>
  <course>248.04</course>
  <speed>0.022360679774997897</speed>
  <fix>3d</fix>
</trkpt>
<trkpt lat="40.0713749" lon="-105.229789">
  <ele>1583.0</ele>
  <time>2026-08-28T17:52:31Z</time>
  <course>0.0</course>
  <speed>0.0</speed>
  <fix>3d</fix>
</trkpt>
<trkpt lat="40.0713749" lon="-105.229789">
  <ele>1583.0</ele>
  <time>2026-08-28T17:52:31Z</time>
  <course>248.04</course>
  <speed>0.022360679774997897</speed>
  <fix>3d</fix>
</trkpt>
<trkpt lat="40.0713749" lon="-105.229789">
  <ele>1583.0</ele>
  <time>2026-08-28T17:52:31Z</time>
  <course>0.0</course>
  <speed>0.0</speed>
  <fix>3d</fix>
</trkpt>
<trkpt lat="40.0713749" lon="-105.229789">
  <ele>1583.0</ele>
  <time>2026-08-28T17:52:31Z</time>
  <course>248.03</course>
  <speed>0.022360679774997897</speed>
  <fix>3d</fix>
</trkpt>
<trkpt lat="40.0713749" lon="-105.229789">
  <ele>1583.0</ele>
  <time>2026-08-28T17:52:31Z</time>
  <course>0.0</course>
  <speed>0.0</speed>
  <fix>3d</fix>
</trkpt>
<trkpt lat="40.0713749" lon="-105.229789">
  <ele>1583.0</ele>
  <time>2026-08-28T17:52:31Z</time>
  <course>248.03</course>
  <speed>0.022360679774997897</speed>
  <fix>3d</fix>
</trkpt>
<trkpt lat="40.0713749" lon="-105.229789">
  <ele>1583.0</ele>
  <time>2026-08-28T17:52:31Z</time>
  <course>0.0</course>
  <speed>0.0</speed>
  <fix>3d</fix>
</trkpt>
<trkpt lat="40.0713749" lon="-105.229789">
  <ele>1583.0</ele>
  <time>2026-08-28T17:52:31Z</time>
  <course>248.02</course>
  <speed>0.022360679774997897</speed>
  <fix>3d</fix>
</trkpt>
<trkpt lat="40.0713749" lon="-105.229789">
  <ele>1583.0</ele>
  <time>2026-08-28T17:52:31Z</time>
  <course>0.0</course>
  <speed>0.0</speed>
  <fix>3d</fix>
</trkpt>
<trkpt lat="40.0713749" lon="-105.229789">
  <ele>1583.0</ele>
  <time>2026-08-28T17:52:31Z</time>
  <course>248.02</course>
  <speed>0.022360679774997897</speed>
  <fix>3d</fix>
</trkpt>
<trkpt lat="40.0713749" lon="-105.229789">
  <ele>1583.0</ele>
  <time>2026-08-28T17:52:31Z</time>
  <course>0.0</course>
  <speed>0.0</speed>
  <fix>3d</fix>
</trkpt>
<trkpt lat="40.0713749" lon="-105.229789">
  <ele>1583.0</ele>
  <time>2026-08-28T17:52:31Z</time>
  <course>248.01</course>
  <speed>0.022360679774997897</speed>
  <fix>3d</fix>
</trkpt>
<trkpt lat="40.0713749" lon="-105.229789">
  <ele>1583.0</ele>
  <time>2026-08-28T17:52:31Z</time>
  <course>0.0</course>
  <speed>0.0</speed>
  <fix>3d</fix>
</trkpt>
<trkpt lat="40.0713749" lon="-105.229789">
  <ele>1583.0</ele>
  <time>2026-08-28T17:52:31Z</time>
  <course>248.01</course>
  <speed>0.022360679774997897</speed>
  <fix>3d</fix>
</trkpt>
<trkpt lat="40.0713749" lon="-105.229789">
  <ele>1583.0</ele>
  <time>2026-08-28T17:52:31Z</time>
  <course>0.0</course>
  <speed>0.0</speed>
  <fix>3d</fix>
</trkpt>
<trkpt lat="40.0713749" lon="-105.229789">
  <ele>1583.0</ele>
  <time>2026-08-28T17:52:31Z</time>
  <course>248.0</course>
  <speed>0.022360679774997897</speed>
  <fix>3d</fix>
</trkpt>
<trkpt lat="40.0713749" lon="-105.229789">
  <ele>1583.0</ele>
  <time>2026-08-28T17:52:31Z</time>
  <course>0.0</course>
  <speed>0.0</speed>
  <fix>3d</fix>
</trkpt>
<trkpt lat="40.0713749" lon="-105.229789">
  <ele>1583.0</ele>
  <time>2026-08-28T17:52:31Z</time>
  <course>248.0</course>
  <speed>0.022360679774997897</speed>
  <fix>3d</fix>
</trkpt>
<trkpt lat="40.0713749" lon="-105.229789">
  <ele>1583.0</ele>
  <time>2026-08-28T17:52:31Z</time>
  <course>0.0</course>
  <speed>0.0</speed>
  <fix>3d</fix>
</trkpt>
<trkpt lat="40.0713749" lon="-105.229789">
  <ele>1583.0</ele>
  <time>2026-08-28T17:52:31Z</time>
  <course>247.99</course>
  <speed>0.022360679774997897</speed>
  <fix>3d</fix>
</trkpt>
<trkpt lat="40.0713749" lon="-105.229789">
  <ele>1583.0</ele>
  <time>2026-08-28T17:52:31Z</time>
  <course>0.0</course>
  <speed>0.0</speed>
  <fix>3d</fix>
</trkpt>
<trkpt lat="40.0713749" lon="-105.229789">
  <ele>1583.0</ele>
  <time>2026-08-28T17:52:31Z</time>
  <course>247.99</course>
  <speed>0.022360679774997897</speed>
  <fix>3d</fix>
</trkpt>
<trkpt lat="40.0713749" lon="-105.229789">
  <ele>1583.0</ele>
  <time>2026-08-28T17:52:31Z</time>
  <course>0.0</course>
  <speed>0.0</speed>
  <fix>3d</fix>
</trkpt>
<trkpt lat="40.0713749" lon="-105.229789">
  <ele>1583.0</ele>
  <time>2026-08-28T17:52:31Z</time>
  <course>247.99</course>
  <speed>0.022360679774997897</speed>
  <fix>3d</fix>
</trkpt>
<trkpt lat="40.0713749" lon="-105.229789">
  <ele>1583.0</ele>
  <time>2026-08-28T17:52:31Z</time>
  <course>0.0</course>
  <speed>0.0</speed>
  <fix>3d</fix>
</trkpt>
<trkpt lat="40.0713749" lon="-105.229789">
  <ele>1583.0</ele>
  <time>2026-08-28T17:52:31Z</time>
  <course>247.98</course>
  <speed>0.022360679774997897</speed>
  <fix>3d</fix>
</trkpt>
<trkpt lat="40.0713749" lon="-105.229789">
  <ele>1583.0</ele>
  <time>2026-08-28T17:52:31Z</time>
  <course>0.0</course>
  <speed>0.0</speed>
  <fix>3d</fix>
</trkpt>
<trkpt lat="40.0713749" lon="-105.229789">
  <ele>1583.0</ele>
  <time>2026-08-28T17:52:31Z</time>
  <course>247.98</course>
  <speed>0.022360679774997897</speed>
  <fix>3d</fix>
</trkpt>
<trkpt lat="40.0713749" lon="-105.229789">
  <ele>1583.0</ele>
  <time>2026-08-28T17:52:31Z</time>
  <course>0.0</course>
  <speed>0.0</speed>
  <fix>3d</fix>
</trkpt>
<trkpt lat="40.0713749" lon="-105.229789">
  <ele>1583.0</ele>
  <time>2026-08-28T17:52:31Z</time>
  <course>247.97</course>
  <speed>0.022360679774997897</speed>
  <fix>3d</fix>
</trkpt>
<trkpt lat="40.0713749" lon="-105.229789">
  <ele>1583.0</ele>
  <time>2026-08-28T17:52:31Z</time>
  <course>0.0</course>
  <speed>0.0</speed>
  <fix>3d</fix>
</trkpt>
<trkpt lat="40.0713749" lon="-105.229789">
  <ele>1583.0</ele>
  <time>2026-08-28T17:52:31Z</time>
  <course>247.97</course>
  <speed>0.022360679774997897</speed>
  <fix>3d</fix>
</trkpt>
<trkpt lat="40.0713749" lon="-105.229789">
  <ele>1583.0</ele>
  <time>2026-08-28T17:52:31Z</time>
  <course>0.0</course>
  <speed>0.0</speed>
  <fix>3d</fix>
</trkpt>
<trkpt lat="40.0713749" lon="-105.229789">
  <ele>1583.0</ele>
  <time>2026-08-28T17:52:31Z</time>
  <course>247.96</course>
  <speed>0.022360679774997897</speed>
  <fix>3d</fix>
</trkpt>
<trkpt lat="40.0713749" lon="-105.229789">
  <ele>1583.0</ele>
  <time>2026-08-28T17:52:31Z</time>
  <course>0.0</course>
  <speed>0.0</speed>
  <fix>3d</fix>
</trkpt>
<trkpt lat="40.0713749" lon="-105.229789">
  <ele>1583.0</ele>
  <time>2026-08-28T17:52:31Z</time>
  <course>247.96</course>
  <speed>0.022360679774997897</speed>
  <fix>3d</fix>
</trkpt>
<trkpt lat="40.0713749" lon="-105.229789">
  <ele>1583.0</ele>
  <time>2026-08-28T17:52:31Z</time>
  <course>0.0</course>
  <speed>0.0</speed>
  <fix>3d</fix>
</trkpt>
<trkpt lat="40.0713749" lon="-105.229789">
  <ele>1583.0</ele>
  <time>2026-08-28T17:52:31Z</time>
  <course>247.95</course>
  <speed>0.022360679774997897</speed>
  <fix>3d</fix>
</trkpt>
<trkpt lat="40.0713749" lon="-105.229789">
  <ele>1583.0</ele>
  <time>2026-08-28T17:52:31Z</time>
  <course>0.0</course>
  <speed>0.0</speed>
  <fix>3d</fix>
</trkpt>
<trkpt lat="40.0713749" lon="-105.229789">
  <ele>1583.0</ele>
  <time>2026-08-28T17:52:31Z</time>
  <course>247.95</course>
  <speed>0.022360679774997897</speed>
  <fix>3d</fix>
</trkpt>
<trkpt lat="40.0713749" lon="-105.229789">
  <ele>1583.0</ele>
  <time>2026-08-28T17:52:31Z</time>
  <course>0.0</course>
  <speed>0.0</speed>
  <fix>3d</fix>
</trkpt>
<trkpt lat="40.0713749" lon="-105.229789">
  <ele>1583.0</ele>
  <time>2026-08-28T17:52:31Z</time>
  <course>247.95</course>
  <speed>0.022360679774997897</speed>
  <fix>3d</fix>
</trkpt>
<trkpt lat="40.0713749" lon="-105.229789">
  <ele>1583.0</ele>
  <time>2026-08-28T17:52:31Z</time>
  <course>0.0</course>
  <speed>0.0</speed>
  <fix>3d</fix>
</trkpt>
<trkpt lat="40.0713749" lon="-105.229789">
  <ele>1583.0</ele>
  <time>2026-08-28T17:52:31Z</time>
  <course>247.94</course>
  <speed>0.022360679774997897</speed>
  <fix>3d</fix>
</trkpt>
<trkpt lat="40.0713749" lon="-105.229789">
  <ele>1583.0</ele>
  <time>2026-08-28T17:52:31Z</time>
  <course>0.0</course>
  <speed>0.0</speed>
  <fix>3d</fix>
</trkpt>
<trkpt lat="40.0713749" lon="-105.229789">
  <ele>1583.0</ele>
  <time>2026-08-28T17:52:31Z</time>
  <course>247.94</course>
  <speed>0.022360679774997897</speed>
  <fix>3d</fix>
</trkpt>
<trkpt lat="40.0713749" lon="-105.229789">
  <ele>1583.0</ele>
  <time>2026-08-28T17:52:31Z</time>
  <course>0.0</course>
  <speed>0.0</speed>
  <fix>3d</fix>
</trkpt>
<trkpt lat="40.0713749" lon="-105.229789">
  <ele>1583.0</ele>
  <time>2026-08-28T17:52:31Z</time>
  <course>247.93</course>
  <speed>0.022360679774997897</speed>
  <fix>3d</fix>
</trkpt>
<trkpt lat="40.0713749" lon="-105.229789">
  <ele>1583.0</ele>
  <time>2026-08-28T17:52:31Z</time>
  <course>0.0</course>
  <speed>0.0</speed>
  <fix>3d</fix>
</trkpt>
<trkpt lat="40.0713749" lon="-105.229789">
  <ele>1583.0</ele>
  <time>2026-08-28T17:52:31Z</time>
  <course>247.93</course>
  <speed>0.022360679774997897</speed>
  <fix>3d</fix>
</trkpt>
<trkpt lat="40.0713749" lon="-105.229789">
  <ele>1583.0</ele>
  <time>2026-08-28T17:52:31Z</time>
  <course>0.0</course>
  <speed>0.0</speed>
  <fix>3d</fix>
</trkpt>
<trkpt lat="40.0713749" lon="-105.229789">
  <ele>1583.0</ele>
  <time>2026-08-28T17:52:31Z</time>
  <course>247.92</course>
  <speed>0.022360679774997897</speed>
  <fix>3d</fix>
</trkpt>
<trkpt lat="40.0713749" lon="-105.229789">
  <ele>1583.0</ele>
  <time>2026-08-28T17:52:31Z</time>
  <course>0.0</course>
  <speed>0.0</speed>
  <fix>3d</fix>
</trkpt>
<trkpt lat="40.0713749" lon="-105.229789">
  <ele>1583.0</ele>
  <time>2026-08-28T17:52:31Z</time>
  <course>247.92</course>
  <speed>0.022360679774997897</speed>
  <fix>3d</fix>
</trkpt>
<trkpt lat="40.0713749" lon="-105.229789">
  <ele>1583.0</ele>
  <time>2026-08-28T17:52:31Z</time>
  <course>0.0</course>
  <speed>0.0</speed>
  <fix>3d</fix>
</trkpt>
<trkpt lat="40.0713749" lon="-105.229789">
  <ele>1583.0</ele>
  <time>2026-08-28T17:52:31Z</time>
  <course>247.92</course>
  <speed>0.022360679774997897</speed>
  <fix>3d</fix>
</trkpt>
<trkpt lat="40.0713749" lon="-105.229789">
  <ele>1583.0</ele>
  <time>2026-08-28T17:52:31Z</time>
  <course>0.0</course>
  <speed>0.0</speed>
  <fix>3d</fix>
</trkpt>
<trkpt lat="40.0713749" lon="-105.229789">
  <ele>1583.0</ele>
  <time>2026-08-28T17:52:31Z</time>
  <course>247.91</course>
  <speed>0.022360679774997897</speed>
  <fix>3d</fix>
</trkpt>
<trkpt lat="40.0713749" lon="-105.229789">
  <ele>1583.0</ele>
  <time>2026-08-28T17:52:31Z</time>
  <course>0.0</course>
  <speed>0.0</speed>
  <fix>3d</fix>
</trkpt>
<trkpt lat="40.0713749" lon="-105.229789">
  <ele>1583.0</ele>
  <time>2026-08-28T17:52:31Z</time>
  <course>247.91</course>
  <speed>0.022360679774997897</speed>
  <fix>3d</fix>
</trkpt>
<trkpt lat="40.0713749" lon="-105.229789">
  <ele>1583.0</ele>
  <time>2026-08-28T17:52:31Z</time>
  <course>0.0</course>
  <speed>0.0</speed>
  <fix>3d</fix>
</trkpt>
<trkpt lat="40.0713749" lon="-105.229789">
  <ele>1583.0</ele>
  <time>2026-08-28T17:52:31Z</time>
  <course>247.9</course>
  <speed>0.022360679774997897</speed>
  <fix>3d</fix>
</trkpt>
<trkpt lat="40.0713749" lon="-105.229789">
  <ele>1583.0</ele>
  <time>2026-08-28T17:52:31Z</time>
  <course>0.0</course>
  <speed>0.0</speed>
  <fix>3d</fix>
</trkpt>
<trkpt lat="40.0713749" lon="-105.229789">
  <ele>1583.0</ele>
  <time>2026-08-28T17:52:31Z</time>
  <course>247.9</course>
  <speed>0.022360679774997897</speed>
  <fix>3d</fix>
</trkpt>
<trkpt lat="40.0713749" lon="-105.229789">
  <ele>1583.0</ele>
  <time>2026-08-28T17:52:31Z</time>
  <course>0.0</course>
  <speed>0.0</speed>
  <fix>3d</fix>
</trkpt>
<trkpt lat="40.0713749" lon="-105.229789">
  <ele>1583.0</ele>
  <time>2026-08-28T17:52:31Z</time>
  <course>247.89</course>
  <speed>0.022360679774997897</speed>
  <fix>3d</fix>
</trkpt>
<trkpt lat="40.0713749" lon="-105.229789">
  <ele>1583.0</ele>
  <time>2026-08-28T17:52:31Z</time>
  <course>0.0</course>
  <speed>0.0</speed>
  <fix>3d</fix>
</trkpt>
<trkpt lat="40.0713749" lon="-105.229789">
  <ele>1583.0</ele>
  <time>2026-08-28T17:52:31Z</time>
  <course>247.89</course>
  <speed>0.022360679774997897</speed>
  <fix>3d</fix>
</trkpt>
<trkpt lat="40.0713749" lon="-105.229789">
  <ele>1583.0</ele>
  <time>2026-08-28T17:52:31Z</time>
  <course>0.0</course>
  <speed>0.0</speed>
  <fix>3d</fix>
</trkpt>
<trkpt lat="40.0713749" lon="-105.229789">
  <ele>1583.0</ele>
  <time>2026-08-28T17:52:31Z</time>
  <course>247.89</course>
  <speed>0.022360679774997897</speed>
  <fix>3d</fix>
</trkpt>
<trkpt lat="40.0713749" lon="-105.229789">
  <ele>1583.0</ele>
  <time>2026-08-28T17:52:31Z</time>
  <course>0.0</course>
  <speed>0.0</speed>
  <fix>3d</fix>
</trkpt>
<trkpt lat="40.0713749" lon="-105.229789">
  <ele>1583.0</ele>
  <time>2026-08-28T17:52:31Z</time>
  <course>247.88</course>
  <speed>0.0316227766016838</speed>
  <fix>3d</fix>
</trkpt>
<trkpt lat="40.0713749" lon="-105.229789">
  <ele>1583.0</ele>
  <time>2026-08-28T17:52:31Z</time>
  <course>0.0</course>
  <speed>0.0</speed>
  <fix>3d</fix>
</trkpt>
<trkpt lat="40.0713749" lon="-105.229789">
  <ele>1583.0</ele>
  <time>2026-08-28T17:52:31Z</time>
  <course>247.88</course>
  <speed>0.0316227766016838</speed>
  <fix>3d</fix>
</trkpt>
<trkpt lat="40.0713749" lon="-105.229789">
  <ele>1583.0</ele>
  <time>2026-08-28T17:52:31Z</time>
  <course>0.0</course>
  <speed>0.0</speed>
  <fix>3d</fix>
</trkpt>
<trkpt lat="40.0713749" lon="-105.229789">
  <ele>1583.0</ele>
  <time>2026-08-28T17:52:31Z</time>
  <course>247.87</course>
  <speed>0.0316227766016838</speed>
  <fix>3d</fix>
</trkpt>
<trkpt lat="40.0713749" lon="-105.229789">
  <ele>1583.0</ele>
  <time>2026-08-28T17:52:31Z</time>
  <course>0.0</course>
  <speed>0.0</speed>
  <fix>3d</fix>
</trkpt>
<trkpt lat="40.0713749" lon="-105.229789">
  <ele>1583.0</ele>
  <time>2026-08-28T17:52:31Z</time>
  <course>247.87</course>
  <speed>0.0316227766016838</speed>
  <fix>3d</fix>
</trkpt>
<trkpt lat="40.0713749" lon="-105.229789">
  <ele>1583.0</ele>
  <time>2026-08-28T17:52:31Z</time>
  <course>0.0</course>
  <speed>0.0</speed>
  <fix>3d</fix>
</trkpt>
<trkpt lat="40.0713749" lon="-105.229789">
  <ele>1583.0</ele>
  <time>2026-08-28T17:52:31Z</time>
  <course>247.87</course>
  <speed>0.0316227766016838</speed>
  <fix>3d</fix>
</trkpt>
<trkpt lat="40.0713749" lon="-105.229789">
  <ele>1583.0</ele>
  <time>2026-08-28T17:52:31Z</time>
  <course>0.0</course>
  <speed>0.0</speed>
  <fix>3d</fix>
</trkpt>
<trkpt lat="40.0713749" lon="-105.229789">
  <ele>1583.0</ele>
  <time>2026-08-28T17:52:31Z</time>
  <course>247.86</course>
  <speed>0.0316227766016838</speed>
  <fix>3d</fix>
</trkpt>
<trkpt lat="40.0713749" lon="-105.229789">
  <ele>1583.0</ele>
  <time>2026-08-28T17:52:31Z</time>
  <course>0.0</course>
  <speed>0.0</speed>
  <fix>3d</fix>
</trkpt>
<trkpt lat="40.0713749" lon="-105.229789">
  <ele>1583.0</ele>
  <time>2026-08-28T17:52:31Z</time>
  <course>247.86</course>
  <speed>0.0316227766016838</speed>
  <fix>3d</fix>
</trkpt>
<trkpt lat="40.0713749" lon="-105.229789">
  <ele>1583.0</ele>
  <time>2026-08-28T17:52:31Z</time>
  <course>0.0</course>
  <speed>0.0</speed>
  <fix>3d</fix>
</trkpt>
<trkpt lat="40.0713749" lon="-105.229789">
  <ele>1583.0</ele>
  <time>2026-08-28T17:52:31Z</time>
  <course>247.85</course>
  <speed>0.0316227766016838</speed>
  <fix>3d</fix>
</trkpt>
<trkpt lat="40.0713749" lon="-105.229789">
  <ele>1583.0</ele>
  <time>2026-08-28T17:52:31Z</time>
  <course>0.0</course>
  <speed>0.0</speed>
  <fix>3d</fix>
</trkpt>
<trkpt lat="40.0713749" lon="-105.229789">
  <ele>1583.0</ele>
  <time>2026-08-28T17:52:31Z</time>
  <course>247.85</course>
  <speed>0.0316227766016838</speed>
  <fix>3d</fix>
</trkpt>
<trkpt lat="40.0713749" lon="-105.229789">
  <ele>1583.0</ele>
  <time>2026-08-28T17:52:31Z</time>
  <course>0.0</course>
  <speed>0.0</speed>
  <fix>3d</fix>
</trkpt>
<trkpt lat="40.0713749" lon="-105.229789">
  <ele>1583.0</ele>
  <time>2026-08-28T17:52:31Z</time>
  <course>247.85</course>
  <speed>0.0316227766016838</speed>
  <fix>3d</fix>
</trkpt>
<trkpt lat="40.0713749" lon="-105.229789">
  <ele>1583.0</ele>
  <time>2026-08-28T17:52:31Z</time>
  <course>0.0</course>
  <speed>0.0</speed>
  <fix>3d</fix>
</trkpt>
<trkpt lat="40.0713749" lon="-105.229789">
  <ele>1583.0</ele>
  <time>2026-08-28T17:52:31Z</time>
  <course>247.84</course>
  <speed>0.0316227766016838</speed>
  <fix>3d</fix>
</trkpt>
<trkpt lat="40.0713749" lon="-105.229789">
  <ele>1583.0</ele>
  <time>2026-08-28T17:52:31Z</time>
  <course>0.0</course>
  <speed>0.0</speed>
  <fix>3d</fix>
</trkpt>
<trkpt lat="40.0713749" lon="-105.229789">
  <ele>1583.0</ele>
  <time>2026-08-28T17:52:31Z</time>
  <course>247.84</course>
  <speed>0.0316227766016838</speed>
  <fix>3d</fix>
</trkpt>
<trkpt lat="40.0713749" lon="-105.229789">
  <ele>1583.0</ele>
  <time>2026-08-28T17:52:31Z</time>
  <course>0.0</course>
  <speed>0.0</speed>
  <fix>3d</fix>
</trkpt>
<trkpt lat="40.0713749" lon="-105.229789">
  <ele>1583.0</ele>
  <time>2026-08-28T17:52:31Z</time>
  <course>247.83</course>
  <speed>0.0316227766016838</speed>
  <fix>3d</fix>
</trkpt>
<trkpt lat="40.0713749" lon="-105.229789">
  <ele>1583.0</ele>
  <time>2026-08-28T17:52:31Z</time>
  <course>0.0</course>
  <speed>0.0</speed>
  <fix>3d</fix>
</trkpt>
<trkpt lat="40.0713749" lon="-105.229789">
  <ele>1583.0</ele>
  <time>2026-08-28T17:52:31Z</time>
  <course>247.83</course>
  <speed>0.0316227766016838</speed>
  <fix>3d</fix>
</trkpt>
<trkpt lat="40.0713749" lon="-105.229789">
  <ele>1583.0</ele>
  <time>2026-08-28T17:52:31Z</time>
  <course>0.0</course>
  <speed>0.0</speed>
  <fix>3d</fix>
</trkpt>
<trkpt lat="40.0713749" lon="-105.229789">
  <ele>1583.0</ele>
  <time>2026-08-28T17:52:31Z</time>
  <course>247.83</course>
  <speed>0.0316227766016838</speed>
  <fix>3d</fix>
</trkpt>
<trkpt lat="40.0713749" lon="-105.229789">
  <ele>1583.0</ele>
  <time>2026-08-28T17:52:31Z</time>
  <course>0.0</course>
  <speed>0.0</speed>
  <fix>3d</fix>
</trkpt>
<trkpt lat="40.0713749" lon="-105.229789">
  <ele>1583.0</ele>
  <time>2026-08-28T17:52:31Z</time>
  <course>247.82</course>
  <speed>0.0316227766016838</speed>
  <fix>3d</fix>
</trkpt>
<trkpt lat="40.0713749" lon="-105.229789">
  <ele>1583.0</ele>
  <time>2026-08-28T17:52:31Z</time>
  <course>0.0</course>
  <speed>0.0</speed>
  <fix>3d</fix>
</trkpt>
<trkpt lat="40.0713749" lon="-105.229789">
  <ele>1583.0</ele>
  <time>2026-08-28T17:52:31Z</time>
  <course>247.82</course>
  <speed>0.0316227766016838</speed>
  <fix>3d</fix>
</trkpt>
<trkpt lat="40.0713749" lon="-105.229789">
  <ele>1583.0</ele>
  <time>2026-08-28T17:52:31Z</time>
  <course>0.0</course>
  <speed>0.0</speed>
  <fix>3d</fix>
</trkpt>
<trkpt lat="40.0713749" lon="-105.229789">
  <ele>1583.0</ele>
  <time>2026-08-28T17:52:31Z</time>
  <course>247.82</course>
  <speed>0.0316227766016838</speed>
  <fix>3d</fix>
</trkpt>
<trkpt lat="40.0713749" lon="-105.229789">
  <ele>1583.0</ele>
  <time>2026-08-28T17:52:31Z</time>
  <course>0.0</course>
  <speed>0.0</speed>
  <fix>3d</fix>
</trkpt>
<trkpt lat="40.0713749" lon="-105.229789">
  <ele>1583.0</ele>
  <time>2026-08-28T17:52:31Z</time>
  <course>247.81</course>
  <speed>0.0316227766016838</speed>
  <fix>3d</fix>
</trkpt>
<trkpt lat="40.0713749" lon="-105.229789">
  <ele>1583.0</ele>
  <time>2026-08-28T17:52:31Z</time>
  <course>0.0</course>
  <speed>0.0</speed>
  <fix>3d</fix>
</trkpt>
<trkpt lat="40.0713749" lon="-105.229789">
  <ele>1583.0</ele>
  <time>2026-08-28T17:52:31Z</time>
  <course>247.81</course>
  <speed>0.0316227766016838</speed>
  <fix>3d</fix>
</trkpt>
<trkpt lat="40.0713749" lon="-105.229789">
  <ele>1583.0</ele>
  <time>2026-08-28T17:52:31Z</time>
  <course>0.0</course>
  <speed>0.0</speed>
  <fix>3d</fix>
</trkpt>
<trkpt lat="40.0713749" lon="-105.229789">
  <ele>1583.0</ele>
  <time>2026-08-28T17:52:31Z</time>
  <course>247.8</course>
  <speed>0.0316227766016838</speed>
  <fix>3d</fix>
</trkpt>
<trkpt lat="40.0713749" lon="-105.229789">
  <ele>1583.0</ele>
  <time>2026-08-28T17:52:31Z</time>
  <course>0.0</course>
  <speed>0.0</speed>
  <fix>3d</fix>
</trkpt>
<trkpt lat="40.0713749" lon="-105.229789">
  <ele>1583.0</ele>
  <time>2026-08-28T17:52:31Z</time>
  <course>247.8</course>
  <speed>0.0316227766016838</speed>
  <fix>3d</fix>
</trkpt>
<trkpt lat="40.0713749" lon="-105.229789">
  <ele>1583.0</ele>
  <time>2026-08-28T17:52:31Z</time>
  <course>0.0</course>
  <speed>0.0</speed>
  <fix>3d</fix>
</trkpt>
<trkpt lat="40.0713749" lon="-105.229789">
  <ele>1583.0</ele>
  <time>2026-08-28T17:52:31Z</time>
  <course>247.8</course>
  <speed>0.0316227766016838</speed>
  <fix>3d</fix>
</trkpt>
<trkpt lat="40.0713749" lon="-105.229789">
  <ele>1583.0</ele>
  <time>2026-08-28T17:52:31Z</time>
  <course>0.0</course>
  <speed>0.0</speed>
  <fix>3d</fix>
</trkpt>
<trkpt lat="40.0713749" lon="-105.229789">
  <ele>1583.0</ele>
  <time>2026-08-28T17:52:31Z</time>
  <course>247.79</course>
  <speed>0.0316227766016838</speed>
  <fix>3d</fix>
</trkpt>
<trkpt lat="40.0713749" lon="-105.229789">
  <ele>1583.0</ele>
  <time>2026-08-28T17:52:31Z</time>
  <course>0.0</course>
  <speed>0.0</speed>
  <fix>3d</fix>
</trkpt>
<trkpt lat="40.0713749" lon="-105.229789">
  <ele>1583.0</ele>
  <time>2026-08-28T17:52:31Z</time>
  <course>247.79</course>
  <speed>0.0316227766016838</speed>
  <fix>3d</fix>
</trkpt>
<trkpt lat="40.0713749" lon="-105.229789">
  <ele>1583.0</ele>
  <time>2026-08-28T17:52:31Z</time>
  <course>0.0</course>
  <speed>0.0</speed>
  <fix>3d</fix>
</trkpt>
<trkpt lat="40.0713749" lon="-105.229789">
  <ele>1583.0</ele>
  <time>2026-08-28T17:52:31Z</time>
  <course>247.79</course>
  <speed>0.0316227766016838</speed>
  <fix>3d</fix>
</trkpt>
<trkpt lat="40.0713749" lon="-105.229789">
  <ele>1583.0</ele>
  <time>2026-08-28T17:52:31Z</time>
  <course>0.0</course>
  <speed>0.0</speed>
  <fix>3d</fix>
</trkpt>
<trkpt lat="40.0713749" lon="-105.229789">
  <ele>1583.0</ele>
  <time>2026-08-28T17:52:31Z</time>
  <course>247.78</course>
  <speed>0.0316227766016838</speed>
  <fix>3d</fix>
</trkpt>
<trkpt lat="40.0713749" lon="-105.229789">
  <ele>1583.0</ele>
  <time>2026-08-28T17:52:31Z</time>
  <course>0.0</course>
  <speed>0.0</speed>
  <fix>3d</fix>
</trkpt>
<trkpt lat="40.0713749" lon="-105.229789">
  <ele>1583.0</ele>
  <time>2026-08-28T17:52:31Z</time>
  <course>247.78</course>
  <speed>0.0316227766016838</speed>
  <fix>3d</fix>
</trkpt>
<trkpt lat="40.0713749" lon="-105.229789">
  <ele>1583.0</ele>
  <time>2026-08-28T17:52:31Z</time>
  <course>0.0</course>
  <speed>0.0</speed>
  <fix>3d</fix>
</trkpt>
<trkpt lat="40.0713749" lon="-105.229789">
  <ele>1583.0</ele>
  <time>2026-08-28T17:52:31Z</time>
  <course>247.78</course>
  <speed>0.0316227766016838</speed>
  <fix>3d</fix>
</trkpt>
<trkpt lat="40.0713749" lon="-105.229789">
  <ele>1583.0</ele>
  <time>2026-08-28T17:52:31Z</time>
  <course>0.0</course>
  <speed>0.0</speed>
  <fix>3d</fix>
</trkpt>
<trkpt lat="40.0713749" lon="-105.229789">
  <ele>1583.0</ele>
  <time>2026-08-28T17:52:31Z</time>
  <course>247.77</course>
  <speed>0.0316227766016838</speed>
  <fix>3d</fix>
</trkpt>
<trkpt lat="40.0713749" lon="-105.229789">
  <ele>1583.0</ele>
  <time>2026-08-28T17:52:31Z</time>
  <course>0.0</course>
  <speed>0.0</speed>
  <fix>3d</fix>
</trkpt>
<trkpt lat="40.0713749" lon="-105.229789">
  <ele>1583.0</ele>
  <time>2026-08-28T17:52:31Z</time>
  <course>247.77</course>
  <speed>0.0316227766016838</speed>
  <fix>3d</fix>
</trkpt>
<trkpt lat="40.0713749" lon="-105.229789">
  <ele>1583.0</ele>
  <time>2026-08-28T17:52:31Z</time>
  <course>0.0</course>
  <speed>0.0</speed>
  <fix>3d</fix>
</trkpt>
<trkpt lat="40.0713749" lon="-105.229789">
  <ele>1583.0</ele>
  <time>2026-08-28T17:52:31Z</time>
  <course>247.76</course>
  <speed>0.0316227766016838</speed>
  <fix>3d</fix>
</trkpt>
<trkpt lat="40.0713749" lon="-105.229789">
  <ele>1583.0</ele>
  <time>2026-08-28T17:52:31Z</time>
  <course>0.0</course>
  <speed>0.0</speed>
  <fix>3d</fix>
</trkpt>
<trkpt lat="40.0713749" lon="-105.229789">
  <ele>1583.0</ele>
  <time>2026-08-28T17:52:31Z</time>
  <course>247.76</course>
  <speed>0.0316227766016838</speed>
  <fix>3d</fix>
</trkpt>
<trkpt lat="40.0713749" lon="-105.229789">
  <ele>1583.0</ele>
  <time>2026-08-28T17:52:31Z</time>
  <course>0.0</course>
  <speed>0.0</speed>
  <fix>3d</fix>
</trkpt>
<trkpt lat="40.0713749" lon="-105.229789">
  <ele>1583.0</ele>
  <time>2026-08-28T17:52:31Z</time>
  <course>247.76</course>
  <speed>0.0316227766016838</speed>
  <fix>3d</fix>
</trkpt>
<trkpt lat="40.0713749" lon="-105.229789">
  <ele>1583.0</ele>
  <time>2026-08-28T17:52:31Z</time>
  <course>0.0</course>
  <speed>0.0</speed>
  <fix>3d</fix>
</trkpt>
<trkpt lat="40.0713749" lon="-105.229789">
  <ele>1583.0</ele>
  <time>2026-08-28T17:52:31Z</time>
  <course>247.75</course>
  <speed>0.0316227766016838</speed>
  <fix>3d</fix>
</trkpt>
<trkpt lat="40.0713749" lon="-105.229789">
  <ele>1583.0</ele>
  <time>2026-08-28T17:52:31Z</time>
  <course>0.0</course>
  <speed>0.0</speed>
  <fix>3d</fix>
</trkpt>
<trkpt lat="40.0713749" lon="-105.229789">
  <ele>1583.0</ele>
  <time>2026-08-28T17:52:31Z</time>
  <course>247.75</course>
  <speed>0.0316227766016838</speed>
  <fix>3d</fix>
</trkpt>
<trkpt lat="40.0713749" lon="-105.229789">
  <ele>1583.0</ele>
  <time>2026-08-28T17:52:31Z</time>
  <course>0.0</course>
  <speed>0.0</speed>
  <fix>3d</fix>
</trkpt>
<trkpt lat="40.0713749" lon="-105.229789">
  <ele>1583.0</ele>
  <time>2026-08-28T17:52:31Z</time>
  <course>247.75</course>
  <speed>0.0316227766016838</speed>
  <fix>3d</fix>
</trkpt>
<trkpt lat="40.0713749" lon="-105.229789">
  <ele>1583.0</ele>
  <time>2026-08-28T17:52:31Z</time>
  <course>0.0</course>
  <speed>0.0</speed>
  <fix>3d</fix>
</trkpt>
<trkpt lat="40.0713749" lon="-105.229789">
  <ele>1583.0</ele>
  <time>2026-08-28T17:52:31Z</time>
  <course>247.74</course>
  <speed>0.0316227766016838</speed>
  <fix>3d</fix>
</trkpt>
<trkpt lat="40.0713749" lon="-105.229789">
  <ele>1583.0</ele>
  <time>2026-08-28T17:52:31Z</time>
  <course>0.0</course>
  <speed>0.0</speed>
  <fix>3d</fix>
</trkpt>
<trkpt lat="40.0713749" lon="-105.229789">
  <ele>1583.0</ele>
  <time>2026-08-28T17:52:31Z</time>
  <course>247.74</course>
  <speed>0.0316227766016838</speed>
  <fix>3d</fix>
</trkpt>
<trkpt lat="40.0713749" lon="-105.229789">
  <ele>1583.0</ele>
  <time>2026-08-28T17:52:31Z</time>
  <course>0.0</course>
  <speed>0.0</speed>
  <fix>3d</fix>
</trkpt>
<trkpt lat="40.0713749" lon="-105.229789">
  <ele>1583.0</ele>
  <time>2026-08-28T17:52:31Z</time>
  <course>247.74</course>
  <speed>0.0316227766016838</speed>
  <fix>3d</fix>
</trkpt>
<trkpt lat="40.0713749" lon="-105.229789">
  <ele>1583.0</ele>
  <time>2026-08-28T17:52:31Z</time>
  <course>0.0</course>
  <speed>0.0</speed>
  <fix>3d</fix>
</trkpt>
<trkpt lat="40.0713749" lon="-105.229789">
  <ele>1583.0</ele>
  <time>2026-08-28T17:52:31Z</time>
  <course>247.73</course>
  <speed>0.0316227766016838</speed>
  <fix>3d</fix>
</trkpt>
<trkpt lat="40.0713749" lon="-105.229789">
  <ele>1583.0</ele>
  <time>2026-08-28T17:52:31Z</time>
  <course>0.0</course>
  <speed>0.0</speed>
  <fix>3d</fix>
</trkpt>
<trkpt lat="40.0713749" lon="-105.229789">
  <ele>1583.0</ele>
  <time>2026-08-28T17:52:31Z</time>
  <course>247.73</course>
  <speed>0.0316227766016838</speed>
  <fix>3d</fix>
</trkpt>
<trkpt lat="40.0713749" lon="-105.229789">
  <ele>1583.0</ele>
  <time>2026-08-28T17:52:31Z</time>
  <course>0.0</course>
  <speed>0.0</speed>
  <fix>3d</fix>
</trkpt>
<trkpt lat="40.0713749" lon="-105.229789">
  <ele>1583.0</ele>
  <time>2026-08-28T17:52:31Z</time>
  <course>247.73</course>
  <speed>0.0316227766016838</speed>
  <fix>3d</fix>
</trkpt>
<trkpt lat="40.0713749" lon="-105.229789">
  <ele>1583.0</ele>
  <time>2026-08-28T17:52:31Z</time>
  <course>0.0</course>
  <speed>0.0</speed>
  <fix>3d</fix>
</trkpt>
<trkpt lat="40.0713749" lon="-105.229789">
  <ele>1583.0</ele>
  <time>2026-08-28T17:52:31Z</time>
  <course>247.72</course>
  <speed>0.0316227766016838</speed>
  <fix>3d</fix>
</trkpt>
<trkpt lat="40.0713749" lon="-105.229789">
  <ele>1583.0</ele>
  <time>2026-08-28T17:52:31Z</time>
  <course>0.0</course>
  <speed>0.0</speed>
  <fix>3d</fix>
</trkpt>
<trkpt lat="40.0713749" lon="-105.229789">
  <ele>1583.0</ele>
  <time>2026-08-28T17:52:31Z</time>
  <course>247.72</course>
  <speed>0.0316227766016838</speed>
  <fix>3d</fix>
</trkpt>
<trkpt lat="40.0713749" lon="-105.229789">
  <ele>1583.0</ele>
  <time>2026-08-28T17:52:31Z</time>
  <course>0.0</course>
  <speed>0.0</speed>
  <fix>3d</fix>
</trkpt>
<trkpt lat="40.0713749" lon="-105.229789">
  <ele>1583.0</ele>
  <time>2026-08-28T17:52:31Z</time>
  <course>247.72</course>
  <speed>0.0316227766016838</speed>
  <fix>3d</fix>
</trkpt>
<trkpt lat="40.0713749" lon="-105.229789">
  <ele>1583.0</ele>
  <time>2026-08-28T17:52:31Z</time>
  <course>0.0</course>
  <speed>0.0</speed>
  <fix>3d</fix>
</trkpt>
<trkpt lat="40.0713749" lon="-105.229789">
  <ele>1583.0</ele>
  <time>2026-08-28T17:52:31Z</time>
  <course>247.71</course>
  <speed>0.0316227766016838</speed>
  <fix>3d</fix>
</trkpt>
<trkpt lat="40.0713749" lon="-105.229789">
  <ele>1583.0</ele>
  <time>2026-08-28T17:52:31Z</time>
  <course>0.0</course>
  <speed>0.0</speed>
  <fix>3d</fix>
</trkpt>
<trkpt lat="40.0713749" lon="-105.229789">
  <ele>1583.0</ele>
  <time>2026-08-28T17:52:31Z</time>
  <course>247.71</course>
  <speed>0.0316227766016838</speed>
  <fix>3d</fix>
</trkpt>
<trkpt lat="40.0713749" lon="-105.229789">
  <ele>1583.0</ele>
  <time>2026-08-28T17:52:31Z</time>
  <course>0.0</course>
  <speed>0.0</speed>
  <fix>3d</fix>
</trkpt>
<trkpt lat="40.0713749" lon="-105.229789">
  <ele>1583.0</ele>
  <time>2026-08-28T17:52:31Z</time>
  <course>247.71</course>
  <speed>0.0316227766016838</speed>
  <fix>3d</fix>
</trkpt>
<trkpt lat="40.0713749" lon="-105.229789">
  <ele>1583.0</ele>
  <time>2026-08-28T17:52:31Z</time>
  <course>0.0</course>
  <speed>0.0</speed>
  <fix>3d</fix>
</trkpt>
<trkpt lat="40.0713749" lon="-105.229789">
  <ele>1583.0</ele>
  <time>2026-08-28T17:52:31Z</time>
  <course>247.7</course>
  <speed>0.0316227766016838</speed>
  <fix>3d</fix>
</trkpt>
<trkpt lat="40.0713749" lon="-105.229789">
  <ele>1583.0</ele>
  <time>2026-08-28T17:52:31Z</time>
  <course>0.0</course>
  <speed>0.0</speed>
  <fix>3d</fix>
</trkpt>
<trkpt lat="40.0713749" lon="-105.229789">
  <ele>1583.0</ele>
  <time>2026-08-28T17:52:31Z</time>
  <course>247.7</course>
  <speed>0.0316227766016838</speed>
  <fix>3d</fix>
</trkpt>
<trkpt lat="40.0713749" lon="-105.229789">
  <ele>1583.0</ele>
  <time>2026-08-28T17:52:31Z</time>
  <course>0.0</course>
  <speed>0.0</speed>
  <fix>3d</fix>
</trkpt>
<trkpt lat="40.0713749" lon="-105.229789">
  <ele>1583.0</ele>
  <time>2026-08-28T17:52:31Z</time>
  <course>247.7</course>
  <speed>0.0316227766016838</speed>
  <fix>3d</fix>
</trkpt>
<trkpt lat="40.0713749" lon="-105.229789">
  <ele>1583.0</ele>
  <time>2026-08-28T17:52:31Z</time>
  <course>0.0</course>
  <speed>0.0</speed>
  <fix>3d</fix>
</trkpt>
<trkpt lat="40.0713749" lon="-105.229789">
  <ele>1583.0</ele>
  <time>2026-08-28T17:52:31Z</time>
  <course>247.69</course>
  <speed>0.0316227766016838</speed>
  <fix>3d</fix>
</trkpt>
<trkpt lat="40.0713749" lon="-105.229789">
  <ele>1583.0</ele>
  <time>2026-08-28T17:52:31Z</time>
  <course>0.0</course>
  <speed>0.0</speed>
  <fix>3d</fix>
</trkpt>
<trkpt lat="40.0713749" lon="-105.229789">
  <ele>1583.0</ele>
  <time>2026-08-28T17:52:31Z</time>
  <course>247.69</course>
  <speed>0.0316227766016838</speed>
  <fix>3d</fix>
</trkpt>
<trkpt lat="40.0713749" lon="-105.229789">
  <ele>1583.0</ele>
  <time>2026-08-28T17:52:31Z</time>
  <course>0.0</course>
  <speed>0.0</speed>
  <fix>3d</fix>
</trkpt>
<trkpt lat="40.0713749" lon="-105.229789">
  <ele>1583.0</ele>
  <time>2026-08-28T17:52:31Z</time>
  <course>247.69</course>
  <speed>0.0316227766016838</speed>
  <fix>3d</fix>
</trkpt>
<trkpt lat="40.0713749" lon="-105.229789">
  <ele>1583.0</ele>
  <time>2026-08-28T17:52:31Z</time>
  <course>0.0</course>
  <speed>0.0</speed>
  <fix>3d</fix>
</trkpt>
<trkpt lat="40.0713749" lon="-105.229789">
  <ele>1583.0</ele>
  <time>2026-08-28T17:52:31Z</time>
  <course>247.68</course>
  <speed>0.0316227766016838</speed>
  <fix>3d</fix>
</trkpt>
<trkpt lat="40.0713749" lon="-105.229789">
  <ele>1583.0</ele>
  <time>2026-08-28T17:52:31Z</time>
  <course>0.0</course>
  <speed>0.0</speed>
  <fix>3d</fix>
</trkpt>
<trkpt lat="40.0713749" lon="-105.229789">
  <ele>1583.0</ele>
  <time>2026-08-28T17:52:31Z</time>
  <course>247.68</course>
  <speed>0.0316227766016838</speed>
  <fix>3d</fix>
</trkpt>
<trkpt lat="40.0713749" lon="-105.229789">
  <ele>1583.0</ele>
  <time>2026-08-28T17:52:31Z</time>
  <course>0.0</course>
  <speed>0.0</speed>
  <fix>3d</fix>
</trkpt>
<trkpt lat="40.0713749" lon="-105.229789">
  <ele>1583.0</ele>
  <time>2026-08-28T17:52:31Z</time>
  <course>247.68</course>
  <speed>0.0316227766016838</speed>
  <fix>3d</fix>
</trkpt>
<trkpt lat="40.0713749" lon="-105.229789">
  <ele>1583.0</ele>
  <time>2026-08-28T17:52:31Z</time>
  <course>0.0</course>
  <speed>0.0</speed>
  <fix>3d</fix>
</trkpt>
<trkpt lat="40.0713749" lon="-105.229789">
  <ele>1583.0</ele>
  <time>2026-08-28T17:52:31Z</time>
  <course>247.67</course>
  <speed>0.0316227766016838</speed>
  <fix>3d</fix>
</trkpt>
<trkpt lat="40.0713749" lon="-105.229789">
  <ele>1583.0</ele>
  <time>2026-08-28T17:52:31Z</time>
  <course>0.0</course>
  <speed>0.0</speed>
  <fix>3d</fix>
</trkpt>
<trkpt lat="40.0713749" lon="-105.229789">
  <ele>1583.0</ele>
  <time>2026-08-28T17:52:31Z</time>
  <course>247.67</course>
  <speed>0.0316227766016838</speed>
  <fix>3d</fix>
</trkpt>
<trkpt lat="40.0713749" lon="-105.229789">
  <ele>1583.0</ele>
  <time>2026-08-28T17:52:31Z</time>
  <course>0.0</course>
  <speed>0.0</speed>
  <fix>3d</fix>
</trkpt>
<trkpt lat="40.0713749" lon="-105.229789">
  <ele>1583.0</ele>
  <time>2026-08-28T17:52:31Z</time>
  <course>247.67</course>
  <speed>0.0316227766016838</speed>
  <fix>3d</fix>
</trkpt>
<trkpt lat="40.0713749" lon="-105.229789">
  <ele>1583.0</ele>
  <time>2026-08-28T17:52:31Z</time>
  <course>0.0</course>
  <speed>0.0</speed>
  <fix>3d</fix>
</trkpt>
<trkpt lat="40.0713749" lon="-105.229789">
  <ele>1583.0</ele>
  <time>2026-08-28T17:52:31Z</time>
  <course>247.66</course>
  <speed>0.0316227766016838</speed>
  <fix>3d</fix>
</trkpt>
<trkpt lat="40.0713749" lon="-105.229789">
  <ele>1583.0</ele>
  <time>2026-08-28T17:52:31Z</time>
  <course>0.0</course>
  <speed>0.0</speed>
  <fix>3d</fix>
</trkpt>
<trkpt lat="40.0713749" lon="-105.229789">
  <ele>1583.0</ele>
  <time>2026-08-28T17:52:31Z</time>
  <course>247.66</course>
  <speed>0.0316227766016838</speed>
  <fix>3d</fix>
</trkpt>
<trkpt lat="40.0713749" lon="-105.229789">
  <ele>1583.0</ele>
  <time>2026-08-28T17:52:31Z</time>
  <course>0.0</course>
  <speed>0.0</speed>
  <fix>3d</fix>
</trkpt>
<trkpt lat="40.0713749" lon="-105.229789">
  <ele>1583.0</ele>
  <time>2026-08-28T17:52:31Z</time>
  <course>247.66</course>
  <speed>0.0316227766016838</speed>
  <fix>3d</fix>
</trkpt>
<trkpt lat="40.0713749" lon="-105.229789">
  <ele>1583.0</ele>
  <time>2026-08-28T17:52:31Z</time>
  <course>0.0</course>
  <speed>0.0</speed>
  <fix>3d</fix>
</trkpt>
<trkpt lat="40.0713749" lon="-105.229789">
  <ele>1583.0</ele>
  <time>2026-08-28T17:52:31Z</time>
  <course>247.65</course>
  <speed>0.0316227766016838</speed>
  <fix>3d</fix>
</trkpt>
<trkpt lat="40.0713749" lon="-105.229789">
  <ele>1583.0</ele>
  <time>2026-08-28T17:52:31Z</time>
  <course>0.0</course>
  <speed>0.0</speed>
  <fix>3d</fix>
</trkpt>
<trkpt lat="40.0713749" lon="-105.229789">
  <ele>1583.0</ele>
  <time>2026-08-28T17:52:31Z</time>
  <course>247.65</course>
  <speed>0.0316227766016838</speed>
  <fix>3d</fix>
</trkpt>
<trkpt lat="40.0713749" lon="-105.229789">
  <ele>1583.0</ele>
  <time>2026-08-28T17:52:31Z</time>
  <course>0.0</course>
  <speed>0.0</speed>
  <fix>3d</fix>
</trkpt>
<trkpt lat="40.0713749" lon="-105.229789">
  <ele>1583.0</ele>
  <time>2026-08-28T17:52:31Z</time>
  <course>247.65</course>
  <speed>0.0316227766016838</speed>
  <fix>3d</fix>
</trkpt>
<trkpt lat="40.0713749" lon="-105.229789">
  <ele>1583.0</ele>
  <time>2026-08-28T17:52:31Z</time>
  <course>0.0</course>
  <speed>0.0</speed>
  <fix>3d</fix>
</trkpt>
<trkpt lat="40.0713749" lon="-105.229789">
  <ele>1583.0</ele>
  <time>2026-08-28T17:52:31Z</time>
  <course>247.64</course>
  <speed>0.0316227766016838</speed>
  <fix>3d</fix>
</trkpt>
<trkpt lat="40.0713749" lon="-105.229789">
  <ele>1583.0</ele>
  <time>2026-08-28T17:52:31Z</time>
  <course>0.0</course>
  <speed>0.0</speed>
  <fix>3d</fix>
</trkpt>
<trkpt lat="40.0713749" lon="-105.229789">
  <ele>1583.0</ele>
  <time>2026-08-28T17:52:31Z</time>
  <course>247.64</course>
  <speed>0.0316227766016838</speed>
  <fix>3d</fix>
</trkpt>
<trkpt lat="40.0713749" lon="-105.229789">
  <ele>1583.0</ele>
  <time>2026-08-28T17:52:31Z</time>
  <course>0.0</course>
  <speed>0.0</speed>
  <fix>3d</fix>
</trkpt>
<trkpt lat="40.0713749" lon="-105.229789">
  <ele>1583.0</ele>
  <time>2026-08-28T17:52:31Z</time>
  <course>247.64</course>
  <speed>0.0316227766016838</speed>
  <fix>3d</fix>
</trkpt>
<trkpt lat="40.0713749" lon="-105.229789">
  <ele>1583.0</ele>
  <time>2026-08-28T17:52:31Z</time>
  <course>0.0</course>
  <speed>0.0</speed>
  <fix>3d</fix>
</trkpt>
<trkpt lat="40.0713749" lon="-105.229789">
  <ele>1583.0</ele>
  <time>2026-08-28T17:52:31Z</time>
  <course>247.64</course>
  <speed>0.0316227766016838</speed>
  <fix>3d</fix>
</trkpt>
<trkpt lat="40.0713749" lon="-105.229789">
  <ele>1583.0</ele>
  <time>2026-08-28T17:52:31Z</time>
  <course>0.0</course>
  <speed>0.0</speed>
  <fix>3d</fix>
</trkpt>
<trkpt lat="40.0713749" lon="-105.229789">
  <ele>1583.0</ele>
  <time>2026-08-28T17:52:31Z</time>
  <course>247.63</course>
  <speed>0.0316227766016838</speed>
  <fix>3d</fix>
</trkpt>
<trkpt lat="40.0713749" lon="-105.229789">
  <ele>1583.0</ele>
  <time>2026-08-28T17:52:31Z</time>
  <course>0.0</course>
  <speed>0.0</speed>
  <fix>3d</fix>
</trkpt>
<trkpt lat="40.0713749" lon="-105.229789">
  <ele>1583.0</ele>
  <time>2026-08-28T17:52:31Z</time>
  <course>247.63</course>
  <speed>0.0316227766016838</speed>
  <fix>3d</fix>
</trkpt>
<trkpt lat="40.0713749" lon="-105.229789">
  <ele>1583.0</ele>
  <time>2026-08-28T17:52:31Z</time>
  <course>0.0</course>
  <speed>0.0</speed>
  <fix>3d</fix>
</trkpt>
<trkpt lat="40.0713749" lon="-105.229789">
  <ele>1583.0</ele>
  <time>2026-08-28T17:52:31Z</time>
  <course>247.63</course>
  <speed>0.0316227766016838</speed>
  <fix>3d</fix>
</trkpt>
<trkpt lat="40.0713749" lon="-105.229789">
  <ele>1583.0</ele>
  <time>2026-08-28T17:52:31Z</time>
  <course>0.0</course>
  <speed>0.0</speed>
  <fix>3d</fix>
</trkpt>
<trkpt lat="40.0713749" lon="-105.229789">
  <ele>1583.0</ele>
  <time>2026-08-28T17:52:31Z</time>
  <course>247.62</course>
  <speed>0.0316227766016838</speed>
  <fix>3d</fix>
</trkpt>
<trkpt lat="40.0713749" lon="-105.229789">
  <ele>1583.0</ele>
  <time>2026-08-28T17:52:31Z</time>
  <course>0.0</course>
  <speed>0.0</speed>
  <fix>3d</fix>
</trkpt>
<trkpt lat="40.0713749" lon="-105.229789">
  <ele>1583.0</ele>
  <time>2026-08-28T17:52:31Z</time>
  <course>247.62</course>
  <speed>0.0316227766016838</speed>
  <fix>3d</fix>
</trkpt>
<trkpt lat="40.0713749" lon="-105.229789">
  <ele>1583.0</ele>
  <time>2026-08-28T17:52:31Z</time>
  <course>0.0</course>
  <speed>0.0</speed>
  <fix>3d</fix>
</trkpt>
<trkpt lat="40.0713749" lon="-105.229789">
  <ele>1583.0</ele>
  <time>2026-08-28T17:52:31Z</time>
  <course>247.62</course>
  <speed>0.0316227766016838</speed>
  <fix>3d</fix>
</trkpt>
<trkpt lat="40.0713749" lon="-105.229789">
  <ele>1583.0</ele>
  <time>2026-08-28T17:52:31Z</time>
  <course>0.0</course>
  <speed>0.0</speed>
  <fix>3d</fix>
</trkpt>
<trkpt lat="40.0713749" lon="-105.229789">
  <ele>1583.0</ele>
  <time>2026-08-28T17:52:31Z</time>
  <course>247.62</course>
  <speed>0.0316227766016838</speed>
  <fix>3d</fix>
</trkpt>
<trkpt lat="40.0713749" lon="-105.229789">
  <ele>1583.0</ele>
  <time>2026-08-28T17:52:31Z</time>
  <course>0.0</course>
  <speed>0.0</speed>
  <fix>3d</fix>
</trkpt>
<trkpt lat="40.0713749" lon="-105.229789">
  <ele>1583.0</ele>
  <time>2026-08-28T17:52:31Z</time>
  <course>247.61</course>
  <speed>0.0316227766016838</speed>
  <fix>3d</fix>
</trkpt>
<trkpt lat="40.0713749" lon="-105.229789">
  <ele>1583.0</ele>
  <time>2026-08-28T17:52:31Z</time>
  <course>0.0</course>
  <speed>0.0</speed>
  <fix>3d</fix>
</trkpt>
<trkpt lat="40.0713749" lon="-105.229789">
  <ele>1583.0</ele>
  <time>2026-08-28T17:52:31Z</time>
  <course>247.61</course>
  <speed>0.0316227766016838</speed>
  <fix>3d</fix>
</trkpt>
<trkpt lat="40.0713749" lon="-105.229789">
  <ele>1583.0</ele>
  <time>2026-08-28T17:52:31Z</time>
  <course>0.0</course>
  <speed>0.0</speed>
  <fix>3d</fix>
</trkpt>
<trkpt lat="40.0713749" lon="-105.229789">
  <ele>1583.0</ele>
  <time>2026-08-28T17:52:31Z</time>
  <course>247.61</course>
  <speed>0.0316227766016838</speed>
  <fix>3d</fix>
</trkpt>
<trkpt lat="40.0713749" lon="-105.229789">
  <ele>1583.0</ele>
  <time>2026-08-28T17:52:31Z</time>
  <course>0.0</course>
  <speed>0.0</speed>
  <fix>3d</fix>
</trkpt>
<trkpt lat="40.0713749" lon="-105.229789">
  <ele>1583.0</ele>
  <time>2026-08-28T17:52:31Z</time>
  <course>247.6</course>
  <speed>0.0316227766016838</speed>
  <fix>3d</fix>
</trkpt>
<trkpt lat="40.0713749" lon="-105.229789">
  <ele>1583.0</ele>
  <time>2026-08-28T17:52:31Z</time>
  <course>0.0</course>
  <speed>0.0</speed>
  <fix>3d</fix>
</trkpt>
<trkpt lat="40.0713749" lon="-105.229789">
  <ele>1583.0</ele>
  <time>2026-08-28T17:52:31Z</time>
  <course>247.6</course>
  <speed>0.0316227766016838</speed>
  <fix>3d</fix>
</trkpt>
<trkpt lat="40.0713749" lon="-105.229789">
  <ele>1583.0</ele>
  <time>2026-08-28T17:52:31Z</time>
  <course>0.0</course>
  <speed>0.0</speed>
  <fix>3d</fix>
</trkpt>
<trkpt lat="40.0713749" lon="-105.229789">
  <ele>1583.0</ele>
  <time>2026-08-28T17:52:31Z</time>
  <course>247.6</course>
  <speed>0.0316227766016838</speed>
  <fix>3d</fix>
</trkpt>
<trkpt lat="40.0713749" lon="-105.229789">
  <ele>1583.0</ele>
  <time>2026-08-28T17:52:31Z</time>
  <course>0.0</course>
  <speed>0.0</speed>
  <fix>3d</fix>
</trkpt>
<trkpt lat="40.0713749" lon="-105.229789">
  <ele>1583.0</ele>
  <time>2026-08-28T17:52:31Z</time>
  <course>247.6</course>
  <speed>0.0316227766016838</speed>
  <fix>3d</fix>
</trkpt>
<trkpt lat="40.0713749" lon="-105.229789">
  <ele>1583.0</ele>
  <time>2026-08-28T17:52:31Z</time>
  <course>0.0</course>
  <speed>0.0</speed>
  <fix>3d</fix>
</trkpt>
<trkpt lat="40.0713749" lon="-105.229789">
  <ele>1583.0</ele>
  <time>2026-08-28T17:52:31Z</time>
  <course>247.59</course>
  <speed>0.0316227766016838</speed>
  <fix>3d</fix>
</trkpt>
<trkpt lat="40.0713749" lon="-105.229789">
  <ele>1583.0</ele>
  <time>2026-08-28T17:52:31Z</time>
  <course>0.0</course>
  <speed>0.0</speed>
  <fix>3d</fix>
</trkpt>
<trkpt lat="40.0713749" lon="-105.229789">
  <ele>1582.92</ele>
  <time>2026-08-28T17:52:31Z</time>
  <course>247.59</course>
  <speed>0.0</speed>
  <fix>3d</fix>
</trkpt>
<trkpt lat="40.0713749" lon="-105.229789">
  <ele>1583.0</ele>
  <time>2026-08-28T17:52:31Z</time>
  <course>0.0</course>
  <speed>0.0</speed>
  <fix>3d</fix>
</trkpt>
<trkpt lat="40.0713749" lon="-105.229789">
  <ele>1582.92</ele>
  <time>2026-08-28T17:52:31Z</time>
  <course>247.59</course>
  <speed>0.0</speed>
  <fix>3d</fix>
</trkpt>
<trkpt lat="40.0713749" lon="-105.229789">
  <ele>1583.0</ele>
  <time>2026-08-28T17:52:31Z</time>
  <course>0.0</course>
  <speed>0.0</speed>
  <fix>3d</fix>
</trkpt>
<trkpt lat="40.0713749" lon="-105.229789">
  <ele>1582.91</ele>
  <time>2026-08-28T17:52:31Z</time>
  <course>247.58</course>
  <speed>0.0</speed>
  <fix>3d</fix>
</trkpt>
<trkpt lat="40.0713749" lon="-105.229789">
  <ele>1583.0</ele>
  <time>2026-08-28T17:52:31Z</time>
  <course>0.0</course>
  <speed>0.0</speed>
  <fix>3d</fix>
</trkpt>
<trkpt lat="40.0713749" lon="-105.229789">
  <ele>1582.91</ele>
  <time>2026-08-28T17:52:31Z</time>
  <course>247.58</course>
  <speed>0.0</speed>
  <fix>3d</fix>
</trkpt>
<trkpt lat="40.0713749" lon="-105.229789">
  <ele>1583.0</ele>
  <time>2026-08-28T17:52:31Z</time>
  <course>0.0</course>
  <speed>0.0</speed>
  <fix>3d</fix>
</trkpt>
<trkpt lat="40.0713749" lon="-105.229789">
  <ele>1582.9</ele>
  <time>2026-08-28T17:52:31Z</time>
  <course>247.58</course>
  <speed>0.0</speed>
  <fix>3d</fix>
</trkpt>
<trkpt lat="40.0713749" lon="-105.229789">
  <ele>1583.0</ele>
  <time>2026-08-28T17:52:31Z</time>
  <course>0.0</course>
  <speed>0.0</speed>
  <fix>3d</fix>
</trkpt>
<trkpt lat="40.0713749" lon="-105.229789">
  <ele>1582.9</ele>
  <time>2026-08-28T17:52:31Z</time>
  <course>247.58</course>
  <speed>0.0</speed>
  <fix>3d</fix>
</trkpt>
<trkpt lat="40.0713749" lon="-105.229789">
  <ele>1583.0</ele>
  <time>2026-08-28T17:52:31Z</time>
  <course>0.0</course>
  <speed>0.0</speed>
  <fix>3d</fix>
</trkpt>
<trkpt lat="40.0713749" lon="-105.229789">
  <ele>1582.9</ele>
  <time>2026-08-28T17:52:31Z</time>
  <course>247.57</course>
  <speed>0.0</speed>
  <fix>3d</fix>
</trkpt>
<trkpt lat="40.0713749" lon="-105.229789">
  <ele>1583.0</ele>
  <time>2026-08-28T17:52:31Z</time>
  <course>0.0</course>
  <speed>0.0</speed>
  <fix>3d</fix>
</trkpt>
<trkpt lat="40.0713749" lon="-105.229789">
  <ele>1582.9</ele>
  <time>2026-08-28T17:52:31Z</time>
  <course>247.57</course>
  <speed>0.0</speed>
  <fix>3d</fix>
</trkpt>
<trkpt lat="40.0713749" lon="-105.229789">
  <ele>1583.0</ele>
  <time>2026-08-28T17:52:31Z</time>
  <course>0.0</course>
  <speed>0.0</speed>
  <fix>3d</fix>
</trkpt>
<trkpt lat="40.0713749" lon="-105.229789">
  <ele>1582.9</ele>
  <time>2026-08-28T17:52:31Z</time>
  <course>247.57</course>
  <speed>0.0</speed>
  <fix>3d</fix>
</trkpt>
<trkpt lat="40.0713749" lon="-105.229789">
  <ele>1583.0</ele>
  <time>2026-08-28T17:52:31Z</time>
  <course>0.0</course>
  <speed>0.0</speed>
  <fix>3d</fix>
</trkpt>
<trkpt lat="40.0713749" lon="-105.229789">
  <ele>1582.9</ele>
  <time>2026-08-28T17:52:31Z</time>
  <course>247.57</course>
  <speed>0.01</speed>
  <fix>3d</fix>
</trkpt>
<trkpt lat="40.0713749" lon="-105.229789">
  <ele>1583.0</ele>
  <time>2026-08-28T17:52:31Z</time>
  <course>0.0</course>
  <speed>0.0</speed>
  <fix>3d</fix>
</trkpt>
<trkpt lat="40.0713749" lon="-105.229789">
  <ele>1582.9</ele>
  <time>2026-08-28T17:52:31Z</time>
  <course>247.56</course>
  <speed>0.01</speed>
  <fix>3d</fix>
</trkpt>
<trkpt lat="40.0713749" lon="-105.229789">
  <ele>1583.0</ele>
  <time>2026-08-28T17:52:31Z</time>
  <course>0.0</course>
  <speed>0.0</speed>
  <fix>3d</fix>
</trkpt>
<trkpt lat="40.0713749" lon="-105.229789">
  <ele>1582.91</ele>
  <time>2026-08-28T17:52:31Z</time>
  <course>247.56</course>
  <speed>0.01</speed>
  <fix>3d</fix>
</trkpt>
<trkpt lat="40.0713749" lon="-105.229789">
  <ele>1583.0</ele>
  <time>2026-08-28T17:52:31Z</time>
  <course>0.0</course>
  <speed>0.0</speed>
  <fix>3d</fix>
</trkpt>
<trkpt lat="40.0713749" lon="-105.229789">
  <ele>1582.91</ele>
  <time>2026-08-28T17:52:31Z</time>
  <course>247.56</course>
  <speed>0.01</speed>
  <fix>3d</fix>
</trkpt>
<trkpt lat="40.0713749" lon="-105.229789">
  <ele>1583.0</ele>
  <time>2026-08-28T17:52:31Z</time>
  <course>0.0</course>
  <speed>0.0</speed>
  <fix>3d</fix>
</trkpt>
<trkpt lat="40.0713749" lon="-105.229789">
  <ele>1582.92</ele>
  <time>2026-08-28T17:52:31Z</time>
  <course>247.56</course>
  <speed>0.01</speed>
  <fix>3d</fix>
</trkpt>
<trkpt lat="40.0713749" lon="-105.229789">
  <ele>1583.0</ele>
  <time>2026-08-28T17:52:31Z</time>
  <course>0.0</course>
  <speed>0.0</speed>
  <fix>3d</fix>
</trkpt>
<trkpt lat="40.0713749" lon="-105.229789">
  <ele>1582.92</ele>
  <time>2026-08-28T17:52:31Z</time>
  <course>247.55</course>
  <speed>0.01</speed>
  <fix>3d</fix>
</trkpt>
<trkpt lat="40.0713749" lon="-105.229789">
  <ele>1583.0</ele>
  <time>2026-08-28T17:52:31Z</time>
  <course>0.0</course>
  <speed>0.0</speed>
  <fix>3d</fix>
</trkpt>
<trkpt lat="40.0713749" lon="-105.229789">
  <ele>1582.92</ele>
  <time>2026-08-28T17:52:31Z</time>
  <course>247.55</course>
  <speed>0.01</speed>
  <fix>3d</fix>
</trkpt>
<trkpt lat="40.0713749" lon="-105.229789">
  <ele>1583.0</ele>
  <time>2026-08-28T17:52:31Z</time>
  <course>0.0</course>
  <speed>0.0</speed>
  <fix>3d</fix>
</trkpt>
<trkpt lat="40.0713749" lon="-105.229789">
  <ele>1582.93</ele>
  <time>2026-08-28T17:52:31Z</time>
  <course>247.55</course>
  <speed>0.01</speed>
  <fix>3d</fix>
</trkpt>
<trkpt lat="40.0713749" lon="-105.229789">
  <ele>1583.0</ele>
  <time>2026-08-28T17:52:31Z</time>
  <course>0.0</course>
  <speed>0.0</speed>
  <fix>3d</fix>
</trkpt>
<trkpt lat="40.0713749" lon="-105.229789">
  <ele>1582.93</ele>
  <time>2026-08-28T17:52:31Z</time>
  <course>247.55</course>
  <speed>0.01</speed>
  <fix>3d</fix>
</trkpt>
<trkpt lat="40.0713749" lon="-105.229789">
  <ele>1583.0</ele>
  <time>2026-08-28T17:52:31Z</time>
  <course>0.0</course>
  <speed>0.0</speed>
  <fix>3d</fix>
</trkpt>
<trkpt lat="40.0713749" lon="-105.229789">
  <ele>1582.93</ele>
  <time>2026-08-28T17:52:31Z</time>
  <course>247.54</course>
  <speed>0.02</speed>
  <fix>3d</fix>
</trkpt>
<trkpt lat="40.0713749" lon="-105.229789">
  <ele>1583.0</ele>
  <time>2026-08-28T17:52:31Z</time>
  <course>0.0</course>
  <speed>0.0</speed>
  <fix>3d</fix>
</trkpt>
<trkpt lat="40.0713749" lon="-105.229789">
  <ele>1582.93</ele>
  <time>2026-08-28T17:52:31Z</time>
  <course>247.54</course>
  <speed>0.02</speed>
  <fix>3d</fix>
</trkpt>
<trkpt lat="40.0713749" lon="-105.229789">
  <ele>1583.0</ele>
  <time>2026-08-28T17:52:31Z</time>
  <course>0.0</course>
  <speed>0.0</speed>
  <fix>3d</fix>
</trkpt>
<trkpt lat="40.0713749" lon="-105.229789">
  <ele>1582.93</ele>
  <time>2026-08-28T17:52:31Z</time>
  <course>247.54</course>
  <speed>0.02</speed>
  <fix>3d</fix>
</trkpt>
<trkpt lat="40.0713749" lon="-105.229789">
  <ele>1583.0</ele>
  <time>2026-08-28T17:52:31Z</time>
  <course>0.0</course>
  <speed>0.0</speed>
  <fix>3d</fix>
</trkpt>
<trkpt lat="40.0713749" lon="-105.229789">
  <ele>1582.93</ele>
  <time>2026-08-28T17:52:31Z</time>
  <course>247.54</course>
  <speed>0.022360679774997897</speed>
  <fix>3d</fix>
</trkpt>
<trkpt lat="40.0713749" lon="-105.229789">
  <ele>1583.0</ele>
  <time>2026-08-28T17:52:31Z</time>
  <course>0.0</course>
  <speed>0.0</speed>
  <fix>3d</fix>
</trkpt>
<trkpt lat="40.0713749" lon="-105.229789">
  <ele>1582.94</ele>
  <time>2026-08-28T17:52:31Z</time>
  <course>247.53</course>
  <speed>0.022360679774997897</speed>
  <fix>3d</fix>
</trkpt>
<trkpt lat="40.0713749" lon="-105.229789">
  <ele>1583.0</ele>
  <time>2026-08-28T17:52:31Z</time>
  <course>0.0</course>
  <speed>0.0</speed>
  <fix>3d</fix>
</trkpt>
<trkpt lat="40.0713749" lon="-105.229789">
  <ele>1582.94</ele>
  <time>2026-08-28T17:52:31Z</time>
  <course>247.53</course>
  <speed>0.022360679774997897</speed>
  <fix>3d</fix>
</trkpt>
<trkpt lat="40.0713749" lon="-105.229789">
  <ele>1583.0</ele>
  <time>2026-08-28T17:52:31Z</time>
  <course>0.0</course>
  <speed>0.0</speed>
  <fix>3d</fix>
</trkpt>
<trkpt lat="40.071375" lon="-105.229789">
  <ele>1582.94</ele>
  <time>2026-08-28T17:52:31Z</time>
  <course>247.53</course>
  <speed>0.022360679774997897</speed>
  <fix>3d</fix>
</trkpt>
<trkpt lat="40.0713749" lon="-105.229789">
  <ele>1583.0</ele>
  <time>2026-08-28T17:52:31Z</time>
  <course>0.0</course>
  <speed>0.0</speed>
  <fix>3d</fix>
</trkpt>
<trkpt lat="40.071375" lon="-105.229789">
  <ele>1582.95</ele>
  <time>2026-08-28T17:52:31Z</time>
  <course>247.53</course>
  <speed>0.022360679774997897</speed>
  <fix>3d</fix>
</trkpt>
<trkpt lat="40.0713749" lon="-105.229789">
  <ele>1583.0</ele>
  <time>2026-08-28T17:52:31Z</time>
  <course>0.0</course>
  <speed>0.0</speed>
  <fix>3d</fix>
</trkpt>
<trkpt lat="40.071375" lon="-105.229789">
  <ele>1582.95</ele>
  <time>2026-08-28T17:52:31Z</time>
  <course>247.53</course>
  <speed>0.022360679774997897</speed>
  <fix>3d</fix>
</trkpt>
<trkpt lat="40.0713749" lon="-105.229789">
  <ele>1583.0</ele>
  <time>2026-08-28T17:52:31Z</time>
  <course>0.0</course>
  <speed>0.0</speed>
  <fix>3d</fix>
</trkpt>
<trkpt lat="40.071375" lon="-105.229789">
  <ele>1582.95</ele>
  <time>2026-08-28T17:52:31Z</time>
  <course>247.52</course>
  <speed>0.022360679774997897</speed>
  <fix>3d</fix>
</trkpt>
<trkpt lat="40.0713749" lon="-105.229789">
  <ele>1583.0</ele>
  <time>2026-08-28T17:52:31Z</time>
  <course>0.0</course>
  <speed>0.0</speed>
  <fix>3d</fix>
</trkpt>
<trkpt lat="40.071375" lon="-105.229789">
  <ele>1582.95</ele>
  <time>2026-08-28T17:52:31Z</time>
  <course>247.52</course>
  <speed>0.022360679774997897</speed>
  <fix>3d</fix>
</trkpt>
<trkpt lat="40.0713749" lon="-105.229789">
  <ele>1583.0</ele>
  <time>2026-08-28T17:52:31Z</time>
  <course>0.0</course>
  <speed>0.0</speed>
  <fix>3d</fix>
</trkpt>
<trkpt lat="40.071375" lon="-105.229789">
  <ele>1582.95</ele>
  <time>2026-08-28T17:52:31Z</time>
  <course>247.52</course>
  <speed>0.022360679774997897</speed>
  <fix>3d</fix>
</trkpt>
<trkpt lat="40.0713749" lon="-105.229789">
  <ele>1583.0</ele>
  <time>2026-08-28T17:52:31Z</time>
  <course>0.0</course>
  <speed>0.0</speed>
  <fix>3d</fix>
</trkpt>
<trkpt lat="40.071375" lon="-105.229789">
  <ele>1582.95</ele>
  <time>2026-08-28T17:52:31Z</time>
  <course>247.52</course>
  <speed>0.022360679774997897</speed>
  <fix>3d</fix>
</trkpt>
<trkpt lat="40.0713749" lon="-105.229789">
  <ele>1583.0</ele>
  <time>2026-08-28T17:52:31Z</time>
  <course>0.0</course>
  <speed>0.0</speed>
  <fix>3d</fix>
</trkpt>
<trkpt lat="40.071375" lon="-105.229789">
  <ele>1582.95</ele>
  <time>2026-08-28T17:52:31Z</time>
  <course>247.51</course>
  <speed>0.0316227766016838</speed>
  <fix>3d</fix>
</trkpt>
<trkpt lat="40.0713749" lon="-105.229789">
  <ele>1583.0</ele>
  <time>2026-08-28T17:52:31Z</time>
  <course>0.0</course>
  <speed>0.0</speed>
  <fix>3d</fix>
</trkpt>
<trkpt lat="40.071375" lon="-105.229789">
  <ele>1582.95</ele>
  <time>2026-08-28T17:52:31Z</time>
  <course>247.51</course>
  <speed>0.0316227766016838</speed>
  <fix>3d</fix>
</trkpt>
<trkpt lat="40.0713749" lon="-105.229789">
  <ele>1583.0</ele>
  <time>2026-08-28T17:52:31Z</time>
  <course>0.0</course>
  <speed>0.0</speed>
  <fix>3d</fix>
</trkpt>
<trkpt lat="40.071375" lon="-105.229789">
  <ele>1582.95</ele>
  <time>2026-08-28T17:52:31Z</time>
  <course>247.51</course>
  <speed>0.0316227766016838</speed>
  <fix>3d</fix>
</trkpt>
<trkpt lat="40.0713749" lon="-105.229789">
  <ele>1583.0</ele>
  <time>2026-08-28T17:52:31Z</time>
  <course>0.0</course>
  <speed>0.0</speed>
  <fix>3d</fix>
</trkpt>
<trkpt lat="40.071375" lon="-105.2297889">
  <ele>1582.95</ele>
  <time>2026-08-28T17:52:31Z</time>
  <course>247.51</course>
  <speed>0.0316227766016838</speed>
  <fix>3d</fix>
</trkpt>
<trkpt lat="40.0713749" lon="-105.229789">
  <ele>1583.0</ele>
  <time>2026-08-28T17:52:31Z</time>
  <course>0.0</course>
  <speed>0.0</speed>
  <fix>3d</fix>
</trkpt>
<trkpt lat="40.071375" lon="-105.2297889">
  <ele>1582.95</ele>
  <time>2026-08-28T17:52:31Z</time>
  <course>247.51</course>
  <speed>0.0316227766016838</speed>
  <fix>3d</fix>
</trkpt>
<trkpt lat="40.0713749" lon="-105.229789">
  <ele>1583.0</ele>
  <time>2026-08-28T17:52:31Z</time>
  <course>0.0</course>
  <speed>0.0</speed>
  <fix>3d</fix>
</trkpt>
<trkpt lat="40.071375" lon="-105.2297889">
  <ele>1582.95</ele>
  <time>2026-08-28T17:52:31Z</time>
  <course>247.5</course>
  <speed>0.0316227766016838</speed>
  <fix>3d</fix>
</trkpt>
<trkpt lat="40.0713749" lon="-105.229789">
  <ele>1583.0</ele>
  <time>2026-08-28T17:52:31Z</time>
  <course>0.0</course>
  <speed>0.0</speed>
  <fix>3d</fix>
</trkpt>
<trkpt lat="40.071375" lon="-105.2297889">
  <ele>1582.95</ele>
  <time>2026-08-28T17:52:31Z</time>
  <course>247.5</course>
  <speed>0.0316227766016838</speed>
  <fix>3d</fix>
</trkpt>
<trkpt lat="40.0713749" lon="-105.229789">
  <ele>1583.0</ele>
  <time>2026-08-28T17:52:31Z</time>
  <course>0.0</course>
  <speed>0.0</speed>
  <fix>3d</fix>
</trkpt>
<trkpt lat="40.071375" lon="-105.2297889">
  <ele>1582.95</ele>
  <time>2026-08-28T17:52:31Z</time>
  <course>247.5</course>
  <speed>0.0316227766016838</speed>
  <fix>3d</fix>
</trkpt>
<trkpt lat="40.0713749" lon="-105.229789">
  <ele>1583.0</ele>
  <time>2026-08-28T17:52:31Z</time>
  <course>0.0</course>
  <speed>0.0</speed>
  <fix>3d</fix>
</trkpt>
<trkpt lat="40.0713751" lon="-105.2297889">
  <ele>1582.95</ele>
  <time>2026-08-28T17:52:31Z</time>
  <course>247.5</course>
  <speed>0.0316227766016838</speed>
  <fix>3d</fix>
</trkpt>
<trkpt lat="40.0713749" lon="-105.229789">
  <ele>1583.0</ele>
  <time>2026-08-28T17:52:31Z</time>
  <course>0.0</course>
  <speed>0.0</speed>
  <fix>3d</fix>
</trkpt>
<trkpt lat="40.0713751" lon="-105.2297889">
  <ele>1582.96</ele>
  <time>2026-08-28T17:52:31Z</time>
  <course>247.49</course>
  <speed>0.0316227766016838</speed>
  <fix>3d</fix>
</trkpt>
<trkpt lat="40.0713749" lon="-105.229789">
  <ele>1583.0</ele>
  <time>2026-08-28T17:52:31Z</time>
  <course>0.0</course>
  <speed>0.0</speed>
  <fix>3d</fix>
</trkpt>
<trkpt lat="40.0713751" lon="-105.2297889">
  <ele>1582.96</ele>
  <time>2026-08-28T17:52:31Z</time>
  <course>247.49</course>
  <speed>0.0316227766016838</speed>
  <fix>3d</fix>
</trkpt>
<trkpt lat="40.0713749" lon="-105.229789">
  <ele>1583.0</ele>
  <time>2026-08-28T17:52:31Z</time>
  <course>0.0</course>
  <speed>0.0</speed>
  <fix>3d</fix>
</trkpt>
<trkpt lat="40.0713751" lon="-105.2297889">
  <ele>1582.97</ele>
  <time>2026-08-28T17:52:31Z</time>
  <course>247.49</course>
  <speed>0.0316227766016838</speed>
  <fix>3d</fix>
</trkpt>
<trkpt lat="40.0713749" lon="-105.229789">
  <ele>1583.0</ele>
  <time>2026-08-28T17:52:31Z</time>
  <course>0.0</course>
  <speed>0.0</speed>
  <fix>3d</fix>
</trkpt>
<trkpt lat="40.0713751" lon="-105.2297889">
  <ele>1582.98</ele>
  <time>2026-08-28T17:52:31Z</time>
  <course>247.49</course>
  <speed>0.0316227766016838</speed>
  <fix>3d</fix>
</trkpt>
<trkpt lat="40.0713749" lon="-105.229789">
  <ele>1583.0</ele>
  <time>2026-08-28T17:52:31Z</time>
  <course>0.0</course>
  <speed>0.0</speed>
  <fix>3d</fix>
</trkpt>
<trkpt lat="40.0713751" lon="-105.2297889">
  <ele>1582.98</ele>
  <time>2026-08-28T17:52:31Z</time>
  <course>247.49</course>
  <speed>0.0316227766016838</speed>
  <fix>3d</fix>
</trkpt>
<trkpt lat="40.0713749" lon="-105.229789">
  <ele>1583.0</ele>
  <time>2026-08-28T17:52:31Z</time>
  <course>0.0</course>
  <speed>0.0</speed>
  <fix>3d</fix>
</trkpt>
<trkpt lat="40.0713751" lon="-105.2297889">
  <ele>1582.99</ele>
  <time>2026-08-28T17:52:31Z</time>
  <course>247.48</course>
  <speed>0.0316227766016838</speed>
  <fix>3d</fix>
</trkpt>
<trkpt lat="40.0713749" lon="-105.229789">
  <ele>1583.0</ele>
  <time>2026-08-28T17:52:31Z</time>
  <course>0.0</course>
  <speed>0.0</speed>
  <fix>3d</fix>
</trkpt>
<trkpt lat="40.0713751" lon="-105.2297889">
  <ele>1583.0</ele>
  <time>2026-08-28T17:52:31Z</time>
  <course>247.48</course>
  <speed>0.022360679774997897</speed>
  <fix>3d</fix>
</trkpt>
<trkpt lat="40.0713749" lon="-105.229789">
  <ele>1583.0</ele>
  <time>2026-08-28T17:52:31Z</time>
  <course>0.0</course>
  <speed>0.0</speed>
  <fix>3d</fix>
</trkpt>
<trkpt lat="40.0713751" lon="-105.2297889">
  <ele>1583.01</ele>
  <time>2026-08-28T17:52:31Z</time>
  <course>247.48</course>
  <speed>0.022360679774997897</speed>
  <fix>3d</fix>
</trkpt>
<trkpt lat="40.0713749" lon="-105.229789">
  <ele>1583.0</ele>
  <time>2026-08-28T17:52:31Z</time>
  <course>0.0</course>
  <speed>0.0</speed>
  <fix>3d</fix>
</trkpt>
<trkpt lat="40.0713751" lon="-105.2297889">
  <ele>1583.01</ele>
  <time>2026-08-28T17:52:31Z</time>
  <course>247.48</course>
  <speed>0.022360679774997897</speed>
  <fix>3d</fix>
</trkpt>
<trkpt lat="40.0713749" lon="-105.229789">
  <ele>1583.0</ele>
  <time>2026-08-28T17:52:31Z</time>
  <course>0.0</course>
  <speed>0.0</speed>
  <fix>3d</fix>
</trkpt>
<trkpt lat="40.0713751" lon="-105.2297889">
  <ele>1583.01</ele>
  <time>2026-08-28T17:52:31Z</time>
  <course>247.47</course>
  <speed>0.022360679774997897</speed>
  <fix>3d</fix>
</trkpt>
<trkpt lat="40.0713749" lon="-105.229789">
  <ele>1583.0</ele>
  <time>2026-08-28T17:52:31Z</time>
  <course>0.0</course>
  <speed>0.0</speed>
  <fix>3d</fix>
</trkpt>
<trkpt lat="40.0713751" lon="-105.2297889">
  <ele>1583.01</ele>
  <time>2026-08-28T17:52:31Z</time>
  <course>247.47</course>
  <speed>0.022360679774997897</speed>
  <fix>3d</fix>
</trkpt>
<trkpt lat="40.0713749" lon="-105.229789">
  <ele>1583.0</ele>
  <time>2026-08-28T17:52:31Z</time>
  <course>0.0</course>
  <speed>0.0</speed>
  <fix>3d</fix>
</trkpt>
<trkpt lat="40.0713751" lon="-105.2297889">
  <ele>1583.01</ele>
  <time>2026-08-28T17:52:31Z</time>
  <course>247.47</course>
  <speed>0.022360679774997897</speed>
  <fix>3d</fix>
</trkpt>
<trkpt lat="40.0713749" lon="-105.229789">
  <ele>1583.0</ele>
  <time>2026-08-28T17:52:31Z</time>
  <course>0.0</course>
  <speed>0.0</speed>
  <fix>3d</fix>
</trkpt>
<trkpt lat="40.071375" lon="-105.2297889">
  <ele>1583.0</ele>
  <time>2026-08-28T17:52:31Z</time>
  <course>247.47</course>
  <speed>0.022360679774997897</speed>
  <fix>3d</fix>
</trkpt>
<trkpt lat="40.0713749" lon="-105.229789">
  <ele>1583.0</ele>
  <time>2026-08-28T17:52:31Z</time>
  <course>0.0</course>
  <speed>0.0</speed>
  <fix>3d</fix>
</trkpt>
<trkpt lat="40.0713751" lon="-105.2297889">
  <ele>1583.0</ele>
  <time>2026-08-28T17:52:31Z</time>
  <course>247.47</course>
  <speed>0.022360679774997897</speed>
  <fix>3d</fix>
</trkpt>
<trkpt lat="40.0713749" lon="-105.229789">
  <ele>1583.0</ele>
  <time>2026-08-28T17:52:31Z</time>
  <course>0.0</course>
  <speed>0.0</speed>
  <fix>3d</fix>
</trkpt>
<trkpt lat="40.071375" lon="-105.2297889">
  <ele>1583.0</ele>
  <time>2026-08-28T17:52:31Z</time>
  <course>247.46</course>
  <speed>0.022360679774997897</speed>
  <fix>3d</fix>
</trkpt>
<trkpt lat="40.0713749" lon="-105.229789">
  <ele>1583.0</ele>
  <time>2026-08-28T17:52:31Z</time>
  <course>0.0</course>
  <speed>0.0</speed>
  <fix>3d</fix>
</trkpt>
<trkpt lat="40.071375" lon="-105.2297889">
  <ele>1582.99</ele>
  <time>2026-08-28T17:52:31Z</time>
  <course>247.46</course>
  <speed>0.022360679774997897</speed>
  <fix>3d</fix>
</trkpt>
<trkpt lat="40.0713749" lon="-105.229789">
  <ele>1583.0</ele>
  <time>2026-08-28T17:52:31Z</time>
  <course>0.0</course>
  <speed>0.0</speed>
  <fix>3d</fix>
</trkpt>
<trkpt lat="40.071375" lon="-105.2297889">
  <ele>1582.99</ele>
  <time>2026-08-28T17:52:31Z</time>
  <course>247.46</course>
  <speed>0.022360679774997897</speed>
  <fix>3d</fix>
</trkpt>
<trkpt lat="40.0713749" lon="-105.229789">
  <ele>1583.0</ele>
  <time>2026-08-28T17:52:31Z</time>
  <course>0.0</course>
  <speed>0.0</speed>
  <fix>3d</fix>
</trkpt>
<trkpt lat="40.071375" lon="-105.2297889">
  <ele>1582.99</ele>
  <time>2026-08-28T17:52:31Z</time>
  <course>247.46</course>
  <speed>0.022360679774997897</speed>
  <fix>3d</fix>
</trkpt>
<trkpt lat="40.0713749" lon="-105.229789">
  <ele>1583.0</ele>
  <time>2026-08-28T17:52:31Z</time>
  <course>0.0</course>
  <speed>0.0</speed>
  <fix>3d</fix>
</trkpt>
<trkpt lat="40.071375" lon="-105.2297889">
  <ele>1582.99</ele>
  <time>2026-08-28T17:52:31Z</time>
  <course>247.45</course>
  <speed>0.022360679774997897</speed>
  <fix>3d</fix>
</trkpt>
<trkpt lat="40.0713749" lon="-105.229789">
  <ele>1583.0</ele>
  <time>2026-08-28T17:52:31Z</time>
  <course>0.0</course>
  <speed>0.0</speed>
  <fix>3d</fix>
</trkpt>
<trkpt lat="40.071375" lon="-105.2297889">
  <ele>1582.99</ele>
  <time>2026-08-28T17:52:31Z</time>
  <course>247.45</course>
  <speed>0.022360679774997897</speed>
  <fix>3d</fix>
</trkpt>
<trkpt lat="40.0713749" lon="-105.229789">
  <ele>1583.0</ele>
  <time>2026-08-28T17:52:31Z</time>
  <course>0.0</course>
  <speed>0.0</speed>
  <fix>3d</fix>
</trkpt>
<trkpt lat="40.071375" lon="-105.2297889">
  <ele>1582.99</ele>
  <time>2026-08-28T17:52:31Z</time>
  <course>247.45</course>
  <speed>0.022360679774997897</speed>
  <fix>3d</fix>
</trkpt>
<trkpt lat="40.0713749" lon="-105.229789">
  <ele>1583.0</ele>
  <time>2026-08-28T17:52:31Z</time>
  <course>0.0</course>
  <speed>0.0</speed>
  <fix>3d</fix>
</trkpt>
<trkpt lat="40.071375" lon="-105.2297889">
  <ele>1582.99</ele>
  <time>2026-08-28T17:52:31Z</time>
  <course>247.45</course>
  <speed>0.022360679774997897</speed>
  <fix>3d</fix>
</trkpt>
<trkpt lat="40.0713749" lon="-105.229789">
  <ele>1583.0</ele>
  <time>2026-08-28T17:52:31Z</time>
  <course>0.0</course>
  <speed>0.0</speed>
  <fix>3d</fix>
</trkpt>
<trkpt lat="40.071375" lon="-105.2297889">
  <ele>1583.0</ele>
  <time>2026-08-28T17:52:31Z</time>
  <course>247.45</course>
  <speed>0.022360679774997897</speed>
  <fix>3d</fix>
</trkpt>
<trkpt lat="40.0713749" lon="-105.229789">
  <ele>1583.0</ele>
  <time>2026-08-28T17:52:31Z</time>
  <course>0.0</course>
  <speed>0.0</speed>
  <fix>3d</fix>
</trkpt>
<trkpt lat="40.071375" lon="-105.2297889">
  <ele>1583.0</ele>
  <time>2026-08-28T17:52:31Z</time>
  <course>247.44</course>
  <speed>0.022360679774997897</speed>
  <fix>3d</fix>
</trkpt>
<trkpt lat="40.0713749" lon="-105.229789">
  <ele>1583.0</ele>
  <time>2026-08-28T17:52:31Z</time>
  <course>0.0</course>
  <speed>0.0</speed>
  <fix>3d</fix>
</trkpt>
<trkpt lat="40.071375" lon="-105.229789">
  <ele>1583.0</ele>
  <time>2026-08-28T17:52:31Z</time>
  <course>247.44</course>
  <speed>0.02</speed>
  <fix>3d</fix>
</trkpt>
<trkpt lat="40.0713749" lon="-105.229789">
  <ele>1583.0</ele>
  <time>2026-08-28T17:52:31Z</time>
  <course>0.0</course>
  <speed>0.0</speed>
  <fix>3d</fix>
</trkpt>
<trkpt lat="40.071375" lon="-105.229789">
  <ele>1583.0</ele>
  <time>2026-08-28T17:52:31Z</time>
  <course>247.44</course>
  <speed>0.02</speed>
  <fix>3d</fix>
</trkpt>
<trkpt lat="40.0713749" lon="-105.229789">
  <ele>1583.0</ele>
  <time>2026-08-28T17:52:31Z</time>
  <course>0.0</course>
  <speed>0.0</speed>
  <fix>3d</fix>
</trkpt>
<trkpt lat="40.071375" lon="-105.229789">
  <ele>1583.0</ele>
  <time>2026-08-28T17:52:31Z</time>
  <course>247.44</course>
  <speed>0.02</speed>
  <fix>3d</fix>
</trkpt>
<trkpt lat="40.0713749" lon="-105.229789">
  <ele>1583.0</ele>
  <time>2026-08-28T17:52:31Z</time>
  <course>0.0</course>
  <speed>0.0</speed>
  <fix>3d</fix>
</trkpt>
<trkpt lat="40.071375" lon="-105.229789">
  <ele>1583.01</ele>
  <time>2026-08-28T17:52:31Z</time>
  <course>247.43</course>
  <speed>0.02</speed>
  <fix>3d</fix>
</trkpt>
<trkpt lat="40.0713749" lon="-105.229789">
  <ele>1583.0</ele>
  <time>2026-08-28T17:52:31Z</time>
  <course>0.0</course>
  <speed>0.0</speed>
  <fix>3d</fix>
</trkpt>
<trkpt lat="40.071375" lon="-105.229789">
  <ele>1583.01</ele>
  <time>2026-08-28T17:52:31Z</time>
  <course>247.43</course>
  <speed>0.02</speed>
  <fix>3d</fix>
</trkpt>
<trkpt lat="40.0713749" lon="-105.229789">
  <ele>1583.0</ele>
  <time>2026-08-28T17:52:31Z</time>
  <course>0.0</course>
  <speed>0.0</speed>
  <fix>3d</fix>
</trkpt>
<trkpt lat="40.071375" lon="-105.229789">
  <ele>1583.01</ele>
  <time>2026-08-28T17:52:31Z</time>
  <course>247.43</course>
  <speed>0.02</speed>
  <fix>3d</fix>
</trkpt>
<trkpt lat="40.0713749" lon="-105.229789">
  <ele>1583.0</ele>
  <time>2026-08-28T17:52:31Z</time>
  <course>0.0</course>
  <speed>0.0</speed>
  <fix>3d</fix>
</trkpt>
<trkpt lat="40.071375" lon="-105.229789">
  <ele>1583.01</ele>
  <time>2026-08-28T17:52:31Z</time>
  <course>247.43</course>
  <speed>0.02</speed>
  <fix>3d</fix>
</trkpt>
<trkpt lat="40.0713749" lon="-105.229789">
  <ele>1583.0</ele>
  <time>2026-08-28T17:52:31Z</time>
  <course>0.0</course>
  <speed>0.0</speed>
  <fix>3d</fix>
</trkpt>
<trkpt lat="40.071375" lon="-105.229789">
  <ele>1583.01</ele>
  <time>2026-08-28T17:52:31Z</time>
  <course>247.43</course>
  <speed>0.02</speed>
  <fix>3d</fix>
</trkpt>
<trkpt lat="40.0713749" lon="-105.229789">
  <ele>1583.0</ele>
  <time>2026-08-28T17:52:31Z</time>
  <course>0.0</course>
  <speed>0.0</speed>
  <fix>3d</fix>
</trkpt>
<trkpt lat="40.071375" lon="-105.229789">
  <ele>1583.01</ele>
  <time>2026-08-28T17:52:31Z</time>
  <course>247.42</course>
  <speed>0.02</speed>
  <fix>3d</fix>
</trkpt>
<trkpt lat="40.0713749" lon="-105.229789">
  <ele>1583.0</ele>
  <time>2026-08-28T17:52:31Z</time>
  <course>0.0</course>
  <speed>0.0</speed>
  <fix>3d</fix>
</trkpt>
<trkpt lat="40.071375" lon="-105.229789">
  <ele>1583.01</ele>
  <time>2026-08-28T17:52:31Z</time>
  <course>247.42</course>
  <speed>0.02</speed>
  <fix>3d</fix>
</trkpt>
<trkpt lat="40.0713749" lon="-105.229789">
  <ele>1583.0</ele>
  <time>2026-08-28T17:52:31Z</time>
  <course>0.0</course>
  <speed>0.0</speed>
  <fix>3d</fix>
</trkpt>
<trkpt lat="40.071375" lon="-105.229789">
  <ele>1583.02</ele>
  <time>2026-08-28T17:52:31Z</time>
  <course>247.42</course>
  <speed>0.02</speed>
  <fix>3d</fix>
</trkpt>
<trkpt lat="40.0713749" lon="-105.229789">
  <ele>1583.0</ele>
  <time>2026-08-28T17:52:31Z</time>
  <course>0.0</course>
  <speed>0.0</speed>
  <fix>3d</fix>
</trkpt>
<trkpt lat="40.071375" lon="-105.229789">
  <ele>1583.01</ele>
  <time>2026-08-28T17:52:31Z</time>
  <course>247.42</course>
  <speed>0.02</speed>
  <fix>3d</fix>
</trkpt>
<trkpt lat="40.0713749" lon="-105.229789">
  <ele>1583.0</ele>
  <time>2026-08-28T17:52:31Z</time>
  <course>0.0</course>
  <speed>0.0</speed>
  <fix>3d</fix>
</trkpt>
<trkpt lat="40.071375" lon="-105.229789">
  <ele>1583.01</ele>
  <time>2026-08-28T17:52:32Z</time>
  <course>247.42</course>
  <speed>0.02</speed>
  <fix>3d</fix>
</trkpt>
<trkpt lat="40.0713749" lon="-105.229789">
  <ele>1583.0</ele>
  <time>2026-08-28T17:52:32Z</time>
  <course>0.0</course>
  <speed>0.0</speed>
  <fix>3d</fix>
</trkpt>
<trkpt lat="40.071375" lon="-105.229789">
  <ele>1583.01</ele>
  <time>2026-08-28T17:52:32Z</time>
  <course>247.41</course>
  <speed>0.02</speed>
  <fix>3d</fix>
</trkpt>
<trkpt lat="40.0713749" lon="-105.229789">
  <ele>1583.0</ele>
  <time>2026-08-28T17:52:32Z</time>
  <course>0.0</course>
  <speed>0.0</speed>
  <fix>3d</fix>
</trkpt>
<trkpt lat="40.071375" lon="-105.229789">
  <ele>1583.01</ele>
  <time>2026-08-28T17:52:32Z</time>
  <course>247.41</course>
  <speed>0.02</speed>
  <fix>3d</fix>
</trkpt>
<trkpt lat="40.0713749" lon="-105.229789">
  <ele>1583.0</ele>
  <time>2026-08-28T17:52:32Z</time>
  <course>0.0</course>
  <speed>0.0</speed>
  <fix>3d</fix>
</trkpt>
<trkpt lat="40.071375" lon="-105.229789">
  <ele>1583.01</ele>
  <time>2026-08-28T17:52:32Z</time>
  <course>247.41</course>
  <speed>0.02</speed>
  <fix>3d</fix>
</trkpt>
<trkpt lat="40.0713749" lon="-105.229789">
  <ele>1583.0</ele>
  <time>2026-08-28T17:52:32Z</time>
  <course>0.0</course>
  <speed>0.0</speed>
  <fix>3d</fix>
</trkpt>
<trkpt lat="40.071375" lon="-105.229789">
  <ele>1583.01</ele>
  <time>2026-08-28T17:52:32Z</time>
  <course>247.41</course>
  <speed>0.02</speed>
  <fix>3d</fix>
</trkpt>
<trkpt lat="40.0713749" lon="-105.229789">
  <ele>1583.0</ele>
  <time>2026-08-28T17:52:32Z</time>
  <course>0.0</course>
  <speed>0.0</speed>
  <fix>3d</fix>
</trkpt>
<trkpt lat="40.071375" lon="-105.229789">
  <ele>1583.02</ele>
  <time>2026-08-28T17:52:32Z</time>
  <course>247.41</course>
  <speed>0.02</speed>
  <fix>3d</fix>
</trkpt>
<trkpt lat="40.0713749" lon="-105.229789">
  <ele>1583.0</ele>
  <time>2026-08-28T17:52:32Z</time>
  <course>0.0</course>
  <speed>0.0</speed>
  <fix>3d</fix>
</trkpt>
<trkpt lat="40.071375" lon="-105.229789">
  <ele>1583.02</ele>
  <time>2026-08-28T17:52:32Z</time>
  <course>247.4</course>
  <speed>0.02</speed>
  <fix>3d</fix>
</trkpt>
<trkpt lat="40.0713749" lon="-105.229789">
  <ele>1583.0</ele>
  <time>2026-08-28T17:52:32Z</time>
  <course>0.0</course>
  <speed>0.0</speed>
  <fix>3d</fix>
</trkpt>
<trkpt lat="40.071375" lon="-105.229789">
  <ele>1583.02</ele>
  <time>2026-08-28T17:52:32Z</time>
  <course>247.4</course>
  <speed>0.02</speed>
  <fix>3d</fix>
</trkpt>
<trkpt lat="40.0713749" lon="-105.229789">
  <ele>1583.0</ele>
  <time>2026-08-28T17:52:32Z</time>
  <course>0.0</course>
  <speed>0.0</speed>
  <fix>3d</fix>
</trkpt>
<trkpt lat="40.071375" lon="-105.229789">
  <ele>1583.02</ele>
  <time>2026-08-28T17:52:32Z</time>
  <course>247.4</course>
  <speed>0.02</speed>
  <fix>3d</fix>
</trkpt>
<trkpt lat="40.0713749" lon="-105.229789">
  <ele>1583.0</ele>
  <time>2026-08-28T17:52:32Z</time>
  <course>0.0</course>
  <speed>0.0</speed>
  <fix>3d</fix>
</trkpt>
<trkpt lat="40.071375" lon="-105.229789">
  <ele>1583.02</ele>
  <time>2026-08-28T17:52:32Z</time>
  <course>247.4</course>
  <speed>0.02</speed>
  <fix>3d</fix>
</trkpt>
<trkpt lat="40.0713749" lon="-105.229789">
  <ele>1583.0</ele>
  <time>2026-08-28T17:52:32Z</time>
  <course>0.0</course>
  <speed>0.0</speed>
  <fix>3d</fix>
</trkpt>
<trkpt lat="40.071375" lon="-105.229789">
  <ele>1583.02</ele>
  <time>2026-08-28T17:52:32Z</time>
  <course>247.4</course>
  <speed>0.02</speed>
  <fix>3d</fix>
</trkpt>
<trkpt lat="40.0713749" lon="-105.229789">
  <ele>1583.0</ele>
  <time>2026-08-28T17:52:32Z</time>
  <course>0.0</course>
  <speed>0.0</speed>
  <fix>3d</fix>
</trkpt>
<trkpt lat="40.071375" lon="-105.229789">
  <ele>1583.02</ele>
  <time>2026-08-28T17:52:32Z</time>
  <course>247.39</course>
  <speed>0.02</speed>
  <fix>3d</fix>
</trkpt>
<trkpt lat="40.0713749" lon="-105.229789">
  <ele>1583.0</ele>
  <time>2026-08-28T17:52:32Z</time>
  <course>0.0</course>
  <speed>0.0</speed>
  <fix>3d</fix>
</trkpt>
<trkpt lat="40.071375" lon="-105.229789">
  <ele>1583.03</ele>
  <time>2026-08-28T17:52:32Z</time>
  <course>247.39</course>
  <speed>0.01</speed>
  <fix>3d</fix>
</trkpt>
<trkpt lat="40.0713749" lon="-105.229789">
  <ele>1583.0</ele>
  <time>2026-08-28T17:52:32Z</time>
  <course>0.0</course>
  <speed>0.0</speed>
  <fix>3d</fix>
</trkpt>
<trkpt lat="40.071375" lon="-105.229789">
  <ele>1583.03</ele>
  <time>2026-08-28T17:52:32Z</time>
  <course>247.39</course>
  <speed>0.02</speed>
  <fix>3d</fix>
</trkpt>
<trkpt lat="40.0713749" lon="-105.229789">
  <ele>1583.0</ele>
  <time>2026-08-28T17:52:32Z</time>
  <course>0.0</course>
  <speed>0.0</speed>
  <fix>3d</fix>
</trkpt>
<trkpt lat="40.071375" lon="-105.229789">
  <ele>1583.03</ele>
  <time>2026-08-28T17:52:32Z</time>
  <course>247.39</course>
  <speed>0.02</speed>
  <fix>3d</fix>
</trkpt>
<trkpt lat="40.0713749" lon="-105.229789">
  <ele>1583.0</ele>
  <time>2026-08-28T17:52:32Z</time>
  <course>0.0</course>
  <speed>0.0</speed>
  <fix>3d</fix>
</trkpt>
<trkpt lat="40.071375" lon="-105.229789">
  <ele>1583.03</ele>
  <time>2026-08-28T17:52:32Z</time>
  <course>247.39</course>
  <speed>0.02</speed>
  <fix>3d</fix>
</trkpt>
<trkpt lat="40.0713749" lon="-105.229789">
  <ele>1583.0</ele>
  <time>2026-08-28T17:52:32Z</time>
  <course>0.0</course>
  <speed>0.0</speed>
  <fix>3d</fix>
</trkpt>
<trkpt lat="40.071375" lon="-105.229789">
  <ele>1583.04</ele>
  <time>2026-08-28T17:52:32Z</time>
  <course>247.38</course>
  <speed>0.02</speed>
  <fix>3d</fix>
</trkpt>
<trkpt lat="40.0713749" lon="-105.229789">
  <ele>1583.0</ele>
  <time>2026-08-28T17:52:32Z</time>
  <course>0.0</course>
  <speed>0.0</speed>
  <fix>3d</fix>
</trkpt>
<trkpt lat="40.071375" lon="-105.229789">
  <ele>1583.04</ele>
  <time>2026-08-28T17:52:32Z</time>
  <course>247.38</course>
  <speed>0.02</speed>
  <fix>3d</fix>
</trkpt>
<trkpt lat="40.0713749" lon="-105.229789">
  <ele>1583.0</ele>
  <time>2026-08-28T17:52:32Z</time>
  <course>0.0</course>
  <speed>0.0</speed>
  <fix>3d</fix>
</trkpt>
<trkpt lat="40.071375" lon="-105.229789">
  <ele>1583.05</ele>
  <time>2026-08-28T17:52:32Z</time>
  <course>247.38</course>
  <speed>0.02</speed>
  <fix>3d</fix>
</trkpt>
<trkpt lat="40.0713749" lon="-105.229789">
  <ele>1583.0</ele>
  <time>2026-08-28T17:52:32Z</time>
  <course>0.0</course>
  <speed>0.0</speed>
  <fix>3d</fix>
</trkpt>
<trkpt lat="40.071375" lon="-105.229789">
  <ele>1583.05</ele>
  <time>2026-08-28T17:52:32Z</time>
  <course>247.38</course>
  <speed>0.02</speed>
  <fix>3d</fix>
</trkpt>
<trkpt lat="40.0713749" lon="-105.229789">
  <ele>1583.0</ele>
  <time>2026-08-28T17:52:32Z</time>
  <course>0.0</course>
  <speed>0.0</speed>
  <fix>3d</fix>
</trkpt>
<trkpt lat="40.071375" lon="-105.229789">
  <ele>1583.05</ele>
  <time>2026-08-28T17:52:32Z</time>
  <course>247.38</course>
  <speed>0.02</speed>
  <fix>3d</fix>
</trkpt>
<trkpt lat="40.0713749" lon="-105.229789">
  <ele>1583.0</ele>
  <time>2026-08-28T17:52:32Z</time>
  <course>0.0</course>
  <speed>0.0</speed>
  <fix>3d</fix>
</trkpt>
<trkpt lat="40.071375" lon="-105.229789">
  <ele>1583.05</ele>
  <time>2026-08-28T17:52:32Z</time>
  <course>247.38</course>
  <speed>0.02</speed>
  <fix>3d</fix>
</trkpt>
<trkpt lat="40.0713749" lon="-105.229789">
  <ele>1583.0</ele>
  <time>2026-08-28T17:52:32Z</time>
  <course>0.0</course>
  <speed>0.0</speed>
  <fix>3d</fix>
</trkpt>
<trkpt lat="40.071375" lon="-105.229789">
  <ele>1583.05</ele>
  <time>2026-08-28T17:52:32Z</time>
  <course>247.37</course>
  <speed>0.02</speed>
  <fix>3d</fix>
</trkpt>
<trkpt lat="40.0713749" lon="-105.229789">
  <ele>1583.0</ele>
  <time>2026-08-28T17:52:32Z</time>
  <course>0.0</course>
  <speed>0.0</speed>
  <fix>3d</fix>
</trkpt>
<trkpt lat="40.071375" lon="-105.229789">
  <ele>1583.06</ele>
  <time>2026-08-28T17:52:32Z</time>
  <course>247.37</course>
  <speed>0.02</speed>
  <fix>3d</fix>
</trkpt>
<trkpt lat="40.0713749" lon="-105.229789">
  <ele>1583.0</ele>
  <time>2026-08-28T17:52:32Z</time>
  <course>0.0</course>
  <speed>0.0</speed>
  <fix>3d</fix>
</trkpt>
<trkpt lat="40.071375" lon="-105.229789">
  <ele>1583.06</ele>
  <time>2026-08-28T17:52:32Z</time>
  <course>247.37</course>
  <speed>0.02</speed>
  <fix>3d</fix>
</trkpt>
<trkpt lat="40.0713749" lon="-105.229789">
  <ele>1583.0</ele>
  <time>2026-08-28T17:52:32Z</time>
  <course>0.0</course>
  <speed>0.0</speed>
  <fix>3d</fix>
</trkpt>
<trkpt lat="40.071375" lon="-105.229789">
  <ele>1583.06</ele>
  <time>2026-08-28T17:52:32Z</time>
  <course>247.37</course>
  <speed>0.02</speed>
  <fix>3d</fix>
</trkpt>
<trkpt lat="40.0713749" lon="-105.229789">
  <ele>1583.0</ele>
  <time>2026-08-28T17:52:32Z</time>
  <course>0.0</course>
  <speed>0.0</speed>
  <fix>3d</fix>
</trkpt>
<trkpt lat="40.071375" lon="-105.229789">
  <ele>1583.06</ele>
  <time>2026-08-28T17:52:32Z</time>
  <course>247.37</course>
  <speed>0.02</speed>
  <fix>3d</fix>
</trkpt>
<trkpt lat="40.0713749" lon="-105.229789">
  <ele>1583.0</ele>
  <time>2026-08-28T17:52:32Z</time>
  <course>0.0</course>
  <speed>0.0</speed>
  <fix>3d</fix>
</trkpt>
<trkpt lat="40.071375" lon="-105.229789">
  <ele>1583.06</ele>
  <time>2026-08-28T17:52:32Z</time>
  <course>247.37</course>
  <speed>0.02</speed>
  <fix>3d</fix>
</trkpt>
<trkpt lat="40.0713749" lon="-105.229789">
  <ele>1583.0</ele>
  <time>2026-08-28T17:52:32Z</time>
  <course>0.0</course>
  <speed>0.0</speed>
  <fix>3d</fix>
</trkpt>
<trkpt lat="40.071375" lon="-105.229789">
  <ele>1583.06</ele>
  <time>2026-08-28T17:52:32Z</time>
  <course>247.36</course>
  <speed>0.02</speed>
  <fix>3d</fix>
</trkpt>
<trkpt lat="40.0713749" lon="-105.229789">
  <ele>1583.0</ele>
  <time>2026-08-28T17:52:32Z</time>
  <course>0.0</course>
  <speed>0.0</speed>
  <fix>3d</fix>
</trkpt>
<trkpt lat="40.071375" lon="-105.229789">
  <ele>1583.06</ele>
  <time>2026-08-28T17:52:32Z</time>
  <course>247.36</course>
  <speed>0.02</speed>
  <fix>3d</fix>
</trkpt>
<trkpt lat="40.0713749" lon="-105.229789">
  <ele>1583.0</ele>
  <time>2026-08-28T17:52:32Z</time>
  <course>0.0</course>
  <speed>0.0</speed>
  <fix>3d</fix>
</trkpt>
<trkpt lat="40.071375" lon="-105.229789">
  <ele>1583.06</ele>
  <time>2026-08-28T17:52:32Z</time>
  <course>247.36</course>
  <speed>0.02</speed>
  <fix>3d</fix>
</trkpt>
<trkpt lat="40.0713749" lon="-105.229789">
  <ele>1583.0</ele>
  <time>2026-08-28T17:52:32Z</time>
  <course>0.0</course>
  <speed>0.0</speed>
  <fix>3d</fix>
</trkpt>
<trkpt lat="40.071375" lon="-105.229789">
  <ele>1583.06</ele>
  <time>2026-08-28T17:52:32Z</time>
  <course>247.36</course>
  <speed>0.02</speed>
  <fix>3d</fix>
</trkpt>
<trkpt lat="40.0713749" lon="-105.229789">
  <ele>1583.0</ele>
  <time>2026-08-28T17:52:32Z</time>
  <course>0.0</course>
  <speed>0.0</speed>
  <fix>3d</fix>
</trkpt>
<trkpt lat="40.071375" lon="-105.229789">
  <ele>1583.06</ele>
  <time>2026-08-28T17:52:32Z</time>
  <course>247.36</course>
  <speed>0.02</speed>
  <fix>3d</fix>
</trkpt>
<trkpt lat="40.0713749" lon="-105.229789">
  <ele>1583.0</ele>
  <time>2026-08-28T17:52:32Z</time>
  <course>0.0</course>
  <speed>0.0</speed>
  <fix>3d</fix>
</trkpt>
<trkpt lat="40.071375" lon="-105.229789">
  <ele>1583.05</ele>
  <time>2026-08-28T17:52:32Z</time>
  <course>247.35</course>
  <speed>0.02</speed>
  <fix>3d</fix>
</trkpt>
<trkpt lat="40.0713749" lon="-105.229789">
  <ele>1583.0</ele>
  <time>2026-08-28T17:52:32Z</time>
  <course>0.0</course>
  <speed>0.0</speed>
  <fix>3d</fix>
</trkpt>
<trkpt lat="40.071375" lon="-105.229789">
  <ele>1583.05</ele>
  <time>2026-08-28T17:52:32Z</time>
  <course>247.35</course>
  <speed>0.02</speed>
  <fix>3d</fix>
</trkpt>
<trkpt lat="40.0713749" lon="-105.229789">
  <ele>1583.0</ele>
  <time>2026-08-28T17:52:32Z</time>
  <course>0.0</course>
  <speed>0.0</speed>
  <fix>3d</fix>
</trkpt>
<trkpt lat="40.071375" lon="-105.229789">
  <ele>1583.04</ele>
  <time>2026-08-28T17:52:32Z</time>
  <course>247.35</course>
  <speed>0.02</speed>
  <fix>3d</fix>
</trkpt>
<trkpt lat="40.0713749" lon="-105.229789">
  <ele>1583.0</ele>
  <time>2026-08-28T17:52:32Z</time>
  <course>0.0</course>
  <speed>0.0</speed>
  <fix>3d</fix>
</trkpt>
<trkpt lat="40.071375" lon="-105.229789">
  <ele>1583.04</ele>
  <time>2026-08-28T17:52:32Z</time>
  <course>247.35</course>
  <speed>0.02</speed>
  <fix>3d</fix>
</trkpt>
<trkpt lat="40.0713749" lon="-105.229789">
  <ele>1583.0</ele>
  <time>2026-08-28T17:52:32Z</time>
  <course>0.0</course>
  <speed>0.0</speed>
  <fix>3d</fix>
</trkpt>
<trkpt lat="40.071375" lon="-105.229789">
  <ele>1583.04</ele>
  <time>2026-08-28T17:52:32Z</time>
  <course>247.35</course>
  <speed>0.02</speed>
  <fix>3d</fix>
</trkpt>
<trkpt lat="40.0713749" lon="-105.229789">
  <ele>1583.0</ele>
  <time>2026-08-28T17:52:32Z</time>
  <course>0.0</course>
  <speed>0.0</speed>
  <fix>3d</fix>
</trkpt>
<trkpt lat="40.071375" lon="-105.229789">
  <ele>1583.03</ele>
  <time>2026-08-28T17:52:32Z</time>
  <course>247.35</course>
  <speed>0.02</speed>
  <fix>3d</fix>
</trkpt>
<trkpt lat="40.0713749" lon="-105.229789">
  <ele>1583.0</ele>
  <time>2026-08-28T17:52:32Z</time>
  <course>0.0</course>
  <speed>0.0</speed>
  <fix>3d</fix>
</trkpt>
<trkpt lat="40.071375" lon="-105.229789">
  <ele>1583.03</ele>
  <time>2026-08-28T17:52:32Z</time>
  <course>247.34</course>
  <speed>0.02</speed>
  <fix>3d</fix>
</trkpt>
<trkpt lat="40.0713749" lon="-105.229789">
  <ele>1583.0</ele>
  <time>2026-08-28T17:52:32Z</time>
  <course>0.0</course>
  <speed>0.0</speed>
  <fix>3d</fix>
</trkpt>
<trkpt lat="40.071375" lon="-105.229789">
  <ele>1583.02</ele>
  <time>2026-08-28T17:52:32Z</time>
  <course>247.34</course>
  <speed>0.02</speed>
  <fix>3d</fix>
</trkpt>
<trkpt lat="40.0713749" lon="-105.229789">
  <ele>1583.0</ele>
  <time>2026-08-28T17:52:32Z</time>
  <course>0.0</course>
  <speed>0.0</speed>
  <fix>3d</fix>
</trkpt>
<trkpt lat="40.071375" lon="-105.229789">
  <ele>1583.02</ele>
  <time>2026-08-28T17:52:32Z</time>
  <course>247.34</course>
  <speed>0.02</speed>
  <fix>3d</fix>
</trkpt>
<trkpt lat="40.0713749" lon="-105.229789">
  <ele>1583.0</ele>
  <time>2026-08-28T17:52:32Z</time>
  <course>0.0</course>
  <speed>0.0</speed>
  <fix>3d</fix>
</trkpt>
<trkpt lat="40.071375" lon="-105.229789">
  <ele>1583.02</ele>
  <time>2026-08-28T17:52:32Z</time>
  <course>247.34</course>
  <speed>0.02</speed>
  <fix>3d</fix>
</trkpt>
<trkpt lat="40.0713749" lon="-105.229789">
  <ele>1583.0</ele>
  <time>2026-08-28T17:52:32Z</time>
  <course>0.0</course>
  <speed>0.0</speed>
  <fix>3d</fix>
</trkpt>
<trkpt lat="40.071375" lon="-105.229789">
  <ele>1583.02</ele>
  <time>2026-08-28T17:52:32Z</time>
  <course>247.34</course>
  <speed>0.02</speed>
  <fix>3d</fix>
</trkpt>
<trkpt lat="40.0713749" lon="-105.229789">
  <ele>1583.0</ele>
  <time>2026-08-28T17:52:32Z</time>
  <course>0.0</course>
  <speed>0.0</speed>
  <fix>3d</fix>
</trkpt>
<trkpt lat="40.071375" lon="-105.229789">
  <ele>1583.01</ele>
  <time>2026-08-28T17:52:32Z</time>
  <course>247.34</course>
  <speed>0.02</speed>
  <fix>3d</fix>
</trkpt>
<trkpt lat="40.0713749" lon="-105.229789">
  <ele>1583.0</ele>
  <time>2026-08-28T17:52:32Z</time>
  <course>0.0</course>
  <speed>0.0</speed>
  <fix>3d</fix>
</trkpt>
<trkpt lat="40.071375" lon="-105.229789">
  <ele>1583.01</ele>
  <time>2026-08-28T17:52:32Z</time>
  <course>247.33</course>
  <speed>0.02</speed>
  <fix>3d</fix>
</trkpt>
<trkpt lat="40.0713749" lon="-105.229789">
  <ele>1583.0</ele>
  <time>2026-08-28T17:52:32Z</time>
  <course>0.0</course>
  <speed>0.0</speed>
  <fix>3d</fix>
</trkpt>
<trkpt lat="40.071375" lon="-105.229789">
  <ele>1583.01</ele>
  <time>2026-08-28T17:52:32Z</time>
  <course>247.33</course>
  <speed>0.02</speed>
  <fix>3d</fix>
</trkpt>
<trkpt lat="40.0713749" lon="-105.229789">
  <ele>1583.0</ele>
  <time>2026-08-28T17:52:32Z</time>
  <course>0.0</course>
  <speed>0.0</speed>
  <fix>3d</fix>
</trkpt>
<trkpt lat="40.071375" lon="-105.229789">
  <ele>1583.01</ele>
  <time>2026-08-28T17:52:32Z</time>
  <course>247.33</course>
  <speed>0.02</speed>
  <fix>3d</fix>
</trkpt>
<trkpt lat="40.0713749" lon="-105.229789">
  <ele>1583.0</ele>
  <time>2026-08-28T17:52:32Z</time>
  <course>0.0</course>
  <speed>0.0</speed>
  <fix>3d</fix>
</trkpt>
<trkpt lat="40.071375" lon="-105.229789">
  <ele>1583.01</ele>
  <time>2026-08-28T17:52:32Z</time>
  <course>247.33</course>
  <speed>0.02</speed>
  <fix>3d</fix>
</trkpt>
<trkpt lat="40.0713749" lon="-105.229789">
  <ele>1583.0</ele>
  <time>2026-08-28T17:52:32Z</time>
  <course>0.0</course>
  <speed>0.0</speed>
  <fix>3d</fix>
</trkpt>
<trkpt lat="40.071375" lon="-105.229789">
  <ele>1583.01</ele>
  <time>2026-08-28T17:52:32Z</time>
  <course>247.33</course>
  <speed>0.02</speed>
  <fix>3d</fix>
</trkpt>
<trkpt lat="40.0713749" lon="-105.229789">
  <ele>1583.0</ele>
  <time>2026-08-28T17:52:32Z</time>
  <course>0.0</course>
  <speed>0.0</speed>
  <fix>3d</fix>
</trkpt>
<trkpt lat="40.071375" lon="-105.229789">
  <ele>1583.01</ele>
  <time>2026-08-28T17:52:32Z</time>
  <course>247.33</course>
  <speed>0.02</speed>
  <fix>3d</fix>
</trkpt>
<trkpt lat="40.0713749" lon="-105.229789">
  <ele>1583.0</ele>
  <time>2026-08-28T17:52:32Z</time>
  <course>0.0</course>
  <speed>0.0</speed>
  <fix>3d</fix>
</trkpt>
<trkpt lat="40.071375" lon="-105.229789">
  <ele>1583.01</ele>
  <time>2026-08-28T17:52:32Z</time>
  <course>247.33</course>
  <speed>0.02</speed>
  <fix>3d</fix>
</trkpt>
<trkpt lat="40.0713749" lon="-105.229789">
  <ele>1583.0</ele>
  <time>2026-08-28T17:52:32Z</time>
  <course>0.0</course>
  <speed>0.0</speed>
  <fix>3d</fix>
</trkpt>
<trkpt lat="40.071375" lon="-105.229789">
  <ele>1583.01</ele>
  <time>2026-08-28T17:52:32Z</time>
  <course>247.32</course>
  <speed>0.02</speed>
  <fix>3d</fix>
</trkpt>
<trkpt lat="40.0713749" lon="-105.229789">
  <ele>1583.0</ele>
  <time>2026-08-28T17:52:32Z</time>
  <course>0.0</course>
  <speed>0.0</speed>
  <fix>3d</fix>
</trkpt>
<trkpt lat="40.071375" lon="-105.229789">
  <ele>1583.0</ele>
  <time>2026-08-28T17:52:32Z</time>
  <course>247.32</course>
  <speed>0.02</speed>
  <fix>3d</fix>
</trkpt>
<trkpt lat="40.0713749" lon="-105.229789">
  <ele>1583.0</ele>
  <time>2026-08-28T17:52:32Z</time>
  <course>0.0</course>
  <speed>0.0</speed>
  <fix>3d</fix>
</trkpt>
<trkpt lat="40.071375" lon="-105.229789">
  <ele>1583.0</ele>
  <time>2026-08-28T17:52:32Z</time>
  <course>247.32</course>
  <speed>0.02</speed>
  <fix>3d</fix>
</trkpt>
<trkpt lat="40.0713749" lon="-105.229789">
  <ele>1583.0</ele>
  <time>2026-08-28T17:52:32Z</time>
  <course>0.0</course>
  <speed>0.0</speed>
  <fix>3d</fix>
</trkpt>
<trkpt lat="40.071375" lon="-105.229789">
  <ele>1583.0</ele>
  <time>2026-08-28T17:52:32Z</time>
  <course>247.32</course>
  <speed>0.02</speed>
  <fix>3d</fix>
</trkpt>
<trkpt lat="40.0713749" lon="-105.229789">
  <ele>1583.0</ele>
  <time>2026-08-28T17:52:32Z</time>
  <course>0.0</course>
  <speed>0.0</speed>
  <fix>3d</fix>
</trkpt>
<trkpt lat="40.071375" lon="-105.229789">
  <ele>1582.99</ele>
  <time>2026-08-28T17:52:32Z</time>
  <course>247.32</course>
  <speed>0.02</speed>
  <fix>3d</fix>
</trkpt>
<trkpt lat="40.0713749" lon="-105.229789">
  <ele>1583.0</ele>
  <time>2026-08-28T17:52:32Z</time>
  <course>0.0</course>
  <speed>0.0</speed>
  <fix>3d</fix>
</trkpt>
<trkpt lat="40.071375" lon="-105.229789">
  <ele>1582.99</ele>
  <time>2026-08-28T17:52:32Z</time>
  <course>247.32</course>
  <speed>0.02</speed>
  <fix>3d</fix>
</trkpt>
<trkpt lat="40.0713749" lon="-105.229789">
  <ele>1583.0</ele>
  <time>2026-08-28T17:52:32Z</time>
  <course>0.0</course>
  <speed>0.0</speed>
  <fix>3d</fix>
</trkpt>
<trkpt lat="40.071375" lon="-105.229789">
  <ele>1582.98</ele>
  <time>2026-08-28T17:52:32Z</time>
  <course>247.31</course>
  <speed>0.02</speed>
  <fix>3d</fix>
</trkpt>
<trkpt lat="40.0713749" lon="-105.229789">
  <ele>1583.0</ele>
  <time>2026-08-28T17:52:32Z</time>
  <course>0.0</course>
  <speed>0.0</speed>
  <fix>3d</fix>
</trkpt>
<trkpt lat="40.071375" lon="-105.229789">
  <ele>1582.97</ele>
  <time>2026-08-28T17:52:32Z</time>
  <course>247.31</course>
  <speed>0.02</speed>
  <fix>3d</fix>
</trkpt>
<trkpt lat="40.0713749" lon="-105.229789">
  <ele>1583.0</ele>
  <time>2026-08-28T17:52:32Z</time>
  <course>0.0</course>
  <speed>0.0</speed>
  <fix>3d</fix>
</trkpt>
<trkpt lat="40.071375" lon="-105.229789">
  <ele>1582.97</ele>
  <time>2026-08-28T17:52:32Z</time>
  <course>247.31</course>
  <speed>0.02</speed>
  <fix>3d</fix>
</trkpt>
<trkpt lat="40.0713749" lon="-105.229789">
  <ele>1583.0</ele>
  <time>2026-08-28T17:52:32Z</time>
  <course>0.0</course>
  <speed>0.0</speed>
  <fix>3d</fix>
</trkpt>
<trkpt lat="40.071375" lon="-105.229789">
  <ele>1582.96</ele>
  <time>2026-08-28T17:52:32Z</time>
  <course>247.31</course>
  <speed>0.02</speed>
  <fix>3d</fix>
</trkpt>
<trkpt lat="40.0713749" lon="-105.229789">
  <ele>1583.0</ele>
  <time>2026-08-28T17:52:32Z</time>
  <course>0.0</course>
  <speed>0.0</speed>
  <fix>3d</fix>
</trkpt>
<trkpt lat="40.071375" lon="-105.229789">
  <ele>1582.96</ele>
  <time>2026-08-28T17:52:32Z</time>
  <course>247.31</course>
  <speed>0.02</speed>
  <fix>3d</fix>
</trkpt>
<trkpt lat="40.0713749" lon="-105.229789">
  <ele>1583.0</ele>
  <time>2026-08-28T17:52:32Z</time>
  <course>0.0</course>
  <speed>0.0</speed>
  <fix>3d</fix>
</trkpt>
<trkpt lat="40.071375" lon="-105.229789">
  <ele>1582.95</ele>
  <time>2026-08-28T17:52:32Z</time>
  <course>247.31</course>
  <speed>0.02</speed>
  <fix>3d</fix>
</trkpt>
<trkpt lat="40.0713749" lon="-105.229789">
  <ele>1583.0</ele>
  <time>2026-08-28T17:52:32Z</time>
  <course>0.0</course>
  <speed>0.0</speed>
  <fix>3d</fix>
</trkpt>
<trkpt lat="40.071375" lon="-105.229789">
  <ele>1582.95</ele>
  <time>2026-08-28T17:52:32Z</time>
  <course>247.3</course>
  <speed>0.02</speed>
  <fix>3d</fix>
</trkpt>
<trkpt lat="40.0713749" lon="-105.229789">
  <ele>1583.0</ele>
  <time>2026-08-28T17:52:32Z</time>
  <course>0.0</course>
  <speed>0.0</speed>
  <fix>3d</fix>
</trkpt>
<trkpt lat="40.071375" lon="-105.229789">
  <ele>1582.94</ele>
  <time>2026-08-28T17:52:32Z</time>
  <course>247.3</course>
  <speed>0.02</speed>
  <fix>3d</fix>
</trkpt>
<trkpt lat="40.0713749" lon="-105.229789">
  <ele>1583.0</ele>
  <time>2026-08-28T17:52:32Z</time>
  <course>0.0</course>
  <speed>0.0</speed>
  <fix>3d</fix>
</trkpt>
<trkpt lat="40.071375" lon="-105.229789">
  <ele>1582.93</ele>
  <time>2026-08-28T17:52:32Z</time>
  <course>247.3</course>
  <speed>0.02</speed>
  <fix>3d</fix>
</trkpt>
<trkpt lat="40.0713749" lon="-105.229789">
  <ele>1583.0</ele>
  <time>2026-08-28T17:52:32Z</time>
  <course>0.0</course>
  <speed>0.0</speed>
  <fix>3d</fix>
</trkpt>
<trkpt lat="40.071375" lon="-105.229789">
  <ele>1582.93</ele>
  <time>2026-08-28T17:52:32Z</time>
  <course>247.3</course>
  <speed>0.02</speed>
  <fix>3d</fix>
</trkpt>
<trkpt lat="40.0713749" lon="-105.229789">
  <ele>1583.0</ele>
  <time>2026-08-28T17:52:32Z</time>
  <course>0.0</course>
  <speed>0.0</speed>
  <fix>3d</fix>
</trkpt>
<trkpt lat="40.071375" lon="-105.229789">
  <ele>1582.92</ele>
  <time>2026-08-28T17:52:32Z</time>
  <course>247.3</course>
  <speed>0.02</speed>
  <fix>3d</fix>
</trkpt>
<trkpt lat="40.0713749" lon="-105.229789">
  <ele>1583.0</ele>
  <time>2026-08-28T17:52:32Z</time>
  <course>0.0</course>
  <speed>0.0</speed>
  <fix>3d</fix>
</trkpt>
<trkpt lat="40.071375" lon="-105.229789">
  <ele>1582.92</ele>
  <time>2026-08-28T17:52:32Z</time>
  <course>247.3</course>
  <speed>0.02</speed>
  <fix>3d</fix>
</trkpt>
<trkpt lat="40.0713749" lon="-105.229789">
  <ele>1583.0</ele>
  <time>2026-08-28T17:52:32Z</time>
  <course>0.0</course>
  <speed>0.0</speed>
  <fix>3d</fix>
</trkpt>
<trkpt lat="40.071375" lon="-105.229789">
  <ele>1582.91</ele>
  <time>2026-08-28T17:52:32Z</time>
  <course>247.3</course>
  <speed>0.02</speed>
  <fix>3d</fix>
</trkpt>
<trkpt lat="40.0713749" lon="-105.229789">
  <ele>1583.0</ele>
  <time>2026-08-28T17:52:32Z</time>
  <course>0.0</course>
  <speed>0.0</speed>
  <fix>3d</fix>
</trkpt>
<trkpt lat="40.071375" lon="-105.229789">
  <ele>1582.91</ele>
  <time>2026-08-28T17:52:32Z</time>
  <course>247.3</course>
  <speed>0.02</speed>
  <fix>3d</fix>
</trkpt>
<trkpt lat="40.0713749" lon="-105.229789">
  <ele>1583.0</ele>
  <time>2026-08-28T17:52:32Z</time>
  <course>0.0</course>
  <speed>0.0</speed>
  <fix>3d</fix>
</trkpt>
<trkpt lat="40.071375" lon="-105.229789">
  <ele>1582.91</ele>
  <time>2026-08-28T17:52:32Z</time>
  <course>247.29</course>
  <speed>0.02</speed>
  <fix>3d</fix>
</trkpt>
<trkpt lat="40.0713749" lon="-105.229789">
  <ele>1583.0</ele>
  <time>2026-08-28T17:52:32Z</time>
  <course>0.0</course>
  <speed>0.0</speed>
  <fix>3d</fix>
</trkpt>
<trkpt lat="40.071375" lon="-105.229789">
  <ele>1582.91</ele>
  <time>2026-08-28T17:52:32Z</time>
  <course>247.29</course>
  <speed>0.02</speed>
  <fix>3d</fix>
</trkpt>
<trkpt lat="40.0713749" lon="-105.229789">
  <ele>1583.0</ele>
  <time>2026-08-28T17:52:32Z</time>
  <course>0.0</course>
  <speed>0.0</speed>
  <fix>3d</fix>
</trkpt>
<trkpt lat="40.071375" lon="-105.229789">
  <ele>1582.91</ele>
  <time>2026-08-28T17:52:32Z</time>
  <course>247.29</course>
  <speed>0.02</speed>
  <fix>3d</fix>
</trkpt>
<trkpt lat="40.0713749" lon="-105.229789">
  <ele>1583.0</ele>
  <time>2026-08-28T17:52:32Z</time>
  <course>0.0</course>
  <speed>0.0</speed>
  <fix>3d</fix>
</trkpt>
<trkpt lat="40.071375" lon="-105.229789">
  <ele>1582.91</ele>
  <time>2026-08-28T17:52:32Z</time>
  <course>247.29</course>
  <speed>0.02</speed>
  <fix>3d</fix>
</trkpt>
<trkpt lat="40.0713749" lon="-105.229789">
  <ele>1583.0</ele>
  <time>2026-08-28T17:52:32Z</time>
  <course>0.0</course>
  <speed>0.0</speed>
  <fix>3d</fix>
</trkpt>
<trkpt lat="40.071375" lon="-105.229789">
  <ele>1582.9</ele>
  <time>2026-08-28T17:52:32Z</time>
  <course>247.29</course>
  <speed>0.02</speed>
  <fix>3d</fix>
</trkpt>
<trkpt lat="40.0713749" lon="-105.229789">
  <ele>1583.0</ele>
  <time>2026-08-28T17:52:32Z</time>
  <course>0.0</course>
  <speed>0.0</speed>
  <fix>3d</fix>
</trkpt>
<trkpt lat="40.071375" lon="-105.229789">
  <ele>1582.9</ele>
  <time>2026-08-28T17:52:32Z</time>
  <course>247.29</course>
  <speed>0.02</speed>
  <fix>3d</fix>
</trkpt>
<trkpt lat="40.0713749" lon="-105.229789">
  <ele>1583.0</ele>
  <time>2026-08-28T17:52:32Z</time>
  <course>0.0</course>
  <speed>0.0</speed>
  <fix>3d</fix>
</trkpt>
<trkpt lat="40.071375" lon="-105.229789">
  <ele>1582.9</ele>
  <time>2026-08-28T17:52:32Z</time>
  <course>247.29</course>
  <speed>0.02</speed>
  <fix>3d</fix>
</trkpt>
<trkpt lat="40.0713749" lon="-105.229789">
  <ele>1583.0</ele>
  <time>2026-08-28T17:52:32Z</time>
  <course>0.0</course>
  <speed>0.0</speed>
  <fix>3d</fix>
</trkpt>
<trkpt lat="40.071375" lon="-105.229789">
  <ele>1582.9</ele>
  <time>2026-08-28T17:52:32Z</time>
  <course>247.28</course>
  <speed>0.02</speed>
  <fix>3d</fix>
</trkpt>
<trkpt lat="40.0713749" lon="-105.229789">
  <ele>1583.0</ele>
  <time>2026-08-28T17:52:32Z</time>
  <course>0.0</course>
  <speed>0.0</speed>
  <fix>3d</fix>
</trkpt>
<trkpt lat="40.071375" lon="-105.229789">
  <ele>1582.89</ele>
  <time>2026-08-28T17:52:32Z</time>
  <course>247.28</course>
  <speed>0.02</speed>
  <fix>3d</fix>
</trkpt>
<trkpt lat="40.0713749" lon="-105.229789">
  <ele>1583.0</ele>
  <time>2026-08-28T17:52:32Z</time>
  <course>0.0</course>
  <speed>0.0</speed>
  <fix>3d</fix>
</trkpt>
<trkpt lat="40.071375" lon="-105.2297889">
  <ele>1582.9</ele>
  <time>2026-08-28T17:52:32Z</time>
  <course>247.28</course>
  <speed>0.02</speed>
  <fix>3d</fix>
</trkpt>
<trkpt lat="40.0713749" lon="-105.229789">
  <ele>1583.0</ele>
  <time>2026-08-28T17:52:32Z</time>
  <course>0.0</course>
  <speed>0.0</speed>
  <fix>3d</fix>
</trkpt>
<trkpt lat="40.071375" lon="-105.229789">
  <ele>1582.9</ele>
  <time>2026-08-28T17:52:32Z</time>
  <course>247.28</course>
  <speed>0.02</speed>
  <fix>3d</fix>
</trkpt>
<trkpt lat="40.0713749" lon="-105.229789">
  <ele>1583.0</ele>
  <time>2026-08-28T17:52:32Z</time>
  <course>0.0</course>
  <speed>0.0</speed>
  <fix>3d</fix>
</trkpt>
<trkpt lat="40.071375" lon="-105.2297889">
  <ele>1582.9</ele>
  <time>2026-08-28T17:52:32Z</time>
  <course>247.28</course>
  <speed>0.02</speed>
  <fix>3d</fix>
</trkpt>
<trkpt lat="40.0713749" lon="-105.229789">
  <ele>1583.0</ele>
  <time>2026-08-28T17:52:32Z</time>
  <course>0.0</course>
  <speed>0.0</speed>
  <fix>3d</fix>
</trkpt>
<trkpt lat="40.071375" lon="-105.229789">
  <ele>1582.91</ele>
  <time>2026-08-28T17:52:32Z</time>
  <course>247.28</course>
  <speed>0.02</speed>
  <fix>3d</fix>
</trkpt>
<trkpt lat="40.0713749" lon="-105.229789">
  <ele>1583.0</ele>
  <time>2026-08-28T17:52:32Z</time>
  <course>0.0</course>
  <speed>0.0</speed>
  <fix>3d</fix>
</trkpt>
<trkpt lat="40.071375" lon="-105.2297889">
  <ele>1582.92</ele>
  <time>2026-08-28T17:52:32Z</time>
  <course>247.28</course>
  <speed>0.02</speed>
  <fix>3d</fix>
</trkpt>
<trkpt lat="40.0713749" lon="-105.229789">
  <ele>1583.0</ele>
  <time>2026-08-28T17:52:32Z</time>
  <course>0.0</course>
  <speed>0.0</speed>
  <fix>3d</fix>
</trkpt>
<trkpt lat="40.071375" lon="-105.2297889">
  <ele>1582.93</ele>
  <time>2026-08-28T17:52:32Z</time>
  <course>247.27</course>
  <speed>0.02</speed>
  <fix>3d</fix>
</trkpt>
<trkpt lat="40.0713749" lon="-105.229789">
  <ele>1583.0</ele>
  <time>2026-08-28T17:52:32Z</time>
  <course>0.0</course>
  <speed>0.0</speed>
  <fix>3d</fix>
</trkpt>
<trkpt lat="40.071375" lon="-105.2297889">
  <ele>1582.93</ele>
  <time>2026-08-28T17:52:32Z</time>
  <course>247.27</course>
  <speed>0.02</speed>
  <fix>3d</fix>
</trkpt>
<trkpt lat="40.0713749" lon="-105.229789">
  <ele>1583.0</ele>
  <time>2026-08-28T17:52:32Z</time>
  <course>0.0</course>
  <speed>0.0</speed>
  <fix>3d</fix>
</trkpt>
<trkpt lat="40.071375" lon="-105.2297889">
  <ele>1582.94</ele>
  <time>2026-08-28T17:52:32Z</time>
  <course>247.27</course>
  <speed>0.02</speed>
  <fix>3d</fix>
</trkpt>
<trkpt lat="40.0713749" lon="-105.229789">
  <ele>1583.0</ele>
  <time>2026-08-28T17:52:32Z</time>
  <course>0.0</course>
  <speed>0.0</speed>
  <fix>3d</fix>
</trkpt>
<trkpt lat="40.071375" lon="-105.2297889">
  <ele>1582.95</ele>
  <time>2026-08-28T17:52:32Z</time>
  <course>247.27</course>
  <speed>0.02</speed>
  <fix>3d</fix>
</trkpt>
<trkpt lat="40.0713749" lon="-105.229789">
  <ele>1583.0</ele>
  <time>2026-08-28T17:52:32Z</time>
  <course>0.0</course>
  <speed>0.0</speed>
  <fix>3d</fix>
</trkpt>
<trkpt lat="40.071375" lon="-105.2297889">
  <ele>1582.95</ele>
  <time>2026-08-28T17:52:32Z</time>
  <course>247.27</course>
  <speed>0.02</speed>
  <fix>3d</fix>
</trkpt>
<trkpt lat="40.0713749" lon="-105.229789">
  <ele>1583.0</ele>
  <time>2026-08-28T17:52:32Z</time>
  <course>0.0</course>
  <speed>0.0</speed>
  <fix>3d</fix>
</trkpt>
<trkpt lat="40.071375" lon="-105.2297889">
  <ele>1582.96</ele>
  <time>2026-08-28T17:52:32Z</time>
  <course>247.27</course>
  <speed>0.02</speed>
  <fix>3d</fix>
</trkpt>
<trkpt lat="40.0713749" lon="-105.229789">
  <ele>1583.0</ele>
  <time>2026-08-28T17:52:32Z</time>
  <course>0.0</course>
  <speed>0.0</speed>
  <fix>3d</fix>
</trkpt>
<trkpt lat="40.071375" lon="-105.229789">
  <ele>1582.97</ele>
  <time>2026-08-28T17:52:32Z</time>
  <course>247.27</course>
  <speed>0.02</speed>
  <fix>3d</fix>
</trkpt>
<trkpt lat="40.0713749" lon="-105.229789">
  <ele>1583.0</ele>
  <time>2026-08-28T17:52:32Z</time>
  <course>0.0</course>
  <speed>0.0</speed>
  <fix>3d</fix>
</trkpt>
<trkpt lat="40.071375" lon="-105.2297889">
  <ele>1582.97</ele>
  <time>2026-08-28T17:52:32Z</time>
  <course>247.27</course>
  <speed>0.02</speed>
  <fix>3d</fix>
</trkpt>
<trkpt lat="40.0713749" lon="-105.229789">
  <ele>1583.0</ele>
  <time>2026-08-28T17:52:32Z</time>
  <course>0.0</course>
  <speed>0.0</speed>
  <fix>3d</fix>
</trkpt>
<trkpt lat="40.071375" lon="-105.229789">
  <ele>1582.97</ele>
  <time>2026-08-28T17:52:32Z</time>
  <course>247.26</course>
  <speed>0.02</speed>
  <fix>3d</fix>
</trkpt>
<trkpt lat="40.0713749" lon="-105.229789">
  <ele>1583.0</ele>
  <time>2026-08-28T17:52:32Z</time>
  <course>0.0</course>
  <speed>0.0</speed>
  <fix>3d</fix>
</trkpt>
<trkpt lat="40.071375" lon="-105.2297889">
  <ele>1582.97</ele>
  <time>2026-08-28T17:52:32Z</time>
  <course>247.26</course>
  <speed>0.02</speed>
  <fix>3d</fix>
</trkpt>
<trkpt lat="40.0713749" lon="-105.229789">
  <ele>1583.0</ele>
  <time>2026-08-28T17:52:32Z</time>
  <course>0.0</course>
  <speed>0.0</speed>
  <fix>3d</fix>
</trkpt>
<trkpt lat="40.071375" lon="-105.229789">
  <ele>1582.98</ele>
  <time>2026-08-28T17:52:32Z</time>
  <course>247.26</course>
  <speed>0.02</speed>
  <fix>3d</fix>
</trkpt>
<trkpt lat="40.0713749" lon="-105.229789">
  <ele>1583.0</ele>
  <time>2026-08-28T17:52:32Z</time>
  <course>0.0</course>
  <speed>0.0</speed>
  <fix>3d</fix>
</trkpt>
<trkpt lat="40.071375" lon="-105.2297889">
  <ele>1582.98</ele>
  <time>2026-08-28T17:52:32Z</time>
  <course>247.26</course>
  <speed>0.02</speed>
  <fix>3d</fix>
</trkpt>
<trkpt lat="40.0713749" lon="-105.229789">
  <ele>1583.0</ele>
  <time>2026-08-28T17:52:32Z</time>
  <course>0.0</course>
  <speed>0.0</speed>
  <fix>3d</fix>
</trkpt>
<trkpt lat="40.071375" lon="-105.229789">
  <ele>1582.99</ele>
  <time>2026-08-28T17:52:32Z</time>
  <course>247.26</course>
  <speed>0.02</speed>
  <fix>3d</fix>
</trkpt>
<trkpt lat="40.0713749" lon="-105.229789">
  <ele>1583.0</ele>
  <time>2026-08-28T17:52:32Z</time>
  <course>0.0</course>
  <speed>0.0</speed>
  <fix>3d</fix>
</trkpt>
<trkpt lat="40.071375" lon="-105.2297889">
  <ele>1582.99</ele>
  <time>2026-08-28T17:52:32Z</time>
  <course>247.26</course>
  <speed>0.02</speed>
  <fix>3d</fix>
</trkpt>
<trkpt lat="40.0713749" lon="-105.229789">
  <ele>1583.0</ele>
  <time>2026-08-28T17:52:32Z</time>
  <course>0.0</course>
  <speed>0.0</speed>
  <fix>3d</fix>
</trkpt>
<trkpt lat="40.071375" lon="-105.229789">
  <ele>1583.0</ele>
  <time>2026-08-28T17:52:32Z</time>
  <course>247.26</course>
  <speed>0.02</speed>
  <fix>3d</fix>
</trkpt>
<trkpt lat="40.0713749" lon="-105.229789">
  <ele>1583.0</ele>
  <time>2026-08-28T17:52:32Z</time>
  <course>0.0</course>
  <speed>0.0</speed>
  <fix>3d</fix>
</trkpt>
<trkpt lat="40.071375" lon="-105.2297889">
  <ele>1583.0</ele>
  <time>2026-08-28T17:52:32Z</time>
  <course>247.26</course>
  <speed>0.02</speed>
  <fix>3d</fix>
</trkpt>
<trkpt lat="40.0713749" lon="-105.229789">
  <ele>1583.0</ele>
  <time>2026-08-28T17:52:32Z</time>
  <course>0.0</course>
  <speed>0.0</speed>
  <fix>3d</fix>
</trkpt>
<trkpt lat="40.071375" lon="-105.229789">
  <ele>1583.0</ele>
  <time>2026-08-28T17:52:32Z</time>
  <course>247.25</course>
  <speed>0.02</speed>
  <fix>3d</fix>
</trkpt>
<trkpt lat="40.0713749" lon="-105.229789">
  <ele>1583.0</ele>
  <time>2026-08-28T17:52:32Z</time>
  <course>0.0</course>
  <speed>0.0</speed>
  <fix>3d</fix>
</trkpt>
<trkpt lat="40.071375" lon="-105.2297889">
  <ele>1583.0</ele>
  <time>2026-08-28T17:52:32Z</time>
  <course>247.25</course>
  <speed>0.02</speed>
  <fix>3d</fix>
</trkpt>
<trkpt lat="40.0713749" lon="-105.229789">
  <ele>1583.0</ele>
  <time>2026-08-28T17:52:32Z</time>
  <course>0.0</course>
  <speed>0.0</speed>
  <fix>3d</fix>
</trkpt>
<trkpt lat="40.071375" lon="-105.229789">
  <ele>1582.99</ele>
  <time>2026-08-28T17:52:32Z</time>
  <course>247.25</course>
  <speed>0.02</speed>
  <fix>3d</fix>
</trkpt>
<trkpt lat="40.0713749" lon="-105.229789">
  <ele>1583.0</ele>
  <time>2026-08-28T17:52:32Z</time>
  <course>0.0</course>
  <speed>0.0</speed>
  <fix>3d</fix>
</trkpt>
<trkpt lat="40.071375" lon="-105.2297889">
  <ele>1582.99</ele>
  <time>2026-08-28T17:52:32Z</time>
  <course>247.25</course>
  <speed>0.02</speed>
  <fix>3d</fix>
</trkpt>
<trkpt lat="40.0713749" lon="-105.229789">
  <ele>1583.0</ele>
  <time>2026-08-28T17:52:32Z</time>
  <course>0.0</course>
  <speed>0.0</speed>
  <fix>3d</fix>
</trkpt>
<trkpt lat="40.071375" lon="-105.229789">
  <ele>1582.98</ele>
  <time>2026-08-28T17:52:32Z</time>
  <course>247.25</course>
  <speed>0.02</speed>
  <fix>3d</fix>
</trkpt>
<trkpt lat="40.0713749" lon="-105.229789">
  <ele>1583.0</ele>
  <time>2026-08-28T17:52:32Z</time>
  <course>0.0</course>
  <speed>0.0</speed>
  <fix>3d</fix>
</trkpt>
<trkpt lat="40.071375" lon="-105.2297889">
  <ele>1582.97</ele>
  <time>2026-08-28T17:52:32Z</time>
  <course>247.25</course>
  <speed>0.02</speed>
  <fix>3d</fix>
</trkpt>
<trkpt lat="40.0713749" lon="-105.229789">
  <ele>1583.0</ele>
  <time>2026-08-28T17:52:32Z</time>
  <course>0.0</course>
  <speed>0.0</speed>
  <fix>3d</fix>
</trkpt>
<trkpt lat="40.071375" lon="-105.229789">
  <ele>1582.96</ele>
  <time>2026-08-28T17:52:32Z</time>
  <course>247.25</course>
  <speed>0.02</speed>
  <fix>3d</fix>
</trkpt>
<trkpt lat="40.0713749" lon="-105.229789">
  <ele>1583.0</ele>
  <time>2026-08-28T17:52:32Z</time>
  <course>0.0</course>
  <speed>0.0</speed>
  <fix>3d</fix>
</trkpt>
<trkpt lat="40.071375" lon="-105.2297889">
  <ele>1582.96</ele>
  <time>2026-08-28T17:52:32Z</time>
  <course>247.25</course>
  <speed>0.02</speed>
  <fix>3d</fix>
</trkpt>
<trkpt lat="40.0713749" lon="-105.229789">
  <ele>1583.0</ele>
  <time>2026-08-28T17:52:32Z</time>
  <course>0.0</course>
  <speed>0.0</speed>
  <fix>3d</fix>
</trkpt>
<trkpt lat="40.071375" lon="-105.229789">
  <ele>1582.95</ele>
  <time>2026-08-28T17:52:32Z</time>
  <course>247.25</course>
  <speed>0.02</speed>
  <fix>3d</fix>
</trkpt>
<trkpt lat="40.0713749" lon="-105.229789">
  <ele>1583.0</ele>
  <time>2026-08-28T17:52:32Z</time>
  <course>0.0</course>
  <speed>0.0</speed>
  <fix>3d</fix>
</trkpt>
<trkpt lat="40.071375" lon="-105.2297889">
  <ele>1582.95</ele>
  <time>2026-08-28T17:52:32Z</time>
  <course>247.24</course>
  <speed>0.02</speed>
  <fix>3d</fix>
</trkpt>
<trkpt lat="40.0713749" lon="-105.229789">
  <ele>1583.0</ele>
  <time>2026-08-28T17:52:32Z</time>
  <course>0.0</course>
  <speed>0.0</speed>
  <fix>3d</fix>
</trkpt>
<trkpt lat="40.071375" lon="-105.229789">
  <ele>1582.96</ele>
  <time>2026-08-28T17:52:32Z</time>
  <course>247.24</course>
  <speed>0.02</speed>
  <fix>3d</fix>
</trkpt>
<trkpt lat="40.0713749" lon="-105.229789">
  <ele>1583.0</ele>
  <time>2026-08-28T17:52:32Z</time>
  <course>0.0</course>
  <speed>0.0</speed>
  <fix>3d</fix>
</trkpt>
<trkpt lat="40.071375" lon="-105.2297889">
  <ele>1582.96</ele>
  <time>2026-08-28T17:52:32Z</time>
  <course>247.24</course>
  <speed>0.02</speed>
  <fix>3d</fix>
</trkpt>
<trkpt lat="40.0713749" lon="-105.229789">
  <ele>1583.0</ele>
  <time>2026-08-28T17:52:32Z</time>
  <course>0.0</course>
  <speed>0.0</speed>
  <fix>3d</fix>
</trkpt>
<trkpt lat="40.071375" lon="-105.229789">
  <ele>1582.97</ele>
  <time>2026-08-28T17:52:32Z</time>
  <course>247.24</course>
  <speed>0.02</speed>
  <fix>3d</fix>
</trkpt>
<trkpt lat="40.0713749" lon="-105.229789">
  <ele>1583.0</ele>
  <time>2026-08-28T17:52:32Z</time>
  <course>0.0</course>
  <speed>0.0</speed>
  <fix>3d</fix>
</trkpt>
<trkpt lat="40.071375" lon="-105.229789">
  <ele>1582.97</ele>
  <time>2026-08-28T17:52:32Z</time>
  <course>247.24</course>
  <speed>0.02</speed>
  <fix>3d</fix>
</trkpt>
<trkpt lat="40.0713749" lon="-105.229789">
  <ele>1583.0</ele>
  <time>2026-08-28T17:52:32Z</time>
  <course>0.0</course>
  <speed>0.0</speed>
  <fix>3d</fix>
</trkpt>
<trkpt lat="40.071375" lon="-105.229789">
  <ele>1582.98</ele>
  <time>2026-08-28T17:52:32Z</time>
  <course>247.24</course>
  <speed>0.02</speed>
  <fix>3d</fix>
</trkpt>
<trkpt lat="40.0713749" lon="-105.229789">
  <ele>1583.0</ele>
  <time>2026-08-28T17:52:32Z</time>
  <course>0.0</course>
  <speed>0.0</speed>
  <fix>3d</fix>
</trkpt>
<trkpt lat="40.071375" lon="-105.229789">
  <ele>1582.98</ele>
  <time>2026-08-28T17:52:32Z</time>
  <course>247.24</course>
  <speed>0.02</speed>
  <fix>3d</fix>
</trkpt>
<trkpt lat="40.0713749" lon="-105.229789">
  <ele>1583.0</ele>
  <time>2026-08-28T17:52:32Z</time>
  <course>0.0</course>
  <speed>0.0</speed>
  <fix>3d</fix>
</trkpt>
<trkpt lat="40.071375" lon="-105.229789">
  <ele>1582.99</ele>
  <time>2026-08-28T17:52:32Z</time>
  <course>247.24</course>
  <speed>0.02</speed>
  <fix>3d</fix>
</trkpt>
<trkpt lat="40.0713749" lon="-105.229789">
  <ele>1583.0</ele>
  <time>2026-08-28T17:52:32Z</time>
  <course>0.0</course>
  <speed>0.0</speed>
  <fix>3d</fix>
</trkpt>
<trkpt lat="40.071375" lon="-105.229789">
  <ele>1583.0</ele>
  <time>2026-08-28T17:52:32Z</time>
  <course>247.24</course>
  <speed>0.02</speed>
  <fix>3d</fix>
</trkpt>
<trkpt lat="40.0713749" lon="-105.229789">
  <ele>1583.0</ele>
  <time>2026-08-28T17:52:32Z</time>
  <course>0.0</course>
  <speed>0.0</speed>
  <fix>3d</fix>
</trkpt>
<trkpt lat="40.071375" lon="-105.229789">
  <ele>1583.0</ele>
  <time>2026-08-28T17:52:32Z</time>
  <course>247.23</course>
  <speed>0.02</speed>
  <fix>3d</fix>
</trkpt>
<trkpt lat="40.0713749" lon="-105.229789">
  <ele>1583.0</ele>
  <time>2026-08-28T17:52:32Z</time>
  <course>0.0</course>
  <speed>0.0</speed>
  <fix>3d</fix>
</trkpt>
<trkpt lat="40.071375" lon="-105.229789">
  <ele>1583.01</ele>
  <time>2026-08-28T17:52:32Z</time>
  <course>247.23</course>
  <speed>0.02</speed>
  <fix>3d</fix>
</trkpt>
<trkpt lat="40.0713749" lon="-105.229789">
  <ele>1583.0</ele>
  <time>2026-08-28T17:52:32Z</time>
  <course>0.0</course>
  <speed>0.0</speed>
  <fix>3d</fix>
</trkpt>
<trkpt lat="40.071375" lon="-105.229789">
  <ele>1583.01</ele>
  <time>2026-08-28T17:52:32Z</time>
  <course>247.23</course>
  <speed>0.02</speed>
  <fix>3d</fix>
</trkpt>
<trkpt lat="40.0713749" lon="-105.229789">
  <ele>1583.0</ele>
  <time>2026-08-28T17:52:32Z</time>
  <course>0.0</course>
  <speed>0.0</speed>
  <fix>3d</fix>
</trkpt>
<trkpt lat="40.071375" lon="-105.229789">
  <ele>1583.02</ele>
  <time>2026-08-28T17:52:32Z</time>
  <course>247.23</course>
  <speed>0.02</speed>
  <fix>3d</fix>
</trkpt>
<trkpt lat="40.0713749" lon="-105.229789">
  <ele>1583.0</ele>
  <time>2026-08-28T17:52:32Z</time>
  <course>0.0</course>
  <speed>0.0</speed>
  <fix>3d</fix>
</trkpt>
<trkpt lat="40.071375" lon="-105.229789">
  <ele>1583.02</ele>
  <time>2026-08-28T17:52:32Z</time>
  <course>247.23</course>
  <speed>0.02</speed>
  <fix>3d</fix>
</trkpt>
<trkpt lat="40.0713749" lon="-105.229789">
  <ele>1583.0</ele>
  <time>2026-08-28T17:52:32Z</time>
  <course>0.0</course>
  <speed>0.0</speed>
  <fix>3d</fix>
</trkpt>
<trkpt lat="40.071375" lon="-105.229789">
  <ele>1583.03</ele>
  <time>2026-08-28T17:52:32Z</time>
  <course>247.23</course>
  <speed>0.02</speed>
  <fix>3d</fix>
</trkpt>
<trkpt lat="40.0713749" lon="-105.229789">
  <ele>1583.0</ele>
  <time>2026-08-28T17:52:32Z</time>
  <course>0.0</course>
  <speed>0.0</speed>
  <fix>3d</fix>
</trkpt>
<trkpt lat="40.071375" lon="-105.229789">
  <ele>1583.03</ele>
  <time>2026-08-28T17:52:32Z</time>
  <course>247.23</course>
  <speed>0.02</speed>
  <fix>3d</fix>
</trkpt>
<trkpt lat="40.0713749" lon="-105.229789">
  <ele>1583.0</ele>
  <time>2026-08-28T17:52:32Z</time>
  <course>0.0</course>
  <speed>0.0</speed>
  <fix>3d</fix>
</trkpt>
<trkpt lat="40.071375" lon="-105.229789">
  <ele>1583.03</ele>
  <time>2026-08-28T17:52:32Z</time>
  <course>247.23</course>
  <speed>0.02</speed>
  <fix>3d</fix>
</trkpt>
<trkpt lat="40.0713749" lon="-105.229789">
  <ele>1583.0</ele>
  <time>2026-08-28T17:52:32Z</time>
  <course>0.0</course>
  <speed>0.0</speed>
  <fix>3d</fix>
</trkpt>
<trkpt lat="40.071375" lon="-105.229789">
  <ele>1583.03</ele>
  <time>2026-08-28T17:52:32Z</time>
  <course>247.23</course>
  <speed>0.02</speed>
  <fix>3d</fix>
</trkpt>
<trkpt lat="40.0713749" lon="-105.229789">
  <ele>1583.0</ele>
  <time>2026-08-28T17:52:32Z</time>
  <course>0.0</course>
  <speed>0.0</speed>
  <fix>3d</fix>
</trkpt>
<trkpt lat="40.071375" lon="-105.2297889">
  <ele>1583.03</ele>
  <time>2026-08-28T17:52:32Z</time>
  <course>247.22</course>
  <speed>0.02</speed>
  <fix>3d</fix>
</trkpt>
<trkpt lat="40.0713749" lon="-105.229789">
  <ele>1583.0</ele>
  <time>2026-08-28T17:52:32Z</time>
  <course>0.0</course>
  <speed>0.0</speed>
  <fix>3d</fix>
</trkpt>
<trkpt lat="40.071375" lon="-105.229789">
  <ele>1583.03</ele>
  <time>2026-08-28T17:52:32Z</time>
  <course>247.22</course>
  <speed>0.02</speed>
  <fix>3d</fix>
</trkpt>
<trkpt lat="40.0713749" lon="-105.229789">
  <ele>1583.0</ele>
  <time>2026-08-28T17:52:32Z</time>
  <course>0.0</course>
  <speed>0.0</speed>
  <fix>3d</fix>
</trkpt>
<trkpt lat="40.071375" lon="-105.2297889">
  <ele>1583.03</ele>
  <time>2026-08-28T17:52:32Z</time>
  <course>247.22</course>
  <speed>0.02</speed>
  <fix>3d</fix>
</trkpt>
<trkpt lat="40.0713749" lon="-105.229789">
  <ele>1583.0</ele>
  <time>2026-08-28T17:52:32Z</time>
  <course>0.0</course>
  <speed>0.0</speed>
  <fix>3d</fix>
</trkpt>
<trkpt lat="40.071375" lon="-105.229789">
  <ele>1583.03</ele>
  <time>2026-08-28T17:52:32Z</time>
  <course>247.22</course>
  <speed>0.02</speed>
  <fix>3d</fix>
</trkpt>
<trkpt lat="40.0713749" lon="-105.229789">
  <ele>1583.0</ele>
  <time>2026-08-28T17:52:32Z</time>
  <course>0.0</course>
  <speed>0.0</speed>
  <fix>3d</fix>
</trkpt>
<trkpt lat="40.071375" lon="-105.2297889">
  <ele>1583.02</ele>
  <time>2026-08-28T17:52:32Z</time>
  <course>247.22</course>
  <speed>0.02</speed>
  <fix>3d</fix>
</trkpt>
<trkpt lat="40.0713749" lon="-105.229789">
  <ele>1583.0</ele>
  <time>2026-08-28T17:52:32Z</time>
  <course>0.0</course>
  <speed>0.0</speed>
  <fix>3d</fix>
</trkpt>
<trkpt lat="40.071375" lon="-105.229789">
  <ele>1583.02</ele>
  <time>2026-08-28T17:52:32Z</time>
  <course>247.22</course>
  <speed>0.02</speed>
  <fix>3d</fix>
</trkpt>
<trkpt lat="40.0713749" lon="-105.229789">
  <ele>1583.0</ele>
  <time>2026-08-28T17:52:32Z</time>
  <course>0.0</course>
  <speed>0.0</speed>
  <fix>3d</fix>
</trkpt>
<trkpt lat="40.071375" lon="-105.2297889">
  <ele>1583.01</ele>
  <time>2026-08-28T17:52:32Z</time>
  <course>247.22</course>
  <speed>0.02</speed>
  <fix>3d</fix>
</trkpt>
<trkpt lat="40.0713749" lon="-105.229789">
  <ele>1583.0</ele>
  <time>2026-08-28T17:52:32Z</time>
  <course>0.0</course>
  <speed>0.0</speed>
  <fix>3d</fix>
</trkpt>
<trkpt lat="40.071375" lon="-105.229789">
  <ele>1583.01</ele>
  <time>2026-08-28T17:52:32Z</time>
  <course>247.22</course>
  <speed>0.02</speed>
  <fix>3d</fix>
</trkpt>
<trkpt lat="40.0713749" lon="-105.229789">
  <ele>1583.0</ele>
  <time>2026-08-28T17:52:32Z</time>
  <course>0.0</course>
  <speed>0.0</speed>
  <fix>3d</fix>
</trkpt>
<trkpt lat="40.071375" lon="-105.2297889">
  <ele>1583.0</ele>
  <time>2026-08-28T17:52:32Z</time>
  <course>247.22</course>
  <speed>0.02</speed>
  <fix>3d</fix>
</trkpt>
<trkpt lat="40.0713749" lon="-105.229789">
  <ele>1583.0</ele>
  <time>2026-08-28T17:52:32Z</time>
  <course>0.0</course>
  <speed>0.0</speed>
  <fix>3d</fix>
</trkpt>
<trkpt lat="40.071375" lon="-105.229789">
  <ele>1583.0</ele>
  <time>2026-08-28T17:52:32Z</time>
  <course>247.22</course>
  <speed>0.02</speed>
  <fix>3d</fix>
</trkpt>
<trkpt lat="40.0713749" lon="-105.229789">
  <ele>1583.0</ele>
  <time>2026-08-28T17:52:32Z</time>
  <course>0.0</course>
  <speed>0.0</speed>
  <fix>3d</fix>
</trkpt>
<trkpt lat="40.071375" lon="-105.2297889">
  <ele>1583.0</ele>
  <time>2026-08-28T17:52:32Z</time>
  <course>247.22</course>
  <speed>0.02</speed>
  <fix>3d</fix>
</trkpt>
<trkpt lat="40.0713749" lon="-105.229789">
  <ele>1583.0</ele>
  <time>2026-08-28T17:52:32Z</time>
  <course>0.0</course>
  <speed>0.0</speed>
  <fix>3d</fix>
</trkpt>
<trkpt lat="40.071375" lon="-105.229789">
  <ele>1583.0</ele>
  <time>2026-08-28T17:52:32Z</time>
  <course>247.21</course>
  <speed>0.02</speed>
  <fix>3d</fix>
</trkpt>
<trkpt lat="40.0713749" lon="-105.229789">
  <ele>1583.0</ele>
  <time>2026-08-28T17:52:32Z</time>
  <course>0.0</course>
  <speed>0.0</speed>
  <fix>3d</fix>
</trkpt>
<trkpt lat="40.071375" lon="-105.2297889">
  <ele>1583.0</ele>
  <time>2026-08-28T17:52:32Z</time>
  <course>247.21</course>
  <speed>0.02</speed>
  <fix>3d</fix>
</trkpt>
<trkpt lat="40.0713749" lon="-105.229789">
  <ele>1583.0</ele>
  <time>2026-08-28T17:52:32Z</time>
  <course>0.0</course>
  <speed>0.0</speed>
  <fix>3d</fix>
</trkpt>
<trkpt lat="40.071375" lon="-105.229789">
  <ele>1583.0</ele>
  <time>2026-08-28T17:52:32Z</time>
  <course>247.21</course>
  <speed>0.02</speed>
  <fix>3d</fix>
</trkpt>
<trkpt lat="40.0713749" lon="-105.229789">
  <ele>1583.0</ele>
  <time>2026-08-28T17:52:32Z</time>
  <course>0.0</course>
  <speed>0.0</speed>
  <fix>3d</fix>
</trkpt>
<trkpt lat="40.071375" lon="-105.2297889">
  <ele>1583.0</ele>
  <time>2026-08-28T17:52:32Z</time>
  <course>247.21</course>
  <speed>0.02</speed>
  <fix>3d</fix>
</trkpt>
<trkpt lat="40.0713749" lon="-105.229789">
  <ele>1583.0</ele>
  <time>2026-08-28T17:52:32Z</time>
  <course>0.0</course>
  <speed>0.0</speed>
  <fix>3d</fix>
</trkpt>
<trkpt lat="40.071375" lon="-105.229789">
  <ele>1582.99</ele>
  <time>2026-08-28T17:52:32Z</time>
  <course>247.21</course>
  <speed>0.02</speed>
  <fix>3d</fix>
</trkpt>
<trkpt lat="40.0713749" lon="-105.229789">
  <ele>1583.0</ele>
  <time>2026-08-28T17:52:32Z</time>
  <course>0.0</course>
  <speed>0.0</speed>
  <fix>3d</fix>
</trkpt>
<trkpt lat="40.071375" lon="-105.2297889">
  <ele>1582.99</ele>
  <time>2026-08-28T17:52:32Z</time>
  <course>247.21</course>
  <speed>0.02</speed>
  <fix>3d</fix>
</trkpt>
<trkpt lat="40.0713749" lon="-105.229789">
  <ele>1583.0</ele>
  <time>2026-08-28T17:52:32Z</time>
  <course>0.0</course>
  <speed>0.0</speed>
  <fix>3d</fix>
</trkpt>
<trkpt lat="40.071375" lon="-105.229789">
  <ele>1582.99</ele>
  <time>2026-08-28T17:52:32Z</time>
  <course>247.21</course>
  <speed>0.02</speed>
  <fix>3d</fix>
</trkpt>
<trkpt lat="40.0713749" lon="-105.229789">
  <ele>1583.0</ele>
  <time>2026-08-28T17:52:32Z</time>
  <course>0.0</course>
  <speed>0.0</speed>
  <fix>3d</fix>
</trkpt>
<trkpt lat="40.071375" lon="-105.2297889">
  <ele>1582.98</ele>
  <time>2026-08-28T17:52:32Z</time>
  <course>247.21</course>
  <speed>0.022360679774997897</speed>
  <fix>3d</fix>
</trkpt>
<trkpt lat="40.0713749" lon="-105.229789">
  <ele>1583.0</ele>
  <time>2026-08-28T17:52:32Z</time>
  <course>0.0</course>
  <speed>0.0</speed>
  <fix>3d</fix>
</trkpt>
<trkpt lat="40.071375" lon="-105.2297889">
  <ele>1582.98</ele>
  <time>2026-08-28T17:52:32Z</time>
  <course>247.21</course>
  <speed>0.02</speed>
  <fix>3d</fix>
</trkpt>
<trkpt lat="40.0713749" lon="-105.229789">
  <ele>1583.0</ele>
  <time>2026-08-28T17:52:32Z</time>
  <course>0.0</course>
  <speed>0.0</speed>
  <fix>3d</fix>
</trkpt>
<trkpt lat="40.071375" lon="-105.2297889">
  <ele>1582.98</ele>
  <time>2026-08-28T17:52:32Z</time>
  <course>247.21</course>
  <speed>0.022360679774997897</speed>
  <fix>3d</fix>
</trkpt>
<trkpt lat="40.0713749" lon="-105.229789">
  <ele>1583.0</ele>
  <time>2026-08-28T17:52:32Z</time>
  <course>0.0</course>
  <speed>0.0</speed>
  <fix>3d</fix>
</trkpt>
<trkpt lat="40.071375" lon="-105.2297889">
  <ele>1582.97</ele>
  <time>2026-08-28T17:52:32Z</time>
  <course>247.2</course>
  <speed>0.022360679774997897</speed>
  <fix>3d</fix>
</trkpt>
<trkpt lat="40.0713749" lon="-105.229789">
  <ele>1583.0</ele>
  <time>2026-08-28T17:52:32Z</time>
  <course>0.0</course>
  <speed>0.0</speed>
  <fix>3d</fix>
</trkpt>
<trkpt lat="40.071375" lon="-105.2297889">
  <ele>1582.97</ele>
  <time>2026-08-28T17:52:32Z</time>
  <course>247.2</course>
  <speed>0.022360679774997897</speed>
  <fix>3d</fix>
</trkpt>
<trkpt lat="40.0713749" lon="-105.229789">
  <ele>1583.0</ele>
  <time>2026-08-28T17:52:32Z</time>
  <course>0.0</course>
  <speed>0.0</speed>
  <fix>3d</fix>
</trkpt>
<trkpt lat="40.071375" lon="-105.2297889">
  <ele>1582.97</ele>
  <time>2026-08-28T17:52:32Z</time>
  <course>247.2</course>
  <speed>0.022360679774997897</speed>
  <fix>3d</fix>
</trkpt>
<trkpt lat="40.0713749" lon="-105.229789">
  <ele>1583.0</ele>
  <time>2026-08-28T17:52:32Z</time>
  <course>0.0</course>
  <speed>0.0</speed>
  <fix>3d</fix>
</trkpt>
<trkpt lat="40.071375" lon="-105.2297889">
  <ele>1582.97</ele>
  <time>2026-08-28T17:52:32Z</time>
  <course>247.2</course>
  <speed>0.022360679774997897</speed>
  <fix>3d</fix>
</trkpt>
<trkpt lat="40.0713749" lon="-105.229789">
  <ele>1583.0</ele>
  <time>2026-08-28T17:52:32Z</time>
  <course>0.0</course>
  <speed>0.0</speed>
  <fix>3d</fix>
</trkpt>
<trkpt lat="40.071375" lon="-105.2297889">
  <ele>1582.97</ele>
  <time>2026-08-28T17:52:32Z</time>
  <course>247.2</course>
  <speed>0.02</speed>
  <fix>3d</fix>
</trkpt>
<trkpt lat="40.0713749" lon="-105.229789">
  <ele>1583.0</ele>
  <time>2026-08-28T17:52:32Z</time>
  <course>0.0</course>
  <speed>0.0</speed>
  <fix>3d</fix>
</trkpt>
<trkpt lat="40.071375" lon="-105.2297889">
  <ele>1582.97</ele>
  <time>2026-08-28T17:52:32Z</time>
  <course>247.2</course>
  <speed>0.022360679774997897</speed>
  <fix>3d</fix>
</trkpt>
<trkpt lat="40.0713749" lon="-105.229789">
  <ele>1583.0</ele>
  <time>2026-08-28T17:52:32Z</time>
  <course>0.0</course>
  <speed>0.0</speed>
  <fix>3d</fix>
</trkpt>
<trkpt lat="40.071375" lon="-105.2297889">
  <ele>1582.97</ele>
  <time>2026-08-28T17:52:32Z</time>
  <course>247.2</course>
  <speed>0.022360679774997897</speed>
  <fix>3d</fix>
</trkpt>
<trkpt lat="40.0713749" lon="-105.229789">
  <ele>1583.0</ele>
  <time>2026-08-28T17:52:32Z</time>
  <course>0.0</course>
  <speed>0.0</speed>
  <fix>3d</fix>
</trkpt>
<trkpt lat="40.071375" lon="-105.2297889">
  <ele>1582.98</ele>
  <time>2026-08-28T17:52:32Z</time>
  <course>247.2</course>
  <speed>0.022360679774997897</speed>
  <fix>3d</fix>
</trkpt>
<trkpt lat="40.0713749" lon="-105.229789">
  <ele>1583.0</ele>
  <time>2026-08-28T17:52:32Z</time>
  <course>0.0</course>
  <speed>0.0</speed>
  <fix>3d</fix>
</trkpt>
<trkpt lat="40.071375" lon="-105.2297889">
  <ele>1582.98</ele>
  <time>2026-08-28T17:52:32Z</time>
  <course>247.2</course>
  <speed>0.022360679774997897</speed>
  <fix>3d</fix>
</trkpt>
<trkpt lat="40.0713749" lon="-105.229789">
  <ele>1583.0</ele>
  <time>2026-08-28T17:52:32Z</time>
  <course>0.0</course>
  <speed>0.0</speed>
  <fix>3d</fix>
</trkpt>
<trkpt lat="40.071375" lon="-105.2297889">
  <ele>1582.98</ele>
  <time>2026-08-28T17:52:32Z</time>
  <course>247.2</course>
  <speed>0.022360679774997897</speed>
  <fix>3d</fix>
</trkpt>
<trkpt lat="40.0713749" lon="-105.229789">
  <ele>1583.0</ele>
  <time>2026-08-28T17:52:32Z</time>
  <course>0.0</course>
  <speed>0.0</speed>
  <fix>3d</fix>
</trkpt>
<trkpt lat="40.071375" lon="-105.2297889">
  <ele>1582.98</ele>
  <time>2026-08-28T17:52:32Z</time>
  <course>247.2</course>
  <speed>0.022360679774997897</speed>
  <fix>3d</fix>
</trkpt>
<trkpt lat="40.0713749" lon="-105.229789">
  <ele>1583.0</ele>
  <time>2026-08-28T17:52:32Z</time>
  <course>0.0</course>
  <speed>0.0</speed>
  <fix>3d</fix>
</trkpt>
<trkpt lat="40.071375" lon="-105.2297889">
  <ele>1582.98</ele>
  <time>2026-08-28T17:52:32Z</time>
  <course>247.2</course>
  <speed>0.022360679774997897</speed>
  <fix>3d</fix>
</trkpt>
<trkpt lat="40.0713749" lon="-105.229789">
  <ele>1583.0</ele>
  <time>2026-08-28T17:52:32Z</time>
  <course>0.0</course>
  <speed>0.0</speed>
  <fix>3d</fix>
</trkpt>
<trkpt lat="40.071375" lon="-105.2297889">
  <ele>1582.99</ele>
  <time>2026-08-28T17:52:32Z</time>
  <course>247.19</course>
  <speed>0.022360679774997897</speed>
  <fix>3d</fix>
</trkpt>
<trkpt lat="40.0713749" lon="-105.229789">
  <ele>1583.0</ele>
  <time>2026-08-28T17:52:32Z</time>
  <course>0.0</course>
  <speed>0.0</speed>
  <fix>3d</fix>
</trkpt>
<trkpt lat="40.071375" lon="-105.2297889">
  <ele>1582.99</ele>
  <time>2026-08-28T17:52:32Z</time>
  <course>247.19</course>
  <speed>0.022360679774997897</speed>
  <fix>3d</fix>
</trkpt>
<trkpt lat="40.0713749" lon="-105.229789">
  <ele>1583.0</ele>
  <time>2026-08-28T17:52:32Z</time>
  <course>0.0</course>
  <speed>0.0</speed>
  <fix>3d</fix>
</trkpt>
<trkpt lat="40.071375" lon="-105.2297889">
  <ele>1582.99</ele>
  <time>2026-08-28T17:52:32Z</time>
  <course>247.19</course>
  <speed>0.022360679774997897</speed>
  <fix>3d</fix>
</trkpt>
<trkpt lat="40.0713749" lon="-105.229789">
  <ele>1583.0</ele>
  <time>2026-08-28T17:52:32Z</time>
  <course>0.0</course>
  <speed>0.0</speed>
  <fix>3d</fix>
</trkpt>
<trkpt lat="40.071375" lon="-105.2297889">
  <ele>1583.0</ele>
  <time>2026-08-28T17:52:32Z</time>
  <course>247.19</course>
  <speed>0.022360679774997897</speed>
  <fix>3d</fix>
</trkpt>
<trkpt lat="40.0713749" lon="-105.229789">
  <ele>1583.0</ele>
  <time>2026-08-28T17:52:32Z</time>
  <course>0.0</course>
  <speed>0.0</speed>
  <fix>3d</fix>
</trkpt>
<trkpt lat="40.071375" lon="-105.2297889">
  <ele>1583.0</ele>
  <time>2026-08-28T17:52:32Z</time>
  <course>247.19</course>
  <speed>0.022360679774997897</speed>
  <fix>3d</fix>
</trkpt>
<trkpt lat="40.0713749" lon="-105.229789">
  <ele>1583.0</ele>
  <time>2026-08-28T17:52:32Z</time>
  <course>0.0</course>
  <speed>0.0</speed>
  <fix>3d</fix>
</trkpt>
<trkpt lat="40.071375" lon="-105.2297889">
  <ele>1583.01</ele>
  <time>2026-08-28T17:52:32Z</time>
  <course>247.19</course>
  <speed>0.022360679774997897</speed>
  <fix>3d</fix>
</trkpt>
<trkpt lat="40.0713749" lon="-105.229789">
  <ele>1583.0</ele>
  <time>2026-08-28T17:52:32Z</time>
  <course>0.0</course>
  <speed>0.0</speed>
  <fix>3d</fix>
</trkpt>
<trkpt lat="40.071375" lon="-105.2297889">
  <ele>1583.01</ele>
  <time>2026-08-28T17:52:32Z</time>
  <course>247.19</course>
  <speed>0.022360679774997897</speed>
  <fix>3d</fix>
</trkpt>
<trkpt lat="40.0713749" lon="-105.229789">
  <ele>1583.0</ele>
  <time>2026-08-28T17:52:32Z</time>
  <course>0.0</course>
  <speed>0.0</speed>
  <fix>3d</fix>
</trkpt>
<trkpt lat="40.071375" lon="-105.2297889">
  <ele>1583.02</ele>
  <time>2026-08-28T17:52:32Z</time>
  <course>247.19</course>
  <speed>0.022360679774997897</speed>
  <fix>3d</fix>
</trkpt>
<trkpt lat="40.0713749" lon="-105.229789">
  <ele>1583.0</ele>
  <time>2026-08-28T17:52:32Z</time>
  <course>0.0</course>
  <speed>0.0</speed>
  <fix>3d</fix>
</trkpt>
<trkpt lat="40.071375" lon="-105.2297889">
  <ele>1583.03</ele>
  <time>2026-08-28T17:52:32Z</time>
  <course>247.19</course>
  <speed>0.022360679774997897</speed>
  <fix>3d</fix>
</trkpt>
<trkpt lat="40.0713749" lon="-105.229789">
  <ele>1583.0</ele>
  <time>2026-08-28T17:52:32Z</time>
  <course>0.0</course>
  <speed>0.0</speed>
  <fix>3d</fix>
</trkpt>
<trkpt lat="40.071375" lon="-105.2297889">
  <ele>1583.03</ele>
  <time>2026-08-28T17:52:32Z</time>
  <course>247.19</course>
  <speed>0.022360679774997897</speed>
  <fix>3d</fix>
</trkpt>
<trkpt lat="40.0713749" lon="-105.229789">
  <ele>1583.0</ele>
  <time>2026-08-28T17:52:32Z</time>
  <course>0.0</course>
  <speed>0.0</speed>
  <fix>3d</fix>
</trkpt>
<trkpt lat="40.071375" lon="-105.2297889">
  <ele>1583.03</ele>
  <time>2026-08-28T17:52:32Z</time>
  <course>247.19</course>
  <speed>0.022360679774997897</speed>
  <fix>3d</fix>
</trkpt>
<trkpt lat="40.0713749" lon="-105.229789">
  <ele>1583.0</ele>
  <time>2026-08-28T17:52:32Z</time>
  <course>0.0</course>
  <speed>0.0</speed>
  <fix>3d</fix>
</trkpt>
<trkpt lat="40.071375" lon="-105.2297889">
  <ele>1583.03</ele>
  <time>2026-08-28T17:52:32Z</time>
  <course>247.19</course>
  <speed>0.022360679774997897</speed>
  <fix>3d</fix>
</trkpt>
<trkpt lat="40.0713749" lon="-105.229789">
  <ele>1583.0</ele>
  <time>2026-08-28T17:52:32Z</time>
  <course>0.0</course>
  <speed>0.0</speed>
  <fix>3d</fix>
</trkpt>
<trkpt lat="40.071375" lon="-105.2297889">
  <ele>1583.03</ele>
  <time>2026-08-28T17:52:32Z</time>
  <course>247.19</course>
  <speed>0.022360679774997897</speed>
  <fix>3d</fix>
</trkpt>
<trkpt lat="40.0713749" lon="-105.229789">
  <ele>1583.0</ele>
  <time>2026-08-28T17:52:32Z</time>
  <course>0.0</course>
  <speed>0.0</speed>
  <fix>3d</fix>
</trkpt>
<trkpt lat="40.071375" lon="-105.2297889">
  <ele>1583.03</ele>
  <time>2026-08-28T17:52:32Z</time>
  <course>247.18</course>
  <speed>0.022360679774997897</speed>
  <fix>3d</fix>
</trkpt>
<trkpt lat="40.0713749" lon="-105.229789">
  <ele>1583.0</ele>
  <time>2026-08-28T17:52:32Z</time>
  <course>0.0</course>
  <speed>0.0</speed>
  <fix>3d</fix>
</trkpt>
<trkpt lat="40.071375" lon="-105.2297889">
  <ele>1583.02</ele>
  <time>2026-08-28T17:52:32Z</time>
  <course>247.18</course>
  <speed>0.022360679774997897</speed>
  <fix>3d</fix>
</trkpt>
<trkpt lat="40.0713749" lon="-105.229789">
  <ele>1583.0</ele>
  <time>2026-08-28T17:52:32Z</time>
  <course>0.0</course>
  <speed>0.0</speed>
  <fix>3d</fix>
</trkpt>
<trkpt lat="40.071375" lon="-105.2297889">
  <ele>1583.02</ele>
  <time>2026-08-28T17:52:32Z</time>
  <course>247.18</course>
  <speed>0.022360679774997897</speed>
  <fix>3d</fix>
</trkpt>
<trkpt lat="40.0713749" lon="-105.229789">
  <ele>1583.0</ele>
  <time>2026-08-28T17:52:32Z</time>
  <course>0.0</course>
  <speed>0.0</speed>
  <fix>3d</fix>
</trkpt>
<trkpt lat="40.071375" lon="-105.2297889">
  <ele>1583.02</ele>
  <time>2026-08-28T17:52:32Z</time>
  <course>247.18</course>
  <speed>0.022360679774997897</speed>
  <fix>3d</fix>
</trkpt>
<trkpt lat="40.0713749" lon="-105.229789">
  <ele>1583.0</ele>
  <time>2026-08-28T17:52:32Z</time>
  <course>0.0</course>
  <speed>0.0</speed>
  <fix>3d</fix>
</trkpt>
<trkpt lat="40.071375" lon="-105.2297889">
  <ele>1583.01</ele>
  <time>2026-08-28T17:52:32Z</time>
  <course>247.18</course>
  <speed>0.022360679774997897</speed>
  <fix>3d</fix>
</trkpt>
<trkpt lat="40.0713749" lon="-105.229789">
  <ele>1583.0</ele>
  <time>2026-08-28T17:52:32Z</time>
  <course>0.0</course>
  <speed>0.0</speed>
  <fix>3d</fix>
</trkpt>
<trkpt lat="40.071375" lon="-105.2297889">
  <ele>1583.01</ele>
  <time>2026-08-28T17:52:32Z</time>
  <course>247.18</course>
  <speed>0.022360679774997897</speed>
  <fix>3d</fix>
</trkpt>
<trkpt lat="40.0713749" lon="-105.229789">
  <ele>1583.0</ele>
  <time>2026-08-28T17:52:32Z</time>
  <course>0.0</course>
  <speed>0.0</speed>
  <fix>3d</fix>
</trkpt>
<trkpt lat="40.071375" lon="-105.2297889">
  <ele>1583.01</ele>
  <time>2026-08-28T17:52:32Z</time>
  <course>247.18</course>
  <speed>0.022360679774997897</speed>
  <fix>3d</fix>
</trkpt>
<trkpt lat="40.0713749" lon="-105.229789">
  <ele>1583.0</ele>
  <time>2026-08-28T17:52:32Z</time>
  <course>0.0</course>
  <speed>0.0</speed>
  <fix>3d</fix>
</trkpt>
<trkpt lat="40.071375" lon="-105.2297889">
  <ele>1583.0</ele>
  <time>2026-08-28T17:52:32Z</time>
  <course>247.18</course>
  <speed>0.022360679774997897</speed>
  <fix>3d</fix>
</trkpt>
<trkpt lat="40.0713749" lon="-105.229789">
  <ele>1583.0</ele>
  <time>2026-08-28T17:52:32Z</time>
  <course>0.0</course>
  <speed>0.0</speed>
  <fix>3d</fix>
</trkpt>
<trkpt lat="40.071375" lon="-105.2297889">
  <ele>1583.0</ele>
  <time>2026-08-28T17:52:32Z</time>
  <course>247.18</course>
  <speed>0.022360679774997897</speed>
  <fix>3d</fix>
</trkpt>
<trkpt lat="40.0713749" lon="-105.229789">
  <ele>1583.0</ele>
  <time>2026-08-28T17:52:32Z</time>
  <course>0.0</course>
  <speed>0.0</speed>
  <fix>3d</fix>
</trkpt>
<trkpt lat="40.071375" lon="-105.2297889">
  <ele>1582.99</ele>
  <time>2026-08-28T17:52:32Z</time>
  <course>247.18</course>
  <speed>0.022360679774997897</speed>
  <fix>3d</fix>
</trkpt>
<trkpt lat="40.0713749" lon="-105.229789">
  <ele>1583.0</ele>
  <time>2026-08-28T17:52:32Z</time>
  <course>0.0</course>
  <speed>0.0</speed>
  <fix>3d</fix>
</trkpt>
<trkpt lat="40.071375" lon="-105.2297889">
  <ele>1582.98</ele>
  <time>2026-08-28T17:52:32Z</time>
  <course>247.18</course>
  <speed>0.022360679774997897</speed>
  <fix>3d</fix>
</trkpt>
<trkpt lat="40.0713749" lon="-105.229789">
  <ele>1583.0</ele>
  <time>2026-08-28T17:52:32Z</time>
  <course>0.0</course>
  <speed>0.0</speed>
  <fix>3d</fix>
</trkpt>
<trkpt lat="40.071375" lon="-105.2297889">
  <ele>1582.97</ele>
  <time>2026-08-28T17:52:32Z</time>
  <course>247.18</course>
  <speed>0.022360679774997897</speed>
  <fix>3d</fix>
</trkpt>
<trkpt lat="40.0713749" lon="-105.229789">
  <ele>1583.0</ele>
  <time>2026-08-28T17:52:32Z</time>
  <course>0.0</course>
  <speed>0.0</speed>
  <fix>3d</fix>
</trkpt>
<trkpt lat="40.071375" lon="-105.2297889">
  <ele>1582.97</ele>
  <time>2026-08-28T17:52:32Z</time>
  <course>247.18</course>
  <speed>0.022360679774997897</speed>
  <fix>3d</fix>
</trkpt>
<trkpt lat="40.0713749" lon="-105.229789">
  <ele>1583.0</ele>
  <time>2026-08-28T17:52:32Z</time>
  <course>0.0</course>
  <speed>0.0</speed>
  <fix>3d</fix>
</trkpt>
<trkpt lat="40.071375" lon="-105.2297889">
  <ele>1582.96</ele>
  <time>2026-08-28T17:52:32Z</time>
  <course>247.18</course>
  <speed>0.022360679774997897</speed>
  <fix>3d</fix>
</trkpt>
<trkpt lat="40.0713749" lon="-105.229789">
  <ele>1583.0</ele>
  <time>2026-08-28T17:52:32Z</time>
  <course>0.0</course>
  <speed>0.0</speed>
  <fix>3d</fix>
</trkpt>
<trkpt lat="40.071375" lon="-105.2297889">
  <ele>1582.96</ele>
  <time>2026-08-28T17:52:32Z</time>
  <course>247.17</course>
  <speed>0.022360679774997897</speed>
  <fix>3d</fix>
</trkpt>
<trkpt lat="40.0713749" lon="-105.229789">
  <ele>1583.0</ele>
  <time>2026-08-28T17:52:32Z</time>
  <course>0.0</course>
  <speed>0.0</speed>
  <fix>3d</fix>
</trkpt>
<trkpt lat="40.071375" lon="-105.2297889">
  <ele>1582.96</ele>
  <time>2026-08-28T17:52:32Z</time>
  <course>247.17</course>
  <speed>0.022360679774997897</speed>
  <fix>3d</fix>
</trkpt>
<trkpt lat="40.0713749" lon="-105.229789">
  <ele>1583.0</ele>
  <time>2026-08-28T17:52:32Z</time>
  <course>0.0</course>
  <speed>0.0</speed>
  <fix>3d</fix>
</trkpt>
<trkpt lat="40.071375" lon="-105.2297889">
  <ele>1582.96</ele>
  <time>2026-08-28T17:52:32Z</time>
  <course>247.17</course>
  <speed>0.022360679774997897</speed>
  <fix>3d</fix>
</trkpt>
<trkpt lat="40.0713749" lon="-105.229789">
  <ele>1583.0</ele>
  <time>2026-08-28T17:52:32Z</time>
  <course>0.0</course>
  <speed>0.0</speed>
  <fix>3d</fix>
</trkpt>
<trkpt lat="40.071375" lon="-105.2297889">
  <ele>1582.96</ele>
  <time>2026-08-28T17:52:32Z</time>
  <course>247.17</course>
  <speed>0.022360679774997897</speed>
  <fix>3d</fix>
</trkpt>
<trkpt lat="40.0713749" lon="-105.229789">
  <ele>1583.0</ele>
  <time>2026-08-28T17:52:32Z</time>
  <course>0.0</course>
  <speed>0.0</speed>
  <fix>3d</fix>
</trkpt>
<trkpt lat="40.071375" lon="-105.2297889">
  <ele>1582.96</ele>
  <time>2026-08-28T17:52:32Z</time>
  <course>247.17</course>
  <speed>0.022360679774997897</speed>
  <fix>3d</fix>
</trkpt>
<trkpt lat="40.0713749" lon="-105.229789">
  <ele>1583.0</ele>
  <time>2026-08-28T17:52:32Z</time>
  <course>0.0</course>
  <speed>0.0</speed>
  <fix>3d</fix>
</trkpt>
<trkpt lat="40.071375" lon="-105.2297889">
  <ele>1582.96</ele>
  <time>2026-08-28T17:52:32Z</time>
  <course>247.17</course>
  <speed>0.022360679774997897</speed>
  <fix>3d</fix>
</trkpt>
<trkpt lat="40.0713749" lon="-105.229789">
  <ele>1583.0</ele>
  <time>2026-08-28T17:52:32Z</time>
  <course>0.0</course>
  <speed>0.0</speed>
  <fix>3d</fix>
</trkpt>
<trkpt lat="40.071375" lon="-105.2297889">
  <ele>1582.97</ele>
  <time>2026-08-28T17:52:32Z</time>
  <course>247.17</course>
  <speed>0.022360679774997897</speed>
  <fix>3d</fix>
</trkpt>
<trkpt lat="40.0713749" lon="-105.229789">
  <ele>1583.0</ele>
  <time>2026-08-28T17:52:32Z</time>
  <course>0.0</course>
  <speed>0.0</speed>
  <fix>3d</fix>
</trkpt>
<trkpt lat="40.071375" lon="-105.2297889">
  <ele>1582.97</ele>
  <time>2026-08-28T17:52:32Z</time>
  <course>247.17</course>
  <speed>0.022360679774997897</speed>
  <fix>3d</fix>
</trkpt>
<trkpt lat="40.0713749" lon="-105.229789">
  <ele>1583.0</ele>
  <time>2026-08-28T17:52:32Z</time>
  <course>0.0</course>
  <speed>0.0</speed>
  <fix>3d</fix>
</trkpt>
<trkpt lat="40.071375" lon="-105.2297889">
  <ele>1582.98</ele>
  <time>2026-08-28T17:52:32Z</time>
  <course>247.17</course>
  <speed>0.022360679774997897</speed>
  <fix>3d</fix>
</trkpt>
<trkpt lat="40.0713749" lon="-105.229789">
  <ele>1583.0</ele>
  <time>2026-08-28T17:52:32Z</time>
  <course>0.0</course>
  <speed>0.0</speed>
  <fix>3d</fix>
</trkpt>
<trkpt lat="40.071375" lon="-105.2297889">
  <ele>1582.98</ele>
  <time>2026-08-28T17:52:32Z</time>
  <course>247.17</course>
  <speed>0.022360679774997897</speed>
  <fix>3d</fix>
</trkpt>
<trkpt lat="40.0713749" lon="-105.229789">
  <ele>1583.0</ele>
  <time>2026-08-28T17:52:32Z</time>
  <course>0.0</course>
  <speed>0.0</speed>
  <fix>3d</fix>
</trkpt>
<trkpt lat="40.071375" lon="-105.2297889">
  <ele>1582.99</ele>
  <time>2026-08-28T17:52:32Z</time>
  <course>247.17</course>
  <speed>0.022360679774997897</speed>
  <fix>3d</fix>
</trkpt>
<trkpt lat="40.0713749" lon="-105.229789">
  <ele>1583.0</ele>
  <time>2026-08-28T17:52:32Z</time>
  <course>0.0</course>
  <speed>0.0</speed>
  <fix>3d</fix>
</trkpt>
<trkpt lat="40.071375" lon="-105.2297889">
  <ele>1582.99</ele>
  <time>2026-08-28T17:52:32Z</time>
  <course>247.17</course>
  <speed>0.022360679774997897</speed>
  <fix>3d</fix>
</trkpt>
<trkpt lat="40.0713749" lon="-105.229789">
  <ele>1583.0</ele>
  <time>2026-08-28T17:52:32Z</time>
  <course>0.0</course>
  <speed>0.0</speed>
  <fix>3d</fix>
</trkpt>
<trkpt lat="40.071375" lon="-105.2297889">
  <ele>1583.0</ele>
  <time>2026-08-28T17:52:32Z</time>
  <course>247.17</course>
  <speed>0.022360679774997897</speed>
  <fix>3d</fix>
</trkpt>
<trkpt lat="40.0713749" lon="-105.229789">
  <ele>1583.0</ele>
  <time>2026-08-28T17:52:32Z</time>
  <course>0.0</course>
  <speed>0.0</speed>
  <fix>3d</fix>
</trkpt>
<trkpt lat="40.071375" lon="-105.2297889">
  <ele>1583.0</ele>
  <time>2026-08-28T17:52:32Z</time>
  <course>247.17</course>
  <speed>0.022360679774997897</speed>
  <fix>3d</fix>
</trkpt>
<trkpt lat="40.0713749" lon="-105.229789">
  <ele>1583.0</ele>
  <time>2026-08-28T17:52:32Z</time>
  <course>0.0</course>
  <speed>0.0</speed>
  <fix>3d</fix>
</trkpt>
<trkpt lat="40.071375" lon="-105.2297889">
  <ele>1583.0</ele>
  <time>2026-08-28T17:52:32Z</time>
  <course>247.16</course>
  <speed>0.022360679774997897</speed>
  <fix>3d</fix>
</trkpt>
<trkpt lat="40.0713749" lon="-105.229789">
  <ele>1583.0</ele>
  <time>2026-08-28T17:52:32Z</time>
  <course>0.0</course>
  <speed>0.0</speed>
  <fix>3d</fix>
</trkpt>
<trkpt lat="40.071375" lon="-105.2297889">
  <ele>1583.01</ele>
  <time>2026-08-28T17:52:32Z</time>
  <course>247.16</course>
  <speed>0.022360679774997897</speed>
  <fix>3d</fix>
</trkpt>
<trkpt lat="40.0713749" lon="-105.229789">
  <ele>1583.0</ele>
  <time>2026-08-28T17:52:32Z</time>
  <course>0.0</course>
  <speed>0.0</speed>
  <fix>3d</fix>
</trkpt>
<trkpt lat="40.071375" lon="-105.2297889">
  <ele>1583.01</ele>
  <time>2026-08-28T17:52:32Z</time>
  <course>247.16</course>
  <speed>0.022360679774997897</speed>
  <fix>3d</fix>
</trkpt>
<trkpt lat="40.0713749" lon="-105.229789">
  <ele>1583.0</ele>
  <time>2026-08-28T17:52:32Z</time>
  <course>0.0</course>
  <speed>0.0</speed>
  <fix>3d</fix>
</trkpt>
<trkpt lat="40.071375" lon="-105.2297889">
  <ele>1583.01</ele>
  <time>2026-08-28T17:52:32Z</time>
  <course>247.16</course>
  <speed>0.022360679774997897</speed>
  <fix>3d</fix>
</trkpt>
<trkpt lat="40.0713749" lon="-105.229789">
  <ele>1583.0</ele>
  <time>2026-08-28T17:52:32Z</time>
  <course>0.0</course>
  <speed>0.0</speed>
  <fix>3d</fix>
</trkpt>
<trkpt lat="40.071375" lon="-105.2297889">
  <ele>1583.01</ele>
  <time>2026-08-28T17:52:32Z</time>
  <course>247.16</course>
  <speed>0.022360679774997897</speed>
  <fix>3d</fix>
</trkpt>
<trkpt lat="40.0713749" lon="-105.229789">
  <ele>1583.0</ele>
  <time>2026-08-28T17:52:32Z</time>
  <course>0.0</course>
  <speed>0.0</speed>
  <fix>3d</fix>
</trkpt>
<trkpt lat="40.071375" lon="-105.2297889">
  <ele>1583.02</ele>
  <time>2026-08-28T17:52:32Z</time>
  <course>247.16</course>
  <speed>0.022360679774997897</speed>
  <fix>3d</fix>
</trkpt>
<trkpt lat="40.0713749" lon="-105.229789">
  <ele>1583.0</ele>
  <time>2026-08-28T17:52:32Z</time>
  <course>0.0</course>
  <speed>0.0</speed>
  <fix>3d</fix>
</trkpt>
<trkpt lat="39.655741" lon="-104.1383097">
  <ele>1566.58</ele>
  <time>2026-08-28T17:52:33Z</time>
  <course>0.0</course>
  <speed>0.0</speed>
  <fix>3d</fix>
</trkpt>
<trkpt lat="40.0713749" lon="-105.229789">
  <ele>1583.0</ele>
  <time>2026-08-28T17:52:33Z</time>
  <course>0.0</course>
  <speed>0.0</speed>
  <fix>3d</fix>
</trkpt>
<trkpt lat="40.0713749" lon="-105.229789">
  <ele>1583.0</ele>
  <time>2026-08-28T17:52:33Z</time>
  <course>238.36</course>
  <speed>0.0</speed>
  <fix>3d</fix>
</trkpt>
<trkpt lat="40.0713749" lon="-105.229789">
  <ele>1583.0</ele>
  <time>2026-08-28T17:52:33Z</time>
  <course>0.0</course>
  <speed>0.0</speed>
  <fix>3d</fix>
</trkpt>
<trkpt lat="40.0713749" lon="-105.229789">
  <ele>1583.0</ele>
  <time>2026-08-28T17:52:33Z</time>
  <course>238.44</course>
  <speed>0.0</speed>
  <fix>3d</fix>
</trkpt>
<trkpt lat="40.0713749" lon="-105.229789">
  <ele>1583.0</ele>
  <time>2026-08-28T17:52:33Z</time>
  <course>0.0</course>
  <speed>0.0</speed>
  <fix>3d</fix>
</trkpt>
<trkpt lat="40.0713749" lon="-105.229789">
  <ele>1583.0</ele>
  <time>2026-08-28T17:52:33Z</time>
  <course>238.64</course>
  <speed>0.0</speed>
  <fix>3d</fix>
</trkpt>
<trkpt lat="40.0713749" lon="-105.229789">
  <ele>1583.0</ele>
  <time>2026-08-28T17:52:33Z</time>
  <course>0.0</course>
  <speed>0.0</speed>
  <fix>3d</fix>
</trkpt>
<trkpt lat="40.0713749" lon="-105.229789">
  <ele>1583.0</ele>
  <time>2026-08-28T17:52:33Z</time>
  <course>238.93</course>
  <speed>0.0</speed>
  <fix>3d</fix>
</trkpt>
<trkpt lat="40.0713749" lon="-105.229789">
  <ele>1583.0</ele>
  <time>2026-08-28T17:52:33Z</time>
  <course>0.0</course>
  <speed>0.0</speed>
  <fix>3d</fix>
</trkpt>
<trkpt lat="40.0713749" lon="-105.229789">
  <ele>1583.0</ele>
  <time>2026-08-28T17:52:33Z</time>
  <course>239.26</course>
  <speed>0.0</speed>
  <fix>3d</fix>
</trkpt>
<trkpt lat="40.0713749" lon="-105.229789">
  <ele>1583.0</ele>
  <time>2026-08-28T17:52:33Z</time>
  <course>0.0</course>
  <speed>0.0</speed>
  <fix>3d</fix>
</trkpt>
<trkpt lat="40.0713749" lon="-105.229789">
  <ele>1583.0</ele>
  <time>2026-08-28T17:52:33Z</time>
  <course>239.61</course>
  <speed>0.0</speed>
  <fix>3d</fix>
</trkpt>
<trkpt lat="40.0713749" lon="-105.229789">
  <ele>1583.0</ele>
  <time>2026-08-28T17:52:33Z</time>
  <course>0.0</course>
  <speed>0.0</speed>
  <fix>3d</fix>
</trkpt>
<trkpt lat="40.0713749" lon="-105.229789">
  <ele>1583.0</ele>
  <time>2026-08-28T17:52:33Z</time>
  <course>239.96</course>
  <speed>0.0</speed>
  <fix>3d</fix>
</trkpt>
<trkpt lat="40.0713749" lon="-105.229789">
  <ele>1583.0</ele>
  <time>2026-08-28T17:52:33Z</time>
  <course>0.0</course>
  <speed>0.0</speed>
  <fix>3d</fix>
</trkpt>
<trkpt lat="40.0713749" lon="-105.229789">
  <ele>1583.0</ele>
  <time>2026-08-28T17:52:33Z</time>
  <course>240.29</course>
  <speed>0.0</speed>
  <fix>3d</fix>
</trkpt>
<trkpt lat="40.0713749" lon="-105.229789">
  <ele>1583.0</ele>
  <time>2026-08-28T17:52:33Z</time>
  <course>0.0</course>
  <speed>0.0</speed>
  <fix>3d</fix>
</trkpt>
<trkpt lat="40.0713749" lon="-105.229789">
  <ele>1583.0</ele>
  <time>2026-08-28T17:52:33Z</time>
  <course>240.61</course>
  <speed>0.0</speed>
  <fix>3d</fix>
</trkpt>
<trkpt lat="40.0713749" lon="-105.229789">
  <ele>1583.0</ele>
  <time>2026-08-28T17:52:33Z</time>
  <course>0.0</course>
  <speed>0.0</speed>
  <fix>3d</fix>
</trkpt>
<trkpt lat="40.0713749" lon="-105.229789">
  <ele>1583.0</ele>
  <time>2026-08-28T17:52:33Z</time>
  <course>240.92</course>
  <speed>0.0</speed>
  <fix>3d</fix>
</trkpt>
<trkpt lat="40.0713749" lon="-105.229789">
  <ele>1583.0</ele>
  <time>2026-08-28T17:52:33Z</time>
  <course>0.0</course>
  <speed>0.0</speed>
  <fix>3d</fix>
</trkpt>
<trkpt lat="40.0713749" lon="-105.229789">
  <ele>1583.0</ele>
  <time>2026-08-28T17:52:33Z</time>
  <course>241.21</course>
  <speed>0.0</speed>
  <fix>3d</fix>
</trkpt>
<trkpt lat="40.0713749" lon="-105.229789">
  <ele>1583.0</ele>
  <time>2026-08-28T17:52:33Z</time>
  <course>0.0</course>
  <speed>0.0</speed>
  <fix>3d</fix>
</trkpt>
<trkpt lat="40.0713749" lon="-105.229789">
  <ele>1583.0</ele>
  <time>2026-08-28T17:52:33Z</time>
  <course>241.49</course>
  <speed>0.0</speed>
  <fix>3d</fix>
</trkpt>
<trkpt lat="40.0713749" lon="-105.229789">
  <ele>1583.0</ele>
  <time>2026-08-28T17:52:33Z</time>
  <course>0.0</course>
  <speed>0.0</speed>
  <fix>3d</fix>
</trkpt>
<trkpt lat="40.0713749" lon="-105.229789">
  <ele>1583.0</ele>
  <time>2026-08-28T17:52:33Z</time>
  <course>241.77</course>
  <speed>0.0</speed>
  <fix>3d</fix>
</trkpt>
<trkpt lat="40.0713749" lon="-105.229789">
  <ele>1583.0</ele>
  <time>2026-08-28T17:52:33Z</time>
  <course>0.0</course>
  <speed>0.0</speed>
  <fix>3d</fix>
</trkpt>
<trkpt lat="40.0713749" lon="-105.229789">
  <ele>1583.0</ele>
  <time>2026-08-28T17:52:33Z</time>
  <course>242.03</course>
  <speed>0.0</speed>
  <fix>3d</fix>
</trkpt>
<trkpt lat="40.0713749" lon="-105.229789">
  <ele>1583.0</ele>
  <time>2026-08-28T17:52:33Z</time>
  <course>0.0</course>
  <speed>0.0</speed>
  <fix>3d</fix>
</trkpt>
<trkpt lat="40.0713749" lon="-105.229789">
  <ele>1583.0</ele>
  <time>2026-08-28T17:52:33Z</time>
  <course>242.29</course>
  <speed>0.0</speed>
  <fix>3d</fix>
</trkpt>
<trkpt lat="40.0713749" lon="-105.229789">
  <ele>1583.0</ele>
  <time>2026-08-28T17:52:33Z</time>
  <course>0.0</course>
  <speed>0.0</speed>
  <fix>3d</fix>
</trkpt>
<trkpt lat="40.0713749" lon="-105.229789">
  <ele>1583.0</ele>
  <time>2026-08-28T17:52:33Z</time>
  <course>242.54</course>
  <speed>0.0</speed>
  <fix>3d</fix>
</trkpt>
<trkpt lat="40.0713749" lon="-105.229789">
  <ele>1583.0</ele>
  <time>2026-08-28T17:52:33Z</time>
  <course>0.0</course>
  <speed>0.0</speed>
  <fix>3d</fix>
</trkpt>
<trkpt lat="40.0713749" lon="-105.229789">
  <ele>1583.0</ele>
  <time>2026-08-28T17:52:33Z</time>
  <course>242.79</course>
  <speed>0.0</speed>
  <fix>3d</fix>
</trkpt>
<trkpt lat="40.0713749" lon="-105.229789">
  <ele>1583.0</ele>
  <time>2026-08-28T17:52:33Z</time>
  <course>0.0</course>
  <speed>0.0</speed>
  <fix>3d</fix>
</trkpt>
<trkpt lat="40.0713749" lon="-105.229789">
  <ele>1583.0</ele>
  <time>2026-08-28T17:52:33Z</time>
  <course>243.02</course>
  <speed>0.0</speed>
  <fix>3d</fix>
</trkpt>
<trkpt lat="40.0713749" lon="-105.229789">
  <ele>1583.0</ele>
  <time>2026-08-28T17:52:33Z</time>
  <course>0.0</course>
  <speed>0.0</speed>
  <fix>3d</fix>
</trkpt>
<trkpt lat="40.0713749" lon="-105.229789">
  <ele>1583.0</ele>
  <time>2026-08-28T17:52:33Z</time>
  <course>243.25</course>
  <speed>0.0</speed>
  <fix>3d</fix>
</trkpt>
<trkpt lat="40.0713749" lon="-105.229789">
  <ele>1583.0</ele>
  <time>2026-08-28T17:52:33Z</time>
  <course>0.0</course>
  <speed>0.0</speed>
  <fix>3d</fix>
</trkpt>
<trkpt lat="40.0713749" lon="-105.229789">
  <ele>1583.0</ele>
  <time>2026-08-28T17:52:33Z</time>
  <course>243.47</course>
  <speed>0.0</speed>
  <fix>3d</fix>
</trkpt>
<trkpt lat="40.0713749" lon="-105.229789">
  <ele>1583.0</ele>
  <time>2026-08-28T17:52:33Z</time>
  <course>0.0</course>
  <speed>0.0</speed>
  <fix>3d</fix>
</trkpt>
<trkpt lat="40.0713749" lon="-105.229789">
  <ele>1583.0</ele>
  <time>2026-08-28T17:52:33Z</time>
  <course>243.68</course>
  <speed>0.0</speed>
  <fix>3d</fix>
</trkpt>
<trkpt lat="40.0713749" lon="-105.229789">
  <ele>1583.0</ele>
  <time>2026-08-28T17:52:33Z</time>
  <course>0.0</course>
  <speed>0.0</speed>
  <fix>3d</fix>
</trkpt>
<trkpt lat="40.0713749" lon="-105.229789">
  <ele>1583.0</ele>
  <time>2026-08-28T17:52:33Z</time>
  <course>243.89</course>
  <speed>0.0</speed>
  <fix>3d</fix>
</trkpt>
<trkpt lat="40.0713749" lon="-105.229789">
  <ele>1583.0</ele>
  <time>2026-08-28T17:52:33Z</time>
  <course>0.0</course>
  <speed>0.0</speed>
  <fix>3d</fix>
</trkpt>
<trkpt lat="40.0713749" lon="-105.229789">
  <ele>1583.0</ele>
  <time>2026-08-28T17:52:33Z</time>
  <course>244.09</course>
  <speed>0.0</speed>
  <fix>3d</fix>
</trkpt>
<trkpt lat="40.0713749" lon="-105.229789">
  <ele>1583.0</ele>
  <time>2026-08-28T17:52:33Z</time>
  <course>0.0</course>
  <speed>0.0</speed>
  <fix>3d</fix>
</trkpt>
<trkpt lat="40.0713749" lon="-105.229789">
  <ele>1583.0</ele>
  <time>2026-08-28T17:52:33Z</time>
  <course>244.28</course>
  <speed>0.0</speed>
  <fix>3d</fix>
</trkpt>
<trkpt lat="40.0713749" lon="-105.229789">
  <ele>1583.0</ele>
  <time>2026-08-28T17:52:33Z</time>
  <course>0.0</course>
  <speed>0.0</speed>
  <fix>3d</fix>
</trkpt>
<trkpt lat="40.0713749" lon="-105.229789">
  <ele>1583.0</ele>
  <time>2026-08-28T17:52:33Z</time>
  <course>244.46</course>
  <speed>0.0</speed>
  <fix>3d</fix>
</trkpt>
<trkpt lat="40.0713749" lon="-105.229789">
  <ele>1583.0</ele>
  <time>2026-08-28T17:52:33Z</time>
  <course>0.0</course>
  <speed>0.0</speed>
  <fix>3d</fix>
</trkpt>
<trkpt lat="40.0713749" lon="-105.229789">
  <ele>1583.0</ele>
  <time>2026-08-28T17:52:33Z</time>
  <course>244.64</course>
  <speed>0.0</speed>
  <fix>3d</fix>
</trkpt>
<trkpt lat="40.0713749" lon="-105.229789">
  <ele>1583.0</ele>
  <time>2026-08-28T17:52:33Z</time>
  <course>0.0</course>
  <speed>0.0</speed>
  <fix>3d</fix>
</trkpt>
<trkpt lat="40.0713749" lon="-105.229789">
  <ele>1583.0</ele>
  <time>2026-08-28T17:52:33Z</time>
  <course>244.81</course>
  <speed>0.0</speed>
  <fix>3d</fix>
</trkpt>
<trkpt lat="40.0713749" lon="-105.229789">
  <ele>1583.0</ele>
  <time>2026-08-28T17:52:33Z</time>
  <course>0.0</course>
  <speed>0.0</speed>
  <fix>3d</fix>
</trkpt>
<trkpt lat="40.0713749" lon="-105.229789">
  <ele>1583.0</ele>
  <time>2026-08-28T17:52:33Z</time>
  <course>244.97</course>
  <speed>0.0</speed>
  <fix>3d</fix>
</trkpt>
<trkpt lat="40.0713749" lon="-105.229789">
  <ele>1583.0</ele>
  <time>2026-08-28T17:52:33Z</time>
  <course>0.0</course>
  <speed>0.0</speed>
  <fix>3d</fix>
</trkpt>
<trkpt lat="40.0713749" lon="-105.229789">
  <ele>1583.0</ele>
  <time>2026-08-28T17:52:33Z</time>
  <course>245.13</course>
  <speed>0.0</speed>
  <fix>3d</fix>
</trkpt>
<trkpt lat="40.0713749" lon="-105.229789">
  <ele>1583.0</ele>
  <time>2026-08-28T17:52:33Z</time>
  <course>0.0</course>
  <speed>0.0</speed>
  <fix>3d</fix>
</trkpt>
<trkpt lat="40.0713749" lon="-105.229789">
  <ele>1583.0</ele>
  <time>2026-08-28T17:52:33Z</time>
  <course>245.29</course>
  <speed>0.0</speed>
  <fix>3d</fix>
</trkpt>
<trkpt lat="40.0713749" lon="-105.229789">
  <ele>1583.0</ele>
  <time>2026-08-28T17:52:33Z</time>
  <course>0.0</course>
  <speed>0.0</speed>
  <fix>3d</fix>
</trkpt>
<trkpt lat="40.0713749" lon="-105.229789">
  <ele>1583.0</ele>
  <time>2026-08-28T17:52:33Z</time>
  <course>245.43</course>
  <speed>0.0</speed>
  <fix>3d</fix>
</trkpt>
<trkpt lat="40.0713749" lon="-105.229789">
  <ele>1583.0</ele>
  <time>2026-08-28T17:52:33Z</time>
  <course>0.0</course>
  <speed>0.0</speed>
  <fix>3d</fix>
</trkpt>
<trkpt lat="40.0713749" lon="-105.229789">
  <ele>1583.0</ele>
  <time>2026-08-28T17:52:33Z</time>
  <course>245.57</course>
  <speed>0.0</speed>
  <fix>3d</fix>
</trkpt>
<trkpt lat="40.0713749" lon="-105.229789">
  <ele>1583.0</ele>
  <time>2026-08-28T17:52:33Z</time>
  <course>0.0</course>
  <speed>0.0</speed>
  <fix>3d</fix>
</trkpt>
<trkpt lat="40.0713749" lon="-105.229789">
  <ele>1583.0</ele>
  <time>2026-08-28T17:52:33Z</time>
  <course>245.71</course>
  <speed>0.0</speed>
  <fix>3d</fix>
</trkpt>
<trkpt lat="40.0713749" lon="-105.229789">
  <ele>1583.0</ele>
  <time>2026-08-28T17:52:33Z</time>
  <course>0.0</course>
  <speed>0.0</speed>
  <fix>3d</fix>
</trkpt>
<trkpt lat="40.0713749" lon="-105.229789">
  <ele>1583.0</ele>
  <time>2026-08-28T17:52:33Z</time>
  <course>245.84</course>
  <speed>0.0</speed>
  <fix>3d</fix>
</trkpt>
<trkpt lat="40.0713749" lon="-105.229789">
  <ele>1583.0</ele>
  <time>2026-08-28T17:52:33Z</time>
  <course>0.0</course>
  <speed>0.0</speed>
  <fix>3d</fix>
</trkpt>
<trkpt lat="40.0713749" lon="-105.229789">
  <ele>1583.0</ele>
  <time>2026-08-28T17:52:33Z</time>
  <course>245.96</course>
  <speed>0.0</speed>
  <fix>3d</fix>
</trkpt>
<trkpt lat="40.0713749" lon="-105.229789">
  <ele>1583.0</ele>
  <time>2026-08-28T17:52:33Z</time>
  <course>0.0</course>
  <speed>0.0</speed>
  <fix>3d</fix>
</trkpt>
<trkpt lat="40.0713749" lon="-105.229789">
  <ele>1583.0</ele>
  <time>2026-08-28T17:52:33Z</time>
  <course>246.08</course>
  <speed>0.0</speed>
  <fix>3d</fix>
</trkpt>
<trkpt lat="40.0713749" lon="-105.229789">
  <ele>1583.0</ele>
  <time>2026-08-28T17:52:33Z</time>
  <course>0.0</course>
  <speed>0.0</speed>
  <fix>3d</fix>
</trkpt>
<trkpt lat="40.0713749" lon="-105.229789">
  <ele>1583.0</ele>
  <time>2026-08-28T17:52:33Z</time>
  <course>246.19</course>
  <speed>0.0</speed>
  <fix>3d</fix>
</trkpt>
<trkpt lat="40.0713749" lon="-105.229789">
  <ele>1583.0</ele>
  <time>2026-08-28T17:52:33Z</time>
  <course>0.0</course>
  <speed>0.0</speed>
  <fix>3d</fix>
</trkpt>
<trkpt lat="40.0713749" lon="-105.229789">
  <ele>1583.0</ele>
  <time>2026-08-28T17:52:33Z</time>
  <course>246.3</course>
  <speed>0.0</speed>
  <fix>3d</fix>
</trkpt>
<trkpt lat="40.0713749" lon="-105.229789">
  <ele>1583.0</ele>
  <time>2026-08-28T17:52:33Z</time>
  <course>0.0</course>
  <speed>0.0</speed>
  <fix>3d</fix>
</trkpt>
<trkpt lat="40.0713749" lon="-105.229789">
  <ele>1583.0</ele>
  <time>2026-08-28T17:52:33Z</time>
  <course>246.41</course>
  <speed>0.0</speed>
  <fix>3d</fix>
</trkpt>
<trkpt lat="40.0713749" lon="-105.229789">
  <ele>1583.0</ele>
  <time>2026-08-28T17:52:33Z</time>
  <course>0.0</course>
  <speed>0.0</speed>
  <fix>3d</fix>
</trkpt>
<trkpt lat="40.0713749" lon="-105.229789">
  <ele>1583.0</ele>
  <time>2026-08-28T17:52:33Z</time>
  <course>246.51</course>
  <speed>0.0</speed>
  <fix>3d</fix>
</trkpt>
<trkpt lat="40.0713749" lon="-105.229789">
  <ele>1583.0</ele>
  <time>2026-08-28T17:52:33Z</time>
  <course>0.0</course>
  <speed>0.0</speed>
  <fix>3d</fix>
</trkpt>
<trkpt lat="40.0713749" lon="-105.229789">
  <ele>1583.0</ele>
  <time>2026-08-28T17:52:33Z</time>
  <course>246.6</course>
  <speed>0.0</speed>
  <fix>3d</fix>
</trkpt>
<trkpt lat="40.0713749" lon="-105.229789">
  <ele>1583.0</ele>
  <time>2026-08-28T17:52:33Z</time>
  <course>0.0</course>
  <speed>0.0</speed>
  <fix>3d</fix>
</trkpt>
<trkpt lat="40.0713749" lon="-105.229789">
  <ele>1583.0</ele>
  <time>2026-08-28T17:52:33Z</time>
  <course>246.7</course>
  <speed>0.0</speed>
  <fix>3d</fix>
</trkpt>
<trkpt lat="40.0713749" lon="-105.229789">
  <ele>1583.0</ele>
  <time>2026-08-28T17:52:33Z</time>
  <course>0.0</course>
  <speed>0.0</speed>
  <fix>3d</fix>
</trkpt>
<trkpt lat="40.0713749" lon="-105.229789">
  <ele>1583.0</ele>
  <time>2026-08-28T17:52:33Z</time>
  <course>246.78</course>
  <speed>0.0</speed>
  <fix>3d</fix>
</trkpt>
<trkpt lat="40.0713749" lon="-105.229789">
  <ele>1583.0</ele>
  <time>2026-08-28T17:52:33Z</time>
  <course>0.0</course>
  <speed>0.0</speed>
  <fix>3d</fix>
</trkpt>
<trkpt lat="40.0713749" lon="-105.229789">
  <ele>1583.0</ele>
  <time>2026-08-28T17:52:33Z</time>
  <course>246.87</course>
  <speed>0.0</speed>
  <fix>3d</fix>
</trkpt>
<trkpt lat="40.0713749" lon="-105.229789">
  <ele>1583.0</ele>
  <time>2026-08-28T17:52:33Z</time>
  <course>0.0</course>
  <speed>0.0</speed>
  <fix>3d</fix>
</trkpt>
<trkpt lat="40.0713749" lon="-105.229789">
  <ele>1583.0</ele>
  <time>2026-08-28T17:52:33Z</time>
  <course>246.95</course>
  <speed>0.0</speed>
  <fix>3d</fix>
</trkpt>
<trkpt lat="40.0713749" lon="-105.229789">
  <ele>1583.0</ele>
  <time>2026-08-28T17:52:33Z</time>
  <course>0.0</course>
  <speed>0.0</speed>
  <fix>3d</fix>
</trkpt>
<trkpt lat="40.0713749" lon="-105.229789">
  <ele>1583.0</ele>
  <time>2026-08-28T17:52:33Z</time>
  <course>247.02</course>
  <speed>0.0</speed>
  <fix>3d</fix>
</trkpt>
<trkpt lat="40.0713749" lon="-105.229789">
  <ele>1583.0</ele>
  <time>2026-08-28T17:52:33Z</time>
  <course>0.0</course>
  <speed>0.0</speed>
  <fix>3d</fix>
</trkpt>
<trkpt lat="40.0713749" lon="-105.229789">
  <ele>1583.0</ele>
  <time>2026-08-28T17:52:33Z</time>
  <course>247.1</course>
  <speed>0.0</speed>
  <fix>3d</fix>
</trkpt>
<trkpt lat="40.0713749" lon="-105.229789">
  <ele>1583.0</ele>
  <time>2026-08-28T17:52:33Z</time>
  <course>0.0</course>
  <speed>0.0</speed>
  <fix>3d</fix>
</trkpt>
<trkpt lat="40.0713749" lon="-105.229789">
  <ele>1583.0</ele>
  <time>2026-08-28T17:52:33Z</time>
  <course>247.17</course>
  <speed>0.0</speed>
  <fix>3d</fix>
</trkpt>
<trkpt lat="40.0713749" lon="-105.229789">
  <ele>1583.0</ele>
  <time>2026-08-28T17:52:33Z</time>
  <course>0.0</course>
  <speed>0.0</speed>
  <fix>3d</fix>
</trkpt>
<trkpt lat="40.0713749" lon="-105.229789">
  <ele>1583.0</ele>
  <time>2026-08-28T17:52:33Z</time>
  <course>247.24</course>
  <speed>0.0</speed>
  <fix>3d</fix>
</trkpt>
<trkpt lat="40.0713749" lon="-105.229789">
  <ele>1583.0</ele>
  <time>2026-08-28T17:52:33Z</time>
  <course>0.0</course>
  <speed>0.0</speed>
  <fix>3d</fix>
</trkpt>
<trkpt lat="40.0713749" lon="-105.229789">
  <ele>1583.0</ele>
  <time>2026-08-28T17:52:33Z</time>
  <course>247.3</course>
  <speed>0.0</speed>
  <fix>3d</fix>
</trkpt>
<trkpt lat="40.0713749" lon="-105.229789">
  <ele>1583.0</ele>
  <time>2026-08-28T17:52:33Z</time>
  <course>0.0</course>
  <speed>0.0</speed>
  <fix>3d</fix>
</trkpt>
<trkpt lat="40.0713749" lon="-105.229789">
  <ele>1583.0</ele>
  <time>2026-08-28T17:52:33Z</time>
  <course>247.36</course>
  <speed>0.0</speed>
  <fix>3d</fix>
</trkpt>
<trkpt lat="40.0713749" lon="-105.229789">
  <ele>1583.0</ele>
  <time>2026-08-28T17:52:33Z</time>
  <course>0.0</course>
  <speed>0.0</speed>
  <fix>3d</fix>
</trkpt>
<trkpt lat="40.0713749" lon="-105.229789">
  <ele>1583.0</ele>
  <time>2026-08-28T17:52:33Z</time>
  <course>247.42</course>
  <speed>0.0</speed>
  <fix>3d</fix>
</trkpt>
<trkpt lat="40.0713749" lon="-105.229789">
  <ele>1583.0</ele>
  <time>2026-08-28T17:52:33Z</time>
  <course>0.0</course>
  <speed>0.0</speed>
  <fix>3d</fix>
</trkpt>
<trkpt lat="40.0713749" lon="-105.229789">
  <ele>1583.0</ele>
  <time>2026-08-28T17:52:33Z</time>
  <course>247.47</course>
  <speed>0.0</speed>
  <fix>3d</fix>
</trkpt>
<trkpt lat="40.0713749" lon="-105.229789">
  <ele>1583.0</ele>
  <time>2026-08-28T17:52:33Z</time>
  <course>0.0</course>
  <speed>0.0</speed>
  <fix>3d</fix>
</trkpt>
<trkpt lat="40.0713749" lon="-105.229789">
  <ele>1583.0</ele>
  <time>2026-08-28T17:52:33Z</time>
  <course>247.53</course>
  <speed>0.0</speed>
  <fix>3d</fix>
</trkpt>
<trkpt lat="40.0713749" lon="-105.229789">
  <ele>1583.0</ele>
  <time>2026-08-28T17:52:33Z</time>
  <course>0.0</course>
  <speed>0.0</speed>
  <fix>3d</fix>
</trkpt>
<trkpt lat="40.0713749" lon="-105.229789">
  <ele>1583.0</ele>
  <time>2026-08-28T17:52:33Z</time>
  <course>247.58</course>
  <speed>0.0</speed>
  <fix>3d</fix>
</trkpt>
<trkpt lat="40.0713749" lon="-105.229789">
  <ele>1583.0</ele>
  <time>2026-08-28T17:52:33Z</time>
  <course>0.0</course>
  <speed>0.0</speed>
  <fix>3d</fix>
</trkpt>
<trkpt lat="40.0713749" lon="-105.229789">
  <ele>1583.0</ele>
  <time>2026-08-28T17:52:33Z</time>
  <course>247.63</course>
  <speed>0.0</speed>
  <fix>3d</fix>
</trkpt>
<trkpt lat="40.0713749" lon="-105.229789">
  <ele>1583.0</ele>
  <time>2026-08-28T17:52:33Z</time>
  <course>0.0</course>
  <speed>0.0</speed>
  <fix>3d</fix>
</trkpt>
<trkpt lat="40.0713749" lon="-105.229789">
  <ele>1583.0</ele>
  <time>2026-08-28T17:52:33Z</time>
  <course>247.67</course>
  <speed>0.0</speed>
  <fix>3d</fix>
</trkpt>
<trkpt lat="40.0713749" lon="-105.229789">
  <ele>1583.0</ele>
  <time>2026-08-28T17:52:33Z</time>
  <course>0.0</course>
  <speed>0.0</speed>
  <fix>3d</fix>
</trkpt>
<trkpt lat="40.0713749" lon="-105.229789">
  <ele>1583.0</ele>
  <time>2026-08-28T17:52:33Z</time>
  <course>247.72</course>
  <speed>0.0</speed>
  <fix>3d</fix>
</trkpt>
<trkpt lat="40.0713749" lon="-105.229789">
  <ele>1583.0</ele>
  <time>2026-08-28T17:52:33Z</time>
  <course>0.0</course>
  <speed>0.0</speed>
  <fix>3d</fix>
</trkpt>
<trkpt lat="40.0713749" lon="-105.229789">
  <ele>1583.0</ele>
  <time>2026-08-28T17:52:33Z</time>
  <course>247.76</course>
  <speed>0.0</speed>
  <fix>3d</fix>
</trkpt>
<trkpt lat="40.0713749" lon="-105.229789">
  <ele>1583.0</ele>
  <time>2026-08-28T17:52:33Z</time>
  <course>0.0</course>
  <speed>0.0</speed>
  <fix>3d</fix>
</trkpt>
<trkpt lat="40.0713749" lon="-105.229789">
  <ele>1583.0</ele>
  <time>2026-08-28T17:52:33Z</time>
  <course>247.8</course>
  <speed>0.0</speed>
  <fix>3d</fix>
</trkpt>
<trkpt lat="40.0713749" lon="-105.229789">
  <ele>1583.0</ele>
  <time>2026-08-28T17:52:33Z</time>
  <course>0.0</course>
  <speed>0.0</speed>
  <fix>3d</fix>
</trkpt>
<trkpt lat="40.0713749" lon="-105.229789">
  <ele>1583.0</ele>
  <time>2026-08-28T17:52:33Z</time>
  <course>247.83</course>
  <speed>0.0</speed>
  <fix>3d</fix>
</trkpt>
<trkpt lat="40.0713749" lon="-105.229789">
  <ele>1583.0</ele>
  <time>2026-08-28T17:52:33Z</time>
  <course>0.0</course>
  <speed>0.0</speed>
  <fix>3d</fix>
</trkpt>
<trkpt lat="40.0713749" lon="-105.229789">
  <ele>1583.0</ele>
  <time>2026-08-28T17:52:33Z</time>
  <course>247.87</course>
  <speed>0.0</speed>
  <fix>3d</fix>
</trkpt>
<trkpt lat="40.0713749" lon="-105.229789">
  <ele>1583.0</ele>
  <time>2026-08-28T17:52:33Z</time>
  <course>0.0</course>
  <speed>0.0</speed>
  <fix>3d</fix>
</trkpt>
<trkpt lat="40.0713749" lon="-105.229789">
  <ele>1583.0</ele>
  <time>2026-08-28T17:52:33Z</time>
  <course>247.9</course>
  <speed>0.0</speed>
  <fix>3d</fix>
</trkpt>
<trkpt lat="40.0713749" lon="-105.229789">
  <ele>1583.0</ele>
  <time>2026-08-28T17:52:33Z</time>
  <course>0.0</course>
  <speed>0.0</speed>
  <fix>3d</fix>
</trkpt>
<trkpt lat="40.0713749" lon="-105.229789">
  <ele>1583.0</ele>
  <time>2026-08-28T17:52:33Z</time>
  <course>247.94</course>
  <speed>0.0</speed>
  <fix>3d</fix>
</trkpt>
<trkpt lat="40.0713749" lon="-105.229789">
  <ele>1583.0</ele>
  <time>2026-08-28T17:52:33Z</time>
  <course>0.0</course>
  <speed>0.0</speed>
  <fix>3d</fix>
</trkpt>
<trkpt lat="40.0713749" lon="-105.229789">
  <ele>1583.0</ele>
  <time>2026-08-28T17:52:33Z</time>
  <course>247.97</course>
  <speed>0.0</speed>
  <fix>3d</fix>
</trkpt>
<trkpt lat="40.0713749" lon="-105.229789">
  <ele>1583.0</ele>
  <time>2026-08-28T17:52:33Z</time>
  <course>0.0</course>
  <speed>0.0</speed>
  <fix>3d</fix>
</trkpt>
<trkpt lat="40.0713749" lon="-105.229789">
  <ele>1583.0</ele>
  <time>2026-08-28T17:52:33Z</time>
  <course>248.0</course>
  <speed>0.0</speed>
  <fix>3d</fix>
</trkpt>
<trkpt lat="40.0713749" lon="-105.229789">
  <ele>1583.0</ele>
  <time>2026-08-28T17:52:33Z</time>
  <course>0.0</course>
  <speed>0.0</speed>
  <fix>3d</fix>
</trkpt>
<trkpt lat="40.0713749" lon="-105.229789">
  <ele>1583.0</ele>
  <time>2026-08-28T17:52:33Z</time>
  <course>248.02</course>
  <speed>0.0</speed>
  <fix>3d</fix>
</trkpt>
<trkpt lat="40.0713749" lon="-105.229789">
  <ele>1583.0</ele>
  <time>2026-08-28T17:52:33Z</time>
  <course>0.0</course>
  <speed>0.0</speed>
  <fix>3d</fix>
</trkpt>
<trkpt lat="40.0713749" lon="-105.229789">
  <ele>1583.0</ele>
  <time>2026-08-28T17:52:33Z</time>
  <course>248.05</course>
  <speed>0.0</speed>
  <fix>3d</fix>
</trkpt>
<trkpt lat="40.0713749" lon="-105.229789">
  <ele>1583.0</ele>
  <time>2026-08-28T17:52:33Z</time>
  <course>0.0</course>
  <speed>0.0</speed>
  <fix>3d</fix>
</trkpt>
<trkpt lat="40.0713749" lon="-105.229789">
  <ele>1583.0</ele>
  <time>2026-08-28T17:52:33Z</time>
  <course>248.08</course>
  <speed>0.0</speed>
  <fix>3d</fix>
</trkpt>
<trkpt lat="40.0713749" lon="-105.229789">
  <ele>1583.0</ele>
  <time>2026-08-28T17:52:33Z</time>
  <course>0.0</course>
  <speed>0.0</speed>
  <fix>3d</fix>
</trkpt>
<trkpt lat="40.0713749" lon="-105.229789">
  <ele>1583.0</ele>
  <time>2026-08-28T17:52:33Z</time>
  <course>248.1</course>
  <speed>0.0</speed>
  <fix>3d</fix>
</trkpt>
<trkpt lat="40.0713749" lon="-105.229789">
  <ele>1583.0</ele>
  <time>2026-08-28T17:52:33Z</time>
  <course>0.0</course>
  <speed>0.0</speed>
  <fix>3d</fix>
</trkpt>
<trkpt lat="40.0713749" lon="-105.229789">
  <ele>1583.0</ele>
  <time>2026-08-28T17:52:33Z</time>
  <course>248.12</course>
  <speed>0.0</speed>
  <fix>3d</fix>
</trkpt>
<trkpt lat="40.0713749" lon="-105.229789">
  <ele>1583.0</ele>
  <time>2026-08-28T17:52:33Z</time>
  <course>0.0</course>
  <speed>0.0</speed>
  <fix>3d</fix>
</trkpt>
<trkpt lat="40.0713749" lon="-105.229789">
  <ele>1583.0</ele>
  <time>2026-08-28T17:52:33Z</time>
  <course>248.14</course>
  <speed>0.0</speed>
  <fix>3d</fix>
</trkpt>
<trkpt lat="40.0713749" lon="-105.229789">
  <ele>1583.0</ele>
  <time>2026-08-28T17:52:33Z</time>
  <course>0.0</course>
  <speed>0.0</speed>
  <fix>3d</fix>
</trkpt>
<trkpt lat="40.0713749" lon="-105.229789">
  <ele>1583.0</ele>
  <time>2026-08-28T17:52:33Z</time>
  <course>248.16</course>
  <speed>0.0</speed>
  <fix>3d</fix>
</trkpt>
<trkpt lat="40.0713749" lon="-105.229789">
  <ele>1583.0</ele>
  <time>2026-08-28T17:52:33Z</time>
  <course>0.0</course>
  <speed>0.0</speed>
  <fix>3d</fix>
</trkpt>
<trkpt lat="40.0713749" lon="-105.229789">
  <ele>1583.0</ele>
  <time>2026-08-28T17:52:33Z</time>
  <course>248.18</course>
  <speed>0.0</speed>
  <fix>3d</fix>
</trkpt>
<trkpt lat="40.0713749" lon="-105.229789">
  <ele>1583.0</ele>
  <time>2026-08-28T17:52:33Z</time>
  <course>0.0</course>
  <speed>0.0</speed>
  <fix>3d</fix>
</trkpt>
<trkpt lat="40.0713749" lon="-105.229789">
  <ele>1583.0</ele>
  <time>2026-08-28T17:52:33Z</time>
  <course>248.2</course>
  <speed>0.0</speed>
  <fix>3d</fix>
</trkpt>
<trkpt lat="40.0713749" lon="-105.229789">
  <ele>1583.0</ele>
  <time>2026-08-28T17:52:33Z</time>
  <course>0.0</course>
  <speed>0.0</speed>
  <fix>3d</fix>
</trkpt>
<trkpt lat="40.0713749" lon="-105.229789">
  <ele>1583.0</ele>
  <time>2026-08-28T17:52:33Z</time>
  <course>248.22</course>
  <speed>0.0</speed>
  <fix>3d</fix>
</trkpt>
<trkpt lat="40.0713749" lon="-105.229789">
  <ele>1583.0</ele>
  <time>2026-08-28T17:52:33Z</time>
  <course>0.0</course>
  <speed>0.0</speed>
  <fix>3d</fix>
</trkpt>
<trkpt lat="40.0713749" lon="-105.229789">
  <ele>1583.0</ele>
  <time>2026-08-28T17:52:33Z</time>
  <course>248.23</course>
  <speed>0.0</speed>
  <fix>3d</fix>
</trkpt>
<trkpt lat="40.0713749" lon="-105.229789">
  <ele>1583.0</ele>
  <time>2026-08-28T17:52:33Z</time>
  <course>0.0</course>
  <speed>0.0</speed>
  <fix>3d</fix>
</trkpt>
<trkpt lat="40.0713749" lon="-105.229789">
  <ele>1583.0</ele>
  <time>2026-08-28T17:52:33Z</time>
  <course>248.25</course>
  <speed>0.0</speed>
  <fix>3d</fix>
</trkpt>
<trkpt lat="40.0713749" lon="-105.229789">
  <ele>1583.0</ele>
  <time>2026-08-28T17:52:33Z</time>
  <course>0.0</course>
  <speed>0.0</speed>
  <fix>3d</fix>
</trkpt>
<trkpt lat="40.0713749" lon="-105.229789">
  <ele>1583.0</ele>
  <time>2026-08-28T17:52:33Z</time>
  <course>248.26</course>
  <speed>0.0</speed>
  <fix>3d</fix>
</trkpt>
<trkpt lat="40.0713749" lon="-105.229789">
  <ele>1583.0</ele>
  <time>2026-08-28T17:52:33Z</time>
  <course>0.0</course>
  <speed>0.0</speed>
  <fix>3d</fix>
</trkpt>
<trkpt lat="40.0713749" lon="-105.229789">
  <ele>1583.0</ele>
  <time>2026-08-28T17:52:33Z</time>
  <course>248.28</course>
  <speed>0.0</speed>
  <fix>3d</fix>
</trkpt>
<trkpt lat="40.0713749" lon="-105.229789">
  <ele>1583.0</ele>
  <time>2026-08-28T17:52:33Z</time>
  <course>0.0</course>
  <speed>0.0</speed>
  <fix>3d</fix>
</trkpt>
<trkpt lat="40.0713749" lon="-105.229789">
  <ele>1583.0</ele>
  <time>2026-08-28T17:52:33Z</time>
  <course>248.29</course>
  <speed>0.0</speed>
  <fix>3d</fix>
</trkpt>
<trkpt lat="40.0713749" lon="-105.229789">
  <ele>1583.0</ele>
  <time>2026-08-28T17:52:33Z</time>
  <course>0.0</course>
  <speed>0.0</speed>
  <fix>3d</fix>
</trkpt>
<trkpt lat="40.0713749" lon="-105.229789">
  <ele>1583.0</ele>
  <time>2026-08-28T17:52:33Z</time>
  <course>248.3</course>
  <speed>0.0</speed>
  <fix>3d</fix>
</trkpt>
<trkpt lat="40.0713749" lon="-105.229789">
  <ele>1583.0</ele>
  <time>2026-08-28T17:52:33Z</time>
  <course>0.0</course>
  <speed>0.0</speed>
  <fix>3d</fix>
</trkpt>
<trkpt lat="40.0713749" lon="-105.229789">
  <ele>1583.0</ele>
  <time>2026-08-28T17:52:33Z</time>
  <course>248.31</course>
  <speed>0.0</speed>
  <fix>3d</fix>
</trkpt>
<trkpt lat="40.0713749" lon="-105.229789">
  <ele>1583.0</ele>
  <time>2026-08-28T17:52:33Z</time>
  <course>0.0</course>
  <speed>0.0</speed>
  <fix>3d</fix>
</trkpt>
<trkpt lat="40.0713749" lon="-105.229789">
  <ele>1583.0</ele>
  <time>2026-08-28T17:52:33Z</time>
  <course>248.32</course>
  <speed>0.0</speed>
  <fix>3d</fix>
</trkpt>
<trkpt lat="40.0713749" lon="-105.229789">
  <ele>1583.0</ele>
  <time>2026-08-28T17:52:33Z</time>
  <course>0.0</course>
  <speed>0.0</speed>
  <fix>3d</fix>
</trkpt>
<trkpt lat="40.0713749" lon="-105.229789">
  <ele>1583.0</ele>
  <time>2026-08-28T17:52:33Z</time>
  <course>248.33</course>
  <speed>0.0</speed>
  <fix>3d</fix>
</trkpt>
<trkpt lat="40.0713749" lon="-105.229789">
  <ele>1583.0</ele>
  <time>2026-08-28T17:52:33Z</time>
  <course>0.0</course>
  <speed>0.0</speed>
  <fix>3d</fix>
</trkpt>
<trkpt lat="40.0713749" lon="-105.229789">
  <ele>1583.0</ele>
  <time>2026-08-28T17:52:33Z</time>
  <course>248.34</course>
  <speed>0.0</speed>
  <fix>3d</fix>
</trkpt>
<trkpt lat="40.0713749" lon="-105.229789">
  <ele>1583.0</ele>
  <time>2026-08-28T17:52:33Z</time>
  <course>0.0</course>
  <speed>0.0</speed>
  <fix>3d</fix>
</trkpt>
<trkpt lat="40.0713749" lon="-105.229789">
  <ele>1583.0</ele>
  <time>2026-08-28T17:52:33Z</time>
  <course>248.35</course>
  <speed>0.0</speed>
  <fix>3d</fix>
</trkpt>
<trkpt lat="40.0713749" lon="-105.229789">
  <ele>1583.0</ele>
  <time>2026-08-28T17:52:33Z</time>
  <course>0.0</course>
  <speed>0.0</speed>
  <fix>3d</fix>
</trkpt>
<trkpt lat="40.0713749" lon="-105.229789">
  <ele>1583.0</ele>
  <time>2026-08-28T17:52:33Z</time>
  <course>248.35</course>
  <speed>0.0</speed>
  <fix>3d</fix>
</trkpt>
<trkpt lat="40.0713749" lon="-105.229789">
  <ele>1583.0</ele>
  <time>2026-08-28T17:52:33Z</time>
  <course>0.0</course>
  <speed>0.0</speed>
  <fix>3d</fix>
</trkpt>
<trkpt lat="40.0713749" lon="-105.229789">
  <ele>1583.0</ele>
  <time>2026-08-28T17:52:33Z</time>
  <course>248.36</course>
  <speed>0.0</speed>
  <fix>3d</fix>
</trkpt>
<trkpt lat="40.0713749" lon="-105.229789">
  <ele>1583.0</ele>
  <time>2026-08-28T17:52:33Z</time>
  <course>0.0</course>
  <speed>0.0</speed>
  <fix>3d</fix>
</trkpt>
<trkpt lat="40.0713749" lon="-105.229789">
  <ele>1583.0</ele>
  <time>2026-08-28T17:52:33Z</time>
  <course>248.37</course>
  <speed>0.0</speed>
  <fix>3d</fix>
</trkpt>
<trkpt lat="40.0713749" lon="-105.229789">
  <ele>1583.0</ele>
  <time>2026-08-28T17:52:33Z</time>
  <course>0.0</course>
  <speed>0.0</speed>
  <fix>3d</fix>
</trkpt>
<trkpt lat="40.0713749" lon="-105.229789">
  <ele>1583.0</ele>
  <time>2026-08-28T17:52:33Z</time>
  <course>248.37</course>
  <speed>0.0</speed>
  <fix>3d</fix>
</trkpt>
<trkpt lat="40.0713749" lon="-105.229789">
  <ele>1583.0</ele>
  <time>2026-08-28T17:52:33Z</time>
  <course>0.0</course>
  <speed>0.0</speed>
  <fix>3d</fix>
</trkpt>
<trkpt lat="40.0713749" lon="-105.229789">
  <ele>1583.0</ele>
  <time>2026-08-28T17:52:33Z</time>
  <course>248.38</course>
  <speed>0.0</speed>
  <fix>3d</fix>
</trkpt>
<trkpt lat="40.0713749" lon="-105.229789">
  <ele>1583.0</ele>
  <time>2026-08-28T17:52:33Z</time>
  <course>0.0</course>
  <speed>0.0</speed>
  <fix>3d</fix>
</trkpt>
<trkpt lat="40.0713749" lon="-105.229789">
  <ele>1583.0</ele>
  <time>2026-08-28T17:52:33Z</time>
  <course>248.38</course>
  <speed>0.0</speed>
  <fix>3d</fix>
</trkpt>
<trkpt lat="40.0713749" lon="-105.229789">
  <ele>1583.0</ele>
  <time>2026-08-28T17:52:33Z</time>
  <course>0.0</course>
  <speed>0.0</speed>
  <fix>3d</fix>
</trkpt>
<trkpt lat="40.0713749" lon="-105.229789">
  <ele>1583.0</ele>
  <time>2026-08-28T17:52:33Z</time>
  <course>248.39</course>
  <speed>0.0</speed>
  <fix>3d</fix>
</trkpt>
<trkpt lat="40.0713749" lon="-105.229789">
  <ele>1583.0</ele>
  <time>2026-08-28T17:52:33Z</time>
  <course>0.0</course>
  <speed>0.0</speed>
  <fix>3d</fix>
</trkpt>
<trkpt lat="40.0713749" lon="-105.229789">
  <ele>1583.0</ele>
  <time>2026-08-28T17:52:33Z</time>
  <course>248.39</course>
  <speed>0.0</speed>
  <fix>3d</fix>
</trkpt>
<trkpt lat="40.0713749" lon="-105.229789">
  <ele>1583.0</ele>
  <time>2026-08-28T17:52:33Z</time>
  <course>0.0</course>
  <speed>0.0</speed>
  <fix>3d</fix>
</trkpt>
<trkpt lat="40.0713749" lon="-105.229789">
  <ele>1583.0</ele>
  <time>2026-08-28T17:52:33Z</time>
  <course>248.4</course>
  <speed>0.0</speed>
  <fix>3d</fix>
</trkpt>
<trkpt lat="40.0713749" lon="-105.229789">
  <ele>1583.0</ele>
  <time>2026-08-28T17:52:33Z</time>
  <course>0.0</course>
  <speed>0.0</speed>
  <fix>3d</fix>
</trkpt>
<trkpt lat="40.0713749" lon="-105.229789">
  <ele>1583.0</ele>
  <time>2026-08-28T17:52:33Z</time>
  <course>248.4</course>
  <speed>0.0</speed>
  <fix>3d</fix>
</trkpt>
<trkpt lat="40.0713749" lon="-105.229789">
  <ele>1583.0</ele>
  <time>2026-08-28T17:52:33Z</time>
  <course>0.0</course>
  <speed>0.0</speed>
  <fix>3d</fix>
</trkpt>
<trkpt lat="40.0713749" lon="-105.229789">
  <ele>1583.0</ele>
  <time>2026-08-28T17:52:33Z</time>
  <course>248.4</course>
  <speed>0.0</speed>
  <fix>3d</fix>
</trkpt>
<trkpt lat="40.0713749" lon="-105.229789">
  <ele>1583.0</ele>
  <time>2026-08-28T17:52:33Z</time>
  <course>0.0</course>
  <speed>0.0</speed>
  <fix>3d</fix>
</trkpt>
<trkpt lat="40.0713749" lon="-105.229789">
  <ele>1583.0</ele>
  <time>2026-08-28T17:52:33Z</time>
  <course>248.4</course>
  <speed>0.0</speed>
  <fix>3d</fix>
</trkpt>
<trkpt lat="40.0713749" lon="-105.229789">
  <ele>1583.0</ele>
  <time>2026-08-28T17:52:33Z</time>
  <course>0.0</course>
  <speed>0.0</speed>
  <fix>3d</fix>
</trkpt>
<trkpt lat="40.0713749" lon="-105.229789">
  <ele>1583.0</ele>
  <time>2026-08-28T17:52:33Z</time>
  <course>248.41</course>
  <speed>0.0</speed>
  <fix>3d</fix>
</trkpt>
<trkpt lat="40.0713749" lon="-105.229789">
  <ele>1583.0</ele>
  <time>2026-08-28T17:52:33Z</time>
  <course>0.0</course>
  <speed>0.0</speed>
  <fix>3d</fix>
</trkpt>
<trkpt lat="40.0713749" lon="-105.229789">
  <ele>1583.0</ele>
  <time>2026-08-28T17:52:33Z</time>
  <course>248.41</course>
  <speed>0.0</speed>
  <fix>3d</fix>
</trkpt>
<trkpt lat="40.0713749" lon="-105.229789">
  <ele>1583.0</ele>
  <time>2026-08-28T17:52:33Z</time>
  <course>0.0</course>
  <speed>0.0</speed>
  <fix>3d</fix>
</trkpt>
<trkpt lat="40.0713749" lon="-105.229789">
  <ele>1583.0</ele>
  <time>2026-08-28T17:52:33Z</time>
  <course>248.41</course>
  <speed>0.0</speed>
  <fix>3d</fix>
</trkpt>
<trkpt lat="40.0713749" lon="-105.229789">
  <ele>1583.0</ele>
  <time>2026-08-28T17:52:33Z</time>
  <course>0.0</course>
  <speed>0.0</speed>
  <fix>3d</fix>
</trkpt>
<trkpt lat="40.0713749" lon="-105.229789">
  <ele>1583.0</ele>
  <time>2026-08-28T17:52:33Z</time>
  <course>248.41</course>
  <speed>0.0</speed>
  <fix>3d</fix>
</trkpt>
<trkpt lat="40.0713749" lon="-105.229789">
  <ele>1583.0</ele>
  <time>2026-08-28T17:52:33Z</time>
  <course>0.0</course>
  <speed>0.0</speed>
  <fix>3d</fix>
</trkpt>
<trkpt lat="40.0713749" lon="-105.229789">
  <ele>1583.0</ele>
  <time>2026-08-28T17:52:33Z</time>
  <course>248.41</course>
  <speed>0.0</speed>
  <fix>3d</fix>
</trkpt>
<trkpt lat="40.0713749" lon="-105.229789">
  <ele>1583.0</ele>
  <time>2026-08-28T17:52:33Z</time>
  <course>0.0</course>
  <speed>0.0</speed>
  <fix>3d</fix>
</trkpt>
<trkpt lat="40.0713749" lon="-105.229789">
  <ele>1583.0</ele>
  <time>2026-08-28T17:52:33Z</time>
  <course>248.41</course>
  <speed>0.0</speed>
  <fix>3d</fix>
</trkpt>
<trkpt lat="40.0713749" lon="-105.229789">
  <ele>1583.0</ele>
  <time>2026-08-28T17:52:33Z</time>
  <course>0.0</course>
  <speed>0.0</speed>
  <fix>3d</fix>
</trkpt>
<trkpt lat="40.0713749" lon="-105.229789">
  <ele>1583.0</ele>
  <time>2026-08-28T17:52:33Z</time>
  <course>248.41</course>
  <speed>0.0</speed>
  <fix>3d</fix>
</trkpt>
<trkpt lat="40.0713749" lon="-105.229789">
  <ele>1583.0</ele>
  <time>2026-08-28T17:52:33Z</time>
  <course>0.0</course>
  <speed>0.0</speed>
  <fix>3d</fix>
</trkpt>
<trkpt lat="40.0713749" lon="-105.229789">
  <ele>1583.0</ele>
  <time>2026-08-28T17:52:33Z</time>
  <course>248.41</course>
  <speed>0.0</speed>
  <fix>3d</fix>
</trkpt>
<trkpt lat="40.0713749" lon="-105.229789">
  <ele>1583.0</ele>
  <time>2026-08-28T17:52:33Z</time>
  <course>0.0</course>
  <speed>0.0</speed>
  <fix>3d</fix>
</trkpt>
<trkpt lat="40.0713749" lon="-105.229789">
  <ele>1583.0</ele>
  <time>2026-08-28T17:52:33Z</time>
  <course>248.41</course>
  <speed>0.0</speed>
  <fix>3d</fix>
</trkpt>
<trkpt lat="40.0713749" lon="-105.229789">
  <ele>1583.0</ele>
  <time>2026-08-28T17:52:33Z</time>
  <course>0.0</course>
  <speed>0.0</speed>
  <fix>3d</fix>
</trkpt>
<trkpt lat="40.0713749" lon="-105.229789">
  <ele>1583.0</ele>
  <time>2026-08-28T17:52:33Z</time>
  <course>248.41</course>
  <speed>0.0</speed>
  <fix>3d</fix>
</trkpt>
<trkpt lat="40.0713749" lon="-105.229789">
  <ele>1583.0</ele>
  <time>2026-08-28T17:52:33Z</time>
  <course>0.0</course>
  <speed>0.0</speed>
  <fix>3d</fix>
</trkpt>
<trkpt lat="40.0713749" lon="-105.229789">
  <ele>1583.0</ele>
  <time>2026-08-28T17:52:33Z</time>
  <course>248.41</course>
  <speed>0.0</speed>
  <fix>3d</fix>
</trkpt>
<trkpt lat="40.0713749" lon="-105.229789">
  <ele>1583.0</ele>
  <time>2026-08-28T17:52:33Z</time>
  <course>0.0</course>
  <speed>0.0</speed>
  <fix>3d</fix>
</trkpt>
<trkpt lat="40.0713749" lon="-105.229789">
  <ele>1583.0</ele>
  <time>2026-08-28T17:52:33Z</time>
  <course>248.41</course>
  <speed>0.0</speed>
  <fix>3d</fix>
</trkpt>
<trkpt lat="40.0713749" lon="-105.229789">
  <ele>1583.0</ele>
  <time>2026-08-28T17:52:33Z</time>
  <course>0.0</course>
  <speed>0.0</speed>
  <fix>3d</fix>
</trkpt>
<trkpt lat="40.0713749" lon="-105.229789">
  <ele>1583.0</ele>
  <time>2026-08-28T17:52:33Z</time>
  <course>248.41</course>
  <speed>0.0</speed>
  <fix>3d</fix>
</trkpt>
<trkpt lat="40.0713749" lon="-105.229789">
  <ele>1583.0</ele>
  <time>2026-08-28T17:52:33Z</time>
  <course>0.0</course>
  <speed>0.0</speed>
  <fix>3d</fix>
</trkpt>
<trkpt lat="40.0713749" lon="-105.229789">
  <ele>1583.0</ele>
  <time>2026-08-28T17:52:33Z</time>
  <course>248.41</course>
  <speed>0.0</speed>
  <fix>3d</fix>
</trkpt>
<trkpt lat="40.0713749" lon="-105.229789">
  <ele>1583.0</ele>
  <time>2026-08-28T17:52:33Z</time>
  <course>0.0</course>
  <speed>0.0</speed>
  <fix>3d</fix>
</trkpt>
<trkpt lat="40.0713749" lon="-105.229789">
  <ele>1583.0</ele>
  <time>2026-08-28T17:52:33Z</time>
  <course>248.41</course>
  <speed>0.0</speed>
  <fix>3d</fix>
</trkpt>
<trkpt lat="40.0713749" lon="-105.229789">
  <ele>1583.0</ele>
  <time>2026-08-28T17:52:33Z</time>
  <course>0.0</course>
  <speed>0.0</speed>
  <fix>3d</fix>
</trkpt>
<trkpt lat="40.0713749" lon="-105.229789">
  <ele>1583.0</ele>
  <time>2026-08-28T17:52:33Z</time>
  <course>248.41</course>
  <speed>0.0</speed>
  <fix>3d</fix>
</trkpt>
<trkpt lat="40.0713749" lon="-105.229789">
  <ele>1583.0</ele>
  <time>2026-08-28T17:52:33Z</time>
  <course>0.0</course>
  <speed>0.0</speed>
  <fix>3d</fix>
</trkpt>
<trkpt lat="40.0713749" lon="-105.229789">
  <ele>1583.0</ele>
  <time>2026-08-28T17:52:33Z</time>
  <course>248.4</course>
  <speed>0.0</speed>
  <fix>3d</fix>
</trkpt>
<trkpt lat="40.0713749" lon="-105.229789">
  <ele>1583.0</ele>
  <time>2026-08-28T17:52:33Z</time>
  <course>0.0</course>
  <speed>0.0</speed>
  <fix>3d</fix>
</trkpt>
<trkpt lat="40.0713749" lon="-105.229789">
  <ele>1583.0</ele>
  <time>2026-08-28T17:52:33Z</time>
  <course>248.4</course>
  <speed>0.01</speed>
  <fix>3d</fix>
</trkpt>
<trkpt lat="40.0713749" lon="-105.229789">
  <ele>1583.0</ele>
  <time>2026-08-28T17:52:33Z</time>
  <course>0.0</course>
  <speed>0.0</speed>
  <fix>3d</fix>
</trkpt>
<trkpt lat="40.0713749" lon="-105.229789">
  <ele>1583.0</ele>
  <time>2026-08-28T17:52:33Z</time>
  <course>248.4</course>
  <speed>0.01</speed>
  <fix>3d</fix>
</trkpt>
<trkpt lat="40.0713749" lon="-105.229789">
  <ele>1583.0</ele>
  <time>2026-08-28T17:52:33Z</time>
  <course>0.0</course>
  <speed>0.0</speed>
  <fix>3d</fix>
</trkpt>
<trkpt lat="40.0713749" lon="-105.229789">
  <ele>1583.0</ele>
  <time>2026-08-28T17:52:33Z</time>
  <course>248.4</course>
  <speed>0.01</speed>
  <fix>3d</fix>
</trkpt>
<trkpt lat="40.0713749" lon="-105.229789">
  <ele>1583.0</ele>
  <time>2026-08-28T17:52:33Z</time>
  <course>0.0</course>
  <speed>0.0</speed>
  <fix>3d</fix>
</trkpt>
<trkpt lat="40.0713749" lon="-105.229789">
  <ele>1583.0</ele>
  <time>2026-08-28T17:52:33Z</time>
  <course>248.4</course>
  <speed>0.01</speed>
  <fix>3d</fix>
</trkpt>
<trkpt lat="40.0713749" lon="-105.229789">
  <ele>1583.0</ele>
  <time>2026-08-28T17:52:33Z</time>
  <course>0.0</course>
  <speed>0.0</speed>
  <fix>3d</fix>
</trkpt>
<trkpt lat="40.0713749" lon="-105.229789">
  <ele>1583.0</ele>
  <time>2026-08-28T17:52:33Z</time>
  <course>248.39</course>
  <speed>0.01</speed>
  <fix>3d</fix>
</trkpt>
<trkpt lat="40.0713749" lon="-105.229789">
  <ele>1583.0</ele>
  <time>2026-08-28T17:52:33Z</time>
  <course>0.0</course>
  <speed>0.0</speed>
  <fix>3d</fix>
</trkpt>
<trkpt lat="40.0713749" lon="-105.229789">
  <ele>1583.0</ele>
  <time>2026-08-28T17:52:33Z</time>
  <course>248.39</course>
  <speed>0.01</speed>
  <fix>3d</fix>
</trkpt>
<trkpt lat="40.0713749" lon="-105.229789">
  <ele>1583.0</ele>
  <time>2026-08-28T17:52:33Z</time>
  <course>0.0</course>
  <speed>0.0</speed>
  <fix>3d</fix>
</trkpt>
<trkpt lat="40.0713749" lon="-105.229789">
  <ele>1583.0</ele>
  <time>2026-08-28T17:52:33Z</time>
  <course>248.39</course>
  <speed>0.01</speed>
  <fix>3d</fix>
</trkpt>
<trkpt lat="40.0713749" lon="-105.229789">
  <ele>1583.0</ele>
  <time>2026-08-28T17:52:33Z</time>
  <course>0.0</course>
  <speed>0.0</speed>
  <fix>3d</fix>
</trkpt>
<trkpt lat="40.0713749" lon="-105.229789">
  <ele>1583.0</ele>
  <time>2026-08-28T17:52:33Z</time>
  <course>248.38</course>
  <speed>0.01</speed>
  <fix>3d</fix>
</trkpt>
<trkpt lat="40.0713749" lon="-105.229789">
  <ele>1583.0</ele>
  <time>2026-08-28T17:52:33Z</time>
  <course>0.0</course>
  <speed>0.0</speed>
  <fix>3d</fix>
</trkpt>
<trkpt lat="40.0713749" lon="-105.229789">
  <ele>1583.0</ele>
  <time>2026-08-28T17:52:33Z</time>
  <course>248.38</course>
  <speed>0.01</speed>
  <fix>3d</fix>
</trkpt>
<trkpt lat="40.0713749" lon="-105.229789">
  <ele>1583.0</ele>
  <time>2026-08-28T17:52:33Z</time>
  <course>0.0</course>
  <speed>0.0</speed>
  <fix>3d</fix>
</trkpt>
<trkpt lat="40.0713749" lon="-105.229789">
  <ele>1583.0</ele>
  <time>2026-08-28T17:52:33Z</time>
  <course>248.38</course>
  <speed>0.01</speed>
  <fix>3d</fix>
</trkpt>
<trkpt lat="40.0713749" lon="-105.229789">
  <ele>1583.0</ele>
  <time>2026-08-28T17:52:33Z</time>
  <course>0.0</course>
  <speed>0.0</speed>
  <fix>3d</fix>
</trkpt>
<trkpt lat="40.0713749" lon="-105.229789">
  <ele>1583.0</ele>
  <time>2026-08-28T17:52:33Z</time>
  <course>248.37</course>
  <speed>0.01</speed>
  <fix>3d</fix>
</trkpt>
<trkpt lat="40.0713749" lon="-105.229789">
  <ele>1583.0</ele>
  <time>2026-08-28T17:52:33Z</time>
  <course>0.0</course>
  <speed>0.0</speed>
  <fix>3d</fix>
</trkpt>
<trkpt lat="40.0713749" lon="-105.229789">
  <ele>1583.0</ele>
  <time>2026-08-28T17:52:33Z</time>
  <course>248.37</course>
  <speed>0.01</speed>
  <fix>3d</fix>
</trkpt>
<trkpt lat="40.0713749" lon="-105.229789">
  <ele>1583.0</ele>
  <time>2026-08-28T17:52:33Z</time>
  <course>0.0</course>
  <speed>0.0</speed>
  <fix>3d</fix>
</trkpt>
<trkpt lat="40.0713749" lon="-105.229789">
  <ele>1583.0</ele>
  <time>2026-08-28T17:52:33Z</time>
  <course>248.37</course>
  <speed>0.01</speed>
  <fix>3d</fix>
</trkpt>
<trkpt lat="40.0713749" lon="-105.229789">
  <ele>1583.0</ele>
  <time>2026-08-28T17:52:33Z</time>
  <course>0.0</course>
  <speed>0.0</speed>
  <fix>3d</fix>
</trkpt>
<trkpt lat="40.0713749" lon="-105.229789">
  <ele>1583.0</ele>
  <time>2026-08-28T17:52:33Z</time>
  <course>248.36</course>
  <speed>0.01</speed>
  <fix>3d</fix>
</trkpt>
<trkpt lat="40.0713749" lon="-105.229789">
  <ele>1583.0</ele>
  <time>2026-08-28T17:52:33Z</time>
  <course>0.0</course>
  <speed>0.0</speed>
  <fix>3d</fix>
</trkpt>
<trkpt lat="40.0713749" lon="-105.229789">
  <ele>1583.0</ele>
  <time>2026-08-28T17:52:33Z</time>
  <course>248.36</course>
  <speed>0.01</speed>
  <fix>3d</fix>
</trkpt>
<trkpt lat="40.0713749" lon="-105.229789">
  <ele>1583.0</ele>
  <time>2026-08-28T17:52:33Z</time>
  <course>0.0</course>
  <speed>0.0</speed>
  <fix>3d</fix>
</trkpt>
<trkpt lat="40.0713749" lon="-105.229789">
  <ele>1583.0</ele>
  <time>2026-08-28T17:52:33Z</time>
  <course>248.36</course>
  <speed>0.01</speed>
  <fix>3d</fix>
</trkpt>
<trkpt lat="40.0713749" lon="-105.229789">
  <ele>1583.0</ele>
  <time>2026-08-28T17:52:33Z</time>
  <course>0.0</course>
  <speed>0.0</speed>
  <fix>3d</fix>
</trkpt>
<trkpt lat="40.0713749" lon="-105.229789">
  <ele>1583.0</ele>
  <time>2026-08-28T17:52:33Z</time>
  <course>248.35</course>
  <speed>0.01</speed>
  <fix>3d</fix>
</trkpt>
<trkpt lat="40.0713749" lon="-105.229789">
  <ele>1583.0</ele>
  <time>2026-08-28T17:52:33Z</time>
  <course>0.0</course>
  <speed>0.0</speed>
  <fix>3d</fix>
</trkpt>
<trkpt lat="40.0713749" lon="-105.229789">
  <ele>1583.0</ele>
  <time>2026-08-28T17:52:33Z</time>
  <course>248.35</course>
  <speed>0.01</speed>
  <fix>3d</fix>
</trkpt>
<trkpt lat="40.0713749" lon="-105.229789">
  <ele>1583.0</ele>
  <time>2026-08-28T17:52:33Z</time>
  <course>0.0</course>
  <speed>0.0</speed>
  <fix>3d</fix>
</trkpt>
<trkpt lat="40.0713749" lon="-105.229789">
  <ele>1583.0</ele>
  <time>2026-08-28T17:52:33Z</time>
  <course>248.35</course>
  <speed>0.01</speed>
  <fix>3d</fix>
</trkpt>
<trkpt lat="40.0713749" lon="-105.229789">
  <ele>1583.0</ele>
  <time>2026-08-28T17:52:33Z</time>
  <course>0.0</course>
  <speed>0.0</speed>
  <fix>3d</fix>
</trkpt>
<trkpt lat="40.0713749" lon="-105.229789">
  <ele>1583.0</ele>
  <time>2026-08-28T17:52:33Z</time>
  <course>248.34</course>
  <speed>0.01</speed>
  <fix>3d</fix>
</trkpt>
<trkpt lat="40.0713749" lon="-105.229789">
  <ele>1583.0</ele>
  <time>2026-08-28T17:52:33Z</time>
  <course>0.0</course>
  <speed>0.0</speed>
  <fix>3d</fix>
</trkpt>
<trkpt lat="40.0713749" lon="-105.229789">
  <ele>1583.0</ele>
  <time>2026-08-28T17:52:33Z</time>
  <course>248.34</course>
  <speed>0.01</speed>
  <fix>3d</fix>
</trkpt>
<trkpt lat="40.0713749" lon="-105.229789">
  <ele>1583.0</ele>
  <time>2026-08-28T17:52:33Z</time>
  <course>0.0</course>
  <speed>0.0</speed>
  <fix>3d</fix>
</trkpt>
<trkpt lat="40.0713749" lon="-105.229789">
  <ele>1583.0</ele>
  <time>2026-08-28T17:52:33Z</time>
  <course>248.33</course>
  <speed>0.01</speed>
  <fix>3d</fix>
</trkpt>
<trkpt lat="40.0713749" lon="-105.229789">
  <ele>1583.0</ele>
  <time>2026-08-28T17:52:33Z</time>
  <course>0.0</course>
  <speed>0.0</speed>
  <fix>3d</fix>
</trkpt>
<trkpt lat="40.0713749" lon="-105.229789">
  <ele>1583.0</ele>
  <time>2026-08-28T17:52:33Z</time>
  <course>248.33</course>
  <speed>0.01</speed>
  <fix>3d</fix>
</trkpt>
<trkpt lat="40.0713749" lon="-105.229789">
  <ele>1583.0</ele>
  <time>2026-08-28T17:52:33Z</time>
  <course>0.0</course>
  <speed>0.0</speed>
  <fix>3d</fix>
</trkpt>
<trkpt lat="40.0713749" lon="-105.229789">
  <ele>1583.0</ele>
  <time>2026-08-28T17:52:33Z</time>
  <course>248.32</course>
  <speed>0.01</speed>
  <fix>3d</fix>
</trkpt>
<trkpt lat="40.0713749" lon="-105.229789">
  <ele>1583.0</ele>
  <time>2026-08-28T17:52:33Z</time>
  <course>0.0</course>
  <speed>0.0</speed>
  <fix>3d</fix>
</trkpt>
<trkpt lat="40.0713749" lon="-105.229789">
  <ele>1583.0</ele>
  <time>2026-08-28T17:52:33Z</time>
  <course>248.32</course>
  <speed>0.01</speed>
  <fix>3d</fix>
</trkpt>
<trkpt lat="40.0713749" lon="-105.229789">
  <ele>1583.0</ele>
  <time>2026-08-28T17:52:33Z</time>
  <course>0.0</course>
  <speed>0.0</speed>
  <fix>3d</fix>
</trkpt>
<trkpt lat="40.0713749" lon="-105.229789">
  <ele>1583.0</ele>
  <time>2026-08-28T17:52:33Z</time>
  <course>248.32</course>
  <speed>0.01</speed>
  <fix>3d</fix>
</trkpt>
<trkpt lat="40.0713749" lon="-105.229789">
  <ele>1583.0</ele>
  <time>2026-08-28T17:52:33Z</time>
  <course>0.0</course>
  <speed>0.0</speed>
  <fix>3d</fix>
</trkpt>
<trkpt lat="40.0713749" lon="-105.229789">
  <ele>1583.0</ele>
  <time>2026-08-28T17:52:33Z</time>
  <course>248.31</course>
  <speed>0.01</speed>
  <fix>3d</fix>
</trkpt>
<trkpt lat="40.0713749" lon="-105.229789">
  <ele>1583.0</ele>
  <time>2026-08-28T17:52:33Z</time>
  <course>0.0</course>
  <speed>0.0</speed>
  <fix>3d</fix>
</trkpt>
<trkpt lat="40.0713749" lon="-105.229789">
  <ele>1583.0</ele>
  <time>2026-08-28T17:52:33Z</time>
  <course>248.31</course>
  <speed>0.01</speed>
  <fix>3d</fix>
</trkpt>
<trkpt lat="40.0713749" lon="-105.229789">
  <ele>1583.0</ele>
  <time>2026-08-28T17:52:33Z</time>
  <course>0.0</course>
  <speed>0.0</speed>
  <fix>3d</fix>
</trkpt>
<trkpt lat="40.0713749" lon="-105.229789">
  <ele>1583.0</ele>
  <time>2026-08-28T17:52:33Z</time>
  <course>248.3</course>
  <speed>0.01</speed>
  <fix>3d</fix>
</trkpt>
<trkpt lat="40.0713749" lon="-105.229789">
  <ele>1583.0</ele>
  <time>2026-08-28T17:52:33Z</time>
  <course>0.0</course>
  <speed>0.0</speed>
  <fix>3d</fix>
</trkpt>
<trkpt lat="40.0713749" lon="-105.229789">
  <ele>1583.0</ele>
  <time>2026-08-28T17:52:33Z</time>
  <course>248.3</course>
  <speed>0.01</speed>
  <fix>3d</fix>
</trkpt>
<trkpt lat="40.0713749" lon="-105.229789">
  <ele>1583.0</ele>
  <time>2026-08-28T17:52:33Z</time>
  <course>0.0</course>
  <speed>0.0</speed>
  <fix>3d</fix>
</trkpt>
<trkpt lat="40.0713749" lon="-105.229789">
  <ele>1583.0</ele>
  <time>2026-08-28T17:52:33Z</time>
  <course>248.29</course>
  <speed>0.01</speed>
  <fix>3d</fix>
</trkpt>
<trkpt lat="40.0713749" lon="-105.229789">
  <ele>1583.0</ele>
  <time>2026-08-28T17:52:33Z</time>
  <course>0.0</course>
  <speed>0.0</speed>
  <fix>3d</fix>
</trkpt>
<trkpt lat="40.0713749" lon="-105.229789">
  <ele>1583.0</ele>
  <time>2026-08-28T17:52:33Z</time>
  <course>248.29</course>
  <speed>0.01</speed>
  <fix>3d</fix>
</trkpt>
<trkpt lat="40.0713749" lon="-105.229789">
  <ele>1583.0</ele>
  <time>2026-08-28T17:52:33Z</time>
  <course>0.0</course>
  <speed>0.0</speed>
  <fix>3d</fix>
</trkpt>
<trkpt lat="40.0713749" lon="-105.229789">
  <ele>1583.0</ele>
  <time>2026-08-28T17:52:33Z</time>
  <course>248.28</course>
  <speed>0.01</speed>
  <fix>3d</fix>
</trkpt>
<trkpt lat="40.0713749" lon="-105.229789">
  <ele>1583.0</ele>
  <time>2026-08-28T17:52:33Z</time>
  <course>0.0</course>
  <speed>0.0</speed>
  <fix>3d</fix>
</trkpt>
<trkpt lat="40.0713749" lon="-105.229789">
  <ele>1583.0</ele>
  <time>2026-08-28T17:52:33Z</time>
  <course>248.28</course>
  <speed>0.01</speed>
  <fix>3d</fix>
</trkpt>
<trkpt lat="40.0713749" lon="-105.229789">
  <ele>1583.0</ele>
  <time>2026-08-28T17:52:33Z</time>
  <course>0.0</course>
  <speed>0.0</speed>
  <fix>3d</fix>
</trkpt>
<trkpt lat="40.0713749" lon="-105.229789">
  <ele>1583.0</ele>
  <time>2026-08-28T17:52:33Z</time>
  <course>248.27</course>
  <speed>0.01</speed>
  <fix>3d</fix>
</trkpt>
<trkpt lat="40.0713749" lon="-105.229789">
  <ele>1583.0</ele>
  <time>2026-08-28T17:52:33Z</time>
  <course>0.0</course>
  <speed>0.0</speed>
  <fix>3d</fix>
</trkpt>
<trkpt lat="40.0713749" lon="-105.229789">
  <ele>1583.0</ele>
  <time>2026-08-28T17:52:33Z</time>
  <course>248.27</course>
  <speed>0.01</speed>
  <fix>3d</fix>
</trkpt>
<trkpt lat="40.0713749" lon="-105.229789">
  <ele>1583.0</ele>
  <time>2026-08-28T17:52:33Z</time>
  <course>0.0</course>
  <speed>0.0</speed>
  <fix>3d</fix>
</trkpt>
<trkpt lat="40.0713749" lon="-105.229789">
  <ele>1583.0</ele>
  <time>2026-08-28T17:52:33Z</time>
  <course>248.26</course>
  <speed>0.01</speed>
  <fix>3d</fix>
</trkpt>
<trkpt lat="40.0713749" lon="-105.229789">
  <ele>1583.0</ele>
  <time>2026-08-28T17:52:33Z</time>
  <course>0.0</course>
  <speed>0.0</speed>
  <fix>3d</fix>
</trkpt>
<trkpt lat="40.0713749" lon="-105.229789">
  <ele>1583.0</ele>
  <time>2026-08-28T17:52:33Z</time>
  <course>248.26</course>
  <speed>0.01</speed>
  <fix>3d</fix>
</trkpt>
<trkpt lat="40.0713749" lon="-105.229789">
  <ele>1583.0</ele>
  <time>2026-08-28T17:52:33Z</time>
  <course>0.0</course>
  <speed>0.0</speed>
  <fix>3d</fix>
</trkpt>
<trkpt lat="40.0713749" lon="-105.229789">
  <ele>1583.0</ele>
  <time>2026-08-28T17:52:33Z</time>
  <course>248.26</course>
  <speed>0.01</speed>
  <fix>3d</fix>
</trkpt>
<trkpt lat="40.0713749" lon="-105.229789">
  <ele>1583.0</ele>
  <time>2026-08-28T17:52:33Z</time>
  <course>0.0</course>
  <speed>0.0</speed>
  <fix>3d</fix>
</trkpt>
<trkpt lat="40.0713749" lon="-105.229789">
  <ele>1583.0</ele>
  <time>2026-08-28T17:52:33Z</time>
  <course>248.25</course>
  <speed>0.01</speed>
  <fix>3d</fix>
</trkpt>
<trkpt lat="40.0713749" lon="-105.229789">
  <ele>1583.0</ele>
  <time>2026-08-28T17:52:33Z</time>
  <course>0.0</course>
  <speed>0.0</speed>
  <fix>3d</fix>
</trkpt>
<trkpt lat="40.0713749" lon="-105.229789">
  <ele>1583.0</ele>
  <time>2026-08-28T17:52:33Z</time>
  <course>248.25</course>
  <speed>0.01</speed>
  <fix>3d</fix>
</trkpt>
<trkpt lat="40.0713749" lon="-105.229789">
  <ele>1583.0</ele>
  <time>2026-08-28T17:52:33Z</time>
  <course>0.0</course>
  <speed>0.0</speed>
  <fix>3d</fix>
</trkpt>
<trkpt lat="40.0713749" lon="-105.229789">
  <ele>1583.0</ele>
  <time>2026-08-28T17:52:33Z</time>
  <course>248.24</course>
  <speed>0.01</speed>
  <fix>3d</fix>
</trkpt>
<trkpt lat="40.0713749" lon="-105.229789">
  <ele>1583.0</ele>
  <time>2026-08-28T17:52:33Z</time>
  <course>0.0</course>
  <speed>0.0</speed>
  <fix>3d</fix>
</trkpt>
<trkpt lat="40.0713749" lon="-105.229789">
  <ele>1583.0</ele>
  <time>2026-08-28T17:52:33Z</time>
  <course>248.24</course>
  <speed>0.01</speed>
  <fix>3d</fix>
</trkpt>
<trkpt lat="40.0713749" lon="-105.229789">
  <ele>1583.0</ele>
  <time>2026-08-28T17:52:33Z</time>
  <course>0.0</course>
  <speed>0.0</speed>
  <fix>3d</fix>
</trkpt>
<trkpt lat="40.0713749" lon="-105.229789">
  <ele>1583.0</ele>
  <time>2026-08-28T17:52:33Z</time>
  <course>248.23</course>
  <speed>0.01</speed>
  <fix>3d</fix>
</trkpt>
<trkpt lat="40.0713749" lon="-105.229789">
  <ele>1583.0</ele>
  <time>2026-08-28T17:52:33Z</time>
  <course>0.0</course>
  <speed>0.0</speed>
  <fix>3d</fix>
</trkpt>
<trkpt lat="40.0713749" lon="-105.229789">
  <ele>1583.0</ele>
  <time>2026-08-28T17:52:33Z</time>
  <course>248.23</course>
  <speed>0.01</speed>
  <fix>3d</fix>
</trkpt>
<trkpt lat="40.0713749" lon="-105.229789">
  <ele>1583.0</ele>
  <time>2026-08-28T17:52:33Z</time>
  <course>0.0</course>
  <speed>0.0</speed>
  <fix>3d</fix>
</trkpt>
<trkpt lat="40.0713749" lon="-105.229789">
  <ele>1583.0</ele>
  <time>2026-08-28T17:52:33Z</time>
  <course>248.22</course>
  <speed>0.01</speed>
  <fix>3d</fix>
</trkpt>
<trkpt lat="40.0713749" lon="-105.229789">
  <ele>1583.0</ele>
  <time>2026-08-28T17:52:33Z</time>
  <course>0.0</course>
  <speed>0.0</speed>
  <fix>3d</fix>
</trkpt>
<trkpt lat="40.0713749" lon="-105.229789">
  <ele>1583.0</ele>
  <time>2026-08-28T17:52:33Z</time>
  <course>248.22</course>
  <speed>0.01</speed>
  <fix>3d</fix>
</trkpt>
<trkpt lat="40.0713749" lon="-105.229789">
  <ele>1583.0</ele>
  <time>2026-08-28T17:52:33Z</time>
  <course>0.0</course>
  <speed>0.0</speed>
  <fix>3d</fix>
</trkpt>
<trkpt lat="40.0713749" lon="-105.229789">
  <ele>1583.0</ele>
  <time>2026-08-28T17:52:33Z</time>
  <course>248.21</course>
  <speed>0.01</speed>
  <fix>3d</fix>
</trkpt>
<trkpt lat="40.0713749" lon="-105.229789">
  <ele>1583.0</ele>
  <time>2026-08-28T17:52:33Z</time>
  <course>0.0</course>
  <speed>0.0</speed>
  <fix>3d</fix>
</trkpt>
<trkpt lat="40.0713749" lon="-105.229789">
  <ele>1583.0</ele>
  <time>2026-08-28T17:52:33Z</time>
  <course>248.21</course>
  <speed>0.01</speed>
  <fix>3d</fix>
</trkpt>
<trkpt lat="40.0713749" lon="-105.229789">
  <ele>1583.0</ele>
  <time>2026-08-28T17:52:33Z</time>
  <course>0.0</course>
  <speed>0.0</speed>
  <fix>3d</fix>
</trkpt>
<trkpt lat="40.0713749" lon="-105.229789">
  <ele>1583.0</ele>
  <time>2026-08-28T17:52:33Z</time>
  <course>248.2</course>
  <speed>0.01</speed>
  <fix>3d</fix>
</trkpt>
<trkpt lat="40.0713749" lon="-105.229789">
  <ele>1583.0</ele>
  <time>2026-08-28T17:52:33Z</time>
  <course>0.0</course>
  <speed>0.0</speed>
  <fix>3d</fix>
</trkpt>
<trkpt lat="40.0713749" lon="-105.229789">
  <ele>1583.0</ele>
  <time>2026-08-28T17:52:33Z</time>
  <course>248.2</course>
  <speed>0.01</speed>
  <fix>3d</fix>
</trkpt>
<trkpt lat="40.0713749" lon="-105.229789">
  <ele>1583.0</ele>
  <time>2026-08-28T17:52:33Z</time>
  <course>0.0</course>
  <speed>0.0</speed>
  <fix>3d</fix>
</trkpt>
<trkpt lat="40.0713749" lon="-105.229789">
  <ele>1583.0</ele>
  <time>2026-08-28T17:52:33Z</time>
  <course>248.19</course>
  <speed>0.01</speed>
  <fix>3d</fix>
</trkpt>
<trkpt lat="40.0713749" lon="-105.229789">
  <ele>1583.0</ele>
  <time>2026-08-28T17:52:33Z</time>
  <course>0.0</course>
  <speed>0.0</speed>
  <fix>3d</fix>
</trkpt>
<trkpt lat="40.0713749" lon="-105.229789">
  <ele>1583.0</ele>
  <time>2026-08-28T17:52:33Z</time>
  <course>248.19</course>
  <speed>0.01</speed>
  <fix>3d</fix>
</trkpt>
<trkpt lat="40.0713749" lon="-105.229789">
  <ele>1583.0</ele>
  <time>2026-08-28T17:52:33Z</time>
  <course>0.0</course>
  <speed>0.0</speed>
  <fix>3d</fix>
</trkpt>
<trkpt lat="40.0713749" lon="-105.229789">
  <ele>1583.0</ele>
  <time>2026-08-28T17:52:33Z</time>
  <course>248.18</course>
  <speed>0.01</speed>
  <fix>3d</fix>
</trkpt>
<trkpt lat="40.0713749" lon="-105.229789">
  <ele>1583.0</ele>
  <time>2026-08-28T17:52:33Z</time>
  <course>0.0</course>
  <speed>0.0</speed>
  <fix>3d</fix>
</trkpt>
<trkpt lat="40.0713749" lon="-105.229789">
  <ele>1583.0</ele>
  <time>2026-08-28T17:52:33Z</time>
  <course>248.18</course>
  <speed>0.01</speed>
  <fix>3d</fix>
</trkpt>
<trkpt lat="40.0713749" lon="-105.229789">
  <ele>1583.0</ele>
  <time>2026-08-28T17:52:33Z</time>
  <course>0.0</course>
  <speed>0.0</speed>
  <fix>3d</fix>
</trkpt>
<trkpt lat="40.0713749" lon="-105.229789">
  <ele>1583.0</ele>
  <time>2026-08-28T17:52:33Z</time>
  <course>248.17</course>
  <speed>0.022360679774997897</speed>
  <fix>3d</fix>
</trkpt>
<trkpt lat="40.0713749" lon="-105.229789">
  <ele>1583.0</ele>
  <time>2026-08-28T17:52:33Z</time>
  <course>0.0</course>
  <speed>0.0</speed>
  <fix>3d</fix>
</trkpt>
<trkpt lat="40.0713749" lon="-105.229789">
  <ele>1583.0</ele>
  <time>2026-08-28T17:52:33Z</time>
  <course>248.17</course>
  <speed>0.022360679774997897</speed>
  <fix>3d</fix>
</trkpt>
<trkpt lat="40.0713749" lon="-105.229789">
  <ele>1583.0</ele>
  <time>2026-08-28T17:52:33Z</time>
  <course>0.0</course>
  <speed>0.0</speed>
  <fix>3d</fix>
</trkpt>
<trkpt lat="40.0713749" lon="-105.229789">
  <ele>1583.0</ele>
  <time>2026-08-28T17:52:33Z</time>
  <course>248.16</course>
  <speed>0.022360679774997897</speed>
  <fix>3d</fix>
</trkpt>
<trkpt lat="40.0713749" lon="-105.229789">
  <ele>1583.0</ele>
  <time>2026-08-28T17:52:33Z</time>
  <course>0.0</course>
  <speed>0.0</speed>
  <fix>3d</fix>
</trkpt>
<trkpt lat="40.0713749" lon="-105.229789">
  <ele>1583.0</ele>
  <time>2026-08-28T17:52:33Z</time>
  <course>248.16</course>
  <speed>0.022360679774997897</speed>
  <fix>3d</fix>
</trkpt>
<trkpt lat="40.0713749" lon="-105.229789">
  <ele>1583.0</ele>
  <time>2026-08-28T17:52:33Z</time>
  <course>0.0</course>
  <speed>0.0</speed>
  <fix>3d</fix>
</trkpt>
<trkpt lat="40.0713749" lon="-105.229789">
  <ele>1583.0</ele>
  <time>2026-08-28T17:52:33Z</time>
  <course>248.15</course>
  <speed>0.022360679774997897</speed>
  <fix>3d</fix>
</trkpt>
<trkpt lat="40.0713749" lon="-105.229789">
  <ele>1583.0</ele>
  <time>2026-08-28T17:52:33Z</time>
  <course>0.0</course>
  <speed>0.0</speed>
  <fix>3d</fix>
</trkpt>
<trkpt lat="40.0713749" lon="-105.229789">
  <ele>1583.0</ele>
  <time>2026-08-28T17:52:33Z</time>
  <course>248.15</course>
  <speed>0.022360679774997897</speed>
  <fix>3d</fix>
</trkpt>
<trkpt lat="40.0713749" lon="-105.229789">
  <ele>1583.0</ele>
  <time>2026-08-28T17:52:33Z</time>
  <course>0.0</course>
  <speed>0.0</speed>
  <fix>3d</fix>
</trkpt>
<trkpt lat="40.0713749" lon="-105.229789">
  <ele>1583.0</ele>
  <time>2026-08-28T17:52:33Z</time>
  <course>248.14</course>
  <speed>0.022360679774997897</speed>
  <fix>3d</fix>
</trkpt>
<trkpt lat="40.0713749" lon="-105.229789">
  <ele>1583.0</ele>
  <time>2026-08-28T17:52:33Z</time>
  <course>0.0</course>
  <speed>0.0</speed>
  <fix>3d</fix>
</trkpt>
<trkpt lat="40.0713749" lon="-105.229789">
  <ele>1583.0</ele>
  <time>2026-08-28T17:52:33Z</time>
  <course>248.14</course>
  <speed>0.022360679774997897</speed>
  <fix>3d</fix>
</trkpt>
<trkpt lat="40.0713749" lon="-105.229789">
  <ele>1583.0</ele>
  <time>2026-08-28T17:52:33Z</time>
  <course>0.0</course>
  <speed>0.0</speed>
  <fix>3d</fix>
</trkpt>
<trkpt lat="40.0713749" lon="-105.229789">
  <ele>1583.0</ele>
  <time>2026-08-28T17:52:33Z</time>
  <course>248.13</course>
  <speed>0.022360679774997897</speed>
  <fix>3d</fix>
</trkpt>
<trkpt lat="40.0713749" lon="-105.229789">
  <ele>1583.0</ele>
  <time>2026-08-28T17:52:33Z</time>
  <course>0.0</course>
  <speed>0.0</speed>
  <fix>3d</fix>
</trkpt>
<trkpt lat="40.0713749" lon="-105.229789">
  <ele>1583.0</ele>
  <time>2026-08-28T17:52:33Z</time>
  <course>248.13</course>
  <speed>0.022360679774997897</speed>
  <fix>3d</fix>
</trkpt>
<trkpt lat="40.0713749" lon="-105.229789">
  <ele>1583.0</ele>
  <time>2026-08-28T17:52:33Z</time>
  <course>0.0</course>
  <speed>0.0</speed>
  <fix>3d</fix>
</trkpt>
<trkpt lat="40.0713749" lon="-105.229789">
  <ele>1583.0</ele>
  <time>2026-08-28T17:52:33Z</time>
  <course>248.12</course>
  <speed>0.022360679774997897</speed>
  <fix>3d</fix>
</trkpt>
<trkpt lat="40.0713749" lon="-105.229789">
  <ele>1583.0</ele>
  <time>2026-08-28T17:52:33Z</time>
  <course>0.0</course>
  <speed>0.0</speed>
  <fix>3d</fix>
</trkpt>
<trkpt lat="40.0713749" lon="-105.229789">
  <ele>1583.0</ele>
  <time>2026-08-28T17:52:33Z</time>
  <course>248.12</course>
  <speed>0.022360679774997897</speed>
  <fix>3d</fix>
</trkpt>
<trkpt lat="40.0713749" lon="-105.229789">
  <ele>1583.0</ele>
  <time>2026-08-28T17:52:33Z</time>
  <course>0.0</course>
  <speed>0.0</speed>
  <fix>3d</fix>
</trkpt>
<trkpt lat="40.0713749" lon="-105.229789">
  <ele>1583.0</ele>
  <time>2026-08-28T17:52:33Z</time>
  <course>248.11</course>
  <speed>0.022360679774997897</speed>
  <fix>3d</fix>
</trkpt>
<trkpt lat="40.0713749" lon="-105.229789">
  <ele>1583.0</ele>
  <time>2026-08-28T17:52:33Z</time>
  <course>0.0</course>
  <speed>0.0</speed>
  <fix>3d</fix>
</trkpt>
<trkpt lat="40.0713749" lon="-105.229789">
  <ele>1583.0</ele>
  <time>2026-08-28T17:52:33Z</time>
  <course>248.11</course>
  <speed>0.022360679774997897</speed>
  <fix>3d</fix>
</trkpt>
<trkpt lat="40.0713749" lon="-105.229789">
  <ele>1583.0</ele>
  <time>2026-08-28T17:52:33Z</time>
  <course>0.0</course>
  <speed>0.0</speed>
  <fix>3d</fix>
</trkpt>
<trkpt lat="40.0713749" lon="-105.229789">
  <ele>1583.0</ele>
  <time>2026-08-28T17:52:33Z</time>
  <course>248.1</course>
  <speed>0.022360679774997897</speed>
  <fix>3d</fix>
</trkpt>
<trkpt lat="40.0713749" lon="-105.229789">
  <ele>1583.0</ele>
  <time>2026-08-28T17:52:33Z</time>
  <course>0.0</course>
  <speed>0.0</speed>
  <fix>3d</fix>
</trkpt>
<trkpt lat="40.0713749" lon="-105.229789">
  <ele>1583.0</ele>
  <time>2026-08-28T17:52:33Z</time>
  <course>248.1</course>
  <speed>0.022360679774997897</speed>
  <fix>3d</fix>
</trkpt>
<trkpt lat="40.0713749" lon="-105.229789">
  <ele>1583.0</ele>
  <time>2026-08-28T17:52:33Z</time>
  <course>0.0</course>
  <speed>0.0</speed>
  <fix>3d</fix>
</trkpt>
<trkpt lat="40.0713749" lon="-105.229789">
  <ele>1583.0</ele>
  <time>2026-08-28T17:52:33Z</time>
  <course>248.09</course>
  <speed>0.022360679774997897</speed>
  <fix>3d</fix>
</trkpt>
<trkpt lat="40.0713749" lon="-105.229789">
  <ele>1583.0</ele>
  <time>2026-08-28T17:52:33Z</time>
  <course>0.0</course>
  <speed>0.0</speed>
  <fix>3d</fix>
</trkpt>
<trkpt lat="40.0713749" lon="-105.229789">
  <ele>1583.0</ele>
  <time>2026-08-28T17:52:33Z</time>
  <course>248.09</course>
  <speed>0.022360679774997897</speed>
  <fix>3d</fix>
</trkpt>
<trkpt lat="40.0713749" lon="-105.229789">
  <ele>1583.0</ele>
  <time>2026-08-28T17:52:33Z</time>
  <course>0.0</course>
  <speed>0.0</speed>
  <fix>3d</fix>
</trkpt>
<trkpt lat="40.0713749" lon="-105.229789">
  <ele>1583.0</ele>
  <time>2026-08-28T17:52:33Z</time>
  <course>248.08</course>
  <speed>0.022360679774997897</speed>
  <fix>3d</fix>
</trkpt>
<trkpt lat="40.0713749" lon="-105.229789">
  <ele>1583.0</ele>
  <time>2026-08-28T17:52:33Z</time>
  <course>0.0</course>
  <speed>0.0</speed>
  <fix>3d</fix>
</trkpt>
<trkpt lat="40.0713749" lon="-105.229789">
  <ele>1583.0</ele>
  <time>2026-08-28T17:52:33Z</time>
  <course>248.08</course>
  <speed>0.022360679774997897</speed>
  <fix>3d</fix>
</trkpt>
<trkpt lat="40.0713749" lon="-105.229789">
  <ele>1583.0</ele>
  <time>2026-08-28T17:52:33Z</time>
  <course>0.0</course>
  <speed>0.0</speed>
  <fix>3d</fix>
</trkpt>
<trkpt lat="40.0713749" lon="-105.229789">
  <ele>1583.0</ele>
  <time>2026-08-28T17:52:33Z</time>
  <course>248.07</course>
  <speed>0.022360679774997897</speed>
  <fix>3d</fix>
</trkpt>
<trkpt lat="40.0713749" lon="-105.229789">
  <ele>1583.0</ele>
  <time>2026-08-28T17:52:33Z</time>
  <course>0.0</course>
  <speed>0.0</speed>
  <fix>3d</fix>
</trkpt>
<trkpt lat="40.0713749" lon="-105.229789">
  <ele>1583.0</ele>
  <time>2026-08-28T17:52:33Z</time>
  <course>248.07</course>
  <speed>0.022360679774997897</speed>
  <fix>3d</fix>
</trkpt>
<trkpt lat="40.0713749" lon="-105.229789">
  <ele>1583.0</ele>
  <time>2026-08-28T17:52:33Z</time>
  <course>0.0</course>
  <speed>0.0</speed>
  <fix>3d</fix>
</trkpt>
<trkpt lat="40.0713749" lon="-105.229789">
  <ele>1583.0</ele>
  <time>2026-08-28T17:52:33Z</time>
  <course>248.06</course>
  <speed>0.022360679774997897</speed>
  <fix>3d</fix>
</trkpt>
<trkpt lat="40.0713749" lon="-105.229789">
  <ele>1583.0</ele>
  <time>2026-08-28T17:52:33Z</time>
  <course>0.0</course>
  <speed>0.0</speed>
  <fix>3d</fix>
</trkpt>
<trkpt lat="40.0713749" lon="-105.229789">
  <ele>1583.0</ele>
  <time>2026-08-28T17:52:33Z</time>
  <course>248.06</course>
  <speed>0.022360679774997897</speed>
  <fix>3d</fix>
</trkpt>
<trkpt lat="40.0713749" lon="-105.229789">
  <ele>1583.0</ele>
  <time>2026-08-28T17:52:33Z</time>
  <course>0.0</course>
  <speed>0.0</speed>
  <fix>3d</fix>
</trkpt>
<trkpt lat="40.0713749" lon="-105.229789">
  <ele>1583.0</ele>
  <time>2026-08-28T17:52:33Z</time>
  <course>248.05</course>
  <speed>0.022360679774997897</speed>
  <fix>3d</fix>
</trkpt>
<trkpt lat="40.0713749" lon="-105.229789">
  <ele>1583.0</ele>
  <time>2026-08-28T17:52:33Z</time>
  <course>0.0</course>
  <speed>0.0</speed>
  <fix>3d</fix>
</trkpt>
<trkpt lat="40.0713749" lon="-105.229789">
  <ele>1583.0</ele>
  <time>2026-08-28T17:52:33Z</time>
  <course>248.05</course>
  <speed>0.022360679774997897</speed>
  <fix>3d</fix>
</trkpt>
<trkpt lat="40.0713749" lon="-105.229789">
  <ele>1583.0</ele>
  <time>2026-08-28T17:52:33Z</time>
  <course>0.0</course>
  <speed>0.0</speed>
  <fix>3d</fix>
</trkpt>
<trkpt lat="40.0713749" lon="-105.229789">
  <ele>1583.0</ele>
  <time>2026-08-28T17:52:33Z</time>
  <course>248.05</course>
  <speed>0.022360679774997897</speed>
  <fix>3d</fix>
</trkpt>
<trkpt lat="40.0713749" lon="-105.229789">
  <ele>1583.0</ele>
  <time>2026-08-28T17:52:33Z</time>
  <course>0.0</course>
  <speed>0.0</speed>
  <fix>3d</fix>
</trkpt>
<trkpt lat="40.0713749" lon="-105.229789">
  <ele>1583.0</ele>
  <time>2026-08-28T17:52:33Z</time>
  <course>248.04</course>
  <speed>0.022360679774997897</speed>
  <fix>3d</fix>
</trkpt>
<trkpt lat="40.0713749" lon="-105.229789">
  <ele>1583.0</ele>
  <time>2026-08-28T17:52:33Z</time>
  <course>0.0</course>
  <speed>0.0</speed>
  <fix>3d</fix>
</trkpt>
<trkpt lat="40.0713749" lon="-105.229789">
  <ele>1583.0</ele>
  <time>2026-08-28T17:52:33Z</time>
  <course>248.04</course>
  <speed>0.022360679774997897</speed>
  <fix>3d</fix>
</trkpt>
<trkpt lat="40.0713749" lon="-105.229789">
  <ele>1583.0</ele>
  <time>2026-08-28T17:52:33Z</time>
  <course>0.0</course>
  <speed>0.0</speed>
  <fix>3d</fix>
</trkpt>
<trkpt lat="40.0713749" lon="-105.229789">
  <ele>1583.0</ele>
  <time>2026-08-28T17:52:33Z</time>
  <course>248.03</course>
  <speed>0.022360679774997897</speed>
  <fix>3d</fix>
</trkpt>
<trkpt lat="40.0713749" lon="-105.229789">
  <ele>1583.0</ele>
  <time>2026-08-28T17:52:33Z</time>
  <course>0.0</course>
  <speed>0.0</speed>
  <fix>3d</fix>
</trkpt>
<trkpt lat="40.0713749" lon="-105.229789">
  <ele>1583.0</ele>
  <time>2026-08-28T17:52:33Z</time>
  <course>248.03</course>
  <speed>0.022360679774997897</speed>
  <fix>3d</fix>
</trkpt>
<trkpt lat="40.0713749" lon="-105.229789">
  <ele>1583.0</ele>
  <time>2026-08-28T17:52:33Z</time>
  <course>0.0</course>
  <speed>0.0</speed>
  <fix>3d</fix>
</trkpt>
<trkpt lat="40.0713749" lon="-105.229789">
  <ele>1583.0</ele>
  <time>2026-08-28T17:52:33Z</time>
  <course>248.02</course>
  <speed>0.022360679774997897</speed>
  <fix>3d</fix>
</trkpt>
<trkpt lat="40.0713749" lon="-105.229789">
  <ele>1583.0</ele>
  <time>2026-08-28T17:52:33Z</time>
  <course>0.0</course>
  <speed>0.0</speed>
  <fix>3d</fix>
</trkpt>
<trkpt lat="40.0713749" lon="-105.229789">
  <ele>1583.0</ele>
  <time>2026-08-28T17:52:33Z</time>
  <course>248.02</course>
  <speed>0.022360679774997897</speed>
  <fix>3d</fix>
</trkpt>
<trkpt lat="40.0713749" lon="-105.229789">
  <ele>1583.0</ele>
  <time>2026-08-28T17:52:33Z</time>
  <course>0.0</course>
  <speed>0.0</speed>
  <fix>3d</fix>
</trkpt>
<trkpt lat="40.0713749" lon="-105.229789">
  <ele>1583.0</ele>
  <time>2026-08-28T17:52:33Z</time>
  <course>248.01</course>
  <speed>0.022360679774997897</speed>
  <fix>3d</fix>
</trkpt>
<trkpt lat="40.0713749" lon="-105.229789">
  <ele>1583.0</ele>
  <time>2026-08-28T17:52:33Z</time>
  <course>0.0</course>
  <speed>0.0</speed>
  <fix>3d</fix>
</trkpt>
<trkpt lat="40.0713749" lon="-105.229789">
  <ele>1583.0</ele>
  <time>2026-08-28T17:52:33Z</time>
  <course>248.01</course>
  <speed>0.022360679774997897</speed>
  <fix>3d</fix>
</trkpt>
<trkpt lat="40.0713749" lon="-105.229789">
  <ele>1583.0</ele>
  <time>2026-08-28T17:52:33Z</time>
  <course>0.0</course>
  <speed>0.0</speed>
  <fix>3d</fix>
</trkpt>
<trkpt lat="40.0713749" lon="-105.229789">
  <ele>1583.0</ele>
  <time>2026-08-28T17:52:33Z</time>
  <course>248.0</course>
  <speed>0.022360679774997897</speed>
  <fix>3d</fix>
</trkpt>
<trkpt lat="40.0713749" lon="-105.229789">
  <ele>1583.0</ele>
  <time>2026-08-28T17:52:33Z</time>
  <course>0.0</course>
  <speed>0.0</speed>
  <fix>3d</fix>
</trkpt>
<trkpt lat="40.0713749" lon="-105.229789">
  <ele>1583.0</ele>
  <time>2026-08-28T17:52:33Z</time>
  <course>248.0</course>
  <speed>0.022360679774997897</speed>
  <fix>3d</fix>
</trkpt>
<trkpt lat="40.0713749" lon="-105.229789">
  <ele>1583.0</ele>
  <time>2026-08-28T17:52:33Z</time>
  <course>0.0</course>
  <speed>0.0</speed>
  <fix>3d</fix>
</trkpt>
<trkpt lat="40.0713749" lon="-105.229789">
  <ele>1583.0</ele>
  <time>2026-08-28T17:52:33Z</time>
  <course>247.99</course>
  <speed>0.022360679774997897</speed>
  <fix>3d</fix>
</trkpt>
<trkpt lat="40.0713749" lon="-105.229789">
  <ele>1583.0</ele>
  <time>2026-08-28T17:52:33Z</time>
  <course>0.0</course>
  <speed>0.0</speed>
  <fix>3d</fix>
</trkpt>
<trkpt lat="40.0713749" lon="-105.229789">
  <ele>1583.0</ele>
  <time>2026-08-28T17:52:33Z</time>
  <course>247.99</course>
  <speed>0.022360679774997897</speed>
  <fix>3d</fix>
</trkpt>
<trkpt lat="40.0713749" lon="-105.229789">
  <ele>1583.0</ele>
  <time>2026-08-28T17:52:33Z</time>
  <course>0.0</course>
  <speed>0.0</speed>
  <fix>3d</fix>
</trkpt>
<trkpt lat="40.0713749" lon="-105.229789">
  <ele>1583.0</ele>
  <time>2026-08-28T17:52:33Z</time>
  <course>247.99</course>
  <speed>0.022360679774997897</speed>
  <fix>3d</fix>
</trkpt>
<trkpt lat="40.0713749" lon="-105.229789">
  <ele>1583.0</ele>
  <time>2026-08-28T17:52:33Z</time>
  <course>0.0</course>
  <speed>0.0</speed>
  <fix>3d</fix>
</trkpt>
<trkpt lat="40.0713749" lon="-105.229789">
  <ele>1583.0</ele>
  <time>2026-08-28T17:52:33Z</time>
  <course>247.98</course>
  <speed>0.022360679774997897</speed>
  <fix>3d</fix>
</trkpt>
<trkpt lat="40.0713749" lon="-105.229789">
  <ele>1583.0</ele>
  <time>2026-08-28T17:52:33Z</time>
  <course>0.0</course>
  <speed>0.0</speed>
  <fix>3d</fix>
</trkpt>
<trkpt lat="40.0713749" lon="-105.229789">
  <ele>1583.0</ele>
  <time>2026-08-28T17:52:33Z</time>
  <course>247.98</course>
  <speed>0.022360679774997897</speed>
  <fix>3d</fix>
</trkpt>
<trkpt lat="40.0713749" lon="-105.229789">
  <ele>1583.0</ele>
  <time>2026-08-28T17:52:33Z</time>
  <course>0.0</course>
  <speed>0.0</speed>
  <fix>3d</fix>
</trkpt>
<trkpt lat="40.0713749" lon="-105.229789">
  <ele>1583.0</ele>
  <time>2026-08-28T17:52:33Z</time>
  <course>247.97</course>
  <speed>0.022360679774997897</speed>
  <fix>3d</fix>
</trkpt>
<trkpt lat="40.0713749" lon="-105.229789">
  <ele>1583.0</ele>
  <time>2026-08-28T17:52:33Z</time>
  <course>0.0</course>
  <speed>0.0</speed>
  <fix>3d</fix>
</trkpt>
<trkpt lat="40.0713749" lon="-105.229789">
  <ele>1583.0</ele>
  <time>2026-08-28T17:52:33Z</time>
  <course>247.97</course>
  <speed>0.022360679774997897</speed>
  <fix>3d</fix>
</trkpt>
<trkpt lat="40.0713749" lon="-105.229789">
  <ele>1583.0</ele>
  <time>2026-08-28T17:52:33Z</time>
  <course>0.0</course>
  <speed>0.0</speed>
  <fix>3d</fix>
</trkpt>
<trkpt lat="40.0713749" lon="-105.229789">
  <ele>1583.0</ele>
  <time>2026-08-28T17:52:33Z</time>
  <course>247.96</course>
  <speed>0.022360679774997897</speed>
  <fix>3d</fix>
</trkpt>
<trkpt lat="40.0713749" lon="-105.229789">
  <ele>1583.0</ele>
  <time>2026-08-28T17:52:33Z</time>
  <course>0.0</course>
  <speed>0.0</speed>
  <fix>3d</fix>
</trkpt>
<trkpt lat="40.0713749" lon="-105.229789">
  <ele>1583.0</ele>
  <time>2026-08-28T17:52:33Z</time>
  <course>247.96</course>
  <speed>0.022360679774997897</speed>
  <fix>3d</fix>
</trkpt>
<trkpt lat="40.0713749" lon="-105.229789">
  <ele>1583.0</ele>
  <time>2026-08-28T17:52:33Z</time>
  <course>0.0</course>
  <speed>0.0</speed>
  <fix>3d</fix>
</trkpt>
<trkpt lat="40.0713749" lon="-105.229789">
  <ele>1583.0</ele>
  <time>2026-08-28T17:52:33Z</time>
  <course>247.95</course>
  <speed>0.022360679774997897</speed>
  <fix>3d</fix>
</trkpt>
<trkpt lat="40.0713749" lon="-105.229789">
  <ele>1583.0</ele>
  <time>2026-08-28T17:52:33Z</time>
  <course>0.0</course>
  <speed>0.0</speed>
  <fix>3d</fix>
</trkpt>
<trkpt lat="40.0713749" lon="-105.229789">
  <ele>1583.0</ele>
  <time>2026-08-28T17:52:33Z</time>
  <course>247.95</course>
  <speed>0.022360679774997897</speed>
  <fix>3d</fix>
</trkpt>
<trkpt lat="40.0713749" lon="-105.229789">
  <ele>1583.0</ele>
  <time>2026-08-28T17:52:33Z</time>
  <course>0.0</course>
  <speed>0.0</speed>
  <fix>3d</fix>
</trkpt>
<trkpt lat="40.0713749" lon="-105.229789">
  <ele>1583.0</ele>
  <time>2026-08-28T17:52:33Z</time>
  <course>247.95</course>
  <speed>0.022360679774997897</speed>
  <fix>3d</fix>
</trkpt>
<trkpt lat="40.0713749" lon="-105.229789">
  <ele>1583.0</ele>
  <time>2026-08-28T17:52:33Z</time>
  <course>0.0</course>
  <speed>0.0</speed>
  <fix>3d</fix>
</trkpt>
<trkpt lat="40.0713749" lon="-105.229789">
  <ele>1583.0</ele>
  <time>2026-08-28T17:52:33Z</time>
  <course>247.94</course>
  <speed>0.022360679774997897</speed>
  <fix>3d</fix>
</trkpt>
<trkpt lat="40.0713749" lon="-105.229789">
  <ele>1583.0</ele>
  <time>2026-08-28T17:52:33Z</time>
  <course>0.0</course>
  <speed>0.0</speed>
  <fix>3d</fix>
</trkpt>
<trkpt lat="40.0713749" lon="-105.229789">
  <ele>1583.0</ele>
  <time>2026-08-28T17:52:33Z</time>
  <course>247.94</course>
  <speed>0.022360679774997897</speed>
  <fix>3d</fix>
</trkpt>
<trkpt lat="40.0713749" lon="-105.229789">
  <ele>1583.0</ele>
  <time>2026-08-28T17:52:33Z</time>
  <course>0.0</course>
  <speed>0.0</speed>
  <fix>3d</fix>
</trkpt>
<trkpt lat="40.0713749" lon="-105.229789">
  <ele>1583.0</ele>
  <time>2026-08-28T17:52:33Z</time>
  <course>247.93</course>
  <speed>0.022360679774997897</speed>
  <fix>3d</fix>
</trkpt>
<trkpt lat="40.0713749" lon="-105.229789">
  <ele>1583.0</ele>
  <time>2026-08-28T17:52:33Z</time>
  <course>0.0</course>
  <speed>0.0</speed>
  <fix>3d</fix>
</trkpt>
<trkpt lat="40.0713749" lon="-105.229789">
  <ele>1583.0</ele>
  <time>2026-08-28T17:52:33Z</time>
  <course>247.93</course>
  <speed>0.022360679774997897</speed>
  <fix>3d</fix>
</trkpt>
<trkpt lat="40.0713749" lon="-105.229789">
  <ele>1583.0</ele>
  <time>2026-08-28T17:52:33Z</time>
  <course>0.0</course>
  <speed>0.0</speed>
  <fix>3d</fix>
</trkpt>
<trkpt lat="40.0713749" lon="-105.229789">
  <ele>1583.0</ele>
  <time>2026-08-28T17:52:33Z</time>
  <course>247.92</course>
  <speed>0.022360679774997897</speed>
  <fix>3d</fix>
</trkpt>
<trkpt lat="40.0713749" lon="-105.229789">
  <ele>1583.0</ele>
  <time>2026-08-28T17:52:33Z</time>
  <course>0.0</course>
  <speed>0.0</speed>
  <fix>3d</fix>
</trkpt>
<trkpt lat="40.0713749" lon="-105.229789">
  <ele>1583.0</ele>
  <time>2026-08-28T17:52:33Z</time>
  <course>247.92</course>
  <speed>0.022360679774997897</speed>
  <fix>3d</fix>
</trkpt>
<trkpt lat="40.0713749" lon="-105.229789">
  <ele>1583.0</ele>
  <time>2026-08-28T17:52:33Z</time>
  <course>0.0</course>
  <speed>0.0</speed>
  <fix>3d</fix>
</trkpt>
<trkpt lat="40.0713749" lon="-105.229789">
  <ele>1583.0</ele>
  <time>2026-08-28T17:52:33Z</time>
  <course>247.92</course>
  <speed>0.022360679774997897</speed>
  <fix>3d</fix>
</trkpt>
<trkpt lat="40.0713749" lon="-105.229789">
  <ele>1583.0</ele>
  <time>2026-08-28T17:52:33Z</time>
  <course>0.0</course>
  <speed>0.0</speed>
  <fix>3d</fix>
</trkpt>
<trkpt lat="40.0713749" lon="-105.229789">
  <ele>1583.0</ele>
  <time>2026-08-28T17:52:33Z</time>
  <course>247.91</course>
  <speed>0.022360679774997897</speed>
  <fix>3d</fix>
</trkpt>
<trkpt lat="40.0713749" lon="-105.229789">
  <ele>1583.0</ele>
  <time>2026-08-28T17:52:33Z</time>
  <course>0.0</course>
  <speed>0.0</speed>
  <fix>3d</fix>
</trkpt>
<trkpt lat="40.0713749" lon="-105.229789">
  <ele>1583.0</ele>
  <time>2026-08-28T17:52:33Z</time>
  <course>247.91</course>
  <speed>0.022360679774997897</speed>
  <fix>3d</fix>
</trkpt>
<trkpt lat="40.0713749" lon="-105.229789">
  <ele>1583.0</ele>
  <time>2026-08-28T17:52:33Z</time>
  <course>0.0</course>
  <speed>0.0</speed>
  <fix>3d</fix>
</trkpt>
<trkpt lat="40.0713749" lon="-105.229789">
  <ele>1583.0</ele>
  <time>2026-08-28T17:52:33Z</time>
  <course>247.9</course>
  <speed>0.022360679774997897</speed>
  <fix>3d</fix>
</trkpt>
<trkpt lat="40.0713749" lon="-105.229789">
  <ele>1583.0</ele>
  <time>2026-08-28T17:52:33Z</time>
  <course>0.0</course>
  <speed>0.0</speed>
  <fix>3d</fix>
</trkpt>
<trkpt lat="40.0713749" lon="-105.229789">
  <ele>1583.0</ele>
  <time>2026-08-28T17:52:33Z</time>
  <course>247.9</course>
  <speed>0.022360679774997897</speed>
  <fix>3d</fix>
</trkpt>
<trkpt lat="40.0713749" lon="-105.229789">
  <ele>1583.0</ele>
  <time>2026-08-28T17:52:33Z</time>
  <course>0.0</course>
  <speed>0.0</speed>
  <fix>3d</fix>
</trkpt>
<trkpt lat="40.0713749" lon="-105.229789">
  <ele>1583.0</ele>
  <time>2026-08-28T17:52:33Z</time>
  <course>247.89</course>
  <speed>0.022360679774997897</speed>
  <fix>3d</fix>
</trkpt>
<trkpt lat="40.0713749" lon="-105.229789">
  <ele>1583.0</ele>
  <time>2026-08-28T17:52:33Z</time>
  <course>0.0</course>
  <speed>0.0</speed>
  <fix>3d</fix>
</trkpt>
<trkpt lat="40.0713749" lon="-105.229789">
  <ele>1583.0</ele>
  <time>2026-08-28T17:52:33Z</time>
  <course>247.89</course>
  <speed>0.022360679774997897</speed>
  <fix>3d</fix>
</trkpt>
<trkpt lat="40.0713749" lon="-105.229789">
  <ele>1583.0</ele>
  <time>2026-08-28T17:52:33Z</time>
  <course>0.0</course>
  <speed>0.0</speed>
  <fix>3d</fix>
</trkpt>
<trkpt lat="40.0713749" lon="-105.229789">
  <ele>1583.0</ele>
  <time>2026-08-28T17:52:33Z</time>
  <course>247.89</course>
  <speed>0.022360679774997897</speed>
  <fix>3d</fix>
</trkpt>
<trkpt lat="40.0713749" lon="-105.229789">
  <ele>1583.0</ele>
  <time>2026-08-28T17:52:33Z</time>
  <course>0.0</course>
  <speed>0.0</speed>
  <fix>3d</fix>
</trkpt>
<trkpt lat="40.0713749" lon="-105.229789">
  <ele>1583.0</ele>
  <time>2026-08-28T17:52:33Z</time>
  <course>247.88</course>
  <speed>0.0316227766016838</speed>
  <fix>3d</fix>
</trkpt>
<trkpt lat="40.0713749" lon="-105.229789">
  <ele>1583.0</ele>
  <time>2026-08-28T17:52:33Z</time>
  <course>0.0</course>
  <speed>0.0</speed>
  <fix>3d</fix>
</trkpt>
<trkpt lat="40.0713749" lon="-105.229789">
  <ele>1583.0</ele>
  <time>2026-08-28T17:52:33Z</time>
  <course>247.88</course>
  <speed>0.0316227766016838</speed>
  <fix>3d</fix>
</trkpt>
<trkpt lat="40.0713749" lon="-105.229789">
  <ele>1583.0</ele>
  <time>2026-08-28T17:52:33Z</time>
  <course>0.0</course>
  <speed>0.0</speed>
  <fix>3d</fix>
</trkpt>
<trkpt lat="40.0713749" lon="-105.229789">
  <ele>1583.0</ele>
  <time>2026-08-28T17:52:33Z</time>
  <course>247.87</course>
  <speed>0.0316227766016838</speed>
  <fix>3d</fix>
</trkpt>
<trkpt lat="40.0713749" lon="-105.229789">
  <ele>1583.0</ele>
  <time>2026-08-28T17:52:33Z</time>
  <course>0.0</course>
  <speed>0.0</speed>
  <fix>3d</fix>
</trkpt>
<trkpt lat="40.0713749" lon="-105.229789">
  <ele>1583.0</ele>
  <time>2026-08-28T17:52:33Z</time>
  <course>247.87</course>
  <speed>0.0316227766016838</speed>
  <fix>3d</fix>
</trkpt>
<trkpt lat="40.0713749" lon="-105.229789">
  <ele>1583.0</ele>
  <time>2026-08-28T17:52:33Z</time>
  <course>0.0</course>
  <speed>0.0</speed>
  <fix>3d</fix>
</trkpt>
<trkpt lat="40.0713749" lon="-105.229789">
  <ele>1583.0</ele>
  <time>2026-08-28T17:52:33Z</time>
  <course>247.87</course>
  <speed>0.0316227766016838</speed>
  <fix>3d</fix>
</trkpt>
<trkpt lat="40.0713749" lon="-105.229789">
  <ele>1583.0</ele>
  <time>2026-08-28T17:52:33Z</time>
  <course>0.0</course>
  <speed>0.0</speed>
  <fix>3d</fix>
</trkpt>
<trkpt lat="40.0713749" lon="-105.229789">
  <ele>1583.0</ele>
  <time>2026-08-28T17:52:33Z</time>
  <course>247.86</course>
  <speed>0.0316227766016838</speed>
  <fix>3d</fix>
</trkpt>
<trkpt lat="40.0713749" lon="-105.229789">
  <ele>1583.0</ele>
  <time>2026-08-28T17:52:33Z</time>
  <course>0.0</course>
  <speed>0.0</speed>
  <fix>3d</fix>
</trkpt>
<trkpt lat="40.0713749" lon="-105.229789">
  <ele>1583.0</ele>
  <time>2026-08-28T17:52:33Z</time>
  <course>247.86</course>
  <speed>0.0316227766016838</speed>
  <fix>3d</fix>
</trkpt>
<trkpt lat="40.0713749" lon="-105.229789">
  <ele>1583.0</ele>
  <time>2026-08-28T17:52:33Z</time>
  <course>0.0</course>
  <speed>0.0</speed>
  <fix>3d</fix>
</trkpt>
<trkpt lat="40.0713749" lon="-105.229789">
  <ele>1583.0</ele>
  <time>2026-08-28T17:52:33Z</time>
  <course>247.85</course>
  <speed>0.0316227766016838</speed>
  <fix>3d</fix>
</trkpt>
<trkpt lat="40.0713749" lon="-105.229789">
  <ele>1583.0</ele>
  <time>2026-08-28T17:52:33Z</time>
  <course>0.0</course>
  <speed>0.0</speed>
  <fix>3d</fix>
</trkpt>
<trkpt lat="40.0713749" lon="-105.229789">
  <ele>1583.0</ele>
  <time>2026-08-28T17:52:33Z</time>
  <course>247.85</course>
  <speed>0.0316227766016838</speed>
  <fix>3d</fix>
</trkpt>
<trkpt lat="40.0713749" lon="-105.229789">
  <ele>1583.0</ele>
  <time>2026-08-28T17:52:33Z</time>
  <course>0.0</course>
  <speed>0.0</speed>
  <fix>3d</fix>
</trkpt>
<trkpt lat="40.0713749" lon="-105.229789">
  <ele>1583.0</ele>
  <time>2026-08-28T17:52:33Z</time>
  <course>247.85</course>
  <speed>0.0316227766016838</speed>
  <fix>3d</fix>
</trkpt>
<trkpt lat="40.0713749" lon="-105.229789">
  <ele>1583.0</ele>
  <time>2026-08-28T17:52:33Z</time>
  <course>0.0</course>
  <speed>0.0</speed>
  <fix>3d</fix>
</trkpt>
<trkpt lat="40.0713749" lon="-105.229789">
  <ele>1583.0</ele>
  <time>2026-08-28T17:52:33Z</time>
  <course>247.84</course>
  <speed>0.0316227766016838</speed>
  <fix>3d</fix>
</trkpt>
<trkpt lat="40.0713749" lon="-105.229789">
  <ele>1583.0</ele>
  <time>2026-08-28T17:52:33Z</time>
  <course>0.0</course>
  <speed>0.0</speed>
  <fix>3d</fix>
</trkpt>
<trkpt lat="40.0713749" lon="-105.229789">
  <ele>1583.0</ele>
  <time>2026-08-28T17:52:33Z</time>
  <course>247.84</course>
  <speed>0.0316227766016838</speed>
  <fix>3d</fix>
</trkpt>
<trkpt lat="40.0713749" lon="-105.229789">
  <ele>1583.0</ele>
  <time>2026-08-28T17:52:33Z</time>
  <course>0.0</course>
  <speed>0.0</speed>
  <fix>3d</fix>
</trkpt>
<trkpt lat="40.0713749" lon="-105.229789">
  <ele>1583.0</ele>
  <time>2026-08-28T17:52:33Z</time>
  <course>247.83</course>
  <speed>0.0316227766016838</speed>
  <fix>3d</fix>
</trkpt>
<trkpt lat="40.0713749" lon="-105.229789">
  <ele>1583.0</ele>
  <time>2026-08-28T17:52:33Z</time>
  <course>0.0</course>
  <speed>0.0</speed>
  <fix>3d</fix>
</trkpt>
<trkpt lat="40.0713749" lon="-105.229789">
  <ele>1583.0</ele>
  <time>2026-08-28T17:52:33Z</time>
  <course>247.83</course>
  <speed>0.0316227766016838</speed>
  <fix>3d</fix>
</trkpt>
<trkpt lat="40.0713749" lon="-105.229789">
  <ele>1583.0</ele>
  <time>2026-08-28T17:52:33Z</time>
  <course>0.0</course>
  <speed>0.0</speed>
  <fix>3d</fix>
</trkpt>
<trkpt lat="40.0713749" lon="-105.229789">
  <ele>1583.0</ele>
  <time>2026-08-28T17:52:33Z</time>
  <course>247.83</course>
  <speed>0.0316227766016838</speed>
  <fix>3d</fix>
</trkpt>
<trkpt lat="40.0713749" lon="-105.229789">
  <ele>1583.0</ele>
  <time>2026-08-28T17:52:33Z</time>
  <course>0.0</course>
  <speed>0.0</speed>
  <fix>3d</fix>
</trkpt>
<trkpt lat="40.0713749" lon="-105.229789">
  <ele>1583.0</ele>
  <time>2026-08-28T17:52:33Z</time>
  <course>247.82</course>
  <speed>0.0316227766016838</speed>
  <fix>3d</fix>
</trkpt>
<trkpt lat="40.0713749" lon="-105.229789">
  <ele>1583.0</ele>
  <time>2026-08-28T17:52:33Z</time>
  <course>0.0</course>
  <speed>0.0</speed>
  <fix>3d</fix>
</trkpt>
<trkpt lat="40.0713749" lon="-105.229789">
  <ele>1583.0</ele>
  <time>2026-08-28T17:52:33Z</time>
  <course>247.82</course>
  <speed>0.0316227766016838</speed>
  <fix>3d</fix>
</trkpt>
<trkpt lat="40.0713749" lon="-105.229789">
  <ele>1583.0</ele>
  <time>2026-08-28T17:52:33Z</time>
  <course>0.0</course>
  <speed>0.0</speed>
  <fix>3d</fix>
</trkpt>
<trkpt lat="40.0713749" lon="-105.229789">
  <ele>1583.0</ele>
  <time>2026-08-28T17:52:33Z</time>
  <course>247.82</course>
  <speed>0.0316227766016838</speed>
  <fix>3d</fix>
</trkpt>
<trkpt lat="40.0713749" lon="-105.229789">
  <ele>1583.0</ele>
  <time>2026-08-28T17:52:33Z</time>
  <course>0.0</course>
  <speed>0.0</speed>
  <fix>3d</fix>
</trkpt>
<trkpt lat="40.0713749" lon="-105.229789">
  <ele>1583.0</ele>
  <time>2026-08-28T17:52:33Z</time>
  <course>247.81</course>
  <speed>0.0316227766016838</speed>
  <fix>3d</fix>
</trkpt>
<trkpt lat="40.0713749" lon="-105.229789">
  <ele>1583.0</ele>
  <time>2026-08-28T17:52:33Z</time>
  <course>0.0</course>
  <speed>0.0</speed>
  <fix>3d</fix>
</trkpt>
<trkpt lat="40.0713749" lon="-105.229789">
  <ele>1583.0</ele>
  <time>2026-08-28T17:52:33Z</time>
  <course>247.81</course>
  <speed>0.0316227766016838</speed>
  <fix>3d</fix>
</trkpt>
<trkpt lat="40.0713749" lon="-105.229789">
  <ele>1583.0</ele>
  <time>2026-08-28T17:52:33Z</time>
  <course>0.0</course>
  <speed>0.0</speed>
  <fix>3d</fix>
</trkpt>
<trkpt lat="40.0713749" lon="-105.229789">
  <ele>1583.0</ele>
  <time>2026-08-28T17:52:33Z</time>
  <course>247.8</course>
  <speed>0.0316227766016838</speed>
  <fix>3d</fix>
</trkpt>
<trkpt lat="40.0713749" lon="-105.229789">
  <ele>1583.0</ele>
  <time>2026-08-28T17:52:33Z</time>
  <course>0.0</course>
  <speed>0.0</speed>
  <fix>3d</fix>
</trkpt>
<trkpt lat="40.0713749" lon="-105.229789">
  <ele>1583.0</ele>
  <time>2026-08-28T17:52:33Z</time>
  <course>247.8</course>
  <speed>0.0316227766016838</speed>
  <fix>3d</fix>
</trkpt>
<trkpt lat="40.0713749" lon="-105.229789">
  <ele>1583.0</ele>
  <time>2026-08-28T17:52:33Z</time>
  <course>0.0</course>
  <speed>0.0</speed>
  <fix>3d</fix>
</trkpt>
<trkpt lat="40.0713749" lon="-105.229789">
  <ele>1583.0</ele>
  <time>2026-08-28T17:52:33Z</time>
  <course>247.8</course>
  <speed>0.0316227766016838</speed>
  <fix>3d</fix>
</trkpt>
<trkpt lat="40.0713749" lon="-105.229789">
  <ele>1583.0</ele>
  <time>2026-08-28T17:52:33Z</time>
  <course>0.0</course>
  <speed>0.0</speed>
  <fix>3d</fix>
</trkpt>
<trkpt lat="40.0713749" lon="-105.229789">
  <ele>1583.0</ele>
  <time>2026-08-28T17:52:33Z</time>
  <course>247.79</course>
  <speed>0.0316227766016838</speed>
  <fix>3d</fix>
</trkpt>
<trkpt lat="40.0713749" lon="-105.229789">
  <ele>1583.0</ele>
  <time>2026-08-28T17:52:33Z</time>
  <course>0.0</course>
  <speed>0.0</speed>
  <fix>3d</fix>
</trkpt>
<trkpt lat="40.0713749" lon="-105.229789">
  <ele>1583.0</ele>
  <time>2026-08-28T17:52:33Z</time>
  <course>247.79</course>
  <speed>0.0316227766016838</speed>
  <fix>3d</fix>
</trkpt>
<trkpt lat="40.0713749" lon="-105.229789">
  <ele>1583.0</ele>
  <time>2026-08-28T17:52:33Z</time>
  <course>0.0</course>
  <speed>0.0</speed>
  <fix>3d</fix>
</trkpt>
<trkpt lat="40.0713749" lon="-105.229789">
  <ele>1583.0</ele>
  <time>2026-08-28T17:52:33Z</time>
  <course>247.79</course>
  <speed>0.0316227766016838</speed>
  <fix>3d</fix>
</trkpt>
<trkpt lat="40.0713749" lon="-105.229789">
  <ele>1583.0</ele>
  <time>2026-08-28T17:52:33Z</time>
  <course>0.0</course>
  <speed>0.0</speed>
  <fix>3d</fix>
</trkpt>
<trkpt lat="40.0713749" lon="-105.229789">
  <ele>1583.0</ele>
  <time>2026-08-28T17:52:33Z</time>
  <course>247.78</course>
  <speed>0.0316227766016838</speed>
  <fix>3d</fix>
</trkpt>
<trkpt lat="40.0713749" lon="-105.229789">
  <ele>1583.0</ele>
  <time>2026-08-28T17:52:33Z</time>
  <course>0.0</course>
  <speed>0.0</speed>
  <fix>3d</fix>
</trkpt>
<trkpt lat="40.0713749" lon="-105.229789">
  <ele>1583.0</ele>
  <time>2026-08-28T17:52:33Z</time>
  <course>247.78</course>
  <speed>0.0316227766016838</speed>
  <fix>3d</fix>
</trkpt>
<trkpt lat="40.0713749" lon="-105.229789">
  <ele>1583.0</ele>
  <time>2026-08-28T17:52:33Z</time>
  <course>0.0</course>
  <speed>0.0</speed>
  <fix>3d</fix>
</trkpt>
<trkpt lat="40.0713749" lon="-105.229789">
  <ele>1583.0</ele>
  <time>2026-08-28T17:52:33Z</time>
  <course>247.78</course>
  <speed>0.0316227766016838</speed>
  <fix>3d</fix>
</trkpt>
<trkpt lat="40.0713749" lon="-105.229789">
  <ele>1583.0</ele>
  <time>2026-08-28T17:52:33Z</time>
  <course>0.0</course>
  <speed>0.0</speed>
  <fix>3d</fix>
</trkpt>
<trkpt lat="40.0713749" lon="-105.229789">
  <ele>1583.0</ele>
  <time>2026-08-28T17:52:33Z</time>
  <course>247.77</course>
  <speed>0.0316227766016838</speed>
  <fix>3d</fix>
</trkpt>
<trkpt lat="40.0713749" lon="-105.229789">
  <ele>1583.0</ele>
  <time>2026-08-28T17:52:33Z</time>
  <course>0.0</course>
  <speed>0.0</speed>
  <fix>3d</fix>
</trkpt>
<trkpt lat="40.0713749" lon="-105.229789">
  <ele>1583.0</ele>
  <time>2026-08-28T17:52:33Z</time>
  <course>247.77</course>
  <speed>0.0316227766016838</speed>
  <fix>3d</fix>
</trkpt>
<trkpt lat="40.0713749" lon="-105.229789">
  <ele>1583.0</ele>
  <time>2026-08-28T17:52:33Z</time>
  <course>0.0</course>
  <speed>0.0</speed>
  <fix>3d</fix>
</trkpt>
<trkpt lat="40.0713749" lon="-105.229789">
  <ele>1583.0</ele>
  <time>2026-08-28T17:52:33Z</time>
  <course>247.76</course>
  <speed>0.0316227766016838</speed>
  <fix>3d</fix>
</trkpt>
<trkpt lat="40.0713749" lon="-105.229789">
  <ele>1583.0</ele>
  <time>2026-08-28T17:52:33Z</time>
  <course>0.0</course>
  <speed>0.0</speed>
  <fix>3d</fix>
</trkpt>
<trkpt lat="40.0713749" lon="-105.229789">
  <ele>1583.0</ele>
  <time>2026-08-28T17:52:33Z</time>
  <course>247.76</course>
  <speed>0.0316227766016838</speed>
  <fix>3d</fix>
</trkpt>
<trkpt lat="40.0713749" lon="-105.229789">
  <ele>1583.0</ele>
  <time>2026-08-28T17:52:33Z</time>
  <course>0.0</course>
  <speed>0.0</speed>
  <fix>3d</fix>
</trkpt>
<trkpt lat="40.0713749" lon="-105.229789">
  <ele>1583.0</ele>
  <time>2026-08-28T17:52:33Z</time>
  <course>247.76</course>
  <speed>0.0316227766016838</speed>
  <fix>3d</fix>
</trkpt>
<trkpt lat="40.0713749" lon="-105.229789">
  <ele>1583.0</ele>
  <time>2026-08-28T17:52:33Z</time>
  <course>0.0</course>
  <speed>0.0</speed>
  <fix>3d</fix>
</trkpt>
<trkpt lat="40.0713749" lon="-105.229789">
  <ele>1583.0</ele>
  <time>2026-08-28T17:52:33Z</time>
  <course>247.75</course>
  <speed>0.0316227766016838</speed>
  <fix>3d</fix>
</trkpt>
<trkpt lat="40.0713749" lon="-105.229789">
  <ele>1583.0</ele>
  <time>2026-08-28T17:52:33Z</time>
  <course>0.0</course>
  <speed>0.0</speed>
  <fix>3d</fix>
</trkpt>
<trkpt lat="40.0713749" lon="-105.229789">
  <ele>1583.0</ele>
  <time>2026-08-28T17:52:33Z</time>
  <course>247.75</course>
  <speed>0.0316227766016838</speed>
  <fix>3d</fix>
</trkpt>
<trkpt lat="40.0713749" lon="-105.229789">
  <ele>1583.0</ele>
  <time>2026-08-28T17:52:33Z</time>
  <course>0.0</course>
  <speed>0.0</speed>
  <fix>3d</fix>
</trkpt>
<trkpt lat="40.0713749" lon="-105.229789">
  <ele>1583.0</ele>
  <time>2026-08-28T17:52:33Z</time>
  <course>247.75</course>
  <speed>0.0316227766016838</speed>
  <fix>3d</fix>
</trkpt>
<trkpt lat="40.0713749" lon="-105.229789">
  <ele>1583.0</ele>
  <time>2026-08-28T17:52:33Z</time>
  <course>0.0</course>
  <speed>0.0</speed>
  <fix>3d</fix>
</trkpt>
<trkpt lat="40.0713749" lon="-105.229789">
  <ele>1583.0</ele>
  <time>2026-08-28T17:52:33Z</time>
  <course>247.74</course>
  <speed>0.0316227766016838</speed>
  <fix>3d</fix>
</trkpt>
<trkpt lat="40.0713749" lon="-105.229789">
  <ele>1583.0</ele>
  <time>2026-08-28T17:52:33Z</time>
  <course>0.0</course>
  <speed>0.0</speed>
  <fix>3d</fix>
</trkpt>
<trkpt lat="40.0713749" lon="-105.229789">
  <ele>1583.0</ele>
  <time>2026-08-28T17:52:33Z</time>
  <course>247.74</course>
  <speed>0.0316227766016838</speed>
  <fix>3d</fix>
</trkpt>
<trkpt lat="40.0713749" lon="-105.229789">
  <ele>1583.0</ele>
  <time>2026-08-28T17:52:33Z</time>
  <course>0.0</course>
  <speed>0.0</speed>
  <fix>3d</fix>
</trkpt>
<trkpt lat="40.0713749" lon="-105.229789">
  <ele>1583.0</ele>
  <time>2026-08-28T17:52:33Z</time>
  <course>247.74</course>
  <speed>0.0316227766016838</speed>
  <fix>3d</fix>
</trkpt>
<trkpt lat="40.0713749" lon="-105.229789">
  <ele>1583.0</ele>
  <time>2026-08-28T17:52:33Z</time>
  <course>0.0</course>
  <speed>0.0</speed>
  <fix>3d</fix>
</trkpt>
<trkpt lat="40.0713749" lon="-105.229789">
  <ele>1583.0</ele>
  <time>2026-08-28T17:52:33Z</time>
  <course>247.73</course>
  <speed>0.0316227766016838</speed>
  <fix>3d</fix>
</trkpt>
<trkpt lat="40.0713749" lon="-105.229789">
  <ele>1583.0</ele>
  <time>2026-08-28T17:52:33Z</time>
  <course>0.0</course>
  <speed>0.0</speed>
  <fix>3d</fix>
</trkpt>
<trkpt lat="40.0713749" lon="-105.229789">
  <ele>1583.0</ele>
  <time>2026-08-28T17:52:33Z</time>
  <course>247.73</course>
  <speed>0.0316227766016838</speed>
  <fix>3d</fix>
</trkpt>
<trkpt lat="40.0713749" lon="-105.229789">
  <ele>1583.0</ele>
  <time>2026-08-28T17:52:33Z</time>
  <course>0.0</course>
  <speed>0.0</speed>
  <fix>3d</fix>
</trkpt>
<trkpt lat="40.0713749" lon="-105.229789">
  <ele>1583.0</ele>
  <time>2026-08-28T17:52:33Z</time>
  <course>247.73</course>
  <speed>0.0316227766016838</speed>
  <fix>3d</fix>
</trkpt>
<trkpt lat="40.0713749" lon="-105.229789">
  <ele>1583.0</ele>
  <time>2026-08-28T17:52:33Z</time>
  <course>0.0</course>
  <speed>0.0</speed>
  <fix>3d</fix>
</trkpt>
<trkpt lat="40.0713749" lon="-105.229789">
  <ele>1583.0</ele>
  <time>2026-08-28T17:52:33Z</time>
  <course>247.72</course>
  <speed>0.0316227766016838</speed>
  <fix>3d</fix>
</trkpt>
<trkpt lat="40.0713749" lon="-105.229789">
  <ele>1583.0</ele>
  <time>2026-08-28T17:52:33Z</time>
  <course>0.0</course>
  <speed>0.0</speed>
  <fix>3d</fix>
</trkpt>
<trkpt lat="40.0713749" lon="-105.229789">
  <ele>1583.0</ele>
  <time>2026-08-28T17:52:33Z</time>
  <course>247.72</course>
  <speed>0.0316227766016838</speed>
  <fix>3d</fix>
</trkpt>
<trkpt lat="40.0713749" lon="-105.229789">
  <ele>1583.0</ele>
  <time>2026-08-28T17:52:33Z</time>
  <course>0.0</course>
  <speed>0.0</speed>
  <fix>3d</fix>
</trkpt>
<trkpt lat="40.0713749" lon="-105.229789">
  <ele>1583.0</ele>
  <time>2026-08-28T17:52:33Z</time>
  <course>247.72</course>
  <speed>0.0316227766016838</speed>
  <fix>3d</fix>
</trkpt>
<trkpt lat="40.0713749" lon="-105.229789">
  <ele>1583.0</ele>
  <time>2026-08-28T17:52:33Z</time>
  <course>0.0</course>
  <speed>0.0</speed>
  <fix>3d</fix>
</trkpt>
<trkpt lat="40.0713749" lon="-105.229789">
  <ele>1583.0</ele>
  <time>2026-08-28T17:52:33Z</time>
  <course>247.71</course>
  <speed>0.0316227766016838</speed>
  <fix>3d</fix>
</trkpt>
<trkpt lat="40.0713749" lon="-105.229789">
  <ele>1583.0</ele>
  <time>2026-08-28T17:52:33Z</time>
  <course>0.0</course>
  <speed>0.0</speed>
  <fix>3d</fix>
</trkpt>
<trkpt lat="40.0713749" lon="-105.229789">
  <ele>1583.0</ele>
  <time>2026-08-28T17:52:33Z</time>
  <course>247.71</course>
  <speed>0.0316227766016838</speed>
  <fix>3d</fix>
</trkpt>
<trkpt lat="40.0713749" lon="-105.229789">
  <ele>1583.0</ele>
  <time>2026-08-28T17:52:33Z</time>
  <course>0.0</course>
  <speed>0.0</speed>
  <fix>3d</fix>
</trkpt>
<trkpt lat="40.0713749" lon="-105.229789">
  <ele>1583.0</ele>
  <time>2026-08-28T17:52:33Z</time>
  <course>247.71</course>
  <speed>0.0316227766016838</speed>
  <fix>3d</fix>
</trkpt>
<trkpt lat="40.0713749" lon="-105.229789">
  <ele>1583.0</ele>
  <time>2026-08-28T17:52:33Z</time>
  <course>0.0</course>
  <speed>0.0</speed>
  <fix>3d</fix>
</trkpt>
<trkpt lat="40.0713749" lon="-105.229789">
  <ele>1583.0</ele>
  <time>2026-08-28T17:52:33Z</time>
  <course>247.7</course>
  <speed>0.0316227766016838</speed>
  <fix>3d</fix>
</trkpt>
<trkpt lat="40.0713749" lon="-105.229789">
  <ele>1583.0</ele>
  <time>2026-08-28T17:52:33Z</time>
  <course>0.0</course>
  <speed>0.0</speed>
  <fix>3d</fix>
</trkpt>
<trkpt lat="40.0713749" lon="-105.229789">
  <ele>1583.0</ele>
  <time>2026-08-28T17:52:33Z</time>
  <course>247.7</course>
  <speed>0.0316227766016838</speed>
  <fix>3d</fix>
</trkpt>
<trkpt lat="40.0713749" lon="-105.229789">
  <ele>1583.0</ele>
  <time>2026-08-28T17:52:33Z</time>
  <course>0.0</course>
  <speed>0.0</speed>
  <fix>3d</fix>
</trkpt>
<trkpt lat="40.0713749" lon="-105.229789">
  <ele>1583.0</ele>
  <time>2026-08-28T17:52:33Z</time>
  <course>247.7</course>
  <speed>0.0316227766016838</speed>
  <fix>3d</fix>
</trkpt>
<trkpt lat="40.0713749" lon="-105.229789">
  <ele>1583.0</ele>
  <time>2026-08-28T17:52:33Z</time>
  <course>0.0</course>
  <speed>0.0</speed>
  <fix>3d</fix>
</trkpt>
<trkpt lat="40.0713749" lon="-105.229789">
  <ele>1583.0</ele>
  <time>2026-08-28T17:52:33Z</time>
  <course>247.69</course>
  <speed>0.0316227766016838</speed>
  <fix>3d</fix>
</trkpt>
<trkpt lat="40.0713749" lon="-105.229789">
  <ele>1583.0</ele>
  <time>2026-08-28T17:52:33Z</time>
  <course>0.0</course>
  <speed>0.0</speed>
  <fix>3d</fix>
</trkpt>
<trkpt lat="40.0713749" lon="-105.229789">
  <ele>1583.0</ele>
  <time>2026-08-28T17:52:33Z</time>
  <course>247.69</course>
  <speed>0.0316227766016838</speed>
  <fix>3d</fix>
</trkpt>
<trkpt lat="40.0713749" lon="-105.229789">
  <ele>1583.0</ele>
  <time>2026-08-28T17:52:33Z</time>
  <course>0.0</course>
  <speed>0.0</speed>
  <fix>3d</fix>
</trkpt>
<trkpt lat="40.0713749" lon="-105.229789">
  <ele>1583.0</ele>
  <time>2026-08-28T17:52:33Z</time>
  <course>247.69</course>
  <speed>0.0316227766016838</speed>
  <fix>3d</fix>
</trkpt>
<trkpt lat="40.0713749" lon="-105.229789">
  <ele>1583.0</ele>
  <time>2026-08-28T17:52:33Z</time>
  <course>0.0</course>
  <speed>0.0</speed>
  <fix>3d</fix>
</trkpt>
<trkpt lat="40.0713749" lon="-105.229789">
  <ele>1583.0</ele>
  <time>2026-08-28T17:52:33Z</time>
  <course>247.68</course>
  <speed>0.0316227766016838</speed>
  <fix>3d</fix>
</trkpt>
<trkpt lat="40.0713749" lon="-105.229789">
  <ele>1583.0</ele>
  <time>2026-08-28T17:52:33Z</time>
  <course>0.0</course>
  <speed>0.0</speed>
  <fix>3d</fix>
</trkpt>
<trkpt lat="40.0713749" lon="-105.229789">
  <ele>1583.0</ele>
  <time>2026-08-28T17:52:33Z</time>
  <course>247.68</course>
  <speed>0.0316227766016838</speed>
  <fix>3d</fix>
</trkpt>
<trkpt lat="40.0713749" lon="-105.229789">
  <ele>1583.0</ele>
  <time>2026-08-28T17:52:33Z</time>
  <course>0.0</course>
  <speed>0.0</speed>
  <fix>3d</fix>
</trkpt>
<trkpt lat="40.0713749" lon="-105.229789">
  <ele>1583.0</ele>
  <time>2026-08-28T17:52:33Z</time>
  <course>247.68</course>
  <speed>0.0316227766016838</speed>
  <fix>3d</fix>
</trkpt>
<trkpt lat="40.0713749" lon="-105.229789">
  <ele>1583.0</ele>
  <time>2026-08-28T17:52:33Z</time>
  <course>0.0</course>
  <speed>0.0</speed>
  <fix>3d</fix>
</trkpt>
<trkpt lat="40.0713749" lon="-105.229789">
  <ele>1583.0</ele>
  <time>2026-08-28T17:52:33Z</time>
  <course>247.67</course>
  <speed>0.0316227766016838</speed>
  <fix>3d</fix>
</trkpt>
<trkpt lat="40.0713749" lon="-105.229789">
  <ele>1583.0</ele>
  <time>2026-08-28T17:52:33Z</time>
  <course>0.0</course>
  <speed>0.0</speed>
  <fix>3d</fix>
</trkpt>
<trkpt lat="40.0713749" lon="-105.229789">
  <ele>1583.0</ele>
  <time>2026-08-28T17:52:33Z</time>
  <course>247.67</course>
  <speed>0.0316227766016838</speed>
  <fix>3d</fix>
</trkpt>
<trkpt lat="40.0713749" lon="-105.229789">
  <ele>1583.0</ele>
  <time>2026-08-28T17:52:33Z</time>
  <course>0.0</course>
  <speed>0.0</speed>
  <fix>3d</fix>
</trkpt>
<trkpt lat="40.0713749" lon="-105.229789">
  <ele>1583.0</ele>
  <time>2026-08-28T17:52:33Z</time>
  <course>247.67</course>
  <speed>0.0316227766016838</speed>
  <fix>3d</fix>
</trkpt>
<trkpt lat="40.0713749" lon="-105.229789">
  <ele>1583.0</ele>
  <time>2026-08-28T17:52:33Z</time>
  <course>0.0</course>
  <speed>0.0</speed>
  <fix>3d</fix>
</trkpt>
<trkpt lat="40.0713749" lon="-105.229789">
  <ele>1583.0</ele>
  <time>2026-08-28T17:52:34Z</time>
  <course>247.66</course>
  <speed>0.0316227766016838</speed>
  <fix>3d</fix>
</trkpt>
<trkpt lat="40.0713749" lon="-105.229789">
  <ele>1583.0</ele>
  <time>2026-08-28T17:52:34Z</time>
  <course>0.0</course>
  <speed>0.0</speed>
  <fix>3d</fix>
</trkpt>
<trkpt lat="40.0713749" lon="-105.229789">
  <ele>1583.0</ele>
  <time>2026-08-28T17:52:34Z</time>
  <course>247.66</course>
  <speed>0.0316227766016838</speed>
  <fix>3d</fix>
</trkpt>
<trkpt lat="40.0713749" lon="-105.229789">
  <ele>1583.0</ele>
  <time>2026-08-28T17:52:34Z</time>
  <course>0.0</course>
  <speed>0.0</speed>
  <fix>3d</fix>
</trkpt>
<trkpt lat="40.0713749" lon="-105.229789">
  <ele>1583.0</ele>
  <time>2026-08-28T17:52:34Z</time>
  <course>247.66</course>
  <speed>0.0316227766016838</speed>
  <fix>3d</fix>
</trkpt>
<trkpt lat="40.0713749" lon="-105.229789">
  <ele>1583.0</ele>
  <time>2026-08-28T17:52:34Z</time>
  <course>0.0</course>
  <speed>0.0</speed>
  <fix>3d</fix>
</trkpt>
<trkpt lat="40.0713749" lon="-105.229789">
  <ele>1583.0</ele>
  <time>2026-08-28T17:52:34Z</time>
  <course>247.65</course>
  <speed>0.0316227766016838</speed>
  <fix>3d</fix>
</trkpt>
<trkpt lat="40.0713749" lon="-105.229789">
  <ele>1583.0</ele>
  <time>2026-08-28T17:52:34Z</time>
  <course>0.0</course>
  <speed>0.0</speed>
  <fix>3d</fix>
</trkpt>
<trkpt lat="40.0713749" lon="-105.229789">
  <ele>1583.0</ele>
  <time>2026-08-28T17:52:34Z</time>
  <course>247.65</course>
  <speed>0.0316227766016838</speed>
  <fix>3d</fix>
</trkpt>
<trkpt lat="40.0713749" lon="-105.229789">
  <ele>1583.0</ele>
  <time>2026-08-28T17:52:34Z</time>
  <course>0.0</course>
  <speed>0.0</speed>
  <fix>3d</fix>
</trkpt>
<trkpt lat="40.0713749" lon="-105.229789">
  <ele>1583.0</ele>
  <time>2026-08-28T17:52:34Z</time>
  <course>247.65</course>
  <speed>0.0316227766016838</speed>
  <fix>3d</fix>
</trkpt>
<trkpt lat="40.0713749" lon="-105.229789">
  <ele>1583.0</ele>
  <time>2026-08-28T17:52:34Z</time>
  <course>0.0</course>
  <speed>0.0</speed>
  <fix>3d</fix>
</trkpt>
<trkpt lat="40.0713749" lon="-105.229789">
  <ele>1583.0</ele>
  <time>2026-08-28T17:52:34Z</time>
  <course>247.64</course>
  <speed>0.0316227766016838</speed>
  <fix>3d</fix>
</trkpt>
<trkpt lat="40.0713749" lon="-105.229789">
  <ele>1583.0</ele>
  <time>2026-08-28T17:52:34Z</time>
  <course>0.0</course>
  <speed>0.0</speed>
  <fix>3d</fix>
</trkpt>
<trkpt lat="40.0713749" lon="-105.229789">
  <ele>1583.0</ele>
  <time>2026-08-28T17:52:34Z</time>
  <course>247.64</course>
  <speed>0.0316227766016838</speed>
  <fix>3d</fix>
</trkpt>
<trkpt lat="40.0713749" lon="-105.229789">
  <ele>1583.0</ele>
  <time>2026-08-28T17:52:34Z</time>
  <course>0.0</course>
  <speed>0.0</speed>
  <fix>3d</fix>
</trkpt>
<trkpt lat="40.0713749" lon="-105.229789">
  <ele>1583.0</ele>
  <time>2026-08-28T17:52:34Z</time>
  <course>247.64</course>
  <speed>0.0316227766016838</speed>
  <fix>3d</fix>
</trkpt>
<trkpt lat="40.0713749" lon="-105.229789">
  <ele>1583.0</ele>
  <time>2026-08-28T17:52:34Z</time>
  <course>0.0</course>
  <speed>0.0</speed>
  <fix>3d</fix>
</trkpt>
<trkpt lat="40.0713749" lon="-105.229789">
  <ele>1583.0</ele>
  <time>2026-08-28T17:52:34Z</time>
  <course>247.64</course>
  <speed>0.0316227766016838</speed>
  <fix>3d</fix>
</trkpt>
<trkpt lat="40.0713749" lon="-105.229789">
  <ele>1583.0</ele>
  <time>2026-08-28T17:52:34Z</time>
  <course>0.0</course>
  <speed>0.0</speed>
  <fix>3d</fix>
</trkpt>
<trkpt lat="40.0713749" lon="-105.229789">
  <ele>1583.0</ele>
  <time>2026-08-28T17:52:34Z</time>
  <course>247.63</course>
  <speed>0.0316227766016838</speed>
  <fix>3d</fix>
</trkpt>
<trkpt lat="40.0713749" lon="-105.229789">
  <ele>1583.0</ele>
  <time>2026-08-28T17:52:34Z</time>
  <course>0.0</course>
  <speed>0.0</speed>
  <fix>3d</fix>
</trkpt>
<trkpt lat="40.0713749" lon="-105.229789">
  <ele>1583.0</ele>
  <time>2026-08-28T17:52:34Z</time>
  <course>247.63</course>
  <speed>0.0316227766016838</speed>
  <fix>3d</fix>
</trkpt>
<trkpt lat="40.0713749" lon="-105.229789">
  <ele>1583.0</ele>
  <time>2026-08-28T17:52:34Z</time>
  <course>0.0</course>
  <speed>0.0</speed>
  <fix>3d</fix>
</trkpt>
<trkpt lat="40.0713749" lon="-105.229789">
  <ele>1583.0</ele>
  <time>2026-08-28T17:52:34Z</time>
  <course>247.63</course>
  <speed>0.0316227766016838</speed>
  <fix>3d</fix>
</trkpt>
<trkpt lat="40.0713749" lon="-105.229789">
  <ele>1583.0</ele>
  <time>2026-08-28T17:52:34Z</time>
  <course>0.0</course>
  <speed>0.0</speed>
  <fix>3d</fix>
</trkpt>
<trkpt lat="40.0713749" lon="-105.229789">
  <ele>1583.0</ele>
  <time>2026-08-28T17:52:34Z</time>
  <course>247.62</course>
  <speed>0.0316227766016838</speed>
  <fix>3d</fix>
</trkpt>
<trkpt lat="40.0713749" lon="-105.229789">
  <ele>1583.0</ele>
  <time>2026-08-28T17:52:34Z</time>
  <course>0.0</course>
  <speed>0.0</speed>
  <fix>3d</fix>
</trkpt>
<trkpt lat="40.0713749" lon="-105.229789">
  <ele>1583.0</ele>
  <time>2026-08-28T17:52:34Z</time>
  <course>247.62</course>
  <speed>0.0316227766016838</speed>
  <fix>3d</fix>
</trkpt>
<trkpt lat="40.0713749" lon="-105.229789">
  <ele>1583.0</ele>
  <time>2026-08-28T17:52:34Z</time>
  <course>0.0</course>
  <speed>0.0</speed>
  <fix>3d</fix>
</trkpt>
<trkpt lat="40.0713749" lon="-105.229789">
  <ele>1583.0</ele>
  <time>2026-08-28T17:52:34Z</time>
  <course>247.62</course>
  <speed>0.0316227766016838</speed>
  <fix>3d</fix>
</trkpt>
<trkpt lat="40.0713749" lon="-105.229789">
  <ele>1583.0</ele>
  <time>2026-08-28T17:52:34Z</time>
  <course>0.0</course>
  <speed>0.0</speed>
  <fix>3d</fix>
</trkpt>
<trkpt lat="40.0713749" lon="-105.229789">
  <ele>1583.0</ele>
  <time>2026-08-28T17:52:34Z</time>
  <course>247.62</course>
  <speed>0.0316227766016838</speed>
  <fix>3d</fix>
</trkpt>
<trkpt lat="40.0713749" lon="-105.229789">
  <ele>1583.0</ele>
  <time>2026-08-28T17:52:34Z</time>
  <course>0.0</course>
  <speed>0.0</speed>
  <fix>3d</fix>
</trkpt>
<trkpt lat="40.0713749" lon="-105.229789">
  <ele>1583.0</ele>
  <time>2026-08-28T17:52:34Z</time>
  <course>247.61</course>
  <speed>0.0316227766016838</speed>
  <fix>3d</fix>
</trkpt>
<trkpt lat="40.0713749" lon="-105.229789">
  <ele>1583.0</ele>
  <time>2026-08-28T17:52:34Z</time>
  <course>0.0</course>
  <speed>0.0</speed>
  <fix>3d</fix>
</trkpt>
<trkpt lat="40.0713749" lon="-105.229789">
  <ele>1583.0</ele>
  <time>2026-08-28T17:52:34Z</time>
  <course>247.61</course>
  <speed>0.0316227766016838</speed>
  <fix>3d</fix>
</trkpt>
<trkpt lat="40.0713749" lon="-105.229789">
  <ele>1583.0</ele>
  <time>2026-08-28T17:52:34Z</time>
  <course>0.0</course>
  <speed>0.0</speed>
  <fix>3d</fix>
</trkpt>
<trkpt lat="40.0713749" lon="-105.229789">
  <ele>1583.0</ele>
  <time>2026-08-28T17:52:34Z</time>
  <course>247.61</course>
  <speed>0.0316227766016838</speed>
  <fix>3d</fix>
</trkpt>
<trkpt lat="40.0713749" lon="-105.229789">
  <ele>1583.0</ele>
  <time>2026-08-28T17:52:34Z</time>
  <course>0.0</course>
  <speed>0.0</speed>
  <fix>3d</fix>
</trkpt>
<trkpt lat="40.0713749" lon="-105.229789">
  <ele>1583.0</ele>
  <time>2026-08-28T17:52:34Z</time>
  <course>247.6</course>
  <speed>0.0316227766016838</speed>
  <fix>3d</fix>
</trkpt>
<trkpt lat="40.0713749" lon="-105.229789">
  <ele>1583.0</ele>
  <time>2026-08-28T17:52:34Z</time>
  <course>0.0</course>
  <speed>0.0</speed>
  <fix>3d</fix>
</trkpt>
<trkpt lat="40.0713749" lon="-105.229789">
  <ele>1583.0</ele>
  <time>2026-08-28T17:52:34Z</time>
  <course>247.6</course>
  <speed>0.0316227766016838</speed>
  <fix>3d</fix>
</trkpt>
<trkpt lat="40.0713749" lon="-105.229789">
  <ele>1583.0</ele>
  <time>2026-08-28T17:52:34Z</time>
  <course>0.0</course>
  <speed>0.0</speed>
  <fix>3d</fix>
</trkpt>
<trkpt lat="40.0713749" lon="-105.229789">
  <ele>1583.0</ele>
  <time>2026-08-28T17:52:34Z</time>
  <course>247.6</course>
  <speed>0.0316227766016838</speed>
  <fix>3d</fix>
</trkpt>
<trkpt lat="40.0713749" lon="-105.229789">
  <ele>1583.0</ele>
  <time>2026-08-28T17:52:34Z</time>
  <course>0.0</course>
  <speed>0.0</speed>
  <fix>3d</fix>
</trkpt>
<trkpt lat="40.0713749" lon="-105.229789">
  <ele>1583.0</ele>
  <time>2026-08-28T17:52:34Z</time>
  <course>247.6</course>
  <speed>0.0316227766016838</speed>
  <fix>3d</fix>
</trkpt>
<trkpt lat="40.0713749" lon="-105.229789">
  <ele>1583.0</ele>
  <time>2026-08-28T17:52:34Z</time>
  <course>0.0</course>
  <speed>0.0</speed>
  <fix>3d</fix>
</trkpt>
<trkpt lat="40.0713749" lon="-105.229789">
  <ele>1583.0</ele>
  <time>2026-08-28T17:52:34Z</time>
  <course>247.59</course>
  <speed>0.0316227766016838</speed>
  <fix>3d</fix>
</trkpt>
<trkpt lat="40.0713749" lon="-105.229789">
  <ele>1583.0</ele>
  <time>2026-08-28T17:52:34Z</time>
  <course>0.0</course>
  <speed>0.0</speed>
  <fix>3d</fix>
</trkpt>
<trkpt lat="40.0713749" lon="-105.229789">
  <ele>1582.92</ele>
  <time>2026-08-28T17:52:34Z</time>
  <course>247.59</course>
  <speed>0.0</speed>
  <fix>3d</fix>
</trkpt>
<trkpt lat="40.0713749" lon="-105.229789">
  <ele>1583.0</ele>
  <time>2026-08-28T17:52:34Z</time>
  <course>0.0</course>
  <speed>0.0</speed>
  <fix>3d</fix>
</trkpt>
<trkpt lat="40.0713749" lon="-105.229789">
  <ele>1582.92</ele>
  <time>2026-08-28T17:52:34Z</time>
  <course>247.59</course>
  <speed>0.0</speed>
  <fix>3d</fix>
</trkpt>
<trkpt lat="40.0713749" lon="-105.229789">
  <ele>1583.0</ele>
  <time>2026-08-28T17:52:34Z</time>
  <course>0.0</course>
  <speed>0.0</speed>
  <fix>3d</fix>
</trkpt>
<trkpt lat="40.0713749" lon="-105.229789">
  <ele>1582.91</ele>
  <time>2026-08-28T17:52:34Z</time>
  <course>247.58</course>
  <speed>0.0</speed>
  <fix>3d</fix>
</trkpt>
<trkpt lat="40.0713749" lon="-105.229789">
  <ele>1583.0</ele>
  <time>2026-08-28T17:52:34Z</time>
  <course>0.0</course>
  <speed>0.0</speed>
  <fix>3d</fix>
</trkpt>
<trkpt lat="40.0713749" lon="-105.229789">
  <ele>1582.91</ele>
  <time>2026-08-28T17:52:34Z</time>
  <course>247.58</course>
  <speed>0.0</speed>
  <fix>3d</fix>
</trkpt>
<trkpt lat="40.0713749" lon="-105.229789">
  <ele>1583.0</ele>
  <time>2026-08-28T17:52:34Z</time>
  <course>0.0</course>
  <speed>0.0</speed>
  <fix>3d</fix>
</trkpt>
<trkpt lat="40.0713749" lon="-105.229789">
  <ele>1582.9</ele>
  <time>2026-08-28T17:52:34Z</time>
  <course>247.58</course>
  <speed>0.0</speed>
  <fix>3d</fix>
</trkpt>
<trkpt lat="40.0713749" lon="-105.229789">
  <ele>1583.0</ele>
  <time>2026-08-28T17:52:34Z</time>
  <course>0.0</course>
  <speed>0.0</speed>
  <fix>3d</fix>
</trkpt>
<trkpt lat="40.0713749" lon="-105.229789">
  <ele>1582.9</ele>
  <time>2026-08-28T17:52:34Z</time>
  <course>247.58</course>
  <speed>0.0</speed>
  <fix>3d</fix>
</trkpt>
<trkpt lat="40.0713749" lon="-105.229789">
  <ele>1583.0</ele>
  <time>2026-08-28T17:52:34Z</time>
  <course>0.0</course>
  <speed>0.0</speed>
  <fix>3d</fix>
</trkpt>
<trkpt lat="40.0713749" lon="-105.229789">
  <ele>1582.9</ele>
  <time>2026-08-28T17:52:34Z</time>
  <course>247.57</course>
  <speed>0.0</speed>
  <fix>3d</fix>
</trkpt>
<trkpt lat="40.0713749" lon="-105.229789">
  <ele>1583.0</ele>
  <time>2026-08-28T17:52:34Z</time>
  <course>0.0</course>
  <speed>0.0</speed>
  <fix>3d</fix>
</trkpt>
<trkpt lat="40.0713749" lon="-105.229789">
  <ele>1582.9</ele>
  <time>2026-08-28T17:52:34Z</time>
  <course>247.57</course>
  <speed>0.0</speed>
  <fix>3d</fix>
</trkpt>
<trkpt lat="40.0713749" lon="-105.229789">
  <ele>1583.0</ele>
  <time>2026-08-28T17:52:34Z</time>
  <course>0.0</course>
  <speed>0.0</speed>
  <fix>3d</fix>
</trkpt>
<trkpt lat="40.0713749" lon="-105.229789">
  <ele>1582.9</ele>
  <time>2026-08-28T17:52:34Z</time>
  <course>247.57</course>
  <speed>0.0</speed>
  <fix>3d</fix>
</trkpt>
<trkpt lat="40.0713749" lon="-105.229789">
  <ele>1583.0</ele>
  <time>2026-08-28T17:52:34Z</time>
  <course>0.0</course>
  <speed>0.0</speed>
  <fix>3d</fix>
</trkpt>
<trkpt lat="40.0713749" lon="-105.229789">
  <ele>1582.9</ele>
  <time>2026-08-28T17:52:34Z</time>
  <course>247.57</course>
  <speed>0.01</speed>
  <fix>3d</fix>
</trkpt>
<trkpt lat="40.0713749" lon="-105.229789">
  <ele>1583.0</ele>
  <time>2026-08-28T17:52:34Z</time>
  <course>0.0</course>
  <speed>0.0</speed>
  <fix>3d</fix>
</trkpt>
<trkpt lat="40.0713749" lon="-105.229789">
  <ele>1582.9</ele>
  <time>2026-08-28T17:52:34Z</time>
  <course>247.56</course>
  <speed>0.01</speed>
  <fix>3d</fix>
</trkpt>
<trkpt lat="40.0713749" lon="-105.229789">
  <ele>1583.0</ele>
  <time>2026-08-28T17:52:34Z</time>
  <course>0.0</course>
  <speed>0.0</speed>
  <fix>3d</fix>
</trkpt>
<trkpt lat="40.0713749" lon="-105.229789">
  <ele>1582.91</ele>
  <time>2026-08-28T17:52:34Z</time>
  <course>247.56</course>
  <speed>0.01</speed>
  <fix>3d</fix>
</trkpt>
<trkpt lat="40.0713749" lon="-105.229789">
  <ele>1583.0</ele>
  <time>2026-08-28T17:52:34Z</time>
  <course>0.0</course>
  <speed>0.0</speed>
  <fix>3d</fix>
</trkpt>
<trkpt lat="40.0713749" lon="-105.229789">
  <ele>1582.91</ele>
  <time>2026-08-28T17:52:34Z</time>
  <course>247.56</course>
  <speed>0.01</speed>
  <fix>3d</fix>
</trkpt>
<trkpt lat="40.0713749" lon="-105.229789">
  <ele>1583.0</ele>
  <time>2026-08-28T17:52:34Z</time>
  <course>0.0</course>
  <speed>0.0</speed>
  <fix>3d</fix>
</trkpt>
<trkpt lat="40.0713749" lon="-105.229789">
  <ele>1582.92</ele>
  <time>2026-08-28T17:52:34Z</time>
  <course>247.56</course>
  <speed>0.01</speed>
  <fix>3d</fix>
</trkpt>
<trkpt lat="40.0713749" lon="-105.229789">
  <ele>1583.0</ele>
  <time>2026-08-28T17:52:34Z</time>
  <course>0.0</course>
  <speed>0.0</speed>
  <fix>3d</fix>
</trkpt>
<trkpt lat="40.0713749" lon="-105.229789">
  <ele>1582.92</ele>
  <time>2026-08-28T17:52:34Z</time>
  <course>247.55</course>
  <speed>0.01</speed>
  <fix>3d</fix>
</trkpt>
<trkpt lat="40.0713749" lon="-105.229789">
  <ele>1583.0</ele>
  <time>2026-08-28T17:52:34Z</time>
  <course>0.0</course>
  <speed>0.0</speed>
  <fix>3d</fix>
</trkpt>
<trkpt lat="40.0713749" lon="-105.229789">
  <ele>1582.92</ele>
  <time>2026-08-28T17:52:34Z</time>
  <course>247.55</course>
  <speed>0.01</speed>
  <fix>3d</fix>
</trkpt>
<trkpt lat="40.0713749" lon="-105.229789">
  <ele>1583.0</ele>
  <time>2026-08-28T17:52:34Z</time>
  <course>0.0</course>
  <speed>0.0</speed>
  <fix>3d</fix>
</trkpt>
<trkpt lat="40.0713749" lon="-105.229789">
  <ele>1582.93</ele>
  <time>2026-08-28T17:52:34Z</time>
  <course>247.47</course>
  <speed>0.03</speed>
  <fix>3d</fix>
</trkpt>
<trkpt lat="40.0713749" lon="-105.229789">
  <ele>1583.0</ele>
  <time>2026-08-28T17:52:34Z</time>
  <course>245.99</course>
  <speed>0.0</speed>
  <fix>3d</fix>
</trkpt>
<trkpt lat="40.0713749" lon="-105.229789">
  <ele>1582.93</ele>
  <time>2026-08-28T17:52:34Z</time>
  <course>247.3</course>
  <speed>0.07071067811865475</speed>
  <fix>3d</fix>
</trkpt>
<trkpt lat="40.0713749" lon="-105.229789">
  <ele>1583.0</ele>
  <time>2026-08-28T17:52:34Z</time>
  <course>245.99</course>
  <speed>0.0</speed>
  <fix>3d</fix>
</trkpt>
<trkpt lat="40.0713749" lon="-105.2297892">
  <ele>1582.93</ele>
  <time>2026-08-28T17:52:34Z</time>
  <course>247.05</course>
  <speed>0.1019803902718557</speed>
  <fix>3d</fix>
</trkpt>
<trkpt lat="40.0713749" lon="-105.229789">
  <ele>1583.0</ele>
  <time>2026-08-28T17:52:34Z</time>
  <course>245.78</course>
  <speed>0.04</speed>
  <fix>3d</fix>
</trkpt>
<trkpt lat="40.0713749" lon="-105.2297893">
  <ele>1582.93</ele>
  <time>2026-08-28T17:52:34Z</time>
  <course>246.71</course>
  <speed>0.13601470508735444</speed>
  <fix>3d</fix>
</trkpt>
<trkpt lat="40.0713749" lon="-105.229789">
  <ele>1583.0</ele>
  <time>2026-08-28T17:52:34Z</time>
  <course>245.78</course>
  <speed>0.04</speed>
  <fix>3d</fix>
</trkpt>
<trkpt lat="40.0713748" lon="-105.2297895">
  <ele>1582.94</ele>
  <time>2026-08-28T17:52:34Z</time>
  <course>246.3</course>
  <speed>0.1676305461424021</speed>
  <fix>3d</fix>
</trkpt>
<trkpt lat="40.0713749" lon="-105.2297892">
  <ele>1583.0</ele>
  <time>2026-08-28T17:52:34Z</time>
  <course>245.37</course>
  <speed>0.12</speed>
  <fix>3d</fix>
</trkpt>
<trkpt lat="40.0713748" lon="-105.2297897">
  <ele>1582.94</ele>
  <time>2026-08-28T17:52:34Z</time>
  <course>245.8</course>
  <speed>0.19924858845171275</speed>
  <fix>3d</fix>
</trkpt>
<trkpt lat="40.0713748" lon="-105.2297895">
  <ele>1583.0</ele>
  <time>2026-08-28T17:52:34Z</time>
  <course>244.63</course>
  <speed>0.18</speed>
  <fix>3d</fix>
</trkpt>
<trkpt lat="40.0713747" lon="-105.22979">
  <ele>1582.94</ele>
  <time>2026-08-28T17:52:34Z</time>
  <course>245.24</course>
  <speed>0.22472205054244232</speed>
  <fix>3d</fix>
</trkpt>
<trkpt lat="40.0713748" lon="-105.2297895">
  <ele>1583.0</ele>
  <time>2026-08-28T17:52:34Z</time>
  <course>244.63</course>
  <speed>0.18</speed>
  <fix>3d</fix>
</trkpt>
<trkpt lat="40.0713746" lon="-105.2297902">
  <ele>1582.95</ele>
  <time>2026-08-28T17:52:34Z</time>
  <course>244.61</course>
  <speed>0.24698178070456936</speed>
  <fix>3d</fix>
</trkpt>
<trkpt lat="40.0713747" lon="-105.2297899">
  <ele>1583.0</ele>
  <time>2026-08-28T17:52:34Z</time>
  <course>243.6</course>
  <speed>0.24</speed>
  <fix>3d</fix>
</trkpt>
<trkpt lat="40.0713745" lon="-105.2297905">
  <ele>1582.95</ele>
  <time>2026-08-28T17:52:34Z</time>
  <course>243.93</course>
  <speed>0.2823118842698621</speed>
  <fix>3d</fix>
</trkpt>
<trkpt lat="40.0713747" lon="-105.2297899">
  <ele>1583.0</ele>
  <time>2026-08-28T17:52:34Z</time>
  <course>243.6</course>
  <speed>0.24</speed>
  <fix>3d</fix>
</trkpt>
<trkpt lat="40.0713744" lon="-105.2297909">
  <ele>1582.95</ele>
  <time>2026-08-28T17:52:34Z</time>
  <course>243.18</course>
  <speed>0.30463092423455634</speed>
  <fix>3d</fix>
</trkpt>
<trkpt lat="40.0713744" lon="-105.2297904">
  <ele>1583.0</ele>
  <time>2026-08-28T17:52:34Z</time>
  <course>242.29</course>
  <speed>0.29</speed>
  <fix>3d</fix>
</trkpt>
<trkpt lat="40.0713742" lon="-105.2297912">
  <ele>1582.96</ele>
  <time>2026-08-28T17:52:34Z</time>
  <course>242.37</course>
  <speed>0.33105890714493696</speed>
  <fix>3d</fix>
</trkpt>
<trkpt lat="40.0713744" lon="-105.2297904">
  <ele>1583.0</ele>
  <time>2026-08-28T17:52:34Z</time>
  <course>242.29</course>
  <speed>0.29</speed>
  <fix>3d</fix>
</trkpt>
<trkpt lat="40.0713741" lon="-105.2297916">
  <ele>1582.96</ele>
  <time>2026-08-28T17:52:34Z</time>
  <course>241.5</course>
  <speed>0.3488552708502482</speed>
  <fix>3d</fix>
</trkpt>
<trkpt lat="40.0713741" lon="-105.2297911">
  <ele>1583.0</ele>
  <time>2026-08-28T17:52:34Z</time>
  <course>240.75</course>
  <speed>0.34</speed>
  <fix>3d</fix>
</trkpt>
<trkpt lat="40.0713739" lon="-105.229792">
  <ele>1582.96</ele>
  <time>2026-08-28T17:52:34Z</time>
  <course>240.58</course>
  <speed>0.37589892258425</speed>
  <fix>3d</fix>
</trkpt>
<trkpt lat="40.0713741" lon="-105.2297911">
  <ele>1583.0</ele>
  <time>2026-08-28T17:52:34Z</time>
  <course>240.75</course>
  <speed>0.34</speed>
  <fix>3d</fix>
</trkpt>
<trkpt lat="40.0713737" lon="-105.2297924">
  <ele>1582.96</ele>
  <time>2026-08-28T17:52:34Z</time>
  <course>239.61</course>
  <speed>0.38948684188300897</speed>
  <fix>3d</fix>
</trkpt>
<trkpt lat="40.0713738" lon="-105.2297919">
  <ele>1583.0</ele>
  <time>2026-08-28T17:52:34Z</time>
  <course>238.98</course>
  <speed>0.38</speed>
  <fix>3d</fix>
</trkpt>
<trkpt lat="40.0713735" lon="-105.2297928">
  <ele>1582.96</ele>
  <time>2026-08-28T17:52:34Z</time>
  <course>238.6</course>
  <speed>0.4167733196834941</speed>
  <fix>3d</fix>
</trkpt>
<trkpt lat="40.0713738" lon="-105.2297919">
  <ele>1583.0</ele>
  <time>2026-08-28T17:52:34Z</time>
  <course>238.98</course>
  <speed>0.38</speed>
  <fix>3d</fix>
</trkpt>
<trkpt lat="40.0713733" lon="-105.2297932">
  <ele>1582.96</ele>
  <time>2026-08-28T17:52:34Z</time>
  <course>237.54</course>
  <speed>0.4356604182158393</speed>
  <fix>3d</fix>
</trkpt>
<trkpt lat="40.0713734" lon="-105.2297927">
  <ele>1583.0</ele>
  <time>2026-08-28T17:52:34Z</time>
  <course>237.0</course>
  <speed>0.42</speed>
  <fix>3d</fix>
</trkpt>
<trkpt lat="40.071373" lon="-105.2297937">
  <ele>1582.96</ele>
  <time>2026-08-28T17:52:34Z</time>
  <course>236.44</course>
  <speed>0.45486261662176636</speed>
  <fix>3d</fix>
</trkpt>
<trkpt lat="40.0713734" lon="-105.2297927">
  <ele>1583.0</ele>
  <time>2026-08-28T17:52:34Z</time>
  <course>237.0</course>
  <speed>0.42</speed>
  <fix>3d</fix>
</trkpt>
<trkpt lat="40.0713728" lon="-105.2297941">
  <ele>1582.95</ele>
  <time>2026-08-28T17:52:34Z</time>
  <course>235.29</course>
  <speed>0.4661544808322666</speed>
  <fix>3d</fix>
</trkpt>
<trkpt lat="40.071373" lon="-105.2297936">
  <ele>1583.0</ele>
  <time>2026-08-28T17:52:34Z</time>
  <course>234.85</course>
  <speed>0.46</speed>
  <fix>3d</fix>
</trkpt>
<trkpt lat="40.0713725" lon="-105.2297946">
  <ele>1582.95</ele>
  <time>2026-08-28T17:52:34Z</time>
  <course>234.11</course>
  <speed>0.4860041152089147</speed>
  <fix>3d</fix>
</trkpt>
<trkpt lat="40.071373" lon="-105.2297936">
  <ele>1583.0</ele>
  <time>2026-08-28T17:52:34Z</time>
  <course>234.85</course>
  <speed>0.46</speed>
  <fix>3d</fix>
</trkpt>
<trkpt lat="40.0713722" lon="-105.2297951">
  <ele>1582.96</ele>
  <time>2026-08-28T17:52:34Z</time>
  <course>232.89</course>
  <speed>0.5</speed>
  <fix>3d</fix>
</trkpt>
<trkpt lat="40.071373" lon="-105.2297936">
  <ele>1583.0</ele>
  <time>2026-08-28T17:52:34Z</time>
  <course>234.85</course>
  <speed>0.46</speed>
  <fix>3d</fix>
</trkpt>
<trkpt lat="40.0713719" lon="-105.2297955">
  <ele>1582.95</ele>
  <time>2026-08-28T17:52:34Z</time>
  <course>231.64</course>
  <speed>0.5122499389946279</speed>
  <fix>3d</fix>
</trkpt>
<trkpt lat="40.0713724" lon="-105.2297945">
  <ele>1583.0</ele>
  <time>2026-08-28T17:52:34Z</time>
  <course>232.53</course>
  <speed>0.49</speed>
  <fix>3d</fix>
</trkpt>
<trkpt lat="40.0713716" lon="-105.229796">
  <ele>1582.95</ele>
  <time>2026-08-28T17:52:34Z</time>
  <course>230.36</course>
  <speed>0.5249761899362675</speed>
  <fix>3d</fix>
</trkpt>
<trkpt lat="40.0713724" lon="-105.2297945">
  <ele>1583.0</ele>
  <time>2026-08-28T17:52:34Z</time>
  <course>232.53</course>
  <speed>0.49</speed>
  <fix>3d</fix>
</trkpt>
<trkpt lat="40.0713712" lon="-105.2297965">
  <ele>1582.95</ele>
  <time>2026-08-28T17:52:34Z</time>
  <course>229.04</course>
  <speed>0.5381449618829484</speed>
  <fix>3d</fix>
</trkpt>
<trkpt lat="40.0713719" lon="-105.2297954">
  <ele>1583.0</ele>
  <time>2026-08-28T17:52:34Z</time>
  <course>230.06</course>
  <speed>0.52</speed>
  <fix>3d</fix>
</trkpt>
<trkpt lat="40.0713709" lon="-105.229797">
  <ele>1582.95</ele>
  <time>2026-08-28T17:52:34Z</time>
  <course>227.69</course>
  <speed>0.5517245689653489</speed>
  <fix>3d</fix>
</trkpt>
<trkpt lat="40.0713719" lon="-105.2297954">
  <ele>1583.0</ele>
  <time>2026-08-28T17:52:34Z</time>
  <course>230.06</course>
  <speed>0.52</speed>
  <fix>3d</fix>
</trkpt>
<trkpt lat="40.0713705" lon="-105.2297974">
  <ele>1582.95</ele>
  <time>2026-08-28T17:52:34Z</time>
  <course>226.31</course>
  <speed>0.565685424949238</speed>
  <fix>3d</fix>
</trkpt>
<trkpt lat="40.0713712" lon="-105.2297964">
  <ele>1583.0</ele>
  <time>2026-08-28T17:52:34Z</time>
  <course>227.47</course>
  <speed>0.55</speed>
  <fix>3d</fix>
</trkpt>
<trkpt lat="40.0713702" lon="-105.2297979">
  <ele>1582.95</ele>
  <time>2026-08-28T17:52:34Z</time>
  <course>224.91</course>
  <speed>0.5731491952362839</speed>
  <fix>3d</fix>
</trkpt>
<trkpt lat="40.0713712" lon="-105.2297964">
  <ele>1583.0</ele>
  <time>2026-08-28T17:52:34Z</time>
  <course>227.47</course>
  <speed>0.55</speed>
  <fix>3d</fix>
</trkpt>
<trkpt lat="40.0713698" lon="-105.2297984">
  <ele>1582.95</ele>
  <time>2026-08-28T17:52:34Z</time>
  <course>223.47</course>
  <speed>0.587962583843564</speed>
  <fix>3d</fix>
</trkpt>
<trkpt lat="40.0713705" lon="-105.2297973">
  <ele>1583.0</ele>
  <time>2026-08-28T17:52:34Z</time>
  <course>224.75</course>
  <speed>0.57</speed>
  <fix>3d</fix>
</trkpt>
<trkpt lat="40.0713693" lon="-105.2297988">
  <ele>1582.96</ele>
  <time>2026-08-28T17:52:34Z</time>
  <course>222.02</course>
  <speed>0.5889821729050889</speed>
  <fix>3d</fix>
</trkpt>
<trkpt lat="40.0713698" lon="-105.2297983">
  <ele>1583.0</ele>
  <time>2026-08-28T17:52:34Z</time>
  <course>221.92</course>
  <speed>0.59</speed>
  <fix>3d</fix>
</trkpt>
<trkpt lat="40.0713689" lon="-105.2297993">
  <ele>1582.96</ele>
  <time>2026-08-28T17:52:34Z</time>
  <course>220.54</course>
  <speed>0.6044005294504631</speed>
  <fix>3d</fix>
</trkpt>
<trkpt lat="40.0713698" lon="-105.2297983">
  <ele>1583.0</ele>
  <time>2026-08-28T17:52:34Z</time>
  <course>221.92</course>
  <speed>0.59</speed>
  <fix>3d</fix>
</trkpt>
<trkpt lat="40.0713685" lon="-105.2297997">
  <ele>1582.97</ele>
  <time>2026-08-28T17:52:34Z</time>
  <course>219.05</course>
  <speed>0.6140032573203501</speed>
  <fix>3d</fix>
</trkpt>
<trkpt lat="40.071369" lon="-105.2297992">
  <ele>1583.0</ele>
  <time>2026-08-28T17:52:34Z</time>
  <course>218.99</course>
  <speed>0.61</speed>
  <fix>3d</fix>
</trkpt>
<trkpt lat="40.071368" lon="-105.2298001">
  <ele>1582.97</ele>
  <time>2026-08-28T17:52:34Z</time>
  <course>217.53</course>
  <speed>0.6242595614005443</speed>
  <fix>3d</fix>
</trkpt>
<trkpt lat="40.071369" lon="-105.2297992">
  <ele>1583.0</ele>
  <time>2026-08-28T17:52:34Z</time>
  <course>218.99</course>
  <speed>0.61</speed>
  <fix>3d</fix>
</trkpt>
<trkpt lat="40.0713675" lon="-105.2298006">
  <ele>1582.98</ele>
  <time>2026-08-28T17:52:34Z</time>
  <course>215.99</course>
  <speed>0.6268173577685928</speed>
  <fix>3d</fix>
</trkpt>
<trkpt lat="40.0713681" lon="-105.2298001">
  <ele>1583.0</ele>
  <time>2026-08-28T17:52:34Z</time>
  <course>215.97</course>
  <speed>0.63</speed>
  <fix>3d</fix>
</trkpt>
<trkpt lat="40.071367" lon="-105.229801">
  <ele>1582.98</ele>
  <time>2026-08-28T17:52:34Z</time>
  <course>214.43</course>
  <speed>0.6381222453417527</speed>
  <fix>3d</fix>
</trkpt>
<trkpt lat="40.0713681" lon="-105.2298001">
  <ele>1583.0</ele>
  <time>2026-08-28T17:52:34Z</time>
  <course>215.97</course>
  <speed>0.63</speed>
  <fix>3d</fix>
</trkpt>
<trkpt lat="40.0713665" lon="-105.2298014">
  <ele>1582.98</ele>
  <time>2026-08-28T17:52:34Z</time>
  <course>212.84</course>
  <speed>0.65</speed>
  <fix>3d</fix>
</trkpt>
<trkpt lat="40.0713672" lon="-105.229801">
  <ele>1583.0</ele>
  <time>2026-08-28T17:52:34Z</time>
  <course>212.87</course>
  <speed>0.64</speed>
  <fix>3d</fix>
</trkpt>
<trkpt lat="40.071366" lon="-105.2298018">
  <ele>1582.98</ele>
  <time>2026-08-28T17:52:34Z</time>
  <course>211.24</course>
  <speed>0.6488451279003334</speed>
  <fix>3d</fix>
</trkpt>
<trkpt lat="40.0713672" lon="-105.229801">
  <ele>1583.0</ele>
  <time>2026-08-28T17:52:34Z</time>
  <course>212.87</course>
  <speed>0.64</speed>
  <fix>3d</fix>
</trkpt>
<trkpt lat="40.0713655" lon="-105.2298022">
  <ele>1582.98</ele>
  <time>2026-08-28T17:52:34Z</time>
  <course>209.63</course>
  <speed>0.6618912297349165</speed>
  <fix>3d</fix>
</trkpt>
<trkpt lat="40.0713661" lon="-105.2298017">
  <ele>1583.0</ele>
  <time>2026-08-28T17:52:34Z</time>
  <course>209.7</course>
  <speed>0.66</speed>
  <fix>3d</fix>
</trkpt>
<trkpt lat="40.0713649" lon="-105.2298025">
  <ele>1582.98</ele>
  <time>2026-08-28T17:52:34Z</time>
  <course>208.0</course>
  <speed>0.6664082832618454</speed>
  <fix>3d</fix>
</trkpt>
<trkpt lat="40.0713661" lon="-105.2298017">
  <ele>1583.0</ele>
  <time>2026-08-28T17:52:34Z</time>
  <course>209.7</course>
  <speed>0.66</speed>
  <fix>3d</fix>
</trkpt>
<trkpt lat="40.0713644" lon="-105.2298029">
  <ele>1582.98</ele>
  <time>2026-08-28T17:52:34Z</time>
  <course>206.35</course>
  <speed>0.6670832032063168</speed>
  <fix>3d</fix>
</trkpt>
<trkpt lat="40.071365" lon="-105.2298025">
  <ele>1583.0</ele>
  <time>2026-08-28T17:52:34Z</time>
  <course>206.46</course>
  <speed>0.67</speed>
  <fix>3d</fix>
</trkpt>
<trkpt lat="40.0713638" lon="-105.2298032">
  <ele>1582.98</ele>
  <time>2026-08-28T17:52:34Z</time>
  <course>204.7</course>
  <speed>0.6777905281132217</speed>
  <fix>3d</fix>
</trkpt>
<trkpt lat="40.071365" lon="-105.2298025">
  <ele>1583.0</ele>
  <time>2026-08-28T17:52:34Z</time>
  <course>206.46</course>
  <speed>0.67</speed>
  <fix>3d</fix>
</trkpt>
<trkpt lat="40.0713632" lon="-105.2298035">
  <ele>1582.98</ele>
  <time>2026-08-28T17:52:34Z</time>
  <course>203.03</course>
  <speed>0.6800735254367721</speed>
  <fix>3d</fix>
</trkpt>
<trkpt lat="40.0713639" lon="-105.2298031">
  <ele>1583.0</ele>
  <time>2026-08-28T17:52:34Z</time>
  <course>203.16</course>
  <speed>0.68</speed>
  <fix>3d</fix>
</trkpt>
<trkpt lat="40.0713626" lon="-105.2298037">
  <ele>1582.98</ele>
  <time>2026-08-28T17:52:34Z</time>
  <course>201.34</course>
  <speed>0.6862215385719105</speed>
  <fix>3d</fix>
</trkpt>
<trkpt lat="40.0713639" lon="-105.2298031">
  <ele>1583.0</ele>
  <time>2026-08-28T17:52:34Z</time>
  <course>203.16</course>
  <speed>0.68</speed>
  <fix>3d</fix>
</trkpt>
<trkpt lat="40.071362" lon="-105.229804">
  <ele>1582.98</ele>
  <time>2026-08-28T17:52:34Z</time>
  <course>199.64</course>
  <speed>0.6992138442565335</speed>
  <fix>3d</fix>
</trkpt>
<trkpt lat="40.0713639" lon="-105.2298031">
  <ele>1583.0</ele>
  <time>2026-08-28T17:52:34Z</time>
  <course>203.16</course>
  <speed>0.68</speed>
  <fix>3d</fix>
</trkpt>
<trkpt lat="40.0713614" lon="-105.2298042">
  <ele>1582.98</ele>
  <time>2026-08-28T17:52:34Z</time>
  <course>197.94</course>
  <speed>0.7034202158027589</speed>
  <fix>3d</fix>
</trkpt>
<trkpt lat="40.0713627" lon="-105.2298037">
  <ele>1583.0</ele>
  <time>2026-08-28T17:52:34Z</time>
  <course>199.8</course>
  <speed>0.69</speed>
  <fix>3d</fix>
</trkpt>
<trkpt lat="40.0713608" lon="-105.2298044">
  <ele>1582.98</ele>
  <time>2026-08-28T17:52:34Z</time>
  <course>196.22</course>
  <speed>0.7083078426785913</speed>
  <fix>3d</fix>
</trkpt>
<trkpt lat="40.0713627" lon="-105.2298037">
  <ele>1583.0</ele>
  <time>2026-08-28T17:52:34Z</time>
  <course>199.8</course>
  <speed>0.69</speed>
  <fix>3d</fix>
</trkpt>
<trkpt lat="40.0713602" lon="-105.2298046">
  <ele>1582.98</ele>
  <time>2026-08-28T17:52:34Z</time>
  <course>194.49</course>
  <speed>0.7021395872616784</speed>
  <fix>3d</fix>
</trkpt>
<trkpt lat="40.0713615" lon="-105.2298043">
  <ele>1583.0</ele>
  <time>2026-08-28T17:52:34Z</time>
  <course>196.39</course>
  <speed>0.7</speed>
  <fix>3d</fix>
</trkpt>
<trkpt lat="40.0713595" lon="-105.2298048">
  <ele>1582.98</ele>
  <time>2026-08-28T17:52:34Z</time>
  <course>192.75</course>
  <speed>0.708590149522275</speed>
  <fix>3d</fix>
</trkpt>
<trkpt lat="40.0713615" lon="-105.2298043">
  <ele>1583.0</ele>
  <time>2026-08-28T17:52:34Z</time>
  <course>196.39</course>
  <speed>0.7</speed>
  <fix>3d</fix>
</trkpt>
<trkpt lat="40.0713589" lon="-105.2298049">
  <ele>1582.98</ele>
  <time>2026-08-28T17:52:34Z</time>
  <course>191.0</course>
  <speed>0.7156814934033155</speed>
  <fix>3d</fix>
</trkpt>
<trkpt lat="40.0713603" lon="-105.2298046">
  <ele>1583.0</ele>
  <time>2026-08-28T17:52:34Z</time>
  <course>192.94</course>
  <speed>0.71</speed>
  <fix>3d</fix>
</trkpt>
<trkpt lat="40.0713583" lon="-105.229805">
  <ele>1582.98</ele>
  <time>2026-08-28T17:52:34Z</time>
  <course>189.22</course>
  <speed>0.7134423592694787</speed>
  <fix>3d</fix>
</trkpt>
<trkpt lat="40.0713591" lon="-105.229805">
  <ele>1583.0</ele>
  <time>2026-08-28T17:52:34Z</time>
  <course>189.46</course>
  <speed>0.72</speed>
  <fix>3d</fix>
</trkpt>
<trkpt lat="40.0713576" lon="-105.2298051">
  <ele>1582.98</ele>
  <time>2026-08-28T17:52:34Z</time>
  <course>187.46</course>
  <speed>0.7211102550927978</speed>
  <fix>3d</fix>
</trkpt>
<trkpt lat="40.0713591" lon="-105.229805">
  <ele>1583.0</ele>
  <time>2026-08-28T17:52:34Z</time>
  <course>189.46</course>
  <speed>0.72</speed>
  <fix>3d</fix>
</trkpt>
<trkpt lat="40.071357" lon="-105.2298052">
  <ele>1582.98</ele>
  <time>2026-08-28T17:52:34Z</time>
  <course>185.68</course>
  <speed>0.7202777242147643</speed>
  <fix>3d</fix>
</trkpt>
<trkpt lat="40.0713578" lon="-105.2298053">
  <ele>1583.0</ele>
  <time>2026-08-28T17:52:34Z</time>
  <course>185.93</course>
  <speed>0.73</speed>
  <fix>3d</fix>
</trkpt>
<trkpt lat="40.0713563" lon="-105.2298052">
  <ele>1582.98</ele>
  <time>2026-08-28T17:52:34Z</time>
  <course>183.92</course>
  <speed>0.71</speed>
  <fix>3d</fix>
</trkpt>
<trkpt lat="40.0713578" lon="-105.2298053">
  <ele>1583.0</ele>
  <time>2026-08-28T17:52:34Z</time>
  <course>185.93</course>
  <speed>0.73</speed>
  <fix>3d</fix>
</trkpt>
<trkpt lat="40.0713557" lon="-105.2298052">
  <ele>1582.98</ele>
  <time>2026-08-28T17:52:34Z</time>
  <course>182.22</course>
  <speed>0.6702984409947557</speed>
  <fix>3d</fix>
</trkpt>
<trkpt lat="40.0713565" lon="-105.2298053">
  <ele>1583.0</ele>
  <time>2026-08-28T17:52:34Z</time>
  <course>182.5</course>
  <speed>0.7</speed>
  <fix>3d</fix>
</trkpt>
<trkpt lat="40.0713551" lon="-105.2298052">
  <ele>1582.99</ele>
  <time>2026-08-28T17:52:34Z</time>
  <course>181.88</course>
  <speed>0.6403124237432849</speed>
  <fix>3d</fix>
</trkpt>
<trkpt lat="40.0713565" lon="-105.2298053">
  <ele>1583.0</ele>
  <time>2026-08-28T17:52:34Z</time>
  <course>182.5</course>
  <speed>0.7</speed>
  <fix>3d</fix>
</trkpt>
<trkpt lat="40.0713545" lon="-105.2298052">
  <ele>1582.99</ele>
  <time>2026-08-28T17:52:34Z</time>
  <course>181.88</course>
  <speed>0.6003332407921453</speed>
  <fix>3d</fix>
</trkpt>
<trkpt lat="40.0713553" lon="-105.2298053">
  <ele>1583.0</ele>
  <time>2026-08-28T17:52:34Z</time>
  <course>180.54</course>
  <speed>0.65</speed>
  <fix>3d</fix>
</trkpt>
<trkpt lat="40.071354" lon="-105.2298052">
  <ele>1583.0</ele>
  <time>2026-08-28T17:52:34Z</time>
  <course>181.88</course>
  <speed>0.5707889277132134</speed>
  <fix>3d</fix>
</trkpt>
<trkpt lat="40.0713553" lon="-105.2298053">
  <ele>1583.0</ele>
  <time>2026-08-28T17:52:34Z</time>
  <course>180.54</course>
  <speed>0.65</speed>
  <fix>3d</fix>
</trkpt>
<trkpt lat="40.0713535" lon="-105.2298052">
  <ele>1583.0</ele>
  <time>2026-08-28T17:52:34Z</time>
  <course>181.87</course>
  <speed>0.5408326913195984</speed>
  <fix>3d</fix>
</trkpt>
<trkpt lat="40.0713542" lon="-105.2298054">
  <ele>1583.0</ele>
  <time>2026-08-28T17:52:34Z</time>
  <course>180.37</course>
  <speed>0.58</speed>
  <fix>3d</fix>
</trkpt>
<trkpt lat="40.0713534" lon="-105.2298052">
  <ele>1583.0</ele>
  <time>2026-08-28T17:52:34Z</time>
  <course>181.87</course>
  <speed>0.5408326913195984</speed>
  <fix>3d</fix>
</trkpt>
<trkpt lat="40.071353" lon="-105.2298052">
  <ele>1583.0</ele>
  <time>2026-08-28T17:52:34Z</time>
  <course>181.87</course>
  <speed>0.5308483775994799</speed>
  <fix>3d</fix>
</trkpt>
<trkpt lat="40.0713542" lon="-105.2298054">
  <ele>1583.0</ele>
  <time>2026-08-28T17:52:34Z</time>
  <course>180.37</course>
  <speed>0.58</speed>
  <fix>3d</fix>
</trkpt>
<trkpt lat="40.0713526" lon="-105.2298052">
  <ele>1583.0</ele>
  <time>2026-08-28T17:52:34Z</time>
  <course>181.87</course>
  <speed>0.5108815909777921</speed>
  <fix>3d</fix>
</trkpt>
<trkpt lat="40.0713532" lon="-105.2298055">
  <ele>1583.0</ele>
  <time>2026-08-28T17:52:34Z</time>
  <course>180.37</course>
  <speed>0.54</speed>
  <fix>3d</fix>
</trkpt>
<trkpt lat="40.0713515" lon="-105.2298052">
  <ele>1583.01</ele>
  <time>2026-08-28T17:52:34Z</time>
  <course>181.85</course>
  <speed>0.3911521443121589</speed>
  <fix>3d</fix>
</trkpt>
<trkpt lat="40.0713522" lon="-105.2298055">
  <ele>1583.0</ele>
  <time>2026-08-28T17:52:34Z</time>
  <course>180.37</course>
  <speed>0.49</speed>
  <fix>3d</fix>
</trkpt>
<trkpt lat="40.0713512" lon="-105.2298052">
  <ele>1583.0</ele>
  <time>2026-08-28T17:52:34Z</time>
  <course>181.85</course>
  <speed>0.31144823004794875</speed>
  <fix>3d</fix>
</trkpt>
<trkpt lat="40.0713522" lon="-105.2298055">
  <ele>1583.0</ele>
  <time>2026-08-28T17:52:34Z</time>
  <course>180.37</course>
  <speed>0.49</speed>
  <fix>3d</fix>
</trkpt>
<trkpt lat="40.0713509" lon="-105.2298052">
  <ele>1583.01</ele>
  <time>2026-08-28T17:52:34Z</time>
  <course>181.84</course>
  <speed>0.24186773244895649</speed>
  <fix>3d</fix>
</trkpt>
<trkpt lat="40.0713514" lon="-105.2298055">
  <ele>1583.0</ele>
  <time>2026-08-28T17:52:34Z</time>
  <course>180.37</course>
  <speed>0.38</speed>
  <fix>3d</fix>
</trkpt>
<trkpt lat="40.0713507" lon="-105.2298052">
  <ele>1583.01</ele>
  <time>2026-08-28T17:52:34Z</time>
  <course>181.84</course>
  <speed>0.17262676501632068</speed>
  <fix>3d</fix>
</trkpt>
<trkpt lat="40.0713514" lon="-105.2298055">
  <ele>1583.0</ele>
  <time>2026-08-28T17:52:34Z</time>
  <course>180.37</course>
  <speed>0.38</speed>
  <fix>3d</fix>
</trkpt>
<trkpt lat="40.0713506" lon="-105.2298052">
  <ele>1583.0</ele>
  <time>2026-08-28T17:52:34Z</time>
  <course>181.83</course>
  <speed>0.11401754250991379</speed>
  <fix>3d</fix>
</trkpt>
<trkpt lat="40.0713508" lon="-105.2298055">
  <ele>1583.0</ele>
  <time>2026-08-28T17:52:34Z</time>
  <course>180.37</course>
  <speed>0.24</speed>
  <fix>3d</fix>
</trkpt>
<trkpt lat="40.0713505" lon="-105.2298052">
  <ele>1583.0</ele>
  <time>2026-08-28T17:52:34Z</time>
  <course>181.82</course>
  <speed>0.0854400374531753</speed>
  <fix>3d</fix>
</trkpt>
<trkpt lat="40.0713508" lon="-105.2298055">
  <ele>1583.0</ele>
  <time>2026-08-28T17:52:34Z</time>
  <course>180.37</course>
  <speed>0.24</speed>
  <fix>3d</fix>
</trkpt>
<trkpt lat="40.0713504" lon="-105.2298052">
  <ele>1583.01</ele>
  <time>2026-08-28T17:52:34Z</time>
  <course>181.81</course>
  <speed>0.07615773105863909</speed>
  <fix>3d</fix>
</trkpt>
<trkpt lat="40.0713504" lon="-105.2298055">
  <ele>1583.0</ele>
  <time>2026-08-28T17:52:34Z</time>
  <course>180.37</course>
  <speed>0.14</speed>
  <fix>3d</fix>
</trkpt>
<trkpt lat="40.0713503" lon="-105.2298052">
  <ele>1583.01</ele>
  <time>2026-08-28T17:52:34Z</time>
  <course>181.81</course>
  <speed>0.07615773105863909</speed>
  <fix>3d</fix>
</trkpt>
<trkpt lat="40.0713504" lon="-105.2298055">
  <ele>1583.0</ele>
  <time>2026-08-28T17:52:34Z</time>
  <course>180.37</course>
  <speed>0.14</speed>
  <fix>3d</fix>
</trkpt>
<trkpt lat="40.0713503" lon="-105.2298052">
  <ele>1583.01</ele>
  <time>2026-08-28T17:52:34Z</time>
  <course>181.8</course>
  <speed>0.0670820393249937</speed>
  <fix>3d</fix>
</trkpt>
<trkpt lat="40.0713503" lon="-105.2298055">
  <ele>1583.0</ele>
  <time>2026-08-28T17:52:34Z</time>
  <course>180.37</course>
  <speed>0.1</speed>
  <fix>3d</fix>
</trkpt>
<trkpt lat="40.0713502" lon="-105.2298052">
  <ele>1583.01</ele>
  <time>2026-08-28T17:52:34Z</time>
  <course>181.79</course>
  <speed>0.053851648071345036</speed>
  <fix>3d</fix>
</trkpt>
<trkpt lat="40.0713503" lon="-105.2298055">
  <ele>1583.0</ele>
  <time>2026-08-28T17:52:34Z</time>
  <course>180.37</course>
  <speed>0.1</speed>
  <fix>3d</fix>
</trkpt>
<trkpt lat="40.0713501" lon="-105.2298052">
  <ele>1583.01</ele>
  <time>2026-08-28T17:52:34Z</time>
  <course>181.78</course>
  <speed>0.053851648071345036</speed>
  <fix>3d</fix>
</trkpt>
<trkpt lat="40.07135" lon="-105.2298055">
  <ele>1583.0</ele>
  <time>2026-08-28T17:52:34Z</time>
  <course>180.37</course>
  <speed>0.09</speed>
  <fix>3d</fix>
</trkpt>
<trkpt lat="40.07135" lon="-105.2298052">
  <ele>1583.0</ele>
  <time>2026-08-28T17:52:34Z</time>
  <course>181.78</course>
  <speed>0.053851648071345036</speed>
  <fix>3d</fix>
</trkpt>
<trkpt lat="40.07135" lon="-105.2298055">
  <ele>1583.0</ele>
  <time>2026-08-28T17:52:34Z</time>
  <course>180.37</course>
  <speed>0.09</speed>
  <fix>3d</fix>
</trkpt>
<trkpt lat="40.07135" lon="-105.2298052">
  <ele>1583.0</ele>
  <time>2026-08-28T17:52:34Z</time>
  <course>181.77</course>
  <speed>0.044721359549995794</speed>
  <fix>3d</fix>
</trkpt>
<trkpt lat="40.0713499" lon="-105.2298055">
  <ele>1583.0</ele>
  <time>2026-08-28T17:52:34Z</time>
  <course>180.37</course>
  <speed>0.08</speed>
  <fix>3d</fix>
</trkpt>
<trkpt lat="40.0713499" lon="-105.2298052">
  <ele>1583.0</ele>
  <time>2026-08-28T17:52:34Z</time>
  <course>181.76</course>
  <speed>0.044721359549995794</speed>
  <fix>3d</fix>
</trkpt>
<trkpt lat="40.0713499" lon="-105.2298055">
  <ele>1583.0</ele>
  <time>2026-08-28T17:52:34Z</time>
  <course>180.37</course>
  <speed>0.08</speed>
  <fix>3d</fix>
</trkpt>
<trkpt lat="40.0713499" lon="-105.2298052">
  <ele>1583.0</ele>
  <time>2026-08-28T17:52:34Z</time>
  <course>181.76</course>
  <speed>0.0316227766016838</speed>
  <fix>3d</fix>
</trkpt>
<trkpt lat="40.0713498" lon="-105.2298055">
  <ele>1583.0</ele>
  <time>2026-08-28T17:52:34Z</time>
  <course>180.37</course>
  <speed>0.07</speed>
  <fix>3d</fix>
</trkpt>
<trkpt lat="40.0713498" lon="-105.2298052">
  <ele>1583.0</ele>
  <time>2026-08-28T17:52:34Z</time>
  <course>181.75</course>
  <speed>0.0316227766016838</speed>
  <fix>3d</fix>
</trkpt>
<trkpt lat="40.0713498" lon="-105.2298055">
  <ele>1583.0</ele>
  <time>2026-08-28T17:52:34Z</time>
  <course>180.37</course>
  <speed>0.07</speed>
  <fix>3d</fix>
</trkpt>
<trkpt lat="40.0713497" lon="-105.2298052">
  <ele>1583.0</ele>
  <time>2026-08-28T17:52:34Z</time>
  <course>181.74</course>
  <speed>0.0316227766016838</speed>
  <fix>3d</fix>
</trkpt>
<trkpt lat="40.0713496" lon="-105.2298055">
  <ele>1583.0</ele>
  <time>2026-08-28T17:52:34Z</time>
  <course>180.37</course>
  <speed>0.07</speed>
  <fix>3d</fix>
</trkpt>
<trkpt lat="40.0713497" lon="-105.2298052">
  <ele>1583.0</ele>
  <time>2026-08-28T17:52:34Z</time>
  <course>181.74</course>
  <speed>0.022360679774997897</speed>
  <fix>3d</fix>
</trkpt>
<trkpt lat="40.0713496" lon="-105.2298055">
  <ele>1583.0</ele>
  <time>2026-08-28T17:52:34Z</time>
  <course>180.37</course>
  <speed>0.07</speed>
  <fix>3d</fix>
</trkpt>
<trkpt lat="40.0713496" lon="-105.2298053">
  <ele>1583.01</ele>
  <time>2026-08-28T17:52:34Z</time>
  <course>181.71</course>
  <speed>0.022360679774997897</speed>
  <fix>3d</fix>
</trkpt>
<trkpt lat="40.0713495" lon="-105.2298055">
  <ele>1583.0</ele>
  <time>2026-08-28T17:52:34Z</time>
  <course>180.37</course>
  <speed>0.06</speed>
  <fix>3d</fix>
</trkpt>
<trkpt lat="40.0713496" lon="-105.2298053">
  <ele>1583.01</ele>
  <time>2026-08-28T17:52:34Z</time>
  <course>181.66</course>
  <speed>0.02</speed>
  <fix>3d</fix>
</trkpt>
<trkpt lat="40.0713495" lon="-105.2298055">
  <ele>1583.0</ele>
  <time>2026-08-28T17:52:34Z</time>
  <course>180.37</course>
  <speed>0.06</speed>
  <fix>3d</fix>
</trkpt>
<trkpt lat="40.0713495" lon="-105.2298053">
  <ele>1583.01</ele>
  <time>2026-08-28T17:52:34Z</time>
  <course>181.57</course>
  <speed>0.02</speed>
  <fix>3d</fix>
</trkpt>
<trkpt lat="40.0713494" lon="-105.2298055">
  <ele>1583.0</ele>
  <time>2026-08-28T17:52:34Z</time>
  <course>180.32</course>
  <speed>0.05</speed>
  <fix>3d</fix>
</trkpt>
<trkpt lat="40.0713495" lon="-105.2298053">
  <ele>1583.01</ele>
  <time>2026-08-28T17:52:34Z</time>
  <course>181.43</course>
  <speed>0.02</speed>
  <fix>3d</fix>
</trkpt>
<trkpt lat="40.0713494" lon="-105.2298055">
  <ele>1583.0</ele>
  <time>2026-08-28T17:52:34Z</time>
  <course>180.32</course>
  <speed>0.05</speed>
  <fix>3d</fix>
</trkpt>
<trkpt lat="40.0713494" lon="-105.2298053">
  <ele>1583.01</ele>
  <time>2026-08-28T17:52:34Z</time>
  <course>181.22</course>
  <speed>0.04</speed>
  <fix>3d</fix>
</trkpt>
<trkpt lat="40.0713493" lon="-105.2298055">
  <ele>1583.0</ele>
  <time>2026-08-28T17:52:34Z</time>
  <course>180.13</course>
  <speed>0.06</speed>
  <fix>3d</fix>
</trkpt>
<trkpt lat="40.0713494" lon="-105.2298053">
  <ele>1583.01</ele>
  <time>2026-08-28T17:52:34Z</time>
  <course>180.91</course>
  <speed>0.05</speed>
  <fix>3d</fix>
</trkpt>
<trkpt lat="40.0713493" lon="-105.2298055">
  <ele>1583.0</ele>
  <time>2026-08-28T17:52:34Z</time>
  <course>180.13</course>
  <speed>0.06</speed>
  <fix>3d</fix>
</trkpt>
<trkpt lat="40.0713493" lon="-105.2298053">
  <ele>1583.01</ele>
  <time>2026-08-28T17:52:34Z</time>
  <course>180.42</course>
  <speed>0.08</speed>
  <fix>3d</fix>
</trkpt>
<trkpt lat="40.0713492" lon="-105.2298055">
  <ele>1583.0</ele>
  <time>2026-08-28T17:52:34Z</time>
  <course>179.64</course>
  <speed>0.08</speed>
  <fix>3d</fix>
</trkpt>
<trkpt lat="40.0713492" lon="-105.2298054">
  <ele>1583.02</ele>
  <time>2026-08-28T17:52:34Z</time>
  <course>179.66</course>
  <speed>0.12</speed>
  <fix>3d</fix>
</trkpt>
<trkpt lat="40.0713492" lon="-105.2298055">
  <ele>1583.0</ele>
  <time>2026-08-28T17:52:34Z</time>
  <course>179.64</course>
  <speed>0.08</speed>
  <fix>3d</fix>
</trkpt>
<trkpt lat="40.071349" lon="-105.2298054">
  <ele>1583.02</ele>
  <time>2026-08-28T17:52:34Z</time>
  <course>178.56</course>
  <speed>0.16</speed>
  <fix>3d</fix>
</trkpt>
<trkpt lat="40.071349" lon="-105.2298055">
  <ele>1583.0</ele>
  <time>2026-08-28T17:52:34Z</time>
  <course>178.48</course>
  <speed>0.13</speed>
  <fix>3d</fix>
</trkpt>
<trkpt lat="40.0713488" lon="-105.2298054">
  <ele>1583.02</ele>
  <time>2026-08-28T17:52:34Z</time>
  <course>177.12</course>
  <speed>0.22022715545545238</speed>
  <fix>3d</fix>
</trkpt>
<trkpt lat="40.071349" lon="-105.2298055">
  <ele>1583.0</ele>
  <time>2026-08-28T17:52:34Z</time>
  <course>178.48</course>
  <speed>0.13</speed>
  <fix>3d</fix>
</trkpt>
<trkpt lat="40.0713485" lon="-105.2298054">
  <ele>1583.02</ele>
  <time>2026-08-28T17:52:34Z</time>
  <course>175.29</course>
  <speed>0.2906888370749727</speed>
  <fix>3d</fix>
</trkpt>
<trkpt lat="40.0713487" lon="-105.2298055">
  <ele>1583.0</ele>
  <time>2026-08-28T17:52:34Z</time>
  <course>176.17</course>
  <speed>0.22</speed>
  <fix>3d</fix>
</trkpt>
<trkpt lat="40.0713482" lon="-105.2298053">
  <ele>1583.02</ele>
  <time>2026-08-28T17:52:34Z</time>
  <course>172.96</course>
  <speed>0.3721558813185679</speed>
  <fix>3d</fix>
</trkpt>
<trkpt lat="40.0713487" lon="-105.2298055">
  <ele>1583.0</ele>
  <time>2026-08-28T17:52:34Z</time>
  <course>176.17</course>
  <speed>0.22</speed>
  <fix>3d</fix>
</trkpt>
<trkpt lat="40.0713478" lon="-105.2298053">
  <ele>1583.02</ele>
  <time>2026-08-28T17:52:34Z</time>
  <course>170.12</course>
  <speed>0.4570557952810576</speed>
  <fix>3d</fix>
</trkpt>
<trkpt lat="40.0713482" lon="-105.2298054">
  <ele>1583.0</ele>
  <time>2026-08-28T17:52:34Z</time>
  <course>172.35</course>
  <speed>0.35</speed>
  <fix>3d</fix>
</trkpt>
<trkpt lat="40.0713473" lon="-105.2298052">
  <ele>1583.02</ele>
  <time>2026-08-28T17:52:34Z</time>
  <course>166.68</course>
  <speed>0.5554277630799526</speed>
  <fix>3d</fix>
</trkpt>
<trkpt lat="40.0713482" lon="-105.2298054">
  <ele>1583.0</ele>
  <time>2026-08-28T17:52:34Z</time>
  <course>172.35</course>
  <speed>0.35</speed>
  <fix>3d</fix>
</trkpt>
<trkpt lat="40.0713467" lon="-105.229805">
  <ele>1583.02</ele>
  <time>2026-08-28T17:52:34Z</time>
  <course>162.63</course>
  <speed>0.6609841147864296</speed>
  <fix>3d</fix>
</trkpt>
<trkpt lat="40.0713473" lon="-105.2298053">
  <ele>1583.0</ele>
  <time>2026-08-28T17:52:34Z</time>
  <course>166.58</course>
  <speed>0.53</speed>
  <fix>3d</fix>
</trkpt>
<trkpt lat="40.0713461" lon="-105.2298047">
  <ele>1583.02</ele>
  <time>2026-08-28T17:52:34Z</time>
  <course>157.86</course>
  <speed>0.78</speed>
  <fix>3d</fix>
</trkpt>
<trkpt lat="40.0713473" lon="-105.2298053">
  <ele>1583.0</ele>
  <time>2026-08-28T17:52:34Z</time>
  <course>166.58</course>
  <speed>0.53</speed>
  <fix>3d</fix>
</trkpt>
<trkpt lat="40.0713453" lon="-105.2298043">
  <ele>1583.02</ele>
  <time>2026-08-28T17:52:34Z</time>
  <course>152.36</course>
  <speed>0.8994442728707542</speed>
  <fix>3d</fix>
</trkpt>
<trkpt lat="40.0713462" lon="-105.2298048">
  <ele>1583.0</ele>
  <time>2026-08-28T17:52:34Z</time>
  <course>158.4</course>
  <speed>0.74</speed>
  <fix>3d</fix>
</trkpt>
<trkpt lat="40.0713446" lon="-105.2298036">
  <ele>1583.02</ele>
  <time>2026-08-28T17:52:34Z</time>
  <course>146.1</course>
  <speed>1.0207840124139878</speed>
  <fix>3d</fix>
</trkpt>
<trkpt lat="40.0713462" lon="-105.2298048">
  <ele>1583.0</ele>
  <time>2026-08-28T17:52:34Z</time>
  <course>158.4</course>
  <speed>0.74</speed>
  <fix>3d</fix>
</trkpt>
<trkpt lat="40.0713437" lon="-105.2298028">
  <ele>1583.02</ele>
  <time>2026-08-28T17:52:34Z</time>
  <course>139.0</course>
  <speed>1.1469088891450794</speed>
  <fix>3d</fix>
</trkpt>
<trkpt lat="40.0713449" lon="-105.2298039">
  <ele>1583.0</ele>
  <time>2026-08-28T17:52:34Z</time>
  <course>147.44</course>
  <speed>0.96</speed>
  <fix>3d</fix>
</trkpt>
<trkpt lat="40.0713429" lon="-105.2298017">
  <ele>1583.03</ele>
  <time>2026-08-28T17:52:34Z</time>
  <course>132.08</course>
  <speed>1.283160161476345</speed>
  <fix>3d</fix>
</trkpt>
<trkpt lat="40.0713449" lon="-105.2298039">
  <ele>1583.0</ele>
  <time>2026-08-28T17:52:34Z</time>
  <course>147.44</course>
  <speed>0.96</speed>
  <fix>3d</fix>
</trkpt>
<trkpt lat="40.0713422" lon="-105.2298004">
  <ele>1583.03</ele>
  <time>2026-08-28T17:52:34Z</time>
  <course>126.02</course>
  <speed>1.4091131963046828</speed>
  <fix>3d</fix>
</trkpt>
<trkpt lat="40.0713434" lon="-105.2298022">
  <ele>1583.0</ele>
  <time>2026-08-28T17:52:34Z</time>
  <course>134.44</course>
  <speed>1.21</speed>
  <fix>3d</fix>
</trkpt>
<trkpt lat="40.0713414" lon="-105.2297988">
  <ele>1583.03</ele>
  <time>2026-08-28T17:52:34Z</time>
  <course>120.63</course>
  <speed>1.54434452114805</speed>
  <fix>3d</fix>
</trkpt>
<trkpt lat="40.0713434" lon="-105.2298022">
  <ele>1583.0</ele>
  <time>2026-08-28T17:52:34Z</time>
  <course>134.44</course>
  <speed>1.21</speed>
  <fix>3d</fix>
</trkpt>
<trkpt lat="40.0713408" lon="-105.2297971">
  <ele>1583.03</ele>
  <time>2026-08-28T17:52:34Z</time>
  <course>115.68</course>
  <speed>1.6560495161679194</speed>
  <fix>3d</fix>
</trkpt>
<trkpt lat="40.071342" lon="-105.2297998">
  <ele>1583.0</ele>
  <time>2026-08-28T17:52:34Z</time>
  <course>122.34</course>
  <speed>1.46</speed>
  <fix>3d</fix>
</trkpt>
<trkpt lat="40.0713402" lon="-105.2297952">
  <ele>1583.03</ele>
  <time>2026-08-28T17:52:34Z</time>
  <course>111.37</course>
  <speed>1.765106229097841</speed>
  <fix>3d</fix>
</trkpt>
<trkpt lat="40.071342" lon="-105.2297998">
  <ele>1583.0</ele>
  <time>2026-08-28T17:52:34Z</time>
  <course>122.34</course>
  <speed>1.46</speed>
  <fix>3d</fix>
</trkpt>
<trkpt lat="40.0713397" lon="-105.2297931">
  <ele>1583.03</ele>
  <time>2026-08-28T17:52:34Z</time>
  <course>107.74</course>
  <speed>1.873606148580859</speed>
  <fix>3d</fix>
</trkpt>
<trkpt lat="40.0713407" lon="-105.2297965">
  <ele>1583.0</ele>
  <time>2026-08-28T17:52:34Z</time>
  <course>112.7</course>
  <speed>1.68</speed>
  <fix>3d</fix>
</trkpt>
<trkpt lat="40.0713392" lon="-105.2297908">
  <ele>1583.03</ele>
  <time>2026-08-28T17:52:34Z</time>
  <course>104.65</course>
  <speed>1.9817668884104407</speed>
  <fix>3d</fix>
</trkpt>
<trkpt lat="40.0713407" lon="-105.2297965">
  <ele>1583.0</ele>
  <time>2026-08-28T17:52:34Z</time>
  <course>112.7</course>
  <speed>1.68</speed>
  <fix>3d</fix>
</trkpt>
<trkpt lat="40.0713389" lon="-105.2297884">
  <ele>1583.03</ele>
  <time>2026-08-28T17:52:34Z</time>
  <course>102.04</course>
  <speed>2.0849220608934043</speed>
  <fix>3d</fix>
</trkpt>
<trkpt lat="40.0713396" lon="-105.2297925">
  <ele>1583.0</ele>
  <time>2026-08-28T17:52:34Z</time>
  <course>105.29</course>
  <speed>1.89</speed>
  <fix>3d</fix>
</trkpt>
<trkpt lat="40.0713385" lon="-105.2297859">
  <ele>1583.03</ele>
  <time>2026-08-28T17:52:34Z</time>
  <course>99.81</course>
  <speed>2.1920310216782974</speed>
  <fix>3d</fix>
</trkpt>
<trkpt lat="40.0713396" lon="-105.2297925">
  <ele>1583.0</ele>
  <time>2026-08-28T17:52:34Z</time>
  <course>105.29</course>
  <speed>1.89</speed>
  <fix>3d</fix>
</trkpt>
<trkpt lat="40.0713383" lon="-105.2297833">
  <ele>1583.04</ele>
  <time>2026-08-28T17:52:34Z</time>
  <course>97.92</course>
  <speed>2.2936651891677653</speed>
  <fix>3d</fix>
</trkpt>
<trkpt lat="40.0713388" lon="-105.229788">
  <ele>1583.0</ele>
  <time>2026-08-28T17:52:34Z</time>
  <course>99.94</course>
  <speed>2.09</speed>
  <fix>3d</fix>
</trkpt>
<trkpt lat="40.0713381" lon="-105.2297805">
  <ele>1583.04</ele>
  <time>2026-08-28T17:52:34Z</time>
  <course>96.31</course>
  <speed>2.3983536019528064</speed>
  <fix>3d</fix>
</trkpt>
<trkpt lat="40.0713388" lon="-105.229788">
  <ele>1583.0</ele>
  <time>2026-08-28T17:52:34Z</time>
  <course>99.94</course>
  <speed>2.09</speed>
  <fix>3d</fix>
</trkpt>
<trkpt lat="40.0713379" lon="-105.2297777">
  <ele>1583.04</ele>
  <time>2026-08-28T17:52:34Z</time>
  <course>94.94</course>
  <speed>2.4945139807184886</speed>
  <fix>3d</fix>
</trkpt>
<trkpt lat="40.0713382" lon="-105.2297829">
  <ele>1583.0</ele>
  <time>2026-08-28T17:52:34Z</time>
  <course>96.08</course>
  <speed>2.29</speed>
  <fix>3d</fix>
</trkpt>
<trkpt lat="40.0713378" lon="-105.2297747">
  <ele>1583.04</ele>
  <time>2026-08-28T17:52:34Z</time>
  <course>93.78</course>
  <speed>2.5919297829995314</speed>
  <fix>3d</fix>
</trkpt>
<trkpt lat="40.0713382" lon="-105.2297829">
  <ele>1583.0</ele>
  <time>2026-08-28T17:52:34Z</time>
  <course>96.08</course>
  <speed>2.29</speed>
  <fix>3d</fix>
</trkpt>
<trkpt lat="40.0713378" lon="-105.2297716">
  <ele>1583.04</ele>
  <time>2026-08-28T17:52:34Z</time>
  <course>92.77</course>
  <speed>2.7006665843824553</speed>
  <fix>3d</fix>
</trkpt>
<trkpt lat="40.0713379" lon="-105.2297772">
  <ele>1583.0</ele>
  <time>2026-08-28T17:52:34Z</time>
  <course>93.28</course>
  <speed>2.49</speed>
  <fix>3d</fix>
</trkpt>
<trkpt lat="40.0713377" lon="-105.2297683">
  <ele>1583.05</ele>
  <time>2026-08-28T17:52:34Z</time>
  <course>91.93</course>
  <speed>2.800071427660373</speed>
  <fix>3d</fix>
</trkpt>
<trkpt lat="40.0713379" lon="-105.2297772">
  <ele>1583.0</ele>
  <time>2026-08-28T17:52:34Z</time>
  <course>93.28</course>
  <speed>2.49</speed>
  <fix>3d</fix>
</trkpt>
<trkpt lat="40.0713377" lon="-105.229765">
  <ele>1583.05</ele>
  <time>2026-08-28T17:52:34Z</time>
  <course>91.23</course>
  <speed>2.900017241328058</speed>
  <fix>3d</fix>
</trkpt>
<trkpt lat="40.0713377" lon="-105.2297711">
  <ele>1583.0</ele>
  <time>2026-08-28T17:52:34Z</time>
  <course>91.25</course>
  <speed>2.69</speed>
  <fix>3d</fix>
</trkpt>
<trkpt lat="40.0713378" lon="-105.2297615">
  <ele>1583.05</ele>
  <time>2026-08-28T17:52:34Z</time>
  <course>90.67</course>
  <speed>3.000266654815868</speed>
  <fix>3d</fix>
</trkpt>
<trkpt lat="40.0713377" lon="-105.2297711">
  <ele>1583.0</ele>
  <time>2026-08-28T17:52:34Z</time>
  <course>91.25</course>
  <speed>2.69</speed>
  <fix>3d</fix>
</trkpt>
<trkpt lat="40.0713378" lon="-105.2297579">
  <ele>1583.05</ele>
  <time>2026-08-28T17:52:34Z</time>
  <course>90.19</course>
  <speed>3.0805843601498726</speed>
  <fix>3d</fix>
</trkpt>
<trkpt lat="40.0713377" lon="-105.2297646">
  <ele>1583.0</ele>
  <time>2026-08-28T17:52:34Z</time>
  <course>89.82</course>
  <speed>2.88</speed>
  <fix>3d</fix>
</trkpt>
<trkpt lat="40.0713378" lon="-105.2297542">
  <ele>1583.06</ele>
  <time>2026-08-28T17:52:34Z</time>
  <course>89.79</course>
  <speed>3.1312936623702354</speed>
  <fix>3d</fix>
</trkpt>
<trkpt lat="40.0713377" lon="-105.2297646">
  <ele>1583.0</ele>
  <time>2026-08-28T17:52:34Z</time>
  <course>89.82</course>
  <speed>2.88</speed>
  <fix>3d</fix>
</trkpt>
<trkpt lat="40.0713379" lon="-105.2297505">
  <ele>1583.06</ele>
  <time>2026-08-28T17:52:34Z</time>
  <course>89.46</course>
  <speed>3.1519200497474547</speed>
  <fix>3d</fix>
</trkpt>
<trkpt lat="40.0713377" lon="-105.2297576">
  <ele>1583.0</ele>
  <time>2026-08-28T17:52:34Z</time>
  <course>88.84</course>
  <speed>3.03</speed>
  <fix>3d</fix>
</trkpt>
<trkpt lat="40.071338" lon="-105.2297468">
  <ele>1583.06</ele>
  <time>2026-08-28T17:52:34Z</time>
  <course>89.19</course>
  <speed>3.1626729201736934</speed>
  <fix>3d</fix>
</trkpt>
<trkpt lat="40.0713377" lon="-105.2297576">
  <ele>1583.0</ele>
  <time>2026-08-28T17:52:34Z</time>
  <course>88.84</course>
  <speed>3.03</speed>
  <fix>3d</fix>
</trkpt>
<trkpt lat="40.0713381" lon="-105.2297431">
  <ele>1583.06</ele>
  <time>2026-08-28T17:52:34Z</time>
  <course>88.97</course>
  <speed>3.143119469571591</speed>
  <fix>3d</fix>
</trkpt>
<trkpt lat="40.0713378" lon="-105.2297504">
  <ele>1583.0</ele>
  <time>2026-08-28T17:52:34Z</time>
  <course>88.16</course>
  <speed>3.09</speed>
  <fix>3d</fix>
</trkpt>
<trkpt lat="40.0713382" lon="-105.2297394">
  <ele>1583.06</ele>
  <time>2026-08-28T17:52:34Z</time>
  <course>88.8</course>
  <speed>3.1036269105676992</speed>
  <fix>3d</fix>
</trkpt>
<trkpt lat="40.0713378" lon="-105.2297504">
  <ele>1583.0</ele>
  <time>2026-08-28T17:52:34Z</time>
  <course>88.16</course>
  <speed>3.09</speed>
  <fix>3d</fix>
</trkpt>
<trkpt lat="40.0713384" lon="-105.2297358">
  <ele>1583.06</ele>
  <time>2026-08-28T17:52:34Z</time>
  <course>88.67</course>
  <speed>3.0541938379873663</speed>
  <fix>3d</fix>
</trkpt>
<trkpt lat="40.0713381" lon="-105.2297432">
  <ele>1583.0</ele>
  <time>2026-08-28T17:52:34Z</time>
  <course>87.71</course>
  <speed>3.07</speed>
  <fix>3d</fix>
</trkpt>
<trkpt lat="40.0713385" lon="-105.2297323">
  <ele>1583.06</ele>
  <time>2026-08-28T17:52:34Z</time>
  <course>88.59</course>
  <speed>2.984292210893565</speed>
  <fix>3d</fix>
</trkpt>
<trkpt lat="40.0713381" lon="-105.2297432">
  <ele>1583.0</ele>
  <time>2026-08-28T17:52:34Z</time>
  <course>87.71</course>
  <speed>3.07</speed>
  <fix>3d</fix>
</trkpt>
<trkpt lat="40.0713386" lon="-105.2297289">
  <ele>1583.06</ele>
  <time>2026-08-28T17:52:34Z</time>
  <course>88.53</course>
  <speed>2.904410439314664</speed>
  <fix>3d</fix>
</trkpt>
<trkpt lat="40.0713382" lon="-105.2297361">
  <ele>1583.0</ele>
  <time>2026-08-28T17:52:34Z</time>
  <course>87.44</course>
  <speed>2.97</speed>
  <fix>3d</fix>
</trkpt>
<trkpt lat="40.0713388" lon="-105.2297256">
  <ele>1583.06</ele>
  <time>2026-08-28T17:52:34Z</time>
  <course>88.49</course>
  <speed>2.814551474036316</speed>
  <fix>3d</fix>
</trkpt>
<trkpt lat="40.0713382" lon="-105.2297361">
  <ele>1583.0</ele>
  <time>2026-08-28T17:52:34Z</time>
  <course>87.44</course>
  <speed>2.97</speed>
  <fix>3d</fix>
</trkpt>
<trkpt lat="40.0713389" lon="-105.2297224">
  <ele>1583.06</ele>
  <time>2026-08-28T17:52:34Z</time>
  <course>88.48</course>
  <speed>2.7247018185482244</speed>
  <fix>3d</fix>
</trkpt>
<trkpt lat="40.0713385" lon="-105.2297293">
  <ele>1583.0</ele>
  <time>2026-08-28T17:52:34Z</time>
  <course>87.3</course>
  <speed>2.82</speed>
  <fix>3d</fix>
</trkpt>
<trkpt lat="40.071339" lon="-105.2297194">
  <ele>1583.06</ele>
  <time>2026-08-28T17:52:34Z</time>
  <course>88.48</course>
  <speed>2.6148996156640503</speed>
  <fix>3d</fix>
</trkpt>
<trkpt lat="40.0713385" lon="-105.2297293">
  <ele>1583.0</ele>
  <time>2026-08-28T17:52:34Z</time>
  <course>87.3</course>
  <speed>2.82</speed>
  <fix>3d</fix>
</trkpt>
<trkpt lat="40.0713391" lon="-105.2297165">
  <ele>1583.05</ele>
  <time>2026-08-28T17:52:34Z</time>
  <course>88.48</course>
  <speed>2.5144780770569466</speed>
  <fix>3d</fix>
</trkpt>
<trkpt lat="40.0713388" lon="-105.2297228">
  <ele>1583.0</ele>
  <time>2026-08-28T17:52:34Z</time>
  <course>87.25</course>
  <speed>2.64</speed>
  <fix>3d</fix>
</trkpt>
<trkpt lat="40.0713392" lon="-105.2297137">
  <ele>1583.05</ele>
  <time>2026-08-28T17:52:34Z</time>
  <course>88.48</course>
  <speed>2.4046829312822093</speed>
  <fix>3d</fix>
</trkpt>
<trkpt lat="40.0713388" lon="-105.2297228">
  <ele>1583.0</ele>
  <time>2026-08-28T17:52:34Z</time>
  <course>87.25</course>
  <speed>2.64</speed>
  <fix>3d</fix>
</trkpt>
<trkpt lat="40.0713393" lon="-105.2297111">
  <ele>1583.05</ele>
  <time>2026-08-28T17:52:34Z</time>
  <course>88.48</course>
  <speed>2.2949074055394916</speed>
  <fix>3d</fix>
</trkpt>
<trkpt lat="40.0713389" lon="-105.2297168">
  <ele>1583.0</ele>
  <time>2026-08-28T17:52:34Z</time>
  <course>87.25</course>
  <speed>2.44</speed>
  <fix>3d</fix>
</trkpt>
<trkpt lat="40.0713394" lon="-105.2297085">
  <ele>1583.05</ele>
  <time>2026-08-28T17:52:34Z</time>
  <course>88.48</course>
  <speed>2.1944703233354512</speed>
  <fix>3d</fix>
</trkpt>
<trkpt lat="40.0713389" lon="-105.2297168">
  <ele>1583.0</ele>
  <time>2026-08-28T17:52:34Z</time>
  <course>87.25</course>
  <speed>2.44</speed>
  <fix>3d</fix>
</trkpt>
<trkpt lat="40.0713395" lon="-105.2297061">
  <ele>1583.05</ele>
  <time>2026-08-28T17:52:34Z</time>
  <course>88.5</course>
  <speed>2.0946837470128994</speed>
  <fix>3d</fix>
</trkpt>
<trkpt lat="40.0713392" lon="-105.2297113">
  <ele>1583.0</ele>
  <time>2026-08-28T17:52:34Z</time>
  <course>87.26</course>
  <speed>2.24</speed>
  <fix>3d</fix>
</trkpt>
<trkpt lat="40.0713396" lon="-105.2297038">
  <ele>1583.05</ele>
  <time>2026-08-28T17:52:34Z</time>
  <course>88.53</course>
  <speed>1.9942417105255823</speed>
  <fix>3d</fix>
</trkpt>
<trkpt lat="40.0713392" lon="-105.2297113">
  <ele>1583.0</ele>
  <time>2026-08-28T17:52:34Z</time>
  <course>87.26</course>
  <speed>2.24</speed>
  <fix>3d</fix>
</trkpt>
<trkpt lat="40.0713397" lon="-105.2297015">
  <ele>1583.05</ele>
  <time>2026-08-28T17:52:34Z</time>
  <course>88.55</course>
  <speed>1.903785702225962</speed>
  <fix>3d</fix>
</trkpt>
<trkpt lat="40.0713394" lon="-105.2297062">
  <ele>1583.0</ele>
  <time>2026-08-28T17:52:34Z</time>
  <course>87.3</course>
  <speed>2.06</speed>
  <fix>3d</fix>
</trkpt>
<trkpt lat="40.0713398" lon="-105.2296994">
  <ele>1583.05</ele>
  <time>2026-08-28T17:52:34Z</time>
  <course>88.56</course>
  <speed>1.8239517537478889</speed>
  <fix>3d</fix>
</trkpt>
<trkpt lat="40.0713394" lon="-105.2297062">
  <ele>1583.0</ele>
  <time>2026-08-28T17:52:34Z</time>
  <course>87.3</course>
  <speed>2.06</speed>
  <fix>3d</fix>
</trkpt>
<trkpt lat="40.0713399" lon="-105.2296974">
  <ele>1583.05</ele>
  <time>2026-08-28T17:52:34Z</time>
  <course>88.58</course>
  <speed>1.7434735443934903</speed>
  <fix>3d</fix>
</trkpt>
<trkpt lat="40.0713395" lon="-105.2297016">
  <ele>1583.0</ele>
  <time>2026-08-28T17:52:34Z</time>
  <course>87.35</course>
  <speed>1.88</speed>
  <fix>3d</fix>
</trkpt>
<trkpt lat="40.0713399" lon="-105.2296954">
  <ele>1583.05</ele>
  <time>2026-08-28T17:52:34Z</time>
  <course>88.59</course>
  <speed>1.6736188335460378</speed>
  <fix>3d</fix>
</trkpt>
<trkpt lat="40.0713395" lon="-105.2297016">
  <ele>1583.0</ele>
  <time>2026-08-28T17:52:34Z</time>
  <course>87.35</course>
  <speed>1.88</speed>
  <fix>3d</fix>
</trkpt>
<trkpt lat="40.07134" lon="-105.2296935">
  <ele>1583.05</ele>
  <time>2026-08-28T17:52:34Z</time>
  <course>88.6</course>
  <speed>1.6031219541881399</speed>
  <fix>3d</fix>
</trkpt>
<trkpt lat="40.0713396" lon="-105.2296974">
  <ele>1583.0</ele>
  <time>2026-08-28T17:52:34Z</time>
  <course>87.4</course>
  <speed>1.73</speed>
  <fix>3d</fix>
</trkpt>
<trkpt lat="40.0713401" lon="-105.2296917">
  <ele>1583.05</ele>
  <time>2026-08-28T17:52:34Z</time>
  <course>88.6</course>
  <speed>1.543243337908834</speed>
  <fix>3d</fix>
</trkpt>
<trkpt lat="40.0713396" lon="-105.2296974">
  <ele>1583.0</ele>
  <time>2026-08-28T17:52:34Z</time>
  <course>87.4</course>
  <speed>1.73</speed>
  <fix>3d</fix>
</trkpt>
<trkpt lat="40.0713401" lon="-105.2296899">
  <ele>1583.04</ele>
  <time>2026-08-28T17:52:34Z</time>
  <course>88.59</course>
  <speed>1.4927156460625712</speed>
  <fix>3d</fix>
</trkpt>
<trkpt lat="40.0713398" lon="-105.2296935">
  <ele>1583.0</ele>
  <time>2026-08-28T17:52:34Z</time>
  <course>87.44</course>
  <speed>1.61</speed>
  <fix>3d</fix>
</trkpt>
<trkpt lat="40.0713402" lon="-105.2296881">
  <ele>1583.04</ele>
  <time>2026-08-28T17:52:34Z</time>
  <course>88.58</course>
  <speed>1.4428097587693258</speed>
  <fix>3d</fix>
</trkpt>
<trkpt lat="40.0713398" lon="-105.2296935">
  <ele>1583.0</ele>
  <time>2026-08-28T17:52:34Z</time>
  <course>87.44</course>
  <speed>1.61</speed>
  <fix>3d</fix>
</trkpt>
<trkpt lat="40.0713402" lon="-105.2296865">
  <ele>1583.04</ele>
  <time>2026-08-28T17:52:34Z</time>
  <course>88.57</course>
  <speed>1.4028898745090437</speed>
  <fix>3d</fix>
</trkpt>
<trkpt lat="40.0713399" lon="-105.2296898">
  <ele>1583.0</ele>
  <time>2026-08-28T17:52:34Z</time>
  <course>87.45</course>
  <speed>1.5</speed>
  <fix>3d</fix>
</trkpt>
<trkpt lat="40.0713403" lon="-105.2296848">
  <ele>1583.04</ele>
  <time>2026-08-28T17:52:34Z</time>
  <course>88.56</course>
  <speed>1.3623509092741122</speed>
  <fix>3d</fix>
</trkpt>
<trkpt lat="40.0713399" lon="-105.2296898">
  <ele>1583.0</ele>
  <time>2026-08-28T17:52:34Z</time>
  <course>87.45</course>
  <speed>1.5</speed>
  <fix>3d</fix>
</trkpt>
<trkpt lat="40.0713403" lon="-105.2296833">
  <ele>1583.03</ele>
  <time>2026-08-28T17:52:34Z</time>
  <course>88.55</course>
  <speed>1.3324038426843419</speed>
  <fix>3d</fix>
</trkpt>
<trkpt lat="40.07134" lon="-105.2296864">
  <ele>1583.0</ele>
  <time>2026-08-28T17:52:34Z</time>
  <course>87.45</course>
  <speed>1.42</speed>
  <fix>3d</fix>
</trkpt>
<trkpt lat="40.0713403" lon="-105.2296817">
  <ele>1583.03</ele>
  <time>2026-08-28T17:52:34Z</time>
  <course>88.52</course>
  <speed>1.3024592124131948</speed>
  <fix>3d</fix>
</trkpt>
<trkpt lat="40.07134" lon="-105.2296864">
  <ele>1583.0</ele>
  <time>2026-08-28T17:52:34Z</time>
  <course>87.45</course>
  <speed>1.42</speed>
  <fix>3d</fix>
</trkpt>
<trkpt lat="40.0713404" lon="-105.2296802">
  <ele>1583.03</ele>
  <time>2026-08-28T17:52:34Z</time>
  <course>88.49</course>
  <speed>1.28191263352851</speed>
  <fix>3d</fix>
</trkpt>
<trkpt lat="40.0713401" lon="-105.2296832">
  <ele>1583.0</ele>
  <time>2026-08-28T17:52:34Z</time>
  <course>87.44</course>
  <speed>1.36</speed>
  <fix>3d</fix>
</trkpt>
<trkpt lat="40.0713404" lon="-105.2296787">
  <ele>1583.03</ele>
  <time>2026-08-28T17:52:34Z</time>
  <course>88.45</course>
  <speed>1.2619429464123961</speed>
  <fix>3d</fix>
</trkpt>
<trkpt lat="40.0713401" lon="-105.2296832">
  <ele>1583.0</ele>
  <time>2026-08-28T17:52:34Z</time>
  <course>87.44</course>
  <speed>1.36</speed>
  <fix>3d</fix>
</trkpt>
<trkpt lat="40.0713405" lon="-105.2296772">
  <ele>1583.02</ele>
  <time>2026-08-28T17:52:34Z</time>
  <course>88.41</course>
  <speed>1.241974234837422</speed>
  <fix>3d</fix>
</trkpt>
<trkpt lat="40.0713402" lon="-105.22968">
  <ele>1583.0</ele>
  <time>2026-08-28T17:52:34Z</time>
  <course>87.4</course>
  <speed>1.31</speed>
  <fix>3d</fix>
</trkpt>
<trkpt lat="40.0713405" lon="-105.2296757">
  <ele>1583.02</ele>
  <time>2026-08-28T17:52:34Z</time>
  <course>88.35</course>
  <speed>1.2220065466273085</speed>
  <fix>3d</fix>
</trkpt>
<trkpt lat="40.0713402" lon="-105.22968">
  <ele>1583.0</ele>
  <time>2026-08-28T17:52:34Z</time>
  <course>87.4</course>
  <speed>1.31</speed>
  <fix>3d</fix>
</trkpt>
<trkpt lat="40.0713405" lon="-105.2296743">
  <ele>1583.02</ele>
  <time>2026-08-28T17:52:34Z</time>
  <course>88.29</course>
  <speed>1.2114866899805379</speed>
  <fix>3d</fix>
</trkpt>
<trkpt lat="40.0713403" lon="-105.229677">
  <ele>1583.0</ele>
  <time>2026-08-28T17:52:34Z</time>
  <course>87.33</course>
  <speed>1.28</speed>
  <fix>3d</fix>
</trkpt>
<trkpt lat="40.0713406" lon="-105.2296729">
  <ele>1583.01</ele>
  <time>2026-08-28T17:52:34Z</time>
  <course>88.22</course>
  <speed>1.1915116449284078</speed>
  <fix>3d</fix>
</trkpt>
<trkpt lat="40.0713403" lon="-105.229677">
  <ele>1583.0</ele>
  <time>2026-08-28T17:52:34Z</time>
  <course>87.33</course>
  <speed>1.28</speed>
  <fix>3d</fix>
</trkpt>
<trkpt lat="40.0713406" lon="-105.2296715">
  <ele>1583.01</ele>
  <time>2026-08-28T17:52:34Z</time>
  <course>88.15</course>
  <speed>1.1815244390193544</speed>
  <fix>3d</fix>
</trkpt>
<trkpt lat="40.0713405" lon="-105.2296739">
  <ele>1583.0</ele>
  <time>2026-08-28T17:52:34Z</time>
  <course>87.22</course>
  <speed>1.25</speed>
  <fix>3d</fix>
</trkpt>
<trkpt lat="40.0713406" lon="-105.2296701">
  <ele>1583.01</ele>
  <time>2026-08-28T17:52:34Z</time>
  <course>88.06</course>
  <speed>1.1715374513859982</speed>
  <fix>3d</fix>
</trkpt>
<trkpt lat="40.0713405" lon="-105.2296739">
  <ele>1583.0</ele>
  <time>2026-08-28T17:52:34Z</time>
  <course>87.22</course>
  <speed>1.25</speed>
  <fix>3d</fix>
</trkpt>
<trkpt lat="40.0713407" lon="-105.2296687">
  <ele>1583.01</ele>
  <time>2026-08-28T17:52:34Z</time>
  <course>87.97</course>
  <speed>1.1615506876585284</speed>
  <fix>3d</fix>
</trkpt>
<trkpt lat="40.0713406" lon="-105.229671">
  <ele>1583.0</ele>
  <time>2026-08-28T17:52:34Z</time>
  <course>87.08</course>
  <speed>1.23</speed>
  <fix>3d</fix>
</trkpt>
<trkpt lat="40.0713407" lon="-105.2296673">
  <ele>1583.0</ele>
  <time>2026-08-28T17:52:34Z</time>
  <course>87.87</course>
  <speed>1.1515641536623134</speed>
  <fix>3d</fix>
</trkpt>
<trkpt lat="40.0713406" lon="-105.229671">
  <ele>1583.0</ele>
  <time>2026-08-28T17:52:34Z</time>
  <course>87.08</course>
  <speed>1.23</speed>
  <fix>3d</fix>
</trkpt>
<trkpt lat="40.0713408" lon="-105.2296659">
  <ele>1583.0</ele>
  <time>2026-08-28T17:52:34Z</time>
  <course>87.77</course>
  <speed>1.1415778554264269</speed>
  <fix>3d</fix>
</trkpt>
<trkpt lat="40.0713407" lon="-105.2296681">
  <ele>1583.0</ele>
  <time>2026-08-28T17:52:34Z</time>
  <course>86.91</course>
  <speed>1.21</speed>
  <fix>3d</fix>
</trkpt>
<trkpt lat="40.0713408" lon="-105.2296645">
  <ele>1582.99</ele>
  <time>2026-08-28T17:52:34Z</time>
  <course>87.66</course>
  <speed>1.131591799192624</speed>
  <fix>3d</fix>
</trkpt>
<trkpt lat="40.0713407" lon="-105.2296681">
  <ele>1583.0</ele>
  <time>2026-08-28T17:52:34Z</time>
  <course>86.91</course>
  <speed>1.21</speed>
  <fix>3d</fix>
</trkpt>
<trkpt lat="40.0713409" lon="-105.2296631">
  <ele>1582.99</ele>
  <time>2026-08-28T17:52:34Z</time>
  <course>87.54</course>
  <speed>1.1216059914247962</speed>
  <fix>3d</fix>
</trkpt>
<trkpt lat="40.0713408" lon="-105.2296653">
  <ele>1583.0</ele>
  <time>2026-08-28T17:52:34Z</time>
  <course>86.71</course>
  <speed>1.18</speed>
  <fix>3d</fix>
</trkpt>
<trkpt lat="40.0713409" lon="-105.2296618">
  <ele>1582.99</ele>
  <time>2026-08-28T17:52:34Z</time>
  <course>87.41</course>
  <speed>1.1016351483136329</speed>
  <fix>3d</fix>
</trkpt>
<trkpt lat="40.0713408" lon="-105.2296653">
  <ele>1583.0</ele>
  <time>2026-08-28T17:52:34Z</time>
  <course>86.71</course>
  <speed>1.18</speed>
  <fix>3d</fix>
</trkpt>
<trkpt lat="40.071341" lon="-105.2296604">
  <ele>1582.99</ele>
  <time>2026-08-28T17:52:34Z</time>
  <course>87.28</course>
  <speed>1.0916501271011696</speed>
  <fix>3d</fix>
</trkpt>
<trkpt lat="40.0713409" lon="-105.2296626">
  <ele>1583.0</ele>
  <time>2026-08-28T17:52:34Z</time>
  <course>86.49</course>
  <speed>1.16</speed>
  <fix>3d</fix>
</trkpt>
<trkpt lat="40.0713411" lon="-105.2296591">
  <ele>1582.99</ele>
  <time>2026-08-28T17:52:34Z</time>
  <course>87.14</course>
  <speed>1.0816653826391969</speed>
  <fix>3d</fix>
</trkpt>
<trkpt lat="40.0713409" lon="-105.2296626">
  <ele>1583.0</ele>
  <time>2026-08-28T17:52:34Z</time>
  <course>86.49</course>
  <speed>1.16</speed>
  <fix>3d</fix>
</trkpt>
<trkpt lat="40.0713411" lon="-105.2296578">
  <ele>1582.99</ele>
  <time>2026-08-28T17:52:34Z</time>
  <course>86.98</course>
  <speed>1.0616967551989598</speed>
  <fix>3d</fix>
</trkpt>
<trkpt lat="40.0713411" lon="-105.2296599">
  <ele>1583.0</ele>
  <time>2026-08-28T17:52:34Z</time>
  <course>86.22</course>
  <speed>1.14</speed>
  <fix>3d</fix>
</trkpt>
<trkpt lat="40.0713412" lon="-105.2296565">
  <ele>1583.0</ele>
  <time>2026-08-28T17:52:34Z</time>
  <course>86.82</course>
  <speed>1.0517128885774862</speed>
  <fix>3d</fix>
</trkpt>
<trkpt lat="40.0713411" lon="-105.2296599">
  <ele>1583.0</ele>
  <time>2026-08-28T17:52:34Z</time>
  <course>86.22</course>
  <speed>1.14</speed>
  <fix>3d</fix>
</trkpt>
<trkpt lat="40.0713412" lon="-105.2296552">
  <ele>1583.0</ele>
  <time>2026-08-28T17:52:34Z</time>
  <course>86.65</course>
  <speed>1.031746092796091</speed>
  <fix>3d</fix>
</trkpt>
<trkpt lat="40.0713412" lon="-105.2296572">
  <ele>1583.0</ele>
  <time>2026-08-28T17:52:34Z</time>
  <course>85.93</course>
  <speed>1.11</speed>
  <fix>3d</fix>
</trkpt>
<trkpt lat="40.0713413" lon="-105.2296539">
  <ele>1583.0</ele>
  <time>2026-08-28T17:52:34Z</time>
  <course>86.47</course>
  <speed>1.0117806086301515</speed>
  <fix>3d</fix>
</trkpt>
<trkpt lat="40.0713412" lon="-105.2296572">
  <ele>1583.0</ele>
  <time>2026-08-28T17:52:34Z</time>
  <course>85.93</course>
  <speed>1.11</speed>
  <fix>3d</fix>
</trkpt>
<trkpt lat="40.0713414" lon="-105.2296527">
  <ele>1583.0</ele>
  <time>2026-08-28T17:52:34Z</time>
  <course>86.28</course>
  <speed>0.9924716620639604</speed>
  <fix>3d</fix>
</trkpt>
<trkpt lat="40.0713413" lon="-105.2296547">
  <ele>1583.0</ele>
  <time>2026-08-28T17:52:34Z</time>
  <course>85.59</course>
  <speed>1.07</speed>
  <fix>3d</fix>
</trkpt>
<trkpt lat="40.0713414" lon="-105.2296515">
  <ele>1583.0</ele>
  <time>2026-08-28T17:52:34Z</time>
  <course>86.08</course>
  <speed>0.9824968193332739</speed>
  <fix>3d</fix>
</trkpt>
<trkpt lat="40.0713413" lon="-105.2296547">
  <ele>1583.0</ele>
  <time>2026-08-28T17:52:34Z</time>
  <course>85.59</course>
  <speed>1.07</speed>
  <fix>3d</fix>
</trkpt>
<trkpt lat="40.0713415" lon="-105.2296503">
  <ele>1582.99</ele>
  <time>2026-08-28T17:52:34Z</time>
  <course>85.87</course>
  <speed>0.9625487000666512</speed>
  <fix>3d</fix>
</trkpt>
<trkpt lat="40.0713415" lon="-105.2296522">
  <ele>1583.0</ele>
  <time>2026-08-28T17:52:34Z</time>
  <course>85.21</course>
  <speed>1.04</speed>
  <fix>3d</fix>
</trkpt>
<trkpt lat="40.0713416" lon="-105.2296491">
  <ele>1582.99</ele>
  <time>2026-08-28T17:52:34Z</time>
  <course>85.65</course>
  <speed>0.9426027795418386</speed>
  <fix>3d</fix>
</trkpt>
<trkpt lat="40.0713415" lon="-105.2296522">
  <ele>1583.0</ele>
  <time>2026-08-28T17:52:34Z</time>
  <course>85.21</course>
  <speed>1.04</speed>
  <fix>3d</fix>
</trkpt>
<trkpt lat="40.0713417" lon="-105.229648">
  <ele>1582.99</ele>
  <time>2026-08-28T17:52:34Z</time>
  <course>85.69</course>
  <speed>0.9226592003551474</speed>
  <fix>3d</fix>
</trkpt>
<trkpt lat="40.0713417" lon="-105.2296498">
  <ele>1583.0</ele>
  <time>2026-08-28T17:52:34Z</time>
  <course>84.82</course>
  <speed>1.0</speed>
  <fix>3d</fix>
</trkpt>
<trkpt lat="40.0713417" lon="-105.2296469">
  <ele>1582.99</ele>
  <time>2026-08-28T17:52:34Z</time>
  <course>85.83</course>
  <speed>0.931933474020544</speed>
  <fix>3d</fix>
</trkpt>
<trkpt lat="40.0713417" lon="-105.2296498">
  <ele>1583.0</ele>
  <time>2026-08-28T17:52:34Z</time>
  <course>84.82</course>
  <speed>1.0</speed>
  <fix>3d</fix>
</trkpt>
<trkpt lat="40.0713418" lon="-105.2296458">
  <ele>1582.99</ele>
  <time>2026-08-28T17:52:34Z</time>
  <course>85.89</course>
  <speed>0.931933474020544</speed>
  <fix>3d</fix>
</trkpt>
<trkpt lat="40.0713418" lon="-105.2296475">
  <ele>1583.0</ele>
  <time>2026-08-28T17:52:34Z</time>
  <course>84.77</course>
  <speed>0.98</speed>
  <fix>3d</fix>
</trkpt>
<trkpt lat="40.0713419" lon="-105.2296446">
  <ele>1582.99</ele>
  <time>2026-08-28T17:52:34Z</time>
  <course>85.69</course>
  <speed>0.931933474020544</speed>
  <fix>3d</fix>
</trkpt>
<trkpt lat="40.0713418" lon="-105.2296475">
  <ele>1583.0</ele>
  <time>2026-08-28T17:52:34Z</time>
  <course>84.77</course>
  <speed>0.98</speed>
  <fix>3d</fix>
</trkpt>
<trkpt lat="40.0713419" lon="-105.2296435">
  <ele>1583.0</ele>
  <time>2026-08-28T17:52:34Z</time>
  <course>85.32</course>
  <speed>0.9027181176868004</speed>
  <fix>3d</fix>
</trkpt>
<trkpt lat="40.071342" lon="-105.2296452">
  <ele>1583.0</ele>
  <time>2026-08-28T17:52:34Z</time>
  <course>84.75</course>
  <speed>0.98</speed>
  <fix>3d</fix>
</trkpt>
<trkpt lat="40.071342" lon="-105.2296424">
  <ele>1583.0</ele>
  <time>2026-08-28T17:52:34Z</time>
  <course>84.81</course>
  <speed>0.8728115489611719</speed>
  <fix>3d</fix>
</trkpt>
<trkpt lat="40.071342" lon="-105.2296452">
  <ele>1583.0</ele>
  <time>2026-08-28T17:52:34Z</time>
  <course>84.75</course>
  <speed>0.98</speed>
  <fix>3d</fix>
</trkpt>
<trkpt lat="40.0713421" lon="-105.2296414">
  <ele>1583.0</ele>
  <time>2026-08-28T17:52:34Z</time>
  <course>84.15</course>
  <speed>0.8238931969618392</speed>
  <fix>3d</fix>
</trkpt>
<trkpt lat="40.0713421" lon="-105.229643">
  <ele>1583.0</ele>
  <time>2026-08-28T17:52:34Z</time>
  <course>84.1</course>
  <speed>0.94</speed>
  <fix>3d</fix>
</trkpt>
<trkpt lat="40.0713422" lon="-105.2296404">
  <ele>1583.0</ele>
  <time>2026-08-28T17:52:34Z</time>
  <course>83.37</course>
  <speed>0.764198926981712</speed>
  <fix>3d</fix>
</trkpt>
<trkpt lat="40.0713421" lon="-105.229643">
  <ele>1583.0</ele>
  <time>2026-08-28T17:52:34Z</time>
  <course>84.1</course>
  <speed>0.94</speed>
  <fix>3d</fix>
</trkpt>
<trkpt lat="40.0713423" lon="-105.2296395">
  <ele>1583.0</ele>
  <time>2026-08-28T17:52:34Z</time>
  <course>82.49</course>
  <speed>0.6946221994724903</speed>
  <fix>3d</fix>
</trkpt>
<trkpt lat="40.0713424" lon="-105.2296408">
  <ele>1583.0</ele>
  <time>2026-08-28T17:52:34Z</time>
  <course>82.86</course>
  <speed>0.84</speed>
  <fix>3d</fix>
</trkpt>
<trkpt lat="40.0713424" lon="-105.2296387">
  <ele>1583.0</ele>
  <time>2026-08-28T17:52:34Z</time>
  <course>81.54</course>
  <speed>0.6053098380168622</speed>
  <fix>3d</fix>
</trkpt>
<trkpt lat="40.0713424" lon="-105.2296408">
  <ele>1583.0</ele>
  <time>2026-08-28T17:52:34Z</time>
  <course>82.86</course>
  <speed>0.84</speed>
  <fix>3d</fix>
</trkpt>
<trkpt lat="40.0713425" lon="-105.229638">
  <ele>1583.0</ele>
  <time>2026-08-28T17:52:34Z</time>
  <course>80.57</course>
  <speed>0.5162363799656123</speed>
  <fix>3d</fix>
</trkpt>
<trkpt lat="40.0713425" lon="-105.229639">
  <ele>1583.0</ele>
  <time>2026-08-28T17:52:34Z</time>
  <course>81.2</course>
  <speed>0.7</speed>
  <fix>3d</fix>
</trkpt>
<trkpt lat="40.0713426" lon="-105.2296374">
  <ele>1583.0</ele>
  <time>2026-08-28T17:52:34Z</time>
  <course>79.61</course>
  <speed>0.42579337712087534</speed>
  <fix>3d</fix>
</trkpt>
<trkpt lat="40.0713425" lon="-105.229639">
  <ele>1583.0</ele>
  <time>2026-08-28T17:52:34Z</time>
  <course>81.2</course>
  <speed>0.7</speed>
  <fix>3d</fix>
</trkpt>
<trkpt lat="40.0713427" lon="-105.2296369">
  <ele>1583.0</ele>
  <time>2026-08-28T17:52:34Z</time>
  <course>78.7</course>
  <speed>0.34525353003264136</speed>
  <fix>3d</fix>
</trkpt>
<trkpt lat="40.0713427" lon="-105.2296375">
  <ele>1583.0</ele>
  <time>2026-08-28T17:52:34Z</time>
  <course>79.36</course>
  <speed>0.54</speed>
  <fix>3d</fix>
</trkpt>
<trkpt lat="40.0713427" lon="-105.2296365">
  <ele>1583.01</ele>
  <time>2026-08-28T17:52:34Z</time>
  <course>77.85</course>
  <speed>0.28442925306655786</speed>
  <fix>3d</fix>
</trkpt>
<trkpt lat="40.0713427" lon="-105.2296375">
  <ele>1583.0</ele>
  <time>2026-08-28T17:52:34Z</time>
  <course>79.36</course>
  <speed>0.54</speed>
  <fix>3d</fix>
</trkpt>
<trkpt lat="40.0713428" lon="-105.2296362">
  <ele>1583.01</ele>
  <time>2026-08-28T17:52:34Z</time>
  <course>77.05</course>
  <speed>0.2353720459187964</speed>
  <fix>3d</fix>
</trkpt>
<trkpt lat="40.0713429" lon="-105.2296365">
  <ele>1583.0</ele>
  <time>2026-08-28T17:52:34Z</time>
  <course>77.53</course>
  <speed>0.38</speed>
  <fix>3d</fix>
</trkpt>
<trkpt lat="40.0713429" lon="-105.2296359">
  <ele>1583.01</ele>
  <time>2026-08-28T17:52:34Z</time>
  <course>76.3</course>
  <speed>0.194164878389476</speed>
  <fix>3d</fix>
</trkpt>
<trkpt lat="40.0713429" lon="-105.2296365">
  <ele>1583.0</ele>
  <time>2026-08-28T17:52:34Z</time>
  <course>77.53</course>
  <speed>0.38</speed>
  <fix>3d</fix>
</trkpt>
<trkpt lat="40.0713429" lon="-105.2296356">
  <ele>1583.01</ele>
  <time>2026-08-28T17:52:34Z</time>
  <course>75.58</course>
  <speed>0.17464249196572978</speed>
  <fix>3d</fix>
</trkpt>
<trkpt lat="40.071343" lon="-105.2296358">
  <ele>1583.0</ele>
  <time>2026-08-28T17:52:34Z</time>
  <course>75.88</course>
  <speed>0.28</speed>
  <fix>3d</fix>
</trkpt>
<trkpt lat="40.071343" lon="-105.2296354">
  <ele>1583.02</ele>
  <time>2026-08-28T17:52:34Z</time>
  <course>74.88</course>
  <speed>0.15524174696260024</speed>
  <fix>3d</fix>
</trkpt>
<trkpt lat="40.071343" lon="-105.2296358">
  <ele>1583.0</ele>
  <time>2026-08-28T17:52:34Z</time>
  <course>75.88</course>
  <speed>0.28</speed>
  <fix>3d</fix>
</trkpt>
<trkpt lat="40.071343" lon="-105.2296352">
  <ele>1583.02</ele>
  <time>2026-08-28T17:52:34Z</time>
  <course>74.18</course>
  <speed>0.14317821063276354</speed>
  <fix>3d</fix>
</trkpt>
<trkpt lat="40.0713431" lon="-105.2296352">
  <ele>1583.0</ele>
  <time>2026-08-28T17:52:34Z</time>
  <course>74.37</course>
  <speed>0.22</speed>
  <fix>3d</fix>
</trkpt>
<trkpt lat="40.0713431" lon="-105.229635">
  <ele>1583.02</ele>
  <time>2026-08-28T17:52:34Z</time>
  <course>73.46</course>
  <speed>0.14560219778561037</speed>
  <fix>3d</fix>
</trkpt>
<trkpt lat="40.0713431" lon="-105.2296352">
  <ele>1583.0</ele>
  <time>2026-08-28T17:52:34Z</time>
  <course>74.37</course>
  <speed>0.22</speed>
  <fix>3d</fix>
</trkpt>
<trkpt lat="40.0713431" lon="-105.2296347">
  <ele>1583.03</ele>
  <time>2026-08-28T17:52:34Z</time>
  <course>72.68</course>
  <speed>0.15524174696260024</speed>
  <fix>3d</fix>
</trkpt>
<trkpt lat="40.0713432" lon="-105.2296347">
  <ele>1583.0</ele>
  <time>2026-08-28T17:52:34Z</time>
  <course>72.88</course>
  <speed>0.21</speed>
  <fix>3d</fix>
</trkpt>
<trkpt lat="40.0713432" lon="-105.2296345">
  <ele>1583.03</ele>
  <time>2026-08-28T17:52:34Z</time>
  <course>71.82</course>
  <speed>0.1676305461424021</speed>
  <fix>3d</fix>
</trkpt>
<trkpt lat="40.0713432" lon="-105.2296347">
  <ele>1583.0</ele>
  <time>2026-08-28T17:52:34Z</time>
  <course>72.88</course>
  <speed>0.21</speed>
  <fix>3d</fix>
</trkpt>
<trkpt lat="40.0713433" lon="-105.2296342">
  <ele>1583.03</ele>
  <time>2026-08-28T17:52:34Z</time>
  <course>70.86</course>
  <speed>0.18973665961010278</speed>
  <fix>3d</fix>
</trkpt>
<trkpt lat="40.0713433" lon="-105.2296342">
  <ele>1583.0</ele>
  <time>2026-08-28T17:52:34Z</time>
  <course>71.25</course>
  <speed>0.22</speed>
  <fix>3d</fix>
</trkpt>
<trkpt lat="40.0713433" lon="-105.229634">
  <ele>1583.03</ele>
  <time>2026-08-28T17:52:34Z</time>
  <course>69.77</course>
  <speed>0.21189620100417092</speed>
  <fix>3d</fix>
</trkpt>
<trkpt lat="40.0713433" lon="-105.2296342">
  <ele>1583.0</ele>
  <time>2026-08-28T17:52:34Z</time>
  <course>71.25</course>
  <speed>0.22</speed>
  <fix>3d</fix>
</trkpt>
<trkpt lat="40.0713434" lon="-105.2296336">
  <ele>1583.03</ele>
  <time>2026-08-28T17:52:34Z</time>
  <course>68.51</course>
  <speed>0.24351591323771843</speed>
  <fix>3d</fix>
</trkpt>
<trkpt lat="40.0713435" lon="-105.2296337">
  <ele>1583.0</ele>
  <time>2026-08-28T17:52:34Z</time>
  <course>69.26</course>
  <speed>0.26</speed>
  <fix>3d</fix>
</trkpt>
<trkpt lat="40.0713435" lon="-105.2296333">
  <ele>1583.02</ele>
  <time>2026-08-28T17:52:34Z</time>
  <course>67.05</course>
  <speed>0.2785677655436824</speed>
  <fix>3d</fix>
</trkpt>
<trkpt lat="40.0713435" lon="-105.2296337">
  <ele>1583.0</ele>
  <time>2026-08-28T17:52:34Z</time>
  <course>69.26</course>
  <speed>0.26</speed>
  <fix>3d</fix>
</trkpt>
<trkpt lat="40.0713437" lon="-105.2296329">
  <ele>1583.02</ele>
  <time>2026-08-28T17:52:34Z</time>
  <course>65.39</course>
  <speed>0.3087069808086626</speed>
  <fix>3d</fix>
</trkpt>
<trkpt lat="40.0713437" lon="-105.2296331">
  <ele>1583.0</ele>
  <time>2026-08-28T17:52:34Z</time>
  <course>66.7</course>
  <speed>0.31</speed>
  <fix>3d</fix>
</trkpt>
<trkpt lat="40.0713438" lon="-105.2296325">
  <ele>1583.02</ele>
  <time>2026-08-28T17:52:34Z</time>
  <course>63.5</course>
  <speed>0.34438350715445126</speed>
  <fix>3d</fix>
</trkpt>
<trkpt lat="40.0713437" lon="-105.2296331">
  <ele>1583.0</ele>
  <time>2026-08-28T17:52:34Z</time>
  <course>66.7</course>
  <speed>0.31</speed>
  <fix>3d</fix>
</trkpt>
<trkpt lat="40.071344" lon="-105.2296321">
  <ele>1583.02</ele>
  <time>2026-08-28T17:52:34Z</time>
  <course>61.36</course>
  <speed>0.38470768123342686</speed>
  <fix>3d</fix>
</trkpt>
<trkpt lat="40.0713439" lon="-105.2296323">
  <ele>1583.0</ele>
  <time>2026-08-28T17:52:34Z</time>
  <course>63.37</course>
  <speed>0.38</speed>
  <fix>3d</fix>
</trkpt>
<trkpt lat="40.0713442" lon="-105.2296316">
  <ele>1583.01</ele>
  <time>2026-08-28T17:52:34Z</time>
  <course>58.91</course>
  <speed>0.4219004621945798</speed>
  <fix>3d</fix>
</trkpt>
<trkpt lat="40.0713439" lon="-105.2296323">
  <ele>1583.0</ele>
  <time>2026-08-28T17:52:34Z</time>
  <course>63.37</course>
  <speed>0.38</speed>
  <fix>3d</fix>
</trkpt>
<trkpt lat="40.0713445" lon="-105.2296311">
  <ele>1583.01</ele>
  <time>2026-08-28T17:52:34Z</time>
  <course>56.16</course>
  <speed>0.4604345773288535</speed>
  <fix>3d</fix>
</trkpt>
<trkpt lat="40.0713444" lon="-105.2296315">
  <ele>1583.0</ele>
  <time>2026-08-28T17:52:34Z</time>
  <course>59.05</course>
  <speed>0.45</speed>
  <fix>3d</fix>
</trkpt>
<trkpt lat="40.0713447" lon="-105.2296306">
  <ele>1583.01</ele>
  <time>2026-08-28T17:52:34Z</time>
  <course>53.08</course>
  <speed>0.49203658400570177</speed>
  <fix>3d</fix>
</trkpt>
<trkpt lat="40.0713444" lon="-105.2296315">
  <ele>1583.0</ele>
  <time>2026-08-28T17:52:34Z</time>
  <course>59.05</course>
  <speed>0.45</speed>
  <fix>3d</fix>
</trkpt>
<trkpt lat="40.0713451" lon="-105.2296301">
  <ele>1583.01</ele>
  <time>2026-08-28T17:52:34Z</time>
  <course>49.63</course>
  <speed>0.5240229002629561</speed>
  <fix>3d</fix>
</trkpt>
<trkpt lat="40.0713448" lon="-105.2296305">
  <ele>1583.0</ele>
  <time>2026-08-28T17:52:34Z</time>
  <course>53.57</course>
  <speed>0.51</speed>
  <fix>3d</fix>
</trkpt>
<trkpt lat="40.0713454" lon="-105.2296295">
  <ele>1583.01</ele>
  <time>2026-08-28T17:52:34Z</time>
  <course>45.9</course>
  <speed>0.5586591089385369</speed>
  <fix>3d</fix>
</trkpt>
<trkpt lat="40.0713448" lon="-105.2296305">
  <ele>1583.0</ele>
  <time>2026-08-28T17:52:34Z</time>
  <course>53.57</course>
  <speed>0.51</speed>
  <fix>3d</fix>
</trkpt>
<trkpt lat="40.0713459" lon="-105.229629">
  <ele>1583.01</ele>
  <time>2026-08-28T17:52:34Z</time>
  <course>41.97</course>
  <speed>0.5889821729050889</speed>
  <fix>3d</fix>
</trkpt>
<trkpt lat="40.0713454" lon="-105.2296296">
  <ele>1583.0</ele>
  <time>2026-08-28T17:52:34Z</time>
  <course>46.83</course>
  <speed>0.58</speed>
  <fix>3d</fix>
</trkpt>
<trkpt lat="40.0713463" lon="-105.2296285">
  <ele>1583.01</ele>
  <time>2026-08-28T17:52:34Z</time>
  <course>37.86</course>
  <speed>0.6220128616033594</speed>
  <fix>3d</fix>
</trkpt>
<trkpt lat="40.0713454" lon="-105.2296296">
  <ele>1583.0</ele>
  <time>2026-08-28T17:52:34Z</time>
  <course>46.83</course>
  <speed>0.58</speed>
  <fix>3d</fix>
</trkpt>
<trkpt lat="40.0713468" lon="-105.2296281">
  <ele>1583.01</ele>
  <time>2026-08-28T17:52:34Z</time>
  <course>33.58</course>
  <speed>0.6466065264130885</speed>
  <fix>3d</fix>
</trkpt>
<trkpt lat="40.0713462" lon="-105.2296286">
  <ele>1583.0</ele>
  <time>2026-08-28T17:52:34Z</time>
  <course>39.06</course>
  <speed>0.64</speed>
  <fix>3d</fix>
</trkpt>
<trkpt lat="40.0713474" lon="-105.2296276">
  <ele>1583.01</ele>
  <time>2026-08-28T17:52:34Z</time>
  <course>29.14</course>
  <speed>0.6753517601961218</speed>
  <fix>3d</fix>
</trkpt>
<trkpt lat="40.0713462" lon="-105.2296286">
  <ele>1583.0</ele>
  <time>2026-08-28T17:52:34Z</time>
  <course>39.06</course>
  <speed>0.64</speed>
  <fix>3d</fix>
</trkpt>
<trkpt lat="40.071348" lon="-105.2296273">
  <ele>1583.01</ele>
  <time>2026-08-28T17:52:34Z</time>
  <course>24.56</course>
  <speed>0.7000714249274855</speed>
  <fix>3d</fix>
</trkpt>
<trkpt lat="40.0713472" lon="-105.2296277">
  <ele>1583.0</ele>
  <time>2026-08-28T17:52:34Z</time>
  <course>30.58</course>
  <speed>0.69</speed>
  <fix>3d</fix>
</trkpt>
<trkpt lat="40.0713486" lon="-105.229627">
  <ele>1583.01</ele>
  <time>2026-08-28T17:52:34Z</time>
  <course>19.86</course>
  <speed>0.7212489168102785</speed>
  <fix>3d</fix>
</trkpt>
<trkpt lat="40.0713472" lon="-105.2296277">
  <ele>1583.0</ele>
  <time>2026-08-28T17:52:34Z</time>
  <course>30.58</course>
  <speed>0.69</speed>
  <fix>3d</fix>
</trkpt>
<trkpt lat="40.0713493" lon="-105.2296267">
  <ele>1583.0</ele>
  <time>2026-08-28T17:52:34Z</time>
  <course>15.06</course>
  <speed>0.737563556583431</speed>
  <fix>3d</fix>
</trkpt>
<trkpt lat="40.0713484" lon="-105.2296269">
  <ele>1583.0</ele>
  <time>2026-08-28T17:52:34Z</time>
  <course>21.48</course>
  <speed>0.73</speed>
  <fix>3d</fix>
</trkpt>
<trkpt lat="40.07135" lon="-105.2296265">
  <ele>1583.0</ele>
  <time>2026-08-28T17:52:34Z</time>
  <course>10.16</course>
  <speed>0.7566372975210779</speed>
  <fix>3d</fix>
</trkpt>
<trkpt lat="40.0713484" lon="-105.2296269">
  <ele>1583.0</ele>
  <time>2026-08-28T17:52:34Z</time>
  <course>21.48</course>
  <speed>0.73</speed>
  <fix>3d</fix>
</trkpt>
<trkpt lat="40.0713507" lon="-105.2296264">
  <ele>1583.0</ele>
  <time>2026-08-28T17:52:34Z</time>
  <course>5.18</course>
  <speed>0.7705841939723393</speed>
  <fix>3d</fix>
</trkpt>
<trkpt lat="40.0713497" lon="-105.2296265">
  <ele>1583.0</ele>
  <time>2026-08-28T17:52:34Z</time>
  <course>11.91</course>
  <speed>0.76</speed>
  <fix>3d</fix>
</trkpt>
<trkpt lat="40.0713514" lon="-105.2296264">
  <ele>1583.0</ele>
  <time>2026-08-28T17:52:34Z</time>
  <course>0.15</course>
  <speed>0.7805767098754611</speed>
  <fix>3d</fix>
</trkpt>
<trkpt lat="40.0713497" lon="-105.2296265">
  <ele>1583.0</ele>
  <time>2026-08-28T17:52:34Z</time>
  <course>11.91</course>
  <speed>0.76</speed>
  <fix>3d</fix>
</trkpt>
<trkpt lat="40.0713522" lon="-105.2296265">
  <ele>1583.0</ele>
  <time>2026-08-28T17:52:34Z</time>
  <course>355.09</course>
  <speed>0.7863841300535</speed>
  <fix>3d</fix>
</trkpt>
<trkpt lat="40.0713511" lon="-105.2296262">
  <ele>1583.0</ele>
  <time>2026-08-28T17:52:34Z</time>
  <course>2.03</course>
  <speed>0.78</speed>
  <fix>3d</fix>
</trkpt>
<trkpt lat="40.0713529" lon="-105.2296266">
  <ele>1583.0</ele>
  <time>2026-08-28T17:52:34Z</time>
  <course>349.99</course>
  <speed>0.7983107164506812</speed>
  <fix>3d</fix>
</trkpt>
<trkpt lat="40.0713511" lon="-105.2296262">
  <ele>1583.0</ele>
  <time>2026-08-28T17:52:34Z</time>
  <course>2.03</course>
  <speed>0.78</speed>
  <fix>3d</fix>
</trkpt>
<trkpt lat="40.0713536" lon="-105.2296269">
  <ele>1582.99</ele>
  <time>2026-08-28T17:52:34Z</time>
  <course>344.84</course>
  <speed>0.796994353806851</speed>
  <fix>3d</fix>
</trkpt>
<trkpt lat="40.0713524" lon="-105.2296263">
  <ele>1583.0</ele>
  <time>2026-08-28T17:52:34Z</time>
  <course>351.93</course>
  <speed>0.79</speed>
  <fix>3d</fix>
</trkpt>
<trkpt lat="40.0713543" lon="-105.2296271">
  <ele>1582.99</ele>
  <time>2026-08-28T17:52:34Z</time>
  <course>339.72</course>
  <speed>0.8023091673413684</speed>
  <fix>3d</fix>
</trkpt>
<trkpt lat="40.0713524" lon="-105.2296263">
  <ele>1583.0</ele>
  <time>2026-08-28T17:52:34Z</time>
  <course>351.93</course>
  <speed>0.79</speed>
  <fix>3d</fix>
</trkpt>
<trkpt lat="40.071355" lon="-105.2296275">
  <ele>1582.99</ele>
  <time>2026-08-28T17:52:34Z</time>
  <course>334.59</course>
  <speed>0.8052949770115296</speed>
  <fix>3d</fix>
</trkpt>
<trkpt lat="40.0713539" lon="-105.2296267">
  <ele>1583.0</ele>
  <time>2026-08-28T17:52:34Z</time>
  <course>341.72</course>
  <speed>0.8</speed>
  <fix>3d</fix>
</trkpt>
<trkpt lat="40.0713556" lon="-105.229628">
  <ele>1582.98</ele>
  <time>2026-08-28T17:52:34Z</time>
  <course>329.5</course>
  <speed>0.8154140052758475</speed>
  <fix>3d</fix>
</trkpt>
<trkpt lat="40.0713539" lon="-105.2296267">
  <ele>1583.0</ele>
  <time>2026-08-28T17:52:34Z</time>
  <course>341.72</course>
  <speed>0.8</speed>
  <fix>3d</fix>
</trkpt>
<trkpt lat="40.0713562" lon="-105.2296285">
  <ele>1582.98</ele>
  <time>2026-08-28T17:52:34Z</time>
  <course>324.35</course>
  <speed>0.8183520025025907</speed>
  <fix>3d</fix>
</trkpt>
<trkpt lat="40.0713552" lon="-105.2296274">
  <ele>1583.0</ele>
  <time>2026-08-28T17:52:34Z</time>
  <course>331.46</course>
  <speed>0.8</speed>
  <fix>3d</fix>
</trkpt>
<trkpt lat="40.0713568" lon="-105.2296292">
  <ele>1582.98</ele>
  <time>2026-08-28T17:52:34Z</time>
  <course>319.17</course>
  <speed>0.8275868534480233</speed>
  <fix>3d</fix>
</trkpt>
<trkpt lat="40.0713552" lon="-105.2296274">
  <ele>1583.0</ele>
  <time>2026-08-28T17:52:34Z</time>
  <course>331.46</course>
  <speed>0.8</speed>
  <fix>3d</fix>
</trkpt>
<trkpt lat="40.0713573" lon="-105.2296299">
  <ele>1582.98</ele>
  <time>2026-08-28T17:52:34Z</time>
  <course>314.1</course>
  <speed>0.8429116205154606</speed>
  <fix>3d</fix>
</trkpt>
<trkpt lat="40.0713564" lon="-105.2296284">
  <ele>1583.0</ele>
  <time>2026-08-28T17:52:34Z</time>
  <course>321.12</course>
  <speed>0.81</speed>
  <fix>3d</fix>
</trkpt>
<trkpt lat="40.0713578" lon="-105.2296306">
  <ele>1582.98</ele>
  <time>2026-08-28T17:52:34Z</time>
  <course>309.3</course>
  <speed>0.8640023148117139</speed>
  <fix>3d</fix>
</trkpt>
<trkpt lat="40.0713564" lon="-105.2296284">
  <ele>1583.0</ele>
  <time>2026-08-28T17:52:34Z</time>
  <course>321.12</course>
  <speed>0.81</speed>
  <fix>3d</fix>
</trkpt>
<trkpt lat="40.0713583" lon="-105.2296315">
  <ele>1582.97</ele>
  <time>2026-08-28T17:52:34Z</time>
  <course>304.86</course>
  <speed>0.8850988645343524</speed>
  <fix>3d</fix>
</trkpt>
<trkpt lat="40.0713575" lon="-105.2296298">
  <ele>1583.0</ele>
  <time>2026-08-28T17:52:34Z</time>
  <course>311.11</course>
  <speed>0.83</speed>
  <fix>3d</fix>
</trkpt>
<trkpt lat="40.0713587" lon="-105.2296324">
  <ele>1582.97</ele>
  <time>2026-08-28T17:52:34Z</time>
  <course>300.75</course>
  <speed>0.9082400563727632</speed>
  <fix>3d</fix>
</trkpt>
<trkpt lat="40.0713575" lon="-105.2296298">
  <ele>1583.0</ele>
  <time>2026-08-28T17:52:34Z</time>
  <course>311.11</course>
  <speed>0.83</speed>
  <fix>3d</fix>
</trkpt>
<trkpt lat="40.0713591" lon="-105.2296333">
  <ele>1582.97</ele>
  <time>2026-08-28T17:52:34Z</time>
  <course>297.08</course>
  <speed>0.9394147114027968</speed>
  <fix>3d</fix>
</trkpt>
<trkpt lat="40.0713583" lon="-105.2296313">
  <ele>1583.0</ele>
  <time>2026-08-28T17:52:34Z</time>
  <course>302.15</course>
  <speed>0.87</speed>
  <fix>3d</fix>
</trkpt>
<trkpt lat="40.0713594" lon="-105.2296343">
  <ele>1582.97</ele>
  <time>2026-08-28T17:52:34Z</time>
  <course>293.92</course>
  <speed>0.9786214794290998</speed>
  <fix>3d</fix>
</trkpt>
<trkpt lat="40.0713583" lon="-105.2296313">
  <ele>1583.0</ele>
  <time>2026-08-28T17:52:34Z</time>
  <course>302.15</course>
  <speed>0.87</speed>
  <fix>3d</fix>
</trkpt>
<trkpt lat="40.0713597" lon="-105.2296354">
  <ele>1582.97</ele>
  <time>2026-08-28T17:52:34Z</time>
  <course>291.22</course>
  <speed>1.027861858422619</speed>
  <fix>3d</fix>
</trkpt>
<trkpt lat="40.0713591" lon="-105.2296332">
  <ele>1583.0</ele>
  <time>2026-08-28T17:52:34Z</time>
  <course>294.78</course>
  <speed>0.93</speed>
  <fix>3d</fix>
</trkpt>
<trkpt lat="40.07136" lon="-105.2296366">
  <ele>1582.98</ele>
  <time>2026-08-28T17:52:34Z</time>
  <course>288.99</course>
  <speed>1.0660675400742676</speed>
  <fix>3d</fix>
</trkpt>
<trkpt lat="40.0713591" lon="-105.2296332">
  <ele>1583.0</ele>
  <time>2026-08-28T17:52:34Z</time>
  <course>294.78</course>
  <speed>0.93</speed>
  <fix>3d</fix>
</trkpt>
<trkpt lat="40.0713603" lon="-105.2296378">
  <ele>1582.98</ele>
  <time>2026-08-28T17:52:34Z</time>
  <course>287.17</course>
  <speed>1.1305308487608818</speed>
  <fix>3d</fix>
</trkpt>
<trkpt lat="40.0713597" lon="-105.2296354">
  <ele>1583.0</ele>
  <time>2026-08-28T17:52:34Z</time>
  <course>289.29</course>
  <speed>1.01</speed>
  <fix>3d</fix>
</trkpt>
<trkpt lat="40.0713606" lon="-105.2296391">
  <ele>1582.98</ele>
  <time>2026-08-28T17:52:34Z</time>
  <course>285.68</course>
  <speed>1.1835962149314267</speed>
  <fix>3d</fix>
</trkpt>
<trkpt lat="40.0713597" lon="-105.2296354">
  <ele>1583.0</ele>
  <time>2026-08-28T17:52:34Z</time>
  <course>289.29</course>
  <speed>1.01</speed>
  <fix>3d</fix>
</trkpt>
<trkpt lat="40.0713608" lon="-105.2296405">
  <ele>1582.98</ele>
  <time>2026-08-28T17:52:34Z</time>
  <course>284.46</course>
  <speed>1.2517188182655081</speed>
  <fix>3d</fix>
</trkpt>
<trkpt lat="40.0713604" lon="-105.2296378">
  <ele>1583.0</ele>
  <time>2026-08-28T17:52:34Z</time>
  <course>285.5</course>
  <speed>1.12</speed>
  <fix>3d</fix>
</trkpt>
<trkpt lat="40.0713611" lon="-105.2296419">
  <ele>1582.99</ele>
  <time>2026-08-28T17:52:34Z</time>
  <course>283.47</course>
  <speed>1.3179529581893277</speed>
  <fix>3d</fix>
</trkpt>
<trkpt lat="40.0713604" lon="-105.2296378">
  <ele>1583.0</ele>
  <time>2026-08-28T17:52:34Z</time>
  <course>285.5</course>
  <speed>1.12</speed>
  <fix>3d</fix>
</trkpt>
<trkpt lat="40.0713613" lon="-105.2296435">
  <ele>1582.99</ele>
  <time>2026-08-28T17:52:34Z</time>
  <course>282.68</course>
  <speed>1.396352391053204</speed>
  <fix>3d</fix>
</trkpt>
<trkpt lat="40.0713609" lon="-105.2296404">
  <ele>1583.0</ele>
  <time>2026-08-28T17:52:34Z</time>
  <course>282.98</course>
  <speed>1.25</speed>
  <fix>3d</fix>
</trkpt>
<trkpt lat="40.0713615" lon="-105.2296451">
  <ele>1582.99</ele>
  <time>2026-08-28T17:52:34Z</time>
  <course>282.05</course>
  <speed>1.4749237268414932</speed>
  <fix>3d</fix>
</trkpt>
<trkpt lat="40.0713609" lon="-105.2296404">
  <ele>1583.0</ele>
  <time>2026-08-28T17:52:34Z</time>
  <course>282.98</course>
  <speed>1.25</speed>
  <fix>3d</fix>
</trkpt>
<trkpt lat="40.0713618" lon="-105.2296468">
  <ele>1583.0</ele>
  <time>2026-08-28T17:52:34Z</time>
  <course>281.54</course>
  <speed>1.5536408851468864</speed>
  <fix>3d</fix>
</trkpt>
<trkpt lat="40.0713614" lon="-105.2296435">
  <ele>1583.0</ele>
  <time>2026-08-28T17:52:34Z</time>
  <course>281.34</course>
  <speed>1.4</speed>
  <fix>3d</fix>
</trkpt>
<trkpt lat="40.071362" lon="-105.2296486">
  <ele>1583.0</ele>
  <time>2026-08-28T17:52:34Z</time>
  <course>281.15</course>
  <speed>1.6440194646049662</speed>
  <fix>3d</fix>
</trkpt>
<trkpt lat="40.0713614" lon="-105.2296435">
  <ele>1583.0</ele>
  <time>2026-08-28T17:52:34Z</time>
  <course>281.34</course>
  <speed>1.4</speed>
  <fix>3d</fix>
</trkpt>
<trkpt lat="40.0713623" lon="-105.2296506">
  <ele>1583.0</ele>
  <time>2026-08-28T17:52:34Z</time>
  <course>280.86</course>
  <speed>1.7344163283364233</speed>
  <fix>3d</fix>
</trkpt>
<trkpt lat="40.0713619" lon="-105.229647">
  <ele>1583.0</ele>
  <time>2026-08-28T17:52:34Z</time>
  <course>280.3</course>
  <speed>1.56</speed>
  <fix>3d</fix>
</trkpt>
<trkpt lat="40.0713626" lon="-105.2296526">
  <ele>1583.0</ele>
  <time>2026-08-28T17:52:34Z</time>
  <course>280.64</course>
  <speed>1.824828759089466</speed>
  <fix>3d</fix>
</trkpt>
<trkpt lat="40.0713619" lon="-105.229647">
  <ele>1583.0</ele>
  <time>2026-08-28T17:52:34Z</time>
  <course>280.3</course>
  <speed>1.56</speed>
  <fix>3d</fix>
</trkpt>
<trkpt lat="40.0713629" lon="-105.2296548">
  <ele>1583.0</ele>
  <time>2026-08-28T17:52:34Z</time>
  <course>280.5</course>
  <speed>1.9251233726699182</speed>
  <fix>3d</fix>
</trkpt>
<trkpt lat="40.0713624" lon="-105.2296508">
  <ele>1583.0</ele>
  <time>2026-08-28T17:52:34Z</time>
  <course>279.68</course>
  <speed>1.74</speed>
  <fix>3d</fix>
</trkpt>
<trkpt lat="40.0713632" lon="-105.2296571">
  <ele>1583.0</ele>
  <time>2026-08-28T17:52:34Z</time>
  <course>280.4</course>
  <speed>2.0270421801235416</speed>
  <fix>3d</fix>
</trkpt>
<trkpt lat="40.0713624" lon="-105.2296508">
  <ele>1583.0</ele>
  <time>2026-08-28T17:52:34Z</time>
  <course>279.68</course>
  <speed>1.74</speed>
  <fix>3d</fix>
</trkpt>
<trkpt lat="40.0713635" lon="-105.2296595">
  <ele>1583.0</ele>
  <time>2026-08-28T17:52:34Z</time>
  <course>280.36</course>
  <speed>2.1273457640919586</speed>
  <fix>3d</fix>
</trkpt>
<trkpt lat="40.0713629" lon="-105.229655">
  <ele>1583.0</ele>
  <time>2026-08-28T17:52:34Z</time>
  <course>279.37</course>
  <speed>1.93</speed>
  <fix>3d</fix>
</trkpt>
<trkpt lat="40.0713638" lon="-105.229662">
  <ele>1583.0</ele>
  <time>2026-08-28T17:52:34Z</time>
  <course>280.35</course>
  <speed>2.2292599668948436</speed>
  <fix>3d</fix>
</trkpt>
<trkpt lat="40.0713629" lon="-105.229655">
  <ele>1583.0</ele>
  <time>2026-08-28T17:52:34Z</time>
  <course>279.37</course>
  <speed>1.93</speed>
  <fix>3d</fix>
</trkpt>
<trkpt lat="40.0713641" lon="-105.2296647">
  <ele>1583.01</ele>
  <time>2026-08-28T17:52:34Z</time>
  <course>280.36</course>
  <speed>2.3311799587333453</speed>
  <fix>3d</fix>
</trkpt>
<trkpt lat="40.0713635" lon="-105.2296597">
  <ele>1583.0</ele>
  <time>2026-08-28T17:52:34Z</time>
  <course>279.26</course>
  <speed>2.13</speed>
  <fix>3d</fix>
</trkpt>
<trkpt lat="40.0713645" lon="-105.2296675">
  <ele>1583.01</ele>
  <time>2026-08-28T17:52:34Z</time>
  <course>280.39</course>
  <speed>2.433105012119288</speed>
  <fix>3d</fix>
</trkpt>
<trkpt lat="40.0713635" lon="-105.2296597">
  <ele>1583.0</ele>
  <time>2026-08-28T17:52:34Z</time>
  <course>279.26</course>
  <speed>2.13</speed>
  <fix>3d</fix>
</trkpt>
<trkpt lat="40.0713649" lon="-105.2296704">
  <ele>1583.01</ele>
  <time>2026-08-28T17:52:34Z</time>
  <course>280.45</course>
  <speed>2.5350345165302977</speed>
  <fix>3d</fix>
</trkpt>
<trkpt lat="40.0713642" lon="-105.2296649">
  <ele>1583.0</ele>
  <time>2026-08-28T17:52:34Z</time>
  <course>279.28</course>
  <speed>2.34</speed>
  <fix>3d</fix>
</trkpt>
<trkpt lat="40.0713652" lon="-105.2296734">
  <ele>1583.0</ele>
  <time>2026-08-28T17:52:34Z</time>
  <course>280.52</course>
  <speed>2.646828290615015</speed>
  <fix>3d</fix>
</trkpt>
<trkpt lat="40.0713642" lon="-105.2296649">
  <ele>1583.0</ele>
  <time>2026-08-28T17:52:34Z</time>
  <course>279.28</course>
  <speed>2.34</speed>
  <fix>3d</fix>
</trkpt>
<trkpt lat="40.0713657" lon="-105.2296766">
  <ele>1583.0</ele>
  <time>2026-08-28T17:52:34Z</time>
  <course>280.6</course>
  <speed>2.750454507895013</speed>
  <fix>3d</fix>
</trkpt>
<trkpt lat="40.0713649" lon="-105.2296706">
  <ele>1583.0</ele>
  <time>2026-08-28T17:52:34Z</time>
  <course>279.38</course>
  <speed>2.54</speed>
  <fix>3d</fix>
</trkpt>
<trkpt lat="40.0713661" lon="-105.2296798">
  <ele>1583.01</ele>
  <time>2026-08-28T17:52:34Z</time>
  <course>280.67</course>
  <speed>2.8524024961425063</speed>
  <fix>3d</fix>
</trkpt>
<trkpt lat="40.0713649" lon="-105.2296706">
  <ele>1583.0</ele>
  <time>2026-08-28T17:52:34Z</time>
  <course>279.38</course>
  <speed>2.54</speed>
  <fix>3d</fix>
</trkpt>
<trkpt lat="40.0713665" lon="-105.2296832">
  <ele>1583.01</ele>
  <time>2026-08-28T17:52:34Z</time>
  <course>280.75</course>
  <speed>2.954352720986443</speed>
  <fix>3d</fix>
</trkpt>
<trkpt lat="40.0713657" lon="-105.2296767">
  <ele>1583.0</ele>
  <time>2026-08-28T17:52:34Z</time>
  <course>279.52</course>
  <speed>2.75</speed>
  <fix>3d</fix>
</trkpt>
<trkpt lat="40.071367" lon="-105.2296867">
  <ele>1583.02</ele>
  <time>2026-08-28T17:52:34Z</time>
  <course>280.83</course>
  <speed>3.046456958501137</speed>
  <fix>3d</fix>
</trkpt>
<trkpt lat="40.0713657" lon="-105.2296767">
  <ele>1583.0</ele>
  <time>2026-08-28T17:52:34Z</time>
  <course>279.52</course>
  <speed>2.75</speed>
  <fix>3d</fix>
</trkpt>
<trkpt lat="40.0713675" lon="-105.2296902">
  <ele>1583.02</ele>
  <time>2026-08-28T17:52:34Z</time>
  <course>280.9</course>
  <speed>3.128721783732136</speed>
  <fix>3d</fix>
</trkpt>
<trkpt lat="40.0713665" lon="-105.2296834">
  <ele>1583.0</ele>
  <time>2026-08-28T17:52:34Z</time>
  <course>279.67</course>
  <speed>2.95</speed>
  <fix>3d</fix>
</trkpt>
<trkpt lat="40.071368" lon="-105.2296939">
  <ele>1583.02</ele>
  <time>2026-08-28T17:52:34Z</time>
  <course>280.96</course>
  <speed>3.210996729988992</speed>
  <fix>3d</fix>
</trkpt>
<trkpt lat="40.0713665" lon="-105.2296834">
  <ele>1583.0</ele>
  <time>2026-08-28T17:52:34Z</time>
  <course>279.67</course>
  <speed>2.95</speed>
  <fix>3d</fix>
</trkpt>
<trkpt lat="40.0713685" lon="-105.2296976">
  <ele>1583.02</ele>
  <time>2026-08-28T17:52:34Z</time>
  <course>281.01</course>
  <speed>3.271819065902025</speed>
  <fix>3d</fix>
</trkpt>
<trkpt lat="40.0713674" lon="-105.2296904">
  <ele>1583.0</ele>
  <time>2026-08-28T17:52:34Z</time>
  <course>279.81</course>
  <speed>3.12</speed>
  <fix>3d</fix>
</trkpt>
<trkpt lat="40.071369" lon="-105.2297014">
  <ele>1583.02</ele>
  <time>2026-08-28T17:52:34Z</time>
  <course>281.05</course>
  <speed>3.332641594891356</speed>
  <fix>3d</fix>
</trkpt>
<trkpt lat="40.0713674" lon="-105.2296904">
  <ele>1583.0</ele>
  <time>2026-08-28T17:52:34Z</time>
  <course>279.81</course>
  <speed>3.12</speed>
  <fix>3d</fix>
</trkpt>
<trkpt lat="40.0713695" lon="-105.2297052">
  <ele>1583.02</ele>
  <time>2026-08-28T17:52:34Z</time>
  <course>281.09</course>
  <speed>3.3836223193494868</speed>
  <fix>3d</fix>
</trkpt>
<trkpt lat="40.0713685" lon="-105.2296978">
  <ele>1583.0</ele>
  <time>2026-08-28T17:52:34Z</time>
  <course>279.92</course>
  <speed>3.26</speed>
  <fix>3d</fix>
</trkpt>
<trkpt lat="40.07137" lon="-105.2297091">
  <ele>1583.02</ele>
  <time>2026-08-28T17:52:34Z</time>
  <course>281.14</course>
  <speed>3.414923132370625</speed>
  <fix>3d</fix>
</trkpt>
<trkpt lat="40.0713685" lon="-105.2296978">
  <ele>1583.0</ele>
  <time>2026-08-28T17:52:34Z</time>
  <course>279.92</course>
  <speed>3.26</speed>
  <fix>3d</fix>
</trkpt>
<trkpt lat="40.0713706" lon="-105.2297131">
  <ele>1583.02</ele>
  <time>2026-08-28T17:52:34Z</time>
  <course>281.18</course>
  <speed>3.4462298240250897</speed>
  <fix>3d</fix>
</trkpt>
<trkpt lat="40.0713695" lon="-105.2297055">
  <ele>1583.0</ele>
  <time>2026-08-28T17:52:34Z</time>
  <course>280.01</course>
  <speed>3.36</speed>
  <fix>3d</fix>
</trkpt>
<trkpt lat="40.0713711" lon="-105.229717">
  <ele>1583.01</ele>
  <time>2026-08-28T17:52:34Z</time>
  <course>281.22</course>
  <speed>3.426558039782779</speed>
  <fix>3d</fix>
</trkpt>
<trkpt lat="40.0713695" lon="-105.2297055">
  <ele>1583.0</ele>
  <time>2026-08-28T17:52:34Z</time>
  <course>280.01</course>
  <speed>3.36</speed>
  <fix>3d</fix>
</trkpt>
<trkpt lat="40.0713716" lon="-105.2297209">
  <ele>1583.01</ele>
  <time>2026-08-28T17:52:34Z</time>
  <course>281.21</course>
  <speed>3.2521377584598103</speed>
  <fix>3d</fix>
</trkpt>
<trkpt lat="40.0713705" lon="-105.2297133">
  <ele>1583.0</ele>
  <time>2026-08-28T17:52:34Z</time>
  <course>280.08</course>
  <speed>3.37</speed>
  <fix>3d</fix>
</trkpt>
<trkpt lat="40.0713721" lon="-105.2297245">
  <ele>1583.01</ele>
  <time>2026-08-28T17:52:34Z</time>
  <course>281.21</course>
  <speed>3.099193443462347</speed>
  <fix>3d</fix>
</trkpt>
<trkpt lat="40.0713705" lon="-105.2297133">
  <ele>1583.0</ele>
  <time>2026-08-28T17:52:34Z</time>
  <course>280.08</course>
  <speed>3.37</speed>
  <fix>3d</fix>
</trkpt>
<trkpt lat="40.0713726" lon="-105.229728">
  <ele>1583.01</ele>
  <time>2026-08-28T17:52:34Z</time>
  <course>281.22</course>
  <speed>2.9462518561725166</speed>
  <fix>3d</fix>
</trkpt>
<trkpt lat="40.0713716" lon="-105.2297209">
  <ele>1583.0</ele>
  <time>2026-08-28T17:52:34Z</time>
  <course>280.11</course>
  <speed>3.17</speed>
  <fix>3d</fix>
</trkpt>
<trkpt lat="40.071373" lon="-105.2297313">
  <ele>1583.01</ele>
  <time>2026-08-28T17:52:34Z</time>
  <course>281.22</course>
  <speed>2.793313444638822</speed>
  <fix>3d</fix>
</trkpt>
<trkpt lat="40.0713716" lon="-105.2297209">
  <ele>1583.0</ele>
  <time>2026-08-28T17:52:34Z</time>
  <course>280.11</course>
  <speed>3.17</speed>
  <fix>3d</fix>
</trkpt>
<trkpt lat="40.0713735" lon="-105.2297344">
  <ele>1583.0</ele>
  <time>2026-08-28T17:52:34Z</time>
  <course>281.22</course>
  <speed>2.660075186907317</speed>
  <fix>3d</fix>
</trkpt>
<trkpt lat="40.0713725" lon="-105.2297279">
  <ele>1583.0</ele>
  <time>2026-08-28T17:52:34Z</time>
  <course>280.11</course>
  <speed>2.87</speed>
  <fix>3d</fix>
</trkpt>
<trkpt lat="40.0713739" lon="-105.2297374">
  <ele>1583.01</ele>
  <time>2026-08-28T17:52:34Z</time>
  <course>281.22</course>
  <speed>2.5285766747322493</speed>
  <fix>3d</fix>
</trkpt>
<trkpt lat="40.0713725" lon="-105.2297279">
  <ele>1583.0</ele>
  <time>2026-08-28T17:52:34Z</time>
  <course>280.11</course>
  <speed>2.87</speed>
  <fix>3d</fix>
</trkpt>
<trkpt lat="40.0713742" lon="-105.2297402">
  <ele>1583.01</ele>
  <time>2026-08-28T17:52:34Z</time>
  <course>281.23</course>
  <speed>2.395349661322956</speed>
  <fix>3d</fix>
</trkpt>
<trkpt lat="40.0713734" lon="-105.2297342">
  <ele>1583.0</ele>
  <time>2026-08-28T17:52:34Z</time>
  <course>280.11</course>
  <speed>2.6</speed>
  <fix>3d</fix>
</trkpt>
<trkpt lat="40.0713746" lon="-105.2297428">
  <ele>1583.01</ele>
  <time>2026-08-28T17:52:34Z</time>
  <course>281.23</course>
  <speed>2.273697429298806</speed>
  <fix>3d</fix>
</trkpt>
<trkpt lat="40.0713734" lon="-105.2297342">
  <ele>1583.0</ele>
  <time>2026-08-28T17:52:34Z</time>
  <course>280.11</course>
  <speed>2.6</speed>
  <fix>3d</fix>
</trkpt>
<trkpt lat="40.0713749" lon="-105.2297454">
  <ele>1583.01</ele>
  <time>2026-08-28T17:52:34Z</time>
  <course>281.24</course>
  <speed>2.1618973148602594</speed>
  <fix>3d</fix>
</trkpt>
<trkpt lat="40.0713741" lon="-105.2297399">
  <ele>1583.0</ele>
  <time>2026-08-28T17:52:34Z</time>
  <course>280.11</course>
  <speed>2.35</speed>
  <fix>3d</fix>
</trkpt>
<trkpt lat="40.0713752" lon="-105.2297478">
  <ele>1583.01</ele>
  <time>2026-08-28T17:52:34Z</time>
  <course>281.24</course>
  <speed>2.0500975586542216</speed>
  <fix>3d</fix>
</trkpt>
<trkpt lat="40.0713741" lon="-105.2297399">
  <ele>1583.0</ele>
  <time>2026-08-28T17:52:34Z</time>
  <course>280.11</course>
  <speed>2.35</speed>
  <fix>3d</fix>
</trkpt>
<trkpt lat="40.0713755" lon="-105.2297501">
  <ele>1583.01</ele>
  <time>2026-08-28T17:52:35Z</time>
  <course>281.24</course>
  <speed>1.9481529714065065</speed>
  <fix>3d</fix>
</trkpt>
<trkpt lat="40.0713748" lon="-105.2297451">
  <ele>1583.0</ele>
  <time>2026-08-28T17:52:35Z</time>
  <course>280.11</course>
  <speed>2.13</speed>
  <fix>3d</fix>
</trkpt>
<trkpt lat="40.0713758" lon="-105.2297522">
  <ele>1583.02</ele>
  <time>2026-08-28T17:52:35Z</time>
  <course>281.24</course>
  <speed>1.846212338816963</speed>
  <fix>3d</fix>
</trkpt>
<trkpt lat="40.0713748" lon="-105.2297451">
  <ele>1583.0</ele>
  <time>2026-08-28T17:52:35Z</time>
  <course>280.11</course>
  <speed>2.13</speed>
  <fix>3d</fix>
</trkpt>
<trkpt lat="40.071376" lon="-105.2297543">
  <ele>1583.02</ele>
  <time>2026-08-28T17:52:35Z</time>
  <course>281.25</course>
  <speed>1.7541379649275024</speed>
  <fix>3d</fix>
</trkpt>
<trkpt lat="40.0713755" lon="-105.2297498">
  <ele>1583.0</ele>
  <time>2026-08-28T17:52:35Z</time>
  <course>280.11</course>
  <speed>1.92</speed>
  <fix>3d</fix>
</trkpt>
<trkpt lat="40.0713763" lon="-105.2297562">
  <ele>1583.02</ele>
  <time>2026-08-28T17:52:35Z</time>
  <course>281.25</course>
  <speed>1.6620770138594663</speed>
  <fix>3d</fix>
</trkpt>
<trkpt lat="40.0713755" lon="-105.2297498">
  <ele>1583.0</ele>
  <time>2026-08-28T17:52:35Z</time>
  <course>280.11</course>
  <speed>1.92</speed>
  <fix>3d</fix>
</trkpt>
<trkpt lat="40.0713765" lon="-105.229758">
  <ele>1583.02</ele>
  <time>2026-08-28T17:52:35Z</time>
  <course>281.25</course>
  <speed>1.5815182578775373</speed>
  <fix>3d</fix>
</trkpt>
<trkpt lat="40.071376" lon="-105.229754">
  <ele>1583.0</ele>
  <time>2026-08-28T17:52:35Z</time>
  <course>280.11</course>
  <speed>1.74</speed>
  <fix>3d</fix>
</trkpt>
<trkpt lat="40.0713768" lon="-105.2297598">
  <ele>1583.02</ele>
  <time>2026-08-28T17:52:35Z</time>
  <course>281.25</course>
  <speed>1.499333185119305</speed>
  <fix>3d</fix>
</trkpt>
<trkpt lat="40.071376" lon="-105.229754">
  <ele>1583.0</ele>
  <time>2026-08-28T17:52:35Z</time>
  <course>280.11</course>
  <speed>1.74</speed>
  <fix>3d</fix>
</trkpt>
<trkpt lat="40.071377" lon="-105.2297614">
  <ele>1583.02</ele>
  <time>2026-08-28T17:52:35Z</time>
  <course>281.25</course>
  <speed>1.4187670703818862</speed>
  <fix>3d</fix>
</trkpt>
<trkpt lat="40.0713766" lon="-105.2297578">
  <ele>1583.0</ele>
  <time>2026-08-28T17:52:35Z</time>
  <course>280.11</course>
  <speed>1.57</speed>
  <fix>3d</fix>
</trkpt>
<trkpt lat="40.0713772" lon="-105.229763">
  <ele>1583.02</ele>
  <time>2026-08-28T17:52:35Z</time>
  <course>281.25</course>
  <speed>1.3480726983364064</speed>
  <fix>3d</fix>
</trkpt>
<trkpt lat="40.0713766" lon="-105.2297578">
  <ele>1583.0</ele>
  <time>2026-08-28T17:52:35Z</time>
  <course>280.11</course>
  <speed>1.57</speed>
  <fix>3d</fix>
</trkpt>
<trkpt lat="40.0713774" lon="-105.2297645">
  <ele>1583.02</ele>
  <time>2026-08-28T17:52:35Z</time>
  <course>281.25</course>
  <speed>1.2757742747053649</speed>
  <fix>3d</fix>
</trkpt>
<trkpt lat="40.071377" lon="-105.2297613">
  <ele>1583.0</ele>
  <time>2026-08-28T17:52:35Z</time>
  <course>280.11</course>
  <speed>1.42</speed>
  <fix>3d</fix>
</trkpt>
<trkpt lat="40.0713776" lon="-105.2297659">
  <ele>1583.02</ele>
  <time>2026-08-28T17:52:35Z</time>
  <course>281.25</course>
  <speed>1.2050726119201283</speed>
  <fix>3d</fix>
</trkpt>
<trkpt lat="40.071377" lon="-105.2297613">
  <ele>1583.0</ele>
  <time>2026-08-28T17:52:35Z</time>
  <course>280.11</course>
  <speed>1.42</speed>
  <fix>3d</fix>
</trkpt>
<trkpt lat="40.0713777" lon="-105.2297672">
  <ele>1583.02</ele>
  <time>2026-08-28T17:52:35Z</time>
  <course>281.25</course>
  <speed>1.1442464769445437</speed>
  <fix>3d</fix>
</trkpt>
<trkpt lat="40.0713775" lon="-105.2297644">
  <ele>1583.0</ele>
  <time>2026-08-28T17:52:35Z</time>
  <course>280.11</course>
  <speed>1.29</speed>
  <fix>3d</fix>
</trkpt>
<trkpt lat="40.0713779" lon="-105.2297685">
  <ele>1583.02</ele>
  <time>2026-08-28T17:52:35Z</time>
  <course>281.25</course>
  <speed>1.0834205093129814</speed>
  <fix>3d</fix>
</trkpt>
<trkpt lat="40.0713775" lon="-105.2297644">
  <ele>1583.0</ele>
  <time>2026-08-28T17:52:35Z</time>
  <course>280.11</course>
  <speed>1.29</speed>
  <fix>3d</fix>
</trkpt>
<trkpt lat="40.0713781" lon="-105.2297697">
  <ele>1583.01</ele>
  <time>2026-08-28T17:52:35Z</time>
  <course>281.25</course>
  <speed>1.0225947388873073</speed>
  <fix>3d</fix>
</trkpt>
<trkpt lat="40.0713779" lon="-105.2297673">
  <ele>1583.0</ele>
  <time>2026-08-28T17:52:35Z</time>
  <course>280.11</course>
  <speed>1.16</speed>
  <fix>3d</fix>
</trkpt>
<trkpt lat="40.0713782" lon="-105.2297709">
  <ele>1583.01</ele>
  <time>2026-08-28T17:52:35Z</time>
  <course>281.24</course>
  <speed>0.9716480844420988</speed>
  <fix>3d</fix>
</trkpt>
<trkpt lat="40.0713779" lon="-105.2297673">
  <ele>1583.0</ele>
  <time>2026-08-28T17:52:35Z</time>
  <course>280.11</course>
  <speed>1.16</speed>
  <fix>3d</fix>
</trkpt>
<trkpt lat="40.0713784" lon="-105.229772">
  <ele>1583.01</ele>
  <time>2026-08-28T17:52:35Z</time>
  <course>281.24</course>
  <speed>0.9222797840135064</speed>
  <fix>3d</fix>
</trkpt>
<trkpt lat="40.0713783" lon="-105.2297699">
  <ele>1583.0</ele>
  <time>2026-08-28T17:52:35Z</time>
  <course>280.11</course>
  <speed>1.05</speed>
  <fix>3d</fix>
</trkpt>
<trkpt lat="40.0713785" lon="-105.229773">
  <ele>1583.01</ele>
  <time>2026-08-28T17:52:35Z</time>
  <course>281.24</course>
  <speed>0.8713208364316786</speed>
  <fix>3d</fix>
</trkpt>
<trkpt lat="40.0713783" lon="-105.2297699">
  <ele>1583.0</ele>
  <time>2026-08-28T17:52:35Z</time>
  <course>280.11</course>
  <speed>1.05</speed>
  <fix>3d</fix>
</trkpt>
<trkpt lat="40.0713787" lon="-105.229774">
  <ele>1583.01</ele>
  <time>2026-08-28T17:52:35Z</time>
  <course>281.24</course>
  <speed>0.8203657720797473</speed>
  <fix>3d</fix>
</trkpt>
<trkpt lat="40.0713786" lon="-105.2297723">
  <ele>1583.0</ele>
  <time>2026-08-28T17:52:35Z</time>
  <course>280.11</course>
  <speed>0.95</speed>
  <fix>3d</fix>
</trkpt>
<trkpt lat="40.0713788" lon="-105.229775">
  <ele>1583.01</ele>
  <time>2026-08-28T17:52:35Z</time>
  <course>281.24</course>
  <speed>0.7808969202141856</speed>
  <fix>3d</fix>
</trkpt>
<trkpt lat="40.0713786" lon="-105.2297723">
  <ele>1583.0</ele>
  <time>2026-08-28T17:52:35Z</time>
  <course>280.11</course>
  <speed>0.95</speed>
  <fix>3d</fix>
</trkpt>
<trkpt lat="40.0713793" lon="-105.2297784">
  <ele>1583.02</ele>
  <time>2026-08-28T17:52:35Z</time>
  <course>281.24</course>
  <speed>0.6280127387243033</speed>
  <fix>3d</fix>
</trkpt>
<trkpt lat="40.0713791" lon="-105.2297763">
  <ele>1583.0</ele>
  <time>2026-08-28T17:52:35Z</time>
  <course>280.11</course>
  <speed>0.78</speed>
  <fix>3d</fix>
</trkpt>
<trkpt lat="40.0713796" lon="-105.2297801">
  <ele>1583.03</ele>
  <time>2026-08-28T17:52:35Z</time>
  <course>281.24</course>
  <speed>0.5474486277268398</speed>
  <fix>3d</fix>
</trkpt>
<trkpt lat="40.0713794" lon="-105.229778">
  <ele>1583.0</ele>
  <time>2026-08-28T17:52:35Z</time>
  <course>280.11</course>
  <speed>0.7</speed>
  <fix>3d</fix>
</trkpt>
<trkpt lat="40.0713797" lon="-105.2297808">
  <ele>1583.03</ele>
  <time>2026-08-28T17:52:35Z</time>
  <course>281.24</course>
  <speed>0.517880295048962</speed>
  <fix>3d</fix>
</trkpt>
<trkpt lat="40.0713796" lon="-105.2297795">
  <ele>1583.0</ele>
  <time>2026-08-28T17:52:35Z</time>
  <course>280.11</course>
  <speed>0.64</speed>
  <fix>3d</fix>
</trkpt>
<trkpt lat="40.0713798" lon="-105.2297814">
  <ele>1583.03</ele>
  <time>2026-08-28T17:52:35Z</time>
  <course>281.24</course>
  <speed>0.4883646178829912</speed>
  <fix>3d</fix>
</trkpt>
<trkpt lat="40.0713796" lon="-105.2297795">
  <ele>1583.0</ele>
  <time>2026-08-28T17:52:35Z</time>
  <course>280.11</course>
  <speed>0.64</speed>
  <fix>3d</fix>
</trkpt>
<trkpt lat="40.0713799" lon="-105.229782">
  <ele>1583.03</ele>
  <time>2026-08-28T17:52:35Z</time>
  <course>281.25</course>
  <speed>0.4669047011971501</speed>
  <fix>3d</fix>
</trkpt>
<trkpt lat="40.0713798" lon="-105.2297809">
  <ele>1583.0</ele>
  <time>2026-08-28T17:52:35Z</time>
  <course>280.11</course>
  <speed>0.58</speed>
  <fix>3d</fix>
</trkpt>
<trkpt lat="40.0713799" lon="-105.2297825">
  <ele>1583.03</ele>
  <time>2026-08-28T17:52:35Z</time>
  <course>281.25</course>
  <speed>0.4373785545725808</speed>
  <fix>3d</fix>
</trkpt>
<trkpt lat="40.0713798" lon="-105.2297809">
  <ele>1583.0</ele>
  <time>2026-08-28T17:52:35Z</time>
  <course>280.11</course>
  <speed>0.58</speed>
  <fix>3d</fix>
</trkpt>
<trkpt lat="40.0713801" lon="-105.2297836">
  <ele>1583.02</ele>
  <time>2026-08-28T17:52:35Z</time>
  <course>281.25</course>
  <speed>0.38639358172723315</speed>
  <fix>3d</fix>
</trkpt>
<trkpt lat="40.0713801" lon="-105.2297833">
  <ele>1583.0</ele>
  <time>2026-08-28T17:52:35Z</time>
  <course>280.11</course>
  <speed>0.47</speed>
  <fix>3d</fix>
</trkpt>
<trkpt lat="40.0713802" lon="-105.2297841">
  <ele>1583.02</ele>
  <time>2026-08-28T17:52:35Z</time>
  <course>281.26</course>
  <speed>0.366742416417845</speed>
  <fix>3d</fix>
</trkpt>
<trkpt lat="40.0713801" lon="-105.2297833">
  <ele>1583.0</ele>
  <time>2026-08-28T17:52:35Z</time>
  <course>280.11</course>
  <speed>0.47</speed>
  <fix>3d</fix>
</trkpt>
<trkpt lat="40.0713802" lon="-105.2297845">
  <ele>1583.02</ele>
  <time>2026-08-28T17:52:35Z</time>
  <course>281.26</course>
  <speed>0.34713109915419565</speed>
  <fix>3d</fix>
</trkpt>
<trkpt lat="40.0713802" lon="-105.2297844">
  <ele>1583.0</ele>
  <time>2026-08-28T17:52:35Z</time>
  <course>280.11</course>
  <speed>0.42</speed>
  <fix>3d</fix>
</trkpt>
<trkpt lat="40.0713803" lon="-105.229785">
  <ele>1583.01</ele>
  <time>2026-08-28T17:52:35Z</time>
  <course>281.26</course>
  <speed>0.327566787083184</speed>
  <fix>3d</fix>
</trkpt>
<trkpt lat="40.0713802" lon="-105.2297844">
  <ele>1583.0</ele>
  <time>2026-08-28T17:52:35Z</time>
  <course>280.11</course>
  <speed>0.42</speed>
  <fix>3d</fix>
</trkpt>
<trkpt lat="40.0713804" lon="-105.2297854">
  <ele>1583.01</ele>
  <time>2026-08-28T17:52:35Z</time>
  <course>281.27</course>
  <speed>0.3080584360149873</speed>
  <fix>3d</fix>
</trkpt>
<trkpt lat="40.0713803" lon="-105.2297853">
  <ele>1583.0</ele>
  <time>2026-08-28T17:52:35Z</time>
  <course>280.11</course>
  <speed>0.38</speed>
  <fix>3d</fix>
</trkpt>
<trkpt lat="40.0713804" lon="-105.2297858">
  <ele>1583.01</ele>
  <time>2026-08-28T17:52:35Z</time>
  <course>281.27</course>
  <speed>0.29614185789921693</speed>
  <fix>3d</fix>
</trkpt>
<trkpt lat="40.0713803" lon="-105.2297853">
  <ele>1583.0</ele>
  <time>2026-08-28T17:52:35Z</time>
  <course>280.11</course>
  <speed>0.38</speed>
  <fix>3d</fix>
</trkpt>
<trkpt lat="40.0713805" lon="-105.2297862">
  <ele>1583.01</ele>
  <time>2026-08-28T17:52:35Z</time>
  <course>281.27</course>
  <speed>0.2765863337187866</speed>
  <fix>3d</fix>
</trkpt>
<trkpt lat="40.0713805" lon="-105.2297862">
  <ele>1583.0</ele>
  <time>2026-08-28T17:52:35Z</time>
  <course>280.11</course>
  <speed>0.35</speed>
  <fix>3d</fix>
</trkpt>
<trkpt lat="40.0713806" lon="-105.2297866">
  <ele>1583.01</ele>
  <time>2026-08-28T17:52:35Z</time>
  <course>281.28</course>
  <speed>0.2570992026436488</speed>
  <fix>3d</fix>
</trkpt>
<trkpt lat="40.0713805" lon="-105.2297862">
  <ele>1583.0</ele>
  <time>2026-08-28T17:52:35Z</time>
  <course>280.11</course>
  <speed>0.35</speed>
  <fix>3d</fix>
</trkpt>
<trkpt lat="40.0713806" lon="-105.2297869">
  <ele>1583.01</ele>
  <time>2026-08-28T17:52:35Z</time>
  <course>281.28</course>
  <speed>0.24738633753705963</speed>
  <fix>3d</fix>
</trkpt>
<trkpt lat="40.0713806" lon="-105.2297869">
  <ele>1583.0</ele>
  <time>2026-08-28T17:52:35Z</time>
  <course>280.11</course>
  <speed>0.31</speed>
  <fix>3d</fix>
</trkpt>
<trkpt lat="40.0713807" lon="-105.2297872">
  <ele>1583.02</ele>
  <time>2026-08-28T17:52:35Z</time>
  <course>281.28</course>
  <speed>0.23769728648009425</speed>
  <fix>3d</fix>
</trkpt>
<trkpt lat="40.0713806" lon="-105.2297869">
  <ele>1583.0</ele>
  <time>2026-08-28T17:52:35Z</time>
  <course>280.11</course>
  <speed>0.31</speed>
  <fix>3d</fix>
</trkpt>
<trkpt lat="40.0713807" lon="-105.2297875">
  <ele>1583.02</ele>
  <time>2026-08-28T17:52:35Z</time>
  <course>281.29</course>
  <speed>0.21840329667841554</speed>
  <fix>3d</fix>
</trkpt>
<trkpt lat="40.0713807" lon="-105.2297877">
  <ele>1583.0</ele>
  <time>2026-08-28T17:52:35Z</time>
  <course>280.1</course>
  <speed>0.28</speed>
  <fix>3d</fix>
</trkpt>
<trkpt lat="40.0713808" lon="-105.2297879">
  <ele>1583.02</ele>
  <time>2026-08-28T17:52:35Z</time>
  <course>281.29</course>
  <speed>0.20615528128088303</speed>
  <fix>3d</fix>
</trkpt>
<trkpt lat="40.0713807" lon="-105.2297877">
  <ele>1583.0</ele>
  <time>2026-08-28T17:52:35Z</time>
  <course>280.1</course>
  <speed>0.28</speed>
  <fix>3d</fix>
</trkpt>
<trkpt lat="40.0713808" lon="-105.2297881">
  <ele>1583.02</ele>
  <time>2026-08-28T17:52:35Z</time>
  <course>281.29</course>
  <speed>0.196468827043885</speed>
  <fix>3d</fix>
</trkpt>
<trkpt lat="40.0713808" lon="-105.2297883">
  <ele>1583.0</ele>
  <time>2026-08-28T17:52:35Z</time>
  <course>280.1</course>
  <speed>0.26</speed>
  <fix>3d</fix>
</trkpt>
<trkpt lat="40.0713809" lon="-105.2297884">
  <ele>1583.02</ele>
  <time>2026-08-28T17:52:35Z</time>
  <course>281.29</course>
  <speed>0.18681541692269404</speed>
  <fix>3d</fix>
</trkpt>
<trkpt lat="40.0713808" lon="-105.2297883">
  <ele>1583.0</ele>
  <time>2026-08-28T17:52:35Z</time>
  <course>280.1</course>
  <speed>0.26</speed>
  <fix>3d</fix>
</trkpt>
<trkpt lat="40.0713809" lon="-105.2297887">
  <ele>1583.03</ele>
  <time>2026-08-28T17:52:35Z</time>
  <course>281.3</course>
  <speed>0.1772004514666935</speed>
  <fix>3d</fix>
</trkpt>
<trkpt lat="40.0713808" lon="-105.2297883">
  <ele>1583.0</ele>
  <time>2026-08-28T17:52:35Z</time>
  <course>280.1</course>
  <speed>0.26</speed>
  <fix>3d</fix>
</trkpt>
<trkpt lat="40.071381" lon="-105.2297889">
  <ele>1583.02</ele>
  <time>2026-08-28T17:52:35Z</time>
  <course>281.3</course>
  <speed>0.1676305461424021</speed>
  <fix>3d</fix>
</trkpt>
<trkpt lat="40.0713808" lon="-105.2297888">
  <ele>1583.0</ele>
  <time>2026-08-28T17:52:35Z</time>
  <course>280.1</course>
  <speed>0.23</speed>
  <fix>3d</fix>
</trkpt>
<trkpt lat="40.071381" lon="-105.2297892">
  <ele>1583.02</ele>
  <time>2026-08-28T17:52:35Z</time>
  <course>281.3</course>
  <speed>0.15811388300841897</speed>
  <fix>3d</fix>
</trkpt>
<trkpt lat="40.0713808" lon="-105.2297888">
  <ele>1583.0</ele>
  <time>2026-08-28T17:52:35Z</time>
  <course>280.1</course>
  <speed>0.23</speed>
  <fix>3d</fix>
</trkpt>
<trkpt lat="40.071381" lon="-105.2297894">
  <ele>1583.02</ele>
  <time>2026-08-28T17:52:35Z</time>
  <course>281.3</course>
  <speed>0.14866068747318506</speed>
  <fix>3d</fix>
</trkpt>
<trkpt lat="40.0713809" lon="-105.2297894">
  <ele>1583.0</ele>
  <time>2026-08-28T17:52:35Z</time>
  <course>280.1</course>
  <speed>0.21</speed>
  <fix>3d</fix>
</trkpt>
<trkpt lat="40.0713811" lon="-105.2297896">
  <ele>1583.01</ele>
  <time>2026-08-28T17:52:35Z</time>
  <course>281.31</course>
  <speed>0.1392838827718412</speed>
  <fix>3d</fix>
</trkpt>
<trkpt lat="40.0713809" lon="-105.2297894">
  <ele>1583.0</ele>
  <time>2026-08-28T17:52:35Z</time>
  <course>280.1</course>
  <speed>0.21</speed>
  <fix>3d</fix>
</trkpt>
<trkpt lat="40.0713811" lon="-105.2297898">
  <ele>1583.0</ele>
  <time>2026-08-28T17:52:35Z</time>
  <course>281.31</course>
  <speed>0.13</speed>
  <fix>3d</fix>
</trkpt>
<trkpt lat="40.0713809" lon="-105.2297898">
  <ele>1583.0</ele>
  <time>2026-08-28T17:52:35Z</time>
  <course>280.1</course>
  <speed>0.19</speed>
  <fix>3d</fix>
</trkpt>
<trkpt lat="40.0713811" lon="-105.22979">
  <ele>1582.99</ele>
  <time>2026-08-28T17:52:35Z</time>
  <course>281.31</course>
  <speed>0.11704699910719625</speed>
  <fix>3d</fix>
</trkpt>
<trkpt lat="40.0713809" lon="-105.2297898">
  <ele>1583.0</ele>
  <time>2026-08-28T17:52:35Z</time>
  <course>280.1</course>
  <speed>0.19</speed>
  <fix>3d</fix>
</trkpt>
<trkpt lat="40.0713812" lon="-105.2297902">
  <ele>1582.99</ele>
  <time>2026-08-28T17:52:35Z</time>
  <course>281.31</course>
  <speed>0.11704699910719625</speed>
  <fix>3d</fix>
</trkpt>
<trkpt lat="40.071381" lon="-105.2297902">
  <ele>1583.0</ele>
  <time>2026-08-28T17:52:35Z</time>
  <course>280.1</course>
  <speed>0.17</speed>
  <fix>3d</fix>
</trkpt>
<trkpt lat="40.0713812" lon="-105.2297904">
  <ele>1582.98</ele>
  <time>2026-08-28T17:52:35Z</time>
  <course>281.32</course>
  <speed>0.10770329614269007</speed>
  <fix>3d</fix>
</trkpt>
<trkpt lat="40.071381" lon="-105.2297907">
  <ele>1583.0</ele>
  <time>2026-08-28T17:52:35Z</time>
  <course>280.1</course>
  <speed>0.15</speed>
  <fix>3d</fix>
</trkpt>
<trkpt lat="40.0713812" lon="-105.2297905">
  <ele>1582.98</ele>
  <time>2026-08-28T17:52:35Z</time>
  <course>281.32</course>
  <speed>0.09848857801796104</speed>
  <fix>3d</fix>
</trkpt>
<trkpt lat="40.071381" lon="-105.2297907">
  <ele>1583.0</ele>
  <time>2026-08-28T17:52:35Z</time>
  <course>280.1</course>
  <speed>0.15</speed>
  <fix>3d</fix>
</trkpt>
<trkpt lat="40.0713812" lon="-105.2297907">
  <ele>1582.98</ele>
  <time>2026-08-28T17:52:35Z</time>
  <course>281.32</course>
  <speed>0.09848857801796104</speed>
  <fix>3d</fix>
</trkpt>
<trkpt lat="40.0713811" lon="-105.229791">
  <ele>1583.0</ele>
  <time>2026-08-28T17:52:35Z</time>
  <course>280.1</course>
  <speed>0.14</speed>
  <fix>3d</fix>
</trkpt>
<trkpt lat="40.0713812" lon="-105.2297909">
  <ele>1582.97</ele>
  <time>2026-08-28T17:52:35Z</time>
  <course>281.32</course>
  <speed>0.08944271909999159</speed>
  <fix>3d</fix>
</trkpt>
<trkpt lat="40.0713811" lon="-105.229791">
  <ele>1583.0</ele>
  <time>2026-08-28T17:52:35Z</time>
  <course>280.1</course>
  <speed>0.14</speed>
  <fix>3d</fix>
</trkpt>
<trkpt lat="40.0713813" lon="-105.229791">
  <ele>1582.96</ele>
  <time>2026-08-28T17:52:35Z</time>
  <course>281.32</course>
  <speed>0.08944271909999159</speed>
  <fix>3d</fix>
</trkpt>
<trkpt lat="40.0713812" lon="-105.2297913">
  <ele>1583.0</ele>
  <time>2026-08-28T17:52:35Z</time>
  <course>280.1</course>
  <speed>0.12</speed>
  <fix>3d</fix>
</trkpt>
<trkpt lat="40.0713813" lon="-105.2297912">
  <ele>1582.96</ele>
  <time>2026-08-28T17:52:35Z</time>
  <course>281.32</course>
  <speed>0.08062257748298549</speed>
  <fix>3d</fix>
</trkpt>
<trkpt lat="40.0713812" lon="-105.2297913">
  <ele>1583.0</ele>
  <time>2026-08-28T17:52:35Z</time>
  <course>280.1</course>
  <speed>0.12</speed>
  <fix>3d</fix>
</trkpt>
<trkpt lat="40.0713813" lon="-105.2297913">
  <ele>1582.95</ele>
  <time>2026-08-28T17:52:35Z</time>
  <course>281.32</course>
  <speed>0.08062257748298549</speed>
  <fix>3d</fix>
</trkpt>
<trkpt lat="40.0713812" lon="-105.2297916">
  <ele>1583.0</ele>
  <time>2026-08-28T17:52:35Z</time>
  <course>280.1</course>
  <speed>0.11</speed>
  <fix>3d</fix>
</trkpt>
<trkpt lat="40.0713813" lon="-105.2297914">
  <ele>1582.95</ele>
  <time>2026-08-28T17:52:35Z</time>
  <course>281.32</course>
  <speed>0.07211102550927978</speed>
  <fix>3d</fix>
</trkpt>
<trkpt lat="40.0713812" lon="-105.2297916">
  <ele>1583.0</ele>
  <time>2026-08-28T17:52:35Z</time>
  <course>280.1</course>
  <speed>0.11</speed>
  <fix>3d</fix>
</trkpt>
<trkpt lat="40.0713814" lon="-105.2297916">
  <ele>1582.95</ele>
  <time>2026-08-28T17:52:35Z</time>
  <course>281.32</course>
  <speed>0.07211102550927978</speed>
  <fix>3d</fix>
</trkpt>
<trkpt lat="40.0713813" lon="-105.2297919">
  <ele>1583.0</ele>
  <time>2026-08-28T17:52:35Z</time>
  <course>280.1</course>
  <speed>0.1</speed>
  <fix>3d</fix>
</trkpt>
<trkpt lat="40.0713814" lon="-105.2297917">
  <ele>1582.95</ele>
  <time>2026-08-28T17:52:35Z</time>
  <course>281.32</course>
  <speed>0.07211102550927978</speed>
  <fix>3d</fix>
</trkpt>
<trkpt lat="40.0713813" lon="-105.2297919">
  <ele>1583.0</ele>
  <time>2026-08-28T17:52:35Z</time>
  <course>280.1</course>
  <speed>0.1</speed>
  <fix>3d</fix>
</trkpt>
<trkpt lat="40.0713814" lon="-105.2297918">
  <ele>1582.95</ele>
  <time>2026-08-28T17:52:35Z</time>
  <course>281.32</course>
  <speed>0.06403124237432849</speed>
  <fix>3d</fix>
</trkpt>
<trkpt lat="40.0713813" lon="-105.2297921">
  <ele>1583.0</ele>
  <time>2026-08-28T17:52:35Z</time>
  <course>280.1</course>
  <speed>0.09</speed>
  <fix>3d</fix>
</trkpt>
<trkpt lat="40.0713814" lon="-105.2297919">
  <ele>1582.95</ele>
  <time>2026-08-28T17:52:35Z</time>
  <course>281.32</course>
  <speed>0.05830951894845301</speed>
  <fix>3d</fix>
</trkpt>
<trkpt lat="40.0713813" lon="-105.2297921">
  <ele>1583.0</ele>
  <time>2026-08-28T17:52:35Z</time>
  <course>280.1</course>
  <speed>0.09</speed>
  <fix>3d</fix>
</trkpt>
<trkpt lat="40.0713814" lon="-105.229792">
  <ele>1582.96</ele>
  <time>2026-08-28T17:52:35Z</time>
  <course>281.32</course>
  <speed>0.05</speed>
  <fix>3d</fix>
</trkpt>
<trkpt lat="40.0713813" lon="-105.2297921">
  <ele>1583.0</ele>
  <time>2026-08-28T17:52:35Z</time>
  <course>280.1</course>
  <speed>0.09</speed>
  <fix>3d</fix>
</trkpt>
<trkpt lat="40.0713815" lon="-105.2297921">
  <ele>1582.96</ele>
  <time>2026-08-28T17:52:35Z</time>
  <course>281.32</course>
  <speed>0.05</speed>
  <fix>3d</fix>
</trkpt>
<trkpt lat="40.0713813" lon="-105.2297924">
  <ele>1583.0</ele>
  <time>2026-08-28T17:52:35Z</time>
  <course>280.1</course>
  <speed>0.08</speed>
  <fix>3d</fix>
</trkpt>
<trkpt lat="40.0713815" lon="-105.2297922">
  <ele>1582.97</ele>
  <time>2026-08-28T17:52:35Z</time>
  <course>281.32</course>
  <speed>0.05</speed>
  <fix>3d</fix>
</trkpt>
<trkpt lat="40.0713813" lon="-105.2297924">
  <ele>1583.0</ele>
  <time>2026-08-28T17:52:35Z</time>
  <course>280.1</course>
  <speed>0.08</speed>
  <fix>3d</fix>
</trkpt>
<trkpt lat="40.0713815" lon="-105.2297923">
  <ele>1582.97</ele>
  <time>2026-08-28T17:52:35Z</time>
  <course>281.32</course>
  <speed>0.05</speed>
  <fix>3d</fix>
</trkpt>
<trkpt lat="40.0713814" lon="-105.2297925">
  <ele>1583.0</ele>
  <time>2026-08-28T17:52:35Z</time>
  <course>280.1</course>
  <speed>0.07</speed>
  <fix>3d</fix>
</trkpt>
<trkpt lat="40.0713815" lon="-105.2297924">
  <ele>1582.98</ele>
  <time>2026-08-28T17:52:35Z</time>
  <course>281.32</course>
  <speed>0.04242640687119285</speed>
  <fix>3d</fix>
</trkpt>
<trkpt lat="40.0713814" lon="-105.2297925">
  <ele>1583.0</ele>
  <time>2026-08-28T17:52:35Z</time>
  <course>280.1</course>
  <speed>0.07</speed>
  <fix>3d</fix>
</trkpt>
<trkpt lat="40.0713815" lon="-105.2297925">
  <ele>1582.98</ele>
  <time>2026-08-28T17:52:35Z</time>
  <course>281.32</course>
  <speed>0.04242640687119285</speed>
  <fix>3d</fix>
</trkpt>
<trkpt lat="40.0713814" lon="-105.2297926">
  <ele>1583.0</ele>
  <time>2026-08-28T17:52:35Z</time>
  <course>280.1</course>
  <speed>0.07</speed>
  <fix>3d</fix>
</trkpt>
<trkpt lat="40.0713815" lon="-105.2297925">
  <ele>1582.99</ele>
  <time>2026-08-28T17:52:35Z</time>
  <course>281.32</course>
  <speed>0.04242640687119285</speed>
  <fix>3d</fix>
</trkpt>
<trkpt lat="40.0713814" lon="-105.2297926">
  <ele>1583.0</ele>
  <time>2026-08-28T17:52:35Z</time>
  <course>280.1</course>
  <speed>0.07</speed>
  <fix>3d</fix>
</trkpt>
<trkpt lat="40.0713816" lon="-105.2297926">
  <ele>1583.0</ele>
  <time>2026-08-28T17:52:35Z</time>
  <course>281.32</course>
  <speed>0.04242640687119285</speed>
  <fix>3d</fix>
</trkpt>
<trkpt lat="40.0713814" lon="-105.2297929">
  <ele>1583.0</ele>
  <time>2026-08-28T17:52:35Z</time>
  <course>280.1</course>
  <speed>0.06</speed>
  <fix>3d</fix>
</trkpt>
<trkpt lat="40.0713816" lon="-105.2297927">
  <ele>1583.0</ele>
  <time>2026-08-28T17:52:35Z</time>
  <course>281.32</course>
  <speed>0.03605551275463989</speed>
  <fix>3d</fix>
</trkpt>
<trkpt lat="40.0713814" lon="-105.229793">
  <ele>1583.0</ele>
  <time>2026-08-28T17:52:35Z</time>
  <course>280.1</course>
  <speed>0.05</speed>
  <fix>3d</fix>
</trkpt>
<trkpt lat="40.0713816" lon="-105.2297928">
  <ele>1583.01</ele>
  <time>2026-08-28T17:52:35Z</time>
  <course>281.32</course>
  <speed>0.03605551275463989</speed>
  <fix>3d</fix>
</trkpt>
<trkpt lat="40.0713814" lon="-105.229793">
  <ele>1583.0</ele>
  <time>2026-08-28T17:52:35Z</time>
  <course>280.1</course>
  <speed>0.05</speed>
  <fix>3d</fix>
</trkpt>
<trkpt lat="40.0713816" lon="-105.2297928">
  <ele>1583.01</ele>
  <time>2026-08-28T17:52:35Z</time>
  <course>281.31</course>
  <speed>0.03605551275463989</speed>
  <fix>3d</fix>
</trkpt>
<trkpt lat="40.0713814" lon="-105.2297931">
  <ele>1583.0</ele>
  <time>2026-08-28T17:52:35Z</time>
  <course>280.1</course>
  <speed>0.05</speed>
  <fix>3d</fix>
</trkpt>
<trkpt lat="40.0713816" lon="-105.2297929">
  <ele>1583.01</ele>
  <time>2026-08-28T17:52:35Z</time>
  <course>281.31</course>
  <speed>0.03605551275463989</speed>
  <fix>3d</fix>
</trkpt>
<trkpt lat="40.0713814" lon="-105.2297931">
  <ele>1583.0</ele>
  <time>2026-08-28T17:52:35Z</time>
  <course>280.1</course>
  <speed>0.05</speed>
  <fix>3d</fix>
</trkpt>
<trkpt lat="40.0713816" lon="-105.229793">
  <ele>1583.01</ele>
  <time>2026-08-28T17:52:35Z</time>
  <course>281.31</course>
  <speed>0.03605551275463989</speed>
  <fix>3d</fix>
</trkpt>
<trkpt lat="40.0713815" lon="-105.2297932">
  <ele>1583.0</ele>
  <time>2026-08-28T17:52:35Z</time>
  <course>280.1</course>
  <speed>0.04</speed>
  <fix>3d</fix>
</trkpt>
<trkpt lat="40.0713816" lon="-105.229793">
  <ele>1583.0</ele>
  <time>2026-08-28T17:52:35Z</time>
  <course>281.31</course>
  <speed>0.0316227766016838</speed>
  <fix>3d</fix>
</trkpt>
<trkpt lat="40.0713815" lon="-105.2297932">
  <ele>1583.0</ele>
  <time>2026-08-28T17:52:35Z</time>
  <course>280.1</course>
  <speed>0.04</speed>
  <fix>3d</fix>
</trkpt>
<trkpt lat="40.0713816" lon="-105.2297931">
  <ele>1583.0</ele>
  <time>2026-08-28T17:52:35Z</time>
  <course>281.31</course>
  <speed>0.0316227766016838</speed>
  <fix>3d</fix>
</trkpt>
<trkpt lat="40.0713815" lon="-105.2297933">
  <ele>1583.0</ele>
  <time>2026-08-28T17:52:35Z</time>
  <course>280.1</course>
  <speed>0.04</speed>
  <fix>3d</fix>
</trkpt>
<trkpt lat="40.0713816" lon="-105.2297931">
  <ele>1582.99</ele>
  <time>2026-08-28T17:52:35Z</time>
  <course>281.31</course>
  <speed>0.0316227766016838</speed>
  <fix>3d</fix>
</trkpt>
<trkpt lat="40.0713815" lon="-105.2297933">
  <ele>1583.0</ele>
  <time>2026-08-28T17:52:35Z</time>
  <course>280.1</course>
  <speed>0.04</speed>
  <fix>3d</fix>
</trkpt>
<trkpt lat="40.0713816" lon="-105.2297932">
  <ele>1582.99</ele>
  <time>2026-08-28T17:52:35Z</time>
  <course>281.31</course>
  <speed>0.0316227766016838</speed>
  <fix>3d</fix>
</trkpt>
<trkpt lat="40.0713815" lon="-105.2297934">
  <ele>1583.0</ele>
  <time>2026-08-28T17:52:35Z</time>
  <course>280.09</course>
  <speed>0.03</speed>
  <fix>3d</fix>
</trkpt>
<trkpt lat="40.0713816" lon="-105.2297932">
  <ele>1582.99</ele>
  <time>2026-08-28T17:52:35Z</time>
  <course>281.31</course>
  <speed>0.0316227766016838</speed>
  <fix>3d</fix>
</trkpt>
<trkpt lat="40.0713815" lon="-105.2297934">
  <ele>1583.0</ele>
  <time>2026-08-28T17:52:35Z</time>
  <course>280.09</course>
  <speed>0.03</speed>
  <fix>3d</fix>
</trkpt>
<trkpt lat="40.0713816" lon="-105.2297933">
  <ele>1582.98</ele>
  <time>2026-08-28T17:52:35Z</time>
  <course>281.31</course>
  <speed>0.0316227766016838</speed>
  <fix>3d</fix>
</trkpt>
<trkpt lat="40.0713815" lon="-105.2297935">
  <ele>1583.0</ele>
  <time>2026-08-28T17:52:35Z</time>
  <course>280.09</course>
  <speed>0.03</speed>
  <fix>3d</fix>
</trkpt>
<trkpt lat="40.0713816" lon="-105.2297933">
  <ele>1582.98</ele>
  <time>2026-08-28T17:52:35Z</time>
  <course>281.31</course>
  <speed>0.022360679774997897</speed>
  <fix>3d</fix>
</trkpt>
<trkpt lat="40.0713815" lon="-105.2297935">
  <ele>1583.0</ele>
  <time>2026-08-28T17:52:35Z</time>
  <course>280.09</course>
  <speed>0.03</speed>
  <fix>3d</fix>
</trkpt>
<trkpt lat="40.0713817" lon="-105.2297933">
  <ele>1582.98</ele>
  <time>2026-08-28T17:52:35Z</time>
  <course>281.3</course>
  <speed>0.02</speed>
  <fix>3d</fix>
</trkpt>
<trkpt lat="40.0713815" lon="-105.2297936">
  <ele>1583.0</ele>
  <time>2026-08-28T17:52:35Z</time>
  <course>280.09</course>
  <speed>0.03</speed>
  <fix>3d</fix>
</trkpt>
<trkpt lat="40.0713817" lon="-105.2297934">
  <ele>1582.97</ele>
  <time>2026-08-28T17:52:35Z</time>
  <course>281.3</course>
  <speed>0.02</speed>
  <fix>3d</fix>
</trkpt>
<trkpt lat="40.0713815" lon="-105.2297936">
  <ele>1583.0</ele>
  <time>2026-08-28T17:52:35Z</time>
  <course>280.09</course>
  <speed>0.03</speed>
  <fix>3d</fix>
</trkpt>
<trkpt lat="40.0713817" lon="-105.2297934">
  <ele>1582.97</ele>
  <time>2026-08-28T17:52:35Z</time>
  <course>281.3</course>
  <speed>0.02</speed>
  <fix>3d</fix>
</trkpt>
<trkpt lat="40.0713815" lon="-105.2297936">
  <ele>1583.0</ele>
  <time>2026-08-28T17:52:35Z</time>
  <course>280.09</course>
  <speed>0.03</speed>
  <fix>3d</fix>
</trkpt>
<trkpt lat="40.0713817" lon="-105.2297934">
  <ele>1582.96</ele>
  <time>2026-08-28T17:52:35Z</time>
  <course>281.3</course>
  <speed>0.02</speed>
  <fix>3d</fix>
</trkpt>
<trkpt lat="40.0713815" lon="-105.2297937">
  <ele>1583.0</ele>
  <time>2026-08-28T17:52:35Z</time>
  <course>280.09</course>
  <speed>0.02</speed>
  <fix>3d</fix>
</trkpt>
<trkpt lat="40.0713817" lon="-105.2297935">
  <ele>1582.95</ele>
  <time>2026-08-28T17:52:35Z</time>
  <course>281.3</course>
  <speed>0.02</speed>
  <fix>3d</fix>
</trkpt>
<trkpt lat="40.0713815" lon="-105.2297937">
  <ele>1583.0</ele>
  <time>2026-08-28T17:52:35Z</time>
  <course>280.09</course>
  <speed>0.02</speed>
  <fix>3d</fix>
</trkpt>
<trkpt lat="40.0713817" lon="-105.2297935">
  <ele>1582.95</ele>
  <time>2026-08-28T17:52:35Z</time>
  <course>281.3</course>
  <speed>0.02</speed>
  <fix>3d</fix>
</trkpt>
<trkpt lat="40.0713815" lon="-105.2297937">
  <ele>1583.0</ele>
  <time>2026-08-28T17:52:35Z</time>
  <course>280.09</course>
  <speed>0.02</speed>
  <fix>3d</fix>
</trkpt>
<trkpt lat="40.0713817" lon="-105.2297935">
  <ele>1582.94</ele>
  <time>2026-08-28T17:52:35Z</time>
  <course>281.3</course>
  <speed>0.02</speed>
  <fix>3d</fix>
</trkpt>
<trkpt lat="40.0713815" lon="-105.2297937">
  <ele>1583.0</ele>
  <time>2026-08-28T17:52:35Z</time>
  <course>280.09</course>
  <speed>0.02</speed>
  <fix>3d</fix>
</trkpt>
<trkpt lat="40.0713817" lon="-105.2297936">
  <ele>1582.93</ele>
  <time>2026-08-28T17:52:35Z</time>
  <course>281.3</course>
  <speed>0.02</speed>
  <fix>3d</fix>
</trkpt>
<trkpt lat="40.0713815" lon="-105.2297938">
  <ele>1583.0</ele>
  <time>2026-08-28T17:52:35Z</time>
  <course>280.09</course>
  <speed>0.02</speed>
  <fix>3d</fix>
</trkpt>
<trkpt lat="40.0713817" lon="-105.2297936">
  <ele>1582.92</ele>
  <time>2026-08-28T17:52:35Z</time>
  <course>281.3</course>
  <speed>0.02</speed>
  <fix>3d</fix>
</trkpt>
<trkpt lat="40.0713815" lon="-105.2297938">
  <ele>1583.0</ele>
  <time>2026-08-28T17:52:35Z</time>
  <course>280.08</course>
  <speed>0.02</speed>
  <fix>3d</fix>
</trkpt>
<trkpt lat="40.0713817" lon="-105.2297936">
  <ele>1582.91</ele>
  <time>2026-08-28T17:52:35Z</time>
  <course>281.3</course>
  <speed>0.02</speed>
  <fix>3d</fix>
</trkpt>
<trkpt lat="40.0713815" lon="-105.2297938">
  <ele>1583.0</ele>
  <time>2026-08-28T17:52:35Z</time>
  <course>280.08</course>
  <speed>0.02</speed>
  <fix>3d</fix>
</trkpt>
<trkpt lat="40.0713817" lon="-105.2297936">
  <ele>1582.91</ele>
  <time>2026-08-28T17:52:35Z</time>
  <course>281.29</course>
  <speed>0.02</speed>
  <fix>3d</fix>
</trkpt>
<trkpt lat="40.0713815" lon="-105.2297938">
  <ele>1583.0</ele>
  <time>2026-08-28T17:52:35Z</time>
  <course>280.08</course>
  <speed>0.01</speed>
  <fix>3d</fix>
</trkpt>
<trkpt lat="40.0713817" lon="-105.2297937">
  <ele>1582.91</ele>
  <time>2026-08-28T17:52:35Z</time>
  <course>281.29</course>
  <speed>0.02</speed>
  <fix>3d</fix>
</trkpt>
<trkpt lat="40.0713815" lon="-105.2297938">
  <ele>1583.0</ele>
  <time>2026-08-28T17:52:35Z</time>
  <course>280.08</course>
  <speed>0.01</speed>
  <fix>3d</fix>
</trkpt>
<trkpt lat="40.0713817" lon="-105.2297937">
  <ele>1582.91</ele>
  <time>2026-08-28T17:52:35Z</time>
  <course>281.29</course>
  <speed>0.02</speed>
  <fix>3d</fix>
</trkpt>
<trkpt lat="40.0713815" lon="-105.2297939">
  <ele>1583.0</ele>
  <time>2026-08-28T17:52:35Z</time>
  <course>280.08</course>
  <speed>0.01</speed>
  <fix>3d</fix>
</trkpt>
<trkpt lat="40.0713816" lon="-105.2297937">
  <ele>1582.92</ele>
  <time>2026-08-28T17:52:35Z</time>
  <course>281.29</course>
  <speed>0.02</speed>
  <fix>3d</fix>
</trkpt>
<trkpt lat="40.0713815" lon="-105.2297939">
  <ele>1583.0</ele>
  <time>2026-08-28T17:52:35Z</time>
  <course>280.08</course>
  <speed>0.01</speed>
  <fix>3d</fix>
</trkpt>
<trkpt lat="40.0713816" lon="-105.2297937">
  <ele>1582.93</ele>
  <time>2026-08-28T17:52:35Z</time>
  <course>281.29</course>
  <speed>0.02</speed>
  <fix>3d</fix>
</trkpt>
<trkpt lat="40.0713815" lon="-105.229794">
  <ele>1583.0</ele>
  <time>2026-08-28T17:52:35Z</time>
  <course>280.08</course>
  <speed>0.01</speed>
  <fix>3d</fix>
</trkpt>
<trkpt lat="40.0713816" lon="-105.2297937">
  <ele>1582.94</ele>
  <time>2026-08-28T17:52:35Z</time>
  <course>281.29</course>
  <speed>0.01</speed>
  <fix>3d</fix>
</trkpt>
<trkpt lat="40.0713815" lon="-105.229794">
  <ele>1583.0</ele>
  <time>2026-08-28T17:52:35Z</time>
  <course>280.08</course>
  <speed>0.01</speed>
  <fix>3d</fix>
</trkpt>
<trkpt lat="40.0713816" lon="-105.2297938">
  <ele>1582.95</ele>
  <time>2026-08-28T17:52:35Z</time>
  <course>281.29</course>
  <speed>0.01</speed>
  <fix>3d</fix>
</trkpt>
<trkpt lat="40.0713815" lon="-105.229794">
  <ele>1583.0</ele>
  <time>2026-08-28T17:52:35Z</time>
  <course>280.07</course>
  <speed>0.01</speed>
  <fix>3d</fix>
</trkpt>
<trkpt lat="40.0713816" lon="-105.2297938">
  <ele>1582.96</ele>
  <time>2026-08-28T17:52:35Z</time>
  <course>281.29</course>
  <speed>0.01</speed>
  <fix>3d</fix>
</trkpt>
<trkpt lat="40.0713815" lon="-105.229794">
  <ele>1583.0</ele>
  <time>2026-08-28T17:52:35Z</time>
  <course>280.07</course>
  <speed>0.01</speed>
  <fix>3d</fix>
</trkpt>
<trkpt lat="40.0713816" lon="-105.2297938">
  <ele>1582.97</ele>
  <time>2026-08-28T17:52:35Z</time>
  <course>281.29</course>
  <speed>0.01</speed>
  <fix>3d</fix>
</trkpt>
<trkpt lat="40.0713815" lon="-105.229794">
  <ele>1583.0</ele>
  <time>2026-08-28T17:52:35Z</time>
  <course>280.07</course>
  <speed>0.01</speed>
  <fix>3d</fix>
</trkpt>
<trkpt lat="40.0713816" lon="-105.2297938">
  <ele>1582.98</ele>
  <time>2026-08-28T17:52:35Z</time>
  <course>281.29</course>
  <speed>0.01</speed>
  <fix>3d</fix>
</trkpt>
<trkpt lat="40.0713815" lon="-105.229794">
  <ele>1583.0</ele>
  <time>2026-08-28T17:52:35Z</time>
  <course>280.07</course>
  <speed>0.01</speed>
  <fix>3d</fix>
</trkpt>
<trkpt lat="40.0713816" lon="-105.2297938">
  <ele>1582.99</ele>
  <time>2026-08-28T17:52:35Z</time>
  <course>281.29</course>
  <speed>0.01</speed>
  <fix>3d</fix>
</trkpt>
<trkpt lat="40.0713815" lon="-105.229794">
  <ele>1583.0</ele>
  <time>2026-08-28T17:52:35Z</time>
  <course>280.07</course>
  <speed>0.01</speed>
  <fix>3d</fix>
</trkpt>
<trkpt lat="40.0713816" lon="-105.2297938">
  <ele>1582.99</ele>
  <time>2026-08-28T17:52:35Z</time>
  <course>281.29</course>
  <speed>0.01</speed>
  <fix>3d</fix>
</trkpt>
<trkpt lat="40.0713815" lon="-105.229794">
  <ele>1583.0</ele>
  <time>2026-08-28T17:52:35Z</time>
  <course>280.07</course>
  <speed>0.01</speed>
  <fix>3d</fix>
</trkpt>
<trkpt lat="40.0713816" lon="-105.2297938">
  <ele>1582.99</ele>
  <time>2026-08-28T17:52:35Z</time>
  <course>281.29</course>
  <speed>0.01</speed>
  <fix>3d</fix>
</trkpt>
<trkpt lat="40.0713815" lon="-105.229794">
  <ele>1583.0</ele>
  <time>2026-08-28T17:52:35Z</time>
  <course>280.07</course>
  <speed>0.01</speed>
  <fix>3d</fix>
</trkpt>
<trkpt lat="40.0713816" lon="-105.2297938">
  <ele>1583.0</ele>
  <time>2026-08-28T17:52:35Z</time>
  <course>281.29</course>
  <speed>0.01</speed>
  <fix>3d</fix>
</trkpt>
<trkpt lat="40.0713815" lon="-105.229794">
  <ele>1583.0</ele>
  <time>2026-08-28T17:52:35Z</time>
  <course>280.06</course>
  <speed>0.01</speed>
  <fix>3d</fix>
</trkpt>
<trkpt lat="40.0713816" lon="-105.2297938">
  <ele>1583.0</ele>
  <time>2026-08-28T17:52:35Z</time>
  <course>281.29</course>
  <speed>0.01414213562373095</speed>
  <fix>3d</fix>
</trkpt>
<trkpt lat="40.0713815" lon="-105.229794">
  <ele>1583.0</ele>
  <time>2026-08-28T17:52:35Z</time>
  <course>280.06</course>
  <speed>0.01</speed>
  <fix>3d</fix>
</trkpt>
<trkpt lat="40.0713816" lon="-105.2297939">
  <ele>1583.0</ele>
  <time>2026-08-28T17:52:35Z</time>
  <course>281.29</course>
  <speed>0.01414213562373095</speed>
  <fix>3d</fix>
</trkpt>
<trkpt lat="40.0713815" lon="-105.2297941">
  <ele>1583.0</ele>
  <time>2026-08-28T17:52:35Z</time>
  <course>280.06</course>
  <speed>0.0</speed>
  <fix>3d</fix>
</trkpt>
<trkpt lat="40.0713816" lon="-105.2297939">
  <ele>1583.01</ele>
  <time>2026-08-28T17:52:35Z</time>
  <course>281.29</course>
  <speed>0.01414213562373095</speed>
  <fix>3d</fix>
</trkpt>
<trkpt lat="40.0713815" lon="-105.2297941">
  <ele>1583.0</ele>
  <time>2026-08-28T17:52:35Z</time>
  <course>280.06</course>
  <speed>0.0</speed>
  <fix>3d</fix>
</trkpt>
<trkpt lat="40.0713816" lon="-105.2297939">
  <ele>1583.01</ele>
  <time>2026-08-28T17:52:35Z</time>
  <course>281.29</course>
  <speed>0.01414213562373095</speed>
  <fix>3d</fix>
</trkpt>
<trkpt lat="40.0713815" lon="-105.2297942">
  <ele>1583.0</ele>
  <time>2026-08-28T17:52:35Z</time>
  <course>280.05</course>
  <speed>0.0</speed>
  <fix>3d</fix>
</trkpt>
<trkpt lat="40.0713816" lon="-105.2297939">
  <ele>1583.01</ele>
  <time>2026-08-28T17:52:35Z</time>
  <course>281.29</course>
  <speed>0.01414213562373095</speed>
  <fix>3d</fix>
</trkpt>
<trkpt lat="40.0713815" lon="-105.2297942">
  <ele>1583.0</ele>
  <time>2026-08-28T17:52:35Z</time>
  <course>280.05</course>
  <speed>0.0</speed>
  <fix>3d</fix>
</trkpt>
<trkpt lat="40.0713816" lon="-105.2297939">
  <ele>1583.02</ele>
  <time>2026-08-28T17:52:35Z</time>
  <course>281.29</course>
  <speed>0.01414213562373095</speed>
  <fix>3d</fix>
</trkpt>
<trkpt lat="40.0713815" lon="-105.2297942">
  <ele>1583.0</ele>
  <time>2026-08-28T17:52:35Z</time>
  <course>280.04</course>
  <speed>0.0</speed>
  <fix>3d</fix>
</trkpt>
<trkpt lat="40.0713816" lon="-105.2297939">
  <ele>1583.02</ele>
  <time>2026-08-28T17:52:35Z</time>
  <course>281.29</course>
  <speed>0.01414213562373095</speed>
  <fix>3d</fix>
</trkpt>
<trkpt lat="40.0713815" lon="-105.2297942">
  <ele>1583.0</ele>
  <time>2026-08-28T17:52:35Z</time>
  <course>280.04</course>
  <speed>0.0</speed>
  <fix>3d</fix>
</trkpt>
<trkpt lat="40.0713816" lon="-105.2297939">
  <ele>1583.02</ele>
  <time>2026-08-28T17:52:35Z</time>
  <course>281.29</course>
  <speed>0.01414213562373095</speed>
  <fix>3d</fix>
</trkpt>
<trkpt lat="40.0713815" lon="-105.2297942">
  <ele>1583.0</ele>
  <time>2026-08-28T17:52:35Z</time>
  <course>280.04</course>
  <speed>0.0</speed>
  <fix>3d</fix>
</trkpt>
<trkpt lat="40.0713816" lon="-105.2297939">
  <ele>1583.02</ele>
  <time>2026-08-28T17:52:35Z</time>
  <course>281.29</course>
  <speed>0.01414213562373095</speed>
  <fix>3d</fix>
</trkpt>
<trkpt lat="40.0713815" lon="-105.2297942">
  <ele>1583.0</ele>
  <time>2026-08-28T17:52:35Z</time>
  <course>280.03</course>
  <speed>0.0</speed>
  <fix>3d</fix>
</trkpt>
<trkpt lat="40.0713816" lon="-105.229794">
  <ele>1583.02</ele>
  <time>2026-08-28T17:52:35Z</time>
  <course>281.29</course>
  <speed>0.01414213562373095</speed>
  <fix>3d</fix>
</trkpt>
<trkpt lat="40.0713815" lon="-105.2297942">
  <ele>1583.0</ele>
  <time>2026-08-28T17:52:35Z</time>
  <course>280.03</course>
  <speed>0.0</speed>
  <fix>3d</fix>
</trkpt>
<trkpt lat="40.0713816" lon="-105.229794">
  <ele>1583.01</ele>
  <time>2026-08-28T17:52:35Z</time>
  <course>281.3</course>
  <speed>0.01414213562373095</speed>
  <fix>3d</fix>
</trkpt>
<trkpt lat="40.0713815" lon="-105.2297942">
  <ele>1583.0</ele>
  <time>2026-08-28T17:52:35Z</time>
  <course>280.02</course>
  <speed>0.0</speed>
  <fix>3d</fix>
</trkpt>
<trkpt lat="40.0713816" lon="-105.229794">
  <ele>1583.01</ele>
  <time>2026-08-28T17:52:35Z</time>
  <course>281.3</course>
  <speed>0.01414213562373095</speed>
  <fix>3d</fix>
</trkpt>
<trkpt lat="40.0713815" lon="-105.2297942">
  <ele>1583.0</ele>
  <time>2026-08-28T17:52:35Z</time>
  <course>280.02</course>
  <speed>0.0</speed>
  <fix>3d</fix>
</trkpt>
<trkpt lat="40.0713816" lon="-105.229794">
  <ele>1583.0</ele>
  <time>2026-08-28T17:52:35Z</time>
  <course>281.3</course>
  <speed>0.01414213562373095</speed>
  <fix>3d</fix>
</trkpt>
<trkpt lat="40.0713815" lon="-105.2297942">
  <ele>1583.0</ele>
  <time>2026-08-28T17:52:35Z</time>
  <course>280.01</course>
  <speed>0.0</speed>
  <fix>3d</fix>
</trkpt>
<trkpt lat="40.0713816" lon="-105.229794">
  <ele>1583.0</ele>
  <time>2026-08-28T17:52:35Z</time>
  <course>281.3</course>
  <speed>0.01414213562373095</speed>
  <fix>3d</fix>
</trkpt>
<trkpt lat="40.0713815" lon="-105.2297942">
  <ele>1583.0</ele>
  <time>2026-08-28T17:52:35Z</time>
  <course>280.01</course>
  <speed>0.0</speed>
  <fix>3d</fix>
</trkpt>
<trkpt lat="40.0713816" lon="-105.229794">
  <ele>1582.99</ele>
  <time>2026-08-28T17:52:35Z</time>
  <course>281.3</course>
  <speed>0.01414213562373095</speed>
  <fix>3d</fix>
</trkpt>
<trkpt lat="40.0713815" lon="-105.2297943">
  <ele>1583.0</ele>
  <time>2026-08-28T17:52:35Z</time>
  <course>280.0</course>
  <speed>0.0</speed>
  <fix>3d</fix>
</trkpt>
<trkpt lat="40.0713816" lon="-105.229794">
  <ele>1582.99</ele>
  <time>2026-08-28T17:52:35Z</time>
  <course>281.3</course>
  <speed>0.01414213562373095</speed>
  <fix>3d</fix>
</trkpt>
<trkpt lat="40.0713815" lon="-105.2297943">
  <ele>1583.0</ele>
  <time>2026-08-28T17:52:35Z</time>
  <course>280.0</course>
  <speed>0.0</speed>
  <fix>3d</fix>
</trkpt>
<trkpt lat="40.0713816" lon="-105.229794">
  <ele>1582.99</ele>
  <time>2026-08-28T17:52:35Z</time>
  <course>281.3</course>
  <speed>0.01414213562373095</speed>
  <fix>3d</fix>
</trkpt>
<trkpt lat="40.0713815" lon="-105.2297943">
  <ele>1583.0</ele>
  <time>2026-08-28T17:52:35Z</time>
  <course>279.99</course>
  <speed>0.0</speed>
  <fix>3d</fix>
</trkpt>
<trkpt lat="40.0713816" lon="-105.229794">
  <ele>1582.98</ele>
  <time>2026-08-28T17:52:35Z</time>
  <course>281.3</course>
  <speed>0.01414213562373095</speed>
  <fix>3d</fix>
</trkpt>
<trkpt lat="40.0713815" lon="-105.2297943">
  <ele>1583.0</ele>
  <time>2026-08-28T17:52:35Z</time>
  <course>279.99</course>
  <speed>0.0</speed>
  <fix>3d</fix>
</trkpt>
<trkpt lat="40.0713816" lon="-105.229794">
  <ele>1582.98</ele>
  <time>2026-08-28T17:52:35Z</time>
  <course>281.3</course>
  <speed>0.01414213562373095</speed>
  <fix>3d</fix>
</trkpt>
<trkpt lat="40.0713815" lon="-105.2297943">
  <ele>1583.0</ele>
  <time>2026-08-28T17:52:35Z</time>
  <course>279.98</course>
  <speed>0.0</speed>
  <fix>3d</fix>
</trkpt>
<trkpt lat="40.0713816" lon="-105.229794">
  <ele>1582.97</ele>
  <time>2026-08-28T17:52:35Z</time>
  <course>281.3</course>
  <speed>0.01414213562373095</speed>
  <fix>3d</fix>
</trkpt>
<trkpt lat="40.0713815" lon="-105.2297943">
  <ele>1583.0</ele>
  <time>2026-08-28T17:52:35Z</time>
  <course>279.98</course>
  <speed>0.0</speed>
  <fix>3d</fix>
</trkpt>
<trkpt lat="40.0713816" lon="-105.229794">
  <ele>1582.97</ele>
  <time>2026-08-28T17:52:35Z</time>
  <course>281.3</course>
  <speed>0.01414213562373095</speed>
  <fix>3d</fix>
</trkpt>
<trkpt lat="40.0713815" lon="-105.2297943">
  <ele>1583.0</ele>
  <time>2026-08-28T17:52:35Z</time>
  <course>279.98</course>
  <speed>0.0</speed>
  <fix>3d</fix>
</trkpt>
<trkpt lat="40.0713816" lon="-105.229794">
  <ele>1582.97</ele>
  <time>2026-08-28T17:52:35Z</time>
  <course>281.3</course>
  <speed>0.01414213562373095</speed>
  <fix>3d</fix>
</trkpt>
<trkpt lat="40.0713815" lon="-105.2297943">
  <ele>1583.0</ele>
  <time>2026-08-28T17:52:35Z</time>
  <course>279.97</course>
  <speed>0.0</speed>
  <fix>3d</fix>
</trkpt>
<trkpt lat="40.0713816" lon="-105.2297941">
  <ele>1582.96</ele>
  <time>2026-08-28T17:52:35Z</time>
  <course>281.31</course>
  <speed>0.01414213562373095</speed>
  <fix>3d</fix>
</trkpt>
<trkpt lat="40.0713815" lon="-105.2297943">
  <ele>1583.0</ele>
  <time>2026-08-28T17:52:35Z</time>
  <course>279.97</course>
  <speed>0.0</speed>
  <fix>3d</fix>
</trkpt>
<trkpt lat="40.0713816" lon="-105.2297941">
  <ele>1582.96</ele>
  <time>2026-08-28T17:52:35Z</time>
  <course>281.31</course>
  <speed>0.01414213562373095</speed>
  <fix>3d</fix>
</trkpt>
<trkpt lat="40.0713815" lon="-105.2297943">
  <ele>1583.0</ele>
  <time>2026-08-28T17:52:35Z</time>
  <course>279.95</course>
  <speed>0.0</speed>
  <fix>3d</fix>
</trkpt>
<trkpt lat="40.0713816" lon="-105.2297941">
  <ele>1582.95</ele>
  <time>2026-08-28T17:52:35Z</time>
  <course>281.31</course>
  <speed>0.01414213562373095</speed>
  <fix>3d</fix>
</trkpt>
<trkpt lat="40.0713815" lon="-105.2297943">
  <ele>1583.0</ele>
  <time>2026-08-28T17:52:35Z</time>
  <course>279.95</course>
  <speed>0.0</speed>
  <fix>3d</fix>
</trkpt>
<trkpt lat="40.0713816" lon="-105.2297941">
  <ele>1582.95</ele>
  <time>2026-08-28T17:52:35Z</time>
  <course>281.31</course>
  <speed>0.01414213562373095</speed>
  <fix>3d</fix>
</trkpt>
<trkpt lat="40.0713815" lon="-105.2297943">
  <ele>1583.0</ele>
  <time>2026-08-28T17:52:35Z</time>
  <course>279.94</course>
  <speed>0.0</speed>
  <fix>3d</fix>
</trkpt>
<trkpt lat="40.0713816" lon="-105.2297941">
  <ele>1582.95</ele>
  <time>2026-08-28T17:52:35Z</time>
  <course>281.31</course>
  <speed>0.01414213562373095</speed>
  <fix>3d</fix>
</trkpt>
<trkpt lat="40.0713815" lon="-105.2297943">
  <ele>1583.0</ele>
  <time>2026-08-28T17:52:35Z</time>
  <course>279.92</course>
  <speed>0.0</speed>
  <fix>3d</fix>
</trkpt>
<trkpt lat="40.0713816" lon="-105.2297941">
  <ele>1582.95</ele>
  <time>2026-08-28T17:52:35Z</time>
  <course>281.31</course>
  <speed>0.01414213562373095</speed>
  <fix>3d</fix>
</trkpt>
<trkpt lat="40.0713815" lon="-105.2297943">
  <ele>1583.0</ele>
  <time>2026-08-28T17:52:35Z</time>
  <course>279.92</course>
  <speed>0.0</speed>
  <fix>3d</fix>
</trkpt>
<trkpt lat="40.0713816" lon="-105.2297941">
  <ele>1582.95</ele>
  <time>2026-08-28T17:52:35Z</time>
  <course>281.31</course>
  <speed>0.01414213562373095</speed>
  <fix>3d</fix>
</trkpt>
<trkpt lat="40.0713815" lon="-105.2297943">
  <ele>1583.0</ele>
  <time>2026-08-28T17:52:35Z</time>
  <course>279.9</course>
  <speed>0.0</speed>
  <fix>3d</fix>
</trkpt>
<trkpt lat="40.0713816" lon="-105.2297941">
  <ele>1582.95</ele>
  <time>2026-08-28T17:52:35Z</time>
  <course>281.31</course>
  <speed>0.01414213562373095</speed>
  <fix>3d</fix>
</trkpt>
<trkpt lat="40.0713815" lon="-105.2297943">
  <ele>1583.0</ele>
  <time>2026-08-28T17:52:35Z</time>
  <course>279.9</course>
  <speed>0.0</speed>
  <fix>3d</fix>
</trkpt>
<trkpt lat="40.0713816" lon="-105.2297941">
  <ele>1582.95</ele>
  <time>2026-08-28T17:52:35Z</time>
  <course>281.31</course>
  <speed>0.01414213562373095</speed>
  <fix>3d</fix>
</trkpt>
<trkpt lat="40.0713815" lon="-105.2297943">
  <ele>1583.0</ele>
  <time>2026-08-28T17:52:35Z</time>
  <course>279.88</course>
  <speed>0.0</speed>
  <fix>3d</fix>
</trkpt>
<trkpt lat="40.0713816" lon="-105.2297941">
  <ele>1582.96</ele>
  <time>2026-08-28T17:52:35Z</time>
  <course>281.32</course>
  <speed>0.01414213562373095</speed>
  <fix>3d</fix>
</trkpt>
<trkpt lat="40.0713815" lon="-105.2297943">
  <ele>1583.0</ele>
  <time>2026-08-28T17:52:35Z</time>
  <course>279.88</course>
  <speed>0.0</speed>
  <fix>3d</fix>
</trkpt>
<trkpt lat="40.0713816" lon="-105.2297941">
  <ele>1582.96</ele>
  <time>2026-08-28T17:52:35Z</time>
  <course>281.32</course>
  <speed>0.01414213562373095</speed>
  <fix>3d</fix>
</trkpt>
<trkpt lat="40.0713815" lon="-105.2297943">
  <ele>1583.0</ele>
  <time>2026-08-28T17:52:35Z</time>
  <course>279.85</course>
  <speed>0.0</speed>
  <fix>3d</fix>
</trkpt>
<trkpt lat="40.0713816" lon="-105.2297941">
  <ele>1582.96</ele>
  <time>2026-08-28T17:52:35Z</time>
  <course>281.32</course>
  <speed>0.01414213562373095</speed>
  <fix>3d</fix>
</trkpt>
<trkpt lat="40.0713815" lon="-105.2297943">
  <ele>1583.0</ele>
  <time>2026-08-28T17:52:35Z</time>
  <course>279.85</course>
  <speed>0.0</speed>
  <fix>3d</fix>
</trkpt>
<trkpt lat="40.0713816" lon="-105.2297941">
  <ele>1582.97</ele>
  <time>2026-08-28T17:52:35Z</time>
  <course>281.32</course>
  <speed>0.01414213562373095</speed>
  <fix>3d</fix>
</trkpt>
<trkpt lat="40.0713815" lon="-105.2297943">
  <ele>1583.0</ele>
  <time>2026-08-28T17:52:35Z</time>
  <course>279.83</course>
  <speed>0.0</speed>
  <fix>3d</fix>
</trkpt>
<trkpt lat="40.0713816" lon="-105.2297941">
  <ele>1582.97</ele>
  <time>2026-08-28T17:52:35Z</time>
  <course>281.32</course>
  <speed>0.01414213562373095</speed>
  <fix>3d</fix>
</trkpt>
<trkpt lat="40.0713815" lon="-105.2297943">
  <ele>1583.0</ele>
  <time>2026-08-28T17:52:35Z</time>
  <course>279.83</course>
  <speed>0.0</speed>
  <fix>3d</fix>
</trkpt>
<trkpt lat="40.0713816" lon="-105.2297941">
  <ele>1582.97</ele>
  <time>2026-08-28T17:52:35Z</time>
  <course>281.32</course>
  <speed>0.01414213562373095</speed>
  <fix>3d</fix>
</trkpt>
<trkpt lat="40.0713815" lon="-105.2297943">
  <ele>1583.0</ele>
  <time>2026-08-28T17:52:35Z</time>
  <course>279.8</course>
  <speed>0.0</speed>
  <fix>3d</fix>
</trkpt>
<trkpt lat="40.0713816" lon="-105.2297941">
  <ele>1582.97</ele>
  <time>2026-08-28T17:52:35Z</time>
  <course>281.32</course>
  <speed>0.01414213562373095</speed>
  <fix>3d</fix>
</trkpt>
<trkpt lat="40.0713815" lon="-105.2297943">
  <ele>1583.0</ele>
  <time>2026-08-28T17:52:35Z</time>
  <course>279.8</course>
  <speed>0.0</speed>
  <fix>3d</fix>
</trkpt>
<trkpt lat="40.0713816" lon="-105.2297941">
  <ele>1582.97</ele>
  <time>2026-08-28T17:52:35Z</time>
  <course>281.32</course>
  <speed>0.01414213562373095</speed>
  <fix>3d</fix>
</trkpt>
<trkpt lat="40.0713815" lon="-105.2297943">
  <ele>1583.0</ele>
  <time>2026-08-28T17:52:35Z</time>
  <course>279.77</course>
  <speed>0.0</speed>
  <fix>3d</fix>
</trkpt>
<trkpt lat="40.0713816" lon="-105.2297941">
  <ele>1582.97</ele>
  <time>2026-08-28T17:52:35Z</time>
  <course>281.32</course>
  <speed>0.01414213562373095</speed>
  <fix>3d</fix>
</trkpt>
<trkpt lat="40.0713815" lon="-105.2297943">
  <ele>1583.0</ele>
  <time>2026-08-28T17:52:35Z</time>
  <course>279.77</course>
  <speed>0.0</speed>
  <fix>3d</fix>
</trkpt>
<trkpt lat="40.0713816" lon="-105.2297941">
  <ele>1582.97</ele>
  <time>2026-08-28T17:52:35Z</time>
  <course>281.33</course>
  <speed>0.01414213562373095</speed>
  <fix>3d</fix>
</trkpt>
<trkpt lat="40.0713815" lon="-105.2297943">
  <ele>1583.0</ele>
  <time>2026-08-28T17:52:35Z</time>
  <course>279.77</course>
  <speed>0.0</speed>
  <fix>3d</fix>
</trkpt>
<trkpt lat="40.0713816" lon="-105.2297941">
  <ele>1582.96</ele>
  <time>2026-08-28T17:52:35Z</time>
  <course>281.33</course>
  <speed>0.022360679774997897</speed>
  <fix>3d</fix>
</trkpt>
<trkpt lat="40.0713815" lon="-105.2297943">
  <ele>1583.0</ele>
  <time>2026-08-28T17:52:35Z</time>
  <course>279.73</course>
  <speed>0.0</speed>
  <fix>3d</fix>
</trkpt>
<trkpt lat="40.0713816" lon="-105.2297941">
  <ele>1582.96</ele>
  <time>2026-08-28T17:52:35Z</time>
  <course>281.33</course>
  <speed>0.022360679774997897</speed>
  <fix>3d</fix>
</trkpt>
<trkpt lat="40.0713815" lon="-105.2297943">
  <ele>1583.0</ele>
  <time>2026-08-28T17:52:35Z</time>
  <course>279.73</course>
  <speed>0.0</speed>
  <fix>3d</fix>
</trkpt>
<trkpt lat="40.0713816" lon="-105.2297941">
  <ele>1582.95</ele>
  <time>2026-08-28T17:52:35Z</time>
  <course>281.33</course>
  <speed>0.022360679774997897</speed>
  <fix>3d</fix>
</trkpt>
<trkpt lat="40.0713815" lon="-105.2297943">
  <ele>1583.0</ele>
  <time>2026-08-28T17:52:35Z</time>
  <course>279.69</course>
  <speed>0.0</speed>
  <fix>3d</fix>
</trkpt>
<trkpt lat="40.0713816" lon="-105.2297941">
  <ele>1582.94</ele>
  <time>2026-08-28T17:52:35Z</time>
  <course>281.33</course>
  <speed>0.022360679774997897</speed>
  <fix>3d</fix>
</trkpt>
<trkpt lat="40.0713815" lon="-105.2297943">
  <ele>1583.0</ele>
  <time>2026-08-28T17:52:35Z</time>
  <course>279.69</course>
  <speed>0.0</speed>
  <fix>3d</fix>
</trkpt>
<trkpt lat="40.0713816" lon="-105.2297941">
  <ele>1582.94</ele>
  <time>2026-08-28T17:52:35Z</time>
  <course>281.33</course>
  <speed>0.022360679774997897</speed>
  <fix>3d</fix>
</trkpt>
<trkpt lat="40.0713815" lon="-105.2297943">
  <ele>1583.0</ele>
  <time>2026-08-28T17:52:35Z</time>
  <course>279.65</course>
  <speed>0.0</speed>
  <fix>3d</fix>
</trkpt>
<trkpt lat="40.0713816" lon="-105.2297941">
  <ele>1582.93</ele>
  <time>2026-08-28T17:52:35Z</time>
  <course>281.33</course>
  <speed>0.022360679774997897</speed>
  <fix>3d</fix>
</trkpt>
<trkpt lat="40.0713815" lon="-105.2297943">
  <ele>1583.0</ele>
  <time>2026-08-28T17:52:35Z</time>
  <course>279.65</course>
  <speed>0.0</speed>
  <fix>3d</fix>
</trkpt>
<trkpt lat="40.0713816" lon="-105.2297941">
  <ele>1582.94</ele>
  <time>2026-08-28T17:52:35Z</time>
  <course>281.33</course>
  <speed>0.022360679774997897</speed>
  <fix>3d</fix>
</trkpt>
<trkpt lat="40.0713815" lon="-105.2297943">
  <ele>1583.0</ele>
  <time>2026-08-28T17:52:35Z</time>
  <course>279.6</course>
  <speed>0.0</speed>
  <fix>3d</fix>
</trkpt>
<trkpt lat="40.0713816" lon="-105.2297941">
  <ele>1582.94</ele>
  <time>2026-08-28T17:52:35Z</time>
  <course>281.34</course>
  <speed>0.022360679774997897</speed>
  <fix>3d</fix>
</trkpt>
<trkpt lat="40.0713815" lon="-105.2297943">
  <ele>1583.0</ele>
  <time>2026-08-28T17:52:35Z</time>
  <course>279.55</course>
  <speed>0.0</speed>
  <fix>3d</fix>
</trkpt>
<trkpt lat="40.0713816" lon="-105.2297941">
  <ele>1582.95</ele>
  <time>2026-08-28T17:52:35Z</time>
  <course>281.34</course>
  <speed>0.022360679774997897</speed>
  <fix>3d</fix>
</trkpt>
<trkpt lat="40.0713815" lon="-105.2297943">
  <ele>1583.0</ele>
  <time>2026-08-28T17:52:35Z</time>
  <course>279.55</course>
  <speed>0.0</speed>
  <fix>3d</fix>
</trkpt>
<trkpt lat="40.0713816" lon="-105.2297941">
  <ele>1582.96</ele>
  <time>2026-08-28T17:52:35Z</time>
  <course>281.34</course>
  <speed>0.022360679774997897</speed>
  <fix>3d</fix>
</trkpt>
<trkpt lat="40.0713815" lon="-105.2297943">
  <ele>1583.0</ele>
  <time>2026-08-28T17:52:35Z</time>
  <course>279.49</course>
  <speed>0.0</speed>
  <fix>3d</fix>
</trkpt>
<trkpt lat="40.0713816" lon="-105.2297941">
  <ele>1582.96</ele>
  <time>2026-08-28T17:52:35Z</time>
  <course>281.34</course>
  <speed>0.022360679774997897</speed>
  <fix>3d</fix>
</trkpt>
<trkpt lat="40.0713815" lon="-105.2297943">
  <ele>1583.0</ele>
  <time>2026-08-28T17:52:35Z</time>
  <course>279.49</course>
  <speed>0.0</speed>
  <fix>3d</fix>
</trkpt>
<trkpt lat="40.0713816" lon="-105.2297941">
  <ele>1582.97</ele>
  <time>2026-08-28T17:52:35Z</time>
  <course>281.34</course>
  <speed>0.022360679774997897</speed>
  <fix>3d</fix>
</trkpt>
<trkpt lat="40.0713815" lon="-105.2297943">
  <ele>1583.0</ele>
  <time>2026-08-28T17:52:35Z</time>
  <course>279.42</course>
  <speed>0.0</speed>
  <fix>3d</fix>
</trkpt>
<trkpt lat="40.0713816" lon="-105.2297941">
  <ele>1582.98</ele>
  <time>2026-08-28T17:52:35Z</time>
  <course>281.34</course>
  <speed>0.022360679774997897</speed>
  <fix>3d</fix>
</trkpt>
<trkpt lat="40.0713815" lon="-105.2297943">
  <ele>1583.0</ele>
  <time>2026-08-28T17:52:35Z</time>
  <course>279.42</course>
  <speed>0.0</speed>
  <fix>3d</fix>
</trkpt>
<trkpt lat="40.0713816" lon="-105.2297941">
  <ele>1582.98</ele>
  <time>2026-08-28T17:52:35Z</time>
  <course>281.34</course>
  <speed>0.022360679774997897</speed>
  <fix>3d</fix>
</trkpt>
<trkpt lat="40.0713815" lon="-105.2297943">
  <ele>1583.0</ele>
  <time>2026-08-28T17:52:35Z</time>
  <course>279.35</course>
  <speed>0.0</speed>
  <fix>3d</fix>
</trkpt>
<trkpt lat="40.0713816" lon="-105.2297941">
  <ele>1582.99</ele>
  <time>2026-08-28T17:52:35Z</time>
  <course>281.34</course>
  <speed>0.022360679774997897</speed>
  <fix>3d</fix>
</trkpt>
<trkpt lat="40.0713815" lon="-105.2297943">
  <ele>1583.0</ele>
  <time>2026-08-28T17:52:35Z</time>
  <course>279.35</course>
  <speed>0.0</speed>
  <fix>3d</fix>
</trkpt>
<trkpt lat="40.0713816" lon="-105.2297941">
  <ele>1582.99</ele>
  <time>2026-08-28T17:52:35Z</time>
  <course>281.35</course>
  <speed>0.022360679774997897</speed>
  <fix>3d</fix>
</trkpt>
<trkpt lat="40.0713815" lon="-105.2297943">
  <ele>1583.0</ele>
  <time>2026-08-28T17:52:35Z</time>
  <course>279.27</course>
  <speed>0.0</speed>
  <fix>3d</fix>
</trkpt>
<trkpt lat="40.0713816" lon="-105.2297941">
  <ele>1582.99</ele>
  <time>2026-08-28T17:52:35Z</time>
  <course>281.35</course>
  <speed>0.022360679774997897</speed>
  <fix>3d</fix>
</trkpt>
<trkpt lat="40.0713815" lon="-105.2297943">
  <ele>1583.0</ele>
  <time>2026-08-28T17:52:35Z</time>
  <course>279.27</course>
  <speed>0.0</speed>
  <fix>3d</fix>
</trkpt>
<trkpt lat="40.0713816" lon="-105.2297941">
  <ele>1583.0</ele>
  <time>2026-08-28T17:52:35Z</time>
  <course>281.35</course>
  <speed>0.022360679774997897</speed>
  <fix>3d</fix>
</trkpt>
<trkpt lat="40.0713815" lon="-105.2297943">
  <ele>1583.0</ele>
  <time>2026-08-28T17:52:35Z</time>
  <course>279.18</course>
  <speed>0.0</speed>
  <fix>3d</fix>
</trkpt>
<trkpt lat="40.0713816" lon="-105.2297941">
  <ele>1583.0</ele>
  <time>2026-08-28T17:52:35Z</time>
  <course>281.35</course>
  <speed>0.022360679774997897</speed>
  <fix>3d</fix>
</trkpt>
<trkpt lat="40.0713815" lon="-105.2297943">
  <ele>1583.0</ele>
  <time>2026-08-28T17:52:35Z</time>
  <course>279.18</course>
  <speed>0.0</speed>
  <fix>3d</fix>
</trkpt>
<trkpt lat="40.0713816" lon="-105.2297941">
  <ele>1583.0</ele>
  <time>2026-08-28T17:52:35Z</time>
  <course>281.35</course>
  <speed>0.022360679774997897</speed>
  <fix>3d</fix>
</trkpt>
<trkpt lat="40.0713815" lon="-105.2297943">
  <ele>1583.0</ele>
  <time>2026-08-28T17:52:35Z</time>
  <course>279.09</course>
  <speed>0.0</speed>
  <fix>3d</fix>
</trkpt>
<trkpt lat="40.0713816" lon="-105.2297941">
  <ele>1583.0</ele>
  <time>2026-08-28T17:52:35Z</time>
  <course>281.35</course>
  <speed>0.022360679774997897</speed>
  <fix>3d</fix>
</trkpt>
<trkpt lat="40.0713815" lon="-105.2297943">
  <ele>1583.0</ele>
  <time>2026-08-28T17:52:35Z</time>
  <course>279.09</course>
  <speed>0.0</speed>
  <fix>3d</fix>
</trkpt>
<trkpt lat="40.0713816" lon="-105.2297941">
  <ele>1583.0</ele>
  <time>2026-08-28T17:52:35Z</time>
  <course>281.35</course>
  <speed>0.022360679774997897</speed>
  <fix>3d</fix>
</trkpt>
<trkpt lat="40.0713815" lon="-105.2297943">
  <ele>1583.0</ele>
  <time>2026-08-28T17:52:35Z</time>
  <course>279.09</course>
  <speed>0.0</speed>
  <fix>3d</fix>
</trkpt>
<trkpt lat="40.0713816" lon="-105.2297941">
  <ele>1583.0</ele>
  <time>2026-08-28T17:52:35Z</time>
  <course>281.35</course>
  <speed>0.022360679774997897</speed>
  <fix>3d</fix>
</trkpt>
<trkpt lat="40.0713815" lon="-105.2297943">
  <ele>1583.0</ele>
  <time>2026-08-28T17:52:35Z</time>
  <course>278.98</course>
  <speed>0.0</speed>
  <fix>3d</fix>
</trkpt>
<trkpt lat="40.0713816" lon="-105.2297941">
  <ele>1583.01</ele>
  <time>2026-08-28T17:52:35Z</time>
  <course>281.35</course>
  <speed>0.022360679774997897</speed>
  <fix>3d</fix>
</trkpt>
<trkpt lat="40.0713815" lon="-105.2297943">
  <ele>1583.0</ele>
  <time>2026-08-28T17:52:35Z</time>
  <course>278.98</course>
  <speed>0.0</speed>
  <fix>3d</fix>
</trkpt>
<trkpt lat="40.0713816" lon="-105.2297941">
  <ele>1583.01</ele>
  <time>2026-08-28T17:52:35Z</time>
  <course>281.36</course>
  <speed>0.022360679774997897</speed>
  <fix>3d</fix>
</trkpt>
<trkpt lat="40.0713815" lon="-105.2297943">
  <ele>1583.0</ele>
  <time>2026-08-28T17:52:35Z</time>
  <course>278.86</course>
  <speed>0.0</speed>
  <fix>3d</fix>
</trkpt>
<trkpt lat="40.0713816" lon="-105.2297941">
  <ele>1583.01</ele>
  <time>2026-08-28T17:52:35Z</time>
  <course>281.36</course>
  <speed>0.022360679774997897</speed>
  <fix>3d</fix>
</trkpt>
<trkpt lat="40.0713815" lon="-105.2297943">
  <ele>1583.0</ele>
  <time>2026-08-28T17:52:35Z</time>
  <course>278.86</course>
  <speed>0.0</speed>
  <fix>3d</fix>
</trkpt>
<trkpt lat="40.0713816" lon="-105.2297941">
  <ele>1583.01</ele>
  <time>2026-08-28T17:52:35Z</time>
  <course>281.36</course>
  <speed>0.022360679774997897</speed>
  <fix>3d</fix>
</trkpt>
<trkpt lat="40.0713815" lon="-105.2297943">
  <ele>1583.0</ele>
  <time>2026-08-28T17:52:35Z</time>
  <course>278.73</course>
  <speed>0.0</speed>
  <fix>3d</fix>
</trkpt>
<trkpt lat="40.0713816" lon="-105.2297941">
  <ele>1583.01</ele>
  <time>2026-08-28T17:52:35Z</time>
  <course>281.36</course>
  <speed>0.022360679774997897</speed>
  <fix>3d</fix>
</trkpt>
<trkpt lat="40.0713815" lon="-105.2297943">
  <ele>1583.0</ele>
  <time>2026-08-28T17:52:35Z</time>
  <course>278.58</course>
  <speed>0.0</speed>
  <fix>3d</fix>
</trkpt>
<trkpt lat="40.0713816" lon="-105.2297941">
  <ele>1583.01</ele>
  <time>2026-08-28T17:52:35Z</time>
  <course>281.36</course>
  <speed>0.022360679774997897</speed>
  <fix>3d</fix>
</trkpt>
<trkpt lat="40.0713815" lon="-105.2297943">
  <ele>1583.0</ele>
  <time>2026-08-28T17:52:35Z</time>
  <course>278.58</course>
  <speed>0.0</speed>
  <fix>3d</fix>
</trkpt>
<trkpt lat="40.0713816" lon="-105.2297941">
  <ele>1583.01</ele>
  <time>2026-08-28T17:52:35Z</time>
  <course>281.36</course>
  <speed>0.022360679774997897</speed>
  <fix>3d</fix>
</trkpt>
<trkpt lat="40.0713815" lon="-105.2297943">
  <ele>1583.0</ele>
  <time>2026-08-28T17:52:35Z</time>
  <course>278.42</course>
  <speed>0.0</speed>
  <fix>3d</fix>
</trkpt>
<trkpt lat="40.0713816" lon="-105.2297941">
  <ele>1583.01</ele>
  <time>2026-08-28T17:52:35Z</time>
  <course>281.36</course>
  <speed>0.022360679774997897</speed>
  <fix>3d</fix>
</trkpt>
<trkpt lat="40.0713815" lon="-105.2297943">
  <ele>1583.0</ele>
  <time>2026-08-28T17:52:35Z</time>
  <course>278.42</course>
  <speed>0.0</speed>
  <fix>3d</fix>
</trkpt>
<trkpt lat="40.0713816" lon="-105.2297941">
  <ele>1583.01</ele>
  <time>2026-08-28T17:52:35Z</time>
  <course>281.36</course>
  <speed>0.022360679774997897</speed>
  <fix>3d</fix>
</trkpt>
<trkpt lat="40.0713815" lon="-105.2297943">
  <ele>1583.0</ele>
  <time>2026-08-28T17:52:35Z</time>
  <course>278.24</course>
  <speed>0.0</speed>
  <fix>3d</fix>
</trkpt>
<trkpt lat="40.0713816" lon="-105.2297941">
  <ele>1583.01</ele>
  <time>2026-08-28T17:52:35Z</time>
  <course>281.36</course>
  <speed>0.022360679774997897</speed>
  <fix>3d</fix>
</trkpt>
<trkpt lat="40.0713815" lon="-105.2297943">
  <ele>1583.0</ele>
  <time>2026-08-28T17:52:35Z</time>
  <course>278.24</course>
  <speed>0.0</speed>
  <fix>3d</fix>
</trkpt>
<trkpt lat="40.0713816" lon="-105.2297941">
  <ele>1583.01</ele>
  <time>2026-08-28T17:52:35Z</time>
  <course>281.37</course>
  <speed>0.022360679774997897</speed>
  <fix>3d</fix>
</trkpt>
<trkpt lat="40.0713815" lon="-105.2297943">
  <ele>1583.0</ele>
  <time>2026-08-28T17:52:35Z</time>
  <course>278.05</course>
  <speed>0.0</speed>
  <fix>3d</fix>
</trkpt>
<trkpt lat="40.0713816" lon="-105.2297941">
  <ele>1583.01</ele>
  <time>2026-08-28T17:52:35Z</time>
  <course>281.37</course>
  <speed>0.022360679774997897</speed>
  <fix>3d</fix>
</trkpt>
<trkpt lat="40.0713815" lon="-105.2297943">
  <ele>1583.0</ele>
  <time>2026-08-28T17:52:35Z</time>
  <course>278.05</course>
  <speed>0.0</speed>
  <fix>3d</fix>
</trkpt>
<trkpt lat="40.0713816" lon="-105.2297941">
  <ele>1583.01</ele>
  <time>2026-08-28T17:52:35Z</time>
  <course>281.37</course>
  <speed>0.022360679774997897</speed>
  <fix>3d</fix>
</trkpt>
<trkpt lat="40.0713815" lon="-105.2297943">
  <ele>1583.0</ele>
  <time>2026-08-28T17:52:35Z</time>
  <course>277.83</course>
  <speed>0.0</speed>
  <fix>3d</fix>
</trkpt>
<trkpt lat="40.0713816" lon="-105.2297941">
  <ele>1583.01</ele>
  <time>2026-08-28T17:52:35Z</time>
  <course>281.37</course>
  <speed>0.022360679774997897</speed>
  <fix>3d</fix>
</trkpt>
<trkpt lat="40.0713815" lon="-105.2297943">
  <ele>1583.0</ele>
  <time>2026-08-28T17:52:35Z</time>
  <course>277.83</course>
  <speed>0.0</speed>
  <fix>3d</fix>
</trkpt>
<trkpt lat="40.0713816" lon="-105.2297941">
  <ele>1583.01</ele>
  <time>2026-08-28T17:52:35Z</time>
  <course>281.37</course>
  <speed>0.022360679774997897</speed>
  <fix>3d</fix>
</trkpt>
<trkpt lat="40.0713815" lon="-105.2297943">
  <ele>1583.0</ele>
  <time>2026-08-28T17:52:35Z</time>
  <course>277.59</course>
  <speed>0.0</speed>
  <fix>3d</fix>
</trkpt>
<trkpt lat="40.0713816" lon="-105.2297941">
  <ele>1583.0</ele>
  <time>2026-08-28T17:52:35Z</time>
  <course>281.37</course>
  <speed>0.022360679774997897</speed>
  <fix>3d</fix>
</trkpt>
<trkpt lat="40.0713815" lon="-105.2297943">
  <ele>1583.0</ele>
  <time>2026-08-28T17:52:35Z</time>
  <course>277.59</course>
  <speed>0.0</speed>
  <fix>3d</fix>
</trkpt>
<trkpt lat="40.0713816" lon="-105.2297941">
  <ele>1583.0</ele>
  <time>2026-08-28T17:52:35Z</time>
  <course>281.37</course>
  <speed>0.022360679774997897</speed>
  <fix>3d</fix>
</trkpt>
<trkpt lat="40.0713815" lon="-105.2297943">
  <ele>1583.0</ele>
  <time>2026-08-28T17:52:35Z</time>
  <course>277.33</course>
  <speed>0.0</speed>
  <fix>3d</fix>
</trkpt>
<trkpt lat="40.0713816" lon="-105.2297941">
  <ele>1583.0</ele>
  <time>2026-08-28T17:52:35Z</time>
  <course>281.37</course>
  <speed>0.022360679774997897</speed>
  <fix>3d</fix>
</trkpt>
<trkpt lat="40.0713815" lon="-105.2297943">
  <ele>1583.0</ele>
  <time>2026-08-28T17:52:35Z</time>
  <course>277.33</course>
  <speed>0.0</speed>
  <fix>3d</fix>
</trkpt>
<trkpt lat="40.0713816" lon="-105.2297941">
  <ele>1583.0</ele>
  <time>2026-08-28T17:52:35Z</time>
  <course>281.37</course>
  <speed>0.022360679774997897</speed>
  <fix>3d</fix>
</trkpt>
<trkpt lat="40.0713815" lon="-105.2297943">
  <ele>1583.0</ele>
  <time>2026-08-28T17:52:35Z</time>
  <course>277.33</course>
  <speed>0.0</speed>
  <fix>3d</fix>
</trkpt>
<trkpt lat="40.0713816" lon="-105.2297941">
  <ele>1583.0</ele>
  <time>2026-08-28T17:52:35Z</time>
  <course>281.38</course>
  <speed>0.022360679774997897</speed>
  <fix>3d</fix>
</trkpt>
<trkpt lat="40.0713815" lon="-105.2297943">
  <ele>1583.0</ele>
  <time>2026-08-28T17:52:35Z</time>
  <course>277.04</course>
  <speed>0.0</speed>
  <fix>3d</fix>
</trkpt>
<trkpt lat="40.0713816" lon="-105.2297941">
  <ele>1583.0</ele>
  <time>2026-08-28T17:52:35Z</time>
  <course>281.38</course>
  <speed>0.022360679774997897</speed>
  <fix>3d</fix>
</trkpt>
<trkpt lat="40.0713815" lon="-105.2297943">
  <ele>1583.0</ele>
  <time>2026-08-28T17:52:35Z</time>
  <course>277.04</course>
  <speed>0.0</speed>
  <fix>3d</fix>
</trkpt>
<trkpt lat="40.0713816" lon="-105.2297941">
  <ele>1583.0</ele>
  <time>2026-08-28T17:52:35Z</time>
  <course>281.38</course>
  <speed>0.022360679774997897</speed>
  <fix>3d</fix>
</trkpt>
<trkpt lat="40.0713815" lon="-105.2297943">
  <ele>1583.0</ele>
  <time>2026-08-28T17:52:35Z</time>
  <course>276.72</course>
  <speed>0.0</speed>
  <fix>3d</fix>
</trkpt>
<trkpt lat="40.0713816" lon="-105.2297941">
  <ele>1583.0</ele>
  <time>2026-08-28T17:52:35Z</time>
  <course>281.38</course>
  <speed>0.022360679774997897</speed>
  <fix>3d</fix>
</trkpt>
<trkpt lat="40.0713815" lon="-105.2297943">
  <ele>1583.0</ele>
  <time>2026-08-28T17:52:35Z</time>
  <course>276.72</course>
  <speed>0.0</speed>
  <fix>3d</fix>
</trkpt>
<trkpt lat="40.0713816" lon="-105.2297941">
  <ele>1582.99</ele>
  <time>2026-08-28T17:52:35Z</time>
  <course>281.38</course>
  <speed>0.022360679774997897</speed>
  <fix>3d</fix>
</trkpt>
<trkpt lat="40.0713815" lon="-105.2297943">
  <ele>1583.0</ele>
  <time>2026-08-28T17:52:35Z</time>
  <course>276.36</course>
  <speed>0.0</speed>
  <fix>3d</fix>
</trkpt>
<trkpt lat="40.0713816" lon="-105.2297941">
  <ele>1582.99</ele>
  <time>2026-08-28T17:52:35Z</time>
  <course>281.38</course>
  <speed>0.022360679774997897</speed>
  <fix>3d</fix>
</trkpt>
<trkpt lat="40.0713815" lon="-105.2297943">
  <ele>1583.0</ele>
  <time>2026-08-28T17:52:35Z</time>
  <course>275.97</course>
  <speed>0.0</speed>
  <fix>3d</fix>
</trkpt>
<trkpt lat="40.0713816" lon="-105.2297941">
  <ele>1582.99</ele>
  <time>2026-08-28T17:52:35Z</time>
  <course>281.38</course>
  <speed>0.022360679774997897</speed>
  <fix>3d</fix>
</trkpt>
<trkpt lat="40.0713815" lon="-105.2297943">
  <ele>1583.0</ele>
  <time>2026-08-28T17:52:35Z</time>
  <course>275.97</course>
  <speed>0.0</speed>
  <fix>3d</fix>
</trkpt>
<trkpt lat="40.0713816" lon="-105.2297941">
  <ele>1582.99</ele>
  <time>2026-08-28T17:52:35Z</time>
  <course>281.38</course>
  <speed>0.022360679774997897</speed>
  <fix>3d</fix>
</trkpt>
<trkpt lat="40.0713815" lon="-105.2297943">
  <ele>1583.0</ele>
  <time>2026-08-28T17:52:35Z</time>
  <course>275.53</course>
  <speed>0.0</speed>
  <fix>3d</fix>
</trkpt>
<trkpt lat="40.0713816" lon="-105.2297941">
  <ele>1582.99</ele>
  <time>2026-08-28T17:52:35Z</time>
  <course>281.38</course>
  <speed>0.022360679774997897</speed>
  <fix>3d</fix>
</trkpt>
<trkpt lat="40.0713815" lon="-105.2297943">
  <ele>1583.0</ele>
  <time>2026-08-28T17:52:35Z</time>
  <course>275.53</course>
  <speed>0.0</speed>
  <fix>3d</fix>
</trkpt>
<trkpt lat="40.0713816" lon="-105.2297941">
  <ele>1582.99</ele>
  <time>2026-08-28T17:52:35Z</time>
  <course>281.38</course>
  <speed>0.022360679774997897</speed>
  <fix>3d</fix>
</trkpt>
<trkpt lat="40.0713815" lon="-105.2297943">
  <ele>1583.0</ele>
  <time>2026-08-28T17:52:35Z</time>
  <course>275.06</course>
  <speed>0.0</speed>
  <fix>3d</fix>
</trkpt>
<trkpt lat="40.0713816" lon="-105.2297941">
  <ele>1582.99</ele>
  <time>2026-08-28T17:52:35Z</time>
  <course>281.38</course>
  <speed>0.022360679774997897</speed>
  <fix>3d</fix>
</trkpt>
<trkpt lat="40.0713815" lon="-105.2297943">
  <ele>1583.0</ele>
  <time>2026-08-28T17:52:35Z</time>
  <course>275.06</course>
  <speed>0.0</speed>
  <fix>3d</fix>
</trkpt>
<trkpt lat="40.0713816" lon="-105.2297941">
  <ele>1582.99</ele>
  <time>2026-08-28T17:52:35Z</time>
  <course>281.39</course>
  <speed>0.022360679774997897</speed>
  <fix>3d</fix>
</trkpt>
<trkpt lat="40.0713815" lon="-105.2297943">
  <ele>1583.0</ele>
  <time>2026-08-28T17:52:35Z</time>
  <course>274.53</course>
  <speed>0.0</speed>
  <fix>3d</fix>
</trkpt>
<trkpt lat="40.0713816" lon="-105.2297941">
  <ele>1582.99</ele>
  <time>2026-08-28T17:52:35Z</time>
  <course>281.39</course>
  <speed>0.022360679774997897</speed>
  <fix>3d</fix>
</trkpt>
<trkpt lat="40.0713815" lon="-105.2297943">
  <ele>1583.0</ele>
  <time>2026-08-28T17:52:35Z</time>
  <course>274.53</course>
  <speed>0.0</speed>
  <fix>3d</fix>
</trkpt>
<trkpt lat="40.0713816" lon="-105.2297941">
  <ele>1582.99</ele>
  <time>2026-08-28T17:52:36Z</time>
  <course>281.39</course>
  <speed>0.022360679774997897</speed>
  <fix>3d</fix>
</trkpt>
<trkpt lat="40.0713815" lon="-105.2297943">
  <ele>1583.0</ele>
  <time>2026-08-28T17:52:36Z</time>
  <course>273.95</course>
  <speed>0.0</speed>
  <fix>3d</fix>
</trkpt>
<trkpt lat="40.0713816" lon="-105.2297941">
  <ele>1582.99</ele>
  <time>2026-08-28T17:52:36Z</time>
  <course>281.39</course>
  <speed>0.022360679774997897</speed>
  <fix>3d</fix>
</trkpt>
<trkpt lat="40.0713815" lon="-105.2297943">
  <ele>1583.0</ele>
  <time>2026-08-28T17:52:36Z</time>
  <course>273.95</course>
  <speed>0.0</speed>
  <fix>3d</fix>
</trkpt>
<trkpt lat="40.0713816" lon="-105.2297941">
  <ele>1582.98</ele>
  <time>2026-08-28T17:52:36Z</time>
  <course>281.39</course>
  <speed>0.022360679774997897</speed>
  <fix>3d</fix>
</trkpt>
<trkpt lat="40.0713815" lon="-105.2297943">
  <ele>1583.0</ele>
  <time>2026-08-28T17:52:36Z</time>
  <course>273.3</course>
  <speed>0.0</speed>
  <fix>3d</fix>
</trkpt>
<trkpt lat="40.0713816" lon="-105.2297941">
  <ele>1582.98</ele>
  <time>2026-08-28T17:52:36Z</time>
  <course>281.39</course>
  <speed>0.022360679774997897</speed>
  <fix>3d</fix>
</trkpt>
<trkpt lat="40.0713815" lon="-105.2297943">
  <ele>1583.0</ele>
  <time>2026-08-28T17:52:36Z</time>
  <course>273.3</course>
  <speed>0.0</speed>
  <fix>3d</fix>
</trkpt>
<trkpt lat="40.0713816" lon="-105.2297941">
  <ele>1582.98</ele>
  <time>2026-08-28T17:52:36Z</time>
  <course>281.39</course>
  <speed>0.022360679774997897</speed>
  <fix>3d</fix>
</trkpt>
<trkpt lat="40.0713815" lon="-105.2297943">
  <ele>1583.0</ele>
  <time>2026-08-28T17:52:36Z</time>
  <course>272.6</course>
  <speed>0.0</speed>
  <fix>3d</fix>
</trkpt>
<trkpt lat="40.0713816" lon="-105.2297941">
  <ele>1582.98</ele>
  <time>2026-08-28T17:52:36Z</time>
  <course>281.39</course>
  <speed>0.022360679774997897</speed>
  <fix>3d</fix>
</trkpt>
<trkpt lat="40.0713815" lon="-105.2297943">
  <ele>1583.0</ele>
  <time>2026-08-28T17:52:36Z</time>
  <course>272.6</course>
  <speed>0.0</speed>
  <fix>3d</fix>
</trkpt>
<trkpt lat="40.0713816" lon="-105.2297941">
  <ele>1582.99</ele>
  <time>2026-08-28T17:52:36Z</time>
  <course>281.39</course>
  <speed>0.022360679774997897</speed>
  <fix>3d</fix>
</trkpt>
<trkpt lat="40.0713815" lon="-105.2297943">
  <ele>1583.0</ele>
  <time>2026-08-28T17:52:36Z</time>
  <course>272.6</course>
  <speed>0.0</speed>
  <fix>3d</fix>
</trkpt>
<trkpt lat="40.0713816" lon="-105.2297941">
  <ele>1582.99</ele>
  <time>2026-08-28T17:52:36Z</time>
  <course>281.39</course>
  <speed>0.022360679774997897</speed>
  <fix>3d</fix>
</trkpt>
<trkpt lat="40.0713815" lon="-105.2297943">
  <ele>1583.0</ele>
  <time>2026-08-28T17:52:36Z</time>
  <course>271.82</course>
  <speed>0.0</speed>
  <fix>3d</fix>
</trkpt>
<trkpt lat="40.0713816" lon="-105.2297941">
  <ele>1582.98</ele>
  <time>2026-08-28T17:52:36Z</time>
  <course>281.39</course>
  <speed>0.022360679774997897</speed>
  <fix>3d</fix>
</trkpt>
<trkpt lat="40.0713815" lon="-105.2297943">
  <ele>1583.0</ele>
  <time>2026-08-28T17:52:36Z</time>
  <course>271.82</course>
  <speed>0.0</speed>
  <fix>3d</fix>
</trkpt>
<trkpt lat="40.0713816" lon="-105.2297941">
  <ele>1582.98</ele>
  <time>2026-08-28T17:52:36Z</time>
  <course>281.39</course>
  <speed>0.022360679774997897</speed>
  <fix>3d</fix>
</trkpt>
<trkpt lat="40.0713815" lon="-105.2297943">
  <ele>1583.0</ele>
  <time>2026-08-28T17:52:36Z</time>
  <course>270.96</course>
  <speed>0.0</speed>
  <fix>3d</fix>
</trkpt>
<trkpt lat="40.0713816" lon="-105.2297941">
  <ele>1582.98</ele>
  <time>2026-08-28T17:52:36Z</time>
  <course>281.4</course>
  <speed>0.022360679774997897</speed>
  <fix>3d</fix>
</trkpt>
<trkpt lat="40.0713815" lon="-105.2297943">
  <ele>1583.0</ele>
  <time>2026-08-28T17:52:36Z</time>
  <course>270.96</course>
  <speed>0.0</speed>
  <fix>3d</fix>
</trkpt>
<trkpt lat="40.0713816" lon="-105.2297941">
  <ele>1582.98</ele>
  <time>2026-08-28T17:52:36Z</time>
  <course>281.4</course>
  <speed>0.022360679774997897</speed>
  <fix>3d</fix>
</trkpt>
<trkpt lat="40.0713815" lon="-105.2297943">
  <ele>1583.0</ele>
  <time>2026-08-28T17:52:36Z</time>
  <course>270.01</course>
  <speed>0.0</speed>
  <fix>3d</fix>
</trkpt>
<trkpt lat="40.0713816" lon="-105.2297941">
  <ele>1582.98</ele>
  <time>2026-08-28T17:52:36Z</time>
  <course>281.4</course>
  <speed>0.022360679774997897</speed>
  <fix>3d</fix>
</trkpt>
<trkpt lat="40.0713815" lon="-105.2297943">
  <ele>1583.0</ele>
  <time>2026-08-28T17:52:36Z</time>
  <course>270.01</course>
  <speed>0.0</speed>
  <fix>3d</fix>
</trkpt>
<trkpt lat="40.0713816" lon="-105.2297941">
  <ele>1582.97</ele>
  <time>2026-08-28T17:52:36Z</time>
  <course>281.4</course>
  <speed>0.022360679774997897</speed>
  <fix>3d</fix>
</trkpt>
<trkpt lat="40.0713815" lon="-105.2297943">
  <ele>1583.0</ele>
  <time>2026-08-28T17:52:36Z</time>
  <course>268.98</course>
  <speed>0.0</speed>
  <fix>3d</fix>
</trkpt>
<trkpt lat="40.0713816" lon="-105.2297941">
  <ele>1582.97</ele>
  <time>2026-08-28T17:52:36Z</time>
  <course>281.4</course>
  <speed>0.022360679774997897</speed>
  <fix>3d</fix>
</trkpt>
<trkpt lat="40.0713815" lon="-105.2297943">
  <ele>1583.0</ele>
  <time>2026-08-28T17:52:36Z</time>
  <course>267.84</course>
  <speed>0.0</speed>
  <fix>3d</fix>
</trkpt>
<trkpt lat="40.0713816" lon="-105.2297941">
  <ele>1582.97</ele>
  <time>2026-08-28T17:52:36Z</time>
  <course>281.4</course>
  <speed>0.022360679774997897</speed>
  <fix>3d</fix>
</trkpt>
<trkpt lat="40.0713815" lon="-105.2297943">
  <ele>1583.0</ele>
  <time>2026-08-28T17:52:36Z</time>
  <course>267.84</course>
  <speed>0.0</speed>
  <fix>3d</fix>
</trkpt>
<trkpt lat="40.0713816" lon="-105.2297941">
  <ele>1582.97</ele>
  <time>2026-08-28T17:52:36Z</time>
  <course>281.4</course>
  <speed>0.022360679774997897</speed>
  <fix>3d</fix>
</trkpt>
<trkpt lat="40.0713815" lon="-105.2297943">
  <ele>1583.0</ele>
  <time>2026-08-28T17:52:36Z</time>
  <course>266.6</course>
  <speed>0.0</speed>
  <fix>3d</fix>
</trkpt>
<trkpt lat="40.0713816" lon="-105.2297941">
  <ele>1582.97</ele>
  <time>2026-08-28T17:52:36Z</time>
  <course>281.4</course>
  <speed>0.022360679774997897</speed>
  <fix>3d</fix>
</trkpt>
<trkpt lat="40.0713815" lon="-105.2297943">
  <ele>1583.0</ele>
  <time>2026-08-28T17:52:36Z</time>
  <course>266.6</course>
  <speed>0.0</speed>
  <fix>3d</fix>
</trkpt>
<trkpt lat="40.0713816" lon="-105.2297941">
  <ele>1582.97</ele>
  <time>2026-08-28T17:52:36Z</time>
  <course>281.4</course>
  <speed>0.022360679774997897</speed>
  <fix>3d</fix>
</trkpt>
<trkpt lat="40.0713815" lon="-105.2297943">
  <ele>1583.0</ele>
  <time>2026-08-28T17:52:36Z</time>
  <course>265.23</course>
  <speed>0.0</speed>
  <fix>3d</fix>
</trkpt>
<trkpt lat="40.0713816" lon="-105.2297941">
  <ele>1582.98</ele>
  <time>2026-08-28T17:52:36Z</time>
  <course>281.4</course>
  <speed>0.022360679774997897</speed>
  <fix>3d</fix>
</trkpt>
<trkpt lat="40.0713815" lon="-105.2297943">
  <ele>1583.0</ele>
  <time>2026-08-28T17:52:36Z</time>
  <course>265.23</course>
  <speed>0.0</speed>
  <fix>3d</fix>
</trkpt>
<trkpt lat="40.0713816" lon="-105.2297941">
  <ele>1582.98</ele>
  <time>2026-08-28T17:52:36Z</time>
  <course>281.4</course>
  <speed>0.022360679774997897</speed>
  <fix>3d</fix>
</trkpt>
<trkpt lat="40.0713815" lon="-105.2297943">
  <ele>1583.0</ele>
  <time>2026-08-28T17:52:36Z</time>
  <course>263.75</course>
  <speed>0.0</speed>
  <fix>3d</fix>
</trkpt>
<trkpt lat="40.0713816" lon="-105.2297941">
  <ele>1582.98</ele>
  <time>2026-08-28T17:52:36Z</time>
  <course>281.4</course>
  <speed>0.022360679774997897</speed>
  <fix>3d</fix>
</trkpt>
<trkpt lat="40.0713815" lon="-105.2297943">
  <ele>1583.0</ele>
  <time>2026-08-28T17:52:36Z</time>
  <course>263.75</course>
  <speed>0.0</speed>
  <fix>3d</fix>
</trkpt>
<trkpt lat="40.0713816" lon="-105.2297941">
  <ele>1582.98</ele>
  <time>2026-08-28T17:52:36Z</time>
  <course>281.4</course>
  <speed>0.022360679774997897</speed>
  <fix>3d</fix>
</trkpt>
<trkpt lat="40.0713815" lon="-105.2297943">
  <ele>1583.0</ele>
  <time>2026-08-28T17:52:36Z</time>
  <course>262.14</course>
  <speed>0.0</speed>
  <fix>3d</fix>
</trkpt>
<trkpt lat="40.0713816" lon="-105.2297941">
  <ele>1582.98</ele>
  <time>2026-08-28T17:52:36Z</time>
  <course>281.4</course>
  <speed>0.022360679774997897</speed>
  <fix>3d</fix>
</trkpt>
<trkpt lat="40.0713815" lon="-105.2297943">
  <ele>1583.0</ele>
  <time>2026-08-28T17:52:36Z</time>
  <course>262.14</course>
  <speed>0.0</speed>
  <fix>3d</fix>
</trkpt>
<trkpt lat="40.0713816" lon="-105.2297941">
  <ele>1582.97</ele>
  <time>2026-08-28T17:52:36Z</time>
  <course>281.41</course>
  <speed>0.022360679774997897</speed>
  <fix>3d</fix>
</trkpt>
<trkpt lat="40.0713815" lon="-105.2297943">
  <ele>1583.0</ele>
  <time>2026-08-28T17:52:36Z</time>
  <course>260.39</course>
  <speed>0.0</speed>
  <fix>3d</fix>
</trkpt>
<trkpt lat="40.0713816" lon="-105.2297941">
  <ele>1582.97</ele>
  <time>2026-08-28T17:52:36Z</time>
  <course>281.41</course>
  <speed>0.022360679774997897</speed>
  <fix>3d</fix>
</trkpt>
<trkpt lat="40.0713815" lon="-105.2297943">
  <ele>1583.0</ele>
  <time>2026-08-28T17:52:36Z</time>
  <course>260.39</course>
  <speed>0.0</speed>
  <fix>3d</fix>
</trkpt>
<trkpt lat="40.0713816" lon="-105.2297941">
  <ele>1582.97</ele>
  <time>2026-08-28T17:52:36Z</time>
  <course>281.41</course>
  <speed>0.022360679774997897</speed>
  <fix>3d</fix>
</trkpt>
<trkpt lat="40.0713815" lon="-105.2297943">
  <ele>1583.0</ele>
  <time>2026-08-28T17:52:36Z</time>
  <course>258.5</course>
  <speed>0.0</speed>
  <fix>3d</fix>
</trkpt>
<trkpt lat="40.0713816" lon="-105.2297941">
  <ele>1582.97</ele>
  <time>2026-08-28T17:52:36Z</time>
  <course>281.41</course>
  <speed>0.022360679774997897</speed>
  <fix>3d</fix>
</trkpt>
<trkpt lat="40.0713815" lon="-105.2297943">
  <ele>1583.0</ele>
  <time>2026-08-28T17:52:36Z</time>
  <course>258.5</course>
  <speed>0.0</speed>
  <fix>3d</fix>
</trkpt>
<trkpt lat="40.0713816" lon="-105.2297941">
  <ele>1582.97</ele>
  <time>2026-08-28T17:52:36Z</time>
  <course>281.41</course>
  <speed>0.022360679774997897</speed>
  <fix>3d</fix>
</trkpt>
<trkpt lat="40.0713815" lon="-105.2297943">
  <ele>1583.0</ele>
  <time>2026-08-28T17:52:36Z</time>
  <course>258.5</course>
  <speed>0.0</speed>
  <fix>3d</fix>
</trkpt>
<trkpt lat="40.0713816" lon="-105.2297941">
  <ele>1582.97</ele>
  <time>2026-08-28T17:52:36Z</time>
  <course>281.41</course>
  <speed>0.022360679774997897</speed>
  <fix>3d</fix>
</trkpt>
<trkpt lat="40.0713815" lon="-105.2297943">
  <ele>1583.0</ele>
  <time>2026-08-28T17:52:36Z</time>
  <course>256.46</course>
  <speed>0.0</speed>
  <fix>3d</fix>
</trkpt>
<trkpt lat="40.0713816" lon="-105.2297941">
  <ele>1582.97</ele>
  <time>2026-08-28T17:52:36Z</time>
  <course>281.41</course>
  <speed>0.022360679774997897</speed>
  <fix>3d</fix>
</trkpt>
<trkpt lat="40.0713815" lon="-105.2297943">
  <ele>1583.0</ele>
  <time>2026-08-28T17:52:36Z</time>
  <course>256.46</course>
  <speed>0.0</speed>
  <fix>3d</fix>
</trkpt>
<trkpt lat="40.0713816" lon="-105.2297941">
  <ele>1582.96</ele>
  <time>2026-08-28T17:52:36Z</time>
  <course>281.41</course>
  <speed>0.022360679774997897</speed>
  <fix>3d</fix>
</trkpt>
<trkpt lat="40.0713815" lon="-105.2297943">
  <ele>1583.0</ele>
  <time>2026-08-28T17:52:36Z</time>
  <course>254.28</course>
  <speed>0.0</speed>
  <fix>3d</fix>
</trkpt>
<trkpt lat="40.0713816" lon="-105.2297941">
  <ele>1582.96</ele>
  <time>2026-08-28T17:52:36Z</time>
  <course>281.41</course>
  <speed>0.022360679774997897</speed>
  <fix>3d</fix>
</trkpt>
<trkpt lat="40.0713815" lon="-105.2297943">
  <ele>1583.0</ele>
  <time>2026-08-28T17:52:36Z</time>
  <course>254.28</course>
  <speed>0.0</speed>
  <fix>3d</fix>
</trkpt>
<trkpt lat="40.0713816" lon="-105.2297941">
  <ele>1582.96</ele>
  <time>2026-08-28T17:52:36Z</time>
  <course>281.41</course>
  <speed>0.022360679774997897</speed>
  <fix>3d</fix>
</trkpt>
<trkpt lat="40.0713815" lon="-105.2297943">
  <ele>1583.0</ele>
  <time>2026-08-28T17:52:36Z</time>
  <course>251.96</course>
  <speed>0.0</speed>
  <fix>3d</fix>
</trkpt>
<trkpt lat="40.0713816" lon="-105.2297941">
  <ele>1582.95</ele>
  <time>2026-08-28T17:52:36Z</time>
  <course>281.41</course>
  <speed>0.022360679774997897</speed>
  <fix>3d</fix>
</trkpt>
<trkpt lat="40.0713815" lon="-105.2297943">
  <ele>1583.0</ele>
  <time>2026-08-28T17:52:36Z</time>
  <course>249.52</course>
  <speed>0.0</speed>
  <fix>3d</fix>
</trkpt>
<trkpt lat="40.0713816" lon="-105.2297941">
  <ele>1582.95</ele>
  <time>2026-08-28T17:52:36Z</time>
  <course>281.41</course>
  <speed>0.022360679774997897</speed>
  <fix>3d</fix>
</trkpt>
<trkpt lat="40.0713815" lon="-105.2297943">
  <ele>1583.0</ele>
  <time>2026-08-28T17:52:36Z</time>
  <course>249.52</course>
  <speed>0.0</speed>
  <fix>3d</fix>
</trkpt>
<trkpt lat="40.0713816" lon="-105.2297941">
  <ele>1582.94</ele>
  <time>2026-08-28T17:52:36Z</time>
  <course>281.41</course>
  <speed>0.022360679774997897</speed>
  <fix>3d</fix>
</trkpt>
<trkpt lat="40.0713815" lon="-105.2297943">
  <ele>1583.0</ele>
  <time>2026-08-28T17:52:36Z</time>
  <course>246.95</course>
  <speed>0.0</speed>
  <fix>3d</fix>
</trkpt>
<trkpt lat="40.0713816" lon="-105.2297941">
  <ele>1582.94</ele>
  <time>2026-08-28T17:52:36Z</time>
  <course>281.41</course>
  <speed>0.022360679774997897</speed>
  <fix>3d</fix>
</trkpt>
<trkpt lat="40.0713815" lon="-105.2297943">
  <ele>1583.0</ele>
  <time>2026-08-28T17:52:36Z</time>
  <course>246.95</course>
  <speed>0.0</speed>
  <fix>3d</fix>
</trkpt>
<trkpt lat="40.0713816" lon="-105.2297941">
  <ele>1582.93</ele>
  <time>2026-08-28T17:52:36Z</time>
  <course>281.41</course>
  <speed>0.022360679774997897</speed>
  <fix>3d</fix>
</trkpt>
<trkpt lat="40.0713815" lon="-105.2297943">
  <ele>1583.0</ele>
  <time>2026-08-28T17:52:36Z</time>
  <course>244.28</course>
  <speed>0.0</speed>
  <fix>3d</fix>
</trkpt>
<trkpt lat="40.0713816" lon="-105.2297941">
  <ele>1582.93</ele>
  <time>2026-08-28T17:52:36Z</time>
  <course>281.41</course>
  <speed>0.022360679774997897</speed>
  <fix>3d</fix>
</trkpt>
<trkpt lat="40.0713815" lon="-105.2297943">
  <ele>1583.0</ele>
  <time>2026-08-28T17:52:36Z</time>
  <course>244.28</course>
  <speed>0.0</speed>
  <fix>3d</fix>
</trkpt>
<trkpt lat="40.0713816" lon="-105.2297941">
  <ele>1582.93</ele>
  <time>2026-08-28T17:52:36Z</time>
  <course>281.42</course>
  <speed>0.022360679774997897</speed>
  <fix>3d</fix>
</trkpt>
<trkpt lat="40.0713815" lon="-105.2297943">
  <ele>1583.0</ele>
  <time>2026-08-28T17:52:36Z</time>
  <course>241.52</course>
  <speed>0.0</speed>
  <fix>3d</fix>
</trkpt>
<trkpt lat="40.0713816" lon="-105.2297941">
  <ele>1582.93</ele>
  <time>2026-08-28T17:52:36Z</time>
  <course>281.42</course>
  <speed>0.022360679774997897</speed>
  <fix>3d</fix>
</trkpt>
<trkpt lat="40.0713815" lon="-105.2297943">
  <ele>1583.0</ele>
  <time>2026-08-28T17:52:36Z</time>
  <course>241.52</course>
  <speed>0.0</speed>
  <fix>3d</fix>
</trkpt>
<trkpt lat="40.0713816" lon="-105.2297941">
  <ele>1582.93</ele>
  <time>2026-08-28T17:52:36Z</time>
  <course>281.42</course>
  <speed>0.022360679774997897</speed>
  <fix>3d</fix>
</trkpt>
<trkpt lat="40.0713815" lon="-105.2297943">
  <ele>1583.0</ele>
  <time>2026-08-28T17:52:36Z</time>
  <course>238.7</course>
  <speed>0.0</speed>
  <fix>3d</fix>
</trkpt>
<trkpt lat="40.0713816" lon="-105.2297941">
  <ele>1582.93</ele>
  <time>2026-08-28T17:52:36Z</time>
  <course>281.42</course>
  <speed>0.022360679774997897</speed>
  <fix>3d</fix>
</trkpt>
<trkpt lat="40.0713815" lon="-105.2297943">
  <ele>1583.0</ele>
  <time>2026-08-28T17:52:36Z</time>
  <course>238.7</course>
  <speed>0.0</speed>
  <fix>3d</fix>
</trkpt>
<trkpt lat="40.0713816" lon="-105.2297941">
  <ele>1582.93</ele>
  <time>2026-08-28T17:52:36Z</time>
  <course>281.42</course>
  <speed>0.022360679774997897</speed>
  <fix>3d</fix>
</trkpt>
<trkpt lat="40.0713815" lon="-105.2297943">
  <ele>1583.0</ele>
  <time>2026-08-28T17:52:36Z</time>
  <course>235.84</course>
  <speed>0.0</speed>
  <fix>3d</fix>
</trkpt>
<trkpt lat="40.0713816" lon="-105.2297941">
  <ele>1582.94</ele>
  <time>2026-08-28T17:52:36Z</time>
  <course>281.42</course>
  <speed>0.022360679774997897</speed>
  <fix>3d</fix>
</trkpt>
<trkpt lat="40.0713815" lon="-105.2297943">
  <ele>1583.0</ele>
  <time>2026-08-28T17:52:36Z</time>
  <course>235.84</course>
  <speed>0.0</speed>
  <fix>3d</fix>
</trkpt>
<trkpt lat="40.0713816" lon="-105.2297941">
  <ele>1582.95</ele>
  <time>2026-08-28T17:52:36Z</time>
  <course>281.42</course>
  <speed>0.022360679774997897</speed>
  <fix>3d</fix>
</trkpt>
<trkpt lat="40.0713815" lon="-105.2297943">
  <ele>1583.0</ele>
  <time>2026-08-28T17:52:36Z</time>
  <course>232.98</course>
  <speed>0.0</speed>
  <fix>3d</fix>
</trkpt>
<trkpt lat="40.0713816" lon="-105.2297941">
  <ele>1582.95</ele>
  <time>2026-08-28T17:52:36Z</time>
  <course>281.42</course>
  <speed>0.022360679774997897</speed>
  <fix>3d</fix>
</trkpt>
<trkpt lat="40.0713815" lon="-105.2297943">
  <ele>1583.0</ele>
  <time>2026-08-28T17:52:36Z</time>
  <course>232.98</course>
  <speed>0.0</speed>
  <fix>3d</fix>
</trkpt>
<trkpt lat="40.0713816" lon="-105.2297941">
  <ele>1582.96</ele>
  <time>2026-08-28T17:52:36Z</time>
  <course>281.42</course>
  <speed>0.022360679774997897</speed>
  <fix>3d</fix>
</trkpt>
<trkpt lat="40.0713815" lon="-105.2297943">
  <ele>1583.0</ele>
  <time>2026-08-28T17:52:36Z</time>
  <course>232.98</course>
  <speed>0.0</speed>
  <fix>3d</fix>
</trkpt>
<trkpt lat="40.0713816" lon="-105.2297941">
  <ele>1582.97</ele>
  <time>2026-08-28T17:52:36Z</time>
  <course>281.42</course>
  <speed>0.022360679774997897</speed>
  <fix>3d</fix>
</trkpt>
<trkpt lat="40.0713815" lon="-105.2297943">
  <ele>1583.0</ele>
  <time>2026-08-28T17:52:36Z</time>
  <course>230.14</course>
  <speed>0.0</speed>
  <fix>3d</fix>
</trkpt>
<trkpt lat="40.0713816" lon="-105.2297941">
  <ele>1582.97</ele>
  <time>2026-08-28T17:52:36Z</time>
  <course>281.42</course>
  <speed>0.022360679774997897</speed>
  <fix>3d</fix>
</trkpt>
<trkpt lat="40.0713815" lon="-105.2297943">
  <ele>1583.0</ele>
  <time>2026-08-28T17:52:36Z</time>
  <course>230.14</course>
  <speed>0.0</speed>
  <fix>3d</fix>
</trkpt>
<trkpt lat="40.0713816" lon="-105.2297941">
  <ele>1582.97</ele>
  <time>2026-08-28T17:52:36Z</time>
  <course>281.42</course>
  <speed>0.022360679774997897</speed>
  <fix>3d</fix>
</trkpt>
<trkpt lat="40.0713815" lon="-105.2297943">
  <ele>1583.0</ele>
  <time>2026-08-28T17:52:36Z</time>
  <course>227.34</course>
  <speed>0.0</speed>
  <fix>3d</fix>
</trkpt>
<trkpt lat="40.0713816" lon="-105.2297941">
  <ele>1582.98</ele>
  <time>2026-08-28T17:52:36Z</time>
  <course>281.42</course>
  <speed>0.022360679774997897</speed>
  <fix>3d</fix>
</trkpt>
<trkpt lat="40.0713815" lon="-105.2297943">
  <ele>1583.0</ele>
  <time>2026-08-28T17:52:36Z</time>
  <course>227.34</course>
  <speed>0.0</speed>
  <fix>3d</fix>
</trkpt>
<trkpt lat="40.0713816" lon="-105.2297941">
  <ele>1582.98</ele>
  <time>2026-08-28T17:52:36Z</time>
  <course>281.42</course>
  <speed>0.022360679774997897</speed>
  <fix>3d</fix>
</trkpt>
<trkpt lat="40.0713815" lon="-105.2297943">
  <ele>1583.0</ele>
  <time>2026-08-28T17:52:36Z</time>
  <course>224.62</course>
  <speed>0.0</speed>
  <fix>3d</fix>
</trkpt>
<trkpt lat="40.0713816" lon="-105.2297941">
  <ele>1582.98</ele>
  <time>2026-08-28T17:52:36Z</time>
  <course>281.42</course>
  <speed>0.022360679774997897</speed>
  <fix>3d</fix>
</trkpt>
<trkpt lat="40.0713815" lon="-105.2297943">
  <ele>1583.0</ele>
  <time>2026-08-28T17:52:36Z</time>
  <course>224.62</course>
  <speed>0.0</speed>
  <fix>3d</fix>
</trkpt>
<trkpt lat="40.0713816" lon="-105.2297941">
  <ele>1582.98</ele>
  <time>2026-08-28T17:52:36Z</time>
  <course>281.42</course>
  <speed>0.022360679774997897</speed>
  <fix>3d</fix>
</trkpt>
<trkpt lat="40.0713815" lon="-105.2297943">
  <ele>1583.0</ele>
  <time>2026-08-28T17:52:36Z</time>
  <course>221.99</course>
  <speed>0.0</speed>
  <fix>3d</fix>
</trkpt>
<trkpt lat="40.0713816" lon="-105.2297941">
  <ele>1582.98</ele>
  <time>2026-08-28T17:52:36Z</time>
  <course>281.42</course>
  <speed>0.022360679774997897</speed>
  <fix>3d</fix>
</trkpt>
<trkpt lat="40.0713815" lon="-105.2297943">
  <ele>1583.0</ele>
  <time>2026-08-28T17:52:36Z</time>
  <course>219.48</course>
  <speed>0.0</speed>
  <fix>3d</fix>
</trkpt>
<trkpt lat="40.0713816" lon="-105.2297941">
  <ele>1582.98</ele>
  <time>2026-08-28T17:52:36Z</time>
  <course>281.42</course>
  <speed>0.022360679774997897</speed>
  <fix>3d</fix>
</trkpt>
<trkpt lat="40.0713815" lon="-105.2297943">
  <ele>1583.0</ele>
  <time>2026-08-28T17:52:36Z</time>
  <course>219.48</course>
  <speed>0.0</speed>
  <fix>3d</fix>
</trkpt>
<trkpt lat="40.0713816" lon="-105.2297941">
  <ele>1582.98</ele>
  <time>2026-08-28T17:52:36Z</time>
  <course>281.42</course>
  <speed>0.022360679774997897</speed>
  <fix>3d</fix>
</trkpt>
<trkpt lat="40.0713815" lon="-105.2297943">
  <ele>1583.0</ele>
  <time>2026-08-28T17:52:36Z</time>
  <course>217.1</course>
  <speed>0.0</speed>
  <fix>3d</fix>
</trkpt>
<trkpt lat="40.0713816" lon="-105.2297941">
  <ele>1582.98</ele>
  <time>2026-08-28T17:52:36Z</time>
  <course>281.42</course>
  <speed>0.022360679774997897</speed>
  <fix>3d</fix>
</trkpt>
<trkpt lat="40.0713815" lon="-105.2297943">
  <ele>1583.0</ele>
  <time>2026-08-28T17:52:36Z</time>
  <course>217.1</course>
  <speed>0.0</speed>
  <fix>3d</fix>
</trkpt>
<trkpt lat="40.0713816" lon="-105.2297941">
  <ele>1582.99</ele>
  <time>2026-08-28T17:52:36Z</time>
  <course>281.42</course>
  <speed>0.022360679774997897</speed>
  <fix>3d</fix>
</trkpt>
<trkpt lat="40.0713815" lon="-105.2297943">
  <ele>1583.0</ele>
  <time>2026-08-28T17:52:36Z</time>
  <course>214.85</course>
  <speed>0.0</speed>
  <fix>3d</fix>
</trkpt>
<trkpt lat="40.0713816" lon="-105.2297941">
  <ele>1582.99</ele>
  <time>2026-08-28T17:52:36Z</time>
  <course>281.43</course>
  <speed>0.022360679774997897</speed>
  <fix>3d</fix>
</trkpt>
<trkpt lat="40.0713815" lon="-105.2297943">
  <ele>1583.0</ele>
  <time>2026-08-28T17:52:36Z</time>
  <course>214.85</course>
  <speed>0.0</speed>
  <fix>3d</fix>
</trkpt>
<trkpt lat="40.0713816" lon="-105.2297941">
  <ele>1582.99</ele>
  <time>2026-08-28T17:52:36Z</time>
  <course>281.43</course>
  <speed>0.022360679774997897</speed>
  <fix>3d</fix>
</trkpt>
<trkpt lat="40.0713815" lon="-105.2297943">
  <ele>1583.0</ele>
  <time>2026-08-28T17:52:36Z</time>
  <course>212.75</course>
  <speed>0.0</speed>
  <fix>3d</fix>
</trkpt>
<trkpt lat="40.0713816" lon="-105.2297941">
  <ele>1582.99</ele>
  <time>2026-08-28T17:52:36Z</time>
  <course>281.43</course>
  <speed>0.022360679774997897</speed>
  <fix>3d</fix>
</trkpt>
<trkpt lat="40.0713815" lon="-105.2297943">
  <ele>1583.0</ele>
  <time>2026-08-28T17:52:36Z</time>
  <course>212.75</course>
  <speed>0.0</speed>
  <fix>3d</fix>
</trkpt>
<trkpt lat="40.0713816" lon="-105.2297941">
  <ele>1582.99</ele>
  <time>2026-08-28T17:52:36Z</time>
  <course>281.43</course>
  <speed>0.022360679774997897</speed>
  <fix>3d</fix>
</trkpt>
<trkpt lat="40.0713815" lon="-105.2297943">
  <ele>1583.0</ele>
  <time>2026-08-28T17:52:36Z</time>
  <course>210.78</course>
  <speed>0.0</speed>
  <fix>3d</fix>
</trkpt>
<trkpt lat="40.0713816" lon="-105.2297941">
  <ele>1583.0</ele>
  <time>2026-08-28T17:52:36Z</time>
  <course>281.43</course>
  <speed>0.022360679774997897</speed>
  <fix>3d</fix>
</trkpt>
<trkpt lat="40.0713815" lon="-105.2297943">
  <ele>1583.0</ele>
  <time>2026-08-28T17:52:36Z</time>
  <course>210.78</course>
  <speed>0.0</speed>
  <fix>3d</fix>
</trkpt>
<trkpt lat="40.0713816" lon="-105.2297941">
  <ele>1583.0</ele>
  <time>2026-08-28T17:52:36Z</time>
  <course>281.43</course>
  <speed>0.022360679774997897</speed>
  <fix>3d</fix>
</trkpt>
<trkpt lat="40.0713815" lon="-105.2297943">
  <ele>1583.0</ele>
  <time>2026-08-28T17:52:36Z</time>
  <course>208.96</course>
  <speed>0.0</speed>
  <fix>3d</fix>
</trkpt>
<trkpt lat="40.0713816" lon="-105.2297941">
  <ele>1583.0</ele>
  <time>2026-08-28T17:52:36Z</time>
  <course>281.43</course>
  <speed>0.022360679774997897</speed>
  <fix>3d</fix>
</trkpt>
<trkpt lat="40.0713815" lon="-105.2297943">
  <ele>1583.0</ele>
  <time>2026-08-28T17:52:36Z</time>
  <course>208.96</course>
  <speed>0.0</speed>
  <fix>3d</fix>
</trkpt>
<trkpt lat="40.0713816" lon="-105.2297941">
  <ele>1583.0</ele>
  <time>2026-08-28T17:52:36Z</time>
  <course>281.43</course>
  <speed>0.022360679774997897</speed>
  <fix>3d</fix>
</trkpt>
<trkpt lat="40.0713815" lon="-105.2297943">
  <ele>1583.0</ele>
  <time>2026-08-28T17:52:36Z</time>
  <course>207.28</course>
  <speed>0.0</speed>
  <fix>3d</fix>
</trkpt>
<trkpt lat="40.0713816" lon="-105.2297941">
  <ele>1583.01</ele>
  <time>2026-08-28T17:52:36Z</time>
  <course>281.43</course>
  <speed>0.022360679774997897</speed>
  <fix>3d</fix>
</trkpt>
<trkpt lat="40.0713815" lon="-105.2297943">
  <ele>1583.0</ele>
  <time>2026-08-28T17:52:36Z</time>
  <course>207.28</course>
  <speed>0.0</speed>
  <fix>3d</fix>
</trkpt>
<trkpt lat="40.0713816" lon="-105.2297941">
  <ele>1583.01</ele>
  <time>2026-08-28T17:52:36Z</time>
  <course>281.43</course>
  <speed>0.022360679774997897</speed>
  <fix>3d</fix>
</trkpt>
<trkpt lat="40.0713815" lon="-105.2297943">
  <ele>1583.0</ele>
  <time>2026-08-28T17:52:36Z</time>
  <course>207.28</course>
  <speed>0.0</speed>
  <fix>3d</fix>
</trkpt>
<trkpt lat="40.0713816" lon="-105.2297941">
  <ele>1583.02</ele>
  <time>2026-08-28T17:52:36Z</time>
  <course>281.43</course>
  <speed>0.022360679774997897</speed>
  <fix>3d</fix>
</trkpt>
<trkpt lat="40.0713815" lon="-105.2297943">
  <ele>1583.0</ele>
  <time>2026-08-28T17:52:36Z</time>
  <course>205.72</course>
  <speed>0.0</speed>
  <fix>3d</fix>
</trkpt>
<trkpt lat="40.0713816" lon="-105.2297941">
  <ele>1583.02</ele>
  <time>2026-08-28T17:52:36Z</time>
  <course>281.43</course>
  <speed>0.022360679774997897</speed>
  <fix>3d</fix>
</trkpt>
<trkpt lat="40.0713815" lon="-105.2297943">
  <ele>1583.0</ele>
  <time>2026-08-28T17:52:36Z</time>
  <course>205.72</course>
  <speed>0.0</speed>
  <fix>3d</fix>
</trkpt>
<trkpt lat="40.0713816" lon="-105.2297941">
  <ele>1583.03</ele>
  <time>2026-08-28T17:52:36Z</time>
  <course>281.43</course>
  <speed>0.022360679774997897</speed>
  <fix>3d</fix>
</trkpt>
<trkpt lat="40.0713815" lon="-105.2297943">
  <ele>1583.0</ele>
  <time>2026-08-28T17:52:36Z</time>
  <course>204.3</course>
  <speed>0.0</speed>
  <fix>3d</fix>
</trkpt>
<trkpt lat="40.0713816" lon="-105.2297941">
  <ele>1583.03</ele>
  <time>2026-08-28T17:52:36Z</time>
  <course>281.43</course>
  <speed>0.022360679774997897</speed>
  <fix>3d</fix>
</trkpt>
<trkpt lat="40.0713815" lon="-105.2297943">
  <ele>1583.0</ele>
  <time>2026-08-28T17:52:36Z</time>
  <course>204.3</course>
  <speed>0.0</speed>
  <fix>3d</fix>
</trkpt>
<trkpt lat="40.0713816" lon="-105.2297941">
  <ele>1583.04</ele>
  <time>2026-08-28T17:52:36Z</time>
  <course>281.43</course>
  <speed>0.022360679774997897</speed>
  <fix>3d</fix>
</trkpt>
<trkpt lat="40.0713815" lon="-105.2297943">
  <ele>1583.0</ele>
  <time>2026-08-28T17:52:36Z</time>
  <course>203.0</course>
  <speed>0.0</speed>
  <fix>3d</fix>
</trkpt>
<trkpt lat="40.0713816" lon="-105.2297941">
  <ele>1583.04</ele>
  <time>2026-08-28T17:52:36Z</time>
  <course>281.43</course>
  <speed>0.022360679774997897</speed>
  <fix>3d</fix>
</trkpt>
<trkpt lat="40.0713815" lon="-105.2297943">
  <ele>1583.0</ele>
  <time>2026-08-28T17:52:36Z</time>
  <course>201.8</course>
  <speed>0.0</speed>
  <fix>3d</fix>
</trkpt>
<trkpt lat="40.0713816" lon="-105.2297941">
  <ele>1583.04</ele>
  <time>2026-08-28T17:52:36Z</time>
  <course>281.43</course>
  <speed>0.022360679774997897</speed>
  <fix>3d</fix>
</trkpt>
<trkpt lat="40.0713815" lon="-105.2297943">
  <ele>1583.0</ele>
  <time>2026-08-28T17:52:36Z</time>
  <course>201.8</course>
  <speed>0.0</speed>
  <fix>3d</fix>
</trkpt>
<trkpt lat="40.0713816" lon="-105.2297941">
  <ele>1583.04</ele>
  <time>2026-08-28T17:52:36Z</time>
  <course>281.43</course>
  <speed>0.022360679774997897</speed>
  <fix>3d</fix>
</trkpt>
<trkpt lat="40.0713815" lon="-105.2297943">
  <ele>1583.0</ele>
  <time>2026-08-28T17:52:36Z</time>
  <course>200.72</course>
  <speed>0.0</speed>
  <fix>3d</fix>
</trkpt>
<trkpt lat="40.0713816" lon="-105.2297941">
  <ele>1583.04</ele>
  <time>2026-08-28T17:52:36Z</time>
  <course>281.43</course>
  <speed>0.022360679774997897</speed>
  <fix>3d</fix>
</trkpt>
<trkpt lat="40.0713815" lon="-105.2297943">
  <ele>1583.0</ele>
  <time>2026-08-28T17:52:36Z</time>
  <course>200.72</course>
  <speed>0.0</speed>
  <fix>3d</fix>
</trkpt>
<trkpt lat="40.0713816" lon="-105.2297941">
  <ele>1583.04</ele>
  <time>2026-08-28T17:52:36Z</time>
  <course>281.43</course>
  <speed>0.022360679774997897</speed>
  <fix>3d</fix>
</trkpt>
<trkpt lat="40.0713815" lon="-105.2297943">
  <ele>1583.0</ele>
  <time>2026-08-28T17:52:36Z</time>
  <course>199.73</course>
  <speed>0.0</speed>
  <fix>3d</fix>
</trkpt>
<trkpt lat="40.0713816" lon="-105.2297941">
  <ele>1583.04</ele>
  <time>2026-08-28T17:52:36Z</time>
  <course>281.43</course>
  <speed>0.022360679774997897</speed>
  <fix>3d</fix>
</trkpt>
<trkpt lat="40.0713815" lon="-105.2297943">
  <ele>1583.0</ele>
  <time>2026-08-28T17:52:36Z</time>
  <course>199.73</course>
  <speed>0.0</speed>
  <fix>3d</fix>
</trkpt>
<trkpt lat="40.0713816" lon="-105.2297941">
  <ele>1583.04</ele>
  <time>2026-08-28T17:52:36Z</time>
  <course>281.43</course>
  <speed>0.022360679774997897</speed>
  <fix>3d</fix>
</trkpt>
<trkpt lat="40.0713815" lon="-105.2297943">
  <ele>1583.0</ele>
  <time>2026-08-28T17:52:36Z</time>
  <course>198.83</course>
  <speed>0.0</speed>
  <fix>3d</fix>
</trkpt>
<trkpt lat="40.0713816" lon="-105.2297941">
  <ele>1583.04</ele>
  <time>2026-08-28T17:52:36Z</time>
  <course>281.43</course>
  <speed>0.022360679774997897</speed>
  <fix>3d</fix>
</trkpt>
<trkpt lat="40.0713815" lon="-105.2297943">
  <ele>1583.0</ele>
  <time>2026-08-28T17:52:36Z</time>
  <course>198.83</course>
  <speed>0.0</speed>
  <fix>3d</fix>
</trkpt>
<trkpt lat="40.0713816" lon="-105.2297941">
  <ele>1583.05</ele>
  <time>2026-08-28T17:52:36Z</time>
  <course>281.43</course>
  <speed>0.022360679774997897</speed>
  <fix>3d</fix>
</trkpt>
<trkpt lat="40.0713815" lon="-105.2297943">
  <ele>1583.0</ele>
  <time>2026-08-28T17:52:36Z</time>
  <course>198.01</course>
  <speed>0.0</speed>
  <fix>3d</fix>
</trkpt>
<trkpt lat="40.0713816" lon="-105.2297941">
  <ele>1583.05</ele>
  <time>2026-08-28T17:52:36Z</time>
  <course>281.43</course>
  <speed>0.022360679774997897</speed>
  <fix>3d</fix>
</trkpt>
<trkpt lat="40.0713815" lon="-105.2297943">
  <ele>1583.0</ele>
  <time>2026-08-28T17:52:36Z</time>
  <course>198.01</course>
  <speed>0.0</speed>
  <fix>3d</fix>
</trkpt>
<trkpt lat="40.0713816" lon="-105.2297941">
  <ele>1583.05</ele>
  <time>2026-08-28T17:52:36Z</time>
  <course>281.43</course>
  <speed>0.022360679774997897</speed>
  <fix>3d</fix>
</trkpt>
<trkpt lat="40.0713815" lon="-105.2297943">
  <ele>1583.0</ele>
  <time>2026-08-28T17:52:36Z</time>
  <course>197.27</course>
  <speed>0.0</speed>
  <fix>3d</fix>
</trkpt>
<trkpt lat="40.0713816" lon="-105.2297941">
  <ele>1583.05</ele>
  <time>2026-08-28T17:52:36Z</time>
  <course>281.43</course>
  <speed>0.022360679774997897</speed>
  <fix>3d</fix>
</trkpt>
<trkpt lat="40.0713815" lon="-105.2297943">
  <ele>1583.0</ele>
  <time>2026-08-28T17:52:36Z</time>
  <course>197.27</course>
  <speed>0.0</speed>
  <fix>3d</fix>
</trkpt>
<trkpt lat="40.0713816" lon="-105.2297941">
  <ele>1583.05</ele>
  <time>2026-08-28T17:52:36Z</time>
  <course>281.43</course>
  <speed>0.022360679774997897</speed>
  <fix>3d</fix>
</trkpt>
<trkpt lat="40.0713815" lon="-105.2297943">
  <ele>1583.0</ele>
  <time>2026-08-28T17:52:36Z</time>
  <course>196.59</course>
  <speed>0.0</speed>
  <fix>3d</fix>
</trkpt>
<trkpt lat="40.0713816" lon="-105.2297941">
  <ele>1583.05</ele>
  <time>2026-08-28T17:52:36Z</time>
  <course>281.43</course>
  <speed>0.022360679774997897</speed>
  <fix>3d</fix>
</trkpt>
<trkpt lat="40.0713815" lon="-105.2297943">
  <ele>1583.0</ele>
  <time>2026-08-28T17:52:36Z</time>
  <course>196.59</course>
  <speed>0.0</speed>
  <fix>3d</fix>
</trkpt>
<trkpt lat="40.0713816" lon="-105.2297941">
  <ele>1583.05</ele>
  <time>2026-08-28T17:52:36Z</time>
  <course>281.44</course>
  <speed>0.022360679774997897</speed>
  <fix>3d</fix>
</trkpt>
<trkpt lat="40.0713815" lon="-105.2297943">
  <ele>1583.0</ele>
  <time>2026-08-28T17:52:36Z</time>
  <course>196.59</course>
  <speed>0.0</speed>
  <fix>3d</fix>
</trkpt>
<trkpt lat="40.0713816" lon="-105.2297941">
  <ele>1583.06</ele>
  <time>2026-08-28T17:52:36Z</time>
  <course>281.44</course>
  <speed>0.022360679774997897</speed>
  <fix>3d</fix>
</trkpt>
<trkpt lat="40.0713815" lon="-105.2297943">
  <ele>1583.0</ele>
  <time>2026-08-28T17:52:36Z</time>
  <course>195.98</course>
  <speed>0.0</speed>
  <fix>3d</fix>
</trkpt>
<trkpt lat="40.0713816" lon="-105.2297941">
  <ele>1583.06</ele>
  <time>2026-08-28T17:52:36Z</time>
  <course>281.44</course>
  <speed>0.022360679774997897</speed>
  <fix>3d</fix>
</trkpt>
<trkpt lat="40.0713815" lon="-105.2297943">
  <ele>1583.0</ele>
  <time>2026-08-28T17:52:36Z</time>
  <course>195.98</course>
  <speed>0.0</speed>
  <fix>3d</fix>
</trkpt>
<trkpt lat="40.0713816" lon="-105.2297941">
  <ele>1583.06</ele>
  <time>2026-08-28T17:52:36Z</time>
  <course>281.44</course>
  <speed>0.022360679774997897</speed>
  <fix>3d</fix>
</trkpt>
<trkpt lat="40.0713815" lon="-105.2297943">
  <ele>1583.0</ele>
  <time>2026-08-28T17:52:36Z</time>
  <course>195.42</course>
  <speed>0.0</speed>
  <fix>3d</fix>
</trkpt>
<trkpt lat="40.0713816" lon="-105.2297941">
  <ele>1583.07</ele>
  <time>2026-08-28T17:52:36Z</time>
  <course>281.44</course>
  <speed>0.022360679774997897</speed>
  <fix>3d</fix>
</trkpt>
<trkpt lat="40.0713815" lon="-105.2297943">
  <ele>1583.0</ele>
  <time>2026-08-28T17:52:36Z</time>
  <course>195.42</course>
  <speed>0.0</speed>
  <fix>3d</fix>
</trkpt>
<trkpt lat="40.0713816" lon="-105.2297941">
  <ele>1583.07</ele>
  <time>2026-08-28T17:52:36Z</time>
  <course>281.44</course>
  <speed>0.022360679774997897</speed>
  <fix>3d</fix>
</trkpt>
<trkpt lat="40.0713815" lon="-105.2297943">
  <ele>1583.0</ele>
  <time>2026-08-28T17:52:36Z</time>
  <course>194.92</course>
  <speed>0.0</speed>
  <fix>3d</fix>
</trkpt>
<trkpt lat="40.0713816" lon="-105.2297941">
  <ele>1583.08</ele>
  <time>2026-08-28T17:52:36Z</time>
  <course>281.44</course>
  <speed>0.022360679774997897</speed>
  <fix>3d</fix>
</trkpt>
<trkpt lat="40.0713815" lon="-105.2297943">
  <ele>1583.0</ele>
  <time>2026-08-28T17:52:36Z</time>
  <course>194.46</course>
  <speed>0.0</speed>
  <fix>3d</fix>
</trkpt>
<trkpt lat="40.0713816" lon="-105.2297941">
  <ele>1583.08</ele>
  <time>2026-08-28T17:52:36Z</time>
  <course>281.44</course>
  <speed>0.022360679774997897</speed>
  <fix>3d</fix>
</trkpt>
<trkpt lat="40.0713815" lon="-105.2297943">
  <ele>1583.0</ele>
  <time>2026-08-28T17:52:36Z</time>
  <course>194.46</course>
  <speed>0.0</speed>
  <fix>3d</fix>
</trkpt>
<trkpt lat="40.0713816" lon="-105.2297941">
  <ele>1583.08</ele>
  <time>2026-08-28T17:52:36Z</time>
  <course>281.44</course>
  <speed>0.022360679774997897</speed>
  <fix>3d</fix>
</trkpt>
<trkpt lat="40.0713815" lon="-105.2297943">
  <ele>1583.0</ele>
  <time>2026-08-28T17:52:36Z</time>
  <course>194.05</course>
  <speed>0.0</speed>
  <fix>3d</fix>
</trkpt>
<trkpt lat="40.0713816" lon="-105.2297941">
  <ele>1583.09</ele>
  <time>2026-08-28T17:52:36Z</time>
  <course>281.44</course>
  <speed>0.022360679774997897</speed>
  <fix>3d</fix>
</trkpt>
<trkpt lat="40.0713815" lon="-105.2297943">
  <ele>1583.0</ele>
  <time>2026-08-28T17:52:36Z</time>
  <course>194.05</course>
  <speed>0.0</speed>
  <fix>3d</fix>
</trkpt>
<trkpt lat="40.0713816" lon="-105.2297941">
  <ele>1583.09</ele>
  <time>2026-08-28T17:52:36Z</time>
  <course>281.44</course>
  <speed>0.022360679774997897</speed>
  <fix>3d</fix>
</trkpt>
<trkpt lat="40.0713815" lon="-105.2297943">
  <ele>1583.0</ele>
  <time>2026-08-28T17:52:36Z</time>
  <course>193.67</course>
  <speed>0.0</speed>
  <fix>3d</fix>
</trkpt>
<trkpt lat="40.0713816" lon="-105.2297941">
  <ele>1583.09</ele>
  <time>2026-08-28T17:52:36Z</time>
  <course>281.44</course>
  <speed>0.022360679774997897</speed>
  <fix>3d</fix>
</trkpt>
<trkpt lat="40.0713815" lon="-105.2297943">
  <ele>1583.0</ele>
  <time>2026-08-28T17:52:36Z</time>
  <course>193.67</course>
  <speed>0.0</speed>
  <fix>3d</fix>
</trkpt>
<trkpt lat="40.0713816" lon="-105.2297941">
  <ele>1583.08</ele>
  <time>2026-08-28T17:52:36Z</time>
  <course>281.44</course>
  <speed>0.022360679774997897</speed>
  <fix>3d</fix>
</trkpt>
<trkpt lat="40.0713815" lon="-105.2297943">
  <ele>1583.0</ele>
  <time>2026-08-28T17:52:36Z</time>
  <course>193.34</course>
  <speed>0.0</speed>
  <fix>3d</fix>
</trkpt>
<trkpt lat="40.0713816" lon="-105.2297941">
  <ele>1583.07</ele>
  <time>2026-08-28T17:52:36Z</time>
  <course>281.44</course>
  <speed>0.022360679774997897</speed>
  <fix>3d</fix>
</trkpt>
<trkpt lat="40.0713815" lon="-105.2297943">
  <ele>1583.0</ele>
  <time>2026-08-28T17:52:36Z</time>
  <course>193.34</course>
  <speed>0.0</speed>
  <fix>3d</fix>
</trkpt>
<trkpt lat="40.0713816" lon="-105.2297941">
  <ele>1583.06</ele>
  <time>2026-08-28T17:52:36Z</time>
  <course>281.44</course>
  <speed>0.022360679774997897</speed>
  <fix>3d</fix>
</trkpt>
<trkpt lat="40.0713815" lon="-105.2297943">
  <ele>1583.0</ele>
  <time>2026-08-28T17:52:36Z</time>
  <course>193.03</course>
  <speed>0.0</speed>
  <fix>3d</fix>
</trkpt>
<trkpt lat="40.0713816" lon="-105.2297941">
  <ele>1583.06</ele>
  <time>2026-08-28T17:52:36Z</time>
  <course>281.44</course>
  <speed>0.022360679774997897</speed>
  <fix>3d</fix>
</trkpt>
<trkpt lat="40.0713815" lon="-105.2297943">
  <ele>1583.0</ele>
  <time>2026-08-28T17:52:36Z</time>
  <course>193.03</course>
  <speed>0.0</speed>
  <fix>3d</fix>
</trkpt>
<trkpt lat="40.0713816" lon="-105.2297941">
  <ele>1583.05</ele>
  <time>2026-08-28T17:52:36Z</time>
  <course>281.44</course>
  <speed>0.022360679774997897</speed>
  <fix>3d</fix>
</trkpt>
<trkpt lat="40.0713815" lon="-105.2297943">
  <ele>1583.0</ele>
  <time>2026-08-28T17:52:36Z</time>
  <course>192.75</course>
  <speed>0.0</speed>
  <fix>3d</fix>
</trkpt>
<trkpt lat="40.0713816" lon="-105.2297941">
  <ele>1583.05</ele>
  <time>2026-08-28T17:52:36Z</time>
  <course>281.44</course>
  <speed>0.022360679774997897</speed>
  <fix>3d</fix>
</trkpt>
<trkpt lat="40.0713815" lon="-105.2297943">
  <ele>1583.0</ele>
  <time>2026-08-28T17:52:36Z</time>
  <course>192.75</course>
  <speed>0.0</speed>
  <fix>3d</fix>
</trkpt>
<trkpt lat="40.0713816" lon="-105.2297941">
  <ele>1583.04</ele>
  <time>2026-08-28T17:52:36Z</time>
  <course>281.44</course>
  <speed>0.022360679774997897</speed>
  <fix>3d</fix>
</trkpt>
<trkpt lat="40.0713815" lon="-105.2297943">
  <ele>1583.0</ele>
  <time>2026-08-28T17:52:36Z</time>
  <course>192.5</course>
  <speed>0.0</speed>
  <fix>3d</fix>
</trkpt>
<trkpt lat="40.0713816" lon="-105.2297941">
  <ele>1583.04</ele>
  <time>2026-08-28T17:52:36Z</time>
  <course>281.44</course>
  <speed>0.022360679774997897</speed>
  <fix>3d</fix>
</trkpt>
<trkpt lat="40.0713815" lon="-105.2297943">
  <ele>1583.0</ele>
  <time>2026-08-28T17:52:36Z</time>
  <course>192.5</course>
  <speed>0.0</speed>
  <fix>3d</fix>
</trkpt>
<trkpt lat="40.0713816" lon="-105.2297941">
  <ele>1583.03</ele>
  <time>2026-08-28T17:52:36Z</time>
  <course>281.44</course>
  <speed>0.022360679774997897</speed>
  <fix>3d</fix>
</trkpt>
<trkpt lat="40.0713815" lon="-105.2297943">
  <ele>1583.0</ele>
  <time>2026-08-28T17:52:36Z</time>
  <course>192.5</course>
  <speed>0.0</speed>
  <fix>3d</fix>
</trkpt>
<trkpt lat="40.0713816" lon="-105.2297941">
  <ele>1583.03</ele>
  <time>2026-08-28T17:52:36Z</time>
  <course>281.44</course>
  <speed>0.022360679774997897</speed>
  <fix>3d</fix>
</trkpt>
<trkpt lat="40.0713815" lon="-105.2297943">
  <ele>1583.0</ele>
  <time>2026-08-28T17:52:36Z</time>
  <course>192.27</course>
  <speed>0.0</speed>
  <fix>3d</fix>
</trkpt>
<trkpt lat="40.0713816" lon="-105.2297941">
  <ele>1583.02</ele>
  <time>2026-08-28T17:52:36Z</time>
  <course>281.44</course>
  <speed>0.022360679774997897</speed>
  <fix>3d</fix>
</trkpt>
<trkpt lat="40.0713815" lon="-105.2297943">
  <ele>1583.0</ele>
  <time>2026-08-28T17:52:36Z</time>
  <course>192.27</course>
  <speed>0.0</speed>
  <fix>3d</fix>
</trkpt>
<trkpt lat="40.0713816" lon="-105.2297941">
  <ele>1583.02</ele>
  <time>2026-08-28T17:52:36Z</time>
  <course>281.44</course>
  <speed>0.022360679774997897</speed>
  <fix>3d</fix>
</trkpt>
<trkpt lat="40.0713815" lon="-105.2297943">
  <ele>1583.0</ele>
  <time>2026-08-28T17:52:36Z</time>
  <course>192.07</course>
  <speed>0.0</speed>
  <fix>3d</fix>
</trkpt>
<trkpt lat="40.0713816" lon="-105.2297941">
  <ele>1583.01</ele>
  <time>2026-08-28T17:52:36Z</time>
  <course>281.44</course>
  <speed>0.022360679774997897</speed>
  <fix>3d</fix>
</trkpt>
<trkpt lat="40.0713815" lon="-105.2297943">
  <ele>1583.0</ele>
  <time>2026-08-28T17:52:36Z</time>
  <course>192.07</course>
  <speed>0.0</speed>
  <fix>3d</fix>
</trkpt>
<trkpt lat="40.0713816" lon="-105.2297941">
  <ele>1583.01</ele>
  <time>2026-08-28T17:52:36Z</time>
  <course>281.44</course>
  <speed>0.022360679774997897</speed>
  <fix>3d</fix>
</trkpt>
<trkpt lat="40.0713815" lon="-105.2297943">
  <ele>1583.0</ele>
  <time>2026-08-28T17:52:36Z</time>
  <course>191.88</course>
  <speed>0.0</speed>
  <fix>3d</fix>
</trkpt>
<trkpt lat="40.0713816" lon="-105.2297941">
  <ele>1583.0</ele>
  <time>2026-08-28T17:52:36Z</time>
  <course>281.44</course>
  <speed>0.022360679774997897</speed>
  <fix>3d</fix>
</trkpt>
<trkpt lat="40.0713815" lon="-105.2297943">
  <ele>1583.0</ele>
  <time>2026-08-28T17:52:36Z</time>
  <course>191.88</course>
  <speed>0.0</speed>
  <fix>3d</fix>
</trkpt>
<trkpt lat="40.0713816" lon="-105.2297941">
  <ele>1583.0</ele>
  <time>2026-08-28T17:52:36Z</time>
  <course>281.44</course>
  <speed>0.022360679774997897</speed>
  <fix>3d</fix>
</trkpt>
<trkpt lat="40.0713815" lon="-105.2297943">
  <ele>1583.0</ele>
  <time>2026-08-28T17:52:36Z</time>
  <course>191.71</course>
  <speed>0.0</speed>
  <fix>3d</fix>
</trkpt>
<trkpt lat="40.0713816" lon="-105.2297941">
  <ele>1582.99</ele>
  <time>2026-08-28T17:52:36Z</time>
  <course>281.44</course>
  <speed>0.022360679774997897</speed>
  <fix>3d</fix>
</trkpt>
<trkpt lat="40.0713815" lon="-105.2297943">
  <ele>1583.0</ele>
  <time>2026-08-28T17:52:36Z</time>
  <course>191.56</course>
  <speed>0.0</speed>
  <fix>3d</fix>
</trkpt>
<trkpt lat="40.0713816" lon="-105.2297941">
  <ele>1582.99</ele>
  <time>2026-08-28T17:52:36Z</time>
  <course>281.44</course>
  <speed>0.022360679774997897</speed>
  <fix>3d</fix>
</trkpt>
<trkpt lat="40.0713815" lon="-105.2297943">
  <ele>1583.0</ele>
  <time>2026-08-28T17:52:36Z</time>
  <course>191.56</course>
  <speed>0.0</speed>
  <fix>3d</fix>
</trkpt>
<trkpt lat="40.0713816" lon="-105.2297941">
  <ele>1582.99</ele>
  <time>2026-08-28T17:52:36Z</time>
  <course>281.44</course>
  <speed>0.022360679774997897</speed>
  <fix>3d</fix>
</trkpt>
<trkpt lat="40.0713815" lon="-105.2297943">
  <ele>1583.0</ele>
  <time>2026-08-28T17:52:36Z</time>
  <course>191.42</course>
  <speed>0.0</speed>
  <fix>3d</fix>
</trkpt>
<trkpt lat="40.0713816" lon="-105.2297941">
  <ele>1582.98</ele>
  <time>2026-08-28T17:52:36Z</time>
  <course>281.44</course>
  <speed>0.022360679774997897</speed>
  <fix>3d</fix>
</trkpt>
<trkpt lat="40.0713815" lon="-105.2297943">
  <ele>1583.0</ele>
  <time>2026-08-28T17:52:36Z</time>
  <course>191.42</course>
  <speed>0.0</speed>
  <fix>3d</fix>
</trkpt>
<trkpt lat="40.0713816" lon="-105.2297941">
  <ele>1582.98</ele>
  <time>2026-08-28T17:52:36Z</time>
  <course>281.44</course>
  <speed>0.022360679774997897</speed>
  <fix>3d</fix>
</trkpt>
<trkpt lat="40.0713815" lon="-105.2297943">
  <ele>1583.0</ele>
  <time>2026-08-28T17:52:36Z</time>
  <course>191.3</course>
  <speed>0.0</speed>
  <fix>3d</fix>
</trkpt>
<trkpt lat="40.0713816" lon="-105.2297941">
  <ele>1582.98</ele>
  <time>2026-08-28T17:52:36Z</time>
  <course>281.44</course>
  <speed>0.022360679774997897</speed>
  <fix>3d</fix>
</trkpt>
<trkpt lat="40.0713815" lon="-105.2297943">
  <ele>1583.0</ele>
  <time>2026-08-28T17:52:36Z</time>
  <course>191.3</course>
  <speed>0.0</speed>
  <fix>3d</fix>
</trkpt>
<trkpt lat="40.0713816" lon="-105.2297941">
  <ele>1582.99</ele>
  <time>2026-08-28T17:52:36Z</time>
  <course>281.44</course>
  <speed>0.022360679774997897</speed>
  <fix>3d</fix>
</trkpt>
<trkpt lat="40.0713815" lon="-105.2297943">
  <ele>1583.0</ele>
  <time>2026-08-28T17:52:36Z</time>
  <course>191.18</course>
  <speed>0.0</speed>
  <fix>3d</fix>
</trkpt>
<trkpt lat="40.0713816" lon="-105.2297941">
  <ele>1582.99</ele>
  <time>2026-08-28T17:52:36Z</time>
  <course>281.44</course>
  <speed>0.022360679774997897</speed>
  <fix>3d</fix>
</trkpt>
<trkpt lat="40.0713815" lon="-105.2297943">
  <ele>1583.0</ele>
  <time>2026-08-28T17:52:36Z</time>
  <course>191.18</course>
  <speed>0.0</speed>
  <fix>3d</fix>
</trkpt>
<trkpt lat="40.0713816" lon="-105.2297941">
  <ele>1582.99</ele>
  <time>2026-08-28T17:52:36Z</time>
  <course>281.44</course>
  <speed>0.022360679774997897</speed>
  <fix>3d</fix>
</trkpt>
<trkpt lat="40.0713815" lon="-105.2297943">
  <ele>1583.0</ele>
  <time>2026-08-28T17:52:36Z</time>
  <course>191.08</course>
  <speed>0.0</speed>
  <fix>3d</fix>
</trkpt>
<trkpt lat="40.0713816" lon="-105.2297941">
  <ele>1583.0</ele>
  <time>2026-08-28T17:52:36Z</time>
  <course>281.44</course>
  <speed>0.022360679774997897</speed>
  <fix>3d</fix>
</trkpt>
<trkpt lat="40.0713815" lon="-105.2297943">
  <ele>1583.0</ele>
  <time>2026-08-28T17:52:36Z</time>
  <course>191.08</course>
  <speed>0.0</speed>
  <fix>3d</fix>
</trkpt>
<trkpt lat="40.0713816" lon="-105.2297941">
  <ele>1583.0</ele>
  <time>2026-08-28T17:52:36Z</time>
  <course>281.44</course>
  <speed>0.022360679774997897</speed>
  <fix>3d</fix>
</trkpt>
<trkpt lat="40.0713815" lon="-105.2297943">
  <ele>1583.0</ele>
  <time>2026-08-28T17:52:36Z</time>
  <course>190.99</course>
  <speed>0.0</speed>
  <fix>3d</fix>
</trkpt>
<trkpt lat="40.0713816" lon="-105.2297941">
  <ele>1583.01</ele>
  <time>2026-08-28T17:52:36Z</time>
  <course>281.44</course>
  <speed>0.022360679774997897</speed>
  <fix>3d</fix>
</trkpt>
<trkpt lat="40.0713815" lon="-105.2297943">
  <ele>1583.0</ele>
  <time>2026-08-28T17:52:36Z</time>
  <course>190.99</course>
  <speed>0.0</speed>
  <fix>3d</fix>
</trkpt>
<trkpt lat="40.0713816" lon="-105.2297941">
  <ele>1583.01</ele>
  <time>2026-08-28T17:52:36Z</time>
  <course>281.44</course>
  <speed>0.022360679774997897</speed>
  <fix>3d</fix>
</trkpt>
<trkpt lat="40.0713815" lon="-105.2297943">
  <ele>1583.0</ele>
  <time>2026-08-28T17:52:36Z</time>
  <course>190.9</course>
  <speed>0.0</speed>
  <fix>3d</fix>
</trkpt>
<trkpt lat="40.0713816" lon="-105.2297941">
  <ele>1583.01</ele>
  <time>2026-08-28T17:52:36Z</time>
  <course>281.44</course>
  <speed>0.022360679774997897</speed>
  <fix>3d</fix>
</trkpt>
<trkpt lat="40.0713815" lon="-105.2297943">
  <ele>1583.0</ele>
  <time>2026-08-28T17:52:36Z</time>
  <course>190.9</course>
  <speed>0.0</speed>
  <fix>3d</fix>
</trkpt>
<trkpt lat="40.0713816" lon="-105.2297941">
  <ele>1583.01</ele>
  <time>2026-08-28T17:52:36Z</time>
  <course>281.44</course>
  <speed>0.022360679774997897</speed>
  <fix>3d</fix>
</trkpt>
<trkpt lat="40.0713815" lon="-105.2297943">
  <ele>1583.0</ele>
  <time>2026-08-28T17:52:36Z</time>
  <course>190.9</course>
  <speed>0.0</speed>
  <fix>3d</fix>
</trkpt>
<trkpt lat="40.0713816" lon="-105.2297941">
  <ele>1583.01</ele>
  <time>2026-08-28T17:52:36Z</time>
  <course>281.44</course>
  <speed>0.022360679774997897</speed>
  <fix>3d</fix>
</trkpt>
<trkpt lat="40.0713815" lon="-105.2297943">
  <ele>1583.0</ele>
  <time>2026-08-28T17:52:36Z</time>
  <course>190.83</course>
  <speed>0.0</speed>
  <fix>3d</fix>
</trkpt>
<trkpt lat="40.0713816" lon="-105.2297941">
  <ele>1583.01</ele>
  <time>2026-08-28T17:52:36Z</time>
  <course>281.44</course>
  <speed>0.022360679774997897</speed>
  <fix>3d</fix>
</trkpt>
<trkpt lat="40.0713815" lon="-105.2297943">
  <ele>1583.0</ele>
  <time>2026-08-28T17:52:36Z</time>
  <course>190.83</course>
  <speed>0.0</speed>
  <fix>3d</fix>
</trkpt>
<trkpt lat="40.0713816" lon="-105.2297941">
  <ele>1583.0</ele>
  <time>2026-08-28T17:52:36Z</time>
  <course>281.44</course>
  <speed>0.022360679774997897</speed>
  <fix>3d</fix>
</trkpt>
<trkpt lat="40.0713815" lon="-105.2297943">
  <ele>1583.0</ele>
  <time>2026-08-28T17:52:36Z</time>
  <course>190.76</course>
  <speed>0.0</speed>
  <fix>3d</fix>
</trkpt>
<trkpt lat="40.0713816" lon="-105.2297941">
  <ele>1583.0</ele>
  <time>2026-08-28T17:52:36Z</time>
  <course>281.44</course>
  <speed>0.022360679774997897</speed>
  <fix>3d</fix>
</trkpt>
<trkpt lat="40.0713815" lon="-105.2297943">
  <ele>1583.0</ele>
  <time>2026-08-28T17:52:36Z</time>
  <course>190.76</course>
  <speed>0.0</speed>
  <fix>3d</fix>
</trkpt>
<trkpt lat="40.0713816" lon="-105.2297941">
  <ele>1582.99</ele>
  <time>2026-08-28T17:52:36Z</time>
  <course>281.44</course>
  <speed>0.022360679774997897</speed>
  <fix>3d</fix>
</trkpt>
<trkpt lat="40.0713815" lon="-105.2297943">
  <ele>1583.0</ele>
  <time>2026-08-28T17:52:36Z</time>
  <course>190.7</course>
  <speed>0.0</speed>
  <fix>3d</fix>
</trkpt>
<trkpt lat="40.0713816" lon="-105.2297941">
  <ele>1582.98</ele>
  <time>2026-08-28T17:52:36Z</time>
  <course>281.44</course>
  <speed>0.022360679774997897</speed>
  <fix>3d</fix>
</trkpt>
<trkpt lat="40.0713815" lon="-105.2297943">
  <ele>1583.0</ele>
  <time>2026-08-28T17:52:36Z</time>
  <course>190.64</course>
  <speed>0.0</speed>
  <fix>3d</fix>
</trkpt>
<trkpt lat="40.0713816" lon="-105.2297941">
  <ele>1582.98</ele>
  <time>2026-08-28T17:52:36Z</time>
  <course>281.44</course>
  <speed>0.022360679774997897</speed>
  <fix>3d</fix>
</trkpt>
<trkpt lat="40.0713815" lon="-105.2297943">
  <ele>1583.0</ele>
  <time>2026-08-28T17:52:36Z</time>
  <course>190.64</course>
  <speed>0.0</speed>
  <fix>3d</fix>
</trkpt>
<trkpt lat="40.0713816" lon="-105.2297941">
  <ele>1582.98</ele>
  <time>2026-08-28T17:52:36Z</time>
  <course>281.45</course>
  <speed>0.022360679774997897</speed>
  <fix>3d</fix>
</trkpt>
<trkpt lat="40.0713815" lon="-105.2297943">
  <ele>1583.0</ele>
  <time>2026-08-28T17:52:36Z</time>
  <course>190.59</course>
  <speed>0.0</speed>
  <fix>3d</fix>
</trkpt>
<trkpt lat="40.0713816" lon="-105.2297941">
  <ele>1582.98</ele>
  <time>2026-08-28T17:52:36Z</time>
  <course>281.45</course>
  <speed>0.022360679774997897</speed>
  <fix>3d</fix>
</trkpt>
<trkpt lat="40.0713815" lon="-105.2297943">
  <ele>1583.0</ele>
  <time>2026-08-28T17:52:36Z</time>
  <course>190.59</course>
  <speed>0.0</speed>
  <fix>3d</fix>
</trkpt>
<trkpt lat="40.0713816" lon="-105.2297941">
  <ele>1582.97</ele>
  <time>2026-08-28T17:52:36Z</time>
  <course>281.45</course>
  <speed>0.022360679774997897</speed>
  <fix>3d</fix>
</trkpt>
<trkpt lat="40.0713815" lon="-105.2297943">
  <ele>1583.0</ele>
  <time>2026-08-28T17:52:36Z</time>
  <course>190.54</course>
  <speed>0.0</speed>
  <fix>3d</fix>
</trkpt>
<trkpt lat="40.0713816" lon="-105.2297941">
  <ele>1582.97</ele>
  <time>2026-08-28T17:52:36Z</time>
  <course>281.45</course>
  <speed>0.022360679774997897</speed>
  <fix>3d</fix>
</trkpt>
<trkpt lat="40.0713815" lon="-105.2297943">
  <ele>1583.0</ele>
  <time>2026-08-28T17:52:36Z</time>
  <course>190.54</course>
  <speed>0.0</speed>
  <fix>3d</fix>
</trkpt>
<trkpt lat="40.0713816" lon="-105.2297941">
  <ele>1582.96</ele>
  <time>2026-08-28T17:52:36Z</time>
  <course>281.45</course>
  <speed>0.022360679774997897</speed>
  <fix>3d</fix>
</trkpt>
<trkpt lat="40.0713815" lon="-105.2297943">
  <ele>1583.0</ele>
  <time>2026-08-28T17:52:36Z</time>
  <course>190.5</course>
  <speed>0.0</speed>
  <fix>3d</fix>
</trkpt>
<trkpt lat="40.0713816" lon="-105.2297941">
  <ele>1582.96</ele>
  <time>2026-08-28T17:52:36Z</time>
  <course>281.45</course>
  <speed>0.022360679774997897</speed>
  <fix>3d</fix>
</trkpt>
<trkpt lat="40.0713815" lon="-105.2297943">
  <ele>1583.0</ele>
  <time>2026-08-28T17:52:36Z</time>
  <course>190.5</course>
  <speed>0.0</speed>
  <fix>3d</fix>
</trkpt>
<trkpt lat="40.0713816" lon="-105.2297941">
  <ele>1582.96</ele>
  <time>2026-08-28T17:52:36Z</time>
  <course>281.45</course>
  <speed>0.022360679774997897</speed>
  <fix>3d</fix>
</trkpt>
<trkpt lat="40.0713815" lon="-105.2297943">
  <ele>1583.0</ele>
  <time>2026-08-28T17:52:36Z</time>
  <course>190.46</course>
  <speed>0.0</speed>
  <fix>3d</fix>
</trkpt>
<trkpt lat="40.0713816" lon="-105.2297941">
  <ele>1582.95</ele>
  <time>2026-08-28T17:52:36Z</time>
  <course>281.45</course>
  <speed>0.022360679774997897</speed>
  <fix>3d</fix>
</trkpt>
<trkpt lat="40.0713815" lon="-105.2297943">
  <ele>1583.0</ele>
  <time>2026-08-28T17:52:36Z</time>
  <course>190.46</course>
  <speed>0.0</speed>
  <fix>3d</fix>
</trkpt>
<trkpt lat="40.0713816" lon="-105.2297941">
  <ele>1582.95</ele>
  <time>2026-08-28T17:52:36Z</time>
  <course>281.45</course>
  <speed>0.022360679774997897</speed>
  <fix>3d</fix>
</trkpt>
<trkpt lat="40.0713815" lon="-105.2297943">
  <ele>1583.0</ele>
  <time>2026-08-28T17:52:36Z</time>
  <course>190.43</course>
  <speed>0.0</speed>
  <fix>3d</fix>
</trkpt>
<trkpt lat="40.0713816" lon="-105.2297941">
  <ele>1582.94</ele>
  <time>2026-08-28T17:52:36Z</time>
  <course>281.45</course>
  <speed>0.022360679774997897</speed>
  <fix>3d</fix>
</trkpt>
<trkpt lat="40.0713815" lon="-105.2297943">
  <ele>1583.0</ele>
  <time>2026-08-28T17:52:36Z</time>
  <course>190.43</course>
  <speed>0.0</speed>
  <fix>3d</fix>
</trkpt>
<trkpt lat="40.0713816" lon="-105.2297941">
  <ele>1582.94</ele>
  <time>2026-08-28T17:52:36Z</time>
  <course>281.45</course>
  <speed>0.022360679774997897</speed>
  <fix>3d</fix>
</trkpt>
<trkpt lat="40.0713815" lon="-105.2297943">
  <ele>1583.0</ele>
  <time>2026-08-28T17:52:36Z</time>
  <course>190.4</course>
  <speed>0.0</speed>
  <fix>3d</fix>
</trkpt>
<trkpt lat="40.0713816" lon="-105.2297941">
  <ele>1582.94</ele>
  <time>2026-08-28T17:52:36Z</time>
  <course>281.45</course>
  <speed>0.022360679774997897</speed>
  <fix>3d</fix>
</trkpt>
<trkpt lat="40.0713815" lon="-105.2297943">
  <ele>1583.0</ele>
  <time>2026-08-28T17:52:36Z</time>
  <course>190.4</course>
  <speed>0.0</speed>
  <fix>3d</fix>
</trkpt>
<trkpt lat="40.0713816" lon="-105.2297941">
  <ele>1582.94</ele>
  <time>2026-08-28T17:52:36Z</time>
  <course>281.45</course>
  <speed>0.022360679774997897</speed>
  <fix>3d</fix>
</trkpt>
<trkpt lat="40.0713815" lon="-105.2297943">
  <ele>1583.0</ele>
  <time>2026-08-28T17:52:36Z</time>
  <course>190.4</course>
  <speed>0.0</speed>
  <fix>3d</fix>
</trkpt>
<trkpt lat="40.0713816" lon="-105.2297941">
  <ele>1582.94</ele>
  <time>2026-08-28T17:52:36Z</time>
  <course>281.45</course>
  <speed>0.022360679774997897</speed>
  <fix>3d</fix>
</trkpt>
<trkpt lat="40.0713815" lon="-105.2297943">
  <ele>1583.0</ele>
  <time>2026-08-28T17:52:36Z</time>
  <course>190.37</course>
  <speed>0.0</speed>
  <fix>3d</fix>
</trkpt>
<trkpt lat="40.0713816" lon="-105.2297941">
  <ele>1582.94</ele>
  <time>2026-08-28T17:52:36Z</time>
  <course>281.45</course>
  <speed>0.022360679774997897</speed>
  <fix>3d</fix>
</trkpt>
<trkpt lat="40.0713815" lon="-105.2297943">
  <ele>1583.0</ele>
  <time>2026-08-28T17:52:36Z</time>
  <course>190.37</course>
  <speed>0.0</speed>
  <fix>3d</fix>
</trkpt>
<trkpt lat="40.0713816" lon="-105.2297941">
  <ele>1582.95</ele>
  <time>2026-08-28T17:52:36Z</time>
  <course>281.45</course>
  <speed>0.022360679774997897</speed>
  <fix>3d</fix>
</trkpt>
<trkpt lat="40.0713815" lon="-105.2297943">
  <ele>1583.0</ele>
  <time>2026-08-28T17:52:36Z</time>
  <course>190.35</course>
  <speed>0.0</speed>
  <fix>3d</fix>
</trkpt>
<trkpt lat="40.0713816" lon="-105.2297941">
  <ele>1582.95</ele>
  <time>2026-08-28T17:52:36Z</time>
  <course>281.45</course>
  <speed>0.022360679774997897</speed>
  <fix>3d</fix>
</trkpt>
<trkpt lat="40.0713815" lon="-105.2297943">
  <ele>1583.0</ele>
  <time>2026-08-28T17:52:36Z</time>
  <course>190.35</course>
  <speed>0.0</speed>
  <fix>3d</fix>
</trkpt>
<trkpt lat="40.0713816" lon="-105.2297941">
  <ele>1582.95</ele>
  <time>2026-08-28T17:52:36Z</time>
  <course>281.45</course>
  <speed>0.022360679774997897</speed>
  <fix>3d</fix>
</trkpt>
<trkpt lat="40.0713815" lon="-105.2297943">
  <ele>1583.0</ele>
  <time>2026-08-28T17:52:36Z</time>
  <course>190.32</course>
  <speed>0.0</speed>
  <fix>3d</fix>
</trkpt>
<trkpt lat="40.0713816" lon="-105.2297941">
  <ele>1582.96</ele>
  <time>2026-08-28T17:52:36Z</time>
  <course>281.45</course>
  <speed>0.022360679774997897</speed>
  <fix>3d</fix>
</trkpt>
<trkpt lat="40.0713815" lon="-105.2297943">
  <ele>1583.0</ele>
  <time>2026-08-28T17:52:36Z</time>
  <course>190.32</course>
  <speed>0.0</speed>
  <fix>3d</fix>
</trkpt>
<trkpt lat="40.0713816" lon="-105.2297941">
  <ele>1582.96</ele>
  <time>2026-08-28T17:52:36Z</time>
  <course>281.45</course>
  <speed>0.022360679774997897</speed>
  <fix>3d</fix>
</trkpt>
<trkpt lat="40.0713815" lon="-105.2297943">
  <ele>1583.0</ele>
  <time>2026-08-28T17:52:36Z</time>
  <course>190.3</course>
  <speed>0.0</speed>
  <fix>3d</fix>
</trkpt>
<trkpt lat="40.0713816" lon="-105.2297941">
  <ele>1582.96</ele>
  <time>2026-08-28T17:52:36Z</time>
  <course>281.45</course>
  <speed>0.022360679774997897</speed>
  <fix>3d</fix>
</trkpt>
<trkpt lat="40.0713815" lon="-105.2297943">
  <ele>1583.0</ele>
  <time>2026-08-28T17:52:36Z</time>
  <course>190.28</course>
  <speed>0.0</speed>
  <fix>3d</fix>
</trkpt>
<trkpt lat="40.0713816" lon="-105.2297941">
  <ele>1582.96</ele>
  <time>2026-08-28T17:52:36Z</time>
  <course>281.45</course>
  <speed>0.022360679774997897</speed>
  <fix>3d</fix>
</trkpt>
<trkpt lat="40.0713815" lon="-105.2297943">
  <ele>1583.0</ele>
  <time>2026-08-28T17:52:36Z</time>
  <course>190.28</course>
  <speed>0.0</speed>
  <fix>3d</fix>
</trkpt>
<trkpt lat="40.0713816" lon="-105.2297941">
  <ele>1582.96</ele>
  <time>2026-08-28T17:52:36Z</time>
  <course>281.45</course>
  <speed>0.022360679774997897</speed>
  <fix>3d</fix>
</trkpt>
<trkpt lat="40.0713815" lon="-105.2297943">
  <ele>1583.0</ele>
  <time>2026-08-28T17:52:36Z</time>
  <course>190.27</course>
  <speed>0.0</speed>
  <fix>3d</fix>
</trkpt>
<trkpt lat="40.0713816" lon="-105.2297941">
  <ele>1582.96</ele>
  <time>2026-08-28T17:52:36Z</time>
  <course>281.45</course>
  <speed>0.022360679774997897</speed>
  <fix>3d</fix>
</trkpt>
<trkpt lat="40.0713815" lon="-105.2297943">
  <ele>1583.0</ele>
  <time>2026-08-28T17:52:36Z</time>
  <course>190.27</course>
  <speed>0.0</speed>
  <fix>3d</fix>
</trkpt>
<trkpt lat="40.0713816" lon="-105.2297941">
  <ele>1582.96</ele>
  <time>2026-08-28T17:52:36Z</time>
  <course>281.45</course>
  <speed>0.022360679774997897</speed>
  <fix>3d</fix>
</trkpt>
<trkpt lat="40.0713815" lon="-105.2297943">
  <ele>1583.0</ele>
  <time>2026-08-28T17:52:36Z</time>
  <course>190.25</course>
  <speed>0.0</speed>
  <fix>3d</fix>
</trkpt>
<trkpt lat="40.0713816" lon="-105.2297941">
  <ele>1582.96</ele>
  <time>2026-08-28T17:52:36Z</time>
  <course>281.45</course>
  <speed>0.022360679774997897</speed>
  <fix>3d</fix>
</trkpt>
<trkpt lat="40.0713815" lon="-105.2297943">
  <ele>1583.0</ele>
  <time>2026-08-28T17:52:36Z</time>
  <course>190.25</course>
  <speed>0.0</speed>
  <fix>3d</fix>
</trkpt>
<trkpt lat="40.0713816" lon="-105.2297941">
  <ele>1582.95</ele>
  <time>2026-08-28T17:52:36Z</time>
  <course>281.45</course>
  <speed>0.022360679774997897</speed>
  <fix>3d</fix>
</trkpt>
<trkpt lat="40.0713815" lon="-105.2297943">
  <ele>1583.0</ele>
  <time>2026-08-28T17:52:36Z</time>
  <course>190.24</course>
  <speed>0.0</speed>
  <fix>3d</fix>
</trkpt>
<trkpt lat="40.0713816" lon="-105.2297941">
  <ele>1582.95</ele>
  <time>2026-08-28T17:52:36Z</time>
  <course>281.45</course>
  <speed>0.022360679774997897</speed>
  <fix>3d</fix>
</trkpt>
<trkpt lat="40.0713815" lon="-105.2297943">
  <ele>1583.0</ele>
  <time>2026-08-28T17:52:36Z</time>
  <course>190.24</course>
  <speed>0.0</speed>
  <fix>3d</fix>
</trkpt>
<trkpt lat="40.0713816" lon="-105.2297941">
  <ele>1582.95</ele>
  <time>2026-08-28T17:52:36Z</time>
  <course>281.45</course>
  <speed>0.022360679774997897</speed>
  <fix>3d</fix>
</trkpt>
<trkpt lat="40.0713815" lon="-105.2297943">
  <ele>1583.0</ele>
  <time>2026-08-28T17:52:36Z</time>
  <course>190.23</course>
  <speed>0.0</speed>
  <fix>3d</fix>
</trkpt>
<trkpt lat="40.0713816" lon="-105.2297941">
  <ele>1582.94</ele>
  <time>2026-08-28T17:52:36Z</time>
  <course>281.45</course>
  <speed>0.022360679774997897</speed>
  <fix>3d</fix>
</trkpt>
<trkpt lat="40.0713815" lon="-105.2297943">
  <ele>1583.0</ele>
  <time>2026-08-28T17:52:36Z</time>
  <course>190.23</course>
  <speed>0.0</speed>
  <fix>3d</fix>
</trkpt>
<trkpt lat="40.0713816" lon="-105.2297941">
  <ele>1582.94</ele>
  <time>2026-08-28T17:52:36Z</time>
  <course>281.45</course>
  <speed>0.022360679774997897</speed>
  <fix>3d</fix>
</trkpt>
<trkpt lat="40.0713815" lon="-105.2297943">
  <ele>1583.0</ele>
  <time>2026-08-28T17:52:36Z</time>
  <course>190.21</course>
  <speed>0.0</speed>
  <fix>3d</fix>
</trkpt>
<trkpt lat="40.0713816" lon="-105.2297941">
  <ele>1582.94</ele>
  <time>2026-08-28T17:52:36Z</time>
  <course>281.45</course>
  <speed>0.022360679774997897</speed>
  <fix>3d</fix>
</trkpt>
<trkpt lat="40.0713815" lon="-105.2297943">
  <ele>1583.0</ele>
  <time>2026-08-28T17:52:36Z</time>
  <course>190.21</course>
  <speed>0.0</speed>
  <fix>3d</fix>
</trkpt>
<trkpt lat="40.0713816" lon="-105.2297941">
  <ele>1582.95</ele>
  <time>2026-08-28T17:52:36Z</time>
  <course>281.45</course>
  <speed>0.022360679774997897</speed>
  <fix>3d</fix>
</trkpt>
<trkpt lat="40.0713815" lon="-105.2297943">
  <ele>1583.0</ele>
  <time>2026-08-28T17:52:36Z</time>
  <course>190.2</course>
  <speed>0.0</speed>
  <fix>3d</fix>
</trkpt>
<trkpt lat="40.0713816" lon="-105.2297941">
  <ele>1582.95</ele>
  <time>2026-08-28T17:52:36Z</time>
  <course>281.45</course>
  <speed>0.022360679774997897</speed>
  <fix>3d</fix>
</trkpt>
<trkpt lat="40.0713815" lon="-105.2297943">
  <ele>1583.0</ele>
  <time>2026-08-28T17:52:36Z</time>
  <course>190.2</course>
  <speed>0.0</speed>
  <fix>3d</fix>
</trkpt>
<trkpt lat="40.0713816" lon="-105.2297941">
  <ele>1582.96</ele>
  <time>2026-08-28T17:52:36Z</time>
  <course>281.45</course>
  <speed>0.022360679774997897</speed>
  <fix>3d</fix>
</trkpt>
<trkpt lat="40.0713815" lon="-105.2297943">
  <ele>1583.0</ele>
  <time>2026-08-28T17:52:36Z</time>
  <course>190.2</course>
  <speed>0.0</speed>
  <fix>3d</fix>
</trkpt>
<trkpt lat="40.0713816" lon="-105.2297941">
  <ele>1582.97</ele>
  <time>2026-08-28T17:52:36Z</time>
  <course>281.45</course>
  <speed>0.022360679774997897</speed>
  <fix>3d</fix>
</trkpt>
<trkpt lat="40.0713815" lon="-105.2297943">
  <ele>1583.0</ele>
  <time>2026-08-28T17:52:36Z</time>
  <course>190.2</course>
  <speed>0.0</speed>
  <fix>3d</fix>
</trkpt>
<trkpt lat="40.0713816" lon="-105.2297941">
  <ele>1582.97</ele>
  <time>2026-08-28T17:52:36Z</time>
  <course>281.45</course>
  <speed>0.022360679774997897</speed>
  <fix>3d</fix>
</trkpt>
<trkpt lat="40.0713815" lon="-105.2297943">
  <ele>1583.0</ele>
  <time>2026-08-28T17:52:36Z</time>
  <course>190.2</course>
  <speed>0.0</speed>
  <fix>3d</fix>
</trkpt>
<trkpt lat="40.0713816" lon="-105.2297941">
  <ele>1582.98</ele>
  <time>2026-08-28T17:52:36Z</time>
  <course>281.45</course>
  <speed>0.022360679774997897</speed>
  <fix>3d</fix>
</trkpt>
<trkpt lat="40.0713815" lon="-105.2297943">
  <ele>1583.0</ele>
  <time>2026-08-28T17:52:36Z</time>
  <course>190.19</course>
  <speed>0.0</speed>
  <fix>3d</fix>
</trkpt>
<trkpt lat="40.0713816" lon="-105.2297941">
  <ele>1582.99</ele>
  <time>2026-08-28T17:52:36Z</time>
  <course>281.45</course>
  <speed>0.022360679774997897</speed>
  <fix>3d</fix>
</trkpt>
<trkpt lat="40.0713815" lon="-105.2297943">
  <ele>1583.0</ele>
  <time>2026-08-28T17:52:36Z</time>
  <course>190.18</course>
  <speed>0.0</speed>
  <fix>3d</fix>
</trkpt>
<trkpt lat="40.0713816" lon="-105.2297941">
  <ele>1583.0</ele>
  <time>2026-08-28T17:52:36Z</time>
  <course>281.45</course>
  <speed>0.022360679774997897</speed>
  <fix>3d</fix>
</trkpt>
<trkpt lat="40.0713815" lon="-105.2297943">
  <ele>1583.0</ele>
  <time>2026-08-28T17:52:36Z</time>
  <course>190.18</course>
  <speed>0.0</speed>
  <fix>3d</fix>
</trkpt>
<trkpt lat="40.0713816" lon="-105.2297941">
  <ele>1583.0</ele>
  <time>2026-08-28T17:52:36Z</time>
  <course>281.45</course>
  <speed>0.022360679774997897</speed>
  <fix>3d</fix>
</trkpt>
<trkpt lat="40.0713815" lon="-105.2297943">
  <ele>1583.0</ele>
  <time>2026-08-28T17:52:36Z</time>
  <course>190.17</course>
  <speed>0.0</speed>
  <fix>3d</fix>
</trkpt>
<trkpt lat="40.0713816" lon="-105.2297941">
  <ele>1583.01</ele>
  <time>2026-08-28T17:52:36Z</time>
  <course>281.45</course>
  <speed>0.022360679774997897</speed>
  <fix>3d</fix>
</trkpt>
<trkpt lat="40.0713815" lon="-105.2297943">
  <ele>1583.0</ele>
  <time>2026-08-28T17:52:36Z</time>
  <course>190.17</course>
  <speed>0.0</speed>
  <fix>3d</fix>
</trkpt>
<trkpt lat="40.0713816" lon="-105.2297941">
  <ele>1583.01</ele>
  <time>2026-08-28T17:52:36Z</time>
  <course>281.45</course>
  <speed>0.022360679774997897</speed>
  <fix>3d</fix>
</trkpt>
<trkpt lat="40.0713815" lon="-105.2297943">
  <ele>1583.0</ele>
  <time>2026-08-28T17:52:36Z</time>
  <course>190.17</course>
  <speed>0.0</speed>
  <fix>3d</fix>
</trkpt>
<trkpt lat="40.0713816" lon="-105.2297941">
  <ele>1583.01</ele>
  <time>2026-08-28T17:52:36Z</time>
  <course>281.45</course>
  <speed>0.022360679774997897</speed>
  <fix>3d</fix>
</trkpt>
<trkpt lat="40.0713815" lon="-105.2297943">
  <ele>1583.0</ele>
  <time>2026-08-28T17:52:36Z</time>
  <course>190.17</course>
  <speed>0.0</speed>
  <fix>3d</fix>
</trkpt>
<trkpt lat="40.0713816" lon="-105.2297941">
  <ele>1583.02</ele>
  <time>2026-08-28T17:52:36Z</time>
  <course>281.45</course>
  <speed>0.022360679774997897</speed>
  <fix>3d</fix>
</trkpt>
<trkpt lat="40.0713815" lon="-105.2297943">
  <ele>1583.0</ele>
  <time>2026-08-28T17:52:36Z</time>
  <course>190.16</course>
  <speed>0.0</speed>
  <fix>3d</fix>
</trkpt>
<trkpt lat="40.0713816" lon="-105.2297941">
  <ele>1583.02</ele>
  <time>2026-08-28T17:52:36Z</time>
  <course>281.45</course>
  <speed>0.022360679774997897</speed>
  <fix>3d</fix>
</trkpt>
<trkpt lat="40.0713815" lon="-105.2297943">
  <ele>1583.0</ele>
  <time>2026-08-28T17:52:36Z</time>
  <course>190.16</course>
  <speed>0.0</speed>
  <fix>3d</fix>
</trkpt>
<trkpt lat="40.0713816" lon="-105.2297941">
  <ele>1583.02</ele>
  <time>2026-08-28T17:52:36Z</time>
  <course>281.45</course>
  <speed>0.022360679774997897</speed>
  <fix>3d</fix>
</trkpt>
<trkpt lat="40.0713815" lon="-105.2297943">
  <ele>1583.0</ele>
  <time>2026-08-28T17:52:36Z</time>
  <course>190.15</course>
  <speed>0.0</speed>
  <fix>3d</fix>
</trkpt>
<trkpt lat="40.0713816" lon="-105.2297941">
  <ele>1583.03</ele>
  <time>2026-08-28T17:52:36Z</time>
  <course>281.45</course>
  <speed>0.022360679774997897</speed>
  <fix>3d</fix>
</trkpt>
<trkpt lat="40.0713815" lon="-105.2297943">
  <ele>1583.0</ele>
  <time>2026-08-28T17:52:36Z</time>
  <course>190.15</course>
  <speed>0.0</speed>
  <fix>3d</fix>
</trkpt>
<trkpt lat="40.0713816" lon="-105.2297941">
  <ele>1583.04</ele>
  <time>2026-08-28T17:52:36Z</time>
  <course>281.45</course>
  <speed>0.022360679774997897</speed>
  <fix>3d</fix>
</trkpt>
<trkpt lat="40.0713815" lon="-105.2297943">
  <ele>1583.0</ele>
  <time>2026-08-28T17:52:36Z</time>
  <course>190.15</course>
  <speed>0.0</speed>
  <fix>3d</fix>
</trkpt>
<trkpt lat="40.0713816" lon="-105.2297941">
  <ele>1583.04</ele>
  <time>2026-08-28T17:52:36Z</time>
  <course>281.45</course>
  <speed>0.022360679774997897</speed>
  <fix>3d</fix>
</trkpt>
<trkpt lat="40.0713815" lon="-105.2297943">
  <ele>1583.0</ele>
  <time>2026-08-28T17:52:36Z</time>
  <course>190.15</course>
  <speed>0.0</speed>
  <fix>3d</fix>
</trkpt>
<trkpt lat="40.0713816" lon="-105.2297941">
  <ele>1583.05</ele>
  <time>2026-08-28T17:52:36Z</time>
  <course>281.45</course>
  <speed>0.022360679774997897</speed>
  <fix>3d</fix>
</trkpt>
<trkpt lat="40.0713815" lon="-105.2297943">
  <ele>1583.0</ele>
  <time>2026-08-28T17:52:36Z</time>
  <course>190.15</course>
  <speed>0.0</speed>
  <fix>3d</fix>
</trkpt>
<trkpt lat="40.0713816" lon="-105.2297941">
  <ele>1583.05</ele>
  <time>2026-08-28T17:52:36Z</time>
  <course>281.45</course>
  <speed>0.022360679774997897</speed>
  <fix>3d</fix>
</trkpt>
<trkpt lat="40.0713815" lon="-105.2297943">
  <ele>1583.0</ele>
  <time>2026-08-28T17:52:36Z</time>
  <course>190.15</course>
  <speed>0.0</speed>
  <fix>3d</fix>
</trkpt>
<trkpt lat="40.0713816" lon="-105.2297941">
  <ele>1583.05</ele>
  <time>2026-08-28T17:52:36Z</time>
  <course>281.45</course>
  <speed>0.022360679774997897</speed>
  <fix>3d</fix>
</trkpt>
<trkpt lat="40.0713815" lon="-105.2297943">
  <ele>1583.0</ele>
  <time>2026-08-28T17:52:36Z</time>
  <course>190.14</course>
  <speed>0.0</speed>
  <fix>3d</fix>
</trkpt>
<trkpt lat="40.0713816" lon="-105.2297941">
  <ele>1583.05</ele>
  <time>2026-08-28T17:52:37Z</time>
  <course>281.45</course>
  <speed>0.022360679774997897</speed>
  <fix>3d</fix>
</trkpt>
<trkpt lat="40.0713815" lon="-105.2297943">
  <ele>1583.0</ele>
  <time>2026-08-28T17:52:37Z</time>
  <course>190.14</course>
  <speed>0.0</speed>
  <fix>3d</fix>
</trkpt>
<trkpt lat="40.0713816" lon="-105.2297941">
  <ele>1583.04</ele>
  <time>2026-08-28T17:52:37Z</time>
  <course>281.45</course>
  <speed>0.022360679774997897</speed>
  <fix>3d</fix>
</trkpt>
<trkpt lat="40.0713815" lon="-105.2297943">
  <ele>1583.0</ele>
  <time>2026-08-28T17:52:37Z</time>
  <course>190.14</course>
  <speed>0.0</speed>
  <fix>3d</fix>
</trkpt>
<trkpt lat="40.0713816" lon="-105.2297941">
  <ele>1583.04</ele>
  <time>2026-08-28T17:52:37Z</time>
  <course>281.45</course>
  <speed>0.022360679774997897</speed>
  <fix>3d</fix>
</trkpt>
<trkpt lat="40.0713815" lon="-105.2297943">
  <ele>1583.0</ele>
  <time>2026-08-28T17:52:37Z</time>
  <course>190.14</course>
  <speed>0.0</speed>
  <fix>3d</fix>
</trkpt>
<trkpt lat="40.0713816" lon="-105.2297941">
  <ele>1583.03</ele>
  <time>2026-08-28T17:52:37Z</time>
  <course>281.45</course>
  <speed>0.022360679774997897</speed>
  <fix>3d</fix>
</trkpt>
<trkpt lat="40.0713815" lon="-105.2297943">
  <ele>1583.0</ele>
  <time>2026-08-28T17:52:37Z</time>
  <course>190.14</course>
  <speed>0.0</speed>
  <fix>3d</fix>
</trkpt>
<trkpt lat="40.0713816" lon="-105.2297941">
  <ele>1583.03</ele>
  <time>2026-08-28T17:52:37Z</time>
  <course>281.45</course>
  <speed>0.022360679774997897</speed>
  <fix>3d</fix>
</trkpt>
<trkpt lat="40.0713815" lon="-105.2297943">
  <ele>1583.0</ele>
  <time>2026-08-28T17:52:37Z</time>
  <course>190.14</course>
  <speed>0.0</speed>
  <fix>3d</fix>
</trkpt>
<trkpt lat="39.655741" lon="-104.1383097">
  <ele>1566.58</ele>
  <time>2026-08-28T17:52:37Z</time>
  <course>0.0</course>
  <speed>0.0</speed>
  <fix>3d</fix>
</trkpt>
<trkpt lat="40.0713749" lon="-105.229789">
  <ele>1583.0</ele>
  <time>2026-08-28T17:52:37Z</time>
  <course>0.0</course>
  <speed>0.0</speed>
  <fix>3d</fix>
</trkpt>
<trkpt lat="40.0713749" lon="-105.229789">
  <ele>1583.0</ele>
  <time>2026-08-28T17:52:37Z</time>
  <course>238.36</course>
  <speed>0.0</speed>
  <fix>3d</fix>
</trkpt>
<trkpt lat="40.0713749" lon="-105.229789">
  <ele>1583.0</ele>
  <time>2026-08-28T17:52:37Z</time>
  <course>0.0</course>
  <speed>0.0</speed>
  <fix>3d</fix>
</trkpt>
<trkpt lat="40.0713749" lon="-105.229789">
  <ele>1583.0</ele>
  <time>2026-08-28T17:52:37Z</time>
  <course>238.44</course>
  <speed>0.0</speed>
  <fix>3d</fix>
</trkpt>
<trkpt lat="40.0713749" lon="-105.229789">
  <ele>1583.0</ele>
  <time>2026-08-28T17:52:37Z</time>
  <course>0.0</course>
  <speed>0.0</speed>
  <fix>3d</fix>
</trkpt>
<trkpt lat="40.0713749" lon="-105.229789">
  <ele>1583.0</ele>
  <time>2026-08-28T17:52:37Z</time>
  <course>238.64</course>
  <speed>0.0</speed>
  <fix>3d</fix>
</trkpt>
<trkpt lat="40.0713749" lon="-105.229789">
  <ele>1583.0</ele>
  <time>2026-08-28T17:52:37Z</time>
  <course>0.0</course>
  <speed>0.0</speed>
  <fix>3d</fix>
</trkpt>
<trkpt lat="40.0713749" lon="-105.229789">
  <ele>1583.0</ele>
  <time>2026-08-28T17:52:37Z</time>
  <course>238.93</course>
  <speed>0.0</speed>
  <fix>3d</fix>
</trkpt>
<trkpt lat="40.0713749" lon="-105.229789">
  <ele>1583.0</ele>
  <time>2026-08-28T17:52:37Z</time>
  <course>0.0</course>
  <speed>0.0</speed>
  <fix>3d</fix>
</trkpt>
<trkpt lat="40.0713749" lon="-105.229789">
  <ele>1583.0</ele>
  <time>2026-08-28T17:52:37Z</time>
  <course>239.26</course>
  <speed>0.0</speed>
  <fix>3d</fix>
</trkpt>
<trkpt lat="40.0713749" lon="-105.229789">
  <ele>1583.0</ele>
  <time>2026-08-28T17:52:37Z</time>
  <course>0.0</course>
  <speed>0.0</speed>
  <fix>3d</fix>
</trkpt>
<trkpt lat="40.0713749" lon="-105.229789">
  <ele>1583.0</ele>
  <time>2026-08-28T17:52:37Z</time>
  <course>239.61</course>
  <speed>0.0</speed>
  <fix>3d</fix>
</trkpt>
<trkpt lat="40.0713749" lon="-105.229789">
  <ele>1583.0</ele>
  <time>2026-08-28T17:52:37Z</time>
  <course>0.0</course>
  <speed>0.0</speed>
  <fix>3d</fix>
</trkpt>
<trkpt lat="40.0713749" lon="-105.229789">
  <ele>1583.0</ele>
  <time>2026-08-28T17:52:37Z</time>
  <course>239.96</course>
  <speed>0.0</speed>
  <fix>3d</fix>
</trkpt>
<trkpt lat="40.0713749" lon="-105.229789">
  <ele>1583.0</ele>
  <time>2026-08-28T17:52:37Z</time>
  <course>0.0</course>
  <speed>0.0</speed>
  <fix>3d</fix>
</trkpt>
<trkpt lat="40.0713749" lon="-105.229789">
  <ele>1583.0</ele>
  <time>2026-08-28T17:52:37Z</time>
  <course>240.29</course>
  <speed>0.0</speed>
  <fix>3d</fix>
</trkpt>
<trkpt lat="40.0713749" lon="-105.229789">
  <ele>1583.0</ele>
  <time>2026-08-28T17:52:37Z</time>
  <course>0.0</course>
  <speed>0.0</speed>
  <fix>3d</fix>
</trkpt>
<trkpt lat="40.0713749" lon="-105.229789">
  <ele>1583.0</ele>
  <time>2026-08-28T17:52:37Z</time>
  <course>240.61</course>
  <speed>0.0</speed>
  <fix>3d</fix>
</trkpt>
<trkpt lat="40.0713749" lon="-105.229789">
  <ele>1583.0</ele>
  <time>2026-08-28T17:52:37Z</time>
  <course>0.0</course>
  <speed>0.0</speed>
  <fix>3d</fix>
</trkpt>
<trkpt lat="40.0713749" lon="-105.229789">
  <ele>1583.0</ele>
  <time>2026-08-28T17:52:37Z</time>
  <course>240.92</course>
  <speed>0.0</speed>
  <fix>3d</fix>
</trkpt>
<trkpt lat="40.0713749" lon="-105.229789">
  <ele>1583.0</ele>
  <time>2026-08-28T17:52:37Z</time>
  <course>0.0</course>
  <speed>0.0</speed>
  <fix>3d</fix>
</trkpt>
<trkpt lat="40.0713749" lon="-105.229789">
  <ele>1583.0</ele>
  <time>2026-08-28T17:52:37Z</time>
  <course>241.21</course>
  <speed>0.0</speed>
  <fix>3d</fix>
</trkpt>
<trkpt lat="40.0713749" lon="-105.229789">
  <ele>1583.0</ele>
  <time>2026-08-28T17:52:37Z</time>
  <course>0.0</course>
  <speed>0.0</speed>
  <fix>3d</fix>
</trkpt>
<trkpt lat="40.0713749" lon="-105.229789">
  <ele>1583.0</ele>
  <time>2026-08-28T17:52:37Z</time>
  <course>241.49</course>
  <speed>0.0</speed>
  <fix>3d</fix>
</trkpt>
<trkpt lat="40.0713749" lon="-105.229789">
  <ele>1583.0</ele>
  <time>2026-08-28T17:52:37Z</time>
  <course>0.0</course>
  <speed>0.0</speed>
  <fix>3d</fix>
</trkpt>
<trkpt lat="40.0713749" lon="-105.229789">
  <ele>1583.0</ele>
  <time>2026-08-28T17:52:37Z</time>
  <course>241.77</course>
  <speed>0.0</speed>
  <fix>3d</fix>
</trkpt>
<trkpt lat="40.0713749" lon="-105.229789">
  <ele>1583.0</ele>
  <time>2026-08-28T17:52:37Z</time>
  <course>0.0</course>
  <speed>0.0</speed>
  <fix>3d</fix>
</trkpt>
<trkpt lat="40.0713749" lon="-105.229789">
  <ele>1583.0</ele>
  <time>2026-08-28T17:52:37Z</time>
  <course>242.03</course>
  <speed>0.0</speed>
  <fix>3d</fix>
</trkpt>
<trkpt lat="40.0713749" lon="-105.229789">
  <ele>1583.0</ele>
  <time>2026-08-28T17:52:37Z</time>
  <course>0.0</course>
  <speed>0.0</speed>
  <fix>3d</fix>
</trkpt>
<trkpt lat="40.0713749" lon="-105.229789">
  <ele>1583.0</ele>
  <time>2026-08-28T17:52:37Z</time>
  <course>242.29</course>
  <speed>0.0</speed>
  <fix>3d</fix>
</trkpt>
<trkpt lat="40.0713749" lon="-105.229789">
  <ele>1583.0</ele>
  <time>2026-08-28T17:52:37Z</time>
  <course>0.0</course>
  <speed>0.0</speed>
  <fix>3d</fix>
</trkpt>
<trkpt lat="40.0713749" lon="-105.229789">
  <ele>1583.0</ele>
  <time>2026-08-28T17:52:37Z</time>
  <course>242.54</course>
  <speed>0.0</speed>
  <fix>3d</fix>
</trkpt>
<trkpt lat="40.0713749" lon="-105.229789">
  <ele>1583.0</ele>
  <time>2026-08-28T17:52:37Z</time>
  <course>0.0</course>
  <speed>0.0</speed>
  <fix>3d</fix>
</trkpt>
<trkpt lat="40.0713749" lon="-105.229789">
  <ele>1583.0</ele>
  <time>2026-08-28T17:52:37Z</time>
  <course>242.79</course>
  <speed>0.0</speed>
  <fix>3d</fix>
</trkpt>
<trkpt lat="40.0713749" lon="-105.229789">
  <ele>1583.0</ele>
  <time>2026-08-28T17:52:37Z</time>
  <course>0.0</course>
  <speed>0.0</speed>
  <fix>3d</fix>
</trkpt>
<trkpt lat="40.0713749" lon="-105.229789">
  <ele>1583.0</ele>
  <time>2026-08-28T17:52:37Z</time>
  <course>243.02</course>
  <speed>0.0</speed>
  <fix>3d</fix>
</trkpt>
<trkpt lat="40.0713749" lon="-105.229789">
  <ele>1583.0</ele>
  <time>2026-08-28T17:52:37Z</time>
  <course>0.0</course>
  <speed>0.0</speed>
  <fix>3d</fix>
</trkpt>
<trkpt lat="40.0713749" lon="-105.229789">
  <ele>1583.0</ele>
  <time>2026-08-28T17:52:37Z</time>
  <course>243.25</course>
  <speed>0.0</speed>
  <fix>3d</fix>
</trkpt>
<trkpt lat="40.0713749" lon="-105.229789">
  <ele>1583.0</ele>
  <time>2026-08-28T17:52:37Z</time>
  <course>0.0</course>
  <speed>0.0</speed>
  <fix>3d</fix>
</trkpt>
<trkpt lat="40.0713749" lon="-105.229789">
  <ele>1583.0</ele>
  <time>2026-08-28T17:52:37Z</time>
  <course>243.47</course>
  <speed>0.0</speed>
  <fix>3d</fix>
</trkpt>
<trkpt lat="40.0713749" lon="-105.229789">
  <ele>1583.0</ele>
  <time>2026-08-28T17:52:37Z</time>
  <course>0.0</course>
  <speed>0.0</speed>
  <fix>3d</fix>
</trkpt>
<trkpt lat="40.0713749" lon="-105.229789">
  <ele>1583.0</ele>
  <time>2026-08-28T17:52:37Z</time>
  <course>243.68</course>
  <speed>0.0</speed>
  <fix>3d</fix>
</trkpt>
<trkpt lat="40.0713749" lon="-105.229789">
  <ele>1583.0</ele>
  <time>2026-08-28T17:52:37Z</time>
  <course>0.0</course>
  <speed>0.0</speed>
  <fix>3d</fix>
</trkpt>
<trkpt lat="40.0713749" lon="-105.229789">
  <ele>1583.0</ele>
  <time>2026-08-28T17:52:37Z</time>
  <course>243.89</course>
  <speed>0.0</speed>
  <fix>3d</fix>
</trkpt>
<trkpt lat="40.0713749" lon="-105.229789">
  <ele>1583.0</ele>
  <time>2026-08-28T17:52:37Z</time>
  <course>0.0</course>
  <speed>0.0</speed>
  <fix>3d</fix>
</trkpt>
<trkpt lat="40.0713749" lon="-105.229789">
  <ele>1583.0</ele>
  <time>2026-08-28T17:52:37Z</time>
  <course>244.09</course>
  <speed>0.0</speed>
  <fix>3d</fix>
</trkpt>
<trkpt lat="40.0713749" lon="-105.229789">
  <ele>1583.0</ele>
  <time>2026-08-28T17:52:37Z</time>
  <course>0.0</course>
  <speed>0.0</speed>
  <fix>3d</fix>
</trkpt>
<trkpt lat="40.0713749" lon="-105.229789">
  <ele>1583.0</ele>
  <time>2026-08-28T17:52:37Z</time>
  <course>244.28</course>
  <speed>0.0</speed>
  <fix>3d</fix>
</trkpt>
<trkpt lat="40.0713749" lon="-105.229789">
  <ele>1583.0</ele>
  <time>2026-08-28T17:52:37Z</time>
  <course>0.0</course>
  <speed>0.0</speed>
  <fix>3d</fix>
</trkpt>
<trkpt lat="40.0713749" lon="-105.229789">
  <ele>1583.0</ele>
  <time>2026-08-28T17:52:37Z</time>
  <course>244.46</course>
  <speed>0.0</speed>
  <fix>3d</fix>
</trkpt>
<trkpt lat="40.0713749" lon="-105.229789">
  <ele>1583.0</ele>
  <time>2026-08-28T17:52:37Z</time>
  <course>0.0</course>
  <speed>0.0</speed>
  <fix>3d</fix>
</trkpt>
<trkpt lat="40.0713749" lon="-105.229789">
  <ele>1583.0</ele>
  <time>2026-08-28T17:52:37Z</time>
  <course>244.64</course>
  <speed>0.0</speed>
  <fix>3d</fix>
</trkpt>
<trkpt lat="40.0713749" lon="-105.229789">
  <ele>1583.0</ele>
  <time>2026-08-28T17:52:37Z</time>
  <course>0.0</course>
  <speed>0.0</speed>
  <fix>3d</fix>
</trkpt>
<trkpt lat="40.0713749" lon="-105.229789">
  <ele>1583.0</ele>
  <time>2026-08-28T17:52:37Z</time>
  <course>244.81</course>
  <speed>0.0</speed>
  <fix>3d</fix>
</trkpt>
<trkpt lat="40.0713749" lon="-105.229789">
  <ele>1583.0</ele>
  <time>2026-08-28T17:52:37Z</time>
  <course>0.0</course>
  <speed>0.0</speed>
  <fix>3d</fix>
</trkpt>
<trkpt lat="40.0713749" lon="-105.229789">
  <ele>1583.0</ele>
  <time>2026-08-28T17:52:37Z</time>
  <course>244.97</course>
  <speed>0.0</speed>
  <fix>3d</fix>
</trkpt>
<trkpt lat="40.0713749" lon="-105.229789">
  <ele>1583.0</ele>
  <time>2026-08-28T17:52:37Z</time>
  <course>0.0</course>
  <speed>0.0</speed>
  <fix>3d</fix>
</trkpt>
<trkpt lat="40.0713749" lon="-105.229789">
  <ele>1583.0</ele>
  <time>2026-08-28T17:52:37Z</time>
  <course>245.13</course>
  <speed>0.0</speed>
  <fix>3d</fix>
</trkpt>
<trkpt lat="40.0713749" lon="-105.229789">
  <ele>1583.0</ele>
  <time>2026-08-28T17:52:37Z</time>
  <course>0.0</course>
  <speed>0.0</speed>
  <fix>3d</fix>
</trkpt>
<trkpt lat="40.0713749" lon="-105.229789">
  <ele>1583.0</ele>
  <time>2026-08-28T17:52:37Z</time>
  <course>245.29</course>
  <speed>0.0</speed>
  <fix>3d</fix>
</trkpt>
<trkpt lat="40.0713749" lon="-105.229789">
  <ele>1583.0</ele>
  <time>2026-08-28T17:52:37Z</time>
  <course>0.0</course>
  <speed>0.0</speed>
  <fix>3d</fix>
</trkpt>
<trkpt lat="40.0713749" lon="-105.229789">
  <ele>1583.0</ele>
  <time>2026-08-28T17:52:37Z</time>
  <course>245.43</course>
  <speed>0.0</speed>
  <fix>3d</fix>
</trkpt>
<trkpt lat="40.0713749" lon="-105.229789">
  <ele>1583.0</ele>
  <time>2026-08-28T17:52:37Z</time>
  <course>0.0</course>
  <speed>0.0</speed>
  <fix>3d</fix>
</trkpt>
<trkpt lat="40.0713749" lon="-105.229789">
  <ele>1583.0</ele>
  <time>2026-08-28T17:52:37Z</time>
  <course>245.57</course>
  <speed>0.0</speed>
  <fix>3d</fix>
</trkpt>
<trkpt lat="40.0713749" lon="-105.229789">
  <ele>1583.0</ele>
  <time>2026-08-28T17:52:37Z</time>
  <course>0.0</course>
  <speed>0.0</speed>
  <fix>3d</fix>
</trkpt>
<trkpt lat="40.0713749" lon="-105.229789">
  <ele>1583.0</ele>
  <time>2026-08-28T17:52:37Z</time>
  <course>245.71</course>
  <speed>0.0</speed>
  <fix>3d</fix>
</trkpt>
<trkpt lat="40.0713749" lon="-105.229789">
  <ele>1583.0</ele>
  <time>2026-08-28T17:52:37Z</time>
  <course>0.0</course>
  <speed>0.0</speed>
  <fix>3d</fix>
</trkpt>
<trkpt lat="40.0713749" lon="-105.229789">
  <ele>1583.0</ele>
  <time>2026-08-28T17:52:37Z</time>
  <course>245.84</course>
  <speed>0.0</speed>
  <fix>3d</fix>
</trkpt>
<trkpt lat="40.0713749" lon="-105.229789">
  <ele>1583.0</ele>
  <time>2026-08-28T17:52:37Z</time>
  <course>0.0</course>
  <speed>0.0</speed>
  <fix>3d</fix>
</trkpt>
<trkpt lat="40.0713749" lon="-105.229789">
  <ele>1583.0</ele>
  <time>2026-08-28T17:52:37Z</time>
  <course>245.96</course>
  <speed>0.0</speed>
  <fix>3d</fix>
</trkpt>
<trkpt lat="40.0713749" lon="-105.229789">
  <ele>1583.0</ele>
  <time>2026-08-28T17:52:37Z</time>
  <course>0.0</course>
  <speed>0.0</speed>
  <fix>3d</fix>
</trkpt>
<trkpt lat="40.0713749" lon="-105.229789">
  <ele>1583.0</ele>
  <time>2026-08-28T17:52:37Z</time>
  <course>246.08</course>
  <speed>0.0</speed>
  <fix>3d</fix>
</trkpt>
<trkpt lat="40.0713749" lon="-105.229789">
  <ele>1583.0</ele>
  <time>2026-08-28T17:52:37Z</time>
  <course>0.0</course>
  <speed>0.0</speed>
  <fix>3d</fix>
</trkpt>
<trkpt lat="40.0713749" lon="-105.229789">
  <ele>1583.0</ele>
  <time>2026-08-28T17:52:37Z</time>
  <course>246.19</course>
  <speed>0.0</speed>
  <fix>3d</fix>
</trkpt>
<trkpt lat="40.0713749" lon="-105.229789">
  <ele>1583.0</ele>
  <time>2026-08-28T17:52:37Z</time>
  <course>0.0</course>
  <speed>0.0</speed>
  <fix>3d</fix>
</trkpt>
<trkpt lat="40.0713749" lon="-105.229789">
  <ele>1583.0</ele>
  <time>2026-08-28T17:52:37Z</time>
  <course>246.3</course>
  <speed>0.0</speed>
  <fix>3d</fix>
</trkpt>
<trkpt lat="40.0713749" lon="-105.229789">
  <ele>1583.0</ele>
  <time>2026-08-28T17:52:37Z</time>
  <course>0.0</course>
  <speed>0.0</speed>
  <fix>3d</fix>
</trkpt>
<trkpt lat="40.0713749" lon="-105.229789">
  <ele>1583.0</ele>
  <time>2026-08-28T17:52:37Z</time>
  <course>246.41</course>
  <speed>0.0</speed>
  <fix>3d</fix>
</trkpt>
<trkpt lat="40.0713749" lon="-105.229789">
  <ele>1583.0</ele>
  <time>2026-08-28T17:52:37Z</time>
  <course>0.0</course>
  <speed>0.0</speed>
  <fix>3d</fix>
</trkpt>
<trkpt lat="40.0713749" lon="-105.229789">
  <ele>1583.0</ele>
  <time>2026-08-28T17:52:37Z</time>
  <course>246.51</course>
  <speed>0.0</speed>
  <fix>3d</fix>
</trkpt>
<trkpt lat="40.0713749" lon="-105.229789">
  <ele>1583.0</ele>
  <time>2026-08-28T17:52:37Z</time>
  <course>0.0</course>
  <speed>0.0</speed>
  <fix>3d</fix>
</trkpt>
<trkpt lat="40.0713749" lon="-105.229789">
  <ele>1583.0</ele>
  <time>2026-08-28T17:52:37Z</time>
  <course>246.6</course>
  <speed>0.0</speed>
  <fix>3d</fix>
</trkpt>
<trkpt lat="40.0713749" lon="-105.229789">
  <ele>1583.0</ele>
  <time>2026-08-28T17:52:37Z</time>
  <course>0.0</course>
  <speed>0.0</speed>
  <fix>3d</fix>
</trkpt>
<trkpt lat="40.0713749" lon="-105.229789">
  <ele>1583.0</ele>
  <time>2026-08-28T17:52:37Z</time>
  <course>246.7</course>
  <speed>0.0</speed>
  <fix>3d</fix>
</trkpt>
<trkpt lat="40.0713749" lon="-105.229789">
  <ele>1583.0</ele>
  <time>2026-08-28T17:52:37Z</time>
  <course>0.0</course>
  <speed>0.0</speed>
  <fix>3d</fix>
</trkpt>
<trkpt lat="40.0713749" lon="-105.229789">
  <ele>1583.0</ele>
  <time>2026-08-28T17:52:37Z</time>
  <course>246.78</course>
  <speed>0.0</speed>
  <fix>3d</fix>
</trkpt>
<trkpt lat="40.0713749" lon="-105.229789">
  <ele>1583.0</ele>
  <time>2026-08-28T17:52:37Z</time>
  <course>0.0</course>
  <speed>0.0</speed>
  <fix>3d</fix>
</trkpt>
<trkpt lat="40.0713749" lon="-105.229789">
  <ele>1583.0</ele>
  <time>2026-08-28T17:52:37Z</time>
  <course>246.87</course>
  <speed>0.0</speed>
  <fix>3d</fix>
</trkpt>
<trkpt lat="40.0713749" lon="-105.229789">
  <ele>1583.0</ele>
  <time>2026-08-28T17:52:37Z</time>
  <course>0.0</course>
  <speed>0.0</speed>
  <fix>3d</fix>
</trkpt>
<trkpt lat="40.0713749" lon="-105.229789">
  <ele>1583.0</ele>
  <time>2026-08-28T17:52:37Z</time>
  <course>246.95</course>
  <speed>0.0</speed>
  <fix>3d</fix>
</trkpt>
<trkpt lat="40.0713749" lon="-105.229789">
  <ele>1583.0</ele>
  <time>2026-08-28T17:52:37Z</time>
  <course>0.0</course>
  <speed>0.0</speed>
  <fix>3d</fix>
</trkpt>
<trkpt lat="40.0713749" lon="-105.229789">
  <ele>1583.0</ele>
  <time>2026-08-28T17:52:37Z</time>
  <course>247.02</course>
  <speed>0.0</speed>
  <fix>3d</fix>
</trkpt>
<trkpt lat="40.0713749" lon="-105.229789">
  <ele>1583.0</ele>
  <time>2026-08-28T17:52:37Z</time>
  <course>0.0</course>
  <speed>0.0</speed>
  <fix>3d</fix>
</trkpt>
<trkpt lat="40.0713749" lon="-105.229789">
  <ele>1583.0</ele>
  <time>2026-08-28T17:52:37Z</time>
  <course>247.1</course>
  <speed>0.0</speed>
  <fix>3d</fix>
</trkpt>
<trkpt lat="40.0713749" lon="-105.229789">
  <ele>1583.0</ele>
  <time>2026-08-28T17:52:37Z</time>
  <course>0.0</course>
  <speed>0.0</speed>
  <fix>3d</fix>
</trkpt>
<trkpt lat="40.0713749" lon="-105.229789">
  <ele>1583.0</ele>
  <time>2026-08-28T17:52:37Z</time>
  <course>247.17</course>
  <speed>0.0</speed>
  <fix>3d</fix>
</trkpt>
<trkpt lat="40.0713749" lon="-105.229789">
  <ele>1583.0</ele>
  <time>2026-08-28T17:52:37Z</time>
  <course>0.0</course>
  <speed>0.0</speed>
  <fix>3d</fix>
</trkpt>
<trkpt lat="40.0713749" lon="-105.229789">
  <ele>1583.0</ele>
  <time>2026-08-28T17:52:37Z</time>
  <course>247.24</course>
  <speed>0.0</speed>
  <fix>3d</fix>
</trkpt>
<trkpt lat="40.0713749" lon="-105.229789">
  <ele>1583.0</ele>
  <time>2026-08-28T17:52:37Z</time>
  <course>0.0</course>
  <speed>0.0</speed>
  <fix>3d</fix>
</trkpt>
<trkpt lat="40.0713749" lon="-105.229789">
  <ele>1583.0</ele>
  <time>2026-08-28T17:52:37Z</time>
  <course>247.3</course>
  <speed>0.0</speed>
  <fix>3d</fix>
</trkpt>
<trkpt lat="40.0713749" lon="-105.229789">
  <ele>1583.0</ele>
  <time>2026-08-28T17:52:37Z</time>
  <course>0.0</course>
  <speed>0.0</speed>
  <fix>3d</fix>
</trkpt>
<trkpt lat="40.0713749" lon="-105.229789">
  <ele>1583.0</ele>
  <time>2026-08-28T17:52:37Z</time>
  <course>247.36</course>
  <speed>0.0</speed>
  <fix>3d</fix>
</trkpt>
<trkpt lat="40.0713749" lon="-105.229789">
  <ele>1583.0</ele>
  <time>2026-08-28T17:52:37Z</time>
  <course>0.0</course>
  <speed>0.0</speed>
  <fix>3d</fix>
</trkpt>
<trkpt lat="40.0713749" lon="-105.229789">
  <ele>1583.0</ele>
  <time>2026-08-28T17:52:37Z</time>
  <course>247.42</course>
  <speed>0.0</speed>
  <fix>3d</fix>
</trkpt>
<trkpt lat="40.0713749" lon="-105.229789">
  <ele>1583.0</ele>
  <time>2026-08-28T17:52:37Z</time>
  <course>0.0</course>
  <speed>0.0</speed>
  <fix>3d</fix>
</trkpt>
<trkpt lat="40.0713749" lon="-105.229789">
  <ele>1583.0</ele>
  <time>2026-08-28T17:52:37Z</time>
  <course>247.47</course>
  <speed>0.0</speed>
  <fix>3d</fix>
</trkpt>
<trkpt lat="40.0713749" lon="-105.229789">
  <ele>1583.0</ele>
  <time>2026-08-28T17:52:37Z</time>
  <course>0.0</course>
  <speed>0.0</speed>
  <fix>3d</fix>
</trkpt>
<trkpt lat="40.0713749" lon="-105.229789">
  <ele>1583.0</ele>
  <time>2026-08-28T17:52:37Z</time>
  <course>247.53</course>
  <speed>0.0</speed>
  <fix>3d</fix>
</trkpt>
<trkpt lat="40.0713749" lon="-105.229789">
  <ele>1583.0</ele>
  <time>2026-08-28T17:52:37Z</time>
  <course>0.0</course>
  <speed>0.0</speed>
  <fix>3d</fix>
</trkpt>
<trkpt lat="40.0713749" lon="-105.229789">
  <ele>1583.0</ele>
  <time>2026-08-28T17:52:37Z</time>
  <course>247.58</course>
  <speed>0.0</speed>
  <fix>3d</fix>
</trkpt>
<trkpt lat="40.0713749" lon="-105.229789">
  <ele>1583.0</ele>
  <time>2026-08-28T17:52:37Z</time>
  <course>0.0</course>
  <speed>0.0</speed>
  <fix>3d</fix>
</trkpt>
<trkpt lat="40.0713749" lon="-105.229789">
  <ele>1583.0</ele>
  <time>2026-08-28T17:52:37Z</time>
  <course>247.63</course>
  <speed>0.0</speed>
  <fix>3d</fix>
</trkpt>
<trkpt lat="40.0713749" lon="-105.229789">
  <ele>1583.0</ele>
  <time>2026-08-28T17:52:37Z</time>
  <course>0.0</course>
  <speed>0.0</speed>
  <fix>3d</fix>
</trkpt>
<trkpt lat="40.0713749" lon="-105.229789">
  <ele>1583.0</ele>
  <time>2026-08-28T17:52:37Z</time>
  <course>247.67</course>
  <speed>0.0</speed>
  <fix>3d</fix>
</trkpt>
<trkpt lat="40.0713749" lon="-105.229789">
  <ele>1583.0</ele>
  <time>2026-08-28T17:52:37Z</time>
  <course>0.0</course>
  <speed>0.0</speed>
  <fix>3d</fix>
</trkpt>
<trkpt lat="40.0713749" lon="-105.229789">
  <ele>1583.0</ele>
  <time>2026-08-28T17:52:37Z</time>
  <course>247.72</course>
  <speed>0.0</speed>
  <fix>3d</fix>
</trkpt>
<trkpt lat="40.0713749" lon="-105.229789">
  <ele>1583.0</ele>
  <time>2026-08-28T17:52:37Z</time>
  <course>0.0</course>
  <speed>0.0</speed>
  <fix>3d</fix>
</trkpt>
<trkpt lat="40.0713749" lon="-105.229789">
  <ele>1583.0</ele>
  <time>2026-08-28T17:52:37Z</time>
  <course>247.76</course>
  <speed>0.0</speed>
  <fix>3d</fix>
</trkpt>
<trkpt lat="40.0713749" lon="-105.229789">
  <ele>1583.0</ele>
  <time>2026-08-28T17:52:37Z</time>
  <course>0.0</course>
  <speed>0.0</speed>
  <fix>3d</fix>
</trkpt>
<trkpt lat="40.0713749" lon="-105.229789">
  <ele>1583.0</ele>
  <time>2026-08-28T17:52:37Z</time>
  <course>247.8</course>
  <speed>0.0</speed>
  <fix>3d</fix>
</trkpt>
<trkpt lat="40.0713749" lon="-105.229789">
  <ele>1583.0</ele>
  <time>2026-08-28T17:52:37Z</time>
  <course>0.0</course>
  <speed>0.0</speed>
  <fix>3d</fix>
</trkpt>
<trkpt lat="40.0713749" lon="-105.229789">
  <ele>1583.0</ele>
  <time>2026-08-28T17:52:37Z</time>
  <course>247.83</course>
  <speed>0.0</speed>
  <fix>3d</fix>
</trkpt>
<trkpt lat="40.0713749" lon="-105.229789">
  <ele>1583.0</ele>
  <time>2026-08-28T17:52:37Z</time>
  <course>0.0</course>
  <speed>0.0</speed>
  <fix>3d</fix>
</trkpt>
<trkpt lat="40.0713749" lon="-105.229789">
  <ele>1583.0</ele>
  <time>2026-08-28T17:52:37Z</time>
  <course>247.87</course>
  <speed>0.0</speed>
  <fix>3d</fix>
</trkpt>
<trkpt lat="40.0713749" lon="-105.229789">
  <ele>1583.0</ele>
  <time>2026-08-28T17:52:37Z</time>
  <course>0.0</course>
  <speed>0.0</speed>
  <fix>3d</fix>
</trkpt>
<trkpt lat="40.0713749" lon="-105.229789">
  <ele>1583.0</ele>
  <time>2026-08-28T17:52:37Z</time>
  <course>247.9</course>
  <speed>0.0</speed>
  <fix>3d</fix>
</trkpt>
<trkpt lat="40.0713749" lon="-105.229789">
  <ele>1583.0</ele>
  <time>2026-08-28T17:52:37Z</time>
  <course>0.0</course>
  <speed>0.0</speed>
  <fix>3d</fix>
</trkpt>
<trkpt lat="40.0713749" lon="-105.229789">
  <ele>1583.0</ele>
  <time>2026-08-28T17:52:37Z</time>
  <course>247.94</course>
  <speed>0.0</speed>
  <fix>3d</fix>
</trkpt>
<trkpt lat="40.0713749" lon="-105.229789">
  <ele>1583.0</ele>
  <time>2026-08-28T17:52:37Z</time>
  <course>0.0</course>
  <speed>0.0</speed>
  <fix>3d</fix>
</trkpt>
<trkpt lat="40.0713749" lon="-105.229789">
  <ele>1583.0</ele>
  <time>2026-08-28T17:52:37Z</time>
  <course>247.97</course>
  <speed>0.0</speed>
  <fix>3d</fix>
</trkpt>
<trkpt lat="40.0713749" lon="-105.229789">
  <ele>1583.0</ele>
  <time>2026-08-28T17:52:37Z</time>
  <course>0.0</course>
  <speed>0.0</speed>
  <fix>3d</fix>
</trkpt>
<trkpt lat="40.0713749" lon="-105.229789">
  <ele>1583.0</ele>
  <time>2026-08-28T17:52:37Z</time>
  <course>248.0</course>
  <speed>0.0</speed>
  <fix>3d</fix>
</trkpt>
<trkpt lat="40.0713749" lon="-105.229789">
  <ele>1583.0</ele>
  <time>2026-08-28T17:52:37Z</time>
  <course>0.0</course>
  <speed>0.0</speed>
  <fix>3d</fix>
</trkpt>
<trkpt lat="40.0713749" lon="-105.229789">
  <ele>1583.0</ele>
  <time>2026-08-28T17:52:37Z</time>
  <course>248.02</course>
  <speed>0.0</speed>
  <fix>3d</fix>
</trkpt>
<trkpt lat="40.0713749" lon="-105.229789">
  <ele>1583.0</ele>
  <time>2026-08-28T17:52:37Z</time>
  <course>0.0</course>
  <speed>0.0</speed>
  <fix>3d</fix>
</trkpt>
<trkpt lat="40.0713749" lon="-105.229789">
  <ele>1583.0</ele>
  <time>2026-08-28T17:52:37Z</time>
  <course>248.05</course>
  <speed>0.0</speed>
  <fix>3d</fix>
</trkpt>
<trkpt lat="40.0713749" lon="-105.229789">
  <ele>1583.0</ele>
  <time>2026-08-28T17:52:37Z</time>
  <course>0.0</course>
  <speed>0.0</speed>
  <fix>3d</fix>
</trkpt>
<trkpt lat="40.0713749" lon="-105.229789">
  <ele>1583.0</ele>
  <time>2026-08-28T17:52:37Z</time>
  <course>248.08</course>
  <speed>0.0</speed>
  <fix>3d</fix>
</trkpt>
<trkpt lat="40.0713749" lon="-105.229789">
  <ele>1583.0</ele>
  <time>2026-08-28T17:52:37Z</time>
  <course>0.0</course>
  <speed>0.0</speed>
  <fix>3d</fix>
</trkpt>
<trkpt lat="40.0713749" lon="-105.229789">
  <ele>1583.0</ele>
  <time>2026-08-28T17:52:37Z</time>
  <course>248.1</course>
  <speed>0.0</speed>
  <fix>3d</fix>
</trkpt>
<trkpt lat="40.0713749" lon="-105.229789">
  <ele>1583.0</ele>
  <time>2026-08-28T17:52:37Z</time>
  <course>0.0</course>
  <speed>0.0</speed>
  <fix>3d</fix>
</trkpt>
<trkpt lat="40.0713749" lon="-105.229789">
  <ele>1583.0</ele>
  <time>2026-08-28T17:52:37Z</time>
  <course>248.12</course>
  <speed>0.0</speed>
  <fix>3d</fix>
</trkpt>
<trkpt lat="40.0713749" lon="-105.229789">
  <ele>1583.0</ele>
  <time>2026-08-28T17:52:37Z</time>
  <course>0.0</course>
  <speed>0.0</speed>
  <fix>3d</fix>
</trkpt>
<trkpt lat="40.0713749" lon="-105.229789">
  <ele>1583.0</ele>
  <time>2026-08-28T17:52:37Z</time>
  <course>248.14</course>
  <speed>0.0</speed>
  <fix>3d</fix>
</trkpt>
<trkpt lat="40.0713749" lon="-105.229789">
  <ele>1583.0</ele>
  <time>2026-08-28T17:52:37Z</time>
  <course>0.0</course>
  <speed>0.0</speed>
  <fix>3d</fix>
</trkpt>
<trkpt lat="40.0713749" lon="-105.229789">
  <ele>1583.0</ele>
  <time>2026-08-28T17:52:37Z</time>
  <course>248.16</course>
  <speed>0.0</speed>
  <fix>3d</fix>
</trkpt>
<trkpt lat="40.0713749" lon="-105.229789">
  <ele>1583.0</ele>
  <time>2026-08-28T17:52:37Z</time>
  <course>0.0</course>
  <speed>0.0</speed>
  <fix>3d</fix>
</trkpt>
<trkpt lat="40.0713749" lon="-105.229789">
  <ele>1583.0</ele>
  <time>2026-08-28T17:52:37Z</time>
  <course>248.18</course>
  <speed>0.0</speed>
  <fix>3d</fix>
</trkpt>
<trkpt lat="40.0713749" lon="-105.229789">
  <ele>1583.0</ele>
  <time>2026-08-28T17:52:37Z</time>
  <course>0.0</course>
  <speed>0.0</speed>
  <fix>3d</fix>
</trkpt>
<trkpt lat="40.0713749" lon="-105.229789">
  <ele>1583.0</ele>
  <time>2026-08-28T17:52:37Z</time>
  <course>248.2</course>
  <speed>0.0</speed>
  <fix>3d</fix>
</trkpt>
<trkpt lat="40.0713749" lon="-105.229789">
  <ele>1583.0</ele>
  <time>2026-08-28T17:52:37Z</time>
  <course>0.0</course>
  <speed>0.0</speed>
  <fix>3d</fix>
</trkpt>
<trkpt lat="40.0713749" lon="-105.229789">
  <ele>1583.0</ele>
  <time>2026-08-28T17:52:37Z</time>
  <course>248.22</course>
  <speed>0.0</speed>
  <fix>3d</fix>
</trkpt>
<trkpt lat="40.0713749" lon="-105.229789">
  <ele>1583.0</ele>
  <time>2026-08-28T17:52:37Z</time>
  <course>0.0</course>
  <speed>0.0</speed>
  <fix>3d</fix>
</trkpt>
<trkpt lat="40.0713749" lon="-105.229789">
  <ele>1583.0</ele>
  <time>2026-08-28T17:52:37Z</time>
  <course>248.23</course>
  <speed>0.0</speed>
  <fix>3d</fix>
</trkpt>
<trkpt lat="40.0713749" lon="-105.229789">
  <ele>1583.0</ele>
  <time>2026-08-28T17:52:37Z</time>
  <course>0.0</course>
  <speed>0.0</speed>
  <fix>3d</fix>
</trkpt>
<trkpt lat="40.0713749" lon="-105.229789">
  <ele>1583.0</ele>
  <time>2026-08-28T17:52:37Z</time>
  <course>248.25</course>
  <speed>0.0</speed>
  <fix>3d</fix>
</trkpt>
<trkpt lat="40.0713749" lon="-105.229789">
  <ele>1583.0</ele>
  <time>2026-08-28T17:52:37Z</time>
  <course>0.0</course>
  <speed>0.0</speed>
  <fix>3d</fix>
</trkpt>
<trkpt lat="40.0713749" lon="-105.229789">
  <ele>1583.0</ele>
  <time>2026-08-28T17:52:37Z</time>
  <course>248.26</course>
  <speed>0.0</speed>
  <fix>3d</fix>
</trkpt>
<trkpt lat="40.0713749" lon="-105.229789">
  <ele>1583.0</ele>
  <time>2026-08-28T17:52:37Z</time>
  <course>0.0</course>
  <speed>0.0</speed>
  <fix>3d</fix>
</trkpt>
<trkpt lat="40.0713749" lon="-105.229789">
  <ele>1583.0</ele>
  <time>2026-08-28T17:52:37Z</time>
  <course>248.28</course>
  <speed>0.0</speed>
  <fix>3d</fix>
</trkpt>
<trkpt lat="40.0713749" lon="-105.229789">
  <ele>1583.0</ele>
  <time>2026-08-28T17:52:37Z</time>
  <course>0.0</course>
  <speed>0.0</speed>
  <fix>3d</fix>
</trkpt>
<trkpt lat="40.0713749" lon="-105.229789">
  <ele>1583.0</ele>
  <time>2026-08-28T17:52:37Z</time>
  <course>248.29</course>
  <speed>0.0</speed>
  <fix>3d</fix>
</trkpt>
<trkpt lat="40.0713749" lon="-105.229789">
  <ele>1583.0</ele>
  <time>2026-08-28T17:52:37Z</time>
  <course>0.0</course>
  <speed>0.0</speed>
  <fix>3d</fix>
</trkpt>
<trkpt lat="40.0713749" lon="-105.229789">
  <ele>1583.0</ele>
  <time>2026-08-28T17:52:37Z</time>
  <course>248.3</course>
  <speed>0.0</speed>
  <fix>3d</fix>
</trkpt>
<trkpt lat="40.0713749" lon="-105.229789">
  <ele>1583.0</ele>
  <time>2026-08-28T17:52:37Z</time>
  <course>0.0</course>
  <speed>0.0</speed>
  <fix>3d</fix>
</trkpt>
<trkpt lat="40.0713749" lon="-105.229789">
  <ele>1583.0</ele>
  <time>2026-08-28T17:52:37Z</time>
  <course>248.31</course>
  <speed>0.0</speed>
  <fix>3d</fix>
</trkpt>
<trkpt lat="40.0713749" lon="-105.229789">
  <ele>1583.0</ele>
  <time>2026-08-28T17:52:37Z</time>
  <course>0.0</course>
  <speed>0.0</speed>
  <fix>3d</fix>
</trkpt>
<trkpt lat="40.0713749" lon="-105.229789">
  <ele>1583.0</ele>
  <time>2026-08-28T17:52:37Z</time>
  <course>248.32</course>
  <speed>0.0</speed>
  <fix>3d</fix>
</trkpt>
<trkpt lat="40.0713749" lon="-105.229789">
  <ele>1583.0</ele>
  <time>2026-08-28T17:52:37Z</time>
  <course>0.0</course>
  <speed>0.0</speed>
  <fix>3d</fix>
</trkpt>
<trkpt lat="40.0713749" lon="-105.229789">
  <ele>1583.0</ele>
  <time>2026-08-28T17:52:37Z</time>
  <course>248.33</course>
  <speed>0.0</speed>
  <fix>3d</fix>
</trkpt>
<trkpt lat="40.0713749" lon="-105.229789">
  <ele>1583.0</ele>
  <time>2026-08-28T17:52:37Z</time>
  <course>0.0</course>
  <speed>0.0</speed>
  <fix>3d</fix>
</trkpt>
<trkpt lat="40.0713749" lon="-105.229789">
  <ele>1583.0</ele>
  <time>2026-08-28T17:52:37Z</time>
  <course>248.34</course>
  <speed>0.0</speed>
  <fix>3d</fix>
</trkpt>
<trkpt lat="40.0713749" lon="-105.229789">
  <ele>1583.0</ele>
  <time>2026-08-28T17:52:37Z</time>
  <course>0.0</course>
  <speed>0.0</speed>
  <fix>3d</fix>
</trkpt>
<trkpt lat="40.0713749" lon="-105.229789">
  <ele>1583.0</ele>
  <time>2026-08-28T17:52:37Z</time>
  <course>248.35</course>
  <speed>0.0</speed>
  <fix>3d</fix>
</trkpt>
<trkpt lat="40.0713749" lon="-105.229789">
  <ele>1583.0</ele>
  <time>2026-08-28T17:52:37Z</time>
  <course>0.0</course>
  <speed>0.0</speed>
  <fix>3d</fix>
</trkpt>
<trkpt lat="40.0713749" lon="-105.229789">
  <ele>1583.0</ele>
  <time>2026-08-28T17:52:37Z</time>
  <course>248.35</course>
  <speed>0.0</speed>
  <fix>3d</fix>
</trkpt>
<trkpt lat="40.0713749" lon="-105.229789">
  <ele>1583.0</ele>
  <time>2026-08-28T17:52:37Z</time>
  <course>0.0</course>
  <speed>0.0</speed>
  <fix>3d</fix>
</trkpt>
<trkpt lat="40.0713749" lon="-105.229789">
  <ele>1583.0</ele>
  <time>2026-08-28T17:52:37Z</time>
  <course>248.36</course>
  <speed>0.0</speed>
  <fix>3d</fix>
</trkpt>
<trkpt lat="40.0713749" lon="-105.229789">
  <ele>1583.0</ele>
  <time>2026-08-28T17:52:37Z</time>
  <course>0.0</course>
  <speed>0.0</speed>
  <fix>3d</fix>
</trkpt>
<trkpt lat="40.0713749" lon="-105.229789">
  <ele>1583.0</ele>
  <time>2026-08-28T17:52:37Z</time>
  <course>248.37</course>
  <speed>0.0</speed>
  <fix>3d</fix>
</trkpt>
<trkpt lat="40.0713749" lon="-105.229789">
  <ele>1583.0</ele>
  <time>2026-08-28T17:52:37Z</time>
  <course>0.0</course>
  <speed>0.0</speed>
  <fix>3d</fix>
</trkpt>
<trkpt lat="40.0713749" lon="-105.229789">
  <ele>1583.0</ele>
  <time>2026-08-28T17:52:37Z</time>
  <course>248.37</course>
  <speed>0.0</speed>
  <fix>3d</fix>
</trkpt>
<trkpt lat="40.0713749" lon="-105.229789">
  <ele>1583.0</ele>
  <time>2026-08-28T17:52:37Z</time>
  <course>0.0</course>
  <speed>0.0</speed>
  <fix>3d</fix>
</trkpt>
<trkpt lat="40.0713749" lon="-105.229789">
  <ele>1583.0</ele>
  <time>2026-08-28T17:52:37Z</time>
  <course>248.38</course>
  <speed>0.0</speed>
  <fix>3d</fix>
</trkpt>
<trkpt lat="40.0713749" lon="-105.229789">
  <ele>1583.0</ele>
  <time>2026-08-28T17:52:37Z</time>
  <course>0.0</course>
  <speed>0.0</speed>
  <fix>3d</fix>
</trkpt>
<trkpt lat="40.0713749" lon="-105.229789">
  <ele>1583.0</ele>
  <time>2026-08-28T17:52:37Z</time>
  <course>248.38</course>
  <speed>0.0</speed>
  <fix>3d</fix>
</trkpt>
<trkpt lat="40.0713749" lon="-105.229789">
  <ele>1583.0</ele>
  <time>2026-08-28T17:52:37Z</time>
  <course>0.0</course>
  <speed>0.0</speed>
  <fix>3d</fix>
</trkpt>
<trkpt lat="40.0713749" lon="-105.229789">
  <ele>1583.0</ele>
  <time>2026-08-28T17:52:37Z</time>
  <course>248.39</course>
  <speed>0.0</speed>
  <fix>3d</fix>
</trkpt>
<trkpt lat="40.0713749" lon="-105.229789">
  <ele>1583.0</ele>
  <time>2026-08-28T17:52:37Z</time>
  <course>0.0</course>
  <speed>0.0</speed>
  <fix>3d</fix>
</trkpt>
<trkpt lat="40.0713749" lon="-105.229789">
  <ele>1583.0</ele>
  <time>2026-08-28T17:52:37Z</time>
  <course>248.39</course>
  <speed>0.0</speed>
  <fix>3d</fix>
</trkpt>
<trkpt lat="40.0713749" lon="-105.229789">
  <ele>1583.0</ele>
  <time>2026-08-28T17:52:37Z</time>
  <course>0.0</course>
  <speed>0.0</speed>
  <fix>3d</fix>
</trkpt>
<trkpt lat="40.0713749" lon="-105.229789">
  <ele>1583.0</ele>
  <time>2026-08-28T17:52:37Z</time>
  <course>248.4</course>
  <speed>0.0</speed>
  <fix>3d</fix>
</trkpt>
<trkpt lat="40.0713749" lon="-105.229789">
  <ele>1583.0</ele>
  <time>2026-08-28T17:52:37Z</time>
  <course>0.0</course>
  <speed>0.0</speed>
  <fix>3d</fix>
</trkpt>
<trkpt lat="40.0713749" lon="-105.229789">
  <ele>1583.0</ele>
  <time>2026-08-28T17:52:37Z</time>
  <course>248.4</course>
  <speed>0.0</speed>
  <fix>3d</fix>
</trkpt>
<trkpt lat="40.0713749" lon="-105.229789">
  <ele>1583.0</ele>
  <time>2026-08-28T17:52:37Z</time>
  <course>0.0</course>
  <speed>0.0</speed>
  <fix>3d</fix>
</trkpt>
<trkpt lat="40.0713749" lon="-105.229789">
  <ele>1583.0</ele>
  <time>2026-08-28T17:52:37Z</time>
  <course>248.4</course>
  <speed>0.0</speed>
  <fix>3d</fix>
</trkpt>
<trkpt lat="40.0713749" lon="-105.229789">
  <ele>1583.0</ele>
  <time>2026-08-28T17:52:37Z</time>
  <course>0.0</course>
  <speed>0.0</speed>
  <fix>3d</fix>
</trkpt>
<trkpt lat="40.0713749" lon="-105.229789">
  <ele>1583.0</ele>
  <time>2026-08-28T17:52:37Z</time>
  <course>248.4</course>
  <speed>0.0</speed>
  <fix>3d</fix>
</trkpt>
<trkpt lat="40.0713749" lon="-105.229789">
  <ele>1583.0</ele>
  <time>2026-08-28T17:52:37Z</time>
  <course>0.0</course>
  <speed>0.0</speed>
  <fix>3d</fix>
</trkpt>
<trkpt lat="40.0713749" lon="-105.229789">
  <ele>1583.0</ele>
  <time>2026-08-28T17:52:37Z</time>
  <course>248.41</course>
  <speed>0.0</speed>
  <fix>3d</fix>
</trkpt>
<trkpt lat="40.0713749" lon="-105.229789">
  <ele>1583.0</ele>
  <time>2026-08-28T17:52:37Z</time>
  <course>0.0</course>
  <speed>0.0</speed>
  <fix>3d</fix>
</trkpt>
<trkpt lat="40.0713749" lon="-105.229789">
  <ele>1583.0</ele>
  <time>2026-08-28T17:52:37Z</time>
  <course>248.41</course>
  <speed>0.0</speed>
  <fix>3d</fix>
</trkpt>
<trkpt lat="40.0713749" lon="-105.229789">
  <ele>1583.0</ele>
  <time>2026-08-28T17:52:37Z</time>
  <course>0.0</course>
  <speed>0.0</speed>
  <fix>3d</fix>
</trkpt>
<trkpt lat="40.0713749" lon="-105.229789">
  <ele>1583.0</ele>
  <time>2026-08-28T17:52:37Z</time>
  <course>248.41</course>
  <speed>0.0</speed>
  <fix>3d</fix>
</trkpt>
<trkpt lat="40.0713749" lon="-105.229789">
  <ele>1583.0</ele>
  <time>2026-08-28T17:52:37Z</time>
  <course>0.0</course>
  <speed>0.0</speed>
  <fix>3d</fix>
</trkpt>
<trkpt lat="40.0713749" lon="-105.229789">
  <ele>1583.0</ele>
  <time>2026-08-28T17:52:37Z</time>
  <course>248.41</course>
  <speed>0.0</speed>
  <fix>3d</fix>
</trkpt>
<trkpt lat="40.0713749" lon="-105.229789">
  <ele>1583.0</ele>
  <time>2026-08-28T17:52:37Z</time>
  <course>0.0</course>
  <speed>0.0</speed>
  <fix>3d</fix>
</trkpt>
<trkpt lat="40.0713749" lon="-105.229789">
  <ele>1583.0</ele>
  <time>2026-08-28T17:52:37Z</time>
  <course>248.41</course>
  <speed>0.0</speed>
  <fix>3d</fix>
</trkpt>
<trkpt lat="40.0713749" lon="-105.229789">
  <ele>1583.0</ele>
  <time>2026-08-28T17:52:37Z</time>
  <course>0.0</course>
  <speed>0.0</speed>
  <fix>3d</fix>
</trkpt>
<trkpt lat="40.0713749" lon="-105.229789">
  <ele>1583.0</ele>
  <time>2026-08-28T17:52:37Z</time>
  <course>248.41</course>
  <speed>0.0</speed>
  <fix>3d</fix>
</trkpt>
<trkpt lat="40.0713749" lon="-105.229789">
  <ele>1583.0</ele>
  <time>2026-08-28T17:52:37Z</time>
  <course>0.0</course>
  <speed>0.0</speed>
  <fix>3d</fix>
</trkpt>
<trkpt lat="40.0713749" lon="-105.229789">
  <ele>1583.0</ele>
  <time>2026-08-28T17:52:37Z</time>
  <course>248.41</course>
  <speed>0.0</speed>
  <fix>3d</fix>
</trkpt>
<trkpt lat="40.0713749" lon="-105.229789">
  <ele>1583.0</ele>
  <time>2026-08-28T17:52:37Z</time>
  <course>0.0</course>
  <speed>0.0</speed>
  <fix>3d</fix>
</trkpt>
<trkpt lat="40.0713749" lon="-105.229789">
  <ele>1583.0</ele>
  <time>2026-08-28T17:52:37Z</time>
  <course>248.41</course>
  <speed>0.0</speed>
  <fix>3d</fix>
</trkpt>
<trkpt lat="40.0713749" lon="-105.229789">
  <ele>1583.0</ele>
  <time>2026-08-28T17:52:37Z</time>
  <course>0.0</course>
  <speed>0.0</speed>
  <fix>3d</fix>
</trkpt>
<trkpt lat="40.0713749" lon="-105.229789">
  <ele>1583.0</ele>
  <time>2026-08-28T17:52:37Z</time>
  <course>248.41</course>
  <speed>0.0</speed>
  <fix>3d</fix>
</trkpt>
<trkpt lat="40.0713749" lon="-105.229789">
  <ele>1583.0</ele>
  <time>2026-08-28T17:52:37Z</time>
  <course>0.0</course>
  <speed>0.0</speed>
  <fix>3d</fix>
</trkpt>
<trkpt lat="40.0713749" lon="-105.229789">
  <ele>1583.0</ele>
  <time>2026-08-28T17:52:37Z</time>
  <course>248.41</course>
  <speed>0.0</speed>
  <fix>3d</fix>
</trkpt>
<trkpt lat="40.0713749" lon="-105.229789">
  <ele>1583.0</ele>
  <time>2026-08-28T17:52:37Z</time>
  <course>0.0</course>
  <speed>0.0</speed>
  <fix>3d</fix>
</trkpt>
<trkpt lat="40.0713749" lon="-105.229789">
  <ele>1583.0</ele>
  <time>2026-08-28T17:52:37Z</time>
  <course>248.41</course>
  <speed>0.0</speed>
  <fix>3d</fix>
</trkpt>
<trkpt lat="40.0713749" lon="-105.229789">
  <ele>1583.0</ele>
  <time>2026-08-28T17:52:37Z</time>
  <course>0.0</course>
  <speed>0.0</speed>
  <fix>3d</fix>
</trkpt>
<trkpt lat="40.0713749" lon="-105.229789">
  <ele>1583.0</ele>
  <time>2026-08-28T17:52:37Z</time>
  <course>248.41</course>
  <speed>0.0</speed>
  <fix>3d</fix>
</trkpt>
<trkpt lat="40.0713749" lon="-105.229789">
  <ele>1583.0</ele>
  <time>2026-08-28T17:52:37Z</time>
  <course>0.0</course>
  <speed>0.0</speed>
  <fix>3d</fix>
</trkpt>
<trkpt lat="40.0713749" lon="-105.229789">
  <ele>1583.0</ele>
  <time>2026-08-28T17:52:37Z</time>
  <course>248.41</course>
  <speed>0.0</speed>
  <fix>3d</fix>
</trkpt>
<trkpt lat="40.0713749" lon="-105.229789">
  <ele>1583.0</ele>
  <time>2026-08-28T17:52:37Z</time>
  <course>0.0</course>
  <speed>0.0</speed>
  <fix>3d</fix>
</trkpt>
<trkpt lat="40.0713749" lon="-105.229789">
  <ele>1583.0</ele>
  <time>2026-08-28T17:52:37Z</time>
  <course>248.41</course>
  <speed>0.0</speed>
  <fix>3d</fix>
</trkpt>
<trkpt lat="40.0713749" lon="-105.229789">
  <ele>1583.0</ele>
  <time>2026-08-28T17:52:37Z</time>
  <course>0.0</course>
  <speed>0.0</speed>
  <fix>3d</fix>
</trkpt>
<trkpt lat="40.0713749" lon="-105.229789">
  <ele>1583.0</ele>
  <time>2026-08-28T17:52:37Z</time>
  <course>248.41</course>
  <speed>0.0</speed>
  <fix>3d</fix>
</trkpt>
<trkpt lat="40.0713749" lon="-105.229789">
  <ele>1583.0</ele>
  <time>2026-08-28T17:52:37Z</time>
  <course>0.0</course>
  <speed>0.0</speed>
  <fix>3d</fix>
</trkpt>
<trkpt lat="40.0713749" lon="-105.229789">
  <ele>1583.0</ele>
  <time>2026-08-28T17:52:37Z</time>
  <course>248.41</course>
  <speed>0.0</speed>
  <fix>3d</fix>
</trkpt>
<trkpt lat="40.0713749" lon="-105.229789">
  <ele>1583.0</ele>
  <time>2026-08-28T17:52:37Z</time>
  <course>0.0</course>
  <speed>0.0</speed>
  <fix>3d</fix>
</trkpt>
<trkpt lat="40.0713749" lon="-105.229789">
  <ele>1583.0</ele>
  <time>2026-08-28T17:52:37Z</time>
  <course>248.4</course>
  <speed>0.0</speed>
  <fix>3d</fix>
</trkpt>
<trkpt lat="40.0713749" lon="-105.229789">
  <ele>1583.0</ele>
  <time>2026-08-28T17:52:37Z</time>
  <course>0.0</course>
  <speed>0.0</speed>
  <fix>3d</fix>
</trkpt>
<trkpt lat="40.0713749" lon="-105.229789">
  <ele>1583.0</ele>
  <time>2026-08-28T17:52:37Z</time>
  <course>248.4</course>
  <speed>0.01</speed>
  <fix>3d</fix>
</trkpt>
<trkpt lat="40.0713749" lon="-105.229789">
  <ele>1583.0</ele>
  <time>2026-08-28T17:52:37Z</time>
  <course>0.0</course>
  <speed>0.0</speed>
  <fix>3d</fix>
</trkpt>
<trkpt lat="40.0713749" lon="-105.229789">
  <ele>1583.0</ele>
  <time>2026-08-28T17:52:37Z</time>
  <course>248.4</course>
  <speed>0.01</speed>
  <fix>3d</fix>
</trkpt>
<trkpt lat="40.0713749" lon="-105.229789">
  <ele>1583.0</ele>
  <time>2026-08-28T17:52:37Z</time>
  <course>0.0</course>
  <speed>0.0</speed>
  <fix>3d</fix>
</trkpt>
<trkpt lat="40.0713749" lon="-105.229789">
  <ele>1583.0</ele>
  <time>2026-08-28T17:52:37Z</time>
  <course>248.4</course>
  <speed>0.01</speed>
  <fix>3d</fix>
</trkpt>
<trkpt lat="40.0713749" lon="-105.229789">
  <ele>1583.0</ele>
  <time>2026-08-28T17:52:37Z</time>
  <course>0.0</course>
  <speed>0.0</speed>
  <fix>3d</fix>
</trkpt>
<trkpt lat="40.0713749" lon="-105.229789">
  <ele>1583.0</ele>
  <time>2026-08-28T17:52:37Z</time>
  <course>248.4</course>
  <speed>0.01</speed>
  <fix>3d</fix>
</trkpt>
<trkpt lat="40.0713749" lon="-105.229789">
  <ele>1583.0</ele>
  <time>2026-08-28T17:52:37Z</time>
  <course>0.0</course>
  <speed>0.0</speed>
  <fix>3d</fix>
</trkpt>
<trkpt lat="40.0713749" lon="-105.229789">
  <ele>1583.0</ele>
  <time>2026-08-28T17:52:37Z</time>
  <course>248.39</course>
  <speed>0.01</speed>
  <fix>3d</fix>
</trkpt>
<trkpt lat="40.0713749" lon="-105.229789">
  <ele>1583.0</ele>
  <time>2026-08-28T17:52:37Z</time>
  <course>0.0</course>
  <speed>0.0</speed>
  <fix>3d</fix>
</trkpt>
<trkpt lat="40.0713749" lon="-105.229789">
  <ele>1583.0</ele>
  <time>2026-08-28T17:52:37Z</time>
  <course>248.39</course>
  <speed>0.01</speed>
  <fix>3d</fix>
</trkpt>
<trkpt lat="40.0713749" lon="-105.229789">
  <ele>1583.0</ele>
  <time>2026-08-28T17:52:37Z</time>
  <course>0.0</course>
  <speed>0.0</speed>
  <fix>3d</fix>
</trkpt>
<trkpt lat="40.0713749" lon="-105.229789">
  <ele>1583.0</ele>
  <time>2026-08-28T17:52:37Z</time>
  <course>248.39</course>
  <speed>0.01</speed>
  <fix>3d</fix>
</trkpt>
<trkpt lat="40.0713749" lon="-105.229789">
  <ele>1583.0</ele>
  <time>2026-08-28T17:52:37Z</time>
  <course>0.0</course>
  <speed>0.0</speed>
  <fix>3d</fix>
</trkpt>
<trkpt lat="40.0713749" lon="-105.229789">
  <ele>1583.0</ele>
  <time>2026-08-28T17:52:37Z</time>
  <course>248.38</course>
  <speed>0.01</speed>
  <fix>3d</fix>
</trkpt>
<trkpt lat="40.0713749" lon="-105.229789">
  <ele>1583.0</ele>
  <time>2026-08-28T17:52:37Z</time>
  <course>0.0</course>
  <speed>0.0</speed>
  <fix>3d</fix>
</trkpt>
<trkpt lat="40.0713749" lon="-105.229789">
  <ele>1583.0</ele>
  <time>2026-08-28T17:52:37Z</time>
  <course>248.38</course>
  <speed>0.01</speed>
  <fix>3d</fix>
</trkpt>
<trkpt lat="40.0713749" lon="-105.229789">
  <ele>1583.0</ele>
  <time>2026-08-28T17:52:37Z</time>
  <course>0.0</course>
  <speed>0.0</speed>
  <fix>3d</fix>
</trkpt>
<trkpt lat="40.0713749" lon="-105.229789">
  <ele>1583.0</ele>
  <time>2026-08-28T17:52:37Z</time>
  <course>248.38</course>
  <speed>0.01</speed>
  <fix>3d</fix>
</trkpt>
<trkpt lat="40.0713749" lon="-105.229789">
  <ele>1583.0</ele>
  <time>2026-08-28T17:52:37Z</time>
  <course>0.0</course>
  <speed>0.0</speed>
  <fix>3d</fix>
</trkpt>
<trkpt lat="40.0713749" lon="-105.229789">
  <ele>1583.0</ele>
  <time>2026-08-28T17:52:37Z</time>
  <course>248.37</course>
  <speed>0.01</speed>
  <fix>3d</fix>
</trkpt>
<trkpt lat="40.0713749" lon="-105.229789">
  <ele>1583.0</ele>
  <time>2026-08-28T17:52:37Z</time>
  <course>0.0</course>
  <speed>0.0</speed>
  <fix>3d</fix>
</trkpt>
<trkpt lat="40.0713749" lon="-105.229789">
  <ele>1583.0</ele>
  <time>2026-08-28T17:52:37Z</time>
  <course>248.37</course>
  <speed>0.01</speed>
  <fix>3d</fix>
</trkpt>
<trkpt lat="40.0713749" lon="-105.229789">
  <ele>1583.0</ele>
  <time>2026-08-28T17:52:37Z</time>
  <course>0.0</course>
  <speed>0.0</speed>
  <fix>3d</fix>
</trkpt>
<trkpt lat="40.0713749" lon="-105.229789">
  <ele>1583.0</ele>
  <time>2026-08-28T17:52:37Z</time>
  <course>248.37</course>
  <speed>0.01</speed>
  <fix>3d</fix>
</trkpt>
<trkpt lat="40.0713749" lon="-105.229789">
  <ele>1583.0</ele>
  <time>2026-08-28T17:52:37Z</time>
  <course>0.0</course>
  <speed>0.0</speed>
  <fix>3d</fix>
</trkpt>
<trkpt lat="40.0713749" lon="-105.229789">
  <ele>1583.0</ele>
  <time>2026-08-28T17:52:37Z</time>
  <course>248.36</course>
  <speed>0.01</speed>
  <fix>3d</fix>
</trkpt>
<trkpt lat="40.0713749" lon="-105.229789">
  <ele>1583.0</ele>
  <time>2026-08-28T17:52:37Z</time>
  <course>0.0</course>
  <speed>0.0</speed>
  <fix>3d</fix>
</trkpt>
<trkpt lat="40.0713749" lon="-105.229789">
  <ele>1583.0</ele>
  <time>2026-08-28T17:52:37Z</time>
  <course>248.36</course>
  <speed>0.01</speed>
  <fix>3d</fix>
</trkpt>
<trkpt lat="40.0713749" lon="-105.229789">
  <ele>1583.0</ele>
  <time>2026-08-28T17:52:37Z</time>
  <course>0.0</course>
  <speed>0.0</speed>
  <fix>3d</fix>
</trkpt>
<trkpt lat="40.0713749" lon="-105.229789">
  <ele>1583.0</ele>
  <time>2026-08-28T17:52:37Z</time>
  <course>248.36</course>
  <speed>0.01</speed>
  <fix>3d</fix>
</trkpt>
<trkpt lat="40.0713749" lon="-105.229789">
  <ele>1583.0</ele>
  <time>2026-08-28T17:52:37Z</time>
  <course>0.0</course>
  <speed>0.0</speed>
  <fix>3d</fix>
</trkpt>
<trkpt lat="40.0713749" lon="-105.229789">
  <ele>1583.0</ele>
  <time>2026-08-28T17:52:37Z</time>
  <course>248.35</course>
  <speed>0.01</speed>
  <fix>3d</fix>
</trkpt>
<trkpt lat="40.0713749" lon="-105.229789">
  <ele>1583.0</ele>
  <time>2026-08-28T17:52:37Z</time>
  <course>0.0</course>
  <speed>0.0</speed>
  <fix>3d</fix>
</trkpt>
<trkpt lat="40.0713749" lon="-105.229789">
  <ele>1583.0</ele>
  <time>2026-08-28T17:52:37Z</time>
  <course>248.35</course>
  <speed>0.01</speed>
  <fix>3d</fix>
</trkpt>
<trkpt lat="40.0713749" lon="-105.229789">
  <ele>1583.0</ele>
  <time>2026-08-28T17:52:37Z</time>
  <course>0.0</course>
  <speed>0.0</speed>
  <fix>3d</fix>
</trkpt>
<trkpt lat="40.0713749" lon="-105.229789">
  <ele>1583.0</ele>
  <time>2026-08-28T17:52:37Z</time>
  <course>248.35</course>
  <speed>0.01</speed>
  <fix>3d</fix>
</trkpt>
<trkpt lat="40.0713749" lon="-105.229789">
  <ele>1583.0</ele>
  <time>2026-08-28T17:52:37Z</time>
  <course>0.0</course>
  <speed>0.0</speed>
  <fix>3d</fix>
</trkpt>
<trkpt lat="40.0713749" lon="-105.229789">
  <ele>1583.0</ele>
  <time>2026-08-28T17:52:37Z</time>
  <course>248.34</course>
  <speed>0.01</speed>
  <fix>3d</fix>
</trkpt>
<trkpt lat="40.0713749" lon="-105.229789">
  <ele>1583.0</ele>
  <time>2026-08-28T17:52:37Z</time>
  <course>0.0</course>
  <speed>0.0</speed>
  <fix>3d</fix>
</trkpt>
<trkpt lat="40.0713749" lon="-105.229789">
  <ele>1583.0</ele>
  <time>2026-08-28T17:52:37Z</time>
  <course>248.34</course>
  <speed>0.01</speed>
  <fix>3d</fix>
</trkpt>
<trkpt lat="40.0713749" lon="-105.229789">
  <ele>1583.0</ele>
  <time>2026-08-28T17:52:37Z</time>
  <course>0.0</course>
  <speed>0.0</speed>
  <fix>3d</fix>
</trkpt>
<trkpt lat="40.0713749" lon="-105.229789">
  <ele>1583.0</ele>
  <time>2026-08-28T17:52:37Z</time>
  <course>248.33</course>
  <speed>0.01</speed>
  <fix>3d</fix>
</trkpt>
<trkpt lat="40.0713749" lon="-105.229789">
  <ele>1583.0</ele>
  <time>2026-08-28T17:52:37Z</time>
  <course>0.0</course>
  <speed>0.0</speed>
  <fix>3d</fix>
</trkpt>
<trkpt lat="40.0713749" lon="-105.229789">
  <ele>1583.0</ele>
  <time>2026-08-28T17:52:37Z</time>
  <course>248.33</course>
  <speed>0.01</speed>
  <fix>3d</fix>
</trkpt>
<trkpt lat="40.0713749" lon="-105.229789">
  <ele>1583.0</ele>
  <time>2026-08-28T17:52:37Z</time>
  <course>0.0</course>
  <speed>0.0</speed>
  <fix>3d</fix>
</trkpt>
<trkpt lat="40.0713749" lon="-105.229789">
  <ele>1583.0</ele>
  <time>2026-08-28T17:52:37Z</time>
  <course>248.32</course>
  <speed>0.01</speed>
  <fix>3d</fix>
</trkpt>
<trkpt lat="40.0713749" lon="-105.229789">
  <ele>1583.0</ele>
  <time>2026-08-28T17:52:37Z</time>
  <course>0.0</course>
  <speed>0.0</speed>
  <fix>3d</fix>
</trkpt>
<trkpt lat="40.0713749" lon="-105.229789">
  <ele>1583.0</ele>
  <time>2026-08-28T17:52:37Z</time>
  <course>248.32</course>
  <speed>0.01</speed>
  <fix>3d</fix>
</trkpt>
<trkpt lat="40.0713749" lon="-105.229789">
  <ele>1583.0</ele>
  <time>2026-08-28T17:52:37Z</time>
  <course>0.0</course>
  <speed>0.0</speed>
  <fix>3d</fix>
</trkpt>
<trkpt lat="40.0713749" lon="-105.229789">
  <ele>1583.0</ele>
  <time>2026-08-28T17:52:37Z</time>
  <course>248.32</course>
  <speed>0.01</speed>
  <fix>3d</fix>
</trkpt>
<trkpt lat="40.0713749" lon="-105.229789">
  <ele>1583.0</ele>
  <time>2026-08-28T17:52:37Z</time>
  <course>0.0</course>
  <speed>0.0</speed>
  <fix>3d</fix>
</trkpt>
<trkpt lat="40.0713749" lon="-105.229789">
  <ele>1583.0</ele>
  <time>2026-08-28T17:52:37Z</time>
  <course>248.31</course>
  <speed>0.01</speed>
  <fix>3d</fix>
</trkpt>
<trkpt lat="40.0713749" lon="-105.229789">
  <ele>1583.0</ele>
  <time>2026-08-28T17:52:37Z</time>
  <course>0.0</course>
  <speed>0.0</speed>
  <fix>3d</fix>
</trkpt>
<trkpt lat="40.0713749" lon="-105.229789">
  <ele>1583.0</ele>
  <time>2026-08-28T17:52:37Z</time>
  <course>248.31</course>
  <speed>0.01</speed>
  <fix>3d</fix>
</trkpt>
<trkpt lat="40.0713749" lon="-105.229789">
  <ele>1583.0</ele>
  <time>2026-08-28T17:52:37Z</time>
  <course>0.0</course>
  <speed>0.0</speed>
  <fix>3d</fix>
</trkpt>
<trkpt lat="40.0713749" lon="-105.229789">
  <ele>1583.0</ele>
  <time>2026-08-28T17:52:37Z</time>
  <course>248.3</course>
  <speed>0.01</speed>
  <fix>3d</fix>
</trkpt>
<trkpt lat="40.0713749" lon="-105.229789">
  <ele>1583.0</ele>
  <time>2026-08-28T17:52:37Z</time>
  <course>0.0</course>
  <speed>0.0</speed>
  <fix>3d</fix>
</trkpt>
<trkpt lat="40.0713749" lon="-105.229789">
  <ele>1583.0</ele>
  <time>2026-08-28T17:52:37Z</time>
  <course>248.3</course>
  <speed>0.01</speed>
  <fix>3d</fix>
</trkpt>
<trkpt lat="40.0713749" lon="-105.229789">
  <ele>1583.0</ele>
  <time>2026-08-28T17:52:37Z</time>
  <course>0.0</course>
  <speed>0.0</speed>
  <fix>3d</fix>
</trkpt>
<trkpt lat="40.0713749" lon="-105.229789">
  <ele>1583.0</ele>
  <time>2026-08-28T17:52:37Z</time>
  <course>248.29</course>
  <speed>0.01</speed>
  <fix>3d</fix>
</trkpt>
<trkpt lat="40.0713749" lon="-105.229789">
  <ele>1583.0</ele>
  <time>2026-08-28T17:52:37Z</time>
  <course>0.0</course>
  <speed>0.0</speed>
  <fix>3d</fix>
</trkpt>
<trkpt lat="40.0713749" lon="-105.229789">
  <ele>1583.0</ele>
  <time>2026-08-28T17:52:37Z</time>
  <course>248.29</course>
  <speed>0.01</speed>
  <fix>3d</fix>
</trkpt>
<trkpt lat="40.0713749" lon="-105.229789">
  <ele>1583.0</ele>
  <time>2026-08-28T17:52:37Z</time>
  <course>0.0</course>
  <speed>0.0</speed>
  <fix>3d</fix>
</trkpt>
<trkpt lat="40.0713749" lon="-105.229789">
  <ele>1583.0</ele>
  <time>2026-08-28T17:52:37Z</time>
  <course>248.28</course>
  <speed>0.01</speed>
  <fix>3d</fix>
</trkpt>
<trkpt lat="40.0713749" lon="-105.229789">
  <ele>1583.0</ele>
  <time>2026-08-28T17:52:37Z</time>
  <course>0.0</course>
  <speed>0.0</speed>
  <fix>3d</fix>
</trkpt>
<trkpt lat="40.0713749" lon="-105.229789">
  <ele>1583.0</ele>
  <time>2026-08-28T17:52:37Z</time>
  <course>248.28</course>
  <speed>0.01</speed>
  <fix>3d</fix>
</trkpt>
<trkpt lat="40.0713749" lon="-105.229789">
  <ele>1583.0</ele>
  <time>2026-08-28T17:52:37Z</time>
  <course>0.0</course>
  <speed>0.0</speed>
  <fix>3d</fix>
</trkpt>
<trkpt lat="40.0713749" lon="-105.229789">
  <ele>1583.0</ele>
  <time>2026-08-28T17:52:37Z</time>
  <course>248.27</course>
  <speed>0.01</speed>
  <fix>3d</fix>
</trkpt>
<trkpt lat="40.0713749" lon="-105.229789">
  <ele>1583.0</ele>
  <time>2026-08-28T17:52:37Z</time>
  <course>0.0</course>
  <speed>0.0</speed>
  <fix>3d</fix>
</trkpt>
<trkpt lat="40.0713749" lon="-105.229789">
  <ele>1583.0</ele>
  <time>2026-08-28T17:52:37Z</time>
  <course>248.27</course>
  <speed>0.01</speed>
  <fix>3d</fix>
</trkpt>
<trkpt lat="40.0713749" lon="-105.229789">
  <ele>1583.0</ele>
  <time>2026-08-28T17:52:37Z</time>
  <course>0.0</course>
  <speed>0.0</speed>
  <fix>3d</fix>
</trkpt>
<trkpt lat="40.0713749" lon="-105.229789">
  <ele>1583.0</ele>
  <time>2026-08-28T17:52:37Z</time>
  <course>248.26</course>
  <speed>0.01</speed>
  <fix>3d</fix>
</trkpt>
<trkpt lat="40.0713749" lon="-105.229789">
  <ele>1583.0</ele>
  <time>2026-08-28T17:52:37Z</time>
  <course>0.0</course>
  <speed>0.0</speed>
  <fix>3d</fix>
</trkpt>
<trkpt lat="40.0713749" lon="-105.229789">
  <ele>1583.0</ele>
  <time>2026-08-28T17:52:37Z</time>
  <course>248.26</course>
  <speed>0.01</speed>
  <fix>3d</fix>
</trkpt>
<trkpt lat="40.0713749" lon="-105.229789">
  <ele>1583.0</ele>
  <time>2026-08-28T17:52:37Z</time>
  <course>0.0</course>
  <speed>0.0</speed>
  <fix>3d</fix>
</trkpt>
<trkpt lat="40.0713749" lon="-105.229789">
  <ele>1583.0</ele>
  <time>2026-08-28T17:52:37Z</time>
  <course>248.26</course>
  <speed>0.01</speed>
  <fix>3d</fix>
</trkpt>
<trkpt lat="40.0713749" lon="-105.229789">
  <ele>1583.0</ele>
  <time>2026-08-28T17:52:37Z</time>
  <course>0.0</course>
  <speed>0.0</speed>
  <fix>3d</fix>
</trkpt>
<trkpt lat="40.0713749" lon="-105.229789">
  <ele>1583.0</ele>
  <time>2026-08-28T17:52:37Z</time>
  <course>248.25</course>
  <speed>0.01</speed>
  <fix>3d</fix>
</trkpt>
<trkpt lat="40.0713749" lon="-105.229789">
  <ele>1583.0</ele>
  <time>2026-08-28T17:52:37Z</time>
  <course>0.0</course>
  <speed>0.0</speed>
  <fix>3d</fix>
</trkpt>
<trkpt lat="40.0713749" lon="-105.229789">
  <ele>1583.0</ele>
  <time>2026-08-28T17:52:37Z</time>
  <course>248.25</course>
  <speed>0.01</speed>
  <fix>3d</fix>
</trkpt>
<trkpt lat="40.0713749" lon="-105.229789">
  <ele>1583.0</ele>
  <time>2026-08-28T17:52:37Z</time>
  <course>0.0</course>
  <speed>0.0</speed>
  <fix>3d</fix>
</trkpt>
<trkpt lat="40.0713749" lon="-105.229789">
  <ele>1583.0</ele>
  <time>2026-08-28T17:52:37Z</time>
  <course>248.24</course>
  <speed>0.01</speed>
  <fix>3d</fix>
</trkpt>
<trkpt lat="40.0713749" lon="-105.229789">
  <ele>1583.0</ele>
  <time>2026-08-28T17:52:37Z</time>
  <course>0.0</course>
  <speed>0.0</speed>
  <fix>3d</fix>
</trkpt>
<trkpt lat="40.0713749" lon="-105.229789">
  <ele>1583.0</ele>
  <time>2026-08-28T17:52:37Z</time>
  <course>248.24</course>
  <speed>0.01</speed>
  <fix>3d</fix>
</trkpt>
<trkpt lat="40.0713749" lon="-105.229789">
  <ele>1583.0</ele>
  <time>2026-08-28T17:52:37Z</time>
  <course>0.0</course>
  <speed>0.0</speed>
  <fix>3d</fix>
</trkpt>
<trkpt lat="40.0713749" lon="-105.229789">
  <ele>1583.0</ele>
  <time>2026-08-28T17:52:37Z</time>
  <course>248.23</course>
  <speed>0.01</speed>
  <fix>3d</fix>
</trkpt>
<trkpt lat="40.0713749" lon="-105.229789">
  <ele>1583.0</ele>
  <time>2026-08-28T17:52:37Z</time>
  <course>0.0</course>
  <speed>0.0</speed>
  <fix>3d</fix>
</trkpt>
<trkpt lat="40.0713749" lon="-105.229789">
  <ele>1583.0</ele>
  <time>2026-08-28T17:52:37Z</time>
  <course>248.23</course>
  <speed>0.01</speed>
  <fix>3d</fix>
</trkpt>
<trkpt lat="40.0713749" lon="-105.229789">
  <ele>1583.0</ele>
  <time>2026-08-28T17:52:37Z</time>
  <course>0.0</course>
  <speed>0.0</speed>
  <fix>3d</fix>
</trkpt>
<trkpt lat="40.0713749" lon="-105.229789">
  <ele>1583.0</ele>
  <time>2026-08-28T17:52:37Z</time>
  <course>248.22</course>
  <speed>0.01</speed>
  <fix>3d</fix>
</trkpt>
<trkpt lat="40.0713749" lon="-105.229789">
  <ele>1583.0</ele>
  <time>2026-08-28T17:52:37Z</time>
  <course>0.0</course>
  <speed>0.0</speed>
  <fix>3d</fix>
</trkpt>
<trkpt lat="40.0713749" lon="-105.229789">
  <ele>1583.0</ele>
  <time>2026-08-28T17:52:37Z</time>
  <course>248.22</course>
  <speed>0.01</speed>
  <fix>3d</fix>
</trkpt>
<trkpt lat="40.0713749" lon="-105.229789">
  <ele>1583.0</ele>
  <time>2026-08-28T17:52:37Z</time>
  <course>0.0</course>
  <speed>0.0</speed>
  <fix>3d</fix>
</trkpt>
<trkpt lat="40.0713749" lon="-105.229789">
  <ele>1583.0</ele>
  <time>2026-08-28T17:52:37Z</time>
  <course>248.21</course>
  <speed>0.01</speed>
  <fix>3d</fix>
</trkpt>
<trkpt lat="40.0713749" lon="-105.229789">
  <ele>1583.0</ele>
  <time>2026-08-28T17:52:37Z</time>
  <course>0.0</course>
  <speed>0.0</speed>
  <fix>3d</fix>
</trkpt>
<trkpt lat="40.0713749" lon="-105.229789">
  <ele>1583.0</ele>
  <time>2026-08-28T17:52:37Z</time>
  <course>248.21</course>
  <speed>0.01</speed>
  <fix>3d</fix>
</trkpt>
<trkpt lat="40.0713749" lon="-105.229789">
  <ele>1583.0</ele>
  <time>2026-08-28T17:52:37Z</time>
  <course>0.0</course>
  <speed>0.0</speed>
  <fix>3d</fix>
</trkpt>
<trkpt lat="40.0713749" lon="-105.229789">
  <ele>1583.0</ele>
  <time>2026-08-28T17:52:37Z</time>
  <course>248.2</course>
  <speed>0.01</speed>
  <fix>3d</fix>
</trkpt>
<trkpt lat="40.0713749" lon="-105.229789">
  <ele>1583.0</ele>
  <time>2026-08-28T17:52:37Z</time>
  <course>0.0</course>
  <speed>0.0</speed>
  <fix>3d</fix>
</trkpt>
<trkpt lat="40.0713749" lon="-105.229789">
  <ele>1583.0</ele>
  <time>2026-08-28T17:52:37Z</time>
  <course>248.2</course>
  <speed>0.01</speed>
  <fix>3d</fix>
</trkpt>
<trkpt lat="40.0713749" lon="-105.229789">
  <ele>1583.0</ele>
  <time>2026-08-28T17:52:37Z</time>
  <course>0.0</course>
  <speed>0.0</speed>
  <fix>3d</fix>
</trkpt>
<trkpt lat="40.0713749" lon="-105.229789">
  <ele>1583.0</ele>
  <time>2026-08-28T17:52:37Z</time>
  <course>248.19</course>
  <speed>0.01</speed>
  <fix>3d</fix>
</trkpt>
<trkpt lat="40.0713749" lon="-105.229789">
  <ele>1583.0</ele>
  <time>2026-08-28T17:52:37Z</time>
  <course>0.0</course>
  <speed>0.0</speed>
  <fix>3d</fix>
</trkpt>
<trkpt lat="40.0713749" lon="-105.229789">
  <ele>1583.0</ele>
  <time>2026-08-28T17:52:37Z</time>
  <course>248.19</course>
  <speed>0.01</speed>
  <fix>3d</fix>
</trkpt>
<trkpt lat="40.0713749" lon="-105.229789">
  <ele>1583.0</ele>
  <time>2026-08-28T17:52:37Z</time>
  <course>0.0</course>
  <speed>0.0</speed>
  <fix>3d</fix>
</trkpt>
<trkpt lat="40.0713749" lon="-105.229789">
  <ele>1583.0</ele>
  <time>2026-08-28T17:52:37Z</time>
  <course>248.18</course>
  <speed>0.01</speed>
  <fix>3d</fix>
</trkpt>
<trkpt lat="40.0713749" lon="-105.229789">
  <ele>1583.0</ele>
  <time>2026-08-28T17:52:37Z</time>
  <course>0.0</course>
  <speed>0.0</speed>
  <fix>3d</fix>
</trkpt>
<trkpt lat="40.0713749" lon="-105.229789">
  <ele>1583.0</ele>
  <time>2026-08-28T17:52:37Z</time>
  <course>248.18</course>
  <speed>0.01</speed>
  <fix>3d</fix>
</trkpt>
<trkpt lat="40.0713749" lon="-105.229789">
  <ele>1583.0</ele>
  <time>2026-08-28T17:52:37Z</time>
  <course>0.0</course>
  <speed>0.0</speed>
  <fix>3d</fix>
</trkpt>
<trkpt lat="40.0713749" lon="-105.229789">
  <ele>1583.0</ele>
  <time>2026-08-28T17:52:37Z</time>
  <course>248.17</course>
  <speed>0.022360679774997897</speed>
  <fix>3d</fix>
</trkpt>
<trkpt lat="40.0713749" lon="-105.229789">
  <ele>1583.0</ele>
  <time>2026-08-28T17:52:37Z</time>
  <course>0.0</course>
  <speed>0.0</speed>
  <fix>3d</fix>
</trkpt>
<trkpt lat="40.0713749" lon="-105.229789">
  <ele>1583.0</ele>
  <time>2026-08-28T17:52:37Z</time>
  <course>248.17</course>
  <speed>0.022360679774997897</speed>
  <fix>3d</fix>
</trkpt>
<trkpt lat="40.0713749" lon="-105.229789">
  <ele>1583.0</ele>
  <time>2026-08-28T17:52:37Z</time>
  <course>0.0</course>
  <speed>0.0</speed>
  <fix>3d</fix>
</trkpt>
<trkpt lat="40.0713749" lon="-105.229789">
  <ele>1583.0</ele>
  <time>2026-08-28T17:52:37Z</time>
  <course>248.16</course>
  <speed>0.022360679774997897</speed>
  <fix>3d</fix>
</trkpt>
<trkpt lat="40.0713749" lon="-105.229789">
  <ele>1583.0</ele>
  <time>2026-08-28T17:52:37Z</time>
  <course>0.0</course>
  <speed>0.0</speed>
  <fix>3d</fix>
</trkpt>
<trkpt lat="40.0713749" lon="-105.229789">
  <ele>1583.0</ele>
  <time>2026-08-28T17:52:37Z</time>
  <course>248.16</course>
  <speed>0.022360679774997897</speed>
  <fix>3d</fix>
</trkpt>
<trkpt lat="40.0713749" lon="-105.229789">
  <ele>1583.0</ele>
  <time>2026-08-28T17:52:37Z</time>
  <course>0.0</course>
  <speed>0.0</speed>
  <fix>3d</fix>
</trkpt>
<trkpt lat="40.0713749" lon="-105.229789">
  <ele>1583.0</ele>
  <time>2026-08-28T17:52:37Z</time>
  <course>248.15</course>
  <speed>0.022360679774997897</speed>
  <fix>3d</fix>
</trkpt>
<trkpt lat="40.0713749" lon="-105.229789">
  <ele>1583.0</ele>
  <time>2026-08-28T17:52:37Z</time>
  <course>0.0</course>
  <speed>0.0</speed>
  <fix>3d</fix>
</trkpt>
<trkpt lat="40.0713749" lon="-105.229789">
  <ele>1583.0</ele>
  <time>2026-08-28T17:52:37Z</time>
  <course>248.15</course>
  <speed>0.022360679774997897</speed>
  <fix>3d</fix>
</trkpt>
<trkpt lat="40.0713749" lon="-105.229789">
  <ele>1583.0</ele>
  <time>2026-08-28T17:52:37Z</time>
  <course>0.0</course>
  <speed>0.0</speed>
  <fix>3d</fix>
</trkpt>
<trkpt lat="40.0713749" lon="-105.229789">
  <ele>1583.0</ele>
  <time>2026-08-28T17:52:37Z</time>
  <course>248.14</course>
  <speed>0.022360679774997897</speed>
  <fix>3d</fix>
</trkpt>
<trkpt lat="40.0713749" lon="-105.229789">
  <ele>1583.0</ele>
  <time>2026-08-28T17:52:37Z</time>
  <course>0.0</course>
  <speed>0.0</speed>
  <fix>3d</fix>
</trkpt>
<trkpt lat="40.0713749" lon="-105.229789">
  <ele>1583.0</ele>
  <time>2026-08-28T17:52:37Z</time>
  <course>248.14</course>
  <speed>0.022360679774997897</speed>
  <fix>3d</fix>
</trkpt>
<trkpt lat="40.0713749" lon="-105.229789">
  <ele>1583.0</ele>
  <time>2026-08-28T17:52:37Z</time>
  <course>0.0</course>
  <speed>0.0</speed>
  <fix>3d</fix>
</trkpt>
<trkpt lat="40.0713749" lon="-105.229789">
  <ele>1583.0</ele>
  <time>2026-08-28T17:52:37Z</time>
  <course>248.13</course>
  <speed>0.022360679774997897</speed>
  <fix>3d</fix>
</trkpt>
<trkpt lat="40.0713749" lon="-105.229789">
  <ele>1583.0</ele>
  <time>2026-08-28T17:52:37Z</time>
  <course>0.0</course>
  <speed>0.0</speed>
  <fix>3d</fix>
</trkpt>
<trkpt lat="40.0713749" lon="-105.229789">
  <ele>1583.0</ele>
  <time>2026-08-28T17:52:37Z</time>
  <course>248.13</course>
  <speed>0.022360679774997897</speed>
  <fix>3d</fix>
</trkpt>
<trkpt lat="40.0713749" lon="-105.229789">
  <ele>1583.0</ele>
  <time>2026-08-28T17:52:37Z</time>
  <course>0.0</course>
  <speed>0.0</speed>
  <fix>3d</fix>
</trkpt>
<trkpt lat="40.0713749" lon="-105.229789">
  <ele>1583.0</ele>
  <time>2026-08-28T17:52:37Z</time>
  <course>248.12</course>
  <speed>0.022360679774997897</speed>
  <fix>3d</fix>
</trkpt>
<trkpt lat="40.0713749" lon="-105.229789">
  <ele>1583.0</ele>
  <time>2026-08-28T17:52:37Z</time>
  <course>0.0</course>
  <speed>0.0</speed>
  <fix>3d</fix>
</trkpt>
<trkpt lat="40.0713749" lon="-105.229789">
  <ele>1583.0</ele>
  <time>2026-08-28T17:52:37Z</time>
  <course>248.12</course>
  <speed>0.022360679774997897</speed>
  <fix>3d</fix>
</trkpt>
<trkpt lat="40.0713749" lon="-105.229789">
  <ele>1583.0</ele>
  <time>2026-08-28T17:52:37Z</time>
  <course>0.0</course>
  <speed>0.0</speed>
  <fix>3d</fix>
</trkpt>
<trkpt lat="40.0713749" lon="-105.229789">
  <ele>1583.0</ele>
  <time>2026-08-28T17:52:37Z</time>
  <course>248.11</course>
  <speed>0.022360679774997897</speed>
  <fix>3d</fix>
</trkpt>
<trkpt lat="40.0713749" lon="-105.229789">
  <ele>1583.0</ele>
  <time>2026-08-28T17:52:37Z</time>
  <course>0.0</course>
  <speed>0.0</speed>
  <fix>3d</fix>
</trkpt>
<trkpt lat="40.0713749" lon="-105.229789">
  <ele>1583.0</ele>
  <time>2026-08-28T17:52:37Z</time>
  <course>248.11</course>
  <speed>0.022360679774997897</speed>
  <fix>3d</fix>
</trkpt>
<trkpt lat="40.0713749" lon="-105.229789">
  <ele>1583.0</ele>
  <time>2026-08-28T17:52:37Z</time>
  <course>0.0</course>
  <speed>0.0</speed>
  <fix>3d</fix>
</trkpt>
<trkpt lat="40.0713749" lon="-105.229789">
  <ele>1583.0</ele>
  <time>2026-08-28T17:52:37Z</time>
  <course>248.1</course>
  <speed>0.022360679774997897</speed>
  <fix>3d</fix>
</trkpt>
<trkpt lat="40.0713749" lon="-105.229789">
  <ele>1583.0</ele>
  <time>2026-08-28T17:52:37Z</time>
  <course>0.0</course>
  <speed>0.0</speed>
  <fix>3d</fix>
</trkpt>
<trkpt lat="40.0713749" lon="-105.229789">
  <ele>1583.0</ele>
  <time>2026-08-28T17:52:37Z</time>
  <course>248.1</course>
  <speed>0.022360679774997897</speed>
  <fix>3d</fix>
</trkpt>
<trkpt lat="40.0713749" lon="-105.229789">
  <ele>1583.0</ele>
  <time>2026-08-28T17:52:37Z</time>
  <course>0.0</course>
  <speed>0.0</speed>
  <fix>3d</fix>
</trkpt>
<trkpt lat="40.0713749" lon="-105.229789">
  <ele>1583.0</ele>
  <time>2026-08-28T17:52:37Z</time>
  <course>248.09</course>
  <speed>0.022360679774997897</speed>
  <fix>3d</fix>
</trkpt>
<trkpt lat="40.0713749" lon="-105.229789">
  <ele>1583.0</ele>
  <time>2026-08-28T17:52:37Z</time>
  <course>0.0</course>
  <speed>0.0</speed>
  <fix>3d</fix>
</trkpt>
<trkpt lat="40.0713749" lon="-105.229789">
  <ele>1583.0</ele>
  <time>2026-08-28T17:52:37Z</time>
  <course>248.09</course>
  <speed>0.022360679774997897</speed>
  <fix>3d</fix>
</trkpt>
<trkpt lat="40.0713749" lon="-105.229789">
  <ele>1583.0</ele>
  <time>2026-08-28T17:52:37Z</time>
  <course>0.0</course>
  <speed>0.0</speed>
  <fix>3d</fix>
</trkpt>
<trkpt lat="40.0713749" lon="-105.229789">
  <ele>1583.0</ele>
  <time>2026-08-28T17:52:37Z</time>
  <course>248.08</course>
  <speed>0.022360679774997897</speed>
  <fix>3d</fix>
</trkpt>
<trkpt lat="40.0713749" lon="-105.229789">
  <ele>1583.0</ele>
  <time>2026-08-28T17:52:37Z</time>
  <course>0.0</course>
  <speed>0.0</speed>
  <fix>3d</fix>
</trkpt>
<trkpt lat="40.0713749" lon="-105.229789">
  <ele>1583.0</ele>
  <time>2026-08-28T17:52:37Z</time>
  <course>248.08</course>
  <speed>0.022360679774997897</speed>
  <fix>3d</fix>
</trkpt>
<trkpt lat="40.0713749" lon="-105.229789">
  <ele>1583.0</ele>
  <time>2026-08-28T17:52:37Z</time>
  <course>0.0</course>
  <speed>0.0</speed>
  <fix>3d</fix>
</trkpt>
<trkpt lat="40.0713749" lon="-105.229789">
  <ele>1583.0</ele>
  <time>2026-08-28T17:52:37Z</time>
  <course>248.07</course>
  <speed>0.022360679774997897</speed>
  <fix>3d</fix>
</trkpt>
<trkpt lat="40.0713749" lon="-105.229789">
  <ele>1583.0</ele>
  <time>2026-08-28T17:52:37Z</time>
  <course>0.0</course>
  <speed>0.0</speed>
  <fix>3d</fix>
</trkpt>
<trkpt lat="40.0713749" lon="-105.229789">
  <ele>1583.0</ele>
  <time>2026-08-28T17:52:37Z</time>
  <course>248.07</course>
  <speed>0.022360679774997897</speed>
  <fix>3d</fix>
</trkpt>
<trkpt lat="40.0713749" lon="-105.229789">
  <ele>1583.0</ele>
  <time>2026-08-28T17:52:37Z</time>
  <course>0.0</course>
  <speed>0.0</speed>
  <fix>3d</fix>
</trkpt>
<trkpt lat="40.0713749" lon="-105.229789">
  <ele>1583.0</ele>
  <time>2026-08-28T17:52:37Z</time>
  <course>248.06</course>
  <speed>0.022360679774997897</speed>
  <fix>3d</fix>
</trkpt>
<trkpt lat="40.0713749" lon="-105.229789">
  <ele>1583.0</ele>
  <time>2026-08-28T17:52:37Z</time>
  <course>0.0</course>
  <speed>0.0</speed>
  <fix>3d</fix>
</trkpt>
<trkpt lat="40.0713749" lon="-105.229789">
  <ele>1583.0</ele>
  <time>2026-08-28T17:52:37Z</time>
  <course>248.06</course>
  <speed>0.022360679774997897</speed>
  <fix>3d</fix>
</trkpt>
<trkpt lat="40.0713749" lon="-105.229789">
  <ele>1583.0</ele>
  <time>2026-08-28T17:52:37Z</time>
  <course>0.0</course>
  <speed>0.0</speed>
  <fix>3d</fix>
</trkpt>
<trkpt lat="40.0713749" lon="-105.229789">
  <ele>1583.0</ele>
  <time>2026-08-28T17:52:37Z</time>
  <course>248.05</course>
  <speed>0.022360679774997897</speed>
  <fix>3d</fix>
</trkpt>
<trkpt lat="40.0713749" lon="-105.229789">
  <ele>1583.0</ele>
  <time>2026-08-28T17:52:37Z</time>
  <course>0.0</course>
  <speed>0.0</speed>
  <fix>3d</fix>
</trkpt>
<trkpt lat="40.0713749" lon="-105.229789">
  <ele>1583.0</ele>
  <time>2026-08-28T17:52:37Z</time>
  <course>248.05</course>
  <speed>0.022360679774997897</speed>
  <fix>3d</fix>
</trkpt>
<trkpt lat="40.0713749" lon="-105.229789">
  <ele>1583.0</ele>
  <time>2026-08-28T17:52:37Z</time>
  <course>0.0</course>
  <speed>0.0</speed>
  <fix>3d</fix>
</trkpt>
<trkpt lat="40.0713749" lon="-105.229789">
  <ele>1583.0</ele>
  <time>2026-08-28T17:52:37Z</time>
  <course>248.05</course>
  <speed>0.022360679774997897</speed>
  <fix>3d</fix>
</trkpt>
<trkpt lat="40.0713749" lon="-105.229789">
  <ele>1583.0</ele>
  <time>2026-08-28T17:52:37Z</time>
  <course>0.0</course>
  <speed>0.0</speed>
  <fix>3d</fix>
</trkpt>
<trkpt lat="40.0713749" lon="-105.229789">
  <ele>1583.0</ele>
  <time>2026-08-28T17:52:37Z</time>
  <course>248.04</course>
  <speed>0.022360679774997897</speed>
  <fix>3d</fix>
</trkpt>
<trkpt lat="40.0713749" lon="-105.229789">
  <ele>1583.0</ele>
  <time>2026-08-28T17:52:37Z</time>
  <course>0.0</course>
  <speed>0.0</speed>
  <fix>3d</fix>
</trkpt>
<trkpt lat="40.0713749" lon="-105.229789">
  <ele>1583.0</ele>
  <time>2026-08-28T17:52:37Z</time>
  <course>248.04</course>
  <speed>0.022360679774997897</speed>
  <fix>3d</fix>
</trkpt>
<trkpt lat="40.0713749" lon="-105.229789">
  <ele>1583.0</ele>
  <time>2026-08-28T17:52:38Z</time>
  <course>0.0</course>
  <speed>0.0</speed>
  <fix>3d</fix>
</trkpt>
<trkpt lat="40.0713749" lon="-105.229789">
  <ele>1583.0</ele>
  <time>2026-08-28T17:52:38Z</time>
  <course>248.03</course>
  <speed>0.022360679774997897</speed>
  <fix>3d</fix>
</trkpt>
<trkpt lat="40.0713749" lon="-105.229789">
  <ele>1583.0</ele>
  <time>2026-08-28T17:52:38Z</time>
  <course>0.0</course>
  <speed>0.0</speed>
  <fix>3d</fix>
</trkpt>
<trkpt lat="40.0713749" lon="-105.229789">
  <ele>1583.0</ele>
  <time>2026-08-28T17:52:38Z</time>
  <course>248.03</course>
  <speed>0.022360679774997897</speed>
  <fix>3d</fix>
</trkpt>
<trkpt lat="40.0713749" lon="-105.229789">
  <ele>1583.0</ele>
  <time>2026-08-28T17:52:38Z</time>
  <course>0.0</course>
  <speed>0.0</speed>
  <fix>3d</fix>
</trkpt>
<trkpt lat="40.0713749" lon="-105.229789">
  <ele>1583.0</ele>
  <time>2026-08-28T17:52:38Z</time>
  <course>248.02</course>
  <speed>0.022360679774997897</speed>
  <fix>3d</fix>
</trkpt>
<trkpt lat="40.0713749" lon="-105.229789">
  <ele>1583.0</ele>
  <time>2026-08-28T17:52:38Z</time>
  <course>0.0</course>
  <speed>0.0</speed>
  <fix>3d</fix>
</trkpt>
<trkpt lat="40.0713749" lon="-105.229789">
  <ele>1583.0</ele>
  <time>2026-08-28T17:52:38Z</time>
  <course>248.02</course>
  <speed>0.022360679774997897</speed>
  <fix>3d</fix>
</trkpt>
<trkpt lat="40.0713749" lon="-105.229789">
  <ele>1583.0</ele>
  <time>2026-08-28T17:52:38Z</time>
  <course>0.0</course>
  <speed>0.0</speed>
  <fix>3d</fix>
</trkpt>
<trkpt lat="40.0713749" lon="-105.229789">
  <ele>1583.0</ele>
  <time>2026-08-28T17:52:38Z</time>
  <course>248.01</course>
  <speed>0.022360679774997897</speed>
  <fix>3d</fix>
</trkpt>
<trkpt lat="40.0713749" lon="-105.229789">
  <ele>1583.0</ele>
  <time>2026-08-28T17:52:38Z</time>
  <course>0.0</course>
  <speed>0.0</speed>
  <fix>3d</fix>
</trkpt>
<trkpt lat="40.0713749" lon="-105.229789">
  <ele>1583.0</ele>
  <time>2026-08-28T17:52:38Z</time>
  <course>248.01</course>
  <speed>0.022360679774997897</speed>
  <fix>3d</fix>
</trkpt>
<trkpt lat="40.0713749" lon="-105.229789">
  <ele>1583.0</ele>
  <time>2026-08-28T17:52:38Z</time>
  <course>0.0</course>
  <speed>0.0</speed>
  <fix>3d</fix>
</trkpt>
<trkpt lat="40.0713749" lon="-105.229789">
  <ele>1583.0</ele>
  <time>2026-08-28T17:52:38Z</time>
  <course>248.0</course>
  <speed>0.022360679774997897</speed>
  <fix>3d</fix>
</trkpt>
<trkpt lat="40.0713749" lon="-105.229789">
  <ele>1583.0</ele>
  <time>2026-08-28T17:52:38Z</time>
  <course>0.0</course>
  <speed>0.0</speed>
  <fix>3d</fix>
</trkpt>
<trkpt lat="40.0713749" lon="-105.229789">
  <ele>1583.0</ele>
  <time>2026-08-28T17:52:38Z</time>
  <course>248.0</course>
  <speed>0.022360679774997897</speed>
  <fix>3d</fix>
</trkpt>
<trkpt lat="40.0713749" lon="-105.229789">
  <ele>1583.0</ele>
  <time>2026-08-28T17:52:38Z</time>
  <course>0.0</course>
  <speed>0.0</speed>
  <fix>3d</fix>
</trkpt>
<trkpt lat="40.0713749" lon="-105.229789">
  <ele>1583.0</ele>
  <time>2026-08-28T17:52:38Z</time>
  <course>247.99</course>
  <speed>0.022360679774997897</speed>
  <fix>3d</fix>
</trkpt>
<trkpt lat="40.0713749" lon="-105.229789">
  <ele>1583.0</ele>
  <time>2026-08-28T17:52:38Z</time>
  <course>0.0</course>
  <speed>0.0</speed>
  <fix>3d</fix>
</trkpt>
<trkpt lat="40.0713749" lon="-105.229789">
  <ele>1583.0</ele>
  <time>2026-08-28T17:52:38Z</time>
  <course>247.99</course>
  <speed>0.022360679774997897</speed>
  <fix>3d</fix>
</trkpt>
<trkpt lat="40.0713749" lon="-105.229789">
  <ele>1583.0</ele>
  <time>2026-08-28T17:52:38Z</time>
  <course>0.0</course>
  <speed>0.0</speed>
  <fix>3d</fix>
</trkpt>
<trkpt lat="40.0713749" lon="-105.229789">
  <ele>1583.0</ele>
  <time>2026-08-28T17:52:38Z</time>
  <course>247.99</course>
  <speed>0.022360679774997897</speed>
  <fix>3d</fix>
</trkpt>
<trkpt lat="40.0713749" lon="-105.229789">
  <ele>1583.0</ele>
  <time>2026-08-28T17:52:38Z</time>
  <course>0.0</course>
  <speed>0.0</speed>
  <fix>3d</fix>
</trkpt>
<trkpt lat="40.0713749" lon="-105.229789">
  <ele>1583.0</ele>
  <time>2026-08-28T17:52:38Z</time>
  <course>247.98</course>
  <speed>0.022360679774997897</speed>
  <fix>3d</fix>
</trkpt>
<trkpt lat="40.0713749" lon="-105.229789">
  <ele>1583.0</ele>
  <time>2026-08-28T17:52:38Z</time>
  <course>0.0</course>
  <speed>0.0</speed>
  <fix>3d</fix>
</trkpt>
<trkpt lat="40.0713749" lon="-105.229789">
  <ele>1583.0</ele>
  <time>2026-08-28T17:52:38Z</time>
  <course>247.98</course>
  <speed>0.022360679774997897</speed>
  <fix>3d</fix>
</trkpt>
<trkpt lat="40.0713749" lon="-105.229789">
  <ele>1583.0</ele>
  <time>2026-08-28T17:52:38Z</time>
  <course>0.0</course>
  <speed>0.0</speed>
  <fix>3d</fix>
</trkpt>
<trkpt lat="40.0713749" lon="-105.229789">
  <ele>1583.0</ele>
  <time>2026-08-28T17:52:38Z</time>
  <course>247.97</course>
  <speed>0.022360679774997897</speed>
  <fix>3d</fix>
</trkpt>
<trkpt lat="40.0713749" lon="-105.229789">
  <ele>1583.0</ele>
  <time>2026-08-28T17:52:38Z</time>
  <course>0.0</course>
  <speed>0.0</speed>
  <fix>3d</fix>
</trkpt>
<trkpt lat="40.0713749" lon="-105.229789">
  <ele>1583.0</ele>
  <time>2026-08-28T17:52:38Z</time>
  <course>247.97</course>
  <speed>0.022360679774997897</speed>
  <fix>3d</fix>
</trkpt>
<trkpt lat="40.0713749" lon="-105.229789">
  <ele>1583.0</ele>
  <time>2026-08-28T17:52:38Z</time>
  <course>0.0</course>
  <speed>0.0</speed>
  <fix>3d</fix>
</trkpt>
<trkpt lat="40.0713749" lon="-105.229789">
  <ele>1583.0</ele>
  <time>2026-08-28T17:52:38Z</time>
  <course>247.96</course>
  <speed>0.022360679774997897</speed>
  <fix>3d</fix>
</trkpt>
<trkpt lat="40.0713749" lon="-105.229789">
  <ele>1583.0</ele>
  <time>2026-08-28T17:52:38Z</time>
  <course>0.0</course>
  <speed>0.0</speed>
  <fix>3d</fix>
</trkpt>
<trkpt lat="40.0713749" lon="-105.229789">
  <ele>1583.0</ele>
  <time>2026-08-28T17:52:38Z</time>
  <course>247.96</course>
  <speed>0.022360679774997897</speed>
  <fix>3d</fix>
</trkpt>
<trkpt lat="40.0713749" lon="-105.229789">
  <ele>1583.0</ele>
  <time>2026-08-28T17:52:38Z</time>
  <course>0.0</course>
  <speed>0.0</speed>
  <fix>3d</fix>
</trkpt>
<trkpt lat="40.0713749" lon="-105.229789">
  <ele>1583.0</ele>
  <time>2026-08-28T17:52:38Z</time>
  <course>247.95</course>
  <speed>0.022360679774997897</speed>
  <fix>3d</fix>
</trkpt>
<trkpt lat="40.0713749" lon="-105.229789">
  <ele>1583.0</ele>
  <time>2026-08-28T17:52:38Z</time>
  <course>0.0</course>
  <speed>0.0</speed>
  <fix>3d</fix>
</trkpt>
<trkpt lat="40.0713749" lon="-105.229789">
  <ele>1583.0</ele>
  <time>2026-08-28T17:52:38Z</time>
  <course>247.95</course>
  <speed>0.022360679774997897</speed>
  <fix>3d</fix>
</trkpt>
<trkpt lat="40.0713749" lon="-105.229789">
  <ele>1583.0</ele>
  <time>2026-08-28T17:52:38Z</time>
  <course>0.0</course>
  <speed>0.0</speed>
  <fix>3d</fix>
</trkpt>
<trkpt lat="40.0713749" lon="-105.229789">
  <ele>1583.0</ele>
  <time>2026-08-28T17:52:38Z</time>
  <course>247.95</course>
  <speed>0.022360679774997897</speed>
  <fix>3d</fix>
</trkpt>
<trkpt lat="40.0713749" lon="-105.229789">
  <ele>1583.0</ele>
  <time>2026-08-28T17:52:38Z</time>
  <course>0.0</course>
  <speed>0.0</speed>
  <fix>3d</fix>
</trkpt>
<trkpt lat="40.0713749" lon="-105.229789">
  <ele>1583.0</ele>
  <time>2026-08-28T17:52:38Z</time>
  <course>247.94</course>
  <speed>0.022360679774997897</speed>
  <fix>3d</fix>
</trkpt>
<trkpt lat="40.0713749" lon="-105.229789">
  <ele>1583.0</ele>
  <time>2026-08-28T17:52:38Z</time>
  <course>0.0</course>
  <speed>0.0</speed>
  <fix>3d</fix>
</trkpt>
<trkpt lat="40.0713749" lon="-105.229789">
  <ele>1583.0</ele>
  <time>2026-08-28T17:52:38Z</time>
  <course>247.94</course>
  <speed>0.022360679774997897</speed>
  <fix>3d</fix>
</trkpt>
<trkpt lat="40.0713749" lon="-105.229789">
  <ele>1583.0</ele>
  <time>2026-08-28T17:52:38Z</time>
  <course>0.0</course>
  <speed>0.0</speed>
  <fix>3d</fix>
</trkpt>
<trkpt lat="40.0713749" lon="-105.229789">
  <ele>1583.0</ele>
  <time>2026-08-28T17:52:38Z</time>
  <course>247.93</course>
  <speed>0.022360679774997897</speed>
  <fix>3d</fix>
</trkpt>
<trkpt lat="40.0713749" lon="-105.229789">
  <ele>1583.0</ele>
  <time>2026-08-28T17:52:38Z</time>
  <course>0.0</course>
  <speed>0.0</speed>
  <fix>3d</fix>
</trkpt>
<trkpt lat="40.0713749" lon="-105.229789">
  <ele>1583.0</ele>
  <time>2026-08-28T17:52:38Z</time>
  <course>247.93</course>
  <speed>0.022360679774997897</speed>
  <fix>3d</fix>
</trkpt>
<trkpt lat="40.0713749" lon="-105.229789">
  <ele>1583.0</ele>
  <time>2026-08-28T17:52:38Z</time>
  <course>0.0</course>
  <speed>0.0</speed>
  <fix>3d</fix>
</trkpt>
<trkpt lat="40.0713749" lon="-105.229789">
  <ele>1583.0</ele>
  <time>2026-08-28T17:52:38Z</time>
  <course>247.92</course>
  <speed>0.022360679774997897</speed>
  <fix>3d</fix>
</trkpt>
<trkpt lat="40.0713749" lon="-105.229789">
  <ele>1583.0</ele>
  <time>2026-08-28T17:52:38Z</time>
  <course>0.0</course>
  <speed>0.0</speed>
  <fix>3d</fix>
</trkpt>
<trkpt lat="40.0713749" lon="-105.229789">
  <ele>1583.0</ele>
  <time>2026-08-28T17:52:38Z</time>
  <course>247.92</course>
  <speed>0.022360679774997897</speed>
  <fix>3d</fix>
</trkpt>
<trkpt lat="40.0713749" lon="-105.229789">
  <ele>1583.0</ele>
  <time>2026-08-28T17:52:38Z</time>
  <course>0.0</course>
  <speed>0.0</speed>
  <fix>3d</fix>
</trkpt>
<trkpt lat="40.0713749" lon="-105.229789">
  <ele>1583.0</ele>
  <time>2026-08-28T17:52:38Z</time>
  <course>247.92</course>
  <speed>0.022360679774997897</speed>
  <fix>3d</fix>
</trkpt>
<trkpt lat="40.0713749" lon="-105.229789">
  <ele>1583.0</ele>
  <time>2026-08-28T17:52:38Z</time>
  <course>0.0</course>
  <speed>0.0</speed>
  <fix>3d</fix>
</trkpt>
<trkpt lat="40.0713749" lon="-105.229789">
  <ele>1583.0</ele>
  <time>2026-08-28T17:52:38Z</time>
  <course>247.91</course>
  <speed>0.022360679774997897</speed>
  <fix>3d</fix>
</trkpt>
<trkpt lat="40.0713749" lon="-105.229789">
  <ele>1583.0</ele>
  <time>2026-08-28T17:52:38Z</time>
  <course>0.0</course>
  <speed>0.0</speed>
  <fix>3d</fix>
</trkpt>
<trkpt lat="40.0713749" lon="-105.229789">
  <ele>1583.0</ele>
  <time>2026-08-28T17:52:38Z</time>
  <course>247.91</course>
  <speed>0.022360679774997897</speed>
  <fix>3d</fix>
</trkpt>
<trkpt lat="40.0713749" lon="-105.229789">
  <ele>1583.0</ele>
  <time>2026-08-28T17:52:38Z</time>
  <course>0.0</course>
  <speed>0.0</speed>
  <fix>3d</fix>
</trkpt>
<trkpt lat="40.0713749" lon="-105.229789">
  <ele>1583.0</ele>
  <time>2026-08-28T17:52:38Z</time>
  <course>247.9</course>
  <speed>0.022360679774997897</speed>
  <fix>3d</fix>
</trkpt>
<trkpt lat="40.0713749" lon="-105.229789">
  <ele>1583.0</ele>
  <time>2026-08-28T17:52:38Z</time>
  <course>0.0</course>
  <speed>0.0</speed>
  <fix>3d</fix>
</trkpt>
<trkpt lat="40.0713749" lon="-105.229789">
  <ele>1583.0</ele>
  <time>2026-08-28T17:52:38Z</time>
  <course>247.9</course>
  <speed>0.022360679774997897</speed>
  <fix>3d</fix>
</trkpt>
<trkpt lat="40.0713749" lon="-105.229789">
  <ele>1583.0</ele>
  <time>2026-08-28T17:52:38Z</time>
  <course>0.0</course>
  <speed>0.0</speed>
  <fix>3d</fix>
</trkpt>
<trkpt lat="40.0713749" lon="-105.229789">
  <ele>1583.0</ele>
  <time>2026-08-28T17:52:38Z</time>
  <course>247.89</course>
  <speed>0.022360679774997897</speed>
  <fix>3d</fix>
</trkpt>
<trkpt lat="40.0713749" lon="-105.229789">
  <ele>1583.0</ele>
  <time>2026-08-28T17:52:38Z</time>
  <course>0.0</course>
  <speed>0.0</speed>
  <fix>3d</fix>
</trkpt>
<trkpt lat="40.0713749" lon="-105.229789">
  <ele>1583.0</ele>
  <time>2026-08-28T17:52:38Z</time>
  <course>247.89</course>
  <speed>0.022360679774997897</speed>
  <fix>3d</fix>
</trkpt>
<trkpt lat="40.0713749" lon="-105.229789">
  <ele>1583.0</ele>
  <time>2026-08-28T17:52:38Z</time>
  <course>0.0</course>
  <speed>0.0</speed>
  <fix>3d</fix>
</trkpt>
<trkpt lat="40.0713749" lon="-105.229789">
  <ele>1583.0</ele>
  <time>2026-08-28T17:52:38Z</time>
  <course>247.89</course>
  <speed>0.022360679774997897</speed>
  <fix>3d</fix>
</trkpt>
<trkpt lat="40.0713749" lon="-105.229789">
  <ele>1583.0</ele>
  <time>2026-08-28T17:52:38Z</time>
  <course>0.0</course>
  <speed>0.0</speed>
  <fix>3d</fix>
</trkpt>
<trkpt lat="40.0713749" lon="-105.229789">
  <ele>1583.0</ele>
  <time>2026-08-28T17:52:38Z</time>
  <course>247.88</course>
  <speed>0.0316227766016838</speed>
  <fix>3d</fix>
</trkpt>
<trkpt lat="40.0713749" lon="-105.229789">
  <ele>1583.0</ele>
  <time>2026-08-28T17:52:38Z</time>
  <course>0.0</course>
  <speed>0.0</speed>
  <fix>3d</fix>
</trkpt>
<trkpt lat="40.0713749" lon="-105.229789">
  <ele>1583.0</ele>
  <time>2026-08-28T17:52:38Z</time>
  <course>247.88</course>
  <speed>0.0316227766016838</speed>
  <fix>3d</fix>
</trkpt>
<trkpt lat="40.0713749" lon="-105.229789">
  <ele>1583.0</ele>
  <time>2026-08-28T17:52:38Z</time>
  <course>0.0</course>
  <speed>0.0</speed>
  <fix>3d</fix>
</trkpt>
<trkpt lat="40.0713749" lon="-105.229789">
  <ele>1583.0</ele>
  <time>2026-08-28T17:52:38Z</time>
  <course>247.87</course>
  <speed>0.0316227766016838</speed>
  <fix>3d</fix>
</trkpt>
<trkpt lat="40.0713749" lon="-105.229789">
  <ele>1583.0</ele>
  <time>2026-08-28T17:52:38Z</time>
  <course>0.0</course>
  <speed>0.0</speed>
  <fix>3d</fix>
</trkpt>
<trkpt lat="40.0713749" lon="-105.229789">
  <ele>1583.0</ele>
  <time>2026-08-28T17:52:38Z</time>
  <course>247.87</course>
  <speed>0.0316227766016838</speed>
  <fix>3d</fix>
</trkpt>
<trkpt lat="40.0713749" lon="-105.229789">
  <ele>1583.0</ele>
  <time>2026-08-28T17:52:38Z</time>
  <course>0.0</course>
  <speed>0.0</speed>
  <fix>3d</fix>
</trkpt>
<trkpt lat="40.0713749" lon="-105.229789">
  <ele>1583.0</ele>
  <time>2026-08-28T17:52:38Z</time>
  <course>247.87</course>
  <speed>0.0316227766016838</speed>
  <fix>3d</fix>
</trkpt>
<trkpt lat="40.0713749" lon="-105.229789">
  <ele>1583.0</ele>
  <time>2026-08-28T17:52:38Z</time>
  <course>0.0</course>
  <speed>0.0</speed>
  <fix>3d</fix>
</trkpt>
<trkpt lat="40.0713749" lon="-105.229789">
  <ele>1583.0</ele>
  <time>2026-08-28T17:52:38Z</time>
  <course>247.86</course>
  <speed>0.0316227766016838</speed>
  <fix>3d</fix>
</trkpt>
<trkpt lat="40.0713749" lon="-105.229789">
  <ele>1583.0</ele>
  <time>2026-08-28T17:52:38Z</time>
  <course>0.0</course>
  <speed>0.0</speed>
  <fix>3d</fix>
</trkpt>
<trkpt lat="40.0713749" lon="-105.229789">
  <ele>1583.0</ele>
  <time>2026-08-28T17:52:38Z</time>
  <course>247.86</course>
  <speed>0.0316227766016838</speed>
  <fix>3d</fix>
</trkpt>
<trkpt lat="40.0713749" lon="-105.229789">
  <ele>1583.0</ele>
  <time>2026-08-28T17:52:38Z</time>
  <course>0.0</course>
  <speed>0.0</speed>
  <fix>3d</fix>
</trkpt>
<trkpt lat="40.0713749" lon="-105.229789">
  <ele>1583.0</ele>
  <time>2026-08-28T17:52:38Z</time>
  <course>247.85</course>
  <speed>0.0316227766016838</speed>
  <fix>3d</fix>
</trkpt>
<trkpt lat="40.0713749" lon="-105.229789">
  <ele>1583.0</ele>
  <time>2026-08-28T17:52:38Z</time>
  <course>0.0</course>
  <speed>0.0</speed>
  <fix>3d</fix>
</trkpt>
<trkpt lat="40.0713749" lon="-105.229789">
  <ele>1583.0</ele>
  <time>2026-08-28T17:52:38Z</time>
  <course>247.85</course>
  <speed>0.0316227766016838</speed>
  <fix>3d</fix>
</trkpt>
<trkpt lat="40.0713749" lon="-105.229789">
  <ele>1583.0</ele>
  <time>2026-08-28T17:52:38Z</time>
  <course>0.0</course>
  <speed>0.0</speed>
  <fix>3d</fix>
</trkpt>
<trkpt lat="40.0713749" lon="-105.229789">
  <ele>1583.0</ele>
  <time>2026-08-28T17:52:38Z</time>
  <course>247.85</course>
  <speed>0.0316227766016838</speed>
  <fix>3d</fix>
</trkpt>
<trkpt lat="40.0713749" lon="-105.229789">
  <ele>1583.0</ele>
  <time>2026-08-28T17:52:38Z</time>
  <course>0.0</course>
  <speed>0.0</speed>
  <fix>3d</fix>
</trkpt>
<trkpt lat="40.0713749" lon="-105.229789">
  <ele>1583.0</ele>
  <time>2026-08-28T17:52:38Z</time>
  <course>247.84</course>
  <speed>0.0316227766016838</speed>
  <fix>3d</fix>
</trkpt>
<trkpt lat="40.0713749" lon="-105.229789">
  <ele>1583.0</ele>
  <time>2026-08-28T17:52:38Z</time>
  <course>0.0</course>
  <speed>0.0</speed>
  <fix>3d</fix>
</trkpt>
<trkpt lat="40.0713749" lon="-105.229789">
  <ele>1583.0</ele>
  <time>2026-08-28T17:52:38Z</time>
  <course>247.84</course>
  <speed>0.0316227766016838</speed>
  <fix>3d</fix>
</trkpt>
<trkpt lat="40.0713749" lon="-105.229789">
  <ele>1583.0</ele>
  <time>2026-08-28T17:52:38Z</time>
  <course>0.0</course>
  <speed>0.0</speed>
  <fix>3d</fix>
</trkpt>
<trkpt lat="40.0713749" lon="-105.229789">
  <ele>1583.0</ele>
  <time>2026-08-28T17:52:38Z</time>
  <course>247.83</course>
  <speed>0.0316227766016838</speed>
  <fix>3d</fix>
</trkpt>
<trkpt lat="40.0713749" lon="-105.229789">
  <ele>1583.0</ele>
  <time>2026-08-28T17:52:38Z</time>
  <course>0.0</course>
  <speed>0.0</speed>
  <fix>3d</fix>
</trkpt>
<trkpt lat="40.0713749" lon="-105.229789">
  <ele>1583.0</ele>
  <time>2026-08-28T17:52:38Z</time>
  <course>247.83</course>
  <speed>0.0316227766016838</speed>
  <fix>3d</fix>
</trkpt>
<trkpt lat="40.0713749" lon="-105.229789">
  <ele>1583.0</ele>
  <time>2026-08-28T17:52:38Z</time>
  <course>0.0</course>
  <speed>0.0</speed>
  <fix>3d</fix>
</trkpt>
<trkpt lat="40.0713749" lon="-105.229789">
  <ele>1583.0</ele>
  <time>2026-08-28T17:52:38Z</time>
  <course>247.83</course>
  <speed>0.0316227766016838</speed>
  <fix>3d</fix>
</trkpt>
<trkpt lat="40.0713749" lon="-105.229789">
  <ele>1583.0</ele>
  <time>2026-08-28T17:52:38Z</time>
  <course>0.0</course>
  <speed>0.0</speed>
  <fix>3d</fix>
</trkpt>
<trkpt lat="40.0713749" lon="-105.229789">
  <ele>1583.0</ele>
  <time>2026-08-28T17:52:38Z</time>
  <course>247.82</course>
  <speed>0.0316227766016838</speed>
  <fix>3d</fix>
</trkpt>
<trkpt lat="40.0713749" lon="-105.229789">
  <ele>1583.0</ele>
  <time>2026-08-28T17:52:38Z</time>
  <course>0.0</course>
  <speed>0.0</speed>
  <fix>3d</fix>
</trkpt>
<trkpt lat="40.0713749" lon="-105.229789">
  <ele>1583.0</ele>
  <time>2026-08-28T17:52:38Z</time>
  <course>247.82</course>
  <speed>0.0316227766016838</speed>
  <fix>3d</fix>
</trkpt>
<trkpt lat="40.0713749" lon="-105.229789">
  <ele>1583.0</ele>
  <time>2026-08-28T17:52:38Z</time>
  <course>0.0</course>
  <speed>0.0</speed>
  <fix>3d</fix>
</trkpt>
<trkpt lat="40.0713749" lon="-105.229789">
  <ele>1583.0</ele>
  <time>2026-08-28T17:52:38Z</time>
  <course>247.82</course>
  <speed>0.0316227766016838</speed>
  <fix>3d</fix>
</trkpt>
<trkpt lat="40.0713749" lon="-105.229789">
  <ele>1583.0</ele>
  <time>2026-08-28T17:52:38Z</time>
  <course>0.0</course>
  <speed>0.0</speed>
  <fix>3d</fix>
</trkpt>
<trkpt lat="40.0713749" lon="-105.229789">
  <ele>1583.0</ele>
  <time>2026-08-28T17:52:38Z</time>
  <course>247.81</course>
  <speed>0.0316227766016838</speed>
  <fix>3d</fix>
</trkpt>
<trkpt lat="40.0713749" lon="-105.229789">
  <ele>1583.0</ele>
  <time>2026-08-28T17:52:38Z</time>
  <course>0.0</course>
  <speed>0.0</speed>
  <fix>3d</fix>
</trkpt>
<trkpt lat="40.0713749" lon="-105.229789">
  <ele>1583.0</ele>
  <time>2026-08-28T17:52:38Z</time>
  <course>247.81</course>
  <speed>0.0316227766016838</speed>
  <fix>3d</fix>
</trkpt>
<trkpt lat="40.0713749" lon="-105.229789">
  <ele>1583.0</ele>
  <time>2026-08-28T17:52:38Z</time>
  <course>0.0</course>
  <speed>0.0</speed>
  <fix>3d</fix>
</trkpt>
<trkpt lat="40.0713749" lon="-105.229789">
  <ele>1583.0</ele>
  <time>2026-08-28T17:52:38Z</time>
  <course>247.8</course>
  <speed>0.0316227766016838</speed>
  <fix>3d</fix>
</trkpt>
<trkpt lat="40.0713749" lon="-105.229789">
  <ele>1583.0</ele>
  <time>2026-08-28T17:52:38Z</time>
  <course>0.0</course>
  <speed>0.0</speed>
  <fix>3d</fix>
</trkpt>
<trkpt lat="40.0713749" lon="-105.229789">
  <ele>1583.0</ele>
  <time>2026-08-28T17:52:38Z</time>
  <course>247.8</course>
  <speed>0.0316227766016838</speed>
  <fix>3d</fix>
</trkpt>
<trkpt lat="40.0713749" lon="-105.229789">
  <ele>1583.0</ele>
  <time>2026-08-28T17:52:38Z</time>
  <course>0.0</course>
  <speed>0.0</speed>
  <fix>3d</fix>
</trkpt>
<trkpt lat="40.0713749" lon="-105.229789">
  <ele>1583.0</ele>
  <time>2026-08-28T17:52:38Z</time>
  <course>247.8</course>
  <speed>0.0316227766016838</speed>
  <fix>3d</fix>
</trkpt>
<trkpt lat="40.0713749" lon="-105.229789">
  <ele>1583.0</ele>
  <time>2026-08-28T17:52:38Z</time>
  <course>0.0</course>
  <speed>0.0</speed>
  <fix>3d</fix>
</trkpt>
<trkpt lat="40.0713749" lon="-105.229789">
  <ele>1583.0</ele>
  <time>2026-08-28T17:52:38Z</time>
  <course>247.79</course>
  <speed>0.0316227766016838</speed>
  <fix>3d</fix>
</trkpt>
<trkpt lat="40.0713749" lon="-105.229789">
  <ele>1583.0</ele>
  <time>2026-08-28T17:52:38Z</time>
  <course>0.0</course>
  <speed>0.0</speed>
  <fix>3d</fix>
</trkpt>
<trkpt lat="40.0713749" lon="-105.229789">
  <ele>1583.0</ele>
  <time>2026-08-28T17:52:38Z</time>
  <course>247.79</course>
  <speed>0.0316227766016838</speed>
  <fix>3d</fix>
</trkpt>
<trkpt lat="40.0713749" lon="-105.229789">
  <ele>1583.0</ele>
  <time>2026-08-28T17:52:38Z</time>
  <course>0.0</course>
  <speed>0.0</speed>
  <fix>3d</fix>
</trkpt>
<trkpt lat="40.0713749" lon="-105.229789">
  <ele>1583.0</ele>
  <time>2026-08-28T17:52:38Z</time>
  <course>247.79</course>
  <speed>0.0316227766016838</speed>
  <fix>3d</fix>
</trkpt>
<trkpt lat="40.0713749" lon="-105.229789">
  <ele>1583.0</ele>
  <time>2026-08-28T17:52:38Z</time>
  <course>0.0</course>
  <speed>0.0</speed>
  <fix>3d</fix>
</trkpt>
<trkpt lat="40.0713749" lon="-105.229789">
  <ele>1583.0</ele>
  <time>2026-08-28T17:52:38Z</time>
  <course>247.78</course>
  <speed>0.0316227766016838</speed>
  <fix>3d</fix>
</trkpt>
<trkpt lat="40.0713749" lon="-105.229789">
  <ele>1583.0</ele>
  <time>2026-08-28T17:52:38Z</time>
  <course>0.0</course>
  <speed>0.0</speed>
  <fix>3d</fix>
</trkpt>
<trkpt lat="40.0713749" lon="-105.229789">
  <ele>1583.0</ele>
  <time>2026-08-28T17:52:38Z</time>
  <course>247.78</course>
  <speed>0.0316227766016838</speed>
  <fix>3d</fix>
</trkpt>
<trkpt lat="40.0713749" lon="-105.229789">
  <ele>1583.0</ele>
  <time>2026-08-28T17:52:38Z</time>
  <course>0.0</course>
  <speed>0.0</speed>
  <fix>3d</fix>
</trkpt>
<trkpt lat="40.0713749" lon="-105.229789">
  <ele>1583.0</ele>
  <time>2026-08-28T17:52:38Z</time>
  <course>247.78</course>
  <speed>0.0316227766016838</speed>
  <fix>3d</fix>
</trkpt>
<trkpt lat="40.0713749" lon="-105.229789">
  <ele>1583.0</ele>
  <time>2026-08-28T17:52:38Z</time>
  <course>0.0</course>
  <speed>0.0</speed>
  <fix>3d</fix>
</trkpt>
<trkpt lat="40.0713749" lon="-105.229789">
  <ele>1583.0</ele>
  <time>2026-08-28T17:52:38Z</time>
  <course>247.77</course>
  <speed>0.0316227766016838</speed>
  <fix>3d</fix>
</trkpt>
<trkpt lat="40.0713749" lon="-105.229789">
  <ele>1583.0</ele>
  <time>2026-08-28T17:52:38Z</time>
  <course>0.0</course>
  <speed>0.0</speed>
  <fix>3d</fix>
</trkpt>
<trkpt lat="40.0713749" lon="-105.229789">
  <ele>1583.0</ele>
  <time>2026-08-28T17:52:38Z</time>
  <course>247.77</course>
  <speed>0.0316227766016838</speed>
  <fix>3d</fix>
</trkpt>
<trkpt lat="40.0713749" lon="-105.229789">
  <ele>1583.0</ele>
  <time>2026-08-28T17:52:38Z</time>
  <course>0.0</course>
  <speed>0.0</speed>
  <fix>3d</fix>
</trkpt>
<trkpt lat="40.0713749" lon="-105.229789">
  <ele>1583.0</ele>
  <time>2026-08-28T17:52:38Z</time>
  <course>247.76</course>
  <speed>0.0316227766016838</speed>
  <fix>3d</fix>
</trkpt>
<trkpt lat="40.0713749" lon="-105.229789">
  <ele>1583.0</ele>
  <time>2026-08-28T17:52:38Z</time>
  <course>0.0</course>
  <speed>0.0</speed>
  <fix>3d</fix>
</trkpt>
<trkpt lat="40.0713749" lon="-105.229789">
  <ele>1583.0</ele>
  <time>2026-08-28T17:52:38Z</time>
  <course>247.76</course>
  <speed>0.0316227766016838</speed>
  <fix>3d</fix>
</trkpt>
<trkpt lat="40.0713749" lon="-105.229789">
  <ele>1583.0</ele>
  <time>2026-08-28T17:52:38Z</time>
  <course>0.0</course>
  <speed>0.0</speed>
  <fix>3d</fix>
</trkpt>
<trkpt lat="40.0713749" lon="-105.229789">
  <ele>1583.0</ele>
  <time>2026-08-28T17:52:38Z</time>
  <course>247.76</course>
  <speed>0.0316227766016838</speed>
  <fix>3d</fix>
</trkpt>
<trkpt lat="40.0713749" lon="-105.229789">
  <ele>1583.0</ele>
  <time>2026-08-28T17:52:38Z</time>
  <course>0.0</course>
  <speed>0.0</speed>
  <fix>3d</fix>
</trkpt>
<trkpt lat="40.0713749" lon="-105.229789">
  <ele>1583.0</ele>
  <time>2026-08-28T17:52:38Z</time>
  <course>247.75</course>
  <speed>0.0316227766016838</speed>
  <fix>3d</fix>
</trkpt>
<trkpt lat="40.0713749" lon="-105.229789">
  <ele>1583.0</ele>
  <time>2026-08-28T17:52:38Z</time>
  <course>0.0</course>
  <speed>0.0</speed>
  <fix>3d</fix>
</trkpt>
<trkpt lat="40.0713749" lon="-105.229789">
  <ele>1583.0</ele>
  <time>2026-08-28T17:52:38Z</time>
  <course>247.75</course>
  <speed>0.0316227766016838</speed>
  <fix>3d</fix>
</trkpt>
<trkpt lat="40.0713749" lon="-105.229789">
  <ele>1583.0</ele>
  <time>2026-08-28T17:52:38Z</time>
  <course>0.0</course>
  <speed>0.0</speed>
  <fix>3d</fix>
</trkpt>
<trkpt lat="40.0713749" lon="-105.229789">
  <ele>1583.0</ele>
  <time>2026-08-28T17:52:38Z</time>
  <course>247.75</course>
  <speed>0.0316227766016838</speed>
  <fix>3d</fix>
</trkpt>
<trkpt lat="40.0713749" lon="-105.229789">
  <ele>1583.0</ele>
  <time>2026-08-28T17:52:38Z</time>
  <course>0.0</course>
  <speed>0.0</speed>
  <fix>3d</fix>
</trkpt>
<trkpt lat="40.0713749" lon="-105.229789">
  <ele>1583.0</ele>
  <time>2026-08-28T17:52:38Z</time>
  <course>247.74</course>
  <speed>0.0316227766016838</speed>
  <fix>3d</fix>
</trkpt>
<trkpt lat="40.0713749" lon="-105.229789">
  <ele>1583.0</ele>
  <time>2026-08-28T17:52:38Z</time>
  <course>0.0</course>
  <speed>0.0</speed>
  <fix>3d</fix>
</trkpt>
<trkpt lat="40.0713749" lon="-105.229789">
  <ele>1583.0</ele>
  <time>2026-08-28T17:52:38Z</time>
  <course>247.74</course>
  <speed>0.0316227766016838</speed>
  <fix>3d</fix>
</trkpt>
<trkpt lat="40.0713749" lon="-105.229789">
  <ele>1583.0</ele>
  <time>2026-08-28T17:52:38Z</time>
  <course>0.0</course>
  <speed>0.0</speed>
  <fix>3d</fix>
</trkpt>
<trkpt lat="40.0713749" lon="-105.229789">
  <ele>1583.0</ele>
  <time>2026-08-28T17:52:38Z</time>
  <course>247.74</course>
  <speed>0.0316227766016838</speed>
  <fix>3d</fix>
</trkpt>
<trkpt lat="40.0713749" lon="-105.229789">
  <ele>1583.0</ele>
  <time>2026-08-28T17:52:38Z</time>
  <course>0.0</course>
  <speed>0.0</speed>
  <fix>3d</fix>
</trkpt>
<trkpt lat="40.0713749" lon="-105.229789">
  <ele>1583.0</ele>
  <time>2026-08-28T17:52:38Z</time>
  <course>247.73</course>
  <speed>0.0316227766016838</speed>
  <fix>3d</fix>
</trkpt>
<trkpt lat="40.0713749" lon="-105.229789">
  <ele>1583.0</ele>
  <time>2026-08-28T17:52:38Z</time>
  <course>0.0</course>
  <speed>0.0</speed>
  <fix>3d</fix>
</trkpt>
<trkpt lat="40.0713749" lon="-105.229789">
  <ele>1583.0</ele>
  <time>2026-08-28T17:52:38Z</time>
  <course>247.73</course>
  <speed>0.0316227766016838</speed>
  <fix>3d</fix>
</trkpt>
<trkpt lat="40.0713749" lon="-105.229789">
  <ele>1583.0</ele>
  <time>2026-08-28T17:52:38Z</time>
  <course>0.0</course>
  <speed>0.0</speed>
  <fix>3d</fix>
</trkpt>
<trkpt lat="40.0713749" lon="-105.229789">
  <ele>1583.0</ele>
  <time>2026-08-28T17:52:38Z</time>
  <course>247.73</course>
  <speed>0.0316227766016838</speed>
  <fix>3d</fix>
</trkpt>
<trkpt lat="40.0713749" lon="-105.229789">
  <ele>1583.0</ele>
  <time>2026-08-28T17:52:38Z</time>
  <course>0.0</course>
  <speed>0.0</speed>
  <fix>3d</fix>
</trkpt>
<trkpt lat="40.0713749" lon="-105.229789">
  <ele>1583.0</ele>
  <time>2026-08-28T17:52:38Z</time>
  <course>247.72</course>
  <speed>0.0316227766016838</speed>
  <fix>3d</fix>
</trkpt>
<trkpt lat="40.0713749" lon="-105.229789">
  <ele>1583.0</ele>
  <time>2026-08-28T17:52:38Z</time>
  <course>0.0</course>
  <speed>0.0</speed>
  <fix>3d</fix>
</trkpt>
<trkpt lat="40.0713749" lon="-105.229789">
  <ele>1583.0</ele>
  <time>2026-08-28T17:52:38Z</time>
  <course>247.72</course>
  <speed>0.0316227766016838</speed>
  <fix>3d</fix>
</trkpt>
<trkpt lat="40.0713749" lon="-105.229789">
  <ele>1583.0</ele>
  <time>2026-08-28T17:52:38Z</time>
  <course>0.0</course>
  <speed>0.0</speed>
  <fix>3d</fix>
</trkpt>
<trkpt lat="40.0713749" lon="-105.229789">
  <ele>1583.0</ele>
  <time>2026-08-28T17:52:38Z</time>
  <course>247.72</course>
  <speed>0.0316227766016838</speed>
  <fix>3d</fix>
</trkpt>
<trkpt lat="40.0713749" lon="-105.229789">
  <ele>1583.0</ele>
  <time>2026-08-28T17:52:38Z</time>
  <course>0.0</course>
  <speed>0.0</speed>
  <fix>3d</fix>
</trkpt>
<trkpt lat="40.0713749" lon="-105.229789">
  <ele>1583.0</ele>
  <time>2026-08-28T17:52:38Z</time>
  <course>247.71</course>
  <speed>0.0316227766016838</speed>
  <fix>3d</fix>
</trkpt>
<trkpt lat="40.0713749" lon="-105.229789">
  <ele>1583.0</ele>
  <time>2026-08-28T17:52:38Z</time>
  <course>0.0</course>
  <speed>0.0</speed>
  <fix>3d</fix>
</trkpt>
<trkpt lat="40.0713749" lon="-105.229789">
  <ele>1583.0</ele>
  <time>2026-08-28T17:52:38Z</time>
  <course>247.71</course>
  <speed>0.0316227766016838</speed>
  <fix>3d</fix>
</trkpt>
<trkpt lat="40.0713749" lon="-105.229789">
  <ele>1583.0</ele>
  <time>2026-08-28T17:52:38Z</time>
  <course>0.0</course>
  <speed>0.0</speed>
  <fix>3d</fix>
</trkpt>
<trkpt lat="40.0713749" lon="-105.229789">
  <ele>1583.0</ele>
  <time>2026-08-28T17:52:38Z</time>
  <course>247.71</course>
  <speed>0.0316227766016838</speed>
  <fix>3d</fix>
</trkpt>
<trkpt lat="40.0713749" lon="-105.229789">
  <ele>1583.0</ele>
  <time>2026-08-28T17:52:38Z</time>
  <course>0.0</course>
  <speed>0.0</speed>
  <fix>3d</fix>
</trkpt>
<trkpt lat="40.0713749" lon="-105.229789">
  <ele>1583.0</ele>
  <time>2026-08-28T17:52:38Z</time>
  <course>247.7</course>
  <speed>0.0316227766016838</speed>
  <fix>3d</fix>
</trkpt>
<trkpt lat="40.0713749" lon="-105.229789">
  <ele>1583.0</ele>
  <time>2026-08-28T17:52:38Z</time>
  <course>0.0</course>
  <speed>0.0</speed>
  <fix>3d</fix>
</trkpt>
<trkpt lat="40.0713749" lon="-105.229789">
  <ele>1583.0</ele>
  <time>2026-08-28T17:52:38Z</time>
  <course>247.7</course>
  <speed>0.0316227766016838</speed>
  <fix>3d</fix>
</trkpt>
<trkpt lat="40.0713749" lon="-105.229789">
  <ele>1583.0</ele>
  <time>2026-08-28T17:52:38Z</time>
  <course>0.0</course>
  <speed>0.0</speed>
  <fix>3d</fix>
</trkpt>
<trkpt lat="40.0713749" lon="-105.229789">
  <ele>1583.0</ele>
  <time>2026-08-28T17:52:38Z</time>
  <course>247.7</course>
  <speed>0.0316227766016838</speed>
  <fix>3d</fix>
</trkpt>
<trkpt lat="40.0713749" lon="-105.229789">
  <ele>1583.0</ele>
  <time>2026-08-28T17:52:38Z</time>
  <course>0.0</course>
  <speed>0.0</speed>
  <fix>3d</fix>
</trkpt>
<trkpt lat="40.0713749" lon="-105.229789">
  <ele>1583.0</ele>
  <time>2026-08-28T17:52:38Z</time>
  <course>247.69</course>
  <speed>0.0316227766016838</speed>
  <fix>3d</fix>
</trkpt>
<trkpt lat="40.0713749" lon="-105.229789">
  <ele>1583.0</ele>
  <time>2026-08-28T17:52:38Z</time>
  <course>0.0</course>
  <speed>0.0</speed>
  <fix>3d</fix>
</trkpt>
<trkpt lat="40.0713749" lon="-105.229789">
  <ele>1583.0</ele>
  <time>2026-08-28T17:52:38Z</time>
  <course>247.69</course>
  <speed>0.0316227766016838</speed>
  <fix>3d</fix>
</trkpt>
<trkpt lat="40.0713749" lon="-105.229789">
  <ele>1583.0</ele>
  <time>2026-08-28T17:52:38Z</time>
  <course>0.0</course>
  <speed>0.0</speed>
  <fix>3d</fix>
</trkpt>
<trkpt lat="40.0713749" lon="-105.229789">
  <ele>1583.0</ele>
  <time>2026-08-28T17:52:38Z</time>
  <course>247.69</course>
  <speed>0.0316227766016838</speed>
  <fix>3d</fix>
</trkpt>
<trkpt lat="40.0713749" lon="-105.229789">
  <ele>1583.0</ele>
  <time>2026-08-28T17:52:38Z</time>
  <course>0.0</course>
  <speed>0.0</speed>
  <fix>3d</fix>
</trkpt>
<trkpt lat="40.0713749" lon="-105.229789">
  <ele>1583.0</ele>
  <time>2026-08-28T17:52:38Z</time>
  <course>247.68</course>
  <speed>0.0316227766016838</speed>
  <fix>3d</fix>
</trkpt>
<trkpt lat="40.0713749" lon="-105.229789">
  <ele>1583.0</ele>
  <time>2026-08-28T17:52:38Z</time>
  <course>0.0</course>
  <speed>0.0</speed>
  <fix>3d</fix>
</trkpt>
<trkpt lat="40.0713749" lon="-105.229789">
  <ele>1583.0</ele>
  <time>2026-08-28T17:52:38Z</time>
  <course>247.68</course>
  <speed>0.0316227766016838</speed>
  <fix>3d</fix>
</trkpt>
<trkpt lat="40.0713749" lon="-105.229789">
  <ele>1583.0</ele>
  <time>2026-08-28T17:52:38Z</time>
  <course>0.0</course>
  <speed>0.0</speed>
  <fix>3d</fix>
</trkpt>
<trkpt lat="40.0713749" lon="-105.229789">
  <ele>1583.0</ele>
  <time>2026-08-28T17:52:38Z</time>
  <course>247.68</course>
  <speed>0.0316227766016838</speed>
  <fix>3d</fix>
</trkpt>
<trkpt lat="40.0713749" lon="-105.229789">
  <ele>1583.0</ele>
  <time>2026-08-28T17:52:38Z</time>
  <course>0.0</course>
  <speed>0.0</speed>
  <fix>3d</fix>
</trkpt>
<trkpt lat="40.0713749" lon="-105.229789">
  <ele>1583.0</ele>
  <time>2026-08-28T17:52:38Z</time>
  <course>247.67</course>
  <speed>0.0316227766016838</speed>
  <fix>3d</fix>
</trkpt>
<trkpt lat="40.0713749" lon="-105.229789">
  <ele>1583.0</ele>
  <time>2026-08-28T17:52:38Z</time>
  <course>0.0</course>
  <speed>0.0</speed>
  <fix>3d</fix>
</trkpt>
<trkpt lat="40.0713749" lon="-105.229789">
  <ele>1583.0</ele>
  <time>2026-08-28T17:52:38Z</time>
  <course>247.67</course>
  <speed>0.0316227766016838</speed>
  <fix>3d</fix>
</trkpt>
<trkpt lat="40.0713749" lon="-105.229789">
  <ele>1583.0</ele>
  <time>2026-08-28T17:52:38Z</time>
  <course>0.0</course>
  <speed>0.0</speed>
  <fix>3d</fix>
</trkpt>
<trkpt lat="40.0713749" lon="-105.229789">
  <ele>1583.0</ele>
  <time>2026-08-28T17:52:38Z</time>
  <course>247.67</course>
  <speed>0.0316227766016838</speed>
  <fix>3d</fix>
</trkpt>
<trkpt lat="40.0713749" lon="-105.229789">
  <ele>1583.0</ele>
  <time>2026-08-28T17:52:38Z</time>
  <course>0.0</course>
  <speed>0.0</speed>
  <fix>3d</fix>
</trkpt>
<trkpt lat="40.0713749" lon="-105.229789">
  <ele>1583.0</ele>
  <time>2026-08-28T17:52:38Z</time>
  <course>247.66</course>
  <speed>0.0316227766016838</speed>
  <fix>3d</fix>
</trkpt>
<trkpt lat="40.0713749" lon="-105.229789">
  <ele>1583.0</ele>
  <time>2026-08-28T17:52:38Z</time>
  <course>0.0</course>
  <speed>0.0</speed>
  <fix>3d</fix>
</trkpt>
<trkpt lat="40.0713749" lon="-105.229789">
  <ele>1583.0</ele>
  <time>2026-08-28T17:52:38Z</time>
  <course>247.66</course>
  <speed>0.0316227766016838</speed>
  <fix>3d</fix>
</trkpt>
<trkpt lat="40.0713749" lon="-105.229789">
  <ele>1583.0</ele>
  <time>2026-08-28T17:52:38Z</time>
  <course>0.0</course>
  <speed>0.0</speed>
  <fix>3d</fix>
</trkpt>
<trkpt lat="40.0713749" lon="-105.229789">
  <ele>1583.0</ele>
  <time>2026-08-28T17:52:38Z</time>
  <course>247.66</course>
  <speed>0.0316227766016838</speed>
  <fix>3d</fix>
</trkpt>
<trkpt lat="40.0713749" lon="-105.229789">
  <ele>1583.0</ele>
  <time>2026-08-28T17:52:38Z</time>
  <course>0.0</course>
  <speed>0.0</speed>
  <fix>3d</fix>
</trkpt>
<trkpt lat="40.0713749" lon="-105.229789">
  <ele>1583.0</ele>
  <time>2026-08-28T17:52:38Z</time>
  <course>247.65</course>
  <speed>0.0316227766016838</speed>
  <fix>3d</fix>
</trkpt>
<trkpt lat="40.0713749" lon="-105.229789">
  <ele>1583.0</ele>
  <time>2026-08-28T17:52:38Z</time>
  <course>0.0</course>
  <speed>0.0</speed>
  <fix>3d</fix>
</trkpt>
<trkpt lat="40.0713749" lon="-105.229789">
  <ele>1583.0</ele>
  <time>2026-08-28T17:52:38Z</time>
  <course>247.65</course>
  <speed>0.0316227766016838</speed>
  <fix>3d</fix>
</trkpt>
<trkpt lat="40.0713749" lon="-105.229789">
  <ele>1583.0</ele>
  <time>2026-08-28T17:52:38Z</time>
  <course>0.0</course>
  <speed>0.0</speed>
  <fix>3d</fix>
</trkpt>
<trkpt lat="40.0713749" lon="-105.229789">
  <ele>1583.0</ele>
  <time>2026-08-28T17:52:38Z</time>
  <course>247.65</course>
  <speed>0.0316227766016838</speed>
  <fix>3d</fix>
</trkpt>
<trkpt lat="40.0713749" lon="-105.229789">
  <ele>1583.0</ele>
  <time>2026-08-28T17:52:38Z</time>
  <course>0.0</course>
  <speed>0.0</speed>
  <fix>3d</fix>
</trkpt>
<trkpt lat="40.0713749" lon="-105.229789">
  <ele>1583.0</ele>
  <time>2026-08-28T17:52:38Z</time>
  <course>247.64</course>
  <speed>0.0316227766016838</speed>
  <fix>3d</fix>
</trkpt>
<trkpt lat="40.0713749" lon="-105.229789">
  <ele>1583.0</ele>
  <time>2026-08-28T17:52:38Z</time>
  <course>0.0</course>
  <speed>0.0</speed>
  <fix>3d</fix>
</trkpt>
<trkpt lat="40.0713749" lon="-105.229789">
  <ele>1583.0</ele>
  <time>2026-08-28T17:52:38Z</time>
  <course>247.64</course>
  <speed>0.0316227766016838</speed>
  <fix>3d</fix>
</trkpt>
<trkpt lat="40.0713749" lon="-105.229789">
  <ele>1583.0</ele>
  <time>2026-08-28T17:52:38Z</time>
  <course>0.0</course>
  <speed>0.0</speed>
  <fix>3d</fix>
</trkpt>
<trkpt lat="40.0713749" lon="-105.229789">
  <ele>1583.0</ele>
  <time>2026-08-28T17:52:38Z</time>
  <course>247.64</course>
  <speed>0.0316227766016838</speed>
  <fix>3d</fix>
</trkpt>
<trkpt lat="40.0713749" lon="-105.229789">
  <ele>1583.0</ele>
  <time>2026-08-28T17:52:38Z</time>
  <course>0.0</course>
  <speed>0.0</speed>
  <fix>3d</fix>
</trkpt>
<trkpt lat="40.0713749" lon="-105.229789">
  <ele>1583.0</ele>
  <time>2026-08-28T17:52:38Z</time>
  <course>247.64</course>
  <speed>0.0316227766016838</speed>
  <fix>3d</fix>
</trkpt>
<trkpt lat="40.0713749" lon="-105.229789">
  <ele>1583.0</ele>
  <time>2026-08-28T17:52:38Z</time>
  <course>0.0</course>
  <speed>0.0</speed>
  <fix>3d</fix>
</trkpt>
<trkpt lat="40.0713749" lon="-105.229789">
  <ele>1583.0</ele>
  <time>2026-08-28T17:52:38Z</time>
  <course>247.63</course>
  <speed>0.0316227766016838</speed>
  <fix>3d</fix>
</trkpt>
<trkpt lat="40.0713749" lon="-105.229789">
  <ele>1583.0</ele>
  <time>2026-08-28T17:52:38Z</time>
  <course>0.0</course>
  <speed>0.0</speed>
  <fix>3d</fix>
</trkpt>
<trkpt lat="40.0713749" lon="-105.229789">
  <ele>1583.0</ele>
  <time>2026-08-28T17:52:38Z</time>
  <course>247.63</course>
  <speed>0.0316227766016838</speed>
  <fix>3d</fix>
</trkpt>
<trkpt lat="40.0713749" lon="-105.229789">
  <ele>1583.0</ele>
  <time>2026-08-28T17:52:38Z</time>
  <course>0.0</course>
  <speed>0.0</speed>
  <fix>3d</fix>
</trkpt>
<trkpt lat="40.0713749" lon="-105.229789">
  <ele>1583.0</ele>
  <time>2026-08-28T17:52:38Z</time>
  <course>247.63</course>
  <speed>0.0316227766016838</speed>
  <fix>3d</fix>
</trkpt>
<trkpt lat="40.0713749" lon="-105.229789">
  <ele>1583.0</ele>
  <time>2026-08-28T17:52:38Z</time>
  <course>0.0</course>
  <speed>0.0</speed>
  <fix>3d</fix>
</trkpt>
<trkpt lat="40.0713749" lon="-105.229789">
  <ele>1583.0</ele>
  <time>2026-08-28T17:52:38Z</time>
  <course>247.62</course>
  <speed>0.0316227766016838</speed>
  <fix>3d</fix>
</trkpt>
<trkpt lat="40.0713749" lon="-105.229789">
  <ele>1583.0</ele>
  <time>2026-08-28T17:52:38Z</time>
  <course>0.0</course>
  <speed>0.0</speed>
  <fix>3d</fix>
</trkpt>
<trkpt lat="40.0713749" lon="-105.229789">
  <ele>1583.0</ele>
  <time>2026-08-28T17:52:38Z</time>
  <course>247.62</course>
  <speed>0.0316227766016838</speed>
  <fix>3d</fix>
</trkpt>
<trkpt lat="40.0713749" lon="-105.229789">
  <ele>1583.0</ele>
  <time>2026-08-28T17:52:38Z</time>
  <course>0.0</course>
  <speed>0.0</speed>
  <fix>3d</fix>
</trkpt>
<trkpt lat="40.0713749" lon="-105.229789">
  <ele>1583.0</ele>
  <time>2026-08-28T17:52:38Z</time>
  <course>247.62</course>
  <speed>0.0316227766016838</speed>
  <fix>3d</fix>
</trkpt>
<trkpt lat="40.0713749" lon="-105.229789">
  <ele>1583.0</ele>
  <time>2026-08-28T17:52:38Z</time>
  <course>0.0</course>
  <speed>0.0</speed>
  <fix>3d</fix>
</trkpt>
<trkpt lat="40.0713749" lon="-105.229789">
  <ele>1583.0</ele>
  <time>2026-08-28T17:52:38Z</time>
  <course>247.62</course>
  <speed>0.0316227766016838</speed>
  <fix>3d</fix>
</trkpt>
<trkpt lat="40.0713749" lon="-105.229789">
  <ele>1583.0</ele>
  <time>2026-08-28T17:52:38Z</time>
  <course>0.0</course>
  <speed>0.0</speed>
  <fix>3d</fix>
</trkpt>
<trkpt lat="40.0713749" lon="-105.229789">
  <ele>1583.0</ele>
  <time>2026-08-28T17:52:38Z</time>
  <course>247.61</course>
  <speed>0.0316227766016838</speed>
  <fix>3d</fix>
</trkpt>
<trkpt lat="40.0713749" lon="-105.229789">
  <ele>1583.0</ele>
  <time>2026-08-28T17:52:38Z</time>
  <course>0.0</course>
  <speed>0.0</speed>
  <fix>3d</fix>
</trkpt>
<trkpt lat="40.0713749" lon="-105.229789">
  <ele>1583.0</ele>
  <time>2026-08-28T17:52:38Z</time>
  <course>247.61</course>
  <speed>0.0316227766016838</speed>
  <fix>3d</fix>
</trkpt>
<trkpt lat="40.0713749" lon="-105.229789">
  <ele>1583.0</ele>
  <time>2026-08-28T17:52:38Z</time>
  <course>0.0</course>
  <speed>0.0</speed>
  <fix>3d</fix>
</trkpt>
<trkpt lat="40.0713749" lon="-105.229789">
  <ele>1583.0</ele>
  <time>2026-08-28T17:52:38Z</time>
  <course>247.61</course>
  <speed>0.0316227766016838</speed>
  <fix>3d</fix>
</trkpt>
<trkpt lat="40.0713749" lon="-105.229789">
  <ele>1583.0</ele>
  <time>2026-08-28T17:52:38Z</time>
  <course>0.0</course>
  <speed>0.0</speed>
  <fix>3d</fix>
</trkpt>
<trkpt lat="40.0713749" lon="-105.229789">
  <ele>1583.0</ele>
  <time>2026-08-28T17:52:38Z</time>
  <course>247.6</course>
  <speed>0.0316227766016838</speed>
  <fix>3d</fix>
</trkpt>
<trkpt lat="40.0713749" lon="-105.229789">
  <ele>1583.0</ele>
  <time>2026-08-28T17:52:38Z</time>
  <course>0.0</course>
  <speed>0.0</speed>
  <fix>3d</fix>
</trkpt>
<trkpt lat="40.0713749" lon="-105.229789">
  <ele>1583.0</ele>
  <time>2026-08-28T17:52:38Z</time>
  <course>247.6</course>
  <speed>0.0316227766016838</speed>
  <fix>3d</fix>
</trkpt>
<trkpt lat="40.0713749" lon="-105.229789">
  <ele>1583.0</ele>
  <time>2026-08-28T17:52:38Z</time>
  <course>0.0</course>
  <speed>0.0</speed>
  <fix>3d</fix>
</trkpt>
<trkpt lat="40.0713749" lon="-105.229789">
  <ele>1583.0</ele>
  <time>2026-08-28T17:52:38Z</time>
  <course>247.6</course>
  <speed>0.0316227766016838</speed>
  <fix>3d</fix>
</trkpt>
<trkpt lat="40.0713749" lon="-105.229789">
  <ele>1583.0</ele>
  <time>2026-08-28T17:52:38Z</time>
  <course>0.0</course>
  <speed>0.0</speed>
  <fix>3d</fix>
</trkpt>
<trkpt lat="40.0713749" lon="-105.229789">
  <ele>1583.0</ele>
  <time>2026-08-28T17:52:38Z</time>
  <course>247.6</course>
  <speed>0.0316227766016838</speed>
  <fix>3d</fix>
</trkpt>
<trkpt lat="40.0713749" lon="-105.229789">
  <ele>1583.0</ele>
  <time>2026-08-28T17:52:38Z</time>
  <course>0.0</course>
  <speed>0.0</speed>
  <fix>3d</fix>
</trkpt>
<trkpt lat="40.0713749" lon="-105.229789">
  <ele>1583.0</ele>
  <time>2026-08-28T17:52:38Z</time>
  <course>247.59</course>
  <speed>0.0316227766016838</speed>
  <fix>3d</fix>
</trkpt>
<trkpt lat="40.0713749" lon="-105.229789">
  <ele>1583.0</ele>
  <time>2026-08-28T17:52:38Z</time>
  <course>0.0</course>
  <speed>0.0</speed>
  <fix>3d</fix>
</trkpt>
<trkpt lat="40.0713749" lon="-105.229789">
  <ele>1582.92</ele>
  <time>2026-08-28T17:52:38Z</time>
  <course>247.59</course>
  <speed>0.0</speed>
  <fix>3d</fix>
</trkpt>
<trkpt lat="40.0713749" lon="-105.229789">
  <ele>1583.0</ele>
  <time>2026-08-28T17:52:38Z</time>
  <course>0.0</course>
  <speed>0.0</speed>
  <fix>3d</fix>
</trkpt>
<trkpt lat="40.0713749" lon="-105.229789">
  <ele>1582.92</ele>
  <time>2026-08-28T17:52:38Z</time>
  <course>247.59</course>
  <speed>0.0</speed>
  <fix>3d</fix>
</trkpt>
<trkpt lat="40.0713749" lon="-105.229789">
  <ele>1583.0</ele>
  <time>2026-08-28T17:52:38Z</time>
  <course>0.0</course>
  <speed>0.0</speed>
  <fix>3d</fix>
</trkpt>
<trkpt lat="40.0713749" lon="-105.229789">
  <ele>1582.91</ele>
  <time>2026-08-28T17:52:38Z</time>
  <course>247.58</course>
  <speed>0.0</speed>
  <fix>3d</fix>
</trkpt>
<trkpt lat="40.0713749" lon="-105.229789">
  <ele>1583.0</ele>
  <time>2026-08-28T17:52:38Z</time>
  <course>0.0</course>
  <speed>0.0</speed>
  <fix>3d</fix>
</trkpt>
<trkpt lat="40.0713749" lon="-105.229789">
  <ele>1582.91</ele>
  <time>2026-08-28T17:52:38Z</time>
  <course>247.58</course>
  <speed>0.0</speed>
  <fix>3d</fix>
</trkpt>
<trkpt lat="40.0713749" lon="-105.229789">
  <ele>1583.0</ele>
  <time>2026-08-28T17:52:38Z</time>
  <course>0.0</course>
  <speed>0.0</speed>
  <fix>3d</fix>
</trkpt>
<trkpt lat="40.0713749" lon="-105.229789">
  <ele>1582.9</ele>
  <time>2026-08-28T17:52:38Z</time>
  <course>247.58</course>
  <speed>0.0</speed>
  <fix>3d</fix>
</trkpt>
<trkpt lat="40.0713749" lon="-105.229789">
  <ele>1583.0</ele>
  <time>2026-08-28T17:52:38Z</time>
  <course>0.0</course>
  <speed>0.0</speed>
  <fix>3d</fix>
</trkpt>
<trkpt lat="40.0713749" lon="-105.229789">
  <ele>1582.9</ele>
  <time>2026-08-28T17:52:38Z</time>
  <course>247.58</course>
  <speed>0.0</speed>
  <fix>3d</fix>
</trkpt>
<trkpt lat="40.0713749" lon="-105.229789">
  <ele>1583.0</ele>
  <time>2026-08-28T17:52:38Z</time>
  <course>0.0</course>
  <speed>0.0</speed>
  <fix>3d</fix>
</trkpt>
<trkpt lat="40.0713749" lon="-105.229789">
  <ele>1582.9</ele>
  <time>2026-08-28T17:52:38Z</time>
  <course>247.57</course>
  <speed>0.0</speed>
  <fix>3d</fix>
</trkpt>
<trkpt lat="40.0713749" lon="-105.229789">
  <ele>1583.0</ele>
  <time>2026-08-28T17:52:38Z</time>
  <course>0.0</course>
  <speed>0.0</speed>
  <fix>3d</fix>
</trkpt>
<trkpt lat="40.0713749" lon="-105.229789">
  <ele>1582.9</ele>
  <time>2026-08-28T17:52:38Z</time>
  <course>247.57</course>
  <speed>0.0</speed>
  <fix>3d</fix>
</trkpt>
<trkpt lat="40.0713749" lon="-105.229789">
  <ele>1583.0</ele>
  <time>2026-08-28T17:52:38Z</time>
  <course>0.0</course>
  <speed>0.0</speed>
  <fix>3d</fix>
</trkpt>
<trkpt lat="40.0713749" lon="-105.229789">
  <ele>1582.9</ele>
  <time>2026-08-28T17:52:38Z</time>
  <course>247.57</course>
  <speed>0.0</speed>
  <fix>3d</fix>
</trkpt>
<trkpt lat="40.0713749" lon="-105.229789">
  <ele>1583.0</ele>
  <time>2026-08-28T17:52:38Z</time>
  <course>0.0</course>
  <speed>0.0</speed>
  <fix>3d</fix>
</trkpt>
<trkpt lat="40.0713749" lon="-105.229789">
  <ele>1582.9</ele>
  <time>2026-08-28T17:52:38Z</time>
  <course>247.57</course>
  <speed>0.01</speed>
  <fix>3d</fix>
</trkpt>
<trkpt lat="40.0713749" lon="-105.229789">
  <ele>1583.0</ele>
  <time>2026-08-28T17:52:38Z</time>
  <course>0.0</course>
  <speed>0.0</speed>
  <fix>3d</fix>
</trkpt>
<trkpt lat="40.0713749" lon="-105.229789">
  <ele>1582.9</ele>
  <time>2026-08-28T17:52:38Z</time>
  <course>247.56</course>
  <speed>0.01</speed>
  <fix>3d</fix>
</trkpt>
<trkpt lat="40.0713749" lon="-105.229789">
  <ele>1583.0</ele>
  <time>2026-08-28T17:52:38Z</time>
  <course>0.0</course>
  <speed>0.0</speed>
  <fix>3d</fix>
</trkpt>
<trkpt lat="40.0713749" lon="-105.229789">
  <ele>1582.91</ele>
  <time>2026-08-28T17:52:38Z</time>
  <course>247.56</course>
  <speed>0.01</speed>
  <fix>3d</fix>
</trkpt>
<trkpt lat="40.0713749" lon="-105.229789">
  <ele>1583.0</ele>
  <time>2026-08-28T17:52:38Z</time>
  <course>0.0</course>
  <speed>0.0</speed>
  <fix>3d</fix>
</trkpt>
<trkpt lat="40.0713749" lon="-105.229789">
  <ele>1582.91</ele>
  <time>2026-08-28T17:52:38Z</time>
  <course>247.56</course>
  <speed>0.01</speed>
  <fix>3d</fix>
</trkpt>
<trkpt lat="40.0713749" lon="-105.229789">
  <ele>1583.0</ele>
  <time>2026-08-28T17:52:38Z</time>
  <course>0.0</course>
  <speed>0.0</speed>
  <fix>3d</fix>
</trkpt>
<trkpt lat="40.0713749" lon="-105.229789">
  <ele>1582.92</ele>
  <time>2026-08-28T17:52:38Z</time>
  <course>247.56</course>
  <speed>0.01</speed>
  <fix>3d</fix>
</trkpt>
<trkpt lat="40.0713749" lon="-105.229789">
  <ele>1583.0</ele>
  <time>2026-08-28T17:52:38Z</time>
  <course>0.0</course>
  <speed>0.0</speed>
  <fix>3d</fix>
</trkpt>
<trkpt lat="40.0713749" lon="-105.229789">
  <ele>1582.92</ele>
  <time>2026-08-28T17:52:38Z</time>
  <course>247.55</course>
  <speed>0.01</speed>
  <fix>3d</fix>
</trkpt>
<trkpt lat="40.0713749" lon="-105.229789">
  <ele>1583.0</ele>
  <time>2026-08-28T17:52:38Z</time>
  <course>0.0</course>
  <speed>0.0</speed>
  <fix>3d</fix>
</trkpt>
<trkpt lat="40.0713749" lon="-105.229789">
  <ele>1582.92</ele>
  <time>2026-08-28T17:52:38Z</time>
  <course>247.55</course>
  <speed>0.01</speed>
  <fix>3d</fix>
</trkpt>
<trkpt lat="40.0713749" lon="-105.229789">
  <ele>1583.0</ele>
  <time>2026-08-28T17:52:38Z</time>
  <course>0.0</course>
  <speed>0.0</speed>
  <fix>3d</fix>
</trkpt>
<trkpt lat="40.0713749" lon="-105.229789">
  <ele>1582.93</ele>
  <time>2026-08-28T17:52:38Z</time>
  <course>247.55</course>
  <speed>0.01</speed>
  <fix>3d</fix>
</trkpt>
<trkpt lat="40.0713749" lon="-105.229789">
  <ele>1583.0</ele>
  <time>2026-08-28T17:52:38Z</time>
  <course>0.0</course>
  <speed>0.0</speed>
  <fix>3d</fix>
</trkpt>
<trkpt lat="40.0713749" lon="-105.229789">
  <ele>1582.93</ele>
  <time>2026-08-28T17:52:38Z</time>
  <course>247.55</course>
  <speed>0.01</speed>
  <fix>3d</fix>
</trkpt>
<trkpt lat="40.0713749" lon="-105.229789">
  <ele>1583.0</ele>
  <time>2026-08-28T17:52:38Z</time>
  <course>0.0</course>
  <speed>0.0</speed>
  <fix>3d</fix>
</trkpt>
<trkpt lat="40.0713749" lon="-105.229789">
  <ele>1582.93</ele>
  <time>2026-08-28T17:52:38Z</time>
  <course>247.54</course>
  <speed>0.01</speed>
  <fix>3d</fix>
</trkpt>
<trkpt lat="40.0713749" lon="-105.229789">
  <ele>1583.0</ele>
  <time>2026-08-28T17:52:38Z</time>
  <course>0.0</course>
  <speed>0.0</speed>
  <fix>3d</fix>
</trkpt>
<trkpt lat="40.0713749" lon="-105.229789">
  <ele>1582.93</ele>
  <time>2026-08-28T17:52:38Z</time>
  <course>247.54</course>
  <speed>0.01</speed>
  <fix>3d</fix>
</trkpt>
<trkpt lat="40.0713749" lon="-105.229789">
  <ele>1583.0</ele>
  <time>2026-08-28T17:52:38Z</time>
  <course>0.0</course>
  <speed>0.0</speed>
  <fix>3d</fix>
</trkpt>
<trkpt lat="40.0713749" lon="-105.229789">
  <ele>1582.94</ele>
  <time>2026-08-28T17:52:38Z</time>
  <course>247.53</course>
  <speed>0.01</speed>
  <fix>3d</fix>
</trkpt>
<trkpt lat="40.0713749" lon="-105.229789">
  <ele>1583.0</ele>
  <time>2026-08-28T17:52:38Z</time>
  <course>245.99</course>
  <speed>0.0</speed>
  <fix>3d</fix>
</trkpt>
<trkpt lat="40.0713749" lon="-105.229789">
  <ele>1582.94</ele>
  <time>2026-08-28T17:52:38Z</time>
  <course>247.51</course>
  <speed>0.01414213562373095</speed>
  <fix>3d</fix>
</trkpt>
<trkpt lat="40.0713749" lon="-105.229789">
  <ele>1583.0</ele>
  <time>2026-08-28T17:52:38Z</time>
  <course>245.97</course>
  <speed>0.01</speed>
  <fix>3d</fix>
</trkpt>
<trkpt lat="40.0713749" lon="-105.229789">
  <ele>1582.94</ele>
  <time>2026-08-28T17:52:38Z</time>
  <course>247.59</course>
  <speed>0.02</speed>
  <fix>3d</fix>
</trkpt>
<trkpt lat="40.0713749" lon="-105.229789">
  <ele>1583.0</ele>
  <time>2026-08-28T17:52:38Z</time>
  <course>245.97</course>
  <speed>0.01</speed>
  <fix>3d</fix>
</trkpt>
<trkpt lat="40.0713749" lon="-105.229789">
  <ele>1582.95</ele>
  <time>2026-08-28T17:52:38Z</time>
  <course>247.76</course>
  <speed>0.04</speed>
  <fix>3d</fix>
</trkpt>
<trkpt lat="40.0713749" lon="-105.229789">
  <ele>1583.0</ele>
  <time>2026-08-28T17:52:38Z</time>
  <course>246.15</course>
  <speed>0.04</speed>
  <fix>3d</fix>
</trkpt>
<trkpt lat="40.0713749" lon="-105.2297891">
  <ele>1582.95</ele>
  <time>2026-08-28T17:52:38Z</time>
  <course>248.05</course>
  <speed>0.07071067811865475</speed>
  <fix>3d</fix>
</trkpt>
<trkpt lat="40.0713749" lon="-105.229789">
  <ele>1583.0</ele>
  <time>2026-08-28T17:52:38Z</time>
  <course>246.15</course>
  <speed>0.04</speed>
  <fix>3d</fix>
</trkpt>
<trkpt lat="40.0713749" lon="-105.2297892">
  <ele>1582.95</ele>
  <time>2026-08-28T17:52:38Z</time>
  <course>248.53</course>
  <speed>0.1019803902718557</speed>
  <fix>3d</fix>
</trkpt>
<trkpt lat="40.0713749" lon="-105.2297892">
  <ele>1583.0</ele>
  <time>2026-08-28T17:52:38Z</time>
  <course>246.75</course>
  <speed>0.09</speed>
  <fix>3d</fix>
</trkpt>
<trkpt lat="40.0713749" lon="-105.2297894">
  <ele>1582.96</ele>
  <time>2026-08-28T17:52:38Z</time>
  <course>249.25</course>
  <speed>0.14317821063276354</speed>
  <fix>3d</fix>
</trkpt>
<trkpt lat="40.0713749" lon="-105.2297892">
  <ele>1583.0</ele>
  <time>2026-08-28T17:52:38Z</time>
  <course>246.75</course>
  <speed>0.09</speed>
  <fix>3d</fix>
</trkpt>
<trkpt lat="40.0713748" lon="-105.2297896">
  <ele>1582.96</ele>
  <time>2026-08-28T17:52:38Z</time>
  <course>250.26</course>
  <speed>0.196468827043885</speed>
  <fix>3d</fix>
</trkpt>
<trkpt lat="40.0713748" lon="-105.2297894">
  <ele>1583.0</ele>
  <time>2026-08-28T17:52:38Z</time>
  <course>248.1</course>
  <speed>0.16</speed>
  <fix>3d</fix>
</trkpt>
<trkpt lat="40.0713748" lon="-105.2297899">
  <ele>1582.96</ele>
  <time>2026-08-28T17:52:38Z</time>
  <course>251.64</course>
  <speed>0.23769728648009425</speed>
  <fix>3d</fix>
</trkpt>
<trkpt lat="40.0713748" lon="-105.2297894">
  <ele>1583.0</ele>
  <time>2026-08-28T17:52:38Z</time>
  <course>248.1</course>
  <speed>0.16</speed>
  <fix>3d</fix>
</trkpt>
<trkpt lat="40.0713747" lon="-105.2297902">
  <ele>1582.96</ele>
  <time>2026-08-28T17:52:38Z</time>
  <course>253.41</course>
  <speed>0.29832867780352595</speed>
  <fix>3d</fix>
</trkpt>
<trkpt lat="40.0713747" lon="-105.2297898">
  <ele>1583.0</ele>
  <time>2026-08-28T17:52:38Z</time>
  <course>250.62</course>
  <speed>0.25</speed>
  <fix>3d</fix>
</trkpt>
<trkpt lat="40.0713746" lon="-105.2297906">
  <ele>1582.96</ele>
  <time>2026-08-28T17:52:38Z</time>
  <course>255.51</course>
  <speed>0.34713109915419565</speed>
  <fix>3d</fix>
</trkpt>
<trkpt lat="40.0713747" lon="-105.2297898">
  <ele>1583.0</ele>
  <time>2026-08-28T17:52:38Z</time>
  <course>250.62</course>
  <speed>0.25</speed>
  <fix>3d</fix>
</trkpt>
<trkpt lat="40.0713745" lon="-105.229791">
  <ele>1582.96</ele>
  <time>2026-08-28T17:52:38Z</time>
  <course>257.95</course>
  <speed>0.40607881008493907</speed>
  <fix>3d</fix>
</trkpt>
<trkpt lat="40.0713746" lon="-105.2297906">
  <ele>1583.0</ele>
  <time>2026-08-28T17:52:38Z</time>
  <course>254.51</course>
  <speed>0.35</speed>
  <fix>3d</fix>
</trkpt>
<trkpt lat="40.0713744" lon="-105.2297916">
  <ele>1582.95</ele>
  <time>2026-08-28T17:52:38Z</time>
  <course>260.74</course>
  <speed>0.46389654018972803</speed>
  <fix>3d</fix>
</trkpt>
<trkpt lat="40.0713746" lon="-105.2297906">
  <ele>1583.0</ele>
  <time>2026-08-28T17:52:38Z</time>
  <course>254.51</course>
  <speed>0.35</speed>
  <fix>3d</fix>
</trkpt>
<trkpt lat="40.0713744" lon="-105.2297922">
  <ele>1582.95</ele>
  <time>2026-08-28T17:52:38Z</time>
  <course>263.86</course>
  <speed>0.521536192416212</speed>
  <fix>3d</fix>
</trkpt>
<trkpt lat="40.0713743" lon="-105.2297915">
  <ele>1583.0</ele>
  <time>2026-08-28T17:52:38Z</time>
  <course>259.75</course>
  <speed>0.46</speed>
  <fix>3d</fix>
</trkpt>
<trkpt lat="40.0713743" lon="-105.2297928">
  <ele>1582.95</ele>
  <time>2026-08-28T17:52:38Z</time>
  <course>267.32</course>
  <speed>0.570087712549569</speed>
  <fix>3d</fix>
</trkpt>
<trkpt lat="40.0713743" lon="-105.2297915">
  <ele>1583.0</ele>
  <time>2026-08-28T17:52:38Z</time>
  <course>259.75</course>
  <speed>0.46</speed>
  <fix>3d</fix>
</trkpt>
<trkpt lat="40.0713743" lon="-105.2297936">
  <ele>1582.95</ele>
  <time>2026-08-28T17:52:38Z</time>
  <course>271.1</course>
  <speed>0.630317380372777</speed>
  <fix>3d</fix>
</trkpt>
<trkpt lat="40.0713743" lon="-105.2297915">
  <ele>1583.0</ele>
  <time>2026-08-28T17:52:38Z</time>
  <course>259.75</course>
  <speed>0.46</speed>
  <fix>3d</fix>
</trkpt>
<trkpt lat="40.0713744" lon="-105.2297943">
  <ele>1582.95</ele>
  <time>2026-08-28T17:52:38Z</time>
  <course>275.2</course>
  <speed>0.6736467917239716</speed>
  <fix>3d</fix>
</trkpt>
<trkpt lat="40.0713742" lon="-105.2297927">
  <ele>1583.0</ele>
  <time>2026-08-28T17:52:38Z</time>
  <course>266.35</course>
  <speed>0.56</speed>
  <fix>3d</fix>
</trkpt>
<trkpt lat="40.0713744" lon="-105.2297952">
  <ele>1582.95</ele>
  <time>2026-08-28T17:52:38Z</time>
  <course>279.59</course>
  <speed>0.7218032973047436</speed>
  <fix>3d</fix>
</trkpt>
<trkpt lat="40.0713742" lon="-105.2297927">
  <ele>1583.0</ele>
  <time>2026-08-28T17:52:38Z</time>
  <course>266.35</course>
  <speed>0.56</speed>
  <fix>3d</fix>
</trkpt>
<trkpt lat="40.0713746" lon="-105.229796">
  <ele>1582.95</ele>
  <time>2026-08-28T17:52:38Z</time>
  <course>284.22</course>
  <speed>0.7543208866258443</speed>
  <fix>3d</fix>
</trkpt>
<trkpt lat="40.0713743" lon="-105.2297941">
  <ele>1583.0</ele>
  <time>2026-08-28T17:52:38Z</time>
  <course>274.21</course>
  <speed>0.66</speed>
  <fix>3d</fix>
</trkpt>
<trkpt lat="40.0713747" lon="-105.2297969">
  <ele>1582.95</ele>
  <time>2026-08-28T17:52:38Z</time>
  <course>288.95</course>
  <speed>0.7527283706623525</speed>
  <fix>3d</fix>
</trkpt>
<trkpt lat="40.0713743" lon="-105.2297941">
  <ele>1583.0</ele>
  <time>2026-08-28T17:52:38Z</time>
  <course>274.21</course>
  <speed>0.66</speed>
  <fix>3d</fix>
</trkpt>
<trkpt lat="40.0713749" lon="-105.2297977">
  <ele>1582.95</ele>
  <time>2026-08-28T17:52:38Z</time>
  <course>293.18</course>
  <speed>0.7392563831310488</speed>
  <fix>3d</fix>
</trkpt>
<trkpt lat="40.0713745" lon="-105.2297958">
  <ele>1583.0</ele>
  <time>2026-08-28T17:52:38Z</time>
  <course>282.97</course>
  <speed>0.72</speed>
  <fix>3d</fix>
</trkpt>
<trkpt lat="40.0713752" lon="-105.2297984">
  <ele>1582.95</ele>
  <time>2026-08-28T17:52:38Z</time>
  <course>296.5</course>
  <speed>0.7066116330771806</speed>
  <fix>3d</fix>
</trkpt>
<trkpt lat="40.0713745" lon="-105.2297958">
  <ele>1583.0</ele>
  <time>2026-08-28T17:52:38Z</time>
  <course>282.97</course>
  <speed>0.72</speed>
  <fix>3d</fix>
</trkpt>
<trkpt lat="40.0713754" lon="-105.2297991">
  <ele>1582.95</ele>
  <time>2026-08-28T17:52:38Z</time>
  <course>298.94</course>
  <speed>0.6536818798161687</speed>
  <fix>3d</fix>
</trkpt>
<trkpt lat="40.0713748" lon="-105.2297974">
  <ele>1583.0</ele>
  <time>2026-08-28T17:52:38Z</time>
  <course>291.19</course>
  <speed>0.71</speed>
  <fix>3d</fix>
</trkpt>
<trkpt lat="40.0713757" lon="-105.2297997">
  <ele>1582.95</ele>
  <time>2026-08-28T17:52:38Z</time>
  <course>300.48</course>
  <speed>0.58309518948453</speed>
  <fix>3d</fix>
</trkpt>
<trkpt lat="40.0713753" lon="-105.2297988">
  <ele>1583.0</ele>
  <time>2026-08-28T17:52:38Z</time>
  <course>296.88</course>
  <speed>0.63</speed>
  <fix>3d</fix>
</trkpt>
<trkpt lat="40.0713759" lon="-105.2298002">
  <ele>1582.96</ele>
  <time>2026-08-28T17:52:38Z</time>
  <course>301.23</course>
  <speed>0.4939635614091387</speed>
  <fix>3d</fix>
</trkpt>
<trkpt lat="40.0713753" lon="-105.2297988">
  <ele>1583.0</ele>
  <time>2026-08-28T17:52:38Z</time>
  <course>296.88</course>
  <speed>0.63</speed>
  <fix>3d</fix>
</trkpt>
<trkpt lat="40.0713761" lon="-105.2298007">
  <ele>1582.97</ele>
  <time>2026-08-28T17:52:38Z</time>
  <course>301.34</course>
  <speed>0.4219004621945798</speed>
  <fix>3d</fix>
</trkpt>
<trkpt lat="40.0713758" lon="-105.2298">
  <ele>1583.0</ele>
  <time>2026-08-28T17:52:38Z</time>
  <course>299.42</course>
  <speed>0.49</speed>
  <fix>3d</fix>
</trkpt>
<trkpt lat="40.0713763" lon="-105.229801">
  <ele>1582.97</ele>
  <time>2026-08-28T17:52:38Z</time>
  <course>301.27</course>
  <speed>0.34132096331752027</speed>
  <fix>3d</fix>
</trkpt>
<trkpt lat="40.0713758" lon="-105.2298">
  <ele>1583.0</ele>
  <time>2026-08-28T17:52:38Z</time>
  <course>299.42</course>
  <speed>0.49</speed>
  <fix>3d</fix>
</trkpt>
<trkpt lat="40.0713764" lon="-105.2298013">
  <ele>1582.98</ele>
  <time>2026-08-28T17:52:38Z</time>
  <course>301.22</course>
  <speed>0.2778488797889961</speed>
  <fix>3d</fix>
</trkpt>
<trkpt lat="40.0713761" lon="-105.2298009">
  <ele>1583.0</ele>
  <time>2026-08-28T17:52:38Z</time>
  <course>299.87</course>
  <speed>0.34</speed>
  <fix>3d</fix>
</trkpt>
<trkpt lat="40.0713765" lon="-105.2298016">
  <ele>1582.98</ele>
  <time>2026-08-28T17:52:38Z</time>
  <course>301.17</course>
  <speed>0.2109502310972899</speed>
  <fix>3d</fix>
</trkpt>
<trkpt lat="40.0713761" lon="-105.2298009">
  <ele>1583.0</ele>
  <time>2026-08-28T17:52:38Z</time>
  <course>299.87</course>
  <speed>0.34</speed>
  <fix>3d</fix>
</trkpt>
<trkpt lat="40.0713766" lon="-105.2298017">
  <ele>1582.98</ele>
  <time>2026-08-28T17:52:38Z</time>
  <course>301.14</course>
  <speed>0.16124515496597097</speed>
  <fix>3d</fix>
</trkpt>
<trkpt lat="40.0713764" lon="-105.2298014">
  <ele>1583.0</ele>
  <time>2026-08-28T17:52:38Z</time>
  <course>299.77</course>
  <speed>0.21</speed>
  <fix>3d</fix>
</trkpt>
<trkpt lat="40.0713766" lon="-105.2298018">
  <ele>1582.98</ele>
  <time>2026-08-28T17:52:38Z</time>
  <course>301.11</course>
  <speed>0.10816653826391968</speed>
  <fix>3d</fix>
</trkpt>
<trkpt lat="40.0713764" lon="-105.2298014">
  <ele>1583.0</ele>
  <time>2026-08-28T17:52:38Z</time>
  <course>299.77</course>
  <speed>0.21</speed>
  <fix>3d</fix>
</trkpt>
<trkpt lat="40.0713766" lon="-105.2298019">
  <ele>1582.98</ele>
  <time>2026-08-28T17:52:38Z</time>
  <course>301.09</course>
  <speed>0.0670820393249937</speed>
  <fix>3d</fix>
</trkpt>
<trkpt lat="40.0713765" lon="-105.2298017">
  <ele>1583.0</ele>
  <time>2026-08-28T17:52:38Z</time>
  <course>299.7</course>
  <speed>0.11</speed>
  <fix>3d</fix>
</trkpt>
<trkpt lat="40.0713766" lon="-105.229802">
  <ele>1582.98</ele>
  <time>2026-08-28T17:52:38Z</time>
  <course>301.08</course>
  <speed>0.0316227766016838</speed>
  <fix>3d</fix>
</trkpt>
<trkpt lat="40.0713765" lon="-105.2298017">
  <ele>1583.0</ele>
  <time>2026-08-28T17:52:38Z</time>
  <course>299.7</course>
  <speed>0.11</speed>
  <fix>3d</fix>
</trkpt>
<trkpt lat="40.0713766" lon="-105.229802">
  <ele>1582.98</ele>
  <time>2026-08-28T17:52:38Z</time>
  <course>301.07</course>
  <speed>0.0</speed>
  <fix>3d</fix>
</trkpt>
<trkpt lat="40.0713766" lon="-105.2298019">
  <ele>1583.0</ele>
  <time>2026-08-28T17:52:38Z</time>
  <course>299.67</course>
  <speed>0.04</speed>
  <fix>3d</fix>
</trkpt>
<trkpt lat="40.0713766" lon="-105.2298019">
  <ele>1582.98</ele>
  <time>2026-08-28T17:52:38Z</time>
  <course>301.07</course>
  <speed>0.01</speed>
  <fix>3d</fix>
</trkpt>
<trkpt lat="40.0713766" lon="-105.2298019">
  <ele>1583.0</ele>
  <time>2026-08-28T17:52:38Z</time>
  <course>299.67</course>
  <speed>0.04</speed>
  <fix>3d</fix>
</trkpt>
<trkpt lat="40.0713766" lon="-105.2298019">
  <ele>1582.98</ele>
  <time>2026-08-28T17:52:38Z</time>
  <course>301.07</course>
  <speed>0.022360679774997897</speed>
  <fix>3d</fix>
</trkpt>
<trkpt lat="40.0713766" lon="-105.2298019">
  <ele>1583.0</ele>
  <time>2026-08-28T17:52:38Z</time>
  <course>119.65</course>
  <speed>0.01</speed>
  <fix>3d</fix>
</trkpt>
<trkpt lat="40.0713766" lon="-105.2298018">
  <ele>1582.98</ele>
  <time>2026-08-28T17:52:38Z</time>
  <course>301.06</course>
  <speed>0.03605551275463989</speed>
  <fix>3d</fix>
</trkpt>
<trkpt lat="40.0713766" lon="-105.2298019">
  <ele>1583.0</ele>
  <time>2026-08-28T17:52:38Z</time>
  <course>119.65</course>
  <speed>0.01</speed>
  <fix>3d</fix>
</trkpt>
<trkpt lat="40.0713765" lon="-105.2298018">
  <ele>1582.98</ele>
  <time>2026-08-28T17:52:38Z</time>
  <course>301.04</course>
  <speed>0.044721359549995794</speed>
  <fix>3d</fix>
</trkpt>
<trkpt lat="40.0713766" lon="-105.2298019">
  <ele>1583.0</ele>
  <time>2026-08-28T17:52:38Z</time>
  <course>119.65</course>
  <speed>0.01</speed>
  <fix>3d</fix>
</trkpt>
<trkpt lat="40.0713765" lon="-105.2298017">
  <ele>1582.98</ele>
  <time>2026-08-28T17:52:38Z</time>
  <course>301.03</course>
  <speed>0.044721359549995794</speed>
  <fix>3d</fix>
</trkpt>
<trkpt lat="40.0713766" lon="-105.2298019">
  <ele>1583.0</ele>
  <time>2026-08-28T17:52:38Z</time>
  <course>119.63</course>
  <speed>0.04</speed>
  <fix>3d</fix>
</trkpt>
<trkpt lat="40.0713766" lon="-105.2298018">
  <ele>1582.98</ele>
  <time>2026-08-28T17:52:38Z</time>
  <course>301.01</course>
  <speed>0.053851648071345036</speed>
  <fix>3d</fix>
</trkpt>
<trkpt lat="40.0713766" lon="-105.2298019">
  <ele>1583.0</ele>
  <time>2026-08-28T17:52:38Z</time>
  <course>119.63</course>
  <speed>0.04</speed>
  <fix>3d</fix>
</trkpt>
<trkpt lat="40.0713766" lon="-105.2298017">
  <ele>1582.98</ele>
  <time>2026-08-28T17:52:38Z</time>
  <course>301.0</course>
  <speed>0.044721359549995794</speed>
  <fix>3d</fix>
</trkpt>
<trkpt lat="40.0713766" lon="-105.2298019">
  <ele>1583.0</ele>
  <time>2026-08-28T17:52:38Z</time>
  <course>119.61</course>
  <speed>0.05</speed>
  <fix>3d</fix>
</trkpt>
<trkpt lat="40.0713765" lon="-105.2298017">
  <ele>1582.98</ele>
  <time>2026-08-28T17:52:38Z</time>
  <course>300.98</course>
  <speed>0.044721359549995794</speed>
  <fix>3d</fix>
</trkpt>
<trkpt lat="40.0713766" lon="-105.2298019">
  <ele>1583.0</ele>
  <time>2026-08-28T17:52:38Z</time>
  <course>119.61</course>
  <speed>0.05</speed>
  <fix>3d</fix>
</trkpt>
<trkpt lat="40.0713765" lon="-105.2298016">
  <ele>1582.98</ele>
  <time>2026-08-28T17:52:38Z</time>
  <course>300.97</course>
  <speed>0.044721359549995794</speed>
  <fix>3d</fix>
</trkpt>
<trkpt lat="40.0713766" lon="-105.2298018">
  <ele>1583.0</ele>
  <time>2026-08-28T17:52:38Z</time>
  <course>119.58</course>
  <speed>0.05</speed>
  <fix>3d</fix>
</trkpt>
<trkpt lat="40.0713765" lon="-105.2298016">
  <ele>1582.98</ele>
  <time>2026-08-28T17:52:38Z</time>
  <course>300.95</course>
  <speed>0.0316227766016838</speed>
  <fix>3d</fix>
</trkpt>
<trkpt lat="40.0713765" lon="-105.2298017">
  <ele>1583.0</ele>
  <time>2026-08-28T17:52:38Z</time>
  <course>119.55</course>
  <speed>0.04</speed>
  <fix>3d</fix>
</trkpt>
<trkpt lat="40.0713765" lon="-105.2298015">
  <ele>1582.98</ele>
  <time>2026-08-28T17:52:38Z</time>
  <course>300.94</course>
  <speed>0.0316227766016838</speed>
  <fix>3d</fix>
</trkpt>
<trkpt lat="40.0713765" lon="-105.2298017">
  <ele>1583.0</ele>
  <time>2026-08-28T17:52:38Z</time>
  <course>119.55</course>
  <speed>0.04</speed>
  <fix>3d</fix>
</trkpt>
<trkpt lat="40.0713765" lon="-105.2298015">
  <ele>1582.98</ele>
  <time>2026-08-28T17:52:38Z</time>
  <course>300.93</course>
  <speed>0.02</speed>
  <fix>3d</fix>
</trkpt>
<trkpt lat="40.0713765" lon="-105.2298016">
  <ele>1583.0</ele>
  <time>2026-08-28T17:52:38Z</time>
  <course>119.53</course>
  <speed>0.03</speed>
  <fix>3d</fix>
</trkpt>
<trkpt lat="40.0713765" lon="-105.2298015">
  <ele>1582.98</ele>
  <time>2026-08-28T17:52:38Z</time>
  <course>300.92</course>
  <speed>0.01</speed>
  <fix>3d</fix>
</trkpt>
<trkpt lat="40.0713765" lon="-105.2298016">
  <ele>1583.0</ele>
  <time>2026-08-28T17:52:38Z</time>
  <course>119.53</course>
  <speed>0.03</speed>
  <fix>3d</fix>
</trkpt>
<trkpt lat="40.0713765" lon="-105.2298015">
  <ele>1582.98</ele>
  <time>2026-08-28T17:52:38Z</time>
  <course>300.92</course>
  <speed>0.0</speed>
  <fix>3d</fix>
</trkpt>
<trkpt lat="40.0713765" lon="-105.2298016">
  <ele>1583.0</ele>
  <time>2026-08-28T17:52:38Z</time>
  <course>119.51</course>
  <speed>0.01</speed>
  <fix>3d</fix>
</trkpt>
<trkpt lat="40.0713765" lon="-105.2298015">
  <ele>1582.99</ele>
  <time>2026-08-28T17:52:38Z</time>
  <course>300.92</course>
  <speed>0.0</speed>
  <fix>3d</fix>
</trkpt>
<trkpt lat="40.0713765" lon="-105.2298016">
  <ele>1583.0</ele>
  <time>2026-08-28T17:52:38Z</time>
  <course>119.51</course>
  <speed>0.01</speed>
  <fix>3d</fix>
</trkpt>
<trkpt lat="40.0713765" lon="-105.2298015">
  <ele>1582.99</ele>
  <time>2026-08-28T17:52:38Z</time>
  <course>300.92</course>
  <speed>0.01414213562373095</speed>
  <fix>3d</fix>
</trkpt>
<trkpt lat="40.0713765" lon="-105.2298016">
  <ele>1583.0</ele>
  <time>2026-08-28T17:52:38Z</time>
  <course>299.47</course>
  <speed>0.0</speed>
  <fix>3d</fix>
</trkpt>
<trkpt lat="40.0713765" lon="-105.2298015">
  <ele>1582.99</ele>
  <time>2026-08-28T17:52:38Z</time>
  <course>300.91</course>
  <speed>0.0282842712474619</speed>
  <fix>3d</fix>
</trkpt>
<trkpt lat="40.0713765" lon="-105.2298016">
  <ele>1583.0</ele>
  <time>2026-08-28T17:52:38Z</time>
  <course>299.47</course>
  <speed>0.0</speed>
  <fix>3d</fix>
</trkpt>
<trkpt lat="40.0713765" lon="-105.2298015">
  <ele>1582.99</ele>
  <time>2026-08-28T17:52:38Z</time>
  <course>300.9</course>
  <speed>0.0282842712474619</speed>
  <fix>3d</fix>
</trkpt>
<trkpt lat="40.0713765" lon="-105.2298016">
  <ele>1583.0</ele>
  <time>2026-08-28T17:52:38Z</time>
  <course>299.48</course>
  <speed>0.02</speed>
  <fix>3d</fix>
</trkpt>
<trkpt lat="40.0713765" lon="-105.2298015">
  <ele>1583.0</ele>
  <time>2026-08-28T17:52:38Z</time>
  <course>300.89</course>
  <speed>0.04242640687119285</speed>
  <fix>3d</fix>
</trkpt>
<trkpt lat="40.0713765" lon="-105.2298016">
  <ele>1583.0</ele>
  <time>2026-08-28T17:52:38Z</time>
  <course>299.48</course>
  <speed>0.02</speed>
  <fix>3d</fix>
</trkpt>
<trkpt lat="40.0713765" lon="-105.2298016">
  <ele>1583.0</ele>
  <time>2026-08-28T17:52:38Z</time>
  <course>300.87</course>
  <speed>0.05</speed>
  <fix>3d</fix>
</trkpt>
<trkpt lat="40.0713765" lon="-105.2298016">
  <ele>1583.0</ele>
  <time>2026-08-28T17:52:38Z</time>
  <course>299.46</course>
  <speed>0.04</speed>
  <fix>3d</fix>
</trkpt>
<trkpt lat="40.0713765" lon="-105.2298017">
  <ele>1583.0</ele>
  <time>2026-08-28T17:52:38Z</time>
  <course>300.85</course>
  <speed>0.06403124237432849</speed>
  <fix>3d</fix>
</trkpt>
<trkpt lat="40.0713765" lon="-105.2298016">
  <ele>1583.0</ele>
  <time>2026-08-28T17:52:38Z</time>
  <course>299.46</course>
  <speed>0.04</speed>
  <fix>3d</fix>
</trkpt>
<trkpt lat="40.0713766" lon="-105.2298017">
  <ele>1583.0</ele>
  <time>2026-08-28T17:52:38Z</time>
  <course>300.82</course>
  <speed>0.07211102550927978</speed>
  <fix>3d</fix>
</trkpt>
<trkpt lat="40.0713765" lon="-105.2298016">
  <ele>1583.0</ele>
  <time>2026-08-28T17:52:38Z</time>
  <course>299.42</course>
  <speed>0.06</speed>
  <fix>3d</fix>
</trkpt>
<trkpt lat="40.0713766" lon="-105.2298018">
  <ele>1583.0</ele>
  <time>2026-08-28T17:52:38Z</time>
  <course>300.79</course>
  <speed>0.07810249675906654</speed>
  <fix>3d</fix>
</trkpt>
<trkpt lat="40.0713765" lon="-105.2298016">
  <ele>1583.0</ele>
  <time>2026-08-28T17:52:38Z</time>
  <course>299.42</course>
  <speed>0.06</speed>
  <fix>3d</fix>
</trkpt>
<trkpt lat="40.0713767" lon="-105.2298019">
  <ele>1583.0</ele>
  <time>2026-08-28T17:52:38Z</time>
  <course>300.76</course>
  <speed>0.07810249675906654</speed>
  <fix>3d</fix>
</trkpt>
<trkpt lat="40.0713765" lon="-105.2298016">
  <ele>1583.0</ele>
  <time>2026-08-28T17:52:38Z</time>
  <course>299.42</course>
  <speed>0.06</speed>
  <fix>3d</fix>
</trkpt>
<trkpt lat="40.0713767" lon="-105.229802">
  <ele>1583.01</ele>
  <time>2026-08-28T17:52:38Z</time>
  <course>300.73</course>
  <speed>0.08602325267042626</speed>
  <fix>3d</fix>
</trkpt>
<trkpt lat="40.0713765" lon="-105.2298017">
  <ele>1583.0</ele>
  <time>2026-08-28T17:52:38Z</time>
  <course>299.37</course>
  <speed>0.07</speed>
  <fix>3d</fix>
</trkpt>
<trkpt lat="40.0713767" lon="-105.2298021">
  <ele>1583.0</ele>
  <time>2026-08-28T17:52:38Z</time>
  <course>300.69</course>
  <speed>0.08602325267042626</speed>
  <fix>3d</fix>
</trkpt>
<trkpt lat="40.0713765" lon="-105.2298017">
  <ele>1583.0</ele>
  <time>2026-08-28T17:52:38Z</time>
  <course>299.37</course>
  <speed>0.07</speed>
  <fix>3d</fix>
</trkpt>
<trkpt lat="40.0713768" lon="-105.2298021">
  <ele>1583.0</ele>
  <time>2026-08-28T17:52:38Z</time>
  <course>300.65</course>
  <speed>0.1</speed>
  <fix>3d</fix>
</trkpt>
<trkpt lat="40.0713766" lon="-105.229802">
  <ele>1583.0</ele>
  <time>2026-08-28T17:52:38Z</time>
  <course>299.3</course>
  <speed>0.08</speed>
  <fix>3d</fix>
</trkpt>
<trkpt lat="40.0713768" lon="-105.2298022">
  <ele>1583.0</ele>
  <time>2026-08-28T17:52:38Z</time>
  <course>300.61</course>
  <speed>0.1</speed>
  <fix>3d</fix>
</trkpt>
<trkpt lat="40.0713766" lon="-105.229802">
  <ele>1583.0</ele>
  <time>2026-08-28T17:52:38Z</time>
  <course>299.3</course>
  <speed>0.08</speed>
  <fix>3d</fix>
</trkpt>
<trkpt lat="40.0713769" lon="-105.2298023">
  <ele>1583.01</ele>
  <time>2026-08-28T17:52:38Z</time>
  <course>300.57</course>
  <speed>0.1</speed>
  <fix>3d</fix>
</trkpt>
<trkpt lat="40.0713766" lon="-105.2298022">
  <ele>1583.0</ele>
  <time>2026-08-28T17:52:38Z</time>
  <course>299.23</course>
  <speed>0.09</speed>
  <fix>3d</fix>
</trkpt>
<trkpt lat="40.0713769" lon="-105.2298024">
  <ele>1583.01</ele>
  <time>2026-08-28T17:52:38Z</time>
  <course>300.52</course>
  <speed>0.10816653826391968</speed>
  <fix>3d</fix>
</trkpt>
<trkpt lat="40.0713766" lon="-105.2298022">
  <ele>1583.0</ele>
  <time>2026-08-28T17:52:38Z</time>
  <course>299.23</course>
  <speed>0.09</speed>
  <fix>3d</fix>
</trkpt>
<trkpt lat="40.0713769" lon="-105.2298026">
  <ele>1583.01</ele>
  <time>2026-08-28T17:52:38Z</time>
  <course>300.48</course>
  <speed>0.10816653826391968</speed>
  <fix>3d</fix>
</trkpt>
<trkpt lat="40.0713767" lon="-105.2298023">
  <ele>1583.0</ele>
  <time>2026-08-28T17:52:38Z</time>
  <course>299.14</course>
  <speed>0.1</speed>
  <fix>3d</fix>
</trkpt>
<trkpt lat="40.071377" lon="-105.2298027">
  <ele>1583.01</ele>
  <time>2026-08-28T17:52:38Z</time>
  <course>300.43</course>
  <speed>0.10816653826391968</speed>
  <fix>3d</fix>
</trkpt>
<trkpt lat="40.0713768" lon="-105.2298026">
  <ele>1583.0</ele>
  <time>2026-08-28T17:52:38Z</time>
  <course>299.05</course>
  <speed>0.11</speed>
  <fix>3d</fix>
</trkpt>
<trkpt lat="40.071377" lon="-105.2298028">
  <ele>1583.01</ele>
  <time>2026-08-28T17:52:38Z</time>
  <course>300.38</course>
  <speed>0.12206555615733702</speed>
  <fix>3d</fix>
</trkpt>
<trkpt lat="40.0713768" lon="-105.2298026">
  <ele>1583.0</ele>
  <time>2026-08-28T17:52:38Z</time>
  <course>299.05</course>
  <speed>0.11</speed>
  <fix>3d</fix>
</trkpt>
<trkpt lat="40.0713771" lon="-105.2298029">
  <ele>1583.0</ele>
  <time>2026-08-28T17:52:38Z</time>
  <course>300.33</course>
  <speed>0.12206555615733702</speed>
  <fix>3d</fix>
</trkpt>
<trkpt lat="40.0713769" lon="-105.2298028">
  <ele>1583.0</ele>
  <time>2026-08-28T17:52:38Z</time>
  <course>298.96</course>
  <speed>0.12</speed>
  <fix>3d</fix>
</trkpt>
<trkpt lat="40.0713771" lon="-105.229803">
  <ele>1583.0</ele>
  <time>2026-08-28T17:52:38Z</time>
  <course>300.28</course>
  <speed>0.12206555615733702</speed>
  <fix>3d</fix>
</trkpt>
<trkpt lat="40.0713769" lon="-105.2298028">
  <ele>1583.0</ele>
  <time>2026-08-28T17:52:38Z</time>
  <course>298.96</course>
  <speed>0.12</speed>
  <fix>3d</fix>
</trkpt>
<trkpt lat="40.0713772" lon="-105.2298032">
  <ele>1583.0</ele>
  <time>2026-08-28T17:52:38Z</time>
  <course>300.23</course>
  <speed>0.12206555615733702</speed>
  <fix>3d</fix>
</trkpt>
<trkpt lat="40.0713771" lon="-105.2298031">
  <ele>1583.0</ele>
  <time>2026-08-28T17:52:38Z</time>
  <course>298.85</course>
  <speed>0.13</speed>
  <fix>3d</fix>
</trkpt>
<trkpt lat="40.0713772" lon="-105.2298033">
  <ele>1583.0</ele>
  <time>2026-08-28T17:52:38Z</time>
  <course>300.18</course>
  <speed>0.130384048104053</speed>
  <fix>3d</fix>
</trkpt>
<trkpt lat="40.0713771" lon="-105.2298031">
  <ele>1583.0</ele>
  <time>2026-08-28T17:52:38Z</time>
  <course>298.85</course>
  <speed>0.13</speed>
  <fix>3d</fix>
</trkpt>
<trkpt lat="40.0713773" lon="-105.2298034">
  <ele>1583.0</ele>
  <time>2026-08-28T17:52:38Z</time>
  <course>300.12</course>
  <speed>0.130384048104053</speed>
  <fix>3d</fix>
</trkpt>
<trkpt lat="40.0713772" lon="-105.2298034">
  <ele>1583.0</ele>
  <time>2026-08-28T17:52:38Z</time>
  <course>298.75</course>
  <speed>0.13</speed>
  <fix>3d</fix>
</trkpt>
<trkpt lat="40.0713773" lon="-105.2298036">
  <ele>1583.0</ele>
  <time>2026-08-28T17:52:38Z</time>
  <course>300.06</course>
  <speed>0.130384048104053</speed>
  <fix>3d</fix>
</trkpt>
<trkpt lat="40.0713772" lon="-105.2298034">
  <ele>1583.0</ele>
  <time>2026-08-28T17:52:38Z</time>
  <course>298.75</course>
  <speed>0.13</speed>
  <fix>3d</fix>
</trkpt>
<trkpt lat="40.0713774" lon="-105.2298037">
  <ele>1583.01</ele>
  <time>2026-08-28T17:52:38Z</time>
  <course>300.0</course>
  <speed>0.130384048104053</speed>
  <fix>3d</fix>
</trkpt>
<trkpt lat="40.0713773" lon="-105.2298037">
  <ele>1583.0</ele>
  <time>2026-08-28T17:52:38Z</time>
  <course>298.64</course>
  <speed>0.14</speed>
  <fix>3d</fix>
</trkpt>
<trkpt lat="40.0713775" lon="-105.2298039">
  <ele>1583.01</ele>
  <time>2026-08-28T17:52:38Z</time>
  <course>299.94</course>
  <speed>0.130384048104053</speed>
  <fix>3d</fix>
</trkpt>
<trkpt lat="40.0713773" lon="-105.2298037">
  <ele>1583.0</ele>
  <time>2026-08-28T17:52:38Z</time>
  <course>298.64</course>
  <speed>0.14</speed>
  <fix>3d</fix>
</trkpt>
<trkpt lat="40.0713775" lon="-105.229804">
  <ele>1583.01</ele>
  <time>2026-08-28T17:52:38Z</time>
  <course>299.88</course>
  <speed>0.13601470508735444</speed>
  <fix>3d</fix>
</trkpt>
<trkpt lat="40.0713774" lon="-105.229804">
  <ele>1583.0</ele>
  <time>2026-08-28T17:52:38Z</time>
  <course>298.52</course>
  <speed>0.14</speed>
  <fix>3d</fix>
</trkpt>
<trkpt lat="40.0713776" lon="-105.2298042">
  <ele>1583.01</ele>
  <time>2026-08-28T17:52:38Z</time>
  <course>299.82</course>
  <speed>0.14422205101855956</speed>
  <fix>3d</fix>
</trkpt>
<trkpt lat="40.0713774" lon="-105.229804">
  <ele>1583.0</ele>
  <time>2026-08-28T17:52:38Z</time>
  <course>298.52</course>
  <speed>0.14</speed>
  <fix>3d</fix>
</trkpt>
<trkpt lat="40.0713777" lon="-105.2298043">
  <ele>1583.01</ele>
  <time>2026-08-28T17:52:38Z</time>
  <course>299.76</course>
  <speed>0.14422205101855956</speed>
  <fix>3d</fix>
</trkpt>
<trkpt lat="40.0713776" lon="-105.2298043">
  <ele>1583.0</ele>
  <time>2026-08-28T17:52:38Z</time>
  <course>298.39</course>
  <speed>0.15</speed>
  <fix>3d</fix>
</trkpt>
<trkpt lat="40.0713777" lon="-105.2298045">
  <ele>1583.01</ele>
  <time>2026-08-28T17:52:38Z</time>
  <course>299.69</course>
  <speed>0.14422205101855956</speed>
  <fix>3d</fix>
</trkpt>
<trkpt lat="40.0713776" lon="-105.2298043">
  <ele>1583.0</ele>
  <time>2026-08-28T17:52:38Z</time>
  <course>298.39</course>
  <speed>0.15</speed>
  <fix>3d</fix>
</trkpt>
<trkpt lat="40.0713778" lon="-105.2298047">
  <ele>1583.01</ele>
  <time>2026-08-28T17:52:38Z</time>
  <course>299.62</course>
  <speed>0.14422205101855956</speed>
  <fix>3d</fix>
</trkpt>
<trkpt lat="40.0713776" lon="-105.2298043">
  <ele>1583.0</ele>
  <time>2026-08-28T17:52:38Z</time>
  <course>298.39</course>
  <speed>0.15</speed>
  <fix>3d</fix>
</trkpt>
<trkpt lat="40.0713779" lon="-105.2298048">
  <ele>1583.02</ele>
  <time>2026-08-28T17:52:38Z</time>
  <course>299.56</course>
  <speed>0.14422205101855956</speed>
  <fix>3d</fix>
</trkpt>
<trkpt lat="40.0713777" lon="-105.2298046">
  <ele>1583.0</ele>
  <time>2026-08-28T17:52:38Z</time>
  <course>298.26</course>
  <speed>0.15</speed>
  <fix>3d</fix>
</trkpt>
<trkpt lat="40.0713779" lon="-105.229805">
  <ele>1583.02</ele>
  <time>2026-08-28T17:52:38Z</time>
  <course>299.49</course>
  <speed>0.15264337522473748</speed>
  <fix>3d</fix>
</trkpt>
<trkpt lat="40.0713777" lon="-105.2298046">
  <ele>1583.0</ele>
  <time>2026-08-28T17:52:38Z</time>
  <course>298.26</course>
  <speed>0.15</speed>
  <fix>3d</fix>
</trkpt>
<trkpt lat="40.071378" lon="-105.2298052">
  <ele>1583.02</ele>
  <time>2026-08-28T17:52:38Z</time>
  <course>299.41</course>
  <speed>0.15264337522473748</speed>
  <fix>3d</fix>
</trkpt>
<trkpt lat="40.0713778" lon="-105.229805">
  <ele>1583.0</ele>
  <time>2026-08-28T17:52:38Z</time>
  <course>298.13</course>
  <speed>0.16</speed>
  <fix>3d</fix>
</trkpt>
<trkpt lat="40.0713781" lon="-105.2298053">
  <ele>1583.02</ele>
  <time>2026-08-28T17:52:38Z</time>
  <course>299.34</course>
  <speed>0.15264337522473748</speed>
  <fix>3d</fix>
</trkpt>
<trkpt lat="40.0713778" lon="-105.229805">
  <ele>1583.0</ele>
  <time>2026-08-28T17:52:38Z</time>
  <course>298.13</course>
  <speed>0.16</speed>
  <fix>3d</fix>
</trkpt>
<trkpt lat="40.0713781" lon="-105.2298055">
  <ele>1583.02</ele>
  <time>2026-08-28T17:52:38Z</time>
  <course>299.26</course>
  <speed>0.15811388300841897</speed>
  <fix>3d</fix>
</trkpt>
<trkpt lat="40.0713779" lon="-105.2298053">
  <ele>1583.0</ele>
  <time>2026-08-28T17:52:38Z</time>
  <course>297.98</course>
  <speed>0.17</speed>
  <fix>3d</fix>
</trkpt>
<trkpt lat="40.0713782" lon="-105.2298057">
  <ele>1583.02</ele>
  <time>2026-08-28T17:52:38Z</time>
  <course>299.18</course>
  <speed>0.15811388300841897</speed>
  <fix>3d</fix>
</trkpt>
<trkpt lat="40.0713781" lon="-105.2298057">
  <ele>1583.0</ele>
  <time>2026-08-28T17:52:38Z</time>
  <course>297.83</course>
  <speed>0.17</speed>
  <fix>3d</fix>
</trkpt>
<trkpt lat="40.0713783" lon="-105.2298059">
  <ele>1583.02</ele>
  <time>2026-08-28T17:52:38Z</time>
  <course>299.11</course>
  <speed>0.1664331697709324</speed>
  <fix>3d</fix>
</trkpt>
<trkpt lat="40.0713781" lon="-105.2298057">
  <ele>1583.0</ele>
  <time>2026-08-28T17:52:38Z</time>
  <course>297.83</course>
  <speed>0.17</speed>
  <fix>3d</fix>
</trkpt>
<trkpt lat="40.0713784" lon="-105.2298061">
  <ele>1583.02</ele>
  <time>2026-08-28T17:52:38Z</time>
  <course>299.03</course>
  <speed>0.1664331697709324</speed>
  <fix>3d</fix>
</trkpt>
<trkpt lat="40.0713783" lon="-105.229806">
  <ele>1583.0</ele>
  <time>2026-08-28T17:52:38Z</time>
  <course>297.67</course>
  <speed>0.18</speed>
  <fix>3d</fix>
</trkpt>
<trkpt lat="40.0713784" lon="-105.2298063">
  <ele>1583.02</ele>
  <time>2026-08-28T17:52:38Z</time>
  <course>298.94</course>
  <speed>0.1664331697709324</speed>
  <fix>3d</fix>
</trkpt>
<trkpt lat="40.0713783" lon="-105.229806">
  <ele>1583.0</ele>
  <time>2026-08-28T17:52:38Z</time>
  <course>297.67</course>
  <speed>0.18</speed>
  <fix>3d</fix>
</trkpt>
<trkpt lat="40.0713785" lon="-105.2298065">
  <ele>1583.02</ele>
  <time>2026-08-28T17:52:38Z</time>
  <course>298.86</course>
  <speed>0.17492855684535902</speed>
  <fix>3d</fix>
</trkpt>
<trkpt lat="40.0713784" lon="-105.2298065">
  <ele>1583.0</ele>
  <time>2026-08-28T17:52:38Z</time>
  <course>297.51</course>
  <speed>0.19</speed>
  <fix>3d</fix>
</trkpt>
<trkpt lat="40.0713786" lon="-105.2298067">
  <ele>1583.02</ele>
  <time>2026-08-28T17:52:38Z</time>
  <course>298.77</course>
  <speed>0.17492855684535902</speed>
  <fix>3d</fix>
</trkpt>
<trkpt lat="40.0713784" lon="-105.2298065">
  <ele>1583.0</ele>
  <time>2026-08-28T17:52:38Z</time>
  <course>297.51</course>
  <speed>0.19</speed>
  <fix>3d</fix>
</trkpt>
<trkpt lat="40.0713787" lon="-105.2298069">
  <ele>1583.02</ele>
  <time>2026-08-28T17:52:38Z</time>
  <course>298.68</course>
  <speed>0.18027756377319945</speed>
  <fix>3d</fix>
</trkpt>
<trkpt lat="40.0713786" lon="-105.2298069">
  <ele>1583.0</ele>
  <time>2026-08-28T17:52:38Z</time>
  <course>297.33</course>
  <speed>0.2</speed>
  <fix>3d</fix>
</trkpt>
<trkpt lat="40.0713788" lon="-105.2298071">
  <ele>1583.03</ele>
  <time>2026-08-28T17:52:38Z</time>
  <course>298.58</course>
  <speed>0.18867962264113206</speed>
  <fix>3d</fix>
</trkpt>
<trkpt lat="40.0713786" lon="-105.2298069">
  <ele>1583.0</ele>
  <time>2026-08-28T17:52:38Z</time>
  <course>297.33</course>
  <speed>0.2</speed>
  <fix>3d</fix>
</trkpt>
<trkpt lat="40.0713789" lon="-105.2298073">
  <ele>1583.03</ele>
  <time>2026-08-28T17:52:38Z</time>
  <course>298.48</course>
  <speed>0.18867962264113206</speed>
  <fix>3d</fix>
</trkpt>
<trkpt lat="40.0713788" lon="-105.2298073">
  <ele>1583.0</ele>
  <time>2026-08-28T17:52:38Z</time>
  <course>297.15</course>
  <speed>0.2</speed>
  <fix>3d</fix>
</trkpt>
<trkpt lat="40.071379" lon="-105.2298075">
  <ele>1583.03</ele>
  <time>2026-08-28T17:52:38Z</time>
  <course>298.39</course>
  <speed>0.1972308292331602</speed>
  <fix>3d</fix>
</trkpt>
<trkpt lat="40.0713788" lon="-105.2298073">
  <ele>1583.0</ele>
  <time>2026-08-28T17:52:38Z</time>
  <course>297.15</course>
  <speed>0.2</speed>
  <fix>3d</fix>
</trkpt>
<trkpt lat="40.0713791" lon="-105.2298078">
  <ele>1583.03</ele>
  <time>2026-08-28T17:52:38Z</time>
  <course>298.28</course>
  <speed>0.1972308292331602</speed>
  <fix>3d</fix>
</trkpt>
<trkpt lat="40.071379" lon="-105.2298077">
  <ele>1583.0</ele>
  <time>2026-08-28T17:52:38Z</time>
  <course>296.95</course>
  <speed>0.21</speed>
  <fix>3d</fix>
</trkpt>
<trkpt lat="40.0713791" lon="-105.229808">
  <ele>1583.03</ele>
  <time>2026-08-28T17:52:38Z</time>
  <course>298.18</course>
  <speed>0.20248456731316586</speed>
  <fix>3d</fix>
</trkpt>
<trkpt lat="40.071379" lon="-105.2298077">
  <ele>1583.0</ele>
  <time>2026-08-28T17:52:38Z</time>
  <course>296.95</course>
  <speed>0.21</speed>
  <fix>3d</fix>
</trkpt>
<trkpt lat="40.0713792" lon="-105.2298082">
  <ele>1583.03</ele>
  <time>2026-08-28T17:52:38Z</time>
  <course>298.07</course>
  <speed>0.2109502310972899</speed>
  <fix>3d</fix>
</trkpt>
<trkpt lat="40.0713791" lon="-105.2298082">
  <ele>1583.0</ele>
  <time>2026-08-28T17:52:38Z</time>
  <course>296.74</course>
  <speed>0.22</speed>
  <fix>3d</fix>
</trkpt>
<trkpt lat="40.0713793" lon="-105.2298085">
  <ele>1583.03</ele>
  <time>2026-08-28T17:52:38Z</time>
  <course>297.95</course>
  <speed>0.2109502310972899</speed>
  <fix>3d</fix>
</trkpt>
<trkpt lat="40.0713791" lon="-105.2298082">
  <ele>1583.0</ele>
  <time>2026-08-28T17:52:38Z</time>
  <course>296.74</course>
  <speed>0.22</speed>
  <fix>3d</fix>
</trkpt>
<trkpt lat="40.0713794" lon="-105.2298087">
  <ele>1583.03</ele>
  <time>2026-08-28T17:52:38Z</time>
  <course>297.84</course>
  <speed>0.2195449840010015</speed>
  <fix>3d</fix>
</trkpt>
<trkpt lat="40.0713791" lon="-105.2298082">
  <ele>1583.0</ele>
  <time>2026-08-28T17:52:38Z</time>
  <course>296.74</course>
  <speed>0.22</speed>
  <fix>3d</fix>
</trkpt>
<trkpt lat="40.0713795" lon="-105.229809">
  <ele>1583.03</ele>
  <time>2026-08-28T17:52:38Z</time>
  <course>297.72</course>
  <speed>0.2195449840010015</speed>
  <fix>3d</fix>
</trkpt>
<trkpt lat="40.0713792" lon="-105.2298087">
  <ele>1583.0</ele>
  <time>2026-08-28T17:52:38Z</time>
  <course>296.52</course>
  <speed>0.23</speed>
  <fix>3d</fix>
</trkpt>
<trkpt lat="40.0713796" lon="-105.2298093">
  <ele>1583.03</ele>
  <time>2026-08-28T17:52:38Z</time>
  <course>297.59</course>
  <speed>0.23323807579381203</speed>
  <fix>3d</fix>
</trkpt>
<trkpt lat="40.0713792" lon="-105.2298087">
  <ele>1583.0</ele>
  <time>2026-08-28T17:52:38Z</time>
  <course>296.52</course>
  <speed>0.23</speed>
  <fix>3d</fix>
</trkpt>
<trkpt lat="40.0713797" lon="-105.2298095">
  <ele>1583.04</ele>
  <time>2026-08-28T17:52:38Z</time>
  <course>297.46</course>
  <speed>0.23323807579381203</speed>
  <fix>3d</fix>
</trkpt>
<trkpt lat="40.0713795" lon="-105.2298092">
  <ele>1583.0</ele>
  <time>2026-08-28T17:52:38Z</time>
  <course>296.28</course>
  <speed>0.24</speed>
  <fix>3d</fix>
</trkpt>
<trkpt lat="40.0713798" lon="-105.2298098">
  <ele>1583.04</ele>
  <time>2026-08-28T17:52:38Z</time>
  <course>297.33</course>
  <speed>0.24186773244895649</speed>
  <fix>3d</fix>
</trkpt>
<trkpt lat="40.0713795" lon="-105.2298092">
  <ele>1583.0</ele>
  <time>2026-08-28T17:52:38Z</time>
  <course>296.28</course>
  <speed>0.24</speed>
  <fix>3d</fix>
</trkpt>
<trkpt lat="40.0713799" lon="-105.2298101">
  <ele>1583.04</ele>
  <time>2026-08-28T17:52:38Z</time>
  <course>297.2</course>
  <speed>0.24186773244895649</speed>
  <fix>3d</fix>
</trkpt>
<trkpt lat="40.0713796" lon="-105.2298097">
  <ele>1583.0</ele>
  <time>2026-08-28T17:52:38Z</time>
  <course>296.02</course>
  <speed>0.26</speed>
  <fix>3d</fix>
</trkpt>
<trkpt lat="40.07138" lon="-105.2298103">
  <ele>1583.04</ele>
  <time>2026-08-28T17:52:38Z</time>
  <course>297.06</course>
  <speed>0.25059928172283336</speed>
  <fix>3d</fix>
</trkpt>
<trkpt lat="40.0713799" lon="-105.2298103">
  <ele>1583.0</ele>
  <time>2026-08-28T17:52:38Z</time>
  <course>295.76</course>
  <speed>0.27</speed>
  <fix>3d</fix>
</trkpt>
<trkpt lat="40.0713801" lon="-105.2298106">
  <ele>1583.05</ele>
  <time>2026-08-28T17:52:38Z</time>
  <course>296.92</course>
  <speed>0.25059928172283336</speed>
  <fix>3d</fix>
</trkpt>
<trkpt lat="40.0713799" lon="-105.2298103">
  <ele>1583.0</ele>
  <time>2026-08-28T17:52:38Z</time>
  <course>295.76</course>
  <speed>0.27</speed>
  <fix>3d</fix>
</trkpt>
<trkpt lat="40.0713803" lon="-105.2298109">
  <ele>1583.05</ele>
  <time>2026-08-28T17:52:38Z</time>
  <course>296.77</course>
  <speed>0.2641968962724581</speed>
  <fix>3d</fix>
</trkpt>
<trkpt lat="40.0713802" lon="-105.2298108">
  <ele>1583.0</ele>
  <time>2026-08-28T17:52:38Z</time>
  <course>295.47</course>
  <speed>0.28</speed>
  <fix>3d</fix>
</trkpt>
<trkpt lat="40.0713804" lon="-105.2298112">
  <ele>1583.05</ele>
  <time>2026-08-28T17:52:38Z</time>
  <course>296.62</course>
  <speed>0.2641968962724581</speed>
  <fix>3d</fix>
</trkpt>
<trkpt lat="40.0713802" lon="-105.2298108">
  <ele>1583.0</ele>
  <time>2026-08-28T17:52:38Z</time>
  <course>295.47</course>
  <speed>0.28</speed>
  <fix>3d</fix>
</trkpt>
<trkpt lat="40.0713805" lon="-105.2298116">
  <ele>1583.05</ele>
  <time>2026-08-28T17:52:38Z</time>
  <course>296.46</course>
  <speed>0.27294688127912364</speed>
  <fix>3d</fix>
</trkpt>
<trkpt lat="40.0713803" lon="-105.2298115">
  <ele>1583.0</ele>
  <time>2026-08-28T17:52:38Z</time>
  <course>295.17</course>
  <speed>0.29</speed>
  <fix>3d</fix>
</trkpt>
<trkpt lat="40.0713806" lon="-105.2298119">
  <ele>1583.05</ele>
  <time>2026-08-28T17:52:38Z</time>
  <course>296.3</course>
  <speed>0.27294688127912364</speed>
  <fix>3d</fix>
</trkpt>
<trkpt lat="40.0713803" lon="-105.2298115">
  <ele>1583.0</ele>
  <time>2026-08-28T17:52:38Z</time>
  <course>295.17</course>
  <speed>0.29</speed>
  <fix>3d</fix>
</trkpt>
<trkpt lat="40.0713807" lon="-105.2298122">
  <ele>1583.06</ele>
  <time>2026-08-28T17:52:38Z</time>
  <course>296.14</course>
  <speed>0.28178005607210743</speed>
  <fix>3d</fix>
</trkpt>
<trkpt lat="40.0713806" lon="-105.2298121">
  <ele>1583.0</ele>
  <time>2026-08-28T17:52:38Z</time>
  <course>294.86</course>
  <speed>0.3</speed>
  <fix>3d</fix>
</trkpt>
<trkpt lat="40.0713808" lon="-105.2298126">
  <ele>1583.06</ele>
  <time>2026-08-28T17:52:38Z</time>
  <course>295.96</course>
  <speed>0.295296461204668</speed>
  <fix>3d</fix>
</trkpt>
<trkpt lat="40.0713806" lon="-105.2298121">
  <ele>1583.0</ele>
  <time>2026-08-28T17:52:38Z</time>
  <course>294.86</course>
  <speed>0.3</speed>
  <fix>3d</fix>
</trkpt>
<trkpt lat="40.071381" lon="-105.2298129">
  <ele>1583.06</ele>
  <time>2026-08-28T17:52:38Z</time>
  <course>295.78</course>
  <speed>0.295296461204668</speed>
  <fix>3d</fix>
</trkpt>
<trkpt lat="40.0713808" lon="-105.2298128">
  <ele>1583.0</ele>
  <time>2026-08-28T17:52:38Z</time>
  <course>294.52</course>
  <speed>0.32</speed>
  <fix>3d</fix>
</trkpt>
<trkpt lat="40.0713811" lon="-105.2298133">
  <ele>1583.06</ele>
  <time>2026-08-28T17:52:38Z</time>
  <course>295.6</course>
  <speed>0.304138126514911</speed>
  <fix>3d</fix>
</trkpt>
<trkpt lat="40.0713808" lon="-105.2298128">
  <ele>1583.0</ele>
  <time>2026-08-28T17:52:38Z</time>
  <course>294.52</course>
  <speed>0.32</speed>
  <fix>3d</fix>
</trkpt>
<trkpt lat="40.0713812" lon="-105.2298136">
  <ele>1583.06</ele>
  <time>2026-08-28T17:52:38Z</time>
  <course>295.41</course>
  <speed>0.31304951684997057</speed>
  <fix>3d</fix>
</trkpt>
<trkpt lat="40.071381" lon="-105.2298135">
  <ele>1583.0</ele>
  <time>2026-08-28T17:52:38Z</time>
  <course>294.15</course>
  <speed>0.33</speed>
  <fix>3d</fix>
</trkpt>
<trkpt lat="40.0713813" lon="-105.229814">
  <ele>1583.06</ele>
  <time>2026-08-28T17:52:38Z</time>
  <course>295.21</course>
  <speed>0.31304951684997057</speed>
  <fix>3d</fix>
</trkpt>
<trkpt lat="40.071381" lon="-105.2298135">
  <ele>1583.0</ele>
  <time>2026-08-28T17:52:38Z</time>
  <course>294.15</course>
  <speed>0.33</speed>
  <fix>3d</fix>
</trkpt>
<trkpt lat="40.0713815" lon="-105.2298144">
  <ele>1583.06</ele>
  <time>2026-08-28T17:52:38Z</time>
  <course>295.01</course>
  <speed>0.32202484376209234</speed>
  <fix>3d</fix>
</trkpt>
<trkpt lat="40.0713813" lon="-105.2298142">
  <ele>1583.0</ele>
  <time>2026-08-28T17:52:38Z</time>
  <course>293.76</course>
  <speed>0.34</speed>
  <fix>3d</fix>
</trkpt>
<trkpt lat="40.0713816" lon="-105.2298148">
  <ele>1583.06</ele>
  <time>2026-08-28T17:52:38Z</time>
  <course>294.8</course>
  <speed>0.33541019662496846</speed>
  <fix>3d</fix>
</trkpt>
<trkpt lat="40.0713813" lon="-105.2298142">
  <ele>1583.0</ele>
  <time>2026-08-28T17:52:38Z</time>
  <course>293.76</course>
  <speed>0.34</speed>
  <fix>3d</fix>
</trkpt>
<trkpt lat="40.0713817" lon="-105.2298151">
  <ele>1583.06</ele>
  <time>2026-08-28T17:52:38Z</time>
  <course>294.58</course>
  <speed>0.33541019662496846</speed>
  <fix>3d</fix>
</trkpt>
<trkpt lat="40.0713813" lon="-105.2298142">
  <ele>1583.0</ele>
  <time>2026-08-28T17:52:38Z</time>
  <course>293.76</course>
  <speed>0.34</speed>
  <fix>3d</fix>
</trkpt>
<trkpt lat="40.0713819" lon="-105.2298156">
  <ele>1583.06</ele>
  <time>2026-08-28T17:52:38Z</time>
  <course>294.36</course>
  <speed>0.34438350715445126</speed>
  <fix>3d</fix>
</trkpt>
<trkpt lat="40.0713815" lon="-105.229815">
  <ele>1583.0</ele>
  <time>2026-08-28T17:52:38Z</time>
  <course>293.35</course>
  <speed>0.36</speed>
  <fix>3d</fix>
</trkpt>
<trkpt lat="40.071382" lon="-105.229816">
  <ele>1583.05</ele>
  <time>2026-08-28T17:52:38Z</time>
  <course>294.13</course>
  <speed>0.35341194094144585</speed>
  <fix>3d</fix>
</trkpt>
<trkpt lat="40.0713815" lon="-105.229815">
  <ele>1583.0</ele>
  <time>2026-08-28T17:52:38Z</time>
  <course>293.35</course>
  <speed>0.36</speed>
  <fix>3d</fix>
</trkpt>
<trkpt lat="40.0713821" lon="-105.2298164">
  <ele>1583.05</ele>
  <time>2026-08-28T17:52:38Z</time>
  <course>293.89</course>
  <speed>0.3624913792078372</speed>
  <fix>3d</fix>
</trkpt>
<trkpt lat="40.0713818" lon="-105.2298158">
  <ele>1583.0</ele>
  <time>2026-08-28T17:52:38Z</time>
  <course>292.91</course>
  <speed>0.37</speed>
  <fix>3d</fix>
</trkpt>
<trkpt lat="40.0713823" lon="-105.2298168">
  <ele>1583.05</ele>
  <time>2026-08-28T17:52:38Z</time>
  <course>293.64</course>
  <speed>0.3716180835212409</speed>
  <fix>3d</fix>
</trkpt>
<trkpt lat="40.0713818" lon="-105.2298158">
  <ele>1583.0</ele>
  <time>2026-08-28T17:52:38Z</time>
  <course>292.91</course>
  <speed>0.37</speed>
  <fix>3d</fix>
</trkpt>
<trkpt lat="40.0713824" lon="-105.2298172">
  <ele>1583.05</ele>
  <time>2026-08-28T17:52:38Z</time>
  <course>293.38</course>
  <speed>0.3757658845611187</speed>
  <fix>3d</fix>
</trkpt>
<trkpt lat="40.0713821" lon="-105.2298166">
  <ele>1583.0</ele>
  <time>2026-08-28T17:52:38Z</time>
  <course>292.43</course>
  <speed>0.39</speed>
  <fix>3d</fix>
</trkpt>
<trkpt lat="40.0713825" lon="-105.2298177">
  <ele>1583.05</ele>
  <time>2026-08-28T17:52:38Z</time>
  <course>293.11</course>
  <speed>0.38483762809787714</speed>
  <fix>3d</fix>
</trkpt>
<trkpt lat="40.0713821" lon="-105.2298166">
  <ele>1583.0</ele>
  <time>2026-08-28T17:52:38Z</time>
  <course>292.43</course>
  <speed>0.39</speed>
  <fix>3d</fix>
</trkpt>
<trkpt lat="40.0713827" lon="-105.2298182">
  <ele>1583.05</ele>
  <time>2026-08-28T17:52:38Z</time>
  <course>292.83</course>
  <speed>0.39395431207184417</speed>
  <fix>3d</fix>
</trkpt>
<trkpt lat="40.0713824" lon="-105.2298175">
  <ele>1583.0</ele>
  <time>2026-08-28T17:52:38Z</time>
  <course>291.92</course>
  <speed>0.4</speed>
  <fix>3d</fix>
</trkpt>
<trkpt lat="40.0713828" lon="-105.2298186">
  <ele>1583.05</ele>
  <time>2026-08-28T17:52:38Z</time>
  <course>292.54</course>
  <speed>0.40311288741492746</speed>
  <fix>3d</fix>
</trkpt>
<trkpt lat="40.0713826" lon="-105.2298184">
  <ele>1583.0</ele>
  <time>2026-08-28T17:52:38Z</time>
  <course>291.38</course>
  <speed>0.42</speed>
  <fix>3d</fix>
</trkpt>
<trkpt lat="40.071383" lon="-105.2298191">
  <ele>1583.05</ele>
  <time>2026-08-28T17:52:38Z</time>
  <course>292.24</course>
  <speed>0.41231056256176607</speed>
  <fix>3d</fix>
</trkpt>
<trkpt lat="40.0713826" lon="-105.2298184">
  <ele>1583.0</ele>
  <time>2026-08-28T17:52:38Z</time>
  <course>291.38</course>
  <speed>0.42</speed>
  <fix>3d</fix>
</trkpt>
<trkpt lat="40.0713831" lon="-105.2298196">
  <ele>1583.05</ele>
  <time>2026-08-28T17:52:38Z</time>
  <course>291.93</course>
  <speed>0.4215447781671598</speed>
  <fix>3d</fix>
</trkpt>
<trkpt lat="40.0713829" lon="-105.2298194">
  <ele>1583.0</ele>
  <time>2026-08-28T17:52:38Z</time>
  <course>290.78</course>
  <speed>0.44</speed>
  <fix>3d</fix>
</trkpt>
<trkpt lat="40.0713832" lon="-105.2298201">
  <ele>1583.05</ele>
  <time>2026-08-28T17:52:38Z</time>
  <course>291.61</course>
  <speed>0.4308131845707603</speed>
  <fix>3d</fix>
</trkpt>
<trkpt lat="40.0713829" lon="-105.2298194">
  <ele>1583.0</ele>
  <time>2026-08-28T17:52:38Z</time>
  <course>290.78</course>
  <speed>0.44</speed>
  <fix>3d</fix>
</trkpt>
<trkpt lat="40.0713834" lon="-105.2298206">
  <ele>1583.05</ele>
  <time>2026-08-28T17:52:38Z</time>
  <course>291.27</course>
  <speed>0.44011362169330775</speed>
  <fix>3d</fix>
</trkpt>
<trkpt lat="40.0713832" lon="-105.2298204">
  <ele>1583.0</ele>
  <time>2026-08-28T17:52:38Z</time>
  <course>290.14</course>
  <speed>0.46</speed>
  <fix>3d</fix>
</trkpt>
<trkpt lat="40.0713835" lon="-105.2298212">
  <ele>1583.05</ele>
  <time>2026-08-28T17:52:38Z</time>
  <course>290.92</course>
  <speed>0.44944410108488464</speed>
  <fix>3d</fix>
</trkpt>
<trkpt lat="40.0713832" lon="-105.2298204">
  <ele>1583.0</ele>
  <time>2026-08-28T17:52:38Z</time>
  <course>290.14</course>
  <speed>0.46</speed>
  <fix>3d</fix>
</trkpt>
<trkpt lat="40.0713837" lon="-105.2298217">
  <ele>1583.04</ele>
  <time>2026-08-28T17:52:38Z</time>
  <course>290.54</course>
  <speed>0.45880278987817846</speed>
  <fix>3d</fix>
</trkpt>
<trkpt lat="40.0713835" lon="-105.2298214">
  <ele>1583.0</ele>
  <time>2026-08-28T17:52:38Z</time>
  <course>289.45</course>
  <speed>0.48</speed>
  <fix>3d</fix>
</trkpt>
<trkpt lat="40.0713838" lon="-105.2298223">
  <ele>1583.04</ele>
  <time>2026-08-28T17:52:38Z</time>
  <course>290.16</course>
  <speed>0.468187996428785</speed>
  <fix>3d</fix>
</trkpt>
<trkpt lat="40.0713835" lon="-105.2298214">
  <ele>1583.0</ele>
  <time>2026-08-28T17:52:38Z</time>
  <course>289.45</course>
  <speed>0.48</speed>
  <fix>3d</fix>
</trkpt>
<trkpt lat="40.071384" lon="-105.2298228">
  <ele>1583.04</ele>
  <time>2026-08-28T17:52:38Z</time>
  <course>289.76</course>
  <speed>0.4775981574503821</speed>
  <fix>3d</fix>
</trkpt>
<trkpt lat="40.0713838" lon="-105.2298225">
  <ele>1583.0</ele>
  <time>2026-08-28T17:52:38Z</time>
  <course>288.69</course>
  <speed>0.49</speed>
  <fix>3d</fix>
</trkpt>
<trkpt lat="40.0713841" lon="-105.2298234">
  <ele>1583.04</ele>
  <time>2026-08-28T17:52:38Z</time>
  <course>289.33</course>
  <speed>0.48703182647543686</speed>
  <fix>3d</fix>
</trkpt>
<trkpt lat="40.0713838" lon="-105.2298225">
  <ele>1583.0</ele>
  <time>2026-08-28T17:52:38Z</time>
  <course>288.69</course>
  <speed>0.49</speed>
  <fix>3d</fix>
</trkpt>
<trkpt lat="40.0713843" lon="-105.229824">
  <ele>1583.04</ele>
  <time>2026-08-28T17:52:38Z</time>
  <course>288.89</course>
  <speed>0.49648766349225637</speed>
  <fix>3d</fix>
</trkpt>
<trkpt lat="40.071384" lon="-105.2298236">
  <ele>1583.0</ele>
  <time>2026-08-28T17:52:38Z</time>
  <course>287.87</course>
  <speed>0.51</speed>
  <fix>3d</fix>
</trkpt>
<trkpt lat="40.0713844" lon="-105.2298246">
  <ele>1583.03</ele>
  <time>2026-08-28T17:52:38Z</time>
  <course>288.43</course>
  <speed>0.5059644256269408</speed>
  <fix>3d</fix>
</trkpt>
<trkpt lat="40.071384" lon="-105.2298236">
  <ele>1583.0</ele>
  <time>2026-08-28T17:52:38Z</time>
  <course>287.87</course>
  <speed>0.51</speed>
  <fix>3d</fix>
</trkpt>
<trkpt lat="40.0713845" lon="-105.2298253">
  <ele>1583.03</ele>
  <time>2026-08-28T17:52:38Z</time>
  <course>287.94</course>
  <speed>0.5249761899362675</speed>
  <fix>3d</fix>
</trkpt>
<trkpt lat="40.0713843" lon="-105.2298248">
  <ele>1583.0</ele>
  <time>2026-08-28T17:52:38Z</time>
  <course>286.96</course>
  <speed>0.54</speed>
  <fix>3d</fix>
</trkpt>
<trkpt lat="40.0713847" lon="-105.2298259">
  <ele>1583.03</ele>
  <time>2026-08-28T17:52:38Z</time>
  <course>287.43</course>
  <speed>0.5345091205957107</speed>
  <fix>3d</fix>
</trkpt>
<trkpt lat="40.0713843" lon="-105.2298248">
  <ele>1583.0</ele>
  <time>2026-08-28T17:52:38Z</time>
  <course>286.96</course>
  <speed>0.54</speed>
  <fix>3d</fix>
</trkpt>
<trkpt lat="40.0713848" lon="-105.2298265">
  <ele>1583.03</ele>
  <time>2026-08-28T17:52:38Z</time>
  <course>286.89</course>
  <speed>0.5440588203494178</speed>
  <fix>3d</fix>
</trkpt>
<trkpt lat="40.0713843" lon="-105.2298248">
  <ele>1583.0</ele>
  <time>2026-08-28T17:52:38Z</time>
  <course>286.96</course>
  <speed>0.54</speed>
  <fix>3d</fix>
</trkpt>
<trkpt lat="40.071385" lon="-105.2298272">
  <ele>1583.02</ele>
  <time>2026-08-28T17:52:38Z</time>
  <course>286.33</course>
  <speed>0.5508175741568164</speed>
  <fix>3d</fix>
</trkpt>
<trkpt lat="40.0713846" lon="-105.2298261">
  <ele>1583.0</ele>
  <time>2026-08-28T17:52:38Z</time>
  <course>285.95</course>
  <speed>0.56</speed>
  <fix>3d</fix>
</trkpt>
<trkpt lat="40.0713851" lon="-105.2298279">
  <ele>1583.02</ele>
  <time>2026-08-28T17:52:38Z</time>
  <course>285.73</course>
  <speed>0.5604462507680822</speed>
  <fix>3d</fix>
</trkpt>
<trkpt lat="40.0713846" lon="-105.2298261">
  <ele>1583.0</ele>
  <time>2026-08-28T17:52:38Z</time>
  <course>285.95</course>
  <speed>0.56</speed>
  <fix>3d</fix>
</trkpt>
<trkpt lat="40.0713852" lon="-105.2298286">
  <ele>1583.02</ele>
  <time>2026-08-28T17:52:38Z</time>
  <course>285.1</course>
  <speed>0.5797413216254298</speed>
  <fix>3d</fix>
</trkpt>
<trkpt lat="40.0713849" lon="-105.2298273">
  <ele>1583.0</ele>
  <time>2026-08-28T17:52:38Z</time>
  <course>284.84</course>
  <speed>0.58</speed>
  <fix>3d</fix>
</trkpt>
<trkpt lat="40.0713853" lon="-105.2298293">
  <ele>1583.01</ele>
  <time>2026-08-28T17:52:38Z</time>
  <course>284.44</course>
  <speed>0.5869412236331676</speed>
  <fix>3d</fix>
</trkpt>
<trkpt lat="40.0713849" lon="-105.2298273">
  <ele>1583.0</ele>
  <time>2026-08-28T17:52:38Z</time>
  <course>284.84</course>
  <speed>0.58</speed>
  <fix>3d</fix>
</trkpt>
<trkpt lat="40.0713855" lon="-105.22983">
  <ele>1583.01</ele>
  <time>2026-08-28T17:52:38Z</time>
  <course>283.73</course>
  <speed>0.5966573556070519</speed>
  <fix>3d</fix>
</trkpt>
<trkpt lat="40.0713851" lon="-105.2298287">
  <ele>1583.0</ele>
  <time>2026-08-28T17:52:38Z</time>
  <course>283.61</course>
  <speed>0.6</speed>
  <fix>3d</fix>
</trkpt>
<trkpt lat="40.0713856" lon="-105.2298307">
  <ele>1583.01</ele>
  <time>2026-08-28T17:52:38Z</time>
  <course>282.98</course>
  <speed>0.6139218191268331</speed>
  <fix>3d</fix>
</trkpt>
<trkpt lat="40.0713854" lon="-105.2298301">
  <ele>1583.0</ele>
  <time>2026-08-28T17:52:38Z</time>
  <course>282.24</course>
  <speed>0.63</speed>
  <fix>3d</fix>
</trkpt>
<trkpt lat="40.0713857" lon="-105.2298315">
  <ele>1583.01</ele>
  <time>2026-08-28T17:52:38Z</time>
  <course>282.19</course>
  <speed>0.623698645180507</speed>
  <fix>3d</fix>
</trkpt>
<trkpt lat="40.0713854" lon="-105.2298301">
  <ele>1583.0</ele>
  <time>2026-08-28T17:52:38Z</time>
  <course>282.24</course>
  <speed>0.63</speed>
  <fix>3d</fix>
</trkpt>
<trkpt lat="40.0713858" lon="-105.2298322">
  <ele>1583.0</ele>
  <time>2026-08-28T17:52:38Z</time>
  <course>281.34</course>
  <speed>0.6413267497929586</speed>
  <fix>3d</fix>
</trkpt>
<trkpt lat="40.0713857" lon="-105.2298316">
  <ele>1583.0</ele>
  <time>2026-08-28T17:52:38Z</time>
  <course>280.69</course>
  <speed>0.65</speed>
  <fix>3d</fix>
</trkpt>
<trkpt lat="40.0713859" lon="-105.229833">
  <ele>1583.0</ele>
  <time>2026-08-28T17:52:38Z</time>
  <course>280.46</course>
  <speed>0.6493843238021688</speed>
  <fix>3d</fix>
</trkpt>
<trkpt lat="40.0713857" lon="-105.2298316">
  <ele>1583.0</ele>
  <time>2026-08-28T17:52:38Z</time>
  <course>280.69</course>
  <speed>0.65</speed>
  <fix>3d</fix>
</trkpt>
<trkpt lat="40.071386" lon="-105.2298338">
  <ele>1582.99</ele>
  <time>2026-08-28T17:52:38Z</time>
  <course>279.5</course>
  <speed>0.6675327707311455</speed>
  <fix>3d</fix>
</trkpt>
<trkpt lat="40.0713858" lon="-105.2298332">
  <ele>1583.0</ele>
  <time>2026-08-28T17:52:38Z</time>
  <course>278.94</course>
  <speed>0.68</speed>
  <fix>3d</fix>
</trkpt>
<trkpt lat="40.0713861" lon="-105.2298347">
  <ele>1582.99</ele>
  <time>2026-08-28T17:52:38Z</time>
  <course>278.47</course>
  <speed>0.6760177512462228</speed>
  <fix>3d</fix>
</trkpt>
<trkpt lat="40.0713858" lon="-105.2298332">
  <ele>1583.0</ele>
  <time>2026-08-28T17:52:38Z</time>
  <course>278.94</course>
  <speed>0.68</speed>
  <fix>3d</fix>
</trkpt>
<trkpt lat="40.0713861" lon="-105.2298355">
  <ele>1582.99</ele>
  <time>2026-08-28T17:52:38Z</time>
  <course>277.38</course>
  <speed>0.6946221994724903</speed>
  <fix>3d</fix>
</trkpt>
<trkpt lat="40.071386" lon="-105.2298347">
  <ele>1583.0</ele>
  <time>2026-08-28T17:52:38Z</time>
  <course>276.95</course>
  <speed>0.7</speed>
  <fix>3d</fix>
</trkpt>
<trkpt lat="40.0713862" lon="-105.2298364">
  <ele>1582.99</ele>
  <time>2026-08-28T17:52:38Z</time>
  <course>276.2</course>
  <speed>0.7125307010929425</speed>
  <fix>3d</fix>
</trkpt>
<trkpt lat="40.071386" lon="-105.2298347">
  <ele>1583.0</ele>
  <time>2026-08-28T17:52:38Z</time>
  <course>276.95</course>
  <speed>0.7</speed>
  <fix>3d</fix>
</trkpt>
<trkpt lat="40.0713862" lon="-105.2298373">
  <ele>1583.0</ele>
  <time>2026-08-28T17:52:38Z</time>
  <course>274.94</course>
  <speed>0.7217340230306452</speed>
  <fix>3d</fix>
</trkpt>
<trkpt lat="40.0713862" lon="-105.2298365">
  <ele>1583.0</ele>
  <time>2026-08-28T17:52:38Z</time>
  <course>274.67</course>
  <speed>0.73</speed>
  <fix>3d</fix>
</trkpt>
<trkpt lat="40.0713863" lon="-105.2298382">
  <ele>1583.0</ele>
  <time>2026-08-28T17:52:38Z</time>
  <course>273.59</course>
  <speed>0.740607858451421</speed>
  <fix>3d</fix>
</trkpt>
<trkpt lat="40.0713862" lon="-105.2298365">
  <ele>1583.0</ele>
  <time>2026-08-28T17:52:38Z</time>
  <course>274.67</course>
  <speed>0.73</speed>
  <fix>3d</fix>
</trkpt>
<trkpt lat="40.0713863" lon="-105.2298391">
  <ele>1583.0</ele>
  <time>2026-08-28T17:52:38Z</time>
  <course>272.13</course>
  <speed>0.750066663703967</speed>
  <fix>3d</fix>
</trkpt>
<trkpt lat="40.0713863" lon="-105.2298383">
  <ele>1583.0</ele>
  <time>2026-08-28T17:52:38Z</time>
  <course>272.05</course>
  <speed>0.76</speed>
  <fix>3d</fix>
</trkpt>
<trkpt lat="40.0713863" lon="-105.22984">
  <ele>1583.0</ele>
  <time>2026-08-28T17:52:38Z</time>
  <course>270.56</course>
  <speed>0.77</speed>
  <fix>3d</fix>
</trkpt>
<trkpt lat="40.0713863" lon="-105.2298383">
  <ele>1583.0</ele>
  <time>2026-08-28T17:52:38Z</time>
  <course>272.05</course>
  <speed>0.76</speed>
  <fix>3d</fix>
</trkpt>
<trkpt lat="40.0713863" lon="-105.229841">
  <ele>1583.0</ele>
  <time>2026-08-28T17:52:38Z</time>
  <course>268.87</course>
  <speed>0.7802563681252463</speed>
  <fix>3d</fix>
</trkpt>
<trkpt lat="40.0713863" lon="-105.22984">
  <ele>1583.0</ele>
  <time>2026-08-28T17:52:38Z</time>
  <course>269.0</course>
  <speed>0.79</speed>
  <fix>3d</fix>
</trkpt>
<trkpt lat="40.0713863" lon="-105.229842">
  <ele>1583.0</ele>
  <time>2026-08-28T17:52:38Z</time>
  <course>267.03</course>
  <speed>0.8015609770940699</speed>
  <fix>3d</fix>
</trkpt>
<trkpt lat="40.0713863" lon="-105.22984">
  <ele>1583.0</ele>
  <time>2026-08-28T17:52:38Z</time>
  <course>269.0</course>
  <speed>0.79</speed>
  <fix>3d</fix>
</trkpt>
<trkpt lat="40.0713862" lon="-105.229843">
  <ele>1583.0</ele>
  <time>2026-08-28T17:52:38Z</time>
  <course>265.05</course>
  <speed>0.8139410298049853</speed>
  <fix>3d</fix>
</trkpt>
<trkpt lat="40.0713863" lon="-105.22984">
  <ele>1583.0</ele>
  <time>2026-08-28T17:52:38Z</time>
  <course>269.0</course>
  <speed>0.79</speed>
  <fix>3d</fix>
</trkpt>
<trkpt lat="40.0713861" lon="-105.229844">
  <ele>1583.0</ele>
  <time>2026-08-28T17:52:38Z</time>
  <course>262.9</course>
  <speed>0.8287339742040264</speed>
  <fix>3d</fix>
</trkpt>
<trkpt lat="40.0713862" lon="-105.2298419">
  <ele>1583.0</ele>
  <time>2026-08-28T17:52:38Z</time>
  <course>265.44</course>
  <speed>0.82</speed>
  <fix>3d</fix>
</trkpt>
<trkpt lat="40.071386" lon="-105.229845">
  <ele>1583.0</ele>
  <time>2026-08-28T17:52:38Z</time>
  <course>260.57</course>
  <speed>0.8434453153583817</speed>
  <fix>3d</fix>
</trkpt>
<trkpt lat="40.0713862" lon="-105.2298419">
  <ele>1583.0</ele>
  <time>2026-08-28T17:52:38Z</time>
  <course>265.44</course>
  <speed>0.82</speed>
  <fix>3d</fix>
</trkpt>
<trkpt lat="40.0713858" lon="-105.229846">
  <ele>1583.0</ele>
  <time>2026-08-28T17:52:38Z</time>
  <course>258.04</course>
  <speed>0.8612200647918046</speed>
  <fix>3d</fix>
</trkpt>
<trkpt lat="40.0713861" lon="-105.2298439">
  <ele>1583.0</ele>
  <time>2026-08-28T17:52:38Z</time>
  <course>261.27</course>
  <speed>0.85</speed>
  <fix>3d</fix>
</trkpt>
<trkpt lat="40.0713856" lon="-105.229847">
  <ele>1583.0</ele>
  <time>2026-08-28T17:52:38Z</time>
  <course>255.3</course>
  <speed>0.8736131867136622</speed>
  <fix>3d</fix>
</trkpt>
<trkpt lat="40.0713861" lon="-105.2298439">
  <ele>1583.0</ele>
  <time>2026-08-28T17:52:38Z</time>
  <course>261.27</course>
  <speed>0.85</speed>
  <fix>3d</fix>
</trkpt>
<trkpt lat="40.0713854" lon="-105.229848">
  <ele>1583.0</ele>
  <time>2026-08-28T17:52:38Z</time>
  <course>252.33</course>
  <speed>0.8981091247727082</speed>
  <fix>3d</fix>
</trkpt>
<trkpt lat="40.0713858" lon="-105.229846">
  <ele>1583.0</ele>
  <time>2026-08-28T17:52:38Z</time>
  <course>256.38</course>
  <speed>0.88</speed>
  <fix>3d</fix>
</trkpt>
<trkpt lat="40.0713851" lon="-105.229849">
  <ele>1583.0</ele>
  <time>2026-08-28T17:52:38Z</time>
  <course>249.11</course>
  <speed>0.91</speed>
  <fix>3d</fix>
</trkpt>
<trkpt lat="40.0713858" lon="-105.229846">
  <ele>1583.0</ele>
  <time>2026-08-28T17:52:38Z</time>
  <course>256.38</course>
  <speed>0.88</speed>
  <fix>3d</fix>
</trkpt>
<trkpt lat="40.0713847" lon="-105.22985">
  <ele>1583.0</ele>
  <time>2026-08-28T17:52:39Z</time>
  <course>245.59</course>
  <speed>0.9257429448826494</speed>
  <fix>3d</fix>
</trkpt>
<trkpt lat="40.0713853" lon="-105.229848">
  <ele>1583.0</ele>
  <time>2026-08-28T17:52:39Z</time>
  <course>250.64</course>
  <speed>0.91</speed>
  <fix>3d</fix>
</trkpt>
<trkpt lat="40.0713843" lon="-105.229851">
  <ele>1583.0</ele>
  <time>2026-08-28T17:52:39Z</time>
  <course>241.83</course>
  <speed>0.9451454914456292</speed>
  <fix>3d</fix>
</trkpt>
<trkpt lat="40.0713847" lon="-105.22985">
  <ele>1583.0</ele>
  <time>2026-08-28T17:52:39Z</time>
  <course>243.9</course>
  <speed>0.95</speed>
  <fix>3d</fix>
</trkpt>
<trkpt lat="40.0713838" lon="-105.229852">
  <ele>1583.0</ele>
  <time>2026-08-28T17:52:39Z</time>
  <course>237.78</course>
  <speed>0.9651942809610924</speed>
  <fix>3d</fix>
</trkpt>
<trkpt lat="40.0713847" lon="-105.22985">
  <ele>1583.0</ele>
  <time>2026-08-28T17:52:39Z</time>
  <course>243.9</course>
  <speed>0.95</speed>
  <fix>3d</fix>
</trkpt>
<trkpt lat="40.0713833" lon="-105.2298529">
  <ele>1583.0</ele>
  <time>2026-08-28T17:52:39Z</time>
  <course>233.47</course>
  <speed>0.9745255255764212</speed>
  <fix>3d</fix>
</trkpt>
<trkpt lat="40.0713839" lon="-105.2298519">
  <ele>1583.0</ele>
  <time>2026-08-28T17:52:39Z</time>
  <course>236.06</course>
  <speed>0.97</speed>
  <fix>3d</fix>
</trkpt>
<trkpt lat="40.0713827" lon="-105.2298538">
  <ele>1583.01</ele>
  <time>2026-08-28T17:52:39Z</time>
  <course>228.84</course>
  <speed>0.9903534722511957</speed>
  <fix>3d</fix>
</trkpt>
<trkpt lat="40.0713839" lon="-105.2298519">
  <ele>1583.0</ele>
  <time>2026-08-28T17:52:39Z</time>
  <course>236.06</course>
  <speed>0.97</speed>
  <fix>3d</fix>
</trkpt>
<trkpt lat="40.071382" lon="-105.2298547">
  <ele>1583.01</ele>
  <time>2026-08-28T17:52:39Z</time>
  <course>223.93</course>
  <speed>1.00568384694197</speed>
  <fix>3d</fix>
</trkpt>
<trkpt lat="40.0713827" lon="-105.2298538">
  <ele>1583.0</ele>
  <time>2026-08-28T17:52:39Z</time>
  <course>227.08</course>
  <speed>1.0</speed>
  <fix>3d</fix>
</trkpt>
<trkpt lat="40.0713813" lon="-105.2298555">
  <ele>1583.01</ele>
  <time>2026-08-28T17:52:39Z</time>
  <course>218.81</course>
  <speed>1.0300485425454473</speed>
  <fix>3d</fix>
</trkpt>
<trkpt lat="40.0713827" lon="-105.2298538">
  <ele>1583.0</ele>
  <time>2026-08-28T17:52:39Z</time>
  <course>227.08</course>
  <speed>1.0</speed>
  <fix>3d</fix>
</trkpt>
<trkpt lat="40.0713805" lon="-105.2298562">
  <ele>1583.01</ele>
  <time>2026-08-28T17:52:39Z</time>
  <course>213.48</course>
  <speed>1.035857133006285</speed>
  <fix>3d</fix>
</trkpt>
<trkpt lat="40.0713814" lon="-105.2298554">
  <ele>1583.0</ele>
  <time>2026-08-28T17:52:39Z</time>
  <course>217.1</course>
  <speed>1.03</speed>
  <fix>3d</fix>
</trkpt>
<trkpt lat="40.0713796" lon="-105.2298568">
  <ele>1583.01</ele>
  <time>2026-08-28T17:52:39Z</time>
  <course>208.08</course>
  <speed>1.0511898020814319</speed>
  <fix>3d</fix>
</trkpt>
<trkpt lat="40.0713814" lon="-105.2298554">
  <ele>1583.0</ele>
  <time>2026-08-28T17:52:39Z</time>
  <course>217.1</course>
  <speed>1.03</speed>
  <fix>3d</fix>
</trkpt>
<trkpt lat="40.0713787" lon="-105.2298572">
  <ele>1583.01</ele>
  <time>2026-08-28T17:52:39Z</time>
  <course>202.58</course>
  <speed>1.072240644631605</speed>
  <fix>3d</fix>
</trkpt>
<trkpt lat="40.0713798" lon="-105.2298567">
  <ele>1583.0</ele>
  <time>2026-08-28T17:52:39Z</time>
  <course>206.44</course>
  <speed>1.05</speed>
  <fix>3d</fix>
</trkpt>
<trkpt lat="40.0713778" lon="-105.2298576">
  <ele>1583.01</ele>
  <time>2026-08-28T17:52:39Z</time>
  <course>197.03</course>
  <speed>1.0817116066678771</speed>
  <fix>3d</fix>
</trkpt>
<trkpt lat="40.0713798" lon="-105.2298567">
  <ele>1583.0</ele>
  <time>2026-08-28T17:52:39Z</time>
  <course>206.44</course>
  <speed>1.05</speed>
  <fix>3d</fix>
</trkpt>
<trkpt lat="40.0713768" lon="-105.2298579">
  <ele>1583.02</ele>
  <time>2026-08-28T17:52:39Z</time>
  <course>191.44</course>
  <speed>1.0903669107231748</speed>
  <fix>3d</fix>
</trkpt>
<trkpt lat="40.071378" lon="-105.2298576">
  <ele>1583.0</ele>
  <time>2026-08-28T17:52:39Z</time>
  <course>195.43</course>
  <speed>1.06</speed>
  <fix>3d</fix>
</trkpt>
<trkpt lat="40.0713758" lon="-105.229858">
  <ele>1583.02</ele>
  <time>2026-08-28T17:52:39Z</time>
  <course>185.86</course>
  <speed>1.101135777277262</speed>
  <fix>3d</fix>
</trkpt>
<trkpt lat="40.071378" lon="-105.2298576">
  <ele>1583.0</ele>
  <time>2026-08-28T17:52:39Z</time>
  <course>195.43</course>
  <speed>1.06</speed>
  <fix>3d</fix>
</trkpt>
<trkpt lat="40.0713748" lon="-105.229858">
  <ele>1583.02</ele>
  <time>2026-08-28T17:52:39Z</time>
  <course>180.31</course>
  <speed>1.101135777277262</speed>
  <fix>3d</fix>
</trkpt>
<trkpt lat="40.0713761" lon="-105.229858">
  <ele>1583.0</ele>
  <time>2026-08-28T17:52:39Z</time>
  <course>184.31</course>
  <speed>1.07</speed>
  <fix>3d</fix>
</trkpt>
<trkpt lat="40.0713738" lon="-105.2298578">
  <ele>1583.03</ele>
  <time>2026-08-28T17:52:39Z</time>
  <course>174.76</course>
  <speed>1.1115754585272202</speed>
  <fix>3d</fix>
</trkpt>
<trkpt lat="40.0713761" lon="-105.229858">
  <ele>1583.0</ele>
  <time>2026-08-28T17:52:39Z</time>
  <course>184.31</course>
  <speed>1.07</speed>
  <fix>3d</fix>
</trkpt>
<trkpt lat="40.0713728" lon="-105.2298577">
  <ele>1583.03</ele>
  <time>2026-08-28T17:52:39Z</time>
  <course>169.28</course>
  <speed>1.1132385189167684</speed>
  <fix>3d</fix>
</trkpt>
<trkpt lat="40.0713761" lon="-105.229858">
  <ele>1583.0</ele>
  <time>2026-08-28T17:52:39Z</time>
  <course>184.31</course>
  <speed>1.07</speed>
  <fix>3d</fix>
</trkpt>
<trkpt lat="40.0713719" lon="-105.2298573">
  <ele>1583.03</ele>
  <time>2026-08-28T17:52:39Z</time>
  <course>163.88</course>
  <speed>1.1132834320154055</speed>
  <fix>3d</fix>
</trkpt>
<trkpt lat="40.0713741" lon="-105.229858">
  <ele>1583.0</ele>
  <time>2026-08-28T17:52:39Z</time>
  <course>173.23</course>
  <speed>1.08</speed>
  <fix>3d</fix>
</trkpt>
<trkpt lat="40.071371" lon="-105.2298568">
  <ele>1583.03</ele>
  <time>2026-08-28T17:52:39Z</time>
  <course>158.6</course>
  <speed>1.109819805193618</speed>
  <fix>3d</fix>
</trkpt>
<trkpt lat="40.0713741" lon="-105.229858">
  <ele>1583.0</ele>
  <time>2026-08-28T17:52:39Z</time>
  <course>173.23</course>
  <speed>1.08</speed>
  <fix>3d</fix>
</trkpt>
<trkpt lat="40.0713701" lon="-105.2298562">
  <ele>1583.03</ele>
  <time>2026-08-28T17:52:39Z</time>
  <course>153.49</course>
  <speed>1.1063905277974861</speed>
  <fix>3d</fix>
</trkpt>
<trkpt lat="40.0713722" lon="-105.2298575">
  <ele>1583.0</ele>
  <time>2026-08-28T17:52:39Z</time>
  <course>162.37</course>
  <speed>1.07</speed>
  <fix>3d</fix>
</trkpt>
<trkpt lat="40.0713693" lon="-105.2298556">
  <ele>1583.03</ele>
  <time>2026-08-28T17:52:39Z</time>
  <course>148.6</course>
  <speed>1.09288608738514</speed>
  <fix>3d</fix>
</trkpt>
<trkpt lat="40.0713722" lon="-105.2298575">
  <ele>1583.0</ele>
  <time>2026-08-28T17:52:39Z</time>
  <course>162.37</course>
  <speed>1.07</speed>
  <fix>3d</fix>
</trkpt>
<trkpt lat="40.0713685" lon="-105.2298548">
  <ele>1583.03</ele>
  <time>2026-08-28T17:52:39Z</time>
  <course>143.99</course>
  <speed>1.0870602559196063</speed>
  <fix>3d</fix>
</trkpt>
<trkpt lat="40.0713705" lon="-105.2298565">
  <ele>1583.0</ele>
  <time>2026-08-28T17:52:39Z</time>
  <course>152.04</course>
  <speed>1.06</speed>
  <fix>3d</fix>
</trkpt>
<trkpt lat="40.0713678" lon="-105.229854">
  <ele>1583.03</ele>
  <time>2026-08-28T17:52:39Z</time>
  <course>139.68</course>
  <speed>1.0893117092916977</speed>
  <fix>3d</fix>
</trkpt>
<trkpt lat="40.0713689" lon="-105.2298552">
  <ele>1583.0</ele>
  <time>2026-08-28T17:52:39Z</time>
  <course>142.6</course>
  <speed>1.05</speed>
  <fix>3d</fix>
</trkpt>
<trkpt lat="40.0713672" lon="-105.2298531">
  <ele>1583.02</ele>
  <time>2026-08-28T17:52:39Z</time>
  <course>135.79</course>
  <speed>1.0830050784737808</speed>
  <fix>3d</fix>
</trkpt>
<trkpt lat="40.0713689" lon="-105.2298552">
  <ele>1583.0</ele>
  <time>2026-08-28T17:52:39Z</time>
  <course>142.6</course>
  <speed>1.05</speed>
  <fix>3d</fix>
</trkpt>
<trkpt lat="40.0713666" lon="-105.2298522">
  <ele>1583.02</ele>
  <time>2026-08-28T17:52:39Z</time>
  <course>132.33</course>
  <speed>1.0807404868885038</speed>
  <fix>3d</fix>
</trkpt>
<trkpt lat="40.0713675" lon="-105.2298536">
  <ele>1583.0</ele>
  <time>2026-08-28T17:52:39Z</time>
  <course>134.47</course>
  <speed>1.04</speed>
  <fix>3d</fix>
</trkpt>
<trkpt lat="40.071366" lon="-105.2298512">
  <ele>1583.02</ele>
  <time>2026-08-28T17:52:39Z</time>
  <course>129.36</course>
  <speed>1.0741508273980893</speed>
  <fix>3d</fix>
</trkpt>
<trkpt lat="40.0713675" lon="-105.2298536">
  <ele>1583.0</ele>
  <time>2026-08-28T17:52:39Z</time>
  <course>134.47</course>
  <speed>1.04</speed>
  <fix>3d</fix>
</trkpt>
<trkpt lat="40.0713655" lon="-105.2298502">
  <ele>1583.01</ele>
  <time>2026-08-28T17:52:39Z</time>
  <course>126.83</course>
  <speed>1.0761505470890214</speed>
  <fix>3d</fix>
</trkpt>
<trkpt lat="40.0713663" lon="-105.2298517">
  <ele>1583.0</ele>
  <time>2026-08-28T17:52:39Z</time>
  <course>128.03</course>
  <speed>1.04</speed>
  <fix>3d</fix>
</trkpt>
<trkpt lat="40.071365" lon="-105.2298491">
  <ele>1583.01</ele>
  <time>2026-08-28T17:52:39Z</time>
  <course>124.77</course>
  <speed>1.0855873986004074</speed>
  <fix>3d</fix>
</trkpt>
<trkpt lat="40.0713663" lon="-105.2298517">
  <ele>1583.0</ele>
  <time>2026-08-28T17:52:39Z</time>
  <course>128.03</course>
  <speed>1.04</speed>
  <fix>3d</fix>
</trkpt>
<trkpt lat="40.0713645" lon="-105.2298481">
  <ele>1583.01</ele>
  <time>2026-08-28T17:52:39Z</time>
  <course>123.16</course>
  <speed>1.092748827498799</speed>
  <fix>3d</fix>
</trkpt>
<trkpt lat="40.0713652" lon="-105.2298497">
  <ele>1583.0</ele>
  <time>2026-08-28T17:52:39Z</time>
  <course>123.43</course>
  <speed>1.05</speed>
  <fix>3d</fix>
</trkpt>
<trkpt lat="40.071364" lon="-105.229847">
  <ele>1583.01</ele>
  <time>2026-08-28T17:52:39Z</time>
  <course>121.97</course>
  <speed>1.114136436887332</speed>
  <fix>3d</fix>
</trkpt>
<trkpt lat="40.0713652" lon="-105.2298497">
  <ele>1583.0</ele>
  <time>2026-08-28T17:52:39Z</time>
  <course>123.43</course>
  <speed>1.05</speed>
  <fix>3d</fix>
</trkpt>
<trkpt lat="40.0713635" lon="-105.2298458">
  <ele>1583.01</ele>
  <time>2026-08-28T17:52:39Z</time>
  <course>121.1</course>
  <speed>1.1317685275708986</speed>
  <fix>3d</fix>
</trkpt>
<trkpt lat="40.0713642" lon="-105.2298476">
  <ele>1583.0</ele>
  <time>2026-08-28T17:52:39Z</time>
  <course>120.58</course>
  <speed>1.08</speed>
  <fix>3d</fix>
</trkpt>
<trkpt lat="40.0713631" lon="-105.2298447">
  <ele>1583.01</ele>
  <time>2026-08-28T17:52:39Z</time>
  <course>120.47</course>
  <speed>1.1672617529928753</speed>
  <fix>3d</fix>
</trkpt>
<trkpt lat="40.0713642" lon="-105.2298476">
  <ele>1583.0</ele>
  <time>2026-08-28T17:52:39Z</time>
  <course>120.58</course>
  <speed>1.08</speed>
  <fix>3d</fix>
</trkpt>
<trkpt lat="40.0713626" lon="-105.2298435">
  <ele>1583.01</ele>
  <time>2026-08-28T17:52:39Z</time>
  <course>120.04</course>
  <speed>1.1985407794480754</speed>
  <fix>3d</fix>
</trkpt>
<trkpt lat="40.0713632" lon="-105.2298453">
  <ele>1583.0</ele>
  <time>2026-08-28T17:52:39Z</time>
  <course>119.03</course>
  <speed>1.14</speed>
  <fix>3d</fix>
</trkpt>
<trkpt lat="40.0713621" lon="-105.2298422">
  <ele>1583.01</ele>
  <time>2026-08-28T17:52:39Z</time>
  <course>119.8</course>
  <speed>1.2432618388738552</speed>
  <fix>3d</fix>
</trkpt>
<trkpt lat="40.0713632" lon="-105.2298453">
  <ele>1583.0</ele>
  <time>2026-08-28T17:52:39Z</time>
  <course>119.03</course>
  <speed>1.14</speed>
  <fix>3d</fix>
</trkpt>
<trkpt lat="40.0713616" lon="-105.2298409">
  <ele>1583.01</ele>
  <time>2026-08-28T17:52:39Z</time>
  <course>119.68</course>
  <speed>1.296919426949878</speed>
  <fix>3d</fix>
</trkpt>
<trkpt lat="40.0713621" lon="-105.2298429">
  <ele>1583.0</ele>
  <time>2026-08-28T17:52:39Z</time>
  <course>118.34</course>
  <speed>1.22</speed>
  <fix>3d</fix>
</trkpt>
<trkpt lat="40.071361" lon="-105.2298396">
  <ele>1583.01</ele>
  <time>2026-08-28T17:52:39Z</time>
  <course>119.67</course>
  <speed>1.3550645741070793</speed>
  <fix>3d</fix>
</trkpt>
<trkpt lat="40.0713621" lon="-105.2298429">
  <ele>1583.0</ele>
  <time>2026-08-28T17:52:39Z</time>
  <course>118.34</course>
  <speed>1.22</speed>
  <fix>3d</fix>
</trkpt>
<trkpt lat="40.0713604" lon="-105.2298381">
  <ele>1583.01</ele>
  <time>2026-08-28T17:52:39Z</time>
  <course>119.75</course>
  <speed>1.4177799547179388</speed>
  <fix>3d</fix>
</trkpt>
<trkpt lat="40.0713621" lon="-105.2298429">
  <ele>1583.0</ele>
  <time>2026-08-28T17:52:39Z</time>
  <course>118.34</course>
  <speed>1.22</speed>
  <fix>3d</fix>
</trkpt>
<trkpt lat="40.0713598" lon="-105.2298366">
  <ele>1583.0</ele>
  <time>2026-08-28T17:52:39Z</time>
  <course>119.9</course>
  <speed>1.4848568954616468</speed>
  <fix>3d</fix>
</trkpt>
<trkpt lat="40.0713611" lon="-105.2298402">
  <ele>1583.0</ele>
  <time>2026-08-28T17:52:39Z</time>
  <course>118.21</course>
  <speed>1.34</speed>
  <fix>3d</fix>
</trkpt>
<trkpt lat="40.0713592" lon="-105.2298351">
  <ele>1583.0</ele>
  <time>2026-08-28T17:52:39Z</time>
  <course>120.12</course>
  <speed>1.5611854470241517</speed>
  <fix>3d</fix>
</trkpt>
<trkpt lat="40.0713611" lon="-105.2298402">
  <ele>1583.0</ele>
  <time>2026-08-28T17:52:39Z</time>
  <course>118.21</course>
  <speed>1.34</speed>
  <fix>3d</fix>
</trkpt>
<trkpt lat="40.0713585" lon="-105.2298335">
  <ele>1583.0</ele>
  <time>2026-08-28T17:52:39Z</time>
  <course>120.38</course>
  <speed>1.6417673403987545</speed>
  <fix>3d</fix>
</trkpt>
<trkpt lat="40.0713599" lon="-105.2298373">
  <ele>1583.0</ele>
  <time>2026-08-28T17:52:39Z</time>
  <course>118.44</course>
  <speed>1.48</speed>
  <fix>3d</fix>
</trkpt>
<trkpt lat="40.0713578" lon="-105.2298318">
  <ele>1583.0</ele>
  <time>2026-08-28T17:52:39Z</time>
  <course>120.68</course>
  <speed>1.7182840277439584</speed>
  <fix>3d</fix>
</trkpt>
<trkpt lat="40.0713599" lon="-105.2298373">
  <ele>1583.0</ele>
  <time>2026-08-28T17:52:39Z</time>
  <course>118.44</course>
  <speed>1.48</speed>
  <fix>3d</fix>
</trkpt>
<trkpt lat="40.071357" lon="-105.22983">
  <ele>1583.0</ele>
  <time>2026-08-28T17:52:39Z</time>
  <course>121.01</course>
  <speed>1.808535318980528</speed>
  <fix>3d</fix>
</trkpt>
<trkpt lat="40.0713585" lon="-105.229834">
  <ele>1583.0</ele>
  <time>2026-08-28T17:52:39Z</time>
  <course>118.92</course>
  <speed>1.63</speed>
  <fix>3d</fix>
</trkpt>
<trkpt lat="40.0713561" lon="-105.2298281">
  <ele>1583.0</ele>
  <time>2026-08-28T17:52:39Z</time>
  <course>121.37</course>
  <speed>1.907668734345667</speed>
  <fix>3d</fix>
</trkpt>
<trkpt lat="40.071357" lon="-105.2298305">
  <ele>1583.0</ele>
  <time>2026-08-28T17:52:39Z</time>
  <course>119.55</course>
  <speed>1.81</speed>
  <fix>3d</fix>
</trkpt>
<trkpt lat="40.0713552" lon="-105.2298261">
  <ele>1582.99</ele>
  <time>2026-08-28T17:52:39Z</time>
  <course>121.73</course>
  <speed>1.9982242116439286</speed>
  <fix>3d</fix>
</trkpt>
<trkpt lat="40.071357" lon="-105.2298305">
  <ele>1583.0</ele>
  <time>2026-08-28T17:52:39Z</time>
  <course>119.55</course>
  <speed>1.81</speed>
  <fix>3d</fix>
</trkpt>
<trkpt lat="40.0713543" lon="-105.229824">
  <ele>1582.99</ele>
  <time>2026-08-28T17:52:39Z</time>
  <course>122.1</course>
  <speed>2.097546185427153</speed>
  <fix>3d</fix>
</trkpt>
<trkpt lat="40.0713552" lon="-105.2298266">
  <ele>1583.0</ele>
  <time>2026-08-28T17:52:39Z</time>
  <course>120.27</course>
  <speed>2.0</speed>
  <fix>3d</fix>
</trkpt>
<trkpt lat="40.0713532" lon="-105.2298218">
  <ele>1582.99</ele>
  <time>2026-08-28T17:52:39Z</time>
  <course>122.48</course>
  <speed>2.1934675744127152</speed>
  <fix>3d</fix>
</trkpt>
<trkpt lat="40.0713552" lon="-105.2298266">
  <ele>1583.0</ele>
  <time>2026-08-28T17:52:39Z</time>
  <course>120.27</course>
  <speed>2.0</speed>
  <fix>3d</fix>
</trkpt>
<trkpt lat="40.0713522" lon="-105.2298196">
  <ele>1582.98</ele>
  <time>2026-08-28T17:52:39Z</time>
  <course>122.87</course>
  <speed>2.298173187555716</speed>
  <fix>3d</fix>
</trkpt>
<trkpt lat="40.0713533" lon="-105.2298224">
  <ele>1583.0</ele>
  <time>2026-08-28T17:52:39Z</time>
  <course>121.03</course>
  <speed>2.2</speed>
  <fix>3d</fix>
</trkpt>
<trkpt lat="40.071351" lon="-105.2298172">
  <ele>1582.98</ele>
  <time>2026-08-28T17:52:39Z</time>
  <course>123.26</course>
  <speed>2.3945354455509738</speed>
  <fix>3d</fix>
</trkpt>
<trkpt lat="40.0713533" lon="-105.2298224">
  <ele>1583.0</ele>
  <time>2026-08-28T17:52:39Z</time>
  <course>121.03</course>
  <speed>2.2</speed>
  <fix>3d</fix>
</trkpt>
<trkpt lat="40.0713498" lon="-105.2298147">
  <ele>1582.98</ele>
  <time>2026-08-28T17:52:39Z</time>
  <course>123.65</course>
  <speed>2.4995399576722113</speed>
  <fix>3d</fix>
</trkpt>
<trkpt lat="40.0713512" lon="-105.2298178">
  <ele>1583.0</ele>
  <time>2026-08-28T17:52:39Z</time>
  <course>121.81</course>
  <speed>2.4</speed>
  <fix>3d</fix>
</trkpt>
<trkpt lat="40.0713485" lon="-105.2298122">
  <ele>1582.98</ele>
  <time>2026-08-28T17:52:39Z</time>
  <course>124.04</course>
  <speed>2.596247291765559</speed>
  <fix>3d</fix>
</trkpt>
<trkpt lat="40.0713512" lon="-105.2298178">
  <ele>1583.0</ele>
  <time>2026-08-28T17:52:39Z</time>
  <course>121.81</course>
  <speed>2.4</speed>
  <fix>3d</fix>
</trkpt>
<trkpt lat="40.0713472" lon="-105.2298095">
  <ele>1582.98</ele>
  <time>2026-08-28T17:52:39Z</time>
  <course>124.44</course>
  <speed>2.701481075262235</speed>
  <fix>3d</fix>
</trkpt>
<trkpt lat="40.0713488" lon="-105.2298129">
  <ele>1583.0</ele>
  <time>2026-08-28T17:52:39Z</time>
  <course>122.59</course>
  <speed>2.59</speed>
  <fix>3d</fix>
</trkpt>
<trkpt lat="40.0713458" lon="-105.2298068">
  <ele>1582.98</ele>
  <time>2026-08-28T17:52:39Z</time>
  <course>124.82</course>
  <speed>2.7984638643370046</speed>
  <fix>3d</fix>
</trkpt>
<trkpt lat="40.0713488" lon="-105.2298129">
  <ele>1583.0</ele>
  <time>2026-08-28T17:52:39Z</time>
  <course>122.59</course>
  <speed>2.59</speed>
  <fix>3d</fix>
</trkpt>
<trkpt lat="40.0713444" lon="-105.229804">
  <ele>1582.98</ele>
  <time>2026-08-28T17:52:39Z</time>
  <course>125.2</course>
  <speed>2.9011894112587684</speed>
  <fix>3d</fix>
</trkpt>
<trkpt lat="40.0713461" lon="-105.2298075">
  <ele>1583.0</ele>
  <time>2026-08-28T17:52:39Z</time>
  <course>123.37</course>
  <speed>2.79</speed>
  <fix>3d</fix>
</trkpt>
<trkpt lat="40.0713428" lon="-105.229801">
  <ele>1582.97</ele>
  <time>2026-08-28T17:52:39Z</time>
  <course>125.58</course>
  <speed>2.9984829497597616</speed>
  <fix>3d</fix>
</trkpt>
<trkpt lat="40.0713461" lon="-105.2298075">
  <ele>1583.0</ele>
  <time>2026-08-28T17:52:39Z</time>
  <course>123.37</course>
  <speed>2.79</speed>
  <fix>3d</fix>
</trkpt>
<trkpt lat="40.0713413" lon="-105.2297981">
  <ele>1582.97</ele>
  <time>2026-08-28T17:52:39Z</time>
  <course>125.95</course>
  <speed>3.0958843647655834</speed>
  <fix>3d</fix>
</trkpt>
<trkpt lat="40.0713432" lon="-105.2298019">
  <ele>1583.0</ele>
  <time>2026-08-28T17:52:39Z</time>
  <course>124.14</course>
  <speed>2.99</speed>
  <fix>3d</fix>
</trkpt>
<trkpt lat="40.0713396" lon="-105.229795">
  <ele>1582.98</ele>
  <time>2026-08-28T17:52:39Z</time>
  <course>126.31</course>
  <speed>3.19100297712177</speed>
  <fix>3d</fix>
</trkpt>
<trkpt lat="40.0713432" lon="-105.2298019">
  <ele>1583.0</ele>
  <time>2026-08-28T17:52:39Z</time>
  <course>124.14</course>
  <speed>2.99</speed>
  <fix>3d</fix>
</trkpt>
<trkpt lat="40.0713379" lon="-105.2297919">
  <ele>1582.98</ele>
  <time>2026-08-28T17:52:39Z</time>
  <course>126.66</course>
  <speed>3.288662342047295</speed>
  <fix>3d</fix>
</trkpt>
<trkpt lat="40.0713432" lon="-105.2298019">
  <ele>1583.0</ele>
  <time>2026-08-28T17:52:39Z</time>
  <course>124.14</course>
  <speed>2.99</speed>
  <fix>3d</fix>
</trkpt>
<trkpt lat="40.0713361" lon="-105.2297887">
  <ele>1582.98</ele>
  <time>2026-08-28T17:52:39Z</time>
  <course>127.02</course>
  <speed>3.3783131885602318</speed>
  <fix>3d</fix>
</trkpt>
<trkpt lat="40.0713401" lon="-105.2297959">
  <ele>1583.0</ele>
  <time>2026-08-28T17:52:39Z</time>
  <course>124.87</course>
  <speed>3.18</speed>
  <fix>3d</fix>
</trkpt>
<trkpt lat="40.0713343" lon="-105.2297854">
  <ele>1582.98</ele>
  <time>2026-08-28T17:52:39Z</time>
  <course>127.35</course>
  <speed>3.4680974611449433</speed>
  <fix>3d</fix>
</trkpt>
<trkpt lat="40.0713401" lon="-105.2297959">
  <ele>1583.0</ele>
  <time>2026-08-28T17:52:39Z</time>
  <course>124.87</course>
  <speed>3.18</speed>
  <fix>3d</fix>
</trkpt>
<trkpt lat="40.0713324" lon="-105.2297821">
  <ele>1582.99</ele>
  <time>2026-08-28T17:52:39Z</time>
  <course>127.68</course>
  <speed>3.5640005611671834</speed>
  <fix>3d</fix>
</trkpt>
<trkpt lat="40.0713367" lon="-105.2297896">
  <ele>1583.0</ele>
  <time>2026-08-28T17:52:39Z</time>
  <course>125.59</course>
  <speed>3.37</speed>
  <fix>3d</fix>
</trkpt>
<trkpt lat="40.0713305" lon="-105.2297787">
  <ele>1582.99</ele>
  <time>2026-08-28T17:52:39Z</time>
  <course>128.02</course>
  <speed>3.6540662281901786</speed>
  <fix>3d</fix>
</trkpt>
<trkpt lat="40.0713367" lon="-105.2297896">
  <ele>1583.0</ele>
  <time>2026-08-28T17:52:39Z</time>
  <course>125.59</course>
  <speed>3.37</speed>
  <fix>3d</fix>
</trkpt>
<trkpt lat="40.0713285" lon="-105.2297753">
  <ele>1583.0</ele>
  <time>2026-08-28T17:52:39Z</time>
  <course>128.34</course>
  <speed>3.7442355695121536</speed>
  <fix>3d</fix>
</trkpt>
<trkpt lat="40.071333" lon="-105.229783">
  <ele>1583.0</ele>
  <time>2026-08-28T17:52:39Z</time>
  <course>126.28</course>
  <speed>3.56</speed>
  <fix>3d</fix>
</trkpt>
<trkpt lat="40.0713264" lon="-105.2297718">
  <ele>1583.0</ele>
  <time>2026-08-28T17:52:39Z</time>
  <course>128.64</course>
  <speed>3.834501271351986</speed>
  <fix>3d</fix>
</trkpt>
<trkpt lat="40.071333" lon="-105.229783">
  <ele>1583.0</ele>
  <time>2026-08-28T17:52:39Z</time>
  <course>126.28</course>
  <speed>3.56</speed>
  <fix>3d</fix>
</trkpt>
<trkpt lat="40.0713243" lon="-105.2297681">
  <ele>1583.0</ele>
  <time>2026-08-28T17:52:39Z</time>
  <course>128.95</course>
  <speed>3.9310303992719264</speed>
  <fix>3d</fix>
</trkpt>
<trkpt lat="40.0713291" lon="-105.2297761">
  <ele>1583.0</ele>
  <time>2026-08-28T17:52:39Z</time>
  <course>126.93</course>
  <speed>3.75</speed>
  <fix>3d</fix>
</trkpt>
<trkpt lat="40.0713221" lon="-105.2297645">
  <ele>1583.0</ele>
  <time>2026-08-28T17:52:39Z</time>
  <course>129.25</course>
  <speed>4.021504693519578</speed>
  <fix>3d</fix>
</trkpt>
<trkpt lat="40.071325" lon="-105.2297689">
  <ele>1583.0</ele>
  <time>2026-08-28T17:52:39Z</time>
  <course>127.56</course>
  <speed>3.94</speed>
  <fix>3d</fix>
</trkpt>
<trkpt lat="40.0713198" lon="-105.2297607">
  <ele>1583.0</ele>
  <time>2026-08-28T17:52:39Z</time>
  <course>129.52</course>
  <speed>4.118312761313788</speed>
  <fix>3d</fix>
</trkpt>
<trkpt lat="40.071325" lon="-105.2297689">
  <ele>1583.0</ele>
  <time>2026-08-28T17:52:39Z</time>
  <course>127.56</course>
  <speed>3.94</speed>
  <fix>3d</fix>
</trkpt>
<trkpt lat="40.0713175" lon="-105.2297569">
  <ele>1583.0</ele>
  <time>2026-08-28T17:52:39Z</time>
  <course>129.79</course>
  <speed>4.208966619017072</speed>
  <fix>3d</fix>
</trkpt>
<trkpt lat="40.0713205" lon="-105.2297615">
  <ele>1583.0</ele>
  <time>2026-08-28T17:52:39Z</time>
  <course>128.14</course>
  <speed>4.12</speed>
  <fix>3d</fix>
</trkpt>
<trkpt lat="40.0713151" lon="-105.2297529">
  <ele>1583.0</ele>
  <time>2026-08-28T17:52:39Z</time>
  <course>130.06</course>
  <speed>4.306019043153432</speed>
  <fix>3d</fix>
</trkpt>
<trkpt lat="40.0713205" lon="-105.2297615">
  <ele>1583.0</ele>
  <time>2026-08-28T17:52:39Z</time>
  <course>128.14</course>
  <speed>4.12</speed>
  <fix>3d</fix>
</trkpt>
<trkpt lat="40.0713126" lon="-105.2297489">
  <ele>1583.0</ele>
  <time>2026-08-28T17:52:39Z</time>
  <course>130.32</course>
  <speed>4.39682840238279</speed>
  <fix>3d</fix>
</trkpt>
<trkpt lat="40.0713158" lon="-105.2297537">
  <ele>1583.0</ele>
  <time>2026-08-28T17:52:39Z</time>
  <course>128.7</course>
  <speed>4.31</speed>
  <fix>3d</fix>
</trkpt>
<trkpt lat="40.07131" lon="-105.2297448">
  <ele>1583.0</ele>
  <time>2026-08-28T17:52:39Z</time>
  <course>130.55</course>
  <speed>4.501777426750461</speed>
  <fix>3d</fix>
</trkpt>
<trkpt lat="40.0713158" lon="-105.2297537">
  <ele>1583.0</ele>
  <time>2026-08-28T17:52:39Z</time>
  <course>128.7</course>
  <speed>4.31</speed>
  <fix>3d</fix>
</trkpt>
<trkpt lat="40.0713074" lon="-105.2297406">
  <ele>1583.01</ele>
  <time>2026-08-28T17:52:39Z</time>
  <course>130.79</course>
  <speed>4.592700730507051</speed>
  <fix>3d</fix>
</trkpt>
<trkpt lat="40.0713108" lon="-105.2297457">
  <ele>1583.0</ele>
  <time>2026-08-28T17:52:39Z</time>
  <course>129.23</course>
  <speed>4.5</speed>
  <fix>3d</fix>
</trkpt>
<trkpt lat="40.0713046" lon="-105.2297363">
  <ele>1583.01</ele>
  <time>2026-08-28T17:52:39Z</time>
  <course>131.03</course>
  <speed>4.690127930024937</speed>
  <fix>3d</fix>
</trkpt>
<trkpt lat="40.0713108" lon="-105.2297457">
  <ele>1583.0</ele>
  <time>2026-08-28T17:52:39Z</time>
  <course>129.23</course>
  <speed>4.5</speed>
  <fix>3d</fix>
</trkpt>
<trkpt lat="40.0713019" lon="-105.229732">
  <ele>1583.01</ele>
  <time>2026-08-28T17:52:39Z</time>
  <course>131.27</course>
  <speed>4.780062761094252</speed>
  <fix>3d</fix>
</trkpt>
<trkpt lat="40.0713056" lon="-105.2297373">
  <ele>1583.0</ele>
  <time>2026-08-28T17:52:39Z</time>
  <course>129.73</course>
  <speed>4.68</speed>
  <fix>3d</fix>
</trkpt>
<trkpt lat="40.071299" lon="-105.2297277">
  <ele>1583.01</ele>
  <time>2026-08-28T17:52:39Z</time>
  <course>131.46</course>
  <speed>4.871190819501942</speed>
  <fix>3d</fix>
</trkpt>
<trkpt lat="40.0713056" lon="-105.2297373">
  <ele>1583.0</ele>
  <time>2026-08-28T17:52:39Z</time>
  <course>129.73</course>
  <speed>4.68</speed>
  <fix>3d</fix>
</trkpt>
<trkpt lat="40.0712961" lon="-105.2297232">
  <ele>1583.01</ele>
  <time>2026-08-28T17:52:39Z</time>
  <course>131.65</course>
  <speed>4.962358310319802</speed>
  <fix>3d</fix>
</trkpt>
<trkpt lat="40.0713001" lon="-105.2297287">
  <ele>1583.0</ele>
  <time>2026-08-28T17:52:39Z</time>
  <course>130.18</course>
  <speed>4.87</speed>
  <fix>3d</fix>
</trkpt>
<trkpt lat="40.0712932" lon="-105.2297187">
  <ele>1583.01</ele>
  <time>2026-08-28T17:52:39Z</time>
  <course>131.84</course>
  <speed>5.053563099437861</speed>
  <fix>3d</fix>
</trkpt>
<trkpt lat="40.0713001" lon="-105.2297287">
  <ele>1583.0</ele>
  <time>2026-08-28T17:52:39Z</time>
  <course>130.18</course>
  <speed>4.87</speed>
  <fix>3d</fix>
</trkpt>
<trkpt lat="40.0712902" lon="-105.2297141">
  <ele>1583.01</ele>
  <time>2026-08-28T17:52:39Z</time>
  <course>132.04</course>
  <speed>5.129775823561883</speed>
  <fix>3d</fix>
</trkpt>
<trkpt lat="40.0712943" lon="-105.2297198">
  <ele>1583.0</ele>
  <time>2026-08-28T17:52:39Z</time>
  <course>130.58</course>
  <speed>5.04</speed>
  <fix>3d</fix>
</trkpt>
<trkpt lat="40.0712871" lon="-105.2297095">
  <ele>1583.02</ele>
  <time>2026-08-28T17:52:39Z</time>
  <course>132.16</course>
  <speed>5.200346142325528</speed>
  <fix>3d</fix>
</trkpt>
<trkpt lat="40.0712943" lon="-105.2297198">
  <ele>1583.0</ele>
  <time>2026-08-28T17:52:39Z</time>
  <course>130.58</course>
  <speed>5.04</speed>
  <fix>3d</fix>
</trkpt>
<trkpt lat="40.071284" lon="-105.2297048">
  <ele>1583.02</ele>
  <time>2026-08-28T17:52:39Z</time>
  <course>132.3</course>
  <speed>5.25594901040716</speed>
  <fix>3d</fix>
</trkpt>
<trkpt lat="40.0712943" lon="-105.2297198">
  <ele>1583.0</ele>
  <time>2026-08-28T17:52:39Z</time>
  <course>130.58</course>
  <speed>5.04</speed>
  <fix>3d</fix>
</trkpt>
<trkpt lat="40.0712809" lon="-105.2297002">
  <ele>1583.02</ele>
  <time>2026-08-28T17:52:39Z</time>
  <course>132.43</course>
  <speed>5.30495051814812</speed>
  <fix>3d</fix>
</trkpt>
<trkpt lat="40.0712883" lon="-105.2297107">
  <ele>1583.0</ele>
  <time>2026-08-28T17:52:39Z</time>
  <course>130.92</course>
  <speed>5.19</speed>
  <fix>3d</fix>
</trkpt>
<trkpt lat="40.0712777" lon="-105.2296955">
  <ele>1583.02</ele>
  <time>2026-08-28T17:52:39Z</time>
  <course>132.57</course>
  <speed>5.332400960167942</speed>
  <fix>3d</fix>
</trkpt>
<trkpt lat="40.0712883" lon="-105.2297107">
  <ele>1583.0</ele>
  <time>2026-08-28T17:52:39Z</time>
  <course>130.92</course>
  <speed>5.19</speed>
  <fix>3d</fix>
</trkpt>
<trkpt lat="40.0712745" lon="-105.2296908">
  <ele>1583.02</ele>
  <time>2026-08-28T17:52:39Z</time>
  <course>132.72</course>
  <speed>5.353204647685348</speed>
  <fix>3d</fix>
</trkpt>
<trkpt lat="40.0712821" lon="-105.2297014">
  <ele>1583.0</ele>
  <time>2026-08-28T17:52:39Z</time>
  <course>131.21</course>
  <speed>5.29</speed>
  <fix>3d</fix>
</trkpt>
<trkpt lat="40.0712714" lon="-105.2296861">
  <ele>1583.02</ele>
  <time>2026-08-28T17:52:39Z</time>
  <course>132.86</course>
  <speed>5.35989738707748</speed>
  <fix>3d</fix>
</trkpt>
<trkpt lat="40.0712821" lon="-105.2297014">
  <ele>1583.0</ele>
  <time>2026-08-28T17:52:39Z</time>
  <course>131.21</course>
  <speed>5.29</speed>
  <fix>3d</fix>
</trkpt>
<trkpt lat="40.0712682" lon="-105.2296815">
  <ele>1583.02</ele>
  <time>2026-08-28T17:52:39Z</time>
  <course>133.0</course>
  <speed>5.3591883713861</speed>
  <fix>3d</fix>
</trkpt>
<trkpt lat="40.0712757" lon="-105.2296921">
  <ele>1583.0</ele>
  <time>2026-08-28T17:52:39Z</time>
  <course>131.5</course>
  <speed>5.34</speed>
  <fix>3d</fix>
</trkpt>
<trkpt lat="40.071265" lon="-105.2296768">
  <ele>1583.02</ele>
  <time>2026-08-28T17:52:39Z</time>
  <course>133.15</course>
  <speed>5.344389581607987</speed>
  <fix>3d</fix>
</trkpt>
<trkpt lat="40.0712694" lon="-105.2296826">
  <ele>1583.0</ele>
  <time>2026-08-28T17:52:39Z</time>
  <course>131.79</course>
  <speed>5.36</speed>
  <fix>3d</fix>
</trkpt>
<trkpt lat="40.0712618" lon="-105.2296721">
  <ele>1583.02</ele>
  <time>2026-08-28T17:52:39Z</time>
  <course>133.29</course>
  <speed>5.343753362572041</speed>
  <fix>3d</fix>
</trkpt>
<trkpt lat="40.0712694" lon="-105.2296826">
  <ele>1583.0</ele>
  <time>2026-08-28T17:52:39Z</time>
  <course>131.79</course>
  <speed>5.36</speed>
  <fix>3d</fix>
</trkpt>
<trkpt lat="40.0712585" lon="-105.2296675">
  <ele>1583.01</ele>
  <time>2026-08-28T17:52:39Z</time>
  <course>133.43</course>
  <speed>5.322255161113567</speed>
  <fix>3d</fix>
</trkpt>
<trkpt lat="40.0712629" lon="-105.2296733">
  <ele>1583.0</ele>
  <time>2026-08-28T17:52:39Z</time>
  <course>132.08</course>
  <speed>5.35</speed>
  <fix>3d</fix>
</trkpt>
<trkpt lat="40.0712553" lon="-105.2296629">
  <ele>1583.01</ele>
  <time>2026-08-28T17:52:39Z</time>
  <course>133.56</course>
  <speed>5.307541803886239</speed>
  <fix>3d</fix>
</trkpt>
<trkpt lat="40.0712629" lon="-105.2296733">
  <ele>1583.0</ele>
  <time>2026-08-28T17:52:39Z</time>
  <course>132.08</course>
  <speed>5.35</speed>
  <fix>3d</fix>
</trkpt>
<trkpt lat="40.0712521" lon="-105.2296583">
  <ele>1583.01</ele>
  <time>2026-08-28T17:52:39Z</time>
  <course>133.7</course>
  <speed>5.278730908087663</speed>
  <fix>3d</fix>
</trkpt>
<trkpt lat="40.0712564" lon="-105.2296639">
  <ele>1583.0</ele>
  <time>2026-08-28T17:52:39Z</time>
  <course>132.37</course>
  <speed>5.31</speed>
  <fix>3d</fix>
</trkpt>
<trkpt lat="40.0712489" lon="-105.2296537">
  <ele>1583.01</ele>
  <time>2026-08-28T17:52:39Z</time>
  <course>133.84</course>
  <speed>5.24995238073642</speed>
  <fix>3d</fix>
</trkpt>
<trkpt lat="40.0712564" lon="-105.2296639">
  <ele>1583.0</ele>
  <time>2026-08-28T17:52:39Z</time>
  <course>132.37</course>
  <speed>5.31</speed>
  <fix>3d</fix>
</trkpt>
<trkpt lat="40.0712457" lon="-105.2296491">
  <ele>1583.01</ele>
  <time>2026-08-28T17:52:39Z</time>
  <course>133.98</course>
  <speed>5.228508391501347</speed>
  <fix>3d</fix>
</trkpt>
<trkpt lat="40.0712501" lon="-105.2296548">
  <ele>1583.0</ele>
  <time>2026-08-28T17:52:39Z</time>
  <course>132.65</course>
  <speed>5.27</speed>
  <fix>3d</fix>
</trkpt>
<trkpt lat="40.0712424" lon="-105.2296446">
  <ele>1583.0</ele>
  <time>2026-08-28T17:52:39Z</time>
  <course>134.11</course>
  <speed>5.199778841450856</speed>
  <fix>3d</fix>
</trkpt>
<trkpt lat="40.0712501" lon="-105.2296548">
  <ele>1583.0</ele>
  <time>2026-08-28T17:52:39Z</time>
  <course>132.65</course>
  <speed>5.27</speed>
  <fix>3d</fix>
</trkpt>
<trkpt lat="40.0712393" lon="-105.2296401">
  <ele>1583.0</ele>
  <time>2026-08-28T17:52:39Z</time>
  <course>134.25</course>
  <speed>5.1710830587025</speed>
  <fix>3d</fix>
</trkpt>
<trkpt lat="40.0712436" lon="-105.2296458">
  <ele>1583.0</ele>
  <time>2026-08-28T17:52:39Z</time>
  <course>132.94</course>
  <speed>5.22</speed>
  <fix>3d</fix>
</trkpt>
<trkpt lat="40.0712361" lon="-105.2296356">
  <ele>1583.0</ele>
  <time>2026-08-28T17:52:39Z</time>
  <course>134.39</course>
  <speed>5.14242160854203</speed>
  <fix>3d</fix>
</trkpt>
<trkpt lat="40.0712436" lon="-105.2296458">
  <ele>1583.0</ele>
  <time>2026-08-28T17:52:39Z</time>
  <course>132.94</course>
  <speed>5.22</speed>
  <fix>3d</fix>
</trkpt>
<trkpt lat="40.0712329" lon="-105.2296312">
  <ele>1583.0</ele>
  <time>2026-08-28T17:52:39Z</time>
  <course>134.51</course>
  <speed>5.1210350516277465</speed>
  <fix>3d</fix>
</trkpt>
<trkpt lat="40.0712372" lon="-105.2296369">
  <ele>1583.0</ele>
  <time>2026-08-28T17:52:39Z</time>
  <course>133.21</course>
  <speed>5.16</speed>
  <fix>3d</fix>
</trkpt>
<trkpt lat="40.0712297" lon="-105.2296268">
  <ele>1582.99</ele>
  <time>2026-08-28T17:52:39Z</time>
  <course>134.63</course>
  <speed>5.0924257481086554</speed>
  <fix>3d</fix>
</trkpt>
<trkpt lat="40.0712372" lon="-105.2296369">
  <ele>1583.0</ele>
  <time>2026-08-28T17:52:39Z</time>
  <course>133.21</course>
  <speed>5.16</speed>
  <fix>3d</fix>
</trkpt>
<trkpt lat="40.0712265" lon="-105.2296225">
  <ele>1582.99</ele>
  <time>2026-08-28T17:52:39Z</time>
  <course>134.71</course>
  <speed>5.071064976905738</speed>
  <fix>3d</fix>
</trkpt>
<trkpt lat="40.0712309" lon="-105.2296281">
  <ele>1583.0</ele>
  <time>2026-08-28T17:52:39Z</time>
  <course>133.45</course>
  <speed>5.11</speed>
  <fix>3d</fix>
</trkpt>
<trkpt lat="40.0712234" lon="-105.2296181">
  <ele>1582.99</ele>
  <time>2026-08-28T17:52:39Z</time>
  <course>134.84</course>
  <speed>5.049712863124001</speed>
  <fix>3d</fix>
</trkpt>
<trkpt lat="40.0712309" lon="-105.2296281">
  <ele>1583.0</ele>
  <time>2026-08-28T17:52:39Z</time>
  <course>133.45</course>
  <speed>5.11</speed>
  <fix>3d</fix>
</trkpt>
<trkpt lat="40.0712202" lon="-105.2296138">
  <ele>1582.99</ele>
  <time>2026-08-28T17:52:39Z</time>
  <course>134.92</course>
  <speed>5.028369517050233</speed>
  <fix>3d</fix>
</trkpt>
<trkpt lat="40.0712309" lon="-105.2296281">
  <ele>1583.0</ele>
  <time>2026-08-28T17:52:39Z</time>
  <course>133.45</course>
  <speed>5.11</speed>
  <fix>3d</fix>
</trkpt>
<trkpt lat="40.0712171" lon="-105.2296096">
  <ele>1582.99</ele>
  <time>2026-08-28T17:52:39Z</time>
  <course>135.02</course>
  <speed>5.0070350508060155</speed>
  <fix>3d</fix>
</trkpt>
<trkpt lat="40.0712246" lon="-105.2296195">
  <ele>1583.0</ele>
  <time>2026-08-28T17:52:39Z</time>
  <course>133.66</course>
  <speed>5.07</speed>
  <fix>3d</fix>
</trkpt>
<trkpt lat="40.071214" lon="-105.2296054">
  <ele>1582.99</ele>
  <time>2026-08-28T17:52:39Z</time>
  <course>135.11</course>
  <speed>4.992674633901151</speed>
  <fix>3d</fix>
</trkpt>
<trkpt lat="40.0712246" lon="-105.2296195">
  <ele>1583.0</ele>
  <time>2026-08-28T17:52:39Z</time>
  <course>133.66</course>
  <speed>5.07</speed>
  <fix>3d</fix>
</trkpt>
<trkpt lat="40.071211" lon="-105.2296012">
  <ele>1582.99</ele>
  <time>2026-08-28T17:52:39Z</time>
  <course>135.19</course>
  <speed>4.978533920744138</speed>
  <fix>3d</fix>
</trkpt>
<trkpt lat="40.0712183" lon="-105.2296109">
  <ele>1583.0</ele>
  <time>2026-08-28T17:52:39Z</time>
  <course>133.86</course>
  <speed>5.03</speed>
  <fix>3d</fix>
</trkpt>
<trkpt lat="40.0712079" lon="-105.229597">
  <ele>1582.99</ele>
  <time>2026-08-28T17:52:39Z</time>
  <course>135.27</course>
  <speed>4.964211921342601</speed>
  <fix>3d</fix>
</trkpt>
<trkpt lat="40.0712183" lon="-105.2296109">
  <ele>1583.0</ele>
  <time>2026-08-28T17:52:39Z</time>
  <course>133.86</course>
  <speed>5.03</speed>
  <fix>3d</fix>
</trkpt>
<trkpt lat="40.0712048" lon="-105.2295929">
  <ele>1582.99</ele>
  <time>2026-08-28T17:52:39Z</time>
  <course>135.34</course>
  <speed>4.9500707065657155</speed>
  <fix>3d</fix>
</trkpt>
<trkpt lat="40.071212" lon="-105.2296024">
  <ele>1583.0</ele>
  <time>2026-08-28T17:52:39Z</time>
  <course>134.03</course>
  <speed>5.01</speed>
  <fix>3d</fix>
</trkpt>
<trkpt lat="40.0712017" lon="-105.2295887">
  <ele>1582.99</ele>
  <time>2026-08-28T17:52:39Z</time>
  <course>135.41</course>
  <speed>4.9429242357131065</speed>
  <fix>3d</fix>
</trkpt>
<trkpt lat="40.071212" lon="-105.2296024">
  <ele>1583.0</ele>
  <time>2026-08-28T17:52:39Z</time>
  <course>134.03</course>
  <speed>5.01</speed>
  <fix>3d</fix>
</trkpt>
<trkpt lat="40.0711986" lon="-105.2295846">
  <ele>1582.99</ele>
  <time>2026-08-28T17:52:39Z</time>
  <course>135.48</course>
  <speed>4.935787677767348</speed>
  <fix>3d</fix>
</trkpt>
<trkpt lat="40.0712058" lon="-105.2295939">
  <ele>1583.0</ele>
  <time>2026-08-28T17:52:39Z</time>
  <course>134.17</course>
  <speed>4.99</speed>
  <fix>3d</fix>
</trkpt>
<trkpt lat="40.0711955" lon="-105.2295804">
  <ele>1583.0</ele>
  <time>2026-08-28T17:52:39Z</time>
  <course>135.55</course>
  <speed>4.928661075789245</speed>
  <fix>3d</fix>
</trkpt>
<trkpt lat="40.0711996" lon="-105.2295856">
  <ele>1583.0</ele>
  <time>2026-08-28T17:52:39Z</time>
  <course>134.31</course>
  <speed>4.98</speed>
  <fix>3d</fix>
</trkpt>
<trkpt lat="40.0711924" lon="-105.2295763">
  <ele>1583.0</ele>
  <time>2026-08-28T17:52:39Z</time>
  <course>135.62</course>
  <speed>4.928661075789245</speed>
  <fix>3d</fix>
</trkpt>
<trkpt lat="40.0711996" lon="-105.2295856">
  <ele>1583.0</ele>
  <time>2026-08-28T17:52:39Z</time>
  <course>134.31</course>
  <speed>4.98</speed>
  <fix>3d</fix>
</trkpt>
<trkpt lat="40.0711893" lon="-105.2295722">
  <ele>1583.0</ele>
  <time>2026-08-28T17:52:39Z</time>
  <course>135.69</course>
  <speed>4.935686375773891</speed>
  <fix>3d</fix>
</trkpt>
<trkpt lat="40.0711933" lon="-105.2295772">
  <ele>1583.0</ele>
  <time>2026-08-28T17:52:39Z</time>
  <course>134.44</course>
  <speed>4.98</speed>
  <fix>3d</fix>
</trkpt>
<trkpt lat="40.0711862" lon="-105.229568">
  <ele>1583.0</ele>
  <time>2026-08-28T17:52:39Z</time>
  <course>135.75</course>
  <speed>4.928579917176955</speed>
  <fix>3d</fix>
</trkpt>
<trkpt lat="40.0711933" lon="-105.2295772">
  <ele>1583.0</ele>
  <time>2026-08-28T17:52:39Z</time>
  <course>134.44</course>
  <speed>4.98</speed>
  <fix>3d</fix>
</trkpt>
<trkpt lat="40.071183" lon="-105.2295638">
  <ele>1582.99</ele>
  <time>2026-08-28T17:52:39Z</time>
  <course>135.82</course>
  <speed>4.935625593579805</speed>
  <fix>3d</fix>
</trkpt>
<trkpt lat="40.071187" lon="-105.2295688">
  <ele>1583.0</ele>
  <time>2026-08-28T17:52:39Z</time>
  <course>134.58</course>
  <speed>4.98</speed>
  <fix>3d</fix>
</trkpt>
<trkpt lat="40.0711799" lon="-105.2295596">
  <ele>1582.99</ele>
  <time>2026-08-28T17:52:39Z</time>
  <course>135.89</course>
  <speed>4.942681458479799</speed>
  <fix>3d</fix>
</trkpt>
<trkpt lat="40.071187" lon="-105.2295688">
  <ele>1583.0</ele>
  <time>2026-08-28T17:52:39Z</time>
  <course>134.58</course>
  <speed>4.98</speed>
  <fix>3d</fix>
</trkpt>
<trkpt lat="40.0711767" lon="-105.2295554">
  <ele>1582.99</ele>
  <time>2026-08-28T17:52:39Z</time>
  <course>135.95</course>
  <speed>4.949747468305833</speed>
  <fix>3d</fix>
</trkpt>
<trkpt lat="40.0711807" lon="-105.2295605">
  <ele>1583.0</ele>
  <time>2026-08-28T17:52:39Z</time>
  <course>134.71</course>
  <speed>4.99</speed>
  <fix>3d</fix>
</trkpt>
<trkpt lat="40.0711735" lon="-105.2295512">
  <ele>1582.99</ele>
  <time>2026-08-28T17:52:39Z</time>
  <course>136.02</course>
  <speed>4.949747468305833</speed>
  <fix>3d</fix>
</trkpt>
<trkpt lat="40.0711807" lon="-105.2295605">
  <ele>1583.0</ele>
  <time>2026-08-28T17:52:39Z</time>
  <course>134.71</course>
  <speed>4.99</speed>
  <fix>3d</fix>
</trkpt>
<trkpt lat="40.0711703" lon="-105.2295471">
  <ele>1582.99</ele>
  <time>2026-08-28T17:52:39Z</time>
  <course>136.09</course>
  <speed>4.956823579672773</speed>
  <fix>3d</fix>
</trkpt>
<trkpt lat="40.0711743" lon="-105.2295522">
  <ele>1583.0</ele>
  <time>2026-08-28T17:52:39Z</time>
  <course>134.85</course>
  <speed>5.0</speed>
  <fix>3d</fix>
</trkpt>
<trkpt lat="40.0711671" lon="-105.2295429">
  <ele>1582.99</ele>
  <time>2026-08-28T17:52:39Z</time>
  <course>136.15</course>
  <speed>4.963909749381026</speed>
  <fix>3d</fix>
</trkpt>
<trkpt lat="40.0711743" lon="-105.2295522">
  <ele>1583.0</ele>
  <time>2026-08-28T17:52:39Z</time>
  <course>134.85</course>
  <speed>5.0</speed>
  <fix>3d</fix>
</trkpt>
<trkpt lat="40.0711639" lon="-105.2295387">
  <ele>1582.99</ele>
  <time>2026-08-28T17:52:39Z</time>
  <course>136.22</course>
  <speed>4.971005934416091</speed>
  <fix>3d</fix>
</trkpt>
<trkpt lat="40.071168" lon="-105.2295438">
  <ele>1583.0</ele>
  <time>2026-08-28T17:52:39Z</time>
  <course>134.98</course>
  <speed>5.01</speed>
  <fix>3d</fix>
</trkpt>
<trkpt lat="40.0711607" lon="-105.2295345">
  <ele>1582.99</ele>
  <time>2026-08-28T17:52:39Z</time>
  <course>136.29</course>
  <speed>4.978112091948111</speed>
  <fix>3d</fix>
</trkpt>
<trkpt lat="40.071168" lon="-105.2295438">
  <ele>1583.0</ele>
  <time>2026-08-28T17:52:39Z</time>
  <course>134.98</course>
  <speed>5.01</speed>
  <fix>3d</fix>
</trkpt>
<trkpt lat="40.0711575" lon="-105.2295304">
  <ele>1582.99</ele>
  <time>2026-08-28T17:52:39Z</time>
  <course>136.35</course>
  <speed>4.978112091948111</speed>
  <fix>3d</fix>
</trkpt>
<trkpt lat="40.0711617" lon="-105.2295355">
  <ele>1583.0</ele>
  <time>2026-08-28T17:52:39Z</time>
  <course>135.12</course>
  <speed>5.02</speed>
  <fix>3d</fix>
</trkpt>
<trkpt lat="40.0711543" lon="-105.2295262">
  <ele>1582.99</ele>
  <time>2026-08-28T17:52:39Z</time>
  <course>136.42</course>
  <speed>4.9782125306177925</speed>
  <fix>3d</fix>
</trkpt>
<trkpt lat="40.0711617" lon="-105.2295355">
  <ele>1583.0</ele>
  <time>2026-08-28T17:52:39Z</time>
  <course>135.12</course>
  <speed>5.02</speed>
  <fix>3d</fix>
</trkpt>
<trkpt lat="40.071151" lon="-105.229522">
  <ele>1582.99</ele>
  <time>2026-08-28T17:52:39Z</time>
  <course>136.49</course>
  <speed>4.985348533452802</speed>
  <fix>3d</fix>
</trkpt>
<trkpt lat="40.0711617" lon="-105.2295355">
  <ele>1583.0</ele>
  <time>2026-08-28T17:52:39Z</time>
  <course>135.12</course>
  <speed>5.02</speed>
  <fix>3d</fix>
</trkpt>
<trkpt lat="40.0711478" lon="-105.2295179">
  <ele>1583.0</ele>
  <time>2026-08-28T17:52:39Z</time>
  <course>136.56</course>
  <speed>4.9783531413510635</speed>
  <fix>3d</fix>
</trkpt>
<trkpt lat="40.0711552" lon="-105.2295272">
  <ele>1583.0</ele>
  <time>2026-08-28T17:52:39Z</time>
  <course>135.26</course>
  <speed>5.02</speed>
  <fix>3d</fix>
</trkpt>
<trkpt lat="40.0711446" lon="-105.2295138">
  <ele>1583.0</ele>
  <time>2026-08-28T17:52:39Z</time>
  <course>136.63</course>
  <speed>4.964211921342601</speed>
  <fix>3d</fix>
</trkpt>
<trkpt lat="40.0711552" lon="-105.2295272">
  <ele>1583.0</ele>
  <time>2026-08-28T17:52:39Z</time>
  <course>135.26</course>
  <speed>5.02</speed>
  <fix>3d</fix>
</trkpt>
<trkpt lat="40.0711415" lon="-105.2295097">
  <ele>1583.01</ele>
  <time>2026-08-28T17:52:39Z</time>
  <course>136.7</course>
  <speed>4.943086080577598</speed>
  <fix>3d</fix>
</trkpt>
<trkpt lat="40.0711488" lon="-105.2295189">
  <ele>1583.0</ele>
  <time>2026-08-28T17:52:39Z</time>
  <course>135.39</course>
  <speed>5.02</speed>
  <fix>3d</fix>
</trkpt>
<trkpt lat="40.0711383" lon="-105.2295057">
  <ele>1583.01</ele>
  <time>2026-08-28T17:52:39Z</time>
  <course>136.77</course>
  <speed>4.907830477919954</speed>
  <fix>3d</fix>
</trkpt>
<trkpt lat="40.0711488" lon="-105.2295189">
  <ele>1583.0</ele>
  <time>2026-08-28T17:52:39Z</time>
  <course>135.39</course>
  <speed>5.02</speed>
  <fix>3d</fix>
</trkpt>
<trkpt lat="40.0711352" lon="-105.2295016">
  <ele>1583.01</ele>
  <time>2026-08-28T17:52:39Z</time>
  <course>136.84</course>
  <speed>4.865408513167214</speed>
  <fix>3d</fix>
</trkpt>
<trkpt lat="40.0711424" lon="-105.2295106">
  <ele>1583.0</ele>
  <time>2026-08-28T17:52:39Z</time>
  <course>135.53</course>
  <speed>4.98</speed>
  <fix>3d</fix>
</trkpt>
<trkpt lat="40.071132" lon="-105.2294977">
  <ele>1583.01</ele>
  <time>2026-08-28T17:52:39Z</time>
  <course>136.91</course>
  <speed>4.81602533215929</speed>
  <fix>3d</fix>
</trkpt>
<trkpt lat="40.071136" lon="-105.2295025">
  <ele>1583.0</ele>
  <time>2026-08-28T17:52:39Z</time>
  <course>135.66</course>
  <speed>4.91</speed>
  <fix>3d</fix>
</trkpt>
<trkpt lat="40.0711289" lon="-105.2294937">
  <ele>1583.01</ele>
  <time>2026-08-28T17:52:39Z</time>
  <course>136.98</course>
  <speed>4.745324014227058</speed>
  <fix>3d</fix>
</trkpt>
<trkpt lat="40.071136" lon="-105.2295025">
  <ele>1583.0</ele>
  <time>2026-08-28T17:52:39Z</time>
  <course>135.66</course>
  <speed>4.91</speed>
  <fix>3d</fix>
</trkpt>
<trkpt lat="40.0711259" lon="-105.2294898">
  <ele>1583.01</ele>
  <time>2026-08-28T17:52:39Z</time>
  <course>137.04</course>
  <speed>4.667676081306414</speed>
  <fix>3d</fix>
</trkpt>
<trkpt lat="40.0711297" lon="-105.2294946">
  <ele>1583.0</ele>
  <time>2026-08-28T17:52:39Z</time>
  <course>135.79</course>
  <speed>4.79</speed>
  <fix>3d</fix>
</trkpt>
<trkpt lat="40.0711229" lon="-105.229486">
  <ele>1583.01</ele>
  <time>2026-08-28T17:52:39Z</time>
  <course>137.1</course>
  <speed>4.582837548942795</speed>
  <fix>3d</fix>
</trkpt>
<trkpt lat="40.0711297" lon="-105.2294946">
  <ele>1583.0</ele>
  <time>2026-08-28T17:52:39Z</time>
  <course>135.79</course>
  <speed>4.79</speed>
  <fix>3d</fix>
</trkpt>
<trkpt lat="40.0711199" lon="-105.2294823">
  <ele>1583.02</ele>
  <time>2026-08-28T17:52:39Z</time>
  <course>137.17</course>
  <speed>4.491068915080239</speed>
  <fix>3d</fix>
</trkpt>
<trkpt lat="40.0711237" lon="-105.2294869">
  <ele>1583.0</ele>
  <time>2026-08-28T17:52:39Z</time>
  <course>135.92</course>
  <speed>4.63</speed>
  <fix>3d</fix>
</trkpt>
<trkpt lat="40.071117" lon="-105.2294786">
  <ele>1583.02</ele>
  <time>2026-08-28T17:52:39Z</time>
  <course>137.23</course>
  <speed>4.384883122729727</speed>
  <fix>3d</fix>
</trkpt>
<trkpt lat="40.0711237" lon="-105.2294869">
  <ele>1583.0</ele>
  <time>2026-08-28T17:52:39Z</time>
  <course>135.92</course>
  <speed>4.63</speed>
  <fix>3d</fix>
</trkpt>
<trkpt lat="40.0711142" lon="-105.229475">
  <ele>1583.02</ele>
  <time>2026-08-28T17:52:39Z</time>
  <course>137.29</course>
  <speed>4.2789835241561756</speed>
  <fix>3d</fix>
</trkpt>
<trkpt lat="40.0711178" lon="-105.2294795">
  <ele>1583.0</ele>
  <time>2026-08-28T17:52:39Z</time>
  <course>136.04</course>
  <speed>4.43</speed>
  <fix>3d</fix>
</trkpt>
<trkpt lat="40.0711114" lon="-105.2294715">
  <ele>1583.01</ele>
  <time>2026-08-28T17:52:39Z</time>
  <course>137.35</course>
  <speed>4.15865362827923</speed>
  <fix>3d</fix>
</trkpt>
<trkpt lat="40.0711178" lon="-105.2294795">
  <ele>1583.0</ele>
  <time>2026-08-28T17:52:39Z</time>
  <course>136.04</course>
  <speed>4.43</speed>
  <fix>3d</fix>
</trkpt>
<trkpt lat="40.0711087" lon="-105.2294682">
  <ele>1583.01</ele>
  <time>2026-08-28T17:52:39Z</time>
  <course>137.4</course>
  <speed>4.038626003977095</speed>
  <fix>3d</fix>
</trkpt>
<trkpt lat="40.0711122" lon="-105.2294724">
  <ele>1583.0</ele>
  <time>2026-08-28T17:52:39Z</time>
  <course>136.16</course>
  <speed>4.21</speed>
  <fix>3d</fix>
</trkpt>
<trkpt lat="40.0711061" lon="-105.2294649">
  <ele>1583.01</ele>
  <time>2026-08-28T17:52:39Z</time>
  <course>137.46</course>
  <speed>3.9113808303462347</speed>
  <fix>3d</fix>
</trkpt>
<trkpt lat="40.0711122" lon="-105.2294724">
  <ele>1583.0</ele>
  <time>2026-08-28T17:52:39Z</time>
  <course>136.16</course>
  <speed>4.21</speed>
  <fix>3d</fix>
</trkpt>
<trkpt lat="40.0711036" lon="-105.2294617">
  <ele>1583.01</ele>
  <time>2026-08-28T17:52:39Z</time>
  <course>137.51</course>
  <speed>3.7841379467455996</speed>
  <fix>3d</fix>
</trkpt>
<trkpt lat="40.0711069" lon="-105.2294657">
  <ele>1583.0</ele>
  <time>2026-08-28T17:52:39Z</time>
  <course>136.27</course>
  <speed>3.97</speed>
  <fix>3d</fix>
</trkpt>
<trkpt lat="40.0711011" lon="-105.2294587">
  <ele>1583.01</ele>
  <time>2026-08-28T17:52:39Z</time>
  <course>137.56</course>
  <speed>3.6568975922221285</speed>
  <fix>3d</fix>
</trkpt>
<trkpt lat="40.0711069" lon="-105.2294657">
  <ele>1583.0</ele>
  <time>2026-08-28T17:52:39Z</time>
  <course>136.27</course>
  <speed>3.97</speed>
  <fix>3d</fix>
</trkpt>
<trkpt lat="40.0710988" lon="-105.2294557">
  <ele>1583.01</ele>
  <time>2026-08-28T17:52:39Z</time>
  <course>137.61</course>
  <speed>3.5224139450098706</speed>
  <fix>3d</fix>
</trkpt>
<trkpt lat="40.0711019" lon="-105.2294595">
  <ele>1583.0</ele>
  <time>2026-08-28T17:52:39Z</time>
  <course>136.38</course>
  <speed>3.71</speed>
  <fix>3d</fix>
</trkpt>
<trkpt lat="40.0710965" lon="-105.2294529">
  <ele>1583.01</ele>
  <time>2026-08-28T17:52:39Z</time>
  <course>137.66</course>
  <speed>3.3951730441908263</speed>
  <fix>3d</fix>
</trkpt>
<trkpt lat="40.0711019" lon="-105.2294595">
  <ele>1583.0</ele>
  <time>2026-08-28T17:52:39Z</time>
  <course>136.38</course>
  <speed>3.71</speed>
  <fix>3d</fix>
</trkpt>
<trkpt lat="40.0710943" lon="-105.2294502">
  <ele>1583.01</ele>
  <time>2026-08-28T17:52:39Z</time>
  <course>137.7</course>
  <speed>3.267935127875093</speed>
  <fix>3d</fix>
</trkpt>
<trkpt lat="40.0711019" lon="-105.2294595">
  <ele>1583.0</ele>
  <time>2026-08-28T17:52:39Z</time>
  <course>136.38</course>
  <speed>3.71</speed>
  <fix>3d</fix>
</trkpt>
<trkpt lat="40.0710923" lon="-105.2294476">
  <ele>1583.01</ele>
  <time>2026-08-28T17:52:39Z</time>
  <course>137.76</course>
  <speed>3.133448579440869</speed>
  <fix>3d</fix>
</trkpt>
<trkpt lat="40.0710973" lon="-105.2294536">
  <ele>1583.0</ele>
  <time>2026-08-28T17:52:39Z</time>
  <course>136.47</course>
  <speed>3.45</speed>
  <fix>3d</fix>
</trkpt>
<trkpt lat="40.0710903" lon="-105.2294451">
  <ele>1583.01</ele>
  <time>2026-08-28T17:52:39Z</time>
  <course>137.82</course>
  <speed>3.006210238822295</speed>
  <fix>3d</fix>
</trkpt>
<trkpt lat="40.0710973" lon="-105.2294536">
  <ele>1583.0</ele>
  <time>2026-08-28T17:52:39Z</time>
  <course>136.47</course>
  <speed>3.45</speed>
  <fix>3d</fix>
</trkpt>
<trkpt lat="40.0710883" lon="-105.2294427">
  <ele>1583.01</ele>
  <time>2026-08-28T17:52:39Z</time>
  <course>137.9</course>
  <speed>2.878975512226528</speed>
  <fix>3d</fix>
</trkpt>
<trkpt lat="40.0710929" lon="-105.2294483">
  <ele>1583.0</ele>
  <time>2026-08-28T17:52:39Z</time>
  <course>136.58</course>
  <speed>3.2</speed>
  <fix>3d</fix>
</trkpt>
<trkpt lat="40.0710865" lon="-105.2294404">
  <ele>1583.01</ele>
  <time>2026-08-28T17:52:39Z</time>
  <course>137.98</course>
  <speed>2.7517449009673847</speed>
  <fix>3d</fix>
</trkpt>
<trkpt lat="40.0710929" lon="-105.2294483">
  <ele>1583.0</ele>
  <time>2026-08-28T17:52:39Z</time>
  <course>136.58</course>
  <speed>3.2</speed>
  <fix>3d</fix>
</trkpt>
<trkpt lat="40.0710848" lon="-105.2294383">
  <ele>1583.0</ele>
  <time>2026-08-28T17:52:39Z</time>
  <course>138.06</course>
  <speed>2.6313874667178907</speed>
  <fix>3d</fix>
</trkpt>
<trkpt lat="40.0710889" lon="-105.2294433">
  <ele>1583.0</ele>
  <time>2026-08-28T17:52:39Z</time>
  <course>136.72</course>
  <speed>2.95</speed>
  <fix>3d</fix>
</trkpt>
<trkpt lat="40.0710831" lon="-105.2294362">
  <ele>1583.0</ele>
  <time>2026-08-28T17:52:39Z</time>
  <course>138.13</course>
  <speed>2.511433853399289</speed>
  <fix>3d</fix>
</trkpt>
<trkpt lat="40.0710889" lon="-105.2294433">
  <ele>1583.0</ele>
  <time>2026-08-28T17:52:39Z</time>
  <course>136.72</course>
  <speed>2.95</speed>
  <fix>3d</fix>
</trkpt>
<trkpt lat="40.0710815" lon="-105.2294342">
  <ele>1583.0</ele>
  <time>2026-08-28T17:52:39Z</time>
  <course>138.19</course>
  <speed>2.3910667075596197</speed>
  <fix>3d</fix>
</trkpt>
<trkpt lat="40.0710852" lon="-105.2294388">
  <ele>1583.0</ele>
  <time>2026-08-28T17:52:39Z</time>
  <course>136.87</course>
  <speed>2.7</speed>
  <fix>3d</fix>
</trkpt>
<trkpt lat="40.0710799" lon="-105.2294323">
  <ele>1583.0</ele>
  <time>2026-08-28T17:52:39Z</time>
  <course>138.26</course>
  <speed>2.277981562699751</speed>
  <fix>3d</fix>
</trkpt>
<trkpt lat="40.0710818" lon="-105.2294346">
  <ele>1583.0</ele>
  <time>2026-08-28T17:52:39Z</time>
  <course>137.02</course>
  <speed>2.47</speed>
  <fix>3d</fix>
</trkpt>
<trkpt lat="40.0710784" lon="-105.2294305">
  <ele>1583.0</ele>
  <time>2026-08-28T17:52:39Z</time>
  <course>138.32</course>
  <speed>2.164901845350038</speed>
  <fix>3d</fix>
</trkpt>
<trkpt lat="40.0710818" lon="-105.2294346">
  <ele>1583.0</ele>
  <time>2026-08-28T17:52:39Z</time>
  <course>137.02</course>
  <speed>2.47</speed>
  <fix>3d</fix>
</trkpt>
<trkpt lat="40.0710771" lon="-105.2294288">
  <ele>1583.0</ele>
  <time>2026-08-28T17:52:39Z</time>
  <course>138.39</course>
  <speed>2.058664615715731</speed>
  <fix>3d</fix>
</trkpt>
<trkpt lat="40.0710787" lon="-105.2294308">
  <ele>1583.0</ele>
  <time>2026-08-28T17:52:39Z</time>
  <course>137.15</course>
  <speed>2.25</speed>
  <fix>3d</fix>
</trkpt>
<trkpt lat="40.0710757" lon="-105.2294272">
  <ele>1583.0</ele>
  <time>2026-08-28T17:52:39Z</time>
  <course>138.48</course>
  <speed>1.9528952864913163</speed>
  <fix>3d</fix>
</trkpt>
<trkpt lat="40.0710787" lon="-105.2294308">
  <ele>1583.0</ele>
  <time>2026-08-28T17:52:39Z</time>
  <course>137.15</course>
  <speed>2.25</speed>
  <fix>3d</fix>
</trkpt>
<trkpt lat="40.0710744" lon="-105.2294256">
  <ele>1582.99</ele>
  <time>2026-08-28T17:52:39Z</time>
  <course>138.56</course>
  <speed>1.8466456075814872</speed>
  <fix>3d</fix>
</trkpt>
<trkpt lat="40.0710758" lon="-105.2294274">
  <ele>1583.0</ele>
  <time>2026-08-28T17:52:39Z</time>
  <course>137.3</course>
  <speed>2.03</speed>
  <fix>3d</fix>
</trkpt>
<trkpt lat="40.0710732" lon="-105.2294242">
  <ele>1582.99</ele>
  <time>2026-08-28T17:52:39Z</time>
  <course>138.63</course>
  <speed>1.7477127910500627</speed>
  <fix>3d</fix>
</trkpt>
<trkpt lat="40.0710758" lon="-105.2294274">
  <ele>1583.0</ele>
  <time>2026-08-28T17:52:39Z</time>
  <course>137.3</course>
  <speed>2.03</speed>
  <fix>3d</fix>
</trkpt>
<trkpt lat="40.071072" lon="-105.2294228">
  <ele>1582.99</ele>
  <time>2026-08-28T17:52:39Z</time>
  <course>138.71</course>
  <speed>1.6487874332369228</speed>
  <fix>3d</fix>
</trkpt>
<trkpt lat="40.0710732" lon="-105.2294244">
  <ele>1583.0</ele>
  <time>2026-08-28T17:52:39Z</time>
  <course>137.47</course>
  <speed>1.83</speed>
  <fix>3d</fix>
</trkpt>
<trkpt lat="40.0710709" lon="-105.2294214">
  <ele>1582.98</ele>
  <time>2026-08-28T17:52:39Z</time>
  <course>138.8</course>
  <speed>1.5498709623707387</speed>
  <fix>3d</fix>
</trkpt>
<trkpt lat="40.0710732" lon="-105.2294244">
  <ele>1583.0</ele>
  <time>2026-08-28T17:52:39Z</time>
  <course>137.47</course>
  <speed>1.83</speed>
  <fix>3d</fix>
</trkpt>
<trkpt lat="40.0710699" lon="-105.2294202">
  <ele>1582.98</ele>
  <time>2026-08-28T17:52:39Z</time>
  <course>138.89</course>
  <speed>1.4509651959988565</speed>
  <fix>3d</fix>
</trkpt>
<trkpt lat="40.071071" lon="-105.2294216">
  <ele>1583.0</ele>
  <time>2026-08-28T17:52:39Z</time>
  <course>137.63</course>
  <speed>1.63</speed>
  <fix>3d</fix>
</trkpt>
<trkpt lat="40.0710689" lon="-105.2294191">
  <ele>1582.99</ele>
  <time>2026-08-28T17:52:39Z</time>
  <course>138.98</course>
  <speed>1.3520724832641184</speed>
  <fix>3d</fix>
</trkpt>
<trkpt lat="40.071071" lon="-105.2294216">
  <ele>1583.0</ele>
  <time>2026-08-28T17:52:39Z</time>
  <course>137.63</course>
  <speed>1.63</speed>
  <fix>3d</fix>
</trkpt>
<trkpt lat="40.071068" lon="-105.229418">
  <ele>1582.99</ele>
  <time>2026-08-28T17:52:39Z</time>
  <course>139.08</course>
  <speed>1.2531959144523253</speed>
  <fix>3d</fix>
</trkpt>
<trkpt lat="40.0710689" lon="-105.2294192">
  <ele>1583.0</ele>
  <time>2026-08-28T17:52:39Z</time>
  <course>137.82</course>
  <speed>1.43</speed>
  <fix>3d</fix>
</trkpt>
<trkpt lat="40.0710672" lon="-105.229417">
  <ele>1582.99</ele>
  <time>2026-08-28T17:52:39Z</time>
  <course>139.2</course>
  <speed>1.1610340218959994</speed>
  <fix>3d</fix>
</trkpt>
<trkpt lat="40.0710689" lon="-105.2294192">
  <ele>1583.0</ele>
  <time>2026-08-28T17:52:39Z</time>
  <course>137.82</course>
  <speed>1.43</speed>
  <fix>3d</fix>
</trkpt>
<trkpt lat="40.0710664" lon="-105.2294161">
  <ele>1582.99</ele>
  <time>2026-08-28T17:52:39Z</time>
  <course>139.32</course>
  <speed>1.0621675950620975</speed>
  <fix>3d</fix>
</trkpt>
<trkpt lat="40.0710689" lon="-105.2294192">
  <ele>1583.0</ele>
  <time>2026-08-28T17:52:39Z</time>
  <course>137.82</course>
  <speed>1.43</speed>
  <fix>3d</fix>
</trkpt>
<trkpt lat="40.0710657" lon="-105.2294153">
  <ele>1582.99</ele>
  <time>2026-08-28T17:52:39Z</time>
  <course>139.46</course>
  <speed>0.9633275663033837</speed>
  <fix>3d</fix>
</trkpt>
<trkpt lat="40.0710672" lon="-105.2294171">
  <ele>1583.0</ele>
  <time>2026-08-28T17:52:39Z</time>
  <course>138.04</course>
  <speed>1.24</speed>
  <fix>3d</fix>
</trkpt>
<trkpt lat="40.0710651" lon="-105.2294146">
  <ele>1582.99</ele>
  <time>2026-08-28T17:52:39Z</time>
  <course>139.61</course>
  <speed>0.8711486669908873</speed>
  <fix>3d</fix>
</trkpt>
<trkpt lat="40.0710672" lon="-105.2294171">
  <ele>1583.0</ele>
  <time>2026-08-28T17:52:39Z</time>
  <course>138.04</course>
  <speed>1.24</speed>
  <fix>3d</fix>
</trkpt>
<trkpt lat="40.0710645" lon="-105.2294139">
  <ele>1582.99</ele>
  <time>2026-08-28T17:52:39Z</time>
  <course>139.76</course>
  <speed>0.772334124585985</speed>
  <fix>3d</fix>
</trkpt>
<trkpt lat="40.0710657" lon="-105.2294153">
  <ele>1583.0</ele>
  <time>2026-08-28T17:52:39Z</time>
  <course>138.3</course>
  <speed>1.05</speed>
  <fix>3d</fix>
</trkpt>
<trkpt lat="40.071064" lon="-105.2294133">
  <ele>1582.99</ele>
  <time>2026-08-28T17:52:39Z</time>
  <course>139.69</course>
  <speed>0.6801470429252781</speed>
  <fix>3d</fix>
</trkpt>
<trkpt lat="40.0710657" lon="-105.2294153">
  <ele>1583.0</ele>
  <time>2026-08-28T17:52:39Z</time>
  <course>138.3</course>
  <speed>1.05</speed>
  <fix>3d</fix>
</trkpt>
<trkpt lat="40.0710635" lon="-105.2294128">
  <ele>1582.99</ele>
  <time>2026-08-28T17:52:39Z</time>
  <course>139.28</course>
  <speed>0.5805170109479997</speed>
  <fix>3d</fix>
</trkpt>
<trkpt lat="40.0710644" lon="-105.2294138">
  <ele>1583.0</ele>
  <time>2026-08-28T17:52:39Z</time>
  <course>138.5</course>
  <speed>0.85</speed>
  <fix>3d</fix>
</trkpt>
<trkpt lat="40.0710631" lon="-105.2294123">
  <ele>1582.99</ele>
  <time>2026-08-28T17:52:39Z</time>
  <course>138.53</course>
  <speed>0.4883646178829912</speed>
  <fix>3d</fix>
</trkpt>
<trkpt lat="40.0710644" lon="-105.2294138">
  <ele>1583.0</ele>
  <time>2026-08-28T17:52:39Z</time>
  <course>138.5</course>
  <speed>0.85</speed>
  <fix>3d</fix>
</trkpt>
<trkpt lat="40.0710628" lon="-105.2294119">
  <ele>1582.99</ele>
  <time>2026-08-28T17:52:39Z</time>
  <course>137.52</course>
  <speed>0.3889730067755345</speed>
  <fix>3d</fix>
</trkpt>
<trkpt lat="40.0710633" lon="-105.2294127">
  <ele>1583.0</ele>
  <time>2026-08-28T17:52:39Z</time>
  <course>138.04</course>
  <speed>0.66</speed>
  <fix>3d</fix>
</trkpt>
<trkpt lat="40.0710626" lon="-105.2294116">
  <ele>1582.99</ele>
  <time>2026-08-28T17:52:39Z</time>
  <course>136.38</course>
  <speed>0.29</speed>
  <fix>3d</fix>
</trkpt>
<trkpt lat="40.0710626" lon="-105.2294118">
  <ele>1583.0</ele>
  <time>2026-08-28T17:52:39Z</time>
  <course>136.52</course>
  <speed>0.47</speed>
  <fix>3d</fix>
</trkpt>
<trkpt lat="40.0710624" lon="-105.2294114">
  <ele>1582.99</ele>
  <time>2026-08-28T17:52:39Z</time>
  <course>135.23</course>
  <speed>0.191049731745428</speed>
  <fix>3d</fix>
</trkpt>
<trkpt lat="40.0710626" lon="-105.2294118">
  <ele>1583.0</ele>
  <time>2026-08-28T17:52:39Z</time>
  <course>136.52</course>
  <speed>0.47</speed>
  <fix>3d</fix>
</trkpt>
<trkpt lat="40.0710622" lon="-105.2294112">
  <ele>1582.99</ele>
  <time>2026-08-28T17:52:39Z</time>
  <course>134.24</course>
  <speed>0.09219544457292887</speed>
  <fix>3d</fix>
</trkpt>
<trkpt lat="40.0710621" lon="-105.2294111">
  <ele>1583.0</ele>
  <time>2026-08-28T17:52:39Z</time>
  <course>134.54</course>
  <speed>0.27</speed>
  <fix>3d</fix>
</trkpt>
<trkpt lat="40.0710622" lon="-105.2294111">
  <ele>1582.99</ele>
  <time>2026-08-28T17:52:39Z</time>
  <course>133.51</course>
  <speed>0.022360679774997897</speed>
  <fix>3d</fix>
</trkpt>
<trkpt lat="40.0710621" lon="-105.2294111">
  <ele>1583.0</ele>
  <time>2026-08-28T17:52:39Z</time>
  <course>134.54</course>
  <speed>0.27</speed>
  <fix>3d</fix>
</trkpt>
<trkpt lat="40.0710622" lon="-105.2294111">
  <ele>1582.99</ele>
  <time>2026-08-28T17:52:39Z</time>
  <course>133.36</course>
  <speed>0.0282842712474619</speed>
  <fix>3d</fix>
</trkpt>
<trkpt lat="40.0710618" lon="-105.2294108">
  <ele>1583.0</ele>
  <time>2026-08-28T17:52:39Z</time>
  <course>132.94</course>
  <speed>0.11</speed>
  <fix>3d</fix>
</trkpt>
<trkpt lat="40.0710621" lon="-105.2294111">
  <ele>1582.99</ele>
  <time>2026-08-28T17:52:39Z</time>
  <course>133.55</course>
  <speed>0.05</speed>
  <fix>3d</fix>
</trkpt>
<trkpt lat="40.0710618" lon="-105.2294108">
  <ele>1583.0</ele>
  <time>2026-08-28T17:52:39Z</time>
  <course>132.94</course>
  <speed>0.11</speed>
  <fix>3d</fix>
</trkpt>
<trkpt lat="40.0710622" lon="-105.2294111">
  <ele>1582.99</ele>
  <time>2026-08-28T17:52:39Z</time>
  <course>133.62</course>
  <speed>0.06403124237432849</speed>
  <fix>3d</fix>
</trkpt>
<trkpt lat="40.0710617" lon="-105.2294107">
  <ele>1583.0</ele>
  <time>2026-08-28T17:52:39Z</time>
  <course>132.45</course>
  <speed>0.02</speed>
  <fix>3d</fix>
</trkpt>
<trkpt lat="40.071062" lon="-105.2294111">
  <ele>1583.0</ele>
  <time>2026-08-28T17:52:39Z</time>
  <course>133.69</course>
  <speed>0.05</speed>
  <fix>3d</fix>
</trkpt>
<trkpt lat="40.0710617" lon="-105.2294107">
  <ele>1583.0</ele>
  <time>2026-08-28T17:52:39Z</time>
  <course>132.45</course>
  <speed>0.02</speed>
  <fix>3d</fix>
</trkpt>
<trkpt lat="40.071062" lon="-105.2294111">
  <ele>1583.0</ele>
  <time>2026-08-28T17:52:39Z</time>
  <course>133.88</course>
  <speed>0.022360679774997897</speed>
  <fix>3d</fix>
</trkpt>
<trkpt lat="40.0710617" lon="-105.2294106">
  <ele>1583.0</ele>
  <time>2026-08-28T17:52:39Z</time>
  <course>132.9</course>
  <speed>0.02</speed>
  <fix>3d</fix>
</trkpt>
<trkpt lat="40.071062" lon="-105.229411">
  <ele>1583.0</ele>
  <time>2026-08-28T17:52:39Z</time>
  <course>134.08</course>
  <speed>0.02</speed>
  <fix>3d</fix>
</trkpt>
<trkpt lat="40.0710617" lon="-105.2294106">
  <ele>1583.0</ele>
  <time>2026-08-28T17:52:39Z</time>
  <course>132.9</course>
  <speed>0.02</speed>
  <fix>3d</fix>
</trkpt>
<trkpt lat="40.071062" lon="-105.229411">
  <ele>1583.01</ele>
  <time>2026-08-28T17:52:39Z</time>
  <course>133.36</course>
  <speed>0.07211102550927978</speed>
  <fix>3d</fix>
</trkpt>
<trkpt lat="40.0710617" lon="-105.2294106">
  <ele>1583.0</ele>
  <time>2026-08-28T17:52:39Z</time>
  <course>132.37</course>
  <speed>0.09</speed>
  <fix>3d</fix>
</trkpt>
<trkpt lat="40.0710619" lon="-105.2294109">
  <ele>1583.01</ele>
  <time>2026-08-28T17:52:39Z</time>
  <course>132.24</course>
  <speed>0.1345362404707371</speed>
  <fix>3d</fix>
</trkpt>
<trkpt lat="40.0710617" lon="-105.2294106">
  <ele>1583.0</ele>
  <time>2026-08-28T17:52:39Z</time>
  <course>132.37</course>
  <speed>0.09</speed>
  <fix>3d</fix>
</trkpt>
<trkpt lat="40.0710617" lon="-105.2294107">
  <ele>1583.02</ele>
  <time>2026-08-28T17:52:39Z</time>
  <course>130.68</course>
  <speed>0.21213203435596426</speed>
  <fix>3d</fix>
</trkpt>
<trkpt lat="40.0710615" lon="-105.2294103">
  <ele>1583.0</ele>
  <time>2026-08-28T17:52:39Z</time>
  <course>130.43</course>
  <speed>0.21</speed>
  <fix>3d</fix>
</trkpt>
<trkpt lat="40.0710615" lon="-105.2294104">
  <ele>1583.02</ele>
  <time>2026-08-28T17:52:39Z</time>
  <course>128.64</course>
  <speed>0.2973213749463701</speed>
  <fix>3d</fix>
</trkpt>
<trkpt lat="40.0710615" lon="-105.2294103">
  <ele>1583.0</ele>
  <time>2026-08-28T17:52:39Z</time>
  <course>130.43</course>
  <speed>0.21</speed>
  <fix>3d</fix>
</trkpt>
<trkpt lat="40.0710613" lon="-105.22941">
  <ele>1583.02</ele>
  <time>2026-08-28T17:52:39Z</time>
  <course>126.09</course>
  <speed>0.378021163428716</speed>
  <fix>3d</fix>
</trkpt>
<trkpt lat="40.0710615" lon="-105.2294103">
  <ele>1583.0</ele>
  <time>2026-08-28T17:52:39Z</time>
  <course>130.43</course>
  <speed>0.21</speed>
  <fix>3d</fix>
</trkpt>
<trkpt lat="40.071061" lon="-105.2294095">
  <ele>1583.02</ele>
  <time>2026-08-28T17:52:39Z</time>
  <course>123.02</course>
  <speed>0.4604345773288535</speed>
  <fix>3d</fix>
</trkpt>
<trkpt lat="40.0710612" lon="-105.2294098">
  <ele>1583.0</ele>
  <time>2026-08-28T17:52:39Z</time>
  <course>126.7</course>
  <speed>0.36</speed>
  <fix>3d</fix>
</trkpt>
<trkpt lat="40.0710607" lon="-105.229409">
  <ele>1583.02</ele>
  <time>2026-08-28T17:52:39Z</time>
  <course>119.43</course>
  <speed>0.5470831746635972</speed>
  <fix>3d</fix>
</trkpt>
<trkpt lat="40.0710612" lon="-105.2294098">
  <ele>1583.0</ele>
  <time>2026-08-28T17:52:39Z</time>
  <course>126.7</course>
  <speed>0.36</speed>
  <fix>3d</fix>
</trkpt>
<trkpt lat="40.0710604" lon="-105.2294083">
  <ele>1583.02</ele>
  <time>2026-08-28T17:52:39Z</time>
  <course>115.32</course>
  <speed>0.6216912416947821</speed>
  <fix>3d</fix>
</trkpt>
<trkpt lat="40.0710607" lon="-105.2294089">
  <ele>1583.0</ele>
  <time>2026-08-28T17:52:39Z</time>
  <course>121.03</course>
  <speed>0.52</speed>
  <fix>3d</fix>
</trkpt>
<trkpt lat="40.0710602" lon="-105.2294075">
  <ele>1583.02</ele>
  <time>2026-08-28T17:52:39Z</time>
  <course>110.71</course>
  <speed>0.7057619995437555</speed>
  <fix>3d</fix>
</trkpt>
<trkpt lat="40.0710607" lon="-105.2294089">
  <ele>1583.0</ele>
  <time>2026-08-28T17:52:39Z</time>
  <course>121.03</course>
  <speed>0.52</speed>
  <fix>3d</fix>
</trkpt>
<trkpt lat="40.0710599" lon="-105.2294065">
  <ele>1583.01</ele>
  <time>2026-08-28T17:52:39Z</time>
  <course>105.61</course>
  <speed>0.7788452991448301</speed>
  <fix>3d</fix>
</trkpt>
<trkpt lat="40.0710602" lon="-105.2294077">
  <ele>1583.0</ele>
  <time>2026-08-28T17:52:39Z</time>
  <course>113.34</course>
  <speed>0.68</speed>
  <fix>3d</fix>
</trkpt>
<trkpt lat="40.0710598" lon="-105.2294055">
  <ele>1583.01</ele>
  <time>2026-08-28T17:52:39Z</time>
  <course>99.99</course>
  <speed>0.8515867542417507</speed>
  <fix>3d</fix>
</trkpt>
<trkpt lat="40.0710598" lon="-105.229406">
  <ele>1583.0</ele>
  <time>2026-08-28T17:52:39Z</time>
  <course>103.68</course>
  <speed>0.83</speed>
  <fix>3d</fix>
</trkpt>
<trkpt lat="40.0710597" lon="-105.2294044">
  <ele>1583.01</ele>
  <time>2026-08-28T17:52:39Z</time>
  <course>93.98</course>
  <speed>0.9213576938409967</speed>
  <fix>3d</fix>
</trkpt>
<trkpt lat="40.0710598" lon="-105.229406">
  <ele>1583.0</ele>
  <time>2026-08-28T17:52:39Z</time>
  <course>103.68</course>
  <speed>0.83</speed>
  <fix>3d</fix>
</trkpt>
<trkpt lat="40.0710596" lon="-105.2294032">
  <ele>1583.0</ele>
  <time>2026-08-28T17:52:39Z</time>
  <course>87.8</course>
  <speed>0.9912618221237011</speed>
  <fix>3d</fix>
</trkpt>
<trkpt lat="40.0710596" lon="-105.2294039">
  <ele>1583.0</ele>
  <time>2026-08-28T17:52:39Z</time>
  <course>92.31</course>
  <speed>0.97</speed>
  <fix>3d</fix>
</trkpt>
<trkpt lat="40.0710597" lon="-105.2294019">
  <ele>1583.0</ele>
  <time>2026-08-28T17:52:39Z</time>
  <course>82.39</course>
  <speed>1.0507616285342742</speed>
  <fix>3d</fix>
</trkpt>
<trkpt lat="40.0710596" lon="-105.2294039">
  <ele>1583.0</ele>
  <time>2026-08-28T17:52:39Z</time>
  <course>92.31</course>
  <speed>0.97</speed>
  <fix>3d</fix>
</trkpt>
<trkpt lat="40.0710599" lon="-105.2294005">
  <ele>1583.0</ele>
  <time>2026-08-28T17:52:39Z</time>
  <course>77.8</course>
  <speed>1.1085576214162258</speed>
  <fix>3d</fix>
</trkpt>
<trkpt lat="40.0710597" lon="-105.2294015">
  <ele>1583.0</ele>
  <time>2026-08-28T17:52:39Z</time>
  <course>81.36</course>
  <speed>1.09</speed>
  <fix>3d</fix>
</trkpt>
<trkpt lat="40.0710602" lon="-105.2293991">
  <ele>1583.0</ele>
  <time>2026-08-28T17:52:39Z</time>
  <course>73.93</course>
  <speed>1.1734138229968147</speed>
  <fix>3d</fix>
</trkpt>
<trkpt lat="40.0710597" lon="-105.2294015">
  <ele>1583.0</ele>
  <time>2026-08-28T17:52:39Z</time>
  <course>81.36</course>
  <speed>1.09</speed>
  <fix>3d</fix>
</trkpt>
<trkpt lat="40.0710606" lon="-105.2293977">
  <ele>1583.0</ele>
  <time>2026-08-28T17:52:39Z</time>
  <course>70.71</course>
  <speed>1.227762191957384</speed>
  <fix>3d</fix>
</trkpt>
<trkpt lat="40.0710601" lon="-105.2293988">
  <ele>1583.0</ele>
  <time>2026-08-28T17:52:39Z</time>
  <course>72.93</course>
  <speed>1.21</speed>
  <fix>3d</fix>
</trkpt>
<trkpt lat="40.0710609" lon="-105.2293962">
  <ele>1583.01</ele>
  <time>2026-08-28T17:52:39Z</time>
  <course>68.01</course>
  <speed>1.285496013218244</speed>
  <fix>3d</fix>
</trkpt>
<trkpt lat="40.0710601" lon="-105.2293988">
  <ele>1583.0</ele>
  <time>2026-08-28T17:52:39Z</time>
  <course>72.93</course>
  <speed>1.21</speed>
  <fix>3d</fix>
</trkpt>
<trkpt lat="40.0710614" lon="-105.2293948">
  <ele>1583.01</ele>
  <time>2026-08-28T17:52:39Z</time>
  <course>65.78</course>
  <speed>1.3418271125595878</speed>
  <fix>3d</fix>
</trkpt>
<trkpt lat="40.0710609" lon="-105.229396">
  <ele>1583.0</ele>
  <time>2026-08-28T17:52:39Z</time>
  <course>67.02</course>
  <speed>1.32</speed>
  <fix>3d</fix>
</trkpt>
<trkpt lat="40.071062" lon="-105.2293932">
  <ele>1583.01</ele>
  <time>2026-08-28T17:52:39Z</time>
  <course>63.92</course>
  <speed>1.4043147795277242</speed>
  <fix>3d</fix>
</trkpt>
<trkpt lat="40.0710609" lon="-105.229396">
  <ele>1583.0</ele>
  <time>2026-08-28T17:52:39Z</time>
  <course>67.02</course>
  <speed>1.32</speed>
  <fix>3d</fix>
</trkpt>
<trkpt lat="40.0710626" lon="-105.2293917">
  <ele>1583.02</ele>
  <time>2026-08-28T17:52:39Z</time>
  <course>62.38</course>
  <speed>1.4589036979869507</speed>
  <fix>3d</fix>
</trkpt>
<trkpt lat="40.0710619" lon="-105.2293931">
  <ele>1583.0</ele>
  <time>2026-08-28T17:52:39Z</time>
  <course>62.91</course>
  <speed>1.43</speed>
  <fix>3d</fix>
</trkpt>
<trkpt lat="40.0710633" lon="-105.2293901">
  <ele>1583.02</ele>
  <time>2026-08-28T17:52:39Z</time>
  <course>61.09</course>
  <speed>1.5144966160411186</speed>
  <fix>3d</fix>
</trkpt>
<trkpt lat="40.0710619" lon="-105.2293931">
  <ele>1583.0</ele>
  <time>2026-08-28T17:52:39Z</time>
  <course>62.91</course>
  <speed>1.43</speed>
  <fix>3d</fix>
</trkpt>
<trkpt lat="40.071064" lon="-105.2293884">
  <ele>1583.02</ele>
  <time>2026-08-28T17:52:39Z</time>
  <course>60.01</course>
  <speed>1.574357011608231</speed>
  <fix>3d</fix>
</trkpt>
<trkpt lat="40.0710632" lon="-105.22939">
  <ele>1583.0</ele>
  <time>2026-08-28T17:52:39Z</time>
  <course>60.07</course>
  <speed>1.54</speed>
  <fix>3d</fix>
</trkpt>
<trkpt lat="40.0710648" lon="-105.2293867">
  <ele>1583.02</ele>
  <time>2026-08-28T17:52:39Z</time>
  <course>59.11</course>
  <speed>1.6398170629676958</speed>
  <fix>3d</fix>
</trkpt>
<trkpt lat="40.0710632" lon="-105.22939">
  <ele>1583.0</ele>
  <time>2026-08-28T17:52:39Z</time>
  <course>60.07</course>
  <speed>1.54</speed>
  <fix>3d</fix>
</trkpt>
<trkpt lat="40.0710656" lon="-105.229385">
  <ele>1583.02</ele>
  <time>2026-08-28T17:52:39Z</time>
  <course>58.36</course>
  <speed>1.7003823099526765</speed>
  <fix>3d</fix>
</trkpt>
<trkpt lat="40.0710632" lon="-105.22939">
  <ele>1583.0</ele>
  <time>2026-08-28T17:52:39Z</time>
  <course>60.07</course>
  <speed>1.54</speed>
  <fix>3d</fix>
</trkpt>
<trkpt lat="40.0710665" lon="-105.2293833">
  <ele>1583.02</ele>
  <time>2026-08-28T17:52:39Z</time>
  <course>57.73</course>
  <speed>1.769547964876906</speed>
  <fix>3d</fix>
</trkpt>
<trkpt lat="40.0710646" lon="-105.2293868">
  <ele>1583.0</ele>
  <time>2026-08-28T17:52:39Z</time>
  <course>58.08</course>
  <speed>1.66</speed>
  <fix>3d</fix>
</trkpt>
<trkpt lat="40.0710674" lon="-105.2293814">
  <ele>1583.03</ele>
  <time>2026-08-28T17:52:39Z</time>
  <course>57.21</course>
  <speed>1.8388311504866346</speed>
  <fix>3d</fix>
</trkpt>
<trkpt lat="40.0710646" lon="-105.2293868">
  <ele>1583.0</ele>
  <time>2026-08-28T17:52:39Z</time>
  <course>58.08</course>
  <speed>1.66</speed>
  <fix>3d</fix>
</trkpt>
<trkpt lat="40.0710684" lon="-105.2293796">
  <ele>1583.03</ele>
  <time>2026-08-28T17:52:39Z</time>
  <course>56.78</course>
  <speed>1.908219064992277</speed>
  <fix>3d</fix>
</trkpt>
<trkpt lat="40.0710663" lon="-105.2293834">
  <ele>1583.0</ele>
  <time>2026-08-28T17:52:39Z</time>
  <course>56.69</course>
  <speed>1.79</speed>
  <fix>3d</fix>
</trkpt>
<trkpt lat="40.0710693" lon="-105.2293777">
  <ele>1583.03</ele>
  <time>2026-08-28T17:52:39Z</time>
  <course>56.42</course>
  <speed>1.9859506539690255</speed>
  <fix>3d</fix>
</trkpt>
<trkpt lat="40.0710663" lon="-105.2293834">
  <ele>1583.0</ele>
  <time>2026-08-28T17:52:39Z</time>
  <course>56.69</course>
  <speed>1.79</speed>
  <fix>3d</fix>
</trkpt>
<trkpt lat="40.0710704" lon="-105.2293757">
  <ele>1583.03</ele>
  <time>2026-08-28T17:52:39Z</time>
  <course>56.12</course>
  <speed>2.063710250980016</speed>
  <fix>3d</fix>
</trkpt>
<trkpt lat="40.0710682" lon="-105.2293797">
  <ele>1583.0</ele>
  <time>2026-08-28T17:52:39Z</time>
  <course>55.74</course>
  <speed>1.93</speed>
  <fix>3d</fix>
</trkpt>
<trkpt lat="40.0710715" lon="-105.2293736">
  <ele>1583.03</ele>
  <time>2026-08-28T17:52:39Z</time>
  <course>55.88</course>
  <speed>2.1472074888095936</speed>
  <fix>3d</fix>
</trkpt>
<trkpt lat="40.0710682" lon="-105.2293797">
  <ele>1583.0</ele>
  <time>2026-08-28T17:52:39Z</time>
  <course>55.74</course>
  <speed>1.93</speed>
  <fix>3d</fix>
</trkpt>
<trkpt lat="40.0710726" lon="-105.2293715">
  <ele>1583.03</ele>
  <time>2026-08-28T17:52:39Z</time>
  <course>55.67</course>
  <speed>2.2332263655975404</speed>
  <fix>3d</fix>
</trkpt>
<trkpt lat="40.0710703" lon="-105.2293758">
  <ele>1583.0</ele>
  <time>2026-08-28T17:52:39Z</time>
  <course>55.08</course>
  <speed>2.08</speed>
  <fix>3d</fix>
</trkpt>
<trkpt lat="40.0710738" lon="-105.2293692">
  <ele>1583.04</ele>
  <time>2026-08-28T17:52:39Z</time>
  <course>55.51</course>
  <speed>2.324994623649698</speed>
  <fix>3d</fix>
</trkpt>
<trkpt lat="40.0710725" lon="-105.2293717">
  <ele>1583.0</ele>
  <time>2026-08-28T17:52:39Z</time>
  <course>54.63</course>
  <speed>2.25</speed>
  <fix>3d</fix>
</trkpt>
<trkpt lat="40.0710751" lon="-105.2293669">
  <ele>1583.04</ele>
  <time>2026-08-28T17:52:39Z</time>
  <course>55.38</course>
  <speed>2.416795398870165</speed>
  <fix>3d</fix>
</trkpt>
<trkpt lat="40.0710725" lon="-105.2293717">
  <ele>1583.0</ele>
  <time>2026-08-28T17:52:39Z</time>
  <course>54.63</course>
  <speed>2.25</speed>
  <fix>3d</fix>
</trkpt>
<trkpt lat="40.0710764" lon="-105.2293645">
  <ele>1583.05</ele>
  <time>2026-08-28T17:52:39Z</time>
  <course>55.28</course>
  <speed>2.510975905897944</speed>
  <fix>3d</fix>
</trkpt>
<trkpt lat="40.071075" lon="-105.2293673">
  <ele>1583.0</ele>
  <time>2026-08-28T17:52:39Z</time>
  <course>54.35</course>
  <speed>2.43</speed>
  <fix>3d</fix>
</trkpt>
<trkpt lat="40.0710778" lon="-105.229362">
  <ele>1583.05</ele>
  <time>2026-08-28T17:52:39Z</time>
  <course>55.21</course>
  <speed>2.6109385285755007</speed>
  <fix>3d</fix>
</trkpt>
<trkpt lat="40.071075" lon="-105.2293673">
  <ele>1583.0</ele>
  <time>2026-08-28T17:52:39Z</time>
  <course>54.35</course>
  <speed>2.43</speed>
  <fix>3d</fix>
</trkpt>
<trkpt lat="40.0710792" lon="-105.2293594">
  <ele>1583.05</ele>
  <time>2026-08-28T17:52:39Z</time>
  <course>55.15</course>
  <speed>2.7109039082933206</speed>
  <fix>3d</fix>
</trkpt>
<trkpt lat="40.0710776" lon="-105.2293625">
  <ele>1583.0</ele>
  <time>2026-08-28T17:52:39Z</time>
  <course>54.19</course>
  <speed>2.62</speed>
  <fix>3d</fix>
</trkpt>
<trkpt lat="40.0710807" lon="-105.2293567">
  <ele>1583.05</ele>
  <time>2026-08-28T17:52:39Z</time>
  <course>55.11</course>
  <speed>2.810871750898643</speed>
  <fix>3d</fix>
</trkpt>
<trkpt lat="40.0710776" lon="-105.2293625">
  <ele>1583.0</ele>
  <time>2026-08-28T17:52:39Z</time>
  <course>54.19</course>
  <speed>2.62</speed>
  <fix>3d</fix>
</trkpt>
<trkpt lat="40.0710822" lon="-105.2293539">
  <ele>1583.05</ele>
  <time>2026-08-28T17:52:39Z</time>
  <course>55.1</course>
  <speed>2.9189895511974684</speed>
  <fix>3d</fix>
</trkpt>
<trkpt lat="40.0710804" lon="-105.2293573">
  <ele>1583.0</ele>
  <time>2026-08-28T17:52:39Z</time>
  <course>54.11</course>
  <speed>2.82</speed>
  <fix>3d</fix>
</trkpt>
<trkpt lat="40.0710838" lon="-105.229351">
  <ele>1583.05</ele>
  <time>2026-08-28T17:52:39Z</time>
  <course>55.09</course>
  <speed>3.0189567734566856</speed>
  <fix>3d</fix>
</trkpt>
<trkpt lat="40.0710804" lon="-105.2293573">
  <ele>1583.0</ele>
  <time>2026-08-28T17:52:39Z</time>
  <course>54.11</course>
  <speed>2.82</speed>
  <fix>3d</fix>
</trkpt>
<trkpt lat="40.0710854" lon="-105.229348">
  <ele>1583.05</ele>
  <time>2026-08-28T17:52:39Z</time>
  <course>55.09</course>
  <speed>3.1270753108935514</speed>
  <fix>3d</fix>
</trkpt>
<trkpt lat="40.0710835" lon="-105.2293517">
  <ele>1583.0</ele>
  <time>2026-08-28T17:52:39Z</time>
  <course>54.1</course>
  <speed>3.02</speed>
  <fix>3d</fix>
</trkpt>
<trkpt lat="40.0710871" lon="-105.2293449">
  <ele>1583.05</ele>
  <time>2026-08-28T17:52:39Z</time>
  <course>55.08</course>
  <speed>3.2328470424689133</speed>
  <fix>3d</fix>
</trkpt>
<trkpt lat="40.0710835" lon="-105.2293517">
  <ele>1583.0</ele>
  <time>2026-08-28T17:52:39Z</time>
  <course>54.1</course>
  <speed>3.02</speed>
  <fix>3d</fix>
</trkpt>
<trkpt lat="40.0710889" lon="-105.2293418">
  <ele>1583.05</ele>
  <time>2026-08-28T17:52:39Z</time>
  <course>55.07</course>
  <speed>3.3409579464578716</speed>
  <fix>3d</fix>
</trkpt>
<trkpt lat="40.0710869" lon="-105.2293457">
  <ele>1583.0</ele>
  <time>2026-08-28T17:52:39Z</time>
  <course>54.1</course>
  <speed>3.23</speed>
  <fix>3d</fix>
</trkpt>
<trkpt lat="40.0710907" lon="-105.2293385">
  <ele>1583.05</ele>
  <time>2026-08-28T17:52:39Z</time>
  <course>55.07</course>
  <speed>3.440930106817051</speed>
  <fix>3d</fix>
</trkpt>
<trkpt lat="40.0710869" lon="-105.2293457">
  <ele>1583.0</ele>
  <time>2026-08-28T17:52:39Z</time>
  <course>54.1</course>
  <speed>3.23</speed>
  <fix>3d</fix>
</trkpt>
<trkpt lat="40.0710926" lon="-105.2293351">
  <ele>1583.05</ele>
  <time>2026-08-28T17:52:39Z</time>
  <course>55.08</course>
  <speed>3.549042124292131</speed>
  <fix>3d</fix>
</trkpt>
<trkpt lat="40.0710903" lon="-105.2293394">
  <ele>1583.0</ele>
  <time>2026-08-28T17:52:39Z</time>
  <course>54.11</course>
  <speed>3.43</speed>
  <fix>3d</fix>
</trkpt>
<trkpt lat="40.0710945" lon="-105.2293316">
  <ele>1583.05</ele>
  <time>2026-08-28T17:52:39Z</time>
  <course>55.11</course>
  <speed>3.657157366042648</speed>
  <fix>3d</fix>
</trkpt>
<trkpt lat="40.0710903" lon="-105.2293394">
  <ele>1583.0</ele>
  <time>2026-08-28T17:52:39Z</time>
  <course>54.11</course>
  <speed>3.43</speed>
  <fix>3d</fix>
</trkpt>
<trkpt lat="40.0710964" lon="-105.229328">
  <ele>1583.05</ele>
  <time>2026-08-28T17:52:39Z</time>
  <course>55.16</course>
  <speed>3.7513330963805385</speed>
  <fix>3d</fix>
</trkpt>
<trkpt lat="40.0710903" lon="-105.2293394">
  <ele>1583.0</ele>
  <time>2026-08-28T17:52:39Z</time>
  <course>54.11</course>
  <speed>3.43</speed>
  <fix>3d</fix>
</trkpt>
<trkpt lat="40.0710984" lon="-105.2293244">
  <ele>1583.05</ele>
  <time>2026-08-28T17:52:39Z</time>
  <course>55.21</course>
  <speed>3.8594559202042973</speed>
  <fix>3d</fix>
</trkpt>
<trkpt lat="40.0710941" lon="-105.2293326">
  <ele>1583.0</ele>
  <time>2026-08-28T17:52:39Z</time>
  <course>54.16</course>
  <speed>3.64</speed>
  <fix>3d</fix>
</trkpt>
<trkpt lat="40.0711005" lon="-105.2293206">
  <ele>1583.05</ele>
  <time>2026-08-28T17:52:39Z</time>
  <course>55.26</course>
  <speed>3.967581127084864</speed>
  <fix>3d</fix>
</trkpt>
<trkpt lat="40.0710941" lon="-105.2293326">
  <ele>1583.0</ele>
  <time>2026-08-28T17:52:39Z</time>
  <course>54.16</course>
  <speed>3.64</speed>
  <fix>3d</fix>
</trkpt>
<trkpt lat="40.0711026" lon="-105.2293168">
  <ele>1583.05</ele>
  <time>2026-08-28T17:52:39Z</time>
  <course>55.31</course>
  <speed>4.061773011875479</speed>
  <fix>3d</fix>
</trkpt>
<trkpt lat="40.0710981" lon="-105.2293255">
  <ele>1583.0</ele>
  <time>2026-08-28T17:52:39Z</time>
  <course>54.26</course>
  <speed>3.84</speed>
  <fix>3d</fix>
</trkpt>
<trkpt lat="40.0711047" lon="-105.2293129">
  <ele>1583.04</ele>
  <time>2026-08-28T17:52:39Z</time>
  <course>55.37</course>
  <speed>4.169904075635314</speed>
  <fix>3d</fix>
</trkpt>
<trkpt lat="40.0710981" lon="-105.2293255">
  <ele>1583.0</ele>
  <time>2026-08-28T17:52:39Z</time>
  <course>54.26</course>
  <speed>3.84</speed>
  <fix>3d</fix>
</trkpt>
<trkpt lat="40.0711069" lon="-105.2293088">
  <ele>1583.04</ele>
  <time>2026-08-28T17:52:39Z</time>
  <course>55.43</course>
  <speed>4.264106002434742</speed>
  <fix>3d</fix>
</trkpt>
<trkpt lat="40.0711022" lon="-105.229318">
  <ele>1583.0</ele>
  <time>2026-08-28T17:52:39Z</time>
  <course>54.36</course>
  <speed>4.05</speed>
  <fix>3d</fix>
</trkpt>
<trkpt lat="40.0711092" lon="-105.2293047">
  <ele>1583.05</ele>
  <time>2026-08-28T17:52:39Z</time>
  <course>55.48</course>
  <speed>4.372241987813575</speed>
  <fix>3d</fix>
</trkpt>
<trkpt lat="40.0711065" lon="-105.22931">
  <ele>1583.0</ele>
  <time>2026-08-28T17:52:39Z</time>
  <course>54.48</course>
  <speed>4.26</speed>
  <fix>3d</fix>
</trkpt>
<trkpt lat="40.0711115" lon="-105.2293004">
  <ele>1583.04</ele>
  <time>2026-08-28T17:52:39Z</time>
  <course>55.54</course>
  <speed>4.480379448216412</speed>
  <fix>3d</fix>
</trkpt>
<trkpt lat="40.0711065" lon="-105.22931">
  <ele>1583.0</ele>
  <time>2026-08-28T17:52:39Z</time>
  <course>54.48</course>
  <speed>4.26</speed>
  <fix>3d</fix>
</trkpt>
<trkpt lat="40.0711139" lon="-105.2292961">
  <ele>1583.05</ele>
  <time>2026-08-28T17:52:39Z</time>
  <course>55.6</course>
  <speed>4.574592878060298</speed>
  <fix>3d</fix>
</trkpt>
<trkpt lat="40.071111" lon="-105.2293016">
  <ele>1583.0</ele>
  <time>2026-08-28T17:52:39Z</time>
  <course>54.6</course>
  <speed>4.46</speed>
  <fix>3d</fix>
</trkpt>
<trkpt lat="40.0711163" lon="-105.2292916">
  <ele>1583.05</ele>
  <time>2026-08-28T17:52:39Z</time>
  <course>55.63</course>
  <speed>4.682734244007447</speed>
  <fix>3d</fix>
</trkpt>
<trkpt lat="40.071111" lon="-105.2293016">
  <ele>1583.0</ele>
  <time>2026-08-28T17:52:39Z</time>
  <course>54.6</course>
  <speed>4.46</speed>
  <fix>3d</fix>
</trkpt>
<trkpt lat="40.0711187" lon="-105.229287">
  <ele>1583.04</ele>
  <time>2026-08-28T17:52:39Z</time>
  <course>55.67</course>
  <speed>4.776955097130388</speed>
  <fix>3d</fix>
</trkpt>
<trkpt lat="40.0711158" lon="-105.2292929">
  <ele>1583.0</ele>
  <time>2026-08-28T17:52:39Z</time>
  <course>54.7</course>
  <speed>4.66</speed>
  <fix>3d</fix>
</trkpt>
<trkpt lat="40.0711213" lon="-105.2292823">
  <ele>1583.04</ele>
  <time>2026-08-28T17:52:39Z</time>
  <course>55.7</course>
  <speed>4.871180555060549</speed>
  <fix>3d</fix>
</trkpt>
<trkpt lat="40.0711158" lon="-105.2292929">
  <ele>1583.0</ele>
  <time>2026-08-28T17:52:39Z</time>
  <course>54.7</course>
  <speed>4.66</speed>
  <fix>3d</fix>
</trkpt>
<trkpt lat="40.0711238" lon="-105.2292776">
  <ele>1583.04</ele>
  <time>2026-08-28T17:52:39Z</time>
  <course>55.73</course>
  <speed>4.957196788508602</speed>
  <fix>3d</fix>
</trkpt>
<trkpt lat="40.0711207" lon="-105.2292838">
  <ele>1583.0</ele>
  <time>2026-08-28T17:52:39Z</time>
  <course>54.78</course>
  <speed>4.85</speed>
  <fix>3d</fix>
</trkpt>
<trkpt lat="40.0711265" lon="-105.2292727">
  <ele>1583.04</ele>
  <time>2026-08-28T17:52:39Z</time>
  <course>55.77</course>
  <speed>5.0292941850720965</speed>
  <fix>3d</fix>
</trkpt>
<trkpt lat="40.0711207" lon="-105.2292838">
  <ele>1583.0</ele>
  <time>2026-08-28T17:52:39Z</time>
  <course>54.78</course>
  <speed>4.85</speed>
  <fix>3d</fix>
</trkpt>
<trkpt lat="40.0711291" lon="-105.2292678">
  <ele>1583.05</ele>
  <time>2026-08-28T17:52:39Z</time>
  <course>55.8</course>
  <speed>5.09569426084415</speed>
  <fix>3d</fix>
</trkpt>
<trkpt lat="40.0711259" lon="-105.2292744">
  <ele>1583.0</ele>
  <time>2026-08-28T17:52:39Z</time>
  <course>54.85</course>
  <speed>5.0</speed>
  <fix>3d</fix>
</trkpt>
<trkpt lat="40.0711318" lon="-105.2292628">
  <ele>1583.05</ele>
  <time>2026-08-28T17:52:39Z</time>
  <course>55.82</course>
  <speed>5.145658364096863</speed>
  <fix>3d</fix>
</trkpt>
<trkpt lat="40.0711259" lon="-105.2292744">
  <ele>1583.0</ele>
  <time>2026-08-28T17:52:39Z</time>
  <course>54.85</course>
  <speed>5.0</speed>
  <fix>3d</fix>
</trkpt>
<trkpt lat="40.0711344" lon="-105.2292578">
  <ele>1583.05</ele>
  <time>2026-08-28T17:52:39Z</time>
  <course>55.87</course>
  <speed>5.189932562182287</speed>
  <fix>3d</fix>
</trkpt>
<trkpt lat="40.0711311" lon="-105.2292646">
  <ele>1583.0</ele>
  <time>2026-08-28T17:52:39Z</time>
  <course>54.93</course>
  <speed>5.12</speed>
  <fix>3d</fix>
</trkpt>
<trkpt lat="40.0711371" lon="-105.2292528">
  <ele>1583.05</ele>
  <time>2026-08-28T17:52:39Z</time>
  <course>55.91</course>
  <speed>5.225983161090361</speed>
  <fix>3d</fix>
</trkpt>
<trkpt lat="40.0711311" lon="-105.2292646">
  <ele>1583.0</ele>
  <time>2026-08-28T17:52:39Z</time>
  <course>54.93</course>
  <speed>5.12</speed>
  <fix>3d</fix>
</trkpt>
<trkpt lat="40.0711399" lon="-105.2292477">
  <ele>1583.05</ele>
  <time>2026-08-28T17:52:39Z</time>
  <course>55.95</course>
  <speed>5.239895037116679</speed>
  <fix>3d</fix>
</trkpt>
<trkpt lat="40.0711364" lon="-105.2292547">
  <ele>1583.0</ele>
  <time>2026-08-28T17:52:39Z</time>
  <course>55.02</course>
  <speed>5.19</speed>
  <fix>3d</fix>
</trkpt>
<trkpt lat="40.0711426" lon="-105.2292426">
  <ele>1583.05</ele>
  <time>2026-08-28T17:52:39Z</time>
  <course>55.99</course>
  <speed>5.248123474157215</speed>
  <fix>3d</fix>
</trkpt>
<trkpt lat="40.0711364" lon="-105.2292547">
  <ele>1583.0</ele>
  <time>2026-08-28T17:52:39Z</time>
  <course>55.02</course>
  <speed>5.19</speed>
  <fix>3d</fix>
</trkpt>
<trkpt lat="40.0711453" lon="-105.2292376">
  <ele>1583.04</ele>
  <time>2026-08-28T17:52:39Z</time>
  <course>56.06</course>
  <speed>5.248123474157215</speed>
  <fix>3d</fix>
</trkpt>
<trkpt lat="40.0711364" lon="-105.2292547">
  <ele>1583.0</ele>
  <time>2026-08-28T17:52:39Z</time>
  <course>55.02</course>
  <speed>5.19</speed>
  <fix>3d</fix>
</trkpt>
<trkpt lat="40.0711479" lon="-105.2292325">
  <ele>1583.04</ele>
  <time>2026-08-28T17:52:39Z</time>
  <course>56.11</course>
  <speed>5.234214363206766</speed>
  <fix>3d</fix>
</trkpt>
<trkpt lat="40.0711417" lon="-105.2292446">
  <ele>1583.0</ele>
  <time>2026-08-28T17:52:39Z</time>
  <course>55.12</course>
  <speed>5.22</speed>
  <fix>3d</fix>
</trkpt>
<trkpt lat="40.0711506" lon="-105.2292275">
  <ele>1583.04</ele>
  <time>2026-08-28T17:52:39Z</time>
  <course>56.15</course>
  <speed>5.214642844912775</speed>
  <fix>3d</fix>
</trkpt>
<trkpt lat="40.0711417" lon="-105.2292446">
  <ele>1583.0</ele>
  <time>2026-08-28T17:52:39Z</time>
  <course>55.12</course>
  <speed>5.22</speed>
  <fix>3d</fix>
</trkpt>
<trkpt lat="40.0711532" lon="-105.2292226">
  <ele>1583.03</ele>
  <time>2026-08-28T17:52:39Z</time>
  <course>56.23</course>
  <speed>5.192494583531118</speed>
  <fix>3d</fix>
</trkpt>
<trkpt lat="40.0711472" lon="-105.2292346">
  <ele>1583.0</ele>
  <time>2026-08-28T17:52:39Z</time>
  <course>55.21</course>
  <speed>5.21</speed>
  <fix>3d</fix>
</trkpt>
<trkpt lat="40.0711559" lon="-105.2292176">
  <ele>1583.03</ele>
  <time>2026-08-28T17:52:39Z</time>
  <course>56.27</course>
  <speed>5.1646877930810104</speed>
  <fix>3d</fix>
</trkpt>
<trkpt lat="40.0711472" lon="-105.2292346">
  <ele>1583.0</ele>
  <time>2026-08-28T17:52:39Z</time>
  <course>55.21</course>
  <speed>5.21</speed>
  <fix>3d</fix>
</trkpt>
<trkpt lat="40.0711585" lon="-105.2292127">
  <ele>1583.02</ele>
  <time>2026-08-28T17:52:39Z</time>
  <course>56.35</course>
  <speed>5.128635296060737</speed>
  <fix>3d</fix>
</trkpt>
<trkpt lat="40.0711525" lon="-105.2292246">
  <ele>1583.0</ele>
  <time>2026-08-28T17:52:39Z</time>
  <course>55.31</course>
  <speed>5.18</speed>
  <fix>3d</fix>
</trkpt>
<trkpt lat="40.071161" lon="-105.2292078">
  <ele>1583.02</ele>
  <time>2026-08-28T17:52:39Z</time>
  <course>56.41</course>
  <speed>5.095193813781768</speed>
  <fix>3d</fix>
</trkpt>
<trkpt lat="40.0711525" lon="-105.2292246">
  <ele>1583.0</ele>
  <time>2026-08-28T17:52:39Z</time>
  <course>55.31</course>
  <speed>5.18</speed>
  <fix>3d</fix>
</trkpt>
<trkpt lat="40.0711636" lon="-105.229203">
  <ele>1583.02</ele>
  <time>2026-08-28T17:52:39Z</time>
  <course>56.45</course>
  <speed>5.059140243163852</speed>
  <fix>3d</fix>
</trkpt>
<trkpt lat="40.0711577" lon="-105.2292145">
  <ele>1583.0</ele>
  <time>2026-08-28T17:52:39Z</time>
  <course>55.43</course>
  <speed>5.12</speed>
  <fix>3d</fix>
</trkpt>
<trkpt lat="40.0711662" lon="-105.2291981">
  <ele>1583.02</ele>
  <time>2026-08-28T17:52:39Z</time>
  <course>56.53</course>
  <speed>5.023086700426342</speed>
  <fix>3d</fix>
</trkpt>
<trkpt lat="40.0711629" lon="-105.2292047">
  <ele>1583.0</ele>
  <time>2026-08-28T17:52:39Z</time>
  <course>55.55</course>
  <speed>5.07</speed>
  <fix>3d</fix>
</trkpt>
<trkpt lat="40.0711687" lon="-105.2291933">
  <ele>1583.02</ele>
  <time>2026-08-28T17:52:39Z</time>
  <course>56.57</course>
  <speed>4.995297788921096</speed>
  <fix>3d</fix>
</trkpt>
<trkpt lat="40.0711629" lon="-105.2292047">
  <ele>1583.0</ele>
  <time>2026-08-28T17:52:39Z</time>
  <course>55.55</course>
  <speed>5.07</speed>
  <fix>3d</fix>
</trkpt>
<trkpt lat="40.0711712" lon="-105.2291885">
  <ele>1583.02</ele>
  <time>2026-08-28T17:52:39Z</time>
  <course>56.61</course>
  <speed>4.967514469027745</speed>
  <fix>3d</fix>
</trkpt>
<trkpt lat="40.071168" lon="-105.2291949">
  <ele>1583.0</ele>
  <time>2026-08-28T17:52:39Z</time>
  <course>55.65</course>
  <speed>5.01</speed>
  <fix>3d</fix>
</trkpt>
<trkpt lat="40.0711737" lon="-105.2291837">
  <ele>1583.02</ele>
  <time>2026-08-28T17:52:39Z</time>
  <course>56.68</course>
  <speed>4.93973683509557</speed>
  <fix>3d</fix>
</trkpt>
<trkpt lat="40.071168" lon="-105.2291949">
  <ele>1583.0</ele>
  <time>2026-08-28T17:52:39Z</time>
  <course>55.65</course>
  <speed>5.01</speed>
  <fix>3d</fix>
</trkpt>
<trkpt lat="40.0711762" lon="-105.2291789">
  <ele>1583.02</ele>
  <time>2026-08-28T17:52:39Z</time>
  <course>56.7</course>
  <speed>4.903682289871561</speed>
  <fix>3d</fix>
</trkpt>
<trkpt lat="40.071173" lon="-105.2291853">
  <ele>1583.0</ele>
  <time>2026-08-28T17:52:39Z</time>
  <course>55.73</course>
  <speed>4.95</speed>
  <fix>3d</fix>
</trkpt>
<trkpt lat="40.0711787" lon="-105.2291742">
  <ele>1583.02</ele>
  <time>2026-08-28T17:52:39Z</time>
  <course>56.74</course>
  <speed>4.88979549674626</speed>
  <fix>3d</fix>
</trkpt>
<trkpt lat="40.071173" lon="-105.2291853">
  <ele>1583.0</ele>
  <time>2026-08-28T17:52:39Z</time>
  <course>55.73</course>
  <speed>4.95</speed>
  <fix>3d</fix>
</trkpt>
<trkpt lat="40.0711812" lon="-105.2291694">
  <ele>1583.02</ele>
  <time>2026-08-28T17:52:39Z</time>
  <course>56.8</course>
  <speed>4.862026326543286</speed>
  <fix>3d</fix>
</trkpt>
<trkpt lat="40.0711781" lon="-105.2291757">
  <ele>1583.0</ele>
  <time>2026-08-28T17:52:39Z</time>
  <course>55.83</course>
  <speed>4.91</speed>
  <fix>3d</fix>
</trkpt>
<trkpt lat="40.0711837" lon="-105.2291646">
  <ele>1583.01</ele>
  <time>2026-08-28T17:52:39Z</time>
  <course>56.82</course>
  <speed>4.848143974759825</speed>
  <fix>3d</fix>
</trkpt>
<trkpt lat="40.0711781" lon="-105.2291757">
  <ele>1583.0</ele>
  <time>2026-08-28T17:52:39Z</time>
  <course>55.83</course>
  <speed>4.91</speed>
  <fix>3d</fix>
</trkpt>
<trkpt lat="40.0711861" lon="-105.2291599">
  <ele>1583.01</ele>
  <time>2026-08-28T17:52:39Z</time>
  <course>56.85</course>
  <speed>4.834263128957711</speed>
  <fix>3d</fix>
</trkpt>
<trkpt lat="40.071183" lon="-105.2291662">
  <ele>1583.0</ele>
  <time>2026-08-28T17:52:39Z</time>
  <course>55.9</course>
  <speed>4.87</speed>
  <fix>3d</fix>
</trkpt>
<trkpt lat="40.0711886" lon="-105.2291552">
  <ele>1583.01</ele>
  <time>2026-08-28T17:52:39Z</time>
  <course>56.89</course>
  <speed>4.820383802146879</speed>
  <fix>3d</fix>
</trkpt>
<trkpt lat="40.071183" lon="-105.2291662">
  <ele>1583.0</ele>
  <time>2026-08-28T17:52:39Z</time>
  <course>55.9</course>
  <speed>4.87</speed>
  <fix>3d</fix>
</trkpt>
<trkpt lat="40.071191" lon="-105.2291504">
  <ele>1583.0</ele>
  <time>2026-08-28T17:52:39Z</time>
  <course>56.93</course>
  <speed>4.806506007486103</speed>
  <fix>3d</fix>
</trkpt>
<trkpt lat="40.0711879" lon="-105.2291568">
  <ele>1583.0</ele>
  <time>2026-08-28T17:52:39Z</time>
  <course>55.97</course>
  <speed>4.84</speed>
  <fix>3d</fix>
</trkpt>
<trkpt lat="40.0711934" lon="-105.2291457">
  <ele>1583.0</ele>
  <time>2026-08-28T17:52:39Z</time>
  <course>56.97</course>
  <speed>4.806506007486103</speed>
  <fix>3d</fix>
</trkpt>
<trkpt lat="40.0711879" lon="-105.2291568">
  <ele>1583.0</ele>
  <time>2026-08-28T17:52:39Z</time>
  <course>55.97</course>
  <speed>4.84</speed>
  <fix>3d</fix>
</trkpt>
<trkpt lat="40.0711959" lon="-105.229141">
  <ele>1583.0</ele>
  <time>2026-08-28T17:52:39Z</time>
  <course>56.98</course>
  <speed>4.792629758285111</speed>
  <fix>3d</fix>
</trkpt>
<trkpt lat="40.0711928" lon="-105.2291473">
  <ele>1583.0</ele>
  <time>2026-08-28T17:52:39Z</time>
  <course>56.03</course>
  <speed>4.82</speed>
  <fix>3d</fix>
</trkpt>
<trkpt lat="40.0711983" lon="-105.2291363">
  <ele>1582.99</ele>
  <time>2026-08-28T17:52:39Z</time>
  <course>57.01</course>
  <speed>4.792629758285111</speed>
  <fix>3d</fix>
</trkpt>
<trkpt lat="40.0711928" lon="-105.2291473">
  <ele>1583.0</ele>
  <time>2026-08-28T17:52:39Z</time>
  <course>56.03</course>
  <speed>4.82</speed>
  <fix>3d</fix>
</trkpt>
<trkpt lat="40.0712007" lon="-105.2291316">
  <ele>1582.99</ele>
  <time>2026-08-28T17:52:39Z</time>
  <course>57.05</course>
  <speed>4.792629758285111</speed>
  <fix>3d</fix>
</trkpt>
<trkpt lat="40.0711928" lon="-105.2291473">
  <ele>1583.0</ele>
  <time>2026-08-28T17:52:39Z</time>
  <course>56.03</course>
  <speed>4.82</speed>
  <fix>3d</fix>
</trkpt>
<trkpt lat="40.0712031" lon="-105.229127">
  <ele>1582.99</ele>
  <time>2026-08-28T17:52:39Z</time>
  <course>57.07</course>
  <speed>4.792629758285111</speed>
  <fix>3d</fix>
</trkpt>
<trkpt lat="40.0711976" lon="-105.2291379">
  <ele>1583.0</ele>
  <time>2026-08-28T17:52:39Z</time>
  <course>56.09</course>
  <speed>4.82</speed>
  <fix>3d</fix>
</trkpt>
<trkpt lat="40.0712055" lon="-105.2291223">
  <ele>1582.99</ele>
  <time>2026-08-28T17:52:39Z</time>
  <course>57.09</course>
  <speed>4.792629758285111</speed>
  <fix>3d</fix>
</trkpt>
<trkpt lat="40.0711976" lon="-105.2291379">
  <ele>1583.0</ele>
  <time>2026-08-28T17:52:39Z</time>
  <course>56.09</course>
  <speed>4.82</speed>
  <fix>3d</fix>
</trkpt>
<trkpt lat="40.0712079" lon="-105.2291177">
  <ele>1582.99</ele>
  <time>2026-08-28T17:52:39Z</time>
  <course>57.13</course>
  <speed>4.795383196367106</speed>
  <fix>3d</fix>
</trkpt>
<trkpt lat="40.0712024" lon="-105.2291285">
  <ele>1583.0</ele>
  <time>2026-08-28T17:52:39Z</time>
  <course>56.14</course>
  <speed>4.82</speed>
  <fix>3d</fix>
</trkpt>
<trkpt lat="40.0712103" lon="-105.229113">
  <ele>1582.99</ele>
  <time>2026-08-28T17:52:39Z</time>
  <course>57.13</course>
  <speed>4.800937408465143</speed>
  <fix>3d</fix>
</trkpt>
<trkpt lat="40.0712024" lon="-105.2291285">
  <ele>1583.0</ele>
  <time>2026-08-28T17:52:39Z</time>
  <course>56.14</course>
  <speed>4.82</speed>
  <fix>3d</fix>
</trkpt>
<trkpt lat="40.0712127" lon="-105.2291083">
  <ele>1582.99</ele>
  <time>2026-08-28T17:52:39Z</time>
  <course>57.18</course>
  <speed>4.809251501013438</speed>
  <fix>3d</fix>
</trkpt>
<trkpt lat="40.0712073" lon="-105.229119">
  <ele>1583.0</ele>
  <time>2026-08-28T17:52:39Z</time>
  <course>56.18</course>
  <speed>4.83</speed>
  <fix>3d</fix>
</trkpt>
<trkpt lat="40.0712151" lon="-105.2291036">
  <ele>1582.99</ele>
  <time>2026-08-28T17:52:39Z</time>
  <course>57.19</course>
  <speed>4.809251501013438</speed>
  <fix>3d</fix>
</trkpt>
<trkpt lat="40.071212" lon="-105.2291097">
  <ele>1583.0</ele>
  <time>2026-08-28T17:52:39Z</time>
  <course>56.23</course>
  <speed>4.84</speed>
  <fix>3d</fix>
</trkpt>
<trkpt lat="40.0712175" lon="-105.2290989">
  <ele>1582.98</ele>
  <time>2026-08-28T17:52:39Z</time>
  <course>57.2</course>
  <speed>4.817572002575571</speed>
  <fix>3d</fix>
</trkpt>
<trkpt lat="40.071212" lon="-105.2291097">
  <ele>1583.0</ele>
  <time>2026-08-28T17:52:39Z</time>
  <course>56.23</course>
  <speed>4.84</speed>
  <fix>3d</fix>
</trkpt>
<trkpt lat="40.0712199" lon="-105.2290942">
  <ele>1582.98</ele>
  <time>2026-08-28T17:52:39Z</time>
  <course>57.23</course>
  <speed>4.831438709121746</speed>
  <fix>3d</fix>
</trkpt>
<trkpt lat="40.0712169" lon="-105.2291002">
  <ele>1583.0</ele>
  <time>2026-08-28T17:52:39Z</time>
  <course>56.27</course>
  <speed>4.86</speed>
  <fix>3d</fix>
</trkpt>
<trkpt lat="40.0712223" lon="-105.2290894">
  <ele>1582.98</ele>
  <time>2026-08-28T17:52:39Z</time>
  <course>57.23</course>
  <speed>4.839762390861766</speed>
  <fix>3d</fix>
</trkpt>
<trkpt lat="40.0712169" lon="-105.2291002">
  <ele>1583.0</ele>
  <time>2026-08-28T17:52:39Z</time>
  <course>56.27</course>
  <speed>4.86</speed>
  <fix>3d</fix>
</trkpt>
<trkpt lat="40.0712248" lon="-105.2290847">
  <ele>1582.98</ele>
  <time>2026-08-28T17:52:39Z</time>
  <course>57.26</course>
  <speed>4.84809240836022</speed>
  <fix>3d</fix>
</trkpt>
<trkpt lat="40.0712218" lon="-105.2290907">
  <ele>1583.0</ele>
  <time>2026-08-28T17:52:39Z</time>
  <course>56.31</course>
  <speed>4.88</speed>
  <fix>3d</fix>
</trkpt>
<trkpt lat="40.0712272" lon="-105.2290799">
  <ele>1582.98</ele>
  <time>2026-08-28T17:52:39Z</time>
  <course>57.26</course>
  <speed>4.861954339563464</speed>
  <fix>3d</fix>
</trkpt>
<trkpt lat="40.0712218" lon="-105.2290907">
  <ele>1583.0</ele>
  <time>2026-08-28T17:52:39Z</time>
  <course>56.31</course>
  <speed>4.88</speed>
  <fix>3d</fix>
</trkpt>
<trkpt lat="40.0712297" lon="-105.229075">
  <ele>1582.98</ele>
  <time>2026-08-28T17:52:39Z</time>
  <course>57.27</course>
  <speed>4.870287465848397</speed>
  <fix>3d</fix>
</trkpt>
<trkpt lat="40.0712266" lon="-105.2290811">
  <ele>1583.0</ele>
  <time>2026-08-28T17:52:39Z</time>
  <course>56.33</course>
  <speed>4.9</speed>
  <fix>3d</fix>
</trkpt>
<trkpt lat="40.0712322" lon="-105.2290702">
  <ele>1582.98</ele>
  <time>2026-08-28T17:52:39Z</time>
  <course>57.28</course>
  <speed>4.884147827410632</speed>
  <fix>3d</fix>
</trkpt>
<trkpt lat="40.0712266" lon="-105.2290811">
  <ele>1583.0</ele>
  <time>2026-08-28T17:52:39Z</time>
  <course>56.33</course>
  <speed>4.9</speed>
  <fix>3d</fix>
</trkpt>
<trkpt lat="40.0712346" lon="-105.2290653">
  <ele>1582.98</ele>
  <time>2026-08-28T17:52:39Z</time>
  <course>57.3</course>
  <speed>4.892484031655085</speed>
  <fix>3d</fix>
</trkpt>
<trkpt lat="40.0712315" lon="-105.2290715">
  <ele>1583.0</ele>
  <time>2026-08-28T17:52:39Z</time>
  <course>56.35</course>
  <speed>4.92</speed>
  <fix>3d</fix>
</trkpt>
<trkpt lat="40.0712371" lon="-105.2290605">
  <ele>1582.98</ele>
  <time>2026-08-28T17:52:39Z</time>
  <course>57.31</course>
  <speed>4.898009799908531</speed>
  <fix>3d</fix>
</trkpt>
<trkpt lat="40.0712315" lon="-105.2290715">
  <ele>1583.0</ele>
  <time>2026-08-28T17:52:39Z</time>
  <course>56.35</course>
  <speed>4.92</speed>
  <fix>3d</fix>
</trkpt>
<trkpt lat="40.0712395" lon="-105.2290556">
  <ele>1582.98</ele>
  <time>2026-08-28T17:52:39Z</time>
  <course>57.32</course>
  <speed>4.90634283351663</speed>
  <fix>3d</fix>
</trkpt>
<trkpt lat="40.0712364" lon="-105.2290618">
  <ele>1583.0</ele>
  <time>2026-08-28T17:52:39Z</time>
  <course>56.37</course>
  <speed>4.93</speed>
  <fix>3d</fix>
</trkpt>
<trkpt lat="40.071242" lon="-105.2290508">
  <ele>1582.98</ele>
  <time>2026-08-28T17:52:39Z</time>
  <course>57.32</course>
  <speed>4.914682085343873</speed>
  <fix>3d</fix>
</trkpt>
<trkpt lat="40.0712364" lon="-105.2290618">
  <ele>1583.0</ele>
  <time>2026-08-28T17:52:39Z</time>
  <course>56.37</course>
  <speed>4.93</speed>
  <fix>3d</fix>
</trkpt>
<trkpt lat="40.0712445" lon="-105.2290459">
  <ele>1582.98</ele>
  <time>2026-08-28T17:52:39Z</time>
  <course>57.34</course>
  <speed>4.914682085343873</speed>
  <fix>3d</fix>
</trkpt>
<trkpt lat="40.0712414" lon="-105.2290522">
  <ele>1583.0</ele>
  <time>2026-08-28T17:52:39Z</time>
  <course>56.39</course>
  <speed>4.94</speed>
  <fix>3d</fix>
</trkpt>
<trkpt lat="40.0712469" lon="-105.229041">
  <ele>1582.98</ele>
  <time>2026-08-28T17:52:39Z</time>
  <course>57.35</course>
  <speed>4.914682085343873</speed>
  <fix>3d</fix>
</trkpt>
<trkpt lat="40.0712414" lon="-105.2290522">
  <ele>1583.0</ele>
  <time>2026-08-28T17:52:39Z</time>
  <course>56.39</course>
  <speed>4.94</speed>
  <fix>3d</fix>
</trkpt>
<trkpt lat="40.0712494" lon="-105.2290362">
  <ele>1582.98</ele>
  <time>2026-08-28T17:52:39Z</time>
  <course>57.35</course>
  <speed>4.92302752379062</speed>
  <fix>3d</fix>
</trkpt>
<trkpt lat="40.0712414" lon="-105.2290522">
  <ele>1583.0</ele>
  <time>2026-08-28T17:52:39Z</time>
  <course>56.39</course>
  <speed>4.94</speed>
  <fix>3d</fix>
</trkpt>
<trkpt lat="40.0712519" lon="-105.2290313">
  <ele>1582.98</ele>
  <time>2026-08-28T17:52:39Z</time>
  <course>57.37</course>
  <speed>4.92302752379062</speed>
  <fix>3d</fix>
</trkpt>
<trkpt lat="40.0712463" lon="-105.2290425">
  <ele>1583.0</ele>
  <time>2026-08-28T17:52:39Z</time>
  <course>56.41</course>
  <speed>4.95</speed>
  <fix>3d</fix>
</trkpt>
<trkpt lat="40.0712543" lon="-105.2290265">
  <ele>1582.98</ele>
  <time>2026-08-28T17:52:39Z</time>
  <course>57.39</course>
  <speed>4.92302752379062</speed>
  <fix>3d</fix>
</trkpt>
<trkpt lat="40.0712463" lon="-105.2290425">
  <ele>1583.0</ele>
  <time>2026-08-28T17:52:39Z</time>
  <course>56.41</course>
  <speed>4.95</speed>
  <fix>3d</fix>
</trkpt>
<trkpt lat="40.0712567" lon="-105.2290217">
  <ele>1582.98</ele>
  <time>2026-08-28T17:52:39Z</time>
  <course>57.39</course>
  <speed>4.92302752379062</speed>
  <fix>3d</fix>
</trkpt>
<trkpt lat="40.0712512" lon="-105.2290328">
  <ele>1583.0</ele>
  <time>2026-08-28T17:52:39Z</time>
  <course>56.43</course>
  <speed>4.96</speed>
  <fix>3d</fix>
</trkpt>
<trkpt lat="40.0712592" lon="-105.2290169">
  <ele>1582.98</ele>
  <time>2026-08-28T17:52:39Z</time>
  <course>57.42</course>
  <speed>4.92302752379062</speed>
  <fix>3d</fix>
</trkpt>
<trkpt lat="40.0712512" lon="-105.2290328">
  <ele>1583.0</ele>
  <time>2026-08-28T17:52:39Z</time>
  <course>56.43</course>
  <speed>4.96</speed>
  <fix>3d</fix>
</trkpt>
<trkpt lat="40.0712616" lon="-105.2290121">
  <ele>1582.98</ele>
  <time>2026-08-28T17:52:39Z</time>
  <course>57.42</course>
  <speed>4.92302752379062</speed>
  <fix>3d</fix>
</trkpt>
<trkpt lat="40.0712562" lon="-105.2290231">
  <ele>1583.0</ele>
  <time>2026-08-28T17:52:39Z</time>
  <course>56.45</course>
  <speed>4.96</speed>
  <fix>3d</fix>
</trkpt>
<trkpt lat="40.0712641" lon="-105.2290072">
  <ele>1582.97</ele>
  <time>2026-08-28T17:52:39Z</time>
  <course>57.45</course>
  <speed>4.92302752379062</speed>
  <fix>3d</fix>
</trkpt>
<trkpt lat="40.0712611" lon="-105.2290133">
  <ele>1583.0</ele>
  <time>2026-08-28T17:52:39Z</time>
  <course>56.48</course>
  <speed>4.96</speed>
  <fix>3d</fix>
</trkpt>
<trkpt lat="40.0712665" lon="-105.2290024">
  <ele>1582.97</ele>
  <time>2026-08-28T17:52:39Z</time>
  <course>57.45</course>
  <speed>4.92302752379062</speed>
  <fix>3d</fix>
</trkpt>
<trkpt lat="40.0712611" lon="-105.2290133">
  <ele>1583.0</ele>
  <time>2026-08-28T17:52:39Z</time>
  <course>56.48</course>
  <speed>4.96</speed>
  <fix>3d</fix>
</trkpt>
<trkpt lat="40.071269" lon="-105.2289975">
  <ele>1582.97</ele>
  <time>2026-08-28T17:52:39Z</time>
  <course>57.46</course>
  <speed>4.92302752379062</speed>
  <fix>3d</fix>
</trkpt>
<trkpt lat="40.071266" lon="-105.2290036">
  <ele>1583.0</ele>
  <time>2026-08-28T17:52:39Z</time>
  <course>56.5</course>
  <speed>4.97</speed>
  <fix>3d</fix>
</trkpt>
<trkpt lat="40.0712714" lon="-105.2289927">
  <ele>1582.97</ele>
  <time>2026-08-28T17:52:39Z</time>
  <course>57.48</course>
  <speed>4.931379117447775</speed>
  <fix>3d</fix>
</trkpt>
<trkpt lat="40.071266" lon="-105.2290036">
  <ele>1583.0</ele>
  <time>2026-08-28T17:52:39Z</time>
  <course>56.5</course>
  <speed>4.97</speed>
  <fix>3d</fix>
</trkpt>
<trkpt lat="40.0712739" lon="-105.2289878">
  <ele>1582.97</ele>
  <time>2026-08-28T17:52:39Z</time>
  <course>57.48</course>
  <speed>4.931379117447775</speed>
  <fix>3d</fix>
</trkpt>
<trkpt lat="40.0712709" lon="-105.2289939">
  <ele>1583.0</ele>
  <time>2026-08-28T17:52:39Z</time>
  <course>56.51</course>
  <speed>4.97</speed>
  <fix>3d</fix>
</trkpt>
<trkpt lat="40.0712764" lon="-105.2289829">
  <ele>1582.97</ele>
  <time>2026-08-28T17:52:39Z</time>
  <course>57.49</course>
  <speed>4.931379117447775</speed>
  <fix>3d</fix>
</trkpt>
<trkpt lat="40.0712709" lon="-105.2289939">
  <ele>1583.0</ele>
  <time>2026-08-28T17:52:39Z</time>
  <course>56.51</course>
  <speed>4.97</speed>
  <fix>3d</fix>
</trkpt>
<trkpt lat="40.0712788" lon="-105.228978">
  <ele>1582.97</ele>
  <time>2026-08-28T17:52:39Z</time>
  <course>57.51</course>
  <speed>4.925890782386471</speed>
  <fix>3d</fix>
</trkpt>
<trkpt lat="40.0712759" lon="-105.2289841">
  <ele>1583.0</ele>
  <time>2026-08-28T17:52:39Z</time>
  <course>56.54</course>
  <speed>4.97</speed>
  <fix>3d</fix>
</trkpt>
<trkpt lat="40.0712813" lon="-105.2289731">
  <ele>1582.97</ele>
  <time>2026-08-28T17:52:39Z</time>
  <course>57.51</course>
  <speed>4.931379117447775</speed>
  <fix>3d</fix>
</trkpt>
<trkpt lat="40.0712759" lon="-105.2289841">
  <ele>1583.0</ele>
  <time>2026-08-28T17:52:39Z</time>
  <course>56.54</course>
  <speed>4.97</speed>
  <fix>3d</fix>
</trkpt>
<trkpt lat="40.0712838" lon="-105.2289682">
  <ele>1582.98</ele>
  <time>2026-08-28T17:52:39Z</time>
  <course>57.52</course>
  <speed>4.925890782386471</speed>
  <fix>3d</fix>
</trkpt>
<trkpt lat="40.0712808" lon="-105.2289744">
  <ele>1583.0</ele>
  <time>2026-08-28T17:52:39Z</time>
  <course>56.56</course>
  <speed>4.97</speed>
  <fix>3d</fix>
</trkpt>
<trkpt lat="40.0712863" lon="-105.2289633">
  <ele>1582.98</ele>
  <time>2026-08-28T17:52:39Z</time>
  <course>57.53</course>
  <speed>4.925890782386471</speed>
  <fix>3d</fix>
</trkpt>
<trkpt lat="40.0712808" lon="-105.2289744">
  <ele>1583.0</ele>
  <time>2026-08-28T17:52:39Z</time>
  <course>56.56</course>
  <speed>4.97</speed>
  <fix>3d</fix>
</trkpt>
<trkpt lat="40.0712887" lon="-105.2289584">
  <ele>1582.98</ele>
  <time>2026-08-28T17:52:39Z</time>
  <course>57.54</course>
  <speed>4.925890782386471</speed>
  <fix>3d</fix>
</trkpt>
<trkpt lat="40.0712857" lon="-105.2289647">
  <ele>1583.0</ele>
  <time>2026-08-28T17:52:39Z</time>
  <course>56.57</course>
  <speed>4.96</speed>
  <fix>3d</fix>
</trkpt>
<trkpt lat="40.0712912" lon="-105.2289535">
  <ele>1582.98</ele>
  <time>2026-08-28T17:52:39Z</time>
  <course>57.55</course>
  <speed>4.925890782386471</speed>
  <fix>3d</fix>
</trkpt>
<trkpt lat="40.0712857" lon="-105.2289647">
  <ele>1583.0</ele>
  <time>2026-08-28T17:52:39Z</time>
  <course>56.57</course>
  <speed>4.96</speed>
  <fix>3d</fix>
</trkpt>
<trkpt lat="40.0712937" lon="-105.2289486">
  <ele>1582.99</ele>
  <time>2026-08-28T17:52:39Z</time>
  <course>57.56</course>
  <speed>4.925890782386471</speed>
  <fix>3d</fix>
</trkpt>
<trkpt lat="40.0712906" lon="-105.228955">
  <ele>1583.0</ele>
  <time>2026-08-28T17:52:39Z</time>
  <course>56.58</course>
  <speed>4.96</speed>
  <fix>3d</fix>
</trkpt>
<trkpt lat="40.0712961" lon="-105.2289437">
  <ele>1582.99</ele>
  <time>2026-08-28T17:52:39Z</time>
  <course>57.57</course>
  <speed>4.925890782386471</speed>
  <fix>3d</fix>
</trkpt>
<trkpt lat="40.0712906" lon="-105.228955">
  <ele>1583.0</ele>
  <time>2026-08-28T17:52:39Z</time>
  <course>56.58</course>
  <speed>4.96</speed>
  <fix>3d</fix>
</trkpt>
<trkpt lat="40.0712986" lon="-105.2289388">
  <ele>1583.0</ele>
  <time>2026-08-28T17:52:39Z</time>
  <course>57.59</course>
  <speed>4.925890782386471</speed>
  <fix>3d</fix>
</trkpt>
<trkpt lat="40.0712906" lon="-105.228955">
  <ele>1583.0</ele>
  <time>2026-08-28T17:52:39Z</time>
  <course>56.58</course>
  <speed>4.96</speed>
  <fix>3d</fix>
</trkpt>
<trkpt lat="40.071301" lon="-105.228934">
  <ele>1583.0</ele>
  <time>2026-08-28T17:52:39Z</time>
  <course>57.59</course>
  <speed>4.925890782386471</speed>
  <fix>3d</fix>
</trkpt>
<trkpt lat="40.0712955" lon="-105.2289452">
  <ele>1583.0</ele>
  <time>2026-08-28T17:52:39Z</time>
  <course>56.6</course>
  <speed>4.95</speed>
  <fix>3d</fix>
</trkpt>
<trkpt lat="40.0713035" lon="-105.2289292">
  <ele>1583.0</ele>
  <time>2026-08-28T17:52:39Z</time>
  <course>57.6</course>
  <speed>4.920416649024755</speed>
  <fix>3d</fix>
</trkpt>
<trkpt lat="40.0712955" lon="-105.2289452">
  <ele>1583.0</ele>
  <time>2026-08-28T17:52:39Z</time>
  <course>56.6</course>
  <speed>4.95</speed>
  <fix>3d</fix>
</trkpt>
<trkpt lat="40.0713059" lon="-105.2289244">
  <ele>1583.0</ele>
  <time>2026-08-28T17:52:40Z</time>
  <course>57.6</course>
  <speed>4.9120464167188</speed>
  <fix>3d</fix>
</trkpt>
<trkpt lat="40.0713004" lon="-105.2289355">
  <ele>1583.0</ele>
  <time>2026-08-28T17:52:40Z</time>
  <course>56.62</course>
  <speed>4.95</speed>
  <fix>3d</fix>
</trkpt>
<trkpt lat="40.0713083" lon="-105.2289196">
  <ele>1583.0</ele>
  <time>2026-08-28T17:52:40Z</time>
  <course>57.62</course>
  <speed>4.9120464167188</speed>
  <fix>3d</fix>
</trkpt>
<trkpt lat="40.0713004" lon="-105.2289355">
  <ele>1583.0</ele>
  <time>2026-08-28T17:52:40Z</time>
  <course>56.62</course>
  <speed>4.95</speed>
  <fix>3d</fix>
</trkpt>
<trkpt lat="40.0713107" lon="-105.2289147">
  <ele>1583.0</ele>
  <time>2026-08-28T17:52:40Z</time>
  <course>57.62</course>
  <speed>4.9120464167188</speed>
  <fix>3d</fix>
</trkpt>
<trkpt lat="40.0713053" lon="-105.2289258">
  <ele>1583.0</ele>
  <time>2026-08-28T17:52:40Z</time>
  <course>56.64</course>
  <speed>4.95</speed>
  <fix>3d</fix>
</trkpt>
<trkpt lat="40.0713131" lon="-105.2289099">
  <ele>1583.0</ele>
  <time>2026-08-28T17:52:40Z</time>
  <course>57.64</course>
  <speed>4.9120464167188</speed>
  <fix>3d</fix>
</trkpt>
<trkpt lat="40.0713053" lon="-105.2289258">
  <ele>1583.0</ele>
  <time>2026-08-28T17:52:40Z</time>
  <course>56.64</course>
  <speed>4.95</speed>
  <fix>3d</fix>
</trkpt>
<trkpt lat="40.0713156" lon="-105.2289051">
  <ele>1583.0</ele>
  <time>2026-08-28T17:52:40Z</time>
  <course>57.64</course>
  <speed>4.9120464167188</speed>
  <fix>3d</fix>
</trkpt>
<trkpt lat="40.0713102" lon="-105.2289161">
  <ele>1583.0</ele>
  <time>2026-08-28T17:52:40Z</time>
  <course>56.65</course>
  <speed>4.95</speed>
  <fix>3d</fix>
</trkpt>
<trkpt lat="40.071318" lon="-105.2289003">
  <ele>1583.0</ele>
  <time>2026-08-28T17:52:40Z</time>
  <course>57.65</course>
  <speed>4.9065772183875795</speed>
  <fix>3d</fix>
</trkpt>
<trkpt lat="40.0713151" lon="-105.2289064">
  <ele>1583.0</ele>
  <time>2026-08-28T17:52:40Z</time>
  <course>56.66</course>
  <speed>4.95</speed>
  <fix>3d</fix>
</trkpt>
<trkpt lat="40.0713204" lon="-105.2288954">
  <ele>1582.99</ele>
  <time>2026-08-28T17:52:40Z</time>
  <course>57.65</course>
  <speed>4.920416649024755</speed>
  <fix>3d</fix>
</trkpt>
<trkpt lat="40.0713151" lon="-105.2289064">
  <ele>1583.0</ele>
  <time>2026-08-28T17:52:40Z</time>
  <course>56.66</course>
  <speed>4.95</speed>
  <fix>3d</fix>
</trkpt>
<trkpt lat="40.0713229" lon="-105.2288906">
  <ele>1582.99</ele>
  <time>2026-08-28T17:52:40Z</time>
  <course>57.67</course>
  <speed>4.920416649024755</speed>
  <fix>3d</fix>
</trkpt>
<trkpt lat="40.07132" lon="-105.2288966">
  <ele>1583.0</ele>
  <time>2026-08-28T17:52:40Z</time>
  <course>56.68</course>
  <speed>4.96</speed>
  <fix>3d</fix>
</trkpt>
<trkpt lat="40.0713253" lon="-105.2288857">
  <ele>1582.99</ele>
  <time>2026-08-28T17:52:40Z</time>
  <course>57.67</course>
  <speed>4.920416649024755</speed>
  <fix>3d</fix>
</trkpt>
<trkpt lat="40.07132" lon="-105.2288966">
  <ele>1583.0</ele>
  <time>2026-08-28T17:52:40Z</time>
  <course>56.68</course>
  <speed>4.96</speed>
  <fix>3d</fix>
</trkpt>
<trkpt lat="40.0713278" lon="-105.2288808">
  <ele>1582.99</ele>
  <time>2026-08-28T17:52:40Z</time>
  <course>57.68</course>
  <speed>4.920416649024755</speed>
  <fix>3d</fix>
</trkpt>
<trkpt lat="40.0713249" lon="-105.2288869">
  <ele>1583.0</ele>
  <time>2026-08-28T17:52:40Z</time>
  <course>56.69</course>
  <speed>4.96</speed>
  <fix>3d</fix>
</trkpt>
<trkpt lat="40.0713302" lon="-105.2288759">
  <ele>1583.0</ele>
  <time>2026-08-28T17:52:40Z</time>
  <course>57.68</course>
  <speed>4.928792955683978</speed>
  <fix>3d</fix>
</trkpt>
<trkpt lat="40.0713249" lon="-105.2288869">
  <ele>1583.0</ele>
  <time>2026-08-28T17:52:40Z</time>
  <course>56.69</course>
  <speed>4.96</speed>
  <fix>3d</fix>
</trkpt>
<trkpt lat="40.0713327" lon="-105.228871">
  <ele>1583.0</ele>
  <time>2026-08-28T17:52:40Z</time>
  <course>57.7</course>
  <speed>4.928792955683978</speed>
  <fix>3d</fix>
</trkpt>
<trkpt lat="40.0713298" lon="-105.2288772">
  <ele>1583.0</ele>
  <time>2026-08-28T17:52:40Z</time>
  <course>56.7</course>
  <speed>4.96</speed>
  <fix>3d</fix>
</trkpt>
<trkpt lat="40.0713352" lon="-105.2288661">
  <ele>1583.0</ele>
  <time>2026-08-28T17:52:40Z</time>
  <course>57.7</course>
  <speed>4.928792955683978</speed>
  <fix>3d</fix>
</trkpt>
<trkpt lat="40.0713298" lon="-105.2288772">
  <ele>1583.0</ele>
  <time>2026-08-28T17:52:40Z</time>
  <course>56.7</course>
  <speed>4.96</speed>
  <fix>3d</fix>
</trkpt>
<trkpt lat="40.0713377" lon="-105.2288612">
  <ele>1583.0</ele>
  <time>2026-08-28T17:52:40Z</time>
  <course>57.7</course>
  <speed>4.942630878388553</speed>
  <fix>3d</fix>
</trkpt>
<trkpt lat="40.0713347" lon="-105.2288674">
  <ele>1583.0</ele>
  <time>2026-08-28T17:52:40Z</time>
  <course>56.71</course>
  <speed>4.97</speed>
  <fix>3d</fix>
</trkpt>
<trkpt lat="40.0713401" lon="-105.2288562">
  <ele>1583.0</ele>
  <time>2026-08-28T17:52:40Z</time>
  <course>57.71</course>
  <speed>4.942630878388553</speed>
  <fix>3d</fix>
</trkpt>
<trkpt lat="40.0713347" lon="-105.2288674">
  <ele>1583.0</ele>
  <time>2026-08-28T17:52:40Z</time>
  <course>56.71</course>
  <speed>4.97</speed>
  <fix>3d</fix>
</trkpt>
<trkpt lat="40.0713426" lon="-105.2288513">
  <ele>1583.0</ele>
  <time>2026-08-28T17:52:40Z</time>
  <course>57.71</course>
  <speed>4.942630878388553</speed>
  <fix>3d</fix>
</trkpt>
<trkpt lat="40.0713396" lon="-105.2288576">
  <ele>1583.0</ele>
  <time>2026-08-28T17:52:40Z</time>
  <course>56.72</course>
  <speed>4.97</speed>
  <fix>3d</fix>
</trkpt>
<trkpt lat="40.0713451" lon="-105.2288464">
  <ele>1583.0</ele>
  <time>2026-08-28T17:52:40Z</time>
  <course>57.73</course>
  <speed>4.942630878388553</speed>
  <fix>3d</fix>
</trkpt>
<trkpt lat="40.0713396" lon="-105.2288576">
  <ele>1583.0</ele>
  <time>2026-08-28T17:52:40Z</time>
  <course>56.72</course>
  <speed>4.97</speed>
  <fix>3d</fix>
</trkpt>
<trkpt lat="40.0713475" lon="-105.2288415">
  <ele>1583.0</ele>
  <time>2026-08-28T17:52:40Z</time>
  <course>57.73</course>
  <speed>4.942630878388553</speed>
  <fix>3d</fix>
</trkpt>
<trkpt lat="40.0713445" lon="-105.2288479">
  <ele>1583.0</ele>
  <time>2026-08-28T17:52:40Z</time>
  <course>56.73</course>
  <speed>4.97</speed>
  <fix>3d</fix>
</trkpt>
<trkpt lat="40.07135" lon="-105.2288366">
  <ele>1583.0</ele>
  <time>2026-08-28T17:52:40Z</time>
  <course>57.74</course>
  <speed>4.942630878388553</speed>
  <fix>3d</fix>
</trkpt>
<trkpt lat="40.0713445" lon="-105.2288479">
  <ele>1583.0</ele>
  <time>2026-08-28T17:52:40Z</time>
  <course>56.73</course>
  <speed>4.97</speed>
  <fix>3d</fix>
</trkpt>
<trkpt lat="40.0713524" lon="-105.2288317">
  <ele>1583.0</ele>
  <time>2026-08-28T17:52:40Z</time>
  <course>57.75</course>
  <speed>4.942630878388553</speed>
  <fix>3d</fix>
</trkpt>
<trkpt lat="40.0713445" lon="-105.2288479">
  <ele>1583.0</ele>
  <time>2026-08-28T17:52:40Z</time>
  <course>56.73</course>
  <speed>4.97</speed>
  <fix>3d</fix>
</trkpt>
<trkpt lat="40.0713549" lon="-105.2288268">
  <ele>1583.0</ele>
  <time>2026-08-28T17:52:40Z</time>
  <course>57.76</course>
  <speed>4.937175305779611</speed>
  <fix>3d</fix>
</trkpt>
<trkpt lat="40.0713494" lon="-105.228838">
  <ele>1583.0</ele>
  <time>2026-08-28T17:52:40Z</time>
  <course>56.74</course>
  <speed>4.97</speed>
  <fix>3d</fix>
</trkpt>
<trkpt lat="40.0713573" lon="-105.228822">
  <ele>1583.0</ele>
  <time>2026-08-28T17:52:40Z</time>
  <course>57.76</course>
  <speed>4.937175305779611</speed>
  <fix>3d</fix>
</trkpt>
<trkpt lat="40.0713494" lon="-105.228838">
  <ele>1583.0</ele>
  <time>2026-08-28T17:52:40Z</time>
  <course>56.74</course>
  <speed>4.97</speed>
  <fix>3d</fix>
</trkpt>
<trkpt lat="40.0713598" lon="-105.2288171">
  <ele>1583.01</ele>
  <time>2026-08-28T17:52:40Z</time>
  <course>57.76</course>
  <speed>4.937175305779611</speed>
  <fix>3d</fix>
</trkpt>
<trkpt lat="40.0713543" lon="-105.2288283">
  <ele>1583.0</ele>
  <time>2026-08-28T17:52:40Z</time>
  <course>56.76</course>
  <speed>4.97</speed>
  <fix>3d</fix>
</trkpt>
<trkpt lat="40.0713622" lon="-105.2288123">
  <ele>1583.01</ele>
  <time>2026-08-28T17:52:40Z</time>
  <course>57.78</course>
  <speed>4.937175305779611</speed>
  <fix>3d</fix>
</trkpt>
<trkpt lat="40.0713543" lon="-105.2288283">
  <ele>1583.0</ele>
  <time>2026-08-28T17:52:40Z</time>
  <course>56.76</course>
  <speed>4.97</speed>
  <fix>3d</fix>
</trkpt>
<trkpt lat="40.0713646" lon="-105.2288074">
  <ele>1583.0</ele>
  <time>2026-08-28T17:52:40Z</time>
  <course>57.78</course>
  <speed>4.937175305779611</speed>
  <fix>3d</fix>
</trkpt>
<trkpt lat="40.0713592" lon="-105.2288185">
  <ele>1583.0</ele>
  <time>2026-08-28T17:52:40Z</time>
  <course>56.77</course>
  <speed>4.96</speed>
  <fix>3d</fix>
</trkpt>
<trkpt lat="40.071367" lon="-105.2288026">
  <ele>1583.0</ele>
  <time>2026-08-28T17:52:40Z</time>
  <course>57.78</course>
  <speed>4.937175305779611</speed>
  <fix>3d</fix>
</trkpt>
<trkpt lat="40.0713641" lon="-105.2288088">
  <ele>1583.0</ele>
  <time>2026-08-28T17:52:40Z</time>
  <course>56.78</course>
  <speed>4.96</speed>
  <fix>3d</fix>
</trkpt>
<trkpt lat="40.0713695" lon="-105.2287977">
  <ele>1583.0</ele>
  <time>2026-08-28T17:52:40Z</time>
  <course>57.78</course>
  <speed>4.937175305779611</speed>
  <fix>3d</fix>
</trkpt>
<trkpt lat="40.0713641" lon="-105.2288088">
  <ele>1583.0</ele>
  <time>2026-08-28T17:52:40Z</time>
  <course>56.78</course>
  <speed>4.96</speed>
  <fix>3d</fix>
</trkpt>
<trkpt lat="40.0713719" lon="-105.2287928">
  <ele>1583.0</ele>
  <time>2026-08-28T17:52:40Z</time>
  <course>57.79</course>
  <speed>4.937175305779611</speed>
  <fix>3d</fix>
</trkpt>
<trkpt lat="40.071369" lon="-105.2287991">
  <ele>1583.0</ele>
  <time>2026-08-28T17:52:40Z</time>
  <course>56.78</course>
  <speed>4.96</speed>
  <fix>3d</fix>
</trkpt>
<trkpt lat="40.0713744" lon="-105.2287879">
  <ele>1583.0</ele>
  <time>2026-08-28T17:52:40Z</time>
  <course>57.79</course>
  <speed>4.937175305779611</speed>
  <fix>3d</fix>
</trkpt>
<trkpt lat="40.071369" lon="-105.2287991">
  <ele>1583.0</ele>
  <time>2026-08-28T17:52:40Z</time>
  <course>56.78</course>
  <speed>4.96</speed>
  <fix>3d</fix>
</trkpt>
<trkpt lat="40.0713768" lon="-105.2287831">
  <ele>1583.0</ele>
  <time>2026-08-28T17:52:40Z</time>
  <course>57.81</course>
  <speed>4.937175305779611</speed>
  <fix>3d</fix>
</trkpt>
<trkpt lat="40.0713739" lon="-105.2287893">
  <ele>1583.0</ele>
  <time>2026-08-28T17:52:40Z</time>
  <course>56.8</course>
  <speed>4.97</speed>
  <fix>3d</fix>
</trkpt>
<trkpt lat="40.0713793" lon="-105.2287781">
  <ele>1583.0</ele>
  <time>2026-08-28T17:52:40Z</time>
  <course>57.81</course>
  <speed>4.937175305779611</speed>
  <fix>3d</fix>
</trkpt>
<trkpt lat="40.0713739" lon="-105.2287893">
  <ele>1583.0</ele>
  <time>2026-08-28T17:52:40Z</time>
  <course>56.8</course>
  <speed>4.97</speed>
  <fix>3d</fix>
</trkpt>
<trkpt lat="40.0713817" lon="-105.2287732">
  <ele>1582.99</ele>
  <time>2026-08-28T17:52:40Z</time>
  <course>57.82</course>
  <speed>4.945563668582177</speed>
  <fix>3d</fix>
</trkpt>
<trkpt lat="40.0713788" lon="-105.2287796">
  <ele>1583.0</ele>
  <time>2026-08-28T17:52:40Z</time>
  <course>56.81</course>
  <speed>4.97</speed>
  <fix>3d</fix>
</trkpt>
<trkpt lat="40.0713842" lon="-105.2287683">
  <ele>1582.99</ele>
  <time>2026-08-28T17:52:40Z</time>
  <course>57.82</course>
  <speed>4.945563668582177</speed>
  <fix>3d</fix>
</trkpt>
<trkpt lat="40.0713788" lon="-105.2287796">
  <ele>1583.0</ele>
  <time>2026-08-28T17:52:40Z</time>
  <course>56.81</course>
  <speed>4.97</speed>
  <fix>3d</fix>
</trkpt>
<trkpt lat="40.0713867" lon="-105.2287634">
  <ele>1582.99</ele>
  <time>2026-08-28T17:52:40Z</time>
  <course>57.82</course>
  <speed>4.945563668582177</speed>
  <fix>3d</fix>
</trkpt>
<trkpt lat="40.0713837" lon="-105.2287698">
  <ele>1583.0</ele>
  <time>2026-08-28T17:52:40Z</time>
  <course>56.82</course>
  <speed>4.97</speed>
  <fix>3d</fix>
</trkpt>
<trkpt lat="40.0713891" lon="-105.2287585">
  <ele>1582.99</ele>
  <time>2026-08-28T17:52:40Z</time>
  <course>57.84</course>
  <speed>4.945563668582177</speed>
  <fix>3d</fix>
</trkpt>
<trkpt lat="40.0713837" lon="-105.2287698">
  <ele>1583.0</ele>
  <time>2026-08-28T17:52:40Z</time>
  <course>56.82</course>
  <speed>4.97</speed>
  <fix>3d</fix>
</trkpt>
<trkpt lat="40.0713916" lon="-105.2287536">
  <ele>1582.98</ele>
  <time>2026-08-28T17:52:40Z</time>
  <course>57.84</course>
  <speed>4.945563668582177</speed>
  <fix>3d</fix>
</trkpt>
<trkpt lat="40.0713885" lon="-105.22876">
  <ele>1583.0</ele>
  <time>2026-08-28T17:52:40Z</time>
  <course>56.82</course>
  <speed>4.97</speed>
  <fix>3d</fix>
</trkpt>
<trkpt lat="40.071394" lon="-105.2287486">
  <ele>1582.98</ele>
  <time>2026-08-28T17:52:40Z</time>
  <course>57.85</course>
  <speed>4.945563668582177</speed>
  <fix>3d</fix>
</trkpt>
<trkpt lat="40.0713885" lon="-105.22876">
  <ele>1583.0</ele>
  <time>2026-08-28T17:52:40Z</time>
  <course>56.82</course>
  <speed>4.97</speed>
  <fix>3d</fix>
</trkpt>
<trkpt lat="40.0713965" lon="-105.2287437">
  <ele>1582.99</ele>
  <time>2026-08-28T17:52:40Z</time>
  <course>57.85</course>
  <speed>4.945563668582177</speed>
  <fix>3d</fix>
</trkpt>
<trkpt lat="40.0713934" lon="-105.2287503">
  <ele>1583.0</ele>
  <time>2026-08-28T17:52:40Z</time>
  <course>56.84</course>
  <speed>4.96</speed>
  <fix>3d</fix>
</trkpt>
<trkpt lat="40.0713989" lon="-105.2287388">
  <ele>1582.99</ele>
  <time>2026-08-28T17:52:40Z</time>
  <course>57.86</course>
  <speed>4.945563668582177</speed>
  <fix>3d</fix>
</trkpt>
<trkpt lat="40.0713934" lon="-105.2287503">
  <ele>1583.0</ele>
  <time>2026-08-28T17:52:40Z</time>
  <course>56.84</course>
  <speed>4.96</speed>
  <fix>3d</fix>
</trkpt>
<trkpt lat="40.0714014" lon="-105.2287339">
  <ele>1582.99</ele>
  <time>2026-08-28T17:52:40Z</time>
  <course>57.87</course>
  <speed>4.945563668582177</speed>
  <fix>3d</fix>
</trkpt>
<trkpt lat="40.0713934" lon="-105.2287503">
  <ele>1583.0</ele>
  <time>2026-08-28T17:52:40Z</time>
  <course>56.84</course>
  <speed>4.96</speed>
  <fix>3d</fix>
</trkpt>
<trkpt lat="40.0714038" lon="-105.2287291">
  <ele>1582.99</ele>
  <time>2026-08-28T17:52:40Z</time>
  <course>57.87</course>
  <speed>4.945563668582177</speed>
  <fix>3d</fix>
</trkpt>
<trkpt lat="40.0713983" lon="-105.2287404">
  <ele>1583.0</ele>
  <time>2026-08-28T17:52:40Z</time>
  <course>56.85</course>
  <speed>4.96</speed>
  <fix>3d</fix>
</trkpt>
<trkpt lat="40.0714062" lon="-105.2287242">
  <ele>1582.99</ele>
  <time>2026-08-28T17:52:40Z</time>
  <course>57.87</course>
  <speed>4.945563668582177</speed>
  <fix>3d</fix>
</trkpt>
<trkpt lat="40.0713983" lon="-105.2287404">
  <ele>1583.0</ele>
  <time>2026-08-28T17:52:40Z</time>
  <course>56.85</course>
  <speed>4.96</speed>
  <fix>3d</fix>
</trkpt>
<trkpt lat="40.0714087" lon="-105.2287194">
  <ele>1582.99</ele>
  <time>2026-08-28T17:52:40Z</time>
  <course>57.87</course>
  <speed>4.945563668582177</speed>
  <fix>3d</fix>
</trkpt>
<trkpt lat="40.0714032" lon="-105.2287307">
  <ele>1583.0</ele>
  <time>2026-08-28T17:52:40Z</time>
  <course>56.86</course>
  <speed>4.96</speed>
  <fix>3d</fix>
</trkpt>
<trkpt lat="40.0714111" lon="-105.2287145">
  <ele>1582.99</ele>
  <time>2026-08-28T17:52:40Z</time>
  <course>57.87</course>
  <speed>4.931733974982836</speed>
  <fix>3d</fix>
</trkpt>
<trkpt lat="40.0714032" lon="-105.2287307">
  <ele>1583.0</ele>
  <time>2026-08-28T17:52:40Z</time>
  <course>56.86</course>
  <speed>4.96</speed>
  <fix>3d</fix>
</trkpt>
<trkpt lat="40.0714135" lon="-105.2287097">
  <ele>1582.99</ele>
  <time>2026-08-28T17:52:40Z</time>
  <course>57.88</course>
  <speed>4.931733974982836</speed>
  <fix>3d</fix>
</trkpt>
<trkpt lat="40.0714081" lon="-105.2287209">
  <ele>1583.0</ele>
  <time>2026-08-28T17:52:40Z</time>
  <course>56.86</course>
  <speed>4.96</speed>
  <fix>3d</fix>
</trkpt>
<trkpt lat="40.0714159" lon="-105.2287049">
  <ele>1582.99</ele>
  <time>2026-08-28T17:52:40Z</time>
  <course>57.88</course>
  <speed>4.931733974982836</speed>
  <fix>3d</fix>
</trkpt>
<trkpt lat="40.0714081" lon="-105.2287209">
  <ele>1583.0</ele>
  <time>2026-08-28T17:52:40Z</time>
  <course>56.86</course>
  <speed>4.96</speed>
  <fix>3d</fix>
</trkpt>
<trkpt lat="40.0714183" lon="-105.2287">
  <ele>1582.98</ele>
  <time>2026-08-28T17:52:40Z</time>
  <course>57.88</course>
  <speed>4.931733974982836</speed>
  <fix>3d</fix>
</trkpt>
<trkpt lat="40.071413" lon="-105.2287111">
  <ele>1583.0</ele>
  <time>2026-08-28T17:52:40Z</time>
  <course>56.87</course>
  <speed>4.96</speed>
  <fix>3d</fix>
</trkpt>
<trkpt lat="40.0714208" lon="-105.2286952">
  <ele>1582.98</ele>
  <time>2026-08-28T17:52:40Z</time>
  <course>57.88</course>
  <speed>4.931733974982836</speed>
  <fix>3d</fix>
</trkpt>
<trkpt lat="40.0714178" lon="-105.2287014">
  <ele>1583.0</ele>
  <time>2026-08-28T17:52:40Z</time>
  <course>56.87</course>
  <speed>4.97</speed>
  <fix>3d</fix>
</trkpt>
<trkpt lat="40.0714232" lon="-105.2286903">
  <ele>1582.99</ele>
  <time>2026-08-28T17:52:40Z</time>
  <course>57.88</course>
  <speed>4.945563668582177</speed>
  <fix>3d</fix>
</trkpt>
<trkpt lat="40.0714178" lon="-105.2287014">
  <ele>1583.0</ele>
  <time>2026-08-28T17:52:40Z</time>
  <course>56.87</course>
  <speed>4.97</speed>
  <fix>3d</fix>
</trkpt>
<trkpt lat="40.0714256" lon="-105.2286854">
  <ele>1582.99</ele>
  <time>2026-08-28T17:52:40Z</time>
  <course>57.9</course>
  <speed>4.945563668582177</speed>
  <fix>3d</fix>
</trkpt>
<trkpt lat="40.0714227" lon="-105.2286915">
  <ele>1583.0</ele>
  <time>2026-08-28T17:52:40Z</time>
  <course>56.88</course>
  <speed>4.97</speed>
  <fix>3d</fix>
</trkpt>
<trkpt lat="40.0714281" lon="-105.2286805">
  <ele>1582.99</ele>
  <time>2026-08-28T17:52:40Z</time>
  <course>57.9</course>
  <speed>4.945563668582177</speed>
  <fix>3d</fix>
</trkpt>
<trkpt lat="40.0714227" lon="-105.2286915">
  <ele>1583.0</ele>
  <time>2026-08-28T17:52:40Z</time>
  <course>56.88</course>
  <speed>4.97</speed>
  <fix>3d</fix>
</trkpt>
<trkpt lat="40.0714305" lon="-105.2286756">
  <ele>1582.99</ele>
  <time>2026-08-28T17:52:40Z</time>
  <course>57.9</course>
  <speed>4.953958013548359</speed>
  <fix>3d</fix>
</trkpt>
<trkpt lat="40.0714276" lon="-105.2286818">
  <ele>1583.0</ele>
  <time>2026-08-28T17:52:40Z</time>
  <course>56.89</course>
  <speed>4.98</speed>
  <fix>3d</fix>
</trkpt>
<trkpt lat="40.071433" lon="-105.2286707">
  <ele>1582.99</ele>
  <time>2026-08-28T17:52:40Z</time>
  <course>57.9</course>
  <speed>4.953958013548359</speed>
  <fix>3d</fix>
</trkpt>
<trkpt lat="40.0714276" lon="-105.2286818">
  <ele>1583.0</ele>
  <time>2026-08-28T17:52:40Z</time>
  <course>56.89</course>
  <speed>4.98</speed>
  <fix>3d</fix>
</trkpt>
<trkpt lat="40.0714355" lon="-105.2286657">
  <ele>1582.99</ele>
  <time>2026-08-28T17:52:40Z</time>
  <course>57.9</course>
  <speed>4.953958013548359</speed>
  <fix>3d</fix>
</trkpt>
<trkpt lat="40.0714325" lon="-105.2286719">
  <ele>1583.0</ele>
  <time>2026-08-28T17:52:40Z</time>
  <course>56.89</course>
  <speed>4.98</speed>
  <fix>3d</fix>
</trkpt>
<trkpt lat="40.0714379" lon="-105.2286607">
  <ele>1582.99</ele>
  <time>2026-08-28T17:52:40Z</time>
  <course>57.9</course>
  <speed>4.953958013548359</speed>
  <fix>3d</fix>
</trkpt>
<trkpt lat="40.0714325" lon="-105.2286719">
  <ele>1583.0</ele>
  <time>2026-08-28T17:52:40Z</time>
  <course>56.89</course>
  <speed>4.98</speed>
  <fix>3d</fix>
</trkpt>
<trkpt lat="40.0714404" lon="-105.2286558">
  <ele>1582.99</ele>
  <time>2026-08-28T17:52:40Z</time>
  <course>57.9</course>
  <speed>4.962358310319802</speed>
  <fix>3d</fix>
</trkpt>
<trkpt lat="40.0714374" lon="-105.2286622">
  <ele>1583.0</ele>
  <time>2026-08-28T17:52:40Z</time>
  <course>56.89</course>
  <speed>4.98</speed>
  <fix>3d</fix>
</trkpt>
<trkpt lat="40.0714429" lon="-105.2286509">
  <ele>1582.99</ele>
  <time>2026-08-28T17:52:40Z</time>
  <course>57.9</course>
  <speed>4.967786227284745</speed>
  <fix>3d</fix>
</trkpt>
<trkpt lat="40.0714374" lon="-105.2286622">
  <ele>1583.0</ele>
  <time>2026-08-28T17:52:40Z</time>
  <course>56.89</course>
  <speed>4.98</speed>
  <fix>3d</fix>
</trkpt>
<trkpt lat="40.0714453" lon="-105.2286459">
  <ele>1582.98</ele>
  <time>2026-08-28T17:52:40Z</time>
  <course>57.9</course>
  <speed>4.967786227284745</speed>
  <fix>3d</fix>
</trkpt>
<trkpt lat="40.0714423" lon="-105.2286523">
  <ele>1583.0</ele>
  <time>2026-08-28T17:52:40Z</time>
  <course>56.89</course>
  <speed>4.98</speed>
  <fix>3d</fix>
</trkpt>
<trkpt lat="40.0714478" lon="-105.228641">
  <ele>1582.98</ele>
  <time>2026-08-28T17:52:40Z</time>
  <course>57.91</course>
  <speed>4.962358310319802</speed>
  <fix>3d</fix>
</trkpt>
<trkpt lat="40.0714423" lon="-105.2286523">
  <ele>1583.0</ele>
  <time>2026-08-28T17:52:40Z</time>
  <course>56.89</course>
  <speed>4.98</speed>
  <fix>3d</fix>
</trkpt>
<trkpt lat="40.0714502" lon="-105.2286361">
  <ele>1582.98</ele>
  <time>2026-08-28T17:52:40Z</time>
  <course>57.91</course>
  <speed>4.962358310319802</speed>
  <fix>3d</fix>
</trkpt>
<trkpt lat="40.0714472" lon="-105.2286426">
  <ele>1583.0</ele>
  <time>2026-08-28T17:52:40Z</time>
  <course>56.89</course>
  <speed>4.98</speed>
  <fix>3d</fix>
</trkpt>
<trkpt lat="40.0714527" lon="-105.2286311">
  <ele>1582.98</ele>
  <time>2026-08-28T17:52:40Z</time>
  <course>57.91</course>
  <speed>4.962358310319802</speed>
  <fix>3d</fix>
</trkpt>
<trkpt lat="40.0714472" lon="-105.2286426">
  <ele>1583.0</ele>
  <time>2026-08-28T17:52:40Z</time>
  <course>56.89</course>
  <speed>4.98</speed>
  <fix>3d</fix>
</trkpt>
<trkpt lat="40.0714551" lon="-105.2286262">
  <ele>1582.98</ele>
  <time>2026-08-28T17:52:40Z</time>
  <course>57.91</course>
  <speed>4.962358310319802</speed>
  <fix>3d</fix>
</trkpt>
<trkpt lat="40.0714472" lon="-105.2286426">
  <ele>1583.0</ele>
  <time>2026-08-28T17:52:40Z</time>
  <course>56.89</course>
  <speed>4.98</speed>
  <fix>3d</fix>
</trkpt>
<trkpt lat="40.0714576" lon="-105.2286213">
  <ele>1582.98</ele>
  <time>2026-08-28T17:52:40Z</time>
  <course>57.91</course>
  <speed>4.962358310319802</speed>
  <fix>3d</fix>
</trkpt>
<trkpt lat="40.0714521" lon="-105.2286327">
  <ele>1583.0</ele>
  <time>2026-08-28T17:52:40Z</time>
  <course>56.9</course>
  <speed>4.98</speed>
  <fix>3d</fix>
</trkpt>
<trkpt lat="40.07146" lon="-105.2286165">
  <ele>1582.99</ele>
  <time>2026-08-28T17:52:40Z</time>
  <course>57.93</course>
  <speed>4.953958013548359</speed>
  <fix>3d</fix>
</trkpt>
<trkpt lat="40.0714521" lon="-105.2286327">
  <ele>1583.0</ele>
  <time>2026-08-28T17:52:40Z</time>
  <course>56.9</course>
  <speed>4.98</speed>
  <fix>3d</fix>
</trkpt>
<trkpt lat="40.0714624" lon="-105.2286116">
  <ele>1582.99</ele>
  <time>2026-08-28T17:52:40Z</time>
  <course>57.93</course>
  <speed>4.953958013548359</speed>
  <fix>3d</fix>
</trkpt>
<trkpt lat="40.0714569" lon="-105.228623">
  <ele>1583.0</ele>
  <time>2026-08-28T17:52:40Z</time>
  <course>56.91</course>
  <speed>4.98</speed>
  <fix>3d</fix>
</trkpt>
<trkpt lat="40.0714649" lon="-105.2286067">
  <ele>1582.99</ele>
  <time>2026-08-28T17:52:40Z</time>
  <course>57.93</course>
  <speed>4.953958013548359</speed>
  <fix>3d</fix>
</trkpt>
<trkpt lat="40.0714569" lon="-105.228623">
  <ele>1583.0</ele>
  <time>2026-08-28T17:52:40Z</time>
  <course>56.91</course>
  <speed>4.98</speed>
  <fix>3d</fix>
</trkpt>
<trkpt lat="40.0714673" lon="-105.2286019">
  <ele>1583.0</ele>
  <time>2026-08-28T17:52:40Z</time>
  <course>57.93</course>
  <speed>4.953958013548359</speed>
  <fix>3d</fix>
</trkpt>
<trkpt lat="40.0714618" lon="-105.2286131">
  <ele>1583.0</ele>
  <time>2026-08-28T17:52:40Z</time>
  <course>56.91</course>
  <speed>4.97</speed>
  <fix>3d</fix>
</trkpt>
<trkpt lat="40.0714697" lon="-105.228597">
  <ele>1583.0</ele>
  <time>2026-08-28T17:52:40Z</time>
  <course>57.93</course>
  <speed>4.948535136785431</speed>
  <fix>3d</fix>
</trkpt>
<trkpt lat="40.0714667" lon="-105.2286034">
  <ele>1583.0</ele>
  <time>2026-08-28T17:52:40Z</time>
  <course>56.91</course>
  <speed>4.97</speed>
  <fix>3d</fix>
</trkpt>
<trkpt lat="40.0714721" lon="-105.2285921">
  <ele>1583.0</ele>
  <time>2026-08-28T17:52:40Z</time>
  <course>57.93</course>
  <speed>4.953958013548359</speed>
  <fix>3d</fix>
</trkpt>
<trkpt lat="40.0714667" lon="-105.2286034">
  <ele>1583.0</ele>
  <time>2026-08-28T17:52:40Z</time>
  <course>56.91</course>
  <speed>4.97</speed>
  <fix>3d</fix>
</trkpt>
<trkpt lat="40.0714746" lon="-105.2285872">
  <ele>1583.0</ele>
  <time>2026-08-28T17:52:40Z</time>
  <course>57.93</course>
  <speed>4.953958013548359</speed>
  <fix>3d</fix>
</trkpt>
<trkpt lat="40.0714716" lon="-105.2285935">
  <ele>1583.0</ele>
  <time>2026-08-28T17:52:40Z</time>
  <course>56.91</course>
  <speed>4.97</speed>
  <fix>3d</fix>
</trkpt>
<trkpt lat="40.071477" lon="-105.2285824">
  <ele>1583.0</ele>
  <time>2026-08-28T17:52:40Z</time>
  <course>57.93</course>
  <speed>4.953958013548359</speed>
  <fix>3d</fix>
</trkpt>
<trkpt lat="40.0714716" lon="-105.2285935">
  <ele>1583.0</ele>
  <time>2026-08-28T17:52:40Z</time>
  <course>56.91</course>
  <speed>4.97</speed>
  <fix>3d</fix>
</trkpt>
<trkpt lat="40.0714794" lon="-105.2285775">
  <ele>1582.99</ele>
  <time>2026-08-28T17:52:40Z</time>
  <course>57.93</course>
  <speed>4.953958013548359</speed>
  <fix>3d</fix>
</trkpt>
<trkpt lat="40.0714765" lon="-105.2285838">
  <ele>1583.0</ele>
  <time>2026-08-28T17:52:40Z</time>
  <course>56.91</course>
  <speed>4.98</speed>
  <fix>3d</fix>
</trkpt>
<trkpt lat="40.0714819" lon="-105.2285725">
  <ele>1582.99</ele>
  <time>2026-08-28T17:52:40Z</time>
  <course>57.93</course>
  <speed>4.953958013548359</speed>
  <fix>3d</fix>
</trkpt>
<trkpt lat="40.0714765" lon="-105.2285838">
  <ele>1583.0</ele>
  <time>2026-08-28T17:52:40Z</time>
  <course>56.91</course>
  <speed>4.98</speed>
  <fix>3d</fix>
</trkpt>
<trkpt lat="40.0714843" lon="-105.2285676">
  <ele>1582.99</ele>
  <time>2026-08-28T17:52:40Z</time>
  <course>57.93</course>
  <speed>4.953958013548359</speed>
  <fix>3d</fix>
</trkpt>
<trkpt lat="40.0714814" lon="-105.228574">
  <ele>1583.0</ele>
  <time>2026-08-28T17:52:40Z</time>
  <course>56.91</course>
  <speed>4.98</speed>
  <fix>3d</fix>
</trkpt>
<trkpt lat="40.0714868" lon="-105.2285626">
  <ele>1582.98</ele>
  <time>2026-08-28T17:52:40Z</time>
  <course>57.93</course>
  <speed>4.962358310319802</speed>
  <fix>3d</fix>
</trkpt>
<trkpt lat="40.0714814" lon="-105.228574">
  <ele>1583.0</ele>
  <time>2026-08-28T17:52:40Z</time>
  <course>56.91</course>
  <speed>4.98</speed>
  <fix>3d</fix>
</trkpt>
<trkpt lat="40.0714893" lon="-105.2285577">
  <ele>1582.98</ele>
  <time>2026-08-28T17:52:40Z</time>
  <course>57.93</course>
  <speed>4.962358310319802</speed>
  <fix>3d</fix>
</trkpt>
<trkpt lat="40.0714862" lon="-105.2285641">
  <ele>1583.0</ele>
  <time>2026-08-28T17:52:40Z</time>
  <course>56.91</course>
  <speed>4.98</speed>
  <fix>3d</fix>
</trkpt>
<trkpt lat="40.0714917" lon="-105.2285528">
  <ele>1582.98</ele>
  <time>2026-08-28T17:52:40Z</time>
  <course>57.94</course>
  <speed>4.962358310319802</speed>
  <fix>3d</fix>
</trkpt>
<trkpt lat="40.0714862" lon="-105.2285641">
  <ele>1583.0</ele>
  <time>2026-08-28T17:52:40Z</time>
  <course>56.91</course>
  <speed>4.98</speed>
  <fix>3d</fix>
</trkpt>
<trkpt lat="40.0714942" lon="-105.2285479">
  <ele>1582.98</ele>
  <time>2026-08-28T17:52:40Z</time>
  <course>57.95</course>
  <speed>4.962358310319802</speed>
  <fix>3d</fix>
</trkpt>
<trkpt lat="40.0714911" lon="-105.2285544">
  <ele>1583.0</ele>
  <time>2026-08-28T17:52:40Z</time>
  <course>56.92</course>
  <speed>4.98</speed>
  <fix>3d</fix>
</trkpt>
<trkpt lat="40.0714966" lon="-105.2285429">
  <ele>1582.97</ele>
  <time>2026-08-28T17:52:40Z</time>
  <course>57.95</course>
  <speed>4.962358310319802</speed>
  <fix>3d</fix>
</trkpt>
<trkpt lat="40.0714911" lon="-105.2285544">
  <ele>1583.0</ele>
  <time>2026-08-28T17:52:40Z</time>
  <course>56.92</course>
  <speed>4.98</speed>
  <fix>3d</fix>
</trkpt>
<trkpt lat="40.0714991" lon="-105.228538">
  <ele>1582.97</ele>
  <time>2026-08-28T17:52:40Z</time>
  <course>57.95</course>
  <speed>4.962358310319802</speed>
  <fix>3d</fix>
</trkpt>
<trkpt lat="40.071496" lon="-105.2285445">
  <ele>1583.0</ele>
  <time>2026-08-28T17:52:40Z</time>
  <course>56.93</course>
  <speed>4.98</speed>
  <fix>3d</fix>
</trkpt>
<trkpt lat="40.0715015" lon="-105.2285331">
  <ele>1582.97</ele>
  <time>2026-08-28T17:52:40Z</time>
  <course>57.95</course>
  <speed>4.962358310319802</speed>
  <fix>3d</fix>
</trkpt>
<trkpt lat="40.071496" lon="-105.2285445">
  <ele>1583.0</ele>
  <time>2026-08-28T17:52:40Z</time>
  <course>56.93</course>
  <speed>4.98</speed>
  <fix>3d</fix>
</trkpt>
<trkpt lat="40.071504" lon="-105.2285282">
  <ele>1582.97</ele>
  <time>2026-08-28T17:52:40Z</time>
  <course>57.95</course>
  <speed>4.962358310319802</speed>
  <fix>3d</fix>
</trkpt>
<trkpt lat="40.071496" lon="-105.2285445">
  <ele>1583.0</ele>
  <time>2026-08-28T17:52:40Z</time>
  <course>56.93</course>
  <speed>4.98</speed>
  <fix>3d</fix>
</trkpt>
<trkpt lat="40.0715064" lon="-105.2285233">
  <ele>1582.97</ele>
  <time>2026-08-28T17:52:40Z</time>
  <course>57.95</course>
  <speed>4.953958013548359</speed>
  <fix>3d</fix>
</trkpt>
<trkpt lat="40.0715009" lon="-105.2285348">
  <ele>1583.0</ele>
  <time>2026-08-28T17:52:40Z</time>
  <course>56.93</course>
  <speed>4.97</speed>
  <fix>3d</fix>
</trkpt>
<trkpt lat="40.0715088" lon="-105.2285184">
  <ele>1582.97</ele>
  <time>2026-08-28T17:52:40Z</time>
  <course>57.95</course>
  <speed>4.953958013548359</speed>
  <fix>3d</fix>
</trkpt>
<trkpt lat="40.0715009" lon="-105.2285348">
  <ele>1583.0</ele>
  <time>2026-08-28T17:52:40Z</time>
  <course>56.93</course>
  <speed>4.97</speed>
  <fix>3d</fix>
</trkpt>
<trkpt lat="40.0715113" lon="-105.2285136">
  <ele>1582.97</ele>
  <time>2026-08-28T17:52:40Z</time>
  <course>57.95</course>
  <speed>4.953958013548359</speed>
  <fix>3d</fix>
</trkpt>
<trkpt lat="40.0715058" lon="-105.2285249">
  <ele>1583.0</ele>
  <time>2026-08-28T17:52:40Z</time>
  <course>56.93</course>
  <speed>4.97</speed>
  <fix>3d</fix>
</trkpt>
<trkpt lat="40.0715137" lon="-105.2285087">
  <ele>1582.97</ele>
  <time>2026-08-28T17:52:40Z</time>
  <course>57.95</course>
  <speed>4.953958013548359</speed>
  <fix>3d</fix>
</trkpt>
<trkpt lat="40.0715058" lon="-105.2285249">
  <ele>1583.0</ele>
  <time>2026-08-28T17:52:40Z</time>
  <course>56.93</course>
  <speed>4.97</speed>
  <fix>3d</fix>
</trkpt>
<trkpt lat="40.0715161" lon="-105.2285039">
  <ele>1582.98</ele>
  <time>2026-08-28T17:52:40Z</time>
  <course>57.95</course>
  <speed>4.953958013548359</speed>
  <fix>3d</fix>
</trkpt>
<trkpt lat="40.0715107" lon="-105.2285152">
  <ele>1583.0</ele>
  <time>2026-08-28T17:52:40Z</time>
  <course>56.93</course>
  <speed>4.97</speed>
  <fix>3d</fix>
</trkpt>
<trkpt lat="40.0715185" lon="-105.228499">
  <ele>1582.98</ele>
  <time>2026-08-28T17:52:40Z</time>
  <course>57.95</course>
  <speed>4.953958013548359</speed>
  <fix>3d</fix>
</trkpt>
<trkpt lat="40.0715156" lon="-105.2285053">
  <ele>1583.0</ele>
  <time>2026-08-28T17:52:40Z</time>
  <course>56.93</course>
  <speed>4.98</speed>
  <fix>3d</fix>
</trkpt>
<trkpt lat="40.071521" lon="-105.2284941">
  <ele>1582.99</ele>
  <time>2026-08-28T17:52:40Z</time>
  <course>57.95</course>
  <speed>4.953958013548359</speed>
  <fix>3d</fix>
</trkpt>
<trkpt lat="40.0715156" lon="-105.2285053">
  <ele>1583.0</ele>
  <time>2026-08-28T17:52:40Z</time>
  <course>56.93</course>
  <speed>4.98</speed>
  <fix>3d</fix>
</trkpt>
<trkpt lat="40.0715234" lon="-105.2284892">
  <ele>1582.99</ele>
  <time>2026-08-28T17:52:40Z</time>
  <course>57.95</course>
  <speed>4.953958013548359</speed>
  <fix>3d</fix>
</trkpt>
<trkpt lat="40.0715204" lon="-105.2284956">
  <ele>1583.0</ele>
  <time>2026-08-28T17:52:40Z</time>
  <course>56.93</course>
  <speed>4.98</speed>
  <fix>3d</fix>
</trkpt>
<trkpt lat="40.0715259" lon="-105.2284843">
  <ele>1583.0</ele>
  <time>2026-08-28T17:52:40Z</time>
  <course>57.95</course>
  <speed>4.962358310319802</speed>
  <fix>3d</fix>
</trkpt>
<trkpt lat="40.0715204" lon="-105.2284956">
  <ele>1583.0</ele>
  <time>2026-08-28T17:52:40Z</time>
  <course>56.93</course>
  <speed>4.98</speed>
  <fix>3d</fix>
</trkpt>
<trkpt lat="40.0715283" lon="-105.2284794">
  <ele>1583.0</ele>
  <time>2026-08-28T17:52:40Z</time>
  <course>57.95</course>
  <speed>4.962358310319802</speed>
  <fix>3d</fix>
</trkpt>
<trkpt lat="40.0715253" lon="-105.2284857">
  <ele>1583.0</ele>
  <time>2026-08-28T17:52:40Z</time>
  <course>56.93</course>
  <speed>4.98</speed>
  <fix>3d</fix>
</trkpt>
<trkpt lat="40.0715307" lon="-105.2284745">
  <ele>1583.01</ele>
  <time>2026-08-28T17:52:40Z</time>
  <course>57.96</course>
  <speed>4.962358310319802</speed>
  <fix>3d</fix>
</trkpt>
<trkpt lat="40.0715253" lon="-105.2284857">
  <ele>1583.0</ele>
  <time>2026-08-28T17:52:40Z</time>
  <course>56.93</course>
  <speed>4.98</speed>
  <fix>3d</fix>
</trkpt>
<trkpt lat="40.0715332" lon="-105.2284696">
  <ele>1583.01</ele>
  <time>2026-08-28T17:52:40Z</time>
  <course>57.96</course>
  <speed>4.962358310319802</speed>
  <fix>3d</fix>
</trkpt>
<trkpt lat="40.0715302" lon="-105.228476">
  <ele>1583.0</ele>
  <time>2026-08-28T17:52:40Z</time>
  <course>56.93</course>
  <speed>4.99</speed>
  <fix>3d</fix>
</trkpt>
<trkpt lat="40.0715357" lon="-105.2284646">
  <ele>1583.0</ele>
  <time>2026-08-28T17:52:40Z</time>
  <course>57.96</course>
  <speed>4.962358310319802</speed>
  <fix>3d</fix>
</trkpt>
<trkpt lat="40.0715302" lon="-105.228476">
  <ele>1583.0</ele>
  <time>2026-08-28T17:52:40Z</time>
  <course>56.93</course>
  <speed>4.99</speed>
  <fix>3d</fix>
</trkpt>
<trkpt lat="40.0715381" lon="-105.2284596">
  <ele>1583.0</ele>
  <time>2026-08-28T17:52:40Z</time>
  <course>57.96</course>
  <speed>4.962358310319802</speed>
  <fix>3d</fix>
</trkpt>
<trkpt lat="40.0715351" lon="-105.2284661">
  <ele>1583.0</ele>
  <time>2026-08-28T17:52:40Z</time>
  <course>56.94</course>
  <speed>4.99</speed>
  <fix>3d</fix>
</trkpt>
<trkpt lat="40.0715406" lon="-105.2284547">
  <ele>1583.01</ele>
  <time>2026-08-28T17:52:40Z</time>
  <course>57.96</course>
  <speed>4.962358310319802</speed>
  <fix>3d</fix>
</trkpt>
<trkpt lat="40.0715351" lon="-105.2284661">
  <ele>1583.0</ele>
  <time>2026-08-28T17:52:40Z</time>
  <course>56.94</course>
  <speed>4.99</speed>
  <fix>3d</fix>
</trkpt>
<trkpt lat="40.071543" lon="-105.2284498">
  <ele>1583.01</ele>
  <time>2026-08-28T17:52:40Z</time>
  <course>57.96</course>
  <speed>4.962358310319802</speed>
  <fix>3d</fix>
</trkpt>
<trkpt lat="40.07154" lon="-105.2284564">
  <ele>1583.0</ele>
  <time>2026-08-28T17:52:40Z</time>
  <course>56.94</course>
  <speed>4.99</speed>
  <fix>3d</fix>
</trkpt>
<trkpt lat="40.0715455" lon="-105.2284448">
  <ele>1583.01</ele>
  <time>2026-08-28T17:52:40Z</time>
  <course>57.96</course>
  <speed>4.976183276367541</speed>
  <fix>3d</fix>
</trkpt>
<trkpt lat="40.07154" lon="-105.2284564">
  <ele>1583.0</ele>
  <time>2026-08-28T17:52:40Z</time>
  <course>56.94</course>
  <speed>4.99</speed>
  <fix>3d</fix>
</trkpt>
<trkpt lat="40.071548" lon="-105.2284399">
  <ele>1583.01</ele>
  <time>2026-08-28T17:52:40Z</time>
  <course>57.96</course>
  <speed>4.976183276367541</speed>
  <fix>3d</fix>
</trkpt>
<trkpt lat="40.0715449" lon="-105.2284465">
  <ele>1583.0</ele>
  <time>2026-08-28T17:52:40Z</time>
  <course>56.94</course>
  <speed>4.99</speed>
  <fix>3d</fix>
</trkpt>
<trkpt lat="40.0715504" lon="-105.228435">
  <ele>1583.02</ele>
  <time>2026-08-28T17:52:40Z</time>
  <course>57.96</course>
  <speed>4.976183276367541</speed>
  <fix>3d</fix>
</trkpt>
<trkpt lat="40.0715449" lon="-105.2284465">
  <ele>1583.0</ele>
  <time>2026-08-28T17:52:40Z</time>
  <course>56.94</course>
  <speed>4.99</speed>
  <fix>3d</fix>
</trkpt>
<trkpt lat="40.0715529" lon="-105.2284301">
  <ele>1583.02</ele>
  <time>2026-08-28T17:52:40Z</time>
  <course>57.98</course>
  <speed>4.970764528721915</speed>
  <fix>3d</fix>
</trkpt>
<trkpt lat="40.0715449" lon="-105.2284465">
  <ele>1583.0</ele>
  <time>2026-08-28T17:52:40Z</time>
  <course>56.94</course>
  <speed>4.99</speed>
  <fix>3d</fix>
</trkpt>
<trkpt lat="40.0715553" lon="-105.2284252">
  <ele>1583.02</ele>
  <time>2026-08-28T17:52:40Z</time>
  <course>57.98</course>
  <speed>4.962358310319802</speed>
  <fix>3d</fix>
</trkpt>
<trkpt lat="40.0715498" lon="-105.2284367">
  <ele>1583.0</ele>
  <time>2026-08-28T17:52:40Z</time>
  <course>56.95</course>
  <speed>4.99</speed>
  <fix>3d</fix>
</trkpt>
<trkpt lat="40.0715577" lon="-105.2284203">
  <ele>1583.02</ele>
  <time>2026-08-28T17:52:40Z</time>
  <course>57.98</course>
  <speed>4.962358310319802</speed>
  <fix>3d</fix>
</trkpt>
<trkpt lat="40.0715498" lon="-105.2284367">
  <ele>1583.0</ele>
  <time>2026-08-28T17:52:40Z</time>
  <course>56.95</course>
  <speed>4.99</speed>
  <fix>3d</fix>
</trkpt>
<trkpt lat="40.0715602" lon="-105.2284154">
  <ele>1583.02</ele>
  <time>2026-08-28T17:52:40Z</time>
  <course>57.98</course>
  <speed>4.962358310319802</speed>
  <fix>3d</fix>
</trkpt>
<trkpt lat="40.0715547" lon="-105.2284268">
  <ele>1583.0</ele>
  <time>2026-08-28T17:52:40Z</time>
  <course>56.95</course>
  <speed>4.98</speed>
  <fix>3d</fix>
</trkpt>
<trkpt lat="40.0715626" lon="-105.2284106">
  <ele>1583.02</ele>
  <time>2026-08-28T17:52:40Z</time>
  <course>57.98</course>
  <speed>4.962358310319802</speed>
  <fix>3d</fix>
</trkpt>
<trkpt lat="40.0715547" lon="-105.2284268">
  <ele>1583.0</ele>
  <time>2026-08-28T17:52:40Z</time>
  <course>56.95</course>
  <speed>4.98</speed>
  <fix>3d</fix>
</trkpt>
<trkpt lat="40.071565" lon="-105.2284057">
  <ele>1583.01</ele>
  <time>2026-08-28T17:52:40Z</time>
  <course>57.98</course>
  <speed>4.962358310319802</speed>
  <fix>3d</fix>
</trkpt>
<trkpt lat="40.0715596" lon="-105.2284171">
  <ele>1583.0</ele>
  <time>2026-08-28T17:52:40Z</time>
  <course>56.95</course>
  <speed>4.98</speed>
  <fix>3d</fix>
</trkpt>
<trkpt lat="40.0715674" lon="-105.2284009">
  <ele>1583.01</ele>
  <time>2026-08-28T17:52:40Z</time>
  <course>57.98</course>
  <speed>4.962358310319802</speed>
  <fix>3d</fix>
</trkpt>
<trkpt lat="40.0715596" lon="-105.2284171">
  <ele>1583.0</ele>
  <time>2026-08-28T17:52:40Z</time>
  <course>56.95</course>
  <speed>4.98</speed>
  <fix>3d</fix>
</trkpt>
<trkpt lat="40.0715699" lon="-105.228396">
  <ele>1583.01</ele>
  <time>2026-08-28T17:52:40Z</time>
  <course>57.98</course>
  <speed>4.962358310319802</speed>
  <fix>3d</fix>
</trkpt>
<trkpt lat="40.0715645" lon="-105.2284072">
  <ele>1583.0</ele>
  <time>2026-08-28T17:52:40Z</time>
  <course>56.95</course>
  <speed>4.99</speed>
  <fix>3d</fix>
</trkpt>
<trkpt lat="40.0715723" lon="-105.2283911">
  <ele>1583.0</ele>
  <time>2026-08-28T17:52:40Z</time>
  <course>57.99</course>
  <speed>4.962358310319802</speed>
  <fix>3d</fix>
</trkpt>
<trkpt lat="40.0715693" lon="-105.2283974">
  <ele>1583.0</ele>
  <time>2026-08-28T17:52:40Z</time>
  <course>56.96</course>
  <speed>4.99</speed>
  <fix>3d</fix>
</trkpt>
<trkpt lat="40.0715747" lon="-105.2283862">
  <ele>1583.0</ele>
  <time>2026-08-28T17:52:40Z</time>
  <course>57.99</course>
  <speed>4.962358310319802</speed>
  <fix>3d</fix>
</trkpt>
<trkpt lat="40.0715693" lon="-105.2283974">
  <ele>1583.0</ele>
  <time>2026-08-28T17:52:40Z</time>
  <course>56.96</course>
  <speed>4.99</speed>
  <fix>3d</fix>
</trkpt>
<trkpt lat="40.0715771" lon="-105.2283814">
  <ele>1583.0</ele>
  <time>2026-08-28T17:52:40Z</time>
  <course>57.99</course>
  <speed>4.962358310319802</speed>
  <fix>3d</fix>
</trkpt>
<trkpt lat="40.0715742" lon="-105.2283875">
  <ele>1583.0</ele>
  <time>2026-08-28T17:52:40Z</time>
  <course>56.97</course>
  <speed>4.99</speed>
  <fix>3d</fix>
</trkpt>
<trkpt lat="40.0715796" lon="-105.2283764">
  <ele>1582.99</ele>
  <time>2026-08-28T17:52:40Z</time>
  <course>57.99</course>
  <speed>4.962358310319802</speed>
  <fix>3d</fix>
</trkpt>
<trkpt lat="40.0715742" lon="-105.2283875">
  <ele>1583.0</ele>
  <time>2026-08-28T17:52:40Z</time>
  <course>56.97</course>
  <speed>4.99</speed>
  <fix>3d</fix>
</trkpt>
<trkpt lat="40.0715821" lon="-105.2283715">
  <ele>1582.99</ele>
  <time>2026-08-28T17:52:40Z</time>
  <course>57.99</course>
  <speed>4.970764528721915</speed>
  <fix>3d</fix>
</trkpt>
<trkpt lat="40.0715791" lon="-105.2283777">
  <ele>1583.0</ele>
  <time>2026-08-28T17:52:40Z</time>
  <course>56.97</course>
  <speed>5.0</speed>
  <fix>3d</fix>
</trkpt>
<trkpt lat="40.0715845" lon="-105.2283665">
  <ele>1582.99</ele>
  <time>2026-08-28T17:52:40Z</time>
  <course>57.99</course>
  <speed>4.976183276367541</speed>
  <fix>3d</fix>
</trkpt>
<trkpt lat="40.0715791" lon="-105.2283777">
  <ele>1583.0</ele>
  <time>2026-08-28T17:52:40Z</time>
  <course>56.97</course>
  <speed>5.0</speed>
  <fix>3d</fix>
</trkpt>
<trkpt lat="40.071587" lon="-105.2283616">
  <ele>1582.99</ele>
  <time>2026-08-28T17:52:40Z</time>
  <course>57.99</course>
  <speed>4.976183276367541</speed>
  <fix>3d</fix>
</trkpt>
<trkpt lat="40.071584" lon="-105.2283679">
  <ele>1583.0</ele>
  <time>2026-08-28T17:52:40Z</time>
  <course>56.97</course>
  <speed>5.0</speed>
  <fix>3d</fix>
</trkpt>
<trkpt lat="40.0715895" lon="-105.2283566">
  <ele>1582.99</ele>
  <time>2026-08-28T17:52:40Z</time>
  <course>57.99</course>
  <speed>4.976183276367541</speed>
  <fix>3d</fix>
</trkpt>
<trkpt lat="40.071584" lon="-105.2283679">
  <ele>1583.0</ele>
  <time>2026-08-28T17:52:40Z</time>
  <course>56.97</course>
  <speed>5.0</speed>
  <fix>3d</fix>
</trkpt>
<trkpt lat="40.0715919" lon="-105.2283516">
  <ele>1582.99</ele>
  <time>2026-08-28T17:52:40Z</time>
  <course>57.99</course>
  <speed>4.976183276367541</speed>
  <fix>3d</fix>
</trkpt>
<trkpt lat="40.0715889" lon="-105.228358">
  <ele>1583.0</ele>
  <time>2026-08-28T17:52:40Z</time>
  <course>56.97</course>
  <speed>5.0</speed>
  <fix>3d</fix>
</trkpt>
<trkpt lat="40.0715944" lon="-105.2283467">
  <ele>1583.0</ele>
  <time>2026-08-28T17:52:40Z</time>
  <course>57.99</course>
  <speed>4.976183276367541</speed>
  <fix>3d</fix>
</trkpt>
<trkpt lat="40.0715889" lon="-105.228358">
  <ele>1583.0</ele>
  <time>2026-08-28T17:52:40Z</time>
  <course>56.97</course>
  <speed>5.0</speed>
  <fix>3d</fix>
</trkpt>
<trkpt lat="40.0715968" lon="-105.2283417">
  <ele>1583.0</ele>
  <time>2026-08-28T17:52:40Z</time>
  <course>57.99</course>
  <speed>4.976183276367541</speed>
  <fix>3d</fix>
</trkpt>
<trkpt lat="40.0715938" lon="-105.2283482">
  <ele>1583.0</ele>
  <time>2026-08-28T17:52:40Z</time>
  <course>56.97</course>
  <speed>5.0</speed>
  <fix>3d</fix>
</trkpt>
<trkpt lat="40.0715993" lon="-105.2283368">
  <ele>1583.01</ele>
  <time>2026-08-28T17:52:40Z</time>
  <course>57.99</course>
  <speed>4.976183276367541</speed>
  <fix>3d</fix>
</trkpt>
<trkpt lat="40.0715938" lon="-105.2283482">
  <ele>1583.0</ele>
  <time>2026-08-28T17:52:40Z</time>
  <course>56.97</course>
  <speed>5.0</speed>
  <fix>3d</fix>
</trkpt>
<trkpt lat="40.0716018" lon="-105.2283318">
  <ele>1583.01</ele>
  <time>2026-08-28T17:52:40Z</time>
  <course>57.99</course>
  <speed>4.976183276367541</speed>
  <fix>3d</fix>
</trkpt>
<trkpt lat="40.0715987" lon="-105.2283383">
  <ele>1583.0</ele>
  <time>2026-08-28T17:52:40Z</time>
  <course>56.97</course>
  <speed>5.0</speed>
  <fix>3d</fix>
</trkpt>
<trkpt lat="40.0716042" lon="-105.2283269">
  <ele>1583.01</ele>
  <time>2026-08-28T17:52:40Z</time>
  <course>57.99</course>
  <speed>4.976183276367541</speed>
  <fix>3d</fix>
</trkpt>
<trkpt lat="40.0715987" lon="-105.2283383">
  <ele>1583.0</ele>
  <time>2026-08-28T17:52:40Z</time>
  <course>56.97</course>
  <speed>5.0</speed>
  <fix>3d</fix>
</trkpt>
<trkpt lat="40.0716067" lon="-105.2283219">
  <ele>1583.01</ele>
  <time>2026-08-28T17:52:40Z</time>
  <course>58.0</course>
  <speed>4.976183276367541</speed>
  <fix>3d</fix>
</trkpt>
<trkpt lat="40.0715987" lon="-105.2283383">
  <ele>1583.0</ele>
  <time>2026-08-28T17:52:40Z</time>
  <course>56.97</course>
  <speed>5.0</speed>
  <fix>3d</fix>
</trkpt>
<trkpt lat="40.0716091" lon="-105.228317">
  <ele>1583.01</ele>
  <time>2026-08-28T17:52:40Z</time>
  <course>58.0</course>
  <speed>4.970764528721915</speed>
  <fix>3d</fix>
</trkpt>
<trkpt lat="40.0716036" lon="-105.2283285">
  <ele>1583.0</ele>
  <time>2026-08-28T17:52:40Z</time>
  <course>56.97</course>
  <speed>4.99</speed>
  <fix>3d</fix>
</trkpt>
<trkpt lat="40.0716115" lon="-105.2283121">
  <ele>1583.01</ele>
  <time>2026-08-28T17:52:40Z</time>
  <course>58.0</course>
  <speed>4.970764528721915</speed>
  <fix>3d</fix>
</trkpt>
<trkpt lat="40.0716036" lon="-105.2283285">
  <ele>1583.0</ele>
  <time>2026-08-28T17:52:40Z</time>
  <course>56.97</course>
  <speed>4.99</speed>
  <fix>3d</fix>
</trkpt>
<trkpt lat="40.071614" lon="-105.2283073">
  <ele>1583.01</ele>
  <time>2026-08-28T17:52:40Z</time>
  <course>58.0</course>
  <speed>4.962358310319802</speed>
  <fix>3d</fix>
</trkpt>
<trkpt lat="40.0716085" lon="-105.2283186">
  <ele>1583.0</ele>
  <time>2026-08-28T17:52:40Z</time>
  <course>56.97</course>
  <speed>4.99</speed>
  <fix>3d</fix>
</trkpt>
<trkpt lat="40.0716164" lon="-105.2283024">
  <ele>1583.01</ele>
  <time>2026-08-28T17:52:40Z</time>
  <course>58.0</course>
  <speed>4.962358310319802</speed>
  <fix>3d</fix>
</trkpt>
<trkpt lat="40.0716085" lon="-105.2283186">
  <ele>1583.0</ele>
  <time>2026-08-28T17:52:40Z</time>
  <course>56.97</course>
  <speed>4.99</speed>
  <fix>3d</fix>
</trkpt>
<trkpt lat="40.0716188" lon="-105.2282975">
  <ele>1583.01</ele>
  <time>2026-08-28T17:52:40Z</time>
  <course>58.0</course>
  <speed>4.962358310319802</speed>
  <fix>3d</fix>
</trkpt>
<trkpt lat="40.0716134" lon="-105.2283088">
  <ele>1583.0</ele>
  <time>2026-08-28T17:52:40Z</time>
  <course>56.97</course>
  <speed>4.99</speed>
  <fix>3d</fix>
</trkpt>
<trkpt lat="40.0716212" lon="-105.2282926">
  <ele>1583.0</ele>
  <time>2026-08-28T17:52:40Z</time>
  <course>58.0</course>
  <speed>4.962358310319802</speed>
  <fix>3d</fix>
</trkpt>
<trkpt lat="40.0716183" lon="-105.2282989">
  <ele>1583.0</ele>
  <time>2026-08-28T17:52:40Z</time>
  <course>56.97</course>
  <speed>4.99</speed>
  <fix>3d</fix>
</trkpt>
<trkpt lat="40.0716237" lon="-105.2282877">
  <ele>1583.0</ele>
  <time>2026-08-28T17:52:40Z</time>
  <course>58.0</course>
  <speed>4.962358310319802</speed>
  <fix>3d</fix>
</trkpt>
<trkpt lat="40.0716183" lon="-105.2282989">
  <ele>1583.0</ele>
  <time>2026-08-28T17:52:40Z</time>
  <course>56.97</course>
  <speed>4.99</speed>
  <fix>3d</fix>
</trkpt>
<trkpt lat="40.0716261" lon="-105.2282828">
  <ele>1583.01</ele>
  <time>2026-08-28T17:52:40Z</time>
  <course>58.0</course>
  <speed>4.962358310319802</speed>
  <fix>3d</fix>
</trkpt>
<trkpt lat="40.0716232" lon="-105.2282892">
  <ele>1583.0</ele>
  <time>2026-08-28T17:52:40Z</time>
  <course>56.97</course>
  <speed>4.99</speed>
  <fix>3d</fix>
</trkpt>
<trkpt lat="40.0716286" lon="-105.2282779">
  <ele>1583.01</ele>
  <time>2026-08-28T17:52:40Z</time>
  <course>58.0</course>
  <speed>4.962358310319802</speed>
  <fix>3d</fix>
</trkpt>
<trkpt lat="40.0716232" lon="-105.2282892">
  <ele>1583.0</ele>
  <time>2026-08-28T17:52:40Z</time>
  <course>56.97</course>
  <speed>4.99</speed>
  <fix>3d</fix>
</trkpt>
<trkpt lat="40.071631" lon="-105.228273">
  <ele>1583.01</ele>
  <time>2026-08-28T17:52:40Z</time>
  <course>58.0</course>
  <speed>4.962358310319802</speed>
  <fix>3d</fix>
</trkpt>
<trkpt lat="40.0716281" lon="-105.2282793">
  <ele>1583.0</ele>
  <time>2026-08-28T17:52:40Z</time>
  <course>56.97</course>
  <speed>4.99</speed>
  <fix>3d</fix>
</trkpt>
<trkpt lat="40.0716335" lon="-105.2282681">
  <ele>1583.01</ele>
  <time>2026-08-28T17:52:40Z</time>
  <course>58.0</course>
  <speed>4.962358310319802</speed>
  <fix>3d</fix>
</trkpt>
<trkpt lat="40.0716281" lon="-105.2282793">
  <ele>1583.0</ele>
  <time>2026-08-28T17:52:40Z</time>
  <course>56.97</course>
  <speed>4.99</speed>
  <fix>3d</fix>
</trkpt>
<trkpt lat="40.0716359" lon="-105.2282631">
  <ele>1583.01</ele>
  <time>2026-08-28T17:52:40Z</time>
  <course>58.0</course>
  <speed>4.962358310319802</speed>
  <fix>3d</fix>
</trkpt>
<trkpt lat="40.071633" lon="-105.2282695">
  <ele>1583.0</ele>
  <time>2026-08-28T17:52:40Z</time>
  <course>56.97</course>
  <speed>4.99</speed>
  <fix>3d</fix>
</trkpt>
<trkpt lat="40.0716384" lon="-105.2282582">
  <ele>1583.0</ele>
  <time>2026-08-28T17:52:40Z</time>
  <course>58.0</course>
  <speed>4.970764528721915</speed>
  <fix>3d</fix>
</trkpt>
<trkpt lat="40.071633" lon="-105.2282695">
  <ele>1583.0</ele>
  <time>2026-08-28T17:52:40Z</time>
  <course>56.97</course>
  <speed>4.99</speed>
  <fix>3d</fix>
</trkpt>
<trkpt lat="40.0716409" lon="-105.2282532">
  <ele>1583.0</ele>
  <time>2026-08-28T17:52:40Z</time>
  <course>58.0</course>
  <speed>4.970764528721915</speed>
  <fix>3d</fix>
</trkpt>
<trkpt lat="40.0716379" lon="-105.2282597">
  <ele>1583.0</ele>
  <time>2026-08-28T17:52:40Z</time>
  <course>56.97</course>
  <speed>4.99</speed>
  <fix>3d</fix>
</trkpt>
<trkpt lat="40.0716433" lon="-105.2282483">
  <ele>1583.0</ele>
  <time>2026-08-28T17:52:40Z</time>
  <course>58.01</course>
  <speed>4.970764528721915</speed>
  <fix>3d</fix>
</trkpt>
<trkpt lat="40.0716379" lon="-105.2282597">
  <ele>1583.0</ele>
  <time>2026-08-28T17:52:40Z</time>
  <course>56.97</course>
  <speed>4.99</speed>
  <fix>3d</fix>
</trkpt>
<trkpt lat="40.0716458" lon="-105.2282433">
  <ele>1583.0</ele>
  <time>2026-08-28T17:52:40Z</time>
  <course>58.04</course>
  <speed>4.962358310319802</speed>
  <fix>3d</fix>
</trkpt>
<trkpt lat="40.0716427" lon="-105.2282499">
  <ele>1583.0</ele>
  <time>2026-08-28T17:52:40Z</time>
  <course>56.99</course>
  <speed>4.98</speed>
  <fix>3d</fix>
</trkpt>
<trkpt lat="40.0716482" lon="-105.2282384">
  <ele>1583.0</ele>
  <time>2026-08-28T17:52:40Z</time>
  <course>58.05</course>
  <speed>4.948535136785431</speed>
  <fix>3d</fix>
</trkpt>
<trkpt lat="40.0716427" lon="-105.2282499">
  <ele>1583.0</ele>
  <time>2026-08-28T17:52:40Z</time>
  <course>56.99</course>
  <speed>4.98</speed>
  <fix>3d</fix>
</trkpt>
<trkpt lat="40.0716507" lon="-105.2282335">
  <ele>1583.0</ele>
  <time>2026-08-28T17:52:40Z</time>
  <course>58.08</course>
  <speed>4.934713770828051</speed>
  <fix>3d</fix>
</trkpt>
<trkpt lat="40.0716476" lon="-105.22824">
  <ele>1583.0</ele>
  <time>2026-08-28T17:52:40Z</time>
  <course>57.03</course>
  <speed>4.96</speed>
  <fix>3d</fix>
</trkpt>
<trkpt lat="40.0716531" lon="-105.2282286">
  <ele>1583.0</ele>
  <time>2026-08-28T17:52:40Z</time>
  <course>58.12</course>
  <speed>4.907076522737341</speed>
  <fix>3d</fix>
</trkpt>
<trkpt lat="40.0716476" lon="-105.22824">
  <ele>1583.0</ele>
  <time>2026-08-28T17:52:40Z</time>
  <course>57.03</course>
  <speed>4.96</speed>
  <fix>3d</fix>
</trkpt>
<trkpt lat="40.0716555" lon="-105.2282238">
  <ele>1582.99</ele>
  <time>2026-08-28T17:52:40Z</time>
  <course>58.16</course>
  <speed>4.871026585844097</speed>
  <fix>3d</fix>
</trkpt>
<trkpt lat="40.0716476" lon="-105.22824">
  <ele>1583.0</ele>
  <time>2026-08-28T17:52:40Z</time>
  <course>57.03</course>
  <speed>4.96</speed>
  <fix>3d</fix>
</trkpt>
<trkpt lat="40.0716579" lon="-105.228219">
  <ele>1582.99</ele>
  <time>2026-08-28T17:52:40Z</time>
  <course>58.19</course>
  <speed>4.821161685735088</speed>
  <fix>3d</fix>
</trkpt>
<trkpt lat="40.0716525" lon="-105.2282303">
  <ele>1583.0</ele>
  <time>2026-08-28T17:52:40Z</time>
  <course>57.09</course>
  <speed>4.92</speed>
  <fix>3d</fix>
</trkpt>
<trkpt lat="40.0716602" lon="-105.2282143">
  <ele>1582.99</ele>
  <time>2026-08-28T17:52:40Z</time>
  <course>58.24</course>
  <speed>4.762877281643943</speed>
  <fix>3d</fix>
</trkpt>
<trkpt lat="40.0716525" lon="-105.2282303">
  <ele>1583.0</ele>
  <time>2026-08-28T17:52:40Z</time>
  <course>57.09</course>
  <speed>4.92</speed>
  <fix>3d</fix>
</trkpt>
<trkpt lat="40.0716625" lon="-105.2282096">
  <ele>1582.99</ele>
  <time>2026-08-28T17:52:40Z</time>
  <course>58.29</course>
  <speed>4.690778187038905</speed>
  <fix>3d</fix>
</trkpt>
<trkpt lat="40.0716572" lon="-105.2282206">
  <ele>1583.0</ele>
  <time>2026-08-28T17:52:40Z</time>
  <course>57.17</course>
  <speed>4.83</speed>
  <fix>3d</fix>
</trkpt>
<trkpt lat="40.0716647" lon="-105.2282051">
  <ele>1582.99</ele>
  <time>2026-08-28T17:52:40Z</time>
  <course>58.33</course>
  <speed>4.613296001775737</speed>
  <fix>3d</fix>
</trkpt>
<trkpt lat="40.0716572" lon="-105.2282206">
  <ele>1583.0</ele>
  <time>2026-08-28T17:52:40Z</time>
  <course>57.17</course>
  <speed>4.83</speed>
  <fix>3d</fix>
</trkpt>
<trkpt lat="40.0716669" lon="-105.2282006">
  <ele>1583.0</ele>
  <time>2026-08-28T17:52:40Z</time>
  <course>58.38</course>
  <speed>4.51896005735833</speed>
  <fix>3d</fix>
</trkpt>
<trkpt lat="40.0716618" lon="-105.2282112">
  <ele>1583.0</ele>
  <time>2026-08-28T17:52:40Z</time>
  <course>57.25</course>
  <speed>4.71</speed>
  <fix>3d</fix>
</trkpt>
<trkpt lat="40.0716691" lon="-105.2281962">
  <ele>1583.0</ele>
  <time>2026-08-28T17:52:40Z</time>
  <course>58.43</course>
  <speed>4.4192533305978285</speed>
  <fix>3d</fix>
</trkpt>
<trkpt lat="40.0716618" lon="-105.2282112">
  <ele>1583.0</ele>
  <time>2026-08-28T17:52:40Z</time>
  <course>57.25</course>
  <speed>4.71</speed>
  <fix>3d</fix>
</trkpt>
<trkpt lat="40.0716712" lon="-105.2281919">
  <ele>1583.0</ele>
  <time>2026-08-28T17:52:40Z</time>
  <course>58.47</course>
  <speed>4.31111354524559</speed>
  <fix>3d</fix>
</trkpt>
<trkpt lat="40.0716664" lon="-105.2282021">
  <ele>1583.0</ele>
  <time>2026-08-28T17:52:40Z</time>
  <course>57.34</course>
  <speed>4.54</speed>
  <fix>3d</fix>
</trkpt>
<trkpt lat="40.0716732" lon="-105.2281877">
  <ele>1583.0</ele>
  <time>2026-08-28T17:52:40Z</time>
  <course>58.51</course>
  <speed>4.194532155079992</speed>
  <fix>3d</fix>
</trkpt>
<trkpt lat="40.0716707" lon="-105.2281933">
  <ele>1583.0</ele>
  <time>2026-08-28T17:52:40Z</time>
  <course>57.44</course>
  <speed>4.34</speed>
  <fix>3d</fix>
</trkpt>
<trkpt lat="40.0716752" lon="-105.2281836">
  <ele>1583.0</ele>
  <time>2026-08-28T17:52:40Z</time>
  <course>58.56</course>
  <speed>4.077952917825315</speed>
  <fix>3d</fix>
</trkpt>
<trkpt lat="40.0716707" lon="-105.2281933">
  <ele>1583.0</ele>
  <time>2026-08-28T17:52:40Z</time>
  <course>57.44</course>
  <speed>4.34</speed>
  <fix>3d</fix>
</trkpt>
<trkpt lat="40.0716772" lon="-105.2281797">
  <ele>1583.0</ele>
  <time>2026-08-28T17:52:40Z</time>
  <course>58.61</course>
  <speed>3.9560080889704965</speed>
  <fix>3d</fix>
</trkpt>
<trkpt lat="40.0716747" lon="-105.2281849">
  <ele>1583.0</ele>
  <time>2026-08-28T17:52:40Z</time>
  <course>57.53</course>
  <speed>4.12</speed>
  <fix>3d</fix>
</trkpt>
<trkpt lat="40.0716791" lon="-105.2281758">
  <ele>1583.0</ele>
  <time>2026-08-28T17:52:40Z</time>
  <course>58.67</course>
  <speed>3.834070943527258</speed>
  <fix>3d</fix>
</trkpt>
<trkpt lat="40.0716747" lon="-105.2281849">
  <ele>1583.0</ele>
  <time>2026-08-28T17:52:40Z</time>
  <course>57.53</course>
  <speed>4.12</speed>
  <fix>3d</fix>
</trkpt>
<trkpt lat="40.0716809" lon="-105.2281721">
  <ele>1583.0</ele>
  <time>2026-08-28T17:52:40Z</time>
  <course>58.72</course>
  <speed>3.7121422386541174</speed>
  <fix>3d</fix>
</trkpt>
<trkpt lat="40.0716786" lon="-105.2281769">
  <ele>1583.0</ele>
  <time>2026-08-28T17:52:40Z</time>
  <course>57.63</course>
  <speed>3.88</speed>
  <fix>3d</fix>
</trkpt>
<trkpt lat="40.0716827" lon="-105.2281684">
  <ele>1583.0</ele>
  <time>2026-08-28T17:52:40Z</time>
  <course>58.77</course>
  <speed>3.581759344232943</speed>
  <fix>3d</fix>
</trkpt>
<trkpt lat="40.0716786" lon="-105.2281769">
  <ele>1583.0</ele>
  <time>2026-08-28T17:52:40Z</time>
  <course>57.63</course>
  <speed>3.88</speed>
  <fix>3d</fix>
</trkpt>
<trkpt lat="40.0716844" lon="-105.2281649">
  <ele>1583.01</ele>
  <time>2026-08-28T17:52:40Z</time>
  <course>58.82</course>
  <speed>3.451376536977674</speed>
  <fix>3d</fix>
</trkpt>
<trkpt lat="40.0716822" lon="-105.2281694">
  <ele>1583.0</ele>
  <time>2026-08-28T17:52:40Z</time>
  <course>57.73</course>
  <speed>3.63</speed>
  <fix>3d</fix>
</trkpt>
<trkpt lat="40.071686" lon="-105.2281615">
  <ele>1583.01</ele>
  <time>2026-08-28T17:52:40Z</time>
  <course>58.87</course>
  <speed>3.320993827154757</speed>
  <fix>3d</fix>
</trkpt>
<trkpt lat="40.0716822" lon="-105.2281694">
  <ele>1583.0</ele>
  <time>2026-08-28T17:52:40Z</time>
  <course>57.73</course>
  <speed>3.63</speed>
  <fix>3d</fix>
</trkpt>
<trkpt lat="40.0716876" lon="-105.2281582">
  <ele>1583.01</ele>
  <time>2026-08-28T17:52:40Z</time>
  <course>58.91</course>
  <speed>3.1990779921721195</speed>
  <fix>3d</fix>
</trkpt>
<trkpt lat="40.0716855" lon="-105.2281625">
  <ele>1583.0</ele>
  <time>2026-08-28T17:52:40Z</time>
  <course>57.83</course>
  <speed>3.37</speed>
  <fix>3d</fix>
</trkpt>
<trkpt lat="40.0716891" lon="-105.2281551">
  <ele>1583.0</ele>
  <time>2026-08-28T17:52:40Z</time>
  <course>58.96</course>
  <speed>3.074020169094536</speed>
  <fix>3d</fix>
</trkpt>
<trkpt lat="40.0716855" lon="-105.2281625">
  <ele>1583.0</ele>
  <time>2026-08-28T17:52:40Z</time>
  <course>57.83</course>
  <speed>3.37</speed>
  <fix>3d</fix>
</trkpt>
<trkpt lat="40.0716906" lon="-105.2281521">
  <ele>1583.0</ele>
  <time>2026-08-28T17:52:40Z</time>
  <course>59.0</course>
  <speed>2.943637205907005</speed>
  <fix>3d</fix>
</trkpt>
<trkpt lat="40.0716886" lon="-105.228156">
  <ele>1583.0</ele>
  <time>2026-08-28T17:52:40Z</time>
  <course>57.91</course>
  <speed>3.12</speed>
  <fix>3d</fix>
</trkpt>
<trkpt lat="40.0716919" lon="-105.2281492">
  <ele>1583.01</ele>
  <time>2026-08-28T17:52:40Z</time>
  <course>59.04</course>
  <speed>2.8217193340231415</speed>
  <fix>3d</fix>
</trkpt>
<trkpt lat="40.0716886" lon="-105.228156">
  <ele>1583.0</ele>
  <time>2026-08-28T17:52:40Z</time>
  <course>57.91</course>
  <speed>3.12</speed>
  <fix>3d</fix>
</trkpt>
<trkpt lat="40.0716933" lon="-105.2281464">
  <ele>1583.01</ele>
  <time>2026-08-28T17:52:40Z</time>
  <course>59.07</course>
  <speed>2.7051247660690256</speed>
  <fix>3d</fix>
</trkpt>
<trkpt lat="40.0716915" lon="-105.2281501">
  <ele>1583.0</ele>
  <time>2026-08-28T17:52:40Z</time>
  <course>58.0</course>
  <speed>2.87</speed>
  <fix>3d</fix>
</trkpt>
<trkpt lat="40.0716945" lon="-105.2281438">
  <ele>1583.01</ele>
  <time>2026-08-28T17:52:40Z</time>
  <course>59.11</course>
  <speed>2.5832150510555643</speed>
  <fix>3d</fix>
</trkpt>
<trkpt lat="40.0716915" lon="-105.2281501">
  <ele>1583.0</ele>
  <time>2026-08-28T17:52:40Z</time>
  <course>58.0</course>
  <speed>2.87</speed>
  <fix>3d</fix>
</trkpt>
<trkpt lat="40.0716957" lon="-105.2281412">
  <ele>1583.01</ele>
  <time>2026-08-28T17:52:40Z</time>
  <course>59.14</course>
  <speed>2.46661711661944</speed>
  <fix>3d</fix>
</trkpt>
<trkpt lat="40.0716915" lon="-105.2281501">
  <ele>1583.0</ele>
  <time>2026-08-28T17:52:40Z</time>
  <course>58.0</course>
  <speed>2.87</speed>
  <fix>3d</fix>
</trkpt>
<trkpt lat="40.0716969" lon="-105.2281388">
  <ele>1583.01</ele>
  <time>2026-08-28T17:52:40Z</time>
  <course>59.18</course>
  <speed>2.344717466988294</speed>
  <fix>3d</fix>
</trkpt>
<trkpt lat="40.0716942" lon="-105.2281446">
  <ele>1583.0</ele>
  <time>2026-08-28T17:52:40Z</time>
  <course>58.07</course>
  <speed>2.63</speed>
  <fix>3d</fix>
</trkpt>
<trkpt lat="40.071698" lon="-105.2281366">
  <ele>1583.01</ele>
  <time>2026-08-28T17:52:40Z</time>
  <course>59.21</course>
  <speed>2.228115795913668</speed>
  <fix>3d</fix>
</trkpt>
<trkpt lat="40.0716942" lon="-105.2281446">
  <ele>1583.0</ele>
  <time>2026-08-28T17:52:40Z</time>
  <course>58.07</course>
  <speed>2.63</speed>
  <fix>3d</fix>
</trkpt>
<trkpt lat="40.071699" lon="-105.2281344">
  <ele>1583.01</ele>
  <time>2026-08-28T17:52:40Z</time>
  <course>59.24</course>
  <speed>2.12</speed>
  <fix>3d</fix>
</trkpt>
<trkpt lat="40.0716965" lon="-105.2281395">
  <ele>1583.0</ele>
  <time>2026-08-28T17:52:40Z</time>
  <course>58.14</course>
  <speed>2.4</speed>
  <fix>3d</fix>
</trkpt>
<trkpt lat="40.0717" lon="-105.2281323">
  <ele>1583.01</ele>
  <time>2026-08-28T17:52:40Z</time>
  <course>59.27</course>
  <speed>2.008706051168264</speed>
  <fix>3d</fix>
</trkpt>
<trkpt lat="40.0716965" lon="-105.2281395">
  <ele>1583.0</ele>
  <time>2026-08-28T17:52:40Z</time>
  <course>58.14</course>
  <speed>2.4</speed>
  <fix>3d</fix>
</trkpt>
<trkpt lat="40.0717009" lon="-105.2281304">
  <ele>1583.01</ele>
  <time>2026-08-28T17:52:40Z</time>
  <course>59.3</course>
  <speed>1.90057885919001</speed>
  <fix>3d</fix>
</trkpt>
<trkpt lat="40.0716987" lon="-105.228135">
  <ele>1583.0</ele>
  <time>2026-08-28T17:52:40Z</time>
  <course>58.2</course>
  <speed>2.18</speed>
  <fix>3d</fix>
</trkpt>
<trkpt lat="40.0717018" lon="-105.2281285">
  <ele>1583.01</ele>
  <time>2026-08-28T17:52:40Z</time>
  <course>59.35</course>
  <speed>1.8009441968034434</speed>
  <fix>3d</fix>
</trkpt>
<trkpt lat="40.0717007" lon="-105.2281309">
  <ele>1583.0</ele>
  <time>2026-08-28T17:52:40Z</time>
  <course>58.27</course>
  <speed>1.97</speed>
  <fix>3d</fix>
</trkpt>
<trkpt lat="40.0717026" lon="-105.2281268">
  <ele>1583.01</ele>
  <time>2026-08-28T17:52:40Z</time>
  <course>59.4</course>
  <speed>1.698116603770189</speed>
  <fix>3d</fix>
</trkpt>
<trkpt lat="40.0717007" lon="-105.2281309">
  <ele>1583.0</ele>
  <time>2026-08-28T17:52:40Z</time>
  <course>58.27</course>
  <speed>1.97</speed>
  <fix>3d</fix>
</trkpt>
<trkpt lat="40.0717034" lon="-105.2281251">
  <ele>1583.01</ele>
  <time>2026-08-28T17:52:40Z</time>
  <course>59.44</course>
  <speed>1.59</speed>
  <fix>3d</fix>
</trkpt>
<trkpt lat="40.0717025" lon="-105.2281271">
  <ele>1583.0</ele>
  <time>2026-08-28T17:52:40Z</time>
  <course>58.36</course>
  <speed>1.76</speed>
  <fix>3d</fix>
</trkpt>
<trkpt lat="40.0717042" lon="-105.2281235">
  <ele>1583.0</ele>
  <time>2026-08-28T17:52:40Z</time>
  <course>59.49</course>
  <speed>1.4956603892595404</speed>
  <fix>3d</fix>
</trkpt>
<trkpt lat="40.0717025" lon="-105.2281271">
  <ele>1583.0</ele>
  <time>2026-08-28T17:52:40Z</time>
  <course>58.36</course>
  <speed>1.76</speed>
  <fix>3d</fix>
</trkpt>
<trkpt lat="40.0717048" lon="-105.2281221">
  <ele>1583.0</ele>
  <time>2026-08-28T17:52:40Z</time>
  <course>59.55</course>
  <speed>1.4013208055259867</speed>
  <fix>3d</fix>
</trkpt>
<trkpt lat="40.071704" lon="-105.2281238">
  <ele>1583.0</ele>
  <time>2026-08-28T17:52:40Z</time>
  <course>58.46</course>
  <speed>1.56</speed>
  <fix>3d</fix>
</trkpt>
<trkpt lat="40.0717055" lon="-105.2281207">
  <ele>1583.0</ele>
  <time>2026-08-28T17:52:40Z</time>
  <course>59.6</course>
  <speed>1.3017296186228537</speed>
  <fix>3d</fix>
</trkpt>
<trkpt lat="40.071704" lon="-105.2281238">
  <ele>1583.0</ele>
  <time>2026-08-28T17:52:40Z</time>
  <course>58.46</course>
  <speed>1.56</speed>
  <fix>3d</fix>
</trkpt>
<trkpt lat="40.0717061" lon="-105.2281194">
  <ele>1582.99</ele>
  <time>2026-08-28T17:52:40Z</time>
  <course>59.68</course>
  <speed>1.1988744721612852</speed>
  <fix>3d</fix>
</trkpt>
<trkpt lat="40.0717054" lon="-105.2281208">
  <ele>1583.0</ele>
  <time>2026-08-28T17:52:40Z</time>
  <course>58.58</course>
  <speed>1.37</speed>
  <fix>3d</fix>
</trkpt>
<trkpt lat="40.0717067" lon="-105.2281182">
  <ele>1582.99</ele>
  <time>2026-08-28T17:52:40Z</time>
  <course>59.76</course>
  <speed>1.104536101718726</speed>
  <fix>3d</fix>
</trkpt>
<trkpt lat="40.0717054" lon="-105.2281208">
  <ele>1583.0</ele>
  <time>2026-08-28T17:52:40Z</time>
  <course>58.58</course>
  <speed>1.37</speed>
  <fix>3d</fix>
</trkpt>
<trkpt lat="40.0717072" lon="-105.2281171">
  <ele>1582.99</ele>
  <time>2026-08-28T17:52:40Z</time>
  <course>59.85</course>
  <speed>1.010198000393982</speed>
  <fix>3d</fix>
</trkpt>
<trkpt lat="40.0717066" lon="-105.2281182">
  <ele>1583.0</ele>
  <time>2026-08-28T17:52:40Z</time>
  <course>58.73</course>
  <speed>1.18</speed>
  <fix>3d</fix>
</trkpt>
<trkpt lat="40.0717076" lon="-105.2281161">
  <ele>1583.0</ele>
  <time>2026-08-28T17:52:40Z</time>
  <course>59.95</course>
  <speed>0.910659101969557</speed>
  <fix>3d</fix>
</trkpt>
<trkpt lat="40.0717066" lon="-105.2281182">
  <ele>1583.0</ele>
  <time>2026-08-28T17:52:40Z</time>
  <course>58.73</course>
  <speed>1.18</speed>
  <fix>3d</fix>
</trkpt>
<trkpt lat="40.071708" lon="-105.2281152">
  <ele>1583.0</ele>
  <time>2026-08-28T17:52:40Z</time>
  <course>60.06</course>
  <speed>0.816333265278342</speed>
  <fix>3d</fix>
</trkpt>
<trkpt lat="40.0717076" lon="-105.2281161">
  <ele>1583.0</ele>
  <time>2026-08-28T17:52:40Z</time>
  <course>58.92</course>
  <speed>0.98</speed>
  <fix>3d</fix>
</trkpt>
<trkpt lat="40.0717084" lon="-105.2281144">
  <ele>1583.0</ele>
  <time>2026-08-28T17:52:40Z</time>
  <course>60.17</course>
  <speed>0.7220110802473879</speed>
  <fix>3d</fix>
</trkpt>
<trkpt lat="40.0717076" lon="-105.2281161">
  <ele>1583.0</ele>
  <time>2026-08-28T17:52:40Z</time>
  <course>58.92</course>
  <speed>0.98</speed>
  <fix>3d</fix>
</trkpt>
<trkpt lat="40.0717087" lon="-105.2281136">
  <ele>1583.0</ele>
  <time>2026-08-28T17:52:40Z</time>
  <course>60.28</course>
  <speed>0.6276941930590086</speed>
  <fix>3d</fix>
</trkpt>
<trkpt lat="40.0717084" lon="-105.2281144">
  <ele>1583.0</ele>
  <time>2026-08-28T17:52:40Z</time>
  <course>59.14</course>
  <speed>0.79</speed>
  <fix>3d</fix>
</trkpt>
<trkpt lat="40.071709" lon="-105.228113">
  <ele>1583.01</ele>
  <time>2026-08-28T17:52:40Z</time>
  <course>60.39</course>
  <speed>0.524785670536077</speed>
  <fix>3d</fix>
</trkpt>
<trkpt lat="40.0717084" lon="-105.2281144">
  <ele>1583.0</ele>
  <time>2026-08-28T17:52:40Z</time>
  <course>59.14</course>
  <speed>0.79</speed>
  <fix>3d</fix>
</trkpt>
<trkpt lat="40.0717092" lon="-105.2281125">
  <ele>1583.01</ele>
  <time>2026-08-28T17:52:40Z</time>
  <course>60.49</course>
  <speed>0.4304648650006177</speed>
  <fix>3d</fix>
</trkpt>
<trkpt lat="40.0717084" lon="-105.2281144">
  <ele>1583.0</ele>
  <time>2026-08-28T17:52:40Z</time>
  <course>59.14</course>
  <speed>0.79</speed>
  <fix>3d</fix>
</trkpt>
<trkpt lat="40.0717094" lon="-105.2281121">
  <ele>1583.01</ele>
  <time>2026-08-28T17:52:40Z</time>
  <course>60.59</course>
  <speed>0.3361547262794322</speed>
  <fix>3d</fix>
</trkpt>
<trkpt lat="40.071709" lon="-105.2281129">
  <ele>1583.0</ele>
  <time>2026-08-28T17:52:40Z</time>
  <course>59.35</course>
  <speed>0.6</speed>
  <fix>3d</fix>
</trkpt>
<trkpt lat="40.0717096" lon="-105.2281118">
  <ele>1583.01</ele>
  <time>2026-08-28T17:52:40Z</time>
  <course>60.67</course>
  <speed>0.24186773244895649</speed>
  <fix>3d</fix>
</trkpt>
<trkpt lat="40.071709" lon="-105.2281129">
  <ele>1583.0</ele>
  <time>2026-08-28T17:52:40Z</time>
  <course>59.35</course>
  <speed>0.6</speed>
  <fix>3d</fix>
</trkpt>
<trkpt lat="40.0717097" lon="-105.2281115">
  <ele>1583.01</ele>
  <time>2026-08-28T17:52:40Z</time>
  <course>60.68</course>
  <speed>0.147648230602334</speed>
  <fix>3d</fix>
</trkpt>
<trkpt lat="40.0717096" lon="-105.2281118">
  <ele>1583.0</ele>
  <time>2026-08-28T17:52:40Z</time>
  <course>59.54</course>
  <speed>0.41</speed>
  <fix>3d</fix>
</trkpt>
<trkpt lat="40.0717097" lon="-105.2281114">
  <ele>1583.01</ele>
  <time>2026-08-28T17:52:40Z</time>
  <course>60.63</course>
  <speed>0.053851648071345036</speed>
  <fix>3d</fix>
</trkpt>
<trkpt lat="40.0717096" lon="-105.2281118">
  <ele>1583.0</ele>
  <time>2026-08-28T17:52:40Z</time>
  <course>59.54</course>
  <speed>0.41</speed>
  <fix>3d</fix>
</trkpt>
<trkpt lat="40.0717098" lon="-105.2281113">
  <ele>1583.01</ele>
  <time>2026-08-28T17:52:40Z</time>
  <course>60.58</course>
  <speed>0.022360679774997897</speed>
  <fix>3d</fix>
</trkpt>
<trkpt lat="40.0717099" lon="-105.2281112">
  <ele>1583.0</ele>
  <time>2026-08-28T17:52:40Z</time>
  <course>59.65</course>
  <speed>0.22</speed>
  <fix>3d</fix>
</trkpt>
<trkpt lat="40.0717097" lon="-105.2281114">
  <ele>1583.01</ele>
  <time>2026-08-28T17:52:40Z</time>
  <course>60.56</course>
  <speed>0.11661903789690602</speed>
  <fix>3d</fix>
</trkpt>
<trkpt lat="40.0717099" lon="-105.2281112">
  <ele>1583.0</ele>
  <time>2026-08-28T17:52:40Z</time>
  <course>59.65</course>
  <speed>0.22</speed>
  <fix>3d</fix>
</trkpt>
<trkpt lat="40.0717097" lon="-105.2281115">
  <ele>1583.01</ele>
  <time>2026-08-28T17:52:40Z</time>
  <course>60.34</course>
  <speed>0.18867962264113206</speed>
  <fix>3d</fix>
</trkpt>
<trkpt lat="40.0717099" lon="-105.228111">
  <ele>1583.0</ele>
  <time>2026-08-28T17:52:40Z</time>
  <course>59.78</course>
  <speed>0.03</speed>
  <fix>3d</fix>
</trkpt>
<trkpt lat="40.0717096" lon="-105.2281116">
  <ele>1583.01</ele>
  <time>2026-08-28T17:52:40Z</time>
  <course>59.91</course>
  <speed>0.23853720883753127</speed>
  <fix>3d</fix>
</trkpt>
<trkpt lat="40.0717099" lon="-105.2281111">
  <ele>1583.0</ele>
  <time>2026-08-28T17:52:40Z</time>
  <course>238.99</course>
  <speed>0.11</speed>
  <fix>3d</fix>
</trkpt>
<trkpt lat="40.0717096" lon="-105.2281118">
  <ele>1583.01</ele>
  <time>2026-08-28T17:52:40Z</time>
  <course>59.24</course>
  <speed>0.2745906043549196</speed>
  <fix>3d</fix>
</trkpt>
<trkpt lat="40.0717099" lon="-105.2281111">
  <ele>1583.0</ele>
  <time>2026-08-28T17:52:40Z</time>
  <course>238.99</course>
  <speed>0.11</speed>
  <fix>3d</fix>
</trkpt>
<trkpt lat="40.0717095" lon="-105.228112">
  <ele>1583.01</ele>
  <time>2026-08-28T17:52:40Z</time>
  <course>58.4</course>
  <speed>0.2884441020371191</speed>
  <fix>3d</fix>
</trkpt>
<trkpt lat="40.0717097" lon="-105.2281113">
  <ele>1583.0</ele>
  <time>2026-08-28T17:52:40Z</time>
  <course>238.0</course>
  <speed>0.2</speed>
  <fix>3d</fix>
</trkpt>
<trkpt lat="40.0717093" lon="-105.2281122">
  <ele>1583.02</ele>
  <time>2026-08-28T17:52:40Z</time>
  <course>57.42</course>
  <speed>0.280178514522438</speed>
  <fix>3d</fix>
</trkpt>
<trkpt lat="40.0717097" lon="-105.2281113">
  <ele>1583.0</ele>
  <time>2026-08-28T17:52:40Z</time>
  <course>238.0</course>
  <speed>0.2</speed>
  <fix>3d</fix>
</trkpt>
<trkpt lat="40.0717092" lon="-105.2281125">
  <ele>1583.02</ele>
  <time>2026-08-28T17:52:40Z</time>
  <course>56.38</course>
  <speed>0.2720294101747089</speed>
  <fix>3d</fix>
</trkpt>
<trkpt lat="40.0717096" lon="-105.2281117">
  <ele>1583.0</ele>
  <time>2026-08-28T17:52:40Z</time>
  <course>236.35</course>
  <speed>0.22</speed>
  <fix>3d</fix>
</trkpt>
<trkpt lat="40.0717091" lon="-105.2281127">
  <ele>1583.01</ele>
  <time>2026-08-28T17:52:40Z</time>
  <course>55.35</course>
  <speed>0.2420743687382041</speed>
  <fix>3d</fix>
</trkpt>
<trkpt lat="40.0717096" lon="-105.2281117">
  <ele>1583.0</ele>
  <time>2026-08-28T17:52:40Z</time>
  <course>236.35</course>
  <speed>0.22</speed>
  <fix>3d</fix>
</trkpt>
<trkpt lat="40.071709" lon="-105.2281128">
  <ele>1583.01</ele>
  <time>2026-08-28T17:52:40Z</time>
  <course>54.41</course>
  <speed>0.20615528128088303</speed>
  <fix>3d</fix>
</trkpt>
<trkpt lat="40.0717095" lon="-105.2281121">
  <ele>1583.0</ele>
  <time>2026-08-28T17:52:40Z</time>
  <course>234.49</course>
  <speed>0.18</speed>
  <fix>3d</fix>
</trkpt>
<trkpt lat="40.0717089" lon="-105.2281129">
  <ele>1583.01</ele>
  <time>2026-08-28T17:52:40Z</time>
  <course>53.65</course>
  <speed>0.16278820596099705</speed>
  <fix>3d</fix>
</trkpt>
<trkpt lat="40.0717095" lon="-105.2281121">
  <ele>1583.0</ele>
  <time>2026-08-28T17:52:40Z</time>
  <course>234.49</course>
  <speed>0.18</speed>
  <fix>3d</fix>
</trkpt>
<trkpt lat="40.0717089" lon="-105.228113">
  <ele>1583.01</ele>
  <time>2026-08-28T17:52:40Z</time>
  <course>53.15</course>
  <speed>0.1063014581273465</speed>
  <fix>3d</fix>
</trkpt>
<trkpt lat="40.0717093" lon="-105.2281123">
  <ele>1583.0</ele>
  <time>2026-08-28T17:52:40Z</time>
  <course>232.99</course>
  <speed>0.1</speed>
  <fix>3d</fix>
</trkpt>
<trkpt lat="40.0717089" lon="-105.228113">
  <ele>1583.0</ele>
  <time>2026-08-28T17:52:40Z</time>
  <course>52.98</course>
  <speed>0.044721359549995794</speed>
  <fix>3d</fix>
</trkpt>
<trkpt lat="40.0717093" lon="-105.2281123">
  <ele>1583.0</ele>
  <time>2026-08-28T17:52:40Z</time>
  <course>232.99</course>
  <speed>0.1</speed>
  <fix>3d</fix>
</trkpt>
<trkpt lat="40.0717089" lon="-105.2281129">
  <ele>1583.0</ele>
  <time>2026-08-28T17:52:40Z</time>
  <course>53.05</course>
  <speed>0.02</speed>
  <fix>3d</fix>
</trkpt>
<trkpt lat="40.0717092" lon="-105.2281125">
  <ele>1583.0</ele>
  <time>2026-08-28T17:52:40Z</time>
  <course>52.3</course>
  <speed>0.0</speed>
  <fix>3d</fix>
</trkpt>
<trkpt lat="40.0717089" lon="-105.2281128">
  <ele>1583.0</ele>
  <time>2026-08-28T17:52:40Z</time>
  <course>52.45</course>
  <speed>0.07615773105863909</speed>
  <fix>3d</fix>
</trkpt>
<trkpt lat="40.0717092" lon="-105.2281125">
  <ele>1583.0</ele>
  <time>2026-08-28T17:52:40Z</time>
  <course>52.3</course>
  <speed>0.0</speed>
  <fix>3d</fix>
</trkpt>
<trkpt lat="40.071709" lon="-105.2281126">
  <ele>1583.0</ele>
  <time>2026-08-28T17:52:40Z</time>
  <course>51.44</course>
  <speed>0.13892443989449804</speed>
  <fix>3d</fix>
</trkpt>
<trkpt lat="40.0717092" lon="-105.2281125">
  <ele>1583.0</ele>
  <time>2026-08-28T17:52:40Z</time>
  <course>52.3</course>
  <speed>0.0</speed>
  <fix>3d</fix>
</trkpt>
<trkpt lat="40.0717091" lon="-105.2281124">
  <ele>1583.0</ele>
  <time>2026-08-28T17:52:40Z</time>
  <course>50.03</course>
  <speed>0.20248456731316586</speed>
  <fix>3d</fix>
</trkpt>
<trkpt lat="40.0717093" lon="-105.2281124">
  <ele>1583.0</ele>
  <time>2026-08-28T17:52:40Z</time>
  <course>50.81</course>
  <speed>0.12</speed>
  <fix>3d</fix>
</trkpt>
<trkpt lat="40.0717092" lon="-105.2281122">
  <ele>1583.0</ele>
  <time>2026-08-28T17:52:40Z</time>
  <course>48.23</course>
  <speed>0.2720294101747089</speed>
  <fix>3d</fix>
</trkpt>
<trkpt lat="40.0717093" lon="-105.2281124">
  <ele>1583.0</ele>
  <time>2026-08-28T17:52:40Z</time>
  <course>50.81</course>
  <speed>0.12</speed>
  <fix>3d</fix>
</trkpt>
<trkpt lat="40.0717094" lon="-105.2281119">
  <ele>1583.0</ele>
  <time>2026-08-28T17:52:40Z</time>
  <course>46.04</course>
  <speed>0.32649655434629016</speed>
  <fix>3d</fix>
</trkpt>
<trkpt lat="40.0717095" lon="-105.2281121">
  <ele>1583.0</ele>
  <time>2026-08-28T17:52:40Z</time>
  <course>48.38</course>
  <speed>0.25</speed>
  <fix>3d</fix>
</trkpt>
<trkpt lat="40.0717097" lon="-105.2281115">
  <ele>1583.0</ele>
  <time>2026-08-28T17:52:40Z</time>
  <course>43.49</course>
  <speed>0.382099463490856</speed>
  <fix>3d</fix>
</trkpt>
<trkpt lat="40.0717095" lon="-105.2281121">
  <ele>1583.0</ele>
  <time>2026-08-28T17:52:40Z</time>
  <course>48.38</course>
  <speed>0.25</speed>
  <fix>3d</fix>
</trkpt>
<trkpt lat="40.07171" lon="-105.2281111">
  <ele>1583.0</ele>
  <time>2026-08-28T17:52:40Z</time>
  <course>40.59</course>
  <speed>0.4386342439892262</speed>
  <fix>3d</fix>
</trkpt>
<trkpt lat="40.0717098" lon="-105.2281116">
  <ele>1583.0</ele>
  <time>2026-08-28T17:52:40Z</time>
  <course>44.42</course>
  <speed>0.37</speed>
  <fix>3d</fix>
</trkpt>
<trkpt lat="40.0717104" lon="-105.2281107">
  <ele>1582.99</ele>
  <time>2026-08-28T17:52:40Z</time>
  <course>37.35</course>
  <speed>0.49040799340956914</speed>
  <fix>3d</fix>
</trkpt>
<trkpt lat="40.0717098" lon="-105.2281116">
  <ele>1583.0</ele>
  <time>2026-08-28T17:52:40Z</time>
  <course>44.42</course>
  <speed>0.37</speed>
  <fix>3d</fix>
</trkpt>
<trkpt lat="40.0717108" lon="-105.2281103">
  <ele>1582.99</ele>
  <time>2026-08-28T17:52:40Z</time>
  <course>33.78</course>
  <speed>0.5382378656319156</speed>
  <fix>3d</fix>
</trkpt>
<trkpt lat="40.0717104" lon="-105.2281109">
  <ele>1583.0</ele>
  <time>2026-08-28T17:52:40Z</time>
  <course>39.01</course>
  <speed>0.48</speed>
  <fix>3d</fix>
</trkpt>
<trkpt lat="40.0717113" lon="-105.2281099">
  <ele>1582.99</ele>
  <time>2026-08-28T17:52:40Z</time>
  <course>29.95</course>
  <speed>0.5883026432033092</speed>
  <fix>3d</fix>
</trkpt>
<trkpt lat="40.0717111" lon="-105.2281102">
  <ele>1583.0</ele>
  <time>2026-08-28T17:52:40Z</time>
  <course>32.29</course>
  <speed>0.57</speed>
  <fix>3d</fix>
</trkpt>
<trkpt lat="40.0717118" lon="-105.2281096">
  <ele>1583.0</ele>
  <time>2026-08-28T17:52:40Z</time>
  <course>26.01</course>
  <speed>0.6306346010171024</speed>
  <fix>3d</fix>
</trkpt>
<trkpt lat="40.0717111" lon="-105.2281102">
  <ele>1583.0</ele>
  <time>2026-08-28T17:52:40Z</time>
  <course>32.29</course>
  <speed>0.57</speed>
  <fix>3d</fix>
</trkpt>
<trkpt lat="40.0717124" lon="-105.2281092">
  <ele>1583.0</ele>
  <time>2026-08-28T17:52:40Z</time>
  <course>22.08</course>
  <speed>0.6723094525588644</speed>
  <fix>3d</fix>
</trkpt>
<trkpt lat="40.0717121" lon="-105.2281095">
  <ele>1583.0</ele>
  <time>2026-08-28T17:52:40Z</time>
  <course>24.7</course>
  <speed>0.66</speed>
  <fix>3d</fix>
</trkpt>
<trkpt lat="40.071713" lon="-105.2281089">
  <ele>1583.0</ele>
  <time>2026-08-28T17:52:40Z</time>
  <course>18.13</course>
  <speed>0.7178439941937245</speed>
  <fix>3d</fix>
</trkpt>
<trkpt lat="40.0717121" lon="-105.2281095">
  <ele>1583.0</ele>
  <time>2026-08-28T17:52:40Z</time>
  <course>24.7</course>
  <speed>0.66</speed>
  <fix>3d</fix>
</trkpt>
<trkpt lat="40.0717137" lon="-105.2281087">
  <ele>1583.0</ele>
  <time>2026-08-28T17:52:40Z</time>
  <course>14.26</course>
  <speed>0.7543208866258443</speed>
  <fix>3d</fix>
</trkpt>
<trkpt lat="40.0717133" lon="-105.2281089">
  <ele>1583.0</ele>
  <time>2026-08-28T17:52:40Z</time>
  <course>16.88</course>
  <speed>0.75</speed>
  <fix>3d</fix>
</trkpt>
<trkpt lat="40.0717145" lon="-105.2281085">
  <ele>1583.0</ele>
  <time>2026-08-28T17:52:40Z</time>
  <course>10.51</course>
  <speed>0.804114419718985</speed>
  <fix>3d</fix>
</trkpt>
<trkpt lat="40.0717133" lon="-105.2281089">
  <ele>1583.0</ele>
  <time>2026-08-28T17:52:40Z</time>
  <course>16.88</course>
  <speed>0.75</speed>
  <fix>3d</fix>
</trkpt>
<trkpt lat="40.0717152" lon="-105.2281083">
  <ele>1583.0</ele>
  <time>2026-08-28T17:52:40Z</time>
  <course>6.93</course>
  <speed>0.845931439302264</speed>
  <fix>3d</fix>
</trkpt>
<trkpt lat="40.0717147" lon="-105.2281085">
  <ele>1583.0</ele>
  <time>2026-08-28T17:52:40Z</time>
  <course>9.35</course>
  <speed>0.83</speed>
  <fix>3d</fix>
</trkpt>
<trkpt lat="40.0717161" lon="-105.2281082">
  <ele>1583.0</ele>
  <time>2026-08-28T17:52:40Z</time>
  <course>3.54</course>
  <speed>0.891403387922662</speed>
  <fix>3d</fix>
</trkpt>
<trkpt lat="40.0717147" lon="-105.2281085">
  <ele>1583.0</ele>
  <time>2026-08-28T17:52:40Z</time>
  <course>9.35</course>
  <speed>0.83</speed>
  <fix>3d</fix>
</trkpt>
<trkpt lat="40.071717" lon="-105.2281082">
  <ele>1583.0</ele>
  <time>2026-08-28T17:52:40Z</time>
  <course>0.43</course>
  <speed>0.94</speed>
  <fix>3d</fix>
</trkpt>
<trkpt lat="40.0717163" lon="-105.2281083">
  <ele>1583.0</ele>
  <time>2026-08-28T17:52:40Z</time>
  <course>2.49</course>
  <speed>0.92</speed>
  <fix>3d</fix>
</trkpt>
<trkpt lat="40.0717179" lon="-105.2281082">
  <ele>1583.0</ele>
  <time>2026-08-28T17:52:40Z</time>
  <course>357.62</course>
  <speed>1.0007996802557444</speed>
  <fix>3d</fix>
</trkpt>
<trkpt lat="40.0717163" lon="-105.2281083">
  <ele>1583.0</ele>
  <time>2026-08-28T17:52:40Z</time>
  <course>2.49</course>
  <speed>0.92</speed>
  <fix>3d</fix>
</trkpt>
<trkpt lat="40.0717189" lon="-105.2281083">
  <ele>1583.0</ele>
  <time>2026-08-28T17:52:40Z</time>
  <course>355.3</course>
  <speed>1.0538500842150178</speed>
  <fix>3d</fix>
</trkpt>
<trkpt lat="40.0717181" lon="-105.2281083">
  <ele>1583.0</ele>
  <time>2026-08-28T17:52:40Z</time>
  <course>356.73</course>
  <speed>1.02</speed>
  <fix>3d</fix>
</trkpt>
<trkpt lat="40.0717199" lon="-105.2281085">
  <ele>1583.0</ele>
  <time>2026-08-28T17:52:40Z</time>
  <course>353.42</course>
  <speed>1.1076551810017412</speed>
  <fix>3d</fix>
</trkpt>
<trkpt lat="40.0717181" lon="-105.2281083">
  <ele>1583.0</ele>
  <time>2026-08-28T17:52:40Z</time>
  <course>356.73</course>
  <speed>1.02</speed>
  <fix>3d</fix>
</trkpt>
<trkpt lat="40.071721" lon="-105.2281087">
  <ele>1583.0</ele>
  <time>2026-08-28T17:52:40Z</time>
  <course>351.88</course>
  <speed>1.1723907198540937</speed>
  <fix>3d</fix>
</trkpt>
<trkpt lat="40.07172" lon="-105.2281085">
  <ele>1583.0</ele>
  <time>2026-08-28T17:52:40Z</time>
  <course>352.51</course>
  <speed>1.14</speed>
  <fix>3d</fix>
</trkpt>
<trkpt lat="40.0717221" lon="-105.2281088">
  <ele>1582.99</ele>
  <time>2026-08-28T17:52:40Z</time>
  <course>350.62</course>
  <speed>1.2379418403139946</speed>
  <fix>3d</fix>
</trkpt>
<trkpt lat="40.07172" lon="-105.2281085">
  <ele>1583.0</ele>
  <time>2026-08-28T17:52:40Z</time>
  <course>352.51</course>
  <speed>1.14</speed>
  <fix>3d</fix>
</trkpt>
<trkpt lat="40.0717233" lon="-105.2281091">
  <ele>1582.99</ele>
  <time>2026-08-28T17:52:40Z</time>
  <course>349.59</course>
  <speed>1.3121356637177422</speed>
  <fix>3d</fix>
</trkpt>
<trkpt lat="40.07172" lon="-105.2281085">
  <ele>1583.0</ele>
  <time>2026-08-28T17:52:40Z</time>
  <course>352.51</course>
  <speed>1.14</speed>
  <fix>3d</fix>
</trkpt>
<trkpt lat="40.0717245" lon="-105.2281095">
  <ele>1582.99</ele>
  <time>2026-08-28T17:52:40Z</time>
  <course>348.75</course>
  <speed>1.3865424623862048</speed>
  <fix>3d</fix>
</trkpt>
<trkpt lat="40.0717221" lon="-105.2281089">
  <ele>1583.0</ele>
  <time>2026-08-28T17:52:40Z</time>
  <course>349.7</course>
  <speed>1.26</speed>
  <fix>3d</fix>
</trkpt>
<trkpt lat="40.0717258" lon="-105.2281098">
  <ele>1582.99</ele>
  <time>2026-08-28T17:52:40Z</time>
  <course>348.05</course>
  <speed>1.4632156368765337</speed>
  <fix>3d</fix>
</trkpt>
<trkpt lat="40.0717221" lon="-105.2281089">
  <ele>1583.0</ele>
  <time>2026-08-28T17:52:40Z</time>
  <course>349.7</course>
  <speed>1.26</speed>
  <fix>3d</fix>
</trkpt>
<trkpt lat="40.0717271" lon="-105.2281102">
  <ele>1582.99</ele>
  <time>2026-08-28T17:52:40Z</time>
  <course>347.48</course>
  <speed>1.5380507143784303</speed>
  <fix>3d</fix>
</trkpt>
<trkpt lat="40.0717245" lon="-105.2281095">
  <ele>1583.0</ele>
  <time>2026-08-28T17:52:40Z</time>
  <course>347.81</course>
  <speed>1.4</speed>
  <fix>3d</fix>
</trkpt>
<trkpt lat="40.0717286" lon="-105.2281107">
  <ele>1582.99</ele>
  <time>2026-08-28T17:52:40Z</time>
  <course>347.0</course>
  <speed>1.6227445886522005</speed>
  <fix>3d</fix>
</trkpt>
<trkpt lat="40.0717245" lon="-105.2281095">
  <ele>1583.0</ele>
  <time>2026-08-28T17:52:40Z</time>
  <course>347.81</course>
  <speed>1.4</speed>
  <fix>3d</fix>
</trkpt>
<trkpt lat="40.07173" lon="-105.2281111">
  <ele>1582.99</ele>
  <time>2026-08-28T17:52:40Z</time>
  <course>346.6</course>
  <speed>1.7075128110793196</speed>
  <fix>3d</fix>
</trkpt>
<trkpt lat="40.0717271" lon="-105.2281103">
  <ele>1583.0</ele>
  <time>2026-08-28T17:52:40Z</time>
  <course>346.54</course>
  <speed>1.56</speed>
  <fix>3d</fix>
</trkpt>
<trkpt lat="40.0717316" lon="-105.2281117">
  <ele>1583.0</ele>
  <time>2026-08-28T17:52:40Z</time>
  <course>346.27</course>
  <speed>1.7923448328934921</speed>
  <fix>3d</fix>
</trkpt>
<trkpt lat="40.07173" lon="-105.2281113">
  <ele>1583.0</ele>
  <time>2026-08-28T17:52:40Z</time>
  <course>345.67</course>
  <speed>1.72</speed>
  <fix>3d</fix>
</trkpt>
<trkpt lat="40.0717333" lon="-105.2281122">
  <ele>1583.0</ele>
  <time>2026-08-28T17:52:40Z</time>
  <course>346.0</course>
  <speed>1.8869287214942698</speed>
  <fix>3d</fix>
</trkpt>
<trkpt lat="40.07173" lon="-105.2281113">
  <ele>1583.0</ele>
  <time>2026-08-28T17:52:40Z</time>
  <course>345.67</course>
  <speed>1.72</speed>
  <fix>3d</fix>
</trkpt>
<trkpt lat="40.071735" lon="-105.2281128">
  <ele>1583.0</ele>
  <time>2026-08-28T17:52:40Z</time>
  <course>345.78</course>
  <speed>1.9815398053029367</speed>
  <fix>3d</fix>
</trkpt>
<trkpt lat="40.0717331" lon="-105.2281123">
  <ele>1583.0</ele>
  <time>2026-08-28T17:52:40Z</time>
  <course>345.08</course>
  <speed>1.9</speed>
  <fix>3d</fix>
</trkpt>
<trkpt lat="40.0717368" lon="-105.2281135">
  <ele>1583.0</ele>
  <time>2026-08-28T17:52:40Z</time>
  <course>345.6</course>
  <speed>2.088372572124045</speed>
  <fix>3d</fix>
</trkpt>
<trkpt lat="40.0717331" lon="-105.2281123">
  <ele>1583.0</ele>
  <time>2026-08-28T17:52:40Z</time>
  <course>345.08</course>
  <speed>1.9</speed>
  <fix>3d</fix>
</trkpt>
<trkpt lat="40.0717387" lon="-105.2281141">
  <ele>1583.0</ele>
  <time>2026-08-28T17:52:40Z</time>
  <course>345.45</course>
  <speed>2.1830483274540673</speed>
  <fix>3d</fix>
</trkpt>
<trkpt lat="40.0717366" lon="-105.2281135">
  <ele>1583.0</ele>
  <time>2026-08-28T17:52:40Z</time>
  <course>344.68</course>
  <speed>2.09</speed>
  <fix>3d</fix>
</trkpt>
<trkpt lat="40.0717407" lon="-105.2281148">
  <ele>1583.0</ele>
  <time>2026-08-28T17:52:40Z</time>
  <course>345.34</course>
  <speed>2.2874002710500845</speed>
  <fix>3d</fix>
</trkpt>
<trkpt lat="40.0717366" lon="-105.2281135">
  <ele>1583.0</ele>
  <time>2026-08-28T17:52:40Z</time>
  <course>344.68</course>
  <speed>2.09</speed>
  <fix>3d</fix>
</trkpt>
<trkpt lat="40.0717428" lon="-105.2281156">
  <ele>1583.0</ele>
  <time>2026-08-28T17:52:40Z</time>
  <course>345.25</course>
  <speed>2.391756676587315</speed>
  <fix>3d</fix>
</trkpt>
<trkpt lat="40.0717404" lon="-105.2281149">
  <ele>1583.0</ele>
  <time>2026-08-28T17:52:40Z</time>
  <course>344.43</course>
  <speed>2.29</speed>
  <fix>3d</fix>
</trkpt>
<trkpt lat="40.071745" lon="-105.2281164">
  <ele>1583.0</ele>
  <time>2026-08-28T17:52:40Z</time>
  <course>345.17</course>
  <speed>2.496116984438029</speed>
  <fix>3d</fix>
</trkpt>
<trkpt lat="40.0717404" lon="-105.2281149">
  <ele>1583.0</ele>
  <time>2026-08-28T17:52:40Z</time>
  <course>344.43</course>
  <speed>2.29</speed>
  <fix>3d</fix>
</trkpt>
<trkpt lat="40.0717472" lon="-105.2281172">
  <ele>1583.0</ele>
  <time>2026-08-28T17:52:40Z</time>
  <course>345.13</course>
  <speed>2.600480724789169</speed>
  <fix>3d</fix>
</trkpt>
<trkpt lat="40.0717446" lon="-105.2281165">
  <ele>1583.0</ele>
  <time>2026-08-28T17:52:40Z</time>
  <course>344.28</course>
  <speed>2.49</speed>
  <fix>3d</fix>
</trkpt>
<trkpt lat="40.0717496" lon="-105.2281181">
  <ele>1583.0</ele>
  <time>2026-08-28T17:52:40Z</time>
  <course>345.09</course>
  <speed>2.7048475003223382</speed>
  <fix>3d</fix>
</trkpt>
<trkpt lat="40.0717446" lon="-105.2281165">
  <ele>1583.0</ele>
  <time>2026-08-28T17:52:40Z</time>
  <course>344.28</course>
  <speed>2.49</speed>
  <fix>3d</fix>
</trkpt>
<trkpt lat="40.071752" lon="-105.2281189">
  <ele>1583.0</ele>
  <time>2026-08-28T17:52:40Z</time>
  <course>345.07</course>
  <speed>2.8065993657805883</speed>
  <fix>3d</fix>
</trkpt>
<trkpt lat="40.0717491" lon="-105.2281181">
  <ele>1583.0</ele>
  <time>2026-08-28T17:52:40Z</time>
  <course>344.21</course>
  <speed>2.7</speed>
  <fix>3d</fix>
</trkpt>
<trkpt lat="40.0717545" lon="-105.2281199">
  <ele>1583.01</ele>
  <time>2026-08-28T17:52:40Z</time>
  <course>345.07</course>
  <speed>2.910962040288399</speed>
  <fix>3d</fix>
</trkpt>
<trkpt lat="40.0717491" lon="-105.2281181">
  <ele>1583.0</ele>
  <time>2026-08-28T17:52:40Z</time>
  <course>344.21</course>
  <speed>2.7</speed>
  <fix>3d</fix>
</trkpt>
<trkpt lat="40.0717572" lon="-105.2281208">
  <ele>1583.01</ele>
  <time>2026-08-28T17:52:40Z</time>
  <course>345.06</course>
  <speed>3.0153275112332323</speed>
  <fix>3d</fix>
</trkpt>
<trkpt lat="40.0717539" lon="-105.2281199">
  <ele>1583.0</ele>
  <time>2026-08-28T17:52:40Z</time>
  <course>344.19</course>
  <speed>2.9</speed>
  <fix>3d</fix>
</trkpt>
<trkpt lat="40.0717599" lon="-105.2281218">
  <ele>1583.01</ele>
  <time>2026-08-28T17:52:40Z</time>
  <course>345.06</course>
  <speed>3.1293449793846633</speed>
  <fix>3d</fix>
</trkpt>
<trkpt lat="40.0717539" lon="-105.2281199">
  <ele>1583.0</ele>
  <time>2026-08-28T17:52:40Z</time>
  <course>344.19</course>
  <speed>2.9</speed>
  <fix>3d</fix>
</trkpt>
<trkpt lat="40.0717627" lon="-105.2281228">
  <ele>1583.01</ele>
  <time>2026-08-28T17:52:40Z</time>
  <course>345.05</course>
  <speed>3.233713036124263</speed>
  <fix>3d</fix>
</trkpt>
<trkpt lat="40.0717539" lon="-105.2281199">
  <ele>1583.0</ele>
  <time>2026-08-28T17:52:40Z</time>
  <course>344.19</course>
  <speed>2.9</speed>
  <fix>3d</fix>
</trkpt>
<trkpt lat="40.0717655" lon="-105.2281239">
  <ele>1583.01</ele>
  <time>2026-08-28T17:52:40Z</time>
  <course>345.05</course>
  <speed>3.3258081724597406</speed>
  <fix>3d</fix>
</trkpt>
<trkpt lat="40.071759" lon="-105.2281218">
  <ele>1583.0</ele>
  <time>2026-08-28T17:52:40Z</time>
  <course>344.19</course>
  <speed>3.11</speed>
  <fix>3d</fix>
</trkpt>
<trkpt lat="40.0717684" lon="-105.228125">
  <ele>1583.01</ele>
  <time>2026-08-28T17:52:40Z</time>
  <course>345.05</course>
  <speed>3.430174922653362</speed>
  <fix>3d</fix>
</trkpt>
<trkpt lat="40.071759" lon="-105.2281218">
  <ele>1583.0</ele>
  <time>2026-08-28T17:52:40Z</time>
  <course>344.19</course>
  <speed>3.11</speed>
  <fix>3d</fix>
</trkpt>
<trkpt lat="40.0717714" lon="-105.2281261">
  <ele>1583.01</ele>
  <time>2026-08-28T17:52:40Z</time>
  <course>345.05</course>
  <speed>3.534543817807328</speed>
  <fix>3d</fix>
</trkpt>
<trkpt lat="40.0717647" lon="-105.2281238">
  <ele>1583.0</ele>
  <time>2026-08-28T17:52:40Z</time>
  <course>344.19</course>
  <speed>3.31</speed>
  <fix>3d</fix>
</trkpt>
<trkpt lat="40.0717745" lon="-105.2281272">
  <ele>1583.02</ele>
  <time>2026-08-28T17:52:40Z</time>
  <course>345.05</course>
  <speed>3.638914673360726</speed>
  <fix>3d</fix>
</trkpt>
<trkpt lat="40.0717647" lon="-105.2281238">
  <ele>1583.0</ele>
  <time>2026-08-28T17:52:40Z</time>
  <course>344.19</course>
  <speed>3.31</speed>
  <fix>3d</fix>
</trkpt>
<trkpt lat="40.0717777" lon="-105.2281284">
  <ele>1583.02</ele>
  <time>2026-08-28T17:52:40Z</time>
  <course>345.08</course>
  <speed>3.740655022853618</speed>
  <fix>3d</fix>
</trkpt>
<trkpt lat="40.0717706" lon="-105.2281261">
  <ele>1583.0</ele>
  <time>2026-08-28T17:52:40Z</time>
  <course>344.19</course>
  <speed>3.52</speed>
  <fix>3d</fix>
</trkpt>
<trkpt lat="40.071781" lon="-105.2281296">
  <ele>1583.02</ele>
  <time>2026-08-28T17:52:40Z</time>
  <course>345.11</course>
  <speed>3.8450227567597044</speed>
  <fix>3d</fix>
</trkpt>
<trkpt lat="40.0717706" lon="-105.2281261">
  <ele>1583.0</ele>
  <time>2026-08-28T17:52:40Z</time>
  <course>344.19</course>
  <speed>3.52</speed>
  <fix>3d</fix>
</trkpt>
<trkpt lat="40.0717844" lon="-105.2281308">
  <ele>1583.02</ele>
  <time>2026-08-28T17:52:40Z</time>
  <course>345.14</course>
  <speed>3.9371182354610585</speed>
  <fix>3d</fix>
</trkpt>
<trkpt lat="40.0717769" lon="-105.2281283">
  <ele>1583.0</ele>
  <time>2026-08-28T17:52:40Z</time>
  <course>344.22</course>
  <speed>3.72</speed>
  <fix>3d</fix>
</trkpt>
<trkpt lat="40.0717878" lon="-105.2281321">
  <ele>1583.03</ele>
  <time>2026-08-28T17:52:40Z</time>
  <course>345.19</course>
  <speed>4.041484875636677</speed>
  <fix>3d</fix>
</trkpt>
<trkpt lat="40.0717834" lon="-105.2281308">
  <ele>1583.0</ele>
  <time>2026-08-28T17:52:40Z</time>
  <course>344.29</course>
  <speed>3.93</speed>
  <fix>3d</fix>
</trkpt>
<trkpt lat="40.0717914" lon="-105.2281334">
  <ele>1583.03</ele>
  <time>2026-08-28T17:52:40Z</time>
  <course>345.23</course>
  <speed>4.143235450707575</speed>
  <fix>3d</fix>
</trkpt>
<trkpt lat="40.0717834" lon="-105.2281308">
  <ele>1583.0</ele>
  <time>2026-08-28T17:52:40Z</time>
  <course>344.29</course>
  <speed>3.93</speed>
  <fix>3d</fix>
</trkpt>
<trkpt lat="40.071795" lon="-105.2281347">
  <ele>1583.03</ele>
  <time>2026-08-28T17:52:40Z</time>
  <course>345.27</course>
  <speed>4.244997055358225</speed>
  <fix>3d</fix>
</trkpt>
<trkpt lat="40.0717905" lon="-105.2281333">
  <ele>1583.0</ele>
  <time>2026-08-28T17:52:40Z</time>
  <course>344.38</course>
  <speed>4.13</speed>
  <fix>3d</fix>
</trkpt>
<trkpt lat="40.0717988" lon="-105.2281361">
  <ele>1583.03</ele>
  <time>2026-08-28T17:52:40Z</time>
  <course>345.3</course>
  <speed>4.349356274208862</speed>
  <fix>3d</fix>
</trkpt>
<trkpt lat="40.0717905" lon="-105.2281333">
  <ele>1583.0</ele>
  <time>2026-08-28T17:52:40Z</time>
  <course>344.38</course>
  <speed>4.13</speed>
  <fix>3d</fix>
</trkpt>
<trkpt lat="40.0718026" lon="-105.2281374">
  <ele>1583.03</ele>
  <time>2026-08-28T17:52:40Z</time>
  <course>345.33</course>
  <speed>4.451123453691213</speed>
  <fix>3d</fix>
</trkpt>
<trkpt lat="40.0717978" lon="-105.228136">
  <ele>1583.0</ele>
  <time>2026-08-28T17:52:40Z</time>
  <course>344.46</course>
  <speed>4.33</speed>
  <fix>3d</fix>
</trkpt>
<trkpt lat="40.0718066" lon="-105.2281389">
  <ele>1583.03</ele>
  <time>2026-08-28T17:52:40Z</time>
  <course>345.36</course>
  <speed>4.55548021617919</speed>
  <fix>3d</fix>
</trkpt>
<trkpt lat="40.0717978" lon="-105.228136">
  <ele>1583.0</ele>
  <time>2026-08-28T17:52:40Z</time>
  <course>344.46</course>
  <speed>4.33</speed>
  <fix>3d</fix>
</trkpt>
<trkpt lat="40.0718106" lon="-105.2281403">
  <ele>1583.03</ele>
  <time>2026-08-28T17:52:40Z</time>
  <course>345.4</course>
  <speed>4.657252408878008</speed>
  <fix>3d</fix>
</trkpt>
<trkpt lat="40.0718054" lon="-105.2281388">
  <ele>1583.0</ele>
  <time>2026-08-28T17:52:40Z</time>
  <course>344.53</course>
  <speed>4.53</speed>
  <fix>3d</fix>
</trkpt>
<trkpt lat="40.0718148" lon="-105.2281418">
  <ele>1583.03</ele>
  <time>2026-08-28T17:52:40Z</time>
  <course>345.43</course>
  <speed>4.751946969401068</speed>
  <fix>3d</fix>
</trkpt>
<trkpt lat="40.0718054" lon="-105.2281388">
  <ele>1583.0</ele>
  <time>2026-08-28T17:52:40Z</time>
  <course>344.53</course>
  <speed>4.53</speed>
  <fix>3d</fix>
</trkpt>
<trkpt lat="40.071819" lon="-105.2281433">
  <ele>1583.03</ele>
  <time>2026-08-28T17:52:40Z</time>
  <course>345.47</course>
  <speed>4.844058216000299</speed>
  <fix>3d</fix>
</trkpt>
<trkpt lat="40.0718135" lon="-105.2281417">
  <ele>1583.0</ele>
  <time>2026-08-28T17:52:40Z</time>
  <course>344.61</course>
  <speed>4.73</speed>
  <fix>3d</fix>
</trkpt>
<trkpt lat="40.0718232" lon="-105.2281448">
  <ele>1583.03</ele>
  <time>2026-08-28T17:52:40Z</time>
  <course>345.49</course>
  <speed>4.926509920826304</speed>
  <fix>3d</fix>
</trkpt>
<trkpt lat="40.0718135" lon="-105.2281417">
  <ele>1583.0</ele>
  <time>2026-08-28T17:52:40Z</time>
  <course>344.61</course>
  <speed>4.73</speed>
  <fix>3d</fix>
</trkpt>
<trkpt lat="40.0718276" lon="-105.2281464">
  <ele>1583.03</ele>
  <time>2026-08-28T17:52:40Z</time>
  <course>345.5</course>
  <speed>5.008961968312397</speed>
  <fix>3d</fix>
</trkpt>
<trkpt lat="40.0718218" lon="-105.2281447">
  <ele>1583.0</ele>
  <time>2026-08-28T17:52:40Z</time>
  <course>344.67</course>
  <speed>4.9</speed>
  <fix>3d</fix>
</trkpt>
<trkpt lat="40.071832" lon="-105.228148">
  <ele>1583.03</ele>
  <time>2026-08-28T17:52:40Z</time>
  <course>345.55</course>
  <speed>5.079183005169237</speed>
  <fix>3d</fix>
</trkpt>
<trkpt lat="40.0718218" lon="-105.2281447">
  <ele>1583.0</ele>
  <time>2026-08-28T17:52:40Z</time>
  <course>344.67</course>
  <speed>4.9</speed>
  <fix>3d</fix>
</trkpt>
<trkpt lat="40.0718364" lon="-105.2281496">
  <ele>1583.03</ele>
  <time>2026-08-28T17:52:40Z</time>
  <course>345.58</course>
  <speed>5.13264064590538</speed>
  <fix>3d</fix>
</trkpt>
<trkpt lat="40.0718305" lon="-105.2281478">
  <ele>1583.0</ele>
  <time>2026-08-28T17:52:40Z</time>
  <course>344.73</course>
  <speed>5.04</speed>
  <fix>3d</fix>
</trkpt>
<trkpt lat="40.0718409" lon="-105.2281512">
  <ele>1583.03</ele>
  <time>2026-08-28T17:52:40Z</time>
  <course>345.6</course>
  <speed>5.183531614642666</speed>
  <fix>3d</fix>
</trkpt>
<trkpt lat="40.0718305" lon="-105.2281478">
  <ele>1583.0</ele>
  <time>2026-08-28T17:52:40Z</time>
  <course>344.73</course>
  <speed>5.04</speed>
  <fix>3d</fix>
</trkpt>
<trkpt lat="40.0718455" lon="-105.2281528">
  <ele>1583.03</ele>
  <time>2026-08-28T17:52:40Z</time>
  <course>345.66</course>
  <speed>5.22220260043595</speed>
  <fix>3d</fix>
</trkpt>
<trkpt lat="40.0718305" lon="-105.2281478">
  <ele>1583.0</ele>
  <time>2026-08-28T17:52:40Z</time>
  <course>344.73</course>
  <speed>5.04</speed>
  <fix>3d</fix>
</trkpt>
<trkpt lat="40.07185" lon="-105.2281544">
  <ele>1583.03</ele>
  <time>2026-08-28T17:52:40Z</time>
  <course>345.67</course>
  <speed>5.244091913763526</speed>
  <fix>3d</fix>
</trkpt>
<trkpt lat="40.0718393" lon="-105.228151">
  <ele>1583.0</ele>
  <time>2026-08-28T17:52:40Z</time>
  <course>344.81</course>
  <speed>5.14</speed>
  <fix>3d</fix>
</trkpt>
<trkpt lat="40.0718545" lon="-105.228156">
  <ele>1583.03</ele>
  <time>2026-08-28T17:52:40Z</time>
  <course>345.73</course>
  <speed>5.253760557924199</speed>
  <fix>3d</fix>
</trkpt>
<trkpt lat="40.0718393" lon="-105.228151">
  <ele>1583.0</ele>
  <time>2026-08-28T17:52:40Z</time>
  <course>344.81</course>
  <speed>5.14</speed>
  <fix>3d</fix>
</trkpt>
<trkpt lat="40.071859" lon="-105.2281576">
  <ele>1583.03</ele>
  <time>2026-08-28T17:52:40Z</time>
  <course>345.77</course>
  <speed>5.253760557924199</speed>
  <fix>3d</fix>
</trkpt>
<trkpt lat="40.0718483" lon="-105.2281542">
  <ele>1583.0</ele>
  <time>2026-08-28T17:52:40Z</time>
  <course>344.89</course>
  <speed>5.2</speed>
  <fix>3d</fix>
</trkpt>
<trkpt lat="40.0718635" lon="-105.2281592">
  <ele>1583.03</ele>
  <time>2026-08-28T17:52:40Z</time>
  <course>345.8</course>
  <speed>5.241545573588004</speed>
  <fix>3d</fix>
</trkpt>
<trkpt lat="40.0718483" lon="-105.2281542">
  <ele>1583.0</ele>
  <time>2026-08-28T17:52:40Z</time>
  <course>344.89</course>
  <speed>5.2</speed>
  <fix>3d</fix>
</trkpt>
<trkpt lat="40.071868" lon="-105.2281607">
  <ele>1583.03</ele>
  <time>2026-08-28T17:52:40Z</time>
  <course>345.87</course>
  <speed>5.231873469418006</speed>
  <fix>3d</fix>
</trkpt>
<trkpt lat="40.0718574" lon="-105.2281573">
  <ele>1583.0</ele>
  <time>2026-08-28T17:52:40Z</time>
  <course>344.96</course>
  <speed>5.22</speed>
  <fix>3d</fix>
</trkpt>
<trkpt lat="40.0718725" lon="-105.2281623">
  <ele>1583.03</ele>
  <time>2026-08-28T17:52:40Z</time>
  <course>345.92</course>
  <speed>5.209990403062178</speed>
  <fix>3d</fix>
</trkpt>
<trkpt lat="40.0718665" lon="-105.2281605">
  <ele>1583.0</ele>
  <time>2026-08-28T17:52:40Z</time>
  <course>345.05</course>
  <speed>5.21</speed>
  <fix>3d</fix>
</trkpt>
<trkpt lat="40.071877" lon="-105.2281639">
  <ele>1583.03</ele>
  <time>2026-08-28T17:52:40Z</time>
  <course>345.96</course>
  <speed>5.188111409752107</speed>
  <fix>3d</fix>
</trkpt>
<trkpt lat="40.0718665" lon="-105.2281605">
  <ele>1583.0</ele>
  <time>2026-08-28T17:52:40Z</time>
  <course>345.05</course>
  <speed>5.21</speed>
  <fix>3d</fix>
</trkpt>
<trkpt lat="40.0718815" lon="-105.2281654">
  <ele>1583.03</ele>
  <time>2026-08-28T17:52:40Z</time>
  <course>346.01</course>
  <speed>5.1565589301393615</speed>
  <fix>3d</fix>
</trkpt>
<trkpt lat="40.0718755" lon="-105.2281636">
  <ele>1583.0</ele>
  <time>2026-08-28T17:52:40Z</time>
  <course>345.15</course>
  <speed>5.17</speed>
  <fix>3d</fix>
</trkpt>
<trkpt lat="40.0718859" lon="-105.228167">
  <ele>1583.03</ele>
  <time>2026-08-28T17:52:40Z</time>
  <course>346.06</course>
  <speed>5.125007317067947</speed>
  <fix>3d</fix>
</trkpt>
<trkpt lat="40.0718755" lon="-105.2281636">
  <ele>1583.0</ele>
  <time>2026-08-28T17:52:40Z</time>
  <course>345.15</course>
  <speed>5.17</speed>
  <fix>3d</fix>
</trkpt>
<trkpt lat="40.0718904" lon="-105.2281685">
  <ele>1583.03</ele>
  <time>2026-08-28T17:52:40Z</time>
  <course>346.09</course>
  <speed>5.103136290557014</speed>
  <fix>3d</fix>
</trkpt>
<trkpt lat="40.0718844" lon="-105.2281667">
  <ele>1583.0</ele>
  <time>2026-08-28T17:52:40Z</time>
  <course>345.23</course>
  <speed>5.12</speed>
  <fix>3d</fix>
</trkpt>
<trkpt lat="40.0718948" lon="-105.22817">
  <ele>1583.02</ele>
  <time>2026-08-28T17:52:40Z</time>
  <course>346.15</course>
  <speed>5.071587522659941</speed>
  <fix>3d</fix>
</trkpt>
<trkpt lat="40.0718844" lon="-105.2281667">
  <ele>1583.0</ele>
  <time>2026-08-28T17:52:40Z</time>
  <course>345.23</course>
  <speed>5.12</speed>
  <fix>3d</fix>
</trkpt>
<trkpt lat="40.0718992" lon="-105.2281716">
  <ele>1583.02</ele>
  <time>2026-08-28T17:52:40Z</time>
  <course>346.19</course>
  <speed>5.040039682383463</speed>
  <fix>3d</fix>
</trkpt>
<trkpt lat="40.0718933" lon="-105.2281697">
  <ele>1583.0</ele>
  <time>2026-08-28T17:52:40Z</time>
  <course>345.32</course>
  <speed>5.06</speed>
  <fix>3d</fix>
</trkpt>
<trkpt lat="40.0719036" lon="-105.2281731">
  <ele>1583.01</ele>
  <time>2026-08-28T17:52:40Z</time>
  <course>346.22</course>
  <speed>4.998809858356287</speed>
  <fix>3d</fix>
</trkpt>
<trkpt lat="40.0718933" lon="-105.2281697">
  <ele>1583.0</ele>
  <time>2026-08-28T17:52:40Z</time>
  <course>345.32</course>
  <speed>5.06</speed>
  <fix>3d</fix>
</trkpt>
<trkpt lat="40.071908" lon="-105.2281745">
  <ele>1583.01</ele>
  <time>2026-08-28T17:52:40Z</time>
  <course>346.26</course>
  <speed>4.976946855251722</speed>
  <fix>3d</fix>
</trkpt>
<trkpt lat="40.071902" lon="-105.2281727">
  <ele>1583.0</ele>
  <time>2026-08-28T17:52:40Z</time>
  <course>345.4</course>
  <speed>5.0</speed>
  <fix>3d</fix>
</trkpt>
<trkpt lat="40.0719123" lon="-105.228176">
  <ele>1583.01</ele>
  <time>2026-08-28T17:52:40Z</time>
  <course>346.31</course>
  <speed>4.945401904800054</speed>
  <fix>3d</fix>
</trkpt>
<trkpt lat="40.071902" lon="-105.2281727">
  <ele>1583.0</ele>
  <time>2026-08-28T17:52:40Z</time>
  <course>345.4</course>
  <speed>5.0</speed>
  <fix>3d</fix>
</trkpt>
<trkpt lat="40.0719166" lon="-105.2281775">
  <ele>1583.01</ele>
  <time>2026-08-28T17:52:40Z</time>
  <course>346.33</course>
  <speed>4.9138579548049615</speed>
  <fix>3d</fix>
</trkpt>
<trkpt lat="40.0719106" lon="-105.2281757">
  <ele>1583.0</ele>
  <time>2026-08-28T17:52:40Z</time>
  <course>345.47</course>
  <speed>4.94</speed>
  <fix>3d</fix>
</trkpt>
<trkpt lat="40.0719208" lon="-105.2281789">
  <ele>1583.01</ele>
  <time>2026-08-28T17:52:40Z</time>
  <course>346.37</course>
  <speed>4.892003679475312</speed>
  <fix>3d</fix>
</trkpt>
<trkpt lat="40.0719106" lon="-105.2281757">
  <ele>1583.0</ele>
  <time>2026-08-28T17:52:40Z</time>
  <course>345.47</course>
  <speed>4.94</speed>
  <fix>3d</fix>
</trkpt>
<trkpt lat="40.0719251" lon="-105.2281804">
  <ele>1583.01</ele>
  <time>2026-08-28T17:52:40Z</time>
  <course>346.41</course>
  <speed>4.872627627882106</speed>
  <fix>3d</fix>
</trkpt>
<trkpt lat="40.0719192" lon="-105.2281785">
  <ele>1583.0</ele>
  <time>2026-08-28T17:52:40Z</time>
  <course>345.54</course>
  <speed>4.89</speed>
  <fix>3d</fix>
</trkpt>
<trkpt lat="40.0719293" lon="-105.2281818">
  <ele>1583.01</ele>
  <time>2026-08-28T17:52:40Z</time>
  <course>346.43</course>
  <speed>4.850773134253961</speed>
  <fix>3d</fix>
</trkpt>
<trkpt lat="40.0719192" lon="-105.2281785">
  <ele>1583.0</ele>
  <time>2026-08-28T17:52:40Z</time>
  <course>345.54</course>
  <speed>4.89</speed>
  <fix>3d</fix>
</trkpt>
<trkpt lat="40.0719335" lon="-105.2281832">
  <ele>1583.01</ele>
  <time>2026-08-28T17:52:40Z</time>
  <course>346.46</course>
  <speed>4.838615504459927</speed>
  <fix>3d</fix>
</trkpt>
<trkpt lat="40.0719192" lon="-105.2281785">
  <ele>1583.0</ele>
  <time>2026-08-28T17:52:40Z</time>
  <course>345.54</course>
  <speed>4.89</speed>
  <fix>3d</fix>
</trkpt>
<trkpt lat="40.0719377" lon="-105.2281846">
  <ele>1583.01</ele>
  <time>2026-08-28T17:52:40Z</time>
  <course>346.5</course>
  <speed>4.8192323040085965</speed>
  <fix>3d</fix>
</trkpt>
<trkpt lat="40.0719277" lon="-105.2281814">
  <ele>1583.0</ele>
  <time>2026-08-28T17:52:40Z</time>
  <course>345.6</course>
  <speed>4.86</speed>
  <fix>3d</fix>
</trkpt>
<trkpt lat="40.0719419" lon="-105.228186">
  <ele>1583.01</ele>
  <time>2026-08-28T17:52:40Z</time>
  <course>346.52</course>
  <speed>4.807078114613907</speed>
  <fix>3d</fix>
</trkpt>
<trkpt lat="40.0719277" lon="-105.2281814">
  <ele>1583.0</ele>
  <time>2026-08-28T17:52:40Z</time>
  <course>345.6</course>
  <speed>4.86</speed>
  <fix>3d</fix>
</trkpt>
<trkpt lat="40.071946" lon="-105.2281874">
  <ele>1583.01</ele>
  <time>2026-08-28T17:52:40Z</time>
  <course>346.55</course>
  <speed>4.7973847041903985</speed>
  <fix>3d</fix>
</trkpt>
<trkpt lat="40.0719361" lon="-105.2281843">
  <ele>1583.0</ele>
  <time>2026-08-28T17:52:40Z</time>
  <course>345.65</course>
  <speed>4.83</speed>
  <fix>3d</fix>
</trkpt>
<trkpt lat="40.0719501" lon="-105.2281888">
  <ele>1583.01</ele>
  <time>2026-08-28T17:52:40Z</time>
  <course>346.58</course>
  <speed>4.7973847041903985</speed>
  <fix>3d</fix>
</trkpt>
<trkpt lat="40.0719361" lon="-105.2281843">
  <ele>1583.0</ele>
  <time>2026-08-28T17:52:40Z</time>
  <course>345.65</course>
  <speed>4.83</speed>
  <fix>3d</fix>
</trkpt>
<trkpt lat="40.0719543" lon="-105.2281902">
  <ele>1583.01</ele>
  <time>2026-08-28T17:52:40Z</time>
  <course>346.59</course>
  <speed>4.787692554874425</speed>
  <fix>3d</fix>
</trkpt>
<trkpt lat="40.0719445" lon="-105.2281871">
  <ele>1583.0</ele>
  <time>2026-08-28T17:52:40Z</time>
  <course>345.7</course>
  <speed>4.82</speed>
  <fix>3d</fix>
</trkpt>
<trkpt lat="40.0719584" lon="-105.2281916">
  <ele>1583.01</ele>
  <time>2026-08-28T17:52:40Z</time>
  <course>346.61</course>
  <speed>4.785237716143264</speed>
  <fix>3d</fix>
</trkpt>
<trkpt lat="40.0719445" lon="-105.2281871">
  <ele>1583.0</ele>
  <time>2026-08-28T17:52:40Z</time>
  <course>345.7</course>
  <speed>4.82</speed>
  <fix>3d</fix>
</trkpt>
<trkpt lat="40.0719626" lon="-105.2281929">
  <ele>1583.02</ele>
  <time>2026-08-28T17:52:40Z</time>
  <course>346.64</course>
  <speed>4.794934827502872</speed>
  <fix>3d</fix>
</trkpt>
<trkpt lat="40.071953" lon="-105.2281898">
  <ele>1583.0</ele>
  <time>2026-08-28T17:52:40Z</time>
  <course>345.74</course>
  <speed>4.81</speed>
  <fix>3d</fix>
</trkpt>
<trkpt lat="40.0719667" lon="-105.2281943">
  <ele>1583.02</ele>
  <time>2026-08-28T17:52:40Z</time>
  <course>346.66</course>
  <speed>4.794934827502872</speed>
  <fix>3d</fix>
</trkpt>
<trkpt lat="40.0719614" lon="-105.2281926">
  <ele>1583.0</ele>
  <time>2026-08-28T17:52:40Z</time>
  <course>345.77</course>
  <speed>4.82</speed>
  <fix>3d</fix>
</trkpt>
<trkpt lat="40.0719709" lon="-105.2281957">
  <ele>1583.02</ele>
  <time>2026-08-28T17:52:40Z</time>
  <course>346.67</course>
  <speed>4.804633180587254</speed>
  <fix>3d</fix>
</trkpt>
<trkpt lat="40.0719614" lon="-105.2281926">
  <ele>1583.0</ele>
  <time>2026-08-28T17:52:40Z</time>
  <course>345.77</course>
  <speed>4.82</speed>
  <fix>3d</fix>
</trkpt>
<trkpt lat="40.0719751" lon="-105.2281971">
  <ele>1583.02</ele>
  <time>2026-08-28T17:52:40Z</time>
  <course>346.7</course>
  <speed>4.81433276789214</speed>
  <fix>3d</fix>
</trkpt>
<trkpt lat="40.0719698" lon="-105.2281954">
  <ele>1583.0</ele>
  <time>2026-08-28T17:52:40Z</time>
  <course>345.81</course>
  <speed>4.84</speed>
  <fix>3d</fix>
</trkpt>
<trkpt lat="40.0719793" lon="-105.2281985">
  <ele>1583.02</ele>
  <time>2026-08-28T17:52:40Z</time>
  <course>346.7</course>
  <speed>4.826468688389059</speed>
  <fix>3d</fix>
</trkpt>
<trkpt lat="40.0719698" lon="-105.2281954">
  <ele>1583.0</ele>
  <time>2026-08-28T17:52:40Z</time>
  <course>345.81</course>
  <speed>4.84</speed>
  <fix>3d</fix>
</trkpt>
<trkpt lat="40.0719835" lon="-105.2281999">
  <ele>1583.02</ele>
  <time>2026-08-28T17:52:40Z</time>
  <course>346.71</course>
  <speed>4.836165836693361</speed>
  <fix>3d</fix>
</trkpt>
<trkpt lat="40.0719782" lon="-105.2281982">
  <ele>1583.0</ele>
  <time>2026-08-28T17:52:40Z</time>
  <course>345.84</course>
  <speed>4.86</speed>
  <fix>3d</fix>
</trkpt>
<trkpt lat="40.0719878" lon="-105.2282013">
  <ele>1583.02</ele>
  <time>2026-08-28T17:52:40Z</time>
  <course>346.72</course>
  <speed>4.8458642160093595</speed>
  <fix>3d</fix>
</trkpt>
<trkpt lat="40.0719782" lon="-105.2281982">
  <ele>1583.0</ele>
  <time>2026-08-28T17:52:40Z</time>
  <course>345.84</course>
  <speed>4.86</speed>
  <fix>3d</fix>
</trkpt>
<trkpt lat="40.0719921" lon="-105.2282027">
  <ele>1583.02</ele>
  <time>2026-08-28T17:52:40Z</time>
  <course>346.73</course>
  <speed>4.855563818960678</speed>
  <fix>3d</fix>
</trkpt>
<trkpt lat="40.0719867" lon="-105.228201">
  <ele>1583.0</ele>
  <time>2026-08-28T17:52:40Z</time>
  <course>345.85</course>
  <speed>4.88</speed>
  <fix>3d</fix>
</trkpt>
<trkpt lat="40.0719964" lon="-105.2282041">
  <ele>1583.02</ele>
  <time>2026-08-28T17:52:40Z</time>
  <course>346.73</course>
  <speed>4.874966666552706</speed>
  <fix>3d</fix>
</trkpt>
<trkpt lat="40.0719867" lon="-105.228201">
  <ele>1583.0</ele>
  <time>2026-08-28T17:52:40Z</time>
  <course>345.85</course>
  <speed>4.88</speed>
  <fix>3d</fix>
</trkpt>
<trkpt lat="40.0720007" lon="-105.2282055">
  <ele>1583.02</ele>
  <time>2026-08-28T17:52:40Z</time>
  <course>346.75</course>
  <speed>4.874966666552706</speed>
  <fix>3d</fix>
</trkpt>
<trkpt lat="40.0719952" lon="-105.2282037">
  <ele>1583.0</ele>
  <time>2026-08-28T17:52:40Z</time>
  <course>345.87</course>
  <speed>4.9</speed>
  <fix>3d</fix>
</trkpt>
<trkpt lat="40.072005" lon="-105.2282069">
  <ele>1583.02</ele>
  <time>2026-08-28T17:52:41Z</time>
  <course>346.75</course>
  <speed>4.8870952517830055</speed>
  <fix>3d</fix>
</trkpt>
<trkpt lat="40.0719952" lon="-105.2282037">
  <ele>1583.0</ele>
  <time>2026-08-28T17:52:41Z</time>
  <course>345.87</course>
  <speed>4.9</speed>
  <fix>3d</fix>
</trkpt>
<trkpt lat="40.0720093" lon="-105.2282083">
  <ele>1583.02</ele>
  <time>2026-08-28T17:52:41Z</time>
  <course>346.76</course>
  <speed>4.896794870116574</speed>
  <fix>3d</fix>
</trkpt>
<trkpt lat="40.0720038" lon="-105.2282065">
  <ele>1583.0</ele>
  <time>2026-08-28T17:52:41Z</time>
  <course>345.88</course>
  <speed>4.92</speed>
  <fix>3d</fix>
</trkpt>
<trkpt lat="40.0720136" lon="-105.2282098">
  <ele>1583.02</ele>
  <time>2026-08-28T17:52:41Z</time>
  <course>346.77</course>
  <speed>4.906495694485016</speed>
  <fix>3d</fix>
</trkpt>
<trkpt lat="40.0720038" lon="-105.2282065">
  <ele>1583.0</ele>
  <time>2026-08-28T17:52:41Z</time>
  <course>345.88</course>
  <speed>4.92</speed>
  <fix>3d</fix>
</trkpt>
<trkpt lat="40.072018" lon="-105.2282112">
  <ele>1583.02</ele>
  <time>2026-08-28T17:52:41Z</time>
  <course>346.78</course>
  <speed>4.916197717748952</speed>
  <fix>3d</fix>
</trkpt>
<trkpt lat="40.0720124" lon="-105.2282094">
  <ele>1583.0</ele>
  <time>2026-08-28T17:52:41Z</time>
  <course>345.89</course>
  <speed>4.93</speed>
  <fix>3d</fix>
</trkpt>
<trkpt lat="40.0720223" lon="-105.2282126">
  <ele>1583.02</ele>
  <time>2026-08-28T17:52:41Z</time>
  <course>346.78</course>
  <speed>4.916197717748952</speed>
  <fix>3d</fix>
</trkpt>
<trkpt lat="40.0720124" lon="-105.2282094">
  <ele>1583.0</ele>
  <time>2026-08-28T17:52:41Z</time>
  <course>345.89</course>
  <speed>4.93</speed>
  <fix>3d</fix>
</trkpt>
<trkpt lat="40.0720266" lon="-105.228214">
  <ele>1583.02</ele>
  <time>2026-08-28T17:52:41Z</time>
  <course>346.78</course>
  <speed>4.92590093282437</speed>
  <fix>3d</fix>
</trkpt>
<trkpt lat="40.0720124" lon="-105.2282094">
  <ele>1583.0</ele>
  <time>2026-08-28T17:52:41Z</time>
  <course>345.89</course>
  <speed>4.93</speed>
  <fix>3d</fix>
</trkpt>
<trkpt lat="40.0720309" lon="-105.2282154">
  <ele>1583.02</ele>
  <time>2026-08-28T17:52:41Z</time>
  <course>346.8</course>
  <speed>4.92590093282437</speed>
  <fix>3d</fix>
</trkpt>
<trkpt lat="40.072021" lon="-105.2282123">
  <ele>1583.0</ele>
  <time>2026-08-28T17:52:41Z</time>
  <course>345.9</course>
  <speed>4.94</speed>
  <fix>3d</fix>
</trkpt>
<trkpt lat="40.0720352" lon="-105.2282168">
  <ele>1583.02</ele>
  <time>2026-08-28T17:52:41Z</time>
  <course>346.8</course>
  <speed>4.92590093282437</speed>
  <fix>3d</fix>
</trkpt>
<trkpt lat="40.072021" lon="-105.2282123">
  <ele>1583.0</ele>
  <time>2026-08-28T17:52:41Z</time>
  <course>345.9</course>
  <speed>4.94</speed>
  <fix>3d</fix>
</trkpt>
<trkpt lat="40.0720395" lon="-105.2282182">
  <ele>1583.02</ele>
  <time>2026-08-28T17:52:41Z</time>
  <course>346.82</course>
  <speed>4.92590093282437</speed>
  <fix>3d</fix>
</trkpt>
<trkpt lat="40.0720297" lon="-105.2282151">
  <ele>1583.0</ele>
  <time>2026-08-28T17:52:41Z</time>
  <course>345.91</course>
  <speed>4.95</speed>
  <fix>3d</fix>
</trkpt>
<trkpt lat="40.0720438" lon="-105.2282196">
  <ele>1583.02</ele>
  <time>2026-08-28T17:52:41Z</time>
  <course>346.82</course>
  <speed>4.92590093282437</speed>
  <fix>3d</fix>
</trkpt>
<trkpt lat="40.0720297" lon="-105.2282151">
  <ele>1583.0</ele>
  <time>2026-08-28T17:52:41Z</time>
  <course>345.91</course>
  <speed>4.95</speed>
  <fix>3d</fix>
</trkpt>
<trkpt lat="40.0720481" lon="-105.228221">
  <ele>1583.02</ele>
  <time>2026-08-28T17:52:41Z</time>
  <course>346.84</course>
  <speed>4.92590093282437</speed>
  <fix>3d</fix>
</trkpt>
<trkpt lat="40.0720383" lon="-105.2282179">
  <ele>1583.0</ele>
  <time>2026-08-28T17:52:41Z</time>
  <course>345.92</course>
  <speed>4.96</speed>
  <fix>3d</fix>
</trkpt>
<trkpt lat="40.0720524" lon="-105.2282224">
  <ele>1583.02</ele>
  <time>2026-08-28T17:52:41Z</time>
  <course>346.84</course>
  <speed>4.92590093282437</speed>
  <fix>3d</fix>
</trkpt>
<trkpt lat="40.072047" lon="-105.2282208">
  <ele>1583.0</ele>
  <time>2026-08-28T17:52:41Z</time>
  <course>345.93</course>
  <speed>4.96</speed>
  <fix>3d</fix>
</trkpt>
<trkpt lat="40.0720567" lon="-105.2282238">
  <ele>1583.02</ele>
  <time>2026-08-28T17:52:41Z</time>
  <course>346.85</course>
  <speed>4.935605332682102</speed>
  <fix>3d</fix>
</trkpt>
<trkpt lat="40.072047" lon="-105.2282208">
  <ele>1583.0</ele>
  <time>2026-08-28T17:52:41Z</time>
  <course>345.93</course>
  <speed>4.96</speed>
  <fix>3d</fix>
</trkpt>
<trkpt lat="40.072061" lon="-105.2282252">
  <ele>1583.02</ele>
  <time>2026-08-28T17:52:41Z</time>
  <course>346.86</course>
  <speed>4.933203827128978</speed>
  <fix>3d</fix>
</trkpt>
<trkpt lat="40.0720556" lon="-105.2282235">
  <ele>1583.0</ele>
  <time>2026-08-28T17:52:41Z</time>
  <course>345.95</course>
  <speed>4.97</speed>
  <fix>3d</fix>
</trkpt>
<trkpt lat="40.0720654" lon="-105.2282267">
  <ele>1583.02</ele>
  <time>2026-08-28T17:52:41Z</time>
  <course>346.86</course>
  <speed>4.933203827128978</speed>
  <fix>3d</fix>
</trkpt>
<trkpt lat="40.0720556" lon="-105.2282235">
  <ele>1583.0</ele>
  <time>2026-08-28T17:52:41Z</time>
  <course>345.95</course>
  <speed>4.97</speed>
  <fix>3d</fix>
</trkpt>
<trkpt lat="40.0720697" lon="-105.2282281">
  <ele>1583.02</ele>
  <time>2026-08-28T17:52:41Z</time>
  <course>346.88</course>
  <speed>4.933203827128978</speed>
  <fix>3d</fix>
</trkpt>
<trkpt lat="40.0720643" lon="-105.2282264">
  <ele>1583.0</ele>
  <time>2026-08-28T17:52:41Z</time>
  <course>345.96</course>
  <speed>4.97</speed>
  <fix>3d</fix>
</trkpt>
<trkpt lat="40.0720741" lon="-105.2282295">
  <ele>1583.02</ele>
  <time>2026-08-28T17:52:41Z</time>
  <course>346.88</course>
  <speed>4.933203827128978</speed>
  <fix>3d</fix>
</trkpt>
<trkpt lat="40.0720643" lon="-105.2282264">
  <ele>1583.0</ele>
  <time>2026-08-28T17:52:41Z</time>
  <course>345.96</course>
  <speed>4.97</speed>
  <fix>3d</fix>
</trkpt>
<trkpt lat="40.0720784" lon="-105.2282309">
  <ele>1583.02</ele>
  <time>2026-08-28T17:52:41Z</time>
  <course>346.88</course>
  <speed>4.942914120233124</speed>
  <fix>3d</fix>
</trkpt>
<trkpt lat="40.0720729" lon="-105.2282293">
  <ele>1583.0</ele>
  <time>2026-08-28T17:52:41Z</time>
  <course>345.97</course>
  <speed>4.97</speed>
  <fix>3d</fix>
</trkpt>
<trkpt lat="40.0720828" lon="-105.2282323">
  <ele>1583.02</ele>
  <time>2026-08-28T17:52:41Z</time>
  <course>346.88</course>
  <speed>4.942914120233124</speed>
  <fix>3d</fix>
</trkpt>
<trkpt lat="40.0720729" lon="-105.2282293">
  <ele>1583.0</ele>
  <time>2026-08-28T17:52:41Z</time>
  <course>345.97</course>
  <speed>4.97</speed>
  <fix>3d</fix>
</trkpt>
<trkpt lat="40.0720872" lon="-105.2282338">
  <ele>1583.02</ele>
  <time>2026-08-28T17:52:41Z</time>
  <course>346.9</course>
  <speed>4.942914120233124</speed>
  <fix>3d</fix>
</trkpt>
<trkpt lat="40.0720816" lon="-105.2282321">
  <ele>1583.0</ele>
  <time>2026-08-28T17:52:41Z</time>
  <course>345.97</course>
  <speed>4.97</speed>
  <fix>3d</fix>
</trkpt>
<trkpt lat="40.0720915" lon="-105.2282352">
  <ele>1583.02</ele>
  <time>2026-08-28T17:52:41Z</time>
  <course>346.9</course>
  <speed>4.942914120233124</speed>
  <fix>3d</fix>
</trkpt>
<trkpt lat="40.0720816" lon="-105.2282321">
  <ele>1583.0</ele>
  <time>2026-08-28T17:52:41Z</time>
  <course>345.97</course>
  <speed>4.97</speed>
  <fix>3d</fix>
</trkpt>
<trkpt lat="40.0720959" lon="-105.2282366">
  <ele>1583.02</ele>
  <time>2026-08-28T17:52:41Z</time>
  <course>346.92</course>
  <speed>4.942914120233124</speed>
  <fix>3d</fix>
</trkpt>
<trkpt lat="40.0720903" lon="-105.2282349">
  <ele>1583.0</ele>
  <time>2026-08-28T17:52:41Z</time>
  <course>345.99</course>
  <speed>4.97</speed>
  <fix>3d</fix>
</trkpt>
<trkpt lat="40.0721002" lon="-105.228238">
  <ele>1583.02</ele>
  <time>2026-08-28T17:52:41Z</time>
  <course>346.92</course>
  <speed>4.942914120233124</speed>
  <fix>3d</fix>
</trkpt>
<trkpt lat="40.0720903" lon="-105.2282349">
  <ele>1583.0</ele>
  <time>2026-08-28T17:52:41Z</time>
  <course>345.99</course>
  <speed>4.97</speed>
  <fix>3d</fix>
</trkpt>
<trkpt lat="40.0721046" lon="-105.2282394">
  <ele>1583.02</ele>
  <time>2026-08-28T17:52:41Z</time>
  <course>346.94</course>
  <speed>4.942914120233124</speed>
  <fix>3d</fix>
</trkpt>
<trkpt lat="40.0720989" lon="-105.2282377">
  <ele>1583.0</ele>
  <time>2026-08-28T17:52:41Z</time>
  <course>346.0</course>
  <speed>4.96</speed>
  <fix>3d</fix>
</trkpt>
<trkpt lat="40.0721089" lon="-105.2282408">
  <ele>1583.02</ele>
  <time>2026-08-28T17:52:41Z</time>
  <course>346.94</course>
  <speed>4.933203827128978</speed>
  <fix>3d</fix>
</trkpt>
<trkpt lat="40.0720989" lon="-105.2282377">
  <ele>1583.0</ele>
  <time>2026-08-28T17:52:41Z</time>
  <course>346.0</course>
  <speed>4.96</speed>
  <fix>3d</fix>
</trkpt>
<trkpt lat="40.0721133" lon="-105.2282422">
  <ele>1583.02</ele>
  <time>2026-08-28T17:52:41Z</time>
  <course>346.94</course>
  <speed>4.933203827128978</speed>
  <fix>3d</fix>
</trkpt>
<trkpt lat="40.0720989" lon="-105.2282377">
  <ele>1583.0</ele>
  <time>2026-08-28T17:52:41Z</time>
  <course>346.0</course>
  <speed>4.96</speed>
  <fix>3d</fix>
</trkpt>
<trkpt lat="40.0721176" lon="-105.2282436">
  <ele>1583.02</ele>
  <time>2026-08-28T17:52:41Z</time>
  <course>346.94</course>
  <speed>4.933203827128978</speed>
  <fix>3d</fix>
</trkpt>
<trkpt lat="40.0721076" lon="-105.2282405">
  <ele>1583.0</ele>
  <time>2026-08-28T17:52:41Z</time>
  <course>346.01</course>
  <speed>4.96</speed>
  <fix>3d</fix>
</trkpt>
<trkpt lat="40.0721219" lon="-105.228245">
  <ele>1583.02</ele>
  <time>2026-08-28T17:52:41Z</time>
  <course>346.95</course>
  <speed>4.933203827128978</speed>
  <fix>3d</fix>
</trkpt>
<trkpt lat="40.0721076" lon="-105.2282405">
  <ele>1583.0</ele>
  <time>2026-08-28T17:52:41Z</time>
  <course>346.01</course>
  <speed>4.96</speed>
  <fix>3d</fix>
</trkpt>
<trkpt lat="40.0721262" lon="-105.2282464">
  <ele>1583.02</ele>
  <time>2026-08-28T17:52:41Z</time>
  <course>346.96</course>
  <speed>4.921107598904946</speed>
  <fix>3d</fix>
</trkpt>
<trkpt lat="40.0721163" lon="-105.2282434">
  <ele>1583.0</ele>
  <time>2026-08-28T17:52:41Z</time>
  <course>346.01</course>
  <speed>4.96</speed>
  <fix>3d</fix>
</trkpt>
<trkpt lat="40.0721304" lon="-105.2282478">
  <ele>1583.02</ele>
  <time>2026-08-28T17:52:41Z</time>
  <course>346.97</course>
  <speed>4.921107598904946</speed>
  <fix>3d</fix>
</trkpt>
<trkpt lat="40.0721163" lon="-105.2282434">
  <ele>1583.0</ele>
  <time>2026-08-28T17:52:41Z</time>
  <course>346.01</course>
  <speed>4.96</speed>
  <fix>3d</fix>
</trkpt>
<trkpt lat="40.0721347" lon="-105.2282492">
  <ele>1583.02</ele>
  <time>2026-08-28T17:52:41Z</time>
  <course>346.97</course>
  <speed>4.921107598904946</speed>
  <fix>3d</fix>
</trkpt>
<trkpt lat="40.0721249" lon="-105.2282462">
  <ele>1583.0</ele>
  <time>2026-08-28T17:52:41Z</time>
  <course>346.02</course>
  <speed>4.95</speed>
  <fix>3d</fix>
</trkpt>
<trkpt lat="40.072139" lon="-105.2282506">
  <ele>1583.02</ele>
  <time>2026-08-28T17:52:41Z</time>
  <course>346.97</course>
  <speed>4.921107598904946</speed>
  <fix>3d</fix>
</trkpt>
<trkpt lat="40.0721336" lon="-105.2282489">
  <ele>1583.0</ele>
  <time>2026-08-28T17:52:41Z</time>
  <course>346.02</course>
  <speed>4.95</speed>
  <fix>3d</fix>
</trkpt>
<trkpt lat="40.0721434" lon="-105.228252">
  <ele>1583.02</ele>
  <time>2026-08-28T17:52:41Z</time>
  <course>346.97</course>
  <speed>4.921107598904946</speed>
  <fix>3d</fix>
</trkpt>
<trkpt lat="40.0721336" lon="-105.2282489">
  <ele>1583.0</ele>
  <time>2026-08-28T17:52:41Z</time>
  <course>346.02</course>
  <speed>4.95</speed>
  <fix>3d</fix>
</trkpt>
<trkpt lat="40.0721477" lon="-105.2282534">
  <ele>1583.02</ele>
  <time>2026-08-28T17:52:41Z</time>
  <course>346.98</course>
  <speed>4.921107598904946</speed>
  <fix>3d</fix>
</trkpt>
<trkpt lat="40.0721422" lon="-105.2282518">
  <ele>1583.0</ele>
  <time>2026-08-28T17:52:41Z</time>
  <course>346.02</course>
  <speed>4.95</speed>
  <fix>3d</fix>
</trkpt>
<trkpt lat="40.072152" lon="-105.2282548">
  <ele>1583.02</ele>
  <time>2026-08-28T17:52:41Z</time>
  <course>346.99</course>
  <speed>4.930821432580985</speed>
  <fix>3d</fix>
</trkpt>
<trkpt lat="40.0721422" lon="-105.2282518">
  <ele>1583.0</ele>
  <time>2026-08-28T17:52:41Z</time>
  <course>346.02</course>
  <speed>4.95</speed>
  <fix>3d</fix>
</trkpt>
<trkpt lat="40.0721563" lon="-105.2282562">
  <ele>1583.02</ele>
  <time>2026-08-28T17:52:41Z</time>
  <course>346.99</course>
  <speed>4.930821432580985</speed>
  <fix>3d</fix>
</trkpt>
<trkpt lat="40.0721508" lon="-105.2282546">
  <ele>1583.0</ele>
  <time>2026-08-28T17:52:41Z</time>
  <course>346.03</course>
  <speed>4.96</speed>
  <fix>3d</fix>
</trkpt>
<trkpt lat="40.0721607" lon="-105.2282576">
  <ele>1583.01</ele>
  <time>2026-08-28T17:52:41Z</time>
  <course>347.0</course>
  <speed>4.930821432580985</speed>
  <fix>3d</fix>
</trkpt>
<trkpt lat="40.0721508" lon="-105.2282546">
  <ele>1583.0</ele>
  <time>2026-08-28T17:52:41Z</time>
  <course>346.03</course>
  <speed>4.96</speed>
  <fix>3d</fix>
</trkpt>
<trkpt lat="40.072165" lon="-105.228259">
  <ele>1583.01</ele>
  <time>2026-08-28T17:52:41Z</time>
  <course>347.0</course>
  <speed>4.930821432580985</speed>
  <fix>3d</fix>
</trkpt>
<trkpt lat="40.0721595" lon="-105.2282575">
  <ele>1583.0</ele>
  <time>2026-08-28T17:52:41Z</time>
  <course>346.04</course>
  <speed>4.96</speed>
  <fix>3d</fix>
</trkpt>
<trkpt lat="40.0721694" lon="-105.2282604">
  <ele>1583.01</ele>
  <time>2026-08-28T17:52:41Z</time>
  <course>347.0</course>
  <speed>4.940536408124122</speed>
  <fix>3d</fix>
</trkpt>
<trkpt lat="40.0721595" lon="-105.2282575">
  <ele>1583.0</ele>
  <time>2026-08-28T17:52:41Z</time>
  <course>346.04</course>
  <speed>4.96</speed>
  <fix>3d</fix>
</trkpt>
<trkpt lat="40.0721737" lon="-105.2282619">
  <ele>1583.01</ele>
  <time>2026-08-28T17:52:41Z</time>
  <course>347.02</course>
  <speed>4.940536408124122</speed>
  <fix>3d</fix>
</trkpt>
<trkpt lat="40.0721682" lon="-105.2282602">
  <ele>1583.0</ele>
  <time>2026-08-28T17:52:41Z</time>
  <course>346.04</course>
  <speed>4.96</speed>
  <fix>3d</fix>
</trkpt>
<trkpt lat="40.0721781" lon="-105.2282633">
  <ele>1583.01</ele>
  <time>2026-08-28T17:52:41Z</time>
  <course>347.02</course>
  <speed>4.940536408124122</speed>
  <fix>3d</fix>
</trkpt>
<trkpt lat="40.0721682" lon="-105.2282602">
  <ele>1583.0</ele>
  <time>2026-08-28T17:52:41Z</time>
  <course>346.04</course>
  <speed>4.96</speed>
  <fix>3d</fix>
</trkpt>
<trkpt lat="40.0721825" lon="-105.2282647">
  <ele>1583.01</ele>
  <time>2026-08-28T17:52:41Z</time>
  <course>347.02</course>
  <speed>4.940536408124122</speed>
  <fix>3d</fix>
</trkpt>
<trkpt lat="40.0721768" lon="-105.228263">
  <ele>1583.0</ele>
  <time>2026-08-28T17:52:41Z</time>
  <course>346.05</course>
  <speed>4.96</speed>
  <fix>3d</fix>
</trkpt>
<trkpt lat="40.0721868" lon="-105.2282661">
  <ele>1583.01</ele>
  <time>2026-08-28T17:52:41Z</time>
  <course>347.04</course>
  <speed>4.940536408124122</speed>
  <fix>3d</fix>
</trkpt>
<trkpt lat="40.0721768" lon="-105.228263">
  <ele>1583.0</ele>
  <time>2026-08-28T17:52:41Z</time>
  <course>346.05</course>
  <speed>4.96</speed>
  <fix>3d</fix>
</trkpt>
<trkpt lat="40.0721912" lon="-105.2282675">
  <ele>1583.02</ele>
  <time>2026-08-28T17:52:41Z</time>
  <course>347.04</course>
  <speed>4.940536408124122</speed>
  <fix>3d</fix>
</trkpt>
<trkpt lat="40.0721854" lon="-105.2282659">
  <ele>1583.0</ele>
  <time>2026-08-28T17:52:41Z</time>
  <course>346.06</course>
  <speed>4.96</speed>
  <fix>3d</fix>
</trkpt>
<trkpt lat="40.0721955" lon="-105.2282689">
  <ele>1583.01</ele>
  <time>2026-08-28T17:52:41Z</time>
  <course>347.04</course>
  <speed>4.940536408124122</speed>
  <fix>3d</fix>
</trkpt>
<trkpt lat="40.0721854" lon="-105.2282659">
  <ele>1583.0</ele>
  <time>2026-08-28T17:52:41Z</time>
  <course>346.06</course>
  <speed>4.96</speed>
  <fix>3d</fix>
</trkpt>
<trkpt lat="40.0721999" lon="-105.2282703">
  <ele>1583.01</ele>
  <time>2026-08-28T17:52:41Z</time>
  <course>347.04</course>
  <speed>4.940536408124122</speed>
  <fix>3d</fix>
</trkpt>
<trkpt lat="40.0721854" lon="-105.2282659">
  <ele>1583.0</ele>
  <time>2026-08-28T17:52:41Z</time>
  <course>346.06</course>
  <speed>4.96</speed>
  <fix>3d</fix>
</trkpt>
<trkpt lat="40.0722042" lon="-105.2282717">
  <ele>1583.01</ele>
  <time>2026-08-28T17:52:41Z</time>
  <course>347.04</course>
  <speed>4.940536408124122</speed>
  <fix>3d</fix>
</trkpt>
<trkpt lat="40.0721941" lon="-105.2282687">
  <ele>1583.0</ele>
  <time>2026-08-28T17:52:41Z</time>
  <course>346.06</course>
  <speed>4.96</speed>
  <fix>3d</fix>
</trkpt>
<trkpt lat="40.0722085" lon="-105.2282731">
  <ele>1583.01</ele>
  <time>2026-08-28T17:52:41Z</time>
  <course>347.06</course>
  <speed>4.940536408124122</speed>
  <fix>3d</fix>
</trkpt>
<trkpt lat="40.0721941" lon="-105.2282687">
  <ele>1583.0</ele>
  <time>2026-08-28T17:52:41Z</time>
  <course>346.06</course>
  <speed>4.96</speed>
  <fix>3d</fix>
</trkpt>
<trkpt lat="40.0722128" lon="-105.2282745">
  <ele>1583.01</ele>
  <time>2026-08-28T17:52:41Z</time>
  <course>347.06</course>
  <speed>4.940536408124122</speed>
  <fix>3d</fix>
</trkpt>
<trkpt lat="40.0722028" lon="-105.2282714">
  <ele>1583.0</ele>
  <time>2026-08-28T17:52:41Z</time>
  <course>346.07</course>
  <speed>4.96</speed>
  <fix>3d</fix>
</trkpt>
<trkpt lat="40.072217" lon="-105.2282759">
  <ele>1583.01</ele>
  <time>2026-08-28T17:52:41Z</time>
  <course>347.06</course>
  <speed>4.940536408124122</speed>
  <fix>3d</fix>
</trkpt>
<trkpt lat="40.0722028" lon="-105.2282714">
  <ele>1583.0</ele>
  <time>2026-08-28T17:52:41Z</time>
  <course>346.07</course>
  <speed>4.96</speed>
  <fix>3d</fix>
</trkpt>
<trkpt lat="40.0722213" lon="-105.2282773">
  <ele>1583.01</ele>
  <time>2026-08-28T17:52:41Z</time>
  <course>347.07</course>
  <speed>4.930821432580985</speed>
  <fix>3d</fix>
</trkpt>
<trkpt lat="40.0722114" lon="-105.2282743">
  <ele>1583.0</ele>
  <time>2026-08-28T17:52:41Z</time>
  <course>346.08</course>
  <speed>4.96</speed>
  <fix>3d</fix>
</trkpt>
<trkpt lat="40.0722256" lon="-105.2282786">
  <ele>1583.01</ele>
  <time>2026-08-28T17:52:41Z</time>
  <course>347.07</course>
  <speed>4.930821432580985</speed>
  <fix>3d</fix>
</trkpt>
<trkpt lat="40.0722114" lon="-105.2282743">
  <ele>1583.0</ele>
  <time>2026-08-28T17:52:41Z</time>
  <course>346.08</course>
  <speed>4.96</speed>
  <fix>3d</fix>
</trkpt>
<trkpt lat="40.0722299" lon="-105.22828">
  <ele>1583.01</ele>
  <time>2026-08-28T17:52:41Z</time>
  <course>347.08</course>
  <speed>4.930821432580985</speed>
  <fix>3d</fix>
</trkpt>
<trkpt lat="40.0722201" lon="-105.2282771">
  <ele>1583.0</ele>
  <time>2026-08-28T17:52:41Z</time>
  <course>346.08</course>
  <speed>4.96</speed>
  <fix>3d</fix>
</trkpt>
<trkpt lat="40.0722342" lon="-105.2282814">
  <ele>1583.01</ele>
  <time>2026-08-28T17:52:41Z</time>
  <course>347.09</course>
  <speed>4.930821432580985</speed>
  <fix>3d</fix>
</trkpt>
<trkpt lat="40.0722288" lon="-105.2282798">
  <ele>1583.0</ele>
  <time>2026-08-28T17:52:41Z</time>
  <course>346.08</course>
  <speed>4.96</speed>
  <fix>3d</fix>
</trkpt>
<trkpt lat="40.0722385" lon="-105.2282828">
  <ele>1583.0</ele>
  <time>2026-08-28T17:52:41Z</time>
  <course>347.09</course>
  <speed>4.940536408124122</speed>
  <fix>3d</fix>
</trkpt>
<trkpt lat="40.0722288" lon="-105.2282798">
  <ele>1583.0</ele>
  <time>2026-08-28T17:52:41Z</time>
  <course>346.08</course>
  <speed>4.96</speed>
  <fix>3d</fix>
</trkpt>
<trkpt lat="40.0722428" lon="-105.2282842">
  <ele>1583.0</ele>
  <time>2026-08-28T17:52:41Z</time>
  <course>347.09</course>
  <speed>4.940536408124122</speed>
  <fix>3d</fix>
</trkpt>
<trkpt lat="40.0722375" lon="-105.2282827">
  <ele>1583.0</ele>
  <time>2026-08-28T17:52:41Z</time>
  <course>346.09</course>
  <speed>4.97</speed>
  <fix>3d</fix>
</trkpt>
<trkpt lat="40.0722472" lon="-105.2282856">
  <ele>1583.0</ele>
  <time>2026-08-28T17:52:41Z</time>
  <course>347.09</course>
  <speed>4.95025251881154</speed>
  <fix>3d</fix>
</trkpt>
<trkpt lat="40.0722375" lon="-105.2282827">
  <ele>1583.0</ele>
  <time>2026-08-28T17:52:41Z</time>
  <course>346.09</course>
  <speed>4.97</speed>
  <fix>3d</fix>
</trkpt>
<trkpt lat="40.0722516" lon="-105.228287">
  <ele>1583.01</ele>
  <time>2026-08-28T17:52:41Z</time>
  <course>347.09</course>
  <speed>4.95025251881154</speed>
  <fix>3d</fix>
</trkpt>
<trkpt lat="40.0722461" lon="-105.2282855">
  <ele>1583.0</ele>
  <time>2026-08-28T17:52:41Z</time>
  <course>346.09</course>
  <speed>4.98</speed>
  <fix>3d</fix>
</trkpt>
<trkpt lat="40.0722559" lon="-105.2282884">
  <ele>1583.01</ele>
  <time>2026-08-28T17:52:41Z</time>
  <course>347.09</course>
  <speed>4.95025251881154</speed>
  <fix>3d</fix>
</trkpt>
<trkpt lat="40.0722461" lon="-105.2282855">
  <ele>1583.0</ele>
  <time>2026-08-28T17:52:41Z</time>
  <course>346.09</course>
  <speed>4.98</speed>
  <fix>3d</fix>
</trkpt>
<trkpt lat="40.0722603" lon="-105.2282899">
  <ele>1583.01</ele>
  <time>2026-08-28T17:52:41Z</time>
  <course>347.1</course>
  <speed>4.95025251881154</speed>
  <fix>3d</fix>
</trkpt>
<trkpt lat="40.0722548" lon="-105.2282883">
  <ele>1583.0</ele>
  <time>2026-08-28T17:52:41Z</time>
  <course>346.09</course>
  <speed>4.98</speed>
  <fix>3d</fix>
</trkpt>
<trkpt lat="40.0722647" lon="-105.2282913">
  <ele>1583.01</ele>
  <time>2026-08-28T17:52:41Z</time>
  <course>347.11</course>
  <speed>4.9599697579723205</speed>
  <fix>3d</fix>
</trkpt>
<trkpt lat="40.0722548" lon="-105.2282883">
  <ele>1583.0</ele>
  <time>2026-08-28T17:52:41Z</time>
  <course>346.09</course>
  <speed>4.98</speed>
  <fix>3d</fix>
</trkpt>
<trkpt lat="40.0722691" lon="-105.2282927">
  <ele>1583.01</ele>
  <time>2026-08-28T17:52:41Z</time>
  <course>347.11</course>
  <speed>4.9599697579723205</speed>
  <fix>3d</fix>
</trkpt>
<trkpt lat="40.0722635" lon="-105.2282912">
  <ele>1583.0</ele>
  <time>2026-08-28T17:52:41Z</time>
  <course>346.1</course>
  <speed>4.98</speed>
  <fix>3d</fix>
</trkpt>
<trkpt lat="40.0722735" lon="-105.2282941">
  <ele>1583.01</ele>
  <time>2026-08-28T17:52:41Z</time>
  <course>347.11</course>
  <speed>4.9599697579723205</speed>
  <fix>3d</fix>
</trkpt>
<trkpt lat="40.0722635" lon="-105.2282912">
  <ele>1583.0</ele>
  <time>2026-08-28T17:52:41Z</time>
  <course>346.1</course>
  <speed>4.98</speed>
  <fix>3d</fix>
</trkpt>
<trkpt lat="40.0722778" lon="-105.2282955">
  <ele>1583.02</ele>
  <time>2026-08-28T17:52:41Z</time>
  <course>347.11</course>
  <speed>4.9599697579723205</speed>
  <fix>3d</fix>
</trkpt>
<trkpt lat="40.0722722" lon="-105.2282939">
  <ele>1583.0</ele>
  <time>2026-08-28T17:52:41Z</time>
  <course>346.1</course>
  <speed>4.98</speed>
  <fix>3d</fix>
</trkpt>
<trkpt lat="40.0722822" lon="-105.2282969">
  <ele>1583.02</ele>
  <time>2026-08-28T17:52:41Z</time>
  <course>347.13</course>
  <speed>4.9599697579723205</speed>
  <fix>3d</fix>
</trkpt>
<trkpt lat="40.0722722" lon="-105.2282939">
  <ele>1583.0</ele>
  <time>2026-08-28T17:52:41Z</time>
  <course>346.1</course>
  <speed>4.98</speed>
  <fix>3d</fix>
</trkpt>
<trkpt lat="40.0722866" lon="-105.2282983">
  <ele>1583.01</ele>
  <time>2026-08-28T17:52:41Z</time>
  <course>347.13</course>
  <speed>4.9599697579723205</speed>
  <fix>3d</fix>
</trkpt>
<trkpt lat="40.0722809" lon="-105.2282968">
  <ele>1583.0</ele>
  <time>2026-08-28T17:52:41Z</time>
  <course>346.11</course>
  <speed>4.98</speed>
  <fix>3d</fix>
</trkpt>
<trkpt lat="40.0722909" lon="-105.2282998">
  <ele>1583.02</ele>
  <time>2026-08-28T17:52:41Z</time>
  <course>347.13</course>
  <speed>4.9599697579723205</speed>
  <fix>3d</fix>
</trkpt>
<trkpt lat="40.0722809" lon="-105.2282968">
  <ele>1583.0</ele>
  <time>2026-08-28T17:52:41Z</time>
  <course>346.11</course>
  <speed>4.98</speed>
  <fix>3d</fix>
</trkpt>
<trkpt lat="40.0722953" lon="-105.2283012">
  <ele>1583.02</ele>
  <time>2026-08-28T17:52:41Z</time>
  <course>347.15</course>
  <speed>4.9599697579723205</speed>
  <fix>3d</fix>
</trkpt>
<trkpt lat="40.0722809" lon="-105.2282968">
  <ele>1583.0</ele>
  <time>2026-08-28T17:52:41Z</time>
  <course>346.11</course>
  <speed>4.98</speed>
  <fix>3d</fix>
</trkpt>
<trkpt lat="40.0722996" lon="-105.2283026">
  <ele>1583.02</ele>
  <time>2026-08-28T17:52:41Z</time>
  <course>347.15</course>
  <speed>4.9599697579723205</speed>
  <fix>3d</fix>
</trkpt>
<trkpt lat="40.0722896" lon="-105.2282996">
  <ele>1583.0</ele>
  <time>2026-08-28T17:52:41Z</time>
  <course>346.12</course>
  <speed>4.98</speed>
  <fix>3d</fix>
</trkpt>
<trkpt lat="40.072304" lon="-105.228304">
  <ele>1583.02</ele>
  <time>2026-08-28T17:52:41Z</time>
  <course>347.16</course>
  <speed>4.9599697579723205</speed>
  <fix>3d</fix>
</trkpt>
<trkpt lat="40.0722896" lon="-105.2282996">
  <ele>1583.0</ele>
  <time>2026-08-28T17:52:41Z</time>
  <course>346.12</course>
  <speed>4.98</speed>
  <fix>3d</fix>
</trkpt>
<trkpt lat="40.0723083" lon="-105.2283054">
  <ele>1583.03</ele>
  <time>2026-08-28T17:52:41Z</time>
  <course>347.16</course>
  <speed>4.94789854382646</speed>
  <fix>3d</fix>
</trkpt>
<trkpt lat="40.0722983" lon="-105.2283023">
  <ele>1583.0</ele>
  <time>2026-08-28T17:52:41Z</time>
  <course>346.14</course>
  <speed>4.97</speed>
  <fix>3d</fix>
</trkpt>
<trkpt lat="40.0723126" lon="-105.2283067">
  <ele>1583.03</ele>
  <time>2026-08-28T17:52:41Z</time>
  <course>347.19</course>
  <speed>4.94789854382646</speed>
  <fix>3d</fix>
</trkpt>
<trkpt lat="40.0722983" lon="-105.2283023">
  <ele>1583.0</ele>
  <time>2026-08-28T17:52:41Z</time>
  <course>346.14</course>
  <speed>4.97</speed>
  <fix>3d</fix>
</trkpt>
<trkpt lat="40.0723169" lon="-105.2283081">
  <ele>1583.03</ele>
  <time>2026-08-28T17:52:41Z</time>
  <course>347.22</course>
  <speed>4.93817780157823</speed>
  <fix>3d</fix>
</trkpt>
<trkpt lat="40.0723069" lon="-105.2283052">
  <ele>1583.0</ele>
  <time>2026-08-28T17:52:41Z</time>
  <course>346.16</course>
  <speed>4.97</speed>
  <fix>3d</fix>
</trkpt>
<trkpt lat="40.0723212" lon="-105.2283095">
  <ele>1583.03</ele>
  <time>2026-08-28T17:52:41Z</time>
  <course>347.24</course>
  <speed>4.916390952721315</speed>
  <fix>3d</fix>
</trkpt>
<trkpt lat="40.0723156" lon="-105.228308">
  <ele>1583.0</ele>
  <time>2026-08-28T17:52:41Z</time>
  <course>346.19</course>
  <speed>4.95</speed>
  <fix>3d</fix>
</trkpt>
<trkpt lat="40.0723255" lon="-105.2283109">
  <ele>1583.03</ele>
  <time>2026-08-28T17:52:41Z</time>
  <course>347.26</course>
  <speed>4.89694802912998</speed>
  <fix>3d</fix>
</trkpt>
<trkpt lat="40.0723156" lon="-105.228308">
  <ele>1583.0</ele>
  <time>2026-08-28T17:52:41Z</time>
  <course>346.19</course>
  <speed>4.95</speed>
  <fix>3d</fix>
</trkpt>
<trkpt lat="40.0723297" lon="-105.2283123">
  <ele>1583.03</ele>
  <time>2026-08-28T17:52:41Z</time>
  <course>347.29</course>
  <speed>4.87516153578525</speed>
  <fix>3d</fix>
</trkpt>
<trkpt lat="40.0723243" lon="-105.2283107">
  <ele>1583.0</ele>
  <time>2026-08-28T17:52:41Z</time>
  <course>346.24</course>
  <speed>4.92</speed>
  <fix>3d</fix>
</trkpt>
<trkpt lat="40.072334" lon="-105.2283136">
  <ele>1583.03</ele>
  <time>2026-08-28T17:52:41Z</time>
  <course>347.35</course>
  <speed>4.83160428843257</speed>
  <fix>3d</fix>
</trkpt>
<trkpt lat="40.0723243" lon="-105.2283107">
  <ele>1583.0</ele>
  <time>2026-08-28T17:52:41Z</time>
  <course>346.24</course>
  <speed>4.92</speed>
  <fix>3d</fix>
</trkpt>
<trkpt lat="40.0723382" lon="-105.2283149">
  <ele>1583.03</ele>
  <time>2026-08-28T17:52:41Z</time>
  <course>347.39</course>
  <speed>4.790375768141785</speed>
  <fix>3d</fix>
</trkpt>
<trkpt lat="40.0723328" lon="-105.2283134">
  <ele>1583.0</ele>
  <time>2026-08-28T17:52:41Z</time>
  <course>346.31</course>
  <speed>4.85</speed>
  <fix>3d</fix>
</trkpt>
<trkpt lat="40.0723424" lon="-105.2283163">
  <ele>1583.03</ele>
  <time>2026-08-28T17:52:41Z</time>
  <course>347.43</course>
  <speed>4.729693436154187</speed>
  <fix>3d</fix>
</trkpt>
<trkpt lat="40.0723328" lon="-105.2283134">
  <ele>1583.0</ele>
  <time>2026-08-28T17:52:41Z</time>
  <course>346.31</course>
  <speed>4.85</speed>
  <fix>3d</fix>
</trkpt>
<trkpt lat="40.0723465" lon="-105.2283176">
  <ele>1583.03</ele>
  <time>2026-08-28T17:52:41Z</time>
  <course>347.49</course>
  <speed>4.664386347634595</speed>
  <fix>3d</fix>
</trkpt>
<trkpt lat="40.0723412" lon="-105.2283161">
  <ele>1583.0</ele>
  <time>2026-08-28T17:52:41Z</time>
  <course>346.41</course>
  <speed>4.75</speed>
  <fix>3d</fix>
</trkpt>
<trkpt lat="40.0723507" lon="-105.2283189">
  <ele>1583.03</ele>
  <time>2026-08-28T17:52:41Z</time>
  <course>347.53</course>
  <speed>4.581931906958024</speed>
  <fix>3d</fix>
</trkpt>
<trkpt lat="40.0723412" lon="-105.2283161">
  <ele>1583.0</ele>
  <time>2026-08-28T17:52:41Z</time>
  <course>346.41</course>
  <speed>4.75</speed>
  <fix>3d</fix>
</trkpt>
<trkpt lat="40.0723546" lon="-105.2283201">
  <ele>1583.03</ele>
  <time>2026-08-28T17:52:41Z</time>
  <course>347.57</course>
  <speed>4.489743867972871</speed>
  <fix>3d</fix>
</trkpt>
<trkpt lat="40.0723493" lon="-105.2283186">
  <ele>1583.0</ele>
  <time>2026-08-28T17:52:41Z</time>
  <course>346.5</course>
  <speed>4.6</speed>
  <fix>3d</fix>
</trkpt>
<trkpt lat="40.0723586" lon="-105.2283214">
  <ele>1583.03</ele>
  <time>2026-08-28T17:52:41Z</time>
  <course>347.63</course>
  <speed>4.397556139493844</speed>
  <fix>3d</fix>
</trkpt>
<trkpt lat="40.0723493" lon="-105.2283186">
  <ele>1583.0</ele>
  <time>2026-08-28T17:52:41Z</time>
  <course>346.5</course>
  <speed>4.6</speed>
  <fix>3d</fix>
</trkpt>
<trkpt lat="40.0723624" lon="-105.2283225">
  <ele>1583.03</ele>
  <time>2026-08-28T17:52:41Z</time>
  <course>347.67</course>
  <speed>4.283608292082739</speed>
  <fix>3d</fix>
</trkpt>
<trkpt lat="40.0723572" lon="-105.2283212">
  <ele>1583.0</ele>
  <time>2026-08-28T17:52:41Z</time>
  <course>346.58</course>
  <speed>4.41</speed>
  <fix>3d</fix>
</trkpt>
<trkpt lat="40.0723661" lon="-105.2283237">
  <ele>1583.03</ele>
  <time>2026-08-28T17:52:41Z</time>
  <course>347.73</course>
  <speed>4.1696642550689855</speed>
  <fix>3d</fix>
</trkpt>
<trkpt lat="40.0723572" lon="-105.2283212">
  <ele>1583.0</ele>
  <time>2026-08-28T17:52:41Z</time>
  <course>346.58</course>
  <speed>4.41</speed>
  <fix>3d</fix>
</trkpt>
<trkpt lat="40.0723697" lon="-105.2283248">
  <ele>1583.03</ele>
  <time>2026-08-28T17:52:41Z</time>
  <course>347.79</course>
  <speed>4.055724349607601</speed>
  <fix>3d</fix>
</trkpt>
<trkpt lat="40.0723647" lon="-105.2283234">
  <ele>1583.0</ele>
  <time>2026-08-28T17:52:41Z</time>
  <course>346.69</course>
  <speed>4.19</speed>
  <fix>3d</fix>
</trkpt>
<trkpt lat="40.0723732" lon="-105.2283259">
  <ele>1583.03</ele>
  <time>2026-08-28T17:52:41Z</time>
  <course>347.85</course>
  <speed>3.932047812527208</speed>
  <fix>3d</fix>
</trkpt>
<trkpt lat="40.0723647" lon="-105.2283234">
  <ele>1583.0</ele>
  <time>2026-08-28T17:52:41Z</time>
  <course>346.69</course>
  <speed>4.19</speed>
  <fix>3d</fix>
</trkpt>
<trkpt lat="40.0723766" lon="-105.228327">
  <ele>1583.03</ele>
  <time>2026-08-28T17:52:41Z</time>
  <course>347.9</course>
  <speed>3.7986313324669982</speed>
  <fix>3d</fix>
</trkpt>
<trkpt lat="40.0723647" lon="-105.2283234">
  <ele>1583.0</ele>
  <time>2026-08-28T17:52:41Z</time>
  <course>346.69</course>
  <speed>4.19</speed>
  <fix>3d</fix>
</trkpt>
<trkpt lat="40.0723798" lon="-105.228328">
  <ele>1583.03</ele>
  <time>2026-08-28T17:52:41Z</time>
  <course>347.95</course>
  <speed>3.674955782046908</speed>
  <fix>3d</fix>
</trkpt>
<trkpt lat="40.0723719" lon="-105.2283257">
  <ele>1583.0</ele>
  <time>2026-08-28T17:52:41Z</time>
  <course>346.8</course>
  <speed>3.95</speed>
  <fix>3d</fix>
</trkpt>
<trkpt lat="40.072383" lon="-105.2283289">
  <ele>1583.03</ele>
  <time>2026-08-28T17:52:41Z</time>
  <course>348.0</course>
  <speed>3.541539213392956</speed>
  <fix>3d</fix>
</trkpt>
<trkpt lat="40.0723719" lon="-105.2283257">
  <ele>1583.0</ele>
  <time>2026-08-28T17:52:41Z</time>
  <course>346.8</course>
  <speed>3.95</speed>
  <fix>3d</fix>
</trkpt>
<trkpt lat="40.072386" lon="-105.2283298">
  <ele>1583.03</ele>
  <time>2026-08-28T17:52:41Z</time>
  <course>348.05</course>
  <speed>3.417864830563081</speed>
  <fix>3d</fix>
</trkpt>
<trkpt lat="40.0723786" lon="-105.2283277">
  <ele>1583.0</ele>
  <time>2026-08-28T17:52:41Z</time>
  <course>346.9</course>
  <speed>3.7</speed>
  <fix>3d</fix>
</trkpt>
<trkpt lat="40.0723889" lon="-105.2283307">
  <ele>1583.03</ele>
  <time>2026-08-28T17:52:41Z</time>
  <course>348.1</course>
  <speed>3.2844482032755518</speed>
  <fix>3d</fix>
</trkpt>
<trkpt lat="40.0723786" lon="-105.2283277">
  <ele>1583.0</ele>
  <time>2026-08-28T17:52:41Z</time>
  <course>346.9</course>
  <speed>3.7</speed>
  <fix>3d</fix>
</trkpt>
<trkpt lat="40.0723916" lon="-105.2283316">
  <ele>1583.04</ele>
  <time>2026-08-28T17:52:41Z</time>
  <course>348.15</course>
  <speed>3.151031577118833</speed>
  <fix>3d</fix>
</trkpt>
<trkpt lat="40.0723849" lon="-105.2283296">
  <ele>1583.0</ele>
  <time>2026-08-28T17:52:41Z</time>
  <course>347.0</course>
  <speed>3.45</speed>
  <fix>3d</fix>
</trkpt>
<trkpt lat="40.0723943" lon="-105.2283324">
  <ele>1583.04</ele>
  <time>2026-08-28T17:52:41Z</time>
  <course>348.19</course>
  <speed>3.027358584641073</speed>
  <fix>3d</fix>
</trkpt>
<trkpt lat="40.0723849" lon="-105.2283296">
  <ele>1583.0</ele>
  <time>2026-08-28T17:52:41Z</time>
  <course>347.0</course>
  <speed>3.45</speed>
  <fix>3d</fix>
</trkpt>
<trkpt lat="40.0723969" lon="-105.2283332">
  <ele>1583.04</ele>
  <time>2026-08-28T17:52:41Z</time>
  <course>348.24</course>
  <speed>2.89394194827747</speed>
  <fix>3d</fix>
</trkpt>
<trkpt lat="40.0723907" lon="-105.2283314">
  <ele>1583.0</ele>
  <time>2026-08-28T17:52:41Z</time>
  <course>347.09</course>
  <speed>3.2</speed>
  <fix>3d</fix>
</trkpt>
<trkpt lat="40.0723994" lon="-105.2283339">
  <ele>1583.04</ele>
  <time>2026-08-28T17:52:41Z</time>
  <course>348.28</course>
  <speed>2.7702707448911923</speed>
  <fix>3d</fix>
</trkpt>
<trkpt lat="40.0723961" lon="-105.2283329">
  <ele>1583.0</ele>
  <time>2026-08-28T17:52:41Z</time>
  <course>347.17</course>
  <speed>2.95</speed>
  <fix>3d</fix>
</trkpt>
<trkpt lat="40.0724017" lon="-105.2283346">
  <ele>1583.03</ele>
  <time>2026-08-28T17:52:41Z</time>
  <course>348.31</course>
  <speed>2.646601594498122</speed>
  <fix>3d</fix>
</trkpt>
<trkpt lat="40.0723961" lon="-105.2283329">
  <ele>1583.0</ele>
  <time>2026-08-28T17:52:41Z</time>
  <course>347.17</course>
  <speed>2.95</speed>
  <fix>3d</fix>
</trkpt>
<trkpt lat="40.072404" lon="-105.2283353">
  <ele>1583.03</ele>
  <time>2026-08-28T17:52:41Z</time>
  <course>348.35</course>
  <speed>2.532686320885395</speed>
  <fix>3d</fix>
</trkpt>
<trkpt lat="40.0724011" lon="-105.2283344">
  <ele>1583.0</ele>
  <time>2026-08-28T17:52:41Z</time>
  <course>347.25</course>
  <speed>2.71</speed>
  <fix>3d</fix>
</trkpt>
<trkpt lat="40.0724062" lon="-105.2283359">
  <ele>1583.03</ele>
  <time>2026-08-28T17:52:41Z</time>
  <course>348.39</course>
  <speed>2.42099153240981</speed>
  <fix>3d</fix>
</trkpt>
<trkpt lat="40.0724011" lon="-105.2283344">
  <ele>1583.0</ele>
  <time>2026-08-28T17:52:41Z</time>
  <course>347.25</course>
  <speed>2.71</speed>
  <fix>3d</fix>
</trkpt>
<trkpt lat="40.0724082" lon="-105.2283366">
  <ele>1583.03</ele>
  <time>2026-08-28T17:52:41Z</time>
  <course>348.42</course>
  <speed>2.3070760715676455</speed>
  <fix>3d</fix>
</trkpt>
<trkpt lat="40.0724056" lon="-105.2283358">
  <ele>1583.0</ele>
  <time>2026-08-28T17:52:41Z</time>
  <course>347.32</course>
  <speed>2.47</speed>
  <fix>3d</fix>
</trkpt>
<trkpt lat="40.0724102" lon="-105.2283371">
  <ele>1583.02</ele>
  <time>2026-08-28T17:52:41Z</time>
  <course>348.48</course>
  <speed>2.1931712199461306</speed>
  <fix>3d</fix>
</trkpt>
<trkpt lat="40.0724056" lon="-105.2283358">
  <ele>1583.0</ele>
  <time>2026-08-28T17:52:41Z</time>
  <course>347.32</course>
  <speed>2.47</speed>
  <fix>3d</fix>
</trkpt>
<trkpt lat="40.0724121" lon="-105.2283377">
  <ele>1583.02</ele>
  <time>2026-08-28T17:52:41Z</time>
  <course>348.53</course>
  <speed>2.081465829649865</speed>
  <fix>3d</fix>
</trkpt>
<trkpt lat="40.0724098" lon="-105.2283369">
  <ele>1583.0</ele>
  <time>2026-08-28T17:52:41Z</time>
  <course>347.41</course>
  <speed>2.25</speed>
  <fix>3d</fix>
</trkpt>
<trkpt lat="40.0724139" lon="-105.2283382">
  <ele>1583.02</ele>
  <time>2026-08-28T17:52:41Z</time>
  <course>348.59</course>
  <speed>1.977321420508057</speed>
  <fix>3d</fix>
</trkpt>
<trkpt lat="40.0724098" lon="-105.2283369">
  <ele>1583.0</ele>
  <time>2026-08-28T17:52:41Z</time>
  <course>347.41</course>
  <speed>2.25</speed>
  <fix>3d</fix>
</trkpt>
<trkpt lat="40.0724156" lon="-105.2283387">
  <ele>1583.02</ele>
  <time>2026-08-28T17:52:41Z</time>
  <course>348.64</course>
  <speed>1.8656098198712399</speed>
  <fix>3d</fix>
</trkpt>
<trkpt lat="40.0724135" lon="-105.2283381">
  <ele>1583.0</ele>
  <time>2026-08-28T17:52:41Z</time>
  <course>347.52</course>
  <speed>2.04</speed>
  <fix>3d</fix>
</trkpt>
<trkpt lat="40.0724173" lon="-105.2283392">
  <ele>1583.01</ele>
  <time>2026-08-28T17:52:41Z</time>
  <course>348.69</course>
  <speed>1.761476653265663</speed>
  <fix>3d</fix>
</trkpt>
<trkpt lat="40.0724135" lon="-105.2283381">
  <ele>1583.0</ele>
  <time>2026-08-28T17:52:41Z</time>
  <course>347.52</course>
  <speed>2.04</speed>
  <fix>3d</fix>
</trkpt>
<trkpt lat="40.0724188" lon="-105.2283396">
  <ele>1583.01</ele>
  <time>2026-08-28T17:52:41Z</time>
  <course>348.74</course>
  <speed>1.6692812824685959</speed>
  <fix>3d</fix>
</trkpt>
<trkpt lat="40.0724169" lon="-105.2283391">
  <ele>1583.0</ele>
  <time>2026-08-28T17:52:41Z</time>
  <course>347.62</course>
  <speed>1.83</speed>
  <fix>3d</fix>
</trkpt>
<trkpt lat="40.0724202" lon="-105.22834">
  <ele>1583.01</ele>
  <time>2026-08-28T17:52:41Z</time>
  <course>348.81</course>
  <speed>1.567322557739791</speed>
  <fix>3d</fix>
</trkpt>
<trkpt lat="40.0724169" lon="-105.2283391">
  <ele>1583.0</ele>
  <time>2026-08-28T17:52:41Z</time>
  <course>347.62</course>
  <speed>1.83</speed>
  <fix>3d</fix>
</trkpt>
<trkpt lat="40.0724216" lon="-105.2283404">
  <ele>1583.01</ele>
  <time>2026-08-28T17:52:41Z</time>
  <course>348.88</course>
  <speed>1.4632156368765337</speed>
  <fix>3d</fix>
</trkpt>
<trkpt lat="40.0724199" lon="-105.22834">
  <ele>1583.0</ele>
  <time>2026-08-28T17:52:41Z</time>
  <course>347.74</course>
  <speed>1.63</speed>
  <fix>3d</fix>
</trkpt>
<trkpt lat="40.0724229" lon="-105.2283408">
  <ele>1583.01</ele>
  <time>2026-08-28T17:52:41Z</time>
  <course>348.95</course>
  <speed>1.3710215169719258</speed>
  <fix>3d</fix>
</trkpt>
<trkpt lat="40.0724199" lon="-105.22834">
  <ele>1583.0</ele>
  <time>2026-08-28T17:52:41Z</time>
  <course>347.74</course>
  <speed>1.63</speed>
  <fix>3d</fix>
</trkpt>
<trkpt lat="40.072424" lon="-105.2283411">
  <ele>1583.01</ele>
  <time>2026-08-28T17:52:41Z</time>
  <course>349.03</course>
  <speed>1.2690547663517127</speed>
  <fix>3d</fix>
</trkpt>
<trkpt lat="40.0724199" lon="-105.22834">
  <ele>1583.0</ele>
  <time>2026-08-28T17:52:41Z</time>
  <course>347.74</course>
  <speed>1.63</speed>
  <fix>3d</fix>
</trkpt>
<trkpt lat="40.0724251" lon="-105.2283414">
  <ele>1583.01</ele>
  <time>2026-08-28T17:52:41Z</time>
  <course>349.12</course>
  <speed>1.1670903992407786</speed>
  <fix>3d</fix>
</trkpt>
<trkpt lat="40.0724226" lon="-105.2283407">
  <ele>1583.0</ele>
  <time>2026-08-28T17:52:41Z</time>
  <course>347.88</course>
  <speed>1.43</speed>
  <fix>3d</fix>
</trkpt>
<trkpt lat="40.0724261" lon="-105.2283417">
  <ele>1583.01</ele>
  <time>2026-08-28T17:52:41Z</time>
  <course>349.23</course>
  <speed>1.072800074571213</speed>
  <fix>3d</fix>
</trkpt>
<trkpt lat="40.0724226" lon="-105.2283407">
  <ele>1583.0</ele>
  <time>2026-08-28T17:52:41Z</time>
  <course>347.88</course>
  <speed>1.43</speed>
  <fix>3d</fix>
</trkpt>
<trkpt lat="40.0724271" lon="-105.228342">
  <ele>1583.01</ele>
  <time>2026-08-28T17:52:41Z</time>
  <course>349.35</course>
  <speed>0.980612053770501</speed>
  <fix>3d</fix>
</trkpt>
<trkpt lat="40.0724249" lon="-105.2283414">
  <ele>1583.0</ele>
  <time>2026-08-28T17:52:41Z</time>
  <course>348.05</course>
  <speed>1.24</speed>
  <fix>3d</fix>
</trkpt>
<trkpt lat="40.0724279" lon="-105.2283422">
  <ele>1583.01</ele>
  <time>2026-08-28T17:52:41Z</time>
  <course>349.49</course>
  <speed>0.8786353054595518</speed>
  <fix>3d</fix>
</trkpt>
<trkpt lat="40.0724249" lon="-105.2283414">
  <ele>1583.0</ele>
  <time>2026-08-28T17:52:41Z</time>
  <course>348.05</course>
  <speed>1.24</speed>
  <fix>3d</fix>
</trkpt>
<trkpt lat="40.0724286" lon="-105.2283424">
  <ele>1583.01</ele>
  <time>2026-08-28T17:52:41Z</time>
  <course>349.57</course>
  <speed>0.7864477096412705</speed>
  <fix>3d</fix>
</trkpt>
<trkpt lat="40.072427" lon="-105.2283419">
  <ele>1583.0</ele>
  <time>2026-08-28T17:52:41Z</time>
  <course>348.28</course>
  <speed>1.04</speed>
  <fix>3d</fix>
</trkpt>
<trkpt lat="40.0724293" lon="-105.2283426">
  <ele>1583.01</ele>
  <time>2026-08-28T17:52:41Z</time>
  <course>349.78</course>
  <speed>0.6824954212300622</speed>
  <fix>3d</fix>
</trkpt>
<trkpt lat="40.0724287" lon="-105.2283424">
  <ele>1583.0</ele>
  <time>2026-08-28T17:52:41Z</time>
  <course>348.55</course>
  <speed>0.85</speed>
  <fix>3d</fix>
</trkpt>
<trkpt lat="40.0724299" lon="-105.2283427">
  <ele>1583.01</ele>
  <time>2026-08-28T17:52:41Z</time>
  <course>350.25</course>
  <speed>0.5903388857258176</speed>
  <fix>3d</fix>
</trkpt>
<trkpt lat="40.0724287" lon="-105.2283424">
  <ele>1583.0</ele>
  <time>2026-08-28T17:52:41Z</time>
  <course>348.55</course>
  <speed>0.85</speed>
  <fix>3d</fix>
</trkpt>
<trkpt lat="40.0724304" lon="-105.2283428">
  <ele>1583.01</ele>
  <time>2026-08-28T17:52:41Z</time>
  <course>350.88</course>
  <speed>0.498196748283246</speed>
  <fix>3d</fix>
</trkpt>
<trkpt lat="40.07243" lon="-105.2283427">
  <ele>1583.0</ele>
  <time>2026-08-28T17:52:41Z</time>
  <course>349.18</course>
  <speed>0.66</speed>
  <fix>3d</fix>
</trkpt>
<trkpt lat="40.0724308" lon="-105.2283429">
  <ele>1583.01</ele>
  <time>2026-08-28T17:52:41Z</time>
  <course>351.62</course>
  <speed>0.3945883931389772</speed>
  <fix>3d</fix>
</trkpt>
<trkpt lat="40.07243" lon="-105.2283427">
  <ele>1583.0</ele>
  <time>2026-08-28T17:52:41Z</time>
  <course>349.18</course>
  <speed>0.66</speed>
  <fix>3d</fix>
</trkpt>
<trkpt lat="40.0724312" lon="-105.228343">
  <ele>1583.0</ele>
  <time>2026-08-28T17:52:41Z</time>
  <course>352.41</course>
  <speed>0.3026549190084311</speed>
  <fix>3d</fix>
</trkpt>
<trkpt lat="40.072431" lon="-105.2283429">
  <ele>1583.0</ele>
  <time>2026-08-28T17:52:41Z</time>
  <course>350.43</course>
  <speed>0.47</speed>
  <fix>3d</fix>
</trkpt>
<trkpt lat="40.0724314" lon="-105.228343">
  <ele>1583.0</ele>
  <time>2026-08-28T17:52:41Z</time>
  <course>353.18</course>
  <speed>0.2009975124224178</speed>
  <fix>3d</fix>
</trkpt>
<trkpt lat="40.072431" lon="-105.2283429">
  <ele>1583.0</ele>
  <time>2026-08-28T17:52:41Z</time>
  <course>350.43</course>
  <speed>0.47</speed>
  <fix>3d</fix>
</trkpt>
<trkpt lat="40.0724316" lon="-105.228343">
  <ele>1583.0</ele>
  <time>2026-08-28T17:52:41Z</time>
  <course>353.83</course>
  <speed>0.11045361017187261</speed>
  <fix>3d</fix>
</trkpt>
<trkpt lat="40.0724317" lon="-105.228343">
  <ele>1583.0</ele>
  <time>2026-08-28T17:52:41Z</time>
  <course>351.82</course>
  <speed>0.27</speed>
  <fix>3d</fix>
</trkpt>
<trkpt lat="40.0724317" lon="-105.228343">
  <ele>1583.0</ele>
  <time>2026-08-28T17:52:41Z</time>
  <course>354.31</course>
  <speed>0.03</speed>
  <fix>3d</fix>
</trkpt>
<trkpt lat="40.0724317" lon="-105.228343">
  <ele>1583.0</ele>
  <time>2026-08-28T17:52:41Z</time>
  <course>351.82</course>
  <speed>0.27</speed>
  <fix>3d</fix>
</trkpt>
<trkpt lat="40.0724317" lon="-105.228343">
  <ele>1583.0</ele>
  <time>2026-08-28T17:52:41Z</time>
  <course>354.52</course>
  <speed>0.0</speed>
  <fix>3d</fix>
</trkpt>
<trkpt lat="40.0724321" lon="-105.2283431">
  <ele>1583.0</ele>
  <time>2026-08-28T17:52:41Z</time>
  <course>352.95</course>
  <speed>0.12</speed>
  <fix>3d</fix>
</trkpt>
<trkpt lat="40.0724318" lon="-105.228343">
  <ele>1583.0</ele>
  <time>2026-08-28T17:52:41Z</time>
  <course>354.33</course>
  <speed>0.022360679774997897</speed>
  <fix>3d</fix>
</trkpt>
<trkpt lat="40.0724321" lon="-105.2283431">
  <ele>1583.0</ele>
  <time>2026-08-28T17:52:41Z</time>
  <course>352.95</course>
  <speed>0.12</speed>
  <fix>3d</fix>
</trkpt>
<trkpt lat="40.0724318" lon="-105.228343">
  <ele>1583.0</ele>
  <time>2026-08-28T17:52:41Z</time>
  <course>354.16</course>
  <speed>0.022360679774997897</speed>
  <fix>3d</fix>
</trkpt>
<trkpt lat="40.0724322" lon="-105.2283432">
  <ele>1583.0</ele>
  <time>2026-08-28T17:52:41Z</time>
  <course>353.39</course>
  <speed>0.04</speed>
  <fix>3d</fix>
</trkpt>
<trkpt lat="40.0724319" lon="-105.2283431">
  <ele>1583.0</ele>
  <time>2026-08-28T17:52:41Z</time>
  <course>353.94</course>
  <speed>0.01</speed>
  <fix>3d</fix>
</trkpt>
<trkpt lat="40.0724322" lon="-105.2283432">
  <ele>1583.0</ele>
  <time>2026-08-28T17:52:41Z</time>
  <course>353.39</course>
  <speed>0.04</speed>
  <fix>3d</fix>
</trkpt>
<trkpt lat="40.0724319" lon="-105.2283431">
  <ele>1583.0</ele>
  <time>2026-08-28T17:52:41Z</time>
  <course>354.07</course>
  <speed>0.0316227766016838</speed>
  <fix>3d</fix>
</trkpt>
<trkpt lat="40.0724322" lon="-105.2283432">
  <ele>1583.0</ele>
  <time>2026-08-28T17:52:41Z</time>
  <course>353.07</course>
  <speed>0.06</speed>
  <fix>3d</fix>
</trkpt>
<trkpt lat="40.072432" lon="-105.2283431">
  <ele>1583.0</ele>
  <time>2026-08-28T17:52:41Z</time>
  <course>354.75</course>
  <speed>0.09055385138137417</speed>
  <fix>3d</fix>
</trkpt>
<trkpt lat="40.0724322" lon="-105.2283432">
  <ele>1583.0</ele>
  <time>2026-08-28T17:52:41Z</time>
  <course>353.07</course>
  <speed>0.06</speed>
  <fix>3d</fix>
</trkpt>
<trkpt lat="40.0724321" lon="-105.2283431">
  <ele>1583.0</ele>
  <time>2026-08-28T17:52:41Z</time>
  <course>355.77</course>
  <speed>0.16031219541881397</speed>
  <fix>3d</fix>
</trkpt>
<trkpt lat="40.0724322" lon="-105.2283432">
  <ele>1583.0</ele>
  <time>2026-08-28T17:52:41Z</time>
  <course>353.07</course>
  <speed>0.06</speed>
  <fix>3d</fix>
</trkpt>
<trkpt lat="40.0724324" lon="-105.2283431">
  <ele>1583.0</ele>
  <time>2026-08-28T17:52:41Z</time>
  <course>357.16</course>
  <speed>0.24020824298928628</speed>
  <fix>3d</fix>
</trkpt>
<trkpt lat="40.0724324" lon="-105.2283432">
  <ele>1583.0</ele>
  <time>2026-08-28T17:52:41Z</time>
  <course>354.19</course>
  <speed>0.15</speed>
  <fix>3d</fix>
</trkpt>
<trkpt lat="40.0724327" lon="-105.2283431">
  <ele>1583.0</ele>
  <time>2026-08-28T17:52:41Z</time>
  <course>358.93</course>
  <speed>0.3306055050963308</speed>
  <fix>3d</fix>
</trkpt>
<trkpt lat="40.0724324" lon="-105.2283432">
  <ele>1583.0</ele>
  <time>2026-08-28T17:52:41Z</time>
  <course>354.19</course>
  <speed>0.15</speed>
  <fix>3d</fix>
</trkpt>
<trkpt lat="40.0724331" lon="-105.2283431">
  <ele>1583.0</ele>
  <time>2026-08-28T17:52:41Z</time>
  <course>1.05</course>
  <speed>0.4219004621945798</speed>
  <fix>3d</fix>
</trkpt>
<trkpt lat="40.0724328" lon="-105.2283432">
  <ele>1583.0</ele>
  <time>2026-08-28T17:52:41Z</time>
  <course>356.71</course>
  <speed>0.3</speed>
  <fix>3d</fix>
</trkpt>
<trkpt lat="40.0724335" lon="-105.228343">
  <ele>1583.0</ele>
  <time>2026-08-28T17:52:41Z</time>
  <course>3.45</course>
  <speed>0.5135172830587107</speed>
  <fix>3d</fix>
</trkpt>
<trkpt lat="40.0724328" lon="-105.2283432">
  <ele>1583.0</ele>
  <time>2026-08-28T17:52:41Z</time>
  <course>356.71</course>
  <speed>0.3</speed>
  <fix>3d</fix>
</trkpt>
<trkpt lat="40.0724341" lon="-105.228343">
  <ele>1582.99</ele>
  <time>2026-08-28T17:52:41Z</time>
  <course>6.05</course>
  <speed>0.6181423784210236</speed>
  <fix>3d</fix>
</trkpt>
<trkpt lat="40.0724335" lon="-105.2283432">
  <ele>1583.0</ele>
  <time>2026-08-28T17:52:41Z</time>
  <course>0.56</course>
  <speed>0.47</speed>
  <fix>3d</fix>
</trkpt>
<trkpt lat="40.0724347" lon="-105.2283428">
  <ele>1582.99</ele>
  <time>2026-08-28T17:52:41Z</time>
  <course>8.67</course>
  <speed>0.7158910531638176</speed>
  <fix>3d</fix>
</trkpt>
<trkpt lat="40.0724335" lon="-105.2283432">
  <ele>1583.0</ele>
  <time>2026-08-28T17:52:41Z</time>
  <course>0.56</course>
  <speed>0.47</speed>
  <fix>3d</fix>
</trkpt>
<trkpt lat="40.0724355" lon="-105.2283427">
  <ele>1582.99</ele>
  <time>2026-08-28T17:52:41Z</time>
  <course>11.22</course>
  <speed>0.8149233092751734</speed>
  <fix>3d</fix>
</trkpt>
<trkpt lat="40.0724346" lon="-105.2283432">
  <ele>1583.0</ele>
  <time>2026-08-28T17:52:41Z</time>
  <course>5.37</course>
  <speed>0.65</speed>
  <fix>3d</fix>
</trkpt>
<trkpt lat="40.0724363" lon="-105.2283424">
  <ele>1582.99</ele>
  <time>2026-08-28T17:52:41Z</time>
  <course>13.59</course>
  <speed>0.9080198235721508</speed>
  <fix>3d</fix>
</trkpt>
<trkpt lat="40.0724359" lon="-105.228343">
  <ele>1583.0</ele>
  <time>2026-08-28T17:52:41Z</time>
  <course>10.32</course>
  <speed>0.84</speed>
  <fix>3d</fix>
</trkpt>
<trkpt lat="40.0724372" lon="-105.2283421">
  <ele>1582.99</ele>
  <time>2026-08-28T17:52:41Z</time>
  <course>15.75</course>
  <speed>1.0119288512538815</speed>
  <fix>3d</fix>
</trkpt>
<trkpt lat="40.0724359" lon="-105.228343">
  <ele>1583.0</ele>
  <time>2026-08-28T17:52:41Z</time>
  <course>10.32</course>
  <speed>0.84</speed>
  <fix>3d</fix>
</trkpt>
<trkpt lat="40.0724381" lon="-105.2283417">
  <ele>1582.99</ele>
  <time>2026-08-28T17:52:41Z</time>
  <course>17.6</course>
  <speed>1.094440496326776</speed>
  <fix>3d</fix>
</trkpt>
<trkpt lat="40.0724375" lon="-105.2283425">
  <ele>1583.0</ele>
  <time>2026-08-28T17:52:41Z</time>
  <course>14.69</course>
  <speed>1.02</speed>
  <fix>3d</fix>
</trkpt>
<trkpt lat="40.0724392" lon="-105.2283413">
  <ele>1582.99</ele>
  <time>2026-08-28T17:52:41Z</time>
  <course>19.15</course>
  <speed>1.1903780911962385</speed>
  <fix>3d</fix>
</trkpt>
<trkpt lat="40.0724375" lon="-105.2283425">
  <ele>1583.0</ele>
  <time>2026-08-28T17:52:41Z</time>
  <course>14.69</course>
  <speed>1.02</speed>
  <fix>3d</fix>
</trkpt>
<trkpt lat="40.0724403" lon="-105.2283408">
  <ele>1582.99</ele>
  <time>2026-08-28T17:52:41Z</time>
  <course>20.46</course>
  <speed>1.2776932339180638</speed>
  <fix>3d</fix>
</trkpt>
<trkpt lat="40.0724394" lon="-105.2283418">
  <ele>1583.0</ele>
  <time>2026-08-28T17:52:41Z</time>
  <course>18.06</course>
  <speed>1.19</speed>
  <fix>3d</fix>
</trkpt>
<trkpt lat="40.0724414" lon="-105.2283402">
  <ele>1582.99</ele>
  <time>2026-08-28T17:52:41Z</time>
  <course>21.56</course>
  <speed>1.361653406708183</speed>
  <fix>3d</fix>
</trkpt>
<trkpt lat="40.0724394" lon="-105.2283418">
  <ele>1583.0</ele>
  <time>2026-08-28T17:52:41Z</time>
  <course>18.06</course>
  <speed>1.19</speed>
  <fix>3d</fix>
</trkpt>
<trkpt lat="40.0724426" lon="-105.2283396">
  <ele>1582.99</ele>
  <time>2026-08-28T17:52:41Z</time>
  <course>22.51</course>
  <speed>1.445856147754679</speed>
  <fix>3d</fix>
</trkpt>
<trkpt lat="40.0724416" lon="-105.2283408">
  <ele>1583.0</ele>
  <time>2026-08-28T17:52:41Z</time>
  <course>20.47</course>
  <speed>1.35</speed>
  <fix>3d</fix>
</trkpt>
<trkpt lat="40.0724439" lon="-105.2283389">
  <ele>1582.99</ele>
  <time>2026-08-28T17:52:41Z</time>
  <course>23.31</course>
  <speed>1.5211837495845133</speed>
  <fix>3d</fix>
</trkpt>
<trkpt lat="40.0724416" lon="-105.2283408">
  <ele>1583.0</ele>
  <time>2026-08-28T17:52:41Z</time>
  <course>20.47</course>
  <speed>1.35</speed>
  <fix>3d</fix>
</trkpt>
<trkpt lat="40.0724453" lon="-105.2283382">
  <ele>1582.99</ele>
  <time>2026-08-28T17:52:41Z</time>
  <course>23.99</course>
  <speed>1.605801980320114</speed>
  <fix>3d</fix>
</trkpt>
<trkpt lat="40.072444" lon="-105.2283396">
  <ele>1583.0</ele>
  <time>2026-08-28T17:52:41Z</time>
  <course>22.23</course>
  <speed>1.51</speed>
  <fix>3d</fix>
</trkpt>
<trkpt lat="40.0724467" lon="-105.2283374">
  <ele>1582.99</ele>
  <time>2026-08-28T17:52:41Z</time>
  <course>24.58</course>
  <speed>1.690562036720333</speed>
  <fix>3d</fix>
</trkpt>
<trkpt lat="40.072444" lon="-105.2283396">
  <ele>1583.0</ele>
  <time>2026-08-28T17:52:41Z</time>
  <course>22.23</course>
  <speed>1.51</speed>
  <fix>3d</fix>
</trkpt>
<trkpt lat="40.0724481" lon="-105.2283365">
  <ele>1582.99</ele>
  <time>2026-08-28T17:52:41Z</time>
  <course>25.09</course>
  <speed>1.7620442673213406</speed>
  <fix>3d</fix>
</trkpt>
<trkpt lat="40.0724466" lon="-105.2283381">
  <ele>1583.0</ele>
  <time>2026-08-28T17:52:41Z</time>
  <course>23.52</course>
  <speed>1.66</speed>
  <fix>3d</fix>
</trkpt>
<trkpt lat="40.0724496" lon="-105.2283356">
  <ele>1582.99</ele>
  <time>2026-08-28T17:52:41Z</time>
  <course>25.54</course>
  <speed>1.8425254408012932</speed>
  <fix>3d</fix>
</trkpt>
<trkpt lat="40.0724466" lon="-105.2283381">
  <ele>1583.0</ele>
  <time>2026-08-28T17:52:41Z</time>
  <course>23.52</course>
  <speed>1.66</speed>
  <fix>3d</fix>
</trkpt>
<trkpt lat="40.0724512" lon="-105.2283347">
  <ele>1582.99</ele>
  <time>2026-08-28T17:52:41Z</time>
  <course>25.93</course>
  <speed>1.9185932346383379</speed>
  <fix>3d</fix>
</trkpt>
<trkpt lat="40.0724466" lon="-105.2283381">
  <ele>1583.0</ele>
  <time>2026-08-28T17:52:41Z</time>
  <course>23.52</course>
  <speed>1.66</speed>
  <fix>3d</fix>
</trkpt>
<trkpt lat="40.0724528" lon="-105.2283337">
  <ele>1582.99</ele>
  <time>2026-08-28T17:52:41Z</time>
  <course>26.26</course>
  <speed>1.999124808509964</speed>
  <fix>3d</fix>
</trkpt>
<trkpt lat="40.0724495" lon="-105.2283365">
  <ele>1583.0</ele>
  <time>2026-08-28T17:52:41Z</time>
  <course>24.5</course>
  <speed>1.82</speed>
  <fix>3d</fix>
</trkpt>
<trkpt lat="40.0724544" lon="-105.2283327">
  <ele>1582.98</ele>
  <time>2026-08-28T17:52:41Z</time>
  <course>26.56</course>
  <speed>2.079663434308542</speed>
  <fix>3d</fix>
</trkpt>
<trkpt lat="40.0724495" lon="-105.2283365">
  <ele>1583.0</ele>
  <time>2026-08-28T17:52:41Z</time>
  <course>24.5</course>
  <speed>1.82</speed>
  <fix>3d</fix>
</trkpt>
<trkpt lat="40.0724561" lon="-105.2283316">
  <ele>1582.98</ele>
  <time>2026-08-28T17:52:41Z</time>
  <course>26.82</course>
  <speed>2.1648094604375694</speed>
  <fix>3d</fix>
</trkpt>
<trkpt lat="40.0724526" lon="-105.2283346">
  <ele>1583.0</ele>
  <time>2026-08-28T17:52:41Z</time>
  <course>25.25</course>
  <speed>1.97</speed>
  <fix>3d</fix>
</trkpt>
<trkpt lat="40.0724579" lon="-105.2283305">
  <ele>1582.98</ele>
  <time>2026-08-28T17:52:41Z</time>
  <course>27.05</course>
  <speed>2.245373020235168</speed>
  <fix>3d</fix>
</trkpt>
<trkpt lat="40.0724526" lon="-105.2283346">
  <ele>1583.0</ele>
  <time>2026-08-28T17:52:41Z</time>
  <course>25.25</course>
  <speed>1.97</speed>
  <fix>3d</fix>
</trkpt>
<trkpt lat="40.0724598" lon="-105.2283293">
  <ele>1582.98</ele>
  <time>2026-08-28T17:52:41Z</time>
  <course>27.25</course>
  <speed>2.3259406699226015</speed>
  <fix>3d</fix>
</trkpt>
<trkpt lat="40.0724559" lon="-105.2283324">
  <ele>1583.0</ele>
  <time>2026-08-28T17:52:41Z</time>
  <course>25.83</course>
  <speed>2.13</speed>
  <fix>3d</fix>
</trkpt>
<trkpt lat="40.0724616" lon="-105.2283281">
  <ele>1582.98</ele>
  <time>2026-08-28T17:52:41Z</time>
  <course>27.43</course>
  <speed>2.4111822826157296</speed>
  <fix>3d</fix>
</trkpt>
<trkpt lat="40.0724559" lon="-105.2283324">
  <ele>1583.0</ele>
  <time>2026-08-28T17:52:41Z</time>
  <course>25.83</course>
  <speed>2.13</speed>
  <fix>3d</fix>
</trkpt>
<trkpt lat="40.0724636" lon="-105.2283268">
  <ele>1582.98</ele>
  <time>2026-08-28T17:52:41Z</time>
  <course>27.59</course>
  <speed>2.500599928017275</speed>
  <fix>3d</fix>
</trkpt>
<trkpt lat="40.0724595" lon="-105.2283302">
  <ele>1583.0</ele>
  <time>2026-08-28T17:52:41Z</time>
  <course>26.28</course>
  <speed>2.29</speed>
  <fix>3d</fix>
</trkpt>
<trkpt lat="40.0724657" lon="-105.2283255">
  <ele>1582.97</ele>
  <time>2026-08-28T17:52:41Z</time>
  <course>27.74</course>
  <speed>2.5811818998280613</speed>
  <fix>3d</fix>
</trkpt>
<trkpt lat="40.0724634" lon="-105.2283277">
  <ele>1583.0</ele>
  <time>2026-08-28T17:52:41Z</time>
  <course>26.65</course>
  <speed>2.46</speed>
  <fix>3d</fix>
</trkpt>
<trkpt lat="40.0724678" lon="-105.2283241">
  <ele>1582.97</ele>
  <time>2026-08-28T17:52:41Z</time>
  <course>27.86</course>
  <speed>2.6752943763257155</speed>
  <fix>3d</fix>
</trkpt>
<trkpt lat="40.0724634" lon="-105.2283277">
  <ele>1583.0</ele>
  <time>2026-08-28T17:52:41Z</time>
  <course>26.65</course>
  <speed>2.46</speed>
  <fix>3d</fix>
</trkpt>
<trkpt lat="40.07247" lon="-105.2283227">
  <ele>1582.97</ele>
  <time>2026-08-28T17:52:41Z</time>
  <course>27.98</course>
  <speed>2.7694223224347705</speed>
  <fix>3d</fix>
</trkpt>
<trkpt lat="40.0724675" lon="-105.228325">
  <ele>1583.0</ele>
  <time>2026-08-28T17:52:41Z</time>
  <course>26.95</course>
  <speed>2.64</speed>
  <fix>3d</fix>
</trkpt>
<trkpt lat="40.0724722" lon="-105.2283212">
  <ele>1582.97</ele>
  <time>2026-08-28T17:52:41Z</time>
  <course>28.08</course>
  <speed>2.867647119155354</speed>
  <fix>3d</fix>
</trkpt>
<trkpt lat="40.0724675" lon="-105.228325">
  <ele>1583.0</ele>
  <time>2026-08-28T17:52:41Z</time>
  <course>26.95</course>
  <speed>2.64</speed>
  <fix>3d</fix>
</trkpt>
<trkpt lat="40.0724746" lon="-105.2283196">
  <ele>1582.97</ele>
  <time>2026-08-28T17:52:41Z</time>
  <course>28.17</course>
  <speed>2.9617731175766995</speed>
  <fix>3d</fix>
</trkpt>
<trkpt lat="40.0724718" lon="-105.228322">
  <ele>1583.0</ele>
  <time>2026-08-28T17:52:41Z</time>
  <course>27.18</course>
  <speed>2.83</speed>
  <fix>3d</fix>
</trkpt>
<trkpt lat="40.072477" lon="-105.228318">
  <ele>1582.97</ele>
  <time>2026-08-28T17:52:41Z</time>
  <course>28.25</course>
  <speed>3.064718584144391</speed>
  <fix>3d</fix>
</trkpt>
<trkpt lat="40.0724718" lon="-105.228322">
  <ele>1583.0</ele>
  <time>2026-08-28T17:52:41Z</time>
  <course>27.18</course>
  <speed>2.83</speed>
  <fix>3d</fix>
</trkpt>
<trkpt lat="40.0724795" lon="-105.2283163">
  <ele>1582.97</ele>
  <time>2026-08-28T17:52:41Z</time>
  <course>28.32</course>
  <speed>3.1588605540605936</speed>
  <fix>3d</fix>
</trkpt>
<trkpt lat="40.0724765" lon="-105.2283189">
  <ele>1583.0</ele>
  <time>2026-08-28T17:52:41Z</time>
  <course>27.37</course>
  <speed>3.02</speed>
  <fix>3d</fix>
</trkpt>
<trkpt lat="40.0724821" lon="-105.2283145">
  <ele>1582.97</ele>
  <time>2026-08-28T17:52:41Z</time>
  <course>28.4</course>
  <speed>3.261809313862477</speed>
  <fix>3d</fix>
</trkpt>
<trkpt lat="40.0724765" lon="-105.2283189">
  <ele>1583.0</ele>
  <time>2026-08-28T17:52:41Z</time>
  <course>27.37</course>
  <speed>3.02</speed>
  <fix>3d</fix>
</trkpt>
<trkpt lat="40.0724848" lon="-105.2283127">
  <ele>1582.97</ele>
  <time>2026-08-28T17:52:41Z</time>
  <course>28.45</course>
  <speed>3.360014880919428</speed>
  <fix>3d</fix>
</trkpt>
<trkpt lat="40.0724814" lon="-105.2283155">
  <ele>1583.0</ele>
  <time>2026-08-28T17:52:41Z</time>
  <course>27.52</course>
  <speed>3.21</speed>
  <fix>3d</fix>
</trkpt>
<trkpt lat="40.0724875" lon="-105.2283109">
  <ele>1582.98</ele>
  <time>2026-08-28T17:52:41Z</time>
  <course>28.48</course>
  <speed>3.4629611606253974</speed>
  <fix>3d</fix>
</trkpt>
<trkpt lat="40.0724814" lon="-105.2283155">
  <ele>1583.0</ele>
  <time>2026-08-28T17:52:41Z</time>
  <course>27.52</course>
  <speed>3.21</speed>
  <fix>3d</fix>
</trkpt>
<trkpt lat="40.0724903" lon="-105.2283089">
  <ele>1582.98</ele>
  <time>2026-08-28T17:52:41Z</time>
  <course>28.52</course>
  <speed>3.5571055649221317</speed>
  <fix>3d</fix>
</trkpt>
<trkpt lat="40.0724867" lon="-105.2283119">
  <ele>1583.0</ele>
  <time>2026-08-28T17:52:41Z</time>
  <course>27.64</course>
  <speed>3.41</speed>
  <fix>3d</fix>
</trkpt>
<trkpt lat="40.0724932" lon="-105.228307">
  <ele>1582.98</ele>
  <time>2026-08-28T17:52:41Z</time>
  <course>28.56</course>
  <speed>3.660054644400818</speed>
  <fix>3d</fix>
</trkpt>
<trkpt lat="40.0724867" lon="-105.2283119">
  <ele>1583.0</ele>
  <time>2026-08-28T17:52:41Z</time>
  <course>27.64</course>
  <speed>3.41</speed>
  <fix>3d</fix>
</trkpt>
<trkpt lat="40.0724962" lon="-105.2283049">
  <ele>1582.98</ele>
  <time>2026-08-28T17:52:41Z</time>
  <course>28.61</course>
  <speed>3.763004119051692</speed>
  <fix>3d</fix>
</trkpt>
<trkpt lat="40.0724924" lon="-105.2283081">
  <ele>1583.0</ele>
  <time>2026-08-28T17:52:41Z</time>
  <course>27.73</course>
  <speed>3.61</speed>
  <fix>3d</fix>
</trkpt>
<trkpt lat="40.0724992" lon="-105.2283029">
  <ele>1582.98</ele>
  <time>2026-08-28T17:52:41Z</time>
  <course>28.65</course>
  <speed>3.865953957304717</speed>
  <fix>3d</fix>
</trkpt>
<trkpt lat="40.0724924" lon="-105.2283081">
  <ele>1583.0</ele>
  <time>2026-08-28T17:52:41Z</time>
  <course>27.73</course>
  <speed>3.61</speed>
  <fix>3d</fix>
</trkpt>
<trkpt lat="40.0725023" lon="-105.2283007">
  <ele>1582.98</ele>
  <time>2026-08-28T17:52:41Z</time>
  <course>28.69</course>
  <speed>3.9689041308653454</speed>
  <fix>3d</fix>
</trkpt>
<trkpt lat="40.0724924" lon="-105.2283081">
  <ele>1583.0</ele>
  <time>2026-08-28T17:52:41Z</time>
  <course>27.73</course>
  <speed>3.61</speed>
  <fix>3d</fix>
</trkpt>
<trkpt lat="40.0725055" lon="-105.2282985">
  <ele>1582.98</ele>
  <time>2026-08-28T17:52:41Z</time>
  <course>28.71</course>
  <speed>4.067099703720085</speed>
  <fix>3d</fix>
</trkpt>
<trkpt lat="40.0724983" lon="-105.2283041">
  <ele>1583.0</ele>
  <time>2026-08-28T17:52:41Z</time>
  <course>27.83</course>
  <speed>3.81</speed>
  <fix>3d</fix>
</trkpt>
<trkpt lat="40.0725088" lon="-105.2282963">
  <ele>1582.98</ele>
  <time>2026-08-28T17:52:41Z</time>
  <course>28.7</course>
  <speed>4.170047961354881</speed>
  <fix>3d</fix>
</trkpt>
<trkpt lat="40.0724983" lon="-105.2283041">
  <ele>1583.0</ele>
  <time>2026-08-28T17:52:41Z</time>
  <course>27.83</course>
  <speed>3.81</speed>
  <fix>3d</fix>
</trkpt>
<trkpt lat="40.0725121" lon="-105.228294">
  <ele>1582.99</ele>
  <time>2026-08-28T17:52:41Z</time>
  <course>28.7</course>
  <speed>4.272996606598231</speed>
  <fix>3d</fix>
</trkpt>
<trkpt lat="40.0725044" lon="-105.2282997">
  <ele>1583.0</ele>
  <time>2026-08-28T17:52:41Z</time>
  <course>27.89</course>
  <speed>4.02</speed>
  <fix>3d</fix>
</trkpt>
<trkpt lat="40.0725155" lon="-105.2282917">
  <ele>1582.99</ele>
  <time>2026-08-28T17:52:41Z</time>
  <course>28.69</course>
  <speed>4.371201207906129</speed>
  <fix>3d</fix>
</trkpt>
<trkpt lat="40.0725044" lon="-105.2282997">
  <ele>1583.0</ele>
  <time>2026-08-28T17:52:41Z</time>
  <course>27.89</course>
  <speed>4.02</speed>
  <fix>3d</fix>
</trkpt>
<trkpt lat="40.0725189" lon="-105.2282893">
  <ele>1582.99</ele>
  <time>2026-08-28T17:52:41Z</time>
  <course>28.68</course>
  <speed>4.4741479635792105</speed>
  <fix>3d</fix>
</trkpt>
<trkpt lat="40.072511" lon="-105.2282951">
  <ele>1583.0</ele>
  <time>2026-08-28T17:52:41Z</time>
  <course>27.91</course>
  <speed>4.22</speed>
  <fix>3d</fix>
</trkpt>
<trkpt lat="40.0725225" lon="-105.2282868">
  <ele>1582.99</ele>
  <time>2026-08-28T17:52:41Z</time>
  <course>28.69</course>
  <speed>4.577095148672354</speed>
  <fix>3d</fix>
</trkpt>
<trkpt lat="40.0725179" lon="-105.2282904">
  <ele>1583.0</ele>
  <time>2026-08-28T17:52:41Z</time>
  <course>27.92</course>
  <speed>4.43</speed>
  <fix>3d</fix>
</trkpt>
<trkpt lat="40.0725262" lon="-105.2282843">
  <ele>1582.99</ele>
  <time>2026-08-28T17:52:41Z</time>
  <course>28.7</course>
  <speed>4.666497615985676</speed>
  <fix>3d</fix>
</trkpt>
<trkpt lat="40.0725179" lon="-105.2282904">
  <ele>1583.0</ele>
  <time>2026-08-28T17:52:41Z</time>
  <course>27.92</course>
  <speed>4.43</speed>
  <fix>3d</fix>
</trkpt>
<trkpt lat="40.0725299" lon="-105.2282817">
  <ele>1582.99</ele>
  <time>2026-08-28T17:52:41Z</time>
  <course>28.69</course>
  <speed>4.7694444120882675</speed>
  <fix>3d</fix>
</trkpt>
<trkpt lat="40.0725251" lon="-105.2282854">
  <ele>1583.0</ele>
  <time>2026-08-28T17:52:41Z</time>
  <course>27.94</course>
  <speed>4.63</speed>
  <fix>3d</fix>
</trkpt>
<trkpt lat="40.0725337" lon="-105.2282791">
  <ele>1582.99</ele>
  <time>2026-08-28T17:52:41Z</time>
  <course>28.7</course>
  <speed>4.8588475999973495</speed>
  <fix>3d</fix>
</trkpt>
<trkpt lat="40.0725251" lon="-105.2282854">
  <ele>1583.0</ele>
  <time>2026-08-28T17:52:41Z</time>
  <course>27.94</course>
  <speed>4.63</speed>
  <fix>3d</fix>
</trkpt>
<trkpt lat="40.0725376" lon="-105.2282764">
  <ele>1582.99</ele>
  <time>2026-08-28T17:52:41Z</time>
  <course>28.71</course>
  <speed>4.948252216692273</speed>
  <fix>3d</fix>
</trkpt>
<trkpt lat="40.0725326" lon="-105.2282802">
  <ele>1583.0</ele>
  <time>2026-08-28T17:52:41Z</time>
  <course>27.96</course>
  <speed>4.82</speed>
  <fix>3d</fix>
</trkpt>
<trkpt lat="40.0725416" lon="-105.2282736">
  <ele>1582.99</ele>
  <time>2026-08-28T17:52:41Z</time>
  <course>28.74</course>
  <speed>5.028846786292061</speed>
  <fix>3d</fix>
</trkpt>
<trkpt lat="40.0725326" lon="-105.2282802">
  <ele>1583.0</ele>
  <time>2026-08-28T17:52:41Z</time>
  <course>27.96</course>
  <speed>4.82</speed>
  <fix>3d</fix>
</trkpt>
<trkpt lat="40.0725456" lon="-105.2282708">
  <ele>1582.99</ele>
  <time>2026-08-28T17:52:41Z</time>
  <course>28.76</course>
  <speed>5.1006372150938155</speed>
  <fix>3d</fix>
</trkpt>
<trkpt lat="40.0725404" lon="-105.2282748">
  <ele>1583.0</ele>
  <time>2026-08-28T17:52:41Z</time>
  <course>28.0</course>
  <speed>4.98</speed>
  <fix>3d</fix>
</trkpt>
<trkpt lat="40.0725497" lon="-105.228268">
  <ele>1582.99</ele>
  <time>2026-08-28T17:52:41Z</time>
  <course>28.77</course>
  <speed>5.1588855385635375</speed>
  <fix>3d</fix>
</trkpt>
<trkpt lat="40.0725404" lon="-105.2282748">
  <ele>1583.0</ele>
  <time>2026-08-28T17:52:41Z</time>
  <course>28.0</course>
  <speed>4.98</speed>
  <fix>3d</fix>
</trkpt>
<trkpt lat="40.0725539" lon="-105.2282651">
  <ele>1582.99</ele>
  <time>2026-08-28T17:52:41Z</time>
  <course>28.8</course>
  <speed>5.203585302462139</speed>
  <fix>3d</fix>
</trkpt>
<trkpt lat="40.0725484" lon="-105.2282692">
  <ele>1583.0</ele>
  <time>2026-08-28T17:52:41Z</time>
  <course>28.04</course>
  <speed>5.11</speed>
  <fix>3d</fix>
</trkpt>
<trkpt lat="40.072558" lon="-105.2282622">
  <ele>1582.98</ele>
  <time>2026-08-28T17:52:41Z</time>
  <course>28.84</course>
  <speed>5.239484707487942</speed>
  <fix>3d</fix>
</trkpt>
<trkpt lat="40.0725484" lon="-105.2282692">
  <ele>1583.0</ele>
  <time>2026-08-28T17:52:41Z</time>
  <course>28.04</course>
  <speed>5.11</speed>
  <fix>3d</fix>
</trkpt>
<trkpt lat="40.0725622" lon="-105.2282593">
  <ele>1582.98</ele>
  <time>2026-08-28T17:52:41Z</time>
  <course>28.83</course>
  <speed>5.261834280932838</speed>
  <fix>3d</fix>
</trkpt>
<trkpt lat="40.0725566" lon="-105.2282635">
  <ele>1583.0</ele>
  <time>2026-08-28T17:52:41Z</time>
  <course>28.09</course>
  <speed>5.19</speed>
  <fix>3d</fix>
</trkpt>
<trkpt lat="40.0725664" lon="-105.2282564">
  <ele>1582.98</ele>
  <time>2026-08-28T17:52:41Z</time>
  <course>28.86</course>
  <speed>5.270635635291061</speed>
  <fix>3d</fix>
</trkpt>
<trkpt lat="40.0725566" lon="-105.2282635">
  <ele>1583.0</ele>
  <time>2026-08-28T17:52:41Z</time>
  <course>28.09</course>
  <speed>5.19</speed>
  <fix>3d</fix>
</trkpt>
<trkpt lat="40.0725706" lon="-105.2282535">
  <ele>1582.98</ele>
  <time>2026-08-28T17:52:41Z</time>
  <course>28.87</course>
  <speed>5.279441258315126</speed>
  <fix>3d</fix>
</trkpt>
<trkpt lat="40.0725648" lon="-105.2282578">
  <ele>1583.0</ele>
  <time>2026-08-28T17:52:41Z</time>
  <course>28.13</course>
  <speed>5.23</speed>
  <fix>3d</fix>
</trkpt>
<trkpt lat="40.0725747" lon="-105.2282506">
  <ele>1582.98</ele>
  <time>2026-08-28T17:52:41Z</time>
  <course>28.88</course>
  <speed>5.270635635291061</speed>
  <fix>3d</fix>
</trkpt>
<trkpt lat="40.0725648" lon="-105.2282578">
  <ele>1583.0</ele>
  <time>2026-08-28T17:52:41Z</time>
  <course>28.13</course>
  <speed>5.23</speed>
  <fix>3d</fix>
</trkpt>
<trkpt lat="40.0725789" lon="-105.2282477">
  <ele>1582.98</ele>
  <time>2026-08-28T17:52:41Z</time>
  <course>28.91</course>
  <speed>5.248285434310905</speed>
  <fix>3d</fix>
</trkpt>
<trkpt lat="40.0725648" lon="-105.2282578">
  <ele>1583.0</ele>
  <time>2026-08-28T17:52:41Z</time>
  <course>28.13</course>
  <speed>5.23</speed>
  <fix>3d</fix>
</trkpt>
<trkpt lat="40.072583" lon="-105.2282448">
  <ele>1582.98</ele>
  <time>2026-08-28T17:52:41Z</time>
  <course>28.91</course>
  <speed>5.2259353229828625</speed>
  <fix>3d</fix>
</trkpt>
<trkpt lat="40.0725732" lon="-105.228252">
  <ele>1583.0</ele>
  <time>2026-08-28T17:52:41Z</time>
  <course>28.17</course>
  <speed>5.22</speed>
  <fix>3d</fix>
</trkpt>
<trkpt lat="40.0725871" lon="-105.228242">
  <ele>1582.98</ele>
  <time>2026-08-28T17:52:41Z</time>
  <course>28.93</course>
  <speed>5.203585302462139</speed>
  <fix>3d</fix>
</trkpt>
<trkpt lat="40.0725732" lon="-105.228252">
  <ele>1583.0</ele>
  <time>2026-08-28T17:52:41Z</time>
  <course>28.17</course>
  <speed>5.22</speed>
  <fix>3d</fix>
</trkpt>
<trkpt lat="40.0725911" lon="-105.2282392">
  <ele>1582.99</ele>
  <time>2026-08-28T17:52:41Z</time>
  <course>28.93</course>
  <speed>5.16768807108169</speed>
  <fix>3d</fix>
</trkpt>
<trkpt lat="40.0725815" lon="-105.2282462">
  <ele>1583.0</ele>
  <time>2026-08-28T17:52:41Z</time>
  <course>28.21</course>
  <speed>5.19</speed>
  <fix>3d</fix>
</trkpt>
<trkpt lat="40.0725952" lon="-105.2282363">
  <ele>1582.99</ele>
  <time>2026-08-28T17:52:41Z</time>
  <course>28.95</course>
  <speed>5.13179305896097</speed>
  <fix>3d</fix>
</trkpt>
<trkpt lat="40.0725815" lon="-105.2282462">
  <ele>1583.0</ele>
  <time>2026-08-28T17:52:41Z</time>
  <course>28.21</course>
  <speed>5.19</speed>
  <fix>3d</fix>
</trkpt>
<trkpt lat="40.0725992" lon="-105.2282336">
  <ele>1582.99</ele>
  <time>2026-08-28T17:52:41Z</time>
  <course>28.97</course>
  <speed>5.1006372150938155</speed>
  <fix>3d</fix>
</trkpt>
<trkpt lat="40.0725896" lon="-105.2282404">
  <ele>1583.0</ele>
  <time>2026-08-28T17:52:41Z</time>
  <course>28.23</course>
  <speed>5.14</speed>
  <fix>3d</fix>
</trkpt>
<trkpt lat="40.0726031" lon="-105.2282308">
  <ele>1583.0</ele>
  <time>2026-08-28T17:52:41Z</time>
  <course>28.96</course>
  <speed>5.064740862077743</speed>
  <fix>3d</fix>
</trkpt>
<trkpt lat="40.0725896" lon="-105.2282404">
  <ele>1583.0</ele>
  <time>2026-08-28T17:52:41Z</time>
  <course>28.23</course>
  <speed>5.14</speed>
  <fix>3d</fix>
</trkpt>
<trkpt lat="40.0726071" lon="-105.228228">
  <ele>1583.0</ele>
  <time>2026-08-28T17:52:41Z</time>
  <course>28.98</course>
  <speed>5.020039840479356</speed>
  <fix>3d</fix>
</trkpt>
<trkpt lat="40.0725977" lon="-105.2282348">
  <ele>1583.0</ele>
  <time>2026-08-28T17:52:41Z</time>
  <course>28.25</course>
  <speed>5.08</speed>
  <fix>3d</fix>
</trkpt>
<trkpt lat="40.072611" lon="-105.2282253">
  <ele>1583.0</ele>
  <time>2026-08-28T17:52:41Z</time>
  <course>28.99</course>
  <speed>4.9976894661433295</speed>
  <fix>3d</fix>
</trkpt>
<trkpt lat="40.0726057" lon="-105.2282291">
  <ele>1583.0</ele>
  <time>2026-08-28T17:52:41Z</time>
  <course>28.28</course>
  <speed>5.02</speed>
  <fix>3d</fix>
</trkpt>
<trkpt lat="40.0726149" lon="-105.2282226">
  <ele>1583.0</ele>
  <time>2026-08-28T17:52:41Z</time>
  <course>28.99</course>
  <speed>4.961794030388606</speed>
  <fix>3d</fix>
</trkpt>
<trkpt lat="40.0726057" lon="-105.2282291">
  <ele>1583.0</ele>
  <time>2026-08-28T17:52:41Z</time>
  <course>28.28</course>
  <speed>5.02</speed>
  <fix>3d</fix>
</trkpt>
<trkpt lat="40.0726188" lon="-105.2282199">
  <ele>1583.0</ele>
  <time>2026-08-28T17:52:41Z</time>
  <course>29.0</course>
  <speed>4.939443288468854</speed>
  <fix>3d</fix>
</trkpt>
<trkpt lat="40.0726136" lon="-105.2282236">
  <ele>1583.0</ele>
  <time>2026-08-28T17:52:41Z</time>
  <course>28.3</course>
  <speed>4.96</speed>
  <fix>3d</fix>
</trkpt>
<trkpt lat="40.0726227" lon="-105.2282171">
  <ele>1583.0</ele>
  <time>2026-08-28T17:52:41Z</time>
  <course>29.01</course>
  <speed>4.908288907552203</speed>
  <fix>3d</fix>
</trkpt>
<trkpt lat="40.0726136" lon="-105.2282236">
  <ele>1583.0</ele>
  <time>2026-08-28T17:52:41Z</time>
  <course>28.3</course>
  <speed>4.96</speed>
  <fix>3d</fix>
</trkpt>
<trkpt lat="40.0726265" lon="-105.2282144">
  <ele>1582.99</ele>
  <time>2026-08-28T17:52:41Z</time>
  <course>29.01</course>
  <speed>4.894742076963811</speed>
  <fix>3d</fix>
</trkpt>
<trkpt lat="40.0726214" lon="-105.2282181">
  <ele>1583.0</ele>
  <time>2026-08-28T17:52:41Z</time>
  <course>28.3</course>
  <speed>4.92</speed>
  <fix>3d</fix>
</trkpt>
<trkpt lat="40.0726304" lon="-105.2282117">
  <ele>1583.0</ele>
  <time>2026-08-28T17:52:41Z</time>
  <course>29.01</course>
  <speed>4.872391609877022</speed>
  <fix>3d</fix>
</trkpt>
<trkpt lat="40.0726214" lon="-105.2282181">
  <ele>1583.0</ele>
  <time>2026-08-28T17:52:41Z</time>
  <course>28.3</course>
  <speed>4.92</speed>
  <fix>3d</fix>
</trkpt>
<trkpt lat="40.0726343" lon="-105.228209">
  <ele>1583.0</ele>
  <time>2026-08-28T17:52:41Z</time>
  <course>29.01</course>
  <speed>4.8588475999973495</speed>
  <fix>3d</fix>
</trkpt>
<trkpt lat="40.0726291" lon="-105.2282127">
  <ele>1583.0</ele>
  <time>2026-08-28T17:52:41Z</time>
  <course>28.3</course>
  <speed>4.88</speed>
  <fix>3d</fix>
</trkpt>
<trkpt lat="40.0726382" lon="-105.2282063">
  <ele>1582.99</ele>
  <time>2026-08-28T17:52:41Z</time>
  <course>29.02</course>
  <speed>4.845307007816945</speed>
  <fix>3d</fix>
</trkpt>
<trkpt lat="40.0726291" lon="-105.2282127">
  <ele>1583.0</ele>
  <time>2026-08-28T17:52:41Z</time>
  <course>28.3</course>
  <speed>4.88</speed>
  <fix>3d</fix>
</trkpt>
<trkpt lat="40.072642" lon="-105.2282036">
  <ele>1582.99</ele>
  <time>2026-08-28T17:52:41Z</time>
  <course>29.02</course>
  <speed>4.836496665976314</speed>
  <fix>3d</fix>
</trkpt>
<trkpt lat="40.0726369" lon="-105.2282072">
  <ele>1583.0</ele>
  <time>2026-08-28T17:52:41Z</time>
  <course>28.3</course>
  <speed>4.85</speed>
  <fix>3d</fix>
</trkpt>
<trkpt lat="40.0726458" lon="-105.2282009">
  <ele>1582.99</ele>
  <time>2026-08-28T17:52:41Z</time>
  <course>29.02</course>
  <speed>4.822955525401411</speed>
  <fix>3d</fix>
</trkpt>
<trkpt lat="40.0726369" lon="-105.2282072">
  <ele>1583.0</ele>
  <time>2026-08-28T17:52:41Z</time>
  <course>28.3</course>
  <speed>4.85</speed>
  <fix>3d</fix>
</trkpt>
<trkpt lat="40.0726497" lon="-105.2281982">
  <ele>1582.99</ele>
  <time>2026-08-28T17:52:41Z</time>
  <course>29.02</course>
  <speed>4.8141458224694444</speed>
  <fix>3d</fix>
</trkpt>
<trkpt lat="40.0726445" lon="-105.2282018">
  <ele>1583.0</ele>
  <time>2026-08-28T17:52:41Z</time>
  <course>28.3</course>
  <speed>4.84</speed>
  <fix>3d</fix>
</trkpt>
<trkpt lat="40.0726535" lon="-105.2281955">
  <ele>1582.99</ele>
  <time>2026-08-28T17:52:41Z</time>
  <course>29.03</course>
  <speed>4.8141458224694444</speed>
  <fix>3d</fix>
</trkpt>
<trkpt lat="40.0726445" lon="-105.2282018">
  <ele>1583.0</ele>
  <time>2026-08-28T17:52:41Z</time>
  <course>28.3</course>
  <speed>4.84</speed>
  <fix>3d</fix>
</trkpt>
<trkpt lat="40.0726573" lon="-105.2281928">
  <ele>1582.99</ele>
  <time>2026-08-28T17:52:41Z</time>
  <course>29.03</course>
  <speed>4.8141458224694444</speed>
  <fix>3d</fix>
</trkpt>
<trkpt lat="40.0726521" lon="-105.2281965">
  <ele>1583.0</ele>
  <time>2026-08-28T17:52:41Z</time>
  <course>28.3</course>
  <speed>4.83</speed>
  <fix>3d</fix>
</trkpt>
<trkpt lat="40.0726611" lon="-105.2281901">
  <ele>1582.99</ele>
  <time>2026-08-28T17:52:41Z</time>
  <course>29.03</course>
  <speed>4.8141458224694444</speed>
  <fix>3d</fix>
</trkpt>
<trkpt lat="40.0726521" lon="-105.2281965">
  <ele>1583.0</ele>
  <time>2026-08-28T17:52:41Z</time>
  <course>28.3</course>
  <speed>4.83</speed>
  <fix>3d</fix>
</trkpt>
<trkpt lat="40.072665" lon="-105.2281874">
  <ele>1582.99</ele>
  <time>2026-08-28T17:52:41Z</time>
  <course>29.03</course>
  <speed>4.8141458224694444</speed>
  <fix>3d</fix>
</trkpt>
<trkpt lat="40.0726521" lon="-105.2281965">
  <ele>1583.0</ele>
  <time>2026-08-28T17:52:41Z</time>
  <course>28.3</course>
  <speed>4.83</speed>
  <fix>3d</fix>
</trkpt>
<trkpt lat="40.0726688" lon="-105.2281848">
  <ele>1582.99</ele>
  <time>2026-08-28T17:52:41Z</time>
  <course>29.03</course>
  <speed>4.8141458224694444</speed>
  <fix>3d</fix>
</trkpt>
<trkpt lat="40.0726598" lon="-105.2281911">
  <ele>1583.0</ele>
  <time>2026-08-28T17:52:41Z</time>
  <course>28.3</course>
  <speed>4.83</speed>
  <fix>3d</fix>
</trkpt>
<trkpt lat="40.0726726" lon="-105.2281821">
  <ele>1582.99</ele>
  <time>2026-08-28T17:52:41Z</time>
  <course>29.04</course>
  <speed>4.822955525401411</speed>
  <fix>3d</fix>
</trkpt>
<trkpt lat="40.0726598" lon="-105.2281911">
  <ele>1583.0</ele>
  <time>2026-08-28T17:52:41Z</time>
  <course>28.3</course>
  <speed>4.83</speed>
  <fix>3d</fix>
</trkpt>
<trkpt lat="40.0726763" lon="-105.2281794">
  <ele>1582.99</ele>
  <time>2026-08-28T17:52:41Z</time>
  <course>29.04</course>
  <speed>4.827690959454634</speed>
  <fix>3d</fix>
</trkpt>
<trkpt lat="40.0726675" lon="-105.2281857">
  <ele>1583.0</ele>
  <time>2026-08-28T17:52:41Z</time>
  <course>28.3</course>
  <speed>4.84</speed>
  <fix>3d</fix>
</trkpt>
<trkpt lat="40.0726801" lon="-105.2281768">
  <ele>1582.99</ele>
  <time>2026-08-28T17:52:41Z</time>
  <course>29.04</course>
  <speed>4.836496665976314</speed>
  <fix>3d</fix>
</trkpt>
<trkpt lat="40.0726675" lon="-105.2281857">
  <ele>1583.0</ele>
  <time>2026-08-28T17:52:41Z</time>
  <course>28.3</course>
  <speed>4.84</speed>
  <fix>3d</fix>
</trkpt>
<trkpt lat="40.0726839" lon="-105.2281741">
  <ele>1582.99</ele>
  <time>2026-08-28T17:52:41Z</time>
  <course>29.04</course>
  <speed>4.836496665976314</speed>
  <fix>3d</fix>
</trkpt>
<trkpt lat="40.0726752" lon="-105.2281802">
  <ele>1583.0</ele>
  <time>2026-08-28T17:52:41Z</time>
  <course>28.3</course>
  <speed>4.85</speed>
  <fix>3d</fix>
</trkpt>
<trkpt lat="40.0726878" lon="-105.2281714">
  <ele>1583.0</ele>
  <time>2026-08-28T17:52:41Z</time>
  <course>29.04</course>
  <speed>4.850041236938094</speed>
  <fix>3d</fix>
</trkpt>
<trkpt lat="40.0726829" lon="-105.2281749">
  <ele>1583.0</ele>
  <time>2026-08-28T17:52:41Z</time>
  <course>28.3</course>
  <speed>4.87</speed>
  <fix>3d</fix>
</trkpt>
<trkpt lat="40.0726916" lon="-105.2281687">
  <ele>1583.0</ele>
  <time>2026-08-28T17:52:41Z</time>
  <course>29.05</course>
  <speed>4.8588475999973495</speed>
  <fix>3d</fix>
</trkpt>
<trkpt lat="40.0726829" lon="-105.2281749">
  <ele>1583.0</ele>
  <time>2026-08-28T17:52:41Z</time>
  <course>28.3</course>
  <speed>4.87</speed>
  <fix>3d</fix>
</trkpt>
<trkpt lat="40.0726955" lon="-105.228166">
  <ele>1583.0</ele>
  <time>2026-08-28T17:52:41Z</time>
  <course>29.05</course>
  <speed>4.872391609877022</speed>
  <fix>3d</fix>
</trkpt>
<trkpt lat="40.0726906" lon="-105.2281694">
  <ele>1583.0</ele>
  <time>2026-08-28T17:52:41Z</time>
  <course>28.3</course>
  <speed>4.89</speed>
  <fix>3d</fix>
</trkpt>
<trkpt lat="40.0726994" lon="-105.2281632">
  <ele>1583.0</ele>
  <time>2026-08-28T17:52:41Z</time>
  <course>29.05</course>
  <speed>4.872391609877022</speed>
  <fix>3d</fix>
</trkpt>
<trkpt lat="40.0726906" lon="-105.2281694">
  <ele>1583.0</ele>
  <time>2026-08-28T17:52:41Z</time>
  <course>28.3</course>
  <speed>4.89</speed>
  <fix>3d</fix>
</trkpt>
<trkpt lat="40.0727033" lon="-105.2281605">
  <ele>1583.0</ele>
  <time>2026-08-28T17:52:41Z</time>
  <course>29.06</course>
  <speed>4.885939009033985</speed>
  <fix>3d</fix>
</trkpt>
<trkpt lat="40.0726983" lon="-105.2281639">
  <ele>1583.0</ele>
  <time>2026-08-28T17:52:41Z</time>
  <course>28.3</course>
  <speed>4.91</speed>
  <fix>3d</fix>
</trkpt>
<trkpt lat="40.0727072" lon="-105.2281577">
  <ele>1583.0</ele>
  <time>2026-08-28T17:52:41Z</time>
  <course>29.06</course>
  <speed>4.894742076963811</speed>
  <fix>3d</fix>
</trkpt>
<trkpt lat="40.0726983" lon="-105.2281639">
  <ele>1583.0</ele>
  <time>2026-08-28T17:52:41Z</time>
  <course>28.3</course>
  <speed>4.91</speed>
  <fix>3d</fix>
</trkpt>
<trkpt lat="40.0727111" lon="-105.228155">
  <ele>1583.0</ele>
  <time>2026-08-28T17:52:41Z</time>
  <course>29.06</course>
  <speed>4.908288907552203</speed>
  <fix>3d</fix>
</trkpt>
<trkpt lat="40.0727062" lon="-105.2281584">
  <ele>1583.0</ele>
  <time>2026-08-28T17:52:41Z</time>
  <course>28.3</course>
  <speed>4.93</speed>
  <fix>3d</fix>
</trkpt>
<trkpt lat="40.0727151" lon="-105.2281522">
  <ele>1583.0</ele>
  <time>2026-08-28T17:52:41Z</time>
  <course>29.06</course>
  <speed>4.917092636914623</speed>
  <fix>3d</fix>
</trkpt>
<trkpt lat="40.0727062" lon="-105.2281584">
  <ele>1583.0</ele>
  <time>2026-08-28T17:52:41Z</time>
  <course>28.3</course>
  <speed>4.93</speed>
  <fix>3d</fix>
</trkpt>
<trkpt lat="40.072719" lon="-105.2281494">
  <ele>1583.0</ele>
  <time>2026-08-28T17:52:41Z</time>
  <course>29.07</course>
  <speed>4.921839087170567</speed>
  <fix>3d</fix>
</trkpt>
<trkpt lat="40.072714" lon="-105.2281529">
  <ele>1583.0</ele>
  <time>2026-08-28T17:52:41Z</time>
  <course>28.3</course>
  <speed>4.95</speed>
  <fix>3d</fix>
</trkpt>
<trkpt lat="40.0727229" lon="-105.2281466">
  <ele>1583.0</ele>
  <time>2026-08-28T17:52:41Z</time>
  <course>29.07</course>
  <speed>4.930638903833863</speed>
  <fix>3d</fix>
</trkpt>
<trkpt lat="40.072714" lon="-105.2281529">
  <ele>1583.0</ele>
  <time>2026-08-28T17:52:41Z</time>
  <course>28.3</course>
  <speed>4.95</speed>
  <fix>3d</fix>
</trkpt>
<trkpt lat="40.0727269" lon="-105.2281438">
  <ele>1583.01</ele>
  <time>2026-08-28T17:52:41Z</time>
  <course>29.07</course>
  <speed>4.930638903833863</speed>
  <fix>3d</fix>
</trkpt>
<trkpt lat="40.0727218" lon="-105.2281474">
  <ele>1583.0</ele>
  <time>2026-08-28T17:52:41Z</time>
  <course>28.3</course>
  <speed>4.96</speed>
  <fix>3d</fix>
</trkpt>
<trkpt lat="40.0727308" lon="-105.2281411">
  <ele>1583.01</ele>
  <time>2026-08-28T17:52:41Z</time>
  <course>29.08</course>
  <speed>4.944188507733094</speed>
  <fix>3d</fix>
</trkpt>
<trkpt lat="40.0727218" lon="-105.2281474">
  <ele>1583.0</ele>
  <time>2026-08-28T17:52:41Z</time>
  <course>28.3</course>
  <speed>4.96</speed>
  <fix>3d</fix>
</trkpt>
<trkpt lat="40.0727348" lon="-105.2281383">
  <ele>1583.01</ele>
  <time>2026-08-28T17:52:41Z</time>
  <course>29.08</course>
  <speed>4.944188507733094</speed>
  <fix>3d</fix>
</trkpt>
<trkpt lat="40.0727296" lon="-105.2281419">
  <ele>1583.0</ele>
  <time>2026-08-28T17:52:41Z</time>
  <course>28.3</course>
  <speed>4.97</speed>
  <fix>3d</fix>
</trkpt>
<trkpt lat="40.0727387" lon="-105.2281355">
  <ele>1583.01</ele>
  <time>2026-08-28T17:52:41Z</time>
  <course>29.08</course>
  <speed>4.944188507733094</speed>
  <fix>3d</fix>
</trkpt>
<trkpt lat="40.0727296" lon="-105.2281419">
  <ele>1583.0</ele>
  <time>2026-08-28T17:52:41Z</time>
  <course>28.3</course>
  <speed>4.97</speed>
  <fix>3d</fix>
</trkpt>
<trkpt lat="40.0727427" lon="-105.2281327">
  <ele>1583.0</ele>
  <time>2026-08-28T17:52:41Z</time>
  <course>29.09</course>
  <speed>4.944188507733094</speed>
  <fix>3d</fix>
</trkpt>
<trkpt lat="40.0727296" lon="-105.2281419">
  <ele>1583.0</ele>
  <time>2026-08-28T17:52:41Z</time>
  <course>28.3</course>
  <speed>4.97</speed>
  <fix>3d</fix>
</trkpt>
<trkpt lat="40.0727466" lon="-105.2281299">
  <ele>1583.0</ele>
  <time>2026-08-28T17:52:41Z</time>
  <course>29.09</course>
  <speed>4.944188507733094</speed>
  <fix>3d</fix>
</trkpt>
<trkpt lat="40.0727375" lon="-105.2281364">
  <ele>1583.0</ele>
  <time>2026-08-28T17:52:41Z</time>
  <course>28.3</course>
  <speed>4.97</speed>
  <fix>3d</fix>
</trkpt>
<trkpt lat="40.0727505" lon="-105.2281272">
  <ele>1583.01</ele>
  <time>2026-08-28T17:52:41Z</time>
  <course>29.09</course>
  <speed>4.944188507733094</speed>
  <fix>3d</fix>
</trkpt>
<trkpt lat="40.0727375" lon="-105.2281364">
  <ele>1583.0</ele>
  <time>2026-08-28T17:52:41Z</time>
  <course>28.3</course>
  <speed>4.97</speed>
  <fix>3d</fix>
</trkpt>
<trkpt lat="40.0727544" lon="-105.2281244">
  <ele>1583.01</ele>
  <time>2026-08-28T17:52:41Z</time>
  <course>29.09</course>
  <speed>4.944188507733094</speed>
  <fix>3d</fix>
</trkpt>
<trkpt lat="40.0727454" lon="-105.2281308">
  <ele>1583.0</ele>
  <time>2026-08-28T17:52:41Z</time>
  <course>28.3</course>
  <speed>4.98</speed>
  <fix>3d</fix>
</trkpt>
<trkpt lat="40.0727583" lon="-105.2281217">
  <ele>1583.02</ele>
  <time>2026-08-28T17:52:41Z</time>
  <course>29.1</course>
  <speed>4.944188507733094</speed>
  <fix>3d</fix>
</trkpt>
<trkpt lat="40.0727454" lon="-105.2281308">
  <ele>1583.0</ele>
  <time>2026-08-28T17:52:41Z</time>
  <course>28.3</course>
  <speed>4.98</speed>
  <fix>3d</fix>
</trkpt>
<trkpt lat="40.0727622" lon="-105.2281189">
  <ele>1583.02</ele>
  <time>2026-08-28T17:52:41Z</time>
  <course>29.1</course>
  <speed>4.935392588234496</speed>
  <fix>3d</fix>
</trkpt>
<trkpt lat="40.0727533" lon="-105.2281252">
  <ele>1583.0</ele>
  <time>2026-08-28T17:52:41Z</time>
  <course>28.3</course>
  <speed>4.98</speed>
  <fix>3d</fix>
</trkpt>
<trkpt lat="40.0727661" lon="-105.2281162">
  <ele>1583.02</ele>
  <time>2026-08-28T17:52:41Z</time>
  <course>29.1</course>
  <speed>4.935392588234496</speed>
  <fix>3d</fix>
</trkpt>
<trkpt lat="40.0727533" lon="-105.2281252">
  <ele>1583.0</ele>
  <time>2026-08-28T17:52:41Z</time>
  <course>28.3</course>
  <speed>4.98</speed>
  <fix>3d</fix>
</trkpt>
<trkpt lat="40.07277" lon="-105.2281134">
  <ele>1583.03</ele>
  <time>2026-08-28T17:52:41Z</time>
  <course>29.1</course>
  <speed>4.935392588234496</speed>
  <fix>3d</fix>
</trkpt>
<trkpt lat="40.0727612" lon="-105.2281197">
  <ele>1583.0</ele>
  <time>2026-08-28T17:52:41Z</time>
  <course>28.3</course>
  <speed>4.98</speed>
  <fix>3d</fix>
</trkpt>
<trkpt lat="40.0727739" lon="-105.2281107">
  <ele>1583.03</ele>
  <time>2026-08-28T17:52:41Z</time>
  <course>29.11</course>
  <speed>4.926601262533837</speed>
  <fix>3d</fix>
</trkpt>
<trkpt lat="40.0727691" lon="-105.2281141">
  <ele>1583.0</ele>
  <time>2026-08-28T17:52:41Z</time>
  <course>28.3</course>
  <speed>4.98</speed>
  <fix>3d</fix>
</trkpt>
<trkpt lat="40.0727778" lon="-105.2281079">
  <ele>1583.03</ele>
  <time>2026-08-28T17:52:41Z</time>
  <course>29.11</course>
  <speed>4.921839087170567</speed>
  <fix>3d</fix>
</trkpt>
<trkpt lat="40.0727691" lon="-105.2281141">
  <ele>1583.0</ele>
  <time>2026-08-28T17:52:41Z</time>
  <course>28.3</course>
  <speed>4.98</speed>
  <fix>3d</fix>
</trkpt>
<trkpt lat="40.0727817" lon="-105.2281052">
  <ele>1583.03</ele>
  <time>2026-08-28T17:52:41Z</time>
  <course>29.11</course>
  <speed>4.9130438630242255</speed>
  <fix>3d</fix>
</trkpt>
<trkpt lat="40.072777" lon="-105.2281086">
  <ele>1583.0</ele>
  <time>2026-08-28T17:52:41Z</time>
  <course>28.3</course>
  <speed>4.96</speed>
  <fix>3d</fix>
</trkpt>
<trkpt lat="40.0727856" lon="-105.2281024">
  <ele>1583.03</ele>
  <time>2026-08-28T17:52:41Z</time>
  <course>29.12</course>
  <speed>4.890695247099333</speed>
  <fix>3d</fix>
</trkpt>
<trkpt lat="40.072777" lon="-105.2281086">
  <ele>1583.0</ele>
  <time>2026-08-28T17:52:41Z</time>
  <course>28.3</course>
  <speed>4.96</speed>
  <fix>3d</fix>
</trkpt>
<trkpt lat="40.0727895" lon="-105.2280996">
  <ele>1583.03</ele>
  <time>2026-08-28T17:52:41Z</time>
  <course>29.12</course>
  <speed>4.868346741964873</speed>
  <fix>3d</fix>
</trkpt>
<trkpt lat="40.0727847" lon="-105.2281031">
  <ele>1583.0</ele>
  <time>2026-08-28T17:52:41Z</time>
  <course>28.3</course>
  <speed>4.93</speed>
  <fix>3d</fix>
</trkpt>
<trkpt lat="40.0727934" lon="-105.2280969">
  <ele>1583.02</ele>
  <time>2026-08-28T17:52:41Z</time>
  <course>29.12</course>
  <speed>4.823650070226902</speed>
  <fix>3d</fix>
</trkpt>
<trkpt lat="40.0727847" lon="-105.2281031">
  <ele>1583.0</ele>
  <time>2026-08-28T17:52:41Z</time>
  <course>28.3</course>
  <speed>4.93</speed>
  <fix>3d</fix>
</trkpt>
<trkpt lat="40.0727973" lon="-105.2280942">
  <ele>1583.02</ele>
  <time>2026-08-28T17:52:41Z</time>
  <course>29.13</course>
  <speed>4.774191030949641</speed>
  <fix>3d</fix>
</trkpt>
<trkpt lat="40.0727925" lon="-105.2280976">
  <ele>1583.0</ele>
  <time>2026-08-28T17:52:41Z</time>
  <course>28.3</course>
  <speed>4.86</speed>
  <fix>3d</fix>
</trkpt>
<trkpt lat="40.0728011" lon="-105.2280915">
  <ele>1583.02</ele>
  <time>2026-08-28T17:52:41Z</time>
  <course>29.13</course>
  <speed>4.720699100768868</speed>
  <fix>3d</fix>
</trkpt>
<trkpt lat="40.0727925" lon="-105.2280976">
  <ele>1583.0</ele>
  <time>2026-08-28T17:52:41Z</time>
  <course>28.3</course>
  <speed>4.86</speed>
  <fix>3d</fix>
</trkpt>
<trkpt lat="40.0728048" lon="-105.2280889">
  <ele>1583.02</ele>
  <time>2026-08-28T17:52:41Z</time>
  <course>29.13</course>
  <speed>4.640096981745102</speed>
  <fix>3d</fix>
</trkpt>
<trkpt lat="40.0728001" lon="-105.2280923">
  <ele>1583.0</ele>
  <time>2026-08-28T17:52:41Z</time>
  <course>28.3</course>
  <speed>4.75</speed>
  <fix>3d</fix>
</trkpt>
<trkpt lat="40.0728085" lon="-105.2280863">
  <ele>1583.03</ele>
  <time>2026-08-28T17:52:41Z</time>
  <course>29.14</course>
  <speed>4.559495586136695</speed>
  <fix>3d</fix>
</trkpt>
<trkpt lat="40.0728001" lon="-105.2280923">
  <ele>1583.0</ele>
  <time>2026-08-28T17:52:41Z</time>
  <course>28.3</course>
  <speed>4.75</speed>
  <fix>3d</fix>
</trkpt>
<trkpt lat="40.0728121" lon="-105.2280837">
  <ele>1583.03</ele>
  <time>2026-08-28T17:52:41Z</time>
  <course>29.14</course>
  <speed>4.470100670007332</speed>
  <fix>3d</fix>
</trkpt>
<trkpt lat="40.0728075" lon="-105.2280871">
  <ele>1583.0</ele>
  <time>2026-08-28T17:52:41Z</time>
  <course>28.3</course>
  <speed>4.59</speed>
  <fix>3d</fix>
</trkpt>
<trkpt lat="40.0728157" lon="-105.2280812">
  <ele>1583.03</ele>
  <time>2026-08-28T17:52:41Z</time>
  <course>29.14</course>
  <speed>4.367150100465978</speed>
  <fix>3d</fix>
</trkpt>
<trkpt lat="40.0728075" lon="-105.2280871">
  <ele>1583.0</ele>
  <time>2026-08-28T17:52:41Z</time>
  <course>28.3</course>
  <speed>4.59</speed>
  <fix>3d</fix>
</trkpt>
<trkpt lat="40.0728191" lon="-105.2280788">
  <ele>1583.04</ele>
  <time>2026-08-28T17:52:41Z</time>
  <course>29.15</course>
  <speed>4.250647009573954</speed>
  <fix>3d</fix>
</trkpt>
<trkpt lat="40.0728146" lon="-105.2280821">
  <ele>1583.0</ele>
  <time>2026-08-28T17:52:41Z</time>
  <course>28.3</course>
  <speed>4.4</speed>
  <fix>3d</fix>
</trkpt>
<trkpt lat="40.0728224" lon="-105.2280765">
  <ele>1583.04</ele>
  <time>2026-08-28T17:52:41Z</time>
  <course>29.15</course>
  <speed>4.138900820266173</speed>
  <fix>3d</fix>
</trkpt>
<trkpt lat="40.0728146" lon="-105.2280821">
  <ele>1583.0</ele>
  <time>2026-08-28T17:52:41Z</time>
  <course>28.3</course>
  <speed>4.4</speed>
  <fix>3d</fix>
</trkpt>
<trkpt lat="40.0728257" lon="-105.2280742">
  <ele>1583.04</ele>
  <time>2026-08-28T17:52:41Z</time>
  <course>29.15</course>
  <speed>4.0223997812251335</speed>
  <fix>3d</fix>
</trkpt>
<trkpt lat="40.0728146" lon="-105.2280821">
  <ele>1583.0</ele>
  <time>2026-08-28T17:52:41Z</time>
  <course>28.3</course>
  <speed>4.4</speed>
  <fix>3d</fix>
</trkpt>
<trkpt lat="40.0728288" lon="-105.228072">
  <ele>1583.04</ele>
  <time>2026-08-28T17:52:41Z</time>
  <course>29.15</course>
  <speed>3.897101487002873</speed>
  <fix>3d</fix>
</trkpt>
<trkpt lat="40.0728215" lon="-105.2280773">
  <ele>1583.0</ele>
  <time>2026-08-28T17:52:41Z</time>
  <course>28.3</course>
  <speed>4.18</speed>
  <fix>3d</fix>
</trkpt>
<trkpt lat="40.0728319" lon="-105.2280699">
  <ele>1583.05</ele>
  <time>2026-08-28T17:52:41Z</time>
  <course>29.16</course>
  <speed>3.763004119051692</speed>
  <fix>3d</fix>
</trkpt>
<trkpt lat="40.0728215" lon="-105.2280773">
  <ele>1583.0</ele>
  <time>2026-08-28T17:52:41Z</time>
  <course>28.3</course>
  <speed>4.18</speed>
  <fix>3d</fix>
</trkpt>
<trkpt lat="40.0728348" lon="-105.2280678">
  <ele>1583.05</ele>
  <time>2026-08-28T17:52:41Z</time>
  <course>29.16</course>
  <speed>3.6329602254910527</speed>
  <fix>3d</fix>
</trkpt>
<trkpt lat="40.0728279" lon="-105.2280727">
  <ele>1583.0</ele>
  <time>2026-08-28T17:52:41Z</time>
  <course>28.3</course>
  <speed>3.93</speed>
  <fix>3d</fix>
</trkpt>
<trkpt lat="40.0728376" lon="-105.2280658">
  <ele>1583.05</ele>
  <time>2026-08-28T17:52:41Z</time>
  <course>29.16</course>
  <speed>3.5076630396889605</speed>
  <fix>3d</fix>
</trkpt>
<trkpt lat="40.0728279" lon="-105.2280727">
  <ele>1583.0</ele>
  <time>2026-08-28T17:52:41Z</time>
  <course>28.3</course>
  <speed>3.93</speed>
  <fix>3d</fix>
</trkpt>
<trkpt lat="40.0728403" lon="-105.2280639">
  <ele>1583.05</ele>
  <time>2026-08-28T17:52:41Z</time>
  <course>29.17</course>
  <speed>3.373558951611784</speed>
  <fix>3d</fix>
</trkpt>
<trkpt lat="40.072834" lon="-105.2280685">
  <ele>1583.0</ele>
  <time>2026-08-28T17:52:41Z</time>
  <course>28.3</course>
  <speed>3.68</speed>
  <fix>3d</fix>
</trkpt>
<trkpt lat="40.0728429" lon="-105.2280621">
  <ele>1583.05</ele>
  <time>2026-08-28T17:52:41Z</time>
  <course>29.18</course>
  <speed>3.2435320254315356</speed>
  <fix>3d</fix>
</trkpt>
<trkpt lat="40.0728395" lon="-105.2280646">
  <ele>1583.0</ele>
  <time>2026-08-28T17:52:41Z</time>
  <course>28.31</course>
  <speed>3.42</speed>
  <fix>3d</fix>
</trkpt>
<trkpt lat="40.0728454" lon="-105.2280604">
  <ele>1583.05</ele>
  <time>2026-08-28T17:52:41Z</time>
  <course>29.2</course>
  <speed>3.1094211679989576</speed>
  <fix>3d</fix>
</trkpt>
<trkpt lat="40.0728395" lon="-105.2280646">
  <ele>1583.0</ele>
  <time>2026-08-28T17:52:41Z</time>
  <course>28.31</course>
  <speed>3.42</speed>
  <fix>3d</fix>
</trkpt>
<trkpt lat="40.0728479" lon="-105.2280587">
  <ele>1583.05</ele>
  <time>2026-08-28T17:52:41Z</time>
  <course>29.24</course>
  <speed>2.9841246622753546</speed>
  <fix>3d</fix>
</trkpt>
<trkpt lat="40.0728448" lon="-105.2280609">
  <ele>1583.0</ele>
  <time>2026-08-28T17:52:41Z</time>
  <course>28.34</course>
  <speed>3.17</speed>
  <fix>3d</fix>
</trkpt>
<trkpt lat="40.0728502" lon="-105.228057">
  <ele>1583.05</ele>
  <time>2026-08-28T17:52:41Z</time>
  <course>29.27</course>
  <speed>2.8635642126552705</speed>
  <fix>3d</fix>
</trkpt>
<trkpt lat="40.0728448" lon="-105.2280609">
  <ele>1583.0</ele>
  <time>2026-08-28T17:52:41Z</time>
  <course>28.34</course>
  <speed>3.17</speed>
  <fix>3d</fix>
</trkpt>
<trkpt lat="40.0728524" lon="-105.2280555">
  <ele>1583.05</ele>
  <time>2026-08-28T17:52:41Z</time>
  <course>29.31</course>
  <speed>2.7382658746002004</speed>
  <fix>3d</fix>
</trkpt>
<trkpt lat="40.0728496" lon="-105.2280575">
  <ele>1583.0</ele>
  <time>2026-08-28T17:52:41Z</time>
  <course>28.4</course>
  <speed>2.92</speed>
  <fix>3d</fix>
</trkpt>
<trkpt lat="40.0728546" lon="-105.228054">
  <ele>1583.05</ele>
  <time>2026-08-28T17:52:41Z</time>
  <course>29.35</course>
  <speed>2.6129676614914312</speed>
  <fix>3d</fix>
</trkpt>
<trkpt lat="40.0728496" lon="-105.2280575">
  <ele>1583.0</ele>
  <time>2026-08-28T17:52:41Z</time>
  <course>28.4</course>
  <speed>2.92</speed>
  <fix>3d</fix>
</trkpt>
<trkpt lat="40.0728566" lon="-105.2280525">
  <ele>1583.05</ele>
  <time>2026-08-28T17:52:41Z</time>
  <course>29.39</course>
  <speed>2.4964775184247103</speed>
  <fix>3d</fix>
</trkpt>
<trkpt lat="40.072854" lon="-105.2280543">
  <ele>1583.0</ele>
  <time>2026-08-28T17:52:41Z</time>
  <course>28.47</course>
  <speed>2.68</speed>
  <fix>3d</fix>
</trkpt>
<trkpt lat="40.0728586" lon="-105.2280511">
  <ele>1583.05</ele>
  <time>2026-08-28T17:52:41Z</time>
  <course>29.42</course>
  <speed>2.3759208741033446</speed>
  <fix>3d</fix>
</trkpt>
<trkpt lat="40.072854" lon="-105.2280543">
  <ele>1583.0</ele>
  <time>2026-08-28T17:52:41Z</time>
  <course>28.47</course>
  <speed>2.68</speed>
  <fix>3d</fix>
</trkpt>
<trkpt lat="40.0728604" lon="-105.2280498">
  <ele>1583.05</ele>
  <time>2026-08-28T17:52:41Z</time>
  <course>29.46</course>
  <speed>2.264177554875059</speed>
  <fix>3d</fix>
</trkpt>
<trkpt lat="40.0728581" lon="-105.2280514">
  <ele>1583.0</ele>
  <time>2026-08-28T17:52:41Z</time>
  <course>28.54</course>
  <speed>2.45</speed>
  <fix>3d</fix>
</trkpt>
<trkpt lat="40.0728622" lon="-105.2280486">
  <ele>1583.04</ele>
  <time>2026-08-28T17:52:41Z</time>
  <course>29.49</course>
  <speed>2.1476731594914527</speed>
  <fix>3d</fix>
</trkpt>
<trkpt lat="40.0728581" lon="-105.2280514">
  <ele>1583.0</ele>
  <time>2026-08-28T17:52:41Z</time>
  <course>28.54</course>
  <speed>2.45</speed>
  <fix>3d</fix>
</trkpt>
<trkpt lat="40.0728639" lon="-105.2280474">
  <ele>1583.04</ele>
  <time>2026-08-28T17:52:41Z</time>
  <course>29.52</course>
  <speed>2.0447249203743763</speed>
  <fix>3d</fix>
</trkpt>
<trkpt lat="40.0728617" lon="-105.2280488">
  <ele>1583.0</ele>
  <time>2026-08-28T17:52:41Z</time>
  <course>28.6</course>
  <speed>2.22</speed>
  <fix>3d</fix>
</trkpt>
<trkpt lat="40.0728655" lon="-105.2280462">
  <ele>1583.04</ele>
  <time>2026-08-28T17:52:41Z</time>
  <course>29.55</course>
  <speed>1.9329769786523585</speed>
  <fix>3d</fix>
</trkpt>
<trkpt lat="40.0728617" lon="-105.2280488">
  <ele>1583.0</ele>
  <time>2026-08-28T17:52:41Z</time>
  <course>28.6</course>
  <speed>2.22</speed>
  <fix>3d</fix>
</trkpt>
<trkpt lat="40.072867" lon="-105.2280451">
  <ele>1583.03</ele>
  <time>2026-08-28T17:52:41Z</time>
  <course>29.58</course>
  <speed>1.830027322200409</speed>
  <fix>3d</fix>
</trkpt>
<trkpt lat="40.0728651" lon="-105.2280465">
  <ele>1583.0</ele>
  <time>2026-08-28T17:52:41Z</time>
  <course>28.66</course>
  <speed>2.01</speed>
  <fix>3d</fix>
</trkpt>
<trkpt lat="40.0728684" lon="-105.2280441">
  <ele>1583.03</ele>
  <time>2026-08-28T17:52:41Z</time>
  <course>29.64</course>
  <speed>1.7318487231857176</speed>
  <fix>3d</fix>
</trkpt>
<trkpt lat="40.0728651" lon="-105.2280465">
  <ele>1583.0</ele>
  <time>2026-08-28T17:52:41Z</time>
  <course>28.66</course>
  <speed>2.01</speed>
  <fix>3d</fix>
</trkpt>
<trkpt lat="40.0728698" lon="-105.2280432">
  <ele>1583.03</ele>
  <time>2026-08-28T17:52:41Z</time>
  <course>29.68</course>
  <speed>1.6288953311984167</speed>
  <fix>3d</fix>
</trkpt>
<trkpt lat="40.0728651" lon="-105.2280465">
  <ele>1583.0</ele>
  <time>2026-08-28T17:52:41Z</time>
  <course>28.66</course>
  <speed>2.01</speed>
  <fix>3d</fix>
</trkpt>
<trkpt lat="40.072871" lon="-105.2280423">
  <ele>1583.03</ele>
  <time>2026-08-28T17:52:41Z</time>
  <course>29.73</course>
  <speed>1.5259423318068084</speed>
  <fix>3d</fix>
</trkpt>
<trkpt lat="40.0728681" lon="-105.2280443">
  <ele>1583.0</ele>
  <time>2026-08-28T17:52:41Z</time>
  <course>28.74</course>
  <speed>1.8</speed>
  <fix>3d</fix>
</trkpt>
<trkpt lat="40.0728722" lon="-105.2280414">
  <ele>1583.03</ele>
  <time>2026-08-28T17:52:41Z</time>
  <course>29.78</course>
  <speed>1.4229898102235308</speed>
  <fix>3d</fix>
</trkpt>
<trkpt lat="40.0728681" lon="-105.2280443">
  <ele>1583.0</ele>
  <time>2026-08-28T17:52:41Z</time>
  <course>28.74</course>
  <speed>1.8</speed>
  <fix>3d</fix>
</trkpt>
<trkpt lat="40.0728733" lon="-105.2280406">
  <ele>1583.04</ele>
  <time>2026-08-28T17:52:41Z</time>
  <course>29.84</course>
  <speed>1.3248396129343356</speed>
  <fix>3d</fix>
</trkpt>
<trkpt lat="40.0728708" lon="-105.2280423">
  <ele>1583.0</ele>
  <time>2026-08-28T17:52:41Z</time>
  <course>28.83</course>
  <speed>1.6</speed>
  <fix>3d</fix>
</trkpt>
<trkpt lat="40.0728743" lon="-105.2280399">
  <ele>1583.04</ele>
  <time>2026-08-28T17:52:41Z</time>
  <course>29.89</course>
  <speed>1.2306502346320827</speed>
  <fix>3d</fix>
</trkpt>
<trkpt lat="40.0728708" lon="-105.2280423">
  <ele>1583.0</ele>
  <time>2026-08-28T17:52:41Z</time>
  <course>28.83</course>
  <speed>1.6</speed>
  <fix>3d</fix>
</trkpt>
<trkpt lat="40.0728753" lon="-105.2280392">
  <ele>1583.04</ele>
  <time>2026-08-28T17:52:41Z</time>
  <course>29.96</course>
  <speed>1.13251931550857</speed>
  <fix>3d</fix>
</trkpt>
<trkpt lat="40.0728731" lon="-105.2280406">
  <ele>1583.0</ele>
  <time>2026-08-28T17:52:41Z</time>
  <course>28.93</course>
  <speed>1.4</speed>
  <fix>3d</fix>
</trkpt>
<trkpt lat="40.0728761" lon="-105.2280385">
  <ele>1583.04</ele>
  <time>2026-08-28T17:52:41Z</time>
  <course>30.03</course>
  <speed>1.0295630140987</speed>
  <fix>3d</fix>
</trkpt>
<trkpt lat="40.0728752" lon="-105.2280392">
  <ele>1583.0</ele>
  <time>2026-08-28T17:52:41Z</time>
  <course>29.06</course>
  <speed>1.21</speed>
  <fix>3d</fix>
</trkpt>
<trkpt lat="40.0728769" lon="-105.2280379">
  <ele>1583.03</ele>
  <time>2026-08-28T17:52:41Z</time>
  <course>30.12</course>
  <speed>0.9402127418834527</speed>
  <fix>3d</fix>
</trkpt>
<trkpt lat="40.0728752" lon="-105.2280392">
  <ele>1583.0</ele>
  <time>2026-08-28T17:52:41Z</time>
  <course>29.06</course>
  <speed>1.21</speed>
  <fix>3d</fix>
</trkpt>
<trkpt lat="40.0728777" lon="-105.2280374">
  <ele>1583.03</ele>
  <time>2026-08-28T17:52:41Z</time>
  <course>30.21</course>
  <speed>0.8372574275573791</speed>
  <fix>3d</fix>
</trkpt>
<trkpt lat="40.072877" lon="-105.2280379">
  <ele>1583.0</ele>
  <time>2026-08-28T17:52:41Z</time>
  <course>29.21</course>
  <speed>1.01</speed>
  <fix>3d</fix>
</trkpt>
<trkpt lat="40.0728783" lon="-105.2280369">
  <ele>1583.03</ele>
  <time>2026-08-28T17:52:41Z</time>
  <course>30.29</course>
  <speed>0.7479304780526062</speed>
  <fix>3d</fix>
</trkpt>
<trkpt lat="40.072877" lon="-105.2280379">
  <ele>1583.0</ele>
  <time>2026-08-28T17:52:41Z</time>
  <course>29.21</course>
  <speed>1.01</speed>
  <fix>3d</fix>
</trkpt>
<trkpt lat="40.0728789" lon="-105.2280365">
  <ele>1583.03</ele>
  <time>2026-08-28T17:52:41Z</time>
  <course>30.38</course>
  <speed>0.6536818798161687</speed>
  <fix>3d</fix>
</trkpt>
<trkpt lat="40.0728784" lon="-105.2280368">
  <ele>1583.0</ele>
  <time>2026-08-28T17:52:41Z</time>
  <course>29.38</course>
  <speed>0.82</speed>
  <fix>3d</fix>
</trkpt>
<trkpt lat="40.0728794" lon="-105.2280361">
  <ele>1583.03</ele>
  <time>2026-08-28T17:52:41Z</time>
  <course>30.44</course>
  <speed>0.5643580423808985</speed>
  <fix>3d</fix>
</trkpt>
<trkpt lat="40.0728784" lon="-105.2280368">
  <ele>1583.0</ele>
  <time>2026-08-28T17:52:41Z</time>
  <course>29.38</course>
  <speed>0.82</speed>
  <fix>3d</fix>
</trkpt>
<trkpt lat="40.0728798" lon="-105.2280358">
  <ele>1583.02</ele>
  <time>2026-08-28T17:52:41Z</time>
  <course>30.38</course>
  <speed>0.4614108798023731</speed>
  <fix>3d</fix>
</trkpt>
<trkpt lat="40.0728796" lon="-105.228036">
  <ele>1583.0</ele>
  <time>2026-08-28T17:52:41Z</time>
  <course>29.47</course>
  <speed>0.63</speed>
  <fix>3d</fix>
</trkpt>
<trkpt lat="40.0728802" lon="-105.2280355">
  <ele>1583.02</ele>
  <time>2026-08-28T17:52:41Z</time>
  <course>30.16</course>
  <speed>0.3671511950137164</speed>
  <fix>3d</fix>
</trkpt>
<trkpt lat="40.0728796" lon="-105.228036">
  <ele>1583.0</ele>
  <time>2026-08-28T17:52:41Z</time>
  <course>29.47</course>
  <speed>0.63</speed>
  <fix>3d</fix>
</trkpt>
<trkpt lat="40.0728805" lon="-105.2280353">
  <ele>1583.02</ele>
  <time>2026-08-28T17:52:41Z</time>
  <course>29.81</course>
  <speed>0.27294688127912364</speed>
  <fix>3d</fix>
</trkpt>
<trkpt lat="40.0728804" lon="-105.2280354">
  <ele>1583.0</ele>
  <time>2026-08-28T17:52:41Z</time>
  <course>29.24</course>
  <speed>0.44</speed>
  <fix>3d</fix>
</trkpt>
<trkpt lat="40.0728807" lon="-105.2280351">
  <ele>1583.02</ele>
  <time>2026-08-28T17:52:41Z</time>
  <course>29.4</course>
  <speed>0.1835755975068582</speed>
  <fix>3d</fix>
</trkpt>
<trkpt lat="40.0728804" lon="-105.2280354">
  <ele>1583.0</ele>
  <time>2026-08-28T17:52:41Z</time>
  <course>29.24</course>
  <speed>0.44</speed>
  <fix>3d</fix>
</trkpt>
<trkpt lat="40.0728808" lon="-105.228035">
  <ele>1583.02</ele>
  <time>2026-08-28T17:52:41Z</time>
  <course>29.02</course>
  <speed>0.08062257748298549</speed>
  <fix>3d</fix>
</trkpt>
<trkpt lat="40.0728809" lon="-105.228035">
  <ele>1583.0</ele>
  <time>2026-08-28T17:52:41Z</time>
  <course>28.65</course>
  <speed>0.25</speed>
  <fix>3d</fix>
</trkpt>
<trkpt lat="40.0728809" lon="-105.228035">
  <ele>1583.02</ele>
  <time>2026-08-28T17:52:41Z</time>
  <course>28.75</course>
  <speed>0.0</speed>
  <fix>3d</fix>
</trkpt>
<trkpt lat="40.0728809" lon="-105.228035">
  <ele>1583.0</ele>
  <time>2026-08-28T17:52:41Z</time>
  <course>28.65</course>
  <speed>0.25</speed>
  <fix>3d</fix>
</trkpt>
<trkpt lat="40.0728809" lon="-105.228035">
  <ele>1583.02</ele>
  <time>2026-08-28T17:52:41Z</time>
  <course>28.85</course>
  <speed>0.0632455532033676</speed>
  <fix>3d</fix>
</trkpt>
<trkpt lat="40.0728812" lon="-105.2280348">
  <ele>1583.0</ele>
  <time>2026-08-28T17:52:41Z</time>
  <course>28.14</course>
  <speed>0.08</speed>
  <fix>3d</fix>
</trkpt>
<trkpt lat="40.0728809" lon="-105.228035">
  <ele>1583.02</ele>
  <time>2026-08-28T17:52:41Z</time>
  <course>28.77</course>
  <speed>0.10770329614269007</speed>
  <fix>3d</fix>
</trkpt>
<trkpt lat="40.0728812" lon="-105.2280348">
  <ele>1583.0</ele>
  <time>2026-08-28T17:52:41Z</time>
  <course>28.14</course>
  <speed>0.08</speed>
  <fix>3d</fix>
</trkpt>
<trkpt lat="40.0728808" lon="-105.2280351">
  <ele>1583.02</ele>
  <time>2026-08-28T17:52:41Z</time>
  <course>28.54</course>
  <speed>0.13</speed>
  <fix>3d</fix>
</trkpt>
<trkpt lat="40.0728812" lon="-105.2280348">
  <ele>1583.0</ele>
  <time>2026-08-28T17:52:41Z</time>
  <course>28.14</course>
  <speed>0.08</speed>
  <fix>3d</fix>
</trkpt>
<trkpt lat="40.0728807" lon="-105.2280351">
  <ele>1583.02</ele>
  <time>2026-08-28T17:52:41Z</time>
  <course>28.23</course>
  <speed>0.1392838827718412</speed>
  <fix>3d</fix>
</trkpt>
<trkpt lat="40.0728813" lon="-105.2280347">
  <ele>1583.0</ele>
  <time>2026-08-28T17:52:41Z</time>
  <course>207.48</course>
  <speed>0.03</speed>
  <fix>3d</fix>
</trkpt>
<trkpt lat="40.0728807" lon="-105.228035">
  <ele>1583.02</ele>
  <time>2026-08-28T17:52:41Z</time>
  <course>27.92</course>
  <speed>0.11704699910719625</speed>
  <fix>3d</fix>
</trkpt>
<trkpt lat="40.0728813" lon="-105.2280347">
  <ele>1583.0</ele>
  <time>2026-08-28T17:52:41Z</time>
  <course>207.48</course>
  <speed>0.03</speed>
  <fix>3d</fix>
</trkpt>
<trkpt lat="40.0728807" lon="-105.2280351">
  <ele>1583.02</ele>
  <time>2026-08-28T17:52:41Z</time>
  <course>27.71</course>
  <speed>0.0824621125123532</speed>
  <fix>3d</fix>
</trkpt>
<trkpt lat="40.0728812" lon="-105.2280348">
  <ele>1583.0</ele>
  <time>2026-08-28T17:52:41Z</time>
  <course>207.26</course>
  <speed>0.06</speed>
  <fix>3d</fix>
</trkpt>
<trkpt lat="40.0728807" lon="-105.2280351">
  <ele>1583.02</ele>
  <time>2026-08-28T17:52:41Z</time>
  <course>27.7</course>
  <speed>0.04</speed>
  <fix>3d</fix>
</trkpt>
<trkpt lat="40.0728812" lon="-105.2280348">
  <ele>1583.0</ele>
  <time>2026-08-28T17:52:41Z</time>
  <course>207.26</course>
  <speed>0.06</speed>
  <fix>3d</fix>
</trkpt>
<trkpt lat="40.0728807" lon="-105.228035">
  <ele>1583.02</ele>
  <time>2026-08-28T17:52:41Z</time>
  <course>27.82</course>
  <speed>0.02</speed>
  <fix>3d</fix>
</trkpt>
<trkpt lat="40.072881" lon="-105.2280349">
  <ele>1583.0</ele>
  <time>2026-08-28T17:52:41Z</time>
  <course>206.9</course>
  <speed>0.01</speed>
  <fix>3d</fix>
</trkpt>
<trkpt lat="40.0728808" lon="-105.228035">
  <ele>1583.01</ele>
  <time>2026-08-28T17:52:41Z</time>
  <course>27.15</course>
  <speed>0.07810249675906654</speed>
  <fix>3d</fix>
</trkpt>
<trkpt lat="40.072881" lon="-105.2280349">
  <ele>1583.0</ele>
  <time>2026-08-28T17:52:41Z</time>
  <course>206.9</course>
  <speed>0.01</speed>
  <fix>3d</fix>
</trkpt>
<trkpt lat="40.0728808" lon="-105.2280349">
  <ele>1583.01</ele>
  <time>2026-08-28T17:52:41Z</time>
  <course>26.07</course>
  <speed>0.15811388300841897</speed>
  <fix>3d</fix>
</trkpt>
<trkpt lat="40.0728811" lon="-105.2280348">
  <ele>1583.0</ele>
  <time>2026-08-28T17:52:41Z</time>
  <course>26.3</course>
  <speed>0.08</speed>
  <fix>3d</fix>
</trkpt>
<trkpt lat="40.072881" lon="-105.2280348">
  <ele>1583.01</ele>
  <time>2026-08-28T17:52:41Z</time>
  <course>24.58</course>
  <speed>0.24186773244895649</speed>
  <fix>3d</fix>
</trkpt>
<trkpt lat="40.0728814" lon="-105.2280347">
  <ele>1583.0</ele>
  <time>2026-08-28T17:52:41Z</time>
  <course>24.48</course>
  <speed>0.22</speed>
  <fix>3d</fix>
</trkpt>
<trkpt lat="40.0728814" lon="-105.2280346">
  <ele>1583.01</ele>
  <time>2026-08-28T17:52:41Z</time>
  <course>22.69</course>
  <speed>0.32202484376209234</speed>
  <fix>3d</fix>
</trkpt>
<trkpt lat="40.0728814" lon="-105.2280347">
  <ele>1583.0</ele>
  <time>2026-08-28T17:52:41Z</time>
  <course>24.48</course>
  <speed>0.22</speed>
  <fix>3d</fix>
</trkpt>
<trkpt lat="40.0728817" lon="-105.2280344">
  <ele>1583.01</ele>
  <time>2026-08-28T17:52:41Z</time>
  <course>20.48</course>
  <speed>0.41231056256176607</speed>
  <fix>3d</fix>
</trkpt>
<trkpt lat="40.0728819" lon="-105.2280344">
  <ele>1583.0</ele>
  <time>2026-08-28T17:52:41Z</time>
  <course>21.12</course>
  <speed>0.38</speed>
  <fix>3d</fix>
</trkpt>
<trkpt lat="40.0728822" lon="-105.2280342">
  <ele>1583.01</ele>
  <time>2026-08-28T17:52:41Z</time>
  <course>17.97</course>
  <speed>0.49979995998399196</speed>
  <fix>3d</fix>
</trkpt>
<trkpt lat="40.0728819" lon="-105.2280344">
  <ele>1583.0</ele>
  <time>2026-08-28T17:52:41Z</time>
  <course>21.12</course>
  <speed>0.38</speed>
  <fix>3d</fix>
</trkpt>
<trkpt lat="40.0728827" lon="-105.2280339">
  <ele>1583.02</ele>
  <time>2026-08-28T17:52:41Z</time>
  <course>15.27</course>
  <speed>0.5852349955359812</speed>
  <fix>3d</fix>
</trkpt>
<trkpt lat="40.0728827" lon="-105.2280341">
  <ele>1583.0</ele>
  <time>2026-08-28T17:52:41Z</time>
  <course>16.49</course>
  <speed>0.55</speed>
  <fix>3d</fix>
</trkpt>
<trkpt lat="40.0728833" lon="-105.2280337">
  <ele>1583.02</ele>
  <time>2026-08-28T17:52:42Z</time>
  <course>12.46</course>
  <speed>0.6694027188471824</speed>
  <fix>3d</fix>
</trkpt>
<trkpt lat="40.0728827" lon="-105.2280341">
  <ele>1583.0</ele>
  <time>2026-08-28T17:52:42Z</time>
  <course>16.49</course>
  <speed>0.55</speed>
  <fix>3d</fix>
</trkpt>
<trkpt lat="40.072884" lon="-105.2280335">
  <ele>1583.02</ele>
  <time>2026-08-28T17:52:42Z</time>
  <course>9.62</course>
  <speed>0.7433034373659253</speed>
  <fix>3d</fix>
</trkpt>
<trkpt lat="40.0728838" lon="-105.2280337">
  <ele>1583.0</ele>
  <time>2026-08-28T17:52:42Z</time>
  <course>11.14</course>
  <speed>0.71</speed>
  <fix>3d</fix>
</trkpt>
<trkpt lat="40.0728848" lon="-105.2280334">
  <ele>1583.02</ele>
  <time>2026-08-28T17:52:42Z</time>
  <course>6.88</course>
  <speed>0.8273451516749222</speed>
  <fix>3d</fix>
</trkpt>
<trkpt lat="40.0728838" lon="-105.2280337">
  <ele>1583.0</ele>
  <time>2026-08-28T17:52:42Z</time>
  <course>11.14</course>
  <speed>0.71</speed>
  <fix>3d</fix>
</trkpt>
<trkpt lat="40.0728856" lon="-105.2280333">
  <ele>1583.02</ele>
  <time>2026-08-28T17:52:42Z</time>
  <course>4.27</course>
  <speed>0.9035485598461215</speed>
  <fix>3d</fix>
</trkpt>
<trkpt lat="40.0728852" lon="-105.2280335">
  <ele>1583.0</ele>
  <time>2026-08-28T17:52:42Z</time>
  <course>5.74</course>
  <speed>0.86</speed>
  <fix>3d</fix>
</trkpt>
<trkpt lat="40.0728866" lon="-105.2280332">
  <ele>1583.02</ele>
  <time>2026-08-28T17:52:42Z</time>
  <course>1.92</course>
  <speed>0.97082439194738</speed>
  <fix>3d</fix>
</trkpt>
<trkpt lat="40.0728852" lon="-105.2280335">
  <ele>1583.0</ele>
  <time>2026-08-28T17:52:42Z</time>
  <course>5.74</course>
  <speed>0.86</speed>
  <fix>3d</fix>
</trkpt>
<trkpt lat="40.0728876" lon="-105.2280332">
  <ele>1583.02</ele>
  <time>2026-08-28T17:52:42Z</time>
  <course>359.93</course>
  <speed>1.050047617967871</speed>
  <fix>3d</fix>
</trkpt>
<trkpt lat="40.0728869" lon="-105.2280333">
  <ele>1583.0</ele>
  <time>2026-08-28T17:52:42Z</time>
  <course>0.97</course>
  <speed>1.01</speed>
  <fix>3d</fix>
</trkpt>
<trkpt lat="40.0728886" lon="-105.2280332">
  <ele>1583.02</ele>
  <time>2026-08-28T17:52:42Z</time>
  <course>358.29</course>
  <speed>1.1201785571952356</speed>
  <fix>3d</fix>
</trkpt>
<trkpt lat="40.0728869" lon="-105.2280333">
  <ele>1583.0</ele>
  <time>2026-08-28T17:52:42Z</time>
  <course>0.97</course>
  <speed>1.01</speed>
  <fix>3d</fix>
</trkpt>
<trkpt lat="40.0728897" lon="-105.2280333">
  <ele>1583.02</ele>
  <time>2026-08-28T17:52:42Z</time>
  <course>356.94</course>
  <speed>1.1910499569707393</speed>
  <fix>3d</fix>
</trkpt>
<trkpt lat="40.0728888" lon="-105.2280333">
  <ele>1583.0</ele>
  <time>2026-08-28T17:52:42Z</time>
  <course>357.37</course>
  <speed>1.15</speed>
  <fix>3d</fix>
</trkpt>
<trkpt lat="40.0728909" lon="-105.2280334">
  <ele>1583.02</ele>
  <time>2026-08-28T17:52:42Z</time>
  <course>355.84</course>
  <speed>1.2625371281669304</speed>
  <fix>3d</fix>
</trkpt>
<trkpt lat="40.0728888" lon="-105.2280333">
  <ele>1583.0</ele>
  <time>2026-08-28T17:52:42Z</time>
  <course>357.37</course>
  <speed>1.15</speed>
  <fix>3d</fix>
</trkpt>
<trkpt lat="40.0728921" lon="-105.2280334">
  <ele>1583.02</ele>
  <time>2026-08-28T17:52:42Z</time>
  <course>354.93</course>
  <speed>1.3337541002748594</speed>
  <fix>3d</fix>
</trkpt>
<trkpt lat="40.0728888" lon="-105.2280333">
  <ele>1583.0</ele>
  <time>2026-08-28T17:52:42Z</time>
  <course>357.37</course>
  <speed>1.15</speed>
  <fix>3d</fix>
</trkpt>
<trkpt lat="40.0728934" lon="-105.2280336">
  <ele>1583.02</ele>
  <time>2026-08-28T17:52:42Z</time>
  <course>354.18</course>
  <speed>1.4060227594174994</speed>
  <fix>3d</fix>
</trkpt>
<trkpt lat="40.072891" lon="-105.2280335">
  <ele>1583.0</ele>
  <time>2026-08-28T17:52:42Z</time>
  <course>354.91</course>
  <speed>1.29</speed>
  <fix>3d</fix>
</trkpt>
<trkpt lat="40.0728947" lon="-105.2280338">
  <ele>1583.02</ele>
  <time>2026-08-28T17:52:42Z</time>
  <course>353.56</course>
  <speed>1.4776332427229701</speed>
  <fix>3d</fix>
</trkpt>
<trkpt lat="40.072891" lon="-105.2280335">
  <ele>1583.0</ele>
  <time>2026-08-28T17:52:42Z</time>
  <course>354.91</course>
  <speed>1.29</speed>
  <fix>3d</fix>
</trkpt>
<trkpt lat="40.0728961" lon="-105.228034">
  <ele>1583.02</ele>
  <time>2026-08-28T17:52:42Z</time>
  <course>353.04</course>
  <speed>1.5493547043850222</speed>
  <fix>3d</fix>
</trkpt>
<trkpt lat="40.0728935" lon="-105.2280337">
  <ele>1583.0</ele>
  <time>2026-08-28T17:52:42Z</time>
  <course>353.25</course>
  <speed>1.43</speed>
  <fix>3d</fix>
</trkpt>
<trkpt lat="40.0728976" lon="-105.2280343">
  <ele>1583.02</ele>
  <time>2026-08-28T17:52:42Z</time>
  <course>352.61</course>
  <speed>1.621172415260018</speed>
  <fix>3d</fix>
</trkpt>
<trkpt lat="40.0728935" lon="-105.2280337">
  <ele>1583.0</ele>
  <time>2026-08-28T17:52:42Z</time>
  <course>353.25</course>
  <speed>1.43</speed>
  <fix>3d</fix>
</trkpt>
<trkpt lat="40.0728991" lon="-105.2280345">
  <ele>1583.02</ele>
  <time>2026-08-28T17:52:42Z</time>
  <course>352.26</course>
  <speed>1.6930741271426952</speed>
  <fix>3d</fix>
</trkpt>
<trkpt lat="40.0728962" lon="-105.2280342">
  <ele>1583.0</ele>
  <time>2026-08-28T17:52:42Z</time>
  <course>352.11</course>
  <speed>1.57</speed>
  <fix>3d</fix>
</trkpt>
<trkpt lat="40.0729007" lon="-105.2280348">
  <ele>1583.03</ele>
  <time>2026-08-28T17:52:42Z</time>
  <course>351.96</course>
  <speed>1.7749647883831385</speed>
  <fix>3d</fix>
</trkpt>
<trkpt lat="40.0728991" lon="-105.2280347">
  <ele>1583.0</ele>
  <time>2026-08-28T17:52:42Z</time>
  <course>351.33</course>
  <speed>1.72</speed>
  <fix>3d</fix>
</trkpt>
<trkpt lat="40.0729024" lon="-105.2280352">
  <ele>1583.03</ele>
  <time>2026-08-28T17:52:42Z</time>
  <course>351.71</course>
  <speed>1.8569060288555261</speed>
  <fix>3d</fix>
</trkpt>
<trkpt lat="40.0728991" lon="-105.2280347">
  <ele>1583.0</ele>
  <time>2026-08-28T17:52:42Z</time>
  <course>351.33</course>
  <speed>1.72</speed>
  <fix>3d</fix>
</trkpt>
<trkpt lat="40.0729041" lon="-105.2280355">
  <ele>1583.03</ele>
  <time>2026-08-28T17:52:42Z</time>
  <course>351.51</course>
  <speed>1.938891435846783</speed>
  <fix>3d</fix>
</trkpt>
<trkpt lat="40.0729023" lon="-105.2280354">
  <ele>1583.0</ele>
  <time>2026-08-28T17:52:42Z</time>
  <course>350.79</course>
  <speed>1.87</speed>
  <fix>3d</fix>
</trkpt>
<trkpt lat="40.0729059" lon="-105.2280359">
  <ele>1583.03</ele>
  <time>2026-08-28T17:52:42Z</time>
  <course>351.34</course>
  <speed>2.0209156340629364</speed>
  <fix>3d</fix>
</trkpt>
<trkpt lat="40.0729023" lon="-105.2280354">
  <ele>1583.0</ele>
  <time>2026-08-28T17:52:42Z</time>
  <course>350.79</course>
  <speed>1.87</speed>
  <fix>3d</fix>
</trkpt>
<trkpt lat="40.0729078" lon="-105.2280363">
  <ele>1583.02</ele>
  <time>2026-08-28T17:52:42Z</time>
  <course>351.2</course>
  <speed>2.102974084481309</speed>
  <fix>3d</fix>
</trkpt>
<trkpt lat="40.0729058" lon="-105.2280361">
  <ele>1583.0</ele>
  <time>2026-08-28T17:52:42Z</time>
  <course>350.43</course>
  <speed>2.03</speed>
  <fix>3d</fix>
</trkpt>
<trkpt lat="40.0729098" lon="-105.2280367">
  <ele>1583.02</ele>
  <time>2026-08-28T17:52:42Z</time>
  <course>351.09</course>
  <speed>2.1934675744127152</speed>
  <fix>3d</fix>
</trkpt>
<trkpt lat="40.0729058" lon="-105.2280361">
  <ele>1583.0</ele>
  <time>2026-08-28T17:52:42Z</time>
  <course>350.43</course>
  <speed>2.03</speed>
  <fix>3d</fix>
</trkpt>
<trkpt lat="40.0729118" lon="-105.2280371">
  <ele>1583.02</ele>
  <time>2026-08-28T17:52:42Z</time>
  <course>351.01</course>
  <speed>2.285432125441489</speed>
  <fix>3d</fix>
</trkpt>
<trkpt lat="40.0729095" lon="-105.228037">
  <ele>1583.0</ele>
  <time>2026-08-28T17:52:42Z</time>
  <course>350.19</course>
  <speed>2.2</speed>
  <fix>3d</fix>
</trkpt>
<trkpt lat="40.0729139" lon="-105.2280376">
  <ele>1583.02</ele>
  <time>2026-08-28T17:52:42Z</time>
  <course>350.94</course>
  <speed>2.377414562082095</speed>
  <fix>3d</fix>
</trkpt>
<trkpt lat="40.0729095" lon="-105.228037">
  <ele>1583.0</ele>
  <time>2026-08-28T17:52:42Z</time>
  <course>350.19</course>
  <speed>2.2</speed>
  <fix>3d</fix>
</trkpt>
<trkpt lat="40.0729161" lon="-105.2280381">
  <ele>1583.02</ele>
  <time>2026-08-28T17:52:42Z</time>
  <course>350.89</course>
  <speed>2.4694128856876083</speed>
  <fix>3d</fix>
</trkpt>
<trkpt lat="40.0729135" lon="-105.228038">
  <ele>1583.0</ele>
  <time>2026-08-28T17:52:42Z</time>
  <course>350.05</course>
  <speed>2.38</speed>
  <fix>3d</fix>
</trkpt>
<trkpt lat="40.0729184" lon="-105.2280386">
  <ele>1583.02</ele>
  <time>2026-08-28T17:52:42Z</time>
  <course>350.85</course>
  <speed>2.5614253844295365</speed>
  <fix>3d</fix>
</trkpt>
<trkpt lat="40.0729135" lon="-105.228038">
  <ele>1583.0</ele>
  <time>2026-08-28T17:52:42Z</time>
  <course>350.05</course>
  <speed>2.38</speed>
  <fix>3d</fix>
</trkpt>
<trkpt lat="40.0729208" lon="-105.2280392">
  <ele>1583.02</ele>
  <time>2026-08-28T17:52:42Z</time>
  <course>350.83</course>
  <speed>2.661766330841233</speed>
  <fix>3d</fix>
</trkpt>
<trkpt lat="40.0729179" lon="-105.228039">
  <ele>1583.0</ele>
  <time>2026-08-28T17:52:42Z</time>
  <course>349.98</course>
  <speed>2.56</speed>
  <fix>3d</fix>
</trkpt>
<trkpt lat="40.0729232" lon="-105.2280397">
  <ele>1583.02</ele>
  <time>2026-08-28T17:52:42Z</time>
  <course>350.82</course>
  <speed>2.7537792213610737</speed>
  <fix>3d</fix>
</trkpt>
<trkpt lat="40.0729179" lon="-105.228039">
  <ele>1583.0</ele>
  <time>2026-08-28T17:52:42Z</time>
  <course>349.98</course>
  <speed>2.56</speed>
  <fix>3d</fix>
</trkpt>
<trkpt lat="40.0729257" lon="-105.2280403">
  <ele>1583.02</ele>
  <time>2026-08-28T17:52:42Z</time>
  <course>350.82</course>
  <speed>2.8556785533389433</speed>
  <fix>3d</fix>
</trkpt>
<trkpt lat="40.0729226" lon="-105.22804">
  <ele>1583.0</ele>
  <time>2026-08-28T17:52:42Z</time>
  <course>349.96</course>
  <speed>2.75</speed>
  <fix>3d</fix>
</trkpt>
<trkpt lat="40.0729284" lon="-105.2280409">
  <ele>1583.02</ele>
  <time>2026-08-28T17:52:42Z</time>
  <course>350.81</course>
  <speed>2.9461330587738224</speed>
  <fix>3d</fix>
</trkpt>
<trkpt lat="40.0729226" lon="-105.22804">
  <ele>1583.0</ele>
  <time>2026-08-28T17:52:42Z</time>
  <course>349.96</course>
  <speed>2.75</speed>
  <fix>3d</fix>
</trkpt>
<trkpt lat="40.0729311" lon="-105.2280415">
  <ele>1583.02</ele>
  <time>2026-08-28T17:52:42Z</time>
  <course>350.8</course>
  <speed>3.048032152061392</speed>
  <fix>3d</fix>
</trkpt>
<trkpt lat="40.0729226" lon="-105.22804">
  <ele>1583.0</ele>
  <time>2026-08-28T17:52:42Z</time>
  <course>349.96</course>
  <speed>2.75</speed>
  <fix>3d</fix>
</trkpt>
<trkpt lat="40.0729338" lon="-105.2280422">
  <ele>1583.01</ele>
  <time>2026-08-28T17:52:42Z</time>
  <course>350.79</course>
  <speed>3.1499365072966152</speed>
  <fix>3d</fix>
</trkpt>
<trkpt lat="40.0729276" lon="-105.2280413">
  <ele>1583.0</ele>
  <time>2026-08-28T17:52:42Z</time>
  <course>349.96</course>
  <speed>2.94</speed>
  <fix>3d</fix>
</trkpt>
<trkpt lat="40.0729367" lon="-105.2280428">
  <ele>1583.01</ele>
  <time>2026-08-28T17:52:42Z</time>
  <course>350.79</course>
  <speed>3.251845629792411</speed>
  <fix>3d</fix>
</trkpt>
<trkpt lat="40.0729276" lon="-105.2280413">
  <ele>1583.0</ele>
  <time>2026-08-28T17:52:42Z</time>
  <course>349.96</course>
  <speed>2.94</speed>
  <fix>3d</fix>
</trkpt>
<trkpt lat="40.0729396" lon="-105.2280435">
  <ele>1583.01</ele>
  <time>2026-08-28T17:52:42Z</time>
  <course>350.78</course>
  <speed>3.3521634805003173</speed>
  <fix>3d</fix>
</trkpt>
<trkpt lat="40.0729331" lon="-105.2280425">
  <ele>1583.0</ele>
  <time>2026-08-28T17:52:42Z</time>
  <course>349.96</course>
  <speed>3.13</speed>
  <fix>3d</fix>
</trkpt>
<trkpt lat="40.0729426" lon="-105.2280442">
  <ele>1583.01</ele>
  <time>2026-08-28T17:52:42Z</time>
  <course>350.81</course>
  <speed>3.4540700629836683</speed>
  <fix>3d</fix>
</trkpt>
<trkpt lat="40.0729331" lon="-105.2280425">
  <ele>1583.0</ele>
  <time>2026-08-28T17:52:42Z</time>
  <course>349.96</course>
  <speed>3.13</speed>
  <fix>3d</fix>
</trkpt>
<trkpt lat="40.0729457" lon="-105.2280449">
  <ele>1583.01</ele>
  <time>2026-08-28T17:52:42Z</time>
  <course>350.83</course>
  <speed>3.5559808773389094</speed>
  <fix>3d</fix>
</trkpt>
<trkpt lat="40.0729388" lon="-105.2280438">
  <ele>1583.0</ele>
  <time>2026-08-28T17:52:42Z</time>
  <course>349.98</course>
  <speed>3.33</speed>
  <fix>3d</fix>
</trkpt>
<trkpt lat="40.0729489" lon="-105.2280456">
  <ele>1583.0</ele>
  <time>2026-08-28T17:52:42Z</time>
  <course>350.85</course>
  <speed>3.6562959398823285</speed>
  <fix>3d</fix>
</trkpt>
<trkpt lat="40.0729388" lon="-105.2280438">
  <ele>1583.0</ele>
  <time>2026-08-28T17:52:42Z</time>
  <course>349.98</course>
  <speed>3.33</speed>
  <fix>3d</fix>
</trkpt>
<trkpt lat="40.0729522" lon="-105.2280464">
  <ele>1583.0</ele>
  <time>2026-08-28T17:52:42Z</time>
  <course>350.9</course>
  <speed>3.7582043584669527</speed>
  <fix>3d</fix>
</trkpt>
<trkpt lat="40.0729449" lon="-105.2280452">
  <ele>1583.0</ele>
  <time>2026-08-28T17:52:42Z</time>
  <course>350.02</course>
  <speed>3.54</speed>
  <fix>3d</fix>
</trkpt>
<trkpt lat="40.0729555" lon="-105.2280471">
  <ele>1583.0</ele>
  <time>2026-08-28T17:52:42Z</time>
  <course>350.93</course>
  <speed>3.8585230334935154</speed>
  <fix>3d</fix>
</trkpt>
<trkpt lat="40.0729513" lon="-105.2280467">
  <ele>1583.0</ele>
  <time>2026-08-28T17:52:42Z</time>
  <course>350.1</course>
  <speed>3.74</speed>
  <fix>3d</fix>
</trkpt>
<trkpt lat="40.072959" lon="-105.2280479">
  <ele>1583.0</ele>
  <time>2026-08-28T17:52:42Z</time>
  <course>350.98</course>
  <speed>3.9604292696625705</speed>
  <fix>3d</fix>
</trkpt>
<trkpt lat="40.0729513" lon="-105.2280467">
  <ele>1583.0</ele>
  <time>2026-08-28T17:52:42Z</time>
  <course>350.1</course>
  <speed>3.74</speed>
  <fix>3d</fix>
</trkpt>
<trkpt lat="40.0729626" lon="-105.2280487">
  <ele>1583.0</ele>
  <time>2026-08-28T17:52:42Z</time>
  <course>351.02</course>
  <speed>4.070626487409524</speed>
  <fix>3d</fix>
</trkpt>
<trkpt lat="40.0729582" lon="-105.2280482">
  <ele>1583.0</ele>
  <time>2026-08-28T17:52:42Z</time>
  <course>350.19</course>
  <speed>3.95</speed>
  <fix>3d</fix>
</trkpt>
<trkpt lat="40.0729663" lon="-105.2280496">
  <ele>1583.0</ele>
  <time>2026-08-28T17:52:42Z</time>
  <course>351.05</course>
  <speed>4.172529209005013</speed>
  <fix>3d</fix>
</trkpt>
<trkpt lat="40.0729582" lon="-105.2280482">
  <ele>1583.0</ele>
  <time>2026-08-28T17:52:42Z</time>
  <course>350.19</course>
  <speed>3.95</speed>
  <fix>3d</fix>
</trkpt>
<trkpt lat="40.07297" lon="-105.2280504">
  <ele>1582.99</ele>
  <time>2026-08-28T17:52:42Z</time>
  <course>351.08</course>
  <speed>4.272856187610343</speed>
  <fix>3d</fix>
</trkpt>
<trkpt lat="40.0729653" lon="-105.2280498">
  <ele>1583.0</ele>
  <time>2026-08-28T17:52:42Z</time>
  <course>350.28</course>
  <speed>4.16</speed>
  <fix>3d</fix>
</trkpt>
<trkpt lat="40.0729739" lon="-105.2280513">
  <ele>1582.99</ele>
  <time>2026-08-28T17:52:42Z</time>
  <course>351.12</course>
  <speed>4.384632253678751</speed>
  <fix>3d</fix>
</trkpt>
<trkpt lat="40.0729653" lon="-105.2280498">
  <ele>1583.0</ele>
  <time>2026-08-28T17:52:42Z</time>
  <course>350.28</course>
  <speed>4.16</speed>
  <fix>3d</fix>
</trkpt>
<trkpt lat="40.0729779" lon="-105.2280522">
  <ele>1582.99</ele>
  <time>2026-08-28T17:52:42Z</time>
  <course>351.16</course>
  <speed>4.484963767969592</speed>
  <fix>3d</fix>
</trkpt>
<trkpt lat="40.0729728" lon="-105.2280515">
  <ele>1583.0</ele>
  <time>2026-08-28T17:52:42Z</time>
  <course>350.36</course>
  <speed>4.36</speed>
  <fix>3d</fix>
</trkpt>
<trkpt lat="40.072982" lon="-105.2280531">
  <ele>1582.99</ele>
  <time>2026-08-28T17:52:42Z</time>
  <course>351.18</course>
  <speed>4.586861672211186</speed>
  <fix>3d</fix>
</trkpt>
<trkpt lat="40.0729728" lon="-105.2280515">
  <ele>1583.0</ele>
  <time>2026-08-28T17:52:42Z</time>
  <course>350.36</course>
  <speed>4.36</speed>
  <fix>3d</fix>
</trkpt>
<trkpt lat="40.0729862" lon="-105.228054">
  <ele>1582.99</ele>
  <time>2026-08-28T17:52:42Z</time>
  <course>351.2</course>
  <speed>4.6871953234317</speed>
  <fix>3d</fix>
</trkpt>
<trkpt lat="40.0729808" lon="-105.2280533">
  <ele>1583.0</ele>
  <time>2026-08-28T17:52:42Z</time>
  <course>350.44</course>
  <speed>4.56</speed>
  <fix>3d</fix>
</trkpt>
<trkpt lat="40.0729904" lon="-105.2280549">
  <ele>1582.99</ele>
  <time>2026-08-28T17:52:42Z</time>
  <course>351.25</course>
  <speed>4.787535900648683</speed>
  <fix>3d</fix>
</trkpt>
<trkpt lat="40.0729808" lon="-105.2280533">
  <ele>1583.0</ele>
  <time>2026-08-28T17:52:42Z</time>
  <course>350.44</course>
  <speed>4.56</speed>
  <fix>3d</fix>
</trkpt>
<trkpt lat="40.0729947" lon="-105.2280559">
  <ele>1582.99</ele>
  <time>2026-08-28T17:52:42Z</time>
  <course>351.26</course>
  <speed>4.879549159502341</speed>
  <fix>3d</fix>
</trkpt>
<trkpt lat="40.0729891" lon="-105.228055">
  <ele>1583.0</ele>
  <time>2026-08-28T17:52:42Z</time>
  <course>350.49</course>
  <speed>4.75</speed>
  <fix>3d</fix>
</trkpt>
<trkpt lat="40.0729991" lon="-105.2280568">
  <ele>1582.99</ele>
  <time>2026-08-28T17:52:42Z</time>
  <course>351.28</course>
  <speed>4.960131046655925</speed>
  <fix>3d</fix>
</trkpt>
<trkpt lat="40.0729891" lon="-105.228055">
  <ele>1583.0</ele>
  <time>2026-08-28T17:52:42Z</time>
  <course>350.49</course>
  <speed>4.75</speed>
  <fix>3d</fix>
</trkpt>
<trkpt lat="40.0730036" lon="-105.2280578">
  <ele>1582.99</ele>
  <time>2026-08-28T17:52:42Z</time>
  <course>351.31</course>
  <speed>5.030834920766135</speed>
  <fix>3d</fix>
</trkpt>
<trkpt lat="40.0729976" lon="-105.2280569">
  <ele>1583.0</ele>
  <time>2026-08-28T17:52:42Z</time>
  <course>350.56</course>
  <speed>4.92</speed>
  <fix>3d</fix>
</trkpt>
<trkpt lat="40.0730081" lon="-105.2280588">
  <ele>1582.99</ele>
  <time>2026-08-28T17:52:42Z</time>
  <course>351.35</course>
  <speed>5.101538983483318</speed>
  <fix>3d</fix>
</trkpt>
<trkpt lat="40.0729976" lon="-105.2280569">
  <ele>1583.0</ele>
  <time>2026-08-28T17:52:42Z</time>
  <course>350.56</course>
  <speed>4.92</speed>
  <fix>3d</fix>
</trkpt>
<trkpt lat="40.0730127" lon="-105.2280597">
  <ele>1582.99</ele>
  <time>2026-08-28T17:52:42Z</time>
  <course>351.36</course>
  <speed>5.152484837435235</speed>
  <fix>3d</fix>
</trkpt>
<trkpt lat="40.0729976" lon="-105.2280569">
  <ele>1583.0</ele>
  <time>2026-08-28T17:52:42Z</time>
  <course>350.56</course>
  <speed>4.92</speed>
  <fix>3d</fix>
</trkpt>
<trkpt lat="40.0730172" lon="-105.2280607">
  <ele>1582.99</ele>
  <time>2026-08-28T17:52:42Z</time>
  <course>351.39</course>
  <speed>5.192003466870954</speed>
  <fix>3d</fix>
</trkpt>
<trkpt lat="40.0730065" lon="-105.2280588">
  <ele>1583.0</ele>
  <time>2026-08-28T17:52:42Z</time>
  <course>350.62</course>
  <speed>5.06</speed>
  <fix>3d</fix>
</trkpt>
<trkpt lat="40.0730218" lon="-105.2280617">
  <ele>1582.99</ele>
  <time>2026-08-28T17:52:42Z</time>
  <course>351.43</course>
  <speed>5.221647249671314</speed>
  <fix>3d</fix>
</trkpt>
<trkpt lat="40.0730065" lon="-105.2280588">
  <ele>1583.0</ele>
  <time>2026-08-28T17:52:42Z</time>
  <course>350.62</course>
  <speed>5.06</speed>
  <fix>3d</fix>
</trkpt>
<trkpt lat="40.0730264" lon="-105.2280627">
  <ele>1582.99</ele>
  <time>2026-08-28T17:52:42Z</time>
  <course>351.47</course>
  <speed>5.24141202349138</speed>
  <fix>3d</fix>
</trkpt>
<trkpt lat="40.0730156" lon="-105.2280608">
  <ele>1583.0</ele>
  <time>2026-08-28T17:52:42Z</time>
  <course>350.68</course>
  <speed>5.15</speed>
  <fix>3d</fix>
</trkpt>
<trkpt lat="40.073031" lon="-105.2280637">
  <ele>1582.99</ele>
  <time>2026-08-28T17:52:42Z</time>
  <course>351.51</course>
  <speed>5.24141202349138</speed>
  <fix>3d</fix>
</trkpt>
<trkpt lat="40.0730156" lon="-105.2280608">
  <ele>1583.0</ele>
  <time>2026-08-28T17:52:42Z</time>
  <course>350.68</course>
  <speed>5.15</speed>
  <fix>3d</fix>
</trkpt>
<trkpt lat="40.0730356" lon="-105.2280647">
  <ele>1583.0</ele>
  <time>2026-08-28T17:52:42Z</time>
  <course>351.54</course>
  <speed>5.24141202349138</speed>
  <fix>3d</fix>
</trkpt>
<trkpt lat="40.0730248" lon="-105.2280628">
  <ele>1583.0</ele>
  <time>2026-08-28T17:52:42Z</time>
  <course>350.76</course>
  <speed>5.2</speed>
  <fix>3d</fix>
</trkpt>
<trkpt lat="40.0730402" lon="-105.2280656">
  <ele>1583.0</ele>
  <time>2026-08-28T17:52:42Z</time>
  <course>351.59</course>
  <speed>5.231529413087534</speed>
  <fix>3d</fix>
</trkpt>
<trkpt lat="40.073034" lon="-105.2280647">
  <ele>1583.0</ele>
  <time>2026-08-28T17:52:42Z</time>
  <course>350.84</course>
  <speed>5.21</speed>
  <fix>3d</fix>
</trkpt>
<trkpt lat="40.0730449" lon="-105.2280666">
  <ele>1583.0</ele>
  <time>2026-08-28T17:52:42Z</time>
  <course>351.64</course>
  <speed>5.210239917700527</speed>
  <fix>3d</fix>
</trkpt>
<trkpt lat="40.073034" lon="-105.2280647">
  <ele>1583.0</ele>
  <time>2026-08-28T17:52:42Z</time>
  <course>350.84</course>
  <speed>5.21</speed>
  <fix>3d</fix>
</trkpt>
<trkpt lat="40.0730495" lon="-105.2280676">
  <ele>1583.01</ele>
  <time>2026-08-28T17:52:42Z</time>
  <course>351.67</course>
  <speed>5.190472040190565</speed>
  <fix>3d</fix>
</trkpt>
<trkpt lat="40.0730432" lon="-105.2280667">
  <ele>1583.0</ele>
  <time>2026-08-28T17:52:42Z</time>
  <course>350.91</course>
  <speed>5.19</speed>
  <fix>3d</fix>
</trkpt>
<trkpt lat="40.073054" lon="-105.2280685">
  <ele>1583.01</ele>
  <time>2026-08-28T17:52:42Z</time>
  <course>351.73</course>
  <speed>5.169187557053816</speed>
  <fix>3d</fix>
</trkpt>
<trkpt lat="40.0730432" lon="-105.2280667">
  <ele>1583.0</ele>
  <time>2026-08-28T17:52:42Z</time>
  <course>350.91</course>
  <speed>5.19</speed>
  <fix>3d</fix>
</trkpt>
<trkpt lat="40.0730586" lon="-105.2280695">
  <ele>1583.02</ele>
  <time>2026-08-28T17:52:42Z</time>
  <course>351.77</course>
  <speed>5.1380249123568875</speed>
  <fix>3d</fix>
</trkpt>
<trkpt lat="40.0730525" lon="-105.2280686">
  <ele>1583.0</ele>
  <time>2026-08-28T17:52:42Z</time>
  <course>351.0</course>
  <speed>5.15</speed>
  <fix>3d</fix>
</trkpt>
<trkpt lat="40.0730631" lon="-105.2280704">
  <ele>1583.02</ele>
  <time>2026-08-28T17:52:42Z</time>
  <course>351.8</course>
  <speed>5.108365687771383</speed>
  <fix>3d</fix>
</trkpt>
<trkpt lat="40.0730525" lon="-105.2280686">
  <ele>1583.0</ele>
  <time>2026-08-28T17:52:42Z</time>
  <course>351.0</course>
  <speed>5.15</speed>
  <fix>3d</fix>
</trkpt>
<trkpt lat="40.0730677" lon="-105.2280714">
  <ele>1583.02</ele>
  <time>2026-08-28T17:52:42Z</time>
  <course>351.85</course>
  <speed>5.077203954934251</speed>
  <fix>3d</fix>
</trkpt>
<trkpt lat="40.0730616" lon="-105.2280705">
  <ele>1583.0</ele>
  <time>2026-08-28T17:52:42Z</time>
  <course>351.09</course>
  <speed>5.1</speed>
  <fix>3d</fix>
</trkpt>
<trkpt lat="40.0730722" lon="-105.2280723">
  <ele>1583.02</ele>
  <time>2026-08-28T17:52:42Z</time>
  <course>351.89</course>
  <speed>5.046047958551326</speed>
  <fix>3d</fix>
</trkpt>
<trkpt lat="40.0730616" lon="-105.2280705">
  <ele>1583.0</ele>
  <time>2026-08-28T17:52:42Z</time>
  <course>351.09</course>
  <speed>5.1</speed>
  <fix>3d</fix>
</trkpt>
<trkpt lat="40.0730767" lon="-105.2280732">
  <ele>1583.02</ele>
  <time>2026-08-28T17:52:42Z</time>
  <course>351.92</course>
  <speed>5.016383159209432</speed>
  <fix>3d</fix>
</trkpt>
<trkpt lat="40.0730705" lon="-105.2280722">
  <ele>1583.0</ele>
  <time>2026-08-28T17:52:42Z</time>
  <course>351.17</course>
  <speed>5.03</speed>
  <fix>3d</fix>
</trkpt>
<trkpt lat="40.0730811" lon="-105.2280741">
  <ele>1583.01</ele>
  <time>2026-08-28T17:52:42Z</time>
  <course>351.96</course>
  <speed>4.985228179331414</speed>
  <fix>3d</fix>
</trkpt>
<trkpt lat="40.0730705" lon="-105.2280722">
  <ele>1583.0</ele>
  <time>2026-08-28T17:52:42Z</time>
  <course>351.17</course>
  <speed>5.03</speed>
  <fix>3d</fix>
</trkpt>
<trkpt lat="40.0730855" lon="-105.228075">
  <ele>1583.01</ele>
  <time>2026-08-28T17:52:42Z</time>
  <course>352.01</course>
  <speed>4.954079127345465</speed>
  <fix>3d</fix>
</trkpt>
<trkpt lat="40.0730794" lon="-105.228074">
  <ele>1583.0</ele>
  <time>2026-08-28T17:52:42Z</time>
  <course>351.25</course>
  <speed>4.97</speed>
  <fix>3d</fix>
</trkpt>
<trkpt lat="40.0730899" lon="-105.2280759">
  <ele>1583.01</ele>
  <time>2026-08-28T17:52:42Z</time>
  <course>352.05</course>
  <speed>4.924408593932879</speed>
  <fix>3d</fix>
</trkpt>
<trkpt lat="40.0730794" lon="-105.228074">
  <ele>1583.0</ele>
  <time>2026-08-28T17:52:42Z</time>
  <course>351.25</course>
  <speed>4.97</speed>
  <fix>3d</fix>
</trkpt>
<trkpt lat="40.0730943" lon="-105.2280768">
  <ele>1583.0</ele>
  <time>2026-08-28T17:52:42Z</time>
  <course>352.06</course>
  <speed>4.893260671576776</speed>
  <fix>3d</fix>
</trkpt>
<trkpt lat="40.0730882" lon="-105.2280758">
  <ele>1583.0</ele>
  <time>2026-08-28T17:52:42Z</time>
  <course>351.31</course>
  <speed>4.92</speed>
  <fix>3d</fix>
</trkpt>
<trkpt lat="40.0730986" lon="-105.2280777">
  <ele>1583.0</ele>
  <time>2026-08-28T17:52:42Z</time>
  <course>352.09</course>
  <speed>4.873479249981475</speed>
  <fix>3d</fix>
</trkpt>
<trkpt lat="40.0730882" lon="-105.2280758">
  <ele>1583.0</ele>
  <time>2026-08-28T17:52:42Z</time>
  <course>351.31</course>
  <speed>4.92</speed>
  <fix>3d</fix>
</trkpt>
<trkpt lat="40.0731029" lon="-105.2280785">
  <ele>1583.0</ele>
  <time>2026-08-28T17:52:42Z</time>
  <course>352.14</course>
  <speed>4.852226293156575</speed>
  <fix>3d</fix>
</trkpt>
<trkpt lat="40.0730882" lon="-105.2280758">
  <ele>1583.0</ele>
  <time>2026-08-28T17:52:42Z</time>
  <course>351.31</course>
  <speed>4.92</speed>
  <fix>3d</fix>
</trkpt>
<trkpt lat="40.0731072" lon="-105.2280794">
  <ele>1582.99</ele>
  <time>2026-08-28T17:52:42Z</time>
  <course>352.15</course>
  <speed>4.832442446630896</speed>
  <fix>3d</fix>
</trkpt>
<trkpt lat="40.0730969" lon="-105.2280776">
  <ele>1583.0</ele>
  <time>2026-08-28T17:52:42Z</time>
  <course>351.37</course>
  <speed>4.87</speed>
  <fix>3d</fix>
</trkpt>
<trkpt lat="40.0731114" lon="-105.2280802">
  <ele>1582.99</ele>
  <time>2026-08-28T17:52:42Z</time>
  <course>352.18</course>
  <speed>4.811195277683083</speed>
  <fix>3d</fix>
</trkpt>
<trkpt lat="40.0730969" lon="-105.2280776">
  <ele>1583.0</ele>
  <time>2026-08-28T17:52:42Z</time>
  <course>351.37</course>
  <speed>4.87</speed>
  <fix>3d</fix>
</trkpt>
<trkpt lat="40.0731157" lon="-105.2280811">
  <ele>1582.99</ele>
  <time>2026-08-28T17:52:42Z</time>
  <course>352.21</course>
  <speed>4.80130190677487</speed>
  <fix>3d</fix>
</trkpt>
<trkpt lat="40.0731056" lon="-105.2280793">
  <ele>1583.0</ele>
  <time>2026-08-28T17:52:42Z</time>
  <course>351.43</course>
  <speed>4.84</speed>
  <fix>3d</fix>
</trkpt>
<trkpt lat="40.0731199" lon="-105.2280819">
  <ele>1582.99</ele>
  <time>2026-08-28T17:52:42Z</time>
  <course>352.24</course>
  <speed>4.791408978578222</speed>
  <fix>3d</fix>
</trkpt>
<trkpt lat="40.0731056" lon="-105.2280793">
  <ele>1583.0</ele>
  <time>2026-08-28T17:52:42Z</time>
  <course>351.43</course>
  <speed>4.84</speed>
  <fix>3d</fix>
</trkpt>
<trkpt lat="40.0731241" lon="-105.2280827">
  <ele>1582.99</ele>
  <time>2026-08-28T17:52:42Z</time>
  <course>352.25</course>
  <speed>4.781516495841043</speed>
  <fix>3d</fix>
</trkpt>
<trkpt lat="40.0731142" lon="-105.228081">
  <ele>1583.0</ele>
  <time>2026-08-28T17:52:42Z</time>
  <course>351.47</course>
  <speed>4.81</speed>
  <fix>3d</fix>
</trkpt>
<trkpt lat="40.0731283" lon="-105.2280836">
  <ele>1582.99</ele>
  <time>2026-08-28T17:52:42Z</time>
  <course>352.28</course>
  <speed>4.781516495841043</speed>
  <fix>3d</fix>
</trkpt>
<trkpt lat="40.0731227" lon="-105.2280826">
  <ele>1583.0</ele>
  <time>2026-08-28T17:52:42Z</time>
  <course>351.51</course>
  <speed>4.8</speed>
  <fix>3d</fix>
</trkpt>
<trkpt lat="40.0731326" lon="-105.2280844">
  <ele>1582.99</ele>
  <time>2026-08-28T17:52:42Z</time>
  <course>352.3</course>
  <speed>4.780062761094252</speed>
  <fix>3d</fix>
</trkpt>
<trkpt lat="40.0731227" lon="-105.2280826">
  <ele>1583.0</ele>
  <time>2026-08-28T17:52:42Z</time>
  <course>351.51</course>
  <speed>4.8</speed>
  <fix>3d</fix>
</trkpt>
<trkpt lat="40.0731368" lon="-105.2280852">
  <ele>1582.99</ele>
  <time>2026-08-28T17:52:42Z</time>
  <course>352.31</course>
  <speed>4.780062761094252</speed>
  <fix>3d</fix>
</trkpt>
<trkpt lat="40.0731313" lon="-105.2280843">
  <ele>1583.0</ele>
  <time>2026-08-28T17:52:42Z</time>
  <course>351.54</course>
  <speed>4.81</speed>
  <fix>3d</fix>
</trkpt>
<trkpt lat="40.0731411" lon="-105.2280861">
  <ele>1582.99</ele>
  <time>2026-08-28T17:52:42Z</time>
  <course>352.34</course>
  <speed>4.7899582461645736</speed>
  <fix>3d</fix>
</trkpt>
<trkpt lat="40.0731313" lon="-105.2280843">
  <ele>1583.0</ele>
  <time>2026-08-28T17:52:42Z</time>
  <course>351.54</course>
  <speed>4.81</speed>
  <fix>3d</fix>
</trkpt>
<trkpt lat="40.0731454" lon="-105.2280869">
  <ele>1582.99</ele>
  <time>2026-08-28T17:52:42Z</time>
  <course>352.34</course>
  <speed>4.79985416445125</speed>
  <fix>3d</fix>
</trkpt>
<trkpt lat="40.0731398" lon="-105.2280859">
  <ele>1583.0</ele>
  <time>2026-08-28T17:52:42Z</time>
  <course>351.56</course>
  <speed>4.82</speed>
  <fix>3d</fix>
</trkpt>
<trkpt lat="40.0731497" lon="-105.2280877">
  <ele>1582.99</ele>
  <time>2026-08-28T17:52:42Z</time>
  <course>352.35</course>
  <speed>4.809750513280289</speed>
  <fix>3d</fix>
</trkpt>
<trkpt lat="40.0731398" lon="-105.2280859">
  <ele>1583.0</ele>
  <time>2026-08-28T17:52:42Z</time>
  <course>351.56</course>
  <speed>4.82</speed>
  <fix>3d</fix>
</trkpt>
<trkpt lat="40.073154" lon="-105.2280886">
  <ele>1582.99</ele>
  <time>2026-08-28T17:52:42Z</time>
  <course>352.37</course>
  <speed>4.8196472899995495</speed>
  <fix>3d</fix>
</trkpt>
<trkpt lat="40.0731484" lon="-105.2280876">
  <ele>1583.0</ele>
  <time>2026-08-28T17:52:42Z</time>
  <course>351.59</course>
  <speed>4.83</speed>
  <fix>3d</fix>
</trkpt>
<trkpt lat="40.0731583" lon="-105.2280894">
  <ele>1582.99</ele>
  <time>2026-08-28T17:52:42Z</time>
  <course>352.37</course>
  <speed>4.830983336754537</speed>
  <fix>3d</fix>
</trkpt>
<trkpt lat="40.0731484" lon="-105.2280876">
  <ele>1583.0</ele>
  <time>2026-08-28T17:52:42Z</time>
  <course>351.59</course>
  <speed>4.83</speed>
  <fix>3d</fix>
</trkpt>
<trkpt lat="40.0731626" lon="-105.2280902">
  <ele>1582.99</ele>
  <time>2026-08-28T17:52:42Z</time>
  <course>352.39</course>
  <speed>4.840878019533233</speed>
  <fix>3d</fix>
</trkpt>
<trkpt lat="40.0731569" lon="-105.2280893">
  <ele>1583.0</ele>
  <time>2026-08-28T17:52:42Z</time>
  <course>351.61</course>
  <speed>4.85</speed>
  <fix>3d</fix>
</trkpt>
<trkpt lat="40.073167" lon="-105.2280911">
  <ele>1582.99</ele>
  <time>2026-08-28T17:52:42Z</time>
  <course>352.4</course>
  <speed>4.850773134253961</speed>
  <fix>3d</fix>
</trkpt>
<trkpt lat="40.0731569" lon="-105.2280893">
  <ele>1583.0</ele>
  <time>2026-08-28T17:52:42Z</time>
  <course>351.61</course>
  <speed>4.85</speed>
  <fix>3d</fix>
</trkpt>
<trkpt lat="40.0731713" lon="-105.2280919">
  <ele>1582.99</ele>
  <time>2026-08-28T17:52:42Z</time>
  <course>352.41</course>
  <speed>4.860668678278741</speed>
  <fix>3d</fix>
</trkpt>
<trkpt lat="40.0731656" lon="-105.228091">
  <ele>1583.0</ele>
  <time>2026-08-28T17:52:42Z</time>
  <course>351.62</course>
  <speed>4.87</speed>
  <fix>3d</fix>
</trkpt>
<trkpt lat="40.0731757" lon="-105.2280928">
  <ele>1582.99</ele>
  <time>2026-08-28T17:52:42Z</time>
  <course>352.42</course>
  <speed>4.870564648990916</speed>
  <fix>3d</fix>
</trkpt>
<trkpt lat="40.0731656" lon="-105.228091">
  <ele>1583.0</ele>
  <time>2026-08-28T17:52:42Z</time>
  <course>351.62</course>
  <speed>4.87</speed>
  <fix>3d</fix>
</trkpt>
<trkpt lat="40.0731801" lon="-105.2280936">
  <ele>1582.99</ele>
  <time>2026-08-28T17:52:42Z</time>
  <course>352.42</course>
  <speed>4.8804610437949405</speed>
  <fix>3d</fix>
</trkpt>
<trkpt lat="40.0731743" lon="-105.2280926">
  <ele>1583.0</ele>
  <time>2026-08-28T17:52:42Z</time>
  <course>351.63</course>
  <speed>4.89</speed>
  <fix>3d</fix>
</trkpt>
<trkpt lat="40.0731844" lon="-105.2280944">
  <ele>1582.99</ele>
  <time>2026-08-28T17:52:42Z</time>
  <course>352.44</course>
  <speed>4.890357860116169</speed>
  <fix>3d</fix>
</trkpt>
<trkpt lat="40.0731743" lon="-105.2280926">
  <ele>1583.0</ele>
  <time>2026-08-28T17:52:42Z</time>
  <course>351.63</course>
  <speed>4.89</speed>
  <fix>3d</fix>
</trkpt>
<trkpt lat="40.0731888" lon="-105.2280953">
  <ele>1582.99</ele>
  <time>2026-08-28T17:52:42Z</time>
  <course>352.44</course>
  <speed>4.890357860116169</speed>
  <fix>3d</fix>
</trkpt>
<trkpt lat="40.0731743" lon="-105.2280926">
  <ele>1583.0</ele>
  <time>2026-08-28T17:52:42Z</time>
  <course>351.63</course>
  <speed>4.89</speed>
  <fix>3d</fix>
</trkpt>
<trkpt lat="40.0731932" lon="-105.2280961">
  <ele>1583.0</ele>
  <time>2026-08-28T17:52:42Z</time>
  <course>352.46</course>
  <speed>4.900255095400647</speed>
  <fix>3d</fix>
</trkpt>
<trkpt lat="40.073183" lon="-105.2280943">
  <ele>1583.0</ele>
  <time>2026-08-28T17:52:42Z</time>
  <course>351.65</course>
  <speed>4.91</speed>
  <fix>3d</fix>
</trkpt>
<trkpt lat="40.0731975" lon="-105.2280969">
  <ele>1583.0</ele>
  <time>2026-08-28T17:52:42Z</time>
  <course>352.46</course>
  <speed>4.900255095400647</speed>
  <fix>3d</fix>
</trkpt>
<trkpt lat="40.073183" lon="-105.2280943">
  <ele>1583.0</ele>
  <time>2026-08-28T17:52:42Z</time>
  <course>351.65</course>
  <speed>4.91</speed>
  <fix>3d</fix>
</trkpt>
<trkpt lat="40.0732018" lon="-105.2280978">
  <ele>1583.0</ele>
  <time>2026-08-28T17:52:42Z</time>
  <course>352.48</course>
  <speed>4.9101527471149</speed>
  <fix>3d</fix>
</trkpt>
<trkpt lat="40.0731918" lon="-105.2280959">
  <ele>1583.0</ele>
  <time>2026-08-28T17:52:42Z</time>
  <course>351.66</course>
  <speed>4.92</speed>
  <fix>3d</fix>
</trkpt>
<trkpt lat="40.0732062" lon="-105.2280986">
  <ele>1583.0</ele>
  <time>2026-08-28T17:52:42Z</time>
  <course>352.48</course>
  <speed>4.9101527471149</speed>
  <fix>3d</fix>
</trkpt>
<trkpt lat="40.0731918" lon="-105.2280959">
  <ele>1583.0</ele>
  <time>2026-08-28T17:52:42Z</time>
  <course>351.66</course>
  <speed>4.92</speed>
  <fix>3d</fix>
</trkpt>
<trkpt lat="40.0732105" lon="-105.2280994">
  <ele>1583.0</ele>
  <time>2026-08-28T17:52:42Z</time>
  <course>352.49</course>
  <speed>4.9101527471149</speed>
  <fix>3d</fix>
</trkpt>
<trkpt lat="40.0732006" lon="-105.2280976">
  <ele>1583.0</ele>
  <time>2026-08-28T17:52:42Z</time>
  <course>351.67</course>
  <speed>4.94</speed>
  <fix>3d</fix>
</trkpt>
<trkpt lat="40.0732149" lon="-105.2281003">
  <ele>1583.0</ele>
  <time>2026-08-28T17:52:42Z</time>
  <course>352.49</course>
  <speed>4.920050812745739</speed>
  <fix>3d</fix>
</trkpt>
<trkpt lat="40.0732006" lon="-105.2280976">
  <ele>1583.0</ele>
  <time>2026-08-28T17:52:42Z</time>
  <course>351.67</course>
  <speed>4.94</speed>
  <fix>3d</fix>
</trkpt>
<trkpt lat="40.0732193" lon="-105.2281011">
  <ele>1583.0</ele>
  <time>2026-08-28T17:52:42Z</time>
  <course>352.49</course>
  <speed>4.920050812745739</speed>
  <fix>3d</fix>
</trkpt>
<trkpt lat="40.0732093" lon="-105.2280993">
  <ele>1583.0</ele>
  <time>2026-08-28T17:52:42Z</time>
  <course>351.68</course>
  <speed>4.95</speed>
  <fix>3d</fix>
</trkpt>
<trkpt lat="40.0732236" lon="-105.2281019">
  <ele>1583.01</ele>
  <time>2026-08-28T17:52:42Z</time>
  <course>352.5</course>
  <speed>4.920050812745739</speed>
  <fix>3d</fix>
</trkpt>
<trkpt lat="40.0732182" lon="-105.228101">
  <ele>1583.0</ele>
  <time>2026-08-28T17:52:42Z</time>
  <course>351.68</course>
  <speed>4.96</speed>
  <fix>3d</fix>
</trkpt>
<trkpt lat="40.0732281" lon="-105.2281028">
  <ele>1583.01</ele>
  <time>2026-08-28T17:52:42Z</time>
  <course>352.51</course>
  <speed>4.9299492898000485</speed>
  <fix>3d</fix>
</trkpt>
<trkpt lat="40.0732182" lon="-105.228101">
  <ele>1583.0</ele>
  <time>2026-08-28T17:52:42Z</time>
  <course>351.68</course>
  <speed>4.96</speed>
  <fix>3d</fix>
</trkpt>
<trkpt lat="40.0732324" lon="-105.2281036">
  <ele>1583.01</ele>
  <time>2026-08-28T17:52:42Z</time>
  <course>352.52</course>
  <speed>4.9299492898000485</speed>
  <fix>3d</fix>
</trkpt>
<trkpt lat="40.073227" lon="-105.2281027">
  <ele>1583.0</ele>
  <time>2026-08-28T17:52:42Z</time>
  <course>351.69</course>
  <speed>4.97</speed>
  <fix>3d</fix>
</trkpt>
<trkpt lat="40.0732369" lon="-105.2281044">
  <ele>1583.01</ele>
  <time>2026-08-28T17:52:42Z</time>
  <course>352.52</course>
  <speed>4.9299492898000485</speed>
  <fix>3d</fix>
</trkpt>
<trkpt lat="40.073227" lon="-105.2281027">
  <ele>1583.0</ele>
  <time>2026-08-28T17:52:42Z</time>
  <course>351.69</course>
  <speed>4.97</speed>
  <fix>3d</fix>
</trkpt>
<trkpt lat="40.0732413" lon="-105.2281053">
  <ele>1583.01</ele>
  <time>2026-08-28T17:52:42Z</time>
  <course>352.52</course>
  <speed>4.939848175804596</speed>
  <fix>3d</fix>
</trkpt>
<trkpt lat="40.0732359" lon="-105.2281044">
  <ele>1583.0</ele>
  <time>2026-08-28T17:52:42Z</time>
  <course>351.69</course>
  <speed>4.97</speed>
  <fix>3d</fix>
</trkpt>
<trkpt lat="40.0732458" lon="-105.2281061">
  <ele>1583.01</ele>
  <time>2026-08-28T17:52:42Z</time>
  <course>352.52</course>
  <speed>4.939848175804596</speed>
  <fix>3d</fix>
</trkpt>
<trkpt lat="40.0732359" lon="-105.2281044">
  <ele>1583.0</ele>
  <time>2026-08-28T17:52:42Z</time>
  <course>351.69</course>
  <speed>4.97</speed>
  <fix>3d</fix>
</trkpt>
<trkpt lat="40.0732502" lon="-105.228107">
  <ele>1583.01</ele>
  <time>2026-08-28T17:52:42Z</time>
  <course>352.54</course>
  <speed>4.939848175804596</speed>
  <fix>3d</fix>
</trkpt>
<trkpt lat="40.0732447" lon="-105.228106">
  <ele>1583.0</ele>
  <time>2026-08-28T17:52:42Z</time>
  <course>351.7</course>
  <speed>4.98</speed>
  <fix>3d</fix>
</trkpt>
<trkpt lat="40.0732547" lon="-105.2281078">
  <ele>1583.01</ele>
  <time>2026-08-28T17:52:42Z</time>
  <course>352.54</course>
  <speed>4.949747468305833</speed>
  <fix>3d</fix>
</trkpt>
<trkpt lat="40.0732447" lon="-105.228106">
  <ele>1583.0</ele>
  <time>2026-08-28T17:52:42Z</time>
  <course>351.7</course>
  <speed>4.98</speed>
  <fix>3d</fix>
</trkpt>
<trkpt lat="40.0732592" lon="-105.2281087">
  <ele>1583.01</ele>
  <time>2026-08-28T17:52:42Z</time>
  <course>352.55</course>
  <speed>4.949747468305833</speed>
  <fix>3d</fix>
</trkpt>
<trkpt lat="40.0732536" lon="-105.2281077">
  <ele>1583.0</ele>
  <time>2026-08-28T17:52:42Z</time>
  <course>351.71</course>
  <speed>4.98</speed>
  <fix>3d</fix>
</trkpt>
<trkpt lat="40.0732636" lon="-105.2281095">
  <ele>1583.01</ele>
  <time>2026-08-28T17:52:42Z</time>
  <course>352.55</course>
  <speed>4.949747468305833</speed>
  <fix>3d</fix>
</trkpt>
<trkpt lat="40.0732536" lon="-105.2281077">
  <ele>1583.0</ele>
  <time>2026-08-28T17:52:42Z</time>
  <course>351.71</course>
  <speed>4.98</speed>
  <fix>3d</fix>
</trkpt>
<trkpt lat="40.0732681" lon="-105.2281104">
  <ele>1583.01</ele>
  <time>2026-08-28T17:52:42Z</time>
  <course>352.55</course>
  <speed>4.949747468305833</speed>
  <fix>3d</fix>
</trkpt>
<trkpt lat="40.0732624" lon="-105.2281094">
  <ele>1583.0</ele>
  <time>2026-08-28T17:52:42Z</time>
  <course>351.71</course>
  <speed>4.98</speed>
  <fix>3d</fix>
</trkpt>
<trkpt lat="40.0732725" lon="-105.2281112">
  <ele>1583.01</ele>
  <time>2026-08-28T17:52:42Z</time>
  <course>352.55</course>
  <speed>4.949747468305833</speed>
  <fix>3d</fix>
</trkpt>
<trkpt lat="40.0732624" lon="-105.2281094">
  <ele>1583.0</ele>
  <time>2026-08-28T17:52:42Z</time>
  <course>351.71</course>
  <speed>4.98</speed>
  <fix>3d</fix>
</trkpt>
<trkpt lat="40.073277" lon="-105.228112">
  <ele>1583.01</ele>
  <time>2026-08-28T17:52:42Z</time>
  <course>352.56</course>
  <speed>4.939848175804596</speed>
  <fix>3d</fix>
</trkpt>
<trkpt lat="40.0732713" lon="-105.2281111">
  <ele>1583.0</ele>
  <time>2026-08-28T17:52:42Z</time>
  <course>351.71</course>
  <speed>4.97</speed>
  <fix>3d</fix>
</trkpt>
<trkpt lat="40.0732814" lon="-105.2281129">
  <ele>1583.01</ele>
  <time>2026-08-28T17:52:42Z</time>
  <course>352.56</course>
  <speed>4.939848175804596</speed>
  <fix>3d</fix>
</trkpt>
<trkpt lat="40.0732713" lon="-105.2281111">
  <ele>1583.0</ele>
  <time>2026-08-28T17:52:42Z</time>
  <course>351.71</course>
  <speed>4.97</speed>
  <fix>3d</fix>
</trkpt>
<trkpt lat="40.0732859" lon="-105.2281137">
  <ele>1583.01</ele>
  <time>2026-08-28T17:52:42Z</time>
  <course>352.56</course>
  <speed>4.939848175804596</speed>
  <fix>3d</fix>
</trkpt>
<trkpt lat="40.0732713" lon="-105.2281111">
  <ele>1583.0</ele>
  <time>2026-08-28T17:52:42Z</time>
  <course>351.71</course>
  <speed>4.97</speed>
  <fix>3d</fix>
</trkpt>
<trkpt lat="40.0732903" lon="-105.2281146">
  <ele>1583.01</ele>
  <time>2026-08-28T17:52:42Z</time>
  <course>352.58</course>
  <speed>4.9384410495620985</speed>
  <fix>3d</fix>
</trkpt>
<trkpt lat="40.0732801" lon="-105.2281128">
  <ele>1583.0</ele>
  <time>2026-08-28T17:52:42Z</time>
  <course>351.71</course>
  <speed>4.97</speed>
  <fix>3d</fix>
</trkpt>
<trkpt lat="40.0732947" lon="-105.2281154">
  <ele>1583.01</ele>
  <time>2026-08-28T17:52:42Z</time>
  <course>352.59</course>
  <speed>4.928539337369643</speed>
  <fix>3d</fix>
</trkpt>
<trkpt lat="40.0732801" lon="-105.2281128">
  <ele>1583.0</ele>
  <time>2026-08-28T17:52:42Z</time>
  <course>351.71</course>
  <speed>4.97</speed>
  <fix>3d</fix>
</trkpt>
<trkpt lat="40.073299" lon="-105.2281162">
  <ele>1583.01</ele>
  <time>2026-08-28T17:52:42Z</time>
  <course>352.6</course>
  <speed>4.928539337369643</speed>
  <fix>3d</fix>
</trkpt>
<trkpt lat="40.073289" lon="-105.2281145">
  <ele>1583.0</ele>
  <time>2026-08-28T17:52:42Z</time>
  <course>351.72</course>
  <speed>4.96</speed>
  <fix>3d</fix>
</trkpt>
<trkpt lat="40.0733034" lon="-105.228117">
  <ele>1583.01</ele>
  <time>2026-08-28T17:52:42Z</time>
  <course>352.63</course>
  <speed>4.918638022867713</speed>
  <fix>3d</fix>
</trkpt>
<trkpt lat="40.073289" lon="-105.2281145">
  <ele>1583.0</ele>
  <time>2026-08-28T17:52:42Z</time>
  <course>351.72</course>
  <speed>4.96</speed>
  <fix>3d</fix>
</trkpt>
<trkpt lat="40.0733077" lon="-105.2281179">
  <ele>1583.0</ele>
  <time>2026-08-28T17:52:42Z</time>
  <course>352.66</course>
  <speed>4.897438105785514</speed>
  <fix>3d</fix>
</trkpt>
<trkpt lat="40.0732978" lon="-105.2281161">
  <ele>1583.0</ele>
  <time>2026-08-28T17:52:42Z</time>
  <course>351.75</course>
  <speed>4.95</speed>
  <fix>3d</fix>
</trkpt>
<trkpt lat="40.0733121" lon="-105.2281187">
  <ele>1583.0</ele>
  <time>2026-08-28T17:52:42Z</time>
  <course>352.69</course>
  <speed>4.877632622492186</speed>
  <fix>3d</fix>
</trkpt>
<trkpt lat="40.0733066" lon="-105.2281178">
  <ele>1583.0</ele>
  <time>2026-08-28T17:52:42Z</time>
  <course>351.79</course>
  <speed>4.93</speed>
  <fix>3d</fix>
</trkpt>
<trkpt lat="40.0733165" lon="-105.2281195">
  <ele>1583.0</ele>
  <time>2026-08-28T17:52:42Z</time>
  <course>352.7</course>
  <speed>4.846534844608053</speed>
  <fix>3d</fix>
</trkpt>
<trkpt lat="40.0733066" lon="-105.2281178">
  <ele>1583.0</ele>
  <time>2026-08-28T17:52:42Z</time>
  <course>351.79</course>
  <speed>4.93</speed>
  <fix>3d</fix>
</trkpt>
<trkpt lat="40.0733208" lon="-105.2281203">
  <ele>1582.99</ele>
  <time>2026-08-28T17:52:42Z</time>
  <course>352.75</course>
  <speed>4.805538471389029</speed>
  <fix>3d</fix>
</trkpt>
<trkpt lat="40.0733153" lon="-105.2281194">
  <ele>1583.0</ele>
  <time>2026-08-28T17:52:42Z</time>
  <course>351.84</course>
  <speed>4.88</speed>
  <fix>3d</fix>
</trkpt>
<trkpt lat="40.073325" lon="-105.2281211">
  <ele>1582.99</ele>
  <time>2026-08-28T17:52:42Z</time>
  <course>352.8</course>
  <speed>4.764546148375519</speed>
  <fix>3d</fix>
</trkpt>
<trkpt lat="40.0733153" lon="-105.2281194">
  <ele>1583.0</ele>
  <time>2026-08-28T17:52:42Z</time>
  <course>351.84</course>
  <speed>4.88</speed>
  <fix>3d</fix>
</trkpt>
<trkpt lat="40.0733293" lon="-105.2281219">
  <ele>1582.99</ele>
  <time>2026-08-28T17:52:42Z</time>
  <course>352.83</course>
  <speed>4.7037431902687885</speed>
  <fix>3d</fix>
</trkpt>
<trkpt lat="40.0733239" lon="-105.2281211">
  <ele>1583.0</ele>
  <time>2026-08-28T17:52:42Z</time>
  <course>351.91</course>
  <speed>4.79</speed>
  <fix>3d</fix>
</trkpt>
<trkpt lat="40.0733335" lon="-105.2281226">
  <ele>1582.99</ele>
  <time>2026-08-28T17:52:42Z</time>
  <course>352.87</course>
  <speed>4.63303356344415</speed>
  <fix>3d</fix>
</trkpt>
<trkpt lat="40.0733239" lon="-105.2281211">
  <ele>1583.0</ele>
  <time>2026-08-28T17:52:42Z</time>
  <course>351.91</course>
  <speed>4.79</speed>
  <fix>3d</fix>
</trkpt>
<trkpt lat="40.0733376" lon="-105.2281234">
  <ele>1582.99</ele>
  <time>2026-08-28T17:52:42Z</time>
  <course>352.94</course>
  <speed>4.552416940483374</speed>
  <fix>3d</fix>
</trkpt>
<trkpt lat="40.0733324" lon="-105.2281226">
  <ele>1583.0</ele>
  <time>2026-08-28T17:52:42Z</time>
  <course>352.0</course>
  <speed>4.66</speed>
  <fix>3d</fix>
</trkpt>
<trkpt lat="40.0733417" lon="-105.2281242">
  <ele>1582.99</ele>
  <time>2026-08-28T17:52:42Z</time>
  <course>352.96</course>
  <speed>4.460538084132899</speed>
  <fix>3d</fix>
</trkpt>
<trkpt lat="40.0733324" lon="-105.2281226">
  <ele>1583.0</ele>
  <time>2026-08-28T17:52:42Z</time>
  <course>352.0</course>
  <speed>4.66</speed>
  <fix>3d</fix>
</trkpt>
<trkpt lat="40.0733457" lon="-105.2281249">
  <ele>1582.99</ele>
  <time>2026-08-28T17:52:42Z</time>
  <course>353.01</course>
  <speed>4.370011441632618</speed>
  <fix>3d</fix>
</trkpt>
<trkpt lat="40.0733405" lon="-105.2281241">
  <ele>1583.0</ele>
  <time>2026-08-28T17:52:42Z</time>
  <course>352.08</course>
  <speed>4.49</speed>
  <fix>3d</fix>
</trkpt>
<trkpt lat="40.0733495" lon="-105.2281256">
  <ele>1582.99</ele>
  <time>2026-08-28T17:52:42Z</time>
  <course>353.06</course>
  <speed>4.258321265475399</speed>
  <fix>3d</fix>
</trkpt>
<trkpt lat="40.0733405" lon="-105.2281241">
  <ele>1583.0</ele>
  <time>2026-08-28T17:52:42Z</time>
  <course>352.08</course>
  <speed>4.49</speed>
  <fix>3d</fix>
</trkpt>
<trkpt lat="40.0733533" lon="-105.2281263">
  <ele>1582.99</ele>
  <time>2026-08-28T17:52:42Z</time>
  <course>353.1</course>
  <speed>4.146637191749479</speed>
  <fix>3d</fix>
</trkpt>
<trkpt lat="40.0733484" lon="-105.2281256">
  <ele>1583.0</ele>
  <time>2026-08-28T17:52:42Z</time>
  <course>352.16</course>
  <speed>4.29</speed>
  <fix>3d</fix>
</trkpt>
<trkpt lat="40.073357" lon="-105.2281269">
  <ele>1582.99</ele>
  <time>2026-08-28T17:52:42Z</time>
  <course>353.16</course>
  <speed>4.0250465835813625</speed>
  <fix>3d</fix>
</trkpt>
<trkpt lat="40.0733484" lon="-105.2281256">
  <ele>1583.0</ele>
  <time>2026-08-28T17:52:42Z</time>
  <course>352.16</course>
  <speed>4.29</speed>
  <fix>3d</fix>
</trkpt>
<trkpt lat="40.0733605" lon="-105.2281276">
  <ele>1582.99</ele>
  <time>2026-08-28T17:52:42Z</time>
  <course>353.22</course>
  <speed>3.904779123074697</speed>
  <fix>3d</fix>
</trkpt>
<trkpt lat="40.0733558" lon="-105.2281269">
  <ele>1583.0</ele>
  <time>2026-08-28T17:52:42Z</time>
  <course>352.26</course>
  <speed>4.06</speed>
  <fix>3d</fix>
</trkpt>
<trkpt lat="40.073364" lon="-105.2281282">
  <ele>1582.99</ele>
  <time>2026-08-28T17:52:42Z</time>
  <course>353.27</course>
  <speed>3.783186487605389</speed>
  <fix>3d</fix>
</trkpt>
<trkpt lat="40.0733558" lon="-105.2281269">
  <ele>1583.0</ele>
  <time>2026-08-28T17:52:42Z</time>
  <course>352.26</course>
  <speed>4.06</speed>
  <fix>3d</fix>
</trkpt>
<trkpt lat="40.0733673" lon="-105.2281288">
  <ele>1582.99</ele>
  <time>2026-08-28T17:52:42Z</time>
  <course>353.33</course>
  <speed>3.6516845427829607</speed>
  <fix>3d</fix>
</trkpt>
<trkpt lat="40.0733558" lon="-105.2281269">
  <ele>1583.0</ele>
  <time>2026-08-28T17:52:42Z</time>
  <course>352.26</course>
  <speed>4.06</speed>
  <fix>3d</fix>
</trkpt>
<trkpt lat="40.0733705" lon="-105.2281293">
  <ele>1582.99</ele>
  <time>2026-08-28T17:52:42Z</time>
  <course>353.38</course>
  <speed>3.520184654247558</speed>
  <fix>3d</fix>
</trkpt>
<trkpt lat="40.0733628" lon="-105.228128">
  <ele>1583.0</ele>
  <time>2026-08-28T17:52:42Z</time>
  <course>352.36</course>
  <speed>3.81</speed>
  <fix>3d</fix>
</trkpt>
<trkpt lat="40.0733736" lon="-105.2281299">
  <ele>1582.99</ele>
  <time>2026-08-28T17:52:42Z</time>
  <course>353.43</course>
  <speed>3.3886870613852795</speed>
  <fix>3d</fix>
</trkpt>
<trkpt lat="40.0733628" lon="-105.228128">
  <ele>1583.0</ele>
  <time>2026-08-28T17:52:42Z</time>
  <course>352.36</course>
  <speed>3.81</speed>
  <fix>3d</fix>
</trkpt>
<trkpt lat="40.0733765" lon="-105.2281304">
  <ele>1583.0</ele>
  <time>2026-08-28T17:52:42Z</time>
  <course>353.48</course>
  <speed>3.257192042235152</speed>
  <fix>3d</fix>
</trkpt>
<trkpt lat="40.0733694" lon="-105.2281292">
  <ele>1583.0</ele>
  <time>2026-08-28T17:52:42Z</time>
  <course>352.46</course>
  <speed>3.56</speed>
  <fix>3d</fix>
</trkpt>
<trkpt lat="40.0733793" lon="-105.2281309">
  <ele>1583.0</ele>
  <time>2026-08-28T17:52:42Z</time>
  <course>353.52</course>
  <speed>3.1356179614232342</speed>
  <fix>3d</fix>
</trkpt>
<trkpt lat="40.0733694" lon="-105.2281292">
  <ele>1583.0</ele>
  <time>2026-08-28T17:52:42Z</time>
  <course>352.46</course>
  <speed>3.56</speed>
  <fix>3d</fix>
</trkpt>
<trkpt lat="40.073382" lon="-105.2281313">
  <ele>1583.0</ele>
  <time>2026-08-28T17:52:42Z</time>
  <course>353.57</course>
  <speed>3.004130489842277</speed>
  <fix>3d</fix>
</trkpt>
<trkpt lat="40.0733755" lon="-105.2281302">
  <ele>1583.0</ele>
  <time>2026-08-28T17:52:42Z</time>
  <course>352.56</course>
  <speed>3.31</speed>
  <fix>3d</fix>
</trkpt>
<trkpt lat="40.0733846" lon="-105.2281318">
  <ele>1583.01</ele>
  <time>2026-08-28T17:52:42Z</time>
  <course>353.61</course>
  <speed>2.8739171873942366</speed>
  <fix>3d</fix>
</trkpt>
<trkpt lat="40.0733755" lon="-105.2281302">
  <ele>1583.0</ele>
  <time>2026-08-28T17:52:42Z</time>
  <course>352.56</course>
  <speed>3.31</speed>
  <fix>3d</fix>
</trkpt>
<trkpt lat="40.0733871" lon="-105.2281322">
  <ele>1583.01</ele>
  <time>2026-08-28T17:52:42Z</time>
  <course>353.65</course>
  <speed>2.75234445518725</speed>
  <fix>3d</fix>
</trkpt>
<trkpt lat="40.0733812" lon="-105.2281313">
  <ele>1583.0</ele>
  <time>2026-08-28T17:52:42Z</time>
  <course>352.64</course>
  <speed>3.05</speed>
  <fix>3d</fix>
</trkpt>
<trkpt lat="40.0733895" lon="-105.2281326">
  <ele>1583.01</ele>
  <time>2026-08-28T17:52:42Z</time>
  <course>353.69</course>
  <speed>2.6307793522072505</speed>
  <fix>3d</fix>
</trkpt>
<trkpt lat="40.0733864" lon="-105.2281322">
  <ele>1583.0</ele>
  <time>2026-08-28T17:52:42Z</time>
  <course>352.72</course>
  <speed>2.81</speed>
  <fix>3d</fix>
</trkpt>
<trkpt lat="40.0733918" lon="-105.228133">
  <ele>1583.01</ele>
  <time>2026-08-28T17:52:42Z</time>
  <course>353.73</course>
  <speed>2.510478042126638</speed>
  <fix>3d</fix>
</trkpt>
<trkpt lat="40.0733864" lon="-105.2281322">
  <ele>1583.0</ele>
  <time>2026-08-28T17:52:42Z</time>
  <course>352.72</course>
  <speed>2.81</speed>
  <fix>3d</fix>
</trkpt>
<trkpt lat="40.073394" lon="-105.2281333">
  <ele>1583.01</ele>
  <time>2026-08-28T17:52:42Z</time>
  <course>353.76</course>
  <speed>2.3889118861942147</speed>
  <fix>3d</fix>
</trkpt>
<trkpt lat="40.0733912" lon="-105.2281329">
  <ele>1583.0</ele>
  <time>2026-08-28T17:52:42Z</time>
  <course>352.8</course>
  <speed>2.57</speed>
  <fix>3d</fix>
</trkpt>
<trkpt lat="40.0733961" lon="-105.2281337">
  <ele>1583.01</ele>
  <time>2026-08-28T17:52:42Z</time>
  <course>353.8</course>
  <speed>2.2785302280198083</speed>
  <fix>3d</fix>
</trkpt>
<trkpt lat="40.0733912" lon="-105.2281329">
  <ele>1583.0</ele>
  <time>2026-08-28T17:52:42Z</time>
  <course>352.8</course>
  <speed>2.57</speed>
  <fix>3d</fix>
</trkpt>
<trkpt lat="40.0733981" lon="-105.228134">
  <ele>1583.01</ele>
  <time>2026-08-28T17:52:42Z</time>
  <course>353.84</course>
  <speed>2.166887168266959</speed>
  <fix>3d</fix>
</trkpt>
<trkpt lat="40.0733956" lon="-105.2281336">
  <ele>1583.0</ele>
  <time>2026-08-28T17:52:42Z</time>
  <course>352.87</course>
  <speed>2.34</speed>
  <fix>3d</fix>
</trkpt>
<trkpt lat="40.0734" lon="-105.2281343">
  <ele>1583.01</ele>
  <time>2026-08-28T17:52:42Z</time>
  <course>353.89</course>
  <speed>2.0565018842685263</speed>
  <fix>3d</fix>
</trkpt>
<trkpt lat="40.0733956" lon="-105.2281336">
  <ele>1583.0</ele>
  <time>2026-08-28T17:52:42Z</time>
  <course>352.87</course>
  <speed>2.34</speed>
  <fix>3d</fix>
</trkpt>
<trkpt lat="40.0734018" lon="-105.2281346">
  <ele>1583.01</ele>
  <time>2026-08-28T17:52:42Z</time>
  <course>353.95</course>
  <speed>1.9547889911701466</speed>
  <fix>3d</fix>
</trkpt>
<trkpt lat="40.0733996" lon="-105.2281342">
  <ele>1583.0</ele>
  <time>2026-08-28T17:52:42Z</time>
  <course>352.95</course>
  <speed>2.12</speed>
  <fix>3d</fix>
</trkpt>
<trkpt lat="40.0734035" lon="-105.2281349">
  <ele>1583.01</ele>
  <time>2026-08-28T17:52:42Z</time>
  <course>354.01</course>
  <speed>1.8443969204051496</speed>
  <fix>3d</fix>
</trkpt>
<trkpt lat="40.0733996" lon="-105.2281342">
  <ele>1583.0</ele>
  <time>2026-08-28T17:52:42Z</time>
  <course>352.95</course>
  <speed>2.12</speed>
  <fix>3d</fix>
</trkpt>
<trkpt lat="40.0734052" lon="-105.2281352">
  <ele>1583.01</ele>
  <time>2026-08-28T17:52:42Z</time>
  <course>354.06</course>
  <speed>1.7426990560621762</speed>
  <fix>3d</fix>
</trkpt>
<trkpt lat="40.0734032" lon="-105.2281348">
  <ele>1583.0</ele>
  <time>2026-08-28T17:52:42Z</time>
  <course>353.06</course>
  <speed>1.91</speed>
  <fix>3d</fix>
</trkpt>
<trkpt lat="40.0734067" lon="-105.2281354">
  <ele>1583.01</ele>
  <time>2026-08-28T17:52:42Z</time>
  <course>354.11</course>
  <speed>1.6422241016377759</speed>
  <fix>3d</fix>
</trkpt>
<trkpt lat="40.0734032" lon="-105.2281348">
  <ele>1583.0</ele>
  <time>2026-08-28T17:52:42Z</time>
  <course>353.06</course>
  <speed>1.91</speed>
  <fix>3d</fix>
</trkpt>
<trkpt lat="40.0734082" lon="-105.2281356">
  <ele>1583.02</ele>
  <time>2026-08-28T17:52:42Z</time>
  <course>354.17</course>
  <speed>1.540551849176132</speed>
  <fix>3d</fix>
</trkpt>
<trkpt lat="40.0734064" lon="-105.2281354">
  <ele>1583.0</ele>
  <time>2026-08-28T17:52:42Z</time>
  <course>353.17</course>
  <speed>1.71</speed>
  <fix>3d</fix>
</trkpt>
<trkpt lat="40.0734095" lon="-105.2281358">
  <ele>1583.02</ele>
  <time>2026-08-28T17:52:42Z</time>
  <course>354.23</course>
  <speed>1.4400694427700353</speed>
  <fix>3d</fix>
</trkpt>
<trkpt lat="40.0734064" lon="-105.2281354">
  <ele>1583.0</ele>
  <time>2026-08-28T17:52:42Z</time>
  <course>353.17</course>
  <speed>1.71</speed>
  <fix>3d</fix>
</trkpt>
<trkpt lat="40.0734108" lon="-105.228136">
  <ele>1583.02</ele>
  <time>2026-08-28T17:52:42Z</time>
  <course>354.3</course>
  <speed>1.339589489358587</speed>
  <fix>3d</fix>
</trkpt>
<trkpt lat="40.0734093" lon="-105.2281359">
  <ele>1583.0</ele>
  <time>2026-08-28T17:52:42Z</time>
  <course>353.28</course>
  <speed>1.51</speed>
  <fix>3d</fix>
</trkpt>
<trkpt lat="40.073412" lon="-105.2281362">
  <ele>1583.02</ele>
  <time>2026-08-28T17:52:42Z</time>
  <course>354.37</course>
  <speed>1.2478781991845198</speed>
  <fix>3d</fix>
</trkpt>
<trkpt lat="40.0734093" lon="-105.2281359">
  <ele>1583.0</ele>
  <time>2026-08-28T17:52:42Z</time>
  <course>353.28</course>
  <speed>1.51</speed>
  <fix>3d</fix>
</trkpt>
<trkpt lat="40.0734131" lon="-105.2281364">
  <ele>1583.03</ele>
  <time>2026-08-28T17:52:42Z</time>
  <course>354.46</course>
  <speed>1.1473883387938018</speed>
  <fix>3d</fix>
</trkpt>
<trkpt lat="40.0734093" lon="-105.2281359">
  <ele>1583.0</ele>
  <time>2026-08-28T17:52:42Z</time>
  <course>353.28</course>
  <speed>1.51</speed>
  <fix>3d</fix>
</trkpt>
<trkpt lat="40.0734141" lon="-105.2281365">
  <ele>1583.03</ele>
  <time>2026-08-28T17:52:42Z</time>
  <course>354.56</course>
  <speed>1.046900186264192</speed>
  <fix>3d</fix>
</trkpt>
<trkpt lat="40.0734118" lon="-105.2281362">
  <ele>1583.0</ele>
  <time>2026-08-28T17:52:42Z</time>
  <course>353.42</course>
  <speed>1.31</speed>
  <fix>3d</fix>
</trkpt>
<trkpt lat="40.073415" lon="-105.2281367">
  <ele>1583.03</ele>
  <time>2026-08-28T17:52:42Z</time>
  <course>354.67</course>
  <speed>0.95524865872714</speed>
  <fix>3d</fix>
</trkpt>
<trkpt lat="40.0734118" lon="-105.2281362">
  <ele>1583.0</ele>
  <time>2026-08-28T17:52:42Z</time>
  <course>353.42</course>
  <speed>1.31</speed>
  <fix>3d</fix>
</trkpt>
<trkpt lat="40.0734158" lon="-105.2281368">
  <ele>1583.04</ele>
  <time>2026-08-28T17:52:42Z</time>
  <course>354.8</course>
  <speed>0.8547514258543241</speed>
  <fix>3d</fix>
</trkpt>
<trkpt lat="40.073414" lon="-105.2281365">
  <ele>1583.0</ele>
  <time>2026-08-28T17:52:42Z</time>
  <course>353.6</course>
  <speed>1.12</speed>
  <fix>3d</fix>
</trkpt>
<trkpt lat="40.0734166" lon="-105.2281369">
  <ele>1583.04</ele>
  <time>2026-08-28T17:52:42Z</time>
  <course>354.92</course>
  <speed>0.764198926981712</speed>
  <fix>3d</fix>
</trkpt>
<trkpt lat="40.073414" lon="-105.2281365">
  <ele>1583.0</ele>
  <time>2026-08-28T17:52:42Z</time>
  <course>353.6</course>
  <speed>1.12</speed>
  <fix>3d</fix>
</trkpt>
<trkpt lat="40.0734172" lon="-105.228137">
  <ele>1583.04</ele>
  <time>2026-08-28T17:52:42Z</time>
  <course>354.98</course>
  <speed>0.6637017402418047</speed>
  <fix>3d</fix>
</trkpt>
<trkpt lat="40.0734158" lon="-105.2281368">
  <ele>1583.0</ele>
  <time>2026-08-28T17:52:42Z</time>
  <course>353.83</course>
  <speed>0.93</speed>
  <fix>3d</fix>
</trkpt>
<trkpt lat="40.0734178" lon="-105.228137">
  <ele>1583.04</ele>
  <time>2026-08-28T17:52:42Z</time>
  <course>354.85</course>
  <speed>0.5731491952362839</speed>
  <fix>3d</fix>
</trkpt>
<trkpt lat="40.0734173" lon="-105.228137">
  <ele>1583.0</ele>
  <time>2026-08-28T17:52:42Z</time>
  <course>353.93</course>
  <speed>0.74</speed>
  <fix>3d</fix>
</trkpt>
<trkpt lat="40.0734183" lon="-105.2281371">
  <ele>1583.04</ele>
  <time>2026-08-28T17:52:42Z</time>
  <course>354.45</course>
  <speed>0.472652091923859</speed>
  <fix>3d</fix>
</trkpt>
<trkpt lat="40.0734173" lon="-105.228137">
  <ele>1583.0</ele>
  <time>2026-08-28T17:52:42Z</time>
  <course>353.93</course>
  <speed>0.74</speed>
  <fix>3d</fix>
</trkpt>
<trkpt lat="40.0734187" lon="-105.2281372">
  <ele>1583.04</ele>
  <time>2026-08-28T17:52:42Z</time>
  <course>353.82</course>
  <speed>0.382099463490856</speed>
  <fix>3d</fix>
</trkpt>
<trkpt lat="40.0734185" lon="-105.2281371">
  <ele>1583.0</ele>
  <time>2026-08-28T17:52:42Z</time>
  <course>353.46</course>
  <speed>0.55</speed>
  <fix>3d</fix>
</trkpt>
<trkpt lat="40.0734191" lon="-105.2281372">
  <ele>1583.04</ele>
  <time>2026-08-28T17:52:42Z</time>
  <course>353.06</course>
  <speed>0.282842712474619</speed>
  <fix>3d</fix>
</trkpt>
<trkpt lat="40.0734185" lon="-105.2281371">
  <ele>1583.0</ele>
  <time>2026-08-28T17:52:42Z</time>
  <course>353.46</course>
  <speed>0.55</speed>
  <fix>3d</fix>
</trkpt>
<trkpt lat="40.0734193" lon="-105.2281373">
  <ele>1583.03</ele>
  <time>2026-08-28T17:52:42Z</time>
  <course>352.26</course>
  <speed>0.191049731745428</speed>
  <fix>3d</fix>
</trkpt>
<trkpt lat="40.0734193" lon="-105.2281373">
  <ele>1583.0</ele>
  <time>2026-08-28T17:52:42Z</time>
  <course>352.28</course>
  <speed>0.35</speed>
  <fix>3d</fix>
</trkpt>
<trkpt lat="40.0734195" lon="-105.2281373">
  <ele>1583.03</ele>
  <time>2026-08-28T17:52:42Z</time>
  <course>351.56</course>
  <speed>0.09055385138137417</speed>
  <fix>3d</fix>
</trkpt>
<trkpt lat="40.0734193" lon="-105.2281373">
  <ele>1583.0</ele>
  <time>2026-08-28T17:52:42Z</time>
  <course>352.28</course>
  <speed>0.35</speed>
  <fix>3d</fix>
</trkpt>
<trkpt lat="40.0734195" lon="-105.2281373">
  <ele>1583.03</ele>
  <time>2026-08-28T17:52:42Z</time>
  <course>351.06</course>
  <speed>0.01</speed>
  <fix>3d</fix>
</trkpt>
<trkpt lat="40.0734197" lon="-105.2281374">
  <ele>1583.0</ele>
  <time>2026-08-28T17:52:42Z</time>
  <course>351.01</course>
  <speed>0.17</speed>
  <fix>3d</fix>
</trkpt>
<trkpt lat="40.0734196" lon="-105.2281373">
  <ele>1583.02</ele>
  <time>2026-08-28T17:52:42Z</time>
  <course>351.05</course>
  <speed>0.04</speed>
  <fix>3d</fix>
</trkpt>
<trkpt lat="40.0734197" lon="-105.2281374">
  <ele>1583.0</ele>
  <time>2026-08-28T17:52:42Z</time>
  <course>351.01</course>
  <speed>0.17</speed>
  <fix>3d</fix>
</trkpt>
<trkpt lat="40.0734195" lon="-105.2281373">
  <ele>1583.02</ele>
  <time>2026-08-28T17:52:42Z</time>
  <course>351.08</course>
  <speed>0.07071067811865475</speed>
  <fix>3d</fix>
</trkpt>
<trkpt lat="40.0734199" lon="-105.2281374">
  <ele>1583.0</ele>
  <time>2026-08-28T17:52:42Z</time>
  <course>350.17</course>
  <speed>0.03</speed>
  <fix>3d</fix>
</trkpt>
<trkpt lat="40.0734195" lon="-105.2281373">
  <ele>1583.02</ele>
  <time>2026-08-28T17:52:42Z</time>
  <course>350.97</course>
  <speed>0.0824621125123532</speed>
  <fix>3d</fix>
</trkpt>
<trkpt lat="40.0734199" lon="-105.2281374">
  <ele>1583.0</ele>
  <time>2026-08-28T17:52:42Z</time>
  <course>350.17</course>
  <speed>0.03</speed>
  <fix>3d</fix>
</trkpt>
<trkpt lat="40.0734196" lon="-105.2281373">
  <ele>1583.02</ele>
  <time>2026-08-28T17:52:42Z</time>
  <course>350.85</course>
  <speed>0.07280109889280519</speed>
  <fix>3d</fix>
</trkpt>
<trkpt lat="40.07342" lon="-105.2281374">
  <ele>1583.0</ele>
  <time>2026-08-28T17:52:42Z</time>
  <course>169.66</course>
  <speed>0.01</speed>
  <fix>3d</fix>
</trkpt>
<trkpt lat="40.0734195" lon="-105.2281373">
  <ele>1583.02</ele>
  <time>2026-08-28T17:52:42Z</time>
  <course>350.84</course>
  <speed>0.0412310562561766</speed>
  <fix>3d</fix>
</trkpt>
<trkpt lat="40.07342" lon="-105.2281374">
  <ele>1583.0</ele>
  <time>2026-08-28T17:52:42Z</time>
  <course>169.66</course>
  <speed>0.01</speed>
  <fix>3d</fix>
</trkpt>
<trkpt lat="40.0734196" lon="-105.2281373">
  <ele>1583.02</ele>
  <time>2026-08-28T17:52:42Z</time>
  <course>351.06</course>
  <speed>0.01</speed>
  <fix>3d</fix>
</trkpt>
<trkpt lat="40.07342" lon="-105.2281374">
  <ele>1583.0</ele>
  <time>2026-08-28T17:52:42Z</time>
  <course>350.29</course>
  <speed>0.02</speed>
  <fix>3d</fix>
</trkpt>
<trkpt lat="40.0734196" lon="-105.2281373">
  <ele>1583.02</ele>
  <time>2026-08-28T17:52:42Z</time>
  <course>350.69</course>
  <speed>0.05</speed>
  <fix>3d</fix>
</trkpt>
<trkpt lat="40.07342" lon="-105.2281374">
  <ele>1583.0</ele>
  <time>2026-08-28T17:52:42Z</time>
  <course>350.29</course>
  <speed>0.02</speed>
  <fix>3d</fix>
</trkpt>
<trkpt lat="40.0734197" lon="-105.2281373">
  <ele>1583.02</ele>
  <time>2026-08-28T17:52:42Z</time>
  <course>349.75</course>
  <speed>0.12</speed>
  <fix>3d</fix>
</trkpt>
<trkpt lat="40.07342" lon="-105.2281374">
  <ele>1583.0</ele>
  <time>2026-08-28T17:52:42Z</time>
  <course>350.29</course>
  <speed>0.02</speed>
  <fix>3d</fix>
</trkpt>
<trkpt lat="40.0734199" lon="-105.2281373">
  <ele>1583.02</ele>
  <time>2026-08-28T17:52:42Z</time>
  <course>348.36</course>
  <speed>0.2009975124224178</speed>
  <fix>3d</fix>
</trkpt>
<trkpt lat="40.0734201" lon="-105.2281374">
  <ele>1583.0</ele>
  <time>2026-08-28T17:52:42Z</time>
  <course>349.08</course>
  <speed>0.11</speed>
  <fix>3d</fix>
</trkpt>
<trkpt lat="40.0734202" lon="-105.2281373">
  <ele>1583.03</ele>
  <time>2026-08-28T17:52:42Z</time>
  <course>346.47</course>
  <speed>0.2745906043549196</speed>
  <fix>3d</fix>
</trkpt>
<trkpt lat="40.0734201" lon="-105.2281374">
  <ele>1583.0</ele>
  <time>2026-08-28T17:52:42Z</time>
  <course>349.08</course>
  <speed>0.11</speed>
  <fix>3d</fix>
</trkpt>
<trkpt lat="40.0734205" lon="-105.2281375">
  <ele>1583.03</ele>
  <time>2026-08-28T17:52:42Z</time>
  <course>344.05</course>
  <speed>0.3687817782917155</speed>
  <fix>3d</fix>
</trkpt>
<trkpt lat="40.0734204" lon="-105.2281376">
  <ele>1583.0</ele>
  <time>2026-08-28T17:52:42Z</time>
  <course>346.6</course>
  <speed>0.26</speed>
  <fix>3d</fix>
</trkpt>
<trkpt lat="40.0734209" lon="-105.2281376">
  <ele>1583.03</ele>
  <time>2026-08-28T17:52:42Z</time>
  <course>341.08</course>
  <speed>0.44922154890432403</speed>
  <fix>3d</fix>
</trkpt>
<trkpt lat="40.0734204" lon="-105.2281376">
  <ele>1583.0</ele>
  <time>2026-08-28T17:52:42Z</time>
  <course>346.6</course>
  <speed>0.26</speed>
  <fix>3d</fix>
</trkpt>
<trkpt lat="40.0734214" lon="-105.2281378">
  <ele>1583.04</ele>
  <time>2026-08-28T17:52:42Z</time>
  <course>337.55</course>
  <speed>0.5442425929675111</speed>
  <fix>3d</fix>
</trkpt>
<trkpt lat="40.0734209" lon="-105.2281378">
  <ele>1583.0</ele>
  <time>2026-08-28T17:52:42Z</time>
  <course>342.19</course>
  <speed>0.42</speed>
  <fix>3d</fix>
</trkpt>
<trkpt lat="40.0734219" lon="-105.2281382">
  <ele>1583.04</ele>
  <time>2026-08-28T17:52:42Z</time>
  <course>333.48</course>
  <speed>0.6307138812488592</speed>
  <fix>3d</fix>
</trkpt>
<trkpt lat="40.0734209" lon="-105.2281378">
  <ele>1583.0</ele>
  <time>2026-08-28T17:52:42Z</time>
  <course>342.19</course>
  <speed>0.42</speed>
  <fix>3d</fix>
</trkpt>
<trkpt lat="40.0734225" lon="-105.2281386">
  <ele>1583.04</ele>
  <time>2026-08-28T17:52:42Z</time>
  <course>328.92</course>
  <speed>0.7169379331573968</speed>
  <fix>3d</fix>
</trkpt>
<trkpt lat="40.0734219" lon="-105.2281382">
  <ele>1583.0</ele>
  <time>2026-08-28T17:52:42Z</time>
  <course>335.67</course>
  <speed>0.59</speed>
  <fix>3d</fix>
</trkpt>
<trkpt lat="40.0734232" lon="-105.2281391">
  <ele>1583.04</ele>
  <time>2026-08-28T17:52:42Z</time>
  <course>324.35</course>
  <speed>0.7963039620647382</speed>
  <fix>3d</fix>
</trkpt>
<trkpt lat="40.0734229" lon="-105.228139">
  <ele>1583.0</ele>
  <time>2026-08-28T17:52:42Z</time>
  <course>327.37</course>
  <speed>0.76</speed>
  <fix>3d</fix>
</trkpt>
<trkpt lat="40.0734238" lon="-105.2281398">
  <ele>1583.04</ele>
  <time>2026-08-28T17:52:42Z</time>
  <course>319.93</course>
  <speed>0.8796590248499698</speed>
  <fix>3d</fix>
</trkpt>
<trkpt lat="40.0734229" lon="-105.228139">
  <ele>1583.0</ele>
  <time>2026-08-28T17:52:42Z</time>
  <course>327.37</course>
  <speed>0.76</speed>
  <fix>3d</fix>
</trkpt>
<trkpt lat="40.0734245" lon="-105.2281406">
  <ele>1583.05</ele>
  <time>2026-08-28T17:52:42Z</time>
  <course>315.92</course>
  <speed>0.9617692030835673</speed>
  <fix>3d</fix>
</trkpt>
<trkpt lat="40.0734241" lon="-105.2281402">
  <ele>1583.0</ele>
  <time>2026-08-28T17:52:42Z</time>
  <course>318.73</course>
  <speed>0.92</speed>
  <fix>3d</fix>
</trkpt>
<trkpt lat="40.0734252" lon="-105.2281415">
  <ele>1583.05</ele>
  <time>2026-08-28T17:52:42Z</time>
  <course>312.32</course>
  <speed>1.0339245620450266</speed>
  <fix>3d</fix>
</trkpt>
<trkpt lat="40.0734241" lon="-105.2281402">
  <ele>1583.0</ele>
  <time>2026-08-28T17:52:42Z</time>
  <course>318.73</course>
  <speed>0.92</speed>
  <fix>3d</fix>
</trkpt>
<trkpt lat="40.0734258" lon="-105.2281425">
  <ele>1583.05</ele>
  <time>2026-08-28T17:52:42Z</time>
  <course>309.34</course>
  <speed>1.108873302050329</speed>
  <fix>3d</fix>
</trkpt>
<trkpt lat="40.0734254" lon="-105.2281418">
  <ele>1583.0</ele>
  <time>2026-08-28T17:52:42Z</time>
  <course>311.34</course>
  <speed>1.07</speed>
  <fix>3d</fix>
</trkpt>
<trkpt lat="40.0734265" lon="-105.2281437">
  <ele>1583.05</ele>
  <time>2026-08-28T17:52:42Z</time>
  <course>306.86</course>
  <speed>1.1800423721205946</speed>
  <fix>3d</fix>
</trkpt>
<trkpt lat="40.0734254" lon="-105.2281418">
  <ele>1583.0</ele>
  <time>2026-08-28T17:52:42Z</time>
  <course>311.34</course>
  <speed>1.07</speed>
  <fix>3d</fix>
</trkpt>
<trkpt lat="40.0734272" lon="-105.2281449">
  <ele>1583.05</ele>
  <time>2026-08-28T17:52:42Z</time>
  <course>304.79</course>
  <speed>1.2509996003196804</speed>
  <fix>3d</fix>
</trkpt>
<trkpt lat="40.0734267" lon="-105.228144">
  <ele>1583.0</ele>
  <time>2026-08-28T17:52:42Z</time>
  <course>305.89</course>
  <speed>1.21</speed>
  <fix>3d</fix>
</trkpt>
<trkpt lat="40.0734279" lon="-105.2281463">
  <ele>1583.05</ele>
  <time>2026-08-28T17:52:42Z</time>
  <course>303.08</course>
  <speed>1.3176494222667878</speed>
  <fix>3d</fix>
</trkpt>
<trkpt lat="40.0734267" lon="-105.228144">
  <ele>1583.0</ele>
  <time>2026-08-28T17:52:42Z</time>
  <course>305.89</course>
  <speed>1.21</speed>
  <fix>3d</fix>
</trkpt>
<trkpt lat="40.0734285" lon="-105.2281477">
  <ele>1583.05</ele>
  <time>2026-08-28T17:52:42Z</time>
  <course>301.66</course>
  <speed>1.3908630414242804</speed>
  <fix>3d</fix>
</trkpt>
<trkpt lat="40.0734279" lon="-105.2281465">
  <ele>1583.0</ele>
  <time>2026-08-28T17:52:42Z</time>
  <course>302.12</course>
  <speed>1.35</speed>
  <fix>3d</fix>
</trkpt>
<trkpt lat="40.0734292" lon="-105.2281492">
  <ele>1583.04</ele>
  <time>2026-08-28T17:52:42Z</time>
  <course>300.48</course>
  <speed>1.456193668438371</speed>
  <fix>3d</fix>
</trkpt>
<trkpt lat="40.0734279" lon="-105.2281465">
  <ele>1583.0</ele>
  <time>2026-08-28T17:52:42Z</time>
  <course>302.12</course>
  <speed>1.35</speed>
  <fix>3d</fix>
</trkpt>
<trkpt lat="40.0734299" lon="-105.2281508">
  <ele>1583.04</ele>
  <time>2026-08-28T17:52:42Z</time>
  <course>299.5</course>
  <speed>1.5220052562327109</speed>
  <fix>3d</fix>
</trkpt>
<trkpt lat="40.0734293" lon="-105.2281493">
  <ele>1583.0</ele>
  <time>2026-08-28T17:52:42Z</time>
  <course>299.51</course>
  <speed>1.48</speed>
  <fix>3d</fix>
</trkpt>
<trkpt lat="40.0734306" lon="-105.2281525">
  <ele>1583.04</ele>
  <time>2026-08-28T17:52:42Z</time>
  <course>298.67</course>
  <speed>1.6017802595861892</speed>
  <fix>3d</fix>
</trkpt>
<trkpt lat="40.0734293" lon="-105.2281493">
  <ele>1583.0</ele>
  <time>2026-08-28T17:52:42Z</time>
  <course>299.51</course>
  <speed>1.48</speed>
  <fix>3d</fix>
</trkpt>
<trkpt lat="40.0734313" lon="-105.2281543">
  <ele>1583.04</ele>
  <time>2026-08-28T17:52:42Z</time>
  <course>297.98</course>
  <speed>1.6683225107874078</speed>
  <fix>3d</fix>
</trkpt>
<trkpt lat="40.0734293" lon="-105.2281493">
  <ele>1583.0</ele>
  <time>2026-08-28T17:52:42Z</time>
  <course>299.51</course>
  <speed>1.48</speed>
  <fix>3d</fix>
</trkpt>
<trkpt lat="40.073432" lon="-105.2281561">
  <ele>1583.04</ele>
  <time>2026-08-28T17:52:42Z</time>
  <course>297.4</course>
  <speed>1.7397126199461794</speed>
  <fix>3d</fix>
</trkpt>
<trkpt lat="40.0734306" lon="-105.2281525">
  <ele>1583.0</ele>
  <time>2026-08-28T17:52:42Z</time>
  <course>297.7</course>
  <speed>1.62</speed>
  <fix>3d</fix>
</trkpt>
<trkpt lat="40.0734328" lon="-105.228158">
  <ele>1583.04</ele>
  <time>2026-08-28T17:52:42Z</time>
  <course>296.91</course>
  <speed>1.8112150617748295</speed>
  <fix>3d</fix>
</trkpt>
<trkpt lat="40.0734306" lon="-105.2281525">
  <ele>1583.0</ele>
  <time>2026-08-28T17:52:42Z</time>
  <course>297.7</course>
  <speed>1.62</speed>
  <fix>3d</fix>
</trkpt>
<trkpt lat="40.0734335" lon="-105.22816">
  <ele>1583.04</ele>
  <time>2026-08-28T17:52:42Z</time>
  <course>296.51</course>
  <speed>1.882817038376273</speed>
  <fix>3d</fix>
</trkpt>
<trkpt lat="40.0734319" lon="-105.2281561">
  <ele>1583.0</ele>
  <time>2026-08-28T17:52:42Z</time>
  <course>296.42</course>
  <speed>1.76</speed>
  <fix>3d</fix>
</trkpt>
<trkpt lat="40.0734343" lon="-105.2281621">
  <ele>1583.04</ele>
  <time>2026-08-28T17:52:42Z</time>
  <course>296.17</course>
  <speed>1.9545076106272905</speed>
  <fix>3d</fix>
</trkpt>
<trkpt lat="40.0734319" lon="-105.2281561">
  <ele>1583.0</ele>
  <time>2026-08-28T17:52:42Z</time>
  <course>296.42</course>
  <speed>1.76</speed>
  <fix>3d</fix>
</trkpt>
<trkpt lat="40.0734351" lon="-105.2281643">
  <ele>1583.05</ele>
  <time>2026-08-28T17:52:42Z</time>
  <course>295.89</course>
  <speed>2.039607805437114</speed>
  <fix>3d</fix>
</trkpt>
<trkpt lat="40.0734334" lon="-105.22816">
  <ele>1583.0</ele>
  <time>2026-08-28T17:52:42Z</time>
  <course>295.53</course>
  <speed>1.9</speed>
  <fix>3d</fix>
</trkpt>
<trkpt lat="40.0734359" lon="-105.2281665">
  <ele>1583.05</ele>
  <time>2026-08-28T17:52:42Z</time>
  <course>295.66</course>
  <speed>2.1157031927943013</speed>
  <fix>3d</fix>
</trkpt>
<trkpt lat="40.0734334" lon="-105.22816">
  <ele>1583.0</ele>
  <time>2026-08-28T17:52:42Z</time>
  <course>295.53</course>
  <speed>1.9</speed>
  <fix>3d</fix>
</trkpt>
<trkpt lat="40.0734367" lon="-105.2281689">
  <ele>1583.05</ele>
  <time>2026-08-28T17:52:42Z</time>
  <course>295.47</course>
  <speed>2.19658826364888</speed>
  <fix>3d</fix>
</trkpt>
<trkpt lat="40.073435" lon="-105.2281642">
  <ele>1583.0</ele>
  <time>2026-08-28T17:52:42Z</time>
  <course>294.91</course>
  <speed>2.05</speed>
  <fix>3d</fix>
</trkpt>
<trkpt lat="40.0734376" lon="-105.2281713">
  <ele>1583.05</ele>
  <time>2026-08-28T17:52:42Z</time>
  <course>295.32</course>
  <speed>2.286000874890471</speed>
  <fix>3d</fix>
</trkpt>
<trkpt lat="40.0734365" lon="-105.2281687">
  <ele>1583.0</ele>
  <time>2026-08-28T17:52:42Z</time>
  <course>294.49</course>
  <speed>2.22</speed>
  <fix>3d</fix>
</trkpt>
<trkpt lat="40.0734384" lon="-105.2281739">
  <ele>1583.05</ele>
  <time>2026-08-28T17:52:42Z</time>
  <course>295.19</course>
  <speed>2.3802520874898945</speed>
  <fix>3d</fix>
</trkpt>
<trkpt lat="40.0734365" lon="-105.2281687">
  <ele>1583.0</ele>
  <time>2026-08-28T17:52:42Z</time>
  <course>294.49</course>
  <speed>2.22</speed>
  <fix>3d</fix>
</trkpt>
<trkpt lat="40.0734394" lon="-105.2281765">
  <ele>1583.05</ele>
  <time>2026-08-28T17:52:42Z</time>
  <course>295.09</course>
  <speed>2.465461417260469</speed>
  <fix>3d</fix>
</trkpt>
<trkpt lat="40.0734382" lon="-105.2281737">
  <ele>1583.0</ele>
  <time>2026-08-28T17:52:42Z</time>
  <course>294.22</course>
  <speed>2.39</speed>
  <fix>3d</fix>
</trkpt>
<trkpt lat="40.0734403" lon="-105.2281793">
  <ele>1583.05</ele>
  <time>2026-08-28T17:52:42Z</time>
  <course>295.01</course>
  <speed>2.5639422770413534</speed>
  <fix>3d</fix>
</trkpt>
<trkpt lat="40.0734382" lon="-105.2281737">
  <ele>1583.0</ele>
  <time>2026-08-28T17:52:42Z</time>
  <course>294.22</course>
  <speed>2.39</speed>
  <fix>3d</fix>
</trkpt>
<trkpt lat="40.0734413" lon="-105.2281821">
  <ele>1583.05</ele>
  <time>2026-08-28T17:52:42Z</time>
  <course>294.96</course>
  <speed>2.662423707827137</speed>
  <fix>3d</fix>
</trkpt>
<trkpt lat="40.0734401" lon="-105.228179">
  <ele>1583.0</ele>
  <time>2026-08-28T17:52:42Z</time>
  <course>294.05</course>
  <speed>2.57</speed>
  <fix>3d</fix>
</trkpt>
<trkpt lat="40.0734423" lon="-105.2281851">
  <ele>1583.05</ele>
  <time>2026-08-28T17:52:42Z</time>
  <course>294.92</course>
  <speed>2.7609056485146315</speed>
  <fix>3d</fix>
</trkpt>
<trkpt lat="40.0734401" lon="-105.228179">
  <ele>1583.0</ele>
  <time>2026-08-28T17:52:42Z</time>
  <course>294.05</course>
  <speed>2.57</speed>
  <fix>3d</fix>
</trkpt>
<trkpt lat="40.0734434" lon="-105.2281882">
  <ele>1583.04</ele>
  <time>2026-08-28T17:52:42Z</time>
  <course>294.89</course>
  <speed>2.859388046418324</speed>
  <fix>3d</fix>
</trkpt>
<trkpt lat="40.073442" lon="-105.2281847">
  <ele>1583.0</ele>
  <time>2026-08-28T17:52:42Z</time>
  <course>293.96</course>
  <speed>2.76</speed>
  <fix>3d</fix>
</trkpt>
<trkpt lat="40.0734445" lon="-105.2281914">
  <ele>1583.04</ele>
  <time>2026-08-28T17:52:42Z</time>
  <course>294.88</course>
  <speed>2.9578708558691336</speed>
  <fix>3d</fix>
</trkpt>
<trkpt lat="40.073442" lon="-105.2281847">
  <ele>1583.0</ele>
  <time>2026-08-28T17:52:42Z</time>
  <course>293.96</course>
  <speed>2.76</speed>
  <fix>3d</fix>
</trkpt>
<trkpt lat="40.0734456" lon="-105.2281947">
  <ele>1583.04</ele>
  <time>2026-08-28T17:52:42Z</time>
  <course>294.88</course>
  <speed>3.0563540370840547</speed>
  <fix>3d</fix>
</trkpt>
<trkpt lat="40.0734441" lon="-105.2281908">
  <ele>1583.0</ele>
  <time>2026-08-28T17:52:42Z</time>
  <course>293.93</course>
  <speed>2.95</speed>
  <fix>3d</fix>
</trkpt>
<trkpt lat="40.0734468" lon="-105.2281981">
  <ele>1583.03</ele>
  <time>2026-08-28T17:52:42Z</time>
  <course>294.87</course>
  <speed>3.1548375552474965</speed>
  <fix>3d</fix>
</trkpt>
<trkpt lat="40.0734441" lon="-105.2281908">
  <ele>1583.0</ele>
  <time>2026-08-28T17:52:42Z</time>
  <course>293.93</course>
  <speed>2.95</speed>
  <fix>3d</fix>
</trkpt>
<trkpt lat="40.073448" lon="-105.2282016">
  <ele>1583.03</ele>
  <time>2026-08-28T17:52:42Z</time>
  <course>294.87</course>
  <speed>3.253321379759461</speed>
  <fix>3d</fix>
</trkpt>
<trkpt lat="40.0734463" lon="-105.2281974">
  <ele>1583.0</ele>
  <time>2026-08-28T17:52:42Z</time>
  <course>293.93</course>
  <speed>3.15</speed>
  <fix>3d</fix>
</trkpt>
<trkpt lat="40.0734492" lon="-105.2282052">
  <ele>1583.03</ele>
  <time>2026-08-28T17:52:42Z</time>
  <course>294.86</course>
  <speed>3.3650557201924607</speed>
  <fix>3d</fix>
</trkpt>
<trkpt lat="40.0734463" lon="-105.2281974">
  <ele>1583.0</ele>
  <time>2026-08-28T17:52:42Z</time>
  <course>293.93</course>
  <speed>3.15</speed>
  <fix>3d</fix>
</trkpt>
<trkpt lat="40.0734505" lon="-105.2282089">
  <ele>1583.03</ele>
  <time>2026-08-28T17:52:42Z</time>
  <course>294.86</course>
  <speed>3.463538652880894</speed>
  <fix>3d</fix>
</trkpt>
<trkpt lat="40.0734487" lon="-105.2282044">
  <ele>1583.0</ele>
  <time>2026-08-28T17:52:42Z</time>
  <course>293.93</course>
  <speed>3.35</speed>
  <fix>3d</fix>
</trkpt>
<trkpt lat="40.0734518" lon="-105.2282127">
  <ele>1583.03</ele>
  <time>2026-08-28T17:52:42Z</time>
  <course>294.85</course>
  <speed>3.571120272407526</speed>
  <fix>3d</fix>
</trkpt>
<trkpt lat="40.0734487" lon="-105.2282044">
  <ele>1583.0</ele>
  <time>2026-08-28T17:52:42Z</time>
  <course>293.93</course>
  <speed>3.35</speed>
  <fix>3d</fix>
</trkpt>
<trkpt lat="40.0734531" lon="-105.2282167">
  <ele>1583.02</ele>
  <time>2026-08-28T17:52:42Z</time>
  <course>294.84</course>
  <speed>3.6696048833627852</speed>
  <fix>3d</fix>
</trkpt>
<trkpt lat="40.0734487" lon="-105.2282044">
  <ele>1583.0</ele>
  <time>2026-08-28T17:52:42Z</time>
  <course>293.93</course>
  <speed>3.35</speed>
  <fix>3d</fix>
</trkpt>
<trkpt lat="40.0734545" lon="-105.2282207">
  <ele>1583.02</ele>
  <time>2026-08-28T17:52:42Z</time>
  <course>294.84</course>
  <speed>3.7680897016923574</speed>
  <fix>3d</fix>
</trkpt>
<trkpt lat="40.0734513" lon="-105.2282118">
  <ele>1583.0</ele>
  <time>2026-08-28T17:52:42Z</time>
  <course>293.93</course>
  <speed>3.55</speed>
  <fix>3d</fix>
</trkpt>
<trkpt lat="40.0734559" lon="-105.2282248">
  <ele>1583.02</ele>
  <time>2026-08-28T17:52:42Z</time>
  <course>294.87</course>
  <speed>3.8707234465923808</speed>
  <fix>3d</fix>
</trkpt>
<trkpt lat="40.0734513" lon="-105.2282118">
  <ele>1583.0</ele>
  <time>2026-08-28T17:52:42Z</time>
  <course>293.93</course>
  <speed>3.55</speed>
  <fix>3d</fix>
</trkpt>
<trkpt lat="40.0734573" lon="-105.228229">
  <ele>1583.02</ele>
  <time>2026-08-28T17:52:42Z</time>
  <course>294.89</course>
  <speed>3.9692064698123226</speed>
  <fix>3d</fix>
</trkpt>
<trkpt lat="40.0734539" lon="-105.2282197">
  <ele>1583.0</ele>
  <time>2026-08-28T17:52:42Z</time>
  <course>293.95</course>
  <speed>3.75</speed>
  <fix>3d</fix>
</trkpt>
<trkpt lat="40.0734588" lon="-105.2282333">
  <ele>1583.02</ele>
  <time>2026-08-28T17:52:42Z</time>
  <course>294.92</course>
  <speed>4.076787951316575</speed>
  <fix>3d</fix>
</trkpt>
<trkpt lat="40.0734539" lon="-105.2282197">
  <ele>1583.0</ele>
  <time>2026-08-28T17:52:42Z</time>
  <course>293.95</course>
  <speed>3.75</speed>
  <fix>3d</fix>
</trkpt>
<trkpt lat="40.0734603" lon="-105.2282377">
  <ele>1583.02</ele>
  <time>2026-08-28T17:52:42Z</time>
  <course>294.97</course>
  <speed>4.17942579788181</speed>
  <fix>3d</fix>
</trkpt>
<trkpt lat="40.0734567" lon="-105.2282279">
  <ele>1583.0</ele>
  <time>2026-08-28T17:52:42Z</time>
  <course>293.99</course>
  <speed>3.96</speed>
  <fix>3d</fix>
</trkpt>
<trkpt lat="40.0734619" lon="-105.2282422">
  <ele>1583.02</ele>
  <time>2026-08-28T17:52:42Z</time>
  <course>295.01</course>
  <speed>4.277908367415085</speed>
  <fix>3d</fix>
</trkpt>
<trkpt lat="40.0734597" lon="-105.2282367">
  <ele>1583.0</ele>
  <time>2026-08-28T17:52:42Z</time>
  <course>294.06</course>
  <speed>4.16</speed>
  <fix>3d</fix>
</trkpt>
<trkpt lat="40.0734635" lon="-105.2282469">
  <ele>1583.02</ele>
  <time>2026-08-28T17:52:42Z</time>
  <course>295.05</course>
  <speed>4.380559325017754</speed>
  <fix>3d</fix>
</trkpt>
<trkpt lat="40.0734597" lon="-105.2282367">
  <ele>1583.0</ele>
  <time>2026-08-28T17:52:42Z</time>
  <course>294.06</course>
  <speed>4.16</speed>
  <fix>3d</fix>
</trkpt>
<trkpt lat="40.0734651" lon="-105.2282517">
  <ele>1583.02</ele>
  <time>2026-08-28T17:52:42Z</time>
  <course>295.08</course>
  <speed>4.479040075730513</speed>
  <fix>3d</fix>
</trkpt>
<trkpt lat="40.0734628" lon="-105.2282458">
  <ele>1583.0</ele>
  <time>2026-08-28T17:52:42Z</time>
  <course>294.15</course>
  <speed>4.36</speed>
  <fix>3d</fix>
</trkpt>
<trkpt lat="40.0734668" lon="-105.2282565">
  <ele>1583.01</ele>
  <time>2026-08-28T17:52:42Z</time>
  <course>295.12</course>
  <speed>4.59078424672735</speed>
  <fix>3d</fix>
</trkpt>
<trkpt lat="40.0734628" lon="-105.2282458">
  <ele>1583.0</ele>
  <time>2026-08-28T17:52:42Z</time>
  <course>294.15</course>
  <speed>4.36</speed>
  <fix>3d</fix>
</trkpt>
<trkpt lat="40.0734685" lon="-105.2282615">
  <ele>1583.01</ele>
  <time>2026-08-28T17:52:42Z</time>
  <course>295.14</course>
  <speed>4.689264334626488</speed>
  <fix>3d</fix>
</trkpt>
<trkpt lat="40.0734661" lon="-105.2282554">
  <ele>1583.0</ele>
  <time>2026-08-28T17:52:42Z</time>
  <course>294.23</course>
  <speed>4.57</speed>
  <fix>3d</fix>
</trkpt>
<trkpt lat="40.0734703" lon="-105.2282667">
  <ele>1583.01</ele>
  <time>2026-08-28T17:52:42Z</time>
  <course>295.16</course>
  <speed>4.787744771810628</speed>
  <fix>3d</fix>
</trkpt>
<trkpt lat="40.0734661" lon="-105.2282554">
  <ele>1583.0</ele>
  <time>2026-08-28T17:52:42Z</time>
  <course>294.23</course>
  <speed>4.57</speed>
  <fix>3d</fix>
</trkpt>
<trkpt lat="40.0734721" lon="-105.2282719">
  <ele>1583.0</ele>
  <time>2026-08-28T17:52:42Z</time>
  <course>295.2</course>
  <speed>4.877140555694495</speed>
  <fix>3d</fix>
</trkpt>
<trkpt lat="40.0734695" lon="-105.2282654">
  <ele>1583.0</ele>
  <time>2026-08-28T17:52:42Z</time>
  <course>294.3</course>
  <speed>4.76</speed>
  <fix>3d</fix>
</trkpt>
<trkpt lat="40.0734739" lon="-105.2282772">
  <ele>1583.0</ele>
  <time>2026-08-28T17:52:42Z</time>
  <course>295.23</course>
  <speed>4.957459026557859</speed>
  <fix>3d</fix>
</trkpt>
<trkpt lat="40.0734695" lon="-105.2282654">
  <ele>1583.0</ele>
  <time>2026-08-28T17:52:42Z</time>
  <course>294.3</course>
  <speed>4.76</speed>
  <fix>3d</fix>
</trkpt>
<trkpt lat="40.0734758" lon="-105.2282826">
  <ele>1583.0</ele>
  <time>2026-08-28T17:52:42Z</time>
  <course>295.27</course>
  <speed>5.033587190066345</speed>
  <fix>3d</fix>
</trkpt>
<trkpt lat="40.0734731" lon="-105.2282757">
  <ele>1583.0</ele>
  <time>2026-08-28T17:52:42Z</time>
  <course>294.37</course>
  <speed>4.93</speed>
  <fix>3d</fix>
</trkpt>
<trkpt lat="40.0734777" lon="-105.2282881">
  <ele>1583.01</ele>
  <time>2026-08-28T17:52:42Z</time>
  <course>295.29</course>
  <speed>5.1006372150938155</speed>
  <fix>3d</fix>
</trkpt>
<trkpt lat="40.0734731" lon="-105.2282757">
  <ele>1583.0</ele>
  <time>2026-08-28T17:52:42Z</time>
  <course>294.37</course>
  <speed>4.93</speed>
  <fix>3d</fix>
</trkpt>
<trkpt lat="40.0734796" lon="-105.2282936">
  <ele>1583.01</ele>
  <time>2026-08-28T17:52:42Z</time>
  <course>295.32</course>
  <speed>5.154415582779487</speed>
  <fix>3d</fix>
</trkpt>
<trkpt lat="40.0734768" lon="-105.2282865">
  <ele>1583.0</ele>
  <time>2026-08-28T17:52:42Z</time>
  <course>294.44</course>
  <speed>5.06</speed>
  <fix>3d</fix>
</trkpt>
<trkpt lat="40.0734816" lon="-105.2282992">
  <ele>1583.01</ele>
  <time>2026-08-28T17:52:42Z</time>
  <course>295.37</course>
  <speed>5.194246817393259</speed>
  <fix>3d</fix>
</trkpt>
<trkpt lat="40.0734768" lon="-105.2282865">
  <ele>1583.0</ele>
  <time>2026-08-28T17:52:42Z</time>
  <course>294.44</course>
  <speed>5.06</speed>
  <fix>3d</fix>
</trkpt>
<trkpt lat="40.0734835" lon="-105.2283048">
  <ele>1583.01</ele>
  <time>2026-08-28T17:52:42Z</time>
  <course>295.4</course>
  <speed>5.2256674214879</speed>
  <fix>3d</fix>
</trkpt>
<trkpt lat="40.0734807" lon="-105.2282974">
  <ele>1583.0</ele>
  <time>2026-08-28T17:52:42Z</time>
  <course>294.51</course>
  <speed>5.16</speed>
  <fix>3d</fix>
</trkpt>
<trkpt lat="40.0734855" lon="-105.2283104">
  <ele>1583.01</ele>
  <time>2026-08-28T17:52:42Z</time>
  <course>295.44</course>
  <speed>5.248018673747265</speed>
  <fix>3d</fix>
</trkpt>
<trkpt lat="40.0734807" lon="-105.2282974">
  <ele>1583.0</ele>
  <time>2026-08-28T17:52:42Z</time>
  <course>294.51</course>
  <speed>5.16</speed>
  <fix>3d</fix>
</trkpt>
<trkpt lat="40.0734874" lon="-105.228316">
  <ele>1583.01</ele>
  <time>2026-08-28T17:52:42Z</time>
  <course>295.49</course>
  <speed>5.252237618387044</speed>
  <fix>3d</fix>
</trkpt>
<trkpt lat="40.0734807" lon="-105.2282974">
  <ele>1583.0</ele>
  <time>2026-08-28T17:52:42Z</time>
  <course>294.51</course>
  <speed>5.16</speed>
  <fix>3d</fix>
</trkpt>
<trkpt lat="40.0734894" lon="-105.2283216">
  <ele>1583.01</ele>
  <time>2026-08-28T17:52:42Z</time>
  <course>295.53</course>
  <speed>5.243176518104268</speed>
  <fix>3d</fix>
</trkpt>
<trkpt lat="40.0734846" lon="-105.2283085">
  <ele>1583.0</ele>
  <time>2026-08-28T17:52:42Z</time>
  <course>294.6</course>
  <speed>5.21</speed>
  <fix>3d</fix>
</trkpt>
<trkpt lat="40.0734913" lon="-105.2283271">
  <ele>1583.0</ele>
  <time>2026-08-28T17:52:42Z</time>
  <course>295.58</course>
  <speed>5.229885275988375</speed>
  <fix>3d</fix>
</trkpt>
<trkpt lat="40.0734846" lon="-105.2283085">
  <ele>1583.0</ele>
  <time>2026-08-28T17:52:42Z</time>
  <course>294.6</course>
  <speed>5.21</speed>
  <fix>3d</fix>
</trkpt>
<trkpt lat="40.0734933" lon="-105.2283326">
  <ele>1583.0</ele>
  <time>2026-08-28T17:52:42Z</time>
  <course>295.64</course>
  <speed>5.211765535785354</speed>
  <fix>3d</fix>
</trkpt>
<trkpt lat="40.0734885" lon="-105.2283196">
  <ele>1583.0</ele>
  <time>2026-08-28T17:52:42Z</time>
  <course>294.69</course>
  <speed>5.21</speed>
  <fix>3d</fix>
</trkpt>
<trkpt lat="40.0734952" lon="-105.2283381">
  <ele>1583.0</ele>
  <time>2026-08-28T17:52:42Z</time>
  <course>295.68</course>
  <speed>5.189412298131649</speed>
  <fix>3d</fix>
</trkpt>
<trkpt lat="40.0734885" lon="-105.2283196">
  <ele>1583.0</ele>
  <time>2026-08-28T17:52:42Z</time>
  <course>294.69</course>
  <speed>5.21</speed>
  <fix>3d</fix>
</trkpt>
<trkpt lat="40.0734971" lon="-105.2283436">
  <ele>1583.0</ele>
  <time>2026-08-28T17:52:42Z</time>
  <course>295.73</course>
  <speed>5.158003489723519</speed>
  <fix>3d</fix>
</trkpt>
<trkpt lat="40.0734924" lon="-105.2283307">
  <ele>1583.0</ele>
  <time>2026-08-28T17:52:42Z</time>
  <course>294.78</course>
  <speed>5.19</speed>
  <fix>3d</fix>
</trkpt>
<trkpt lat="40.0734991" lon="-105.228349">
  <ele>1583.0</ele>
  <time>2026-08-28T17:52:42Z</time>
  <course>295.77</course>
  <speed>5.12659731205797</speed>
  <fix>3d</fix>
</trkpt>
<trkpt lat="40.0734924" lon="-105.2283307">
  <ele>1583.0</ele>
  <time>2026-08-28T17:52:42Z</time>
  <course>294.78</course>
  <speed>5.19</speed>
  <fix>3d</fix>
</trkpt>
<trkpt lat="40.073501" lon="-105.2283544">
  <ele>1583.0</ele>
  <time>2026-08-28T17:52:42Z</time>
  <course>295.83</course>
  <speed>5.095193813781768</speed>
  <fix>3d</fix>
</trkpt>
<trkpt lat="40.0734963" lon="-105.2283418">
  <ele>1583.0</ele>
  <time>2026-08-28T17:52:42Z</time>
  <course>294.87</course>
  <speed>5.14</speed>
  <fix>3d</fix>
</trkpt>
<trkpt lat="40.0735029" lon="-105.2283597">
  <ele>1583.0</ele>
  <time>2026-08-28T17:52:42Z</time>
  <course>295.89</course>
  <speed>5.059535551807103</speed>
  <fix>3d</fix>
</trkpt>
<trkpt lat="40.0735002" lon="-105.2283526">
  <ele>1583.0</ele>
  <time>2026-08-28T17:52:42Z</time>
  <course>294.97</course>
  <speed>5.09</speed>
  <fix>3d</fix>
</trkpt>
<trkpt lat="40.0735048" lon="-105.2283651">
  <ele>1583.0</ele>
  <time>2026-08-28T17:52:42Z</time>
  <course>295.92</course>
  <speed>5.0281308654409544</speed>
  <fix>3d</fix>
</trkpt>
<trkpt lat="40.0735002" lon="-105.2283526">
  <ele>1583.0</ele>
  <time>2026-08-28T17:52:42Z</time>
  <course>294.97</course>
  <speed>5.09</speed>
  <fix>3d</fix>
</trkpt>
<trkpt lat="40.0735067" lon="-105.2283703">
  <ele>1583.0</ele>
  <time>2026-08-28T17:52:42Z</time>
  <course>295.96</course>
  <speed>4.9967289300101125</speed>
  <fix>3d</fix>
</trkpt>
<trkpt lat="40.073504" lon="-105.2283634">
  <ele>1583.0</ele>
  <time>2026-08-28T17:52:42Z</time>
  <course>295.06</course>
  <speed>5.03</speed>
  <fix>3d</fix>
</trkpt>
<trkpt lat="40.0735086" lon="-105.2283756">
  <ele>1583.0</ele>
  <time>2026-08-28T17:52:42Z</time>
  <course>296.02</course>
  <speed>4.965329797707298</speed>
  <fix>3d</fix>
</trkpt>
<trkpt lat="40.073504" lon="-105.2283634">
  <ele>1583.0</ele>
  <time>2026-08-28T17:52:42Z</time>
  <course>295.06</course>
  <speed>5.03</speed>
  <fix>3d</fix>
</trkpt>
<trkpt lat="40.0735104" lon="-105.2283809">
  <ele>1583.0</ele>
  <time>2026-08-28T17:52:42Z</time>
  <course>296.05</course>
  <speed>4.9339335220491165</speed>
  <fix>3d</fix>
</trkpt>
<trkpt lat="40.0735078" lon="-105.2283741">
  <ele>1583.0</ele>
  <time>2026-08-28T17:52:42Z</time>
  <course>295.14</course>
  <speed>4.97</speed>
  <fix>3d</fix>
</trkpt>
<trkpt lat="40.0735123" lon="-105.2283862">
  <ele>1583.0</ele>
  <time>2026-08-28T17:52:42Z</time>
  <course>296.07</course>
  <speed>4.911578157781875</speed>
  <fix>3d</fix>
</trkpt>
<trkpt lat="40.0735078" lon="-105.2283741">
  <ele>1583.0</ele>
  <time>2026-08-28T17:52:42Z</time>
  <course>295.14</course>
  <speed>4.97</speed>
  <fix>3d</fix>
</trkpt>
<trkpt lat="40.0735142" lon="-105.2283914">
  <ele>1583.01</ele>
  <time>2026-08-28T17:52:42Z</time>
  <course>296.12</course>
  <speed>4.889222842129411</speed>
  <fix>3d</fix>
</trkpt>
<trkpt lat="40.0735116" lon="-105.2283846">
  <ele>1583.0</ele>
  <time>2026-08-28T17:52:42Z</time>
  <course>295.21</course>
  <speed>4.92</speed>
  <fix>3d</fix>
</trkpt>
<trkpt lat="40.0735161" lon="-105.2283966">
  <ele>1583.01</ele>
  <time>2026-08-28T17:52:42Z</time>
  <course>296.16</course>
  <speed>4.871149761606596</speed>
  <fix>3d</fix>
</trkpt>
<trkpt lat="40.0735116" lon="-105.2283846">
  <ele>1583.0</ele>
  <time>2026-08-28T17:52:42Z</time>
  <course>295.21</course>
  <speed>4.92</speed>
  <fix>3d</fix>
</trkpt>
<trkpt lat="40.073518" lon="-105.2284018">
  <ele>1583.01</ele>
  <time>2026-08-28T17:52:42Z</time>
  <course>296.2</course>
  <speed>4.848793664407674</speed>
  <fix>3d</fix>
</trkpt>
<trkpt lat="40.0735154" lon="-105.228395">
  <ele>1583.0</ele>
  <time>2026-08-28T17:52:42Z</time>
  <course>295.28</course>
  <speed>4.88</speed>
  <fix>3d</fix>
</trkpt>
<trkpt lat="40.0735198" lon="-105.228407">
  <ele>1583.01</ele>
  <time>2026-08-28T17:52:42Z</time>
  <course>296.23</course>
  <speed>4.839762390861766</speed>
  <fix>3d</fix>
</trkpt>
<trkpt lat="40.0735154" lon="-105.228395">
  <ele>1583.0</ele>
  <time>2026-08-28T17:52:42Z</time>
  <course>295.28</course>
  <speed>4.88</speed>
  <fix>3d</fix>
</trkpt>
<trkpt lat="40.0735217" lon="-105.2284122">
  <ele>1583.01</ele>
  <time>2026-08-28T17:52:42Z</time>
  <course>296.24</course>
  <speed>4.8174059409603425</speed>
  <fix>3d</fix>
</trkpt>
<trkpt lat="40.0735191" lon="-105.2284053">
  <ele>1583.0</ele>
  <time>2026-08-28T17:52:42Z</time>
  <course>295.34</course>
  <speed>4.85</speed>
  <fix>3d</fix>
</trkpt>
<trkpt lat="40.0735235" lon="-105.2284173">
  <ele>1583.01</ele>
  <time>2026-08-28T17:52:42Z</time>
  <course>296.29</course>
  <speed>4.808378104933097</speed>
  <fix>3d</fix>
</trkpt>
<trkpt lat="40.0735191" lon="-105.2284053">
  <ele>1583.0</ele>
  <time>2026-08-28T17:52:42Z</time>
  <course>295.34</course>
  <speed>4.85</speed>
  <fix>3d</fix>
</trkpt>
<trkpt lat="40.0735254" lon="-105.2284224">
  <ele>1583.01</ele>
  <time>2026-08-28T17:52:42Z</time>
  <course>296.33</course>
  <speed>4.799354123212831</speed>
  <fix>3d</fix>
</trkpt>
<trkpt lat="40.0735228" lon="-105.2284156">
  <ele>1583.0</ele>
  <time>2026-08-28T17:52:42Z</time>
  <course>295.4</course>
  <speed>4.82</speed>
  <fix>3d</fix>
</trkpt>
<trkpt lat="40.0735273" lon="-105.2284275">
  <ele>1583.01</ele>
  <time>2026-08-28T17:52:42Z</time>
  <course>296.33</course>
  <speed>4.795049530505394</speed>
  <fix>3d</fix>
</trkpt>
<trkpt lat="40.0735228" lon="-105.2284156">
  <ele>1583.0</ele>
  <time>2026-08-28T17:52:42Z</time>
  <course>295.4</course>
  <speed>4.82</speed>
  <fix>3d</fix>
</trkpt>
<trkpt lat="40.0735291" lon="-105.2284326">
  <ele>1583.01</ele>
  <time>2026-08-28T17:52:42Z</time>
  <course>296.37</course>
  <speed>4.799354123212831</speed>
  <fix>3d</fix>
</trkpt>
<trkpt lat="40.0735228" lon="-105.2284156">
  <ele>1583.0</ele>
  <time>2026-08-28T17:52:42Z</time>
  <course>295.4</course>
  <speed>4.82</speed>
  <fix>3d</fix>
</trkpt>
<trkpt lat="40.073531" lon="-105.2284377">
  <ele>1583.01</ele>
  <time>2026-08-28T17:52:42Z</time>
  <course>296.39</course>
  <speed>4.790334017581655</speed>
  <fix>3d</fix>
</trkpt>
<trkpt lat="40.0735265" lon="-105.2284258">
  <ele>1583.0</ele>
  <time>2026-08-28T17:52:42Z</time>
  <course>295.46</course>
  <speed>4.81</speed>
  <fix>3d</fix>
</trkpt>
<trkpt lat="40.0735328" lon="-105.2284428">
  <ele>1583.0</ele>
  <time>2026-08-28T17:52:42Z</time>
  <course>296.42</course>
  <speed>4.790334017581655</speed>
  <fix>3d</fix>
</trkpt>
<trkpt lat="40.0735265" lon="-105.2284258">
  <ele>1583.0</ele>
  <time>2026-08-28T17:52:42Z</time>
  <course>295.46</course>
  <speed>4.81</speed>
  <fix>3d</fix>
</trkpt>
<trkpt lat="40.0735346" lon="-105.2284478">
  <ele>1583.01</ele>
  <time>2026-08-28T17:52:42Z</time>
  <course>296.45</course>
  <speed>4.790334017581655</speed>
  <fix>3d</fix>
</trkpt>
<trkpt lat="40.0735303" lon="-105.228436">
  <ele>1583.0</ele>
  <time>2026-08-28T17:52:42Z</time>
  <course>295.5</course>
  <speed>4.81</speed>
  <fix>3d</fix>
</trkpt>
<trkpt lat="40.0735365" lon="-105.2284528">
  <ele>1583.01</ele>
  <time>2026-08-28T17:52:42Z</time>
  <course>296.45</course>
  <speed>4.790334017581655</speed>
  <fix>3d</fix>
</trkpt>
<trkpt lat="40.0735303" lon="-105.228436">
  <ele>1583.0</ele>
  <time>2026-08-28T17:52:42Z</time>
  <course>295.5</course>
  <speed>4.81</speed>
  <fix>3d</fix>
</trkpt>
<trkpt lat="40.0735383" lon="-105.2284579">
  <ele>1583.01</ele>
  <time>2026-08-28T17:52:42Z</time>
  <course>296.48</course>
  <speed>4.803675675979801</speed>
  <fix>3d</fix>
</trkpt>
<trkpt lat="40.073534" lon="-105.2284462">
  <ele>1583.0</ele>
  <time>2026-08-28T17:52:42Z</time>
  <course>295.53</course>
  <speed>4.81</speed>
  <fix>3d</fix>
</trkpt>
<trkpt lat="40.0735402" lon="-105.228463">
  <ele>1583.01</ele>
  <time>2026-08-28T17:52:42Z</time>
  <course>296.49</course>
  <speed>4.803675675979801</speed>
  <fix>3d</fix>
</trkpt>
<trkpt lat="40.0735377" lon="-105.2284564">
  <ele>1583.0</ele>
  <time>2026-08-28T17:52:42Z</time>
  <course>295.56</course>
  <speed>4.83</speed>
  <fix>3d</fix>
</trkpt>
<trkpt lat="40.073542" lon="-105.2284681">
  <ele>1583.01</ele>
  <time>2026-08-28T17:52:42Z</time>
  <course>296.5</course>
  <speed>4.81269155462928</speed>
  <fix>3d</fix>
</trkpt>
<trkpt lat="40.0735377" lon="-105.2284564">
  <ele>1583.0</ele>
  <time>2026-08-28T17:52:42Z</time>
  <course>295.56</course>
  <speed>4.83</speed>
  <fix>3d</fix>
</trkpt>
<trkpt lat="40.0735439" lon="-105.2284732">
  <ele>1583.01</ele>
  <time>2026-08-28T17:52:42Z</time>
  <course>296.53</course>
  <speed>4.826033568055655</speed>
  <fix>3d</fix>
</trkpt>
<trkpt lat="40.0735415" lon="-105.2284666">
  <ele>1583.0</ele>
  <time>2026-08-28T17:52:42Z</time>
  <course>295.59</course>
  <speed>4.85</speed>
  <fix>3d</fix>
</trkpt>
<trkpt lat="40.0735458" lon="-105.2284783">
  <ele>1583.01</ele>
  <time>2026-08-28T17:52:42Z</time>
  <course>296.53</course>
  <speed>4.835049120743243</speed>
  <fix>3d</fix>
</trkpt>
<trkpt lat="40.0735415" lon="-105.2284666">
  <ele>1583.0</ele>
  <time>2026-08-28T17:52:42Z</time>
  <course>295.59</course>
  <speed>4.85</speed>
  <fix>3d</fix>
</trkpt>
<trkpt lat="40.0735477" lon="-105.2284835">
  <ele>1583.01</ele>
  <time>2026-08-28T17:52:42Z</time>
  <course>296.55</course>
  <speed>4.848391485843527</speed>
  <fix>3d</fix>
</trkpt>
<trkpt lat="40.0735453" lon="-105.228477">
  <ele>1583.0</ele>
  <time>2026-08-28T17:52:42Z</time>
  <course>295.62</course>
  <speed>4.87</speed>
  <fix>3d</fix>
</trkpt>
<trkpt lat="40.0735496" lon="-105.2284887">
  <ele>1583.01</ele>
  <time>2026-08-28T17:52:42Z</time>
  <course>296.55</course>
  <speed>4.8617383722286</speed>
  <fix>3d</fix>
</trkpt>
<trkpt lat="40.0735453" lon="-105.228477">
  <ele>1583.0</ele>
  <time>2026-08-28T17:52:42Z</time>
  <course>295.62</course>
  <speed>4.87</speed>
  <fix>3d</fix>
</trkpt>
<trkpt lat="40.0735515" lon="-105.2284939">
  <ele>1583.0</ele>
  <time>2026-08-28T17:52:42Z</time>
  <course>296.57</course>
  <speed>4.870749428989342</speed>
  <fix>3d</fix>
</trkpt>
<trkpt lat="40.073549" lon="-105.2284873">
  <ele>1583.0</ele>
  <time>2026-08-28T17:52:42Z</time>
  <course>295.63</course>
  <speed>4.89</speed>
  <fix>3d</fix>
</trkpt>
<trkpt lat="40.0735534" lon="-105.2284991">
  <ele>1583.0</ele>
  <time>2026-08-28T17:52:42Z</time>
  <course>296.58</course>
  <speed>4.884096641140509</speed>
  <fix>3d</fix>
</trkpt>
<trkpt lat="40.073549" lon="-105.2284873">
  <ele>1583.0</ele>
  <time>2026-08-28T17:52:42Z</time>
  <course>295.63</course>
  <speed>4.89</speed>
  <fix>3d</fix>
</trkpt>
<trkpt lat="40.0735554" lon="-105.2285043">
  <ele>1583.0</ele>
  <time>2026-08-28T17:52:42Z</time>
  <course>296.58</course>
  <speed>4.884096641140509</speed>
  <fix>3d</fix>
</trkpt>
<trkpt lat="40.0735528" lon="-105.2284976">
  <ele>1583.0</ele>
  <time>2026-08-28T17:52:42Z</time>
  <course>295.64</course>
  <speed>4.91</speed>
  <fix>3d</fix>
</trkpt>
<trkpt lat="40.0735573" lon="-105.2285096">
  <ele>1583.0</ele>
  <time>2026-08-28T17:52:42Z</time>
  <course>296.6</course>
  <speed>4.897448315194352</speed>
  <fix>3d</fix>
</trkpt>
<trkpt lat="40.0735528" lon="-105.2284976">
  <ele>1583.0</ele>
  <time>2026-08-28T17:52:42Z</time>
  <course>295.64</course>
  <speed>4.91</speed>
  <fix>3d</fix>
</trkpt>
<trkpt lat="40.0735592" lon="-105.2285148">
  <ele>1583.0</ele>
  <time>2026-08-28T17:52:42Z</time>
  <course>296.6</course>
  <speed>4.9064549320257695</speed>
  <fix>3d</fix>
</trkpt>
<trkpt lat="40.0735567" lon="-105.2285081">
  <ele>1583.0</ele>
  <time>2026-08-28T17:52:42Z</time>
  <course>295.66</course>
  <speed>4.92</speed>
  <fix>3d</fix>
</trkpt>
<trkpt lat="40.0735611" lon="-105.2285201">
  <ele>1583.0</ele>
  <time>2026-08-28T17:52:42Z</time>
  <course>296.62</course>
  <speed>4.9064549320257695</speed>
  <fix>3d</fix>
</trkpt>
<trkpt lat="40.0735567" lon="-105.2285081">
  <ele>1583.0</ele>
  <time>2026-08-28T17:52:42Z</time>
  <course>295.66</course>
  <speed>4.92</speed>
  <fix>3d</fix>
</trkpt>
<trkpt lat="40.0735631" lon="-105.2285253">
  <ele>1583.0</ele>
  <time>2026-08-28T17:52:42Z</time>
  <course>296.63</course>
  <speed>4.91980690677998</speed>
  <fix>3d</fix>
</trkpt>
<trkpt lat="40.0735606" lon="-105.2285185">
  <ele>1583.0</ele>
  <time>2026-08-28T17:52:42Z</time>
  <course>295.68</course>
  <speed>4.94</speed>
  <fix>3d</fix>
</trkpt>
<trkpt lat="40.073565" lon="-105.2285306">
  <ele>1583.0</ele>
  <time>2026-08-28T17:52:42Z</time>
  <course>296.64</course>
  <speed>4.91980690677998</speed>
  <fix>3d</fix>
</trkpt>
<trkpt lat="40.0735606" lon="-105.2285185">
  <ele>1583.0</ele>
  <time>2026-08-28T17:52:42Z</time>
  <course>295.68</course>
  <speed>4.94</speed>
  <fix>3d</fix>
</trkpt>
<trkpt lat="40.0735669" lon="-105.2285358">
  <ele>1583.0</ele>
  <time>2026-08-28T17:52:42Z</time>
  <course>296.65</course>
  <speed>4.91980690677998</speed>
  <fix>3d</fix>
</trkpt>
<trkpt lat="40.0735606" lon="-105.2285185">
  <ele>1583.0</ele>
  <time>2026-08-28T17:52:42Z</time>
  <course>295.68</course>
  <speed>4.94</speed>
  <fix>3d</fix>
</trkpt>
<trkpt lat="40.0735689" lon="-105.228541">
  <ele>1583.0</ele>
  <time>2026-08-28T17:52:42Z</time>
  <course>296.66</course>
  <speed>4.91980690677998</speed>
  <fix>3d</fix>
</trkpt>
<trkpt lat="40.0735644" lon="-105.228529">
  <ele>1583.0</ele>
  <time>2026-08-28T17:52:42Z</time>
  <course>295.7</course>
  <speed>4.95</speed>
  <fix>3d</fix>
</trkpt>
<trkpt lat="40.0735708" lon="-105.2285462">
  <ele>1583.0</ele>
  <time>2026-08-28T17:52:42Z</time>
  <course>296.67</course>
  <speed>4.924164903818718</speed>
  <fix>3d</fix>
</trkpt>
<trkpt lat="40.0735644" lon="-105.228529">
  <ele>1583.0</ele>
  <time>2026-08-28T17:52:42Z</time>
  <course>295.7</course>
  <speed>4.95</speed>
  <fix>3d</fix>
</trkpt>
<trkpt lat="40.0735727" lon="-105.2285514">
  <ele>1583.0</ele>
  <time>2026-08-28T17:52:42Z</time>
  <course>296.68</course>
  <speed>4.924164903818718</speed>
  <fix>3d</fix>
</trkpt>
<trkpt lat="40.0735683" lon="-105.2285395">
  <ele>1583.0</ele>
  <time>2026-08-28T17:52:42Z</time>
  <course>295.71</course>
  <speed>4.95</speed>
  <fix>3d</fix>
</trkpt>
<trkpt lat="40.0735746" lon="-105.2285566">
  <ele>1583.0</ele>
  <time>2026-08-28T17:52:42Z</time>
  <course>296.69</course>
  <speed>4.924164903818718</speed>
  <fix>3d</fix>
</trkpt>
<trkpt lat="40.0735683" lon="-105.2285395">
  <ele>1583.0</ele>
  <time>2026-08-28T17:52:42Z</time>
  <course>295.71</course>
  <speed>4.95</speed>
  <fix>3d</fix>
</trkpt>
<trkpt lat="40.0735766" lon="-105.2285618">
  <ele>1583.0</ele>
  <time>2026-08-28T17:52:42Z</time>
  <course>296.7</course>
  <speed>4.924164903818718</speed>
  <fix>3d</fix>
</trkpt>
<trkpt lat="40.0735721" lon="-105.22855">
  <ele>1583.0</ele>
  <time>2026-08-28T17:52:42Z</time>
  <course>295.72</course>
  <speed>4.96</speed>
  <fix>3d</fix>
</trkpt>
<trkpt lat="40.0735785" lon="-105.228567">
  <ele>1583.0</ele>
  <time>2026-08-28T17:52:42Z</time>
  <course>296.7</course>
  <speed>4.924164903818718</speed>
  <fix>3d</fix>
</trkpt>
<trkpt lat="40.0735721" lon="-105.22855">
  <ele>1583.0</ele>
  <time>2026-08-28T17:52:42Z</time>
  <course>295.72</course>
  <speed>4.96</speed>
  <fix>3d</fix>
</trkpt>
<trkpt lat="40.0735804" lon="-105.2285722">
  <ele>1583.0</ele>
  <time>2026-08-28T17:52:42Z</time>
  <course>296.72</course>
  <speed>4.924164903818718</speed>
  <fix>3d</fix>
</trkpt>
<trkpt lat="40.073576" lon="-105.2285605">
  <ele>1583.0</ele>
  <time>2026-08-28T17:52:42Z</time>
  <course>295.73</course>
  <speed>4.96</speed>
  <fix>3d</fix>
</trkpt>
<trkpt lat="40.0735823" lon="-105.2285774">
  <ele>1583.0</ele>
  <time>2026-08-28T17:52:42Z</time>
  <course>296.72</course>
  <speed>4.924164903818718</speed>
  <fix>3d</fix>
</trkpt>
<trkpt lat="40.0735799" lon="-105.228571">
  <ele>1583.0</ele>
  <time>2026-08-28T17:52:42Z</time>
  <course>295.74</course>
  <speed>4.96</speed>
  <fix>3d</fix>
</trkpt>
<trkpt lat="40.0735843" lon="-105.2285827">
  <ele>1583.0</ele>
  <time>2026-08-28T17:52:42Z</time>
  <course>296.74</course>
  <speed>4.924164903818718</speed>
  <fix>3d</fix>
</trkpt>
<trkpt lat="40.0735799" lon="-105.228571">
  <ele>1583.0</ele>
  <time>2026-08-28T17:52:42Z</time>
  <course>295.74</course>
  <speed>4.96</speed>
  <fix>3d</fix>
</trkpt>
<trkpt lat="40.0735862" lon="-105.2285879">
  <ele>1583.0</ele>
  <time>2026-08-28T17:52:42Z</time>
  <course>296.74</course>
  <speed>4.924164903818718</speed>
  <fix>3d</fix>
</trkpt>
<trkpt lat="40.0735837" lon="-105.2285815">
  <ele>1583.0</ele>
  <time>2026-08-28T17:52:42Z</time>
  <course>295.75</course>
  <speed>4.97</speed>
  <fix>3d</fix>
</trkpt>
<trkpt lat="40.0735881" lon="-105.2285932">
  <ele>1583.0</ele>
  <time>2026-08-28T17:52:42Z</time>
  <course>296.74</course>
  <speed>4.933163285357581</speed>
  <fix>3d</fix>
</trkpt>
<trkpt lat="40.0735837" lon="-105.2285815">
  <ele>1583.0</ele>
  <time>2026-08-28T17:52:42Z</time>
  <course>295.75</course>
  <speed>4.97</speed>
  <fix>3d</fix>
</trkpt>
<trkpt lat="40.0735901" lon="-105.2285984">
  <ele>1583.01</ele>
  <time>2026-08-28T17:52:42Z</time>
  <course>296.76</course>
  <speed>4.9375297467458354</speed>
  <fix>3d</fix>
</trkpt>
<trkpt lat="40.0735876" lon="-105.228592">
  <ele>1583.0</ele>
  <time>2026-08-28T17:52:42Z</time>
  <course>295.76</course>
  <speed>4.97</speed>
  <fix>3d</fix>
</trkpt>
<trkpt lat="40.073592" lon="-105.2286037">
  <ele>1583.01</ele>
  <time>2026-08-28T17:52:42Z</time>
  <course>296.76</course>
  <speed>4.9375297467458354</speed>
  <fix>3d</fix>
</trkpt>
<trkpt lat="40.0735876" lon="-105.228592">
  <ele>1583.0</ele>
  <time>2026-08-28T17:52:42Z</time>
  <course>295.76</course>
  <speed>4.97</speed>
  <fix>3d</fix>
</trkpt>
<trkpt lat="40.073594" lon="-105.228609">
  <ele>1583.01</ele>
  <time>2026-08-28T17:52:42Z</time>
  <course>296.78</course>
  <speed>4.9375297467458354</speed>
  <fix>3d</fix>
</trkpt>
<trkpt lat="40.0735915" lon="-105.2286025">
  <ele>1583.0</ele>
  <time>2026-08-28T17:52:42Z</time>
  <course>295.78</course>
  <speed>4.97</speed>
  <fix>3d</fix>
</trkpt>
<trkpt lat="40.073596" lon="-105.2286144">
  <ele>1583.01</ele>
  <time>2026-08-28T17:52:42Z</time>
  <course>296.78</course>
  <speed>4.9375297467458354</speed>
  <fix>3d</fix>
</trkpt>
<trkpt lat="40.0735915" lon="-105.2286025">
  <ele>1583.0</ele>
  <time>2026-08-28T17:52:42Z</time>
  <course>295.78</course>
  <speed>4.97</speed>
  <fix>3d</fix>
</trkpt>
<trkpt lat="40.0735979" lon="-105.2286196">
  <ele>1583.01</ele>
  <time>2026-08-28T17:52:42Z</time>
  <course>296.79</course>
  <speed>4.9375297467458354</speed>
  <fix>3d</fix>
</trkpt>
<trkpt lat="40.0735954" lon="-105.228613">
  <ele>1583.0</ele>
  <time>2026-08-28T17:52:42Z</time>
  <course>295.79</course>
  <speed>4.97</speed>
  <fix>3d</fix>
</trkpt>
<trkpt lat="40.0735999" lon="-105.2286249">
  <ele>1583.01</ele>
  <time>2026-08-28T17:52:42Z</time>
  <course>296.8</course>
  <speed>4.9375297467458354</speed>
  <fix>3d</fix>
</trkpt>
<trkpt lat="40.0735954" lon="-105.228613">
  <ele>1583.0</ele>
  <time>2026-08-28T17:52:42Z</time>
  <course>295.79</course>
  <speed>4.97</speed>
  <fix>3d</fix>
</trkpt>
<trkpt lat="40.0736018" lon="-105.2286302">
  <ele>1583.01</ele>
  <time>2026-08-28T17:52:42Z</time>
  <course>296.8</course>
  <speed>4.9375297467458354</speed>
  <fix>3d</fix>
</trkpt>
<trkpt lat="40.0735993" lon="-105.2286235">
  <ele>1583.0</ele>
  <time>2026-08-28T17:52:42Z</time>
  <course>295.8</course>
  <speed>4.97</speed>
  <fix>3d</fix>
</trkpt>
<trkpt lat="40.0736038" lon="-105.2286355">
  <ele>1583.01</ele>
  <time>2026-08-28T17:52:42Z</time>
  <course>296.8</course>
  <speed>4.9375297467458354</speed>
  <fix>3d</fix>
</trkpt>
<trkpt lat="40.0735993" lon="-105.2286235">
  <ele>1583.0</ele>
  <time>2026-08-28T17:52:42Z</time>
  <course>295.8</course>
  <speed>4.97</speed>
  <fix>3d</fix>
</trkpt>
<trkpt lat="40.0736057" lon="-105.2286408">
  <ele>1583.01</ele>
  <time>2026-08-28T17:52:42Z</time>
  <course>296.82</course>
  <speed>4.9375297467458354</speed>
  <fix>3d</fix>
</trkpt>
<trkpt lat="40.0736032" lon="-105.228634">
  <ele>1583.0</ele>
  <time>2026-08-28T17:52:42Z</time>
  <course>295.8</course>
  <speed>4.96</speed>
  <fix>3d</fix>
</trkpt>
<trkpt lat="40.0736077" lon="-105.228646">
  <ele>1583.01</ele>
  <time>2026-08-28T17:52:42Z</time>
  <course>296.82</course>
  <speed>4.9375297467458354</speed>
  <fix>3d</fix>
</trkpt>
<trkpt lat="40.0736032" lon="-105.228634">
  <ele>1583.0</ele>
  <time>2026-08-28T17:52:42Z</time>
  <course>295.8</course>
  <speed>4.96</speed>
  <fix>3d</fix>
</trkpt>
<trkpt lat="40.0736097" lon="-105.2286513">
  <ele>1583.01</ele>
  <time>2026-08-28T17:52:42Z</time>
  <course>296.82</course>
  <speed>4.928539337369643</speed>
  <fix>3d</fix>
</trkpt>
<trkpt lat="40.0736032" lon="-105.228634">
  <ele>1583.0</ele>
  <time>2026-08-28T17:52:42Z</time>
  <course>295.8</course>
  <speed>4.96</speed>
  <fix>3d</fix>
</trkpt>
<trkpt lat="40.0736116" lon="-105.2286565">
  <ele>1583.01</ele>
  <time>2026-08-28T17:52:42Z</time>
  <course>296.83</course>
  <speed>4.928539337369643</speed>
  <fix>3d</fix>
</trkpt>
<trkpt lat="40.0736071" lon="-105.2286445">
  <ele>1583.0</ele>
  <time>2026-08-28T17:52:42Z</time>
  <course>295.81</course>
  <speed>4.96</speed>
  <fix>3d</fix>
</trkpt>
<trkpt lat="40.0736135" lon="-105.2286617">
  <ele>1583.01</ele>
  <time>2026-08-28T17:52:42Z</time>
  <course>296.83</course>
  <speed>4.928539337369643</speed>
  <fix>3d</fix>
</trkpt>
<trkpt lat="40.0736071" lon="-105.2286445">
  <ele>1583.0</ele>
  <time>2026-08-28T17:52:42Z</time>
  <course>295.81</course>
  <speed>4.96</speed>
  <fix>3d</fix>
</trkpt>
<trkpt lat="40.0736155" lon="-105.2286669">
  <ele>1583.01</ele>
  <time>2026-08-28T17:52:42Z</time>
  <course>296.83</course>
  <speed>4.928539337369643</speed>
  <fix>3d</fix>
</trkpt>
<trkpt lat="40.073611" lon="-105.228655">
  <ele>1583.0</ele>
  <time>2026-08-28T17:52:42Z</time>
  <course>295.81</course>
  <speed>4.95</speed>
  <fix>3d</fix>
</trkpt>
<trkpt lat="40.0736174" lon="-105.2286721">
  <ele>1583.01</ele>
  <time>2026-08-28T17:52:42Z</time>
  <course>296.83</course>
  <speed>4.919552825206779</speed>
  <fix>3d</fix>
</trkpt>
<trkpt lat="40.073611" lon="-105.228655">
  <ele>1583.0</ele>
  <time>2026-08-28T17:52:42Z</time>
  <course>295.81</course>
  <speed>4.95</speed>
  <fix>3d</fix>
</trkpt>
<trkpt lat="40.0736193" lon="-105.2286773">
  <ele>1583.01</ele>
  <time>2026-08-28T17:52:42Z</time>
  <course>296.84</course>
  <speed>4.919552825206779</speed>
  <fix>3d</fix>
</trkpt>
<trkpt lat="40.0736148" lon="-105.2286655">
  <ele>1583.0</ele>
  <time>2026-08-28T17:52:42Z</time>
  <course>295.81</course>
  <speed>4.95</speed>
  <fix>3d</fix>
</trkpt>
<trkpt lat="40.0736212" lon="-105.2286825">
  <ele>1583.0</ele>
  <time>2026-08-28T17:52:43Z</time>
  <course>296.85</course>
  <speed>4.919552825206779</speed>
  <fix>3d</fix>
</trkpt>
<trkpt lat="40.0736187" lon="-105.228676">
  <ele>1583.0</ele>
  <time>2026-08-28T17:52:43Z</time>
  <course>295.82</course>
  <speed>4.95</speed>
  <fix>3d</fix>
</trkpt>
<trkpt lat="40.0736232" lon="-105.2286877">
  <ele>1583.0</ele>
  <time>2026-08-28T17:52:43Z</time>
  <course>296.85</course>
  <speed>4.919552825206779</speed>
  <fix>3d</fix>
</trkpt>
<trkpt lat="40.0736187" lon="-105.228676">
  <ele>1583.0</ele>
  <time>2026-08-28T17:52:43Z</time>
  <course>295.82</course>
  <speed>4.95</speed>
  <fix>3d</fix>
</trkpt>
<trkpt lat="40.0736251" lon="-105.228693">
  <ele>1583.0</ele>
  <time>2026-08-28T17:52:43Z</time>
  <course>296.86</course>
  <speed>4.919552825206779</speed>
  <fix>3d</fix>
</trkpt>
<trkpt lat="40.0736226" lon="-105.2286865">
  <ele>1583.0</ele>
  <time>2026-08-28T17:52:43Z</time>
  <course>295.82</course>
  <speed>4.95</speed>
  <fix>3d</fix>
</trkpt>
<trkpt lat="40.073627" lon="-105.2286982">
  <ele>1583.0</ele>
  <time>2026-08-28T17:52:43Z</time>
  <course>296.87</course>
  <speed>4.928539337369643</speed>
  <fix>3d</fix>
</trkpt>
<trkpt lat="40.0736226" lon="-105.2286865">
  <ele>1583.0</ele>
  <time>2026-08-28T17:52:43Z</time>
  <course>295.82</course>
  <speed>4.95</speed>
  <fix>3d</fix>
</trkpt>
<trkpt lat="40.073629" lon="-105.2287034">
  <ele>1583.0</ele>
  <time>2026-08-28T17:52:43Z</time>
  <course>296.87</course>
  <speed>4.928539337369643</speed>
  <fix>3d</fix>
</trkpt>
<trkpt lat="40.0736264" lon="-105.2286969">
  <ele>1583.0</ele>
  <time>2026-08-28T17:52:43Z</time>
  <course>295.83</course>
  <speed>4.95</speed>
  <fix>3d</fix>
</trkpt>
<trkpt lat="40.073631" lon="-105.2287087">
  <ele>1583.01</ele>
  <time>2026-08-28T17:52:43Z</time>
  <course>296.88</course>
  <speed>4.928539337369643</speed>
  <fix>3d</fix>
</trkpt>
<trkpt lat="40.0736264" lon="-105.2286969">
  <ele>1583.0</ele>
  <time>2026-08-28T17:52:43Z</time>
  <course>295.83</course>
  <speed>4.95</speed>
  <fix>3d</fix>
</trkpt>
<trkpt lat="40.0736329" lon="-105.228714">
  <ele>1583.01</ele>
  <time>2026-08-28T17:52:43Z</time>
  <course>296.89</course>
  <speed>4.932930163705949</speed>
  <fix>3d</fix>
</trkpt>
<trkpt lat="40.0736303" lon="-105.2287074">
  <ele>1583.0</ele>
  <time>2026-08-28T17:52:43Z</time>
  <course>295.84</course>
  <speed>4.96</speed>
  <fix>3d</fix>
</trkpt>
<trkpt lat="40.0736349" lon="-105.2287193">
  <ele>1583.01</ele>
  <time>2026-08-28T17:52:43Z</time>
  <course>296.9</course>
  <speed>4.932930163705949</speed>
  <fix>3d</fix>
</trkpt>
<trkpt lat="40.0736303" lon="-105.2287074">
  <ele>1583.0</ele>
  <time>2026-08-28T17:52:43Z</time>
  <course>295.84</course>
  <speed>4.96</speed>
  <fix>3d</fix>
</trkpt>
<trkpt lat="40.0736368" lon="-105.2287246">
  <ele>1583.01</ele>
  <time>2026-08-28T17:52:43Z</time>
  <course>296.9</course>
  <speed>4.932930163705949</speed>
  <fix>3d</fix>
</trkpt>
<trkpt lat="40.0736342" lon="-105.2287179">
  <ele>1583.0</ele>
  <time>2026-08-28T17:52:43Z</time>
  <course>295.85</course>
  <speed>4.96</speed>
  <fix>3d</fix>
</trkpt>
<trkpt lat="40.0736388" lon="-105.2287298">
  <ele>1583.01</ele>
  <time>2026-08-28T17:52:43Z</time>
  <course>296.91</course>
  <speed>4.941912585224469</speed>
  <fix>3d</fix>
</trkpt>
<trkpt lat="40.0736342" lon="-105.2287179">
  <ele>1583.0</ele>
  <time>2026-08-28T17:52:43Z</time>
  <course>295.85</course>
  <speed>4.96</speed>
  <fix>3d</fix>
</trkpt>
<trkpt lat="40.0736407" lon="-105.2287351">
  <ele>1583.01</ele>
  <time>2026-08-28T17:52:43Z</time>
  <course>296.91</course>
  <speed>4.941912585224469</speed>
  <fix>3d</fix>
</trkpt>
<trkpt lat="40.0736381" lon="-105.2287284">
  <ele>1583.0</ele>
  <time>2026-08-28T17:52:43Z</time>
  <course>295.86</course>
  <speed>4.96</speed>
  <fix>3d</fix>
</trkpt>
<trkpt lat="40.0736427" lon="-105.2287404">
  <ele>1583.01</ele>
  <time>2026-08-28T17:52:43Z</time>
  <course>296.93</course>
  <speed>4.941912585224469</speed>
  <fix>3d</fix>
</trkpt>
<trkpt lat="40.0736381" lon="-105.2287284">
  <ele>1583.0</ele>
  <time>2026-08-28T17:52:43Z</time>
  <course>295.86</course>
  <speed>4.96</speed>
  <fix>3d</fix>
</trkpt>
<trkpt lat="40.0736446" lon="-105.2287456">
  <ele>1583.01</ele>
  <time>2026-08-28T17:52:43Z</time>
  <course>296.93</course>
  <speed>4.941912585224469</speed>
  <fix>3d</fix>
</trkpt>
<trkpt lat="40.073642" lon="-105.2287388">
  <ele>1583.0</ele>
  <time>2026-08-28T17:52:43Z</time>
  <course>295.87</course>
  <speed>4.96</speed>
  <fix>3d</fix>
</trkpt>
<trkpt lat="40.0736466" lon="-105.2287509">
  <ele>1583.01</ele>
  <time>2026-08-28T17:52:43Z</time>
  <course>296.93</course>
  <speed>4.941912585224469</speed>
  <fix>3d</fix>
</trkpt>
<trkpt lat="40.073642" lon="-105.2287388">
  <ele>1583.0</ele>
  <time>2026-08-28T17:52:43Z</time>
  <course>295.87</course>
  <speed>4.96</speed>
  <fix>3d</fix>
</trkpt>
<trkpt lat="40.0736486" lon="-105.2287562">
  <ele>1583.01</ele>
  <time>2026-08-28T17:52:43Z</time>
  <course>296.94</course>
  <speed>4.941912585224469</speed>
  <fix>3d</fix>
</trkpt>
<trkpt lat="40.073642" lon="-105.2287388">
  <ele>1583.0</ele>
  <time>2026-08-28T17:52:43Z</time>
  <course>295.87</course>
  <speed>4.96</speed>
  <fix>3d</fix>
</trkpt>
<trkpt lat="40.0736505" lon="-105.2287614">
  <ele>1583.01</ele>
  <time>2026-08-28T17:52:43Z</time>
  <course>296.95</course>
  <speed>4.941912585224469</speed>
  <fix>3d</fix>
</trkpt>
<trkpt lat="40.0736459" lon="-105.2287493">
  <ele>1583.0</ele>
  <time>2026-08-28T17:52:43Z</time>
  <course>295.88</course>
  <speed>4.96</speed>
  <fix>3d</fix>
</trkpt>
<trkpt lat="40.0736524" lon="-105.2287666">
  <ele>1583.01</ele>
  <time>2026-08-28T17:52:43Z</time>
  <course>296.95</course>
  <speed>4.941912585224469</speed>
  <fix>3d</fix>
</trkpt>
<trkpt lat="40.0736459" lon="-105.2287493">
  <ele>1583.0</ele>
  <time>2026-08-28T17:52:43Z</time>
  <course>295.88</course>
  <speed>4.96</speed>
  <fix>3d</fix>
</trkpt>
<trkpt lat="40.0736544" lon="-105.2287718">
  <ele>1583.01</ele>
  <time>2026-08-28T17:52:43Z</time>
  <course>296.96</course>
  <speed>4.932930163705949</speed>
  <fix>3d</fix>
</trkpt>
<trkpt lat="40.0736498" lon="-105.2287598">
  <ele>1583.0</ele>
  <time>2026-08-28T17:52:43Z</time>
  <course>295.89</course>
  <speed>4.96</speed>
  <fix>3d</fix>
</trkpt>
<trkpt lat="40.0736563" lon="-105.228777">
  <ele>1583.0</ele>
  <time>2026-08-28T17:52:43Z</time>
  <course>296.96</course>
  <speed>4.932930163705949</speed>
  <fix>3d</fix>
</trkpt>
<trkpt lat="40.0736498" lon="-105.2287598">
  <ele>1583.0</ele>
  <time>2026-08-28T17:52:43Z</time>
  <course>295.89</course>
  <speed>4.96</speed>
  <fix>3d</fix>
</trkpt>
<trkpt lat="40.0736582" lon="-105.2287821">
  <ele>1583.0</ele>
  <time>2026-08-28T17:52:43Z</time>
  <course>296.96</course>
  <speed>4.932930163705949</speed>
  <fix>3d</fix>
</trkpt>
<trkpt lat="40.0736537" lon="-105.2287703">
  <ele>1583.0</ele>
  <time>2026-08-28T17:52:43Z</time>
  <course>295.89</course>
  <speed>4.96</speed>
  <fix>3d</fix>
</trkpt>
<trkpt lat="40.0736602" lon="-105.2287874">
  <ele>1583.0</ele>
  <time>2026-08-28T17:52:43Z</time>
  <course>296.96</course>
  <speed>4.932930163705949</speed>
  <fix>3d</fix>
</trkpt>
<trkpt lat="40.0736576" lon="-105.2287808">
  <ele>1583.0</ele>
  <time>2026-08-28T17:52:43Z</time>
  <course>295.89</course>
  <speed>4.96</speed>
  <fix>3d</fix>
</trkpt>
<trkpt lat="40.0736621" lon="-105.2287926">
  <ele>1582.99</ele>
  <time>2026-08-28T17:52:43Z</time>
  <course>296.96</course>
  <speed>4.932930163705949</speed>
  <fix>3d</fix>
</trkpt>
<trkpt lat="40.0736576" lon="-105.2287808">
  <ele>1583.0</ele>
  <time>2026-08-28T17:52:43Z</time>
  <course>295.89</course>
  <speed>4.96</speed>
  <fix>3d</fix>
</trkpt>
<trkpt lat="40.0736641" lon="-105.2287978">
  <ele>1582.99</ele>
  <time>2026-08-28T17:52:43Z</time>
  <course>296.96</course>
  <speed>4.932930163705949</speed>
  <fix>3d</fix>
</trkpt>
<trkpt lat="40.0736615" lon="-105.2287913">
  <ele>1583.0</ele>
  <time>2026-08-28T17:52:43Z</time>
  <course>295.89</course>
  <speed>4.96</speed>
  <fix>3d</fix>
</trkpt>
<trkpt lat="40.073666" lon="-105.2288031">
  <ele>1582.99</ele>
  <time>2026-08-28T17:52:43Z</time>
  <course>296.97</course>
  <speed>4.941912585224469</speed>
  <fix>3d</fix>
</trkpt>
<trkpt lat="40.0736615" lon="-105.2287913">
  <ele>1583.0</ele>
  <time>2026-08-28T17:52:43Z</time>
  <course>295.89</course>
  <speed>4.96</speed>
  <fix>3d</fix>
</trkpt>
<trkpt lat="40.073668" lon="-105.2288083">
  <ele>1582.99</ele>
  <time>2026-08-28T17:52:43Z</time>
  <course>296.97</course>
  <speed>4.9463117572591395</speed>
  <fix>3d</fix>
</trkpt>
<trkpt lat="40.0736654" lon="-105.2288018">
  <ele>1583.0</ele>
  <time>2026-08-28T17:52:43Z</time>
  <course>295.89</course>
  <speed>4.97</speed>
  <fix>3d</fix>
</trkpt>
<trkpt lat="40.0736699" lon="-105.2288136">
  <ele>1582.99</ele>
  <time>2026-08-28T17:52:43Z</time>
  <course>296.97</course>
  <speed>4.9463117572591395</speed>
  <fix>3d</fix>
</trkpt>
<trkpt lat="40.0736654" lon="-105.2288018">
  <ele>1583.0</ele>
  <time>2026-08-28T17:52:43Z</time>
  <course>295.89</course>
  <speed>4.97</speed>
  <fix>3d</fix>
</trkpt>
<trkpt lat="40.0736719" lon="-105.2288189">
  <ele>1582.99</ele>
  <time>2026-08-28T17:52:43Z</time>
  <course>296.98</course>
  <speed>4.9463117572591395</speed>
  <fix>3d</fix>
</trkpt>
<trkpt lat="40.0736693" lon="-105.2288123">
  <ele>1583.0</ele>
  <time>2026-08-28T17:52:43Z</time>
  <course>295.9</course>
  <speed>4.97</speed>
  <fix>3d</fix>
</trkpt>
<trkpt lat="40.0736738" lon="-105.2288242">
  <ele>1582.99</ele>
  <time>2026-08-28T17:52:43Z</time>
  <course>296.98</course>
  <speed>4.955290102506613</speed>
  <fix>3d</fix>
</trkpt>
<trkpt lat="40.0736693" lon="-105.2288123">
  <ele>1583.0</ele>
  <time>2026-08-28T17:52:43Z</time>
  <course>295.9</course>
  <speed>4.97</speed>
  <fix>3d</fix>
</trkpt>
<trkpt lat="40.0736758" lon="-105.2288295">
  <ele>1582.99</ele>
  <time>2026-08-28T17:52:43Z</time>
  <course>296.99</course>
  <speed>4.955290102506613</speed>
  <fix>3d</fix>
</trkpt>
<trkpt lat="40.0736732" lon="-105.2288228">
  <ele>1583.0</ele>
  <time>2026-08-28T17:52:43Z</time>
  <course>295.91</course>
  <speed>4.97</speed>
  <fix>3d</fix>
</trkpt>
<trkpt lat="40.0736778" lon="-105.2288348">
  <ele>1582.99</ele>
  <time>2026-08-28T17:52:43Z</time>
  <course>296.99</course>
  <speed>4.955290102506613</speed>
  <fix>3d</fix>
</trkpt>
<trkpt lat="40.0736732" lon="-105.2288228">
  <ele>1583.0</ele>
  <time>2026-08-28T17:52:43Z</time>
  <course>295.91</course>
  <speed>4.97</speed>
  <fix>3d</fix>
</trkpt>
<trkpt lat="40.0736798" lon="-105.2288401">
  <ele>1582.99</ele>
  <time>2026-08-28T17:52:43Z</time>
  <course>296.99</course>
  <speed>4.955290102506613</speed>
  <fix>3d</fix>
</trkpt>
<trkpt lat="40.0736771" lon="-105.2288333">
  <ele>1583.0</ele>
  <time>2026-08-28T17:52:43Z</time>
  <course>295.91</course>
  <speed>4.97</speed>
  <fix>3d</fix>
</trkpt>
<trkpt lat="40.0736817" lon="-105.2288454">
  <ele>1582.99</ele>
  <time>2026-08-28T17:52:43Z</time>
  <course>296.99</course>
  <speed>4.955290102506613</speed>
  <fix>3d</fix>
</trkpt>
<trkpt lat="40.0736771" lon="-105.2288333">
  <ele>1583.0</ele>
  <time>2026-08-28T17:52:43Z</time>
  <course>295.91</course>
  <speed>4.97</speed>
  <fix>3d</fix>
</trkpt>
<trkpt lat="40.0736837" lon="-105.2288506">
  <ele>1582.99</ele>
  <time>2026-08-28T17:52:43Z</time>
  <course>297.01</course>
  <speed>4.955290102506613</speed>
  <fix>3d</fix>
</trkpt>
<trkpt lat="40.073681" lon="-105.2288438">
  <ele>1583.0</ele>
  <time>2026-08-28T17:52:43Z</time>
  <course>295.91</course>
  <speed>4.97</speed>
  <fix>3d</fix>
</trkpt>
<trkpt lat="40.0736857" lon="-105.2288559">
  <ele>1582.99</ele>
  <time>2026-08-28T17:52:43Z</time>
  <course>297.01</course>
  <speed>4.955290102506613</speed>
  <fix>3d</fix>
</trkpt>
<trkpt lat="40.073681" lon="-105.2288438">
  <ele>1583.0</ele>
  <time>2026-08-28T17:52:43Z</time>
  <course>295.91</course>
  <speed>4.97</speed>
  <fix>3d</fix>
</trkpt>
<trkpt lat="40.0736876" lon="-105.2288612">
  <ele>1582.99</ele>
  <time>2026-08-28T17:52:43Z</time>
  <course>297.01</course>
  <speed>4.955290102506613</speed>
  <fix>3d</fix>
</trkpt>
<trkpt lat="40.073681" lon="-105.2288438">
  <ele>1583.0</ele>
  <time>2026-08-28T17:52:43Z</time>
  <course>295.91</course>
  <speed>4.97</speed>
  <fix>3d</fix>
</trkpt>
<trkpt lat="40.0736896" lon="-105.2288664">
  <ele>1583.0</ele>
  <time>2026-08-28T17:52:43Z</time>
  <course>297.01</course>
  <speed>4.955290102506613</speed>
  <fix>3d</fix>
</trkpt>
<trkpt lat="40.0736849" lon="-105.2288543">
  <ele>1583.0</ele>
  <time>2026-08-28T17:52:43Z</time>
  <course>295.92</course>
  <speed>4.97</speed>
  <fix>3d</fix>
</trkpt>
<trkpt lat="40.0736915" lon="-105.2288716">
  <ele>1583.0</ele>
  <time>2026-08-28T17:52:43Z</time>
  <course>297.01</course>
  <speed>4.955290102506613</speed>
  <fix>3d</fix>
</trkpt>
<trkpt lat="40.0736849" lon="-105.2288543">
  <ele>1583.0</ele>
  <time>2026-08-28T17:52:43Z</time>
  <course>295.92</course>
  <speed>4.97</speed>
  <fix>3d</fix>
</trkpt>
<trkpt lat="40.0736934" lon="-105.2288768">
  <ele>1582.99</ele>
  <time>2026-08-28T17:52:43Z</time>
  <course>297.01</course>
  <speed>4.9463117572591395</speed>
  <fix>3d</fix>
</trkpt>
<trkpt lat="40.0736888" lon="-105.2288648">
  <ele>1583.0</ele>
  <time>2026-08-28T17:52:43Z</time>
  <course>295.92</course>
  <speed>4.97</speed>
  <fix>3d</fix>
</trkpt>
<trkpt lat="40.0736954" lon="-105.228882">
  <ele>1582.99</ele>
  <time>2026-08-28T17:52:43Z</time>
  <course>297.03</course>
  <speed>4.9463117572591395</speed>
  <fix>3d</fix>
</trkpt>
<trkpt lat="40.0736888" lon="-105.2288648">
  <ele>1583.0</ele>
  <time>2026-08-28T17:52:43Z</time>
  <course>295.92</course>
  <speed>4.97</speed>
  <fix>3d</fix>
</trkpt>
<trkpt lat="40.0736973" lon="-105.2288872">
  <ele>1582.99</ele>
  <time>2026-08-28T17:52:43Z</time>
  <course>297.03</course>
  <speed>4.9463117572591395</speed>
  <fix>3d</fix>
</trkpt>
<trkpt lat="40.0736927" lon="-105.2288753">
  <ele>1583.0</ele>
  <time>2026-08-28T17:52:43Z</time>
  <course>295.93</course>
  <speed>4.97</speed>
  <fix>3d</fix>
</trkpt>
<trkpt lat="40.0736992" lon="-105.2288924">
  <ele>1582.99</ele>
  <time>2026-08-28T17:52:43Z</time>
  <course>297.03</course>
  <speed>4.9463117572591395</speed>
  <fix>3d</fix>
</trkpt>
<trkpt lat="40.0736927" lon="-105.2288753">
  <ele>1583.0</ele>
  <time>2026-08-28T17:52:43Z</time>
  <course>295.93</course>
  <speed>4.97</speed>
  <fix>3d</fix>
</trkpt>
<trkpt lat="40.0737012" lon="-105.2288976">
  <ele>1582.99</ele>
  <time>2026-08-28T17:52:43Z</time>
  <course>297.03</course>
  <speed>4.9463117572591395</speed>
  <fix>3d</fix>
</trkpt>
<trkpt lat="40.0736966" lon="-105.2288858">
  <ele>1583.0</ele>
  <time>2026-08-28T17:52:43Z</time>
  <course>295.93</course>
  <speed>4.97</speed>
  <fix>3d</fix>
</trkpt>
<trkpt lat="40.0737031" lon="-105.2289028">
  <ele>1582.99</ele>
  <time>2026-08-28T17:52:43Z</time>
  <course>297.03</course>
  <speed>4.9463117572591395</speed>
  <fix>3d</fix>
</trkpt>
<trkpt lat="40.0737005" lon="-105.2288963">
  <ele>1583.0</ele>
  <time>2026-08-28T17:52:43Z</time>
  <course>295.93</course>
  <speed>4.97</speed>
  <fix>3d</fix>
</trkpt>
<trkpt lat="40.0737051" lon="-105.2289081">
  <ele>1582.99</ele>
  <time>2026-08-28T17:52:43Z</time>
  <course>297.05</course>
  <speed>4.9463117572591395</speed>
  <fix>3d</fix>
</trkpt>
<trkpt lat="40.0737005" lon="-105.2288963">
  <ele>1583.0</ele>
  <time>2026-08-28T17:52:43Z</time>
  <course>295.93</course>
  <speed>4.97</speed>
  <fix>3d</fix>
</trkpt>
<trkpt lat="40.073707" lon="-105.2289133">
  <ele>1583.0</ele>
  <time>2026-08-28T17:52:43Z</time>
  <course>297.05</course>
  <speed>4.9463117572591395</speed>
  <fix>3d</fix>
</trkpt>
<trkpt lat="40.0737044" lon="-105.2289068">
  <ele>1583.0</ele>
  <time>2026-08-28T17:52:43Z</time>
  <course>295.94</course>
  <speed>4.97</speed>
  <fix>3d</fix>
</trkpt>
<trkpt lat="40.073709" lon="-105.2289186">
  <ele>1583.0</ele>
  <time>2026-08-28T17:52:43Z</time>
  <course>297.05</course>
  <speed>4.955290102506613</speed>
  <fix>3d</fix>
</trkpt>
<trkpt lat="40.0737044" lon="-105.2289068">
  <ele>1583.0</ele>
  <time>2026-08-28T17:52:43Z</time>
  <course>295.94</course>
  <speed>4.97</speed>
  <fix>3d</fix>
</trkpt>
<trkpt lat="40.0737109" lon="-105.2289238">
  <ele>1583.0</ele>
  <time>2026-08-28T17:52:43Z</time>
  <course>297.05</course>
  <speed>4.955290102506613</speed>
  <fix>3d</fix>
</trkpt>
<trkpt lat="40.0737084" lon="-105.2289173">
  <ele>1583.0</ele>
  <time>2026-08-28T17:52:43Z</time>
  <course>295.95</course>
  <speed>4.98</speed>
  <fix>3d</fix>
</trkpt>
<trkpt lat="40.0737129" lon="-105.2289291">
  <ele>1583.0</ele>
  <time>2026-08-28T17:52:43Z</time>
  <course>297.06</course>
  <speed>4.959697571425097</speed>
  <fix>3d</fix>
</trkpt>
<trkpt lat="40.0737084" lon="-105.2289173">
  <ele>1583.0</ele>
  <time>2026-08-28T17:52:43Z</time>
  <course>295.95</course>
  <speed>4.98</speed>
  <fix>3d</fix>
</trkpt>
<trkpt lat="40.0737149" lon="-105.2289344">
  <ele>1583.0</ele>
  <time>2026-08-28T17:52:43Z</time>
  <course>297.07</course>
  <speed>4.959697571425097</speed>
  <fix>3d</fix>
</trkpt>
<trkpt lat="40.0737123" lon="-105.2289278">
  <ele>1583.0</ele>
  <time>2026-08-28T17:52:43Z</time>
  <course>295.95</course>
  <speed>4.98</speed>
  <fix>3d</fix>
</trkpt>
<trkpt lat="40.0737169" lon="-105.2289398">
  <ele>1583.01</ele>
  <time>2026-08-28T17:52:43Z</time>
  <course>297.07</course>
  <speed>4.959697571425097</speed>
  <fix>3d</fix>
</trkpt>
<trkpt lat="40.0737123" lon="-105.2289278">
  <ele>1583.0</ele>
  <time>2026-08-28T17:52:43Z</time>
  <course>295.95</course>
  <speed>4.98</speed>
  <fix>3d</fix>
</trkpt>
<trkpt lat="40.0737188" lon="-105.228945">
  <ele>1583.01</ele>
  <time>2026-08-28T17:52:43Z</time>
  <course>297.07</course>
  <speed>4.959697571425097</speed>
  <fix>3d</fix>
</trkpt>
<trkpt lat="40.0737162" lon="-105.2289383">
  <ele>1583.0</ele>
  <time>2026-08-28T17:52:43Z</time>
  <course>295.96</course>
  <speed>4.98</speed>
  <fix>3d</fix>
</trkpt>
<trkpt lat="40.0737208" lon="-105.2289503">
  <ele>1583.01</ele>
  <time>2026-08-28T17:52:43Z</time>
  <course>297.07</course>
  <speed>4.968671854731403</speed>
  <fix>3d</fix>
</trkpt>
<trkpt lat="40.0737162" lon="-105.2289383">
  <ele>1583.0</ele>
  <time>2026-08-28T17:52:43Z</time>
  <course>295.96</course>
  <speed>4.98</speed>
  <fix>3d</fix>
</trkpt>
<trkpt lat="40.0737228" lon="-105.2289556">
  <ele>1583.01</ele>
  <time>2026-08-28T17:52:43Z</time>
  <course>297.07</course>
  <speed>4.968671854731403</speed>
  <fix>3d</fix>
</trkpt>
<trkpt lat="40.0737201" lon="-105.2289488">
  <ele>1583.0</ele>
  <time>2026-08-28T17:52:43Z</time>
  <course>295.96</course>
  <speed>4.98</speed>
  <fix>3d</fix>
</trkpt>
<trkpt lat="40.0737248" lon="-105.2289609">
  <ele>1583.01</ele>
  <time>2026-08-28T17:52:43Z</time>
  <course>297.07</course>
  <speed>4.968671854731403</speed>
  <fix>3d</fix>
</trkpt>
<trkpt lat="40.0737201" lon="-105.2289488">
  <ele>1583.0</ele>
  <time>2026-08-28T17:52:43Z</time>
  <course>295.96</course>
  <speed>4.98</speed>
  <fix>3d</fix>
</trkpt>
<trkpt lat="40.0737267" lon="-105.2289662">
  <ele>1583.01</ele>
  <time>2026-08-28T17:52:43Z</time>
  <course>297.07</course>
  <speed>4.968671854731403</speed>
  <fix>3d</fix>
</trkpt>
<trkpt lat="40.073724" lon="-105.2289594">
  <ele>1583.0</ele>
  <time>2026-08-28T17:52:43Z</time>
  <course>295.96</course>
  <speed>4.98</speed>
  <fix>3d</fix>
</trkpt>
<trkpt lat="40.0737287" lon="-105.2289715">
  <ele>1583.01</ele>
  <time>2026-08-28T17:52:43Z</time>
  <course>297.07</course>
  <speed>4.968671854731403</speed>
  <fix>3d</fix>
</trkpt>
<trkpt lat="40.073724" lon="-105.2289594">
  <ele>1583.0</ele>
  <time>2026-08-28T17:52:43Z</time>
  <course>295.96</course>
  <speed>4.98</speed>
  <fix>3d</fix>
</trkpt>
<trkpt lat="40.0737307" lon="-105.2289768">
  <ele>1583.01</ele>
  <time>2026-08-28T17:52:43Z</time>
  <course>297.07</course>
  <speed>4.968671854731403</speed>
  <fix>3d</fix>
</trkpt>
<trkpt lat="40.073724" lon="-105.2289594">
  <ele>1583.0</ele>
  <time>2026-08-28T17:52:43Z</time>
  <course>295.96</course>
  <speed>4.98</speed>
  <fix>3d</fix>
</trkpt>
<trkpt lat="40.0737326" lon="-105.228982">
  <ele>1583.01</ele>
  <time>2026-08-28T17:52:43Z</time>
  <course>297.07</course>
  <speed>4.959697571425097</speed>
  <fix>3d</fix>
</trkpt>
<trkpt lat="40.073728" lon="-105.22897">
  <ele>1583.0</ele>
  <time>2026-08-28T17:52:43Z</time>
  <course>295.96</course>
  <speed>4.98</speed>
  <fix>3d</fix>
</trkpt>
<trkpt lat="40.0737346" lon="-105.2289872">
  <ele>1583.01</ele>
  <time>2026-08-28T17:52:43Z</time>
  <course>297.08</course>
  <speed>4.959697571425097</speed>
  <fix>3d</fix>
</trkpt>
<trkpt lat="40.073728" lon="-105.22897">
  <ele>1583.0</ele>
  <time>2026-08-28T17:52:43Z</time>
  <course>295.96</course>
  <speed>4.98</speed>
  <fix>3d</fix>
</trkpt>
<trkpt lat="40.0737365" lon="-105.2289925">
  <ele>1583.01</ele>
  <time>2026-08-28T17:52:43Z</time>
  <course>297.08</course>
  <speed>4.959697571425097</speed>
  <fix>3d</fix>
</trkpt>
<trkpt lat="40.0737319" lon="-105.2289805">
  <ele>1583.0</ele>
  <time>2026-08-28T17:52:43Z</time>
  <course>295.96</course>
  <speed>4.98</speed>
  <fix>3d</fix>
</trkpt>
<trkpt lat="40.0737385" lon="-105.2289977">
  <ele>1583.0</ele>
  <time>2026-08-28T17:52:43Z</time>
  <course>297.08</course>
  <speed>4.959697571425097</speed>
  <fix>3d</fix>
</trkpt>
<trkpt lat="40.0737319" lon="-105.2289805">
  <ele>1583.0</ele>
  <time>2026-08-28T17:52:43Z</time>
  <course>295.96</course>
  <speed>4.98</speed>
  <fix>3d</fix>
</trkpt>
<trkpt lat="40.0737404" lon="-105.2290029">
  <ele>1583.0</ele>
  <time>2026-08-28T17:52:43Z</time>
  <course>297.09</course>
  <speed>4.959697571425097</speed>
  <fix>3d</fix>
</trkpt>
<trkpt lat="40.0737358" lon="-105.228991">
  <ele>1583.0</ele>
  <time>2026-08-28T17:52:43Z</time>
  <course>295.96</course>
  <speed>4.98</speed>
  <fix>3d</fix>
</trkpt>
<trkpt lat="40.0737423" lon="-105.2290081">
  <ele>1583.0</ele>
  <time>2026-08-28T17:52:43Z</time>
  <course>297.09</course>
  <speed>4.95072721930829</speed>
  <fix>3d</fix>
</trkpt>
<trkpt lat="40.0737397" lon="-105.2290015">
  <ele>1583.0</ele>
  <time>2026-08-28T17:52:43Z</time>
  <course>295.97</course>
  <speed>4.98</speed>
  <fix>3d</fix>
</trkpt>
<trkpt lat="40.0737443" lon="-105.2290134">
  <ele>1582.99</ele>
  <time>2026-08-28T17:52:43Z</time>
  <course>297.12</course>
  <speed>4.95072721930829</speed>
  <fix>3d</fix>
</trkpt>
<trkpt lat="40.0737397" lon="-105.2290015">
  <ele>1583.0</ele>
  <time>2026-08-28T17:52:43Z</time>
  <course>295.97</course>
  <speed>4.98</speed>
  <fix>3d</fix>
</trkpt>
<trkpt lat="40.0737463" lon="-105.2290186">
  <ele>1582.99</ele>
  <time>2026-08-28T17:52:43Z</time>
  <course>297.15</course>
  <speed>4.95072721930829</speed>
  <fix>3d</fix>
</trkpt>
<trkpt lat="40.0737436" lon="-105.229012">
  <ele>1583.0</ele>
  <time>2026-08-28T17:52:43Z</time>
  <course>296.0</course>
  <speed>4.97</speed>
  <fix>3d</fix>
</trkpt>
<trkpt lat="40.0737482" lon="-105.2290238">
  <ele>1582.99</ele>
  <time>2026-08-28T17:52:43Z</time>
  <course>297.18</course>
  <speed>4.937337339092803</speed>
  <fix>3d</fix>
</trkpt>
<trkpt lat="40.0737436" lon="-105.229012">
  <ele>1583.0</ele>
  <time>2026-08-28T17:52:43Z</time>
  <course>296.0</course>
  <speed>4.97</speed>
  <fix>3d</fix>
</trkpt>
<trkpt lat="40.0737502" lon="-105.2290291">
  <ele>1582.99</ele>
  <time>2026-08-28T17:52:43Z</time>
  <course>297.19</course>
  <speed>4.919400369963803</speed>
  <fix>3d</fix>
</trkpt>
<trkpt lat="40.0737476" lon="-105.2290225">
  <ele>1583.0</ele>
  <time>2026-08-28T17:52:43Z</time>
  <course>296.05</course>
  <speed>4.96</speed>
  <fix>3d</fix>
</trkpt>
<trkpt lat="40.0737521" lon="-105.2290343">
  <ele>1582.99</ele>
  <time>2026-08-28T17:52:43Z</time>
  <course>297.25</course>
  <speed>4.89703992223874</speed>
  <fix>3d</fix>
</trkpt>
<trkpt lat="40.0737476" lon="-105.2290225">
  <ele>1583.0</ele>
  <time>2026-08-28T17:52:43Z</time>
  <course>296.05</course>
  <speed>4.96</speed>
  <fix>3d</fix>
</trkpt>
<trkpt lat="40.0737541" lon="-105.2290395">
  <ele>1582.99</ele>
  <time>2026-08-28T17:52:43Z</time>
  <course>297.29</course>
  <speed>4.865716802281037</speed>
  <fix>3d</fix>
</trkpt>
<trkpt lat="40.0737515" lon="-105.2290329">
  <ele>1583.0</ele>
  <time>2026-08-28T17:52:43Z</time>
  <course>296.11</course>
  <speed>4.91</speed>
  <fix>3d</fix>
</trkpt>
<trkpt lat="40.073756" lon="-105.2290447">
  <ele>1582.99</ele>
  <time>2026-08-28T17:52:43Z</time>
  <course>297.33</course>
  <speed>4.812036990714016</speed>
  <fix>3d</fix>
</trkpt>
<trkpt lat="40.0737515" lon="-105.2290329">
  <ele>1583.0</ele>
  <time>2026-08-28T17:52:43Z</time>
  <course>296.11</course>
  <speed>4.91</speed>
  <fix>3d</fix>
</trkpt>
<trkpt lat="40.0737579" lon="-105.2290497">
  <ele>1582.99</ele>
  <time>2026-08-28T17:52:43Z</time>
  <course>297.37</course>
  <speed>4.758361062382719</speed>
  <fix>3d</fix>
</trkpt>
<trkpt lat="40.0737553" lon="-105.2290432">
  <ele>1583.0</ele>
  <time>2026-08-28T17:52:43Z</time>
  <course>296.2</course>
  <speed>4.83</speed>
  <fix>3d</fix>
</trkpt>
<trkpt lat="40.0737598" lon="-105.2290548">
  <ele>1582.99</ele>
  <time>2026-08-28T17:52:43Z</time>
  <course>297.43</course>
  <speed>4.691279143261463</speed>
  <fix>3d</fix>
</trkpt>
<trkpt lat="40.0737553" lon="-105.2290432">
  <ele>1583.0</ele>
  <time>2026-08-28T17:52:43Z</time>
  <course>296.2</course>
  <speed>4.83</speed>
  <fix>3d</fix>
</trkpt>
<trkpt lat="40.0737617" lon="-105.2290597">
  <ele>1582.99</ele>
  <time>2026-08-28T17:52:43Z</time>
  <course>297.47</course>
  <speed>4.615246472291593</speed>
  <fix>3d</fix>
</trkpt>
<trkpt lat="40.0737591" lon="-105.2290532">
  <ele>1583.0</ele>
  <time>2026-08-28T17:52:43Z</time>
  <course>296.29</course>
  <speed>4.71</speed>
  <fix>3d</fix>
</trkpt>
<trkpt lat="40.0737635" lon="-105.2290646">
  <ele>1582.99</ele>
  <time>2026-08-28T17:52:43Z</time>
  <course>297.54</course>
  <speed>4.525803796012372</speed>
  <fix>3d</fix>
</trkpt>
<trkpt lat="40.0737591" lon="-105.2290532">
  <ele>1583.0</ele>
  <time>2026-08-28T17:52:43Z</time>
  <course>296.29</course>
  <speed>4.71</speed>
  <fix>3d</fix>
</trkpt>
<trkpt lat="40.0737653" lon="-105.2290693">
  <ele>1582.99</ele>
  <time>2026-08-28T17:52:43Z</time>
  <course>297.59</course>
  <speed>4.427414595449584</speed>
  <fix>3d</fix>
</trkpt>
<trkpt lat="40.0737628" lon="-105.229063">
  <ele>1583.0</ele>
  <time>2026-08-28T17:52:43Z</time>
  <course>296.4</course>
  <speed>4.54</speed>
  <fix>3d</fix>
</trkpt>
<trkpt lat="40.0737671" lon="-105.2290739">
  <ele>1582.99</ele>
  <time>2026-08-28T17:52:43Z</time>
  <course>297.65</course>
  <speed>4.3156111965745945</speed>
  <fix>3d</fix>
</trkpt>
<trkpt lat="40.0737628" lon="-105.229063">
  <ele>1583.0</ele>
  <time>2026-08-28T17:52:43Z</time>
  <course>296.4</course>
  <speed>4.54</speed>
  <fix>3d</fix>
</trkpt>
<trkpt lat="40.0737688" lon="-105.2290784">
  <ele>1582.99</ele>
  <time>2026-08-28T17:52:43Z</time>
  <course>297.71</course>
  <speed>4.208289438714975</speed>
  <fix>3d</fix>
</trkpt>
<trkpt lat="40.0737628" lon="-105.229063">
  <ele>1583.0</ele>
  <time>2026-08-28T17:52:43Z</time>
  <course>296.4</course>
  <speed>4.54</speed>
  <fix>3d</fix>
</trkpt>
<trkpt lat="40.0737704" lon="-105.2290827">
  <ele>1582.99</ele>
  <time>2026-08-28T17:52:43Z</time>
  <course>297.76</course>
  <speed>4.0830625760573405</speed>
  <fix>3d</fix>
</trkpt>
<trkpt lat="40.0737664" lon="-105.2290723">
  <ele>1583.0</ele>
  <time>2026-08-28T17:52:43Z</time>
  <course>296.51</course>
  <speed>4.33</speed>
  <fix>3d</fix>
</trkpt>
<trkpt lat="40.0737721" lon="-105.2290869">
  <ele>1582.99</ele>
  <time>2026-08-28T17:52:43Z</time>
  <course>297.82</course>
  <speed>3.9623225512317894</speed>
  <fix>3d</fix>
</trkpt>
<trkpt lat="40.0737664" lon="-105.2290723">
  <ele>1583.0</ele>
  <time>2026-08-28T17:52:43Z</time>
  <course>296.51</course>
  <speed>4.33</speed>
  <fix>3d</fix>
</trkpt>
<trkpt lat="40.0737736" lon="-105.229091">
  <ele>1582.99</ele>
  <time>2026-08-28T17:52:43Z</time>
  <course>297.88</course>
  <speed>3.8281588263811623</speed>
  <fix>3d</fix>
</trkpt>
<trkpt lat="40.0737698" lon="-105.2290812">
  <ele>1583.0</ele>
  <time>2026-08-28T17:52:43Z</time>
  <course>296.63</course>
  <speed>4.11</speed>
  <fix>3d</fix>
</trkpt>
<trkpt lat="40.0737751" lon="-105.2290949">
  <ele>1582.99</ele>
  <time>2026-08-28T17:52:43Z</time>
  <course>297.93</course>
  <speed>3.7074249823833254</speed>
  <fix>3d</fix>
</trkpt>
<trkpt lat="40.0737698" lon="-105.2290812">
  <ele>1583.0</ele>
  <time>2026-08-28T17:52:43Z</time>
  <course>296.63</course>
  <speed>4.11</speed>
  <fix>3d</fix>
</trkpt>
<trkpt lat="40.0737766" lon="-105.2290987">
  <ele>1582.99</ele>
  <time>2026-08-28T17:52:43Z</time>
  <course>297.98</course>
  <speed>3.573261815204702</speed>
  <fix>3d</fix>
</trkpt>
<trkpt lat="40.073773" lon="-105.2290896">
  <ele>1583.0</ele>
  <time>2026-08-28T17:52:43Z</time>
  <course>296.73</course>
  <speed>3.86</speed>
  <fix>3d</fix>
</trkpt>
<trkpt lat="40.073778" lon="-105.2291023">
  <ele>1583.0</ele>
  <time>2026-08-28T17:52:43Z</time>
  <course>298.03</course>
  <speed>3.439098719141397</speed>
  <fix>3d</fix>
</trkpt>
<trkpt lat="40.073773" lon="-105.2290896">
  <ele>1583.0</ele>
  <time>2026-08-28T17:52:43Z</time>
  <course>296.73</course>
  <speed>3.86</speed>
  <fix>3d</fix>
</trkpt>
<trkpt lat="40.0737793" lon="-105.2291058">
  <ele>1583.0</ele>
  <time>2026-08-28T17:52:43Z</time>
  <course>298.08</course>
  <speed>3.3138648131750936</speed>
  <fix>3d</fix>
</trkpt>
<trkpt lat="40.073776" lon="-105.2290974">
  <ele>1583.0</ele>
  <time>2026-08-28T17:52:43Z</time>
  <course>296.83</course>
  <speed>3.61</speed>
  <fix>3d</fix>
</trkpt>
<trkpt lat="40.0737806" lon="-105.2291092">
  <ele>1583.0</ele>
  <time>2026-08-28T17:52:43Z</time>
  <course>298.13</course>
  <speed>3.184211048281819</speed>
  <fix>3d</fix>
</trkpt>
<trkpt lat="40.0737788" lon="-105.2291047">
  <ele>1583.0</ele>
  <time>2026-08-28T17:52:43Z</time>
  <course>296.93</course>
  <speed>3.36</speed>
  <fix>3d</fix>
</trkpt>
<trkpt lat="40.0737819" lon="-105.2291125">
  <ele>1583.0</ele>
  <time>2026-08-28T17:52:43Z</time>
  <course>298.17</course>
  <speed>3.058970415025291</speed>
  <fix>3d</fix>
</trkpt>
<trkpt lat="40.0737788" lon="-105.2291047">
  <ele>1583.0</ele>
  <time>2026-08-28T17:52:43Z</time>
  <course>296.93</course>
  <speed>3.36</speed>
  <fix>3d</fix>
</trkpt>
<trkpt lat="40.0737831" lon="-105.2291156">
  <ele>1583.0</ele>
  <time>2026-08-28T17:52:43Z</time>
  <course>298.21</course>
  <speed>2.9248076859855248</speed>
  <fix>3d</fix>
</trkpt>
<trkpt lat="40.0737815" lon="-105.2291115">
  <ele>1583.0</ele>
  <time>2026-08-28T17:52:43Z</time>
  <course>297.02</course>
  <speed>3.1</speed>
  <fix>3d</fix>
</trkpt>
<trkpt lat="40.0737842" lon="-105.2291186">
  <ele>1583.0</ele>
  <time>2026-08-28T17:52:43Z</time>
  <course>298.25</course>
  <speed>2.804086303950005</speed>
  <fix>3d</fix>
</trkpt>
<trkpt lat="40.0737815" lon="-105.2291115">
  <ele>1583.0</ele>
  <time>2026-08-28T17:52:43Z</time>
  <course>297.02</course>
  <speed>3.1</speed>
  <fix>3d</fix>
</trkpt>
<trkpt lat="40.0737854" lon="-105.2291215">
  <ele>1583.01</ele>
  <time>2026-08-28T17:52:43Z</time>
  <course>298.29</course>
  <speed>2.6877685912295353</speed>
  <fix>3d</fix>
</trkpt>
<trkpt lat="40.0737839" lon="-105.2291177">
  <ele>1583.0</ele>
  <time>2026-08-28T17:52:43Z</time>
  <course>297.1</course>
  <speed>2.86</speed>
  <fix>3d</fix>
</trkpt>
<trkpt lat="40.0737864" lon="-105.2291242">
  <ele>1583.01</ele>
  <time>2026-08-28T17:52:43Z</time>
  <course>298.33</course>
  <speed>2.567041098229633</speed>
  <fix>3d</fix>
</trkpt>
<trkpt lat="40.0737839" lon="-105.2291177">
  <ele>1583.0</ele>
  <time>2026-08-28T17:52:43Z</time>
  <course>297.1</course>
  <speed>2.86</speed>
  <fix>3d</fix>
</trkpt>
<trkpt lat="40.0737875" lon="-105.2291269">
  <ele>1583.01</ele>
  <time>2026-08-28T17:52:43Z</time>
  <course>298.37</course>
  <speed>2.4463237725207185</speed>
  <fix>3d</fix>
</trkpt>
<trkpt lat="40.0737862" lon="-105.2291234">
  <ele>1583.0</ele>
  <time>2026-08-28T17:52:43Z</time>
  <course>297.17</course>
  <speed>2.62</speed>
  <fix>3d</fix>
</trkpt>
<trkpt lat="40.0737885" lon="-105.2291294">
  <ele>1583.01</ele>
  <time>2026-08-28T17:52:43Z</time>
  <course>298.42</course>
  <speed>2.3345235059857505</speed>
  <fix>3d</fix>
</trkpt>
<trkpt lat="40.0737862" lon="-105.2291234">
  <ele>1583.0</ele>
  <time>2026-08-28T17:52:43Z</time>
  <course>297.17</course>
  <speed>2.62</speed>
  <fix>3d</fix>
</trkpt>
<trkpt lat="40.0737894" lon="-105.2291318">
  <ele>1583.01</ele>
  <time>2026-08-28T17:52:43Z</time>
  <course>298.48</course>
  <speed>2.2227235545609356</speed>
  <fix>3d</fix>
</trkpt>
<trkpt lat="40.0737883" lon="-105.2291286">
  <ele>1583.0</ele>
  <time>2026-08-28T17:52:43Z</time>
  <course>297.26</course>
  <speed>2.39</speed>
  <fix>3d</fix>
</trkpt>
<trkpt lat="40.0737903" lon="-105.2291341">
  <ele>1583.01</ele>
  <time>2026-08-28T17:52:43Z</time>
  <course>298.54</course>
  <speed>2.110923968313402</speed>
  <fix>3d</fix>
</trkpt>
<trkpt lat="40.0737883" lon="-105.2291286">
  <ele>1583.0</ele>
  <time>2026-08-28T17:52:43Z</time>
  <course>297.26</course>
  <speed>2.39</speed>
  <fix>3d</fix>
</trkpt>
<trkpt lat="40.0737912" lon="-105.2291363">
  <ele>1583.01</ele>
  <time>2026-08-28T17:52:43Z</time>
  <course>298.59</course>
  <speed>1.999124808509964</speed>
  <fix>3d</fix>
</trkpt>
<trkpt lat="40.0737902" lon="-105.2291334">
  <ele>1583.0</ele>
  <time>2026-08-28T17:52:43Z</time>
  <course>297.38</course>
  <speed>2.17</speed>
  <fix>3d</fix>
</trkpt>
<trkpt lat="40.073792" lon="-105.2291383">
  <ele>1583.01</ele>
  <time>2026-08-28T17:52:43Z</time>
  <course>298.65</course>
  <speed>1.8962331080328705</speed>
  <fix>3d</fix>
</trkpt>
<trkpt lat="40.0737902" lon="-105.2291334">
  <ele>1583.0</ele>
  <time>2026-08-28T17:52:43Z</time>
  <course>297.38</course>
  <speed>2.17</speed>
  <fix>3d</fix>
</trkpt>
<trkpt lat="40.0737928" lon="-105.2291403">
  <ele>1583.01</ele>
  <time>2026-08-28T17:52:43Z</time>
  <course>298.7</course>
  <speed>1.7978876494375282</speed>
  <fix>3d</fix>
</trkpt>
<trkpt lat="40.0737919" lon="-105.2291378">
  <ele>1583.0</ele>
  <time>2026-08-28T17:52:43Z</time>
  <course>297.49</course>
  <speed>1.96</speed>
  <fix>3d</fix>
</trkpt>
<trkpt lat="40.0737935" lon="-105.2291421">
  <ele>1583.01</ele>
  <time>2026-08-28T17:52:43Z</time>
  <course>298.75</course>
  <speed>1.6949926253526886</speed>
  <fix>3d</fix>
</trkpt>
<trkpt lat="40.0737919" lon="-105.2291378">
  <ele>1583.0</ele>
  <time>2026-08-28T17:52:43Z</time>
  <course>297.49</course>
  <speed>1.96</speed>
  <fix>3d</fix>
</trkpt>
<trkpt lat="40.0737942" lon="-105.2291439">
  <ele>1583.01</ele>
  <time>2026-08-28T17:52:43Z</time>
  <course>298.82</course>
  <speed>1.5966527487215245</speed>
  <fix>3d</fix>
</trkpt>
<trkpt lat="40.0737919" lon="-105.2291378">
  <ele>1583.0</ele>
  <time>2026-08-28T17:52:43Z</time>
  <course>297.49</course>
  <speed>1.96</speed>
  <fix>3d</fix>
</trkpt>
<trkpt lat="40.0737948" lon="-105.2291455">
  <ele>1583.01</ele>
  <time>2026-08-28T17:52:43Z</time>
  <course>298.89</course>
  <speed>1.4937536610833797</speed>
  <fix>3d</fix>
</trkpt>
<trkpt lat="40.0737934" lon="-105.2291416">
  <ele>1583.0</ele>
  <time>2026-08-28T17:52:43Z</time>
  <course>297.6</course>
  <speed>1.76</speed>
  <fix>3d</fix>
</trkpt>
<trkpt lat="40.0737955" lon="-105.229147">
  <ele>1583.01</ele>
  <time>2026-08-28T17:52:43Z</time>
  <course>298.96</course>
  <speed>1.3954210834009928</speed>
  <fix>3d</fix>
</trkpt>
<trkpt lat="40.0737934" lon="-105.2291416">
  <ele>1583.0</ele>
  <time>2026-08-28T17:52:43Z</time>
  <course>297.6</course>
  <speed>1.76</speed>
  <fix>3d</fix>
</trkpt>
<trkpt lat="40.073796" lon="-105.2291484">
  <ele>1583.0</ele>
  <time>2026-08-28T17:52:43Z</time>
  <course>299.04</course>
  <speed>1.2971121771072847</speed>
  <fix>3d</fix>
</trkpt>
<trkpt lat="40.0737948" lon="-105.2291451">
  <ele>1583.0</ele>
  <time>2026-08-28T17:52:43Z</time>
  <course>297.73</course>
  <speed>1.56</speed>
  <fix>3d</fix>
</trkpt>
<trkpt lat="40.0737966" lon="-105.2291497">
  <ele>1583.0</ele>
  <time>2026-08-28T17:52:43Z</time>
  <course>299.13</course>
  <speed>1.194194289050153</speed>
  <fix>3d</fix>
</trkpt>
<trkpt lat="40.0737948" lon="-105.2291451">
  <ele>1583.0</ele>
  <time>2026-08-28T17:52:43Z</time>
  <course>297.73</course>
  <speed>1.56</speed>
  <fix>3d</fix>
</trkpt>
<trkpt lat="40.0737971" lon="-105.2291509">
  <ele>1583.0</ele>
  <time>2026-08-28T17:52:43Z</time>
  <course>299.23</course>
  <speed>1.0959014554237987</speed>
  <fix>3d</fix>
</trkpt>
<trkpt lat="40.073796" lon="-105.2291482">
  <ele>1583.0</ele>
  <time>2026-08-28T17:52:43Z</time>
  <course>297.88</course>
  <speed>1.36</speed>
  <fix>3d</fix>
</trkpt>
<trkpt lat="40.0737975" lon="-105.229152">
  <ele>1583.0</ele>
  <time>2026-08-28T17:52:43Z</time>
  <course>299.35</course>
  <speed>1.0064790112068907</speed>
  <fix>3d</fix>
</trkpt>
<trkpt lat="40.0737971" lon="-105.2291508">
  <ele>1583.0</ele>
  <time>2026-08-28T17:52:43Z</time>
  <course>298.07</course>
  <speed>1.17</speed>
  <fix>3d</fix>
</trkpt>
<trkpt lat="40.0737979" lon="-105.2291531">
  <ele>1583.0</ele>
  <time>2026-08-28T17:52:43Z</time>
  <course>299.48</course>
  <speed>0.9035485598461215</speed>
  <fix>3d</fix>
</trkpt>
<trkpt lat="40.0737971" lon="-105.2291508">
  <ele>1583.0</ele>
  <time>2026-08-28T17:52:43Z</time>
  <course>298.07</course>
  <speed>1.17</speed>
  <fix>3d</fix>
</trkpt>
<trkpt lat="40.0737983" lon="-105.229154">
  <ele>1583.0</ele>
  <time>2026-08-28T17:52:43Z</time>
  <course>299.62</course>
  <speed>0.8052949770115296</speed>
  <fix>3d</fix>
</trkpt>
<trkpt lat="40.073798" lon="-105.229153">
  <ele>1583.0</ele>
  <time>2026-08-28T17:52:43Z</time>
  <course>298.31</course>
  <speed>0.98</speed>
  <fix>3d</fix>
</trkpt>
<trkpt lat="40.0737987" lon="-105.2291548">
  <ele>1583.0</ele>
  <time>2026-08-28T17:52:43Z</time>
  <course>299.75</course>
  <speed>0.7158910531638176</speed>
  <fix>3d</fix>
</trkpt>
<trkpt lat="40.073798" lon="-105.229153">
  <ele>1583.0</ele>
  <time>2026-08-28T17:52:43Z</time>
  <course>298.31</course>
  <speed>0.98</speed>
  <fix>3d</fix>
</trkpt>
<trkpt lat="40.073799" lon="-105.2291555">
  <ele>1582.99</ele>
  <time>2026-08-28T17:52:43Z</time>
  <course>299.89</course>
  <speed>0.6129437168288782</speed>
  <fix>3d</fix>
</trkpt>
<trkpt lat="40.0737987" lon="-105.2291549">
  <ele>1583.0</ele>
  <time>2026-08-28T17:52:43Z</time>
  <course>298.58</course>
  <speed>0.78</speed>
  <fix>3d</fix>
</trkpt>
<trkpt lat="40.0737992" lon="-105.2291561">
  <ele>1582.99</ele>
  <time>2026-08-28T17:52:43Z</time>
  <course>300.03</course>
  <speed>0.523545604508337</speed>
  <fix>3d</fix>
</trkpt>
<trkpt lat="40.0737987" lon="-105.2291549">
  <ele>1583.0</ele>
  <time>2026-08-28T17:52:43Z</time>
  <course>298.58</course>
  <speed>0.78</speed>
  <fix>3d</fix>
</trkpt>
<trkpt lat="40.0737995" lon="-105.2291567">
  <ele>1582.99</ele>
  <time>2026-08-28T17:52:43Z</time>
  <course>300.16</course>
  <speed>0.4205948168962618</speed>
  <fix>3d</fix>
</trkpt>
<trkpt lat="40.0737993" lon="-105.2291563">
  <ele>1583.0</ele>
  <time>2026-08-28T17:52:43Z</time>
  <course>298.84</course>
  <speed>0.59</speed>
  <fix>3d</fix>
</trkpt>
<trkpt lat="40.0737996" lon="-105.2291571">
  <ele>1582.99</ele>
  <time>2026-08-28T17:52:43Z</time>
  <course>300.28</course>
  <speed>0.3312099032335839</speed>
  <fix>3d</fix>
</trkpt>
<trkpt lat="40.0737993" lon="-105.2291563">
  <ele>1583.0</ele>
  <time>2026-08-28T17:52:43Z</time>
  <course>298.84</course>
  <speed>0.59</speed>
  <fix>3d</fix>
</trkpt>
<trkpt lat="40.0737998" lon="-105.2291574">
  <ele>1582.99</ele>
  <time>2026-08-28T17:52:43Z</time>
  <course>300.38</course>
  <speed>0.23706539182259395</speed>
  <fix>3d</fix>
</trkpt>
<trkpt lat="40.0737998" lon="-105.2291573">
  <ele>1583.0</ele>
  <time>2026-08-28T17:52:43Z</time>
  <course>299.08</course>
  <speed>0.4</speed>
  <fix>3d</fix>
</trkpt>
<trkpt lat="40.0737999" lon="-105.2291577">
  <ele>1583.0</ele>
  <time>2026-08-28T17:52:43Z</time>
  <course>300.45</course>
  <speed>0.147648230602334</speed>
  <fix>3d</fix>
</trkpt>
<trkpt lat="40.0737998" lon="-105.2291573">
  <ele>1583.0</ele>
  <time>2026-08-28T17:52:43Z</time>
  <course>299.08</course>
  <speed>0.4</speed>
  <fix>3d</fix>
</trkpt>
<trkpt lat="40.0737999" lon="-105.2291578">
  <ele>1583.0</ele>
  <time>2026-08-28T17:52:43Z</time>
  <course>300.49</course>
  <speed>0.05830951894845301</speed>
  <fix>3d</fix>
</trkpt>
<trkpt lat="40.0738001" lon="-105.229158">
  <ele>1583.0</ele>
  <time>2026-08-28T17:52:43Z</time>
  <course>299.25</course>
  <speed>0.22</speed>
  <fix>3d</fix>
</trkpt>
<trkpt lat="40.0738" lon="-105.2291579">
  <ele>1583.0</ele>
  <time>2026-08-28T17:52:43Z</time>
  <course>300.51</course>
  <speed>0.01</speed>
  <fix>3d</fix>
</trkpt>
<trkpt lat="40.0738001" lon="-105.229158">
  <ele>1583.0</ele>
  <time>2026-08-28T17:52:43Z</time>
  <course>299.25</course>
  <speed>0.22</speed>
  <fix>3d</fix>
</trkpt>
<trkpt lat="40.0738" lon="-105.2291579">
  <ele>1583.01</ele>
  <time>2026-08-28T17:52:43Z</time>
  <course>300.5</course>
  <speed>0.08944271909999159</speed>
  <fix>3d</fix>
</trkpt>
<trkpt lat="40.0738002" lon="-105.2291582">
  <ele>1583.0</ele>
  <time>2026-08-28T17:52:43Z</time>
  <course>299.35</course>
  <speed>0.05</speed>
  <fix>3d</fix>
</trkpt>
<trkpt lat="40.0738" lon="-105.2291579">
  <ele>1583.01</ele>
  <time>2026-08-28T17:52:43Z</time>
  <course>300.51</course>
  <speed>0.15652475842498528</speed>
  <fix>3d</fix>
</trkpt>
<trkpt lat="40.0738002" lon="-105.2291582">
  <ele>1583.0</ele>
  <time>2026-08-28T17:52:43Z</time>
  <course>299.35</course>
  <speed>0.05</speed>
  <fix>3d</fix>
</trkpt>
<trkpt lat="40.0738" lon="-105.2291577">
  <ele>1583.01</ele>
  <time>2026-08-28T17:52:43Z</time>
  <course>300.53</course>
  <speed>0.21470910553583888</speed>
  <fix>3d</fix>
</trkpt>
<trkpt lat="40.0738002" lon="-105.2291582">
  <ele>1583.0</ele>
  <time>2026-08-28T17:52:43Z</time>
  <course>299.35</course>
  <speed>0.05</speed>
  <fix>3d</fix>
</trkpt>
<trkpt lat="40.0737999" lon="-105.2291575">
  <ele>1583.0</ele>
  <time>2026-08-28T17:52:43Z</time>
  <course>300.54</course>
  <speed>0.25942243542145693</speed>
  <fix>3d</fix>
</trkpt>
<trkpt lat="40.0738002" lon="-105.2291582">
  <ele>1583.0</ele>
  <time>2026-08-28T17:52:43Z</time>
  <course>119.33</course>
  <speed>0.08</speed>
  <fix>3d</fix>
</trkpt>
<trkpt lat="40.0737998" lon="-105.2291572">
  <ele>1583.0</ele>
  <time>2026-08-28T17:52:43Z</time>
  <course>300.55</course>
  <speed>0.2906888370749727</speed>
  <fix>3d</fix>
</trkpt>
<trkpt lat="40.0738002" lon="-105.2291582">
  <ele>1583.0</ele>
  <time>2026-08-28T17:52:43Z</time>
  <course>119.33</course>
  <speed>0.08</speed>
  <fix>3d</fix>
</trkpt>
<trkpt lat="40.0737997" lon="-105.2291569">
  <ele>1583.0</ele>
  <time>2026-08-28T17:52:43Z</time>
  <course>300.55</course>
  <speed>0.32202484376209234</speed>
  <fix>3d</fix>
</trkpt>
<trkpt lat="40.0738001" lon="-105.2291579">
  <ele>1583.0</ele>
  <time>2026-08-28T17:52:43Z</time>
  <course>119.36</course>
  <speed>0.19</speed>
  <fix>3d</fix>
</trkpt>
<trkpt lat="40.0737996" lon="-105.2291566">
  <ele>1583.0</ele>
  <time>2026-08-28T17:52:43Z</time>
  <course>300.55</course>
  <speed>0.33541019662496846</speed>
  <fix>3d</fix>
</trkpt>
<trkpt lat="40.0738001" lon="-105.2291579">
  <ele>1583.0</ele>
  <time>2026-08-28T17:52:43Z</time>
  <course>119.36</course>
  <speed>0.19</speed>
  <fix>3d</fix>
</trkpt>
<trkpt lat="40.0737995" lon="-105.2291563">
  <ele>1583.0</ele>
  <time>2026-08-28T17:52:43Z</time>
  <course>300.53</course>
  <speed>0.34438350715445126</speed>
  <fix>3d</fix>
</trkpt>
<trkpt lat="40.0738" lon="-105.2291575">
  <ele>1583.0</ele>
  <time>2026-08-28T17:52:43Z</time>
  <course>119.36</course>
  <speed>0.26</speed>
  <fix>3d</fix>
</trkpt>
<trkpt lat="40.0737994" lon="-105.229156">
  <ele>1583.0</ele>
  <time>2026-08-28T17:52:43Z</time>
  <course>300.5</course>
  <speed>0.34438350715445126</speed>
  <fix>3d</fix>
</trkpt>
<trkpt lat="40.0737997" lon="-105.2291569">
  <ele>1583.0</ele>
  <time>2026-08-28T17:52:43Z</time>
  <course>119.34</course>
  <speed>0.28</speed>
  <fix>3d</fix>
</trkpt>
<trkpt lat="40.0737992" lon="-105.2291557">
  <ele>1583.0</ele>
  <time>2026-08-28T17:52:43Z</time>
  <course>300.47</course>
  <speed>0.340147027033899</speed>
  <fix>3d</fix>
</trkpt>
<trkpt lat="40.0737997" lon="-105.2291569">
  <ele>1583.0</ele>
  <time>2026-08-28T17:52:43Z</time>
  <course>119.34</course>
  <speed>0.28</speed>
  <fix>3d</fix>
</trkpt>
<trkpt lat="40.0737991" lon="-105.2291554">
  <ele>1583.0</ele>
  <time>2026-08-28T17:52:43Z</time>
  <course>300.42</course>
  <speed>0.32695565448543634</speed>
  <fix>3d</fix>
</trkpt>
<trkpt lat="40.0737994" lon="-105.2291563">
  <ele>1583.0</ele>
  <time>2026-08-28T17:52:43Z</time>
  <course>119.27</course>
  <speed>0.28</speed>
  <fix>3d</fix>
</trkpt>
<trkpt lat="40.073799" lon="-105.2291551">
  <ele>1583.0</ele>
  <time>2026-08-28T17:52:43Z</time>
  <course>300.36</course>
  <speed>0.30463092423455634</speed>
  <fix>3d</fix>
</trkpt>
<trkpt lat="40.0737994" lon="-105.2291563">
  <ele>1583.0</ele>
  <time>2026-08-28T17:52:43Z</time>
  <course>119.27</course>
  <speed>0.28</speed>
  <fix>3d</fix>
</trkpt>
<trkpt lat="40.0737989" lon="-105.2291549">
  <ele>1583.0</ele>
  <time>2026-08-28T17:52:43Z</time>
  <course>300.31</course>
  <speed>0.2823118842698621</speed>
  <fix>3d</fix>
</trkpt>
<trkpt lat="40.0737991" lon="-105.2291558">
  <ele>1583.0</ele>
  <time>2026-08-28T17:52:43Z</time>
  <course>119.17</course>
  <speed>0.26</speed>
  <fix>3d</fix>
</trkpt>
<trkpt lat="40.0737989" lon="-105.2291546">
  <ele>1583.0</ele>
  <time>2026-08-28T17:52:43Z</time>
  <course>300.25</course>
  <speed>0.26</speed>
  <fix>3d</fix>
</trkpt>
<trkpt lat="40.0737991" lon="-105.2291558">
  <ele>1583.0</ele>
  <time>2026-08-28T17:52:43Z</time>
  <course>119.17</course>
  <speed>0.26</speed>
  <fix>3d</fix>
</trkpt>
<trkpt lat="40.0737988" lon="-105.2291544">
  <ele>1583.0</ele>
  <time>2026-08-28T17:52:43Z</time>
  <course>300.2</course>
  <speed>0.2340939982143925</speed>
  <fix>3d</fix>
</trkpt>
<trkpt lat="40.0737989" lon="-105.2291553">
  <ele>1583.0</ele>
  <time>2026-08-28T17:52:43Z</time>
  <course>119.06</course>
  <speed>0.21</speed>
  <fix>3d</fix>
</trkpt>
<trkpt lat="40.0737987" lon="-105.2291542">
  <ele>1583.0</ele>
  <time>2026-08-28T17:52:43Z</time>
  <course>300.2</course>
  <speed>0.21189620100417092</speed>
  <fix>3d</fix>
</trkpt>
<trkpt lat="40.0737989" lon="-105.2291553">
  <ele>1583.0</ele>
  <time>2026-08-28T17:52:43Z</time>
  <course>119.06</course>
  <speed>0.21</speed>
  <fix>3d</fix>
</trkpt>
<trkpt lat="40.0737987" lon="-105.2291541">
  <ele>1583.0</ele>
  <time>2026-08-28T17:52:43Z</time>
  <course>300.2</course>
  <speed>0.18681541692269404</speed>
  <fix>3d</fix>
</trkpt>
<trkpt lat="40.0737988" lon="-105.2291549">
  <ele>1583.0</ele>
  <time>2026-08-28T17:52:43Z</time>
  <course>119.0</course>
  <speed>0.17</speed>
  <fix>3d</fix>
</trkpt>
<trkpt lat="40.0737986" lon="-105.229154">
  <ele>1583.0</ele>
  <time>2026-08-28T17:52:43Z</time>
  <course>300.2</course>
  <speed>0.15524174696260024</speed>
  <fix>3d</fix>
</trkpt>
<trkpt lat="40.0737988" lon="-105.2291549">
  <ele>1583.0</ele>
  <time>2026-08-28T17:52:43Z</time>
  <course>119.0</course>
  <speed>0.17</speed>
  <fix>3d</fix>
</trkpt>
<trkpt lat="40.0737986" lon="-105.2291538">
  <ele>1583.0</ele>
  <time>2026-08-28T17:52:43Z</time>
  <course>300.2</course>
  <speed>0.13152946437965907</speed>
  <fix>3d</fix>
</trkpt>
<trkpt lat="40.0737987" lon="-105.2291545">
  <ele>1583.0</ele>
  <time>2026-08-28T17:52:43Z</time>
  <course>118.99</course>
  <speed>0.12</speed>
  <fix>3d</fix>
</trkpt>
<trkpt lat="40.0737986" lon="-105.2291538">
  <ele>1583.01</ele>
  <time>2026-08-28T17:52:43Z</time>
  <course>300.2</course>
  <speed>0.11045361017187261</speed>
  <fix>3d</fix>
</trkpt>
<trkpt lat="40.0737987" lon="-105.2291545">
  <ele>1583.0</ele>
  <time>2026-08-28T17:52:43Z</time>
  <course>118.99</course>
  <speed>0.12</speed>
  <fix>3d</fix>
</trkpt>
<trkpt lat="40.0737986" lon="-105.2291537">
  <ele>1583.01</ele>
  <time>2026-08-28T17:52:43Z</time>
  <course>300.19</course>
  <speed>0.09</speed>
  <fix>3d</fix>
</trkpt>
<trkpt lat="40.0737986" lon="-105.2291544">
  <ele>1583.0</ele>
  <time>2026-08-28T17:52:43Z</time>
  <course>118.98</course>
  <speed>0.07</speed>
  <fix>3d</fix>
</trkpt>
<trkpt lat="40.0737986" lon="-105.2291537">
  <ele>1583.01</ele>
  <time>2026-08-28T17:52:43Z</time>
  <course>300.18</course>
  <speed>0.07071067811865475</speed>
  <fix>3d</fix>
</trkpt>
<trkpt lat="40.0737986" lon="-105.2291544">
  <ele>1583.0</ele>
  <time>2026-08-28T17:52:43Z</time>
  <course>118.98</course>
  <speed>0.07</speed>
  <fix>3d</fix>
</trkpt>
<trkpt lat="40.0737986" lon="-105.2291537">
  <ele>1583.02</ele>
  <time>2026-08-28T17:52:43Z</time>
  <course>300.17</course>
  <speed>0.0632455532033676</speed>
  <fix>3d</fix>
</trkpt>
<trkpt lat="40.0737986" lon="-105.2291544">
  <ele>1583.0</ele>
  <time>2026-08-28T17:52:43Z</time>
  <course>118.98</course>
  <speed>0.07</speed>
  <fix>3d</fix>
</trkpt>
<trkpt lat="40.0737986" lon="-105.2291537">
  <ele>1583.02</ele>
  <time>2026-08-28T17:52:43Z</time>
  <course>300.16</course>
  <speed>0.05</speed>
  <fix>3d</fix>
</trkpt>
<trkpt lat="40.0737985" lon="-105.2291542">
  <ele>1583.0</ele>
  <time>2026-08-28T17:52:43Z</time>
  <course>118.95</course>
  <speed>0.03</speed>
  <fix>3d</fix>
</trkpt>
<trkpt lat="40.0737986" lon="-105.2291537">
  <ele>1583.02</ele>
  <time>2026-08-28T17:52:43Z</time>
  <course>300.16</course>
  <speed>0.0412310562561766</speed>
  <fix>3d</fix>
</trkpt>
<trkpt lat="40.0737985" lon="-105.2291542">
  <ele>1583.0</ele>
  <time>2026-08-28T17:52:43Z</time>
  <course>118.95</course>
  <speed>0.03</speed>
  <fix>3d</fix>
</trkpt>
<trkpt lat="40.0737986" lon="-105.2291538">
  <ele>1583.02</ele>
  <time>2026-08-28T17:52:43Z</time>
  <course>300.16</course>
  <speed>0.06</speed>
  <fix>3d</fix>
</trkpt>
<trkpt lat="40.0737985" lon="-105.2291542">
  <ele>1583.0</ele>
  <time>2026-08-28T17:52:43Z</time>
  <course>299.34</course>
  <speed>0.0</speed>
  <fix>3d</fix>
</trkpt>
<trkpt lat="40.0737987" lon="-105.2291538">
  <ele>1583.02</ele>
  <time>2026-08-28T17:52:43Z</time>
  <course>300.15</course>
  <speed>0.0854400374531753</speed>
  <fix>3d</fix>
</trkpt>
<trkpt lat="40.0737985" lon="-105.2291542">
  <ele>1583.0</ele>
  <time>2026-08-28T17:52:43Z</time>
  <course>299.34</course>
  <speed>0.0</speed>
  <fix>3d</fix>
</trkpt>
<trkpt lat="40.0737987" lon="-105.229154">
  <ele>1583.02</ele>
  <time>2026-08-28T17:52:43Z</time>
  <course>300.15</course>
  <speed>0.10816653826391968</speed>
  <fix>3d</fix>
</trkpt>
<trkpt lat="40.0737985" lon="-105.2291543">
  <ele>1583.0</ele>
  <time>2026-08-28T17:52:43Z</time>
  <course>299.0</course>
  <speed>0.05</speed>
  <fix>3d</fix>
</trkpt>
<trkpt lat="40.0737988" lon="-105.229154">
  <ele>1583.03</ele>
  <time>2026-08-28T17:52:43Z</time>
  <course>300.15</course>
  <speed>0.15620499351813308</speed>
  <fix>3d</fix>
</trkpt>
<trkpt lat="40.0737985" lon="-105.2291543">
  <ele>1583.0</ele>
  <time>2026-08-28T17:52:43Z</time>
  <course>299.0</course>
  <speed>0.05</speed>
  <fix>3d</fix>
</trkpt>
<trkpt lat="40.0737989" lon="-105.2291542">
  <ele>1583.03</ele>
  <time>2026-08-28T17:52:43Z</time>
  <course>300.16</course>
  <speed>0.1979898987322333</speed>
  <fix>3d</fix>
</trkpt>
<trkpt lat="40.0737986" lon="-105.2291544">
  <ele>1583.0</ele>
  <time>2026-08-28T17:52:43Z</time>
  <course>298.99</course>
  <speed>0.12</speed>
  <fix>3d</fix>
</trkpt>
<trkpt lat="40.073799" lon="-105.2291545">
  <ele>1583.03</ele>
  <time>2026-08-28T17:52:43Z</time>
  <course>300.2</course>
  <speed>0.24083189157584592</speed>
  <fix>3d</fix>
</trkpt>
<trkpt lat="40.0737987" lon="-105.2291547">
  <ele>1583.0</ele>
  <time>2026-08-28T17:52:43Z</time>
  <course>299.03</course>
  <speed>0.2</speed>
  <fix>3d</fix>
</trkpt>
<trkpt lat="40.0737992" lon="-105.2291548">
  <ele>1583.03</ele>
  <time>2026-08-28T17:52:43Z</time>
  <course>300.24</course>
  <speed>0.29832867780352595</speed>
  <fix>3d</fix>
</trkpt>
<trkpt lat="40.0737987" lon="-105.2291547">
  <ele>1583.0</ele>
  <time>2026-08-28T17:52:43Z</time>
  <course>299.03</course>
  <speed>0.2</speed>
  <fix>3d</fix>
</trkpt>
<trkpt lat="40.0737993" lon="-105.2291552">
  <ele>1583.03</ele>
  <time>2026-08-28T17:52:43Z</time>
  <course>300.32</course>
  <speed>0.35608987629529715</speed>
  <fix>3d</fix>
</trkpt>
<trkpt lat="40.0737989" lon="-105.2291553">
  <ele>1583.0</ele>
  <time>2026-08-28T17:52:43Z</time>
  <course>299.13</course>
  <speed>0.3</speed>
  <fix>3d</fix>
</trkpt>
<trkpt lat="40.0737995" lon="-105.2291556">
  <ele>1583.03</ele>
  <time>2026-08-28T17:52:43Z</time>
  <course>300.43</course>
  <speed>0.4</speed>
  <fix>3d</fix>
</trkpt>
<trkpt lat="40.0737989" lon="-105.2291553">
  <ele>1583.0</ele>
  <time>2026-08-28T17:52:43Z</time>
  <course>299.13</course>
  <speed>0.3</speed>
  <fix>3d</fix>
</trkpt>
<trkpt lat="40.0737997" lon="-105.2291561">
  <ele>1583.03</ele>
  <time>2026-08-28T17:52:43Z</time>
  <course>300.58</course>
  <speed>0.45803929962395146</speed>
  <fix>3d</fix>
</trkpt>
<trkpt lat="40.0737992" lon="-105.2291559">
  <ele>1583.0</ele>
  <time>2026-08-28T17:52:43Z</time>
  <course>299.34</course>
  <speed>0.41</speed>
  <fix>3d</fix>
</trkpt>
<trkpt lat="40.0737999" lon="-105.2291566">
  <ele>1583.03</ele>
  <time>2026-08-28T17:52:43Z</time>
  <course>300.77</course>
  <speed>0.5161395160225576</speed>
  <fix>3d</fix>
</trkpt>
<trkpt lat="40.0737992" lon="-105.2291559">
  <ele>1583.0</ele>
  <time>2026-08-28T17:52:43Z</time>
  <course>299.34</course>
  <speed>0.41</speed>
  <fix>3d</fix>
</trkpt>
<trkpt lat="40.0738002" lon="-105.2291572">
  <ele>1583.03</ele>
  <time>2026-08-28T17:52:43Z</time>
  <course>301.03</course>
  <speed>0.5800862004909271</speed>
  <fix>3d</fix>
</trkpt>
<trkpt lat="40.0737996" lon="-105.2291569">
  <ele>1583.0</ele>
  <time>2026-08-28T17:52:43Z</time>
  <course>299.72</course>
  <speed>0.52</speed>
  <fix>3d</fix>
</trkpt>
<trkpt lat="40.0738005" lon="-105.2291578">
  <ele>1583.03</ele>
  <time>2026-08-28T17:52:43Z</time>
  <course>301.35</course>
  <speed>0.638200595424354</speed>
  <fix>3d</fix>
</trkpt>
<trkpt lat="40.0737996" lon="-105.2291569">
  <ele>1583.0</ele>
  <time>2026-08-28T17:52:43Z</time>
  <course>299.72</course>
  <speed>0.52</speed>
  <fix>3d</fix>
</trkpt>
<trkpt lat="40.0738008" lon="-105.2291585">
  <ele>1583.03</ele>
  <time>2026-08-28T17:52:43Z</time>
  <course>301.74</course>
  <speed>0.6963476143421474</speed>
  <fix>3d</fix>
</trkpt>
<trkpt lat="40.0738001" lon="-105.2291581">
  <ele>1583.0</ele>
  <time>2026-08-28T17:52:43Z</time>
  <course>300.32</course>
  <speed>0.63</speed>
  <fix>3d</fix>
</trkpt>
<trkpt lat="40.0738011" lon="-105.2291593">
  <ele>1583.03</ele>
  <time>2026-08-28T17:52:43Z</time>
  <course>302.24</course>
  <speed>0.7463243262818117</speed>
  <fix>3d</fix>
</trkpt>
<trkpt lat="40.0738001" lon="-105.2291581">
  <ele>1583.0</ele>
  <time>2026-08-28T17:52:43Z</time>
  <course>300.32</course>
  <speed>0.63</speed>
  <fix>3d</fix>
</trkpt>
<trkpt lat="40.0738015" lon="-105.2291601">
  <ele>1583.03</ele>
  <time>2026-08-28T17:52:43Z</time>
  <course>302.86</course>
  <speed>0.802122185206219</speed>
  <fix>3d</fix>
</trkpt>
<trkpt lat="40.0738008" lon="-105.2291595">
  <ele>1583.0</ele>
  <time>2026-08-28T17:52:43Z</time>
  <course>301.26</course>
  <speed>0.74</speed>
  <fix>3d</fix>
</trkpt>
<trkpt lat="40.0738019" lon="-105.2291609">
  <ele>1583.03</ele>
  <time>2026-08-28T17:52:43Z</time>
  <course>303.64</course>
  <speed>0.8521150157109073</speed>
  <fix>3d</fix>
</trkpt>
<trkpt lat="40.0738008" lon="-105.2291595">
  <ele>1583.0</ele>
  <time>2026-08-28T17:52:43Z</time>
  <course>301.26</course>
  <speed>0.74</speed>
  <fix>3d</fix>
</trkpt>
<trkpt lat="40.0738024" lon="-105.2291618">
  <ele>1583.03</ele>
  <time>2026-08-28T17:52:43Z</time>
  <course>304.6</course>
  <speed>0.9</speed>
  <fix>3d</fix>
</trkpt>
<trkpt lat="40.0738015" lon="-105.2291611">
  <ele>1583.0</ele>
  <time>2026-08-28T17:52:43Z</time>
  <course>302.72</course>
  <speed>0.84</speed>
  <fix>3d</fix>
</trkpt>
<trkpt lat="40.0738028" lon="-105.2291628">
  <ele>1583.03</ele>
  <time>2026-08-28T17:52:43Z</time>
  <course>305.81</course>
  <speed>0.9481033698917013</speed>
  <fix>3d</fix>
</trkpt>
<trkpt lat="40.0738015" lon="-105.2291611">
  <ele>1583.0</ele>
  <time>2026-08-28T17:52:43Z</time>
  <course>302.72</course>
  <speed>0.84</speed>
  <fix>3d</fix>
</trkpt>
<trkpt lat="40.0738034" lon="-105.2291637">
  <ele>1583.03</ele>
  <time>2026-08-28T17:52:43Z</time>
  <course>307.34</course>
  <speed>0.9948869282486327</speed>
  <fix>3d</fix>
</trkpt>
<trkpt lat="40.0738015" lon="-105.2291611">
  <ele>1583.0</ele>
  <time>2026-08-28T17:52:43Z</time>
  <course>302.72</course>
  <speed>0.84</speed>
  <fix>3d</fix>
</trkpt>
<trkpt lat="40.0738039" lon="-105.2291647">
  <ele>1583.02</ele>
  <time>2026-08-28T17:52:43Z</time>
  <course>309.21</course>
  <speed>1.0347946656221223</speed>
  <fix>3d</fix>
</trkpt>
<trkpt lat="40.0738025" lon="-105.2291629">
  <ele>1583.0</ele>
  <time>2026-08-28T17:52:43Z</time>
  <course>305.0</course>
  <speed>0.94</speed>
  <fix>3d</fix>
</trkpt>
<trkpt lat="40.0738045" lon="-105.2291656">
  <ele>1583.02</ele>
  <time>2026-08-28T17:52:43Z</time>
  <course>311.47</course>
  <speed>1.082450922675019</speed>
  <fix>3d</fix>
</trkpt>
<trkpt lat="40.0738025" lon="-105.2291629">
  <ele>1583.0</ele>
  <time>2026-08-28T17:52:43Z</time>
  <course>305.0</course>
  <speed>0.94</speed>
  <fix>3d</fix>
</trkpt>
<trkpt lat="40.0738052" lon="-105.2291666">
  <ele>1583.02</ele>
  <time>2026-08-28T17:52:43Z</time>
  <course>314.13</course>
  <speed>1.1173182178770737</speed>
  <fix>3d</fix>
</trkpt>
<trkpt lat="40.0738035" lon="-105.2291647">
  <ele>1583.0</ele>
  <time>2026-08-28T17:52:43Z</time>
  <course>308.48</course>
  <speed>1.02</speed>
  <fix>3d</fix>
</trkpt>
<trkpt lat="40.0738059" lon="-105.2291675">
  <ele>1583.02</ele>
  <time>2026-08-28T17:52:43Z</time>
  <course>317.23</course>
  <speed>1.1476933388322859</speed>
  <fix>3d</fix>
</trkpt>
<trkpt lat="40.0738035" lon="-105.2291647">
  <ele>1583.0</ele>
  <time>2026-08-28T17:52:43Z</time>
  <course>308.48</course>
  <speed>1.02</speed>
  <fix>3d</fix>
</trkpt>
<trkpt lat="40.0738067" lon="-105.2291684">
  <ele>1583.02</ele>
  <time>2026-08-28T17:52:43Z</time>
  <course>320.83</course>
  <speed>1.182285921425101</speed>
  <fix>3d</fix>
</trkpt>
<trkpt lat="40.0738048" lon="-105.2291666">
  <ele>1583.0</ele>
  <time>2026-08-28T17:52:43Z</time>
  <course>313.46</course>
  <speed>1.1</speed>
  <fix>3d</fix>
</trkpt>
<trkpt lat="40.0738075" lon="-105.2291693">
  <ele>1583.02</ele>
  <time>2026-08-28T17:52:43Z</time>
  <course>324.99</course>
  <speed>1.2175795661885922</speed>
  <fix>3d</fix>
</trkpt>
<trkpt lat="40.0738063" lon="-105.2291684">
  <ele>1583.0</ele>
  <time>2026-08-28T17:52:43Z</time>
  <course>320.25</course>
  <speed>1.16</speed>
  <fix>3d</fix>
</trkpt>
<trkpt lat="40.0738084" lon="-105.2291701">
  <ele>1583.02</ele>
  <time>2026-08-28T17:52:43Z</time>
  <course>329.71</course>
  <speed>1.2490796611905903</speed>
  <fix>3d</fix>
</trkpt>
<trkpt lat="40.0738063" lon="-105.2291684">
  <ele>1583.0</ele>
  <time>2026-08-28T17:52:43Z</time>
  <course>320.25</course>
  <speed>1.16</speed>
  <fix>3d</fix>
</trkpt>
<trkpt lat="40.0738094" lon="-105.2291708">
  <ele>1583.01</ele>
  <time>2026-08-28T17:52:43Z</time>
  <course>335.05</course>
  <speed>1.2712198865656563</speed>
  <fix>3d</fix>
</trkpt>
<trkpt lat="40.073808" lon="-105.22917">
  <ele>1583.0</ele>
  <time>2026-08-28T17:52:43Z</time>
  <course>329.17</course>
  <speed>1.22</speed>
  <fix>3d</fix>
</trkpt>
<trkpt lat="40.0738105" lon="-105.2291713">
  <ele>1583.01</ele>
  <time>2026-08-28T17:52:43Z</time>
  <course>340.98</course>
  <speed>1.3029197979921863</speed>
  <fix>3d</fix>
</trkpt>
<trkpt lat="40.073808" lon="-105.22917">
  <ele>1583.0</ele>
  <time>2026-08-28T17:52:43Z</time>
  <course>329.17</course>
  <speed>1.22</speed>
  <fix>3d</fix>
</trkpt>
<trkpt lat="40.0738116" lon="-105.2291717">
  <ele>1583.01</ele>
  <time>2026-08-28T17:52:43Z</time>
  <course>347.59</course>
  <speed>1.327742444904131</speed>
  <fix>3d</fix>
</trkpt>
<trkpt lat="40.07381" lon="-105.2291713">
  <ele>1583.0</ele>
  <time>2026-08-28T17:52:43Z</time>
  <course>340.53</course>
  <speed>1.27</speed>
  <fix>3d</fix>
</trkpt>
<trkpt lat="40.0738128" lon="-105.229172">
  <ele>1583.01</ele>
  <time>2026-08-28T17:52:43Z</time>
  <course>354.83</course>
  <speed>1.3536986370680884</speed>
  <fix>3d</fix>
</trkpt>
<trkpt lat="40.07381" lon="-105.2291713">
  <ele>1583.0</ele>
  <time>2026-08-28T17:52:43Z</time>
  <course>340.53</course>
  <speed>1.27</speed>
  <fix>3d</fix>
</trkpt>
<trkpt lat="40.073814" lon="-105.229172">
  <ele>1583.01</ele>
  <time>2026-08-28T17:52:43Z</time>
  <course>2.62</course>
  <speed>1.3717871555019021</speed>
  <fix>3d</fix>
</trkpt>
<trkpt lat="40.0738123" lon="-105.229172">
  <ele>1583.0</ele>
  <time>2026-08-28T17:52:43Z</time>
  <course>354.35</course>
  <speed>1.31</speed>
  <fix>3d</fix>
</trkpt>
<trkpt lat="40.0738152" lon="-105.2291718">
  <ele>1583.01</ele>
  <time>2026-08-28T17:52:43Z</time>
  <course>10.99</course>
  <speed>1.3865424623862048</speed>
  <fix>3d</fix>
</trkpt>
<trkpt lat="40.0738123" lon="-105.229172">
  <ele>1583.0</ele>
  <time>2026-08-28T17:52:43Z</time>
  <course>354.35</course>
  <speed>1.31</speed>
  <fix>3d</fix>
</trkpt>
<trkpt lat="40.0738164" lon="-105.2291713">
  <ele>1583.01</ele>
  <time>2026-08-28T17:52:43Z</time>
  <course>19.68</course>
  <speed>1.404563989286355</speed>
  <fix>3d</fix>
</trkpt>
<trkpt lat="40.0738147" lon="-105.2291719">
  <ele>1583.0</ele>
  <time>2026-08-28T17:52:43Z</time>
  <course>10.36</course>
  <speed>1.35</speed>
  <fix>3d</fix>
</trkpt>
<trkpt lat="40.0738176" lon="-105.2291706">
  <ele>1583.01</ele>
  <time>2026-08-28T17:52:43Z</time>
  <course>28.55</course>
  <speed>1.4142135623730951</speed>
  <fix>3d</fix>
</trkpt>
<trkpt lat="40.0738147" lon="-105.2291719">
  <ele>1583.0</ele>
  <time>2026-08-28T17:52:43Z</time>
  <course>10.36</course>
  <speed>1.35</speed>
  <fix>3d</fix>
</trkpt>
<trkpt lat="40.0738186" lon="-105.2291697">
  <ele>1583.01</ele>
  <time>2026-08-28T17:52:43Z</time>
  <course>37.51</course>
  <speed>1.4261135999632006</speed>
  <fix>3d</fix>
</trkpt>
<trkpt lat="40.073817" lon="-105.2291709">
  <ele>1583.0</ele>
  <time>2026-08-28T17:52:43Z</time>
  <course>27.74</course>
  <speed>1.38</speed>
  <fix>3d</fix>
</trkpt>
<trkpt lat="40.0738196" lon="-105.2291686">
  <ele>1583.0</ele>
  <time>2026-08-28T17:52:43Z</time>
  <course>46.43</course>
  <speed>1.4289856542316999</speed>
  <fix>3d</fix>
</trkpt>
<trkpt lat="40.073817" lon="-105.2291709">
  <ele>1583.0</ele>
  <time>2026-08-28T17:52:43Z</time>
  <course>27.74</course>
  <speed>1.38</speed>
  <fix>3d</fix>
</trkpt>
<trkpt lat="40.0738204" lon="-105.2291673">
  <ele>1583.0</ele>
  <time>2026-08-28T17:52:43Z</time>
  <course>55.14</course>
  <speed>1.4369411957348845</speed>
  <fix>3d</fix>
</trkpt>
<trkpt lat="40.073819" lon="-105.229169">
  <ele>1583.0</ele>
  <time>2026-08-28T17:52:43Z</time>
  <course>45.43</course>
  <speed>1.4</speed>
  <fix>3d</fix>
</trkpt>
<trkpt lat="40.073821" lon="-105.2291658">
  <ele>1583.0</ele>
  <time>2026-08-28T17:52:43Z</time>
  <course>63.48</course>
  <speed>1.4400347218036098</speed>
  <fix>3d</fix>
</trkpt>
<trkpt lat="40.073819" lon="-105.229169">
  <ele>1583.0</ele>
  <time>2026-08-28T17:52:43Z</time>
  <course>45.43</course>
  <speed>1.4</speed>
  <fix>3d</fix>
</trkpt>
<trkpt lat="40.0738214" lon="-105.2291642">
  <ele>1583.0</ele>
  <time>2026-08-28T17:52:43Z</time>
  <course>71.32</course>
  <speed>1.432515270424717</speed>
  <fix>3d</fix>
</trkpt>
<trkpt lat="40.073819" lon="-105.229169">
  <ele>1583.0</ele>
  <time>2026-08-28T17:52:43Z</time>
  <course>45.43</course>
  <speed>1.4</speed>
  <fix>3d</fix>
</trkpt>
<trkpt lat="40.0738217" lon="-105.2291626">
  <ele>1583.0</ele>
  <time>2026-08-28T17:52:43Z</time>
  <course>78.55</course>
  <speed>1.4375326083258075</speed>
  <fix>3d</fix>
</trkpt>
<trkpt lat="40.0738204" lon="-105.2291663">
  <ele>1583.0</ele>
  <time>2026-08-28T17:52:43Z</time>
  <course>62.32</course>
  <speed>1.41</speed>
  <fix>3d</fix>
</trkpt>
<trkpt lat="40.0738219" lon="-105.229161">
  <ele>1583.01</ele>
  <time>2026-08-28T17:52:43Z</time>
  <course>85.12</course>
  <speed>1.424254190796011</speed>
  <fix>3d</fix>
</trkpt>
<trkpt lat="40.0738204" lon="-105.2291663">
  <ele>1583.0</ele>
  <time>2026-08-28T17:52:43Z</time>
  <course>62.32</course>
  <speed>1.41</speed>
  <fix>3d</fix>
</trkpt>
<trkpt lat="40.0738219" lon="-105.2291593">
  <ele>1583.01</ele>
  <time>2026-08-28T17:52:43Z</time>
  <course>91.0</course>
  <speed>1.4201408380861387</speed>
  <fix>3d</fix>
</trkpt>
<trkpt lat="40.0738214" lon="-105.2291632">
  <ele>1583.0</ele>
  <time>2026-08-28T17:52:43Z</time>
  <course>77.32</course>
  <speed>1.41</speed>
  <fix>3d</fix>
</trkpt>
<trkpt lat="40.0738218" lon="-105.2291577">
  <ele>1583.01</ele>
  <time>2026-08-28T17:52:43Z</time>
  <course>96.2</course>
  <speed>1.417956275771577</speed>
  <fix>3d</fix>
</trkpt>
<trkpt lat="40.0738214" lon="-105.2291632">
  <ele>1583.0</ele>
  <time>2026-08-28T17:52:43Z</time>
  <course>77.32</course>
  <speed>1.41</speed>
  <fix>3d</fix>
</trkpt>
<trkpt lat="40.0738215" lon="-105.229156">
  <ele>1583.02</ele>
  <time>2026-08-28T17:52:43Z</time>
  <course>100.74</course>
  <speed>1.423938200906205</speed>
  <fix>3d</fix>
</trkpt>
<trkpt lat="40.0738216" lon="-105.2291599">
  <ele>1583.0</ele>
  <time>2026-08-28T17:52:43Z</time>
  <course>89.75</course>
  <speed>1.41</speed>
  <fix>3d</fix>
</trkpt>
<trkpt lat="40.0738212" lon="-105.2291544">
  <ele>1583.02</ele>
  <time>2026-08-28T17:52:43Z</time>
  <course>104.66</course>
  <speed>1.4261837188805655</speed>
  <fix>3d</fix>
</trkpt>
<trkpt lat="40.0738216" lon="-105.2291599">
  <ele>1583.0</ele>
  <time>2026-08-28T17:52:43Z</time>
  <course>89.75</course>
  <speed>1.41</speed>
  <fix>3d</fix>
</trkpt>
<trkpt lat="40.0738209" lon="-105.2291528">
  <ele>1583.02</ele>
  <time>2026-08-28T17:52:43Z</time>
  <course>108.07</course>
  <speed>1.429405470816451</speed>
  <fix>3d</fix>
</trkpt>
<trkpt lat="40.0738214" lon="-105.2291566">
  <ele>1583.0</ele>
  <time>2026-08-28T17:52:43Z</time>
  <course>99.52</course>
  <speed>1.41</speed>
  <fix>3d</fix>
</trkpt>
<trkpt lat="40.0738205" lon="-105.2291513">
  <ele>1583.02</ele>
  <time>2026-08-28T17:52:43Z</time>
  <course>110.94</course>
  <speed>1.4466858677681205</speed>
  <fix>3d</fix>
</trkpt>
<trkpt lat="40.0738209" lon="-105.2291534">
  <ele>1583.0</ele>
  <time>2026-08-28T17:52:43Z</time>
  <course>106.89</course>
  <speed>1.43</speed>
  <fix>3d</fix>
</trkpt>
<trkpt lat="40.07382" lon="-105.2291497">
  <ele>1583.02</ele>
  <time>2026-08-28T17:52:43Z</time>
  <course>113.39</course>
  <speed>1.4693195704134618</speed>
  <fix>3d</fix>
</trkpt>
<trkpt lat="40.0738209" lon="-105.2291534">
  <ele>1583.0</ele>
  <time>2026-08-28T17:52:43Z</time>
  <course>106.89</course>
  <speed>1.43</speed>
  <fix>3d</fix>
</trkpt>
<trkpt lat="40.0738194" lon="-105.2291481">
  <ele>1583.02</ele>
  <time>2026-08-28T17:52:43Z</time>
  <course>115.43</course>
  <speed>1.4940214188558343</speed>
  <fix>3d</fix>
</trkpt>
<trkpt lat="40.0738201" lon="-105.2291501">
  <ele>1583.0</ele>
  <time>2026-08-28T17:52:43Z</time>
  <course>112.27</course>
  <speed>1.46</speed>
  <fix>3d</fix>
</trkpt>
<trkpt lat="40.0738188" lon="-105.2291465">
  <ele>1583.02</ele>
  <time>2026-08-28T17:52:43Z</time>
  <course>117.18</course>
  <speed>1.5295751043999115</speed>
  <fix>3d</fix>
</trkpt>
<trkpt lat="40.0738201" lon="-105.2291501">
  <ele>1583.0</ele>
  <time>2026-08-28T17:52:43Z</time>
  <course>112.27</course>
  <speed>1.46</speed>
  <fix>3d</fix>
</trkpt>
<trkpt lat="40.0738181" lon="-105.2291449">
  <ele>1583.02</ele>
  <time>2026-08-28T17:52:43Z</time>
  <course>118.67</course>
  <speed>1.5618578680533002</speed>
  <fix>3d</fix>
</trkpt>
<trkpt lat="40.073819" lon="-105.229147">
  <ele>1583.0</ele>
  <time>2026-08-28T17:52:43Z</time>
  <course>116.14</course>
  <speed>1.52</speed>
  <fix>3d</fix>
</trkpt>
<trkpt lat="40.0738174" lon="-105.2291433">
  <ele>1583.01</ele>
  <time>2026-08-28T17:52:43Z</time>
  <course>119.9</course>
  <speed>1.5988120589988055</speed>
  <fix>3d</fix>
</trkpt>
<trkpt lat="40.073819" lon="-105.229147">
  <ele>1583.0</ele>
  <time>2026-08-28T17:52:43Z</time>
  <course>116.14</course>
  <speed>1.52</speed>
  <fix>3d</fix>
</trkpt>
<trkpt lat="40.0738167" lon="-105.2291416">
  <ele>1583.01</ele>
  <time>2026-08-28T17:52:43Z</time>
  <course>120.92</course>
  <speed>1.6412495239907914</speed>
  <fix>3d</fix>
</trkpt>
<trkpt lat="40.0738177" lon="-105.2291437">
  <ele>1583.0</ele>
  <time>2026-08-28T17:52:43Z</time>
  <course>118.87</course>
  <speed>1.59</speed>
  <fix>3d</fix>
</trkpt>
<trkpt lat="40.0738159" lon="-105.2291399">
  <ele>1583.01</ele>
  <time>2026-08-28T17:52:43Z</time>
  <course>121.74</course>
  <speed>1.7013524032369074</speed>
  <fix>3d</fix>
</trkpt>
<trkpt lat="40.0738177" lon="-105.2291437">
  <ele>1583.0</ele>
  <time>2026-08-28T17:52:43Z</time>
  <course>118.87</course>
  <speed>1.59</speed>
  <fix>3d</fix>
</trkpt>
<trkpt lat="40.0738151" lon="-105.2291382">
  <ele>1583.01</ele>
  <time>2026-08-28T17:52:43Z</time>
  <course>122.42</course>
  <speed>1.7617321022221284</speed>
  <fix>3d</fix>
</trkpt>
<trkpt lat="40.0738161" lon="-105.2291403">
  <ele>1583.0</ele>
  <time>2026-08-28T17:52:43Z</time>
  <course>120.73</course>
  <speed>1.7</speed>
  <fix>3d</fix>
</trkpt>
<trkpt lat="40.0738142" lon="-105.2291364">
  <ele>1583.01</ele>
  <time>2026-08-28T17:52:43Z</time>
  <course>122.96</course>
  <speed>1.8307648674802561</speed>
  <fix>3d</fix>
</trkpt>
<trkpt lat="40.0738161" lon="-105.2291403">
  <ele>1583.0</ele>
  <time>2026-08-28T17:52:43Z</time>
  <course>120.73</course>
  <speed>1.7</speed>
  <fix>3d</fix>
</trkpt>
<trkpt lat="40.0738133" lon="-105.2291345">
  <ele>1583.01</ele>
  <time>2026-08-28T17:52:43Z</time>
  <course>123.39</course>
  <speed>1.9082976707002501</speed>
  <fix>3d</fix>
</trkpt>
<trkpt lat="40.0738145" lon="-105.2291368">
  <ele>1583.0</ele>
  <time>2026-08-28T17:52:43Z</time>
  <course>121.96</course>
  <speed>1.83</speed>
  <fix>3d</fix>
</trkpt>
<trkpt lat="40.0738123" lon="-105.2291325">
  <ele>1583.01</ele>
  <time>2026-08-28T17:52:43Z</time>
  <course>123.72</course>
  <speed>1.9913814300630606</speed>
  <fix>3d</fix>
</trkpt>
<trkpt lat="40.0738145" lon="-105.2291368">
  <ele>1583.0</ele>
  <time>2026-08-28T17:52:43Z</time>
  <course>121.96</course>
  <speed>1.83</speed>
  <fix>3d</fix>
</trkpt>
<trkpt lat="40.0738113" lon="-105.2291305">
  <ele>1583.01</ele>
  <time>2026-08-28T17:52:43Z</time>
  <course>123.98</course>
  <speed>2.0773540863319377</speed>
  <fix>3d</fix>
</trkpt>
<trkpt lat="40.0738127" lon="-105.229133">
  <ele>1583.0</ele>
  <time>2026-08-28T17:52:43Z</time>
  <course>122.73</course>
  <speed>1.98</speed>
  <fix>3d</fix>
</trkpt>
<trkpt lat="40.0738103" lon="-105.2291284">
  <ele>1583.01</ele>
  <time>2026-08-28T17:52:43Z</time>
  <course>124.17</course>
  <speed>2.1633307652783937</speed>
  <fix>3d</fix>
</trkpt>
<trkpt lat="40.0738127" lon="-105.229133">
  <ele>1583.0</ele>
  <time>2026-08-28T17:52:43Z</time>
  <course>122.73</course>
  <speed>1.98</speed>
  <fix>3d</fix>
</trkpt>
<trkpt lat="40.0738092" lon="-105.2291262">
  <ele>1583.01</ele>
  <time>2026-08-28T17:52:43Z</time>
  <course>124.3</course>
  <speed>2.2548835890129673</speed>
  <fix>3d</fix>
</trkpt>
<trkpt lat="40.0738127" lon="-105.229133">
  <ele>1583.0</ele>
  <time>2026-08-28T17:52:43Z</time>
  <course>122.73</course>
  <speed>1.98</speed>
  <fix>3d</fix>
</trkpt>
<trkpt lat="40.073808" lon="-105.229124">
  <ele>1583.02</ele>
  <time>2026-08-28T17:52:43Z</time>
  <course>124.38</course>
  <speed>2.349170066214875</speed>
  <fix>3d</fix>
</trkpt>
<trkpt lat="40.0738106" lon="-105.229129">
  <ele>1583.0</ele>
  <time>2026-08-28T17:52:43Z</time>
  <course>123.19</course>
  <speed>2.15</speed>
  <fix>3d</fix>
</trkpt>
<trkpt lat="40.0738068" lon="-105.2291216">
  <ele>1583.02</ele>
  <time>2026-08-28T17:52:43Z</time>
  <course>124.42</course>
  <speed>2.4490406284910833</speed>
  <fix>3d</fix>
</trkpt>
<trkpt lat="40.0738106" lon="-105.229129">
  <ele>1583.0</ele>
  <time>2026-08-28T17:52:43Z</time>
  <course>123.19</course>
  <speed>2.15</speed>
  <fix>3d</fix>
</trkpt>
<trkpt lat="40.0738056" lon="-105.2291192">
  <ele>1583.02</ele>
  <time>2026-08-28T17:52:43Z</time>
  <course>124.42</course>
  <speed>2.5433245958783948</speed>
  <fix>3d</fix>
</trkpt>
<trkpt lat="40.0738084" lon="-105.2291246">
  <ele>1583.0</ele>
  <time>2026-08-28T17:52:43Z</time>
  <course>123.41</course>
  <speed>2.33</speed>
  <fix>3d</fix>
</trkpt>
<trkpt lat="40.0738043" lon="-105.2291167">
  <ele>1583.02</ele>
  <time>2026-08-28T17:52:43Z</time>
  <course>124.42</course>
  <speed>2.6431988196123273</speed>
  <fix>3d</fix>
</trkpt>
<trkpt lat="40.0738084" lon="-105.2291246">
  <ele>1583.0</ele>
  <time>2026-08-28T17:52:43Z</time>
  <course>123.41</course>
  <speed>2.33</speed>
  <fix>3d</fix>
</trkpt>
<trkpt lat="40.073803" lon="-105.229114">
  <ele>1583.02</ele>
  <time>2026-08-28T17:52:43Z</time>
  <course>124.39</course>
  <speed>2.7457785781085846</speed>
  <fix>3d</fix>
</trkpt>
<trkpt lat="40.073806" lon="-105.2291198">
  <ele>1583.0</ele>
  <time>2026-08-28T17:52:43Z</time>
  <course>123.46</course>
  <speed>2.53</speed>
  <fix>3d</fix>
</trkpt>
<trkpt lat="40.0738016" lon="-105.2291113">
  <ele>1583.02</ele>
  <time>2026-08-28T17:52:43Z</time>
  <course>124.33</course>
  <speed>2.853944638566067</speed>
  <fix>3d</fix>
</trkpt>
<trkpt lat="40.0738034" lon="-105.2291146">
  <ele>1583.0</ele>
  <time>2026-08-28T17:52:43Z</time>
  <course>123.41</course>
  <speed>2.73</speed>
  <fix>3d</fix>
</trkpt>
<trkpt lat="40.0738001" lon="-105.2291084">
  <ele>1583.02</ele>
  <time>2026-08-28T17:52:43Z</time>
  <course>124.25</course>
  <speed>2.9565520458804713</speed>
  <fix>3d</fix>
</trkpt>
<trkpt lat="40.0738034" lon="-105.2291146">
  <ele>1583.0</ele>
  <time>2026-08-28T17:52:43Z</time>
  <course>123.41</course>
  <speed>2.73</speed>
  <fix>3d</fix>
</trkpt>
<trkpt lat="40.0737986" lon="-105.2291055">
  <ele>1583.02</ele>
  <time>2026-08-28T17:52:43Z</time>
  <course>124.17</course>
  <speed>3.050852339920764</speed>
  <fix>3d</fix>
</trkpt>
<trkpt lat="40.0738006" lon="-105.229109">
  <ele>1583.0</ele>
  <time>2026-08-28T17:52:43Z</time>
  <course>123.28</course>
  <speed>2.94</speed>
  <fix>3d</fix>
</trkpt>
<trkpt lat="40.0737971" lon="-105.2291024">
  <ele>1583.02</ele>
  <time>2026-08-28T17:52:43Z</time>
  <course>124.04</course>
  <speed>3.161834910301295</speed>
  <fix>3d</fix>
</trkpt>
<trkpt lat="40.0738006" lon="-105.229109">
  <ele>1583.0</ele>
  <time>2026-08-28T17:52:43Z</time>
  <course>123.28</course>
  <speed>2.94</speed>
  <fix>3d</fix>
</trkpt>
<trkpt lat="40.0737955" lon="-105.2290992">
  <ele>1583.02</ele>
  <time>2026-08-28T17:52:43Z</time>
  <course>123.91</course>
  <speed>3.2645060882161028</speed>
  <fix>3d</fix>
</trkpt>
<trkpt lat="40.0737976" lon="-105.229103">
  <ele>1583.0</ele>
  <time>2026-08-28T17:52:43Z</time>
  <course>123.07</course>
  <speed>3.14</speed>
  <fix>3d</fix>
</trkpt>
<trkpt lat="40.0737939" lon="-105.2290959">
  <ele>1583.02</ele>
  <time>2026-08-28T17:52:43Z</time>
  <course>123.77</course>
  <speed>3.367194678066595</speed>
  <fix>3d</fix>
</trkpt>
<trkpt lat="40.0737976" lon="-105.229103">
  <ele>1583.0</ele>
  <time>2026-08-28T17:52:43Z</time>
  <course>123.07</course>
  <speed>3.14</speed>
  <fix>3d</fix>
</trkpt>
<trkpt lat="40.0737922" lon="-105.2290925">
  <ele>1583.02</ele>
  <time>2026-08-28T17:52:43Z</time>
  <course>123.63</course>
  <speed>3.469899133980698</speed>
  <fix>3d</fix>
</trkpt>
<trkpt lat="40.0737944" lon="-105.2290966">
  <ele>1583.0</ele>
  <time>2026-08-28T17:52:43Z</time>
  <course>122.81</course>
  <speed>3.35</speed>
  <fix>3d</fix>
</trkpt>
<trkpt lat="40.0737904" lon="-105.2290889">
  <ele>1583.02</ele>
  <time>2026-08-28T17:52:43Z</time>
  <course>123.49</course>
  <speed>3.5726180876214575</speed>
  <fix>3d</fix>
</trkpt>
<trkpt lat="40.0737944" lon="-105.2290966">
  <ele>1583.0</ele>
  <time>2026-08-28T17:52:43Z</time>
  <course>122.81</course>
  <speed>3.35</speed>
  <fix>3d</fix>
</trkpt>
<trkpt lat="40.0737887" lon="-105.2290853">
  <ele>1583.03</ele>
  <time>2026-08-28T17:52:43Z</time>
  <course>123.34</course>
  <speed>3.67535032343857</speed>
  <fix>3d</fix>
</trkpt>
<trkpt lat="40.073791" lon="-105.2290898">
  <ele>1583.0</ele>
  <time>2026-08-28T17:52:43Z</time>
  <course>122.53</course>
  <speed>3.55</speed>
  <fix>3d</fix>
</trkpt>
<trkpt lat="40.0737869" lon="-105.2290815">
  <ele>1583.03</ele>
  <time>2026-08-28T17:52:43Z</time>
  <course>123.19</course>
  <speed>3.7727046001509312</speed>
  <fix>3d</fix>
</trkpt>
<trkpt lat="40.073791" lon="-105.2290898">
  <ele>1583.0</ele>
  <time>2026-08-28T17:52:43Z</time>
  <course>122.53</course>
  <speed>3.55</speed>
  <fix>3d</fix>
</trkpt>
<trkpt lat="40.073785" lon="-105.2290777">
  <ele>1583.03</ele>
  <time>2026-08-28T17:52:43Z</time>
  <course>123.03</course>
  <speed>3.8754741645378057</speed>
  <fix>3d</fix>
</trkpt>
<trkpt lat="40.0737875" lon="-105.2290826">
  <ele>1583.0</ele>
  <time>2026-08-28T17:52:43Z</time>
  <course>122.23</course>
  <speed>3.75</speed>
  <fix>3d</fix>
</trkpt>
<trkpt lat="40.0737831" lon="-105.2290737">
  <ele>1583.03</ele>
  <time>2026-08-28T17:52:43Z</time>
  <course>122.87</course>
  <speed>3.97290825466685</speed>
  <fix>3d</fix>
</trkpt>
<trkpt lat="40.0737875" lon="-105.2290826">
  <ele>1583.0</ele>
  <time>2026-08-28T17:52:43Z</time>
  <course>122.23</course>
  <speed>3.75</speed>
  <fix>3d</fix>
</trkpt>
<trkpt lat="40.0737812" lon="-105.2290697">
  <ele>1583.03</ele>
  <time>2026-08-28T17:52:43Z</time>
  <course>122.71</course>
  <speed>4.070393101409248</speed>
  <fix>3d</fix>
</trkpt>
<trkpt lat="40.0737839" lon="-105.229075">
  <ele>1583.0</ele>
  <time>2026-08-28T17:52:43Z</time>
  <course>121.92</course>
  <speed>3.94</speed>
  <fix>3d</fix>
</trkpt>
<trkpt lat="40.0737793" lon="-105.2290656">
  <ele>1583.03</ele>
  <time>2026-08-28T17:52:43Z</time>
  <course>122.54</course>
  <speed>4.167925143281726</speed>
  <fix>3d</fix>
</trkpt>
<trkpt lat="40.0737839" lon="-105.229075">
  <ele>1583.0</ele>
  <time>2026-08-28T17:52:43Z</time>
  <course>121.92</course>
  <speed>3.94</speed>
  <fix>3d</fix>
</trkpt>
<trkpt lat="40.0737773" lon="-105.2290613">
  <ele>1583.04</ele>
  <time>2026-08-28T17:52:43Z</time>
  <course>122.37</course>
  <speed>4.265501142890481</speed>
  <fix>3d</fix>
</trkpt>
<trkpt lat="40.0737839" lon="-105.229075">
  <ele>1583.0</ele>
  <time>2026-08-28T17:52:43Z</time>
  <course>121.92</course>
  <speed>3.94</speed>
  <fix>3d</fix>
</trkpt>
<trkpt lat="40.0737753" lon="-105.229057">
  <ele>1583.04</ele>
  <time>2026-08-28T17:52:43Z</time>
  <course>122.22</course>
  <speed>4.354595273960601</speed>
  <fix>3d</fix>
</trkpt>
<trkpt lat="40.0737801" lon="-105.2290669">
  <ele>1583.0</ele>
  <time>2026-08-28T17:52:43Z</time>
  <course>121.59</course>
  <speed>4.13</speed>
  <fix>3d</fix>
</trkpt>
<trkpt lat="40.0737732" lon="-105.2290526">
  <ele>1583.04</ele>
  <time>2026-08-28T17:52:43Z</time>
  <course>122.09</course>
  <speed>4.452235393597244</speed>
  <fix>3d</fix>
</trkpt>
<trkpt lat="40.0737801" lon="-105.2290669">
  <ele>1583.0</ele>
  <time>2026-08-28T17:52:43Z</time>
  <course>121.59</course>
  <speed>4.13</speed>
  <fix>3d</fix>
</trkpt>
<trkpt lat="40.0737712" lon="-105.2290481">
  <ele>1583.04</ele>
  <time>2026-08-28T17:52:43Z</time>
  <course>121.94</course>
  <speed>4.541365433435192</speed>
  <fix>3d</fix>
</trkpt>
<trkpt lat="40.0737761" lon="-105.2290584">
  <ele>1583.0</ele>
  <time>2026-08-28T17:52:43Z</time>
  <course>121.28</course>
  <speed>4.32</speed>
  <fix>3d</fix>
</trkpt>
<trkpt lat="40.0737691" lon="-105.2290435">
  <ele>1583.04</ele>
  <time>2026-08-28T17:52:43Z</time>
  <course>121.82</course>
  <speed>4.639062405271134</speed>
  <fix>3d</fix>
</trkpt>
<trkpt lat="40.0737761" lon="-105.2290584">
  <ele>1583.0</ele>
  <time>2026-08-28T17:52:43Z</time>
  <course>121.28</course>
  <speed>4.32</speed>
  <fix>3d</fix>
</trkpt>
<trkpt lat="40.0737669" lon="-105.2290389">
  <ele>1583.04</ele>
  <time>2026-08-28T17:52:43Z</time>
  <course>121.69</course>
  <speed>4.723071034824693</speed>
  <fix>3d</fix>
</trkpt>
<trkpt lat="40.073772" lon="-105.2290495">
  <ele>1583.0</ele>
  <time>2026-08-28T17:52:43Z</time>
  <course>121.01</course>
  <speed>4.51</speed>
  <fix>3d</fix>
</trkpt>
<trkpt lat="40.0737648" lon="-105.2290341">
  <ele>1583.04</ele>
  <time>2026-08-28T17:52:43Z</time>
  <course>121.56</course>
  <speed>4.820840175737005</speed>
  <fix>3d</fix>
</trkpt>
<trkpt lat="40.073772" lon="-105.2290495">
  <ele>1583.0</ele>
  <time>2026-08-28T17:52:43Z</time>
  <course>121.01</course>
  <speed>4.51</speed>
  <fix>3d</fix>
</trkpt>
<trkpt lat="40.0737625" lon="-105.2290292">
  <ele>1583.04</ele>
  <time>2026-08-28T17:52:43Z</time>
  <course>121.42</course>
  <speed>4.910040733028597</speed>
  <fix>3d</fix>
</trkpt>
<trkpt lat="40.0737677" lon="-105.2290402">
  <ele>1583.0</ele>
  <time>2026-08-28T17:52:43Z</time>
  <course>120.74</course>
  <speed>4.7</speed>
  <fix>3d</fix>
</trkpt>
<trkpt lat="40.0737603" lon="-105.2290242">
  <ele>1583.04</ele>
  <time>2026-08-28T17:52:43Z</time>
  <course>121.3</course>
  <speed>4.99415658545064</speed>
  <fix>3d</fix>
</trkpt>
<trkpt lat="40.0737634" lon="-105.2290305">
  <ele>1583.0</ele>
  <time>2026-08-28T17:52:43Z</time>
  <course>120.49</course>
  <speed>4.89</speed>
  <fix>3d</fix>
</trkpt>
<trkpt lat="40.073758" lon="-105.2290191">
  <ele>1583.04</ele>
  <time>2026-08-28T17:52:43Z</time>
  <course>121.23</course>
  <speed>5.074770930790867</speed>
  <fix>3d</fix>
</trkpt>
<trkpt lat="40.0737634" lon="-105.2290305">
  <ele>1583.0</ele>
  <time>2026-08-28T17:52:43Z</time>
  <course>120.49</course>
  <speed>4.89</speed>
  <fix>3d</fix>
</trkpt>
<trkpt lat="40.0737557" lon="-105.2290139">
  <ele>1583.03</ele>
  <time>2026-08-28T17:52:43Z</time>
  <course>121.16</course>
  <speed>5.150310670241165</speed>
  <fix>3d</fix>
</trkpt>
<trkpt lat="40.0737589" lon="-105.2290204">
  <ele>1583.0</ele>
  <time>2026-08-28T17:52:43Z</time>
  <course>120.3</course>
  <speed>5.05</speed>
  <fix>3d</fix>
</trkpt>
<trkpt lat="40.0737534" lon="-105.2290086">
  <ele>1583.03</ele>
  <time>2026-08-28T17:52:43Z</time>
  <course>121.09</course>
  <speed>5.212187640521012</speed>
  <fix>3d</fix>
</trkpt>
<trkpt lat="40.0737589" lon="-105.2290204">
  <ele>1583.0</ele>
  <time>2026-08-28T17:52:43Z</time>
  <course>120.3</course>
  <speed>5.05</speed>
  <fix>3d</fix>
</trkpt>
<trkpt lat="40.073751" lon="-105.2290033">
  <ele>1583.03</ele>
  <time>2026-08-28T17:52:43Z</time>
  <course>121.02</course>
  <speed>5.265453446760307</speed>
  <fix>3d</fix>
</trkpt>
<trkpt lat="40.0737542" lon="-105.2290101">
  <ele>1583.0</ele>
  <time>2026-08-28T17:52:43Z</time>
  <course>120.16</course>
  <speed>5.19</speed>
  <fix>3d</fix>
</trkpt>
<trkpt lat="40.0737486" lon="-105.2289978">
  <ele>1583.03</ele>
  <time>2026-08-28T17:52:43Z</time>
  <course>120.95</course>
  <speed>5.310084745086466</speed>
  <fix>3d</fix>
</trkpt>
<trkpt lat="40.0737542" lon="-105.2290101">
  <ele>1583.0</ele>
  <time>2026-08-28T17:52:43Z</time>
  <course>120.16</course>
  <speed>5.19</speed>
  <fix>3d</fix>
</trkpt>
<trkpt lat="40.0737462" lon="-105.2289924">
  <ele>1583.03</ele>
  <time>2026-08-28T17:52:43Z</time>
  <course>120.88</course>
  <speed>5.341048586186051</speed>
  <fix>3d</fix>
</trkpt>
<trkpt lat="40.0737495" lon="-105.2289993">
  <ele>1583.0</ele>
  <time>2026-08-28T17:52:43Z</time>
  <course>120.02</course>
  <speed>5.28</speed>
  <fix>3d</fix>
</trkpt>
<trkpt lat="40.0737438" lon="-105.2289869">
  <ele>1583.03</ele>
  <time>2026-08-28T17:52:43Z</time>
  <course>120.8</course>
  <speed>5.358357957434348</speed>
  <fix>3d</fix>
</trkpt>
<trkpt lat="40.0737495" lon="-105.2289993">
  <ele>1583.0</ele>
  <time>2026-08-28T17:52:43Z</time>
  <course>120.02</course>
  <speed>5.28</speed>
  <fix>3d</fix>
</trkpt>
<trkpt lat="40.0737414" lon="-105.2289814">
  <ele>1583.03</ele>
  <time>2026-08-28T17:52:43Z</time>
  <course>120.73</course>
  <speed>5.362033196465684</speed>
  <fix>3d</fix>
</trkpt>
<trkpt lat="40.0737447" lon="-105.2289886">
  <ele>1583.0</ele>
  <time>2026-08-28T17:52:43Z</time>
  <course>119.87</course>
  <speed>5.33</speed>
  <fix>3d</fix>
</trkpt>
<trkpt lat="40.073739" lon="-105.2289759">
  <ele>1583.03</ele>
  <time>2026-08-28T17:52:43Z</time>
  <course>120.66</course>
  <speed>5.362033196465684</speed>
  <fix>3d</fix>
</trkpt>
<trkpt lat="40.0737447" lon="-105.2289886">
  <ele>1583.0</ele>
  <time>2026-08-28T17:52:43Z</time>
  <course>119.87</course>
  <speed>5.33</speed>
  <fix>3d</fix>
</trkpt>
<trkpt lat="40.0737366" lon="-105.2289704">
  <ele>1583.03</ele>
  <time>2026-08-28T17:52:43Z</time>
  <course>120.58</course>
  <speed>5.35706076127572</speed>
  <fix>3d</fix>
</trkpt>
<trkpt lat="40.0737399" lon="-105.2289777">
  <ele>1583.0</ele>
  <time>2026-08-28T17:52:43Z</time>
  <course>119.73</course>
  <speed>5.34</speed>
  <fix>3d</fix>
</trkpt>
<trkpt lat="40.0737342" lon="-105.2289649">
  <ele>1583.03</ele>
  <time>2026-08-28T17:52:43Z</time>
  <course>120.51</course>
  <speed>5.338464198624918</speed>
  <fix>3d</fix>
</trkpt>
<trkpt lat="40.0737399" lon="-105.2289777">
  <ele>1583.0</ele>
  <time>2026-08-28T17:52:43Z</time>
  <course>119.73</course>
  <speed>5.34</speed>
  <fix>3d</fix>
</trkpt>
<trkpt lat="40.0737319" lon="-105.2289594">
  <ele>1583.04</ele>
  <time>2026-08-28T17:52:43Z</time>
  <course>120.44</course>
  <speed>5.324828635740309</speed>
  <fix>3d</fix>
</trkpt>
<trkpt lat="40.0737399" lon="-105.2289777">
  <ele>1583.0</ele>
  <time>2026-08-28T17:52:43Z</time>
  <course>119.73</course>
  <speed>5.34</speed>
  <fix>3d</fix>
</trkpt>
<trkpt lat="40.0737296" lon="-105.228954">
  <ele>1583.04</ele>
  <time>2026-08-28T17:52:43Z</time>
  <course>120.36</course>
  <speed>5.297565478594861</speed>
  <fix>3d</fix>
</trkpt>
<trkpt lat="40.0737352" lon="-105.2289668">
  <ele>1583.0</ele>
  <time>2026-08-28T17:52:43Z</time>
  <course>119.58</course>
  <speed>5.32</speed>
  <fix>3d</fix>
</trkpt>
<trkpt lat="40.0737273" lon="-105.2289487">
  <ele>1583.04</ele>
  <time>2026-08-28T17:52:43Z</time>
  <course>120.29</course>
  <speed>5.2654059672545666</speed>
  <fix>3d</fix>
</trkpt>
<trkpt lat="40.0737352" lon="-105.2289668">
  <ele>1583.0</ele>
  <time>2026-08-28T17:52:43Z</time>
  <course>119.58</course>
  <speed>5.32</speed>
  <fix>3d</fix>
</trkpt>
<trkpt lat="40.073725" lon="-105.2289433">
  <ele>1583.04</ele>
  <time>2026-08-28T17:52:43Z</time>
  <course>120.22</course>
  <speed>5.229455038529349</speed>
  <fix>3d</fix>
</trkpt>
<trkpt lat="40.0737304" lon="-105.2289559">
  <ele>1583.0</ele>
  <time>2026-08-28T17:52:43Z</time>
  <course>119.44</course>
  <speed>5.28</speed>
  <fix>3d</fix>
</trkpt>
<trkpt lat="40.0737227" lon="-105.2289381">
  <ele>1583.04</ele>
  <time>2026-08-28T17:52:43Z</time>
  <course>120.15</course>
  <speed>5.193505559831433</speed>
  <fix>3d</fix>
</trkpt>
<trkpt lat="40.0737304" lon="-105.2289559">
  <ele>1583.0</ele>
  <time>2026-08-28T17:52:43Z</time>
  <course>119.44</course>
  <speed>5.28</speed>
  <fix>3d</fix>
</trkpt>
<trkpt lat="40.0737205" lon="-105.2289328">
  <ele>1583.04</ele>
  <time>2026-08-28T17:52:43Z</time>
  <course>120.07</course>
  <speed>5.16141453479567</speed>
  <fix>3d</fix>
</trkpt>
<trkpt lat="40.0737259" lon="-105.2289452">
  <ele>1583.0</ele>
  <time>2026-08-28T17:52:43Z</time>
  <course>119.3</course>
  <speed>5.22</speed>
  <fix>3d</fix>
</trkpt>
<trkpt lat="40.0737183" lon="-105.2289276">
  <ele>1583.04</ele>
  <time>2026-08-28T17:52:43Z</time>
  <course>120.0</course>
  <speed>5.1254755876894</speed>
  <fix>3d</fix>
</trkpt>
<trkpt lat="40.0737259" lon="-105.2289452">
  <ele>1583.0</ele>
  <time>2026-08-28T17:52:43Z</time>
  <course>119.3</course>
  <speed>5.22</speed>
  <fix>3d</fix>
</trkpt>
<trkpt lat="40.0737161" lon="-105.2289224">
  <ele>1583.03</ele>
  <time>2026-08-28T17:52:43Z</time>
  <course>119.93</course>
  <speed>5.089538289471846</speed>
  <fix>3d</fix>
</trkpt>
<trkpt lat="40.0737213" lon="-105.2289346">
  <ele>1583.0</ele>
  <time>2026-08-28T17:52:43Z</time>
  <course>119.16</course>
  <speed>5.16</speed>
  <fix>3d</fix>
</trkpt>
<trkpt lat="40.0737139" lon="-105.2289172">
  <ele>1583.03</ele>
  <time>2026-08-28T17:52:43Z</time>
  <course>119.86</course>
  <speed>5.062351232382044</speed>
  <fix>3d</fix>
</trkpt>
<trkpt lat="40.0737168" lon="-105.228924">
  <ele>1583.0</ele>
  <time>2026-08-28T17:52:43Z</time>
  <course>119.02</course>
  <speed>5.11</speed>
  <fix>3d</fix>
</trkpt>
<trkpt lat="40.0737117" lon="-105.228912">
  <ele>1583.03</ele>
  <time>2026-08-28T17:52:43Z</time>
  <course>119.79</course>
  <speed>5.035176263051771</speed>
  <fix>3d</fix>
</trkpt>
<trkpt lat="40.0737168" lon="-105.228924">
  <ele>1583.0</ele>
  <time>2026-08-28T17:52:43Z</time>
  <course>119.02</course>
  <speed>5.11</speed>
  <fix>3d</fix>
</trkpt>
<trkpt lat="40.0737096" lon="-105.2289069">
  <ele>1583.02</ele>
  <time>2026-08-28T17:52:43Z</time>
  <course>119.72</course>
  <speed>5.008013578256353</speed>
  <fix>3d</fix>
</trkpt>
<trkpt lat="40.0737124" lon="-105.2289136">
  <ele>1583.0</ele>
  <time>2026-08-28T17:52:43Z</time>
  <course>118.88</course>
  <speed>5.05</speed>
  <fix>3d</fix>
</trkpt>
<trkpt lat="40.0737074" lon="-105.2289017">
  <ele>1583.02</ele>
  <time>2026-08-28T17:52:43Z</time>
  <course>119.66</course>
  <speed>4.980863378973569</speed>
  <fix>3d</fix>
</trkpt>
<trkpt lat="40.0737124" lon="-105.2289136">
  <ele>1583.0</ele>
  <time>2026-08-28T17:52:43Z</time>
  <course>118.88</course>
  <speed>5.05</speed>
  <fix>3d</fix>
</trkpt>
<trkpt lat="40.0737052" lon="-105.2288966">
  <ele>1583.02</ele>
  <time>2026-08-28T17:52:43Z</time>
  <course>119.59</course>
  <speed>4.967293025381128</speed>
  <fix>3d</fix>
</trkpt>
<trkpt lat="40.073708" lon="-105.2289032">
  <ele>1583.0</ele>
  <time>2026-08-28T17:52:43Z</time>
  <course>118.74</course>
  <speed>5.01</speed>
  <fix>3d</fix>
</trkpt>
<trkpt lat="40.0737031" lon="-105.2288914">
  <ele>1583.02</ele>
  <time>2026-08-28T17:52:43Z</time>
  <course>119.53</course>
  <speed>4.948949383455038</speed>
  <fix>3d</fix>
</trkpt>
<trkpt lat="40.073708" lon="-105.2289032">
  <ele>1583.0</ele>
  <time>2026-08-28T17:52:43Z</time>
  <course>118.74</course>
  <speed>5.01</speed>
  <fix>3d</fix>
</trkpt>
<trkpt lat="40.073701" lon="-105.2288863">
  <ele>1583.02</ele>
  <time>2026-08-28T17:52:43Z</time>
  <course>119.46</course>
  <speed>4.935392588234496</speed>
  <fix>3d</fix>
</trkpt>
<trkpt lat="40.0737037" lon="-105.2288929">
  <ele>1583.0</ele>
  <time>2026-08-28T17:52:43Z</time>
  <course>118.61</course>
  <speed>4.98</speed>
  <fix>3d</fix>
</trkpt>
<trkpt lat="40.0736988" lon="-105.2288811">
  <ele>1583.02</ele>
  <time>2026-08-28T17:52:43Z</time>
  <course>119.39</course>
  <speed>4.921839087170567</speed>
  <fix>3d</fix>
</trkpt>
<trkpt lat="40.0737037" lon="-105.2288929">
  <ele>1583.0</ele>
  <time>2026-08-28T17:52:43Z</time>
  <course>118.61</course>
  <speed>4.98</speed>
  <fix>3d</fix>
</trkpt>
<trkpt lat="40.0736967" lon="-105.228876">
  <ele>1583.02</ele>
  <time>2026-08-28T17:52:43Z</time>
  <course>119.33</course>
  <speed>4.908288907552203</speed>
  <fix>3d</fix>
</trkpt>
<trkpt lat="40.0736995" lon="-105.2288826">
  <ele>1583.0</ele>
  <time>2026-08-28T17:52:43Z</time>
  <course>118.47</course>
  <speed>4.95</speed>
  <fix>3d</fix>
</trkpt>
<trkpt lat="40.0736946" lon="-105.2288709">
  <ele>1583.01</ele>
  <time>2026-08-28T17:52:43Z</time>
  <course>119.26</course>
  <speed>4.903549734631025</speed>
  <fix>3d</fix>
</trkpt>
<trkpt lat="40.0736995" lon="-105.2288826">
  <ele>1583.0</ele>
  <time>2026-08-28T17:52:43Z</time>
  <course>118.47</course>
  <speed>4.95</speed>
  <fix>3d</fix>
</trkpt>
<trkpt lat="40.0736925" lon="-105.2288658">
  <ele>1583.01</ele>
  <time>2026-08-28T17:52:43Z</time>
  <course>119.2</course>
  <speed>4.903549734631025</speed>
  <fix>3d</fix>
</trkpt>
<trkpt lat="40.0736952" lon="-105.2288725">
  <ele>1583.0</ele>
  <time>2026-08-28T17:52:43Z</time>
  <course>118.34</course>
  <speed>4.93</speed>
  <fix>3d</fix>
</trkpt>
<trkpt lat="40.0736904" lon="-105.2288607">
  <ele>1583.01</ele>
  <time>2026-08-28T17:52:43Z</time>
  <course>119.13</course>
  <speed>4.8988263900652775</speed>
  <fix>3d</fix>
</trkpt>
<trkpt lat="40.0736952" lon="-105.2288725">
  <ele>1583.0</ele>
  <time>2026-08-28T17:52:43Z</time>
  <course>118.34</course>
  <speed>4.93</speed>
  <fix>3d</fix>
</trkpt>
<trkpt lat="40.0736883" lon="-105.2288556">
  <ele>1583.01</ele>
  <time>2026-08-28T17:52:43Z</time>
  <course>119.07</course>
  <speed>4.894118919683092</speed>
  <fix>3d</fix>
</trkpt>
<trkpt lat="40.073691" lon="-105.2288623">
  <ele>1583.0</ele>
  <time>2026-08-28T17:52:43Z</time>
  <course>118.2</course>
  <speed>4.93</speed>
  <fix>3d</fix>
</trkpt>
<trkpt lat="40.0736862" lon="-105.2288504">
  <ele>1583.01</ele>
  <time>2026-08-28T17:52:43Z</time>
  <course>119.0</course>
  <speed>4.894118919683092</speed>
  <fix>3d</fix>
</trkpt>
<trkpt lat="40.073691" lon="-105.2288623">
  <ele>1583.0</ele>
  <time>2026-08-28T17:52:43Z</time>
  <course>118.2</course>
  <speed>4.93</speed>
  <fix>3d</fix>
</trkpt>
<trkpt lat="40.0736841" lon="-105.2288453">
  <ele>1583.01</ele>
  <time>2026-08-28T17:52:43Z</time>
  <course>118.93</course>
  <speed>4.902948092729516</speed>
  <fix>3d</fix>
</trkpt>
<trkpt lat="40.073691" lon="-105.2288623">
  <ele>1583.0</ele>
  <time>2026-08-28T17:52:43Z</time>
  <course>118.2</course>
  <speed>4.93</speed>
  <fix>3d</fix>
</trkpt>
<trkpt lat="40.0736821" lon="-105.2288402">
  <ele>1583.02</ele>
  <time>2026-08-28T17:52:43Z</time>
  <course>118.85</course>
  <speed>4.898264998956263</speed>
  <fix>3d</fix>
</trkpt>
<trkpt lat="40.0736869" lon="-105.228852">
  <ele>1583.0</ele>
  <time>2026-08-28T17:52:43Z</time>
  <course>118.07</course>
  <speed>4.93</speed>
  <fix>3d</fix>
</trkpt>
<trkpt lat="40.07368" lon="-105.2288352">
  <ele>1583.02</ele>
  <time>2026-08-28T17:52:43Z</time>
  <course>118.79</course>
  <speed>4.898264998956263</speed>
  <fix>3d</fix>
</trkpt>
<trkpt lat="40.0736869" lon="-105.228852">
  <ele>1583.0</ele>
  <time>2026-08-28T17:52:43Z</time>
  <course>118.07</course>
  <speed>4.93</speed>
  <fix>3d</fix>
</trkpt>
<trkpt lat="40.073678" lon="-105.2288301">
  <ele>1583.01</ele>
  <time>2026-08-28T17:52:43Z</time>
  <course>118.72</course>
  <speed>4.902448367907611</speed>
  <fix>3d</fix>
</trkpt>
<trkpt lat="40.0736826" lon="-105.2288418">
  <ele>1583.0</ele>
  <time>2026-08-28T17:52:43Z</time>
  <course>117.93</course>
  <speed>4.93</speed>
  <fix>3d</fix>
</trkpt>
<trkpt lat="40.0736759" lon="-105.228825">
  <ele>1583.01</ele>
  <time>2026-08-28T17:52:43Z</time>
  <course>118.65</course>
  <speed>4.902448367907611</speed>
  <fix>3d</fix>
</trkpt>
<trkpt lat="40.0736826" lon="-105.2288418">
  <ele>1583.0</ele>
  <time>2026-08-28T17:52:43Z</time>
  <course>117.93</course>
  <speed>4.93</speed>
  <fix>3d</fix>
</trkpt>
<trkpt lat="40.0736739" lon="-105.2288199">
  <ele>1583.01</ele>
  <time>2026-08-28T17:52:43Z</time>
  <course>118.58</course>
  <speed>4.9113032893520225</speed>
  <fix>3d</fix>
</trkpt>
<trkpt lat="40.0736785" lon="-105.2288315">
  <ele>1583.0</ele>
  <time>2026-08-28T17:52:43Z</time>
  <course>117.79</course>
  <speed>4.94</speed>
  <fix>3d</fix>
</trkpt>
<trkpt lat="40.0736718" lon="-105.2288148">
  <ele>1583.0</ele>
  <time>2026-08-28T17:52:43Z</time>
  <course>118.51</course>
  <speed>4.920162598939186</speed>
  <fix>3d</fix>
</trkpt>
<trkpt lat="40.0736744" lon="-105.2288212">
  <ele>1583.0</ele>
  <time>2026-08-28T17:52:43Z</time>
  <course>117.65</course>
  <speed>4.96</speed>
  <fix>3d</fix>
</trkpt>
<trkpt lat="40.0736697" lon="-105.2288096">
  <ele>1583.0</ele>
  <time>2026-08-28T17:52:43Z</time>
  <course>118.45</course>
  <speed>4.929026273007682</speed>
  <fix>3d</fix>
</trkpt>
<trkpt lat="40.0736744" lon="-105.2288212">
  <ele>1583.0</ele>
  <time>2026-08-28T17:52:43Z</time>
  <course>117.65</course>
  <speed>4.96</speed>
  <fix>3d</fix>
</trkpt>
<trkpt lat="40.0736677" lon="-105.2288045">
  <ele>1583.0</ele>
  <time>2026-08-28T17:52:43Z</time>
  <course>118.38</course>
  <speed>4.937894288054372</speed>
  <fix>3d</fix>
</trkpt>
<trkpt lat="40.0736702" lon="-105.2288109">
  <ele>1583.0</ele>
  <time>2026-08-28T17:52:43Z</time>
  <course>117.52</course>
  <speed>4.97</speed>
  <fix>3d</fix>
</trkpt>
<trkpt lat="40.0736656" lon="-105.2287993">
  <ele>1583.0</ele>
  <time>2026-08-28T17:52:43Z</time>
  <course>118.32</course>
  <speed>4.946766620733183</speed>
  <fix>3d</fix>
</trkpt>
<trkpt lat="40.0736702" lon="-105.2288109">
  <ele>1583.0</ele>
  <time>2026-08-28T17:52:43Z</time>
  <course>117.52</course>
  <speed>4.97</speed>
  <fix>3d</fix>
</trkpt>
<trkpt lat="40.0736636" lon="-105.2287941">
  <ele>1583.0</ele>
  <time>2026-08-28T17:52:43Z</time>
  <course>118.25</course>
  <speed>4.955643247853905</speed>
  <fix>3d</fix>
</trkpt>
<trkpt lat="40.0736661" lon="-105.2288005">
  <ele>1583.0</ele>
  <time>2026-08-28T17:52:43Z</time>
  <course>117.38</course>
  <speed>4.99</speed>
  <fix>3d</fix>
</trkpt>
<trkpt lat="40.0736615" lon="-105.2287888">
  <ele>1582.99</ele>
  <time>2026-08-28T17:52:43Z</time>
  <course>118.19</course>
  <speed>4.964524146381001</speed>
  <fix>3d</fix>
</trkpt>
<trkpt lat="40.0736661" lon="-105.2288005">
  <ele>1583.0</ele>
  <time>2026-08-28T17:52:43Z</time>
  <course>117.38</course>
  <speed>4.99</speed>
  <fix>3d</fix>
</trkpt>
<trkpt lat="40.0736594" lon="-105.2287836">
  <ele>1582.99</ele>
  <time>2026-08-28T17:52:43Z</time>
  <course>118.12</course>
  <speed>4.959939515760247</speed>
  <fix>3d</fix>
</trkpt>
<trkpt lat="40.073662" lon="-105.2287901">
  <ele>1583.0</ele>
  <time>2026-08-28T17:52:43Z</time>
  <course>117.25</course>
  <speed>5.0</speed>
  <fix>3d</fix>
</trkpt>
<trkpt lat="40.0736573" lon="-105.2287783">
  <ele>1582.99</ele>
  <time>2026-08-28T17:52:43Z</time>
  <course>118.06</course>
  <speed>4.968832860944309</speed>
  <fix>3d</fix>
</trkpt>
<trkpt lat="40.073662" lon="-105.2287901">
  <ele>1583.0</ele>
  <time>2026-08-28T17:52:43Z</time>
  <course>117.25</course>
  <speed>5.0</speed>
  <fix>3d</fix>
</trkpt>
<trkpt lat="40.0736553" lon="-105.228773">
  <ele>1582.99</ele>
  <time>2026-08-28T17:52:43Z</time>
  <course>117.99</course>
  <speed>4.977730406520626</speed>
  <fix>3d</fix>
</trkpt>
<trkpt lat="40.0736579" lon="-105.2287796">
  <ele>1583.0</ele>
  <time>2026-08-28T17:52:43Z</time>
  <course>117.11</course>
  <speed>5.02</speed>
  <fix>3d</fix>
</trkpt>
<trkpt lat="40.0736532" lon="-105.2287677">
  <ele>1582.98</ele>
  <time>2026-08-28T17:52:43Z</time>
  <course>117.92</course>
  <speed>4.98663213000518</speed>
  <fix>3d</fix>
</trkpt>
<trkpt lat="40.0736579" lon="-105.2287796">
  <ele>1583.0</ele>
  <time>2026-08-28T17:52:43Z</time>
  <course>117.11</course>
  <speed>5.02</speed>
  <fix>3d</fix>
</trkpt>
<trkpt lat="40.0736511" lon="-105.2287624">
  <ele>1582.98</ele>
  <time>2026-08-28T17:52:43Z</time>
  <course>117.86</course>
  <speed>4.982087915723688</speed>
  <fix>3d</fix>
</trkpt>
<trkpt lat="40.0736538" lon="-105.2287691">
  <ele>1583.0</ele>
  <time>2026-08-28T17:52:43Z</time>
  <course>116.98</course>
  <speed>5.02</speed>
  <fix>3d</fix>
</trkpt>
<trkpt lat="40.0736491" lon="-105.2287571">
  <ele>1582.98</ele>
  <time>2026-08-28T17:52:43Z</time>
  <course>117.79</course>
  <speed>4.991001903425804</speed>
  <fix>3d</fix>
</trkpt>
<trkpt lat="40.0736538" lon="-105.2287691">
  <ele>1583.0</ele>
  <time>2026-08-28T17:52:43Z</time>
  <course>116.98</course>
  <speed>5.02</speed>
  <fix>3d</fix>
</trkpt>
<trkpt lat="40.073647" lon="-105.2287519">
  <ele>1582.98</ele>
  <time>2026-08-28T17:52:43Z</time>
  <course>117.73</course>
  <speed>4.991001903425804</speed>
  <fix>3d</fix>
</trkpt>
<trkpt lat="40.0736497" lon="-105.2287585">
  <ele>1583.0</ele>
  <time>2026-08-28T17:52:43Z</time>
  <course>116.84</course>
  <speed>5.03</speed>
  <fix>3d</fix>
</trkpt>
<trkpt lat="40.073645" lon="-105.2287466">
  <ele>1582.98</ele>
  <time>2026-08-28T17:52:43Z</time>
  <course>117.66</course>
  <speed>4.9864817256257945</speed>
  <fix>3d</fix>
</trkpt>
<trkpt lat="40.0736497" lon="-105.2287585">
  <ele>1583.0</ele>
  <time>2026-08-28T17:52:43Z</time>
  <course>116.84</course>
  <speed>5.03</speed>
  <fix>3d</fix>
</trkpt>
<trkpt lat="40.073643" lon="-105.2287413">
  <ele>1582.97</ele>
  <time>2026-08-28T17:52:43Z</time>
  <course>117.59</course>
  <speed>4.995407891253726</speed>
  <fix>3d</fix>
</trkpt>
<trkpt lat="40.0736497" lon="-105.2287585">
  <ele>1583.0</ele>
  <time>2026-08-28T17:52:43Z</time>
  <course>116.84</course>
  <speed>5.03</speed>
  <fix>3d</fix>
</trkpt>
<trkpt lat="40.0736409" lon="-105.228736">
  <ele>1582.97</ele>
  <time>2026-08-28T17:52:43Z</time>
  <course>117.53</course>
  <speed>4.99091174035366</speed>
  <fix>3d</fix>
</trkpt>
<trkpt lat="40.0736456" lon="-105.228748">
  <ele>1583.0</ele>
  <time>2026-08-28T17:52:43Z</time>
  <course>116.7</course>
  <speed>5.03</speed>
  <fix>3d</fix>
</trkpt>
<trkpt lat="40.0736389" lon="-105.2287308">
  <ele>1582.97</ele>
  <time>2026-08-28T17:52:43Z</time>
  <course>117.46</course>
  <speed>4.99091174035366</speed>
  <fix>3d</fix>
</trkpt>
<trkpt lat="40.0736456" lon="-105.228748">
  <ele>1583.0</ele>
  <time>2026-08-28T17:52:43Z</time>
  <course>116.7</course>
  <speed>5.03</speed>
  <fix>3d</fix>
</trkpt>
<trkpt lat="40.0736369" lon="-105.2287255">
  <ele>1582.97</ele>
  <time>2026-08-28T17:52:43Z</time>
  <course>117.39</course>
  <speed>4.977489326959929</speed>
  <fix>3d</fix>
</trkpt>
<trkpt lat="40.0736416" lon="-105.2287374">
  <ele>1583.0</ele>
  <time>2026-08-28T17:52:43Z</time>
  <course>116.57</course>
  <speed>5.03</speed>
  <fix>3d</fix>
</trkpt>
<trkpt lat="40.0736349" lon="-105.2287203">
  <ele>1582.97</ele>
  <time>2026-08-28T17:52:43Z</time>
  <course>117.35</course>
  <speed>4.973017192811624</speed>
  <fix>3d</fix>
</trkpt>
<trkpt lat="40.0736416" lon="-105.2287374">
  <ele>1583.0</ele>
  <time>2026-08-28T17:52:43Z</time>
  <course>116.57</course>
  <speed>5.03</speed>
  <fix>3d</fix>
</trkpt>
<trkpt lat="40.073633" lon="-105.2287151">
  <ele>1582.96</ele>
  <time>2026-08-28T17:52:43Z</time>
  <course>117.3</course>
  <speed>4.973017192811624</speed>
  <fix>3d</fix>
</trkpt>
<trkpt lat="40.0736375" lon="-105.2287269">
  <ele>1583.0</ele>
  <time>2026-08-28T17:52:43Z</time>
  <course>116.44</course>
  <speed>5.02</speed>
  <fix>3d</fix>
</trkpt>
<trkpt lat="40.073631" lon="-105.2287098">
  <ele>1582.96</ele>
  <time>2026-08-28T17:52:43Z</time>
  <course>117.26</course>
  <speed>4.973017192811624</speed>
  <fix>3d</fix>
</trkpt>
<trkpt lat="40.0736375" lon="-105.2287269">
  <ele>1583.0</ele>
  <time>2026-08-28T17:52:43Z</time>
  <course>116.44</course>
  <speed>5.02</speed>
  <fix>3d</fix>
</trkpt>
<trkpt lat="40.073629" lon="-105.2287046">
  <ele>1582.96</ele>
  <time>2026-08-28T17:52:43Z</time>
  <course>117.23</course>
  <speed>4.968561159933528</speed>
  <fix>3d</fix>
</trkpt>
<trkpt lat="40.0736335" lon="-105.2287163">
  <ele>1583.0</ele>
  <time>2026-08-28T17:52:43Z</time>
  <course>116.34</course>
  <speed>5.02</speed>
  <fix>3d</fix>
</trkpt>
<trkpt lat="40.073627" lon="-105.2286993">
  <ele>1582.96</ele>
  <time>2026-08-28T17:52:43Z</time>
  <course>117.22</course>
  <speed>4.968561159933528</speed>
  <fix>3d</fix>
</trkpt>
<trkpt lat="40.0736294" lon="-105.2287057">
  <ele>1583.0</ele>
  <time>2026-08-28T17:52:43Z</time>
  <course>116.27</course>
  <speed>5.02</speed>
  <fix>3d</fix>
</trkpt>
<trkpt lat="40.073625" lon="-105.228694">
  <ele>1582.96</ele>
  <time>2026-08-28T17:52:43Z</time>
  <course>117.18</course>
  <speed>4.968561159933528</speed>
  <fix>3d</fix>
</trkpt>
<trkpt lat="40.0736294" lon="-105.2287057">
  <ele>1583.0</ele>
  <time>2026-08-28T17:52:43Z</time>
  <course>116.27</course>
  <speed>5.02</speed>
  <fix>3d</fix>
</trkpt>
<trkpt lat="40.073623" lon="-105.2286888">
  <ele>1582.96</ele>
  <time>2026-08-28T17:52:43Z</time>
  <course>117.15</course>
  <speed>4.968561159933528</speed>
  <fix>3d</fix>
</trkpt>
<trkpt lat="40.0736255" lon="-105.2286952">
  <ele>1583.0</ele>
  <time>2026-08-28T17:52:43Z</time>
  <course>116.22</course>
  <speed>5.02</speed>
  <fix>3d</fix>
</trkpt>
<trkpt lat="40.073621" lon="-105.2286835">
  <ele>1582.96</ele>
  <time>2026-08-28T17:52:43Z</time>
  <course>117.14</course>
  <speed>4.977519462543567</speed>
  <fix>3d</fix>
</trkpt>
<trkpt lat="40.0736255" lon="-105.2286952">
  <ele>1583.0</ele>
  <time>2026-08-28T17:52:43Z</time>
  <course>116.22</course>
  <speed>5.02</speed>
  <fix>3d</fix>
</trkpt>
<trkpt lat="40.073619" lon="-105.2286782">
  <ele>1582.95</ele>
  <time>2026-08-28T17:52:43Z</time>
  <course>117.11</course>
  <speed>4.977519462543567</speed>
  <fix>3d</fix>
</trkpt>
<trkpt lat="40.0736215" lon="-105.2286845">
  <ele>1583.0</ele>
  <time>2026-08-28T17:52:43Z</time>
  <course>116.17</course>
  <speed>5.03</speed>
  <fix>3d</fix>
</trkpt>
<trkpt lat="40.073617" lon="-105.2286729">
  <ele>1582.95</ele>
  <time>2026-08-28T17:52:43Z</time>
  <course>117.09</course>
  <speed>4.977519462543567</speed>
  <fix>3d</fix>
</trkpt>
<trkpt lat="40.0736215" lon="-105.2286845">
  <ele>1583.0</ele>
  <time>2026-08-28T17:52:43Z</time>
  <course>116.17</course>
  <speed>5.03</speed>
  <fix>3d</fix>
</trkpt>
<trkpt lat="40.073615" lon="-105.2286675">
  <ele>1582.95</ele>
  <time>2026-08-28T17:52:43Z</time>
  <course>117.09</course>
  <speed>4.977519462543567</speed>
  <fix>3d</fix>
</trkpt>
<trkpt lat="40.0736175" lon="-105.228674">
  <ele>1583.0</ele>
  <time>2026-08-28T17:52:43Z</time>
  <course>116.13</course>
  <speed>5.02</speed>
  <fix>3d</fix>
</trkpt>
<trkpt lat="40.073613" lon="-105.2286622">
  <ele>1582.94</ele>
  <time>2026-08-28T17:52:43Z</time>
  <course>117.06</course>
  <speed>4.977519462543567</speed>
  <fix>3d</fix>
</trkpt>
<trkpt lat="40.0736175" lon="-105.228674">
  <ele>1583.0</ele>
  <time>2026-08-28T17:52:43Z</time>
  <course>116.13</course>
  <speed>5.02</speed>
  <fix>3d</fix>
</trkpt>
<trkpt lat="40.073611" lon="-105.2286568">
  <ele>1582.94</ele>
  <time>2026-08-28T17:52:43Z</time>
  <course>117.03</course>
  <speed>4.977519462543567</speed>
  <fix>3d</fix>
</trkpt>
<trkpt lat="40.0736136" lon="-105.2286633">
  <ele>1583.0</ele>
  <time>2026-08-28T17:52:43Z</time>
  <course>116.09</course>
  <speed>5.02</speed>
  <fix>3d</fix>
</trkpt>
<trkpt lat="40.073609" lon="-105.2286515">
  <ele>1582.94</ele>
  <time>2026-08-28T17:52:43Z</time>
  <course>117.03</course>
  <speed>4.977519462543567</speed>
  <fix>3d</fix>
</trkpt>
<trkpt lat="40.0736136" lon="-105.2286633">
  <ele>1583.0</ele>
  <time>2026-08-28T17:52:43Z</time>
  <course>116.09</course>
  <speed>5.02</speed>
  <fix>3d</fix>
</trkpt>
<trkpt lat="40.073607" lon="-105.2286462">
  <ele>1582.94</ele>
  <time>2026-08-28T17:52:43Z</time>
  <course>117.01</course>
  <speed>4.973087572122575</speed>
  <fix>3d</fix>
</trkpt>
<trkpt lat="40.0736096" lon="-105.2286527">
  <ele>1583.0</ele>
  <time>2026-08-28T17:52:43Z</time>
  <course>116.05</course>
  <speed>5.02</speed>
  <fix>3d</fix>
</trkpt>
<trkpt lat="40.073605" lon="-105.2286409">
  <ele>1582.94</ele>
  <time>2026-08-28T17:52:43Z</time>
  <course>116.99</course>
  <speed>4.973087572122575</speed>
  <fix>3d</fix>
</trkpt>
<trkpt lat="40.0736096" lon="-105.2286527">
  <ele>1583.0</ele>
  <time>2026-08-28T17:52:43Z</time>
  <course>116.05</course>
  <speed>5.02</speed>
  <fix>3d</fix>
</trkpt>
<trkpt lat="40.073603" lon="-105.2286355">
  <ele>1582.94</ele>
  <time>2026-08-28T17:52:43Z</time>
  <course>116.98</course>
  <speed>4.973087572122575</speed>
  <fix>3d</fix>
</trkpt>
<trkpt lat="40.0736056" lon="-105.2286422">
  <ele>1583.0</ele>
  <time>2026-08-28T17:52:43Z</time>
  <course>116.02</course>
  <speed>5.01</speed>
  <fix>3d</fix>
</trkpt>
<trkpt lat="40.073601" lon="-105.2286302">
  <ele>1582.95</ele>
  <time>2026-08-28T17:52:43Z</time>
  <course>116.97</course>
  <speed>4.973087572122575</speed>
  <fix>3d</fix>
</trkpt>
<trkpt lat="40.0736056" lon="-105.2286422">
  <ele>1583.0</ele>
  <time>2026-08-28T17:52:43Z</time>
  <course>116.02</course>
  <speed>5.01</speed>
  <fix>3d</fix>
</trkpt>
<trkpt lat="40.073599" lon="-105.2286249">
  <ele>1582.95</ele>
  <time>2026-08-28T17:52:43Z</time>
  <course>116.95</course>
  <speed>4.973087572122575</speed>
  <fix>3d</fix>
</trkpt>
<trkpt lat="40.0736056" lon="-105.2286422">
  <ele>1583.0</ele>
  <time>2026-08-28T17:52:43Z</time>
  <course>116.02</course>
  <speed>5.01</speed>
  <fix>3d</fix>
</trkpt>
<trkpt lat="40.0735971" lon="-105.2286197">
  <ele>1582.95</ele>
  <time>2026-08-28T17:52:43Z</time>
  <course>116.95</course>
  <speed>4.964121271685453</speed>
  <fix>3d</fix>
</trkpt>
<trkpt lat="40.0736017" lon="-105.2286316">
  <ele>1583.0</ele>
  <time>2026-08-28T17:52:44Z</time>
  <course>116.0</course>
  <speed>5.01</speed>
  <fix>3d</fix>
</trkpt>
<trkpt lat="40.0735951" lon="-105.2286144">
  <ele>1582.95</ele>
  <time>2026-08-28T17:52:44Z</time>
  <course>116.94</course>
  <speed>4.959697571425097</speed>
  <fix>3d</fix>
</trkpt>
<trkpt lat="40.0736017" lon="-105.2286316">
  <ele>1583.0</ele>
  <time>2026-08-28T17:52:44Z</time>
  <course>116.0</course>
  <speed>5.01</speed>
  <fix>3d</fix>
</trkpt>
<trkpt lat="40.0735931" lon="-105.2286092">
  <ele>1582.96</ele>
  <time>2026-08-28T17:52:44Z</time>
  <course>116.91</course>
  <speed>4.959697571425097</speed>
  <fix>3d</fix>
</trkpt>
<trkpt lat="40.0735977" lon="-105.228621">
  <ele>1583.0</ele>
  <time>2026-08-28T17:52:44Z</time>
  <course>115.97</course>
  <speed>5.0</speed>
  <fix>3d</fix>
</trkpt>
<trkpt lat="40.0735912" lon="-105.2286039">
  <ele>1582.96</ele>
  <time>2026-08-28T17:52:44Z</time>
  <course>116.91</course>
  <speed>4.95072721930829</speed>
  <fix>3d</fix>
</trkpt>
<trkpt lat="40.0735977" lon="-105.228621">
  <ele>1583.0</ele>
  <time>2026-08-28T17:52:44Z</time>
  <course>115.97</course>
  <speed>5.0</speed>
  <fix>3d</fix>
</trkpt>
<trkpt lat="40.0735892" lon="-105.2285987">
  <ele>1582.96</ele>
  <time>2026-08-28T17:52:44Z</time>
  <course>116.9</course>
  <speed>4.95072721930829</speed>
  <fix>3d</fix>
</trkpt>
<trkpt lat="40.0735938" lon="-105.2286104">
  <ele>1583.0</ele>
  <time>2026-08-28T17:52:44Z</time>
  <course>115.95</course>
  <speed>5.0</speed>
  <fix>3d</fix>
</trkpt>
<trkpt lat="40.0735873" lon="-105.2285935">
  <ele>1582.96</ele>
  <time>2026-08-28T17:52:44Z</time>
  <course>116.9</course>
  <speed>4.95072721930829</speed>
  <fix>3d</fix>
</trkpt>
<trkpt lat="40.0735899" lon="-105.2285998">
  <ele>1583.0</ele>
  <time>2026-08-28T17:52:44Z</time>
  <course>115.93</course>
  <speed>5.0</speed>
  <fix>3d</fix>
</trkpt>
<trkpt lat="40.0735853" lon="-105.2285882">
  <ele>1582.96</ele>
  <time>2026-08-28T17:52:44Z</time>
  <course>116.88</course>
  <speed>4.95072721930829</speed>
  <fix>3d</fix>
</trkpt>
<trkpt lat="40.0735899" lon="-105.2285998">
  <ele>1583.0</ele>
  <time>2026-08-28T17:52:44Z</time>
  <course>115.93</course>
  <speed>5.0</speed>
  <fix>3d</fix>
</trkpt>
<trkpt lat="40.0735834" lon="-105.2285829">
  <ele>1582.96</ele>
  <time>2026-08-28T17:52:44Z</time>
  <course>116.87</course>
  <speed>4.95072721930829</speed>
  <fix>3d</fix>
</trkpt>
<trkpt lat="40.0735859" lon="-105.2285893">
  <ele>1583.0</ele>
  <time>2026-08-28T17:52:44Z</time>
  <course>115.91</course>
  <speed>5.0</speed>
  <fix>3d</fix>
</trkpt>
<trkpt lat="40.0735814" lon="-105.2285776">
  <ele>1582.96</ele>
  <time>2026-08-28T17:52:44Z</time>
  <course>116.87</course>
  <speed>4.95072721930829</speed>
  <fix>3d</fix>
</trkpt>
<trkpt lat="40.0735859" lon="-105.2285893">
  <ele>1583.0</ele>
  <time>2026-08-28T17:52:44Z</time>
  <course>115.91</course>
  <speed>5.0</speed>
  <fix>3d</fix>
</trkpt>
<trkpt lat="40.0735794" lon="-105.2285724">
  <ele>1582.96</ele>
  <time>2026-08-28T17:52:44Z</time>
  <course>116.86</course>
  <speed>4.959697571425097</speed>
  <fix>3d</fix>
</trkpt>
<trkpt lat="40.073582" lon="-105.2285787">
  <ele>1583.0</ele>
  <time>2026-08-28T17:52:44Z</time>
  <course>115.89</course>
  <speed>5.0</speed>
  <fix>3d</fix>
</trkpt>
<trkpt lat="40.0735775" lon="-105.228567">
  <ele>1582.96</ele>
  <time>2026-08-28T17:52:44Z</time>
  <course>116.85</course>
  <speed>4.959697571425097</speed>
  <fix>3d</fix>
</trkpt>
<trkpt lat="40.073582" lon="-105.2285787">
  <ele>1583.0</ele>
  <time>2026-08-28T17:52:44Z</time>
  <course>115.89</course>
  <speed>5.0</speed>
  <fix>3d</fix>
</trkpt>
<trkpt lat="40.0735755" lon="-105.2285617">
  <ele>1582.96</ele>
  <time>2026-08-28T17:52:44Z</time>
  <course>116.84</course>
  <speed>4.959697571425097</speed>
  <fix>3d</fix>
</trkpt>
<trkpt lat="40.0735781" lon="-105.2285682">
  <ele>1583.0</ele>
  <time>2026-08-28T17:52:44Z</time>
  <course>115.88</course>
  <speed>5.0</speed>
  <fix>3d</fix>
</trkpt>
<trkpt lat="40.0735735" lon="-105.2285564">
  <ele>1582.96</ele>
  <time>2026-08-28T17:52:44Z</time>
  <course>116.84</course>
  <speed>4.959697571425097</speed>
  <fix>3d</fix>
</trkpt>
<trkpt lat="40.0735781" lon="-105.2285682">
  <ele>1583.0</ele>
  <time>2026-08-28T17:52:44Z</time>
  <course>115.88</course>
  <speed>5.0</speed>
  <fix>3d</fix>
</trkpt>
<trkpt lat="40.0735715" lon="-105.2285511">
  <ele>1582.97</ele>
  <time>2026-08-28T17:52:44Z</time>
  <course>116.84</course>
  <speed>4.959697571425097</speed>
  <fix>3d</fix>
</trkpt>
<trkpt lat="40.0735741" lon="-105.2285577">
  <ele>1583.0</ele>
  <time>2026-08-28T17:52:44Z</time>
  <course>115.87</course>
  <speed>5.0</speed>
  <fix>3d</fix>
</trkpt>
<trkpt lat="40.0735695" lon="-105.2285457">
  <ele>1582.97</ele>
  <time>2026-08-28T17:52:44Z</time>
  <course>116.82</course>
  <speed>4.959697571425097</speed>
  <fix>3d</fix>
</trkpt>
<trkpt lat="40.0735741" lon="-105.2285577">
  <ele>1583.0</ele>
  <time>2026-08-28T17:52:44Z</time>
  <course>115.87</course>
  <speed>5.0</speed>
  <fix>3d</fix>
</trkpt>
<trkpt lat="40.0735676" lon="-105.2285404">
  <ele>1582.97</ele>
  <time>2026-08-28T17:52:44Z</time>
  <course>116.82</course>
  <speed>4.959697571425097</speed>
  <fix>3d</fix>
</trkpt>
<trkpt lat="40.0735702" lon="-105.2285471">
  <ele>1583.0</ele>
  <time>2026-08-28T17:52:44Z</time>
  <course>115.87</course>
  <speed>5.0</speed>
  <fix>3d</fix>
</trkpt>
<trkpt lat="40.0735656" lon="-105.2285351">
  <ele>1582.97</ele>
  <time>2026-08-28T17:52:44Z</time>
  <course>116.81</course>
  <speed>4.968671854731403</speed>
  <fix>3d</fix>
</trkpt>
<trkpt lat="40.0735702" lon="-105.2285471">
  <ele>1583.0</ele>
  <time>2026-08-28T17:52:44Z</time>
  <course>115.87</course>
  <speed>5.0</speed>
  <fix>3d</fix>
</trkpt>
<trkpt lat="40.0735636" lon="-105.2285298">
  <ele>1582.98</ele>
  <time>2026-08-28T17:52:44Z</time>
  <course>116.81</course>
  <speed>4.959697571425097</speed>
  <fix>3d</fix>
</trkpt>
<trkpt lat="40.0735663" lon="-105.2285365">
  <ele>1583.0</ele>
  <time>2026-08-28T17:52:44Z</time>
  <course>115.85</course>
  <speed>4.99</speed>
  <fix>3d</fix>
</trkpt>
<trkpt lat="40.0735617" lon="-105.2285245">
  <ele>1582.98</ele>
  <time>2026-08-28T17:52:44Z</time>
  <course>116.8</course>
  <speed>4.959697571425097</speed>
  <fix>3d</fix>
</trkpt>
<trkpt lat="40.0735663" lon="-105.2285365">
  <ele>1583.0</ele>
  <time>2026-08-28T17:52:44Z</time>
  <course>115.85</course>
  <speed>4.99</speed>
  <fix>3d</fix>
</trkpt>
<trkpt lat="40.0735597" lon="-105.2285192">
  <ele>1582.98</ele>
  <time>2026-08-28T17:52:44Z</time>
  <course>116.79</course>
  <speed>4.959697571425097</speed>
  <fix>3d</fix>
</trkpt>
<trkpt lat="40.0735663" lon="-105.2285365">
  <ele>1583.0</ele>
  <time>2026-08-28T17:52:44Z</time>
  <course>115.85</course>
  <speed>4.99</speed>
  <fix>3d</fix>
</trkpt>
<trkpt lat="40.0735577" lon="-105.228514">
  <ele>1582.98</ele>
  <time>2026-08-28T17:52:44Z</time>
  <course>116.79</course>
  <speed>4.959697571425097</speed>
  <fix>3d</fix>
</trkpt>
<trkpt lat="40.0735624" lon="-105.2285259">
  <ele>1583.0</ele>
  <time>2026-08-28T17:52:44Z</time>
  <course>115.84</course>
  <speed>4.99</speed>
  <fix>3d</fix>
</trkpt>
<trkpt lat="40.0735558" lon="-105.2285087">
  <ele>1582.99</ele>
  <time>2026-08-28T17:52:44Z</time>
  <course>116.78</course>
  <speed>4.955290102506613</speed>
  <fix>3d</fix>
</trkpt>
<trkpt lat="40.0735624" lon="-105.2285259">
  <ele>1583.0</ele>
  <time>2026-08-28T17:52:44Z</time>
  <course>115.84</course>
  <speed>4.99</speed>
  <fix>3d</fix>
</trkpt>
<trkpt lat="40.0735539" lon="-105.2285035">
  <ele>1582.99</ele>
  <time>2026-08-28T17:52:44Z</time>
  <course>116.77</course>
  <speed>4.955290102506613</speed>
  <fix>3d</fix>
</trkpt>
<trkpt lat="40.0735585" lon="-105.2285153">
  <ele>1583.0</ele>
  <time>2026-08-28T17:52:44Z</time>
  <course>115.83</course>
  <speed>4.99</speed>
  <fix>3d</fix>
</trkpt>
<trkpt lat="40.0735519" lon="-105.2284983">
  <ele>1582.99</ele>
  <time>2026-08-28T17:52:44Z</time>
  <course>116.77</course>
  <speed>4.955290102506613</speed>
  <fix>3d</fix>
</trkpt>
<trkpt lat="40.0735585" lon="-105.2285153">
  <ele>1583.0</ele>
  <time>2026-08-28T17:52:44Z</time>
  <course>115.83</course>
  <speed>4.99</speed>
  <fix>3d</fix>
</trkpt>
<trkpt lat="40.07355" lon="-105.228493">
  <ele>1582.99</ele>
  <time>2026-08-28T17:52:44Z</time>
  <course>116.77</course>
  <speed>4.955290102506613</speed>
  <fix>3d</fix>
</trkpt>
<trkpt lat="40.0735546" lon="-105.2285048">
  <ele>1583.0</ele>
  <time>2026-08-28T17:52:44Z</time>
  <course>115.82</course>
  <speed>4.99</speed>
  <fix>3d</fix>
</trkpt>
<trkpt lat="40.0735481" lon="-105.2284878">
  <ele>1582.99</ele>
  <time>2026-08-28T17:52:44Z</time>
  <course>116.77</course>
  <speed>4.9463117572591395</speed>
  <fix>3d</fix>
</trkpt>
<trkpt lat="40.0735546" lon="-105.2285048">
  <ele>1583.0</ele>
  <time>2026-08-28T17:52:44Z</time>
  <course>115.82</course>
  <speed>4.99</speed>
  <fix>3d</fix>
</trkpt>
<trkpt lat="40.0735461" lon="-105.2284826">
  <ele>1582.99</ele>
  <time>2026-08-28T17:52:44Z</time>
  <course>116.77</course>
  <speed>4.9463117572591395</speed>
  <fix>3d</fix>
</trkpt>
<trkpt lat="40.0735507" lon="-105.2284943">
  <ele>1583.0</ele>
  <time>2026-08-28T17:52:44Z</time>
  <course>115.82</course>
  <speed>4.99</speed>
  <fix>3d</fix>
</trkpt>
<trkpt lat="40.0735442" lon="-105.2284773">
  <ele>1582.99</ele>
  <time>2026-08-28T17:52:44Z</time>
  <course>116.77</course>
  <speed>4.9463117572591395</speed>
  <fix>3d</fix>
</trkpt>
<trkpt lat="40.0735468" lon="-105.2284837">
  <ele>1583.0</ele>
  <time>2026-08-28T17:52:44Z</time>
  <course>115.82</course>
  <speed>4.99</speed>
  <fix>3d</fix>
</trkpt>
<trkpt lat="40.0735422" lon="-105.2284721">
  <ele>1582.98</ele>
  <time>2026-08-28T17:52:44Z</time>
  <course>116.77</course>
  <speed>4.955290102506613</speed>
  <fix>3d</fix>
</trkpt>
<trkpt lat="40.0735468" lon="-105.2284837">
  <ele>1583.0</ele>
  <time>2026-08-28T17:52:44Z</time>
  <course>115.82</course>
  <speed>4.99</speed>
  <fix>3d</fix>
</trkpt>
<trkpt lat="40.0735403" lon="-105.2284668">
  <ele>1582.98</ele>
  <time>2026-08-28T17:52:44Z</time>
  <course>116.77</course>
  <speed>4.955290102506613</speed>
  <fix>3d</fix>
</trkpt>
<trkpt lat="40.0735428" lon="-105.2284732">
  <ele>1583.0</ele>
  <time>2026-08-28T17:52:44Z</time>
  <course>115.82</course>
  <speed>4.99</speed>
  <fix>3d</fix>
</trkpt>
<trkpt lat="40.0735383" lon="-105.2284615">
  <ele>1582.98</ele>
  <time>2026-08-28T17:52:44Z</time>
  <course>116.76</course>
  <speed>4.955290102506613</speed>
  <fix>3d</fix>
</trkpt>
<trkpt lat="40.0735428" lon="-105.2284732">
  <ele>1583.0</ele>
  <time>2026-08-28T17:52:44Z</time>
  <course>115.82</course>
  <speed>4.99</speed>
  <fix>3d</fix>
</trkpt>
<trkpt lat="40.0735364" lon="-105.2284562">
  <ele>1582.98</ele>
  <time>2026-08-28T17:52:44Z</time>
  <course>116.76</course>
  <speed>4.959697571425097</speed>
  <fix>3d</fix>
</trkpt>
<trkpt lat="40.0735389" lon="-105.2284626">
  <ele>1583.0</ele>
  <time>2026-08-28T17:52:44Z</time>
  <course>115.82</course>
  <speed>5.0</speed>
  <fix>3d</fix>
</trkpt>
<trkpt lat="40.0735344" lon="-105.2284509">
  <ele>1582.99</ele>
  <time>2026-08-28T17:52:44Z</time>
  <course>116.76</course>
  <speed>4.968671854731403</speed>
  <fix>3d</fix>
</trkpt>
<trkpt lat="40.0735389" lon="-105.2284626">
  <ele>1583.0</ele>
  <time>2026-08-28T17:52:44Z</time>
  <course>115.82</course>
  <speed>5.0</speed>
  <fix>3d</fix>
</trkpt>
<trkpt lat="40.0735324" lon="-105.2284455">
  <ele>1582.99</ele>
  <time>2026-08-28T17:52:44Z</time>
  <course>116.76</course>
  <speed>4.968671854731403</speed>
  <fix>3d</fix>
</trkpt>
<trkpt lat="40.073535" lon="-105.228452">
  <ele>1583.0</ele>
  <time>2026-08-28T17:52:44Z</time>
  <course>115.82</course>
  <speed>5.0</speed>
  <fix>3d</fix>
</trkpt>
<trkpt lat="40.0735304" lon="-105.2284402">
  <ele>1582.99</ele>
  <time>2026-08-28T17:52:44Z</time>
  <course>116.76</course>
  <speed>4.968671854731403</speed>
  <fix>3d</fix>
</trkpt>
<trkpt lat="40.073535" lon="-105.228452">
  <ele>1583.0</ele>
  <time>2026-08-28T17:52:44Z</time>
  <course>115.82</course>
  <speed>5.0</speed>
  <fix>3d</fix>
</trkpt>
<trkpt lat="40.0735284" lon="-105.2284349">
  <ele>1582.99</ele>
  <time>2026-08-28T17:52:44Z</time>
  <course>116.75</course>
  <speed>4.968671854731403</speed>
  <fix>3d</fix>
</trkpt>
<trkpt lat="40.0735311" lon="-105.2284415">
  <ele>1583.0</ele>
  <time>2026-08-28T17:52:44Z</time>
  <course>115.82</course>
  <speed>5.0</speed>
  <fix>3d</fix>
</trkpt>
<trkpt lat="40.0735265" lon="-105.2284296">
  <ele>1582.99</ele>
  <time>2026-08-28T17:52:44Z</time>
  <course>116.75</course>
  <speed>4.968671854731403</speed>
  <fix>3d</fix>
</trkpt>
<trkpt lat="40.0735311" lon="-105.2284415">
  <ele>1583.0</ele>
  <time>2026-08-28T17:52:44Z</time>
  <course>115.82</course>
  <speed>5.0</speed>
  <fix>3d</fix>
</trkpt>
<trkpt lat="40.0735245" lon="-105.2284242">
  <ele>1582.99</ele>
  <time>2026-08-28T17:52:44Z</time>
  <course>116.75</course>
  <speed>4.968671854731403</speed>
  <fix>3d</fix>
</trkpt>
<trkpt lat="40.0735272" lon="-105.2284308">
  <ele>1583.0</ele>
  <time>2026-08-28T17:52:44Z</time>
  <course>115.82</course>
  <speed>5.0</speed>
  <fix>3d</fix>
</trkpt>
<trkpt lat="40.0735225" lon="-105.2284189">
  <ele>1582.99</ele>
  <time>2026-08-28T17:52:44Z</time>
  <course>116.75</course>
  <speed>4.968671854731403</speed>
  <fix>3d</fix>
</trkpt>
<trkpt lat="40.0735272" lon="-105.2284308">
  <ele>1583.0</ele>
  <time>2026-08-28T17:52:44Z</time>
  <course>115.82</course>
  <speed>5.0</speed>
  <fix>3d</fix>
</trkpt>
<trkpt lat="40.0735206" lon="-105.2284136">
  <ele>1582.99</ele>
  <time>2026-08-28T17:52:44Z</time>
  <course>116.75</course>
  <speed>4.968671854731403</speed>
  <fix>3d</fix>
</trkpt>
<trkpt lat="40.0735233" lon="-105.2284203">
  <ele>1583.0</ele>
  <time>2026-08-28T17:52:44Z</time>
  <course>115.82</course>
  <speed>5.0</speed>
  <fix>3d</fix>
</trkpt>
<trkpt lat="40.0735186" lon="-105.2284083">
  <ele>1582.99</ele>
  <time>2026-08-28T17:52:44Z</time>
  <course>116.75</course>
  <speed>4.968671854731403</speed>
  <fix>3d</fix>
</trkpt>
<trkpt lat="40.0735233" lon="-105.2284203">
  <ele>1583.0</ele>
  <time>2026-08-28T17:52:44Z</time>
  <course>115.82</course>
  <speed>5.0</speed>
  <fix>3d</fix>
</trkpt>
<trkpt lat="40.0735166" lon="-105.228403">
  <ele>1582.99</ele>
  <time>2026-08-28T17:52:44Z</time>
  <course>116.74</course>
  <speed>4.968671854731403</speed>
  <fix>3d</fix>
</trkpt>
<trkpt lat="40.0735233" lon="-105.2284203">
  <ele>1583.0</ele>
  <time>2026-08-28T17:52:44Z</time>
  <course>115.82</course>
  <speed>5.0</speed>
  <fix>3d</fix>
</trkpt>
<trkpt lat="40.0735147" lon="-105.2283977">
  <ele>1582.99</ele>
  <time>2026-08-28T17:52:44Z</time>
  <course>116.74</course>
  <speed>4.968671854731403</speed>
  <fix>3d</fix>
</trkpt>
<trkpt lat="40.0735193" lon="-105.2284098">
  <ele>1583.0</ele>
  <time>2026-08-28T17:52:44Z</time>
  <course>115.82</course>
  <speed>4.99</speed>
  <fix>3d</fix>
</trkpt>
<trkpt lat="40.0735127" lon="-105.2283925">
  <ele>1582.99</ele>
  <time>2026-08-28T17:52:44Z</time>
  <course>116.74</course>
  <speed>4.968671854731403</speed>
  <fix>3d</fix>
</trkpt>
<trkpt lat="40.0735193" lon="-105.2284098">
  <ele>1583.0</ele>
  <time>2026-08-28T17:52:44Z</time>
  <course>115.82</course>
  <speed>4.99</speed>
  <fix>3d</fix>
</trkpt>
<trkpt lat="40.0735108" lon="-105.2283873">
  <ele>1582.99</ele>
  <time>2026-08-28T17:52:44Z</time>
  <course>116.74</course>
  <speed>4.955290102506613</speed>
  <fix>3d</fix>
</trkpt>
<trkpt lat="40.0735154" lon="-105.2283992">
  <ele>1583.0</ele>
  <time>2026-08-28T17:52:44Z</time>
  <course>115.82</course>
  <speed>4.99</speed>
  <fix>3d</fix>
</trkpt>
<trkpt lat="40.0735089" lon="-105.228382">
  <ele>1582.99</ele>
  <time>2026-08-28T17:52:44Z</time>
  <course>116.74</course>
  <speed>4.955290102506613</speed>
  <fix>3d</fix>
</trkpt>
<trkpt lat="40.0735154" lon="-105.2283992">
  <ele>1583.0</ele>
  <time>2026-08-28T17:52:44Z</time>
  <course>115.82</course>
  <speed>4.99</speed>
  <fix>3d</fix>
</trkpt>
<trkpt lat="40.0735069" lon="-105.2283768">
  <ele>1582.99</ele>
  <time>2026-08-28T17:52:44Z</time>
  <course>116.74</course>
  <speed>4.955290102506613</speed>
  <fix>3d</fix>
</trkpt>
<trkpt lat="40.0735115" lon="-105.2283886">
  <ele>1583.0</ele>
  <time>2026-08-28T17:52:44Z</time>
  <course>115.82</course>
  <speed>4.99</speed>
  <fix>3d</fix>
</trkpt>
<trkpt lat="40.073505" lon="-105.2283716">
  <ele>1582.99</ele>
  <time>2026-08-28T17:52:44Z</time>
  <course>116.74</course>
  <speed>4.955290102506613</speed>
  <fix>3d</fix>
</trkpt>
<trkpt lat="40.0735076" lon="-105.228378">
  <ele>1583.0</ele>
  <time>2026-08-28T17:52:44Z</time>
  <course>115.82</course>
  <speed>4.98</speed>
  <fix>3d</fix>
</trkpt>
<trkpt lat="40.073503" lon="-105.2283663">
  <ele>1583.0</ele>
  <time>2026-08-28T17:52:44Z</time>
  <course>116.74</course>
  <speed>4.955290102506613</speed>
  <fix>3d</fix>
</trkpt>
<trkpt lat="40.0735076" lon="-105.228378">
  <ele>1583.0</ele>
  <time>2026-08-28T17:52:44Z</time>
  <course>115.82</course>
  <speed>4.98</speed>
  <fix>3d</fix>
</trkpt>
<trkpt lat="40.0735011" lon="-105.228361">
  <ele>1583.0</ele>
  <time>2026-08-28T17:52:44Z</time>
  <course>116.73</course>
  <speed>4.955290102506613</speed>
  <fix>3d</fix>
</trkpt>
<trkpt lat="40.0735037" lon="-105.2283675">
  <ele>1583.0</ele>
  <time>2026-08-28T17:52:44Z</time>
  <course>115.82</course>
  <speed>4.99</speed>
  <fix>3d</fix>
</trkpt>
<trkpt lat="40.0734991" lon="-105.2283558">
  <ele>1583.0</ele>
  <time>2026-08-28T17:52:44Z</time>
  <course>116.73</course>
  <speed>4.955290102506613</speed>
  <fix>3d</fix>
</trkpt>
<trkpt lat="40.0735037" lon="-105.2283675">
  <ele>1583.0</ele>
  <time>2026-08-28T17:52:44Z</time>
  <course>115.82</course>
  <speed>4.99</speed>
  <fix>3d</fix>
</trkpt>
<trkpt lat="40.0734972" lon="-105.2283505">
  <ele>1583.0</ele>
  <time>2026-08-28T17:52:44Z</time>
  <course>116.73</course>
  <speed>4.955290102506613</speed>
  <fix>3d</fix>
</trkpt>
<trkpt lat="40.0734998" lon="-105.2283569">
  <ele>1583.0</ele>
  <time>2026-08-28T17:52:44Z</time>
  <course>115.82</course>
  <speed>4.99</speed>
  <fix>3d</fix>
</trkpt>
<trkpt lat="40.0734952" lon="-105.2283452">
  <ele>1583.0</ele>
  <time>2026-08-28T17:52:44Z</time>
  <course>116.73</course>
  <speed>4.955290102506613</speed>
  <fix>3d</fix>
</trkpt>
<trkpt lat="40.0734998" lon="-105.2283569">
  <ele>1583.0</ele>
  <time>2026-08-28T17:52:44Z</time>
  <course>115.82</course>
  <speed>4.99</speed>
  <fix>3d</fix>
</trkpt>
<trkpt lat="40.0734932" lon="-105.2283399">
  <ele>1583.0</ele>
  <time>2026-08-28T17:52:44Z</time>
  <course>116.73</course>
  <speed>4.955290102506613</speed>
  <fix>3d</fix>
</trkpt>
<trkpt lat="40.0734959" lon="-105.2283464">
  <ele>1583.0</ele>
  <time>2026-08-28T17:52:44Z</time>
  <course>115.82</course>
  <speed>4.99</speed>
  <fix>3d</fix>
</trkpt>
<trkpt lat="40.0734913" lon="-105.2283345">
  <ele>1583.01</ele>
  <time>2026-08-28T17:52:44Z</time>
  <course>116.72</course>
  <speed>4.964272353527756</speed>
  <fix>3d</fix>
</trkpt>
<trkpt lat="40.0734959" lon="-105.2283464">
  <ele>1583.0</ele>
  <time>2026-08-28T17:52:44Z</time>
  <course>115.82</course>
  <speed>4.99</speed>
  <fix>3d</fix>
</trkpt>
<trkpt lat="40.0734893" lon="-105.2283292">
  <ele>1583.01</ele>
  <time>2026-08-28T17:52:44Z</time>
  <course>116.72</course>
  <speed>4.968671854731403</speed>
  <fix>3d</fix>
</trkpt>
<trkpt lat="40.073492" lon="-105.2283358">
  <ele>1583.0</ele>
  <time>2026-08-28T17:52:44Z</time>
  <course>115.82</course>
  <speed>4.99</speed>
  <fix>3d</fix>
</trkpt>
<trkpt lat="40.0734873" lon="-105.2283239">
  <ele>1583.01</ele>
  <time>2026-08-28T17:52:44Z</time>
  <course>116.72</course>
  <speed>4.968671854731403</speed>
  <fix>3d</fix>
</trkpt>
<trkpt lat="40.073492" lon="-105.2283358">
  <ele>1583.0</ele>
  <time>2026-08-28T17:52:44Z</time>
  <course>115.82</course>
  <speed>4.99</speed>
  <fix>3d</fix>
</trkpt>
<trkpt lat="40.0734854" lon="-105.2283186">
  <ele>1583.01</ele>
  <time>2026-08-28T17:52:44Z</time>
  <course>116.72</course>
  <speed>4.968671854731403</speed>
  <fix>3d</fix>
</trkpt>
<trkpt lat="40.0734881" lon="-105.2283253">
  <ele>1583.0</ele>
  <time>2026-08-28T17:52:44Z</time>
  <course>115.82</course>
  <speed>4.99</speed>
  <fix>3d</fix>
</trkpt>
<trkpt lat="40.0734834" lon="-105.2283133">
  <ele>1583.01</ele>
  <time>2026-08-28T17:52:44Z</time>
  <course>116.72</course>
  <speed>4.964272353527756</speed>
  <fix>3d</fix>
</trkpt>
<trkpt lat="40.0734881" lon="-105.2283253">
  <ele>1583.0</ele>
  <time>2026-08-28T17:52:44Z</time>
  <course>115.82</course>
  <speed>4.99</speed>
  <fix>3d</fix>
</trkpt>
<trkpt lat="40.0734815" lon="-105.228308">
  <ele>1583.02</ele>
  <time>2026-08-28T17:52:44Z</time>
  <course>116.72</course>
  <speed>4.964272353527756</speed>
  <fix>3d</fix>
</trkpt>
<trkpt lat="40.0734842" lon="-105.2283148">
  <ele>1583.0</ele>
  <time>2026-08-28T17:52:44Z</time>
  <course>115.82</course>
  <speed>4.98</speed>
  <fix>3d</fix>
</trkpt>
<trkpt lat="40.0734795" lon="-105.2283027">
  <ele>1583.02</ele>
  <time>2026-08-28T17:52:44Z</time>
  <course>116.72</course>
  <speed>4.964272353527756</speed>
  <fix>3d</fix>
</trkpt>
<trkpt lat="40.0734842" lon="-105.2283148">
  <ele>1583.0</ele>
  <time>2026-08-28T17:52:44Z</time>
  <course>115.82</course>
  <speed>4.98</speed>
  <fix>3d</fix>
</trkpt>
<trkpt lat="40.0734775" lon="-105.2282974">
  <ele>1583.01</ele>
  <time>2026-08-28T17:52:44Z</time>
  <course>116.71</course>
  <speed>4.964272353527756</speed>
  <fix>3d</fix>
</trkpt>
<trkpt lat="40.0734842" lon="-105.2283148">
  <ele>1583.0</ele>
  <time>2026-08-28T17:52:44Z</time>
  <course>115.82</course>
  <speed>4.98</speed>
  <fix>3d</fix>
</trkpt>
<trkpt lat="40.0734756" lon="-105.2282922">
  <ele>1583.02</ele>
  <time>2026-08-28T17:52:44Z</time>
  <course>116.71</course>
  <speed>4.955290102506613</speed>
  <fix>3d</fix>
</trkpt>
<trkpt lat="40.0734803" lon="-105.2283042">
  <ele>1583.0</ele>
  <time>2026-08-28T17:52:44Z</time>
  <course>115.82</course>
  <speed>4.98</speed>
  <fix>3d</fix>
</trkpt>
<trkpt lat="40.0734737" lon="-105.2282869">
  <ele>1583.02</ele>
  <time>2026-08-28T17:52:44Z</time>
  <course>116.71</course>
  <speed>4.955290102506613</speed>
  <fix>3d</fix>
</trkpt>
<trkpt lat="40.0734803" lon="-105.2283042">
  <ele>1583.0</ele>
  <time>2026-08-28T17:52:44Z</time>
  <course>115.82</course>
  <speed>4.98</speed>
  <fix>3d</fix>
</trkpt>
<trkpt lat="40.0734717" lon="-105.2282817">
  <ele>1583.02</ele>
  <time>2026-08-28T17:52:44Z</time>
  <course>116.71</course>
  <speed>4.955290102506613</speed>
  <fix>3d</fix>
</trkpt>
<trkpt lat="40.0734764" lon="-105.2282937">
  <ele>1583.0</ele>
  <time>2026-08-28T17:52:44Z</time>
  <course>115.82</course>
  <speed>4.98</speed>
  <fix>3d</fix>
</trkpt>
<trkpt lat="40.0734698" lon="-105.2282765">
  <ele>1583.02</ele>
  <time>2026-08-28T17:52:44Z</time>
  <course>116.71</course>
  <speed>4.9463117572591395</speed>
  <fix>3d</fix>
</trkpt>
<trkpt lat="40.0734764" lon="-105.2282937">
  <ele>1583.0</ele>
  <time>2026-08-28T17:52:44Z</time>
  <course>115.82</course>
  <speed>4.98</speed>
  <fix>3d</fix>
</trkpt>
<trkpt lat="40.0734679" lon="-105.2282713">
  <ele>1583.03</ele>
  <time>2026-08-28T17:52:44Z</time>
  <course>116.71</course>
  <speed>4.932930163705949</speed>
  <fix>3d</fix>
</trkpt>
<trkpt lat="40.0734725" lon="-105.2282831">
  <ele>1583.0</ele>
  <time>2026-08-28T17:52:44Z</time>
  <course>115.82</course>
  <speed>4.97</speed>
  <fix>3d</fix>
</trkpt>
<trkpt lat="40.073466" lon="-105.2282661">
  <ele>1583.03</ele>
  <time>2026-08-28T17:52:44Z</time>
  <course>116.71</course>
  <speed>4.919552825206779</speed>
  <fix>3d</fix>
</trkpt>
<trkpt lat="40.0734686" lon="-105.2282726">
  <ele>1583.0</ele>
  <time>2026-08-28T17:52:44Z</time>
  <course>115.82</course>
  <speed>4.96</speed>
  <fix>3d</fix>
</trkpt>
<trkpt lat="40.073464" lon="-105.2282609">
  <ele>1583.03</ele>
  <time>2026-08-28T17:52:44Z</time>
  <course>116.71</course>
  <speed>4.897193073588175</speed>
  <fix>3d</fix>
</trkpt>
<trkpt lat="40.0734686" lon="-105.2282726">
  <ele>1583.0</ele>
  <time>2026-08-28T17:52:44Z</time>
  <course>115.82</course>
  <speed>4.96</speed>
  <fix>3d</fix>
</trkpt>
<trkpt lat="40.0734621" lon="-105.2282557">
  <ele>1583.03</ele>
  <time>2026-08-28T17:52:44Z</time>
  <course>116.71</course>
  <speed>4.865850388164437</speed>
  <fix>3d</fix>
</trkpt>
<trkpt lat="40.0734647" lon="-105.2282621">
  <ele>1583.0</ele>
  <time>2026-08-28T17:52:44Z</time>
  <course>115.82</course>
  <speed>4.92</speed>
  <fix>3d</fix>
</trkpt>
<trkpt lat="40.0734602" lon="-105.2282505">
  <ele>1583.03</ele>
  <time>2026-08-28T17:52:44Z</time>
  <course>116.7</course>
  <speed>4.821130572801363</speed>
  <fix>3d</fix>
</trkpt>
<trkpt lat="40.0734647" lon="-105.2282621">
  <ele>1583.0</ele>
  <time>2026-08-28T17:52:44Z</time>
  <course>115.82</course>
  <speed>4.92</speed>
  <fix>3d</fix>
</trkpt>
<trkpt lat="40.0734583" lon="-105.2282454">
  <ele>1583.03</ele>
  <time>2026-08-28T17:52:44Z</time>
  <course>116.7</course>
  <speed>4.776410786354122</speed>
  <fix>3d</fix>
</trkpt>
<trkpt lat="40.0734609" lon="-105.2282519">
  <ele>1583.0</ele>
  <time>2026-08-28T17:52:44Z</time>
  <course>115.82</course>
  <speed>4.85</speed>
  <fix>3d</fix>
</trkpt>
<trkpt lat="40.0734565" lon="-105.2282404">
  <ele>1583.03</ele>
  <time>2026-08-28T17:52:44Z</time>
  <course>116.7</course>
  <speed>4.709331162702407</speed>
  <fix>3d</fix>
</trkpt>
<trkpt lat="40.0734609" lon="-105.2282519">
  <ele>1583.0</ele>
  <time>2026-08-28T17:52:44Z</time>
  <course>115.82</course>
  <speed>4.85</speed>
  <fix>3d</fix>
</trkpt>
<trkpt lat="40.0734546" lon="-105.2282354">
  <ele>1583.03</ele>
  <time>2026-08-28T17:52:44Z</time>
  <course>116.7</course>
  <speed>4.642251608863957</speed>
  <fix>3d</fix>
</trkpt>
<trkpt lat="40.0734571" lon="-105.2282417">
  <ele>1583.0</ele>
  <time>2026-08-28T17:52:44Z</time>
  <course>115.82</course>
  <speed>4.73</speed>
  <fix>3d</fix>
</trkpt>
<trkpt lat="40.0734528" lon="-105.2282305">
  <ele>1583.03</ele>
  <time>2026-08-28T17:52:44Z</time>
  <course>116.7</course>
  <speed>4.552812317677943</speed>
  <fix>3d</fix>
</trkpt>
<trkpt lat="40.0734571" lon="-105.2282417">
  <ele>1583.0</ele>
  <time>2026-08-28T17:52:44Z</time>
  <course>115.82</course>
  <speed>4.73</speed>
  <fix>3d</fix>
</trkpt>
<trkpt lat="40.073451" lon="-105.2282256">
  <ele>1583.03</ele>
  <time>2026-08-28T17:52:44Z</time>
  <course>116.7</course>
  <speed>4.463373163875053</speed>
  <fix>3d</fix>
</trkpt>
<trkpt lat="40.0734535" lon="-105.2282319">
  <ele>1583.0</ele>
  <time>2026-08-28T17:52:44Z</time>
  <course>115.82</course>
  <speed>4.58</speed>
  <fix>3d</fix>
</trkpt>
<trkpt lat="40.0734493" lon="-105.2282209">
  <ele>1583.03</ele>
  <time>2026-08-28T17:52:44Z</time>
  <course>116.7</course>
  <speed>4.351574427721534</speed>
  <fix>3d</fix>
</trkpt>
<trkpt lat="40.0734535" lon="-105.2282319">
  <ele>1583.0</ele>
  <time>2026-08-28T17:52:44Z</time>
  <course>115.82</course>
  <speed>4.58</speed>
  <fix>3d</fix>
</trkpt>
<trkpt lat="40.0734476" lon="-105.2282164">
  <ele>1583.03</ele>
  <time>2026-08-28T17:52:44Z</time>
  <course>116.7</course>
  <speed>4.2487645263064415</speed>
  <fix>3d</fix>
</trkpt>
<trkpt lat="40.0734499" lon="-105.2282224">
  <ele>1583.0</ele>
  <time>2026-08-28T17:52:44Z</time>
  <course>115.82</course>
  <speed>4.38</speed>
  <fix>3d</fix>
</trkpt>
<trkpt lat="40.073446" lon="-105.2282119">
  <ele>1583.03</ele>
  <time>2026-08-28T17:52:44Z</time>
  <course>116.7</course>
  <speed>4.127977713118131</speed>
  <fix>3d</fix>
</trkpt>
<trkpt lat="40.0734499" lon="-105.2282224">
  <ele>1583.0</ele>
  <time>2026-08-28T17:52:44Z</time>
  <course>115.82</course>
  <speed>4.38</speed>
  <fix>3d</fix>
</trkpt>
<trkpt lat="40.0734444" lon="-105.2282076">
  <ele>1583.03</ele>
  <time>2026-08-28T17:52:44Z</time>
  <course>116.7</course>
  <speed>4.002811511925087</speed>
  <fix>3d</fix>
</trkpt>
<trkpt lat="40.0734466" lon="-105.2282133">
  <ele>1583.0</ele>
  <time>2026-08-28T17:52:44Z</time>
  <course>115.82</course>
  <speed>4.16</speed>
  <fix>3d</fix>
</trkpt>
<trkpt lat="40.0734428" lon="-105.2282034">
  <ele>1583.03</ele>
  <time>2026-08-28T17:52:44Z</time>
  <course>116.7</course>
  <speed>3.882022668661274</speed>
  <fix>3d</fix>
</trkpt>
<trkpt lat="40.0734466" lon="-105.2282133">
  <ele>1583.0</ele>
  <time>2026-08-28T17:52:44Z</time>
  <course>115.82</course>
  <speed>4.16</speed>
  <fix>3d</fix>
</trkpt>
<trkpt lat="40.0734413" lon="-105.2281993">
  <ele>1583.03</ele>
  <time>2026-08-28T17:52:44Z</time>
  <course>116.7</course>
  <speed>3.756860391337426</speed>
  <fix>3d</fix>
</trkpt>
<trkpt lat="40.0734466" lon="-105.2282133">
  <ele>1583.0</ele>
  <time>2026-08-28T17:52:44Z</time>
  <course>115.82</course>
  <speed>4.16</speed>
  <fix>3d</fix>
</trkpt>
<trkpt lat="40.0734399" lon="-105.2281955">
  <ele>1583.03</ele>
  <time>2026-08-28T17:52:44Z</time>
  <course>116.7</course>
  <speed>3.6227061708065698</speed>
  <fix>3d</fix>
</trkpt>
<trkpt lat="40.0734434" lon="-105.2282048">
  <ele>1583.0</ele>
  <time>2026-08-28T17:52:44Z</time>
  <course>115.82</course>
  <speed>3.92</speed>
  <fix>3d</fix>
</trkpt>
<trkpt lat="40.0734385" lon="-105.2281917">
  <ele>1583.03</ele>
  <time>2026-08-28T17:52:44Z</time>
  <course>116.7</course>
  <speed>3.5019137625018697</speed>
  <fix>3d</fix>
</trkpt>
<trkpt lat="40.0734434" lon="-105.2282048">
  <ele>1583.0</ele>
  <time>2026-08-28T17:52:44Z</time>
  <course>115.82</course>
  <speed>3.92</speed>
  <fix>3d</fix>
</trkpt>
<trkpt lat="40.0734372" lon="-105.2281881">
  <ele>1583.03</ele>
  <time>2026-08-28T17:52:44Z</time>
  <course>116.7</course>
  <speed>3.367758898733696</speed>
  <fix>3d</fix>
</trkpt>
<trkpt lat="40.0734405" lon="-105.2281968">
  <ele>1583.0</ele>
  <time>2026-08-28T17:52:44Z</time>
  <course>115.82</course>
  <speed>3.66</speed>
  <fix>3d</fix>
</trkpt>
<trkpt lat="40.0734359" lon="-105.2281846">
  <ele>1583.02</ele>
  <time>2026-08-28T17:52:44Z</time>
  <course>116.7</course>
  <speed>3.2336047996005943</speed>
  <fix>3d</fix>
</trkpt>
<trkpt lat="40.0734405" lon="-105.2281968">
  <ele>1583.0</ele>
  <time>2026-08-28T17:52:44Z</time>
  <course>115.82</course>
  <speed>3.66</speed>
  <fix>3d</fix>
</trkpt>
<trkpt lat="40.0734347" lon="-105.2281813">
  <ele>1583.02</ele>
  <time>2026-08-28T17:52:44Z</time>
  <course>116.72</course>
  <speed>3.0994515643900615</speed>
  <fix>3d</fix>
</trkpt>
<trkpt lat="40.0734377" lon="-105.2281893">
  <ele>1583.0</ele>
  <time>2026-08-28T17:52:44Z</time>
  <course>115.82</course>
  <speed>3.41</speed>
  <fix>3d</fix>
</trkpt>
<trkpt lat="40.0734335" lon="-105.2281781">
  <ele>1583.02</ele>
  <time>2026-08-28T17:52:44Z</time>
  <course>116.73</course>
  <speed>2.978657415682441</speed>
  <fix>3d</fix>
</trkpt>
<trkpt lat="40.0734377" lon="-105.2281893">
  <ele>1583.0</ele>
  <time>2026-08-28T17:52:44Z</time>
  <course>115.82</course>
  <speed>3.41</speed>
  <fix>3d</fix>
</trkpt>
<trkpt lat="40.0734324" lon="-105.2281751">
  <ele>1583.02</ele>
  <time>2026-08-28T17:52:44Z</time>
  <course>116.78</course>
  <speed>2.844503471609764</speed>
  <fix>3d</fix>
</trkpt>
<trkpt lat="40.0734352" lon="-105.2281823">
  <ele>1583.0</ele>
  <time>2026-08-28T17:52:44Z</time>
  <course>115.84</course>
  <speed>3.16</speed>
  <fix>3d</fix>
</trkpt>
<trkpt lat="40.0734313" lon="-105.2281721">
  <ele>1583.02</ele>
  <time>2026-08-28T17:52:44Z</time>
  <course>116.82</course>
  <speed>2.7237107041681208</speed>
  <fix>3d</fix>
</trkpt>
<trkpt lat="40.0734328" lon="-105.2281759">
  <ele>1583.0</ele>
  <time>2026-08-28T17:52:44Z</time>
  <course>115.89</course>
  <speed>2.91</speed>
  <fix>3d</fix>
</trkpt>
<trkpt lat="40.0734303" lon="-105.2281693">
  <ele>1583.02</ele>
  <time>2026-08-28T17:52:44Z</time>
  <course>116.85</course>
  <speed>2.602921435618063</speed>
  <fix>3d</fix>
</trkpt>
<trkpt lat="40.0734328" lon="-105.2281759">
  <ele>1583.0</ele>
  <time>2026-08-28T17:52:44Z</time>
  <course>115.89</course>
  <speed>2.91</speed>
  <fix>3d</fix>
</trkpt>
<trkpt lat="40.0734293" lon="-105.2281666">
  <ele>1583.02</ele>
  <time>2026-08-28T17:52:44Z</time>
  <course>116.89</course>
  <speed>2.4911242441917665</speed>
  <fix>3d</fix>
</trkpt>
<trkpt lat="40.0734306" lon="-105.2281701">
  <ele>1583.0</ele>
  <time>2026-08-28T17:52:44Z</time>
  <course>115.97</course>
  <speed>2.67</speed>
  <fix>3d</fix>
</trkpt>
<trkpt lat="40.0734283" lon="-105.228164">
  <ele>1583.02</ele>
  <time>2026-08-28T17:52:44Z</time>
  <course>116.92</course>
  <speed>2.379327636119078</speed>
  <fix>3d</fix>
</trkpt>
<trkpt lat="40.0734306" lon="-105.2281701">
  <ele>1583.0</ele>
  <time>2026-08-28T17:52:44Z</time>
  <course>115.97</course>
  <speed>2.67</speed>
  <fix>3d</fix>
</trkpt>
<trkpt lat="40.0734274" lon="-105.2281616">
  <ele>1583.01</ele>
  <time>2026-08-28T17:52:44Z</time>
  <course>116.95</course>
  <speed>2.2585393509965686</speed>
  <fix>3d</fix>
</trkpt>
<trkpt lat="40.0734286" lon="-105.2281646">
  <ele>1583.0</ele>
  <time>2026-08-28T17:52:44Z</time>
  <course>116.04</course>
  <speed>2.44</speed>
  <fix>3d</fix>
</trkpt>
<trkpt lat="40.0734265" lon="-105.2281592">
  <ele>1583.01</ele>
  <time>2026-08-28T17:52:44Z</time>
  <course>117.01</course>
  <speed>2.1467417171145673</speed>
  <fix>3d</fix>
</trkpt>
<trkpt lat="40.0734286" lon="-105.2281646">
  <ele>1583.0</ele>
  <time>2026-08-28T17:52:44Z</time>
  <course>116.04</course>
  <speed>2.44</speed>
  <fix>3d</fix>
</trkpt>
<trkpt lat="40.0734257" lon="-105.2281569">
  <ele>1583.01</ele>
  <time>2026-08-28T17:52:44Z</time>
  <course>117.07</course>
  <speed>2.0393381279228806</speed>
  <fix>3d</fix>
</trkpt>
<trkpt lat="40.0734267" lon="-105.2281597">
  <ele>1583.0</ele>
  <time>2026-08-28T17:52:44Z</time>
  <course>116.13</course>
  <speed>2.22</speed>
  <fix>3d</fix>
</trkpt>
<trkpt lat="40.0734249" lon="-105.2281548">
  <ele>1583.02</ele>
  <time>2026-08-28T17:52:44Z</time>
  <course>117.12</course>
  <speed>1.9365174928205529</speed>
  <fix>3d</fix>
</trkpt>
<trkpt lat="40.0734267" lon="-105.2281597">
  <ele>1583.0</ele>
  <time>2026-08-28T17:52:44Z</time>
  <course>116.13</course>
  <speed>2.22</speed>
  <fix>3d</fix>
</trkpt>
<trkpt lat="40.0734241" lon="-105.2281528">
  <ele>1583.02</ele>
  <time>2026-08-28T17:52:44Z</time>
  <course>117.18</course>
  <speed>1.8291254740995762</speed>
  <fix>3d</fix>
</trkpt>
<trkpt lat="40.073425" lon="-105.2281553">
  <ele>1583.0</ele>
  <time>2026-08-28T17:52:44Z</time>
  <course>116.24</course>
  <speed>2.0</speed>
  <fix>3d</fix>
</trkpt>
<trkpt lat="40.0734234" lon="-105.2281509">
  <ele>1583.02</ele>
  <time>2026-08-28T17:52:44Z</time>
  <course>117.23</course>
  <speed>1.7262966141425407</speed>
  <fix>3d</fix>
</trkpt>
<trkpt lat="40.073425" lon="-105.2281553">
  <ele>1583.0</ele>
  <time>2026-08-28T17:52:44Z</time>
  <course>116.24</course>
  <speed>2.0</speed>
  <fix>3d</fix>
</trkpt>
<trkpt lat="40.0734227" lon="-105.2281491">
  <ele>1583.02</ele>
  <time>2026-08-28T17:52:44Z</time>
  <course>117.3</course>
  <speed>1.6278820596099706</speed>
  <fix>3d</fix>
</trkpt>
<trkpt lat="40.0734236" lon="-105.2281512">
  <ele>1583.0</ele>
  <time>2026-08-28T17:52:44Z</time>
  <course>116.35</course>
  <speed>1.8</speed>
  <fix>3d</fix>
</trkpt>
<trkpt lat="40.0734221" lon="-105.2281474">
  <ele>1583.02</ele>
  <time>2026-08-28T17:52:44Z</time>
  <course>117.36</course>
  <speed>1.529477034806342</speed>
  <fix>3d</fix>
</trkpt>
<trkpt lat="40.0734236" lon="-105.2281512">
  <ele>1583.0</ele>
  <time>2026-08-28T17:52:44Z</time>
  <course>116.35</course>
  <speed>1.8</speed>
  <fix>3d</fix>
</trkpt>
<trkpt lat="40.0734215" lon="-105.2281458">
  <ele>1583.02</ele>
  <time>2026-08-28T17:52:44Z</time>
  <course>117.43</course>
  <speed>1.4310835055998654</speed>
  <fix>3d</fix>
</trkpt>
<trkpt lat="40.0734222" lon="-105.2281476">
  <ele>1583.0</ele>
  <time>2026-08-28T17:52:44Z</time>
  <course>116.48</course>
  <speed>1.6</speed>
  <fix>3d</fix>
</trkpt>
<trkpt lat="40.0734209" lon="-105.2281443">
  <ele>1583.01</ele>
  <time>2026-08-28T17:52:44Z</time>
  <course>117.51</course>
  <speed>1.3282319074619462</speed>
  <fix>3d</fix>
</trkpt>
<trkpt lat="40.0734222" lon="-105.2281476">
  <ele>1583.0</ele>
  <time>2026-08-28T17:52:44Z</time>
  <course>116.48</course>
  <speed>1.6</speed>
  <fix>3d</fix>
</trkpt>
<trkpt lat="40.0734204" lon="-105.2281429">
  <ele>1583.01</ele>
  <time>2026-08-28T17:52:44Z</time>
  <course>117.59</course>
  <speed>1.2298373876248843</speed>
  <fix>3d</fix>
</trkpt>
<trkpt lat="40.0734222" lon="-105.2281476">
  <ele>1583.0</ele>
  <time>2026-08-28T17:52:44Z</time>
  <course>116.48</course>
  <speed>1.6</speed>
  <fix>3d</fix>
</trkpt>
<trkpt lat="40.0734199" lon="-105.2281416">
  <ele>1583.01</ele>
  <time>2026-08-28T17:52:44Z</time>
  <course>117.69</course>
  <speed>1.1314592347937242</speed>
  <fix>3d</fix>
</trkpt>
<trkpt lat="40.0734209" lon="-105.2281445">
  <ele>1583.0</ele>
  <time>2026-08-28T17:52:44Z</time>
  <course>116.63</course>
  <speed>1.4</speed>
  <fix>3d</fix>
</trkpt>
<trkpt lat="40.0734194" lon="-105.2281405">
  <ele>1583.01</ele>
  <time>2026-08-28T17:52:44Z</time>
  <course>117.79</course>
  <speed>1.0420172743289815</speed>
  <fix>3d</fix>
</trkpt>
<trkpt lat="40.0734209" lon="-105.2281445">
  <ele>1583.0</ele>
  <time>2026-08-28T17:52:44Z</time>
  <course>116.63</course>
  <speed>1.4</speed>
  <fix>3d</fix>
</trkpt>
<trkpt lat="40.073419" lon="-105.2281394">
  <ele>1583.01</ele>
  <time>2026-08-28T17:52:44Z</time>
  <course>117.91</course>
  <speed>0.9436630754670864</speed>
  <fix>3d</fix>
</trkpt>
<trkpt lat="40.0734199" lon="-105.2281418">
  <ele>1583.0</ele>
  <time>2026-08-28T17:52:44Z</time>
  <course>116.81</course>
  <speed>1.21</speed>
  <fix>3d</fix>
</trkpt>
<trkpt lat="40.0734186" lon="-105.2281384">
  <ele>1583.01</ele>
  <time>2026-08-28T17:52:44Z</time>
  <course>118.02</course>
  <speed>0.8453401682163222</speed>
  <fix>3d</fix>
</trkpt>
<trkpt lat="40.0734199" lon="-105.2281418">
  <ele>1583.0</ele>
  <time>2026-08-28T17:52:44Z</time>
  <course>116.81</course>
  <speed>1.21</speed>
  <fix>3d</fix>
</trkpt>
<trkpt lat="40.0734183" lon="-105.2281376">
  <ele>1583.01</ele>
  <time>2026-08-28T17:52:44Z</time>
  <course>118.14</course>
  <speed>0.7513321502504735</speed>
  <fix>3d</fix>
</trkpt>
<trkpt lat="40.073419" lon="-105.2281394">
  <ele>1583.0</ele>
  <time>2026-08-28T17:52:44Z</time>
  <course>117.02</course>
  <speed>1.02</speed>
  <fix>3d</fix>
</trkpt>
<trkpt lat="40.073418" lon="-105.2281368">
  <ele>1583.01</ele>
  <time>2026-08-28T17:52:44Z</time>
  <course>118.25</course>
  <speed>0.6529931086925803</speed>
  <fix>3d</fix>
</trkpt>
<trkpt lat="40.0734182" lon="-105.2281375">
  <ele>1583.0</ele>
  <time>2026-08-28T17:52:44Z</time>
  <course>117.25</course>
  <speed>0.82</speed>
  <fix>3d</fix>
</trkpt>
<trkpt lat="40.0734177" lon="-105.2281361">
  <ele>1583.01</ele>
  <time>2026-08-28T17:52:44Z</time>
  <course>118.35</course>
  <speed>0.5547071299343466</speed>
  <fix>3d</fix>
</trkpt>
<trkpt lat="40.0734182" lon="-105.2281375">
  <ele>1583.0</ele>
  <time>2026-08-28T17:52:44Z</time>
  <course>117.25</course>
  <speed>0.82</speed>
  <fix>3d</fix>
</trkpt>
<trkpt lat="40.0734175" lon="-105.2281356">
  <ele>1583.01</ele>
  <time>2026-08-28T17:52:44Z</time>
  <course>118.45</course>
  <speed>0.46529560496527367</speed>
  <fix>3d</fix>
</trkpt>
<trkpt lat="40.0734176" lon="-105.2281359">
  <ele>1583.0</ele>
  <time>2026-08-28T17:52:44Z</time>
  <course>117.46</course>
  <speed>0.63</speed>
  <fix>3d</fix>
</trkpt>
<trkpt lat="40.0734173" lon="-105.2281351">
  <ele>1583.01</ele>
  <time>2026-08-28T17:52:44Z</time>
  <course>118.49</course>
  <speed>0.36235341863986875</speed>
  <fix>3d</fix>
</trkpt>
<trkpt lat="40.0734176" lon="-105.2281359">
  <ele>1583.0</ele>
  <time>2026-08-28T17:52:44Z</time>
  <course>117.46</course>
  <speed>0.63</speed>
  <fix>3d</fix>
</trkpt>
<trkpt lat="40.0734171" lon="-105.2281347">
  <ele>1583.01</ele>
  <time>2026-08-28T17:52:44Z</time>
  <course>118.59</course>
  <speed>0.2641968962724581</speed>
  <fix>3d</fix>
</trkpt>
<trkpt lat="40.0734171" lon="-105.2281348">
  <ele>1583.0</ele>
  <time>2026-08-28T17:52:44Z</time>
  <course>117.63</course>
  <speed>0.44</speed>
  <fix>3d</fix>
</trkpt>
<trkpt lat="40.073417" lon="-105.2281344">
  <ele>1583.0</ele>
  <time>2026-08-28T17:52:44Z</time>
  <course>118.83</course>
  <speed>0.17492855684535902</speed>
  <fix>3d</fix>
</trkpt>
<trkpt lat="40.0734171" lon="-105.2281348">
  <ele>1583.0</ele>
  <time>2026-08-28T17:52:44Z</time>
  <course>117.63</course>
  <speed>0.44</speed>
  <fix>3d</fix>
</trkpt>
<trkpt lat="40.0734169" lon="-105.2281343">
  <ele>1583.0</ele>
  <time>2026-08-28T17:52:44Z</time>
  <course>119.1</course>
  <speed>0.07211102550927978</speed>
  <fix>3d</fix>
</trkpt>
<trkpt lat="40.0734169" lon="-105.2281341">
  <ele>1583.0</ele>
  <time>2026-08-28T17:52:44Z</time>
  <course>117.87</course>
  <speed>0.24</speed>
  <fix>3d</fix>
</trkpt>
<trkpt lat="40.0734169" lon="-105.2281342">
  <ele>1583.0</ele>
  <time>2026-08-28T17:52:44Z</time>
  <course>119.3</course>
  <speed>0.02</speed>
  <fix>3d</fix>
</trkpt>
<trkpt lat="40.0734169" lon="-105.2281341">
  <ele>1583.0</ele>
  <time>2026-08-28T17:52:44Z</time>
  <course>117.87</course>
  <speed>0.24</speed>
  <fix>3d</fix>
</trkpt>
<trkpt lat="40.0734169" lon="-105.2281342">
  <ele>1582.99</ele>
  <time>2026-08-28T17:52:44Z</time>
  <course>119.28</course>
  <speed>0.09486832980505139</speed>
  <fix>3d</fix>
</trkpt>
<trkpt lat="40.0734167" lon="-105.2281338">
  <ele>1583.0</ele>
  <time>2026-08-28T17:52:44Z</time>
  <course>118.19</course>
  <speed>0.06</speed>
  <fix>3d</fix>
</trkpt>
<trkpt lat="40.0734169" lon="-105.2281343">
  <ele>1582.99</ele>
  <time>2026-08-28T17:52:44Z</time>
  <course>119.47</course>
  <speed>0.15231546211727817</speed>
  <fix>3d</fix>
</trkpt>
<trkpt lat="40.0734167" lon="-105.2281338">
  <ele>1583.0</ele>
  <time>2026-08-28T17:52:44Z</time>
  <course>118.19</course>
  <speed>0.06</speed>
  <fix>3d</fix>
</trkpt>
<trkpt lat="40.073417" lon="-105.2281345">
  <ele>1583.0</ele>
  <time>2026-08-28T17:52:44Z</time>
  <course>119.89</course>
  <speed>0.19697715603592209</speed>
  <fix>3d</fix>
</trkpt>
<trkpt lat="40.0734167" lon="-105.2281338">
  <ele>1583.0</ele>
  <time>2026-08-28T17:52:44Z</time>
  <course>298.89</course>
  <speed>0.07</speed>
  <fix>3d</fix>
</trkpt>
<trkpt lat="40.0734171" lon="-105.2281347">
  <ele>1583.0</ele>
  <time>2026-08-28T17:52:44Z</time>
  <course>120.47</course>
  <speed>0.2102379604162864</speed>
  <fix>3d</fix>
</trkpt>
<trkpt lat="40.0734167" lon="-105.2281338">
  <ele>1583.0</ele>
  <time>2026-08-28T17:52:44Z</time>
  <course>298.89</course>
  <speed>0.07</speed>
  <fix>3d</fix>
</trkpt>
<trkpt lat="40.0734171" lon="-105.2281348">
  <ele>1583.0</ele>
  <time>2026-08-28T17:52:44Z</time>
  <course>121.15</course>
  <speed>0.2102379604162864</speed>
  <fix>3d</fix>
</trkpt>
<trkpt lat="40.0734168" lon="-105.228134">
  <ele>1583.0</ele>
  <time>2026-08-28T17:52:44Z</time>
  <course>299.67</course>
  <speed>0.13</speed>
  <fix>3d</fix>
</trkpt>
<trkpt lat="40.0734171" lon="-105.2281349">
  <ele>1583.01</ele>
  <time>2026-08-28T17:52:44Z</time>
  <course>121.84</course>
  <speed>0.18788294228055935</speed>
  <fix>3d</fix>
</trkpt>
<trkpt lat="40.0734168" lon="-105.228134">
  <ele>1583.0</ele>
  <time>2026-08-28T17:52:44Z</time>
  <course>299.67</course>
  <speed>0.13</speed>
  <fix>3d</fix>
</trkpt>
<trkpt lat="40.0734171" lon="-105.228135">
  <ele>1583.01</ele>
  <time>2026-08-28T17:52:44Z</time>
  <course>122.45</course>
  <speed>0.1615549442140351</speed>
  <fix>3d</fix>
</trkpt>
<trkpt lat="40.0734168" lon="-105.228134">
  <ele>1583.0</ele>
  <time>2026-08-28T17:52:44Z</time>
  <course>299.67</course>
  <speed>0.13</speed>
  <fix>3d</fix>
</trkpt>
<trkpt lat="40.0734171" lon="-105.2281351">
  <ele>1583.02</ele>
  <time>2026-08-28T17:52:44Z</time>
  <course>122.88</course>
  <speed>0.11401754250991379</speed>
  <fix>3d</fix>
</trkpt>
<trkpt lat="40.0734169" lon="-105.2281342">
  <ele>1583.0</ele>
  <time>2026-08-28T17:52:44Z</time>
  <course>300.78</course>
  <speed>0.11</speed>
  <fix>3d</fix>
</trkpt>
<trkpt lat="40.0734171" lon="-105.2281351">
  <ele>1583.02</ele>
  <time>2026-08-28T17:52:44Z</time>
  <course>123.02</course>
  <speed>0.06</speed>
  <fix>3d</fix>
</trkpt>
<trkpt lat="40.0734169" lon="-105.2281342">
  <ele>1583.0</ele>
  <time>2026-08-28T17:52:44Z</time>
  <course>300.78</course>
  <speed>0.11</speed>
  <fix>3d</fix>
</trkpt>
<trkpt lat="40.0734171" lon="-105.2281351">
  <ele>1583.02</ele>
  <time>2026-08-28T17:52:44Z</time>
  <course>122.79</course>
  <speed>0.03</speed>
  <fix>3d</fix>
</trkpt>
<trkpt lat="40.073417" lon="-105.2281344">
  <ele>1583.0</ele>
  <time>2026-08-28T17:52:44Z</time>
  <course>301.53</course>
  <speed>0.04</speed>
  <fix>3d</fix>
</trkpt>
<trkpt lat="40.073417" lon="-105.228135">
  <ele>1583.03</ele>
  <time>2026-08-28T17:52:44Z</time>
  <course>123.45</course>
  <speed>0.08602325267042626</speed>
  <fix>3d</fix>
</trkpt>
<trkpt lat="40.073417" lon="-105.2281344">
  <ele>1583.0</ele>
  <time>2026-08-28T17:52:44Z</time>
  <course>301.53</course>
  <speed>0.04</speed>
  <fix>3d</fix>
</trkpt>
<trkpt lat="40.073417" lon="-105.2281348">
  <ele>1583.03</ele>
  <time>2026-08-28T17:52:44Z</time>
  <course>124.57</course>
  <speed>0.16278820596099705</speed>
  <fix>3d</fix>
</trkpt>
<trkpt lat="40.073417" lon="-105.2281344">
  <ele>1583.0</ele>
  <time>2026-08-28T17:52:44Z</time>
  <course>122.56</course>
  <speed>0.07</speed>
  <fix>3d</fix>
</trkpt>
<trkpt lat="40.0734169" lon="-105.2281346">
  <ele>1583.03</ele>
  <time>2026-08-28T17:52:44Z</time>
  <course>126.17</course>
  <speed>0.24041630560342614</speed>
  <fix>3d</fix>
</trkpt>
<trkpt lat="40.073417" lon="-105.2281344">
  <ele>1583.0</ele>
  <time>2026-08-28T17:52:44Z</time>
  <course>122.56</course>
  <speed>0.07</speed>
  <fix>3d</fix>
</trkpt>
<trkpt lat="40.0734167" lon="-105.2281343">
  <ele>1583.03</ele>
  <time>2026-08-28T17:52:44Z</time>
  <course>128.27</course>
  <speed>0.3252691193458119</speed>
  <fix>3d</fix>
</trkpt>
<trkpt lat="40.0734169" lon="-105.2281342">
  <ele>1583.0</ele>
  <time>2026-08-28T17:52:44Z</time>
  <course>124.42</course>
  <speed>0.21</speed>
  <fix>3d</fix>
</trkpt>
<trkpt lat="40.0734164" lon="-105.2281339">
  <ele>1583.03</ele>
  <time>2026-08-28T17:52:44Z</time>
  <course>130.77</course>
  <speed>0.41036569057366384</speed>
  <fix>3d</fix>
</trkpt>
<trkpt lat="40.0734166" lon="-105.2281337">
  <ele>1583.0</ele>
  <time>2026-08-28T17:52:44Z</time>
  <course>128.08</course>
  <speed>0.36</speed>
  <fix>3d</fix>
</trkpt>
<trkpt lat="40.0734161" lon="-105.2281335">
  <ele>1583.04</ele>
  <time>2026-08-28T17:52:44Z</time>
  <course>133.62</course>
  <speed>0.48918299234540036</speed>
  <fix>3d</fix>
</trkpt>
<trkpt lat="40.0734166" lon="-105.2281337">
  <ele>1583.0</ele>
  <time>2026-08-28T17:52:44Z</time>
  <course>128.08</course>
  <speed>0.36</speed>
  <fix>3d</fix>
</trkpt>
<trkpt lat="40.0734157" lon="-105.228133">
  <ele>1583.04</ele>
  <time>2026-08-28T17:52:44Z</time>
  <course>136.7</course>
  <speed>0.5622277118748239</speed>
  <fix>3d</fix>
</trkpt>
<trkpt lat="40.0734161" lon="-105.2281329">
  <ele>1583.0</ele>
  <time>2026-08-28T17:52:44Z</time>
  <course>133.31</course>
  <speed>0.51</speed>
  <fix>3d</fix>
</trkpt>
<trkpt lat="40.0734153" lon="-105.2281325">
  <ele>1583.04</ele>
  <time>2026-08-28T17:52:44Z</time>
  <course>139.99</course>
  <speed>0.638200595424354</speed>
  <fix>3d</fix>
</trkpt>
<trkpt lat="40.0734161" lon="-105.2281329">
  <ele>1583.0</ele>
  <time>2026-08-28T17:52:44Z</time>
  <course>133.31</course>
  <speed>0.51</speed>
  <fix>3d</fix>
</trkpt>
<trkpt lat="40.0734147" lon="-105.228132">
  <ele>1583.04</ele>
  <time>2026-08-28T17:52:44Z</time>
  <course>143.38</course>
  <speed>0.718679344353238</speed>
  <fix>3d</fix>
</trkpt>
<trkpt lat="40.0734153" lon="-105.2281319">
  <ele>1583.0</ele>
  <time>2026-08-28T17:52:44Z</time>
  <course>139.56</course>
  <speed>0.66</speed>
  <fix>3d</fix>
</trkpt>
<trkpt lat="40.0734142" lon="-105.2281314">
  <ele>1583.04</ele>
  <time>2026-08-28T17:52:44Z</time>
  <course>146.79</course>
  <speed>0.7925906888173744</speed>
  <fix>3d</fix>
</trkpt>
<trkpt lat="40.0734153" lon="-105.2281319">
  <ele>1583.0</ele>
  <time>2026-08-28T17:52:44Z</time>
  <course>139.56</course>
  <speed>0.66</speed>
  <fix>3d</fix>
</trkpt>
<trkpt lat="40.0734135" lon="-105.2281309">
  <ele>1583.04</ele>
  <time>2026-08-28T17:52:44Z</time>
  <course>150.15</course>
  <speed>0.8586617494683223</speed>
  <fix>3d</fix>
</trkpt>
<trkpt lat="40.0734142" lon="-105.2281309">
  <ele>1583.0</ele>
  <time>2026-08-28T17:52:44Z</time>
  <course>146.21</course>
  <speed>0.79</speed>
  <fix>3d</fix>
</trkpt>
<trkpt lat="40.0734127" lon="-105.2281304">
  <ele>1583.04</ele>
  <time>2026-08-28T17:52:44Z</time>
  <course>153.36</course>
  <speed>0.9362157870918435</speed>
  <fix>3d</fix>
</trkpt>
<trkpt lat="40.0734142" lon="-105.2281309">
  <ele>1583.0</ele>
  <time>2026-08-28T17:52:44Z</time>
  <course>146.21</course>
  <speed>0.79</speed>
  <fix>3d</fix>
</trkpt>
<trkpt lat="40.0734119" lon="-105.2281299">
  <ele>1583.04</ele>
  <time>2026-08-28T17:52:44Z</time>
  <course>156.36</course>
  <speed>1.0030453628824572</speed>
  <fix>3d</fix>
</trkpt>
<trkpt lat="40.0734129" lon="-105.2281299">
  <ele>1583.0</ele>
  <time>2026-08-28T17:52:44Z</time>
  <course>152.63</course>
  <speed>0.92</speed>
  <fix>3d</fix>
</trkpt>
<trkpt lat="40.073411" lon="-105.2281294">
  <ele>1583.04</ele>
  <time>2026-08-28T17:52:44Z</time>
  <course>158.94</course>
  <speed>1.0625441167311596</speed>
  <fix>3d</fix>
</trkpt>
<trkpt lat="40.0734129" lon="-105.2281299">
  <ele>1583.0</ele>
  <time>2026-08-28T17:52:44Z</time>
  <course>152.63</course>
  <speed>0.92</speed>
  <fix>3d</fix>
</trkpt>
<trkpt lat="40.0734101" lon="-105.2281289">
  <ele>1583.04</ele>
  <time>2026-08-28T17:52:44Z</time>
  <course>161.07</course>
  <speed>1.136001760562016</speed>
  <fix>3d</fix>
</trkpt>
<trkpt lat="40.0734113" lon="-105.2281289">
  <ele>1583.0</ele>
  <time>2026-08-28T17:52:44Z</time>
  <course>158.02</course>
  <speed>1.05</speed>
  <fix>3d</fix>
</trkpt>
<trkpt lat="40.0734091" lon="-105.2281285">
  <ele>1583.03</ele>
  <time>2026-08-28T17:52:44Z</time>
  <course>162.84</course>
  <speed>1.1981652640600127</speed>
  <fix>3d</fix>
</trkpt>
<trkpt lat="40.0734113" lon="-105.2281289">
  <ele>1583.0</ele>
  <time>2026-08-28T17:52:44Z</time>
  <course>158.02</course>
  <speed>1.05</speed>
  <fix>3d</fix>
</trkpt>
<trkpt lat="40.073408" lon="-105.2281281">
  <ele>1583.03</ele>
  <time>2026-08-28T17:52:44Z</time>
  <course>164.34</course>
  <speed>1.26372465355393</speed>
  <fix>3d</fix>
</trkpt>
<trkpt lat="40.0734094" lon="-105.228128">
  <ele>1583.0</ele>
  <time>2026-08-28T17:52:44Z</time>
  <course>161.98</course>
  <speed>1.17</speed>
  <fix>3d</fix>
</trkpt>
<trkpt lat="40.0734068" lon="-105.2281277">
  <ele>1583.03</ele>
  <time>2026-08-28T17:52:44Z</time>
  <course>165.6</course>
  <speed>1.3319534526401438</speed>
  <fix>3d</fix>
</trkpt>
<trkpt lat="40.0734094" lon="-105.228128">
  <ele>1583.0</ele>
  <time>2026-08-28T17:52:44Z</time>
  <course>161.98</course>
  <speed>1.17</speed>
  <fix>3d</fix>
</trkpt>
<trkpt lat="40.0734056" lon="-105.2281273">
  <ele>1583.03</ele>
  <time>2026-08-28T17:52:44Z</time>
  <course>166.67</course>
  <speed>1.3983204210766573</speed>
  <fix>3d</fix>
</trkpt>
<trkpt lat="40.0734094" lon="-105.228128">
  <ele>1583.0</ele>
  <time>2026-08-28T17:52:44Z</time>
  <course>161.98</course>
  <speed>1.17</speed>
  <fix>3d</fix>
</trkpt>
<trkpt lat="40.0734044" lon="-105.2281269">
  <ele>1583.03</ele>
  <time>2026-08-28T17:52:44Z</time>
  <course>167.58</course>
  <speed>1.4650938536489735</speed>
  <fix>3d</fix>
</trkpt>
<trkpt lat="40.0734073" lon="-105.2281271">
  <ele>1583.0</ele>
  <time>2026-08-28T17:52:44Z</time>
  <course>164.77</course>
  <speed>1.3</speed>
  <fix>3d</fix>
</trkpt>
<trkpt lat="40.0734031" lon="-105.2281265">
  <ele>1583.03</ele>
  <time>2026-08-28T17:52:44Z</time>
  <course>168.35</course>
  <speed>1.5437940277122464</speed>
  <fix>3d</fix>
</trkpt>
<trkpt lat="40.0734073" lon="-105.2281271">
  <ele>1583.0</ele>
  <time>2026-08-28T17:52:44Z</time>
  <course>164.77</course>
  <speed>1.3</speed>
  <fix>3d</fix>
</trkpt>
<trkpt lat="40.0734017" lon="-105.2281261">
  <ele>1583.03</ele>
  <time>2026-08-28T17:52:44Z</time>
  <course>169.02</course>
  <speed>1.6127616066858734</speed>
  <fix>3d</fix>
</trkpt>
<trkpt lat="40.0734049" lon="-105.2281263">
  <ele>1583.0</ele>
  <time>2026-08-28T17:52:44Z</time>
  <course>166.78</course>
  <speed>1.43</speed>
  <fix>3d</fix>
</trkpt>
<trkpt lat="40.0734003" lon="-105.2281257">
  <ele>1583.03</ele>
  <time>2026-08-28T17:52:44Z</time>
  <course>169.59</course>
  <speed>1.691685549976709</speed>
  <fix>3d</fix>
</trkpt>
<trkpt lat="40.0734049" lon="-105.2281263">
  <ele>1583.0</ele>
  <time>2026-08-28T17:52:44Z</time>
  <course>166.78</course>
  <speed>1.43</speed>
  <fix>3d</fix>
</trkpt>
<trkpt lat="40.0733988" lon="-105.2281253">
  <ele>1583.03</ele>
  <time>2026-08-28T17:52:44Z</time>
  <course>170.09</course>
  <speed>1.7608236708995024</speed>
  <fix>3d</fix>
</trkpt>
<trkpt lat="40.0734023" lon="-105.2281256">
  <ele>1583.0</ele>
  <time>2026-08-28T17:52:44Z</time>
  <course>168.25</course>
  <speed>1.58</speed>
  <fix>3d</fix>
</trkpt>
<trkpt lat="40.0733972" lon="-105.2281249">
  <ele>1583.03</ele>
  <time>2026-08-28T17:52:44Z</time>
  <course>170.52</course>
  <speed>1.8498108011361594</speed>
  <fix>3d</fix>
</trkpt>
<trkpt lat="40.0733993" lon="-105.2281249">
  <ele>1583.0</ele>
  <time>2026-08-28T17:52:44Z</time>
  <course>169.34</course>
  <speed>1.73</speed>
  <fix>3d</fix>
</trkpt>
<trkpt lat="40.0733955" lon="-105.2281245">
  <ele>1583.03</ele>
  <time>2026-08-28T17:52:44Z</time>
  <course>170.89</course>
  <speed>1.9304144632694815</speed>
  <fix>3d</fix>
</trkpt>
<trkpt lat="40.0733993" lon="-105.2281249">
  <ele>1583.0</ele>
  <time>2026-08-28T17:52:44Z</time>
  <course>169.34</course>
  <speed>1.73</speed>
  <fix>3d</fix>
</trkpt>
<trkpt lat="40.0733938" lon="-105.2281241">
  <ele>1583.03</ele>
  <time>2026-08-28T17:52:44Z</time>
  <course>171.22</course>
  <speed>2.019504889818294</speed>
  <fix>3d</fix>
</trkpt>
<trkpt lat="40.0733961" lon="-105.2281241">
  <ele>1583.0</ele>
  <time>2026-08-28T17:52:44Z</time>
  <course>170.17</course>
  <speed>1.89</speed>
  <fix>3d</fix>
</trkpt>
<trkpt lat="40.073392" lon="-105.2281237">
  <ele>1583.03</ele>
  <time>2026-08-28T17:52:44Z</time>
  <course>171.5</course>
  <speed>2.1100236965494013</speed>
  <fix>3d</fix>
</trkpt>
<trkpt lat="40.0733961" lon="-105.2281241">
  <ele>1583.0</ele>
  <time>2026-08-28T17:52:44Z</time>
  <course>170.17</course>
  <speed>1.89</speed>
  <fix>3d</fix>
</trkpt>
<trkpt lat="40.0733901" lon="-105.2281233">
  <ele>1583.03</ele>
  <time>2026-08-28T17:52:44Z</time>
  <course>171.75</course>
  <speed>2.199204401596177</speed>
  <fix>3d</fix>
</trkpt>
<trkpt lat="40.0733926" lon="-105.2281233">
  <ele>1583.0</ele>
  <time>2026-08-28T17:52:44Z</time>
  <course>170.8</course>
  <speed>2.07</speed>
  <fix>3d</fix>
</trkpt>
<trkpt lat="40.0733881" lon="-105.2281229">
  <ele>1583.03</ele>
  <time>2026-08-28T17:52:44Z</time>
  <course>171.96</course>
  <speed>2.2897379762758883</speed>
  <fix>3d</fix>
</trkpt>
<trkpt lat="40.0733926" lon="-105.2281233">
  <ele>1583.0</ele>
  <time>2026-08-28T17:52:44Z</time>
  <course>170.8</course>
  <speed>2.07</speed>
  <fix>3d</fix>
</trkpt>
<trkpt lat="40.073386" lon="-105.2281225">
  <ele>1583.03</ele>
  <time>2026-08-28T17:52:44Z</time>
  <course>172.15</course>
  <speed>2.390188277102873</speed>
  <fix>3d</fix>
</trkpt>
<trkpt lat="40.0733888" lon="-105.2281226">
  <ele>1583.0</ele>
  <time>2026-08-28T17:52:44Z</time>
  <course>171.28</course>
  <speed>2.25</speed>
  <fix>3d</fix>
</trkpt>
<trkpt lat="40.0733838" lon="-105.2281221">
  <ele>1583.03</ele>
  <time>2026-08-28T17:52:44Z</time>
  <course>172.31</course>
  <speed>2.4906424873915567</speed>
  <fix>3d</fix>
</trkpt>
<trkpt lat="40.0733888" lon="-105.2281226">
  <ele>1583.0</ele>
  <time>2026-08-28T17:52:44Z</time>
  <course>171.28</course>
  <speed>2.25</speed>
  <fix>3d</fix>
</trkpt>
<trkpt lat="40.0733815" lon="-105.2281217">
  <ele>1583.03</ele>
  <time>2026-08-28T17:52:44Z</time>
  <course>172.45</course>
  <speed>2.5898455552406983</speed>
  <fix>3d</fix>
</trkpt>
<trkpt lat="40.0733846" lon="-105.2281218">
  <ele>1583.0</ele>
  <time>2026-08-28T17:52:44Z</time>
  <course>171.64</course>
  <speed>2.44</speed>
  <fix>3d</fix>
</trkpt>
<trkpt lat="40.0733792" lon="-105.2281212">
  <ele>1583.03</ele>
  <time>2026-08-28T17:52:44Z</time>
  <course>172.58</course>
  <speed>2.690315966573443</speed>
  <fix>3d</fix>
</trkpt>
<trkpt lat="40.0733846" lon="-105.2281218">
  <ele>1583.0</ele>
  <time>2026-08-28T17:52:44Z</time>
  <course>171.64</course>
  <speed>2.44</speed>
  <fix>3d</fix>
</trkpt>
<trkpt lat="40.0733767" lon="-105.2281208">
  <ele>1583.03</ele>
  <time>2026-08-28T17:52:44Z</time>
  <course>172.68</course>
  <speed>2.790788419067271</speed>
  <fix>3d</fix>
</trkpt>
<trkpt lat="40.0733801" lon="-105.2281209">
  <ele>1583.0</ele>
  <time>2026-08-28T17:52:44Z</time>
  <course>171.92</course>
  <speed>2.64</speed>
  <fix>3d</fix>
</trkpt>
<trkpt lat="40.0733742" lon="-105.2281203">
  <ele>1583.03</ele>
  <time>2026-08-28T17:52:44Z</time>
  <course>172.77</course>
  <speed>2.8912626999288737</speed>
  <fix>3d</fix>
</trkpt>
<trkpt lat="40.0733801" lon="-105.2281209">
  <ele>1583.0</ele>
  <time>2026-08-28T17:52:44Z</time>
  <course>171.92</course>
  <speed>2.64</speed>
  <fix>3d</fix>
</trkpt>
<trkpt lat="40.0733716" lon="-105.2281198">
  <ele>1583.02</ele>
  <time>2026-08-28T17:52:44Z</time>
  <course>172.84</course>
  <speed>2.991738624947039</speed>
  <fix>3d</fix>
</trkpt>
<trkpt lat="40.0733752" lon="-105.22812">
  <ele>1583.0</ele>
  <time>2026-08-28T17:52:44Z</time>
  <course>172.13</course>
  <speed>2.84</speed>
  <fix>3d</fix>
</trkpt>
<trkpt lat="40.0733689" lon="-105.2281193">
  <ele>1583.02</ele>
  <time>2026-08-28T17:52:44Z</time>
  <course>172.92</course>
  <speed>3.092216033850158</speed>
  <fix>3d</fix>
</trkpt>
<trkpt lat="40.0733752" lon="-105.22812">
  <ele>1583.0</ele>
  <time>2026-08-28T17:52:44Z</time>
  <course>172.13</course>
  <speed>2.84</speed>
  <fix>3d</fix>
</trkpt>
<trkpt lat="40.0733661" lon="-105.2281188">
  <ele>1583.02</ele>
  <time>2026-08-28T17:52:44Z</time>
  <course>172.97</course>
  <speed>3.203825837963106</speed>
  <fix>3d</fix>
</trkpt>
<trkpt lat="40.0733752" lon="-105.22812">
  <ele>1583.0</ele>
  <time>2026-08-28T17:52:44Z</time>
  <course>172.13</course>
  <speed>2.84</speed>
  <fix>3d</fix>
</trkpt>
<trkpt lat="40.0733632" lon="-105.2281183">
  <ele>1583.01</ele>
  <time>2026-08-28T17:52:44Z</time>
  <course>173.0</course>
  <speed>3.304300228490141</speed>
  <fix>3d</fix>
</trkpt>
<trkpt lat="40.07337" lon="-105.2281191">
  <ele>1583.0</ele>
  <time>2026-08-28T17:52:44Z</time>
  <course>172.29</course>
  <speed>3.05</speed>
  <fix>3d</fix>
</trkpt>
<trkpt lat="40.0733602" lon="-105.2281178">
  <ele>1583.01</ele>
  <time>2026-08-28T17:52:44Z</time>
  <course>173.04</course>
  <speed>3.404776057246644</speed>
  <fix>3d</fix>
</trkpt>
<trkpt lat="40.07337" lon="-105.2281191">
  <ele>1583.0</ele>
  <time>2026-08-28T17:52:44Z</time>
  <course>172.29</course>
  <speed>3.05</speed>
  <fix>3d</fix>
</trkpt>
<trkpt lat="40.0733572" lon="-105.2281173">
  <ele>1583.0</ele>
  <time>2026-08-28T17:52:44Z</time>
  <course>173.07</course>
  <speed>3.505253200554847</speed>
  <fix>3d</fix>
</trkpt>
<trkpt lat="40.0733644" lon="-105.228118">
  <ele>1583.0</ele>
  <time>2026-08-28T17:52:44Z</time>
  <course>172.4</course>
  <speed>3.25</speed>
  <fix>3d</fix>
</trkpt>
<trkpt lat="40.0733541" lon="-105.2281167">
  <ele>1583.0</ele>
  <time>2026-08-28T17:52:44Z</time>
  <course>173.11</course>
  <speed>3.6156603822815</speed>
  <fix>3d</fix>
</trkpt>
<trkpt lat="40.0733644" lon="-105.228118">
  <ele>1583.0</ele>
  <time>2026-08-28T17:52:44Z</time>
  <course>172.4</course>
  <speed>3.25</speed>
  <fix>3d</fix>
</trkpt>
<trkpt lat="40.0733509" lon="-105.2281162">
  <ele>1583.0</ele>
  <time>2026-08-28T17:52:44Z</time>
  <course>173.12</course>
  <speed>3.717337757051409</speed>
  <fix>3d</fix>
</trkpt>
<trkpt lat="40.0733583" lon="-105.228117">
  <ele>1583.0</ele>
  <time>2026-08-28T17:52:44Z</time>
  <course>172.49</course>
  <speed>3.46</speed>
  <fix>3d</fix>
</trkpt>
<trkpt lat="40.0733475" lon="-105.2281156">
  <ele>1583.0</ele>
  <time>2026-08-28T17:52:44Z</time>
  <course>173.13</course>
  <speed>3.8178135103747537</speed>
  <fix>3d</fix>
</trkpt>
<trkpt lat="40.073352" lon="-105.2281159">
  <ele>1583.0</ele>
  <time>2026-08-28T17:52:44Z</time>
  <course>172.56</course>
  <speed>3.67</speed>
  <fix>3d</fix>
</trkpt>
<trkpt lat="40.0733441" lon="-105.228115">
  <ele>1583.0</ele>
  <time>2026-08-28T17:52:44Z</time>
  <course>173.13</course>
  <speed>3.9282184256988564</speed>
  <fix>3d</fix>
</trkpt>
<trkpt lat="40.073352" lon="-105.2281159">
  <ele>1583.0</ele>
  <time>2026-08-28T17:52:44Z</time>
  <course>172.56</course>
  <speed>3.67</speed>
  <fix>3d</fix>
</trkpt>
<trkpt lat="40.0733406" lon="-105.2281144">
  <ele>1583.0</ele>
  <time>2026-08-28T17:52:44Z</time>
  <course>173.13</course>
  <speed>4.029900743194552</speed>
  <fix>3d</fix>
</trkpt>
<trkpt lat="40.0733452" lon="-105.2281147">
  <ele>1583.0</ele>
  <time>2026-08-28T17:52:44Z</time>
  <course>172.58</course>
  <speed>3.88</speed>
  <fix>3d</fix>
</trkpt>
<trkpt lat="40.0733369" lon="-105.2281137">
  <ele>1583.0</ele>
  <time>2026-08-28T17:52:44Z</time>
  <course>173.12</course>
  <speed>4.1303752856126765</speed>
  <fix>3d</fix>
</trkpt>
<trkpt lat="40.0733452" lon="-105.2281147">
  <ele>1583.0</ele>
  <time>2026-08-28T17:52:44Z</time>
  <course>172.58</course>
  <speed>3.88</speed>
  <fix>3d</fix>
</trkpt>
<trkpt lat="40.0733332" lon="-105.2281131">
  <ele>1583.0</ele>
  <time>2026-08-28T17:52:44Z</time>
  <course>173.12</course>
  <speed>4.241992456381789</speed>
  <fix>3d</fix>
</trkpt>
<trkpt lat="40.0733381" lon="-105.2281136">
  <ele>1583.0</ele>
  <time>2026-08-28T17:52:44Z</time>
  <course>172.58</course>
  <speed>4.09</speed>
  <fix>3d</fix>
</trkpt>
<trkpt lat="40.0733294" lon="-105.2281124">
  <ele>1583.0</ele>
  <time>2026-08-28T17:52:44Z</time>
  <course>173.12</course>
  <speed>4.342464737910948</speed>
  <fix>3d</fix>
</trkpt>
<trkpt lat="40.0733381" lon="-105.2281136">
  <ele>1583.0</ele>
  <time>2026-08-28T17:52:44Z</time>
  <course>172.58</course>
  <speed>4.09</speed>
  <fix>3d</fix>
</trkpt>
<trkpt lat="40.0733254" lon="-105.2281118">
  <ele>1583.01</ele>
  <time>2026-08-28T17:52:44Z</time>
  <course>173.11</course>
  <speed>4.442938216991094</speed>
  <fix>3d</fix>
</trkpt>
<trkpt lat="40.0733307" lon="-105.2281123">
  <ele>1583.0</ele>
  <time>2026-08-28T17:52:44Z</time>
  <course>172.58</course>
  <speed>4.3</speed>
  <fix>3d</fix>
</trkpt>
<trkpt lat="40.0733214" lon="-105.2281111">
  <ele>1583.01</ele>
  <time>2026-08-28T17:52:44Z</time>
  <course>173.11</course>
  <speed>4.554558156396732</speed>
  <fix>3d</fix>
</trkpt>
<trkpt lat="40.0733307" lon="-105.2281123">
  <ele>1583.0</ele>
  <time>2026-08-28T17:52:44Z</time>
  <course>172.58</course>
  <speed>4.3</speed>
  <fix>3d</fix>
</trkpt>
<trkpt lat="40.0733173" lon="-105.2281104">
  <ele>1583.01</ele>
  <time>2026-08-28T17:52:44Z</time>
  <course>173.11</course>
  <speed>4.655029538037326</speed>
  <fix>3d</fix>
</trkpt>
<trkpt lat="40.0733228" lon="-105.228111">
  <ele>1583.0</ele>
  <time>2026-08-28T17:52:44Z</time>
  <course>172.58</course>
  <speed>4.5</speed>
  <fix>3d</fix>
</trkpt>
<trkpt lat="40.0733131" lon="-105.2281096">
  <ele>1583.01</ele>
  <time>2026-08-28T17:52:44Z</time>
  <course>173.1</course>
  <speed>4.745576888008454</speed>
  <fix>3d</fix>
</trkpt>
<trkpt lat="40.0733228" lon="-105.228111">
  <ele>1583.0</ele>
  <time>2026-08-28T17:52:44Z</time>
  <course>172.58</course>
  <speed>4.5</speed>
  <fix>3d</fix>
</trkpt>
<trkpt lat="40.0733088" lon="-105.2281089">
  <ele>1583.01</ele>
  <time>2026-08-28T17:52:44Z</time>
  <course>173.1</course>
  <speed>4.847277586439629</speed>
  <fix>3d</fix>
</trkpt>
<trkpt lat="40.0733146" lon="-105.2281096">
  <ele>1583.0</ele>
  <time>2026-08-28T17:52:44Z</time>
  <course>172.58</course>
  <speed>4.7</speed>
  <fix>3d</fix>
</trkpt>
<trkpt lat="40.0733044" lon="-105.2281081">
  <ele>1583.01</ele>
  <time>2026-08-28T17:52:44Z</time>
  <course>173.1</course>
  <speed>4.927900161326323</speed>
  <fix>3d</fix>
</trkpt>
<trkpt lat="40.0733146" lon="-105.2281096">
  <ele>1583.0</ele>
  <time>2026-08-28T17:52:44Z</time>
  <course>172.58</course>
  <speed>4.7</speed>
  <fix>3d</fix>
</trkpt>
<trkpt lat="40.0733" lon="-105.2281074">
  <ele>1583.01</ele>
  <time>2026-08-28T17:52:44Z</time>
  <course>173.09</course>
  <speed>5.008522736296602</speed>
  <fix>3d</fix>
</trkpt>
<trkpt lat="40.0733061" lon="-105.2281081">
  <ele>1583.0</ele>
  <time>2026-08-28T17:52:44Z</time>
  <course>172.58</course>
  <speed>4.88</speed>
  <fix>3d</fix>
</trkpt>
<trkpt lat="40.0732955" lon="-105.2281066">
  <ele>1583.01</ele>
  <time>2026-08-28T17:52:44Z</time>
  <course>173.09</course>
  <speed>5.079222381428086</speed>
  <fix>3d</fix>
</trkpt>
<trkpt lat="40.0733061" lon="-105.2281081">
  <ele>1583.0</ele>
  <time>2026-08-28T17:52:44Z</time>
  <course>172.58</course>
  <speed>4.88</speed>
  <fix>3d</fix>
</trkpt>
<trkpt lat="40.0732909" lon="-105.2281058">
  <ele>1583.02</ele>
  <time>2026-08-28T17:52:44Z</time>
  <course>173.09</course>
  <speed>5.149922329511388</speed>
  <fix>3d</fix>
</trkpt>
<trkpt lat="40.0733061" lon="-105.2281081">
  <ele>1583.0</ele>
  <time>2026-08-28T17:52:44Z</time>
  <course>172.58</course>
  <speed>4.88</speed>
  <fix>3d</fix>
</trkpt>
<trkpt lat="40.0732864" lon="-105.2281051">
  <ele>1583.02</ele>
  <time>2026-08-28T17:52:44Z</time>
  <course>173.08</course>
  <speed>5.189614629237898</speed>
  <fix>3d</fix>
</trkpt>
<trkpt lat="40.0732972" lon="-105.2281066">
  <ele>1583.0</ele>
  <time>2026-08-28T17:52:44Z</time>
  <course>172.58</course>
  <speed>5.03</speed>
  <fix>3d</fix>
</trkpt>
<trkpt lat="40.0732817" lon="-105.2281043">
  <ele>1583.02</ele>
  <time>2026-08-28T17:52:44Z</time>
  <course>173.08</course>
  <speed>5.230544904692054</speed>
  <fix>3d</fix>
</trkpt>
<trkpt lat="40.0732972" lon="-105.2281066">
  <ele>1583.0</ele>
  <time>2026-08-28T17:52:44Z</time>
  <course>172.58</course>
  <speed>5.03</speed>
  <fix>3d</fix>
</trkpt>
<trkpt lat="40.0732771" lon="-105.2281035">
  <ele>1583.02</ele>
  <time>2026-08-28T17:52:44Z</time>
  <course>173.07</course>
  <speed>5.260313678859846</speed>
  <fix>3d</fix>
</trkpt>
<trkpt lat="40.0732881" lon="-105.228105">
  <ele>1583.0</ele>
  <time>2026-08-28T17:52:44Z</time>
  <course>172.58</course>
  <speed>5.14</speed>
  <fix>3d</fix>
</trkpt>
<trkpt lat="40.0732725" lon="-105.2281027">
  <ele>1583.02</ele>
  <time>2026-08-28T17:52:44Z</time>
  <course>173.06</course>
  <speed>5.271479868120526</speed>
  <fix>3d</fix>
</trkpt>
<trkpt lat="40.0732881" lon="-105.228105">
  <ele>1583.0</ele>
  <time>2026-08-28T17:52:44Z</time>
  <course>172.58</course>
  <speed>5.14</speed>
  <fix>3d</fix>
</trkpt>
<trkpt lat="40.0732679" lon="-105.2281019">
  <ele>1583.02</ele>
  <time>2026-08-28T17:52:44Z</time>
  <course>173.06</course>
  <speed>5.28140132919285</speed>
  <fix>3d</fix>
</trkpt>
<trkpt lat="40.0732789" lon="-105.2281035">
  <ele>1583.0</ele>
  <time>2026-08-28T17:52:44Z</time>
  <course>172.58</course>
  <speed>5.21</speed>
  <fix>3d</fix>
</trkpt>
<trkpt lat="40.0732632" lon="-105.2281011">
  <ele>1583.02</ele>
  <time>2026-08-28T17:52:44Z</time>
  <course>173.07</course>
  <speed>5.271479868120526</speed>
  <fix>3d</fix>
</trkpt>
<trkpt lat="40.0732789" lon="-105.2281035">
  <ele>1583.0</ele>
  <time>2026-08-28T17:52:44Z</time>
  <course>172.58</course>
  <speed>5.21</speed>
  <fix>3d</fix>
</trkpt>
<trkpt lat="40.0732586" lon="-105.2281003">
  <ele>1583.02</ele>
  <time>2026-08-28T17:52:44Z</time>
  <course>173.06</course>
  <speed>5.261558704414501</speed>
  <fix>3d</fix>
</trkpt>
<trkpt lat="40.0732696" lon="-105.228102">
  <ele>1583.0</ele>
  <time>2026-08-28T17:52:44Z</time>
  <course>172.59</course>
  <speed>5.24</speed>
  <fix>3d</fix>
</trkpt>
<trkpt lat="40.073254" lon="-105.2280995">
  <ele>1583.02</ele>
  <time>2026-08-28T17:52:44Z</time>
  <course>173.07</course>
  <speed>5.240467536394058</speed>
  <fix>3d</fix>
</trkpt>
<trkpt lat="40.0732602" lon="-105.2281003">
  <ele>1583.0</ele>
  <time>2026-08-28T17:52:44Z</time>
  <course>172.61</course>
  <speed>5.23</speed>
  <fix>3d</fix>
</trkpt>
<trkpt lat="40.0732493" lon="-105.2280987">
  <ele>1583.02</ele>
  <time>2026-08-28T17:52:44Z</time>
  <course>173.07</course>
  <speed>5.22062256823839</speed>
  <fix>3d</fix>
</trkpt>
<trkpt lat="40.0732602" lon="-105.2281003">
  <ele>1583.0</ele>
  <time>2026-08-28T17:52:44Z</time>
  <course>172.61</course>
  <speed>5.23</speed>
  <fix>3d</fix>
</trkpt>
<trkpt lat="40.0732448" lon="-105.2280979">
  <ele>1583.02</ele>
  <time>2026-08-28T17:52:44Z</time>
  <course>173.09</course>
  <speed>5.190857347298229</speed>
  <fix>3d</fix>
</trkpt>
<trkpt lat="40.0732509" lon="-105.2280988">
  <ele>1583.0</ele>
  <time>2026-08-28T17:52:44Z</time>
  <course>172.62</course>
  <speed>5.2</speed>
  <fix>3d</fix>
</trkpt>
<trkpt lat="40.0732402" lon="-105.2280972">
  <ele>1583.02</ele>
  <time>2026-08-28T17:52:44Z</time>
  <course>173.09</course>
  <speed>5.171015374179428</speed>
  <fix>3d</fix>
</trkpt>
<trkpt lat="40.0732509" lon="-105.2280988">
  <ele>1583.0</ele>
  <time>2026-08-28T17:52:44Z</time>
  <course>172.62</course>
  <speed>5.2</speed>
  <fix>3d</fix>
</trkpt>
<trkpt lat="40.0732356" lon="-105.2280964">
  <ele>1583.02</ele>
  <time>2026-08-28T17:52:44Z</time>
  <course>173.1</course>
  <speed>5.14</speed>
  <fix>3d</fix>
</trkpt>
<trkpt lat="40.0732417" lon="-105.2280972">
  <ele>1583.0</ele>
  <time>2026-08-28T17:52:44Z</time>
  <course>172.63</course>
  <speed>5.15</speed>
  <fix>3d</fix>
</trkpt>
<trkpt lat="40.073231" lon="-105.2280956">
  <ele>1583.02</ele>
  <time>2026-08-28T17:52:44Z</time>
  <course>173.1</course>
  <speed>5.100313715841409</speed>
  <fix>3d</fix>
</trkpt>
<trkpt lat="40.0732417" lon="-105.2280972">
  <ele>1583.0</ele>
  <time>2026-08-28T17:52:44Z</time>
  <course>172.63</course>
  <speed>5.15</speed>
  <fix>3d</fix>
</trkpt>
<trkpt lat="40.0732265" lon="-105.2280948">
  <ele>1583.01</ele>
  <time>2026-08-28T17:52:44Z</time>
  <course>173.1</course>
  <speed>5.069299754403955</speed>
  <fix>3d</fix>
</trkpt>
<trkpt lat="40.0732326" lon="-105.2280957">
  <ele>1583.0</ele>
  <time>2026-08-28T17:52:44Z</time>
  <course>172.64</course>
  <speed>5.09</speed>
  <fix>3d</fix>
</trkpt>
<trkpt lat="40.0732219" lon="-105.2280941">
  <ele>1583.01</ele>
  <time>2026-08-28T17:52:44Z</time>
  <course>173.1</course>
  <speed>5.039533708588524</speed>
  <fix>3d</fix>
</trkpt>
<trkpt lat="40.0732326" lon="-105.2280957">
  <ele>1583.0</ele>
  <time>2026-08-28T17:52:44Z</time>
  <course>172.64</course>
  <speed>5.09</speed>
  <fix>3d</fix>
</trkpt>
<trkpt lat="40.0732174" lon="-105.2280933">
  <ele>1583.01</ele>
  <time>2026-08-28T17:52:44Z</time>
  <course>173.1</course>
  <speed>5.009770453823209</speed>
  <fix>3d</fix>
</trkpt>
<trkpt lat="40.0732236" lon="-105.2280941">
  <ele>1583.0</ele>
  <time>2026-08-28T17:52:44Z</time>
  <course>172.64</course>
  <speed>5.03</speed>
  <fix>3d</fix>
</trkpt>
<trkpt lat="40.073213" lon="-105.2280925">
  <ele>1583.01</ele>
  <time>2026-08-28T17:52:44Z</time>
  <course>173.12</course>
  <speed>4.978754864421425</speed>
  <fix>3d</fix>
</trkpt>
<trkpt lat="40.0732236" lon="-105.2280941">
  <ele>1583.0</ele>
  <time>2026-08-28T17:52:44Z</time>
  <course>172.64</course>
  <speed>5.03</speed>
  <fix>3d</fix>
</trkpt>
<trkpt lat="40.0732085" lon="-105.2280918">
  <ele>1583.01</ele>
  <time>2026-08-28T17:52:44Z</time>
  <course>173.12</course>
  <speed>4.948989795907848</speed>
  <fix>3d</fix>
</trkpt>
<trkpt lat="40.0732146" lon="-105.2280926">
  <ele>1583.0</ele>
  <time>2026-08-28T17:52:44Z</time>
  <course>172.65</course>
  <speed>4.97</speed>
  <fix>3d</fix>
</trkpt>
<trkpt lat="40.0732041" lon="-105.228091">
  <ele>1583.01</ele>
  <time>2026-08-28T17:52:44Z</time>
  <course>173.12</course>
  <speed>4.929147999401113</speed>
  <fix>3d</fix>
</trkpt>
<trkpt lat="40.0732146" lon="-105.2280926">
  <ele>1583.0</ele>
  <time>2026-08-28T17:52:44Z</time>
  <course>172.65</course>
  <speed>4.97</speed>
  <fix>3d</fix>
</trkpt>
<trkpt lat="40.0731998" lon="-105.2280903">
  <ele>1583.01</ele>
  <time>2026-08-28T17:52:44Z</time>
  <course>173.12</course>
  <speed>4.898132297110808</speed>
  <fix>3d</fix>
</trkpt>
<trkpt lat="40.0732059" lon="-105.2280912">
  <ele>1583.0</ele>
  <time>2026-08-28T17:52:44Z</time>
  <course>172.65</course>
  <speed>4.92</speed>
  <fix>3d</fix>
</trkpt>
<trkpt lat="40.0731954" lon="-105.2280896">
  <ele>1583.01</ele>
  <time>2026-08-28T17:52:44Z</time>
  <course>173.12</course>
  <speed>4.87828863434709</speed>
  <fix>3d</fix>
</trkpt>
<trkpt lat="40.0732059" lon="-105.2280912">
  <ele>1583.0</ele>
  <time>2026-08-28T17:52:44Z</time>
  <course>172.65</course>
  <speed>4.92</speed>
  <fix>3d</fix>
</trkpt>
<trkpt lat="40.0731911" lon="-105.2280888">
  <ele>1583.01</ele>
  <time>2026-08-28T17:52:44Z</time>
  <course>173.12</course>
  <speed>4.858446253690577</speed>
  <fix>3d</fix>
</trkpt>
<trkpt lat="40.0732059" lon="-105.2280912">
  <ele>1583.0</ele>
  <time>2026-08-28T17:52:44Z</time>
  <course>172.65</course>
  <speed>4.92</speed>
  <fix>3d</fix>
</trkpt>
<trkpt lat="40.0731868" lon="-105.2280881">
  <ele>1583.01</ele>
  <time>2026-08-28T17:52:44Z</time>
  <course>173.13</course>
  <speed>4.848525549071594</speed>
  <fix>3d</fix>
</trkpt>
<trkpt lat="40.0731971" lon="-105.2280897">
  <ele>1583.0</ele>
  <time>2026-08-28T17:52:44Z</time>
  <course>172.65</course>
  <speed>4.88</speed>
  <fix>3d</fix>
</trkpt>
<trkpt lat="40.0731825" lon="-105.2280874">
  <ele>1583.01</ele>
  <time>2026-08-28T17:52:44Z</time>
  <course>173.13</course>
  <speed>4.827432029557744</speed>
  <fix>3d</fix>
</trkpt>
<trkpt lat="40.0731971" lon="-105.2280897">
  <ele>1583.0</ele>
  <time>2026-08-28T17:52:44Z</time>
  <course>172.65</course>
  <speed>4.88</speed>
  <fix>3d</fix>
</trkpt>
<trkpt lat="40.0731783" lon="-105.2280867">
  <ele>1583.02</ele>
  <time>2026-08-28T17:52:44Z</time>
  <course>173.13</course>
  <speed>4.817509730140667</speed>
  <fix>3d</fix>
</trkpt>
<trkpt lat="40.0731884" lon="-105.2280882">
  <ele>1583.0</ele>
  <time>2026-08-28T17:52:44Z</time>
  <course>172.65</course>
  <speed>4.85</speed>
  <fix>3d</fix>
</trkpt>
<trkpt lat="40.073174" lon="-105.228086">
  <ele>1583.02</ele>
  <time>2026-08-28T17:52:44Z</time>
  <course>173.13</course>
  <speed>4.817509730140667</speed>
  <fix>3d</fix>
</trkpt>
<trkpt lat="40.0731884" lon="-105.2280882">
  <ele>1583.0</ele>
  <time>2026-08-28T17:52:44Z</time>
  <course>172.65</course>
  <speed>4.85</speed>
  <fix>3d</fix>
</trkpt>
<trkpt lat="40.0731698" lon="-105.2280852">
  <ele>1583.02</ele>
  <time>2026-08-28T17:52:44Z</time>
  <course>173.13</course>
  <speed>4.807587752709252</speed>
  <fix>3d</fix>
</trkpt>
<trkpt lat="40.0731798" lon="-105.2280868">
  <ele>1583.0</ele>
  <time>2026-08-28T17:52:44Z</time>
  <course>172.65</course>
  <speed>4.83</speed>
  <fix>3d</fix>
</trkpt>
<trkpt lat="40.0731655" lon="-105.2280845">
  <ele>1583.02</ele>
  <time>2026-08-28T17:52:44Z</time>
  <course>173.13</course>
  <speed>4.807587752709252</speed>
  <fix>3d</fix>
</trkpt>
<trkpt lat="40.0731712" lon="-105.2280853">
  <ele>1583.0</ele>
  <time>2026-08-28T17:52:44Z</time>
  <course>172.65</course>
  <speed>4.83</speed>
  <fix>3d</fix>
</trkpt>
<trkpt lat="40.0731612" lon="-105.2280838">
  <ele>1583.02</ele>
  <time>2026-08-28T17:52:44Z</time>
  <course>173.13</course>
  <speed>4.807587752709252</speed>
  <fix>3d</fix>
</trkpt>
<trkpt lat="40.0731712" lon="-105.2280853">
  <ele>1583.0</ele>
  <time>2026-08-28T17:52:44Z</time>
  <course>172.65</course>
  <speed>4.83</speed>
  <fix>3d</fix>
</trkpt>
<trkpt lat="40.0731569" lon="-105.2280831">
  <ele>1583.02</ele>
  <time>2026-08-28T17:52:44Z</time>
  <course>173.13</course>
  <speed>4.817509730140667</speed>
  <fix>3d</fix>
</trkpt>
<trkpt lat="40.0731625" lon="-105.2280839">
  <ele>1583.0</ele>
  <time>2026-08-28T17:52:44Z</time>
  <course>172.65</course>
  <speed>4.84</speed>
  <fix>3d</fix>
</trkpt>
<trkpt lat="40.0731527" lon="-105.2280824">
  <ele>1583.02</ele>
  <time>2026-08-28T17:52:44Z</time>
  <course>173.14</course>
  <speed>4.817509730140667</speed>
  <fix>3d</fix>
</trkpt>
<trkpt lat="40.0731625" lon="-105.2280839">
  <ele>1583.0</ele>
  <time>2026-08-28T17:52:44Z</time>
  <course>172.65</course>
  <speed>4.84</speed>
  <fix>3d</fix>
</trkpt>
<trkpt lat="40.0731483" lon="-105.2280816">
  <ele>1583.02</ele>
  <time>2026-08-28T17:52:44Z</time>
  <course>173.14</course>
  <speed>4.827432029557744</speed>
  <fix>3d</fix>
</trkpt>
<trkpt lat="40.0731539" lon="-105.2280824">
  <ele>1583.0</ele>
  <time>2026-08-28T17:52:44Z</time>
  <course>172.65</course>
  <speed>4.85</speed>
  <fix>3d</fix>
</trkpt>
<trkpt lat="40.073144" lon="-105.2280809">
  <ele>1583.02</ele>
  <time>2026-08-28T17:52:44Z</time>
  <course>173.14</course>
  <speed>4.83735464897913</speed>
  <fix>3d</fix>
</trkpt>
<trkpt lat="40.0731539" lon="-105.2280824">
  <ele>1583.0</ele>
  <time>2026-08-28T17:52:44Z</time>
  <course>172.65</course>
  <speed>4.85</speed>
  <fix>3d</fix>
</trkpt>
<trkpt lat="40.0731396" lon="-105.2280802">
  <ele>1583.02</ele>
  <time>2026-08-28T17:52:44Z</time>
  <course>173.15</course>
  <speed>4.847277586439629</speed>
  <fix>3d</fix>
</trkpt>
<trkpt lat="40.0731452" lon="-105.228081">
  <ele>1583.0</ele>
  <time>2026-08-28T17:52:44Z</time>
  <course>172.65</course>
  <speed>4.87</speed>
  <fix>3d</fix>
</trkpt>
<trkpt lat="40.0731352" lon="-105.2280794">
  <ele>1583.02</ele>
  <time>2026-08-28T17:52:44Z</time>
  <course>173.15</course>
  <speed>4.858446253690577</speed>
  <fix>3d</fix>
</trkpt>
<trkpt lat="40.0731452" lon="-105.228081">
  <ele>1583.0</ele>
  <time>2026-08-28T17:52:44Z</time>
  <course>172.65</course>
  <speed>4.87</speed>
  <fix>3d</fix>
</trkpt>
<trkpt lat="40.0731309" lon="-105.2280787">
  <ele>1583.01</ele>
  <time>2026-08-28T17:52:44Z</time>
  <course>173.15</course>
  <speed>4.868367282775612</speed>
  <fix>3d</fix>
</trkpt>
<trkpt lat="40.0731365" lon="-105.2280795">
  <ele>1583.0</ele>
  <time>2026-08-28T17:52:44Z</time>
  <course>172.65</course>
  <speed>4.89</speed>
  <fix>3d</fix>
</trkpt>
<trkpt lat="40.0731265" lon="-105.228078">
  <ele>1583.01</ele>
  <time>2026-08-28T17:52:44Z</time>
  <course>173.16</course>
  <speed>4.87828863434709</speed>
  <fix>3d</fix>
</trkpt>
<trkpt lat="40.0731365" lon="-105.2280795">
  <ele>1583.0</ele>
  <time>2026-08-28T17:52:44Z</time>
  <course>172.65</course>
  <speed>4.89</speed>
  <fix>3d</fix>
</trkpt>
<trkpt lat="40.0731221" lon="-105.2280772">
  <ele>1583.01</ele>
  <time>2026-08-28T17:52:44Z</time>
  <course>173.16</course>
  <speed>4.888210306441407</speed>
  <fix>3d</fix>
</trkpt>
<trkpt lat="40.0731278" lon="-105.228078">
  <ele>1583.0</ele>
  <time>2026-08-28T17:52:44Z</time>
  <course>172.65</course>
  <speed>4.9</speed>
  <fix>3d</fix>
</trkpt>
<trkpt lat="40.0731177" lon="-105.2280765">
  <ele>1583.02</ele>
  <time>2026-08-28T17:52:44Z</time>
  <course>173.16</course>
  <speed>4.898132297110808</speed>
  <fix>3d</fix>
</trkpt>
<trkpt lat="40.0731278" lon="-105.228078">
  <ele>1583.0</ele>
  <time>2026-08-28T17:52:44Z</time>
  <course>172.65</course>
  <speed>4.9</speed>
  <fix>3d</fix>
</trkpt>
<trkpt lat="40.0731133" lon="-105.2280757">
  <ele>1583.02</ele>
  <time>2026-08-28T17:52:44Z</time>
  <course>173.17</course>
  <speed>4.908054604423223</speed>
  <fix>3d</fix>
</trkpt>
<trkpt lat="40.0731191" lon="-105.2280766">
  <ele>1583.0</ele>
  <time>2026-08-28T17:52:44Z</time>
  <course>172.65</course>
  <speed>4.92</speed>
  <fix>3d</fix>
</trkpt>
<trkpt lat="40.0731089" lon="-105.228075">
  <ele>1583.02</ele>
  <time>2026-08-28T17:52:44Z</time>
  <course>173.17</course>
  <speed>4.908054604423223</speed>
  <fix>3d</fix>
</trkpt>
<trkpt lat="40.0731191" lon="-105.2280766">
  <ele>1583.0</ele>
  <time>2026-08-28T17:52:44Z</time>
  <course>172.65</course>
  <speed>4.92</speed>
  <fix>3d</fix>
</trkpt>
<trkpt lat="40.0731045" lon="-105.2280743">
  <ele>1583.02</ele>
  <time>2026-08-28T17:52:44Z</time>
  <course>173.17</course>
  <speed>4.917977226462115</speed>
  <fix>3d</fix>
</trkpt>
<trkpt lat="40.0731191" lon="-105.2280766">
  <ele>1583.0</ele>
  <time>2026-08-28T17:52:44Z</time>
  <course>172.65</course>
  <speed>4.92</speed>
  <fix>3d</fix>
</trkpt>
<trkpt lat="40.0731001" lon="-105.2280735">
  <ele>1583.02</ele>
  <time>2026-08-28T17:52:44Z</time>
  <course>173.18</course>
  <speed>4.917977226462115</speed>
  <fix>3d</fix>
</trkpt>
<trkpt lat="40.0731102" lon="-105.2280751">
  <ele>1583.0</ele>
  <time>2026-08-28T17:52:44Z</time>
  <course>172.65</course>
  <speed>4.94</speed>
  <fix>3d</fix>
</trkpt>
<trkpt lat="40.0730957" lon="-105.2280728">
  <ele>1583.02</ele>
  <time>2026-08-28T17:52:44Z</time>
  <course>173.18</course>
  <speed>4.927900161326323</speed>
  <fix>3d</fix>
</trkpt>
<trkpt lat="40.0731102" lon="-105.2280751">
  <ele>1583.0</ele>
  <time>2026-08-28T17:52:44Z</time>
  <course>172.65</course>
  <speed>4.94</speed>
  <fix>3d</fix>
</trkpt>
<trkpt lat="40.0730913" lon="-105.2280721">
  <ele>1583.02</ele>
  <time>2026-08-28T17:52:44Z</time>
  <course>173.18</course>
  <speed>4.927900161326323</speed>
  <fix>3d</fix>
</trkpt>
<trkpt lat="40.0731014" lon="-105.2280736">
  <ele>1583.0</ele>
  <time>2026-08-28T17:52:44Z</time>
  <course>172.65</course>
  <speed>4.95</speed>
  <fix>3d</fix>
</trkpt>
<trkpt lat="40.0730869" lon="-105.2280713">
  <ele>1583.02</ele>
  <time>2026-08-28T17:52:44Z</time>
  <course>173.18</course>
  <speed>4.9378234071299065</speed>
  <fix>3d</fix>
</trkpt>
<trkpt lat="40.0731014" lon="-105.2280736">
  <ele>1583.0</ele>
  <time>2026-08-28T17:52:44Z</time>
  <course>172.65</course>
  <speed>4.95</speed>
  <fix>3d</fix>
</trkpt>
<trkpt lat="40.0730825" lon="-105.2280706">
  <ele>1583.02</ele>
  <time>2026-08-28T17:52:44Z</time>
  <course>173.19</course>
  <speed>4.9378234071299065</speed>
  <fix>3d</fix>
</trkpt>
<trkpt lat="40.0730925" lon="-105.2280721">
  <ele>1583.0</ele>
  <time>2026-08-28T17:52:44Z</time>
  <course>172.65</course>
  <speed>4.96</speed>
  <fix>3d</fix>
</trkpt>
<trkpt lat="40.0730782" lon="-105.2280699">
  <ele>1583.01</ele>
  <time>2026-08-28T17:52:44Z</time>
  <course>173.19</course>
  <speed>4.9378234071299065</speed>
  <fix>3d</fix>
</trkpt>
<trkpt lat="40.0730925" lon="-105.2280721">
  <ele>1583.0</ele>
  <time>2026-08-28T17:52:44Z</time>
  <course>172.65</course>
  <speed>4.96</speed>
  <fix>3d</fix>
</trkpt>
<trkpt lat="40.0730737" lon="-105.2280691">
  <ele>1583.01</ele>
  <time>2026-08-28T17:52:44Z</time>
  <course>173.19</course>
  <speed>4.9378234071299065</speed>
  <fix>3d</fix>
</trkpt>
<trkpt lat="40.0730837" lon="-105.2280706">
  <ele>1583.0</ele>
  <time>2026-08-28T17:52:44Z</time>
  <course>172.65</course>
  <speed>4.97</speed>
  <fix>3d</fix>
</trkpt>
<trkpt lat="40.0730693" lon="-105.2280684">
  <ele>1583.01</ele>
  <time>2026-08-28T17:52:44Z</time>
  <course>173.19</course>
  <speed>4.9378234071299065</speed>
  <fix>3d</fix>
</trkpt>
<trkpt lat="40.0730748" lon="-105.2280691">
  <ele>1583.0</ele>
  <time>2026-08-28T17:52:44Z</time>
  <course>172.65</course>
  <speed>4.98</speed>
  <fix>3d</fix>
</trkpt>
<trkpt lat="40.0730649" lon="-105.2280677">
  <ele>1583.01</ele>
  <time>2026-08-28T17:52:44Z</time>
  <course>173.2</course>
  <speed>4.947746962001998</speed>
  <fix>3d</fix>
</trkpt>
<trkpt lat="40.0730748" lon="-105.2280691">
  <ele>1583.0</ele>
  <time>2026-08-28T17:52:44Z</time>
  <course>172.65</course>
  <speed>4.98</speed>
  <fix>3d</fix>
</trkpt>
<trkpt lat="40.0730605" lon="-105.2280669">
  <ele>1583.01</ele>
  <time>2026-08-28T17:52:44Z</time>
  <course>173.2</course>
  <speed>4.947746962001998</speed>
  <fix>3d</fix>
</trkpt>
<trkpt lat="40.073066" lon="-105.2280676">
  <ele>1583.0</ele>
  <time>2026-08-28T17:52:44Z</time>
  <course>172.65</course>
  <speed>4.98</speed>
  <fix>3d</fix>
</trkpt>
<trkpt lat="40.073056" lon="-105.2280662">
  <ele>1583.01</ele>
  <time>2026-08-28T17:52:44Z</time>
  <course>173.2</course>
  <speed>4.947746962001998</speed>
  <fix>3d</fix>
</trkpt>
<trkpt lat="40.073066" lon="-105.2280676">
  <ele>1583.0</ele>
  <time>2026-08-28T17:52:44Z</time>
  <course>172.65</course>
  <speed>4.98</speed>
  <fix>3d</fix>
</trkpt>
<trkpt lat="40.0730516" lon="-105.2280654">
  <ele>1583.01</ele>
  <time>2026-08-28T17:52:44Z</time>
  <course>173.21</course>
  <speed>4.947746962001998</speed>
  <fix>3d</fix>
</trkpt>
<trkpt lat="40.0730571" lon="-105.2280661">
  <ele>1583.0</ele>
  <time>2026-08-28T17:52:44Z</time>
  <course>172.65</course>
  <speed>4.99</speed>
  <fix>3d</fix>
</trkpt>
<trkpt lat="40.0730471" lon="-105.2280647">
  <ele>1583.01</ele>
  <time>2026-08-28T17:52:44Z</time>
  <course>173.21</course>
  <speed>4.95767082408665</speed>
  <fix>3d</fix>
</trkpt>
<trkpt lat="40.0730571" lon="-105.2280661">
  <ele>1583.0</ele>
  <time>2026-08-28T17:52:44Z</time>
  <course>172.65</course>
  <speed>4.99</speed>
  <fix>3d</fix>
</trkpt>
<trkpt lat="40.0730426" lon="-105.2280639">
  <ele>1583.02</ele>
  <time>2026-08-28T17:52:44Z</time>
  <course>173.21</course>
  <speed>4.95767082408665</speed>
  <fix>3d</fix>
</trkpt>
<trkpt lat="40.0730482" lon="-105.2280646">
  <ele>1583.0</ele>
  <time>2026-08-28T17:52:44Z</time>
  <course>172.65</course>
  <speed>4.99</speed>
  <fix>3d</fix>
</trkpt>
<trkpt lat="40.0730381" lon="-105.2280632">
  <ele>1583.02</ele>
  <time>2026-08-28T17:52:44Z</time>
  <course>173.22</course>
  <speed>4.95767082408665</speed>
  <fix>3d</fix>
</trkpt>
<trkpt lat="40.0730482" lon="-105.2280646">
  <ele>1583.0</ele>
  <time>2026-08-28T17:52:44Z</time>
  <course>172.65</course>
  <speed>4.99</speed>
  <fix>3d</fix>
</trkpt>
<trkpt lat="40.0730336" lon="-105.2280624">
  <ele>1583.02</ele>
  <time>2026-08-28T17:52:44Z</time>
  <course>173.22</course>
  <speed>4.95767082408665</speed>
  <fix>3d</fix>
</trkpt>
<trkpt lat="40.0730393" lon="-105.2280631">
  <ele>1583.0</ele>
  <time>2026-08-28T17:52:44Z</time>
  <course>172.65</course>
  <speed>4.99</speed>
  <fix>3d</fix>
</trkpt>
<trkpt lat="40.0730292" lon="-105.2280616">
  <ele>1583.02</ele>
  <time>2026-08-28T17:52:44Z</time>
  <course>173.22</course>
  <speed>4.95767082408665</speed>
  <fix>3d</fix>
</trkpt>
<trkpt lat="40.0730393" lon="-105.2280631">
  <ele>1583.0</ele>
  <time>2026-08-28T17:52:44Z</time>
  <course>172.65</course>
  <speed>4.99</speed>
  <fix>3d</fix>
</trkpt>
<trkpt lat="40.0730247" lon="-105.2280609">
  <ele>1583.02</ele>
  <time>2026-08-28T17:52:44Z</time>
  <course>173.22</course>
  <speed>4.95767082408665</speed>
  <fix>3d</fix>
</trkpt>
<trkpt lat="40.0730304" lon="-105.2280616">
  <ele>1583.0</ele>
  <time>2026-08-28T17:52:44Z</time>
  <course>172.65</course>
  <speed>4.99</speed>
  <fix>3d</fix>
</trkpt>
<trkpt lat="40.0730202" lon="-105.2280601">
  <ele>1583.01</ele>
  <time>2026-08-28T17:52:44Z</time>
  <course>173.23</course>
  <speed>4.95767082408665</speed>
  <fix>3d</fix>
</trkpt>
<trkpt lat="40.0730304" lon="-105.2280616">
  <ele>1583.0</ele>
  <time>2026-08-28T17:52:44Z</time>
  <course>172.65</course>
  <speed>4.99</speed>
  <fix>3d</fix>
</trkpt>
<trkpt lat="40.0730158" lon="-105.2280594">
  <ele>1583.01</ele>
  <time>2026-08-28T17:52:44Z</time>
  <course>173.23</course>
  <speed>4.95767082408665</speed>
  <fix>3d</fix>
</trkpt>
<trkpt lat="40.0730215" lon="-105.2280601">
  <ele>1583.0</ele>
  <time>2026-08-28T17:52:44Z</time>
  <course>172.65</course>
  <speed>4.98</speed>
  <fix>3d</fix>
</trkpt>
<trkpt lat="40.0730113" lon="-105.2280586">
  <ele>1583.01</ele>
  <time>2026-08-28T17:52:44Z</time>
  <course>173.23</course>
  <speed>4.947746962001998</speed>
  <fix>3d</fix>
</trkpt>
<trkpt lat="40.0730215" lon="-105.2280601">
  <ele>1583.0</ele>
  <time>2026-08-28T17:52:44Z</time>
  <course>172.65</course>
  <speed>4.98</speed>
  <fix>3d</fix>
</trkpt>
<trkpt lat="40.0730068" lon="-105.2280579">
  <ele>1583.01</ele>
  <time>2026-08-28T17:52:44Z</time>
  <course>173.23</course>
  <speed>4.947746962001998</speed>
  <fix>3d</fix>
</trkpt>
<trkpt lat="40.0730215" lon="-105.2280601">
  <ele>1583.0</ele>
  <time>2026-08-28T17:52:44Z</time>
  <course>172.65</course>
  <speed>4.98</speed>
  <fix>3d</fix>
</trkpt>
<trkpt lat="40.0730024" lon="-105.2280572">
  <ele>1583.02</ele>
  <time>2026-08-28T17:52:44Z</time>
  <course>173.24</course>
  <speed>4.947746962001998</speed>
  <fix>3d</fix>
</trkpt>
<trkpt lat="40.0730126" lon="-105.2280586">
  <ele>1583.0</ele>
  <time>2026-08-28T17:52:44Z</time>
  <course>172.65</course>
  <speed>4.98</speed>
  <fix>3d</fix>
</trkpt>
<trkpt lat="40.072998" lon="-105.2280564">
  <ele>1583.02</ele>
  <time>2026-08-28T17:52:44Z</time>
  <course>173.24</course>
  <speed>4.9378234071299065</speed>
  <fix>3d</fix>
</trkpt>
<trkpt lat="40.0730126" lon="-105.2280586">
  <ele>1583.0</ele>
  <time>2026-08-28T17:52:44Z</time>
  <course>172.65</course>
  <speed>4.98</speed>
  <fix>3d</fix>
</trkpt>
<trkpt lat="40.0729936" lon="-105.2280557">
  <ele>1583.02</ele>
  <time>2026-08-28T17:52:44Z</time>
  <course>173.24</course>
  <speed>4.926672304913327</speed>
  <fix>3d</fix>
</trkpt>
<trkpt lat="40.0730037" lon="-105.2280571">
  <ele>1583.0</ele>
  <time>2026-08-28T17:52:44Z</time>
  <course>172.65</course>
  <speed>4.97</speed>
  <fix>3d</fix>
</trkpt>
<trkpt lat="40.0729893" lon="-105.2280549">
  <ele>1583.02</ele>
  <time>2026-08-28T17:52:44Z</time>
  <course>173.24</course>
  <speed>4.906821781968446</speed>
  <fix>3d</fix>
</trkpt>
<trkpt lat="40.0730037" lon="-105.2280571">
  <ele>1583.0</ele>
  <time>2026-08-28T17:52:44Z</time>
  <course>172.65</course>
  <speed>4.97</speed>
  <fix>3d</fix>
</trkpt>
<trkpt lat="40.0729849" lon="-105.2280542">
  <ele>1583.02</ele>
  <time>2026-08-28T17:52:44Z</time>
  <course>173.24</course>
  <speed>4.886972477925367</speed>
  <fix>3d</fix>
</trkpt>
<trkpt lat="40.0729949" lon="-105.2280557">
  <ele>1583.0</ele>
  <time>2026-08-28T17:52:44Z</time>
  <course>172.65</course>
  <speed>4.95</speed>
  <fix>3d</fix>
</trkpt>
<trkpt lat="40.0729805" lon="-105.2280535">
  <ele>1583.02</ele>
  <time>2026-08-28T17:52:44Z</time>
  <course>173.25</course>
  <speed>4.857200839990045</speed>
  <fix>3d</fix>
</trkpt>
<trkpt lat="40.072986" lon="-105.2280542">
  <ele>1583.0</ele>
  <time>2026-08-28T17:52:44Z</time>
  <course>172.65</course>
  <speed>4.92</speed>
  <fix>3d</fix>
</trkpt>
<trkpt lat="40.0729762" lon="-105.2280528">
  <ele>1583.02</ele>
  <time>2026-08-28T17:52:44Z</time>
  <course>173.25</course>
  <speed>4.8261993328083745</speed>
  <fix>3d</fix>
</trkpt>
<trkpt lat="40.072986" lon="-105.2280542">
  <ele>1583.0</ele>
  <time>2026-08-28T17:52:44Z</time>
  <course>172.65</course>
  <speed>4.92</speed>
  <fix>3d</fix>
</trkpt>
<trkpt lat="40.0729719" lon="-105.228052">
  <ele>1583.02</ele>
  <time>2026-08-28T17:52:44Z</time>
  <course>173.25</course>
  <speed>4.776578273199341</speed>
  <fix>3d</fix>
</trkpt>
<trkpt lat="40.0729774" lon="-105.2280527">
  <ele>1583.0</ele>
  <time>2026-08-28T17:52:44Z</time>
  <course>172.65</course>
  <speed>4.85</speed>
  <fix>3d</fix>
</trkpt>
<trkpt lat="40.0729677" lon="-105.2280513">
  <ele>1583.02</ele>
  <time>2026-08-28T17:52:44Z</time>
  <course>173.25</course>
  <speed>4.715803218964931</speed>
  <fix>3d</fix>
</trkpt>
<trkpt lat="40.0729774" lon="-105.2280527">
  <ele>1583.0</ele>
  <time>2026-08-28T17:52:44Z</time>
  <course>172.65</course>
  <speed>4.85</speed>
  <fix>3d</fix>
</trkpt>
<trkpt lat="40.0729635" lon="-105.2280506">
  <ele>1583.02</ele>
  <time>2026-08-28T17:52:44Z</time>
  <course>173.25</course>
  <speed>4.655029538037326</speed>
  <fix>3d</fix>
</trkpt>
<trkpt lat="40.0729688" lon="-105.2280512">
  <ele>1583.0</ele>
  <time>2026-08-28T17:52:44Z</time>
  <course>172.65</course>
  <speed>4.75</speed>
  <fix>3d</fix>
</trkpt>
<trkpt lat="40.0729593" lon="-105.2280499">
  <ele>1583.02</ele>
  <time>2026-08-28T17:52:44Z</time>
  <course>173.26</course>
  <speed>4.574407065402029</speed>
  <fix>3d</fix>
</trkpt>
<trkpt lat="40.0729688" lon="-105.2280512">
  <ele>1583.0</ele>
  <time>2026-08-28T17:52:44Z</time>
  <course>172.65</course>
  <speed>4.75</speed>
  <fix>3d</fix>
</trkpt>
<trkpt lat="40.0729552" lon="-105.2280492">
  <ele>1583.02</ele>
  <time>2026-08-28T17:52:44Z</time>
  <course>173.26</course>
  <speed>4.4838599442890725</speed>
  <fix>3d</fix>
</trkpt>
<trkpt lat="40.0729604" lon="-105.2280499">
  <ele>1583.0</ele>
  <time>2026-08-28T17:52:44Z</time>
  <course>172.65</course>
  <speed>4.6</speed>
  <fix>3d</fix>
</trkpt>
<trkpt lat="40.0729512" lon="-105.2280485">
  <ele>1583.02</ele>
  <time>2026-08-28T17:52:44Z</time>
  <course>173.26</course>
  <speed>4.3833890997720015</speed>
  <fix>3d</fix>
</trkpt>
<trkpt lat="40.0729604" lon="-105.2280499">
  <ele>1583.0</ele>
  <time>2026-08-28T17:52:44Z</time>
  <course>172.65</course>
  <speed>4.6</speed>
  <fix>3d</fix>
</trkpt>
<trkpt lat="40.0729473" lon="-105.2280479">
  <ele>1583.02</ele>
  <time>2026-08-28T17:52:44Z</time>
  <course>173.26</course>
  <speed>4.272996606598231</speed>
  <fix>3d</fix>
</trkpt>
<trkpt lat="40.0729524" lon="-105.2280485">
  <ele>1583.0</ele>
  <time>2026-08-28T17:52:44Z</time>
  <course>172.65</course>
  <speed>4.41</speed>
  <fix>3d</fix>
</trkpt>
<trkpt lat="40.0729435" lon="-105.2280472">
  <ele>1583.02</ele>
  <time>2026-08-28T17:52:44Z</time>
  <course>173.26</course>
  <speed>4.161369966729707</speed>
  <fix>3d</fix>
</trkpt>
<trkpt lat="40.0729524" lon="-105.2280485">
  <ele>1583.0</ele>
  <time>2026-08-28T17:52:44Z</time>
  <course>172.65</course>
  <speed>4.41</speed>
  <fix>3d</fix>
</trkpt>
<trkpt lat="40.0729398" lon="-105.2280466">
  <ele>1583.03</ele>
  <time>2026-08-28T17:52:44Z</time>
  <course>173.27</course>
  <speed>4.050975191234822</speed>
  <fix>3d</fix>
</trkpt>
<trkpt lat="40.0729447" lon="-105.2280472">
  <ele>1583.0</ele>
  <time>2026-08-28T17:52:44Z</time>
  <course>172.65</course>
  <speed>4.2</speed>
  <fix>3d</fix>
</trkpt>
<trkpt lat="40.0729363" lon="-105.228046">
  <ele>1583.03</ele>
  <time>2026-08-28T17:52:44Z</time>
  <course>173.27</course>
  <speed>3.9294274392079056</speed>
  <fix>3d</fix>
</trkpt>
<trkpt lat="40.0729447" lon="-105.2280472">
  <ele>1583.0</ele>
  <time>2026-08-28T17:52:44Z</time>
  <course>172.65</course>
  <speed>4.2</speed>
  <fix>3d</fix>
</trkpt>
<trkpt lat="40.0729328" lon="-105.2280454">
  <ele>1583.03</ele>
  <time>2026-08-28T17:52:44Z</time>
  <course>173.27</course>
  <speed>3.799184122940082</speed>
  <fix>3d</fix>
</trkpt>
<trkpt lat="40.0729374" lon="-105.228046">
  <ele>1583.0</ele>
  <time>2026-08-28T17:52:44Z</time>
  <course>172.65</course>
  <speed>3.96</speed>
  <fix>3d</fix>
</trkpt>
<trkpt lat="40.0729294" lon="-105.2280449">
  <ele>1583.03</ele>
  <time>2026-08-28T17:52:44Z</time>
  <course>173.27</course>
  <speed>3.6776351096866584</speed>
  <fix>3d</fix>
</trkpt>
<trkpt lat="40.0729374" lon="-105.228046">
  <ele>1583.0</ele>
  <time>2026-08-28T17:52:44Z</time>
  <course>172.65</course>
  <speed>3.96</speed>
  <fix>3d</fix>
</trkpt>
<trkpt lat="40.0729262" lon="-105.2280443">
  <ele>1583.03</ele>
  <time>2026-08-28T17:52:44Z</time>
  <course>173.28</course>
  <speed>3.5473934092513617</speed>
  <fix>3d</fix>
</trkpt>
<trkpt lat="40.0729374" lon="-105.228046">
  <ele>1583.0</ele>
  <time>2026-08-28T17:52:44Z</time>
  <course>172.65</course>
  <speed>3.96</speed>
  <fix>3d</fix>
</trkpt>
<trkpt lat="40.0729231" lon="-105.2280438">
  <ele>1583.03</ele>
  <time>2026-08-28T17:52:44Z</time>
  <course>173.28</course>
  <speed>3.415918617297549</speed>
  <fix>3d</fix>
</trkpt>
<trkpt lat="40.0729305" lon="-105.2280448">
  <ele>1583.0</ele>
  <time>2026-08-28T17:52:44Z</time>
  <course>172.65</course>
  <speed>3.71</speed>
  <fix>3d</fix>
</trkpt>
<trkpt lat="40.0729201" lon="-105.2280433">
  <ele>1583.02</ele>
  <time>2026-08-28T17:52:44Z</time>
  <course>173.28</course>
  <speed>3.285681055732586</speed>
  <fix>3d</fix>
</trkpt>
<trkpt lat="40.0729305" lon="-105.2280448">
  <ele>1583.0</ele>
  <time>2026-08-28T17:52:44Z</time>
  <course>172.65</course>
  <speed>3.71</speed>
  <fix>3d</fix>
</trkpt>
<trkpt lat="40.0729173" lon="-105.2280428">
  <ele>1583.02</ele>
  <time>2026-08-28T17:52:44Z</time>
  <course>173.28</course>
  <speed>3.154203544478384</speed>
  <fix>3d</fix>
</trkpt>
<trkpt lat="40.0729241" lon="-105.2280438">
  <ele>1583.0</ele>
  <time>2026-08-28T17:52:44Z</time>
  <course>172.65</course>
  <speed>3.45</speed>
  <fix>3d</fix>
</trkpt>
<trkpt lat="40.0729145" lon="-105.2280423">
  <ele>1583.01</ele>
  <time>2026-08-28T17:52:44Z</time>
  <course>173.28</course>
  <speed>3.0227305536550886</speed>
  <fix>3d</fix>
</trkpt>
<trkpt lat="40.0729241" lon="-105.2280438">
  <ele>1583.0</ele>
  <time>2026-08-28T17:52:44Z</time>
  <course>172.65</course>
  <speed>3.45</speed>
  <fix>3d</fix>
</trkpt>
<trkpt lat="40.0729119" lon="-105.2280419">
  <ele>1583.01</ele>
  <time>2026-08-28T17:52:44Z</time>
  <course>173.29</course>
  <speed>2.9024127893874776</speed>
  <fix>3d</fix>
</trkpt>
<trkpt lat="40.0729182" lon="-105.2280428">
  <ele>1583.0</ele>
  <time>2026-08-28T17:52:44Z</time>
  <course>172.65</course>
  <speed>3.2</speed>
  <fix>3d</fix>
</trkpt>
<trkpt lat="40.0729094" lon="-105.2280415">
  <ele>1583.0</ele>
  <time>2026-08-28T17:52:44Z</time>
  <course>173.29</course>
  <speed>2.7709384691833194</speed>
  <fix>3d</fix>
</trkpt>
<trkpt lat="40.0729182" lon="-105.2280428">
  <ele>1583.0</ele>
  <time>2026-08-28T17:52:44Z</time>
  <course>172.65</course>
  <speed>3.2</speed>
  <fix>3d</fix>
</trkpt>
<trkpt lat="40.072907" lon="-105.228041">
  <ele>1583.0</ele>
  <time>2026-08-28T17:52:44Z</time>
  <course>173.29</course>
  <speed>2.6506225683789837</speed>
  <fix>3d</fix>
</trkpt>
<trkpt lat="40.0729128" lon="-105.2280418">
  <ele>1583.0</ele>
  <time>2026-08-28T17:52:44Z</time>
  <course>172.65</course>
  <speed>2.95</speed>
  <fix>3d</fix>
</trkpt>
<trkpt lat="40.0729047" lon="-105.2280407">
  <ele>1582.99</ele>
  <time>2026-08-28T17:52:44Z</time>
  <course>173.29</course>
  <speed>2.5290709756746645</speed>
  <fix>3d</fix>
</trkpt>
<trkpt lat="40.0729077" lon="-105.2280409">
  <ele>1583.0</ele>
  <time>2026-08-28T17:52:44Z</time>
  <course>172.65</course>
  <speed>2.71</speed>
  <fix>3d</fix>
</trkpt>
<trkpt lat="40.0729025" lon="-105.2280403">
  <ele>1582.98</ele>
  <time>2026-08-28T17:52:44Z</time>
  <course>173.3</course>
  <speed>2.4087548650703337</speed>
  <fix>3d</fix>
</trkpt>
<trkpt lat="40.0729077" lon="-105.2280409">
  <ele>1583.0</ele>
  <time>2026-08-28T17:52:44Z</time>
  <course>172.65</course>
  <speed>2.71</speed>
  <fix>3d</fix>
</trkpt>
<trkpt lat="40.0729004" lon="-105.2280399">
  <ele>1582.98</ele>
  <time>2026-08-28T17:52:44Z</time>
  <course>173.3</course>
  <speed>2.297128642457797</speed>
  <fix>3d</fix>
</trkpt>
<trkpt lat="40.0729031" lon="-105.2280402">
  <ele>1583.0</ele>
  <time>2026-08-28T17:52:44Z</time>
  <course>172.65</course>
  <speed>2.47</speed>
  <fix>3d</fix>
</trkpt>
<trkpt lat="40.0728984" lon="-105.2280396">
  <ele>1582.97</ele>
  <time>2026-08-28T17:52:44Z</time>
  <course>173.3</course>
  <speed>2.186732722579511</speed>
  <fix>3d</fix>
</trkpt>
<trkpt lat="40.0729031" lon="-105.2280402">
  <ele>1583.0</ele>
  <time>2026-08-28T17:52:44Z</time>
  <course>172.65</course>
  <speed>2.47</speed>
  <fix>3d</fix>
</trkpt>
<trkpt lat="40.0728965" lon="-105.2280392">
  <ele>1582.97</ele>
  <time>2026-08-28T17:52:44Z</time>
  <course>173.3</course>
  <speed>2.076342938919291</speed>
  <fix>3d</fix>
</trkpt>
<trkpt lat="40.0728989" lon="-105.2280395">
  <ele>1583.0</ele>
  <time>2026-08-28T17:52:44Z</time>
  <course>172.66</course>
  <speed>2.25</speed>
  <fix>3d</fix>
</trkpt>
<trkpt lat="40.0728947" lon="-105.2280389">
  <ele>1582.97</ele>
  <time>2026-08-28T17:52:44Z</time>
  <course>173.3</course>
  <speed>1.9647137196039528</speed>
  <fix>3d</fix>
</trkpt>
<trkpt lat="40.0728989" lon="-105.2280395">
  <ele>1583.0</ele>
  <time>2026-08-28T17:52:44Z</time>
  <course>172.66</course>
  <speed>2.25</speed>
  <fix>3d</fix>
</trkpt>
<trkpt lat="40.0728929" lon="-105.2280386">
  <ele>1582.98</ele>
  <time>2026-08-28T17:52:44Z</time>
  <course>173.32</course>
  <speed>1.8642424734996252</speed>
  <fix>3d</fix>
</trkpt>
<trkpt lat="40.072895" lon="-105.2280389">
  <ele>1583.0</ele>
  <time>2026-08-28T17:52:44Z</time>
  <course>172.66</course>
  <speed>2.03</speed>
  <fix>3d</fix>
</trkpt>
<trkpt lat="40.0728913" lon="-105.2280383">
  <ele>1582.98</ele>
  <time>2026-08-28T17:52:44Z</time>
  <course>173.34</course>
  <speed>1.7625549636819842</speed>
  <fix>3d</fix>
</trkpt>
<trkpt lat="40.072895" lon="-105.2280389">
  <ele>1583.0</ele>
  <time>2026-08-28T17:52:44Z</time>
  <course>172.66</course>
  <speed>2.03</speed>
  <fix>3d</fix>
</trkpt>
<trkpt lat="40.0728897" lon="-105.2280381">
  <ele>1582.98</ele>
  <time>2026-08-28T17:52:44Z</time>
  <course>173.37</course>
  <speed>1.6620770138594663</speed>
  <fix>3d</fix>
</trkpt>
<trkpt lat="40.0728916" lon="-105.2280383">
  <ele>1583.0</ele>
  <time>2026-08-28T17:52:44Z</time>
  <course>172.69</course>
  <speed>1.83</speed>
  <fix>3d</fix>
</trkpt>
<trkpt lat="40.0728882" lon="-105.2280378">
  <ele>1582.98</ele>
  <time>2026-08-28T17:52:44Z</time>
  <course>173.39</course>
  <speed>1.5616017418023074</speed>
  <fix>3d</fix>
</trkpt>
<trkpt lat="40.0728916" lon="-105.2280383">
  <ele>1583.0</ele>
  <time>2026-08-28T17:52:44Z</time>
  <course>172.69</course>
  <speed>1.83</speed>
  <fix>3d</fix>
</trkpt>
<trkpt lat="40.0728869" lon="-105.2280376">
  <ele>1582.99</ele>
  <time>2026-08-28T17:52:44Z</time>
  <course>173.41</course>
  <speed>1.459931505242626</speed>
  <fix>3d</fix>
</trkpt>
<trkpt lat="40.0728885" lon="-105.2280378">
  <ele>1583.0</ele>
  <time>2026-08-28T17:52:44Z</time>
  <course>172.73</course>
  <speed>1.63</speed>
  <fix>3d</fix>
</trkpt>
<trkpt lat="40.0728856" lon="-105.2280374">
  <ele>1582.99</ele>
  <time>2026-08-28T17:52:44Z</time>
  <course>173.44</course>
  <speed>1.3594484175576504</speed>
  <fix>3d</fix>
</trkpt>
<trkpt lat="40.0728885" lon="-105.2280378">
  <ele>1583.0</ele>
  <time>2026-08-28T17:52:44Z</time>
  <course>172.73</course>
  <speed>1.63</speed>
  <fix>3d</fix>
</trkpt>
<trkpt lat="40.0728844" lon="-105.2280372">
  <ele>1582.99</ele>
  <time>2026-08-28T17:52:44Z</time>
  <course>173.46</course>
  <speed>1.2589678312014172</speed>
  <fix>3d</fix>
</trkpt>
<trkpt lat="40.0728885" lon="-105.2280378">
  <ele>1583.0</ele>
  <time>2026-08-28T17:52:44Z</time>
  <course>172.73</course>
  <speed>1.63</speed>
  <fix>3d</fix>
</trkpt>
<trkpt lat="40.0728833" lon="-105.228037">
  <ele>1583.0</ele>
  <time>2026-08-28T17:52:44Z</time>
  <course>173.5</course>
  <speed>1.1672617529928753</speed>
  <fix>3d</fix>
</trkpt>
<trkpt lat="40.0728858" lon="-105.2280373">
  <ele>1583.0</ele>
  <time>2026-08-28T17:52:44Z</time>
  <course>172.77</course>
  <speed>1.43</speed>
  <fix>3d</fix>
</trkpt>
<trkpt lat="40.0728823" lon="-105.2280369">
  <ele>1583.0</ele>
  <time>2026-08-28T17:52:44Z</time>
  <course>173.53</course>
  <speed>1.066770828247567</speed>
  <fix>3d</fix>
</trkpt>
<trkpt lat="40.0728858" lon="-105.2280373">
  <ele>1583.0</ele>
  <time>2026-08-28T17:52:44Z</time>
  <course>172.77</course>
  <speed>1.43</speed>
  <fix>3d</fix>
</trkpt>
<trkpt lat="40.0728813" lon="-105.2280367">
  <ele>1583.0</ele>
  <time>2026-08-28T17:52:44Z</time>
  <course>173.57</course>
  <speed>0.9762171889492625</speed>
  <fix>3d</fix>
</trkpt>
<trkpt lat="40.0728834" lon="-105.2280369">
  <ele>1583.0</ele>
  <time>2026-08-28T17:52:44Z</time>
  <course>172.83</course>
  <speed>1.23</speed>
  <fix>3d</fix>
</trkpt>
<trkpt lat="40.0728805" lon="-105.2280366">
  <ele>1583.01</ele>
  <time>2026-08-28T17:52:44Z</time>
  <course>173.62</course>
  <speed>0.8746427842267951</speed>
  <fix>3d</fix>
</trkpt>
<trkpt lat="40.0728834" lon="-105.2280369">
  <ele>1583.0</ele>
  <time>2026-08-28T17:52:44Z</time>
  <course>172.83</course>
  <speed>1.23</speed>
  <fix>3d</fix>
</trkpt>
<trkpt lat="40.0728797" lon="-105.2280365">
  <ele>1583.01</ele>
  <time>2026-08-28T17:52:44Z</time>
  <course>173.63</course>
  <speed>0.7741446893184762</speed>
  <fix>3d</fix>
</trkpt>
<trkpt lat="40.0728814" lon="-105.2280366">
  <ele>1583.0</ele>
  <time>2026-08-28T17:52:44Z</time>
  <course>172.9</course>
  <speed>1.04</speed>
  <fix>3d</fix>
</trkpt>
<trkpt lat="40.072879" lon="-105.2280363">
  <ele>1583.01</ele>
  <time>2026-08-28T17:52:44Z</time>
  <course>173.81</course>
  <speed>0.6835934464285041</speed>
  <fix>3d</fix>
</trkpt>
<trkpt lat="40.0728814" lon="-105.2280366">
  <ele>1583.0</ele>
  <time>2026-08-28T17:52:44Z</time>
  <course>172.9</course>
  <speed>1.04</speed>
  <fix>3d</fix>
</trkpt>
<trkpt lat="40.0728784" lon="-105.2280363">
  <ele>1583.0</ele>
  <time>2026-08-28T17:52:44Z</time>
  <course>174.22</course>
  <speed>0.5821511831131153</speed>
  <fix>3d</fix>
</trkpt>
<trkpt lat="40.0728797" lon="-105.2280363">
  <ele>1583.0</ele>
  <time>2026-08-28T17:52:44Z</time>
  <course>173.04</course>
  <speed>0.85</speed>
  <fix>3d</fix>
</trkpt>
<trkpt lat="40.0728779" lon="-105.2280362">
  <ele>1583.0</ele>
  <time>2026-08-28T17:52:44Z</time>
  <course>174.78</course>
  <speed>0.4909175083453431</speed>
  <fix>3d</fix>
</trkpt>
<trkpt lat="40.0728784" lon="-105.2280361">
  <ele>1583.0</ele>
  <time>2026-08-28T17:52:44Z</time>
  <course>173.55</course>
  <speed>0.66</speed>
  <fix>3d</fix>
</trkpt>
<trkpt lat="40.0728775" lon="-105.2280361">
  <ele>1583.0</ele>
  <time>2026-08-28T17:52:44Z</time>
  <course>175.44</course>
  <speed>0.3905124837953327</speed>
  <fix>3d</fix>
</trkpt>
<trkpt lat="40.0728784" lon="-105.2280361">
  <ele>1583.0</ele>
  <time>2026-08-28T17:52:44Z</time>
  <course>173.55</course>
  <speed>0.66</speed>
  <fix>3d</fix>
</trkpt>
<trkpt lat="40.0728772" lon="-105.2280361">
  <ele>1583.0</ele>
  <time>2026-08-28T17:52:44Z</time>
  <course>176.15</course>
  <speed>0.3</speed>
  <fix>3d</fix>
</trkpt>
<trkpt lat="40.0728773" lon="-105.228036">
  <ele>1583.0</ele>
  <time>2026-08-28T17:52:44Z</time>
  <course>174.65</course>
  <speed>0.46</speed>
  <fix>3d</fix>
</trkpt>
<trkpt lat="40.0728769" lon="-105.2280361">
  <ele>1583.0</ele>
  <time>2026-08-28T17:52:44Z</time>
  <course>176.84</course>
  <speed>0.2</speed>
  <fix>3d</fix>
</trkpt>
<trkpt lat="40.0728773" lon="-105.228036">
  <ele>1583.0</ele>
  <time>2026-08-28T17:52:44Z</time>
  <course>174.65</course>
  <speed>0.46</speed>
  <fix>3d</fix>
</trkpt>
<trkpt lat="40.0728767" lon="-105.2280361">
  <ele>1583.0</ele>
  <time>2026-08-28T17:52:44Z</time>
  <course>177.42</course>
  <speed>0.11045361017187261</speed>
  <fix>3d</fix>
</trkpt>
<trkpt lat="40.0728766" lon="-105.2280359">
  <ele>1583.0</ele>
  <time>2026-08-28T17:52:44Z</time>
  <course>175.89</course>
  <speed>0.27</speed>
  <fix>3d</fix>
</trkpt>
<trkpt lat="40.0728766" lon="-105.2280361">
  <ele>1583.01</ele>
  <time>2026-08-28T17:52:44Z</time>
  <course>177.86</course>
  <speed>0.0412310562561766</speed>
  <fix>3d</fix>
</trkpt>
<trkpt lat="40.0728766" lon="-105.2280359">
  <ele>1583.0</ele>
  <time>2026-08-28T17:52:44Z</time>
  <course>175.89</course>
  <speed>0.27</speed>
  <fix>3d</fix>
</trkpt>
<trkpt lat="40.0728766" lon="-105.2280361">
  <ele>1583.01</ele>
  <time>2026-08-28T17:52:44Z</time>
  <course>178.16</course>
  <speed>0.01</speed>
  <fix>3d</fix>
</trkpt>
<trkpt lat="40.0728764" lon="-105.2280359">
  <ele>1583.0</ele>
  <time>2026-08-28T17:52:44Z</time>
  <course>176.94</course>
  <speed>0.12</speed>
  <fix>3d</fix>
</trkpt>
<trkpt lat="40.0728765" lon="-105.228036">
  <ele>1583.01</ele>
  <time>2026-08-28T17:52:44Z</time>
  <course>177.96</course>
  <speed>0.0282842712474619</speed>
  <fix>3d</fix>
</trkpt>
<trkpt lat="40.0728764" lon="-105.2280359">
  <ele>1583.0</ele>
  <time>2026-08-28T17:52:44Z</time>
  <course>176.94</course>
  <speed>0.12</speed>
  <fix>3d</fix>
</trkpt>
<trkpt lat="40.0728765" lon="-105.228036">
  <ele>1583.01</ele>
  <time>2026-08-28T17:52:44Z</time>
  <course>177.76</course>
  <speed>0.0282842712474619</speed>
  <fix>3d</fix>
</trkpt>
<trkpt lat="40.0728762" lon="-105.2280359">
  <ele>1583.0</ele>
  <time>2026-08-28T17:52:44Z</time>
  <course>177.32</course>
  <speed>0.05</speed>
  <fix>3d</fix>
</trkpt>
<trkpt lat="40.0728765" lon="-105.228036">
  <ele>1583.01</ele>
  <time>2026-08-28T17:52:44Z</time>
  <course>177.5</course>
  <speed>0.02</speed>
  <fix>3d</fix>
</trkpt>
<trkpt lat="40.0728762" lon="-105.2280359">
  <ele>1583.0</ele>
  <time>2026-08-28T17:52:44Z</time>
  <course>177.32</course>
  <speed>0.05</speed>
  <fix>3d</fix>
</trkpt>
<trkpt lat="40.0728765" lon="-105.228036">
  <ele>1583.01</ele>
  <time>2026-08-28T17:52:44Z</time>
  <course>177.95</course>
  <speed>0.053851648071345036</speed>
  <fix>3d</fix>
</trkpt>
<trkpt lat="40.0728761" lon="-105.2280359">
  <ele>1583.0</ele>
  <time>2026-08-28T17:52:44Z</time>
  <course>177.21</course>
  <speed>0.07</speed>
  <fix>3d</fix>
</trkpt>
<trkpt lat="40.0728763" lon="-105.228036">
  <ele>1583.01</ele>
  <time>2026-08-28T17:52:44Z</time>
  <course>178.65</course>
  <speed>0.1118033988749895</speed>
  <fix>3d</fix>
</trkpt>
<trkpt lat="40.0728761" lon="-105.2280359">
  <ele>1583.0</ele>
  <time>2026-08-28T17:52:45Z</time>
  <course>177.21</course>
  <speed>0.07</speed>
  <fix>3d</fix>
</trkpt>
<trkpt lat="40.0728762" lon="-105.228036">
  <ele>1583.0</ele>
  <time>2026-08-28T17:52:45Z</time>
  <course>179.67</course>
  <speed>0.18110770276274835</speed>
  <fix>3d</fix>
</trkpt>
<trkpt lat="40.0728758" lon="-105.2280359">
  <ele>1583.0</ele>
  <time>2026-08-28T17:52:45Z</time>
  <course>178.43</course>
  <speed>0.17</speed>
  <fix>3d</fix>
</trkpt>
<trkpt lat="40.0728759" lon="-105.228036">
  <ele>1583.0</ele>
  <time>2026-08-28T17:52:45Z</time>
  <course>181.04</course>
  <speed>0.261725046566048</speed>
  <fix>3d</fix>
</trkpt>
<trkpt lat="40.0728758" lon="-105.2280359">
  <ele>1583.0</ele>
  <time>2026-08-28T17:52:45Z</time>
  <course>178.43</course>
  <speed>0.17</speed>
  <fix>3d</fix>
</trkpt>
<trkpt lat="40.0728756" lon="-105.2280361">
  <ele>1583.0</ele>
  <time>2026-08-28T17:52:45Z</time>
  <course>182.74</course>
  <speed>0.3535533905932738</speed>
  <fix>3d</fix>
</trkpt>
<trkpt lat="40.0728758" lon="-105.2280359">
  <ele>1583.0</ele>
  <time>2026-08-28T17:52:45Z</time>
  <course>178.43</course>
  <speed>0.17</speed>
  <fix>3d</fix>
</trkpt>
<trkpt lat="40.0728751" lon="-105.2280361">
  <ele>1583.0</ele>
  <time>2026-08-28T17:52:45Z</time>
  <course>184.73</course>
  <speed>0.44553338819890925</speed>
  <fix>3d</fix>
</trkpt>
<trkpt lat="40.0728754" lon="-105.2280359">
  <ele>1583.0</ele>
  <time>2026-08-28T17:52:45Z</time>
  <course>180.91</course>
  <speed>0.32</speed>
  <fix>3d</fix>
</trkpt>
<trkpt lat="40.0728746" lon="-105.2280362">
  <ele>1583.0</ele>
  <time>2026-08-28T17:52:45Z</time>
  <course>186.95</course>
  <speed>0.5491812087098392</speed>
  <fix>3d</fix>
</trkpt>
<trkpt lat="40.0728754" lon="-105.2280359">
  <ele>1583.0</ele>
  <time>2026-08-28T17:52:45Z</time>
  <course>180.91</course>
  <speed>0.32</speed>
  <fix>3d</fix>
</trkpt>
<trkpt lat="40.072874" lon="-105.2280363">
  <ele>1583.0</ele>
  <time>2026-08-28T17:52:45Z</time>
  <course>189.29</course>
  <speed>0.6453681120105021</speed>
  <fix>3d</fix>
</trkpt>
<trkpt lat="40.0728746" lon="-105.2280359">
  <ele>1583.0</ele>
  <time>2026-08-28T17:52:45Z</time>
  <course>184.55</course>
  <speed>0.5</speed>
  <fix>3d</fix>
</trkpt>
<trkpt lat="40.0728734" lon="-105.2280365">
  <ele>1583.0</ele>
  <time>2026-08-28T17:52:45Z</time>
  <course>191.58</course>
  <speed>0.7446475676452586</speed>
  <fix>3d</fix>
</trkpt>
<trkpt lat="40.0728746" lon="-105.2280359">
  <ele>1583.0</ele>
  <time>2026-08-28T17:52:45Z</time>
  <course>184.55</course>
  <speed>0.5</speed>
  <fix>3d</fix>
</trkpt>
<trkpt lat="40.0728726" lon="-105.2280367">
  <ele>1583.0</ele>
  <time>2026-08-28T17:52:45Z</time>
  <course>193.77</course>
  <speed>0.8448076704197234</speed>
  <fix>3d</fix>
</trkpt>
<trkpt lat="40.0728736" lon="-105.228036">
  <ele>1583.0</ele>
  <time>2026-08-28T17:52:45Z</time>
  <course>188.91</course>
  <speed>0.68</speed>
  <fix>3d</fix>
</trkpt>
<trkpt lat="40.0728718" lon="-105.228037">
  <ele>1583.0</ele>
  <time>2026-08-28T17:52:45Z</time>
  <course>195.82</course>
  <speed>0.9486832980505138</speed>
  <fix>3d</fix>
</trkpt>
<trkpt lat="40.0728722" lon="-105.2280363">
  <ele>1583.0</ele>
  <time>2026-08-28T17:52:45Z</time>
  <course>193.24</course>
  <speed>0.87</speed>
  <fix>3d</fix>
</trkpt>
<trkpt lat="40.0728708" lon="-105.2280374">
  <ele>1583.0</ele>
  <time>2026-08-28T17:52:45Z</time>
  <course>197.66</course>
  <speed>1.044030650891055</speed>
  <fix>3d</fix>
</trkpt>
<trkpt lat="40.0728722" lon="-105.2280363">
  <ele>1583.0</ele>
  <time>2026-08-28T17:52:45Z</time>
  <course>193.24</course>
  <speed>0.87</speed>
  <fix>3d</fix>
</trkpt>
<trkpt lat="40.0728699" lon="-105.2280378">
  <ele>1583.0</ele>
  <time>2026-08-28T17:52:45Z</time>
  <course>199.2</course>
  <speed>1.1365298060323803</speed>
  <fix>3d</fix>
</trkpt>
<trkpt lat="40.0728706" lon="-105.2280369">
  <ele>1583.0</ele>
  <time>2026-08-28T17:52:45Z</time>
  <course>196.96</course>
  <speed>1.06</speed>
  <fix>3d</fix>
</trkpt>
<trkpt lat="40.0728688" lon="-105.2280383">
  <ele>1583.0</ele>
  <time>2026-08-28T17:52:45Z</time>
  <course>200.49</course>
  <speed>1.2238463955905576</speed>
  <fix>3d</fix>
</trkpt>
<trkpt lat="40.0728706" lon="-105.2280369">
  <ele>1583.0</ele>
  <time>2026-08-28T17:52:45Z</time>
  <course>196.96</course>
  <speed>1.06</speed>
  <fix>3d</fix>
</trkpt>
<trkpt lat="40.0728677" lon="-105.2280388">
  <ele>1583.0</ele>
  <time>2026-08-28T17:52:45Z</time>
  <course>201.58</course>
  <speed>1.3170041761513136</speed>
  <fix>3d</fix>
</trkpt>
<trkpt lat="40.0728686" lon="-105.2280378">
  <ele>1583.0</ele>
  <time>2026-08-28T17:52:45Z</time>
  <course>199.79</course>
  <speed>1.23</speed>
  <fix>3d</fix>
</trkpt>
<trkpt lat="40.0728665" lon="-105.2280394">
  <ele>1582.99</ele>
  <time>2026-08-28T17:52:45Z</time>
  <course>202.5</course>
  <speed>1.4011780757633914</speed>
  <fix>3d</fix>
</trkpt>
<trkpt lat="40.0728686" lon="-105.2280378">
  <ele>1583.0</ele>
  <time>2026-08-28T17:52:45Z</time>
  <course>199.79</course>
  <speed>1.23</speed>
  <fix>3d</fix>
</trkpt>
<trkpt lat="40.0728653" lon="-105.2280401">
  <ele>1582.99</ele>
  <time>2026-08-28T17:52:45Z</time>
  <course>203.29</course>
  <speed>1.485563866011825</speed>
  <fix>3d</fix>
</trkpt>
<trkpt lat="40.0728663" lon="-105.2280389">
  <ele>1583.0</ele>
  <time>2026-08-28T17:52:45Z</time>
  <course>201.81</course>
  <speed>1.4</speed>
  <fix>3d</fix>
</trkpt>
<trkpt lat="40.072864" lon="-105.2280408">
  <ele>1582.99</ele>
  <time>2026-08-28T17:52:45Z</time>
  <course>203.97</course>
  <speed>1.5701273833673497</speed>
  <fix>3d</fix>
</trkpt>
<trkpt lat="40.0728663" lon="-105.2280389">
  <ele>1583.0</ele>
  <time>2026-08-28T17:52:45Z</time>
  <course>201.81</course>
  <speed>1.4</speed>
  <fix>3d</fix>
</trkpt>
<trkpt lat="40.0728626" lon="-105.2280416">
  <ele>1582.99</ele>
  <time>2026-08-28T17:52:45Z</time>
  <course>204.56</course>
  <speed>1.654841382127</speed>
  <fix>3d</fix>
</trkpt>
<trkpt lat="40.0728639" lon="-105.2280402">
  <ele>1583.0</ele>
  <time>2026-08-28T17:52:45Z</time>
  <course>203.29</course>
  <speed>1.56</speed>
  <fix>3d</fix>
</trkpt>
<trkpt lat="40.0728612" lon="-105.2280425">
  <ele>1582.98</ele>
  <time>2026-08-28T17:52:45Z</time>
  <course>205.06</course>
  <speed>1.7262966141425407</speed>
  <fix>3d</fix>
</trkpt>
<trkpt lat="40.0728639" lon="-105.2280402">
  <ele>1583.0</ele>
  <time>2026-08-28T17:52:45Z</time>
  <course>203.29</course>
  <speed>1.56</speed>
  <fix>3d</fix>
</trkpt>
<trkpt lat="40.0728597" lon="-105.2280433">
  <ele>1582.98</ele>
  <time>2026-08-28T17:52:45Z</time>
  <course>205.49</course>
  <speed>1.8112150617748295</speed>
  <fix>3d</fix>
</trkpt>
<trkpt lat="40.0728612" lon="-105.2280418">
  <ele>1583.0</ele>
  <time>2026-08-28T17:52:45Z</time>
  <course>204.39</course>
  <speed>1.72</speed>
  <fix>3d</fix>
</trkpt>
<trkpt lat="40.0728581" lon="-105.2280443">
  <ele>1582.98</ele>
  <time>2026-08-28T17:52:45Z</time>
  <course>205.87</course>
  <speed>1.891718795170149</speed>
  <fix>3d</fix>
</trkpt>
<trkpt lat="40.0728612" lon="-105.2280418">
  <ele>1583.0</ele>
  <time>2026-08-28T17:52:45Z</time>
  <course>204.39</course>
  <speed>1.72</speed>
  <fix>3d</fix>
</trkpt>
<trkpt lat="40.0728565" lon="-105.2280453">
  <ele>1582.98</ele>
  <time>2026-08-28T17:52:45Z</time>
  <course>206.2</course>
  <speed>1.9678668654154428</speed>
  <fix>3d</fix>
</trkpt>
<trkpt lat="40.0728582" lon="-105.2280435">
  <ele>1583.0</ele>
  <time>2026-08-28T17:52:45Z</time>
  <course>205.22</course>
  <speed>1.87</speed>
  <fix>3d</fix>
</trkpt>
<trkpt lat="40.0728549" lon="-105.2280463">
  <ele>1582.98</ele>
  <time>2026-08-28T17:52:45Z</time>
  <course>206.49</course>
  <speed>2.048414020651099</speed>
  <fix>3d</fix>
</trkpt>
<trkpt lat="40.0728582" lon="-105.2280435">
  <ele>1583.0</ele>
  <time>2026-08-28T17:52:45Z</time>
  <course>205.22</course>
  <speed>1.87</speed>
  <fix>3d</fix>
</trkpt>
<trkpt lat="40.0728532" lon="-105.2280474">
  <ele>1582.98</ele>
  <time>2026-08-28T17:52:45Z</time>
  <course>206.75</course>
  <speed>2.128966885604377</speed>
  <fix>3d</fix>
</trkpt>
<trkpt lat="40.0728582" lon="-105.2280435">
  <ele>1583.0</ele>
  <time>2026-08-28T17:52:45Z</time>
  <course>205.22</course>
  <speed>1.87</speed>
  <fix>3d</fix>
</trkpt>
<trkpt lat="40.0728514" lon="-105.2280485">
  <ele>1582.98</ele>
  <time>2026-08-28T17:52:45Z</time>
  <course>206.97</course>
  <speed>2.2141589825484527</speed>
  <fix>3d</fix>
</trkpt>
<trkpt lat="40.0728551" lon="-105.2280455">
  <ele>1583.0</ele>
  <time>2026-08-28T17:52:45Z</time>
  <course>205.86</course>
  <speed>2.03</speed>
  <fix>3d</fix>
</trkpt>
<trkpt lat="40.0728496" lon="-105.2280497">
  <ele>1582.99</ele>
  <time>2026-08-28T17:52:45Z</time>
  <course>207.16</course>
  <speed>2.294733099948663</speed>
  <fix>3d</fix>
</trkpt>
<trkpt lat="40.0728551" lon="-105.2280455">
  <ele>1583.0</ele>
  <time>2026-08-28T17:52:45Z</time>
  <course>205.86</course>
  <speed>2.03</speed>
  <fix>3d</fix>
</trkpt>
<trkpt lat="40.0728477" lon="-105.2280509">
  <ele>1582.99</ele>
  <time>2026-08-28T17:52:45Z</time>
  <course>207.33</course>
  <speed>2.3841560351621283</speed>
  <fix>3d</fix>
</trkpt>
<trkpt lat="40.0728517" lon="-105.2280477">
  <ele>1583.0</ele>
  <time>2026-08-28T17:52:45Z</time>
  <course>206.35</course>
  <speed>2.19</speed>
  <fix>3d</fix>
</trkpt>
<trkpt lat="40.0728458" lon="-105.2280522">
  <ele>1582.99</ele>
  <time>2026-08-28T17:52:45Z</time>
  <course>207.49</course>
  <speed>2.464731222669117</speed>
  <fix>3d</fix>
</trkpt>
<trkpt lat="40.0728517" lon="-105.2280477">
  <ele>1583.0</ele>
  <time>2026-08-28T17:52:45Z</time>
  <course>206.35</course>
  <speed>2.19</speed>
  <fix>3d</fix>
</trkpt>
<trkpt lat="40.0728438" lon="-105.2280535">
  <ele>1582.99</ele>
  <time>2026-08-28T17:52:45Z</time>
  <course>207.62</course>
  <speed>2.55</speed>
  <fix>3d</fix>
</trkpt>
<trkpt lat="40.0728481" lon="-105.2280501">
  <ele>1583.0</ele>
  <time>2026-08-28T17:52:45Z</time>
  <course>206.74</course>
  <speed>2.35</speed>
  <fix>3d</fix>
</trkpt>
<trkpt lat="40.0728417" lon="-105.2280549">
  <ele>1582.99</ele>
  <time>2026-08-28T17:52:45Z</time>
  <course>207.74</course>
  <speed>2.639412813487121</speed>
  <fix>3d</fix>
</trkpt>
<trkpt lat="40.0728481" lon="-105.2280501">
  <ele>1583.0</ele>
  <time>2026-08-28T17:52:45Z</time>
  <course>206.74</course>
  <speed>2.35</speed>
  <fix>3d</fix>
</trkpt>
<trkpt lat="40.0728395" lon="-105.2280563">
  <ele>1582.99</ele>
  <time>2026-08-28T17:52:45Z</time>
  <course>207.84</course>
  <speed>2.733532513068026</speed>
  <fix>3d</fix>
</trkpt>
<trkpt lat="40.0728441" lon="-105.2280527">
  <ele>1583.0</ele>
  <time>2026-08-28T17:52:45Z</time>
  <course>207.05</course>
  <speed>2.52</speed>
  <fix>3d</fix>
</trkpt>
<trkpt lat="40.0728373" lon="-105.2280578">
  <ele>1582.99</ele>
  <time>2026-08-28T17:52:45Z</time>
  <course>207.94</course>
  <speed>2.8229417280560365</speed>
  <fix>3d</fix>
</trkpt>
<trkpt lat="40.0728399" lon="-105.2280555">
  <ele>1583.0</ele>
  <time>2026-08-28T17:52:45Z</time>
  <course>207.29</course>
  <speed>2.7</speed>
  <fix>3d</fix>
</trkpt>
<trkpt lat="40.072835" lon="-105.2280593">
  <ele>1582.99</ele>
  <time>2026-08-28T17:52:45Z</time>
  <course>208.01</course>
  <speed>2.9170704482408376</speed>
  <fix>3d</fix>
</trkpt>
<trkpt lat="40.0728399" lon="-105.2280555">
  <ele>1583.0</ele>
  <time>2026-08-28T17:52:45Z</time>
  <course>207.29</course>
  <speed>2.7</speed>
  <fix>3d</fix>
</trkpt>
<trkpt lat="40.0728327" lon="-105.2280609">
  <ele>1582.99</ele>
  <time>2026-08-28T17:52:45Z</time>
  <course>208.08</course>
  <speed>3.011212380420883</speed>
  <fix>3d</fix>
</trkpt>
<trkpt lat="40.0728354" lon="-105.2280585">
  <ele>1583.0</ele>
  <time>2026-08-28T17:52:45Z</time>
  <course>207.48</course>
  <speed>2.89</speed>
  <fix>3d</fix>
</trkpt>
<trkpt lat="40.0728302" lon="-105.2280626">
  <ele>1582.99</ele>
  <time>2026-08-28T17:52:45Z</time>
  <course>208.16</course>
  <speed>3.1094211679989576</speed>
  <fix>3d</fix>
</trkpt>
<trkpt lat="40.0728354" lon="-105.2280585">
  <ele>1583.0</ele>
  <time>2026-08-28T17:52:45Z</time>
  <course>207.48</course>
  <speed>2.89</speed>
  <fix>3d</fix>
</trkpt>
<trkpt lat="40.0728277" lon="-105.2280643">
  <ele>1582.99</ele>
  <time>2026-08-28T17:52:45Z</time>
  <course>208.2</course>
  <speed>3.212366728753117</speed>
  <fix>3d</fix>
</trkpt>
<trkpt lat="40.0728307" lon="-105.2280617">
  <ele>1583.0</ele>
  <time>2026-08-28T17:52:45Z</time>
  <course>207.62</course>
  <speed>3.08</speed>
  <fix>3d</fix>
</trkpt>
<trkpt lat="40.072825" lon="-105.2280661">
  <ele>1582.98</ele>
  <time>2026-08-28T17:52:45Z</time>
  <course>208.24</course>
  <speed>3.3065087327875</speed>
  <fix>3d</fix>
</trkpt>
<trkpt lat="40.0728307" lon="-105.2280617">
  <ele>1583.0</ele>
  <time>2026-08-28T17:52:45Z</time>
  <course>207.62</course>
  <speed>3.08</speed>
  <fix>3d</fix>
</trkpt>
<trkpt lat="40.0728223" lon="-105.2280679">
  <ele>1582.98</ele>
  <time>2026-08-28T17:52:45Z</time>
  <course>208.28</course>
  <speed>3.4094574348420896</speed>
  <fix>3d</fix>
</trkpt>
<trkpt lat="40.0728256" lon="-105.2280652">
  <ele>1583.0</ele>
  <time>2026-08-28T17:52:45Z</time>
  <course>207.73</course>
  <speed>3.27</speed>
  <fix>3d</fix>
</trkpt>
<trkpt lat="40.0728195" lon="-105.2280698">
  <ele>1582.98</ele>
  <time>2026-08-28T17:52:45Z</time>
  <course>208.32</course>
  <speed>3.5124065823876367</speed>
  <fix>3d</fix>
</trkpt>
<trkpt lat="40.0728256" lon="-105.2280652">
  <ele>1583.0</ele>
  <time>2026-08-28T17:52:45Z</time>
  <course>207.73</course>
  <speed>3.27</speed>
  <fix>3d</fix>
</trkpt>
<trkpt lat="40.0728167" lon="-105.2280718">
  <ele>1582.98</ele>
  <time>2026-08-28T17:52:45Z</time>
  <course>208.36</course>
  <speed>3.6153561373673826</speed>
  <fix>3d</fix>
</trkpt>
<trkpt lat="40.0728203" lon="-105.2280689">
  <ele>1583.0</ele>
  <time>2026-08-28T17:52:45Z</time>
  <course>207.83</course>
  <speed>3.47</speed>
  <fix>3d</fix>
</trkpt>
<trkpt lat="40.0728138" lon="-105.2280738">
  <ele>1582.97</ele>
  <time>2026-08-28T17:52:45Z</time>
  <course>208.41</course>
  <speed>3.7135562470494508</speed>
  <fix>3d</fix>
</trkpt>
<trkpt lat="40.0728203" lon="-105.2280689">
  <ele>1583.0</ele>
  <time>2026-08-28T17:52:45Z</time>
  <course>207.83</course>
  <speed>3.47</speed>
  <fix>3d</fix>
</trkpt>
<trkpt lat="40.0728108" lon="-105.2280759">
  <ele>1582.97</ele>
  <time>2026-08-28T17:52:45Z</time>
  <course>208.43</course>
  <speed>3.8165036355282043</speed>
  <fix>3d</fix>
</trkpt>
<trkpt lat="40.0728146" lon="-105.2280729">
  <ele>1583.0</ele>
  <time>2026-08-28T17:52:45Z</time>
  <course>207.91</course>
  <speed>3.67</speed>
  <fix>3d</fix>
</trkpt>
<trkpt lat="40.0728077" lon="-105.228078">
  <ele>1582.97</ele>
  <time>2026-08-28T17:52:45Z</time>
  <course>208.46</course>
  <speed>3.9194514922371475</speed>
  <fix>3d</fix>
</trkpt>
<trkpt lat="40.0728146" lon="-105.2280729">
  <ele>1583.0</ele>
  <time>2026-08-28T17:52:45Z</time>
  <course>207.91</course>
  <speed>3.67</speed>
  <fix>3d</fix>
</trkpt>
<trkpt lat="40.0728045" lon="-105.2280802">
  <ele>1582.98</ele>
  <time>2026-08-28T17:52:45Z</time>
  <course>208.45</course>
  <speed>4.0223997812251335</speed>
  <fix>3d</fix>
</trkpt>
<trkpt lat="40.0728086" lon="-105.228077">
  <ele>1583.0</ele>
  <time>2026-08-28T17:52:45Z</time>
  <course>207.97</course>
  <speed>3.87</speed>
  <fix>3d</fix>
</trkpt>
<trkpt lat="40.0728012" lon="-105.2280825">
  <ele>1582.98</ele>
  <time>2026-08-28T17:52:45Z</time>
  <course>208.45</course>
  <speed>4.1253484701295235</speed>
  <fix>3d</fix>
</trkpt>
<trkpt lat="40.0728086" lon="-105.228077">
  <ele>1583.0</ele>
  <time>2026-08-28T17:52:45Z</time>
  <course>207.97</course>
  <speed>3.87</speed>
  <fix>3d</fix>
</trkpt>
<trkpt lat="40.0727979" lon="-105.2280848">
  <ele>1582.98</ele>
  <time>2026-08-28T17:52:45Z</time>
  <course>208.45</course>
  <speed>4.228297529739363</speed>
  <fix>3d</fix>
</trkpt>
<trkpt lat="40.0728086" lon="-105.228077">
  <ele>1583.0</ele>
  <time>2026-08-28T17:52:45Z</time>
  <course>207.97</course>
  <speed>3.87</speed>
  <fix>3d</fix>
</trkpt>
<trkpt lat="40.0727945" lon="-105.2280871">
  <ele>1582.98</ele>
  <time>2026-08-28T17:52:45Z</time>
  <course>208.44</course>
  <speed>4.326499739974568</speed>
  <fix>3d</fix>
</trkpt>
<trkpt lat="40.0728023" lon="-105.2280814">
  <ele>1583.0</ele>
  <time>2026-08-28T17:52:45Z</time>
  <course>207.98</course>
  <speed>4.07</speed>
  <fix>3d</fix>
</trkpt>
<trkpt lat="40.0727911" lon="-105.2280895">
  <ele>1582.98</ele>
  <time>2026-08-28T17:52:45Z</time>
  <course>208.43</course>
  <speed>4.4294469180700204</speed>
  <fix>3d</fix>
</trkpt>
<trkpt lat="40.0728023" lon="-105.2280814">
  <ele>1583.0</ele>
  <time>2026-08-28T17:52:45Z</time>
  <course>207.98</course>
  <speed>4.07</speed>
  <fix>3d</fix>
</trkpt>
<trkpt lat="40.0727876" lon="-105.2280919">
  <ele>1582.98</ele>
  <time>2026-08-28T17:52:45Z</time>
  <course>208.43</course>
  <speed>4.527659439489679</speed>
  <fix>3d</fix>
</trkpt>
<trkpt lat="40.0727957" lon="-105.228086">
  <ele>1583.0</ele>
  <time>2026-08-28T17:52:45Z</time>
  <course>207.98</course>
  <speed>4.28</speed>
  <fix>3d</fix>
</trkpt>
<trkpt lat="40.072784" lon="-105.2280944">
  <ele>1582.98</ele>
  <time>2026-08-28T17:52:45Z</time>
  <course>208.42</course>
  <speed>4.6217961876309515</speed>
  <fix>3d</fix>
</trkpt>
<trkpt lat="40.0727957" lon="-105.228086">
  <ele>1583.0</ele>
  <time>2026-08-28T17:52:45Z</time>
  <course>207.98</course>
  <speed>4.28</speed>
  <fix>3d</fix>
</trkpt>
<trkpt lat="40.0727803" lon="-105.2280969">
  <ele>1582.98</ele>
  <time>2026-08-28T17:52:45Z</time>
  <course>208.42</course>
  <speed>4.724743379274688</speed>
  <fix>3d</fix>
</trkpt>
<trkpt lat="40.0727887" lon="-105.2280908">
  <ele>1583.0</ele>
  <time>2026-08-28T17:52:45Z</time>
  <course>207.98</course>
  <speed>4.48</speed>
  <fix>3d</fix>
</trkpt>
<trkpt lat="40.0727765" lon="-105.2280996">
  <ele>1582.98</ele>
  <time>2026-08-28T17:52:45Z</time>
  <course>208.41</course>
  <speed>4.8141458224694444</speed>
  <fix>3d</fix>
</trkpt>
<trkpt lat="40.0727815" lon="-105.2280959">
  <ele>1583.0</ele>
  <time>2026-08-28T17:52:45Z</time>
  <course>207.98</course>
  <speed>4.68</speed>
  <fix>3d</fix>
</trkpt>
<trkpt lat="40.0727727" lon="-105.2281022">
  <ele>1582.98</ele>
  <time>2026-08-28T17:52:45Z</time>
  <course>208.4</course>
  <speed>4.903549734631025</speed>
  <fix>3d</fix>
</trkpt>
<trkpt lat="40.0727815" lon="-105.2280959">
  <ele>1583.0</ele>
  <time>2026-08-28T17:52:45Z</time>
  <course>207.98</course>
  <speed>4.68</speed>
  <fix>3d</fix>
</trkpt>
<trkpt lat="40.0727688" lon="-105.2281049">
  <ele>1582.98</ele>
  <time>2026-08-28T17:52:45Z</time>
  <course>208.4</course>
  <speed>4.984144861458182</speed>
  <fix>3d</fix>
</trkpt>
<trkpt lat="40.0727739" lon="-105.2281011">
  <ele>1583.0</ele>
  <time>2026-08-28T17:52:45Z</time>
  <course>207.98</course>
  <speed>4.86</speed>
  <fix>3d</fix>
</trkpt>
<trkpt lat="40.0727648" lon="-105.2281077">
  <ele>1582.98</ele>
  <time>2026-08-28T17:52:45Z</time>
  <course>208.4</course>
  <speed>5.060009881413277</speed>
  <fix>3d</fix>
</trkpt>
<trkpt lat="40.0727739" lon="-105.2281011">
  <ele>1583.0</ele>
  <time>2026-08-28T17:52:45Z</time>
  <course>207.98</course>
  <speed>4.86</speed>
  <fix>3d</fix>
</trkpt>
<trkpt lat="40.0727608" lon="-105.2281105">
  <ele>1582.97</ele>
  <time>2026-08-28T17:52:45Z</time>
  <course>208.4</course>
  <speed>5.11825165461801</speed>
  <fix>3d</fix>
</trkpt>
<trkpt lat="40.072766" lon="-105.2281065">
  <ele>1583.0</ele>
  <time>2026-08-28T17:52:45Z</time>
  <course>207.98</course>
  <speed>5.01</speed>
  <fix>3d</fix>
</trkpt>
<trkpt lat="40.0727567" lon="-105.2281133">
  <ele>1582.97</ele>
  <time>2026-08-28T17:52:45Z</time>
  <course>208.41</course>
  <speed>5.176494953151215</speed>
  <fix>3d</fix>
</trkpt>
<trkpt lat="40.072766" lon="-105.2281065">
  <ele>1583.0</ele>
  <time>2026-08-28T17:52:45Z</time>
  <course>207.98</course>
  <speed>5.01</speed>
  <fix>3d</fix>
</trkpt>
<trkpt lat="40.0727525" lon="-105.2281162">
  <ele>1582.97</ele>
  <time>2026-08-28T17:52:45Z</time>
  <course>208.43</course>
  <speed>5.221197180723976</speed>
  <fix>3d</fix>
</trkpt>
<trkpt lat="40.072758" lon="-105.2281122">
  <ele>1583.0</ele>
  <time>2026-08-28T17:52:45Z</time>
  <course>208.0</course>
  <speed>5.13</speed>
  <fix>3d</fix>
</trkpt>
<trkpt lat="40.0727483" lon="-105.2281191">
  <ele>1582.97</ele>
  <time>2026-08-28T17:52:45Z</time>
  <course>208.43</course>
  <speed>5.243548416864289</speed>
  <fix>3d</fix>
</trkpt>
<trkpt lat="40.072758" lon="-105.2281122">
  <ele>1583.0</ele>
  <time>2026-08-28T17:52:45Z</time>
  <course>208.0</course>
  <speed>5.13</speed>
  <fix>3d</fix>
</trkpt>
<trkpt lat="40.0727442" lon="-105.228122">
  <ele>1582.97</ele>
  <time>2026-08-28T17:52:45Z</time>
  <course>208.45</course>
  <speed>5.265899733189002</speed>
  <fix>3d</fix>
</trkpt>
<trkpt lat="40.0727498" lon="-105.2281179">
  <ele>1583.0</ele>
  <time>2026-08-28T17:52:45Z</time>
  <course>208.03</course>
  <speed>5.2</speed>
  <fix>3d</fix>
</trkpt>
<trkpt lat="40.07274" lon="-105.2281249">
  <ele>1582.98</ele>
  <time>2026-08-28T17:52:45Z</time>
  <course>208.44</course>
  <speed>5.27471326234896</speed>
  <fix>3d</fix>
</trkpt>
<trkpt lat="40.0727498" lon="-105.2281179">
  <ele>1583.0</ele>
  <time>2026-08-28T17:52:45Z</time>
  <course>208.03</course>
  <speed>5.2</speed>
  <fix>3d</fix>
</trkpt>
<trkpt lat="40.0727358" lon="-105.2281278">
  <ele>1582.98</ele>
  <time>2026-08-28T17:52:45Z</time>
  <course>208.46</course>
  <speed>5.265899733189002</speed>
  <fix>3d</fix>
</trkpt>
<trkpt lat="40.0727415" lon="-105.2281237">
  <ele>1583.0</ele>
  <time>2026-08-28T17:52:45Z</time>
  <course>208.05</course>
  <speed>5.23</speed>
  <fix>3d</fix>
</trkpt>
<trkpt lat="40.0727316" lon="-105.2281307">
  <ele>1582.98</ele>
  <time>2026-08-28T17:52:45Z</time>
  <course>208.47</course>
  <speed>5.257090450049343</speed>
  <fix>3d</fix>
</trkpt>
<trkpt lat="40.0727415" lon="-105.2281237">
  <ele>1583.0</ele>
  <time>2026-08-28T17:52:45Z</time>
  <course>208.05</course>
  <speed>5.23</speed>
  <fix>3d</fix>
</trkpt>
<trkpt lat="40.0727275" lon="-105.2281336">
  <ele>1582.98</ele>
  <time>2026-08-28T17:52:45Z</time>
  <course>208.47</course>
  <speed>5.243548416864289</speed>
  <fix>3d</fix>
</trkpt>
<trkpt lat="40.0727332" lon="-105.2281294">
  <ele>1583.0</ele>
  <time>2026-08-28T17:52:45Z</time>
  <course>208.06</course>
  <speed>5.21</speed>
  <fix>3d</fix>
</trkpt>
<trkpt lat="40.0727233" lon="-105.2281365">
  <ele>1582.98</ele>
  <time>2026-08-28T17:52:45Z</time>
  <course>208.48</course>
  <speed>5.21238908754901</speed>
  <fix>3d</fix>
</trkpt>
<trkpt lat="40.0727332" lon="-105.2281294">
  <ele>1583.0</ele>
  <time>2026-08-28T17:52:45Z</time>
  <course>208.06</course>
  <speed>5.21</speed>
  <fix>3d</fix>
</trkpt>
<trkpt lat="40.0727192" lon="-105.2281394">
  <ele>1582.98</ele>
  <time>2026-08-28T17:52:45Z</time>
  <course>208.48</course>
  <speed>5.18530616260988</speed>
  <fix>3d</fix>
</trkpt>
<trkpt lat="40.0727332" lon="-105.2281294">
  <ele>1583.0</ele>
  <time>2026-08-28T17:52:45Z</time>
  <course>208.06</course>
  <speed>5.21</speed>
  <fix>3d</fix>
</trkpt>
<trkpt lat="40.0727152" lon="-105.2281422">
  <ele>1582.98</ele>
  <time>2026-08-28T17:52:45Z</time>
  <course>208.49</course>
  <speed>5.1541439638411335</speed>
  <fix>3d</fix>
</trkpt>
<trkpt lat="40.072725" lon="-105.2281352">
  <ele>1583.0</ele>
  <time>2026-08-28T17:52:45Z</time>
  <course>208.07</course>
  <speed>5.18</speed>
  <fix>3d</fix>
</trkpt>
<trkpt lat="40.0727111" lon="-105.228145">
  <ele>1582.98</ele>
  <time>2026-08-28T17:52:45Z</time>
  <course>208.49</course>
  <speed>5.11825165461801</speed>
  <fix>3d</fix>
</trkpt>
<trkpt lat="40.072725" lon="-105.2281352">
  <ele>1583.0</ele>
  <time>2026-08-28T17:52:45Z</time>
  <course>208.07</course>
  <speed>5.18</speed>
  <fix>3d</fix>
</trkpt>
<trkpt lat="40.0727072" lon="-105.2281478">
  <ele>1582.99</ele>
  <time>2026-08-28T17:52:45Z</time>
  <course>208.5</course>
  <speed>5.082361655765949</speed>
  <fix>3d</fix>
</trkpt>
<trkpt lat="40.0727168" lon="-105.2281409">
  <ele>1583.0</ele>
  <time>2026-08-28T17:52:45Z</time>
  <course>208.09</course>
  <speed>5.12</speed>
  <fix>3d</fix>
</trkpt>
<trkpt lat="40.0727032" lon="-105.2281505">
  <ele>1582.99</ele>
  <time>2026-08-28T17:52:45Z</time>
  <course>208.5</course>
  <speed>5.042390306194077</speed>
  <fix>3d</fix>
</trkpt>
<trkpt lat="40.0727168" lon="-105.2281409">
  <ele>1583.0</ele>
  <time>2026-08-28T17:52:45Z</time>
  <course>208.09</course>
  <speed>5.12</speed>
  <fix>3d</fix>
</trkpt>
<trkpt lat="40.0726993" lon="-105.2281532">
  <ele>1583.0</ele>
  <time>2026-08-28T17:52:45Z</time>
  <course>208.51</course>
  <speed>5.006495780483591</speed>
  <fix>3d</fix>
</trkpt>
<trkpt lat="40.0727087" lon="-105.2281464">
  <ele>1583.0</ele>
  <time>2026-08-28T17:52:45Z</time>
  <course>208.1</course>
  <speed>5.06</speed>
  <fix>3d</fix>
</trkpt>
<trkpt lat="40.0726954" lon="-105.228156">
  <ele>1583.0</ele>
  <time>2026-08-28T17:52:45Z</time>
  <course>208.51</course>
  <speed>4.970603585078979</speed>
  <fix>3d</fix>
</trkpt>
<trkpt lat="40.0727087" lon="-105.2281464">
  <ele>1583.0</ele>
  <time>2026-08-28T17:52:45Z</time>
  <course>208.1</course>
  <speed>5.06</speed>
  <fix>3d</fix>
</trkpt>
<trkpt lat="40.0726915" lon="-105.2281587">
  <ele>1583.0</ele>
  <time>2026-08-28T17:52:45Z</time>
  <course>208.52</course>
  <speed>4.939443288468854</speed>
  <fix>3d</fix>
</trkpt>
<trkpt lat="40.0727007" lon="-105.228152">
  <ele>1583.0</ele>
  <time>2026-08-28T17:52:45Z</time>
  <course>208.11</course>
  <speed>5.0</speed>
  <fix>3d</fix>
</trkpt>
<trkpt lat="40.0726877" lon="-105.2281613">
  <ele>1583.0</ele>
  <time>2026-08-28T17:52:45Z</time>
  <course>208.52</course>
  <speed>4.917092636914623</speed>
  <fix>3d</fix>
</trkpt>
<trkpt lat="40.0726928" lon="-105.2281576">
  <ele>1583.0</ele>
  <time>2026-08-28T17:52:45Z</time>
  <course>208.13</course>
  <speed>4.94</speed>
  <fix>3d</fix>
</trkpt>
<trkpt lat="40.0726838" lon="-105.228164">
  <ele>1583.01</ele>
  <time>2026-08-28T17:52:45Z</time>
  <course>208.53</course>
  <speed>4.890010224938186</speed>
  <fix>3d</fix>
</trkpt>
<trkpt lat="40.0726928" lon="-105.2281576">
  <ele>1583.0</ele>
  <time>2026-08-28T17:52:45Z</time>
  <course>208.13</course>
  <speed>4.94</speed>
  <fix>3d</fix>
</trkpt>
<trkpt lat="40.07268" lon="-105.2281667">
  <ele>1583.01</ele>
  <time>2026-08-28T17:52:45Z</time>
  <course>208.53</course>
  <speed>4.867658574715363</speed>
  <fix>3d</fix>
</trkpt>
<trkpt lat="40.0726851" lon="-105.228163">
  <ele>1583.0</ele>
  <time>2026-08-28T17:52:45Z</time>
  <course>208.14</course>
  <speed>4.9</speed>
  <fix>3d</fix>
</trkpt>
<trkpt lat="40.0726761" lon="-105.2281694">
  <ele>1583.01</ele>
  <time>2026-08-28T17:52:45Z</time>
  <course>208.53</course>
  <speed>4.8588475999973495</speed>
  <fix>3d</fix>
</trkpt>
<trkpt lat="40.0726851" lon="-105.228163">
  <ele>1583.0</ele>
  <time>2026-08-28T17:52:45Z</time>
  <course>208.14</course>
  <speed>4.9</speed>
  <fix>3d</fix>
</trkpt>
<trkpt lat="40.0726723" lon="-105.2281721">
  <ele>1583.01</ele>
  <time>2026-08-28T17:52:45Z</time>
  <course>208.53</course>
  <speed>4.845307007816945</speed>
  <fix>3d</fix>
</trkpt>
<trkpt lat="40.0726773" lon="-105.2281685">
  <ele>1583.0</ele>
  <time>2026-08-28T17:52:45Z</time>
  <course>208.14</course>
  <speed>4.87</speed>
  <fix>3d</fix>
</trkpt>
<trkpt lat="40.0726684" lon="-105.2281748">
  <ele>1583.01</ele>
  <time>2026-08-28T17:52:45Z</time>
  <course>208.54</course>
  <speed>4.836496665976314</speed>
  <fix>3d</fix>
</trkpt>
<trkpt lat="40.0726773" lon="-105.2281685">
  <ele>1583.0</ele>
  <time>2026-08-28T17:52:45Z</time>
  <course>208.14</course>
  <speed>4.87</speed>
  <fix>3d</fix>
</trkpt>
<trkpt lat="40.0726646" lon="-105.2281775">
  <ele>1583.02</ele>
  <time>2026-08-28T17:52:45Z</time>
  <course>208.54</course>
  <speed>4.822955525401411</speed>
  <fix>3d</fix>
</trkpt>
<trkpt lat="40.0726696" lon="-105.2281738">
  <ele>1583.0</ele>
  <time>2026-08-28T17:52:45Z</time>
  <course>208.14</course>
  <speed>4.84</speed>
  <fix>3d</fix>
</trkpt>
<trkpt lat="40.0726607" lon="-105.2281801">
  <ele>1583.02</ele>
  <time>2026-08-28T17:52:45Z</time>
  <course>208.54</course>
  <speed>4.822955525401411</speed>
  <fix>3d</fix>
</trkpt>
<trkpt lat="40.0726696" lon="-105.2281738">
  <ele>1583.0</ele>
  <time>2026-08-28T17:52:45Z</time>
  <course>208.14</course>
  <speed>4.84</speed>
  <fix>3d</fix>
</trkpt>
<trkpt lat="40.0726569" lon="-105.2281828">
  <ele>1583.02</ele>
  <time>2026-08-28T17:52:45Z</time>
  <course>208.54</course>
  <speed>4.8141458224694444</speed>
  <fix>3d</fix>
</trkpt>
<trkpt lat="40.0726619" lon="-105.2281792">
  <ele>1583.0</ele>
  <time>2026-08-28T17:52:45Z</time>
  <course>208.14</course>
  <speed>4.83</speed>
  <fix>3d</fix>
</trkpt>
<trkpt lat="40.072653" lon="-105.2281855">
  <ele>1583.01</ele>
  <time>2026-08-28T17:52:45Z</time>
  <course>208.55</course>
  <speed>4.8141458224694444</speed>
  <fix>3d</fix>
</trkpt>
<trkpt lat="40.0726619" lon="-105.2281792">
  <ele>1583.0</ele>
  <time>2026-08-28T17:52:45Z</time>
  <course>208.14</course>
  <speed>4.83</speed>
  <fix>3d</fix>
</trkpt>
<trkpt lat="40.0726492" lon="-105.2281882">
  <ele>1583.01</ele>
  <time>2026-08-28T17:52:45Z</time>
  <course>208.55</course>
  <speed>4.8141458224694444</speed>
  <fix>3d</fix>
</trkpt>
<trkpt lat="40.0726543" lon="-105.2281845">
  <ele>1583.0</ele>
  <time>2026-08-28T17:52:45Z</time>
  <course>208.14</course>
  <speed>4.83</speed>
  <fix>3d</fix>
</trkpt>
<trkpt lat="40.0726454" lon="-105.2281909">
  <ele>1583.01</ele>
  <time>2026-08-28T17:52:45Z</time>
  <course>208.55</course>
  <speed>4.822955525401411</speed>
  <fix>3d</fix>
</trkpt>
<trkpt lat="40.0726543" lon="-105.2281845">
  <ele>1583.0</ele>
  <time>2026-08-28T17:52:45Z</time>
  <course>208.14</course>
  <speed>4.83</speed>
  <fix>3d</fix>
</trkpt>
<trkpt lat="40.0726415" lon="-105.2281936">
  <ele>1583.01</ele>
  <time>2026-08-28T17:52:45Z</time>
  <course>208.56</course>
  <speed>4.822955525401411</speed>
  <fix>3d</fix>
</trkpt>
<trkpt lat="40.0726467" lon="-105.2281898">
  <ele>1583.0</ele>
  <time>2026-08-28T17:52:45Z</time>
  <course>208.14</course>
  <speed>4.83</speed>
  <fix>3d</fix>
</trkpt>
<trkpt lat="40.0726377" lon="-105.2281962">
  <ele>1583.01</ele>
  <time>2026-08-28T17:52:45Z</time>
  <course>208.56</course>
  <speed>4.822955525401411</speed>
  <fix>3d</fix>
</trkpt>
<trkpt lat="40.0726467" lon="-105.2281898">
  <ele>1583.0</ele>
  <time>2026-08-28T17:52:45Z</time>
  <course>208.14</course>
  <speed>4.83</speed>
  <fix>3d</fix>
</trkpt>
<trkpt lat="40.0726338" lon="-105.2281989">
  <ele>1583.01</ele>
  <time>2026-08-28T17:52:45Z</time>
  <course>208.56</course>
  <speed>4.836496665976314</speed>
  <fix>3d</fix>
</trkpt>
<trkpt lat="40.0726467" lon="-105.2281898">
  <ele>1583.0</ele>
  <time>2026-08-28T17:52:45Z</time>
  <course>208.14</course>
  <speed>4.83</speed>
  <fix>3d</fix>
</trkpt>
<trkpt lat="40.07263" lon="-105.2282016">
  <ele>1583.01</ele>
  <time>2026-08-28T17:52:45Z</time>
  <course>208.57</course>
  <speed>4.836496665976314</speed>
  <fix>3d</fix>
</trkpt>
<trkpt lat="40.0726389" lon="-105.2281953">
  <ele>1583.0</ele>
  <time>2026-08-28T17:52:45Z</time>
  <course>208.14</course>
  <speed>4.84</speed>
  <fix>3d</fix>
</trkpt>
<trkpt lat="40.0726262" lon="-105.2282043">
  <ele>1583.01</ele>
  <time>2026-08-28T17:52:45Z</time>
  <course>208.57</course>
  <speed>4.845307007816945</speed>
  <fix>3d</fix>
</trkpt>
<trkpt lat="40.0726389" lon="-105.2281953">
  <ele>1583.0</ele>
  <time>2026-08-28T17:52:45Z</time>
  <course>208.14</course>
  <speed>4.84</speed>
  <fix>3d</fix>
</trkpt>
<trkpt lat="40.0726224" lon="-105.2282069">
  <ele>1583.01</ele>
  <time>2026-08-28T17:52:45Z</time>
  <course>208.57</course>
  <speed>4.850041236938094</speed>
  <fix>3d</fix>
</trkpt>
<trkpt lat="40.0726313" lon="-105.2282006">
  <ele>1583.0</ele>
  <time>2026-08-28T17:52:45Z</time>
  <course>208.14</course>
  <speed>4.86</speed>
  <fix>3d</fix>
</trkpt>
<trkpt lat="40.0726186" lon="-105.2282096">
  <ele>1583.02</ele>
  <time>2026-08-28T17:52:45Z</time>
  <course>208.57</course>
  <speed>4.8588475999973495</speed>
  <fix>3d</fix>
</trkpt>
<trkpt lat="40.0726313" lon="-105.2282006">
  <ele>1583.0</ele>
  <time>2026-08-28T17:52:45Z</time>
  <course>208.14</course>
  <speed>4.86</speed>
  <fix>3d</fix>
</trkpt>
<trkpt lat="40.0726148" lon="-105.2282123">
  <ele>1583.02</ele>
  <time>2026-08-28T17:52:45Z</time>
  <course>208.58</course>
  <speed>4.8588475999973495</speed>
  <fix>3d</fix>
</trkpt>
<trkpt lat="40.0726236" lon="-105.228206">
  <ele>1583.0</ele>
  <time>2026-08-28T17:52:45Z</time>
  <course>208.14</course>
  <speed>4.87</speed>
  <fix>3d</fix>
</trkpt>
<trkpt lat="40.0726109" lon="-105.228215">
  <ele>1583.02</ele>
  <time>2026-08-28T17:52:45Z</time>
  <course>208.58</course>
  <speed>4.872391609877022</speed>
  <fix>3d</fix>
</trkpt>
<trkpt lat="40.0726158" lon="-105.2282114">
  <ele>1583.0</ele>
  <time>2026-08-28T17:52:45Z</time>
  <course>208.14</course>
  <speed>4.89</speed>
  <fix>3d</fix>
</trkpt>
<trkpt lat="40.072607" lon="-105.2282177">
  <ele>1583.02</ele>
  <time>2026-08-28T17:52:45Z</time>
  <course>208.58</course>
  <speed>4.881198623289161</speed>
  <fix>3d</fix>
</trkpt>
<trkpt lat="40.0726158" lon="-105.2282114">
  <ele>1583.0</ele>
  <time>2026-08-28T17:52:45Z</time>
  <course>208.14</course>
  <speed>4.89</speed>
  <fix>3d</fix>
</trkpt>
<trkpt lat="40.0726031" lon="-105.2282204">
  <ele>1583.02</ele>
  <time>2026-08-28T17:52:45Z</time>
  <course>208.59</course>
  <speed>4.894742076963811</speed>
  <fix>3d</fix>
</trkpt>
<trkpt lat="40.072608" lon="-105.2282168">
  <ele>1583.0</ele>
  <time>2026-08-28T17:52:45Z</time>
  <course>208.14</course>
  <speed>4.91</speed>
  <fix>3d</fix>
</trkpt>
<trkpt lat="40.0725993" lon="-105.2282231">
  <ele>1583.02</ele>
  <time>2026-08-28T17:52:45Z</time>
  <course>208.59</course>
  <speed>4.894742076963811</speed>
  <fix>3d</fix>
</trkpt>
<trkpt lat="40.072608" lon="-105.2282168">
  <ele>1583.0</ele>
  <time>2026-08-28T17:52:45Z</time>
  <course>208.14</course>
  <speed>4.91</speed>
  <fix>3d</fix>
</trkpt>
<trkpt lat="40.0725953" lon="-105.2282258">
  <ele>1583.01</ele>
  <time>2026-08-28T17:52:45Z</time>
  <course>208.59</course>
  <speed>4.903549734631025</speed>
  <fix>3d</fix>
</trkpt>
<trkpt lat="40.0726003" lon="-105.2282223">
  <ele>1583.0</ele>
  <time>2026-08-28T17:52:45Z</time>
  <course>208.14</course>
  <speed>4.93</speed>
  <fix>3d</fix>
</trkpt>
<trkpt lat="40.0725914" lon="-105.2282286">
  <ele>1583.01</ele>
  <time>2026-08-28T17:52:45Z</time>
  <course>208.6</course>
  <speed>4.917092636914623</speed>
  <fix>3d</fix>
</trkpt>
<trkpt lat="40.0726003" lon="-105.2282223">
  <ele>1583.0</ele>
  <time>2026-08-28T17:52:45Z</time>
  <course>208.14</course>
  <speed>4.93</speed>
  <fix>3d</fix>
</trkpt>
<trkpt lat="40.0725875" lon="-105.2282313">
  <ele>1583.02</ele>
  <time>2026-08-28T17:52:45Z</time>
  <course>208.6</course>
  <speed>4.92590093282437</speed>
  <fix>3d</fix>
</trkpt>
<trkpt lat="40.0725924" lon="-105.2282278">
  <ele>1583.0</ele>
  <time>2026-08-28T17:52:45Z</time>
  <course>208.14</course>
  <speed>4.95</speed>
  <fix>3d</fix>
</trkpt>
<trkpt lat="40.0725835" lon="-105.2282341">
  <ele>1583.02</ele>
  <time>2026-08-28T17:52:45Z</time>
  <course>208.61</course>
  <speed>4.930638903833863</speed>
  <fix>3d</fix>
</trkpt>
<trkpt lat="40.0725924" lon="-105.2282278">
  <ele>1583.0</ele>
  <time>2026-08-28T17:52:45Z</time>
  <course>208.14</course>
  <speed>4.95</speed>
  <fix>3d</fix>
</trkpt>
<trkpt lat="40.0725795" lon="-105.2282369">
  <ele>1583.02</ele>
  <time>2026-08-28T17:52:45Z</time>
  <course>208.61</course>
  <speed>4.939443288468854</speed>
  <fix>3d</fix>
</trkpt>
<trkpt lat="40.0725846" lon="-105.2282333">
  <ele>1583.0</ele>
  <time>2026-08-28T17:52:45Z</time>
  <course>208.14</course>
  <speed>4.96</speed>
  <fix>3d</fix>
</trkpt>
<trkpt lat="40.0725756" lon="-105.2282397">
  <ele>1583.02</ele>
  <time>2026-08-28T17:52:45Z</time>
  <course>208.61</course>
  <speed>4.939443288468854</speed>
  <fix>3d</fix>
</trkpt>
<trkpt lat="40.0725846" lon="-105.2282333">
  <ele>1583.0</ele>
  <time>2026-08-28T17:52:45Z</time>
  <course>208.14</course>
  <speed>4.96</speed>
  <fix>3d</fix>
</trkpt>
<trkpt lat="40.0725716" lon="-105.2282424">
  <ele>1583.02</ele>
  <time>2026-08-28T17:52:45Z</time>
  <course>208.62</course>
  <speed>4.939443288468854</speed>
  <fix>3d</fix>
</trkpt>
<trkpt lat="40.0725767" lon="-105.2282388">
  <ele>1583.0</ele>
  <time>2026-08-28T17:52:45Z</time>
  <course>208.14</course>
  <speed>4.97</speed>
  <fix>3d</fix>
</trkpt>
<trkpt lat="40.0725677" lon="-105.2282452">
  <ele>1583.02</ele>
  <time>2026-08-28T17:52:45Z</time>
  <course>208.62</course>
  <speed>4.952988996555515</speed>
  <fix>3d</fix>
</trkpt>
<trkpt lat="40.0725767" lon="-105.2282388">
  <ele>1583.0</ele>
  <time>2026-08-28T17:52:45Z</time>
  <course>208.14</course>
  <speed>4.97</speed>
  <fix>3d</fix>
</trkpt>
<trkpt lat="40.0725637" lon="-105.228248">
  <ele>1583.02</ele>
  <time>2026-08-28T17:52:45Z</time>
  <course>208.62</course>
  <speed>4.952988996555515</speed>
  <fix>3d</fix>
</trkpt>
<trkpt lat="40.0725688" lon="-105.2282443">
  <ele>1583.0</ele>
  <time>2026-08-28T17:52:45Z</time>
  <course>208.14</course>
  <speed>4.97</speed>
  <fix>3d</fix>
</trkpt>
<trkpt lat="40.0725598" lon="-105.2282508">
  <ele>1583.02</ele>
  <time>2026-08-28T17:52:45Z</time>
  <course>208.63</course>
  <speed>4.952988996555515</speed>
  <fix>3d</fix>
</trkpt>
<trkpt lat="40.0725688" lon="-105.2282443">
  <ele>1583.0</ele>
  <time>2026-08-28T17:52:45Z</time>
  <course>208.14</course>
  <speed>4.97</speed>
  <fix>3d</fix>
</trkpt>
<trkpt lat="40.0725558" lon="-105.2282535">
  <ele>1583.02</ele>
  <time>2026-08-28T17:52:45Z</time>
  <course>208.63</course>
  <speed>4.952988996555515</speed>
  <fix>3d</fix>
</trkpt>
<trkpt lat="40.0725688" lon="-105.2282443">
  <ele>1583.0</ele>
  <time>2026-08-28T17:52:45Z</time>
  <course>208.14</course>
  <speed>4.97</speed>
  <fix>3d</fix>
</trkpt>
<trkpt lat="40.0725519" lon="-105.2282563">
  <ele>1583.02</ele>
  <time>2026-08-28T17:52:45Z</time>
  <course>208.63</course>
  <speed>4.952988996555515</speed>
  <fix>3d</fix>
</trkpt>
<trkpt lat="40.0725609" lon="-105.2282498">
  <ele>1583.0</ele>
  <time>2026-08-28T17:52:45Z</time>
  <course>208.14</course>
  <speed>4.97</speed>
  <fix>3d</fix>
</trkpt>
<trkpt lat="40.072548" lon="-105.228259">
  <ele>1583.02</ele>
  <time>2026-08-28T17:52:45Z</time>
  <course>208.64</course>
  <speed>4.944188507733094</speed>
  <fix>3d</fix>
</trkpt>
<trkpt lat="40.0725609" lon="-105.2282498">
  <ele>1583.0</ele>
  <time>2026-08-28T17:52:45Z</time>
  <course>208.14</course>
  <speed>4.97</speed>
  <fix>3d</fix>
</trkpt>
<trkpt lat="40.0725441" lon="-105.2282617">
  <ele>1583.02</ele>
  <time>2026-08-28T17:52:45Z</time>
  <course>208.64</course>
  <speed>4.939443288468854</speed>
  <fix>3d</fix>
</trkpt>
<trkpt lat="40.072553" lon="-105.2282553">
  <ele>1583.0</ele>
  <time>2026-08-28T17:52:45Z</time>
  <course>208.14</course>
  <speed>4.97</speed>
  <fix>3d</fix>
</trkpt>
<trkpt lat="40.0725402" lon="-105.2282645">
  <ele>1583.02</ele>
  <time>2026-08-28T17:52:45Z</time>
  <course>208.64</course>
  <speed>4.939443288468854</speed>
  <fix>3d</fix>
</trkpt>
<trkpt lat="40.072553" lon="-105.2282553">
  <ele>1583.0</ele>
  <time>2026-08-28T17:52:45Z</time>
  <course>208.14</course>
  <speed>4.97</speed>
  <fix>3d</fix>
</trkpt>
<trkpt lat="40.0725363" lon="-105.2282672">
  <ele>1583.02</ele>
  <time>2026-08-28T17:52:45Z</time>
  <course>208.64</course>
  <speed>4.930638903833863</speed>
  <fix>3d</fix>
</trkpt>
<trkpt lat="40.0725451" lon="-105.2282608">
  <ele>1583.0</ele>
  <time>2026-08-28T17:52:45Z</time>
  <course>208.14</course>
  <speed>4.97</speed>
  <fix>3d</fix>
</trkpt>
<trkpt lat="40.0725323" lon="-105.2282699">
  <ele>1583.03</ele>
  <time>2026-08-28T17:52:45Z</time>
  <course>208.65</course>
  <speed>4.930638903833863</speed>
  <fix>3d</fix>
</trkpt>
<trkpt lat="40.0725372" lon="-105.2282663">
  <ele>1583.0</ele>
  <time>2026-08-28T17:52:45Z</time>
  <course>208.14</course>
  <speed>4.97</speed>
  <fix>3d</fix>
</trkpt>
<trkpt lat="40.0725284" lon="-105.2282727">
  <ele>1583.03</ele>
  <time>2026-08-28T17:52:45Z</time>
  <course>208.65</course>
  <speed>4.917092636914623</speed>
  <fix>3d</fix>
</trkpt>
<trkpt lat="40.0725372" lon="-105.2282663">
  <ele>1583.0</ele>
  <time>2026-08-28T17:52:45Z</time>
  <course>208.14</course>
  <speed>4.97</speed>
  <fix>3d</fix>
</trkpt>
<trkpt lat="40.0725245" lon="-105.2282754">
  <ele>1583.03</ele>
  <time>2026-08-28T17:52:45Z</time>
  <course>208.65</course>
  <speed>4.894742076963811</speed>
  <fix>3d</fix>
</trkpt>
<trkpt lat="40.0725293" lon="-105.2282718">
  <ele>1583.0</ele>
  <time>2026-08-28T17:52:45Z</time>
  <course>208.14</course>
  <speed>4.95</speed>
  <fix>3d</fix>
</trkpt>
<trkpt lat="40.0725206" lon="-105.2282781">
  <ele>1583.03</ele>
  <time>2026-08-28T17:52:45Z</time>
  <course>208.66</course>
  <speed>4.872391609877022</speed>
  <fix>3d</fix>
</trkpt>
<trkpt lat="40.0725293" lon="-105.2282718">
  <ele>1583.0</ele>
  <time>2026-08-28T17:52:45Z</time>
  <course>208.14</course>
  <speed>4.95</speed>
  <fix>3d</fix>
</trkpt>
<trkpt lat="40.0725167" lon="-105.2282808">
  <ele>1583.03</ele>
  <time>2026-08-28T17:52:45Z</time>
  <course>208.66</course>
  <speed>4.841239510703844</speed>
  <fix>3d</fix>
</trkpt>
<trkpt lat="40.0725216" lon="-105.2282773">
  <ele>1583.0</ele>
  <time>2026-08-28T17:52:45Z</time>
  <course>208.14</course>
  <speed>4.9</speed>
  <fix>3d</fix>
</trkpt>
<trkpt lat="40.0725129" lon="-105.2282835">
  <ele>1583.03</ele>
  <time>2026-08-28T17:52:45Z</time>
  <course>208.66</course>
  <speed>4.7965404199276795</speed>
  <fix>3d</fix>
</trkpt>
<trkpt lat="40.0725216" lon="-105.2282773">
  <ele>1583.0</ele>
  <time>2026-08-28T17:52:45Z</time>
  <course>208.14</course>
  <speed>4.9</speed>
  <fix>3d</fix>
</trkpt>
<trkpt lat="40.0725091" lon="-105.2282862">
  <ele>1583.02</ele>
  <time>2026-08-28T17:52:45Z</time>
  <course>208.67</course>
  <speed>4.73829083109089</speed>
  <fix>3d</fix>
</trkpt>
<trkpt lat="40.0725139" lon="-105.2282827">
  <ele>1583.0</ele>
  <time>2026-08-28T17:52:45Z</time>
  <course>208.14</course>
  <speed>4.82</speed>
  <fix>3d</fix>
</trkpt>
<trkpt lat="40.0725053" lon="-105.2282888">
  <ele>1583.02</ele>
  <time>2026-08-28T17:52:45Z</time>
  <course>208.67</course>
  <speed>4.680042734847621</speed>
  <fix>3d</fix>
</trkpt>
<trkpt lat="40.0725139" lon="-105.2282827">
  <ele>1583.0</ele>
  <time>2026-08-28T17:52:45Z</time>
  <course>208.14</course>
  <speed>4.82</speed>
  <fix>3d</fix>
</trkpt>
<trkpt lat="40.0725016" lon="-105.2282914">
  <ele>1583.02</ele>
  <time>2026-08-28T17:52:45Z</time>
  <course>208.67</course>
  <speed>4.599445618767549</speed>
  <fix>3d</fix>
</trkpt>
<trkpt lat="40.0725063" lon="-105.2282879">
  <ele>1583.0</ele>
  <time>2026-08-28T17:52:45Z</time>
  <course>208.14</course>
  <speed>4.7</speed>
  <fix>3d</fix>
</trkpt>
<trkpt lat="40.0724979" lon="-105.228294">
  <ele>1583.02</ele>
  <time>2026-08-28T17:52:45Z</time>
  <course>208.68</course>
  <speed>4.510044345679984</speed>
  <fix>3d</fix>
</trkpt>
<trkpt lat="40.0725063" lon="-105.2282879">
  <ele>1583.0</ele>
  <time>2026-08-28T17:52:45Z</time>
  <course>208.14</course>
  <speed>4.7</speed>
  <fix>3d</fix>
</trkpt>
<trkpt lat="40.0724944" lon="-105.2282965">
  <ele>1583.01</ele>
  <time>2026-08-28T17:52:45Z</time>
  <course>208.68</course>
  <speed>4.407096549884062</speed>
  <fix>3d</fix>
</trkpt>
<trkpt lat="40.072499" lon="-105.2282931">
  <ele>1583.0</ele>
  <time>2026-08-28T17:52:45Z</time>
  <course>208.14</course>
  <speed>4.54</speed>
  <fix>3d</fix>
</trkpt>
<trkpt lat="40.0724909" lon="-105.2282989">
  <ele>1583.02</ele>
  <time>2026-08-28T17:52:45Z</time>
  <course>208.68</course>
  <speed>4.3041491609840845</speed>
  <fix>3d</fix>
</trkpt>
<trkpt lat="40.072499" lon="-105.2282931">
  <ele>1583.0</ele>
  <time>2026-08-28T17:52:45Z</time>
  <course>208.14</course>
  <speed>4.54</speed>
  <fix>3d</fix>
</trkpt>
<trkpt lat="40.0724875" lon="-105.2283013">
  <ele>1583.02</ele>
  <time>2026-08-28T17:52:45Z</time>
  <course>208.68</course>
  <speed>4.192397881880965</speed>
  <fix>3d</fix>
</trkpt>
<trkpt lat="40.0724919" lon="-105.228298">
  <ele>1583.0</ele>
  <time>2026-08-28T17:52:45Z</time>
  <course>208.14</course>
  <speed>4.33</speed>
  <fix>3d</fix>
</trkpt>
<trkpt lat="40.0724842" lon="-105.2283036">
  <ele>1583.02</ele>
  <time>2026-08-28T17:52:45Z</time>
  <course>208.7</course>
  <speed>4.075904807524337</speed>
  <fix>3d</fix>
</trkpt>
<trkpt lat="40.0724919" lon="-105.228298">
  <ele>1583.0</ele>
  <time>2026-08-28T17:52:45Z</time>
  <course>208.14</course>
  <speed>4.33</speed>
  <fix>3d</fix>
</trkpt>
<trkpt lat="40.072481" lon="-105.2283058">
  <ele>1583.02</ele>
  <time>2026-08-28T17:52:45Z</time>
  <course>208.71</course>
  <speed>3.9506075482133127</speed>
  <fix>3d</fix>
</trkpt>
<trkpt lat="40.0724919" lon="-105.228298">
  <ele>1583.0</ele>
  <time>2026-08-28T17:52:45Z</time>
  <course>208.14</course>
  <speed>4.33</speed>
  <fix>3d</fix>
</trkpt>
<trkpt lat="40.0724779" lon="-105.2283079">
  <ele>1583.03</ele>
  <time>2026-08-28T17:52:45Z</time>
  <course>208.75</course>
  <speed>3.8253104449181636</speed>
  <fix>3d</fix>
</trkpt>
<trkpt lat="40.0724852" lon="-105.2283027">
  <ele>1583.0</ele>
  <time>2026-08-28T17:52:45Z</time>
  <course>208.15</course>
  <speed>4.11</speed>
  <fix>3d</fix>
</trkpt>
<trkpt lat="40.072475" lon="-105.22831">
  <ele>1583.03</ele>
  <time>2026-08-28T17:52:45Z</time>
  <course>208.78</course>
  <speed>3.69120576505835</speed>
  <fix>3d</fix>
</trkpt>
<trkpt lat="40.0724852" lon="-105.2283027">
  <ele>1583.0</ele>
  <time>2026-08-28T17:52:45Z</time>
  <course>208.15</course>
  <speed>4.11</speed>
  <fix>3d</fix>
</trkpt>
<trkpt lat="40.0724721" lon="-105.228312">
  <ele>1583.03</ele>
  <time>2026-08-28T17:52:45Z</time>
  <course>208.8</course>
  <speed>3.5659080190044166</speed>
  <fix>3d</fix>
</trkpt>
<trkpt lat="40.0724789" lon="-105.2283071">
  <ele>1583.0</ele>
  <time>2026-08-28T17:52:45Z</time>
  <course>208.19</course>
  <speed>3.86</speed>
  <fix>3d</fix>
</trkpt>
<trkpt lat="40.0724693" lon="-105.2283139">
  <ele>1583.02</ele>
  <time>2026-08-28T17:52:45Z</time>
  <course>208.85</course>
  <speed>3.4318071041362455</speed>
  <fix>3d</fix>
</trkpt>
<trkpt lat="40.0724789" lon="-105.2283071">
  <ele>1583.0</ele>
  <time>2026-08-28T17:52:45Z</time>
  <course>208.19</course>
  <speed>3.86</speed>
  <fix>3d</fix>
</trkpt>
<trkpt lat="40.0724667" lon="-105.2283158">
  <ele>1583.02</ele>
  <time>2026-08-28T17:52:45Z</time>
  <course>208.89</course>
  <speed>3.297711327572503</speed>
  <fix>3d</fix>
</trkpt>
<trkpt lat="40.072473" lon="-105.2283113">
  <ele>1583.0</ele>
  <time>2026-08-28T17:52:45Z</time>
  <course>208.25</course>
  <speed>3.61</speed>
  <fix>3d</fix>
</trkpt>
<trkpt lat="40.0724642" lon="-105.2283176">
  <ele>1583.02</ele>
  <time>2026-08-28T17:52:45Z</time>
  <course>208.93</course>
  <speed>3.172412331333996</speed>
  <fix>3d</fix>
</trkpt>
<trkpt lat="40.072473" lon="-105.2283113">
  <ele>1583.0</ele>
  <time>2026-08-28T17:52:45Z</time>
  <course>208.25</course>
  <speed>3.61</speed>
  <fix>3d</fix>
</trkpt>
<trkpt lat="40.0724617" lon="-105.2283193">
  <ele>1583.02</ele>
  <time>2026-08-28T17:52:45Z</time>
  <course>208.97</course>
  <speed>3.038321905262838</speed>
  <fix>3d</fix>
</trkpt>
<trkpt lat="40.0724675" lon="-105.2283152">
  <ele>1583.0</ele>
  <time>2026-08-28T17:52:45Z</time>
  <course>208.32</course>
  <speed>3.35</speed>
  <fix>3d</fix>
</trkpt>
<trkpt lat="40.0724594" lon="-105.228321">
  <ele>1583.02</ele>
  <time>2026-08-28T17:52:45Z</time>
  <course>209.01</course>
  <speed>2.9130224853234483</speed>
  <fix>3d</fix>
</trkpt>
<trkpt lat="40.0724624" lon="-105.2283188">
  <ele>1583.0</ele>
  <time>2026-08-28T17:52:45Z</time>
  <course>208.4</course>
  <speed>3.1</speed>
  <fix>3d</fix>
</trkpt>
<trkpt lat="40.0724571" lon="-105.2283226">
  <ele>1583.02</ele>
  <time>2026-08-28T17:52:45Z</time>
  <course>209.06</course>
  <speed>2.7877230852435826</speed>
  <fix>3d</fix>
</trkpt>
<trkpt lat="40.0724624" lon="-105.2283188">
  <ele>1583.0</ele>
  <time>2026-08-28T17:52:45Z</time>
  <course>208.4</course>
  <speed>3.1</speed>
  <fix>3d</fix>
</trkpt>
<trkpt lat="40.072455" lon="-105.2283241">
  <ele>1583.02</ele>
  <time>2026-08-28T17:52:45Z</time>
  <course>209.1</course>
  <speed>2.667208278331484</speed>
  <fix>3d</fix>
</trkpt>
<trkpt lat="40.0724577" lon="-105.228322">
  <ele>1583.0</ele>
  <time>2026-08-28T17:52:45Z</time>
  <course>208.47</course>
  <speed>2.85</speed>
  <fix>3d</fix>
</trkpt>
<trkpt lat="40.0724529" lon="-105.2283256">
  <ele>1583.01</ele>
  <time>2026-08-28T17:52:45Z</time>
  <course>209.14</course>
  <speed>2.55068618218706</speed>
  <fix>3d</fix>
</trkpt>
<trkpt lat="40.0724577" lon="-105.228322">
  <ele>1583.0</ele>
  <time>2026-08-28T17:52:45Z</time>
  <course>208.47</course>
  <speed>2.85</speed>
  <fix>3d</fix>
</trkpt>
<trkpt lat="40.0724509" lon="-105.228327">
  <ele>1583.01</ele>
  <time>2026-08-28T17:52:45Z</time>
  <course>209.17</course>
  <speed>2.4301851781294364</speed>
  <fix>3d</fix>
</trkpt>
<trkpt lat="40.0724533" lon="-105.2283251">
  <ele>1583.0</ele>
  <time>2026-08-28T17:52:45Z</time>
  <course>208.55</course>
  <speed>2.61</speed>
  <fix>3d</fix>
</trkpt>
<trkpt lat="40.072449" lon="-105.2283283">
  <ele>1583.01</ele>
  <time>2026-08-28T17:52:45Z</time>
  <course>209.21</course>
  <speed>2.3136551169091732</speed>
  <fix>3d</fix>
</trkpt>
<trkpt lat="40.0724533" lon="-105.2283251">
  <ele>1583.0</ele>
  <time>2026-08-28T17:52:45Z</time>
  <course>208.55</course>
  <speed>2.61</speed>
  <fix>3d</fix>
</trkpt>
<trkpt lat="40.0724472" lon="-105.2283296">
  <ele>1583.01</ele>
  <time>2026-08-28T17:52:45Z</time>
  <course>209.24</course>
  <speed>2.2019309707617993</speed>
  <fix>3d</fix>
</trkpt>
<trkpt lat="40.0724494" lon="-105.2283279">
  <ele>1583.0</ele>
  <time>2026-08-28T17:52:45Z</time>
  <course>208.62</course>
  <speed>2.38</speed>
  <fix>3d</fix>
</trkpt>
<trkpt lat="40.0724455" lon="-105.2283308">
  <ele>1583.01</ele>
  <time>2026-08-28T17:52:45Z</time>
  <course>209.28</course>
  <speed>2.0902152999152985</speed>
  <fix>3d</fix>
</trkpt>
<trkpt lat="40.0724494" lon="-105.2283279">
  <ele>1583.0</ele>
  <time>2026-08-28T17:52:45Z</time>
  <course>208.62</course>
  <speed>2.38</speed>
  <fix>3d</fix>
</trkpt>
<trkpt lat="40.0724438" lon="-105.228332">
  <ele>1583.01</ele>
  <time>2026-08-28T17:52:45Z</time>
  <course>209.31</course>
  <speed>1.9872594194015034</speed>
  <fix>3d</fix>
</trkpt>
<trkpt lat="40.0724458" lon="-105.2283305">
  <ele>1583.0</ele>
  <time>2026-08-28T17:52:45Z</time>
  <course>208.68</course>
  <speed>2.16</speed>
  <fix>3d</fix>
</trkpt>
<trkpt lat="40.0724423" lon="-105.2283331">
  <ele>1583.01</ele>
  <time>2026-08-28T17:52:45Z</time>
  <course>209.34</course>
  <speed>1.8843035848822236</speed>
  <fix>3d</fix>
</trkpt>
<trkpt lat="40.0724458" lon="-105.2283305">
  <ele>1583.0</ele>
  <time>2026-08-28T17:52:45Z</time>
  <course>208.68</course>
  <speed>2.16</speed>
  <fix>3d</fix>
</trkpt>
<trkpt lat="40.0724408" lon="-105.2283342">
  <ele>1583.01</ele>
  <time>2026-08-28T17:52:45Z</time>
  <course>209.37</course>
  <speed>1.7813478043324387</speed>
  <fix>3d</fix>
</trkpt>
<trkpt lat="40.0724426" lon="-105.2283329">
  <ele>1583.0</ele>
  <time>2026-08-28T17:52:45Z</time>
  <course>208.74</course>
  <speed>1.95</speed>
  <fix>3d</fix>
</trkpt>
<trkpt lat="40.0724394" lon="-105.2283352">
  <ele>1583.01</ele>
  <time>2026-08-28T17:52:45Z</time>
  <course>209.42</course>
  <speed>1.6783920876839238</speed>
  <fix>3d</fix>
</trkpt>
<trkpt lat="40.0724426" lon="-105.2283329">
  <ele>1583.0</ele>
  <time>2026-08-28T17:52:45Z</time>
  <course>208.74</course>
  <speed>1.95</speed>
  <fix>3d</fix>
</trkpt>
<trkpt lat="40.0724381" lon="-105.2283361">
  <ele>1583.01</ele>
  <time>2026-08-28T17:52:45Z</time>
  <course>209.47</course>
  <speed>1.5754364474646383</speed>
  <fix>3d</fix>
</trkpt>
<trkpt lat="40.0724397" lon="-105.2283349">
  <ele>1583.0</ele>
  <time>2026-08-28T17:52:45Z</time>
  <course>208.81</course>
  <speed>1.75</speed>
  <fix>3d</fix>
</trkpt>
<trkpt lat="40.0724369" lon="-105.228337">
  <ele>1583.01</ele>
  <time>2026-08-28T17:52:45Z</time>
  <course>209.52</course>
  <speed>1.4773286702694157</speed>
  <fix>3d</fix>
</trkpt>
<trkpt lat="40.0724397" lon="-105.2283349">
  <ele>1583.0</ele>
  <time>2026-08-28T17:52:45Z</time>
  <course>208.81</course>
  <speed>1.75</speed>
  <fix>3d</fix>
</trkpt>
<trkpt lat="40.0724357" lon="-105.2283378">
  <ele>1583.01</ele>
  <time>2026-08-28T17:52:45Z</time>
  <course>209.57</course>
  <speed>1.3743725841270262</speed>
  <fix>3d</fix>
</trkpt>
<trkpt lat="40.0724397" lon="-105.2283349">
  <ele>1583.0</ele>
  <time>2026-08-28T17:52:45Z</time>
  <course>208.81</course>
  <speed>1.75</speed>
  <fix>3d</fix>
</trkpt>
<trkpt lat="40.0724347" lon="-105.2283386">
  <ele>1583.01</ele>
  <time>2026-08-28T17:52:45Z</time>
  <course>209.63</course>
  <speed>1.271416532848303</speed>
  <fix>3d</fix>
</trkpt>
<trkpt lat="40.0724371" lon="-105.2283368">
  <ele>1583.0</ele>
  <time>2026-08-28T17:52:45Z</time>
  <course>208.9</course>
  <speed>1.54</speed>
  <fix>3d</fix>
</trkpt>
<trkpt lat="40.0724337" lon="-105.2283393">
  <ele>1583.01</ele>
  <time>2026-08-28T17:52:45Z</time>
  <course>209.69</course>
  <speed>1.1820744477400735</speed>
  <fix>3d</fix>
</trkpt>
<trkpt lat="40.0724371" lon="-105.2283368">
  <ele>1583.0</ele>
  <time>2026-08-28T17:52:45Z</time>
  <course>208.9</course>
  <speed>1.54</speed>
  <fix>3d</fix>
</trkpt>
<trkpt lat="40.0724328" lon="-105.22834">
  <ele>1583.01</ele>
  <time>2026-08-28T17:52:45Z</time>
  <course>209.76</course>
  <speed>1.0791200118615167</speed>
  <fix>3d</fix>
</trkpt>
<trkpt lat="40.0724347" lon="-105.2283385">
  <ele>1583.0</ele>
  <time>2026-08-28T17:52:45Z</time>
  <course>209.0</course>
  <speed>1.35</speed>
  <fix>3d</fix>
</trkpt>
<trkpt lat="40.072432" lon="-105.2283406">
  <ele>1583.01</ele>
  <time>2026-08-28T17:52:45Z</time>
  <course>209.84</course>
  <speed>0.9897979591815695</speed>
  <fix>3d</fix>
</trkpt>
<trkpt lat="40.0724347" lon="-105.2283385">
  <ele>1583.0</ele>
  <time>2026-08-28T17:52:45Z</time>
  <course>209.0</course>
  <speed>1.35</speed>
  <fix>3d</fix>
</trkpt>
<trkpt lat="40.0724312" lon="-105.2283411">
  <ele>1583.01</ele>
  <time>2026-08-28T17:52:45Z</time>
  <course>209.93</course>
  <speed>0.8868483523128404</speed>
  <fix>3d</fix>
</trkpt>
<trkpt lat="40.0724328" lon="-105.2283399">
  <ele>1583.0</ele>
  <time>2026-08-28T17:52:45Z</time>
  <course>209.14</course>
  <speed>1.15</speed>
  <fix>3d</fix>
</trkpt>
<trkpt lat="40.0724305" lon="-105.2283416">
  <ele>1583.01</ele>
  <time>2026-08-28T17:52:45Z</time>
  <course>210.03</course>
  <speed>0.7925906888173744</speed>
  <fix>3d</fix>
</trkpt>
<trkpt lat="40.0724311" lon="-105.2283411">
  <ele>1583.0</ele>
  <time>2026-08-28T17:52:45Z</time>
  <course>209.3</course>
  <speed>0.96</speed>
  <fix>3d</fix>
</trkpt>
<trkpt lat="40.0724299" lon="-105.2283421">
  <ele>1583.01</ele>
  <time>2026-08-28T17:52:45Z</time>
  <course>210.12</course>
  <speed>0.6946221994724903</speed>
  <fix>3d</fix>
</trkpt>
<trkpt lat="40.0724311" lon="-105.2283411">
  <ele>1583.0</ele>
  <time>2026-08-28T17:52:45Z</time>
  <course>209.3</course>
  <speed>0.96</speed>
  <fix>3d</fix>
</trkpt>
<trkpt lat="40.0724294" lon="-105.2283425">
  <ele>1583.01</ele>
  <time>2026-08-28T17:52:45Z</time>
  <course>210.22</course>
  <speed>0.6003332407921453</speed>
  <fix>3d</fix>
</trkpt>
<trkpt lat="40.0724297" lon="-105.2283421">
  <ele>1583.0</ele>
  <time>2026-08-28T17:52:45Z</time>
  <course>209.48</course>
  <speed>0.77</speed>
  <fix>3d</fix>
</trkpt>
<trkpt lat="40.0724289" lon="-105.2283428">
  <ele>1583.01</ele>
  <time>2026-08-28T17:52:45Z</time>
  <course>210.15</course>
  <speed>0.5110772935672255</speed>
  <fix>3d</fix>
</trkpt>
<trkpt lat="40.0724297" lon="-105.2283421">
  <ele>1583.0</ele>
  <time>2026-08-28T17:52:45Z</time>
  <course>209.48</course>
  <speed>0.77</speed>
  <fix>3d</fix>
</trkpt>
<trkpt lat="40.0724285" lon="-105.2283431">
  <ele>1583.01</ele>
  <time>2026-08-28T17:52:45Z</time>
  <course>209.92</course>
  <speed>0.4167733196834941</speed>
  <fix>3d</fix>
</trkpt>
<trkpt lat="40.0724287" lon="-105.2283429">
  <ele>1583.0</ele>
  <time>2026-08-28T17:52:45Z</time>
  <course>209.45</course>
  <speed>0.58</speed>
  <fix>3d</fix>
</trkpt>
<trkpt lat="40.0724282" lon="-105.2283434">
  <ele>1583.01</ele>
  <time>2026-08-28T17:52:45Z</time>
  <course>209.53</course>
  <speed>0.32249030993194194</speed>
  <fix>3d</fix>
</trkpt>
<trkpt lat="40.0724287" lon="-105.2283429">
  <ele>1583.0</ele>
  <time>2026-08-28T17:52:45Z</time>
  <course>209.45</course>
  <speed>0.58</speed>
  <fix>3d</fix>
</trkpt>
<trkpt lat="40.0724279" lon="-105.2283435">
  <ele>1583.01</ele>
  <time>2026-08-28T17:52:45Z</time>
  <course>209.05</course>
  <speed>0.2195449840010015</speed>
  <fix>3d</fix>
</trkpt>
<trkpt lat="40.072428" lon="-105.2283434">
  <ele>1583.0</ele>
  <time>2026-08-28T17:52:45Z</time>
  <course>208.94</course>
  <speed>0.39</speed>
  <fix>3d</fix>
</trkpt>
<trkpt lat="40.0724277" lon="-105.2283437">
  <ele>1583.01</ele>
  <time>2026-08-28T17:52:45Z</time>
  <course>208.56</course>
  <speed>0.130384048104053</speed>
  <fix>3d</fix>
</trkpt>
<trkpt lat="40.072428" lon="-105.2283434">
  <ele>1583.0</ele>
  <time>2026-08-28T17:52:45Z</time>
  <course>208.94</course>
  <speed>0.39</speed>
  <fix>3d</fix>
</trkpt>
<trkpt lat="40.0724277" lon="-105.2283437">
  <ele>1583.01</ele>
  <time>2026-08-28T17:52:45Z</time>
  <course>208.17</course>
  <speed>0.0282842712474619</speed>
  <fix>3d</fix>
</trkpt>
<trkpt lat="40.0724275" lon="-105.2283438">
  <ele>1583.0</ele>
  <time>2026-08-28T17:52:45Z</time>
  <course>208.17</course>
  <speed>0.2</speed>
  <fix>3d</fix>
</trkpt>
<trkpt lat="40.0724276" lon="-105.2283438">
  <ele>1583.01</ele>
  <time>2026-08-28T17:52:45Z</time>
  <course>208.08</course>
  <speed>0.0412310562561766</speed>
  <fix>3d</fix>
</trkpt>
<trkpt lat="40.0724275" lon="-105.2283438">
  <ele>1583.0</ele>
  <time>2026-08-28T17:52:45Z</time>
  <course>208.17</course>
  <speed>0.2</speed>
  <fix>3d</fix>
</trkpt>
<trkpt lat="40.0724277" lon="-105.2283437">
  <ele>1583.01</ele>
  <time>2026-08-28T17:52:45Z</time>
  <course>208.08</course>
  <speed>0.09486832980505139</speed>
  <fix>3d</fix>
</trkpt>
<trkpt lat="40.0724273" lon="-105.2283439">
  <ele>1583.0</ele>
  <time>2026-08-28T17:52:45Z</time>
  <course>207.57</course>
  <speed>0.04</speed>
  <fix>3d</fix>
</trkpt>
<trkpt lat="40.0724277" lon="-105.2283437">
  <ele>1583.0</ele>
  <time>2026-08-28T17:52:45Z</time>
  <course>207.89</course>
  <speed>0.11704699910719625</speed>
  <fix>3d</fix>
</trkpt>
<trkpt lat="40.0724273" lon="-105.2283439">
  <ele>1583.0</ele>
  <time>2026-08-28T17:52:45Z</time>
  <course>207.57</course>
  <speed>0.04</speed>
  <fix>3d</fix>
</trkpt>
<trkpt lat="40.0724278" lon="-105.2283437">
  <ele>1583.0</ele>
  <time>2026-08-28T17:52:45Z</time>
  <course>207.59</course>
  <speed>0.13</speed>
  <fix>3d</fix>
</trkpt>
<trkpt lat="40.0724273" lon="-105.2283439">
  <ele>1583.0</ele>
  <time>2026-08-28T17:52:45Z</time>
  <course>27.04</course>
  <speed>0.04</speed>
  <fix>3d</fix>
</trkpt>
<trkpt lat="40.0724278" lon="-105.2283437">
  <ele>1583.0</ele>
  <time>2026-08-28T17:52:45Z</time>
  <course>207.26</course>
  <speed>0.11704699910719625</speed>
  <fix>3d</fix>
</trkpt>
<trkpt lat="40.0724273" lon="-105.2283439">
  <ele>1583.0</ele>
  <time>2026-08-28T17:52:45Z</time>
  <course>27.04</course>
  <speed>0.04</speed>
  <fix>3d</fix>
</trkpt>
<trkpt lat="40.0724278" lon="-105.2283437">
  <ele>1583.0</ele>
  <time>2026-08-28T17:52:45Z</time>
  <course>207.01</course>
  <speed>0.09219544457292887</speed>
  <fix>3d</fix>
</trkpt>
<trkpt lat="40.0724273" lon="-105.2283439">
  <ele>1583.0</ele>
  <time>2026-08-28T17:52:45Z</time>
  <course>27.04</course>
  <speed>0.04</speed>
  <fix>3d</fix>
</trkpt>
<trkpt lat="40.0724279" lon="-105.2283437">
  <ele>1582.99</ele>
  <time>2026-08-28T17:52:45Z</time>
  <course>206.95</course>
  <speed>0.05</speed>
  <fix>3d</fix>
</trkpt>
<trkpt lat="40.0724274" lon="-105.2283439">
  <ele>1583.0</ele>
  <time>2026-08-28T17:52:45Z</time>
  <course>26.72</course>
  <speed>0.04</speed>
  <fix>3d</fix>
</trkpt>
<trkpt lat="40.0724278" lon="-105.2283437">
  <ele>1582.99</ele>
  <time>2026-08-28T17:52:45Z</time>
  <course>207.19</course>
  <speed>0.01</speed>
  <fix>3d</fix>
</trkpt>
<trkpt lat="40.0724274" lon="-105.2283439">
  <ele>1583.0</ele>
  <time>2026-08-28T17:52:45Z</time>
  <course>26.72</course>
  <speed>0.04</speed>
  <fix>3d</fix>
</trkpt>
<trkpt lat="40.0724278" lon="-105.2283438">
  <ele>1582.99</ele>
  <time>2026-08-28T17:52:45Z</time>
  <course>206.57</course>
  <speed>0.07071067811865475</speed>
  <fix>3d</fix>
</trkpt>
<trkpt lat="40.0724274" lon="-105.2283439">
  <ele>1583.0</ele>
  <time>2026-08-28T17:52:45Z</time>
  <course>206.71</course>
  <speed>0.01</speed>
  <fix>3d</fix>
</trkpt>
<trkpt lat="40.0724276" lon="-105.2283438">
  <ele>1582.99</ele>
  <time>2026-08-28T17:52:45Z</time>
  <course>205.49</course>
  <speed>0.14422205101855956</speed>
  <fix>3d</fix>
</trkpt>
<trkpt lat="40.0724274" lon="-105.2283439">
  <ele>1583.0</ele>
  <time>2026-08-28T17:52:45Z</time>
  <course>206.71</course>
  <speed>0.01</speed>
  <fix>3d</fix>
</trkpt>
<trkpt lat="40.0724275" lon="-105.2283439">
  <ele>1582.99</ele>
  <time>2026-08-28T17:52:45Z</time>
  <course>203.95</course>
  <speed>0.22825424421026652</speed>
  <fix>3d</fix>
</trkpt>
<trkpt lat="40.0724273" lon="-105.2283439">
  <ele>1583.0</ele>
  <time>2026-08-28T17:52:45Z</time>
  <course>205.23</course>
  <speed>0.13</speed>
  <fix>3d</fix>
</trkpt>
<trkpt lat="40.0724272" lon="-105.2283441">
  <ele>1582.99</ele>
  <time>2026-08-28T17:52:45Z</time>
  <course>201.95</course>
  <speed>0.3087069808086626</speed>
  <fix>3d</fix>
</trkpt>
<trkpt lat="40.0724273" lon="-105.2283439">
  <ele>1583.0</ele>
  <time>2026-08-28T17:52:45Z</time>
  <course>205.23</course>
  <speed>0.13</speed>
  <fix>3d</fix>
</trkpt>
<trkpt lat="40.0724269" lon="-105.2283443">
  <ele>1582.99</ele>
  <time>2026-08-28T17:52:45Z</time>
  <course>199.53</course>
  <speed>0.3992492955535426</speed>
  <fix>3d</fix>
</trkpt>
<trkpt lat="40.0724269" lon="-105.2283441">
  <ele>1583.0</ele>
  <time>2026-08-28T17:52:45Z</time>
  <course>202.53</course>
  <speed>0.28</speed>
  <fix>3d</fix>
</trkpt>
<trkpt lat="40.0724264" lon="-105.2283445">
  <ele>1582.99</ele>
  <time>2026-08-28T17:52:45Z</time>
  <course>196.78</course>
  <speed>0.4838388161361178</speed>
  <fix>3d</fix>
</trkpt>
<trkpt lat="40.0724263" lon="-105.2283444">
  <ele>1583.0</ele>
  <time>2026-08-28T17:52:45Z</time>
  <course>198.19</course>
  <speed>0.45</speed>
  <fix>3d</fix>
</trkpt>
<trkpt lat="40.0724259" lon="-105.2283447">
  <ele>1582.98</ele>
  <time>2026-08-28T17:52:45Z</time>
  <course>193.79</course>
  <speed>0.570087712549569</speed>
  <fix>3d</fix>
</trkpt>
<trkpt lat="40.0724263" lon="-105.2283444">
  <ele>1583.0</ele>
  <time>2026-08-28T17:52:45Z</time>
  <course>198.19</course>
  <speed>0.45</speed>
  <fix>3d</fix>
</trkpt>
<trkpt lat="40.0724253" lon="-105.2283448">
  <ele>1582.98</ele>
  <time>2026-08-28T17:52:45Z</time>
  <course>190.69</course>
  <speed>0.6530696746902278</speed>
  <fix>3d</fix>
</trkpt>
<trkpt lat="40.0724254" lon="-105.2283447">
  <ele>1583.0</ele>
  <time>2026-08-28T17:52:45Z</time>
  <course>192.62</course>
  <speed>0.61</speed>
  <fix>3d</fix>
</trkpt>
<trkpt lat="40.0724246" lon="-105.228345">
  <ele>1582.98</ele>
  <time>2026-08-28T17:52:45Z</time>
  <course>187.5</course>
  <speed>0.7368174807915459</speed>
  <fix>3d</fix>
</trkpt>
<trkpt lat="40.0724254" lon="-105.2283447">
  <ele>1583.0</ele>
  <time>2026-08-28T17:52:45Z</time>
  <course>192.62</course>
  <speed>0.61</speed>
  <fix>3d</fix>
</trkpt>
<trkpt lat="40.0724238" lon="-105.2283451">
  <ele>1582.98</ele>
  <time>2026-08-28T17:52:45Z</time>
  <course>184.37</course>
  <speed>0.8130190649671138</speed>
  <fix>3d</fix>
</trkpt>
<trkpt lat="40.0724242" lon="-105.228345">
  <ele>1583.0</ele>
  <time>2026-08-28T17:52:45Z</time>
  <course>186.49</course>
  <speed>0.77</speed>
  <fix>3d</fix>
</trkpt>
<trkpt lat="40.072423" lon="-105.2283452">
  <ele>1582.98</ele>
  <time>2026-08-28T17:52:45Z</time>
  <course>181.38</course>
  <speed>0.8902246907382428</speed>
  <fix>3d</fix>
</trkpt>
<trkpt lat="40.0724242" lon="-105.228345">
  <ele>1583.0</ele>
  <time>2026-08-28T17:52:45Z</time>
  <course>186.49</course>
  <speed>0.77</speed>
  <fix>3d</fix>
</trkpt>
<trkpt lat="40.0724221" lon="-105.2283452">
  <ele>1582.98</ele>
  <time>2026-08-28T17:52:45Z</time>
  <course>178.62</course>
  <speed>0.970051545022222</speed>
  <fix>3d</fix>
</trkpt>
<trkpt lat="40.0724226" lon="-105.2283451">
  <ele>1583.0</ele>
  <time>2026-08-28T17:52:45Z</time>
  <course>180.57</course>
  <speed>0.93</speed>
  <fix>3d</fix>
</trkpt>
<trkpt lat="40.0724211" lon="-105.2283451">
  <ele>1582.98</ele>
  <time>2026-08-28T17:52:45Z</time>
  <course>176.26</course>
  <speed>1.0417293314484335</speed>
  <fix>3d</fix>
</trkpt>
<trkpt lat="40.0724226" lon="-105.2283451">
  <ele>1583.0</ele>
  <time>2026-08-28T17:52:45Z</time>
  <course>180.57</course>
  <speed>0.93</speed>
  <fix>3d</fix>
</trkpt>
<trkpt lat="40.0724201" lon="-105.228345">
  <ele>1582.97</ele>
  <time>2026-08-28T17:52:45Z</time>
  <course>174.34</course>
  <speed>1.114495401515861</speed>
  <fix>3d</fix>
</trkpt>
<trkpt lat="40.0724208" lon="-105.228345">
  <ele>1583.0</ele>
  <time>2026-08-28T17:52:45Z</time>
  <course>175.66</course>
  <speed>1.07</speed>
  <fix>3d</fix>
</trkpt>
<trkpt lat="40.072419" lon="-105.2283448">
  <ele>1582.97</ele>
  <time>2026-08-28T17:52:45Z</time>
  <course>172.75</course>
  <speed>1.1783462988442743</speed>
  <fix>3d</fix>
</trkpt>
<trkpt lat="40.0724208" lon="-105.228345">
  <ele>1583.0</ele>
  <time>2026-08-28T17:52:45Z</time>
  <course>175.66</course>
  <speed>1.07</speed>
  <fix>3d</fix>
</trkpt>
<trkpt lat="40.0724178" lon="-105.2283446">
  <ele>1582.97</ele>
  <time>2026-08-28T17:52:45Z</time>
  <course>171.45</course>
  <speed>1.2529964086141667</speed>
  <fix>3d</fix>
</trkpt>
<trkpt lat="40.0724187" lon="-105.2283448">
  <ele>1583.0</ele>
  <time>2026-08-28T17:52:45Z</time>
  <course>172.15</course>
  <speed>1.21</speed>
  <fix>3d</fix>
</trkpt>
<trkpt lat="40.0724166" lon="-105.2283444">
  <ele>1582.97</ele>
  <time>2026-08-28T17:52:45Z</time>
  <course>170.36</course>
  <speed>1.3267252918370103</speed>
  <fix>3d</fix>
</trkpt>
<trkpt lat="40.0724187" lon="-105.2283448">
  <ele>1583.0</ele>
  <time>2026-08-28T17:52:45Z</time>
  <course>172.15</course>
  <speed>1.21</speed>
  <fix>3d</fix>
</trkpt>
<trkpt lat="40.0724153" lon="-105.2283441">
  <ele>1582.98</ele>
  <time>2026-08-28T17:52:45Z</time>
  <course>169.47</course>
  <speed>1.3926234236145822</speed>
  <fix>3d</fix>
</trkpt>
<trkpt lat="40.0724165" lon="-105.2283444">
  <ele>1583.0</ele>
  <time>2026-08-28T17:52:45Z</time>
  <course>169.75</course>
  <speed>1.34</speed>
  <fix>3d</fix>
</trkpt>
<trkpt lat="40.072414" lon="-105.2283438">
  <ele>1582.98</ele>
  <time>2026-08-28T17:52:45Z</time>
  <course>168.72</course>
  <speed>1.46696966567138</speed>
  <fix>3d</fix>
</trkpt>
<trkpt lat="40.0724165" lon="-105.2283444">
  <ele>1583.0</ele>
  <time>2026-08-28T17:52:45Z</time>
  <course>169.75</course>
  <speed>1.34</speed>
  <fix>3d</fix>
</trkpt>
<trkpt lat="40.0724126" lon="-105.2283434">
  <ele>1582.98</ele>
  <time>2026-08-28T17:52:45Z</time>
  <course>168.1</course>
  <speed>1.5414927829866736</speed>
  <fix>3d</fix>
</trkpt>
<trkpt lat="40.0724165" lon="-105.2283444">
  <ele>1583.0</ele>
  <time>2026-08-28T17:52:45Z</time>
  <course>169.75</course>
  <speed>1.34</speed>
  <fix>3d</fix>
</trkpt>
<trkpt lat="40.0724112" lon="-105.228343">
  <ele>1582.99</ele>
  <time>2026-08-28T17:52:45Z</time>
  <course>167.58</course>
  <speed>1.6063934760823702</speed>
  <fix>3d</fix>
</trkpt>
<trkpt lat="40.072414" lon="-105.2283437">
  <ele>1583.0</ele>
  <time>2026-08-28T17:52:45Z</time>
  <course>168.1</course>
  <speed>1.48</speed>
  <fix>3d</fix>
</trkpt>
<trkpt lat="40.0724097" lon="-105.2283426">
  <ele>1582.99</ele>
  <time>2026-08-28T17:52:45Z</time>
  <course>167.14</course>
  <speed>1.6790473489452284</speed>
  <fix>3d</fix>
</trkpt>
<trkpt lat="40.072414" lon="-105.2283437">
  <ele>1583.0</ele>
  <time>2026-08-28T17:52:45Z</time>
  <course>168.1</course>
  <speed>1.48</speed>
  <fix>3d</fix>
</trkpt>
<trkpt lat="40.0724082" lon="-105.2283421">
  <ele>1582.99</ele>
  <time>2026-08-28T17:52:45Z</time>
  <course>166.78</course>
  <speed>1.7539099178692161</speed>
  <fix>3d</fix>
</trkpt>
<trkpt lat="40.0724113" lon="-105.2283429">
  <ele>1583.0</ele>
  <time>2026-08-28T17:52:45Z</time>
  <course>166.96</course>
  <speed>1.62</speed>
  <fix>3d</fix>
</trkpt>
<trkpt lat="40.0724066" lon="-105.2283416">
  <ele>1583.0</ele>
  <time>2026-08-28T17:52:45Z</time>
  <course>166.47</course>
  <speed>1.8386136081297777</speed>
  <fix>3d</fix>
</trkpt>
<trkpt lat="40.0724113" lon="-105.2283429">
  <ele>1583.0</ele>
  <time>2026-08-28T17:52:45Z</time>
  <course>166.96</course>
  <speed>1.62</speed>
  <fix>3d</fix>
</trkpt>
<trkpt lat="40.0724049" lon="-105.2283411">
  <ele>1583.0</ele>
  <time>2026-08-28T17:52:45Z</time>
  <course>166.22</course>
  <speed>1.911334612253961</speed>
  <fix>3d</fix>
</trkpt>
<trkpt lat="40.0724083" lon="-105.228342">
  <ele>1583.0</ele>
  <time>2026-08-28T17:52:45Z</time>
  <course>166.16</course>
  <speed>1.77</speed>
  <fix>3d</fix>
</trkpt>
<trkpt lat="40.0724032" lon="-105.2283405">
  <ele>1583.0</ele>
  <time>2026-08-28T17:52:45Z</time>
  <course>166.01</course>
  <speed>1.996121238802894</speed>
  <fix>3d</fix>
</trkpt>
<trkpt lat="40.0724051" lon="-105.2283409">
  <ele>1583.0</ele>
  <time>2026-08-28T17:52:45Z</time>
  <course>165.6</course>
  <speed>1.92</speed>
  <fix>3d</fix>
</trkpt>
<trkpt lat="40.0724013" lon="-105.2283399">
  <ele>1583.0</ele>
  <time>2026-08-28T17:52:45Z</time>
  <course>165.83</course>
  <speed>2.0809613163151304</speed>
  <fix>3d</fix>
</trkpt>
<trkpt lat="40.0724051" lon="-105.2283409">
  <ele>1583.0</ele>
  <time>2026-08-28T17:52:45Z</time>
  <course>165.6</course>
  <speed>1.92</speed>
  <fix>3d</fix>
</trkpt>
<trkpt lat="40.0723995" lon="-105.2283392">
  <ele>1583.0</ele>
  <time>2026-08-28T17:52:45Z</time>
  <course>165.68</course>
  <speed>2.1634232133357543</speed>
  <fix>3d</fix>
</trkpt>
<trkpt lat="40.0724016" lon="-105.2283397">
  <ele>1583.0</ele>
  <time>2026-08-28T17:52:45Z</time>
  <course>165.22</course>
  <speed>2.09</speed>
  <fix>3d</fix>
</trkpt>
<trkpt lat="40.0723975" lon="-105.2283386">
  <ele>1583.0</ele>
  <time>2026-08-28T17:52:45Z</time>
  <course>165.56</course>
  <speed>2.2580079716422614</speed>
  <fix>3d</fix>
</trkpt>
<trkpt lat="40.0724016" lon="-105.2283397">
  <ele>1583.0</ele>
  <time>2026-08-28T17:52:45Z</time>
  <course>165.22</course>
  <speed>2.09</speed>
  <fix>3d</fix>
</trkpt>
<trkpt lat="40.0723955" lon="-105.2283379">
  <ele>1583.0</ele>
  <time>2026-08-28T17:52:45Z</time>
  <course>165.46</course>
  <speed>2.3429255216502294</speed>
  <fix>3d</fix>
</trkpt>
<trkpt lat="40.0723978" lon="-105.2283384">
  <ele>1583.0</ele>
  <time>2026-08-28T17:52:45Z</time>
  <course>164.97</course>
  <speed>2.26</speed>
  <fix>3d</fix>
</trkpt>
<trkpt lat="40.0723933" lon="-105.2283371">
  <ele>1583.0</ele>
  <time>2026-08-28T17:52:45Z</time>
  <course>165.39</course>
  <speed>2.435077000835908</speed>
  <fix>3d</fix>
</trkpt>
<trkpt lat="40.0723978" lon="-105.2283384">
  <ele>1583.0</ele>
  <time>2026-08-28T17:52:45Z</time>
  <course>164.97</course>
  <speed>2.26</speed>
  <fix>3d</fix>
</trkpt>
<trkpt lat="40.0723911" lon="-105.2283363">
  <ele>1583.0</ele>
  <time>2026-08-28T17:52:45Z</time>
  <course>165.34</course>
  <speed>2.5297035399429713</speed>
  <fix>3d</fix>
</trkpt>
<trkpt lat="40.0723937" lon="-105.228337">
  <ele>1583.0</ele>
  <time>2026-08-28T17:52:45Z</time>
  <course>164.81</course>
  <speed>2.44</speed>
  <fix>3d</fix>
</trkpt>
<trkpt lat="40.0723888" lon="-105.2283355">
  <ele>1583.0</ele>
  <time>2026-08-28T17:52:45Z</time>
  <course>165.29</course>
  <speed>2.6340273347101015</speed>
  <fix>3d</fix>
</trkpt>
<trkpt lat="40.0723937" lon="-105.228337">
  <ele>1583.0</ele>
  <time>2026-08-28T17:52:45Z</time>
  <course>164.81</course>
  <speed>2.44</speed>
  <fix>3d</fix>
</trkpt>
<trkpt lat="40.0723864" lon="-105.2283347">
  <ele>1583.0</ele>
  <time>2026-08-28T17:52:45Z</time>
  <course>165.25</course>
  <speed>2.726169473822198</speed>
  <fix>3d</fix>
</trkpt>
<trkpt lat="40.0723893" lon="-105.2283354">
  <ele>1583.0</ele>
  <time>2026-08-28T17:52:45Z</time>
  <course>164.72</course>
  <speed>2.62</speed>
  <fix>3d</fix>
</trkpt>
<trkpt lat="40.072384" lon="-105.2283338">
  <ele>1583.0</ele>
  <time>2026-08-28T17:52:45Z</time>
  <course>165.25</course>
  <speed>2.830494656416083</speed>
  <fix>3d</fix>
</trkpt>
<trkpt lat="40.0723893" lon="-105.2283354">
  <ele>1583.0</ele>
  <time>2026-08-28T17:52:45Z</time>
  <course>164.72</course>
  <speed>2.62</speed>
  <fix>3d</fix>
</trkpt>
<trkpt lat="40.0723815" lon="-105.2283329">
  <ele>1583.0</ele>
  <time>2026-08-28T17:52:45Z</time>
  <course>165.24</course>
  <speed>2.9226357966739545</speed>
  <fix>3d</fix>
</trkpt>
<trkpt lat="40.0723846" lon="-105.2283338">
  <ele>1583.0</ele>
  <time>2026-08-28T17:52:45Z</time>
  <course>164.68</course>
  <speed>2.81</speed>
  <fix>3d</fix>
</trkpt>
<trkpt lat="40.0723788" lon="-105.228332">
  <ele>1583.0</ele>
  <time>2026-08-28T17:52:45Z</time>
  <course>165.23</course>
  <speed>3.0269621735330623</speed>
  <fix>3d</fix>
</trkpt>
<trkpt lat="40.0723846" lon="-105.2283338">
  <ele>1583.0</ele>
  <time>2026-08-28T17:52:45Z</time>
  <course>164.68</course>
  <speed>2.81</speed>
  <fix>3d</fix>
</trkpt>
<trkpt lat="40.0723761" lon="-105.228331">
  <ele>1583.0</ele>
  <time>2026-08-28T17:52:45Z</time>
  <course>165.23</course>
  <speed>3.1312936623702354</speed>
  <fix>3d</fix>
</trkpt>
<trkpt lat="40.0723796" lon="-105.2283319">
  <ele>1583.0</ele>
  <time>2026-08-28T17:52:45Z</time>
  <course>164.68</course>
  <speed>3.01</speed>
  <fix>3d</fix>
</trkpt>
<trkpt lat="40.0723733" lon="-105.22833">
  <ele>1583.0</ele>
  <time>2026-08-28T17:52:45Z</time>
  <course>165.22</course>
  <speed>3.2234298503302345</speed>
  <fix>3d</fix>
</trkpt>
<trkpt lat="40.0723796" lon="-105.2283319">
  <ele>1583.0</ele>
  <time>2026-08-28T17:52:45Z</time>
  <course>164.68</course>
  <speed>3.01</speed>
  <fix>3d</fix>
</trkpt>
<trkpt lat="40.0723704" lon="-105.228329">
  <ele>1583.0</ele>
  <time>2026-08-28T17:52:45Z</time>
  <course>165.22</course>
  <speed>3.3277620107213197</speed>
  <fix>3d</fix>
</trkpt>
<trkpt lat="40.0723796" lon="-105.2283319">
  <ele>1583.0</ele>
  <time>2026-08-28T17:52:45Z</time>
  <course>164.68</course>
  <speed>3.01</speed>
  <fix>3d</fix>
</trkpt>
<trkpt lat="40.0723675" lon="-105.228328">
  <ele>1583.0</ele>
  <time>2026-08-28T17:52:45Z</time>
  <course>165.21</course>
  <speed>3.432098483435462</speed>
  <fix>3d</fix>
</trkpt>
<trkpt lat="40.0723742" lon="-105.22833">
  <ele>1583.0</ele>
  <time>2026-08-28T17:52:45Z</time>
  <course>164.68</course>
  <speed>3.21</speed>
  <fix>3d</fix>
</trkpt>
<trkpt lat="40.0723645" lon="-105.2283269">
  <ele>1583.0</ele>
  <time>2026-08-28T17:52:45Z</time>
  <course>165.21</course>
  <speed>3.533907186104355</speed>
  <fix>3d</fix>
</trkpt>
<trkpt lat="40.0723742" lon="-105.22833">
  <ele>1583.0</ele>
  <time>2026-08-28T17:52:45Z</time>
  <course>164.68</course>
  <speed>3.21</speed>
  <fix>3d</fix>
</trkpt>
<trkpt lat="40.0723614" lon="-105.2283258">
  <ele>1583.0</ele>
  <time>2026-08-28T17:52:45Z</time>
  <course>165.21</course>
  <speed>3.628567210346255</speed>
  <fix>3d</fix>
</trkpt>
<trkpt lat="40.0723684" lon="-105.2283279">
  <ele>1583.0</ele>
  <time>2026-08-28T17:52:45Z</time>
  <course>164.68</course>
  <speed>3.41</speed>
  <fix>3d</fix>
</trkpt>
<trkpt lat="40.0723582" lon="-105.2283247">
  <ele>1583.0</ele>
  <time>2026-08-28T17:52:45Z</time>
  <course>165.21</course>
  <speed>3.732907713833815</speed>
  <fix>3d</fix>
</trkpt>
<trkpt lat="40.0723684" lon="-105.2283279">
  <ele>1583.0</ele>
  <time>2026-08-28T17:52:45Z</time>
  <course>164.68</course>
  <speed>3.41</speed>
  <fix>3d</fix>
</trkpt>
<trkpt lat="40.0723549" lon="-105.2283235">
  <ele>1583.0</ele>
  <time>2026-08-28T17:52:45Z</time>
  <course>165.2</course>
  <speed>3.834709897762802</speed>
  <fix>3d</fix>
</trkpt>
<trkpt lat="40.0723623" lon="-105.2283257">
  <ele>1583.0</ele>
  <time>2026-08-28T17:52:45Z</time>
  <course>164.68</course>
  <speed>3.61</speed>
  <fix>3d</fix>
</trkpt>
<trkpt lat="40.0723516" lon="-105.2283223">
  <ele>1583.01</ele>
  <time>2026-08-28T17:52:45Z</time>
  <course>165.21</course>
  <speed>3.9390481083632376</speed>
  <fix>3d</fix>
</trkpt>
<trkpt lat="40.0723559" lon="-105.2283235">
  <ele>1583.0</ele>
  <time>2026-08-28T17:52:45Z</time>
  <course>164.69</course>
  <speed>3.82</speed>
  <fix>3d</fix>
</trkpt>
<trkpt lat="40.0723481" lon="-105.228321">
  <ele>1583.01</ele>
  <time>2026-08-28T17:52:45Z</time>
  <course>165.23</course>
  <speed>4.043389667098634</speed>
  <fix>3d</fix>
</trkpt>
<trkpt lat="40.0723559" lon="-105.2283235">
  <ele>1583.0</ele>
  <time>2026-08-28T17:52:45Z</time>
  <course>164.69</course>
  <speed>3.82</speed>
  <fix>3d</fix>
</trkpt>
<trkpt lat="40.0723445" lon="-105.2283198">
  <ele>1583.01</ele>
  <time>2026-08-28T17:52:45Z</time>
  <course>165.25</course>
  <speed>4.145189983583382</speed>
  <fix>3d</fix>
</trkpt>
<trkpt lat="40.072349" lon="-105.228321">
  <ele>1583.0</ele>
  <time>2026-08-28T17:52:45Z</time>
  <course>164.72</course>
  <speed>4.02</speed>
  <fix>3d</fix>
</trkpt>
<trkpt lat="40.0723408" lon="-105.2283185">
  <ele>1583.01</ele>
  <time>2026-08-28T17:52:45Z</time>
  <course>165.28</course>
  <speed>4.249529385708493</speed>
  <fix>3d</fix>
</trkpt>
<trkpt lat="40.072349" lon="-105.228321">
  <ele>1583.0</ele>
  <time>2026-08-28T17:52:45Z</time>
  <course>164.72</course>
  <speed>4.02</speed>
  <fix>3d</fix>
</trkpt>
<trkpt lat="40.0723371" lon="-105.2283171">
  <ele>1583.01</ele>
  <time>2026-08-28T17:52:45Z</time>
  <course>165.3</course>
  <speed>4.351333129053669</speed>
  <fix>3d</fix>
</trkpt>
<trkpt lat="40.0723419" lon="-105.2283185">
  <ele>1583.0</ele>
  <time>2026-08-28T17:52:45Z</time>
  <course>164.78</course>
  <speed>4.23</speed>
  <fix>3d</fix>
</trkpt>
<trkpt lat="40.0723332" lon="-105.2283158">
  <ele>1583.02</ele>
  <time>2026-08-28T17:52:45Z</time>
  <course>165.33</course>
  <speed>4.455670544373764</speed>
  <fix>3d</fix>
</trkpt>
<trkpt lat="40.0723419" lon="-105.2283185">
  <ele>1583.0</ele>
  <time>2026-08-28T17:52:45Z</time>
  <course>164.78</course>
  <speed>4.23</speed>
  <fix>3d</fix>
</trkpt>
<trkpt lat="40.0723293" lon="-105.2283144">
  <ele>1583.02</ele>
  <time>2026-08-28T17:52:45Z</time>
  <course>165.36</course>
  <speed>4.557477372406801</speed>
  <fix>3d</fix>
</trkpt>
<trkpt lat="40.0723344" lon="-105.2283158">
  <ele>1583.0</ele>
  <time>2026-08-28T17:52:45Z</time>
  <course>164.84</course>
  <speed>4.43</speed>
  <fix>3d</fix>
</trkpt>
<trkpt lat="40.0723253" lon="-105.2283129">
  <ele>1583.02</ele>
  <time>2026-08-28T17:52:45Z</time>
  <course>165.38</course>
  <speed>4.661812952060604</speed>
  <fix>3d</fix>
</trkpt>
<trkpt lat="40.0723344" lon="-105.2283158">
  <ele>1583.0</ele>
  <time>2026-08-28T17:52:45Z</time>
  <course>164.84</course>
  <speed>4.43</speed>
  <fix>3d</fix>
</trkpt>
<trkpt lat="40.0723211" lon="-105.2283115">
  <ele>1583.02</ele>
  <time>2026-08-28T17:52:45Z</time>
  <course>165.39</course>
  <speed>4.763622571111192</speed>
  <fix>3d</fix>
</trkpt>
<trkpt lat="40.0723265" lon="-105.2283131">
  <ele>1583.0</ele>
  <time>2026-08-28T17:52:45Z</time>
  <course>164.9</course>
  <speed>4.63</speed>
  <fix>3d</fix>
</trkpt>
<trkpt lat="40.0723169" lon="-105.22831">
  <ele>1583.02</ele>
  <time>2026-08-28T17:52:45Z</time>
  <course>165.41</course>
  <speed>4.855759466859947</speed>
  <fix>3d</fix>
</trkpt>
<trkpt lat="40.0723265" lon="-105.2283131">
  <ele>1583.0</ele>
  <time>2026-08-28T17:52:45Z</time>
  <course>164.9</course>
  <speed>4.63</speed>
  <fix>3d</fix>
</trkpt>
<trkpt lat="40.0723126" lon="-105.2283085">
  <ele>1583.02</ele>
  <time>2026-08-28T17:52:45Z</time>
  <course>165.43</course>
  <speed>4.938218302181466</speed>
  <fix>3d</fix>
</trkpt>
<trkpt lat="40.0723184" lon="-105.2283102">
  <ele>1583.0</ele>
  <time>2026-08-28T17:52:45Z</time>
  <course>164.94</course>
  <speed>4.82</speed>
  <fix>3d</fix>
</trkpt>
<trkpt lat="40.0723083" lon="-105.228307">
  <ele>1583.02</ele>
  <time>2026-08-28T17:52:45Z</time>
  <course>165.44</course>
  <speed>5.01099790460942</speed>
  <fix>3d</fix>
</trkpt>
<trkpt lat="40.0723184" lon="-105.2283102">
  <ele>1583.0</ele>
  <time>2026-08-28T17:52:45Z</time>
  <course>164.94</course>
  <speed>4.82</speed>
  <fix>3d</fix>
</trkpt>
<trkpt lat="40.0723039" lon="-105.2283055">
  <ele>1583.02</ele>
  <time>2026-08-28T17:52:45Z</time>
  <course>165.46</course>
  <speed>5.083778122617075</speed>
  <fix>3d</fix>
</trkpt>
<trkpt lat="40.0723098" lon="-105.2283071">
  <ele>1583.0</ele>
  <time>2026-08-28T17:52:45Z</time>
  <course>164.98</course>
  <speed>4.97</speed>
  <fix>3d</fix>
</trkpt>
<trkpt lat="40.0722994" lon="-105.2283039">
  <ele>1583.02</ele>
  <time>2026-08-28T17:52:45Z</time>
  <course>165.49</course>
  <speed>5.134685968976097</speed>
  <fix>3d</fix>
</trkpt>
<trkpt lat="40.0723098" lon="-105.2283071">
  <ele>1583.0</ele>
  <time>2026-08-28T17:52:45Z</time>
  <course>164.98</course>
  <speed>4.97</speed>
  <fix>3d</fix>
</trkpt>
<trkpt lat="40.0722949" lon="-105.2283023">
  <ele>1583.01</ele>
  <time>2026-08-28T17:52:45Z</time>
  <course>165.51</course>
  <speed>5.185595433506165</speed>
  <fix>3d</fix>
</trkpt>
<trkpt lat="40.0723098" lon="-105.2283071">
  <ele>1583.0</ele>
  <time>2026-08-28T17:52:45Z</time>
  <course>164.98</course>
  <speed>4.97</speed>
  <fix>3d</fix>
</trkpt>
<trkpt lat="40.0722904" lon="-105.2283008">
  <ele>1583.01</ele>
  <time>2026-08-28T17:52:45Z</time>
  <course>165.52</course>
  <speed>5.217144813017941</speed>
  <fix>3d</fix>
</trkpt>
<trkpt lat="40.0723011" lon="-105.2283041">
  <ele>1583.0</ele>
  <time>2026-08-28T17:52:45Z</time>
  <course>165.02</course>
  <speed>5.1</speed>
  <fix>3d</fix>
</trkpt>
<trkpt lat="40.0722859" lon="-105.2282992">
  <ele>1583.01</ele>
  <time>2026-08-28T17:52:45Z</time>
  <course>165.56</course>
  <speed>5.236506469011569</speed>
  <fix>3d</fix>
</trkpt>
<trkpt lat="40.0723011" lon="-105.2283041">
  <ele>1583.0</ele>
  <time>2026-08-28T17:52:45Z</time>
  <course>165.02</course>
  <speed>5.1</speed>
  <fix>3d</fix>
</trkpt>
<trkpt lat="40.0722814" lon="-105.2282976">
  <ele>1583.01</ele>
  <time>2026-08-28T17:52:45Z</time>
  <course>165.6</course>
  <speed>5.246189093046495</speed>
  <fix>3d</fix>
</trkpt>
<trkpt lat="40.0722921" lon="-105.228301">
  <ele>1583.0</ele>
  <time>2026-08-28T17:52:45Z</time>
  <course>165.08</course>
  <speed>5.17</speed>
  <fix>3d</fix>
</trkpt>
<trkpt lat="40.0722769" lon="-105.2282961">
  <ele>1583.02</ele>
  <time>2026-08-28T17:52:45Z</time>
  <course>165.62</course>
  <speed>5.246189093046495</speed>
  <fix>3d</fix>
</trkpt>
<trkpt lat="40.0722921" lon="-105.228301">
  <ele>1583.0</ele>
  <time>2026-08-28T17:52:45Z</time>
  <course>165.08</course>
  <speed>5.17</speed>
  <fix>3d</fix>
</trkpt>
<trkpt lat="40.0722724" lon="-105.2282945">
  <ele>1583.02</ele>
  <time>2026-08-28T17:52:45Z</time>
  <course>165.66</course>
  <speed>5.236506469011569</speed>
  <fix>3d</fix>
</trkpt>
<trkpt lat="40.0722831" lon="-105.2282979">
  <ele>1583.0</ele>
  <time>2026-08-28T17:52:45Z</time>
  <course>165.13</course>
  <speed>5.21</speed>
  <fix>3d</fix>
</trkpt>
<trkpt lat="40.0722679" lon="-105.228293">
  <ele>1583.02</ele>
  <time>2026-08-28T17:52:45Z</time>
  <course>165.71</course>
  <speed>5.214642844912775</speed>
  <fix>3d</fix>
</trkpt>
<trkpt lat="40.0722831" lon="-105.2282979">
  <ele>1583.0</ele>
  <time>2026-08-28T17:52:45Z</time>
  <course>165.13</course>
  <speed>5.21</speed>
  <fix>3d</fix>
</trkpt>
<trkpt lat="40.0722634" lon="-105.2282914">
  <ele>1583.02</ele>
  <time>2026-08-28T17:52:45Z</time>
  <course>165.72</course>
  <speed>5.1927834539868885</speed>
  <fix>3d</fix>
</trkpt>
<trkpt lat="40.072274" lon="-105.2282947">
  <ele>1583.0</ele>
  <time>2026-08-28T17:52:45Z</time>
  <course>165.2</course>
  <speed>5.21</speed>
  <fix>3d</fix>
</trkpt>
<trkpt lat="40.072259" lon="-105.2282899">
  <ele>1583.02</ele>
  <time>2026-08-28T17:52:45Z</time>
  <course>165.78</course>
  <speed>5.170928349919384</speed>
  <fix>3d</fix>
</trkpt>
<trkpt lat="40.072265" lon="-105.2282916">
  <ele>1583.0</ele>
  <time>2026-08-28T17:52:45Z</time>
  <course>165.28</course>
  <speed>5.18</speed>
  <fix>3d</fix>
</trkpt>
<trkpt lat="40.0722545" lon="-105.2282883">
  <ele>1583.03</ele>
  <time>2026-08-28T17:52:45Z</time>
  <course>165.81</course>
  <speed>5.139387122994337</speed>
  <fix>3d</fix>
</trkpt>
<trkpt lat="40.072265" lon="-105.2282916">
  <ele>1583.0</ele>
  <time>2026-08-28T17:52:45Z</time>
  <course>165.28</course>
  <speed>5.18</speed>
  <fix>3d</fix>
</trkpt>
<trkpt lat="40.0722501" lon="-105.2282868">
  <ele>1583.02</ele>
  <time>2026-08-28T17:52:45Z</time>
  <course>165.84</course>
  <speed>5.117538470788471</speed>
  <fix>3d</fix>
</trkpt>
<trkpt lat="40.072256" lon="-105.2282885">
  <ele>1583.0</ele>
  <time>2026-08-28T17:52:45Z</time>
  <course>165.34</course>
  <speed>5.14</speed>
  <fix>3d</fix>
</trkpt>
<trkpt lat="40.0722457" lon="-105.2282853">
  <ele>1583.02</ele>
  <time>2026-08-28T17:52:45Z</time>
  <course>165.88</course>
  <speed>5.0884673527497455</speed>
  <fix>3d</fix>
</trkpt>
<trkpt lat="40.072256" lon="-105.2282885">
  <ele>1583.0</ele>
  <time>2026-08-28T17:52:45Z</time>
  <course>165.34</course>
  <speed>5.14</speed>
  <fix>3d</fix>
</trkpt>
<trkpt lat="40.0722413" lon="-105.2282838">
  <ele>1583.02</ele>
  <time>2026-08-28T17:52:45Z</time>
  <course>165.93</course>
  <speed>5.054463374088292</speed>
  <fix>3d</fix>
</trkpt>
<trkpt lat="40.0722472" lon="-105.2282855">
  <ele>1583.0</ele>
  <time>2026-08-28T17:52:45Z</time>
  <course>165.42</course>
  <speed>5.08</speed>
  <fix>3d</fix>
</trkpt>
<trkpt lat="40.0722369" lon="-105.2282823">
  <ele>1583.02</ele>
  <time>2026-08-28T17:52:45Z</time>
  <course>165.95</course>
  <speed>5.025385557347814</speed>
  <fix>3d</fix>
</trkpt>
<trkpt lat="40.0722472" lon="-105.2282855">
  <ele>1583.0</ele>
  <time>2026-08-28T17:52:45Z</time>
  <course>165.42</course>
  <speed>5.08</speed>
  <fix>3d</fix>
</trkpt>
<trkpt lat="40.0722325" lon="-105.2282808">
  <ele>1583.02</ele>
  <time>2026-08-28T17:52:45Z</time>
  <course>165.99</course>
  <speed>4.993846213090667</speed>
  <fix>3d</fix>
</trkpt>
<trkpt lat="40.0722384" lon="-105.2282825">
  <ele>1583.0</ele>
  <time>2026-08-28T17:52:45Z</time>
  <course>165.5</course>
  <speed>5.02</speed>
  <fix>3d</fix>
</trkpt>
<trkpt lat="40.0722281" lon="-105.2282794">
  <ele>1583.02</ele>
  <time>2026-08-28T17:52:45Z</time>
  <course>166.03</course>
  <speed>4.962307930791881</speed>
  <fix>3d</fix>
</trkpt>
<trkpt lat="40.0722384" lon="-105.2282825">
  <ele>1583.0</ele>
  <time>2026-08-28T17:52:45Z</time>
  <course>165.5</course>
  <speed>5.02</speed>
  <fix>3d</fix>
</trkpt>
<trkpt lat="40.0722238" lon="-105.2282779">
  <ele>1583.02</ele>
  <time>2026-08-28T17:52:45Z</time>
  <course>166.04</course>
  <speed>4.930770730829005</speed>
  <fix>3d</fix>
</trkpt>
<trkpt lat="40.0722297" lon="-105.2282796">
  <ele>1583.0</ele>
  <time>2026-08-28T17:52:45Z</time>
  <course>165.55</course>
  <speed>4.97</speed>
  <fix>3d</fix>
</trkpt>
<trkpt lat="40.0722195" lon="-105.2282764">
  <ele>1583.02</ele>
  <time>2026-08-28T17:52:45Z</time>
  <course>166.09</course>
  <speed>4.90893063711436</speed>
  <fix>3d</fix>
</trkpt>
<trkpt lat="40.0722297" lon="-105.2282796">
  <ele>1583.0</ele>
  <time>2026-08-28T17:52:45Z</time>
  <course>165.55</course>
  <speed>4.97</speed>
  <fix>3d</fix>
</trkpt>
<trkpt lat="40.0722152" lon="-105.228275">
  <ele>1583.01</ele>
  <time>2026-08-28T17:52:45Z</time>
  <course>166.13</course>
  <speed>4.8870952517830055</speed>
  <fix>3d</fix>
</trkpt>
<trkpt lat="40.0722211" lon="-105.2282767">
  <ele>1583.0</ele>
  <time>2026-08-28T17:52:45Z</time>
  <course>165.62</course>
  <speed>4.91</speed>
  <fix>3d</fix>
</trkpt>
<trkpt lat="40.072211" lon="-105.2282736">
  <ele>1583.01</ele>
  <time>2026-08-28T17:52:45Z</time>
  <course>166.14</course>
  <speed>4.865264638228839</speed>
  <fix>3d</fix>
</trkpt>
<trkpt lat="40.0722211" lon="-105.2282767">
  <ele>1583.0</ele>
  <time>2026-08-28T17:52:45Z</time>
  <course>165.62</course>
  <speed>4.91</speed>
  <fix>3d</fix>
</trkpt>
<trkpt lat="40.0722068" lon="-105.2282722">
  <ele>1583.0</ele>
  <time>2026-08-28T17:52:45Z</time>
  <course>166.17</course>
  <speed>4.8458642160093595</speed>
  <fix>3d</fix>
</trkpt>
<trkpt lat="40.0722125" lon="-105.2282738">
  <ele>1583.0</ele>
  <time>2026-08-28T17:52:45Z</time>
  <course>165.68</course>
  <speed>4.87</speed>
  <fix>3d</fix>
</trkpt>
<trkpt lat="40.0722025" lon="-105.2282708">
  <ele>1583.0</ele>
  <time>2026-08-28T17:52:45Z</time>
  <course>166.21</course>
  <speed>4.833735615442781</speed>
  <fix>3d</fix>
</trkpt>
<trkpt lat="40.0722125" lon="-105.2282738">
  <ele>1583.0</ele>
  <time>2026-08-28T17:52:45Z</time>
  <course>165.68</course>
  <speed>4.87</speed>
  <fix>3d</fix>
</trkpt>
<trkpt lat="40.0721983" lon="-105.2282694">
  <ele>1583.0</ele>
  <time>2026-08-28T17:52:45Z</time>
  <course>166.23</course>
  <speed>4.81433276789214</speed>
  <fix>3d</fix>
</trkpt>
<trkpt lat="40.0722125" lon="-105.2282738">
  <ele>1583.0</ele>
  <time>2026-08-28T17:52:45Z</time>
  <course>165.68</course>
  <speed>4.87</speed>
  <fix>3d</fix>
</trkpt>
<trkpt lat="40.0721941" lon="-105.228268">
  <ele>1582.99</ele>
  <time>2026-08-28T17:52:45Z</time>
  <course>166.26</course>
  <speed>4.802207825573566</speed>
  <fix>3d</fix>
</trkpt>
<trkpt lat="40.0722041" lon="-105.2282711">
  <ele>1583.0</ele>
  <time>2026-08-28T17:52:45Z</time>
  <course>165.72</course>
  <speed>4.84</speed>
  <fix>3d</fix>
</trkpt>
<trkpt lat="40.07219" lon="-105.2282666">
  <ele>1582.99</ele>
  <time>2026-08-28T17:52:45Z</time>
  <course>166.29</course>
  <speed>4.802207825573566</speed>
  <fix>3d</fix>
</trkpt>
<trkpt lat="40.0722041" lon="-105.2282711">
  <ele>1583.0</ele>
  <time>2026-08-28T17:52:45Z</time>
  <course>165.72</course>
  <speed>4.84</speed>
  <fix>3d</fix>
</trkpt>
<trkpt lat="40.0721858" lon="-105.2282652">
  <ele>1582.99</ele>
  <time>2026-08-28T17:52:45Z</time>
  <course>166.3</course>
  <speed>4.792504564421405</speed>
  <fix>3d</fix>
</trkpt>
<trkpt lat="40.0721956" lon="-105.2282683">
  <ele>1583.0</ele>
  <time>2026-08-28T17:52:45Z</time>
  <course>165.78</course>
  <speed>4.82</speed>
  <fix>3d</fix>
</trkpt>
<trkpt lat="40.0721817" lon="-105.2282639">
  <ele>1582.99</ele>
  <time>2026-08-28T17:52:45Z</time>
  <course>166.32</course>
  <speed>4.790093944798995</speed>
  <fix>3d</fix>
</trkpt>
<trkpt lat="40.0721956" lon="-105.2282683">
  <ele>1583.0</ele>
  <time>2026-08-28T17:52:45Z</time>
  <course>165.78</course>
  <speed>4.82</speed>
  <fix>3d</fix>
</trkpt>
<trkpt lat="40.0721776" lon="-105.2282625">
  <ele>1582.99</ele>
  <time>2026-08-28T17:52:45Z</time>
  <course>166.35</course>
  <speed>4.790093944798995</speed>
  <fix>3d</fix>
</trkpt>
<trkpt lat="40.0721872" lon="-105.2282654">
  <ele>1583.0</ele>
  <time>2026-08-28T17:52:45Z</time>
  <course>165.82</course>
  <speed>4.81</speed>
  <fix>3d</fix>
</trkpt>
<trkpt lat="40.0721734" lon="-105.2282611">
  <ele>1582.99</ele>
  <time>2026-08-28T17:52:45Z</time>
  <course>166.36</course>
  <speed>4.790093944798995</speed>
  <fix>3d</fix>
</trkpt>
<trkpt lat="40.0721789" lon="-105.2282627">
  <ele>1583.0</ele>
  <time>2026-08-28T17:52:45Z</time>
  <course>165.84</course>
  <speed>4.81</speed>
  <fix>3d</fix>
</trkpt>
<trkpt lat="40.0721692" lon="-105.2282597">
  <ele>1582.99</ele>
  <time>2026-08-28T17:52:45Z</time>
  <course>166.38</course>
  <speed>4.790093944798995</speed>
  <fix>3d</fix>
</trkpt>
<trkpt lat="40.0721789" lon="-105.2282627">
  <ele>1583.0</ele>
  <time>2026-08-28T17:52:45Z</time>
  <course>165.84</course>
  <speed>4.81</speed>
  <fix>3d</fix>
</trkpt>
<trkpt lat="40.072165" lon="-105.2282584">
  <ele>1582.99</ele>
  <time>2026-08-28T17:52:45Z</time>
  <course>166.4</course>
  <speed>4.799802079252852</speed>
  <fix>3d</fix>
</trkpt>
<trkpt lat="40.0721705" lon="-105.2282599">
  <ele>1583.0</ele>
  <time>2026-08-28T17:52:45Z</time>
  <course>165.87</course>
  <speed>4.83</speed>
  <fix>3d</fix>
</trkpt>
<trkpt lat="40.0721608" lon="-105.228257">
  <ele>1582.99</ele>
  <time>2026-08-28T17:52:45Z</time>
  <course>166.42</course>
  <speed>4.809511409696415</speed>
  <fix>3d</fix>
</trkpt>
<trkpt lat="40.0721705" lon="-105.2282599">
  <ele>1583.0</ele>
  <time>2026-08-28T17:52:45Z</time>
  <course>165.87</course>
  <speed>4.83</speed>
  <fix>3d</fix>
</trkpt>
<trkpt lat="40.0721566" lon="-105.2282556">
  <ele>1582.99</ele>
  <time>2026-08-28T17:52:45Z</time>
  <course>166.43</course>
  <speed>4.8216179856973325</speed>
  <fix>3d</fix>
</trkpt>
<trkpt lat="40.072162" lon="-105.2282572">
  <ele>1583.0</ele>
  <time>2026-08-28T17:52:45Z</time>
  <course>165.91</course>
  <speed>4.84</speed>
  <fix>3d</fix>
</trkpt>
<trkpt lat="40.0721524" lon="-105.2282542">
  <ele>1582.99</ele>
  <time>2026-08-28T17:52:45Z</time>
  <course>166.43</course>
  <speed>4.831324870053762</speed>
  <fix>3d</fix>
</trkpt>
<trkpt lat="40.072162" lon="-105.2282572">
  <ele>1583.0</ele>
  <time>2026-08-28T17:52:45Z</time>
  <course>165.91</course>
  <speed>4.84</speed>
  <fix>3d</fix>
</trkpt>
<trkpt lat="40.0721481" lon="-105.2282528">
  <ele>1582.99</ele>
  <time>2026-08-28T17:52:45Z</time>
  <course>166.46</course>
  <speed>4.84103294762595</speed>
  <fix>3d</fix>
</trkpt>
<trkpt lat="40.0721536" lon="-105.2282544">
  <ele>1583.0</ele>
  <time>2026-08-28T17:52:45Z</time>
  <course>165.93</course>
  <speed>4.86</speed>
  <fix>3d</fix>
</trkpt>
<trkpt lat="40.0721438" lon="-105.2282514">
  <ele>1582.99</ele>
  <time>2026-08-28T17:52:45Z</time>
  <course>166.47</course>
  <speed>4.850742211249738</speed>
  <fix>3d</fix>
</trkpt>
<trkpt lat="40.0721536" lon="-105.2282544">
  <ele>1583.0</ele>
  <time>2026-08-28T17:52:45Z</time>
  <course>165.93</course>
  <speed>4.86</speed>
  <fix>3d</fix>
</trkpt>
<trkpt lat="40.0721396" lon="-105.22825">
  <ele>1582.99</ele>
  <time>2026-08-28T17:52:45Z</time>
  <course>166.48</course>
  <speed>4.860452653817338</speed>
  <fix>3d</fix>
</trkpt>
<trkpt lat="40.0721451" lon="-105.2282516">
  <ele>1583.0</ele>
  <time>2026-08-28T17:52:45Z</time>
  <course>165.95</course>
  <speed>4.88</speed>
  <fix>3d</fix>
</trkpt>
<trkpt lat="40.0721353" lon="-105.2282486">
  <ele>1583.0</ele>
  <time>2026-08-28T17:52:45Z</time>
  <course>166.5</course>
  <speed>4.87016426827679</speed>
  <fix>3d</fix>
</trkpt>
<trkpt lat="40.0721451" lon="-105.2282516">
  <ele>1583.0</ele>
  <time>2026-08-28T17:52:45Z</time>
  <course>165.95</course>
  <speed>4.88</speed>
  <fix>3d</fix>
</trkpt>
<trkpt lat="40.072131" lon="-105.2282472">
  <ele>1582.99</ele>
  <time>2026-08-28T17:52:45Z</time>
  <course>166.5</course>
  <speed>4.8822638191724135</speed>
  <fix>3d</fix>
</trkpt>
<trkpt lat="40.0721365" lon="-105.2282489">
  <ele>1583.0</ele>
  <time>2026-08-28T17:52:45Z</time>
  <course>165.97</course>
  <speed>4.9</speed>
  <fix>3d</fix>
</trkpt>
<trkpt lat="40.0721267" lon="-105.2282458">
  <ele>1582.99</ele>
  <time>2026-08-28T17:52:45Z</time>
  <course>166.51</course>
  <speed>4.891973017096476</speed>
  <fix>3d</fix>
</trkpt>
<trkpt lat="40.0721365" lon="-105.2282489">
  <ele>1583.0</ele>
  <time>2026-08-28T17:52:45Z</time>
  <course>165.97</course>
  <speed>4.9</speed>
  <fix>3d</fix>
</trkpt>
<trkpt lat="40.0721224" lon="-105.2282444">
  <ele>1582.99</ele>
  <time>2026-08-28T17:52:45Z</time>
  <course>166.52</course>
  <speed>4.901683384307884</speed>
  <fix>3d</fix>
</trkpt>
<trkpt lat="40.072128" lon="-105.228246">
  <ele>1583.0</ele>
  <time>2026-08-28T17:52:45Z</time>
  <course>165.98</course>
  <speed>4.92</speed>
  <fix>3d</fix>
</trkpt>
<trkpt lat="40.072118" lon="-105.228243">
  <ele>1582.99</ele>
  <time>2026-08-28T17:52:45Z</time>
  <course>166.53</course>
  <speed>4.901683384307884</speed>
  <fix>3d</fix>
</trkpt>
<trkpt lat="40.072128" lon="-105.228246">
  <ele>1583.0</ele>
  <time>2026-08-28T17:52:45Z</time>
  <course>165.98</course>
  <speed>4.92</speed>
  <fix>3d</fix>
</trkpt>
<trkpt lat="40.0721137" lon="-105.2282416">
  <ele>1582.99</ele>
  <time>2026-08-28T17:52:45Z</time>
  <course>166.55</course>
  <speed>4.911394913871211</speed>
  <fix>3d</fix>
</trkpt>
<trkpt lat="40.072128" lon="-105.228246">
  <ele>1583.0</ele>
  <time>2026-08-28T17:52:45Z</time>
  <course>165.98</course>
  <speed>4.92</speed>
  <fix>3d</fix>
</trkpt>
<trkpt lat="40.0721094" lon="-105.2282402">
  <ele>1582.99</ele>
  <time>2026-08-28T17:52:45Z</time>
  <course>166.55</course>
  <speed>4.911394913871211</speed>
  <fix>3d</fix>
</trkpt>
<trkpt lat="40.0721194" lon="-105.2282433">
  <ele>1583.0</ele>
  <time>2026-08-28T17:52:45Z</time>
  <course>166.0</course>
  <speed>4.93</speed>
  <fix>3d</fix>
</trkpt>
<trkpt lat="40.0721052" lon="-105.2282388">
  <ele>1582.99</ele>
  <time>2026-08-28T17:52:45Z</time>
  <course>166.57</course>
  <speed>4.921107598904946</speed>
  <fix>3d</fix>
</trkpt>
<trkpt lat="40.0721194" lon="-105.2282433">
  <ele>1583.0</ele>
  <time>2026-08-28T17:52:45Z</time>
  <course>166.0</course>
  <speed>4.93</speed>
  <fix>3d</fix>
</trkpt>
<trkpt lat="40.0721009" lon="-105.2282374">
  <ele>1582.99</ele>
  <time>2026-08-28T17:52:45Z</time>
  <course>166.57</course>
  <speed>4.921107598904946</speed>
  <fix>3d</fix>
</trkpt>
<trkpt lat="40.0721107" lon="-105.2282405">
  <ele>1583.0</ele>
  <time>2026-08-28T17:52:45Z</time>
  <course>166.02</course>
  <speed>4.94</speed>
  <fix>3d</fix>
</trkpt>
<trkpt lat="40.0720966" lon="-105.228236">
  <ele>1582.99</ele>
  <time>2026-08-28T17:52:45Z</time>
  <course>166.59</course>
  <speed>4.921107598904946</speed>
  <fix>3d</fix>
</trkpt>
<trkpt lat="40.0721107" lon="-105.2282405">
  <ele>1583.0</ele>
  <time>2026-08-28T17:52:45Z</time>
  <course>166.02</course>
  <speed>4.94</speed>
  <fix>3d</fix>
</trkpt>
<trkpt lat="40.0720923" lon="-105.2282346">
  <ele>1582.99</ele>
  <time>2026-08-28T17:52:45Z</time>
  <course>166.59</course>
  <speed>4.921107598904946</speed>
  <fix>3d</fix>
</trkpt>
<trkpt lat="40.072102" lon="-105.2282376">
  <ele>1583.0</ele>
  <time>2026-08-28T17:52:45Z</time>
  <course>166.03</course>
  <speed>4.95</speed>
  <fix>3d</fix>
</trkpt>
<trkpt lat="40.072088" lon="-105.2282333">
  <ele>1582.99</ele>
  <time>2026-08-28T17:52:45Z</time>
  <course>166.59</course>
  <speed>4.921107598904946</speed>
  <fix>3d</fix>
</trkpt>
<trkpt lat="40.072102" lon="-105.2282376">
  <ele>1583.0</ele>
  <time>2026-08-28T17:52:45Z</time>
  <course>166.03</course>
  <speed>4.95</speed>
  <fix>3d</fix>
</trkpt>
<trkpt lat="40.0720837" lon="-105.2282319">
  <ele>1582.99</ele>
  <time>2026-08-28T17:52:45Z</time>
  <course>166.61</course>
  <speed>4.921107598904946</speed>
  <fix>3d</fix>
</trkpt>
<trkpt lat="40.0720935" lon="-105.2282348">
  <ele>1583.0</ele>
  <time>2026-08-28T17:52:45Z</time>
  <course>166.04</course>
  <speed>4.96</speed>
  <fix>3d</fix>
</trkpt>
<trkpt lat="40.0720794" lon="-105.2282305">
  <ele>1582.98</ele>
  <time>2026-08-28T17:52:45Z</time>
  <course>166.62</course>
  <speed>4.930821432580985</speed>
  <fix>3d</fix>
</trkpt>
<trkpt lat="40.0720848" lon="-105.2282319">
  <ele>1583.0</ele>
  <time>2026-08-28T17:52:45Z</time>
  <course>166.05</course>
  <speed>4.97</speed>
  <fix>3d</fix>
</trkpt>
<trkpt lat="40.0720751" lon="-105.2282291">
  <ele>1582.98</ele>
  <time>2026-08-28T17:52:45Z</time>
  <course>166.63</course>
  <speed>4.930821432580985</speed>
  <fix>3d</fix>
</trkpt>
<trkpt lat="40.0720848" lon="-105.2282319">
  <ele>1583.0</ele>
  <time>2026-08-28T17:52:45Z</time>
  <course>166.05</course>
  <speed>4.97</speed>
  <fix>3d</fix>
</trkpt>
<trkpt lat="40.0720708" lon="-105.2282277">
  <ele>1582.98</ele>
  <time>2026-08-28T17:52:45Z</time>
  <course>166.63</course>
  <speed>4.930821432580985</speed>
  <fix>3d</fix>
</trkpt>
<trkpt lat="40.0720761" lon="-105.2282291">
  <ele>1583.0</ele>
  <time>2026-08-28T17:52:45Z</time>
  <course>166.06</course>
  <speed>4.97</speed>
  <fix>3d</fix>
</trkpt>
<trkpt lat="40.0720664" lon="-105.2282262">
  <ele>1582.97</ele>
  <time>2026-08-28T17:52:45Z</time>
  <course>166.65</course>
  <speed>4.940536408124122</speed>
  <fix>3d</fix>
</trkpt>
<trkpt lat="40.0720761" lon="-105.2282291">
  <ele>1583.0</ele>
  <time>2026-08-28T17:52:45Z</time>
  <course>166.06</course>
  <speed>4.97</speed>
  <fix>3d</fix>
</trkpt>
<trkpt lat="40.0720621" lon="-105.2282248">
  <ele>1582.97</ele>
  <time>2026-08-28T17:52:45Z</time>
  <course>166.65</course>
  <speed>4.940536408124122</speed>
  <fix>3d</fix>
</trkpt>
<trkpt lat="40.0720674" lon="-105.2282264">
  <ele>1583.0</ele>
  <time>2026-08-28T17:52:45Z</time>
  <course>166.07</course>
  <speed>4.98</speed>
  <fix>3d</fix>
</trkpt>
<trkpt lat="40.0720577" lon="-105.2282234">
  <ele>1582.97</ele>
  <time>2026-08-28T17:52:45Z</time>
  <course>166.67</course>
  <speed>4.940536408124122</speed>
  <fix>3d</fix>
</trkpt>
<trkpt lat="40.0720674" lon="-105.2282264">
  <ele>1583.0</ele>
  <time>2026-08-28T17:52:45Z</time>
  <course>166.07</course>
  <speed>4.98</speed>
  <fix>3d</fix>
</trkpt>
<trkpt lat="40.0720533" lon="-105.228222">
  <ele>1582.97</ele>
  <time>2026-08-28T17:52:45Z</time>
  <course>166.68</course>
  <speed>4.940536408124122</speed>
  <fix>3d</fix>
</trkpt>
<trkpt lat="40.0720587" lon="-105.2282235">
  <ele>1583.0</ele>
  <time>2026-08-28T17:52:45Z</time>
  <course>166.09</course>
  <speed>4.98</speed>
  <fix>3d</fix>
</trkpt>
<trkpt lat="40.0720489" lon="-105.2282206">
  <ele>1582.97</ele>
  <time>2026-08-28T17:52:45Z</time>
  <course>166.69</course>
  <speed>4.940536408124122</speed>
  <fix>3d</fix>
</trkpt>
<trkpt lat="40.0720587" lon="-105.2282235">
  <ele>1583.0</ele>
  <time>2026-08-28T17:52:45Z</time>
  <course>166.09</course>
  <speed>4.98</speed>
  <fix>3d</fix>
</trkpt>
<trkpt lat="40.0720446" lon="-105.2282192">
  <ele>1582.97</ele>
  <time>2026-08-28T17:52:45Z</time>
  <course>166.7</course>
  <speed>4.940536408124122</speed>
  <fix>3d</fix>
</trkpt>
<trkpt lat="40.0720501" lon="-105.2282208">
  <ele>1583.0</ele>
  <time>2026-08-28T17:52:45Z</time>
  <course>166.11</course>
  <speed>4.98</speed>
  <fix>3d</fix>
</trkpt>
<trkpt lat="40.0720402" lon="-105.2282177">
  <ele>1582.97</ele>
  <time>2026-08-28T17:52:45Z</time>
  <course>166.71</course>
  <speed>4.940536408124122</speed>
  <fix>3d</fix>
</trkpt>
<trkpt lat="40.0720501" lon="-105.2282208">
  <ele>1583.0</ele>
  <time>2026-08-28T17:52:45Z</time>
  <course>166.11</course>
  <speed>4.98</speed>
  <fix>3d</fix>
</trkpt>
<trkpt lat="40.0720358" lon="-105.2282163">
  <ele>1582.97</ele>
  <time>2026-08-28T17:52:45Z</time>
  <course>166.72</course>
  <speed>4.93817780157823</speed>
  <fix>3d</fix>
</trkpt>
<trkpt lat="40.0720414" lon="-105.228218">
  <ele>1583.0</ele>
  <time>2026-08-28T17:52:45Z</time>
  <course>166.13</course>
  <speed>4.97</speed>
  <fix>3d</fix>
</trkpt>
<trkpt lat="40.0720314" lon="-105.2282149">
  <ele>1582.98</ele>
  <time>2026-08-28T17:52:45Z</time>
  <course>166.72</course>
  <speed>4.93817780157823</speed>
  <fix>3d</fix>
</trkpt>
<trkpt lat="40.0720414" lon="-105.228218">
  <ele>1583.0</ele>
  <time>2026-08-28T17:52:45Z</time>
  <course>166.13</course>
  <speed>4.97</speed>
  <fix>3d</fix>
</trkpt>
<trkpt lat="40.0720271" lon="-105.2282135">
  <ele>1582.98</ele>
  <time>2026-08-28T17:52:45Z</time>
  <course>166.73</course>
  <speed>4.93817780157823</speed>
  <fix>3d</fix>
</trkpt>
<trkpt lat="40.0720327" lon="-105.2282151">
  <ele>1583.0</ele>
  <time>2026-08-28T17:52:45Z</time>
  <course>166.13</course>
  <speed>4.97</speed>
  <fix>3d</fix>
</trkpt>
<trkpt lat="40.0720227" lon="-105.2282121">
  <ele>1582.98</ele>
  <time>2026-08-28T17:52:45Z</time>
  <course>166.73</course>
  <speed>4.93817780157823</speed>
  <fix>3d</fix>
</trkpt>
<trkpt lat="40.0720327" lon="-105.2282151">
  <ele>1583.0</ele>
  <time>2026-08-28T17:52:45Z</time>
  <course>166.13</course>
  <speed>4.97</speed>
  <fix>3d</fix>
</trkpt>
<trkpt lat="40.0720184" lon="-105.2282107">
  <ele>1582.98</ele>
  <time>2026-08-28T17:52:45Z</time>
  <course>166.74</course>
  <speed>4.93817780157823</speed>
  <fix>3d</fix>
</trkpt>
<trkpt lat="40.0720327" lon="-105.2282151">
  <ele>1583.0</ele>
  <time>2026-08-28T17:52:45Z</time>
  <course>166.13</course>
  <speed>4.97</speed>
  <fix>3d</fix>
</trkpt>
<trkpt lat="40.0720141" lon="-105.2282093">
  <ele>1582.98</ele>
  <time>2026-08-28T17:52:45Z</time>
  <course>166.75</course>
  <speed>4.9284581767526445</speed>
  <fix>3d</fix>
</trkpt>
<trkpt lat="40.072024" lon="-105.2282123">
  <ele>1583.0</ele>
  <time>2026-08-28T17:52:45Z</time>
  <course>166.14</course>
  <speed>4.96</speed>
  <fix>3d</fix>
</trkpt>
<trkpt lat="40.0720098" lon="-105.228208">
  <ele>1582.99</ele>
  <time>2026-08-28T17:52:45Z</time>
  <course>166.75</course>
  <speed>4.9284581767526445</speed>
  <fix>3d</fix>
</trkpt>
<trkpt lat="40.072024" lon="-105.2282123">
  <ele>1583.0</ele>
  <time>2026-08-28T17:52:45Z</time>
  <course>166.14</course>
  <speed>4.96</speed>
  <fix>3d</fix>
</trkpt>
<trkpt lat="40.0720055" lon="-105.2282066">
  <ele>1582.99</ele>
  <time>2026-08-28T17:52:45Z</time>
  <course>166.77</course>
  <speed>4.9284581767526445</speed>
  <fix>3d</fix>
</trkpt>
<trkpt lat="40.0720153" lon="-105.2282096">
  <ele>1583.0</ele>
  <time>2026-08-28T17:52:45Z</time>
  <course>166.15</course>
  <speed>4.96</speed>
  <fix>3d</fix>
</trkpt>
<trkpt lat="40.0720012" lon="-105.2282052">
  <ele>1582.99</ele>
  <time>2026-08-28T17:52:45Z</time>
  <course>166.77</course>
  <speed>4.918739675973917</speed>
  <fix>3d</fix>
</trkpt>
<trkpt lat="40.0720153" lon="-105.2282096">
  <ele>1583.0</ele>
  <time>2026-08-28T17:52:45Z</time>
  <course>166.15</course>
  <speed>4.96</speed>
  <fix>3d</fix>
</trkpt>
<trkpt lat="40.0719969" lon="-105.2282038">
  <ele>1582.99</ele>
  <time>2026-08-28T17:52:45Z</time>
  <course>166.77</course>
  <speed>4.918739675973917</speed>
  <fix>3d</fix>
</trkpt>
<trkpt lat="40.0720066" lon="-105.2282068">
  <ele>1583.0</ele>
  <time>2026-08-28T17:52:45Z</time>
  <course>166.16</course>
  <speed>4.96</speed>
  <fix>3d</fix>
</trkpt>
<trkpt lat="40.0719926" lon="-105.2282024">
  <ele>1582.98</ele>
  <time>2026-08-28T17:52:45Z</time>
  <course>166.77</course>
  <speed>4.918739675973917</speed>
  <fix>3d</fix>
</trkpt>
<trkpt lat="40.071998" lon="-105.2282039">
  <ele>1583.0</ele>
  <time>2026-08-28T17:52:45Z</time>
  <course>166.16</course>
  <speed>4.95</speed>
  <fix>3d</fix>
</trkpt>
<trkpt lat="40.0719883" lon="-105.228201">
  <ele>1582.98</ele>
  <time>2026-08-28T17:52:45Z</time>
  <course>166.77</course>
  <speed>4.918739675973917</speed>
  <fix>3d</fix>
</trkpt>
<trkpt lat="40.071998" lon="-105.2282039">
  <ele>1583.0</ele>
  <time>2026-08-28T17:52:45Z</time>
  <course>166.16</course>
  <speed>4.95</speed>
  <fix>3d</fix>
</trkpt>
<trkpt lat="40.0719839" lon="-105.2281997">
  <ele>1582.98</ele>
  <time>2026-08-28T17:52:45Z</time>
  <course>166.78</course>
  <speed>4.918739675973917</speed>
  <fix>3d</fix>
</trkpt>
<trkpt lat="40.0719894" lon="-105.2282012">
  <ele>1583.0</ele>
  <time>2026-08-28T17:52:45Z</time>
  <course>166.16</course>
  <speed>4.95</speed>
  <fix>3d</fix>
</trkpt>
<trkpt lat="40.0719796" lon="-105.2281983">
  <ele>1582.98</ele>
  <time>2026-08-28T17:52:45Z</time>
  <course>166.79</course>
  <speed>4.918739675973917</speed>
  <fix>3d</fix>
</trkpt>
<trkpt lat="40.0719894" lon="-105.2282012">
  <ele>1583.0</ele>
  <time>2026-08-28T17:52:45Z</time>
  <course>166.16</course>
  <speed>4.95</speed>
  <fix>3d</fix>
</trkpt>
<trkpt lat="40.0719753" lon="-105.2281969">
  <ele>1582.98</ele>
  <time>2026-08-28T17:52:45Z</time>
  <course>166.79</course>
  <speed>4.9284581767526445</speed>
  <fix>3d</fix>
</trkpt>
<trkpt lat="40.0719807" lon="-105.2281984">
  <ele>1583.0</ele>
  <time>2026-08-28T17:52:45Z</time>
  <course>166.17</course>
  <speed>4.95</speed>
  <fix>3d</fix>
</trkpt>
<trkpt lat="40.0719709" lon="-105.2281955">
  <ele>1582.98</ele>
  <time>2026-08-28T17:52:45Z</time>
  <course>166.8</course>
  <speed>4.9284581767526445</speed>
  <fix>3d</fix>
</trkpt>
<trkpt lat="40.0719807" lon="-105.2281984">
  <ele>1583.0</ele>
  <time>2026-08-28T17:52:45Z</time>
  <course>166.17</course>
  <speed>4.95</speed>
  <fix>3d</fix>
</trkpt>
<trkpt lat="40.0719666" lon="-105.2281941">
  <ele>1582.98</ele>
  <time>2026-08-28T17:52:46Z</time>
  <course>166.8</course>
  <speed>4.9284581767526445</speed>
  <fix>3d</fix>
</trkpt>
<trkpt lat="40.071972" lon="-105.2281956">
  <ele>1583.0</ele>
  <time>2026-08-28T17:52:46Z</time>
  <course>166.18</course>
  <speed>4.96</speed>
  <fix>3d</fix>
</trkpt>
<trkpt lat="40.0719622" lon="-105.2281927">
  <ele>1582.98</ele>
  <time>2026-08-28T17:52:46Z</time>
  <course>166.81</course>
  <speed>4.9284581767526445</speed>
  <fix>3d</fix>
</trkpt>
<trkpt lat="40.071972" lon="-105.2281956">
  <ele>1583.0</ele>
  <time>2026-08-28T17:52:46Z</time>
  <course>166.18</course>
  <speed>4.96</speed>
  <fix>3d</fix>
</trkpt>
<trkpt lat="40.0719578" lon="-105.2281913">
  <ele>1582.99</ele>
  <time>2026-08-28T17:52:46Z</time>
  <course>166.82</course>
  <speed>4.9284581767526445</speed>
  <fix>3d</fix>
</trkpt>
<trkpt lat="40.0719634" lon="-105.2281929">
  <ele>1583.0</ele>
  <time>2026-08-28T17:52:46Z</time>
  <course>166.18</course>
  <speed>4.96</speed>
  <fix>3d</fix>
</trkpt>
<trkpt lat="40.0719535" lon="-105.2281899">
  <ele>1582.99</ele>
  <time>2026-08-28T17:52:46Z</time>
  <course>166.82</course>
  <speed>4.9284581767526445</speed>
  <fix>3d</fix>
</trkpt>
<trkpt lat="40.0719634" lon="-105.2281929">
  <ele>1583.0</ele>
  <time>2026-08-28T17:52:46Z</time>
  <course>166.18</course>
  <speed>4.96</speed>
  <fix>3d</fix>
</trkpt>
<trkpt lat="40.0719491" lon="-105.2281885">
  <ele>1582.99</ele>
  <time>2026-08-28T17:52:46Z</time>
  <course>166.82</course>
  <speed>4.93817780157823</speed>
  <fix>3d</fix>
</trkpt>
<trkpt lat="40.0719548" lon="-105.22819">
  <ele>1583.0</ele>
  <time>2026-08-28T17:52:46Z</time>
  <course>166.19</course>
  <speed>4.96</speed>
  <fix>3d</fix>
</trkpt>
<trkpt lat="40.0719448" lon="-105.2281871">
  <ele>1582.99</ele>
  <time>2026-08-28T17:52:46Z</time>
  <course>166.82</course>
  <speed>4.93817780157823</speed>
  <fix>3d</fix>
</trkpt>
<trkpt lat="40.0719548" lon="-105.22819">
  <ele>1583.0</ele>
  <time>2026-08-28T17:52:46Z</time>
  <course>166.19</course>
  <speed>4.96</speed>
  <fix>3d</fix>
</trkpt>
<trkpt lat="40.0719404" lon="-105.2281857">
  <ele>1583.0</ele>
  <time>2026-08-28T17:52:46Z</time>
  <course>166.84</course>
  <speed>4.93817780157823</speed>
  <fix>3d</fix>
</trkpt>
<trkpt lat="40.0719461" lon="-105.2281873">
  <ele>1583.0</ele>
  <time>2026-08-28T17:52:46Z</time>
  <course>166.2</course>
  <speed>4.96</speed>
  <fix>3d</fix>
</trkpt>
<trkpt lat="40.0719361" lon="-105.2281843">
  <ele>1583.0</ele>
  <time>2026-08-28T17:52:46Z</time>
  <course>166.84</course>
  <speed>4.93817780157823</speed>
  <fix>3d</fix>
</trkpt>
<trkpt lat="40.0719461" lon="-105.2281873">
  <ele>1583.0</ele>
  <time>2026-08-28T17:52:46Z</time>
  <course>166.2</course>
  <speed>4.96</speed>
  <fix>3d</fix>
</trkpt>
<trkpt lat="40.0719317" lon="-105.2281829">
  <ele>1582.99</ele>
  <time>2026-08-28T17:52:46Z</time>
  <course>166.84</course>
  <speed>4.93817780157823</speed>
  <fix>3d</fix>
</trkpt>
<trkpt lat="40.0719461" lon="-105.2281873">
  <ele>1583.0</ele>
  <time>2026-08-28T17:52:46Z</time>
  <course>166.2</course>
  <speed>4.96</speed>
  <fix>3d</fix>
</trkpt>
<trkpt lat="40.0719274" lon="-105.2281815">
  <ele>1582.99</ele>
  <time>2026-08-28T17:52:46Z</time>
  <course>166.84</course>
  <speed>4.93817780157823</speed>
  <fix>3d</fix>
</trkpt>
<trkpt lat="40.0719374" lon="-105.2281845">
  <ele>1583.0</ele>
  <time>2026-08-28T17:52:46Z</time>
  <course>166.2</course>
  <speed>4.96</speed>
  <fix>3d</fix>
</trkpt>
<trkpt lat="40.0719231" lon="-105.2281801">
  <ele>1582.99</ele>
  <time>2026-08-28T17:52:46Z</time>
  <course>166.84</course>
  <speed>4.935838327984416</speed>
  <fix>3d</fix>
</trkpt>
<trkpt lat="40.0719374" lon="-105.2281845">
  <ele>1583.0</ele>
  <time>2026-08-28T17:52:46Z</time>
  <course>166.2</course>
  <speed>4.96</speed>
  <fix>3d</fix>
</trkpt>
<trkpt lat="40.0719188" lon="-105.2281788">
  <ele>1582.99</ele>
  <time>2026-08-28T17:52:46Z</time>
  <course>166.85</course>
  <speed>4.935838327984416</speed>
  <fix>3d</fix>
</trkpt>
<trkpt lat="40.0719287" lon="-105.2281817">
  <ele>1583.0</ele>
  <time>2026-08-28T17:52:46Z</time>
  <course>166.2</course>
  <speed>4.96</speed>
  <fix>3d</fix>
</trkpt>
<trkpt lat="40.0719145" lon="-105.2281774">
  <ele>1583.0</ele>
  <time>2026-08-28T17:52:46Z</time>
  <course>166.85</course>
  <speed>4.926114087188806</speed>
  <fix>3d</fix>
</trkpt>
<trkpt lat="40.0719287" lon="-105.2281817">
  <ele>1583.0</ele>
  <time>2026-08-28T17:52:46Z</time>
  <course>166.2</course>
  <speed>4.96</speed>
  <fix>3d</fix>
</trkpt>
<trkpt lat="40.0719103" lon="-105.228176">
  <ele>1583.0</ele>
  <time>2026-08-28T17:52:46Z</time>
  <course>166.85</course>
  <speed>4.926114087188806</speed>
  <fix>3d</fix>
</trkpt>
<trkpt lat="40.0719201" lon="-105.228179">
  <ele>1583.0</ele>
  <time>2026-08-28T17:52:46Z</time>
  <course>166.2</course>
  <speed>4.96</speed>
  <fix>3d</fix>
</trkpt>
<trkpt lat="40.071906" lon="-105.2281746">
  <ele>1583.0</ele>
  <time>2026-08-28T17:52:46Z</time>
  <course>166.86</course>
  <speed>4.926114087188806</speed>
  <fix>3d</fix>
</trkpt>
<trkpt lat="40.0719201" lon="-105.228179">
  <ele>1583.0</ele>
  <time>2026-08-28T17:52:46Z</time>
  <course>166.2</course>
  <speed>4.96</speed>
  <fix>3d</fix>
</trkpt>
<trkpt lat="40.0719016" lon="-105.2281733">
  <ele>1583.0</ele>
  <time>2026-08-28T17:52:46Z</time>
  <course>166.87</course>
  <speed>4.926114087188806</speed>
  <fix>3d</fix>
</trkpt>
<trkpt lat="40.0719115" lon="-105.2281761">
  <ele>1583.0</ele>
  <time>2026-08-28T17:52:46Z</time>
  <course>166.21</course>
  <speed>4.96</speed>
  <fix>3d</fix>
</trkpt>
<trkpt lat="40.0718974" lon="-105.2281719">
  <ele>1583.0</ele>
  <time>2026-08-28T17:52:46Z</time>
  <course>166.87</course>
  <speed>4.926114087188806</speed>
  <fix>3d</fix>
</trkpt>
<trkpt lat="40.0719028" lon="-105.2281734">
  <ele>1583.0</ele>
  <time>2026-08-28T17:52:46Z</time>
  <course>166.22</course>
  <speed>4.96</speed>
  <fix>3d</fix>
</trkpt>
<trkpt lat="40.071893" lon="-105.2281705">
  <ele>1583.0</ele>
  <time>2026-08-28T17:52:46Z</time>
  <course>166.87</course>
  <speed>4.935838327984416</speed>
  <fix>3d</fix>
</trkpt>
<trkpt lat="40.0719028" lon="-105.2281734">
  <ele>1583.0</ele>
  <time>2026-08-28T17:52:46Z</time>
  <course>166.22</course>
  <speed>4.96</speed>
  <fix>3d</fix>
</trkpt>
<trkpt lat="40.0718887" lon="-105.2281691">
  <ele>1583.0</ele>
  <time>2026-08-28T17:52:46Z</time>
  <course>166.87</course>
  <speed>4.935838327984416</speed>
  <fix>3d</fix>
</trkpt>
<trkpt lat="40.0718941" lon="-105.2281706">
  <ele>1583.0</ele>
  <time>2026-08-28T17:52:46Z</time>
  <course>166.22</course>
  <speed>4.97</speed>
  <fix>3d</fix>
</trkpt>
<trkpt lat="40.0718844" lon="-105.2281677">
  <ele>1583.0</ele>
  <time>2026-08-28T17:52:46Z</time>
  <course>166.87</course>
  <speed>4.94789854382646</speed>
  <fix>3d</fix>
</trkpt>
<trkpt lat="40.0718941" lon="-105.2281706">
  <ele>1583.0</ele>
  <time>2026-08-28T17:52:46Z</time>
  <course>166.22</course>
  <speed>4.97</speed>
  <fix>3d</fix>
</trkpt>
<trkpt lat="40.07188" lon="-105.2281663">
  <ele>1583.0</ele>
  <time>2026-08-28T17:52:46Z</time>
  <course>166.89</course>
  <speed>4.945563668582177</speed>
  <fix>3d</fix>
</trkpt>
<trkpt lat="40.0718855" lon="-105.2281678">
  <ele>1583.0</ele>
  <time>2026-08-28T17:52:46Z</time>
  <course>166.22</course>
  <speed>4.97</speed>
  <fix>3d</fix>
</trkpt>
<trkpt lat="40.0718756" lon="-105.2281649">
  <ele>1583.0</ele>
  <time>2026-08-28T17:52:46Z</time>
  <course>166.89</course>
  <speed>4.94789854382646</speed>
  <fix>3d</fix>
</trkpt>
<trkpt lat="40.0718855" lon="-105.2281678">
  <ele>1583.0</ele>
  <time>2026-08-28T17:52:46Z</time>
  <course>166.22</course>
  <speed>4.97</speed>
  <fix>3d</fix>
</trkpt>
<trkpt lat="40.0718712" lon="-105.2281635">
  <ele>1583.0</ele>
  <time>2026-08-28T17:52:46Z</time>
  <course>166.89</course>
  <speed>4.94789854382646</speed>
  <fix>3d</fix>
</trkpt>
<trkpt lat="40.0718768" lon="-105.2281651">
  <ele>1583.0</ele>
  <time>2026-08-28T17:52:46Z</time>
  <course>166.23</course>
  <speed>4.98</speed>
  <fix>3d</fix>
</trkpt>
<trkpt lat="40.0718669" lon="-105.2281621">
  <ele>1583.0</ele>
  <time>2026-08-28T17:52:46Z</time>
  <course>166.89</course>
  <speed>4.957620396924315</speed>
  <fix>3d</fix>
</trkpt>
<trkpt lat="40.0718768" lon="-105.2281651">
  <ele>1583.0</ele>
  <time>2026-08-28T17:52:46Z</time>
  <course>166.23</course>
  <speed>4.98</speed>
  <fix>3d</fix>
</trkpt>
<trkpt lat="40.0718625" lon="-105.2281607">
  <ele>1583.01</ele>
  <time>2026-08-28T17:52:46Z</time>
  <course>166.89</course>
  <speed>4.957620396924315</speed>
  <fix>3d</fix>
</trkpt>
<trkpt lat="40.0718681" lon="-105.2281622">
  <ele>1583.0</ele>
  <time>2026-08-28T17:52:46Z</time>
  <course>166.23</course>
  <speed>4.98</speed>
  <fix>3d</fix>
</trkpt>
<trkpt lat="40.0718581" lon="-105.2281593">
  <ele>1583.01</ele>
  <time>2026-08-28T17:52:46Z</time>
  <course>166.89</course>
  <speed>4.957620396924315</speed>
  <fix>3d</fix>
</trkpt>
<trkpt lat="40.0718681" lon="-105.2281622">
  <ele>1583.0</ele>
  <time>2026-08-28T17:52:46Z</time>
  <course>166.23</course>
  <speed>4.98</speed>
  <fix>3d</fix>
</trkpt>
<trkpt lat="40.0718538" lon="-105.2281579">
  <ele>1583.01</ele>
  <time>2026-08-28T17:52:46Z</time>
  <course>166.91</course>
  <speed>4.957620396924315</speed>
  <fix>3d</fix>
</trkpt>
<trkpt lat="40.0718594" lon="-105.2281595">
  <ele>1583.0</ele>
  <time>2026-08-28T17:52:46Z</time>
  <course>166.24</course>
  <speed>4.98</speed>
  <fix>3d</fix>
</trkpt>
<trkpt lat="40.0718494" lon="-105.2281565">
  <ele>1583.01</ele>
  <time>2026-08-28T17:52:46Z</time>
  <course>166.91</course>
  <speed>4.957620396924315</speed>
  <fix>3d</fix>
</trkpt>
<trkpt lat="40.0718594" lon="-105.2281595">
  <ele>1583.0</ele>
  <time>2026-08-28T17:52:46Z</time>
  <course>166.24</course>
  <speed>4.98</speed>
  <fix>3d</fix>
</trkpt>
<trkpt lat="40.071845" lon="-105.2281551">
  <ele>1583.01</ele>
  <time>2026-08-28T17:52:46Z</time>
  <course>166.91</course>
  <speed>4.957620396924315</speed>
  <fix>3d</fix>
</trkpt>
<trkpt lat="40.0718594" lon="-105.2281595">
  <ele>1583.0</ele>
  <time>2026-08-28T17:52:46Z</time>
  <course>166.24</course>
  <speed>4.98</speed>
  <fix>3d</fix>
</trkpt>
<trkpt lat="40.0718407" lon="-105.2281537">
  <ele>1583.02</ele>
  <time>2026-08-28T17:52:46Z</time>
  <course>166.91</course>
  <speed>4.957620396924315</speed>
  <fix>3d</fix>
</trkpt>
<trkpt lat="40.0718507" lon="-105.2281567">
  <ele>1583.0</ele>
  <time>2026-08-28T17:52:46Z</time>
  <course>166.24</course>
  <speed>4.98</speed>
  <fix>3d</fix>
</trkpt>
<trkpt lat="40.0718364" lon="-105.2281524">
  <ele>1583.02</ele>
  <time>2026-08-28T17:52:46Z</time>
  <course>166.91</course>
  <speed>4.957620396924315</speed>
  <fix>3d</fix>
</trkpt>
<trkpt lat="40.0718507" lon="-105.2281567">
  <ele>1583.0</ele>
  <time>2026-08-28T17:52:46Z</time>
  <course>166.24</course>
  <speed>4.98</speed>
  <fix>3d</fix>
</trkpt>
<trkpt lat="40.0718321" lon="-105.228151">
  <ele>1583.02</ele>
  <time>2026-08-28T17:52:46Z</time>
  <course>166.93</course>
  <speed>4.945563668582177</speed>
  <fix>3d</fix>
</trkpt>
<trkpt lat="40.071842" lon="-105.2281539">
  <ele>1583.0</ele>
  <time>2026-08-28T17:52:46Z</time>
  <course>166.24</course>
  <speed>4.97</speed>
  <fix>3d</fix>
</trkpt>
<trkpt lat="40.0718277" lon="-105.2281496">
  <ele>1583.02</ele>
  <time>2026-08-28T17:52:46Z</time>
  <course>166.94</course>
  <speed>4.945563668582177</speed>
  <fix>3d</fix>
</trkpt>
<trkpt lat="40.071842" lon="-105.2281539">
  <ele>1583.0</ele>
  <time>2026-08-28T17:52:46Z</time>
  <course>166.24</course>
  <speed>4.97</speed>
  <fix>3d</fix>
</trkpt>
<trkpt lat="40.0718235" lon="-105.2281482">
  <ele>1583.03</ele>
  <time>2026-08-28T17:52:46Z</time>
  <course>166.94</course>
  <speed>4.935838327984416</speed>
  <fix>3d</fix>
</trkpt>
<trkpt lat="40.0718333" lon="-105.2281512">
  <ele>1583.0</ele>
  <time>2026-08-28T17:52:46Z</time>
  <course>166.26</course>
  <speed>4.97</speed>
  <fix>3d</fix>
</trkpt>
<trkpt lat="40.0718192" lon="-105.2281469">
  <ele>1583.03</ele>
  <time>2026-08-28T17:52:46Z</time>
  <course>166.97</course>
  <speed>4.923789191263167</speed>
  <fix>3d</fix>
</trkpt>
<trkpt lat="40.0718333" lon="-105.2281512">
  <ele>1583.0</ele>
  <time>2026-08-28T17:52:46Z</time>
  <course>166.26</course>
  <speed>4.97</speed>
  <fix>3d</fix>
</trkpt>
<trkpt lat="40.0718149" lon="-105.2281455">
  <ele>1583.03</ele>
  <time>2026-08-28T17:52:46Z</time>
  <course>167.0</course>
  <speed>4.904334817281544</speed>
  <fix>3d</fix>
</trkpt>
<trkpt lat="40.0718246" lon="-105.2281484">
  <ele>1583.0</ele>
  <time>2026-08-28T17:52:46Z</time>
  <course>166.28</course>
  <speed>4.96</speed>
  <fix>3d</fix>
</trkpt>
<trkpt lat="40.0718106" lon="-105.2281441">
  <ele>1583.03</ele>
  <time>2026-08-28T17:52:46Z</time>
  <course>167.0</course>
  <speed>4.882560803512845</speed>
  <fix>3d</fix>
</trkpt>
<trkpt lat="40.071816" lon="-105.2281456">
  <ele>1583.0</ele>
  <time>2026-08-28T17:52:46Z</time>
  <course>166.31</course>
  <speed>4.93</speed>
  <fix>3d</fix>
</trkpt>
<trkpt lat="40.0718063" lon="-105.2281428">
  <ele>1583.03</ele>
  <time>2026-08-28T17:52:46Z</time>
  <course>167.04</course>
  <speed>4.841332461213545</speed>
  <fix>3d</fix>
</trkpt>
<trkpt lat="40.071816" lon="-105.2281456">
  <ele>1583.0</ele>
  <time>2026-08-28T17:52:46Z</time>
  <course>166.31</course>
  <speed>4.93</speed>
  <fix>3d</fix>
</trkpt>
<trkpt lat="40.0718021" lon="-105.2281415">
  <ele>1583.03</ele>
  <time>2026-08-28T17:52:46Z</time>
  <course>167.07</course>
  <speed>4.8001041655364105</speed>
  <fix>3d</fix>
</trkpt>
<trkpt lat="40.0718074" lon="-105.2281429">
  <ele>1583.0</ele>
  <time>2026-08-28T17:52:46Z</time>
  <course>166.36</course>
  <speed>4.87</speed>
  <fix>3d</fix>
</trkpt>
<trkpt lat="40.0717979" lon="-105.2281401">
  <ele>1583.03</ele>
  <time>2026-08-28T17:52:46Z</time>
  <course>167.09</course>
  <speed>4.746841054849003</speed>
  <fix>3d</fix>
</trkpt>
<trkpt lat="40.0718074" lon="-105.2281429">
  <ele>1583.0</ele>
  <time>2026-08-28T17:52:46Z</time>
  <course>166.36</course>
  <speed>4.87</speed>
  <fix>3d</fix>
</trkpt>
<trkpt lat="40.0717938" lon="-105.2281388">
  <ele>1583.02</ele>
  <time>2026-08-28T17:52:46Z</time>
  <course>167.15</course>
  <speed>4.686149805543993</speed>
  <fix>3d</fix>
</trkpt>
<trkpt lat="40.071799" lon="-105.2281403">
  <ele>1583.0</ele>
  <time>2026-08-28T17:52:46Z</time>
  <course>166.43</course>
  <speed>4.77</speed>
  <fix>3d</fix>
</trkpt>
<trkpt lat="40.0717896" lon="-105.2281375">
  <ele>1583.02</ele>
  <time>2026-08-28T17:52:46Z</time>
  <course>167.17</course>
  <speed>4.6036941688170385</speed>
  <fix>3d</fix>
</trkpt>
<trkpt lat="40.071799" lon="-105.2281403">
  <ele>1583.0</ele>
  <time>2026-08-28T17:52:46Z</time>
  <course>166.43</course>
  <speed>4.77</speed>
  <fix>3d</fix>
</trkpt>
<trkpt lat="40.0717856" lon="-105.2281363">
  <ele>1583.02</ele>
  <time>2026-08-28T17:52:46Z</time>
  <course>167.2</course>
  <speed>4.521238768302333</speed>
  <fix>3d</fix>
</trkpt>
<trkpt lat="40.0717907" lon="-105.2281376">
  <ele>1583.0</ele>
  <time>2026-08-28T17:52:46Z</time>
  <course>166.49</course>
  <speed>4.63</speed>
  <fix>3d</fix>
</trkpt>
<trkpt lat="40.0717816" lon="-105.228135">
  <ele>1583.02</ele>
  <time>2026-08-28T17:52:46Z</time>
  <course>167.25</course>
  <speed>4.426759537178409</speed>
  <fix>3d</fix>
</trkpt>
<trkpt lat="40.0717907" lon="-105.2281376">
  <ele>1583.0</ele>
  <time>2026-08-28T17:52:46Z</time>
  <course>166.49</course>
  <speed>4.63</speed>
  <fix>3d</fix>
</trkpt>
<trkpt lat="40.0717778" lon="-105.2281338">
  <ele>1583.02</ele>
  <time>2026-08-28T17:52:46Z</time>
  <course>167.29</course>
  <speed>4.32255711356137</speed>
  <fix>3d</fix>
</trkpt>
<trkpt lat="40.0717827" lon="-105.2281352">
  <ele>1583.0</ele>
  <time>2026-08-28T17:52:46Z</time>
  <course>166.56</course>
  <speed>4.45</speed>
  <fix>3d</fix>
</trkpt>
<trkpt lat="40.071774" lon="-105.2281326">
  <ele>1583.02</ele>
  <time>2026-08-28T17:52:46Z</time>
  <course>167.31</course>
  <speed>4.210890642132612</speed>
  <fix>3d</fix>
</trkpt>
<trkpt lat="40.0717827" lon="-105.2281352">
  <ele>1583.0</ele>
  <time>2026-08-28T17:52:46Z</time>
  <course>166.56</course>
  <speed>4.45</speed>
  <fix>3d</fix>
</trkpt>
<trkpt lat="40.0717704" lon="-105.2281315">
  <ele>1583.02</ele>
  <time>2026-08-28T17:52:46Z</time>
  <course>167.37</course>
  <speed>4.087211763537583</speed>
  <fix>3d</fix>
</trkpt>
<trkpt lat="40.0717752" lon="-105.2281328">
  <ele>1583.0</ele>
  <time>2026-08-28T17:52:46Z</time>
  <course>166.64</course>
  <speed>4.23</speed>
  <fix>3d</fix>
</trkpt>
<trkpt lat="40.0717668" lon="-105.2281304">
  <ele>1583.02</ele>
  <time>2026-08-28T17:52:46Z</time>
  <course>167.39</course>
  <speed>3.9732732098359405</speed>
  <fix>3d</fix>
</trkpt>
<trkpt lat="40.0717752" lon="-105.2281328">
  <ele>1583.0</ele>
  <time>2026-08-28T17:52:46Z</time>
  <course>166.64</course>
  <speed>4.23</speed>
  <fix>3d</fix>
</trkpt>
<trkpt lat="40.0717634" lon="-105.2281293">
  <ele>1583.02</ele>
  <time>2026-08-28T17:52:46Z</time>
  <course>167.45</course>
  <speed>3.8398567681620626</speed>
  <fix>3d</fix>
</trkpt>
<trkpt lat="40.071768" lon="-105.2281305">
  <ele>1583.0</ele>
  <time>2026-08-28T17:52:46Z</time>
  <course>166.72</course>
  <speed>4.0</speed>
  <fix>3d</fix>
</trkpt>
<trkpt lat="40.07176" lon="-105.2281283">
  <ele>1583.02</ele>
  <time>2026-08-28T17:52:46Z</time>
  <course>167.48</course>
  <speed>3.716180835212409</speed>
  <fix>3d</fix>
</trkpt>
<trkpt lat="40.071768" lon="-105.2281305">
  <ele>1583.0</ele>
  <time>2026-08-28T17:52:46Z</time>
  <course>166.72</course>
  <speed>4.0</speed>
  <fix>3d</fix>
</trkpt>
<trkpt lat="40.0717568" lon="-105.2281273">
  <ele>1583.02</ele>
  <time>2026-08-28T17:52:46Z</time>
  <course>167.53</course>
  <speed>3.5925060890693006</speed>
  <fix>3d</fix>
</trkpt>
<trkpt lat="40.071768" lon="-105.2281305">
  <ele>1583.0</ele>
  <time>2026-08-28T17:52:46Z</time>
  <course>166.72</course>
  <speed>4.0</speed>
  <fix>3d</fix>
</trkpt>
<trkpt lat="40.0717538" lon="-105.2281264">
  <ele>1583.02</ele>
  <time>2026-08-28T17:52:46Z</time>
  <course>167.57</course>
  <speed>3.4590894755701247</speed>
  <fix>3d</fix>
</trkpt>
<trkpt lat="40.0717612" lon="-105.2281285">
  <ele>1583.0</ele>
  <time>2026-08-28T17:52:46Z</time>
  <course>166.8</course>
  <speed>3.75</speed>
  <fix>3d</fix>
</trkpt>
<trkpt lat="40.0717508" lon="-105.2281255">
  <ele>1583.02</ele>
  <time>2026-08-28T17:52:46Z</time>
  <course>167.62</course>
  <speed>3.323431961090824</speed>
  <fix>3d</fix>
</trkpt>
<trkpt lat="40.0717612" lon="-105.2281285">
  <ele>1583.0</ele>
  <time>2026-08-28T17:52:46Z</time>
  <course>166.8</course>
  <speed>3.75</speed>
  <fix>3d</fix>
</trkpt>
<trkpt lat="40.071748" lon="-105.2281246">
  <ele>1583.02</ele>
  <time>2026-08-28T17:52:46Z</time>
  <course>167.67</course>
  <speed>3.1900156739426846</speed>
  <fix>3d</fix>
</trkpt>
<trkpt lat="40.0717549" lon="-105.2281265">
  <ele>1583.0</ele>
  <time>2026-08-28T17:52:46Z</time>
  <course>166.88</course>
  <speed>3.49</speed>
  <fix>3d</fix>
</trkpt>
<trkpt lat="40.0717453" lon="-105.2281238">
  <ele>1583.02</ele>
  <time>2026-08-28T17:52:46Z</time>
  <course>167.71</course>
  <speed>3.066349621292393</speed>
  <fix>3d</fix>
</trkpt>
<trkpt lat="40.0717549" lon="-105.2281265">
  <ele>1583.0</ele>
  <time>2026-08-28T17:52:46Z</time>
  <course>166.88</course>
  <speed>3.49</speed>
  <fix>3d</fix>
</trkpt>
<trkpt lat="40.0717427" lon="-105.228123">
  <ele>1583.01</ele>
  <time>2026-08-28T17:52:46Z</time>
  <course>167.75</course>
  <speed>2.9329336848964043</speed>
  <fix>3d</fix>
</trkpt>
<trkpt lat="40.0717489" lon="-105.2281247">
  <ele>1583.0</ele>
  <time>2026-08-28T17:52:46Z</time>
  <course>166.97</course>
  <speed>3.24</speed>
  <fix>3d</fix>
</trkpt>
<trkpt lat="40.0717402" lon="-105.2281222">
  <ele>1583.01</ele>
  <time>2026-08-28T17:52:46Z</time>
  <course>167.8</course>
  <speed>2.809270367906941</speed>
  <fix>3d</fix>
</trkpt>
<trkpt lat="40.0717435" lon="-105.2281231">
  <ele>1583.0</ele>
  <time>2026-08-28T17:52:46Z</time>
  <course>167.05</course>
  <speed>2.98</speed>
  <fix>3d</fix>
</trkpt>
<trkpt lat="40.0717378" lon="-105.2281215">
  <ele>1583.01</ele>
  <time>2026-08-28T17:52:46Z</time>
  <course>167.84</course>
  <speed>2.685609800399157</speed>
  <fix>3d</fix>
</trkpt>
<trkpt lat="40.0717435" lon="-105.2281231">
  <ele>1583.0</ele>
  <time>2026-08-28T17:52:46Z</time>
  <course>167.05</course>
  <speed>2.98</speed>
  <fix>3d</fix>
</trkpt>
<trkpt lat="40.0717355" lon="-105.2281208">
  <ele>1583.01</ele>
  <time>2026-08-28T17:52:46Z</time>
  <course>167.87</course>
  <speed>2.5641567814780752</speed>
  <fix>3d</fix>
</trkpt>
<trkpt lat="40.0717384" lon="-105.2281216">
  <ele>1583.0</ele>
  <time>2026-08-28T17:52:46Z</time>
  <course>167.13</course>
  <speed>2.74</speed>
  <fix>3d</fix>
</trkpt>
<trkpt lat="40.0717333" lon="-105.2281201">
  <ele>1583.01</ele>
  <time>2026-08-28T17:52:46Z</time>
  <course>167.91</course>
  <speed>2.450244885720609</speed>
  <fix>3d</fix>
</trkpt>
<trkpt lat="40.0717384" lon="-105.2281216">
  <ele>1583.0</ele>
  <time>2026-08-28T17:52:46Z</time>
  <course>167.13</course>
  <speed>2.74</speed>
  <fix>3d</fix>
</trkpt>
<trkpt lat="40.0717312" lon="-105.2281195">
  <ele>1583.01</ele>
  <time>2026-08-28T17:52:46Z</time>
  <course>167.94</course>
  <speed>2.336343296692504</speed>
  <fix>3d</fix>
</trkpt>
<trkpt lat="40.0717339" lon="-105.2281202">
  <ele>1583.0</ele>
  <time>2026-08-28T17:52:46Z</time>
  <course>167.2</course>
  <speed>2.5</speed>
  <fix>3d</fix>
</trkpt>
<trkpt lat="40.0717291" lon="-105.2281189">
  <ele>1583.01</ele>
  <time>2026-08-28T17:52:46Z</time>
  <course>167.98</course>
  <speed>2.2246348014898985</speed>
  <fix>3d</fix>
</trkpt>
<trkpt lat="40.0717339" lon="-105.2281202">
  <ele>1583.0</ele>
  <time>2026-08-28T17:52:46Z</time>
  <course>167.2</course>
  <speed>2.5</speed>
  <fix>3d</fix>
</trkpt>
<trkpt lat="40.0717272" lon="-105.2281183">
  <ele>1583.0</ele>
  <time>2026-08-28T17:52:46Z</time>
  <course>168.01</course>
  <speed>2.1107344693257843</speed>
  <fix>3d</fix>
</trkpt>
<trkpt lat="40.0717297" lon="-105.2281189">
  <ele>1583.0</ele>
  <time>2026-08-28T17:52:46Z</time>
  <course>167.27</course>
  <speed>2.28</speed>
  <fix>3d</fix>
</trkpt>
<trkpt lat="40.0717254" lon="-105.2281178">
  <ele>1583.0</ele>
  <time>2026-08-28T17:52:46Z</time>
  <course>168.04</course>
  <speed>1.9990247622278219</speed>
  <fix>3d</fix>
</trkpt>
<trkpt lat="40.0717297" lon="-105.2281189">
  <ele>1583.0</ele>
  <time>2026-08-28T17:52:46Z</time>
  <course>167.27</course>
  <speed>2.28</speed>
  <fix>3d</fix>
</trkpt>
<trkpt lat="40.0717237" lon="-105.2281173">
  <ele>1583.0</ele>
  <time>2026-08-28T17:52:46Z</time>
  <course>168.09</course>
  <speed>1.894887859478761</speed>
  <fix>3d</fix>
</trkpt>
<trkpt lat="40.0717258" lon="-105.2281179">
  <ele>1583.0</ele>
  <time>2026-08-28T17:52:46Z</time>
  <course>167.34</course>
  <speed>2.06</speed>
  <fix>3d</fix>
</trkpt>
<trkpt lat="40.071722" lon="-105.2281168">
  <ele>1583.0</ele>
  <time>2026-08-28T17:52:46Z</time>
  <course>168.14</course>
  <speed>1.7929305619571552</speed>
  <fix>3d</fix>
</trkpt>
<trkpt lat="40.0717258" lon="-105.2281179">
  <ele>1583.0</ele>
  <time>2026-08-28T17:52:46Z</time>
  <course>167.34</course>
  <speed>2.06</speed>
  <fix>3d</fix>
</trkpt>
<trkpt lat="40.0717205" lon="-105.2281163">
  <ele>1583.0</ele>
  <time>2026-08-28T17:52:46Z</time>
  <course>168.19</course>
  <speed>1.6888161534045085</speed>
  <fix>3d</fix>
</trkpt>
<trkpt lat="40.0717224" lon="-105.2281169">
  <ele>1583.0</ele>
  <time>2026-08-28T17:52:46Z</time>
  <course>167.42</course>
  <speed>1.85</speed>
  <fix>3d</fix>
</trkpt>
<trkpt lat="40.071719" lon="-105.2281159">
  <ele>1583.0</ele>
  <time>2026-08-28T17:52:46Z</time>
  <course>168.24</course>
  <speed>1.5868522300453813</speed>
  <fix>3d</fix>
</trkpt>
<trkpt lat="40.0717224" lon="-105.2281169">
  <ele>1583.0</ele>
  <time>2026-08-28T17:52:46Z</time>
  <course>167.42</course>
  <speed>1.85</speed>
  <fix>3d</fix>
</trkpt>
<trkpt lat="40.0717176" lon="-105.2281155">
  <ele>1583.0</ele>
  <time>2026-08-28T17:52:46Z</time>
  <course>168.29</course>
  <speed>1.4946571513226703</speed>
  <fix>3d</fix>
</trkpt>
<trkpt lat="40.0717194" lon="-105.228116">
  <ele>1583.0</ele>
  <time>2026-08-28T17:52:46Z</time>
  <course>167.52</course>
  <speed>1.65</speed>
  <fix>3d</fix>
</trkpt>
<trkpt lat="40.0717163" lon="-105.2281151">
  <ele>1583.0</ele>
  <time>2026-08-28T17:52:46Z</time>
  <course>168.35</course>
  <speed>1.3905754204644925</speed>
  <fix>3d</fix>
</trkpt>
<trkpt lat="40.0717194" lon="-105.228116">
  <ele>1583.0</ele>
  <time>2026-08-28T17:52:46Z</time>
  <course>167.52</course>
  <speed>1.65</speed>
  <fix>3d</fix>
</trkpt>
<trkpt lat="40.0717151" lon="-105.2281148">
  <ele>1583.0</ele>
  <time>2026-08-28T17:52:46Z</time>
  <course>168.41</course>
  <speed>1.2886038956948718</speed>
  <fix>3d</fix>
</trkpt>
<trkpt lat="40.0717194" lon="-105.228116">
  <ele>1583.0</ele>
  <time>2026-08-28T17:52:46Z</time>
  <course>167.52</course>
  <speed>1.65</speed>
  <fix>3d</fix>
</trkpt>
<trkpt lat="40.071714" lon="-105.2281145">
  <ele>1583.0</ele>
  <time>2026-08-28T17:52:46Z</time>
  <course>168.48</course>
  <speed>1.1964113005150028</speed>
  <fix>3d</fix>
</trkpt>
<trkpt lat="40.0717166" lon="-105.2281152">
  <ele>1583.0</ele>
  <time>2026-08-28T17:52:46Z</time>
  <course>167.63</course>
  <speed>1.45</speed>
  <fix>3d</fix>
</trkpt>
<trkpt lat="40.071713" lon="-105.2281142">
  <ele>1582.99</ele>
  <time>2026-08-28T17:52:46Z</time>
  <course>168.56</course>
  <speed>1.0923827168167757</speed>
  <fix>3d</fix>
</trkpt>
<trkpt lat="40.0717166" lon="-105.2281152">
  <ele>1583.0</ele>
  <time>2026-08-28T17:52:46Z</time>
  <course>167.63</course>
  <speed>1.45</speed>
  <fix>3d</fix>
</trkpt>
<trkpt lat="40.0717121" lon="-105.228114">
  <ele>1582.99</ele>
  <time>2026-08-28T17:52:46Z</time>
  <course>168.65</course>
  <speed>1.000199980003999</speed>
  <fix>3d</fix>
</trkpt>
<trkpt lat="40.0717142" lon="-105.2281145">
  <ele>1583.0</ele>
  <time>2026-08-28T17:52:46Z</time>
  <course>167.76</course>
  <speed>1.26</speed>
  <fix>3d</fix>
</trkpt>
<trkpt lat="40.0717112" lon="-105.2281137">
  <ele>1582.99</ele>
  <time>2026-08-28T17:52:46Z</time>
  <course>168.75</course>
  <speed>0.9080198235721508</speed>
  <fix>3d</fix>
</trkpt>
<trkpt lat="40.0717142" lon="-105.2281145">
  <ele>1583.0</ele>
  <time>2026-08-28T17:52:46Z</time>
  <course>167.76</course>
  <speed>1.26</speed>
  <fix>3d</fix>
</trkpt>
<trkpt lat="40.0717104" lon="-105.2281135">
  <ele>1582.99</ele>
  <time>2026-08-28T17:52:46Z</time>
  <course>168.85</course>
  <speed>0.8060397012554654</speed>
  <fix>3d</fix>
</trkpt>
<trkpt lat="40.0717122" lon="-105.2281139">
  <ele>1583.0</ele>
  <time>2026-08-28T17:52:46Z</time>
  <course>167.92</course>
  <speed>1.07</speed>
  <fix>3d</fix>
</trkpt>
<trkpt lat="40.0717098" lon="-105.2281133">
  <ele>1582.99</ele>
  <time>2026-08-28T17:52:46Z</time>
  <course>168.96</course>
  <speed>0.71386273190299</speed>
  <fix>3d</fix>
</trkpt>
<trkpt lat="40.0717122" lon="-105.2281139">
  <ele>1583.0</ele>
  <time>2026-08-28T17:52:46Z</time>
  <course>167.92</course>
  <speed>1.07</speed>
  <fix>3d</fix>
</trkpt>
<trkpt lat="40.0717091" lon="-105.2281132">
  <ele>1582.99</ele>
  <time>2026-08-28T17:52:46Z</time>
  <course>169.06</course>
  <speed>0.6118823416311342</speed>
  <fix>3d</fix>
</trkpt>
<trkpt lat="40.0717104" lon="-105.2281134">
  <ele>1583.0</ele>
  <time>2026-08-28T17:52:46Z</time>
  <course>168.12</course>
  <speed>0.88</speed>
  <fix>3d</fix>
</trkpt>
<trkpt lat="40.0717086" lon="-105.228113">
  <ele>1582.99</ele>
  <time>2026-08-28T17:52:46Z</time>
  <course>169.17</course>
  <speed>0.517880295048962</speed>
  <fix>3d</fix>
</trkpt>
<trkpt lat="40.0717091" lon="-105.2281131">
  <ele>1583.0</ele>
  <time>2026-08-28T17:52:46Z</time>
  <course>168.32</course>
  <speed>0.68</speed>
  <fix>3d</fix>
</trkpt>
<trkpt lat="40.0717082" lon="-105.2281129">
  <ele>1583.0</ele>
  <time>2026-08-28T17:52:46Z</time>
  <course>169.27</course>
  <speed>0.42579337712087534</speed>
  <fix>3d</fix>
</trkpt>
<trkpt lat="40.0717091" lon="-105.2281131">
  <ele>1583.0</ele>
  <time>2026-08-28T17:52:46Z</time>
  <course>168.32</course>
  <speed>0.68</speed>
  <fix>3d</fix>
</trkpt>
<trkpt lat="40.0717078" lon="-105.2281128">
  <ele>1583.0</ele>
  <time>2026-08-28T17:52:46Z</time>
  <course>169.36</course>
  <speed>0.3238826948140329</speed>
  <fix>3d</fix>
</trkpt>
<trkpt lat="40.071708" lon="-105.2281127">
  <ele>1583.0</ele>
  <time>2026-08-28T17:52:46Z</time>
  <course>168.52</course>
  <speed>0.49</speed>
  <fix>3d</fix>
</trkpt>
<trkpt lat="40.0717075" lon="-105.2281127">
  <ele>1583.0</ele>
  <time>2026-08-28T17:52:46Z</time>
  <course>169.43</course>
  <speed>0.23194827009486402</speed>
  <fix>3d</fix>
</trkpt>
<trkpt lat="40.071708" lon="-105.2281127">
  <ele>1583.0</ele>
  <time>2026-08-28T17:52:46Z</time>
  <course>168.52</course>
  <speed>0.49</speed>
  <fix>3d</fix>
</trkpt>
<trkpt lat="40.0717073" lon="-105.2281127">
  <ele>1583.0</ele>
  <time>2026-08-28T17:52:46Z</time>
  <course>169.49</course>
  <speed>0.1414213562373095</speed>
  <fix>3d</fix>
</trkpt>
<trkpt lat="40.0717073" lon="-105.2281126">
  <ele>1583.0</ele>
  <time>2026-08-28T17:52:46Z</time>
  <course>168.67</course>
  <speed>0.3</speed>
  <fix>3d</fix>
</trkpt>
<trkpt lat="40.0717072" lon="-105.2281127">
  <ele>1583.0</ele>
  <time>2026-08-28T17:52:46Z</time>
  <course>169.5</course>
  <speed>0.05</speed>
  <fix>3d</fix>
</trkpt>
<trkpt lat="40.0717073" lon="-105.2281126">
  <ele>1583.0</ele>
  <time>2026-08-28T17:52:46Z</time>
  <course>168.67</course>
  <speed>0.3</speed>
  <fix>3d</fix>
</trkpt>
<trkpt lat="40.0717072" lon="-105.2281127">
  <ele>1583.0</ele>
  <time>2026-08-28T17:52:46Z</time>
  <course>169.52</course>
  <speed>0.0316227766016838</speed>
  <fix>3d</fix>
</trkpt>
<trkpt lat="40.0717069" lon="-105.2281125">
  <ele>1583.0</ele>
  <time>2026-08-28T17:52:46Z</time>
  <course>168.76</course>
  <speed>0.12</speed>
  <fix>3d</fix>
</trkpt>
<trkpt lat="40.0717072" lon="-105.2281127">
  <ele>1583.0</ele>
  <time>2026-08-28T17:52:46Z</time>
  <course>169.53</course>
  <speed>0.11401754250991379</speed>
  <fix>3d</fix>
</trkpt>
<trkpt lat="40.0717069" lon="-105.2281125">
  <ele>1583.0</ele>
  <time>2026-08-28T17:52:46Z</time>
  <course>168.76</course>
  <speed>0.12</speed>
  <fix>3d</fix>
</trkpt>
<trkpt lat="40.0717073" lon="-105.2281127">
  <ele>1582.99</ele>
  <time>2026-08-28T17:52:46Z</time>
  <course>169.66</course>
  <speed>0.18439088914585774</speed>
  <fix>3d</fix>
</trkpt>
<trkpt lat="40.0717069" lon="-105.2281125">
  <ele>1583.0</ele>
  <time>2026-08-28T17:52:46Z</time>
  <course>348.95</course>
  <speed>0.04</speed>
  <fix>3d</fix>
</trkpt>
<trkpt lat="40.0717075" lon="-105.2281127">
  <ele>1583.0</ele>
  <time>2026-08-28T17:52:46Z</time>
  <course>169.97</course>
  <speed>0.24515301344262524</speed>
  <fix>3d</fix>
</trkpt>
<trkpt lat="40.0717069" lon="-105.2281125">
  <ele>1583.0</ele>
  <time>2026-08-28T17:52:46Z</time>
  <course>348.95</course>
  <speed>0.04</speed>
  <fix>3d</fix>
</trkpt>
<trkpt lat="40.0717076" lon="-105.2281127">
  <ele>1583.0</ele>
  <time>2026-08-28T17:52:46Z</time>
  <course>170.46</course>
  <speed>0.2863564212655271</speed>
  <fix>3d</fix>
</trkpt>
<trkpt lat="40.0717071" lon="-105.2281125">
  <ele>1583.0</ele>
  <time>2026-08-28T17:52:46Z</time>
  <course>349.42</course>
  <speed>0.17</speed>
  <fix>3d</fix>
</trkpt>
<trkpt lat="40.0717078" lon="-105.2281128">
  <ele>1583.0</ele>
  <time>2026-08-28T17:52:46Z</time>
  <course>171.12</course>
  <speed>0.3059411708155671</speed>
  <fix>3d</fix>
</trkpt>
<trkpt lat="40.0717071" lon="-105.2281125">
  <ele>1583.0</ele>
  <time>2026-08-28T17:52:46Z</time>
  <course>349.42</course>
  <speed>0.17</speed>
  <fix>3d</fix>
</trkpt>
<trkpt lat="40.0717081" lon="-105.2281128">
  <ele>1583.01</ele>
  <time>2026-08-28T17:52:46Z</time>
  <course>171.92</course>
  <speed>0.3059411708155671</speed>
  <fix>3d</fix>
</trkpt>
<trkpt lat="40.0717073" lon="-105.2281125">
  <ele>1583.0</ele>
  <time>2026-08-28T17:52:46Z</time>
  <course>350.49</course>
  <speed>0.23</speed>
  <fix>3d</fix>
</trkpt>
<trkpt lat="40.0717083" lon="-105.2281129">
  <ele>1583.01</ele>
  <time>2026-08-28T17:52:46Z</time>
  <course>172.81</course>
  <speed>0.29614185789921693</speed>
  <fix>3d</fix>
</trkpt>
<trkpt lat="40.0717073" lon="-105.2281125">
  <ele>1583.0</ele>
  <time>2026-08-28T17:52:46Z</time>
  <course>350.49</course>
  <speed>0.23</speed>
  <fix>3d</fix>
</trkpt>
<trkpt lat="40.0717085" lon="-105.2281129">
  <ele>1583.01</ele>
  <time>2026-08-28T17:52:46Z</time>
  <course>173.72</course>
  <speed>0.28442925306655786</speed>
  <fix>3d</fix>
</trkpt>
<trkpt lat="40.0717073" lon="-105.2281125">
  <ele>1583.0</ele>
  <time>2026-08-28T17:52:46Z</time>
  <course>350.49</course>
  <speed>0.23</speed>
  <fix>3d</fix>
</trkpt>
<trkpt lat="40.0717087" lon="-105.2281129">
  <ele>1583.01</ele>
  <time>2026-08-28T17:52:46Z</time>
  <course>174.61</course>
  <speed>0.24515301344262524</speed>
  <fix>3d</fix>
</trkpt>
<trkpt lat="40.0717078" lon="-105.2281126">
  <ele>1583.0</ele>
  <time>2026-08-28T17:52:46Z</time>
  <course>352.03</course>
  <speed>0.23</speed>
  <fix>3d</fix>
</trkpt>
<trkpt lat="40.0717088" lon="-105.228113">
  <ele>1583.02</ele>
  <time>2026-08-28T17:52:46Z</time>
  <course>175.42</course>
  <speed>0.21377558326431947</speed>
  <fix>3d</fix>
</trkpt>
<trkpt lat="40.0717078" lon="-105.2281126">
  <ele>1583.0</ele>
  <time>2026-08-28T17:52:46Z</time>
  <course>352.03</course>
  <speed>0.23</speed>
  <fix>3d</fix>
</trkpt>
<trkpt lat="40.071709" lon="-105.228113">
  <ele>1583.02</ele>
  <time>2026-08-28T17:52:46Z</time>
  <course>176.07</course>
  <speed>0.1649242250247064</speed>
  <fix>3d</fix>
</trkpt>
<trkpt lat="40.0717082" lon="-105.2281127">
  <ele>1583.0</ele>
  <time>2026-08-28T17:52:46Z</time>
  <course>353.68</course>
  <speed>0.19</speed>
  <fix>3d</fix>
</trkpt>
<trkpt lat="40.071709" lon="-105.228113">
  <ele>1583.02</ele>
  <time>2026-08-28T17:52:46Z</time>
  <course>176.52</course>
  <speed>0.1044030650891055</speed>
  <fix>3d</fix>
</trkpt>
<trkpt lat="40.0717082" lon="-105.2281127">
  <ele>1583.0</ele>
  <time>2026-08-28T17:52:46Z</time>
  <course>353.68</course>
  <speed>0.19</speed>
  <fix>3d</fix>
</trkpt>
<trkpt lat="40.071709" lon="-105.228113">
  <ele>1583.02</ele>
  <time>2026-08-28T17:52:46Z</time>
  <course>176.71</course>
  <speed>0.05830951894845301</speed>
  <fix>3d</fix>
</trkpt>
<trkpt lat="40.0717085" lon="-105.2281127">
  <ele>1583.0</ele>
  <time>2026-08-28T17:52:46Z</time>
  <course>354.97</course>
  <speed>0.1</speed>
  <fix>3d</fix>
</trkpt>
<trkpt lat="40.071709" lon="-105.228113">
  <ele>1583.02</ele>
  <time>2026-08-28T17:52:46Z</time>
  <course>176.59</course>
  <speed>0.03</speed>
  <fix>3d</fix>
</trkpt>
<trkpt lat="40.0717086" lon="-105.2281127">
  <ele>1583.0</ele>
  <time>2026-08-28T17:52:46Z</time>
  <course>355.25</course>
  <speed>0.0</speed>
  <fix>3d</fix>
</trkpt>
<trkpt lat="40.0717089" lon="-105.228113">
  <ele>1583.02</ele>
  <time>2026-08-28T17:52:46Z</time>
  <course>177.04</course>
  <speed>0.07615773105863909</speed>
  <fix>3d</fix>
</trkpt>
<trkpt lat="40.0717086" lon="-105.2281127">
  <ele>1583.0</ele>
  <time>2026-08-28T17:52:46Z</time>
  <course>355.25</course>
  <speed>0.0</speed>
  <fix>3d</fix>
</trkpt>
<trkpt lat="40.0717088" lon="-105.228113">
  <ele>1583.02</ele>
  <time>2026-08-28T17:52:46Z</time>
  <course>177.85</course>
  <speed>0.13341664064126335</speed>
  <fix>3d</fix>
</trkpt>
<trkpt lat="40.0717085" lon="-105.2281127">
  <ele>1583.0</ele>
  <time>2026-08-28T17:52:46Z</time>
  <course>176.81</course>
  <speed>0.1</speed>
  <fix>3d</fix>
</trkpt>
<trkpt lat="40.0717086" lon="-105.228113">
  <ele>1583.02</ele>
  <time>2026-08-28T17:52:46Z</time>
  <course>178.98</course>
  <speed>0.19235384061671343</speed>
  <fix>3d</fix>
</trkpt>
<trkpt lat="40.0717085" lon="-105.2281127">
  <ele>1583.0</ele>
  <time>2026-08-28T17:52:46Z</time>
  <course>176.81</course>
  <speed>0.1</speed>
  <fix>3d</fix>
</trkpt>
<trkpt lat="40.0717083" lon="-105.228113">
  <ele>1583.02</ele>
  <time>2026-08-28T17:52:46Z</time>
  <course>180.48</course>
  <speed>0.24186773244895649</speed>
  <fix>3d</fix>
</trkpt>
<trkpt lat="40.0717082" lon="-105.2281127">
  <ele>1583.0</ele>
  <time>2026-08-28T17:52:46Z</time>
  <course>178.75</course>
  <speed>0.22</speed>
  <fix>3d</fix>
</trkpt>
<trkpt lat="40.0717081" lon="-105.228113">
  <ele>1583.02</ele>
  <time>2026-08-28T17:52:46Z</time>
  <course>182.3</course>
  <speed>0.304138126514911</speed>
  <fix>3d</fix>
</trkpt>
<trkpt lat="40.0717082" lon="-105.2281127">
  <ele>1583.0</ele>
  <time>2026-08-28T17:52:46Z</time>
  <course>178.75</course>
  <speed>0.22</speed>
  <fix>3d</fix>
</trkpt>
<trkpt lat="40.0717078" lon="-105.2281131">
  <ele>1583.02</ele>
  <time>2026-08-28T17:52:46Z</time>
  <course>184.43</course>
  <speed>0.35510561809129404</speed>
  <fix>3d</fix>
</trkpt>
<trkpt lat="40.0717078" lon="-105.2281127">
  <ele>1583.0</ele>
  <time>2026-08-28T17:52:46Z</time>
  <course>182.03</course>
  <speed>0.32</speed>
  <fix>3d</fix>
</trkpt>
<trkpt lat="40.0717074" lon="-105.2281131">
  <ele>1583.02</ele>
  <time>2026-08-28T17:52:46Z</time>
  <course>186.88</course>
  <speed>0.4079215610874228</speed>
  <fix>3d</fix>
</trkpt>
<trkpt lat="40.0717078" lon="-105.2281127">
  <ele>1583.0</ele>
  <time>2026-08-28T17:52:46Z</time>
  <course>182.03</course>
  <speed>0.32</speed>
  <fix>3d</fix>
</trkpt>
<trkpt lat="40.0717069" lon="-105.2281132">
  <ele>1583.02</ele>
  <time>2026-08-28T17:52:46Z</time>
  <course>189.59</course>
  <speed>0.4632493928760188</speed>
  <fix>3d</fix>
</trkpt>
<trkpt lat="40.0717071" lon="-105.2281128">
  <ele>1583.0</ele>
  <time>2026-08-28T17:52:46Z</time>
  <course>186.56</course>
  <speed>0.42</speed>
  <fix>3d</fix>
</trkpt>
<trkpt lat="40.0717065" lon="-105.2281133">
  <ele>1583.01</ele>
  <time>2026-08-28T17:52:46Z</time>
  <course>192.53</course>
  <speed>0.5124451190127582</speed>
  <fix>3d</fix>
</trkpt>
<trkpt lat="40.0717071" lon="-105.2281128">
  <ele>1583.0</ele>
  <time>2026-08-28T17:52:46Z</time>
  <course>186.56</course>
  <speed>0.42</speed>
  <fix>3d</fix>
</trkpt>
<trkpt lat="40.071706" lon="-105.2281135">
  <ele>1583.01</ele>
  <time>2026-08-28T17:52:46Z</time>
  <course>195.65</course>
  <speed>0.5630275304103699</speed>
  <fix>3d</fix>
</trkpt>
<trkpt lat="40.0717063" lon="-105.228113">
  <ele>1583.0</ele>
  <time>2026-08-28T17:52:46Z</time>
  <course>192.14</course>
  <speed>0.52</speed>
  <fix>3d</fix>
</trkpt>
<trkpt lat="40.0717054" lon="-105.2281137">
  <ele>1583.01</ele>
  <time>2026-08-28T17:52:46Z</time>
  <course>198.9</course>
  <speed>0.6053924347066124</speed>
  <fix>3d</fix>
</trkpt>
<trkpt lat="40.0717063" lon="-105.228113">
  <ele>1583.0</ele>
  <time>2026-08-28T17:52:46Z</time>
  <course>192.14</course>
  <speed>0.52</speed>
  <fix>3d</fix>
</trkpt>
<trkpt lat="40.0717049" lon="-105.228114">
  <ele>1583.01</ele>
  <time>2026-08-28T17:52:46Z</time>
  <course>202.24</course>
  <speed>0.6530696746902278</speed>
  <fix>3d</fix>
</trkpt>
<trkpt lat="40.0717053" lon="-105.2281133">
  <ele>1583.0</ele>
  <time>2026-08-28T17:52:46Z</time>
  <course>198.45</course>
  <speed>0.6</speed>
  <fix>3d</fix>
</trkpt>
<trkpt lat="40.0717043" lon="-105.2281143">
  <ele>1583.02</ele>
  <time>2026-08-28T17:52:46Z</time>
  <course>205.63</course>
  <speed>0.7071067811865476</speed>
  <fix>3d</fix>
</trkpt>
<trkpt lat="40.0717053" lon="-105.2281133">
  <ele>1583.0</ele>
  <time>2026-08-28T17:52:46Z</time>
  <course>198.45</course>
  <speed>0.6</speed>
  <fix>3d</fix>
</trkpt>
<trkpt lat="40.0717037" lon="-105.2281147">
  <ele>1583.02</ele>
  <time>2026-08-28T17:52:46Z</time>
  <course>209.04</course>
  <speed>0.7547184905645282</speed>
  <fix>3d</fix>
</trkpt>
<trkpt lat="40.0717053" lon="-105.2281133">
  <ele>1583.0</ele>
  <time>2026-08-28T17:52:46Z</time>
  <course>198.45</course>
  <speed>0.6</speed>
  <fix>3d</fix>
</trkpt>
<trkpt lat="40.0717031" lon="-105.2281152">
  <ele>1583.02</ele>
  <time>2026-08-28T17:52:46Z</time>
  <course>212.42</course>
  <speed>0.8044874144447506</speed>
  <fix>3d</fix>
</trkpt>
<trkpt lat="40.0717042" lon="-105.2281139">
  <ele>1583.0</ele>
  <time>2026-08-28T17:52:46Z</time>
  <course>205.15</course>
  <speed>0.69</speed>
  <fix>3d</fix>
</trkpt>
<trkpt lat="40.0717025" lon="-105.2281157">
  <ele>1583.02</ele>
  <time>2026-08-28T17:52:46Z</time>
  <course>215.72</course>
  <speed>0.8621484790916237</speed>
  <fix>3d</fix>
</trkpt>
<trkpt lat="40.0717042" lon="-105.2281139">
  <ele>1583.0</ele>
  <time>2026-08-28T17:52:46Z</time>
  <course>205.15</course>
  <speed>0.69</speed>
  <fix>3d</fix>
</trkpt>
<trkpt lat="40.0717018" lon="-105.2281163">
  <ele>1583.02</ele>
  <time>2026-08-28T17:52:46Z</time>
  <course>218.89</course>
  <speed>0.9143850392476902</speed>
  <fix>3d</fix>
</trkpt>
<trkpt lat="40.071703" lon="-105.2281148">
  <ele>1583.0</ele>
  <time>2026-08-28T17:52:46Z</time>
  <course>211.9</course>
  <speed>0.79</speed>
  <fix>3d</fix>
</trkpt>
<trkpt lat="40.0717012" lon="-105.2281171">
  <ele>1583.02</ele>
  <time>2026-08-28T17:52:46Z</time>
  <course>221.88</course>
  <speed>0.9689685237405805</speed>
  <fix>3d</fix>
</trkpt>
<trkpt lat="40.071703" lon="-105.2281148">
  <ele>1583.0</ele>
  <time>2026-08-28T17:52:46Z</time>
  <course>211.9</course>
  <speed>0.79</speed>
  <fix>3d</fix>
</trkpt>
<trkpt lat="40.0717005" lon="-105.2281178">
  <ele>1583.02</ele>
  <time>2026-08-28T17:52:46Z</time>
  <course>224.5</course>
  <speed>1.0255242561733973</speed>
  <fix>3d</fix>
</trkpt>
<trkpt lat="40.0717018" lon="-105.2281159">
  <ele>1583.0</ele>
  <time>2026-08-28T17:52:46Z</time>
  <course>218.31</course>
  <speed>0.89</speed>
  <fix>3d</fix>
</trkpt>
<trkpt lat="40.0716998" lon="-105.2281187">
  <ele>1583.02</ele>
  <time>2026-08-28T17:52:46Z</time>
  <course>226.67</course>
  <speed>1.0978615577567146</speed>
  <fix>3d</fix>
</trkpt>
<trkpt lat="40.0717018" lon="-105.2281159">
  <ele>1583.0</ele>
  <time>2026-08-28T17:52:46Z</time>
  <course>218.31</course>
  <speed>0.89</speed>
  <fix>3d</fix>
</trkpt>
<trkpt lat="40.0716992" lon="-105.2281197">
  <ele>1583.02</ele>
  <time>2026-08-28T17:52:46Z</time>
  <course>228.49</course>
  <speed>1.163872845288522</speed>
  <fix>3d</fix>
</trkpt>
<trkpt lat="40.0717005" lon="-105.2281174">
  <ele>1583.0</ele>
  <time>2026-08-28T17:52:46Z</time>
  <course>223.74</course>
  <speed>1.01</speed>
  <fix>3d</fix>
</trkpt>
<trkpt lat="40.0716985" lon="-105.2281208">
  <ele>1583.02</ele>
  <time>2026-08-28T17:52:46Z</time>
  <course>230.01</course>
  <speed>1.2306502346320827</speed>
  <fix>3d</fix>
</trkpt>
<trkpt lat="40.0716992" lon="-105.2281192">
  <ele>1583.0</ele>
  <time>2026-08-28T17:52:46Z</time>
  <course>227.76</course>
  <speed>1.14</speed>
  <fix>3d</fix>
</trkpt>
<trkpt lat="40.0716977" lon="-105.2281219">
  <ele>1583.02</ele>
  <time>2026-08-28T17:52:46Z</time>
  <course>231.29</course>
  <speed>1.3041855696180662</speed>
  <fix>3d</fix>
</trkpt>
<trkpt lat="40.0716992" lon="-105.2281192">
  <ele>1583.0</ele>
  <time>2026-08-28T17:52:46Z</time>
  <course>227.76</course>
  <speed>1.14</speed>
  <fix>3d</fix>
</trkpt>
<trkpt lat="40.071697" lon="-105.2281231">
  <ele>1583.02</ele>
  <time>2026-08-28T17:52:46Z</time>
  <course>232.36</course>
  <speed>1.386001443000692</speed>
  <fix>3d</fix>
</trkpt>
<trkpt lat="40.0716977" lon="-105.2281213">
  <ele>1583.0</ele>
  <time>2026-08-28T17:52:46Z</time>
  <course>230.58</course>
  <speed>1.28</speed>
  <fix>3d</fix>
</trkpt>
<trkpt lat="40.0716962" lon="-105.2281244">
  <ele>1583.02</ele>
  <time>2026-08-28T17:52:46Z</time>
  <course>233.27</course>
  <speed>1.4682302271782857</speed>
  <fix>3d</fix>
</trkpt>
<trkpt lat="40.0716977" lon="-105.2281213">
  <ele>1583.0</ele>
  <time>2026-08-28T17:52:46Z</time>
  <course>230.58</course>
  <speed>1.28</speed>
  <fix>3d</fix>
</trkpt>
<trkpt lat="40.0716954" lon="-105.2281259">
  <ele>1583.02</ele>
  <time>2026-08-28T17:52:46Z</time>
  <course>234.05</course>
  <speed>1.5508062419270823</speed>
  <fix>3d</fix>
</trkpt>
<trkpt lat="40.0716962" lon="-105.2281238">
  <ele>1583.0</ele>
  <time>2026-08-28T17:52:46Z</time>
  <course>232.59</course>
  <speed>1.43</speed>
  <fix>3d</fix>
</trkpt>
<trkpt lat="40.0716945" lon="-105.2281274">
  <ele>1583.02</ele>
  <time>2026-08-28T17:52:46Z</time>
  <course>234.72</course>
  <speed>1.63932913107771</speed>
  <fix>3d</fix>
</trkpt>
<trkpt lat="40.0716962" lon="-105.2281238">
  <ele>1583.0</ele>
  <time>2026-08-28T17:52:46Z</time>
  <course>232.59</course>
  <speed>1.43</speed>
  <fix>3d</fix>
</trkpt>
<trkpt lat="40.0716937" lon="-105.228129">
  <ele>1583.02</ele>
  <time>2026-08-28T17:52:46Z</time>
  <course>235.29</course>
  <speed>1.727946758439044</speed>
  <fix>3d</fix>
</trkpt>
<trkpt lat="40.0716946" lon="-105.2281266">
  <ele>1583.0</ele>
  <time>2026-08-28T17:52:46Z</time>
  <course>234.05</course>
  <speed>1.6</speed>
  <fix>3d</fix>
</trkpt>
<trkpt lat="40.0716927" lon="-105.2281307">
  <ele>1583.01</ele>
  <time>2026-08-28T17:52:46Z</time>
  <course>235.78</course>
  <speed>1.8166452598127132</speed>
  <fix>3d</fix>
</trkpt>
<trkpt lat="40.0716946" lon="-105.2281266">
  <ele>1583.0</ele>
  <time>2026-08-28T17:52:46Z</time>
  <course>234.05</course>
  <speed>1.6</speed>
  <fix>3d</fix>
</trkpt>
<trkpt lat="40.0716918" lon="-105.2281325">
  <ele>1583.01</ele>
  <time>2026-08-28T17:52:46Z</time>
  <course>236.2</course>
  <speed>1.9137659209004638</speed>
  <fix>3d</fix>
</trkpt>
<trkpt lat="40.0716928" lon="-105.2281299">
  <ele>1583.0</ele>
  <time>2026-08-28T17:52:46Z</time>
  <course>235.11</course>
  <speed>1.78</speed>
  <fix>3d</fix>
</trkpt>
<trkpt lat="40.0716908" lon="-105.2281344">
  <ele>1583.01</ele>
  <time>2026-08-28T17:52:46Z</time>
  <course>236.55</course>
  <speed>2.008083663595718</speed>
  <fix>3d</fix>
</trkpt>
<trkpt lat="40.0716928" lon="-105.2281299">
  <ele>1583.0</ele>
  <time>2026-08-28T17:52:46Z</time>
  <course>235.11</course>
  <speed>1.78</speed>
  <fix>3d</fix>
</trkpt>
<trkpt lat="40.0716898" lon="-105.2281364">
  <ele>1583.01</ele>
  <time>2026-08-28T17:52:46Z</time>
  <course>236.85</course>
  <speed>2.10535032714273</speed>
  <fix>3d</fix>
</trkpt>
<trkpt lat="40.0716908" lon="-105.2281335">
  <ele>1583.0</ele>
  <time>2026-08-28T17:52:46Z</time>
  <course>235.89</course>
  <speed>1.97</speed>
  <fix>3d</fix>
</trkpt>
<trkpt lat="40.0716887" lon="-105.2281385">
  <ele>1583.01</ele>
  <time>2026-08-28T17:52:46Z</time>
  <course>237.12</course>
  <speed>2.2080987296767325</speed>
  <fix>3d</fix>
</trkpt>
<trkpt lat="40.0716908" lon="-105.2281335">
  <ele>1583.0</ele>
  <time>2026-08-28T17:52:46Z</time>
  <course>235.89</course>
  <speed>1.97</speed>
  <fix>3d</fix>
</trkpt>
<trkpt lat="40.0716876" lon="-105.2281408">
  <ele>1583.0</ele>
  <time>2026-08-28T17:52:46Z</time>
  <course>237.34</course>
  <speed>2.3108656386730924</speed>
  <fix>3d</fix>
</trkpt>
<trkpt lat="40.0716888" lon="-105.2281376">
  <ele>1583.0</ele>
  <time>2026-08-28T17:52:46Z</time>
  <course>236.47</course>
  <speed>2.16</speed>
  <fix>3d</fix>
</trkpt>
<trkpt lat="40.0716864" lon="-105.2281431">
  <ele>1583.0</ele>
  <time>2026-08-28T17:52:46Z</time>
  <course>237.54</course>
  <speed>2.4136486902612817</speed>
  <fix>3d</fix>
</trkpt>
<trkpt lat="40.0716888" lon="-105.2281376">
  <ele>1583.0</ele>
  <time>2026-08-28T17:52:46Z</time>
  <course>236.47</course>
  <speed>2.16</speed>
  <fix>3d</fix>
</trkpt>
<trkpt lat="40.0716852" lon="-105.2281455">
  <ele>1583.0</ele>
  <time>2026-08-28T17:52:46Z</time>
  <course>237.71</course>
  <speed>2.516445906432324</speed>
  <fix>3d</fix>
</trkpt>
<trkpt lat="40.0716888" lon="-105.2281376">
  <ele>1583.0</ele>
  <time>2026-08-28T17:52:46Z</time>
  <course>236.47</course>
  <speed>2.16</speed>
  <fix>3d</fix>
</trkpt>
<trkpt lat="40.0716839" lon="-105.228148">
  <ele>1583.0</ele>
  <time>2026-08-28T17:52:46Z</time>
  <course>237.84</course>
  <speed>2.6192556194461054</speed>
  <fix>3d</fix>
</trkpt>
<trkpt lat="40.0716866" lon="-105.228142">
  <ele>1583.0</ele>
  <time>2026-08-28T17:52:46Z</time>
  <course>236.9</course>
  <speed>2.36</speed>
  <fix>3d</fix>
</trkpt>
<trkpt lat="40.0716826" lon="-105.2281506">
  <ele>1583.0</ele>
  <time>2026-08-28T17:52:46Z</time>
  <course>237.97</course>
  <speed>2.722076413328619</speed>
  <fix>3d</fix>
</trkpt>
<trkpt lat="40.0716866" lon="-105.228142">
  <ele>1583.0</ele>
  <time>2026-08-28T17:52:46Z</time>
  <course>236.9</course>
  <speed>2.36</speed>
  <fix>3d</fix>
</trkpt>
<trkpt lat="40.0716813" lon="-105.2281533">
  <ele>1583.0</ele>
  <time>2026-08-28T17:52:46Z</time>
  <course>238.07</course>
  <speed>2.824907078117792</speed>
  <fix>3d</fix>
</trkpt>
<trkpt lat="40.0716842" lon="-105.2281469">
  <ele>1583.0</ele>
  <time>2026-08-28T17:52:46Z</time>
  <course>237.22</course>
  <speed>2.57</speed>
  <fix>3d</fix>
</trkpt>
<trkpt lat="40.0716799" lon="-105.2281561">
  <ele>1583.0</ele>
  <time>2026-08-28T17:52:46Z</time>
  <course>238.15</course>
  <speed>2.933018922543801</speed>
  <fix>3d</fix>
</trkpt>
<trkpt lat="40.0716842" lon="-105.2281469">
  <ele>1583.0</ele>
  <time>2026-08-28T17:52:46Z</time>
  <course>237.22</course>
  <speed>2.57</speed>
  <fix>3d</fix>
</trkpt>
<trkpt lat="40.0716785" lon="-105.2281591">
  <ele>1583.0</ele>
  <time>2026-08-28T17:52:46Z</time>
  <course>238.22</course>
  <speed>3.035852433831394</speed>
  <fix>3d</fix>
</trkpt>
<trkpt lat="40.0716816" lon="-105.2281522">
  <ele>1583.0</ele>
  <time>2026-08-28T17:52:46Z</time>
  <course>237.45</course>
  <speed>2.78</speed>
  <fix>3d</fix>
</trkpt>
<trkpt lat="40.071677" lon="-105.2281621">
  <ele>1583.0</ele>
  <time>2026-08-28T17:52:46Z</time>
  <course>238.28</course>
  <speed>3.1386939959161357</speed>
  <fix>3d</fix>
</trkpt>
<trkpt lat="40.0716788" lon="-105.228158">
  <ele>1583.0</ele>
  <time>2026-08-28T17:52:46Z</time>
  <course>237.62</course>
  <speed>2.99</speed>
  <fix>3d</fix>
</trkpt>
<trkpt lat="40.0716755" lon="-105.2281653">
  <ele>1583.0</ele>
  <time>2026-08-28T17:52:46Z</time>
  <course>238.32</course>
  <speed>3.246798423062325</speed>
  <fix>3d</fix>
</trkpt>
<trkpt lat="40.0716788" lon="-105.228158">
  <ele>1583.0</ele>
  <time>2026-08-28T17:52:46Z</time>
  <course>237.62</course>
  <speed>2.99</speed>
  <fix>3d</fix>
</trkpt>
<trkpt lat="40.0716739" lon="-105.2281685">
  <ele>1583.0</ele>
  <time>2026-08-28T17:52:46Z</time>
  <course>238.36</course>
  <speed>3.349641771891436</speed>
  <fix>3d</fix>
</trkpt>
<trkpt lat="40.0716758" lon="-105.2281641">
  <ele>1583.0</ele>
  <time>2026-08-28T17:52:46Z</time>
  <course>237.73</course>
  <speed>3.2</speed>
  <fix>3d</fix>
</trkpt>
<trkpt lat="40.0716723" lon="-105.2281719">
  <ele>1583.0</ele>
  <time>2026-08-28T17:52:46Z</time>
  <course>238.41</course>
  <speed>3.4577449298639715</speed>
  <fix>3d</fix>
</trkpt>
<trkpt lat="40.0716758" lon="-105.2281641">
  <ele>1583.0</ele>
  <time>2026-08-28T17:52:46Z</time>
  <course>237.73</course>
  <speed>3.2</speed>
  <fix>3d</fix>
</trkpt>
<trkpt lat="40.0716706" lon="-105.2281754">
  <ele>1583.0</ele>
  <time>2026-08-28T17:52:46Z</time>
  <course>238.43</course>
  <speed>3.560589838776716</speed>
  <fix>3d</fix>
</trkpt>
<trkpt lat="40.0716726" lon="-105.2281706">
  <ele>1583.0</ele>
  <time>2026-08-28T17:52:46Z</time>
  <course>237.81</course>
  <speed>3.41</speed>
  <fix>3d</fix>
</trkpt>
<trkpt lat="40.0716689" lon="-105.228179">
  <ele>1583.0</ele>
  <time>2026-08-28T17:52:46Z</time>
  <course>238.44</course>
  <speed>3.6686918649567724</speed>
  <fix>3d</fix>
</trkpt>
<trkpt lat="40.0716726" lon="-105.2281706">
  <ele>1583.0</ele>
  <time>2026-08-28T17:52:46Z</time>
  <course>237.81</course>
  <speed>3.41</speed>
  <fix>3d</fix>
</trkpt>
<trkpt lat="40.0716671" lon="-105.2281827">
  <ele>1583.0</ele>
  <time>2026-08-28T17:52:46Z</time>
  <course>238.44</course>
  <speed>3.7630306934703577</speed>
  <fix>3d</fix>
</trkpt>
<trkpt lat="40.0716692" lon="-105.2281776">
  <ele>1583.0</ele>
  <time>2026-08-28T17:52:46Z</time>
  <course>237.86</course>
  <speed>3.62</speed>
  <fix>3d</fix>
</trkpt>
<trkpt lat="40.0716653" lon="-105.2281865">
  <ele>1583.0</ele>
  <time>2026-08-28T17:52:46Z</time>
  <course>238.44</course>
  <speed>3.871136783943445</speed>
  <fix>3d</fix>
</trkpt>
<trkpt lat="40.0716692" lon="-105.2281776">
  <ele>1583.0</ele>
  <time>2026-08-28T17:52:46Z</time>
  <course>237.86</course>
  <speed>3.62</speed>
  <fix>3d</fix>
</trkpt>
<trkpt lat="40.0716634" lon="-105.2281904">
  <ele>1583.0</ele>
  <time>2026-08-28T17:52:46Z</time>
  <course>238.43</course>
  <speed>3.973977856002723</speed>
  <fix>3d</fix>
</trkpt>
<trkpt lat="40.0716657" lon="-105.228185">
  <ele>1583.0</ele>
  <time>2026-08-28T17:52:46Z</time>
  <course>237.86</course>
  <speed>3.83</speed>
  <fix>3d</fix>
</trkpt>
<trkpt lat="40.0716614" lon="-105.2281945">
  <ele>1582.99</ele>
  <time>2026-08-28T17:52:46Z</time>
  <course>238.43</course>
  <speed>4.073585644122386</speed>
  <fix>3d</fix>
</trkpt>
<trkpt lat="40.0716657" lon="-105.228185">
  <ele>1583.0</ele>
  <time>2026-08-28T17:52:46Z</time>
  <course>237.86</course>
  <speed>3.83</speed>
  <fix>3d</fix>
</trkpt>
<trkpt lat="40.0716594" lon="-105.2281986">
  <ele>1582.99</ele>
  <time>2026-08-28T17:52:46Z</time>
  <course>238.43</course>
  <speed>4.176421913552317</speed>
  <fix>3d</fix>
</trkpt>
<trkpt lat="40.0716619" lon="-105.2281929">
  <ele>1583.0</ele>
  <time>2026-08-28T17:52:46Z</time>
  <course>237.86</course>
  <speed>4.03</speed>
  <fix>3d</fix>
</trkpt>
<trkpt lat="40.0716574" lon="-105.2282028">
  <ele>1582.99</ele>
  <time>2026-08-28T17:52:46Z</time>
  <course>238.43</course>
  <speed>4.276037885706814</speed>
  <fix>3d</fix>
</trkpt>
<trkpt lat="40.0716619" lon="-105.2281929">
  <ele>1583.0</ele>
  <time>2026-08-28T17:52:46Z</time>
  <course>237.86</course>
  <speed>4.03</speed>
  <fix>3d</fix>
</trkpt>
<trkpt lat="40.0716553" lon="-105.2282071">
  <ele>1582.99</ele>
  <time>2026-08-28T17:52:46Z</time>
  <course>238.42</course>
  <speed>4.378869717175883</speed>
  <fix>3d</fix>
</trkpt>
<trkpt lat="40.071658" lon="-105.2282012">
  <ele>1583.0</ele>
  <time>2026-08-28T17:52:46Z</time>
  <course>237.86</course>
  <speed>4.23</speed>
  <fix>3d</fix>
</trkpt>
<trkpt lat="40.0716532" lon="-105.2282115">
  <ele>1582.99</ele>
  <time>2026-08-28T17:52:46Z</time>
  <course>238.42</course>
  <speed>4.473209138862166</speed>
  <fix>3d</fix>
</trkpt>
<trkpt lat="40.071658" lon="-105.2282012">
  <ele>1583.0</ele>
  <time>2026-08-28T17:52:46Z</time>
  <course>237.86</course>
  <speed>4.23</speed>
  <fix>3d</fix>
</trkpt>
<trkpt lat="40.071651" lon="-105.228216">
  <ele>1582.99</ele>
  <time>2026-08-28T17:52:46Z</time>
  <course>238.42</course>
  <speed>4.581320770258289</speed>
  <fix>3d</fix>
</trkpt>
<trkpt lat="40.071658" lon="-105.2282012">
  <ele>1583.0</ele>
  <time>2026-08-28T17:52:46Z</time>
  <course>237.86</course>
  <speed>4.23</speed>
  <fix>3d</fix>
</trkpt>
<trkpt lat="40.0716489" lon="-105.2282206">
  <ele>1582.99</ele>
  <time>2026-08-28T17:52:46Z</time>
  <course>238.42</course>
  <speed>4.675660381165424</speed>
  <fix>3d</fix>
</trkpt>
<trkpt lat="40.0716539" lon="-105.2282098">
  <ele>1583.0</ele>
  <time>2026-08-28T17:52:46Z</time>
  <course>237.86</course>
  <speed>4.43</speed>
  <fix>3d</fix>
</trkpt>
<trkpt lat="40.0716466" lon="-105.2282252">
  <ele>1582.99</ele>
  <time>2026-08-28T17:52:46Z</time>
  <course>238.41</course>
  <speed>4.77</speed>
  <fix>3d</fix>
</trkpt>
<trkpt lat="40.0716539" lon="-105.2282098">
  <ele>1583.0</ele>
  <time>2026-08-28T17:52:46Z</time>
  <course>237.86</course>
  <speed>4.43</speed>
  <fix>3d</fix>
</trkpt>
<trkpt lat="40.0716443" lon="-105.22823">
  <ele>1582.99</ele>
  <time>2026-08-28T17:52:46Z</time>
  <course>238.41</course>
  <speed>4.850566977168751</speed>
  <fix>3d</fix>
</trkpt>
<trkpt lat="40.0716496" lon="-105.2282187">
  <ele>1583.0</ele>
  <time>2026-08-28T17:52:46Z</time>
  <course>237.86</course>
  <speed>4.62</speed>
  <fix>3d</fix>
</trkpt>
<trkpt lat="40.071642" lon="-105.2282348">
  <ele>1582.99</ele>
  <time>2026-08-28T17:52:46Z</time>
  <course>238.41</course>
  <speed>4.936415703726743</speed>
  <fix>3d</fix>
</trkpt>
<trkpt lat="40.0716496" lon="-105.2282187">
  <ele>1583.0</ele>
  <time>2026-08-28T17:52:46Z</time>
  <course>237.86</course>
  <speed>4.62</speed>
  <fix>3d</fix>
</trkpt>
<trkpt lat="40.0716397" lon="-105.2282396">
  <ele>1582.99</ele>
  <time>2026-08-28T17:52:46Z</time>
  <course>238.4</course>
  <speed>5.016981164006896</speed>
  <fix>3d</fix>
</trkpt>
<trkpt lat="40.0716451" lon="-105.2282281">
  <ele>1583.0</ele>
  <time>2026-08-28T17:52:46Z</time>
  <course>237.86</course>
  <speed>4.81</speed>
  <fix>3d</fix>
</trkpt>
<trkpt lat="40.0716373" lon="-105.2282446">
  <ele>1582.99</ele>
  <time>2026-08-28T17:52:46Z</time>
  <course>238.4</course>
  <speed>5.080570834069731</speed>
  <fix>3d</fix>
</trkpt>
<trkpt lat="40.0716404" lon="-105.2282379">
  <ele>1583.0</ele>
  <time>2026-08-28T17:52:46Z</time>
  <course>237.86</course>
  <speed>4.97</speed>
  <fix>3d</fix>
</trkpt>
<trkpt lat="40.0716349" lon="-105.2282497">
  <ele>1582.99</ele>
  <time>2026-08-28T17:52:46Z</time>
  <course>238.4</course>
  <speed>5.147358545895166</speed>
  <fix>3d</fix>
</trkpt>
<trkpt lat="40.0716404" lon="-105.2282379">
  <ele>1583.0</ele>
  <time>2026-08-28T17:52:46Z</time>
  <course>237.86</course>
  <speed>4.97</speed>
  <fix>3d</fix>
</trkpt>
<trkpt lat="40.0716324" lon="-105.2282548">
  <ele>1582.99</ele>
  <time>2026-08-28T17:52:46Z</time>
  <course>238.4</course>
  <speed>5.197172308092161</speed>
  <fix>3d</fix>
</trkpt>
<trkpt lat="40.0716355" lon="-105.2282479">
  <ele>1583.0</ele>
  <time>2026-08-28T17:52:46Z</time>
  <course>237.86</course>
  <speed>5.1</speed>
  <fix>3d</fix>
</trkpt>
<trkpt lat="40.0716299" lon="-105.22826">
  <ele>1582.99</ele>
  <time>2026-08-28T17:52:46Z</time>
  <course>238.4</course>
  <speed>5.233211251229975</speed>
  <fix>3d</fix>
</trkpt>
<trkpt lat="40.0716355" lon="-105.2282479">
  <ele>1583.0</ele>
  <time>2026-08-28T17:52:46Z</time>
  <course>237.86</course>
  <speed>5.1</speed>
  <fix>3d</fix>
</trkpt>
<trkpt lat="40.0716274" lon="-105.2282652">
  <ele>1582.98</ele>
  <time>2026-08-28T17:52:46Z</time>
  <course>238.4</course>
  <speed>5.269250421075088</speed>
  <fix>3d</fix>
</trkpt>
<trkpt lat="40.0716306" lon="-105.2282582">
  <ele>1583.0</ele>
  <time>2026-08-28T17:52:46Z</time>
  <course>237.86</course>
  <speed>5.2</speed>
  <fix>3d</fix>
</trkpt>
<trkpt lat="40.0716249" lon="-105.2282705">
  <ele>1582.98</ele>
  <time>2026-08-28T17:52:46Z</time>
  <course>238.4</course>
  <speed>5.283029433951698</speed>
  <fix>3d</fix>
</trkpt>
<trkpt lat="40.0716306" lon="-105.2282582">
  <ele>1583.0</ele>
  <time>2026-08-28T17:52:46Z</time>
  <course>237.86</course>
  <speed>5.2</speed>
  <fix>3d</fix>
</trkpt>
<trkpt lat="40.0716224" lon="-105.2282757">
  <ele>1582.98</ele>
  <time>2026-08-28T17:52:46Z</time>
  <course>238.4</course>
  <speed>5.29151207123257</speed>
  <fix>3d</fix>
</trkpt>
<trkpt lat="40.0716256" lon="-105.2282685">
  <ele>1583.0</ele>
  <time>2026-08-28T17:52:46Z</time>
  <course>237.86</course>
  <speed>5.25</speed>
  <fix>3d</fix>
</trkpt>
<trkpt lat="40.0716198" lon="-105.228281">
  <ele>1582.98</ele>
  <time>2026-08-28T17:52:46Z</time>
  <course>238.4</course>
  <speed>5.29151207123257</speed>
  <fix>3d</fix>
</trkpt>
<trkpt lat="40.0716256" lon="-105.2282685">
  <ele>1583.0</ele>
  <time>2026-08-28T17:52:46Z</time>
  <course>237.86</course>
  <speed>5.25</speed>
  <fix>3d</fix>
</trkpt>
<trkpt lat="40.0716173" lon="-105.2282863">
  <ele>1582.98</ele>
  <time>2026-08-28T17:52:46Z</time>
  <course>238.4</course>
  <speed>5.283029433951698</speed>
  <fix>3d</fix>
</trkpt>
<trkpt lat="40.0716205" lon="-105.228279">
  <ele>1583.0</ele>
  <time>2026-08-28T17:52:46Z</time>
  <course>237.86</course>
  <speed>5.26</speed>
  <fix>3d</fix>
</trkpt>
<trkpt lat="40.0716147" lon="-105.2282915">
  <ele>1582.98</ele>
  <time>2026-08-28T17:52:46Z</time>
  <course>238.4</course>
  <speed>5.260769905631685</speed>
  <fix>3d</fix>
</trkpt>
<trkpt lat="40.0716205" lon="-105.228279">
  <ele>1583.0</ele>
  <time>2026-08-28T17:52:46Z</time>
  <course>237.86</course>
  <speed>5.26</speed>
  <fix>3d</fix>
</trkpt>
<trkpt lat="40.0716122" lon="-105.2282968">
  <ele>1582.98</ele>
  <time>2026-08-28T17:52:46Z</time>
  <course>238.4</course>
  <speed>5.238511238892211</speed>
  <fix>3d</fix>
</trkpt>
<trkpt lat="40.0716156" lon="-105.2282894">
  <ele>1583.0</ele>
  <time>2026-08-28T17:52:46Z</time>
  <course>237.86</course>
  <speed>5.23</speed>
  <fix>3d</fix>
</trkpt>
<trkpt lat="40.0716097" lon="-105.2283019">
  <ele>1582.98</ele>
  <time>2026-08-28T17:52:46Z</time>
  <course>238.4</course>
  <speed>5.2109500093553</speed>
  <fix>3d</fix>
</trkpt>
<trkpt lat="40.0716156" lon="-105.2282894">
  <ele>1583.0</ele>
  <time>2026-08-28T17:52:46Z</time>
  <course>237.86</course>
  <speed>5.23</speed>
  <fix>3d</fix>
</trkpt>
<trkpt lat="40.0716072" lon="-105.2283071">
  <ele>1582.98</ele>
  <time>2026-08-28T17:52:46Z</time>
  <course>238.4</course>
  <speed>5.180212350859759</speed>
  <fix>3d</fix>
</trkpt>
<trkpt lat="40.0716106" lon="-105.2282998">
  <ele>1583.0</ele>
  <time>2026-08-28T17:52:46Z</time>
  <course>237.86</course>
  <speed>5.18</speed>
  <fix>3d</fix>
</trkpt>
<trkpt lat="40.0716048" lon="-105.2283122">
  <ele>1582.98</ele>
  <time>2026-08-28T17:52:46Z</time>
  <course>238.4</course>
  <speed>5.144171459039833</speed>
  <fix>3d</fix>
</trkpt>
<trkpt lat="40.0716106" lon="-105.2282998">
  <ele>1583.0</ele>
  <time>2026-08-28T17:52:46Z</time>
  <course>237.86</course>
  <speed>5.18</speed>
  <fix>3d</fix>
</trkpt>
<trkpt lat="40.0716023" lon="-105.2283173">
  <ele>1582.98</ele>
  <time>2026-08-28T17:52:46Z</time>
  <course>238.4</course>
  <speed>5.108130773580489</speed>
  <fix>3d</fix>
</trkpt>
<trkpt lat="40.0716106" lon="-105.2282998">
  <ele>1583.0</ele>
  <time>2026-08-28T17:52:46Z</time>
  <course>237.86</course>
  <speed>5.18</speed>
  <fix>3d</fix>
</trkpt>
<trkpt lat="40.0715999" lon="-105.2283223">
  <ele>1582.98</ele>
  <time>2026-08-28T17:52:46Z</time>
  <course>238.4</course>
  <speed>5.072090298880728</speed>
  <fix>3d</fix>
</trkpt>
<trkpt lat="40.0716056" lon="-105.22831">
  <ele>1583.0</ele>
  <time>2026-08-28T17:52:46Z</time>
  <course>237.86</course>
  <speed>5.12</speed>
  <fix>3d</fix>
</trkpt>
<trkpt lat="40.0715975" lon="-105.2283273">
  <ele>1582.97</ele>
  <time>2026-08-28T17:52:46Z</time>
  <course>238.4</course>
  <speed>5.0360500394654535</speed>
  <fix>3d</fix>
</trkpt>
<trkpt lat="40.0716056" lon="-105.22831">
  <ele>1583.0</ele>
  <time>2026-08-28T17:52:46Z</time>
  <course>237.86</course>
  <speed>5.12</speed>
  <fix>3d</fix>
</trkpt>
<trkpt lat="40.0715951" lon="-105.2283322">
  <ele>1582.97</ele>
  <time>2026-08-28T17:52:46Z</time>
  <course>238.4</course>
  <speed>5.00000999999</speed>
  <fix>3d</fix>
</trkpt>
<trkpt lat="40.0716008" lon="-105.2283202">
  <ele>1583.0</ele>
  <time>2026-08-28T17:52:46Z</time>
  <course>237.86</course>
  <speed>5.06</speed>
  <fix>3d</fix>
</trkpt>
<trkpt lat="40.0715928" lon="-105.2283371">
  <ele>1582.97</ele>
  <time>2026-08-28T17:52:46Z</time>
  <course>238.4</course>
  <speed>4.969275601131416</speed>
  <fix>3d</fix>
</trkpt>
<trkpt lat="40.0716008" lon="-105.2283202">
  <ele>1583.0</ele>
  <time>2026-08-28T17:52:46Z</time>
  <course>237.86</course>
  <speed>5.06</speed>
  <fix>3d</fix>
</trkpt>
<trkpt lat="40.0715905" lon="-105.2283419">
  <ele>1582.96</ele>
  <time>2026-08-28T17:52:46Z</time>
  <course>238.4</course>
  <speed>4.941710230274535</speed>
  <fix>3d</fix>
</trkpt>
<trkpt lat="40.071596" lon="-105.2283302">
  <ele>1583.0</ele>
  <time>2026-08-28T17:52:46Z</time>
  <course>237.86</course>
  <speed>4.99</speed>
  <fix>3d</fix>
</trkpt>
<trkpt lat="40.0715881" lon="-105.2283467">
  <ele>1582.96</ele>
  <time>2026-08-28T17:52:46Z</time>
  <course>238.4</course>
  <speed>4.910977499439394</speed>
  <fix>3d</fix>
</trkpt>
<trkpt lat="40.071596" lon="-105.2283302">
  <ele>1583.0</ele>
  <time>2026-08-28T17:52:46Z</time>
  <course>237.86</course>
  <speed>4.99</speed>
  <fix>3d</fix>
</trkpt>
<trkpt lat="40.0715858" lon="-105.2283516">
  <ele>1582.96</ele>
  <time>2026-08-28T17:52:46Z</time>
  <course>238.4</course>
  <speed>4.8887217143134665</speed>
  <fix>3d</fix>
</trkpt>
<trkpt lat="40.0715912" lon="-105.2283401">
  <ele>1583.0</ele>
  <time>2026-08-28T17:52:46Z</time>
  <course>237.86</course>
  <speed>4.94</speed>
  <fix>3d</fix>
</trkpt>
<trkpt lat="40.0715835" lon="-105.2283564">
  <ele>1582.96</ele>
  <time>2026-08-28T17:52:46Z</time>
  <course>238.4</course>
  <speed>4.874935897014442</speed>
  <fix>3d</fix>
</trkpt>
<trkpt lat="40.0715865" lon="-105.2283499">
  <ele>1583.0</ele>
  <time>2026-08-28T17:52:46Z</time>
  <course>237.86</course>
  <speed>4.9</speed>
  <fix>3d</fix>
</trkpt>
<trkpt lat="40.0715812" lon="-105.2283612">
  <ele>1582.96</ele>
  <time>2026-08-28T17:52:46Z</time>
  <course>238.41</course>
  <speed>4.852679672098706</speed>
  <fix>3d</fix>
</trkpt>
<trkpt lat="40.0715865" lon="-105.2283499">
  <ele>1583.0</ele>
  <time>2026-08-28T17:52:46Z</time>
  <course>237.86</course>
  <speed>4.9</speed>
  <fix>3d</fix>
</trkpt>
<trkpt lat="40.0715789" lon="-105.2283659">
  <ele>1582.96</ele>
  <time>2026-08-28T17:52:46Z</time>
  <course>238.41</course>
  <speed>4.838894501846471</speed>
  <fix>3d</fix>
</trkpt>
<trkpt lat="40.0715818" lon="-105.2283596">
  <ele>1583.0</ele>
  <time>2026-08-28T17:52:46Z</time>
  <course>237.86</course>
  <speed>4.87</speed>
  <fix>3d</fix>
</trkpt>
<trkpt lat="40.0715766" lon="-105.2283708">
  <ele>1582.97</ele>
  <time>2026-08-28T17:52:46Z</time>
  <course>238.41</course>
  <speed>4.838894501846471</speed>
  <fix>3d</fix>
</trkpt>
<trkpt lat="40.0715818" lon="-105.2283596">
  <ele>1583.0</ele>
  <time>2026-08-28T17:52:46Z</time>
  <course>237.86</course>
  <speed>4.87</speed>
  <fix>3d</fix>
</trkpt>
<trkpt lat="40.0715742" lon="-105.2283756">
  <ele>1582.97</ele>
  <time>2026-08-28T17:52:46Z</time>
  <course>238.42</course>
  <speed>4.825111397677778</speed>
  <fix>3d</fix>
</trkpt>
<trkpt lat="40.0715772" lon="-105.2283693">
  <ele>1583.0</ele>
  <time>2026-08-28T17:52:46Z</time>
  <course>237.86</course>
  <speed>4.86</speed>
  <fix>3d</fix>
</trkpt>
<trkpt lat="40.0715719" lon="-105.2283804">
  <ele>1582.97</ele>
  <time>2026-08-28T17:52:46Z</time>
  <course>238.42</course>
  <speed>4.825111397677778</speed>
  <fix>3d</fix>
</trkpt>
<trkpt lat="40.0715772" lon="-105.2283693">
  <ele>1583.0</ele>
  <time>2026-08-28T17:52:46Z</time>
  <course>237.86</course>
  <speed>4.86</speed>
  <fix>3d</fix>
</trkpt>
<trkpt lat="40.0715696" lon="-105.2283853">
  <ele>1582.97</ele>
  <time>2026-08-28T17:52:46Z</time>
  <course>238.42</course>
  <speed>4.825111397677778</speed>
  <fix>3d</fix>
</trkpt>
<trkpt lat="40.0715725" lon="-105.2283789">
  <ele>1583.0</ele>
  <time>2026-08-28T17:52:46Z</time>
  <course>237.86</course>
  <speed>4.85</speed>
  <fix>3d</fix>
</trkpt>
<trkpt lat="40.0715672" lon="-105.2283901">
  <ele>1582.97</ele>
  <time>2026-08-28T17:52:46Z</time>
  <course>238.43</course>
  <speed>4.825111397677778</speed>
  <fix>3d</fix>
</trkpt>
<trkpt lat="40.0715725" lon="-105.2283789">
  <ele>1583.0</ele>
  <time>2026-08-28T17:52:46Z</time>
  <course>237.86</course>
  <speed>4.85</speed>
  <fix>3d</fix>
</trkpt>
<trkpt lat="40.0715649" lon="-105.228395">
  <ele>1582.97</ele>
  <time>2026-08-28T17:52:46Z</time>
  <course>238.43</course>
  <speed>4.838894501846471</speed>
  <fix>3d</fix>
</trkpt>
<trkpt lat="40.0715679" lon="-105.2283885">
  <ele>1583.0</ele>
  <time>2026-08-28T17:52:46Z</time>
  <course>237.86</course>
  <speed>4.85</speed>
  <fix>3d</fix>
</trkpt>
<trkpt lat="40.0715626" lon="-105.2283998">
  <ele>1582.97</ele>
  <time>2026-08-28T17:52:46Z</time>
  <course>238.43</course>
  <speed>4.838894501846471</speed>
  <fix>3d</fix>
</trkpt>
<trkpt lat="40.0715679" lon="-105.2283885">
  <ele>1583.0</ele>
  <time>2026-08-28T17:52:46Z</time>
  <course>237.86</course>
  <speed>4.85</speed>
  <fix>3d</fix>
</trkpt>
<trkpt lat="40.0715603" lon="-105.2284046">
  <ele>1582.97</ele>
  <time>2026-08-28T17:52:46Z</time>
  <course>238.44</course>
  <speed>4.838894501846471</speed>
  <fix>3d</fix>
</trkpt>
<trkpt lat="40.0715632" lon="-105.2283982">
  <ele>1583.0</ele>
  <time>2026-08-28T17:52:46Z</time>
  <course>237.86</course>
  <speed>4.86</speed>
  <fix>3d</fix>
</trkpt>
<trkpt lat="40.0715579" lon="-105.2284095">
  <ele>1582.97</ele>
  <time>2026-08-28T17:52:46Z</time>
  <course>238.44</course>
  <speed>4.847370421166511</speed>
  <fix>3d</fix>
</trkpt>
<trkpt lat="40.0715632" lon="-105.2283982">
  <ele>1583.0</ele>
  <time>2026-08-28T17:52:46Z</time>
  <course>237.86</course>
  <speed>4.86</speed>
  <fix>3d</fix>
</trkpt>
<trkpt lat="40.0715556" lon="-105.2284143">
  <ele>1582.97</ele>
  <time>2026-08-28T17:52:46Z</time>
  <course>238.44</course>
  <speed>4.852679672098706</speed>
  <fix>3d</fix>
</trkpt>
<trkpt lat="40.0715586" lon="-105.2284079">
  <ele>1583.0</ele>
  <time>2026-08-28T17:52:46Z</time>
  <course>237.86</course>
  <speed>4.87</speed>
  <fix>3d</fix>
</trkpt>
<trkpt lat="40.0715532" lon="-105.2284192">
  <ele>1582.97</ele>
  <time>2026-08-28T17:52:46Z</time>
  <course>238.45</course>
  <speed>4.861152126811091</speed>
  <fix>3d</fix>
</trkpt>
<trkpt lat="40.0715586" lon="-105.2284079">
  <ele>1583.0</ele>
  <time>2026-08-28T17:52:46Z</time>
  <course>237.86</course>
  <speed>4.87</speed>
  <fix>3d</fix>
</trkpt>
<trkpt lat="40.0715509" lon="-105.2284241">
  <ele>1582.97</ele>
  <time>2026-08-28T17:52:46Z</time>
  <course>238.45</course>
  <speed>4.869630376116857</speed>
  <fix>3d</fix>
</trkpt>
<trkpt lat="40.0715586" lon="-105.2284079">
  <ele>1583.0</ele>
  <time>2026-08-28T17:52:46Z</time>
  <course>237.86</course>
  <speed>4.87</speed>
  <fix>3d</fix>
</trkpt>
<trkpt lat="40.0715486" lon="-105.2284289">
  <ele>1582.97</ele>
  <time>2026-08-28T17:52:46Z</time>
  <course>238.45</course>
  <speed>4.874935897014442</speed>
  <fix>3d</fix>
</trkpt>
<trkpt lat="40.0715539" lon="-105.2284177">
  <ele>1583.0</ele>
  <time>2026-08-28T17:52:46Z</time>
  <course>237.86</course>
  <speed>4.88</speed>
  <fix>3d</fix>
</trkpt>
<trkpt lat="40.0715462" lon="-105.2284338">
  <ele>1582.96</ele>
  <time>2026-08-28T17:52:46Z</time>
  <course>238.45</course>
  <speed>4.883410693357666</speed>
  <fix>3d</fix>
</trkpt>
<trkpt lat="40.0715539" lon="-105.2284177">
  <ele>1583.0</ele>
  <time>2026-08-28T17:52:46Z</time>
  <course>237.86</course>
  <speed>4.88</speed>
  <fix>3d</fix>
</trkpt>
<trkpt lat="40.0715439" lon="-105.2284386">
  <ele>1582.96</ele>
  <time>2026-08-28T17:52:46Z</time>
  <course>238.46</course>
  <speed>4.883410693357666</speed>
  <fix>3d</fix>
</trkpt>
<trkpt lat="40.0715492" lon="-105.2284274">
  <ele>1583.0</ele>
  <time>2026-08-28T17:52:46Z</time>
  <course>237.86</course>
  <speed>4.9</speed>
  <fix>3d</fix>
</trkpt>
<trkpt lat="40.0715416" lon="-105.2284435">
  <ele>1582.96</ele>
  <time>2026-08-28T17:52:46Z</time>
  <course>238.46</course>
  <speed>4.897193073588175</speed>
  <fix>3d</fix>
</trkpt>
<trkpt lat="40.0715492" lon="-105.2284274">
  <ele>1583.0</ele>
  <time>2026-08-28T17:52:46Z</time>
  <course>237.86</course>
  <speed>4.9</speed>
  <fix>3d</fix>
</trkpt>
<trkpt lat="40.0715393" lon="-105.2284483">
  <ele>1582.97</ele>
  <time>2026-08-28T17:52:46Z</time>
  <course>238.46</course>
  <speed>4.897193073588175</speed>
  <fix>3d</fix>
</trkpt>
<trkpt lat="40.0715445" lon="-105.2284372">
  <ele>1583.0</ele>
  <time>2026-08-28T17:52:46Z</time>
  <course>237.86</course>
  <speed>4.92</speed>
  <fix>3d</fix>
</trkpt>
<trkpt lat="40.0715369" lon="-105.2284532">
  <ele>1582.97</ele>
  <time>2026-08-28T17:52:46Z</time>
  <course>238.46</course>
  <speed>4.905670188669434</speed>
  <fix>3d</fix>
</trkpt>
<trkpt lat="40.0715398" lon="-105.2284469">
  <ele>1583.0</ele>
  <time>2026-08-28T17:52:46Z</time>
  <course>237.86</course>
  <speed>4.93</speed>
  <fix>3d</fix>
</trkpt>
<trkpt lat="40.0715345" lon="-105.2284581">
  <ele>1582.97</ele>
  <time>2026-08-28T17:52:46Z</time>
  <course>238.47</course>
  <speed>4.919451188903087</speed>
  <fix>3d</fix>
</trkpt>
<trkpt lat="40.0715398" lon="-105.2284469">
  <ele>1583.0</ele>
  <time>2026-08-28T17:52:46Z</time>
  <course>237.86</course>
  <speed>4.93</speed>
  <fix>3d</fix>
</trkpt>
<trkpt lat="40.0715322" lon="-105.228463">
  <ele>1582.98</ele>
  <time>2026-08-28T17:52:46Z</time>
  <course>238.47</course>
  <speed>4.919451188903087</speed>
  <fix>3d</fix>
</trkpt>
<trkpt lat="40.0715351" lon="-105.2284568">
  <ele>1583.0</ele>
  <time>2026-08-28T17:52:46Z</time>
  <course>237.86</course>
  <speed>4.95</speed>
  <fix>3d</fix>
</trkpt>
<trkpt lat="40.0715298" lon="-105.2284679">
  <ele>1582.98</ele>
  <time>2026-08-28T17:52:46Z</time>
  <course>238.47</course>
  <speed>4.92793060016068</speed>
  <fix>3d</fix>
</trkpt>
<trkpt lat="40.0715351" lon="-105.2284568">
  <ele>1583.0</ele>
  <time>2026-08-28T17:52:46Z</time>
  <course>237.86</course>
  <speed>4.95</speed>
  <fix>3d</fix>
</trkpt>
<trkpt lat="40.0715274" lon="-105.2284729">
  <ele>1582.98</ele>
  <time>2026-08-28T17:52:46Z</time>
  <course>238.48</course>
  <speed>4.92793060016068</speed>
  <fix>3d</fix>
</trkpt>
<trkpt lat="40.0715304" lon="-105.2284666">
  <ele>1583.0</ele>
  <time>2026-08-28T17:52:46Z</time>
  <course>237.86</course>
  <speed>4.96</speed>
  <fix>3d</fix>
</trkpt>
<trkpt lat="40.0715251" lon="-105.2284779">
  <ele>1582.99</ele>
  <time>2026-08-28T17:52:46Z</time>
  <course>238.48</course>
  <speed>4.941710230274535</speed>
  <fix>3d</fix>
</trkpt>
<trkpt lat="40.0715304" lon="-105.2284666">
  <ele>1583.0</ele>
  <time>2026-08-28T17:52:46Z</time>
  <course>237.86</course>
  <speed>4.96</speed>
  <fix>3d</fix>
</trkpt>
<trkpt lat="40.0715227" lon="-105.2284828">
  <ele>1582.99</ele>
  <time>2026-08-28T17:52:46Z</time>
  <course>238.49</course>
  <speed>4.941710230274535</speed>
  <fix>3d</fix>
</trkpt>
<trkpt lat="40.0715256" lon="-105.2284765">
  <ele>1583.0</ele>
  <time>2026-08-28T17:52:46Z</time>
  <course>237.86</course>
  <speed>4.97</speed>
  <fix>3d</fix>
</trkpt>
<trkpt lat="40.0715203" lon="-105.2284878">
  <ele>1582.98</ele>
  <time>2026-08-28T17:52:46Z</time>
  <course>238.49</course>
  <speed>4.950191915471561</speed>
  <fix>3d</fix>
</trkpt>
<trkpt lat="40.0715256" lon="-105.2284765">
  <ele>1583.0</ele>
  <time>2026-08-28T17:52:46Z</time>
  <course>237.86</course>
  <speed>4.97</speed>
  <fix>3d</fix>
</trkpt>
<trkpt lat="40.0715179" lon="-105.2284928">
  <ele>1582.98</ele>
  <time>2026-08-28T17:52:46Z</time>
  <course>238.49</course>
  <speed>4.950191915471561</speed>
  <fix>3d</fix>
</trkpt>
<trkpt lat="40.0715208" lon="-105.2284864">
  <ele>1583.0</ele>
  <time>2026-08-28T17:52:46Z</time>
  <course>237.86</course>
  <speed>4.98</speed>
  <fix>3d</fix>
</trkpt>
<trkpt lat="40.0715155" lon="-105.2284978">
  <ele>1582.98</ele>
  <time>2026-08-28T17:52:46Z</time>
  <course>238.5</course>
  <speed>4.955491902929516</speed>
  <fix>3d</fix>
</trkpt>
<trkpt lat="40.0715208" lon="-105.2284864">
  <ele>1583.0</ele>
  <time>2026-08-28T17:52:46Z</time>
  <course>237.86</course>
  <speed>4.98</speed>
  <fix>3d</fix>
</trkpt>
<trkpt lat="40.0715131" lon="-105.2285028">
  <ele>1582.99</ele>
  <time>2026-08-28T17:52:46Z</time>
  <course>238.5</course>
  <speed>4.963970185244872</speed>
  <fix>3d</fix>
</trkpt>
<trkpt lat="40.0715161" lon="-105.2284963">
  <ele>1583.0</ele>
  <time>2026-08-28T17:52:46Z</time>
  <course>237.86</course>
  <speed>4.98</speed>
  <fix>3d</fix>
</trkpt>
<trkpt lat="40.0715107" lon="-105.2285078">
  <ele>1582.99</ele>
  <time>2026-08-28T17:52:46Z</time>
  <course>238.5</course>
  <speed>4.963970185244872</speed>
  <fix>3d</fix>
</trkpt>
<trkpt lat="40.0715161" lon="-105.2284963">
  <ele>1583.0</ele>
  <time>2026-08-28T17:52:46Z</time>
  <course>237.86</course>
  <speed>4.98</speed>
  <fix>3d</fix>
</trkpt>
<trkpt lat="40.0715083" lon="-105.2285128">
  <ele>1582.99</ele>
  <time>2026-08-28T17:52:46Z</time>
  <course>238.51</course>
  <speed>4.963970185244872</speed>
  <fix>3d</fix>
</trkpt>
<trkpt lat="40.0715114" lon="-105.2285062">
  <ele>1583.0</ele>
  <time>2026-08-28T17:52:46Z</time>
  <course>237.86</course>
  <speed>4.98</speed>
  <fix>3d</fix>
</trkpt>
<trkpt lat="40.0715059" lon="-105.2285177">
  <ele>1582.99</ele>
  <time>2026-08-28T17:52:46Z</time>
  <course>238.48</course>
  <speed>4.955491902929516</speed>
  <fix>3d</fix>
</trkpt>
<trkpt lat="40.0715114" lon="-105.2285062">
  <ele>1583.0</ele>
  <time>2026-08-28T17:52:46Z</time>
  <course>237.86</course>
  <speed>4.98</speed>
  <fix>3d</fix>
</trkpt>
<trkpt lat="40.0715035" lon="-105.2285227">
  <ele>1582.99</ele>
  <time>2026-08-28T17:52:46Z</time>
  <course>238.47</course>
  <speed>4.955491902929516</speed>
  <fix>3d</fix>
</trkpt>
<trkpt lat="40.0715114" lon="-105.2285062">
  <ele>1583.0</ele>
  <time>2026-08-28T17:52:46Z</time>
  <course>237.86</course>
  <speed>4.98</speed>
  <fix>3d</fix>
</trkpt>
<trkpt lat="40.0715012" lon="-105.2285276">
  <ele>1583.0</ele>
  <time>2026-08-28T17:52:46Z</time>
  <course>238.46</course>
  <speed>4.955491902929516</speed>
  <fix>3d</fix>
</trkpt>
<trkpt lat="40.0715066" lon="-105.2285162">
  <ele>1583.0</ele>
  <time>2026-08-28T17:52:46Z</time>
  <course>237.84</course>
  <speed>4.98</speed>
  <fix>3d</fix>
</trkpt>
<trkpt lat="40.0714988" lon="-105.2285326">
  <ele>1583.0</ele>
  <time>2026-08-28T17:52:46Z</time>
  <course>238.44</course>
  <speed>4.955491902929516</speed>
  <fix>3d</fix>
</trkpt>
<trkpt lat="40.0715066" lon="-105.2285162">
  <ele>1583.0</ele>
  <time>2026-08-28T17:52:46Z</time>
  <course>237.84</course>
  <speed>4.98</speed>
  <fix>3d</fix>
</trkpt>
<trkpt lat="40.0714964" lon="-105.2285375">
  <ele>1583.0</ele>
  <time>2026-08-28T17:52:46Z</time>
  <course>238.4</course>
  <speed>4.947019304591402</speed>
  <fix>3d</fix>
</trkpt>
<trkpt lat="40.0715018" lon="-105.2285261">
  <ele>1583.0</ele>
  <time>2026-08-28T17:52:46Z</time>
  <course>237.8</course>
  <speed>4.98</speed>
  <fix>3d</fix>
</trkpt>
<trkpt lat="40.0714941" lon="-105.2285424">
  <ele>1583.0</ele>
  <time>2026-08-28T17:52:46Z</time>
  <course>238.37</course>
  <speed>4.947019304591402</speed>
  <fix>3d</fix>
</trkpt>
<trkpt lat="40.0715018" lon="-105.2285261">
  <ele>1583.0</ele>
  <time>2026-08-28T17:52:46Z</time>
  <course>237.8</course>
  <speed>4.98</speed>
  <fix>3d</fix>
</trkpt>
<trkpt lat="40.0714917" lon="-105.2285473">
  <ele>1583.01</ele>
  <time>2026-08-28T17:52:46Z</time>
  <course>238.36</course>
  <speed>4.947019304591402</speed>
  <fix>3d</fix>
</trkpt>
<trkpt lat="40.071497" lon="-105.228536">
  <ele>1583.0</ele>
  <time>2026-08-28T17:52:46Z</time>
  <course>237.74</course>
  <speed>4.98</speed>
  <fix>3d</fix>
</trkpt>
<trkpt lat="40.0714894" lon="-105.2285521">
  <ele>1583.01</ele>
  <time>2026-08-28T17:52:46Z</time>
  <course>238.33</course>
  <speed>4.938552419484884</speed>
  <fix>3d</fix>
</trkpt>
<trkpt lat="40.071497" lon="-105.228536">
  <ele>1583.0</ele>
  <time>2026-08-28T17:52:46Z</time>
  <course>237.74</course>
  <speed>4.98</speed>
  <fix>3d</fix>
</trkpt>
<trkpt lat="40.071487" lon="-105.2285571">
  <ele>1583.01</ele>
  <time>2026-08-28T17:52:46Z</time>
  <course>238.32</course>
  <speed>4.938552419484884</speed>
  <fix>3d</fix>
</trkpt>
<trkpt lat="40.0714922" lon="-105.2285459">
  <ele>1583.0</ele>
  <time>2026-08-28T17:52:46Z</time>
  <course>237.68</course>
  <speed>4.98</speed>
  <fix>3d</fix>
</trkpt>
<trkpt lat="40.0714846" lon="-105.228562">
  <ele>1583.02</ele>
  <time>2026-08-28T17:52:46Z</time>
  <course>238.29</course>
  <speed>4.938552419484884</speed>
  <fix>3d</fix>
</trkpt>
<trkpt lat="40.0714874" lon="-105.2285558">
  <ele>1583.0</ele>
  <time>2026-08-28T17:52:46Z</time>
  <course>237.64</course>
  <speed>4.98</speed>
  <fix>3d</fix>
</trkpt>
<trkpt lat="40.0714822" lon="-105.2285669">
  <ele>1583.02</ele>
  <time>2026-08-28T17:52:46Z</time>
  <course>238.25</course>
  <speed>4.938552419484884</speed>
  <fix>3d</fix>
</trkpt>
<trkpt lat="40.0714874" lon="-105.2285558">
  <ele>1583.0</ele>
  <time>2026-08-28T17:52:46Z</time>
  <course>237.64</course>
  <speed>4.98</speed>
  <fix>3d</fix>
</trkpt>
<trkpt lat="40.0714798" lon="-105.2285718">
  <ele>1583.02</ele>
  <time>2026-08-28T17:52:46Z</time>
  <course>238.26</course>
  <speed>4.938552419484884</speed>
  <fix>3d</fix>
</trkpt>
<trkpt lat="40.0714827" lon="-105.2285656">
  <ele>1583.0</ele>
  <time>2026-08-28T17:52:46Z</time>
  <course>237.6</course>
  <speed>4.98</speed>
  <fix>3d</fix>
</trkpt>
<trkpt lat="40.0714774" lon="-105.2285767">
  <ele>1583.02</ele>
  <time>2026-08-28T17:52:46Z</time>
  <course>238.22</course>
  <speed>4.9438851119337315</speed>
  <fix>3d</fix>
</trkpt>
<trkpt lat="40.0714827" lon="-105.2285656">
  <ele>1583.0</ele>
  <time>2026-08-28T17:52:46Z</time>
  <course>237.6</course>
  <speed>4.98</speed>
  <fix>3d</fix>
</trkpt>
<trkpt lat="40.071475" lon="-105.2285817">
  <ele>1583.02</ele>
  <time>2026-08-28T17:52:46Z</time>
  <course>238.22</course>
  <speed>4.9438851119337315</speed>
  <fix>3d</fix>
</trkpt>
<trkpt lat="40.0714779" lon="-105.2285755">
  <ele>1583.0</ele>
  <time>2026-08-28T17:52:46Z</time>
  <course>237.56</course>
  <speed>4.98</speed>
  <fix>3d</fix>
</trkpt>
<trkpt lat="40.0714726" lon="-105.2285866">
  <ele>1583.02</ele>
  <time>2026-08-28T17:52:46Z</time>
  <course>238.2</course>
  <speed>4.9438851119337315</speed>
  <fix>3d</fix>
</trkpt>
<trkpt lat="40.0714779" lon="-105.2285755">
  <ele>1583.0</ele>
  <time>2026-08-28T17:52:46Z</time>
  <course>237.56</course>
  <speed>4.98</speed>
  <fix>3d</fix>
</trkpt>
<trkpt lat="40.0714702" lon="-105.2285916">
  <ele>1583.02</ele>
  <time>2026-08-28T17:52:46Z</time>
  <course>238.17</course>
  <speed>4.9438851119337315</speed>
  <fix>3d</fix>
</trkpt>
<trkpt lat="40.0714731" lon="-105.2285854">
  <ele>1583.0</ele>
  <time>2026-08-28T17:52:46Z</time>
  <course>237.51</course>
  <speed>4.98</speed>
  <fix>3d</fix>
</trkpt>
<trkpt lat="40.0714678" lon="-105.2285966">
  <ele>1583.02</ele>
  <time>2026-08-28T17:52:46Z</time>
  <course>238.16</course>
  <speed>4.9438851119337315</speed>
  <fix>3d</fix>
</trkpt>
<trkpt lat="40.0714731" lon="-105.2285854">
  <ele>1583.0</ele>
  <time>2026-08-28T17:52:46Z</time>
  <course>237.51</course>
  <speed>4.98</speed>
  <fix>3d</fix>
</trkpt>
<trkpt lat="40.0714653" lon="-105.2286016">
  <ele>1583.03</ele>
  <time>2026-08-28T17:52:46Z</time>
  <course>238.15</course>
  <speed>4.9438851119337315</speed>
  <fix>3d</fix>
</trkpt>
<trkpt lat="40.0714683" lon="-105.2285953">
  <ele>1583.0</ele>
  <time>2026-08-28T17:52:46Z</time>
  <course>237.47</course>
  <speed>4.98</speed>
  <fix>3d</fix>
</trkpt>
<trkpt lat="40.0714629" lon="-105.2286066">
  <ele>1583.03</ele>
  <time>2026-08-28T17:52:46Z</time>
  <course>238.13</course>
  <speed>4.949232263695047</speed>
  <fix>3d</fix>
</trkpt>
<trkpt lat="40.0714683" lon="-105.2285953">
  <ele>1583.0</ele>
  <time>2026-08-28T17:52:46Z</time>
  <course>237.47</course>
  <speed>4.98</speed>
  <fix>3d</fix>
</trkpt>
<trkpt lat="40.0714605" lon="-105.2286115">
  <ele>1583.04</ele>
  <time>2026-08-28T17:52:46Z</time>
  <course>238.1</course>
  <speed>4.949232263695047</speed>
  <fix>3d</fix>
</trkpt>
<trkpt lat="40.0714635" lon="-105.2286051">
  <ele>1583.0</ele>
  <time>2026-08-28T17:52:46Z</time>
  <course>237.43</course>
  <speed>4.98</speed>
  <fix>3d</fix>
</trkpt>
<trkpt lat="40.0714581" lon="-105.2286165">
  <ele>1583.04</ele>
  <time>2026-08-28T17:52:46Z</time>
  <course>238.11</course>
  <speed>4.949232263695047</speed>
  <fix>3d</fix>
</trkpt>
<trkpt lat="40.0714635" lon="-105.2286051">
  <ele>1583.0</ele>
  <time>2026-08-28T17:52:46Z</time>
  <course>237.43</course>
  <speed>4.98</speed>
  <fix>3d</fix>
</trkpt>
<trkpt lat="40.0714557" lon="-105.2286214">
  <ele>1583.04</ele>
  <time>2026-08-28T17:52:46Z</time>
  <course>238.08</course>
  <speed>4.949232263695047</speed>
  <fix>3d</fix>
</trkpt>
<trkpt lat="40.0714586" lon="-105.2286149">
  <ele>1583.0</ele>
  <time>2026-08-28T17:52:46Z</time>
  <course>237.39</course>
  <speed>4.97</speed>
  <fix>3d</fix>
</trkpt>
<trkpt lat="40.0714532" lon="-105.2286264">
  <ele>1583.04</ele>
  <time>2026-08-28T17:52:46Z</time>
  <course>238.06</course>
  <speed>4.949232263695047</speed>
  <fix>3d</fix>
</trkpt>
<trkpt lat="40.0714586" lon="-105.2286149">
  <ele>1583.0</ele>
  <time>2026-08-28T17:52:46Z</time>
  <course>237.39</course>
  <speed>4.97</speed>
  <fix>3d</fix>
</trkpt>
<trkpt lat="40.0714508" lon="-105.2286313">
  <ele>1583.04</ele>
  <time>2026-08-28T17:52:46Z</time>
  <course>238.06</course>
  <speed>4.949232263695047</speed>
  <fix>3d</fix>
</trkpt>
<trkpt lat="40.0714586" lon="-105.2286149">
  <ele>1583.0</ele>
  <time>2026-08-28T17:52:46Z</time>
  <course>237.39</course>
  <speed>4.97</speed>
  <fix>3d</fix>
</trkpt>
<trkpt lat="40.0714484" lon="-105.2286362">
  <ele>1583.04</ele>
  <time>2026-08-28T17:52:46Z</time>
  <course>238.04</course>
  <speed>4.949232263695047</speed>
  <fix>3d</fix>
</trkpt>
<trkpt lat="40.0714538" lon="-105.2286248">
  <ele>1583.0</ele>
  <time>2026-08-28T17:52:46Z</time>
  <course>237.36</course>
  <speed>4.97</speed>
  <fix>3d</fix>
</trkpt>
<trkpt lat="40.071446" lon="-105.2286411">
  <ele>1583.04</ele>
  <time>2026-08-28T17:52:46Z</time>
  <course>238.04</course>
  <speed>4.949232263695047</speed>
  <fix>3d</fix>
</trkpt>
<trkpt lat="40.0714538" lon="-105.2286248">
  <ele>1583.0</ele>
  <time>2026-08-28T17:52:46Z</time>
  <course>237.36</course>
  <speed>4.97</speed>
  <fix>3d</fix>
</trkpt>
<trkpt lat="40.0714436" lon="-105.228646">
  <ele>1583.03</ele>
  <time>2026-08-28T17:52:46Z</time>
  <course>238.01</course>
  <speed>4.940789410610414</speed>
  <fix>3d</fix>
</trkpt>
<trkpt lat="40.071449" lon="-105.2286346">
  <ele>1583.0</ele>
  <time>2026-08-28T17:52:46Z</time>
  <course>237.33</course>
  <speed>4.97</speed>
  <fix>3d</fix>
</trkpt>
<trkpt lat="40.0714412" lon="-105.2286509">
  <ele>1583.03</ele>
  <time>2026-08-28T17:52:46Z</time>
  <course>238.0</course>
  <speed>4.940789410610414</speed>
  <fix>3d</fix>
</trkpt>
<trkpt lat="40.071449" lon="-105.2286346">
  <ele>1583.0</ele>
  <time>2026-08-28T17:52:46Z</time>
  <course>237.33</course>
  <speed>4.97</speed>
  <fix>3d</fix>
</trkpt>
<trkpt lat="40.0714388" lon="-105.2286557">
  <ele>1583.03</ele>
  <time>2026-08-28T17:52:46Z</time>
  <course>237.99</course>
  <speed>4.940789410610414</speed>
  <fix>3d</fix>
</trkpt>
<trkpt lat="40.0714441" lon="-105.2286445">
  <ele>1583.0</ele>
  <time>2026-08-28T17:52:46Z</time>
  <course>237.3</course>
  <speed>4.97</speed>
  <fix>3d</fix>
</trkpt>
<trkpt lat="40.0714364" lon="-105.2286606">
  <ele>1583.02</ele>
  <time>2026-08-28T17:52:46Z</time>
  <course>237.98</course>
  <speed>4.940789410610414</speed>
  <fix>3d</fix>
</trkpt>
<trkpt lat="40.0714392" lon="-105.2286543">
  <ele>1583.0</ele>
  <time>2026-08-28T17:52:46Z</time>
  <course>237.27</course>
  <speed>4.97</speed>
  <fix>3d</fix>
</trkpt>
<trkpt lat="40.071434" lon="-105.2286655">
  <ele>1583.02</ele>
  <time>2026-08-28T17:52:46Z</time>
  <course>237.97</course>
  <speed>4.940789410610414</speed>
  <fix>3d</fix>
</trkpt>
<trkpt lat="40.0714392" lon="-105.2286543">
  <ele>1583.0</ele>
  <time>2026-08-28T17:52:46Z</time>
  <course>237.27</course>
  <speed>4.97</speed>
  <fix>3d</fix>
</trkpt>
<trkpt lat="40.0714316" lon="-105.2286704">
  <ele>1583.02</ele>
  <time>2026-08-28T17:52:46Z</time>
  <course>237.97</course>
  <speed>4.940789410610414</speed>
  <fix>3d</fix>
</trkpt>
<trkpt lat="40.0714344" lon="-105.2286642">
  <ele>1583.0</ele>
  <time>2026-08-28T17:52:46Z</time>
  <course>237.25</course>
  <speed>4.97</speed>
  <fix>3d</fix>
</trkpt>
<trkpt lat="40.0714292" lon="-105.2286753">
  <ele>1583.02</ele>
  <time>2026-08-28T17:52:46Z</time>
  <course>237.96</course>
  <speed>4.946160126805439</speed>
  <fix>3d</fix>
</trkpt>
<trkpt lat="40.0714344" lon="-105.2286642">
  <ele>1583.0</ele>
  <time>2026-08-28T17:52:46Z</time>
  <course>237.25</course>
  <speed>4.97</speed>
  <fix>3d</fix>
</trkpt>
<trkpt lat="40.0714268" lon="-105.2286802">
  <ele>1583.02</ele>
  <time>2026-08-28T17:52:46Z</time>
  <course>237.96</course>
  <speed>4.946160126805439</speed>
  <fix>3d</fix>
</trkpt>
<trkpt lat="40.0714296" lon="-105.2286739">
  <ele>1583.0</ele>
  <time>2026-08-28T17:52:46Z</time>
  <course>237.23</course>
  <speed>4.97</speed>
  <fix>3d</fix>
</trkpt>
<trkpt lat="40.0714243" lon="-105.2286852">
  <ele>1583.02</ele>
  <time>2026-08-28T17:52:46Z</time>
  <course>237.95</course>
  <speed>4.946160126805439</speed>
  <fix>3d</fix>
</trkpt>
<trkpt lat="40.0714296" lon="-105.2286739">
  <ele>1583.0</ele>
  <time>2026-08-28T17:52:46Z</time>
  <course>237.23</course>
  <speed>4.97</speed>
  <fix>3d</fix>
</trkpt>
<trkpt lat="40.0714219" lon="-105.2286901">
  <ele>1583.03</ele>
  <time>2026-08-28T17:52:46Z</time>
  <course>237.95</course>
  <speed>4.946160126805439</speed>
  <fix>3d</fix>
</trkpt>
<trkpt lat="40.0714247" lon="-105.2286838">
  <ele>1583.0</ele>
  <time>2026-08-28T17:52:46Z</time>
  <course>237.22</course>
  <speed>4.97</speed>
  <fix>3d</fix>
</trkpt>
<trkpt lat="40.0714194" lon="-105.2286951">
  <ele>1583.03</ele>
  <time>2026-08-28T17:52:46Z</time>
  <course>237.95</course>
  <speed>4.954593827954013</speed>
  <fix>3d</fix>
</trkpt>
<trkpt lat="40.0714247" lon="-105.2286838">
  <ele>1583.0</ele>
  <time>2026-08-28T17:52:46Z</time>
  <course>237.22</course>
  <speed>4.97</speed>
  <fix>3d</fix>
</trkpt>
<trkpt lat="40.071417" lon="-105.2287001">
  <ele>1583.03</ele>
  <time>2026-08-28T17:52:46Z</time>
  <course>237.94</course>
  <speed>4.954593827954013</speed>
  <fix>3d</fix>
</trkpt>
<trkpt lat="40.0714199" lon="-105.2286936">
  <ele>1583.0</ele>
  <time>2026-08-28T17:52:46Z</time>
  <course>237.2</course>
  <speed>4.97</speed>
  <fix>3d</fix>
</trkpt>
<trkpt lat="40.0714145" lon="-105.228705">
  <ele>1583.03</ele>
  <time>2026-08-28T17:52:46Z</time>
  <course>237.94</course>
  <speed>4.9599697579723205</speed>
  <fix>3d</fix>
</trkpt>
<trkpt lat="40.0714199" lon="-105.2286936">
  <ele>1583.0</ele>
  <time>2026-08-28T17:52:46Z</time>
  <course>237.2</course>
  <speed>4.97</speed>
  <fix>3d</fix>
</trkpt>
<trkpt lat="40.0714121" lon="-105.2287099">
  <ele>1583.03</ele>
  <time>2026-08-28T17:52:46Z</time>
  <course>237.93</course>
  <speed>4.9599697579723205</speed>
  <fix>3d</fix>
</trkpt>
<trkpt lat="40.0714151" lon="-105.2287035">
  <ele>1583.0</ele>
  <time>2026-08-28T17:52:46Z</time>
  <course>237.19</course>
  <speed>4.97</speed>
  <fix>3d</fix>
</trkpt>
<trkpt lat="40.0714096" lon="-105.2287149">
  <ele>1583.04</ele>
  <time>2026-08-28T17:52:46Z</time>
  <course>237.93</course>
  <speed>4.9599697579723205</speed>
  <fix>3d</fix>
</trkpt>
<trkpt lat="40.0714151" lon="-105.2287035">
  <ele>1583.0</ele>
  <time>2026-08-28T17:52:46Z</time>
  <course>237.19</course>
  <speed>4.97</speed>
  <fix>3d</fix>
</trkpt>
<trkpt lat="40.0714072" lon="-105.2287198">
  <ele>1583.04</ele>
  <time>2026-08-28T17:52:46Z</time>
  <course>237.92</course>
  <speed>4.9599697579723205</speed>
  <fix>3d</fix>
</trkpt>
<trkpt lat="40.0714102" lon="-105.2287133">
  <ele>1583.0</ele>
  <time>2026-08-28T17:52:46Z</time>
  <course>237.18</course>
  <speed>4.97</speed>
  <fix>3d</fix>
</trkpt>
<trkpt lat="40.0714048" lon="-105.2287248">
  <ele>1583.04</ele>
  <time>2026-08-28T17:52:46Z</time>
  <course>237.92</course>
  <speed>4.9599697579723205</speed>
  <fix>3d</fix>
</trkpt>
<trkpt lat="40.0714102" lon="-105.2287133">
  <ele>1583.0</ele>
  <time>2026-08-28T17:52:46Z</time>
  <course>237.18</course>
  <speed>4.97</speed>
  <fix>3d</fix>
</trkpt>
<trkpt lat="40.0714023" lon="-105.2287297">
  <ele>1583.04</ele>
  <time>2026-08-28T17:52:46Z</time>
  <course>237.91</course>
  <speed>4.9599697579723205</speed>
  <fix>3d</fix>
</trkpt>
<trkpt lat="40.0714102" lon="-105.2287133">
  <ele>1583.0</ele>
  <time>2026-08-28T17:52:46Z</time>
  <course>237.18</course>
  <speed>4.97</speed>
  <fix>3d</fix>
</trkpt>
<trkpt lat="40.0713999" lon="-105.2287346">
  <ele>1583.04</ele>
  <time>2026-08-28T17:52:46Z</time>
  <course>237.91</course>
  <speed>4.951545213365218</speed>
  <fix>3d</fix>
</trkpt>
<trkpt lat="40.0714054" lon="-105.2287231">
  <ele>1583.0</ele>
  <time>2026-08-28T17:52:46Z</time>
  <course>237.16</course>
  <speed>4.97</speed>
  <fix>3d</fix>
</trkpt>
<trkpt lat="40.0713975" lon="-105.2287395">
  <ele>1583.03</ele>
  <time>2026-08-28T17:52:46Z</time>
  <course>237.9</course>
  <speed>4.951545213365218</speed>
  <fix>3d</fix>
</trkpt>
<trkpt lat="40.0714054" lon="-105.2287231">
  <ele>1583.0</ele>
  <time>2026-08-28T17:52:46Z</time>
  <course>237.16</course>
  <speed>4.97</speed>
  <fix>3d</fix>
</trkpt>
<trkpt lat="40.0713951" lon="-105.2287443">
  <ele>1583.03</ele>
  <time>2026-08-28T17:52:46Z</time>
  <course>237.9</course>
  <speed>4.951545213365218</speed>
  <fix>3d</fix>
</trkpt>
<trkpt lat="40.0714005" lon="-105.2287329">
  <ele>1583.0</ele>
  <time>2026-08-28T17:52:46Z</time>
  <course>237.15</course>
  <speed>4.97</speed>
  <fix>3d</fix>
</trkpt>
<trkpt lat="40.0713927" lon="-105.2287492">
  <ele>1583.03</ele>
  <time>2026-08-28T17:52:46Z</time>
  <course>237.89</course>
  <speed>4.951545213365218</speed>
  <fix>3d</fix>
</trkpt>
<trkpt lat="40.0714005" lon="-105.2287329">
  <ele>1583.0</ele>
  <time>2026-08-28T17:52:46Z</time>
  <course>237.15</course>
  <speed>4.97</speed>
  <fix>3d</fix>
</trkpt>
<trkpt lat="40.0713903" lon="-105.228754">
  <ele>1583.03</ele>
  <time>2026-08-28T17:52:46Z</time>
  <course>237.89</course>
  <speed>4.943126540965748</speed>
  <fix>3d</fix>
</trkpt>
<trkpt lat="40.0713957" lon="-105.2287427">
  <ele>1583.0</ele>
  <time>2026-08-28T17:52:46Z</time>
  <course>237.14</course>
  <speed>4.97</speed>
  <fix>3d</fix>
</trkpt>
<trkpt lat="40.0713879" lon="-105.2287589">
  <ele>1583.03</ele>
  <time>2026-08-28T17:52:46Z</time>
  <course>237.89</course>
  <speed>4.943126540965748</speed>
  <fix>3d</fix>
</trkpt>
<trkpt lat="40.0713957" lon="-105.2287427">
  <ele>1583.0</ele>
  <time>2026-08-28T17:52:46Z</time>
  <course>237.14</course>
  <speed>4.97</speed>
  <fix>3d</fix>
</trkpt>
<trkpt lat="40.0713855" lon="-105.2287638">
  <ele>1583.03</ele>
  <time>2026-08-28T17:52:46Z</time>
  <course>237.88</course>
  <speed>4.943126540965748</speed>
  <fix>3d</fix>
</trkpt>
<trkpt lat="40.0713909" lon="-105.2287526">
  <ele>1583.0</ele>
  <time>2026-08-28T17:52:46Z</time>
  <course>237.13</course>
  <speed>4.97</speed>
  <fix>3d</fix>
</trkpt>
<trkpt lat="40.0713831" lon="-105.2287686">
  <ele>1583.04</ele>
  <time>2026-08-28T17:52:46Z</time>
  <course>237.88</course>
  <speed>4.943126540965748</speed>
  <fix>3d</fix>
</trkpt>
<trkpt lat="40.071386" lon="-105.2287623">
  <ele>1583.0</ele>
  <time>2026-08-28T17:52:46Z</time>
  <course>237.12</course>
  <speed>4.97</speed>
  <fix>3d</fix>
</trkpt>
<trkpt lat="40.0713807" lon="-105.2287735">
  <ele>1583.04</ele>
  <time>2026-08-28T17:52:46Z</time>
  <course>237.86</course>
  <speed>4.943126540965748</speed>
  <fix>3d</fix>
</trkpt>
<trkpt lat="40.071386" lon="-105.2287623">
  <ele>1583.0</ele>
  <time>2026-08-28T17:52:46Z</time>
  <course>237.12</course>
  <speed>4.97</speed>
  <fix>3d</fix>
</trkpt>
<trkpt lat="40.0713783" lon="-105.2287784">
  <ele>1583.04</ele>
  <time>2026-08-28T17:52:46Z</time>
  <course>237.86</course>
  <speed>4.951545213365218</speed>
  <fix>3d</fix>
</trkpt>
<trkpt lat="40.0713812" lon="-105.2287722">
  <ele>1583.0</ele>
  <time>2026-08-28T17:52:46Z</time>
  <course>237.11</course>
  <speed>4.97</speed>
  <fix>3d</fix>
</trkpt>
<trkpt lat="40.0713758" lon="-105.2287833">
  <ele>1583.04</ele>
  <time>2026-08-28T17:52:46Z</time>
  <course>237.87</course>
  <speed>4.951545213365218</speed>
  <fix>3d</fix>
</trkpt>
<trkpt lat="40.0713812" lon="-105.2287722">
  <ele>1583.0</ele>
  <time>2026-08-28T17:52:46Z</time>
  <course>237.11</course>
  <speed>4.97</speed>
  <fix>3d</fix>
</trkpt>
<trkpt lat="40.0713734" lon="-105.2287882">
  <ele>1583.04</ele>
  <time>2026-08-28T17:52:46Z</time>
  <course>237.85</course>
  <speed>4.951545213365218</speed>
  <fix>3d</fix>
</trkpt>
<trkpt lat="40.0713763" lon="-105.228782">
  <ele>1583.0</ele>
  <time>2026-08-28T17:52:46Z</time>
  <course>237.1</course>
  <speed>4.98</speed>
  <fix>3d</fix>
</trkpt>
<trkpt lat="40.071371" lon="-105.2287932">
  <ele>1583.05</ele>
  <time>2026-08-28T17:52:46Z</time>
  <course>237.85</course>
  <speed>4.956944623455057</speed>
  <fix>3d</fix>
</trkpt>
<trkpt lat="40.0713763" lon="-105.228782">
  <ele>1583.0</ele>
  <time>2026-08-28T17:52:46Z</time>
  <course>237.1</course>
  <speed>4.98</speed>
  <fix>3d</fix>
</trkpt>
<trkpt lat="40.0713685" lon="-105.2287982">
  <ele>1583.05</ele>
  <time>2026-08-28T17:52:46Z</time>
  <course>237.84</course>
  <speed>4.965360007089114</speed>
  <fix>3d</fix>
</trkpt>
<trkpt lat="40.0713714" lon="-105.2287917">
  <ele>1583.0</ele>
  <time>2026-08-28T17:52:46Z</time>
  <course>237.08</course>
  <speed>4.98</speed>
  <fix>3d</fix>
</trkpt>
<trkpt lat="40.071366" lon="-105.2288031">
  <ele>1583.05</ele>
  <time>2026-08-28T17:52:46Z</time>
  <course>237.84</course>
  <speed>4.965360007089114</speed>
  <fix>3d</fix>
</trkpt>
<trkpt lat="40.0713714" lon="-105.2287917">
  <ele>1583.0</ele>
  <time>2026-08-28T17:52:46Z</time>
  <course>237.08</course>
  <speed>4.98</speed>
  <fix>3d</fix>
</trkpt>
<trkpt lat="40.0713636" lon="-105.2288081">
  <ele>1583.05</ele>
  <time>2026-08-28T17:52:46Z</time>
  <course>237.84</course>
  <speed>4.965360007089114</speed>
  <fix>3d</fix>
</trkpt>
<trkpt lat="40.0713666" lon="-105.2288016">
  <ele>1583.0</ele>
  <time>2026-08-28T17:52:46Z</time>
  <course>237.08</course>
  <speed>4.98</speed>
  <fix>3d</fix>
</trkpt>
<trkpt lat="40.0713611" lon="-105.228813">
  <ele>1583.05</ele>
  <time>2026-08-28T17:52:46Z</time>
  <course>237.84</course>
  <speed>4.965360007089114</speed>
  <fix>3d</fix>
</trkpt>
<trkpt lat="40.0713666" lon="-105.2288016">
  <ele>1583.0</ele>
  <time>2026-08-28T17:52:46Z</time>
  <course>237.08</course>
  <speed>4.98</speed>
  <fix>3d</fix>
</trkpt>
<trkpt lat="40.0713587" lon="-105.2288179">
  <ele>1583.04</ele>
  <time>2026-08-28T17:52:46Z</time>
  <course>237.84</course>
  <speed>4.965360007089114</speed>
  <fix>3d</fix>
</trkpt>
<trkpt lat="40.0713617" lon="-105.2288114">
  <ele>1583.0</ele>
  <time>2026-08-28T17:52:46Z</time>
  <course>237.08</course>
  <speed>4.98</speed>
  <fix>3d</fix>
</trkpt>
<trkpt lat="40.0713562" lon="-105.2288229">
  <ele>1583.04</ele>
  <time>2026-08-28T17:52:46Z</time>
  <course>237.84</course>
  <speed>4.965360007089114</speed>
  <fix>3d</fix>
</trkpt>
<trkpt lat="40.0713617" lon="-105.2288114">
  <ele>1583.0</ele>
  <time>2026-08-28T17:52:46Z</time>
  <course>237.08</course>
  <speed>4.98</speed>
  <fix>3d</fix>
</trkpt>
<trkpt lat="40.0713538" lon="-105.2288278">
  <ele>1583.04</ele>
  <time>2026-08-28T17:52:46Z</time>
  <course>237.83</course>
  <speed>4.965360007089114</speed>
  <fix>3d</fix>
</trkpt>
<trkpt lat="40.0713617" lon="-105.2288114">
  <ele>1583.0</ele>
  <time>2026-08-28T17:52:46Z</time>
  <course>237.08</course>
  <speed>4.98</speed>
  <fix>3d</fix>
</trkpt>
<trkpt lat="40.0713514" lon="-105.2288327">
  <ele>1583.03</ele>
  <time>2026-08-28T17:52:46Z</time>
  <course>237.83</course>
  <speed>4.965360007089114</speed>
  <fix>3d</fix>
</trkpt>
<trkpt lat="40.0713568" lon="-105.2288212">
  <ele>1583.0</ele>
  <time>2026-08-28T17:52:46Z</time>
  <course>237.07</course>
  <speed>4.98</speed>
  <fix>3d</fix>
</trkpt>
<trkpt lat="40.0713489" lon="-105.2288376">
  <ele>1583.03</ele>
  <time>2026-08-28T17:52:46Z</time>
  <course>237.83</course>
  <speed>4.965360007089114</speed>
  <fix>3d</fix>
</trkpt>
<trkpt lat="40.0713568" lon="-105.2288212">
  <ele>1583.0</ele>
  <time>2026-08-28T17:52:46Z</time>
  <course>237.07</course>
  <speed>4.98</speed>
  <fix>3d</fix>
</trkpt>
<trkpt lat="40.0713465" lon="-105.2288425">
  <ele>1583.03</ele>
  <time>2026-08-28T17:52:46Z</time>
  <course>237.83</course>
  <speed>4.956944623455057</speed>
  <fix>3d</fix>
</trkpt>
<trkpt lat="40.071352" lon="-105.2288311">
  <ele>1583.0</ele>
  <time>2026-08-28T17:52:46Z</time>
  <course>237.06</course>
  <speed>4.98</speed>
  <fix>3d</fix>
</trkpt>
<trkpt lat="40.0713441" lon="-105.2288473">
  <ele>1583.03</ele>
  <time>2026-08-28T17:52:46Z</time>
  <course>237.83</course>
  <speed>4.956944623455057</speed>
  <fix>3d</fix>
</trkpt>
<trkpt lat="40.071352" lon="-105.2288311">
  <ele>1583.0</ele>
  <time>2026-08-28T17:52:46Z</time>
  <course>237.06</course>
  <speed>4.98</speed>
  <fix>3d</fix>
</trkpt>
<trkpt lat="40.0713417" lon="-105.2288522">
  <ele>1583.03</ele>
  <time>2026-08-28T17:52:46Z</time>
  <course>237.83</course>
  <speed>4.956944623455057</speed>
  <fix>3d</fix>
</trkpt>
<trkpt lat="40.0713471" lon="-105.2288409">
  <ele>1583.0</ele>
  <time>2026-08-28T17:52:46Z</time>
  <course>237.06</course>
  <speed>4.98</speed>
  <fix>3d</fix>
</trkpt>
<trkpt lat="40.0713393" lon="-105.228857">
  <ele>1583.03</ele>
  <time>2026-08-28T17:52:46Z</time>
  <course>237.83</course>
  <speed>4.956944623455057</speed>
  <fix>3d</fix>
</trkpt>
<trkpt lat="40.0713471" lon="-105.2288409">
  <ele>1583.0</ele>
  <time>2026-08-28T17:52:46Z</time>
  <course>237.06</course>
  <speed>4.98</speed>
  <fix>3d</fix>
</trkpt>
<trkpt lat="40.0713369" lon="-105.2288619">
  <ele>1583.03</ele>
  <time>2026-08-28T17:52:46Z</time>
  <course>237.83</course>
  <speed>4.956944623455057</speed>
  <fix>3d</fix>
</trkpt>
<trkpt lat="40.0713422" lon="-105.2288508">
  <ele>1583.0</ele>
  <time>2026-08-28T17:52:46Z</time>
  <course>237.06</course>
  <speed>4.98</speed>
  <fix>3d</fix>
</trkpt>
<trkpt lat="40.0713345" lon="-105.2288668">
  <ele>1583.03</ele>
  <time>2026-08-28T17:52:46Z</time>
  <course>237.83</course>
  <speed>4.956944623455057</speed>
  <fix>3d</fix>
</trkpt>
<trkpt lat="40.0713374" lon="-105.2288605">
  <ele>1583.0</ele>
  <time>2026-08-28T17:52:46Z</time>
  <course>237.06</course>
  <speed>4.98</speed>
  <fix>3d</fix>
</trkpt>
<trkpt lat="40.071332" lon="-105.2288717">
  <ele>1583.03</ele>
  <time>2026-08-28T17:52:46Z</time>
  <course>237.82</course>
  <speed>4.956944623455057</speed>
  <fix>3d</fix>
</trkpt>
<trkpt lat="40.0713374" lon="-105.2288605">
  <ele>1583.0</ele>
  <time>2026-08-28T17:52:46Z</time>
  <course>237.06</course>
  <speed>4.98</speed>
  <fix>3d</fix>
</trkpt>
<trkpt lat="40.0713296" lon="-105.2288766">
  <ele>1583.03</ele>
  <time>2026-08-28T17:52:46Z</time>
  <course>237.82</course>
  <speed>4.956944623455057</speed>
  <fix>3d</fix>
</trkpt>
<trkpt lat="40.0713325" lon="-105.2288704">
  <ele>1583.0</ele>
  <time>2026-08-28T17:52:46Z</time>
  <course>237.06</course>
  <speed>4.98</speed>
  <fix>3d</fix>
</trkpt>
<trkpt lat="40.0713272" lon="-105.2288815">
  <ele>1583.03</ele>
  <time>2026-08-28T17:52:46Z</time>
  <course>237.82</course>
  <speed>4.965360007089114</speed>
  <fix>3d</fix>
</trkpt>
<trkpt lat="40.0713325" lon="-105.2288704">
  <ele>1583.0</ele>
  <time>2026-08-28T17:52:46Z</time>
  <course>237.06</course>
  <speed>4.98</speed>
  <fix>3d</fix>
</trkpt>
<trkpt lat="40.0713247" lon="-105.2288865">
  <ele>1583.03</ele>
  <time>2026-08-28T17:52:46Z</time>
  <course>237.82</course>
  <speed>4.965360007089114</speed>
  <fix>3d</fix>
</trkpt>
<trkpt lat="40.0713276" lon="-105.2288802">
  <ele>1583.0</ele>
  <time>2026-08-28T17:52:46Z</time>
  <course>237.05</course>
  <speed>4.99</speed>
  <fix>3d</fix>
</trkpt>
<trkpt lat="40.0713223" lon="-105.2288914">
  <ele>1583.02</ele>
  <time>2026-08-28T17:52:46Z</time>
  <course>237.82</course>
  <speed>4.970764528721915</speed>
  <fix>3d</fix>
</trkpt>
<trkpt lat="40.0713276" lon="-105.2288802">
  <ele>1583.0</ele>
  <time>2026-08-28T17:52:46Z</time>
  <course>237.05</course>
  <speed>4.99</speed>
  <fix>3d</fix>
</trkpt>
<trkpt lat="40.0713198" lon="-105.2288964">
  <ele>1583.02</ele>
  <time>2026-08-28T17:52:46Z</time>
  <course>237.82</course>
  <speed>4.970764528721915</speed>
  <fix>3d</fix>
</trkpt>
<trkpt lat="40.0713227" lon="-105.2288901">
  <ele>1583.0</ele>
  <time>2026-08-28T17:52:46Z</time>
  <course>237.05</course>
  <speed>4.99</speed>
  <fix>3d</fix>
</trkpt>
<trkpt lat="40.0713173" lon="-105.2289014">
  <ele>1583.02</ele>
  <time>2026-08-28T17:52:46Z</time>
  <course>237.82</course>
  <speed>4.970764528721915</speed>
  <fix>3d</fix>
</trkpt>
<trkpt lat="40.0713227" lon="-105.2288901">
  <ele>1583.0</ele>
  <time>2026-08-28T17:52:46Z</time>
  <course>237.05</course>
  <speed>4.99</speed>
  <fix>3d</fix>
</trkpt>
<trkpt lat="40.0713149" lon="-105.2289063">
  <ele>1583.02</ele>
  <time>2026-08-28T17:52:46Z</time>
  <course>237.82</course>
  <speed>4.970764528721915</speed>
  <fix>3d</fix>
</trkpt>
<trkpt lat="40.0713178" lon="-105.2288998">
  <ele>1583.0</ele>
  <time>2026-08-28T17:52:46Z</time>
  <course>237.05</course>
  <speed>4.99</speed>
  <fix>3d</fix>
</trkpt>
<trkpt lat="40.0713124" lon="-105.2289113">
  <ele>1583.02</ele>
  <time>2026-08-28T17:52:46Z</time>
  <course>237.82</course>
  <speed>4.970764528721915</speed>
  <fix>3d</fix>
</trkpt>
<trkpt lat="40.0713178" lon="-105.2288998">
  <ele>1583.0</ele>
  <time>2026-08-28T17:52:46Z</time>
  <course>237.05</course>
  <speed>4.99</speed>
  <fix>3d</fix>
</trkpt>
<trkpt lat="40.0713099" lon="-105.2289162">
  <ele>1583.01</ele>
  <time>2026-08-28T17:52:46Z</time>
  <course>237.82</course>
  <speed>4.970764528721915</speed>
  <fix>3d</fix>
</trkpt>
<trkpt lat="40.071313" lon="-105.2289097">
  <ele>1583.0</ele>
  <time>2026-08-28T17:52:46Z</time>
  <course>237.05</course>
  <speed>4.99</speed>
  <fix>3d</fix>
</trkpt>
<trkpt lat="40.0713075" lon="-105.2289212">
  <ele>1583.01</ele>
  <time>2026-08-28T17:52:46Z</time>
  <course>237.82</course>
  <speed>4.970764528721915</speed>
  <fix>3d</fix>
</trkpt>
<trkpt lat="40.071313" lon="-105.2289097">
  <ele>1583.0</ele>
  <time>2026-08-28T17:52:46Z</time>
  <course>237.05</course>
  <speed>4.99</speed>
  <fix>3d</fix>
</trkpt>
<trkpt lat="40.071305" lon="-105.2289261">
  <ele>1583.01</ele>
  <time>2026-08-28T17:52:46Z</time>
  <course>237.82</course>
  <speed>4.970764528721915</speed>
  <fix>3d</fix>
</trkpt>
<trkpt lat="40.0713081" lon="-105.2289195">
  <ele>1583.0</ele>
  <time>2026-08-28T17:52:46Z</time>
  <course>237.05</course>
  <speed>4.98</speed>
  <fix>3d</fix>
</trkpt>
<trkpt lat="40.0713026" lon="-105.228931">
  <ele>1583.01</ele>
  <time>2026-08-28T17:52:46Z</time>
  <course>237.82</course>
  <speed>4.970764528721915</speed>
  <fix>3d</fix>
</trkpt>
<trkpt lat="40.0713081" lon="-105.2289195">
  <ele>1583.0</ele>
  <time>2026-08-28T17:52:46Z</time>
  <course>237.05</course>
  <speed>4.98</speed>
  <fix>3d</fix>
</trkpt>
<trkpt lat="40.0713001" lon="-105.228936">
  <ele>1583.0</ele>
  <time>2026-08-28T17:52:46Z</time>
  <course>237.82</course>
  <speed>4.970764528721915</speed>
  <fix>3d</fix>
</trkpt>
<trkpt lat="40.0713081" lon="-105.2289195">
  <ele>1583.0</ele>
  <time>2026-08-28T17:52:46Z</time>
  <course>237.05</course>
  <speed>4.98</speed>
  <fix>3d</fix>
</trkpt>
<trkpt lat="40.0712977" lon="-105.2289409">
  <ele>1583.0</ele>
  <time>2026-08-28T17:52:46Z</time>
  <course>237.82</course>
  <speed>4.970764528721915</speed>
  <fix>3d</fix>
</trkpt>
<trkpt lat="40.0713032" lon="-105.2289294">
  <ele>1583.0</ele>
  <time>2026-08-28T17:52:46Z</time>
  <course>237.05</course>
  <speed>4.98</speed>
  <fix>3d</fix>
</trkpt>
<trkpt lat="40.0712953" lon="-105.2289458">
  <ele>1583.0</ele>
  <time>2026-08-28T17:52:46Z</time>
  <course>237.82</course>
  <speed>4.970764528721915</speed>
  <fix>3d</fix>
</trkpt>
<trkpt lat="40.0713032" lon="-105.2289294">
  <ele>1583.0</ele>
  <time>2026-08-28T17:52:46Z</time>
  <course>237.05</course>
  <speed>4.98</speed>
  <fix>3d</fix>
</trkpt>
<trkpt lat="40.0712929" lon="-105.2289506">
  <ele>1582.99</ele>
  <time>2026-08-28T17:52:46Z</time>
  <course>237.82</course>
  <speed>4.970764528721915</speed>
  <fix>3d</fix>
</trkpt>
<trkpt lat="40.0712983" lon="-105.2289391">
  <ele>1583.0</ele>
  <time>2026-08-28T17:52:46Z</time>
  <course>237.05</course>
  <speed>4.98</speed>
  <fix>3d</fix>
</trkpt>
<trkpt lat="40.0712904" lon="-105.2289555">
  <ele>1582.99</ele>
  <time>2026-08-28T17:52:46Z</time>
  <course>237.82</course>
  <speed>4.962358310319802</speed>
  <fix>3d</fix>
</trkpt>
<trkpt lat="40.0712983" lon="-105.2289391">
  <ele>1583.0</ele>
  <time>2026-08-28T17:52:46Z</time>
  <course>237.05</course>
  <speed>4.98</speed>
  <fix>3d</fix>
</trkpt>
<trkpt lat="40.071288" lon="-105.2289603">
  <ele>1582.98</ele>
  <time>2026-08-28T17:52:46Z</time>
  <course>237.82</course>
  <speed>4.956944623455057</speed>
  <fix>3d</fix>
</trkpt>
<trkpt lat="40.0712935" lon="-105.228949">
  <ele>1583.0</ele>
  <time>2026-08-28T17:52:46Z</time>
  <course>237.05</course>
  <speed>4.98</speed>
  <fix>3d</fix>
</trkpt>
<trkpt lat="40.0712856" lon="-105.2289652">
  <ele>1582.98</ele>
  <time>2026-08-28T17:52:46Z</time>
  <course>237.82</course>
  <speed>4.956944623455057</speed>
  <fix>3d</fix>
</trkpt>
<trkpt lat="40.0712886" lon="-105.2289589">
  <ele>1583.0</ele>
  <time>2026-08-28T17:52:46Z</time>
  <course>237.05</course>
  <speed>4.97</speed>
  <fix>3d</fix>
</trkpt>
<trkpt lat="40.0712832" lon="-105.2289701">
  <ele>1582.98</ele>
  <time>2026-08-28T17:52:46Z</time>
  <course>237.82</course>
  <speed>4.956944623455057</speed>
  <fix>3d</fix>
</trkpt>
<trkpt lat="40.0712886" lon="-105.2289589">
  <ele>1583.0</ele>
  <time>2026-08-28T17:52:46Z</time>
  <course>237.05</course>
  <speed>4.97</speed>
  <fix>3d</fix>
</trkpt>
<trkpt lat="40.0712807" lon="-105.228975">
  <ele>1582.98</ele>
  <time>2026-08-28T17:52:46Z</time>
  <course>237.82</course>
  <speed>4.962358310319802</speed>
  <fix>3d</fix>
</trkpt>
<trkpt lat="40.0712837" lon="-105.2289687">
  <ele>1583.0</ele>
  <time>2026-08-28T17:52:47Z</time>
  <course>237.05</course>
  <speed>4.98</speed>
  <fix>3d</fix>
</trkpt>
<trkpt lat="40.0712783" lon="-105.2289799">
  <ele>1582.98</ele>
  <time>2026-08-28T17:52:47Z</time>
  <course>237.82</course>
  <speed>4.962358310319802</speed>
  <fix>3d</fix>
</trkpt>
<trkpt lat="40.0712837" lon="-105.2289687">
  <ele>1583.0</ele>
  <time>2026-08-28T17:52:47Z</time>
  <course>237.05</course>
  <speed>4.98</speed>
  <fix>3d</fix>
</trkpt>
<trkpt lat="40.0712759" lon="-105.2289848">
  <ele>1582.98</ele>
  <time>2026-08-28T17:52:47Z</time>
  <course>237.82</course>
  <speed>4.962358310319802</speed>
  <fix>3d</fix>
</trkpt>
<trkpt lat="40.0712789" lon="-105.2289784">
  <ele>1583.0</ele>
  <time>2026-08-28T17:52:47Z</time>
  <course>237.05</course>
  <speed>4.98</speed>
  <fix>3d</fix>
</trkpt>
<trkpt lat="40.0712734" lon="-105.2289898">
  <ele>1582.98</ele>
  <time>2026-08-28T17:52:47Z</time>
  <course>237.82</course>
  <speed>4.970764528721915</speed>
  <fix>3d</fix>
</trkpt>
<trkpt lat="40.0712789" lon="-105.2289784">
  <ele>1583.0</ele>
  <time>2026-08-28T17:52:47Z</time>
  <course>237.05</course>
  <speed>4.98</speed>
  <fix>3d</fix>
</trkpt>
<trkpt lat="40.071271" lon="-105.2289947">
  <ele>1582.98</ele>
  <time>2026-08-28T17:52:47Z</time>
  <course>237.82</course>
  <speed>4.970764528721915</speed>
  <fix>3d</fix>
</trkpt>
<trkpt lat="40.071274" lon="-105.2289883">
  <ele>1583.0</ele>
  <time>2026-08-28T17:52:47Z</time>
  <course>237.05</course>
  <speed>4.98</speed>
  <fix>3d</fix>
</trkpt>
<trkpt lat="40.0712685" lon="-105.2289997">
  <ele>1582.98</ele>
  <time>2026-08-28T17:52:47Z</time>
  <course>237.82</course>
  <speed>4.970764528721915</speed>
  <fix>3d</fix>
</trkpt>
<trkpt lat="40.071274" lon="-105.2289883">
  <ele>1583.0</ele>
  <time>2026-08-28T17:52:47Z</time>
  <course>237.05</course>
  <speed>4.98</speed>
  <fix>3d</fix>
</trkpt>
<trkpt lat="40.0712661" lon="-105.2290046">
  <ele>1582.98</ele>
  <time>2026-08-28T17:52:47Z</time>
  <course>237.82</course>
  <speed>4.970764528721915</speed>
  <fix>3d</fix>
</trkpt>
<trkpt lat="40.0712691" lon="-105.228998">
  <ele>1583.0</ele>
  <time>2026-08-28T17:52:47Z</time>
  <course>237.05</course>
  <speed>4.98</speed>
  <fix>3d</fix>
</trkpt>
<trkpt lat="40.0712636" lon="-105.2290095">
  <ele>1582.98</ele>
  <time>2026-08-28T17:52:47Z</time>
  <course>237.82</course>
  <speed>4.970764528721915</speed>
  <fix>3d</fix>
</trkpt>
<trkpt lat="40.0712691" lon="-105.228998">
  <ele>1583.0</ele>
  <time>2026-08-28T17:52:47Z</time>
  <course>237.05</course>
  <speed>4.98</speed>
  <fix>3d</fix>
</trkpt>
<trkpt lat="40.0712612" lon="-105.2290145">
  <ele>1582.97</ele>
  <time>2026-08-28T17:52:47Z</time>
  <course>237.82</course>
  <speed>4.970764528721915</speed>
  <fix>3d</fix>
</trkpt>
<trkpt lat="40.0712643" lon="-105.2290079">
  <ele>1583.0</ele>
  <time>2026-08-28T17:52:47Z</time>
  <course>237.05</course>
  <speed>4.98</speed>
  <fix>3d</fix>
</trkpt>
<trkpt lat="40.0712587" lon="-105.2290194">
  <ele>1582.97</ele>
  <time>2026-08-28T17:52:47Z</time>
  <course>237.82</course>
  <speed>4.970764528721915</speed>
  <fix>3d</fix>
</trkpt>
<trkpt lat="40.0712643" lon="-105.2290079">
  <ele>1583.0</ele>
  <time>2026-08-28T17:52:47Z</time>
  <course>237.05</course>
  <speed>4.98</speed>
  <fix>3d</fix>
</trkpt>
<trkpt lat="40.0712563" lon="-105.2290243">
  <ele>1582.97</ele>
  <time>2026-08-28T17:52:47Z</time>
  <course>237.82</course>
  <speed>4.970764528721915</speed>
  <fix>3d</fix>
</trkpt>
<trkpt lat="40.0712594" lon="-105.2290176">
  <ele>1583.0</ele>
  <time>2026-08-28T17:52:47Z</time>
  <course>237.05</course>
  <speed>4.97</speed>
  <fix>3d</fix>
</trkpt>
<trkpt lat="40.0712538" lon="-105.2290293">
  <ele>1582.97</ele>
  <time>2026-08-28T17:52:47Z</time>
  <course>237.82</course>
  <speed>4.970764528721915</speed>
  <fix>3d</fix>
</trkpt>
<trkpt lat="40.0712594" lon="-105.2290176">
  <ele>1583.0</ele>
  <time>2026-08-28T17:52:47Z</time>
  <course>237.05</course>
  <speed>4.97</speed>
  <fix>3d</fix>
</trkpt>
<trkpt lat="40.0712514" lon="-105.2290342">
  <ele>1582.97</ele>
  <time>2026-08-28T17:52:47Z</time>
  <course>237.82</course>
  <speed>4.970764528721915</speed>
  <fix>3d</fix>
</trkpt>
<trkpt lat="40.0712594" lon="-105.2290176">
  <ele>1583.0</ele>
  <time>2026-08-28T17:52:47Z</time>
  <course>237.05</course>
  <speed>4.97</speed>
  <fix>3d</fix>
</trkpt>
<trkpt lat="40.071249" lon="-105.2290391">
  <ele>1582.97</ele>
  <time>2026-08-28T17:52:47Z</time>
  <course>237.82</course>
  <speed>4.970764528721915</speed>
  <fix>3d</fix>
</trkpt>
<trkpt lat="40.0712545" lon="-105.2290275">
  <ele>1583.0</ele>
  <time>2026-08-28T17:52:47Z</time>
  <course>237.05</course>
  <speed>4.97</speed>
  <fix>3d</fix>
</trkpt>
<trkpt lat="40.0712465" lon="-105.2290439">
  <ele>1582.97</ele>
  <time>2026-08-28T17:52:47Z</time>
  <course>237.82</course>
  <speed>4.962358310319802</speed>
  <fix>3d</fix>
</trkpt>
<trkpt lat="40.0712545" lon="-105.2290275">
  <ele>1583.0</ele>
  <time>2026-08-28T17:52:47Z</time>
  <course>237.05</course>
  <speed>4.97</speed>
  <fix>3d</fix>
</trkpt>
<trkpt lat="40.0712441" lon="-105.2290488">
  <ele>1582.98</ele>
  <time>2026-08-28T17:52:47Z</time>
  <course>237.82</course>
  <speed>4.962358310319802</speed>
  <fix>3d</fix>
</trkpt>
<trkpt lat="40.0712497" lon="-105.2290373">
  <ele>1583.0</ele>
  <time>2026-08-28T17:52:47Z</time>
  <course>237.05</course>
  <speed>4.97</speed>
  <fix>3d</fix>
</trkpt>
<trkpt lat="40.0712417" lon="-105.2290536">
  <ele>1582.98</ele>
  <time>2026-08-28T17:52:47Z</time>
  <course>237.82</course>
  <speed>4.962358310319802</speed>
  <fix>3d</fix>
</trkpt>
<trkpt lat="40.0712497" lon="-105.2290373">
  <ele>1583.0</ele>
  <time>2026-08-28T17:52:47Z</time>
  <course>237.05</course>
  <speed>4.97</speed>
  <fix>3d</fix>
</trkpt>
<trkpt lat="40.0712393" lon="-105.2290585">
  <ele>1582.98</ele>
  <time>2026-08-28T17:52:47Z</time>
  <course>237.82</course>
  <speed>4.962358310319802</speed>
  <fix>3d</fix>
</trkpt>
<trkpt lat="40.0712448" lon="-105.2290472">
  <ele>1583.0</ele>
  <time>2026-08-28T17:52:47Z</time>
  <course>237.05</course>
  <speed>4.97</speed>
  <fix>3d</fix>
</trkpt>
<trkpt lat="40.0712369" lon="-105.2290633">
  <ele>1582.98</ele>
  <time>2026-08-28T17:52:47Z</time>
  <course>237.82</course>
  <speed>4.962358310319802</speed>
  <fix>3d</fix>
</trkpt>
<trkpt lat="40.0712448" lon="-105.2290472">
  <ele>1583.0</ele>
  <time>2026-08-28T17:52:47Z</time>
  <course>237.05</course>
  <speed>4.97</speed>
  <fix>3d</fix>
</trkpt>
<trkpt lat="40.0712345" lon="-105.2290682">
  <ele>1582.98</ele>
  <time>2026-08-28T17:52:47Z</time>
  <course>237.82</course>
  <speed>4.962358310319802</speed>
  <fix>3d</fix>
</trkpt>
<trkpt lat="40.0712399" lon="-105.2290569">
  <ele>1583.0</ele>
  <time>2026-08-28T17:52:47Z</time>
  <course>237.05</course>
  <speed>4.97</speed>
  <fix>3d</fix>
</trkpt>
<trkpt lat="40.0712321" lon="-105.2290731">
  <ele>1582.98</ele>
  <time>2026-08-28T17:52:47Z</time>
  <course>237.82</course>
  <speed>4.962358310319802</speed>
  <fix>3d</fix>
</trkpt>
<trkpt lat="40.0712351" lon="-105.2290668">
  <ele>1583.0</ele>
  <time>2026-08-28T17:52:47Z</time>
  <course>237.05</course>
  <speed>4.98</speed>
  <fix>3d</fix>
</trkpt>
<trkpt lat="40.0712296" lon="-105.229078">
  <ele>1582.99</ele>
  <time>2026-08-28T17:52:47Z</time>
  <course>237.82</course>
  <speed>4.962358310319802</speed>
  <fix>3d</fix>
</trkpt>
<trkpt lat="40.0712351" lon="-105.2290668">
  <ele>1583.0</ele>
  <time>2026-08-28T17:52:47Z</time>
  <course>237.05</course>
  <speed>4.98</speed>
  <fix>3d</fix>
</trkpt>
<trkpt lat="40.0712272" lon="-105.2290828">
  <ele>1582.99</ele>
  <time>2026-08-28T17:52:47Z</time>
  <course>237.82</course>
  <speed>4.962358310319802</speed>
  <fix>3d</fix>
</trkpt>
<trkpt lat="40.0712302" lon="-105.2290765">
  <ele>1583.0</ele>
  <time>2026-08-28T17:52:47Z</time>
  <course>237.05</course>
  <speed>4.98</speed>
  <fix>3d</fix>
</trkpt>
<trkpt lat="40.0712248" lon="-105.2290878">
  <ele>1582.99</ele>
  <time>2026-08-28T17:52:47Z</time>
  <course>237.82</course>
  <speed>4.976183276367541</speed>
  <fix>3d</fix>
</trkpt>
<trkpt lat="40.0712302" lon="-105.2290765">
  <ele>1583.0</ele>
  <time>2026-08-28T17:52:47Z</time>
  <course>237.05</course>
  <speed>4.98</speed>
  <fix>3d</fix>
</trkpt>
<trkpt lat="40.0712223" lon="-105.2290927">
  <ele>1582.98</ele>
  <time>2026-08-28T17:52:47Z</time>
  <course>237.82</course>
  <speed>4.976183276367541</speed>
  <fix>3d</fix>
</trkpt>
<trkpt lat="40.0712253" lon="-105.2290864">
  <ele>1583.0</ele>
  <time>2026-08-28T17:52:47Z</time>
  <course>237.05</course>
  <speed>4.99</speed>
  <fix>3d</fix>
</trkpt>
<trkpt lat="40.0712199" lon="-105.2290977">
  <ele>1582.98</ele>
  <time>2026-08-28T17:52:47Z</time>
  <course>237.81</course>
  <speed>4.976183276367541</speed>
  <fix>3d</fix>
</trkpt>
<trkpt lat="40.0712253" lon="-105.2290864">
  <ele>1583.0</ele>
  <time>2026-08-28T17:52:47Z</time>
  <course>237.05</course>
  <speed>4.99</speed>
  <fix>3d</fix>
</trkpt>
<trkpt lat="40.0712174" lon="-105.2291026">
  <ele>1582.98</ele>
  <time>2026-08-28T17:52:47Z</time>
  <course>237.81</course>
  <speed>4.984586241605215</speed>
  <fix>3d</fix>
</trkpt>
<trkpt lat="40.0712205" lon="-105.2290962">
  <ele>1583.0</ele>
  <time>2026-08-28T17:52:47Z</time>
  <course>237.05</course>
  <speed>4.99</speed>
  <fix>3d</fix>
</trkpt>
<trkpt lat="40.0712149" lon="-105.2291076">
  <ele>1582.98</ele>
  <time>2026-08-28T17:52:47Z</time>
  <course>237.81</course>
  <speed>4.984586241605215</speed>
  <fix>3d</fix>
</trkpt>
<trkpt lat="40.0712205" lon="-105.2290962">
  <ele>1583.0</ele>
  <time>2026-08-28T17:52:47Z</time>
  <course>237.05</course>
  <speed>4.99</speed>
  <fix>3d</fix>
</trkpt>
<trkpt lat="40.0712125" lon="-105.2291125">
  <ele>1582.98</ele>
  <time>2026-08-28T17:52:47Z</time>
  <course>237.81</course>
  <speed>4.984586241605215</speed>
  <fix>3d</fix>
</trkpt>
<trkpt lat="40.0712156" lon="-105.2291061">
  <ele>1583.0</ele>
  <time>2026-08-28T17:52:47Z</time>
  <course>237.05</course>
  <speed>4.99</speed>
  <fix>3d</fix>
</trkpt>
<trkpt lat="40.07121" lon="-105.2291175">
  <ele>1582.98</ele>
  <time>2026-08-28T17:52:47Z</time>
  <course>237.81</course>
  <speed>4.984586241605215</speed>
  <fix>3d</fix>
</trkpt>
<trkpt lat="40.0712156" lon="-105.2291061">
  <ele>1583.0</ele>
  <time>2026-08-28T17:52:47Z</time>
  <course>237.05</course>
  <speed>4.99</speed>
  <fix>3d</fix>
</trkpt>
<trkpt lat="40.0712076" lon="-105.2291225">
  <ele>1582.98</ele>
  <time>2026-08-28T17:52:47Z</time>
  <course>237.81</course>
  <speed>4.984586241605215</speed>
  <fix>3d</fix>
</trkpt>
<trkpt lat="40.0712107" lon="-105.2291159">
  <ele>1583.0</ele>
  <time>2026-08-28T17:52:47Z</time>
  <course>237.05</course>
  <speed>4.99</speed>
  <fix>3d</fix>
</trkpt>
<trkpt lat="40.0712051" lon="-105.2291274">
  <ele>1582.98</ele>
  <time>2026-08-28T17:52:47Z</time>
  <course>237.81</course>
  <speed>4.984586241605215</speed>
  <fix>3d</fix>
</trkpt>
<trkpt lat="40.0712107" lon="-105.2291159">
  <ele>1583.0</ele>
  <time>2026-08-28T17:52:47Z</time>
  <course>237.05</course>
  <speed>4.99</speed>
  <fix>3d</fix>
</trkpt>
<trkpt lat="40.0712027" lon="-105.2291324">
  <ele>1582.98</ele>
  <time>2026-08-28T17:52:47Z</time>
  <course>237.81</course>
  <speed>4.984586241605215</speed>
  <fix>3d</fix>
</trkpt>
<trkpt lat="40.0712058" lon="-105.2291257">
  <ele>1583.0</ele>
  <time>2026-08-28T17:52:47Z</time>
  <course>237.05</course>
  <speed>4.99</speed>
  <fix>3d</fix>
</trkpt>
<trkpt lat="40.0712002" lon="-105.2291373">
  <ele>1582.98</ele>
  <time>2026-08-28T17:52:47Z</time>
  <course>237.81</course>
  <speed>4.984586241605215</speed>
  <fix>3d</fix>
</trkpt>
<trkpt lat="40.0712058" lon="-105.2291257">
  <ele>1583.0</ele>
  <time>2026-08-28T17:52:47Z</time>
  <course>237.05</course>
  <speed>4.99</speed>
  <fix>3d</fix>
</trkpt>
<trkpt lat="40.0711977" lon="-105.2291422">
  <ele>1582.97</ele>
  <time>2026-08-28T17:52:47Z</time>
  <course>237.81</course>
  <speed>4.984586241605215</speed>
  <fix>3d</fix>
</trkpt>
<trkpt lat="40.0712058" lon="-105.2291257">
  <ele>1583.0</ele>
  <time>2026-08-28T17:52:47Z</time>
  <course>237.05</course>
  <speed>4.99</speed>
  <fix>3d</fix>
</trkpt>
<trkpt lat="40.0711953" lon="-105.2291471">
  <ele>1582.97</ele>
  <time>2026-08-28T17:52:47Z</time>
  <course>237.81</course>
  <speed>4.984586241605215</speed>
  <fix>3d</fix>
</trkpt>
<trkpt lat="40.071201" lon="-105.2291356">
  <ele>1583.0</ele>
  <time>2026-08-28T17:52:47Z</time>
  <course>237.05</course>
  <speed>4.99</speed>
  <fix>3d</fix>
</trkpt>
<trkpt lat="40.0711929" lon="-105.229152">
  <ele>1582.97</ele>
  <time>2026-08-28T17:52:47Z</time>
  <course>237.81</course>
  <speed>4.976183276367541</speed>
  <fix>3d</fix>
</trkpt>
<trkpt lat="40.071201" lon="-105.2291356">
  <ele>1583.0</ele>
  <time>2026-08-28T17:52:47Z</time>
  <course>237.05</course>
  <speed>4.99</speed>
  <fix>3d</fix>
</trkpt>
<trkpt lat="40.0711905" lon="-105.2291569">
  <ele>1582.97</ele>
  <time>2026-08-28T17:52:47Z</time>
  <course>237.81</course>
  <speed>4.976183276367541</speed>
  <fix>3d</fix>
</trkpt>
<trkpt lat="40.0711961" lon="-105.2291454">
  <ele>1583.0</ele>
  <time>2026-08-28T17:52:47Z</time>
  <course>237.05</course>
  <speed>4.98</speed>
  <fix>3d</fix>
</trkpt>
<trkpt lat="40.0711881" lon="-105.2291617">
  <ele>1582.97</ele>
  <time>2026-08-28T17:52:47Z</time>
  <course>237.81</course>
  <speed>4.976183276367541</speed>
  <fix>3d</fix>
</trkpt>
<trkpt lat="40.0711961" lon="-105.2291454">
  <ele>1583.0</ele>
  <time>2026-08-28T17:52:47Z</time>
  <course>237.05</course>
  <speed>4.98</speed>
  <fix>3d</fix>
</trkpt>
<trkpt lat="40.0711857" lon="-105.2291666">
  <ele>1582.97</ele>
  <time>2026-08-28T17:52:47Z</time>
  <course>237.81</course>
  <speed>4.976183276367541</speed>
  <fix>3d</fix>
</trkpt>
<trkpt lat="40.0711912" lon="-105.2291553">
  <ele>1583.0</ele>
  <time>2026-08-28T17:52:47Z</time>
  <course>237.05</course>
  <speed>4.98</speed>
  <fix>3d</fix>
</trkpt>
<trkpt lat="40.0711832" lon="-105.2291715">
  <ele>1582.98</ele>
  <time>2026-08-28T17:52:47Z</time>
  <course>237.81</course>
  <speed>4.976183276367541</speed>
  <fix>3d</fix>
</trkpt>
<trkpt lat="40.0711863" lon="-105.229165">
  <ele>1583.0</ele>
  <time>2026-08-28T17:52:47Z</time>
  <course>237.05</course>
  <speed>4.98</speed>
  <fix>3d</fix>
</trkpt>
<trkpt lat="40.0711808" lon="-105.2291764">
  <ele>1582.98</ele>
  <time>2026-08-28T17:52:47Z</time>
  <course>237.81</course>
  <speed>4.976183276367541</speed>
  <fix>3d</fix>
</trkpt>
<trkpt lat="40.0711863" lon="-105.229165">
  <ele>1583.0</ele>
  <time>2026-08-28T17:52:47Z</time>
  <course>237.05</course>
  <speed>4.98</speed>
  <fix>3d</fix>
</trkpt>
<trkpt lat="40.0711784" lon="-105.2291813">
  <ele>1582.98</ele>
  <time>2026-08-28T17:52:47Z</time>
  <course>237.81</course>
  <speed>4.976183276367541</speed>
  <fix>3d</fix>
</trkpt>
<trkpt lat="40.0711814" lon="-105.2291749">
  <ele>1583.0</ele>
  <time>2026-08-28T17:52:47Z</time>
  <course>237.05</course>
  <speed>4.98</speed>
  <fix>3d</fix>
</trkpt>
<trkpt lat="40.0711759" lon="-105.2291862">
  <ele>1582.99</ele>
  <time>2026-08-28T17:52:47Z</time>
  <course>237.8</course>
  <speed>4.976183276367541</speed>
  <fix>3d</fix>
</trkpt>
<trkpt lat="40.0711814" lon="-105.2291749">
  <ele>1583.0</ele>
  <time>2026-08-28T17:52:47Z</time>
  <course>237.05</course>
  <speed>4.98</speed>
  <fix>3d</fix>
</trkpt>
<trkpt lat="40.0711735" lon="-105.2291911">
  <ele>1582.99</ele>
  <time>2026-08-28T17:52:47Z</time>
  <course>237.8</course>
  <speed>4.976183276367541</speed>
  <fix>3d</fix>
</trkpt>
<trkpt lat="40.0711766" lon="-105.2291847">
  <ele>1583.0</ele>
  <time>2026-08-28T17:52:47Z</time>
  <course>237.05</course>
  <speed>4.98</speed>
  <fix>3d</fix>
</trkpt>
<trkpt lat="40.071171" lon="-105.229196">
  <ele>1582.99</ele>
  <time>2026-08-28T17:52:47Z</time>
  <course>237.8</course>
  <speed>4.976183276367541</speed>
  <fix>3d</fix>
</trkpt>
<trkpt lat="40.0711766" lon="-105.2291847">
  <ele>1583.0</ele>
  <time>2026-08-28T17:52:47Z</time>
  <course>237.05</course>
  <speed>4.98</speed>
  <fix>3d</fix>
</trkpt>
<trkpt lat="40.0711686" lon="-105.229201">
  <ele>1582.99</ele>
  <time>2026-08-28T17:52:47Z</time>
  <course>237.8</course>
  <speed>4.976183276367541</speed>
  <fix>3d</fix>
</trkpt>
<trkpt lat="40.0711717" lon="-105.2291946">
  <ele>1583.0</ele>
  <time>2026-08-28T17:52:47Z</time>
  <course>237.05</course>
  <speed>4.98</speed>
  <fix>3d</fix>
</trkpt>
<trkpt lat="40.0711661" lon="-105.229206">
  <ele>1582.99</ele>
  <time>2026-08-28T17:52:47Z</time>
  <course>237.8</course>
  <speed>4.976183276367541</speed>
  <fix>3d</fix>
</trkpt>
<trkpt lat="40.0711717" lon="-105.2291946">
  <ele>1583.0</ele>
  <time>2026-08-28T17:52:47Z</time>
  <course>237.05</course>
  <speed>4.98</speed>
  <fix>3d</fix>
</trkpt>
<trkpt lat="40.0711637" lon="-105.2292109">
  <ele>1582.99</ele>
  <time>2026-08-28T17:52:47Z</time>
  <course>237.8</course>
  <speed>4.976183276367541</speed>
  <fix>3d</fix>
</trkpt>
<trkpt lat="40.0711668" lon="-105.2292043">
  <ele>1583.0</ele>
  <time>2026-08-28T17:52:47Z</time>
  <course>237.05</course>
  <speed>4.98</speed>
  <fix>3d</fix>
</trkpt>
<trkpt lat="40.0711612" lon="-105.2292159">
  <ele>1582.99</ele>
  <time>2026-08-28T17:52:47Z</time>
  <course>237.8</course>
  <speed>4.99001002003002</speed>
  <fix>3d</fix>
</trkpt>
<trkpt lat="40.0711668" lon="-105.2292043">
  <ele>1583.0</ele>
  <time>2026-08-28T17:52:47Z</time>
  <course>237.05</course>
  <speed>4.98</speed>
  <fix>3d</fix>
</trkpt>
<trkpt lat="40.0711588" lon="-105.2292208">
  <ele>1582.99</ele>
  <time>2026-08-28T17:52:47Z</time>
  <course>237.8</course>
  <speed>4.99001002003002</speed>
  <fix>3d</fix>
</trkpt>
<trkpt lat="40.071162" lon="-105.2292142">
  <ele>1583.0</ele>
  <time>2026-08-28T17:52:47Z</time>
  <course>237.05</course>
  <speed>4.98</speed>
  <fix>3d</fix>
</trkpt>
<trkpt lat="40.0711563" lon="-105.2292257">
  <ele>1582.99</ele>
  <time>2026-08-28T17:52:47Z</time>
  <course>237.8</course>
  <speed>4.99001002003002</speed>
  <fix>3d</fix>
</trkpt>
<trkpt lat="40.071162" lon="-105.2292142">
  <ele>1583.0</ele>
  <time>2026-08-28T17:52:47Z</time>
  <course>237.05</course>
  <speed>4.98</speed>
  <fix>3d</fix>
</trkpt>
<trkpt lat="40.0711539" lon="-105.2292307">
  <ele>1582.99</ele>
  <time>2026-08-28T17:52:47Z</time>
  <course>237.8</course>
  <speed>4.981616203603004</speed>
  <fix>3d</fix>
</trkpt>
<trkpt lat="40.0711571" lon="-105.229224">
  <ele>1583.0</ele>
  <time>2026-08-28T17:52:47Z</time>
  <course>237.05</course>
  <speed>4.98</speed>
  <fix>3d</fix>
</trkpt>
<trkpt lat="40.0711514" lon="-105.2292356">
  <ele>1582.99</ele>
  <time>2026-08-28T17:52:47Z</time>
  <course>237.8</course>
  <speed>4.981616203603004</speed>
  <fix>3d</fix>
</trkpt>
<trkpt lat="40.0711571" lon="-105.229224">
  <ele>1583.0</ele>
  <time>2026-08-28T17:52:47Z</time>
  <course>237.05</course>
  <speed>4.98</speed>
  <fix>3d</fix>
</trkpt>
<trkpt lat="40.071149" lon="-105.2292405">
  <ele>1582.99</ele>
  <time>2026-08-28T17:52:47Z</time>
  <course>237.8</course>
  <speed>4.981616203603004</speed>
  <fix>3d</fix>
</trkpt>
<trkpt lat="40.0711571" lon="-105.229224">
  <ele>1583.0</ele>
  <time>2026-08-28T17:52:47Z</time>
  <course>237.05</course>
  <speed>4.98</speed>
  <fix>3d</fix>
</trkpt>
<trkpt lat="40.0711465" lon="-105.2292454">
  <ele>1582.99</ele>
  <time>2026-08-28T17:52:47Z</time>
  <course>237.8</course>
  <speed>4.976183276367541</speed>
  <fix>3d</fix>
</trkpt>
<trkpt lat="40.0711522" lon="-105.2292339">
  <ele>1583.0</ele>
  <time>2026-08-28T17:52:47Z</time>
  <course>237.05</course>
  <speed>4.98</speed>
  <fix>3d</fix>
</trkpt>
<trkpt lat="40.0711441" lon="-105.2292503">
  <ele>1582.99</ele>
  <time>2026-08-28T17:52:47Z</time>
  <course>237.79</course>
  <speed>4.976183276367541</speed>
  <fix>3d</fix>
</trkpt>
<trkpt lat="40.0711522" lon="-105.2292339">
  <ele>1583.0</ele>
  <time>2026-08-28T17:52:47Z</time>
  <course>237.05</course>
  <speed>4.98</speed>
  <fix>3d</fix>
</trkpt>
<trkpt lat="40.0711417" lon="-105.2292552">
  <ele>1582.99</ele>
  <time>2026-08-28T17:52:47Z</time>
  <course>237.79</course>
  <speed>4.976183276367541</speed>
  <fix>3d</fix>
</trkpt>
<trkpt lat="40.0711474" lon="-105.2292437">
  <ele>1583.0</ele>
  <time>2026-08-28T17:52:47Z</time>
  <course>237.05</course>
  <speed>4.98</speed>
  <fix>3d</fix>
</trkpt>
<trkpt lat="40.0711393" lon="-105.22926">
  <ele>1582.99</ele>
  <time>2026-08-28T17:52:47Z</time>
  <course>237.79</course>
  <speed>4.976183276367541</speed>
  <fix>3d</fix>
</trkpt>
<trkpt lat="40.0711474" lon="-105.2292437">
  <ele>1583.0</ele>
  <time>2026-08-28T17:52:47Z</time>
  <course>237.05</course>
  <speed>4.98</speed>
  <fix>3d</fix>
</trkpt>
<trkpt lat="40.0711369" lon="-105.2292649">
  <ele>1582.99</ele>
  <time>2026-08-28T17:52:47Z</time>
  <course>237.79</course>
  <speed>4.976183276367541</speed>
  <fix>3d</fix>
</trkpt>
<trkpt lat="40.0711425" lon="-105.2292535">
  <ele>1583.0</ele>
  <time>2026-08-28T17:52:47Z</time>
  <course>237.05</course>
  <speed>4.98</speed>
  <fix>3d</fix>
</trkpt>
<trkpt lat="40.0711345" lon="-105.2292697">
  <ele>1582.99</ele>
  <time>2026-08-28T17:52:47Z</time>
  <course>237.79</course>
  <speed>4.967786227284745</speed>
  <fix>3d</fix>
</trkpt>
<trkpt lat="40.0711425" lon="-105.2292535">
  <ele>1583.0</ele>
  <time>2026-08-28T17:52:47Z</time>
  <course>237.05</course>
  <speed>4.98</speed>
  <fix>3d</fix>
</trkpt>
<trkpt lat="40.0711321" lon="-105.2292746">
  <ele>1582.99</ele>
  <time>2026-08-28T17:52:47Z</time>
  <course>237.79</course>
  <speed>4.967786227284745</speed>
  <fix>3d</fix>
</trkpt>
<trkpt lat="40.0711376" lon="-105.2292634">
  <ele>1583.0</ele>
  <time>2026-08-28T17:52:47Z</time>
  <course>237.05</course>
  <speed>4.98</speed>
  <fix>3d</fix>
</trkpt>
<trkpt lat="40.0711297" lon="-105.2292795">
  <ele>1582.99</ele>
  <time>2026-08-28T17:52:47Z</time>
  <course>237.79</course>
  <speed>4.967786227284745</speed>
  <fix>3d</fix>
</trkpt>
<trkpt lat="40.0711328" lon="-105.2292732">
  <ele>1583.0</ele>
  <time>2026-08-28T17:52:47Z</time>
  <course>237.05</course>
  <speed>4.98</speed>
  <fix>3d</fix>
</trkpt>
<trkpt lat="40.0711272" lon="-105.2292844">
  <ele>1582.99</ele>
  <time>2026-08-28T17:52:47Z</time>
  <course>237.79</course>
  <speed>4.962358310319802</speed>
  <fix>3d</fix>
</trkpt>
<trkpt lat="40.0711328" lon="-105.2292732">
  <ele>1583.0</ele>
  <time>2026-08-28T17:52:47Z</time>
  <course>237.05</course>
  <speed>4.98</speed>
  <fix>3d</fix>
</trkpt>
<trkpt lat="40.0711248" lon="-105.2292892">
  <ele>1582.99</ele>
  <time>2026-08-28T17:52:47Z</time>
  <course>237.79</course>
  <speed>4.953958013548359</speed>
  <fix>3d</fix>
</trkpt>
<trkpt lat="40.0711279" lon="-105.229283">
  <ele>1583.0</ele>
  <time>2026-08-28T17:52:47Z</time>
  <course>237.05</course>
  <speed>4.97</speed>
  <fix>3d</fix>
</trkpt>
<trkpt lat="40.0711224" lon="-105.2292941">
  <ele>1582.99</ele>
  <time>2026-08-28T17:52:47Z</time>
  <course>237.79</course>
  <speed>4.931733974982836</speed>
  <fix>3d</fix>
</trkpt>
<trkpt lat="40.0711279" lon="-105.229283">
  <ele>1583.0</ele>
  <time>2026-08-28T17:52:47Z</time>
  <course>237.05</course>
  <speed>4.97</speed>
  <fix>3d</fix>
</trkpt>
<trkpt lat="40.07112" lon="-105.229299">
  <ele>1582.99</ele>
  <time>2026-08-28T17:52:47Z</time>
  <course>237.78</course>
  <speed>4.909511177296575</speed>
  <fix>3d</fix>
</trkpt>
<trkpt lat="40.0711231" lon="-105.2292927">
  <ele>1583.0</ele>
  <time>2026-08-28T17:52:47Z</time>
  <course>237.05</course>
  <speed>4.94</speed>
  <fix>3d</fix>
</trkpt>
<trkpt lat="40.0711176" lon="-105.2293039">
  <ele>1582.99</ele>
  <time>2026-08-28T17:52:47Z</time>
  <course>237.78</course>
  <speed>4.873458730716821</speed>
  <fix>3d</fix>
</trkpt>
<trkpt lat="40.0711231" lon="-105.2292927">
  <ele>1583.0</ele>
  <time>2026-08-28T17:52:47Z</time>
  <course>237.05</course>
  <speed>4.94</speed>
  <fix>3d</fix>
</trkpt>
<trkpt lat="40.0711152" lon="-105.2293087">
  <ele>1582.99</ele>
  <time>2026-08-28T17:52:47Z</time>
  <course>237.78</course>
  <speed>4.823577510520589</speed>
  <fix>3d</fix>
</trkpt>
<trkpt lat="40.0711182" lon="-105.2293024">
  <ele>1583.0</ele>
  <time>2026-08-28T17:52:47Z</time>
  <course>237.05</course>
  <speed>4.87</speed>
  <fix>3d</fix>
</trkpt>
<trkpt lat="40.0711128" lon="-105.2293135">
  <ele>1582.99</ele>
  <time>2026-08-28T17:52:47Z</time>
  <course>237.78</course>
  <speed>4.765301669359454</speed>
  <fix>3d</fix>
</trkpt>
<trkpt lat="40.0711182" lon="-105.2293024">
  <ele>1583.0</ele>
  <time>2026-08-28T17:52:47Z</time>
  <course>237.05</course>
  <speed>4.87</speed>
  <fix>3d</fix>
</trkpt>
<trkpt lat="40.0711105" lon="-105.2293182">
  <ele>1582.99</ele>
  <time>2026-08-28T17:52:47Z</time>
  <course>237.78</course>
  <speed>4.6931972044652035</speed>
  <fix>3d</fix>
</trkpt>
<trkpt lat="40.0711135" lon="-105.2293119">
  <ele>1583.0</ele>
  <time>2026-08-28T17:52:47Z</time>
  <course>237.05</course>
  <speed>4.77</speed>
  <fix>3d</fix>
</trkpt>
<trkpt lat="40.0711082" lon="-105.2293228">
  <ele>1582.99</ele>
  <time>2026-08-28T17:52:47Z</time>
  <course>237.78</course>
  <speed>4.612699860168663</speed>
  <fix>3d</fix>
</trkpt>
<trkpt lat="40.0711135" lon="-105.2293119">
  <ele>1583.0</ele>
  <time>2026-08-28T17:52:47Z</time>
  <course>237.05</course>
  <speed>4.77</speed>
  <fix>3d</fix>
</trkpt>
<trkpt lat="40.0711059" lon="-105.2293273">
  <ele>1582.99</ele>
  <time>2026-08-28T17:52:47Z</time>
  <course>237.78</course>
  <speed>4.51837360119767</speed>
  <fix>3d</fix>
</trkpt>
<trkpt lat="40.0711089" lon="-105.2293212">
  <ele>1583.0</ele>
  <time>2026-08-28T17:52:47Z</time>
  <course>237.05</course>
  <speed>4.61</speed>
  <fix>3d</fix>
</trkpt>
<trkpt lat="40.0711037" lon="-105.2293317">
  <ele>1582.99</ele>
  <time>2026-08-28T17:52:47Z</time>
  <course>237.78</course>
  <speed>4.424047920174464</speed>
  <fix>3d</fix>
</trkpt>
<trkpt lat="40.0711089" lon="-105.2293212">
  <ele>1583.0</ele>
  <time>2026-08-28T17:52:47Z</time>
  <course>237.05</course>
  <speed>4.61</speed>
  <fix>3d</fix>
</trkpt>
<trkpt lat="40.0711016" lon="-105.229336">
  <ele>1582.98</ele>
  <time>2026-08-28T17:52:47Z</time>
  <course>237.78</course>
  <speed>4.315889247883917</speed>
  <fix>3d</fix>
</trkpt>
<trkpt lat="40.0711045" lon="-105.2293301">
  <ele>1583.0</ele>
  <time>2026-08-28T17:52:47Z</time>
  <course>237.05</course>
  <speed>4.42</speed>
  <fix>3d</fix>
</trkpt>
<trkpt lat="40.0710995" lon="-105.2293402">
  <ele>1582.98</ele>
  <time>2026-08-28T17:52:47Z</time>
  <course>237.78</course>
  <speed>4.1993451870500005</speed>
  <fix>3d</fix>
</trkpt>
<trkpt lat="40.0711045" lon="-105.2293301">
  <ele>1583.0</ele>
  <time>2026-08-28T17:52:47Z</time>
  <course>237.05</course>
  <speed>4.42</speed>
  <fix>3d</fix>
</trkpt>
<trkpt lat="40.0710975" lon="-105.2293443">
  <ele>1582.98</ele>
  <time>2026-08-28T17:52:47Z</time>
  <course>237.77</course>
  <speed>4.077352081927682</speed>
  <fix>3d</fix>
</trkpt>
<trkpt lat="40.0711045" lon="-105.2293301">
  <ele>1583.0</ele>
  <time>2026-08-28T17:52:47Z</time>
  <course>237.05</course>
  <speed>4.42</speed>
  <fix>3d</fix>
</trkpt>
<trkpt lat="40.0710955" lon="-105.2293482">
  <ele>1582.97</ele>
  <time>2026-08-28T17:52:47Z</time>
  <course>237.77</course>
  <speed>3.952429632517194</speed>
  <fix>3d</fix>
</trkpt>
<trkpt lat="40.0711003" lon="-105.2293386">
  <ele>1583.0</ele>
  <time>2026-08-28T17:52:47Z</time>
  <course>237.05</course>
  <speed>4.2</speed>
  <fix>3d</fix>
</trkpt>
<trkpt lat="40.0710936" lon="-105.229352">
  <ele>1582.98</ele>
  <time>2026-08-28T17:52:47Z</time>
  <course>237.77</course>
  <speed>3.822054421381255</speed>
  <fix>3d</fix>
</trkpt>
<trkpt lat="40.0711003" lon="-105.2293386">
  <ele>1583.0</ele>
  <time>2026-08-28T17:52:47Z</time>
  <course>237.05</course>
  <speed>4.2</speed>
  <fix>3d</fix>
</trkpt>
<trkpt lat="40.0710918" lon="-105.2293556">
  <ele>1582.98</ele>
  <time>2026-08-28T17:52:47Z</time>
  <course>237.81</course>
  <speed>3.6916798344385175</speed>
  <fix>3d</fix>
</trkpt>
<trkpt lat="40.0710963" lon="-105.2293466">
  <ele>1583.0</ele>
  <time>2026-08-28T17:52:47Z</time>
  <course>237.05</course>
  <speed>3.96</speed>
  <fix>3d</fix>
</trkpt>
<trkpt lat="40.0710901" lon="-105.2293591">
  <ele>1582.98</ele>
  <time>2026-08-28T17:52:47Z</time>
  <course>237.84</course>
  <speed>3.561305940241585</speed>
  <fix>3d</fix>
</trkpt>
<trkpt lat="40.0710963" lon="-105.2293466">
  <ele>1583.0</ele>
  <time>2026-08-28T17:52:47Z</time>
  <course>237.05</course>
  <speed>3.96</speed>
  <fix>3d</fix>
</trkpt>
<trkpt lat="40.0710884" lon="-105.2293626">
  <ele>1582.98</ele>
  <time>2026-08-28T17:52:47Z</time>
  <course>237.88</course>
  <speed>3.4254634722910122</speed>
  <fix>3d</fix>
</trkpt>
<trkpt lat="40.0710926" lon="-105.2293542">
  <ele>1583.0</ele>
  <time>2026-08-28T17:52:47Z</time>
  <course>237.08</course>
  <speed>3.71</speed>
  <fix>3d</fix>
</trkpt>
<trkpt lat="40.0710868" lon="-105.2293658">
  <ele>1582.98</ele>
  <time>2026-08-28T17:52:47Z</time>
  <course>237.93</course>
  <speed>3.3034678748248787</speed>
  <fix>3d</fix>
</trkpt>
<trkpt lat="40.071089" lon="-105.2293612">
  <ele>1583.0</ele>
  <time>2026-08-28T17:52:47Z</time>
  <course>237.17</course>
  <speed>3.45</speed>
  <fix>3d</fix>
</trkpt>
<trkpt lat="40.0710852" lon="-105.229369">
  <ele>1582.98</ele>
  <time>2026-08-28T17:52:47Z</time>
  <course>237.97</course>
  <speed>3.1730899766631264</speed>
  <fix>3d</fix>
</trkpt>
<trkpt lat="40.071089" lon="-105.2293612">
  <ele>1583.0</ele>
  <time>2026-08-28T17:52:47Z</time>
  <course>237.17</course>
  <speed>3.45</speed>
  <fix>3d</fix>
</trkpt>
<trkpt lat="40.0710837" lon="-105.229372">
  <ele>1582.98</ele>
  <time>2026-08-28T17:52:47Z</time>
  <course>238.01</course>
  <speed>3.0427126055544584</speed>
  <fix>3d</fix>
</trkpt>
<trkpt lat="40.0710858" lon="-105.2293678">
  <ele>1583.0</ele>
  <time>2026-08-28T17:52:47Z</time>
  <course>237.26</course>
  <speed>3.2</speed>
  <fix>3d</fix>
</trkpt>
<trkpt lat="40.0710823" lon="-105.2293749">
  <ele>1582.97</ele>
  <time>2026-08-28T17:52:47Z</time>
  <course>238.05</course>
  <speed>2.9207190895394235</speed>
  <fix>3d</fix>
</trkpt>
<trkpt lat="40.0710858" lon="-105.2293678">
  <ele>1583.0</ele>
  <time>2026-08-28T17:52:47Z</time>
  <course>237.26</course>
  <speed>3.2</speed>
  <fix>3d</fix>
</trkpt>
<trkpt lat="40.0710809" lon="-105.2293777">
  <ele>1582.97</ele>
  <time>2026-08-28T17:52:47Z</time>
  <course>238.08</course>
  <speed>2.7903404810166084</speed>
  <fix>3d</fix>
</trkpt>
<trkpt lat="40.0710828" lon="-105.2293739">
  <ele>1583.0</ele>
  <time>2026-08-28T17:52:47Z</time>
  <course>237.34</course>
  <speed>2.95</speed>
  <fix>3d</fix>
</trkpt>
<trkpt lat="40.0710795" lon="-105.2293804">
  <ele>1582.97</ele>
  <time>2026-08-28T17:52:47Z</time>
  <course>238.12</course>
  <speed>2.673798795721174</speed>
  <fix>3d</fix>
</trkpt>
<trkpt lat="40.0710828" lon="-105.2293739">
  <ele>1583.0</ele>
  <time>2026-08-28T17:52:47Z</time>
  <course>237.34</course>
  <speed>2.95</speed>
  <fix>3d</fix>
</trkpt>
<trkpt lat="40.0710783" lon="-105.229383">
  <ele>1582.97</ele>
  <time>2026-08-28T17:52:47Z</time>
  <course>238.16</course>
  <speed>2.55180328395431</speed>
  <fix>3d</fix>
</trkpt>
<trkpt lat="40.07108" lon="-105.2293795">
  <ele>1583.0</ele>
  <time>2026-08-28T17:52:47Z</time>
  <course>237.42</course>
  <speed>2.71</speed>
  <fix>3d</fix>
</trkpt>
<trkpt lat="40.0710771" lon="-105.2293855">
  <ele>1582.97</ele>
  <time>2026-08-28T17:52:47Z</time>
  <course>238.23</course>
  <speed>2.4298148077579906</speed>
  <fix>3d</fix>
</trkpt>
<trkpt lat="40.07108" lon="-105.2293795">
  <ele>1583.0</ele>
  <time>2026-08-28T17:52:47Z</time>
  <course>237.42</course>
  <speed>2.71</speed>
  <fix>3d</fix>
</trkpt>
<trkpt lat="40.0710759" lon="-105.2293878">
  <ele>1582.98</ele>
  <time>2026-08-28T17:52:47Z</time>
  <course>238.29</course>
  <speed>2.321658889673502</speed>
  <fix>3d</fix>
</trkpt>
<trkpt lat="40.0710775" lon="-105.2293846">
  <ele>1583.0</ele>
  <time>2026-08-28T17:52:47Z</time>
  <course>237.53</course>
  <speed>2.47</speed>
  <fix>3d</fix>
</trkpt>
<trkpt lat="40.0710748" lon="-105.2293901">
  <ele>1582.98</ele>
  <time>2026-08-28T17:52:47Z</time>
  <course>238.35</course>
  <speed>2.213504009483606</speed>
  <fix>3d</fix>
</trkpt>
<trkpt lat="40.0710775" lon="-105.2293846">
  <ele>1583.0</ele>
  <time>2026-08-28T17:52:47Z</time>
  <course>237.53</course>
  <speed>2.47</speed>
  <fix>3d</fix>
</trkpt>
<trkpt lat="40.0710738" lon="-105.2293922">
  <ele>1582.98</ele>
  <time>2026-08-28T17:52:47Z</time>
  <course>238.41</course>
  <speed>2.0969501663129715</speed>
  <fix>3d</fix>
</trkpt>
<trkpt lat="40.0710753" lon="-105.2293893">
  <ele>1583.0</ele>
  <time>2026-08-28T17:52:47Z</time>
  <course>237.66</course>
  <speed>2.25</speed>
  <fix>3d</fix>
</trkpt>
<trkpt lat="40.0710728" lon="-105.2293942">
  <ele>1582.98</ele>
  <time>2026-08-28T17:52:47Z</time>
  <course>238.46</course>
  <speed>1.988793604173143</speed>
  <fix>3d</fix>
</trkpt>
<trkpt lat="40.0710753" lon="-105.2293893">
  <ele>1583.0</ele>
  <time>2026-08-28T17:52:47Z</time>
  <course>237.66</course>
  <speed>2.25</speed>
  <fix>3d</fix>
</trkpt>
<trkpt lat="40.0710718" lon="-105.2293961">
  <ele>1582.99</ele>
  <time>2026-08-28T17:52:47Z</time>
  <course>238.54</course>
  <speed>1.88904737897174</speed>
  <fix>3d</fix>
</trkpt>
<trkpt lat="40.0710732" lon="-105.2293936">
  <ele>1583.0</ele>
  <time>2026-08-28T17:52:47Z</time>
  <course>237.79</course>
  <speed>2.03</speed>
  <fix>3d</fix>
</trkpt>
<trkpt lat="40.071071" lon="-105.229398">
  <ele>1582.99</ele>
  <time>2026-08-28T17:52:47Z</time>
  <course>238.61</course>
  <speed>1.7863090438107287</speed>
  <fix>3d</fix>
</trkpt>
<trkpt lat="40.0710732" lon="-105.2293936">
  <ele>1583.0</ele>
  <time>2026-08-28T17:52:47Z</time>
  <course>237.79</course>
  <speed>2.03</speed>
  <fix>3d</fix>
</trkpt>
<trkpt lat="40.0710701" lon="-105.2293997">
  <ele>1583.0</ele>
  <time>2026-08-28T17:52:47Z</time>
  <course>238.68</course>
  <speed>1.6865645555388622</speed>
  <fix>3d</fix>
</trkpt>
<trkpt lat="40.0710732" lon="-105.2293936">
  <ele>1583.0</ele>
  <time>2026-08-28T17:52:47Z</time>
  <course>237.79</course>
  <speed>2.03</speed>
  <fix>3d</fix>
</trkpt>
<trkpt lat="40.0710693" lon="-105.2294013">
  <ele>1583.0</ele>
  <time>2026-08-28T17:52:47Z</time>
  <course>238.77</course>
  <speed>1.5784169284444463</speed>
  <fix>3d</fix>
</trkpt>
<trkpt lat="40.0710714" lon="-105.2293974">
  <ele>1583.0</ele>
  <time>2026-08-28T17:52:47Z</time>
  <course>237.94</course>
  <speed>1.83</speed>
  <fix>3d</fix>
</trkpt>
<trkpt lat="40.0710686" lon="-105.2294028">
  <ele>1583.0</ele>
  <time>2026-08-28T17:52:47Z</time>
  <course>238.85</course>
  <speed>1.484082207965583</speed>
  <fix>3d</fix>
</trkpt>
<trkpt lat="40.0710714" lon="-105.2293974">
  <ele>1583.0</ele>
  <time>2026-08-28T17:52:47Z</time>
  <course>237.94</course>
  <speed>1.83</speed>
  <fix>3d</fix>
</trkpt>
<trkpt lat="40.071068" lon="-105.2294043">
  <ele>1583.0</ele>
  <time>2026-08-28T17:52:47Z</time>
  <course>238.95</course>
  <speed>1.3843771162512042</speed>
  <fix>3d</fix>
</trkpt>
<trkpt lat="40.0710698" lon="-105.2294009">
  <ele>1583.0</ele>
  <time>2026-08-28T17:52:47Z</time>
  <course>238.11</course>
  <speed>1.62</speed>
  <fix>3d</fix>
</trkpt>
<trkpt lat="40.0710673" lon="-105.2294056">
  <ele>1583.0</ele>
  <time>2026-08-28T17:52:47Z</time>
  <course>239.05</course>
  <speed>1.2900387591076479</speed>
  <fix>3d</fix>
</trkpt>
<trkpt lat="40.0710698" lon="-105.2294009">
  <ele>1583.0</ele>
  <time>2026-08-28T17:52:47Z</time>
  <course>238.11</course>
  <speed>1.62</speed>
  <fix>3d</fix>
</trkpt>
<trkpt lat="40.0710668" lon="-105.2294068">
  <ele>1583.0</ele>
  <time>2026-08-28T17:52:47Z</time>
  <course>239.17</course>
  <speed>1.1872657663724664</speed>
  <fix>3d</fix>
</trkpt>
<trkpt lat="40.0710683" lon="-105.2294039">
  <ele>1583.0</ele>
  <time>2026-08-28T17:52:47Z</time>
  <course>238.3</course>
  <speed>1.43</speed>
  <fix>3d</fix>
</trkpt>
<trkpt lat="40.0710662" lon="-105.229408">
  <ele>1583.01</ele>
  <time>2026-08-28T17:52:47Z</time>
  <course>239.3</course>
  <speed>1.087566089945802</speed>
  <fix>3d</fix>
</trkpt>
<trkpt lat="40.0710671" lon="-105.2294066">
  <ele>1583.0</ele>
  <time>2026-08-28T17:52:47Z</time>
  <course>238.53</course>
  <speed>1.23</speed>
  <fix>3d</fix>
</trkpt>
<trkpt lat="40.0710657" lon="-105.229409">
  <ele>1583.01</ele>
  <time>2026-08-28T17:52:47Z</time>
  <course>239.44</course>
  <speed>0.9932270636667125</speed>
  <fix>3d</fix>
</trkpt>
<trkpt lat="40.0710671" lon="-105.2294066">
  <ele>1583.0</ele>
  <time>2026-08-28T17:52:47Z</time>
  <course>238.53</course>
  <speed>1.23</speed>
  <fix>3d</fix>
</trkpt>
<trkpt lat="40.0710653" lon="-105.22941">
  <ele>1583.01</ele>
  <time>2026-08-28T17:52:47Z</time>
  <course>239.61</course>
  <speed>0.8988882021697693</speed>
  <fix>3d</fix>
</trkpt>
<trkpt lat="40.071066" lon="-105.2294089">
  <ele>1583.0</ele>
  <time>2026-08-28T17:52:47Z</time>
  <course>238.81</course>
  <speed>1.04</speed>
  <fix>3d</fix>
</trkpt>
<trkpt lat="40.0710649" lon="-105.2294109">
  <ele>1583.01</ele>
  <time>2026-08-28T17:52:47Z</time>
  <course>239.77</course>
  <speed>0.7992496481075234</speed>
  <fix>3d</fix>
</trkpt>
<trkpt lat="40.071066" lon="-105.2294089">
  <ele>1583.0</ele>
  <time>2026-08-28T17:52:47Z</time>
  <course>238.81</course>
  <speed>1.04</speed>
  <fix>3d</fix>
</trkpt>
<trkpt lat="40.0710646" lon="-105.2294116">
  <ele>1583.01</ele>
  <time>2026-08-28T17:52:47Z</time>
  <course>239.92</course>
  <speed>0.7049113419430842</speed>
  <fix>3d</fix>
</trkpt>
<trkpt lat="40.0710651" lon="-105.2294108">
  <ele>1583.0</ele>
  <time>2026-08-28T17:52:47Z</time>
  <course>239.13</course>
  <speed>0.85</speed>
  <fix>3d</fix>
</trkpt>
<trkpt lat="40.0710643" lon="-105.2294123">
  <ele>1583.01</ele>
  <time>2026-08-28T17:52:47Z</time>
  <course>240.08</course>
  <speed>0.6105735008989499</speed>
  <fix>3d</fix>
</trkpt>
<trkpt lat="40.0710651" lon="-105.2294108">
  <ele>1583.0</ele>
  <time>2026-08-28T17:52:47Z</time>
  <course>239.13</course>
  <speed>0.85</speed>
  <fix>3d</fix>
</trkpt>
<trkpt lat="40.071064" lon="-105.2294129">
  <ele>1583.01</ele>
  <time>2026-08-28T17:52:47Z</time>
  <course>240.22</course>
  <speed>0.5162363799656123</speed>
  <fix>3d</fix>
</trkpt>
<trkpt lat="40.0710644" lon="-105.2294123">
  <ele>1583.0</ele>
  <time>2026-08-28T17:52:47Z</time>
  <course>239.44</course>
  <speed>0.66</speed>
  <fix>3d</fix>
</trkpt>
<trkpt lat="40.0710638" lon="-105.2294134">
  <ele>1583.01</ele>
  <time>2026-08-28T17:52:47Z</time>
  <course>240.3</course>
  <speed>0.41340053217188777</speed>
  <fix>3d</fix>
</trkpt>
<trkpt lat="40.0710644" lon="-105.2294123">
  <ele>1583.0</ele>
  <time>2026-08-28T17:52:47Z</time>
  <course>239.44</course>
  <speed>0.66</speed>
  <fix>3d</fix>
</trkpt>
<trkpt lat="40.0710636" lon="-105.2294138">
  <ele>1583.01</ele>
  <time>2026-08-28T17:52:47Z</time>
  <course>240.6</course>
  <speed>0.31906112267087633</speed>
  <fix>3d</fix>
</trkpt>
<trkpt lat="40.0710639" lon="-105.2294134">
  <ele>1583.0</ele>
  <time>2026-08-28T17:52:47Z</time>
  <course>239.77</course>
  <speed>0.47</speed>
  <fix>3d</fix>
</trkpt>
<trkpt lat="40.0710635" lon="-105.2294141">
  <ele>1583.01</ele>
  <time>2026-08-28T17:52:47Z</time>
  <course>241.04</course>
  <speed>0.22472205054244232</speed>
  <fix>3d</fix>
</trkpt>
<trkpt lat="40.0710639" lon="-105.2294134">
  <ele>1583.0</ele>
  <time>2026-08-28T17:52:47Z</time>
  <course>239.77</course>
  <speed>0.47</speed>
  <fix>3d</fix>
</trkpt>
<trkpt lat="40.0710634" lon="-105.2294143">
  <ele>1583.0</ele>
  <time>2026-08-28T17:52:47Z</time>
  <course>241.5</course>
  <speed>0.130384048104053</speed>
  <fix>3d</fix>
</trkpt>
<trkpt lat="40.0710636" lon="-105.2294143">
  <ele>1583.0</ele>
  <time>2026-08-28T17:52:47Z</time>
  <course>240.29</course>
  <speed>0.27</speed>
  <fix>3d</fix>
</trkpt>
<trkpt lat="40.0710634" lon="-105.2294144">
  <ele>1583.0</ele>
  <time>2026-08-28T17:52:47Z</time>
  <course>241.87</course>
  <speed>0.0282842712474619</speed>
  <fix>3d</fix>
</trkpt>
<trkpt lat="40.0710636" lon="-105.2294143">
  <ele>1583.0</ele>
  <time>2026-08-28T17:52:47Z</time>
  <course>240.29</course>
  <speed>0.27</speed>
  <fix>3d</fix>
</trkpt>
<trkpt lat="40.0710634" lon="-105.2294144">
  <ele>1583.0</ele>
  <time>2026-08-28T17:52:47Z</time>
  <course>241.9</course>
  <speed>0.0412310562561766</speed>
  <fix>3d</fix>
</trkpt>
<trkpt lat="40.0710634" lon="-105.2294146">
  <ele>1583.0</ele>
  <time>2026-08-28T17:52:47Z</time>
  <course>240.87</course>
  <speed>0.08</speed>
  <fix>3d</fix>
</trkpt>
<trkpt lat="40.0710634" lon="-105.2294143">
  <ele>1583.0</ele>
  <time>2026-08-28T17:52:47Z</time>
  <course>242.07</course>
  <speed>0.10770329614269007</speed>
  <fix>3d</fix>
</trkpt>
<trkpt lat="40.0710634" lon="-105.2294146">
  <ele>1583.0</ele>
  <time>2026-08-28T17:52:47Z</time>
  <course>240.87</course>
  <speed>0.08</speed>
  <fix>3d</fix>
</trkpt>
<trkpt lat="40.0710635" lon="-105.2294142">
  <ele>1582.99</ele>
  <time>2026-08-28T17:52:47Z</time>
  <course>242.53</course>
  <speed>0.15231546211727817</speed>
  <fix>3d</fix>
</trkpt>
<trkpt lat="40.0710634" lon="-105.2294146">
  <ele>1583.0</ele>
  <time>2026-08-28T17:52:47Z</time>
  <course>240.87</course>
  <speed>0.08</speed>
  <fix>3d</fix>
</trkpt>
<trkpt lat="40.0710636" lon="-105.229414">
  <ele>1582.99</ele>
  <time>2026-08-28T17:52:47Z</time>
  <course>243.22</course>
  <speed>0.17464249196572978</speed>
  <fix>3d</fix>
</trkpt>
<trkpt lat="40.0710634" lon="-105.2294146">
  <ele>1583.0</ele>
  <time>2026-08-28T17:52:47Z</time>
  <course>62.0</course>
  <speed>0.05</speed>
  <fix>3d</fix>
</trkpt>
<trkpt lat="40.0710635" lon="-105.229414">
  <ele>1582.99</ele>
  <time>2026-08-28T17:52:47Z</time>
  <course>244.05</course>
  <speed>0.17464249196572978</speed>
  <fix>3d</fix>
</trkpt>
<trkpt lat="40.0710634" lon="-105.2294146">
  <ele>1583.0</ele>
  <time>2026-08-28T17:52:47Z</time>
  <course>62.0</course>
  <speed>0.05</speed>
  <fix>3d</fix>
</trkpt>
<trkpt lat="40.0710636" lon="-105.2294138">
  <ele>1582.99</ele>
  <time>2026-08-28T17:52:47Z</time>
  <course>244.91</course>
  <speed>0.16552945357246848</speed>
  <fix>3d</fix>
</trkpt>
<trkpt lat="40.0710634" lon="-105.2294145">
  <ele>1583.0</ele>
  <time>2026-08-28T17:52:47Z</time>
  <course>62.84</course>
  <speed>0.12</speed>
  <fix>3d</fix>
</trkpt>
<trkpt lat="40.0710636" lon="-105.2294137">
  <ele>1582.99</ele>
  <time>2026-08-28T17:52:47Z</time>
  <course>245.66</course>
  <speed>0.1392838827718412</speed>
  <fix>3d</fix>
</trkpt>
<trkpt lat="40.0710634" lon="-105.2294145">
  <ele>1583.0</ele>
  <time>2026-08-28T17:52:47Z</time>
  <course>62.84</course>
  <speed>0.12</speed>
  <fix>3d</fix>
</trkpt>
<trkpt lat="40.0710637" lon="-105.2294136">
  <ele>1583.0</ele>
  <time>2026-08-28T17:52:47Z</time>
  <course>246.2</course>
  <speed>0.09848857801796104</speed>
  <fix>3d</fix>
</trkpt>
<trkpt lat="40.0710635" lon="-105.2294143">
  <ele>1583.0</ele>
  <time>2026-08-28T17:52:47Z</time>
  <course>64.2</course>
  <speed>0.12</speed>
  <fix>3d</fix>
</trkpt>
<trkpt lat="40.0710637" lon="-105.2294136">
  <ele>1583.0</ele>
  <time>2026-08-28T17:52:47Z</time>
  <course>246.45</course>
  <speed>0.044721359549995794</speed>
  <fix>3d</fix>
</trkpt>
<trkpt lat="40.0710635" lon="-105.2294143">
  <ele>1583.0</ele>
  <time>2026-08-28T17:52:47Z</time>
  <course>64.2</course>
  <speed>0.12</speed>
  <fix>3d</fix>
</trkpt>
<trkpt lat="40.0710637" lon="-105.2294136">
  <ele>1583.0</ele>
  <time>2026-08-28T17:52:47Z</time>
  <course>246.45</course>
  <speed>0.01</speed>
  <fix>3d</fix>
</trkpt>
<trkpt lat="40.0710635" lon="-105.229414">
  <ele>1583.0</ele>
  <time>2026-08-28T17:52:47Z</time>
  <course>65.25</course>
  <speed>0.05</speed>
  <fix>3d</fix>
</trkpt>
<trkpt lat="40.0710637" lon="-105.2294137">
  <ele>1583.0</ele>
  <time>2026-08-28T17:52:47Z</time>
  <course>246.94</course>
  <speed>0.07280109889280519</speed>
  <fix>3d</fix>
</trkpt>
<trkpt lat="40.0710635" lon="-105.229414">
  <ele>1583.0</ele>
  <time>2026-08-28T17:52:47Z</time>
  <course>246.39</course>
  <speed>0.04</speed>
  <fix>3d</fix>
</trkpt>
<trkpt lat="40.0710636" lon="-105.2294139">
  <ele>1583.0</ele>
  <time>2026-08-28T17:52:47Z</time>
  <course>247.86</course>
  <speed>0.14866068747318506</speed>
  <fix>3d</fix>
</trkpt>
<trkpt lat="40.0710635" lon="-105.229414">
  <ele>1583.0</ele>
  <time>2026-08-28T17:52:47Z</time>
  <course>246.39</course>
  <speed>0.04</speed>
  <fix>3d</fix>
</trkpt>
<trkpt lat="40.0710635" lon="-105.2294142">
  <ele>1583.0</ele>
  <time>2026-08-28T17:52:47Z</time>
  <course>249.22</course>
  <speed>0.22135943621178655</speed>
  <fix>3d</fix>
</trkpt>
<trkpt lat="40.0710635" lon="-105.2294142">
  <ele>1583.0</ele>
  <time>2026-08-28T17:52:47Z</time>
  <course>247.97</course>
  <speed>0.18</speed>
  <fix>3d</fix>
</trkpt>
<trkpt lat="40.0710635" lon="-105.2294144">
  <ele>1583.0</ele>
  <time>2026-08-28T17:52:47Z</time>
  <course>251.05</course>
  <speed>0.30364452901377953</speed>
  <fix>3d</fix>
</trkpt>
<trkpt lat="40.0710635" lon="-105.2294142">
  <ele>1583.0</ele>
  <time>2026-08-28T17:52:47Z</time>
  <course>247.97</course>
  <speed>0.18</speed>
  <fix>3d</fix>
</trkpt>
<trkpt lat="40.0710634" lon="-105.2294149">
  <ele>1583.0</ele>
  <time>2026-08-28T17:52:47Z</time>
  <course>253.35</course>
  <speed>0.3736308338453881</speed>
  <fix>3d</fix>
</trkpt>
<trkpt lat="40.0710634" lon="-105.2294147">
  <ele>1583.0</ele>
  <time>2026-08-28T17:52:47Z</time>
  <course>251.22</course>
  <speed>0.32</speed>
  <fix>3d</fix>
</trkpt>
<trkpt lat="40.0710633" lon="-105.2294154">
  <ele>1583.0</ele>
  <time>2026-08-28T17:52:47Z</time>
  <course>256.11</course>
  <speed>0.45122056690713913</speed>
  <fix>3d</fix>
</trkpt>
<trkpt lat="40.0710634" lon="-105.2294147">
  <ele>1583.0</ele>
  <time>2026-08-28T17:52:47Z</time>
  <course>251.22</course>
  <speed>0.32</speed>
  <fix>3d</fix>
</trkpt>
<trkpt lat="40.0710632" lon="-105.229416">
  <ele>1583.0</ele>
  <time>2026-08-28T17:52:47Z</time>
  <course>259.34</course>
  <speed>0.5277309920783505</speed>
  <fix>3d</fix>
</trkpt>
<trkpt lat="40.0710633" lon="-105.2294156">
  <ele>1583.0</ele>
  <time>2026-08-28T17:52:47Z</time>
  <course>256.26</course>
  <speed>0.46</speed>
  <fix>3d</fix>
</trkpt>
<trkpt lat="40.0710631" lon="-105.2294167">
  <ele>1583.0</ele>
  <time>2026-08-28T17:52:47Z</time>
  <course>262.97</course>
  <speed>0.5930430001273095</speed>
  <fix>3d</fix>
</trkpt>
<trkpt lat="40.0710633" lon="-105.2294156">
  <ele>1583.0</ele>
  <time>2026-08-28T17:52:47Z</time>
  <course>256.26</course>
  <speed>0.46</speed>
  <fix>3d</fix>
</trkpt>
<trkpt lat="40.0710631" lon="-105.2294175">
  <ele>1583.0</ele>
  <time>2026-08-28T17:52:47Z</time>
  <course>267.02</course>
  <speed>0.660302960768767</speed>
  <fix>3d</fix>
</trkpt>
<trkpt lat="40.071063" lon="-105.2294168">
  <ele>1583.0</ele>
  <time>2026-08-28T17:52:47Z</time>
  <course>263.06</course>
  <speed>0.6</speed>
  <fix>3d</fix>
</trkpt>
<trkpt lat="40.0710631" lon="-105.2294184">
  <ele>1583.0</ele>
  <time>2026-08-28T17:52:47Z</time>
  <course>271.46</course>
  <speed>0.7302739212103907</speed>
  <fix>3d</fix>
</trkpt>
<trkpt lat="40.071063" lon="-105.2294168">
  <ele>1583.0</ele>
  <time>2026-08-28T17:52:47Z</time>
  <course>263.06</course>
  <speed>0.6</speed>
  <fix>3d</fix>
</trkpt>
<trkpt lat="40.0710631" lon="-105.2294193">
  <ele>1583.0</ele>
  <time>2026-08-28T17:52:47Z</time>
  <course>276.26</course>
  <speed>0.785175139698144</speed>
  <fix>3d</fix>
</trkpt>
<trkpt lat="40.0710629" lon="-105.2294184">
  <ele>1583.0</ele>
  <time>2026-08-28T17:52:47Z</time>
  <course>271.49</course>
  <speed>0.72</speed>
  <fix>3d</fix>
</trkpt>
<trkpt lat="40.0710632" lon="-105.2294203">
  <ele>1583.0</ele>
  <time>2026-08-28T17:52:47Z</time>
  <course>281.35</course>
  <speed>0.8472307831990054</speed>
  <fix>3d</fix>
</trkpt>
<trkpt lat="40.0710629" lon="-105.2294184">
  <ele>1583.0</ele>
  <time>2026-08-28T17:52:47Z</time>
  <course>271.49</course>
  <speed>0.72</speed>
  <fix>3d</fix>
</trkpt>
<trkpt lat="40.0710634" lon="-105.2294213">
  <ele>1583.0</ele>
  <time>2026-08-28T17:52:47Z</time>
  <course>286.34</course>
  <speed>0.8984430978086481</speed>
  <fix>3d</fix>
</trkpt>
<trkpt lat="40.071063" lon="-105.2294202">
  <ele>1583.0</ele>
  <time>2026-08-28T17:52:47Z</time>
  <course>281.11</course>
  <speed>0.83</speed>
  <fix>3d</fix>
</trkpt>
<trkpt lat="40.0710636" lon="-105.2294224">
  <ele>1583.0</ele>
  <time>2026-08-28T17:52:47Z</time>
  <course>291.12</course>
  <speed>0.9563472172804185</speed>
  <fix>3d</fix>
</trkpt>
<trkpt lat="40.071063" lon="-105.2294202">
  <ele>1583.0</ele>
  <time>2026-08-28T17:52:47Z</time>
  <course>281.11</course>
  <speed>0.83</speed>
  <fix>3d</fix>
</trkpt>
<trkpt lat="40.0710639" lon="-105.2294235">
  <ele>1583.0</ele>
  <time>2026-08-28T17:52:47Z</time>
  <course>295.61</course>
  <speed>1.0064790112068907</speed>
  <fix>3d</fix>
</trkpt>
<trkpt lat="40.071063" lon="-105.2294202">
  <ele>1583.0</ele>
  <time>2026-08-28T17:52:47Z</time>
  <course>281.11</course>
  <speed>0.83</speed>
  <fix>3d</fix>
</trkpt>
<trkpt lat="40.0710644" lon="-105.2294245">
  <ele>1583.0</ele>
  <time>2026-08-28T17:52:47Z</time>
  <course>299.57</course>
  <speed>1.0567875850898325</speed>
  <fix>3d</fix>
</trkpt>
<trkpt lat="40.0710634" lon="-105.2294223">
  <ele>1583.0</ele>
  <time>2026-08-28T17:52:47Z</time>
  <course>290.73</course>
  <speed>0.94</speed>
  <fix>3d</fix>
</trkpt>
<trkpt lat="40.0710649" lon="-105.2294256">
  <ele>1583.0</ele>
  <time>2026-08-28T17:52:47Z</time>
  <course>302.87</course>
  <speed>1.106752004741803</speed>
  <fix>3d</fix>
</trkpt>
<trkpt lat="40.0710634" lon="-105.2294223">
  <ele>1583.0</ele>
  <time>2026-08-28T17:52:47Z</time>
  <course>290.73</course>
  <speed>0.94</speed>
  <fix>3d</fix>
</trkpt>
<trkpt lat="40.0710654" lon="-105.2294268">
  <ele>1583.0</ele>
  <time>2026-08-28T17:52:47Z</time>
  <course>305.64</course>
  <speed>1.1543396380615194</speed>
  <fix>3d</fix>
</trkpt>
<trkpt lat="40.0710642" lon="-105.2294244">
  <ele>1583.0</ele>
  <time>2026-08-28T17:52:47Z</time>
  <course>298.93</course>
  <speed>1.04</speed>
  <fix>3d</fix>
</trkpt>
<trkpt lat="40.0710661" lon="-105.2294279">
  <ele>1582.99</ele>
  <time>2026-08-28T17:52:47Z</time>
  <course>307.95</course>
  <speed>1.2121056059601407</speed>
  <fix>3d</fix>
</trkpt>
<trkpt lat="40.0710642" lon="-105.2294244">
  <ele>1583.0</ele>
  <time>2026-08-28T17:52:47Z</time>
  <course>298.93</course>
  <speed>1.04</speed>
  <fix>3d</fix>
</trkpt>
<trkpt lat="40.0710667" lon="-105.229429">
  <ele>1582.99</ele>
  <time>2026-08-28T17:52:47Z</time>
  <course>309.89</course>
  <speed>1.271416532848303</speed>
  <fix>3d</fix>
</trkpt>
<trkpt lat="40.0710653" lon="-105.2294266">
  <ele>1583.0</ele>
  <time>2026-08-28T17:52:47Z</time>
  <course>305.03</course>
  <speed>1.14</speed>
  <fix>3d</fix>
</trkpt>
<trkpt lat="40.0710675" lon="-105.2294302">
  <ele>1582.99</ele>
  <time>2026-08-28T17:52:47Z</time>
  <course>311.52</course>
  <speed>1.3254810447531868</speed>
  <fix>3d</fix>
</trkpt>
<trkpt lat="40.0710666" lon="-105.2294287">
  <ele>1583.0</ele>
  <time>2026-08-28T17:52:47Z</time>
  <course>309.32</course>
  <speed>1.25</speed>
  <fix>3d</fix>
</trkpt>
<trkpt lat="40.0710683" lon="-105.2294314">
  <ele>1582.98</ele>
  <time>2026-08-28T17:52:47Z</time>
  <course>312.88</course>
  <speed>1.3944532978913278</speed>
  <fix>3d</fix>
</trkpt>
<trkpt lat="40.0710666" lon="-105.2294287">
  <ele>1583.0</ele>
  <time>2026-08-28T17:52:47Z</time>
  <course>309.32</course>
  <speed>1.25</speed>
  <fix>3d</fix>
</trkpt>
<trkpt lat="40.0710692" lon="-105.2294326">
  <ele>1582.98</ele>
  <time>2026-08-28T17:52:47Z</time>
  <course>314.02</course>
  <speed>1.4572576985557495</speed>
  <fix>3d</fix>
</trkpt>
<trkpt lat="40.0710682" lon="-105.2294311">
  <ele>1583.0</ele>
  <time>2026-08-28T17:52:47Z</time>
  <course>312.32</course>
  <speed>1.37</speed>
  <fix>3d</fix>
</trkpt>
<trkpt lat="40.0710701" lon="-105.2294339">
  <ele>1582.98</ele>
  <time>2026-08-28T17:52:47Z</time>
  <course>314.98</course>
  <speed>1.5274161188098023</speed>
  <fix>3d</fix>
</trkpt>
<trkpt lat="40.0710682" lon="-105.2294311">
  <ele>1583.0</ele>
  <time>2026-08-28T17:52:47Z</time>
  <course>312.32</course>
  <speed>1.37</speed>
  <fix>3d</fix>
</trkpt>
<trkpt lat="40.0710711" lon="-105.2294352">
  <ele>1582.97</ele>
  <time>2026-08-28T17:52:47Z</time>
  <course>315.79</course>
  <speed>1.5910059710761615</speed>
  <fix>3d</fix>
</trkpt>
<trkpt lat="40.0710699" lon="-105.2294335">
  <ele>1583.0</ele>
  <time>2026-08-28T17:52:47Z</time>
  <course>314.45</course>
  <speed>1.5</speed>
  <fix>3d</fix>
</trkpt>
<trkpt lat="40.0710722" lon="-105.2294366">
  <ele>1582.97</ele>
  <time>2026-08-28T17:52:47Z</time>
  <course>316.48</course>
  <speed>1.6690116836020052</speed>
  <fix>3d</fix>
</trkpt>
<trkpt lat="40.0710699" lon="-105.2294335">
  <ele>1583.0</ele>
  <time>2026-08-28T17:52:47Z</time>
  <course>314.45</course>
  <speed>1.5</speed>
  <fix>3d</fix>
</trkpt>
<trkpt lat="40.0710733" lon="-105.229438">
  <ele>1582.97</ele>
  <time>2026-08-28T17:52:47Z</time>
  <course>317.05</course>
  <speed>1.7472549899771355</speed>
  <fix>3d</fix>
</trkpt>
<trkpt lat="40.071072" lon="-105.2294362">
  <ele>1583.0</ele>
  <time>2026-08-28T17:52:47Z</time>
  <course>315.95</course>
  <speed>1.65</speed>
  <fix>3d</fix>
</trkpt>
<trkpt lat="40.0710745" lon="-105.2294394">
  <ele>1582.97</ele>
  <time>2026-08-28T17:52:47Z</time>
  <course>317.53</course>
  <speed>1.8325119372053214</speed>
  <fix>3d</fix>
</trkpt>
<trkpt lat="40.071072" lon="-105.2294362">
  <ele>1583.0</ele>
  <time>2026-08-28T17:52:47Z</time>
  <course>315.95</course>
  <speed>1.65</speed>
  <fix>3d</fix>
</trkpt>
<trkpt lat="40.0710758" lon="-105.2294409">
  <ele>1582.97</ele>
  <time>2026-08-28T17:52:47Z</time>
  <course>317.94</course>
  <speed>1.917837323653912</speed>
  <fix>3d</fix>
</trkpt>
<trkpt lat="40.0710742" lon="-105.229439">
  <ele>1583.0</ele>
  <time>2026-08-28T17:52:47Z</time>
  <course>317.01</course>
  <speed>1.8</speed>
  <fix>3d</fix>
</trkpt>
<trkpt lat="40.0710771" lon="-105.2294425">
  <ele>1582.97</ele>
  <time>2026-08-28T17:52:47Z</time>
  <course>318.27</course>
  <speed>2.0032224040280697</speed>
  <fix>3d</fix>
</trkpt>
<trkpt lat="40.0710742" lon="-105.229439">
  <ele>1583.0</ele>
  <time>2026-08-28T17:52:47Z</time>
  <course>317.01</course>
  <speed>1.8</speed>
  <fix>3d</fix>
</trkpt>
<trkpt lat="40.0710785" lon="-105.2294441">
  <ele>1582.98</ele>
  <time>2026-08-28T17:52:47Z</time>
  <course>318.55</course>
  <speed>2.0886598574205424</speed>
  <fix>3d</fix>
</trkpt>
<trkpt lat="40.0710767" lon="-105.229442">
  <ele>1583.0</ele>
  <time>2026-08-28T17:52:47Z</time>
  <course>317.75</course>
  <speed>1.97</speed>
  <fix>3d</fix>
</trkpt>
<trkpt lat="40.0710799" lon="-105.2294458">
  <ele>1582.98</ele>
  <time>2026-08-28T17:52:47Z</time>
  <course>318.78</course>
  <speed>2.188264152244879</speed>
  <fix>3d</fix>
</trkpt>
<trkpt lat="40.0710767" lon="-105.229442">
  <ele>1583.0</ele>
  <time>2026-08-28T17:52:47Z</time>
  <course>317.75</course>
  <speed>1.97</speed>
  <fix>3d</fix>
</trkpt>
<trkpt lat="40.0710814" lon="-105.2294476">
  <ele>1582.98</ele>
  <time>2026-08-28T17:52:47Z</time>
  <course>318.98</course>
  <speed>2.2804385543136214</speed>
  <fix>3d</fix>
</trkpt>
<trkpt lat="40.0710794" lon="-105.2294452">
  <ele>1583.0</ele>
  <time>2026-08-28T17:52:47Z</time>
  <course>318.27</course>
  <speed>2.15</speed>
  <fix>3d</fix>
</trkpt>
<trkpt lat="40.071083" lon="-105.2294494">
  <ele>1582.99</ele>
  <time>2026-08-28T17:52:47Z</time>
  <course>319.14</course>
  <speed>2.3800840321299583</speed>
  <fix>3d</fix>
</trkpt>
<trkpt lat="40.0710794" lon="-105.2294452">
  <ele>1583.0</ele>
  <time>2026-08-28T17:52:47Z</time>
  <course>318.27</course>
  <speed>2.15</speed>
  <fix>3d</fix>
</trkpt>
<trkpt lat="40.0710846" lon="-105.2294513">
  <ele>1582.99</ele>
  <time>2026-08-28T17:52:47Z</time>
  <course>319.27</course>
  <speed>2.4797580527140144</speed>
  <fix>3d</fix>
</trkpt>
<trkpt lat="40.0710794" lon="-105.2294452">
  <ele>1583.0</ele>
  <time>2026-08-28T17:52:47Z</time>
  <course>318.27</course>
  <speed>2.15</speed>
  <fix>3d</fix>
</trkpt>
<trkpt lat="40.0710863" lon="-105.2294532">
  <ele>1582.99</ele>
  <time>2026-08-28T17:52:47Z</time>
  <course>319.37</course>
  <speed>2.579457307264456</speed>
  <fix>3d</fix>
</trkpt>
<trkpt lat="40.0710825" lon="-105.2294487">
  <ele>1583.0</ele>
  <time>2026-08-28T17:52:47Z</time>
  <course>318.63</course>
  <speed>2.34</speed>
  <fix>3d</fix>
</trkpt>
<trkpt lat="40.0710881" lon="-105.2294553">
  <ele>1583.0</ele>
  <time>2026-08-28T17:52:47Z</time>
  <course>319.44</course>
  <speed>2.678245694479877</speed>
  <fix>3d</fix>
</trkpt>
<trkpt lat="40.0710825" lon="-105.2294487">
  <ele>1583.0</ele>
  <time>2026-08-28T17:52:47Z</time>
  <course>318.63</course>
  <speed>2.34</speed>
  <fix>3d</fix>
</trkpt>
<trkpt lat="40.0710899" lon="-105.2294573">
  <ele>1583.0</ele>
  <time>2026-08-28T17:52:47Z</time>
  <course>319.51</course>
  <speed>2.7779488836189916</speed>
  <fix>3d</fix>
</trkpt>
<trkpt lat="40.0710858" lon="-105.2294525">
  <ele>1583.0</ele>
  <time>2026-08-28T17:52:47Z</time>
  <course>318.86</course>
  <speed>2.54</speed>
  <fix>3d</fix>
</trkpt>
<trkpt lat="40.0710918" lon="-105.2294595">
  <ele>1583.0</ele>
  <time>2026-08-28T17:52:47Z</time>
  <course>319.54</course>
  <speed>2.884250335875858</speed>
  <fix>3d</fix>
</trkpt>
<trkpt lat="40.0710858" lon="-105.2294525">
  <ele>1583.0</ele>
  <time>2026-08-28T17:52:47Z</time>
  <course>318.86</course>
  <speed>2.54</speed>
  <fix>3d</fix>
</trkpt>
<trkpt lat="40.0710938" lon="-105.2294617">
  <ele>1583.01</ele>
  <time>2026-08-28T17:52:47Z</time>
  <course>319.58</course>
  <speed>2.9839738604753228</speed>
  <fix>3d</fix>
</trkpt>
<trkpt lat="40.0710894" lon="-105.2294565">
  <ele>1583.0</ele>
  <time>2026-08-28T17:52:47Z</time>
  <course>319.01</course>
  <speed>2.74</speed>
  <fix>3d</fix>
</trkpt>
<trkpt lat="40.0710959" lon="-105.229464">
  <ele>1583.01</ele>
  <time>2026-08-28T17:52:47Z</time>
  <course>319.59</course>
  <speed>3.090275068662982</speed>
  <fix>3d</fix>
</trkpt>
<trkpt lat="40.0710894" lon="-105.2294565">
  <ele>1583.0</ele>
  <time>2026-08-28T17:52:47Z</time>
  <course>319.01</course>
  <speed>2.74</speed>
  <fix>3d</fix>
</trkpt>
<trkpt lat="40.071098" lon="-105.2294665">
  <ele>1583.01</ele>
  <time>2026-08-28T17:52:47Z</time>
  <course>319.59</course>
  <speed>3.1965762934740036</speed>
  <fix>3d</fix>
</trkpt>
<trkpt lat="40.0710933" lon="-105.2294609">
  <ele>1583.0</ele>
  <time>2026-08-28T17:52:47Z</time>
  <course>319.09</course>
  <speed>2.95</speed>
  <fix>3d</fix>
</trkpt>
<trkpt lat="40.0711002" lon="-105.2294689">
  <ele>1583.01</ele>
  <time>2026-08-28T17:52:47Z</time>
  <course>319.59</course>
  <speed>3.302877533303347</speed>
  <fix>3d</fix>
</trkpt>
<trkpt lat="40.0710974" lon="-105.2294656">
  <ele>1583.0</ele>
  <time>2026-08-28T17:52:47Z</time>
  <course>319.12</course>
  <speed>3.16</speed>
  <fix>3d</fix>
</trkpt>
<trkpt lat="40.0711025" lon="-105.2294715">
  <ele>1583.01</ele>
  <time>2026-08-28T17:52:47Z</time>
  <course>319.59</course>
  <speed>3.4091787867461574</speed>
  <fix>3d</fix>
</trkpt>
<trkpt lat="40.0710974" lon="-105.2294656">
  <ele>1583.0</ele>
  <time>2026-08-28T17:52:47Z</time>
  <course>319.12</course>
  <speed>3.16</speed>
  <fix>3d</fix>
</trkpt>
<trkpt lat="40.0711048" lon="-105.2294741">
  <ele>1583.01</ele>
  <time>2026-08-28T17:52:47Z</time>
  <course>319.59</course>
  <speed>3.515480052567501</speed>
  <fix>3d</fix>
</trkpt>
<trkpt lat="40.0711019" lon="-105.2294706">
  <ele>1583.0</ele>
  <time>2026-08-28T17:52:47Z</time>
  <course>319.12</course>
  <speed>3.37</speed>
  <fix>3d</fix>
</trkpt>
<trkpt lat="40.0711072" lon="-105.2294769">
  <ele>1583.0</ele>
  <time>2026-08-28T17:52:47Z</time>
  <course>319.59</course>
  <speed>3.6217813296774284</speed>
  <fix>3d</fix>
</trkpt>
<trkpt lat="40.0711019" lon="-105.2294706">
  <ele>1583.0</ele>
  <time>2026-08-28T17:52:47Z</time>
  <course>319.12</course>
  <speed>3.37</speed>
  <fix>3d</fix>
</trkpt>
<trkpt lat="40.0711097" lon="-105.2294797">
  <ele>1583.0</ele>
  <time>2026-08-28T17:52:47Z</time>
  <course>319.59</course>
  <speed>3.7280826171103025</speed>
  <fix>3d</fix>
</trkpt>
<trkpt lat="40.0711066" lon="-105.229476">
  <ele>1583.0</ele>
  <time>2026-08-28T17:52:47Z</time>
  <course>319.12</course>
  <speed>3.58</speed>
  <fix>3d</fix>
</trkpt>
<trkpt lat="40.0711123" lon="-105.2294827">
  <ele>1583.0</ele>
  <time>2026-08-28T17:52:47Z</time>
  <course>319.59</course>
  <speed>3.8343839140075686</speed>
  <fix>3d</fix>
</trkpt>
<trkpt lat="40.0711066" lon="-105.229476">
  <ele>1583.0</ele>
  <time>2026-08-28T17:52:47Z</time>
  <course>319.12</course>
  <speed>3.58</speed>
  <fix>3d</fix>
</trkpt>
<trkpt lat="40.071115" lon="-105.2294857">
  <ele>1583.0</ele>
  <time>2026-08-28T17:52:47Z</time>
  <course>319.59</course>
  <speed>3.9482274503883383</speed>
  <fix>3d</fix>
</trkpt>
<trkpt lat="40.0711116" lon="-105.2294817">
  <ele>1583.0</ele>
  <time>2026-08-28T17:52:47Z</time>
  <course>319.12</course>
  <speed>3.79</speed>
  <fix>3d</fix>
</trkpt>
<trkpt lat="40.0711178" lon="-105.2294888">
  <ele>1583.0</ele>
  <time>2026-08-28T17:52:47Z</time>
  <course>319.59</course>
  <speed>4.046986533212089</speed>
  <fix>3d</fix>
</trkpt>
<trkpt lat="40.0711116" lon="-105.2294817">
  <ele>1583.0</ele>
  <time>2026-08-28T17:52:47Z</time>
  <course>319.12</course>
  <speed>3.79</speed>
  <fix>3d</fix>
</trkpt>
<trkpt lat="40.0711206" lon="-105.229492">
  <ele>1583.0</ele>
  <time>2026-08-28T17:52:47Z</time>
  <course>319.59</course>
  <speed>4.153287854218631</speed>
  <fix>3d</fix>
</trkpt>
<trkpt lat="40.0711168" lon="-105.2294877">
  <ele>1583.0</ele>
  <time>2026-08-28T17:52:47Z</time>
  <course>319.12</course>
  <speed>4.0</speed>
  <fix>3d</fix>
</trkpt>
<trkpt lat="40.0711234" lon="-105.2294952">
  <ele>1583.0</ele>
  <time>2026-08-28T17:52:47Z</time>
  <course>319.59</course>
  <speed>4.253022454678555</speed>
  <fix>3d</fix>
</trkpt>
<trkpt lat="40.0711168" lon="-105.2294877">
  <ele>1583.0</ele>
  <time>2026-08-28T17:52:47Z</time>
  <course>319.12</course>
  <speed>4.0</speed>
  <fix>3d</fix>
</trkpt>
<trkpt lat="40.0711263" lon="-105.2294985">
  <ele>1583.0</ele>
  <time>2026-08-28T17:52:47Z</time>
  <course>319.56</course>
  <speed>4.359323341987837</speed>
  <fix>3d</fix>
</trkpt>
<trkpt lat="40.0711225" lon="-105.229494">
  <ele>1583.0</ele>
  <time>2026-08-28T17:52:47Z</time>
  <course>319.1</course>
  <speed>4.2</speed>
  <fix>3d</fix>
</trkpt>
<trkpt lat="40.0711294" lon="-105.2295019">
  <ele>1582.99</ele>
  <time>2026-08-28T17:52:47Z</time>
  <course>319.53</course>
  <speed>4.458082547463651</speed>
  <fix>3d</fix>
</trkpt>
<trkpt lat="40.0711225" lon="-105.229494">
  <ele>1583.0</ele>
  <time>2026-08-28T17:52:47Z</time>
  <course>319.1</course>
  <speed>4.2</speed>
  <fix>3d</fix>
</trkpt>
<trkpt lat="40.0711324" lon="-105.2295054">
  <ele>1582.99</ele>
  <time>2026-08-28T17:52:47Z</time>
  <course>319.53</course>
  <speed>4.564383857652641</speed>
  <fix>3d</fix>
</trkpt>
<trkpt lat="40.0711283" lon="-105.2295006">
  <ele>1583.0</ele>
  <time>2026-08-28T17:52:47Z</time>
  <course>319.07</course>
  <speed>4.4</speed>
  <fix>3d</fix>
</trkpt>
<trkpt lat="40.0711356" lon="-105.229509">
  <ele>1582.99</ele>
  <time>2026-08-28T17:52:47Z</time>
  <course>319.5</course>
  <speed>4.6565759952995505</speed>
  <fix>3d</fix>
</trkpt>
<trkpt lat="40.0711283" lon="-105.2295006">
  <ele>1583.0</ele>
  <time>2026-08-28T17:52:47Z</time>
  <course>319.07</course>
  <speed>4.4</speed>
  <fix>3d</fix>
</trkpt>
<trkpt lat="40.0711387" lon="-105.2295126">
  <ele>1582.99</ele>
  <time>2026-08-28T17:52:47Z</time>
  <course>319.5</course>
  <speed>4.755344361873281</speed>
  <fix>3d</fix>
</trkpt>
<trkpt lat="40.0711283" lon="-105.2295006">
  <ele>1583.0</ele>
  <time>2026-08-28T17:52:47Z</time>
  <course>319.07</course>
  <speed>4.4</speed>
  <fix>3d</fix>
</trkpt>
<trkpt lat="40.071142" lon="-105.2295163">
  <ele>1582.99</ele>
  <time>2026-08-28T17:52:47Z</time>
  <course>319.48</course>
  <speed>4.8475354562911654</speed>
  <fix>3d</fix>
</trkpt>
<trkpt lat="40.0711344" lon="-105.2295076">
  <ele>1583.0</ele>
  <time>2026-08-28T17:52:47Z</time>
  <course>319.04</course>
  <speed>4.6</speed>
  <fix>3d</fix>
</trkpt>
<trkpt lat="40.0711453" lon="-105.22952">
  <ele>1582.99</ele>
  <time>2026-08-28T17:52:47Z</time>
  <course>319.48</course>
  <speed>4.925616712656396</speed>
  <fix>3d</fix>
</trkpt>
<trkpt lat="40.0711344" lon="-105.2295076">
  <ele>1583.0</ele>
  <time>2026-08-28T17:52:47Z</time>
  <course>319.04</course>
  <speed>4.6</speed>
  <fix>3d</fix>
</trkpt>
<trkpt lat="40.0711486" lon="-105.2295238">
  <ele>1582.99</ele>
  <time>2026-08-28T17:52:47Z</time>
  <course>319.47</course>
  <speed>5.003698632012124</speed>
  <fix>3d</fix>
</trkpt>
<trkpt lat="40.0711408" lon="-105.2295148">
  <ele>1583.0</ele>
  <time>2026-08-28T17:52:47Z</time>
  <course>319.03</course>
  <speed>4.78</speed>
  <fix>3d</fix>
</trkpt>
<trkpt lat="40.071152" lon="-105.2295276">
  <ele>1582.98</ele>
  <time>2026-08-28T17:52:47Z</time>
  <course>319.47</course>
  <speed>5.074248712863807</speed>
  <fix>3d</fix>
</trkpt>
<trkpt lat="40.0711408" lon="-105.2295148">
  <ele>1583.0</ele>
  <time>2026-08-28T17:52:47Z</time>
  <course>319.03</course>
  <speed>4.78</speed>
  <fix>3d</fix>
</trkpt>
<trkpt lat="40.0711554" lon="-105.2295315">
  <ele>1582.98</ele>
  <time>2026-08-28T17:52:47Z</time>
  <course>319.47</course>
  <speed>5.13069196112961</speed>
  <fix>3d</fix>
</trkpt>
<trkpt lat="40.0711474" lon="-105.2295223">
  <ele>1583.0</ele>
  <time>2026-08-28T17:52:47Z</time>
  <course>319.02</course>
  <speed>4.94</speed>
  <fix>3d</fix>
</trkpt>
<trkpt lat="40.0711588" lon="-105.2295355">
  <ele>1582.98</ele>
  <time>2026-08-28T17:52:47Z</time>
  <course>319.46</course>
  <speed>5.180550163833954</speed>
  <fix>3d</fix>
</trkpt>
<trkpt lat="40.0711542" lon="-105.2295301">
  <ele>1583.0</ele>
  <time>2026-08-28T17:52:47Z</time>
  <course>319.02</course>
  <speed>5.07</speed>
  <fix>3d</fix>
</trkpt>
<trkpt lat="40.0711623" lon="-105.2295394">
  <ele>1582.98</ele>
  <time>2026-08-28T17:52:47Z</time>
  <course>319.46</course>
  <speed>5.2228823459848295</speed>
  <fix>3d</fix>
</trkpt>
<trkpt lat="40.0711542" lon="-105.2295301">
  <ele>1583.0</ele>
  <time>2026-08-28T17:52:47Z</time>
  <course>319.02</course>
  <speed>5.07</speed>
  <fix>3d</fix>
</trkpt>
<trkpt lat="40.0711659" lon="-105.2295435">
  <ele>1582.98</ele>
  <time>2026-08-28T17:52:47Z</time>
  <course>319.46</course>
  <speed>5.244520950477746</speed>
  <fix>3d</fix>
</trkpt>
<trkpt lat="40.0711612" lon="-105.2295379">
  <ele>1583.0</ele>
  <time>2026-08-28T17:52:47Z</time>
  <course>319.02</course>
  <speed>5.17</speed>
  <fix>3d</fix>
</trkpt>
<trkpt lat="40.0711694" lon="-105.2295475">
  <ele>1582.98</ele>
  <time>2026-08-28T17:52:47Z</time>
  <course>319.46</course>
  <speed>5.265216044950103</speed>
  <fix>3d</fix>
</trkpt>
<trkpt lat="40.0711612" lon="-105.2295379">
  <ele>1583.0</ele>
  <time>2026-08-28T17:52:47Z</time>
  <course>319.02</course>
  <speed>5.17</speed>
  <fix>3d</fix>
</trkpt>
<trkpt lat="40.071173" lon="-105.2295515">
  <ele>1582.98</ele>
  <time>2026-08-28T17:52:47Z</time>
  <course>319.44</course>
  <speed>5.27274122255208</speed>
  <fix>3d</fix>
</trkpt>
<trkpt lat="40.0711682" lon="-105.229546">
  <ele>1583.0</ele>
  <time>2026-08-28T17:52:47Z</time>
  <course>319.01</course>
  <speed>5.21</speed>
  <fix>3d</fix>
</trkpt>
<trkpt lat="40.0711765" lon="-105.2295556">
  <ele>1582.98</ele>
  <time>2026-08-28T17:52:47Z</time>
  <course>319.43</course>
  <speed>5.265216044950103</speed>
  <fix>3d</fix>
</trkpt>
<trkpt lat="40.0711682" lon="-105.229546">
  <ele>1583.0</ele>
  <time>2026-08-28T17:52:47Z</time>
  <course>319.01</course>
  <speed>5.21</speed>
  <fix>3d</fix>
</trkpt>
<trkpt lat="40.0711801" lon="-105.2295597">
  <ele>1582.98</ele>
  <time>2026-08-28T17:52:47Z</time>
  <course>319.41</course>
  <speed>5.265216044950103</speed>
  <fix>3d</fix>
</trkpt>
<trkpt lat="40.0711753" lon="-105.2295539">
  <ele>1583.0</ele>
  <time>2026-08-28T17:52:47Z</time>
  <course>318.99</course>
  <speed>5.22</speed>
  <fix>3d</fix>
</trkpt>
<trkpt lat="40.0711837" lon="-105.2295637">
  <ele>1582.98</ele>
  <time>2026-08-28T17:52:47Z</time>
  <course>319.36</course>
  <speed>5.243586558835469</speed>
  <fix>3d</fix>
</trkpt>
<trkpt lat="40.0711753" lon="-105.2295539">
  <ele>1583.0</ele>
  <time>2026-08-28T17:52:47Z</time>
  <course>318.99</course>
  <speed>5.22</speed>
  <fix>3d</fix>
</trkpt>
<trkpt lat="40.0711872" lon="-105.2295678">
  <ele>1582.98</ele>
  <time>2026-08-28T17:52:47Z</time>
  <course>319.35</course>
  <speed>5.221963232348539</speed>
  <fix>3d</fix>
</trkpt>
<trkpt lat="40.0711824" lon="-105.229562">
  <ele>1583.0</ele>
  <time>2026-08-28T17:52:47Z</time>
  <course>318.95</course>
  <speed>5.2</speed>
  <fix>3d</fix>
</trkpt>
<trkpt lat="40.0711907" lon="-105.2295718">
  <ele>1582.98</ele>
  <time>2026-08-28T17:52:47Z</time>
  <course>319.32</course>
  <speed>5.193736612497788</speed>
  <fix>3d</fix>
</trkpt>
<trkpt lat="40.0711824" lon="-105.229562">
  <ele>1583.0</ele>
  <time>2026-08-28T17:52:47Z</time>
  <course>318.95</course>
  <speed>5.2</speed>
  <fix>3d</fix>
</trkpt>
<trkpt lat="40.0711942" lon="-105.2295758">
  <ele>1582.98</ele>
  <time>2026-08-28T17:52:47Z</time>
  <course>319.27</course>
  <speed>5.164620024745286</speed>
  <fix>3d</fix>
</trkpt>
<trkpt lat="40.0711893" lon="-105.22957">
  <ele>1583.0</ele>
  <time>2026-08-28T17:52:47Z</time>
  <course>318.89</course>
  <speed>5.15</speed>
  <fix>3d</fix>
</trkpt>
<trkpt lat="40.0711977" lon="-105.2295797">
  <ele>1582.97</ele>
  <time>2026-08-28T17:52:47Z</time>
  <course>319.24</course>
  <speed>5.13638978271704</speed>
  <fix>3d</fix>
</trkpt>
<trkpt lat="40.0711893" lon="-105.22957">
  <ele>1583.0</ele>
  <time>2026-08-28T17:52:47Z</time>
  <course>318.89</course>
  <speed>5.15</speed>
  <fix>3d</fix>
</trkpt>
<trkpt lat="40.0712011" lon="-105.2295837">
  <ele>1582.97</ele>
  <time>2026-08-28T17:52:47Z</time>
  <course>319.22</course>
  <speed>5.100666623099377</speed>
  <fix>3d</fix>
</trkpt>
<trkpt lat="40.0711963" lon="-105.2295779">
  <ele>1583.0</ele>
  <time>2026-08-28T17:52:47Z</time>
  <course>318.83</course>
  <speed>5.09</speed>
  <fix>3d</fix>
</trkpt>
<trkpt lat="40.0712045" lon="-105.2295876">
  <ele>1582.98</ele>
  <time>2026-08-28T17:52:47Z</time>
  <course>319.18</course>
  <speed>5.0649481734762105</speed>
  <fix>3d</fix>
</trkpt>
<trkpt lat="40.0711963" lon="-105.2295779">
  <ele>1583.0</ele>
  <time>2026-08-28T17:52:47Z</time>
  <course>318.83</course>
  <speed>5.09</speed>
  <fix>3d</fix>
</trkpt>
<trkpt lat="40.0712079" lon="-105.2295915">
  <ele>1582.98</ele>
  <time>2026-08-28T17:52:47Z</time>
  <course>319.13</course>
  <speed>5.029234534201005</speed>
  <fix>3d</fix>
</trkpt>
<trkpt lat="40.0711963" lon="-105.2295779">
  <ele>1583.0</ele>
  <time>2026-08-28T17:52:47Z</time>
  <course>318.83</course>
  <speed>5.09</speed>
  <fix>3d</fix>
</trkpt>
<trkpt lat="40.0712112" lon="-105.2295953">
  <ele>1582.98</ele>
  <time>2026-08-28T17:52:47Z</time>
  <course>319.12</course>
  <speed>4.993525808484422</speed>
  <fix>3d</fix>
</trkpt>
<trkpt lat="40.0712032" lon="-105.2295858">
  <ele>1583.0</ele>
  <time>2026-08-28T17:52:47Z</time>
  <course>318.77</course>
  <speed>5.02</speed>
  <fix>3d</fix>
</trkpt>
<trkpt lat="40.0712145" lon="-105.2295992">
  <ele>1582.98</ele>
  <time>2026-08-28T17:52:47Z</time>
  <course>319.08</course>
  <speed>4.965289518245638</speed>
  <fix>3d</fix>
</trkpt>
<trkpt lat="40.0712032" lon="-105.2295858">
  <ele>1583.0</ele>
  <time>2026-08-28T17:52:47Z</time>
  <course>318.77</course>
  <speed>5.02</speed>
  <fix>3d</fix>
</trkpt>
<trkpt lat="40.0712178" lon="-105.2296029">
  <ele>1582.98</ele>
  <time>2026-08-28T17:52:47Z</time>
  <course>319.04</course>
  <speed>4.929584160961246</speed>
  <fix>3d</fix>
</trkpt>
<trkpt lat="40.0712099" lon="-105.2295935">
  <ele>1583.0</ele>
  <time>2026-08-28T17:52:47Z</time>
  <course>318.71</course>
  <speed>4.96</speed>
  <fix>3d</fix>
</trkpt>
<trkpt lat="40.0712211" lon="-105.2296067">
  <ele>1582.98</ele>
  <time>2026-08-28T17:52:47Z</time>
  <course>319.0</course>
  <speed>4.908003667480292</speed>
  <fix>3d</fix>
</trkpt>
<trkpt lat="40.0712099" lon="-105.2295935">
  <ele>1583.0</ele>
  <time>2026-08-28T17:52:47Z</time>
  <course>318.71</course>
  <speed>4.96</speed>
  <fix>3d</fix>
</trkpt>
<trkpt lat="40.0712243" lon="-105.2296104">
  <ele>1582.98</ele>
  <time>2026-08-28T17:52:47Z</time>
  <course>318.98</course>
  <speed>4.879764338572099</speed>
  <fix>3d</fix>
</trkpt>
<trkpt lat="40.0712166" lon="-105.2296011">
  <ele>1583.0</ele>
  <time>2026-08-28T17:52:47Z</time>
  <course>318.65</course>
  <speed>4.91</speed>
  <fix>3d</fix>
</trkpt>
<trkpt lat="40.0712276" lon="-105.2296142">
  <ele>1582.98</ele>
  <time>2026-08-28T17:52:47Z</time>
  <course>318.92</course>
  <speed>4.858188962977871</speed>
  <fix>3d</fix>
</trkpt>
<trkpt lat="40.0712232" lon="-105.2296087">
  <ele>1583.0</ele>
  <time>2026-08-28T17:52:47Z</time>
  <course>318.59</course>
  <speed>4.86</speed>
  <fix>3d</fix>
</trkpt>
<trkpt lat="40.0712308" lon="-105.2296179">
  <ele>1582.98</ele>
  <time>2026-08-28T17:52:47Z</time>
  <course>318.89</course>
  <speed>4.844068537913146</speed>
  <fix>3d</fix>
</trkpt>
<trkpt lat="40.0712232" lon="-105.2296087">
  <ele>1583.0</ele>
  <time>2026-08-28T17:52:47Z</time>
  <course>318.59</course>
  <speed>4.86</speed>
  <fix>3d</fix>
</trkpt>
<trkpt lat="40.071234" lon="-105.2296216">
  <ele>1582.99</ele>
  <time>2026-08-28T17:52:47Z</time>
  <course>318.86</course>
  <speed>4.836620721123376</speed>
  <fix>3d</fix>
</trkpt>
<trkpt lat="40.0712297" lon="-105.2296163">
  <ele>1583.0</ele>
  <time>2026-08-28T17:52:47Z</time>
  <course>318.53</course>
  <speed>4.83</speed>
  <fix>3d</fix>
</trkpt>
<trkpt lat="40.0712372" lon="-105.2296253">
  <ele>1582.99</ele>
  <time>2026-08-28T17:52:47Z</time>
  <course>318.83</course>
  <speed>4.822499351995809</speed>
  <fix>3d</fix>
</trkpt>
<trkpt lat="40.0712297" lon="-105.2296163">
  <ele>1583.0</ele>
  <time>2026-08-28T17:52:47Z</time>
  <course>318.53</course>
  <speed>4.83</speed>
  <fix>3d</fix>
</trkpt>
<trkpt lat="40.0712405" lon="-105.2296291">
  <ele>1582.99</ele>
  <time>2026-08-28T17:52:47Z</time>
  <course>318.78</course>
  <speed>4.822499351995809</speed>
  <fix>3d</fix>
</trkpt>
<trkpt lat="40.0712362" lon="-105.2296237">
  <ele>1583.0</ele>
  <time>2026-08-28T17:52:47Z</time>
  <course>318.47</course>
  <speed>4.82</speed>
  <fix>3d</fix>
</trkpt>
<trkpt lat="40.0712437" lon="-105.2296328">
  <ele>1582.99</ele>
  <time>2026-08-28T17:52:47Z</time>
  <course>318.75</course>
  <speed>4.81505970887174</speed>
  <fix>3d</fix>
</trkpt>
<trkpt lat="40.0712362" lon="-105.2296237">
  <ele>1583.0</ele>
  <time>2026-08-28T17:52:47Z</time>
  <course>318.47</course>
  <speed>4.82</speed>
  <fix>3d</fix>
</trkpt>
<trkpt lat="40.0712469" lon="-105.2296366">
  <ele>1583.0</ele>
  <time>2026-08-28T17:52:47Z</time>
  <course>318.73</course>
  <speed>4.81505970887174</speed>
  <fix>3d</fix>
</trkpt>
<trkpt lat="40.0712427" lon="-105.2296312">
  <ele>1583.0</ele>
  <time>2026-08-28T17:52:47Z</time>
  <course>318.42</course>
  <speed>4.81</speed>
  <fix>3d</fix>
</trkpt>
<trkpt lat="40.0712502" lon="-105.2296403">
  <ele>1583.0</ele>
  <time>2026-08-28T17:52:47Z</time>
  <course>318.69</course>
  <speed>4.81505970887174</speed>
  <fix>3d</fix>
</trkpt>
<trkpt lat="40.0712427" lon="-105.2296312">
  <ele>1583.0</ele>
  <time>2026-08-28T17:52:47Z</time>
  <course>318.42</course>
  <speed>4.81</speed>
  <fix>3d</fix>
</trkpt>
<trkpt lat="40.0712534" lon="-105.2296441">
  <ele>1582.99</ele>
  <time>2026-08-28T17:52:47Z</time>
  <course>318.64</course>
  <speed>4.821752793331488</speed>
  <fix>3d</fix>
</trkpt>
<trkpt lat="40.0712491" lon="-105.2296388">
  <ele>1583.0</ele>
  <time>2026-08-28T17:52:47Z</time>
  <course>318.36</course>
  <speed>4.81</speed>
  <fix>3d</fix>
</trkpt>
<trkpt lat="40.0712567" lon="-105.2296479">
  <ele>1582.99</ele>
  <time>2026-08-28T17:52:47Z</time>
  <course>318.63</course>
  <speed>4.829182125370713</speed>
  <fix>3d</fix>
</trkpt>
<trkpt lat="40.0712491" lon="-105.2296388">
  <ele>1583.0</ele>
  <time>2026-08-28T17:52:47Z</time>
  <course>318.36</course>
  <speed>4.81</speed>
  <fix>3d</fix>
</trkpt>
<trkpt lat="40.0712599" lon="-105.2296517">
  <ele>1582.99</ele>
  <time>2026-08-28T17:52:47Z</time>
  <course>318.59</course>
  <speed>4.835876342505048</speed>
  <fix>3d</fix>
</trkpt>
<trkpt lat="40.0712556" lon="-105.2296463">
  <ele>1583.0</ele>
  <time>2026-08-28T17:52:47Z</time>
  <course>318.3</course>
  <speed>4.82</speed>
  <fix>3d</fix>
</trkpt>
<trkpt lat="40.0712632" lon="-105.2296555">
  <ele>1582.99</ele>
  <time>2026-08-28T17:52:47Z</time>
  <course>318.55</course>
  <speed>4.842581955940447</speed>
  <fix>3d</fix>
</trkpt>
<trkpt lat="40.0712556" lon="-105.2296463">
  <ele>1583.0</ele>
  <time>2026-08-28T17:52:47Z</time>
  <course>318.3</course>
  <speed>4.82</speed>
  <fix>3d</fix>
</trkpt>
<trkpt lat="40.0712664" lon="-105.2296593">
  <ele>1582.99</ele>
  <time>2026-08-28T17:52:47Z</time>
  <course>318.53</course>
  <speed>4.85</speed>
  <fix>3d</fix>
</trkpt>
<trkpt lat="40.0712621" lon="-105.2296538">
  <ele>1583.0</ele>
  <time>2026-08-28T17:52:47Z</time>
  <course>318.25</course>
  <speed>4.83</speed>
  <fix>3d</fix>
</trkpt>
<trkpt lat="40.0712697" lon="-105.2296631">
  <ele>1582.98</ele>
  <time>2026-08-28T17:52:47Z</time>
  <course>318.5</course>
  <speed>4.85670670310654</speed>
  <fix>3d</fix>
</trkpt>
<trkpt lat="40.0712621" lon="-105.2296538">
  <ele>1583.0</ele>
  <time>2026-08-28T17:52:47Z</time>
  <course>318.25</course>
  <speed>4.83</speed>
  <fix>3d</fix>
</trkpt>
<trkpt lat="40.0712729" lon="-105.2296669">
  <ele>1582.98</ele>
  <time>2026-08-28T17:52:47Z</time>
  <course>318.45</course>
  <speed>4.870831551183022</speed>
  <fix>3d</fix>
</trkpt>
<trkpt lat="40.0712621" lon="-105.2296538">
  <ele>1583.0</ele>
  <time>2026-08-28T17:52:47Z</time>
  <course>318.25</course>
  <speed>4.83</speed>
  <fix>3d</fix>
</trkpt>
<trkpt lat="40.0712762" lon="-105.2296707">
  <ele>1582.98</ele>
  <time>2026-08-28T17:52:47Z</time>
  <course>318.45</course>
  <speed>4.870831551183022</speed>
  <fix>3d</fix>
</trkpt>
<trkpt lat="40.0712686" lon="-105.2296614">
  <ele>1583.0</ele>
  <time>2026-08-28T17:52:47Z</time>
  <course>318.2</course>
  <speed>4.85</speed>
  <fix>3d</fix>
</trkpt>
<trkpt lat="40.0712794" lon="-105.2296745">
  <ele>1582.98</ele>
  <time>2026-08-28T17:52:47Z</time>
  <course>318.4</course>
  <speed>4.884956499294543</speed>
  <fix>3d</fix>
</trkpt>
<trkpt lat="40.0712686" lon="-105.2296614">
  <ele>1583.0</ele>
  <time>2026-08-28T17:52:47Z</time>
  <course>318.2</course>
  <speed>4.85</speed>
  <fix>3d</fix>
</trkpt>
<trkpt lat="40.0712826" lon="-105.2296782">
  <ele>1582.99</ele>
  <time>2026-08-28T17:52:47Z</time>
  <course>318.38</course>
  <speed>4.884956499294543</speed>
  <fix>3d</fix>
</trkpt>
<trkpt lat="40.0712751" lon="-105.2296691">
  <ele>1583.0</ele>
  <time>2026-08-28T17:52:47Z</time>
  <course>318.14</course>
  <speed>4.87</speed>
  <fix>3d</fix>
</trkpt>
<trkpt lat="40.0712859" lon="-105.229682">
  <ele>1582.99</ele>
  <time>2026-08-28T17:52:47Z</time>
  <course>318.37</course>
  <speed>4.8990815465758475</speed>
  <fix>3d</fix>
</trkpt>
<trkpt lat="40.0712751" lon="-105.2296691">
  <ele>1583.0</ele>
  <time>2026-08-28T17:52:47Z</time>
  <course>318.14</course>
  <speed>4.87</speed>
  <fix>3d</fix>
</trkpt>
<trkpt lat="40.0712891" lon="-105.2296858">
  <ele>1582.99</ele>
  <time>2026-08-28T17:52:47Z</time>
  <course>318.35</course>
  <speed>4.8990815465758475</speed>
  <fix>3d</fix>
</trkpt>
<trkpt lat="40.0712817" lon="-105.2296767">
  <ele>1583.0</ele>
  <time>2026-08-28T17:52:47Z</time>
  <course>318.12</course>
  <speed>4.88</speed>
  <fix>3d</fix>
</trkpt>
<trkpt lat="40.0712924" lon="-105.2296896">
  <ele>1582.99</ele>
  <time>2026-08-28T17:52:47Z</time>
  <course>318.35</course>
  <speed>4.884956499294543</speed>
  <fix>3d</fix>
</trkpt>
<trkpt lat="40.0712817" lon="-105.2296767">
  <ele>1583.0</ele>
  <time>2026-08-28T17:52:47Z</time>
  <course>318.12</course>
  <speed>4.88</speed>
  <fix>3d</fix>
</trkpt>
<trkpt lat="40.0712956" lon="-105.2296934">
  <ele>1582.99</ele>
  <time>2026-08-28T17:52:47Z</time>
  <course>318.33</course>
  <speed>4.877550614806575</speed>
  <fix>3d</fix>
</trkpt>
<trkpt lat="40.0712882" lon="-105.2296844">
  <ele>1583.0</ele>
  <time>2026-08-28T17:52:47Z</time>
  <course>318.1</course>
  <speed>4.89</speed>
  <fix>3d</fix>
</trkpt>
<trkpt lat="40.0712988" lon="-105.2296972">
  <ele>1582.99</ele>
  <time>2026-08-28T17:52:47Z</time>
  <course>318.32</course>
  <speed>4.85670670310654</speed>
  <fix>3d</fix>
</trkpt>
<trkpt lat="40.0712947" lon="-105.229692">
  <ele>1583.0</ele>
  <time>2026-08-28T17:52:47Z</time>
  <course>318.09</course>
  <speed>4.88</speed>
  <fix>3d</fix>
</trkpt>
<trkpt lat="40.0713021" lon="-105.229701">
  <ele>1582.99</ele>
  <time>2026-08-28T17:52:47Z</time>
  <course>318.31</course>
  <speed>4.835173213029705</speed>
  <fix>3d</fix>
</trkpt>
<trkpt lat="40.0712947" lon="-105.229692">
  <ele>1583.0</ele>
  <time>2026-08-28T17:52:47Z</time>
  <course>318.09</course>
  <speed>4.88</speed>
  <fix>3d</fix>
</trkpt>
<trkpt lat="40.0713053" lon="-105.2297048">
  <ele>1582.99</ele>
  <time>2026-08-28T17:52:47Z</time>
  <course>318.3</course>
  <speed>4.792796678349708</speed>
  <fix>3d</fix>
</trkpt>
<trkpt lat="40.0713012" lon="-105.2296997">
  <ele>1583.0</ele>
  <time>2026-08-28T17:52:47Z</time>
  <course>318.08</course>
  <speed>4.84</speed>
  <fix>3d</fix>
</trkpt>
<trkpt lat="40.0713085" lon="-105.2297085">
  <ele>1582.99</ele>
  <time>2026-08-28T17:52:47Z</time>
  <course>318.3</course>
  <speed>4.75042103397162</speed>
  <fix>3d</fix>
</trkpt>
<trkpt lat="40.0713012" lon="-105.2296997">
  <ele>1583.0</ele>
  <time>2026-08-28T17:52:47Z</time>
  <course>318.08</course>
  <speed>4.84</speed>
  <fix>3d</fix>
</trkpt>
<trkpt lat="40.0713116" lon="-105.2297122">
  <ele>1583.0</ele>
  <time>2026-08-28T17:52:47Z</time>
  <course>318.29</course>
  <speed>4.6865125626632</speed>
  <fix>3d</fix>
</trkpt>
<trkpt lat="40.0713077" lon="-105.2297072">
  <ele>1583.0</ele>
  <time>2026-08-28T17:52:47Z</time>
  <course>318.07</course>
  <speed>4.75</speed>
  <fix>3d</fix>
</trkpt>
<trkpt lat="40.0713148" lon="-105.2297159">
  <ele>1583.0</ele>
  <time>2026-08-28T17:52:47Z</time>
  <course>318.26</course>
  <speed>4.608481311668736</speed>
  <fix>3d</fix>
</trkpt>
<trkpt lat="40.0713077" lon="-105.2297072">
  <ele>1583.0</ele>
  <time>2026-08-28T17:52:47Z</time>
  <course>318.07</course>
  <speed>4.75</speed>
  <fix>3d</fix>
</trkpt>
<trkpt lat="40.0713178" lon="-105.2297195">
  <ele>1583.0</ele>
  <time>2026-08-28T17:52:47Z</time>
  <course>318.26</course>
  <speed>4.5237263400873395</speed>
  <fix>3d</fix>
</trkpt>
<trkpt lat="40.0713139" lon="-105.2297146">
  <ele>1583.0</ele>
  <time>2026-08-28T17:52:47Z</time>
  <course>318.06</course>
  <speed>4.61</speed>
  <fix>3d</fix>
</trkpt>
<trkpt lat="40.0713209" lon="-105.229723">
  <ele>1583.0</ele>
  <time>2026-08-28T17:52:47Z</time>
  <course>318.23</course>
  <speed>4.431568571059236</speed>
  <fix>3d</fix>
</trkpt>
<trkpt lat="40.0713139" lon="-105.2297146">
  <ele>1583.0</ele>
  <time>2026-08-28T17:52:47Z</time>
  <course>318.06</course>
  <speed>4.61</speed>
  <fix>3d</fix>
</trkpt>
<trkpt lat="40.0713238" lon="-105.2297265">
  <ele>1583.0</ele>
  <time>2026-08-28T17:52:47Z</time>
  <course>318.2</course>
  <speed>4.32528611770366</speed>
  <fix>3d</fix>
</trkpt>
<trkpt lat="40.07132" lon="-105.2297217">
  <ele>1583.0</ele>
  <time>2026-08-28T17:52:47Z</time>
  <course>318.02</course>
  <speed>4.44</speed>
  <fix>3d</fix>
</trkpt>
<trkpt lat="40.0713267" lon="-105.2297299">
  <ele>1583.0</ele>
  <time>2026-08-28T17:52:47Z</time>
  <course>318.18</course>
  <speed>4.219004621945797</speed>
  <fix>3d</fix>
</trkpt>
<trkpt lat="40.07132" lon="-105.2297217">
  <ele>1583.0</ele>
  <time>2026-08-28T17:52:47Z</time>
  <course>318.02</course>
  <speed>4.44</speed>
  <fix>3d</fix>
</trkpt>
<trkpt lat="40.0713294" lon="-105.2297332">
  <ele>1583.0</ele>
  <time>2026-08-28T17:52:47Z</time>
  <course>318.16</course>
  <speed>4.098597321035576</speed>
  <fix>3d</fix>
</trkpt>
<trkpt lat="40.0713257" lon="-105.2297284">
  <ele>1583.0</ele>
  <time>2026-08-28T17:52:47Z</time>
  <course>317.98</course>
  <speed>4.22</speed>
  <fix>3d</fix>
</trkpt>
<trkpt lat="40.0713321" lon="-105.2297363">
  <ele>1583.0</ele>
  <time>2026-08-28T17:52:47Z</time>
  <course>318.12</course>
  <speed>3.9781905434506273</speed>
  <fix>3d</fix>
</trkpt>
<trkpt lat="40.0713257" lon="-105.2297284">
  <ele>1583.0</ele>
  <time>2026-08-28T17:52:47Z</time>
  <course>317.98</course>
  <speed>4.22</speed>
  <fix>3d</fix>
</trkpt>
<trkpt lat="40.0713347" lon="-105.2297394">
  <ele>1582.99</ele>
  <time>2026-08-28T17:52:47Z</time>
  <course>318.1</course>
  <speed>3.857784338192067</speed>
  <fix>3d</fix>
</trkpt>
<trkpt lat="40.0713312" lon="-105.2297349">
  <ele>1583.0</ele>
  <time>2026-08-28T17:52:47Z</time>
  <course>317.94</course>
  <speed>3.99</speed>
  <fix>3d</fix>
</trkpt>
<trkpt lat="40.0713372" lon="-105.2297424">
  <ele>1582.99</ele>
  <time>2026-08-28T17:52:47Z</time>
  <course>318.03</course>
  <speed>3.666115110031326</speed>
  <fix>3d</fix>
</trkpt>
<trkpt lat="40.0713312" lon="-105.2297349">
  <ele>1583.0</ele>
  <time>2026-08-28T17:52:47Z</time>
  <course>317.94</course>
  <speed>3.99</speed>
  <fix>3d</fix>
</trkpt>
<trkpt lat="40.0713396" lon="-105.2297452">
  <ele>1582.99</ele>
  <time>2026-08-28T17:52:47Z</time>
  <course>317.97</course>
  <speed>3.48919761549844</speed>
  <fix>3d</fix>
</trkpt>
<trkpt lat="40.0713312" lon="-105.2297349">
  <ele>1583.0</ele>
  <time>2026-08-28T17:52:47Z</time>
  <course>317.94</course>
  <speed>3.99</speed>
  <fix>3d</fix>
</trkpt>
<trkpt lat="40.0713419" lon="-105.2297478">
  <ele>1582.99</ele>
  <time>2026-08-28T17:52:47Z</time>
  <course>317.92</course>
  <speed>3.3049205739321486</speed>
  <fix>3d</fix>
</trkpt>
<trkpt lat="40.0713364" lon="-105.2297409">
  <ele>1583.0</ele>
  <time>2026-08-28T17:52:47Z</time>
  <course>317.86</course>
  <speed>3.68</speed>
  <fix>3d</fix>
</trkpt>
<trkpt lat="40.071344" lon="-105.2297503">
  <ele>1582.99</ele>
  <time>2026-08-28T17:52:47Z</time>
  <course>317.87</course>
  <speed>3.1421330334662785</speed>
  <fix>3d</fix>
</trkpt>
<trkpt lat="40.0713364" lon="-105.2297409">
  <ele>1583.0</ele>
  <time>2026-08-28T17:52:47Z</time>
  <course>317.86</course>
  <speed>3.68</speed>
  <fix>3d</fix>
</trkpt>
<trkpt lat="40.071346" lon="-105.2297527">
  <ele>1582.99</ele>
  <time>2026-08-28T17:52:47Z</time>
  <course>317.82</course>
  <speed>2.9861346252304166</speed>
  <fix>3d</fix>
</trkpt>
<trkpt lat="40.0713411" lon="-105.2297465">
  <ele>1583.0</ele>
  <time>2026-08-28T17:52:47Z</time>
  <course>317.75</course>
  <speed>3.33</speed>
  <fix>3d</fix>
</trkpt>
<trkpt lat="40.0713479" lon="-105.229755">
  <ele>1583.0</ele>
  <time>2026-08-28T17:52:47Z</time>
  <course>317.77</course>
  <speed>2.8374812774712717</speed>
  <fix>3d</fix>
</trkpt>
<trkpt lat="40.0713411" lon="-105.2297465">
  <ele>1583.0</ele>
  <time>2026-08-28T17:52:47Z</time>
  <course>317.75</course>
  <speed>3.33</speed>
  <fix>3d</fix>
</trkpt>
<trkpt lat="40.0713497" lon="-105.2297571">
  <ele>1583.0</ele>
  <time>2026-08-28T17:52:47Z</time>
  <course>317.73</course>
  <speed>2.6888287412923866</speed>
  <fix>3d</fix>
</trkpt>
<trkpt lat="40.0713453" lon="-105.2297515">
  <ele>1583.0</ele>
  <time>2026-08-28T17:52:47Z</time>
  <course>317.67</course>
  <speed>3.01</speed>
  <fix>3d</fix>
</trkpt>
<trkpt lat="40.0713514" lon="-105.2297592">
  <ele>1582.99</ele>
  <time>2026-08-28T17:52:47Z</time>
  <course>317.69</course>
  <speed>2.5543100829773975</speed>
  <fix>3d</fix>
</trkpt>
<trkpt lat="40.0713491" lon="-105.2297561">
  <ele>1583.0</ele>
  <time>2026-08-28T17:52:47Z</time>
  <course>317.59</course>
  <speed>2.72</speed>
  <fix>3d</fix>
</trkpt>
<trkpt lat="40.071353" lon="-105.2297611">
  <ele>1582.99</ele>
  <time>2026-08-28T17:52:47Z</time>
  <course>317.64</course>
  <speed>2.433926868252208</speed>
  <fix>3d</fix>
</trkpt>
<trkpt lat="40.0713491" lon="-105.2297561">
  <ele>1583.0</ele>
  <time>2026-08-28T17:52:47Z</time>
  <course>317.59</course>
  <speed>2.72</speed>
  <fix>3d</fix>
</trkpt>
<trkpt lat="40.0713546" lon="-105.229763">
  <ele>1583.0</ele>
  <time>2026-08-28T17:52:47Z</time>
  <course>317.6</course>
  <speed>2.3067292862405853</speed>
  <fix>3d</fix>
</trkpt>
<trkpt lat="40.0713525" lon="-105.2297602">
  <ele>1583.0</ele>
  <time>2026-08-28T17:52:47Z</time>
  <course>317.52</course>
  <speed>2.46</speed>
  <fix>3d</fix>
</trkpt>
<trkpt lat="40.0713561" lon="-105.2297647">
  <ele>1583.0</ele>
  <time>2026-08-28T17:52:47Z</time>
  <course>317.57</course>
  <speed>2.1931712199461306</speed>
  <fix>3d</fix>
</trkpt>
<trkpt lat="40.0713525" lon="-105.2297602">
  <ele>1583.0</ele>
  <time>2026-08-28T17:52:47Z</time>
  <course>317.52</course>
  <speed>2.46</speed>
  <fix>3d</fix>
</trkpt>
<trkpt lat="40.0713575" lon="-105.2297664">
  <ele>1583.0</ele>
  <time>2026-08-28T17:52:47Z</time>
  <course>317.54</course>
  <speed>2.0800961516237657</speed>
  <fix>3d</fix>
</trkpt>
<trkpt lat="40.0713556" lon="-105.2297639">
  <ele>1583.0</ele>
  <time>2026-08-28T17:52:47Z</time>
  <course>317.46</course>
  <speed>2.23</speed>
  <fix>3d</fix>
</trkpt>
<trkpt lat="40.0713588" lon="-105.229768">
  <ele>1583.0</ele>
  <time>2026-08-28T17:52:47Z</time>
  <course>317.5</course>
  <speed>1.9738540979515178</speed>
  <fix>3d</fix>
</trkpt>
<trkpt lat="40.0713556" lon="-105.2297639">
  <ele>1583.0</ele>
  <time>2026-08-28T17:52:47Z</time>
  <course>317.46</course>
  <speed>2.23</speed>
  <fix>3d</fix>
</trkpt>
<trkpt lat="40.0713601" lon="-105.2297695">
  <ele>1583.0</ele>
  <time>2026-08-28T17:52:47Z</time>
  <course>317.48</course>
  <speed>1.8749133313302777</speed>
  <fix>3d</fix>
</trkpt>
<trkpt lat="40.0713584" lon="-105.2297672">
  <ele>1583.0</ele>
  <time>2026-08-28T17:52:47Z</time>
  <course>317.41</course>
  <speed>2.02</speed>
  <fix>3d</fix>
</trkpt>
<trkpt lat="40.0713613" lon="-105.229771">
  <ele>1583.01</ele>
  <time>2026-08-28T17:52:47Z</time>
  <course>317.45</course>
  <speed>1.782806775845324</speed>
  <fix>3d</fix>
</trkpt>
<trkpt lat="40.0713584" lon="-105.2297672">
  <ele>1583.0</ele>
  <time>2026-08-28T17:52:47Z</time>
  <course>317.41</course>
  <speed>2.02</speed>
  <fix>3d</fix>
</trkpt>
<trkpt lat="40.0713624" lon="-105.2297724">
  <ele>1583.01</ele>
  <time>2026-08-28T17:52:47Z</time>
  <course>317.43</course>
  <speed>1.6907099100673657</speed>
  <fix>3d</fix>
</trkpt>
<trkpt lat="40.0713609" lon="-105.2297703">
  <ele>1583.0</ele>
  <time>2026-08-28T17:52:47Z</time>
  <course>317.37</course>
  <speed>1.82</speed>
  <fix>3d</fix>
</trkpt>
<trkpt lat="40.0713635" lon="-105.2297737">
  <ele>1583.01</ele>
  <time>2026-08-28T17:52:47Z</time>
  <course>317.41</course>
  <speed>1.6058953888718903</speed>
  <fix>3d</fix>
</trkpt>
<trkpt lat="40.0713609" lon="-105.2297703">
  <ele>1583.0</ele>
  <time>2026-08-28T17:52:47Z</time>
  <course>317.37</course>
  <speed>1.82</speed>
  <fix>3d</fix>
</trkpt>
<trkpt lat="40.0713646" lon="-105.2297749">
  <ele>1583.01</ele>
  <time>2026-08-28T17:52:47Z</time>
  <course>317.39</course>
  <speed>1.5279397893896212</speed>
  <fix>3d</fix>
</trkpt>
<trkpt lat="40.0713633" lon="-105.2297731">
  <ele>1583.0</ele>
  <time>2026-08-28T17:52:47Z</time>
  <course>317.33</course>
  <speed>1.65</speed>
  <fix>3d</fix>
</trkpt>
<trkpt lat="40.0713656" lon="-105.2297761">
  <ele>1583.01</ele>
  <time>2026-08-28T17:52:47Z</time>
  <course>317.37</course>
  <speed>1.4431216164966834</speed>
  <fix>3d</fix>
</trkpt>
<trkpt lat="40.0713633" lon="-105.2297731">
  <ele>1583.0</ele>
  <time>2026-08-28T17:52:47Z</time>
  <course>317.33</course>
  <speed>1.65</speed>
  <fix>3d</fix>
</trkpt>
<trkpt lat="40.0713665" lon="-105.2297772">
  <ele>1583.01</ele>
  <time>2026-08-28T17:52:47Z</time>
  <course>317.35</course>
  <speed>1.372443077143821</speed>
  <fix>3d</fix>
</trkpt>
<trkpt lat="40.0713654" lon="-105.2297756">
  <ele>1583.0</ele>
  <time>2026-08-28T17:52:47Z</time>
  <course>317.3</course>
  <speed>1.49</speed>
  <fix>3d</fix>
</trkpt>
<trkpt lat="40.0713674" lon="-105.2297783">
  <ele>1583.01</ele>
  <time>2026-08-28T17:52:47Z</time>
  <course>317.33</course>
  <speed>1.3086252328302401</speed>
  <fix>3d</fix>
</trkpt>
<trkpt lat="40.0713654" lon="-105.2297756">
  <ele>1583.0</ele>
  <time>2026-08-28T17:52:47Z</time>
  <course>317.3</course>
  <speed>1.49</speed>
  <fix>3d</fix>
</trkpt>
<trkpt lat="40.0713682" lon="-105.2297793">
  <ele>1583.01</ele>
  <time>2026-08-28T17:52:47Z</time>
  <course>317.32</course>
  <speed>1.2379418403139946</speed>
  <fix>3d</fix>
</trkpt>
<trkpt lat="40.0713654" lon="-105.2297756">
  <ele>1583.0</ele>
  <time>2026-08-28T17:52:47Z</time>
  <course>317.3</course>
  <speed>1.49</speed>
  <fix>3d</fix>
</trkpt>
<trkpt lat="40.071369" lon="-105.2297803">
  <ele>1583.0</ele>
  <time>2026-08-28T17:52:47Z</time>
  <course>317.3</course>
  <speed>1.1741379816699569</speed>
  <fix>3d</fix>
</trkpt>
<trkpt lat="40.0713672" lon="-105.2297778">
  <ele>1583.0</ele>
  <time>2026-08-28T17:52:47Z</time>
  <course>317.28</course>
  <speed>1.35</speed>
  <fix>3d</fix>
</trkpt>
<trkpt lat="40.0713698" lon="-105.2297812">
  <ele>1583.0</ele>
  <time>2026-08-28T17:52:47Z</time>
  <course>317.29</course>
  <speed>1.1175866856758807</speed>
  <fix>3d</fix>
</trkpt>
<trkpt lat="40.0713672" lon="-105.2297778">
  <ele>1583.0</ele>
  <time>2026-08-28T17:52:47Z</time>
  <course>317.28</course>
  <speed>1.35</speed>
  <fix>3d</fix>
</trkpt>
<trkpt lat="40.0713705" lon="-105.2297821">
  <ele>1583.0</ele>
  <time>2026-08-28T17:52:47Z</time>
  <course>317.28</course>
  <speed>1.061037228376083</speed>
  <fix>3d</fix>
</trkpt>
<trkpt lat="40.071369" lon="-105.2297799">
  <ele>1583.0</ele>
  <time>2026-08-28T17:52:47Z</time>
  <course>317.26</course>
  <speed>1.22</speed>
  <fix>3d</fix>
</trkpt>
<trkpt lat="40.0713712" lon="-105.2297829">
  <ele>1583.0</ele>
  <time>2026-08-28T17:52:47Z</time>
  <course>317.27</course>
  <speed>1.0044899203078146</speed>
  <fix>3d</fix>
</trkpt>
<trkpt lat="40.071369" lon="-105.2297799">
  <ele>1583.0</ele>
  <time>2026-08-28T17:52:47Z</time>
  <course>317.26</course>
  <speed>1.22</speed>
  <fix>3d</fix>
</trkpt>
<trkpt lat="40.0713719" lon="-105.2297837">
  <ele>1583.0</ele>
  <time>2026-08-28T17:52:47Z</time>
  <course>317.26</course>
  <speed>0.954829827770373</speed>
  <fix>3d</fix>
</trkpt>
<trkpt lat="40.0713705" lon="-105.2297818">
  <ele>1583.0</ele>
  <time>2026-08-28T17:52:47Z</time>
  <course>317.24</course>
  <speed>1.1</speed>
  <fix>3d</fix>
</trkpt>
<trkpt lat="39.655741" lon="-104.1383097">
  <ele>1566.58</ele>
  <time>2026-08-28T17:52:48Z</time>
  <course>0.0</course>
  <speed>0.0</speed>
  <fix>3d</fix>
</trkpt>
<trkpt lat="40.0713749" lon="-105.229789">
  <ele>1583.0</ele>
  <time>2026-08-28T17:52:48Z</time>
  <course>0.0</course>
  <speed>0.0</speed>
  <fix>3d</fix>
</trkpt>
<trkpt lat="40.0713749" lon="-105.229789">
  <ele>1583.0</ele>
  <time>2026-08-28T17:52:48Z</time>
  <course>238.36</course>
  <speed>0.0</speed>
  <fix>3d</fix>
</trkpt>
<trkpt lat="40.0713749" lon="-105.229789">
  <ele>1583.0</ele>
  <time>2026-08-28T17:52:48Z</time>
  <course>0.0</course>
  <speed>0.0</speed>
  <fix>3d</fix>
</trkpt>
<trkpt lat="40.0713749" lon="-105.229789">
  <ele>1583.0</ele>
  <time>2026-08-28T17:52:48Z</time>
  <course>238.44</course>
  <speed>0.0</speed>
  <fix>3d</fix>
</trkpt>
<trkpt lat="40.0713749" lon="-105.229789">
  <ele>1583.0</ele>
  <time>2026-08-28T17:52:48Z</time>
  <course>0.0</course>
  <speed>0.0</speed>
  <fix>3d</fix>
</trkpt>
<trkpt lat="40.0713749" lon="-105.229789">
  <ele>1583.0</ele>
  <time>2026-08-28T17:52:48Z</time>
  <course>238.64</course>
  <speed>0.0</speed>
  <fix>3d</fix>
</trkpt>
<trkpt lat="40.0713749" lon="-105.229789">
  <ele>1583.0</ele>
  <time>2026-08-28T17:52:48Z</time>
  <course>0.0</course>
  <speed>0.0</speed>
  <fix>3d</fix>
</trkpt>
<trkpt lat="40.0713749" lon="-105.229789">
  <ele>1583.0</ele>
  <time>2026-08-28T17:52:48Z</time>
  <course>238.93</course>
  <speed>0.0</speed>
  <fix>3d</fix>
</trkpt>
<trkpt lat="40.0713749" lon="-105.229789">
  <ele>1583.0</ele>
  <time>2026-08-28T17:52:48Z</time>
  <course>0.0</course>
  <speed>0.0</speed>
  <fix>3d</fix>
</trkpt>
<trkpt lat="40.0713749" lon="-105.229789">
  <ele>1583.0</ele>
  <time>2026-08-28T17:52:48Z</time>
  <course>239.26</course>
  <speed>0.0</speed>
  <fix>3d</fix>
</trkpt>
<trkpt lat="40.0713749" lon="-105.229789">
  <ele>1583.0</ele>
  <time>2026-08-28T17:52:48Z</time>
  <course>0.0</course>
  <speed>0.0</speed>
  <fix>3d</fix>
</trkpt>
<trkpt lat="40.0713749" lon="-105.229789">
  <ele>1583.0</ele>
  <time>2026-08-28T17:52:48Z</time>
  <course>240.29</course>
  <speed>0.0</speed>
  <fix>3d</fix>
</trkpt>
<trkpt lat="40.0713749" lon="-105.229789">
  <ele>1583.0</ele>
  <time>2026-08-28T17:52:48Z</time>
  <course>0.0</course>
  <speed>0.0</speed>
  <fix>3d</fix>
</trkpt>
<trkpt lat="40.0713749" lon="-105.229789">
  <ele>1583.0</ele>
  <time>2026-08-28T17:52:48Z</time>
  <course>240.61</course>
  <speed>0.0</speed>
  <fix>3d</fix>
</trkpt>
<trkpt lat="40.0713749" lon="-105.229789">
  <ele>1583.0</ele>
  <time>2026-08-28T17:52:48Z</time>
  <course>0.0</course>
  <speed>0.0</speed>
  <fix>3d</fix>
</trkpt>
<trkpt lat="40.0713749" lon="-105.229789">
  <ele>1583.0</ele>
  <time>2026-08-28T17:52:48Z</time>
  <course>240.92</course>
  <speed>0.0</speed>
  <fix>3d</fix>
</trkpt>
<trkpt lat="40.0713749" lon="-105.229789">
  <ele>1583.0</ele>
  <time>2026-08-28T17:52:48Z</time>
  <course>0.0</course>
  <speed>0.0</speed>
  <fix>3d</fix>
</trkpt>
<trkpt lat="40.0713749" lon="-105.229789">
  <ele>1583.0</ele>
  <time>2026-08-28T17:52:48Z</time>
  <course>241.21</course>
  <speed>0.0</speed>
  <fix>3d</fix>
</trkpt>
<trkpt lat="40.0713749" lon="-105.229789">
  <ele>1583.0</ele>
  <time>2026-08-28T17:52:48Z</time>
  <course>0.0</course>
  <speed>0.0</speed>
  <fix>3d</fix>
</trkpt>
<trkpt lat="40.0713749" lon="-105.229789">
  <ele>1583.0</ele>
  <time>2026-08-28T17:52:48Z</time>
  <course>241.49</course>
  <speed>0.0</speed>
  <fix>3d</fix>
</trkpt>
<trkpt lat="40.0713749" lon="-105.229789">
  <ele>1583.0</ele>
  <time>2026-08-28T17:52:48Z</time>
  <course>0.0</course>
  <speed>0.0</speed>
  <fix>3d</fix>
</trkpt>
<trkpt lat="40.0713749" lon="-105.229789">
  <ele>1583.0</ele>
  <time>2026-08-28T17:52:48Z</time>
  <course>241.77</course>
  <speed>0.0</speed>
  <fix>3d</fix>
</trkpt>
<trkpt lat="40.0713749" lon="-105.229789">
  <ele>1583.0</ele>
  <time>2026-08-28T17:52:48Z</time>
  <course>0.0</course>
  <speed>0.0</speed>
  <fix>3d</fix>
</trkpt>
<trkpt lat="40.0713749" lon="-105.229789">
  <ele>1583.0</ele>
  <time>2026-08-28T17:52:48Z</time>
  <course>242.03</course>
  <speed>0.0</speed>
  <fix>3d</fix>
</trkpt>
<trkpt lat="40.0713749" lon="-105.229789">
  <ele>1583.0</ele>
  <time>2026-08-28T17:52:48Z</time>
  <course>0.0</course>
  <speed>0.0</speed>
  <fix>3d</fix>
</trkpt>
<trkpt lat="40.0713749" lon="-105.229789">
  <ele>1583.0</ele>
  <time>2026-08-28T17:52:48Z</time>
  <course>242.29</course>
  <speed>0.0</speed>
  <fix>3d</fix>
</trkpt>
<trkpt lat="40.0713749" lon="-105.229789">
  <ele>1583.0</ele>
  <time>2026-08-28T17:52:48Z</time>
  <course>0.0</course>
  <speed>0.0</speed>
  <fix>3d</fix>
</trkpt>
<trkpt lat="40.0713749" lon="-105.229789">
  <ele>1583.0</ele>
  <time>2026-08-28T17:52:48Z</time>
  <course>242.54</course>
  <speed>0.0</speed>
  <fix>3d</fix>
</trkpt>
<trkpt lat="40.0713749" lon="-105.229789">
  <ele>1583.0</ele>
  <time>2026-08-28T17:52:48Z</time>
  <course>0.0</course>
  <speed>0.0</speed>
  <fix>3d</fix>
</trkpt>
<trkpt lat="40.0713749" lon="-105.229789">
  <ele>1583.0</ele>
  <time>2026-08-28T17:52:48Z</time>
  <course>242.79</course>
  <speed>0.0</speed>
  <fix>3d</fix>
</trkpt>
<trkpt lat="40.0713749" lon="-105.229789">
  <ele>1583.0</ele>
  <time>2026-08-28T17:52:48Z</time>
  <course>0.0</course>
  <speed>0.0</speed>
  <fix>3d</fix>
</trkpt>
<trkpt lat="40.0713749" lon="-105.229789">
  <ele>1583.0</ele>
  <time>2026-08-28T17:52:48Z</time>
  <course>243.02</course>
  <speed>0.0</speed>
  <fix>3d</fix>
</trkpt>
<trkpt lat="40.0713749" lon="-105.229789">
  <ele>1583.0</ele>
  <time>2026-08-28T17:52:48Z</time>
  <course>0.0</course>
  <speed>0.0</speed>
  <fix>3d</fix>
</trkpt>
<trkpt lat="40.0713749" lon="-105.229789">
  <ele>1583.0</ele>
  <time>2026-08-28T17:52:48Z</time>
  <course>243.25</course>
  <speed>0.0</speed>
  <fix>3d</fix>
</trkpt>
<trkpt lat="40.0713749" lon="-105.229789">
  <ele>1583.0</ele>
  <time>2026-08-28T17:52:48Z</time>
  <course>0.0</course>
  <speed>0.0</speed>
  <fix>3d</fix>
</trkpt>
<trkpt lat="40.0713749" lon="-105.229789">
  <ele>1583.0</ele>
  <time>2026-08-28T17:52:48Z</time>
  <course>243.47</course>
  <speed>0.0</speed>
  <fix>3d</fix>
</trkpt>
<trkpt lat="40.0713749" lon="-105.229789">
  <ele>1583.0</ele>
  <time>2026-08-28T17:52:48Z</time>
  <course>0.0</course>
  <speed>0.0</speed>
  <fix>3d</fix>
</trkpt>
<trkpt lat="40.0713749" lon="-105.229789">
  <ele>1583.0</ele>
  <time>2026-08-28T17:52:48Z</time>
  <course>243.68</course>
  <speed>0.0</speed>
  <fix>3d</fix>
</trkpt>
<trkpt lat="40.0713749" lon="-105.229789">
  <ele>1583.0</ele>
  <time>2026-08-28T17:52:48Z</time>
  <course>0.0</course>
  <speed>0.0</speed>
  <fix>3d</fix>
</trkpt>
<trkpt lat="40.0713749" lon="-105.229789">
  <ele>1583.0</ele>
  <time>2026-08-28T17:52:48Z</time>
  <course>243.89</course>
  <speed>0.0</speed>
  <fix>3d</fix>
</trkpt>
<trkpt lat="40.0713749" lon="-105.229789">
  <ele>1583.0</ele>
  <time>2026-08-28T17:52:48Z</time>
  <course>0.0</course>
  <speed>0.0</speed>
  <fix>3d</fix>
</trkpt>
<trkpt lat="40.0713749" lon="-105.229789">
  <ele>1583.0</ele>
  <time>2026-08-28T17:52:48Z</time>
  <course>244.09</course>
  <speed>0.0</speed>
  <fix>3d</fix>
</trkpt>
<trkpt lat="40.0713749" lon="-105.229789">
  <ele>1583.0</ele>
  <time>2026-08-28T17:52:48Z</time>
  <course>0.0</course>
  <speed>0.0</speed>
  <fix>3d</fix>
</trkpt>
<trkpt lat="40.0713749" lon="-105.229789">
  <ele>1583.0</ele>
  <time>2026-08-28T17:52:48Z</time>
  <course>244.28</course>
  <speed>0.0</speed>
  <fix>3d</fix>
</trkpt>
<trkpt lat="40.0713749" lon="-105.229789">
  <ele>1583.0</ele>
  <time>2026-08-28T17:52:48Z</time>
  <course>0.0</course>
  <speed>0.0</speed>
  <fix>3d</fix>
</trkpt>
<trkpt lat="40.0713749" lon="-105.229789">
  <ele>1583.0</ele>
  <time>2026-08-28T17:52:48Z</time>
  <course>244.46</course>
  <speed>0.0</speed>
  <fix>3d</fix>
</trkpt>
<trkpt lat="40.0713749" lon="-105.229789">
  <ele>1583.0</ele>
  <time>2026-08-28T17:52:48Z</time>
  <course>0.0</course>
  <speed>0.0</speed>
  <fix>3d</fix>
</trkpt>
<trkpt lat="40.0713749" lon="-105.229789">
  <ele>1583.0</ele>
  <time>2026-08-28T17:52:48Z</time>
  <course>244.64</course>
  <speed>0.0</speed>
  <fix>3d</fix>
</trkpt>
<trkpt lat="40.0713749" lon="-105.229789">
  <ele>1583.0</ele>
  <time>2026-08-28T17:52:48Z</time>
  <course>0.0</course>
  <speed>0.0</speed>
  <fix>3d</fix>
</trkpt>
<trkpt lat="40.0713749" lon="-105.229789">
  <ele>1583.0</ele>
  <time>2026-08-28T17:52:48Z</time>
  <course>244.81</course>
  <speed>0.0</speed>
  <fix>3d</fix>
</trkpt>
<trkpt lat="40.0713749" lon="-105.229789">
  <ele>1583.0</ele>
  <time>2026-08-28T17:52:48Z</time>
  <course>0.0</course>
  <speed>0.0</speed>
  <fix>3d</fix>
</trkpt>
<trkpt lat="40.0713749" lon="-105.229789">
  <ele>1583.0</ele>
  <time>2026-08-28T17:52:48Z</time>
  <course>244.97</course>
  <speed>0.0</speed>
  <fix>3d</fix>
</trkpt>
<trkpt lat="40.0713749" lon="-105.229789">
  <ele>1583.0</ele>
  <time>2026-08-28T17:52:48Z</time>
  <course>0.0</course>
  <speed>0.0</speed>
  <fix>3d</fix>
</trkpt>
<trkpt lat="40.0713749" lon="-105.229789">
  <ele>1583.0</ele>
  <time>2026-08-28T17:52:48Z</time>
  <course>245.13</course>
  <speed>0.0</speed>
  <fix>3d</fix>
</trkpt>
<trkpt lat="40.0713749" lon="-105.229789">
  <ele>1583.0</ele>
  <time>2026-08-28T17:52:48Z</time>
  <course>0.0</course>
  <speed>0.0</speed>
  <fix>3d</fix>
</trkpt>
<trkpt lat="40.0713749" lon="-105.229789">
  <ele>1583.0</ele>
  <time>2026-08-28T17:52:48Z</time>
  <course>245.29</course>
  <speed>0.0</speed>
  <fix>3d</fix>
</trkpt>
<trkpt lat="40.0713749" lon="-105.229789">
  <ele>1583.0</ele>
  <time>2026-08-28T17:52:48Z</time>
  <course>0.0</course>
  <speed>0.0</speed>
  <fix>3d</fix>
</trkpt>
<trkpt lat="40.0713749" lon="-105.229789">
  <ele>1583.0</ele>
  <time>2026-08-28T17:52:48Z</time>
  <course>245.43</course>
  <speed>0.0</speed>
  <fix>3d</fix>
</trkpt>
<trkpt lat="40.0713749" lon="-105.229789">
  <ele>1583.0</ele>
  <time>2026-08-28T17:52:48Z</time>
  <course>0.0</course>
  <speed>0.0</speed>
  <fix>3d</fix>
</trkpt>
<trkpt lat="40.0713749" lon="-105.229789">
  <ele>1583.0</ele>
  <time>2026-08-28T17:52:48Z</time>
  <course>245.57</course>
  <speed>0.0</speed>
  <fix>3d</fix>
</trkpt>
<trkpt lat="40.0713749" lon="-105.229789">
  <ele>1583.0</ele>
  <time>2026-08-28T17:52:48Z</time>
  <course>0.0</course>
  <speed>0.0</speed>
  <fix>3d</fix>
</trkpt>
<trkpt lat="40.0713749" lon="-105.229789">
  <ele>1583.0</ele>
  <time>2026-08-28T17:52:48Z</time>
  <course>245.71</course>
  <speed>0.0</speed>
  <fix>3d</fix>
</trkpt>
<trkpt lat="40.0713749" lon="-105.229789">
  <ele>1583.0</ele>
  <time>2026-08-28T17:52:48Z</time>
  <course>0.0</course>
  <speed>0.0</speed>
  <fix>3d</fix>
</trkpt>
<trkpt lat="40.0713749" lon="-105.229789">
  <ele>1583.0</ele>
  <time>2026-08-28T17:52:48Z</time>
  <course>245.84</course>
  <speed>0.0</speed>
  <fix>3d</fix>
</trkpt>
<trkpt lat="40.0713749" lon="-105.229789">
  <ele>1583.0</ele>
  <time>2026-08-28T17:52:48Z</time>
  <course>0.0</course>
  <speed>0.0</speed>
  <fix>3d</fix>
</trkpt>
<trkpt lat="40.0713749" lon="-105.229789">
  <ele>1583.0</ele>
  <time>2026-08-28T17:52:48Z</time>
  <course>245.96</course>
  <speed>0.0</speed>
  <fix>3d</fix>
</trkpt>
<trkpt lat="40.0713749" lon="-105.229789">
  <ele>1583.0</ele>
  <time>2026-08-28T17:52:48Z</time>
  <course>0.0</course>
  <speed>0.0</speed>
  <fix>3d</fix>
</trkpt>
<trkpt lat="39.655741" lon="-104.1383097">
  <ele>1566.58</ele>
  <time>2026-08-28T17:52:49Z</time>
  <course>0.0</course>
  <speed>0.0</speed>
  <fix>3d</fix>
</trkpt>
<trkpt lat="40.0713749" lon="-105.229789">
  <ele>1583.0</ele>
  <time>2026-08-28T17:52:49Z</time>
  <course>0.0</course>
  <speed>0.0</speed>
  <fix>3d</fix>
</trkpt>
<trkpt lat="40.0713749" lon="-105.229789">
  <ele>1583.0</ele>
  <time>2026-08-28T17:52:49Z</time>
  <course>238.36</course>
  <speed>0.0</speed>
  <fix>3d</fix>
</trkpt>
<trkpt lat="40.0713749" lon="-105.229789">
  <ele>1583.0</ele>
  <time>2026-08-28T17:52:49Z</time>
  <course>0.0</course>
  <speed>0.0</speed>
  <fix>3d</fix>
</trkpt>
<trkpt lat="40.0713749" lon="-105.229789">
  <ele>1583.0</ele>
  <time>2026-08-28T17:52:49Z</time>
  <course>238.44</course>
  <speed>0.0</speed>
  <fix>3d</fix>
</trkpt>
<trkpt lat="40.0713749" lon="-105.229789">
  <ele>1583.0</ele>
  <time>2026-08-28T17:52:49Z</time>
  <course>0.0</course>
  <speed>0.0</speed>
  <fix>3d</fix>
</trkpt>
<trkpt lat="40.0713749" lon="-105.229789">
  <ele>1583.0</ele>
  <time>2026-08-28T17:52:49Z</time>
  <course>238.64</course>
  <speed>0.0</speed>
  <fix>3d</fix>
</trkpt>
<trkpt lat="40.0713749" lon="-105.229789">
  <ele>1583.0</ele>
  <time>2026-08-28T17:52:49Z</time>
  <course>0.0</course>
  <speed>0.0</speed>
  <fix>3d</fix>
</trkpt>
<trkpt lat="40.0713749" lon="-105.229789">
  <ele>1583.0</ele>
  <time>2026-08-28T17:52:49Z</time>
  <course>238.93</course>
  <speed>0.0</speed>
  <fix>3d</fix>
</trkpt>
<trkpt lat="40.0713749" lon="-105.229789">
  <ele>1583.0</ele>
  <time>2026-08-28T17:52:49Z</time>
  <course>0.0</course>
  <speed>0.0</speed>
  <fix>3d</fix>
</trkpt>
<trkpt lat="40.0713749" lon="-105.229789">
  <ele>1583.0</ele>
  <time>2026-08-28T17:52:49Z</time>
  <course>239.26</course>
  <speed>0.0</speed>
  <fix>3d</fix>
</trkpt>
<trkpt lat="40.0713749" lon="-105.229789">
  <ele>1583.0</ele>
  <time>2026-08-28T17:52:49Z</time>
  <course>0.0</course>
  <speed>0.0</speed>
  <fix>3d</fix>
</trkpt>
<trkpt lat="40.0713749" lon="-105.229789">
  <ele>1583.0</ele>
  <time>2026-08-28T17:52:49Z</time>
  <course>239.61</course>
  <speed>0.0</speed>
  <fix>3d</fix>
</trkpt>
<trkpt lat="40.0713749" lon="-105.229789">
  <ele>1583.0</ele>
  <time>2026-08-28T17:52:49Z</time>
  <course>0.0</course>
  <speed>0.0</speed>
  <fix>3d</fix>
</trkpt>
<trkpt lat="40.0713749" lon="-105.229789">
  <ele>1583.0</ele>
  <time>2026-08-28T17:52:49Z</time>
  <course>239.96</course>
  <speed>0.0</speed>
  <fix>3d</fix>
</trkpt>
<trkpt lat="40.0713749" lon="-105.229789">
  <ele>1583.0</ele>
  <time>2026-08-28T17:52:49Z</time>
  <course>0.0</course>
  <speed>0.0</speed>
  <fix>3d</fix>
</trkpt>
<trkpt lat="40.0713749" lon="-105.229789">
  <ele>1583.0</ele>
  <time>2026-08-28T17:52:49Z</time>
  <course>240.29</course>
  <speed>0.0</speed>
  <fix>3d</fix>
</trkpt>
<trkpt lat="40.0713749" lon="-105.229789">
  <ele>1583.0</ele>
  <time>2026-08-28T17:52:49Z</time>
  <course>0.0</course>
  <speed>0.0</speed>
  <fix>3d</fix>
</trkpt>
<trkpt lat="40.0713749" lon="-105.229789">
  <ele>1583.0</ele>
  <time>2026-08-28T17:52:49Z</time>
  <course>240.61</course>
  <speed>0.0</speed>
  <fix>3d</fix>
</trkpt>
<trkpt lat="40.0713749" lon="-105.229789">
  <ele>1583.0</ele>
  <time>2026-08-28T17:52:49Z</time>
  <course>0.0</course>
  <speed>0.0</speed>
  <fix>3d</fix>
</trkpt>
<trkpt lat="40.0713749" lon="-105.229789">
  <ele>1583.0</ele>
  <time>2026-08-28T17:52:49Z</time>
  <course>240.92</course>
  <speed>0.0</speed>
  <fix>3d</fix>
</trkpt>
<trkpt lat="40.0713749" lon="-105.229789">
  <ele>1583.0</ele>
  <time>2026-08-28T17:52:49Z</time>
  <course>0.0</course>
  <speed>0.0</speed>
  <fix>3d</fix>
</trkpt>
<trkpt lat="40.0713749" lon="-105.229789">
  <ele>1583.0</ele>
  <time>2026-08-28T17:52:49Z</time>
  <course>241.21</course>
  <speed>0.0</speed>
  <fix>3d</fix>
</trkpt>
<trkpt lat="40.0713749" lon="-105.229789">
  <ele>1583.0</ele>
  <time>2026-08-28T17:52:49Z</time>
  <course>0.0</course>
  <speed>0.0</speed>
  <fix>3d</fix>
</trkpt>
<trkpt lat="40.0713749" lon="-105.229789">
  <ele>1583.0</ele>
  <time>2026-08-28T17:52:49Z</time>
  <course>241.49</course>
  <speed>0.0</speed>
  <fix>3d</fix>
</trkpt>
<trkpt lat="40.0713749" lon="-105.229789">
  <ele>1583.0</ele>
  <time>2026-08-28T17:52:49Z</time>
  <course>0.0</course>
  <speed>0.0</speed>
  <fix>3d</fix>
</trkpt>
<trkpt lat="40.0713749" lon="-105.229789">
  <ele>1583.0</ele>
  <time>2026-08-28T17:52:49Z</time>
  <course>241.77</course>
  <speed>0.0</speed>
  <fix>3d</fix>
</trkpt>
<trkpt lat="40.0713749" lon="-105.229789">
  <ele>1583.0</ele>
  <time>2026-08-28T17:52:49Z</time>
  <course>0.0</course>
  <speed>0.0</speed>
  <fix>3d</fix>
</trkpt>
<trkpt lat="40.0713749" lon="-105.229789">
  <ele>1583.0</ele>
  <time>2026-08-28T17:52:49Z</time>
  <course>242.03</course>
  <speed>0.0</speed>
  <fix>3d</fix>
</trkpt>
<trkpt lat="40.0713749" lon="-105.229789">
  <ele>1583.0</ele>
  <time>2026-08-28T17:52:49Z</time>
  <course>0.0</course>
  <speed>0.0</speed>
  <fix>3d</fix>
</trkpt>
<trkpt lat="40.0713749" lon="-105.229789">
  <ele>1583.0</ele>
  <time>2026-08-28T17:52:49Z</time>
  <course>242.29</course>
  <speed>0.0</speed>
  <fix>3d</fix>
</trkpt>
<trkpt lat="40.0713749" lon="-105.229789">
  <ele>1583.0</ele>
  <time>2026-08-28T17:52:49Z</time>
  <course>0.0</course>
  <speed>0.0</speed>
  <fix>3d</fix>
</trkpt>
<trkpt lat="40.0713749" lon="-105.229789">
  <ele>1583.0</ele>
  <time>2026-08-28T17:52:49Z</time>
  <course>242.54</course>
  <speed>0.0</speed>
  <fix>3d</fix>
</trkpt>
<trkpt lat="40.0713749" lon="-105.229789">
  <ele>1583.0</ele>
  <time>2026-08-28T17:52:49Z</time>
  <course>0.0</course>
  <speed>0.0</speed>
  <fix>3d</fix>
</trkpt>
<trkpt lat="40.0713749" lon="-105.229789">
  <ele>1583.0</ele>
  <time>2026-08-28T17:52:49Z</time>
  <course>242.79</course>
  <speed>0.0</speed>
  <fix>3d</fix>
</trkpt>
<trkpt lat="40.0713749" lon="-105.229789">
  <ele>1583.0</ele>
  <time>2026-08-28T17:52:49Z</time>
  <course>0.0</course>
  <speed>0.0</speed>
  <fix>3d</fix>
</trkpt>
<trkpt lat="40.0713749" lon="-105.229789">
  <ele>1583.0</ele>
  <time>2026-08-28T17:52:49Z</time>
  <course>243.02</course>
  <speed>0.0</speed>
  <fix>3d</fix>
</trkpt>
<trkpt lat="40.0713749" lon="-105.229789">
  <ele>1583.0</ele>
  <time>2026-08-28T17:52:49Z</time>
  <course>0.0</course>
  <speed>0.0</speed>
  <fix>3d</fix>
</trkpt>
<trkpt lat="40.0713749" lon="-105.229789">
  <ele>1583.0</ele>
  <time>2026-08-28T17:52:49Z</time>
  <course>243.25</course>
  <speed>0.0</speed>
  <fix>3d</fix>
</trkpt>
<trkpt lat="40.0713749" lon="-105.229789">
  <ele>1583.0</ele>
  <time>2026-08-28T17:52:49Z</time>
  <course>0.0</course>
  <speed>0.0</speed>
  <fix>3d</fix>
</trkpt>
<trkpt lat="40.0713749" lon="-105.229789">
  <ele>1583.0</ele>
  <time>2026-08-28T17:52:49Z</time>
  <course>243.47</course>
  <speed>0.0</speed>
  <fix>3d</fix>
</trkpt>
<trkpt lat="40.0713749" lon="-105.229789">
  <ele>1583.0</ele>
  <time>2026-08-28T17:52:49Z</time>
  <course>0.0</course>
  <speed>0.0</speed>
  <fix>3d</fix>
</trkpt>
<trkpt lat="40.0713749" lon="-105.229789">
  <ele>1583.0</ele>
  <time>2026-08-28T17:52:49Z</time>
  <course>243.68</course>
  <speed>0.0</speed>
  <fix>3d</fix>
</trkpt>
<trkpt lat="40.0713749" lon="-105.229789">
  <ele>1583.0</ele>
  <time>2026-08-28T17:52:49Z</time>
  <course>0.0</course>
  <speed>0.0</speed>
  <fix>3d</fix>
</trkpt>
<trkpt lat="40.0713749" lon="-105.229789">
  <ele>1583.0</ele>
  <time>2026-08-28T17:52:49Z</time>
  <course>243.89</course>
  <speed>0.0</speed>
  <fix>3d</fix>
</trkpt>
<trkpt lat="40.0713749" lon="-105.229789">
  <ele>1583.0</ele>
  <time>2026-08-28T17:52:49Z</time>
  <course>0.0</course>
  <speed>0.0</speed>
  <fix>3d</fix>
</trkpt>
<trkpt lat="40.0713749" lon="-105.229789">
  <ele>1583.0</ele>
  <time>2026-08-28T17:52:49Z</time>
  <course>244.09</course>
  <speed>0.0</speed>
  <fix>3d</fix>
</trkpt>
<trkpt lat="40.0713749" lon="-105.229789">
  <ele>1583.0</ele>
  <time>2026-08-28T17:52:49Z</time>
  <course>0.0</course>
  <speed>0.0</speed>
  <fix>3d</fix>
</trkpt>
<trkpt lat="40.0713749" lon="-105.229789">
  <ele>1583.0</ele>
  <time>2026-08-28T17:52:49Z</time>
  <course>244.28</course>
  <speed>0.0</speed>
  <fix>3d</fix>
</trkpt>
<trkpt lat="40.0713749" lon="-105.229789">
  <ele>1583.0</ele>
  <time>2026-08-28T17:52:49Z</time>
  <course>0.0</course>
  <speed>0.0</speed>
  <fix>3d</fix>
</trkpt>
<trkpt lat="40.0713749" lon="-105.229789">
  <ele>1583.0</ele>
  <time>2026-08-28T17:52:49Z</time>
  <course>244.46</course>
  <speed>0.0</speed>
  <fix>3d</fix>
</trkpt>
<trkpt lat="40.0713749" lon="-105.229789">
  <ele>1583.0</ele>
  <time>2026-08-28T17:52:49Z</time>
  <course>0.0</course>
  <speed>0.0</speed>
  <fix>3d</fix>
</trkpt>
<trkpt lat="40.0713749" lon="-105.229789">
  <ele>1583.0</ele>
  <time>2026-08-28T17:52:49Z</time>
  <course>244.64</course>
  <speed>0.0</speed>
  <fix>3d</fix>
</trkpt>
<trkpt lat="40.0713749" lon="-105.229789">
  <ele>1583.0</ele>
  <time>2026-08-28T17:52:49Z</time>
  <course>0.0</course>
  <speed>0.0</speed>
  <fix>3d</fix>
</trkpt>
<trkpt lat="40.0713749" lon="-105.229789">
  <ele>1583.0</ele>
  <time>2026-08-28T17:52:49Z</time>
  <course>244.81</course>
  <speed>0.0</speed>
  <fix>3d</fix>
</trkpt>
<trkpt lat="40.0713749" lon="-105.229789">
  <ele>1583.0</ele>
  <time>2026-08-28T17:52:49Z</time>
  <course>0.0</course>
  <speed>0.0</speed>
  <fix>3d</fix>
</trkpt>
<trkpt lat="40.0713749" lon="-105.229789">
  <ele>1583.0</ele>
  <time>2026-08-28T17:52:49Z</time>
  <course>244.97</course>
  <speed>0.0</speed>
  <fix>3d</fix>
</trkpt>
<trkpt lat="40.0713749" lon="-105.229789">
  <ele>1583.0</ele>
  <time>2026-08-28T17:52:49Z</time>
  <course>0.0</course>
  <speed>0.0</speed>
  <fix>3d</fix>
</trkpt>
<trkpt lat="40.0713749" lon="-105.229789">
  <ele>1583.0</ele>
  <time>2026-08-28T17:52:49Z</time>
  <course>245.13</course>
  <speed>0.0</speed>
  <fix>3d</fix>
</trkpt>
<trkpt lat="40.0713749" lon="-105.229789">
  <ele>1583.0</ele>
  <time>2026-08-28T17:52:49Z</time>
  <course>0.0</course>
  <speed>0.0</speed>
  <fix>3d</fix>
</trkpt>
<trkpt lat="40.0713749" lon="-105.229789">
  <ele>1583.0</ele>
  <time>2026-08-28T17:52:49Z</time>
  <course>245.29</course>
  <speed>0.0</speed>
  <fix>3d</fix>
</trkpt>
<trkpt lat="40.0713749" lon="-105.229789">
  <ele>1583.0</ele>
  <time>2026-08-28T17:52:49Z</time>
  <course>0.0</course>
  <speed>0.0</speed>
  <fix>3d</fix>
</trkpt>
<trkpt lat="40.0713749" lon="-105.229789">
  <ele>1583.0</ele>
  <time>2026-08-28T17:52:49Z</time>
  <course>245.43</course>
  <speed>0.0</speed>
  <fix>3d</fix>
</trkpt>
<trkpt lat="40.0713749" lon="-105.229789">
  <ele>1583.0</ele>
  <time>2026-08-28T17:52:49Z</time>
  <course>0.0</course>
  <speed>0.0</speed>
  <fix>3d</fix>
</trkpt>
<trkpt lat="40.0713749" lon="-105.229789">
  <ele>1583.0</ele>
  <time>2026-08-28T17:52:49Z</time>
  <course>245.57</course>
  <speed>0.0</speed>
  <fix>3d</fix>
</trkpt>
<trkpt lat="40.0713749" lon="-105.229789">
  <ele>1583.0</ele>
  <time>2026-08-28T17:52:49Z</time>
  <course>0.0</course>
  <speed>0.0</speed>
  <fix>3d</fix>
</trkpt>
<trkpt lat="40.0713749" lon="-105.229789">
  <ele>1583.0</ele>
  <time>2026-08-28T17:52:49Z</time>
  <course>245.71</course>
  <speed>0.0</speed>
  <fix>3d</fix>
</trkpt>
<trkpt lat="40.0713749" lon="-105.229789">
  <ele>1583.0</ele>
  <time>2026-08-28T17:52:49Z</time>
  <course>0.0</course>
  <speed>0.0</speed>
  <fix>3d</fix>
</trkpt>
<trkpt lat="40.0713749" lon="-105.229789">
  <ele>1583.0</ele>
  <time>2026-08-28T17:52:49Z</time>
  <course>245.84</course>
  <speed>0.0</speed>
  <fix>3d</fix>
</trkpt>
<trkpt lat="40.0713749" lon="-105.229789">
  <ele>1583.0</ele>
  <time>2026-08-28T17:52:49Z</time>
  <course>0.0</course>
  <speed>0.0</speed>
  <fix>3d</fix>
</trkpt>
<trkpt lat="40.0713749" lon="-105.229789">
  <ele>1583.0</ele>
  <time>2026-08-28T17:52:49Z</time>
  <course>245.96</course>
  <speed>0.0</speed>
  <fix>3d</fix>
</trkpt>
<trkpt lat="40.0713749" lon="-105.229789">
  <ele>1583.0</ele>
  <time>2026-08-28T17:52:49Z</time>
  <course>0.0</course>
  <speed>0.0</speed>
  <fix>3d</fix>
</trkpt>
<trkpt lat="40.0713749" lon="-105.229789">
  <ele>1583.0</ele>
  <time>2026-08-28T17:52:49Z</time>
  <course>246.08</course>
  <speed>0.0</speed>
  <fix>3d</fix>
</trkpt>
<trkpt lat="40.0713749" lon="-105.229789">
  <ele>1583.0</ele>
  <time>2026-08-28T17:52:49Z</time>
  <course>0.0</course>
  <speed>0.0</speed>
  <fix>3d</fix>
</trkpt>
<trkpt lat="40.0713749" lon="-105.229789">
  <ele>1583.0</ele>
  <time>2026-08-28T17:52:49Z</time>
  <course>246.19</course>
  <speed>0.0</speed>
  <fix>3d</fix>
</trkpt>
<trkpt lat="40.0713749" lon="-105.229789">
  <ele>1583.0</ele>
  <time>2026-08-28T17:52:49Z</time>
  <course>0.0</course>
  <speed>0.0</speed>
  <fix>3d</fix>
</trkpt>
<trkpt lat="40.0713749" lon="-105.229789">
  <ele>1583.0</ele>
  <time>2026-08-28T17:52:49Z</time>
  <course>246.3</course>
  <speed>0.0</speed>
  <fix>3d</fix>
</trkpt>
<trkpt lat="40.0713749" lon="-105.229789">
  <ele>1583.0</ele>
  <time>2026-08-28T17:52:49Z</time>
  <course>0.0</course>
  <speed>0.0</speed>
  <fix>3d</fix>
</trkpt>
<trkpt lat="40.0713749" lon="-105.229789">
  <ele>1583.0</ele>
  <time>2026-08-28T17:52:49Z</time>
  <course>246.41</course>
  <speed>0.0</speed>
  <fix>3d</fix>
</trkpt>
<trkpt lat="40.0713749" lon="-105.229789">
  <ele>1583.0</ele>
  <time>2026-08-28T17:52:49Z</time>
  <course>0.0</course>
  <speed>0.0</speed>
  <fix>3d</fix>
</trkpt>
<trkpt lat="40.0713749" lon="-105.229789">
  <ele>1583.0</ele>
  <time>2026-08-28T17:52:49Z</time>
  <course>246.51</course>
  <speed>0.0</speed>
  <fix>3d</fix>
</trkpt>
<trkpt lat="40.0713749" lon="-105.229789">
  <ele>1583.0</ele>
  <time>2026-08-28T17:52:49Z</time>
  <course>0.0</course>
  <speed>0.0</speed>
  <fix>3d</fix>
</trkpt>
<trkpt lat="40.0713749" lon="-105.229789">
  <ele>1583.0</ele>
  <time>2026-08-28T17:52:49Z</time>
  <course>246.6</course>
  <speed>0.0</speed>
  <fix>3d</fix>
</trkpt>
<trkpt lat="40.0713749" lon="-105.229789">
  <ele>1583.0</ele>
  <time>2026-08-28T17:52:49Z</time>
  <course>0.0</course>
  <speed>0.0</speed>
  <fix>3d</fix>
</trkpt>
<trkpt lat="40.0713749" lon="-105.229789">
  <ele>1583.0</ele>
  <time>2026-08-28T17:52:49Z</time>
  <course>246.7</course>
  <speed>0.0</speed>
  <fix>3d</fix>
</trkpt>
<trkpt lat="40.0713749" lon="-105.229789">
  <ele>1583.0</ele>
  <time>2026-08-28T17:52:49Z</time>
  <course>0.0</course>
  <speed>0.0</speed>
  <fix>3d</fix>
</trkpt>
<trkpt lat="40.0713749" lon="-105.229789">
  <ele>1583.0</ele>
  <time>2026-08-28T17:52:49Z</time>
  <course>246.78</course>
  <speed>0.0</speed>
  <fix>3d</fix>
</trkpt>
<trkpt lat="40.0713749" lon="-105.229789">
  <ele>1583.0</ele>
  <time>2026-08-28T17:52:49Z</time>
  <course>0.0</course>
  <speed>0.0</speed>
  <fix>3d</fix>
</trkpt>
<trkpt lat="40.0713749" lon="-105.229789">
  <ele>1583.0</ele>
  <time>2026-08-28T17:52:49Z</time>
  <course>246.87</course>
  <speed>0.0</speed>
  <fix>3d</fix>
</trkpt>
<trkpt lat="40.0713749" lon="-105.229789">
  <ele>1583.0</ele>
  <time>2026-08-28T17:52:49Z</time>
  <course>0.0</course>
  <speed>0.0</speed>
  <fix>3d</fix>
</trkpt>
<trkpt lat="40.0713749" lon="-105.229789">
  <ele>1583.0</ele>
  <time>2026-08-28T17:52:49Z</time>
  <course>246.95</course>
  <speed>0.0</speed>
  <fix>3d</fix>
</trkpt>
<trkpt lat="40.0713749" lon="-105.229789">
  <ele>1583.0</ele>
  <time>2026-08-28T17:52:49Z</time>
  <course>0.0</course>
  <speed>0.0</speed>
  <fix>3d</fix>
</trkpt>
<trkpt lat="40.0713749" lon="-105.229789">
  <ele>1583.0</ele>
  <time>2026-08-28T17:52:49Z</time>
  <course>247.02</course>
  <speed>0.0</speed>
  <fix>3d</fix>
</trkpt>
<trkpt lat="40.0713749" lon="-105.229789">
  <ele>1583.0</ele>
  <time>2026-08-28T17:52:49Z</time>
  <course>0.0</course>
  <speed>0.0</speed>
  <fix>3d</fix>
</trkpt>
<trkpt lat="40.0713749" lon="-105.229789">
  <ele>1583.0</ele>
  <time>2026-08-28T17:52:49Z</time>
  <course>247.1</course>
  <speed>0.0</speed>
  <fix>3d</fix>
</trkpt>
<trkpt lat="40.0713749" lon="-105.229789">
  <ele>1583.0</ele>
  <time>2026-08-28T17:52:49Z</time>
  <course>0.0</course>
  <speed>0.0</speed>
  <fix>3d</fix>
</trkpt>
<trkpt lat="40.0713749" lon="-105.229789">
  <ele>1583.0</ele>
  <time>2026-08-28T17:52:49Z</time>
  <course>247.17</course>
  <speed>0.0</speed>
  <fix>3d</fix>
</trkpt>
<trkpt lat="40.0713749" lon="-105.229789">
  <ele>1583.0</ele>
  <time>2026-08-28T17:52:49Z</time>
  <course>0.0</course>
  <speed>0.0</speed>
  <fix>3d</fix>
</trkpt>
<trkpt lat="40.0713749" lon="-105.229789">
  <ele>1583.0</ele>
  <time>2026-08-28T17:52:49Z</time>
  <course>247.24</course>
  <speed>0.0</speed>
  <fix>3d</fix>
</trkpt>
<trkpt lat="40.0713749" lon="-105.229789">
  <ele>1583.0</ele>
  <time>2026-08-28T17:52:49Z</time>
  <course>0.0</course>
  <speed>0.0</speed>
  <fix>3d</fix>
</trkpt>
<trkpt lat="40.0713749" lon="-105.229789">
  <ele>1583.0</ele>
  <time>2026-08-28T17:52:49Z</time>
  <course>247.3</course>
  <speed>0.0</speed>
  <fix>3d</fix>
</trkpt>
<trkpt lat="40.0713749" lon="-105.229789">
  <ele>1583.0</ele>
  <time>2026-08-28T17:52:49Z</time>
  <course>0.0</course>
  <speed>0.0</speed>
  <fix>3d</fix>
</trkpt>
<trkpt lat="40.0713749" lon="-105.229789">
  <ele>1583.0</ele>
  <time>2026-08-28T17:52:49Z</time>
  <course>247.36</course>
  <speed>0.0</speed>
  <fix>3d</fix>
</trkpt>
<trkpt lat="40.0713749" lon="-105.229789">
  <ele>1583.0</ele>
  <time>2026-08-28T17:52:49Z</time>
  <course>0.0</course>
  <speed>0.0</speed>
  <fix>3d</fix>
</trkpt>
<trkpt lat="40.0713749" lon="-105.229789">
  <ele>1583.0</ele>
  <time>2026-08-28T17:52:49Z</time>
  <course>247.42</course>
  <speed>0.0</speed>
  <fix>3d</fix>
</trkpt>
<trkpt lat="40.0713749" lon="-105.229789">
  <ele>1583.0</ele>
  <time>2026-08-28T17:52:49Z</time>
  <course>0.0</course>
  <speed>0.0</speed>
  <fix>3d</fix>
</trkpt>
<trkpt lat="40.0713749" lon="-105.229789">
  <ele>1583.0</ele>
  <time>2026-08-28T17:52:49Z</time>
  <course>247.47</course>
  <speed>0.0</speed>
  <fix>3d</fix>
</trkpt>
<trkpt lat="40.0713749" lon="-105.229789">
  <ele>1583.0</ele>
  <time>2026-08-28T17:52:49Z</time>
  <course>0.0</course>
  <speed>0.0</speed>
  <fix>3d</fix>
</trkpt>
<trkpt lat="40.0713749" lon="-105.229789">
  <ele>1583.0</ele>
  <time>2026-08-28T17:52:49Z</time>
  <course>247.53</course>
  <speed>0.0</speed>
  <fix>3d</fix>
</trkpt>
<trkpt lat="40.0713749" lon="-105.229789">
  <ele>1583.0</ele>
  <time>2026-08-28T17:52:49Z</time>
  <course>0.0</course>
  <speed>0.0</speed>
  <fix>3d</fix>
</trkpt>
<trkpt lat="40.0713749" lon="-105.229789">
  <ele>1583.0</ele>
  <time>2026-08-28T17:52:49Z</time>
  <course>247.58</course>
  <speed>0.0</speed>
  <fix>3d</fix>
</trkpt>
<trkpt lat="40.0713749" lon="-105.229789">
  <ele>1583.0</ele>
  <time>2026-08-28T17:52:49Z</time>
  <course>0.0</course>
  <speed>0.0</speed>
  <fix>3d</fix>
</trkpt>
<trkpt lat="40.0713749" lon="-105.229789">
  <ele>1583.0</ele>
  <time>2026-08-28T17:52:49Z</time>
  <course>247.63</course>
  <speed>0.0</speed>
  <fix>3d</fix>
</trkpt>
<trkpt lat="40.0713749" lon="-105.229789">
  <ele>1583.0</ele>
  <time>2026-08-28T17:52:49Z</time>
  <course>0.0</course>
  <speed>0.0</speed>
  <fix>3d</fix>
</trkpt>
<trkpt lat="40.0713749" lon="-105.229789">
  <ele>1583.0</ele>
  <time>2026-08-28T17:52:49Z</time>
  <course>247.67</course>
  <speed>0.0</speed>
  <fix>3d</fix>
</trkpt>
<trkpt lat="40.0713749" lon="-105.229789">
  <ele>1583.0</ele>
  <time>2026-08-28T17:52:49Z</time>
  <course>0.0</course>
  <speed>0.0</speed>
  <fix>3d</fix>
</trkpt>
<trkpt lat="40.0713749" lon="-105.229789">
  <ele>1583.0</ele>
  <time>2026-08-28T17:52:49Z</time>
  <course>247.72</course>
  <speed>0.0</speed>
  <fix>3d</fix>
</trkpt>
<trkpt lat="40.0713749" lon="-105.229789">
  <ele>1583.0</ele>
  <time>2026-08-28T17:52:49Z</time>
  <course>0.0</course>
  <speed>0.0</speed>
  <fix>3d</fix>
</trkpt>
<trkpt lat="40.0713749" lon="-105.229789">
  <ele>1583.0</ele>
  <time>2026-08-28T17:52:49Z</time>
  <course>247.76</course>
  <speed>0.0</speed>
  <fix>3d</fix>
</trkpt>
<trkpt lat="40.0713749" lon="-105.229789">
  <ele>1583.0</ele>
  <time>2026-08-28T17:52:49Z</time>
  <course>0.0</course>
  <speed>0.0</speed>
  <fix>3d</fix>
</trkpt>
<trkpt lat="40.0713749" lon="-105.229789">
  <ele>1583.0</ele>
  <time>2026-08-28T17:52:49Z</time>
  <course>247.8</course>
  <speed>0.0</speed>
  <fix>3d</fix>
</trkpt>
<trkpt lat="40.0713749" lon="-105.229789">
  <ele>1583.0</ele>
  <time>2026-08-28T17:52:49Z</time>
  <course>0.0</course>
  <speed>0.0</speed>
  <fix>3d</fix>
</trkpt>
<trkpt lat="40.0713749" lon="-105.229789">
  <ele>1583.0</ele>
  <time>2026-08-28T17:52:49Z</time>
  <course>247.83</course>
  <speed>0.0</speed>
  <fix>3d</fix>
</trkpt>
<trkpt lat="40.0713749" lon="-105.229789">
  <ele>1583.0</ele>
  <time>2026-08-28T17:52:49Z</time>
  <course>0.0</course>
  <speed>0.0</speed>
  <fix>3d</fix>
</trkpt>
<trkpt lat="40.0713749" lon="-105.229789">
  <ele>1583.0</ele>
  <time>2026-08-28T17:52:49Z</time>
  <course>247.87</course>
  <speed>0.0</speed>
  <fix>3d</fix>
</trkpt>
<trkpt lat="40.0713749" lon="-105.229789">
  <ele>1583.0</ele>
  <time>2026-08-28T17:52:49Z</time>
  <course>0.0</course>
  <speed>0.0</speed>
  <fix>3d</fix>
</trkpt>
<trkpt lat="40.0713749" lon="-105.229789">
  <ele>1583.0</ele>
  <time>2026-08-28T17:52:49Z</time>
  <course>247.9</course>
  <speed>0.0</speed>
  <fix>3d</fix>
</trkpt>
<trkpt lat="40.0713749" lon="-105.229789">
  <ele>1583.0</ele>
  <time>2026-08-28T17:52:49Z</time>
  <course>0.0</course>
  <speed>0.0</speed>
  <fix>3d</fix>
</trkpt>
<trkpt lat="40.0713749" lon="-105.229789">
  <ele>1583.0</ele>
  <time>2026-08-28T17:52:49Z</time>
  <course>247.94</course>
  <speed>0.0</speed>
  <fix>3d</fix>
</trkpt>
<trkpt lat="40.0713749" lon="-105.229789">
  <ele>1583.0</ele>
  <time>2026-08-28T17:52:49Z</time>
  <course>0.0</course>
  <speed>0.0</speed>
  <fix>3d</fix>
</trkpt>
<trkpt lat="40.0713749" lon="-105.229789">
  <ele>1583.0</ele>
  <time>2026-08-28T17:52:49Z</time>
  <course>247.97</course>
  <speed>0.0</speed>
  <fix>3d</fix>
</trkpt>
<trkpt lat="40.0713749" lon="-105.229789">
  <ele>1583.0</ele>
  <time>2026-08-28T17:52:49Z</time>
  <course>0.0</course>
  <speed>0.0</speed>
  <fix>3d</fix>
</trkpt>
<trkpt lat="40.0713749" lon="-105.229789">
  <ele>1583.0</ele>
  <time>2026-08-28T17:52:49Z</time>
  <course>248.0</course>
  <speed>0.0</speed>
  <fix>3d</fix>
</trkpt>
<trkpt lat="40.0713749" lon="-105.229789">
  <ele>1583.0</ele>
  <time>2026-08-28T17:52:49Z</time>
  <course>0.0</course>
  <speed>0.0</speed>
  <fix>3d</fix>
</trkpt>
<trkpt lat="40.0713749" lon="-105.229789">
  <ele>1583.0</ele>
  <time>2026-08-28T17:52:49Z</time>
  <course>248.02</course>
  <speed>0.0</speed>
  <fix>3d</fix>
</trkpt>
<trkpt lat="40.0713749" lon="-105.229789">
  <ele>1583.0</ele>
  <time>2026-08-28T17:52:49Z</time>
  <course>0.0</course>
  <speed>0.0</speed>
  <fix>3d</fix>
</trkpt>
<trkpt lat="40.0713749" lon="-105.229789">
  <ele>1583.0</ele>
  <time>2026-08-28T17:52:49Z</time>
  <course>248.05</course>
  <speed>0.0</speed>
  <fix>3d</fix>
</trkpt>
<trkpt lat="40.0713749" lon="-105.229789">
  <ele>1583.0</ele>
  <time>2026-08-28T17:52:49Z</time>
  <course>0.0</course>
  <speed>0.0</speed>
  <fix>3d</fix>
</trkpt>
<trkpt lat="40.0713749" lon="-105.229789">
  <ele>1583.0</ele>
  <time>2026-08-28T17:52:49Z</time>
  <course>248.08</course>
  <speed>0.0</speed>
  <fix>3d</fix>
</trkpt>
<trkpt lat="40.0713749" lon="-105.229789">
  <ele>1583.0</ele>
  <time>2026-08-28T17:52:49Z</time>
  <course>0.0</course>
  <speed>0.0</speed>
  <fix>3d</fix>
</trkpt>
<trkpt lat="40.0713749" lon="-105.229789">
  <ele>1583.0</ele>
  <time>2026-08-28T17:52:49Z</time>
  <course>248.1</course>
  <speed>0.0</speed>
  <fix>3d</fix>
</trkpt>
<trkpt lat="40.0713749" lon="-105.229789">
  <ele>1583.0</ele>
  <time>2026-08-28T17:52:49Z</time>
  <course>0.0</course>
  <speed>0.0</speed>
  <fix>3d</fix>
</trkpt>
<trkpt lat="40.0713749" lon="-105.229789">
  <ele>1583.0</ele>
  <time>2026-08-28T17:52:49Z</time>
  <course>248.12</course>
  <speed>0.0</speed>
  <fix>3d</fix>
</trkpt>
<trkpt lat="40.0713749" lon="-105.229789">
  <ele>1583.0</ele>
  <time>2026-08-28T17:52:49Z</time>
  <course>0.0</course>
  <speed>0.0</speed>
  <fix>3d</fix>
</trkpt>
<trkpt lat="40.0713749" lon="-105.229789">
  <ele>1583.0</ele>
  <time>2026-08-28T17:52:49Z</time>
  <course>248.14</course>
  <speed>0.0</speed>
  <fix>3d</fix>
</trkpt>
<trkpt lat="40.0713749" lon="-105.229789">
  <ele>1583.0</ele>
  <time>2026-08-28T17:52:49Z</time>
  <course>0.0</course>
  <speed>0.0</speed>
  <fix>3d</fix>
</trkpt>
<trkpt lat="40.0713749" lon="-105.229789">
  <ele>1583.0</ele>
  <time>2026-08-28T17:52:49Z</time>
  <course>248.16</course>
  <speed>0.0</speed>
  <fix>3d</fix>
</trkpt>
<trkpt lat="40.0713749" lon="-105.229789">
  <ele>1583.0</ele>
  <time>2026-08-28T17:52:49Z</time>
  <course>0.0</course>
  <speed>0.0</speed>
  <fix>3d</fix>
</trkpt>
<trkpt lat="40.0713749" lon="-105.229789">
  <ele>1583.0</ele>
  <time>2026-08-28T17:52:49Z</time>
  <course>248.18</course>
  <speed>0.0</speed>
  <fix>3d</fix>
</trkpt>
<trkpt lat="40.0713749" lon="-105.229789">
  <ele>1583.0</ele>
  <time>2026-08-28T17:52:49Z</time>
  <course>0.0</course>
  <speed>0.0</speed>
  <fix>3d</fix>
</trkpt>
<trkpt lat="40.0713749" lon="-105.229789">
  <ele>1583.0</ele>
  <time>2026-08-28T17:52:49Z</time>
  <course>248.2</course>
  <speed>0.0</speed>
  <fix>3d</fix>
</trkpt>
<trkpt lat="40.0713749" lon="-105.229789">
  <ele>1583.0</ele>
  <time>2026-08-28T17:52:49Z</time>
  <course>0.0</course>
  <speed>0.0</speed>
  <fix>3d</fix>
</trkpt>
<trkpt lat="40.0713749" lon="-105.229789">
  <ele>1583.0</ele>
  <time>2026-08-28T17:52:49Z</time>
  <course>248.22</course>
  <speed>0.0</speed>
  <fix>3d</fix>
</trkpt>
<trkpt lat="40.0713749" lon="-105.229789">
  <ele>1583.0</ele>
  <time>2026-08-28T17:52:49Z</time>
  <course>0.0</course>
  <speed>0.0</speed>
  <fix>3d</fix>
</trkpt>
<trkpt lat="40.0713749" lon="-105.229789">
  <ele>1583.0</ele>
  <time>2026-08-28T17:52:49Z</time>
  <course>248.23</course>
  <speed>0.0</speed>
  <fix>3d</fix>
</trkpt>
<trkpt lat="40.0713749" lon="-105.229789">
  <ele>1583.0</ele>
  <time>2026-08-28T17:52:49Z</time>
  <course>0.0</course>
  <speed>0.0</speed>
  <fix>3d</fix>
</trkpt>
<trkpt lat="40.0713749" lon="-105.229789">
  <ele>1583.0</ele>
  <time>2026-08-28T17:52:49Z</time>
  <course>248.25</course>
  <speed>0.0</speed>
  <fix>3d</fix>
</trkpt>
<trkpt lat="40.0713749" lon="-105.229789">
  <ele>1583.0</ele>
  <time>2026-08-28T17:52:49Z</time>
  <course>0.0</course>
  <speed>0.0</speed>
  <fix>3d</fix>
</trkpt>
<trkpt lat="40.0713749" lon="-105.229789">
  <ele>1583.0</ele>
  <time>2026-08-28T17:52:49Z</time>
  <course>248.26</course>
  <speed>0.0</speed>
  <fix>3d</fix>
</trkpt>
<trkpt lat="40.0713749" lon="-105.229789">
  <ele>1583.0</ele>
  <time>2026-08-28T17:52:49Z</time>
  <course>0.0</course>
  <speed>0.0</speed>
  <fix>3d</fix>
</trkpt>
<trkpt lat="40.0713749" lon="-105.229789">
  <ele>1583.0</ele>
  <time>2026-08-28T17:52:49Z</time>
  <course>248.28</course>
  <speed>0.0</speed>
  <fix>3d</fix>
</trkpt>
<trkpt lat="40.0713749" lon="-105.229789">
  <ele>1583.0</ele>
  <time>2026-08-28T17:52:49Z</time>
  <course>0.0</course>
  <speed>0.0</speed>
  <fix>3d</fix>
</trkpt>
<trkpt lat="40.0713749" lon="-105.229789">
  <ele>1583.0</ele>
  <time>2026-08-28T17:52:49Z</time>
  <course>248.29</course>
  <speed>0.0</speed>
  <fix>3d</fix>
</trkpt>
<trkpt lat="40.0713749" lon="-105.229789">
  <ele>1583.0</ele>
  <time>2026-08-28T17:52:49Z</time>
  <course>0.0</course>
  <speed>0.0</speed>
  <fix>3d</fix>
</trkpt>
<trkpt lat="40.0713749" lon="-105.229789">
  <ele>1583.0</ele>
  <time>2026-08-28T17:52:49Z</time>
  <course>248.3</course>
  <speed>0.0</speed>
  <fix>3d</fix>
</trkpt>
<trkpt lat="40.0713749" lon="-105.229789">
  <ele>1583.0</ele>
  <time>2026-08-28T17:52:49Z</time>
  <course>0.0</course>
  <speed>0.0</speed>
  <fix>3d</fix>
</trkpt>
<trkpt lat="40.0713749" lon="-105.229789">
  <ele>1583.0</ele>
  <time>2026-08-28T17:52:49Z</time>
  <course>248.31</course>
  <speed>0.0</speed>
  <fix>3d</fix>
</trkpt>
<trkpt lat="40.0713749" lon="-105.229789">
  <ele>1583.0</ele>
  <time>2026-08-28T17:52:49Z</time>
  <course>0.0</course>
  <speed>0.0</speed>
  <fix>3d</fix>
</trkpt>
<trkpt lat="40.0713749" lon="-105.229789">
  <ele>1583.0</ele>
  <time>2026-08-28T17:52:49Z</time>
  <course>248.32</course>
  <speed>0.0</speed>
  <fix>3d</fix>
</trkpt>
<trkpt lat="40.0713749" lon="-105.229789">
  <ele>1583.0</ele>
  <time>2026-08-28T17:52:49Z</time>
  <course>0.0</course>
  <speed>0.0</speed>
  <fix>3d</fix>
</trkpt>
<trkpt lat="40.0713749" lon="-105.229789">
  <ele>1583.0</ele>
  <time>2026-08-28T17:52:49Z</time>
  <course>248.33</course>
  <speed>0.0</speed>
  <fix>3d</fix>
</trkpt>
<trkpt lat="40.0713749" lon="-105.229789">
  <ele>1583.0</ele>
  <time>2026-08-28T17:52:49Z</time>
  <course>0.0</course>
  <speed>0.0</speed>
  <fix>3d</fix>
</trkpt>
<trkpt lat="40.0713749" lon="-105.229789">
  <ele>1583.0</ele>
  <time>2026-08-28T17:52:49Z</time>
  <course>248.34</course>
  <speed>0.0</speed>
  <fix>3d</fix>
</trkpt>
<trkpt lat="40.0713749" lon="-105.229789">
  <ele>1583.0</ele>
  <time>2026-08-28T17:52:49Z</time>
  <course>0.0</course>
  <speed>0.0</speed>
  <fix>3d</fix>
</trkpt>
<trkpt lat="40.0713749" lon="-105.229789">
  <ele>1583.0</ele>
  <time>2026-08-28T17:52:49Z</time>
  <course>248.35</course>
  <speed>0.0</speed>
  <fix>3d</fix>
</trkpt>
<trkpt lat="40.0713749" lon="-105.229789">
  <ele>1583.0</ele>
  <time>2026-08-28T17:52:49Z</time>
  <course>0.0</course>
  <speed>0.0</speed>
  <fix>3d</fix>
</trkpt>
<trkpt lat="40.0713749" lon="-105.229789">
  <ele>1583.0</ele>
  <time>2026-08-28T17:52:49Z</time>
  <course>248.35</course>
  <speed>0.0</speed>
  <fix>3d</fix>
</trkpt>
<trkpt lat="40.0713749" lon="-105.229789">
  <ele>1583.0</ele>
  <time>2026-08-28T17:52:49Z</time>
  <course>0.0</course>
  <speed>0.0</speed>
  <fix>3d</fix>
</trkpt>
<trkpt lat="40.0713749" lon="-105.229789">
  <ele>1583.0</ele>
  <time>2026-08-28T17:52:49Z</time>
  <course>248.36</course>
  <speed>0.0</speed>
  <fix>3d</fix>
</trkpt>
<trkpt lat="40.0713749" lon="-105.229789">
  <ele>1583.0</ele>
  <time>2026-08-28T17:52:49Z</time>
  <course>0.0</course>
  <speed>0.0</speed>
  <fix>3d</fix>
</trkpt>
<trkpt lat="40.0713749" lon="-105.229789">
  <ele>1583.0</ele>
  <time>2026-08-28T17:52:49Z</time>
  <course>248.37</course>
  <speed>0.0</speed>
  <fix>3d</fix>
</trkpt>
<trkpt lat="40.0713749" lon="-105.229789">
  <ele>1583.0</ele>
  <time>2026-08-28T17:52:49Z</time>
  <course>0.0</course>
  <speed>0.0</speed>
  <fix>3d</fix>
</trkpt>
<trkpt lat="40.0713749" lon="-105.229789">
  <ele>1583.0</ele>
  <time>2026-08-28T17:52:49Z</time>
  <course>248.37</course>
  <speed>0.0</speed>
  <fix>3d</fix>
</trkpt>
<trkpt lat="40.0713749" lon="-105.229789">
  <ele>1583.0</ele>
  <time>2026-08-28T17:52:49Z</time>
  <course>0.0</course>
  <speed>0.0</speed>
  <fix>3d</fix>
</trkpt>
<trkpt lat="40.0713749" lon="-105.229789">
  <ele>1583.0</ele>
  <time>2026-08-28T17:52:49Z</time>
  <course>248.38</course>
  <speed>0.0</speed>
  <fix>3d</fix>
</trkpt>
<trkpt lat="40.0713749" lon="-105.229789">
  <ele>1583.0</ele>
  <time>2026-08-28T17:52:49Z</time>
  <course>0.0</course>
  <speed>0.0</speed>
  <fix>3d</fix>
</trkpt>
<trkpt lat="40.0713749" lon="-105.229789">
  <ele>1583.0</ele>
  <time>2026-08-28T17:52:49Z</time>
  <course>248.38</course>
  <speed>0.0</speed>
  <fix>3d</fix>
</trkpt>
<trkpt lat="40.0713749" lon="-105.229789">
  <ele>1583.0</ele>
  <time>2026-08-28T17:52:49Z</time>
  <course>0.0</course>
  <speed>0.0</speed>
  <fix>3d</fix>
</trkpt>
<trkpt lat="40.0713749" lon="-105.229789">
  <ele>1583.0</ele>
  <time>2026-08-28T17:52:49Z</time>
  <course>248.39</course>
  <speed>0.0</speed>
  <fix>3d</fix>
</trkpt>
<trkpt lat="40.0713749" lon="-105.229789">
  <ele>1583.0</ele>
  <time>2026-08-28T17:52:49Z</time>
  <course>0.0</course>
  <speed>0.0</speed>
  <fix>3d</fix>
</trkpt>
<trkpt lat="40.0713749" lon="-105.229789">
  <ele>1583.0</ele>
  <time>2026-08-28T17:52:49Z</time>
  <course>248.39</course>
  <speed>0.0</speed>
  <fix>3d</fix>
</trkpt>
<trkpt lat="40.0713749" lon="-105.229789">
  <ele>1583.0</ele>
  <time>2026-08-28T17:52:49Z</time>
  <course>0.0</course>
  <speed>0.0</speed>
  <fix>3d</fix>
</trkpt>
<trkpt lat="40.0713749" lon="-105.229789">
  <ele>1583.0</ele>
  <time>2026-08-28T17:52:49Z</time>
  <course>248.4</course>
  <speed>0.0</speed>
  <fix>3d</fix>
</trkpt>
<trkpt lat="40.0713749" lon="-105.229789">
  <ele>1583.0</ele>
  <time>2026-08-28T17:52:49Z</time>
  <course>0.0</course>
  <speed>0.0</speed>
  <fix>3d</fix>
</trkpt>
<trkpt lat="40.0713749" lon="-105.229789">
  <ele>1583.0</ele>
  <time>2026-08-28T17:52:49Z</time>
  <course>248.4</course>
  <speed>0.0</speed>
  <fix>3d</fix>
</trkpt>
<trkpt lat="40.0713749" lon="-105.229789">
  <ele>1583.0</ele>
  <time>2026-08-28T17:52:49Z</time>
  <course>0.0</course>
  <speed>0.0</speed>
  <fix>3d</fix>
</trkpt>
<trkpt lat="40.0713749" lon="-105.229789">
  <ele>1583.0</ele>
  <time>2026-08-28T17:52:49Z</time>
  <course>248.4</course>
  <speed>0.0</speed>
  <fix>3d</fix>
</trkpt>
<trkpt lat="40.0713749" lon="-105.229789">
  <ele>1583.0</ele>
  <time>2026-08-28T17:52:49Z</time>
  <course>0.0</course>
  <speed>0.0</speed>
  <fix>3d</fix>
</trkpt>
<trkpt lat="40.0713749" lon="-105.229789">
  <ele>1583.0</ele>
  <time>2026-08-28T17:52:49Z</time>
  <course>248.4</course>
  <speed>0.0</speed>
  <fix>3d</fix>
</trkpt>
<trkpt lat="40.0713749" lon="-105.229789">
  <ele>1583.0</ele>
  <time>2026-08-28T17:52:49Z</time>
  <course>0.0</course>
  <speed>0.0</speed>
  <fix>3d</fix>
</trkpt>
<trkpt lat="40.0713749" lon="-105.229789">
  <ele>1583.0</ele>
  <time>2026-08-28T17:52:49Z</time>
  <course>248.41</course>
  <speed>0.0</speed>
  <fix>3d</fix>
</trkpt>
<trkpt lat="40.0713749" lon="-105.229789">
  <ele>1583.0</ele>
  <time>2026-08-28T17:52:49Z</time>
  <course>0.0</course>
  <speed>0.0</speed>
  <fix>3d</fix>
</trkpt>
<trkpt lat="40.0713749" lon="-105.229789">
  <ele>1583.0</ele>
  <time>2026-08-28T17:52:49Z</time>
  <course>248.41</course>
  <speed>0.0</speed>
  <fix>3d</fix>
</trkpt>
<trkpt lat="40.0713749" lon="-105.229789">
  <ele>1583.0</ele>
  <time>2026-08-28T17:52:49Z</time>
  <course>0.0</course>
  <speed>0.0</speed>
  <fix>3d</fix>
</trkpt>
<trkpt lat="40.0713749" lon="-105.229789">
  <ele>1583.0</ele>
  <time>2026-08-28T17:52:49Z</time>
  <course>248.41</course>
  <speed>0.0</speed>
  <fix>3d</fix>
</trkpt>
<trkpt lat="40.0713749" lon="-105.229789">
  <ele>1583.0</ele>
  <time>2026-08-28T17:52:49Z</time>
  <course>0.0</course>
  <speed>0.0</speed>
  <fix>3d</fix>
</trkpt>
<trkpt lat="40.0713749" lon="-105.229789">
  <ele>1583.0</ele>
  <time>2026-08-28T17:52:49Z</time>
  <course>248.41</course>
  <speed>0.0</speed>
  <fix>3d</fix>
</trkpt>
<trkpt lat="40.0713749" lon="-105.229789">
  <ele>1583.0</ele>
  <time>2026-08-28T17:52:49Z</time>
  <course>0.0</course>
  <speed>0.0</speed>
  <fix>3d</fix>
</trkpt>
<trkpt lat="40.0713749" lon="-105.229789">
  <ele>1583.0</ele>
  <time>2026-08-28T17:52:49Z</time>
  <course>248.41</course>
  <speed>0.0</speed>
  <fix>3d</fix>
</trkpt>
<trkpt lat="40.0713749" lon="-105.229789">
  <ele>1583.0</ele>
  <time>2026-08-28T17:52:49Z</time>
  <course>0.0</course>
  <speed>0.0</speed>
  <fix>3d</fix>
</trkpt>
<trkpt lat="40.0713749" lon="-105.229789">
  <ele>1583.0</ele>
  <time>2026-08-28T17:52:49Z</time>
  <course>248.41</course>
  <speed>0.0</speed>
  <fix>3d</fix>
</trkpt>
<trkpt lat="40.0713749" lon="-105.229789">
  <ele>1583.0</ele>
  <time>2026-08-28T17:52:49Z</time>
  <course>0.0</course>
  <speed>0.0</speed>
  <fix>3d</fix>
</trkpt>
<trkpt lat="40.0713749" lon="-105.229789">
  <ele>1583.0</ele>
  <time>2026-08-28T17:52:49Z</time>
  <course>248.41</course>
  <speed>0.0</speed>
  <fix>3d</fix>
</trkpt>
<trkpt lat="40.0713749" lon="-105.229789">
  <ele>1583.0</ele>
  <time>2026-08-28T17:52:49Z</time>
  <course>0.0</course>
  <speed>0.0</speed>
  <fix>3d</fix>
</trkpt>
<trkpt lat="40.0713749" lon="-105.229789">
  <ele>1583.0</ele>
  <time>2026-08-28T17:52:49Z</time>
  <course>248.41</course>
  <speed>0.0</speed>
  <fix>3d</fix>
</trkpt>
<trkpt lat="40.0713749" lon="-105.229789">
  <ele>1583.0</ele>
  <time>2026-08-28T17:52:49Z</time>
  <course>0.0</course>
  <speed>0.0</speed>
  <fix>3d</fix>
</trkpt>
<trkpt lat="40.0713749" lon="-105.229789">
  <ele>1583.0</ele>
  <time>2026-08-28T17:52:49Z</time>
  <course>248.41</course>
  <speed>0.0</speed>
  <fix>3d</fix>
</trkpt>
<trkpt lat="40.0713749" lon="-105.229789">
  <ele>1583.0</ele>
  <time>2026-08-28T17:52:49Z</time>
  <course>0.0</course>
  <speed>0.0</speed>
  <fix>3d</fix>
</trkpt>
<trkpt lat="40.0713749" lon="-105.229789">
  <ele>1583.0</ele>
  <time>2026-08-28T17:52:49Z</time>
  <course>248.41</course>
  <speed>0.0</speed>
  <fix>3d</fix>
</trkpt>
<trkpt lat="40.0713749" lon="-105.229789">
  <ele>1583.0</ele>
  <time>2026-08-28T17:52:49Z</time>
  <course>0.0</course>
  <speed>0.0</speed>
  <fix>3d</fix>
</trkpt>
<trkpt lat="40.0713749" lon="-105.229789">
  <ele>1583.0</ele>
  <time>2026-08-28T17:52:49Z</time>
  <course>248.41</course>
  <speed>0.0</speed>
  <fix>3d</fix>
</trkpt>
<trkpt lat="40.0713749" lon="-105.229789">
  <ele>1583.0</ele>
  <time>2026-08-28T17:52:49Z</time>
  <course>0.0</course>
  <speed>0.0</speed>
  <fix>3d</fix>
</trkpt>
<trkpt lat="40.0713749" lon="-105.229789">
  <ele>1583.0</ele>
  <time>2026-08-28T17:52:49Z</time>
  <course>248.41</course>
  <speed>0.0</speed>
  <fix>3d</fix>
</trkpt>
<trkpt lat="40.0713749" lon="-105.229789">
  <ele>1583.0</ele>
  <time>2026-08-28T17:52:49Z</time>
  <course>0.0</course>
  <speed>0.0</speed>
  <fix>3d</fix>
</trkpt>
<trkpt lat="40.0713749" lon="-105.229789">
  <ele>1583.0</ele>
  <time>2026-08-28T17:52:49Z</time>
  <course>248.41</course>
  <speed>0.0</speed>
  <fix>3d</fix>
</trkpt>
<trkpt lat="40.0713749" lon="-105.229789">
  <ele>1583.0</ele>
  <time>2026-08-28T17:52:49Z</time>
  <course>0.0</course>
  <speed>0.0</speed>
  <fix>3d</fix>
</trkpt>
<trkpt lat="40.0713749" lon="-105.229789">
  <ele>1583.0</ele>
  <time>2026-08-28T17:52:49Z</time>
  <course>248.41</course>
  <speed>0.0</speed>
  <fix>3d</fix>
</trkpt>
<trkpt lat="40.0713749" lon="-105.229789">
  <ele>1583.0</ele>
  <time>2026-08-28T17:52:49Z</time>
  <course>0.0</course>
  <speed>0.0</speed>
  <fix>3d</fix>
</trkpt>
<trkpt lat="40.0713749" lon="-105.229789">
  <ele>1583.0</ele>
  <time>2026-08-28T17:52:49Z</time>
  <course>248.41</course>
  <speed>0.0</speed>
  <fix>3d</fix>
</trkpt>
<trkpt lat="40.0713749" lon="-105.229789">
  <ele>1583.0</ele>
  <time>2026-08-28T17:52:49Z</time>
  <course>0.0</course>
  <speed>0.0</speed>
  <fix>3d</fix>
</trkpt>
<trkpt lat="40.0713749" lon="-105.229789">
  <ele>1583.0</ele>
  <time>2026-08-28T17:52:49Z</time>
  <course>248.41</course>
  <speed>0.0</speed>
  <fix>3d</fix>
</trkpt>
<trkpt lat="40.0713749" lon="-105.229789">
  <ele>1583.0</ele>
  <time>2026-08-28T17:52:49Z</time>
  <course>0.0</course>
  <speed>0.0</speed>
  <fix>3d</fix>
</trkpt>
<trkpt lat="40.0713749" lon="-105.229789">
  <ele>1583.0</ele>
  <time>2026-08-28T17:52:49Z</time>
  <course>248.4</course>
  <speed>0.0</speed>
  <fix>3d</fix>
</trkpt>
<trkpt lat="40.0713749" lon="-105.229789">
  <ele>1583.0</ele>
  <time>2026-08-28T17:52:49Z</time>
  <course>0.0</course>
  <speed>0.0</speed>
  <fix>3d</fix>
</trkpt>
<trkpt lat="40.0713749" lon="-105.229789">
  <ele>1583.0</ele>
  <time>2026-08-28T17:52:49Z</time>
  <course>248.4</course>
  <speed>0.01</speed>
  <fix>3d</fix>
</trkpt>
<trkpt lat="40.0713749" lon="-105.229789">
  <ele>1583.0</ele>
  <time>2026-08-28T17:52:49Z</time>
  <course>0.0</course>
  <speed>0.0</speed>
  <fix>3d</fix>
</trkpt>
<trkpt lat="40.0713749" lon="-105.229789">
  <ele>1583.0</ele>
  <time>2026-08-28T17:52:49Z</time>
  <course>248.4</course>
  <speed>0.01</speed>
  <fix>3d</fix>
</trkpt>
<trkpt lat="40.0713749" lon="-105.229789">
  <ele>1583.0</ele>
  <time>2026-08-28T17:52:49Z</time>
  <course>0.0</course>
  <speed>0.0</speed>
  <fix>3d</fix>
</trkpt>
<trkpt lat="40.0713749" lon="-105.229789">
  <ele>1583.0</ele>
  <time>2026-08-28T17:52:49Z</time>
  <course>248.4</course>
  <speed>0.01</speed>
  <fix>3d</fix>
</trkpt>
<trkpt lat="40.0713749" lon="-105.229789">
  <ele>1583.0</ele>
  <time>2026-08-28T17:52:49Z</time>
  <course>0.0</course>
  <speed>0.0</speed>
  <fix>3d</fix>
</trkpt>
<trkpt lat="40.0713749" lon="-105.229789">
  <ele>1583.0</ele>
  <time>2026-08-28T17:52:49Z</time>
  <course>248.4</course>
  <speed>0.01</speed>
  <fix>3d</fix>
</trkpt>
<trkpt lat="40.0713749" lon="-105.229789">
  <ele>1583.0</ele>
  <time>2026-08-28T17:52:49Z</time>
  <course>0.0</course>
  <speed>0.0</speed>
  <fix>3d</fix>
</trkpt>
<trkpt lat="40.0713749" lon="-105.229789">
  <ele>1583.0</ele>
  <time>2026-08-28T17:52:49Z</time>
  <course>248.39</course>
  <speed>0.01</speed>
  <fix>3d</fix>
</trkpt>
<trkpt lat="40.0713749" lon="-105.229789">
  <ele>1583.0</ele>
  <time>2026-08-28T17:52:49Z</time>
  <course>0.0</course>
  <speed>0.0</speed>
  <fix>3d</fix>
</trkpt>
<trkpt lat="40.0713749" lon="-105.229789">
  <ele>1583.0</ele>
  <time>2026-08-28T17:52:49Z</time>
  <course>248.39</course>
  <speed>0.01</speed>
  <fix>3d</fix>
</trkpt>
<trkpt lat="40.0713749" lon="-105.229789">
  <ele>1583.0</ele>
  <time>2026-08-28T17:52:49Z</time>
  <course>0.0</course>
  <speed>0.0</speed>
  <fix>3d</fix>
</trkpt>
<trkpt lat="40.0713749" lon="-105.229789">
  <ele>1583.0</ele>
  <time>2026-08-28T17:52:49Z</time>
  <course>248.39</course>
  <speed>0.01</speed>
  <fix>3d</fix>
</trkpt>
<trkpt lat="40.0713749" lon="-105.229789">
  <ele>1583.0</ele>
  <time>2026-08-28T17:52:49Z</time>
  <course>0.0</course>
  <speed>0.0</speed>
  <fix>3d</fix>
</trkpt>
<trkpt lat="40.0713749" lon="-105.229789">
  <ele>1583.0</ele>
  <time>2026-08-28T17:52:49Z</time>
  <course>248.38</course>
  <speed>0.01</speed>
  <fix>3d</fix>
</trkpt>
<trkpt lat="40.0713749" lon="-105.229789">
  <ele>1583.0</ele>
  <time>2026-08-28T17:52:49Z</time>
  <course>0.0</course>
  <speed>0.0</speed>
  <fix>3d</fix>
</trkpt>
<trkpt lat="40.0713749" lon="-105.229789">
  <ele>1583.0</ele>
  <time>2026-08-28T17:52:49Z</time>
  <course>248.38</course>
  <speed>0.01</speed>
  <fix>3d</fix>
</trkpt>
<trkpt lat="40.0713749" lon="-105.229789">
  <ele>1583.0</ele>
  <time>2026-08-28T17:52:49Z</time>
  <course>0.0</course>
  <speed>0.0</speed>
  <fix>3d</fix>
</trkpt>
<trkpt lat="40.0713749" lon="-105.229789">
  <ele>1583.0</ele>
  <time>2026-08-28T17:52:49Z</time>
  <course>248.38</course>
  <speed>0.01</speed>
  <fix>3d</fix>
</trkpt>
<trkpt lat="40.0713749" lon="-105.229789">
  <ele>1583.0</ele>
  <time>2026-08-28T17:52:49Z</time>
  <course>0.0</course>
  <speed>0.0</speed>
  <fix>3d</fix>
</trkpt>
<trkpt lat="40.0713749" lon="-105.229789">
  <ele>1583.0</ele>
  <time>2026-08-28T17:52:49Z</time>
  <course>248.37</course>
  <speed>0.01</speed>
  <fix>3d</fix>
</trkpt>
<trkpt lat="40.0713749" lon="-105.229789">
  <ele>1583.0</ele>
  <time>2026-08-28T17:52:49Z</time>
  <course>0.0</course>
  <speed>0.0</speed>
  <fix>3d</fix>
</trkpt>
<trkpt lat="40.0713749" lon="-105.229789">
  <ele>1583.0</ele>
  <time>2026-08-28T17:52:49Z</time>
  <course>248.37</course>
  <speed>0.01</speed>
  <fix>3d</fix>
</trkpt>
<trkpt lat="40.0713749" lon="-105.229789">
  <ele>1583.0</ele>
  <time>2026-08-28T17:52:49Z</time>
  <course>0.0</course>
  <speed>0.0</speed>
  <fix>3d</fix>
</trkpt>
<trkpt lat="40.0713749" lon="-105.229789">
  <ele>1583.0</ele>
  <time>2026-08-28T17:52:49Z</time>
  <course>248.37</course>
  <speed>0.01</speed>
  <fix>3d</fix>
</trkpt>
<trkpt lat="40.0713749" lon="-105.229789">
  <ele>1583.0</ele>
  <time>2026-08-28T17:52:49Z</time>
  <course>0.0</course>
  <speed>0.0</speed>
  <fix>3d</fix>
</trkpt>
<trkpt lat="40.0713749" lon="-105.229789">
  <ele>1583.0</ele>
  <time>2026-08-28T17:52:49Z</time>
  <course>248.36</course>
  <speed>0.01</speed>
  <fix>3d</fix>
</trkpt>
<trkpt lat="40.0713749" lon="-105.229789">
  <ele>1583.0</ele>
  <time>2026-08-28T17:52:49Z</time>
  <course>0.0</course>
  <speed>0.0</speed>
  <fix>3d</fix>
</trkpt>
<trkpt lat="40.0713749" lon="-105.229789">
  <ele>1583.0</ele>
  <time>2026-08-28T17:52:49Z</time>
  <course>248.36</course>
  <speed>0.01</speed>
  <fix>3d</fix>
</trkpt>
<trkpt lat="40.0713749" lon="-105.229789">
  <ele>1583.0</ele>
  <time>2026-08-28T17:52:49Z</time>
  <course>0.0</course>
  <speed>0.0</speed>
  <fix>3d</fix>
</trkpt>
<trkpt lat="40.0713749" lon="-105.229789">
  <ele>1583.0</ele>
  <time>2026-08-28T17:52:49Z</time>
  <course>248.36</course>
  <speed>0.01</speed>
  <fix>3d</fix>
</trkpt>
<trkpt lat="40.0713749" lon="-105.229789">
  <ele>1583.0</ele>
  <time>2026-08-28T17:52:49Z</time>
  <course>0.0</course>
  <speed>0.0</speed>
  <fix>3d</fix>
</trkpt>
<trkpt lat="40.0713749" lon="-105.229789">
  <ele>1583.0</ele>
  <time>2026-08-28T17:52:49Z</time>
  <course>248.35</course>
  <speed>0.01</speed>
  <fix>3d</fix>
</trkpt>
<trkpt lat="40.0713749" lon="-105.229789">
  <ele>1583.0</ele>
  <time>2026-08-28T17:52:49Z</time>
  <course>0.0</course>
  <speed>0.0</speed>
  <fix>3d</fix>
</trkpt>
<trkpt lat="40.0713749" lon="-105.229789">
  <ele>1583.0</ele>
  <time>2026-08-28T17:52:49Z</time>
  <course>248.35</course>
  <speed>0.01</speed>
  <fix>3d</fix>
</trkpt>
<trkpt lat="40.0713749" lon="-105.229789">
  <ele>1583.0</ele>
  <time>2026-08-28T17:52:49Z</time>
  <course>0.0</course>
  <speed>0.0</speed>
  <fix>3d</fix>
</trkpt>
<trkpt lat="40.0713749" lon="-105.229789">
  <ele>1583.0</ele>
  <time>2026-08-28T17:52:49Z</time>
  <course>248.35</course>
  <speed>0.01</speed>
  <fix>3d</fix>
</trkpt>
<trkpt lat="40.0713749" lon="-105.229789">
  <ele>1583.0</ele>
  <time>2026-08-28T17:52:49Z</time>
  <course>0.0</course>
  <speed>0.0</speed>
  <fix>3d</fix>
</trkpt>
<trkpt lat="40.0713749" lon="-105.229789">
  <ele>1583.0</ele>
  <time>2026-08-28T17:52:49Z</time>
  <course>248.34</course>
  <speed>0.01</speed>
  <fix>3d</fix>
</trkpt>
<trkpt lat="40.0713749" lon="-105.229789">
  <ele>1583.0</ele>
  <time>2026-08-28T17:52:49Z</time>
  <course>0.0</course>
  <speed>0.0</speed>
  <fix>3d</fix>
</trkpt>
<trkpt lat="40.0713749" lon="-105.229789">
  <ele>1583.0</ele>
  <time>2026-08-28T17:52:49Z</time>
  <course>248.34</course>
  <speed>0.01</speed>
  <fix>3d</fix>
</trkpt>
<trkpt lat="40.0713749" lon="-105.229789">
  <ele>1583.0</ele>
  <time>2026-08-28T17:52:49Z</time>
  <course>0.0</course>
  <speed>0.0</speed>
  <fix>3d</fix>
</trkpt>
<trkpt lat="40.0713749" lon="-105.229789">
  <ele>1583.0</ele>
  <time>2026-08-28T17:52:49Z</time>
  <course>248.33</course>
  <speed>0.01</speed>
  <fix>3d</fix>
</trkpt>
<trkpt lat="40.0713749" lon="-105.229789">
  <ele>1583.0</ele>
  <time>2026-08-28T17:52:49Z</time>
  <course>0.0</course>
  <speed>0.0</speed>
  <fix>3d</fix>
</trkpt>
<trkpt lat="40.0713749" lon="-105.229789">
  <ele>1583.0</ele>
  <time>2026-08-28T17:52:49Z</time>
  <course>248.33</course>
  <speed>0.01</speed>
  <fix>3d</fix>
</trkpt>
<trkpt lat="40.0713749" lon="-105.229789">
  <ele>1583.0</ele>
  <time>2026-08-28T17:52:49Z</time>
  <course>0.0</course>
  <speed>0.0</speed>
  <fix>3d</fix>
</trkpt>
<trkpt lat="40.0713749" lon="-105.229789">
  <ele>1583.0</ele>
  <time>2026-08-28T17:52:49Z</time>
  <course>248.32</course>
  <speed>0.01</speed>
  <fix>3d</fix>
</trkpt>
<trkpt lat="40.0713749" lon="-105.229789">
  <ele>1583.0</ele>
  <time>2026-08-28T17:52:49Z</time>
  <course>0.0</course>
  <speed>0.0</speed>
  <fix>3d</fix>
</trkpt>
<trkpt lat="40.0713749" lon="-105.229789">
  <ele>1583.0</ele>
  <time>2026-08-28T17:52:49Z</time>
  <course>248.32</course>
  <speed>0.01</speed>
  <fix>3d</fix>
</trkpt>
<trkpt lat="40.0713749" lon="-105.229789">
  <ele>1583.0</ele>
  <time>2026-08-28T17:52:49Z</time>
  <course>0.0</course>
  <speed>0.0</speed>
  <fix>3d</fix>
</trkpt>
<trkpt lat="40.0713749" lon="-105.229789">
  <ele>1583.0</ele>
  <time>2026-08-28T17:52:49Z</time>
  <course>248.32</course>
  <speed>0.01</speed>
  <fix>3d</fix>
</trkpt>
<trkpt lat="40.0713749" lon="-105.229789">
  <ele>1583.0</ele>
  <time>2026-08-28T17:52:49Z</time>
  <course>0.0</course>
  <speed>0.0</speed>
  <fix>3d</fix>
</trkpt>
<trkpt lat="40.0713749" lon="-105.229789">
  <ele>1583.0</ele>
  <time>2026-08-28T17:52:49Z</time>
  <course>248.31</course>
  <speed>0.01</speed>
  <fix>3d</fix>
</trkpt>
<trkpt lat="40.0713749" lon="-105.229789">
  <ele>1583.0</ele>
  <time>2026-08-28T17:52:49Z</time>
  <course>0.0</course>
  <speed>0.0</speed>
  <fix>3d</fix>
</trkpt>
<trkpt lat="40.0713749" lon="-105.229789">
  <ele>1583.0</ele>
  <time>2026-08-28T17:52:49Z</time>
  <course>248.31</course>
  <speed>0.01</speed>
  <fix>3d</fix>
</trkpt>
<trkpt lat="40.0713749" lon="-105.229789">
  <ele>1583.0</ele>
  <time>2026-08-28T17:52:49Z</time>
  <course>0.0</course>
  <speed>0.0</speed>
  <fix>3d</fix>
</trkpt>
<trkpt lat="40.0713749" lon="-105.229789">
  <ele>1583.0</ele>
  <time>2026-08-28T17:52:49Z</time>
  <course>248.3</course>
  <speed>0.01</speed>
  <fix>3d</fix>
</trkpt>
<trkpt lat="40.0713749" lon="-105.229789">
  <ele>1583.0</ele>
  <time>2026-08-28T17:52:49Z</time>
  <course>0.0</course>
  <speed>0.0</speed>
  <fix>3d</fix>
</trkpt>
<trkpt lat="40.0713749" lon="-105.229789">
  <ele>1583.0</ele>
  <time>2026-08-28T17:52:49Z</time>
  <course>248.3</course>
  <speed>0.01</speed>
  <fix>3d</fix>
</trkpt>
<trkpt lat="40.0713749" lon="-105.229789">
  <ele>1583.0</ele>
  <time>2026-08-28T17:52:49Z</time>
  <course>0.0</course>
  <speed>0.0</speed>
  <fix>3d</fix>
</trkpt>
<trkpt lat="40.0713749" lon="-105.229789">
  <ele>1583.0</ele>
  <time>2026-08-28T17:52:49Z</time>
  <course>248.29</course>
  <speed>0.01</speed>
  <fix>3d</fix>
</trkpt>
<trkpt lat="40.0713749" lon="-105.229789">
  <ele>1583.0</ele>
  <time>2026-08-28T17:52:49Z</time>
  <course>0.0</course>
  <speed>0.0</speed>
  <fix>3d</fix>
</trkpt>
<trkpt lat="40.0713749" lon="-105.229789">
  <ele>1583.0</ele>
  <time>2026-08-28T17:52:49Z</time>
  <course>248.29</course>
  <speed>0.01</speed>
  <fix>3d</fix>
</trkpt>
<trkpt lat="40.0713749" lon="-105.229789">
  <ele>1583.0</ele>
  <time>2026-08-28T17:52:49Z</time>
  <course>0.0</course>
  <speed>0.0</speed>
  <fix>3d</fix>
</trkpt>
<trkpt lat="40.0713749" lon="-105.229789">
  <ele>1583.0</ele>
  <time>2026-08-28T17:52:49Z</time>
  <course>248.28</course>
  <speed>0.01</speed>
  <fix>3d</fix>
</trkpt>
<trkpt lat="40.0713749" lon="-105.229789">
  <ele>1583.0</ele>
  <time>2026-08-28T17:52:49Z</time>
  <course>0.0</course>
  <speed>0.0</speed>
  <fix>3d</fix>
</trkpt>
<trkpt lat="40.0713749" lon="-105.229789">
  <ele>1583.0</ele>
  <time>2026-08-28T17:52:49Z</time>
  <course>248.28</course>
  <speed>0.01</speed>
  <fix>3d</fix>
</trkpt>
<trkpt lat="40.0713749" lon="-105.229789">
  <ele>1583.0</ele>
  <time>2026-08-28T17:52:49Z</time>
  <course>0.0</course>
  <speed>0.0</speed>
  <fix>3d</fix>
</trkpt>
<trkpt lat="40.0713749" lon="-105.229789">
  <ele>1583.0</ele>
  <time>2026-08-28T17:52:49Z</time>
  <course>248.27</course>
  <speed>0.01</speed>
  <fix>3d</fix>
</trkpt>
<trkpt lat="40.0713749" lon="-105.229789">
  <ele>1583.0</ele>
  <time>2026-08-28T17:52:49Z</time>
  <course>0.0</course>
  <speed>0.0</speed>
  <fix>3d</fix>
</trkpt>
<trkpt lat="40.0713749" lon="-105.229789">
  <ele>1583.0</ele>
  <time>2026-08-28T17:52:49Z</time>
  <course>248.27</course>
  <speed>0.01</speed>
  <fix>3d</fix>
</trkpt>
<trkpt lat="40.0713749" lon="-105.229789">
  <ele>1583.0</ele>
  <time>2026-08-28T17:52:49Z</time>
  <course>0.0</course>
  <speed>0.0</speed>
  <fix>3d</fix>
</trkpt>
<trkpt lat="40.0713749" lon="-105.229789">
  <ele>1583.0</ele>
  <time>2026-08-28T17:52:49Z</time>
  <course>248.26</course>
  <speed>0.01</speed>
  <fix>3d</fix>
</trkpt>
<trkpt lat="40.0713749" lon="-105.229789">
  <ele>1583.0</ele>
  <time>2026-08-28T17:52:49Z</time>
  <course>0.0</course>
  <speed>0.0</speed>
  <fix>3d</fix>
</trkpt>
<trkpt lat="40.0713749" lon="-105.229789">
  <ele>1583.0</ele>
  <time>2026-08-28T17:52:49Z</time>
  <course>248.26</course>
  <speed>0.01</speed>
  <fix>3d</fix>
</trkpt>
<trkpt lat="40.0713749" lon="-105.229789">
  <ele>1583.0</ele>
  <time>2026-08-28T17:52:49Z</time>
  <course>0.0</course>
  <speed>0.0</speed>
  <fix>3d</fix>
</trkpt>
<trkpt lat="40.0713749" lon="-105.229789">
  <ele>1583.0</ele>
  <time>2026-08-28T17:52:49Z</time>
  <course>248.26</course>
  <speed>0.01</speed>
  <fix>3d</fix>
</trkpt>
<trkpt lat="40.0713749" lon="-105.229789">
  <ele>1583.0</ele>
  <time>2026-08-28T17:52:49Z</time>
  <course>0.0</course>
  <speed>0.0</speed>
  <fix>3d</fix>
</trkpt>
<trkpt lat="40.0713749" lon="-105.229789">
  <ele>1583.0</ele>
  <time>2026-08-28T17:52:49Z</time>
  <course>248.25</course>
  <speed>0.01</speed>
  <fix>3d</fix>
</trkpt>
<trkpt lat="40.0713749" lon="-105.229789">
  <ele>1583.0</ele>
  <time>2026-08-28T17:52:49Z</time>
  <course>0.0</course>
  <speed>0.0</speed>
  <fix>3d</fix>
</trkpt>
<trkpt lat="40.0713749" lon="-105.229789">
  <ele>1583.0</ele>
  <time>2026-08-28T17:52:49Z</time>
  <course>248.25</course>
  <speed>0.01</speed>
  <fix>3d</fix>
</trkpt>
<trkpt lat="40.0713749" lon="-105.229789">
  <ele>1583.0</ele>
  <time>2026-08-28T17:52:49Z</time>
  <course>0.0</course>
  <speed>0.0</speed>
  <fix>3d</fix>
</trkpt>
<trkpt lat="40.0713749" lon="-105.229789">
  <ele>1583.0</ele>
  <time>2026-08-28T17:52:49Z</time>
  <course>248.24</course>
  <speed>0.01</speed>
  <fix>3d</fix>
</trkpt>
<trkpt lat="40.0713749" lon="-105.229789">
  <ele>1583.0</ele>
  <time>2026-08-28T17:52:49Z</time>
  <course>0.0</course>
  <speed>0.0</speed>
  <fix>3d</fix>
</trkpt>
<trkpt lat="40.0713749" lon="-105.229789">
  <ele>1583.0</ele>
  <time>2026-08-28T17:52:49Z</time>
  <course>248.24</course>
  <speed>0.01</speed>
  <fix>3d</fix>
</trkpt>
<trkpt lat="40.0713749" lon="-105.229789">
  <ele>1583.0</ele>
  <time>2026-08-28T17:52:49Z</time>
  <course>0.0</course>
  <speed>0.0</speed>
  <fix>3d</fix>
</trkpt>
<trkpt lat="40.0713749" lon="-105.229789">
  <ele>1583.0</ele>
  <time>2026-08-28T17:52:49Z</time>
  <course>248.23</course>
  <speed>0.01</speed>
  <fix>3d</fix>
</trkpt>
<trkpt lat="40.0713749" lon="-105.229789">
  <ele>1583.0</ele>
  <time>2026-08-28T17:52:49Z</time>
  <course>0.0</course>
  <speed>0.0</speed>
  <fix>3d</fix>
</trkpt>
<trkpt lat="40.0713749" lon="-105.229789">
  <ele>1583.0</ele>
  <time>2026-08-28T17:52:49Z</time>
  <course>248.23</course>
  <speed>0.01</speed>
  <fix>3d</fix>
</trkpt>
<trkpt lat="40.0713749" lon="-105.229789">
  <ele>1583.0</ele>
  <time>2026-08-28T17:52:49Z</time>
  <course>0.0</course>
  <speed>0.0</speed>
  <fix>3d</fix>
</trkpt>
<trkpt lat="40.0713749" lon="-105.229789">
  <ele>1583.0</ele>
  <time>2026-08-28T17:52:49Z</time>
  <course>248.22</course>
  <speed>0.01</speed>
  <fix>3d</fix>
</trkpt>
<trkpt lat="40.0713749" lon="-105.229789">
  <ele>1583.0</ele>
  <time>2026-08-28T17:52:49Z</time>
  <course>0.0</course>
  <speed>0.0</speed>
  <fix>3d</fix>
</trkpt>
<trkpt lat="40.0713749" lon="-105.229789">
  <ele>1583.0</ele>
  <time>2026-08-28T17:52:49Z</time>
  <course>248.22</course>
  <speed>0.01</speed>
  <fix>3d</fix>
</trkpt>
<trkpt lat="40.0713749" lon="-105.229789">
  <ele>1583.0</ele>
  <time>2026-08-28T17:52:49Z</time>
  <course>0.0</course>
  <speed>0.0</speed>
  <fix>3d</fix>
</trkpt>
<trkpt lat="40.0713749" lon="-105.229789">
  <ele>1583.0</ele>
  <time>2026-08-28T17:52:49Z</time>
  <course>248.21</course>
  <speed>0.01</speed>
  <fix>3d</fix>
</trkpt>
<trkpt lat="40.0713749" lon="-105.229789">
  <ele>1583.0</ele>
  <time>2026-08-28T17:52:49Z</time>
  <course>0.0</course>
  <speed>0.0</speed>
  <fix>3d</fix>
</trkpt>
<trkpt lat="40.0713749" lon="-105.229789">
  <ele>1583.0</ele>
  <time>2026-08-28T17:52:49Z</time>
  <course>248.21</course>
  <speed>0.01</speed>
  <fix>3d</fix>
</trkpt>
<trkpt lat="40.0713749" lon="-105.229789">
  <ele>1583.0</ele>
  <time>2026-08-28T17:52:49Z</time>
  <course>0.0</course>
  <speed>0.0</speed>
  <fix>3d</fix>
</trkpt>
<trkpt lat="40.0713749" lon="-105.229789">
  <ele>1583.0</ele>
  <time>2026-08-28T17:52:49Z</time>
  <course>248.2</course>
  <speed>0.01</speed>
  <fix>3d</fix>
</trkpt>
<trkpt lat="40.0713749" lon="-105.229789">
  <ele>1583.0</ele>
  <time>2026-08-28T17:52:49Z</time>
  <course>0.0</course>
  <speed>0.0</speed>
  <fix>3d</fix>
</trkpt>
<trkpt lat="40.0713749" lon="-105.229789">
  <ele>1583.0</ele>
  <time>2026-08-28T17:52:49Z</time>
  <course>248.2</course>
  <speed>0.01</speed>
  <fix>3d</fix>
</trkpt>
<trkpt lat="40.0713749" lon="-105.229789">
  <ele>1583.0</ele>
  <time>2026-08-28T17:52:49Z</time>
  <course>0.0</course>
  <speed>0.0</speed>
  <fix>3d</fix>
</trkpt>
<trkpt lat="40.0713749" lon="-105.229789">
  <ele>1583.0</ele>
  <time>2026-08-28T17:52:49Z</time>
  <course>248.19</course>
  <speed>0.01</speed>
  <fix>3d</fix>
</trkpt>
<trkpt lat="40.0713749" lon="-105.229789">
  <ele>1583.0</ele>
  <time>2026-08-28T17:52:49Z</time>
  <course>0.0</course>
  <speed>0.0</speed>
  <fix>3d</fix>
</trkpt>
<trkpt lat="40.0713749" lon="-105.229789">
  <ele>1583.0</ele>
  <time>2026-08-28T17:52:49Z</time>
  <course>248.19</course>
  <speed>0.01</speed>
  <fix>3d</fix>
</trkpt>
<trkpt lat="40.0713749" lon="-105.229789">
  <ele>1583.0</ele>
  <time>2026-08-28T17:52:49Z</time>
  <course>0.0</course>
  <speed>0.0</speed>
  <fix>3d</fix>
</trkpt>
<trkpt lat="40.0713749" lon="-105.229789">
  <ele>1583.0</ele>
  <time>2026-08-28T17:52:49Z</time>
  <course>248.18</course>
  <speed>0.01</speed>
  <fix>3d</fix>
</trkpt>
<trkpt lat="40.0713749" lon="-105.229789">
  <ele>1583.0</ele>
  <time>2026-08-28T17:52:49Z</time>
  <course>0.0</course>
  <speed>0.0</speed>
  <fix>3d</fix>
</trkpt>
<trkpt lat="40.0713749" lon="-105.229789">
  <ele>1583.0</ele>
  <time>2026-08-28T17:52:49Z</time>
  <course>248.18</course>
  <speed>0.01</speed>
  <fix>3d</fix>
</trkpt>
<trkpt lat="40.0713749" lon="-105.229789">
  <ele>1583.0</ele>
  <time>2026-08-28T17:52:49Z</time>
  <course>0.0</course>
  <speed>0.0</speed>
  <fix>3d</fix>
</trkpt>
<trkpt lat="40.0713749" lon="-105.229789">
  <ele>1583.0</ele>
  <time>2026-08-28T17:52:49Z</time>
  <course>248.17</course>
  <speed>0.022360679774997897</speed>
  <fix>3d</fix>
</trkpt>
<trkpt lat="40.0713749" lon="-105.229789">
  <ele>1583.0</ele>
  <time>2026-08-28T17:52:49Z</time>
  <course>0.0</course>
  <speed>0.0</speed>
  <fix>3d</fix>
</trkpt>
<trkpt lat="40.0713749" lon="-105.229789">
  <ele>1583.0</ele>
  <time>2026-08-28T17:52:50Z</time>
  <course>248.17</course>
  <speed>0.022360679774997897</speed>
  <fix>3d</fix>
</trkpt>
<trkpt lat="40.0713749" lon="-105.229789">
  <ele>1583.0</ele>
  <time>2026-08-28T17:52:50Z</time>
  <course>0.0</course>
  <speed>0.0</speed>
  <fix>3d</fix>
</trkpt>
<trkpt lat="40.0713749" lon="-105.229789">
  <ele>1583.0</ele>
  <time>2026-08-28T17:52:50Z</time>
  <course>248.16</course>
  <speed>0.022360679774997897</speed>
  <fix>3d</fix>
</trkpt>
<trkpt lat="40.0713749" lon="-105.229789">
  <ele>1583.0</ele>
  <time>2026-08-28T17:52:50Z</time>
  <course>0.0</course>
  <speed>0.0</speed>
  <fix>3d</fix>
</trkpt>
<trkpt lat="40.0713749" lon="-105.229789">
  <ele>1583.0</ele>
  <time>2026-08-28T17:52:50Z</time>
  <course>248.16</course>
  <speed>0.022360679774997897</speed>
  <fix>3d</fix>
</trkpt>
<trkpt lat="40.0713749" lon="-105.229789">
  <ele>1583.0</ele>
  <time>2026-08-28T17:52:50Z</time>
  <course>0.0</course>
  <speed>0.0</speed>
  <fix>3d</fix>
</trkpt>
<trkpt lat="40.0713749" lon="-105.229789">
  <ele>1583.0</ele>
  <time>2026-08-28T17:52:50Z</time>
  <course>248.15</course>
  <speed>0.022360679774997897</speed>
  <fix>3d</fix>
</trkpt>
<trkpt lat="40.0713749" lon="-105.229789">
  <ele>1583.0</ele>
  <time>2026-08-28T17:52:50Z</time>
  <course>0.0</course>
  <speed>0.0</speed>
  <fix>3d</fix>
</trkpt>
<trkpt lat="40.0713749" lon="-105.229789">
  <ele>1583.0</ele>
  <time>2026-08-28T17:52:50Z</time>
  <course>248.15</course>
  <speed>0.022360679774997897</speed>
  <fix>3d</fix>
</trkpt>
<trkpt lat="40.0713749" lon="-105.229789">
  <ele>1583.0</ele>
  <time>2026-08-28T17:52:50Z</time>
  <course>0.0</course>
  <speed>0.0</speed>
  <fix>3d</fix>
</trkpt>
<trkpt lat="40.0713749" lon="-105.229789">
  <ele>1583.0</ele>
  <time>2026-08-28T17:52:50Z</time>
  <course>248.14</course>
  <speed>0.022360679774997897</speed>
  <fix>3d</fix>
</trkpt>
<trkpt lat="40.0713749" lon="-105.229789">
  <ele>1583.0</ele>
  <time>2026-08-28T17:52:50Z</time>
  <course>0.0</course>
  <speed>0.0</speed>
  <fix>3d</fix>
</trkpt>
<trkpt lat="40.0713749" lon="-105.229789">
  <ele>1583.0</ele>
  <time>2026-08-28T17:52:50Z</time>
  <course>248.14</course>
  <speed>0.022360679774997897</speed>
  <fix>3d</fix>
</trkpt>
<trkpt lat="40.0713749" lon="-105.229789">
  <ele>1583.0</ele>
  <time>2026-08-28T17:52:50Z</time>
  <course>0.0</course>
  <speed>0.0</speed>
  <fix>3d</fix>
</trkpt>
<trkpt lat="40.0713749" lon="-105.229789">
  <ele>1583.0</ele>
  <time>2026-08-28T17:52:50Z</time>
  <course>248.13</course>
  <speed>0.022360679774997897</speed>
  <fix>3d</fix>
</trkpt>
<trkpt lat="40.0713749" lon="-105.229789">
  <ele>1583.0</ele>
  <time>2026-08-28T17:52:50Z</time>
  <course>0.0</course>
  <speed>0.0</speed>
  <fix>3d</fix>
</trkpt>
<trkpt lat="40.0713749" lon="-105.229789">
  <ele>1583.0</ele>
  <time>2026-08-28T17:52:50Z</time>
  <course>248.13</course>
  <speed>0.022360679774997897</speed>
  <fix>3d</fix>
</trkpt>
<trkpt lat="40.0713749" lon="-105.229789">
  <ele>1583.0</ele>
  <time>2026-08-28T17:52:50Z</time>
  <course>0.0</course>
  <speed>0.0</speed>
  <fix>3d</fix>
</trkpt>
<trkpt lat="40.0713749" lon="-105.229789">
  <ele>1583.0</ele>
  <time>2026-08-28T17:52:50Z</time>
  <course>248.12</course>
  <speed>0.022360679774997897</speed>
  <fix>3d</fix>
</trkpt>
<trkpt lat="40.0713749" lon="-105.229789">
  <ele>1583.0</ele>
  <time>2026-08-28T17:52:50Z</time>
  <course>0.0</course>
  <speed>0.0</speed>
  <fix>3d</fix>
</trkpt>
<trkpt lat="40.0713749" lon="-105.229789">
  <ele>1583.0</ele>
  <time>2026-08-28T17:52:50Z</time>
  <course>248.12</course>
  <speed>0.022360679774997897</speed>
  <fix>3d</fix>
</trkpt>
<trkpt lat="40.0713749" lon="-105.229789">
  <ele>1583.0</ele>
  <time>2026-08-28T17:52:50Z</time>
  <course>0.0</course>
  <speed>0.0</speed>
  <fix>3d</fix>
</trkpt>
<trkpt lat="40.0713749" lon="-105.229789">
  <ele>1583.0</ele>
  <time>2026-08-28T17:52:50Z</time>
  <course>248.11</course>
  <speed>0.022360679774997897</speed>
  <fix>3d</fix>
</trkpt>
<trkpt lat="40.0713749" lon="-105.229789">
  <ele>1583.0</ele>
  <time>2026-08-28T17:52:50Z</time>
  <course>0.0</course>
  <speed>0.0</speed>
  <fix>3d</fix>
</trkpt>
<trkpt lat="40.0713749" lon="-105.229789">
  <ele>1583.0</ele>
  <time>2026-08-28T17:52:50Z</time>
  <course>248.11</course>
  <speed>0.022360679774997897</speed>
  <fix>3d</fix>
</trkpt>
<trkpt lat="40.0713749" lon="-105.229789">
  <ele>1583.0</ele>
  <time>2026-08-28T17:52:50Z</time>
  <course>0.0</course>
  <speed>0.0</speed>
  <fix>3d</fix>
</trkpt>
<trkpt lat="40.0713749" lon="-105.229789">
  <ele>1583.0</ele>
  <time>2026-08-28T17:52:50Z</time>
  <course>248.1</course>
  <speed>0.022360679774997897</speed>
  <fix>3d</fix>
</trkpt>
<trkpt lat="40.0713749" lon="-105.229789">
  <ele>1583.0</ele>
  <time>2026-08-28T17:52:50Z</time>
  <course>0.0</course>
  <speed>0.0</speed>
  <fix>3d</fix>
</trkpt>
<trkpt lat="40.0713749" lon="-105.229789">
  <ele>1583.0</ele>
  <time>2026-08-28T17:52:50Z</time>
  <course>248.1</course>
  <speed>0.022360679774997897</speed>
  <fix>3d</fix>
</trkpt>
<trkpt lat="40.0713749" lon="-105.229789">
  <ele>1583.0</ele>
  <time>2026-08-28T17:52:50Z</time>
  <course>0.0</course>
  <speed>0.0</speed>
  <fix>3d</fix>
</trkpt>
<trkpt lat="40.0713749" lon="-105.229789">
  <ele>1583.0</ele>
  <time>2026-08-28T17:52:50Z</time>
  <course>248.09</course>
  <speed>0.022360679774997897</speed>
  <fix>3d</fix>
</trkpt>
<trkpt lat="40.0713749" lon="-105.229789">
  <ele>1583.0</ele>
  <time>2026-08-28T17:52:50Z</time>
  <course>0.0</course>
  <speed>0.0</speed>
  <fix>3d</fix>
</trkpt>
<trkpt lat="40.0713749" lon="-105.229789">
  <ele>1583.0</ele>
  <time>2026-08-28T17:52:50Z</time>
  <course>248.09</course>
  <speed>0.022360679774997897</speed>
  <fix>3d</fix>
</trkpt>
<trkpt lat="40.0713749" lon="-105.229789">
  <ele>1583.0</ele>
  <time>2026-08-28T17:52:50Z</time>
  <course>0.0</course>
  <speed>0.0</speed>
  <fix>3d</fix>
</trkpt>
<trkpt lat="40.0713749" lon="-105.229789">
  <ele>1583.0</ele>
  <time>2026-08-28T17:52:50Z</time>
  <course>248.08</course>
  <speed>0.022360679774997897</speed>
  <fix>3d</fix>
</trkpt>
<trkpt lat="40.0713749" lon="-105.229789">
  <ele>1583.0</ele>
  <time>2026-08-28T17:52:50Z</time>
  <course>0.0</course>
  <speed>0.0</speed>
  <fix>3d</fix>
</trkpt>
<trkpt lat="40.0713749" lon="-105.229789">
  <ele>1583.0</ele>
  <time>2026-08-28T17:52:50Z</time>
  <course>248.08</course>
  <speed>0.022360679774997897</speed>
  <fix>3d</fix>
</trkpt>
<trkpt lat="40.0713749" lon="-105.229789">
  <ele>1583.0</ele>
  <time>2026-08-28T17:52:50Z</time>
  <course>0.0</course>
  <speed>0.0</speed>
  <fix>3d</fix>
</trkpt>
<trkpt lat="40.0713749" lon="-105.229789">
  <ele>1583.0</ele>
  <time>2026-08-28T17:52:50Z</time>
  <course>248.07</course>
  <speed>0.022360679774997897</speed>
  <fix>3d</fix>
</trkpt>
<trkpt lat="40.0713749" lon="-105.229789">
  <ele>1583.0</ele>
  <time>2026-08-28T17:52:50Z</time>
  <course>0.0</course>
  <speed>0.0</speed>
  <fix>3d</fix>
</trkpt>
<trkpt lat="40.0713749" lon="-105.229789">
  <ele>1583.0</ele>
  <time>2026-08-28T17:52:50Z</time>
  <course>248.07</course>
  <speed>0.022360679774997897</speed>
  <fix>3d</fix>
</trkpt>
<trkpt lat="40.0713749" lon="-105.229789">
  <ele>1583.0</ele>
  <time>2026-08-28T17:52:50Z</time>
  <course>0.0</course>
  <speed>0.0</speed>
  <fix>3d</fix>
</trkpt>
<trkpt lat="40.0713749" lon="-105.229789">
  <ele>1583.0</ele>
  <time>2026-08-28T17:52:50Z</time>
  <course>248.06</course>
  <speed>0.022360679774997897</speed>
  <fix>3d</fix>
</trkpt>
<trkpt lat="40.0713749" lon="-105.229789">
  <ele>1583.0</ele>
  <time>2026-08-28T17:52:50Z</time>
  <course>0.0</course>
  <speed>0.0</speed>
  <fix>3d</fix>
</trkpt>
<trkpt lat="40.0713749" lon="-105.229789">
  <ele>1583.0</ele>
  <time>2026-08-28T17:52:50Z</time>
  <course>248.06</course>
  <speed>0.022360679774997897</speed>
  <fix>3d</fix>
</trkpt>
<trkpt lat="40.0713749" lon="-105.229789">
  <ele>1583.0</ele>
  <time>2026-08-28T17:52:50Z</time>
  <course>0.0</course>
  <speed>0.0</speed>
  <fix>3d</fix>
</trkpt>
<trkpt lat="40.0713749" lon="-105.229789">
  <ele>1583.0</ele>
  <time>2026-08-28T17:52:50Z</time>
  <course>248.05</course>
  <speed>0.022360679774997897</speed>
  <fix>3d</fix>
</trkpt>
<trkpt lat="40.0713749" lon="-105.229789">
  <ele>1583.0</ele>
  <time>2026-08-28T17:52:50Z</time>
  <course>0.0</course>
  <speed>0.0</speed>
  <fix>3d</fix>
</trkpt>
<trkpt lat="40.0713749" lon="-105.229789">
  <ele>1583.0</ele>
  <time>2026-08-28T17:52:50Z</time>
  <course>248.05</course>
  <speed>0.022360679774997897</speed>
  <fix>3d</fix>
</trkpt>
<trkpt lat="40.0713749" lon="-105.229789">
  <ele>1583.0</ele>
  <time>2026-08-28T17:52:50Z</time>
  <course>0.0</course>
  <speed>0.0</speed>
  <fix>3d</fix>
</trkpt>
<trkpt lat="40.0713749" lon="-105.229789">
  <ele>1583.0</ele>
  <time>2026-08-28T17:52:50Z</time>
  <course>248.05</course>
  <speed>0.022360679774997897</speed>
  <fix>3d</fix>
</trkpt>
<trkpt lat="40.0713749" lon="-105.229789">
  <ele>1583.0</ele>
  <time>2026-08-28T17:52:50Z</time>
  <course>0.0</course>
  <speed>0.0</speed>
  <fix>3d</fix>
</trkpt>
<trkpt lat="40.0713749" lon="-105.229789">
  <ele>1583.0</ele>
  <time>2026-08-28T17:52:50Z</time>
  <course>248.04</course>
  <speed>0.022360679774997897</speed>
  <fix>3d</fix>
</trkpt>
<trkpt lat="40.0713749" lon="-105.229789">
  <ele>1583.0</ele>
  <time>2026-08-28T17:52:50Z</time>
  <course>0.0</course>
  <speed>0.0</speed>
  <fix>3d</fix>
</trkpt>
<trkpt lat="40.0713749" lon="-105.229789">
  <ele>1583.0</ele>
  <time>2026-08-28T17:52:50Z</time>
  <course>248.04</course>
  <speed>0.022360679774997897</speed>
  <fix>3d</fix>
</trkpt>
<trkpt lat="40.0713749" lon="-105.229789">
  <ele>1583.0</ele>
  <time>2026-08-28T17:52:50Z</time>
  <course>0.0</course>
  <speed>0.0</speed>
  <fix>3d</fix>
</trkpt>
<trkpt lat="40.0713749" lon="-105.229789">
  <ele>1583.0</ele>
  <time>2026-08-28T17:52:50Z</time>
  <course>248.03</course>
  <speed>0.022360679774997897</speed>
  <fix>3d</fix>
</trkpt>
<trkpt lat="40.0713749" lon="-105.229789">
  <ele>1583.0</ele>
  <time>2026-08-28T17:52:50Z</time>
  <course>0.0</course>
  <speed>0.0</speed>
  <fix>3d</fix>
</trkpt>
<trkpt lat="40.0713749" lon="-105.229789">
  <ele>1583.0</ele>
  <time>2026-08-28T17:52:50Z</time>
  <course>248.03</course>
  <speed>0.022360679774997897</speed>
  <fix>3d</fix>
</trkpt>
<trkpt lat="40.0713749" lon="-105.229789">
  <ele>1583.0</ele>
  <time>2026-08-28T17:52:50Z</time>
  <course>0.0</course>
  <speed>0.0</speed>
  <fix>3d</fix>
</trkpt>
<trkpt lat="40.0713749" lon="-105.229789">
  <ele>1583.0</ele>
  <time>2026-08-28T17:52:50Z</time>
  <course>248.02</course>
  <speed>0.022360679774997897</speed>
  <fix>3d</fix>
</trkpt>
<trkpt lat="40.0713749" lon="-105.229789">
  <ele>1583.0</ele>
  <time>2026-08-28T17:52:50Z</time>
  <course>0.0</course>
  <speed>0.0</speed>
  <fix>3d</fix>
</trkpt>
<trkpt lat="40.0713749" lon="-105.229789">
  <ele>1583.0</ele>
  <time>2026-08-28T17:52:50Z</time>
  <course>248.02</course>
  <speed>0.022360679774997897</speed>
  <fix>3d</fix>
</trkpt>
<trkpt lat="40.0713749" lon="-105.229789">
  <ele>1583.0</ele>
  <time>2026-08-28T17:52:50Z</time>
  <course>0.0</course>
  <speed>0.0</speed>
  <fix>3d</fix>
</trkpt>
<trkpt lat="40.0713749" lon="-105.229789">
  <ele>1583.0</ele>
  <time>2026-08-28T17:52:50Z</time>
  <course>248.01</course>
  <speed>0.022360679774997897</speed>
  <fix>3d</fix>
</trkpt>
<trkpt lat="40.0713749" lon="-105.229789">
  <ele>1583.0</ele>
  <time>2026-08-28T17:52:50Z</time>
  <course>0.0</course>
  <speed>0.0</speed>
  <fix>3d</fix>
</trkpt>
<trkpt lat="40.0713749" lon="-105.229789">
  <ele>1583.0</ele>
  <time>2026-08-28T17:52:50Z</time>
  <course>248.01</course>
  <speed>0.022360679774997897</speed>
  <fix>3d</fix>
</trkpt>
<trkpt lat="40.0713749" lon="-105.229789">
  <ele>1583.0</ele>
  <time>2026-08-28T17:52:50Z</time>
  <course>0.0</course>
  <speed>0.0</speed>
  <fix>3d</fix>
</trkpt>
<trkpt lat="40.0713749" lon="-105.229789">
  <ele>1583.0</ele>
  <time>2026-08-28T17:52:50Z</time>
  <course>248.0</course>
  <speed>0.022360679774997897</speed>
  <fix>3d</fix>
</trkpt>
<trkpt lat="40.0713749" lon="-105.229789">
  <ele>1583.0</ele>
  <time>2026-08-28T17:52:50Z</time>
  <course>0.0</course>
  <speed>0.0</speed>
  <fix>3d</fix>
</trkpt>
<trkpt lat="40.0713749" lon="-105.229789">
  <ele>1583.0</ele>
  <time>2026-08-28T17:52:50Z</time>
  <course>248.0</course>
  <speed>0.022360679774997897</speed>
  <fix>3d</fix>
</trkpt>
<trkpt lat="40.0713749" lon="-105.229789">
  <ele>1583.0</ele>
  <time>2026-08-28T17:52:50Z</time>
  <course>0.0</course>
  <speed>0.0</speed>
  <fix>3d</fix>
</trkpt>
<trkpt lat="40.0713749" lon="-105.229789">
  <ele>1583.0</ele>
  <time>2026-08-28T17:52:50Z</time>
  <course>247.99</course>
  <speed>0.022360679774997897</speed>
  <fix>3d</fix>
</trkpt>
<trkpt lat="40.0713749" lon="-105.229789">
  <ele>1583.0</ele>
  <time>2026-08-28T17:52:50Z</time>
  <course>0.0</course>
  <speed>0.0</speed>
  <fix>3d</fix>
</trkpt>
<trkpt lat="40.0713749" lon="-105.229789">
  <ele>1583.0</ele>
  <time>2026-08-28T17:52:50Z</time>
  <course>247.99</course>
  <speed>0.022360679774997897</speed>
  <fix>3d</fix>
</trkpt>
<trkpt lat="40.0713749" lon="-105.229789">
  <ele>1583.0</ele>
  <time>2026-08-28T17:52:50Z</time>
  <course>0.0</course>
  <speed>0.0</speed>
  <fix>3d</fix>
</trkpt>
<trkpt lat="40.0713749" lon="-105.229789">
  <ele>1583.0</ele>
  <time>2026-08-28T17:52:50Z</time>
  <course>247.99</course>
  <speed>0.022360679774997897</speed>
  <fix>3d</fix>
</trkpt>
<trkpt lat="40.0713749" lon="-105.229789">
  <ele>1583.0</ele>
  <time>2026-08-28T17:52:50Z</time>
  <course>0.0</course>
  <speed>0.0</speed>
  <fix>3d</fix>
</trkpt>
<trkpt lat="40.0713749" lon="-105.229789">
  <ele>1583.0</ele>
  <time>2026-08-28T17:52:50Z</time>
  <course>247.98</course>
  <speed>0.022360679774997897</speed>
  <fix>3d</fix>
</trkpt>
<trkpt lat="40.0713749" lon="-105.229789">
  <ele>1583.0</ele>
  <time>2026-08-28T17:52:50Z</time>
  <course>0.0</course>
  <speed>0.0</speed>
  <fix>3d</fix>
</trkpt>
<trkpt lat="40.0713749" lon="-105.229789">
  <ele>1583.0</ele>
  <time>2026-08-28T17:52:50Z</time>
  <course>247.98</course>
  <speed>0.022360679774997897</speed>
  <fix>3d</fix>
</trkpt>
<trkpt lat="40.0713749" lon="-105.229789">
  <ele>1583.0</ele>
  <time>2026-08-28T17:52:50Z</time>
  <course>0.0</course>
  <speed>0.0</speed>
  <fix>3d</fix>
</trkpt>
<trkpt lat="40.0713749" lon="-105.229789">
  <ele>1583.0</ele>
  <time>2026-08-28T17:52:50Z</time>
  <course>247.97</course>
  <speed>0.022360679774997897</speed>
  <fix>3d</fix>
</trkpt>
<trkpt lat="40.0713749" lon="-105.229789">
  <ele>1583.0</ele>
  <time>2026-08-28T17:52:50Z</time>
  <course>0.0</course>
  <speed>0.0</speed>
  <fix>3d</fix>
</trkpt>
<trkpt lat="40.0713749" lon="-105.229789">
  <ele>1583.0</ele>
  <time>2026-08-28T17:52:50Z</time>
  <course>247.97</course>
  <speed>0.022360679774997897</speed>
  <fix>3d</fix>
</trkpt>
<trkpt lat="40.0713749" lon="-105.229789">
  <ele>1583.0</ele>
  <time>2026-08-28T17:52:50Z</time>
  <course>0.0</course>
  <speed>0.0</speed>
  <fix>3d</fix>
</trkpt>
<trkpt lat="40.0713749" lon="-105.229789">
  <ele>1583.0</ele>
  <time>2026-08-28T17:52:50Z</time>
  <course>247.96</course>
  <speed>0.022360679774997897</speed>
  <fix>3d</fix>
</trkpt>
<trkpt lat="40.0713749" lon="-105.229789">
  <ele>1583.0</ele>
  <time>2026-08-28T17:52:50Z</time>
  <course>0.0</course>
  <speed>0.0</speed>
  <fix>3d</fix>
</trkpt>
<trkpt lat="40.0713749" lon="-105.229789">
  <ele>1583.0</ele>
  <time>2026-08-28T17:52:50Z</time>
  <course>247.96</course>
  <speed>0.022360679774997897</speed>
  <fix>3d</fix>
</trkpt>
<trkpt lat="40.0713749" lon="-105.229789">
  <ele>1583.0</ele>
  <time>2026-08-28T17:52:50Z</time>
  <course>0.0</course>
  <speed>0.0</speed>
  <fix>3d</fix>
</trkpt>
<trkpt lat="40.0713749" lon="-105.229789">
  <ele>1583.0</ele>
  <time>2026-08-28T17:52:50Z</time>
  <course>247.95</course>
  <speed>0.022360679774997897</speed>
  <fix>3d</fix>
</trkpt>
<trkpt lat="40.0713749" lon="-105.229789">
  <ele>1583.0</ele>
  <time>2026-08-28T17:52:50Z</time>
  <course>0.0</course>
  <speed>0.0</speed>
  <fix>3d</fix>
</trkpt>
<trkpt lat="40.0713749" lon="-105.229789">
  <ele>1583.0</ele>
  <time>2026-08-28T17:52:50Z</time>
  <course>247.95</course>
  <speed>0.022360679774997897</speed>
  <fix>3d</fix>
</trkpt>
<trkpt lat="40.0713749" lon="-105.229789">
  <ele>1583.0</ele>
  <time>2026-08-28T17:52:50Z</time>
  <course>0.0</course>
  <speed>0.0</speed>
  <fix>3d</fix>
</trkpt>
<trkpt lat="40.0713749" lon="-105.229789">
  <ele>1583.0</ele>
  <time>2026-08-28T17:52:50Z</time>
  <course>247.95</course>
  <speed>0.022360679774997897</speed>
  <fix>3d</fix>
</trkpt>
<trkpt lat="40.0713749" lon="-105.229789">
  <ele>1583.0</ele>
  <time>2026-08-28T17:52:50Z</time>
  <course>0.0</course>
  <speed>0.0</speed>
  <fix>3d</fix>
</trkpt>
<trkpt lat="40.0713749" lon="-105.229789">
  <ele>1583.0</ele>
  <time>2026-08-28T17:52:50Z</time>
  <course>247.94</course>
  <speed>0.022360679774997897</speed>
  <fix>3d</fix>
</trkpt>
<trkpt lat="40.0713749" lon="-105.229789">
  <ele>1583.0</ele>
  <time>2026-08-28T17:52:50Z</time>
  <course>0.0</course>
  <speed>0.0</speed>
  <fix>3d</fix>
</trkpt>
<trkpt lat="40.0713749" lon="-105.229789">
  <ele>1583.0</ele>
  <time>2026-08-28T17:52:50Z</time>
  <course>247.94</course>
  <speed>0.022360679774997897</speed>
  <fix>3d</fix>
</trkpt>
<trkpt lat="40.0713749" lon="-105.229789">
  <ele>1583.0</ele>
  <time>2026-08-28T17:52:50Z</time>
  <course>0.0</course>
  <speed>0.0</speed>
  <fix>3d</fix>
</trkpt>
<trkpt lat="40.0713749" lon="-105.229789">
  <ele>1583.0</ele>
  <time>2026-08-28T17:52:50Z</time>
  <course>247.93</course>
  <speed>0.022360679774997897</speed>
  <fix>3d</fix>
</trkpt>
<trkpt lat="40.0713749" lon="-105.229789">
  <ele>1583.0</ele>
  <time>2026-08-28T17:52:50Z</time>
  <course>0.0</course>
  <speed>0.0</speed>
  <fix>3d</fix>
</trkpt>
<trkpt lat="40.0713749" lon="-105.229789">
  <ele>1583.0</ele>
  <time>2026-08-28T17:52:50Z</time>
  <course>247.93</course>
  <speed>0.022360679774997897</speed>
  <fix>3d</fix>
</trkpt>
<trkpt lat="40.0713749" lon="-105.229789">
  <ele>1583.0</ele>
  <time>2026-08-28T17:52:50Z</time>
  <course>0.0</course>
  <speed>0.0</speed>
  <fix>3d</fix>
</trkpt>
<trkpt lat="40.0713749" lon="-105.229789">
  <ele>1583.0</ele>
  <time>2026-08-28T17:52:50Z</time>
  <course>247.92</course>
  <speed>0.022360679774997897</speed>
  <fix>3d</fix>
</trkpt>
<trkpt lat="40.0713749" lon="-105.229789">
  <ele>1583.0</ele>
  <time>2026-08-28T17:52:50Z</time>
  <course>0.0</course>
  <speed>0.0</speed>
  <fix>3d</fix>
</trkpt>
<trkpt lat="40.0713749" lon="-105.229789">
  <ele>1583.0</ele>
  <time>2026-08-28T17:52:50Z</time>
  <course>247.92</course>
  <speed>0.022360679774997897</speed>
  <fix>3d</fix>
</trkpt>
<trkpt lat="40.0713749" lon="-105.229789">
  <ele>1583.0</ele>
  <time>2026-08-28T17:52:50Z</time>
  <course>0.0</course>
  <speed>0.0</speed>
  <fix>3d</fix>
</trkpt>
<trkpt lat="40.0713749" lon="-105.229789">
  <ele>1583.0</ele>
  <time>2026-08-28T17:52:50Z</time>
  <course>247.92</course>
  <speed>0.022360679774997897</speed>
  <fix>3d</fix>
</trkpt>
<trkpt lat="40.0713749" lon="-105.229789">
  <ele>1583.0</ele>
  <time>2026-08-28T17:52:50Z</time>
  <course>0.0</course>
  <speed>0.0</speed>
  <fix>3d</fix>
</trkpt>
<trkpt lat="40.0713749" lon="-105.229789">
  <ele>1583.0</ele>
  <time>2026-08-28T17:52:50Z</time>
  <course>247.91</course>
  <speed>0.022360679774997897</speed>
  <fix>3d</fix>
</trkpt>
<trkpt lat="40.0713749" lon="-105.229789">
  <ele>1583.0</ele>
  <time>2026-08-28T17:52:50Z</time>
  <course>0.0</course>
  <speed>0.0</speed>
  <fix>3d</fix>
</trkpt>
<trkpt lat="40.0713749" lon="-105.229789">
  <ele>1583.0</ele>
  <time>2026-08-28T17:52:50Z</time>
  <course>247.91</course>
  <speed>0.022360679774997897</speed>
  <fix>3d</fix>
</trkpt>
<trkpt lat="40.0713749" lon="-105.229789">
  <ele>1583.0</ele>
  <time>2026-08-28T17:52:50Z</time>
  <course>0.0</course>
  <speed>0.0</speed>
  <fix>3d</fix>
</trkpt>
<trkpt lat="40.0713749" lon="-105.229789">
  <ele>1583.0</ele>
  <time>2026-08-28T17:52:50Z</time>
  <course>247.9</course>
  <speed>0.022360679774997897</speed>
  <fix>3d</fix>
</trkpt>
<trkpt lat="40.0713749" lon="-105.229789">
  <ele>1583.0</ele>
  <time>2026-08-28T17:52:50Z</time>
  <course>0.0</course>
  <speed>0.0</speed>
  <fix>3d</fix>
</trkpt>
<trkpt lat="40.0713749" lon="-105.229789">
  <ele>1583.0</ele>
  <time>2026-08-28T17:52:50Z</time>
  <course>247.9</course>
  <speed>0.022360679774997897</speed>
  <fix>3d</fix>
</trkpt>
<trkpt lat="40.0713749" lon="-105.229789">
  <ele>1583.0</ele>
  <time>2026-08-28T17:52:50Z</time>
  <course>0.0</course>
  <speed>0.0</speed>
  <fix>3d</fix>
</trkpt>
<trkpt lat="40.0713749" lon="-105.229789">
  <ele>1583.0</ele>
  <time>2026-08-28T17:52:50Z</time>
  <course>247.89</course>
  <speed>0.022360679774997897</speed>
  <fix>3d</fix>
</trkpt>
<trkpt lat="40.0713749" lon="-105.229789">
  <ele>1583.0</ele>
  <time>2026-08-28T17:52:50Z</time>
  <course>0.0</course>
  <speed>0.0</speed>
  <fix>3d</fix>
</trkpt>
<trkpt lat="40.0713749" lon="-105.229789">
  <ele>1583.0</ele>
  <time>2026-08-28T17:52:50Z</time>
  <course>247.89</course>
  <speed>0.022360679774997897</speed>
  <fix>3d</fix>
</trkpt>
<trkpt lat="40.0713749" lon="-105.229789">
  <ele>1583.0</ele>
  <time>2026-08-28T17:52:50Z</time>
  <course>0.0</course>
  <speed>0.0</speed>
  <fix>3d</fix>
</trkpt>
<trkpt lat="40.0713749" lon="-105.229789">
  <ele>1583.0</ele>
  <time>2026-08-28T17:52:50Z</time>
  <course>247.89</course>
  <speed>0.022360679774997897</speed>
  <fix>3d</fix>
</trkpt>
<trkpt lat="40.0713749" lon="-105.229789">
  <ele>1583.0</ele>
  <time>2026-08-28T17:52:50Z</time>
  <course>0.0</course>
  <speed>0.0</speed>
  <fix>3d</fix>
</trkpt>
<trkpt lat="40.0713749" lon="-105.229789">
  <ele>1583.0</ele>
  <time>2026-08-28T17:52:50Z</time>
  <course>247.88</course>
  <speed>0.0316227766016838</speed>
  <fix>3d</fix>
</trkpt>
<trkpt lat="40.0713749" lon="-105.229789">
  <ele>1583.0</ele>
  <time>2026-08-28T17:52:50Z</time>
  <course>0.0</course>
  <speed>0.0</speed>
  <fix>3d</fix>
</trkpt>
<trkpt lat="40.0713749" lon="-105.229789">
  <ele>1583.0</ele>
  <time>2026-08-28T17:52:50Z</time>
  <course>247.88</course>
  <speed>0.0316227766016838</speed>
  <fix>3d</fix>
</trkpt>
<trkpt lat="40.0713749" lon="-105.229789">
  <ele>1583.0</ele>
  <time>2026-08-28T17:52:50Z</time>
  <course>0.0</course>
  <speed>0.0</speed>
  <fix>3d</fix>
</trkpt>
<trkpt lat="40.0713749" lon="-105.229789">
  <ele>1583.0</ele>
  <time>2026-08-28T17:52:50Z</time>
  <course>247.87</course>
  <speed>0.0316227766016838</speed>
  <fix>3d</fix>
</trkpt>
<trkpt lat="40.0713749" lon="-105.229789">
  <ele>1583.0</ele>
  <time>2026-08-28T17:52:50Z</time>
  <course>0.0</course>
  <speed>0.0</speed>
  <fix>3d</fix>
</trkpt>
<trkpt lat="40.0713749" lon="-105.229789">
  <ele>1583.0</ele>
  <time>2026-08-28T17:52:50Z</time>
  <course>247.87</course>
  <speed>0.0316227766016838</speed>
  <fix>3d</fix>
</trkpt>
<trkpt lat="40.0713749" lon="-105.229789">
  <ele>1583.0</ele>
  <time>2026-08-28T17:52:50Z</time>
  <course>0.0</course>
  <speed>0.0</speed>
  <fix>3d</fix>
</trkpt>
<trkpt lat="40.0713749" lon="-105.229789">
  <ele>1583.0</ele>
  <time>2026-08-28T17:52:50Z</time>
  <course>247.87</course>
  <speed>0.0316227766016838</speed>
  <fix>3d</fix>
</trkpt>
<trkpt lat="40.0713749" lon="-105.229789">
  <ele>1583.0</ele>
  <time>2026-08-28T17:52:50Z</time>
  <course>0.0</course>
  <speed>0.0</speed>
  <fix>3d</fix>
</trkpt>
<trkpt lat="40.0713749" lon="-105.229789">
  <ele>1583.0</ele>
  <time>2026-08-28T17:52:50Z</time>
  <course>247.86</course>
  <speed>0.0316227766016838</speed>
  <fix>3d</fix>
</trkpt>
<trkpt lat="40.0713749" lon="-105.229789">
  <ele>1583.0</ele>
  <time>2026-08-28T17:52:50Z</time>
  <course>0.0</course>
  <speed>0.0</speed>
  <fix>3d</fix>
</trkpt>
<trkpt lat="40.0713749" lon="-105.229789">
  <ele>1583.0</ele>
  <time>2026-08-28T17:52:50Z</time>
  <course>247.86</course>
  <speed>0.0316227766016838</speed>
  <fix>3d</fix>
</trkpt>
<trkpt lat="40.0713749" lon="-105.229789">
  <ele>1583.0</ele>
  <time>2026-08-28T17:52:50Z</time>
  <course>0.0</course>
  <speed>0.0</speed>
  <fix>3d</fix>
</trkpt>
<trkpt lat="40.0713749" lon="-105.229789">
  <ele>1583.0</ele>
  <time>2026-08-28T17:52:50Z</time>
  <course>247.85</course>
  <speed>0.0316227766016838</speed>
  <fix>3d</fix>
</trkpt>
<trkpt lat="40.0713749" lon="-105.229789">
  <ele>1583.0</ele>
  <time>2026-08-28T17:52:50Z</time>
  <course>0.0</course>
  <speed>0.0</speed>
  <fix>3d</fix>
</trkpt>
<trkpt lat="40.0713749" lon="-105.229789">
  <ele>1583.0</ele>
  <time>2026-08-28T17:52:50Z</time>
  <course>247.85</course>
  <speed>0.0316227766016838</speed>
  <fix>3d</fix>
</trkpt>
<trkpt lat="40.0713749" lon="-105.229789">
  <ele>1583.0</ele>
  <time>2026-08-28T17:52:50Z</time>
  <course>0.0</course>
  <speed>0.0</speed>
  <fix>3d</fix>
</trkpt>
<trkpt lat="40.0713749" lon="-105.229789">
  <ele>1583.0</ele>
  <time>2026-08-28T17:52:50Z</time>
  <course>247.85</course>
  <speed>0.0316227766016838</speed>
  <fix>3d</fix>
</trkpt>
<trkpt lat="40.0713749" lon="-105.229789">
  <ele>1583.0</ele>
  <time>2026-08-28T17:52:50Z</time>
  <course>0.0</course>
  <speed>0.0</speed>
  <fix>3d</fix>
</trkpt>
<trkpt lat="40.0713749" lon="-105.229789">
  <ele>1583.0</ele>
  <time>2026-08-28T17:52:50Z</time>
  <course>247.84</course>
  <speed>0.0316227766016838</speed>
  <fix>3d</fix>
</trkpt>
<trkpt lat="40.0713749" lon="-105.229789">
  <ele>1583.0</ele>
  <time>2026-08-28T17:52:50Z</time>
  <course>0.0</course>
  <speed>0.0</speed>
  <fix>3d</fix>
</trkpt>
<trkpt lat="40.0713749" lon="-105.229789">
  <ele>1583.0</ele>
  <time>2026-08-28T17:52:50Z</time>
  <course>247.84</course>
  <speed>0.0316227766016838</speed>
  <fix>3d</fix>
</trkpt>
<trkpt lat="40.0713749" lon="-105.229789">
  <ele>1583.0</ele>
  <time>2026-08-28T17:52:50Z</time>
  <course>0.0</course>
  <speed>0.0</speed>
  <fix>3d</fix>
</trkpt>
<trkpt lat="40.0713749" lon="-105.229789">
  <ele>1583.0</ele>
  <time>2026-08-28T17:52:50Z</time>
  <course>247.83</course>
  <speed>0.0316227766016838</speed>
  <fix>3d</fix>
</trkpt>
<trkpt lat="40.0713749" lon="-105.229789">
  <ele>1583.0</ele>
  <time>2026-08-28T17:52:50Z</time>
  <course>0.0</course>
  <speed>0.0</speed>
  <fix>3d</fix>
</trkpt>
<trkpt lat="40.0713749" lon="-105.229789">
  <ele>1583.0</ele>
  <time>2026-08-28T17:52:50Z</time>
  <course>247.83</course>
  <speed>0.0316227766016838</speed>
  <fix>3d</fix>
</trkpt>
<trkpt lat="40.0713749" lon="-105.229789">
  <ele>1583.0</ele>
  <time>2026-08-28T17:52:50Z</time>
  <course>0.0</course>
  <speed>0.0</speed>
  <fix>3d</fix>
</trkpt>
<trkpt lat="40.0713749" lon="-105.229789">
  <ele>1583.0</ele>
  <time>2026-08-28T17:52:50Z</time>
  <course>247.83</course>
  <speed>0.0316227766016838</speed>
  <fix>3d</fix>
</trkpt>
<trkpt lat="40.0713749" lon="-105.229789">
  <ele>1583.0</ele>
  <time>2026-08-28T17:52:50Z</time>
  <course>0.0</course>
  <speed>0.0</speed>
  <fix>3d</fix>
</trkpt>
<trkpt lat="40.0713749" lon="-105.229789">
  <ele>1583.0</ele>
  <time>2026-08-28T17:52:50Z</time>
  <course>247.82</course>
  <speed>0.0316227766016838</speed>
  <fix>3d</fix>
</trkpt>
<trkpt lat="40.0713749" lon="-105.229789">
  <ele>1583.0</ele>
  <time>2026-08-28T17:52:50Z</time>
  <course>0.0</course>
  <speed>0.0</speed>
  <fix>3d</fix>
</trkpt>
<trkpt lat="40.0713749" lon="-105.229789">
  <ele>1583.0</ele>
  <time>2026-08-28T17:52:50Z</time>
  <course>247.82</course>
  <speed>0.0316227766016838</speed>
  <fix>3d</fix>
</trkpt>
<trkpt lat="40.0713749" lon="-105.229789">
  <ele>1583.0</ele>
  <time>2026-08-28T17:52:50Z</time>
  <course>0.0</course>
  <speed>0.0</speed>
  <fix>3d</fix>
</trkpt>
<trkpt lat="40.0713749" lon="-105.229789">
  <ele>1583.0</ele>
  <time>2026-08-28T17:52:50Z</time>
  <course>247.82</course>
  <speed>0.0316227766016838</speed>
  <fix>3d</fix>
</trkpt>
<trkpt lat="40.0713749" lon="-105.229789">
  <ele>1583.0</ele>
  <time>2026-08-28T17:52:50Z</time>
  <course>0.0</course>
  <speed>0.0</speed>
  <fix>3d</fix>
</trkpt>
<trkpt lat="40.0713749" lon="-105.229789">
  <ele>1583.0</ele>
  <time>2026-08-28T17:52:50Z</time>
  <course>247.81</course>
  <speed>0.0316227766016838</speed>
  <fix>3d</fix>
</trkpt>
<trkpt lat="40.0713749" lon="-105.229789">
  <ele>1583.0</ele>
  <time>2026-08-28T17:52:50Z</time>
  <course>0.0</course>
  <speed>0.0</speed>
  <fix>3d</fix>
</trkpt>
<trkpt lat="40.0713749" lon="-105.229789">
  <ele>1583.0</ele>
  <time>2026-08-28T17:52:50Z</time>
  <course>247.81</course>
  <speed>0.0316227766016838</speed>
  <fix>3d</fix>
</trkpt>
<trkpt lat="40.0713749" lon="-105.229789">
  <ele>1583.0</ele>
  <time>2026-08-28T17:52:50Z</time>
  <course>0.0</course>
  <speed>0.0</speed>
  <fix>3d</fix>
</trkpt>
<trkpt lat="40.0713749" lon="-105.229789">
  <ele>1583.0</ele>
  <time>2026-08-28T17:52:50Z</time>
  <course>247.8</course>
  <speed>0.0316227766016838</speed>
  <fix>3d</fix>
</trkpt>
<trkpt lat="40.0713749" lon="-105.229789">
  <ele>1583.0</ele>
  <time>2026-08-28T17:52:50Z</time>
  <course>0.0</course>
  <speed>0.0</speed>
  <fix>3d</fix>
</trkpt>
<trkpt lat="40.0713749" lon="-105.229789">
  <ele>1583.0</ele>
  <time>2026-08-28T17:52:50Z</time>
  <course>247.8</course>
  <speed>0.0316227766016838</speed>
  <fix>3d</fix>
</trkpt>
<trkpt lat="40.0713749" lon="-105.229789">
  <ele>1583.0</ele>
  <time>2026-08-28T17:52:50Z</time>
  <course>0.0</course>
  <speed>0.0</speed>
  <fix>3d</fix>
</trkpt>
<trkpt lat="40.0713749" lon="-105.229789">
  <ele>1583.0</ele>
  <time>2026-08-28T17:52:50Z</time>
  <course>247.8</course>
  <speed>0.0316227766016838</speed>
  <fix>3d</fix>
</trkpt>
<trkpt lat="40.0713749" lon="-105.229789">
  <ele>1583.0</ele>
  <time>2026-08-28T17:52:50Z</time>
  <course>0.0</course>
  <speed>0.0</speed>
  <fix>3d</fix>
</trkpt>
<trkpt lat="40.0713749" lon="-105.229789">
  <ele>1583.0</ele>
  <time>2026-08-28T17:52:50Z</time>
  <course>247.79</course>
  <speed>0.0316227766016838</speed>
  <fix>3d</fix>
</trkpt>
<trkpt lat="40.0713749" lon="-105.229789">
  <ele>1583.0</ele>
  <time>2026-08-28T17:52:50Z</time>
  <course>0.0</course>
  <speed>0.0</speed>
  <fix>3d</fix>
</trkpt>
<trkpt lat="40.0713749" lon="-105.229789">
  <ele>1583.0</ele>
  <time>2026-08-28T17:52:50Z</time>
  <course>247.79</course>
  <speed>0.0316227766016838</speed>
  <fix>3d</fix>
</trkpt>
<trkpt lat="40.0713749" lon="-105.229789">
  <ele>1583.0</ele>
  <time>2026-08-28T17:52:50Z</time>
  <course>0.0</course>
  <speed>0.0</speed>
  <fix>3d</fix>
</trkpt>
<trkpt lat="40.0713749" lon="-105.229789">
  <ele>1583.0</ele>
  <time>2026-08-28T17:52:50Z</time>
  <course>247.79</course>
  <speed>0.0316227766016838</speed>
  <fix>3d</fix>
</trkpt>
<trkpt lat="40.0713749" lon="-105.229789">
  <ele>1583.0</ele>
  <time>2026-08-28T17:52:50Z</time>
  <course>0.0</course>
  <speed>0.0</speed>
  <fix>3d</fix>
</trkpt>
<trkpt lat="40.0713749" lon="-105.229789">
  <ele>1583.0</ele>
  <time>2026-08-28T17:52:50Z</time>
  <course>247.78</course>
  <speed>0.0316227766016838</speed>
  <fix>3d</fix>
</trkpt>
<trkpt lat="40.0713749" lon="-105.229789">
  <ele>1583.0</ele>
  <time>2026-08-28T17:52:50Z</time>
  <course>0.0</course>
  <speed>0.0</speed>
  <fix>3d</fix>
</trkpt>
<trkpt lat="40.0713749" lon="-105.229789">
  <ele>1583.0</ele>
  <time>2026-08-28T17:52:50Z</time>
  <course>247.78</course>
  <speed>0.0316227766016838</speed>
  <fix>3d</fix>
</trkpt>
<trkpt lat="40.0713749" lon="-105.229789">
  <ele>1583.0</ele>
  <time>2026-08-28T17:52:50Z</time>
  <course>0.0</course>
  <speed>0.0</speed>
  <fix>3d</fix>
</trkpt>
<trkpt lat="40.0713749" lon="-105.229789">
  <ele>1583.0</ele>
  <time>2026-08-28T17:52:50Z</time>
  <course>247.78</course>
  <speed>0.0316227766016838</speed>
  <fix>3d</fix>
</trkpt>
<trkpt lat="40.0713749" lon="-105.229789">
  <ele>1583.0</ele>
  <time>2026-08-28T17:52:50Z</time>
  <course>0.0</course>
  <speed>0.0</speed>
  <fix>3d</fix>
</trkpt>
<trkpt lat="40.0713749" lon="-105.229789">
  <ele>1583.0</ele>
  <time>2026-08-28T17:52:50Z</time>
  <course>247.77</course>
  <speed>0.0316227766016838</speed>
  <fix>3d</fix>
</trkpt>
<trkpt lat="40.0713749" lon="-105.229789">
  <ele>1583.0</ele>
  <time>2026-08-28T17:52:50Z</time>
  <course>0.0</course>
  <speed>0.0</speed>
  <fix>3d</fix>
</trkpt>
<trkpt lat="40.0713749" lon="-105.229789">
  <ele>1583.0</ele>
  <time>2026-08-28T17:52:50Z</time>
  <course>247.77</course>
  <speed>0.0316227766016838</speed>
  <fix>3d</fix>
</trkpt>
<trkpt lat="40.0713749" lon="-105.229789">
  <ele>1583.0</ele>
  <time>2026-08-28T17:52:50Z</time>
  <course>0.0</course>
  <speed>0.0</speed>
  <fix>3d</fix>
</trkpt>
<trkpt lat="40.0713749" lon="-105.229789">
  <ele>1583.0</ele>
  <time>2026-08-28T17:52:50Z</time>
  <course>247.76</course>
  <speed>0.0316227766016838</speed>
  <fix>3d</fix>
</trkpt>
<trkpt lat="40.0713749" lon="-105.229789">
  <ele>1583.0</ele>
  <time>2026-08-28T17:52:50Z</time>
  <course>0.0</course>
  <speed>0.0</speed>
  <fix>3d</fix>
</trkpt>
<trkpt lat="40.0713749" lon="-105.229789">
  <ele>1583.0</ele>
  <time>2026-08-28T17:52:50Z</time>
  <course>247.76</course>
  <speed>0.0316227766016838</speed>
  <fix>3d</fix>
</trkpt>
<trkpt lat="40.0713749" lon="-105.229789">
  <ele>1583.0</ele>
  <time>2026-08-28T17:52:50Z</time>
  <course>0.0</course>
  <speed>0.0</speed>
  <fix>3d</fix>
</trkpt>
<trkpt lat="40.0713749" lon="-105.229789">
  <ele>1583.0</ele>
  <time>2026-08-28T17:52:50Z</time>
  <course>247.76</course>
  <speed>0.0316227766016838</speed>
  <fix>3d</fix>
</trkpt>
<trkpt lat="40.0713749" lon="-105.229789">
  <ele>1583.0</ele>
  <time>2026-08-28T17:52:50Z</time>
  <course>0.0</course>
  <speed>0.0</speed>
  <fix>3d</fix>
</trkpt>
<trkpt lat="40.0713749" lon="-105.229789">
  <ele>1583.0</ele>
  <time>2026-08-28T17:52:50Z</time>
  <course>247.75</course>
  <speed>0.0316227766016838</speed>
  <fix>3d</fix>
</trkpt>
<trkpt lat="40.0713749" lon="-105.229789">
  <ele>1583.0</ele>
  <time>2026-08-28T17:52:50Z</time>
  <course>0.0</course>
  <speed>0.0</speed>
  <fix>3d</fix>
</trkpt>
<trkpt lat="40.0713749" lon="-105.229789">
  <ele>1583.0</ele>
  <time>2026-08-28T17:52:50Z</time>
  <course>247.75</course>
  <speed>0.0316227766016838</speed>
  <fix>3d</fix>
</trkpt>
<trkpt lat="40.0713749" lon="-105.229789">
  <ele>1583.0</ele>
  <time>2026-08-28T17:52:50Z</time>
  <course>0.0</course>
  <speed>0.0</speed>
  <fix>3d</fix>
</trkpt>
<trkpt lat="40.0713749" lon="-105.229789">
  <ele>1583.0</ele>
  <time>2026-08-28T17:52:50Z</time>
  <course>247.75</course>
  <speed>0.0316227766016838</speed>
  <fix>3d</fix>
</trkpt>
<trkpt lat="40.0713749" lon="-105.229789">
  <ele>1583.0</ele>
  <time>2026-08-28T17:52:50Z</time>
  <course>0.0</course>
  <speed>0.0</speed>
  <fix>3d</fix>
</trkpt>
<trkpt lat="40.0713749" lon="-105.229789">
  <ele>1583.0</ele>
  <time>2026-08-28T17:52:50Z</time>
  <course>247.74</course>
  <speed>0.0316227766016838</speed>
  <fix>3d</fix>
</trkpt>
<trkpt lat="40.0713749" lon="-105.229789">
  <ele>1583.0</ele>
  <time>2026-08-28T17:52:50Z</time>
  <course>0.0</course>
  <speed>0.0</speed>
  <fix>3d</fix>
</trkpt>
<trkpt lat="40.0713749" lon="-105.229789">
  <ele>1583.0</ele>
  <time>2026-08-28T17:52:50Z</time>
  <course>247.74</course>
  <speed>0.0316227766016838</speed>
  <fix>3d</fix>
</trkpt>
<trkpt lat="40.0713749" lon="-105.229789">
  <ele>1583.0</ele>
  <time>2026-08-28T17:52:50Z</time>
  <course>0.0</course>
  <speed>0.0</speed>
  <fix>3d</fix>
</trkpt>
<trkpt lat="40.0713749" lon="-105.229789">
  <ele>1583.0</ele>
  <time>2026-08-28T17:52:50Z</time>
  <course>247.74</course>
  <speed>0.0316227766016838</speed>
  <fix>3d</fix>
</trkpt>
<trkpt lat="40.0713749" lon="-105.229789">
  <ele>1583.0</ele>
  <time>2026-08-28T17:52:50Z</time>
  <course>0.0</course>
  <speed>0.0</speed>
  <fix>3d</fix>
</trkpt>
<trkpt lat="40.0713749" lon="-105.229789">
  <ele>1583.0</ele>
  <time>2026-08-28T17:52:50Z</time>
  <course>247.73</course>
  <speed>0.0316227766016838</speed>
  <fix>3d</fix>
</trkpt>
<trkpt lat="40.0713749" lon="-105.229789">
  <ele>1583.0</ele>
  <time>2026-08-28T17:52:50Z</time>
  <course>0.0</course>
  <speed>0.0</speed>
  <fix>3d</fix>
</trkpt>
<trkpt lat="40.0713749" lon="-105.229789">
  <ele>1583.0</ele>
  <time>2026-08-28T17:52:50Z</time>
  <course>247.73</course>
  <speed>0.0316227766016838</speed>
  <fix>3d</fix>
</trkpt>
<trkpt lat="40.0713749" lon="-105.229789">
  <ele>1583.0</ele>
  <time>2026-08-28T17:52:50Z</time>
  <course>0.0</course>
  <speed>0.0</speed>
  <fix>3d</fix>
</trkpt>
<trkpt lat="40.0713749" lon="-105.229789">
  <ele>1583.0</ele>
  <time>2026-08-28T17:52:50Z</time>
  <course>247.73</course>
  <speed>0.0316227766016838</speed>
  <fix>3d</fix>
</trkpt>
<trkpt lat="40.0713749" lon="-105.229789">
  <ele>1583.0</ele>
  <time>2026-08-28T17:52:50Z</time>
  <course>0.0</course>
  <speed>0.0</speed>
  <fix>3d</fix>
</trkpt>
<trkpt lat="40.0713749" lon="-105.229789">
  <ele>1583.0</ele>
  <time>2026-08-28T17:52:50Z</time>
  <course>247.72</course>
  <speed>0.0316227766016838</speed>
  <fix>3d</fix>
</trkpt>
<trkpt lat="40.0713749" lon="-105.229789">
  <ele>1583.0</ele>
  <time>2026-08-28T17:52:50Z</time>
  <course>0.0</course>
  <speed>0.0</speed>
  <fix>3d</fix>
</trkpt>
<trkpt lat="40.0713749" lon="-105.229789">
  <ele>1583.0</ele>
  <time>2026-08-28T17:52:50Z</time>
  <course>247.72</course>
  <speed>0.0316227766016838</speed>
  <fix>3d</fix>
</trkpt>
<trkpt lat="40.0713749" lon="-105.229789">
  <ele>1583.0</ele>
  <time>2026-08-28T17:52:50Z</time>
  <course>0.0</course>
  <speed>0.0</speed>
  <fix>3d</fix>
</trkpt>
<trkpt lat="40.0713749" lon="-105.229789">
  <ele>1583.0</ele>
  <time>2026-08-28T17:52:50Z</time>
  <course>247.72</course>
  <speed>0.0316227766016838</speed>
  <fix>3d</fix>
</trkpt>
<trkpt lat="40.0713749" lon="-105.229789">
  <ele>1583.0</ele>
  <time>2026-08-28T17:52:50Z</time>
  <course>0.0</course>
  <speed>0.0</speed>
  <fix>3d</fix>
</trkpt>
<trkpt lat="40.0713749" lon="-105.229789">
  <ele>1583.0</ele>
  <time>2026-08-28T17:52:50Z</time>
  <course>247.71</course>
  <speed>0.0316227766016838</speed>
  <fix>3d</fix>
</trkpt>
<trkpt lat="40.0713749" lon="-105.229789">
  <ele>1583.0</ele>
  <time>2026-08-28T17:52:50Z</time>
  <course>0.0</course>
  <speed>0.0</speed>
  <fix>3d</fix>
</trkpt>
<trkpt lat="40.0713749" lon="-105.229789">
  <ele>1583.0</ele>
  <time>2026-08-28T17:52:50Z</time>
  <course>247.71</course>
  <speed>0.0316227766016838</speed>
  <fix>3d</fix>
</trkpt>
<trkpt lat="40.0713749" lon="-105.229789">
  <ele>1583.0</ele>
  <time>2026-08-28T17:52:50Z</time>
  <course>0.0</course>
  <speed>0.0</speed>
  <fix>3d</fix>
</trkpt>
<trkpt lat="40.0713749" lon="-105.229789">
  <ele>1583.0</ele>
  <time>2026-08-28T17:52:50Z</time>
  <course>247.71</course>
  <speed>0.0316227766016838</speed>
  <fix>3d</fix>
</trkpt>
<trkpt lat="40.0713749" lon="-105.229789">
  <ele>1583.0</ele>
  <time>2026-08-28T17:52:50Z</time>
  <course>0.0</course>
  <speed>0.0</speed>
  <fix>3d</fix>
</trkpt>
<trkpt lat="40.0713749" lon="-105.229789">
  <ele>1583.0</ele>
  <time>2026-08-28T17:52:50Z</time>
  <course>247.7</course>
  <speed>0.0316227766016838</speed>
  <fix>3d</fix>
</trkpt>
<trkpt lat="40.0713749" lon="-105.229789">
  <ele>1583.0</ele>
  <time>2026-08-28T17:52:50Z</time>
  <course>0.0</course>
  <speed>0.0</speed>
  <fix>3d</fix>
</trkpt>
<trkpt lat="40.0713749" lon="-105.229789">
  <ele>1583.0</ele>
  <time>2026-08-28T17:52:50Z</time>
  <course>247.7</course>
  <speed>0.0316227766016838</speed>
  <fix>3d</fix>
</trkpt>
<trkpt lat="40.0713749" lon="-105.229789">
  <ele>1583.0</ele>
  <time>2026-08-28T17:52:50Z</time>
  <course>0.0</course>
  <speed>0.0</speed>
  <fix>3d</fix>
</trkpt>
<trkpt lat="40.0713749" lon="-105.229789">
  <ele>1583.0</ele>
  <time>2026-08-28T17:52:50Z</time>
  <course>247.7</course>
  <speed>0.0316227766016838</speed>
  <fix>3d</fix>
</trkpt>
<trkpt lat="40.0713749" lon="-105.229789">
  <ele>1583.0</ele>
  <time>2026-08-28T17:52:50Z</time>
  <course>0.0</course>
  <speed>0.0</speed>
  <fix>3d</fix>
</trkpt>
<trkpt lat="40.0713749" lon="-105.229789">
  <ele>1583.0</ele>
  <time>2026-08-28T17:52:50Z</time>
  <course>247.69</course>
  <speed>0.0316227766016838</speed>
  <fix>3d</fix>
</trkpt>
<trkpt lat="40.0713749" lon="-105.229789">
  <ele>1583.0</ele>
  <time>2026-08-28T17:52:50Z</time>
  <course>0.0</course>
  <speed>0.0</speed>
  <fix>3d</fix>
</trkpt>
<trkpt lat="40.0713749" lon="-105.229789">
  <ele>1583.0</ele>
  <time>2026-08-28T17:52:50Z</time>
  <course>247.69</course>
  <speed>0.0316227766016838</speed>
  <fix>3d</fix>
</trkpt>
<trkpt lat="40.0713749" lon="-105.229789">
  <ele>1583.0</ele>
  <time>2026-08-28T17:52:50Z</time>
  <course>0.0</course>
  <speed>0.0</speed>
  <fix>3d</fix>
</trkpt>
<trkpt lat="40.0713749" lon="-105.229789">
  <ele>1583.0</ele>
  <time>2026-08-28T17:52:50Z</time>
  <course>247.69</course>
  <speed>0.0316227766016838</speed>
  <fix>3d</fix>
</trkpt>
<trkpt lat="40.0713749" lon="-105.229789">
  <ele>1583.0</ele>
  <time>2026-08-28T17:52:50Z</time>
  <course>0.0</course>
  <speed>0.0</speed>
  <fix>3d</fix>
</trkpt>
<trkpt lat="40.0713749" lon="-105.229789">
  <ele>1583.0</ele>
  <time>2026-08-28T17:52:50Z</time>
  <course>247.68</course>
  <speed>0.0316227766016838</speed>
  <fix>3d</fix>
</trkpt>
<trkpt lat="40.0713749" lon="-105.229789">
  <ele>1583.0</ele>
  <time>2026-08-28T17:52:50Z</time>
  <course>0.0</course>
  <speed>0.0</speed>
  <fix>3d</fix>
</trkpt>
<trkpt lat="40.0713749" lon="-105.229789">
  <ele>1583.0</ele>
  <time>2026-08-28T17:52:50Z</time>
  <course>247.68</course>
  <speed>0.0316227766016838</speed>
  <fix>3d</fix>
</trkpt>
<trkpt lat="40.0713749" lon="-105.229789">
  <ele>1583.0</ele>
  <time>2026-08-28T17:52:50Z</time>
  <course>0.0</course>
  <speed>0.0</speed>
  <fix>3d</fix>
</trkpt>
<trkpt lat="40.0713749" lon="-105.229789">
  <ele>1583.0</ele>
  <time>2026-08-28T17:52:50Z</time>
  <course>247.68</course>
  <speed>0.0316227766016838</speed>
  <fix>3d</fix>
</trkpt>
<trkpt lat="40.0713749" lon="-105.229789">
  <ele>1583.0</ele>
  <time>2026-08-28T17:52:50Z</time>
  <course>0.0</course>
  <speed>0.0</speed>
  <fix>3d</fix>
</trkpt>
<trkpt lat="40.0713749" lon="-105.229789">
  <ele>1583.0</ele>
  <time>2026-08-28T17:52:50Z</time>
  <course>247.67</course>
  <speed>0.0316227766016838</speed>
  <fix>3d</fix>
</trkpt>
<trkpt lat="40.0713749" lon="-105.229789">
  <ele>1583.0</ele>
  <time>2026-08-28T17:52:50Z</time>
  <course>0.0</course>
  <speed>0.0</speed>
  <fix>3d</fix>
</trkpt>
<trkpt lat="40.0713749" lon="-105.229789">
  <ele>1583.0</ele>
  <time>2026-08-28T17:52:50Z</time>
  <course>247.67</course>
  <speed>0.0316227766016838</speed>
  <fix>3d</fix>
</trkpt>
<trkpt lat="40.0713749" lon="-105.229789">
  <ele>1583.0</ele>
  <time>2026-08-28T17:52:50Z</time>
  <course>0.0</course>
  <speed>0.0</speed>
  <fix>3d</fix>
</trkpt>
<trkpt lat="40.0713749" lon="-105.229789">
  <ele>1583.0</ele>
  <time>2026-08-28T17:52:50Z</time>
  <course>247.67</course>
  <speed>0.0316227766016838</speed>
  <fix>3d</fix>
</trkpt>
<trkpt lat="40.0713749" lon="-105.229789">
  <ele>1583.0</ele>
  <time>2026-08-28T17:52:50Z</time>
  <course>0.0</course>
  <speed>0.0</speed>
  <fix>3d</fix>
</trkpt>
<trkpt lat="40.0713749" lon="-105.229789">
  <ele>1583.0</ele>
  <time>2026-08-28T17:52:50Z</time>
  <course>247.66</course>
  <speed>0.0316227766016838</speed>
  <fix>3d</fix>
</trkpt>
<trkpt lat="40.0713749" lon="-105.229789">
  <ele>1583.0</ele>
  <time>2026-08-28T17:52:50Z</time>
  <course>0.0</course>
  <speed>0.0</speed>
  <fix>3d</fix>
</trkpt>
<trkpt lat="40.0713749" lon="-105.229789">
  <ele>1583.0</ele>
  <time>2026-08-28T17:52:50Z</time>
  <course>247.66</course>
  <speed>0.0316227766016838</speed>
  <fix>3d</fix>
</trkpt>
<trkpt lat="40.0713749" lon="-105.229789">
  <ele>1583.0</ele>
  <time>2026-08-28T17:52:50Z</time>
  <course>0.0</course>
  <speed>0.0</speed>
  <fix>3d</fix>
</trkpt>
<trkpt lat="40.0713749" lon="-105.229789">
  <ele>1583.0</ele>
  <time>2026-08-28T17:52:50Z</time>
  <course>247.66</course>
  <speed>0.0316227766016838</speed>
  <fix>3d</fix>
</trkpt>
<trkpt lat="40.0713749" lon="-105.229789">
  <ele>1583.0</ele>
  <time>2026-08-28T17:52:50Z</time>
  <course>0.0</course>
  <speed>0.0</speed>
  <fix>3d</fix>
</trkpt>
<trkpt lat="40.0713749" lon="-105.229789">
  <ele>1583.0</ele>
  <time>2026-08-28T17:52:50Z</time>
  <course>247.65</course>
  <speed>0.0316227766016838</speed>
  <fix>3d</fix>
</trkpt>
<trkpt lat="40.0713749" lon="-105.229789">
  <ele>1583.0</ele>
  <time>2026-08-28T17:52:50Z</time>
  <course>0.0</course>
  <speed>0.0</speed>
  <fix>3d</fix>
</trkpt>
<trkpt lat="40.0713749" lon="-105.229789">
  <ele>1583.0</ele>
  <time>2026-08-28T17:52:50Z</time>
  <course>247.65</course>
  <speed>0.0316227766016838</speed>
  <fix>3d</fix>
</trkpt>
<trkpt lat="40.0713749" lon="-105.229789">
  <ele>1583.0</ele>
  <time>2026-08-28T17:52:50Z</time>
  <course>0.0</course>
  <speed>0.0</speed>
  <fix>3d</fix>
</trkpt>
<trkpt lat="40.0713749" lon="-105.229789">
  <ele>1583.0</ele>
  <time>2026-08-28T17:52:50Z</time>
  <course>247.65</course>
  <speed>0.0316227766016838</speed>
  <fix>3d</fix>
</trkpt>
<trkpt lat="40.0713749" lon="-105.229789">
  <ele>1583.0</ele>
  <time>2026-08-28T17:52:50Z</time>
  <course>0.0</course>
  <speed>0.0</speed>
  <fix>3d</fix>
</trkpt>
<trkpt lat="40.0713749" lon="-105.229789">
  <ele>1583.0</ele>
  <time>2026-08-28T17:52:50Z</time>
  <course>247.64</course>
  <speed>0.0316227766016838</speed>
  <fix>3d</fix>
</trkpt>
<trkpt lat="40.0713749" lon="-105.229789">
  <ele>1583.0</ele>
  <time>2026-08-28T17:52:50Z</time>
  <course>0.0</course>
  <speed>0.0</speed>
  <fix>3d</fix>
</trkpt>
<trkpt lat="40.0713749" lon="-105.229789">
  <ele>1583.0</ele>
  <time>2026-08-28T17:52:50Z</time>
  <course>247.64</course>
  <speed>0.0316227766016838</speed>
  <fix>3d</fix>
</trkpt>
<trkpt lat="40.0713749" lon="-105.229789">
  <ele>1583.0</ele>
  <time>2026-08-28T17:52:50Z</time>
  <course>0.0</course>
  <speed>0.0</speed>
  <fix>3d</fix>
</trkpt>
<trkpt lat="40.0713749" lon="-105.229789">
  <ele>1583.0</ele>
  <time>2026-08-28T17:52:50Z</time>
  <course>247.64</course>
  <speed>0.0316227766016838</speed>
  <fix>3d</fix>
</trkpt>
<trkpt lat="40.0713749" lon="-105.229789">
  <ele>1583.0</ele>
  <time>2026-08-28T17:52:50Z</time>
  <course>0.0</course>
  <speed>0.0</speed>
  <fix>3d</fix>
</trkpt>
<trkpt lat="40.0713749" lon="-105.229789">
  <ele>1583.0</ele>
  <time>2026-08-28T17:52:50Z</time>
  <course>247.64</course>
  <speed>0.0316227766016838</speed>
  <fix>3d</fix>
</trkpt>
<trkpt lat="40.0713749" lon="-105.229789">
  <ele>1583.0</ele>
  <time>2026-08-28T17:52:50Z</time>
  <course>0.0</course>
  <speed>0.0</speed>
  <fix>3d</fix>
</trkpt>
<trkpt lat="40.0713749" lon="-105.229789">
  <ele>1583.0</ele>
  <time>2026-08-28T17:52:50Z</time>
  <course>247.63</course>
  <speed>0.0316227766016838</speed>
  <fix>3d</fix>
</trkpt>
<trkpt lat="40.0713749" lon="-105.229789">
  <ele>1583.0</ele>
  <time>2026-08-28T17:52:50Z</time>
  <course>0.0</course>
  <speed>0.0</speed>
  <fix>3d</fix>
</trkpt>
<trkpt lat="40.0713749" lon="-105.229789">
  <ele>1583.0</ele>
  <time>2026-08-28T17:52:50Z</time>
  <course>247.63</course>
  <speed>0.0316227766016838</speed>
  <fix>3d</fix>
</trkpt>
<trkpt lat="40.0713749" lon="-105.229789">
  <ele>1583.0</ele>
  <time>2026-08-28T17:52:50Z</time>
  <course>0.0</course>
  <speed>0.0</speed>
  <fix>3d</fix>
</trkpt>
<trkpt lat="40.0713749" lon="-105.229789">
  <ele>1583.0</ele>
  <time>2026-08-28T17:52:50Z</time>
  <course>247.63</course>
  <speed>0.0316227766016838</speed>
  <fix>3d</fix>
</trkpt>
<trkpt lat="40.0713749" lon="-105.229789">
  <ele>1583.0</ele>
  <time>2026-08-28T17:52:50Z</time>
  <course>0.0</course>
  <speed>0.0</speed>
  <fix>3d</fix>
</trkpt>
<trkpt lat="40.0713749" lon="-105.229789">
  <ele>1583.0</ele>
  <time>2026-08-28T17:52:50Z</time>
  <course>247.62</course>
  <speed>0.0316227766016838</speed>
  <fix>3d</fix>
</trkpt>
<trkpt lat="40.0713749" lon="-105.229789">
  <ele>1583.0</ele>
  <time>2026-08-28T17:52:50Z</time>
  <course>0.0</course>
  <speed>0.0</speed>
  <fix>3d</fix>
</trkpt>
<trkpt lat="40.0713749" lon="-105.229789">
  <ele>1583.0</ele>
  <time>2026-08-28T17:52:50Z</time>
  <course>247.62</course>
  <speed>0.0316227766016838</speed>
  <fix>3d</fix>
</trkpt>
<trkpt lat="40.0713749" lon="-105.229789">
  <ele>1583.0</ele>
  <time>2026-08-28T17:52:50Z</time>
  <course>0.0</course>
  <speed>0.0</speed>
  <fix>3d</fix>
</trkpt>
<trkpt lat="40.0713749" lon="-105.229789">
  <ele>1583.0</ele>
  <time>2026-08-28T17:52:50Z</time>
  <course>247.62</course>
  <speed>0.0316227766016838</speed>
  <fix>3d</fix>
</trkpt>
<trkpt lat="40.0713749" lon="-105.229789">
  <ele>1583.0</ele>
  <time>2026-08-28T17:52:50Z</time>
  <course>0.0</course>
  <speed>0.0</speed>
  <fix>3d</fix>
</trkpt>
<trkpt lat="40.0713749" lon="-105.229789">
  <ele>1583.0</ele>
  <time>2026-08-28T17:52:50Z</time>
  <course>247.62</course>
  <speed>0.0316227766016838</speed>
  <fix>3d</fix>
</trkpt>
<trkpt lat="40.0713749" lon="-105.229789">
  <ele>1583.0</ele>
  <time>2026-08-28T17:52:50Z</time>
  <course>0.0</course>
  <speed>0.0</speed>
  <fix>3d</fix>
</trkpt>
<trkpt lat="40.0713749" lon="-105.229789">
  <ele>1583.0</ele>
  <time>2026-08-28T17:52:50Z</time>
  <course>247.61</course>
  <speed>0.0316227766016838</speed>
  <fix>3d</fix>
</trkpt>
<trkpt lat="40.0713749" lon="-105.229789">
  <ele>1583.0</ele>
  <time>2026-08-28T17:52:50Z</time>
  <course>0.0</course>
  <speed>0.0</speed>
  <fix>3d</fix>
</trkpt>
<trkpt lat="40.0713749" lon="-105.229789">
  <ele>1583.0</ele>
  <time>2026-08-28T17:52:50Z</time>
  <course>247.61</course>
  <speed>0.0316227766016838</speed>
  <fix>3d</fix>
</trkpt>
<trkpt lat="40.0713749" lon="-105.229789">
  <ele>1583.0</ele>
  <time>2026-08-28T17:52:50Z</time>
  <course>0.0</course>
  <speed>0.0</speed>
  <fix>3d</fix>
</trkpt>
<trkpt lat="40.0713749" lon="-105.229789">
  <ele>1583.0</ele>
  <time>2026-08-28T17:52:50Z</time>
  <course>247.61</course>
  <speed>0.0316227766016838</speed>
  <fix>3d</fix>
</trkpt>
<trkpt lat="40.0713749" lon="-105.229789">
  <ele>1583.0</ele>
  <time>2026-08-28T17:52:50Z</time>
  <course>0.0</course>
  <speed>0.0</speed>
  <fix>3d</fix>
</trkpt>
<trkpt lat="40.0713749" lon="-105.229789">
  <ele>1583.0</ele>
  <time>2026-08-28T17:52:50Z</time>
  <course>247.6</course>
  <speed>0.0316227766016838</speed>
  <fix>3d</fix>
</trkpt>
<trkpt lat="40.0713749" lon="-105.229789">
  <ele>1583.0</ele>
  <time>2026-08-28T17:52:50Z</time>
  <course>0.0</course>
  <speed>0.0</speed>
  <fix>3d</fix>
</trkpt>
<trkpt lat="40.0713749" lon="-105.229789">
  <ele>1583.0</ele>
  <time>2026-08-28T17:52:50Z</time>
  <course>247.6</course>
  <speed>0.0316227766016838</speed>
  <fix>3d</fix>
</trkpt>
<trkpt lat="40.0713749" lon="-105.229789">
  <ele>1583.0</ele>
  <time>2026-08-28T17:52:50Z</time>
  <course>0.0</course>
  <speed>0.0</speed>
  <fix>3d</fix>
</trkpt>
<trkpt lat="40.0713749" lon="-105.229789">
  <ele>1583.0</ele>
  <time>2026-08-28T17:52:50Z</time>
  <course>247.6</course>
  <speed>0.0316227766016838</speed>
  <fix>3d</fix>
</trkpt>
<trkpt lat="40.0713749" lon="-105.229789">
  <ele>1583.0</ele>
  <time>2026-08-28T17:52:50Z</time>
  <course>0.0</course>
  <speed>0.0</speed>
  <fix>3d</fix>
</trkpt>
<trkpt lat="40.0713749" lon="-105.229789">
  <ele>1583.0</ele>
  <time>2026-08-28T17:52:50Z</time>
  <course>247.6</course>
  <speed>0.0316227766016838</speed>
  <fix>3d</fix>
</trkpt>
<trkpt lat="40.0713749" lon="-105.229789">
  <ele>1583.0</ele>
  <time>2026-08-28T17:52:50Z</time>
  <course>0.0</course>
  <speed>0.0</speed>
  <fix>3d</fix>
</trkpt>
<trkpt lat="40.0713749" lon="-105.229789">
  <ele>1583.0</ele>
  <time>2026-08-28T17:52:50Z</time>
  <course>247.59</course>
  <speed>0.0316227766016838</speed>
  <fix>3d</fix>
</trkpt>
<trkpt lat="40.0713749" lon="-105.229789">
  <ele>1583.0</ele>
  <time>2026-08-28T17:52:50Z</time>
  <course>0.0</course>
  <speed>0.0</speed>
  <fix>3d</fix>
</trkpt>
<trkpt lat="40.0713749" lon="-105.229789">
  <ele>1582.92</ele>
  <time>2026-08-28T17:52:50Z</time>
  <course>247.59</course>
  <speed>0.0</speed>
  <fix>3d</fix>
</trkpt>
<trkpt lat="40.0713749" lon="-105.229789">
  <ele>1583.0</ele>
  <time>2026-08-28T17:52:50Z</time>
  <course>0.0</course>
  <speed>0.0</speed>
  <fix>3d</fix>
</trkpt>
<trkpt lat="40.0713749" lon="-105.229789">
  <ele>1582.92</ele>
  <time>2026-08-28T17:52:50Z</time>
  <course>247.59</course>
  <speed>0.0</speed>
  <fix>3d</fix>
</trkpt>
<trkpt lat="40.0713749" lon="-105.229789">
  <ele>1583.0</ele>
  <time>2026-08-28T17:52:50Z</time>
  <course>0.0</course>
  <speed>0.0</speed>
  <fix>3d</fix>
</trkpt>
<trkpt lat="40.0713749" lon="-105.229789">
  <ele>1582.91</ele>
  <time>2026-08-28T17:52:50Z</time>
  <course>247.58</course>
  <speed>0.0</speed>
  <fix>3d</fix>
</trkpt>
<trkpt lat="40.0713749" lon="-105.229789">
  <ele>1583.0</ele>
  <time>2026-08-28T17:52:50Z</time>
  <course>0.0</course>
  <speed>0.0</speed>
  <fix>3d</fix>
</trkpt>
<trkpt lat="40.0713749" lon="-105.229789">
  <ele>1582.91</ele>
  <time>2026-08-28T17:52:50Z</time>
  <course>247.58</course>
  <speed>0.0</speed>
  <fix>3d</fix>
</trkpt>
<trkpt lat="40.0713749" lon="-105.229789">
  <ele>1583.0</ele>
  <time>2026-08-28T17:52:50Z</time>
  <course>0.0</course>
  <speed>0.0</speed>
  <fix>3d</fix>
</trkpt>
<trkpt lat="40.0713749" lon="-105.229789">
  <ele>1582.9</ele>
  <time>2026-08-28T17:52:50Z</time>
  <course>247.58</course>
  <speed>0.0</speed>
  <fix>3d</fix>
</trkpt>
<trkpt lat="40.0713749" lon="-105.229789">
  <ele>1583.0</ele>
  <time>2026-08-28T17:52:50Z</time>
  <course>0.0</course>
  <speed>0.0</speed>
  <fix>3d</fix>
</trkpt>
<trkpt lat="40.0713749" lon="-105.229789">
  <ele>1582.9</ele>
  <time>2026-08-28T17:52:50Z</time>
  <course>247.58</course>
  <speed>0.0</speed>
  <fix>3d</fix>
</trkpt>
<trkpt lat="40.0713749" lon="-105.229789">
  <ele>1583.0</ele>
  <time>2026-08-28T17:52:50Z</time>
  <course>0.0</course>
  <speed>0.0</speed>
  <fix>3d</fix>
</trkpt>
<trkpt lat="40.0713749" lon="-105.229789">
  <ele>1582.9</ele>
  <time>2026-08-28T17:52:50Z</time>
  <course>247.57</course>
  <speed>0.0</speed>
  <fix>3d</fix>
</trkpt>
<trkpt lat="40.0713749" lon="-105.229789">
  <ele>1583.0</ele>
  <time>2026-08-28T17:52:50Z</time>
  <course>0.0</course>
  <speed>0.0</speed>
  <fix>3d</fix>
</trkpt>
<trkpt lat="40.0713749" lon="-105.229789">
  <ele>1582.9</ele>
  <time>2026-08-28T17:52:50Z</time>
  <course>247.57</course>
  <speed>0.0</speed>
  <fix>3d</fix>
</trkpt>
<trkpt lat="40.0713749" lon="-105.229789">
  <ele>1583.0</ele>
  <time>2026-08-28T17:52:50Z</time>
  <course>0.0</course>
  <speed>0.0</speed>
  <fix>3d</fix>
</trkpt>
<trkpt lat="40.0713749" lon="-105.229789">
  <ele>1582.9</ele>
  <time>2026-08-28T17:52:50Z</time>
  <course>247.57</course>
  <speed>0.0</speed>
  <fix>3d</fix>
</trkpt>
<trkpt lat="40.0713749" lon="-105.229789">
  <ele>1583.0</ele>
  <time>2026-08-28T17:52:50Z</time>
  <course>0.0</course>
  <speed>0.0</speed>
  <fix>3d</fix>
</trkpt>
<trkpt lat="40.0713749" lon="-105.229789">
  <ele>1582.9</ele>
  <time>2026-08-28T17:52:50Z</time>
  <course>247.57</course>
  <speed>0.01</speed>
  <fix>3d</fix>
</trkpt>
<trkpt lat="40.0713749" lon="-105.229789">
  <ele>1583.0</ele>
  <time>2026-08-28T17:52:50Z</time>
  <course>0.0</course>
  <speed>0.0</speed>
  <fix>3d</fix>
</trkpt>
<trkpt lat="40.0713749" lon="-105.229789">
  <ele>1582.9</ele>
  <time>2026-08-28T17:52:50Z</time>
  <course>247.56</course>
  <speed>0.01</speed>
  <fix>3d</fix>
</trkpt>
<trkpt lat="40.0713749" lon="-105.229789">
  <ele>1583.0</ele>
  <time>2026-08-28T17:52:50Z</time>
  <course>0.0</course>
  <speed>0.0</speed>
  <fix>3d</fix>
</trkpt>
<trkpt lat="40.0713749" lon="-105.229789">
  <ele>1582.91</ele>
  <time>2026-08-28T17:52:50Z</time>
  <course>247.56</course>
  <speed>0.01</speed>
  <fix>3d</fix>
</trkpt>
<trkpt lat="40.0713749" lon="-105.229789">
  <ele>1583.0</ele>
  <time>2026-08-28T17:52:50Z</time>
  <course>0.0</course>
  <speed>0.0</speed>
  <fix>3d</fix>
</trkpt>
<trkpt lat="40.0713749" lon="-105.229789">
  <ele>1582.91</ele>
  <time>2026-08-28T17:52:50Z</time>
  <course>247.56</course>
  <speed>0.01</speed>
  <fix>3d</fix>
</trkpt>
<trkpt lat="40.0713749" lon="-105.229789">
  <ele>1583.0</ele>
  <time>2026-08-28T17:52:50Z</time>
  <course>0.0</course>
  <speed>0.0</speed>
  <fix>3d</fix>
</trkpt>
<trkpt lat="40.0713749" lon="-105.229789">
  <ele>1582.92</ele>
  <time>2026-08-28T17:52:50Z</time>
  <course>247.56</course>
  <speed>0.01</speed>
  <fix>3d</fix>
</trkpt>
<trkpt lat="40.0713749" lon="-105.229789">
  <ele>1583.0</ele>
  <time>2026-08-28T17:52:50Z</time>
  <course>0.0</course>
  <speed>0.0</speed>
  <fix>3d</fix>
</trkpt>
<trkpt lat="40.0713749" lon="-105.229789">
  <ele>1582.92</ele>
  <time>2026-08-28T17:52:50Z</time>
  <course>247.55</course>
  <speed>0.01</speed>
  <fix>3d</fix>
</trkpt>
<trkpt lat="40.0713749" lon="-105.229789">
  <ele>1583.0</ele>
  <time>2026-08-28T17:52:50Z</time>
  <course>0.0</course>
  <speed>0.0</speed>
  <fix>3d</fix>
</trkpt>
<trkpt lat="40.0713749" lon="-105.229789">
  <ele>1582.92</ele>
  <time>2026-08-28T17:52:50Z</time>
  <course>247.55</course>
  <speed>0.01</speed>
  <fix>3d</fix>
</trkpt>
<trkpt lat="40.0713749" lon="-105.229789">
  <ele>1583.0</ele>
  <time>2026-08-28T17:52:50Z</time>
  <course>0.0</course>
  <speed>0.0</speed>
  <fix>3d</fix>
</trkpt>
<trkpt lat="40.0713749" lon="-105.229789">
  <ele>1582.93</ele>
  <time>2026-08-28T17:52:50Z</time>
  <course>247.55</course>
  <speed>0.01</speed>
  <fix>3d</fix>
</trkpt>
<trkpt lat="40.0713749" lon="-105.229789">
  <ele>1583.0</ele>
  <time>2026-08-28T17:52:50Z</time>
  <course>0.0</course>
  <speed>0.0</speed>
  <fix>3d</fix>
</trkpt>
<trkpt lat="40.0713749" lon="-105.229789">
  <ele>1582.93</ele>
  <time>2026-08-28T17:52:50Z</time>
  <course>247.55</course>
  <speed>0.01</speed>
  <fix>3d</fix>
</trkpt>
<trkpt lat="40.0713749" lon="-105.229789">
  <ele>1583.0</ele>
  <time>2026-08-28T17:52:50Z</time>
  <course>0.0</course>
  <speed>0.0</speed>
  <fix>3d</fix>
</trkpt>
<trkpt lat="40.0713749" lon="-105.229789">
  <ele>1582.93</ele>
  <time>2026-08-28T17:52:50Z</time>
  <course>247.54</course>
  <speed>0.01</speed>
  <fix>3d</fix>
</trkpt>
<trkpt lat="40.0713749" lon="-105.229789">
  <ele>1583.0</ele>
  <time>2026-08-28T17:52:50Z</time>
  <course>246.0</course>
  <speed>0.0</speed>
  <fix>3d</fix>
</trkpt>
<trkpt lat="40.0713749" lon="-105.229789">
  <ele>1582.93</ele>
  <time>2026-08-28T17:52:50Z</time>
  <course>247.55</course>
  <speed>0.01</speed>
  <fix>3d</fix>
</trkpt>
<trkpt lat="40.0713749" lon="-105.229789">
  <ele>1583.0</ele>
  <time>2026-08-28T17:52:50Z</time>
  <course>246.0</course>
  <speed>0.0</speed>
  <fix>3d</fix>
</trkpt>
<trkpt lat="40.0713749" lon="-105.229789">
  <ele>1582.94</ele>
  <time>2026-08-28T17:52:50Z</time>
  <course>247.56</course>
  <speed>0.01</speed>
  <fix>3d</fix>
</trkpt>
<trkpt lat="40.0713749" lon="-105.229789">
  <ele>1583.0</ele>
  <time>2026-08-28T17:52:50Z</time>
  <course>246.0</course>
  <speed>0.0</speed>
  <fix>3d</fix>
</trkpt>
<trkpt lat="40.0713749" lon="-105.229789">
  <ele>1582.94</ele>
  <time>2026-08-28T17:52:50Z</time>
  <course>247.52</course>
  <speed>0.01414213562373095</speed>
  <fix>3d</fix>
</trkpt>
<trkpt lat="40.0713749" lon="-105.229789">
  <ele>1583.0</ele>
  <time>2026-08-28T17:52:50Z</time>
  <course>245.99</course>
  <speed>0.01</speed>
  <fix>3d</fix>
</trkpt>
<trkpt lat="40.0713749" lon="-105.229789">
  <ele>1582.94</ele>
  <time>2026-08-28T17:52:50Z</time>
  <course>247.46</course>
  <speed>0.03</speed>
  <fix>3d</fix>
</trkpt>
<trkpt lat="40.0713749" lon="-105.229789">
  <ele>1583.0</ele>
  <time>2026-08-28T17:52:50Z</time>
  <course>245.99</course>
  <speed>0.01</speed>
  <fix>3d</fix>
</trkpt>
<trkpt lat="40.0713749" lon="-105.229789">
  <ele>1582.95</ele>
  <time>2026-08-28T17:52:50Z</time>
  <course>247.34</course>
  <speed>0.05</speed>
  <fix>3d</fix>
</trkpt>
<trkpt lat="40.0713749" lon="-105.229789">
  <ele>1583.0</ele>
  <time>2026-08-28T17:52:50Z</time>
  <course>245.86</course>
  <speed>0.04</speed>
  <fix>3d</fix>
</trkpt>
<trkpt lat="40.0713749" lon="-105.2297891">
  <ele>1582.95</ele>
  <time>2026-08-28T17:52:50Z</time>
  <course>247.15</course>
  <speed>0.07071067811865475</speed>
  <fix>3d</fix>
</trkpt>
<trkpt lat="40.0713749" lon="-105.229789">
  <ele>1583.0</ele>
  <time>2026-08-28T17:52:50Z</time>
  <course>245.86</course>
  <speed>0.04</speed>
  <fix>3d</fix>
</trkpt>
<trkpt lat="40.0713749" lon="-105.2297893">
  <ele>1582.95</ele>
  <time>2026-08-28T17:52:50Z</time>
  <course>246.85</course>
  <speed>0.11401754250991379</speed>
  <fix>3d</fix>
</trkpt>
<trkpt lat="40.0713749" lon="-105.2297892">
  <ele>1583.0</ele>
  <time>2026-08-28T17:52:50Z</time>
  <course>245.47</course>
  <speed>0.09</speed>
  <fix>3d</fix>
</trkpt>
<trkpt lat="40.0713749" lon="-105.2297894">
  <ele>1582.96</ele>
  <time>2026-08-28T17:52:50Z</time>
  <course>246.36</course>
  <speed>0.1676305461424021</speed>
  <fix>3d</fix>
</trkpt>
<trkpt lat="40.0713749" lon="-105.2297892">
  <ele>1583.0</ele>
  <time>2026-08-28T17:52:50Z</time>
  <course>245.47</course>
  <speed>0.09</speed>
  <fix>3d</fix>
</trkpt>
<trkpt lat="40.0713748" lon="-105.2297897">
  <ele>1582.96</ele>
  <time>2026-08-28T17:52:50Z</time>
  <course>245.61</course>
  <speed>0.22472205054244232</speed>
  <fix>3d</fix>
</trkpt>
<trkpt lat="40.0713748" lon="-105.2297895">
  <ele>1583.0</ele>
  <time>2026-08-28T17:52:50Z</time>
  <course>244.51</course>
  <speed>0.18</speed>
  <fix>3d</fix>
</trkpt>
<trkpt lat="40.0713747" lon="-105.22979">
  <ele>1582.96</ele>
  <time>2026-08-28T17:52:50Z</time>
  <course>244.43</course>
  <speed>0.30463092423455634</speed>
  <fix>3d</fix>
</trkpt>
<trkpt lat="40.0713748" lon="-105.2297895">
  <ele>1583.0</ele>
  <time>2026-08-28T17:52:50Z</time>
  <course>244.51</course>
  <speed>0.18</speed>
  <fix>3d</fix>
</trkpt>
<trkpt lat="40.0713745" lon="-105.2297904">
  <ele>1582.96</ele>
  <time>2026-08-28T17:52:50Z</time>
  <course>242.75</course>
  <speed>0.38910152916687435</speed>
  <fix>3d</fix>
</trkpt>
<trkpt lat="40.0713746" lon="-105.22979">
  <ele>1583.0</ele>
  <time>2026-08-28T17:52:50Z</time>
  <course>242.3</course>
  <speed>0.32</speed>
  <fix>3d</fix>
</trkpt>
<trkpt lat="40.0713743" lon="-105.2297909">
  <ele>1582.96</ele>
  <time>2026-08-28T17:52:50Z</time>
  <course>240.43</course>
  <speed>0.47885279575251516</speed>
  <fix>3d</fix>
</trkpt>
<trkpt lat="40.0713746" lon="-105.22979">
  <ele>1583.0</ele>
  <time>2026-08-28T17:52:50Z</time>
  <course>242.3</course>
  <speed>0.32</speed>
  <fix>3d</fix>
</trkpt>
<trkpt lat="40.071374" lon="-105.2297914">
  <ele>1582.96</ele>
  <time>2026-08-28T17:52:50Z</time>
  <course>237.28</course>
  <speed>0.5883026432033092</speed>
  <fix>3d</fix>
</trkpt>
<trkpt lat="40.0713743" lon="-105.2297907">
  <ele>1583.0</ele>
  <time>2026-08-28T17:52:50Z</time>
  <course>237.96</course>
  <speed>0.49</speed>
  <fix>3d</fix>
</trkpt>
<trkpt lat="40.0713737" lon="-105.2297921">
  <ele>1582.96</ele>
  <time>2026-08-28T17:52:50Z</time>
  <course>233.2</course>
  <speed>0.6940461079784254</speed>
  <fix>3d</fix>
</trkpt>
<trkpt lat="40.0713743" lon="-105.2297907">
  <ele>1583.0</ele>
  <time>2026-08-28T17:52:50Z</time>
  <course>237.96</course>
  <speed>0.49</speed>
  <fix>3d</fix>
</trkpt>
<trkpt lat="40.0713732" lon="-105.2297928">
  <ele>1582.95</ele>
  <time>2026-08-28T17:52:50Z</time>
  <course>228.41</course>
  <speed>0.8146778504415104</speed>
  <fix>3d</fix>
</trkpt>
<trkpt lat="40.0713736" lon="-105.2297919">
  <ele>1583.0</ele>
  <time>2026-08-28T17:52:50Z</time>
  <course>230.62</course>
  <speed>0.69</speed>
  <fix>3d</fix>
</trkpt>
<trkpt lat="40.0713726" lon="-105.2297935">
  <ele>1582.96</ele>
  <time>2026-08-28T17:52:50Z</time>
  <course>222.89</course>
  <speed>0.9269843580125827</speed>
  <fix>3d</fix>
</trkpt>
<trkpt lat="40.0713736" lon="-105.2297919">
  <ele>1583.0</ele>
  <time>2026-08-28T17:52:50Z</time>
  <course>230.62</course>
  <speed>0.69</speed>
  <fix>3d</fix>
</trkpt>
<trkpt lat="40.0713719" lon="-105.2297943">
  <ele>1582.96</ele>
  <time>2026-08-28T17:52:50Z</time>
  <course>216.61</course>
  <speed>1.0520931517693668</speed>
  <fix>3d</fix>
</trkpt>
<trkpt lat="40.0713736" lon="-105.2297919">
  <ele>1583.0</ele>
  <time>2026-08-28T17:52:50Z</time>
  <course>230.62</course>
  <speed>0.69</speed>
  <fix>3d</fix>
</trkpt>
<trkpt lat="40.071371" lon="-105.229795">
  <ele>1582.96</ele>
  <time>2026-08-28T17:52:50Z</time>
  <course>209.56</course>
  <speed>1.1772000679578642</speed>
  <fix>3d</fix>
</trkpt>
<trkpt lat="40.0713726" lon="-105.2297933">
  <ele>1583.0</ele>
  <time>2026-08-28T17:52:50Z</time>
  <course>220.19</course>
  <speed>0.92</speed>
  <fix>3d</fix>
</trkpt>
<trkpt lat="40.07137" lon="-105.2297956">
  <ele>1582.95</ele>
  <time>2026-08-28T17:52:50Z</time>
  <course>201.72</course>
  <speed>1.3038404810405297</speed>
  <fix>3d</fix>
</trkpt>
<trkpt lat="40.0713726" lon="-105.2297933">
  <ele>1583.0</ele>
  <time>2026-08-28T17:52:50Z</time>
  <course>220.19</course>
  <speed>0.92</speed>
  <fix>3d</fix>
</trkpt>
<trkpt lat="40.0713687" lon="-105.229796">
  <ele>1582.95</ele>
  <time>2026-08-28T17:52:50Z</time>
  <course>193.11</course>
  <speed>1.4317821063276353</speed>
  <fix>3d</fix>
</trkpt>
<trkpt lat="40.071371" lon="-105.2297946">
  <ele>1583.0</ele>
  <time>2026-08-28T17:52:50Z</time>
  <course>206.78</course>
  <speed>1.16</speed>
  <fix>3d</fix>
</trkpt>
<trkpt lat="40.0713674" lon="-105.2297962">
  <ele>1582.95</ele>
  <time>2026-08-28T17:52:50Z</time>
  <course>184.05</course>
  <speed>1.561569723067145</speed>
  <fix>3d</fix>
</trkpt>
<trkpt lat="40.071371" lon="-105.2297946">
  <ele>1583.0</ele>
  <time>2026-08-28T17:52:50Z</time>
  <course>206.78</course>
  <speed>1.16</speed>
  <fix>3d</fix>
</trkpt>
<trkpt lat="40.0713659" lon="-105.229796">
  <ele>1582.95</ele>
  <time>2026-08-28T17:52:50Z</time>
  <course>174.41</course>
  <speed>1.6720047846821493</speed>
  <fix>3d</fix>
</trkpt>
<trkpt lat="40.0713689" lon="-105.2297956">
  <ele>1583.0</ele>
  <time>2026-08-28T17:52:50Z</time>
  <course>190.5</course>
  <speed>1.4</speed>
  <fix>3d</fix>
</trkpt>
<trkpt lat="40.0713644" lon="-105.2297956">
  <ele>1582.95</ele>
  <time>2026-08-28T17:52:50Z</time>
  <course>164.48</course>
  <speed>1.7652761823578769</speed>
  <fix>3d</fix>
</trkpt>
<trkpt lat="40.0713689" lon="-105.2297956">
  <ele>1583.0</ele>
  <time>2026-08-28T17:52:50Z</time>
  <course>190.5</course>
  <speed>1.4</speed>
  <fix>3d</fix>
</trkpt>
<trkpt lat="40.0713629" lon="-105.2297948">
  <ele>1582.95</ele>
  <time>2026-08-28T17:52:50Z</time>
  <course>154.46</course>
  <speed>1.8426068490049632</speed>
  <fix>3d</fix>
</trkpt>
<trkpt lat="40.0713662" lon="-105.2297957">
  <ele>1583.0</ele>
  <time>2026-08-28T17:52:50Z</time>
  <course>172.07</course>
  <speed>1.62</speed>
  <fix>3d</fix>
</trkpt>
<trkpt lat="40.0713614" lon="-105.2297935">
  <ele>1582.96</ele>
  <time>2026-08-28T17:52:50Z</time>
  <course>144.86</course>
  <speed>1.9080094339389415</speed>
  <fix>3d</fix>
</trkpt>
<trkpt lat="40.0713632" lon="-105.2297945">
  <ele>1583.0</ele>
  <time>2026-08-28T17:52:50Z</time>
  <course>152.76</course>
  <speed>1.78</speed>
  <fix>3d</fix>
</trkpt>
<trkpt lat="40.0713601" lon="-105.2297919">
  <ele>1582.96</ele>
  <time>2026-08-28T17:52:50Z</time>
  <course>135.86</course>
  <speed>1.9590048494069634</speed>
  <fix>3d</fix>
</trkpt>
<trkpt lat="40.0713632" lon="-105.2297945">
  <ele>1583.0</ele>
  <time>2026-08-28T17:52:50Z</time>
  <course>152.76</course>
  <speed>1.78</speed>
  <fix>3d</fix>
</trkpt>
<trkpt lat="40.071359" lon="-105.22979">
  <ele>1582.97</ele>
  <time>2026-08-28T17:52:50Z</time>
  <course>127.91</course>
  <speed>2.0122872558360054</speed>
  <fix>3d</fix>
</trkpt>
<trkpt lat="40.0713606" lon="-105.229792">
  <ele>1583.0</ele>
  <time>2026-08-28T17:52:50Z</time>
  <course>134.7</course>
  <speed>1.9</speed>
  <fix>3d</fix>
</trkpt>
<trkpt lat="40.0713581" lon="-105.2297879">
  <ele>1582.97</ele>
  <time>2026-08-28T17:52:50Z</time>
  <course>120.91</course>
  <speed>2.0630559856678636</speed>
  <fix>3d</fix>
</trkpt>
<trkpt lat="40.0713606" lon="-105.229792">
  <ele>1583.0</ele>
  <time>2026-08-28T17:52:50Z</time>
  <course>134.7</course>
  <speed>1.9</speed>
  <fix>3d</fix>
</trkpt>
<trkpt lat="40.0713573" lon="-105.2297856">
  <ele>1582.98</ele>
  <time>2026-08-28T17:52:50Z</time>
  <course>114.97</course>
  <speed>2.1246176126540983</speed>
  <fix>3d</fix>
</trkpt>
<trkpt lat="40.0713585" lon="-105.2297883">
  <ele>1583.0</ele>
  <time>2026-08-28T17:52:50Z</time>
  <course>119.82</course>
  <speed>2.0</speed>
  <fix>3d</fix>
</trkpt>
<trkpt lat="40.0713567" lon="-105.2297832">
  <ele>1582.98</ele>
  <time>2026-08-28T17:52:50Z</time>
  <course>110.07</course>
  <speed>2.1852459815773604</speed>
  <fix>3d</fix>
</trkpt>
<trkpt lat="40.0713585" lon="-105.2297883">
  <ele>1583.0</ele>
  <time>2026-08-28T17:52:50Z</time>
  <course>119.82</course>
  <speed>2.0</speed>
  <fix>3d</fix>
</trkpt>
<trkpt lat="40.0713561" lon="-105.2297806">
  <ele>1582.98</ele>
  <time>2026-08-28T17:52:50Z</time>
  <course>106.21</course>
  <speed>2.255593048402127</speed>
  <fix>3d</fix>
</trkpt>
<trkpt lat="40.071357" lon="-105.2297839">
  <ele>1583.0</ele>
  <time>2026-08-28T17:52:50Z</time>
  <course>109.08</course>
  <speed>2.12</speed>
  <fix>3d</fix>
</trkpt>
<trkpt lat="40.0713557" lon="-105.2297779">
  <ele>1582.98</ele>
  <time>2026-08-28T17:52:50Z</time>
  <course>103.46</course>
  <speed>2.3220680437919987</speed>
  <fix>3d</fix>
</trkpt>
<trkpt lat="40.071357" lon="-105.2297839">
  <ele>1583.0</ele>
  <time>2026-08-28T17:52:50Z</time>
  <course>109.08</course>
  <speed>2.12</speed>
  <fix>3d</fix>
</trkpt>
<trkpt lat="40.0713554" lon="-105.2297752">
  <ele>1582.98</ele>
  <time>2026-08-28T17:52:50Z</time>
  <course>101.48</course>
  <speed>2.3888281646028875</speed>
  <fix>3d</fix>
</trkpt>
<trkpt lat="40.0713559" lon="-105.2297789">
  <ele>1583.0</ele>
  <time>2026-08-28T17:52:50Z</time>
  <course>102.44</course>
  <speed>2.24</speed>
  <fix>3d</fix>
</trkpt>
<trkpt lat="40.0713551" lon="-105.2297724">
  <ele>1582.98</ele>
  <time>2026-08-28T17:52:50Z</time>
  <course>99.81</course>
  <speed>2.4596137908216402</speed>
  <fix>3d</fix>
</trkpt>
<trkpt lat="40.0713559" lon="-105.2297789">
  <ele>1583.0</ele>
  <time>2026-08-28T17:52:50Z</time>
  <course>102.44</course>
  <speed>2.24</speed>
  <fix>3d</fix>
</trkpt>
<trkpt lat="40.0713549" lon="-105.2297695">
  <ele>1582.98</ele>
  <time>2026-08-28T17:52:50Z</time>
  <course>98.45</course>
  <speed>2.5433245958783948</speed>
  <fix>3d</fix>
</trkpt>
<trkpt lat="40.0713552" lon="-105.2297736">
  <ele>1583.0</ele>
  <time>2026-08-28T17:52:50Z</time>
  <course>98.59</course>
  <speed>2.39</speed>
  <fix>3d</fix>
</trkpt>
<trkpt lat="40.0713547" lon="-105.2297665">
  <ele>1582.98</ele>
  <time>2026-08-28T17:52:50Z</time>
  <course>97.32</course>
  <speed>2.628402556687236</speed>
  <fix>3d</fix>
</trkpt>
<trkpt lat="40.0713552" lon="-105.2297736">
  <ele>1583.0</ele>
  <time>2026-08-28T17:52:50Z</time>
  <course>98.59</course>
  <speed>2.39</speed>
  <fix>3d</fix>
</trkpt>
<trkpt lat="40.0713545" lon="-105.2297634">
  <ele>1582.98</ele>
  <time>2026-08-28T17:52:50Z</time>
  <course>96.39</course>
  <speed>2.7159712811441876</speed>
  <fix>3d</fix>
</trkpt>
<trkpt lat="40.0713546" lon="-105.2297678">
  <ele>1583.0</ele>
  <time>2026-08-28T17:52:50Z</time>
  <course>96.05</course>
  <speed>2.55</speed>
  <fix>3d</fix>
</trkpt>
<trkpt lat="40.0713543" lon="-105.2297602">
  <ele>1582.98</ele>
  <time>2026-08-28T17:52:50Z</time>
  <course>95.63</course>
  <speed>2.8040149785619906</speed>
  <fix>3d</fix>
</trkpt>
<trkpt lat="40.0713546" lon="-105.2297678">
  <ele>1583.0</ele>
  <time>2026-08-28T17:52:50Z</time>
  <course>96.05</course>
  <speed>2.55</speed>
  <fix>3d</fix>
</trkpt>
<trkpt lat="40.0713542" lon="-105.2297569">
  <ele>1582.98</ele>
  <time>2026-08-28T17:52:50Z</time>
  <course>95.0</course>
  <speed>2.892490276561012</speed>
  <fix>3d</fix>
</trkpt>
<trkpt lat="40.0713546" lon="-105.2297678">
  <ele>1583.0</ele>
  <time>2026-08-28T17:52:50Z</time>
  <course>96.05</course>
  <speed>2.55</speed>
  <fix>3d</fix>
</trkpt>
<trkpt lat="40.0713541" lon="-105.2297535">
  <ele>1582.98</ele>
  <time>2026-08-28T17:52:50Z</time>
  <course>94.42</course>
  <speed>2.9916717734403955</speed>
  <fix>3d</fix>
</trkpt>
<trkpt lat="40.0713542" lon="-105.2297616">
  <ele>1583.0</ele>
  <time>2026-08-28T17:52:50Z</time>
  <course>94.33</course>
  <speed>2.73</speed>
  <fix>3d</fix>
</trkpt>
<trkpt lat="40.071354" lon="-105.22975">
  <ele>1582.98</ele>
  <time>2026-08-28T17:52:50Z</time>
  <course>93.78</course>
  <speed>3.0807953518531543</speed>
  <fix>3d</fix>
</trkpt>
<trkpt lat="40.0713542" lon="-105.2297616">
  <ele>1583.0</ele>
  <time>2026-08-28T17:52:50Z</time>
  <course>94.33</course>
  <speed>2.73</speed>
  <fix>3d</fix>
</trkpt>
<trkpt lat="40.0713539" lon="-105.2297464">
  <ele>1582.98</ele>
  <time>2026-08-28T17:52:50Z</time>
  <course>93.12</course>
  <speed>3.180251562376788</speed>
  <fix>3d</fix>
</trkpt>
<trkpt lat="40.0713539" lon="-105.229755">
  <ele>1583.0</ele>
  <time>2026-08-28T17:52:50Z</time>
  <course>93.01</course>
  <speed>2.92</speed>
  <fix>3d</fix>
</trkpt>
<trkpt lat="40.0713538" lon="-105.2297427">
  <ele>1582.98</ele>
  <time>2026-08-28T17:52:50Z</time>
  <course>92.43</course>
  <speed>3.280015243867016</speed>
  <fix>3d</fix>
</trkpt>
<trkpt lat="40.0713539" lon="-105.229755">
  <ele>1583.0</ele>
  <time>2026-08-28T17:52:50Z</time>
  <course>93.01</course>
  <speed>2.92</speed>
  <fix>3d</fix>
</trkpt>
<trkpt lat="40.0713538" lon="-105.2297388">
  <ele>1582.98</ele>
  <time>2026-08-28T17:52:50Z</time>
  <course>91.68</course>
  <speed>3.3900589965367858</speed>
  <fix>3d</fix>
</trkpt>
<trkpt lat="40.0713536" lon="-105.2297479">
  <ele>1583.0</ele>
  <time>2026-08-28T17:52:50Z</time>
  <course>91.71</course>
  <speed>3.12</speed>
  <fix>3d</fix>
</trkpt>
<trkpt lat="40.0713538" lon="-105.2297349">
  <ele>1582.98</ele>
  <time>2026-08-28T17:52:50Z</time>
  <course>90.89</course>
  <speed>3.4907019351414124</speed>
  <fix>3d</fix>
</trkpt>
<trkpt lat="40.0713535" lon="-105.2297404">
  <ele>1583.0</ele>
  <time>2026-08-28T17:52:50Z</time>
  <course>90.25</course>
  <speed>3.34</speed>
  <fix>3d</fix>
</trkpt>
<trkpt lat="40.0713539" lon="-105.2297307">
  <ele>1582.98</ele>
  <time>2026-08-28T17:52:50Z</time>
  <course>90.04</course>
  <speed>3.601999444752872</speed>
  <fix>3d</fix>
</trkpt>
<trkpt lat="40.0713535" lon="-105.2297404">
  <ele>1583.0</ele>
  <time>2026-08-28T17:52:50Z</time>
  <course>90.25</course>
  <speed>3.34</speed>
  <fix>3d</fix>
</trkpt>
<trkpt lat="40.071354" lon="-105.2297265">
  <ele>1582.98</ele>
  <time>2026-08-28T17:52:50Z</time>
  <course>89.12</course>
  <speed>3.7143640101637856</speed>
  <fix>3d</fix>
</trkpt>
<trkpt lat="40.0713536" lon="-105.2297323">
  <ele>1583.0</ele>
  <time>2026-08-28T17:52:50Z</time>
  <course>88.58</course>
  <speed>3.55</speed>
  <fix>3d</fix>
</trkpt>
<trkpt lat="40.0713541" lon="-105.2297221">
  <ele>1582.98</ele>
  <time>2026-08-28T17:52:50Z</time>
  <course>88.2</course>
  <speed>3.8275318418009276</speed>
  <fix>3d</fix>
</trkpt>
<trkpt lat="40.0713536" lon="-105.2297323">
  <ele>1583.0</ele>
  <time>2026-08-28T17:52:50Z</time>
  <course>88.58</course>
  <speed>3.55</speed>
  <fix>3d</fix>
</trkpt>
<trkpt lat="40.0713543" lon="-105.2297176">
  <ele>1582.98</ele>
  <time>2026-08-28T17:52:50Z</time>
  <course>87.4</course>
  <speed>3.9314628320766305</speed>
  <fix>3d</fix>
</trkpt>
<trkpt lat="40.0713538" lon="-105.2297236">
  <ele>1583.0</ele>
  <time>2026-08-28T17:52:50Z</time>
  <course>86.83</course>
  <speed>3.78</speed>
  <fix>3d</fix>
</trkpt>
<trkpt lat="40.0713546" lon="-105.2297129">
  <ele>1582.99</ele>
  <time>2026-08-28T17:52:50Z</time>
  <course>86.65</course>
  <speed>4.046047453997542</speed>
  <fix>3d</fix>
</trkpt>
<trkpt lat="40.0713538" lon="-105.2297236">
  <ele>1583.0</ele>
  <time>2026-08-28T17:52:50Z</time>
  <course>86.83</course>
  <speed>3.78</speed>
  <fix>3d</fix>
</trkpt>
<trkpt lat="40.0713549" lon="-105.2297081">
  <ele>1582.99</ele>
  <time>2026-08-28T17:52:50Z</time>
  <course>85.88</course>
  <speed>4.161249812255929</speed>
  <fix>3d</fix>
</trkpt>
<trkpt lat="40.0713542" lon="-105.2297146">
  <ele>1583.0</ele>
  <time>2026-08-28T17:52:50Z</time>
  <course>85.2</course>
  <speed>4.0</speed>
  <fix>3d</fix>
</trkpt>
<trkpt lat="40.0713553" lon="-105.2297031">
  <ele>1582.99</ele>
  <time>2026-08-28T17:52:50Z</time>
  <course>85.08</course>
  <speed>4.268219769412068</speed>
  <fix>3d</fix>
</trkpt>
<trkpt lat="40.0713542" lon="-105.2297146">
  <ele>1583.0</ele>
  <time>2026-08-28T17:52:50Z</time>
  <course>85.2</course>
  <speed>4.0</speed>
  <fix>3d</fix>
</trkpt>
<trkpt lat="40.0713557" lon="-105.2296981">
  <ele>1582.99</ele>
  <time>2026-08-28T17:52:50Z</time>
  <course>84.27</course>
  <speed>4.385897855627739</speed>
  <fix>3d</fix>
</trkpt>
<trkpt lat="40.071355" lon="-105.2297049">
  <ele>1583.0</ele>
  <time>2026-08-28T17:52:50Z</time>
  <course>83.64</course>
  <speed>4.22</speed>
  <fix>3d</fix>
</trkpt>
<trkpt lat="40.0713563" lon="-105.2296929">
  <ele>1583.0</ele>
  <time>2026-08-28T17:52:50Z</time>
  <course>83.41</course>
  <speed>4.495786916658751</speed>
  <fix>3d</fix>
</trkpt>
<trkpt lat="40.071355" lon="-105.2297049">
  <ele>1583.0</ele>
  <time>2026-08-28T17:52:50Z</time>
  <course>83.64</course>
  <speed>4.22</speed>
  <fix>3d</fix>
</trkpt>
<trkpt lat="40.0713569" lon="-105.2296876">
  <ele>1583.0</ele>
  <time>2026-08-28T17:52:50Z</time>
  <course>82.52</course>
  <speed>4.598314908746463</speed>
  <fix>3d</fix>
</trkpt>
<trkpt lat="40.071356" lon="-105.2296948">
  <ele>1583.0</ele>
  <time>2026-08-28T17:52:50Z</time>
  <course>81.96</course>
  <speed>4.44</speed>
  <fix>3d</fix>
</trkpt>
<trkpt lat="40.0713576" lon="-105.2296822">
  <ele>1583.0</ele>
  <time>2026-08-28T17:52:50Z</time>
  <course>81.58</course>
  <speed>4.711899829155964</speed>
  <fix>3d</fix>
</trkpt>
<trkpt lat="40.071356" lon="-105.2296948">
  <ele>1583.0</ele>
  <time>2026-08-28T17:52:50Z</time>
  <course>81.96</course>
  <speed>4.44</speed>
  <fix>3d</fix>
</trkpt>
<trkpt lat="40.0713583" lon="-105.2296767">
  <ele>1583.0</ele>
  <time>2026-08-28T17:52:50Z</time>
  <course>80.62</course>
  <speed>4.81864088722121</speed>
  <fix>3d</fix>
</trkpt>
<trkpt lat="40.0713573" lon="-105.2296843">
  <ele>1583.0</ele>
  <time>2026-08-28T17:52:50Z</time>
  <course>80.13</course>
  <speed>4.66</speed>
  <fix>3d</fix>
</trkpt>
<trkpt lat="40.0713592" lon="-105.2296711">
  <ele>1583.0</ele>
  <time>2026-08-28T17:52:50Z</time>
  <course>79.64</course>
  <speed>4.926743346268405</speed>
  <fix>3d</fix>
</trkpt>
<trkpt lat="40.0713573" lon="-105.2296843">
  <ele>1583.0</ele>
  <time>2026-08-28T17:52:50Z</time>
  <course>80.13</course>
  <speed>4.66</speed>
  <fix>3d</fix>
</trkpt>
<trkpt lat="40.0713602" lon="-105.2296654">
  <ele>1583.0</ele>
  <time>2026-08-28T17:52:50Z</time>
  <course>78.64</course>
  <speed>5.026370459884547</speed>
  <fix>3d</fix>
</trkpt>
<trkpt lat="40.0713573" lon="-105.2296843">
  <ele>1583.0</ele>
  <time>2026-08-28T17:52:50Z</time>
  <course>80.13</course>
  <speed>4.66</speed>
  <fix>3d</fix>
</trkpt>
<trkpt lat="40.0713612" lon="-105.2296597">
  <ele>1583.01</ele>
  <time>2026-08-28T17:52:50Z</time>
  <course>77.67</course>
  <speed>5.1199414059147195</speed>
  <fix>3d</fix>
</trkpt>
<trkpt lat="40.0713588" lon="-105.2296733">
  <ele>1583.0</ele>
  <time>2026-08-28T17:52:50Z</time>
  <course>78.19</course>
  <speed>4.87</speed>
  <fix>3d</fix>
</trkpt>
<trkpt lat="40.0713624" lon="-105.2296538">
  <ele>1583.01</ele>
  <time>2026-08-28T17:52:50Z</time>
  <course>76.7</course>
  <speed>5.2028645955857815</speed>
  <fix>3d</fix>
</trkpt>
<trkpt lat="40.0713588" lon="-105.2296733">
  <ele>1583.0</ele>
  <time>2026-08-28T17:52:50Z</time>
  <course>78.19</course>
  <speed>4.87</speed>
  <fix>3d</fix>
</trkpt>
<trkpt lat="40.0713636" lon="-105.229648">
  <ele>1583.0</ele>
  <time>2026-08-28T17:52:50Z</time>
  <course>75.71</course>
  <speed>5.270531282517921</speed>
  <fix>3d</fix>
</trkpt>
<trkpt lat="40.0713609" lon="-105.2296619">
  <ele>1583.0</ele>
  <time>2026-08-28T17:52:50Z</time>
  <course>76.22</course>
  <speed>5.07</speed>
  <fix>3d</fix>
</trkpt>
<trkpt lat="40.0713649" lon="-105.2296421">
  <ele>1583.01</ele>
  <time>2026-08-28T17:52:50Z</time>
  <course>74.71</course>
  <speed>5.327438408841532</speed>
  <fix>3d</fix>
</trkpt>
<trkpt lat="40.0713609" lon="-105.2296619">
  <ele>1583.0</ele>
  <time>2026-08-28T17:52:50Z</time>
  <course>76.22</course>
  <speed>5.07</speed>
  <fix>3d</fix>
</trkpt>
<trkpt lat="40.0713663" lon="-105.2296362">
  <ele>1583.01</ele>
  <time>2026-08-28T17:52:50Z</time>
  <course>73.7</course>
  <speed>5.357200761591822</speed>
  <fix>3d</fix>
</trkpt>
<trkpt lat="40.0713632" lon="-105.2296501">
  <ele>1583.0</ele>
  <time>2026-08-28T17:52:50Z</time>
  <course>74.27</course>
  <speed>5.23</speed>
  <fix>3d</fix>
</trkpt>
<trkpt lat="40.0713679" lon="-105.2296303">
  <ele>1583.01</ele>
  <time>2026-08-28T17:52:50Z</time>
  <course>72.71</course>
  <speed>5.38865474863625</speed>
  <fix>3d</fix>
</trkpt>
<trkpt lat="40.0713632" lon="-105.2296501">
  <ele>1583.0</ele>
  <time>2026-08-28T17:52:50Z</time>
  <course>74.27</course>
  <speed>5.23</speed>
  <fix>3d</fix>
</trkpt>
<trkpt lat="40.0713695" lon="-105.2296244">
  <ele>1583.01</ele>
  <time>2026-08-28T17:52:50Z</time>
  <course>71.74</course>
  <speed>5.399564797277647</speed>
  <fix>3d</fix>
</trkpt>
<trkpt lat="40.0713659" lon="-105.2296382">
  <ele>1583.0</ele>
  <time>2026-08-28T17:52:50Z</time>
  <course>72.28</course>
  <speed>5.33</speed>
  <fix>3d</fix>
</trkpt>
<trkpt lat="40.0713711" lon="-105.2296185">
  <ele>1583.01</ele>
  <time>2026-08-28T17:52:50Z</time>
  <course>70.8</course>
  <speed>5.412023651093923</speed>
  <fix>3d</fix>
</trkpt>
<trkpt lat="40.071369" lon="-105.2296263">
  <ele>1583.0</ele>
  <time>2026-08-28T17:52:50Z</time>
  <course>70.34</course>
  <speed>5.38</speed>
  <fix>3d</fix>
</trkpt>
<trkpt lat="40.0713729" lon="-105.2296126">
  <ele>1583.01</ele>
  <time>2026-08-28T17:52:50Z</time>
  <course>69.97</course>
  <speed>5.403739445976276</speed>
  <fix>3d</fix>
</trkpt>
<trkpt lat="40.071369" lon="-105.2296263">
  <ele>1583.0</ele>
  <time>2026-08-28T17:52:50Z</time>
  <course>70.34</course>
  <speed>5.38</speed>
  <fix>3d</fix>
</trkpt>
<trkpt lat="40.0713747" lon="-105.2296068">
  <ele>1583.01</ele>
  <time>2026-08-28T17:52:50Z</time>
  <course>69.24</course>
  <speed>5.398490529768484</speed>
  <fix>3d</fix>
</trkpt>
<trkpt lat="40.0713724" lon="-105.2296145">
  <ele>1583.0</ele>
  <time>2026-08-28T17:52:50Z</time>
  <course>68.61</course>
  <speed>5.39</speed>
  <fix>3d</fix>
</trkpt>
<trkpt lat="40.0713766" lon="-105.229601">
  <ele>1583.01</ele>
  <time>2026-08-28T17:52:50Z</time>
  <course>68.55</course>
  <speed>5.38094787189023</speed>
  <fix>3d</fix>
</trkpt>
<trkpt lat="40.0713724" lon="-105.2296145">
  <ele>1583.0</ele>
  <time>2026-08-28T17:52:50Z</time>
  <course>68.61</course>
  <speed>5.39</speed>
  <fix>3d</fix>
</trkpt>
<trkpt lat="40.0713785" lon="-105.2295952">
  <ele>1583.01</ele>
  <time>2026-08-28T17:52:50Z</time>
  <course>67.76</course>
  <speed>5.3630588286909555</speed>
  <fix>3d</fix>
</trkpt>
<trkpt lat="40.071376" lon="-105.2296028">
  <ele>1583.0</ele>
  <time>2026-08-28T17:52:50Z</time>
  <course>67.09</course>
  <speed>5.37</speed>
  <fix>3d</fix>
</trkpt>
<trkpt lat="40.0713805" lon="-105.2295894">
  <ele>1583.01</ele>
  <time>2026-08-28T17:52:50Z</time>
  <course>66.99</course>
  <speed>5.338108279156578</speed>
  <fix>3d</fix>
</trkpt>
<trkpt lat="40.071376" lon="-105.2296028">
  <ele>1583.0</ele>
  <time>2026-08-28T17:52:50Z</time>
  <course>67.09</course>
  <speed>5.37</speed>
  <fix>3d</fix>
</trkpt>
<trkpt lat="40.0713826" lon="-105.2295837">
  <ele>1583.01</ele>
  <time>2026-08-28T17:52:50Z</time>
  <course>66.29</course>
  <speed>5.30495051814812</speed>
  <fix>3d</fix>
</trkpt>
<trkpt lat="40.07138" lon="-105.2295913">
  <ele>1583.0</ele>
  <time>2026-08-28T17:52:50Z</time>
  <course>65.63</course>
  <speed>5.33</speed>
  <fix>3d</fix>
</trkpt>
<trkpt lat="40.0713847" lon="-105.2295781">
  <ele>1583.01</ele>
  <time>2026-08-28T17:52:50Z</time>
  <course>65.65</course>
  <speed>5.281713737036494</speed>
  <fix>3d</fix>
</trkpt>
<trkpt lat="40.07138" lon="-105.2295913">
  <ele>1583.0</ele>
  <time>2026-08-28T17:52:50Z</time>
  <course>65.63</course>
  <speed>5.33</speed>
  <fix>3d</fix>
</trkpt>
<trkpt lat="40.0713868" lon="-105.2295725">
  <ele>1583.01</ele>
  <time>2026-08-28T17:52:50Z</time>
  <course>65.08</course>
  <speed>5.250304753059578</speed>
  <fix>3d</fix>
</trkpt>
<trkpt lat="40.071384" lon="-105.22958">
  <ele>1583.0</ele>
  <time>2026-08-28T17:52:50Z</time>
  <course>64.3</course>
  <speed>5.27</speed>
  <fix>3d</fix>
</trkpt>
<trkpt lat="40.0713889" lon="-105.2295671">
  <ele>1583.01</ele>
  <time>2026-08-28T17:52:50Z</time>
  <course>64.56</course>
  <speed>5.219358198092943</speed>
  <fix>3d</fix>
</trkpt>
<trkpt lat="40.071384" lon="-105.22958">
  <ele>1583.0</ele>
  <time>2026-08-28T17:52:50Z</time>
  <course>64.3</course>
  <speed>5.27</speed>
  <fix>3d</fix>
</trkpt>
<trkpt lat="40.0713911" lon="-105.2295616">
  <ele>1583.01</ele>
  <time>2026-08-28T17:52:50Z</time>
  <course>64.09</course>
  <speed>5.188882345939248</speed>
  <fix>3d</fix>
</trkpt>
<trkpt lat="40.0713882" lon="-105.2295689">
  <ele>1583.0</ele>
  <time>2026-08-28T17:52:50Z</time>
  <course>63.21</course>
  <speed>5.21</speed>
  <fix>3d</fix>
</trkpt>
<trkpt lat="40.0713933" lon="-105.2295562">
  <ele>1583.01</ele>
  <time>2026-08-28T17:52:50Z</time>
  <course>63.66</course>
  <speed>5.1541439638411335</speed>
  <fix>3d</fix>
</trkpt>
<trkpt lat="40.0713882" lon="-105.2295689">
  <ele>1583.0</ele>
  <time>2026-08-28T17:52:50Z</time>
  <course>63.21</course>
  <speed>5.21</speed>
  <fix>3d</fix>
</trkpt>
<trkpt lat="40.0713955" lon="-105.2295509">
  <ele>1583.01</ele>
  <time>2026-08-28T17:52:50Z</time>
  <course>63.26</course>
  <speed>5.123719352189384</speed>
  <fix>3d</fix>
</trkpt>
<trkpt lat="40.0713924" lon="-105.2295581">
  <ele>1583.0</ele>
  <time>2026-08-28T17:52:50Z</time>
  <course>62.31</course>
  <speed>5.15</speed>
  <fix>3d</fix>
</trkpt>
<trkpt lat="40.0713977" lon="-105.2295456">
  <ele>1583.01</ele>
  <time>2026-08-28T17:52:50Z</time>
  <course>62.92</course>
  <speed>5.098284025042151</speed>
  <fix>3d</fix>
</trkpt>
<trkpt lat="40.0713924" lon="-105.2295581">
  <ele>1583.0</ele>
  <time>2026-08-28T17:52:50Z</time>
  <course>62.31</course>
  <speed>5.15</speed>
  <fix>3d</fix>
</trkpt>
<trkpt lat="40.0713999" lon="-105.2295404">
  <ele>1583.01</ele>
  <time>2026-08-28T17:52:50Z</time>
  <course>62.66</course>
  <speed>5.063328944479116</speed>
  <fix>3d</fix>
</trkpt>
<trkpt lat="40.0713924" lon="-105.2295581">
  <ele>1583.0</ele>
  <time>2026-08-28T17:52:50Z</time>
  <course>62.31</course>
  <speed>5.15</speed>
  <fix>3d</fix>
</trkpt>
<trkpt lat="40.0714021" lon="-105.2295353">
  <ele>1583.02</ele>
  <time>2026-08-28T17:52:50Z</time>
  <course>62.5</course>
  <speed>5.0371618993238645</speed>
  <fix>3d</fix>
</trkpt>
<trkpt lat="40.0713968" lon="-105.2295475">
  <ele>1583.0</ele>
  <time>2026-08-28T17:52:50Z</time>
  <course>61.61</course>
  <speed>5.1</speed>
  <fix>3d</fix>
</trkpt>
<trkpt lat="40.0714042" lon="-105.2295301">
  <ele>1583.02</ele>
  <time>2026-08-28T17:52:50Z</time>
  <course>62.35</course>
  <speed>5.019741029176704</speed>
  <fix>3d</fix>
</trkpt>
<trkpt lat="40.0713968" lon="-105.2295475">
  <ele>1583.0</ele>
  <time>2026-08-28T17:52:50Z</time>
  <course>61.61</course>
  <speed>5.1</speed>
  <fix>3d</fix>
</trkpt>
<trkpt lat="40.0714064" lon="-105.2295251">
  <ele>1583.02</ele>
  <time>2026-08-28T17:52:50Z</time>
  <course>62.2</course>
  <speed>4.993645962620898</speed>
  <fix>3d</fix>
</trkpt>
<trkpt lat="40.0714011" lon="-105.2295369">
  <ele>1583.0</ele>
  <time>2026-08-28T17:52:50Z</time>
  <course>61.18</course>
  <speed>5.05</speed>
  <fix>3d</fix>
</trkpt>
<trkpt lat="40.0714086" lon="-105.22952">
  <ele>1583.02</ele>
  <time>2026-08-28T17:52:50Z</time>
  <course>62.05</course>
  <speed>4.97627370629872</speed>
  <fix>3d</fix>
</trkpt>
<trkpt lat="40.0714011" lon="-105.2295369">
  <ele>1583.0</ele>
  <time>2026-08-28T17:52:50Z</time>
  <course>61.18</course>
  <speed>5.05</speed>
  <fix>3d</fix>
</trkpt>
<trkpt lat="40.0714108" lon="-105.229515">
  <ele>1583.02</ele>
  <time>2026-08-28T17:52:50Z</time>
  <course>61.9</course>
  <speed>4.958921253659913</speed>
  <fix>3d</fix>
</trkpt>
<trkpt lat="40.0714055" lon="-105.2295266">
  <ele>1583.0</ele>
  <time>2026-08-28T17:52:50Z</time>
  <course>60.9</course>
  <speed>5.02</speed>
  <fix>3d</fix>
</trkpt>
<trkpt lat="40.0714129" lon="-105.2295099">
  <ele>1583.02</ele>
  <time>2026-08-28T17:52:50Z</time>
  <course>61.75</course>
  <speed>4.941588813327147</speed>
  <fix>3d</fix>
</trkpt>
<trkpt lat="40.0714099" lon="-105.2295164">
  <ele>1583.0</ele>
  <time>2026-08-28T17:52:50Z</time>
  <course>60.63</course>
  <speed>4.99</speed>
  <fix>3d</fix>
</trkpt>
<trkpt lat="40.0714151" lon="-105.2295049">
  <ele>1583.02</ele>
  <time>2026-08-28T17:52:50Z</time>
  <course>61.6</course>
  <speed>4.932930163705949</speed>
  <fix>3d</fix>
</trkpt>
<trkpt lat="40.0714099" lon="-105.2295164">
  <ele>1583.0</ele>
  <time>2026-08-28T17:52:50Z</time>
  <course>60.63</course>
  <speed>4.99</speed>
  <fix>3d</fix>
</trkpt>
<trkpt lat="40.0714173" lon="-105.2294998">
  <ele>1583.02</ele>
  <time>2026-08-28T17:52:50Z</time>
  <course>61.49</course>
  <speed>4.929300153165761</speed>
  <fix>3d</fix>
</trkpt>
<trkpt lat="40.0714143" lon="-105.2295062">
  <ele>1583.0</ele>
  <time>2026-08-28T17:52:50Z</time>
  <course>60.38</course>
  <speed>4.98</speed>
  <fix>3d</fix>
</trkpt>
<trkpt lat="40.0714195" lon="-105.2294948">
  <ele>1583.02</ele>
  <time>2026-08-28T17:52:50Z</time>
  <course>61.42</course>
  <speed>4.929300153165761</speed>
  <fix>3d</fix>
</trkpt>
<trkpt lat="40.0714143" lon="-105.2295062">
  <ele>1583.0</ele>
  <time>2026-08-28T17:52:50Z</time>
  <course>60.38</course>
  <speed>4.98</speed>
  <fix>3d</fix>
</trkpt>
<trkpt lat="40.0714217" lon="-105.2294898">
  <ele>1583.03</ele>
  <time>2026-08-28T17:52:50Z</time>
  <course>61.41</course>
  <speed>4.929300153165761</speed>
  <fix>3d</fix>
</trkpt>
<trkpt lat="40.0714188" lon="-105.229496">
  <ele>1583.0</ele>
  <time>2026-08-28T17:52:50Z</time>
  <course>60.23</course>
  <speed>4.97</speed>
  <fix>3d</fix>
</trkpt>
<trkpt lat="40.071424" lon="-105.2294847">
  <ele>1583.02</ele>
  <time>2026-08-28T17:52:50Z</time>
  <course>61.4</course>
  <speed>4.924276596618025</speed>
  <fix>3d</fix>
</trkpt>
<trkpt lat="40.0714188" lon="-105.229496">
  <ele>1583.0</ele>
  <time>2026-08-28T17:52:50Z</time>
  <course>60.23</course>
  <speed>4.97</speed>
  <fix>3d</fix>
</trkpt>
<trkpt lat="40.0714262" lon="-105.2294796">
  <ele>1583.03</ele>
  <time>2026-08-28T17:52:50Z</time>
  <course>61.39</course>
  <speed>4.924276596618025</speed>
  <fix>3d</fix>
</trkpt>
<trkpt lat="40.0714232" lon="-105.2294859">
  <ele>1583.0</ele>
  <time>2026-08-28T17:52:50Z</time>
  <course>60.19</course>
  <speed>4.97</speed>
  <fix>3d</fix>
</trkpt>
<trkpt lat="40.0714284" lon="-105.2294745">
  <ele>1583.03</ele>
  <time>2026-08-28T17:52:50Z</time>
  <course>61.38</course>
  <speed>4.932930163705949</speed>
  <fix>3d</fix>
</trkpt>
<trkpt lat="40.0714232" lon="-105.2294859">
  <ele>1583.0</ele>
  <time>2026-08-28T17:52:50Z</time>
  <course>60.19</course>
  <speed>4.97</speed>
  <fix>3d</fix>
</trkpt>
<trkpt lat="40.0714307" lon="-105.2294694">
  <ele>1583.03</ele>
  <time>2026-08-28T17:52:50Z</time>
  <course>61.37</course>
  <speed>4.932930163705949</speed>
  <fix>3d</fix>
</trkpt>
<trkpt lat="40.0714277" lon="-105.2294757">
  <ele>1583.0</ele>
  <time>2026-08-28T17:52:50Z</time>
  <course>60.19</course>
  <speed>4.98</speed>
  <fix>3d</fix>
</trkpt>
<trkpt lat="40.0714329" lon="-105.2294643">
  <ele>1583.03</ele>
  <time>2026-08-28T17:52:50Z</time>
  <course>61.36</course>
  <speed>4.941588813327147</speed>
  <fix>3d</fix>
</trkpt>
<trkpt lat="40.0714277" lon="-105.2294757">
  <ele>1583.0</ele>
  <time>2026-08-28T17:52:50Z</time>
  <course>60.19</course>
  <speed>4.98</speed>
  <fix>3d</fix>
</trkpt>
<trkpt lat="40.0714351" lon="-105.2294592">
  <ele>1583.03</ele>
  <time>2026-08-28T17:52:50Z</time>
  <course>61.35</course>
  <speed>4.94659478833672</speed>
  <fix>3d</fix>
</trkpt>
<trkpt lat="40.0714321" lon="-105.2294656">
  <ele>1583.0</ele>
  <time>2026-08-28T17:52:50Z</time>
  <course>60.19</course>
  <speed>4.99</speed>
  <fix>3d</fix>
</trkpt>
<trkpt lat="40.0714373" lon="-105.2294541">
  <ele>1583.03</ele>
  <time>2026-08-28T17:52:50Z</time>
  <course>61.34</course>
  <speed>4.9552497414358445</speed>
  <fix>3d</fix>
</trkpt>
<trkpt lat="40.0714321" lon="-105.2294656">
  <ele>1583.0</ele>
  <time>2026-08-28T17:52:50Z</time>
  <course>60.19</course>
  <speed>4.99</speed>
  <fix>3d</fix>
</trkpt>
<trkpt lat="40.0714396" lon="-105.229449">
  <ele>1583.03</ele>
  <time>2026-08-28T17:52:50Z</time>
  <course>61.32</course>
  <speed>4.9552497414358445</speed>
  <fix>3d</fix>
</trkpt>
<trkpt lat="40.0714366" lon="-105.2294554">
  <ele>1583.0</ele>
  <time>2026-08-28T17:52:50Z</time>
  <course>60.19</course>
  <speed>5.0</speed>
  <fix>3d</fix>
</trkpt>
<trkpt lat="40.0714418" lon="-105.2294438">
  <ele>1583.03</ele>
  <time>2026-08-28T17:52:50Z</time>
  <course>61.28</course>
  <speed>4.963909749381026</speed>
  <fix>3d</fix>
</trkpt>
<trkpt lat="40.0714366" lon="-105.2294554">
  <ele>1583.0</ele>
  <time>2026-08-28T17:52:50Z</time>
  <course>60.19</course>
  <speed>5.0</speed>
  <fix>3d</fix>
</trkpt>
<trkpt lat="40.0714441" lon="-105.2294387">
  <ele>1583.03</ele>
  <time>2026-08-28T17:52:50Z</time>
  <course>61.28</course>
  <speed>4.963909749381026</speed>
  <fix>3d</fix>
</trkpt>
<trkpt lat="40.0714366" lon="-105.2294554">
  <ele>1583.0</ele>
  <time>2026-08-28T17:52:50Z</time>
  <course>60.19</course>
  <speed>5.0</speed>
  <fix>3d</fix>
</trkpt>
<trkpt lat="40.0714463" lon="-105.2294336">
  <ele>1583.03</ele>
  <time>2026-08-28T17:52:50Z</time>
  <course>61.27</course>
  <speed>4.972574785762402</speed>
  <fix>3d</fix>
</trkpt>
<trkpt lat="40.071441" lon="-105.2294451">
  <ele>1583.0</ele>
  <time>2026-08-28T17:52:50Z</time>
  <course>60.17</course>
  <speed>5.01</speed>
  <fix>3d</fix>
</trkpt>
<trkpt lat="40.0714485" lon="-105.2294285">
  <ele>1583.03</ele>
  <time>2026-08-28T17:52:50Z</time>
  <course>61.26</course>
  <speed>4.972574785762402</speed>
  <fix>3d</fix>
</trkpt>
<trkpt lat="40.071441" lon="-105.2294451">
  <ele>1583.0</ele>
  <time>2026-08-28T17:52:50Z</time>
  <course>60.17</course>
  <speed>5.01</speed>
  <fix>3d</fix>
</trkpt>
<trkpt lat="40.0714507" lon="-105.2294235">
  <ele>1583.04</ele>
  <time>2026-08-28T17:52:50Z</time>
  <course>61.26</course>
  <speed>4.972574785762402</speed>
  <fix>3d</fix>
</trkpt>
<trkpt lat="40.0714455" lon="-105.229435">
  <ele>1583.0</ele>
  <time>2026-08-28T17:52:50Z</time>
  <course>60.15</course>
  <speed>5.02</speed>
  <fix>3d</fix>
</trkpt>
<trkpt lat="40.0714529" lon="-105.2294184">
  <ele>1583.04</ele>
  <time>2026-08-28T17:52:50Z</time>
  <course>61.25</course>
  <speed>4.972574785762402</speed>
  <fix>3d</fix>
</trkpt>
<trkpt lat="40.0714455" lon="-105.229435">
  <ele>1583.0</ele>
  <time>2026-08-28T17:52:50Z</time>
  <course>60.15</course>
  <speed>5.02</speed>
  <fix>3d</fix>
</trkpt>
<trkpt lat="40.0714551" lon="-105.2294133">
  <ele>1583.04</ele>
  <time>2026-08-28T17:52:50Z</time>
  <course>61.24</course>
  <speed>4.981244824338591</speed>
  <fix>3d</fix>
</trkpt>
<trkpt lat="40.07145" lon="-105.2294247">
  <ele>1583.0</ele>
  <time>2026-08-28T17:52:50Z</time>
  <course>60.15</course>
  <speed>5.03</speed>
  <fix>3d</fix>
</trkpt>
<trkpt lat="40.0714574" lon="-105.2294082">
  <ele>1583.04</ele>
  <time>2026-08-28T17:52:50Z</time>
  <course>61.24</course>
  <speed>4.981244824338591</speed>
  <fix>3d</fix>
</trkpt>
<trkpt lat="40.0714545" lon="-105.2294144">
  <ele>1583.0</ele>
  <time>2026-08-28T17:52:50Z</time>
  <course>60.15</course>
  <speed>5.04</speed>
  <fix>3d</fix>
</trkpt>
<trkpt lat="40.0714596" lon="-105.229403">
  <ele>1583.05</ele>
  <time>2026-08-28T17:52:50Z</time>
  <course>61.23</course>
  <speed>4.989919839035493</speed>
  <fix>3d</fix>
</trkpt>
<trkpt lat="40.0714545" lon="-105.2294144">
  <ele>1583.0</ele>
  <time>2026-08-28T17:52:50Z</time>
  <course>60.15</course>
  <speed>5.04</speed>
  <fix>3d</fix>
</trkpt>
<trkpt lat="40.0714618" lon="-105.2293979">
  <ele>1583.05</ele>
  <time>2026-08-28T17:52:50Z</time>
  <course>61.22</course>
  <speed>4.989919839035493</speed>
  <fix>3d</fix>
</trkpt>
<trkpt lat="40.071459" lon="-105.2294042">
  <ele>1583.0</ele>
  <time>2026-08-28T17:52:50Z</time>
  <course>60.15</course>
  <speed>5.05</speed>
  <fix>3d</fix>
</trkpt>
<trkpt lat="40.0714641" lon="-105.2293928">
  <ele>1583.05</ele>
  <time>2026-08-28T17:52:50Z</time>
  <course>61.21</course>
  <speed>4.989919839035493</speed>
  <fix>3d</fix>
</trkpt>
<trkpt lat="40.071459" lon="-105.2294042">
  <ele>1583.0</ele>
  <time>2026-08-28T17:52:50Z</time>
  <course>60.15</course>
  <speed>5.05</speed>
  <fix>3d</fix>
</trkpt>
<trkpt lat="40.0714663" lon="-105.2293876">
  <ele>1583.05</ele>
  <time>2026-08-28T17:52:50Z</time>
  <course>61.26</course>
  <speed>4.998599803945101</speed>
  <fix>3d</fix>
</trkpt>
<trkpt lat="40.0714636" lon="-105.2293939">
  <ele>1583.0</ele>
  <time>2026-08-28T17:52:50Z</time>
  <course>60.18</course>
  <speed>5.06</speed>
  <fix>3d</fix>
</trkpt>
<trkpt lat="40.0714686" lon="-105.2293824">
  <ele>1583.05</ele>
  <time>2026-08-28T17:52:50Z</time>
  <course>61.32</course>
  <speed>5.002339452696108</speed>
  <fix>3d</fix>
</trkpt>
<trkpt lat="40.0714636" lon="-105.2293939">
  <ele>1583.0</ele>
  <time>2026-08-28T17:52:50Z</time>
  <course>60.18</course>
  <speed>5.06</speed>
  <fix>3d</fix>
</trkpt>
<trkpt lat="40.0714708" lon="-105.2293773">
  <ele>1583.06</ele>
  <time>2026-08-28T17:52:50Z</time>
  <course>61.38</course>
  <speed>5.002339452696108</speed>
  <fix>3d</fix>
</trkpt>
<trkpt lat="40.0714681" lon="-105.2293836">
  <ele>1583.0</ele>
  <time>2026-08-28T17:52:50Z</time>
  <course>60.28</course>
  <speed>5.06</speed>
  <fix>3d</fix>
</trkpt>
<trkpt lat="40.0714731" lon="-105.229372">
  <ele>1583.06</ele>
  <time>2026-08-28T17:52:50Z</time>
  <course>61.45</course>
  <speed>5.006116259137417</speed>
  <fix>3d</fix>
</trkpt>
<trkpt lat="40.0714681" lon="-105.2293836">
  <ele>1583.0</ele>
  <time>2026-08-28T17:52:50Z</time>
  <course>60.28</course>
  <speed>5.06</speed>
  <fix>3d</fix>
</trkpt>
<trkpt lat="40.0714753" lon="-105.2293668">
  <ele>1583.06</ele>
  <time>2026-08-28T17:52:50Z</time>
  <course>61.48</course>
  <speed>5.006116259137417</speed>
  <fix>3d</fix>
</trkpt>
<trkpt lat="40.0714726" lon="-105.2293732">
  <ele>1583.0</ele>
  <time>2026-08-28T17:52:50Z</time>
  <course>60.4</course>
  <speed>5.06</speed>
  <fix>3d</fix>
</trkpt>
<trkpt lat="40.0714776" lon="-105.2293616">
  <ele>1583.06</ele>
  <time>2026-08-28T17:52:50Z</time>
  <course>61.5</course>
  <speed>5.014828013003038</speed>
  <fix>3d</fix>
</trkpt>
<trkpt lat="40.0714726" lon="-105.2293732">
  <ele>1583.0</ele>
  <time>2026-08-28T17:52:50Z</time>
  <course>60.4</course>
  <speed>5.06</speed>
  <fix>3d</fix>
</trkpt>
<trkpt lat="40.0714798" lon="-105.2293564">
  <ele>1583.06</ele>
  <time>2026-08-28T17:52:50Z</time>
  <course>61.53</course>
  <speed>5.0099301392334805</speed>
  <fix>3d</fix>
</trkpt>
<trkpt lat="40.0714771" lon="-105.2293629">
  <ele>1583.0</ele>
  <time>2026-08-28T17:52:50Z</time>
  <course>60.48</course>
  <speed>5.07</speed>
  <fix>3d</fix>
</trkpt>
<trkpt lat="40.0714821" lon="-105.2293512">
  <ele>1583.06</ele>
  <time>2026-08-28T17:52:50Z</time>
  <course>61.55</course>
  <speed>5.0099301392334805</speed>
  <fix>3d</fix>
</trkpt>
<trkpt lat="40.0714771" lon="-105.2293629">
  <ele>1583.0</ele>
  <time>2026-08-28T17:52:50Z</time>
  <course>60.48</course>
  <speed>5.07</speed>
  <fix>3d</fix>
</trkpt>
<trkpt lat="40.0714843" lon="-105.229346">
  <ele>1583.06</ele>
  <time>2026-08-28T17:52:50Z</time>
  <course>61.57</course>
  <speed>5.0099301392334805</speed>
  <fix>3d</fix>
</trkpt>
<trkpt lat="40.0714816" lon="-105.2293525">
  <ele>1583.0</ele>
  <time>2026-08-28T17:52:50Z</time>
  <course>60.54</course>
  <speed>5.06</speed>
  <fix>3d</fix>
</trkpt>
<trkpt lat="40.0714866" lon="-105.2293407">
  <ele>1583.06</ele>
  <time>2026-08-28T17:52:50Z</time>
  <course>61.57</course>
  <speed>5.0099301392334805</speed>
  <fix>3d</fix>
</trkpt>
<trkpt lat="40.0714816" lon="-105.2293525">
  <ele>1583.0</ele>
  <time>2026-08-28T17:52:50Z</time>
  <course>60.54</course>
  <speed>5.06</speed>
  <fix>3d</fix>
</trkpt>
<trkpt lat="40.0714888" lon="-105.2293355">
  <ele>1583.06</ele>
  <time>2026-08-28T17:52:50Z</time>
  <course>61.55</course>
  <speed>5.0099301392334805</speed>
  <fix>3d</fix>
</trkpt>
<trkpt lat="40.0714816" lon="-105.2293525">
  <ele>1583.0</ele>
  <time>2026-08-28T17:52:50Z</time>
  <course>60.54</course>
  <speed>5.06</speed>
  <fix>3d</fix>
</trkpt>
<trkpt lat="40.071491" lon="-105.2293304">
  <ele>1583.05</ele>
  <time>2026-08-28T17:52:50Z</time>
  <course>61.44</course>
  <speed>5.014828013003038</speed>
  <fix>3d</fix>
</trkpt>
<trkpt lat="40.071486" lon="-105.2293421">
  <ele>1583.0</ele>
  <time>2026-08-28T17:52:50Z</time>
  <course>60.56</course>
  <speed>5.06</speed>
  <fix>3d</fix>
</trkpt>
<trkpt lat="40.0714932" lon="-105.2293252">
  <ele>1583.05</ele>
  <time>2026-08-28T17:52:50Z</time>
  <course>61.2</course>
  <speed>5.0110378166603375</speed>
  <fix>3d</fix>
</trkpt>
<trkpt lat="40.071486" lon="-105.2293421">
  <ele>1583.0</ele>
  <time>2026-08-28T17:52:50Z</time>
  <course>60.56</course>
  <speed>5.06</speed>
  <fix>3d</fix>
</trkpt>
<trkpt lat="40.0714955" lon="-105.2293201">
  <ele>1583.05</ele>
  <time>2026-08-28T17:52:50Z</time>
  <course>60.93</course>
  <speed>5.003568726419174</speed>
  <fix>3d</fix>
</trkpt>
<trkpt lat="40.0714905" lon="-105.2293318">
  <ele>1583.0</ele>
  <time>2026-08-28T17:52:50Z</time>
  <course>60.38</course>
  <speed>5.06</speed>
  <fix>3d</fix>
</trkpt>
<trkpt lat="40.0714977" lon="-105.229315">
  <ele>1583.05</ele>
  <time>2026-08-28T17:52:50Z</time>
  <course>60.66</course>
  <speed>5.004897601350102</speed>
  <fix>3d</fix>
</trkpt>
<trkpt lat="40.0714905" lon="-105.2293318">
  <ele>1583.0</ele>
  <time>2026-08-28T17:52:50Z</time>
  <course>60.38</course>
  <speed>5.06</speed>
  <fix>3d</fix>
</trkpt>
<trkpt lat="40.0715" lon="-105.22931">
  <ele>1583.05</ele>
  <time>2026-08-28T17:52:50Z</time>
  <course>60.44</course>
  <speed>5.0063259981747095</speed>
  <fix>3d</fix>
</trkpt>
<trkpt lat="40.0714951" lon="-105.2293215">
  <ele>1583.0</ele>
  <time>2026-08-28T17:52:50Z</time>
  <course>59.93</course>
  <speed>5.06</speed>
  <fix>3d</fix>
</trkpt>
<trkpt lat="40.0715023" lon="-105.2293049">
  <ele>1583.05</ele>
  <time>2026-08-28T17:52:50Z</time>
  <course>60.23</course>
  <speed>4.99415658545064</speed>
  <fix>3d</fix>
</trkpt>
<trkpt lat="40.0714951" lon="-105.2293215">
  <ele>1583.0</ele>
  <time>2026-08-28T17:52:50Z</time>
  <course>59.93</course>
  <speed>5.06</speed>
  <fix>3d</fix>
</trkpt>
<trkpt lat="40.0715046" lon="-105.2292998">
  <ele>1583.05</ele>
  <time>2026-08-28T17:52:50Z</time>
  <course>60.03</course>
  <speed>4.99065126010624</speed>
  <fix>3d</fix>
</trkpt>
<trkpt lat="40.0714996" lon="-105.2293112">
  <ele>1583.0</ele>
  <time>2026-08-28T17:52:50Z</time>
  <course>59.44</course>
  <speed>5.05</speed>
  <fix>3d</fix>
</trkpt>
<trkpt lat="40.071507" lon="-105.2292948">
  <ele>1583.05</ele>
  <time>2026-08-28T17:52:50Z</time>
  <course>59.83</course>
  <speed>4.992324108068305</speed>
  <fix>3d</fix>
</trkpt>
<trkpt lat="40.0715043" lon="-105.229301">
  <ele>1583.0</ele>
  <time>2026-08-28T17:52:50Z</time>
  <course>59.03</course>
  <speed>5.05</speed>
  <fix>3d</fix>
</trkpt>
<trkpt lat="40.0715093" lon="-105.2292897">
  <ele>1583.05</ele>
  <time>2026-08-28T17:52:50Z</time>
  <course>59.69</course>
  <speed>4.997479364639738</speed>
  <fix>3d</fix>
</trkpt>
<trkpt lat="40.0715043" lon="-105.229301">
  <ele>1583.0</ele>
  <time>2026-08-28T17:52:50Z</time>
  <course>59.03</course>
  <speed>5.05</speed>
  <fix>3d</fix>
</trkpt>
<trkpt lat="40.0715117" lon="-105.2292847">
  <ele>1583.05</ele>
  <time>2026-08-28T17:52:50Z</time>
  <course>59.6</course>
  <speed>4.994096514886351</speed>
  <fix>3d</fix>
</trkpt>
<trkpt lat="40.071509" lon="-105.2292909">
  <ele>1583.0</ele>
  <time>2026-08-28T17:52:50Z</time>
  <course>58.72</course>
  <speed>5.05</speed>
  <fix>3d</fix>
</trkpt>
<trkpt lat="40.071514" lon="-105.2292796">
  <ele>1583.05</ele>
  <time>2026-08-28T17:52:50Z</time>
  <course>59.58</course>
  <speed>4.994096514886351</speed>
  <fix>3d</fix>
</trkpt>
<trkpt lat="40.071509" lon="-105.2292909">
  <ele>1583.0</ele>
  <time>2026-08-28T17:52:50Z</time>
  <course>58.72</course>
  <speed>5.05</speed>
  <fix>3d</fix>
</trkpt>
<trkpt lat="40.0715164" lon="-105.2292745">
  <ele>1583.05</ele>
  <time>2026-08-28T17:52:50Z</time>
  <course>59.53</course>
  <speed>4.994096514886351</speed>
  <fix>3d</fix>
</trkpt>
<trkpt lat="40.0715137" lon="-105.2292807">
  <ele>1583.0</ele>
  <time>2026-08-28T17:52:50Z</time>
  <course>58.57</course>
  <speed>5.05</speed>
  <fix>3d</fix>
</trkpt>
<trkpt lat="40.0715188" lon="-105.2292694">
  <ele>1583.05</ele>
  <time>2026-08-28T17:52:50Z</time>
  <course>59.49</course>
  <speed>4.994096514886351</speed>
  <fix>3d</fix>
</trkpt>
<trkpt lat="40.0715137" lon="-105.2292807">
  <ele>1583.0</ele>
  <time>2026-08-28T17:52:50Z</time>
  <course>58.57</course>
  <speed>5.05</speed>
  <fix>3d</fix>
</trkpt>
<trkpt lat="40.0715212" lon="-105.2292643">
  <ele>1583.04</ele>
  <time>2026-08-28T17:52:50Z</time>
  <course>59.48</course>
  <speed>4.994096514886351</speed>
  <fix>3d</fix>
</trkpt>
<trkpt lat="40.0715184" lon="-105.2292706">
  <ele>1583.0</ele>
  <time>2026-08-28T17:52:50Z</time>
  <course>58.53</course>
  <speed>5.05</speed>
  <fix>3d</fix>
</trkpt>
<trkpt lat="40.0715236" lon="-105.2292592">
  <ele>1583.04</ele>
  <time>2026-08-28T17:52:50Z</time>
  <course>59.45</course>
  <speed>4.999289949582841</speed>
  <fix>3d</fix>
</trkpt>
<trkpt lat="40.0715184" lon="-105.2292706">
  <ele>1583.0</ele>
  <time>2026-08-28T17:52:50Z</time>
  <course>58.53</course>
  <speed>5.05</speed>
  <fix>3d</fix>
</trkpt>
<trkpt lat="40.071526" lon="-105.2292541">
  <ele>1583.04</ele>
  <time>2026-08-28T17:52:50Z</time>
  <course>59.42</course>
  <speed>4.999289949582841</speed>
  <fix>3d</fix>
</trkpt>
<trkpt lat="40.0715232" lon="-105.2292605">
  <ele>1583.0</ele>
  <time>2026-08-28T17:52:50Z</time>
  <course>58.48</course>
  <speed>5.04</speed>
  <fix>3d</fix>
</trkpt>
<trkpt lat="40.0715284" lon="-105.229249">
  <ele>1583.04</ele>
  <time>2026-08-28T17:52:50Z</time>
  <course>59.42</course>
  <speed>4.999289949582841</speed>
  <fix>3d</fix>
</trkpt>
<trkpt lat="40.0715232" lon="-105.2292605">
  <ele>1583.0</ele>
  <time>2026-08-28T17:52:50Z</time>
  <course>58.48</course>
  <speed>5.04</speed>
  <fix>3d</fix>
</trkpt>
<trkpt lat="40.0715307" lon="-105.229244">
  <ele>1583.04</ele>
  <time>2026-08-28T17:52:50Z</time>
  <course>59.4</course>
  <speed>4.999289949582841</speed>
  <fix>3d</fix>
</trkpt>
<trkpt lat="40.0715279" lon="-105.2292504">
  <ele>1583.0</ele>
  <time>2026-08-28T17:52:50Z</time>
  <course>58.44</course>
  <speed>5.04</speed>
  <fix>3d</fix>
</trkpt>
<trkpt lat="40.0715331" lon="-105.2292389">
  <ele>1583.03</ele>
  <time>2026-08-28T17:52:50Z</time>
  <course>59.38</course>
  <speed>4.999289949582841</speed>
  <fix>3d</fix>
</trkpt>
<trkpt lat="40.0715279" lon="-105.2292504">
  <ele>1583.0</ele>
  <time>2026-08-28T17:52:50Z</time>
  <course>58.44</course>
  <speed>5.04</speed>
  <fix>3d</fix>
</trkpt>
<trkpt lat="40.0715355" lon="-105.2292338">
  <ele>1583.03</ele>
  <time>2026-08-28T17:52:51Z</time>
  <course>59.37</course>
  <speed>4.999289949582841</speed>
  <fix>3d</fix>
</trkpt>
<trkpt lat="40.0715327" lon="-105.2292403">
  <ele>1583.0</ele>
  <time>2026-08-28T17:52:51Z</time>
  <course>58.42</course>
  <speed>5.03</speed>
  <fix>3d</fix>
</trkpt>
<trkpt lat="40.0715379" lon="-105.2292288">
  <ele>1583.03</ele>
  <time>2026-08-28T17:52:51Z</time>
  <course>59.37</course>
  <speed>4.999289949582841</speed>
  <fix>3d</fix>
</trkpt>
<trkpt lat="40.0715327" lon="-105.2292403">
  <ele>1583.0</ele>
  <time>2026-08-28T17:52:51Z</time>
  <course>58.42</course>
  <speed>5.03</speed>
  <fix>3d</fix>
</trkpt>
<trkpt lat="40.0715403" lon="-105.2292237">
  <ele>1583.03</ele>
  <time>2026-08-28T17:52:51Z</time>
  <course>59.37</course>
  <speed>4.999289949582841</speed>
  <fix>3d</fix>
</trkpt>
<trkpt lat="40.0715327" lon="-105.2292403">
  <ele>1583.0</ele>
  <time>2026-08-28T17:52:51Z</time>
  <course>58.42</course>
  <speed>5.03</speed>
  <fix>3d</fix>
</trkpt>
<trkpt lat="40.0715426" lon="-105.2292187">
  <ele>1583.02</ele>
  <time>2026-08-28T17:52:51Z</time>
  <course>59.37</course>
  <speed>4.990751446425678</speed>
  <fix>3d</fix>
</trkpt>
<trkpt lat="40.0715374" lon="-105.2292302">
  <ele>1583.0</ele>
  <time>2026-08-28T17:52:51Z</time>
  <course>58.41</course>
  <speed>5.03</speed>
  <fix>3d</fix>
</trkpt>
<trkpt lat="40.071545" lon="-105.2292137">
  <ele>1583.02</ele>
  <time>2026-08-28T17:52:51Z</time>
  <course>59.37</course>
  <speed>4.990751446425678</speed>
  <fix>3d</fix>
</trkpt>
<trkpt lat="40.0715374" lon="-105.2292302">
  <ele>1583.0</ele>
  <time>2026-08-28T17:52:51Z</time>
  <course>58.41</course>
  <speed>5.03</speed>
  <fix>3d</fix>
</trkpt>
<trkpt lat="40.0715473" lon="-105.2292087">
  <ele>1583.02</ele>
  <time>2026-08-28T17:52:51Z</time>
  <course>59.38</course>
  <speed>4.990751446425678</speed>
  <fix>3d</fix>
</trkpt>
<trkpt lat="40.0715421" lon="-105.2292202">
  <ele>1583.0</ele>
  <time>2026-08-28T17:52:51Z</time>
  <course>58.41</course>
  <speed>5.03</speed>
  <fix>3d</fix>
</trkpt>
<trkpt lat="40.0715497" lon="-105.2292037">
  <ele>1583.01</ele>
  <time>2026-08-28T17:52:51Z</time>
  <course>59.38</course>
  <speed>4.985549117198627</speed>
  <fix>3d</fix>
</trkpt>
<trkpt lat="40.0715421" lon="-105.2292202">
  <ele>1583.0</ele>
  <time>2026-08-28T17:52:51Z</time>
  <course>58.41</course>
  <speed>5.03</speed>
  <fix>3d</fix>
</trkpt>
<trkpt lat="40.071552" lon="-105.2291987">
  <ele>1583.01</ele>
  <time>2026-08-28T17:52:51Z</time>
  <course>59.38</course>
  <speed>4.985549117198627</speed>
  <fix>3d</fix>
</trkpt>
<trkpt lat="40.0715469" lon="-105.2292101">
  <ele>1583.0</ele>
  <time>2026-08-28T17:52:51Z</time>
  <course>58.41</course>
  <speed>5.03</speed>
  <fix>3d</fix>
</trkpt>
<trkpt lat="40.0715544" lon="-105.2291937">
  <ele>1583.01</ele>
  <time>2026-08-28T17:52:51Z</time>
  <course>59.38</course>
  <speed>4.985549117198627</speed>
  <fix>3d</fix>
</trkpt>
<trkpt lat="40.0715516" lon="-105.2292">
  <ele>1583.0</ele>
  <time>2026-08-28T17:52:51Z</time>
  <course>58.41</course>
  <speed>5.03</speed>
  <fix>3d</fix>
</trkpt>
<trkpt lat="40.0715568" lon="-105.2291887">
  <ele>1583.01</ele>
  <time>2026-08-28T17:52:51Z</time>
  <course>59.39</course>
  <speed>4.985549117198627</speed>
  <fix>3d</fix>
</trkpt>
<trkpt lat="40.0715516" lon="-105.2292">
  <ele>1583.0</ele>
  <time>2026-08-28T17:52:51Z</time>
  <course>58.41</course>
  <speed>5.03</speed>
  <fix>3d</fix>
</trkpt>
<trkpt lat="40.0715591" lon="-105.2291836">
  <ele>1583.0</ele>
  <time>2026-08-28T17:52:51Z</time>
  <course>59.47</course>
  <speed>4.985549117198627</speed>
  <fix>3d</fix>
</trkpt>
<trkpt lat="40.0715563" lon="-105.2291899">
  <ele>1583.0</ele>
  <time>2026-08-28T17:52:51Z</time>
  <course>58.46</course>
  <speed>5.03</speed>
  <fix>3d</fix>
</trkpt>
<trkpt lat="40.0715615" lon="-105.2291786">
  <ele>1583.0</ele>
  <time>2026-08-28T17:52:51Z</time>
  <course>59.59</course>
  <speed>4.988917718303239</speed>
  <fix>3d</fix>
</trkpt>
<trkpt lat="40.0715563" lon="-105.2291899">
  <ele>1583.0</ele>
  <time>2026-08-28T17:52:51Z</time>
  <course>58.46</course>
  <speed>5.03</speed>
  <fix>3d</fix>
</trkpt>
<trkpt lat="40.0715638" lon="-105.2291735">
  <ele>1582.99</ele>
  <time>2026-08-28T17:52:51Z</time>
  <course>59.66</course>
  <speed>4.992324108068305</speed>
  <fix>3d</fix>
</trkpt>
<trkpt lat="40.071561" lon="-105.2291799">
  <ele>1583.0</ele>
  <time>2026-08-28T17:52:51Z</time>
  <course>58.6</course>
  <speed>5.03</speed>
  <fix>3d</fix>
</trkpt>
<trkpt lat="40.0715662" lon="-105.2291684">
  <ele>1582.99</ele>
  <time>2026-08-28T17:52:51Z</time>
  <course>59.73</course>
  <speed>4.992324108068305</speed>
  <fix>3d</fix>
</trkpt>
<trkpt lat="40.071561" lon="-105.2291799">
  <ele>1583.0</ele>
  <time>2026-08-28T17:52:51Z</time>
  <course>58.6</course>
  <speed>5.03</speed>
  <fix>3d</fix>
</trkpt>
<trkpt lat="40.0715685" lon="-105.2291634">
  <ele>1582.99</ele>
  <time>2026-08-28T17:52:51Z</time>
  <course>59.79</course>
  <speed>5.000899919014577</speed>
  <fix>3d</fix>
</trkpt>
<trkpt lat="40.0715657" lon="-105.2291698">
  <ele>1583.0</ele>
  <time>2026-08-28T17:52:51Z</time>
  <course>58.76</course>
  <speed>5.03</speed>
  <fix>3d</fix>
</trkpt>
<trkpt lat="40.0715709" lon="-105.2291582">
  <ele>1582.99</ele>
  <time>2026-08-28T17:52:51Z</time>
  <course>59.86</course>
  <speed>4.995768209194658</speed>
  <fix>3d</fix>
</trkpt>
<trkpt lat="40.0715657" lon="-105.2291698">
  <ele>1583.0</ele>
  <time>2026-08-28T17:52:51Z</time>
  <course>58.76</course>
  <speed>5.03</speed>
  <fix>3d</fix>
</trkpt>
<trkpt lat="40.0715732" lon="-105.2291531">
  <ele>1582.99</ele>
  <time>2026-08-28T17:52:51Z</time>
  <course>59.93</course>
  <speed>5.004358100695832</speed>
  <fix>3d</fix>
</trkpt>
<trkpt lat="40.0715704" lon="-105.2291597">
  <ele>1583.0</ele>
  <time>2026-08-28T17:52:51Z</time>
  <course>58.9</course>
  <speed>5.03</speed>
  <fix>3d</fix>
</trkpt>
<trkpt lat="40.0715756" lon="-105.229148">
  <ele>1583.0</ele>
  <time>2026-08-28T17:52:51Z</time>
  <course>59.99</course>
  <speed>4.999249943741561</speed>
  <fix>3d</fix>
</trkpt>
<trkpt lat="40.0715704" lon="-105.2291597">
  <ele>1583.0</ele>
  <time>2026-08-28T17:52:51Z</time>
  <course>58.9</course>
  <speed>5.03</speed>
  <fix>3d</fix>
</trkpt>
<trkpt lat="40.0715779" lon="-105.2291429">
  <ele>1583.0</ele>
  <time>2026-08-28T17:52:51Z</time>
  <course>60.06</course>
  <speed>4.999249943741561</speed>
  <fix>3d</fix>
</trkpt>
<trkpt lat="40.071575" lon="-105.2291496">
  <ele>1583.0</ele>
  <time>2026-08-28T17:52:51Z</time>
  <course>59.04</course>
  <speed>5.03</speed>
  <fix>3d</fix>
</trkpt>
<trkpt lat="40.0715802" lon="-105.2291378">
  <ele>1583.0</ele>
  <time>2026-08-28T17:52:51Z</time>
  <course>60.13</course>
  <speed>4.99415658545064</speed>
  <fix>3d</fix>
</trkpt>
<trkpt lat="40.071575" lon="-105.2291496">
  <ele>1583.0</ele>
  <time>2026-08-28T17:52:51Z</time>
  <course>59.04</course>
  <speed>5.03</speed>
  <fix>3d</fix>
</trkpt>
<trkpt lat="40.0715825" lon="-105.2291327">
  <ele>1583.0</ele>
  <time>2026-08-28T17:52:51Z</time>
  <course>60.22</course>
  <speed>4.99769947075652</speed>
  <fix>3d</fix>
</trkpt>
<trkpt lat="40.0715797" lon="-105.2291395">
  <ele>1583.0</ele>
  <time>2026-08-28T17:52:51Z</time>
  <course>59.19</course>
  <speed>5.02</speed>
  <fix>3d</fix>
</trkpt>
<trkpt lat="40.0715849" lon="-105.2291276">
  <ele>1583.0</ele>
  <time>2026-08-28T17:52:51Z</time>
  <course>60.36</course>
  <speed>4.992644589794071</speed>
  <fix>3d</fix>
</trkpt>
<trkpt lat="40.0715797" lon="-105.2291395">
  <ele>1583.0</ele>
  <time>2026-08-28T17:52:51Z</time>
  <course>59.19</course>
  <speed>5.02</speed>
  <fix>3d</fix>
</trkpt>
<trkpt lat="40.0715872" lon="-105.2291225">
  <ele>1583.0</ele>
  <time>2026-08-28T17:52:51Z</time>
  <course>60.5</course>
  <speed>4.9962485926943225</speed>
  <fix>3d</fix>
</trkpt>
<trkpt lat="40.0715797" lon="-105.2291395">
  <ele>1583.0</ele>
  <time>2026-08-28T17:52:51Z</time>
  <course>59.19</course>
  <speed>5.02</speed>
  <fix>3d</fix>
</trkpt>
<trkpt lat="40.0715894" lon="-105.2291175">
  <ele>1583.0</ele>
  <time>2026-08-28T17:52:51Z</time>
  <course>60.63</course>
  <speed>4.991232312766057</speed>
  <fix>3d</fix>
</trkpt>
<trkpt lat="40.0715844" lon="-105.2291293">
  <ele>1583.0</ele>
  <time>2026-08-28T17:52:51Z</time>
  <course>59.41</course>
  <speed>5.02</speed>
  <fix>3d</fix>
</trkpt>
<trkpt lat="40.0715917" lon="-105.2291124">
  <ele>1583.0</ele>
  <time>2026-08-28T17:52:51Z</time>
  <course>60.74</course>
  <speed>4.9948973963435925</speed>
  <fix>3d</fix>
</trkpt>
<trkpt lat="40.0715844" lon="-105.2291293">
  <ele>1583.0</ele>
  <time>2026-08-28T17:52:51Z</time>
  <course>59.41</course>
  <speed>5.02</speed>
  <fix>3d</fix>
</trkpt>
<trkpt lat="40.0715939" lon="-105.2291074">
  <ele>1582.99</ele>
  <time>2026-08-28T17:52:51Z</time>
  <course>60.84</course>
  <speed>4.989919839035493</speed>
  <fix>3d</fix>
</trkpt>
<trkpt lat="40.0715889" lon="-105.2291191">
  <ele>1583.0</ele>
  <time>2026-08-28T17:52:51Z</time>
  <course>59.66</course>
  <speed>5.02</speed>
  <fix>3d</fix>
</trkpt>
<trkpt lat="40.0715962" lon="-105.2291023">
  <ele>1583.0</ele>
  <time>2026-08-28T17:52:51Z</time>
  <course>60.91</course>
  <speed>4.989919839035493</speed>
  <fix>3d</fix>
</trkpt>
<trkpt lat="40.0715889" lon="-105.2291191">
  <ele>1583.0</ele>
  <time>2026-08-28T17:52:51Z</time>
  <course>59.66</course>
  <speed>5.02</speed>
  <fix>3d</fix>
</trkpt>
<trkpt lat="40.0715984" lon="-105.2290973">
  <ele>1583.0</ele>
  <time>2026-08-28T17:52:51Z</time>
  <course>60.98</course>
  <speed>4.984957371934088</speed>
  <fix>3d</fix>
</trkpt>
<trkpt lat="40.0715935" lon="-105.2291089">
  <ele>1583.0</ele>
  <time>2026-08-28T17:52:51Z</time>
  <course>59.87</course>
  <speed>5.02</speed>
  <fix>3d</fix>
</trkpt>
<trkpt lat="40.0716006" lon="-105.2290922">
  <ele>1583.0</ele>
  <time>2026-08-28T17:52:51Z</time>
  <course>61.04</course>
  <speed>4.984957371934088</speed>
  <fix>3d</fix>
</trkpt>
<trkpt lat="40.0715935" lon="-105.2291089">
  <ele>1583.0</ele>
  <time>2026-08-28T17:52:51Z</time>
  <course>59.87</course>
  <speed>5.02</speed>
  <fix>3d</fix>
</trkpt>
<trkpt lat="40.0716029" lon="-105.2290871">
  <ele>1583.0</ele>
  <time>2026-08-28T17:52:51Z</time>
  <course>61.11</course>
  <speed>4.988707247373813</speed>
  <fix>3d</fix>
</trkpt>
<trkpt lat="40.071598" lon="-105.2290987">
  <ele>1583.0</ele>
  <time>2026-08-28T17:52:51Z</time>
  <course>60.02</course>
  <speed>5.02</speed>
  <fix>3d</fix>
</trkpt>
<trkpt lat="40.0716051" lon="-105.229082">
  <ele>1583.0</ele>
  <time>2026-08-28T17:52:51Z</time>
  <course>61.19</course>
  <speed>4.983783703171717</speed>
  <fix>3d</fix>
</trkpt>
<trkpt lat="40.0716025" lon="-105.2290884">
  <ele>1583.0</ele>
  <time>2026-08-28T17:52:51Z</time>
  <course>60.16</course>
  <speed>5.02</speed>
  <fix>3d</fix>
</trkpt>
<trkpt lat="40.0716073" lon="-105.2290769">
  <ele>1583.0</ele>
  <time>2026-08-28T17:52:51Z</time>
  <course>61.36</course>
  <speed>4.9875946106314615</speed>
  <fix>3d</fix>
</trkpt>
<trkpt lat="40.0716025" lon="-105.2290884">
  <ele>1583.0</ele>
  <time>2026-08-28T17:52:51Z</time>
  <course>60.16</course>
  <speed>5.02</speed>
  <fix>3d</fix>
</trkpt>
<trkpt lat="40.0716095" lon="-105.2290718">
  <ele>1583.0</ele>
  <time>2026-08-28T17:52:51Z</time>
  <course>61.49</course>
  <speed>4.9827101059563965</speed>
  <fix>3d</fix>
</trkpt>
<trkpt lat="40.071607" lon="-105.2290783">
  <ele>1583.0</ele>
  <time>2026-08-28T17:52:51Z</time>
  <course>60.39</course>
  <speed>5.02</speed>
  <fix>3d</fix>
</trkpt>
<trkpt lat="40.0716118" lon="-105.2290666">
  <ele>1583.0</ele>
  <time>2026-08-28T17:52:51Z</time>
  <course>61.63</course>
  <speed>4.986581995716104</speed>
  <fix>3d</fix>
</trkpt>
<trkpt lat="40.071607" lon="-105.2290783">
  <ele>1583.0</ele>
  <time>2026-08-28T17:52:51Z</time>
  <course>60.39</course>
  <speed>5.02</speed>
  <fix>3d</fix>
</trkpt>
<trkpt lat="40.071614" lon="-105.2290615">
  <ele>1583.0</ele>
  <time>2026-08-28T17:52:51Z</time>
  <course>61.76</course>
  <speed>4.990490957811666</speed>
  <fix>3d</fix>
</trkpt>
<trkpt lat="40.0716113" lon="-105.229068">
  <ele>1583.0</ele>
  <time>2026-08-28T17:52:51Z</time>
  <course>60.67</course>
  <speed>5.02</speed>
  <fix>3d</fix>
</trkpt>
<trkpt lat="40.0716162" lon="-105.2290563">
  <ele>1583.01</ele>
  <time>2026-08-28T17:52:51Z</time>
  <course>61.88</course>
  <speed>4.999249943741561</speed>
  <fix>3d</fix>
</trkpt>
<trkpt lat="40.0716113" lon="-105.229068">
  <ele>1583.0</ele>
  <time>2026-08-28T17:52:51Z</time>
  <course>60.67</course>
  <speed>5.02</speed>
  <fix>3d</fix>
</trkpt>
<trkpt lat="40.0716184" lon="-105.2290511">
  <ele>1583.01</ele>
  <time>2026-08-28T17:52:51Z</time>
  <course>61.96</course>
  <speed>4.994436905197622</speed>
  <fix>3d</fix>
</trkpt>
<trkpt lat="40.0716158" lon="-105.2290577">
  <ele>1583.0</ele>
  <time>2026-08-28T17:52:51Z</time>
  <course>60.91</course>
  <speed>5.02</speed>
  <fix>3d</fix>
</trkpt>
<trkpt lat="40.0716206" lon="-105.2290459">
  <ele>1583.01</ele>
  <time>2026-08-28T17:52:51Z</time>
  <course>62.03</course>
  <speed>5.003208970250992</speed>
  <fix>3d</fix>
</trkpt>
<trkpt lat="40.0716158" lon="-105.2290577">
  <ele>1583.0</ele>
  <time>2026-08-28T17:52:51Z</time>
  <course>60.91</course>
  <speed>5.02</speed>
  <fix>3d</fix>
</trkpt>
<trkpt lat="40.0716228" lon="-105.2290407">
  <ele>1583.01</ele>
  <time>2026-08-28T17:52:51Z</time>
  <course>62.1</course>
  <speed>4.998419750281083</speed>
  <fix>3d</fix>
</trkpt>
<trkpt lat="40.0716202" lon="-105.2290473">
  <ele>1583.0</ele>
  <time>2026-08-28T17:52:51Z</time>
  <course>61.08</course>
  <speed>5.03</speed>
  <fix>3d</fix>
</trkpt>
<trkpt lat="40.071625" lon="-105.2290354">
  <ele>1583.01</ele>
  <time>2026-08-28T17:52:51Z</time>
  <course>62.17</course>
  <speed>5.007204809072622</speed>
  <fix>3d</fix>
</trkpt>
<trkpt lat="40.0716202" lon="-105.2290473">
  <ele>1583.0</ele>
  <time>2026-08-28T17:52:51Z</time>
  <course>61.08</course>
  <speed>5.03</speed>
  <fix>3d</fix>
</trkpt>
<trkpt lat="40.0716272" lon="-105.2290302">
  <ele>1583.01</ele>
  <time>2026-08-28T17:52:51Z</time>
  <course>62.26</course>
  <speed>5.002439404930358</speed>
  <fix>3d</fix>
</trkpt>
<trkpt lat="40.0716245" lon="-105.229037">
  <ele>1583.0</ele>
  <time>2026-08-28T17:52:51Z</time>
  <course>61.23</course>
  <speed>5.02</speed>
  <fix>3d</fix>
</trkpt>
<trkpt lat="40.0716293" lon="-105.229025">
  <ele>1583.02</ele>
  <time>2026-08-28T17:52:51Z</time>
  <course>62.42</course>
  <speed>5.006495780483591</speed>
  <fix>3d</fix>
</trkpt>
<trkpt lat="40.0716245" lon="-105.229037">
  <ele>1583.0</ele>
  <time>2026-08-28T17:52:51Z</time>
  <course>61.23</course>
  <speed>5.02</speed>
  <fix>3d</fix>
</trkpt>
<trkpt lat="40.0716315" lon="-105.2290198">
  <ele>1583.02</ele>
  <time>2026-08-28T17:52:51Z</time>
  <course>62.56</course>
  <speed>5.001769686820856</speed>
  <fix>3d</fix>
</trkpt>
<trkpt lat="40.0716289" lon="-105.2290266">
  <ele>1583.0</ele>
  <time>2026-08-28T17:52:51Z</time>
  <course>61.46</course>
  <speed>5.02</speed>
  <fix>3d</fix>
</trkpt>
<trkpt lat="40.0716337" lon="-105.2290146">
  <ele>1583.03</ele>
  <time>2026-08-28T17:52:51Z</time>
  <course>62.69</course>
  <speed>5.005886534870722</speed>
  <fix>3d</fix>
</trkpt>
<trkpt lat="40.0716289" lon="-105.2290266">
  <ele>1583.0</ele>
  <time>2026-08-28T17:52:51Z</time>
  <course>61.46</course>
  <speed>5.02</speed>
  <fix>3d</fix>
</trkpt>
<trkpt lat="40.0716358" lon="-105.2290093">
  <ele>1583.03</ele>
  <time>2026-08-28T17:52:51Z</time>
  <course>62.83</course>
  <speed>5.00119985603455</speed>
  <fix>3d</fix>
</trkpt>
<trkpt lat="40.0716289" lon="-105.2290266">
  <ele>1583.0</ele>
  <time>2026-08-28T17:52:51Z</time>
  <course>61.46</course>
  <speed>5.02</speed>
  <fix>3d</fix>
</trkpt>
<trkpt lat="40.0716379" lon="-105.2290042">
  <ele>1583.03</ele>
  <time>2026-08-28T17:52:51Z</time>
  <course>62.97</course>
  <speed>5.0007299467177795</speed>
  <fix>3d</fix>
</trkpt>
<trkpt lat="40.0716331" lon="-105.2290163">
  <ele>1583.0</ele>
  <time>2026-08-28T17:52:51Z</time>
  <course>61.75</course>
  <speed>5.02</speed>
  <fix>3d</fix>
</trkpt>
<trkpt lat="40.07164" lon="-105.228999">
  <ele>1583.03</ele>
  <time>2026-08-28T17:52:51Z</time>
  <course>63.05</course>
  <speed>5.0007299467177795</speed>
  <fix>3d</fix>
</trkpt>
<trkpt lat="40.0716331" lon="-105.2290163">
  <ele>1583.0</ele>
  <time>2026-08-28T17:52:51Z</time>
  <course>61.75</course>
  <speed>5.02</speed>
  <fix>3d</fix>
</trkpt>
<trkpt lat="40.0716421" lon="-105.2289938">
  <ele>1583.03</ele>
  <time>2026-08-28T17:52:51Z</time>
  <course>63.13</course>
  <speed>4.9960984778124615</speed>
  <fix>3d</fix>
</trkpt>
<trkpt lat="40.0716374" lon="-105.2290059">
  <ele>1583.0</ele>
  <time>2026-08-28T17:52:51Z</time>
  <course>62.0</course>
  <speed>5.02</speed>
  <fix>3d</fix>
</trkpt>
<trkpt lat="40.0716442" lon="-105.2289886">
  <ele>1583.03</ele>
  <time>2026-08-28T17:52:51Z</time>
  <course>63.2</course>
  <speed>4.991482745637813</speed>
  <fix>3d</fix>
</trkpt>
<trkpt lat="40.0716374" lon="-105.2290059">
  <ele>1583.0</ele>
  <time>2026-08-28T17:52:51Z</time>
  <course>62.0</course>
  <speed>5.02</speed>
  <fix>3d</fix>
</trkpt>
<trkpt lat="40.0716462" lon="-105.2289835">
  <ele>1583.03</ele>
  <time>2026-08-28T17:52:51Z</time>
  <course>63.27</course>
  <speed>4.991482745637813</speed>
  <fix>3d</fix>
</trkpt>
<trkpt lat="40.0716417" lon="-105.2289954">
  <ele>1583.0</ele>
  <time>2026-08-28T17:52:51Z</time>
  <course>62.18</course>
  <speed>5.02</speed>
  <fix>3d</fix>
</trkpt>
<trkpt lat="40.0716483" lon="-105.2289783">
  <ele>1583.03</ele>
  <time>2026-08-28T17:52:51Z</time>
  <course>63.36</course>
  <speed>4.986882793890388</speed>
  <fix>3d</fix>
</trkpt>
<trkpt lat="40.0716458" lon="-105.228985">
  <ele>1583.0</ele>
  <time>2026-08-28T17:52:51Z</time>
  <course>62.34</course>
  <speed>5.01</speed>
  <fix>3d</fix>
</trkpt>
<trkpt lat="40.0716504" lon="-105.2289731">
  <ele>1583.02</ele>
  <time>2026-08-28T17:52:51Z</time>
  <course>63.57</course>
  <speed>4.98663213000518</speed>
  <fix>3d</fix>
</trkpt>
<trkpt lat="40.0716458" lon="-105.228985">
  <ele>1583.0</ele>
  <time>2026-08-28T17:52:51Z</time>
  <course>62.34</course>
  <speed>5.01</speed>
  <fix>3d</fix>
</trkpt>
<trkpt lat="40.0716525" lon="-105.2289678">
  <ele>1583.02</ele>
  <time>2026-08-28T17:52:51Z</time>
  <course>63.87</course>
  <speed>4.9864817256257945</speed>
  <fix>3d</fix>
</trkpt>
<trkpt lat="40.07165" lon="-105.2289745">
  <ele>1583.0</ele>
  <time>2026-08-28T17:52:51Z</time>
  <course>62.67</course>
  <speed>5.02</speed>
  <fix>3d</fix>
</trkpt>
<trkpt lat="40.0716545" lon="-105.2289626">
  <ele>1583.02</ele>
  <time>2026-08-28T17:52:51Z</time>
  <course>64.27</course>
  <speed>4.990921758553224</speed>
  <fix>3d</fix>
</trkpt>
<trkpt lat="40.07165" lon="-105.2289745">
  <ele>1583.0</ele>
  <time>2026-08-28T17:52:51Z</time>
  <course>62.67</course>
  <speed>5.02</speed>
  <fix>3d</fix>
</trkpt>
<trkpt lat="40.0716565" lon="-105.2289573">
  <ele>1583.01</ele>
  <time>2026-08-28T17:52:51Z</time>
  <course>64.77</course>
  <speed>4.991242330322181</speed>
  <fix>3d</fix>
</trkpt>
<trkpt lat="40.0716541" lon="-105.228964">
  <ele>1583.0</ele>
  <time>2026-08-28T17:52:51Z</time>
  <course>63.38</course>
  <speed>5.02</speed>
  <fix>3d</fix>
</trkpt>
<trkpt lat="40.0716585" lon="-105.2289519">
  <ele>1583.01</ele>
  <time>2026-08-28T17:52:51Z</time>
  <course>65.29</course>
  <speed>4.991963541533532</speed>
  <fix>3d</fix>
</trkpt>
<trkpt lat="40.0716541" lon="-105.228964">
  <ele>1583.0</ele>
  <time>2026-08-28T17:52:51Z</time>
  <course>63.38</course>
  <speed>5.02</speed>
  <fix>3d</fix>
</trkpt>
<trkpt lat="40.0716604" lon="-105.2289466">
  <ele>1583.01</ele>
  <time>2026-08-28T17:52:51Z</time>
  <course>65.77</course>
  <speed>4.9930852185797905</speed>
  <fix>3d</fix>
</trkpt>
<trkpt lat="40.0716581" lon="-105.2289534">
  <ele>1583.0</ele>
  <time>2026-08-28T17:52:51Z</time>
  <course>64.33</course>
  <speed>5.02</speed>
  <fix>3d</fix>
</trkpt>
<trkpt lat="40.0716623" lon="-105.2289412">
  <ele>1583.01</ele>
  <time>2026-08-28T17:52:51Z</time>
  <course>66.18</course>
  <speed>4.99873984119998</speed>
  <fix>3d</fix>
</trkpt>
<trkpt lat="40.0716581" lon="-105.2289534">
  <ele>1583.0</ele>
  <time>2026-08-28T17:52:51Z</time>
  <course>64.33</course>
  <speed>5.02</speed>
  <fix>3d</fix>
</trkpt>
<trkpt lat="40.0716642" lon="-105.2289358">
  <ele>1583.01</ele>
  <time>2026-08-28T17:52:51Z</time>
  <course>66.57</course>
  <speed>4.995517991159676</speed>
  <fix>3d</fix>
</trkpt>
<trkpt lat="40.0716619" lon="-105.2289428">
  <ele>1583.0</ele>
  <time>2026-08-28T17:52:51Z</time>
  <course>65.23</course>
  <speed>5.02</speed>
  <fix>3d</fix>
</trkpt>
<trkpt lat="40.0716661" lon="-105.2289304">
  <ele>1583.01</ele>
  <time>2026-08-28T17:52:51Z</time>
  <course>66.91</course>
  <speed>4.992494366546646</speed>
  <fix>3d</fix>
</trkpt>
<trkpt lat="40.0716619" lon="-105.2289428">
  <ele>1583.0</ele>
  <time>2026-08-28T17:52:51Z</time>
  <course>65.23</course>
  <speed>5.02</speed>
  <fix>3d</fix>
</trkpt>
<trkpt lat="40.0716679" lon="-105.2289249">
  <ele>1583.01</ele>
  <time>2026-08-28T17:52:51Z</time>
  <course>67.25</course>
  <speed>4.998849867719573</speed>
  <fix>3d</fix>
</trkpt>
<trkpt lat="40.0716656" lon="-105.2289321">
  <ele>1583.0</ele>
  <time>2026-08-28T17:52:51Z</time>
  <course>65.97</course>
  <speed>5.02</speed>
  <fix>3d</fix>
</trkpt>
<trkpt lat="40.0716697" lon="-105.2289195">
  <ele>1583.01</ele>
  <time>2026-08-28T17:52:51Z</time>
  <course>67.59</course>
  <speed>4.9962485926943225</speed>
  <fix>3d</fix>
</trkpt>
<trkpt lat="40.0716656" lon="-105.2289321">
  <ele>1583.0</ele>
  <time>2026-08-28T17:52:51Z</time>
  <course>65.97</course>
  <speed>5.02</speed>
  <fix>3d</fix>
</trkpt>
<trkpt lat="40.0716714" lon="-105.2289141">
  <ele>1583.01</ele>
  <time>2026-08-28T17:52:51Z</time>
  <course>67.93</course>
  <speed>4.99769947075652</speed>
  <fix>3d</fix>
</trkpt>
<trkpt lat="40.0716692" lon="-105.2289213">
  <ele>1583.0</ele>
  <time>2026-08-28T17:52:51Z</time>
  <course>66.65</course>
  <speed>5.01</speed>
  <fix>3d</fix>
</trkpt>
<trkpt lat="40.0716732" lon="-105.2289086">
  <ele>1583.01</ele>
  <time>2026-08-28T17:52:51Z</time>
  <course>68.21</course>
  <speed>4.995437918741459</speed>
  <fix>3d</fix>
</trkpt>
<trkpt lat="40.0716692" lon="-105.2289213">
  <ele>1583.0</ele>
  <time>2026-08-28T17:52:51Z</time>
  <course>66.65</course>
  <speed>5.01</speed>
  <fix>3d</fix>
</trkpt>
<trkpt lat="40.0716749" lon="-105.2289032">
  <ele>1583.01</ele>
  <time>2026-08-28T17:52:51Z</time>
  <course>68.48</course>
  <speed>4.997129175836863</speed>
  <fix>3d</fix>
</trkpt>
<trkpt lat="40.0716692" lon="-105.2289213">
  <ele>1583.0</ele>
  <time>2026-08-28T17:52:51Z</time>
  <course>66.65</course>
  <speed>5.01</speed>
  <fix>3d</fix>
</trkpt>
<trkpt lat="40.0716766" lon="-105.2288977">
  <ele>1583.0</ele>
  <time>2026-08-28T17:52:51Z</time>
  <course>68.74</course>
  <speed>4.989639265518099</speed>
  <fix>3d</fix>
</trkpt>
<trkpt lat="40.0716728" lon="-105.2289104">
  <ele>1583.0</ele>
  <time>2026-08-28T17:52:51Z</time>
  <course>67.27</course>
  <speed>5.01</speed>
  <fix>3d</fix>
</trkpt>
<trkpt lat="40.0716783" lon="-105.2288923">
  <ele>1583.0</ele>
  <time>2026-08-28T17:52:51Z</time>
  <course>68.94</course>
  <speed>4.991512796738079</speed>
  <fix>3d</fix>
</trkpt>
<trkpt lat="40.0716728" lon="-105.2289104">
  <ele>1583.0</ele>
  <time>2026-08-28T17:52:51Z</time>
  <course>67.27</course>
  <speed>5.01</speed>
  <fix>3d</fix>
</trkpt>
<trkpt lat="40.0716799" lon="-105.2288869">
  <ele>1583.0</ele>
  <time>2026-08-28T17:52:51Z</time>
  <course>69.15</course>
  <speed>4.993485756463114</speed>
  <fix>3d</fix>
</trkpt>
<trkpt lat="40.0716763" lon="-105.2288995">
  <ele>1583.0</ele>
  <time>2026-08-28T17:52:51Z</time>
  <course>67.77</course>
  <speed>5.01</speed>
  <fix>3d</fix>
</trkpt>
<trkpt lat="40.0716816" lon="-105.2288815">
  <ele>1583.0</ele>
  <time>2026-08-28T17:52:51Z</time>
  <course>69.35</course>
  <speed>4.989849697135175</speed>
  <fix>3d</fix>
</trkpt>
<trkpt lat="40.0716763" lon="-105.2288995">
  <ele>1583.0</ele>
  <time>2026-08-28T17:52:51Z</time>
  <course>67.77</course>
  <speed>5.01</speed>
  <fix>3d</fix>
</trkpt>
<trkpt lat="40.0716832" lon="-105.228876">
  <ele>1583.0</ele>
  <time>2026-08-28T17:52:51Z</time>
  <course>69.53</course>
  <speed>4.991963541533532</speed>
  <fix>3d</fix>
</trkpt>
<trkpt lat="40.0716796" lon="-105.2288886">
  <ele>1583.0</ele>
  <time>2026-08-28T17:52:51Z</time>
  <course>68.2</course>
  <speed>5.01</speed>
  <fix>3d</fix>
</trkpt>
<trkpt lat="40.0716848" lon="-105.2288706">
  <ele>1583.0</ele>
  <time>2026-08-28T17:52:51Z</time>
  <course>69.66</course>
  <speed>4.988386512691253</speed>
  <fix>3d</fix>
</trkpt>
<trkpt lat="40.0716829" lon="-105.2288777">
  <ele>1583.0</ele>
  <time>2026-08-28T17:52:51Z</time>
  <course>68.56</course>
  <speed>5.01</speed>
  <fix>3d</fix>
</trkpt>
<trkpt lat="40.0716865" lon="-105.2288651">
  <ele>1582.99</ele>
  <time>2026-08-28T17:52:51Z</time>
  <course>69.73</course>
  <speed>4.988386512691253</speed>
  <fix>3d</fix>
</trkpt>
<trkpt lat="40.0716829" lon="-105.2288777">
  <ele>1583.0</ele>
  <time>2026-08-28T17:52:51Z</time>
  <course>68.56</course>
  <speed>5.01</speed>
  <fix>3d</fix>
</trkpt>
<trkpt lat="40.0716881" lon="-105.2288596">
  <ele>1582.99</ele>
  <time>2026-08-28T17:52:51Z</time>
  <course>69.73</course>
  <speed>4.988386512691253</speed>
  <fix>3d</fix>
</trkpt>
<trkpt lat="40.0716862" lon="-105.2288667">
  <ele>1583.0</ele>
  <time>2026-08-28T17:52:51Z</time>
  <course>68.75</course>
  <speed>5.02</speed>
  <fix>3d</fix>
</trkpt>
<trkpt lat="40.0716897" lon="-105.2288541">
  <ele>1582.99</ele>
  <time>2026-08-28T17:52:51Z</time>
  <course>69.64</course>
  <speed>4.991963541533532</speed>
  <fix>3d</fix>
</trkpt>
<trkpt lat="40.0716862" lon="-105.2288667">
  <ele>1583.0</ele>
  <time>2026-08-28T17:52:51Z</time>
  <course>68.75</course>
  <speed>5.02</speed>
  <fix>3d</fix>
</trkpt>
<trkpt lat="40.0716914" lon="-105.2288486">
  <ele>1582.98</ele>
  <time>2026-08-28T17:52:51Z</time>
  <course>69.45</course>
  <speed>4.995558026887487</speed>
  <fix>3d</fix>
</trkpt>
<trkpt lat="40.0716895" lon="-105.2288557">
  <ele>1583.0</ele>
  <time>2026-08-28T17:52:51Z</time>
  <course>68.65</course>
  <speed>5.02</speed>
  <fix>3d</fix>
</trkpt>
<trkpt lat="40.071693" lon="-105.2288431">
  <ele>1582.98</ele>
  <time>2026-08-28T17:52:51Z</time>
  <course>69.3</course>
  <speed>4.993485756463114</speed>
  <fix>3d</fix>
</trkpt>
<trkpt lat="40.0716895" lon="-105.2288557">
  <ele>1583.0</ele>
  <time>2026-08-28T17:52:51Z</time>
  <course>68.65</course>
  <speed>5.02</speed>
  <fix>3d</fix>
</trkpt>
<trkpt lat="40.0716947" lon="-105.2288376">
  <ele>1582.98</ele>
  <time>2026-08-28T17:52:51Z</time>
  <course>69.16</course>
  <speed>4.997139181571792</speed>
  <fix>3d</fix>
</trkpt>
<trkpt lat="40.0716928" lon="-105.2288447">
  <ele>1583.0</ele>
  <time>2026-08-28T17:52:51Z</time>
  <course>68.36</course>
  <speed>5.02</speed>
  <fix>3d</fix>
</trkpt>
<trkpt lat="40.0716964" lon="-105.2288321">
  <ele>1582.98</ele>
  <time>2026-08-28T17:52:51Z</time>
  <course>69.02</course>
  <speed>5.0008099344006265</speed>
  <fix>3d</fix>
</trkpt>
<trkpt lat="40.0716928" lon="-105.2288447">
  <ele>1583.0</ele>
  <time>2026-08-28T17:52:51Z</time>
  <course>68.36</course>
  <speed>5.02</speed>
  <fix>3d</fix>
</trkpt>
<trkpt lat="40.0716981" lon="-105.2288266">
  <ele>1582.98</ele>
  <time>2026-08-28T17:52:51Z</time>
  <course>68.88</course>
  <speed>4.995207703389319</speed>
  <fix>3d</fix>
</trkpt>
<trkpt lat="40.0716962" lon="-105.2288337">
  <ele>1583.0</ele>
  <time>2026-08-28T17:52:51Z</time>
  <course>68.08</course>
  <speed>5.02</speed>
  <fix>3d</fix>
</trkpt>
<trkpt lat="40.0716998" lon="-105.2288211">
  <ele>1582.98</ele>
  <time>2026-08-28T17:52:51Z</time>
  <course>68.75</course>
  <speed>4.998919883334799</speed>
  <fix>3d</fix>
</trkpt>
<trkpt lat="40.0716962" lon="-105.2288337">
  <ele>1583.0</ele>
  <time>2026-08-28T17:52:51Z</time>
  <course>68.08</course>
  <speed>5.02</speed>
  <fix>3d</fix>
</trkpt>
<trkpt lat="40.0717015" lon="-105.2288156">
  <ele>1582.97</ele>
  <time>2026-08-28T17:52:51Z</time>
  <course>68.64</course>
  <speed>5.002649298121947</speed>
  <fix>3d</fix>
</trkpt>
<trkpt lat="40.0716996" lon="-105.2288228">
  <ele>1583.0</ele>
  <time>2026-08-28T17:52:51Z</time>
  <course>67.82</course>
  <speed>5.02</speed>
  <fix>3d</fix>
</trkpt>
<trkpt lat="40.0717033" lon="-105.2288101">
  <ele>1582.97</ele>
  <time>2026-08-28T17:52:51Z</time>
  <course>68.6</course>
  <speed>4.997129175836863</speed>
  <fix>3d</fix>
</trkpt>
<trkpt lat="40.0716996" lon="-105.2288228">
  <ele>1583.0</ele>
  <time>2026-08-28T17:52:51Z</time>
  <course>67.82</course>
  <speed>5.02</speed>
  <fix>3d</fix>
</trkpt>
<trkpt lat="40.071705" lon="-105.2288046">
  <ele>1582.97</ele>
  <time>2026-08-28T17:52:51Z</time>
  <course>68.6</course>
  <speed>4.997129175836863</speed>
  <fix>3d</fix>
</trkpt>
<trkpt lat="40.071703" lon="-105.2288119">
  <ele>1583.0</ele>
  <time>2026-08-28T17:52:51Z</time>
  <course>67.68</course>
  <speed>5.01</speed>
  <fix>3d</fix>
</trkpt>
<trkpt lat="40.0717067" lon="-105.2287992">
  <ele>1582.98</ele>
  <time>2026-08-28T17:52:51Z</time>
  <course>68.6</course>
  <speed>4.997129175836863</speed>
  <fix>3d</fix>
</trkpt>
<trkpt lat="40.071703" lon="-105.2288119">
  <ele>1583.0</ele>
  <time>2026-08-28T17:52:51Z</time>
  <course>67.68</course>
  <speed>5.01</speed>
  <fix>3d</fix>
</trkpt>
<trkpt lat="40.0717085" lon="-105.2287937">
  <ele>1582.98</ele>
  <time>2026-08-28T17:52:51Z</time>
  <course>68.6</course>
  <speed>4.997129175836863</speed>
  <fix>3d</fix>
</trkpt>
<trkpt lat="40.071703" lon="-105.2288119">
  <ele>1583.0</ele>
  <time>2026-08-28T17:52:51Z</time>
  <course>67.68</course>
  <speed>5.01</speed>
  <fix>3d</fix>
</trkpt>
<trkpt lat="40.0717102" lon="-105.2287883">
  <ele>1582.98</ele>
  <time>2026-08-28T17:52:51Z</time>
  <course>68.6</course>
  <speed>4.997129175836863</speed>
  <fix>3d</fix>
</trkpt>
<trkpt lat="40.0717063" lon="-105.228801">
  <ele>1583.0</ele>
  <time>2026-08-28T17:52:51Z</time>
  <course>67.66</course>
  <speed>5.01</speed>
  <fix>3d</fix>
</trkpt>
<trkpt lat="40.0717119" lon="-105.2287828">
  <ele>1582.98</ele>
  <time>2026-08-28T17:52:51Z</time>
  <course>68.6</course>
  <speed>4.997129175836863</speed>
  <fix>3d</fix>
</trkpt>
<trkpt lat="40.0717063" lon="-105.228801">
  <ele>1583.0</ele>
  <time>2026-08-28T17:52:51Z</time>
  <course>67.66</course>
  <speed>5.01</speed>
  <fix>3d</fix>
</trkpt>
<trkpt lat="40.0717136" lon="-105.2287774">
  <ele>1582.99</ele>
  <time>2026-08-28T17:52:51Z</time>
  <course>68.6</course>
  <speed>4.997129175836863</speed>
  <fix>3d</fix>
</trkpt>
<trkpt lat="40.0717098" lon="-105.2287901">
  <ele>1583.0</ele>
  <time>2026-08-28T17:52:51Z</time>
  <course>67.66</course>
  <speed>5.01</speed>
  <fix>3d</fix>
</trkpt>
<trkpt lat="40.0717153" lon="-105.2287721">
  <ele>1582.99</ele>
  <time>2026-08-28T17:52:51Z</time>
  <course>68.6</course>
  <speed>4.98786527484454</speed>
  <fix>3d</fix>
</trkpt>
<trkpt lat="40.0717098" lon="-105.2287901">
  <ele>1583.0</ele>
  <time>2026-08-28T17:52:51Z</time>
  <course>67.66</course>
  <speed>5.01</speed>
  <fix>3d</fix>
</trkpt>
<trkpt lat="40.071717" lon="-105.2287667">
  <ele>1582.99</ele>
  <time>2026-08-28T17:52:51Z</time>
  <course>68.61</course>
  <speed>4.98786527484454</speed>
  <fix>3d</fix>
</trkpt>
<trkpt lat="40.0717133" lon="-105.2287792">
  <ele>1583.0</ele>
  <time>2026-08-28T17:52:51Z</time>
  <course>67.66</course>
  <speed>5.01</speed>
  <fix>3d</fix>
</trkpt>
<trkpt lat="40.0717187" lon="-105.2287613">
  <ele>1583.0</ele>
  <time>2026-08-28T17:52:51Z</time>
  <course>68.61</course>
  <speed>4.98786527484454</speed>
  <fix>3d</fix>
</trkpt>
<trkpt lat="40.0717133" lon="-105.2287792">
  <ele>1583.0</ele>
  <time>2026-08-28T17:52:51Z</time>
  <course>67.66</course>
  <speed>5.01</speed>
  <fix>3d</fix>
</trkpt>
<trkpt lat="40.0717204" lon="-105.2287559">
  <ele>1583.0</ele>
  <time>2026-08-28T17:52:51Z</time>
  <course>68.65</course>
  <speed>4.984104734052044</speed>
  <fix>3d</fix>
</trkpt>
<trkpt lat="40.0717166" lon="-105.2287683">
  <ele>1583.0</ele>
  <time>2026-08-28T17:52:51Z</time>
  <course>67.66</course>
  <speed>5.01</speed>
  <fix>3d</fix>
</trkpt>
<trkpt lat="40.0717221" lon="-105.2287505">
  <ele>1583.0</ele>
  <time>2026-08-28T17:52:51Z</time>
  <course>68.72</course>
  <speed>4.984104734052044</speed>
  <fix>3d</fix>
</trkpt>
<trkpt lat="40.0717201" lon="-105.2287574">
  <ele>1583.0</ele>
  <time>2026-08-28T17:52:51Z</time>
  <course>67.71</course>
  <speed>5.01</speed>
  <fix>3d</fix>
</trkpt>
<trkpt lat="40.0717238" lon="-105.228745">
  <ele>1583.0</ele>
  <time>2026-08-28T17:52:51Z</time>
  <course>68.79</course>
  <speed>4.980361432667312</speed>
  <fix>3d</fix>
</trkpt>
<trkpt lat="40.0717201" lon="-105.2287574">
  <ele>1583.0</ele>
  <time>2026-08-28T17:52:51Z</time>
  <course>67.71</course>
  <speed>5.01</speed>
  <fix>3d</fix>
</trkpt>
<trkpt lat="40.0717254" lon="-105.2287396">
  <ele>1583.0</ele>
  <time>2026-08-28T17:52:51Z</time>
  <course>68.86</course>
  <speed>4.989639265518099</speed>
  <fix>3d</fix>
</trkpt>
<trkpt lat="40.0717235" lon="-105.2287465">
  <ele>1583.0</ele>
  <time>2026-08-28T17:52:51Z</time>
  <course>67.84</course>
  <speed>5.01</speed>
  <fix>3d</fix>
</trkpt>
<trkpt lat="40.0717271" lon="-105.2287342">
  <ele>1583.0</ele>
  <time>2026-08-28T17:52:51Z</time>
  <course>68.93</course>
  <speed>4.985920175855205</speed>
  <fix>3d</fix>
</trkpt>
<trkpt lat="40.0717235" lon="-105.2287465">
  <ele>1583.0</ele>
  <time>2026-08-28T17:52:51Z</time>
  <course>67.84</course>
  <speed>5.01</speed>
  <fix>3d</fix>
</trkpt>
<trkpt lat="40.0717288" lon="-105.2287287">
  <ele>1583.0</ele>
  <time>2026-08-28T17:52:51Z</time>
  <course>69.0</course>
  <speed>4.995207703389319</speed>
  <fix>3d</fix>
</trkpt>
<trkpt lat="40.0717269" lon="-105.2287356">
  <ele>1583.0</ele>
  <time>2026-08-28T17:52:51Z</time>
  <course>67.97</course>
  <speed>5.01</speed>
  <fix>3d</fix>
</trkpt>
<trkpt lat="40.0717305" lon="-105.2287232">
  <ele>1583.0</ele>
  <time>2026-08-28T17:52:51Z</time>
  <course>69.07</course>
  <speed>4.991512796738079</speed>
  <fix>3d</fix>
</trkpt>
<trkpt lat="40.0717269" lon="-105.2287356">
  <ele>1583.0</ele>
  <time>2026-08-28T17:52:51Z</time>
  <course>67.97</course>
  <speed>5.01</speed>
  <fix>3d</fix>
</trkpt>
<trkpt lat="40.0717322" lon="-105.2287177">
  <ele>1583.0</ele>
  <time>2026-08-28T17:52:51Z</time>
  <course>69.14</course>
  <speed>4.991512796738079</speed>
  <fix>3d</fix>
</trkpt>
<trkpt lat="40.0717303" lon="-105.2287247">
  <ele>1583.0</ele>
  <time>2026-08-28T17:52:51Z</time>
  <course>68.11</course>
  <speed>5.02</speed>
  <fix>3d</fix>
</trkpt>
<trkpt lat="40.0717339" lon="-105.2287121">
  <ele>1583.01</ele>
  <time>2026-08-28T17:52:51Z</time>
  <course>69.18</course>
  <speed>5.0008099344006265</speed>
  <fix>3d</fix>
</trkpt>
<trkpt lat="40.0717303" lon="-105.2287247">
  <ele>1583.0</ele>
  <time>2026-08-28T17:52:51Z</time>
  <course>68.11</course>
  <speed>5.02</speed>
  <fix>3d</fix>
</trkpt>
<trkpt lat="40.0717356" lon="-105.2287066">
  <ele>1583.01</ele>
  <time>2026-08-28T17:52:51Z</time>
  <course>69.21</course>
  <speed>4.997139181571792</speed>
  <fix>3d</fix>
</trkpt>
<trkpt lat="40.0717336" lon="-105.2287138">
  <ele>1583.0</ele>
  <time>2026-08-28T17:52:51Z</time>
  <course>68.21</course>
  <speed>5.02</speed>
  <fix>3d</fix>
</trkpt>
<trkpt lat="40.0717373" lon="-105.2287011">
  <ele>1583.01</ele>
  <time>2026-08-28T17:52:51Z</time>
  <course>69.3</course>
  <speed>4.997139181571792</speed>
  <fix>3d</fix>
</trkpt>
<trkpt lat="40.0717336" lon="-105.2287138">
  <ele>1583.0</ele>
  <time>2026-08-28T17:52:51Z</time>
  <course>68.21</course>
  <speed>5.02</speed>
  <fix>3d</fix>
</trkpt>
<trkpt lat="40.071739" lon="-105.2286956">
  <ele>1583.01</ele>
  <time>2026-08-28T17:52:51Z</time>
  <course>69.43</course>
  <speed>4.993485756463114</speed>
  <fix>3d</fix>
</trkpt>
<trkpt lat="40.0717369" lon="-105.2287028">
  <ele>1583.0</ele>
  <time>2026-08-28T17:52:51Z</time>
  <course>68.35</course>
  <speed>5.01</speed>
  <fix>3d</fix>
</trkpt>
<trkpt lat="40.0717406" lon="-105.2286901">
  <ele>1583.01</ele>
  <time>2026-08-28T17:52:51Z</time>
  <course>69.57</course>
  <speed>4.999169931098562</speed>
  <fix>3d</fix>
</trkpt>
<trkpt lat="40.0717369" lon="-105.2287028">
  <ele>1583.0</ele>
  <time>2026-08-28T17:52:51Z</time>
  <course>68.35</course>
  <speed>5.01</speed>
  <fix>3d</fix>
</trkpt>
<trkpt lat="40.0717423" lon="-105.2286846">
  <ele>1583.01</ele>
  <time>2026-08-28T17:52:51Z</time>
  <course>69.7</course>
  <speed>4.995558026887487</speed>
  <fix>3d</fix>
</trkpt>
<trkpt lat="40.0717402" lon="-105.2286919">
  <ele>1583.0</ele>
  <time>2026-08-28T17:52:51Z</time>
  <course>68.59</course>
  <speed>5.01</speed>
  <fix>3d</fix>
</trkpt>
<trkpt lat="40.0717439" lon="-105.2286791">
  <ele>1583.01</ele>
  <time>2026-08-28T17:52:51Z</time>
  <course>69.77</course>
  <speed>5.001299831043926</speed>
  <fix>3d</fix>
</trkpt>
<trkpt lat="40.0717402" lon="-105.2286919">
  <ele>1583.0</ele>
  <time>2026-08-28T17:52:51Z</time>
  <course>68.59</course>
  <speed>5.01</speed>
  <fix>3d</fix>
</trkpt>
<trkpt lat="40.0717455" lon="-105.2286736">
  <ele>1583.02</ele>
  <time>2026-08-28T17:52:51Z</time>
  <course>69.85</course>
  <speed>4.997729484475926</speed>
  <fix>3d</fix>
</trkpt>
<trkpt lat="40.0717402" lon="-105.2286919">
  <ele>1583.0</ele>
  <time>2026-08-28T17:52:51Z</time>
  <course>68.59</course>
  <speed>5.01</speed>
  <fix>3d</fix>
</trkpt>
<trkpt lat="40.0717471" lon="-105.2286681">
  <ele>1583.02</ele>
  <time>2026-08-28T17:52:51Z</time>
  <course>69.92</course>
  <speed>4.997729484475926</speed>
  <fix>3d</fix>
</trkpt>
<trkpt lat="40.0717435" lon="-105.2286809">
  <ele>1583.0</ele>
  <time>2026-08-28T17:52:51Z</time>
  <course>68.8</course>
  <speed>5.01</speed>
  <fix>3d</fix>
</trkpt>
<trkpt lat="40.0717487" lon="-105.2286626">
  <ele>1583.02</ele>
  <time>2026-08-28T17:52:51Z</time>
  <course>69.99</course>
  <speed>4.9941766088115065</speed>
  <fix>3d</fix>
</trkpt>
<trkpt lat="40.0717435" lon="-105.2286809">
  <ele>1583.0</ele>
  <time>2026-08-28T17:52:51Z</time>
  <course>68.8</course>
  <speed>5.01</speed>
  <fix>3d</fix>
</trkpt>
<trkpt lat="40.0717503" lon="-105.2286572">
  <ele>1583.02</ele>
  <time>2026-08-28T17:52:51Z</time>
  <course>70.05</course>
  <speed>4.9906412413636785</speed>
  <fix>3d</fix>
</trkpt>
<trkpt lat="40.0717468" lon="-105.2286699">
  <ele>1583.0</ele>
  <time>2026-08-28T17:52:51Z</time>
  <course>68.94</course>
  <speed>5.01</speed>
  <fix>3d</fix>
</trkpt>
<trkpt lat="40.0717519" lon="-105.2286517">
  <ele>1583.02</ele>
  <time>2026-08-28T17:52:51Z</time>
  <course>70.12</course>
  <speed>4.9906412413636785</speed>
  <fix>3d</fix>
</trkpt>
<trkpt lat="40.0717468" lon="-105.2286699">
  <ele>1583.0</ele>
  <time>2026-08-28T17:52:51Z</time>
  <course>68.94</course>
  <speed>5.01</speed>
  <fix>3d</fix>
</trkpt>
<trkpt lat="40.0717535" lon="-105.2286463">
  <ele>1583.02</ele>
  <time>2026-08-28T17:52:51Z</time>
  <course>70.21</course>
  <speed>4.98712341936712</speed>
  <fix>3d</fix>
</trkpt>
<trkpt lat="40.0717499" lon="-105.2286589">
  <ele>1583.0</ele>
  <time>2026-08-28T17:52:51Z</time>
  <course>69.07</course>
  <speed>5.01</speed>
  <fix>3d</fix>
</trkpt>
<trkpt lat="40.0717551" lon="-105.2286408">
  <ele>1583.02</ele>
  <time>2026-08-28T17:52:51Z</time>
  <course>70.39</course>
  <speed>4.980140560265343</speed>
  <fix>3d</fix>
</trkpt>
<trkpt lat="40.0717532" lon="-105.2286479">
  <ele>1583.0</ele>
  <time>2026-08-28T17:52:51Z</time>
  <course>69.28</course>
  <speed>5.01</speed>
  <fix>3d</fix>
</trkpt>
<trkpt lat="40.0717567" lon="-105.2286353">
  <ele>1583.01</ele>
  <time>2026-08-28T17:52:51Z</time>
  <course>70.53</course>
  <speed>4.986060569226972</speed>
  <fix>3d</fix>
</trkpt>
<trkpt lat="40.0717532" lon="-105.2286479">
  <ele>1583.0</ele>
  <time>2026-08-28T17:52:51Z</time>
  <course>69.28</course>
  <speed>5.01</speed>
  <fix>3d</fix>
</trkpt>
<trkpt lat="40.0717582" lon="-105.2286298">
  <ele>1583.01</ele>
  <time>2026-08-28T17:52:51Z</time>
  <course>70.67</course>
  <speed>4.982619792839907</speed>
  <fix>3d</fix>
</trkpt>
<trkpt lat="40.0717564" lon="-105.2286369">
  <ele>1583.0</ele>
  <time>2026-08-28T17:52:51Z</time>
  <course>69.55</course>
  <speed>5.01</speed>
  <fix>3d</fix>
</trkpt>
<trkpt lat="40.0717598" lon="-105.2286243">
  <ele>1583.01</ele>
  <time>2026-08-28T17:52:51Z</time>
  <course>70.8</course>
  <speed>4.988596997152606</speed>
  <fix>3d</fix>
</trkpt>
<trkpt lat="40.0717564" lon="-105.2286369">
  <ele>1583.0</ele>
  <time>2026-08-28T17:52:51Z</time>
  <course>69.55</course>
  <speed>5.01</speed>
  <fix>3d</fix>
</trkpt>
<trkpt lat="40.0717613" lon="-105.2286187">
  <ele>1583.01</ele>
  <time>2026-08-28T17:52:51Z</time>
  <course>70.94</course>
  <speed>4.9946070916539576</speed>
  <fix>3d</fix>
</trkpt>
<trkpt lat="40.0717595" lon="-105.2286258">
  <ele>1583.0</ele>
  <time>2026-08-28T17:52:51Z</time>
  <course>69.82</course>
  <speed>5.02</speed>
  <fix>3d</fix>
</trkpt>
<trkpt lat="40.0717629" lon="-105.2286132">
  <ele>1583.01</ele>
  <time>2026-08-28T17:52:51Z</time>
  <course>71.06</course>
  <speed>4.991232312766057</speed>
  <fix>3d</fix>
</trkpt>
<trkpt lat="40.0717595" lon="-105.2286258">
  <ele>1583.0</ele>
  <time>2026-08-28T17:52:51Z</time>
  <course>69.82</course>
  <speed>5.02</speed>
  <fix>3d</fix>
</trkpt>
<trkpt lat="40.0717644" lon="-105.2286076">
  <ele>1583.0</ele>
  <time>2026-08-28T17:52:51Z</time>
  <course>71.15</course>
  <speed>5.000649957755492</speed>
  <fix>3d</fix>
</trkpt>
<trkpt lat="40.0717626" lon="-105.2286147">
  <ele>1583.0</ele>
  <time>2026-08-28T17:52:51Z</time>
  <course>70.06</course>
  <speed>5.02</speed>
  <fix>3d</fix>
</trkpt>
<trkpt lat="40.071766" lon="-105.228602">
  <ele>1583.0</ele>
  <time>2026-08-28T17:52:51Z</time>
  <course>71.22</course>
  <speed>4.997299270606074</speed>
  <fix>3d</fix>
</trkpt>
<trkpt lat="40.0717626" lon="-105.2286147">
  <ele>1583.0</ele>
  <time>2026-08-28T17:52:51Z</time>
  <course>70.06</course>
  <speed>5.02</speed>
  <fix>3d</fix>
</trkpt>
<trkpt lat="40.0717675" lon="-105.2285964">
  <ele>1583.0</ele>
  <time>2026-08-28T17:52:51Z</time>
  <course>71.29</course>
  <speed>4.997299270606074</speed>
  <fix>3d</fix>
</trkpt>
<trkpt lat="40.0717657" lon="-105.2286036">
  <ele>1583.0</ele>
  <time>2026-08-28T17:52:51Z</time>
  <course>70.23</course>
  <speed>5.02</speed>
  <fix>3d</fix>
</trkpt>
<trkpt lat="40.071769" lon="-105.2285908">
  <ele>1582.99</ele>
  <time>2026-08-28T17:52:51Z</time>
  <course>71.4</course>
  <speed>5.003398844785412</speed>
  <fix>3d</fix>
</trkpt>
<trkpt lat="40.0717657" lon="-105.2286036">
  <ele>1583.0</ele>
  <time>2026-08-28T17:52:51Z</time>
  <course>70.23</course>
  <speed>5.02</speed>
  <fix>3d</fix>
</trkpt>
<trkpt lat="40.0717705" lon="-105.2285852">
  <ele>1582.99</ele>
  <time>2026-08-28T17:52:51Z</time>
  <course>71.61</course>
  <speed>4.996798975344115</speed>
  <fix>3d</fix>
</trkpt>
<trkpt lat="40.0717686" lon="-105.2285925">
  <ele>1583.0</ele>
  <time>2026-08-28T17:52:51Z</time>
  <course>70.46</course>
  <speed>5.02</speed>
  <fix>3d</fix>
</trkpt>
<trkpt lat="40.071772" lon="-105.2285796">
  <ele>1582.99</ele>
  <time>2026-08-28T17:52:51Z</time>
  <course>71.75</course>
  <speed>5.002979112488878</speed>
  <fix>3d</fix>
</trkpt>
<trkpt lat="40.0717686" lon="-105.2285925">
  <ele>1583.0</ele>
  <time>2026-08-28T17:52:51Z</time>
  <course>70.46</course>
  <speed>5.02</speed>
  <fix>3d</fix>
</trkpt>
<trkpt lat="40.0717735" lon="-105.228574">
  <ele>1582.99</ele>
  <time>2026-08-28T17:52:51Z</time>
  <course>71.88</course>
  <speed>4.999729992709606</speed>
  <fix>3d</fix>
</trkpt>
<trkpt lat="40.0717717" lon="-105.2285814">
  <ele>1583.0</ele>
  <time>2026-08-28T17:52:51Z</time>
  <course>70.75</course>
  <speed>5.01</speed>
  <fix>3d</fix>
</trkpt>
<trkpt lat="40.071775" lon="-105.2285684">
  <ele>1582.99</ele>
  <time>2026-08-28T17:52:51Z</time>
  <course>72.02</course>
  <speed>4.993285491537611</speed>
  <fix>3d</fix>
</trkpt>
<trkpt lat="40.0717717" lon="-105.2285814">
  <ele>1583.0</ele>
  <time>2026-08-28T17:52:51Z</time>
  <course>70.75</course>
  <speed>5.01</speed>
  <fix>3d</fix>
</trkpt>
<trkpt lat="40.0717764" lon="-105.2285628">
  <ele>1582.99</ele>
  <time>2026-08-28T17:52:51Z</time>
  <course>72.16</course>
  <speed>4.99956998150841</speed>
  <fix>3d</fix>
</trkpt>
<trkpt lat="40.0717717" lon="-105.2285814">
  <ele>1583.0</ele>
  <time>2026-08-28T17:52:51Z</time>
  <course>70.75</course>
  <speed>5.01</speed>
  <fix>3d</fix>
</trkpt>
<trkpt lat="40.0717779" lon="-105.2285573">
  <ele>1582.99</ele>
  <time>2026-08-28T17:52:51Z</time>
  <course>72.29</course>
  <speed>4.996398703066039</speed>
  <fix>3d</fix>
</trkpt>
<trkpt lat="40.0717746" lon="-105.2285703">
  <ele>1583.0</ele>
  <time>2026-08-28T17:52:51Z</time>
  <course>71.02</course>
  <speed>5.01</speed>
  <fix>3d</fix>
</trkpt>
<trkpt lat="40.0717793" lon="-105.2285517">
  <ele>1582.99</ele>
  <time>2026-08-28T17:52:51Z</time>
  <course>72.38</course>
  <speed>4.993245437588663</speed>
  <fix>3d</fix>
</trkpt>
<trkpt lat="40.0717746" lon="-105.2285703">
  <ele>1583.0</ele>
  <time>2026-08-28T17:52:51Z</time>
  <course>71.02</course>
  <speed>5.01</speed>
  <fix>3d</fix>
</trkpt>
<trkpt lat="40.0717807" lon="-105.2285462">
  <ele>1582.99</ele>
  <time>2026-08-28T17:52:51Z</time>
  <course>72.47</course>
  <speed>4.99011021922362</speed>
  <fix>3d</fix>
</trkpt>
<trkpt lat="40.0717775" lon="-105.2285591">
  <ele>1583.0</ele>
  <time>2026-08-28T17:52:51Z</time>
  <course>71.27</course>
  <speed>5.01</speed>
  <fix>3d</fix>
</trkpt>
<trkpt lat="40.0717821" lon="-105.2285407">
  <ele>1582.99</ele>
  <time>2026-08-28T17:52:51Z</time>
  <course>72.54</course>
  <speed>4.99011021922362</speed>
  <fix>3d</fix>
</trkpt>
<trkpt lat="40.0717775" lon="-105.2285591">
  <ele>1583.0</ele>
  <time>2026-08-28T17:52:51Z</time>
  <course>71.27</course>
  <speed>5.01</speed>
  <fix>3d</fix>
</trkpt>
<trkpt lat="40.0717835" lon="-105.2285352">
  <ele>1582.99</ele>
  <time>2026-08-28T17:52:51Z</time>
  <course>72.65</course>
  <speed>4.9869930820084365</speed>
  <fix>3d</fix>
</trkpt>
<trkpt lat="40.0717804" lon="-105.2285479">
  <ele>1583.0</ele>
  <time>2026-08-28T17:52:51Z</time>
  <course>71.46</course>
  <speed>5.01</speed>
  <fix>3d</fix>
</trkpt>
<trkpt lat="40.0717849" lon="-105.2285296">
  <ele>1582.99</ele>
  <time>2026-08-28T17:52:51Z</time>
  <course>72.85</course>
  <speed>4.99033065036777</speed>
  <fix>3d</fix>
</trkpt>
<trkpt lat="40.0717804" lon="-105.2285479">
  <ele>1583.0</ele>
  <time>2026-08-28T17:52:51Z</time>
  <course>71.46</course>
  <speed>5.01</speed>
  <fix>3d</fix>
</trkpt>
<trkpt lat="40.0717863" lon="-105.228524">
  <ele>1582.99</ele>
  <time>2026-08-28T17:52:51Z</time>
  <course>73.0</course>
  <speed>4.987273804394541</speed>
  <fix>3d</fix>
</trkpt>
<trkpt lat="40.0717832" lon="-105.2285368">
  <ele>1583.0</ele>
  <time>2026-08-28T17:52:51Z</time>
  <course>71.7</course>
  <speed>5.01</speed>
  <fix>3d</fix>
</trkpt>
<trkpt lat="40.0717877" lon="-105.2285185">
  <ele>1582.99</ele>
  <time>2026-08-28T17:52:51Z</time>
  <course>73.14</course>
  <speed>4.984235146940802</speed>
  <fix>3d</fix>
</trkpt>
<trkpt lat="40.0717861" lon="-105.2285256">
  <ele>1583.0</ele>
  <time>2026-08-28T17:52:51Z</time>
  <course>72.0</course>
  <speed>5.01</speed>
  <fix>3d</fix>
</trkpt>
<trkpt lat="40.071789" lon="-105.2285129">
  <ele>1583.0</ele>
  <time>2026-08-28T17:52:51Z</time>
  <course>73.27</course>
  <speed>4.987755006012224</speed>
  <fix>3d</fix>
</trkpt>
<trkpt lat="40.0717861" lon="-105.2285256">
  <ele>1583.0</ele>
  <time>2026-08-28T17:52:51Z</time>
  <course>72.0</course>
  <speed>5.01</speed>
  <fix>3d</fix>
</trkpt>
<trkpt lat="40.0717904" lon="-105.2285073">
  <ele>1583.0</ele>
  <time>2026-08-28T17:52:51Z</time>
  <course>73.41</course>
  <speed>4.984776825495802</speed>
  <fix>3d</fix>
</trkpt>
<trkpt lat="40.0717889" lon="-105.2285144">
  <ele>1583.0</ele>
  <time>2026-08-28T17:52:51Z</time>
  <course>72.27</course>
  <speed>5.02</speed>
  <fix>3d</fix>
</trkpt>
<trkpt lat="40.0717917" lon="-105.2285017">
  <ele>1582.99</ele>
  <time>2026-08-28T17:52:51Z</time>
  <course>73.54</course>
  <speed>4.991372556722249</speed>
  <fix>3d</fix>
</trkpt>
<trkpt lat="40.0717889" lon="-105.2285144">
  <ele>1583.0</ele>
  <time>2026-08-28T17:52:51Z</time>
  <course>72.27</course>
  <speed>5.02</speed>
  <fix>3d</fix>
</trkpt>
<trkpt lat="40.0717931" lon="-105.2284961">
  <ele>1582.99</ele>
  <time>2026-08-28T17:52:51Z</time>
  <course>73.67</course>
  <speed>4.988436628844752</speed>
  <fix>3d</fix>
</trkpt>
<trkpt lat="40.0717916" lon="-105.2285032">
  <ele>1583.0</ele>
  <time>2026-08-28T17:52:51Z</time>
  <course>72.54</course>
  <speed>5.02</speed>
  <fix>3d</fix>
</trkpt>
<trkpt lat="40.0717944" lon="-105.2284904">
  <ele>1582.99</ele>
  <time>2026-08-28T17:52:51Z</time>
  <course>73.75</course>
  <speed>4.99799959983992</speed>
  <fix>3d</fix>
</trkpt>
<trkpt lat="40.0717916" lon="-105.2285032">
  <ele>1583.0</ele>
  <time>2026-08-28T17:52:51Z</time>
  <course>72.54</course>
  <speed>5.02</speed>
  <fix>3d</fix>
</trkpt>
<trkpt lat="40.0717958" lon="-105.2284847">
  <ele>1582.99</ele>
  <time>2026-08-28T17:52:51Z</time>
  <course>73.83</course>
  <speed>4.9950875868196745</speed>
  <fix>3d</fix>
</trkpt>
<trkpt lat="40.0717943" lon="-105.2284919">
  <ele>1583.0</ele>
  <time>2026-08-28T17:52:51Z</time>
  <course>72.75</course>
  <speed>5.02</speed>
  <fix>3d</fix>
</trkpt>
<trkpt lat="40.0717971" lon="-105.228479">
  <ele>1582.99</ele>
  <time>2026-08-28T17:52:51Z</time>
  <course>73.9</course>
  <speed>4.9950875868196745</speed>
  <fix>3d</fix>
</trkpt>
<trkpt lat="40.0717943" lon="-105.2284919">
  <ele>1583.0</ele>
  <time>2026-08-28T17:52:51Z</time>
  <course>72.75</course>
  <speed>5.02</speed>
  <fix>3d</fix>
</trkpt>
<trkpt lat="40.0717985" lon="-105.2284733">
  <ele>1582.99</ele>
  <time>2026-08-28T17:52:51Z</time>
  <course>73.9</course>
  <speed>5.004657830461539</speed>
  <fix>3d</fix>
</trkpt>
<trkpt lat="40.0717969" lon="-105.2284806">
  <ele>1583.0</ele>
  <time>2026-08-28T17:52:51Z</time>
  <course>72.87</course>
  <speed>5.02</speed>
  <fix>3d</fix>
</trkpt>
<trkpt lat="40.0717998" lon="-105.2284677">
  <ele>1582.99</ele>
  <time>2026-08-28T17:52:51Z</time>
  <course>73.82</course>
  <speed>5.004657830461539</speed>
  <fix>3d</fix>
</trkpt>
<trkpt lat="40.0717969" lon="-105.2284806">
  <ele>1583.0</ele>
  <time>2026-08-28T17:52:51Z</time>
  <course>72.87</course>
  <speed>5.02</speed>
  <fix>3d</fix>
</trkpt>
<trkpt lat="40.0718011" lon="-105.228462">
  <ele>1582.99</ele>
  <time>2026-08-28T17:52:51Z</time>
  <course>73.63</course>
  <speed>5.000929913526083</speed>
  <fix>3d</fix>
</trkpt>
<trkpt lat="40.0717996" lon="-105.2284694">
  <ele>1583.0</ele>
  <time>2026-08-28T17:52:51Z</time>
  <course>72.76</course>
  <speed>5.02</speed>
  <fix>3d</fix>
</trkpt>
<trkpt lat="40.0718025" lon="-105.2284563">
  <ele>1582.99</ele>
  <time>2026-08-28T17:52:51Z</time>
  <course>73.43</course>
  <speed>5.006845314167395</speed>
  <fix>3d</fix>
</trkpt>
<trkpt lat="40.0717996" lon="-105.2284694">
  <ele>1583.0</ele>
  <time>2026-08-28T17:52:51Z</time>
  <course>72.76</course>
  <speed>5.02</speed>
  <fix>3d</fix>
</trkpt>
<trkpt lat="40.0718039" lon="-105.2284507">
  <ele>1582.99</ele>
  <time>2026-08-28T17:52:51Z</time>
  <course>73.27</course>
  <speed>5.000289991590488</speed>
  <fix>3d</fix>
</trkpt>
<trkpt lat="40.0718023" lon="-105.2284581">
  <ele>1583.0</ele>
  <time>2026-08-28T17:52:51Z</time>
  <course>72.44</course>
  <speed>5.02</speed>
  <fix>3d</fix>
</trkpt>
<trkpt lat="40.0718053" lon="-105.228445">
  <ele>1582.99</ele>
  <time>2026-08-28T17:52:51Z</time>
  <course>73.13</course>
  <speed>5.003298911718148</speed>
  <fix>3d</fix>
</trkpt>
<trkpt lat="40.0718023" lon="-105.2284581">
  <ele>1583.0</ele>
  <time>2026-08-28T17:52:51Z</time>
  <course>72.44</course>
  <speed>5.02</speed>
  <fix>3d</fix>
</trkpt>
<trkpt lat="40.0718067" lon="-105.2284394">
  <ele>1582.99</ele>
  <time>2026-08-28T17:52:51Z</time>
  <course>73.0</course>
  <speed>4.999849997749933</speed>
  <fix>3d</fix>
</trkpt>
<trkpt lat="40.0718023" lon="-105.2284581">
  <ele>1583.0</ele>
  <time>2026-08-28T17:52:51Z</time>
  <course>72.44</course>
  <speed>5.02</speed>
  <fix>3d</fix>
</trkpt>
<trkpt lat="40.0718081" lon="-105.2284338">
  <ele>1583.0</ele>
  <time>2026-08-28T17:52:51Z</time>
  <course>72.86</course>
  <speed>5.002919147857579</speed>
  <fix>3d</fix>
</trkpt>
<trkpt lat="40.0718051" lon="-105.2284469">
  <ele>1583.0</ele>
  <time>2026-08-28T17:52:51Z</time>
  <course>72.12</course>
  <speed>5.02</speed>
  <fix>3d</fix>
</trkpt>
<trkpt lat="40.0718095" lon="-105.2284283">
  <ele>1583.0</ele>
  <time>2026-08-28T17:52:51Z</time>
  <course>72.72</course>
  <speed>4.996498774141749</speed>
  <fix>3d</fix>
</trkpt>
<trkpt lat="40.0718051" lon="-105.2284469">
  <ele>1583.0</ele>
  <time>2026-08-28T17:52:51Z</time>
  <course>72.12</course>
  <speed>5.02</speed>
  <fix>3d</fix>
</trkpt>
<trkpt lat="40.0718109" lon="-105.2284227">
  <ele>1583.0</ele>
  <time>2026-08-28T17:52:51Z</time>
  <course>72.61</course>
  <speed>4.999609984788814</speed>
  <fix>3d</fix>
</trkpt>
<trkpt lat="40.0718078" lon="-105.2284357">
  <ele>1583.0</ele>
  <time>2026-08-28T17:52:51Z</time>
  <course>71.85</course>
  <speed>5.01</speed>
  <fix>3d</fix>
</trkpt>
<trkpt lat="40.0718123" lon="-105.2284172">
  <ele>1583.01</ele>
  <time>2026-08-28T17:52:51Z</time>
  <course>72.6</course>
  <speed>4.99011021922362</speed>
  <fix>3d</fix>
</trkpt>
<trkpt lat="40.0718078" lon="-105.2284357">
  <ele>1583.0</ele>
  <time>2026-08-28T17:52:51Z</time>
  <course>71.85</course>
  <speed>5.01</speed>
  <fix>3d</fix>
</trkpt>
<trkpt lat="40.0718137" lon="-105.2284117">
  <ele>1583.01</ele>
  <time>2026-08-28T17:52:51Z</time>
  <course>72.6</course>
  <speed>4.99011021922362</speed>
  <fix>3d</fix>
</trkpt>
<trkpt lat="40.0718107" lon="-105.2284244">
  <ele>1583.0</ele>
  <time>2026-08-28T17:52:51Z</time>
  <course>71.65</course>
  <speed>5.01</speed>
  <fix>3d</fix>
</trkpt>
<trkpt lat="40.0718151" lon="-105.2284061">
  <ele>1583.01</ele>
  <time>2026-08-28T17:52:51Z</time>
  <course>72.6</course>
  <speed>4.99011021922362</speed>
  <fix>3d</fix>
</trkpt>
<trkpt lat="40.0718135" lon="-105.2284133">
  <ele>1583.0</ele>
  <time>2026-08-28T17:52:51Z</time>
  <course>71.59</course>
  <speed>5.01</speed>
  <fix>3d</fix>
</trkpt>
<trkpt lat="40.0718166" lon="-105.2284005">
  <ele>1583.01</ele>
  <time>2026-08-28T17:52:51Z</time>
  <course>72.6</course>
  <speed>4.99011021922362</speed>
  <fix>3d</fix>
</trkpt>
<trkpt lat="40.0718135" lon="-105.2284133">
  <ele>1583.0</ele>
  <time>2026-08-28T17:52:51Z</time>
  <course>71.59</course>
  <speed>5.01</speed>
  <fix>3d</fix>
</trkpt>
<trkpt lat="40.071818" lon="-105.2283949">
  <ele>1583.01</ele>
  <time>2026-08-28T17:52:51Z</time>
  <course>72.6</course>
  <speed>4.99011021922362</speed>
  <fix>3d</fix>
</trkpt>
<trkpt lat="40.0718164" lon="-105.2284021">
  <ele>1583.0</ele>
  <time>2026-08-28T17:52:51Z</time>
  <course>71.59</course>
  <speed>5.01</speed>
  <fix>3d</fix>
</trkpt>
<trkpt lat="40.0718194" lon="-105.2283894">
  <ele>1583.01</ele>
  <time>2026-08-28T17:52:51Z</time>
  <course>72.6</course>
  <speed>4.99011021922362</speed>
  <fix>3d</fix>
</trkpt>
<trkpt lat="40.0718164" lon="-105.2284021">
  <ele>1583.0</ele>
  <time>2026-08-28T17:52:51Z</time>
  <course>71.59</course>
  <speed>5.01</speed>
  <fix>3d</fix>
</trkpt>
<trkpt lat="40.0718208" lon="-105.2283838">
  <ele>1583.02</ele>
  <time>2026-08-28T17:52:51Z</time>
  <course>72.61</course>
  <speed>4.99011021922362</speed>
  <fix>3d</fix>
</trkpt>
<trkpt lat="40.0718191" lon="-105.2283909">
  <ele>1583.0</ele>
  <time>2026-08-28T17:52:51Z</time>
  <course>71.59</course>
  <speed>5.01</speed>
  <fix>3d</fix>
</trkpt>
<trkpt lat="40.0718223" lon="-105.2283781">
  <ele>1583.02</ele>
  <time>2026-08-28T17:52:51Z</time>
  <course>72.61</course>
  <speed>4.99011021922362</speed>
  <fix>3d</fix>
</trkpt>
<trkpt lat="40.0718191" lon="-105.2283909">
  <ele>1583.0</ele>
  <time>2026-08-28T17:52:51Z</time>
  <course>71.59</course>
  <speed>5.01</speed>
  <fix>3d</fix>
</trkpt>
<trkpt lat="40.0718237" lon="-105.2283725">
  <ele>1583.02</ele>
  <time>2026-08-28T17:52:51Z</time>
  <course>72.61</course>
  <speed>4.99011021922362</speed>
  <fix>3d</fix>
</trkpt>
<trkpt lat="40.071822" lon="-105.2283798">
  <ele>1583.0</ele>
  <time>2026-08-28T17:52:51Z</time>
  <course>71.59</course>
  <speed>5.01</speed>
  <fix>3d</fix>
</trkpt>
<trkpt lat="40.0718251" lon="-105.2283669">
  <ele>1583.01</ele>
  <time>2026-08-28T17:52:51Z</time>
  <course>72.62</course>
  <speed>4.99011021922362</speed>
  <fix>3d</fix>
</trkpt>
<trkpt lat="40.071822" lon="-105.2283798">
  <ele>1583.0</ele>
  <time>2026-08-28T17:52:51Z</time>
  <course>71.59</course>
  <speed>5.01</speed>
  <fix>3d</fix>
</trkpt>
<trkpt lat="40.0718266" lon="-105.2283613">
  <ele>1583.01</ele>
  <time>2026-08-28T17:52:51Z</time>
  <course>72.73</course>
  <speed>4.996498774141749</speed>
  <fix>3d</fix>
</trkpt>
<trkpt lat="40.0718248" lon="-105.2283686">
  <ele>1583.0</ele>
  <time>2026-08-28T17:52:51Z</time>
  <course>71.65</course>
  <speed>5.01</speed>
  <fix>3d</fix>
</trkpt>
<trkpt lat="40.071828" lon="-105.2283556">
  <ele>1583.01</ele>
  <time>2026-08-28T17:52:51Z</time>
  <course>72.87</course>
  <speed>4.993405651456729</speed>
  <fix>3d</fix>
</trkpt>
<trkpt lat="40.0718248" lon="-105.2283686">
  <ele>1583.0</ele>
  <time>2026-08-28T17:52:51Z</time>
  <course>71.65</course>
  <speed>5.01</speed>
  <fix>3d</fix>
</trkpt>
<trkpt lat="40.0718294" lon="-105.22835">
  <ele>1583.01</ele>
  <time>2026-08-28T17:52:51Z</time>
  <course>72.98</course>
  <speed>4.99033065036777</speed>
  <fix>3d</fix>
</trkpt>
<trkpt lat="40.0718277" lon="-105.2283573">
  <ele>1583.0</ele>
  <time>2026-08-28T17:52:51Z</time>
  <course>71.84</course>
  <speed>5.01</speed>
  <fix>3d</fix>
</trkpt>
<trkpt lat="40.0718308" lon="-105.2283444">
  <ele>1583.01</ele>
  <time>2026-08-28T17:52:51Z</time>
  <course>73.08</course>
  <speed>4.996798975344115</speed>
  <fix>3d</fix>
</trkpt>
<trkpt lat="40.0718277" lon="-105.2283573">
  <ele>1583.0</ele>
  <time>2026-08-28T17:52:51Z</time>
  <course>71.84</course>
  <speed>5.01</speed>
  <fix>3d</fix>
</trkpt>
<trkpt lat="40.0718321" lon="-105.2283388">
  <ele>1583.01</ele>
  <time>2026-08-28T17:52:51Z</time>
  <course>73.14</course>
  <speed>4.993766113866368</speed>
  <fix>3d</fix>
</trkpt>
<trkpt lat="40.0718305" lon="-105.2283462">
  <ele>1583.0</ele>
  <time>2026-08-28T17:52:51Z</time>
  <course>72.04</course>
  <speed>5.01</speed>
  <fix>3d</fix>
</trkpt>
<trkpt lat="40.0718335" lon="-105.2283331">
  <ele>1583.01</ele>
  <time>2026-08-28T17:52:51Z</time>
  <course>73.21</course>
  <speed>4.993766113866368</speed>
  <fix>3d</fix>
</trkpt>
<trkpt lat="40.0718305" lon="-105.2283462">
  <ele>1583.0</ele>
  <time>2026-08-28T17:52:51Z</time>
  <course>72.04</course>
  <speed>5.01</speed>
  <fix>3d</fix>
</trkpt>
<trkpt lat="40.0718349" lon="-105.2283275">
  <ele>1583.01</ele>
  <time>2026-08-28T17:52:51Z</time>
  <course>73.28</course>
  <speed>4.990751446425678</speed>
  <fix>3d</fix>
</trkpt>
<trkpt lat="40.0718305" lon="-105.2283462">
  <ele>1583.0</ele>
  <time>2026-08-28T17:52:51Z</time>
  <course>72.04</course>
  <speed>5.01</speed>
  <fix>3d</fix>
</trkpt>
<trkpt lat="40.0718363" lon="-105.2283219">
  <ele>1583.01</ele>
  <time>2026-08-28T17:52:51Z</time>
  <course>73.35</course>
  <speed>4.990751446425678</speed>
  <fix>3d</fix>
</trkpt>
<trkpt lat="40.0718332" lon="-105.228335">
  <ele>1583.0</ele>
  <time>2026-08-28T17:52:51Z</time>
  <course>72.19</course>
  <speed>5.01</speed>
  <fix>3d</fix>
</trkpt>
<trkpt lat="40.0718376" lon="-105.2283163">
  <ele>1583.01</ele>
  <time>2026-08-28T17:52:51Z</time>
  <course>73.42</course>
  <speed>4.987755006012224</speed>
  <fix>3d</fix>
</trkpt>
<trkpt lat="40.0718332" lon="-105.228335">
  <ele>1583.0</ele>
  <time>2026-08-28T17:52:51Z</time>
  <course>72.19</course>
  <speed>5.01</speed>
  <fix>3d</fix>
</trkpt>
<trkpt lat="40.071839" lon="-105.2283108">
  <ele>1583.01</ele>
  <time>2026-08-28T17:52:51Z</time>
  <course>73.48</course>
  <speed>4.994326781459139</speed>
  <fix>3d</fix>
</trkpt>
<trkpt lat="40.071836" lon="-105.2283238">
  <ele>1583.0</ele>
  <time>2026-08-28T17:52:51Z</time>
  <course>72.33</course>
  <speed>5.01</speed>
  <fix>3d</fix>
</trkpt>
<trkpt lat="40.0718403" lon="-105.2283052">
  <ele>1583.01</ele>
  <time>2026-08-28T17:52:51Z</time>
  <course>73.65</course>
  <speed>4.991372556722249</speed>
  <fix>3d</fix>
</trkpt>
<trkpt lat="40.071836" lon="-105.2283238">
  <ele>1583.0</ele>
  <time>2026-08-28T17:52:51Z</time>
  <course>72.33</course>
  <speed>5.01</speed>
  <fix>3d</fix>
</trkpt>
<trkpt lat="40.0718416" lon="-105.2282997">
  <ele>1583.0</ele>
  <time>2026-08-28T17:52:51Z</time>
  <course>73.92</course>
  <speed>4.985519030151224</speed>
  <fix>3d</fix>
</trkpt>
<trkpt lat="40.0718387" lon="-105.2283126">
  <ele>1583.0</ele>
  <time>2026-08-28T17:52:51Z</time>
  <course>72.51</course>
  <speed>5.01</speed>
  <fix>3d</fix>
</trkpt>
<trkpt lat="40.0718429" lon="-105.2282941">
  <ele>1583.0</ele>
  <time>2026-08-28T17:52:51Z</time>
  <course>74.28</course>
  <speed>4.986461671365779</speed>
  <fix>3d</fix>
</trkpt>
<trkpt lat="40.0718387" lon="-105.2283126">
  <ele>1583.0</ele>
  <time>2026-08-28T17:52:51Z</time>
  <course>72.51</course>
  <speed>5.01</speed>
  <fix>3d</fix>
</trkpt>
<trkpt lat="40.0718442" lon="-105.2282885">
  <ele>1583.0</ele>
  <time>2026-08-28T17:52:51Z</time>
  <course>74.76</course>
  <speed>4.982067843777321</speed>
  <fix>3d</fix>
</trkpt>
<trkpt lat="40.0718414" lon="-105.2283013">
  <ele>1583.0</ele>
  <time>2026-08-28T17:52:51Z</time>
  <course>72.95</course>
  <speed>5.01</speed>
  <fix>3d</fix>
</trkpt>
<trkpt lat="40.0718454" lon="-105.2282829">
  <ele>1583.0</ele>
  <time>2026-08-28T17:52:51Z</time>
  <course>75.32</course>
  <speed>4.980853340543164</speed>
  <fix>3d</fix>
</trkpt>
<trkpt lat="40.071844" lon="-105.22829">
  <ele>1583.0</ele>
  <time>2026-08-28T17:52:51Z</time>
  <course>73.79</course>
  <speed>5.01</speed>
  <fix>3d</fix>
</trkpt>
<trkpt lat="40.0718466" lon="-105.2282772">
  <ele>1583.01</ele>
  <time>2026-08-28T17:52:51Z</time>
  <course>75.84</course>
  <speed>4.98706326408639</speed>
  <fix>3d</fix>
</trkpt>
<trkpt lat="40.071844" lon="-105.22829">
  <ele>1583.0</ele>
  <time>2026-08-28T17:52:51Z</time>
  <course>73.79</course>
  <speed>5.01</speed>
  <fix>3d</fix>
</trkpt>
<trkpt lat="40.0718477" lon="-105.2282716">
  <ele>1583.0</ele>
  <time>2026-08-28T17:52:51Z</time>
  <course>76.31</course>
  <speed>4.98663213000518</speed>
  <fix>3d</fix>
</trkpt>
<trkpt lat="40.0718464" lon="-105.2282787">
  <ele>1583.0</ele>
  <time>2026-08-28T17:52:51Z</time>
  <course>74.8</course>
  <speed>5.02</speed>
  <fix>3d</fix>
</trkpt>
<trkpt lat="40.0718489" lon="-105.2282658">
  <ele>1583.0</ele>
  <time>2026-08-28T17:52:51Z</time>
  <course>76.73</course>
  <speed>4.9889578069973695</speed>
  <fix>3d</fix>
</trkpt>
<trkpt lat="40.0718464" lon="-105.2282787">
  <ele>1583.0</ele>
  <time>2026-08-28T17:52:51Z</time>
  <course>74.8</course>
  <speed>5.02</speed>
  <fix>3d</fix>
</trkpt>
<trkpt lat="40.0718499" lon="-105.2282601">
  <ele>1583.0</ele>
  <time>2026-08-28T17:52:51Z</time>
  <course>77.14</course>
  <speed>4.989128180353758</speed>
  <fix>3d</fix>
</trkpt>
<trkpt lat="40.0718487" lon="-105.2282673">
  <ele>1583.0</ele>
  <time>2026-08-28T17:52:51Z</time>
  <course>75.71</course>
  <speed>5.02</speed>
  <fix>3d</fix>
</trkpt>
<trkpt lat="40.071851" lon="-105.2282543">
  <ele>1582.99</ele>
  <time>2026-08-28T17:52:51Z</time>
  <course>77.48</course>
  <speed>4.991913460788358</speed>
  <fix>3d</fix>
</trkpt>
<trkpt lat="40.0718487" lon="-105.2282673">
  <ele>1583.0</ele>
  <time>2026-08-28T17:52:51Z</time>
  <course>75.71</course>
  <speed>5.02</speed>
  <fix>3d</fix>
</trkpt>
<trkpt lat="40.0718521" lon="-105.2282485">
  <ele>1582.99</ele>
  <time>2026-08-28T17:52:51Z</time>
  <course>77.88</course>
  <speed>4.9948973963435925</speed>
  <fix>3d</fix>
</trkpt>
<trkpt lat="40.0718509" lon="-105.2282558">
  <ele>1583.0</ele>
  <time>2026-08-28T17:52:51Z</time>
  <course>76.49</course>
  <speed>5.02</speed>
  <fix>3d</fix>
</trkpt>
<trkpt lat="40.0718531" lon="-105.2282427">
  <ele>1582.99</ele>
  <time>2026-08-28T17:52:51Z</time>
  <course>78.29</course>
  <speed>4.995928342160243</speed>
  <fix>3d</fix>
</trkpt>
<trkpt lat="40.0718509" lon="-105.2282558">
  <ele>1583.0</ele>
  <time>2026-08-28T17:52:51Z</time>
  <course>76.49</course>
  <speed>5.02</speed>
  <fix>3d</fix>
</trkpt>
<trkpt lat="40.071854" lon="-105.2282369">
  <ele>1582.99</ele>
  <time>2026-08-28T17:52:51Z</time>
  <course>78.63</course>
  <speed>4.999369960304998</speed>
  <fix>3d</fix>
</trkpt>
<trkpt lat="40.071853" lon="-105.2282443">
  <ele>1583.0</ele>
  <time>2026-08-28T17:52:51Z</time>
  <course>77.24</course>
  <speed>5.02</speed>
  <fix>3d</fix>
</trkpt>
<trkpt lat="40.071855" lon="-105.2282311">
  <ele>1582.99</ele>
  <time>2026-08-28T17:52:51Z</time>
  <course>78.97</course>
  <speed>5.003009094535008</speed>
  <fix>3d</fix>
</trkpt>
<trkpt lat="40.071853" lon="-105.2282443">
  <ele>1583.0</ele>
  <time>2026-08-28T17:52:51Z</time>
  <course>77.24</course>
  <speed>5.02</speed>
  <fix>3d</fix>
</trkpt>
<trkpt lat="40.0718559" lon="-105.2282253">
  <ele>1583.0</ele>
  <time>2026-08-28T17:52:51Z</time>
  <course>79.25</course>
  <speed>4.99900990197059</speed>
  <fix>3d</fix>
</trkpt>
<trkpt lat="40.0718549" lon="-105.2282328">
  <ele>1583.0</ele>
  <time>2026-08-28T17:52:51Z</time>
  <course>77.93</course>
  <speed>5.02</speed>
  <fix>3d</fix>
</trkpt>
<trkpt lat="40.0718568" lon="-105.2282195">
  <ele>1583.0</ele>
  <time>2026-08-28T17:52:51Z</time>
  <course>79.52</course>
  <speed>5.004897601350102</speed>
  <fix>3d</fix>
</trkpt>
<trkpt lat="40.0718549" lon="-105.2282328">
  <ele>1583.0</ele>
  <time>2026-08-28T17:52:51Z</time>
  <course>77.93</course>
  <speed>5.02</speed>
  <fix>3d</fix>
</trkpt>
<trkpt lat="40.0718577" lon="-105.2282137">
  <ele>1583.0</ele>
  <time>2026-08-28T17:52:51Z</time>
  <course>79.8</course>
  <speed>4.999169931098562</speed>
  <fix>3d</fix>
</trkpt>
<trkpt lat="40.0718549" lon="-105.2282328">
  <ele>1583.0</ele>
  <time>2026-08-28T17:52:51Z</time>
  <course>77.93</course>
  <speed>5.02</speed>
  <fix>3d</fix>
</trkpt>
<trkpt lat="40.0718586" lon="-105.2282079">
  <ele>1583.0</ele>
  <time>2026-08-28T17:52:51Z</time>
  <course>80.0</course>
  <speed>5.005277215100079</speed>
  <fix>3d</fix>
</trkpt>
<trkpt lat="40.0718567" lon="-105.2282213">
  <ele>1583.0</ele>
  <time>2026-08-28T17:52:51Z</time>
  <course>78.51</course>
  <speed>5.02</speed>
  <fix>3d</fix>
</trkpt>
<trkpt lat="40.0718594" lon="-105.2282021">
  <ele>1583.0</ele>
  <time>2026-08-28T17:52:51Z</time>
  <course>80.2</course>
  <speed>5.003448810570565</speed>
  <fix>3d</fix>
</trkpt>
<trkpt lat="40.0718567" lon="-105.2282213">
  <ele>1583.0</ele>
  <time>2026-08-28T17:52:51Z</time>
  <course>78.51</course>
  <speed>5.02</speed>
  <fix>3d</fix>
</trkpt>
<trkpt lat="40.0718602" lon="-105.2281964">
  <ele>1583.0</ele>
  <time>2026-08-28T17:52:51Z</time>
  <course>80.41</course>
  <speed>4.999849997749933</speed>
  <fix>3d</fix>
</trkpt>
<trkpt lat="40.0718585" lon="-105.2282096">
  <ele>1583.0</ele>
  <time>2026-08-28T17:52:51Z</time>
  <course>78.99</course>
  <speed>5.02</speed>
  <fix>3d</fix>
</trkpt>
<trkpt lat="40.071861" lon="-105.2281906">
  <ele>1583.0</ele>
  <time>2026-08-28T17:52:51Z</time>
  <course>80.68</course>
  <speed>4.994597080846462</speed>
  <fix>3d</fix>
</trkpt>
<trkpt lat="40.0718585" lon="-105.2282096">
  <ele>1583.0</ele>
  <time>2026-08-28T17:52:51Z</time>
  <course>78.99</course>
  <speed>5.02</speed>
  <fix>3d</fix>
</trkpt>
<trkpt lat="40.0718618" lon="-105.2281849">
  <ele>1583.0</ele>
  <time>2026-08-28T17:52:51Z</time>
  <course>80.95</course>
  <speed>5.001049889773146</speed>
  <fix>3d</fix>
</trkpt>
<trkpt lat="40.0718602" lon="-105.228198">
  <ele>1583.0</ele>
  <time>2026-08-28T17:52:51Z</time>
  <course>79.43</course>
  <speed>5.02</speed>
  <fix>3d</fix>
</trkpt>
<trkpt lat="40.0718626" lon="-105.2281791">
  <ele>1583.0</ele>
  <time>2026-08-28T17:52:51Z</time>
  <course>81.22</course>
  <speed>4.997729484475926</speed>
  <fix>3d</fix>
</trkpt>
<trkpt lat="40.0718602" lon="-105.228198">
  <ele>1583.0</ele>
  <time>2026-08-28T17:52:51Z</time>
  <course>79.43</course>
  <speed>5.02</speed>
  <fix>3d</fix>
</trkpt>
<trkpt lat="40.0718633" lon="-105.2281733">
  <ele>1583.0</ele>
  <time>2026-08-28T17:52:51Z</time>
  <course>81.44</course>
  <speed>4.994486960639701</speed>
  <fix>3d</fix>
</trkpt>
<trkpt lat="40.0718617" lon="-105.2281864">
  <ele>1583.0</ele>
  <time>2026-08-28T17:52:51Z</time>
  <course>79.95</course>
  <speed>5.02</speed>
  <fix>3d</fix>
</trkpt>
<trkpt lat="40.071864" lon="-105.2281675">
  <ele>1583.0</ele>
  <time>2026-08-28T17:52:51Z</time>
  <course>81.65</course>
  <speed>4.991322470047392</speed>
  <fix>3d</fix>
</trkpt>
<trkpt lat="40.0718633" lon="-105.2281748">
  <ele>1583.0</ele>
  <time>2026-08-28T17:52:51Z</time>
  <course>80.43</course>
  <speed>5.02</speed>
  <fix>3d</fix>
</trkpt>
<trkpt lat="40.0718648" lon="-105.2281617">
  <ele>1583.0</ele>
  <time>2026-08-28T17:52:51Z</time>
  <course>81.85</course>
  <speed>4.998119646427044</speed>
  <fix>3d</fix>
</trkpt>
<trkpt lat="40.0718633" lon="-105.2281748">
  <ele>1583.0</ele>
  <time>2026-08-28T17:52:51Z</time>
  <course>80.43</course>
  <speed>5.02</speed>
  <fix>3d</fix>
</trkpt>
<trkpt lat="40.0718655" lon="-105.2281559">
  <ele>1583.0</ele>
  <time>2026-08-28T17:52:51Z</time>
  <course>82.05</course>
  <speed>4.995117616232875</speed>
  <fix>3d</fix>
</trkpt>
<trkpt lat="40.0718648" lon="-105.2281632">
  <ele>1583.0</ele>
  <time>2026-08-28T17:52:51Z</time>
  <course>80.84</course>
  <speed>5.03</speed>
  <fix>3d</fix>
</trkpt>
<trkpt lat="40.0718662" lon="-105.22815">
  <ele>1583.0</ele>
  <time>2026-08-28T17:52:51Z</time>
  <course>82.2</course>
  <speed>4.993645962620898</speed>
  <fix>3d</fix>
</trkpt>
<trkpt lat="40.0718648" lon="-105.2281632">
  <ele>1583.0</ele>
  <time>2026-08-28T17:52:51Z</time>
  <course>80.84</course>
  <speed>5.03</speed>
  <fix>3d</fix>
</trkpt>
<trkpt lat="40.0718668" lon="-105.2281442">
  <ele>1583.0</ele>
  <time>2026-08-28T17:52:51Z</time>
  <course>82.33</course>
  <speed>5.002089563372491</speed>
  <fix>3d</fix>
</trkpt>
<trkpt lat="40.0718662" lon="-105.2281515">
  <ele>1583.0</ele>
  <time>2026-08-28T17:52:51Z</time>
  <course>81.19</course>
  <speed>5.03</speed>
  <fix>3d</fix>
</trkpt>
<trkpt lat="40.0718675" lon="-105.2281383">
  <ele>1583.0</ele>
  <time>2026-08-28T17:52:51Z</time>
  <course>82.46</course>
  <speed>5.000659956445749</speed>
  <fix>3d</fix>
</trkpt>
<trkpt lat="40.0718662" lon="-105.2281515">
  <ele>1583.0</ele>
  <time>2026-08-28T17:52:51Z</time>
  <course>81.19</course>
  <speed>5.03</speed>
  <fix>3d</fix>
</trkpt>
<trkpt lat="40.0718682" lon="-105.2281324">
  <ele>1583.0</ele>
  <time>2026-08-28T17:52:51Z</time>
  <course>82.65</course>
  <speed>4.997859541843888</speed>
  <fix>3d</fix>
</trkpt>
<trkpt lat="40.0718676" lon="-105.2281398">
  <ele>1583.0</ele>
  <time>2026-08-28T17:52:51Z</time>
  <course>81.5</course>
  <speed>5.02</speed>
  <fix>3d</fix>
</trkpt>
<trkpt lat="40.0718688" lon="-105.2281265">
  <ele>1583.0</ele>
  <time>2026-08-28T17:52:51Z</time>
  <course>82.95</course>
  <speed>5.005047452322505</speed>
  <fix>3d</fix>
</trkpt>
<trkpt lat="40.0718676" lon="-105.2281398">
  <ele>1583.0</ele>
  <time>2026-08-28T17:52:51Z</time>
  <course>81.5</course>
  <speed>5.02</speed>
  <fix>3d</fix>
</trkpt>
<trkpt lat="40.0718694" lon="-105.2281206">
  <ele>1583.01</ele>
  <time>2026-08-28T17:52:51Z</time>
  <course>83.36</course>
  <speed>4.999849997749933</speed>
  <fix>3d</fix>
</trkpt>
<trkpt lat="40.0718689" lon="-105.2281281">
  <ele>1583.0</ele>
  <time>2026-08-28T17:52:51Z</time>
  <course>82.02</course>
  <speed>5.02</speed>
  <fix>3d</fix>
</trkpt>
<trkpt lat="40.07187" lon="-105.2281147">
  <ele>1583.01</ele>
  <time>2026-08-28T17:52:51Z</time>
  <course>83.86</course>
  <speed>5.004897601350102</speed>
  <fix>3d</fix>
</trkpt>
<trkpt lat="40.0718689" lon="-105.2281281">
  <ele>1583.0</ele>
  <time>2026-08-28T17:52:51Z</time>
  <course>82.02</course>
  <speed>5.02</speed>
  <fix>3d</fix>
</trkpt>
<trkpt lat="40.0718705" lon="-105.2281088">
  <ele>1583.01</ele>
  <time>2026-08-28T17:52:51Z</time>
  <course>84.46</course>
  <speed>4.998179668639374</speed>
  <fix>3d</fix>
</trkpt>
<trkpt lat="40.07187" lon="-105.2281165">
  <ele>1583.0</ele>
  <time>2026-08-28T17:52:51Z</time>
  <course>82.92</course>
  <speed>5.02</speed>
  <fix>3d</fix>
</trkpt>
<trkpt lat="40.071871" lon="-105.2281029">
  <ele>1583.02</ele>
  <time>2026-08-28T17:52:51Z</time>
  <course>85.01</course>
  <speed>5.004048361077259</speed>
  <fix>3d</fix>
</trkpt>
<trkpt lat="40.07187" lon="-105.2281165">
  <ele>1583.0</ele>
  <time>2026-08-28T17:52:51Z</time>
  <course>82.92</course>
  <speed>5.02</speed>
  <fix>3d</fix>
</trkpt>
<trkpt lat="40.0718715" lon="-105.228097">
  <ele>1583.02</ele>
  <time>2026-08-28T17:52:51Z</time>
  <course>85.53</course>
  <speed>4.999399963995679</speed>
  <fix>3d</fix>
</trkpt>
<trkpt lat="40.071871" lon="-105.2281048">
  <ele>1583.0</ele>
  <time>2026-08-28T17:52:51Z</time>
  <course>84.01</course>
  <speed>5.02</speed>
  <fix>3d</fix>
</trkpt>
<trkpt lat="40.0718719" lon="-105.2280911">
  <ele>1583.02</ele>
  <time>2026-08-28T17:52:51Z</time>
  <course>86.0</course>
  <speed>4.996038430596786</speed>
  <fix>3d</fix>
</trkpt>
<trkpt lat="40.071871" lon="-105.2281048">
  <ele>1583.0</ele>
  <time>2026-08-28T17:52:51Z</time>
  <course>84.01</course>
  <speed>5.02</speed>
  <fix>3d</fix>
</trkpt>
<trkpt lat="40.0718722" lon="-105.2280853">
  <ele>1583.02</ele>
  <time>2026-08-28T17:52:51Z</time>
  <course>86.43</course>
  <speed>5.0029691184335725</speed>
  <fix>3d</fix>
</trkpt>
<trkpt lat="40.071871" lon="-105.2281048">
  <ele>1583.0</ele>
  <time>2026-08-28T17:52:51Z</time>
  <course>84.01</course>
  <speed>5.02</speed>
  <fix>3d</fix>
</trkpt>
<trkpt lat="40.0718725" lon="-105.2280794">
  <ele>1583.02</ele>
  <time>2026-08-28T17:52:51Z</time>
  <course>86.83</course>
  <speed>5.000249993750312</speed>
  <fix>3d</fix>
</trkpt>
<trkpt lat="40.071872" lon="-105.2280931">
  <ele>1583.0</ele>
  <time>2026-08-28T17:52:51Z</time>
  <course>85.0</course>
  <speed>5.01</speed>
  <fix>3d</fix>
</trkpt>
<trkpt lat="40.0718728" lon="-105.2280736">
  <ele>1583.02</ele>
  <time>2026-08-28T17:52:51Z</time>
  <course>87.27</course>
  <speed>4.998419750281083</speed>
  <fix>3d</fix>
</trkpt>
<trkpt lat="40.071872" lon="-105.2280931">
  <ele>1583.0</ele>
  <time>2026-08-28T17:52:51Z</time>
  <course>85.0</course>
  <speed>5.01</speed>
  <fix>3d</fix>
</trkpt>
<trkpt lat="40.0718731" lon="-105.2280677">
  <ele>1583.02</ele>
  <time>2026-08-28T17:52:51Z</time>
  <course>87.69</course>
  <speed>4.996258600192748</speed>
  <fix>3d</fix>
</trkpt>
<trkpt lat="40.0718727" lon="-105.2280812">
  <ele>1583.0</ele>
  <time>2026-08-28T17:52:51Z</time>
  <course>85.87</course>
  <speed>5.01</speed>
  <fix>3d</fix>
</trkpt>
<trkpt lat="40.0718733" lon="-105.2280619">
  <ele>1583.02</ele>
  <time>2026-08-28T17:52:51Z</time>
  <course>88.1</course>
  <speed>4.994416882880323</speed>
  <fix>3d</fix>
</trkpt>
<trkpt lat="40.0718727" lon="-105.2280812">
  <ele>1583.0</ele>
  <time>2026-08-28T17:52:51Z</time>
  <course>85.87</course>
  <speed>5.01</speed>
  <fix>3d</fix>
</trkpt>
<trkpt lat="40.0718735" lon="-105.2280561">
  <ele>1583.02</ele>
  <time>2026-08-28T17:52:51Z</time>
  <course>88.44</course>
  <speed>4.983251950283067</speed>
  <fix>3d</fix>
</trkpt>
<trkpt lat="40.0718732" lon="-105.2280695">
  <ele>1583.0</ele>
  <time>2026-08-28T17:52:51Z</time>
  <course>86.71</course>
  <speed>5.01</speed>
  <fix>3d</fix>
</trkpt>
<trkpt lat="40.0718737" lon="-105.2280502">
  <ele>1583.01</ele>
  <time>2026-08-28T17:52:51Z</time>
  <course>88.78</course>
  <speed>4.982258524002945</speed>
  <fix>3d</fix>
</trkpt>
<trkpt lat="40.0718737" lon="-105.2280577">
  <ele>1583.0</ele>
  <time>2026-08-28T17:52:51Z</time>
  <course>87.46</course>
  <speed>5.01</speed>
  <fix>3d</fix>
</trkpt>
<trkpt lat="40.0718739" lon="-105.2280443">
  <ele>1583.01</ele>
  <time>2026-08-28T17:52:51Z</time>
  <course>89.08</course>
  <speed>4.991693099540475</speed>
  <fix>3d</fix>
</trkpt>
<trkpt lat="40.0718737" lon="-105.2280577">
  <ele>1583.0</ele>
  <time>2026-08-28T17:52:51Z</time>
  <course>87.46</course>
  <speed>5.01</speed>
  <fix>3d</fix>
</trkpt>
<trkpt lat="40.071874" lon="-105.2280385">
  <ele>1583.0</ele>
  <time>2026-08-28T17:52:51Z</time>
  <course>89.35</course>
  <speed>4.991001903425804</speed>
  <fix>3d</fix>
</trkpt>
<trkpt lat="40.071874" lon="-105.228046">
  <ele>1583.0</ele>
  <time>2026-08-28T17:52:51Z</time>
  <course>88.09</course>
  <speed>5.01</speed>
  <fix>3d</fix>
</trkpt>
<trkpt lat="40.0718741" lon="-105.2280326">
  <ele>1583.0</ele>
  <time>2026-08-28T17:52:51Z</time>
  <course>89.62</course>
  <speed>4.9906412413636785</speed>
  <fix>3d</fix>
</trkpt>
<trkpt lat="40.071874" lon="-105.228046">
  <ele>1583.0</ele>
  <time>2026-08-28T17:52:51Z</time>
  <course>88.09</course>
  <speed>5.01</speed>
  <fix>3d</fix>
</trkpt>
<trkpt lat="40.0718742" lon="-105.2280267">
  <ele>1583.0</ele>
  <time>2026-08-28T17:52:51Z</time>
  <course>89.84</course>
  <speed>4.990360708405756</speed>
  <fix>3d</fix>
</trkpt>
<trkpt lat="40.0718743" lon="-105.2280342">
  <ele>1583.0</ele>
  <time>2026-08-28T17:52:51Z</time>
  <course>88.62</course>
  <speed>5.01</speed>
  <fix>3d</fix>
</trkpt>
<trkpt lat="40.0718743" lon="-105.2280208">
  <ele>1583.0</ele>
  <time>2026-08-28T17:52:51Z</time>
  <course>90.04</course>
  <speed>5.000159997440082</speed>
  <fix>3d</fix>
</trkpt>
<trkpt lat="40.0718743" lon="-105.2280342">
  <ele>1583.0</ele>
  <time>2026-08-28T17:52:51Z</time>
  <course>88.62</course>
  <speed>5.01</speed>
  <fix>3d</fix>
</trkpt>
<trkpt lat="40.0718743" lon="-105.2280149">
  <ele>1583.0</ele>
  <time>2026-08-28T17:52:51Z</time>
  <course>90.27</course>
  <speed>5.000039999840001</speed>
  <fix>3d</fix>
</trkpt>
<trkpt lat="40.0718745" lon="-105.2280225">
  <ele>1583.0</ele>
  <time>2026-08-28T17:52:51Z</time>
  <course>89.08</course>
  <speed>5.01</speed>
  <fix>3d</fix>
</trkpt>
<trkpt lat="40.0718743" lon="-105.2280089">
  <ele>1583.01</ele>
  <time>2026-08-28T17:52:51Z</time>
  <course>90.62</course>
  <speed>5.0</speed>
  <fix>3d</fix>
</trkpt>
<trkpt lat="40.0718745" lon="-105.2280225">
  <ele>1583.0</ele>
  <time>2026-08-28T17:52:51Z</time>
  <course>89.08</course>
  <speed>5.01</speed>
  <fix>3d</fix>
</trkpt>
<trkpt lat="40.0718743" lon="-105.228003">
  <ele>1583.01</ele>
  <time>2026-08-28T17:52:51Z</time>
  <course>91.07</course>
  <speed>5.000159997440082</speed>
  <fix>3d</fix>
</trkpt>
<trkpt lat="40.0718746" lon="-105.2280107">
  <ele>1583.0</ele>
  <time>2026-08-28T17:52:51Z</time>
  <course>89.7</course>
  <speed>5.01</speed>
  <fix>3d</fix>
</trkpt>
<trkpt lat="40.0718743" lon="-105.2279971">
  <ele>1583.01</ele>
  <time>2026-08-28T17:52:51Z</time>
  <course>91.62</course>
  <speed>5.0008099344006265</speed>
  <fix>3d</fix>
</trkpt>
<trkpt lat="40.0718746" lon="-105.2280107">
  <ele>1583.0</ele>
  <time>2026-08-28T17:52:51Z</time>
  <course>89.7</course>
  <speed>5.01</speed>
  <fix>3d</fix>
</trkpt>
<trkpt lat="40.0718743" lon="-105.2279912">
  <ele>1583.01</ele>
  <time>2026-08-28T17:52:51Z</time>
  <course>92.27</course>
  <speed>4.991963541533532</speed>
  <fix>3d</fix>
</trkpt>
<trkpt lat="40.0718746" lon="-105.2279989">
  <ele>1583.0</ele>
  <time>2026-08-28T17:52:51Z</time>
  <course>90.71</course>
  <speed>5.01</speed>
  <fix>3d</fix>
</trkpt>
<trkpt lat="40.0718742" lon="-105.2279852">
  <ele>1583.02</ele>
  <time>2026-08-28T17:52:51Z</time>
  <course>92.87</course>
  <speed>4.99361592435782</speed>
  <fix>3d</fix>
</trkpt>
<trkpt lat="40.0718746" lon="-105.2279989">
  <ele>1583.0</ele>
  <time>2026-08-28T17:52:51Z</time>
  <course>90.71</course>
  <speed>5.01</speed>
  <fix>3d</fix>
</trkpt>
<trkpt lat="40.071874" lon="-105.2279793">
  <ele>1583.02</ele>
  <time>2026-08-28T17:52:51Z</time>
  <course>93.41</course>
  <speed>4.995768209194658</speed>
  <fix>3d</fix>
</trkpt>
<trkpt lat="40.0718744" lon="-105.2279872">
  <ele>1583.0</ele>
  <time>2026-08-28T17:52:51Z</time>
  <course>91.88</course>
  <speed>5.01</speed>
  <fix>3d</fix>
</trkpt>
<trkpt lat="40.0718738" lon="-105.2279734">
  <ele>1583.02</ele>
  <time>2026-08-28T17:52:51Z</time>
  <course>93.92</course>
  <speed>4.998419750281083</speed>
  <fix>3d</fix>
</trkpt>
<trkpt lat="40.0718744" lon="-105.2279872">
  <ele>1583.0</ele>
  <time>2026-08-28T17:52:51Z</time>
  <course>91.88</course>
  <speed>5.01</speed>
  <fix>3d</fix>
</trkpt>
<trkpt lat="40.0718735" lon="-105.2279676">
  <ele>1583.02</ele>
  <time>2026-08-28T17:52:51Z</time>
  <course>94.39</course>
  <speed>4.990921758553224</speed>
  <fix>3d</fix>
</trkpt>
<trkpt lat="40.0718744" lon="-105.2279872">
  <ele>1583.0</ele>
  <time>2026-08-28T17:52:51Z</time>
  <course>91.88</course>
  <speed>5.01</speed>
  <fix>3d</fix>
</trkpt>
<trkpt lat="40.0718732" lon="-105.2279617">
  <ele>1583.02</ele>
  <time>2026-08-28T17:52:51Z</time>
  <course>94.8</course>
  <speed>4.992995093127972</speed>
  <fix>3d</fix>
</trkpt>
<trkpt lat="40.0718741" lon="-105.2279753">
  <ele>1583.0</ele>
  <time>2026-08-28T17:52:51Z</time>
  <course>92.94</course>
  <speed>5.01</speed>
  <fix>3d</fix>
</trkpt>
<trkpt lat="40.0718729" lon="-105.2279559">
  <ele>1583.02</ele>
  <time>2026-08-28T17:52:51Z</time>
  <course>95.22</course>
  <speed>4.996038430596786</speed>
  <fix>3d</fix>
</trkpt>
<trkpt lat="40.0718741" lon="-105.2279753">
  <ele>1583.0</ele>
  <time>2026-08-28T17:52:51Z</time>
  <course>92.94</course>
  <speed>5.01</speed>
  <fix>3d</fix>
</trkpt>
<trkpt lat="40.0718726" lon="-105.2279501">
  <ele>1583.02</ele>
  <time>2026-08-28T17:52:51Z</time>
  <course>95.74</course>
  <speed>4.989438846203047</speed>
  <fix>3d</fix>
</trkpt>
<trkpt lat="40.0718736" lon="-105.2279636">
  <ele>1583.0</ele>
  <time>2026-08-28T17:52:51Z</time>
  <course>93.85</course>
  <speed>5.01</speed>
  <fix>3d</fix>
</trkpt>
<trkpt lat="40.0718722" lon="-105.2279443">
  <ele>1583.02</ele>
  <time>2026-08-28T17:52:51Z</time>
  <course>96.36</course>
  <speed>4.985137911833533</speed>
  <fix>3d</fix>
</trkpt>
<trkpt lat="40.0718736" lon="-105.2279636">
  <ele>1583.0</ele>
  <time>2026-08-28T17:52:51Z</time>
  <course>93.85</course>
  <speed>5.01</speed>
  <fix>3d</fix>
</trkpt>
<trkpt lat="40.0718717" lon="-105.2279385">
  <ele>1583.03</ele>
  <time>2026-08-28T17:52:51Z</time>
  <course>97.09</course>
  <speed>4.991512796738079</speed>
  <fix>3d</fix>
</trkpt>
<trkpt lat="40.0718729" lon="-105.2279518">
  <ele>1583.0</ele>
  <time>2026-08-28T17:52:51Z</time>
  <course>94.84</course>
  <speed>5.01</speed>
  <fix>3d</fix>
</trkpt>
<trkpt lat="40.0718712" lon="-105.2279327">
  <ele>1583.03</ele>
  <time>2026-08-28T17:52:51Z</time>
  <course>97.86</course>
  <speed>4.98992985922648</speed>
  <fix>3d</fix>
</trkpt>
<trkpt lat="40.0718729" lon="-105.2279518">
  <ele>1583.0</ele>
  <time>2026-08-28T17:52:51Z</time>
  <course>94.84</course>
  <speed>5.01</speed>
  <fix>3d</fix>
</trkpt>
<trkpt lat="40.0718706" lon="-105.2279269">
  <ele>1583.03</ele>
  <time>2026-08-28T17:52:51Z</time>
  <course>98.56</course>
  <speed>4.987955492985077</speed>
  <fix>3d</fix>
</trkpt>
<trkpt lat="40.071872" lon="-105.2279401">
  <ele>1583.0</ele>
  <time>2026-08-28T17:52:51Z</time>
  <course>96.16</course>
  <speed>5.01</speed>
  <fix>3d</fix>
</trkpt>
<trkpt lat="40.07187" lon="-105.2279211">
  <ele>1583.04</ele>
  <time>2026-08-28T17:52:51Z</time>
  <course>99.2</course>
  <speed>4.985228179331414</speed>
  <fix>3d</fix>
</trkpt>
<trkpt lat="40.0718709" lon="-105.2279284">
  <ele>1583.0</ele>
  <time>2026-08-28T17:52:51Z</time>
  <course>97.57</course>
  <speed>5.01</speed>
  <fix>3d</fix>
</trkpt>
<trkpt lat="40.0718693" lon="-105.2279153">
  <ele>1583.04</ele>
  <time>2026-08-28T17:52:51Z</time>
  <course>99.79</course>
  <speed>4.983021171939771</speed>
  <fix>3d</fix>
</trkpt>
<trkpt lat="40.0718709" lon="-105.2279284">
  <ele>1583.0</ele>
  <time>2026-08-28T17:52:51Z</time>
  <course>97.57</course>
  <speed>5.01</speed>
  <fix>3d</fix>
</trkpt>
<trkpt lat="40.0718686" lon="-105.2279095">
  <ele>1583.04</ele>
  <time>2026-08-28T17:52:51Z</time>
  <course>100.32</course>
  <speed>4.991192242340501</speed>
  <fix>3d</fix>
</trkpt>
<trkpt lat="40.0718696" lon="-105.2279168">
  <ele>1583.0</ele>
  <time>2026-08-28T17:52:51Z</time>
  <course>98.8</course>
  <speed>5.01</speed>
  <fix>3d</fix>
</trkpt>
<trkpt lat="40.0718679" lon="-105.2279037">
  <ele>1583.05</ele>
  <time>2026-08-28T17:52:51Z</time>
  <course>100.8</course>
  <speed>4.9882361612096915</speed>
  <fix>3d</fix>
</trkpt>
<trkpt lat="40.0718696" lon="-105.2279168">
  <ele>1583.0</ele>
  <time>2026-08-28T17:52:51Z</time>
  <course>98.8</course>
  <speed>5.01</speed>
  <fix>3d</fix>
</trkpt>
<trkpt lat="40.071867" lon="-105.2278979">
  <ele>1583.05</ele>
  <time>2026-08-28T17:52:51Z</time>
  <course>101.27</course>
  <speed>4.9954479278639266</speed>
  <fix>3d</fix>
</trkpt>
<trkpt lat="40.0718682" lon="-105.2279052">
  <ele>1583.0</ele>
  <time>2026-08-28T17:52:51Z</time>
  <course>99.84</course>
  <speed>5.02</speed>
  <fix>3d</fix>
</trkpt>
<trkpt lat="40.0718662" lon="-105.2278921">
  <ele>1583.05</ele>
  <time>2026-08-28T17:52:51Z</time>
  <course>101.84</course>
  <speed>4.9950875868196745</speed>
  <fix>3d</fix>
</trkpt>
<trkpt lat="40.0718682" lon="-105.2279052">
  <ele>1583.0</ele>
  <time>2026-08-28T17:52:51Z</time>
  <course>99.84</course>
  <speed>5.02</speed>
  <fix>3d</fix>
</trkpt>
<trkpt lat="40.0718653" lon="-105.2278862">
  <ele>1583.05</ele>
  <time>2026-08-28T17:52:51Z</time>
  <course>102.51</course>
  <speed>4.997299270606074</speed>
  <fix>3d</fix>
</trkpt>
<trkpt lat="40.0718665" lon="-105.2278935">
  <ele>1583.0</ele>
  <time>2026-08-28T17:52:51Z</time>
  <course>100.94</course>
  <speed>5.02</speed>
  <fix>3d</fix>
</trkpt>
<trkpt lat="40.0718643" lon="-105.2278804">
  <ele>1583.04</ele>
  <time>2026-08-28T17:52:51Z</time>
  <course>103.28</course>
  <speed>5.002439404930358</speed>
  <fix>3d</fix>
</trkpt>
<trkpt lat="40.0718665" lon="-105.2278935">
  <ele>1583.0</ele>
  <time>2026-08-28T17:52:51Z</time>
  <course>100.94</course>
  <speed>5.02</speed>
  <fix>3d</fix>
</trkpt>
<trkpt lat="40.0718633" lon="-105.2278746">
  <ele>1583.05</ele>
  <time>2026-08-28T17:52:51Z</time>
  <course>104.16</course>
  <speed>4.998849867719573</speed>
  <fix>3d</fix>
</trkpt>
<trkpt lat="40.0718647" lon="-105.227882">
  <ele>1583.0</ele>
  <time>2026-08-28T17:52:51Z</time>
  <course>102.39</course>
  <speed>5.02</speed>
  <fix>3d</fix>
</trkpt>
<trkpt lat="40.0718622" lon="-105.2278689">
  <ele>1583.05</ele>
  <time>2026-08-28T17:52:51Z</time>
  <course>105.14</course>
  <speed>5.001319825805984</speed>
  <fix>3d</fix>
</trkpt>
<trkpt lat="40.0718647" lon="-105.227882">
  <ele>1583.0</ele>
  <time>2026-08-28T17:52:51Z</time>
  <course>102.39</course>
  <speed>5.02</speed>
  <fix>3d</fix>
</trkpt>
<trkpt lat="40.0718611" lon="-105.2278631">
  <ele>1583.05</ele>
  <time>2026-08-28T17:52:51Z</time>
  <course>106.22</course>
  <speed>5.005486989294848</speed>
  <fix>3d</fix>
</trkpt>
<trkpt lat="40.0718626" lon="-105.2278705">
  <ele>1583.0</ele>
  <time>2026-08-28T17:52:51Z</time>
  <course>104.25</course>
  <speed>5.02</speed>
  <fix>3d</fix>
</trkpt>
<trkpt lat="40.0718598" lon="-105.2278574">
  <ele>1583.05</ele>
  <time>2026-08-28T17:52:51Z</time>
  <course>107.21</course>
  <speed>5.001769686820856</speed>
  <fix>3d</fix>
</trkpt>
<trkpt lat="40.0718626" lon="-105.2278705">
  <ele>1583.0</ele>
  <time>2026-08-28T17:52:51Z</time>
  <course>104.25</course>
  <speed>5.02</speed>
  <fix>3d</fix>
</trkpt>
<trkpt lat="40.0718585" lon="-105.2278518">
  <ele>1583.05</ele>
  <time>2026-08-28T17:52:51Z</time>
  <course>108.12</course>
  <speed>5.003298911718148</speed>
  <fix>3d</fix>
</trkpt>
<trkpt lat="40.0718603" lon="-105.2278592">
  <ele>1583.0</ele>
  <time>2026-08-28T17:52:51Z</time>
  <course>106.23</course>
  <speed>5.02</speed>
  <fix>3d</fix>
</trkpt>
<trkpt lat="40.0718571" lon="-105.2278461">
  <ele>1583.05</ele>
  <time>2026-08-28T17:52:51Z</time>
  <course>108.96</course>
  <speed>4.996398703066039</speed>
  <fix>3d</fix>
</trkpt>
<trkpt lat="40.0718603" lon="-105.2278592">
  <ele>1583.0</ele>
  <time>2026-08-28T17:52:51Z</time>
  <course>106.23</course>
  <speed>5.02</speed>
  <fix>3d</fix>
</trkpt>
<trkpt lat="40.0718556" lon="-105.2278405">
  <ele>1583.04</ele>
  <time>2026-08-28T17:52:51Z</time>
  <course>109.76</course>
  <speed>5.000089999190014</speed>
  <fix>3d</fix>
</trkpt>
<trkpt lat="40.0718603" lon="-105.2278592">
  <ele>1583.0</ele>
  <time>2026-08-28T17:52:51Z</time>
  <course>106.23</course>
  <speed>5.02</speed>
  <fix>3d</fix>
</trkpt>
<trkpt lat="40.0718541" lon="-105.227835">
  <ele>1583.04</ele>
  <time>2026-08-28T17:52:51Z</time>
  <course>110.63</course>
  <speed>4.9954479278639266</speed>
  <fix>3d</fix>
</trkpt>
<trkpt lat="40.0718576" lon="-105.2278479">
  <ele>1583.0</ele>
  <time>2026-08-28T17:52:51Z</time>
  <course>108.01</course>
  <speed>5.02</speed>
  <fix>3d</fix>
</trkpt>
<trkpt lat="40.0718526" lon="-105.2278295">
  <ele>1583.04</ele>
  <time>2026-08-28T17:52:51Z</time>
  <course>111.6</course>
  <speed>4.995558026887487</speed>
  <fix>3d</fix>
</trkpt>
<trkpt lat="40.0718576" lon="-105.2278479">
  <ele>1583.0</ele>
  <time>2026-08-28T17:52:51Z</time>
  <course>108.01</course>
  <speed>5.02</speed>
  <fix>3d</fix>
</trkpt>
<trkpt lat="40.0718509" lon="-105.2278241">
  <ele>1583.04</ele>
  <time>2026-08-28T17:52:51Z</time>
  <course>112.66</course>
  <speed>4.991643016081979</speed>
  <fix>3d</fix>
</trkpt>
<trkpt lat="40.0718547" lon="-105.2278367">
  <ele>1583.0</ele>
  <time>2026-08-28T17:52:51Z</time>
  <course>109.76</course>
  <speed>5.01</speed>
  <fix>3d</fix>
</trkpt>
<trkpt lat="40.0718492" lon="-105.2278187">
  <ele>1583.04</ele>
  <time>2026-08-28T17:52:51Z</time>
  <course>113.75</course>
  <speed>4.9857095783850065</speed>
  <fix>3d</fix>
</trkpt>
<trkpt lat="40.0718547" lon="-105.2278367">
  <ele>1583.0</ele>
  <time>2026-08-28T17:52:51Z</time>
  <course>109.76</course>
  <speed>5.01</speed>
  <fix>3d</fix>
</trkpt>
<trkpt lat="40.0718474" lon="-105.2278134">
  <ele>1583.04</ele>
  <time>2026-08-28T17:52:51Z</time>
  <course>114.84</course>
  <speed>4.985498972018749</speed>
  <fix>3d</fix>
</trkpt>
<trkpt lat="40.0718515" lon="-105.2278257">
  <ele>1583.0</ele>
  <time>2026-08-28T17:52:51Z</time>
  <course>111.75</course>
  <speed>5.01</speed>
  <fix>3d</fix>
</trkpt>
<trkpt lat="40.0718455" lon="-105.2278081">
  <ele>1583.04</ele>
  <time>2026-08-28T17:52:51Z</time>
  <course>115.94</course>
  <speed>4.987233702163956</speed>
  <fix>3d</fix>
</trkpt>
<trkpt lat="40.071848" lon="-105.2278149">
  <ele>1583.0</ele>
  <time>2026-08-28T17:52:51Z</time>
  <course>113.91</course>
  <speed>5.01</speed>
  <fix>3d</fix>
</trkpt>
<trkpt lat="40.0718436" lon="-105.2278028">
  <ele>1583.04</ele>
  <time>2026-08-28T17:52:51Z</time>
  <course>117.02</course>
  <speed>4.986431589824531</speed>
  <fix>3d</fix>
</trkpt>
<trkpt lat="40.071848" lon="-105.2278149">
  <ele>1583.0</ele>
  <time>2026-08-28T17:52:51Z</time>
  <course>113.91</course>
  <speed>5.01</speed>
  <fix>3d</fix>
</trkpt>
<trkpt lat="40.0718415" lon="-105.2277975">
  <ele>1583.04</ele>
  <time>2026-08-28T17:52:51Z</time>
  <course>118.07</course>
  <speed>4.991873395830467</speed>
  <fix>3d</fix>
</trkpt>
<trkpt lat="40.0718442" lon="-105.2278042">
  <ele>1583.0</ele>
  <time>2026-08-28T17:52:51Z</time>
  <course>116.07</course>
  <speed>5.01</speed>
  <fix>3d</fix>
</trkpt>
<trkpt lat="40.0718394" lon="-105.2277924">
  <ele>1583.04</ele>
  <time>2026-08-28T17:52:51Z</time>
  <course>119.02</course>
  <speed>4.989639265518099</speed>
  <fix>3d</fix>
</trkpt>
<trkpt lat="40.0718442" lon="-105.2278042">
  <ele>1583.0</ele>
  <time>2026-08-28T17:52:51Z</time>
  <course>116.07</course>
  <speed>5.01</speed>
  <fix>3d</fix>
</trkpt>
<trkpt lat="40.0718372" lon="-105.2277872">
  <ele>1583.04</ele>
  <time>2026-08-28T17:52:51Z</time>
  <course>119.85</course>
  <speed>4.997409328842296</speed>
  <fix>3d</fix>
</trkpt>
<trkpt lat="40.0718401" lon="-105.2277936">
  <ele>1583.0</ele>
  <time>2026-08-28T17:52:51Z</time>
  <course>118.04</course>
  <speed>5.02</speed>
  <fix>3d</fix>
</trkpt>
<trkpt lat="40.071835" lon="-105.227782">
  <ele>1583.04</ele>
  <time>2026-08-28T17:52:51Z</time>
  <course>119.95</course>
  <speed>4.988707247373813</speed>
  <fix>3d</fix>
</trkpt>
<trkpt lat="40.0718401" lon="-105.2277936">
  <ele>1583.0</ele>
  <time>2026-08-28T17:52:51Z</time>
  <course>118.04</course>
  <speed>5.02</speed>
  <fix>3d</fix>
</trkpt>
<trkpt lat="40.0718328" lon="-105.2277769">
  <ele>1583.04</ele>
  <time>2026-08-28T17:52:51Z</time>
  <course>120.02</course>
  <speed>4.957680909457566</speed>
  <fix>3d</fix>
</trkpt>
<trkpt lat="40.0718358" lon="-105.2277833">
  <ele>1583.0</ele>
  <time>2026-08-28T17:52:51Z</time>
  <course>119.02</course>
  <speed>5.0</speed>
  <fix>3d</fix>
</trkpt>
<trkpt lat="40.0718306" lon="-105.2277717">
  <ele>1583.04</ele>
  <time>2026-08-28T17:52:51Z</time>
  <course>120.15</course>
  <speed>4.917977226462115</speed>
  <fix>3d</fix>
</trkpt>
<trkpt lat="40.0718358" lon="-105.2277833">
  <ele>1583.0</ele>
  <time>2026-08-28T17:52:51Z</time>
  <course>119.02</course>
  <speed>5.0</speed>
  <fix>3d</fix>
</trkpt>
<trkpt lat="40.0718284" lon="-105.2277667">
  <ele>1583.04</ele>
  <time>2026-08-28T17:52:51Z</time>
  <course>120.3</course>
  <speed>4.86464798315356</speed>
  <fix>3d</fix>
</trkpt>
<trkpt lat="40.0718314" lon="-105.2277732">
  <ele>1583.0</ele>
  <time>2026-08-28T17:52:51Z</time>
  <course>119.25</course>
  <speed>4.93</speed>
  <fix>3d</fix>
</trkpt>
<trkpt lat="40.0718262" lon="-105.2277617">
  <ele>1583.04</ele>
  <time>2026-08-28T17:52:51Z</time>
  <course>120.5</course>
  <speed>4.794006675005782</speed>
  <fix>3d</fix>
</trkpt>
<trkpt lat="40.0718314" lon="-105.2277732">
  <ele>1583.0</ele>
  <time>2026-08-28T17:52:51Z</time>
  <course>119.25</course>
  <speed>4.93</speed>
  <fix>3d</fix>
</trkpt>
<trkpt lat="40.0718241" lon="-105.2277569">
  <ele>1583.04</ele>
  <time>2026-08-28T17:52:51Z</time>
  <course>120.74</course>
  <speed>4.7147958598437745</speed>
  <fix>3d</fix>
</trkpt>
<trkpt lat="40.0718271" lon="-105.2277632">
  <ele>1583.0</ele>
  <time>2026-08-28T17:52:51Z</time>
  <course>119.61</course>
  <speed>4.8</speed>
  <fix>3d</fix>
</trkpt>
<trkpt lat="40.071822" lon="-105.2277521">
  <ele>1583.04</ele>
  <time>2026-08-28T17:52:51Z</time>
  <course>121.02</course>
  <speed>4.622001730852121</speed>
  <fix>3d</fix>
</trkpt>
<trkpt lat="40.0718271" lon="-105.2277632">
  <ele>1583.0</ele>
  <time>2026-08-28T17:52:51Z</time>
  <course>119.61</course>
  <speed>4.8</speed>
  <fix>3d</fix>
</trkpt>
<trkpt lat="40.0718199" lon="-105.2277474">
  <ele>1583.04</ele>
  <time>2026-08-28T17:52:51Z</time>
  <course>121.36</course>
  <speed>4.52070790916644</speed>
  <fix>3d</fix>
</trkpt>
<trkpt lat="40.0718229" lon="-105.2277536">
  <ele>1583.0</ele>
  <time>2026-08-28T17:52:51Z</time>
  <course>120.14</course>
  <speed>4.63</speed>
  <fix>3d</fix>
</trkpt>
<trkpt lat="40.0718178" lon="-105.2277429">
  <ele>1583.04</ele>
  <time>2026-08-28T17:52:51Z</time>
  <course>121.74</course>
  <speed>4.411008954876424</speed>
  <fix>3d</fix>
</trkpt>
<trkpt lat="40.0718229" lon="-105.2277536">
  <ele>1583.0</ele>
  <time>2026-08-28T17:52:51Z</time>
  <course>120.14</course>
  <speed>4.63</speed>
  <fix>3d</fix>
</trkpt>
<trkpt lat="40.0718158" lon="-105.2277385">
  <ele>1583.04</ele>
  <time>2026-08-28T17:52:51Z</time>
  <course>122.17</course>
  <speed>4.301534609880525</speed>
  <fix>3d</fix>
</trkpt>
<trkpt lat="40.0718229" lon="-105.2277536">
  <ele>1583.0</ele>
  <time>2026-08-28T17:52:51Z</time>
  <course>120.14</course>
  <speed>4.63</speed>
  <fix>3d</fix>
</trkpt>
<trkpt lat="40.0718138" lon="-105.2277343">
  <ele>1583.04</ele>
  <time>2026-08-28T17:52:51Z</time>
  <course>122.64</course>
  <speed>4.170047961354881</speed>
  <fix>3d</fix>
</trkpt>
<trkpt lat="40.0718187" lon="-105.2277444">
  <ele>1583.0</ele>
  <time>2026-08-28T17:52:51Z</time>
  <course>120.84</course>
  <speed>4.42</speed>
  <fix>3d</fix>
</trkpt>
<trkpt lat="40.0718119" lon="-105.2277302">
  <ele>1583.03</ele>
  <time>2026-08-28T17:52:51Z</time>
  <course>123.12</course>
  <speed>4.047283039274619</speed>
  <fix>3d</fix>
</trkpt>
<trkpt lat="40.0718187" lon="-105.2277444">
  <ele>1583.0</ele>
  <time>2026-08-28T17:52:51Z</time>
  <course>120.84</course>
  <speed>4.42</speed>
  <fix>3d</fix>
</trkpt>
<trkpt lat="40.07181" lon="-105.2277264">
  <ele>1583.03</ele>
  <time>2026-08-28T17:52:51Z</time>
  <course>123.62</course>
  <speed>3.9109206077341945</speed>
  <fix>3d</fix>
</trkpt>
<trkpt lat="40.0718147" lon="-105.2277358">
  <ele>1583.0</ele>
  <time>2026-08-28T17:52:51Z</time>
  <course>121.72</course>
  <speed>4.19</speed>
  <fix>3d</fix>
</trkpt>
<trkpt lat="40.0718081" lon="-105.2277226">
  <ele>1583.02</ele>
  <time>2026-08-28T17:52:51Z</time>
  <course>124.13</course>
  <speed>3.7802909940902696</speed>
  <fix>3d</fix>
</trkpt>
<trkpt lat="40.0718147" lon="-105.2277358">
  <ele>1583.0</ele>
  <time>2026-08-28T17:52:51Z</time>
  <course>121.72</course>
  <speed>4.19</speed>
  <fix>3d</fix>
</trkpt>
<trkpt lat="40.0718063" lon="-105.227719">
  <ele>1583.02</ele>
  <time>2026-08-28T17:52:51Z</time>
  <course>124.64</course>
  <speed>3.6444478319767457</speed>
  <fix>3d</fix>
</trkpt>
<trkpt lat="40.0718108" lon="-105.2277277">
  <ele>1583.0</ele>
  <time>2026-08-28T17:52:51Z</time>
  <course>122.68</course>
  <speed>3.93</speed>
  <fix>3d</fix>
</trkpt>
<trkpt lat="40.0718045" lon="-105.2277156">
  <ele>1583.02</ele>
  <time>2026-08-28T17:52:51Z</time>
  <course>125.18</course>
  <speed>3.5171152952384146</speed>
  <fix>3d</fix>
</trkpt>
<trkpt lat="40.0718108" lon="-105.2277277">
  <ele>1583.0</ele>
  <time>2026-08-28T17:52:51Z</time>
  <course>122.68</course>
  <speed>3.93</speed>
  <fix>3d</fix>
</trkpt>
<trkpt lat="40.0718028" lon="-105.2277123">
  <ele>1583.02</ele>
  <time>2026-08-28T17:52:51Z</time>
  <course>125.71</course>
  <speed>3.38178946713127</speed>
  <fix>3d</fix>
</trkpt>
<trkpt lat="40.0718071" lon="-105.2277201">
  <ele>1583.0</ele>
  <time>2026-08-28T17:52:51Z</time>
  <course>123.69</course>
  <speed>3.68</speed>
  <fix>3d</fix>
</trkpt>
<trkpt lat="40.0718011" lon="-105.2277091">
  <ele>1583.01</ele>
  <time>2026-08-28T17:52:51Z</time>
  <course>126.26</course>
  <speed>3.246798423062325</speed>
  <fix>3d</fix>
</trkpt>
<trkpt lat="40.0718035" lon="-105.2277133">
  <ele>1583.0</ele>
  <time>2026-08-28T17:52:51Z</time>
  <course>124.74</course>
  <speed>3.42</speed>
  <fix>3d</fix>
</trkpt>
<trkpt lat="40.0717995" lon="-105.2277061">
  <ele>1583.01</ele>
  <time>2026-08-28T17:52:51Z</time>
  <course>126.79</course>
  <speed>3.120256399721023</speed>
  <fix>3d</fix>
</trkpt>
<trkpt lat="40.0718035" lon="-105.2277133">
  <ele>1583.0</ele>
  <time>2026-08-28T17:52:51Z</time>
  <course>124.74</course>
  <speed>3.42</speed>
  <fix>3d</fix>
</trkpt>
<trkpt lat="40.0717979" lon="-105.2277032">
  <ele>1583.01</ele>
  <time>2026-08-28T17:52:51Z</time>
  <course>127.33</course>
  <speed>2.9880428377116686</speed>
  <fix>3d</fix>
</trkpt>
<trkpt lat="40.0718001" lon="-105.227707">
  <ele>1583.0</ele>
  <time>2026-08-28T17:52:51Z</time>
  <course>125.81</course>
  <speed>3.16</speed>
  <fix>3d</fix>
</trkpt>
<trkpt lat="40.0717963" lon="-105.2277004">
  <ele>1583.01</ele>
  <time>2026-08-28T17:52:51Z</time>
  <course>127.86</course>
  <speed>2.8700174215499112</speed>
  <fix>3d</fix>
</trkpt>
<trkpt lat="40.0718001" lon="-105.227707">
  <ele>1583.0</ele>
  <time>2026-08-28T17:52:51Z</time>
  <course>125.81</course>
  <speed>3.16</speed>
  <fix>3d</fix>
</trkpt>
<trkpt lat="40.0717948" lon="-105.2276978">
  <ele>1583.01</ele>
  <time>2026-08-28T17:52:51Z</time>
  <course>128.38</course>
  <speed>2.752235455043772</speed>
  <fix>3d</fix>
</trkpt>
<trkpt lat="40.0717968" lon="-105.2277012">
  <ele>1583.0</ele>
  <time>2026-08-28T17:52:51Z</time>
  <course>126.87</course>
  <speed>2.91</speed>
  <fix>3d</fix>
</trkpt>
<trkpt lat="40.0717933" lon="-105.2276953">
  <ele>1583.01</ele>
  <time>2026-08-28T17:52:51Z</time>
  <course>128.9</course>
  <speed>2.628554735971842</speed>
  <fix>3d</fix>
</trkpt>
<trkpt lat="40.0717968" lon="-105.2277012">
  <ele>1583.0</ele>
  <time>2026-08-28T17:52:51Z</time>
  <course>126.87</course>
  <speed>2.91</speed>
  <fix>3d</fix>
</trkpt>
<trkpt lat="40.0717918" lon="-105.2276929">
  <ele>1583.01</ele>
  <time>2026-08-28T17:52:51Z</time>
  <course>129.37</course>
  <speed>2.5190871362459855</speed>
  <fix>3d</fix>
</trkpt>
<trkpt lat="40.0717938" lon="-105.227696">
  <ele>1583.0</ele>
  <time>2026-08-28T17:52:51Z</time>
  <course>127.88</course>
  <speed>2.68</speed>
  <fix>3d</fix>
</trkpt>
<trkpt lat="40.0717904" lon="-105.2276906">
  <ele>1583.01</ele>
  <time>2026-08-28T17:52:51Z</time>
  <course>129.79</course>
  <speed>2.4597967395701623</speed>
  <fix>3d</fix>
</trkpt>
<trkpt lat="40.0717938" lon="-105.227696">
  <ele>1583.0</ele>
  <time>2026-08-28T17:52:51Z</time>
  <course>127.88</course>
  <speed>2.68</speed>
  <fix>3d</fix>
</trkpt>
<trkpt lat="40.071789" lon="-105.2276884">
  <ele>1583.01</ele>
  <time>2026-08-28T17:52:51Z</time>
  <course>130.19</course>
  <speed>2.416153968603822</speed>
  <fix>3d</fix>
</trkpt>
<trkpt lat="40.0717909" lon="-105.2276913">
  <ele>1583.0</ele>
  <time>2026-08-28T17:52:51Z</time>
  <course>128.8</course>
  <speed>2.52</speed>
  <fix>3d</fix>
</trkpt>
<trkpt lat="40.0717877" lon="-105.2276862">
  <ele>1583.0</ele>
  <time>2026-08-28T17:52:51Z</time>
  <course>130.55</course>
  <speed>2.407093683262037</speed>
  <fix>3d</fix>
</trkpt>
<trkpt lat="40.0717909" lon="-105.2276913">
  <ele>1583.0</ele>
  <time>2026-08-28T17:52:51Z</time>
  <course>128.8</course>
  <speed>2.52</speed>
  <fix>3d</fix>
</trkpt>
<trkpt lat="40.0717863" lon="-105.227684">
  <ele>1583.0</ele>
  <time>2026-08-28T17:52:51Z</time>
  <course>130.88</course>
  <speed>2.43402958075698</speed>
  <fix>3d</fix>
</trkpt>
<trkpt lat="40.0717881" lon="-105.2276867">
  <ele>1583.0</ele>
  <time>2026-08-28T17:52:51Z</time>
  <course>129.56</course>
  <speed>2.47</speed>
  <fix>3d</fix>
</trkpt>
<trkpt lat="40.0717848" lon="-105.2276817">
  <ele>1583.0</ele>
  <time>2026-08-28T17:52:51Z</time>
  <course>131.19</course>
  <speed>2.4686838598735155</speed>
  <fix>3d</fix>
</trkpt>
<trkpt lat="40.0717881" lon="-105.2276867">
  <ele>1583.0</ele>
  <time>2026-08-28T17:52:51Z</time>
  <course>129.56</course>
  <speed>2.47</speed>
  <fix>3d</fix>
</trkpt>
<trkpt lat="40.0717833" lon="-105.2276795">
  <ele>1582.99</ele>
  <time>2026-08-28T17:52:51Z</time>
  <course>131.47</course>
  <speed>2.5381095327034253</speed>
  <fix>3d</fix>
</trkpt>
<trkpt lat="40.0717852" lon="-105.2276822">
  <ele>1583.0</ele>
  <time>2026-08-28T17:52:51Z</time>
  <course>130.2</course>
  <speed>2.53</speed>
  <fix>3d</fix>
</trkpt>
<trkpt lat="40.0717818" lon="-105.2276771">
  <ele>1582.99</ele>
  <time>2026-08-28T17:52:51Z</time>
  <course>131.72</course>
  <speed>2.615205536855564</speed>
  <fix>3d</fix>
</trkpt>
<trkpt lat="40.0717852" lon="-105.2276822">
  <ele>1583.0</ele>
  <time>2026-08-28T17:52:51Z</time>
  <course>130.2</course>
  <speed>2.53</speed>
  <fix>3d</fix>
</trkpt>
<trkpt lat="40.0717802" lon="-105.2276747">
  <ele>1582.99</ele>
  <time>2026-08-28T17:52:51Z</time>
  <course>131.95</course>
  <speed>2.713982313870155</speed>
  <fix>3d</fix>
</trkpt>
<trkpt lat="40.0717852" lon="-105.2276822">
  <ele>1583.0</ele>
  <time>2026-08-28T17:52:51Z</time>
  <course>130.2</course>
  <speed>2.53</speed>
  <fix>3d</fix>
</trkpt>
<trkpt lat="40.0717785" lon="-105.2276723">
  <ele>1582.98</ele>
  <time>2026-08-28T17:52:51Z</time>
  <course>132.17</course>
  <speed>2.8260396317107794</speed>
  <fix>3d</fix>
</trkpt>
<trkpt lat="40.0717822" lon="-105.2276775">
  <ele>1583.0</ele>
  <time>2026-08-28T17:52:51Z</time>
  <course>130.73</course>
  <speed>2.67</speed>
  <fix>3d</fix>
</trkpt>
<trkpt lat="40.0717768" lon="-105.2276697">
  <ele>1582.98</ele>
  <time>2026-08-28T17:52:51Z</time>
  <course>132.38</course>
  <speed>2.938996427354072</speed>
  <fix>3d</fix>
</trkpt>
<trkpt lat="40.0717822" lon="-105.2276775">
  <ele>1583.0</ele>
  <time>2026-08-28T17:52:51Z</time>
  <course>130.73</course>
  <speed>2.67</speed>
  <fix>3d</fix>
</trkpt>
<trkpt lat="40.071775" lon="-105.227667">
  <ele>1582.98</ele>
  <time>2026-08-28T17:52:51Z</time>
  <course>132.56</course>
  <speed>3.072783754187723</speed>
  <fix>3d</fix>
</trkpt>
<trkpt lat="40.0717789" lon="-105.2276727">
  <ele>1583.0</ele>
  <time>2026-08-28T17:52:51Z</time>
  <course>131.18</course>
  <speed>2.87</speed>
  <fix>3d</fix>
</trkpt>
<trkpt lat="40.0717731" lon="-105.2276643">
  <ele>1582.98</ele>
  <time>2026-08-28T17:52:51Z</time>
  <course>132.74</course>
  <speed>3.199906248626669</speed>
  <fix>3d</fix>
</trkpt>
<trkpt lat="40.0717789" lon="-105.2276727">
  <ele>1583.0</ele>
  <time>2026-08-28T17:52:51Z</time>
  <course>131.18</course>
  <speed>2.87</speed>
  <fix>3d</fix>
</trkpt>
<trkpt lat="40.0717711" lon="-105.2276614">
  <ele>1582.98</ele>
  <time>2026-08-28T17:52:51Z</time>
  <course>132.9</course>
  <speed>3.333781636520305</speed>
  <fix>3d</fix>
</trkpt>
<trkpt lat="40.0717754" lon="-105.2276674">
  <ele>1583.0</ele>
  <time>2026-08-28T17:52:51Z</time>
  <course>131.56</course>
  <speed>3.11</speed>
  <fix>3d</fix>
</trkpt>
<trkpt lat="40.071769" lon="-105.2276584">
  <ele>1582.98</ele>
  <time>2026-08-28T17:52:51Z</time>
  <course>133.05</course>
  <speed>3.4677081768799405</speed>
  <fix>3d</fix>
</trkpt>
<trkpt lat="40.0717714" lon="-105.2276617">
  <ele>1583.0</ele>
  <time>2026-08-28T17:52:51Z</time>
  <course>131.88</course>
  <speed>3.37</speed>
  <fix>3d</fix>
</trkpt>
<trkpt lat="40.0717668" lon="-105.2276553">
  <ele>1582.98</ele>
  <time>2026-08-28T17:52:51Z</time>
  <course>133.2</course>
  <speed>3.6090164865237178</speed>
  <fix>3d</fix>
</trkpt>
<trkpt lat="40.0717714" lon="-105.2276617">
  <ele>1583.0</ele>
  <time>2026-08-28T17:52:51Z</time>
  <course>131.88</course>
  <speed>3.37</speed>
  <fix>3d</fix>
</trkpt>
<trkpt lat="40.0717646" lon="-105.227652">
  <ele>1582.98</ele>
  <time>2026-08-28T17:52:51Z</time>
  <course>133.32</course>
  <speed>3.7430068127108718</speed>
  <fix>3d</fix>
</trkpt>
<trkpt lat="40.0717673" lon="-105.2276556">
  <ele>1583.0</ele>
  <time>2026-08-28T17:52:51Z</time>
  <course>132.16</course>
  <speed>3.64</speed>
  <fix>3d</fix>
</trkpt>
<trkpt lat="40.0717622" lon="-105.2276487">
  <ele>1582.98</ele>
  <time>2026-08-28T17:52:51Z</time>
  <course>133.43</course>
  <speed>3.877034949545851</speed>
  <fix>3d</fix>
</trkpt>
<trkpt lat="40.0717673" lon="-105.2276556">
  <ele>1583.0</ele>
  <time>2026-08-28T17:52:51Z</time>
  <course>132.16</course>
  <speed>3.64</speed>
  <fix>3d</fix>
</trkpt>
<trkpt lat="40.0717597" lon="-105.2276452">
  <ele>1582.98</ele>
  <time>2026-08-28T17:52:51Z</time>
  <course>133.54</course>
  <speed>4.004247744583244</speed>
  <fix>3d</fix>
</trkpt>
<trkpt lat="40.0717627" lon="-105.227649">
  <ele>1583.0</ele>
  <time>2026-08-28T17:52:51Z</time>
  <course>132.39</course>
  <speed>3.9</speed>
  <fix>3d</fix>
</trkpt>
<trkpt lat="40.0717572" lon="-105.2276416">
  <ele>1582.98</ele>
  <time>2026-08-28T17:52:51Z</time>
  <course>133.66</course>
  <speed>4.131464631338383</speed>
  <fix>3d</fix>
</trkpt>
<trkpt lat="40.0717627" lon="-105.227649">
  <ele>1583.0</ele>
  <time>2026-08-28T17:52:51Z</time>
  <course>132.39</course>
  <speed>3.9</speed>
  <fix>3d</fix>
</trkpt>
<trkpt lat="40.0717546" lon="-105.227638">
  <ele>1582.97</ele>
  <time>2026-08-28T17:52:51Z</time>
  <course>133.78</course>
  <speed>4.2514115303037885</speed>
  <fix>3d</fix>
</trkpt>
<trkpt lat="40.0717578" lon="-105.2276421">
  <ele>1583.0</ele>
  <time>2026-08-28T17:52:51Z</time>
  <course>132.61</course>
  <speed>4.14</speed>
  <fix>3d</fix>
</trkpt>
<trkpt lat="40.0717519" lon="-105.2276341">
  <ele>1582.98</ele>
  <time>2026-08-28T17:52:51Z</time>
  <course>133.9</course>
  <speed>4.371384220129821</speed>
  <fix>3d</fix>
</trkpt>
<trkpt lat="40.0717578" lon="-105.2276421">
  <ele>1583.0</ele>
  <time>2026-08-28T17:52:51Z</time>
  <course>132.61</course>
  <speed>4.14</speed>
  <fix>3d</fix>
</trkpt>
<trkpt lat="40.0717491" lon="-105.2276303">
  <ele>1582.98</ele>
  <time>2026-08-28T17:52:51Z</time>
  <course>133.98</course>
  <speed>4.491380634058975</speed>
  <fix>3d</fix>
</trkpt>
<trkpt lat="40.0717526" lon="-105.2276347">
  <ele>1583.0</ele>
  <time>2026-08-28T17:52:52Z</time>
  <course>132.82</course>
  <speed>4.37</speed>
  <fix>3d</fix>
</trkpt>
<trkpt lat="40.0717462" lon="-105.2276263">
  <ele>1582.97</ele>
  <time>2026-08-28T17:52:52Z</time>
  <course>134.04</course>
  <speed>4.590348570642539</speed>
  <fix>3d</fix>
</trkpt>
<trkpt lat="40.0717526" lon="-105.2276347">
  <ele>1583.0</ele>
  <time>2026-08-28T17:52:52Z</time>
  <course>132.82</course>
  <speed>4.37</speed>
  <fix>3d</fix>
</trkpt>
<trkpt lat="40.0717433" lon="-105.2276223">
  <ele>1582.98</ele>
  <time>2026-08-28T17:52:52Z</time>
  <course>134.12</course>
  <speed>4.696232532573318</speed>
  <fix>3d</fix>
</trkpt>
<trkpt lat="40.0717472" lon="-105.227627">
  <ele>1583.0</ele>
  <time>2026-08-28T17:52:52Z</time>
  <course>132.99</course>
  <speed>4.58</speed>
  <fix>3d</fix>
</trkpt>
<trkpt lat="40.0717404" lon="-105.2276182">
  <ele>1582.98</ele>
  <time>2026-08-28T17:52:52Z</time>
  <course>134.18</course>
  <speed>4.795205939268928</speed>
  <fix>3d</fix>
</trkpt>
<trkpt lat="40.0717472" lon="-105.227627">
  <ele>1583.0</ele>
  <time>2026-08-28T17:52:52Z</time>
  <course>132.99</course>
  <speed>4.58</speed>
  <fix>3d</fix>
</trkpt>
<trkpt lat="40.0717373" lon="-105.227614">
  <ele>1582.98</ele>
  <time>2026-08-28T17:52:52Z</time>
  <course>134.24</course>
  <speed>4.886972477925367</speed>
  <fix>3d</fix>
</trkpt>
<trkpt lat="40.0717414" lon="-105.2276189">
  <ele>1583.0</ele>
  <time>2026-08-28T17:52:52Z</time>
  <course>133.13</course>
  <speed>4.78</speed>
  <fix>3d</fix>
</trkpt>
<trkpt lat="40.0717343" lon="-105.2276097">
  <ele>1582.98</ele>
  <time>2026-08-28T17:52:52Z</time>
  <course>134.3</course>
  <speed>4.979015967036057</speed>
  <fix>3d</fix>
</trkpt>
<trkpt lat="40.0717414" lon="-105.2276189">
  <ele>1583.0</ele>
  <time>2026-08-28T17:52:52Z</time>
  <course>133.13</course>
  <speed>4.78</speed>
  <fix>3d</fix>
</trkpt>
<trkpt lat="40.0717311" lon="-105.2276054">
  <ele>1582.98</ele>
  <time>2026-08-28T17:52:52Z</time>
  <course>134.36</course>
  <speed>5.063595560468865</speed>
  <fix>3d</fix>
</trkpt>
<trkpt lat="40.0717414" lon="-105.2276189">
  <ele>1583.0</ele>
  <time>2026-08-28T17:52:52Z</time>
  <course>133.13</course>
  <speed>4.78</speed>
  <fix>3d</fix>
</trkpt>
<trkpt lat="40.071728" lon="-105.227601">
  <ele>1582.98</ele>
  <time>2026-08-28T17:52:52Z</time>
  <course>134.42</course>
  <speed>5.148436655917989</speed>
  <fix>3d</fix>
</trkpt>
<trkpt lat="40.0717354" lon="-105.2276106">
  <ele>1583.0</ele>
  <time>2026-08-28T17:52:52Z</time>
  <course>133.26</course>
  <speed>4.95</speed>
  <fix>3d</fix>
</trkpt>
<trkpt lat="40.0717248" lon="-105.2275966">
  <ele>1582.98</ele>
  <time>2026-08-28T17:52:52Z</time>
  <course>134.48</course>
  <speed>5.219137859838538</speed>
  <fix>3d</fix>
</trkpt>
<trkpt lat="40.0717354" lon="-105.2276106">
  <ele>1583.0</ele>
  <time>2026-08-28T17:52:52Z</time>
  <course>133.26</course>
  <speed>4.95</speed>
  <fix>3d</fix>
</trkpt>
<trkpt lat="40.0717215" lon="-105.2275922">
  <ele>1582.98</ele>
  <time>2026-08-28T17:52:52Z</time>
  <course>134.54</course>
  <speed>5.275699005819039</speed>
  <fix>3d</fix>
</trkpt>
<trkpt lat="40.0717291" lon="-105.227602">
  <ele>1583.0</ele>
  <time>2026-08-28T17:52:52Z</time>
  <course>133.39</course>
  <speed>5.12</speed>
  <fix>3d</fix>
</trkpt>
<trkpt lat="40.0717183" lon="-105.2275877">
  <ele>1582.98</ele>
  <time>2026-08-28T17:52:52Z</time>
  <course>134.6</course>
  <speed>5.317913124525448</speed>
  <fix>3d</fix>
</trkpt>
<trkpt lat="40.0717291" lon="-105.227602">
  <ele>1583.0</ele>
  <time>2026-08-28T17:52:52Z</time>
  <course>133.39</course>
  <speed>5.12</speed>
  <fix>3d</fix>
</trkpt>
<trkpt lat="40.071715" lon="-105.2275832">
  <ele>1582.98</ele>
  <time>2026-08-28T17:52:52Z</time>
  <course>134.66</course>
  <speed>5.346194908530739</speed>
  <fix>3d</fix>
</trkpt>
<trkpt lat="40.0717227" lon="-105.2275932">
  <ele>1583.0</ele>
  <time>2026-08-28T17:52:52Z</time>
  <course>133.53</course>
  <speed>5.24</speed>
  <fix>3d</fix>
</trkpt>
<trkpt lat="40.0717116" lon="-105.2275786">
  <ele>1582.97</ele>
  <time>2026-08-28T17:52:52Z</time>
  <course>134.72</course>
  <speed>5.367317765886421</speed>
  <fix>3d</fix>
</trkpt>
<trkpt lat="40.0717162" lon="-105.2275842">
  <ele>1583.0</ele>
  <time>2026-08-28T17:52:52Z</time>
  <course>133.68</course>
  <speed>5.32</speed>
  <fix>3d</fix>
</trkpt>
<trkpt lat="40.0717083" lon="-105.2275741">
  <ele>1582.97</ele>
  <time>2026-08-28T17:52:52Z</time>
  <course>134.78</course>
  <speed>5.381458909998291</speed>
  <fix>3d</fix>
</trkpt>
<trkpt lat="40.0717162" lon="-105.2275842">
  <ele>1583.0</ele>
  <time>2026-08-28T17:52:52Z</time>
  <course>133.68</course>
  <speed>5.32</speed>
  <fix>3d</fix>
</trkpt>
<trkpt lat="40.0717049" lon="-105.2275695">
  <ele>1582.97</ele>
  <time>2026-08-28T17:52:52Z</time>
  <course>134.84</course>
  <speed>5.381458909998291</speed>
  <fix>3d</fix>
</trkpt>
<trkpt lat="40.0717096" lon="-105.2275751">
  <ele>1583.0</ele>
  <time>2026-08-28T17:52:52Z</time>
  <course>133.82</course>
  <speed>5.35</speed>
  <fix>3d</fix>
</trkpt>
<trkpt lat="40.0717016" lon="-105.227565">
  <ele>1582.97</ele>
  <time>2026-08-28T17:52:52Z</time>
  <course>134.91</course>
  <speed>5.374309257941899</speed>
  <fix>3d</fix>
</trkpt>
<trkpt lat="40.0717096" lon="-105.2275751">
  <ele>1583.0</ele>
  <time>2026-08-28T17:52:52Z</time>
  <course>133.82</course>
  <speed>5.35</speed>
  <fix>3d</fix>
</trkpt>
<trkpt lat="40.0716982" lon="-105.2275604">
  <ele>1582.97</ele>
  <time>2026-08-28T17:52:52Z</time>
  <course>134.97</course>
  <speed>5.367168713577019</speed>
  <fix>3d</fix>
</trkpt>
<trkpt lat="40.0717029" lon="-105.227566">
  <ele>1583.0</ele>
  <time>2026-08-28T17:52:52Z</time>
  <course>133.97</course>
  <speed>5.35</speed>
  <fix>3d</fix>
</trkpt>
<trkpt lat="40.0716949" lon="-105.2275559">
  <ele>1582.97</ele>
  <time>2026-08-28T17:52:52Z</time>
  <course>135.04</course>
  <speed>5.345895621876656</speed>
  <fix>3d</fix>
</trkpt>
<trkpt lat="40.0717029" lon="-105.227566">
  <ele>1583.0</ele>
  <time>2026-08-28T17:52:52Z</time>
  <course>133.97</course>
  <speed>5.35</speed>
  <fix>3d</fix>
</trkpt>
<trkpt lat="40.0716915" lon="-105.2275514">
  <ele>1582.97</ele>
  <time>2026-08-28T17:52:52Z</time>
  <course>135.1</course>
  <speed>5.3246314426446455</speed>
  <fix>3d</fix>
</trkpt>
<trkpt lat="40.0716962" lon="-105.2275571">
  <ele>1583.0</ele>
  <time>2026-08-28T17:52:52Z</time>
  <course>134.11</course>
  <speed>5.32</speed>
  <fix>3d</fix>
</trkpt>
<trkpt lat="40.0716882" lon="-105.2275469">
  <ele>1582.97</ele>
  <time>2026-08-28T17:52:52Z</time>
  <course>135.17</course>
  <speed>5.2963477982473925</speed>
  <fix>3d</fix>
</trkpt>
<trkpt lat="40.0716962" lon="-105.2275571">
  <ele>1583.0</ele>
  <time>2026-08-28T17:52:52Z</time>
  <course>134.11</course>
  <speed>5.32</speed>
  <fix>3d</fix>
</trkpt>
<trkpt lat="40.0716849" lon="-105.2275424">
  <ele>1582.97</ele>
  <time>2026-08-28T17:52:52Z</time>
  <course>135.23</course>
  <speed>5.275092416252061</speed>
  <fix>3d</fix>
</trkpt>
<trkpt lat="40.0716896" lon="-105.2275481">
  <ele>1583.0</ele>
  <time>2026-08-28T17:52:52Z</time>
  <course>134.26</course>
  <speed>5.28</speed>
  <fix>3d</fix>
</trkpt>
<trkpt lat="40.0716816" lon="-105.2275379">
  <ele>1582.98</ele>
  <time>2026-08-28T17:52:52Z</time>
  <course>135.3</course>
  <speed>5.246808553778192</speed>
  <fix>3d</fix>
</trkpt>
<trkpt lat="40.0716896" lon="-105.2275481">
  <ele>1583.0</ele>
  <time>2026-08-28T17:52:52Z</time>
  <course>134.26</course>
  <speed>5.28</speed>
  <fix>3d</fix>
</trkpt>
<trkpt lat="40.0716783" lon="-105.2275335">
  <ele>1582.98</ele>
  <time>2026-08-28T17:52:52Z</time>
  <course>135.36</course>
  <speed>5.211420151935555</speed>
  <fix>3d</fix>
</trkpt>
<trkpt lat="40.0716829" lon="-105.2275392">
  <ele>1583.0</ele>
  <time>2026-08-28T17:52:52Z</time>
  <course>134.4</course>
  <speed>5.22</speed>
  <fix>3d</fix>
</trkpt>
<trkpt lat="40.071675" lon="-105.2275292">
  <ele>1582.98</ele>
  <time>2026-08-28T17:52:52Z</time>
  <course>135.43</course>
  <speed>5.183136116290985</speed>
  <fix>3d</fix>
</trkpt>
<trkpt lat="40.0716829" lon="-105.2275392">
  <ele>1583.0</ele>
  <time>2026-08-28T17:52:52Z</time>
  <course>134.4</course>
  <speed>5.22</speed>
  <fix>3d</fix>
</trkpt>
<trkpt lat="40.0716717" lon="-105.2275248">
  <ele>1582.98</ele>
  <time>2026-08-28T17:52:52Z</time>
  <course>135.49</course>
  <speed>5.154813284688399</speed>
  <fix>3d</fix>
</trkpt>
<trkpt lat="40.0716764" lon="-105.2275306">
  <ele>1583.0</ele>
  <time>2026-08-28T17:52:52Z</time>
  <course>134.54</course>
  <speed>5.16</speed>
  <fix>3d</fix>
</trkpt>
<trkpt lat="40.0716685" lon="-105.2275205">
  <ele>1582.99</ele>
  <time>2026-08-28T17:52:52Z</time>
  <course>135.56</course>
  <speed>5.1265290401986405</speed>
  <fix>3d</fix>
</trkpt>
<trkpt lat="40.0716764" lon="-105.2275306">
  <ele>1583.0</ele>
  <time>2026-08-28T17:52:52Z</time>
  <course>134.54</course>
  <speed>5.16</speed>
  <fix>3d</fix>
</trkpt>
<trkpt lat="40.0716653" lon="-105.2275163">
  <ele>1582.99</ele>
  <time>2026-08-28T17:52:52Z</time>
  <course>135.62</course>
  <speed>5.098244796005778</speed>
  <fix>3d</fix>
</trkpt>
<trkpt lat="40.0716764" lon="-105.2275306">
  <ele>1583.0</ele>
  <time>2026-08-28T17:52:52Z</time>
  <course>134.54</course>
  <speed>5.16</speed>
  <fix>3d</fix>
</trkpt>
<trkpt lat="40.0716621" lon="-105.227512">
  <ele>1583.0</ele>
  <time>2026-08-28T17:52:52Z</time>
  <course>135.67</course>
  <speed>5.06996055211478</speed>
  <fix>3d</fix>
</trkpt>
<trkpt lat="40.0716699" lon="-105.2275219">
  <ele>1583.0</ele>
  <time>2026-08-28T17:52:52Z</time>
  <course>134.68</course>
  <speed>5.11</speed>
  <fix>3d</fix>
</trkpt>
<trkpt lat="40.0716589" lon="-105.2275079">
  <ele>1583.0</ele>
  <time>2026-08-28T17:52:52Z</time>
  <course>135.71</course>
  <speed>5.041676308530725</speed>
  <fix>3d</fix>
</trkpt>
<trkpt lat="40.0716699" lon="-105.2275219">
  <ele>1583.0</ele>
  <time>2026-08-28T17:52:52Z</time>
  <course>134.68</course>
  <speed>5.11</speed>
  <fix>3d</fix>
</trkpt>
<trkpt lat="40.0716558" lon="-105.2275037">
  <ele>1583.0</ele>
  <time>2026-08-28T17:52:52Z</time>
  <course>135.73</course>
  <speed>5.020458146424487</speed>
  <fix>3d</fix>
</trkpt>
<trkpt lat="40.0716635" lon="-105.2275134">
  <ele>1583.0</ele>
  <time>2026-08-28T17:52:52Z</time>
  <course>134.8</course>
  <speed>5.06</speed>
  <fix>3d</fix>
</trkpt>
<trkpt lat="40.0716527" lon="-105.2274996">
  <ele>1583.0</ele>
  <time>2026-08-28T17:52:52Z</time>
  <course>135.78</course>
  <speed>4.999249943741561</speed>
  <fix>3d</fix>
</trkpt>
<trkpt lat="40.0716635" lon="-105.2275134">
  <ele>1583.0</ele>
  <time>2026-08-28T17:52:52Z</time>
  <course>134.8</course>
  <speed>5.06</speed>
  <fix>3d</fix>
</trkpt>
<trkpt lat="40.0716495" lon="-105.2274955">
  <ele>1583.0</ele>
  <time>2026-08-28T17:52:52Z</time>
  <course>135.82</course>
  <speed>4.978051827773593</speed>
  <fix>3d</fix>
</trkpt>
<trkpt lat="40.0716571" lon="-105.2275051">
  <ele>1583.0</ele>
  <time>2026-08-28T17:52:52Z</time>
  <course>134.89</course>
  <speed>5.01</speed>
  <fix>3d</fix>
</trkpt>
<trkpt lat="40.0716464" lon="-105.2274914">
  <ele>1583.0</ele>
  <time>2026-08-28T17:52:52Z</time>
  <course>135.83</course>
  <speed>4.963909749381026</speed>
  <fix>3d</fix>
</trkpt>
<trkpt lat="40.0716571" lon="-105.2275051">
  <ele>1583.0</ele>
  <time>2026-08-28T17:52:52Z</time>
  <course>134.89</course>
  <speed>5.01</speed>
  <fix>3d</fix>
</trkpt>
<trkpt lat="40.0716433" lon="-105.2274873">
  <ele>1583.0</ele>
  <time>2026-08-28T17:52:52Z</time>
  <course>135.86</course>
  <speed>4.9497676713154934</speed>
  <fix>3d</fix>
</trkpt>
<trkpt lat="40.0716508" lon="-105.2274968">
  <ele>1583.0</ele>
  <time>2026-08-28T17:52:52Z</time>
  <course>134.95</course>
  <speed>4.98</speed>
  <fix>3d</fix>
</trkpt>
<trkpt lat="40.0716402" lon="-105.2274832">
  <ele>1582.99</ele>
  <time>2026-08-28T17:52:52Z</time>
  <course>135.9</course>
  <speed>4.942721922180126</speed>
  <fix>3d</fix>
</trkpt>
<trkpt lat="40.0716444" lon="-105.2274885">
  <ele>1583.0</ele>
  <time>2026-08-28T17:52:52Z</time>
  <course>135.02</course>
  <speed>4.96</speed>
  <fix>3d</fix>
</trkpt>
<trkpt lat="40.0716371" lon="-105.2274791">
  <ele>1582.99</ele>
  <time>2026-08-28T17:52:52Z</time>
  <course>135.91</course>
  <speed>4.935625593579805</speed>
  <fix>3d</fix>
</trkpt>
<trkpt lat="40.0716444" lon="-105.2274885">
  <ele>1583.0</ele>
  <time>2026-08-28T17:52:52Z</time>
  <course>135.02</course>
  <speed>4.96</speed>
  <fix>3d</fix>
</trkpt>
<trkpt lat="40.071634" lon="-105.2274751">
  <ele>1582.99</ele>
  <time>2026-08-28T17:52:52Z</time>
  <course>135.94</course>
  <speed>4.928579917176955</speed>
  <fix>3d</fix>
</trkpt>
<trkpt lat="40.0716381" lon="-105.2274803">
  <ele>1583.0</ele>
  <time>2026-08-28T17:52:52Z</time>
  <course>135.08</course>
  <speed>4.95</speed>
  <fix>3d</fix>
</trkpt>
<trkpt lat="40.0716308" lon="-105.227471">
  <ele>1582.99</ele>
  <time>2026-08-28T17:52:52Z</time>
  <course>135.97</course>
  <speed>4.928579917176955</speed>
  <fix>3d</fix>
</trkpt>
<trkpt lat="40.0716381" lon="-105.2274803">
  <ele>1583.0</ele>
  <time>2026-08-28T17:52:52Z</time>
  <course>135.08</course>
  <speed>4.95</speed>
  <fix>3d</fix>
</trkpt>
<trkpt lat="40.0716277" lon="-105.2274669">
  <ele>1582.99</ele>
  <time>2026-08-28T17:52:52Z</time>
  <course>135.99</course>
  <speed>4.928579917176955</speed>
  <fix>3d</fix>
</trkpt>
<trkpt lat="40.0716318" lon="-105.2274721">
  <ele>1583.0</ele>
  <time>2026-08-28T17:52:52Z</time>
  <course>135.12</course>
  <speed>4.94</speed>
  <fix>3d</fix>
</trkpt>
<trkpt lat="40.0716245" lon="-105.2274628">
  <ele>1582.99</ele>
  <time>2026-08-28T17:52:52Z</time>
  <course>136.0</course>
  <speed>4.928579917176955</speed>
  <fix>3d</fix>
</trkpt>
<trkpt lat="40.0716318" lon="-105.2274721">
  <ele>1583.0</ele>
  <time>2026-08-28T17:52:52Z</time>
  <course>135.12</course>
  <speed>4.94</speed>
  <fix>3d</fix>
</trkpt>
<trkpt lat="40.0716213" lon="-105.2274586">
  <ele>1582.99</ele>
  <time>2026-08-28T17:52:52Z</time>
  <course>136.03</course>
  <speed>4.935686375773891</speed>
  <fix>3d</fix>
</trkpt>
<trkpt lat="40.0716255" lon="-105.2274639">
  <ele>1583.0</ele>
  <time>2026-08-28T17:52:52Z</time>
  <course>135.16</course>
  <speed>4.95</speed>
  <fix>3d</fix>
</trkpt>
<trkpt lat="40.0716181" lon="-105.2274545">
  <ele>1583.0</ele>
  <time>2026-08-28T17:52:52Z</time>
  <course>136.05</course>
  <speed>4.935686375773891</speed>
  <fix>3d</fix>
</trkpt>
<trkpt lat="40.0716255" lon="-105.2274639">
  <ele>1583.0</ele>
  <time>2026-08-28T17:52:52Z</time>
  <course>135.16</course>
  <speed>4.95</speed>
  <fix>3d</fix>
</trkpt>
<trkpt lat="40.071615" lon="-105.2274504">
  <ele>1583.0</ele>
  <time>2026-08-28T17:52:52Z</time>
  <course>136.07</course>
  <speed>4.942802848587024</speed>
  <fix>3d</fix>
</trkpt>
<trkpt lat="40.0716192" lon="-105.2274557">
  <ele>1583.0</ele>
  <time>2026-08-28T17:52:52Z</time>
  <course>135.2</course>
  <speed>4.95</speed>
  <fix>3d</fix>
</trkpt>
<trkpt lat="40.0716118" lon="-105.2274463">
  <ele>1583.0</ele>
  <time>2026-08-28T17:52:52Z</time>
  <course>136.1</course>
  <speed>4.942802848587024</speed>
  <fix>3d</fix>
</trkpt>
<trkpt lat="40.0716192" lon="-105.2274557">
  <ele>1583.0</ele>
  <time>2026-08-28T17:52:52Z</time>
  <course>135.2</course>
  <speed>4.95</speed>
  <fix>3d</fix>
</trkpt>
<trkpt lat="40.0716086" lon="-105.2274422">
  <ele>1583.0</ele>
  <time>2026-08-28T17:52:52Z</time>
  <course>136.1</course>
  <speed>4.949828279849716</speed>
  <fix>3d</fix>
</trkpt>
<trkpt lat="40.0716129" lon="-105.2274475">
  <ele>1583.0</ele>
  <time>2026-08-28T17:52:52Z</time>
  <course>135.22</course>
  <speed>4.96</speed>
  <fix>3d</fix>
</trkpt>
<trkpt lat="40.0716054" lon="-105.227438">
  <ele>1583.0</ele>
  <time>2026-08-28T17:52:52Z</time>
  <course>136.11</course>
  <speed>4.956944623455057</speed>
  <fix>3d</fix>
</trkpt>
<trkpt lat="40.0716129" lon="-105.2274475">
  <ele>1583.0</ele>
  <time>2026-08-28T17:52:52Z</time>
  <course>135.22</course>
  <speed>4.96</speed>
  <fix>3d</fix>
</trkpt>
<trkpt lat="40.0716023" lon="-105.2274339">
  <ele>1583.0</ele>
  <time>2026-08-28T17:52:52Z</time>
  <course>136.14</course>
  <speed>4.956944623455057</speed>
  <fix>3d</fix>
</trkpt>
<trkpt lat="40.0716065" lon="-105.2274393">
  <ele>1583.0</ele>
  <time>2026-08-28T17:52:52Z</time>
  <course>135.26</course>
  <speed>4.97</speed>
  <fix>3d</fix>
</trkpt>
<trkpt lat="40.0715991" lon="-105.2274298">
  <ele>1583.0</ele>
  <time>2026-08-28T17:52:52Z</time>
  <course>136.15</course>
  <speed>4.971086400375676</speed>
  <fix>3d</fix>
</trkpt>
<trkpt lat="40.0716065" lon="-105.2274393">
  <ele>1583.0</ele>
  <time>2026-08-28T17:52:52Z</time>
  <course>135.26</course>
  <speed>4.97</speed>
  <fix>3d</fix>
</trkpt>
<trkpt lat="40.0715959" lon="-105.2274257">
  <ele>1583.0</ele>
  <time>2026-08-28T17:52:52Z</time>
  <course>136.16</course>
  <speed>4.971086400375676</speed>
  <fix>3d</fix>
</trkpt>
<trkpt lat="40.0716065" lon="-105.2274393">
  <ele>1583.0</ele>
  <time>2026-08-28T17:52:52Z</time>
  <course>135.26</course>
  <speed>4.97</speed>
  <fix>3d</fix>
</trkpt>
<trkpt lat="40.0715927" lon="-105.2274216">
  <ele>1583.0</ele>
  <time>2026-08-28T17:52:52Z</time>
  <course>136.16</course>
  <speed>4.971086400375676</speed>
  <fix>3d</fix>
</trkpt>
<trkpt lat="40.0716002" lon="-105.227431">
  <ele>1583.0</ele>
  <time>2026-08-28T17:52:52Z</time>
  <course>135.28</course>
  <speed>4.98</speed>
  <fix>3d</fix>
</trkpt>
<trkpt lat="40.0715895" lon="-105.2274175">
  <ele>1583.0</ele>
  <time>2026-08-28T17:52:52Z</time>
  <course>136.18</course>
  <speed>4.9782125306177925</speed>
  <fix>3d</fix>
</trkpt>
<trkpt lat="40.0716002" lon="-105.227431">
  <ele>1583.0</ele>
  <time>2026-08-28T17:52:52Z</time>
  <course>135.28</course>
  <speed>4.98</speed>
  <fix>3d</fix>
</trkpt>
<trkpt lat="40.0715864" lon="-105.2274134">
  <ele>1583.0</ele>
  <time>2026-08-28T17:52:52Z</time>
  <course>136.19</course>
  <speed>4.9782125306177925</speed>
  <fix>3d</fix>
</trkpt>
<trkpt lat="40.0715938" lon="-105.2274228">
  <ele>1583.0</ele>
  <time>2026-08-28T17:52:52Z</time>
  <course>135.3</course>
  <speed>4.99</speed>
  <fix>3d</fix>
</trkpt>
<trkpt lat="40.0715832" lon="-105.2274093">
  <ele>1583.01</ele>
  <time>2026-08-28T17:52:52Z</time>
  <course>136.19</course>
  <speed>4.9782125306177925</speed>
  <fix>3d</fix>
</trkpt>
<trkpt lat="40.0715938" lon="-105.2274228">
  <ele>1583.0</ele>
  <time>2026-08-28T17:52:52Z</time>
  <course>135.3</course>
  <speed>4.99</speed>
  <fix>3d</fix>
</trkpt>
<trkpt lat="40.0715801" lon="-105.2274052">
  <ele>1583.0</ele>
  <time>2026-08-28T17:52:52Z</time>
  <course>136.2</course>
  <speed>4.9782125306177925</speed>
  <fix>3d</fix>
</trkpt>
<trkpt lat="40.0715875" lon="-105.2274146">
  <ele>1583.0</ele>
  <time>2026-08-28T17:52:52Z</time>
  <course>135.31</course>
  <speed>5.0</speed>
  <fix>3d</fix>
</trkpt>
<trkpt lat="40.0715769" lon="-105.2274011">
  <ele>1583.0</ele>
  <time>2026-08-28T17:52:52Z</time>
  <course>136.22</course>
  <speed>4.9782125306177925</speed>
  <fix>3d</fix>
</trkpt>
<trkpt lat="40.0715811" lon="-105.2274063">
  <ele>1583.0</ele>
  <time>2026-08-28T17:52:52Z</time>
  <course>135.33</course>
  <speed>5.0</speed>
  <fix>3d</fix>
</trkpt>
<trkpt lat="40.0715737" lon="-105.227397">
  <ele>1583.0</ele>
  <time>2026-08-28T17:52:52Z</time>
  <course>136.23</course>
  <speed>4.985348533452802</speed>
  <fix>3d</fix>
</trkpt>
<trkpt lat="40.0715811" lon="-105.2274063">
  <ele>1583.0</ele>
  <time>2026-08-28T17:52:52Z</time>
  <course>135.33</course>
  <speed>5.0</speed>
  <fix>3d</fix>
</trkpt>
<trkpt lat="40.0715705" lon="-105.2273928">
  <ele>1583.0</ele>
  <time>2026-08-28T17:52:52Z</time>
  <course>136.25</course>
  <speed>4.985348533452802</speed>
  <fix>3d</fix>
</trkpt>
<trkpt lat="40.0715747" lon="-105.227398">
  <ele>1583.0</ele>
  <time>2026-08-28T17:52:52Z</time>
  <course>135.36</course>
  <speed>5.01</speed>
  <fix>3d</fix>
</trkpt>
<trkpt lat="40.0715673" lon="-105.2273887">
  <ele>1583.0</ele>
  <time>2026-08-28T17:52:52Z</time>
  <course>136.26</course>
  <speed>4.985348533452802</speed>
  <fix>3d</fix>
</trkpt>
<trkpt lat="40.0715747" lon="-105.227398">
  <ele>1583.0</ele>
  <time>2026-08-28T17:52:52Z</time>
  <course>135.36</course>
  <speed>5.01</speed>
  <fix>3d</fix>
</trkpt>
<trkpt lat="40.0715641" lon="-105.2273846">
  <ele>1583.0</ele>
  <time>2026-08-28T17:52:52Z</time>
  <course>136.27</course>
  <speed>4.992354154104054</speed>
  <fix>3d</fix>
</trkpt>
<trkpt lat="40.0715682" lon="-105.2273898">
  <ele>1583.0</ele>
  <time>2026-08-28T17:52:52Z</time>
  <course>135.38</course>
  <speed>5.02</speed>
  <fix>3d</fix>
</trkpt>
<trkpt lat="40.0715609" lon="-105.2273804">
  <ele>1583.0</ele>
  <time>2026-08-28T17:52:52Z</time>
  <course>136.29</course>
  <speed>4.999489973987346</speed>
  <fix>3d</fix>
</trkpt>
<trkpt lat="40.0715682" lon="-105.2273898">
  <ele>1583.0</ele>
  <time>2026-08-28T17:52:52Z</time>
  <course>135.38</course>
  <speed>5.02</speed>
  <fix>3d</fix>
</trkpt>
<trkpt lat="40.0715576" lon="-105.2273763">
  <ele>1582.99</ele>
  <time>2026-08-28T17:52:52Z</time>
  <course>136.29</course>
  <speed>4.999489973987346</speed>
  <fix>3d</fix>
</trkpt>
<trkpt lat="40.0715618" lon="-105.2273815">
  <ele>1583.0</ele>
  <time>2026-08-28T17:52:52Z</time>
  <course>135.39</course>
  <speed>5.02</speed>
  <fix>3d</fix>
</trkpt>
<trkpt lat="40.0715544" lon="-105.2273721">
  <ele>1582.99</ele>
  <time>2026-08-28T17:52:52Z</time>
  <course>136.3</course>
  <speed>4.999489973987346</speed>
  <fix>3d</fix>
</trkpt>
<trkpt lat="40.0715618" lon="-105.2273815">
  <ele>1583.0</ele>
  <time>2026-08-28T17:52:52Z</time>
  <course>135.39</course>
  <speed>5.02</speed>
  <fix>3d</fix>
</trkpt>
<trkpt lat="40.0715511" lon="-105.2273679">
  <ele>1582.99</ele>
  <time>2026-08-28T17:52:52Z</time>
  <course>136.32</course>
  <speed>4.999489973987346</speed>
  <fix>3d</fix>
</trkpt>
<trkpt lat="40.0715553" lon="-105.2273732">
  <ele>1583.0</ele>
  <time>2026-08-28T17:52:52Z</time>
  <course>135.41</course>
  <speed>5.02</speed>
  <fix>3d</fix>
</trkpt>
<trkpt lat="40.0715479" lon="-105.2273638">
  <ele>1582.99</ele>
  <time>2026-08-28T17:52:52Z</time>
  <course>136.32</course>
  <speed>5.006635596885397</speed>
  <fix>3d</fix>
</trkpt>
<trkpt lat="40.0715553" lon="-105.2273732">
  <ele>1583.0</ele>
  <time>2026-08-28T17:52:52Z</time>
  <course>135.41</course>
  <speed>5.02</speed>
  <fix>3d</fix>
</trkpt>
<trkpt lat="40.0715447" lon="-105.2273596">
  <ele>1582.98</ele>
  <time>2026-08-28T17:52:52Z</time>
  <course>136.34</course>
  <speed>5.006635596885397</speed>
  <fix>3d</fix>
</trkpt>
<trkpt lat="40.071549" lon="-105.2273649">
  <ele>1583.0</ele>
  <time>2026-08-28T17:52:52Z</time>
  <course>135.43</course>
  <speed>5.03</speed>
  <fix>3d</fix>
</trkpt>
<trkpt lat="40.0715414" lon="-105.2273554">
  <ele>1582.98</ele>
  <time>2026-08-28T17:52:52Z</time>
  <course>136.34</course>
  <speed>5.006635596885397</speed>
  <fix>3d</fix>
</trkpt>
<trkpt lat="40.071549" lon="-105.2273649">
  <ele>1583.0</ele>
  <time>2026-08-28T17:52:52Z</time>
  <course>135.43</course>
  <speed>5.03</speed>
  <fix>3d</fix>
</trkpt>
<trkpt lat="40.0715382" lon="-105.2273513">
  <ele>1582.99</ele>
  <time>2026-08-28T17:52:52Z</time>
  <course>136.36</course>
  <speed>5.006635596885397</speed>
  <fix>3d</fix>
</trkpt>
<trkpt lat="40.0715425" lon="-105.2273566">
  <ele>1583.0</ele>
  <time>2026-08-28T17:52:52Z</time>
  <course>135.45</course>
  <speed>5.03</speed>
  <fix>3d</fix>
</trkpt>
<trkpt lat="40.071535" lon="-105.2273471">
  <ele>1582.99</ele>
  <time>2026-08-28T17:52:52Z</time>
  <course>136.36</course>
  <speed>5.006635596885397</speed>
  <fix>3d</fix>
</trkpt>
<trkpt lat="40.0715425" lon="-105.2273566">
  <ele>1583.0</ele>
  <time>2026-08-28T17:52:52Z</time>
  <course>135.45</course>
  <speed>5.03</speed>
  <fix>3d</fix>
</trkpt>
<trkpt lat="40.0715317" lon="-105.227343">
  <ele>1582.99</ele>
  <time>2026-08-28T17:52:52Z</time>
  <course>136.37</course>
  <speed>5.006635596885397</speed>
  <fix>3d</fix>
</trkpt>
<trkpt lat="40.0715425" lon="-105.2273566">
  <ele>1583.0</ele>
  <time>2026-08-28T17:52:52Z</time>
  <course>135.45</course>
  <speed>5.03</speed>
  <fix>3d</fix>
</trkpt>
<trkpt lat="40.0715285" lon="-105.2273389">
  <ele>1582.99</ele>
  <time>2026-08-28T17:52:52Z</time>
  <course>136.38</course>
  <speed>5.006635596885397</speed>
  <fix>3d</fix>
</trkpt>
<trkpt lat="40.0715361" lon="-105.2273483">
  <ele>1583.0</ele>
  <time>2026-08-28T17:52:52Z</time>
  <course>135.46</course>
  <speed>5.03</speed>
  <fix>3d</fix>
</trkpt>
<trkpt lat="40.0715253" lon="-105.2273347">
  <ele>1582.99</ele>
  <time>2026-08-28T17:52:52Z</time>
  <course>136.39</course>
  <speed>4.999649987749143</speed>
  <fix>3d</fix>
</trkpt>
<trkpt lat="40.0715361" lon="-105.2273483">
  <ele>1583.0</ele>
  <time>2026-08-28T17:52:52Z</time>
  <course>135.46</course>
  <speed>5.03</speed>
  <fix>3d</fix>
</trkpt>
<trkpt lat="40.0715221" lon="-105.2273306">
  <ele>1582.99</ele>
  <time>2026-08-28T17:52:52Z</time>
  <course>136.39</course>
  <speed>4.992494366546646</speed>
  <fix>3d</fix>
</trkpt>
<trkpt lat="40.0715296" lon="-105.22734">
  <ele>1583.0</ele>
  <time>2026-08-28T17:52:52Z</time>
  <course>135.47</course>
  <speed>5.02</speed>
  <fix>3d</fix>
</trkpt>
<trkpt lat="40.071519" lon="-105.2273266">
  <ele>1582.99</ele>
  <time>2026-08-28T17:52:52Z</time>
  <course>136.4</course>
  <speed>4.992494366546646</speed>
  <fix>3d</fix>
</trkpt>
<trkpt lat="40.0715296" lon="-105.22734">
  <ele>1583.0</ele>
  <time>2026-08-28T17:52:52Z</time>
  <course>135.47</course>
  <speed>5.02</speed>
  <fix>3d</fix>
</trkpt>
<trkpt lat="40.0715158" lon="-105.2273225">
  <ele>1582.99</ele>
  <time>2026-08-28T17:52:52Z</time>
  <course>136.41</course>
  <speed>4.992494366546646</speed>
  <fix>3d</fix>
</trkpt>
<trkpt lat="40.0715232" lon="-105.2273318">
  <ele>1583.0</ele>
  <time>2026-08-28T17:52:52Z</time>
  <course>135.49</course>
  <speed>5.02</speed>
  <fix>3d</fix>
</trkpt>
<trkpt lat="40.0715126" lon="-105.2273184">
  <ele>1582.99</ele>
  <time>2026-08-28T17:52:52Z</time>
  <course>136.42</course>
  <speed>4.985509001095074</speed>
  <fix>3d</fix>
</trkpt>
<trkpt lat="40.0715232" lon="-105.2273318">
  <ele>1583.0</ele>
  <time>2026-08-28T17:52:52Z</time>
  <course>135.49</course>
  <speed>5.02</speed>
  <fix>3d</fix>
</trkpt>
<trkpt lat="40.0715094" lon="-105.2273143">
  <ele>1582.98</ele>
  <time>2026-08-28T17:52:52Z</time>
  <course>136.42</course>
  <speed>4.985509001095074</speed>
  <fix>3d</fix>
</trkpt>
<trkpt lat="40.0715168" lon="-105.2273235">
  <ele>1583.0</ele>
  <time>2026-08-28T17:52:52Z</time>
  <course>135.5</course>
  <speed>5.02</speed>
  <fix>3d</fix>
</trkpt>
<trkpt lat="40.0715062" lon="-105.2273102">
  <ele>1582.98</ele>
  <time>2026-08-28T17:52:52Z</time>
  <course>136.42</course>
  <speed>4.985509001095074</speed>
  <fix>3d</fix>
</trkpt>
<trkpt lat="40.0715103" lon="-105.2273152">
  <ele>1583.0</ele>
  <time>2026-08-28T17:52:52Z</time>
  <course>135.51</course>
  <speed>5.02</speed>
  <fix>3d</fix>
</trkpt>
<trkpt lat="40.071503" lon="-105.2273061">
  <ele>1582.99</ele>
  <time>2026-08-28T17:52:52Z</time>
  <course>136.44</course>
  <speed>4.985509001095074</speed>
  <fix>3d</fix>
</trkpt>
<trkpt lat="40.0715103" lon="-105.2273152">
  <ele>1583.0</ele>
  <time>2026-08-28T17:52:52Z</time>
  <course>135.51</course>
  <speed>5.02</speed>
  <fix>3d</fix>
</trkpt>
<trkpt lat="40.0714998" lon="-105.227302">
  <ele>1582.99</ele>
  <time>2026-08-28T17:52:52Z</time>
  <course>136.44</course>
  <speed>4.985509001095074</speed>
  <fix>3d</fix>
</trkpt>
<trkpt lat="40.0715038" lon="-105.227307">
  <ele>1583.0</ele>
  <time>2026-08-28T17:52:52Z</time>
  <course>135.51</course>
  <speed>5.02</speed>
  <fix>3d</fix>
</trkpt>
<trkpt lat="40.0714966" lon="-105.2272978">
  <ele>1582.99</ele>
  <time>2026-08-28T17:52:52Z</time>
  <course>136.45</course>
  <speed>4.985509001095074</speed>
  <fix>3d</fix>
</trkpt>
<trkpt lat="40.0715038" lon="-105.227307">
  <ele>1583.0</ele>
  <time>2026-08-28T17:52:52Z</time>
  <course>135.51</course>
  <speed>5.02</speed>
  <fix>3d</fix>
</trkpt>
<trkpt lat="40.0714933" lon="-105.2272937">
  <ele>1582.99</ele>
  <time>2026-08-28T17:52:52Z</time>
  <course>136.45</course>
  <speed>4.992674633901151</speed>
  <fix>3d</fix>
</trkpt>
<trkpt lat="40.0714974" lon="-105.2272987">
  <ele>1583.0</ele>
  <time>2026-08-28T17:52:52Z</time>
  <course>135.53</course>
  <speed>5.02</speed>
  <fix>3d</fix>
</trkpt>
<trkpt lat="40.0714901" lon="-105.2272895">
  <ele>1582.99</ele>
  <time>2026-08-28T17:52:52Z</time>
  <course>136.46</course>
  <speed>4.992674633901151</speed>
  <fix>3d</fix>
</trkpt>
<trkpt lat="40.0714974" lon="-105.2272987">
  <ele>1583.0</ele>
  <time>2026-08-28T17:52:52Z</time>
  <course>135.53</course>
  <speed>5.02</speed>
  <fix>3d</fix>
</trkpt>
<trkpt lat="40.0714868" lon="-105.2272853">
  <ele>1582.99</ele>
  <time>2026-08-28T17:52:52Z</time>
  <course>136.47</course>
  <speed>4.992674633901151</speed>
  <fix>3d</fix>
</trkpt>
<trkpt lat="40.0714909" lon="-105.2272904">
  <ele>1583.0</ele>
  <time>2026-08-28T17:52:52Z</time>
  <course>135.54</course>
  <speed>5.03</speed>
  <fix>3d</fix>
</trkpt>
<trkpt lat="40.0714836" lon="-105.2272812">
  <ele>1582.99</ele>
  <time>2026-08-28T17:52:52Z</time>
  <course>136.47</course>
  <speed>4.999649987749143</speed>
  <fix>3d</fix>
</trkpt>
<trkpt lat="40.0714909" lon="-105.2272904">
  <ele>1583.0</ele>
  <time>2026-08-28T17:52:52Z</time>
  <course>135.54</course>
  <speed>5.03</speed>
  <fix>3d</fix>
</trkpt>
<trkpt lat="40.0714803" lon="-105.227277">
  <ele>1582.99</ele>
  <time>2026-08-28T17:52:52Z</time>
  <course>136.47</course>
  <speed>4.999649987749143</speed>
  <fix>3d</fix>
</trkpt>
<trkpt lat="40.0714845" lon="-105.2272821">
  <ele>1583.0</ele>
  <time>2026-08-28T17:52:52Z</time>
  <course>135.55</course>
  <speed>5.03</speed>
  <fix>3d</fix>
</trkpt>
<trkpt lat="40.0714771" lon="-105.2272729">
  <ele>1582.99</ele>
  <time>2026-08-28T17:52:52Z</time>
  <course>136.47</course>
  <speed>4.999649987749143</speed>
  <fix>3d</fix>
</trkpt>
<trkpt lat="40.0714845" lon="-105.2272821">
  <ele>1583.0</ele>
  <time>2026-08-28T17:52:52Z</time>
  <course>135.55</course>
  <speed>5.03</speed>
  <fix>3d</fix>
</trkpt>
<trkpt lat="40.0714738" lon="-105.2272687">
  <ele>1582.98</ele>
  <time>2026-08-28T17:52:52Z</time>
  <course>136.49</course>
  <speed>4.999649987749143</speed>
  <fix>3d</fix>
</trkpt>
<trkpt lat="40.071478" lon="-105.2272739">
  <ele>1583.0</ele>
  <time>2026-08-28T17:52:52Z</time>
  <course>135.56</course>
  <speed>5.03</speed>
  <fix>3d</fix>
</trkpt>
<trkpt lat="40.0714706" lon="-105.2272645">
  <ele>1582.98</ele>
  <time>2026-08-28T17:52:52Z</time>
  <course>136.49</course>
  <speed>5.006815355093495</speed>
  <fix>3d</fix>
</trkpt>
<trkpt lat="40.071478" lon="-105.2272739">
  <ele>1583.0</ele>
  <time>2026-08-28T17:52:52Z</time>
  <course>135.56</course>
  <speed>5.03</speed>
  <fix>3d</fix>
</trkpt>
<trkpt lat="40.0714673" lon="-105.2272604">
  <ele>1582.98</ele>
  <time>2026-08-28T17:52:52Z</time>
  <course>136.49</course>
  <speed>5.006815355093495</speed>
  <fix>3d</fix>
</trkpt>
<trkpt lat="40.0714716" lon="-105.2272656">
  <ele>1583.0</ele>
  <time>2026-08-28T17:52:52Z</time>
  <course>135.56</course>
  <speed>5.02</speed>
  <fix>3d</fix>
</trkpt>
<trkpt lat="40.0714641" lon="-105.2272562">
  <ele>1582.98</ele>
  <time>2026-08-28T17:52:52Z</time>
  <course>136.51</course>
  <speed>4.999849997749933</speed>
  <fix>3d</fix>
</trkpt>
<trkpt lat="40.0714716" lon="-105.2272656">
  <ele>1583.0</ele>
  <time>2026-08-28T17:52:52Z</time>
  <course>135.56</course>
  <speed>5.02</speed>
  <fix>3d</fix>
</trkpt>
<trkpt lat="40.0714608" lon="-105.2272521">
  <ele>1582.98</ele>
  <time>2026-08-28T17:52:52Z</time>
  <course>136.51</course>
  <speed>4.999849997749933</speed>
  <fix>3d</fix>
</trkpt>
<trkpt lat="40.0714716" lon="-105.2272656">
  <ele>1583.0</ele>
  <time>2026-08-28T17:52:52Z</time>
  <course>135.56</course>
  <speed>5.02</speed>
  <fix>3d</fix>
</trkpt>
<trkpt lat="40.0714576" lon="-105.227248">
  <ele>1582.98</ele>
  <time>2026-08-28T17:52:52Z</time>
  <course>136.51</course>
  <speed>4.992674633901151</speed>
  <fix>3d</fix>
</trkpt>
<trkpt lat="40.0714651" lon="-105.2272573">
  <ele>1583.0</ele>
  <time>2026-08-28T17:52:52Z</time>
  <course>135.57</course>
  <speed>5.02</speed>
  <fix>3d</fix>
</trkpt>
<trkpt lat="40.0714544" lon="-105.2272439">
  <ele>1582.99</ele>
  <time>2026-08-28T17:52:52Z</time>
  <course>136.52</course>
  <speed>4.992674633901151</speed>
  <fix>3d</fix>
</trkpt>
<trkpt lat="40.0714651" lon="-105.2272573">
  <ele>1583.0</ele>
  <time>2026-08-28T17:52:52Z</time>
  <course>135.57</course>
  <speed>5.02</speed>
  <fix>3d</fix>
</trkpt>
<trkpt lat="40.0714512" lon="-105.2272398">
  <ele>1582.99</ele>
  <time>2026-08-28T17:52:52Z</time>
  <course>136.52</course>
  <speed>4.992674633901151</speed>
  <fix>3d</fix>
</trkpt>
<trkpt lat="40.0714586" lon="-105.2272491">
  <ele>1583.0</ele>
  <time>2026-08-28T17:52:52Z</time>
  <course>135.58</course>
  <speed>5.02</speed>
  <fix>3d</fix>
</trkpt>
<trkpt lat="40.071448" lon="-105.2272357">
  <ele>1582.99</ele>
  <time>2026-08-28T17:52:52Z</time>
  <course>136.52</course>
  <speed>4.992674633901151</speed>
  <fix>3d</fix>
</trkpt>
<trkpt lat="40.0714586" lon="-105.2272491">
  <ele>1583.0</ele>
  <time>2026-08-28T17:52:52Z</time>
  <course>135.58</course>
  <speed>5.02</speed>
  <fix>3d</fix>
</trkpt>
<trkpt lat="40.0714448" lon="-105.2272316">
  <ele>1583.0</ele>
  <time>2026-08-28T17:52:52Z</time>
  <course>136.52</course>
  <speed>4.9857095783850065</speed>
  <fix>3d</fix>
</trkpt>
<trkpt lat="40.0714523" lon="-105.2272408">
  <ele>1583.0</ele>
  <time>2026-08-28T17:52:52Z</time>
  <course>135.59</course>
  <speed>5.02</speed>
  <fix>3d</fix>
</trkpt>
<trkpt lat="40.0714416" lon="-105.2272275">
  <ele>1583.0</ele>
  <time>2026-08-28T17:52:52Z</time>
  <course>136.54</course>
  <speed>4.9857095783850065</speed>
  <fix>3d</fix>
</trkpt>
<trkpt lat="40.0714458" lon="-105.2272325">
  <ele>1583.0</ele>
  <time>2026-08-28T17:52:52Z</time>
  <course>135.6</course>
  <speed>5.02</speed>
  <fix>3d</fix>
</trkpt>
<trkpt lat="40.0714384" lon="-105.2272234">
  <ele>1583.0</ele>
  <time>2026-08-28T17:52:52Z</time>
  <course>136.54</course>
  <speed>4.9857095783850065</speed>
  <fix>3d</fix>
</trkpt>
<trkpt lat="40.0714458" lon="-105.2272325">
  <ele>1583.0</ele>
  <time>2026-08-28T17:52:52Z</time>
  <course>135.6</course>
  <speed>5.02</speed>
  <fix>3d</fix>
</trkpt>
<trkpt lat="40.0714352" lon="-105.2272193">
  <ele>1583.0</ele>
  <time>2026-08-28T17:52:52Z</time>
  <course>136.55</course>
  <speed>4.9857095783850065</speed>
  <fix>3d</fix>
</trkpt>
<trkpt lat="40.0714394" lon="-105.2272244">
  <ele>1583.0</ele>
  <time>2026-08-28T17:52:52Z</time>
  <course>135.61</course>
  <speed>5.02</speed>
  <fix>3d</fix>
</trkpt>
<trkpt lat="40.071432" lon="-105.2272152">
  <ele>1583.0</ele>
  <time>2026-08-28T17:52:52Z</time>
  <course>136.55</course>
  <speed>4.9857095783850065</speed>
  <fix>3d</fix>
</trkpt>
<trkpt lat="40.0714394" lon="-105.2272244">
  <ele>1583.0</ele>
  <time>2026-08-28T17:52:52Z</time>
  <course>135.61</course>
  <speed>5.02</speed>
  <fix>3d</fix>
</trkpt>
<trkpt lat="40.0714287" lon="-105.227211">
  <ele>1582.99</ele>
  <time>2026-08-28T17:52:52Z</time>
  <course>136.57</course>
  <speed>4.9857095783850065</speed>
  <fix>3d</fix>
</trkpt>
<trkpt lat="40.0714329" lon="-105.2272161">
  <ele>1583.0</ele>
  <time>2026-08-28T17:52:52Z</time>
  <course>135.62</course>
  <speed>5.02</speed>
  <fix>3d</fix>
</trkpt>
<trkpt lat="40.0714255" lon="-105.2272069">
  <ele>1582.99</ele>
  <time>2026-08-28T17:52:52Z</time>
  <course>136.57</course>
  <speed>4.999849997749933</speed>
  <fix>3d</fix>
</trkpt>
<trkpt lat="40.0714329" lon="-105.2272161">
  <ele>1583.0</ele>
  <time>2026-08-28T17:52:52Z</time>
  <course>135.62</course>
  <speed>5.02</speed>
  <fix>3d</fix>
</trkpt>
<trkpt lat="40.0714222" lon="-105.2272028">
  <ele>1582.99</ele>
  <time>2026-08-28T17:52:52Z</time>
  <course>136.57</course>
  <speed>4.999849997749933</speed>
  <fix>3d</fix>
</trkpt>
<trkpt lat="40.0714265" lon="-105.2272079">
  <ele>1583.0</ele>
  <time>2026-08-28T17:52:52Z</time>
  <course>135.63</course>
  <speed>5.02</speed>
  <fix>3d</fix>
</trkpt>
<trkpt lat="40.071419" lon="-105.2271986">
  <ele>1582.98</ele>
  <time>2026-08-28T17:52:52Z</time>
  <course>136.58</course>
  <speed>4.999849997749933</speed>
  <fix>3d</fix>
</trkpt>
<trkpt lat="40.0714265" lon="-105.2272079">
  <ele>1583.0</ele>
  <time>2026-08-28T17:52:52Z</time>
  <course>135.63</course>
  <speed>5.02</speed>
  <fix>3d</fix>
</trkpt>
<trkpt lat="40.0714157" lon="-105.2271944">
  <ele>1582.98</ele>
  <time>2026-08-28T17:52:52Z</time>
  <course>136.58</course>
  <speed>4.999849997749933</speed>
  <fix>3d</fix>
</trkpt>
<trkpt lat="40.07142" lon="-105.2271996">
  <ele>1583.0</ele>
  <time>2026-08-28T17:52:52Z</time>
  <course>135.64</course>
  <speed>5.02</speed>
  <fix>3d</fix>
</trkpt>
<trkpt lat="40.0714125" lon="-105.2271903">
  <ele>1582.98</ele>
  <time>2026-08-28T17:52:52Z</time>
  <course>136.58</course>
  <speed>4.999849997749933</speed>
  <fix>3d</fix>
</trkpt>
<trkpt lat="40.07142" lon="-105.2271996">
  <ele>1583.0</ele>
  <time>2026-08-28T17:52:52Z</time>
  <course>135.64</course>
  <speed>5.02</speed>
  <fix>3d</fix>
</trkpt>
<trkpt lat="40.0714092" lon="-105.2271862">
  <ele>1582.98</ele>
  <time>2026-08-28T17:52:52Z</time>
  <course>136.58</course>
  <speed>4.999849997749933</speed>
  <fix>3d</fix>
</trkpt>
<trkpt lat="40.0714136" lon="-105.2271914">
  <ele>1583.0</ele>
  <time>2026-08-28T17:52:52Z</time>
  <course>135.64</course>
  <speed>5.02</speed>
  <fix>3d</fix>
</trkpt>
<trkpt lat="40.071406" lon="-105.227182">
  <ele>1582.97</ele>
  <time>2026-08-28T17:52:52Z</time>
  <course>136.6</course>
  <speed>4.992894951829049</speed>
  <fix>3d</fix>
</trkpt>
<trkpt lat="40.0714136" lon="-105.2271914">
  <ele>1583.0</ele>
  <time>2026-08-28T17:52:52Z</time>
  <course>135.64</course>
  <speed>5.02</speed>
  <fix>3d</fix>
</trkpt>
<trkpt lat="40.0714028" lon="-105.2271779">
  <ele>1582.97</ele>
  <time>2026-08-28T17:52:52Z</time>
  <course>136.6</course>
  <speed>4.992894951829049</speed>
  <fix>3d</fix>
</trkpt>
<trkpt lat="40.0714071" lon="-105.2271831">
  <ele>1583.0</ele>
  <time>2026-08-28T17:52:52Z</time>
  <course>135.65</course>
  <speed>5.02</speed>
  <fix>3d</fix>
</trkpt>
<trkpt lat="40.0713995" lon="-105.2271738">
  <ele>1582.97</ele>
  <time>2026-08-28T17:52:52Z</time>
  <course>136.61</course>
  <speed>4.992894951829049</speed>
  <fix>3d</fix>
</trkpt>
<trkpt lat="40.0714071" lon="-105.2271831">
  <ele>1583.0</ele>
  <time>2026-08-28T17:52:52Z</time>
  <course>135.65</course>
  <speed>5.02</speed>
  <fix>3d</fix>
</trkpt>
<trkpt lat="40.0713963" lon="-105.2271696">
  <ele>1582.97</ele>
  <time>2026-08-28T17:52:52Z</time>
  <course>136.61</course>
  <speed>4.992894951829049</speed>
  <fix>3d</fix>
</trkpt>
<trkpt lat="40.0714071" lon="-105.2271831">
  <ele>1583.0</ele>
  <time>2026-08-28T17:52:52Z</time>
  <course>135.65</course>
  <speed>5.02</speed>
  <fix>3d</fix>
</trkpt>
<trkpt lat="40.0713931" lon="-105.2271655">
  <ele>1582.97</ele>
  <time>2026-08-28T17:52:52Z</time>
  <course>136.61</course>
  <speed>4.992894951829049</speed>
  <fix>3d</fix>
</trkpt>
<trkpt lat="40.0714006" lon="-105.2271749">
  <ele>1583.0</ele>
  <time>2026-08-28T17:52:52Z</time>
  <course>135.66</course>
  <speed>5.01</speed>
  <fix>3d</fix>
</trkpt>
<trkpt lat="40.0713899" lon="-105.2271614">
  <ele>1582.97</ele>
  <time>2026-08-28T17:52:52Z</time>
  <course>136.61</course>
  <speed>4.992894951829049</speed>
  <fix>3d</fix>
</trkpt>
<trkpt lat="40.0714006" lon="-105.2271749">
  <ele>1583.0</ele>
  <time>2026-08-28T17:52:52Z</time>
  <course>135.66</course>
  <speed>5.01</speed>
  <fix>3d</fix>
</trkpt>
<trkpt lat="40.0713867" lon="-105.2271574">
  <ele>1582.97</ele>
  <time>2026-08-28T17:52:52Z</time>
  <course>136.63</course>
  <speed>4.992894951829049</speed>
  <fix>3d</fix>
</trkpt>
<trkpt lat="40.0713942" lon="-105.2271666">
  <ele>1583.0</ele>
  <time>2026-08-28T17:52:52Z</time>
  <course>135.67</course>
  <speed>5.01</speed>
  <fix>3d</fix>
</trkpt>
<trkpt lat="40.0713835" lon="-105.2271533">
  <ele>1582.98</ele>
  <time>2026-08-28T17:52:52Z</time>
  <course>136.63</course>
  <speed>4.992894951829049</speed>
  <fix>3d</fix>
</trkpt>
<trkpt lat="40.0713942" lon="-105.2271666">
  <ele>1583.0</ele>
  <time>2026-08-28T17:52:52Z</time>
  <course>135.67</course>
  <speed>5.01</speed>
  <fix>3d</fix>
</trkpt>
<trkpt lat="40.0713803" lon="-105.2271492">
  <ele>1582.98</ele>
  <time>2026-08-28T17:52:52Z</time>
  <course>136.63</course>
  <speed>4.992894951829049</speed>
  <fix>3d</fix>
</trkpt>
<trkpt lat="40.0713877" lon="-105.2271583">
  <ele>1583.0</ele>
  <time>2026-08-28T17:52:52Z</time>
  <course>135.68</course>
  <speed>5.01</speed>
  <fix>3d</fix>
</trkpt>
<trkpt lat="40.0713771" lon="-105.2271451">
  <ele>1582.98</ele>
  <time>2026-08-28T17:52:52Z</time>
  <course>136.64</course>
  <speed>4.992894951829049</speed>
  <fix>3d</fix>
</trkpt>
<trkpt lat="40.0713813" lon="-105.2271502">
  <ele>1583.0</ele>
  <time>2026-08-28T17:52:52Z</time>
  <course>135.69</course>
  <speed>5.01</speed>
  <fix>3d</fix>
</trkpt>
<trkpt lat="40.0713738" lon="-105.227141">
  <ele>1582.99</ele>
  <time>2026-08-28T17:52:52Z</time>
  <course>136.64</course>
  <speed>4.992894951829049</speed>
  <fix>3d</fix>
</trkpt>
<trkpt lat="40.0713813" lon="-105.2271502">
  <ele>1583.0</ele>
  <time>2026-08-28T17:52:52Z</time>
  <course>135.69</course>
  <speed>5.01</speed>
  <fix>3d</fix>
</trkpt>
<trkpt lat="40.0713706" lon="-105.2271369">
  <ele>1582.99</ele>
  <time>2026-08-28T17:52:52Z</time>
  <course>136.64</course>
  <speed>4.992894951829049</speed>
  <fix>3d</fix>
</trkpt>
<trkpt lat="40.0713748" lon="-105.2271419">
  <ele>1583.0</ele>
  <time>2026-08-28T17:52:52Z</time>
  <course>135.7</course>
  <speed>5.02</speed>
  <fix>3d</fix>
</trkpt>
<trkpt lat="40.0713674" lon="-105.2271328">
  <ele>1583.0</ele>
  <time>2026-08-28T17:52:52Z</time>
  <course>136.65</course>
  <speed>4.992894951829049</speed>
  <fix>3d</fix>
</trkpt>
<trkpt lat="40.0713748" lon="-105.2271419">
  <ele>1583.0</ele>
  <time>2026-08-28T17:52:52Z</time>
  <course>135.7</course>
  <speed>5.02</speed>
  <fix>3d</fix>
</trkpt>
<trkpt lat="40.0713642" lon="-105.2271287">
  <ele>1583.0</ele>
  <time>2026-08-28T17:52:52Z</time>
  <course>136.65</course>
  <speed>4.992894951829049</speed>
  <fix>3d</fix>
</trkpt>
<trkpt lat="40.0713684" lon="-105.2271337">
  <ele>1583.0</ele>
  <time>2026-08-28T17:52:52Z</time>
  <course>135.71</course>
  <speed>5.02</speed>
  <fix>3d</fix>
</trkpt>
<trkpt lat="40.0713609" lon="-105.2271245">
  <ele>1583.01</ele>
  <time>2026-08-28T17:52:52Z</time>
  <course>136.67</course>
  <speed>4.992894951829049</speed>
  <fix>3d</fix>
</trkpt>
<trkpt lat="40.0713684" lon="-105.2271337">
  <ele>1583.0</ele>
  <time>2026-08-28T17:52:52Z</time>
  <course>135.71</course>
  <speed>5.02</speed>
  <fix>3d</fix>
</trkpt>
<trkpt lat="40.0713577" lon="-105.2271204">
  <ele>1583.01</ele>
  <time>2026-08-28T17:52:52Z</time>
  <course>136.67</course>
  <speed>4.992894951829049</speed>
  <fix>3d</fix>
</trkpt>
<trkpt lat="40.0713619" lon="-105.2271255">
  <ele>1583.0</ele>
  <time>2026-08-28T17:52:52Z</time>
  <course>135.72</course>
  <speed>5.02</speed>
  <fix>3d</fix>
</trkpt>
<trkpt lat="40.0713544" lon="-105.2271163">
  <ele>1583.01</ele>
  <time>2026-08-28T17:52:52Z</time>
  <course>136.68</course>
  <speed>5.000089999190014</speed>
  <fix>3d</fix>
</trkpt>
<trkpt lat="40.0713619" lon="-105.2271255">
  <ele>1583.0</ele>
  <time>2026-08-28T17:52:52Z</time>
  <course>135.72</course>
  <speed>5.02</speed>
  <fix>3d</fix>
</trkpt>
<trkpt lat="40.0713512" lon="-105.2271121">
  <ele>1583.0</ele>
  <time>2026-08-28T17:52:52Z</time>
  <course>136.71</course>
  <speed>5.000089999190014</speed>
  <fix>3d</fix>
</trkpt>
<trkpt lat="40.0713554" lon="-105.2271173">
  <ele>1583.0</ele>
  <time>2026-08-28T17:52:52Z</time>
  <course>135.75</course>
  <speed>5.02</speed>
  <fix>3d</fix>
</trkpt>
<trkpt lat="40.0713479" lon="-105.227108">
  <ele>1583.01</ele>
  <time>2026-08-28T17:52:52Z</time>
  <course>136.71</course>
  <speed>5.000089999190014</speed>
  <fix>3d</fix>
</trkpt>
<trkpt lat="40.0713554" lon="-105.2271173">
  <ele>1583.0</ele>
  <time>2026-08-28T17:52:52Z</time>
  <course>135.75</course>
  <speed>5.02</speed>
  <fix>3d</fix>
</trkpt>
<trkpt lat="40.0713446" lon="-105.2271038">
  <ele>1583.01</ele>
  <time>2026-08-28T17:52:52Z</time>
  <course>136.73</course>
  <speed>5.000089999190014</speed>
  <fix>3d</fix>
</trkpt>
<trkpt lat="40.071349" lon="-105.227109">
  <ele>1583.0</ele>
  <time>2026-08-28T17:52:52Z</time>
  <course>135.78</course>
  <speed>5.02</speed>
  <fix>3d</fix>
</trkpt>
<trkpt lat="40.0713414" lon="-105.2270997">
  <ele>1583.01</ele>
  <time>2026-08-28T17:52:52Z</time>
  <course>136.76</course>
  <speed>5.000089999190014</speed>
  <fix>3d</fix>
</trkpt>
<trkpt lat="40.071349" lon="-105.227109">
  <ele>1583.0</ele>
  <time>2026-08-28T17:52:52Z</time>
  <course>135.78</course>
  <speed>5.02</speed>
  <fix>3d</fix>
</trkpt>
<trkpt lat="40.0713381" lon="-105.2270956">
  <ele>1583.02</ele>
  <time>2026-08-28T17:52:52Z</time>
  <course>136.76</course>
  <speed>4.993155315028765</speed>
  <fix>3d</fix>
</trkpt>
<trkpt lat="40.0713425" lon="-105.2271007">
  <ele>1583.0</ele>
  <time>2026-08-28T17:52:52Z</time>
  <course>135.81</course>
  <speed>5.01</speed>
  <fix>3d</fix>
</trkpt>
<trkpt lat="40.0713349" lon="-105.2270915">
  <ele>1583.02</ele>
  <time>2026-08-28T17:52:52Z</time>
  <course>136.76</course>
  <speed>4.979015967036057</speed>
  <fix>3d</fix>
</trkpt>
<trkpt lat="40.0713425" lon="-105.2271007">
  <ele>1583.0</ele>
  <time>2026-08-28T17:52:52Z</time>
  <course>135.81</course>
  <speed>5.01</speed>
  <fix>3d</fix>
</trkpt>
<trkpt lat="40.0713317" lon="-105.2270874">
  <ele>1583.02</ele>
  <time>2026-08-28T17:52:52Z</time>
  <course>136.76</course>
  <speed>4.9435311266340785</speed>
  <fix>3d</fix>
</trkpt>
<trkpt lat="40.0713425" lon="-105.2271007">
  <ele>1583.0</ele>
  <time>2026-08-28T17:52:52Z</time>
  <course>135.81</course>
  <speed>5.01</speed>
  <fix>3d</fix>
</trkpt>
<trkpt lat="40.0713285" lon="-105.2270833">
  <ele>1583.02</ele>
  <time>2026-08-28T17:52:52Z</time>
  <course>136.76</course>
  <speed>4.901112118693063</speed>
  <fix>3d</fix>
</trkpt>
<trkpt lat="40.071336" lon="-105.2270925">
  <ele>1583.0</ele>
  <time>2026-08-28T17:52:52Z</time>
  <course>135.82</course>
  <speed>4.99</speed>
  <fix>3d</fix>
</trkpt>
<trkpt lat="40.0713254" lon="-105.2270794">
  <ele>1583.02</ele>
  <time>2026-08-28T17:52:52Z</time>
  <course>136.76</course>
  <speed>4.830414060926868</speed>
  <fix>3d</fix>
</trkpt>
<trkpt lat="40.071336" lon="-105.2270925">
  <ele>1583.0</ele>
  <time>2026-08-28T17:52:52Z</time>
  <course>135.82</course>
  <speed>4.99</speed>
  <fix>3d</fix>
</trkpt>
<trkpt lat="40.0713223" lon="-105.2270754">
  <ele>1583.02</ele>
  <time>2026-08-28T17:52:52Z</time>
  <course>136.76</course>
  <speed>4.752515123595084</speed>
  <fix>3d</fix>
</trkpt>
<trkpt lat="40.0713297" lon="-105.2270844">
  <ele>1583.0</ele>
  <time>2026-08-28T17:52:52Z</time>
  <course>135.82</course>
  <speed>4.91</speed>
  <fix>3d</fix>
</trkpt>
<trkpt lat="40.0713193" lon="-105.2270716">
  <ele>1583.02</ele>
  <time>2026-08-28T17:52:52Z</time>
  <course>136.76</course>
  <speed>4.667676081306414</speed>
  <fix>3d</fix>
</trkpt>
<trkpt lat="40.0713297" lon="-105.2270844">
  <ele>1583.0</ele>
  <time>2026-08-28T17:52:52Z</time>
  <course>135.82</course>
  <speed>4.91</speed>
  <fix>3d</fix>
</trkpt>
<trkpt lat="40.0713164" lon="-105.2270679">
  <ele>1583.01</ele>
  <time>2026-08-28T17:52:52Z</time>
  <course>136.76</course>
  <speed>4.568697845119548</speed>
  <fix>3d</fix>
</trkpt>
<trkpt lat="40.0713234" lon="-105.2270766">
  <ele>1583.0</ele>
  <time>2026-08-28T17:52:52Z</time>
  <course>135.82</course>
  <speed>4.77</speed>
  <fix>3d</fix>
</trkpt>
<trkpt lat="40.0713135" lon="-105.2270642">
  <ele>1583.01</ele>
  <time>2026-08-28T17:52:52Z</time>
  <course>136.77</course>
  <speed>4.462521708630671</speed>
  <fix>3d</fix>
</trkpt>
<trkpt lat="40.0713234" lon="-105.2270766">
  <ele>1583.0</ele>
  <time>2026-08-28T17:52:52Z</time>
  <course>135.82</course>
  <speed>4.77</speed>
  <fix>3d</fix>
</trkpt>
<trkpt lat="40.0713106" lon="-105.2270606">
  <ele>1583.01</ele>
  <time>2026-08-28T17:52:52Z</time>
  <course>136.82</course>
  <speed>4.377682035050056</speed>
  <fix>3d</fix>
</trkpt>
<trkpt lat="40.0713174" lon="-105.2270689">
  <ele>1583.0</ele>
  <time>2026-08-28T17:52:52Z</time>
  <course>135.83</course>
  <speed>4.59</speed>
  <fix>3d</fix>
</trkpt>
<trkpt lat="40.0713078" lon="-105.227057">
  <ele>1583.0</ele>
  <time>2026-08-28T17:52:52Z</time>
  <course>136.86</course>
  <speed>4.306982702542466</speed>
  <fix>3d</fix>
</trkpt>
<trkpt lat="40.0713116" lon="-105.2270615">
  <ele>1583.0</ele>
  <time>2026-08-28T17:52:52Z</time>
  <course>135.87</course>
  <speed>4.42</speed>
  <fix>3d</fix>
</trkpt>
<trkpt lat="40.0713051" lon="-105.2270535">
  <ele>1583.0</ele>
  <time>2026-08-28T17:52:52Z</time>
  <course>136.88</course>
  <speed>4.243489130420862</speed>
  <fix>3d</fix>
</trkpt>
<trkpt lat="40.0713116" lon="-105.2270615">
  <ele>1583.0</ele>
  <time>2026-08-28T17:52:52Z</time>
  <course>135.87</course>
  <speed>4.42</speed>
  <fix>3d</fix>
</trkpt>
<trkpt lat="40.0713024" lon="-105.2270501">
  <ele>1583.0</ele>
  <time>2026-08-28T17:52:52Z</time>
  <course>136.94</course>
  <speed>4.1655851929830945</speed>
  <fix>3d</fix>
</trkpt>
<trkpt lat="40.0713059" lon="-105.2270543">
  <ele>1583.0</ele>
  <time>2026-08-28T17:52:52Z</time>
  <course>135.96</course>
  <speed>4.27</speed>
  <fix>3d</fix>
</trkpt>
<trkpt lat="40.0712997" lon="-105.2270467">
  <ele>1582.99</ele>
  <time>2026-08-28T17:52:52Z</time>
  <course>136.96</course>
  <speed>4.087957925419487</speed>
  <fix>3d</fix>
</trkpt>
<trkpt lat="40.0713059" lon="-105.2270543">
  <ele>1583.0</ele>
  <time>2026-08-28T17:52:52Z</time>
  <course>135.96</course>
  <speed>4.27</speed>
  <fix>3d</fix>
</trkpt>
<trkpt lat="40.0712971" lon="-105.2270434">
  <ele>1582.99</ele>
  <time>2026-08-28T17:52:52Z</time>
  <course>137.01</course>
  <speed>4.003123780249619</speed>
  <fix>3d</fix>
</trkpt>
<trkpt lat="40.0713005" lon="-105.2270475">
  <ele>1583.0</ele>
  <time>2026-08-28T17:52:52Z</time>
  <course>136.03</course>
  <speed>4.12</speed>
  <fix>3d</fix>
</trkpt>
<trkpt lat="40.0712945" lon="-105.2270402">
  <ele>1582.99</ele>
  <time>2026-08-28T17:52:52Z</time>
  <course>137.04</course>
  <speed>3.9041516363993853</speed>
  <fix>3d</fix>
</trkpt>
<trkpt lat="40.0713005" lon="-105.2270475">
  <ele>1583.0</ele>
  <time>2026-08-28T17:52:52Z</time>
  <course>136.03</course>
  <speed>4.12</speed>
  <fix>3d</fix>
</trkpt>
<trkpt lat="40.071292" lon="-105.227037">
  <ele>1582.99</ele>
  <time>2026-08-28T17:52:52Z</time>
  <course>137.07</course>
  <speed>3.805180679021694</speed>
  <fix>3d</fix>
</trkpt>
<trkpt lat="40.0712953" lon="-105.2270409">
  <ele>1583.0</ele>
  <time>2026-08-28T17:52:52Z</time>
  <course>136.1</course>
  <speed>3.94</speed>
  <fix>3d</fix>
</trkpt>
<trkpt lat="40.0712895" lon="-105.2270339">
  <ele>1582.99</ele>
  <time>2026-08-28T17:52:52Z</time>
  <course>137.13</course>
  <speed>3.7062110031675206</speed>
  <fix>3d</fix>
</trkpt>
<trkpt lat="40.0712953" lon="-105.2270409">
  <ele>1583.0</ele>
  <time>2026-08-28T17:52:52Z</time>
  <course>136.1</course>
  <speed>3.94</speed>
  <fix>3d</fix>
</trkpt>
<trkpt lat="40.0712871" lon="-105.2270309">
  <ele>1582.99</ele>
  <time>2026-08-28T17:52:52Z</time>
  <course>137.16</course>
  <speed>3.6072427143179597</speed>
  <fix>3d</fix>
</trkpt>
<trkpt lat="40.0712903" lon="-105.2270347">
  <ele>1583.0</ele>
  <time>2026-08-28T17:52:52Z</time>
  <course>136.17</course>
  <speed>3.75</speed>
  <fix>3d</fix>
</trkpt>
<trkpt lat="40.0712848" lon="-105.2270279">
  <ele>1583.0</ele>
  <time>2026-08-28T17:52:52Z</time>
  <course>137.21</course>
  <speed>3.4941379480495613</speed>
  <fix>3d</fix>
</trkpt>
<trkpt lat="40.0712903" lon="-105.2270347">
  <ele>1583.0</ele>
  <time>2026-08-28T17:52:52Z</time>
  <course>136.17</course>
  <speed>3.75</speed>
  <fix>3d</fix>
</trkpt>
<trkpt lat="40.0712826" lon="-105.2270251">
  <ele>1583.0</ele>
  <time>2026-08-28T17:52:52Z</time>
  <course>137.25</course>
  <speed>3.387934473982636</speed>
  <fix>3d</fix>
</trkpt>
<trkpt lat="40.0712855" lon="-105.2270288">
  <ele>1583.0</ele>
  <time>2026-08-28T17:52:52Z</time>
  <course>136.25</course>
  <speed>3.54</speed>
  <fix>3d</fix>
</trkpt>
<trkpt lat="40.0712804" lon="-105.2270224">
  <ele>1583.0</ele>
  <time>2026-08-28T17:52:52Z</time>
  <course>137.29</course>
  <speed>3.2748282397707515</speed>
  <fix>3d</fix>
</trkpt>
<trkpt lat="40.0712855" lon="-105.2270288">
  <ele>1583.0</ele>
  <time>2026-08-28T17:52:52Z</time>
  <course>136.25</course>
  <speed>3.54</speed>
  <fix>3d</fix>
</trkpt>
<trkpt lat="40.0712783" lon="-105.2270198">
  <ele>1583.01</ele>
  <time>2026-08-28T17:52:52Z</time>
  <course>137.33</course>
  <speed>3.161724213146998</speed>
  <fix>3d</fix>
</trkpt>
<trkpt lat="40.0712811" lon="-105.2270232">
  <ele>1583.0</ele>
  <time>2026-08-28T17:52:52Z</time>
  <course>136.34</course>
  <speed>3.32</speed>
  <fix>3d</fix>
</trkpt>
<trkpt lat="40.0712762" lon="-105.2270172">
  <ele>1583.01</ele>
  <time>2026-08-28T17:52:52Z</time>
  <course>137.37</course>
  <speed>3.0486226398162173</speed>
  <fix>3d</fix>
</trkpt>
<trkpt lat="40.0712811" lon="-105.2270232">
  <ele>1583.0</ele>
  <time>2026-08-28T17:52:52Z</time>
  <course>136.34</course>
  <speed>3.32</speed>
  <fix>3d</fix>
</trkpt>
<trkpt lat="40.0712743" lon="-105.2270148">
  <ele>1583.01</ele>
  <time>2026-08-28T17:52:52Z</time>
  <course>137.41</course>
  <speed>2.928275943281302</speed>
  <fix>3d</fix>
</trkpt>
<trkpt lat="40.0712811" lon="-105.2270232">
  <ele>1583.0</ele>
  <time>2026-08-28T17:52:52Z</time>
  <course>136.34</course>
  <speed>3.32</speed>
  <fix>3d</fix>
</trkpt>
<trkpt lat="40.0712724" lon="-105.2270125">
  <ele>1583.01</ele>
  <time>2026-08-28T17:52:52Z</time>
  <course>137.45</course>
  <speed>2.815173174069403</speed>
  <fix>3d</fix>
</trkpt>
<trkpt lat="40.0712769" lon="-105.227018">
  <ele>1583.0</ele>
  <time>2026-08-28T17:52:52Z</time>
  <course>136.41</course>
  <speed>3.09</speed>
  <fix>3d</fix>
</trkpt>
<trkpt lat="40.0712706" lon="-105.2270102">
  <ele>1583.01</ele>
  <time>2026-08-28T17:52:52Z</time>
  <course>137.48</course>
  <speed>2.7020732780589056</speed>
  <fix>3d</fix>
</trkpt>
<trkpt lat="40.0712769" lon="-105.227018">
  <ele>1583.0</ele>
  <time>2026-08-28T17:52:52Z</time>
  <course>136.41</course>
  <speed>3.09</speed>
  <fix>3d</fix>
</trkpt>
<trkpt lat="40.0712689" lon="-105.2270081">
  <ele>1583.01</ele>
  <time>2026-08-28T17:52:52Z</time>
  <course>137.52</course>
  <speed>2.5817242300447196</speed>
  <fix>3d</fix>
</trkpt>
<trkpt lat="40.0712731" lon="-105.2270131">
  <ele>1583.0</ele>
  <time>2026-08-28T17:52:52Z</time>
  <course>136.49</course>
  <speed>2.86</speed>
  <fix>3d</fix>
</trkpt>
<trkpt lat="40.0712673" lon="-105.2270061">
  <ele>1583.01</ele>
  <time>2026-08-28T17:52:52Z</time>
  <course>137.56</course>
  <speed>2.4686230980042296</speed>
  <fix>3d</fix>
</trkpt>
<trkpt lat="40.0712731" lon="-105.2270131">
  <ele>1583.0</ele>
  <time>2026-08-28T17:52:52Z</time>
  <course>136.49</course>
  <speed>2.86</speed>
  <fix>3d</fix>
</trkpt>
<trkpt lat="40.0712657" lon="-105.2270041">
  <ele>1583.01</ele>
  <time>2026-08-28T17:52:52Z</time>
  <course>137.59</course>
  <speed>2.355525419094432</speed>
  <fix>3d</fix>
</trkpt>
<trkpt lat="40.0712695" lon="-105.2270087">
  <ele>1583.0</ele>
  <time>2026-08-28T17:52:52Z</time>
  <course>136.57</course>
  <speed>2.63</speed>
  <fix>3d</fix>
</trkpt>
<trkpt lat="40.0712642" lon="-105.2270023">
  <ele>1583.0</ele>
  <time>2026-08-28T17:52:52Z</time>
  <course>137.62</course>
  <speed>2.2424317157942624</speed>
  <fix>3d</fix>
</trkpt>
<trkpt lat="40.0712661" lon="-105.2270047">
  <ele>1583.0</ele>
  <time>2026-08-28T17:52:52Z</time>
  <course>136.63</course>
  <speed>2.41</speed>
  <fix>3d</fix>
</trkpt>
<trkpt lat="40.0712628" lon="-105.2270005">
  <ele>1583.0</ele>
  <time>2026-08-28T17:52:52Z</time>
  <course>137.66</course>
  <speed>2.1293426215618756</speed>
  <fix>3d</fix>
</trkpt>
<trkpt lat="40.0712661" lon="-105.2270047">
  <ele>1583.0</ele>
  <time>2026-08-28T17:52:52Z</time>
  <course>136.63</course>
  <speed>2.41</speed>
  <fix>3d</fix>
</trkpt>
<trkpt lat="40.0712614" lon="-105.2269988">
  <ele>1583.0</ele>
  <time>2026-08-28T17:52:52Z</time>
  <course>137.68</course>
  <speed>2.023116407921205</speed>
  <fix>3d</fix>
</trkpt>
<trkpt lat="40.0712632" lon="-105.227001">
  <ele>1583.0</ele>
  <time>2026-08-28T17:52:52Z</time>
  <course>136.7</course>
  <speed>2.19</speed>
  <fix>3d</fix>
</trkpt>
<trkpt lat="40.0712601" lon="-105.2269972">
  <ele>1583.0</ele>
  <time>2026-08-28T17:52:52Z</time>
  <course>137.71</course>
  <speed>1.910026177831079</speed>
  <fix>3d</fix>
</trkpt>
<trkpt lat="40.0712632" lon="-105.227001">
  <ele>1583.0</ele>
  <time>2026-08-28T17:52:52Z</time>
  <course>136.7</course>
  <speed>2.19</speed>
  <fix>3d</fix>
</trkpt>
<trkpt lat="40.0712589" lon="-105.2269957">
  <ele>1583.01</ele>
  <time>2026-08-28T17:52:52Z</time>
  <course>137.74</course>
  <speed>1.8110770276274835</speed>
  <fix>3d</fix>
</trkpt>
<trkpt lat="40.0712604" lon="-105.2269976">
  <ele>1583.0</ele>
  <time>2026-08-28T17:52:52Z</time>
  <course>136.75</course>
  <speed>1.98</speed>
  <fix>3d</fix>
</trkpt>
<trkpt lat="40.0712577" lon="-105.2269943">
  <ele>1583.0</ele>
  <time>2026-08-28T17:52:52Z</time>
  <course>137.76</course>
  <speed>1.7048460341039597</speed>
  <fix>3d</fix>
</trkpt>
<trkpt lat="40.0712604" lon="-105.2269976">
  <ele>1583.0</ele>
  <time>2026-08-28T17:52:52Z</time>
  <course>136.75</course>
  <speed>1.98</speed>
  <fix>3d</fix>
</trkpt>
<trkpt lat="40.0712566" lon="-105.2269929">
  <ele>1583.0</ele>
  <time>2026-08-28T17:52:52Z</time>
  <course>137.78</course>
  <speed>1.6058953888718903</speed>
  <fix>3d</fix>
</trkpt>
<trkpt lat="40.071258" lon="-105.2269946">
  <ele>1583.0</ele>
  <time>2026-08-28T17:52:52Z</time>
  <course>136.8</course>
  <speed>1.77</speed>
  <fix>3d</fix>
</trkpt>
<trkpt lat="40.0712556" lon="-105.2269917">
  <ele>1583.0</ele>
  <time>2026-08-28T17:52:52Z</time>
  <course>137.83</course>
  <speed>1.4928161306738348</speed>
  <fix>3d</fix>
</trkpt>
<trkpt lat="40.071258" lon="-105.2269946">
  <ele>1583.0</ele>
  <time>2026-08-28T17:52:52Z</time>
  <course>136.8</course>
  <speed>1.77</speed>
  <fix>3d</fix>
</trkpt>
<trkpt lat="40.0712546" lon="-105.2269905">
  <ele>1583.0</ele>
  <time>2026-08-28T17:52:52Z</time>
  <course>137.87</course>
  <speed>1.3938794782907167</speed>
  <fix>3d</fix>
</trkpt>
<trkpt lat="40.0712558" lon="-105.2269919">
  <ele>1583.0</ele>
  <time>2026-08-28T17:52:52Z</time>
  <course>136.87</course>
  <speed>1.56</speed>
  <fix>3d</fix>
</trkpt>
<trkpt lat="40.0712537" lon="-105.2269894">
  <ele>1583.0</ele>
  <time>2026-08-28T17:52:52Z</time>
  <course>137.91</course>
  <speed>1.2876334882255898</speed>
  <fix>3d</fix>
</trkpt>
<trkpt lat="40.0712558" lon="-105.2269919">
  <ele>1583.0</ele>
  <time>2026-08-28T17:52:52Z</time>
  <course>136.87</course>
  <speed>1.56</speed>
  <fix>3d</fix>
</trkpt>
<trkpt lat="40.0712529" lon="-105.2269884">
  <ele>1583.0</ele>
  <time>2026-08-28T17:52:52Z</time>
  <course>137.95</course>
  <speed>1.1886967653695368</speed>
  <fix>3d</fix>
</trkpt>
<trkpt lat="40.0712539" lon="-105.2269896">
  <ele>1583.0</ele>
  <time>2026-08-28T17:52:52Z</time>
  <course>136.95</course>
  <speed>1.36</speed>
  <fix>3d</fix>
</trkpt>
<trkpt lat="40.0712521" lon="-105.2269874">
  <ele>1583.0</ele>
  <time>2026-08-28T17:52:52Z</time>
  <course>138.0</course>
  <speed>1.0897706180660223</speed>
  <fix>3d</fix>
</trkpt>
<trkpt lat="40.0712539" lon="-105.2269896">
  <ele>1583.0</ele>
  <time>2026-08-28T17:52:52Z</time>
  <course>136.95</course>
  <speed>1.36</speed>
  <fix>3d</fix>
</trkpt>
<trkpt lat="40.0712514" lon="-105.2269866">
  <ele>1583.0</ele>
  <time>2026-08-28T17:52:52Z</time>
  <course>138.06</course>
  <speed>0.9908582138732059</speed>
  <fix>3d</fix>
</trkpt>
<trkpt lat="40.0712522" lon="-105.2269875">
  <ele>1583.0</ele>
  <time>2026-08-28T17:52:52Z</time>
  <course>137.04</course>
  <speed>1.16</speed>
  <fix>3d</fix>
</trkpt>
<trkpt lat="40.0712508" lon="-105.2269858">
  <ele>1583.0</ele>
  <time>2026-08-28T17:52:52Z</time>
  <course>138.12</course>
  <speed>0.8987213138676527</speed>
  <fix>3d</fix>
</trkpt>
<trkpt lat="40.0712522" lon="-105.2269875">
  <ele>1583.0</ele>
  <time>2026-08-28T17:52:52Z</time>
  <course>137.04</course>
  <speed>1.16</speed>
  <fix>3d</fix>
</trkpt>
<trkpt lat="40.0712502" lon="-105.2269851">
  <ele>1582.99</ele>
  <time>2026-08-28T17:52:52Z</time>
  <course>138.18</course>
  <speed>0.792464510246358</speed>
  <fix>3d</fix>
</trkpt>
<trkpt lat="40.0712522" lon="-105.2269875">
  <ele>1583.0</ele>
  <time>2026-08-28T17:52:52Z</time>
  <course>137.04</course>
  <speed>1.16</speed>
  <fix>3d</fix>
</trkpt>
<trkpt lat="40.0712497" lon="-105.2269845">
  <ele>1582.99</ele>
  <time>2026-08-28T17:52:52Z</time>
  <course>138.24</course>
  <speed>0.6935416353759881</speed>
  <fix>3d</fix>
</trkpt>
<trkpt lat="40.0712508" lon="-105.2269858">
  <ele>1583.0</ele>
  <time>2026-08-28T17:52:52Z</time>
  <course>137.15</course>
  <speed>0.96</speed>
  <fix>3d</fix>
</trkpt>
<trkpt lat="40.0712492" lon="-105.2269839">
  <ele>1582.99</ele>
  <time>2026-08-28T17:52:52Z</time>
  <course>138.3</course>
  <speed>0.5946427498927402</speed>
  <fix>3d</fix>
</trkpt>
<trkpt lat="40.0712508" lon="-105.2269858">
  <ele>1583.0</ele>
  <time>2026-08-28T17:52:52Z</time>
  <course>137.15</course>
  <speed>0.96</speed>
  <fix>3d</fix>
</trkpt>
<trkpt lat="40.0712488" lon="-105.2269835">
  <ele>1582.99</ele>
  <time>2026-08-28T17:52:52Z</time>
  <course>138.36</course>
  <speed>0.4957822102496216</speed>
  <fix>3d</fix>
</trkpt>
<trkpt lat="40.0712496" lon="-105.2269844">
  <ele>1583.0</ele>
  <time>2026-08-28T17:52:52Z</time>
  <course>137.27</course>
  <speed>0.76</speed>
  <fix>3d</fix>
</trkpt>
<trkpt lat="40.0712485" lon="-105.2269831">
  <ele>1582.99</ele>
  <time>2026-08-28T17:52:52Z</time>
  <course>138.42</course>
  <speed>0.40360872141221127</speed>
  <fix>3d</fix>
</trkpt>
<trkpt lat="40.0712496" lon="-105.2269844">
  <ele>1583.0</ele>
  <time>2026-08-28T17:52:52Z</time>
  <course>137.27</course>
  <speed>0.76</speed>
  <fix>3d</fix>
</trkpt>
<trkpt lat="40.0712483" lon="-105.2269828">
  <ele>1582.99</ele>
  <time>2026-08-28T17:52:52Z</time>
  <course>138.47</course>
  <speed>0.3047950130825634</speed>
  <fix>3d</fix>
</trkpt>
<trkpt lat="40.0712487" lon="-105.2269833">
  <ele>1583.0</ele>
  <time>2026-08-28T17:52:52Z</time>
  <course>137.38</course>
  <speed>0.57</speed>
  <fix>3d</fix>
</trkpt>
<trkpt lat="40.0712481" lon="-105.2269826">
  <ele>1582.99</ele>
  <time>2026-08-28T17:52:52Z</time>
  <course>138.52</course>
  <speed>0.19849433241279207</speed>
  <fix>3d</fix>
</trkpt>
<trkpt lat="40.0712487" lon="-105.2269833">
  <ele>1583.0</ele>
  <time>2026-08-28T17:52:52Z</time>
  <course>137.38</course>
  <speed>0.57</speed>
  <fix>3d</fix>
</trkpt>
<trkpt lat="40.0712479" lon="-105.2269824">
  <ele>1583.0</ele>
  <time>2026-08-28T17:52:52Z</time>
  <course>138.55</course>
  <speed>0.1063014581273465</speed>
  <fix>3d</fix>
</trkpt>
<trkpt lat="40.0712481" lon="-105.2269825">
  <ele>1583.0</ele>
  <time>2026-08-28T17:52:52Z</time>
  <course>137.48</course>
  <speed>0.37</speed>
  <fix>3d</fix>
</trkpt>
<trkpt lat="40.0712479" lon="-105.2269823">
  <ele>1583.0</ele>
  <time>2026-08-28T17:52:52Z</time>
  <course>138.58</course>
  <speed>0.01</speed>
  <fix>3d</fix>
</trkpt>
<trkpt lat="40.0712477" lon="-105.2269821">
  <ele>1583.0</ele>
  <time>2026-08-28T17:52:52Z</time>
  <course>137.54</course>
  <speed>0.18</speed>
  <fix>3d</fix>
</trkpt>
<trkpt lat="40.0712479" lon="-105.2269823">
  <ele>1583.0</ele>
  <time>2026-08-28T17:52:52Z</time>
  <course>138.58</course>
  <speed>0.07071067811865475</speed>
  <fix>3d</fix>
</trkpt>
<trkpt lat="40.0712477" lon="-105.2269821">
  <ele>1583.0</ele>
  <time>2026-08-28T17:52:52Z</time>
  <course>137.54</course>
  <speed>0.18</speed>
  <fix>3d</fix>
</trkpt>
<trkpt lat="40.0712479" lon="-105.2269824">
  <ele>1583.0</ele>
  <time>2026-08-28T17:52:52Z</time>
  <course>138.62</course>
  <speed>0.1414213562373095</speed>
  <fix>3d</fix>
</trkpt>
<trkpt lat="40.0712477" lon="-105.226982">
  <ele>1583.0</ele>
  <time>2026-08-28T17:52:52Z</time>
  <course>322.94</course>
  <speed>0.0</speed>
  <fix>3d</fix>
</trkpt>
<trkpt lat="40.071248" lon="-105.2269825">
  <ele>1583.0</ele>
  <time>2026-08-28T17:52:52Z</time>
  <course>138.78</course>
  <speed>0.18384776310850234</speed>
  <fix>3d</fix>
</trkpt>
<trkpt lat="40.0712477" lon="-105.226982">
  <ele>1583.0</ele>
  <time>2026-08-28T17:52:52Z</time>
  <course>322.94</course>
  <speed>0.0</speed>
  <fix>3d</fix>
</trkpt>
<trkpt lat="40.0712481" lon="-105.2269826">
  <ele>1583.0</ele>
  <time>2026-08-28T17:52:52Z</time>
  <course>138.97</course>
  <speed>0.1979898987322333</speed>
  <fix>3d</fix>
</trkpt>
<trkpt lat="40.0712477" lon="-105.2269821">
  <ele>1583.0</ele>
  <time>2026-08-28T17:52:52Z</time>
  <course>317.94</course>
  <speed>0.11</speed>
  <fix>3d</fix>
</trkpt>
<trkpt lat="40.0712482" lon="-105.2269828">
  <ele>1583.0</ele>
  <time>2026-08-28T17:52:52Z</time>
  <course>139.18</course>
  <speed>0.18384776310850234</speed>
  <fix>3d</fix>
</trkpt>
<trkpt lat="40.0712477" lon="-105.2269821">
  <ele>1583.0</ele>
  <time>2026-08-28T17:52:52Z</time>
  <course>317.94</course>
  <speed>0.11</speed>
  <fix>3d</fix>
</trkpt>
<trkpt lat="40.0712483" lon="-105.2269829">
  <ele>1583.01</ele>
  <time>2026-08-28T17:52:52Z</time>
  <course>139.36</course>
  <speed>0.14866068747318506</speed>
  <fix>3d</fix>
</trkpt>
<trkpt lat="40.0712478" lon="-105.2269822">
  <ele>1583.0</ele>
  <time>2026-08-28T17:52:52Z</time>
  <course>318.22</course>
  <speed>0.11</speed>
  <fix>3d</fix>
</trkpt>
<trkpt lat="40.0712483" lon="-105.2269829">
  <ele>1583.01</ele>
  <time>2026-08-28T17:52:52Z</time>
  <course>139.47</course>
  <speed>0.08602325267042626</speed>
  <fix>3d</fix>
</trkpt>
<trkpt lat="40.0712478" lon="-105.2269822">
  <ele>1583.0</ele>
  <time>2026-08-28T17:52:52Z</time>
  <course>318.22</course>
  <speed>0.11</speed>
  <fix>3d</fix>
</trkpt>
<trkpt lat="40.0712482" lon="-105.2269829">
  <ele>1583.01</ele>
  <time>2026-08-28T17:52:52Z</time>
  <course>139.45</course>
  <speed>0.02</speed>
  <fix>3d</fix>
</trkpt>
<trkpt lat="40.0712479" lon="-105.2269823">
  <ele>1583.0</ele>
  <time>2026-08-28T17:52:52Z</time>
  <course>318.61</course>
  <speed>0.01</speed>
  <fix>3d</fix>
</trkpt>
<trkpt lat="40.0712482" lon="-105.2269828">
  <ele>1583.01</ele>
  <time>2026-08-28T17:52:52Z</time>
  <course>139.61</course>
  <speed>0.08944271909999159</speed>
  <fix>3d</fix>
</trkpt>
<trkpt lat="40.0712479" lon="-105.2269823">
  <ele>1583.0</ele>
  <time>2026-08-28T17:52:52Z</time>
  <course>318.61</course>
  <speed>0.01</speed>
  <fix>3d</fix>
</trkpt>
<trkpt lat="40.0712481" lon="-105.2269827">
  <ele>1583.01</ele>
  <time>2026-08-28T17:52:52Z</time>
  <course>140.06</course>
  <speed>0.2109502310972899</speed>
  <fix>3d</fix>
</trkpt>
<trkpt lat="40.0712478" lon="-105.2269823">
  <ele>1583.0</ele>
  <time>2026-08-28T17:52:52Z</time>
  <course>138.96</course>
  <speed>0.15</speed>
  <fix>3d</fix>
</trkpt>
<trkpt lat="40.0712478" lon="-105.2269825">
  <ele>1583.01</ele>
  <time>2026-08-28T17:52:52Z</time>
  <course>140.83</course>
  <speed>0.33837848631377265</speed>
  <fix>3d</fix>
</trkpt>
<trkpt lat="40.0712478" lon="-105.2269823">
  <ele>1583.0</ele>
  <time>2026-08-28T17:52:52Z</time>
  <course>138.96</course>
  <speed>0.15</speed>
  <fix>3d</fix>
</trkpt>
<trkpt lat="40.0712475" lon="-105.2269821">
  <ele>1583.01</ele>
  <time>2026-08-28T17:52:52Z</time>
  <course>141.94</course>
  <speed>0.4825971404805462</speed>
  <fix>3d</fix>
</trkpt>
<trkpt lat="40.0712475" lon="-105.2269819">
  <ele>1583.0</ele>
  <time>2026-08-28T17:52:52Z</time>
  <course>140.33</course>
  <speed>0.39</speed>
  <fix>3d</fix>
</trkpt>
<trkpt lat="40.071247" lon="-105.2269817">
  <ele>1583.01</ele>
  <time>2026-08-28T17:52:52Z</time>
  <course>143.45</course>
  <speed>0.6351377803280167</speed>
  <fix>3d</fix>
</trkpt>
<trkpt lat="40.0712475" lon="-105.2269819">
  <ele>1583.0</ele>
  <time>2026-08-28T17:52:52Z</time>
  <course>140.33</course>
  <speed>0.39</speed>
  <fix>3d</fix>
</trkpt>
<trkpt lat="40.0712464" lon="-105.2269811">
  <ele>1583.01</ele>
  <time>2026-08-28T17:52:52Z</time>
  <course>145.46</course>
  <speed>0.7907591289387687</speed>
  <fix>3d</fix>
</trkpt>
<trkpt lat="40.0712475" lon="-105.2269819">
  <ele>1583.0</ele>
  <time>2026-08-28T17:52:52Z</time>
  <course>140.33</course>
  <speed>0.39</speed>
  <fix>3d</fix>
</trkpt>
<trkpt lat="40.0712457" lon="-105.2269805">
  <ele>1583.01</ele>
  <time>2026-08-28T17:52:52Z</time>
  <course>148.12</course>
  <speed>0.9538343671728335</speed>
  <fix>3d</fix>
</trkpt>
<trkpt lat="40.0712468" lon="-105.2269812">
  <ele>1583.0</ele>
  <time>2026-08-28T17:52:52Z</time>
  <course>143.13</course>
  <speed>0.68</speed>
  <fix>3d</fix>
</trkpt>
<trkpt lat="40.0712448" lon="-105.2269799">
  <ele>1583.01</ele>
  <time>2026-08-28T17:52:52Z</time>
  <course>151.49</course>
  <speed>1.113597772986279</speed>
  <fix>3d</fix>
</trkpt>
<trkpt lat="40.0712468" lon="-105.2269812">
  <ele>1583.0</ele>
  <time>2026-08-28T17:52:52Z</time>
  <course>143.13</course>
  <speed>0.68</speed>
  <fix>3d</fix>
</trkpt>
<trkpt lat="40.0712438" lon="-105.2269792">
  <ele>1583.02</ele>
  <time>2026-08-28T17:52:52Z</time>
  <course>155.34</course>
  <speed>1.2869343417595163</speed>
  <fix>3d</fix>
</trkpt>
<trkpt lat="40.0712455" lon="-105.22698">
  <ele>1583.0</ele>
  <time>2026-08-28T17:52:52Z</time>
  <course>148.02</course>
  <speed>0.98</speed>
  <fix>3d</fix>
</trkpt>
<trkpt lat="40.0712426" lon="-105.2269786">
  <ele>1583.02</ele>
  <time>2026-08-28T17:52:52Z</time>
  <course>159.97</course>
  <speed>1.438923208513922</speed>
  <fix>3d</fix>
</trkpt>
<trkpt lat="40.0712455" lon="-105.22698">
  <ele>1583.0</ele>
  <time>2026-08-28T17:52:52Z</time>
  <course>148.02</course>
  <speed>0.98</speed>
  <fix>3d</fix>
</trkpt>
<trkpt lat="40.0712413" lon="-105.2269781">
  <ele>1583.02</ele>
  <time>2026-08-28T17:52:52Z</time>
  <course>165.61</course>
  <speed>1.5770859202973058</speed>
  <fix>3d</fix>
</trkpt>
<trkpt lat="40.0712437" lon="-105.2269787">
  <ele>1583.0</ele>
  <time>2026-08-28T17:52:52Z</time>
  <course>155.32</course>
  <speed>1.29</speed>
  <fix>3d</fix>
</trkpt>
<trkpt lat="40.0712398" lon="-105.2269777">
  <ele>1583.02</ele>
  <time>2026-08-28T17:52:52Z</time>
  <course>172.35</course>
  <speed>1.6885792844874061</speed>
  <fix>3d</fix>
</trkpt>
<trkpt lat="40.0712413" lon="-105.2269776">
  <ele>1583.0</ele>
  <time>2026-08-28T17:52:52Z</time>
  <course>165.73</course>
  <speed>1.56</speed>
  <fix>3d</fix>
</trkpt>
<trkpt lat="40.0712382" lon="-105.2269776">
  <ele>1583.02</ele>
  <time>2026-08-28T17:52:52Z</time>
  <course>180.08</course>
  <speed>1.7906981878585793</speed>
  <fix>3d</fix>
</trkpt>
<trkpt lat="40.0712413" lon="-105.2269776">
  <ele>1583.0</ele>
  <time>2026-08-28T17:52:52Z</time>
  <course>165.73</course>
  <speed>1.56</speed>
  <fix>3d</fix>
</trkpt>
<trkpt lat="40.0712365" lon="-105.2269777">
  <ele>1583.01</ele>
  <time>2026-08-28T17:52:52Z</time>
  <course>188.81</course>
  <speed>1.8792019582790989</speed>
  <fix>3d</fix>
</trkpt>
<trkpt lat="40.0712384" lon="-105.2269771">
  <ele>1583.0</ele>
  <time>2026-08-28T17:52:52Z</time>
  <course>180.07</course>
  <speed>1.75</speed>
  <fix>3d</fix>
</trkpt>
<trkpt lat="40.0712348" lon="-105.2269783">
  <ele>1583.01</ele>
  <time>2026-08-28T17:52:52Z</time>
  <course>198.48</course>
  <speed>1.945379140424817</speed>
  <fix>3d</fix>
</trkpt>
<trkpt lat="40.0712384" lon="-105.2269771">
  <ele>1583.0</ele>
  <time>2026-08-28T17:52:52Z</time>
  <course>180.07</course>
  <speed>1.75</speed>
  <fix>3d</fix>
</trkpt>
<trkpt lat="40.0712332" lon="-105.2269792">
  <ele>1583.01</ele>
  <time>2026-08-28T17:52:52Z</time>
  <course>209.07</course>
  <speed>1.989572818471342</speed>
  <fix>3d</fix>
</trkpt>
<trkpt lat="40.0712351" lon="-105.2269777">
  <ele>1583.0</ele>
  <time>2026-08-28T17:52:52Z</time>
  <course>198.36</course>
  <speed>1.88</speed>
  <fix>3d</fix>
</trkpt>
<trkpt lat="40.0712317" lon="-105.2269805">
  <ele>1583.0</ele>
  <time>2026-08-28T17:52:52Z</time>
  <course>219.7</course>
  <speed>2.0282997806044354</speed>
  <fix>3d</fix>
</trkpt>
<trkpt lat="40.0712351" lon="-105.2269777">
  <ele>1583.0</ele>
  <time>2026-08-28T17:52:52Z</time>
  <course>198.36</course>
  <speed>1.88</speed>
  <fix>3d</fix>
</trkpt>
<trkpt lat="40.0712304" lon="-105.2269822">
  <ele>1583.0</ele>
  <time>2026-08-28T17:52:52Z</time>
  <course>230.34</course>
  <speed>2.0489997559785116</speed>
  <fix>3d</fix>
</trkpt>
<trkpt lat="40.0712321" lon="-105.2269799">
  <ele>1583.0</ele>
  <time>2026-08-28T17:52:52Z</time>
  <course>219.01</course>
  <speed>1.95</speed>
  <fix>3d</fix>
</trkpt>
<trkpt lat="40.0712294" lon="-105.2269843">
  <ele>1583.0</ele>
  <time>2026-08-28T17:52:52Z</time>
  <course>241.1</course>
  <speed>2.0535335400231474</speed>
  <fix>3d</fix>
</trkpt>
<trkpt lat="40.0712321" lon="-105.2269799">
  <ele>1583.0</ele>
  <time>2026-08-28T17:52:52Z</time>
  <course>219.01</course>
  <speed>1.95</speed>
  <fix>3d</fix>
</trkpt>
<trkpt lat="40.0712287" lon="-105.2269865">
  <ele>1583.0</ele>
  <time>2026-08-28T17:52:52Z</time>
  <course>251.78</course>
  <speed>2.055723716845238</speed>
  <fix>3d</fix>
</trkpt>
<trkpt lat="40.0712298" lon="-105.2269834">
  <ele>1583.0</ele>
  <time>2026-08-28T17:52:52Z</time>
  <course>240.19</course>
  <speed>1.98</speed>
  <fix>3d</fix>
</trkpt>
<trkpt lat="40.0712283" lon="-105.2269888">
  <ele>1583.0</ele>
  <time>2026-08-28T17:52:52Z</time>
  <course>262.49</course>
  <speed>2.05526154053444</speed>
  <fix>3d</fix>
</trkpt>
<trkpt lat="40.0712298" lon="-105.2269834">
  <ele>1583.0</ele>
  <time>2026-08-28T17:52:52Z</time>
  <course>240.19</course>
  <speed>1.98</speed>
  <fix>3d</fix>
</trkpt>
<trkpt lat="40.0712283" lon="-105.2269912">
  <ele>1583.0</ele>
  <time>2026-08-28T17:52:52Z</time>
  <course>272.97</course>
  <speed>2.062934802653734</speed>
  <fix>3d</fix>
</trkpt>
<trkpt lat="40.0712286" lon="-105.2269877">
  <ele>1583.0</ele>
  <time>2026-08-28T17:52:52Z</time>
  <course>261.45</course>
  <speed>1.99</speed>
  <fix>3d</fix>
</trkpt>
<trkpt lat="40.0712286" lon="-105.2269936">
  <ele>1583.01</ele>
  <time>2026-08-28T17:52:52Z</time>
  <course>282.45</course>
  <speed>2.0695168518279816</speed>
  <fix>3d</fix>
</trkpt>
<trkpt lat="40.0712286" lon="-105.2269877">
  <ele>1583.0</ele>
  <time>2026-08-28T17:52:52Z</time>
  <course>261.45</course>
  <speed>1.99</speed>
  <fix>3d</fix>
</trkpt>
<trkpt lat="40.0712292" lon="-105.2269959">
  <ele>1583.01</ele>
  <time>2026-08-28T17:52:52Z</time>
  <course>290.94</course>
  <speed>2.0985947679340096</speed>
  <fix>3d</fix>
</trkpt>
<trkpt lat="40.0712287" lon="-105.2269924">
  <ele>1583.0</ele>
  <time>2026-08-28T17:52:52Z</time>
  <course>281.1</course>
  <speed>2.03</speed>
  <fix>3d</fix>
</trkpt>
<trkpt lat="40.07123" lon="-105.2269982">
  <ele>1583.01</ele>
  <time>2026-08-28T17:52:52Z</time>
  <course>298.42</course>
  <speed>2.1300938946440833</speed>
  <fix>3d</fix>
</trkpt>
<trkpt lat="40.0712287" lon="-105.2269924">
  <ele>1583.0</ele>
  <time>2026-08-28T17:52:52Z</time>
  <course>281.1</course>
  <speed>2.03</speed>
  <fix>3d</fix>
</trkpt>
<trkpt lat="40.071231" lon="-105.2270003">
  <ele>1583.01</ele>
  <time>2026-08-28T17:52:52Z</time>
  <course>304.86</course>
  <speed>2.183254451501244</speed>
  <fix>3d</fix>
</trkpt>
<trkpt lat="40.0712287" lon="-105.2269924">
  <ele>1583.0</ele>
  <time>2026-08-28T17:52:52Z</time>
  <course>281.1</course>
  <speed>2.03</speed>
  <fix>3d</fix>
</trkpt>
<trkpt lat="40.0712322" lon="-105.2270023">
  <ele>1583.01</ele>
  <time>2026-08-28T17:52:52Z</time>
  <course>310.25</course>
  <speed>2.234390297150433</speed>
  <fix>3d</fix>
</trkpt>
<trkpt lat="40.0712299" lon="-105.226997">
  <ele>1583.0</ele>
  <time>2026-08-28T17:52:52Z</time>
  <course>297.1</course>
  <speed>2.1</speed>
  <fix>3d</fix>
</trkpt>
<trkpt lat="40.0712336" lon="-105.2270042">
  <ele>1583.01</ele>
  <time>2026-08-28T17:52:52Z</time>
  <course>314.57</course>
  <speed>2.298107917396396</speed>
  <fix>3d</fix>
</trkpt>
<trkpt lat="40.0712299" lon="-105.226997">
  <ele>1583.0</ele>
  <time>2026-08-28T17:52:52Z</time>
  <course>297.1</course>
  <speed>2.1</speed>
  <fix>3d</fix>
</trkpt>
<trkpt lat="40.0712351" lon="-105.227006">
  <ele>1583.02</ele>
  <time>2026-08-28T17:52:52Z</time>
  <course>317.8</course>
  <speed>2.371855813492886</speed>
  <fix>3d</fix>
</trkpt>
<trkpt lat="40.071232" lon="-105.2270012">
  <ele>1583.0</ele>
  <time>2026-08-28T17:52:52Z</time>
  <course>308.92</course>
  <speed>2.22</speed>
  <fix>3d</fix>
</trkpt>
<trkpt lat="40.0712368" lon="-105.2270078">
  <ele>1583.02</ele>
  <time>2026-08-28T17:52:52Z</time>
  <course>319.93</course>
  <speed>2.455768718751829</speed>
  <fix>3d</fix>
</trkpt>
<trkpt lat="40.071232" lon="-105.2270012">
  <ele>1583.0</ele>
  <time>2026-08-28T17:52:52Z</time>
  <course>308.92</course>
  <speed>2.22</speed>
  <fix>3d</fix>
</trkpt>
<trkpt lat="40.0712385" lon="-105.2270096">
  <ele>1583.02</ele>
  <time>2026-08-28T17:52:52Z</time>
  <course>320.96</course>
  <speed>2.54566297847928</speed>
  <fix>3d</fix>
</trkpt>
<trkpt lat="40.0712348" lon="-105.2270051">
  <ele>1583.0</ele>
  <time>2026-08-28T17:52:52Z</time>
  <course>316.38</course>
  <speed>2.36</speed>
  <fix>3d</fix>
</trkpt>
<trkpt lat="40.0712403" lon="-105.2270115">
  <ele>1583.02</ele>
  <time>2026-08-28T17:52:52Z</time>
  <course>320.91</course>
  <speed>2.6378210705049723</speed>
  <fix>3d</fix>
</trkpt>
<trkpt lat="40.0712348" lon="-105.2270051">
  <ele>1583.0</ele>
  <time>2026-08-28T17:52:52Z</time>
  <course>316.38</course>
  <speed>2.36</speed>
  <fix>3d</fix>
</trkpt>
<trkpt lat="40.0712422" lon="-105.2270135">
  <ele>1583.02</ele>
  <time>2026-08-28T17:52:52Z</time>
  <course>319.74</course>
  <speed>2.7387953556262654</speed>
  <fix>3d</fix>
</trkpt>
<trkpt lat="40.0712381" lon="-105.227009">
  <ele>1583.0</ele>
  <time>2026-08-28T17:52:52Z</time>
  <course>319.46</course>
  <speed>2.54</speed>
  <fix>3d</fix>
</trkpt>
<trkpt lat="40.0712441" lon="-105.2270157">
  <ele>1583.02</ele>
  <time>2026-08-28T17:52:52Z</time>
  <course>318.44</course>
  <speed>2.8401584462842915</speed>
  <fix>3d</fix>
</trkpt>
<trkpt lat="40.0712417" lon="-105.227013">
  <ele>1583.0</ele>
  <time>2026-08-28T17:52:52Z</time>
  <course>318.65</course>
  <speed>2.74</speed>
  <fix>3d</fix>
</trkpt>
<trkpt lat="40.071246" lon="-105.227018">
  <ele>1583.02</ele>
  <time>2026-08-28T17:52:52Z</time>
  <course>317.44</course>
  <speed>2.9578708558691336</speed>
  <fix>3d</fix>
</trkpt>
<trkpt lat="40.0712417" lon="-105.227013">
  <ele>1583.0</ele>
  <time>2026-08-28T17:52:52Z</time>
  <course>318.65</course>
  <speed>2.74</speed>
  <fix>3d</fix>
</trkpt>
<trkpt lat="40.071248" lon="-105.2270204">
  <ele>1583.02</ele>
  <time>2026-08-28T17:52:52Z</time>
  <course>316.62</course>
  <speed>3.0696579614022146</speed>
  <fix>3d</fix>
</trkpt>
<trkpt lat="40.0712455" lon="-105.2270176">
  <ele>1583.0</ele>
  <time>2026-08-28T17:52:52Z</time>
  <course>316.54</course>
  <speed>2.95</speed>
  <fix>3d</fix>
</trkpt>
<trkpt lat="40.07125" lon="-105.2270231">
  <ele>1583.02</ele>
  <time>2026-08-28T17:52:52Z</time>
  <course>315.95</course>
  <speed>3.1892475601621144</speed>
  <fix>3d</fix>
</trkpt>
<trkpt lat="40.0712455" lon="-105.2270176">
  <ele>1583.0</ele>
  <time>2026-08-28T17:52:52Z</time>
  <course>316.54</course>
  <speed>2.95</speed>
  <fix>3d</fix>
</trkpt>
<trkpt lat="40.0712521" lon="-105.2270258">
  <ele>1583.02</ele>
  <time>2026-08-28T17:52:52Z</time>
  <course>315.4</course>
  <speed>3.3092597359530425</speed>
  <fix>3d</fix>
</trkpt>
<trkpt lat="40.0712494" lon="-105.2270226">
  <ele>1583.0</ele>
  <time>2026-08-28T17:52:52Z</time>
  <course>315.04</course>
  <speed>3.18</speed>
  <fix>3d</fix>
</trkpt>
<trkpt lat="40.0712542" lon="-105.2270287">
  <ele>1583.02</ele>
  <time>2026-08-28T17:52:52Z</time>
  <course>314.96</course>
  <speed>3.4296501279285034</speed>
  <fix>3d</fix>
</trkpt>
<trkpt lat="40.0712494" lon="-105.2270226">
  <ele>1583.0</ele>
  <time>2026-08-28T17:52:52Z</time>
  <course>315.04</course>
  <speed>3.18</speed>
  <fix>3d</fix>
</trkpt>
<trkpt lat="40.0712564" lon="-105.2270317">
  <ele>1583.01</ele>
  <time>2026-08-28T17:52:52Z</time>
  <course>314.71</course>
  <speed>3.5570915085220958</speed>
  <fix>3d</fix>
</trkpt>
<trkpt lat="40.0712536" lon="-105.2270281">
  <ele>1583.0</ele>
  <time>2026-08-28T17:52:52Z</time>
  <course>314.11</course>
  <speed>3.42</speed>
  <fix>3d</fix>
</trkpt>
<trkpt lat="40.0712587" lon="-105.2270348">
  <ele>1583.01</ele>
  <time>2026-08-28T17:52:52Z</time>
  <course>314.64</course>
  <speed>3.6704359414107746</speed>
  <fix>3d</fix>
</trkpt>
<trkpt lat="40.0712536" lon="-105.2270281">
  <ele>1583.0</ele>
  <time>2026-08-28T17:52:52Z</time>
  <course>314.11</course>
  <speed>3.42</speed>
  <fix>3d</fix>
</trkpt>
<trkpt lat="40.071261" lon="-105.227038">
  <ele>1583.01</ele>
  <time>2026-08-28T17:52:52Z</time>
  <course>314.68</course>
  <speed>3.790514476954283</speed>
  <fix>3d</fix>
</trkpt>
<trkpt lat="40.071258" lon="-105.2270341">
  <ele>1583.0</ele>
  <time>2026-08-28T17:52:52Z</time>
  <course>313.78</course>
  <speed>3.65</speed>
  <fix>3d</fix>
</trkpt>
<trkpt lat="40.0712635" lon="-105.2270413">
  <ele>1583.01</ele>
  <time>2026-08-28T17:52:52Z</time>
  <course>314.85</course>
  <speed>3.910613762569758</speed>
  <fix>3d</fix>
</trkpt>
<trkpt lat="40.071258" lon="-105.2270341">
  <ele>1583.0</ele>
  <time>2026-08-28T17:52:52Z</time>
  <course>313.78</course>
  <speed>3.65</speed>
  <fix>3d</fix>
</trkpt>
<trkpt lat="40.071266" lon="-105.2270447">
  <ele>1583.0</ele>
  <time>2026-08-28T17:52:52Z</time>
  <course>315.09</course>
  <speed>4.0307319434564235</speed>
  <fix>3d</fix>
</trkpt>
<trkpt lat="40.0712627" lon="-105.2270404">
  <ele>1583.0</ele>
  <time>2026-08-28T17:52:52Z</time>
  <course>313.98</course>
  <speed>3.89</speed>
  <fix>3d</fix>
</trkpt>
<trkpt lat="40.0712686" lon="-105.2270482">
  <ele>1583.0</ele>
  <time>2026-08-28T17:52:52Z</time>
  <course>315.3</course>
  <speed>4.1437422699777064</speed>
  <fix>3d</fix>
</trkpt>
<trkpt lat="40.0712627" lon="-105.2270404">
  <ele>1583.0</ele>
  <time>2026-08-28T17:52:52Z</time>
  <course>313.98</course>
  <speed>3.89</speed>
  <fix>3d</fix>
</trkpt>
<trkpt lat="40.0712712" lon="-105.2270517">
  <ele>1583.0</ele>
  <time>2026-08-28T17:52:52Z</time>
  <course>315.47</course>
  <speed>4.263906659391127</speed>
  <fix>3d</fix>
</trkpt>
<trkpt lat="40.0712627" lon="-105.2270404">
  <ele>1583.0</ele>
  <time>2026-08-28T17:52:52Z</time>
  <course>313.98</course>
  <speed>3.89</speed>
  <fix>3d</fix>
</trkpt>
<trkpt lat="40.071274" lon="-105.2270554">
  <ele>1583.0</ele>
  <time>2026-08-28T17:52:52Z</time>
  <course>315.62</course>
  <speed>4.376996687227442</speed>
  <fix>3d</fix>
</trkpt>
<trkpt lat="40.0712678" lon="-105.2270473">
  <ele>1583.0</ele>
  <time>2026-08-28T17:52:52Z</time>
  <course>314.37</course>
  <speed>4.12</speed>
  <fix>3d</fix>
</trkpt>
<trkpt lat="40.0712768" lon="-105.227059">
  <ele>1583.0</ele>
  <time>2026-08-28T17:52:52Z</time>
  <course>315.74</course>
  <speed>4.4830569927227115</speed>
  <fix>3d</fix>
</trkpt>
<trkpt lat="40.0712678" lon="-105.2270473">
  <ele>1583.0</ele>
  <time>2026-08-28T17:52:52Z</time>
  <course>314.37</course>
  <speed>4.12</speed>
  <fix>3d</fix>
</trkpt>
<trkpt lat="40.0712796" lon="-105.2270628">
  <ele>1583.0</ele>
  <time>2026-08-28T17:52:52Z</time>
  <course>315.86</course>
  <speed>4.589128457561414</speed>
  <fix>3d</fix>
</trkpt>
<trkpt lat="40.0712731" lon="-105.2270544">
  <ele>1583.0</ele>
  <time>2026-08-28T17:52:52Z</time>
  <course>314.69</course>
  <speed>4.34</speed>
  <fix>3d</fix>
</trkpt>
<trkpt lat="40.0712826" lon="-105.2270666">
  <ele>1583.0</ele>
  <time>2026-08-28T17:52:52Z</time>
  <course>315.96</course>
  <speed>4.695210325427393</speed>
  <fix>3d</fix>
</trkpt>
<trkpt lat="40.0712731" lon="-105.2270544">
  <ele>1583.0</ele>
  <time>2026-08-28T17:52:52Z</time>
  <course>314.69</course>
  <speed>4.34</speed>
  <fix>3d</fix>
</trkpt>
<trkpt lat="40.0712856" lon="-105.2270706">
  <ele>1582.99</ele>
  <time>2026-08-28T17:52:52Z</time>
  <course>316.03</course>
  <speed>4.80130190677487</speed>
  <fix>3d</fix>
</trkpt>
<trkpt lat="40.0712788" lon="-105.2270618">
  <ele>1583.0</ele>
  <time>2026-08-28T17:52:52Z</time>
  <course>314.94</course>
  <speed>4.56</speed>
  <fix>3d</fix>
</trkpt>
<trkpt lat="40.0712886" lon="-105.2270746">
  <ele>1582.99</ele>
  <time>2026-08-28T17:52:52Z</time>
  <course>316.1</course>
  <speed>4.900295909432409</speed>
  <fix>3d</fix>
</trkpt>
<trkpt lat="40.0712788" lon="-105.2270618">
  <ele>1583.0</ele>
  <time>2026-08-28T17:52:52Z</time>
  <course>314.94</course>
  <speed>4.56</speed>
  <fix>3d</fix>
</trkpt>
<trkpt lat="40.0712918" lon="-105.2270787">
  <ele>1582.99</ele>
  <time>2026-08-28T17:52:52Z</time>
  <course>316.16</course>
  <speed>5.006395909234506</speed>
  <fix>3d</fix>
</trkpt>
<trkpt lat="40.0712847" lon="-105.2270695">
  <ele>1583.0</ele>
  <time>2026-08-28T17:52:52Z</time>
  <course>315.11</course>
  <speed>4.77</speed>
  <fix>3d</fix>
</trkpt>
<trkpt lat="40.071295" lon="-105.2270828">
  <ele>1582.99</ele>
  <time>2026-08-28T17:52:52Z</time>
  <course>316.22</course>
  <speed>5.112504278726816</speed>
  <fix>3d</fix>
</trkpt>
<trkpt lat="40.0712908" lon="-105.2270776">
  <ele>1583.0</ele>
  <time>2026-08-28T17:52:52Z</time>
  <course>315.24</course>
  <speed>4.99</speed>
  <fix>3d</fix>
</trkpt>
<trkpt lat="40.0712983" lon="-105.2270871">
  <ele>1582.99</ele>
  <time>2026-08-28T17:52:52Z</time>
  <course>316.22</course>
  <speed>5.197355096585185</speed>
  <fix>3d</fix>
</trkpt>
<trkpt lat="40.0712908" lon="-105.2270776">
  <ele>1583.0</ele>
  <time>2026-08-28T17:52:52Z</time>
  <course>315.24</course>
  <speed>4.99</speed>
  <fix>3d</fix>
</trkpt>
<trkpt lat="40.0713016" lon="-105.2270914">
  <ele>1582.99</ele>
  <time>2026-08-28T17:52:52Z</time>
  <course>316.22</course>
  <speed>5.275092416252061</speed>
  <fix>3d</fix>
</trkpt>
<trkpt lat="40.0712973" lon="-105.227086">
  <ele>1583.0</ele>
  <time>2026-08-28T17:52:52Z</time>
  <course>315.3</course>
  <speed>5.17</speed>
  <fix>3d</fix>
</trkpt>
<trkpt lat="40.071305" lon="-105.2270958">
  <ele>1582.99</ele>
  <time>2026-08-28T17:52:52Z</time>
  <course>316.22</course>
  <speed>5.331660154210881</speed>
  <fix>3d</fix>
</trkpt>
<trkpt lat="40.0712973" lon="-105.227086">
  <ele>1583.0</ele>
  <time>2026-08-28T17:52:52Z</time>
  <course>315.3</course>
  <speed>5.17</speed>
  <fix>3d</fix>
</trkpt>
<trkpt lat="40.0713085" lon="-105.2271003">
  <ele>1582.99</ele>
  <time>2026-08-28T17:52:52Z</time>
  <course>316.22</course>
  <speed>5.374085968795066</speed>
  <fix>3d</fix>
</trkpt>
<trkpt lat="40.071304" lon="-105.2270947">
  <ele>1583.0</ele>
  <time>2026-08-28T17:52:52Z</time>
  <course>315.3</course>
  <speed>5.3</speed>
  <fix>3d</fix>
</trkpt>
<trkpt lat="40.0713119" lon="-105.2271048">
  <ele>1582.99</ele>
  <time>2026-08-28T17:52:52Z</time>
  <course>316.22</course>
  <speed>5.402369850352714</speed>
  <fix>3d</fix>
</trkpt>
<trkpt lat="40.071304" lon="-105.2270947">
  <ele>1583.0</ele>
  <time>2026-08-28T17:52:52Z</time>
  <course>315.3</course>
  <speed>5.3</speed>
  <fix>3d</fix>
</trkpt>
<trkpt lat="40.0713154" lon="-105.2271093">
  <ele>1582.99</ele>
  <time>2026-08-28T17:52:52Z</time>
  <course>316.22</course>
  <speed>5.423550497598414</speed>
  <fix>3d</fix>
</trkpt>
<trkpt lat="40.0713109" lon="-105.2271035">
  <ele>1583.0</ele>
  <time>2026-08-28T17:52:52Z</time>
  <course>315.3</course>
  <speed>5.37</speed>
  <fix>3d</fix>
</trkpt>
<trkpt lat="40.0713189" lon="-105.2271139">
  <ele>1582.99</ele>
  <time>2026-08-28T17:52:52Z</time>
  <course>316.22</course>
  <speed>5.423550497598414</speed>
  <fix>3d</fix>
</trkpt>
<trkpt lat="40.0713109" lon="-105.2271035">
  <ele>1583.0</ele>
  <time>2026-08-28T17:52:52Z</time>
  <course>315.3</course>
  <speed>5.37</speed>
  <fix>3d</fix>
</trkpt>
<trkpt lat="40.0713224" lon="-105.2271184">
  <ele>1582.99</ele>
  <time>2026-08-28T17:52:52Z</time>
  <course>316.22</course>
  <speed>5.423550497598414</speed>
  <fix>3d</fix>
</trkpt>
<trkpt lat="40.0713178" lon="-105.2271124">
  <ele>1583.0</ele>
  <time>2026-08-28T17:52:52Z</time>
  <course>315.3</course>
  <speed>5.4</speed>
  <fix>3d</fix>
</trkpt>
<trkpt lat="40.0713259" lon="-105.2271229">
  <ele>1582.99</ele>
  <time>2026-08-28T17:52:52Z</time>
  <course>316.22</course>
  <speed>5.416456406175536</speed>
  <fix>3d</fix>
</trkpt>
<trkpt lat="40.0713178" lon="-105.2271124">
  <ele>1583.0</ele>
  <time>2026-08-28T17:52:52Z</time>
  <course>315.3</course>
  <speed>5.4</speed>
  <fix>3d</fix>
</trkpt>
<trkpt lat="40.0713293" lon="-105.2271274">
  <ele>1582.99</ele>
  <time>2026-08-28T17:52:52Z</time>
  <course>316.22</course>
  <speed>5.395266443837598</speed>
  <fix>3d</fix>
</trkpt>
<trkpt lat="40.0713247" lon="-105.2271213">
  <ele>1583.0</ele>
  <time>2026-08-28T17:52:52Z</time>
  <course>315.3</course>
  <speed>5.38</speed>
  <fix>3d</fix>
</trkpt>
<trkpt lat="40.0713328" lon="-105.2271318">
  <ele>1582.99</ele>
  <time>2026-08-28T17:52:52Z</time>
  <course>316.22</course>
  <speed>5.374030145058734</speed>
  <fix>3d</fix>
</trkpt>
<trkpt lat="40.0713247" lon="-105.2271213">
  <ele>1583.0</ele>
  <time>2026-08-28T17:52:52Z</time>
  <course>315.3</course>
  <speed>5.38</speed>
  <fix>3d</fix>
</trkpt>
<trkpt lat="40.0713362" lon="-105.2271363">
  <ele>1582.99</ele>
  <time>2026-08-28T17:52:52Z</time>
  <course>316.22</course>
  <speed>5.345745972266172</speed>
  <fix>3d</fix>
</trkpt>
<trkpt lat="40.0713315" lon="-105.2271302">
  <ele>1583.0</ele>
  <time>2026-08-28T17:52:52Z</time>
  <course>315.3</course>
  <speed>5.34</speed>
  <fix>3d</fix>
</trkpt>
<trkpt lat="40.0713396" lon="-105.2271407">
  <ele>1582.99</ele>
  <time>2026-08-28T17:52:52Z</time>
  <course>316.22</course>
  <speed>5.310376634477069</speed>
  <fix>3d</fix>
</trkpt>
<trkpt lat="40.0713315" lon="-105.2271302">
  <ele>1583.0</ele>
  <time>2026-08-28T17:52:52Z</time>
  <course>315.3</course>
  <speed>5.34</speed>
  <fix>3d</fix>
</trkpt>
<trkpt lat="40.071343" lon="-105.2271451">
  <ele>1582.99</ele>
  <time>2026-08-28T17:52:52Z</time>
  <course>316.22</course>
  <speed>5.282092388438506</speed>
  <fix>3d</fix>
</trkpt>
<trkpt lat="40.0713315" lon="-105.2271302">
  <ele>1583.0</ele>
  <time>2026-08-28T17:52:52Z</time>
  <course>315.3</course>
  <speed>5.34</speed>
  <fix>3d</fix>
</trkpt>
<trkpt lat="40.0713463" lon="-105.2271494">
  <ele>1582.98</ele>
  <time>2026-08-28T17:52:52Z</time>
  <course>316.22</course>
  <speed>5.239666019890962</speed>
  <fix>3d</fix>
</trkpt>
<trkpt lat="40.0713384" lon="-105.2271389">
  <ele>1583.0</ele>
  <time>2026-08-28T17:52:52Z</time>
  <course>315.3</course>
  <speed>5.29</speed>
  <fix>3d</fix>
</trkpt>
<trkpt lat="40.0713496" lon="-105.2271537">
  <ele>1582.98</ele>
  <time>2026-08-28T17:52:52Z</time>
  <course>316.26</course>
  <speed>5.2043251243557025</speed>
  <fix>3d</fix>
</trkpt>
<trkpt lat="40.0713384" lon="-105.2271389">
  <ele>1583.0</ele>
  <time>2026-08-28T17:52:52Z</time>
  <course>315.3</course>
  <speed>5.29</speed>
  <fix>3d</fix>
</trkpt>
<trkpt lat="40.0713529" lon="-105.2271579">
  <ele>1582.98</ele>
  <time>2026-08-28T17:52:52Z</time>
  <course>316.43</course>
  <speed>5.1689940994355945</speed>
  <fix>3d</fix>
</trkpt>
<trkpt lat="40.0713451" lon="-105.2271476">
  <ele>1583.0</ele>
  <time>2026-08-28T17:52:52Z</time>
  <course>315.32</course>
  <speed>5.22</speed>
  <fix>3d</fix>
</trkpt>
<trkpt lat="40.0713561" lon="-105.2271621">
  <ele>1582.98</ele>
  <time>2026-08-28T17:52:52Z</time>
  <course>316.68</course>
  <speed>5.1337705441517345</speed>
  <fix>3d</fix>
</trkpt>
<trkpt lat="40.0713451" lon="-105.2271476">
  <ele>1583.0</ele>
  <time>2026-08-28T17:52:52Z</time>
  <course>315.32</course>
  <speed>5.22</speed>
  <fix>3d</fix>
</trkpt>
<trkpt lat="40.0713594" lon="-105.2271662">
  <ele>1582.99</ele>
  <time>2026-08-28T17:52:52Z</time>
  <course>317.05</course>
  <speed>5.0988331998605325</speed>
  <fix>3d</fix>
</trkpt>
<trkpt lat="40.0713517" lon="-105.2271562">
  <ele>1583.0</ele>
  <time>2026-08-28T17:52:52Z</time>
  <course>315.55</course>
  <speed>5.16</speed>
  <fix>3d</fix>
</trkpt>
<trkpt lat="40.0713626" lon="-105.2271703">
  <ele>1582.99</ele>
  <time>2026-08-28T17:52:52Z</time>
  <course>317.51</course>
  <speed>5.064148497032843</speed>
  <fix>3d</fix>
</trkpt>
<trkpt lat="40.0713583" lon="-105.2271646">
  <ele>1583.0</ele>
  <time>2026-08-28T17:52:52Z</time>
  <course>316.18</course>
  <speed>5.1</speed>
  <fix>3d</fix>
</trkpt>
<trkpt lat="40.0713659" lon="-105.2271743">
  <ele>1583.0</ele>
  <time>2026-08-28T17:52:52Z</time>
  <course>318.08</course>
  <speed>5.037459677257973</speed>
  <fix>3d</fix>
</trkpt>
<trkpt lat="40.0713583" lon="-105.2271646">
  <ele>1583.0</ele>
  <time>2026-08-28T17:52:52Z</time>
  <course>316.18</course>
  <speed>5.1</speed>
  <fix>3d</fix>
</trkpt>
<trkpt lat="40.0713693" lon="-105.2271783">
  <ele>1583.0</ele>
  <time>2026-08-28T17:52:52Z</time>
  <course>318.62</course>
  <speed>5.010808318026145</speed>
  <fix>3d</fix>
</trkpt>
<trkpt lat="40.071365" lon="-105.2271728">
  <ele>1583.0</ele>
  <time>2026-08-28T17:52:52Z</time>
  <course>317.15</course>
  <speed>5.05</speed>
  <fix>3d</fix>
</trkpt>
<trkpt lat="40.0713726" lon="-105.2271822">
  <ele>1582.99</ele>
  <time>2026-08-28T17:52:52Z</time>
  <course>319.09</course>
  <speed>4.998659820391862</speed>
  <fix>3d</fix>
</trkpt>
<trkpt lat="40.071365" lon="-105.2271728">
  <ele>1583.0</ele>
  <time>2026-08-28T17:52:52Z</time>
  <course>317.15</course>
  <speed>5.05</speed>
  <fix>3d</fix>
</trkpt>
<trkpt lat="40.0713759" lon="-105.2271861">
  <ele>1583.0</ele>
  <time>2026-08-28T17:52:52Z</time>
  <course>319.49</course>
  <speed>4.979407595286813</speed>
  <fix>3d</fix>
</trkpt>
<trkpt lat="40.0713716" lon="-105.2271807">
  <ele>1583.0</ele>
  <time>2026-08-28T17:52:52Z</time>
  <course>318.14</course>
  <speed>5.01</speed>
  <fix>3d</fix>
</trkpt>
<trkpt lat="40.0713793" lon="-105.2271899">
  <ele>1582.99</ele>
  <time>2026-08-28T17:52:52Z</time>
  <course>319.85</course>
  <speed>4.960423369028091</speed>
  <fix>3d</fix>
</trkpt>
<trkpt lat="40.0713716" lon="-105.2271807">
  <ele>1583.0</ele>
  <time>2026-08-28T17:52:52Z</time>
  <course>318.14</course>
  <speed>5.01</speed>
  <fix>3d</fix>
</trkpt>
<trkpt lat="40.0713827" lon="-105.2271937">
  <ele>1582.99</ele>
  <time>2026-08-28T17:52:52Z</time>
  <course>320.13</course>
  <speed>4.948252216692273</speed>
  <fix>3d</fix>
</trkpt>
<trkpt lat="40.0713784" lon="-105.2271885">
  <ele>1583.0</ele>
  <time>2026-08-28T17:52:52Z</time>
  <course>318.91</course>
  <speed>4.98</speed>
  <fix>3d</fix>
</trkpt>
<trkpt lat="40.0713861" lon="-105.2271976">
  <ele>1582.99</ele>
  <time>2026-08-28T17:52:52Z</time>
  <course>320.36</course>
  <speed>4.935179834615958</speed>
  <fix>3d</fix>
</trkpt>
<trkpt lat="40.0713784" lon="-105.2271885">
  <ele>1583.0</ele>
  <time>2026-08-28T17:52:52Z</time>
  <course>318.91</course>
  <speed>4.98</speed>
  <fix>3d</fix>
</trkpt>
<trkpt lat="40.0713895" lon="-105.2272013">
  <ele>1582.99</ele>
  <time>2026-08-28T17:52:52Z</time>
  <course>320.56</course>
  <speed>4.929756586282937</speed>
  <fix>3d</fix>
</trkpt>
<trkpt lat="40.0713851" lon="-105.2271961">
  <ele>1583.0</ele>
  <time>2026-08-28T17:52:52Z</time>
  <course>319.45</course>
  <speed>4.96</speed>
  <fix>3d</fix>
</trkpt>
<trkpt lat="40.0713929" lon="-105.2272051">
  <ele>1583.0</ele>
  <time>2026-08-28T17:52:52Z</time>
  <course>320.76</course>
  <speed>4.930892414157907</speed>
  <fix>3d</fix>
</trkpt>
<trkpt lat="40.0713851" lon="-105.2271961">
  <ele>1583.0</ele>
  <time>2026-08-28T17:52:52Z</time>
  <course>319.45</course>
  <speed>4.96</speed>
  <fix>3d</fix>
</trkpt>
<trkpt lat="40.0713963" lon="-105.2272088">
  <ele>1583.0</ele>
  <time>2026-08-28T17:52:52Z</time>
  <course>320.9</course>
  <speed>4.925626863659081</speed>
  <fix>3d</fix>
</trkpt>
<trkpt lat="40.071392" lon="-105.2272036">
  <ele>1583.0</ele>
  <time>2026-08-28T17:52:52Z</time>
  <course>319.84</course>
  <speed>4.95</speed>
  <fix>3d</fix>
</trkpt>
<trkpt lat="40.0713998" lon="-105.2272125">
  <ele>1583.0</ele>
  <time>2026-08-28T17:52:52Z</time>
  <course>321.03</course>
  <speed>4.919197088956692</speed>
  <fix>3d</fix>
</trkpt>
<trkpt lat="40.071392" lon="-105.2272036">
  <ele>1583.0</ele>
  <time>2026-08-28T17:52:52Z</time>
  <course>319.84</course>
  <speed>4.95</speed>
  <fix>3d</fix>
</trkpt>
<trkpt lat="40.0714032" lon="-105.2272162">
  <ele>1583.01</ele>
  <time>2026-08-28T17:52:52Z</time>
  <course>321.16</course>
  <speed>4.920457295821192</speed>
  <fix>3d</fix>
</trkpt>
<trkpt lat="40.0713988" lon="-105.2272111">
  <ele>1583.0</ele>
  <time>2026-08-28T17:52:52Z</time>
  <course>320.14</course>
  <speed>4.95</speed>
  <fix>3d</fix>
</trkpt>
<trkpt lat="40.0714066" lon="-105.2272199">
  <ele>1583.01</ele>
  <time>2026-08-28T17:52:52Z</time>
  <course>321.26</course>
  <speed>4.928143666736999</speed>
  <fix>3d</fix>
</trkpt>
<trkpt lat="40.0713988" lon="-105.2272111">
  <ele>1583.0</ele>
  <time>2026-08-28T17:52:52Z</time>
  <course>320.14</course>
  <speed>4.95</speed>
  <fix>3d</fix>
</trkpt>
<trkpt lat="40.0714101" lon="-105.2272236">
  <ele>1583.01</ele>
  <time>2026-08-28T17:52:52Z</time>
  <course>321.32</course>
  <speed>4.929462445338234</speed>
  <fix>3d</fix>
</trkpt>
<trkpt lat="40.0713988" lon="-105.2272111">
  <ele>1583.0</ele>
  <time>2026-08-28T17:52:52Z</time>
  <course>320.14</course>
  <speed>4.95</speed>
  <fix>3d</fix>
</trkpt>
<trkpt lat="40.0714135" lon="-105.2272273">
  <ele>1583.01</ele>
  <time>2026-08-28T17:52:52Z</time>
  <course>321.39</course>
  <speed>4.929462445338234</speed>
  <fix>3d</fix>
</trkpt>
<trkpt lat="40.0714056" lon="-105.2272185">
  <ele>1583.0</ele>
  <time>2026-08-28T17:52:52Z</time>
  <course>320.35</course>
  <speed>4.95</speed>
  <fix>3d</fix>
</trkpt>
<trkpt lat="40.0714169" lon="-105.2272309">
  <ele>1583.01</ele>
  <time>2026-08-28T17:52:52Z</time>
  <course>321.46</course>
  <speed>4.930821432580985</speed>
  <fix>3d</fix>
</trkpt>
<trkpt lat="40.0714056" lon="-105.2272185">
  <ele>1583.0</ele>
  <time>2026-08-28T17:52:52Z</time>
  <course>320.35</course>
  <speed>4.95</speed>
  <fix>3d</fix>
</trkpt>
<trkpt lat="40.0714203" lon="-105.2272346">
  <ele>1583.01</ele>
  <time>2026-08-28T17:52:52Z</time>
  <course>321.47</course>
  <speed>4.930821432580985</speed>
  <fix>3d</fix>
</trkpt>
<trkpt lat="40.0714124" lon="-105.227226">
  <ele>1583.0</ele>
  <time>2026-08-28T17:52:52Z</time>
  <course>320.5</course>
  <speed>4.95</speed>
  <fix>3d</fix>
</trkpt>
<trkpt lat="40.0714237" lon="-105.2272382">
  <ele>1583.01</ele>
  <time>2026-08-28T17:52:52Z</time>
  <course>321.48</course>
  <speed>4.930821432580985</speed>
  <fix>3d</fix>
</trkpt>
<trkpt lat="40.0714124" lon="-105.227226">
  <ele>1583.0</ele>
  <time>2026-08-28T17:52:52Z</time>
  <course>320.5</course>
  <speed>4.95</speed>
  <fix>3d</fix>
</trkpt>
<trkpt lat="40.0714272" lon="-105.2272419">
  <ele>1583.02</ele>
  <time>2026-08-28T17:52:52Z</time>
  <course>321.49</course>
  <speed>4.94489635887346</speed>
  <fix>3d</fix>
</trkpt>
<trkpt lat="40.0714193" lon="-105.2272333">
  <ele>1583.0</ele>
  <time>2026-08-28T17:52:52Z</time>
  <course>320.58</course>
  <speed>4.96</speed>
  <fix>3d</fix>
</trkpt>
<trkpt lat="40.0714306" lon="-105.2272455">
  <ele>1583.02</ele>
  <time>2026-08-28T17:52:52Z</time>
  <course>321.49</course>
  <speed>4.94489635887346</speed>
  <fix>3d</fix>
</trkpt>
<trkpt lat="40.0714193" lon="-105.2272333">
  <ele>1583.0</ele>
  <time>2026-08-28T17:52:52Z</time>
  <course>320.58</course>
  <speed>4.96</speed>
  <fix>3d</fix>
</trkpt>
<trkpt lat="40.071434" lon="-105.2272492">
  <ele>1583.02</ele>
  <time>2026-08-28T17:52:52Z</time>
  <course>321.49</course>
  <speed>4.94489635887346</speed>
  <fix>3d</fix>
</trkpt>
<trkpt lat="40.0714262" lon="-105.2272408">
  <ele>1583.0</ele>
  <time>2026-08-28T17:52:52Z</time>
  <course>320.59</course>
  <speed>4.98</speed>
  <fix>3d</fix>
</trkpt>
<trkpt lat="40.0714374" lon="-105.2272529">
  <ele>1583.02</ele>
  <time>2026-08-28T17:52:52Z</time>
  <course>321.49</course>
  <speed>4.95262556630319</speed>
  <fix>3d</fix>
</trkpt>
<trkpt lat="40.0714332" lon="-105.2272482">
  <ele>1583.0</ele>
  <time>2026-08-28T17:52:52Z</time>
  <course>320.59</course>
  <speed>4.99</speed>
  <fix>3d</fix>
</trkpt>
<trkpt lat="40.0714409" lon="-105.2272566">
  <ele>1583.02</ele>
  <time>2026-08-28T17:52:52Z</time>
  <course>321.49</course>
  <speed>4.960362889950694</speed>
  <fix>3d</fix>
</trkpt>
<trkpt lat="40.0714332" lon="-105.2272482">
  <ele>1583.0</ele>
  <time>2026-08-28T17:52:52Z</time>
  <course>320.59</course>
  <speed>4.99</speed>
  <fix>3d</fix>
</trkpt>
<trkpt lat="40.0714444" lon="-105.2272603">
  <ele>1583.03</ele>
  <time>2026-08-28T17:52:52Z</time>
  <course>321.49</course>
  <speed>4.966699105039483</speed>
  <fix>3d</fix>
</trkpt>
<trkpt lat="40.0714401" lon="-105.2272557">
  <ele>1583.0</ele>
  <time>2026-08-28T17:52:52Z</time>
  <course>320.59</course>
  <speed>5.0</speed>
  <fix>3d</fix>
</trkpt>
<trkpt lat="40.0714479" lon="-105.227264">
  <ele>1583.03</ele>
  <time>2026-08-28T17:52:52Z</time>
  <course>321.49</course>
  <speed>4.974434641243163</speed>
  <fix>3d</fix>
</trkpt>
<trkpt lat="40.0714401" lon="-105.2272557">
  <ele>1583.0</ele>
  <time>2026-08-28T17:52:52Z</time>
  <course>320.59</course>
  <speed>5.0</speed>
  <fix>3d</fix>
</trkpt>
<trkpt lat="40.0714513" lon="-105.2272677">
  <ele>1583.03</ele>
  <time>2026-08-28T17:52:52Z</time>
  <course>321.5</course>
  <speed>4.974434641243163</speed>
  <fix>3d</fix>
</trkpt>
<trkpt lat="40.0714471" lon="-105.2272631">
  <ele>1583.0</ele>
  <time>2026-08-28T17:52:52Z</time>
  <course>320.59</course>
  <speed>5.02</speed>
  <fix>3d</fix>
</trkpt>
<trkpt lat="40.0714549" lon="-105.2272715">
  <ele>1583.03</ele>
  <time>2026-08-28T17:52:52Z</time>
  <course>321.5</course>
  <speed>4.9885067906138</speed>
  <fix>3d</fix>
</trkpt>
<trkpt lat="40.0714471" lon="-105.2272631">
  <ele>1583.0</ele>
  <time>2026-08-28T17:52:52Z</time>
  <course>320.59</course>
  <speed>5.02</speed>
  <fix>3d</fix>
</trkpt>
<trkpt lat="40.0714584" lon="-105.2272753">
  <ele>1583.03</ele>
  <time>2026-08-28T17:52:52Z</time>
  <course>321.5</course>
  <speed>4.9885067906138</speed>
  <fix>3d</fix>
</trkpt>
<trkpt lat="40.071454" lon="-105.2272706">
  <ele>1583.0</ele>
  <time>2026-08-28T17:52:52Z</time>
  <course>320.59</course>
  <speed>5.03</speed>
  <fix>3d</fix>
</trkpt>
<trkpt lat="40.0714619" lon="-105.2272791">
  <ele>1583.03</ele>
  <time>2026-08-28T17:52:52Z</time>
  <course>321.5</course>
  <speed>4.9962485926943225</speed>
  <fix>3d</fix>
</trkpt>
<trkpt lat="40.071454" lon="-105.2272706">
  <ele>1583.0</ele>
  <time>2026-08-28T17:52:52Z</time>
  <course>320.59</course>
  <speed>5.03</speed>
  <fix>3d</fix>
</trkpt>
<trkpt lat="40.0714654" lon="-105.2272828">
  <ele>1583.03</ele>
  <time>2026-08-28T17:52:52Z</time>
  <course>321.5</course>
  <speed>5.002579334703249</speed>
  <fix>3d</fix>
</trkpt>
<trkpt lat="40.071461" lon="-105.2272781">
  <ele>1583.0</ele>
  <time>2026-08-28T17:52:52Z</time>
  <course>320.59</course>
  <speed>5.03</speed>
  <fix>3d</fix>
</trkpt>
<trkpt lat="40.071469" lon="-105.2272866">
  <ele>1583.03</ele>
  <time>2026-08-28T17:52:52Z</time>
  <course>321.51</course>
  <speed>5.002579334703249</speed>
  <fix>3d</fix>
</trkpt>
<trkpt lat="40.071461" lon="-105.2272781">
  <ele>1583.0</ele>
  <time>2026-08-28T17:52:52Z</time>
  <course>320.59</course>
  <speed>5.03</speed>
  <fix>3d</fix>
</trkpt>
<trkpt lat="40.0714725" lon="-105.2272904">
  <ele>1583.03</ele>
  <time>2026-08-28T17:52:52Z</time>
  <course>321.51</course>
  <speed>5.010319351099289</speed>
  <fix>3d</fix>
</trkpt>
<trkpt lat="40.0714681" lon="-105.2272857">
  <ele>1583.0</ele>
  <time>2026-08-28T17:52:52Z</time>
  <course>320.59</course>
  <speed>5.04</speed>
  <fix>3d</fix>
</trkpt>
<trkpt lat="40.071476" lon="-105.2272941">
  <ele>1583.03</ele>
  <time>2026-08-28T17:52:52Z</time>
  <course>321.51</course>
  <speed>5.010319351099289</speed>
  <fix>3d</fix>
</trkpt>
<trkpt lat="40.0714681" lon="-105.2272857">
  <ele>1583.0</ele>
  <time>2026-08-28T17:52:52Z</time>
  <course>320.59</course>
  <speed>5.04</speed>
  <fix>3d</fix>
</trkpt>
<trkpt lat="40.0714796" lon="-105.2272979">
  <ele>1583.03</ele>
  <time>2026-08-28T17:52:52Z</time>
  <course>321.51</course>
  <speed>5.010319351099289</speed>
  <fix>3d</fix>
</trkpt>
<trkpt lat="40.0714751" lon="-105.2272932">
  <ele>1583.0</ele>
  <time>2026-08-28T17:52:52Z</time>
  <course>320.59</course>
  <speed>5.04</speed>
  <fix>3d</fix>
</trkpt>
<trkpt lat="40.0714831" lon="-105.2273017">
  <ele>1583.03</ele>
  <time>2026-08-28T17:52:52Z</time>
  <course>321.52</course>
  <speed>5.010319351099289</speed>
  <fix>3d</fix>
</trkpt>
<trkpt lat="40.0714751" lon="-105.2272932">
  <ele>1583.0</ele>
  <time>2026-08-28T17:52:52Z</time>
  <course>320.59</course>
  <speed>5.04</speed>
  <fix>3d</fix>
</trkpt>
<trkpt lat="40.0714866" lon="-105.2273055">
  <ele>1583.03</ele>
  <time>2026-08-28T17:52:52Z</time>
  <course>321.52</course>
  <speed>5.010319351099289</speed>
  <fix>3d</fix>
</trkpt>
<trkpt lat="40.0714751" lon="-105.2272932">
  <ele>1583.0</ele>
  <time>2026-08-28T17:52:52Z</time>
  <course>320.59</course>
  <speed>5.04</speed>
  <fix>3d</fix>
</trkpt>
<trkpt lat="40.0714901" lon="-105.2273092">
  <ele>1583.03</ele>
  <time>2026-08-28T17:52:52Z</time>
  <course>321.52</course>
  <speed>5.010319351099289</speed>
  <fix>3d</fix>
</trkpt>
<trkpt lat="40.0714821" lon="-105.2273007">
  <ele>1583.0</ele>
  <time>2026-08-28T17:52:52Z</time>
  <course>320.59</course>
  <speed>5.04</speed>
  <fix>3d</fix>
</trkpt>
<trkpt lat="40.0714936" lon="-105.2273129">
  <ele>1583.03</ele>
  <time>2026-08-28T17:52:52Z</time>
  <course>321.53</course>
  <speed>5.010319351099289</speed>
  <fix>3d</fix>
</trkpt>
<trkpt lat="40.0714821" lon="-105.2273007">
  <ele>1583.0</ele>
  <time>2026-08-28T17:52:52Z</time>
  <course>320.59</course>
  <speed>5.04</speed>
  <fix>3d</fix>
</trkpt>
<trkpt lat="40.0714971" lon="-105.2273167">
  <ele>1583.03</ele>
  <time>2026-08-28T17:52:52Z</time>
  <course>321.53</course>
  <speed>5.0039984012787215</speed>
  <fix>3d</fix>
</trkpt>
<trkpt lat="40.071489" lon="-105.2273082">
  <ele>1583.0</ele>
  <time>2026-08-28T17:52:52Z</time>
  <course>320.59</course>
  <speed>5.04</speed>
  <fix>3d</fix>
</trkpt>
<trkpt lat="40.0715005" lon="-105.2273204">
  <ele>1583.03</ele>
  <time>2026-08-28T17:52:52Z</time>
  <course>321.53</course>
  <speed>5.0039984012787215</speed>
  <fix>3d</fix>
</trkpt>
<trkpt lat="40.071489" lon="-105.2273082">
  <ele>1583.0</ele>
  <time>2026-08-28T17:52:52Z</time>
  <course>320.59</course>
  <speed>5.04</speed>
  <fix>3d</fix>
</trkpt>
<trkpt lat="40.071504" lon="-105.2273241">
  <ele>1583.03</ele>
  <time>2026-08-28T17:52:52Z</time>
  <course>321.54</course>
  <speed>4.9962485926943225</speed>
  <fix>3d</fix>
</trkpt>
<trkpt lat="40.0714961" lon="-105.2273157">
  <ele>1583.0</ele>
  <time>2026-08-28T17:52:52Z</time>
  <course>320.59</course>
  <speed>5.03</speed>
  <fix>3d</fix>
</trkpt>
<trkpt lat="40.0715075" lon="-105.2273278">
  <ele>1583.03</ele>
  <time>2026-08-28T17:52:52Z</time>
  <course>321.54</course>
  <speed>4.9962485926943225</speed>
  <fix>3d</fix>
</trkpt>
<trkpt lat="40.0715031" lon="-105.2273232">
  <ele>1583.0</ele>
  <time>2026-08-28T17:52:52Z</time>
  <course>320.59</course>
  <speed>5.03</speed>
  <fix>3d</fix>
</trkpt>
<trkpt lat="40.071511" lon="-105.2273316">
  <ele>1583.03</ele>
  <time>2026-08-28T17:52:52Z</time>
  <course>321.54</course>
  <speed>4.9962485926943225</speed>
  <fix>3d</fix>
</trkpt>
<trkpt lat="40.0715031" lon="-105.2273232">
  <ele>1583.0</ele>
  <time>2026-08-28T17:52:52Z</time>
  <course>320.59</course>
  <speed>5.03</speed>
  <fix>3d</fix>
</trkpt>
<trkpt lat="40.0715145" lon="-105.2273353">
  <ele>1583.03</ele>
  <time>2026-08-28T17:52:52Z</time>
  <course>321.55</course>
  <speed>4.9962485926943225</speed>
  <fix>3d</fix>
</trkpt>
<trkpt lat="40.0715101" lon="-105.2273307">
  <ele>1583.0</ele>
  <time>2026-08-28T17:52:52Z</time>
  <course>320.59</course>
  <speed>5.03</speed>
  <fix>3d</fix>
</trkpt>
<trkpt lat="40.071518" lon="-105.227339">
  <ele>1583.03</ele>
  <time>2026-08-28T17:52:53Z</time>
  <course>321.55</course>
  <speed>4.9962485926943225</speed>
  <fix>3d</fix>
</trkpt>
<trkpt lat="40.0715101" lon="-105.2273307">
  <ele>1583.0</ele>
  <time>2026-08-28T17:52:53Z</time>
  <course>320.59</course>
  <speed>5.03</speed>
  <fix>3d</fix>
</trkpt>
<trkpt lat="40.0715215" lon="-105.2273428">
  <ele>1583.02</ele>
  <time>2026-08-28T17:52:53Z</time>
  <course>321.55</course>
  <speed>4.98992985922648</speed>
  <fix>3d</fix>
</trkpt>
<trkpt lat="40.071517" lon="-105.2273382">
  <ele>1583.0</ele>
  <time>2026-08-28T17:52:53Z</time>
  <course>320.59</course>
  <speed>5.03</speed>
  <fix>3d</fix>
</trkpt>
<trkpt lat="40.071525" lon="-105.2273465">
  <ele>1583.02</ele>
  <time>2026-08-28T17:52:53Z</time>
  <course>321.55</course>
  <speed>4.98992985922648</speed>
  <fix>3d</fix>
</trkpt>
<trkpt lat="40.071517" lon="-105.2273382">
  <ele>1583.0</ele>
  <time>2026-08-28T17:52:53Z</time>
  <course>320.59</course>
  <speed>5.03</speed>
  <fix>3d</fix>
</trkpt>
<trkpt lat="40.0715285" lon="-105.2273503">
  <ele>1583.01</ele>
  <time>2026-08-28T17:52:53Z</time>
  <course>321.56</course>
  <speed>4.98992985922648</speed>
  <fix>3d</fix>
</trkpt>
<trkpt lat="40.071524" lon="-105.2273457">
  <ele>1583.0</ele>
  <time>2026-08-28T17:52:53Z</time>
  <course>320.59</course>
  <speed>5.03</speed>
  <fix>3d</fix>
</trkpt>
<trkpt lat="40.0715321" lon="-105.2273541">
  <ele>1583.01</ele>
  <time>2026-08-28T17:52:53Z</time>
  <course>321.56</course>
  <speed>4.98992985922648</speed>
  <fix>3d</fix>
</trkpt>
<trkpt lat="40.071524" lon="-105.2273457">
  <ele>1583.0</ele>
  <time>2026-08-28T17:52:53Z</time>
  <course>320.59</course>
  <speed>5.03</speed>
  <fix>3d</fix>
</trkpt>
<trkpt lat="40.0715356" lon="-105.2273578">
  <ele>1583.01</ele>
  <time>2026-08-28T17:52:53Z</time>
  <course>321.56</course>
  <speed>4.98992985922648</speed>
  <fix>3d</fix>
</trkpt>
<trkpt lat="40.0715309" lon="-105.2273532">
  <ele>1583.0</ele>
  <time>2026-08-28T17:52:53Z</time>
  <course>320.59</course>
  <speed>5.02</speed>
  <fix>3d</fix>
</trkpt>
<trkpt lat="40.0715391" lon="-105.2273616">
  <ele>1583.0</ele>
  <time>2026-08-28T17:52:53Z</time>
  <course>321.57</course>
  <speed>4.9976894661433295</speed>
  <fix>3d</fix>
</trkpt>
<trkpt lat="40.0715309" lon="-105.2273532">
  <ele>1583.0</ele>
  <time>2026-08-28T17:52:53Z</time>
  <course>320.59</course>
  <speed>5.02</speed>
  <fix>3d</fix>
</trkpt>
<trkpt lat="40.0715426" lon="-105.2273654">
  <ele>1583.0</ele>
  <time>2026-08-28T17:52:53Z</time>
  <course>321.57</course>
  <speed>4.9976894661433295</speed>
  <fix>3d</fix>
</trkpt>
<trkpt lat="40.0715379" lon="-105.2273607">
  <ele>1583.0</ele>
  <time>2026-08-28T17:52:53Z</time>
  <course>320.59</course>
  <speed>5.02</speed>
  <fix>3d</fix>
</trkpt>
<trkpt lat="40.0715461" lon="-105.2273691">
  <ele>1583.0</ele>
  <time>2026-08-28T17:52:53Z</time>
  <course>321.57</course>
  <speed>4.9976894661433295</speed>
  <fix>3d</fix>
</trkpt>
<trkpt lat="40.0715379" lon="-105.2273607">
  <ele>1583.0</ele>
  <time>2026-08-28T17:52:53Z</time>
  <course>320.59</course>
  <speed>5.02</speed>
  <fix>3d</fix>
</trkpt>
<trkpt lat="40.0715496" lon="-105.2273729">
  <ele>1583.01</ele>
  <time>2026-08-28T17:52:53Z</time>
  <course>321.58</course>
  <speed>4.9976894661433295</speed>
  <fix>3d</fix>
</trkpt>
<trkpt lat="40.071545" lon="-105.2273682">
  <ele>1583.0</ele>
  <time>2026-08-28T17:52:53Z</time>
  <course>320.59</course>
  <speed>5.02</speed>
  <fix>3d</fix>
</trkpt>
<trkpt lat="40.0715531" lon="-105.2273767">
  <ele>1583.01</ele>
  <time>2026-08-28T17:52:53Z</time>
  <course>321.58</course>
  <speed>4.9976894661433295</speed>
  <fix>3d</fix>
</trkpt>
<trkpt lat="40.071545" lon="-105.2273682">
  <ele>1583.0</ele>
  <time>2026-08-28T17:52:53Z</time>
  <course>320.59</course>
  <speed>5.02</speed>
  <fix>3d</fix>
</trkpt>
<trkpt lat="40.0715566" lon="-105.2273804">
  <ele>1583.0</ele>
  <time>2026-08-28T17:52:53Z</time>
  <course>321.61</course>
  <speed>4.9976894661433295</speed>
  <fix>3d</fix>
</trkpt>
<trkpt lat="40.071545" lon="-105.2273682">
  <ele>1583.0</ele>
  <time>2026-08-28T17:52:53Z</time>
  <course>320.59</course>
  <speed>5.02</speed>
  <fix>3d</fix>
</trkpt>
<trkpt lat="40.0715601" lon="-105.2273841">
  <ele>1583.0</ele>
  <time>2026-08-28T17:52:53Z</time>
  <course>321.75</course>
  <speed>4.991392591251463</speed>
  <fix>3d</fix>
</trkpt>
<trkpt lat="40.0715519" lon="-105.2273757">
  <ele>1583.0</ele>
  <time>2026-08-28T17:52:53Z</time>
  <course>320.61</course>
  <speed>5.02</speed>
  <fix>3d</fix>
</trkpt>
<trkpt lat="40.0715635" lon="-105.2273878">
  <ele>1583.0</ele>
  <time>2026-08-28T17:52:53Z</time>
  <course>321.99</course>
  <speed>4.98663213000518</speed>
  <fix>3d</fix>
</trkpt>
<trkpt lat="40.0715519" lon="-105.2273757">
  <ele>1583.0</ele>
  <time>2026-08-28T17:52:53Z</time>
  <course>320.61</course>
  <speed>5.02</speed>
  <fix>3d</fix>
</trkpt>
<trkpt lat="40.071567" lon="-105.2273915">
  <ele>1583.0</ele>
  <time>2026-08-28T17:52:53Z</time>
  <course>322.28</course>
  <speed>4.989799595174139</speed>
  <fix>3d</fix>
</trkpt>
<trkpt lat="40.0715589" lon="-105.2273832">
  <ele>1583.0</ele>
  <time>2026-08-28T17:52:53Z</time>
  <course>320.81</course>
  <speed>5.01</speed>
  <fix>3d</fix>
</trkpt>
<trkpt lat="40.0715705" lon="-105.2273951">
  <ele>1583.0</ele>
  <time>2026-08-28T17:52:53Z</time>
  <course>322.56</course>
  <speed>4.985258268134159</speed>
  <fix>3d</fix>
</trkpt>
<trkpt lat="40.0715589" lon="-105.2273832">
  <ele>1583.0</ele>
  <time>2026-08-28T17:52:53Z</time>
  <course>320.81</course>
  <speed>5.01</speed>
  <fix>3d</fix>
</trkpt>
<trkpt lat="40.071574" lon="-105.2273987">
  <ele>1583.01</ele>
  <time>2026-08-28T17:52:53Z</time>
  <course>322.76</course>
  <speed>4.980813186619229</speed>
  <fix>3d</fix>
</trkpt>
<trkpt lat="40.0715659" lon="-105.2273906">
  <ele>1583.0</ele>
  <time>2026-08-28T17:52:53Z</time>
  <course>321.28</course>
  <speed>5.01</speed>
  <fix>3d</fix>
</trkpt>
<trkpt lat="40.0715775" lon="-105.2274023">
  <ele>1583.01</ele>
  <time>2026-08-28T17:52:53Z</time>
  <course>322.97</course>
  <speed>4.982579653151568</speed>
  <fix>3d</fix>
</trkpt>
<trkpt lat="40.0715659" lon="-105.2273906">
  <ele>1583.0</ele>
  <time>2026-08-28T17:52:53Z</time>
  <course>321.28</course>
  <speed>5.01</speed>
  <fix>3d</fix>
</trkpt>
<trkpt lat="40.0715811" lon="-105.2274059">
  <ele>1583.01</ele>
  <time>2026-08-28T17:52:53Z</time>
  <course>323.18</course>
  <speed>4.978292880094541</speed>
  <fix>3d</fix>
</trkpt>
<trkpt lat="40.071573" lon="-105.2273979">
  <ele>1583.0</ele>
  <time>2026-08-28T17:52:53Z</time>
  <course>321.77</course>
  <speed>5.01</speed>
  <fix>3d</fix>
</trkpt>
<trkpt lat="40.0715846" lon="-105.2274095">
  <ele>1583.02</ele>
  <time>2026-08-28T17:52:53Z</time>
  <course>323.34</course>
  <speed>4.980160639979397</speed>
  <fix>3d</fix>
</trkpt>
<trkpt lat="40.0715801" lon="-105.2274051">
  <ele>1583.0</ele>
  <time>2026-08-28T17:52:53Z</time>
  <course>322.15</course>
  <speed>5.02</speed>
  <fix>3d</fix>
</trkpt>
<trkpt lat="40.0715882" lon="-105.2274131">
  <ele>1583.01</ele>
  <time>2026-08-28T17:52:53Z</time>
  <course>323.48</course>
  <speed>4.982067843777321</speed>
  <fix>3d</fix>
</trkpt>
<trkpt lat="40.0715801" lon="-105.2274051">
  <ele>1583.0</ele>
  <time>2026-08-28T17:52:53Z</time>
  <course>322.15</course>
  <speed>5.02</speed>
  <fix>3d</fix>
</trkpt>
<trkpt lat="40.0715917" lon="-105.2274166">
  <ele>1583.01</ele>
  <time>2026-08-28T17:52:53Z</time>
  <course>323.58</course>
  <speed>4.990040079999358</speed>
  <fix>3d</fix>
</trkpt>
<trkpt lat="40.0715872" lon="-105.2274123">
  <ele>1583.0</ele>
  <time>2026-08-28T17:52:53Z</time>
  <course>322.45</course>
  <speed>5.02</speed>
  <fix>3d</fix>
</trkpt>
<trkpt lat="40.0715953" lon="-105.2274202">
  <ele>1583.01</ele>
  <time>2026-08-28T17:52:53Z</time>
  <course>323.58</course>
  <speed>4.990040079999358</speed>
  <fix>3d</fix>
</trkpt>
<trkpt lat="40.0715872" lon="-105.2274123">
  <ele>1583.0</ele>
  <time>2026-08-28T17:52:53Z</time>
  <course>322.45</course>
  <speed>5.02</speed>
  <fix>3d</fix>
</trkpt>
<trkpt lat="40.0715989" lon="-105.2274238">
  <ele>1583.01</ele>
  <time>2026-08-28T17:52:53Z</time>
  <course>323.51</course>
  <speed>4.990040079999358</speed>
  <fix>3d</fix>
</trkpt>
<trkpt lat="40.0715943" lon="-105.2274195">
  <ele>1583.0</ele>
  <time>2026-08-28T17:52:53Z</time>
  <course>322.54</course>
  <speed>5.02</speed>
  <fix>3d</fix>
</trkpt>
<trkpt lat="40.0716025" lon="-105.2274274">
  <ele>1583.01</ele>
  <time>2026-08-28T17:52:53Z</time>
  <course>323.34</course>
  <speed>4.9941766088115065</speed>
  <fix>3d</fix>
</trkpt>
<trkpt lat="40.0715943" lon="-105.2274195">
  <ele>1583.0</ele>
  <time>2026-08-28T17:52:53Z</time>
  <course>322.54</course>
  <speed>5.02</speed>
  <fix>3d</fix>
</trkpt>
<trkpt lat="40.0716061" lon="-105.227431">
  <ele>1583.01</ele>
  <time>2026-08-28T17:52:53Z</time>
  <course>323.05</course>
  <speed>4.998409747109574</speed>
  <fix>3d</fix>
</trkpt>
<trkpt lat="40.0716015" lon="-105.2274267">
  <ele>1583.0</ele>
  <time>2026-08-28T17:52:53Z</time>
  <course>322.27</course>
  <speed>5.02</speed>
  <fix>3d</fix>
</trkpt>
<trkpt lat="40.0716097" lon="-105.2274347">
  <ele>1583.01</ele>
  <time>2026-08-28T17:52:53Z</time>
  <course>322.67</course>
  <speed>5.000999900019995</speed>
  <fix>3d</fix>
</trkpt>
<trkpt lat="40.0716015" lon="-105.2274267">
  <ele>1583.0</ele>
  <time>2026-08-28T17:52:53Z</time>
  <course>322.27</course>
  <speed>5.02</speed>
  <fix>3d</fix>
</trkpt>
<trkpt lat="40.0716133" lon="-105.2274384">
  <ele>1583.01</ele>
  <time>2026-08-28T17:52:53Z</time>
  <course>322.19</course>
  <speed>4.996018414697848</speed>
  <fix>3d</fix>
</trkpt>
<trkpt lat="40.0716086" lon="-105.227434">
  <ele>1583.0</ele>
  <time>2026-08-28T17:52:53Z</time>
  <course>321.6</course>
  <speed>5.02</speed>
  <fix>3d</fix>
</trkpt>
<trkpt lat="40.0716168" lon="-105.2274422">
  <ele>1583.01</ele>
  <time>2026-08-28T17:52:53Z</time>
  <course>321.6</course>
  <speed>4.9976894661433295</speed>
  <fix>3d</fix>
</trkpt>
<trkpt lat="40.0716086" lon="-105.227434">
  <ele>1583.0</ele>
  <time>2026-08-28T17:52:53Z</time>
  <course>321.6</course>
  <speed>5.02</speed>
  <fix>3d</fix>
</trkpt>
<trkpt lat="40.0716203" lon="-105.227446">
  <ele>1583.02</ele>
  <time>2026-08-28T17:52:53Z</time>
  <course>320.92</course>
  <speed>4.9985597925802585</speed>
  <fix>3d</fix>
</trkpt>
<trkpt lat="40.0716156" lon="-105.2274414">
  <ele>1583.0</ele>
  <time>2026-08-28T17:52:53Z</time>
  <course>320.53</course>
  <speed>5.02</speed>
  <fix>3d</fix>
</trkpt>
<trkpt lat="40.0716237" lon="-105.2274498">
  <ele>1583.02</ele>
  <time>2026-08-28T17:52:53Z</time>
  <course>320.17</course>
  <speed>5.000249993750312</speed>
  <fix>3d</fix>
</trkpt>
<trkpt lat="40.0716156" lon="-105.2274414">
  <ele>1583.0</ele>
  <time>2026-08-28T17:52:53Z</time>
  <course>320.53</course>
  <speed>5.02</speed>
  <fix>3d</fix>
</trkpt>
<trkpt lat="40.0716271" lon="-105.2274538">
  <ele>1583.02</ele>
  <time>2026-08-28T17:52:53Z</time>
  <course>319.38</course>
  <speed>5.009361236724698</speed>
  <fix>3d</fix>
</trkpt>
<trkpt lat="40.0716226" lon="-105.227449">
  <ele>1583.0</ele>
  <time>2026-08-28T17:52:53Z</time>
  <course>319.13</course>
  <speed>5.02</speed>
  <fix>3d</fix>
</trkpt>
<trkpt lat="40.0716305" lon="-105.2274578">
  <ele>1583.02</ele>
  <time>2026-08-28T17:52:53Z</time>
  <course>318.5</course>
  <speed>5.004687802450818</speed>
  <fix>3d</fix>
</trkpt>
<trkpt lat="40.0716226" lon="-105.227449">
  <ele>1583.0</ele>
  <time>2026-08-28T17:52:53Z</time>
  <course>319.13</course>
  <speed>5.02</speed>
  <fix>3d</fix>
</trkpt>
<trkpt lat="40.0716338" lon="-105.2274618">
  <ele>1583.02</ele>
  <time>2026-08-28T17:52:53Z</time>
  <course>317.55</course>
  <speed>5.008732374563448</speed>
  <fix>3d</fix>
</trkpt>
<trkpt lat="40.0716226" lon="-105.227449">
  <ele>1583.0</ele>
  <time>2026-08-28T17:52:53Z</time>
  <course>319.13</course>
  <speed>5.02</speed>
  <fix>3d</fix>
</trkpt>
<trkpt lat="40.071637" lon="-105.2274659">
  <ele>1583.02</ele>
  <time>2026-08-28T17:52:53Z</time>
  <course>316.61</course>
  <speed>5.006815355093495</speed>
  <fix>3d</fix>
</trkpt>
<trkpt lat="40.0716293" lon="-105.2274568">
  <ele>1583.0</ele>
  <time>2026-08-28T17:52:53Z</time>
  <course>317.44</course>
  <speed>5.02</speed>
  <fix>3d</fix>
</trkpt>
<trkpt lat="40.0716402" lon="-105.2274701">
  <ele>1583.02</ele>
  <time>2026-08-28T17:52:53Z</time>
  <course>315.75</course>
  <speed>5.006316010800757</speed>
  <fix>3d</fix>
</trkpt>
<trkpt lat="40.0716293" lon="-105.2274568">
  <ele>1583.0</ele>
  <time>2026-08-28T17:52:53Z</time>
  <course>317.44</course>
  <speed>5.02</speed>
  <fix>3d</fix>
</trkpt>
<trkpt lat="40.0716433" lon="-105.2274743">
  <ele>1583.02</ele>
  <time>2026-08-28T17:52:53Z</time>
  <course>314.98</course>
  <speed>4.999849997749933</speed>
  <fix>3d</fix>
</trkpt>
<trkpt lat="40.0716358" lon="-105.227465">
  <ele>1583.0</ele>
  <time>2026-08-28T17:52:53Z</time>
  <course>315.62</course>
  <speed>5.02</speed>
  <fix>3d</fix>
</trkpt>
<trkpt lat="40.0716464" lon="-105.2274785">
  <ele>1583.02</ele>
  <time>2026-08-28T17:52:53Z</time>
  <course>314.29</course>
  <speed>5.001049889773146</speed>
  <fix>3d</fix>
</trkpt>
<trkpt lat="40.0716358" lon="-105.227465">
  <ele>1583.0</ele>
  <time>2026-08-28T17:52:53Z</time>
  <course>315.62</course>
  <speed>5.02</speed>
  <fix>3d</fix>
</trkpt>
<trkpt lat="40.0716494" lon="-105.2274828">
  <ele>1583.02</ele>
  <time>2026-08-28T17:52:53Z</time>
  <course>313.66</course>
  <speed>5.0028891652724035</speed>
  <fix>3d</fix>
</trkpt>
<trkpt lat="40.0716422" lon="-105.2274734">
  <ele>1583.0</ele>
  <time>2026-08-28T17:52:53Z</time>
  <course>313.98</course>
  <speed>5.01</speed>
  <fix>3d</fix>
</trkpt>
<trkpt lat="40.0716525" lon="-105.2274872">
  <ele>1583.02</ele>
  <time>2026-08-28T17:52:53Z</time>
  <course>313.1</course>
  <speed>4.99795958367012</speed>
  <fix>3d</fix>
</trkpt>
<trkpt lat="40.0716484" lon="-105.2274819">
  <ele>1583.0</ele>
  <time>2026-08-28T17:52:53Z</time>
  <course>312.66</course>
  <speed>5.01</speed>
  <fix>3d</fix>
</trkpt>
<trkpt lat="40.0716554" lon="-105.2274916">
  <ele>1583.02</ele>
  <time>2026-08-28T17:52:53Z</time>
  <course>312.6</course>
  <speed>4.993525808484422</speed>
  <fix>3d</fix>
</trkpt>
<trkpt lat="40.0716484" lon="-105.2274819">
  <ele>1583.0</ele>
  <time>2026-08-28T17:52:53Z</time>
  <course>312.66</course>
  <speed>5.01</speed>
  <fix>3d</fix>
</trkpt>
<trkpt lat="40.0716584" lon="-105.227496">
  <ele>1583.02</ele>
  <time>2026-08-28T17:52:53Z</time>
  <course>312.12</course>
  <speed>4.996168531985285</speed>
  <fix>3d</fix>
</trkpt>
<trkpt lat="40.0716545" lon="-105.2274907">
  <ele>1583.0</ele>
  <time>2026-08-28T17:52:53Z</time>
  <course>311.58</course>
  <speed>5.01</speed>
  <fix>3d</fix>
</trkpt>
<trkpt lat="40.0716613" lon="-105.2275005">
  <ele>1583.02</ele>
  <time>2026-08-28T17:52:53Z</time>
  <course>311.69</course>
  <speed>4.991592932120968</speed>
  <fix>3d</fix>
</trkpt>
<trkpt lat="40.0716545" lon="-105.2274907">
  <ele>1583.0</ele>
  <time>2026-08-28T17:52:53Z</time>
  <course>311.58</course>
  <speed>5.01</speed>
  <fix>3d</fix>
</trkpt>
<trkpt lat="40.0716642" lon="-105.227505">
  <ele>1583.02</ele>
  <time>2026-08-28T17:52:53Z</time>
  <course>311.29</course>
  <speed>4.9948973963435925</speed>
  <fix>3d</fix>
</trkpt>
<trkpt lat="40.0716604" lon="-105.2274995">
  <ele>1583.0</ele>
  <time>2026-08-28T17:52:53Z</time>
  <course>310.67</course>
  <speed>5.01</speed>
  <fix>3d</fix>
</trkpt>
<trkpt lat="40.0716671" lon="-105.2275096">
  <ele>1583.02</ele>
  <time>2026-08-28T17:52:53Z</time>
  <course>310.95</course>
  <speed>4.997299270606074</speed>
  <fix>3d</fix>
</trkpt>
<trkpt lat="40.0716604" lon="-105.2274995">
  <ele>1583.0</ele>
  <time>2026-08-28T17:52:53Z</time>
  <course>310.67</course>
  <speed>5.01</speed>
  <fix>3d</fix>
</trkpt>
<trkpt lat="40.07167" lon="-105.2275141">
  <ele>1583.02</ele>
  <time>2026-08-28T17:52:53Z</time>
  <course>310.61</course>
  <speed>4.999859998039945</speed>
  <fix>3d</fix>
</trkpt>
<trkpt lat="40.0716661" lon="-105.2275085">
  <ele>1583.0</ele>
  <time>2026-08-28T17:52:53Z</time>
  <course>309.9</course>
  <speed>5.01</speed>
  <fix>3d</fix>
</trkpt>
<trkpt lat="40.0716729" lon="-105.2275188">
  <ele>1583.02</ele>
  <time>2026-08-28T17:52:53Z</time>
  <course>310.34</course>
  <speed>4.9948473450146595</speed>
  <fix>3d</fix>
</trkpt>
<trkpt lat="40.0716661" lon="-105.2275085">
  <ele>1583.0</ele>
  <time>2026-08-28T17:52:53Z</time>
  <course>309.9</course>
  <speed>5.01</speed>
  <fix>3d</fix>
</trkpt>
<trkpt lat="40.0716758" lon="-105.2275234">
  <ele>1583.02</ele>
  <time>2026-08-28T17:52:53Z</time>
  <course>310.07</course>
  <speed>4.9976894661433295</speed>
  <fix>3d</fix>
</trkpt>
<trkpt lat="40.0716719" lon="-105.2275176">
  <ele>1583.0</ele>
  <time>2026-08-28T17:52:53Z</time>
  <course>309.29</course>
  <speed>5.01</speed>
  <fix>3d</fix>
</trkpt>
<trkpt lat="40.0716786" lon="-105.227528">
  <ele>1583.02</ele>
  <time>2026-08-28T17:52:53Z</time>
  <course>309.84</course>
  <speed>4.999169931098562</speed>
  <fix>3d</fix>
</trkpt>
<trkpt lat="40.0716719" lon="-105.2275176">
  <ele>1583.0</ele>
  <time>2026-08-28T17:52:53Z</time>
  <course>309.29</course>
  <speed>5.01</speed>
  <fix>3d</fix>
</trkpt>
<trkpt lat="40.0716814" lon="-105.2275326">
  <ele>1583.02</ele>
  <time>2026-08-28T17:52:53Z</time>
  <course>309.64</course>
  <speed>4.994436905197622</speed>
  <fix>3d</fix>
</trkpt>
<trkpt lat="40.0716776" lon="-105.2275267">
  <ele>1583.0</ele>
  <time>2026-08-28T17:52:53Z</time>
  <course>308.8</course>
  <speed>5.0</speed>
  <fix>3d</fix>
</trkpt>
<trkpt lat="40.0716842" lon="-105.2275373">
  <ele>1583.02</ele>
  <time>2026-08-28T17:52:53Z</time>
  <course>309.44</course>
  <speed>4.996018414697848</speed>
  <fix>3d</fix>
</trkpt>
<trkpt lat="40.0716776" lon="-105.2275267">
  <ele>1583.0</ele>
  <time>2026-08-28T17:52:53Z</time>
  <course>308.8</course>
  <speed>5.0</speed>
  <fix>3d</fix>
</trkpt>
<trkpt lat="40.071687" lon="-105.2275419">
  <ele>1583.02</ele>
  <time>2026-08-28T17:52:53Z</time>
  <course>309.23</course>
  <speed>4.991442677222689</speed>
  <fix>3d</fix>
</trkpt>
<trkpt lat="40.0716831" lon="-105.2275358">
  <ele>1583.0</ele>
  <time>2026-08-28T17:52:53Z</time>
  <course>308.38</course>
  <speed>5.0</speed>
  <fix>3d</fix>
</trkpt>
<trkpt lat="40.0716898" lon="-105.2275466">
  <ele>1583.02</ele>
  <time>2026-08-28T17:52:53Z</time>
  <course>309.01</course>
  <speed>5.000999900019995</speed>
  <fix>3d</fix>
</trkpt>
<trkpt lat="40.0716831" lon="-105.2275358">
  <ele>1583.0</ele>
  <time>2026-08-28T17:52:53Z</time>
  <course>308.38</course>
  <speed>5.0</speed>
  <fix>3d</fix>
</trkpt>
<trkpt lat="40.0716925" lon="-105.2275512">
  <ele>1583.02</ele>
  <time>2026-08-28T17:52:53Z</time>
  <course>308.81</course>
  <speed>4.996608850010174</speed>
  <fix>3d</fix>
</trkpt>
<trkpt lat="40.0716831" lon="-105.2275358">
  <ele>1583.0</ele>
  <time>2026-08-28T17:52:53Z</time>
  <course>308.38</course>
  <speed>5.0</speed>
  <fix>3d</fix>
</trkpt>
<trkpt lat="40.0716953" lon="-105.2275559">
  <ele>1583.02</ele>
  <time>2026-08-28T17:52:53Z</time>
  <course>308.61</course>
  <speed>4.990490957811666</speed>
  <fix>3d</fix>
</trkpt>
<trkpt lat="40.0716888" lon="-105.2275451">
  <ele>1583.0</ele>
  <time>2026-08-28T17:52:53Z</time>
  <course>307.96</course>
  <speed>5.0</speed>
  <fix>3d</fix>
</trkpt>
<trkpt lat="40.071698" lon="-105.2275605">
  <ele>1583.02</ele>
  <time>2026-08-28T17:52:53Z</time>
  <course>308.44</course>
  <speed>4.986231041578399</speed>
  <fix>3d</fix>
</trkpt>
<trkpt lat="40.0716888" lon="-105.2275451">
  <ele>1583.0</ele>
  <time>2026-08-28T17:52:53Z</time>
  <course>307.96</course>
  <speed>5.0</speed>
  <fix>3d</fix>
</trkpt>
<trkpt lat="40.0717007" lon="-105.2275651">
  <ele>1583.02</ele>
  <time>2026-08-28T17:52:53Z</time>
  <course>308.31</course>
  <speed>4.988115876761485</speed>
  <fix>3d</fix>
</trkpt>
<trkpt lat="40.0716943" lon="-105.2275545">
  <ele>1583.0</ele>
  <time>2026-08-28T17:52:53Z</time>
  <course>307.56</course>
  <speed>5.0</speed>
  <fix>3d</fix>
</trkpt>
<trkpt lat="40.0717034" lon="-105.2275698">
  <ele>1583.02</ele>
  <time>2026-08-28T17:52:53Z</time>
  <course>308.17</course>
  <speed>4.982067843777321</speed>
  <fix>3d</fix>
</trkpt>
<trkpt lat="40.0716943" lon="-105.2275545">
  <ele>1583.0</ele>
  <time>2026-08-28T17:52:53Z</time>
  <course>307.56</course>
  <speed>5.0</speed>
  <fix>3d</fix>
</trkpt>
<trkpt lat="40.071706" lon="-105.2275744">
  <ele>1583.02</ele>
  <time>2026-08-28T17:52:53Z</time>
  <course>308.04</course>
  <speed>4.984014446206993</speed>
  <fix>3d</fix>
</trkpt>
<trkpt lat="40.0716998" lon="-105.2275638">
  <ele>1583.0</ele>
  <time>2026-08-28T17:52:53Z</time>
  <course>307.24</course>
  <speed>5.0</speed>
  <fix>3d</fix>
</trkpt>
<trkpt lat="40.0717087" lon="-105.2275791">
  <ele>1583.02</ele>
  <time>2026-08-28T17:52:53Z</time>
  <course>307.9</course>
  <speed>4.978001607070854</speed>
  <fix>3d</fix>
</trkpt>
<trkpt lat="40.0717051" lon="-105.2275732">
  <ele>1583.0</ele>
  <time>2026-08-28T17:52:53Z</time>
  <course>306.97</course>
  <speed>5.0</speed>
  <fix>3d</fix>
</trkpt>
<trkpt lat="40.0717114" lon="-105.2275838">
  <ele>1583.02</ele>
  <time>2026-08-28T17:52:53Z</time>
  <course>307.77</course>
  <speed>4.980010040150521</speed>
  <fix>3d</fix>
</trkpt>
<trkpt lat="40.0717051" lon="-105.2275732">
  <ele>1583.0</ele>
  <time>2026-08-28T17:52:53Z</time>
  <course>306.97</course>
  <speed>5.0</speed>
  <fix>3d</fix>
</trkpt>
<trkpt lat="40.0717141" lon="-105.2275885">
  <ele>1583.02</ele>
  <time>2026-08-28T17:52:53Z</time>
  <course>307.67</course>
  <speed>4.980010040150521</speed>
  <fix>3d</fix>
</trkpt>
<trkpt lat="40.0717106" lon="-105.2275826">
  <ele>1583.0</ele>
  <time>2026-08-28T17:52:53Z</time>
  <course>306.72</course>
  <speed>5.0</speed>
  <fix>3d</fix>
</trkpt>
<trkpt lat="40.0717167" lon="-105.2275932">
  <ele>1583.02</ele>
  <time>2026-08-28T17:52:53Z</time>
  <course>307.68</course>
  <speed>4.9880256615218</speed>
  <fix>3d</fix>
</trkpt>
<trkpt lat="40.0717106" lon="-105.2275826">
  <ele>1583.0</ele>
  <time>2026-08-28T17:52:53Z</time>
  <course>306.72</course>
  <speed>5.0</speed>
  <fix>3d</fix>
</trkpt>
<trkpt lat="40.0717194" lon="-105.227598">
  <ele>1583.02</ele>
  <time>2026-08-28T17:52:53Z</time>
  <course>307.74</course>
  <speed>4.980010040150521</speed>
  <fix>3d</fix>
</trkpt>
<trkpt lat="40.0717159" lon="-105.2275919">
  <ele>1583.0</ele>
  <time>2026-08-28T17:52:53Z</time>
  <course>306.64</course>
  <speed>5.0</speed>
  <fix>3d</fix>
</trkpt>
<trkpt lat="40.0717221" lon="-105.2276027">
  <ele>1583.01</ele>
  <time>2026-08-28T17:52:53Z</time>
  <course>307.92</course>
  <speed>4.992003605767929</speed>
  <fix>3d</fix>
</trkpt>
<trkpt lat="40.0717159" lon="-105.2275919">
  <ele>1583.0</ele>
  <time>2026-08-28T17:52:53Z</time>
  <course>306.64</course>
  <speed>5.0</speed>
  <fix>3d</fix>
</trkpt>
<trkpt lat="40.0717248" lon="-105.2276074">
  <ele>1583.01</ele>
  <time>2026-08-28T17:52:53Z</time>
  <course>308.17</course>
  <speed>4.988115876761485</speed>
  <fix>3d</fix>
</trkpt>
<trkpt lat="40.0717214" lon="-105.2276014">
  <ele>1583.0</ele>
  <time>2026-08-28T17:52:53Z</time>
  <course>306.88</course>
  <speed>5.01</speed>
  <fix>3d</fix>
</trkpt>
<trkpt lat="40.0717276" lon="-105.2276121">
  <ele>1583.01</ele>
  <time>2026-08-28T17:52:53Z</time>
  <course>308.38</course>
  <speed>4.986231041578399</speed>
  <fix>3d</fix>
</trkpt>
<trkpt lat="40.0717214" lon="-105.2276014">
  <ele>1583.0</ele>
  <time>2026-08-28T17:52:53Z</time>
  <course>306.88</course>
  <speed>5.01</speed>
  <fix>3d</fix>
</trkpt>
<trkpt lat="40.0717303" lon="-105.2276168">
  <ele>1583.01</ele>
  <time>2026-08-28T17:52:53Z</time>
  <course>308.59</course>
  <speed>4.990490957811666</speed>
  <fix>3d</fix>
</trkpt>
<trkpt lat="40.0717267" lon="-105.2276108">
  <ele>1583.0</ele>
  <time>2026-08-28T17:52:53Z</time>
  <course>307.3</course>
  <speed>5.01</speed>
  <fix>3d</fix>
</trkpt>
<trkpt lat="40.0717331" lon="-105.2276215">
  <ele>1583.01</ele>
  <time>2026-08-28T17:52:53Z</time>
  <course>308.73</course>
  <speed>4.996608850010174</speed>
  <fix>3d</fix>
</trkpt>
<trkpt lat="40.0717267" lon="-105.2276108">
  <ele>1583.0</ele>
  <time>2026-08-28T17:52:53Z</time>
  <course>307.3</course>
  <speed>5.01</speed>
  <fix>3d</fix>
</trkpt>
<trkpt lat="40.0717359" lon="-105.2276262">
  <ele>1583.01</ele>
  <time>2026-08-28T17:52:53Z</time>
  <course>308.86</course>
  <speed>4.9948473450146595</speed>
  <fix>3d</fix>
</trkpt>
<trkpt lat="40.0717322" lon="-105.2276201">
  <ele>1583.0</ele>
  <time>2026-08-28T17:52:53Z</time>
  <course>307.64</course>
  <speed>5.01</speed>
  <fix>3d</fix>
</trkpt>
<trkpt lat="40.0717387" lon="-105.2276309">
  <ele>1583.02</ele>
  <time>2026-08-28T17:52:53Z</time>
  <course>309.0</course>
  <speed>4.993125273813987</speed>
  <fix>3d</fix>
</trkpt>
<trkpt lat="40.0717322" lon="-105.2276201">
  <ele>1583.0</ele>
  <time>2026-08-28T17:52:53Z</time>
  <course>307.64</course>
  <speed>5.01</speed>
  <fix>3d</fix>
</trkpt>
<trkpt lat="40.0717415" lon="-105.2276355">
  <ele>1583.02</ele>
  <time>2026-08-28T17:52:53Z</time>
  <course>309.14</course>
  <speed>4.991442677222689</speed>
  <fix>3d</fix>
</trkpt>
<trkpt lat="40.0717377" lon="-105.2276294">
  <ele>1583.0</ele>
  <time>2026-08-28T17:52:53Z</time>
  <course>307.91</course>
  <speed>5.01</speed>
  <fix>3d</fix>
</trkpt>
<trkpt lat="40.0717442" lon="-105.2276402">
  <ele>1583.02</ele>
  <time>2026-08-28T17:52:53Z</time>
  <course>309.21</course>
  <speed>4.991442677222689</speed>
  <fix>3d</fix>
</trkpt>
<trkpt lat="40.0717377" lon="-105.2276294">
  <ele>1583.0</ele>
  <time>2026-08-28T17:52:53Z</time>
  <course>307.91</course>
  <speed>5.01</speed>
  <fix>3d</fix>
</trkpt>
<trkpt lat="40.071747" lon="-105.2276448">
  <ele>1583.01</ele>
  <time>2026-08-28T17:52:53Z</time>
  <course>309.28</course>
  <speed>4.989799595174139</speed>
  <fix>3d</fix>
</trkpt>
<trkpt lat="40.0717377" lon="-105.2276294">
  <ele>1583.0</ele>
  <time>2026-08-28T17:52:53Z</time>
  <course>307.91</course>
  <speed>5.01</speed>
  <fix>3d</fix>
</trkpt>
<trkpt lat="40.0717498" lon="-105.2276494">
  <ele>1583.01</ele>
  <time>2026-08-28T17:52:53Z</time>
  <course>309.35</course>
  <speed>4.989799595174139</speed>
  <fix>3d</fix>
</trkpt>
<trkpt lat="40.0717433" lon="-105.2276387">
  <ele>1583.0</ele>
  <time>2026-08-28T17:52:53Z</time>
  <course>308.11</course>
  <speed>5.01</speed>
  <fix>3d</fix>
</trkpt>
<trkpt lat="40.0717526" lon="-105.227654">
  <ele>1583.01</ele>
  <time>2026-08-28T17:52:53Z</time>
  <course>309.41</course>
  <speed>4.988196066715902</speed>
  <fix>3d</fix>
</trkpt>
<trkpt lat="40.0717433" lon="-105.2276387">
  <ele>1583.0</ele>
  <time>2026-08-28T17:52:53Z</time>
  <course>308.11</course>
  <speed>5.01</speed>
  <fix>3d</fix>
</trkpt>
<trkpt lat="40.0717554" lon="-105.2276585">
  <ele>1583.01</ele>
  <time>2026-08-28T17:52:53Z</time>
  <course>309.48</course>
  <speed>4.988196066715902</speed>
  <fix>3d</fix>
</trkpt>
<trkpt lat="40.0717489" lon="-105.227648">
  <ele>1583.0</ele>
  <time>2026-08-28T17:52:53Z</time>
  <course>308.25</course>
  <speed>5.01</speed>
  <fix>3d</fix>
</trkpt>
<trkpt lat="40.0717581" lon="-105.2276631">
  <ele>1583.01</ele>
  <time>2026-08-28T17:52:53Z</time>
  <course>309.55</course>
  <speed>4.98663213000518</speed>
  <fix>3d</fix>
</trkpt>
<trkpt lat="40.0717489" lon="-105.227648">
  <ele>1583.0</ele>
  <time>2026-08-28T17:52:53Z</time>
  <course>308.25</course>
  <speed>5.01</speed>
  <fix>3d</fix>
</trkpt>
<trkpt lat="40.0717609" lon="-105.2276677">
  <ele>1583.01</ele>
  <time>2026-08-28T17:52:53Z</time>
  <course>309.57</course>
  <speed>4.98663213000518</speed>
  <fix>3d</fix>
</trkpt>
<trkpt lat="40.0717545" lon="-105.2276573">
  <ele>1583.0</ele>
  <time>2026-08-28T17:52:53Z</time>
  <course>308.39</course>
  <speed>5.01</speed>
  <fix>3d</fix>
</trkpt>
<trkpt lat="40.0717637" lon="-105.2276722">
  <ele>1583.01</ele>
  <time>2026-08-28T17:52:53Z</time>
  <course>309.57</course>
  <speed>4.98663213000518</speed>
  <fix>3d</fix>
</trkpt>
<trkpt lat="40.0717545" lon="-105.2276573">
  <ele>1583.0</ele>
  <time>2026-08-28T17:52:53Z</time>
  <course>308.39</course>
  <speed>5.01</speed>
  <fix>3d</fix>
</trkpt>
<trkpt lat="40.0717665" lon="-105.2276768">
  <ele>1583.01</ele>
  <time>2026-08-28T17:52:53Z</time>
  <course>309.57</course>
  <speed>4.98663213000518</speed>
  <fix>3d</fix>
</trkpt>
<trkpt lat="40.0717601" lon="-105.2276665">
  <ele>1583.0</ele>
  <time>2026-08-28T17:52:53Z</time>
  <course>308.46</course>
  <speed>5.02</speed>
  <fix>3d</fix>
</trkpt>
<trkpt lat="40.0717693" lon="-105.2276814">
  <ele>1583.01</ele>
  <time>2026-08-28T17:52:53Z</time>
  <course>309.57</course>
  <speed>4.98663213000518</speed>
  <fix>3d</fix>
</trkpt>
<trkpt lat="40.0717657" lon="-105.2276757">
  <ele>1583.0</ele>
  <time>2026-08-28T17:52:53Z</time>
  <course>308.47</course>
  <speed>5.02</speed>
  <fix>3d</fix>
</trkpt>
<trkpt lat="40.0717721" lon="-105.227686">
  <ele>1583.0</ele>
  <time>2026-08-28T17:52:53Z</time>
  <course>309.57</course>
  <speed>4.98663213000518</speed>
  <fix>3d</fix>
</trkpt>
<trkpt lat="40.0717657" lon="-105.2276757">
  <ele>1583.0</ele>
  <time>2026-08-28T17:52:53Z</time>
  <course>308.47</course>
  <speed>5.02</speed>
  <fix>3d</fix>
</trkpt>
<trkpt lat="40.0717749" lon="-105.2276905">
  <ele>1583.0</ele>
  <time>2026-08-28T17:52:53Z</time>
  <course>309.56</course>
  <speed>4.98663213000518</speed>
  <fix>3d</fix>
</trkpt>
<trkpt lat="40.0717712" lon="-105.2276849">
  <ele>1583.0</ele>
  <time>2026-08-28T17:52:53Z</time>
  <course>308.47</course>
  <speed>5.02</speed>
  <fix>3d</fix>
</trkpt>
<trkpt lat="40.0717777" lon="-105.2276952">
  <ele>1583.0</ele>
  <time>2026-08-28T17:52:53Z</time>
  <course>309.56</course>
  <speed>4.98663213000518</speed>
  <fix>3d</fix>
</trkpt>
<trkpt lat="40.0717712" lon="-105.2276849">
  <ele>1583.0</ele>
  <time>2026-08-28T17:52:53Z</time>
  <course>308.47</course>
  <speed>5.02</speed>
  <fix>3d</fix>
</trkpt>
<trkpt lat="40.0717805" lon="-105.2276998">
  <ele>1583.01</ele>
  <time>2026-08-28T17:52:53Z</time>
  <course>309.56</course>
  <speed>4.98663213000518</speed>
  <fix>3d</fix>
</trkpt>
<trkpt lat="40.0717769" lon="-105.2276942">
  <ele>1583.0</ele>
  <time>2026-08-28T17:52:53Z</time>
  <course>308.47</course>
  <speed>5.02</speed>
  <fix>3d</fix>
</trkpt>
<trkpt lat="40.0717833" lon="-105.2277044">
  <ele>1583.01</ele>
  <time>2026-08-28T17:52:53Z</time>
  <course>309.56</course>
  <speed>4.98663213000518</speed>
  <fix>3d</fix>
</trkpt>
<trkpt lat="40.0717769" lon="-105.2276942">
  <ele>1583.0</ele>
  <time>2026-08-28T17:52:53Z</time>
  <course>308.47</course>
  <speed>5.02</speed>
  <fix>3d</fix>
</trkpt>
<trkpt lat="40.0717862" lon="-105.2277091">
  <ele>1583.01</ele>
  <time>2026-08-28T17:52:53Z</time>
  <course>309.56</course>
  <speed>4.98663213000518</speed>
  <fix>3d</fix>
</trkpt>
<trkpt lat="40.0717826" lon="-105.2277034">
  <ele>1583.0</ele>
  <time>2026-08-28T17:52:53Z</time>
  <course>308.47</course>
  <speed>5.02</speed>
  <fix>3d</fix>
</trkpt>
<trkpt lat="40.071789" lon="-105.2277138">
  <ele>1583.01</ele>
  <time>2026-08-28T17:52:53Z</time>
  <course>309.56</course>
  <speed>5.000689952396569</speed>
  <fix>3d</fix>
</trkpt>
<trkpt lat="40.0717826" lon="-105.2277034">
  <ele>1583.0</ele>
  <time>2026-08-28T17:52:53Z</time>
  <course>308.47</course>
  <speed>5.02</speed>
  <fix>3d</fix>
</trkpt>
<trkpt lat="40.0717918" lon="-105.2277184">
  <ele>1583.01</ele>
  <time>2026-08-28T17:52:53Z</time>
  <course>309.56</course>
  <speed>4.98663213000518</speed>
  <fix>3d</fix>
</trkpt>
<trkpt lat="40.0717882" lon="-105.2277127">
  <ele>1583.0</ele>
  <time>2026-08-28T17:52:53Z</time>
  <course>308.47</course>
  <speed>5.02</speed>
  <fix>3d</fix>
</trkpt>
<trkpt lat="40.0717947" lon="-105.227723">
  <ele>1583.01</ele>
  <time>2026-08-28T17:52:53Z</time>
  <course>309.56</course>
  <speed>4.964775926464355</speed>
  <fix>3d</fix>
</trkpt>
<trkpt lat="40.0717882" lon="-105.2277127">
  <ele>1583.0</ele>
  <time>2026-08-28T17:52:53Z</time>
  <course>308.47</course>
  <speed>5.02</speed>
  <fix>3d</fix>
</trkpt>
<trkpt lat="40.0717975" lon="-105.2277276">
  <ele>1583.02</ele>
  <time>2026-08-28T17:52:53Z</time>
  <course>309.56</course>
  <speed>4.922600938528331</speed>
  <fix>3d</fix>
</trkpt>
<trkpt lat="40.0717937" lon="-105.2277218">
  <ele>1583.0</ele>
  <time>2026-08-28T17:52:53Z</time>
  <course>308.47</course>
  <speed>4.98</speed>
  <fix>3d</fix>
</trkpt>
<trkpt lat="40.0718002" lon="-105.2277322">
  <ele>1583.02</ele>
  <time>2026-08-28T17:52:53Z</time>
  <course>309.56</course>
  <speed>4.872627627882106</speed>
  <fix>3d</fix>
</trkpt>
<trkpt lat="40.0717937" lon="-105.2277218">
  <ele>1583.0</ele>
  <time>2026-08-28T17:52:53Z</time>
  <course>308.47</course>
  <speed>4.98</speed>
  <fix>3d</fix>
</trkpt>
<trkpt lat="40.071803" lon="-105.2277367">
  <ele>1583.02</ele>
  <time>2026-08-28T17:52:53Z</time>
  <course>309.56</course>
  <speed>4.794538559653056</speed>
  <fix>3d</fix>
</trkpt>
<trkpt lat="40.0717992" lon="-105.2277309">
  <ele>1583.0</ele>
  <time>2026-08-28T17:52:53Z</time>
  <course>308.47</course>
  <speed>4.88</speed>
  <fix>3d</fix>
</trkpt>
<trkpt lat="40.0718056" lon="-105.2277411">
  <ele>1583.02</ele>
  <time>2026-08-28T17:52:53Z</time>
  <course>309.6</course>
  <speed>4.716449936127807</speed>
  <fix>3d</fix>
</trkpt>
<trkpt lat="40.0717992" lon="-105.2277309">
  <ele>1583.0</ele>
  <time>2026-08-28T17:52:53Z</time>
  <course>308.47</course>
  <speed>4.88</speed>
  <fix>3d</fix>
</trkpt>
<trkpt lat="40.0718083" lon="-105.2277454">
  <ele>1583.02</ele>
  <time>2026-08-28T17:52:53Z</time>
  <course>309.64</course>
  <speed>4.630561521025284</speed>
  <fix>3d</fix>
</trkpt>
<trkpt lat="40.0717992" lon="-105.2277309">
  <ele>1583.0</ele>
  <time>2026-08-28T17:52:53Z</time>
  <course>308.47</course>
  <speed>4.88</speed>
  <fix>3d</fix>
</trkpt>
<trkpt lat="40.0718108" lon="-105.2277496">
  <ele>1583.02</ele>
  <time>2026-08-28T17:52:53Z</time>
  <course>309.7</course>
  <speed>4.522830971858223</speed>
  <fix>3d</fix>
</trkpt>
<trkpt lat="40.0718047" lon="-105.2277398">
  <ele>1583.0</ele>
  <time>2026-08-28T17:52:53Z</time>
  <course>308.51</course>
  <speed>4.73</speed>
  <fix>3d</fix>
</trkpt>
<trkpt lat="40.0718133" lon="-105.2277537">
  <ele>1583.02</ele>
  <time>2026-08-28T17:52:53Z</time>
  <course>309.76</course>
  <speed>4.416616351914665</speed>
  <fix>3d</fix>
</trkpt>
<trkpt lat="40.0718047" lon="-105.2277398">
  <ele>1583.0</ele>
  <time>2026-08-28T17:52:53Z</time>
  <course>308.51</course>
  <speed>4.73</speed>
  <fix>3d</fix>
</trkpt>
<trkpt lat="40.0718158" lon="-105.2277576">
  <ele>1583.03</ele>
  <time>2026-08-28T17:52:53Z</time>
  <course>309.83</course>
  <speed>4.294834106225757</speed>
  <fix>3d</fix>
</trkpt>
<trkpt lat="40.0718099" lon="-105.2277484">
  <ele>1583.0</ele>
  <time>2026-08-28T17:52:53Z</time>
  <course>308.61</course>
  <speed>4.54</speed>
  <fix>3d</fix>
</trkpt>
<trkpt lat="40.0718181" lon="-105.2277615">
  <ele>1583.03</ele>
  <time>2026-08-28T17:52:53Z</time>
  <course>309.89</course>
  <speed>4.1667733319680345</speed>
  <fix>3d</fix>
</trkpt>
<trkpt lat="40.0718099" lon="-105.2277484">
  <ele>1583.0</ele>
  <time>2026-08-28T17:52:53Z</time>
  <course>308.61</course>
  <speed>4.54</speed>
  <fix>3d</fix>
</trkpt>
<trkpt lat="40.0718204" lon="-105.2277652">
  <ele>1583.03</ele>
  <time>2026-08-28T17:52:53Z</time>
  <course>309.95</course>
  <speed>4.04500927069395</speed>
  <fix>3d</fix>
</trkpt>
<trkpt lat="40.0718149" lon="-105.2277565">
  <ele>1583.0</ele>
  <time>2026-08-28T17:52:53Z</time>
  <course>308.73</course>
  <speed>4.32</speed>
  <fix>3d</fix>
</trkpt>
<trkpt lat="40.0718226" lon="-105.2277689">
  <ele>1583.03</ele>
  <time>2026-08-28T17:52:53Z</time>
  <course>310.01</course>
  <speed>3.9169503443367772</speed>
  <fix>3d</fix>
</trkpt>
<trkpt lat="40.0718196" lon="-105.2277642">
  <ele>1583.0</ele>
  <time>2026-08-28T17:52:53Z</time>
  <course>308.84</course>
  <speed>4.08</speed>
  <fix>3d</fix>
</trkpt>
<trkpt lat="40.0718248" lon="-105.2277724">
  <ele>1583.03</ele>
  <time>2026-08-28T17:52:53Z</time>
  <course>310.06</course>
  <speed>3.7888916585196784</speed>
  <fix>3d</fix>
</trkpt>
<trkpt lat="40.0718196" lon="-105.2277642">
  <ele>1583.0</ele>
  <time>2026-08-28T17:52:53Z</time>
  <course>308.84</course>
  <speed>4.08</speed>
  <fix>3d</fix>
</trkpt>
<trkpt lat="40.0718269" lon="-105.2277758">
  <ele>1583.03</ele>
  <time>2026-08-28T17:52:53Z</time>
  <course>310.11</course>
  <speed>3.654531433713493</speed>
  <fix>3d</fix>
</trkpt>
<trkpt lat="40.0718241" lon="-105.2277714">
  <ele>1583.0</ele>
  <time>2026-08-28T17:52:53Z</time>
  <course>308.95</course>
  <speed>3.83</speed>
  <fix>3d</fix>
</trkpt>
<trkpt lat="40.0718289" lon="-105.2277791">
  <ele>1583.03</ele>
  <time>2026-08-28T17:52:53Z</time>
  <course>310.16</course>
  <speed>3.518707148939792</speed>
  <fix>3d</fix>
</trkpt>
<trkpt lat="40.0718241" lon="-105.2277714">
  <ele>1583.0</ele>
  <time>2026-08-28T17:52:53Z</time>
  <course>308.95</course>
  <speed>3.83</speed>
  <fix>3d</fix>
</trkpt>
<trkpt lat="40.0718309" lon="-105.2277822">
  <ele>1583.03</ele>
  <time>2026-08-28T17:52:53Z</time>
  <course>310.25</course>
  <speed>3.3906489054456816</speed>
  <fix>3d</fix>
</trkpt>
<trkpt lat="40.0718282" lon="-105.2277781">
  <ele>1583.0</ele>
  <time>2026-08-28T17:52:53Z</time>
  <course>309.07</course>
  <speed>3.57</speed>
  <fix>3d</fix>
</trkpt>
<trkpt lat="40.0718328" lon="-105.2277853">
  <ele>1583.03</ele>
  <time>2026-08-28T17:52:53Z</time>
  <course>310.35</course>
  <speed>3.2625909948996057</speed>
  <fix>3d</fix>
</trkpt>
<trkpt lat="40.0718282" lon="-105.2277781">
  <ele>1583.0</ele>
  <time>2026-08-28T17:52:53Z</time>
  <course>309.07</course>
  <speed>3.57</speed>
  <fix>3d</fix>
</trkpt>
<trkpt lat="40.0718346" lon="-105.2277882">
  <ele>1583.03</ele>
  <time>2026-08-28T17:52:53Z</time>
  <course>310.43</course>
  <speed>3.126787488781417</speed>
  <fix>3d</fix>
</trkpt>
<trkpt lat="40.0718321" lon="-105.2277844">
  <ele>1583.0</ele>
  <time>2026-08-28T17:52:53Z</time>
  <course>309.22</course>
  <speed>3.31</speed>
  <fix>3d</fix>
</trkpt>
<trkpt lat="40.0718364" lon="-105.227791">
  <ele>1583.03</ele>
  <time>2026-08-28T17:52:53Z</time>
  <course>310.52</course>
  <speed>3.0050790339024367</speed>
  <fix>3d</fix>
</trkpt>
<trkpt lat="40.0718321" lon="-105.2277844">
  <ele>1583.0</ele>
  <time>2026-08-28T17:52:53Z</time>
  <course>309.22</course>
  <speed>3.31</speed>
  <fix>3d</fix>
</trkpt>
<trkpt lat="40.071838" lon="-105.2277937">
  <ele>1583.03</ele>
  <time>2026-08-28T17:52:53Z</time>
  <course>310.61</course>
  <speed>2.8770297183032363</speed>
  <fix>3d</fix>
</trkpt>
<trkpt lat="40.0718358" lon="-105.2277902">
  <ele>1583.0</ele>
  <time>2026-08-28T17:52:53Z</time>
  <course>309.39</course>
  <speed>3.06</speed>
  <fix>3d</fix>
</trkpt>
<trkpt lat="40.0718397" lon="-105.2277963">
  <ele>1583.03</ele>
  <time>2026-08-28T17:52:53Z</time>
  <course>310.72</course>
  <speed>2.7489816296221408</speed>
  <fix>3d</fix>
</trkpt>
<trkpt lat="40.0718358" lon="-105.2277902">
  <ele>1583.0</ele>
  <time>2026-08-28T17:52:53Z</time>
  <course>309.39</course>
  <speed>3.06</speed>
  <fix>3d</fix>
</trkpt>
<trkpt lat="40.0718412" lon="-105.2277988">
  <ele>1583.03</ele>
  <time>2026-08-28T17:52:53Z</time>
  <course>310.84</course>
  <speed>2.6350142314606195</speed>
  <fix>3d</fix>
</trkpt>
<trkpt lat="40.0718392" lon="-105.2277955">
  <ele>1583.0</ele>
  <time>2026-08-28T17:52:53Z</time>
  <course>309.59</course>
  <speed>2.81</speed>
  <fix>3d</fix>
</trkpt>
<trkpt lat="40.0718427" lon="-105.2278011">
  <ele>1583.03</ele>
  <time>2026-08-28T17:52:53Z</time>
  <course>310.95</course>
  <speed>2.5210513679812236</speed>
  <fix>3d</fix>
</trkpt>
<trkpt lat="40.0718392" lon="-105.2277955">
  <ele>1583.0</ele>
  <time>2026-08-28T17:52:53Z</time>
  <course>309.59</course>
  <speed>2.81</speed>
  <fix>3d</fix>
</trkpt>
<trkpt lat="40.0718441" lon="-105.2278033">
  <ele>1583.03</ele>
  <time>2026-08-28T17:52:53Z</time>
  <course>311.08</course>
  <speed>2.399416595758227</speed>
  <fix>3d</fix>
</trkpt>
<trkpt lat="40.0718422" lon="-105.2278004">
  <ele>1583.0</ele>
  <time>2026-08-28T17:52:53Z</time>
  <course>309.83</course>
  <speed>2.57</speed>
  <fix>3d</fix>
</trkpt>
<trkpt lat="40.0718455" lon="-105.2278055">
  <ele>1583.02</ele>
  <time>2026-08-28T17:52:53Z</time>
  <course>311.22</course>
  <speed>2.285475880424031</speed>
  <fix>3d</fix>
</trkpt>
<trkpt lat="40.0718422" lon="-105.2278004">
  <ele>1583.0</ele>
  <time>2026-08-28T17:52:53Z</time>
  <course>309.83</course>
  <speed>2.57</speed>
  <fix>3d</fix>
</trkpt>
<trkpt lat="40.0718468" lon="-105.2278075">
  <ele>1583.02</ele>
  <time>2026-08-28T17:52:53Z</time>
  <course>311.37</course>
  <speed>2.171543230055529</speed>
  <fix>3d</fix>
</trkpt>
<trkpt lat="40.0718422" lon="-105.2278004">
  <ele>1583.0</ele>
  <time>2026-08-28T17:52:53Z</time>
  <course>309.83</course>
  <speed>2.57</speed>
  <fix>3d</fix>
</trkpt>
<trkpt lat="40.071848" lon="-105.2278094">
  <ele>1583.03</ele>
  <time>2026-08-28T17:52:53Z</time>
  <course>311.54</course>
  <speed>2.057619984350852</speed>
  <fix>3d</fix>
</trkpt>
<trkpt lat="40.0718451" lon="-105.2278048">
  <ele>1583.0</ele>
  <time>2026-08-28T17:52:53Z</time>
  <course>310.09</course>
  <speed>2.35</speed>
  <fix>3d</fix>
</trkpt>
<trkpt lat="40.0718492" lon="-105.2278112">
  <ele>1583.03</ele>
  <time>2026-08-28T17:52:53Z</time>
  <course>311.73</course>
  <speed>1.9578048932414078</speed>
  <fix>3d</fix>
</trkpt>
<trkpt lat="40.0718451" lon="-105.2278048">
  <ele>1583.0</ele>
  <time>2026-08-28T17:52:53Z</time>
  <course>310.09</course>
  <speed>2.35</speed>
  <fix>3d</fix>
</trkpt>
<trkpt lat="40.0718503" lon="-105.2278129">
  <ele>1583.03</ele>
  <time>2026-08-28T17:52:53Z</time>
  <course>311.93</course>
  <speed>1.8580096878111265</speed>
  <fix>3d</fix>
</trkpt>
<trkpt lat="40.0718477" lon="-105.2278089">
  <ele>1583.0</ele>
  <time>2026-08-28T17:52:53Z</time>
  <course>310.41</course>
  <speed>2.13</speed>
  <fix>3d</fix>
</trkpt>
<trkpt lat="40.0718514" lon="-105.2278145">
  <ele>1583.03</ele>
  <time>2026-08-28T17:52:53Z</time>
  <course>312.16</course>
  <speed>1.7506855799943062</speed>
  <fix>3d</fix>
</trkpt>
<trkpt lat="40.0718477" lon="-105.2278089">
  <ele>1583.0</ele>
  <time>2026-08-28T17:52:53Z</time>
  <course>310.41</course>
  <speed>2.13</speed>
  <fix>3d</fix>
</trkpt>
<trkpt lat="40.0718524" lon="-105.227816">
  <ele>1583.04</ele>
  <time>2026-08-28T17:52:53Z</time>
  <course>312.42</course>
  <speed>1.650969412193939</speed>
  <fix>3d</fix>
</trkpt>
<trkpt lat="40.07185" lon="-105.2278125">
  <ele>1583.0</ele>
  <time>2026-08-28T17:52:53Z</time>
  <course>310.8</course>
  <speed>1.92</speed>
  <fix>3d</fix>
</trkpt>
<trkpt lat="40.0718533" lon="-105.2278174">
  <ele>1583.04</ele>
  <time>2026-08-28T17:52:53Z</time>
  <course>312.72</course>
  <speed>1.5512897859523216</speed>
  <fix>3d</fix>
</trkpt>
<trkpt lat="40.07185" lon="-105.2278125">
  <ele>1583.0</ele>
  <time>2026-08-28T17:52:53Z</time>
  <course>310.8</course>
  <speed>1.92</speed>
  <fix>3d</fix>
</trkpt>
<trkpt lat="40.0718542" lon="-105.2278188">
  <ele>1583.04</ele>
  <time>2026-08-28T17:52:53Z</time>
  <course>313.07</course>
  <speed>1.4516542288024377</speed>
  <fix>3d</fix>
</trkpt>
<trkpt lat="40.0718521" lon="-105.2278156">
  <ele>1583.0</ele>
  <time>2026-08-28T17:52:53Z</time>
  <course>311.29</course>
  <speed>1.72</speed>
  <fix>3d</fix>
</trkpt>
<trkpt lat="40.0718551" lon="-105.22782">
  <ele>1583.04</ele>
  <time>2026-08-28T17:52:53Z</time>
  <course>313.47</course>
  <speed>1.3520724832641184</speed>
  <fix>3d</fix>
</trkpt>
<trkpt lat="40.0718541" lon="-105.2278185">
  <ele>1583.0</ele>
  <time>2026-08-28T17:52:53Z</time>
  <course>311.93</course>
  <speed>1.52</speed>
  <fix>3d</fix>
</trkpt>
<trkpt lat="40.0718559" lon="-105.2278211">
  <ele>1583.03</ele>
  <time>2026-08-28T17:52:53Z</time>
  <course>313.95</course>
  <speed>1.2525573839150046</speed>
  <fix>3d</fix>
</trkpt>
<trkpt lat="40.0718541" lon="-105.2278185">
  <ele>1583.0</ele>
  <time>2026-08-28T17:52:53Z</time>
  <course>311.93</course>
  <speed>1.52</speed>
  <fix>3d</fix>
</trkpt>
<trkpt lat="40.0718567" lon="-105.2278222">
  <ele>1583.03</ele>
  <time>2026-08-28T17:52:53Z</time>
  <course>314.52</course>
  <speed>1.16</speed>
  <fix>3d</fix>
</trkpt>
<trkpt lat="40.0718559" lon="-105.227821">
  <ele>1583.0</ele>
  <time>2026-08-28T17:52:53Z</time>
  <course>312.82</course>
  <speed>1.33</speed>
  <fix>3d</fix>
</trkpt>
<trkpt lat="40.0718574" lon="-105.2278232">
  <ele>1583.03</ele>
  <time>2026-08-28T17:52:53Z</time>
  <course>315.17</course>
  <speed>1.0607544484940896</speed>
  <fix>3d</fix>
</trkpt>
<trkpt lat="40.0718559" lon="-105.227821">
  <ele>1583.0</ele>
  <time>2026-08-28T17:52:53Z</time>
  <course>312.82</course>
  <speed>1.33</speed>
  <fix>3d</fix>
</trkpt>
<trkpt lat="40.071858" lon="-105.227824">
  <ele>1583.03</ele>
  <time>2026-08-28T17:52:53Z</time>
  <course>315.45</course>
  <speed>0.9687620966986684</speed>
  <fix>3d</fix>
</trkpt>
<trkpt lat="40.0718574" lon="-105.2278231">
  <ele>1583.0</ele>
  <time>2026-08-28T17:52:53Z</time>
  <course>313.81</course>
  <speed>1.14</speed>
  <fix>3d</fix>
</trkpt>
<trkpt lat="40.0718586" lon="-105.2278248">
  <ele>1583.02</ele>
  <time>2026-08-28T17:52:53Z</time>
  <course>315.24</course>
  <speed>0.8697700845625813</speed>
  <fix>3d</fix>
</trkpt>
<trkpt lat="40.0718574" lon="-105.2278231">
  <ele>1583.0</ele>
  <time>2026-08-28T17:52:53Z</time>
  <course>313.81</course>
  <speed>1.14</speed>
  <fix>3d</fix>
</trkpt>
<trkpt lat="40.0718592" lon="-105.2278256">
  <ele>1583.02</ele>
  <time>2026-08-28T17:52:53Z</time>
  <course>314.46</course>
  <speed>0.777946013551069</speed>
  <fix>3d</fix>
</trkpt>
<trkpt lat="40.0718587" lon="-105.2278249">
  <ele>1583.0</ele>
  <time>2026-08-28T17:52:53Z</time>
  <course>313.86</course>
  <speed>0.95</speed>
  <fix>3d</fix>
</trkpt>
<trkpt lat="40.0718597" lon="-105.2278262">
  <ele>1583.02</ele>
  <time>2026-08-28T17:52:53Z</time>
  <course>313.26</course>
  <speed>0.686804193347711</speed>
  <fix>3d</fix>
</trkpt>
<trkpt lat="40.0718587" lon="-105.2278249">
  <ele>1583.0</ele>
  <time>2026-08-28T17:52:53Z</time>
  <course>313.86</course>
  <speed>0.95</speed>
  <fix>3d</fix>
</trkpt>
<trkpt lat="40.0718601" lon="-105.2278268">
  <ele>1583.02</ele>
  <time>2026-08-28T17:52:53Z</time>
  <course>312.13</course>
  <speed>0.587962583843564</speed>
  <fix>3d</fix>
</trkpt>
<trkpt lat="40.0718597" lon="-105.2278264">
  <ele>1583.0</ele>
  <time>2026-08-28T17:52:53Z</time>
  <course>312.3</course>
  <speed>0.76</speed>
  <fix>3d</fix>
</trkpt>
<trkpt lat="40.0718604" lon="-105.2278274">
  <ele>1583.01</ele>
  <time>2026-08-28T17:52:53Z</time>
  <course>310.98</course>
  <speed>0.49678969393496886</speed>
  <fix>3d</fix>
</trkpt>
<trkpt lat="40.0718597" lon="-105.2278264">
  <ele>1583.0</ele>
  <time>2026-08-28T17:52:53Z</time>
  <course>312.3</course>
  <speed>0.76</speed>
  <fix>3d</fix>
</trkpt>
<trkpt lat="40.0718607" lon="-105.2278278">
  <ele>1583.01</ele>
  <time>2026-08-28T17:52:53Z</time>
  <course>309.86</course>
  <speed>0.41231056256176607</speed>
  <fix>3d</fix>
</trkpt>
<trkpt lat="40.0718605" lon="-105.2278276">
  <ele>1583.0</ele>
  <time>2026-08-28T17:52:53Z</time>
  <course>310.02</course>
  <speed>0.57</speed>
  <fix>3d</fix>
</trkpt>
<trkpt lat="40.0718609" lon="-105.2278282">
  <ele>1583.01</ele>
  <time>2026-08-28T17:52:53Z</time>
  <course>308.73</course>
  <speed>0.35608987629529715</speed>
  <fix>3d</fix>
</trkpt>
<trkpt lat="40.0718605" lon="-105.2278276">
  <ele>1583.0</ele>
  <time>2026-08-28T17:52:53Z</time>
  <course>310.02</course>
  <speed>0.57</speed>
  <fix>3d</fix>
</trkpt>
<trkpt lat="40.0718611" lon="-105.2278286">
  <ele>1583.01</ele>
  <time>2026-08-28T17:52:53Z</time>
  <course>307.55</course>
  <speed>0.3280243893371345</speed>
  <fix>3d</fix>
</trkpt>
<trkpt lat="40.0718611" lon="-105.2278284">
  <ele>1583.0</ele>
  <time>2026-08-28T17:52:53Z</time>
  <course>307.65</course>
  <speed>0.44</speed>
  <fix>3d</fix>
</trkpt>
<trkpt lat="40.0718613" lon="-105.2278289">
  <ele>1583.01</ele>
  <time>2026-08-28T17:52:53Z</time>
  <course>306.23</course>
  <speed>0.3301514803843835</speed>
  <fix>3d</fix>
</trkpt>
<trkpt lat="40.0718611" lon="-105.2278284">
  <ele>1583.0</ele>
  <time>2026-08-28T17:52:53Z</time>
  <course>307.65</course>
  <speed>0.44</speed>
  <fix>3d</fix>
</trkpt>
<trkpt lat="40.0718615" lon="-105.2278293">
  <ele>1583.01</ele>
  <time>2026-08-28T17:52:53Z</time>
  <course>304.69</course>
  <speed>0.3605551275463989</speed>
  <fix>3d</fix>
</trkpt>
<trkpt lat="40.0718611" lon="-105.2278284">
  <ele>1583.0</ele>
  <time>2026-08-28T17:52:53Z</time>
  <course>307.65</course>
  <speed>0.44</speed>
  <fix>3d</fix>
</trkpt>
<trkpt lat="40.0718618" lon="-105.2278297">
  <ele>1583.02</ele>
  <time>2026-08-28T17:52:53Z</time>
  <course>302.91</course>
  <speed>0.41340053217188777</speed>
  <fix>3d</fix>
</trkpt>
<trkpt lat="40.0718616" lon="-105.2278293">
  <ele>1583.0</ele>
  <time>2026-08-28T17:52:53Z</time>
  <course>304.9</course>
  <speed>0.41</speed>
  <fix>3d</fix>
</trkpt>
<trkpt lat="40.071862" lon="-105.2278302">
  <ele>1583.02</ele>
  <time>2026-08-28T17:52:53Z</time>
  <course>300.8</course>
  <speed>0.48877397639399744</speed>
  <fix>3d</fix>
</trkpt>
<trkpt lat="40.0718616" lon="-105.2278293">
  <ele>1583.0</ele>
  <time>2026-08-28T17:52:53Z</time>
  <course>304.9</course>
  <speed>0.41</speed>
  <fix>3d</fix>
</trkpt>
<trkpt lat="40.0718623" lon="-105.2278309">
  <ele>1583.01</ele>
  <time>2026-08-28T17:52:53Z</time>
  <course>298.21</course>
  <speed>0.5859180830116101</speed>
  <fix>3d</fix>
</trkpt>
<trkpt lat="40.071862" lon="-105.2278302">
  <ele>1583.0</ele>
  <time>2026-08-28T17:52:53Z</time>
  <course>301.31</course>
  <speed>0.49</speed>
  <fix>3d</fix>
</trkpt>
<trkpt lat="40.0718626" lon="-105.2278316">
  <ele>1583.01</ele>
  <time>2026-08-28T17:52:53Z</time>
  <course>294.99</course>
  <speed>0.6935416353759881</speed>
  <fix>3d</fix>
</trkpt>
<trkpt lat="40.071862" lon="-105.2278302">
  <ele>1583.0</ele>
  <time>2026-08-28T17:52:53Z</time>
  <course>301.31</course>
  <speed>0.49</speed>
  <fix>3d</fix>
</trkpt>
<trkpt lat="40.0718628" lon="-105.2278325">
  <ele>1583.02</ele>
  <time>2026-08-28T17:52:53Z</time>
  <course>290.94</course>
  <speed>0.8193289937503738</speed>
  <fix>3d</fix>
</trkpt>
<trkpt lat="40.0718625" lon="-105.2278314">
  <ele>1583.0</ele>
  <time>2026-08-28T17:52:53Z</time>
  <course>296.24</course>
  <speed>0.66</speed>
  <fix>3d</fix>
</trkpt>
<trkpt lat="40.0718631" lon="-105.2278336">
  <ele>1583.02</ele>
  <time>2026-08-28T17:52:53Z</time>
  <course>285.8</course>
  <speed>0.9630160954002794</speed>
  <fix>3d</fix>
</trkpt>
<trkpt lat="40.071863" lon="-105.227833">
  <ele>1583.0</ele>
  <time>2026-08-28T17:52:53Z</time>
  <course>288.52</course>
  <speed>0.89</speed>
  <fix>3d</fix>
</trkpt>
<trkpt lat="40.0718633" lon="-105.2278349">
  <ele>1583.02</ele>
  <time>2026-08-28T17:52:53Z</time>
  <course>279.34</course>
  <speed>1.1002726934719411</speed>
  <fix>3d</fix>
</trkpt>
<trkpt lat="40.071863" lon="-105.227833">
  <ele>1583.0</ele>
  <time>2026-08-28T17:52:53Z</time>
  <course>288.52</course>
  <speed>0.89</speed>
  <fix>3d</fix>
</trkpt>
<trkpt lat="40.0718634" lon="-105.2278363">
  <ele>1583.02</ele>
  <time>2026-08-28T17:52:53Z</time>
  <course>271.86</course>
  <speed>1.2300406497347964</speed>
  <fix>3d</fix>
</trkpt>
<trkpt lat="40.0718634" lon="-105.2278353">
  <ele>1583.0</ele>
  <time>2026-08-28T17:52:53Z</time>
  <course>276.83</course>
  <speed>1.14</speed>
  <fix>3d</fix>
</trkpt>
<trkpt lat="40.0718633" lon="-105.227838">
  <ele>1583.01</ele>
  <time>2026-08-28T17:52:53Z</time>
  <course>263.47</course>
  <speed>1.3421251804507657</speed>
  <fix>3d</fix>
</trkpt>
<trkpt lat="40.0718634" lon="-105.2278353">
  <ele>1583.0</ele>
  <time>2026-08-28T17:52:53Z</time>
  <course>276.83</course>
  <speed>1.14</speed>
  <fix>3d</fix>
</trkpt>
<trkpt lat="40.0718631" lon="-105.2278396">
  <ele>1583.01</ele>
  <time>2026-08-28T17:52:53Z</time>
  <course>254.29</course>
  <speed>1.4549914089093448</speed>
  <fix>3d</fix>
</trkpt>
<trkpt lat="40.0718634" lon="-105.2278383">
  <ele>1583.0</ele>
  <time>2026-08-28T17:52:53Z</time>
  <course>261.11</course>
  <speed>1.37</speed>
  <fix>3d</fix>
</trkpt>
<trkpt lat="40.0718626" lon="-105.2278414">
  <ele>1583.01</ele>
  <time>2026-08-28T17:52:53Z</time>
  <course>244.48</course>
  <speed>1.5519342769589182</speed>
  <fix>3d</fix>
</trkpt>
<trkpt lat="40.0718634" lon="-105.2278383">
  <ele>1583.0</ele>
  <time>2026-08-28T17:52:53Z</time>
  <course>261.11</course>
  <speed>1.37</speed>
  <fix>3d</fix>
</trkpt>
<trkpt lat="40.0718618" lon="-105.2278431">
  <ele>1583.01</ele>
  <time>2026-08-28T17:52:53Z</time>
  <course>234.12</course>
  <speed>1.6322070947033651</speed>
  <fix>3d</fix>
</trkpt>
<trkpt lat="40.0718626" lon="-105.2278415">
  <ele>1583.0</ele>
  <time>2026-08-28T17:52:53Z</time>
  <course>242.34</course>
  <speed>1.55</speed>
  <fix>3d</fix>
</trkpt>
<trkpt lat="40.0718607" lon="-105.2278446">
  <ele>1583.01</ele>
  <time>2026-08-28T17:52:53Z</time>
  <course>223.41</course>
  <speed>1.7074249617479536</speed>
  <fix>3d</fix>
</trkpt>
<trkpt lat="40.0718626" lon="-105.2278415">
  <ele>1583.0</ele>
  <time>2026-08-28T17:52:53Z</time>
  <course>242.34</course>
  <speed>1.55</speed>
  <fix>3d</fix>
</trkpt>
<trkpt lat="40.0718594" lon="-105.2278458">
  <ele>1583.01</ele>
  <time>2026-08-28T17:52:53Z</time>
  <course>212.8</course>
  <speed>1.7750774630984418</speed>
  <fix>3d</fix>
</trkpt>
<trkpt lat="40.0718608" lon="-105.2278445">
  <ele>1583.0</ele>
  <time>2026-08-28T17:52:53Z</time>
  <course>221.81</course>
  <speed>1.69</speed>
  <fix>3d</fix>
</trkpt>
<trkpt lat="40.0718579" lon="-105.2278468">
  <ele>1583.01</ele>
  <time>2026-08-28T17:52:53Z</time>
  <course>202.18</course>
  <speed>1.828332573685652</speed>
  <fix>3d</fix>
</trkpt>
<trkpt lat="40.0718608" lon="-105.2278445">
  <ele>1583.0</ele>
  <time>2026-08-28T17:52:53Z</time>
  <course>221.81</course>
  <speed>1.69</speed>
  <fix>3d</fix>
</trkpt>
<trkpt lat="40.0718563" lon="-105.2278473">
  <ele>1583.01</ele>
  <time>2026-08-28T17:52:53Z</time>
  <course>191.61</course>
  <speed>1.8741664813991312</speed>
  <fix>3d</fix>
</trkpt>
<trkpt lat="40.0718581" lon="-105.2278466">
  <ele>1583.0</ele>
  <time>2026-08-28T17:52:53Z</time>
  <course>200.75</course>
  <speed>1.79</speed>
  <fix>3d</fix>
</trkpt>
<trkpt lat="40.0718545" lon="-105.2278475">
  <ele>1583.01</ele>
  <time>2026-08-28T17:52:53Z</time>
  <course>181.84</course>
  <speed>1.9200260414900625</speed>
  <fix>3d</fix>
</trkpt>
<trkpt lat="40.0718581" lon="-105.2278466">
  <ele>1583.0</ele>
  <time>2026-08-28T17:52:53Z</time>
  <course>200.75</course>
  <speed>1.79</speed>
  <fix>3d</fix>
</trkpt>
<trkpt lat="40.0718527" lon="-105.2278473">
  <ele>1583.0</ele>
  <time>2026-08-28T17:52:53Z</time>
  <course>173.11</course>
  <speed>1.984363877921587</speed>
  <fix>3d</fix>
</trkpt>
<trkpt lat="40.071855" lon="-105.2278474">
  <ele>1583.0</ele>
  <time>2026-08-28T17:52:53Z</time>
  <course>180.95</course>
  <speed>1.89</speed>
  <fix>3d</fix>
</trkpt>
<trkpt lat="40.0718509" lon="-105.2278467">
  <ele>1583.0</ele>
  <time>2026-08-28T17:52:53Z</time>
  <course>165.41</course>
  <speed>2.0468756679388225</speed>
  <fix>3d</fix>
</trkpt>
<trkpt lat="40.071855" lon="-105.2278474">
  <ele>1583.0</ele>
  <time>2026-08-28T17:52:53Z</time>
  <course>180.95</course>
  <speed>1.89</speed>
  <fix>3d</fix>
</trkpt>
<trkpt lat="40.0718492" lon="-105.2278459">
  <ele>1583.0</ele>
  <time>2026-08-28T17:52:53Z</time>
  <course>158.76</course>
  <speed>2.11404824921287</speed>
  <fix>3d</fix>
</trkpt>
<trkpt lat="40.071855" lon="-105.2278474">
  <ele>1583.0</ele>
  <time>2026-08-28T17:52:53Z</time>
  <course>180.95</course>
  <speed>1.89</speed>
  <fix>3d</fix>
</trkpt>
<trkpt lat="40.0718474" lon="-105.2278448">
  <ele>1583.0</ele>
  <time>2026-08-28T17:52:53Z</time>
  <course>153.17</course>
  <speed>2.179587116864109</speed>
  <fix>3d</fix>
</trkpt>
<trkpt lat="40.0718515" lon="-105.2278469">
  <ele>1583.0</ele>
  <time>2026-08-28T17:52:53Z</time>
  <course>164.54</course>
  <speed>2.0</speed>
  <fix>3d</fix>
</trkpt>
<trkpt lat="40.0718457" lon="-105.2278434">
  <ele>1583.0</ele>
  <time>2026-08-28T17:52:53Z</time>
  <course>148.64</course>
  <speed>2.2521101216414796</speed>
  <fix>3d</fix>
</trkpt>
<trkpt lat="40.0718515" lon="-105.2278469">
  <ele>1583.0</ele>
  <time>2026-08-28T17:52:53Z</time>
  <course>164.54</course>
  <speed>2.0</speed>
  <fix>3d</fix>
</trkpt>
<trkpt lat="40.0718441" lon="-105.2278419">
  <ele>1583.0</ele>
  <time>2026-08-28T17:52:53Z</time>
  <course>145.17</course>
  <speed>2.3360008561642265</speed>
  <fix>3d</fix>
</trkpt>
<trkpt lat="40.071848" lon="-105.2278451">
  <ele>1583.0</ele>
  <time>2026-08-28T17:52:53Z</time>
  <course>152.34</course>
  <speed>2.13</speed>
  <fix>3d</fix>
</trkpt>
<trkpt lat="40.0718424" lon="-105.2278402">
  <ele>1583.0</ele>
  <time>2026-08-28T17:52:53Z</time>
  <course>142.79</course>
  <speed>2.4239018131929355</speed>
  <fix>3d</fix>
</trkpt>
<trkpt lat="40.071848" lon="-105.2278451">
  <ele>1583.0</ele>
  <time>2026-08-28T17:52:53Z</time>
  <course>152.34</course>
  <speed>2.13</speed>
  <fix>3d</fix>
</trkpt>
<trkpt lat="40.0718407" lon="-105.2278383">
  <ele>1583.0</ele>
  <time>2026-08-28T17:52:53Z</time>
  <course>141.49</course>
  <speed>2.510975905897944</speed>
  <fix>3d</fix>
</trkpt>
<trkpt lat="40.0718447" lon="-105.2278423">
  <ele>1583.0</ele>
  <time>2026-08-28T17:52:53Z</time>
  <course>144.44</course>
  <speed>2.29</speed>
  <fix>3d</fix>
</trkpt>
<trkpt lat="40.071839" lon="-105.2278364">
  <ele>1582.99</ele>
  <time>2026-08-28T17:52:53Z</time>
  <course>141.1</course>
  <speed>2.602095309553438</speed>
  <fix>3d</fix>
</trkpt>
<trkpt lat="40.0718447" lon="-105.2278423">
  <ele>1583.0</ele>
  <time>2026-08-28T17:52:53Z</time>
  <course>144.44</course>
  <speed>2.29</speed>
  <fix>3d</fix>
</trkpt>
<trkpt lat="40.0718372" lon="-105.2278344">
  <ele>1582.99</ele>
  <time>2026-08-28T17:52:53Z</time>
  <course>140.77</course>
  <speed>2.6932879534130767</speed>
  <fix>3d</fix>
</trkpt>
<trkpt lat="40.0718413" lon="-105.2278389">
  <ele>1583.0</ele>
  <time>2026-08-28T17:52:53Z</time>
  <course>140.75</course>
  <speed>2.46</speed>
  <fix>3d</fix>
</trkpt>
<trkpt lat="40.0718354" lon="-105.2278323">
  <ele>1582.99</ele>
  <time>2026-08-28T17:52:53Z</time>
  <course>140.49</course>
  <speed>2.7920601712713857</speed>
  <fix>3d</fix>
</trkpt>
<trkpt lat="40.0718378" lon="-105.227835">
  <ele>1583.0</ele>
  <time>2026-08-28T17:52:53Z</time>
  <course>139.62</course>
  <speed>2.65</speed>
  <fix>3d</fix>
</trkpt>
<trkpt lat="40.0718335" lon="-105.2278301">
  <ele>1582.99</ele>
  <time>2026-08-28T17:52:53Z</time>
  <course>140.24</course>
  <speed>2.8974644087546615</speed>
  <fix>3d</fix>
</trkpt>
<trkpt lat="40.0718378" lon="-105.227835">
  <ele>1583.0</ele>
  <time>2026-08-28T17:52:53Z</time>
  <course>139.62</course>
  <speed>2.65</speed>
  <fix>3d</fix>
</trkpt>
<trkpt lat="40.0718315" lon="-105.2278278">
  <ele>1582.99</ele>
  <time>2026-08-28T17:52:53Z</time>
  <course>140.01</course>
  <speed>3.0029319006597537</speed>
  <fix>3d</fix>
</trkpt>
<trkpt lat="40.071834" lon="-105.2278308">
  <ele>1583.0</ele>
  <time>2026-08-28T17:52:53Z</time>
  <course>139.06</course>
  <speed>2.86</speed>
  <fix>3d</fix>
</trkpt>
<trkpt lat="40.0718294" lon="-105.2278254">
  <ele>1582.99</ele>
  <time>2026-08-28T17:52:53Z</time>
  <course>139.81</course>
  <speed>3.109228200052225</speed>
  <fix>3d</fix>
</trkpt>
<trkpt lat="40.071834" lon="-105.2278308">
  <ele>1583.0</ele>
  <time>2026-08-28T17:52:53Z</time>
  <course>139.06</course>
  <speed>2.86</speed>
  <fix>3d</fix>
</trkpt>
<trkpt lat="40.0718273" lon="-105.2278229">
  <ele>1582.99</ele>
  <time>2026-08-28T17:52:53Z</time>
  <course>139.6</course>
  <speed>3.214747268448952</speed>
  <fix>3d</fix>
</trkpt>
<trkpt lat="40.07183" lon="-105.2278262">
  <ele>1583.0</ele>
  <time>2026-08-28T17:52:53Z</time>
  <course>138.62</course>
  <speed>3.07</speed>
  <fix>3d</fix>
</trkpt>
<trkpt lat="40.0718251" lon="-105.2278204">
  <ele>1582.99</ele>
  <time>2026-08-28T17:52:53Z</time>
  <course>139.43</course>
  <speed>3.3277319603597886</speed>
  <fix>3d</fix>
</trkpt>
<trkpt lat="40.07183" lon="-105.2278262">
  <ele>1583.0</ele>
  <time>2026-08-28T17:52:53Z</time>
  <course>138.62</course>
  <speed>3.07</speed>
  <fix>3d</fix>
</trkpt>
<trkpt lat="40.0718228" lon="-105.2278177">
  <ele>1582.99</ele>
  <time>2026-08-28T17:52:53Z</time>
  <course>139.25</course>
  <speed>3.4474483317375477</speed>
  <fix>3d</fix>
</trkpt>
<trkpt lat="40.0718257" lon="-105.2278212">
  <ele>1583.0</ele>
  <time>2026-08-28T17:52:53Z</time>
  <course>138.24</course>
  <speed>3.3</speed>
  <fix>3d</fix>
</trkpt>
<trkpt lat="40.0718205" lon="-105.2278149">
  <ele>1582.99</ele>
  <time>2026-08-28T17:52:53Z</time>
  <course>139.06</course>
  <speed>3.5463361374804845</speed>
  <fix>3d</fix>
</trkpt>
<trkpt lat="40.0718257" lon="-105.2278212">
  <ele>1583.0</ele>
  <time>2026-08-28T17:52:53Z</time>
  <course>138.24</course>
  <speed>3.3</speed>
  <fix>3d</fix>
</trkpt>
<trkpt lat="40.0718181" lon="-105.227812">
  <ele>1582.99</ele>
  <time>2026-08-28T17:52:53Z</time>
  <course>138.78</course>
  <speed>3.6163655788650573</speed>
  <fix>3d</fix>
</trkpt>
<trkpt lat="40.0718211" lon="-105.2278159">
  <ele>1583.0</ele>
  <time>2026-08-28T17:52:53Z</time>
  <course>137.82</course>
  <speed>3.5</speed>
  <fix>3d</fix>
</trkpt>
<trkpt lat="40.0718156" lon="-105.2278091">
  <ele>1582.99</ele>
  <time>2026-08-28T17:52:53Z</time>
  <course>138.39</course>
  <speed>3.6577178677421256</speed>
  <fix>3d</fix>
</trkpt>
<trkpt lat="40.0718211" lon="-105.2278159">
  <ele>1583.0</ele>
  <time>2026-08-28T17:52:53Z</time>
  <course>137.82</course>
  <speed>3.5</speed>
  <fix>3d</fix>
</trkpt>
<trkpt lat="40.0718132" lon="-105.2278062">
  <ele>1582.99</ele>
  <time>2026-08-28T17:52:53Z</time>
  <course>137.89</course>
  <speed>3.671035276321926</speed>
  <fix>3d</fix>
</trkpt>
<trkpt lat="40.0718164" lon="-105.2278102">
  <ele>1583.0</ele>
  <time>2026-08-28T17:52:53Z</time>
  <course>137.14</course>
  <speed>3.61</speed>
  <fix>3d</fix>
</trkpt>
<trkpt lat="40.0718108" lon="-105.2278032">
  <ele>1582.99</ele>
  <time>2026-08-28T17:52:53Z</time>
  <course>137.26</course>
  <speed>3.6560771326655566</speed>
  <fix>3d</fix>
</trkpt>
<trkpt lat="40.0718164" lon="-105.2278102">
  <ele>1583.0</ele>
  <time>2026-08-28T17:52:53Z</time>
  <course>137.14</course>
  <speed>3.61</speed>
  <fix>3d</fix>
</trkpt>
<trkpt lat="40.0718085" lon="-105.2278002">
  <ele>1582.99</ele>
  <time>2026-08-28T17:52:53Z</time>
  <course>136.49</course>
  <speed>3.6133225707096783</speed>
  <fix>3d</fix>
</trkpt>
<trkpt lat="40.0718164" lon="-105.2278102">
  <ele>1583.0</ele>
  <time>2026-08-28T17:52:53Z</time>
  <course>137.14</course>
  <speed>3.61</speed>
  <fix>3d</fix>
</trkpt>
<trkpt lat="40.0718063" lon="-105.2277972">
  <ele>1582.99</ele>
  <time>2026-08-28T17:52:53Z</time>
  <course>135.56</course>
  <speed>3.550126758300329</speed>
  <fix>3d</fix>
</trkpt>
<trkpt lat="40.0718117" lon="-105.2278044">
  <ele>1583.0</ele>
  <time>2026-08-28T17:52:53Z</time>
  <course>135.99</course>
  <speed>3.61</speed>
  <fix>3d</fix>
</trkpt>
<trkpt lat="40.0718041" lon="-105.2277943">
  <ele>1582.98</ele>
  <time>2026-08-28T17:52:53Z</time>
  <course>134.46</course>
  <speed>3.4598410368107952</speed>
  <fix>3d</fix>
</trkpt>
<trkpt lat="40.0718117" lon="-105.2278044">
  <ele>1583.0</ele>
  <time>2026-08-28T17:52:53Z</time>
  <course>135.99</course>
  <speed>3.61</speed>
  <fix>3d</fix>
</trkpt>
<trkpt lat="40.0718021" lon="-105.2277914">
  <ele>1582.98</ele>
  <time>2026-08-28T17:52:53Z</time>
  <course>133.19</course>
  <speed>3.3575288531895002</speed>
  <fix>3d</fix>
</trkpt>
<trkpt lat="40.0718071" lon="-105.2277985">
  <ele>1583.0</ele>
  <time>2026-08-28T17:52:53Z</time>
  <course>134.29</course>
  <speed>3.5</speed>
  <fix>3d</fix>
</trkpt>
<trkpt lat="40.0718002" lon="-105.2277885">
  <ele>1582.98</ele>
  <time>2026-08-28T17:52:53Z</time>
  <course>131.77</course>
  <speed>3.2573148450832936</speed>
  <fix>3d</fix>
</trkpt>
<trkpt lat="40.0718071" lon="-105.2277985">
  <ele>1583.0</ele>
  <time>2026-08-28T17:52:53Z</time>
  <course>134.29</course>
  <speed>3.5</speed>
  <fix>3d</fix>
</trkpt>
<trkpt lat="40.0717984" lon="-105.2277857">
  <ele>1582.98</ele>
  <time>2026-08-28T17:52:53Z</time>
  <course>130.27</course>
  <speed>3.1453457679562034</speed>
  <fix>3d</fix>
</trkpt>
<trkpt lat="40.0718029" lon="-105.2277927">
  <ele>1583.0</ele>
  <time>2026-08-28T17:52:53Z</time>
  <course>131.95</course>
  <speed>3.33</speed>
  <fix>3d</fix>
</trkpt>
<trkpt lat="40.0717967" lon="-105.2277829">
  <ele>1582.98</ele>
  <time>2026-08-28T17:52:53Z</time>
  <course>128.84</course>
  <speed>3.0340237309553135</speed>
  <fix>3d</fix>
</trkpt>
<trkpt lat="40.0718029" lon="-105.2277927">
  <ele>1583.0</ele>
  <time>2026-08-28T17:52:53Z</time>
  <course>131.95</course>
  <speed>3.33</speed>
  <fix>3d</fix>
</trkpt>
<trkpt lat="40.0717952" lon="-105.2277801">
  <ele>1582.98</ele>
  <time>2026-08-28T17:52:53Z</time>
  <course>127.52</course>
  <speed>2.916659047609096</speed>
  <fix>3d</fix>
</trkpt>
<trkpt lat="40.0717991" lon="-105.2277869">
  <ele>1583.0</ele>
  <time>2026-08-28T17:52:53Z</time>
  <course>129.15</course>
  <speed>3.12</speed>
  <fix>3d</fix>
</trkpt>
<trkpt lat="40.0717937" lon="-105.2277774">
  <ele>1582.98</ele>
  <time>2026-08-28T17:52:53Z</time>
  <course>126.32</course>
  <speed>2.812561110447202</speed>
  <fix>3d</fix>
</trkpt>
<trkpt lat="40.0717958" lon="-105.2277813">
  <ele>1583.0</ele>
  <time>2026-08-28T17:52:53Z</time>
  <course>126.43</course>
  <speed>2.91</speed>
  <fix>3d</fix>
</trkpt>
<trkpt lat="40.0717924" lon="-105.2277748">
  <ele>1582.98</ele>
  <time>2026-08-28T17:52:53Z</time>
  <course>125.28</course>
  <speed>2.720827080135744</speed>
  <fix>3d</fix>
</trkpt>
<trkpt lat="40.0717958" lon="-105.2277813">
  <ele>1583.0</ele>
  <time>2026-08-28T17:52:53Z</time>
  <course>126.43</course>
  <speed>2.91</speed>
  <fix>3d</fix>
</trkpt>
<trkpt lat="40.0717911" lon="-105.2277722">
  <ele>1582.97</ele>
  <time>2026-08-28T17:52:53Z</time>
  <course>124.41</course>
  <speed>2.64372842780797</speed>
  <fix>3d</fix>
</trkpt>
<trkpt lat="40.0717929" lon="-105.2277759">
  <ele>1583.0</ele>
  <time>2026-08-28T17:52:53Z</time>
  <course>124.21</course>
  <speed>2.73</speed>
  <fix>3d</fix>
</trkpt>
<trkpt lat="40.0717898" lon="-105.2277696">
  <ele>1582.97</ele>
  <time>2026-08-28T17:52:53Z</time>
  <course>123.7</course>
  <speed>2.572663988942202</speed>
  <fix>3d</fix>
</trkpt>
<trkpt lat="40.0717929" lon="-105.2277759">
  <ele>1583.0</ele>
  <time>2026-08-28T17:52:53Z</time>
  <course>124.21</course>
  <speed>2.73</speed>
  <fix>3d</fix>
</trkpt>
<trkpt lat="40.0717887" lon="-105.2277671">
  <ele>1582.98</ele>
  <time>2026-08-28T17:52:53Z</time>
  <course>123.17</course>
  <speed>2.5210315349078836</speed>
  <fix>3d</fix>
</trkpt>
<trkpt lat="40.0717902" lon="-105.2277706">
  <ele>1583.0</ele>
  <time>2026-08-28T17:52:53Z</time>
  <course>122.62</course>
  <speed>2.59</speed>
  <fix>3d</fix>
</trkpt>
<trkpt lat="40.0717875" lon="-105.2277646">
  <ele>1582.97</ele>
  <time>2026-08-28T17:52:53Z</time>
  <course>122.82</course>
  <speed>2.47987902930768</speed>
  <fix>3d</fix>
</trkpt>
<trkpt lat="40.0717902" lon="-105.2277706">
  <ele>1583.0</ele>
  <time>2026-08-28T17:52:53Z</time>
  <course>122.62</course>
  <speed>2.59</speed>
  <fix>3d</fix>
</trkpt>
<trkpt lat="40.0717864" lon="-105.2277621">
  <ele>1582.97</ele>
  <time>2026-08-28T17:52:53Z</time>
  <course>122.65</course>
  <speed>2.4610770000144244</speed>
  <fix>3d</fix>
</trkpt>
<trkpt lat="40.0717878" lon="-105.2277656">
  <ele>1583.0</ele>
  <time>2026-08-28T17:52:53Z</time>
  <course>121.75</course>
  <speed>2.51</speed>
  <fix>3d</fix>
</trkpt>
<trkpt lat="40.0717852" lon="-105.2277596">
  <ele>1582.98</ele>
  <time>2026-08-28T17:52:53Z</time>
  <course>122.64</course>
  <speed>2.45246814454337</speed>
  <fix>3d</fix>
</trkpt>
<trkpt lat="40.0717878" lon="-105.2277656">
  <ele>1583.0</ele>
  <time>2026-08-28T17:52:53Z</time>
  <course>121.75</course>
  <speed>2.51</speed>
  <fix>3d</fix>
</trkpt>
<trkpt lat="40.0717841" lon="-105.2277572">
  <ele>1582.98</ele>
  <time>2026-08-28T17:52:53Z</time>
  <course>122.81</course>
  <speed>2.457580110596601</speed>
  <fix>3d</fix>
</trkpt>
<trkpt lat="40.0717855" lon="-105.2277606">
  <ele>1583.0</ele>
  <time>2026-08-28T17:52:53Z</time>
  <course>121.57</course>
  <speed>2.48</speed>
  <fix>3d</fix>
</trkpt>
<trkpt lat="40.0717829" lon="-105.2277547">
  <ele>1582.98</ele>
  <time>2026-08-28T17:52:53Z</time>
  <course>123.14</course>
  <speed>2.490180716333656</speed>
  <fix>3d</fix>
</trkpt>
<trkpt lat="40.0717855" lon="-105.2277606">
  <ele>1583.0</ele>
  <time>2026-08-28T17:52:53Z</time>
  <course>121.57</course>
  <speed>2.48</speed>
  <fix>3d</fix>
</trkpt>
<trkpt lat="40.0717817" lon="-105.2277522">
  <ele>1582.98</ele>
  <time>2026-08-28T17:52:53Z</time>
  <course>123.65</course>
  <speed>2.519622987670973</speed>
  <fix>3d</fix>
</trkpt>
<trkpt lat="40.0717831" lon="-105.2277556">
  <ele>1583.0</ele>
  <time>2026-08-28T17:52:53Z</time>
  <course>122.09</course>
  <speed>2.52</speed>
  <fix>3d</fix>
</trkpt>
<trkpt lat="40.0717804" lon="-105.2277496">
  <ele>1582.99</ele>
  <time>2026-08-28T17:52:53Z</time>
  <course>124.34</course>
  <speed>2.563201123595259</speed>
  <fix>3d</fix>
</trkpt>
<trkpt lat="40.0717831" lon="-105.2277556">
  <ele>1583.0</ele>
  <time>2026-08-28T17:52:53Z</time>
  <course>122.09</course>
  <speed>2.52</speed>
  <fix>3d</fix>
</trkpt>
<trkpt lat="40.0717791" lon="-105.2277471">
  <ele>1582.98</ele>
  <time>2026-08-28T17:52:53Z</time>
  <course>125.17</course>
  <speed>2.6265186083483205</speed>
  <fix>3d</fix>
</trkpt>
<trkpt lat="40.0717806" lon="-105.2277505">
  <ele>1583.0</ele>
  <time>2026-08-28T17:52:53Z</time>
  <course>123.29</course>
  <speed>2.61</speed>
  <fix>3d</fix>
</trkpt>
<trkpt lat="40.0717778" lon="-105.2277445">
  <ele>1582.98</ele>
  <time>2026-08-28T17:52:53Z</time>
  <course>126.14</course>
  <speed>2.6879360111431225</speed>
  <fix>3d</fix>
</trkpt>
<trkpt lat="40.0717806" lon="-105.2277505">
  <ele>1583.0</ele>
  <time>2026-08-28T17:52:53Z</time>
  <course>123.29</course>
  <speed>2.61</speed>
  <fix>3d</fix>
</trkpt>
<trkpt lat="40.0717763" lon="-105.2277419">
  <ele>1582.98</ele>
  <time>2026-08-28T17:52:53Z</time>
  <course>127.19</course>
  <speed>2.764416755845616</speed>
  <fix>3d</fix>
</trkpt>
<trkpt lat="40.0717806" lon="-105.2277505">
  <ele>1583.0</ele>
  <time>2026-08-28T17:52:53Z</time>
  <course>123.29</course>
  <speed>2.61</speed>
  <fix>3d</fix>
</trkpt>
<trkpt lat="40.0717748" lon="-105.2277392">
  <ele>1582.98</ele>
  <time>2026-08-28T17:52:53Z</time>
  <course>128.16</course>
  <speed>2.85</speed>
  <fix>3d</fix>
</trkpt>
<trkpt lat="40.0717779" lon="-105.2277454">
  <ele>1583.0</ele>
  <time>2026-08-28T17:52:53Z</time>
  <course>125.08</course>
  <speed>2.73</speed>
  <fix>3d</fix>
</trkpt>
<trkpt lat="40.0717732" lon="-105.2277365">
  <ele>1582.98</ele>
  <time>2026-08-28T17:52:53Z</time>
  <course>129.01</course>
  <speed>2.9363923443572726</speed>
  <fix>3d</fix>
</trkpt>
<trkpt lat="40.0717779" lon="-105.2277454">
  <ele>1583.0</ele>
  <time>2026-08-28T17:52:53Z</time>
  <course>125.08</course>
  <speed>2.73</speed>
  <fix>3d</fix>
</trkpt>
<trkpt lat="40.0717715" lon="-105.2277338">
  <ele>1582.99</ele>
  <time>2026-08-28T17:52:53Z</time>
  <course>129.77</course>
  <speed>3.0375812746328283</speed>
  <fix>3d</fix>
</trkpt>
<trkpt lat="40.0717749" lon="-105.22774">
  <ele>1583.0</ele>
  <time>2026-08-28T17:52:53Z</time>
  <course>127.01</course>
  <speed>2.89</speed>
  <fix>3d</fix>
</trkpt>
<trkpt lat="40.0717697" lon="-105.227731">
  <ele>1582.99</ele>
  <time>2026-08-28T17:52:53Z</time>
  <course>130.56</course>
  <speed>3.1317886263284116</speed>
  <fix>3d</fix>
</trkpt>
<trkpt lat="40.0717749" lon="-105.22774">
  <ele>1583.0</ele>
  <time>2026-08-28T17:52:53Z</time>
  <course>127.01</course>
  <speed>2.89</speed>
  <fix>3d</fix>
</trkpt>
<trkpt lat="40.0717678" lon="-105.2277281">
  <ele>1583.0</ele>
  <time>2026-08-28T17:52:53Z</time>
  <course>131.44</course>
  <speed>3.240941221312105</speed>
  <fix>3d</fix>
</trkpt>
<trkpt lat="40.0717716" lon="-105.2277345">
  <ele>1583.0</ele>
  <time>2026-08-28T17:52:53Z</time>
  <course>128.7</course>
  <speed>3.08</speed>
  <fix>3d</fix>
</trkpt>
<trkpt lat="40.0717658" lon="-105.2277252">
  <ele>1583.0</ele>
  <time>2026-08-28T17:52:53Z</time>
  <course>132.41</course>
  <speed>3.3575288531895002</speed>
  <fix>3d</fix>
</trkpt>
<trkpt lat="40.071768" lon="-105.2277287">
  <ele>1583.0</ele>
  <time>2026-08-28T17:52:53Z</time>
  <course>130.41</course>
  <speed>3.3</speed>
  <fix>3d</fix>
</trkpt>
<trkpt lat="40.0717637" lon="-105.2277222">
  <ele>1583.0</ele>
  <time>2026-08-28T17:52:53Z</time>
  <course>133.38</course>
  <speed>3.4677081768799405</speed>
  <fix>3d</fix>
</trkpt>
<trkpt lat="40.071768" lon="-105.2277287">
  <ele>1583.0</ele>
  <time>2026-08-28T17:52:53Z</time>
  <course>130.41</course>
  <speed>3.3</speed>
  <fix>3d</fix>
</trkpt>
<trkpt lat="40.0717615" lon="-105.2277191">
  <ele>1583.0</ele>
  <time>2026-08-28T17:52:53Z</time>
  <course>134.22</course>
  <speed>3.5789663312191133</speed>
  <fix>3d</fix>
</trkpt>
<trkpt lat="40.0717639" lon="-105.2277227">
  <ele>1583.0</ele>
  <time>2026-08-28T17:52:53Z</time>
  <course>132.24</course>
  <speed>3.52</speed>
  <fix>3d</fix>
</trkpt>
<trkpt lat="40.0717592" lon="-105.227716">
  <ele>1583.0</ele>
  <time>2026-08-28T17:52:53Z</time>
  <course>134.93</course>
  <speed>3.691341219665286</speed>
  <fix>3d</fix>
</trkpt>
<trkpt lat="40.0717639" lon="-105.2277227">
  <ele>1583.0</ele>
  <time>2026-08-28T17:52:53Z</time>
  <course>132.24</course>
  <speed>3.52</speed>
  <fix>3d</fix>
</trkpt>
<trkpt lat="40.0717567" lon="-105.2277128">
  <ele>1583.0</ele>
  <time>2026-08-28T17:52:53Z</time>
  <course>135.56</course>
  <speed>3.8113121100219542</speed>
  <fix>3d</fix>
</trkpt>
<trkpt lat="40.0717595" lon="-105.2277164">
  <ele>1583.0</ele>
  <time>2026-08-28T17:52:53Z</time>
  <course>133.81</course>
  <speed>3.74</speed>
  <fix>3d</fix>
</trkpt>
<trkpt lat="40.0717542" lon="-105.2277095">
  <ele>1583.0</ele>
  <time>2026-08-28T17:52:53Z</time>
  <course>136.12</course>
  <speed>3.9247547694091667</speed>
  <fix>3d</fix>
</trkpt>
<trkpt lat="40.0717595" lon="-105.2277164">
  <ele>1583.0</ele>
  <time>2026-08-28T17:52:53Z</time>
  <course>133.81</course>
  <speed>3.74</speed>
  <fix>3d</fix>
</trkpt>
<trkpt lat="40.0717516" lon="-105.2277062">
  <ele>1582.99</ele>
  <time>2026-08-28T17:52:53Z</time>
  <course>136.62</course>
  <speed>4.031401741330179</speed>
  <fix>3d</fix>
</trkpt>
<trkpt lat="40.0717546" lon="-105.22771">
  <ele>1583.0</ele>
  <time>2026-08-28T17:52:53Z</time>
  <course>135.02</course>
  <speed>3.96</speed>
  <fix>3d</fix>
</trkpt>
<trkpt lat="40.0717488" lon="-105.2277028">
  <ele>1582.99</ele>
  <time>2026-08-28T17:52:53Z</time>
  <course>137.06</course>
  <speed>4.145600077190274</speed>
  <fix>3d</fix>
</trkpt>
<trkpt lat="40.0717546" lon="-105.22771">
  <ele>1583.0</ele>
  <time>2026-08-28T17:52:53Z</time>
  <course>135.02</course>
  <speed>3.96</speed>
  <fix>3d</fix>
</trkpt>
<trkpt lat="40.071746" lon="-105.2276993">
  <ele>1582.99</ele>
  <time>2026-08-28T17:52:53Z</time>
  <course>137.46</course>
  <speed>4.252822592114559</speed>
  <fix>3d</fix>
</trkpt>
<trkpt lat="40.0717494" lon="-105.2277033">
  <ele>1583.0</ele>
  <time>2026-08-28T17:52:53Z</time>
  <course>135.97</course>
  <speed>4.18</speed>
  <fix>3d</fix>
</trkpt>
<trkpt lat="40.0717431" lon="-105.2276958">
  <ele>1582.99</ele>
  <time>2026-08-28T17:52:53Z</time>
  <course>137.82</course>
  <speed>4.360275220671283</speed>
  <fix>3d</fix>
</trkpt>
<trkpt lat="40.0717494" lon="-105.2277033">
  <ele>1583.0</ele>
  <time>2026-08-28T17:52:53Z</time>
  <course>135.97</course>
  <speed>4.18</speed>
  <fix>3d</fix>
</trkpt>
<trkpt lat="40.0717401" lon="-105.2276922">
  <ele>1582.98</ele>
  <time>2026-08-28T17:52:53Z</time>
  <course>138.16</course>
  <speed>4.460515665256653</speed>
  <fix>3d</fix>
</trkpt>
<trkpt lat="40.0717438" lon="-105.2276963">
  <ele>1583.0</ele>
  <time>2026-08-28T17:52:53Z</time>
  <course>136.74</course>
  <speed>4.39</speed>
  <fix>3d</fix>
</trkpt>
<trkpt lat="40.0717371" lon="-105.2276886">
  <ele>1582.98</ele>
  <time>2026-08-28T17:52:53Z</time>
  <course>138.47</course>
  <speed>4.560877108627243</speed>
  <fix>3d</fix>
</trkpt>
<trkpt lat="40.0717438" lon="-105.2276963">
  <ele>1583.0</ele>
  <time>2026-08-28T17:52:53Z</time>
  <course>136.74</course>
  <speed>4.39</speed>
  <fix>3d</fix>
</trkpt>
<trkpt lat="40.0717339" lon="-105.2276849">
  <ele>1582.98</ele>
  <time>2026-08-28T17:52:53Z</time>
  <course>138.76</course>
  <speed>4.647235737511064</speed>
  <fix>3d</fix>
</trkpt>
<trkpt lat="40.0717379" lon="-105.2276891">
  <ele>1583.0</ele>
  <time>2026-08-28T17:52:53Z</time>
  <course>137.4</course>
  <speed>4.58</speed>
  <fix>3d</fix>
</trkpt>
<trkpt lat="40.0717307" lon="-105.2276812">
  <ele>1582.98</ele>
  <time>2026-08-28T17:52:53Z</time>
  <course>139.01</course>
  <speed>4.719597440460362</speed>
  <fix>3d</fix>
</trkpt>
<trkpt lat="40.0717379" lon="-105.2276891">
  <ele>1583.0</ele>
  <time>2026-08-28T17:52:53Z</time>
  <course>137.4</course>
  <speed>4.58</speed>
  <fix>3d</fix>
</trkpt>
<trkpt lat="40.0717275" lon="-105.2276774">
  <ele>1582.98</ele>
  <time>2026-08-28T17:52:53Z</time>
  <course>139.27</course>
  <speed>4.7920767940424325</speed>
  <fix>3d</fix>
</trkpt>
<trkpt lat="40.0717379" lon="-105.2276891">
  <ele>1583.0</ele>
  <time>2026-08-28T17:52:53Z</time>
  <course>137.4</course>
  <speed>4.58</speed>
  <fix>3d</fix>
</trkpt>
<trkpt lat="40.0717242" lon="-105.2276736">
  <ele>1582.98</ele>
  <time>2026-08-28T17:52:53Z</time>
  <course>139.51</course>
  <speed>4.84298461694852</speed>
  <fix>3d</fix>
</trkpt>
<trkpt lat="40.0717317" lon="-105.2276817">
  <ele>1583.0</ele>
  <time>2026-08-28T17:52:53Z</time>
  <course>137.96</course>
  <speed>4.74</speed>
  <fix>3d</fix>
</trkpt>
<trkpt lat="40.0717209" lon="-105.2276699">
  <ele>1582.98</ele>
  <time>2026-08-28T17:52:53Z</time>
  <course>139.7</course>
  <speed>4.8798565552688125</speed>
  <fix>3d</fix>
</trkpt>
<trkpt lat="40.0717317" lon="-105.2276817">
  <ele>1583.0</ele>
  <time>2026-08-28T17:52:53Z</time>
  <course>137.96</course>
  <speed>4.74</speed>
  <fix>3d</fix>
</trkpt>
<trkpt lat="40.0717176" lon="-105.2276661">
  <ele>1582.99</ele>
  <time>2026-08-28T17:52:53Z</time>
  <course>139.9</course>
  <speed>4.909175083453431</speed>
  <fix>3d</fix>
</trkpt>
<trkpt lat="40.0717253" lon="-105.2276742">
  <ele>1583.0</ele>
  <time>2026-08-28T17:52:53Z</time>
  <course>138.44</course>
  <speed>4.85</speed>
  <fix>3d</fix>
</trkpt>
<trkpt lat="40.0717142" lon="-105.2276623">
  <ele>1582.99</ele>
  <time>2026-08-28T17:52:53Z</time>
  <course>140.1</course>
  <speed>4.924428900898053</speed>
  <fix>3d</fix>
</trkpt>
<trkpt lat="40.0717253" lon="-105.2276742">
  <ele>1583.0</ele>
  <time>2026-08-28T17:52:53Z</time>
  <course>138.44</course>
  <speed>4.85</speed>
  <fix>3d</fix>
</trkpt>
<trkpt lat="40.0717109" lon="-105.2276585">
  <ele>1583.0</ele>
  <time>2026-08-28T17:52:53Z</time>
  <course>140.3</course>
  <speed>4.926865129065337</speed>
  <fix>3d</fix>
</trkpt>
<trkpt lat="40.0717186" lon="-105.2276667">
  <ele>1583.0</ele>
  <time>2026-08-28T17:52:53Z</time>
  <course>138.86</course>
  <speed>4.92</speed>
  <fix>3d</fix>
</trkpt>
<trkpt lat="40.0717075" lon="-105.2276548">
  <ele>1583.0</ele>
  <time>2026-08-28T17:52:53Z</time>
  <course>140.43</course>
  <speed>4.912779254149325</speed>
  <fix>3d</fix>
</trkpt>
<trkpt lat="40.0717186" lon="-105.2276667">
  <ele>1583.0</ele>
  <time>2026-08-28T17:52:53Z</time>
  <course>138.86</course>
  <speed>4.92</speed>
  <fix>3d</fix>
</trkpt>
<trkpt lat="40.0717041" lon="-105.227651">
  <ele>1583.0</ele>
  <time>2026-08-28T17:52:53Z</time>
  <course>140.56</course>
  <speed>4.885898075072791</speed>
  <fix>3d</fix>
</trkpt>
<trkpt lat="40.0717119" lon="-105.2276591">
  <ele>1583.0</ele>
  <time>2026-08-28T17:52:53Z</time>
  <course>139.23</course>
  <speed>4.94</speed>
  <fix>3d</fix>
</trkpt>
<trkpt lat="40.0717008" lon="-105.2276474">
  <ele>1583.0</ele>
  <time>2026-08-28T17:52:53Z</time>
  <course>140.69</course>
  <speed>4.84365564424227</speed>
  <fix>3d</fix>
</trkpt>
<trkpt lat="40.0717052" lon="-105.2276515">
  <ele>1583.0</ele>
  <time>2026-08-28T17:52:53Z</time>
  <course>139.53</course>
  <speed>4.9</speed>
  <fix>3d</fix>
</trkpt>
<trkpt lat="40.0716975" lon="-105.2276437">
  <ele>1583.0</ele>
  <time>2026-08-28T17:52:53Z</time>
  <course>140.81</course>
  <speed>4.795049530505394</speed>
  <fix>3d</fix>
</trkpt>
<trkpt lat="40.0717052" lon="-105.2276515">
  <ele>1583.0</ele>
  <time>2026-08-28T17:52:53Z</time>
  <course>139.53</course>
  <speed>4.9</speed>
  <fix>3d</fix>
</trkpt>
<trkpt lat="40.0716942" lon="-105.2276401">
  <ele>1583.0</ele>
  <time>2026-08-28T17:52:53Z</time>
  <course>140.94</course>
  <speed>4.724669300596603</speed>
  <fix>3d</fix>
</trkpt>
<trkpt lat="40.0716986" lon="-105.2276441">
  <ele>1583.0</ele>
  <time>2026-08-28T17:52:53Z</time>
  <course>139.79</course>
  <speed>4.81</speed>
  <fix>3d</fix>
</trkpt>
<trkpt lat="40.071691" lon="-105.2276365">
  <ele>1583.0</ele>
  <time>2026-08-28T17:52:53Z</time>
  <course>141.02</course>
  <speed>4.640226287585552</speed>
  <fix>3d</fix>
</trkpt>
<trkpt lat="40.0716986" lon="-105.2276441">
  <ele>1583.0</ele>
  <time>2026-08-28T17:52:53Z</time>
  <course>139.79</course>
  <speed>4.81</speed>
  <fix>3d</fix>
</trkpt>
<trkpt lat="40.0716878" lon="-105.227633">
  <ele>1583.0</ele>
  <time>2026-08-28T17:52:53Z</time>
  <course>141.08</course>
  <speed>4.548054529136606</speed>
  <fix>3d</fix>
</trkpt>
<trkpt lat="40.071692" lon="-105.2276369">
  <ele>1583.0</ele>
  <time>2026-08-28T17:52:53Z</time>
  <course>140.0</course>
  <speed>4.66</speed>
  <fix>3d</fix>
</trkpt>
<trkpt lat="40.0716846" lon="-105.2276296">
  <ele>1583.0</ele>
  <time>2026-08-28T17:52:53Z</time>
  <course>141.14</course>
  <speed>4.44181269303423</speed>
  <fix>3d</fix>
</trkpt>
<trkpt lat="40.071692" lon="-105.2276369">
  <ele>1583.0</ele>
  <time>2026-08-28T17:52:53Z</time>
  <course>140.0</course>
  <speed>4.66</speed>
  <fix>3d</fix>
</trkpt>
<trkpt lat="40.0716816" lon="-105.2276262">
  <ele>1583.0</ele>
  <time>2026-08-28T17:52:53Z</time>
  <course>141.2</course>
  <speed>4.321504367694194</speed>
  <fix>3d</fix>
</trkpt>
<trkpt lat="40.0716858" lon="-105.2276301">
  <ele>1583.0</ele>
  <time>2026-08-28T17:52:53Z</time>
  <course>140.14</course>
  <speed>4.46</speed>
  <fix>3d</fix>
</trkpt>
<trkpt lat="40.0716786" lon="-105.227623">
  <ele>1583.0</ele>
  <time>2026-08-28T17:52:53Z</time>
  <course>141.25</course>
  <speed>4.193447269252351</speed>
  <fix>3d</fix>
</trkpt>
<trkpt lat="40.0716858" lon="-105.2276301">
  <ele>1583.0</ele>
  <time>2026-08-28T17:52:53Z</time>
  <course>140.14</course>
  <speed>4.46</speed>
  <fix>3d</fix>
</trkpt>
<trkpt lat="40.0716757" lon="-105.2276198">
  <ele>1582.99</ele>
  <time>2026-08-28T17:52:53Z</time>
  <course>141.31</course>
  <speed>4.065390510147826</speed>
  <fix>3d</fix>
</trkpt>
<trkpt lat="40.0716798" lon="-105.2276235">
  <ele>1583.0</ele>
  <time>2026-08-28T17:52:53Z</time>
  <course>140.26</course>
  <speed>4.22</speed>
  <fix>3d</fix>
</trkpt>
<trkpt lat="40.071673" lon="-105.2276168">
  <ele>1582.99</ele>
  <time>2026-08-28T17:52:53Z</time>
  <course>141.41</course>
  <speed>3.9247165502746824</speed>
  <fix>3d</fix>
</trkpt>
<trkpt lat="40.0716798" lon="-105.2276235">
  <ele>1583.0</ele>
  <time>2026-08-28T17:52:53Z</time>
  <course>140.26</course>
  <speed>4.22</speed>
  <fix>3d</fix>
</trkpt>
<trkpt lat="40.0716703" lon="-105.2276139">
  <ele>1582.99</ele>
  <time>2026-08-28T17:52:53Z</time>
  <course>141.49</course>
  <speed>3.782591704109763</speed>
  <fix>3d</fix>
</trkpt>
<trkpt lat="40.0716741" lon="-105.2276174">
  <ele>1583.0</ele>
  <time>2026-08-28T17:52:53Z</time>
  <course>140.4</course>
  <speed>3.95</speed>
  <fix>3d</fix>
</trkpt>
<trkpt lat="40.0716677" lon="-105.2276111">
  <ele>1583.0</ele>
  <time>2026-08-28T17:52:53Z</time>
  <course>141.6</course>
  <speed>3.6404670030093667</speed>
  <fix>3d</fix>
</trkpt>
<trkpt lat="40.0716741" lon="-105.2276174">
  <ele>1583.0</ele>
  <time>2026-08-28T17:52:53Z</time>
  <course>140.4</course>
  <speed>3.95</speed>
  <fix>3d</fix>
</trkpt>
<trkpt lat="40.0716652" lon="-105.2276084">
  <ele>1583.0</ele>
  <time>2026-08-28T17:52:53Z</time>
  <course>141.69</course>
  <speed>3.48427897849756</speed>
  <fix>3d</fix>
</trkpt>
<trkpt lat="40.0716688" lon="-105.2276117">
  <ele>1583.0</ele>
  <time>2026-08-28T17:52:53Z</time>
  <course>140.59</course>
  <speed>3.67</speed>
  <fix>3d</fix>
</trkpt>
<trkpt lat="40.0716629" lon="-105.2276059">
  <ele>1582.99</ele>
  <time>2026-08-28T17:52:53Z</time>
  <course>141.79</course>
  <speed>3.3358806933102385</speed>
  <fix>3d</fix>
</trkpt>
<trkpt lat="40.0716688" lon="-105.2276117">
  <ele>1583.0</ele>
  <time>2026-08-28T17:52:53Z</time>
  <course>140.59</course>
  <speed>3.67</speed>
  <fix>3d</fix>
</trkpt>
<trkpt lat="40.0716606" lon="-105.2276034">
  <ele>1582.99</ele>
  <time>2026-08-28T17:52:53Z</time>
  <course>141.88</course>
  <speed>3.1937595401031684</speed>
  <fix>3d</fix>
</trkpt>
<trkpt lat="40.0716688" lon="-105.2276117">
  <ele>1583.0</ele>
  <time>2026-08-28T17:52:53Z</time>
  <course>140.59</course>
  <speed>3.67</speed>
  <fix>3d</fix>
</trkpt>
<trkpt lat="40.0716584" lon="-105.2276011">
  <ele>1582.99</ele>
  <time>2026-08-28T17:52:53Z</time>
  <course>141.97</course>
  <speed>3.0516389039334255</speed>
  <fix>3d</fix>
</trkpt>
<trkpt lat="40.0716639" lon="-105.2276065">
  <ele>1583.0</ele>
  <time>2026-08-28T17:52:53Z</time>
  <course>140.78</course>
  <speed>3.38</speed>
  <fix>3d</fix>
</trkpt>
<trkpt lat="40.0716564" lon="-105.2275989">
  <ele>1582.99</ele>
  <time>2026-08-28T17:52:53Z</time>
  <course>142.06</course>
  <speed>2.9032740139366795</speed>
  <fix>3d</fix>
</trkpt>
<trkpt lat="40.0716639" lon="-105.2276065">
  <ele>1583.0</ele>
  <time>2026-08-28T17:52:53Z</time>
  <course>140.78</course>
  <speed>3.38</speed>
  <fix>3d</fix>
</trkpt>
<trkpt lat="40.0716544" lon="-105.2275968">
  <ele>1582.99</ele>
  <time>2026-08-28T17:52:53Z</time>
  <course>142.16</course>
  <speed>2.761159176867571</speed>
  <fix>3d</fix>
</trkpt>
<trkpt lat="40.0716594" lon="-105.2276016">
  <ele>1583.0</ele>
  <time>2026-08-28T17:52:53Z</time>
  <course>140.96</course>
  <speed>3.09</speed>
  <fix>3d</fix>
</trkpt>
<trkpt lat="40.0716526" lon="-105.2275948">
  <ele>1582.99</ele>
  <time>2026-08-28T17:52:53Z</time>
  <course>142.28</course>
  <speed>2.6252809373474677</speed>
  <fix>3d</fix>
</trkpt>
<trkpt lat="40.0716594" lon="-105.2276016">
  <ele>1583.0</ele>
  <time>2026-08-28T17:52:53Z</time>
  <course>140.96</course>
  <speed>3.09</speed>
  <fix>3d</fix>
</trkpt>
<trkpt lat="40.0716508" lon="-105.227593">
  <ele>1582.99</ele>
  <time>2026-08-28T17:52:53Z</time>
  <course>142.39</course>
  <speed>2.49098374141623</speed>
  <fix>3d</fix>
</trkpt>
<trkpt lat="40.0716552" lon="-105.2275972">
  <ele>1583.0</ele>
  <time>2026-08-28T17:52:53Z</time>
  <course>141.15</course>
  <speed>2.81</speed>
  <fix>3d</fix>
</trkpt>
<trkpt lat="40.0716491" lon="-105.2275912">
  <ele>1583.0</ele>
  <time>2026-08-28T17:52:53Z</time>
  <course>142.49</course>
  <speed>2.3629219199965115</speed>
  <fix>3d</fix>
</trkpt>
<trkpt lat="40.0716515" lon="-105.2275933">
  <ele>1583.0</ele>
  <time>2026-08-28T17:52:53Z</time>
  <course>141.36</course>
  <speed>2.55</speed>
  <fix>3d</fix>
</trkpt>
<trkpt lat="40.0716475" lon="-105.2275895">
  <ele>1583.0</ele>
  <time>2026-08-28T17:52:53Z</time>
  <course>142.59</course>
  <speed>2.2348601745970598</speed>
  <fix>3d</fix>
</trkpt>
<trkpt lat="40.0716515" lon="-105.2275933">
  <ele>1583.0</ele>
  <time>2026-08-28T17:52:53Z</time>
  <course>141.36</course>
  <speed>2.55</speed>
  <fix>3d</fix>
</trkpt>
<trkpt lat="40.071646" lon="-105.2275879">
  <ele>1583.0</ele>
  <time>2026-08-28T17:52:53Z</time>
  <course>142.71</course>
  <speed>2.11463944917331</speed>
  <fix>3d</fix>
</trkpt>
<trkpt lat="40.0716481" lon="-105.2275898">
  <ele>1583.0</ele>
  <time>2026-08-28T17:52:53Z</time>
  <course>141.57</course>
  <speed>2.3</speed>
  <fix>3d</fix>
</trkpt>
<trkpt lat="40.0716446" lon="-105.2275863">
  <ele>1583.0</ele>
  <time>2026-08-28T17:52:53Z</time>
  <course>142.82</course>
  <speed>2.000624902374256</speed>
  <fix>3d</fix>
</trkpt>
<trkpt lat="40.0716481" lon="-105.2275898">
  <ele>1583.0</ele>
  <time>2026-08-28T17:52:53Z</time>
  <course>141.57</course>
  <speed>2.3</speed>
  <fix>3d</fix>
</trkpt>
<trkpt lat="40.0716432" lon="-105.2275849">
  <ele>1583.0</ele>
  <time>2026-08-28T17:52:53Z</time>
  <course>142.93</course>
  <speed>1.8804254837669054</speed>
  <fix>3d</fix>
</trkpt>
<trkpt lat="40.071645" lon="-105.2275866">
  <ele>1583.0</ele>
  <time>2026-08-28T17:52:53Z</time>
  <course>141.79</course>
  <speed>2.06</speed>
  <fix>3d</fix>
</trkpt>
<trkpt lat="40.0716419" lon="-105.2275835">
  <ele>1583.0</ele>
  <time>2026-08-28T17:52:53Z</time>
  <course>143.05</course>
  <speed>1.774288589829738</speed>
  <fix>3d</fix>
</trkpt>
<trkpt lat="40.071645" lon="-105.2275866">
  <ele>1583.0</ele>
  <time>2026-08-28T17:52:53Z</time>
  <course>141.79</course>
  <speed>2.06</speed>
  <fix>3d</fix>
</trkpt>
<trkpt lat="40.0716407" lon="-105.2275823">
  <ele>1583.0</ele>
  <time>2026-08-28T17:52:53Z</time>
  <course>143.17</course>
  <speed>1.6602710622064096</speed>
  <fix>3d</fix>
</trkpt>
<trkpt lat="40.0716423" lon="-105.2275837">
  <ele>1583.0</ele>
  <time>2026-08-28T17:52:53Z</time>
  <course>142.02</course>
  <speed>1.84</speed>
  <fix>3d</fix>
</trkpt>
<trkpt lat="40.0716395" lon="-105.2275811">
  <ele>1583.0</ele>
  <time>2026-08-28T17:52:53Z</time>
  <course>143.29</course>
  <speed>1.560288434873501</speed>
  <fix>3d</fix>
</trkpt>
<trkpt lat="40.0716423" lon="-105.2275837">
  <ele>1583.0</ele>
  <time>2026-08-28T17:52:53Z</time>
  <course>142.02</course>
  <speed>1.84</speed>
  <fix>3d</fix>
</trkpt>
<trkpt lat="40.0716384" lon="-105.22758">
  <ele>1583.0</ele>
  <time>2026-08-28T17:52:53Z</time>
  <course>143.42</course>
  <speed>1.4541664278891877</speed>
  <fix>3d</fix>
</trkpt>
<trkpt lat="40.0716398" lon="-105.2275813">
  <ele>1583.0</ele>
  <time>2026-08-28T17:52:53Z</time>
  <course>142.26</course>
  <speed>1.63</speed>
  <fix>3d</fix>
</trkpt>
<trkpt lat="40.0716374" lon="-105.2275789">
  <ele>1583.0</ele>
  <time>2026-08-28T17:52:53Z</time>
  <course>143.55</course>
  <speed>1.3541787178950937</speed>
  <fix>3d</fix>
</trkpt>
<trkpt lat="40.0716398" lon="-105.2275813">
  <ele>1583.0</ele>
  <time>2026-08-28T17:52:53Z</time>
  <course>142.26</course>
  <speed>1.63</speed>
  <fix>3d</fix>
</trkpt>
<trkpt lat="40.0716364" lon="-105.227578">
  <ele>1583.0</ele>
  <time>2026-08-28T17:52:53Z</time>
  <course>143.7</course>
  <speed>1.2560254774486066</speed>
  <fix>3d</fix>
</trkpt>
<trkpt lat="40.0716376" lon="-105.2275791">
  <ele>1583.0</ele>
  <time>2026-08-28T17:52:53Z</time>
  <course>142.52</course>
  <speed>1.43</speed>
  <fix>3d</fix>
</trkpt>
<trkpt lat="40.0716356" lon="-105.2275771">
  <ele>1583.01</ele>
  <time>2026-08-28T17:52:53Z</time>
  <course>143.85</course>
  <speed>1.156027681329474</speed>
  <fix>3d</fix>
</trkpt>
<trkpt lat="40.0716376" lon="-105.2275791">
  <ele>1583.0</ele>
  <time>2026-08-28T17:52:53Z</time>
  <course>142.52</course>
  <speed>1.43</speed>
  <fix>3d</fix>
</trkpt>
<trkpt lat="40.0716347" lon="-105.2275763">
  <ele>1583.01</ele>
  <time>2026-08-28T17:52:53Z</time>
  <course>144.01</course>
  <speed>1.0640018796975879</speed>
  <fix>3d</fix>
</trkpt>
<trkpt lat="40.0716357" lon="-105.2275772">
  <ele>1583.0</ele>
  <time>2026-08-28T17:52:53Z</time>
  <course>142.81</course>
  <speed>1.23</speed>
  <fix>3d</fix>
</trkpt>
<trkpt lat="40.071634" lon="-105.2275755">
  <ele>1583.0</ele>
  <time>2026-08-28T17:52:53Z</time>
  <course>144.19</course>
  <speed>0.9640020746865642</speed>
  <fix>3d</fix>
</trkpt>
<trkpt lat="40.0716357" lon="-105.2275772">
  <ele>1583.0</ele>
  <time>2026-08-28T17:52:53Z</time>
  <course>142.81</course>
  <speed>1.23</speed>
  <fix>3d</fix>
</trkpt>
<trkpt lat="40.0716333" lon="-105.2275749">
  <ele>1583.0</ele>
  <time>2026-08-28T17:52:53Z</time>
  <course>144.38</course>
  <speed>0.8720091742636655</speed>
  <fix>3d</fix>
</trkpt>
<trkpt lat="40.0716357" lon="-105.2275772">
  <ele>1583.0</ele>
  <time>2026-08-28T17:52:53Z</time>
  <course>142.81</course>
  <speed>1.23</speed>
  <fix>3d</fix>
</trkpt>
<trkpt lat="40.0716327" lon="-105.2275743">
  <ele>1583.0</ele>
  <time>2026-08-28T17:52:53Z</time>
  <course>144.57</course>
  <speed>0.7800640999302557</speed>
  <fix>3d</fix>
</trkpt>
<trkpt lat="40.071634" lon="-105.2275756">
  <ele>1583.0</ele>
  <time>2026-08-28T17:52:53Z</time>
  <course>143.15</course>
  <speed>1.04</speed>
  <fix>3d</fix>
</trkpt>
<trkpt lat="40.0716321" lon="-105.2275737">
  <ele>1583.0</ele>
  <time>2026-08-28T17:52:53Z</time>
  <course>144.74</course>
  <speed>0.6800735254367721</speed>
  <fix>3d</fix>
</trkpt>
<trkpt lat="40.071634" lon="-105.2275756">
  <ele>1583.0</ele>
  <time>2026-08-28T17:52:53Z</time>
  <course>143.15</course>
  <speed>1.04</speed>
  <fix>3d</fix>
</trkpt>
<trkpt lat="40.0716317" lon="-105.2275733">
  <ele>1583.01</ele>
  <time>2026-08-28T17:52:53Z</time>
  <course>144.9</course>
  <speed>0.5940538696111658</speed>
  <fix>3d</fix>
</trkpt>
<trkpt lat="40.0716326" lon="-105.2275742">
  <ele>1583.0</ele>
  <time>2026-08-28T17:52:53Z</time>
  <course>143.51</course>
  <speed>0.85</speed>
  <fix>3d</fix>
</trkpt>
<trkpt lat="40.0716312" lon="-105.2275729">
  <ele>1583.01</ele>
  <time>2026-08-28T17:52:53Z</time>
  <course>145.05</course>
  <speed>0.494064773081425</speed>
  <fix>3d</fix>
</trkpt>
<trkpt lat="40.0716326" lon="-105.2275742">
  <ele>1583.0</ele>
  <time>2026-08-28T17:52:53Z</time>
  <course>143.51</course>
  <speed>0.85</speed>
  <fix>3d</fix>
</trkpt>
<trkpt lat="40.0716309" lon="-105.2275725">
  <ele>1583.02</ele>
  <time>2026-08-28T17:52:53Z</time>
  <course>145.19</course>
  <speed>0.4022437072223753</speed>
  <fix>3d</fix>
</trkpt>
<trkpt lat="40.0716315" lon="-105.2275732">
  <ele>1583.0</ele>
  <time>2026-08-28T17:52:53Z</time>
  <course>143.84</course>
  <speed>0.67</speed>
  <fix>3d</fix>
</trkpt>
<trkpt lat="40.0716306" lon="-105.2275723">
  <ele>1583.02</ele>
  <time>2026-08-28T17:52:53Z</time>
  <course>145.31</course>
  <speed>0.3080584360149873</speed>
  <fix>3d</fix>
</trkpt>
<trkpt lat="40.0716315" lon="-105.2275732">
  <ele>1583.0</ele>
  <time>2026-08-28T17:52:53Z</time>
  <course>143.84</course>
  <speed>0.67</speed>
  <fix>3d</fix>
</trkpt>
<trkpt lat="40.0716303" lon="-105.227572">
  <ele>1583.02</ele>
  <time>2026-08-28T17:52:53Z</time>
  <course>145.41</course>
  <speed>0.21633307652783937</speed>
  <fix>3d</fix>
</trkpt>
<trkpt lat="40.0716307" lon="-105.2275723">
  <ele>1583.0</ele>
  <time>2026-08-28T17:52:53Z</time>
  <course>144.12</course>
  <speed>0.48</speed>
  <fix>3d</fix>
</trkpt>
<trkpt lat="40.0716302" lon="-105.2275719">
  <ele>1583.02</ele>
  <time>2026-08-28T17:52:53Z</time>
  <course>145.5</course>
  <speed>0.12206555615733702</speed>
  <fix>3d</fix>
</trkpt>
<trkpt lat="40.0716301" lon="-105.2275718">
  <ele>1583.0</ele>
  <time>2026-08-28T17:52:53Z</time>
  <course>144.34</course>
  <speed>0.29</speed>
  <fix>3d</fix>
</trkpt>
<trkpt lat="40.0716301" lon="-105.2275718">
  <ele>1583.02</ele>
  <time>2026-08-28T17:52:53Z</time>
  <course>145.57</course>
  <speed>0.0316227766016838</speed>
  <fix>3d</fix>
</trkpt>
<trkpt lat="40.0716301" lon="-105.2275718">
  <ele>1583.0</ele>
  <time>2026-08-28T17:52:53Z</time>
  <course>144.34</course>
  <speed>0.29</speed>
  <fix>3d</fix>
</trkpt>
<trkpt lat="40.0716301" lon="-105.2275718">
  <ele>1583.02</ele>
  <time>2026-08-28T17:52:53Z</time>
  <course>145.58</course>
  <speed>0.04242640687119285</speed>
  <fix>3d</fix>
</trkpt>
<trkpt lat="40.0716298" lon="-105.2275715">
  <ele>1583.0</ele>
  <time>2026-08-28T17:52:53Z</time>
  <course>144.46</course>
  <speed>0.11</speed>
  <fix>3d</fix>
</trkpt>
<trkpt lat="40.0716301" lon="-105.2275718">
  <ele>1583.02</ele>
  <time>2026-08-28T17:52:53Z</time>
  <course>145.58</course>
  <speed>0.09219544457292887</speed>
  <fix>3d</fix>
</trkpt>
<trkpt lat="40.0716298" lon="-105.2275715">
  <ele>1583.0</ele>
  <time>2026-08-28T17:52:53Z</time>
  <course>144.46</course>
  <speed>0.11</speed>
  <fix>3d</fix>
</trkpt>
<trkpt lat="40.0716301" lon="-105.2275719">
  <ele>1583.02</ele>
  <time>2026-08-28T17:52:53Z</time>
  <course>145.61</course>
  <speed>0.11401754250991379</speed>
  <fix>3d</fix>
</trkpt>
<trkpt lat="40.0716297" lon="-105.2275715">
  <ele>1583.0</ele>
  <time>2026-08-28T17:52:53Z</time>
  <course>324.68</course>
  <speed>0.01</speed>
  <fix>3d</fix>
</trkpt>
<trkpt lat="40.0716302" lon="-105.2275719">
  <ele>1583.02</ele>
  <time>2026-08-28T17:52:53Z</time>
  <course>145.64</course>
  <speed>0.1063014581273465</speed>
  <fix>3d</fix>
</trkpt>
<trkpt lat="40.0716297" lon="-105.2275715">
  <ele>1583.0</ele>
  <time>2026-08-28T17:52:53Z</time>
  <course>324.68</course>
  <speed>0.01</speed>
  <fix>3d</fix>
</trkpt>
<trkpt lat="40.0716301" lon="-105.2275719">
  <ele>1583.02</ele>
  <time>2026-08-28T17:52:53Z</time>
  <course>145.67</course>
  <speed>0.0848528137423857</speed>
  <fix>3d</fix>
</trkpt>
<trkpt lat="40.0716298" lon="-105.2275715">
  <ele>1583.0</ele>
  <time>2026-08-28T17:52:53Z</time>
  <course>324.61</course>
  <speed>0.03</speed>
  <fix>3d</fix>
</trkpt>
<trkpt lat="40.0716301" lon="-105.2275719">
  <ele>1583.02</ele>
  <time>2026-08-28T17:52:53Z</time>
  <course>145.66</course>
  <speed>0.0316227766016838</speed>
  <fix>3d</fix>
</trkpt>
<trkpt lat="40.0716298" lon="-105.2275715">
  <ele>1583.0</ele>
  <time>2026-08-28T17:52:53Z</time>
  <course>324.61</course>
  <speed>0.03</speed>
  <fix>3d</fix>
</trkpt>
<trkpt lat="40.0716301" lon="-105.2275719">
  <ele>1583.02</ele>
  <time>2026-08-28T17:52:53Z</time>
  <course>145.67</course>
  <speed>0.04</speed>
  <fix>3d</fix>
</trkpt>
<trkpt lat="40.0716298" lon="-105.2275715">
  <ele>1583.0</ele>
  <time>2026-08-28T17:52:53Z</time>
  <course>144.6</course>
  <speed>0.04</speed>
  <fix>3d</fix>
</trkpt>
<trkpt lat="40.07163" lon="-105.2275718">
  <ele>1583.02</ele>
  <time>2026-08-28T17:52:53Z</time>
  <course>145.8</course>
  <speed>0.1341640786499874</speed>
  <fix>3d</fix>
</trkpt>
<trkpt lat="40.0716298" lon="-105.2275715">
  <ele>1583.0</ele>
  <time>2026-08-28T17:52:53Z</time>
  <course>144.6</course>
  <speed>0.04</speed>
  <fix>3d</fix>
</trkpt>
<trkpt lat="40.0716298" lon="-105.2275717">
  <ele>1583.03</ele>
  <time>2026-08-28T17:52:53Z</time>
  <course>146.02</course>
  <speed>0.25059928172283336</speed>
  <fix>3d</fix>
</trkpt>
<trkpt lat="40.0716296" lon="-105.2275713">
  <ele>1583.0</ele>
  <time>2026-08-28T17:52:53Z</time>
  <course>144.87</course>
  <speed>0.21</speed>
  <fix>3d</fix>
</trkpt>
<trkpt lat="40.0716295" lon="-105.2275715">
  <ele>1583.03</ele>
  <time>2026-08-28T17:52:53Z</time>
  <course>146.36</course>
  <speed>0.37589892258425</speed>
  <fix>3d</fix>
</trkpt>
<trkpt lat="40.0716296" lon="-105.2275713">
  <ele>1583.0</ele>
  <time>2026-08-28T17:52:53Z</time>
  <course>144.87</course>
  <speed>0.21</speed>
  <fix>3d</fix>
</trkpt>
<trkpt lat="40.0716291" lon="-105.2275711">
  <ele>1583.03</ele>
  <time>2026-08-28T17:52:53Z</time>
  <course>146.83</course>
  <speed>0.5060632371551997</speed>
  <fix>3d</fix>
</trkpt>
<trkpt lat="40.0716292" lon="-105.2275709">
  <ele>1583.0</ele>
  <time>2026-08-28T17:52:53Z</time>
  <course>145.49</course>
  <speed>0.44</speed>
  <fix>3d</fix>
</trkpt>
<trkpt lat="40.0716286" lon="-105.2275707">
  <ele>1583.04</ele>
  <time>2026-08-28T17:52:53Z</time>
  <course>147.46</course>
  <speed>0.6586349520030045</speed>
  <fix>3d</fix>
</trkpt>
<trkpt lat="40.0716292" lon="-105.2275709">
  <ele>1583.0</ele>
  <time>2026-08-28T17:52:53Z</time>
  <course>145.49</course>
  <speed>0.44</speed>
  <fix>3d</fix>
</trkpt>
<trkpt lat="40.071628" lon="-105.2275702">
  <ele>1583.04</ele>
  <time>2026-08-28T17:52:53Z</time>
  <course>148.28</course>
  <speed>0.8149233092751734</speed>
  <fix>3d</fix>
</trkpt>
<trkpt lat="40.0716292" lon="-105.2275709">
  <ele>1583.0</ele>
  <time>2026-08-28T17:52:53Z</time>
  <course>145.49</course>
  <speed>0.44</speed>
  <fix>3d</fix>
</trkpt>
<trkpt lat="40.0716272" lon="-105.2275696">
  <ele>1583.04</ele>
  <time>2026-08-28T17:52:53Z</time>
  <course>149.36</course>
  <speed>0.9664884893261793</speed>
  <fix>3d</fix>
</trkpt>
<trkpt lat="40.0716283" lon="-105.2275702">
  <ele>1583.0</ele>
  <time>2026-08-28T17:52:53Z</time>
  <course>146.65</course>
  <speed>0.71</speed>
  <fix>3d</fix>
</trkpt>
<trkpt lat="40.0716263" lon="-105.227569">
  <ele>1583.05</ele>
  <time>2026-08-28T17:52:53Z</time>
  <course>150.73</course>
  <speed>1.136001760562016</speed>
  <fix>3d</fix>
</trkpt>
<trkpt lat="40.0716283" lon="-105.2275702">
  <ele>1583.0</ele>
  <time>2026-08-28T17:52:53Z</time>
  <course>146.65</course>
  <speed>0.71</speed>
  <fix>3d</fix>
</trkpt>
<trkpt lat="40.0716253" lon="-105.2275682">
  <ele>1583.05</ele>
  <time>2026-08-28T17:52:53Z</time>
  <course>152.33</course>
  <speed>1.2880993750483694</speed>
  <fix>3d</fix>
</trkpt>
<trkpt lat="40.071627" lon="-105.227569">
  <ele>1583.0</ele>
  <time>2026-08-28T17:52:53Z</time>
  <course>148.64</course>
  <speed>1.01</speed>
  <fix>3d</fix>
</trkpt>
<trkpt lat="40.0716242" lon="-105.2275675">
  <ele>1583.05</ele>
  <time>2026-08-28T17:52:53Z</time>
  <course>154.32</course>
  <speed>1.4418044250174846</speed>
  <fix>3d</fix>
</trkpt>
<trkpt lat="40.071627" lon="-105.227569">
  <ele>1583.0</ele>
  <time>2026-08-28T17:52:53Z</time>
  <course>148.64</course>
  <speed>1.01</speed>
  <fix>3d</fix>
</trkpt>
<trkpt lat="40.0716229" lon="-105.2275667">
  <ele>1583.05</ele>
  <time>2026-08-28T17:52:53Z</time>
  <course>156.84</course>
  <speed>1.5709869509324386</speed>
  <fix>3d</fix>
</trkpt>
<trkpt lat="40.0716251" lon="-105.2275677">
  <ele>1583.0</ele>
  <time>2026-08-28T17:52:53Z</time>
  <course>151.69</course>
  <speed>1.32</speed>
  <fix>3d</fix>
</trkpt>
<trkpt lat="40.0716215" lon="-105.227566">
  <ele>1583.05</ele>
  <time>2026-08-28T17:52:53Z</time>
  <course>159.98</course>
  <speed>1.685496959356498</speed>
  <fix>3d</fix>
</trkpt>
<trkpt lat="40.0716228" lon="-105.2275662">
  <ele>1583.0</ele>
  <time>2026-08-28T17:52:53Z</time>
  <course>156.32</course>
  <speed>1.58</speed>
  <fix>3d</fix>
</trkpt>
<trkpt lat="40.0716199" lon="-105.2275653">
  <ele>1583.05</ele>
  <time>2026-08-28T17:52:53Z</time>
  <course>163.94</course>
  <speed>1.787568180517879</speed>
  <fix>3d</fix>
</trkpt>
<trkpt lat="40.0716228" lon="-105.2275662">
  <ele>1583.0</ele>
  <time>2026-08-28T17:52:53Z</time>
  <course>156.32</course>
  <speed>1.58</speed>
  <fix>3d</fix>
</trkpt>
<trkpt lat="40.0716183" lon="-105.2275648">
  <ele>1583.05</ele>
  <time>2026-08-28T17:52:53Z</time>
  <course>168.94</course>
  <speed>1.8659314028120113</speed>
  <fix>3d</fix>
</trkpt>
<trkpt lat="40.0716199" lon="-105.2275649">
  <ele>1583.0</ele>
  <time>2026-08-28T17:52:53Z</time>
  <course>163.64</course>
  <speed>1.78</speed>
  <fix>3d</fix>
</trkpt>
<trkpt lat="40.0716165" lon="-105.2275645">
  <ele>1583.05</ele>
  <time>2026-08-28T17:52:53Z</time>
  <course>174.98</course>
  <speed>1.933726971420733</speed>
  <fix>3d</fix>
</trkpt>
<trkpt lat="40.0716199" lon="-105.2275649">
  <ele>1583.0</ele>
  <time>2026-08-28T17:52:53Z</time>
  <course>163.64</course>
  <speed>1.78</speed>
  <fix>3d</fix>
</trkpt>
<trkpt lat="40.0716147" lon="-105.2275644">
  <ele>1583.05</ele>
  <time>2026-08-28T17:52:53Z</time>
  <course>182.11</course>
  <speed>1.9836330305779848</speed>
  <fix>3d</fix>
</trkpt>
<trkpt lat="40.0716167" lon="-105.227564">
  <ele>1583.0</ele>
  <time>2026-08-28T17:52:53Z</time>
  <course>174.72</course>
  <speed>1.9</speed>
  <fix>3d</fix>
</trkpt>
<trkpt lat="40.0716129" lon="-105.2275647">
  <ele>1583.05</ele>
  <time>2026-08-28T17:52:53Z</time>
  <course>190.27</course>
  <speed>2.02</speed>
  <fix>3d</fix>
</trkpt>
<trkpt lat="40.0716167" lon="-105.227564">
  <ele>1583.0</ele>
  <time>2026-08-28T17:52:53Z</time>
  <course>174.72</course>
  <speed>1.9</speed>
  <fix>3d</fix>
</trkpt>
<trkpt lat="40.0716111" lon="-105.2275652">
  <ele>1583.05</ele>
  <time>2026-08-28T17:52:53Z</time>
  <course>199.44</course>
  <speed>2.0412006270820124</speed>
  <fix>3d</fix>
</trkpt>
<trkpt lat="40.0716132" lon="-105.2275641">
  <ele>1583.0</ele>
  <time>2026-08-28T17:52:53Z</time>
  <course>189.93</course>
  <speed>1.97</speed>
  <fix>3d</fix>
</trkpt>
<trkpt lat="40.0716094" lon="-105.2275662">
  <ele>1583.05</ele>
  <time>2026-08-28T17:52:53Z</time>
  <course>209.7</course>
  <speed>2.049414550548522</speed>
  <fix>3d</fix>
</trkpt>
<trkpt lat="40.0716132" lon="-105.2275641">
  <ele>1583.0</ele>
  <time>2026-08-28T17:52:53Z</time>
  <course>189.93</course>
  <speed>1.97</speed>
  <fix>3d</fix>
</trkpt>
<trkpt lat="40.0716079" lon="-105.2275676">
  <ele>1583.05</ele>
  <time>2026-08-28T17:52:53Z</time>
  <course>220.38</course>
  <speed>2.047950194706893</speed>
  <fix>3d</fix>
</trkpt>
<trkpt lat="40.0716099" lon="-105.2275656">
  <ele>1583.0</ele>
  <time>2026-08-28T17:52:53Z</time>
  <course>208.94</course>
  <speed>1.98</speed>
  <fix>3d</fix>
</trkpt>
<trkpt lat="40.0716066" lon="-105.2275694">
  <ele>1583.05</ele>
  <time>2026-08-28T17:52:53Z</time>
  <course>231.02</course>
  <speed>2.0444314613114325</speed>
  <fix>3d</fix>
</trkpt>
<trkpt lat="40.0716099" lon="-105.2275656">
  <ele>1583.0</ele>
  <time>2026-08-28T17:52:53Z</time>
  <course>208.94</course>
  <speed>1.98</speed>
  <fix>3d</fix>
</trkpt>
<trkpt lat="40.0716056" lon="-105.2275714">
  <ele>1583.04</ele>
  <time>2026-08-28T17:52:53Z</time>
  <course>241.66</course>
  <speed>2.0218061232472317</speed>
  <fix>3d</fix>
</trkpt>
<trkpt lat="40.0716071" lon="-105.2275685">
  <ele>1583.0</ele>
  <time>2026-08-28T17:52:53Z</time>
  <course>229.92</course>
  <speed>1.97</speed>
  <fix>3d</fix>
</trkpt>
<trkpt lat="40.071605" lon="-105.2275735">
  <ele>1583.04</ele>
  <time>2026-08-28T17:52:53Z</time>
  <course>252.31</course>
  <speed>1.996121238802894</speed>
  <fix>3d</fix>
</trkpt>
<trkpt lat="40.0716071" lon="-105.2275685">
  <ele>1583.0</ele>
  <time>2026-08-28T17:52:53Z</time>
  <course>229.92</course>
  <speed>1.97</speed>
  <fix>3d</fix>
</trkpt>
<trkpt lat="40.0716046" lon="-105.2275758">
  <ele>1583.03</ele>
  <time>2026-08-28T17:52:53Z</time>
  <course>262.99</course>
  <speed>1.972308292331602</speed>
  <fix>3d</fix>
</trkpt>
<trkpt lat="40.0716054" lon="-105.2275725">
  <ele>1583.0</ele>
  <time>2026-08-28T17:52:53Z</time>
  <course>251.16</course>
  <speed>1.93</speed>
  <fix>3d</fix>
</trkpt>
<trkpt lat="40.0716046" lon="-105.2275781">
  <ele>1583.03</ele>
  <time>2026-08-28T17:52:53Z</time>
  <course>273.69</course>
  <speed>1.955019181491578</speed>
  <fix>3d</fix>
</trkpt>
<trkpt lat="40.0716054" lon="-105.2275725">
  <ele>1583.0</ele>
  <time>2026-08-28T17:52:53Z</time>
  <course>251.16</course>
  <speed>1.93</speed>
  <fix>3d</fix>
</trkpt>
<trkpt lat="40.071605" lon="-105.2275803">
  <ele>1583.03</ele>
  <time>2026-08-28T17:52:53Z</time>
  <course>284.43</course>
  <speed>1.9524855953373896</speed>
  <fix>3d</fix>
</trkpt>
<trkpt lat="40.0716054" lon="-105.2275725">
  <ele>1583.0</ele>
  <time>2026-08-28T17:52:53Z</time>
  <course>251.16</course>
  <speed>1.93</speed>
  <fix>3d</fix>
</trkpt>
<trkpt lat="40.0716056" lon="-105.2275824">
  <ele>1583.03</ele>
  <time>2026-08-28T17:52:53Z</time>
  <course>294.78</course>
  <speed>1.964001018329675</speed>
  <fix>3d</fix>
</trkpt>
<trkpt lat="40.0716049" lon="-105.2275769">
  <ele>1583.0</ele>
  <time>2026-08-28T17:52:53Z</time>
  <course>272.67</course>
  <speed>1.9</speed>
  <fix>3d</fix>
</trkpt>
<trkpt lat="40.0716064" lon="-105.2275844">
  <ele>1583.04</ele>
  <time>2026-08-28T17:52:53Z</time>
  <course>304.11</course>
  <speed>1.9859506539690255</speed>
  <fix>3d</fix>
</trkpt>
<trkpt lat="40.0716049" lon="-105.2275769">
  <ele>1583.0</ele>
  <time>2026-08-28T17:52:53Z</time>
  <course>272.67</course>
  <speed>1.9</speed>
  <fix>3d</fix>
</trkpt>
<trkpt lat="40.0716076" lon="-105.2275862">
  <ele>1583.04</ele>
  <time>2026-08-28T17:52:53Z</time>
  <course>312.46</course>
  <speed>2.0241047403728887</speed>
  <fix>3d</fix>
</trkpt>
<trkpt lat="40.0716057" lon="-105.2275813">
  <ele>1583.0</ele>
  <time>2026-08-28T17:52:53Z</time>
  <course>293.41</course>
  <speed>1.92</speed>
  <fix>3d</fix>
</trkpt>
<trkpt lat="40.0716089" lon="-105.2275878">
  <ele>1583.04</ele>
  <time>2026-08-28T17:52:53Z</time>
  <course>319.8</course>
  <speed>2.0729206448873048</speed>
  <fix>3d</fix>
</trkpt>
<trkpt lat="40.0716057" lon="-105.2275813">
  <ele>1583.0</ele>
  <time>2026-08-28T17:52:53Z</time>
  <course>293.41</course>
  <speed>1.92</speed>
  <fix>3d</fix>
</trkpt>
<trkpt lat="40.0716105" lon="-105.2275892">
  <ele>1583.04</ele>
  <time>2026-08-28T17:52:53Z</time>
  <course>326.09</course>
  <speed>2.1356029593536343</speed>
  <fix>3d</fix>
</trkpt>
<trkpt lat="40.0716075" lon="-105.2275851">
  <ele>1583.0</ele>
  <time>2026-08-28T17:52:54Z</time>
  <course>311.16</course>
  <speed>2.0</speed>
  <fix>3d</fix>
</trkpt>
<trkpt lat="40.0716122" lon="-105.2275904">
  <ele>1583.04</ele>
  <time>2026-08-28T17:52:54Z</time>
  <course>331.37</course>
  <speed>2.2147234590350102</speed>
  <fix>3d</fix>
</trkpt>
<trkpt lat="40.0716103" lon="-105.2275884">
  <ele>1583.0</ele>
  <time>2026-08-28T17:52:54Z</time>
  <course>324.76</course>
  <speed>2.12</speed>
  <fix>3d</fix>
</trkpt>
<trkpt lat="40.071614" lon="-105.2275915">
  <ele>1583.04</ele>
  <time>2026-08-28T17:52:54Z</time>
  <course>335.54</course>
  <speed>2.291658787865244</speed>
  <fix>3d</fix>
</trkpt>
<trkpt lat="40.0716103" lon="-105.2275884">
  <ele>1583.0</ele>
  <time>2026-08-28T17:52:54Z</time>
  <course>324.76</course>
  <speed>2.12</speed>
  <fix>3d</fix>
</trkpt>
<trkpt lat="40.071616" lon="-105.2275926">
  <ele>1583.03</ele>
  <time>2026-08-28T17:52:54Z</time>
  <course>338.61</course>
  <speed>2.390083680543424</speed>
  <fix>3d</fix>
</trkpt>
<trkpt lat="40.0716137" lon="-105.2275909">
  <ele>1583.0</ele>
  <time>2026-08-28T17:52:54Z</time>
  <course>334.08</course>
  <speed>2.29</speed>
  <fix>3d</fix>
</trkpt>
<trkpt lat="40.0716181" lon="-105.2275935">
  <ele>1583.03</ele>
  <time>2026-08-28T17:52:54Z</time>
  <course>340.56</course>
  <speed>2.488955604264568</speed>
  <fix>3d</fix>
</trkpt>
<trkpt lat="40.0716137" lon="-105.2275909">
  <ele>1583.0</ele>
  <time>2026-08-28T17:52:54Z</time>
  <course>334.08</course>
  <speed>2.29</speed>
  <fix>3d</fix>
</trkpt>
<trkpt lat="40.0716203" lon="-105.2275944">
  <ele>1583.03</ele>
  <time>2026-08-28T17:52:54Z</time>
  <course>341.43</course>
  <speed>2.5994230129011324</speed>
  <fix>3d</fix>
</trkpt>
<trkpt lat="40.0716177" lon="-105.2275932">
  <ele>1583.0</ele>
  <time>2026-08-28T17:52:54Z</time>
  <course>339.02</course>
  <speed>2.49</speed>
  <fix>3d</fix>
</trkpt>
<trkpt lat="40.0716226" lon="-105.2275954">
  <ele>1583.03</ele>
  <time>2026-08-28T17:52:54Z</time>
  <course>341.2</course>
  <speed>2.710073799733136</speed>
  <fix>3d</fix>
</trkpt>
<trkpt lat="40.0716177" lon="-105.2275932">
  <ele>1583.0</ele>
  <time>2026-08-28T17:52:54Z</time>
  <course>339.02</course>
  <speed>2.49</speed>
  <fix>3d</fix>
</trkpt>
<trkpt lat="40.071625" lon="-105.2275965">
  <ele>1583.02</ele>
  <time>2026-08-28T17:52:54Z</time>
  <course>339.87</course>
  <speed>2.8279321066814886</speed>
  <fix>3d</fix>
</trkpt>
<trkpt lat="40.071622" lon="-105.2275952">
  <ele>1583.0</ele>
  <time>2026-08-28T17:52:54Z</time>
  <course>339.55</course>
  <speed>2.7</speed>
  <fix>3d</fix>
</trkpt>
<trkpt lat="40.0716274" lon="-105.2275978">
  <ele>1583.02</ele>
  <time>2026-08-28T17:52:54Z</time>
  <course>338.24</course>
  <speed>2.948847232394381</speed>
  <fix>3d</fix>
</trkpt>
<trkpt lat="40.071622" lon="-105.2275952">
  <ele>1583.0</ele>
  <time>2026-08-28T17:52:54Z</time>
  <course>339.55</course>
  <speed>2.7</speed>
  <fix>3d</fix>
</trkpt>
<trkpt lat="40.07163" lon="-105.2275992">
  <ele>1583.02</ele>
  <time>2026-08-28T17:52:54Z</time>
  <course>336.96</course>
  <speed>3.0739063095676813</speed>
  <fix>3d</fix>
</trkpt>
<trkpt lat="40.0716267" lon="-105.2275977">
  <ele>1583.0</ele>
  <time>2026-08-28T17:52:54Z</time>
  <course>337.31</course>
  <speed>2.94</speed>
  <fix>3d</fix>
</trkpt>
<trkpt lat="40.0716326" lon="-105.2276007">
  <ele>1583.02</ele>
  <time>2026-08-28T17:52:54Z</time>
  <course>335.89</course>
  <speed>3.200390601161052</speed>
  <fix>3d</fix>
</trkpt>
<trkpt lat="40.0716267" lon="-105.2275977">
  <ele>1583.0</ele>
  <time>2026-08-28T17:52:54Z</time>
  <course>337.31</course>
  <speed>2.94</speed>
  <fix>3d</fix>
</trkpt>
<trkpt lat="40.0716353" lon="-105.2276023">
  <ele>1583.02</ele>
  <time>2026-08-28T17:52:54Z</time>
  <course>335.0</course>
  <speed>3.3329416436535455</speed>
  <fix>3d</fix>
</trkpt>
<trkpt lat="40.0716318" lon="-105.2276006">
  <ele>1583.0</ele>
  <time>2026-08-28T17:52:54Z</time>
  <course>334.92</course>
  <speed>3.18</speed>
  <fix>3d</fix>
</trkpt>
<trkpt lat="40.071638" lon="-105.2276041">
  <ele>1583.02</ele>
  <time>2026-08-28T17:52:54Z</time>
  <course>334.25</course>
  <speed>3.4571953951143697</speed>
  <fix>3d</fix>
</trkpt>
<trkpt lat="40.0716318" lon="-105.2276006">
  <ele>1583.0</ele>
  <time>2026-08-28T17:52:54Z</time>
  <course>334.92</course>
  <speed>3.18</speed>
  <fix>3d</fix>
</trkpt>
<trkpt lat="40.0716409" lon="-105.227606">
  <ele>1583.02</ele>
  <time>2026-08-28T17:52:54Z</time>
  <course>333.61</course>
  <speed>3.586655824023264</speed>
  <fix>3d</fix>
</trkpt>
<trkpt lat="40.0716371" lon="-105.227604">
  <ele>1583.0</ele>
  <time>2026-08-28T17:52:54Z</time>
  <course>333.28</course>
  <speed>3.43</speed>
  <fix>3d</fix>
</trkpt>
<trkpt lat="40.0716438" lon="-105.227608">
  <ele>1583.02</ele>
  <time>2026-08-28T17:52:54Z</time>
  <course>333.08</course>
  <speed>3.707573330360439</speed>
  <fix>3d</fix>
</trkpt>
<trkpt lat="40.0716371" lon="-105.227604">
  <ele>1583.0</ele>
  <time>2026-08-28T17:52:54Z</time>
  <course>333.28</course>
  <speed>3.43</speed>
  <fix>3d</fix>
</trkpt>
<trkpt lat="40.0716469" lon="-105.2276102">
  <ele>1583.02</ele>
  <time>2026-08-28T17:52:54Z</time>
  <course>332.61</course>
  <speed>3.83775976319519</speed>
  <fix>3d</fix>
</trkpt>
<trkpt lat="40.0716371" lon="-105.227604">
  <ele>1583.0</ele>
  <time>2026-08-28T17:52:54Z</time>
  <course>333.28</course>
  <speed>3.43</speed>
  <fix>3d</fix>
</trkpt>
<trkpt lat="40.0716499" lon="-105.2276123">
  <ele>1583.02</ele>
  <time>2026-08-28T17:52:54Z</time>
  <course>332.19</course>
  <speed>3.959419149319759</speed>
  <fix>3d</fix>
</trkpt>
<trkpt lat="40.0716428" lon="-105.2276079">
  <ele>1583.0</ele>
  <time>2026-08-28T17:52:54Z</time>
  <course>332.11</course>
  <speed>3.68</speed>
  <fix>3d</fix>
</trkpt>
<trkpt lat="40.0716531" lon="-105.2276146">
  <ele>1583.02</ele>
  <time>2026-08-28T17:52:54Z</time>
  <course>331.8</course>
  <speed>4.076628508951974</speed>
  <fix>3d</fix>
</trkpt>
<trkpt lat="40.0716428" lon="-105.2276079">
  <ele>1583.0</ele>
  <time>2026-08-28T17:52:54Z</time>
  <course>332.11</course>
  <speed>3.68</speed>
  <fix>3d</fix>
</trkpt>
<trkpt lat="40.0716563" lon="-105.227617">
  <ele>1583.01</ele>
  <time>2026-08-28T17:52:54Z</time>
  <course>331.47</course>
  <speed>4.194019551695009</speed>
  <fix>3d</fix>
</trkpt>
<trkpt lat="40.0716489" lon="-105.2276121">
  <ele>1583.0</ele>
  <time>2026-08-28T17:52:54Z</time>
  <course>331.21</course>
  <speed>3.92</speed>
  <fix>3d</fix>
</trkpt>
<trkpt lat="40.0716596" lon="-105.2276195">
  <ele>1583.01</ele>
  <time>2026-08-28T17:52:54Z</time>
  <course>331.19</course>
  <speed>4.311577437551134</speed>
  <fix>3d</fix>
</trkpt>
<trkpt lat="40.0716489" lon="-105.2276121">
  <ele>1583.0</ele>
  <time>2026-08-28T17:52:54Z</time>
  <course>331.21</course>
  <speed>3.92</speed>
  <fix>3d</fix>
</trkpt>
<trkpt lat="40.071663" lon="-105.227622">
  <ele>1583.01</ele>
  <time>2026-08-28T17:52:54Z</time>
  <course>330.95</course>
  <speed>4.415653971950248</speed>
  <fix>3d</fix>
</trkpt>
<trkpt lat="40.0716552" lon="-105.2276167">
  <ele>1583.0</ele>
  <time>2026-08-28T17:52:54Z</time>
  <course>330.51</course>
  <speed>4.16</speed>
  <fix>3d</fix>
</trkpt>
<trkpt lat="40.0716664" lon="-105.2276247">
  <ele>1583.01</ele>
  <time>2026-08-28T17:52:54Z</time>
  <course>330.73</course>
  <speed>4.528509688628258</speed>
  <fix>3d</fix>
</trkpt>
<trkpt lat="40.0716552" lon="-105.2276167">
  <ele>1583.0</ele>
  <time>2026-08-28T17:52:54Z</time>
  <course>330.51</course>
  <speed>4.16</speed>
  <fix>3d</fix>
</trkpt>
<trkpt lat="40.07167" lon="-105.2276274">
  <ele>1583.01</ele>
  <time>2026-08-28T17:52:54Z</time>
  <course>330.55</course>
  <speed>4.646428736137034</speed>
  <fix>3d</fix>
</trkpt>
<trkpt lat="40.0716618" lon="-105.2276217">
  <ele>1583.0</ele>
  <time>2026-08-28T17:52:54Z</time>
  <course>329.98</course>
  <speed>4.39</speed>
  <fix>3d</fix>
</trkpt>
<trkpt lat="40.0716736" lon="-105.2276302">
  <ele>1583.01</ele>
  <time>2026-08-28T17:52:54Z</time>
  <course>330.37</course>
  <speed>4.745745463043715</speed>
  <fix>3d</fix>
</trkpt>
<trkpt lat="40.0716689" lon="-105.227627">
  <ele>1583.0</ele>
  <time>2026-08-28T17:52:54Z</time>
  <course>329.57</course>
  <speed>4.61</speed>
  <fix>3d</fix>
</trkpt>
<trkpt lat="40.0716773" lon="-105.2276331">
  <ele>1583.01</ele>
  <time>2026-08-28T17:52:54Z</time>
  <course>330.24</course>
  <speed>4.858775565921933</speed>
  <fix>3d</fix>
</trkpt>
<trkpt lat="40.0716689" lon="-105.227627">
  <ele>1583.0</ele>
  <time>2026-08-28T17:52:54Z</time>
  <course>329.57</course>
  <speed>4.61</speed>
  <fix>3d</fix>
</trkpt>
<trkpt lat="40.0716811" lon="-105.2276361">
  <ele>1583.01</ele>
  <time>2026-08-28T17:52:54Z</time>
  <course>330.1</course>
  <speed>4.963244906308775</speed>
  <fix>3d</fix>
</trkpt>
<trkpt lat="40.0716762" lon="-105.2276326">
  <ele>1583.0</ele>
  <time>2026-08-28T17:52:54Z</time>
  <course>329.26</course>
  <speed>4.83</speed>
  <fix>3d</fix>
</trkpt>
<trkpt lat="40.071685" lon="-105.2276391">
  <ele>1583.01</ele>
  <time>2026-08-28T17:52:54Z</time>
  <course>329.96</course>
  <speed>5.071262170308295</speed>
  <fix>3d</fix>
</trkpt>
<trkpt lat="40.0716762" lon="-105.2276326">
  <ele>1583.0</ele>
  <time>2026-08-28T17:52:54Z</time>
  <course>329.26</course>
  <speed>4.83</speed>
  <fix>3d</fix>
</trkpt>
<trkpt lat="40.0716889" lon="-105.2276423">
  <ele>1583.01</ele>
  <time>2026-08-28T17:52:54Z</time>
  <course>329.89</course>
  <speed>5.17069627806546</speed>
  <fix>3d</fix>
</trkpt>
<trkpt lat="40.0716838" lon="-105.2276386">
  <ele>1583.0</ele>
  <time>2026-08-28T17:52:54Z</time>
  <course>329.03</course>
  <speed>5.04</speed>
  <fix>3d</fix>
</trkpt>
<trkpt lat="40.071693" lon="-105.2276455">
  <ele>1583.01</ele>
  <time>2026-08-28T17:52:54Z</time>
  <course>329.82</course>
  <speed>5.256434152541056</speed>
  <fix>3d</fix>
</trkpt>
<trkpt lat="40.0716838" lon="-105.2276386">
  <ele>1583.0</ele>
  <time>2026-08-28T17:52:54Z</time>
  <course>329.03</course>
  <speed>5.04</speed>
  <fix>3d</fix>
</trkpt>
<trkpt lat="40.0716971" lon="-105.2276488">
  <ele>1583.01</ele>
  <time>2026-08-28T17:52:54Z</time>
  <course>329.74</course>
  <speed>5.31988721684962</speed>
  <fix>3d</fix>
</trkpt>
<trkpt lat="40.0716917" lon="-105.2276449">
  <ele>1583.0</ele>
  <time>2026-08-28T17:52:54Z</time>
  <course>328.86</course>
  <speed>5.21</speed>
  <fix>3d</fix>
</trkpt>
<trkpt lat="40.0717012" lon="-105.2276521">
  <ele>1583.01</ele>
  <time>2026-08-28T17:52:54Z</time>
  <course>329.67</course>
  <speed>5.374793019270603</speed>
  <fix>3d</fix>
</trkpt>
<trkpt lat="40.0716917" lon="-105.2276449">
  <ele>1583.0</ele>
  <time>2026-08-28T17:52:54Z</time>
  <course>328.86</course>
  <speed>5.21</speed>
  <fix>3d</fix>
</trkpt>
<trkpt lat="40.0717054" lon="-105.2276554">
  <ele>1583.01</ele>
  <time>2026-08-28T17:52:54Z</time>
  <course>329.59</course>
  <speed>5.402258786840926</speed>
  <fix>3d</fix>
</trkpt>
<trkpt lat="40.0716998" lon="-105.2276513">
  <ele>1583.0</ele>
  <time>2026-08-28T17:52:54Z</time>
  <course>328.72</course>
  <speed>5.32</speed>
  <fix>3d</fix>
</trkpt>
<trkpt lat="40.0717096" lon="-105.2276587">
  <ele>1583.01</ele>
  <time>2026-08-28T17:52:54Z</time>
  <course>329.52</course>
  <speed>5.421189906284412</speed>
  <fix>3d</fix>
</trkpt>
<trkpt lat="40.0716998" lon="-105.2276513">
  <ele>1583.0</ele>
  <time>2026-08-28T17:52:54Z</time>
  <course>328.72</course>
  <speed>5.32</speed>
  <fix>3d</fix>
</trkpt>
<trkpt lat="40.0717137" lon="-105.2276621">
  <ele>1583.01</ele>
  <time>2026-08-28T17:52:54Z</time>
  <course>329.5</course>
  <speed>5.4349333022586395</speed>
  <fix>3d</fix>
</trkpt>
<trkpt lat="40.071708" lon="-105.2276579">
  <ele>1583.0</ele>
  <time>2026-08-28T17:52:54Z</time>
  <course>328.6</course>
  <speed>5.38</speed>
  <fix>3d</fix>
</trkpt>
<trkpt lat="40.0717179" lon="-105.2276655">
  <ele>1583.01</ele>
  <time>2026-08-28T17:52:54Z</time>
  <course>329.46</course>
  <speed>5.440147056835872</speed>
  <fix>3d</fix>
</trkpt>
<trkpt lat="40.071708" lon="-105.2276579">
  <ele>1583.0</ele>
  <time>2026-08-28T17:52:54Z</time>
  <course>328.6</course>
  <speed>5.38</speed>
  <fix>3d</fix>
</trkpt>
<trkpt lat="40.0717221" lon="-105.2276688">
  <ele>1583.01</ele>
  <time>2026-08-28T17:52:54Z</time>
  <course>329.45</course>
  <speed>5.42639843726942</speed>
  <fix>3d</fix>
</trkpt>
<trkpt lat="40.0717163" lon="-105.2276645">
  <ele>1583.0</ele>
  <time>2026-08-28T17:52:54Z</time>
  <course>328.54</course>
  <speed>5.39</speed>
  <fix>3d</fix>
</trkpt>
<trkpt lat="40.0717262" lon="-105.2276722">
  <ele>1583.01</ele>
  <time>2026-08-28T17:52:54Z</time>
  <course>329.45</course>
  <speed>5.409343767962987</speed>
  <fix>3d</fix>
</trkpt>
<trkpt lat="40.0717163" lon="-105.2276645">
  <ele>1583.0</ele>
  <time>2026-08-28T17:52:54Z</time>
  <course>328.54</course>
  <speed>5.39</speed>
  <fix>3d</fix>
</trkpt>
<trkpt lat="40.0717303" lon="-105.2276755">
  <ele>1583.01</ele>
  <time>2026-08-28T17:52:54Z</time>
  <course>329.45</course>
  <speed>5.387067848096959</speed>
  <fix>3d</fix>
</trkpt>
<trkpt lat="40.0717163" lon="-105.2276645">
  <ele>1583.0</ele>
  <time>2026-08-28T17:52:54Z</time>
  <course>328.54</course>
  <speed>5.39</speed>
  <fix>3d</fix>
</trkpt>
<trkpt lat="40.0717344" lon="-105.2276788">
  <ele>1583.01</ele>
  <time>2026-08-28T17:52:54Z</time>
  <course>329.42</course>
  <speed>5.356276691882151</speed>
  <fix>3d</fix>
</trkpt>
<trkpt lat="40.0717245" lon="-105.2276711">
  <ele>1583.0</ele>
  <time>2026-08-28T17:52:54Z</time>
  <course>328.51</course>
  <speed>5.37</speed>
  <fix>3d</fix>
</trkpt>
<trkpt lat="40.0717384" lon="-105.2276821">
  <ele>1583.01</ele>
  <time>2026-08-28T17:52:54Z</time>
  <course>329.41</course>
  <speed>5.320244355290459</speed>
  <fix>3d</fix>
</trkpt>
<trkpt lat="40.0717245" lon="-105.2276711">
  <ele>1583.0</ele>
  <time>2026-08-28T17:52:54Z</time>
  <course>328.51</course>
  <speed>5.37</speed>
  <fix>3d</fix>
</trkpt>
<trkpt lat="40.0717424" lon="-105.2276853">
  <ele>1583.02</ele>
  <time>2026-08-28T17:52:54Z</time>
  <course>329.34</course>
  <speed>5.289461220200032</speed>
  <fix>3d</fix>
</trkpt>
<trkpt lat="40.0717327" lon="-105.2276776">
  <ele>1583.0</ele>
  <time>2026-08-28T17:52:54Z</time>
  <course>328.49</course>
  <speed>5.32</speed>
  <fix>3d</fix>
</trkpt>
<trkpt lat="40.0717464" lon="-105.2276885">
  <ele>1583.02</ele>
  <time>2026-08-28T17:52:54Z</time>
  <course>329.3</course>
  <speed>5.250190472735251</speed>
  <fix>3d</fix>
</trkpt>
<trkpt lat="40.0717327" lon="-105.2276776">
  <ele>1583.0</ele>
  <time>2026-08-28T17:52:54Z</time>
  <course>328.49</course>
  <speed>5.32</speed>
  <fix>3d</fix>
</trkpt>
<trkpt lat="40.0717503" lon="-105.2276917">
  <ele>1583.02</ele>
  <time>2026-08-28T17:52:54Z</time>
  <course>329.23</course>
  <speed>5.205660380777832</speed>
  <fix>3d</fix>
</trkpt>
<trkpt lat="40.0717408" lon="-105.2276841">
  <ele>1583.0</ele>
  <time>2026-08-28T17:52:54Z</time>
  <course>328.41</course>
  <speed>5.26</speed>
  <fix>3d</fix>
</trkpt>
<trkpt lat="40.0717542" lon="-105.2276949">
  <ele>1583.02</ele>
  <time>2026-08-28T17:52:54Z</time>
  <course>329.16</course>
  <speed>5.174910627247585</speed>
  <fix>3d</fix>
</trkpt>
<trkpt lat="40.0717488" lon="-105.2276905">
  <ele>1583.0</ele>
  <time>2026-08-28T17:52:54Z</time>
  <course>328.29</course>
  <speed>5.19</speed>
  <fix>3d</fix>
</trkpt>
<trkpt lat="40.0717581" lon="-105.2276981">
  <ele>1583.02</ele>
  <time>2026-08-28T17:52:54Z</time>
  <course>329.09</course>
  <speed>5.135698589286563</speed>
  <fix>3d</fix>
</trkpt>
<trkpt lat="40.0717488" lon="-105.2276905">
  <ele>1583.0</ele>
  <time>2026-08-28T17:52:54Z</time>
  <course>328.29</course>
  <speed>5.19</speed>
  <fix>3d</fix>
</trkpt>
<trkpt lat="40.071762" lon="-105.2277013">
  <ele>1583.02</ele>
  <time>2026-08-28T17:52:54Z</time>
  <course>329.02</course>
  <speed>5.104977962734021</speed>
  <fix>3d</fix>
</trkpt>
<trkpt lat="40.0717567" lon="-105.2276969">
  <ele>1583.0</ele>
  <time>2026-08-28T17:52:54Z</time>
  <course>328.15</course>
  <speed>5.13</speed>
  <fix>3d</fix>
</trkpt>
<trkpt lat="40.0717658" lon="-105.2277044">
  <ele>1583.02</ele>
  <time>2026-08-28T17:52:54Z</time>
  <course>328.95</course>
  <speed>5.074268420176449</speed>
  <fix>3d</fix>
</trkpt>
<trkpt lat="40.0717567" lon="-105.2276969">
  <ele>1583.0</ele>
  <time>2026-08-28T17:52:54Z</time>
  <course>328.15</course>
  <speed>5.13</speed>
  <fix>3d</fix>
</trkpt>
<trkpt lat="40.0717697" lon="-105.2277076">
  <ele>1583.02</ele>
  <time>2026-08-28T17:52:54Z</time>
  <course>328.88</course>
  <speed>5.052019398220874</speed>
  <fix>3d</fix>
</trkpt>
<trkpt lat="40.0717645" lon="-105.2277033">
  <ele>1583.0</ele>
  <time>2026-08-28T17:52:54Z</time>
  <course>328.01</course>
  <speed>5.07</speed>
  <fix>3d</fix>
</trkpt>
<trkpt lat="40.0717735" lon="-105.2277108">
  <ele>1583.02</ele>
  <time>2026-08-28T17:52:54Z</time>
  <course>328.81</course>
  <speed>5.021324526457138</speed>
  <fix>3d</fix>
</trkpt>
<trkpt lat="40.0717645" lon="-105.2277033">
  <ele>1583.0</ele>
  <time>2026-08-28T17:52:54Z</time>
  <course>328.01</course>
  <speed>5.07</speed>
  <fix>3d</fix>
</trkpt>
<trkpt lat="40.0717773" lon="-105.2277139">
  <ele>1583.02</ele>
  <time>2026-08-28T17:52:54Z</time>
  <course>328.74</course>
  <speed>5.0044480215104645</speed>
  <fix>3d</fix>
</trkpt>
<trkpt lat="40.0717722" lon="-105.2277096">
  <ele>1583.0</ele>
  <time>2026-08-28T17:52:54Z</time>
  <course>327.87</course>
  <speed>5.03</speed>
  <fix>3d</fix>
</trkpt>
<trkpt lat="40.0717811" lon="-105.2277171">
  <ele>1583.02</ele>
  <time>2026-08-28T17:52:54Z</time>
  <course>328.67</course>
  <speed>4.973781257755512</speed>
  <fix>3d</fix>
</trkpt>
<trkpt lat="40.0717722" lon="-105.2277096">
  <ele>1583.0</ele>
  <time>2026-08-28T17:52:54Z</time>
  <course>327.87</course>
  <speed>5.03</speed>
  <fix>3d</fix>
</trkpt>
<trkpt lat="40.0717849" lon="-105.2277202">
  <ele>1583.02</ele>
  <time>2026-08-28T17:52:54Z</time>
  <course>328.61</course>
  <speed>4.929310296583083</speed>
  <fix>3d</fix>
</trkpt>
<trkpt lat="40.0717798" lon="-105.2277158">
  <ele>1583.0</ele>
  <time>2026-08-28T17:52:54Z</time>
  <course>327.73</course>
  <speed>4.97</speed>
  <fix>3d</fix>
</trkpt>
<trkpt lat="40.0717886" lon="-105.2277233">
  <ele>1583.02</ele>
  <time>2026-08-28T17:52:54Z</time>
  <course>328.54</course>
  <speed>4.862612466565683</speed>
  <fix>3d</fix>
</trkpt>
<trkpt lat="40.0717798" lon="-105.2277158">
  <ele>1583.0</ele>
  <time>2026-08-28T17:52:54Z</time>
  <course>327.73</course>
  <speed>4.97</speed>
  <fix>3d</fix>
</trkpt>
<trkpt lat="40.0717923" lon="-105.2277264">
  <ele>1583.02</ele>
  <time>2026-08-28T17:52:54Z</time>
  <course>328.47</course>
  <speed>4.795925353881146</speed>
  <fix>3d</fix>
</trkpt>
<trkpt lat="40.0717872" lon="-105.227722">
  <ele>1583.0</ele>
  <time>2026-08-28T17:52:54Z</time>
  <course>327.6</course>
  <speed>4.87</speed>
  <fix>3d</fix>
</trkpt>
<trkpt lat="40.0717959" lon="-105.2277294">
  <ele>1583.02</ele>
  <time>2026-08-28T17:52:54Z</time>
  <course>328.41</course>
  <speed>4.715421508200513</speed>
  <fix>3d</fix>
</trkpt>
<trkpt lat="40.0717872" lon="-105.227722">
  <ele>1583.0</ele>
  <time>2026-08-28T17:52:54Z</time>
  <course>327.6</course>
  <speed>4.87</speed>
  <fix>3d</fix>
</trkpt>
<trkpt lat="40.0717994" lon="-105.2277323">
  <ele>1583.02</ele>
  <time>2026-08-28T17:52:54Z</time>
  <course>328.34</course>
  <speed>4.6265321786409315</speed>
  <fix>3d</fix>
</trkpt>
<trkpt lat="40.0717945" lon="-105.2277281">
  <ele>1583.0</ele>
  <time>2026-08-28T17:52:54Z</time>
  <course>327.47</course>
  <speed>4.72</speed>
  <fix>3d</fix>
</trkpt>
<trkpt lat="40.0718028" lon="-105.2277352">
  <ele>1583.02</ele>
  <time>2026-08-28T17:52:54Z</time>
  <course>328.28</course>
  <speed>4.532206967913094</speed>
  <fix>3d</fix>
</trkpt>
<trkpt lat="40.0717945" lon="-105.2277281">
  <ele>1583.0</ele>
  <time>2026-08-28T17:52:54Z</time>
  <course>327.47</course>
  <speed>4.72</speed>
  <fix>3d</fix>
</trkpt>
<trkpt lat="40.0718062" lon="-105.2277381">
  <ele>1583.01</ele>
  <time>2026-08-28T17:52:54Z</time>
  <course>328.22</course>
  <speed>4.421131076998283</speed>
  <fix>3d</fix>
</trkpt>
<trkpt lat="40.0717945" lon="-105.2277281">
  <ele>1583.0</ele>
  <time>2026-08-28T17:52:54Z</time>
  <course>327.47</course>
  <speed>4.72</speed>
  <fix>3d</fix>
</trkpt>
<trkpt lat="40.0718095" lon="-105.2277409">
  <ele>1583.01</ele>
  <time>2026-08-28T17:52:54Z</time>
  <course>328.15</course>
  <speed>4.312968815097091</speed>
  <fix>3d</fix>
</trkpt>
<trkpt lat="40.0718016" lon="-105.2277339">
  <ele>1583.0</ele>
  <time>2026-08-28T17:52:54Z</time>
  <course>327.35</course>
  <speed>4.54</speed>
  <fix>3d</fix>
</trkpt>
<trkpt lat="40.0718126" lon="-105.2277435">
  <ele>1583.01</ele>
  <time>2026-08-28T17:52:54Z</time>
  <course>328.09</course>
  <speed>4.188078318274385</speed>
  <fix>3d</fix>
</trkpt>
<trkpt lat="40.0718016" lon="-105.2277339">
  <ele>1583.0</ele>
  <time>2026-08-28T17:52:54Z</time>
  <course>327.35</course>
  <speed>4.54</speed>
  <fix>3d</fix>
</trkpt>
<trkpt lat="40.0718157" lon="-105.2277461">
  <ele>1583.01</ele>
  <time>2026-08-28T17:52:54Z</time>
  <course>328.03</course>
  <speed>4.071559897631373</speed>
  <fix>3d</fix>
</trkpt>
<trkpt lat="40.0718083" lon="-105.2277395">
  <ele>1583.0</ele>
  <time>2026-08-28T17:52:54Z</time>
  <course>327.23</course>
  <speed>4.33</speed>
  <fix>3d</fix>
</trkpt>
<trkpt lat="40.0718187" lon="-105.2277487">
  <ele>1583.0</ele>
  <time>2026-08-28T17:52:54Z</time>
  <course>327.97</course>
  <speed>3.9411927128725894</speed>
  <fix>3d</fix>
</trkpt>
<trkpt lat="40.0718083" lon="-105.2277395">
  <ele>1583.0</ele>
  <time>2026-08-28T17:52:54Z</time>
  <course>327.23</course>
  <speed>4.33</speed>
  <fix>3d</fix>
</trkpt>
<trkpt lat="40.0718216" lon="-105.2277511">
  <ele>1583.0</ele>
  <time>2026-08-28T17:52:54Z</time>
  <course>327.92</course>
  <speed>3.816346420334506</speed>
  <fix>3d</fix>
</trkpt>
<trkpt lat="40.0718147" lon="-105.227745">
  <ele>1583.0</ele>
  <time>2026-08-28T17:52:54Z</time>
  <course>327.11</course>
  <speed>4.1</speed>
  <fix>3d</fix>
</trkpt>
<trkpt lat="40.0718244" lon="-105.2277535">
  <ele>1583.0</ele>
  <time>2026-08-28T17:52:54Z</time>
  <course>327.86</course>
  <speed>3.6943199644860214</speed>
  <fix>3d</fix>
</trkpt>
<trkpt lat="40.0718147" lon="-105.227745">
  <ele>1583.0</ele>
  <time>2026-08-28T17:52:54Z</time>
  <course>327.11</course>
  <speed>4.1</speed>
  <fix>3d</fix>
</trkpt>
<trkpt lat="40.0718271" lon="-105.2277558">
  <ele>1583.0</ele>
  <time>2026-08-28T17:52:54Z</time>
  <course>327.81</course>
  <speed>3.563958473383213</speed>
  <fix>3d</fix>
</trkpt>
<trkpt lat="40.0718206" lon="-105.22775">
  <ele>1583.0</ele>
  <time>2026-08-28T17:52:54Z</time>
  <course>327.0</course>
  <speed>3.86</speed>
  <fix>3d</fix>
</trkpt>
<trkpt lat="40.0718297" lon="-105.2277581">
  <ele>1583.0</ele>
  <time>2026-08-28T17:52:54Z</time>
  <course>327.75</course>
  <speed>3.4391423349434085</speed>
  <fix>3d</fix>
</trkpt>
<trkpt lat="40.0718263" lon="-105.2277547">
  <ele>1583.0</ele>
  <time>2026-08-28T17:52:54Z</time>
  <course>326.9</course>
  <speed>3.61</speed>
  <fix>3d</fix>
</trkpt>
<trkpt lat="40.0718322" lon="-105.2277602">
  <ele>1583.0</ele>
  <time>2026-08-28T17:52:54Z</time>
  <course>327.7</course>
  <speed>3.3087913201046693</speed>
  <fix>3d</fix>
</trkpt>
<trkpt lat="40.0718263" lon="-105.2277547">
  <ele>1583.0</ele>
  <time>2026-08-28T17:52:54Z</time>
  <course>326.9</course>
  <speed>3.61</speed>
  <fix>3d</fix>
</trkpt>
<trkpt lat="40.0718346" lon="-105.2277623">
  <ele>1582.99</ele>
  <time>2026-08-28T17:52:54Z</time>
  <course>327.65</course>
  <speed>3.1923189063751134</speed>
  <fix>3d</fix>
</trkpt>
<trkpt lat="40.0718315" lon="-105.2277593">
  <ele>1583.0</ele>
  <time>2026-08-28T17:52:54Z</time>
  <course>326.81</course>
  <speed>3.37</speed>
  <fix>3d</fix>
</trkpt>
<trkpt lat="40.071837" lon="-105.2277643">
  <ele>1582.99</ele>
  <time>2026-08-28T17:52:54Z</time>
  <course>327.61</course>
  <speed>3.0619764858666043</speed>
  <fix>3d</fix>
</trkpt>
<trkpt lat="40.0718315" lon="-105.2277593">
  <ele>1583.0</ele>
  <time>2026-08-28T17:52:54Z</time>
  <course>326.81</course>
  <speed>3.37</speed>
  <fix>3d</fix>
</trkpt>
<trkpt lat="40.0718392" lon="-105.2277662">
  <ele>1582.99</ele>
  <time>2026-08-28T17:52:54Z</time>
  <course>327.56</course>
  <speed>2.9399319720020736</speed>
  <fix>3d</fix>
</trkpt>
<trkpt lat="40.0718364" lon="-105.2277635">
  <ele>1583.0</ele>
  <time>2026-08-28T17:52:54Z</time>
  <course>326.72</course>
  <speed>3.13</speed>
  <fix>3d</fix>
</trkpt>
<trkpt lat="40.0718414" lon="-105.2277681">
  <ele>1582.99</ele>
  <time>2026-08-28T17:52:54Z</time>
  <course>327.52</course>
  <speed>2.8234730386529283</speed>
  <fix>3d</fix>
</trkpt>
<trkpt lat="40.0718364" lon="-105.2277635">
  <ele>1583.0</ele>
  <time>2026-08-28T17:52:54Z</time>
  <course>326.72</course>
  <speed>3.13</speed>
  <fix>3d</fix>
</trkpt>
<trkpt lat="40.0718435" lon="-105.2277699">
  <ele>1582.99</ele>
  <time>2026-08-28T17:52:54Z</time>
  <course>327.48</course>
  <speed>2.7070278905101812</speed>
  <fix>3d</fix>
</trkpt>
<trkpt lat="40.0718409" lon="-105.2277673">
  <ele>1583.0</ele>
  <time>2026-08-28T17:52:54Z</time>
  <course>326.64</course>
  <speed>2.89</speed>
  <fix>3d</fix>
</trkpt>
<trkpt lat="40.0718455" lon="-105.2277717">
  <ele>1582.99</ele>
  <time>2026-08-28T17:52:54Z</time>
  <course>327.44</course>
  <speed>2.5849758219372188</speed>
  <fix>3d</fix>
</trkpt>
<trkpt lat="40.0718409" lon="-105.2277673">
  <ele>1583.0</ele>
  <time>2026-08-28T17:52:54Z</time>
  <course>326.64</course>
  <speed>2.89</speed>
  <fix>3d</fix>
</trkpt>
<trkpt lat="40.0718474" lon="-105.2277733">
  <ele>1582.99</ele>
  <time>2026-08-28T17:52:54Z</time>
  <course>327.4</course>
  <speed>2.4768124676688785</speed>
  <fix>3d</fix>
</trkpt>
<trkpt lat="40.0718451" lon="-105.2277709">
  <ele>1583.0</ele>
  <time>2026-08-28T17:52:54Z</time>
  <course>326.56</course>
  <speed>2.66</speed>
  <fix>3d</fix>
</trkpt>
<trkpt lat="40.0718493" lon="-105.2277749">
  <ele>1582.98</ele>
  <time>2026-08-28T17:52:54Z</time>
  <course>327.36</course>
  <speed>2.3686494041964083</speed>
  <fix>3d</fix>
</trkpt>
<trkpt lat="40.0718451" lon="-105.2277709">
  <ele>1583.0</ele>
  <time>2026-08-28T17:52:54Z</time>
  <course>326.56</course>
  <speed>2.66</speed>
  <fix>3d</fix>
</trkpt>
<trkpt lat="40.071851" lon="-105.2277764">
  <ele>1582.98</ele>
  <time>2026-08-28T17:52:54Z</time>
  <course>327.33</course>
  <speed>2.2522211259110416</speed>
  <fix>3d</fix>
</trkpt>
<trkpt lat="40.0718489" lon="-105.2277742">
  <ele>1583.0</ele>
  <time>2026-08-28T17:52:54Z</time>
  <course>326.49</course>
  <speed>2.44</speed>
  <fix>3d</fix>
</trkpt>
<trkpt lat="40.0718527" lon="-105.2277778">
  <ele>1582.99</ele>
  <time>2026-08-28T17:52:54Z</time>
  <course>327.28</course>
  <speed>2.144061566280222</speed>
  <fix>3d</fix>
</trkpt>
<trkpt lat="40.0718489" lon="-105.2277742">
  <ele>1583.0</ele>
  <time>2026-08-28T17:52:54Z</time>
  <course>326.49</course>
  <speed>2.44</speed>
  <fix>3d</fix>
</trkpt>
<trkpt lat="40.0718543" lon="-105.2277792">
  <ele>1582.99</ele>
  <time>2026-08-28T17:52:54Z</time>
  <course>327.22</course>
  <speed>2.0441624201613724</speed>
  <fix>3d</fix>
</trkpt>
<trkpt lat="40.0718524" lon="-105.2277773">
  <ele>1583.0</ele>
  <time>2026-08-28T17:52:54Z</time>
  <course>326.41</course>
  <speed>2.22</speed>
  <fix>3d</fix>
</trkpt>
<trkpt lat="40.0718558" lon="-105.2277805">
  <ele>1582.99</ele>
  <time>2026-08-28T17:52:54Z</time>
  <course>327.16</course>
  <speed>1.9360010330575756</speed>
  <fix>3d</fix>
</trkpt>
<trkpt lat="40.0718524" lon="-105.2277773">
  <ele>1583.0</ele>
  <time>2026-08-28T17:52:54Z</time>
  <course>326.41</course>
  <speed>2.22</speed>
  <fix>3d</fix>
</trkpt>
<trkpt lat="40.0718572" lon="-105.2277818">
  <ele>1582.99</ele>
  <time>2026-08-28T17:52:54Z</time>
  <course>327.1</course>
  <speed>1.8334939323597448</speed>
  <fix>3d</fix>
</trkpt>
<trkpt lat="40.0718524" lon="-105.2277773">
  <ele>1583.0</ele>
  <time>2026-08-28T17:52:54Z</time>
  <course>326.41</course>
  <speed>2.22</speed>
  <fix>3d</fix>
</trkpt>
<trkpt lat="40.0718586" lon="-105.227783">
  <ele>1582.99</ele>
  <time>2026-08-28T17:52:54Z</time>
  <course>327.05</course>
  <speed>1.733580110638098</speed>
  <fix>3d</fix>
</trkpt>
<trkpt lat="40.0718556" lon="-105.22778">
  <ele>1583.0</ele>
  <time>2026-08-28T17:52:54Z</time>
  <course>326.3</course>
  <speed>2.02</speed>
  <fix>3d</fix>
</trkpt>
<trkpt lat="40.0718599" lon="-105.2277841">
  <ele>1582.99</ele>
  <time>2026-08-28T17:52:54Z</time>
  <course>326.93</course>
  <speed>1.63932913107771</speed>
  <fix>3d</fix>
</trkpt>
<trkpt lat="40.0718556" lon="-105.22778">
  <ele>1583.0</ele>
  <time>2026-08-28T17:52:54Z</time>
  <course>326.3</course>
  <speed>2.02</speed>
  <fix>3d</fix>
</trkpt>
<trkpt lat="40.0718611" lon="-105.2277851">
  <ele>1582.99</ele>
  <time>2026-08-28T17:52:54Z</time>
  <course>326.53</course>
  <speed>1.5368799562750501</speed>
  <fix>3d</fix>
</trkpt>
<trkpt lat="40.0718585" lon="-105.2277826">
  <ele>1583.0</ele>
  <time>2026-08-28T17:52:54Z</time>
  <course>326.16</course>
  <speed>1.81</speed>
  <fix>3d</fix>
</trkpt>
<trkpt lat="40.0718622" lon="-105.2277861">
  <ele>1582.99</ele>
  <time>2026-08-28T17:52:54Z</time>
  <course>326.1</course>
  <speed>1.4345033983926285</speed>
  <fix>3d</fix>
</trkpt>
<trkpt lat="40.0718585" lon="-105.2277826">
  <ele>1583.0</ele>
  <time>2026-08-28T17:52:54Z</time>
  <course>326.16</course>
  <speed>1.81</speed>
  <fix>3d</fix>
</trkpt>
<trkpt lat="40.0718632" lon="-105.2277871">
  <ele>1582.99</ele>
  <time>2026-08-28T17:52:54Z</time>
  <course>325.59</course>
  <speed>1.3461797799699713</speed>
  <fix>3d</fix>
</trkpt>
<trkpt lat="40.0718611" lon="-105.2277848">
  <ele>1583.0</ele>
  <time>2026-08-28T17:52:54Z</time>
  <course>325.68</course>
  <speed>1.62</speed>
  <fix>3d</fix>
</trkpt>
<trkpt lat="40.0718642" lon="-105.227788">
  <ele>1582.99</ele>
  <time>2026-08-28T17:52:54Z</time>
  <course>324.97</course>
  <speed>1.244025723206719</speed>
  <fix>3d</fix>
</trkpt>
<trkpt lat="40.0718633" lon="-105.2277868">
  <ele>1583.0</ele>
  <time>2026-08-28T17:52:54Z</time>
  <course>324.71</course>
  <speed>1.42</speed>
  <fix>3d</fix>
</trkpt>
<trkpt lat="40.0718651" lon="-105.2277888">
  <ele>1583.0</ele>
  <time>2026-08-28T17:52:54Z</time>
  <course>324.2</course>
  <speed>1.1480853626799707</speed>
  <fix>3d</fix>
</trkpt>
<trkpt lat="40.0718633" lon="-105.2277868">
  <ele>1583.0</ele>
  <time>2026-08-28T17:52:54Z</time>
  <course>324.71</course>
  <speed>1.42</speed>
  <fix>3d</fix>
</trkpt>
<trkpt lat="40.0718659" lon="-105.2277896">
  <ele>1583.0</ele>
  <time>2026-08-28T17:52:54Z</time>
  <course>323.2</course>
  <speed>1.0463746938836012</speed>
  <fix>3d</fix>
</trkpt>
<trkpt lat="40.0718653" lon="-105.2277886">
  <ele>1583.0</ele>
  <time>2026-08-28T17:52:54Z</time>
  <course>323.3</course>
  <speed>1.23</speed>
  <fix>3d</fix>
</trkpt>
<trkpt lat="40.0718667" lon="-105.2277904">
  <ele>1583.01</ele>
  <time>2026-08-28T17:52:54Z</time>
  <course>321.93</course>
  <speed>0.9590099061010788</speed>
  <fix>3d</fix>
</trkpt>
<trkpt lat="40.0718653" lon="-105.2277886">
  <ele>1583.0</ele>
  <time>2026-08-28T17:52:54Z</time>
  <course>323.3</course>
  <speed>1.23</speed>
  <fix>3d</fix>
</trkpt>
<trkpt lat="40.0718674" lon="-105.2277911">
  <ele>1583.01</ele>
  <time>2026-08-28T17:52:54Z</time>
  <course>320.36</course>
  <speed>0.8570297544426332</speed>
  <fix>3d</fix>
</trkpt>
<trkpt lat="40.0718668" lon="-105.2277903">
  <ele>1583.0</ele>
  <time>2026-08-28T17:52:54Z</time>
  <course>321.05</course>
  <speed>1.04</speed>
  <fix>3d</fix>
</trkpt>
<trkpt lat="40.0718679" lon="-105.2277917">
  <ele>1583.01</ele>
  <time>2026-08-28T17:52:54Z</time>
  <course>318.64</course>
  <speed>0.7710382610480494</speed>
  <fix>3d</fix>
</trkpt>
<trkpt lat="40.0718668" lon="-105.2277903">
  <ele>1583.0</ele>
  <time>2026-08-28T17:52:54Z</time>
  <course>321.05</course>
  <speed>1.04</speed>
  <fix>3d</fix>
</trkpt>
<trkpt lat="40.0718684" lon="-105.2277924">
  <ele>1583.01</ele>
  <time>2026-08-28T17:52:54Z</time>
  <course>316.76</course>
  <speed>0.6717886572427374</speed>
  <fix>3d</fix>
</trkpt>
<trkpt lat="40.0718682" lon="-105.2277917">
  <ele>1583.0</ele>
  <time>2026-08-28T17:52:54Z</time>
  <course>317.89</course>
  <speed>0.85</speed>
  <fix>3d</fix>
</trkpt>
<trkpt lat="40.0718689" lon="-105.2277929">
  <ele>1583.01</ele>
  <time>2026-08-28T17:52:54Z</time>
  <course>314.72</course>
  <speed>0.5946427498927402</speed>
  <fix>3d</fix>
</trkpt>
<trkpt lat="40.0718682" lon="-105.2277917">
  <ele>1583.0</ele>
  <time>2026-08-28T17:52:54Z</time>
  <course>317.89</course>
  <speed>0.85</speed>
  <fix>3d</fix>
</trkpt>
<trkpt lat="40.0718693" lon="-105.2277935">
  <ele>1583.01</ele>
  <time>2026-08-28T17:52:54Z</time>
  <course>312.5</course>
  <speed>0.5467174773134658</speed>
  <fix>3d</fix>
</trkpt>
<trkpt lat="40.0718691" lon="-105.227793">
  <ele>1583.0</ele>
  <time>2026-08-28T17:52:54Z</time>
  <course>313.93</course>
  <speed>0.69</speed>
  <fix>3d</fix>
</trkpt>
<trkpt lat="40.0718696" lon="-105.227794">
  <ele>1583.01</ele>
  <time>2026-08-28T17:52:54Z</time>
  <course>310.12</course>
  <speed>0.5360037313302959</speed>
  <fix>3d</fix>
</trkpt>
<trkpt lat="40.0718691" lon="-105.227793">
  <ele>1583.0</ele>
  <time>2026-08-28T17:52:54Z</time>
  <course>313.93</course>
  <speed>0.69</speed>
  <fix>3d</fix>
</trkpt>
<trkpt lat="40.0718699" lon="-105.2277945">
  <ele>1583.0</ele>
  <time>2026-08-28T17:52:54Z</time>
  <course>307.57</course>
  <speed>0.54644304369257</speed>
  <fix>3d</fix>
</trkpt>
<trkpt lat="40.0718699" lon="-105.2277942">
  <ele>1583.0</ele>
  <time>2026-08-28T17:52:54Z</time>
  <course>309.16</course>
  <speed>0.63</speed>
  <fix>3d</fix>
</trkpt>
<trkpt lat="40.0718703" lon="-105.2277951">
  <ele>1583.0</ele>
  <time>2026-08-28T17:52:54Z</time>
  <course>304.74</course>
  <speed>0.5883026432033092</speed>
  <fix>3d</fix>
</trkpt>
<trkpt lat="40.0718699" lon="-105.2277942">
  <ele>1583.0</ele>
  <time>2026-08-28T17:52:54Z</time>
  <course>309.16</course>
  <speed>0.63</speed>
  <fix>3d</fix>
</trkpt>
<trkpt lat="40.0718706" lon="-105.2277958">
  <ele>1583.0</ele>
  <time>2026-08-28T17:52:54Z</time>
  <course>301.45</course>
  <speed>0.6488451279003334</speed>
  <fix>3d</fix>
</trkpt>
<trkpt lat="40.0718706" lon="-105.2277954">
  <ele>1583.0</ele>
  <time>2026-08-28T17:52:54Z</time>
  <course>303.4</course>
  <speed>0.68</speed>
  <fix>3d</fix>
</trkpt>
<trkpt lat="40.0718709" lon="-105.2277966">
  <ele>1582.99</ele>
  <time>2026-08-28T17:52:54Z</time>
  <course>297.56</course>
  <speed>0.7382411530116699</speed>
  <fix>3d</fix>
</trkpt>
<trkpt lat="40.0718706" lon="-105.2277954">
  <ele>1583.0</ele>
  <time>2026-08-28T17:52:54Z</time>
  <course>303.4</course>
  <speed>0.68</speed>
  <fix>3d</fix>
</trkpt>
<trkpt lat="40.0718712" lon="-105.2277975">
  <ele>1582.99</ele>
  <time>2026-08-28T17:52:54Z</time>
  <course>292.87</course>
  <speed>0.8415461959987698</speed>
  <fix>3d</fix>
</trkpt>
<trkpt lat="40.0718706" lon="-105.2277954">
  <ele>1583.0</ele>
  <time>2026-08-28T17:52:54Z</time>
  <course>303.4</course>
  <speed>0.68</speed>
  <fix>3d</fix>
</trkpt>
<trkpt lat="40.0718715" lon="-105.2277986">
  <ele>1582.99</ele>
  <time>2026-08-28T17:52:54Z</time>
  <course>287.08</course>
  <speed>0.9604686356149272</speed>
  <fix>3d</fix>
</trkpt>
<trkpt lat="40.0718713" lon="-105.2277969">
  <ele>1583.0</ele>
  <time>2026-08-28T17:52:54Z</time>
  <course>295.76</course>
  <speed>0.82</speed>
  <fix>3d</fix>
</trkpt>
<trkpt lat="40.0718717" lon="-105.2277998">
  <ele>1582.99</ele>
  <time>2026-08-28T17:52:54Z</time>
  <course>280.22</course>
  <speed>1.0692053123698928</speed>
  <fix>3d</fix>
</trkpt>
<trkpt lat="40.0718713" lon="-105.2277969">
  <ele>1583.0</ele>
  <time>2026-08-28T17:52:54Z</time>
  <course>295.76</course>
  <speed>0.82</speed>
  <fix>3d</fix>
</trkpt>
<trkpt lat="40.0718719" lon="-105.2278012">
  <ele>1582.99</ele>
  <time>2026-08-28T17:52:54Z</time>
  <course>272.68</course>
  <speed>1.18</speed>
  <fix>3d</fix>
</trkpt>
<trkpt lat="40.0718719" lon="-105.2277989">
  <ele>1583.0</ele>
  <time>2026-08-28T17:52:54Z</time>
  <course>284.89</course>
  <speed>1.01</speed>
  <fix>3d</fix>
</trkpt>
<trkpt lat="40.0718718" lon="-105.2278027">
  <ele>1582.99</ele>
  <time>2026-08-28T17:52:54Z</time>
  <course>264.51</course>
  <speed>1.2826924806827238</speed>
  <fix>3d</fix>
</trkpt>
<trkpt lat="40.0718719" lon="-105.2277989">
  <ele>1583.0</ele>
  <time>2026-08-28T17:52:54Z</time>
  <course>284.89</course>
  <speed>1.01</speed>
  <fix>3d</fix>
</trkpt>
<trkpt lat="40.0718716" lon="-105.2278043">
  <ele>1582.99</ele>
  <time>2026-08-28T17:52:54Z</time>
  <course>255.74</course>
  <speed>1.3792751719653333</speed>
  <fix>3d</fix>
</trkpt>
<trkpt lat="40.0718721" lon="-105.2278015">
  <ele>1583.0</ele>
  <time>2026-08-28T17:52:54Z</time>
  <course>270.71</course>
  <speed>1.22</speed>
  <fix>3d</fix>
</trkpt>
<trkpt lat="40.0718711" lon="-105.227806">
  <ele>1582.99</ele>
  <time>2026-08-28T17:52:54Z</time>
  <course>246.36</course>
  <speed>1.4668674105044395</speed>
  <fix>3d</fix>
</trkpt>
<trkpt lat="40.0718718" lon="-105.2278045">
  <ele>1583.0</ele>
  <time>2026-08-28T17:52:54Z</time>
  <course>253.89</course>
  <speed>1.4</speed>
  <fix>3d</fix>
</trkpt>
<trkpt lat="40.0718704" lon="-105.2278076">
  <ele>1582.99</ele>
  <time>2026-08-28T17:52:54Z</time>
  <course>236.56</course>
  <speed>1.552063143045411</speed>
  <fix>3d</fix>
</trkpt>
<trkpt lat="40.0718718" lon="-105.2278045">
  <ele>1583.0</ele>
  <time>2026-08-28T17:52:54Z</time>
  <course>253.89</course>
  <speed>1.4</speed>
  <fix>3d</fix>
</trkpt>
<trkpt lat="40.0718695" lon="-105.227809">
  <ele>1582.99</ele>
  <time>2026-08-28T17:52:54Z</time>
  <course>226.34</course>
  <speed>1.6200308639035246</speed>
  <fix>3d</fix>
</trkpt>
<trkpt lat="40.0718707" lon="-105.2278077">
  <ele>1583.0</ele>
  <time>2026-08-28T17:52:54Z</time>
  <course>234.95</course>
  <speed>1.54</speed>
  <fix>3d</fix>
</trkpt>
<trkpt lat="40.0718684" lon="-105.2278103">
  <ele>1582.99</ele>
  <time>2026-08-28T17:52:54Z</time>
  <course>215.97</course>
  <speed>1.678153747426022</speed>
  <fix>3d</fix>
</trkpt>
<trkpt lat="40.0718707" lon="-105.2278077">
  <ele>1583.0</ele>
  <time>2026-08-28T17:52:54Z</time>
  <course>234.95</course>
  <speed>1.54</speed>
  <fix>3d</fix>
</trkpt>
<trkpt lat="40.071867" lon="-105.2278112">
  <ele>1582.99</ele>
  <time>2026-08-28T17:52:54Z</time>
  <course>205.53</course>
  <speed>1.740028735394907</speed>
  <fix>3d</fix>
</trkpt>
<trkpt lat="40.0718687" lon="-105.2278103">
  <ele>1583.0</ele>
  <time>2026-08-28T17:52:54Z</time>
  <course>214.61</course>
  <speed>1.65</speed>
  <fix>3d</fix>
</trkpt>
<trkpt lat="40.0718654" lon="-105.2278119">
  <ele>1582.99</ele>
  <time>2026-08-28T17:52:54Z</time>
  <course>195.21</course>
  <speed>1.7907819521091897</speed>
  <fix>3d</fix>
</trkpt>
<trkpt lat="40.0718687" lon="-105.2278103">
  <ele>1583.0</ele>
  <time>2026-08-28T17:52:54Z</time>
  <course>214.61</course>
  <speed>1.65</speed>
  <fix>3d</fix>
</trkpt>
<trkpt lat="40.0718638" lon="-105.2278122">
  <ele>1582.99</ele>
  <time>2026-08-28T17:52:54Z</time>
  <course>185.82</course>
  <speed>1.8521878954360975</speed>
  <fix>3d</fix>
</trkpt>
<trkpt lat="40.071866" lon="-105.227812">
  <ele>1583.0</ele>
  <time>2026-08-28T17:52:54Z</time>
  <course>194.34</course>
  <speed>1.75</speed>
  <fix>3d</fix>
</trkpt>
<trkpt lat="40.0718621" lon="-105.2278122">
  <ele>1582.99</ele>
  <time>2026-08-28T17:52:54Z</time>
  <course>177.42</course>
  <speed>1.9275113488641253</speed>
  <fix>3d</fix>
</trkpt>
<trkpt lat="40.071866" lon="-105.227812">
  <ele>1583.0</ele>
  <time>2026-08-28T17:52:54Z</time>
  <course>194.34</course>
  <speed>1.75</speed>
  <fix>3d</fix>
</trkpt>
<trkpt lat="40.0718603" lon="-105.2278118">
  <ele>1582.99</ele>
  <time>2026-08-28T17:52:54Z</time>
  <course>169.98</course>
  <speed>1.9968475154603067</speed>
  <fix>3d</fix>
</trkpt>
<trkpt lat="40.0718628" lon="-105.2278123">
  <ele>1583.0</ele>
  <time>2026-08-28T17:52:54Z</time>
  <course>176.62</course>
  <speed>1.87</speed>
  <fix>3d</fix>
</trkpt>
<trkpt lat="40.0718586" lon="-105.2278111">
  <ele>1582.98</ele>
  <time>2026-08-28T17:52:54Z</time>
  <course>163.65</course>
  <speed>2.0776188293332343</speed>
  <fix>3d</fix>
</trkpt>
<trkpt lat="40.0718628" lon="-105.2278123">
  <ele>1583.0</ele>
  <time>2026-08-28T17:52:54Z</time>
  <course>176.62</course>
  <speed>1.87</speed>
  <fix>3d</fix>
</trkpt>
<trkpt lat="40.0718568" lon="-105.2278102">
  <ele>1582.98</ele>
  <time>2026-08-28T17:52:54Z</time>
  <course>158.36</course>
  <speed>2.153555200128383</speed>
  <fix>3d</fix>
</trkpt>
<trkpt lat="40.0718593" lon="-105.2278115">
  <ele>1583.0</ele>
  <time>2026-08-28T17:52:54Z</time>
  <course>162.98</course>
  <speed>2.01</speed>
  <fix>3d</fix>
</trkpt>
<trkpt lat="40.071855" lon="-105.2278091">
  <ele>1582.98</ele>
  <time>2026-08-28T17:52:54Z</time>
  <course>154.13</course>
  <speed>2.245885126180767</speed>
  <fix>3d</fix>
</trkpt>
<trkpt lat="40.0718593" lon="-105.2278115">
  <ele>1583.0</ele>
  <time>2026-08-28T17:52:54Z</time>
  <course>162.98</course>
  <speed>2.01</speed>
  <fix>3d</fix>
</trkpt>
<trkpt lat="40.0718533" lon="-105.2278078">
  <ele>1582.99</ele>
  <time>2026-08-28T17:52:54Z</time>
  <course>150.96</course>
  <speed>2.3375414434828743</speed>
  <fix>3d</fix>
</trkpt>
<trkpt lat="40.0718558" lon="-105.2278097">
  <ele>1583.0</ele>
  <time>2026-08-28T17:52:54Z</time>
  <course>153.54</course>
  <speed>2.18</speed>
  <fix>3d</fix>
</trkpt>
<trkpt lat="40.0718515" lon="-105.2278063">
  <ele>1582.99</ele>
  <time>2026-08-28T17:52:54Z</time>
  <course>148.86</course>
  <speed>2.4352617929085163</speed>
  <fix>3d</fix>
</trkpt>
<trkpt lat="40.0718558" lon="-105.2278097">
  <ele>1583.0</ele>
  <time>2026-08-28T17:52:54Z</time>
  <course>153.54</course>
  <speed>2.18</speed>
  <fix>3d</fix>
</trkpt>
<trkpt lat="40.0718496" lon="-105.2278047">
  <ele>1582.99</ele>
  <time>2026-08-28T17:52:54Z</time>
  <course>147.84</course>
  <speed>2.526756814574762</speed>
  <fix>3d</fix>
</trkpt>
<trkpt lat="40.0718558" lon="-105.2278097">
  <ele>1583.0</ele>
  <time>2026-08-28T17:52:54Z</time>
  <course>153.54</course>
  <speed>2.18</speed>
  <fix>3d</fix>
</trkpt>
<trkpt lat="40.0718477" lon="-105.2278031">
  <ele>1582.99</ele>
  <time>2026-08-28T17:52:54Z</time>
  <course>147.85</course>
  <speed>2.629315500277591</speed>
  <fix>3d</fix>
</trkpt>
<trkpt lat="40.0718522" lon="-105.2278071">
  <ele>1583.0</ele>
  <time>2026-08-28T17:52:54Z</time>
  <course>148.36</course>
  <speed>2.37</speed>
  <fix>3d</fix>
</trkpt>
<trkpt lat="40.0718457" lon="-105.2278013">
  <ele>1583.0</ele>
  <time>2026-08-28T17:52:54Z</time>
  <course>148.03</course>
  <speed>2.731904097877522</speed>
  <fix>3d</fix>
</trkpt>
<trkpt lat="40.0718522" lon="-105.2278071">
  <ele>1583.0</ele>
  <time>2026-08-28T17:52:54Z</time>
  <course>148.36</course>
  <speed>2.37</speed>
  <fix>3d</fix>
</trkpt>
<trkpt lat="40.0718437" lon="-105.2277996">
  <ele>1583.0</ele>
  <time>2026-08-28T17:52:54Z</time>
  <course>148.18</course>
  <speed>2.8345193596093146</speed>
  <fix>3d</fix>
</trkpt>
<trkpt lat="40.0718485" lon="-105.227804">
  <ele>1583.0</ele>
  <time>2026-08-28T17:52:54Z</time>
  <course>146.97</course>
  <speed>2.57</speed>
  <fix>3d</fix>
</trkpt>
<trkpt lat="40.0718416" lon="-105.2277978">
  <ele>1583.0</ele>
  <time>2026-08-28T17:52:54Z</time>
  <course>148.3</course>
  <speed>2.937158490786631</speed>
  <fix>3d</fix>
</trkpt>
<trkpt lat="40.0718485" lon="-105.227804">
  <ele>1583.0</ele>
  <time>2026-08-28T17:52:54Z</time>
  <course>146.97</course>
  <speed>2.57</speed>
  <fix>3d</fix>
</trkpt>
<trkpt lat="40.0718394" lon="-105.2277959">
  <ele>1583.0</ele>
  <time>2026-08-28T17:52:54Z</time>
  <course>148.42</course>
  <speed>3.0481797847239913</speed>
  <fix>3d</fix>
</trkpt>
<trkpt lat="40.0718445" lon="-105.2278006">
  <ele>1583.0</ele>
  <time>2026-08-28T17:52:54Z</time>
  <course>147.19</course>
  <speed>2.78</speed>
  <fix>3d</fix>
</trkpt>
<trkpt lat="40.071837" lon="-105.227794">
  <ele>1583.0</ele>
  <time>2026-08-28T17:52:54Z</time>
  <course>148.51</course>
  <speed>3.1647116772306445</speed>
  <fix>3d</fix>
</trkpt>
<trkpt lat="40.0718445" lon="-105.2278006">
  <ele>1583.0</ele>
  <time>2026-08-28T17:52:54Z</time>
  <course>147.19</course>
  <speed>2.78</speed>
  <fix>3d</fix>
</trkpt>
<trkpt lat="40.0718346" lon="-105.227792">
  <ele>1583.0</ele>
  <time>2026-08-28T17:52:54Z</time>
  <course>148.6</course>
  <speed>3.2674148802991025</speed>
  <fix>3d</fix>
</trkpt>
<trkpt lat="40.0718401" lon="-105.2277969">
  <ele>1583.0</ele>
  <time>2026-08-28T17:52:54Z</time>
  <course>147.42</course>
  <speed>3.0</speed>
  <fix>3d</fix>
</trkpt>
<trkpt lat="40.0718321" lon="-105.2277899">
  <ele>1583.0</ele>
  <time>2026-08-28T17:52:54Z</time>
  <course>148.68</course>
  <speed>3.383962174729499</speed>
  <fix>3d</fix>
</trkpt>
<trkpt lat="40.0718353" lon="-105.2277929">
  <ele>1583.0</ele>
  <time>2026-08-28T17:52:54Z</time>
  <course>147.6</course>
  <speed>3.23</speed>
  <fix>3d</fix>
</trkpt>
<trkpt lat="40.0718295" lon="-105.2277878">
  <ele>1583.01</ele>
  <time>2026-08-28T17:52:54Z</time>
  <course>148.73</course>
  <speed>3.4950965651895802</speed>
  <fix>3d</fix>
</trkpt>
<trkpt lat="40.0718353" lon="-105.2277929">
  <ele>1583.0</ele>
  <time>2026-08-28T17:52:54Z</time>
  <course>147.6</course>
  <speed>3.23</speed>
  <fix>3d</fix>
</trkpt>
<trkpt lat="40.0718269" lon="-105.2277856">
  <ele>1583.01</ele>
  <time>2026-08-28T17:52:54Z</time>
  <course>148.78</course>
  <speed>3.6116616674323194</speed>
  <fix>3d</fix>
</trkpt>
<trkpt lat="40.0718303" lon="-105.2277888">
  <ele>1583.0</ele>
  <time>2026-08-28T17:52:54Z</time>
  <course>147.73</course>
  <speed>3.47</speed>
  <fix>3d</fix>
</trkpt>
<trkpt lat="40.0718241" lon="-105.2277833">
  <ele>1583.01</ele>
  <time>2026-08-28T17:52:54Z</time>
  <course>148.83</course>
  <speed>3.7228483718787153</speed>
  <fix>3d</fix>
</trkpt>
<trkpt lat="40.0718303" lon="-105.2277888">
  <ele>1583.0</ele>
  <time>2026-08-28T17:52:54Z</time>
  <course>147.73</course>
  <speed>3.47</speed>
  <fix>3d</fix>
</trkpt>
<trkpt lat="40.0718212" lon="-105.2277809">
  <ele>1583.01</ele>
  <time>2026-08-28T17:52:54Z</time>
  <course>148.87</course>
  <speed>3.839427040588218</speed>
  <fix>3d</fix>
</trkpt>
<trkpt lat="40.0718248" lon="-105.2277843">
  <ele>1583.0</ele>
  <time>2026-08-28T17:52:54Z</time>
  <course>147.82</course>
  <speed>3.7</speed>
  <fix>3d</fix>
</trkpt>
<trkpt lat="40.0718182" lon="-105.2277785">
  <ele>1583.01</ele>
  <time>2026-08-28T17:52:54Z</time>
  <course>148.89</course>
  <speed>3.9560080889704965</speed>
  <fix>3d</fix>
</trkpt>
<trkpt lat="40.0718248" lon="-105.2277843">
  <ele>1583.0</ele>
  <time>2026-08-28T17:52:54Z</time>
  <course>147.82</course>
  <speed>3.7</speed>
  <fix>3d</fix>
</trkpt>
<trkpt lat="40.0718151" lon="-105.227776">
  <ele>1583.01</ele>
  <time>2026-08-28T17:52:54Z</time>
  <course>148.92</course>
  <speed>4.0725913126656845</speed>
  <fix>3d</fix>
</trkpt>
<trkpt lat="40.071819" lon="-105.2277795">
  <ele>1583.0</ele>
  <time>2026-08-28T17:52:54Z</time>
  <course>147.88</course>
  <speed>3.93</speed>
  <fix>3d</fix>
</trkpt>
<trkpt lat="40.0718119" lon="-105.2277734">
  <ele>1583.01</ele>
  <time>2026-08-28T17:52:54Z</time>
  <course>148.95</course>
  <speed>4.183837950972767</speed>
  <fix>3d</fix>
</trkpt>
<trkpt lat="40.071819" lon="-105.2277795">
  <ele>1583.0</ele>
  <time>2026-08-28T17:52:54Z</time>
  <course>147.88</course>
  <speed>3.93</speed>
  <fix>3d</fix>
</trkpt>
<trkpt lat="40.0718087" lon="-105.2277707">
  <ele>1583.01</ele>
  <time>2026-08-28T17:52:54Z</time>
  <course>148.97</course>
  <speed>4.30043021103703</speed>
  <fix>3d</fix>
</trkpt>
<trkpt lat="40.0718128" lon="-105.2277745">
  <ele>1583.0</ele>
  <time>2026-08-28T17:52:54Z</time>
  <course>147.92</course>
  <speed>4.16</speed>
  <fix>3d</fix>
</trkpt>
<trkpt lat="40.0718053" lon="-105.227768">
  <ele>1583.01</ele>
  <time>2026-08-28T17:52:54Z</time>
  <course>148.99</course>
  <speed>4.403237445334966</speed>
  <fix>3d</fix>
</trkpt>
<trkpt lat="40.0718128" lon="-105.2277745">
  <ele>1583.0</ele>
  <time>2026-08-28T17:52:54Z</time>
  <course>147.92</course>
  <speed>4.16</speed>
  <fix>3d</fix>
</trkpt>
<trkpt lat="40.0718019" lon="-105.2277653">
  <ele>1583.01</ele>
  <time>2026-08-28T17:52:54Z</time>
  <course>149.0</course>
  <speed>4.519834067750718</speed>
  <fix>3d</fix>
</trkpt>
<trkpt lat="40.0718063" lon="-105.2277691">
  <ele>1583.0</ele>
  <time>2026-08-28T17:52:54Z</time>
  <course>147.96</course>
  <speed>4.38</speed>
  <fix>3d</fix>
</trkpt>
<trkpt lat="40.0717984" lon="-105.2277624">
  <ele>1583.01</ele>
  <time>2026-08-28T17:52:54Z</time>
  <course>148.99</course>
  <speed>4.622650754707736</speed>
  <fix>3d</fix>
</trkpt>
<trkpt lat="40.0718063" lon="-105.2277691">
  <ele>1583.0</ele>
  <time>2026-08-28T17:52:54Z</time>
  <course>147.96</course>
  <speed>4.38</speed>
  <fix>3d</fix>
</trkpt>
<trkpt lat="40.0717948" lon="-105.2277595">
  <ele>1583.01</ele>
  <time>2026-08-28T17:52:54Z</time>
  <course>148.89</course>
  <speed>4.730771607253937</speed>
  <fix>3d</fix>
</trkpt>
<trkpt lat="40.0717995" lon="-105.2277635">
  <ele>1583.0</ele>
  <time>2026-08-28T17:52:54Z</time>
  <course>147.91</course>
  <speed>4.59</speed>
  <fix>3d</fix>
</trkpt>
<trkpt lat="40.0717911" lon="-105.2277565">
  <ele>1583.01</ele>
  <time>2026-08-28T17:52:54Z</time>
  <course>148.68</course>
  <speed>4.8357522682618885</speed>
  <fix>3d</fix>
</trkpt>
<trkpt lat="40.0717995" lon="-105.2277635">
  <ele>1583.0</ele>
  <time>2026-08-28T17:52:54Z</time>
  <course>147.91</course>
  <speed>4.59</speed>
  <fix>3d</fix>
</trkpt>
<trkpt lat="40.0717874" lon="-105.2277534">
  <ele>1583.01</ele>
  <time>2026-08-28T17:52:54Z</time>
  <course>148.36</course>
  <speed>4.937732273017645</speed>
  <fix>3d</fix>
</trkpt>
<trkpt lat="40.0717995" lon="-105.2277635">
  <ele>1583.0</ele>
  <time>2026-08-28T17:52:54Z</time>
  <course>147.91</course>
  <speed>4.59</speed>
  <fix>3d</fix>
</trkpt>
<trkpt lat="40.0717836" lon="-105.2277503">
  <ele>1583.01</ele>
  <time>2026-08-28T17:52:54Z</time>
  <course>147.95</course>
  <speed>5.039890871834429</speed>
  <fix>3d</fix>
</trkpt>
<trkpt lat="40.0717923" lon="-105.2277576">
  <ele>1583.0</ele>
  <time>2026-08-28T17:52:54Z</time>
  <course>147.58</course>
  <speed>4.81</speed>
  <fix>3d</fix>
</trkpt>
<trkpt lat="40.0717798" lon="-105.227747">
  <ele>1583.01</ele>
  <time>2026-08-28T17:52:54Z</time>
  <course>147.45</course>
  <speed>5.139357936551997</speed>
  <fix>3d</fix>
</trkpt>
<trkpt lat="40.0717923" lon="-105.2277576">
  <ele>1583.0</ele>
  <time>2026-08-28T17:52:54Z</time>
  <course>147.58</course>
  <speed>4.81</speed>
  <fix>3d</fix>
</trkpt>
<trkpt lat="40.071776" lon="-105.2277437">
  <ele>1583.01</ele>
  <time>2026-08-28T17:52:54Z</time>
  <course>146.85</course>
  <speed>5.222575992745343</speed>
  <fix>3d</fix>
</trkpt>
<trkpt lat="40.0717849" lon="-105.2277513">
  <ele>1583.0</ele>
  <time>2026-08-28T17:52:54Z</time>
  <course>146.85</course>
  <speed>5.01</speed>
  <fix>3d</fix>
</trkpt>
<trkpt lat="40.0717721" lon="-105.2277402">
  <ele>1583.01</ele>
  <time>2026-08-28T17:52:54Z</time>
  <course>146.15</course>
  <speed>5.289858221162453</speed>
  <fix>3d</fix>
</trkpt>
<trkpt lat="40.0717849" lon="-105.2277513">
  <ele>1583.0</ele>
  <time>2026-08-28T17:52:54Z</time>
  <course>146.85</course>
  <speed>5.01</speed>
  <fix>3d</fix>
</trkpt>
<trkpt lat="40.0717683" lon="-105.2277366">
  <ele>1583.01</ele>
  <time>2026-08-28T17:52:54Z</time>
  <course>145.36</course>
  <speed>5.341582162618113</speed>
  <fix>3d</fix>
</trkpt>
<trkpt lat="40.0717772" lon="-105.2277447">
  <ele>1583.0</ele>
  <time>2026-08-28T17:52:54Z</time>
  <course>145.74</course>
  <speed>5.19</speed>
  <fix>3d</fix>
</trkpt>
<trkpt lat="40.0717644" lon="-105.2277329">
  <ele>1583.0</ele>
  <time>2026-08-28T17:52:54Z</time>
  <course>144.47</course>
  <speed>5.378196723809943</speed>
  <fix>3d</fix>
</trkpt>
<trkpt lat="40.0717695" lon="-105.2277376">
  <ele>1583.0</ele>
  <time>2026-08-28T17:52:54Z</time>
  <course>144.26</course>
  <speed>5.32</speed>
  <fix>3d</fix>
</trkpt>
<trkpt lat="40.0717605" lon="-105.2277291">
  <ele>1583.0</ele>
  <time>2026-08-28T17:52:54Z</time>
  <course>143.62</course>
  <speed>5.402119954240187</speed>
  <fix>3d</fix>
</trkpt>
<trkpt lat="40.0717695" lon="-105.2277376">
  <ele>1583.0</ele>
  <time>2026-08-28T17:52:54Z</time>
  <course>144.26</course>
  <speed>5.32</speed>
  <fix>3d</fix>
</trkpt>
<trkpt lat="40.0717567" lon="-105.2277252">
  <ele>1583.0</ele>
  <time>2026-08-28T17:52:54Z</time>
  <course>142.91</course>
  <speed>5.421116121242931</speed>
  <fix>3d</fix>
</trkpt>
<trkpt lat="40.0717617" lon="-105.2277301">
  <ele>1583.0</ele>
  <time>2026-08-28T17:52:54Z</time>
  <course>142.64</course>
  <speed>5.39</speed>
  <fix>3d</fix>
</trkpt>
<trkpt lat="40.0717529" lon="-105.2277212">
  <ele>1582.99</ele>
  <time>2026-08-28T17:52:54Z</time>
  <course>142.29</course>
  <speed>5.428600187893745</speed>
  <fix>3d</fix>
</trkpt>
<trkpt lat="40.0717617" lon="-105.2277301">
  <ele>1583.0</ele>
  <time>2026-08-28T17:52:54Z</time>
  <course>142.64</course>
  <speed>5.39</speed>
  <fix>3d</fix>
</trkpt>
<trkpt lat="40.0717491" lon="-105.2277172">
  <ele>1582.99</ele>
  <time>2026-08-28T17:52:54Z</time>
  <course>141.78</course>
  <speed>5.416308706120803</speed>
  <fix>3d</fix>
</trkpt>
<trkpt lat="40.0717541" lon="-105.2277223">
  <ele>1583.0</ele>
  <time>2026-08-28T17:52:54Z</time>
  <course>141.3</course>
  <speed>5.41</speed>
  <fix>3d</fix>
</trkpt>
<trkpt lat="40.0717453" lon="-105.2277131">
  <ele>1582.99</ele>
  <time>2026-08-28T17:52:54Z</time>
  <course>141.37</course>
  <speed>5.41215299118567</speed>
  <fix>3d</fix>
</trkpt>
<trkpt lat="40.0717541" lon="-105.2277223">
  <ele>1583.0</ele>
  <time>2026-08-28T17:52:54Z</time>
  <course>141.3</course>
  <speed>5.41</speed>
  <fix>3d</fix>
</trkpt>
<trkpt lat="40.0717416" lon="-105.227709">
  <ele>1582.99</ele>
  <time>2026-08-28T17:52:54Z</time>
  <course>141.05</course>
  <speed>5.395479589434103</speed>
  <fix>3d</fix>
</trkpt>
<trkpt lat="40.0717466" lon="-105.2277143">
  <ele>1583.0</ele>
  <time>2026-08-28T17:52:54Z</time>
  <course>140.37</course>
  <speed>5.4</speed>
  <fix>3d</fix>
</trkpt>
<trkpt lat="40.0717378" lon="-105.2277049">
  <ele>1582.99</ele>
  <time>2026-08-28T17:52:54Z</time>
  <course>140.84</course>
  <speed>5.364848553314436</speed>
  <fix>3d</fix>
</trkpt>
<trkpt lat="40.0717466" lon="-105.2277143">
  <ele>1583.0</ele>
  <time>2026-08-28T17:52:54Z</time>
  <course>140.37</course>
  <speed>5.4</speed>
  <fix>3d</fix>
</trkpt>
<trkpt lat="40.0717341" lon="-105.2277008">
  <ele>1582.99</ele>
  <time>2026-08-28T17:52:54Z</time>
  <course>140.74</course>
  <speed>5.3431170677798185</speed>
  <fix>3d</fix>
</trkpt>
<trkpt lat="40.0717391" lon="-105.2277062">
  <ele>1583.0</ele>
  <time>2026-08-28T17:52:54Z</time>
  <course>139.85</course>
  <speed>5.36</speed>
  <fix>3d</fix>
</trkpt>
<trkpt lat="40.0717305" lon="-105.2276967">
  <ele>1582.99</ele>
  <time>2026-08-28T17:52:54Z</time>
  <course>140.73</course>
  <speed>5.307296863752771</speed>
  <fix>3d</fix>
</trkpt>
<trkpt lat="40.0717391" lon="-105.2277062">
  <ele>1583.0</ele>
  <time>2026-08-28T17:52:54Z</time>
  <course>139.85</course>
  <speed>5.36</speed>
  <fix>3d</fix>
</trkpt>
<trkpt lat="40.0717269" lon="-105.2276927">
  <ele>1582.99</ele>
  <time>2026-08-28T17:52:54Z</time>
  <course>140.75</course>
  <speed>5.279109773437184</speed>
  <fix>3d</fix>
</trkpt>
<trkpt lat="40.0717318" lon="-105.2276981">
  <ele>1583.0</ele>
  <time>2026-08-28T17:52:54Z</time>
  <course>139.7</course>
  <speed>5.31</speed>
  <fix>3d</fix>
</trkpt>
<trkpt lat="40.0717232" lon="-105.2276887">
  <ele>1582.99</ele>
  <time>2026-08-28T17:52:54Z</time>
  <course>140.88</course>
  <speed>5.244473281464975</speed>
  <fix>3d</fix>
</trkpt>
<trkpt lat="40.0717318" lon="-105.2276981">
  <ele>1583.0</ele>
  <time>2026-08-28T17:52:54Z</time>
  <course>139.7</course>
  <speed>5.31</speed>
  <fix>3d</fix>
</trkpt>
<trkpt lat="40.0717196" lon="-105.2276847">
  <ele>1582.99</ele>
  <time>2026-08-28T17:52:54Z</time>
  <course>141.12</course>
  <speed>5.211103529963688</speed>
  <fix>3d</fix>
</trkpt>
<trkpt lat="40.0717245" lon="-105.22769">
  <ele>1583.0</ele>
  <time>2026-08-28T17:52:54Z</time>
  <course>139.89</course>
  <speed>5.25</speed>
  <fix>3d</fix>
</trkpt>
<trkpt lat="40.071716" lon="-105.2276808">
  <ele>1582.99</ele>
  <time>2026-08-28T17:52:54Z</time>
  <course>141.45</course>
  <speed>5.177847042932033</speed>
  <fix>3d</fix>
</trkpt>
<trkpt lat="40.0717245" lon="-105.22769">
  <ele>1583.0</ele>
  <time>2026-08-28T17:52:54Z</time>
  <course>139.89</course>
  <speed>5.25</speed>
  <fix>3d</fix>
</trkpt>
<trkpt lat="40.0717124" lon="-105.227677">
  <ele>1582.99</ele>
  <time>2026-08-28T17:52:54Z</time>
  <course>141.9</course>
  <speed>5.139815171774176</speed>
  <fix>3d</fix>
</trkpt>
<trkpt lat="40.0717245" lon="-105.22769">
  <ele>1583.0</ele>
  <time>2026-08-28T17:52:54Z</time>
  <course>139.89</course>
  <speed>5.25</speed>
  <fix>3d</fix>
</trkpt>
<trkpt lat="40.0717089" lon="-105.2276732">
  <ele>1582.99</ele>
  <time>2026-08-28T17:52:54Z</time>
  <course>142.43</course>
  <speed>5.108443990101096</speed>
  <fix>3d</fix>
</trkpt>
<trkpt lat="40.0717174" lon="-105.2276822">
  <ele>1583.0</ele>
  <time>2026-08-28T17:52:54Z</time>
  <course>140.46</course>
  <speed>5.18</speed>
  <fix>3d</fix>
</trkpt>
<trkpt lat="40.0717053" lon="-105.2276695">
  <ele>1583.0</ele>
  <time>2026-08-28T17:52:54Z</time>
  <course>143.08</course>
  <speed>5.072908435996061</speed>
  <fix>3d</fix>
</trkpt>
<trkpt lat="40.0717174" lon="-105.2276822">
  <ele>1583.0</ele>
  <time>2026-08-28T17:52:54Z</time>
  <course>140.46</course>
  <speed>5.18</speed>
  <fix>3d</fix>
</trkpt>
<trkpt lat="40.0717017" lon="-105.2276659">
  <ele>1583.0</ele>
  <time>2026-08-28T17:52:54Z</time>
  <course>143.81</course>
  <speed>5.046077684697294</speed>
  <fix>3d</fix>
</trkpt>
<trkpt lat="40.0717102" lon="-105.2276745">
  <ele>1583.0</ele>
  <time>2026-08-28T17:52:54Z</time>
  <course>141.44</course>
  <speed>5.13</speed>
  <fix>3d</fix>
</trkpt>
<trkpt lat="40.0716982" lon="-105.2276624">
  <ele>1583.0</ele>
  <time>2026-08-28T17:52:54Z</time>
  <course>144.66</course>
  <speed>5.022290314189334</speed>
  <fix>3d</fix>
</trkpt>
<trkpt lat="40.0717102" lon="-105.2276745">
  <ele>1583.0</ele>
  <time>2026-08-28T17:52:54Z</time>
  <course>141.44</course>
  <speed>5.13</speed>
  <fix>3d</fix>
</trkpt>
<trkpt lat="40.0716945" lon="-105.227659">
  <ele>1583.01</ele>
  <time>2026-08-28T17:52:54Z</time>
  <course>145.56</course>
  <speed>4.991693099540475</speed>
  <fix>3d</fix>
</trkpt>
<trkpt lat="40.071703" lon="-105.2276672">
  <ele>1583.0</ele>
  <time>2026-08-28T17:52:54Z</time>
  <course>142.83</course>
  <speed>5.08</speed>
  <fix>3d</fix>
</trkpt>
<trkpt lat="40.0716909" lon="-105.2276557">
  <ele>1583.01</ele>
  <time>2026-08-28T17:52:54Z</time>
  <course>146.39</course>
  <speed>4.976183276367541</speed>
  <fix>3d</fix>
</trkpt>
<trkpt lat="40.071703" lon="-105.2276672">
  <ele>1583.0</ele>
  <time>2026-08-28T17:52:54Z</time>
  <course>142.83</course>
  <speed>5.08</speed>
  <fix>3d</fix>
</trkpt>
<trkpt lat="40.0716872" lon="-105.2276524">
  <ele>1583.01</ele>
  <time>2026-08-28T17:52:54Z</time>
  <course>147.12</course>
  <speed>4.959032163638384</speed>
  <fix>3d</fix>
</trkpt>
<trkpt lat="40.0716957" lon="-105.2276601">
  <ele>1583.0</ele>
  <time>2026-08-28T17:52:54Z</time>
  <course>144.49</course>
  <speed>5.04</speed>
  <fix>3d</fix>
</trkpt>
<trkpt lat="40.0716835" lon="-105.2276493">
  <ele>1583.01</ele>
  <time>2026-08-28T17:52:54Z</time>
  <course>147.75</course>
  <speed>4.942630878388553</speed>
  <fix>3d</fix>
</trkpt>
<trkpt lat="40.0716882" lon="-105.2276534">
  <ele>1583.0</ele>
  <time>2026-08-28T17:52:54Z</time>
  <course>146.04</course>
  <speed>5.01</speed>
  <fix>3d</fix>
</trkpt>
<trkpt lat="40.0716798" lon="-105.2276461">
  <ele>1583.01</ele>
  <time>2026-08-28T17:52:54Z</time>
  <course>148.27</course>
  <speed>4.937732273017645</speed>
  <fix>3d</fix>
</trkpt>
<trkpt lat="40.0716882" lon="-105.2276534">
  <ele>1583.0</ele>
  <time>2026-08-28T17:52:54Z</time>
  <course>146.04</course>
  <speed>5.01</speed>
  <fix>3d</fix>
</trkpt>
<trkpt lat="40.071676" lon="-105.227643">
  <ele>1583.01</ele>
  <time>2026-08-28T17:52:54Z</time>
  <course>148.67</course>
  <speed>4.93323423323888</speed>
  <fix>3d</fix>
</trkpt>
<trkpt lat="40.0716807" lon="-105.2276469">
  <ele>1583.0</ele>
  <time>2026-08-28T17:52:54Z</time>
  <course>147.18</course>
  <speed>5.0</speed>
  <fix>3d</fix>
</trkpt>
<trkpt lat="40.0716722" lon="-105.2276399">
  <ele>1583.02</ele>
  <time>2026-08-28T17:52:54Z</time>
  <course>148.98</course>
  <speed>4.931135771807546</speed>
  <fix>3d</fix>
</trkpt>
<trkpt lat="40.0716807" lon="-105.2276469">
  <ele>1583.0</ele>
  <time>2026-08-28T17:52:54Z</time>
  <course>147.18</course>
  <speed>5.0</speed>
  <fix>3d</fix>
</trkpt>
<trkpt lat="40.0716684" lon="-105.2276369">
  <ele>1583.02</ele>
  <time>2026-08-28T17:52:54Z</time>
  <course>149.18</course>
  <speed>4.9291378556498096</speed>
  <fix>3d</fix>
</trkpt>
<trkpt lat="40.0716731" lon="-105.2276407">
  <ele>1583.0</ele>
  <time>2026-08-28T17:52:54Z</time>
  <course>147.9</course>
  <speed>4.99</speed>
  <fix>3d</fix>
</trkpt>
<trkpt lat="40.0716646" lon="-105.2276338">
  <ele>1583.02</ele>
  <time>2026-08-28T17:52:54Z</time>
  <course>149.27</course>
  <speed>4.923911047125039</speed>
  <fix>3d</fix>
</trkpt>
<trkpt lat="40.0716731" lon="-105.2276407">
  <ele>1583.0</ele>
  <time>2026-08-28T17:52:54Z</time>
  <course>147.9</course>
  <speed>4.99</speed>
  <fix>3d</fix>
</trkpt>
<trkpt lat="40.0716607" lon="-105.2276307">
  <ele>1583.02</ele>
  <time>2026-08-28T17:52:54Z</time>
  <course>149.27</course>
  <speed>4.932443613463818</speed>
  <fix>3d</fix>
</trkpt>
<trkpt lat="40.0716654" lon="-105.2276344">
  <ele>1583.0</ele>
  <time>2026-08-28T17:52:54Z</time>
  <course>148.2</course>
  <speed>4.99</speed>
  <fix>3d</fix>
</trkpt>
<trkpt lat="40.0716569" lon="-105.2276276">
  <ele>1583.02</ele>
  <time>2026-08-28T17:52:54Z</time>
  <course>149.27</course>
  <speed>4.932443613463818</speed>
  <fix>3d</fix>
</trkpt>
<trkpt lat="40.0716654" lon="-105.2276344">
  <ele>1583.0</ele>
  <time>2026-08-28T17:52:54Z</time>
  <course>148.2</course>
  <speed>4.99</speed>
  <fix>3d</fix>
</trkpt>
<trkpt lat="40.0716531" lon="-105.2276246">
  <ele>1583.02</ele>
  <time>2026-08-28T17:52:54Z</time>
  <course>149.27</course>
  <speed>4.940981683835713</speed>
  <fix>3d</fix>
</trkpt>
<trkpt lat="40.0716579" lon="-105.2276283">
  <ele>1583.0</ele>
  <time>2026-08-28T17:52:54Z</time>
  <course>148.25</course>
  <speed>4.99</speed>
  <fix>3d</fix>
</trkpt>
<trkpt lat="40.0716492" lon="-105.2276215">
  <ele>1583.02</ele>
  <time>2026-08-28T17:52:54Z</time>
  <course>149.28</course>
  <speed>4.940981683835713</speed>
  <fix>3d</fix>
</trkpt>
<trkpt lat="40.0716579" lon="-105.2276283">
  <ele>1583.0</ele>
  <time>2026-08-28T17:52:54Z</time>
  <course>148.25</course>
  <speed>4.99</speed>
  <fix>3d</fix>
</trkpt>
<trkpt lat="40.0716454" lon="-105.2276184">
  <ele>1583.02</ele>
  <time>2026-08-28T17:52:54Z</time>
  <course>149.39</course>
  <speed>4.94952522975689</speed>
  <fix>3d</fix>
</trkpt>
<trkpt lat="40.0716502" lon="-105.2276222">
  <ele>1583.0</ele>
  <time>2026-08-28T17:52:54Z</time>
  <course>148.31</course>
  <speed>5.0</speed>
  <fix>3d</fix>
</trkpt>
<trkpt lat="40.0716415" lon="-105.2276153">
  <ele>1583.02</ele>
  <time>2026-08-28T17:52:54Z</time>
  <course>149.45</course>
  <speed>4.952898141492514</speed>
  <fix>3d</fix>
</trkpt>
<trkpt lat="40.0716502" lon="-105.2276222">
  <ele>1583.0</ele>
  <time>2026-08-28T17:52:54Z</time>
  <course>148.31</course>
  <speed>5.0</speed>
  <fix>3d</fix>
</trkpt>
<trkpt lat="40.0716376" lon="-105.2276123">
  <ele>1583.03</ele>
  <time>2026-08-28T17:52:54Z</time>
  <course>149.52</course>
  <speed>4.961461478234009</speed>
  <fix>3d</fix>
</trkpt>
<trkpt lat="40.0716425" lon="-105.227616">
  <ele>1583.0</ele>
  <time>2026-08-28T17:52:54Z</time>
  <course>148.44</course>
  <speed>5.01</speed>
  <fix>3d</fix>
</trkpt>
<trkpt lat="40.0716338" lon="-105.2276092">
  <ele>1583.03</ele>
  <time>2026-08-28T17:52:54Z</time>
  <course>149.59</course>
  <speed>4.97003018099488</speed>
  <fix>3d</fix>
</trkpt>
<trkpt lat="40.0716425" lon="-105.227616">
  <ele>1583.0</ele>
  <time>2026-08-28T17:52:54Z</time>
  <course>148.44</course>
  <speed>5.01</speed>
  <fix>3d</fix>
</trkpt>
<trkpt lat="40.0716299" lon="-105.2276062">
  <ele>1583.03</ele>
  <time>2026-08-28T17:52:54Z</time>
  <course>149.65</course>
  <speed>4.973469613861132</speed>
  <fix>3d</fix>
</trkpt>
<trkpt lat="40.0716425" lon="-105.227616">
  <ele>1583.0</ele>
  <time>2026-08-28T17:52:54Z</time>
  <course>148.44</course>
  <speed>5.01</speed>
  <fix>3d</fix>
</trkpt>
<trkpt lat="40.071626" lon="-105.2276031">
  <ele>1583.04</ele>
  <time>2026-08-28T17:52:54Z</time>
  <course>149.72</course>
  <speed>4.973469613861132</speed>
  <fix>3d</fix>
</trkpt>
<trkpt lat="40.0716348" lon="-105.2276098">
  <ele>1583.0</ele>
  <time>2026-08-28T17:52:54Z</time>
  <course>148.58</course>
  <speed>5.02</speed>
  <fix>3d</fix>
</trkpt>
<trkpt lat="40.0716222" lon="-105.2276001">
  <ele>1583.04</ele>
  <time>2026-08-28T17:52:54Z</time>
  <course>149.79</course>
  <speed>4.976946855251722</speed>
  <fix>3d</fix>
</trkpt>
<trkpt lat="40.0716348" lon="-105.2276098">
  <ele>1583.0</ele>
  <time>2026-08-28T17:52:54Z</time>
  <course>148.58</course>
  <speed>5.02</speed>
  <fix>3d</fix>
</trkpt>
<trkpt lat="40.0716184" lon="-105.2275971">
  <ele>1583.04</ele>
  <time>2026-08-28T17:52:54Z</time>
  <course>149.86</course>
  <speed>4.976946855251722</speed>
  <fix>3d</fix>
</trkpt>
<trkpt lat="40.0716271" lon="-105.2276036">
  <ele>1583.0</ele>
  <time>2026-08-28T17:52:54Z</time>
  <course>148.71</course>
  <speed>5.03</speed>
  <fix>3d</fix>
</trkpt>
<trkpt lat="40.0716145" lon="-105.2275941">
  <ele>1583.04</ele>
  <time>2026-08-28T17:52:54Z</time>
  <course>149.93</course>
  <speed>4.985549117198627</speed>
  <fix>3d</fix>
</trkpt>
<trkpt lat="40.0716271" lon="-105.2276036">
  <ele>1583.0</ele>
  <time>2026-08-28T17:52:54Z</time>
  <course>148.71</course>
  <speed>5.03</speed>
  <fix>3d</fix>
</trkpt>
<trkpt lat="40.0716107" lon="-105.227591">
  <ele>1583.04</ele>
  <time>2026-08-28T17:52:54Z</time>
  <course>149.96</course>
  <speed>4.980461825975579</speed>
  <fix>3d</fix>
</trkpt>
<trkpt lat="40.0716194" lon="-105.2275975">
  <ele>1583.0</ele>
  <time>2026-08-28T17:52:54Z</time>
  <course>148.85</course>
  <speed>5.04</speed>
  <fix>3d</fix>
</trkpt>
<trkpt lat="40.0716068" lon="-105.227588">
  <ele>1583.04</ele>
  <time>2026-08-28T17:52:54Z</time>
  <course>150.0</course>
  <speed>4.989078071147013</speed>
  <fix>3d</fix>
</trkpt>
<trkpt lat="40.0716117" lon="-105.2275914">
  <ele>1583.0</ele>
  <time>2026-08-28T17:52:54Z</time>
  <course>148.95</course>
  <speed>5.04</speed>
  <fix>3d</fix>
</trkpt>
<trkpt lat="40.0716029" lon="-105.227585">
  <ele>1583.04</ele>
  <time>2026-08-28T17:52:54Z</time>
  <course>150.0</course>
  <speed>4.989078071147013</speed>
  <fix>3d</fix>
</trkpt>
<trkpt lat="40.0716117" lon="-105.2275914">
  <ele>1583.0</ele>
  <time>2026-08-28T17:52:54Z</time>
  <course>148.95</course>
  <speed>5.04</speed>
  <fix>3d</fix>
</trkpt>
<trkpt lat="40.071599" lon="-105.2275819">
  <ele>1583.04</ele>
  <time>2026-08-28T17:52:54Z</time>
  <course>150.04</course>
  <speed>4.989078071147013</speed>
  <fix>3d</fix>
</trkpt>
<trkpt lat="40.0716039" lon="-105.2275853">
  <ele>1583.0</ele>
  <time>2026-08-28T17:52:54Z</time>
  <course>149.01</course>
  <speed>5.05</speed>
  <fix>3d</fix>
</trkpt>
<trkpt lat="40.0715951" lon="-105.2275789">
  <ele>1583.04</ele>
  <time>2026-08-28T17:52:54Z</time>
  <course>150.07</course>
  <speed>4.99769947075652</speed>
  <fix>3d</fix>
</trkpt>
<trkpt lat="40.0716039" lon="-105.2275853">
  <ele>1583.0</ele>
  <time>2026-08-28T17:52:54Z</time>
  <course>149.01</course>
  <speed>5.05</speed>
  <fix>3d</fix>
</trkpt>
<trkpt lat="40.0715912" lon="-105.2275758">
  <ele>1583.04</ele>
  <time>2026-08-28T17:52:54Z</time>
  <course>150.08</course>
  <speed>4.99769947075652</speed>
  <fix>3d</fix>
</trkpt>
<trkpt lat="40.071596" lon="-105.2275792">
  <ele>1583.0</ele>
  <time>2026-08-28T17:52:54Z</time>
  <course>149.05</course>
  <speed>5.05</speed>
  <fix>3d</fix>
</trkpt>
<trkpt lat="40.0715873" lon="-105.2275728">
  <ele>1583.04</ele>
  <time>2026-08-28T17:52:54Z</time>
  <course>150.12</course>
  <speed>4.99769947075652</speed>
  <fix>3d</fix>
</trkpt>
<trkpt lat="40.071596" lon="-105.2275792">
  <ele>1583.0</ele>
  <time>2026-08-28T17:52:54Z</time>
  <course>149.05</course>
  <speed>5.05</speed>
  <fix>3d</fix>
</trkpt>
<trkpt lat="40.0715834" lon="-105.2275697">
  <ele>1583.03</ele>
  <time>2026-08-28T17:52:54Z</time>
  <course>150.14</course>
  <speed>5.0063259981747095</speed>
  <fix>3d</fix>
</trkpt>
<trkpt lat="40.0715883" lon="-105.2275731">
  <ele>1583.0</ele>
  <time>2026-08-28T17:52:54Z</time>
  <course>149.1</course>
  <speed>5.05</speed>
  <fix>3d</fix>
</trkpt>
<trkpt lat="40.0715794" lon="-105.2275666">
  <ele>1583.03</ele>
  <time>2026-08-28T17:52:54Z</time>
  <course>150.16</course>
  <speed>5.0063259981747095</speed>
  <fix>3d</fix>
</trkpt>
<trkpt lat="40.0715883" lon="-105.2275731">
  <ele>1583.0</ele>
  <time>2026-08-28T17:52:54Z</time>
  <course>149.1</course>
  <speed>5.05</speed>
  <fix>3d</fix>
</trkpt>
<trkpt lat="40.0715755" lon="-105.2275636">
  <ele>1583.02</ele>
  <time>2026-08-28T17:52:54Z</time>
  <course>150.2</course>
  <speed>5.001279836201929</speed>
  <fix>3d</fix>
</trkpt>
<trkpt lat="40.0715804" lon="-105.227567">
  <ele>1583.0</ele>
  <time>2026-08-28T17:52:54Z</time>
  <course>149.16</course>
  <speed>5.05</speed>
  <fix>3d</fix>
</trkpt>
<trkpt lat="40.0715715" lon="-105.2275605">
  <ele>1583.02</ele>
  <time>2026-08-28T17:52:54Z</time>
  <course>150.19</course>
  <speed>5.014957626939633</speed>
  <fix>3d</fix>
</trkpt>
<trkpt lat="40.0715804" lon="-105.227567">
  <ele>1583.0</ele>
  <time>2026-08-28T17:52:54Z</time>
  <course>149.16</course>
  <speed>5.05</speed>
  <fix>3d</fix>
</trkpt>
<trkpt lat="40.0715676" lon="-105.2275575">
  <ele>1583.02</ele>
  <time>2026-08-28T17:52:54Z</time>
  <course>150.19</course>
  <speed>5.014957626939633</speed>
  <fix>3d</fix>
</trkpt>
<trkpt lat="40.0715727" lon="-105.2275609">
  <ele>1583.0</ele>
  <time>2026-08-28T17:52:54Z</time>
  <course>149.19</course>
  <speed>5.05</speed>
  <fix>3d</fix>
</trkpt>
<trkpt lat="40.0715637" lon="-105.2275544">
  <ele>1583.02</ele>
  <time>2026-08-28T17:52:54Z</time>
  <course>150.19</course>
  <speed>5.014957626939633</speed>
  <fix>3d</fix>
</trkpt>
<trkpt lat="40.0715727" lon="-105.2275609">
  <ele>1583.0</ele>
  <time>2026-08-28T17:52:54Z</time>
  <course>149.19</course>
  <speed>5.05</speed>
  <fix>3d</fix>
</trkpt>
<trkpt lat="40.0715598" lon="-105.2275514">
  <ele>1583.02</ele>
  <time>2026-08-28T17:52:54Z</time>
  <course>150.2</course>
  <speed>5.009920159044453</speed>
  <fix>3d</fix>
</trkpt>
<trkpt lat="40.0715649" lon="-105.2275549">
  <ele>1583.0</ele>
  <time>2026-08-28T17:52:54Z</time>
  <course>149.2</course>
  <speed>5.05</speed>
  <fix>3d</fix>
</trkpt>
<trkpt lat="40.0715558" lon="-105.2275483">
  <ele>1583.02</ele>
  <time>2026-08-28T17:52:54Z</time>
  <course>150.22</course>
  <speed>5.009920159044453</speed>
  <fix>3d</fix>
</trkpt>
<trkpt lat="40.0715649" lon="-105.2275549">
  <ele>1583.0</ele>
  <time>2026-08-28T17:52:54Z</time>
  <course>149.2</course>
  <speed>5.05</speed>
  <fix>3d</fix>
</trkpt>
<trkpt lat="40.0715519" lon="-105.2275453">
  <ele>1583.02</ele>
  <time>2026-08-28T17:52:54Z</time>
  <course>150.23</course>
  <speed>5.009920159044453</speed>
  <fix>3d</fix>
</trkpt>
<trkpt lat="40.0715649" lon="-105.2275549">
  <ele>1583.0</ele>
  <time>2026-08-28T17:52:54Z</time>
  <course>149.2</course>
  <speed>5.05</speed>
  <fix>3d</fix>
</trkpt>
<trkpt lat="40.071548" lon="-105.2275423">
  <ele>1583.03</ele>
  <time>2026-08-28T17:52:54Z</time>
  <course>150.26</course>
  <speed>5.009920159044453</speed>
  <fix>3d</fix>
</trkpt>
<trkpt lat="40.071557" lon="-105.2275488">
  <ele>1583.0</ele>
  <time>2026-08-28T17:52:54Z</time>
  <course>149.22</course>
  <speed>5.05</speed>
  <fix>3d</fix>
</trkpt>
<trkpt lat="40.0715442" lon="-105.2275393">
  <ele>1583.03</ele>
  <time>2026-08-28T17:52:54Z</time>
  <course>150.3</course>
  <speed>4.9962485926943225</speed>
  <fix>3d</fix>
</trkpt>
<trkpt lat="40.071557" lon="-105.2275488">
  <ele>1583.0</ele>
  <time>2026-08-28T17:52:54Z</time>
  <course>149.22</course>
  <speed>5.05</speed>
  <fix>3d</fix>
</trkpt>
<trkpt lat="40.0715403" lon="-105.2275363">
  <ele>1583.03</ele>
  <time>2026-08-28T17:52:54Z</time>
  <course>150.31</course>
  <speed>4.9962485926943225</speed>
  <fix>3d</fix>
</trkpt>
<trkpt lat="40.0715493" lon="-105.2275427">
  <ele>1583.0</ele>
  <time>2026-08-28T17:52:54Z</time>
  <course>149.27</course>
  <speed>5.04</speed>
  <fix>3d</fix>
</trkpt>
<trkpt lat="40.0715364" lon="-105.2275333">
  <ele>1583.04</ele>
  <time>2026-08-28T17:52:54Z</time>
  <course>150.34</course>
  <speed>4.9962485926943225</speed>
  <fix>3d</fix>
</trkpt>
<trkpt lat="40.0715493" lon="-105.2275427">
  <ele>1583.0</ele>
  <time>2026-08-28T17:52:54Z</time>
  <course>149.27</course>
  <speed>5.04</speed>
  <fix>3d</fix>
</trkpt>
<trkpt lat="40.0715326" lon="-105.2275303">
  <ele>1583.04</ele>
  <time>2026-08-28T17:52:54Z</time>
  <course>150.37</course>
  <speed>4.991232312766057</speed>
  <fix>3d</fix>
</trkpt>
<trkpt lat="40.0715414" lon="-105.2275367">
  <ele>1583.0</ele>
  <time>2026-08-28T17:52:54Z</time>
  <course>149.32</course>
  <speed>5.04</speed>
  <fix>3d</fix>
</trkpt>
<trkpt lat="40.0715287" lon="-105.2275273">
  <ele>1583.04</ele>
  <time>2026-08-28T17:52:54Z</time>
  <course>150.37</course>
  <speed>4.991232312766057</speed>
  <fix>3d</fix>
</trkpt>
<trkpt lat="40.0715414" lon="-105.2275367">
  <ele>1583.0</ele>
  <time>2026-08-28T17:52:54Z</time>
  <course>149.32</course>
  <speed>5.04</speed>
  <fix>3d</fix>
</trkpt>
<trkpt lat="40.0715248" lon="-105.2275243">
  <ele>1583.05</ele>
  <time>2026-08-28T17:52:54Z</time>
  <course>150.37</course>
  <speed>4.991232312766057</speed>
  <fix>3d</fix>
</trkpt>
<trkpt lat="40.0715337" lon="-105.2275306">
  <ele>1583.0</ele>
  <time>2026-08-28T17:52:54Z</time>
  <course>149.35</course>
  <speed>5.03</speed>
  <fix>3d</fix>
</trkpt>
<trkpt lat="40.071521" lon="-105.2275213">
  <ele>1583.04</ele>
  <time>2026-08-28T17:52:54Z</time>
  <course>150.38</course>
  <speed>4.991232312766057</speed>
  <fix>3d</fix>
</trkpt>
<trkpt lat="40.071526" lon="-105.2275246">
  <ele>1583.0</ele>
  <time>2026-08-28T17:52:54Z</time>
  <course>149.38</course>
  <speed>5.03</speed>
  <fix>3d</fix>
</trkpt>
<trkpt lat="40.0715171" lon="-105.2275183">
  <ele>1583.04</ele>
  <time>2026-08-28T17:52:54Z</time>
  <course>150.41</course>
  <speed>4.991232312766057</speed>
  <fix>3d</fix>
</trkpt>
<trkpt lat="40.071526" lon="-105.2275246">
  <ele>1583.0</ele>
  <time>2026-08-28T17:52:54Z</time>
  <course>149.38</course>
  <speed>5.03</speed>
  <fix>3d</fix>
</trkpt>
<trkpt lat="40.0715132" lon="-105.2275153">
  <ele>1583.05</ele>
  <time>2026-08-28T17:52:54Z</time>
  <course>150.44</course>
  <speed>4.991232312766057</speed>
  <fix>3d</fix>
</trkpt>
<trkpt lat="40.0715182" lon="-105.2275186">
  <ele>1583.0</ele>
  <time>2026-08-28T17:52:54Z</time>
  <course>149.41</course>
  <speed>5.03</speed>
  <fix>3d</fix>
</trkpt>
<trkpt lat="40.0715093" lon="-105.2275123">
  <ele>1583.05</ele>
  <time>2026-08-28T17:52:54Z</time>
  <course>150.45</course>
  <speed>4.991232312766057</speed>
  <fix>3d</fix>
</trkpt>
<trkpt lat="40.0715182" lon="-105.2275186">
  <ele>1583.0</ele>
  <time>2026-08-28T17:52:54Z</time>
  <course>149.41</course>
  <speed>5.03</speed>
  <fix>3d</fix>
</trkpt>
<trkpt lat="40.0715054" lon="-105.2275093">
  <ele>1583.05</ele>
  <time>2026-08-28T17:52:54Z</time>
  <course>150.47</course>
  <speed>4.991232312766057</speed>
  <fix>3d</fix>
</trkpt>
<trkpt lat="40.0715103" lon="-105.2275125">
  <ele>1583.0</ele>
  <time>2026-08-28T17:52:54Z</time>
  <course>149.46</course>
  <speed>5.03</speed>
  <fix>3d</fix>
</trkpt>
<trkpt lat="40.0715015" lon="-105.2275063">
  <ele>1583.05</ele>
  <time>2026-08-28T17:52:54Z</time>
  <course>150.51</course>
  <speed>4.999889998789973</speed>
  <fix>3d</fix>
</trkpt>
<trkpt lat="40.0715103" lon="-105.2275125">
  <ele>1583.0</ele>
  <time>2026-08-28T17:52:54Z</time>
  <course>149.46</course>
  <speed>5.03</speed>
  <fix>3d</fix>
</trkpt>
<trkpt lat="40.0714975" lon="-105.2275032">
  <ele>1583.05</ele>
  <time>2026-08-28T17:52:54Z</time>
  <course>150.54</course>
  <speed>4.999889998789973</speed>
  <fix>3d</fix>
</trkpt>
<trkpt lat="40.0715026" lon="-105.2275066">
  <ele>1583.0</ele>
  <time>2026-08-28T17:52:54Z</time>
  <course>149.51</course>
  <speed>5.03</speed>
  <fix>3d</fix>
</trkpt>
<trkpt lat="40.0714936" lon="-105.2275002">
  <ele>1583.04</ele>
  <time>2026-08-28T17:52:54Z</time>
  <course>150.55</course>
  <speed>4.999889998789973</speed>
  <fix>3d</fix>
</trkpt>
<trkpt lat="40.0715026" lon="-105.2275066">
  <ele>1583.0</ele>
  <time>2026-08-28T17:52:54Z</time>
  <course>149.51</course>
  <speed>5.03</speed>
  <fix>3d</fix>
</trkpt>
<trkpt lat="40.0714897" lon="-105.2274972">
  <ele>1583.04</ele>
  <time>2026-08-28T17:52:54Z</time>
  <course>150.55</course>
  <speed>4.999889998789973</speed>
  <fix>3d</fix>
</trkpt>
<trkpt lat="40.0714947" lon="-105.2275005">
  <ele>1583.0</ele>
  <time>2026-08-28T17:52:54Z</time>
  <course>149.55</course>
  <speed>5.03</speed>
  <fix>3d</fix>
</trkpt>
<trkpt lat="40.0714857" lon="-105.2274942">
  <ele>1583.04</ele>
  <time>2026-08-28T17:52:54Z</time>
  <course>150.56</course>
  <speed>4.999889998789973</speed>
  <fix>3d</fix>
</trkpt>
<trkpt lat="40.0714947" lon="-105.2275005">
  <ele>1583.0</ele>
  <time>2026-08-28T17:52:54Z</time>
  <course>149.55</course>
  <speed>5.03</speed>
  <fix>3d</fix>
</trkpt>
<trkpt lat="40.0714818" lon="-105.2274912">
  <ele>1583.04</ele>
  <time>2026-08-28T17:52:54Z</time>
  <course>150.57</course>
  <speed>4.999889998789973</speed>
  <fix>3d</fix>
</trkpt>
<trkpt lat="40.071487" lon="-105.2274946">
  <ele>1583.0</ele>
  <time>2026-08-28T17:52:54Z</time>
  <course>149.57</course>
  <speed>5.03</speed>
  <fix>3d</fix>
</trkpt>
<trkpt lat="40.0714779" lon="-105.2274881">
  <ele>1583.04</ele>
  <time>2026-08-28T17:52:54Z</time>
  <course>150.58</course>
  <speed>4.999889998789973</speed>
  <fix>3d</fix>
</trkpt>
<trkpt lat="40.071487" lon="-105.2274946">
  <ele>1583.0</ele>
  <time>2026-08-28T17:52:54Z</time>
  <course>149.57</course>
  <speed>5.03</speed>
  <fix>3d</fix>
</trkpt>
<trkpt lat="40.071474" lon="-105.2274851">
  <ele>1583.04</ele>
  <time>2026-08-28T17:52:54Z</time>
  <course>150.62</course>
  <speed>4.9948973963435925</speed>
  <fix>3d</fix>
</trkpt>
<trkpt lat="40.071487" lon="-105.2274946">
  <ele>1583.0</ele>
  <time>2026-08-28T17:52:54Z</time>
  <course>149.57</course>
  <speed>5.03</speed>
  <fix>3d</fix>
</trkpt>
<trkpt lat="40.0714701" lon="-105.2274821">
  <ele>1583.04</ele>
  <time>2026-08-28T17:52:54Z</time>
  <course>150.64</course>
  <speed>4.9948973963435925</speed>
  <fix>3d</fix>
</trkpt>
<trkpt lat="40.0714792" lon="-105.2274885">
  <ele>1583.0</ele>
  <time>2026-08-28T17:52:54Z</time>
  <course>149.61</course>
  <speed>5.03</speed>
  <fix>3d</fix>
</trkpt>
<trkpt lat="40.0714662" lon="-105.2274792">
  <ele>1583.04</ele>
  <time>2026-08-28T17:52:54Z</time>
  <course>150.66</course>
  <speed>4.9948973963435925</speed>
  <fix>3d</fix>
</trkpt>
<trkpt lat="40.0714792" lon="-105.2274885">
  <ele>1583.0</ele>
  <time>2026-08-28T17:52:54Z</time>
  <course>149.61</course>
  <speed>5.03</speed>
  <fix>3d</fix>
</trkpt>
<trkpt lat="40.0714624" lon="-105.2274762">
  <ele>1583.04</ele>
  <time>2026-08-28T17:52:54Z</time>
  <course>150.69</course>
  <speed>4.9948973963435925</speed>
  <fix>3d</fix>
</trkpt>
<trkpt lat="40.0714713" lon="-105.2274826">
  <ele>1583.0</ele>
  <time>2026-08-28T17:52:54Z</time>
  <course>149.66</course>
  <speed>5.02</speed>
  <fix>3d</fix>
</trkpt>
<trkpt lat="40.0714585" lon="-105.2274733">
  <ele>1583.04</ele>
  <time>2026-08-28T17:52:54Z</time>
  <course>150.71</course>
  <speed>4.989919839035493</speed>
  <fix>3d</fix>
</trkpt>
<trkpt lat="40.0714713" lon="-105.2274826">
  <ele>1583.0</ele>
  <time>2026-08-28T17:52:54Z</time>
  <course>149.66</course>
  <speed>5.02</speed>
  <fix>3d</fix>
</trkpt>
<trkpt lat="40.0714546" lon="-105.2274703">
  <ele>1583.04</ele>
  <time>2026-08-28T17:52:54Z</time>
  <course>150.73</course>
  <speed>4.989919839035493</speed>
  <fix>3d</fix>
</trkpt>
<trkpt lat="40.0714636" lon="-105.2274766">
  <ele>1583.0</ele>
  <time>2026-08-28T17:52:54Z</time>
  <course>149.71</course>
  <speed>5.02</speed>
  <fix>3d</fix>
</trkpt>
<trkpt lat="40.0714508" lon="-105.2274674">
  <ele>1583.04</ele>
  <time>2026-08-28T17:52:54Z</time>
  <course>150.83</course>
  <speed>4.984957371934088</speed>
  <fix>3d</fix>
</trkpt>
<trkpt lat="40.0714636" lon="-105.2274766">
  <ele>1583.0</ele>
  <time>2026-08-28T17:52:54Z</time>
  <course>149.71</course>
  <speed>5.02</speed>
  <fix>3d</fix>
</trkpt>
<trkpt lat="40.0714469" lon="-105.2274644">
  <ele>1583.04</ele>
  <time>2026-08-28T17:52:54Z</time>
  <course>151.02</course>
  <speed>4.988707247373813</speed>
  <fix>3d</fix>
</trkpt>
<trkpt lat="40.0714557" lon="-105.2274707">
  <ele>1583.0</ele>
  <time>2026-08-28T17:52:54Z</time>
  <course>149.8</course>
  <speed>5.02</speed>
  <fix>3d</fix>
</trkpt>
<trkpt lat="40.071443" lon="-105.2274615">
  <ele>1583.05</ele>
  <time>2026-08-28T17:52:54Z</time>
  <course>151.3</course>
  <speed>4.9875946106314615</speed>
  <fix>3d</fix>
</trkpt>
<trkpt lat="40.071448" lon="-105.2274648">
  <ele>1583.0</ele>
  <time>2026-08-28T17:52:54Z</time>
  <course>150.09</course>
  <speed>5.02</speed>
  <fix>3d</fix>
</trkpt>
<trkpt lat="40.0714391" lon="-105.2274586">
  <ele>1583.04</ele>
  <time>2026-08-28T17:52:54Z</time>
  <course>151.66</course>
  <speed>4.990490957811666</speed>
  <fix>3d</fix>
</trkpt>
<trkpt lat="40.071448" lon="-105.2274648">
  <ele>1583.0</ele>
  <time>2026-08-28T17:52:54Z</time>
  <course>150.09</course>
  <speed>5.02</speed>
  <fix>3d</fix>
</trkpt>
<trkpt lat="40.0714352" lon="-105.2274557">
  <ele>1583.04</ele>
  <time>2026-08-28T17:52:54Z</time>
  <course>152.09</course>
  <speed>4.993645962620898</speed>
  <fix>3d</fix>
</trkpt>
<trkpt lat="40.0714401" lon="-105.227459">
  <ele>1583.0</ele>
  <time>2026-08-28T17:52:54Z</time>
  <course>150.73</course>
  <speed>5.02</speed>
  <fix>3d</fix>
</trkpt>
<trkpt lat="40.0714312" lon="-105.2274529">
  <ele>1583.04</ele>
  <time>2026-08-28T17:52:54Z</time>
  <course>152.62</course>
  <speed>4.992364169409118</speed>
  <fix>3d</fix>
</trkpt>
<trkpt lat="40.0714401" lon="-105.227459">
  <ele>1583.0</ele>
  <time>2026-08-28T17:52:54Z</time>
  <course>150.73</course>
  <speed>5.02</speed>
  <fix>3d</fix>
</trkpt>
<trkpt lat="40.0714272" lon="-105.2274501">
  <ele>1583.04</ele>
  <time>2026-08-28T17:52:54Z</time>
  <course>153.25</course>
  <speed>4.995768209194658</speed>
  <fix>3d</fix>
</trkpt>
<trkpt lat="40.0714322" lon="-105.2274532">
  <ele>1583.0</ele>
  <time>2026-08-28T17:52:54Z</time>
  <course>151.71</course>
  <speed>5.02</speed>
  <fix>3d</fix>
</trkpt>
<trkpt lat="40.0714231" lon="-105.2274474">
  <ele>1583.04</ele>
  <time>2026-08-28T17:52:54Z</time>
  <course>153.97</course>
  <speed>4.995377863585497</speed>
  <fix>3d</fix>
</trkpt>
<trkpt lat="40.0714322" lon="-105.2274532">
  <ele>1583.0</ele>
  <time>2026-08-28T17:52:54Z</time>
  <course>151.71</course>
  <speed>5.02</speed>
  <fix>3d</fix>
</trkpt>
<trkpt lat="40.0714191" lon="-105.2274448">
  <ele>1583.04</ele>
  <time>2026-08-28T17:52:54Z</time>
  <course>154.78</course>
  <speed>4.9958883094000415</speed>
  <fix>3d</fix>
</trkpt>
<trkpt lat="40.0714241" lon="-105.2274478">
  <ele>1583.0</ele>
  <time>2026-08-28T17:52:54Z</time>
  <course>153.06</course>
  <speed>5.02</speed>
  <fix>3d</fix>
</trkpt>
<trkpt lat="40.0714149" lon="-105.2274422">
  <ele>1583.04</ele>
  <time>2026-08-28T17:52:54Z</time>
  <course>155.72</course>
  <speed>4.997969587742606</speed>
  <fix>3d</fix>
</trkpt>
<trkpt lat="40.0714241" lon="-105.2274478">
  <ele>1583.0</ele>
  <time>2026-08-28T17:52:54Z</time>
  <course>153.06</course>
  <speed>5.02</speed>
  <fix>3d</fix>
</trkpt>
<trkpt lat="40.0714108" lon="-105.2274397">
  <ele>1583.03</ele>
  <time>2026-08-28T17:52:54Z</time>
  <course>156.63</course>
  <speed>4.996528795073636</speed>
  <fix>3d</fix>
</trkpt>
<trkpt lat="40.071416" lon="-105.2274426">
  <ele>1583.0</ele>
  <time>2026-08-28T17:52:54Z</time>
  <course>154.75</course>
  <speed>5.02</speed>
  <fix>3d</fix>
</trkpt>
<trkpt lat="40.0714066" lon="-105.2274373">
  <ele>1583.03</ele>
  <time>2026-08-28T17:52:54Z</time>
  <course>157.43</course>
  <speed>5.000159997440082</speed>
  <fix>3d</fix>
</trkpt>
<trkpt lat="40.071416" lon="-105.2274426">
  <ele>1583.0</ele>
  <time>2026-08-28T17:52:54Z</time>
  <course>154.75</course>
  <speed>5.02</speed>
  <fix>3d</fix>
</trkpt>
<trkpt lat="40.0714024" lon="-105.227435">
  <ele>1583.03</ele>
  <time>2026-08-28T17:52:54Z</time>
  <course>158.17</course>
  <speed>4.991643016081979</speed>
  <fix>3d</fix>
</trkpt>
<trkpt lat="40.0714078" lon="-105.2274377">
  <ele>1583.0</ele>
  <time>2026-08-28T17:52:54Z</time>
  <course>156.44</course>
  <speed>5.02</speed>
  <fix>3d</fix>
</trkpt>
<trkpt lat="40.0713982" lon="-105.2274327">
  <ele>1583.03</ele>
  <time>2026-08-28T17:52:54Z</time>
  <course>158.82</course>
  <speed>5.0008099344006265</speed>
  <fix>3d</fix>
</trkpt>
<trkpt lat="40.0714078" lon="-105.2274377">
  <ele>1583.0</ele>
  <time>2026-08-28T17:52:54Z</time>
  <course>156.44</course>
  <speed>5.02</speed>
  <fix>3d</fix>
</trkpt>
<trkpt lat="40.071394" lon="-105.2274306">
  <ele>1583.03</ele>
  <time>2026-08-28T17:52:54Z</time>
  <course>159.39</course>
  <speed>5.001299831043926</speed>
  <fix>3d</fix>
</trkpt>
<trkpt lat="40.0713995" lon="-105.2274331">
  <ele>1583.0</ele>
  <time>2026-08-28T17:52:54Z</time>
  <course>157.82</course>
  <speed>5.02</speed>
  <fix>3d</fix>
</trkpt>
<trkpt lat="40.0713898" lon="-105.2274284">
  <ele>1583.02</ele>
  <time>2026-08-28T17:52:54Z</time>
  <course>159.89</course>
  <speed>4.99648876712437</speed>
  <fix>3d</fix>
</trkpt>
<trkpt lat="40.0713995" lon="-105.2274331">
  <ele>1583.0</ele>
  <time>2026-08-28T17:52:54Z</time>
  <course>157.82</course>
  <speed>5.02</speed>
  <fix>3d</fix>
</trkpt>
<trkpt lat="40.0713855" lon="-105.2274263">
  <ele>1583.02</ele>
  <time>2026-08-28T17:52:54Z</time>
  <course>160.31</course>
  <speed>5.004837659704858</speed>
  <fix>3d</fix>
</trkpt>
<trkpt lat="40.0713995" lon="-105.2274331">
  <ele>1583.0</ele>
  <time>2026-08-28T17:52:54Z</time>
  <course>157.82</course>
  <speed>5.02</speed>
  <fix>3d</fix>
</trkpt>
<trkpt lat="40.0713813" lon="-105.2274243">
  <ele>1583.02</ele>
  <time>2026-08-28T17:52:54Z</time>
  <course>160.65</course>
  <speed>4.9946070916539576</speed>
  <fix>3d</fix>
</trkpt>
<trkpt lat="40.0713911" lon="-105.2274288">
  <ele>1583.0</ele>
  <time>2026-08-28T17:52:54Z</time>
  <course>158.9</course>
  <speed>5.02</speed>
  <fix>3d</fix>
</trkpt>
<trkpt lat="40.0713771" lon="-105.2274223">
  <ele>1583.02</ele>
  <time>2026-08-28T17:52:54Z</time>
  <course>160.91</course>
  <speed>4.997299270606074</speed>
  <fix>3d</fix>
</trkpt>
<trkpt lat="40.0713911" lon="-105.2274288">
  <ele>1583.0</ele>
  <time>2026-08-28T17:52:54Z</time>
  <course>158.9</course>
  <speed>5.02</speed>
  <fix>3d</fix>
</trkpt>
<trkpt lat="40.0713729" lon="-105.2274203">
  <ele>1583.01</ele>
  <time>2026-08-28T17:52:54Z</time>
  <course>161.08</course>
  <speed>4.99065126010624</speed>
  <fix>3d</fix>
</trkpt>
<trkpt lat="40.0713827" lon="-105.2274247">
  <ele>1583.0</ele>
  <time>2026-08-28T17:52:54Z</time>
  <course>159.66</course>
  <speed>5.02</speed>
  <fix>3d</fix>
</trkpt>
<trkpt lat="40.0713687" lon="-105.2274184">
  <ele>1583.01</ele>
  <time>2026-08-28T17:52:54Z</time>
  <course>161.19</course>
  <speed>4.987354007888351</speed>
  <fix>3d</fix>
</trkpt>
<trkpt lat="40.0713827" lon="-105.2274247">
  <ele>1583.0</ele>
  <time>2026-08-28T17:52:54Z</time>
  <course>159.66</course>
  <speed>5.02</speed>
  <fix>3d</fix>
</trkpt>
<trkpt lat="40.0713645" lon="-105.2274164">
  <ele>1583.01</ele>
  <time>2026-08-28T17:52:54Z</time>
  <course>161.21</course>
  <speed>4.95573405258999</speed>
  <fix>3d</fix>
</trkpt>
<trkpt lat="40.0713742" lon="-105.2274207">
  <ele>1583.0</ele>
  <time>2026-08-28T17:52:54Z</time>
  <course>160.1</course>
  <speed>5.01</speed>
  <fix>3d</fix>
</trkpt>
<trkpt lat="40.0713603" lon="-105.2274145">
  <ele>1583.01</ele>
  <time>2026-08-28T17:52:54Z</time>
  <course>161.21</course>
  <speed>4.920833262771662</speed>
  <fix>3d</fix>
</trkpt>
<trkpt lat="40.0713657" lon="-105.2274166">
  <ele>1583.0</ele>
  <time>2026-08-28T17:52:54Z</time>
  <course>160.26</course>
  <speed>4.97</speed>
  <fix>3d</fix>
</trkpt>
<trkpt lat="40.0713561" lon="-105.2274125">
  <ele>1583.01</ele>
  <time>2026-08-28T17:52:54Z</time>
  <course>161.21</course>
  <speed>4.870318264754369</speed>
  <fix>3d</fix>
</trkpt>
<trkpt lat="40.0713657" lon="-105.2274166">
  <ele>1583.0</ele>
  <time>2026-08-28T17:52:54Z</time>
  <course>160.26</course>
  <speed>4.97</speed>
  <fix>3d</fix>
</trkpt>
<trkpt lat="40.071352" lon="-105.2274106">
  <ele>1583.01</ele>
  <time>2026-08-28T17:52:54Z</time>
  <course>161.2</course>
  <speed>4.797634833957249</speed>
  <fix>3d</fix>
</trkpt>
<trkpt lat="40.0713574" lon="-105.2274127">
  <ele>1583.0</ele>
  <time>2026-08-28T17:52:54Z</time>
  <course>160.27</course>
  <speed>4.88</speed>
  <fix>3d</fix>
</trkpt>
<trkpt lat="40.071348" lon="-105.2274087">
  <ele>1583.01</ele>
  <time>2026-08-28T17:52:54Z</time>
  <course>161.2</course>
  <speed>4.721662842685827</speed>
  <fix>3d</fix>
</trkpt>
<trkpt lat="40.0713574" lon="-105.2274127">
  <ele>1583.0</ele>
  <time>2026-08-28T17:52:54Z</time>
  <course>160.27</course>
  <speed>4.88</speed>
  <fix>3d</fix>
</trkpt>
<trkpt lat="40.071344" lon="-105.2274069">
  <ele>1583.01</ele>
  <time>2026-08-28T17:52:54Z</time>
  <course>161.2</course>
  <speed>4.639536614792473</speed>
  <fix>3d</fix>
</trkpt>
<trkpt lat="40.0713492" lon="-105.2274089">
  <ele>1583.0</ele>
  <time>2026-08-28T17:52:54Z</time>
  <course>160.27</course>
  <speed>4.74</speed>
  <fix>3d</fix>
</trkpt>
<trkpt lat="40.0713401" lon="-105.227405">
  <ele>1583.0</ele>
  <time>2026-08-28T17:52:54Z</time>
  <course>161.19</course>
  <speed>4.544678206430022</speed>
  <fix>3d</fix>
</trkpt>
<trkpt lat="40.0713492" lon="-105.2274089">
  <ele>1583.0</ele>
  <time>2026-08-28T17:52:54Z</time>
  <course>160.27</course>
  <speed>4.74</speed>
  <fix>3d</fix>
</trkpt>
<trkpt lat="40.0713363" lon="-105.2274033">
  <ele>1583.0</ele>
  <time>2026-08-28T17:52:54Z</time>
  <course>161.19</course>
  <speed>4.437082374714267</speed>
  <fix>3d</fix>
</trkpt>
<trkpt lat="40.0713413" lon="-105.2274052">
  <ele>1583.0</ele>
  <time>2026-08-28T17:52:54Z</time>
  <course>160.27</course>
  <speed>4.56</speed>
  <fix>3d</fix>
</trkpt>
<trkpt lat="40.0713325" lon="-105.2274015">
  <ele>1583.0</ele>
  <time>2026-08-28T17:52:54Z</time>
  <course>161.19</course>
  <speed>4.323343613454753</speed>
  <fix>3d</fix>
</trkpt>
<trkpt lat="40.0713413" lon="-105.2274052">
  <ele>1583.0</ele>
  <time>2026-08-28T17:52:54Z</time>
  <course>160.27</course>
  <speed>4.56</speed>
  <fix>3d</fix>
</trkpt>
<trkpt lat="40.0713289" lon="-105.2273998">
  <ele>1583.0</ele>
  <time>2026-08-28T17:52:54Z</time>
  <course>161.19</course>
  <speed>4.206304791619361</speed>
  <fix>3d</fix>
</trkpt>
<trkpt lat="40.0713338" lon="-105.2274017">
  <ele>1583.0</ele>
  <time>2026-08-28T17:52:54Z</time>
  <course>160.27</course>
  <speed>4.34</speed>
  <fix>3d</fix>
</trkpt>
<trkpt lat="40.0713254" lon="-105.2273981">
  <ele>1583.0</ele>
  <time>2026-08-28T17:52:54Z</time>
  <course>161.19</course>
  <speed>4.07982842776507</speed>
  <fix>3d</fix>
</trkpt>
<trkpt lat="40.0713338" lon="-105.2274017">
  <ele>1583.0</ele>
  <time>2026-08-28T17:52:54Z</time>
  <course>160.27</course>
  <speed>4.34</speed>
  <fix>3d</fix>
</trkpt>
<trkpt lat="40.071322" lon="-105.2273965">
  <ele>1583.01</ele>
  <time>2026-08-28T17:52:54Z</time>
  <course>161.19</course>
  <speed>3.953353007258522</speed>
  <fix>3d</fix>
</trkpt>
<trkpt lat="40.0713267" lon="-105.2273984">
  <ele>1583.0</ele>
  <time>2026-08-28T17:52:54Z</time>
  <course>160.27</course>
  <speed>4.1</speed>
  <fix>3d</fix>
</trkpt>
<trkpt lat="40.0713187" lon="-105.227395">
  <ele>1583.01</ele>
  <time>2026-08-28T17:52:54Z</time>
  <course>161.19</course>
  <speed>3.8268786236304906</speed>
  <fix>3d</fix>
</trkpt>
<trkpt lat="40.0713267" lon="-105.2273984">
  <ele>1583.0</ele>
  <time>2026-08-28T17:52:54Z</time>
  <course>160.27</course>
  <speed>4.1</speed>
  <fix>3d</fix>
</trkpt>
<trkpt lat="40.0713155" lon="-105.2273935">
  <ele>1583.01</ele>
  <time>2026-08-28T17:52:54Z</time>
  <course>161.19</course>
  <speed>3.68765508148471</speed>
  <fix>3d</fix>
</trkpt>
<trkpt lat="40.0713199" lon="-105.2273952">
  <ele>1583.0</ele>
  <time>2026-08-28T17:52:54Z</time>
  <course>160.27</course>
  <speed>3.85</speed>
  <fix>3d</fix>
</trkpt>
<trkpt lat="40.0713124" lon="-105.227392">
  <ele>1583.01</ele>
  <time>2026-08-28T17:52:54Z</time>
  <course>161.19</course>
  <speed>3.561179579858337</speed>
  <fix>3d</fix>
</trkpt>
<trkpt lat="40.0713199" lon="-105.2273952">
  <ele>1583.0</ele>
  <time>2026-08-28T17:52:54Z</time>
  <course>160.27</course>
  <speed>3.85</speed>
  <fix>3d</fix>
</trkpt>
<trkpt lat="40.0713095" lon="-105.2273906">
  <ele>1583.0</ele>
  <time>2026-08-28T17:52:54Z</time>
  <course>161.19</course>
  <speed>3.42527371169079</speed>
  <fix>3d</fix>
</trkpt>
<trkpt lat="40.0713199" lon="-105.2273952">
  <ele>1583.0</ele>
  <time>2026-08-28T17:52:54Z</time>
  <course>160.27</course>
  <speed>3.85</speed>
  <fix>3d</fix>
</trkpt>
<trkpt lat="40.0713066" lon="-105.2273893">
  <ele>1583.0</ele>
  <time>2026-08-28T17:52:54Z</time>
  <course>161.19</course>
  <speed>3.29548175537356</speed>
  <fix>3d</fix>
</trkpt>
<trkpt lat="40.0713136" lon="-105.2273922">
  <ele>1583.0</ele>
  <time>2026-08-28T17:52:54Z</time>
  <course>160.27</course>
  <speed>3.59</speed>
  <fix>3d</fix>
</trkpt>
<trkpt lat="40.0713039" lon="-105.227388">
  <ele>1583.0</ele>
  <time>2026-08-28T17:52:54Z</time>
  <course>161.19</course>
  <speed>3.159572755927611</speed>
  <fix>3d</fix>
</trkpt>
<trkpt lat="40.0713136" lon="-105.2273922">
  <ele>1583.0</ele>
  <time>2026-08-28T17:52:54Z</time>
  <course>160.27</course>
  <speed>3.59</speed>
  <fix>3d</fix>
</trkpt>
<trkpt lat="40.0713014" lon="-105.2273868">
  <ele>1583.0</ele>
  <time>2026-08-28T17:52:54Z</time>
  <course>161.19</course>
  <speed>3.033100723681955</speed>
  <fix>3d</fix>
</trkpt>
<trkpt lat="40.0713078" lon="-105.2273894">
  <ele>1583.0</ele>
  <time>2026-08-28T17:52:54Z</time>
  <course>160.27</course>
  <speed>3.33</speed>
  <fix>3d</fix>
</trkpt>
<trkpt lat="40.0712989" lon="-105.2273856">
  <ele>1583.0</ele>
  <time>2026-08-28T17:52:54Z</time>
  <course>161.19</course>
  <speed>2.9066303514551004</speed>
  <fix>3d</fix>
</trkpt>
<trkpt lat="40.0713078" lon="-105.2273894">
  <ele>1583.0</ele>
  <time>2026-08-28T17:52:54Z</time>
  <course>160.27</course>
  <speed>3.33</speed>
  <fix>3d</fix>
</trkpt>
<trkpt lat="40.0712965" lon="-105.2273845">
  <ele>1582.99</ele>
  <time>2026-08-28T17:52:54Z</time>
  <course>161.19</course>
  <speed>2.780161865791271</speed>
  <fix>3d</fix>
</trkpt>
<trkpt lat="40.0713023" lon="-105.2273869">
  <ele>1583.0</ele>
  <time>2026-08-28T17:52:54Z</time>
  <course>160.27</course>
  <speed>3.07</speed>
  <fix>3d</fix>
</trkpt>
<trkpt lat="40.0712942" lon="-105.2273834">
  <ele>1582.99</ele>
  <time>2026-08-28T17:52:54Z</time>
  <course>161.19</course>
  <speed>2.653695536417092</speed>
  <fix>3d</fix>
</trkpt>
<trkpt lat="40.0713023" lon="-105.2273869">
  <ele>1583.0</ele>
  <time>2026-08-28T17:52:54Z</time>
  <course>160.27</course>
  <speed>3.07</speed>
  <fix>3d</fix>
</trkpt>
<trkpt lat="40.071292" lon="-105.2273823">
  <ele>1582.99</ele>
  <time>2026-08-28T17:52:54Z</time>
  <course>161.2</course>
  <speed>2.5366513359151273</speed>
  <fix>3d</fix>
</trkpt>
<trkpt lat="40.0712974" lon="-105.2273846">
  <ele>1583.0</ele>
  <time>2026-08-28T17:52:54Z</time>
  <course>160.27</course>
  <speed>2.82</speed>
  <fix>3d</fix>
</trkpt>
<trkpt lat="40.07129" lon="-105.2273813">
  <ele>1582.99</ele>
  <time>2026-08-28T17:52:54Z</time>
  <course>161.2</course>
  <speed>2.4196074061715054</speed>
  <fix>3d</fix>
</trkpt>
<trkpt lat="40.0712928" lon="-105.2273825">
  <ele>1583.0</ele>
  <time>2026-08-28T17:52:54Z</time>
  <course>160.27</course>
  <speed>2.58</speed>
  <fix>3d</fix>
</trkpt>
<trkpt lat="40.071288" lon="-105.2273804">
  <ele>1582.99</ele>
  <time>2026-08-28T17:52:54Z</time>
  <course>161.2</course>
  <speed>2.3025637884757937</speed>
  <fix>3d</fix>
</trkpt>
<trkpt lat="40.0712928" lon="-105.2273825">
  <ele>1583.0</ele>
  <time>2026-08-28T17:52:54Z</time>
  <course>160.27</course>
  <speed>2.58</speed>
  <fix>3d</fix>
</trkpt>
<trkpt lat="40.0712861" lon="-105.2273795">
  <ele>1582.99</ele>
  <time>2026-08-28T17:52:54Z</time>
  <course>161.2</course>
  <speed>2.194948746554233</speed>
  <fix>3d</fix>
</trkpt>
<trkpt lat="40.0712886" lon="-105.2273805">
  <ele>1583.0</ele>
  <time>2026-08-28T17:52:54Z</time>
  <course>160.27</course>
  <speed>2.36</speed>
  <fix>3d</fix>
</trkpt>
<trkpt lat="40.0712843" lon="-105.2273786">
  <ele>1583.0</ele>
  <time>2026-08-28T17:52:54Z</time>
  <course>161.2</course>
  <speed>2.081249624624591</speed>
  <fix>3d</fix>
</trkpt>
<trkpt lat="40.0712886" lon="-105.2273805">
  <ele>1583.0</ele>
  <time>2026-08-28T17:52:54Z</time>
  <course>160.27</course>
  <speed>2.36</speed>
  <fix>3d</fix>
</trkpt>
<trkpt lat="40.0712826" lon="-105.2273778">
  <ele>1583.0</ele>
  <time>2026-08-28T17:52:54Z</time>
  <course>161.2</course>
  <speed>1.9736261044078234</speed>
  <fix>3d</fix>
</trkpt>
<trkpt lat="40.0712848" lon="-105.2273787">
  <ele>1583.0</ele>
  <time>2026-08-28T17:52:54Z</time>
  <course>160.27</course>
  <speed>2.14</speed>
  <fix>3d</fix>
</trkpt>
<trkpt lat="40.0712809" lon="-105.227377">
  <ele>1583.0</ele>
  <time>2026-08-28T17:52:54Z</time>
  <course>161.2</course>
  <speed>1.878776197422141</speed>
  <fix>3d</fix>
</trkpt>
<trkpt lat="40.0712848" lon="-105.2273787">
  <ele>1583.0</ele>
  <time>2026-08-28T17:52:54Z</time>
  <course>160.27</course>
  <speed>2.14</speed>
  <fix>3d</fix>
</trkpt>
<trkpt lat="40.0712794" lon="-105.2273763">
  <ele>1583.0</ele>
  <time>2026-08-28T17:52:54Z</time>
  <course>161.18</course>
  <speed>1.77451401797788</speed>
  <fix>3d</fix>
</trkpt>
<trkpt lat="40.0712814" lon="-105.2273771">
  <ele>1583.0</ele>
  <time>2026-08-28T17:52:54Z</time>
  <course>160.26</course>
  <speed>1.93</speed>
  <fix>3d</fix>
</trkpt>
<trkpt lat="40.0712779" lon="-105.2273756">
  <ele>1583.0</ele>
  <time>2026-08-28T17:52:54Z</time>
  <course>161.16</course>
  <speed>1.6668833192518306</speed>
  <fix>3d</fix>
</trkpt>
<trkpt lat="40.0712814" lon="-105.2273771">
  <ele>1583.0</ele>
  <time>2026-08-28T17:52:54Z</time>
  <course>160.26</course>
  <speed>1.93</speed>
  <fix>3d</fix>
</trkpt>
<trkpt lat="40.0712765" lon="-105.2273749">
  <ele>1583.01</ele>
  <time>2026-08-28T17:52:54Z</time>
  <course>161.11</course>
  <speed>1.5720368952413297</speed>
  <fix>3d</fix>
</trkpt>
<trkpt lat="40.0712783" lon="-105.2273757">
  <ele>1583.0</ele>
  <time>2026-08-28T17:52:54Z</time>
  <course>160.21</course>
  <speed>1.73</speed>
  <fix>3d</fix>
</trkpt>
<trkpt lat="40.0712752" lon="-105.2273743">
  <ele>1583.01</ele>
  <time>2026-08-28T17:52:54Z</time>
  <course>161.05</course>
  <speed>1.477193284577208</speed>
  <fix>3d</fix>
</trkpt>
<trkpt lat="40.0712783" lon="-105.2273757">
  <ele>1583.0</ele>
  <time>2026-08-28T17:52:54Z</time>
  <course>160.21</course>
  <speed>1.73</speed>
  <fix>3d</fix>
</trkpt>
<trkpt lat="40.071274" lon="-105.2273737">
  <ele>1583.01</ele>
  <time>2026-08-28T17:52:54Z</time>
  <course>160.98</course>
  <speed>1.3823530663329107</speed>
  <fix>3d</fix>
</trkpt>
<trkpt lat="40.0712755" lon="-105.2273744">
  <ele>1583.0</ele>
  <time>2026-08-28T17:52:54Z</time>
  <course>160.11</course>
  <speed>1.54</speed>
  <fix>3d</fix>
</trkpt>
<trkpt lat="40.0712728" lon="-105.2273732">
  <ele>1583.01</ele>
  <time>2026-08-28T17:52:54Z</time>
  <course>160.87</course>
  <speed>1.2781236246936367</speed>
  <fix>3d</fix>
</trkpt>
<trkpt lat="40.0712755" lon="-105.2273744">
  <ele>1583.0</ele>
  <time>2026-08-28T17:52:54Z</time>
  <course>160.11</course>
  <speed>1.54</speed>
  <fix>3d</fix>
</trkpt>
<trkpt lat="40.0712718" lon="-105.2273727">
  <ele>1583.0</ele>
  <time>2026-08-28T17:52:54Z</time>
  <course>160.74</course>
  <speed>1.1833004690272035</speed>
  <fix>3d</fix>
</trkpt>
<trkpt lat="40.0712731" lon="-105.2273732">
  <ele>1583.0</ele>
  <time>2026-08-28T17:52:54Z</time>
  <course>159.92</course>
  <speed>1.34</speed>
  <fix>3d</fix>
</trkpt>
<trkpt lat="40.0712708" lon="-105.2273722">
  <ele>1583.0</ele>
  <time>2026-08-28T17:52:54Z</time>
  <course>160.56</course>
  <speed>1.0884851859350222</speed>
  <fix>3d</fix>
</trkpt>
<trkpt lat="40.0712731" lon="-105.2273732">
  <ele>1583.0</ele>
  <time>2026-08-28T17:52:54Z</time>
  <course>159.92</course>
  <speed>1.34</speed>
  <fix>3d</fix>
</trkpt>
<trkpt lat="40.0712699" lon="-105.2273717">
  <ele>1583.0</ele>
  <time>2026-08-28T17:52:54Z</time>
  <course>160.34</course>
  <speed>0.9936800289831733</speed>
  <fix>3d</fix>
</trkpt>
<trkpt lat="40.0712731" lon="-105.2273732">
  <ele>1583.0</ele>
  <time>2026-08-28T17:52:54Z</time>
  <course>159.92</course>
  <speed>1.34</speed>
  <fix>3d</fix>
</trkpt>
<trkpt lat="40.0712691" lon="-105.2273713">
  <ele>1583.0</ele>
  <time>2026-08-28T17:52:54Z</time>
  <course>160.05</course>
  <speed>0.8988882021697693</speed>
  <fix>3d</fix>
</trkpt>
<trkpt lat="40.0712709" lon="-105.2273721">
  <ele>1583.0</ele>
  <time>2026-08-28T17:52:54Z</time>
  <course>159.61</course>
  <speed>1.15</speed>
  <fix>3d</fix>
</trkpt>
<trkpt lat="40.0712684" lon="-105.227371">
  <ele>1583.0</ele>
  <time>2026-08-28T17:52:54Z</time>
  <course>159.73</course>
  <speed>0.804114419718985</speed>
  <fix>3d</fix>
</trkpt>
<trkpt lat="40.0712709" lon="-105.2273721">
  <ele>1583.0</ele>
  <time>2026-08-28T17:52:54Z</time>
  <course>159.61</course>
  <speed>1.15</speed>
  <fix>3d</fix>
</trkpt>
<trkpt lat="40.0712677" lon="-105.2273706">
  <ele>1583.0</ele>
  <time>2026-08-28T17:52:54Z</time>
  <course>159.58</course>
  <speed>0.7057619995437555</speed>
  <fix>3d</fix>
</trkpt>
<trkpt lat="40.0712692" lon="-105.2273712">
  <ele>1583.0</ele>
  <time>2026-08-28T17:52:54Z</time>
  <course>159.11</course>
  <speed>0.96</speed>
  <fix>3d</fix>
</trkpt>
<trkpt lat="40.0712671" lon="-105.2273703">
  <ele>1583.0</ele>
  <time>2026-08-28T17:52:54Z</time>
  <course>159.69</course>
  <speed>0.6109828148156051</speed>
  <fix>3d</fix>
</trkpt>
<trkpt lat="40.0712692" lon="-105.2273712">
  <ele>1583.0</ele>
  <time>2026-08-28T17:52:54Z</time>
  <course>159.11</course>
  <speed>0.96</speed>
  <fix>3d</fix>
</trkpt>
<trkpt lat="40.0712666" lon="-105.2273701">
  <ele>1583.0</ele>
  <time>2026-08-28T17:52:54Z</time>
  <course>159.73</course>
  <speed>0.5126402247190519</speed>
  <fix>3d</fix>
</trkpt>
<trkpt lat="40.0712677" lon="-105.2273706">
  <ele>1583.0</ele>
  <time>2026-08-28T17:52:54Z</time>
  <course>158.76</course>
  <speed>0.77</speed>
  <fix>3d</fix>
</trkpt>
<trkpt lat="40.0712662" lon="-105.2273699">
  <ele>1583.0</ele>
  <time>2026-08-28T17:52:54Z</time>
  <course>159.77</course>
  <speed>0.41785164831552357</speed>
  <fix>3d</fix>
</trkpt>
<trkpt lat="40.0712666" lon="-105.22737">
  <ele>1583.0</ele>
  <time>2026-08-28T17:52:54Z</time>
  <course>158.77</course>
  <speed>0.58</speed>
  <fix>3d</fix>
</trkpt>
<trkpt lat="40.0712659" lon="-105.2273697">
  <ele>1583.01</ele>
  <time>2026-08-28T17:52:54Z</time>
  <course>159.8</course>
  <speed>0.3195309061734092</speed>
  <fix>3d</fix>
</trkpt>
<trkpt lat="40.0712666" lon="-105.22737">
  <ele>1583.0</ele>
  <time>2026-08-28T17:52:54Z</time>
  <course>158.77</course>
  <speed>0.58</speed>
  <fix>3d</fix>
</trkpt>
<trkpt lat="40.0712656" lon="-105.2273696">
  <ele>1583.01</ele>
  <time>2026-08-28T17:52:54Z</time>
  <course>159.83</course>
  <speed>0.24351591323771843</speed>
  <fix>3d</fix>
</trkpt>
<trkpt lat="40.0712657" lon="-105.2273696">
  <ele>1583.0</ele>
  <time>2026-08-28T17:52:54Z</time>
  <course>158.83</course>
  <speed>0.4</speed>
  <fix>3d</fix>
</trkpt>
<trkpt lat="40.0712654" lon="-105.2273694">
  <ele>1583.01</ele>
  <time>2026-08-28T17:52:54Z</time>
  <course>159.86</course>
  <speed>0.20248456731316586</speed>
  <fix>3d</fix>
</trkpt>
<trkpt lat="40.0712657" lon="-105.2273696">
  <ele>1583.0</ele>
  <time>2026-08-28T17:52:54Z</time>
  <course>158.83</course>
  <speed>0.4</speed>
  <fix>3d</fix>
</trkpt>
<trkpt lat="40.0712652" lon="-105.2273694">
  <ele>1583.0</ele>
  <time>2026-08-28T17:52:54Z</time>
  <course>159.89</course>
  <speed>0.18973665961010278</speed>
  <fix>3d</fix>
</trkpt>
<trkpt lat="40.0712652" lon="-105.2273693">
  <ele>1583.0</ele>
  <time>2026-08-28T17:52:54Z</time>
  <course>158.9</course>
  <speed>0.28</speed>
  <fix>3d</fix>
</trkpt>
<trkpt lat="40.071265" lon="-105.2273693">
  <ele>1583.0</ele>
  <time>2026-08-28T17:52:54Z</time>
  <course>159.93</course>
  <speed>0.19924858845171275</speed>
  <fix>3d</fix>
</trkpt>
<trkpt lat="40.0712652" lon="-105.2273693">
  <ele>1583.0</ele>
  <time>2026-08-28T17:52:54Z</time>
  <course>158.9</course>
  <speed>0.28</speed>
  <fix>3d</fix>
</trkpt>
<trkpt lat="40.0712648" lon="-105.2273692">
  <ele>1583.0</ele>
  <time>2026-08-28T17:52:54Z</time>
  <course>159.97</course>
  <speed>0.24041630560342614</speed>
  <fix>3d</fix>
</trkpt>
<trkpt lat="40.0712647" lon="-105.2273691">
  <ele>1583.0</ele>
  <time>2026-08-28T17:52:54Z</time>
  <course>158.96</course>
  <speed>0.28</speed>
  <fix>3d</fix>
</trkpt>
<trkpt lat="40.0712645" lon="-105.227369">
  <ele>1583.0</ele>
  <time>2026-08-28T17:52:54Z</time>
  <course>160.01</course>
  <speed>0.30364452901377953</speed>
  <fix>3d</fix>
</trkpt>
<trkpt lat="40.0712647" lon="-105.2273691">
  <ele>1583.0</ele>
  <time>2026-08-28T17:52:54Z</time>
  <course>158.96</course>
  <speed>0.28</speed>
  <fix>3d</fix>
</trkpt>
<trkpt lat="40.0712642" lon="-105.2273689">
  <ele>1583.0</ele>
  <time>2026-08-28T17:52:54Z</time>
  <course>160.07</course>
  <speed>0.3889730067755345</speed>
  <fix>3d</fix>
</trkpt>
<trkpt lat="40.0712642" lon="-105.2273688">
  <ele>1583.0</ele>
  <time>2026-08-28T17:52:54Z</time>
  <course>159.05</course>
  <speed>0.38</speed>
  <fix>3d</fix>
</trkpt>
<trkpt lat="40.0712637" lon="-105.2273687">
  <ele>1583.0</ele>
  <time>2026-08-28T17:52:54Z</time>
  <course>160.14</course>
  <speed>0.4933558553417604</speed>
  <fix>3d</fix>
</trkpt>
<trkpt lat="40.0712642" lon="-105.2273688">
  <ele>1583.0</ele>
  <time>2026-08-28T17:52:54Z</time>
  <course>159.05</course>
  <speed>0.38</speed>
  <fix>3d</fix>
</trkpt>
<trkpt lat="40.0712632" lon="-105.2273685">
  <ele>1583.0</ele>
  <time>2026-08-28T17:52:54Z</time>
  <course>160.23</course>
  <speed>0.6103277807866851</speed>
  <fix>3d</fix>
</trkpt>
<trkpt lat="40.0712634" lon="-105.2273684">
  <ele>1583.0</ele>
  <time>2026-08-28T17:52:54Z</time>
  <course>159.19</course>
  <speed>0.56</speed>
  <fix>3d</fix>
</trkpt>
<trkpt lat="40.0712626" lon="-105.2273682">
  <ele>1583.0</ele>
  <time>2026-08-28T17:52:54Z</time>
  <course>160.36</course>
  <speed>0.7463243262818117</speed>
  <fix>3d</fix>
</trkpt>
<trkpt lat="40.0712634" lon="-105.2273684">
  <ele>1583.0</ele>
  <time>2026-08-28T17:52:54Z</time>
  <course>159.19</course>
  <speed>0.56</speed>
  <fix>3d</fix>
</trkpt>
<trkpt lat="40.0712618" lon="-105.2273678">
  <ele>1583.0</ele>
  <time>2026-08-28T17:52:54Z</time>
  <course>160.52</course>
  <speed>0.8823264701911646</speed>
  <fix>3d</fix>
</trkpt>
<trkpt lat="40.0712623" lon="-105.2273678">
  <ele>1583.0</ele>
  <time>2026-08-28T17:52:54Z</time>
  <course>159.42</course>
  <speed>0.8</speed>
  <fix>3d</fix>
</trkpt>
<trkpt lat="40.0712609" lon="-105.2273674">
  <ele>1583.0</ele>
  <time>2026-08-28T17:52:54Z</time>
  <course>160.74</course>
  <speed>1.0309219175087898</speed>
  <fix>3d</fix>
</trkpt>
<trkpt lat="40.0712623" lon="-105.2273678">
  <ele>1583.0</ele>
  <time>2026-08-28T17:52:54Z</time>
  <course>159.42</course>
  <speed>0.8</speed>
  <fix>3d</fix>
</trkpt>
<trkpt lat="40.0712599" lon="-105.227367">
  <ele>1583.0</ele>
  <time>2026-08-28T17:52:54Z</time>
  <course>161.02</course>
  <speed>1.1764352935882194</speed>
  <fix>3d</fix>
</trkpt>
<trkpt lat="40.0712623" lon="-105.2273678">
  <ele>1583.0</ele>
  <time>2026-08-28T17:52:54Z</time>
  <course>159.42</course>
  <speed>0.8</speed>
  <fix>3d</fix>
</trkpt>
<trkpt lat="40.0712588" lon="-105.2273665">
  <ele>1583.0</ele>
  <time>2026-08-28T17:52:55Z</time>
  <course>161.37</course>
  <speed>1.309427355755179</speed>
  <fix>3d</fix>
</trkpt>
<trkpt lat="40.0712606" lon="-105.2273671">
  <ele>1583.0</ele>
  <time>2026-08-28T17:52:55Z</time>
  <course>159.82</course>
  <speed>1.07</speed>
  <fix>3d</fix>
</trkpt>
<trkpt lat="40.0712576" lon="-105.2273659">
  <ele>1583.0</ele>
  <time>2026-08-28T17:52:55Z</time>
  <course>161.8</course>
  <speed>1.4329340529138108</speed>
  <fix>3d</fix>
</trkpt>
<trkpt lat="40.0712606" lon="-105.2273671">
  <ele>1583.0</ele>
  <time>2026-08-28T17:52:55Z</time>
  <course>159.82</course>
  <speed>1.07</speed>
  <fix>3d</fix>
</trkpt>
<trkpt lat="40.0712562" lon="-105.2273654">
  <ele>1583.0</ele>
  <time>2026-08-28T17:52:55Z</time>
  <course>162.34</course>
  <speed>1.5440207252495026</speed>
  <fix>3d</fix>
</trkpt>
<trkpt lat="40.0712586" lon="-105.2273661">
  <ele>1583.0</ele>
  <time>2026-08-28T17:52:55Z</time>
  <course>160.47</course>
  <speed>1.34</speed>
  <fix>3d</fix>
</trkpt>
<trkpt lat="40.0712548" lon="-105.2273648">
  <ele>1583.0</ele>
  <time>2026-08-28T17:52:55Z</time>
  <course>163.03</course>
  <speed>1.633217682980441</speed>
  <fix>3d</fix>
</trkpt>
<trkpt lat="40.0712586" lon="-105.2273661">
  <ele>1583.0</ele>
  <time>2026-08-28T17:52:55Z</time>
  <course>160.47</course>
  <speed>1.34</speed>
  <fix>3d</fix>
</trkpt>
<trkpt lat="40.0712533" lon="-105.2273642">
  <ele>1583.0</ele>
  <time>2026-08-28T17:52:55Z</time>
  <course>163.93</course>
  <speed>1.7173234989366446</speed>
  <fix>3d</fix>
</trkpt>
<trkpt lat="40.0712561" lon="-105.2273649">
  <ele>1583.0</ele>
  <time>2026-08-28T17:52:55Z</time>
  <course>161.48</course>
  <speed>1.56</speed>
  <fix>3d</fix>
</trkpt>
<trkpt lat="40.0712518" lon="-105.2273636">
  <ele>1583.0</ele>
  <time>2026-08-28T17:52:55Z</time>
  <course>165.13</course>
  <speed>1.782638493918495</speed>
  <fix>3d</fix>
</trkpt>
<trkpt lat="40.0712561" lon="-105.2273649">
  <ele>1583.0</ele>
  <time>2026-08-28T17:52:55Z</time>
  <course>161.48</course>
  <speed>1.56</speed>
  <fix>3d</fix>
</trkpt>
<trkpt lat="40.0712501" lon="-105.2273631">
  <ele>1583.0</ele>
  <time>2026-08-28T17:52:55Z</time>
  <course>166.73</course>
  <speed>1.8417654573804993</speed>
  <fix>3d</fix>
</trkpt>
<trkpt lat="40.0712533" lon="-105.2273638">
  <ele>1583.0</ele>
  <time>2026-08-28T17:52:55Z</time>
  <course>163.16</course>
  <speed>1.73</speed>
  <fix>3d</fix>
</trkpt>
<trkpt lat="40.0712485" lon="-105.2273626">
  <ele>1583.0</ele>
  <time>2026-08-28T17:52:55Z</time>
  <course>168.87</course>
  <speed>1.8792019582790989</speed>
  <fix>3d</fix>
</trkpt>
<trkpt lat="40.0712502" lon="-105.2273627">
  <ele>1583.0</ele>
  <time>2026-08-28T17:52:55Z</time>
  <course>166.1</course>
  <speed>1.85</speed>
  <fix>3d</fix>
</trkpt>
<trkpt lat="40.0712467" lon="-105.2273622">
  <ele>1583.0</ele>
  <time>2026-08-28T17:52:55Z</time>
  <course>171.74</course>
  <speed>1.915097908724251</speed>
  <fix>3d</fix>
</trkpt>
<trkpt lat="40.0712502" lon="-105.2273627">
  <ele>1583.0</ele>
  <time>2026-08-28T17:52:55Z</time>
  <course>166.1</course>
  <speed>1.85</speed>
  <fix>3d</fix>
</trkpt>
<trkpt lat="40.071245" lon="-105.2273619">
  <ele>1583.0</ele>
  <time>2026-08-28T17:52:55Z</time>
  <course>175.58</course>
  <speed>1.9331321734428817</speed>
  <fix>3d</fix>
</trkpt>
<trkpt lat="40.0712469" lon="-105.2273618">
  <ele>1583.0</ele>
  <time>2026-08-28T17:52:55Z</time>
  <course>171.36</course>
  <speed>1.91</speed>
  <fix>3d</fix>
</trkpt>
<trkpt lat="40.0712432" lon="-105.2273618">
  <ele>1583.0</ele>
  <time>2026-08-28T17:52:55Z</time>
  <course>180.56</course>
  <speed>1.9506409203131159</speed>
  <fix>3d</fix>
</trkpt>
<trkpt lat="40.0712469" lon="-105.2273618">
  <ele>1583.0</ele>
  <time>2026-08-28T17:52:55Z</time>
  <course>171.36</course>
  <speed>1.91</speed>
  <fix>3d</fix>
</trkpt>
<trkpt lat="40.0712414" lon="-105.227362">
  <ele>1583.01</ele>
  <time>2026-08-28T17:52:55Z</time>
  <course>186.59</course>
  <speed>1.9560419218411451</speed>
  <fix>3d</fix>
</trkpt>
<trkpt lat="40.0712434" lon="-105.2273614">
  <ele>1583.0</ele>
  <time>2026-08-28T17:52:55Z</time>
  <course>180.23</course>
  <speed>1.94</speed>
  <fix>3d</fix>
</trkpt>
<trkpt lat="40.0712396" lon="-105.2273623">
  <ele>1583.01</ele>
  <time>2026-08-28T17:52:55Z</time>
  <course>193.69</course>
  <speed>1.9524855953373896</speed>
  <fix>3d</fix>
</trkpt>
<trkpt lat="40.0712434" lon="-105.2273614">
  <ele>1583.0</ele>
  <time>2026-08-28T17:52:55Z</time>
  <course>180.23</course>
  <speed>1.94</speed>
  <fix>3d</fix>
</trkpt>
<trkpt lat="40.0712379" lon="-105.227363">
  <ele>1583.01</ele>
  <time>2026-08-28T17:52:55Z</time>
  <course>201.88</course>
  <speed>1.95</speed>
  <fix>3d</fix>
</trkpt>
<trkpt lat="40.07124" lon="-105.2273618">
  <ele>1583.0</ele>
  <time>2026-08-28T17:52:55Z</time>
  <course>193.31</course>
  <speed>1.93</speed>
  <fix>3d</fix>
</trkpt>
<trkpt lat="40.0712363" lon="-105.227364">
  <ele>1583.01</ele>
  <time>2026-08-28T17:52:55Z</time>
  <course>211.03</course>
  <speed>1.9313207915827966</speed>
  <fix>3d</fix>
</trkpt>
<trkpt lat="40.07124" lon="-105.2273618">
  <ele>1583.0</ele>
  <time>2026-08-28T17:52:55Z</time>
  <course>193.31</course>
  <speed>1.93</speed>
  <fix>3d</fix>
</trkpt>
<trkpt lat="40.071235" lon="-105.2273654">
  <ele>1583.01</ele>
  <time>2026-08-28T17:52:55Z</time>
  <course>221.18</course>
  <speed>1.9117531221368518</speed>
  <fix>3d</fix>
</trkpt>
<trkpt lat="40.0712367" lon="-105.2273635">
  <ele>1583.0</ele>
  <time>2026-08-28T17:52:55Z</time>
  <course>210.52</course>
  <speed>1.89</speed>
  <fix>3d</fix>
</trkpt>
<trkpt lat="40.0712338" lon="-105.227367">
  <ele>1583.01</ele>
  <time>2026-08-28T17:52:55Z</time>
  <course>231.88</course>
  <speed>1.89805163259591</speed>
  <fix>3d</fix>
</trkpt>
<trkpt lat="40.0712367" lon="-105.2273635">
  <ele>1583.0</ele>
  <time>2026-08-28T17:52:55Z</time>
  <course>210.52</course>
  <speed>1.89</speed>
  <fix>3d</fix>
</trkpt>
<trkpt lat="40.0712329" lon="-105.2273689">
  <ele>1583.01</ele>
  <time>2026-08-28T17:52:55Z</time>
  <course>242.52</course>
  <speed>1.8693581786270923</speed>
  <fix>3d</fix>
</trkpt>
<trkpt lat="40.0712342" lon="-105.2273663">
  <ele>1583.0</ele>
  <time>2026-08-28T17:52:55Z</time>
  <course>230.79</course>
  <speed>1.85</speed>
  <fix>3d</fix>
</trkpt>
<trkpt lat="40.0712323" lon="-105.2273709">
  <ele>1583.01</ele>
  <time>2026-08-28T17:52:55Z</time>
  <course>253.17</course>
  <speed>1.8420097719610502</speed>
  <fix>3d</fix>
</trkpt>
<trkpt lat="40.0712342" lon="-105.2273663">
  <ele>1583.0</ele>
  <time>2026-08-28T17:52:55Z</time>
  <course>230.79</course>
  <speed>1.85</speed>
  <fix>3d</fix>
</trkpt>
<trkpt lat="40.071232" lon="-105.2273731">
  <ele>1583.01</ele>
  <time>2026-08-28T17:52:55Z</time>
  <course>263.83</course>
  <speed>1.8179658962697842</speed>
  <fix>3d</fix>
</trkpt>
<trkpt lat="40.0712326" lon="-105.2273701">
  <ele>1583.0</ele>
  <time>2026-08-28T17:52:55Z</time>
  <course>252.09</course>
  <speed>1.8</speed>
  <fix>3d</fix>
</trkpt>
<trkpt lat="40.071232" lon="-105.2273752">
  <ele>1583.01</ele>
  <time>2026-08-28T17:52:55Z</time>
  <course>274.49</course>
  <speed>1.7871765441612084</speed>
  <fix>3d</fix>
</trkpt>
<trkpt lat="40.0712326" lon="-105.2273701">
  <ele>1583.0</ele>
  <time>2026-08-28T17:52:55Z</time>
  <course>252.09</course>
  <speed>1.8</speed>
  <fix>3d</fix>
</trkpt>
<trkpt lat="40.0712324" lon="-105.2273772">
  <ele>1583.01</ele>
  <time>2026-08-28T17:52:55Z</time>
  <course>285.17</course>
  <speed>1.776091213873882</speed>
  <fix>3d</fix>
</trkpt>
<trkpt lat="40.0712326" lon="-105.2273701">
  <ele>1583.0</ele>
  <time>2026-08-28T17:52:55Z</time>
  <course>252.09</course>
  <speed>1.8</speed>
  <fix>3d</fix>
</trkpt>
<trkpt lat="40.0712329" lon="-105.2273791">
  <ele>1583.01</ele>
  <time>2026-08-28T17:52:55Z</time>
  <course>295.88</course>
  <speed>1.7754436065389405</speed>
  <fix>3d</fix>
</trkpt>
<trkpt lat="40.0712322" lon="-105.2273741">
  <ele>1583.0</ele>
  <time>2026-08-28T17:52:55Z</time>
  <course>273.48</course>
  <speed>1.75</speed>
  <fix>3d</fix>
</trkpt>
<trkpt lat="40.0712337" lon="-105.2273808">
  <ele>1583.0</ele>
  <time>2026-08-28T17:52:55Z</time>
  <course>306.59</course>
  <speed>1.7920100446147058</speed>
  <fix>3d</fix>
</trkpt>
<trkpt lat="40.0712322" lon="-105.2273741">
  <ele>1583.0</ele>
  <time>2026-08-28T17:52:55Z</time>
  <course>273.48</course>
  <speed>1.75</speed>
  <fix>3d</fix>
</trkpt>
<trkpt lat="40.0712349" lon="-105.2273823">
  <ele>1583.0</ele>
  <time>2026-08-28T17:52:55Z</time>
  <course>316.54</course>
  <speed>1.825705343148231</speed>
  <fix>3d</fix>
</trkpt>
<trkpt lat="40.0712329" lon="-105.2273781">
  <ele>1583.0</ele>
  <time>2026-08-28T17:52:55Z</time>
  <course>295.09</course>
  <speed>1.74</speed>
  <fix>3d</fix>
</trkpt>
<trkpt lat="40.0712362" lon="-105.2273836">
  <ele>1583.0</ele>
  <time>2026-08-28T17:52:55Z</time>
  <course>325.51</course>
  <speed>1.8665744024817226</speed>
  <fix>3d</fix>
</trkpt>
<trkpt lat="40.0712329" lon="-105.2273781">
  <ele>1583.0</ele>
  <time>2026-08-28T17:52:55Z</time>
  <course>295.09</course>
  <speed>1.74</speed>
  <fix>3d</fix>
</trkpt>
<trkpt lat="40.0712377" lon="-105.2273847">
  <ele>1583.0</ele>
  <time>2026-08-28T17:52:55Z</time>
  <course>333.57</course>
  <speed>1.9321490625725541</speed>
  <fix>3d</fix>
</trkpt>
<trkpt lat="40.0712348" lon="-105.2273815">
  <ele>1583.0</ele>
  <time>2026-08-28T17:52:55Z</time>
  <course>315.41</course>
  <speed>1.8</speed>
  <fix>3d</fix>
</trkpt>
<trkpt lat="40.0712393" lon="-105.2273855">
  <ele>1583.0</ele>
  <time>2026-08-28T17:52:55Z</time>
  <course>340.55</course>
  <speed>2.0081085628023203</speed>
  <fix>3d</fix>
</trkpt>
<trkpt lat="40.0712374" lon="-105.227384">
  <ele>1583.0</ele>
  <time>2026-08-28T17:52:55Z</time>
  <course>332.4</course>
  <speed>1.92</speed>
  <fix>3d</fix>
</trkpt>
<trkpt lat="40.0712411" lon="-105.2273861">
  <ele>1583.0</ele>
  <time>2026-08-28T17:52:55Z</time>
  <course>346.47</course>
  <speed>2.0934421415458324</speed>
  <fix>3d</fix>
</trkpt>
<trkpt lat="40.0712374" lon="-105.227384">
  <ele>1583.0</ele>
  <time>2026-08-28T17:52:55Z</time>
  <course>332.4</course>
  <speed>1.92</speed>
  <fix>3d</fix>
</trkpt>
<trkpt lat="40.071243" lon="-105.2273865">
  <ele>1583.0</ele>
  <time>2026-08-28T17:52:55Z</time>
  <course>351.32</course>
  <speed>2.1920310216782974</speed>
  <fix>3d</fix>
</trkpt>
<trkpt lat="40.0712408" lon="-105.2273856">
  <ele>1583.0</ele>
  <time>2026-08-28T17:52:55Z</time>
  <course>345.22</course>
  <speed>2.08</speed>
  <fix>3d</fix>
</trkpt>
<trkpt lat="40.0712451" lon="-105.2273868">
  <ele>1583.0</ele>
  <time>2026-08-28T17:52:55Z</time>
  <course>355.04</course>
  <speed>2.2963013739489857</speed>
  <fix>3d</fix>
</trkpt>
<trkpt lat="40.0712408" lon="-105.2273856">
  <ele>1583.0</ele>
  <time>2026-08-28T17:52:55Z</time>
  <course>345.22</course>
  <speed>2.08</speed>
  <fix>3d</fix>
</trkpt>
<trkpt lat="40.0712472" lon="-105.2273869">
  <ele>1583.0</ele>
  <time>2026-08-28T17:52:55Z</time>
  <course>357.7</course>
  <speed>2.411016383187804</speed>
  <fix>3d</fix>
</trkpt>
<trkpt lat="40.0712447" lon="-105.2273865">
  <ele>1583.0</ele>
  <time>2026-08-28T17:52:55Z</time>
  <course>353.72</course>
  <speed>2.29</speed>
  <fix>3d</fix>
</trkpt>
<trkpt lat="40.0712495" lon="-105.2273869">
  <ele>1583.0</ele>
  <time>2026-08-28T17:52:55Z</time>
  <course>359.25</course>
  <speed>2.5300197627686627</speed>
  <fix>3d</fix>
</trkpt>
<trkpt lat="40.0712447" lon="-105.2273865">
  <ele>1583.0</ele>
  <time>2026-08-28T17:52:55Z</time>
  <course>353.72</course>
  <speed>2.29</speed>
  <fix>3d</fix>
</trkpt>
<trkpt lat="40.0712518" lon="-105.2273869">
  <ele>1583.01</ele>
  <time>2026-08-28T17:52:55Z</time>
  <course>359.7</course>
  <speed>2.66</speed>
  <fix>3d</fix>
</trkpt>
<trkpt lat="40.071249" lon="-105.2273869">
  <ele>1583.0</ele>
  <time>2026-08-28T17:52:55Z</time>
  <course>357.81</course>
  <speed>2.52</speed>
  <fix>3d</fix>
</trkpt>
<trkpt lat="40.0712543" lon="-105.2273869">
  <ele>1583.01</ele>
  <time>2026-08-28T17:52:55Z</time>
  <course>359.07</course>
  <speed>2.790071683666927</speed>
  <fix>3d</fix>
</trkpt>
<trkpt lat="40.071249" lon="-105.2273869">
  <ele>1583.0</ele>
  <time>2026-08-28T17:52:55Z</time>
  <course>357.81</course>
  <speed>2.52</speed>
  <fix>3d</fix>
</trkpt>
<trkpt lat="40.0712569" lon="-105.227387">
  <ele>1583.01</ele>
  <time>2026-08-28T17:52:55Z</time>
  <course>357.32</course>
  <speed>2.91247317584214</speed>
  <fix>3d</fix>
</trkpt>
<trkpt lat="40.0712538" lon="-105.2273872">
  <ele>1583.0</ele>
  <time>2026-08-28T17:52:55Z</time>
  <course>357.52</course>
  <speed>2.77</speed>
  <fix>3d</fix>
</trkpt>
<trkpt lat="40.0712597" lon="-105.2273873">
  <ele>1583.01</ele>
  <time>2026-08-28T17:52:55Z</time>
  <course>355.11</course>
  <speed>3.0494589684073468</speed>
  <fix>3d</fix>
</trkpt>
<trkpt lat="40.0712538" lon="-105.2273872">
  <ele>1583.0</ele>
  <time>2026-08-28T17:52:55Z</time>
  <course>357.52</course>
  <speed>2.77</speed>
  <fix>3d</fix>
</trkpt>
<trkpt lat="40.0712625" lon="-105.2273877">
  <ele>1583.01</ele>
  <time>2026-08-28T17:52:55Z</time>
  <course>353.21</course>
  <speed>3.1804402211014753</speed>
  <fix>3d</fix>
</trkpt>
<trkpt lat="40.071259" lon="-105.2273877">
  <ele>1583.0</ele>
  <time>2026-08-28T17:52:55Z</time>
  <course>354.25</course>
  <speed>3.02</speed>
  <fix>3d</fix>
</trkpt>
<trkpt lat="40.0712654" lon="-105.2273882">
  <ele>1583.01</ele>
  <time>2026-08-28T17:52:55Z</time>
  <course>351.53</course>
  <speed>3.3149358968161056</speed>
  <fix>3d</fix>
</trkpt>
<trkpt lat="40.071259" lon="-105.2273877">
  <ele>1583.0</ele>
  <time>2026-08-28T17:52:55Z</time>
  <course>354.25</course>
  <speed>3.02</speed>
  <fix>3d</fix>
</trkpt>
<trkpt lat="40.0712684" lon="-105.2273889">
  <ele>1583.01</ele>
  <time>2026-08-28T17:52:55Z</time>
  <course>350.14</course>
  <speed>3.44095916860401</speed>
  <fix>3d</fix>
</trkpt>
<trkpt lat="40.0712646" lon="-105.2273887">
  <ele>1583.0</ele>
  <time>2026-08-28T17:52:55Z</time>
  <course>350.72</course>
  <speed>3.28</speed>
  <fix>3d</fix>
</trkpt>
<trkpt lat="40.0712716" lon="-105.2273898">
  <ele>1583.0</ele>
  <time>2026-08-28T17:52:55Z</time>
  <course>348.94</course>
  <speed>3.57717765843409</speed>
  <fix>3d</fix>
</trkpt>
<trkpt lat="40.0712646" lon="-105.2273887">
  <ele>1583.0</ele>
  <time>2026-08-28T17:52:55Z</time>
  <course>350.72</course>
  <speed>3.28</speed>
  <fix>3d</fix>
</trkpt>
<trkpt lat="40.0712748" lon="-105.2273907">
  <ele>1583.01</ele>
  <time>2026-08-28T17:52:55Z</time>
  <course>347.96</course>
  <speed>3.7030797993021967</speed>
  <fix>3d</fix>
</trkpt>
<trkpt lat="40.0712646" lon="-105.2273887">
  <ele>1583.0</ele>
  <time>2026-08-28T17:52:55Z</time>
  <course>350.72</course>
  <speed>3.28</speed>
  <fix>3d</fix>
</trkpt>
<trkpt lat="40.0712781" lon="-105.2273918">
  <ele>1583.01</ele>
  <time>2026-08-28T17:52:55Z</time>
  <course>347.19</course>
  <speed>3.8278584090846413</speed>
  <fix>3d</fix>
</trkpt>
<trkpt lat="40.0712706" lon="-105.2273901">
  <ele>1583.0</ele>
  <time>2026-08-28T17:52:55Z</time>
  <course>348.14</course>
  <speed>3.54</speed>
  <fix>3d</fix>
</trkpt>
<trkpt lat="40.0712815" lon="-105.2273929">
  <ele>1583.01</ele>
  <time>2026-08-28T17:52:55Z</time>
  <course>346.64</course>
  <speed>3.9510125284539406</speed>
  <fix>3d</fix>
</trkpt>
<trkpt lat="40.0712706" lon="-105.2273901">
  <ele>1583.0</ele>
  <time>2026-08-28T17:52:55Z</time>
  <course>348.14</course>
  <speed>3.54</speed>
  <fix>3d</fix>
</trkpt>
<trkpt lat="40.071285" lon="-105.2273941">
  <ele>1583.0</ele>
  <time>2026-08-28T17:52:55Z</time>
  <course>346.28</course>
  <speed>4.069754292337561</speed>
  <fix>3d</fix>
</trkpt>
<trkpt lat="40.0712771" lon="-105.227392">
  <ele>1583.0</ele>
  <time>2026-08-28T17:52:55Z</time>
  <course>346.42</course>
  <speed>3.8</speed>
  <fix>3d</fix>
</trkpt>
<trkpt lat="40.0712886" lon="-105.2273953">
  <ele>1583.0</ele>
  <time>2026-08-28T17:52:55Z</time>
  <course>346.09</course>
  <speed>4.188615523057709</speed>
  <fix>3d</fix>
</trkpt>
<trkpt lat="40.0712771" lon="-105.227392">
  <ele>1583.0</ele>
  <time>2026-08-28T17:52:55Z</time>
  <course>346.42</course>
  <speed>3.8</speed>
  <fix>3d</fix>
</trkpt>
<trkpt lat="40.0712922" lon="-105.2273966">
  <ele>1583.0</ele>
  <time>2026-08-28T17:52:55Z</time>
  <course>346.04</course>
  <speed>4.305090010673412</speed>
  <fix>3d</fix>
</trkpt>
<trkpt lat="40.0712839" lon="-105.2273943">
  <ele>1583.0</ele>
  <time>2026-08-28T17:52:55Z</time>
  <course>345.51</course>
  <speed>4.04</speed>
  <fix>3d</fix>
</trkpt>
<trkpt lat="40.071296" lon="-105.2273979">
  <ele>1582.99</ele>
  <time>2026-08-28T17:52:55Z</time>
  <course>346.07</course>
  <speed>4.419094929960206</speed>
  <fix>3d</fix>
</trkpt>
<trkpt lat="40.0712912" lon="-105.2273968">
  <ele>1583.0</ele>
  <time>2026-08-28T17:52:55Z</time>
  <course>345.24</course>
  <speed>4.27</speed>
  <fix>3d</fix>
</trkpt>
<trkpt lat="40.0712999" lon="-105.2273993">
  <ele>1582.99</ele>
  <time>2026-08-28T17:52:55Z</time>
  <course>346.23</course>
  <speed>4.52815635772441</speed>
  <fix>3d</fix>
</trkpt>
<trkpt lat="40.0712912" lon="-105.2273968">
  <ele>1583.0</ele>
  <time>2026-08-28T17:52:55Z</time>
  <course>345.24</course>
  <speed>4.27</speed>
  <fix>3d</fix>
</trkpt>
<trkpt lat="40.0713039" lon="-105.2274007">
  <ele>1582.99</ele>
  <time>2026-08-28T17:52:55Z</time>
  <course>346.51</course>
  <speed>4.6469882719886435</speed>
  <fix>3d</fix>
</trkpt>
<trkpt lat="40.0712987" lon="-105.2273994">
  <ele>1583.0</ele>
  <time>2026-08-28T17:52:55Z</time>
  <course>345.46</course>
  <speed>4.5</speed>
  <fix>3d</fix>
</trkpt>
<trkpt lat="40.071308" lon="-105.227402">
  <ele>1582.99</ele>
  <time>2026-08-28T17:52:55Z</time>
  <course>346.88</course>
  <speed>4.7538195169779005</speed>
  <fix>3d</fix>
</trkpt>
<trkpt lat="40.0712987" lon="-105.2273994">
  <ele>1583.0</ele>
  <time>2026-08-28T17:52:55Z</time>
  <course>345.46</course>
  <speed>4.5</speed>
  <fix>3d</fix>
</trkpt>
<trkpt lat="40.0713122" lon="-105.2274034">
  <ele>1582.99</ele>
  <time>2026-08-28T17:52:55Z</time>
  <course>347.37</course>
  <speed>4.8584977101980815</speed>
  <fix>3d</fix>
</trkpt>
<trkpt lat="40.0713068" lon="-105.227402">
  <ele>1583.0</ele>
  <time>2026-08-28T17:52:55Z</time>
  <course>346.13</course>
  <speed>4.72</speed>
  <fix>3d</fix>
</trkpt>
<trkpt lat="40.0713166" lon="-105.2274047">
  <ele>1582.99</ele>
  <time>2026-08-28T17:52:55Z</time>
  <course>347.95</course>
  <speed>4.961219608120568</speed>
  <fix>3d</fix>
</trkpt>
<trkpt lat="40.0713068" lon="-105.227402">
  <ele>1583.0</ele>
  <time>2026-08-28T17:52:55Z</time>
  <course>346.13</course>
  <speed>4.72</speed>
  <fix>3d</fix>
</trkpt>
<trkpt lat="40.071321" lon="-105.227406">
  <ele>1582.99</ele>
  <time>2026-08-28T17:52:55Z</time>
  <course>348.61</course>
  <speed>5.069921103922624</speed>
  <fix>3d</fix>
</trkpt>
<trkpt lat="40.0713152" lon="-105.2274046">
  <ele>1583.0</ele>
  <time>2026-08-28T17:52:55Z</time>
  <course>347.19</course>
  <speed>4.93</speed>
  <fix>3d</fix>
</trkpt>
<trkpt lat="40.0713255" lon="-105.2274073">
  <ele>1582.99</ele>
  <time>2026-08-28T17:52:55Z</time>
  <course>349.35</course>
  <speed>5.169622810225133</speed>
  <fix>3d</fix>
</trkpt>
<trkpt lat="40.0713152" lon="-105.2274046">
  <ele>1583.0</ele>
  <time>2026-08-28T17:52:55Z</time>
  <course>347.19</course>
  <speed>4.93</speed>
  <fix>3d</fix>
</trkpt>
<trkpt lat="40.0713302" lon="-105.2274085">
  <ele>1582.99</ele>
  <time>2026-08-28T17:52:55Z</time>
  <course>350.13</course>
  <speed>5.248542654870969</speed>
  <fix>3d</fix>
</trkpt>
<trkpt lat="40.0713241" lon="-105.2274072">
  <ele>1583.0</ele>
  <time>2026-08-28T17:52:55Z</time>
  <course>348.57</course>
  <speed>5.12</speed>
  <fix>3d</fix>
</trkpt>
<trkpt lat="40.0713349" lon="-105.2274096">
  <ele>1582.99</ele>
  <time>2026-08-28T17:52:55Z</time>
  <course>350.91</course>
  <speed>5.30687290219014</speed>
  <fix>3d</fix>
</trkpt>
<trkpt lat="40.0713241" lon="-105.2274072">
  <ele>1583.0</ele>
  <time>2026-08-28T17:52:55Z</time>
  <course>348.57</course>
  <speed>5.12</speed>
  <fix>3d</fix>
</trkpt>
<trkpt lat="40.0713396" lon="-105.2274106">
  <ele>1582.99</ele>
  <time>2026-08-28T17:52:55Z</time>
  <course>351.67</course>
  <speed>5.356276691882151</speed>
  <fix>3d</fix>
</trkpt>
<trkpt lat="40.0713333" lon="-105.2274094">
  <ele>1583.0</ele>
  <time>2026-08-28T17:52:55Z</time>
  <course>350.1</course>
  <speed>5.26</speed>
  <fix>3d</fix>
</trkpt>
<trkpt lat="40.0713444" lon="-105.2274116">
  <ele>1582.99</ele>
  <time>2026-08-28T17:52:55Z</time>
  <course>352.4</course>
  <speed>5.386770832326172</speed>
  <fix>3d</fix>
</trkpt>
<trkpt lat="40.0713333" lon="-105.2274094">
  <ele>1583.0</ele>
  <time>2026-08-28T17:52:55Z</time>
  <course>350.1</course>
  <speed>5.26</speed>
  <fix>3d</fix>
</trkpt>
<trkpt lat="40.0713493" lon="-105.2274125">
  <ele>1582.99</ele>
  <time>2026-08-28T17:52:55Z</time>
  <course>353.13</course>
  <speed>5.406819767663798</speed>
  <fix>3d</fix>
</trkpt>
<trkpt lat="40.0713427" lon="-105.2274114">
  <ele>1583.0</ele>
  <time>2026-08-28T17:52:55Z</time>
  <course>351.59</course>
  <speed>5.35</speed>
  <fix>3d</fix>
</trkpt>
<trkpt lat="40.0713541" lon="-105.2274133">
  <ele>1582.99</ele>
  <time>2026-08-28T17:52:55Z</time>
  <course>353.86</course>
  <speed>5.41912354537152</speed>
  <fix>3d</fix>
</trkpt>
<trkpt lat="40.0713427" lon="-105.2274114">
  <ele>1583.0</ele>
  <time>2026-08-28T17:52:55Z</time>
  <course>351.59</course>
  <speed>5.35</speed>
  <fix>3d</fix>
</trkpt>
<trkpt lat="40.0713589" lon="-105.227414">
  <ele>1582.99</ele>
  <time>2026-08-28T17:52:55Z</time>
  <course>354.59</course>
  <speed>5.421116121242931</speed>
  <fix>3d</fix>
</trkpt>
<trkpt lat="40.0713427" lon="-105.2274114">
  <ele>1583.0</ele>
  <time>2026-08-28T17:52:55Z</time>
  <course>351.59</course>
  <speed>5.35</speed>
  <fix>3d</fix>
</trkpt>
<trkpt lat="40.0713637" lon="-105.2274147">
  <ele>1582.99</ele>
  <time>2026-08-28T17:52:55Z</time>
  <course>355.32</course>
  <speed>5.404118799582408</speed>
  <fix>3d</fix>
</trkpt>
<trkpt lat="40.0713523" lon="-105.2274131">
  <ele>1583.0</ele>
  <time>2026-08-28T17:52:55Z</time>
  <course>353.05</course>
  <speed>5.38</speed>
  <fix>3d</fix>
</trkpt>
<trkpt lat="40.0713685" lon="-105.2274152">
  <ele>1582.99</ele>
  <time>2026-08-28T17:52:55Z</time>
  <course>356.05</course>
  <speed>5.387995916850717</speed>
  <fix>3d</fix>
</trkpt>
<trkpt lat="40.0713523" lon="-105.2274131">
  <ele>1583.0</ele>
  <time>2026-08-28T17:52:55Z</time>
  <course>353.05</course>
  <speed>5.38</speed>
  <fix>3d</fix>
</trkpt>
<trkpt lat="40.0713733" lon="-105.2274157">
  <ele>1582.99</ele>
  <time>2026-08-28T17:52:55Z</time>
  <course>356.78</course>
  <speed>5.362779130264456</speed>
  <fix>3d</fix>
</trkpt>
<trkpt lat="40.0713619" lon="-105.2274145">
  <ele>1583.0</ele>
  <time>2026-08-28T17:52:55Z</time>
  <course>354.51</course>
  <speed>5.37</speed>
  <fix>3d</fix>
</trkpt>
<trkpt lat="40.071378" lon="-105.2274161">
  <ele>1582.99</ele>
  <time>2026-08-28T17:52:55Z</time>
  <course>357.47</course>
  <speed>5.3290243009391505</speed>
  <fix>3d</fix>
</trkpt>
<trkpt lat="40.0713619" lon="-105.2274145">
  <ele>1583.0</ele>
  <time>2026-08-28T17:52:55Z</time>
  <course>354.51</course>
  <speed>5.37</speed>
  <fix>3d</fix>
</trkpt>
<trkpt lat="40.0713827" lon="-105.2274164">
  <ele>1582.99</ele>
  <time>2026-08-28T17:52:55Z</time>
  <course>358.05</course>
  <speed>5.296385559983337</speed>
  <fix>3d</fix>
</trkpt>
<trkpt lat="40.0713715" lon="-105.2274155">
  <ele>1583.0</ele>
  <time>2026-08-28T17:52:55Z</time>
  <course>355.94</course>
  <speed>5.34</speed>
  <fix>3d</fix>
</trkpt>
<trkpt lat="40.0713874" lon="-105.2274167">
  <ele>1582.99</ele>
  <time>2026-08-28T17:52:55Z</time>
  <course>358.54</course>
  <speed>5.264190346102618</speed>
  <fix>3d</fix>
</trkpt>
<trkpt lat="40.0713715" lon="-105.2274155">
  <ele>1583.0</ele>
  <time>2026-08-28T17:52:55Z</time>
  <course>355.94</course>
  <speed>5.34</speed>
  <fix>3d</fix>
</trkpt>
<trkpt lat="40.0713921" lon="-105.2274169">
  <ele>1582.99</ele>
  <time>2026-08-28T17:52:55Z</time>
  <course>358.97</course>
  <speed>5.2227674656258625</speed>
  <fix>3d</fix>
</trkpt>
<trkpt lat="40.071381" lon="-105.2274162">
  <ele>1583.0</ele>
  <time>2026-08-28T17:52:55Z</time>
  <course>357.17</course>
  <speed>5.29</speed>
  <fix>3d</fix>
</trkpt>
<trkpt lat="40.0713967" lon="-105.2274171">
  <ele>1582.99</ele>
  <time>2026-08-28T17:52:55Z</time>
  <course>359.34</course>
  <speed>5.191887903258313</speed>
  <fix>3d</fix>
</trkpt>
<trkpt lat="40.0713905" lon="-105.2274167">
  <ele>1583.0</ele>
  <time>2026-08-28T17:52:55Z</time>
  <course>358.1</course>
  <speed>5.23</speed>
  <fix>3d</fix>
</trkpt>
<trkpt lat="40.0714013" lon="-105.2274172">
  <ele>1582.99</ele>
  <time>2026-08-28T17:52:55Z</time>
  <course>359.67</course>
  <speed>5.161172347442004</speed>
  <fix>3d</fix>
</trkpt>
<trkpt lat="40.0713905" lon="-105.2274167">
  <ele>1583.0</ele>
  <time>2026-08-28T17:52:55Z</time>
  <course>358.1</course>
  <speed>5.23</speed>
  <fix>3d</fix>
</trkpt>
<trkpt lat="40.0714059" lon="-105.2274173">
  <ele>1583.0</ele>
  <time>2026-08-28T17:52:55Z</time>
  <course>359.94</course>
  <speed>5.130623743756698</speed>
  <fix>3d</fix>
</trkpt>
<trkpt lat="40.0713998" lon="-105.2274171">
  <ele>1583.0</ele>
  <time>2026-08-28T17:52:55Z</time>
  <course>358.8</course>
  <speed>5.17</speed>
  <fix>3d</fix>
</trkpt>
<trkpt lat="40.0714105" lon="-105.2274174">
  <ele>1583.0</ele>
  <time>2026-08-28T17:52:55Z</time>
  <course>0.28</course>
  <speed>5.100245092149985</speed>
  <fix>3d</fix>
</trkpt>
<trkpt lat="40.0713998" lon="-105.2274171">
  <ele>1583.0</ele>
  <time>2026-08-28T17:52:55Z</time>
  <course>358.8</course>
  <speed>5.17</speed>
  <fix>3d</fix>
</trkpt>
<trkpt lat="40.071415" lon="-105.2274174">
  <ele>1583.0</ele>
  <time>2026-08-28T17:52:55Z</time>
  <course>0.74</course>
  <speed>5.070009861923348</speed>
  <fix>3d</fix>
</trkpt>
<trkpt lat="40.071409" lon="-105.2274172">
  <ele>1583.0</ele>
  <time>2026-08-28T17:52:55Z</time>
  <course>359.5</course>
  <speed>5.11</speed>
  <fix>3d</fix>
</trkpt>
<trkpt lat="40.0714196" lon="-105.2274174">
  <ele>1583.0</ele>
  <time>2026-08-28T17:52:55Z</time>
  <course>1.16</course>
  <speed>5.050039603805103</speed>
  <fix>3d</fix>
</trkpt>
<trkpt lat="40.071409" lon="-105.2274172">
  <ele>1583.0</ele>
  <time>2026-08-28T17:52:55Z</time>
  <course>359.5</course>
  <speed>5.11</speed>
  <fix>3d</fix>
</trkpt>
<trkpt lat="40.0714242" lon="-105.2274173">
  <ele>1583.0</ele>
  <time>2026-08-28T17:52:55Z</time>
  <course>1.53</course>
  <speed>5.020248997808774</speed>
  <fix>3d</fix>
</trkpt>
<trkpt lat="40.0714182" lon="-105.2274172">
  <ele>1583.0</ele>
  <time>2026-08-28T17:52:55Z</time>
  <course>0.3</course>
  <speed>5.06</speed>
  <fix>3d</fix>
</trkpt>
<trkpt lat="40.0714287" lon="-105.2274172">
  <ele>1583.01</ele>
  <time>2026-08-28T17:52:55Z</time>
  <course>1.87</course>
  <speed>5.000639959045242</speed>
  <fix>3d</fix>
</trkpt>
<trkpt lat="40.0714182" lon="-105.2274172">
  <ele>1583.0</ele>
  <time>2026-08-28T17:52:55Z</time>
  <course>0.3</course>
  <speed>5.06</speed>
  <fix>3d</fix>
</trkpt>
<trkpt lat="40.0714332" lon="-105.2274172">
  <ele>1583.01</ele>
  <time>2026-08-28T17:52:55Z</time>
  <course>2.15</course>
  <speed>4.981003914874992</speed>
  <fix>3d</fix>
</trkpt>
<trkpt lat="40.0714272" lon="-105.2274171">
  <ele>1583.0</ele>
  <time>2026-08-28T17:52:55Z</time>
  <course>1.01</course>
  <speed>5.02</speed>
  <fix>3d</fix>
</trkpt>
<trkpt lat="40.0714377" lon="-105.227417">
  <ele>1583.01</ele>
  <time>2026-08-28T17:52:55Z</time>
  <course>2.4</course>
  <speed>4.971699910493392</speed>
  <fix>3d</fix>
</trkpt>
<trkpt lat="40.0714272" lon="-105.2274171">
  <ele>1583.0</ele>
  <time>2026-08-28T17:52:55Z</time>
  <course>1.01</course>
  <speed>5.02</speed>
  <fix>3d</fix>
</trkpt>
<trkpt lat="40.0714422" lon="-105.2274168">
  <ele>1583.01</ele>
  <time>2026-08-28T17:52:55Z</time>
  <course>2.6</course>
  <speed>4.961975413078949</speed>
  <fix>3d</fix>
</trkpt>
<trkpt lat="40.0714363" lon="-105.2274169">
  <ele>1583.0</ele>
  <time>2026-08-28T17:52:55Z</time>
  <course>1.55</course>
  <speed>4.99</speed>
  <fix>3d</fix>
</trkpt>
<trkpt lat="40.0714467" lon="-105.2274166">
  <ele>1583.01</ele>
  <time>2026-08-28T17:52:55Z</time>
  <course>2.81</course>
  <speed>4.952585183517796</speed>
  <fix>3d</fix>
</trkpt>
<trkpt lat="40.0714363" lon="-105.2274169">
  <ele>1583.0</ele>
  <time>2026-08-28T17:52:55Z</time>
  <course>1.55</course>
  <speed>4.99</speed>
  <fix>3d</fix>
</trkpt>
<trkpt lat="40.0714511" lon="-105.2274164">
  <ele>1583.01</ele>
  <time>2026-08-28T17:52:55Z</time>
  <course>2.97</course>
  <speed>4.943278264471868</speed>
  <fix>3d</fix>
</trkpt>
<trkpt lat="40.0714452" lon="-105.2274166">
  <ele>1583.0</ele>
  <time>2026-08-28T17:52:55Z</time>
  <course>1.96</course>
  <speed>4.97</speed>
  <fix>3d</fix>
</trkpt>
<trkpt lat="40.0714556" lon="-105.2274162">
  <ele>1583.01</ele>
  <time>2026-08-28T17:52:55Z</time>
  <course>3.07</course>
  <speed>4.933659899101275</speed>
  <fix>3d</fix>
</trkpt>
<trkpt lat="40.0714452" lon="-105.2274166">
  <ele>1583.0</ele>
  <time>2026-08-28T17:52:55Z</time>
  <course>1.96</course>
  <speed>4.97</speed>
  <fix>3d</fix>
</trkpt>
<trkpt lat="40.0714601" lon="-105.2274159">
  <ele>1583.01</ele>
  <time>2026-08-28T17:52:55Z</time>
  <course>3.1</course>
  <speed>4.933659899101275</speed>
  <fix>3d</fix>
</trkpt>
<trkpt lat="40.0714452" lon="-105.2274166">
  <ele>1583.0</ele>
  <time>2026-08-28T17:52:55Z</time>
  <course>1.96</course>
  <speed>4.97</speed>
  <fix>3d</fix>
</trkpt>
<trkpt lat="40.0714645" lon="-105.2274157">
  <ele>1583.01</ele>
  <time>2026-08-28T17:52:55Z</time>
  <course>3.14</course>
  <speed>4.923667332385485</speed>
  <fix>3d</fix>
</trkpt>
<trkpt lat="40.0714542" lon="-105.2274161">
  <ele>1583.0</ele>
  <time>2026-08-28T17:52:55Z</time>
  <course>2.21</course>
  <speed>4.96</speed>
  <fix>3d</fix>
</trkpt>
<trkpt lat="40.0714689" lon="-105.2274154">
  <ele>1583.01</ele>
  <time>2026-08-28T17:52:55Z</time>
  <course>3.16</course>
  <speed>4.923667332385485</speed>
  <fix>3d</fix>
</trkpt>
<trkpt lat="40.0714542" lon="-105.2274161">
  <ele>1583.0</ele>
  <time>2026-08-28T17:52:55Z</time>
  <course>2.21</course>
  <speed>4.96</speed>
  <fix>3d</fix>
</trkpt>
<trkpt lat="40.0714733" lon="-105.2274152">
  <ele>1583.01</ele>
  <time>2026-08-28T17:52:55Z</time>
  <course>3.18</course>
  <speed>4.924063362711736</speed>
  <fix>3d</fix>
</trkpt>
<trkpt lat="40.0714631" lon="-105.2274157">
  <ele>1583.0</ele>
  <time>2026-08-28T17:52:55Z</time>
  <course>2.3</course>
  <speed>4.95</speed>
  <fix>3d</fix>
</trkpt>
<trkpt lat="40.0714777" lon="-105.227415">
  <ele>1583.0</ele>
  <time>2026-08-28T17:52:55Z</time>
  <course>3.21</course>
  <speed>4.924063362711736</speed>
  <fix>3d</fix>
</trkpt>
<trkpt lat="40.0714631" lon="-105.2274157">
  <ele>1583.0</ele>
  <time>2026-08-28T17:52:55Z</time>
  <course>2.3</course>
  <speed>4.95</speed>
  <fix>3d</fix>
</trkpt>
<trkpt lat="40.0714821" lon="-105.2274147">
  <ele>1583.0</ele>
  <time>2026-08-28T17:52:55Z</time>
  <course>3.24</course>
  <speed>4.924063362711736</speed>
  <fix>3d</fix>
</trkpt>
<trkpt lat="40.071472" lon="-105.2274152">
  <ele>1583.0</ele>
  <time>2026-08-28T17:52:55Z</time>
  <course>2.36</course>
  <speed>4.95</speed>
  <fix>3d</fix>
</trkpt>
<trkpt lat="40.0714865" lon="-105.2274145">
  <ele>1583.0</ele>
  <time>2026-08-28T17:52:55Z</time>
  <course>3.26</course>
  <speed>4.924063362711736</speed>
  <fix>3d</fix>
</trkpt>
<trkpt lat="40.0714809" lon="-105.2274147">
  <ele>1583.0</ele>
  <time>2026-08-28T17:52:55Z</time>
  <course>2.4</course>
  <speed>4.96</speed>
  <fix>3d</fix>
</trkpt>
<trkpt lat="40.071491" lon="-105.2274142">
  <ele>1582.99</ele>
  <time>2026-08-28T17:52:55Z</time>
  <course>3.3</course>
  <speed>4.934470589637757</speed>
  <fix>3d</fix>
</trkpt>
<trkpt lat="40.0714809" lon="-105.2274147">
  <ele>1583.0</ele>
  <time>2026-08-28T17:52:55Z</time>
  <course>2.4</course>
  <speed>4.96</speed>
  <fix>3d</fix>
</trkpt>
<trkpt lat="40.0714954" lon="-105.227414">
  <ele>1582.99</ele>
  <time>2026-08-28T17:52:55Z</time>
  <course>3.34</course>
  <speed>4.934470589637757</speed>
  <fix>3d</fix>
</trkpt>
<trkpt lat="40.0714898" lon="-105.2274142">
  <ele>1583.0</ele>
  <time>2026-08-28T17:52:55Z</time>
  <course>2.47</course>
  <speed>4.97</speed>
  <fix>3d</fix>
</trkpt>
<trkpt lat="40.0714999" lon="-105.2274137">
  <ele>1582.99</ele>
  <time>2026-08-28T17:52:55Z</time>
  <course>3.34</course>
  <speed>4.9444615480353376</speed>
  <fix>3d</fix>
</trkpt>
<trkpt lat="40.0714898" lon="-105.2274142">
  <ele>1583.0</ele>
  <time>2026-08-28T17:52:55Z</time>
  <course>2.47</course>
  <speed>4.97</speed>
  <fix>3d</fix>
</trkpt>
<trkpt lat="40.0715044" lon="-105.2274135">
  <ele>1582.99</ele>
  <time>2026-08-28T17:52:55Z</time>
  <course>3.34</course>
  <speed>4.954452542915312</speed>
  <fix>3d</fix>
</trkpt>
<trkpt lat="40.0714988" lon="-105.2274137">
  <ele>1583.0</ele>
  <time>2026-08-28T17:52:55Z</time>
  <course>2.51</course>
  <speed>4.98</speed>
  <fix>3d</fix>
</trkpt>
<trkpt lat="40.0715089" lon="-105.2274132">
  <ele>1582.99</ele>
  <time>2026-08-28T17:52:55Z</time>
  <course>3.34</course>
  <speed>4.9644435740574195</speed>
  <fix>3d</fix>
</trkpt>
<trkpt lat="40.0714988" lon="-105.2274137">
  <ele>1583.0</ele>
  <time>2026-08-28T17:52:55Z</time>
  <course>2.51</course>
  <speed>4.98</speed>
  <fix>3d</fix>
</trkpt>
<trkpt lat="40.0715134" lon="-105.2274129">
  <ele>1582.99</ele>
  <time>2026-08-28T17:52:55Z</time>
  <course>3.34</course>
  <speed>4.9644435740574195</speed>
  <fix>3d</fix>
</trkpt>
<trkpt lat="40.0715077" lon="-105.2274132">
  <ele>1583.0</ele>
  <time>2026-08-28T17:52:55Z</time>
  <course>2.51</course>
  <speed>5.0</speed>
  <fix>3d</fix>
</trkpt>
<trkpt lat="40.0715179" lon="-105.2274127">
  <ele>1582.99</ele>
  <time>2026-08-28T17:52:55Z</time>
  <course>3.34</course>
  <speed>4.974866832388582</speed>
  <fix>3d</fix>
</trkpt>
<trkpt lat="40.0715077" lon="-105.2274132">
  <ele>1583.0</ele>
  <time>2026-08-28T17:52:55Z</time>
  <course>2.51</course>
  <speed>5.0</speed>
  <fix>3d</fix>
</trkpt>
<trkpt lat="40.0715224" lon="-105.2274124">
  <ele>1582.99</ele>
  <time>2026-08-28T17:52:55Z</time>
  <course>3.34</course>
  <speed>4.984857069164572</speed>
  <fix>3d</fix>
</trkpt>
<trkpt lat="40.0715167" lon="-105.2274127">
  <ele>1583.0</ele>
  <time>2026-08-28T17:52:55Z</time>
  <course>2.51</course>
  <speed>5.01</speed>
  <fix>3d</fix>
</trkpt>
<trkpt lat="40.071527" lon="-105.2274121">
  <ele>1582.99</ele>
  <time>2026-08-28T17:52:55Z</time>
  <course>3.34</course>
  <speed>4.984857069164572</speed>
  <fix>3d</fix>
</trkpt>
<trkpt lat="40.0715167" lon="-105.2274127">
  <ele>1583.0</ele>
  <time>2026-08-28T17:52:55Z</time>
  <course>2.51</course>
  <speed>5.01</speed>
  <fix>3d</fix>
</trkpt>
<trkpt lat="40.0715315" lon="-105.2274119">
  <ele>1582.99</ele>
  <time>2026-08-28T17:52:55Z</time>
  <course>3.34</course>
  <speed>4.9948473450146595</speed>
  <fix>3d</fix>
</trkpt>
<trkpt lat="40.0715256" lon="-105.2274122">
  <ele>1583.0</ele>
  <time>2026-08-28T17:52:55Z</time>
  <course>2.51</course>
  <speed>5.02</speed>
  <fix>3d</fix>
</trkpt>
<trkpt lat="40.071536" lon="-105.2274116">
  <ele>1582.99</ele>
  <time>2026-08-28T17:52:55Z</time>
  <course>3.34</course>
  <speed>4.9948473450146595</speed>
  <fix>3d</fix>
</trkpt>
<trkpt lat="40.0715256" lon="-105.2274122">
  <ele>1583.0</ele>
  <time>2026-08-28T17:52:55Z</time>
  <course>2.51</course>
  <speed>5.02</speed>
  <fix>3d</fix>
</trkpt>
<trkpt lat="40.0715406" lon="-105.2274113">
  <ele>1582.99</ele>
  <time>2026-08-28T17:52:55Z</time>
  <course>3.34</course>
  <speed>4.9948473450146595</speed>
  <fix>3d</fix>
</trkpt>
<trkpt lat="40.0715347" lon="-105.2274116">
  <ele>1583.0</ele>
  <time>2026-08-28T17:52:55Z</time>
  <course>2.51</course>
  <speed>5.02</speed>
  <fix>3d</fix>
</trkpt>
<trkpt lat="40.0715451" lon="-105.2274111">
  <ele>1582.99</ele>
  <time>2026-08-28T17:52:55Z</time>
  <course>3.34</course>
  <speed>5.004837659704858</speed>
  <fix>3d</fix>
</trkpt>
<trkpt lat="40.0715347" lon="-105.2274116">
  <ele>1583.0</ele>
  <time>2026-08-28T17:52:55Z</time>
  <course>2.51</course>
  <speed>5.02</speed>
  <fix>3d</fix>
</trkpt>
<trkpt lat="40.0715496" lon="-105.2274108">
  <ele>1582.99</ele>
  <time>2026-08-28T17:52:55Z</time>
  <course>3.34</course>
  <speed>5.004837659704858</speed>
  <fix>3d</fix>
</trkpt>
<trkpt lat="40.0715347" lon="-105.2274116">
  <ele>1583.0</ele>
  <time>2026-08-28T17:52:55Z</time>
  <course>2.51</course>
  <speed>5.02</speed>
  <fix>3d</fix>
</trkpt>
<trkpt lat="40.0715541" lon="-105.2274105">
  <ele>1582.99</ele>
  <time>2026-08-28T17:52:55Z</time>
  <course>3.29</course>
  <speed>5.004837659704858</speed>
  <fix>3d</fix>
</trkpt>
<trkpt lat="40.0715438" lon="-105.2274111">
  <ele>1583.0</ele>
  <time>2026-08-28T17:52:55Z</time>
  <course>2.51</course>
  <speed>5.03</speed>
  <fix>3d</fix>
</trkpt>
<trkpt lat="40.0715586" lon="-105.2274103">
  <ele>1582.99</ele>
  <time>2026-08-28T17:52:55Z</time>
  <course>3.17</course>
  <speed>5.004408056903434</speed>
  <fix>3d</fix>
</trkpt>
<trkpt lat="40.0715438" lon="-105.2274111">
  <ele>1583.0</ele>
  <time>2026-08-28T17:52:55Z</time>
  <course>2.51</course>
  <speed>5.03</speed>
  <fix>3d</fix>
</trkpt>
<trkpt lat="40.0715631" lon="-105.2274101">
  <ele>1582.99</ele>
  <time>2026-08-28T17:52:55Z</time>
  <course>3.0</course>
  <speed>5.003608697730069</speed>
  <fix>3d</fix>
</trkpt>
<trkpt lat="40.0715528" lon="-105.2274106">
  <ele>1583.0</ele>
  <time>2026-08-28T17:52:55Z</time>
  <course>2.42</course>
  <speed>5.03</speed>
  <fix>3d</fix>
</trkpt>
<trkpt lat="40.0715676" lon="-105.2274098">
  <ele>1582.99</ele>
  <time>2026-08-28T17:52:55Z</time>
  <course>2.77</course>
  <speed>5.0028891652724035</speed>
  <fix>3d</fix>
</trkpt>
<trkpt lat="40.0715528" lon="-105.2274106">
  <ele>1583.0</ele>
  <time>2026-08-28T17:52:55Z</time>
  <course>2.42</course>
  <speed>5.03</speed>
  <fix>3d</fix>
</trkpt>
<trkpt lat="40.071572" lon="-105.2274097">
  <ele>1582.99</ele>
  <time>2026-08-28T17:52:55Z</time>
  <course>2.47</course>
  <speed>5.0022494939776845</speed>
  <fix>3d</fix>
</trkpt>
<trkpt lat="40.0715618" lon="-105.2274102">
  <ele>1583.0</ele>
  <time>2026-08-28T17:52:55Z</time>
  <course>2.12</course>
  <speed>5.03</speed>
  <fix>3d</fix>
</trkpt>
<trkpt lat="40.0715765" lon="-105.2274095">
  <ele>1583.0</ele>
  <time>2026-08-28T17:52:55Z</time>
  <course>2.1</course>
  <speed>5.00120985362542</speed>
  <fix>3d</fix>
</trkpt>
<trkpt lat="40.0715618" lon="-105.2274102">
  <ele>1583.0</ele>
  <time>2026-08-28T17:52:55Z</time>
  <course>2.12</course>
  <speed>5.03</speed>
  <fix>3d</fix>
</trkpt>
<trkpt lat="40.071581" lon="-105.2274094">
  <ele>1583.0</ele>
  <time>2026-08-28T17:52:55Z</time>
  <course>1.67</course>
  <speed>5.000489975992353</speed>
  <fix>3d</fix>
</trkpt>
<trkpt lat="40.0715709" lon="-105.2274098">
  <ele>1583.0</ele>
  <time>2026-08-28T17:52:55Z</time>
  <course>1.58</course>
  <speed>5.04</speed>
  <fix>3d</fix>
</trkpt>
<trkpt lat="40.0715855" lon="-105.2274094">
  <ele>1583.0</ele>
  <time>2026-08-28T17:52:55Z</time>
  <course>1.15</course>
  <speed>5.000089999190014</speed>
  <fix>3d</fix>
</trkpt>
<trkpt lat="40.07158" lon="-105.2274095">
  <ele>1583.0</ele>
  <time>2026-08-28T17:52:55Z</time>
  <course>0.77</course>
  <speed>5.04</speed>
  <fix>3d</fix>
</trkpt>
<trkpt lat="40.07159" lon="-105.2274094">
  <ele>1583.0</ele>
  <time>2026-08-28T17:52:55Z</time>
  <course>0.54</course>
  <speed>5.000039999840001</speed>
  <fix>3d</fix>
</trkpt>
<trkpt lat="40.07158" lon="-105.2274095">
  <ele>1583.0</ele>
  <time>2026-08-28T17:52:55Z</time>
  <course>0.77</course>
  <speed>5.04</speed>
  <fix>3d</fix>
</trkpt>
<trkpt lat="40.0715945" lon="-105.2274094">
  <ele>1583.0</ele>
  <time>2026-08-28T17:52:55Z</time>
  <course>0.03</course>
  <speed>5.000359987040933</speed>
  <fix>3d</fix>
</trkpt>
<trkpt lat="40.071589" lon="-105.2274094">
  <ele>1583.0</ele>
  <time>2026-08-28T17:52:55Z</time>
  <course>359.72</course>
  <speed>5.04</speed>
  <fix>3d</fix>
</trkpt>
<trkpt lat="40.0715991" lon="-105.2274095">
  <ele>1583.01</ele>
  <time>2026-08-28T17:52:55Z</time>
  <course>359.57</course>
  <speed>5.000999900019995</speed>
  <fix>3d</fix>
</trkpt>
<trkpt lat="40.071589" lon="-105.2274094">
  <ele>1583.0</ele>
  <time>2026-08-28T17:52:55Z</time>
  <course>359.72</course>
  <speed>5.04</speed>
  <fix>3d</fix>
</trkpt>
<trkpt lat="40.0716036" lon="-105.2274096">
  <ele>1583.01</ele>
  <time>2026-08-28T17:52:55Z</time>
  <course>359.04</course>
  <speed>5.0022494939776845</speed>
  <fix>3d</fix>
</trkpt>
<trkpt lat="40.0715981" lon="-105.2274095">
  <ele>1583.0</ele>
  <time>2026-08-28T17:52:55Z</time>
  <course>358.65</course>
  <speed>5.04</speed>
  <fix>3d</fix>
</trkpt>
<trkpt lat="40.0716082" lon="-105.2274099">
  <ele>1583.01</ele>
  <time>2026-08-28T17:52:55Z</time>
  <course>358.49</course>
  <speed>5.0039984012787215</speed>
  <fix>3d</fix>
</trkpt>
<trkpt lat="40.0715981" lon="-105.2274095">
  <ele>1583.0</ele>
  <time>2026-08-28T17:52:55Z</time>
  <course>358.65</course>
  <speed>5.04</speed>
  <fix>3d</fix>
</trkpt>
<trkpt lat="40.0716128" lon="-105.2274101">
  <ele>1583.01</ele>
  <time>2026-08-28T17:52:55Z</time>
  <course>357.88</course>
  <speed>5.006246098625197</speed>
  <fix>3d</fix>
</trkpt>
<trkpt lat="40.0716071" lon="-105.2274099">
  <ele>1583.0</ele>
  <time>2026-08-28T17:52:55Z</time>
  <course>357.56</course>
  <speed>5.04</speed>
  <fix>3d</fix>
</trkpt>
<trkpt lat="40.0716173" lon="-105.2274105">
  <ele>1583.01</ele>
  <time>2026-08-28T17:52:55Z</time>
  <course>357.27</course>
  <speed>5.009600782497544</speed>
  <fix>3d</fix>
</trkpt>
<trkpt lat="40.0716071" lon="-105.2274099">
  <ele>1583.0</ele>
  <time>2026-08-28T17:52:55Z</time>
  <course>357.56</course>
  <speed>5.04</speed>
  <fix>3d</fix>
</trkpt>
<trkpt lat="40.0716219" lon="-105.2274109">
  <ele>1583.01</ele>
  <time>2026-08-28T17:52:55Z</time>
  <course>356.59</course>
  <speed>5.013671309529574</speed>
  <fix>3d</fix>
</trkpt>
<trkpt lat="40.0716161" lon="-105.2274105">
  <ele>1583.0</ele>
  <time>2026-08-28T17:52:55Z</time>
  <course>356.33</course>
  <speed>5.04</speed>
  <fix>3d</fix>
</trkpt>
<trkpt lat="40.0716264" lon="-105.2274114">
  <ele>1583.01</ele>
  <time>2026-08-28T17:52:55Z</time>
  <course>355.91</course>
  <speed>5.008492787256461</speed>
  <fix>3d</fix>
</trkpt>
<trkpt lat="40.0716161" lon="-105.2274105">
  <ele>1583.0</ele>
  <time>2026-08-28T17:52:55Z</time>
  <course>356.33</course>
  <speed>5.04</speed>
  <fix>3d</fix>
</trkpt>
<trkpt lat="40.071631" lon="-105.227412">
  <ele>1583.01</ele>
  <time>2026-08-28T17:52:55Z</time>
  <course>355.2</course>
  <speed>5.014000398883112</speed>
  <fix>3d</fix>
</trkpt>
<trkpt lat="40.0716252" lon="-105.2274114">
  <ele>1583.0</ele>
  <time>2026-08-28T17:52:55Z</time>
  <course>354.99</course>
  <speed>5.03</speed>
  <fix>3d</fix>
</trkpt>
<trkpt lat="40.0716355" lon="-105.2274126">
  <ele>1583.02</ele>
  <time>2026-08-28T17:52:55Z</time>
  <course>354.46</course>
  <speed>5.011387033546701</speed>
  <fix>3d</fix>
</trkpt>
<trkpt lat="40.0716252" lon="-105.2274114">
  <ele>1583.0</ele>
  <time>2026-08-28T17:52:55Z</time>
  <course>354.99</course>
  <speed>5.03</speed>
  <fix>3d</fix>
</trkpt>
<trkpt lat="40.07164" lon="-105.2274133">
  <ele>1583.02</ele>
  <time>2026-08-28T17:52:55Z</time>
  <course>353.75</course>
  <speed>5.008522736296602</speed>
  <fix>3d</fix>
</trkpt>
<trkpt lat="40.0716342" lon="-105.2274126">
  <ele>1583.0</ele>
  <time>2026-08-28T17:52:55Z</time>
  <course>353.56</course>
  <speed>5.03</speed>
  <fix>3d</fix>
</trkpt>
<trkpt lat="40.0716445" lon="-105.2274141">
  <ele>1583.02</ele>
  <time>2026-08-28T17:52:55Z</time>
  <course>353.01</course>
  <speed>5.006395909234506</speed>
  <fix>3d</fix>
</trkpt>
<trkpt lat="40.0716342" lon="-105.2274126">
  <ele>1583.0</ele>
  <time>2026-08-28T17:52:55Z</time>
  <course>353.56</course>
  <speed>5.03</speed>
  <fix>3d</fix>
</trkpt>
<trkpt lat="40.071649" lon="-105.227415">
  <ele>1583.01</ele>
  <time>2026-08-28T17:52:55Z</time>
  <course>352.26</course>
  <speed>5.006495780483591</speed>
  <fix>3d</fix>
</trkpt>
<trkpt lat="40.0716342" lon="-105.2274126">
  <ele>1583.0</ele>
  <time>2026-08-28T17:52:55Z</time>
  <course>353.56</course>
  <speed>5.03</speed>
  <fix>3d</fix>
</trkpt>
<trkpt lat="40.0716535" lon="-105.2274159">
  <ele>1583.01</ele>
  <time>2026-08-28T17:52:55Z</time>
  <course>351.45</course>
  <speed>5.007594232762874</speed>
  <fix>3d</fix>
</trkpt>
<trkpt lat="40.0716431" lon="-105.2274141">
  <ele>1583.0</ele>
  <time>2026-08-28T17:52:55Z</time>
  <course>352.08</course>
  <speed>5.02</speed>
  <fix>3d</fix>
</trkpt>
<trkpt lat="40.0716579" lon="-105.227417">
  <ele>1583.01</ele>
  <time>2026-08-28T17:52:55Z</time>
  <course>350.63</course>
  <speed>4.999849997749933</speed>
  <fix>3d</fix>
</trkpt>
<trkpt lat="40.0716431" lon="-105.2274141">
  <ele>1583.0</ele>
  <time>2026-08-28T17:52:55Z</time>
  <course>352.08</course>
  <speed>5.02</speed>
  <fix>3d</fix>
</trkpt>
<trkpt lat="40.0716623" lon="-105.2274181">
  <ele>1583.01</ele>
  <time>2026-08-28T17:52:55Z</time>
  <course>349.8</course>
  <speed>5.0029691184335725</speed>
  <fix>3d</fix>
</trkpt>
<trkpt lat="40.0716521" lon="-105.2274159">
  <ele>1583.0</ele>
  <time>2026-08-28T17:52:55Z</time>
  <course>350.5</course>
  <speed>5.02</speed>
  <fix>3d</fix>
</trkpt>
<trkpt lat="40.0716666" lon="-105.2274193">
  <ele>1583.01</ele>
  <time>2026-08-28T17:52:55Z</time>
  <course>348.92</course>
  <speed>4.999369960304998</speed>
  <fix>3d</fix>
</trkpt>
<trkpt lat="40.0716521" lon="-105.2274159">
  <ele>1583.0</ele>
  <time>2026-08-28T17:52:55Z</time>
  <course>350.5</course>
  <speed>5.02</speed>
  <fix>3d</fix>
</trkpt>
<trkpt lat="40.071671" lon="-105.2274205">
  <ele>1583.01</ele>
  <time>2026-08-28T17:52:55Z</time>
  <course>348.04</course>
  <speed>4.9948973963435925</speed>
  <fix>3d</fix>
</trkpt>
<trkpt lat="40.071661" lon="-105.227418">
  <ele>1583.0</ele>
  <time>2026-08-28T17:52:55Z</time>
  <course>348.83</course>
  <speed>5.02</speed>
  <fix>3d</fix>
</trkpt>
<trkpt lat="40.0716754" lon="-105.2274219">
  <ele>1583.01</ele>
  <time>2026-08-28T17:52:55Z</time>
  <course>347.15</course>
  <speed>4.993856225403371</speed>
  <fix>3d</fix>
</trkpt>
<trkpt lat="40.0716697" lon="-105.2274204">
  <ele>1583.0</ele>
  <time>2026-08-28T17:52:55Z</time>
  <course>347.09</course>
  <speed>5.01</speed>
  <fix>3d</fix>
</trkpt>
<trkpt lat="40.0716797" lon="-105.2274234">
  <ele>1583.01</ele>
  <time>2026-08-28T17:52:55Z</time>
  <course>346.24</course>
  <speed>4.9941766088115065</speed>
  <fix>3d</fix>
</trkpt>
<trkpt lat="40.0716697" lon="-105.2274204">
  <ele>1583.0</ele>
  <time>2026-08-28T17:52:55Z</time>
  <course>347.09</course>
  <speed>5.01</speed>
  <fix>3d</fix>
</trkpt>
<trkpt lat="40.0716841" lon="-105.227425">
  <ele>1583.0</ele>
  <time>2026-08-28T17:52:55Z</time>
  <course>345.35</course>
  <speed>4.9931653287268585</speed>
  <fix>3d</fix>
</trkpt>
<trkpt lat="40.0716785" lon="-105.2274233">
  <ele>1583.0</ele>
  <time>2026-08-28T17:52:55Z</time>
  <course>345.3</course>
  <speed>5.01</speed>
  <fix>3d</fix>
</trkpt>
<trkpt lat="40.0716884" lon="-105.2274266">
  <ele>1583.0</ele>
  <time>2026-08-28T17:52:55Z</time>
  <course>344.41</course>
  <speed>4.986461671365779</speed>
  <fix>3d</fix>
</trkpt>
<trkpt lat="40.0716785" lon="-105.2274233">
  <ele>1583.0</ele>
  <time>2026-08-28T17:52:55Z</time>
  <course>345.3</course>
  <speed>5.01</speed>
  <fix>3d</fix>
</trkpt>
<trkpt lat="40.0716927" lon="-105.2274284">
  <ele>1583.0</ele>
  <time>2026-08-28T17:52:55Z</time>
  <course>343.46</course>
  <speed>4.990751446425678</speed>
  <fix>3d</fix>
</trkpt>
<trkpt lat="40.0716872" lon="-105.2274264">
  <ele>1583.0</ele>
  <time>2026-08-28T17:52:55Z</time>
  <course>343.44</course>
  <speed>5.01</speed>
  <fix>3d</fix>
</trkpt>
<trkpt lat="40.071697" lon="-105.2274302">
  <ele>1583.0</ele>
  <time>2026-08-28T17:52:55Z</time>
  <course>342.52</course>
  <speed>4.996398703066039</speed>
  <fix>3d</fix>
</trkpt>
<trkpt lat="40.0716872" lon="-105.2274264">
  <ele>1583.0</ele>
  <time>2026-08-28T17:52:55Z</time>
  <course>343.44</course>
  <speed>5.01</speed>
  <fix>3d</fix>
</trkpt>
<trkpt lat="40.0717013" lon="-105.2274322">
  <ele>1583.0</ele>
  <time>2026-08-28T17:52:55Z</time>
  <course>341.56</course>
  <speed>4.993966359518254</speed>
  <fix>3d</fix>
</trkpt>
<trkpt lat="40.0716958" lon="-105.22743">
  <ele>1583.0</ele>
  <time>2026-08-28T17:52:55Z</time>
  <course>341.53</course>
  <speed>5.01</speed>
  <fix>3d</fix>
</trkpt>
<trkpt lat="40.0717056" lon="-105.2274343">
  <ele>1583.0</ele>
  <time>2026-08-28T17:52:55Z</time>
  <course>340.53</course>
  <speed>4.99648876712437</speed>
  <fix>3d</fix>
</trkpt>
<trkpt lat="40.0716958" lon="-105.22743">
  <ele>1583.0</ele>
  <time>2026-08-28T17:52:55Z</time>
  <course>341.53</course>
  <speed>5.01</speed>
  <fix>3d</fix>
</trkpt>
<trkpt lat="40.0717098" lon="-105.2274364">
  <ele>1583.0</ele>
  <time>2026-08-28T17:52:55Z</time>
  <course>339.52</course>
  <speed>4.997139181571792</speed>
  <fix>3d</fix>
</trkpt>
<trkpt lat="40.0717043" lon="-105.2274339">
  <ele>1583.0</ele>
  <time>2026-08-28T17:52:55Z</time>
  <course>339.55</course>
  <speed>5.01</speed>
  <fix>3d</fix>
</trkpt>
<trkpt lat="40.071714" lon="-105.2274387">
  <ele>1583.0</ele>
  <time>2026-08-28T17:52:55Z</time>
  <course>338.5</course>
  <speed>5.003079051943913</speed>
  <fix>3d</fix>
</trkpt>
<trkpt lat="40.0717043" lon="-105.2274339">
  <ele>1583.0</ele>
  <time>2026-08-28T17:52:55Z</time>
  <course>339.55</course>
  <speed>5.01</speed>
  <fix>3d</fix>
</trkpt>
<trkpt lat="40.0717181" lon="-105.227441">
  <ele>1583.01</ele>
  <time>2026-08-28T17:52:55Z</time>
  <course>337.49</course>
  <speed>4.9976394427769595</speed>
  <fix>3d</fix>
</trkpt>
<trkpt lat="40.0717127" lon="-105.2274382">
  <ele>1583.0</ele>
  <time>2026-08-28T17:52:55Z</time>
  <course>337.52</course>
  <speed>5.01</speed>
  <fix>3d</fix>
</trkpt>
<trkpt lat="40.0717223" lon="-105.2274435">
  <ele>1583.01</ele>
  <time>2026-08-28T17:52:55Z</time>
  <course>336.47</course>
  <speed>4.993796151226039</speed>
  <fix>3d</fix>
</trkpt>
<trkpt lat="40.0717127" lon="-105.2274382">
  <ele>1583.0</ele>
  <time>2026-08-28T17:52:55Z</time>
  <course>337.52</course>
  <speed>5.01</speed>
  <fix>3d</fix>
</trkpt>
<trkpt lat="40.0717264" lon="-105.227446">
  <ele>1583.01</ele>
  <time>2026-08-28T17:52:55Z</time>
  <course>335.45</course>
  <speed>5.000569967513703</speed>
  <fix>3d</fix>
</trkpt>
<trkpt lat="40.0717209" lon="-105.2274429">
  <ele>1583.0</ele>
  <time>2026-08-28T17:52:55Z</time>
  <course>335.47</course>
  <speed>5.0</speed>
  <fix>3d</fix>
</trkpt>
<trkpt lat="40.0717304" lon="-105.2274486">
  <ele>1583.01</ele>
  <time>2026-08-28T17:52:55Z</time>
  <course>334.36</course>
  <speed>4.995407891253726</speed>
  <fix>3d</fix>
</trkpt>
<trkpt lat="40.0717209" lon="-105.2274429">
  <ele>1583.0</ele>
  <time>2026-08-28T17:52:55Z</time>
  <course>335.47</course>
  <speed>5.0</speed>
  <fix>3d</fix>
</trkpt>
<trkpt lat="40.0717344" lon="-105.2274514">
  <ele>1583.01</ele>
  <time>2026-08-28T17:52:55Z</time>
  <course>333.28</course>
  <speed>4.996528795073636</speed>
  <fix>3d</fix>
</trkpt>
<trkpt lat="40.0717209" lon="-105.2274429">
  <ele>1583.0</ele>
  <time>2026-08-28T17:52:55Z</time>
  <course>335.47</course>
  <speed>5.0</speed>
  <fix>3d</fix>
</trkpt>
<trkpt lat="40.0717384" lon="-105.2274542">
  <ele>1583.01</ele>
  <time>2026-08-28T17:52:55Z</time>
  <course>332.2</course>
  <speed>4.995327817070668</speed>
  <fix>3d</fix>
</trkpt>
<trkpt lat="40.0717291" lon="-105.227448">
  <ele>1583.0</ele>
  <time>2026-08-28T17:52:55Z</time>
  <course>333.36</course>
  <speed>5.0</speed>
  <fix>3d</fix>
</trkpt>
<trkpt lat="40.0717422" lon="-105.2274571">
  <ele>1583.01</ele>
  <time>2026-08-28T17:52:55Z</time>
  <course>331.11</course>
  <speed>4.991232312766057</speed>
  <fix>3d</fix>
</trkpt>
<trkpt lat="40.0717291" lon="-105.227448">
  <ele>1583.0</ele>
  <time>2026-08-28T17:52:55Z</time>
  <course>333.36</course>
  <speed>5.0</speed>
  <fix>3d</fix>
</trkpt>
<trkpt lat="40.0717461" lon="-105.22746">
  <ele>1583.01</ele>
  <time>2026-08-28T17:52:55Z</time>
  <course>329.99</course>
  <speed>4.988917718303239</speed>
  <fix>3d</fix>
</trkpt>
<trkpt lat="40.071737" lon="-105.2274534">
  <ele>1583.0</ele>
  <time>2026-08-28T17:52:55Z</time>
  <course>331.18</course>
  <speed>5.0</speed>
  <fix>3d</fix>
</trkpt>
<trkpt lat="40.0717498" lon="-105.2274631">
  <ele>1583.0</ele>
  <time>2026-08-28T17:52:55Z</time>
  <course>328.84</course>
  <speed>4.979929718379568</speed>
  <fix>3d</fix>
</trkpt>
<trkpt lat="40.071737" lon="-105.2274534">
  <ele>1583.0</ele>
  <time>2026-08-28T17:52:55Z</time>
  <course>331.18</course>
  <speed>5.0</speed>
  <fix>3d</fix>
</trkpt>
<trkpt lat="40.0717536" lon="-105.2274663">
  <ele>1583.01</ele>
  <time>2026-08-28T17:52:55Z</time>
  <course>327.69</course>
  <speed>4.964594646091461</speed>
  <fix>3d</fix>
</trkpt>
<trkpt lat="40.0717448" lon="-105.2274592">
  <ele>1583.0</ele>
  <time>2026-08-28T17:52:55Z</time>
  <course>328.96</course>
  <speed>4.99</speed>
  <fix>3d</fix>
</trkpt>
<trkpt lat="40.0717572" lon="-105.2274696">
  <ele>1583.01</ele>
  <time>2026-08-28T17:52:55Z</time>
  <course>326.46</course>
  <speed>4.937580379092577</speed>
  <fix>3d</fix>
</trkpt>
<trkpt lat="40.0717523" lon="-105.2274655">
  <ele>1583.0</ele>
  <time>2026-08-28T17:52:55Z</time>
  <course>326.65</course>
  <speed>4.97</speed>
  <fix>3d</fix>
</trkpt>
<trkpt lat="40.0717608" lon="-105.2274729">
  <ele>1583.01</ele>
  <time>2026-08-28T17:52:55Z</time>
  <course>325.26</course>
  <speed>4.90462027072433</speed>
  <fix>3d</fix>
</trkpt>
<trkpt lat="40.0717523" lon="-105.2274655">
  <ele>1583.0</ele>
  <time>2026-08-28T17:52:55Z</time>
  <course>326.65</course>
  <speed>4.97</speed>
  <fix>3d</fix>
</trkpt>
<trkpt lat="40.0717644" lon="-105.2274764">
  <ele>1583.01</ele>
  <time>2026-08-28T17:52:55Z</time>
  <course>324.01</course>
  <speed>4.874105046057173</speed>
  <fix>3d</fix>
</trkpt>
<trkpt lat="40.0717597" lon="-105.2274721">
  <ele>1583.0</ele>
  <time>2026-08-28T17:52:55Z</time>
  <course>324.24</course>
  <speed>4.92</speed>
  <fix>3d</fix>
</trkpt>
<trkpt lat="40.0717678" lon="-105.2274799">
  <ele>1583.01</ele>
  <time>2026-08-28T17:52:55Z</time>
  <course>322.77</course>
  <speed>4.832028559518249</speed>
  <fix>3d</fix>
</trkpt>
<trkpt lat="40.0717597" lon="-105.2274721">
  <ele>1583.0</ele>
  <time>2026-08-28T17:52:55Z</time>
  <course>324.24</course>
  <speed>4.92</speed>
  <fix>3d</fix>
</trkpt>
<trkpt lat="40.0717711" lon="-105.2274835">
  <ele>1583.01</ele>
  <time>2026-08-28T17:52:55Z</time>
  <course>321.47</course>
  <speed>4.778336530634903</speed>
  <fix>3d</fix>
</trkpt>
<trkpt lat="40.0717667" lon="-105.227479">
  <ele>1583.0</ele>
  <time>2026-08-28T17:52:55Z</time>
  <course>321.74</course>
  <speed>4.84</speed>
  <fix>3d</fix>
</trkpt>
<trkpt lat="40.0717744" lon="-105.2274872">
  <ele>1583.01</ele>
  <time>2026-08-28T17:52:55Z</time>
  <course>320.17</course>
  <speed>4.727123861292403</speed>
  <fix>3d</fix>
</trkpt>
<trkpt lat="40.0717667" lon="-105.227479">
  <ele>1583.0</ele>
  <time>2026-08-28T17:52:55Z</time>
  <course>321.74</course>
  <speed>4.84</speed>
  <fix>3d</fix>
</trkpt>
<trkpt lat="40.0717775" lon="-105.2274909">
  <ele>1583.01</ele>
  <time>2026-08-28T17:52:55Z</time>
  <course>318.83</course>
  <speed>4.671102653549802</speed>
  <fix>3d</fix>
</trkpt>
<trkpt lat="40.0717734" lon="-105.2274862">
  <ele>1583.0</ele>
  <time>2026-08-28T17:52:55Z</time>
  <course>319.14</course>
  <speed>4.74</speed>
  <fix>3d</fix>
</trkpt>
<trkpt lat="40.0717806" lon="-105.2274947">
  <ele>1583.01</ele>
  <time>2026-08-28T17:52:55Z</time>
  <course>317.47</course>
  <speed>4.611117001334926</speed>
  <fix>3d</fix>
</trkpt>
<trkpt lat="40.0717734" lon="-105.2274862">
  <ele>1583.0</ele>
  <time>2026-08-28T17:52:55Z</time>
  <course>319.14</course>
  <speed>4.74</speed>
  <fix>3d</fix>
</trkpt>
<trkpt lat="40.0717836" lon="-105.2274985">
  <ele>1583.01</ele>
  <time>2026-08-28T17:52:55Z</time>
  <course>316.07</course>
  <speed>4.553855509345899</speed>
  <fix>3d</fix>
</trkpt>
<trkpt lat="40.0717796" lon="-105.2274935">
  <ele>1583.0</ele>
  <time>2026-08-28T17:52:55Z</time>
  <course>316.44</course>
  <speed>4.62</speed>
  <fix>3d</fix>
</trkpt>
<trkpt lat="40.0717864" lon="-105.2275024">
  <ele>1583.01</ele>
  <time>2026-08-28T17:52:55Z</time>
  <course>314.66</course>
  <speed>4.485287058817975</speed>
  <fix>3d</fix>
</trkpt>
<trkpt lat="40.0717796" lon="-105.2274935">
  <ele>1583.0</ele>
  <time>2026-08-28T17:52:55Z</time>
  <course>316.44</course>
  <speed>4.62</speed>
  <fix>3d</fix>
</trkpt>
<trkpt lat="40.0717891" lon="-105.2275062">
  <ele>1583.01</ele>
  <time>2026-08-28T17:52:55Z</time>
  <course>313.23</course>
  <speed>4.419683246568695</speed>
  <fix>3d</fix>
</trkpt>
<trkpt lat="40.0717853" lon="-105.2275011">
  <ele>1583.0</ele>
  <time>2026-08-28T17:52:55Z</time>
  <course>313.64</course>
  <speed>4.49</speed>
  <fix>3d</fix>
</trkpt>
<trkpt lat="40.0717917" lon="-105.2275101">
  <ele>1583.01</ele>
  <time>2026-08-28T17:52:55Z</time>
  <course>311.76</course>
  <speed>4.349540205584954</speed>
  <fix>3d</fix>
</trkpt>
<trkpt lat="40.0717853" lon="-105.2275011">
  <ele>1583.0</ele>
  <time>2026-08-28T17:52:55Z</time>
  <course>313.64</course>
  <speed>4.49</speed>
  <fix>3d</fix>
</trkpt>
<trkpt lat="40.0717941" lon="-105.2275141">
  <ele>1583.01</ele>
  <time>2026-08-28T17:52:55Z</time>
  <course>310.26</course>
  <speed>4.290093239080009</speed>
  <fix>3d</fix>
</trkpt>
<trkpt lat="40.0717907" lon="-105.2275088">
  <ele>1583.0</ele>
  <time>2026-08-28T17:52:55Z</time>
  <course>310.74</course>
  <speed>4.36</speed>
  <fix>3d</fix>
</trkpt>
<trkpt lat="40.0717965" lon="-105.227518">
  <ele>1583.01</ele>
  <time>2026-08-28T17:52:55Z</time>
  <course>308.73</course>
  <speed>4.226038333948238</speed>
  <fix>3d</fix>
</trkpt>
<trkpt lat="40.0717907" lon="-105.2275088">
  <ele>1583.0</ele>
  <time>2026-08-28T17:52:55Z</time>
  <course>310.74</course>
  <speed>4.36</speed>
  <fix>3d</fix>
</trkpt>
<trkpt lat="40.0717987" lon="-105.227522">
  <ele>1583.02</ele>
  <time>2026-08-28T17:52:55Z</time>
  <course>307.19</course>
  <speed>4.165153058412139</speed>
  <fix>3d</fix>
</trkpt>
<trkpt lat="40.0717907" lon="-105.2275088">
  <ele>1583.0</ele>
  <time>2026-08-28T17:52:55Z</time>
  <course>310.74</course>
  <speed>4.36</speed>
  <fix>3d</fix>
</trkpt>
<trkpt lat="40.0718008" lon="-105.227526">
  <ele>1583.02</ele>
  <time>2026-08-28T17:52:55Z</time>
  <course>305.68</course>
  <speed>4.099280424659918</speed>
  <fix>3d</fix>
</trkpt>
<trkpt lat="40.0717956" lon="-105.2275166">
  <ele>1583.0</ele>
  <time>2026-08-28T17:52:55Z</time>
  <course>307.71</course>
  <speed>4.23</speed>
  <fix>3d</fix>
</trkpt>
<trkpt lat="40.0718028" lon="-105.22753">
  <ele>1583.02</ele>
  <time>2026-08-28T17:52:55Z</time>
  <course>304.21</course>
  <speed>4.064148127221743</speed>
  <fix>3d</fix>
</trkpt>
<trkpt lat="40.0717956" lon="-105.2275166">
  <ele>1583.0</ele>
  <time>2026-08-28T17:52:55Z</time>
  <course>307.71</course>
  <speed>4.23</speed>
  <fix>3d</fix>
</trkpt>
<trkpt lat="40.0718047" lon="-105.227534">
  <ele>1583.02</ele>
  <time>2026-08-28T17:52:55Z</time>
  <course>302.8</course>
  <speed>4.02851089113583</speed>
  <fix>3d</fix>
</trkpt>
<trkpt lat="40.0718001" lon="-105.2275246">
  <ele>1583.0</ele>
  <time>2026-08-28T17:52:55Z</time>
  <course>304.67</course>
  <speed>4.12</speed>
  <fix>3d</fix>
</trkpt>
<trkpt lat="40.0718065" lon="-105.227538">
  <ele>1583.02</ele>
  <time>2026-08-28T17:52:55Z</time>
  <course>301.47</course>
  <speed>4.008802813808631</speed>
  <fix>3d</fix>
</trkpt>
<trkpt lat="40.0718001" lon="-105.2275246">
  <ele>1583.0</ele>
  <time>2026-08-28T17:52:55Z</time>
  <course>304.67</course>
  <speed>4.12</speed>
  <fix>3d</fix>
</trkpt>
<trkpt lat="40.0718082" lon="-105.227542">
  <ele>1583.02</ele>
  <time>2026-08-28T17:52:55Z</time>
  <course>300.23</course>
  <speed>3.9960230229566998</speed>
  <fix>3d</fix>
</trkpt>
<trkpt lat="40.071804" lon="-105.2275325">
  <ele>1583.0</ele>
  <time>2026-08-28T17:52:55Z</time>
  <course>301.8</course>
  <speed>4.04</speed>
  <fix>3d</fix>
</trkpt>
<trkpt lat="40.0718099" lon="-105.2275461">
  <ele>1583.03</ele>
  <time>2026-08-28T17:52:55Z</time>
  <course>299.1</course>
  <speed>4.007393167634042</speed>
  <fix>3d</fix>
</trkpt>
<trkpt lat="40.071804" lon="-105.2275325">
  <ele>1583.0</ele>
  <time>2026-08-28T17:52:55Z</time>
  <course>301.8</course>
  <speed>4.04</speed>
  <fix>3d</fix>
</trkpt>
<trkpt lat="40.0718115" lon="-105.2275503">
  <ele>1583.03</ele>
  <time>2026-08-28T17:52:55Z</time>
  <course>298.06</course>
  <speed>4.029416831254865</speed>
  <fix>3d</fix>
</trkpt>
<trkpt lat="40.0718077" lon="-105.2275407">
  <ele>1583.0</ele>
  <time>2026-08-28T17:52:55Z</time>
  <course>299.24</course>
  <speed>4.02</speed>
  <fix>3d</fix>
</trkpt>
<trkpt lat="40.0718131" lon="-105.2275546">
  <ele>1583.03</ele>
  <time>2026-08-28T17:52:55Z</time>
  <course>297.01</course>
  <speed>4.070626487409524</speed>
  <fix>3d</fix>
</trkpt>
<trkpt lat="40.0718111" lon="-105.2275491">
  <ele>1583.0</ele>
  <time>2026-08-28T17:52:55Z</time>
  <course>297.01</course>
  <speed>4.06</speed>
  <fix>3d</fix>
</trkpt>
<trkpt lat="40.0718147" lon="-105.227559">
  <ele>1583.03</ele>
  <time>2026-08-28T17:52:55Z</time>
  <course>295.97</course>
  <speed>4.122341567604509</speed>
  <fix>3d</fix>
</trkpt>
<trkpt lat="40.0718111" lon="-105.2275491">
  <ele>1583.0</ele>
  <time>2026-08-28T17:52:55Z</time>
  <course>297.01</course>
  <speed>4.06</speed>
  <fix>3d</fix>
</trkpt>
<trkpt lat="40.0718162" lon="-105.2275634">
  <ele>1583.03</ele>
  <time>2026-08-28T17:52:55Z</time>
  <course>295.05</course>
  <speed>4.192624476387076</speed>
  <fix>3d</fix>
</trkpt>
<trkpt lat="40.0718143" lon="-105.2275577">
  <ele>1583.0</ele>
  <time>2026-08-28T17:52:55Z</time>
  <course>294.98</course>
  <speed>4.15</speed>
  <fix>3d</fix>
</trkpt>
<trkpt lat="40.0718177" lon="-105.227568">
  <ele>1583.03</ele>
  <time>2026-08-28T17:52:55Z</time>
  <course>294.2</course>
  <speed>4.276926466517749</speed>
  <fix>3d</fix>
</trkpt>
<trkpt lat="40.0718143" lon="-105.2275577">
  <ele>1583.0</ele>
  <time>2026-08-28T17:52:55Z</time>
  <course>294.98</course>
  <speed>4.15</speed>
  <fix>3d</fix>
</trkpt>
<trkpt lat="40.0718192" lon="-105.2275727">
  <ele>1583.03</ele>
  <time>2026-08-28T17:52:55Z</time>
  <course>293.42</course>
  <speed>4.361983493778948</speed>
  <fix>3d</fix>
</trkpt>
<trkpt lat="40.0718174" lon="-105.2275668">
  <ele>1583.0</ele>
  <time>2026-08-28T17:52:55Z</time>
  <course>293.16</course>
  <speed>4.3</speed>
  <fix>3d</fix>
</trkpt>
<trkpt lat="40.0718207" lon="-105.2275776">
  <ele>1583.03</ele>
  <time>2026-08-28T17:52:55Z</time>
  <course>292.69</course>
  <speed>4.447752241301218</speed>
  <fix>3d</fix>
</trkpt>
<trkpt lat="40.0718174" lon="-105.2275668">
  <ele>1583.0</ele>
  <time>2026-08-28T17:52:55Z</time>
  <course>293.16</course>
  <speed>4.3</speed>
  <fix>3d</fix>
</trkpt>
<trkpt lat="40.0718221" lon="-105.2275826">
  <ele>1583.03</ele>
  <time>2026-08-28T17:52:55Z</time>
  <course>292.02</course>
  <speed>4.547053991322294</speed>
  <fix>3d</fix>
</trkpt>
<trkpt lat="40.0718205" lon="-105.2275763">
  <ele>1583.0</ele>
  <time>2026-08-28T17:52:55Z</time>
  <course>291.64</course>
  <speed>4.47</speed>
  <fix>3d</fix>
</trkpt>
<trkpt lat="40.0718236" lon="-105.2275878">
  <ele>1583.03</ele>
  <time>2026-08-28T17:52:55Z</time>
  <course>291.4</course>
  <speed>4.646859154310576</speed>
  <fix>3d</fix>
</trkpt>
<trkpt lat="40.0718205" lon="-105.2275763">
  <ele>1583.0</ele>
  <time>2026-08-28T17:52:55Z</time>
  <course>291.64</course>
  <speed>4.47</speed>
  <fix>3d</fix>
</trkpt>
<trkpt lat="40.071825" lon="-105.227593">
  <ele>1583.03</ele>
  <time>2026-08-28T17:52:55Z</time>
  <course>290.83</course>
  <speed>4.737699863857988</speed>
  <fix>3d</fix>
</trkpt>
<trkpt lat="40.0718234" lon="-105.2275863">
  <ele>1583.0</ele>
  <time>2026-08-28T17:52:55Z</time>
  <course>290.34</course>
  <speed>4.66</speed>
  <fix>3d</fix>
</trkpt>
<trkpt lat="40.0718265" lon="-105.2275984">
  <ele>1583.03</ele>
  <time>2026-08-28T17:52:55Z</time>
  <course>290.3</course>
  <speed>4.828923275431077</speed>
  <fix>3d</fix>
</trkpt>
<trkpt lat="40.0718234" lon="-105.2275863">
  <ele>1583.0</ele>
  <time>2026-08-28T17:52:55Z</time>
  <course>290.34</course>
  <speed>4.66</speed>
  <fix>3d</fix>
</trkpt>
<trkpt lat="40.0718279" lon="-105.2276039">
  <ele>1583.03</ele>
  <time>2026-08-28T17:52:55Z</time>
  <course>289.82</course>
  <speed>4.911018224360403</speed>
  <fix>3d</fix>
</trkpt>
<trkpt lat="40.0718263" lon="-105.2275968">
  <ele>1583.0</ele>
  <time>2026-08-28T17:52:55Z</time>
  <course>289.23</course>
  <speed>4.84</speed>
  <fix>3d</fix>
</trkpt>
<trkpt lat="40.0718293" lon="-105.2276094">
  <ele>1583.03</ele>
  <time>2026-08-28T17:52:55Z</time>
  <course>289.36</course>
  <speed>4.980813186619229</speed>
  <fix>3d</fix>
</trkpt>
<trkpt lat="40.0718263" lon="-105.2275968">
  <ele>1583.0</ele>
  <time>2026-08-28T17:52:55Z</time>
  <course>289.23</course>
  <speed>4.84</speed>
  <fix>3d</fix>
</trkpt>
<trkpt lat="40.0718307" lon="-105.2276151">
  <ele>1583.03</ele>
  <time>2026-08-28T17:52:55Z</time>
  <course>288.96</course>
  <speed>5.03491807281906</speed>
  <fix>3d</fix>
</trkpt>
<trkpt lat="40.0718291" lon="-105.2276077">
  <ele>1583.0</ele>
  <time>2026-08-28T17:52:55Z</time>
  <course>288.29</course>
  <speed>4.98</speed>
  <fix>3d</fix>
</trkpt>
<trkpt lat="40.0718321" lon="-105.2276208">
  <ele>1583.03</ele>
  <time>2026-08-28T17:52:55Z</time>
  <course>288.55</course>
  <speed>5.0862166686054575</speed>
  <fix>3d</fix>
</trkpt>
<trkpt lat="40.0718291" lon="-105.2276077">
  <ele>1583.0</ele>
  <time>2026-08-28T17:52:55Z</time>
  <course>288.29</course>
  <speed>4.98</speed>
  <fix>3d</fix>
</trkpt>
<trkpt lat="40.0718335" lon="-105.2276266">
  <ele>1583.03</ele>
  <time>2026-08-28T17:52:55Z</time>
  <course>288.19</course>
  <speed>5.1311012463213</speed>
  <fix>3d</fix>
</trkpt>
<trkpt lat="40.0718291" lon="-105.2276077">
  <ele>1583.0</ele>
  <time>2026-08-28T17:52:55Z</time>
  <course>288.29</course>
  <speed>4.98</speed>
  <fix>3d</fix>
</trkpt>
<trkpt lat="40.0718349" lon="-105.2276324">
  <ele>1583.02</ele>
  <time>2026-08-28T17:52:55Z</time>
  <course>287.85</course>
  <speed>5.163661491616197</speed>
  <fix>3d</fix>
</trkpt>
<trkpt lat="40.0718319" lon="-105.2276191">
  <ele>1583.0</ele>
  <time>2026-08-28T17:52:55Z</time>
  <course>287.47</course>
  <speed>5.09</speed>
  <fix>3d</fix>
</trkpt>
<trkpt lat="40.0718362" lon="-105.2276382">
  <ele>1583.02</ele>
  <time>2026-08-28T17:52:55Z</time>
  <course>287.5</course>
  <speed>5.184013888870283</speed>
  <fix>3d</fix>
</trkpt>
<trkpt lat="40.0718319" lon="-105.2276191">
  <ele>1583.0</ele>
  <time>2026-08-28T17:52:55Z</time>
  <course>287.47</course>
  <speed>5.09</speed>
  <fix>3d</fix>
</trkpt>
<trkpt lat="40.0718375" lon="-105.227644">
  <ele>1583.02</ele>
  <time>2026-08-28T17:52:55Z</time>
  <course>287.14</course>
  <speed>5.197730273879167</speed>
  <fix>3d</fix>
</trkpt>
<trkpt lat="40.0718346" lon="-105.2276306">
  <ele>1583.0</ele>
  <time>2026-08-28T17:52:55Z</time>
  <course>286.73</course>
  <speed>5.17</speed>
  <fix>3d</fix>
</trkpt>
<trkpt lat="40.0718388" lon="-105.2276499">
  <ele>1583.02</ele>
  <time>2026-08-28T17:52:55Z</time>
  <course>286.86</course>
  <speed>5.211564064654678</speed>
  <fix>3d</fix>
</trkpt>
<trkpt lat="40.0718346" lon="-105.2276306">
  <ele>1583.0</ele>
  <time>2026-08-28T17:52:55Z</time>
  <course>286.73</course>
  <speed>5.17</speed>
  <fix>3d</fix>
</trkpt>
<trkpt lat="40.07184" lon="-105.2276558">
  <ele>1583.02</ele>
  <time>2026-08-28T17:52:55Z</time>
  <course>286.58</course>
  <speed>5.215870013717749</speed>
  <fix>3d</fix>
</trkpt>
<trkpt lat="40.0718373" lon="-105.2276423">
  <ele>1583.0</ele>
  <time>2026-08-28T17:52:55Z</time>
  <course>286.06</course>
  <speed>5.21</speed>
  <fix>3d</fix>
</trkpt>
<trkpt lat="40.0718413" lon="-105.2276617">
  <ele>1583.02</ele>
  <time>2026-08-28T17:52:55Z</time>
  <course>286.29</course>
  <speed>5.20801305681927</speed>
  <fix>3d</fix>
</trkpt>
<trkpt lat="40.0718398" lon="-105.2276541">
  <ele>1583.0</ele>
  <time>2026-08-28T17:52:55Z</time>
  <course>285.46</course>
  <speed>5.23</speed>
  <fix>3d</fix>
</trkpt>
<trkpt lat="40.0718425" lon="-105.2276676">
  <ele>1583.02</ele>
  <time>2026-08-28T17:52:55Z</time>
  <course>286.01</course>
  <speed>5.2028645955857815</speed>
  <fix>3d</fix>
</trkpt>
<trkpt lat="40.0718398" lon="-105.2276541">
  <ele>1583.0</ele>
  <time>2026-08-28T17:52:55Z</time>
  <course>285.46</course>
  <speed>5.23</speed>
  <fix>3d</fix>
</trkpt>
<trkpt lat="40.0718437" lon="-105.2276735">
  <ele>1583.02</ele>
  <time>2026-08-28T17:52:55Z</time>
  <course>285.73</course>
  <speed>5.195276701004481</speed>
  <fix>3d</fix>
</trkpt>
<trkpt lat="40.0718423" lon="-105.227666">
  <ele>1583.0</ele>
  <time>2026-08-28T17:52:55Z</time>
  <course>284.9</course>
  <speed>5.23</speed>
  <fix>3d</fix>
</trkpt>
<trkpt lat="40.0718448" lon="-105.2276795">
  <ele>1583.02</ele>
  <time>2026-08-28T17:52:55Z</time>
  <course>285.49</course>
  <speed>5.190308276008276</speed>
  <fix>3d</fix>
</trkpt>
<trkpt lat="40.0718423" lon="-105.227666">
  <ele>1583.0</ele>
  <time>2026-08-28T17:52:55Z</time>
  <course>284.9</course>
  <speed>5.23</speed>
  <fix>3d</fix>
</trkpt>
<trkpt lat="40.071846" lon="-105.2276854">
  <ele>1583.02</ele>
  <time>2026-08-28T17:52:55Z</time>
  <course>285.25</course>
  <speed>5.173287156151299</speed>
  <fix>3d</fix>
</trkpt>
<trkpt lat="40.0718446" lon="-105.2276778">
  <ele>1583.0</ele>
  <time>2026-08-28T17:52:55Z</time>
  <course>284.37</course>
  <speed>5.21</speed>
  <fix>3d</fix>
</trkpt>
<trkpt lat="40.0718471" lon="-105.2276913">
  <ele>1583.01</ele>
  <time>2026-08-28T17:52:55Z</time>
  <course>285.04</course>
  <speed>5.158778925288425</speed>
  <fix>3d</fix>
</trkpt>
<trkpt lat="40.0718446" lon="-105.2276778">
  <ele>1583.0</ele>
  <time>2026-08-28T17:52:55Z</time>
  <course>284.37</course>
  <speed>5.21</speed>
  <fix>3d</fix>
</trkpt>
<trkpt lat="40.0718483" lon="-105.2276973">
  <ele>1583.01</ele>
  <time>2026-08-28T17:52:55Z</time>
  <course>284.83</course>
  <speed>5.144326972500874</speed>
  <fix>3d</fix>
</trkpt>
<trkpt lat="40.0718469" lon="-105.2276897">
  <ele>1583.0</ele>
  <time>2026-08-28T17:52:55Z</time>
  <course>283.92</course>
  <speed>5.19</speed>
  <fix>3d</fix>
</trkpt>
<trkpt lat="40.0718494" lon="-105.2277032">
  <ele>1583.01</ele>
  <time>2026-08-28T17:52:55Z</time>
  <course>284.62</course>
  <speed>5.129931773425452</speed>
  <fix>3d</fix>
</trkpt>
<trkpt lat="40.0718469" lon="-105.2276897">
  <ele>1583.0</ele>
  <time>2026-08-28T17:52:55Z</time>
  <course>283.92</course>
  <speed>5.19</speed>
  <fix>3d</fix>
</trkpt>
<trkpt lat="40.0718504" lon="-105.2277091">
  <ele>1583.01</ele>
  <time>2026-08-28T17:52:55Z</time>
  <course>284.41</course>
  <speed>5.115593807174295</speed>
  <fix>3d</fix>
</trkpt>
<trkpt lat="40.0718492" lon="-105.2277015">
  <ele>1583.0</ele>
  <time>2026-08-28T17:52:55Z</time>
  <course>283.5</course>
  <speed>5.16</speed>
  <fix>3d</fix>
</trkpt>
<trkpt lat="40.0718515" lon="-105.2277151">
  <ele>1583.01</ele>
  <time>2026-08-28T17:52:55Z</time>
  <course>284.2</course>
  <speed>5.1013135563303695</speed>
  <fix>3d</fix>
</trkpt>
<trkpt lat="40.0718492" lon="-105.2277015">
  <ele>1583.0</ele>
  <time>2026-08-28T17:52:55Z</time>
  <course>283.5</course>
  <speed>5.16</speed>
  <fix>3d</fix>
</trkpt>
<trkpt lat="40.0718525" lon="-105.2277209">
  <ele>1583.01</ele>
  <time>2026-08-28T17:52:55Z</time>
  <course>284.0</course>
  <speed>5.084879546262625</speed>
  <fix>3d</fix>
</trkpt>
<trkpt lat="40.0718513" lon="-105.2277133">
  <ele>1583.0</ele>
  <time>2026-08-28T17:52:55Z</time>
  <course>283.08</course>
  <speed>5.13</speed>
  <fix>3d</fix>
</trkpt>
<trkpt lat="40.0718536" lon="-105.2277268">
  <ele>1583.01</ele>
  <time>2026-08-28T17:52:55Z</time>
  <course>283.79</course>
  <speed>5.060988045826624</speed>
  <fix>3d</fix>
</trkpt>
<trkpt lat="40.0718513" lon="-105.2277133">
  <ele>1583.0</ele>
  <time>2026-08-28T17:52:55Z</time>
  <course>283.08</course>
  <speed>5.13</speed>
  <fix>3d</fix>
</trkpt>
<trkpt lat="40.0718546" lon="-105.2277326">
  <ele>1583.01</ele>
  <time>2026-08-28T17:52:55Z</time>
  <course>283.58</course>
  <speed>5.046909945699447</speed>
  <fix>3d</fix>
</trkpt>
<trkpt lat="40.0718533" lon="-105.2277249">
  <ele>1583.0</ele>
  <time>2026-08-28T17:52:55Z</time>
  <course>282.66</course>
  <speed>5.09</speed>
  <fix>3d</fix>
</trkpt>
<trkpt lat="40.0718555" lon="-105.2277385">
  <ele>1583.01</ele>
  <time>2026-08-28T17:52:55Z</time>
  <course>283.38</course>
  <speed>5.032891812864648</speed>
  <fix>3d</fix>
</trkpt>
<trkpt lat="40.0718533" lon="-105.2277249">
  <ele>1583.0</ele>
  <time>2026-08-28T17:52:55Z</time>
  <course>282.66</course>
  <speed>5.09</speed>
  <fix>3d</fix>
</trkpt>
<trkpt lat="40.0718565" lon="-105.2277443">
  <ele>1583.01</ele>
  <time>2026-08-28T17:52:55Z</time>
  <course>283.17</course>
  <speed>5.018934149797146</speed>
  <fix>3d</fix>
</trkpt>
<trkpt lat="40.0718533" lon="-105.2277249">
  <ele>1583.0</ele>
  <time>2026-08-28T17:52:55Z</time>
  <course>282.66</course>
  <speed>5.09</speed>
  <fix>3d</fix>
</trkpt>
<trkpt lat="40.0718574" lon="-105.2277501">
  <ele>1583.01</ele>
  <time>2026-08-28T17:52:55Z</time>
  <course>282.98</course>
  <speed>5.007084980305407</speed>
  <fix>3d</fix>
</trkpt>
<trkpt lat="40.0718552" lon="-105.2277366">
  <ele>1583.0</ele>
  <time>2026-08-28T17:52:55Z</time>
  <course>282.25</course>
  <speed>5.07</speed>
  <fix>3d</fix>
</trkpt>
<trkpt lat="40.0718583" lon="-105.2277558">
  <ele>1583.01</ele>
  <time>2026-08-28T17:52:55Z</time>
  <course>282.8</course>
  <speed>4.993215396916099</speed>
  <fix>3d</fix>
</trkpt>
<trkpt lat="40.0718552" lon="-105.2277366">
  <ele>1583.0</ele>
  <time>2026-08-28T17:52:55Z</time>
  <course>282.25</course>
  <speed>5.07</speed>
  <fix>3d</fix>
</trkpt>
<trkpt lat="40.0718592" lon="-105.2277615">
  <ele>1583.01</ele>
  <time>2026-08-28T17:52:55Z</time>
  <course>282.67</course>
  <speed>4.991202259977049</speed>
  <fix>3d</fix>
</trkpt>
<trkpt lat="40.0718572" lon="-105.2277483">
  <ele>1583.0</ele>
  <time>2026-08-28T17:52:55Z</time>
  <course>281.86</course>
  <speed>5.04</speed>
  <fix>3d</fix>
</trkpt>
<trkpt lat="40.0718601" lon="-105.2277672">
  <ele>1583.02</ele>
  <time>2026-08-28T17:52:55Z</time>
  <course>282.52</course>
  <speed>4.977429055245288</speed>
  <fix>3d</fix>
</trkpt>
<trkpt lat="40.0718572" lon="-105.2277483">
  <ele>1583.0</ele>
  <time>2026-08-28T17:52:55Z</time>
  <course>281.86</course>
  <speed>5.04</speed>
  <fix>3d</fix>
</trkpt>
<trkpt lat="40.071861" lon="-105.2277729">
  <ele>1583.02</ele>
  <time>2026-08-28T17:52:55Z</time>
  <course>282.39</course>
  <speed>4.965662090799172</speed>
  <fix>3d</fix>
</trkpt>
<trkpt lat="40.0718591" lon="-105.2277599">
  <ele>1583.0</ele>
  <time>2026-08-28T17:52:55Z</time>
  <course>281.53</course>
  <speed>5.02</speed>
  <fix>3d</fix>
</trkpt>
<trkpt lat="40.0718619" lon="-105.2277786">
  <ele>1583.02</ele>
  <time>2026-08-28T17:52:55Z</time>
  <course>282.22</course>
  <speed>4.9637183642910285</speed>
  <fix>3d</fix>
</trkpt>
<trkpt lat="40.0718591" lon="-105.2277599">
  <ele>1583.0</ele>
  <time>2026-08-28T17:52:55Z</time>
  <course>281.53</course>
  <speed>5.02</speed>
  <fix>3d</fix>
</trkpt>
<trkpt lat="40.0718627" lon="-105.2277844">
  <ele>1583.02</ele>
  <time>2026-08-28T17:52:55Z</time>
  <course>281.95</course>
  <speed>4.958003630494838</speed>
  <fix>3d</fix>
</trkpt>
<trkpt lat="40.0718608" lon="-105.2277714">
  <ele>1583.0</ele>
  <time>2026-08-28T17:52:55Z</time>
  <course>281.24</course>
  <speed>5.01</speed>
  <fix>3d</fix>
</trkpt>
<trkpt lat="40.0718636" lon="-105.2277901">
  <ele>1583.02</ele>
  <time>2026-08-28T17:52:55Z</time>
  <course>281.57</course>
  <speed>4.952464033185905</speed>
  <fix>3d</fix>
</trkpt>
<trkpt lat="40.0718625" lon="-105.2277829">
  <ele>1583.0</ele>
  <time>2026-08-28T17:52:55Z</time>
  <course>280.76</course>
  <speed>5.0</speed>
  <fix>3d</fix>
</trkpt>
<trkpt lat="40.0718644" lon="-105.2277958">
  <ele>1583.02</ele>
  <time>2026-08-28T17:52:55Z</time>
  <course>281.09</course>
  <speed>4.95519928963508</speed>
  <fix>3d</fix>
</trkpt>
<trkpt lat="40.0718625" lon="-105.2277829">
  <ele>1583.0</ele>
  <time>2026-08-28T17:52:55Z</time>
  <course>280.76</course>
  <speed>5.0</speed>
  <fix>3d</fix>
</trkpt>
<trkpt lat="40.0718651" lon="-105.2278016">
  <ele>1583.02</ele>
  <time>2026-08-28T17:52:55Z</time>
  <course>280.55</course>
  <speed>4.956631920972144</speed>
  <fix>3d</fix>
</trkpt>
<trkpt lat="40.0718641" lon="-105.2277945">
  <ele>1583.0</ele>
  <time>2026-08-28T17:52:55Z</time>
  <course>279.92</course>
  <speed>5.0</speed>
  <fix>3d</fix>
</trkpt>
<trkpt lat="40.0718658" lon="-105.2278074">
  <ele>1583.02</ele>
  <time>2026-08-28T17:52:55Z</time>
  <course>280.02</course>
  <speed>4.960131046655925</speed>
  <fix>3d</fix>
</trkpt>
<trkpt lat="40.0718641" lon="-105.2277945">
  <ele>1583.0</ele>
  <time>2026-08-28T17:52:55Z</time>
  <course>279.92</course>
  <speed>5.0</speed>
  <fix>3d</fix>
</trkpt>
<trkpt lat="40.0718665" lon="-105.2278132">
  <ele>1583.02</ele>
  <time>2026-08-28T17:52:55Z</time>
  <course>279.54</course>
  <speed>4.963970185244872</speed>
  <fix>3d</fix>
</trkpt>
<trkpt lat="40.0718656" lon="-105.2278061">
  <ele>1583.0</ele>
  <time>2026-08-28T17:52:55Z</time>
  <course>278.91</course>
  <speed>5.01</speed>
  <fix>3d</fix>
</trkpt>
<trkpt lat="40.0718671" lon="-105.2278191">
  <ele>1583.02</ele>
  <time>2026-08-28T17:52:55Z</time>
  <course>279.07</course>
  <speed>4.95824565748814</speed>
  <fix>3d</fix>
</trkpt>
<trkpt lat="40.0718656" lon="-105.2278061">
  <ele>1583.0</ele>
  <time>2026-08-28T17:52:55Z</time>
  <course>278.91</course>
  <speed>5.01</speed>
  <fix>3d</fix>
</trkpt>
<trkpt lat="40.0718677" lon="-105.227825">
  <ele>1583.02</ele>
  <time>2026-08-28T17:52:55Z</time>
  <course>278.66</course>
  <speed>4.964070910049533</speed>
  <fix>3d</fix>
</trkpt>
<trkpt lat="40.0718669" lon="-105.2278178">
  <ele>1583.0</ele>
  <time>2026-08-28T17:52:55Z</time>
  <course>277.98</course>
  <speed>5.01</speed>
  <fix>3d</fix>
</trkpt>
<trkpt lat="40.0718683" lon="-105.2278309">
  <ele>1583.01</ele>
  <time>2026-08-28T17:52:55Z</time>
  <course>278.25</course>
  <speed>4.968832860944309</speed>
  <fix>3d</fix>
</trkpt>
<trkpt lat="40.0718669" lon="-105.2278178">
  <ele>1583.0</ele>
  <time>2026-08-28T17:52:55Z</time>
  <course>277.98</course>
  <speed>5.01</speed>
  <fix>3d</fix>
</trkpt>
<trkpt lat="40.0718689" lon="-105.2278367">
  <ele>1583.01</ele>
  <time>2026-08-28T17:52:55Z</time>
  <course>277.89</course>
  <speed>4.975108039027896</speed>
  <fix>3d</fix>
</trkpt>
<trkpt lat="40.0718681" lon="-105.2278294">
  <ele>1583.0</ele>
  <time>2026-08-28T17:52:55Z</time>
  <course>277.16</course>
  <speed>5.01</speed>
  <fix>3d</fix>
</trkpt>
<trkpt lat="40.0718694" lon="-105.2278426">
  <ele>1583.01</ele>
  <time>2026-08-28T17:52:55Z</time>
  <course>277.55</course>
  <speed>4.981576055828115</speed>
  <fix>3d</fix>
</trkpt>
<trkpt lat="40.0718681" lon="-105.2278294">
  <ele>1583.0</ele>
  <time>2026-08-28T17:52:55Z</time>
  <course>277.16</course>
  <speed>5.01</speed>
  <fix>3d</fix>
</trkpt>
<trkpt lat="40.0718699" lon="-105.2278485">
  <ele>1583.02</ele>
  <time>2026-08-28T17:52:55Z</time>
  <course>277.21</course>
  <speed>4.978292880094541</speed>
  <fix>3d</fix>
</trkpt>
<trkpt lat="40.0718691" lon="-105.2278411">
  <ele>1583.0</ele>
  <time>2026-08-28T17:52:55Z</time>
  <course>276.44</course>
  <speed>5.02</speed>
  <fix>3d</fix>
</trkpt>
<trkpt lat="40.0718703" lon="-105.2278544">
  <ele>1583.02</ele>
  <time>2026-08-28T17:52:55Z</time>
  <course>276.93</course>
  <speed>4.986150820021392</speed>
  <fix>3d</fix>
</trkpt>
<trkpt lat="40.0718691" lon="-105.2278411">
  <ele>1583.0</ele>
  <time>2026-08-28T17:52:55Z</time>
  <course>276.44</course>
  <speed>5.02</speed>
  <fix>3d</fix>
</trkpt>
<trkpt lat="40.0718708" lon="-105.2278603">
  <ele>1583.02</ele>
  <time>2026-08-28T17:52:55Z</time>
  <course>276.66</course>
  <speed>4.984144861458182</speed>
  <fix>3d</fix>
</trkpt>
<trkpt lat="40.0718701" lon="-105.2278528">
  <ele>1583.0</ele>
  <time>2026-08-28T17:52:55Z</time>
  <course>275.83</course>
  <speed>5.02</speed>
  <fix>3d</fix>
</trkpt>
<trkpt lat="40.0718712" lon="-105.2278662">
  <ele>1583.02</ele>
  <time>2026-08-28T17:52:55Z</time>
  <course>276.38</course>
  <speed>4.991242330322181</speed>
  <fix>3d</fix>
</trkpt>
<trkpt lat="40.0718701" lon="-105.2278528">
  <ele>1583.0</ele>
  <time>2026-08-28T17:52:55Z</time>
  <course>275.83</course>
  <speed>5.02</speed>
  <fix>3d</fix>
</trkpt>
<trkpt lat="40.0718716" lon="-105.2278721">
  <ele>1583.02</ele>
  <time>2026-08-28T17:52:55Z</time>
  <course>276.14</course>
  <speed>4.989438846203047</speed>
  <fix>3d</fix>
</trkpt>
<trkpt lat="40.0718701" lon="-105.2278528">
  <ele>1583.0</ele>
  <time>2026-08-28T17:52:55Z</time>
  <course>275.83</course>
  <speed>5.02</speed>
  <fix>3d</fix>
</trkpt>
<trkpt lat="40.071872" lon="-105.227878">
  <ele>1583.02</ele>
  <time>2026-08-28T17:52:55Z</time>
  <course>275.93</course>
  <speed>4.988566928487579</speed>
  <fix>3d</fix>
</trkpt>
<trkpt lat="40.071871" lon="-105.2278646">
  <ele>1583.0</ele>
  <time>2026-08-28T17:52:55Z</time>
  <course>275.29</course>
  <speed>5.02</speed>
  <fix>3d</fix>
</trkpt>
<trkpt lat="40.0718723" lon="-105.2278838">
  <ele>1583.02</ele>
  <time>2026-08-28T17:52:55Z</time>
  <course>275.73</course>
  <speed>4.986882793890388</speed>
  <fix>3d</fix>
</trkpt>
<trkpt lat="40.071871" lon="-105.2278646">
  <ele>1583.0</ele>
  <time>2026-08-28T17:52:55Z</time>
  <course>275.29</course>
  <speed>5.02</speed>
  <fix>3d</fix>
</trkpt>
<trkpt lat="40.0718727" lon="-105.2278897">
  <ele>1583.02</ele>
  <time>2026-08-28T17:52:55Z</time>
  <course>275.53</course>
  <speed>4.9852783272351004</speed>
  <fix>3d</fix>
</trkpt>
<trkpt lat="40.0718718" lon="-105.2278763">
  <ele>1583.0</ele>
  <time>2026-08-28T17:52:55Z</time>
  <course>274.83</course>
  <speed>5.02</speed>
  <fix>3d</fix>
</trkpt>
<trkpt lat="40.071873" lon="-105.2278955">
  <ele>1583.02</ele>
  <time>2026-08-28T17:52:55Z</time>
  <course>275.33</course>
  <speed>4.9944769495914185</speed>
  <fix>3d</fix>
</trkpt>
<trkpt lat="40.0718718" lon="-105.2278763">
  <ele>1583.0</ele>
  <time>2026-08-28T17:52:55Z</time>
  <course>274.83</course>
  <speed>5.02</speed>
  <fix>3d</fix>
</trkpt>
<trkpt lat="40.0718733" lon="-105.2279013">
  <ele>1583.02</ele>
  <time>2026-08-28T17:52:55Z</time>
  <course>275.05</course>
  <speed>4.992284046406014</speed>
  <fix>3d</fix>
</trkpt>
<trkpt lat="40.0718725" lon="-105.2278881">
  <ele>1583.0</ele>
  <time>2026-08-28T17:52:55Z</time>
  <course>274.42</course>
  <speed>5.03</speed>
  <fix>3d</fix>
</trkpt>
<trkpt lat="40.0718736" lon="-105.2279072">
  <ele>1583.03</ele>
  <time>2026-08-28T17:52:55Z</time>
  <course>274.66</course>
  <speed>4.990270533748646</speed>
  <fix>3d</fix>
</trkpt>
<trkpt lat="40.0718732" lon="-105.2278999">
  <ele>1583.0</ele>
  <time>2026-08-28T17:52:55Z</time>
  <course>273.88</course>
  <speed>5.03</speed>
  <fix>3d</fix>
</trkpt>
<trkpt lat="40.0718739" lon="-105.2279131">
  <ele>1583.02</ele>
  <time>2026-08-28T17:52:55Z</time>
  <course>274.16</course>
  <speed>4.997299270606074</speed>
  <fix>3d</fix>
</trkpt>
<trkpt lat="40.0718732" lon="-105.2278999">
  <ele>1583.0</ele>
  <time>2026-08-28T17:52:55Z</time>
  <course>273.88</course>
  <speed>5.03</speed>
  <fix>3d</fix>
</trkpt>
<trkpt lat="40.0718741" lon="-105.227919">
  <ele>1583.02</ele>
  <time>2026-08-28T17:52:55Z</time>
  <course>273.6</course>
  <speed>4.9948473450146595</speed>
  <fix>3d</fix>
</trkpt>
<trkpt lat="40.0718738" lon="-105.2279117">
  <ele>1583.0</ele>
  <time>2026-08-28T17:52:55Z</time>
  <course>273.01</course>
  <speed>5.03</speed>
  <fix>3d</fix>
</trkpt>
<trkpt lat="40.0718743" lon="-105.2279249">
  <ele>1583.02</ele>
  <time>2026-08-28T17:52:55Z</time>
  <course>273.07</course>
  <speed>4.993245437588663</speed>
  <fix>3d</fix>
</trkpt>
<trkpt lat="40.0718738" lon="-105.2279117">
  <ele>1583.0</ele>
  <time>2026-08-28T17:52:55Z</time>
  <course>273.01</course>
  <speed>5.03</speed>
  <fix>3d</fix>
</trkpt>
<trkpt lat="40.0718744" lon="-105.2279308">
  <ele>1583.02</ele>
  <time>2026-08-28T17:52:55Z</time>
  <course>272.59</course>
  <speed>5.0019596159905175</speed>
  <fix>3d</fix>
</trkpt>
<trkpt lat="40.0718741" lon="-105.2279236">
  <ele>1583.0</ele>
  <time>2026-08-28T17:52:55Z</time>
  <course>271.98</course>
  <speed>5.04</speed>
  <fix>3d</fix>
</trkpt>
<trkpt lat="40.0718745" lon="-105.2279368">
  <ele>1583.02</ele>
  <time>2026-08-28T17:52:55Z</time>
  <course>272.12</course>
  <speed>5.000999900019995</speed>
  <fix>3d</fix>
</trkpt>
<trkpt lat="40.0718741" lon="-105.2279236">
  <ele>1583.0</ele>
  <time>2026-08-28T17:52:55Z</time>
  <course>271.98</course>
  <speed>5.04</speed>
  <fix>3d</fix>
</trkpt>
<trkpt lat="40.0718746" lon="-105.2279427">
  <ele>1583.03</ele>
  <time>2026-08-28T17:52:55Z</time>
  <course>271.71</course>
  <speed>5.000359987040933</speed>
  <fix>3d</fix>
</trkpt>
<trkpt lat="40.0718744" lon="-105.2279354">
  <ele>1583.0</ele>
  <time>2026-08-28T17:52:55Z</time>
  <course>271.03</course>
  <speed>5.04</speed>
  <fix>3d</fix>
</trkpt>
<trkpt lat="40.0718746" lon="-105.2279487">
  <ele>1583.03</ele>
  <time>2026-08-28T17:52:55Z</time>
  <course>271.29</course>
  <speed>5.000039999840001</speed>
  <fix>3d</fix>
</trkpt>
<trkpt lat="40.0718744" lon="-105.2279354">
  <ele>1583.0</ele>
  <time>2026-08-28T17:52:55Z</time>
  <course>271.03</course>
  <speed>5.04</speed>
  <fix>3d</fix>
</trkpt>
<trkpt lat="40.0718746" lon="-105.2279547">
  <ele>1583.03</ele>
  <time>2026-08-28T17:52:55Z</time>
  <course>270.95</course>
  <speed>5.01</speed>
  <fix>3d</fix>
</trkpt>
<trkpt lat="40.0718745" lon="-105.2279471">
  <ele>1583.0</ele>
  <time>2026-08-28T17:52:55Z</time>
  <course>270.22</course>
  <speed>5.04</speed>
  <fix>3d</fix>
</trkpt>
<trkpt lat="40.0718745" lon="-105.2279607">
  <ele>1583.03</ele>
  <time>2026-08-28T17:52:55Z</time>
  <course>270.61</course>
  <speed>5.010089819554136</speed>
  <fix>3d</fix>
</trkpt>
<trkpt lat="40.0718745" lon="-105.2279471">
  <ele>1583.0</ele>
  <time>2026-08-28T17:52:55Z</time>
  <course>270.22</course>
  <speed>5.04</speed>
  <fix>3d</fix>
</trkpt>
<trkpt lat="40.0718745" lon="-105.2279666">
  <ele>1583.03</ele>
  <time>2026-08-28T17:52:55Z</time>
  <course>270.31</course>
  <speed>5.000249993750312</speed>
  <fix>3d</fix>
</trkpt>
<trkpt lat="40.0718745" lon="-105.227959">
  <ele>1583.0</ele>
  <time>2026-08-28T17:52:55Z</time>
  <course>269.52</course>
  <speed>5.03</speed>
  <fix>3d</fix>
</trkpt>
<trkpt lat="40.0718745" lon="-105.2279726">
  <ele>1583.03</ele>
  <time>2026-08-28T17:52:55Z</time>
  <course>270.03</course>
  <speed>5.000639959045242</speed>
  <fix>3d</fix>
</trkpt>
<trkpt lat="40.0718745" lon="-105.227959">
  <ele>1583.0</ele>
  <time>2026-08-28T17:52:55Z</time>
  <course>269.52</course>
  <speed>5.03</speed>
  <fix>3d</fix>
</trkpt>
<trkpt lat="40.0718744" lon="-105.2279785">
  <ele>1583.04</ele>
  <time>2026-08-28T17:52:55Z</time>
  <course>269.76</course>
  <speed>5.000999900019995</speed>
  <fix>3d</fix>
</trkpt>
<trkpt lat="40.0718744" lon="-105.2279709">
  <ele>1583.0</ele>
  <time>2026-08-28T17:52:55Z</time>
  <course>268.93</course>
  <speed>5.03</speed>
  <fix>3d</fix>
</trkpt>
<trkpt lat="40.0718743" lon="-105.2279844">
  <ele>1583.04</ele>
  <time>2026-08-28T17:52:55Z</time>
  <course>269.5</course>
  <speed>5.001439792699698</speed>
  <fix>3d</fix>
</trkpt>
<trkpt lat="40.0718744" lon="-105.2279709">
  <ele>1583.0</ele>
  <time>2026-08-28T17:52:55Z</time>
  <course>268.93</course>
  <speed>5.03</speed>
  <fix>3d</fix>
</trkpt>
<trkpt lat="40.0718742" lon="-105.2279904">
  <ele>1583.04</ele>
  <time>2026-08-28T17:52:55Z</time>
  <course>269.3</course>
  <speed>5.0019596159905175</speed>
  <fix>3d</fix>
</trkpt>
<trkpt lat="40.0718744" lon="-105.2279709">
  <ele>1583.0</ele>
  <time>2026-08-28T17:52:55Z</time>
  <course>268.93</course>
  <speed>5.03</speed>
  <fix>3d</fix>
</trkpt>
<trkpt lat="40.071874" lon="-105.2279962">
  <ele>1583.04</ele>
  <time>2026-08-28T17:52:55Z</time>
  <course>269.09</course>
  <speed>5.00255934497533</speed>
  <fix>3d</fix>
</trkpt>
<trkpt lat="40.0718742" lon="-105.2279826">
  <ele>1583.0</ele>
  <time>2026-08-28T17:52:55Z</time>
  <course>268.42</course>
  <speed>5.03</speed>
  <fix>3d</fix>
</trkpt>
<trkpt lat="40.0718739" lon="-105.2280021">
  <ele>1583.04</ele>
  <time>2026-08-28T17:52:55Z</time>
  <course>268.89</course>
  <speed>4.992894951829049</speed>
  <fix>3d</fix>
</trkpt>
<trkpt lat="40.0718742" lon="-105.2279826">
  <ele>1583.0</ele>
  <time>2026-08-28T17:52:55Z</time>
  <course>268.42</course>
  <speed>5.03</speed>
  <fix>3d</fix>
</trkpt>
<trkpt lat="40.0718737" lon="-105.2280079">
  <ele>1583.04</ele>
  <time>2026-08-28T17:52:55Z</time>
  <course>268.69</course>
  <speed>4.99361592435782</speed>
  <fix>3d</fix>
</trkpt>
<trkpt lat="40.0718739" lon="-105.2279945">
  <ele>1583.0</ele>
  <time>2026-08-28T17:52:55Z</time>
  <course>267.99</course>
  <speed>5.02</speed>
  <fix>3d</fix>
</trkpt>
<trkpt lat="40.0718735" lon="-105.2280138">
  <ele>1583.04</ele>
  <time>2026-08-28T17:52:55Z</time>
  <course>268.5</course>
  <speed>4.994416882880323</speed>
  <fix>3d</fix>
</trkpt>
<trkpt lat="40.0718739" lon="-105.2279945">
  <ele>1583.0</ele>
  <time>2026-08-28T17:52:55Z</time>
  <course>267.99</course>
  <speed>5.02</speed>
  <fix>3d</fix>
</trkpt>
<trkpt lat="40.0718733" lon="-105.2280196">
  <ele>1583.04</ele>
  <time>2026-08-28T17:52:55Z</time>
  <course>268.3</course>
  <speed>4.984857069164572</speed>
  <fix>3d</fix>
</trkpt>
<trkpt lat="40.0718736" lon="-105.2280063">
  <ele>1583.0</ele>
  <time>2026-08-28T17:52:55Z</time>
  <course>267.58</course>
  <speed>5.02</speed>
  <fix>3d</fix>
</trkpt>
<trkpt lat="40.071873" lon="-105.2280254">
  <ele>1583.04</ele>
  <time>2026-08-28T17:52:55Z</time>
  <course>268.15</course>
  <speed>4.9857797785301345</speed>
  <fix>3d</fix>
</trkpt>
<trkpt lat="40.0718736" lon="-105.2280063">
  <ele>1583.0</ele>
  <time>2026-08-28T17:52:55Z</time>
  <course>267.58</course>
  <speed>5.02</speed>
  <fix>3d</fix>
</trkpt>
<trkpt lat="40.0718728" lon="-105.2280313">
  <ele>1583.04</ele>
  <time>2026-08-28T17:52:55Z</time>
  <course>268.02</course>
  <speed>4.98627115187291</speed>
  <fix>3d</fix>
</trkpt>
<trkpt lat="40.0718732" lon="-105.228018">
  <ele>1583.0</ele>
  <time>2026-08-28T17:52:55Z</time>
  <course>267.21</course>
  <speed>5.02</speed>
  <fix>3d</fix>
</trkpt>
<trkpt lat="40.0718726" lon="-105.2280371">
  <ele>1583.04</ele>
  <time>2026-08-28T17:52:55Z</time>
  <course>267.88</course>
  <speed>4.986782529848279</speed>
  <fix>3d</fix>
</trkpt>
<trkpt lat="40.0718727" lon="-105.2280299">
  <ele>1583.0</ele>
  <time>2026-08-28T17:52:55Z</time>
  <course>266.9</course>
  <speed>5.02</speed>
  <fix>3d</fix>
</trkpt>
<trkpt lat="40.0718723" lon="-105.228043">
  <ele>1583.04</ele>
  <time>2026-08-28T17:52:55Z</time>
  <course>267.75</course>
  <speed>4.987313906302671</speed>
  <fix>3d</fix>
</trkpt>
<trkpt lat="40.0718727" lon="-105.2280299">
  <ele>1583.0</ele>
  <time>2026-08-28T17:52:55Z</time>
  <course>266.9</course>
  <speed>5.02</speed>
  <fix>3d</fix>
</trkpt>
<trkpt lat="40.071872" lon="-105.2280489">
  <ele>1583.04</ele>
  <time>2026-08-28T17:52:55Z</time>
  <course>267.61</course>
  <speed>4.98786527484454</speed>
  <fix>3d</fix>
</trkpt>
<trkpt lat="40.0718722" lon="-105.2280416">
  <ele>1583.0</ele>
  <time>2026-08-28T17:52:55Z</time>
  <course>266.62</course>
  <speed>5.02</speed>
  <fix>3d</fix>
</trkpt>
<trkpt lat="40.0718718" lon="-105.2280548">
  <ele>1583.04</ele>
  <time>2026-08-28T17:52:55Z</time>
  <course>267.47</course>
  <speed>4.988436628844752</speed>
  <fix>3d</fix>
</trkpt>
<trkpt lat="40.0718722" lon="-105.2280416">
  <ele>1583.0</ele>
  <time>2026-08-28T17:52:55Z</time>
  <course>266.62</course>
  <speed>5.02</speed>
  <fix>3d</fix>
</trkpt>
<trkpt lat="40.0718715" lon="-105.2280607">
  <ele>1583.03</ele>
  <time>2026-08-28T17:52:55Z</time>
  <course>267.34</course>
  <speed>4.989027961436977</speed>
  <fix>3d</fix>
</trkpt>
<trkpt lat="40.0718717" lon="-105.2280533">
  <ele>1583.0</ele>
  <time>2026-08-28T17:52:55Z</time>
  <course>266.35</course>
  <speed>5.02</speed>
  <fix>3d</fix>
</trkpt>
<trkpt lat="40.0718712" lon="-105.2280666">
  <ele>1583.03</ele>
  <time>2026-08-28T17:52:55Z</time>
  <course>267.21</course>
  <speed>4.989639265518099</speed>
  <fix>3d</fix>
</trkpt>
<trkpt lat="40.0718717" lon="-105.2280533">
  <ele>1583.0</ele>
  <time>2026-08-28T17:52:55Z</time>
  <course>266.35</course>
  <speed>5.02</speed>
  <fix>3d</fix>
</trkpt>
<trkpt lat="40.0718709" lon="-105.2280726">
  <ele>1583.03</ele>
  <time>2026-08-28T17:52:55Z</time>
  <course>267.11</course>
  <speed>4.990270533748646</speed>
  <fix>3d</fix>
</trkpt>
<trkpt lat="40.071871" lon="-105.2280652">
  <ele>1583.0</ele>
  <time>2026-08-28T17:52:55Z</time>
  <course>266.11</course>
  <speed>5.03</speed>
  <fix>3d</fix>
</trkpt>
<trkpt lat="40.0718705" lon="-105.2280785">
  <ele>1583.03</ele>
  <time>2026-08-28T17:52:55Z</time>
  <course>266.94</course>
  <speed>4.991592932120968</speed>
  <fix>3d</fix>
</trkpt>
<trkpt lat="40.071871" lon="-105.2280652">
  <ele>1583.0</ele>
  <time>2026-08-28T17:52:55Z</time>
  <course>266.11</course>
  <speed>5.03</speed>
  <fix>3d</fix>
</trkpt>
<trkpt lat="40.0718702" lon="-105.2280844">
  <ele>1583.03</ele>
  <time>2026-08-28T17:52:55Z</time>
  <course>266.66</course>
  <speed>4.992995093127972</speed>
  <fix>3d</fix>
</trkpt>
<trkpt lat="40.0718704" lon="-105.2280769">
  <ele>1583.0</ele>
  <time>2026-08-28T17:52:55Z</time>
  <course>265.77</course>
  <speed>5.03</speed>
  <fix>3d</fix>
</trkpt>
<trkpt lat="40.0718698" lon="-105.2280904">
  <ele>1583.03</ele>
  <time>2026-08-28T17:52:55Z</time>
  <course>266.28</course>
  <speed>4.995247741604014</speed>
  <fix>3d</fix>
</trkpt>
<trkpt lat="40.0718704" lon="-105.2280769">
  <ele>1583.0</ele>
  <time>2026-08-28T17:52:55Z</time>
  <course>265.77</course>
  <speed>5.03</speed>
  <fix>3d</fix>
</trkpt>
<trkpt lat="40.0718694" lon="-105.2280963">
  <ele>1583.03</ele>
  <time>2026-08-28T17:52:55Z</time>
  <course>265.79</course>
  <speed>4.999399963995679</speed>
  <fix>3d</fix>
</trkpt>
<trkpt lat="40.0718697" lon="-105.2280888">
  <ele>1583.0</ele>
  <time>2026-08-28T17:52:55Z</time>
  <course>265.11</course>
  <speed>5.03</speed>
  <fix>3d</fix>
</trkpt>
<trkpt lat="40.071869" lon="-105.2281022">
  <ele>1583.04</ele>
  <time>2026-08-28T17:52:55Z</time>
  <course>265.31</course>
  <speed>5.003079051943913</speed>
  <fix>3d</fix>
</trkpt>
<trkpt lat="40.0718697" lon="-105.2280888">
  <ele>1583.0</ele>
  <time>2026-08-28T17:52:55Z</time>
  <course>265.11</course>
  <speed>5.03</speed>
  <fix>3d</fix>
</trkpt>
<trkpt lat="40.0718685" lon="-105.2281081">
  <ele>1583.04</ele>
  <time>2026-08-28T17:52:55Z</time>
  <course>264.89</course>
  <speed>5.00707499444536</speed>
  <fix>3d</fix>
</trkpt>
<trkpt lat="40.0718697" lon="-105.2280888">
  <ele>1583.0</ele>
  <time>2026-08-28T17:52:55Z</time>
  <course>265.11</course>
  <speed>5.03</speed>
  <fix>3d</fix>
</trkpt>
<trkpt lat="40.071868" lon="-105.228114">
  <ele>1583.04</ele>
  <time>2026-08-28T17:52:55Z</time>
  <course>264.48</course>
  <speed>5.000339988440786</speed>
  <fix>3d</fix>
</trkpt>
<trkpt lat="40.0718689" lon="-105.2281005">
  <ele>1583.0</ele>
  <time>2026-08-28T17:52:55Z</time>
  <course>264.22</course>
  <speed>5.03</speed>
  <fix>3d</fix>
</trkpt>
<trkpt lat="40.0718675" lon="-105.2281198">
  <ele>1583.05</ele>
  <time>2026-08-28T17:52:55Z</time>
  <course>264.11</course>
  <speed>4.993796151226039</speed>
  <fix>3d</fix>
</trkpt>
<trkpt lat="40.0718689" lon="-105.2281005">
  <ele>1583.0</ele>
  <time>2026-08-28T17:52:55Z</time>
  <course>264.22</course>
  <speed>5.03</speed>
  <fix>3d</fix>
</trkpt>
<trkpt lat="40.0718669" lon="-105.2281256">
  <ele>1583.05</ele>
  <time>2026-08-28T17:52:55Z</time>
  <course>263.77</course>
  <speed>4.997369307945932</speed>
  <fix>3d</fix>
</trkpt>
<trkpt lat="40.0718679" lon="-105.2281122">
  <ele>1583.0</ele>
  <time>2026-08-28T17:52:55Z</time>
  <course>263.38</course>
  <speed>5.02</speed>
  <fix>3d</fix>
</trkpt>
<trkpt lat="40.0718663" lon="-105.2281314">
  <ele>1583.05</ele>
  <time>2026-08-28T17:52:55Z</time>
  <course>263.44</course>
  <speed>4.991202259977049</speed>
  <fix>3d</fix>
</trkpt>
<trkpt lat="40.0718679" lon="-105.2281122">
  <ele>1583.0</ele>
  <time>2026-08-28T17:52:55Z</time>
  <course>263.38</course>
  <speed>5.02</speed>
  <fix>3d</fix>
</trkpt>
<trkpt lat="40.0718657" lon="-105.2281372">
  <ele>1583.04</ele>
  <time>2026-08-28T17:52:55Z</time>
  <course>263.16</course>
  <speed>4.995137635741382</speed>
  <fix>3d</fix>
</trkpt>
<trkpt lat="40.0718668" lon="-105.228124">
  <ele>1583.0</ele>
  <time>2026-08-28T17:52:55Z</time>
  <course>262.65</course>
  <speed>5.02</speed>
  <fix>3d</fix>
</trkpt>
<trkpt lat="40.0718651" lon="-105.228143">
  <ele>1583.04</ele>
  <time>2026-08-28T17:52:55Z</time>
  <course>262.89</course>
  <speed>4.987955492985077</speed>
  <fix>3d</fix>
</trkpt>
<trkpt lat="40.0718668" lon="-105.228124">
  <ele>1583.0</ele>
  <time>2026-08-28T17:52:55Z</time>
  <course>262.65</course>
  <speed>5.02</speed>
  <fix>3d</fix>
</trkpt>
<trkpt lat="40.0718644" lon="-105.2281488">
  <ele>1583.03</ele>
  <time>2026-08-28T17:52:55Z</time>
  <course>262.62</course>
  <speed>4.990761464947008</speed>
  <fix>3d</fix>
</trkpt>
<trkpt lat="40.0718656" lon="-105.2281357">
  <ele>1583.0</ele>
  <time>2026-08-28T17:52:55Z</time>
  <course>262.04</course>
  <speed>5.02</speed>
  <fix>3d</fix>
</trkpt>
<trkpt lat="40.0718637" lon="-105.2281546">
  <ele>1583.03</ele>
  <time>2026-08-28T17:52:55Z</time>
  <course>262.42</course>
  <speed>4.993645962620898</speed>
  <fix>3d</fix>
</trkpt>
<trkpt lat="40.0718643" lon="-105.2281474">
  <ele>1583.0</ele>
  <time>2026-08-28T17:52:55Z</time>
  <course>261.53</course>
  <speed>5.02</speed>
  <fix>3d</fix>
</trkpt>
<trkpt lat="40.071863" lon="-105.2281604">
  <ele>1583.03</ele>
  <time>2026-08-28T17:52:55Z</time>
  <course>262.21</course>
  <speed>4.986722370455367</speed>
  <fix>3d</fix>
</trkpt>
<trkpt lat="40.0718643" lon="-105.2281474">
  <ele>1583.0</ele>
  <time>2026-08-28T17:52:55Z</time>
  <course>261.53</course>
  <speed>5.02</speed>
  <fix>3d</fix>
</trkpt>
<trkpt lat="40.0718623" lon="-105.2281662">
  <ele>1583.02</ele>
  <time>2026-08-28T17:52:55Z</time>
  <course>262.01</course>
  <speed>4.989769533756043</speed>
  <fix>3d</fix>
</trkpt>
<trkpt lat="40.071863" lon="-105.228159">
  <ele>1583.0</ele>
  <time>2026-08-28T17:52:55Z</time>
  <course>261.09</course>
  <speed>5.02</speed>
  <fix>3d</fix>
</trkpt>
<trkpt lat="40.0718616" lon="-105.2281721">
  <ele>1583.02</ele>
  <time>2026-08-28T17:52:55Z</time>
  <course>261.8</course>
  <speed>4.992894951829049</speed>
  <fix>3d</fix>
</trkpt>
<trkpt lat="40.071863" lon="-105.228159">
  <ele>1583.0</ele>
  <time>2026-08-28T17:52:55Z</time>
  <course>261.09</course>
  <speed>5.02</speed>
  <fix>3d</fix>
</trkpt>
<trkpt lat="40.0718608" lon="-105.2281779">
  <ele>1583.02</ele>
  <time>2026-08-28T17:52:55Z</time>
  <course>261.67</course>
  <speed>4.994486960639701</speed>
  <fix>3d</fix>
</trkpt>
<trkpt lat="40.0718615" lon="-105.2281706">
  <ele>1583.0</ele>
  <time>2026-08-28T17:52:55Z</time>
  <course>260.71</course>
  <speed>5.03</speed>
  <fix>3d</fix>
</trkpt>
<trkpt lat="40.0718601" lon="-105.2281838">
  <ele>1583.02</ele>
  <time>2026-08-28T17:52:55Z</time>
  <course>261.53</course>
  <speed>4.9960984778124615</speed>
  <fix>3d</fix>
</trkpt>
<trkpt lat="40.0718615" lon="-105.2281706">
  <ele>1583.0</ele>
  <time>2026-08-28T17:52:55Z</time>
  <course>260.71</course>
  <speed>5.03</speed>
  <fix>3d</fix>
</trkpt>
<trkpt lat="40.0718593" lon="-105.2281896">
  <ele>1583.02</ele>
  <time>2026-08-28T17:52:55Z</time>
  <course>261.39</course>
  <speed>4.997729484475926</speed>
  <fix>3d</fix>
</trkpt>
<trkpt lat="40.07186" lon="-105.2281823">
  <ele>1583.0</ele>
  <time>2026-08-28T17:52:55Z</time>
  <course>260.4</course>
  <speed>5.03</speed>
  <fix>3d</fix>
</trkpt>
<trkpt lat="40.0718585" lon="-105.2281956">
  <ele>1583.02</ele>
  <time>2026-08-28T17:52:55Z</time>
  <course>261.23</course>
  <speed>5.001049889773146</speed>
  <fix>3d</fix>
</trkpt>
<trkpt lat="40.07186" lon="-105.2281823">
  <ele>1583.0</ele>
  <time>2026-08-28T17:52:55Z</time>
  <course>260.4</course>
  <speed>5.03</speed>
  <fix>3d</fix>
</trkpt>
<trkpt lat="40.0718577" lon="-105.2282014">
  <ele>1583.02</ele>
  <time>2026-08-28T17:52:55Z</time>
  <course>260.94</course>
  <speed>4.994597080846462</speed>
  <fix>3d</fix>
</trkpt>
<trkpt lat="40.0718585" lon="-105.228194">
  <ele>1583.0</ele>
  <time>2026-08-28T17:52:55Z</time>
  <course>260.04</course>
  <speed>5.02</speed>
  <fix>3d</fix>
</trkpt>
<trkpt lat="40.0718569" lon="-105.2282072">
  <ele>1583.01</ele>
  <time>2026-08-28T17:52:55Z</time>
  <course>260.56</course>
  <speed>4.999849997749933</speed>
  <fix>3d</fix>
</trkpt>
<trkpt lat="40.0718585" lon="-105.228194">
  <ele>1583.0</ele>
  <time>2026-08-28T17:52:55Z</time>
  <course>260.04</course>
  <speed>5.02</speed>
  <fix>3d</fix>
</trkpt>
<trkpt lat="40.0718561" lon="-105.2282131">
  <ele>1583.01</ele>
  <time>2026-08-28T17:52:55Z</time>
  <course>260.07</course>
  <speed>4.999169931098562</speed>
  <fix>3d</fix>
</trkpt>
<trkpt lat="40.0718569" lon="-105.2282056">
  <ele>1583.0</ele>
  <time>2026-08-28T17:52:55Z</time>
  <course>259.38</course>
  <speed>5.02</speed>
  <fix>3d</fix>
</trkpt>
<trkpt lat="40.0718552" lon="-105.2282189">
  <ele>1583.02</ele>
  <time>2026-08-28T17:52:55Z</time>
  <course>259.56</course>
  <speed>4.997039123320929</speed>
  <fix>3d</fix>
</trkpt>
<trkpt lat="40.0718569" lon="-105.2282056">
  <ele>1583.0</ele>
  <time>2026-08-28T17:52:55Z</time>
  <course>259.38</course>
  <speed>5.02</speed>
  <fix>3d</fix>
</trkpt>
<trkpt lat="40.0718542" lon="-105.2282247">
  <ele>1583.01</ele>
  <time>2026-08-28T17:52:55Z</time>
  <course>259.09</course>
  <speed>5.00503746239726</speed>
  <fix>3d</fix>
</trkpt>
<trkpt lat="40.0718552" lon="-105.2282171">
  <ele>1583.0</ele>
  <time>2026-08-28T17:52:55Z</time>
  <course>258.46</course>
  <speed>5.02</speed>
  <fix>3d</fix>
</trkpt>
<trkpt lat="40.0718532" lon="-105.2282305">
  <ele>1583.01</ele>
  <time>2026-08-28T17:52:55Z</time>
  <course>258.68</course>
  <speed>5.003568726419174</speed>
  <fix>3d</fix>
</trkpt>
<trkpt lat="40.0718552" lon="-105.2282171">
  <ele>1583.0</ele>
  <time>2026-08-28T17:52:55Z</time>
  <course>258.46</course>
  <speed>5.02</speed>
  <fix>3d</fix>
</trkpt>
<trkpt lat="40.0718523" lon="-105.2282363">
  <ele>1583.02</ele>
  <time>2026-08-28T17:52:55Z</time>
  <course>258.27</course>
  <speed>5.000249993750312</speed>
  <fix>3d</fix>
</trkpt>
<trkpt lat="40.0718552" lon="-105.2282171">
  <ele>1583.0</ele>
  <time>2026-08-28T17:52:55Z</time>
  <course>258.46</course>
  <speed>5.02</speed>
  <fix>3d</fix>
</trkpt>
<trkpt lat="40.0718512" lon="-105.228242">
  <ele>1583.02</ele>
  <time>2026-08-28T17:52:55Z</time>
  <course>257.93</course>
  <speed>4.997129175836863</speed>
  <fix>3d</fix>
</trkpt>
<trkpt lat="40.0718533" lon="-105.2282286">
  <ele>1583.0</ele>
  <time>2026-08-28T17:52:55Z</time>
  <course>257.56</course>
  <speed>5.02</speed>
  <fix>3d</fix>
</trkpt>
<trkpt lat="40.0718502" lon="-105.2282477">
  <ele>1583.02</ele>
  <time>2026-08-28T17:52:55Z</time>
  <course>257.59</course>
  <speed>4.994206643702281</speed>
  <fix>3d</fix>
</trkpt>
<trkpt lat="40.0718533" lon="-105.2282286">
  <ele>1583.0</ele>
  <time>2026-08-28T17:52:55Z</time>
  <course>257.56</course>
  <speed>5.02</speed>
  <fix>3d</fix>
</trkpt>
<trkpt lat="40.0718491" lon="-105.2282534">
  <ele>1583.01</ele>
  <time>2026-08-28T17:52:55Z</time>
  <course>257.29</course>
  <speed>4.989128180353758</speed>
  <fix>3d</fix>
</trkpt>
<trkpt lat="40.0718513" lon="-105.2282402">
  <ele>1583.0</ele>
  <time>2026-08-28T17:52:55Z</time>
  <course>256.81</course>
  <speed>5.01</speed>
  <fix>3d</fix>
</trkpt>
<trkpt lat="40.071848" lon="-105.228259">
  <ele>1583.01</ele>
  <time>2026-08-28T17:52:55Z</time>
  <course>257.02</course>
  <speed>4.9962485926943225</speed>
  <fix>3d</fix>
</trkpt>
<trkpt lat="40.0718513" lon="-105.2282402">
  <ele>1583.0</ele>
  <time>2026-08-28T17:52:55Z</time>
  <course>256.81</course>
  <speed>5.01</speed>
  <fix>3d</fix>
</trkpt>
<trkpt lat="40.0718469" lon="-105.2282647">
  <ele>1583.01</ele>
  <time>2026-08-28T17:52:55Z</time>
  <course>256.76</course>
  <speed>4.991392591251463</speed>
  <fix>3d</fix>
</trkpt>
<trkpt lat="40.0718492" lon="-105.2282516">
  <ele>1583.0</ele>
  <time>2026-08-28T17:52:55Z</time>
  <course>256.18</course>
  <speed>5.01</speed>
  <fix>3d</fix>
</trkpt>
<trkpt lat="40.0718458" lon="-105.2282704">
  <ele>1583.01</ele>
  <time>2026-08-28T17:52:55Z</time>
  <course>256.56</course>
  <speed>4.984154893259237</speed>
  <fix>3d</fix>
</trkpt>
<trkpt lat="40.071847" lon="-105.228263">
  <ele>1583.0</ele>
  <time>2026-08-28T17:52:55Z</time>
  <course>255.66</course>
  <speed>5.01</speed>
  <fix>3d</fix>
</trkpt>
<trkpt lat="40.0718446" lon="-105.2282761">
  <ele>1583.0</ele>
  <time>2026-08-28T17:52:55Z</time>
  <course>256.36</course>
  <speed>4.989128180353758</speed>
  <fix>3d</fix>
</trkpt>
<trkpt lat="40.071847" lon="-105.228263">
  <ele>1583.0</ele>
  <time>2026-08-28T17:52:55Z</time>
  <course>255.66</course>
  <speed>5.01</speed>
  <fix>3d</fix>
</trkpt>
<trkpt lat="40.0718435" lon="-105.2282817">
  <ele>1583.0</ele>
  <time>2026-08-28T17:52:55Z</time>
  <course>256.15</course>
  <speed>4.984505993576494</speed>
  <fix>3d</fix>
</trkpt>
<trkpt lat="40.0718447" lon="-105.2282745">
  <ele>1583.0</ele>
  <time>2026-08-28T17:52:55Z</time>
  <course>255.23</course>
  <speed>5.01</speed>
  <fix>3d</fix>
</trkpt>
<trkpt lat="40.0718423" lon="-105.2282874">
  <ele>1583.0</ele>
  <time>2026-08-28T17:52:55Z</time>
  <course>255.95</course>
  <speed>4.989639265518099</speed>
  <fix>3d</fix>
</trkpt>
<trkpt lat="40.0718447" lon="-105.2282745">
  <ele>1583.0</ele>
  <time>2026-08-28T17:52:55Z</time>
  <course>255.23</course>
  <speed>5.01</speed>
  <fix>3d</fix>
</trkpt>
<trkpt lat="40.0718411" lon="-105.2282931">
  <ele>1583.0</ele>
  <time>2026-08-28T17:52:55Z</time>
  <course>255.81</course>
  <speed>4.992233968876058</speed>
  <fix>3d</fix>
</trkpt>
<trkpt lat="40.0718424" lon="-105.2282859">
  <ele>1583.0</ele>
  <time>2026-08-28T17:52:55Z</time>
  <course>254.85</course>
  <speed>5.01</speed>
  <fix>3d</fix>
</trkpt>
<trkpt lat="40.0718399" lon="-105.2282988">
  <ele>1583.0</ele>
  <time>2026-08-28T17:52:55Z</time>
  <course>255.68</course>
  <speed>4.9948473450146595</speed>
  <fix>3d</fix>
</trkpt>
<trkpt lat="40.0718424" lon="-105.2282859">
  <ele>1583.0</ele>
  <time>2026-08-28T17:52:55Z</time>
  <course>254.85</course>
  <speed>5.01</speed>
  <fix>3d</fix>
</trkpt>
<trkpt lat="40.0718387" lon="-105.2283045">
  <ele>1582.99</ele>
  <time>2026-08-28T17:52:55Z</time>
  <course>255.54</course>
  <speed>4.987835201768398</speed>
  <fix>3d</fix>
</trkpt>
<trkpt lat="40.0718399" lon="-105.2282972">
  <ele>1583.0</ele>
  <time>2026-08-28T17:52:55Z</time>
  <course>254.55</course>
  <speed>5.01</speed>
  <fix>3d</fix>
</trkpt>
<trkpt lat="40.0718374" lon="-105.2283103">
  <ele>1582.99</ele>
  <time>2026-08-28T17:52:55Z</time>
  <course>255.4</course>
  <speed>4.9931653287268585</speed>
  <fix>3d</fix>
</trkpt>
<trkpt lat="40.0718399" lon="-105.2282972">
  <ele>1583.0</ele>
  <time>2026-08-28T17:52:55Z</time>
  <course>254.55</course>
  <speed>5.01</speed>
  <fix>3d</fix>
</trkpt>
<trkpt lat="40.0718362" lon="-105.2283159">
  <ele>1582.99</ele>
  <time>2026-08-28T17:52:55Z</time>
  <course>255.27</course>
  <speed>4.995858284619371</speed>
  <fix>3d</fix>
</trkpt>
<trkpt lat="40.0718375" lon="-105.2283085">
  <ele>1583.0</ele>
  <time>2026-08-28T17:52:55Z</time>
  <course>254.28</course>
  <speed>5.01</speed>
  <fix>3d</fix>
</trkpt>
<trkpt lat="40.0718349" lon="-105.2283216">
  <ele>1582.99</ele>
  <time>2026-08-28T17:52:55Z</time>
  <course>255.13</course>
  <speed>4.998569795451495</speed>
  <fix>3d</fix>
</trkpt>
<trkpt lat="40.0718375" lon="-105.2283085">
  <ele>1583.0</ele>
  <time>2026-08-28T17:52:55Z</time>
  <course>254.28</course>
  <speed>5.01</speed>
  <fix>3d</fix>
</trkpt>
<trkpt lat="40.0718337" lon="-105.2283273">
  <ele>1582.98</ele>
  <time>2026-08-28T17:52:56Z</time>
  <course>255.04</course>
  <speed>4.991683082888977</speed>
  <fix>3d</fix>
</trkpt>
<trkpt lat="40.0718351" lon="-105.2283199">
  <ele>1583.0</ele>
  <time>2026-08-28T17:52:56Z</time>
  <course>254.02</course>
  <speed>5.01</speed>
  <fix>3d</fix>
</trkpt>
<trkpt lat="40.0718324" lon="-105.228333">
  <ele>1582.98</ele>
  <time>2026-08-28T17:52:56Z</time>
  <course>254.94</course>
  <speed>4.994436905197622</speed>
  <fix>3d</fix>
</trkpt>
<trkpt lat="40.0718351" lon="-105.2283199">
  <ele>1583.0</ele>
  <time>2026-08-28T17:52:56Z</time>
  <course>254.02</course>
  <speed>5.01</speed>
  <fix>3d</fix>
</trkpt>
<trkpt lat="40.0718311" lon="-105.2283387">
  <ele>1582.98</ele>
  <time>2026-08-28T17:52:56Z</time>
  <course>254.87</course>
  <speed>4.994436905197622</speed>
  <fix>3d</fix>
</trkpt>
<trkpt lat="40.0718326" lon="-105.2283312">
  <ele>1583.0</ele>
  <time>2026-08-28T17:52:56Z</time>
  <course>253.83</course>
  <speed>5.01</speed>
  <fix>3d</fix>
</trkpt>
<trkpt lat="40.0718299" lon="-105.2283444">
  <ele>1582.98</ele>
  <time>2026-08-28T17:52:56Z</time>
  <course>254.81</course>
  <speed>4.997209221155344</speed>
  <fix>3d</fix>
</trkpt>
<trkpt lat="40.0718326" lon="-105.2283312">
  <ele>1583.0</ele>
  <time>2026-08-28T17:52:56Z</time>
  <course>253.83</course>
  <speed>5.01</speed>
  <fix>3d</fix>
</trkpt>
<trkpt lat="40.0718286" lon="-105.22835">
  <ele>1582.97</ele>
  <time>2026-08-28T17:52:56Z</time>
  <course>254.74</course>
  <speed>4.997209221155344</speed>
  <fix>3d</fix>
</trkpt>
<trkpt lat="40.0718326" lon="-105.2283312">
  <ele>1583.0</ele>
  <time>2026-08-28T17:52:56Z</time>
  <course>253.83</course>
  <speed>5.01</speed>
  <fix>3d</fix>
</trkpt>
<trkpt lat="40.0718273" lon="-105.2283557">
  <ele>1582.97</ele>
  <time>2026-08-28T17:52:56Z</time>
  <course>254.67</course>
  <speed>4.990400785508114</speed>
  <fix>3d</fix>
</trkpt>
<trkpt lat="40.0718301" lon="-105.2283425">
  <ele>1583.0</ele>
  <time>2026-08-28T17:52:56Z</time>
  <course>253.68</course>
  <speed>5.01</speed>
  <fix>3d</fix>
</trkpt>
<trkpt lat="40.071826" lon="-105.2283613">
  <ele>1582.97</ele>
  <time>2026-08-28T17:52:56Z</time>
  <course>254.6</course>
  <speed>4.990400785508114</speed>
  <fix>3d</fix>
</trkpt>
<trkpt lat="40.0718301" lon="-105.2283425">
  <ele>1583.0</ele>
  <time>2026-08-28T17:52:56Z</time>
  <course>253.68</course>
  <speed>5.01</speed>
  <fix>3d</fix>
</trkpt>
<trkpt lat="40.0718248" lon="-105.2283669">
  <ele>1582.97</ele>
  <time>2026-08-28T17:52:56Z</time>
  <course>254.53</course>
  <speed>4.993215396916099</speed>
  <fix>3d</fix>
</trkpt>
<trkpt lat="40.0718276" lon="-105.2283538">
  <ele>1583.0</ele>
  <time>2026-08-28T17:52:56Z</time>
  <course>253.54</course>
  <speed>5.01</speed>
  <fix>3d</fix>
</trkpt>
<trkpt lat="40.0718235" lon="-105.2283724">
  <ele>1582.97</ele>
  <time>2026-08-28T17:52:56Z</time>
  <course>254.47</course>
  <speed>4.993215396916099</speed>
  <fix>3d</fix>
</trkpt>
<trkpt lat="40.0718276" lon="-105.2283538">
  <ele>1583.0</ele>
  <time>2026-08-28T17:52:56Z</time>
  <course>253.54</course>
  <speed>5.01</speed>
  <fix>3d</fix>
</trkpt>
<trkpt lat="40.0718222" lon="-105.228378">
  <ele>1582.96</ele>
  <time>2026-08-28T17:52:56Z</time>
  <course>254.4</course>
  <speed>4.986461671365779</speed>
  <fix>3d</fix>
</trkpt>
<trkpt lat="40.0718249" lon="-105.2283651">
  <ele>1583.0</ele>
  <time>2026-08-28T17:52:56Z</time>
  <course>253.41</course>
  <speed>5.01</speed>
  <fix>3d</fix>
</trkpt>
<trkpt lat="40.0718209" lon="-105.2283836">
  <ele>1582.96</ele>
  <time>2026-08-28T17:52:56Z</time>
  <course>254.33</course>
  <speed>4.986461671365779</speed>
  <fix>3d</fix>
</trkpt>
<trkpt lat="40.0718249" lon="-105.2283651">
  <ele>1583.0</ele>
  <time>2026-08-28T17:52:56Z</time>
  <course>253.41</course>
  <speed>5.01</speed>
  <fix>3d</fix>
</trkpt>
<trkpt lat="40.0718196" lon="-105.2283892">
  <ele>1582.96</ele>
  <time>2026-08-28T17:52:56Z</time>
  <course>254.26</course>
  <speed>4.989318590749643</speed>
  <fix>3d</fix>
</trkpt>
<trkpt lat="40.0718224" lon="-105.2283764">
  <ele>1583.0</ele>
  <time>2026-08-28T17:52:56Z</time>
  <course>253.27</course>
  <speed>5.01</speed>
  <fix>3d</fix>
</trkpt>
<trkpt lat="40.0718183" lon="-105.2283948">
  <ele>1582.96</ele>
  <time>2026-08-28T17:52:56Z</time>
  <course>254.19</course>
  <speed>4.979738948981161</speed>
  <fix>3d</fix>
</trkpt>
<trkpt lat="40.0718198" lon="-105.2283876">
  <ele>1583.0</ele>
  <time>2026-08-28T17:52:56Z</time>
  <course>253.13</course>
  <speed>5.01</speed>
  <fix>3d</fix>
</trkpt>
<trkpt lat="40.071817" lon="-105.2284004">
  <ele>1582.96</ele>
  <time>2026-08-28T17:52:56Z</time>
  <course>254.13</course>
  <speed>4.982619792839907</speed>
  <fix>3d</fix>
</trkpt>
<trkpt lat="40.0718198" lon="-105.2283876">
  <ele>1583.0</ele>
  <time>2026-08-28T17:52:56Z</time>
  <course>253.13</course>
  <speed>5.01</speed>
  <fix>3d</fix>
</trkpt>
<trkpt lat="40.0718157" lon="-105.228406">
  <ele>1582.96</ele>
  <time>2026-08-28T17:52:56Z</time>
  <course>254.06</course>
  <speed>4.982619792839907</speed>
  <fix>3d</fix>
</trkpt>
<trkpt lat="40.0718172" lon="-105.2283989">
  <ele>1583.0</ele>
  <time>2026-08-28T17:52:56Z</time>
  <course>253.0</course>
  <speed>5.02</speed>
  <fix>3d</fix>
</trkpt>
<trkpt lat="40.0718144" lon="-105.2284116">
  <ele>1582.96</ele>
  <time>2026-08-28T17:52:56Z</time>
  <course>254.02</course>
  <speed>4.985519030151224</speed>
  <fix>3d</fix>
</trkpt>
<trkpt lat="40.0718172" lon="-105.2283989">
  <ele>1583.0</ele>
  <time>2026-08-28T17:52:56Z</time>
  <course>253.0</course>
  <speed>5.02</speed>
  <fix>3d</fix>
</trkpt>
<trkpt lat="40.071813" lon="-105.2284173">
  <ele>1582.95</ele>
  <time>2026-08-28T17:52:56Z</time>
  <course>253.97</course>
  <speed>4.985519030151224</speed>
  <fix>3d</fix>
</trkpt>
<trkpt lat="40.0718145" lon="-105.2284102">
  <ele>1583.0</ele>
  <time>2026-08-28T17:52:56Z</time>
  <course>252.89</course>
  <speed>5.02</speed>
  <fix>3d</fix>
</trkpt>
<trkpt lat="40.0718117" lon="-105.228423">
  <ele>1582.95</ele>
  <time>2026-08-28T17:52:56Z</time>
  <course>253.92</course>
  <speed>4.988436628844752</speed>
  <fix>3d</fix>
</trkpt>
<trkpt lat="40.0718145" lon="-105.2284102">
  <ele>1583.0</ele>
  <time>2026-08-28T17:52:56Z</time>
  <course>252.89</course>
  <speed>5.02</speed>
  <fix>3d</fix>
</trkpt>
<trkpt lat="40.0718103" lon="-105.2284287">
  <ele>1582.95</ele>
  <time>2026-08-28T17:52:56Z</time>
  <course>253.85</course>
  <speed>4.988436628844752</speed>
  <fix>3d</fix>
</trkpt>
<trkpt lat="40.0718119" lon="-105.2284215">
  <ele>1583.0</ele>
  <time>2026-08-28T17:52:56Z</time>
  <course>252.79</course>
  <speed>5.02</speed>
  <fix>3d</fix>
</trkpt>
<trkpt lat="40.071809" lon="-105.2284343">
  <ele>1582.94</ele>
  <time>2026-08-28T17:52:56Z</time>
  <course>253.82</course>
  <speed>4.99799959983992</speed>
  <fix>3d</fix>
</trkpt>
<trkpt lat="40.0718119" lon="-105.2284215">
  <ele>1583.0</ele>
  <time>2026-08-28T17:52:56Z</time>
  <course>252.79</course>
  <speed>5.02</speed>
  <fix>3d</fix>
</trkpt>
<trkpt lat="40.0718076" lon="-105.22844">
  <ele>1582.94</ele>
  <time>2026-08-28T17:52:56Z</time>
  <course>253.78</course>
  <speed>5.000929913526083</speed>
  <fix>3d</fix>
</trkpt>
<trkpt lat="40.0718092" lon="-105.2284327">
  <ele>1583.0</ele>
  <time>2026-08-28T17:52:56Z</time>
  <course>252.69</course>
  <speed>5.02</speed>
  <fix>3d</fix>
</trkpt>
<trkpt lat="40.0718063" lon="-105.2284457">
  <ele>1582.94</ele>
  <time>2026-08-28T17:52:56Z</time>
  <course>253.74</course>
  <speed>5.000929913526083</speed>
  <fix>3d</fix>
</trkpt>
<trkpt lat="40.0718092" lon="-105.2284327">
  <ele>1583.0</ele>
  <time>2026-08-28T17:52:56Z</time>
  <course>252.69</course>
  <speed>5.02</speed>
  <fix>3d</fix>
</trkpt>
<trkpt lat="40.0718049" lon="-105.2284513">
  <ele>1582.94</ele>
  <time>2026-08-28T17:52:56Z</time>
  <course>253.72</course>
  <speed>5.000929913526083</speed>
  <fix>3d</fix>
</trkpt>
<trkpt lat="40.0718065" lon="-105.228444">
  <ele>1583.0</ele>
  <time>2026-08-28T17:52:56Z</time>
  <course>252.63</course>
  <speed>5.02</speed>
  <fix>3d</fix>
</trkpt>
<trkpt lat="40.0718036" lon="-105.228457">
  <ele>1582.94</ele>
  <time>2026-08-28T17:52:56Z</time>
  <course>253.69</course>
  <speed>5.00387849572709</speed>
  <fix>3d</fix>
</trkpt>
<trkpt lat="40.0718065" lon="-105.228444">
  <ele>1583.0</ele>
  <time>2026-08-28T17:52:56Z</time>
  <course>252.63</course>
  <speed>5.02</speed>
  <fix>3d</fix>
</trkpt>
<trkpt lat="40.0718022" lon="-105.2284627">
  <ele>1582.94</ele>
  <time>2026-08-28T17:52:56Z</time>
  <course>253.67</course>
  <speed>5.00387849572709</speed>
  <fix>3d</fix>
</trkpt>
<trkpt lat="40.0718038" lon="-105.2284553">
  <ele>1583.0</ele>
  <time>2026-08-28T17:52:56Z</time>
  <course>252.58</course>
  <speed>5.02</speed>
  <fix>3d</fix>
</trkpt>
<trkpt lat="40.0718009" lon="-105.2284683">
  <ele>1582.95</ele>
  <time>2026-08-28T17:52:56Z</time>
  <course>253.67</course>
  <speed>5.00387849572709</speed>
  <fix>3d</fix>
</trkpt>
<trkpt lat="40.0718038" lon="-105.2284553">
  <ele>1583.0</ele>
  <time>2026-08-28T17:52:56Z</time>
  <course>252.58</course>
  <speed>5.02</speed>
  <fix>3d</fix>
</trkpt>
<trkpt lat="40.0717995" lon="-105.228474">
  <ele>1582.95</ele>
  <time>2026-08-28T17:52:56Z</time>
  <course>253.64</course>
  <speed>5.00387849572709</speed>
  <fix>3d</fix>
</trkpt>
<trkpt lat="40.0718038" lon="-105.2284553">
  <ele>1583.0</ele>
  <time>2026-08-28T17:52:56Z</time>
  <course>252.58</course>
  <speed>5.02</speed>
  <fix>3d</fix>
</trkpt>
<trkpt lat="40.0717982" lon="-105.2284796">
  <ele>1582.95</ele>
  <time>2026-08-28T17:52:56Z</time>
  <course>253.62</course>
  <speed>5.00387849572709</speed>
  <fix>3d</fix>
</trkpt>
<trkpt lat="40.0718011" lon="-105.2284665">
  <ele>1583.0</ele>
  <time>2026-08-28T17:52:56Z</time>
  <course>252.53</course>
  <speed>5.02</speed>
  <fix>3d</fix>
</trkpt>
<trkpt lat="40.0717968" lon="-105.2284852">
  <ele>1582.95</ele>
  <time>2026-08-28T17:52:56Z</time>
  <course>253.56</course>
  <speed>4.994326781459139</speed>
  <fix>3d</fix>
</trkpt>
<trkpt lat="40.0718011" lon="-105.2284665">
  <ele>1583.0</ele>
  <time>2026-08-28T17:52:56Z</time>
  <course>252.53</course>
  <speed>5.02</speed>
  <fix>3d</fix>
</trkpt>
<trkpt lat="40.0717955" lon="-105.2284907">
  <ele>1582.96</ele>
  <time>2026-08-28T17:52:56Z</time>
  <course>253.53</course>
  <speed>4.994326781459139</speed>
  <fix>3d</fix>
</trkpt>
<trkpt lat="40.0717984" lon="-105.2284778">
  <ele>1583.0</ele>
  <time>2026-08-28T17:52:56Z</time>
  <course>252.48</course>
  <speed>5.02</speed>
  <fix>3d</fix>
</trkpt>
<trkpt lat="40.0717941" lon="-105.2284963">
  <ele>1582.96</ele>
  <time>2026-08-28T17:52:56Z</time>
  <course>253.49</course>
  <speed>4.997299270606074</speed>
  <fix>3d</fix>
</trkpt>
<trkpt lat="40.0717984" lon="-105.2284778">
  <ele>1583.0</ele>
  <time>2026-08-28T17:52:56Z</time>
  <course>252.48</course>
  <speed>5.02</speed>
  <fix>3d</fix>
</trkpt>
<trkpt lat="40.0717928" lon="-105.2285019">
  <ele>1582.96</ele>
  <time>2026-08-28T17:52:56Z</time>
  <course>253.45</course>
  <speed>4.987755006012224</speed>
  <fix>3d</fix>
</trkpt>
<trkpt lat="40.0717956" lon="-105.228489">
  <ele>1583.0</ele>
  <time>2026-08-28T17:52:56Z</time>
  <course>252.4</course>
  <speed>5.02</speed>
  <fix>3d</fix>
</trkpt>
<trkpt lat="40.0717914" lon="-105.2285075">
  <ele>1582.96</ele>
  <time>2026-08-28T17:52:56Z</time>
  <course>253.45</course>
  <speed>4.987755006012224</speed>
  <fix>3d</fix>
</trkpt>
<trkpt lat="40.0717929" lon="-105.2285003">
  <ele>1583.0</ele>
  <time>2026-08-28T17:52:56Z</time>
  <course>252.35</course>
  <speed>5.02</speed>
  <fix>3d</fix>
</trkpt>
<trkpt lat="40.07179" lon="-105.2285131">
  <ele>1582.96</ele>
  <time>2026-08-28T17:52:56Z</time>
  <course>253.42</course>
  <speed>4.987755006012224</speed>
  <fix>3d</fix>
</trkpt>
<trkpt lat="40.0717929" lon="-105.2285003">
  <ele>1583.0</ele>
  <time>2026-08-28T17:52:56Z</time>
  <course>252.35</course>
  <speed>5.02</speed>
  <fix>3d</fix>
</trkpt>
<trkpt lat="40.0717886" lon="-105.2285187">
  <ele>1582.96</ele>
  <time>2026-08-28T17:52:56Z</time>
  <course>253.42</course>
  <speed>4.987755006012224</speed>
  <fix>3d</fix>
</trkpt>
<trkpt lat="40.0717902" lon="-105.2285115">
  <ele>1583.0</ele>
  <time>2026-08-28T17:52:56Z</time>
  <course>252.32</course>
  <speed>5.02</speed>
  <fix>3d</fix>
</trkpt>
<trkpt lat="40.0717873" lon="-105.2285243">
  <ele>1582.96</ele>
  <time>2026-08-28T17:52:56Z</time>
  <course>253.39</course>
  <speed>4.990751446425678</speed>
  <fix>3d</fix>
</trkpt>
<trkpt lat="40.0717902" lon="-105.2285115">
  <ele>1583.0</ele>
  <time>2026-08-28T17:52:56Z</time>
  <course>252.32</course>
  <speed>5.02</speed>
  <fix>3d</fix>
</trkpt>
<trkpt lat="40.0717859" lon="-105.2285299">
  <ele>1582.96</ele>
  <time>2026-08-28T17:52:56Z</time>
  <course>253.39</course>
  <speed>4.997299270606074</speed>
  <fix>3d</fix>
</trkpt>
<trkpt lat="40.0717875" lon="-105.2285228">
  <ele>1583.0</ele>
  <time>2026-08-28T17:52:56Z</time>
  <course>252.29</course>
  <speed>5.02</speed>
  <fix>3d</fix>
</trkpt>
<trkpt lat="40.0717845" lon="-105.2285356">
  <ele>1582.96</ele>
  <time>2026-08-28T17:52:56Z</time>
  <course>253.36</course>
  <speed>5.000289991590488</speed>
  <fix>3d</fix>
</trkpt>
<trkpt lat="40.0717875" lon="-105.2285228">
  <ele>1583.0</ele>
  <time>2026-08-28T17:52:56Z</time>
  <course>252.29</course>
  <speed>5.02</speed>
  <fix>3d</fix>
</trkpt>
<trkpt lat="40.0717831" lon="-105.2285412">
  <ele>1582.96</ele>
  <time>2026-08-28T17:52:56Z</time>
  <course>253.29</course>
  <speed>5.000289991590488</speed>
  <fix>3d</fix>
</trkpt>
<trkpt lat="40.0717847" lon="-105.228534">
  <ele>1583.0</ele>
  <time>2026-08-28T17:52:56Z</time>
  <course>252.23</course>
  <speed>5.02</speed>
  <fix>3d</fix>
</trkpt>
<trkpt lat="40.0717817" lon="-105.2285469">
  <ele>1582.96</ele>
  <time>2026-08-28T17:52:56Z</time>
  <course>253.26</course>
  <speed>5.003298911718148</speed>
  <fix>3d</fix>
</trkpt>
<trkpt lat="40.0717847" lon="-105.228534">
  <ele>1583.0</ele>
  <time>2026-08-28T17:52:56Z</time>
  <course>252.23</course>
  <speed>5.02</speed>
  <fix>3d</fix>
</trkpt>
<trkpt lat="40.0717804" lon="-105.2285526">
  <ele>1582.97</ele>
  <time>2026-08-28T17:52:56Z</time>
  <course>253.22</course>
  <speed>4.993766113866368</speed>
  <fix>3d</fix>
</trkpt>
<trkpt lat="40.071782" lon="-105.2285452">
  <ele>1583.0</ele>
  <time>2026-08-28T17:52:56Z</time>
  <course>252.15</course>
  <speed>5.02</speed>
  <fix>3d</fix>
</trkpt>
<trkpt lat="40.071779" lon="-105.2285582">
  <ele>1582.97</ele>
  <time>2026-08-28T17:52:56Z</time>
  <course>253.18</course>
  <speed>4.993766113866368</speed>
  <fix>3d</fix>
</trkpt>
<trkpt lat="40.071782" lon="-105.2285452">
  <ele>1583.0</ele>
  <time>2026-08-28T17:52:56Z</time>
  <course>252.15</course>
  <speed>5.02</speed>
  <fix>3d</fix>
</trkpt>
<trkpt lat="40.0717776" lon="-105.2285638">
  <ele>1582.97</ele>
  <time>2026-08-28T17:52:56Z</time>
  <course>253.17</course>
  <speed>4.993766113866368</speed>
  <fix>3d</fix>
</trkpt>
<trkpt lat="40.0717791" lon="-105.2285565">
  <ele>1583.0</ele>
  <time>2026-08-28T17:52:56Z</time>
  <course>252.09</course>
  <speed>5.02</speed>
  <fix>3d</fix>
</trkpt>
<trkpt lat="40.0717762" lon="-105.2285695">
  <ele>1582.97</ele>
  <time>2026-08-28T17:52:56Z</time>
  <course>253.15</course>
  <speed>4.993766113866368</speed>
  <fix>3d</fix>
</trkpt>
<trkpt lat="40.0717791" lon="-105.2285565">
  <ele>1583.0</ele>
  <time>2026-08-28T17:52:56Z</time>
  <course>252.09</course>
  <speed>5.02</speed>
  <fix>3d</fix>
</trkpt>
<trkpt lat="40.0717748" lon="-105.2285751">
  <ele>1582.98</ele>
  <time>2026-08-28T17:52:56Z</time>
  <course>253.12</course>
  <speed>4.996798975344115</speed>
  <fix>3d</fix>
</trkpt>
<trkpt lat="40.0717764" lon="-105.2285676">
  <ele>1583.0</ele>
  <time>2026-08-28T17:52:56Z</time>
  <course>252.04</course>
  <speed>5.02</speed>
  <fix>3d</fix>
</trkpt>
<trkpt lat="40.0717734" lon="-105.2285807">
  <ele>1582.98</ele>
  <time>2026-08-28T17:52:56Z</time>
  <course>253.12</course>
  <speed>4.996798975344115</speed>
  <fix>3d</fix>
</trkpt>
<trkpt lat="40.0717764" lon="-105.2285676">
  <ele>1583.0</ele>
  <time>2026-08-28T17:52:56Z</time>
  <course>252.04</course>
  <speed>5.02</speed>
  <fix>3d</fix>
</trkpt>
<trkpt lat="40.071772" lon="-105.2285864">
  <ele>1582.98</ele>
  <time>2026-08-28T17:52:56Z</time>
  <course>253.1</course>
  <speed>4.996798975344115</speed>
  <fix>3d</fix>
</trkpt>
<trkpt lat="40.0717764" lon="-105.2285676">
  <ele>1583.0</ele>
  <time>2026-08-28T17:52:56Z</time>
  <course>252.04</course>
  <speed>5.02</speed>
  <fix>3d</fix>
</trkpt>
<trkpt lat="40.0717706" lon="-105.2285919">
  <ele>1582.98</ele>
  <time>2026-08-28T17:52:56Z</time>
  <course>253.09</course>
  <speed>4.996798975344115</speed>
  <fix>3d</fix>
</trkpt>
<trkpt lat="40.0717736" lon="-105.2285789">
  <ele>1583.0</ele>
  <time>2026-08-28T17:52:56Z</time>
  <course>252.01</course>
  <speed>5.01</speed>
  <fix>3d</fix>
</trkpt>
<trkpt lat="40.0717692" lon="-105.2285975">
  <ele>1582.99</ele>
  <time>2026-08-28T17:52:56Z</time>
  <course>253.09</course>
  <speed>4.984235146940802</speed>
  <fix>3d</fix>
</trkpt>
<trkpt lat="40.0717736" lon="-105.2285789">
  <ele>1583.0</ele>
  <time>2026-08-28T17:52:56Z</time>
  <course>252.01</course>
  <speed>5.01</speed>
  <fix>3d</fix>
</trkpt>
<trkpt lat="40.0717678" lon="-105.228603">
  <ele>1582.99</ele>
  <time>2026-08-28T17:52:56Z</time>
  <course>253.09</course>
  <speed>4.955653337351191</speed>
  <fix>3d</fix>
</trkpt>
<trkpt lat="40.0717708" lon="-105.22859">
  <ele>1583.0</ele>
  <time>2026-08-28T17:52:56Z</time>
  <course>252.0</course>
  <speed>5.01</speed>
  <fix>3d</fix>
</trkpt>
<trkpt lat="40.0717665" lon="-105.2286085">
  <ele>1582.99</ele>
  <time>2026-08-28T17:52:56Z</time>
  <course>253.09</course>
  <speed>4.911466176204413</speed>
  <fix>3d</fix>
</trkpt>
<trkpt lat="40.0717708" lon="-105.22859">
  <ele>1583.0</ele>
  <time>2026-08-28T17:52:56Z</time>
  <course>252.0</course>
  <speed>5.01</speed>
  <fix>3d</fix>
</trkpt>
<trkpt lat="40.0717651" lon="-105.2286139">
  <ele>1582.99</ele>
  <time>2026-08-28T17:52:56Z</time>
  <course>253.09</course>
  <speed>4.860792116517636</speed>
  <fix>3d</fix>
</trkpt>
<trkpt lat="40.0717681" lon="-105.2286012">
  <ele>1583.0</ele>
  <time>2026-08-28T17:52:56Z</time>
  <course>251.99</course>
  <speed>4.97</speed>
  <fix>3d</fix>
</trkpt>
<trkpt lat="40.0717638" lon="-105.2286193">
  <ele>1582.99</ele>
  <time>2026-08-28T17:52:56Z</time>
  <course>253.04</course>
  <speed>4.788026733425785</speed>
  <fix>3d</fix>
</trkpt>
<trkpt lat="40.0717681" lon="-105.2286012">
  <ele>1583.0</ele>
  <time>2026-08-28T17:52:56Z</time>
  <course>251.99</course>
  <speed>4.97</speed>
  <fix>3d</fix>
</trkpt>
<trkpt lat="40.0717625" lon="-105.2286246">
  <ele>1582.99</ele>
  <time>2026-08-28T17:52:56Z</time>
  <course>252.97</course>
  <speed>4.715262452928787</speed>
  <fix>3d</fix>
</trkpt>
<trkpt lat="40.0717653" lon="-105.2286123">
  <ele>1583.0</ele>
  <time>2026-08-28T17:52:56Z</time>
  <course>251.96</course>
  <speed>4.88</speed>
  <fix>3d</fix>
</trkpt>
<trkpt lat="40.0717612" lon="-105.2286298">
  <ele>1582.99</ele>
  <time>2026-08-28T17:52:56Z</time>
  <course>252.91</course>
  <speed>4.623461906407362</speed>
  <fix>3d</fix>
</trkpt>
<trkpt lat="40.0717626" lon="-105.228623">
  <ele>1583.0</ele>
  <time>2026-08-28T17:52:56Z</time>
  <course>251.87</course>
  <speed>4.74</speed>
  <fix>3d</fix>
</trkpt>
<trkpt lat="40.0717599" lon="-105.2286349">
  <ele>1582.98</ele>
  <time>2026-08-28T17:52:56Z</time>
  <course>252.81</course>
  <speed>4.522167621838006</speed>
  <fix>3d</fix>
</trkpt>
<trkpt lat="40.0717626" lon="-105.228623">
  <ele>1583.0</ele>
  <time>2026-08-28T17:52:56Z</time>
  <course>251.87</course>
  <speed>4.74</speed>
  <fix>3d</fix>
</trkpt>
<trkpt lat="40.0717586" lon="-105.2286398">
  <ele>1582.98</ele>
  <time>2026-08-28T17:52:56Z</time>
  <course>252.69</course>
  <speed>4.420904884749275</speed>
  <fix>3d</fix>
</trkpt>
<trkpt lat="40.07176" lon="-105.2286334">
  <ele>1583.0</ele>
  <time>2026-08-28T17:52:56Z</time>
  <course>251.7</course>
  <speed>4.56</speed>
  <fix>3d</fix>
</trkpt>
<trkpt lat="40.0717573" lon="-105.2286447">
  <ele>1582.98</ele>
  <time>2026-08-28T17:52:56Z</time>
  <course>252.57</course>
  <speed>4.307040747427402</speed>
  <fix>3d</fix>
</trkpt>
<trkpt lat="40.07176" lon="-105.2286334">
  <ele>1583.0</ele>
  <time>2026-08-28T17:52:56Z</time>
  <course>251.7</course>
  <speed>4.56</speed>
  <fix>3d</fix>
</trkpt>
<trkpt lat="40.0717561" lon="-105.2286495">
  <ele>1582.98</ele>
  <time>2026-08-28T17:52:56Z</time>
  <course>252.4</course>
  <speed>4.18686039891468</speed>
  <fix>3d</fix>
</trkpt>
<trkpt lat="40.0717575" lon="-105.2286433">
  <ele>1583.0</ele>
  <time>2026-08-28T17:52:56Z</time>
  <course>251.44</course>
  <speed>4.34</speed>
  <fix>3d</fix>
</trkpt>
<trkpt lat="40.0717549" lon="-105.2286541">
  <ele>1582.98</ele>
  <time>2026-08-28T17:52:56Z</time>
  <course>252.23</course>
  <speed>4.0667677583063435</speed>
  <fix>3d</fix>
</trkpt>
<trkpt lat="40.0717575" lon="-105.2286433">
  <ele>1583.0</ele>
  <time>2026-08-28T17:52:56Z</time>
  <course>251.44</course>
  <speed>4.34</speed>
  <fix>3d</fix>
</trkpt>
<trkpt lat="40.0717537" lon="-105.2286586">
  <ele>1582.99</ele>
  <time>2026-08-28T17:52:56Z</time>
  <course>252.06</course>
  <speed>3.943513661698156</speed>
  <fix>3d</fix>
</trkpt>
<trkpt lat="40.0717551" lon="-105.2286527">
  <ele>1583.0</ele>
  <time>2026-08-28T17:52:56Z</time>
  <course>251.13</course>
  <speed>4.1</speed>
  <fix>3d</fix>
</trkpt>
<trkpt lat="40.0717525" lon="-105.2286629">
  <ele>1582.99</ele>
  <time>2026-08-28T17:52:56Z</time>
  <course>251.9</course>
  <speed>3.8108398024582453</speed>
  <fix>3d</fix>
</trkpt>
<trkpt lat="40.0717551" lon="-105.2286527">
  <ele>1583.0</ele>
  <time>2026-08-28T17:52:56Z</time>
  <course>251.13</course>
  <speed>4.1</speed>
  <fix>3d</fix>
</trkpt>
<trkpt lat="40.0717514" lon="-105.2286671">
  <ele>1582.99</ele>
  <time>2026-08-28T17:52:56Z</time>
  <course>251.7</course>
  <speed>3.68765508148471</speed>
  <fix>3d</fix>
</trkpt>
<trkpt lat="40.0717527" lon="-105.2286616">
  <ele>1583.0</ele>
  <time>2026-08-28T17:52:56Z</time>
  <course>250.78</course>
  <speed>3.85</speed>
  <fix>3d</fix>
</trkpt>
<trkpt lat="40.0717503" lon="-105.2286711">
  <ele>1582.99</ele>
  <time>2026-08-28T17:52:56Z</time>
  <course>251.5</course>
  <speed>3.5550808710914015</speed>
  <fix>3d</fix>
</trkpt>
<trkpt lat="40.0717527" lon="-105.2286616">
  <ele>1583.0</ele>
  <time>2026-08-28T17:52:56Z</time>
  <course>250.78</course>
  <speed>3.85</speed>
  <fix>3d</fix>
</trkpt>
<trkpt lat="40.0717492" lon="-105.228675">
  <ele>1582.99</ele>
  <time>2026-08-28T17:52:56Z</time>
  <course>251.31</course>
  <speed>3.42257213218363</speed>
  <fix>3d</fix>
</trkpt>
<trkpt lat="40.0717505" lon="-105.2286698">
  <ele>1583.0</ele>
  <time>2026-08-28T17:52:56Z</time>
  <course>250.4</course>
  <speed>3.59</speed>
  <fix>3d</fix>
</trkpt>
<trkpt lat="40.0717482" lon="-105.2286787">
  <ele>1582.99</ele>
  <time>2026-08-28T17:52:56Z</time>
  <course>251.13</course>
  <speed>3.29013677527242</speed>
  <fix>3d</fix>
</trkpt>
<trkpt lat="40.0717505" lon="-105.2286698">
  <ele>1583.0</ele>
  <time>2026-08-28T17:52:56Z</time>
  <course>250.4</course>
  <speed>3.59</speed>
  <fix>3d</fix>
</trkpt>
<trkpt lat="40.0717472" lon="-105.2286823">
  <ele>1582.99</ele>
  <time>2026-08-28T17:52:56Z</time>
  <course>250.91</course>
  <speed>3.1637003650788422</speed>
  <fix>3d</fix>
</trkpt>
<trkpt lat="40.0717484" lon="-105.2286775">
  <ele>1583.0</ele>
  <time>2026-08-28T17:52:56Z</time>
  <course>250.01</course>
  <speed>3.33</speed>
  <fix>3d</fix>
</trkpt>
<trkpt lat="40.0717462" lon="-105.2286857">
  <ele>1582.99</ele>
  <time>2026-08-28T17:52:56Z</time>
  <course>250.69</course>
  <speed>3.0313693275481954</speed>
  <fix>3d</fix>
</trkpt>
<trkpt lat="40.0717484" lon="-105.2286775">
  <ele>1583.0</ele>
  <time>2026-08-28T17:52:56Z</time>
  <course>250.01</course>
  <speed>3.33</speed>
  <fix>3d</fix>
</trkpt>
<trkpt lat="40.0717452" lon="-105.228689">
  <ele>1582.98</ele>
  <time>2026-08-28T17:52:56Z</time>
  <course>250.49</course>
  <speed>2.9084875794818172</speed>
  <fix>3d</fix>
</trkpt>
<trkpt lat="40.0717484" lon="-105.2286775">
  <ele>1583.0</ele>
  <time>2026-08-28T17:52:56Z</time>
  <course>250.01</course>
  <speed>3.33</speed>
  <fix>3d</fix>
</trkpt>
<trkpt lat="40.0717443" lon="-105.2286921">
  <ele>1582.98</ele>
  <time>2026-08-28T17:52:56Z</time>
  <course>250.29</course>
  <speed>2.785677655436824</speed>
  <fix>3d</fix>
</trkpt>
<trkpt lat="40.0717464" lon="-105.2286845">
  <ele>1583.0</ele>
  <time>2026-08-28T17:52:56Z</time>
  <course>249.59</course>
  <speed>3.08</speed>
  <fix>3d</fix>
</trkpt>
<trkpt lat="40.0717434" lon="-105.2286951">
  <ele>1582.98</ele>
  <time>2026-08-28T17:52:56Z</time>
  <course>250.07</course>
  <speed>2.659323222175146</speed>
  <fix>3d</fix>
</trkpt>
<trkpt lat="40.0717464" lon="-105.2286845">
  <ele>1583.0</ele>
  <time>2026-08-28T17:52:56Z</time>
  <course>249.59</course>
  <speed>3.08</speed>
  <fix>3d</fix>
</trkpt>
<trkpt lat="40.0717426" lon="-105.2286979">
  <ele>1582.99</ele>
  <time>2026-08-28T17:52:56Z</time>
  <course>249.88</course>
  <speed>2.555249498581303</speed>
  <fix>3d</fix>
</trkpt>
<trkpt lat="40.0717445" lon="-105.228691">
  <ele>1583.0</ele>
  <time>2026-08-28T17:52:56Z</time>
  <course>249.17</course>
  <speed>2.83</speed>
  <fix>3d</fix>
</trkpt>
<trkpt lat="40.0717417" lon="-105.2287006">
  <ele>1582.99</ele>
  <time>2026-08-28T17:52:56Z</time>
  <course>249.7</course>
  <speed>2.4827806991355477</speed>
  <fix>3d</fix>
</trkpt>
<trkpt lat="40.0717445" lon="-105.228691">
  <ele>1583.0</ele>
  <time>2026-08-28T17:52:56Z</time>
  <course>249.17</course>
  <speed>2.83</speed>
  <fix>3d</fix>
</trkpt>
<trkpt lat="40.0717409" lon="-105.2287033">
  <ele>1582.99</ele>
  <time>2026-08-28T17:52:56Z</time>
  <course>249.53</course>
  <speed>2.445608308785362</speed>
  <fix>3d</fix>
</trkpt>
<trkpt lat="40.0717427" lon="-105.228697">
  <ele>1583.0</ele>
  <time>2026-08-28T17:52:56Z</time>
  <course>248.78</course>
  <speed>2.62</speed>
  <fix>3d</fix>
</trkpt>
<trkpt lat="40.0717401" lon="-105.228706">
  <ele>1582.99</ele>
  <time>2026-08-28T17:52:56Z</time>
  <course>249.36</course>
  <speed>2.4270558296009592</speed>
  <fix>3d</fix>
</trkpt>
<trkpt lat="40.071741" lon="-105.2287026">
  <ele>1583.0</ele>
  <time>2026-08-28T17:52:56Z</time>
  <course>248.42</course>
  <speed>2.51</speed>
  <fix>3d</fix>
</trkpt>
<trkpt lat="40.0717393" lon="-105.2287086">
  <ele>1582.99</ele>
  <time>2026-08-28T17:52:56Z</time>
  <course>249.19</course>
  <speed>2.4400819658363937</speed>
  <fix>3d</fix>
</trkpt>
<trkpt lat="40.071741" lon="-105.2287026">
  <ele>1583.0</ele>
  <time>2026-08-28T17:52:56Z</time>
  <course>248.42</course>
  <speed>2.51</speed>
  <fix>3d</fix>
</trkpt>
<trkpt lat="40.0717384" lon="-105.2287113">
  <ele>1582.99</ele>
  <time>2026-08-28T17:52:56Z</time>
  <course>249.05</course>
  <speed>2.4846730167166866</speed>
  <fix>3d</fix>
</trkpt>
<trkpt lat="40.0717394" lon="-105.2287081">
  <ele>1583.0</ele>
  <time>2026-08-28T17:52:56Z</time>
  <course>248.09</course>
  <speed>2.51</speed>
  <fix>3d</fix>
</trkpt>
<trkpt lat="40.0717375" lon="-105.2287141">
  <ele>1582.99</ele>
  <time>2026-08-28T17:52:56Z</time>
  <course>248.91</course>
  <speed>2.5477833502870686</speed>
  <fix>3d</fix>
</trkpt>
<trkpt lat="40.0717394" lon="-105.2287081">
  <ele>1583.0</ele>
  <time>2026-08-28T17:52:56Z</time>
  <course>248.09</course>
  <speed>2.51</speed>
  <fix>3d</fix>
</trkpt>
<trkpt lat="40.0717367" lon="-105.228717">
  <ele>1582.99</ele>
  <time>2026-08-28T17:52:56Z</time>
  <course>248.77</course>
  <speed>2.6277176408434753</speed>
  <fix>3d</fix>
</trkpt>
<trkpt lat="40.0717377" lon="-105.2287136">
  <ele>1583.0</ele>
  <time>2026-08-28T17:52:56Z</time>
  <course>247.79</course>
  <speed>2.61</speed>
  <fix>3d</fix>
</trkpt>
<trkpt lat="40.0717357" lon="-105.2287199">
  <ele>1583.0</ele>
  <time>2026-08-28T17:52:56Z</time>
  <course>248.65</course>
  <speed>2.72237029075767</speed>
  <fix>3d</fix>
</trkpt>
<trkpt lat="40.0717377" lon="-105.2287136">
  <ele>1583.0</ele>
  <time>2026-08-28T17:52:56Z</time>
  <course>247.79</course>
  <speed>2.61</speed>
  <fix>3d</fix>
</trkpt>
<trkpt lat="40.0717347" lon="-105.228723">
  <ele>1583.0</ele>
  <time>2026-08-28T17:52:56Z</time>
  <course>248.54</course>
  <speed>2.833866616480035</speed>
  <fix>3d</fix>
</trkpt>
<trkpt lat="40.0717358" lon="-105.2287195">
  <ele>1583.0</ele>
  <time>2026-08-28T17:52:56Z</time>
  <course>247.53</course>
  <speed>2.78</speed>
  <fix>3d</fix>
</trkpt>
<trkpt lat="40.0717337" lon="-105.2287263">
  <ele>1583.0</ele>
  <time>2026-08-28T17:52:56Z</time>
  <course>248.42</course>
  <speed>2.954623495472816</speed>
  <fix>3d</fix>
</trkpt>
<trkpt lat="40.0717358" lon="-105.2287195">
  <ele>1583.0</ele>
  <time>2026-08-28T17:52:56Z</time>
  <course>247.53</course>
  <speed>2.78</speed>
  <fix>3d</fix>
</trkpt>
<trkpt lat="40.0717327" lon="-105.2287296">
  <ele>1583.01</ele>
  <time>2026-08-28T17:52:56Z</time>
  <course>248.32</course>
  <speed>3.0753861546153844</speed>
  <fix>3d</fix>
</trkpt>
<trkpt lat="40.0717338" lon="-105.2287258">
  <ele>1583.0</ele>
  <time>2026-08-28T17:52:56Z</time>
  <course>247.3</course>
  <speed>3.0</speed>
  <fix>3d</fix>
</trkpt>
<trkpt lat="40.0717315" lon="-105.2287331">
  <ele>1583.01</ele>
  <time>2026-08-28T17:52:56Z</time>
  <course>248.23</course>
  <speed>3.2146228394634413</speed>
  <fix>3d</fix>
</trkpt>
<trkpt lat="40.0717338" lon="-105.2287258">
  <ele>1583.0</ele>
  <time>2026-08-28T17:52:56Z</time>
  <course>247.3</course>
  <speed>3.0</speed>
  <fix>3d</fix>
</trkpt>
<trkpt lat="40.0717304" lon="-105.2287368">
  <ele>1583.01</ele>
  <time>2026-08-28T17:52:56Z</time>
  <course>248.14</course>
  <speed>3.344622549705721</speed>
  <fix>3d</fix>
</trkpt>
<trkpt lat="40.0717317" lon="-105.2287326">
  <ele>1583.0</ele>
  <time>2026-08-28T17:52:56Z</time>
  <course>247.1</course>
  <speed>3.25</speed>
  <fix>3d</fix>
</trkpt>
<trkpt lat="40.0717292" lon="-105.2287406">
  <ele>1583.01</ele>
  <time>2026-08-28T17:52:56Z</time>
  <course>248.05</course>
  <speed>3.4876926470089074</speed>
  <fix>3d</fix>
</trkpt>
<trkpt lat="40.0717317" lon="-105.2287326">
  <ele>1583.0</ele>
  <time>2026-08-28T17:52:56Z</time>
  <course>247.1</course>
  <speed>3.25</speed>
  <fix>3d</fix>
</trkpt>
<trkpt lat="40.0717279" lon="-105.2287445">
  <ele>1583.02</ele>
  <time>2026-08-28T17:52:56Z</time>
  <course>247.96</course>
  <speed>3.617692634815733</speed>
  <fix>3d</fix>
</trkpt>
<trkpt lat="40.0717293" lon="-105.2287398">
  <ele>1583.0</ele>
  <time>2026-08-28T17:52:56Z</time>
  <course>246.91</course>
  <speed>3.52</speed>
  <fix>3d</fix>
</trkpt>
<trkpt lat="40.0717266" lon="-105.2287486">
  <ele>1583.01</ele>
  <time>2026-08-28T17:52:56Z</time>
  <course>247.87</course>
  <speed>3.751546347841114</speed>
  <fix>3d</fix>
</trkpt>
<trkpt lat="40.0717293" lon="-105.2287398">
  <ele>1583.0</ele>
  <time>2026-08-28T17:52:56Z</time>
  <course>246.91</course>
  <speed>3.52</speed>
  <fix>3d</fix>
</trkpt>
<trkpt lat="40.0717252" lon="-105.2287528">
  <ele>1583.01</ele>
  <time>2026-08-28T17:52:56Z</time>
  <course>247.8</course>
  <speed>3.8815460837145808</speed>
  <fix>3d</fix>
</trkpt>
<trkpt lat="40.0717293" lon="-105.2287398">
  <ele>1583.0</ele>
  <time>2026-08-28T17:52:56Z</time>
  <course>246.91</course>
  <speed>3.52</speed>
  <fix>3d</fix>
</trkpt>
<trkpt lat="40.0717238" lon="-105.2287571">
  <ele>1583.02</ele>
  <time>2026-08-28T17:52:56Z</time>
  <course>247.74</course>
  <speed>4.011545836706842</speed>
  <fix>3d</fix>
</trkpt>
<trkpt lat="40.0717267" lon="-105.2287477">
  <ele>1583.0</ele>
  <time>2026-08-28T17:52:56Z</time>
  <course>246.74</course>
  <speed>3.78</speed>
  <fix>3d</fix>
</trkpt>
<trkpt lat="40.0717224" lon="-105.2287616">
  <ele>1583.02</ele>
  <time>2026-08-28T17:52:56Z</time>
  <course>247.68</course>
  <speed>4.132323801446348</speed>
  <fix>3d</fix>
</trkpt>
<trkpt lat="40.0717267" lon="-105.2287477">
  <ele>1583.0</ele>
  <time>2026-08-28T17:52:56Z</time>
  <course>246.74</course>
  <speed>3.78</speed>
  <fix>3d</fix>
</trkpt>
<trkpt lat="40.0717209" lon="-105.2287661">
  <ele>1583.02</ele>
  <time>2026-08-28T17:52:56Z</time>
  <course>247.62</course>
  <speed>4.253104748298588</speed>
  <fix>3d</fix>
</trkpt>
<trkpt lat="40.0717239" lon="-105.2287562">
  <ele>1583.0</ele>
  <time>2026-08-28T17:52:56Z</time>
  <course>246.6</course>
  <speed>4.03</speed>
  <fix>3d</fix>
</trkpt>
<trkpt lat="40.0717193" lon="-105.2287708">
  <ele>1583.02</ele>
  <time>2026-08-28T17:52:56Z</time>
  <course>247.56</course>
  <speed>4.36467639121161</speed>
  <fix>3d</fix>
</trkpt>
<trkpt lat="40.0717239" lon="-105.2287562">
  <ele>1583.0</ele>
  <time>2026-08-28T17:52:56Z</time>
  <course>246.6</course>
  <speed>4.03</speed>
  <fix>3d</fix>
</trkpt>
<trkpt lat="40.0717178" lon="-105.2287756">
  <ele>1583.03</ele>
  <time>2026-08-28T17:52:56Z</time>
  <course>247.49</course>
  <speed>4.472359556207439</speed>
  <fix>3d</fix>
</trkpt>
<trkpt lat="40.0717209" lon="-105.2287652">
  <ele>1583.0</ele>
  <time>2026-08-28T17:52:56Z</time>
  <course>246.49</course>
  <speed>4.27</speed>
  <fix>3d</fix>
</trkpt>
<trkpt lat="40.0717161" lon="-105.2287805">
  <ele>1583.03</ele>
  <time>2026-08-28T17:52:56Z</time>
  <course>247.42</course>
  <speed>4.583939353874569</speed>
  <fix>3d</fix>
</trkpt>
<trkpt lat="40.0717178" lon="-105.2287746">
  <ele>1583.0</ele>
  <time>2026-08-28T17:52:56Z</time>
  <course>246.37</course>
  <speed>4.49</speed>
  <fix>3d</fix>
</trkpt>
<trkpt lat="40.0717144" lon="-105.2287856">
  <ele>1583.03</ele>
  <time>2026-08-28T17:52:56Z</time>
  <course>247.35</course>
  <speed>4.682413907377262</speed>
  <fix>3d</fix>
</trkpt>
<trkpt lat="40.0717178" lon="-105.2287746">
  <ele>1583.0</ele>
  <time>2026-08-28T17:52:56Z</time>
  <course>246.37</course>
  <speed>4.49</speed>
  <fix>3d</fix>
</trkpt>
<trkpt lat="40.0717127" lon="-105.2287908">
  <ele>1583.03</ele>
  <time>2026-08-28T17:52:56Z</time>
  <course>247.28</course>
  <speed>4.7848092960953</speed>
  <fix>3d</fix>
</trkpt>
<trkpt lat="40.0717145" lon="-105.2287845">
  <ele>1583.0</ele>
  <time>2026-08-28T17:52:56Z</time>
  <course>246.24</course>
  <speed>4.69</speed>
  <fix>3d</fix>
</trkpt>
<trkpt lat="40.071711" lon="-105.228796">
  <ele>1583.03</ele>
  <time>2026-08-28T17:52:56Z</time>
  <course>247.24</course>
  <speed>4.8832878268641915</speed>
  <fix>3d</fix>
</trkpt>
<trkpt lat="40.0717145" lon="-105.2287845">
  <ele>1583.0</ele>
  <time>2026-08-28T17:52:56Z</time>
  <course>246.24</course>
  <speed>4.69</speed>
  <fix>3d</fix>
</trkpt>
<trkpt lat="40.0717092" lon="-105.2288014">
  <ele>1583.03</ele>
  <time>2026-08-28T17:52:56Z</time>
  <course>247.19</course>
  <speed>4.972574785762402</speed>
  <fix>3d</fix>
</trkpt>
<trkpt lat="40.071711" lon="-105.2287948">
  <ele>1583.0</ele>
  <time>2026-08-28T17:52:56Z</time>
  <course>246.15</course>
  <speed>4.88</speed>
  <fix>3d</fix>
</trkpt>
<trkpt lat="40.0717073" lon="-105.2288069">
  <ele>1583.03</ele>
  <time>2026-08-28T17:52:56Z</time>
  <course>247.16</course>
  <speed>5.061867244406949</speed>
  <fix>3d</fix>
</trkpt>
<trkpt lat="40.071711" lon="-105.2287948">
  <ele>1583.0</ele>
  <time>2026-08-28T17:52:56Z</time>
  <course>246.15</course>
  <speed>4.88</speed>
  <fix>3d</fix>
</trkpt>
<trkpt lat="40.0717054" lon="-105.2288124">
  <ele>1583.03</ele>
  <time>2026-08-28T17:52:56Z</time>
  <course>247.15</course>
  <speed>5.14721283803186</speed>
  <fix>3d</fix>
</trkpt>
<trkpt lat="40.0717074" lon="-105.2288055">
  <ele>1583.0</ele>
  <time>2026-08-28T17:52:56Z</time>
  <course>246.1</course>
  <speed>5.06</speed>
  <fix>3d</fix>
</trkpt>
<trkpt lat="40.0717035" lon="-105.2288181">
  <ele>1583.03</ele>
  <time>2026-08-28T17:52:56Z</time>
  <course>247.14</course>
  <speed>5.223370559322783</speed>
  <fix>3d</fix>
</trkpt>
<trkpt lat="40.0717074" lon="-105.2288055">
  <ele>1583.0</ele>
  <time>2026-08-28T17:52:56Z</time>
  <course>246.1</course>
  <speed>5.06</speed>
  <fix>3d</fix>
</trkpt>
<trkpt lat="40.0717016" lon="-105.2288239">
  <ele>1583.03</ele>
  <time>2026-08-28T17:52:56Z</time>
  <course>247.13</course>
  <speed>5.290340253707695</speed>
  <fix>3d</fix>
</trkpt>
<trkpt lat="40.0717037" lon="-105.2288165">
  <ele>1583.0</ele>
  <time>2026-08-28T17:52:56Z</time>
  <course>246.09</course>
  <speed>5.21</speed>
  <fix>3d</fix>
</trkpt>
<trkpt lat="40.0716996" lon="-105.2288297">
  <ele>1583.03</ele>
  <time>2026-08-28T17:52:56Z</time>
  <course>247.11</course>
  <speed>5.334988284898103</speed>
  <fix>3d</fix>
</trkpt>
<trkpt lat="40.0717037" lon="-105.2288165">
  <ele>1583.0</ele>
  <time>2026-08-28T17:52:56Z</time>
  <course>246.09</course>
  <speed>5.21</speed>
  <fix>3d</fix>
</trkpt>
<trkpt lat="40.0716977" lon="-105.2288355">
  <ele>1583.03</ele>
  <time>2026-08-28T17:52:56Z</time>
  <course>247.1</course>
  <speed>5.366497926953852</speed>
  <fix>3d</fix>
</trkpt>
<trkpt lat="40.0716998" lon="-105.2288279">
  <ele>1583.0</ele>
  <time>2026-08-28T17:52:56Z</time>
  <course>246.09</course>
  <speed>5.31</speed>
  <fix>3d</fix>
</trkpt>
<trkpt lat="40.0716957" lon="-105.2288413">
  <ele>1583.03</ele>
  <time>2026-08-28T17:52:56Z</time>
  <course>247.09</course>
  <speed>5.3888217636140086</speed>
  <fix>3d</fix>
</trkpt>
<trkpt lat="40.0716998" lon="-105.2288279">
  <ele>1583.0</ele>
  <time>2026-08-28T17:52:56Z</time>
  <course>246.09</course>
  <speed>5.31</speed>
  <fix>3d</fix>
</trkpt>
<trkpt lat="40.0716937" lon="-105.2288472">
  <ele>1583.03</ele>
  <time>2026-08-28T17:52:56Z</time>
  <course>247.08</course>
  <speed>5.401962606312635</speed>
  <fix>3d</fix>
</trkpt>
<trkpt lat="40.0716959" lon="-105.2288393">
  <ele>1583.0</ele>
  <time>2026-08-28T17:52:56Z</time>
  <course>246.09</course>
  <speed>5.36</speed>
  <fix>3d</fix>
</trkpt>
<trkpt lat="40.0716917" lon="-105.228853">
  <ele>1583.03</ele>
  <time>2026-08-28T17:52:56Z</time>
  <course>247.07</course>
  <speed>5.401962606312635</speed>
  <fix>3d</fix>
</trkpt>
<trkpt lat="40.0716959" lon="-105.2288393">
  <ele>1583.0</ele>
  <time>2026-08-28T17:52:56Z</time>
  <course>246.09</course>
  <speed>5.36</speed>
  <fix>3d</fix>
</trkpt>
<trkpt lat="40.0716897" lon="-105.2288588">
  <ele>1583.03</ele>
  <time>2026-08-28T17:52:56Z</time>
  <course>247.06</course>
  <speed>5.392782213292134</speed>
  <fix>3d</fix>
</trkpt>
<trkpt lat="40.0716959" lon="-105.2288393">
  <ele>1583.0</ele>
  <time>2026-08-28T17:52:56Z</time>
  <course>246.09</course>
  <speed>5.36</speed>
  <fix>3d</fix>
</trkpt>
<trkpt lat="40.0716878" lon="-105.2288646">
  <ele>1583.03</ele>
  <time>2026-08-28T17:52:56Z</time>
  <course>247.05</course>
  <speed>5.370456218981773</speed>
  <fix>3d</fix>
</trkpt>
<trkpt lat="40.071692" lon="-105.2288509">
  <ele>1583.0</ele>
  <time>2026-08-28T17:52:56Z</time>
  <course>246.09</course>
  <speed>5.37</speed>
  <fix>3d</fix>
</trkpt>
<trkpt lat="40.0716858" lon="-105.2288703">
  <ele>1583.03</ele>
  <time>2026-08-28T17:52:56Z</time>
  <course>247.04</course>
  <speed>5.352102390649865</speed>
  <fix>3d</fix>
</trkpt>
<trkpt lat="40.071692" lon="-105.2288509">
  <ele>1583.0</ele>
  <time>2026-08-28T17:52:56Z</time>
  <course>246.09</course>
  <speed>5.37</speed>
  <fix>3d</fix>
</trkpt>
<trkpt lat="40.0716839" lon="-105.228876">
  <ele>1583.03</ele>
  <time>2026-08-28T17:52:56Z</time>
  <course>247.04</course>
  <speed>5.329774854531849</speed>
  <fix>3d</fix>
</trkpt>
<trkpt lat="40.0716881" lon="-105.2288624">
  <ele>1583.0</ele>
  <time>2026-08-28T17:52:56Z</time>
  <course>246.09</course>
  <speed>5.35</speed>
  <fix>3d</fix>
</trkpt>
<trkpt lat="40.071682" lon="-105.2288817">
  <ele>1583.03</ele>
  <time>2026-08-28T17:52:56Z</time>
  <course>247.03</course>
  <speed>5.2982733036339305</speed>
  <fix>3d</fix>
</trkpt>
<trkpt lat="40.0716881" lon="-105.2288624">
  <ele>1583.0</ele>
  <time>2026-08-28T17:52:56Z</time>
  <course>246.09</course>
  <speed>5.35</speed>
  <fix>3d</fix>
</trkpt>
<trkpt lat="40.0716801" lon="-105.2288873">
  <ele>1583.02</ele>
  <time>2026-08-28T17:52:56Z</time>
  <course>247.02</course>
  <speed>5.26677320567347</speed>
  <fix>3d</fix>
</trkpt>
<trkpt lat="40.0716842" lon="-105.2288739">
  <ele>1583.0</ele>
  <time>2026-08-28T17:52:56Z</time>
  <course>246.09</course>
  <speed>5.31</speed>
  <fix>3d</fix>
</trkpt>
<trkpt lat="40.0716782" lon="-105.2288928">
  <ele>1583.02</ele>
  <time>2026-08-28T17:52:56Z</time>
  <course>247.01</course>
  <speed>5.2352745868769865</speed>
  <fix>3d</fix>
</trkpt>
<trkpt lat="40.0716842" lon="-105.2288739">
  <ele>1583.0</ele>
  <time>2026-08-28T17:52:56Z</time>
  <course>246.09</course>
  <speed>5.31</speed>
  <fix>3d</fix>
</trkpt>
<trkpt lat="40.0716763" lon="-105.2288984">
  <ele>1583.02</ele>
  <time>2026-08-28T17:52:56Z</time>
  <course>247.01</course>
  <speed>5.203777474104749</speed>
  <fix>3d</fix>
</trkpt>
<trkpt lat="40.0716804" lon="-105.2288852">
  <ele>1583.0</ele>
  <time>2026-08-28T17:52:56Z</time>
  <course>246.09</course>
  <speed>5.26</speed>
  <fix>3d</fix>
</trkpt>
<trkpt lat="40.0716744" lon="-105.2289039">
  <ele>1583.02</ele>
  <time>2026-08-28T17:52:56Z</time>
  <course>247.0</course>
  <speed>5.168287917676414</speed>
  <fix>3d</fix>
</trkpt>
<trkpt lat="40.0716765" lon="-105.2288964">
  <ele>1583.0</ele>
  <time>2026-08-28T17:52:56Z</time>
  <course>246.09</course>
  <speed>5.2</speed>
  <fix>3d</fix>
</trkpt>
<trkpt lat="40.0716725" lon="-105.2289094">
  <ele>1583.02</ele>
  <time>2026-08-28T17:52:56Z</time>
  <course>247.0</course>
  <speed>5.136788880224688</speed>
  <fix>3d</fix>
</trkpt>
<trkpt lat="40.0716765" lon="-105.2288964">
  <ele>1583.0</ele>
  <time>2026-08-28T17:52:56Z</time>
  <course>246.09</course>
  <speed>5.2</speed>
  <fix>3d</fix>
</trkpt>
<trkpt lat="40.0716706" lon="-105.2289149">
  <ele>1583.02</ele>
  <time>2026-08-28T17:52:56Z</time>
  <course>246.99</course>
  <speed>5.114459893282966</speed>
  <fix>3d</fix>
</trkpt>
<trkpt lat="40.0716728" lon="-105.2289075">
  <ele>1583.0</ele>
  <time>2026-08-28T17:52:56Z</time>
  <course>246.09</course>
  <speed>5.14</speed>
  <fix>3d</fix>
</trkpt>
<trkpt lat="40.0716688" lon="-105.2289204">
  <ele>1583.02</ele>
  <time>2026-08-28T17:52:56Z</time>
  <course>246.99</course>
  <speed>5.086963730949927</speed>
  <fix>3d</fix>
</trkpt>
<trkpt lat="40.0716728" lon="-105.2289075">
  <ele>1583.0</ele>
  <time>2026-08-28T17:52:56Z</time>
  <course>246.09</course>
  <speed>5.14</speed>
  <fix>3d</fix>
</trkpt>
<trkpt lat="40.0716669" lon="-105.2289258">
  <ele>1583.02</ele>
  <time>2026-08-28T17:52:56Z</time>
  <course>246.99</course>
  <speed>5.064632267006164</speed>
  <fix>3d</fix>
</trkpt>
<trkpt lat="40.071669" lon="-105.2289185">
  <ele>1583.0</ele>
  <time>2026-08-28T17:52:56Z</time>
  <course>246.09</course>
  <speed>5.09</speed>
  <fix>3d</fix>
</trkpt>
<trkpt lat="40.071665" lon="-105.2289313">
  <ele>1583.02</ele>
  <time>2026-08-28T17:52:56Z</time>
  <course>246.98</course>
  <speed>5.042301062015238</speed>
  <fix>3d</fix>
</trkpt>
<trkpt lat="40.071669" lon="-105.2289185">
  <ele>1583.0</ele>
  <time>2026-08-28T17:52:56Z</time>
  <course>246.09</course>
  <speed>5.09</speed>
  <fix>3d</fix>
</trkpt>
<trkpt lat="40.0716632" lon="-105.2289367">
  <ele>1583.02</ele>
  <time>2026-08-28T17:52:56Z</time>
  <course>246.98</course>
  <speed>5.019970119432983</speed>
  <fix>3d</fix>
</trkpt>
<trkpt lat="40.0716653" lon="-105.2289294">
  <ele>1583.0</ele>
  <time>2026-08-28T17:52:56Z</time>
  <course>246.09</course>
  <speed>5.05</speed>
  <fix>3d</fix>
</trkpt>
<trkpt lat="40.0716613" lon="-105.2289421">
  <ele>1583.02</ele>
  <time>2026-08-28T17:52:56Z</time>
  <course>246.98</course>
  <speed>5.010808318026145</speed>
  <fix>3d</fix>
</trkpt>
<trkpt lat="40.0716653" lon="-105.2289294">
  <ele>1583.0</ele>
  <time>2026-08-28T17:52:56Z</time>
  <course>246.09</course>
  <speed>5.05</speed>
  <fix>3d</fix>
</trkpt>
<trkpt lat="40.0716595" lon="-105.2289475">
  <ele>1583.02</ele>
  <time>2026-08-28T17:52:56Z</time>
  <course>246.98</course>
  <speed>4.988476721405043</speed>
  <fix>3d</fix>
</trkpt>
<trkpt lat="40.0716617" lon="-105.2289402">
  <ele>1583.0</ele>
  <time>2026-08-28T17:52:56Z</time>
  <course>246.09</course>
  <speed>5.01</speed>
  <fix>3d</fix>
</trkpt>
<trkpt lat="40.0716577" lon="-105.2289529">
  <ele>1583.02</ele>
  <time>2026-08-28T17:52:56Z</time>
  <course>246.98</course>
  <speed>4.979317222270539</speed>
  <fix>3d</fix>
</trkpt>
<trkpt lat="40.0716617" lon="-105.2289402">
  <ele>1583.0</ele>
  <time>2026-08-28T17:52:56Z</time>
  <course>246.09</course>
  <speed>5.01</speed>
  <fix>3d</fix>
</trkpt>
<trkpt lat="40.0716558" lon="-105.2289582">
  <ele>1583.02</ele>
  <time>2026-08-28T17:52:56Z</time>
  <course>246.98</course>
  <speed>4.966145386514575</speed>
  <fix>3d</fix>
</trkpt>
<trkpt lat="40.0716581" lon="-105.2289509">
  <ele>1583.0</ele>
  <time>2026-08-28T17:52:56Z</time>
  <course>246.09</course>
  <speed>4.98</speed>
  <fix>3d</fix>
</trkpt>
<trkpt lat="40.071654" lon="-105.2289636">
  <ele>1583.02</ele>
  <time>2026-08-28T17:52:56Z</time>
  <course>246.97</course>
  <speed>4.956984970725653</speed>
  <fix>3d</fix>
</trkpt>
<trkpt lat="40.0716581" lon="-105.2289509">
  <ele>1583.0</ele>
  <time>2026-08-28T17:52:56Z</time>
  <course>246.09</course>
  <speed>4.98</speed>
  <fix>3d</fix>
</trkpt>
<trkpt lat="40.0716522" lon="-105.2289689">
  <ele>1583.02</ele>
  <time>2026-08-28T17:52:56Z</time>
  <course>246.97</course>
  <speed>4.947827806219614</speed>
  <fix>3d</fix>
</trkpt>
<trkpt lat="40.0716545" lon="-105.2289616">
  <ele>1583.0</ele>
  <time>2026-08-28T17:52:56Z</time>
  <course>246.09</course>
  <speed>4.96</speed>
  <fix>3d</fix>
</trkpt>
<trkpt lat="40.0716504" lon="-105.2289742">
  <ele>1583.02</ele>
  <time>2026-08-28T17:52:56Z</time>
  <course>246.97</course>
  <speed>4.947827806219614</speed>
  <fix>3d</fix>
</trkpt>
<trkpt lat="40.0716545" lon="-105.2289616">
  <ele>1583.0</ele>
  <time>2026-08-28T17:52:56Z</time>
  <course>246.09</course>
  <speed>4.96</speed>
  <fix>3d</fix>
</trkpt>
<trkpt lat="40.0716486" lon="-105.2289796">
  <ele>1583.02</ele>
  <time>2026-08-28T17:52:56Z</time>
  <course>246.98</course>
  <speed>4.9386739110818</speed>
  <fix>3d</fix>
</trkpt>
<trkpt lat="40.0716545" lon="-105.2289616">
  <ele>1583.0</ele>
  <time>2026-08-28T17:52:56Z</time>
  <course>246.09</course>
  <speed>4.96</speed>
  <fix>3d</fix>
</trkpt>
<trkpt lat="40.0716468" lon="-105.2289848">
  <ele>1583.02</ele>
  <time>2026-08-28T17:52:56Z</time>
  <course>246.98</course>
  <speed>4.9346529766539815</speed>
  <fix>3d</fix>
</trkpt>
<trkpt lat="40.0716508" lon="-105.2289723">
  <ele>1583.0</ele>
  <time>2026-08-28T17:52:56Z</time>
  <course>246.09</course>
  <speed>4.95</speed>
  <fix>3d</fix>
</trkpt>
<trkpt lat="40.071645" lon="-105.2289901">
  <ele>1583.01</ele>
  <time>2026-08-28T17:52:56Z</time>
  <course>246.98</course>
  <speed>4.9346529766539815</speed>
  <fix>3d</fix>
</trkpt>
<trkpt lat="40.0716508" lon="-105.2289723">
  <ele>1583.0</ele>
  <time>2026-08-28T17:52:56Z</time>
  <course>246.09</course>
  <speed>4.95</speed>
  <fix>3d</fix>
</trkpt>
<trkpt lat="40.0716432" lon="-105.2289954">
  <ele>1583.02</ele>
  <time>2026-08-28T17:52:56Z</time>
  <course>246.98</course>
  <speed>4.9346529766539815</speed>
  <fix>3d</fix>
</trkpt>
<trkpt lat="40.0716472" lon="-105.2289828">
  <ele>1583.0</ele>
  <time>2026-08-28T17:52:56Z</time>
  <course>246.09</course>
  <speed>4.94</speed>
  <fix>3d</fix>
</trkpt>
<trkpt lat="40.0716414" lon="-105.2290006">
  <ele>1583.02</ele>
  <time>2026-08-28T17:52:56Z</time>
  <course>246.98</course>
  <speed>4.9346529766539815</speed>
  <fix>3d</fix>
</trkpt>
<trkpt lat="40.0716472" lon="-105.2289828">
  <ele>1583.0</ele>
  <time>2026-08-28T17:52:56Z</time>
  <course>246.09</course>
  <speed>4.94</speed>
  <fix>3d</fix>
</trkpt>
<trkpt lat="40.0716396" lon="-105.2290058">
  <ele>1583.02</ele>
  <time>2026-08-28T17:52:56Z</time>
  <course>246.98</course>
  <speed>4.9346529766539815</speed>
  <fix>3d</fix>
</trkpt>
<trkpt lat="40.0716436" lon="-105.2289935">
  <ele>1583.0</ele>
  <time>2026-08-28T17:52:56Z</time>
  <course>246.09</course>
  <speed>4.95</speed>
  <fix>3d</fix>
</trkpt>
<trkpt lat="40.0716378" lon="-105.2290111">
  <ele>1583.01</ele>
  <time>2026-08-28T17:52:56Z</time>
  <course>246.98</course>
  <speed>4.9346529766539815</speed>
  <fix>3d</fix>
</trkpt>
<trkpt lat="40.0716399" lon="-105.2290041">
  <ele>1583.0</ele>
  <time>2026-08-28T17:52:56Z</time>
  <course>246.09</course>
  <speed>4.95</speed>
  <fix>3d</fix>
</trkpt>
<trkpt lat="40.071636" lon="-105.2290164">
  <ele>1583.01</ele>
  <time>2026-08-28T17:52:56Z</time>
  <course>246.98</course>
  <speed>4.9386739110818</speed>
  <fix>3d</fix>
</trkpt>
<trkpt lat="40.0716399" lon="-105.2290041">
  <ele>1583.0</ele>
  <time>2026-08-28T17:52:56Z</time>
  <course>246.09</course>
  <speed>4.95</speed>
  <fix>3d</fix>
</trkpt>
<trkpt lat="40.0716342" lon="-105.2290217">
  <ele>1583.01</ele>
  <time>2026-08-28T17:52:56Z</time>
  <course>246.98</course>
  <speed>4.947827806219614</speed>
  <fix>3d</fix>
</trkpt>
<trkpt lat="40.0716363" lon="-105.2290148">
  <ele>1583.0</ele>
  <time>2026-08-28T17:52:56Z</time>
  <course>246.09</course>
  <speed>4.96</speed>
  <fix>3d</fix>
</trkpt>
<trkpt lat="40.0716324" lon="-105.229027">
  <ele>1583.01</ele>
  <time>2026-08-28T17:52:56Z</time>
  <course>246.98</course>
  <speed>4.947827806219614</speed>
  <fix>3d</fix>
</trkpt>
<trkpt lat="40.0716363" lon="-105.2290148">
  <ele>1583.0</ele>
  <time>2026-08-28T17:52:56Z</time>
  <course>246.09</course>
  <speed>4.96</speed>
  <fix>3d</fix>
</trkpt>
<trkpt lat="40.0716306" lon="-105.2290324">
  <ele>1583.01</ele>
  <time>2026-08-28T17:52:56Z</time>
  <course>246.98</course>
  <speed>4.956984970725653</speed>
  <fix>3d</fix>
</trkpt>
<trkpt lat="40.0716327" lon="-105.2290254">
  <ele>1583.0</ele>
  <time>2026-08-28T17:52:56Z</time>
  <course>246.09</course>
  <speed>4.97</speed>
  <fix>3d</fix>
</trkpt>
<trkpt lat="40.0716287" lon="-105.2290377">
  <ele>1583.01</ele>
  <time>2026-08-28T17:52:56Z</time>
  <course>246.99</course>
  <speed>4.961007962098026</speed>
  <fix>3d</fix>
</trkpt>
<trkpt lat="40.0716327" lon="-105.2290254">
  <ele>1583.0</ele>
  <time>2026-08-28T17:52:56Z</time>
  <course>246.09</course>
  <speed>4.97</speed>
  <fix>3d</fix>
</trkpt>
<trkpt lat="40.0716269" lon="-105.2290431">
  <ele>1583.01</ele>
  <time>2026-08-28T17:52:56Z</time>
  <course>246.99</course>
  <speed>4.970160963188214</speed>
  <fix>3d</fix>
</trkpt>
<trkpt lat="40.0716291" lon="-105.2290361">
  <ele>1583.0</ele>
  <time>2026-08-28T17:52:56Z</time>
  <course>246.09</course>
  <speed>4.98</speed>
  <fix>3d</fix>
</trkpt>
<trkpt lat="40.0716251" lon="-105.2290485">
  <ele>1583.0</ele>
  <time>2026-08-28T17:52:56Z</time>
  <course>246.99</course>
  <speed>4.970160963188214</speed>
  <fix>3d</fix>
</trkpt>
<trkpt lat="40.0716291" lon="-105.2290361">
  <ele>1583.0</ele>
  <time>2026-08-28T17:52:56Z</time>
  <course>246.09</course>
  <speed>4.98</speed>
  <fix>3d</fix>
</trkpt>
<trkpt lat="40.0716232" lon="-105.2290539">
  <ele>1583.0</ele>
  <time>2026-08-28T17:52:56Z</time>
  <course>246.99</course>
  <speed>4.979317222270539</speed>
  <fix>3d</fix>
</trkpt>
<trkpt lat="40.0716255" lon="-105.2290468">
  <ele>1583.0</ele>
  <time>2026-08-28T17:52:56Z</time>
  <course>246.09</course>
  <speed>4.99</speed>
  <fix>3d</fix>
</trkpt>
<trkpt lat="40.0716214" lon="-105.2290593">
  <ele>1583.0</ele>
  <time>2026-08-28T17:52:56Z</time>
  <course>246.99</course>
  <speed>4.983342251942966</speed>
  <fix>3d</fix>
</trkpt>
<trkpt lat="40.0716255" lon="-105.2290468">
  <ele>1583.0</ele>
  <time>2026-08-28T17:52:56Z</time>
  <course>246.09</course>
  <speed>4.99</speed>
  <fix>3d</fix>
</trkpt>
<trkpt lat="40.0716196" lon="-105.2290647">
  <ele>1583.0</ele>
  <time>2026-08-28T17:52:56Z</time>
  <course>246.99</course>
  <speed>4.983342251942966</speed>
  <fix>3d</fix>
</trkpt>
<trkpt lat="40.0716218" lon="-105.2290576">
  <ele>1583.0</ele>
  <time>2026-08-28T17:52:56Z</time>
  <course>246.09</course>
  <speed>5.0</speed>
  <fix>3d</fix>
</trkpt>
<trkpt lat="40.0716177" lon="-105.2290701">
  <ele>1583.0</ele>
  <time>2026-08-28T17:52:56Z</time>
  <course>246.99</course>
  <speed>4.992494366546646</speed>
  <fix>3d</fix>
</trkpt>
<trkpt lat="40.0716218" lon="-105.2290576">
  <ele>1583.0</ele>
  <time>2026-08-28T17:52:56Z</time>
  <course>246.09</course>
  <speed>5.0</speed>
  <fix>3d</fix>
</trkpt>
<trkpt lat="40.0716159" lon="-105.2290755">
  <ele>1583.01</ele>
  <time>2026-08-28T17:52:56Z</time>
  <course>246.99</course>
  <speed>4.992494366546646</speed>
  <fix>3d</fix>
</trkpt>
<trkpt lat="40.0716182" lon="-105.2290683">
  <ele>1583.0</ele>
  <time>2026-08-28T17:52:56Z</time>
  <course>246.09</course>
  <speed>5.01</speed>
  <fix>3d</fix>
</trkpt>
<trkpt lat="40.0716141" lon="-105.2290809">
  <ele>1583.01</ele>
  <time>2026-08-28T17:52:56Z</time>
  <course>247.0</course>
  <speed>5.001649727839806</speed>
  <fix>3d</fix>
</trkpt>
<trkpt lat="40.0716182" lon="-105.2290683">
  <ele>1583.0</ele>
  <time>2026-08-28T17:52:56Z</time>
  <course>246.09</course>
  <speed>5.01</speed>
  <fix>3d</fix>
</trkpt>
<trkpt lat="40.0716122" lon="-105.2290863">
  <ele>1583.02</ele>
  <time>2026-08-28T17:52:56Z</time>
  <course>247.0</course>
  <speed>5.001649727839806</speed>
  <fix>3d</fix>
</trkpt>
<trkpt lat="40.0716182" lon="-105.2290683">
  <ele>1583.0</ele>
  <time>2026-08-28T17:52:56Z</time>
  <course>246.09</course>
  <speed>5.01</speed>
  <fix>3d</fix>
</trkpt>
<trkpt lat="40.0716104" lon="-105.2290917">
  <ele>1583.02</ele>
  <time>2026-08-28T17:52:56Z</time>
  <course>247.0</course>
  <speed>5.001649727839806</speed>
  <fix>3d</fix>
</trkpt>
<trkpt lat="40.0716145" lon="-105.2290791">
  <ele>1583.0</ele>
  <time>2026-08-28T17:52:56Z</time>
  <course>246.09</course>
  <speed>5.01</speed>
  <fix>3d</fix>
</trkpt>
<trkpt lat="40.0716086" lon="-105.229097">
  <ele>1583.02</ele>
  <time>2026-08-28T17:52:56Z</time>
  <course>247.0</course>
  <speed>5.001649727839806</speed>
  <fix>3d</fix>
</trkpt>
<trkpt lat="40.0716145" lon="-105.2290791">
  <ele>1583.0</ele>
  <time>2026-08-28T17:52:56Z</time>
  <course>246.09</course>
  <speed>5.01</speed>
  <fix>3d</fix>
</trkpt>
<trkpt lat="40.0716068" lon="-105.2291024">
  <ele>1583.03</ele>
  <time>2026-08-28T17:52:56Z</time>
  <course>247.0</course>
  <speed>5.001649727839806</speed>
  <fix>3d</fix>
</trkpt>
<trkpt lat="40.0716109" lon="-105.2290899">
  <ele>1583.0</ele>
  <time>2026-08-28T17:52:56Z</time>
  <course>246.09</course>
  <speed>5.02</speed>
  <fix>3d</fix>
</trkpt>
<trkpt lat="40.071605" lon="-105.2291077">
  <ele>1583.03</ele>
  <time>2026-08-28T17:52:56Z</time>
  <course>247.0</course>
  <speed>4.992494366546646</speed>
  <fix>3d</fix>
</trkpt>
<trkpt lat="40.0716109" lon="-105.2290899">
  <ele>1583.0</ele>
  <time>2026-08-28T17:52:56Z</time>
  <course>246.09</course>
  <speed>5.02</speed>
  <fix>3d</fix>
</trkpt>
<trkpt lat="40.0716032" lon="-105.229113">
  <ele>1583.03</ele>
  <time>2026-08-28T17:52:56Z</time>
  <course>247.0</course>
  <speed>4.992494366546646</speed>
  <fix>3d</fix>
</trkpt>
<trkpt lat="40.0716072" lon="-105.2291007">
  <ele>1583.0</ele>
  <time>2026-08-28T17:52:56Z</time>
  <course>246.09</course>
  <speed>5.02</speed>
  <fix>3d</fix>
</trkpt>
<trkpt lat="40.0716014" lon="-105.2291184">
  <ele>1583.03</ele>
  <time>2026-08-28T17:52:56Z</time>
  <course>247.01</course>
  <speed>4.992494366546646</speed>
  <fix>3d</fix>
</trkpt>
<trkpt lat="40.0716072" lon="-105.2291007">
  <ele>1583.0</ele>
  <time>2026-08-28T17:52:56Z</time>
  <course>246.09</course>
  <speed>5.02</speed>
  <fix>3d</fix>
</trkpt>
<trkpt lat="40.0715995" lon="-105.2291237">
  <ele>1583.03</ele>
  <time>2026-08-28T17:52:56Z</time>
  <course>247.01</course>
  <speed>4.992494366546646</speed>
  <fix>3d</fix>
</trkpt>
<trkpt lat="40.0716036" lon="-105.2291114">
  <ele>1583.0</ele>
  <time>2026-08-28T17:52:56Z</time>
  <course>246.09</course>
  <speed>5.02</speed>
  <fix>3d</fix>
</trkpt>
<trkpt lat="40.0715977" lon="-105.2291291">
  <ele>1583.04</ele>
  <time>2026-08-28T17:52:56Z</time>
  <course>247.01</course>
  <speed>4.992494366546646</speed>
  <fix>3d</fix>
</trkpt>
<trkpt lat="40.0715999" lon="-105.2291223">
  <ele>1583.0</ele>
  <time>2026-08-28T17:52:56Z</time>
  <course>246.09</course>
  <speed>5.03</speed>
  <fix>3d</fix>
</trkpt>
<trkpt lat="40.0715959" lon="-105.2291345">
  <ele>1583.04</ele>
  <time>2026-08-28T17:52:56Z</time>
  <course>247.01</course>
  <speed>4.992494366546646</speed>
  <fix>3d</fix>
</trkpt>
<trkpt lat="40.0715999" lon="-105.2291223">
  <ele>1583.0</ele>
  <time>2026-08-28T17:52:56Z</time>
  <course>246.09</course>
  <speed>5.03</speed>
  <fix>3d</fix>
</trkpt>
<trkpt lat="40.0715941" lon="-105.2291398">
  <ele>1583.04</ele>
  <time>2026-08-28T17:52:56Z</time>
  <course>247.01</course>
  <speed>4.992494366546646</speed>
  <fix>3d</fix>
</trkpt>
<trkpt lat="40.0715962" lon="-105.229133">
  <ele>1583.0</ele>
  <time>2026-08-28T17:52:56Z</time>
  <course>246.09</course>
  <speed>5.03</speed>
  <fix>3d</fix>
</trkpt>
<trkpt lat="40.0715923" lon="-105.2291452">
  <ele>1583.04</ele>
  <time>2026-08-28T17:52:56Z</time>
  <course>247.01</course>
  <speed>5.001649727839806</speed>
  <fix>3d</fix>
</trkpt>
<trkpt lat="40.0715962" lon="-105.229133">
  <ele>1583.0</ele>
  <time>2026-08-28T17:52:56Z</time>
  <course>246.09</course>
  <speed>5.03</speed>
  <fix>3d</fix>
</trkpt>
<trkpt lat="40.0715904" lon="-105.2291506">
  <ele>1583.04</ele>
  <time>2026-08-28T17:52:56Z</time>
  <course>247.02</course>
  <speed>5.001649727839806</speed>
  <fix>3d</fix>
</trkpt>
<trkpt lat="40.0715926" lon="-105.2291439">
  <ele>1583.0</ele>
  <time>2026-08-28T17:52:56Z</time>
  <course>246.09</course>
  <speed>5.03</speed>
  <fix>3d</fix>
</trkpt>
<trkpt lat="40.0715886" lon="-105.2291561">
  <ele>1583.04</ele>
  <time>2026-08-28T17:52:56Z</time>
  <course>247.02</course>
  <speed>5.001649727839806</speed>
  <fix>3d</fix>
</trkpt>
<trkpt lat="40.0715926" lon="-105.2291439">
  <ele>1583.0</ele>
  <time>2026-08-28T17:52:56Z</time>
  <course>246.09</course>
  <speed>5.03</speed>
  <fix>3d</fix>
</trkpt>
<trkpt lat="40.0715867" lon="-105.2291615">
  <ele>1583.04</ele>
  <time>2026-08-28T17:52:56Z</time>
  <course>247.02</course>
  <speed>5.001649727839806</speed>
  <fix>3d</fix>
</trkpt>
<trkpt lat="40.0715889" lon="-105.2291547">
  <ele>1583.0</ele>
  <time>2026-08-28T17:52:56Z</time>
  <course>246.09</course>
  <speed>5.03</speed>
  <fix>3d</fix>
</trkpt>
<trkpt lat="40.0715849" lon="-105.229167">
  <ele>1583.04</ele>
  <time>2026-08-28T17:52:56Z</time>
  <course>247.02</course>
  <speed>5.001649727839806</speed>
  <fix>3d</fix>
</trkpt>
<trkpt lat="40.0715889" lon="-105.2291547">
  <ele>1583.0</ele>
  <time>2026-08-28T17:52:56Z</time>
  <course>246.09</course>
  <speed>5.03</speed>
  <fix>3d</fix>
</trkpt>
<trkpt lat="40.071583" lon="-105.2291724">
  <ele>1583.04</ele>
  <time>2026-08-28T17:52:56Z</time>
  <course>247.02</course>
  <speed>5.001649727839806</speed>
  <fix>3d</fix>
</trkpt>
<trkpt lat="40.0715852" lon="-105.2291654">
  <ele>1583.0</ele>
  <time>2026-08-28T17:52:56Z</time>
  <course>246.09</course>
  <speed>5.03</speed>
  <fix>3d</fix>
</trkpt>
<trkpt lat="40.0715812" lon="-105.2291779">
  <ele>1583.04</ele>
  <time>2026-08-28T17:52:56Z</time>
  <course>247.02</course>
  <speed>5.001649727839806</speed>
  <fix>3d</fix>
</trkpt>
<trkpt lat="40.0715852" lon="-105.2291654">
  <ele>1583.0</ele>
  <time>2026-08-28T17:52:56Z</time>
  <course>246.09</course>
  <speed>5.03</speed>
  <fix>3d</fix>
</trkpt>
<trkpt lat="40.0715793" lon="-105.2291833">
  <ele>1583.04</ele>
  <time>2026-08-28T17:52:56Z</time>
  <course>247.02</course>
  <speed>5.001649727839806</speed>
  <fix>3d</fix>
</trkpt>
<trkpt lat="40.0715816" lon="-105.2291763">
  <ele>1583.0</ele>
  <time>2026-08-28T17:52:56Z</time>
  <course>246.09</course>
  <speed>5.03</speed>
  <fix>3d</fix>
</trkpt>
<trkpt lat="40.0715775" lon="-105.2291887">
  <ele>1583.03</ele>
  <time>2026-08-28T17:52:56Z</time>
  <course>247.03</course>
  <speed>5.001649727839806</speed>
  <fix>3d</fix>
</trkpt>
<trkpt lat="40.0715816" lon="-105.2291763">
  <ele>1583.0</ele>
  <time>2026-08-28T17:52:56Z</time>
  <course>246.09</course>
  <speed>5.03</speed>
  <fix>3d</fix>
</trkpt>
<trkpt lat="40.0715757" lon="-105.2291942">
  <ele>1583.03</ele>
  <time>2026-08-28T17:52:56Z</time>
  <course>247.03</course>
  <speed>5.001649727839806</speed>
  <fix>3d</fix>
</trkpt>
<trkpt lat="40.0715779" lon="-105.229187">
  <ele>1583.0</ele>
  <time>2026-08-28T17:52:56Z</time>
  <course>246.09</course>
  <speed>5.03</speed>
  <fix>3d</fix>
</trkpt>
<trkpt lat="40.0715738" lon="-105.2291996">
  <ele>1583.03</ele>
  <time>2026-08-28T17:52:56Z</time>
  <course>247.03</course>
  <speed>5.001649727839806</speed>
  <fix>3d</fix>
</trkpt>
<trkpt lat="40.0715779" lon="-105.229187">
  <ele>1583.0</ele>
  <time>2026-08-28T17:52:56Z</time>
  <course>246.09</course>
  <speed>5.03</speed>
  <fix>3d</fix>
</trkpt>
<trkpt lat="40.071572" lon="-105.229205">
  <ele>1583.03</ele>
  <time>2026-08-28T17:52:56Z</time>
  <course>247.03</course>
  <speed>5.001649727839806</speed>
  <fix>3d</fix>
</trkpt>
<trkpt lat="40.0715779" lon="-105.229187">
  <ele>1583.0</ele>
  <time>2026-08-28T17:52:56Z</time>
  <course>246.09</course>
  <speed>5.03</speed>
  <fix>3d</fix>
</trkpt>
<trkpt lat="40.0715702" lon="-105.2292104">
  <ele>1583.03</ele>
  <time>2026-08-28T17:52:56Z</time>
  <course>247.03</course>
  <speed>5.001649727839806</speed>
  <fix>3d</fix>
</trkpt>
<trkpt lat="40.0715743" lon="-105.2291979">
  <ele>1583.0</ele>
  <time>2026-08-28T17:52:56Z</time>
  <course>246.09</course>
  <speed>5.02</speed>
  <fix>3d</fix>
</trkpt>
<trkpt lat="40.0715684" lon="-105.2292157">
  <ele>1583.03</ele>
  <time>2026-08-28T17:52:56Z</time>
  <course>247.03</course>
  <speed>5.001649727839806</speed>
  <fix>3d</fix>
</trkpt>
<trkpt lat="40.0715743" lon="-105.2291979">
  <ele>1583.0</ele>
  <time>2026-08-28T17:52:56Z</time>
  <course>246.09</course>
  <speed>5.02</speed>
  <fix>3d</fix>
</trkpt>
<trkpt lat="40.0715665" lon="-105.2292211">
  <ele>1583.03</ele>
  <time>2026-08-28T17:52:56Z</time>
  <course>247.03</course>
  <speed>4.992494366546646</speed>
  <fix>3d</fix>
</trkpt>
<trkpt lat="40.0715706" lon="-105.2292086">
  <ele>1583.0</ele>
  <time>2026-08-28T17:52:56Z</time>
  <course>246.09</course>
  <speed>5.02</speed>
  <fix>3d</fix>
</trkpt>
<trkpt lat="40.0715647" lon="-105.2292264">
  <ele>1583.03</ele>
  <time>2026-08-28T17:52:56Z</time>
  <course>247.04</course>
  <speed>4.988476721405043</speed>
  <fix>3d</fix>
</trkpt>
<trkpt lat="40.0715706" lon="-105.2292086">
  <ele>1583.0</ele>
  <time>2026-08-28T17:52:56Z</time>
  <course>246.09</course>
  <speed>5.02</speed>
  <fix>3d</fix>
</trkpt>
<trkpt lat="40.0715629" lon="-105.2292318">
  <ele>1583.03</ele>
  <time>2026-08-28T17:52:56Z</time>
  <course>247.04</course>
  <speed>4.988476721405043</speed>
  <fix>3d</fix>
</trkpt>
<trkpt lat="40.071567" lon="-105.2292195">
  <ele>1583.0</ele>
  <time>2026-08-28T17:52:56Z</time>
  <course>246.09</course>
  <speed>5.02</speed>
  <fix>3d</fix>
</trkpt>
<trkpt lat="40.0715611" lon="-105.2292371">
  <ele>1583.03</ele>
  <time>2026-08-28T17:52:56Z</time>
  <course>247.04</course>
  <speed>4.988476721405043</speed>
  <fix>3d</fix>
</trkpt>
<trkpt lat="40.0715633" lon="-105.2292302">
  <ele>1583.0</ele>
  <time>2026-08-28T17:52:56Z</time>
  <course>246.09</course>
  <speed>5.02</speed>
  <fix>3d</fix>
</trkpt>
<trkpt lat="40.0715593" lon="-105.2292425">
  <ele>1583.03</ele>
  <time>2026-08-28T17:52:56Z</time>
  <course>247.04</course>
  <speed>4.988476721405043</speed>
  <fix>3d</fix>
</trkpt>
<trkpt lat="40.0715633" lon="-105.2292302">
  <ele>1583.0</ele>
  <time>2026-08-28T17:52:56Z</time>
  <course>246.09</course>
  <speed>5.02</speed>
  <fix>3d</fix>
</trkpt>
<trkpt lat="40.0715575" lon="-105.2292479">
  <ele>1583.03</ele>
  <time>2026-08-28T17:52:56Z</time>
  <course>247.04</course>
  <speed>4.988476721405043</speed>
  <fix>3d</fix>
</trkpt>
<trkpt lat="40.0715596" lon="-105.229241">
  <ele>1583.0</ele>
  <time>2026-08-28T17:52:56Z</time>
  <course>246.09</course>
  <speed>5.02</speed>
  <fix>3d</fix>
</trkpt>
<trkpt lat="40.0715557" lon="-105.2292533">
  <ele>1583.03</ele>
  <time>2026-08-28T17:52:56Z</time>
  <course>247.04</course>
  <speed>4.988476721405043</speed>
  <fix>3d</fix>
</trkpt>
<trkpt lat="40.0715596" lon="-105.229241">
  <ele>1583.0</ele>
  <time>2026-08-28T17:52:56Z</time>
  <course>246.09</course>
  <speed>5.02</speed>
  <fix>3d</fix>
</trkpt>
<trkpt lat="40.0715538" lon="-105.2292587">
  <ele>1583.03</ele>
  <time>2026-08-28T17:52:56Z</time>
  <course>247.04</course>
  <speed>4.988476721405043</speed>
  <fix>3d</fix>
</trkpt>
<trkpt lat="40.071556" lon="-105.2292517">
  <ele>1583.0</ele>
  <time>2026-08-28T17:52:56Z</time>
  <course>246.09</course>
  <speed>5.02</speed>
  <fix>3d</fix>
</trkpt>
<trkpt lat="40.071552" lon="-105.2292641">
  <ele>1583.03</ele>
  <time>2026-08-28T17:52:56Z</time>
  <course>247.05</course>
  <speed>4.988476721405043</speed>
  <fix>3d</fix>
</trkpt>
<trkpt lat="40.071556" lon="-105.2292517">
  <ele>1583.0</ele>
  <time>2026-08-28T17:52:56Z</time>
  <course>246.09</course>
  <speed>5.02</speed>
  <fix>3d</fix>
</trkpt>
<trkpt lat="40.0715502" lon="-105.2292695">
  <ele>1583.03</ele>
  <time>2026-08-28T17:52:56Z</time>
  <course>247.05</course>
  <speed>4.988476721405043</speed>
  <fix>3d</fix>
</trkpt>
<trkpt lat="40.0715523" lon="-105.2292626">
  <ele>1583.0</ele>
  <time>2026-08-28T17:52:56Z</time>
  <course>246.09</course>
  <speed>5.02</speed>
  <fix>3d</fix>
</trkpt>
<trkpt lat="40.0715483" lon="-105.229275">
  <ele>1583.03</ele>
  <time>2026-08-28T17:52:56Z</time>
  <course>247.05</course>
  <speed>4.988476721405043</speed>
  <fix>3d</fix>
</trkpt>
<trkpt lat="40.0715523" lon="-105.2292626">
  <ele>1583.0</ele>
  <time>2026-08-28T17:52:56Z</time>
  <course>246.09</course>
  <speed>5.02</speed>
  <fix>3d</fix>
</trkpt>
<trkpt lat="40.0715465" lon="-105.2292804">
  <ele>1583.03</ele>
  <time>2026-08-28T17:52:56Z</time>
  <course>247.05</course>
  <speed>4.988476721405043</speed>
  <fix>3d</fix>
</trkpt>
<trkpt lat="40.0715487" lon="-105.2292733">
  <ele>1583.0</ele>
  <time>2026-08-28T17:52:56Z</time>
  <course>246.09</course>
  <speed>5.02</speed>
  <fix>3d</fix>
</trkpt>
<trkpt lat="40.0715446" lon="-105.2292858">
  <ele>1583.03</ele>
  <time>2026-08-28T17:52:56Z</time>
  <course>247.05</course>
  <speed>4.9976394427769595</speed>
  <fix>3d</fix>
</trkpt>
<trkpt lat="40.0715487" lon="-105.2292733">
  <ele>1583.0</ele>
  <time>2026-08-28T17:52:56Z</time>
  <course>246.09</course>
  <speed>5.02</speed>
  <fix>3d</fix>
</trkpt>
<trkpt lat="40.0715428" lon="-105.2292912">
  <ele>1583.03</ele>
  <time>2026-08-28T17:52:56Z</time>
  <course>247.05</course>
  <speed>4.988476721405043</speed>
  <fix>3d</fix>
</trkpt>
<trkpt lat="40.071545" lon="-105.2292841">
  <ele>1583.0</ele>
  <time>2026-08-28T17:52:56Z</time>
  <course>246.09</course>
  <speed>5.02</speed>
  <fix>3d</fix>
</trkpt>
<trkpt lat="40.071541" lon="-105.2292966">
  <ele>1583.03</ele>
  <time>2026-08-28T17:52:56Z</time>
  <course>247.05</course>
  <speed>4.9976394427769595</speed>
  <fix>3d</fix>
</trkpt>
<trkpt lat="40.071545" lon="-105.2292841">
  <ele>1583.0</ele>
  <time>2026-08-28T17:52:56Z</time>
  <course>246.09</course>
  <speed>5.02</speed>
  <fix>3d</fix>
</trkpt>
<trkpt lat="40.0715391" lon="-105.229302">
  <ele>1583.02</ele>
  <time>2026-08-28T17:52:56Z</time>
  <course>247.05</course>
  <speed>4.988476721405043</speed>
  <fix>3d</fix>
</trkpt>
<trkpt lat="40.0715414" lon="-105.2292948">
  <ele>1583.0</ele>
  <time>2026-08-28T17:52:56Z</time>
  <course>246.09</course>
  <speed>5.01</speed>
  <fix>3d</fix>
</trkpt>
<trkpt lat="40.0715373" lon="-105.2293074">
  <ele>1583.02</ele>
  <time>2026-08-28T17:52:56Z</time>
  <course>247.05</course>
  <speed>4.988476721405043</speed>
  <fix>3d</fix>
</trkpt>
<trkpt lat="40.0715414" lon="-105.2292948">
  <ele>1583.0</ele>
  <time>2026-08-28T17:52:56Z</time>
  <course>246.09</course>
  <speed>5.01</speed>
  <fix>3d</fix>
</trkpt>
<trkpt lat="40.0715355" lon="-105.2293128">
  <ele>1583.02</ele>
  <time>2026-08-28T17:52:56Z</time>
  <course>247.06</course>
  <speed>4.988476721405043</speed>
  <fix>3d</fix>
</trkpt>
<trkpt lat="40.0715414" lon="-105.2292948">
  <ele>1583.0</ele>
  <time>2026-08-28T17:52:56Z</time>
  <course>246.09</course>
  <speed>5.01</speed>
  <fix>3d</fix>
</trkpt>
<trkpt lat="40.0715336" lon="-105.2293182">
  <ele>1583.01</ele>
  <time>2026-08-28T17:52:56Z</time>
  <course>247.06</course>
  <speed>4.988476721405043</speed>
  <fix>3d</fix>
</trkpt>
<trkpt lat="40.0715377" lon="-105.2293057">
  <ele>1583.0</ele>
  <time>2026-08-28T17:52:56Z</time>
  <course>246.09</course>
  <speed>5.01</speed>
  <fix>3d</fix>
</trkpt>
<trkpt lat="40.0715318" lon="-105.2293235">
  <ele>1583.01</ele>
  <time>2026-08-28T17:52:56Z</time>
  <course>247.06</course>
  <speed>4.988476721405043</speed>
  <fix>3d</fix>
</trkpt>
<trkpt lat="40.0715377" lon="-105.2293057">
  <ele>1583.0</ele>
  <time>2026-08-28T17:52:56Z</time>
  <course>246.09</course>
  <speed>5.01</speed>
  <fix>3d</fix>
</trkpt>
<trkpt lat="40.07153" lon="-105.2293289">
  <ele>1583.01</ele>
  <time>2026-08-28T17:52:56Z</time>
  <course>247.06</course>
  <speed>4.988476721405043</speed>
  <fix>3d</fix>
</trkpt>
<trkpt lat="40.0715341" lon="-105.2293165">
  <ele>1583.0</ele>
  <time>2026-08-28T17:52:56Z</time>
  <course>246.09</course>
  <speed>5.01</speed>
  <fix>3d</fix>
</trkpt>
<trkpt lat="40.0715282" lon="-105.2293342">
  <ele>1583.0</ele>
  <time>2026-08-28T17:52:56Z</time>
  <course>247.06</course>
  <speed>4.988476721405043</speed>
  <fix>3d</fix>
</trkpt>
<trkpt lat="40.0715341" lon="-105.2293165">
  <ele>1583.0</ele>
  <time>2026-08-28T17:52:56Z</time>
  <course>246.09</course>
  <speed>5.01</speed>
  <fix>3d</fix>
</trkpt>
<trkpt lat="40.0715264" lon="-105.2293396">
  <ele>1583.0</ele>
  <time>2026-08-28T17:52:56Z</time>
  <course>247.06</course>
  <speed>4.988476721405043</speed>
  <fix>3d</fix>
</trkpt>
<trkpt lat="40.0715304" lon="-105.2293273">
  <ele>1583.0</ele>
  <time>2026-08-28T17:52:56Z</time>
  <course>246.09</course>
  <speed>5.01</speed>
  <fix>3d</fix>
</trkpt>
<trkpt lat="40.0715246" lon="-105.2293449">
  <ele>1583.0</ele>
  <time>2026-08-28T17:52:56Z</time>
  <course>247.06</course>
  <speed>4.988476721405043</speed>
  <fix>3d</fix>
</trkpt>
<trkpt lat="40.0715268" lon="-105.229338">
  <ele>1583.0</ele>
  <time>2026-08-28T17:52:56Z</time>
  <course>246.09</course>
  <speed>5.01</speed>
  <fix>3d</fix>
</trkpt>
<trkpt lat="40.0715228" lon="-105.2293503">
  <ele>1583.0</ele>
  <time>2026-08-28T17:52:56Z</time>
  <course>247.06</course>
  <speed>4.988476721405043</speed>
  <fix>3d</fix>
</trkpt>
<trkpt lat="40.0715268" lon="-105.229338">
  <ele>1583.0</ele>
  <time>2026-08-28T17:52:56Z</time>
  <course>246.09</course>
  <speed>5.01</speed>
  <fix>3d</fix>
</trkpt>
<trkpt lat="40.071521" lon="-105.2293557">
  <ele>1583.0</ele>
  <time>2026-08-28T17:52:56Z</time>
  <course>247.06</course>
  <speed>4.988476721405043</speed>
  <fix>3d</fix>
</trkpt>
<trkpt lat="40.0715231" lon="-105.2293488">
  <ele>1583.0</ele>
  <time>2026-08-28T17:52:56Z</time>
  <course>246.09</course>
  <speed>5.02</speed>
  <fix>3d</fix>
</trkpt>
<trkpt lat="40.0715191" lon="-105.2293611">
  <ele>1583.0</ele>
  <time>2026-08-28T17:52:56Z</time>
  <course>247.06</course>
  <speed>4.988476721405043</speed>
  <fix>3d</fix>
</trkpt>
<trkpt lat="40.0715231" lon="-105.2293488">
  <ele>1583.0</ele>
  <time>2026-08-28T17:52:56Z</time>
  <course>246.09</course>
  <speed>5.02</speed>
  <fix>3d</fix>
</trkpt>
<trkpt lat="40.0715173" lon="-105.2293665">
  <ele>1583.01</ele>
  <time>2026-08-28T17:52:56Z</time>
  <course>247.06</course>
  <speed>4.988476721405043</speed>
  <fix>3d</fix>
</trkpt>
<trkpt lat="40.0715194" lon="-105.2293596">
  <ele>1583.0</ele>
  <time>2026-08-28T17:52:56Z</time>
  <course>246.09</course>
  <speed>5.02</speed>
  <fix>3d</fix>
</trkpt>
<trkpt lat="40.0715155" lon="-105.2293719">
  <ele>1583.01</ele>
  <time>2026-08-28T17:52:56Z</time>
  <course>247.07</course>
  <speed>4.9976394427769595</speed>
  <fix>3d</fix>
</trkpt>
<trkpt lat="40.0715194" lon="-105.2293596">
  <ele>1583.0</ele>
  <time>2026-08-28T17:52:56Z</time>
  <course>246.09</course>
  <speed>5.02</speed>
  <fix>3d</fix>
</trkpt>
<trkpt lat="40.0715136" lon="-105.2293773">
  <ele>1583.01</ele>
  <time>2026-08-28T17:52:56Z</time>
  <course>247.07</course>
  <speed>4.9976394427769595</speed>
  <fix>3d</fix>
</trkpt>
<trkpt lat="40.0715158" lon="-105.2293703">
  <ele>1583.0</ele>
  <time>2026-08-28T17:52:56Z</time>
  <course>246.09</course>
  <speed>5.02</speed>
  <fix>3d</fix>
</trkpt>
<trkpt lat="40.0715118" lon="-105.2293827">
  <ele>1583.01</ele>
  <time>2026-08-28T17:52:56Z</time>
  <course>247.07</course>
  <speed>4.9976394427769595</speed>
  <fix>3d</fix>
</trkpt>
<trkpt lat="40.0715158" lon="-105.2293703">
  <ele>1583.0</ele>
  <time>2026-08-28T17:52:56Z</time>
  <course>246.09</course>
  <speed>5.02</speed>
  <fix>3d</fix>
</trkpt>
<trkpt lat="40.0715099" lon="-105.2293882">
  <ele>1583.01</ele>
  <time>2026-08-28T17:52:56Z</time>
  <course>247.07</course>
  <speed>4.9976394427769595</speed>
  <fix>3d</fix>
</trkpt>
<trkpt lat="40.0715121" lon="-105.2293811">
  <ele>1583.0</ele>
  <time>2026-08-28T17:52:56Z</time>
  <course>246.09</course>
  <speed>5.02</speed>
  <fix>3d</fix>
</trkpt>
<trkpt lat="40.0715081" lon="-105.2293936">
  <ele>1583.02</ele>
  <time>2026-08-28T17:52:56Z</time>
  <course>247.07</course>
  <speed>4.9976394427769595</speed>
  <fix>3d</fix>
</trkpt>
<trkpt lat="40.0715121" lon="-105.2293811">
  <ele>1583.0</ele>
  <time>2026-08-28T17:52:56Z</time>
  <course>246.09</course>
  <speed>5.02</speed>
  <fix>3d</fix>
</trkpt>
<trkpt lat="40.0715063" lon="-105.229399">
  <ele>1583.02</ele>
  <time>2026-08-28T17:52:56Z</time>
  <course>247.07</course>
  <speed>4.9976394427769595</speed>
  <fix>3d</fix>
</trkpt>
<trkpt lat="40.0715085" lon="-105.2293919">
  <ele>1583.0</ele>
  <time>2026-08-28T17:52:56Z</time>
  <course>246.09</course>
  <speed>5.02</speed>
  <fix>3d</fix>
</trkpt>
<trkpt lat="40.0715044" lon="-105.2294044">
  <ele>1583.02</ele>
  <time>2026-08-28T17:52:56Z</time>
  <course>247.07</course>
  <speed>4.9976394427769595</speed>
  <fix>3d</fix>
</trkpt>
<trkpt lat="40.0715085" lon="-105.2293919">
  <ele>1583.0</ele>
  <time>2026-08-28T17:52:56Z</time>
  <course>246.09</course>
  <speed>5.02</speed>
  <fix>3d</fix>
</trkpt>
<trkpt lat="40.0715026" lon="-105.2294098">
  <ele>1583.02</ele>
  <time>2026-08-28T17:52:56Z</time>
  <course>247.07</course>
  <speed>4.9976394427769595</speed>
  <fix>3d</fix>
</trkpt>
<trkpt lat="40.0715048" lon="-105.2294027">
  <ele>1583.0</ele>
  <time>2026-08-28T17:52:56Z</time>
  <course>246.09</course>
  <speed>5.02</speed>
  <fix>3d</fix>
</trkpt>
<trkpt lat="40.0715008" lon="-105.2294153">
  <ele>1583.02</ele>
  <time>2026-08-28T17:52:56Z</time>
  <course>247.07</course>
  <speed>4.9976394427769595</speed>
  <fix>3d</fix>
</trkpt>
<trkpt lat="40.0715048" lon="-105.2294027">
  <ele>1583.0</ele>
  <time>2026-08-28T17:52:56Z</time>
  <course>246.09</course>
  <speed>5.02</speed>
  <fix>3d</fix>
</trkpt>
<trkpt lat="40.0714989" lon="-105.2294207">
  <ele>1583.02</ele>
  <time>2026-08-28T17:52:56Z</time>
  <course>247.07</course>
  <speed>4.9976394427769595</speed>
  <fix>3d</fix>
</trkpt>
<trkpt lat="40.0715048" lon="-105.2294027">
  <ele>1583.0</ele>
  <time>2026-08-28T17:52:56Z</time>
  <course>246.09</course>
  <speed>5.02</speed>
  <fix>3d</fix>
</trkpt>
<trkpt lat="40.0714971" lon="-105.229426">
  <ele>1583.02</ele>
  <time>2026-08-28T17:52:56Z</time>
  <course>247.07</course>
  <speed>4.9976394427769595</speed>
  <fix>3d</fix>
</trkpt>
<trkpt lat="40.0715012" lon="-105.2294134">
  <ele>1583.0</ele>
  <time>2026-08-28T17:52:56Z</time>
  <course>246.09</course>
  <speed>5.01</speed>
  <fix>3d</fix>
</trkpt>
<trkpt lat="40.0714953" lon="-105.2294314">
  <ele>1583.02</ele>
  <time>2026-08-28T17:52:56Z</time>
  <course>247.07</course>
  <speed>4.988476721405043</speed>
  <fix>3d</fix>
</trkpt>
<trkpt lat="40.0715012" lon="-105.2294134">
  <ele>1583.0</ele>
  <time>2026-08-28T17:52:56Z</time>
  <course>246.09</course>
  <speed>5.01</speed>
  <fix>3d</fix>
</trkpt>
<trkpt lat="40.0714935" lon="-105.2294367">
  <ele>1583.02</ele>
  <time>2026-08-28T17:52:56Z</time>
  <course>247.07</course>
  <speed>4.988476721405043</speed>
  <fix>3d</fix>
</trkpt>
<trkpt lat="40.0714975" lon="-105.2294243">
  <ele>1583.0</ele>
  <time>2026-08-28T17:52:56Z</time>
  <course>246.09</course>
  <speed>5.01</speed>
  <fix>3d</fix>
</trkpt>
<trkpt lat="40.0714917" lon="-105.229442">
  <ele>1583.02</ele>
  <time>2026-08-28T17:52:56Z</time>
  <course>247.07</course>
  <speed>4.988476721405043</speed>
  <fix>3d</fix>
</trkpt>
<trkpt lat="40.0714975" lon="-105.2294243">
  <ele>1583.0</ele>
  <time>2026-08-28T17:52:56Z</time>
  <course>246.09</course>
  <speed>5.01</speed>
  <fix>3d</fix>
</trkpt>
<trkpt lat="40.0714899" lon="-105.2294474">
  <ele>1583.02</ele>
  <time>2026-08-28T17:52:56Z</time>
  <course>247.07</course>
  <speed>4.988476721405043</speed>
  <fix>3d</fix>
</trkpt>
<trkpt lat="40.0714939" lon="-105.229435">
  <ele>1583.0</ele>
  <time>2026-08-28T17:52:56Z</time>
  <course>246.09</course>
  <speed>5.01</speed>
  <fix>3d</fix>
</trkpt>
<trkpt lat="40.0714881" lon="-105.2294527">
  <ele>1583.02</ele>
  <time>2026-08-28T17:52:56Z</time>
  <course>247.08</course>
  <speed>4.988476721405043</speed>
  <fix>3d</fix>
</trkpt>
<trkpt lat="40.0714939" lon="-105.229435">
  <ele>1583.0</ele>
  <time>2026-08-28T17:52:56Z</time>
  <course>246.09</course>
  <speed>5.01</speed>
  <fix>3d</fix>
</trkpt>
<trkpt lat="40.0714863" lon="-105.2294581">
  <ele>1583.02</ele>
  <time>2026-08-28T17:52:56Z</time>
  <course>247.08</course>
  <speed>4.988476721405043</speed>
  <fix>3d</fix>
</trkpt>
<trkpt lat="40.0714902" lon="-105.2294458">
  <ele>1583.0</ele>
  <time>2026-08-28T17:52:56Z</time>
  <course>246.09</course>
  <speed>5.01</speed>
  <fix>3d</fix>
</trkpt>
<trkpt lat="40.0714844" lon="-105.2294634">
  <ele>1583.02</ele>
  <time>2026-08-28T17:52:56Z</time>
  <course>247.08</course>
  <speed>4.988476721405043</speed>
  <fix>3d</fix>
</trkpt>
<trkpt lat="40.0714865" lon="-105.2294565">
  <ele>1583.0</ele>
  <time>2026-08-28T17:52:56Z</time>
  <course>246.09</course>
  <speed>5.01</speed>
  <fix>3d</fix>
</trkpt>
<trkpt lat="40.0714826" lon="-105.2294688">
  <ele>1583.02</ele>
  <time>2026-08-28T17:52:56Z</time>
  <course>247.08</course>
  <speed>4.988476721405043</speed>
  <fix>3d</fix>
</trkpt>
<trkpt lat="40.0714865" lon="-105.2294565">
  <ele>1583.0</ele>
  <time>2026-08-28T17:52:56Z</time>
  <course>246.09</course>
  <speed>5.01</speed>
  <fix>3d</fix>
</trkpt>
<trkpt lat="40.0714808" lon="-105.2294741">
  <ele>1583.02</ele>
  <time>2026-08-28T17:52:56Z</time>
  <course>247.08</course>
  <speed>4.988476721405043</speed>
  <fix>3d</fix>
</trkpt>
<trkpt lat="40.0714829" lon="-105.2294673">
  <ele>1583.0</ele>
  <time>2026-08-28T17:52:56Z</time>
  <course>246.09</course>
  <speed>5.02</speed>
  <fix>3d</fix>
</trkpt>
<trkpt lat="40.071479" lon="-105.2294795">
  <ele>1583.02</ele>
  <time>2026-08-28T17:52:56Z</time>
  <course>247.08</course>
  <speed>4.988476721405043</speed>
  <fix>3d</fix>
</trkpt>
<trkpt lat="40.0714829" lon="-105.2294673">
  <ele>1583.0</ele>
  <time>2026-08-28T17:52:56Z</time>
  <course>246.09</course>
  <speed>5.02</speed>
  <fix>3d</fix>
</trkpt>
<trkpt lat="40.0714771" lon="-105.2294849">
  <ele>1583.02</ele>
  <time>2026-08-28T17:52:56Z</time>
  <course>247.08</course>
  <speed>4.988476721405043</speed>
  <fix>3d</fix>
</trkpt>
<trkpt lat="40.0714792" lon="-105.2294781">
  <ele>1583.0</ele>
  <time>2026-08-28T17:52:56Z</time>
  <course>246.09</course>
  <speed>5.02</speed>
  <fix>3d</fix>
</trkpt>
<trkpt lat="40.0714753" lon="-105.2294903">
  <ele>1583.02</ele>
  <time>2026-08-28T17:52:56Z</time>
  <course>247.08</course>
  <speed>4.988476721405043</speed>
  <fix>3d</fix>
</trkpt>
<trkpt lat="40.0714792" lon="-105.2294781">
  <ele>1583.0</ele>
  <time>2026-08-28T17:52:56Z</time>
  <course>246.09</course>
  <speed>5.02</speed>
  <fix>3d</fix>
</trkpt>
<trkpt lat="40.0714735" lon="-105.2294958">
  <ele>1583.02</ele>
  <time>2026-08-28T17:52:56Z</time>
  <course>247.08</course>
  <speed>4.9976394427769595</speed>
  <fix>3d</fix>
</trkpt>
<trkpt lat="40.0714756" lon="-105.2294889">
  <ele>1583.0</ele>
  <time>2026-08-28T17:52:56Z</time>
  <course>246.09</course>
  <speed>5.02</speed>
  <fix>3d</fix>
</trkpt>
<trkpt lat="40.0714716" lon="-105.2295012">
  <ele>1583.01</ele>
  <time>2026-08-28T17:52:56Z</time>
  <course>247.08</course>
  <speed>5.001649727839806</speed>
  <fix>3d</fix>
</trkpt>
<trkpt lat="40.0714756" lon="-105.2294889">
  <ele>1583.0</ele>
  <time>2026-08-28T17:52:56Z</time>
  <course>246.09</course>
  <speed>5.02</speed>
  <fix>3d</fix>
</trkpt>
<trkpt lat="40.0714698" lon="-105.2295067">
  <ele>1583.01</ele>
  <time>2026-08-28T17:52:56Z</time>
  <course>247.08</course>
  <speed>5.001649727839806</speed>
  <fix>3d</fix>
</trkpt>
<trkpt lat="40.0714719" lon="-105.2294996">
  <ele>1583.0</ele>
  <time>2026-08-28T17:52:56Z</time>
  <course>246.09</course>
  <speed>5.02</speed>
  <fix>3d</fix>
</trkpt>
<trkpt lat="40.0714679" lon="-105.2295121">
  <ele>1583.01</ele>
  <time>2026-08-28T17:52:56Z</time>
  <course>247.08</course>
  <speed>5.001649727839806</speed>
  <fix>3d</fix>
</trkpt>
<trkpt lat="40.0714719" lon="-105.2294996">
  <ele>1583.0</ele>
  <time>2026-08-28T17:52:56Z</time>
  <course>246.09</course>
  <speed>5.02</speed>
  <fix>3d</fix>
</trkpt>
<trkpt lat="40.0714661" lon="-105.2295175">
  <ele>1583.01</ele>
  <time>2026-08-28T17:52:56Z</time>
  <course>247.08</course>
  <speed>5.001649727839806</speed>
  <fix>3d</fix>
</trkpt>
<trkpt lat="40.0714683" lon="-105.2295104">
  <ele>1583.0</ele>
  <time>2026-08-28T17:52:56Z</time>
  <course>246.09</course>
  <speed>5.02</speed>
  <fix>3d</fix>
</trkpt>
<trkpt lat="40.0714642" lon="-105.2295229">
  <ele>1583.01</ele>
  <time>2026-08-28T17:52:56Z</time>
  <course>247.08</course>
  <speed>5.001649727839806</speed>
  <fix>3d</fix>
</trkpt>
<trkpt lat="40.0714683" lon="-105.2295104">
  <ele>1583.0</ele>
  <time>2026-08-28T17:52:56Z</time>
  <course>246.09</course>
  <speed>5.02</speed>
  <fix>3d</fix>
</trkpt>
<trkpt lat="40.0714624" lon="-105.2295283">
  <ele>1583.01</ele>
  <time>2026-08-28T17:52:56Z</time>
  <course>247.08</course>
  <speed>5.001649727839806</speed>
  <fix>3d</fix>
</trkpt>
<trkpt lat="40.0714646" lon="-105.2295211">
  <ele>1583.0</ele>
  <time>2026-08-28T17:52:56Z</time>
  <course>246.09</course>
  <speed>5.02</speed>
  <fix>3d</fix>
</trkpt>
<trkpt lat="40.0714606" lon="-105.2295338">
  <ele>1583.01</ele>
  <time>2026-08-28T17:52:56Z</time>
  <course>247.08</course>
  <speed>5.001649727839806</speed>
  <fix>3d</fix>
</trkpt>
<trkpt lat="40.0714646" lon="-105.2295211">
  <ele>1583.0</ele>
  <time>2026-08-28T17:52:56Z</time>
  <course>246.09</course>
  <speed>5.02</speed>
  <fix>3d</fix>
</trkpt>
<trkpt lat="40.0714587" lon="-105.2295392">
  <ele>1583.01</ele>
  <time>2026-08-28T17:52:56Z</time>
  <course>247.08</course>
  <speed>5.001649727839806</speed>
  <fix>3d</fix>
</trkpt>
<trkpt lat="40.0714646" lon="-105.2295211">
  <ele>1583.0</ele>
  <time>2026-08-28T17:52:56Z</time>
  <course>246.09</course>
  <speed>5.02</speed>
  <fix>3d</fix>
</trkpt>
<trkpt lat="40.0714569" lon="-105.2295445">
  <ele>1583.01</ele>
  <time>2026-08-28T17:52:56Z</time>
  <course>247.08</course>
  <speed>5.001649727839806</speed>
  <fix>3d</fix>
</trkpt>
<trkpt lat="40.0714609" lon="-105.229532">
  <ele>1583.0</ele>
  <time>2026-08-28T17:52:56Z</time>
  <course>246.09</course>
  <speed>5.02</speed>
  <fix>3d</fix>
</trkpt>
<trkpt lat="40.0714551" lon="-105.2295499">
  <ele>1583.01</ele>
  <time>2026-08-28T17:52:56Z</time>
  <course>247.08</course>
  <speed>4.9976394427769595</speed>
  <fix>3d</fix>
</trkpt>
<trkpt lat="40.0714609" lon="-105.229532">
  <ele>1583.0</ele>
  <time>2026-08-28T17:52:56Z</time>
  <course>246.09</course>
  <speed>5.02</speed>
  <fix>3d</fix>
</trkpt>
<trkpt lat="40.0714533" lon="-105.2295552">
  <ele>1583.02</ele>
  <time>2026-08-28T17:52:56Z</time>
  <course>247.08</course>
  <speed>4.988476721405043</speed>
  <fix>3d</fix>
</trkpt>
<trkpt lat="40.0714573" lon="-105.2295427">
  <ele>1583.0</ele>
  <time>2026-08-28T17:52:56Z</time>
  <course>246.09</course>
  <speed>5.01</speed>
  <fix>3d</fix>
</trkpt>
<trkpt lat="40.0714515" lon="-105.2295606">
  <ele>1583.02</ele>
  <time>2026-08-28T17:52:56Z</time>
  <course>247.08</course>
  <speed>4.988476721405043</speed>
  <fix>3d</fix>
</trkpt>
<trkpt lat="40.0714573" lon="-105.2295427">
  <ele>1583.0</ele>
  <time>2026-08-28T17:52:56Z</time>
  <course>246.09</course>
  <speed>5.01</speed>
  <fix>3d</fix>
</trkpt>
<trkpt lat="40.0714496" lon="-105.2295659">
  <ele>1583.02</ele>
  <time>2026-08-28T17:52:56Z</time>
  <course>247.08</course>
  <speed>4.988476721405043</speed>
  <fix>3d</fix>
</trkpt>
<trkpt lat="40.0714536" lon="-105.2295536">
  <ele>1583.0</ele>
  <time>2026-08-28T17:52:56Z</time>
  <course>246.09</course>
  <speed>5.01</speed>
  <fix>3d</fix>
</trkpt>
<trkpt lat="40.0714478" lon="-105.2295712">
  <ele>1583.02</ele>
  <time>2026-08-28T17:52:56Z</time>
  <course>247.09</course>
  <speed>4.988476721405043</speed>
  <fix>3d</fix>
</trkpt>
<trkpt lat="40.07145" lon="-105.2295643">
  <ele>1583.0</ele>
  <time>2026-08-28T17:52:56Z</time>
  <course>246.09</course>
  <speed>5.01</speed>
  <fix>3d</fix>
</trkpt>
<trkpt lat="40.071446" lon="-105.2295766">
  <ele>1583.02</ele>
  <time>2026-08-28T17:52:56Z</time>
  <course>247.09</course>
  <speed>4.988476721405043</speed>
  <fix>3d</fix>
</trkpt>
<trkpt lat="40.07145" lon="-105.2295643">
  <ele>1583.0</ele>
  <time>2026-08-28T17:52:56Z</time>
  <course>246.09</course>
  <speed>5.01</speed>
  <fix>3d</fix>
</trkpt>
<trkpt lat="40.0714442" lon="-105.229582">
  <ele>1583.02</ele>
  <time>2026-08-28T17:52:56Z</time>
  <course>247.09</course>
  <speed>4.988476721405043</speed>
  <fix>3d</fix>
</trkpt>
<trkpt lat="40.0714463" lon="-105.2295751">
  <ele>1583.0</ele>
  <time>2026-08-28T17:52:56Z</time>
  <course>246.09</course>
  <speed>5.01</speed>
  <fix>3d</fix>
</trkpt>
<trkpt lat="40.0714424" lon="-105.2295874">
  <ele>1583.02</ele>
  <time>2026-08-28T17:52:56Z</time>
  <course>247.09</course>
  <speed>4.988476721405043</speed>
  <fix>3d</fix>
</trkpt>
<trkpt lat="40.0714463" lon="-105.2295751">
  <ele>1583.0</ele>
  <time>2026-08-28T17:52:56Z</time>
  <course>246.09</course>
  <speed>5.01</speed>
  <fix>3d</fix>
</trkpt>
<trkpt lat="40.0714405" lon="-105.2295928">
  <ele>1583.02</ele>
  <time>2026-08-28T17:52:56Z</time>
  <course>247.09</course>
  <speed>4.988476721405043</speed>
  <fix>3d</fix>
</trkpt>
<trkpt lat="40.0714427" lon="-105.2295858">
  <ele>1583.0</ele>
  <time>2026-08-28T17:52:56Z</time>
  <course>246.09</course>
  <speed>5.02</speed>
  <fix>3d</fix>
</trkpt>
<trkpt lat="40.0714387" lon="-105.2295982">
  <ele>1583.02</ele>
  <time>2026-08-28T17:52:56Z</time>
  <course>247.09</course>
  <speed>4.992494366546646</speed>
  <fix>3d</fix>
</trkpt>
<trkpt lat="40.0714427" lon="-105.2295858">
  <ele>1583.0</ele>
  <time>2026-08-28T17:52:56Z</time>
  <course>246.09</course>
  <speed>5.02</speed>
  <fix>3d</fix>
</trkpt>
<trkpt lat="40.0714369" lon="-105.2296036">
  <ele>1583.02</ele>
  <time>2026-08-28T17:52:56Z</time>
  <course>247.09</course>
  <speed>4.988476721405043</speed>
  <fix>3d</fix>
</trkpt>
<trkpt lat="40.071439" lon="-105.2295967">
  <ele>1583.0</ele>
  <time>2026-08-28T17:52:56Z</time>
  <course>246.09</course>
  <speed>5.02</speed>
  <fix>3d</fix>
</trkpt>
<trkpt lat="40.071435" lon="-105.2296091">
  <ele>1583.02</ele>
  <time>2026-08-28T17:52:56Z</time>
  <course>247.09</course>
  <speed>5.001649727839806</speed>
  <fix>3d</fix>
</trkpt>
<trkpt lat="40.071439" lon="-105.2295967">
  <ele>1583.0</ele>
  <time>2026-08-28T17:52:56Z</time>
  <course>246.09</course>
  <speed>5.02</speed>
  <fix>3d</fix>
</trkpt>
<trkpt lat="40.0714332" lon="-105.2296145">
  <ele>1583.02</ele>
  <time>2026-08-28T17:52:56Z</time>
  <course>247.09</course>
  <speed>4.9976394427769595</speed>
  <fix>3d</fix>
</trkpt>
<trkpt lat="40.0714354" lon="-105.2296074">
  <ele>1583.0</ele>
  <time>2026-08-28T17:52:56Z</time>
  <course>246.09</course>
  <speed>5.02</speed>
  <fix>3d</fix>
</trkpt>
<trkpt lat="40.0714313" lon="-105.2296199">
  <ele>1583.02</ele>
  <time>2026-08-28T17:52:56Z</time>
  <course>247.09</course>
  <speed>5.001649727839806</speed>
  <fix>3d</fix>
</trkpt>
<trkpt lat="40.0714354" lon="-105.2296074">
  <ele>1583.0</ele>
  <time>2026-08-28T17:52:56Z</time>
  <course>246.09</course>
  <speed>5.02</speed>
  <fix>3d</fix>
</trkpt>
<trkpt lat="40.0714295" lon="-105.2296253">
  <ele>1583.02</ele>
  <time>2026-08-28T17:52:56Z</time>
  <course>247.09</course>
  <speed>5.001649727839806</speed>
  <fix>3d</fix>
</trkpt>
<trkpt lat="40.0714317" lon="-105.2296182">
  <ele>1583.0</ele>
  <time>2026-08-28T17:52:56Z</time>
  <course>246.09</course>
  <speed>5.01</speed>
  <fix>3d</fix>
</trkpt>
<trkpt lat="40.0714277" lon="-105.2296307">
  <ele>1583.02</ele>
  <time>2026-08-28T17:52:56Z</time>
  <course>247.09</course>
  <speed>5.001649727839806</speed>
  <fix>3d</fix>
</trkpt>
<trkpt lat="40.0714317" lon="-105.2296182">
  <ele>1583.0</ele>
  <time>2026-08-28T17:52:56Z</time>
  <course>246.09</course>
  <speed>5.01</speed>
  <fix>3d</fix>
</trkpt>
<trkpt lat="40.0714258" lon="-105.2296361">
  <ele>1583.02</ele>
  <time>2026-08-28T17:52:56Z</time>
  <course>247.09</course>
  <speed>5.001649727839806</speed>
  <fix>3d</fix>
</trkpt>
<trkpt lat="40.0714281" lon="-105.2296289">
  <ele>1583.0</ele>
  <time>2026-08-28T17:52:56Z</time>
  <course>246.09</course>
  <speed>5.01</speed>
  <fix>3d</fix>
</trkpt>
<trkpt lat="40.071424" lon="-105.2296415">
  <ele>1583.02</ele>
  <time>2026-08-28T17:52:56Z</time>
  <course>247.09</course>
  <speed>5.001649727839806</speed>
  <fix>3d</fix>
</trkpt>
<trkpt lat="40.0714281" lon="-105.2296289">
  <ele>1583.0</ele>
  <time>2026-08-28T17:52:56Z</time>
  <course>246.09</course>
  <speed>5.01</speed>
  <fix>3d</fix>
</trkpt>
<trkpt lat="40.0714222" lon="-105.2296469">
  <ele>1583.02</ele>
  <time>2026-08-28T17:52:56Z</time>
  <course>247.09</course>
  <speed>4.9976394427769595</speed>
  <fix>3d</fix>
</trkpt>
<trkpt lat="40.0714281" lon="-105.2296289">
  <ele>1583.0</ele>
  <time>2026-08-28T17:52:56Z</time>
  <course>246.09</course>
  <speed>5.01</speed>
  <fix>3d</fix>
</trkpt>
<trkpt lat="40.0714203" lon="-105.2296523">
  <ele>1583.02</ele>
  <time>2026-08-28T17:52:56Z</time>
  <course>247.09</course>
  <speed>4.988476721405043</speed>
  <fix>3d</fix>
</trkpt>
<trkpt lat="40.0714244" lon="-105.2296398">
  <ele>1583.0</ele>
  <time>2026-08-28T17:52:56Z</time>
  <course>246.09</course>
  <speed>5.01</speed>
  <fix>3d</fix>
</trkpt>
<trkpt lat="40.0714185" lon="-105.2296576">
  <ele>1583.02</ele>
  <time>2026-08-28T17:52:56Z</time>
  <course>247.09</course>
  <speed>4.988476721405043</speed>
  <fix>3d</fix>
</trkpt>
<trkpt lat="40.0714244" lon="-105.2296398">
  <ele>1583.0</ele>
  <time>2026-08-28T17:52:56Z</time>
  <course>246.09</course>
  <speed>5.01</speed>
  <fix>3d</fix>
</trkpt>
<trkpt lat="40.0714167" lon="-105.229663">
  <ele>1583.02</ele>
  <time>2026-08-28T17:52:56Z</time>
  <course>247.09</course>
  <speed>4.966145386514575</speed>
  <fix>3d</fix>
</trkpt>
<trkpt lat="40.0714208" lon="-105.2296505">
  <ele>1583.0</ele>
  <time>2026-08-28T17:52:56Z</time>
  <course>246.09</course>
  <speed>5.01</speed>
  <fix>3d</fix>
</trkpt>
<trkpt lat="40.0714149" lon="-105.2296682">
  <ele>1583.02</ele>
  <time>2026-08-28T17:52:56Z</time>
  <course>247.09</course>
  <speed>4.925494898992384</speed>
  <fix>3d</fix>
</trkpt>
<trkpt lat="40.0714208" lon="-105.2296505">
  <ele>1583.0</ele>
  <time>2026-08-28T17:52:56Z</time>
  <course>246.09</course>
  <speed>5.01</speed>
  <fix>3d</fix>
</trkpt>
<trkpt lat="40.0714132" lon="-105.2296735">
  <ele>1583.02</ele>
  <time>2026-08-28T17:52:56Z</time>
  <course>247.09</course>
  <speed>4.88082984747471</speed>
  <fix>3d</fix>
</trkpt>
<trkpt lat="40.0714171" lon="-105.2296612">
  <ele>1583.0</ele>
  <time>2026-08-28T17:52:56Z</time>
  <course>246.09</course>
  <speed>4.97</speed>
  <fix>3d</fix>
</trkpt>
<trkpt lat="40.0714114" lon="-105.2296786">
  <ele>1583.02</ele>
  <time>2026-08-28T17:52:56Z</time>
  <course>247.09</course>
  <speed>4.813834230631545</speed>
  <fix>3d</fix>
</trkpt>
<trkpt lat="40.0714171" lon="-105.2296612">
  <ele>1583.0</ele>
  <time>2026-08-28T17:52:56Z</time>
  <course>246.09</course>
  <speed>4.97</speed>
  <fix>3d</fix>
</trkpt>
<trkpt lat="40.0714097" lon="-105.2296838">
  <ele>1583.01</ele>
  <time>2026-08-28T17:52:56Z</time>
  <course>247.09</course>
  <speed>4.737678756522016</speed>
  <fix>3d</fix>
</trkpt>
<trkpt lat="40.0714135" lon="-105.2296718">
  <ele>1583.0</ele>
  <time>2026-08-28T17:52:56Z</time>
  <course>246.09</course>
  <speed>4.89</speed>
  <fix>3d</fix>
</trkpt>
<trkpt lat="40.071408" lon="-105.2296888">
  <ele>1583.01</ele>
  <time>2026-08-28T17:52:56Z</time>
  <course>247.09</course>
  <speed>4.652364989980902</speed>
  <fix>3d</fix>
</trkpt>
<trkpt lat="40.07141" lon="-105.2296821">
  <ele>1583.0</ele>
  <time>2026-08-28T17:52:56Z</time>
  <course>246.09</course>
  <speed>4.76</speed>
  <fix>3d</fix>
</trkpt>
<trkpt lat="40.0714063" lon="-105.2296937">
  <ele>1583.01</ele>
  <time>2026-08-28T17:52:56Z</time>
  <course>247.09</course>
  <speed>4.5538774687073</speed>
  <fix>3d</fix>
</trkpt>
<trkpt lat="40.07141" lon="-105.2296821">
  <ele>1583.0</ele>
  <time>2026-08-28T17:52:56Z</time>
  <course>246.09</course>
  <speed>4.76</speed>
  <fix>3d</fix>
</trkpt>
<trkpt lat="40.0714047" lon="-105.2296985">
  <ele>1583.02</ele>
  <time>2026-08-28T17:52:56Z</time>
  <course>247.09</course>
  <speed>4.446234361794259</speed>
  <fix>3d</fix>
</trkpt>
<trkpt lat="40.0714066" lon="-105.2296922">
  <ele>1583.0</ele>
  <time>2026-08-28T17:52:56Z</time>
  <course>246.09</course>
  <speed>4.58</speed>
  <fix>3d</fix>
</trkpt>
<trkpt lat="40.071403" lon="-105.2297032">
  <ele>1583.02</ele>
  <time>2026-08-28T17:52:56Z</time>
  <course>247.09</course>
  <speed>4.338594242378515</speed>
  <fix>3d</fix>
</trkpt>
<trkpt lat="40.0714066" lon="-105.2296922">
  <ele>1583.0</ele>
  <time>2026-08-28T17:52:56Z</time>
  <course>246.09</course>
  <speed>4.58</speed>
  <fix>3d</fix>
</trkpt>
<trkpt lat="40.0714015" lon="-105.2297078">
  <ele>1583.01</ele>
  <time>2026-08-28T17:52:56Z</time>
  <course>247.09</course>
  <speed>4.226925596695546</speed>
  <fix>3d</fix>
</trkpt>
<trkpt lat="40.0714033" lon="-105.2297019">
  <ele>1583.0</ele>
  <time>2026-08-28T17:52:56Z</time>
  <course>246.09</course>
  <speed>4.37</speed>
  <fix>3d</fix>
</trkpt>
<trkpt lat="40.0713999" lon="-105.2297123">
  <ele>1583.01</ele>
  <time>2026-08-28T17:52:56Z</time>
  <course>247.12</course>
  <speed>4.110133817772847</speed>
  <fix>3d</fix>
</trkpt>
<trkpt lat="40.0714033" lon="-105.2297019">
  <ele>1583.0</ele>
  <time>2026-08-28T17:52:56Z</time>
  <course>246.09</course>
  <speed>4.37</speed>
  <fix>3d</fix>
</trkpt>
<trkpt lat="40.0713984" lon="-105.2297167">
  <ele>1583.02</ele>
  <time>2026-08-28T17:52:56Z</time>
  <course>247.14</course>
  <speed>3.9761287705505715</speed>
  <fix>3d</fix>
</trkpt>
<trkpt lat="40.0714002" lon="-105.229711">
  <ele>1583.0</ele>
  <time>2026-08-28T17:52:56Z</time>
  <course>246.11</course>
  <speed>4.14</speed>
  <fix>3d</fix>
</trkpt>
<trkpt lat="40.071397" lon="-105.229721">
  <ele>1583.02</ele>
  <time>2026-08-28T17:52:56Z</time>
  <course>247.19</course>
  <speed>3.855308029198186</speed>
  <fix>3d</fix>
</trkpt>
<trkpt lat="40.0714002" lon="-105.229711">
  <ele>1583.0</ele>
  <time>2026-08-28T17:52:56Z</time>
  <course>246.11</course>
  <speed>4.14</speed>
  <fix>3d</fix>
</trkpt>
<trkpt lat="40.0713956" lon="-105.2297251">
  <ele>1583.02</ele>
  <time>2026-08-28T17:52:56Z</time>
  <course>247.25</course>
  <speed>3.7253321999521063</speed>
  <fix>3d</fix>
</trkpt>
<trkpt lat="40.0713973" lon="-105.2297196">
  <ele>1583.0</ele>
  <time>2026-08-28T17:52:56Z</time>
  <course>246.18</course>
  <speed>3.89</speed>
  <fix>3d</fix>
</trkpt>
<trkpt lat="40.0713943" lon="-105.229729">
  <ele>1583.02</ele>
  <time>2026-08-28T17:52:56Z</time>
  <course>247.25</course>
  <speed>3.541539213392956</speed>
  <fix>3d</fix>
</trkpt>
<trkpt lat="40.0713973" lon="-105.2297196">
  <ele>1583.0</ele>
  <time>2026-08-28T17:52:56Z</time>
  <course>246.18</course>
  <speed>3.89</speed>
  <fix>3d</fix>
</trkpt>
<trkpt lat="40.071393" lon="-105.2297327">
  <ele>1583.02</ele>
  <time>2026-08-28T17:52:56Z</time>
  <course>247.25</course>
  <speed>3.3668976818430343</speed>
  <fix>3d</fix>
</trkpt>
<trkpt lat="40.0713946" lon="-105.2297276">
  <ele>1583.0</ele>
  <time>2026-08-28T17:52:56Z</time>
  <course>246.24</course>
  <speed>3.58</speed>
  <fix>3d</fix>
</trkpt>
<trkpt lat="40.0713918" lon="-105.2297362">
  <ele>1583.01</ele>
  <time>2026-08-28T17:52:56Z</time>
  <course>247.25</course>
  <speed>3.1922562553780045</speed>
  <fix>3d</fix>
</trkpt>
<trkpt lat="40.0713946" lon="-105.2297276">
  <ele>1583.0</ele>
  <time>2026-08-28T17:52:56Z</time>
  <course>246.24</course>
  <speed>3.58</speed>
  <fix>3d</fix>
</trkpt>
<trkpt lat="40.0713906" lon="-105.2297396">
  <ele>1583.01</ele>
  <time>2026-08-28T17:52:56Z</time>
  <course>247.25</course>
  <speed>3.0308084729985825</speed>
  <fix>3d</fix>
</trkpt>
<trkpt lat="40.0713921" lon="-105.229735">
  <ele>1583.0</ele>
  <time>2026-08-28T17:52:56Z</time>
  <course>246.24</course>
  <speed>3.24</speed>
  <fix>3d</fix>
</trkpt>
<trkpt lat="40.0713896" lon="-105.2297428">
  <ele>1583.01</ele>
  <time>2026-08-28T17:52:56Z</time>
  <course>247.25</course>
  <speed>2.878506557227202</speed>
  <fix>3d</fix>
</trkpt>
<trkpt lat="40.0713921" lon="-105.229735">
  <ele>1583.0</ele>
  <time>2026-08-28T17:52:56Z</time>
  <course>246.24</course>
  <speed>3.24</speed>
  <fix>3d</fix>
</trkpt>
<trkpt lat="40.0713885" lon="-105.2297458">
  <ele>1583.01</ele>
  <time>2026-08-28T17:52:56Z</time>
  <course>247.25</course>
  <speed>2.7353427573157996</speed>
  <fix>3d</fix>
</trkpt>
<trkpt lat="40.0713921" lon="-105.229735">
  <ele>1583.0</ele>
  <time>2026-08-28T17:52:56Z</time>
  <course>246.24</course>
  <speed>3.24</speed>
  <fix>3d</fix>
</trkpt>
<trkpt lat="40.0713876" lon="-105.2297486">
  <ele>1583.02</ele>
  <time>2026-08-28T17:52:56Z</time>
  <course>247.25</course>
  <speed>2.596247291765559</speed>
  <fix>3d</fix>
</trkpt>
<trkpt lat="40.0713899" lon="-105.2297416">
  <ele>1583.0</ele>
  <time>2026-08-28T17:52:56Z</time>
  <course>246.24</course>
  <speed>2.93</speed>
  <fix>3d</fix>
</trkpt>
<trkpt lat="40.0713866" lon="-105.2297513">
  <ele>1583.02</ele>
  <time>2026-08-28T17:52:56Z</time>
  <course>247.25</course>
  <speed>2.4622144504490264</speed>
  <fix>3d</fix>
</trkpt>
<trkpt lat="40.0713899" lon="-105.2297416">
  <ele>1583.0</ele>
  <time>2026-08-28T17:52:56Z</time>
  <course>246.24</course>
  <speed>2.93</speed>
  <fix>3d</fix>
</trkpt>
<trkpt lat="40.0713858" lon="-105.2297539">
  <ele>1583.02</ele>
  <time>2026-08-28T17:52:56Z</time>
  <course>247.25</course>
  <speed>2.34138847695123</speed>
  <fix>3d</fix>
</trkpt>
<trkpt lat="40.0713879" lon="-105.2297476">
  <ele>1583.0</ele>
  <time>2026-08-28T17:52:56Z</time>
  <course>246.24</course>
  <speed>2.65</speed>
  <fix>3d</fix>
</trkpt>
<trkpt lat="40.0713849" lon="-105.2297563">
  <ele>1583.02</ele>
  <time>2026-08-28T17:52:56Z</time>
  <course>247.25</course>
  <speed>2.2205629916757594</speed>
  <fix>3d</fix>
</trkpt>
<trkpt lat="40.0713879" lon="-105.2297476">
  <ele>1583.0</ele>
  <time>2026-08-28T17:52:56Z</time>
  <course>246.24</course>
  <speed>2.65</speed>
  <fix>3d</fix>
</trkpt>
<trkpt lat="40.0713841" lon="-105.2297586">
  <ele>1583.02</ele>
  <time>2026-08-28T17:52:56Z</time>
  <course>247.25</course>
  <speed>2.103806074713161</speed>
  <fix>3d</fix>
</trkpt>
<trkpt lat="40.071386" lon="-105.2297531">
  <ele>1583.0</ele>
  <time>2026-08-28T17:52:56Z</time>
  <course>246.24</course>
  <speed>2.4</speed>
  <fix>3d</fix>
</trkpt>
<trkpt lat="40.0713834" lon="-105.2297608">
  <ele>1583.02</ele>
  <time>2026-08-28T17:52:56Z</time>
  <course>247.25</course>
  <speed>1.9961963831246663</speed>
  <fix>3d</fix>
</trkpt>
<trkpt lat="40.0713844" lon="-105.229758">
  <ele>1583.0</ele>
  <time>2026-08-28T17:52:56Z</time>
  <course>246.24</course>
  <speed>2.17</speed>
  <fix>3d</fix>
</trkpt>
<trkpt lat="40.0713827" lon="-105.2297629">
  <ele>1583.02</ele>
  <time>2026-08-28T17:52:56Z</time>
  <course>247.25</course>
  <speed>1.893620870184948</speed>
  <fix>3d</fix>
</trkpt>
<trkpt lat="40.0713844" lon="-105.229758">
  <ele>1583.0</ele>
  <time>2026-08-28T17:52:56Z</time>
  <course>246.24</course>
  <speed>2.17</speed>
  <fix>3d</fix>
</trkpt>
<trkpt lat="40.071382" lon="-105.2297649">
  <ele>1583.02</ele>
  <time>2026-08-28T17:52:56Z</time>
  <course>247.24</course>
  <speed>1.795132307101624</speed>
  <fix>3d</fix>
</trkpt>
<trkpt lat="40.0713828" lon="-105.2297624">
  <ele>1583.0</ele>
  <time>2026-08-28T17:52:56Z</time>
  <course>246.24</course>
  <speed>1.96</speed>
  <fix>3d</fix>
</trkpt>
<trkpt lat="40.0713814" lon="-105.2297668">
  <ele>1583.02</ele>
  <time>2026-08-28T17:52:56Z</time>
  <course>247.24</course>
  <speed>1.70985379491932</speed>
  <fix>3d</fix>
</trkpt>
<trkpt lat="40.0713828" lon="-105.2297624">
  <ele>1583.0</ele>
  <time>2026-08-28T17:52:56Z</time>
  <course>246.24</course>
  <speed>1.96</speed>
  <fix>3d</fix>
</trkpt>
<trkpt lat="40.0713807" lon="-105.2297686">
  <ele>1583.02</ele>
  <time>2026-08-28T17:52:56Z</time>
  <course>247.24</course>
  <speed>1.6204937519163718</speed>
  <fix>3d</fix>
</trkpt>
<trkpt lat="40.0713815" lon="-105.2297665">
  <ele>1583.0</ele>
  <time>2026-08-28T17:52:56Z</time>
  <course>246.24</course>
  <speed>1.78</speed>
  <fix>3d</fix>
</trkpt>
<trkpt lat="40.0713802" lon="-105.2297704">
  <ele>1583.02</ele>
  <time>2026-08-28T17:52:56Z</time>
  <course>247.24</course>
  <speed>1.5352198539622917</speed>
  <fix>3d</fix>
</trkpt>
<trkpt lat="40.0713815" lon="-105.2297665">
  <ele>1583.0</ele>
  <time>2026-08-28T17:52:56Z</time>
  <course>246.24</course>
  <speed>1.78</speed>
  <fix>3d</fix>
</trkpt>
<trkpt lat="40.0713796" lon="-105.229772">
  <ele>1583.02</ele>
  <time>2026-08-28T17:52:56Z</time>
  <course>247.24</course>
  <speed>1.4549914089093448</speed>
  <fix>3d</fix>
</trkpt>
<trkpt lat="40.0713803" lon="-105.2297701">
  <ele>1583.0</ele>
  <time>2026-08-28T17:52:56Z</time>
  <course>246.24</course>
  <speed>1.61</speed>
  <fix>3d</fix>
</trkpt>
<trkpt lat="40.0713791" lon="-105.2297736">
  <ele>1583.02</ele>
  <time>2026-08-28T17:52:56Z</time>
  <course>247.24</course>
  <speed>1.3788400922514545</speed>
  <fix>3d</fix>
</trkpt>
<trkpt lat="40.0713803" lon="-105.2297701">
  <ele>1583.0</ele>
  <time>2026-08-28T17:52:56Z</time>
  <course>246.24</course>
  <speed>1.61</speed>
  <fix>3d</fix>
</trkpt>
<trkpt lat="40.0713786" lon="-105.2297751">
  <ele>1583.02</ele>
  <time>2026-08-28T17:52:56Z</time>
  <course>247.24</course>
  <speed>1.3118307817702708</speed>
  <fix>3d</fix>
</trkpt>
<trkpt lat="40.0713792" lon="-105.2297734">
  <ele>1583.0</ele>
  <time>2026-08-28T17:52:56Z</time>
  <course>246.24</course>
  <speed>1.45</speed>
  <fix>3d</fix>
</trkpt>
<trkpt lat="40.0713781" lon="-105.2297765">
  <ele>1583.03</ele>
  <time>2026-08-28T17:52:56Z</time>
  <course>247.24</course>
  <speed>1.248879497789919</speed>
  <fix>3d</fix>
</trkpt>
<trkpt lat="40.0713792" lon="-105.2297734">
  <ele>1583.0</ele>
  <time>2026-08-28T17:52:56Z</time>
  <course>246.24</course>
  <speed>1.45</speed>
  <fix>3d</fix>
</trkpt>
<trkpt lat="40.0713777" lon="-105.2297778">
  <ele>1583.03</ele>
  <time>2026-08-28T17:52:56Z</time>
  <course>247.24</course>
  <speed>1.1818629362155326</speed>
  <fix>3d</fix>
</trkpt>
<trkpt lat="40.0713782" lon="-105.2297763">
  <ele>1583.0</ele>
  <time>2026-08-28T17:52:56Z</time>
  <course>246.24</course>
  <speed>1.31</speed>
  <fix>3d</fix>
</trkpt>
<trkpt lat="40.0713772" lon="-105.2297791">
  <ele>1583.04</ele>
  <time>2026-08-28T17:52:56Z</time>
  <course>247.24</course>
  <speed>1.114854250563723</speed>
  <fix>3d</fix>
</trkpt>
<trkpt lat="40.0713782" lon="-105.2297763">
  <ele>1583.0</ele>
  <time>2026-08-28T17:52:56Z</time>
  <course>246.24</course>
  <speed>1.31</speed>
  <fix>3d</fix>
</trkpt>
<trkpt lat="40.0713768" lon="-105.2297803">
  <ele>1583.04</ele>
  <time>2026-08-28T17:52:56Z</time>
  <course>247.24</course>
  <speed>1.061037228376083</speed>
  <fix>3d</fix>
</trkpt>
<trkpt lat="40.0713773" lon="-105.2297791">
  <ele>1583.0</ele>
  <time>2026-08-28T17:52:56Z</time>
  <course>246.24</course>
  <speed>1.19</speed>
  <fix>3d</fix>
</trkpt>
<trkpt lat="40.0713764" lon="-105.2297815">
  <ele>1583.05</ele>
  <time>2026-08-28T17:52:56Z</time>
  <course>247.24</course>
  <speed>1.0031948963187562</speed>
  <fix>3d</fix>
</trkpt>
<trkpt lat="40.0713773" lon="-105.2297791">
  <ele>1583.0</ele>
  <time>2026-08-28T17:52:56Z</time>
  <course>246.24</course>
  <speed>1.19</speed>
  <fix>3d</fix>
</trkpt>
<trkpt lat="40.0713761" lon="-105.2297826">
  <ele>1583.05</ele>
  <time>2026-08-28T17:52:56Z</time>
  <course>247.24</course>
  <speed>0.9585405573057407</speed>
  <fix>3d</fix>
</trkpt>
<trkpt lat="40.0713773" lon="-105.2297791">
  <ele>1583.0</ele>
  <time>2026-08-28T17:52:56Z</time>
  <course>246.24</course>
  <speed>1.19</speed>
  <fix>3d</fix>
</trkpt>
<trkpt lat="40.0713757" lon="-105.2297837">
  <ele>1583.05</ele>
  <time>2026-08-28T17:52:56Z</time>
  <course>247.24</course>
  <speed>0.9047098982546836</speed>
  <fix>3d</fix>
</trkpt>
<trkpt lat="40.0713765" lon="-105.2297815">
  <ele>1583.0</ele>
  <time>2026-08-28T17:52:56Z</time>
  <course>246.24</course>
  <speed>1.07</speed>
  <fix>3d</fix>
</trkpt>
<trkpt lat="39.655741" lon="-104.1383097">
  <ele>1566.58</ele>
  <time>2026-08-28T17:52:57Z</time>
  <course>0.0</course>
  <speed>0.0</speed>
  <fix>3d</fix>
</trkpt>
<trkpt lat="40.0713749" lon="-105.229789">
  <ele>1583.0</ele>
  <time>2026-08-28T17:52:57Z</time>
  <course>0.0</course>
  <speed>0.0</speed>
  <fix>3d</fix>
</trkpt>
<trkpt lat="40.0713749" lon="-105.229789">
  <ele>1583.0</ele>
  <time>2026-08-28T17:52:57Z</time>
  <course>238.36</course>
  <speed>0.0</speed>
  <fix>3d</fix>
</trkpt>
<trkpt lat="40.0713749" lon="-105.229789">
  <ele>1583.0</ele>
  <time>2026-08-28T17:52:57Z</time>
  <course>0.0</course>
  <speed>0.0</speed>
  <fix>3d</fix>
</trkpt>
<trkpt lat="40.0713749" lon="-105.229789">
  <ele>1583.0</ele>
  <time>2026-08-28T17:52:57Z</time>
  <course>238.44</course>
  <speed>0.0</speed>
  <fix>3d</fix>
</trkpt>
<trkpt lat="40.0713749" lon="-105.229789">
  <ele>1583.0</ele>
  <time>2026-08-28T17:52:57Z</time>
  <course>0.0</course>
  <speed>0.0</speed>
  <fix>3d</fix>
</trkpt>
<trkpt lat="40.0713749" lon="-105.229789">
  <ele>1583.0</ele>
  <time>2026-08-28T17:52:57Z</time>
  <course>238.64</course>
  <speed>0.0</speed>
  <fix>3d</fix>
</trkpt>
<trkpt lat="40.0713749" lon="-105.229789">
  <ele>1583.0</ele>
  <time>2026-08-28T17:52:57Z</time>
  <course>0.0</course>
  <speed>0.0</speed>
  <fix>3d</fix>
</trkpt>
<trkpt lat="40.0713749" lon="-105.229789">
  <ele>1583.0</ele>
  <time>2026-08-28T17:52:57Z</time>
  <course>238.93</course>
  <speed>0.0</speed>
  <fix>3d</fix>
</trkpt>
<trkpt lat="40.0713749" lon="-105.229789">
  <ele>1583.0</ele>
  <time>2026-08-28T17:52:57Z</time>
  <course>0.0</course>
  <speed>0.0</speed>
  <fix>3d</fix>
</trkpt>
<trkpt lat="40.0713749" lon="-105.229789">
  <ele>1583.0</ele>
  <time>2026-08-28T17:52:57Z</time>
  <course>239.26</course>
  <speed>0.0</speed>
  <fix>3d</fix>
</trkpt>
<trkpt lat="40.0713749" lon="-105.229789">
  <ele>1583.0</ele>
  <time>2026-08-28T17:52:57Z</time>
  <course>0.0</course>
  <speed>0.0</speed>
  <fix>3d</fix>
</trkpt>
<trkpt lat="40.0713749" lon="-105.229789">
  <ele>1583.0</ele>
  <time>2026-08-28T17:52:57Z</time>
  <course>239.61</course>
  <speed>0.0</speed>
  <fix>3d</fix>
</trkpt>
<trkpt lat="40.0713749" lon="-105.229789">
  <ele>1583.0</ele>
  <time>2026-08-28T17:52:57Z</time>
  <course>0.0</course>
  <speed>0.0</speed>
  <fix>3d</fix>
</trkpt>
<trkpt lat="40.0713749" lon="-105.229789">
  <ele>1583.0</ele>
  <time>2026-08-28T17:52:57Z</time>
  <course>239.96</course>
  <speed>0.0</speed>
  <fix>3d</fix>
</trkpt>
<trkpt lat="40.0713749" lon="-105.229789">
  <ele>1583.0</ele>
  <time>2026-08-28T17:52:57Z</time>
  <course>0.0</course>
  <speed>0.0</speed>
  <fix>3d</fix>
</trkpt>
<trkpt lat="40.0713749" lon="-105.229789">
  <ele>1583.0</ele>
  <time>2026-08-28T17:52:57Z</time>
  <course>240.29</course>
  <speed>0.0</speed>
  <fix>3d</fix>
</trkpt>
<trkpt lat="40.0713749" lon="-105.229789">
  <ele>1583.0</ele>
  <time>2026-08-28T17:52:57Z</time>
  <course>0.0</course>
  <speed>0.0</speed>
  <fix>3d</fix>
</trkpt>
<trkpt lat="40.0713749" lon="-105.229789">
  <ele>1583.0</ele>
  <time>2026-08-28T17:52:57Z</time>
  <course>240.61</course>
  <speed>0.0</speed>
  <fix>3d</fix>
</trkpt>
<trkpt lat="40.0713749" lon="-105.229789">
  <ele>1583.0</ele>
  <time>2026-08-28T17:52:57Z</time>
  <course>0.0</course>
  <speed>0.0</speed>
  <fix>3d</fix>
</trkpt>
<trkpt lat="40.0713749" lon="-105.229789">
  <ele>1583.0</ele>
  <time>2026-08-28T17:52:57Z</time>
  <course>240.92</course>
  <speed>0.0</speed>
  <fix>3d</fix>
</trkpt>
<trkpt lat="40.0713749" lon="-105.229789">
  <ele>1583.0</ele>
  <time>2026-08-28T17:52:57Z</time>
  <course>0.0</course>
  <speed>0.0</speed>
  <fix>3d</fix>
</trkpt>
<trkpt lat="40.0713749" lon="-105.229789">
  <ele>1583.0</ele>
  <time>2026-08-28T17:52:57Z</time>
  <course>241.21</course>
  <speed>0.0</speed>
  <fix>3d</fix>
</trkpt>
<trkpt lat="40.0713749" lon="-105.229789">
  <ele>1583.0</ele>
  <time>2026-08-28T17:52:57Z</time>
  <course>0.0</course>
  <speed>0.0</speed>
  <fix>3d</fix>
</trkpt>
<trkpt lat="40.0713749" lon="-105.229789">
  <ele>1583.0</ele>
  <time>2026-08-28T17:52:57Z</time>
  <course>241.49</course>
  <speed>0.0</speed>
  <fix>3d</fix>
</trkpt>
<trkpt lat="40.0713749" lon="-105.229789">
  <ele>1583.0</ele>
  <time>2026-08-28T17:52:57Z</time>
  <course>0.0</course>
  <speed>0.0</speed>
  <fix>3d</fix>
</trkpt>
<trkpt lat="40.0713749" lon="-105.229789">
  <ele>1583.0</ele>
  <time>2026-08-28T17:52:57Z</time>
  <course>241.77</course>
  <speed>0.0</speed>
  <fix>3d</fix>
</trkpt>
<trkpt lat="40.0713749" lon="-105.229789">
  <ele>1583.0</ele>
  <time>2026-08-28T17:52:57Z</time>
  <course>0.0</course>
  <speed>0.0</speed>
  <fix>3d</fix>
</trkpt>
<trkpt lat="40.0713749" lon="-105.229789">
  <ele>1583.0</ele>
  <time>2026-08-28T17:52:57Z</time>
  <course>242.03</course>
  <speed>0.0</speed>
  <fix>3d</fix>
</trkpt>
<trkpt lat="40.0713749" lon="-105.229789">
  <ele>1583.0</ele>
  <time>2026-08-28T17:52:57Z</time>
  <course>0.0</course>
  <speed>0.0</speed>
  <fix>3d</fix>
</trkpt>
<trkpt lat="40.0713749" lon="-105.229789">
  <ele>1583.0</ele>
  <time>2026-08-28T17:52:57Z</time>
  <course>242.29</course>
  <speed>0.0</speed>
  <fix>3d</fix>
</trkpt>
<trkpt lat="40.0713749" lon="-105.229789">
  <ele>1583.0</ele>
  <time>2026-08-28T17:52:57Z</time>
  <course>0.0</course>
  <speed>0.0</speed>
  <fix>3d</fix>
</trkpt>
<trkpt lat="40.0713749" lon="-105.229789">
  <ele>1583.0</ele>
  <time>2026-08-28T17:52:57Z</time>
  <course>242.54</course>
  <speed>0.0</speed>
  <fix>3d</fix>
</trkpt>
<trkpt lat="40.0713749" lon="-105.229789">
  <ele>1583.0</ele>
  <time>2026-08-28T17:52:57Z</time>
  <course>0.0</course>
  <speed>0.0</speed>
  <fix>3d</fix>
</trkpt>
<trkpt lat="40.0713749" lon="-105.229789">
  <ele>1583.0</ele>
  <time>2026-08-28T17:52:57Z</time>
  <course>242.79</course>
  <speed>0.0</speed>
  <fix>3d</fix>
</trkpt>
<trkpt lat="40.0713749" lon="-105.229789">
  <ele>1583.0</ele>
  <time>2026-08-28T17:52:57Z</time>
  <course>0.0</course>
  <speed>0.0</speed>
  <fix>3d</fix>
</trkpt>
<trkpt lat="40.0713749" lon="-105.229789">
  <ele>1583.0</ele>
  <time>2026-08-28T17:52:57Z</time>
  <course>243.02</course>
  <speed>0.0</speed>
  <fix>3d</fix>
</trkpt>
<trkpt lat="40.0713749" lon="-105.229789">
  <ele>1583.0</ele>
  <time>2026-08-28T17:52:57Z</time>
  <course>0.0</course>
  <speed>0.0</speed>
  <fix>3d</fix>
</trkpt>
<trkpt lat="40.0713749" lon="-105.229789">
  <ele>1583.0</ele>
  <time>2026-08-28T17:52:57Z</time>
  <course>243.25</course>
  <speed>0.0</speed>
  <fix>3d</fix>
</trkpt>
<trkpt lat="40.0713749" lon="-105.229789">
  <ele>1583.0</ele>
  <time>2026-08-28T17:52:57Z</time>
  <course>0.0</course>
  <speed>0.0</speed>
  <fix>3d</fix>
</trkpt>
<trkpt lat="40.0713749" lon="-105.229789">
  <ele>1583.0</ele>
  <time>2026-08-28T17:52:57Z</time>
  <course>243.47</course>
  <speed>0.0</speed>
  <fix>3d</fix>
</trkpt>
<trkpt lat="40.0713749" lon="-105.229789">
  <ele>1583.0</ele>
  <time>2026-08-28T17:52:57Z</time>
  <course>0.0</course>
  <speed>0.0</speed>
  <fix>3d</fix>
</trkpt>
<trkpt lat="40.0713749" lon="-105.229789">
  <ele>1583.0</ele>
  <time>2026-08-28T17:52:57Z</time>
  <course>243.68</course>
  <speed>0.0</speed>
  <fix>3d</fix>
</trkpt>
<trkpt lat="40.0713749" lon="-105.229789">
  <ele>1583.0</ele>
  <time>2026-08-28T17:52:57Z</time>
  <course>0.0</course>
  <speed>0.0</speed>
  <fix>3d</fix>
</trkpt>
<trkpt lat="40.0713749" lon="-105.229789">
  <ele>1583.0</ele>
  <time>2026-08-28T17:52:57Z</time>
  <course>243.89</course>
  <speed>0.0</speed>
  <fix>3d</fix>
</trkpt>
<trkpt lat="40.0713749" lon="-105.229789">
  <ele>1583.0</ele>
  <time>2026-08-28T17:52:57Z</time>
  <course>0.0</course>
  <speed>0.0</speed>
  <fix>3d</fix>
</trkpt>
<trkpt lat="40.0713749" lon="-105.229789">
  <ele>1583.0</ele>
  <time>2026-08-28T17:52:57Z</time>
  <course>244.09</course>
  <speed>0.0</speed>
  <fix>3d</fix>
</trkpt>
<trkpt lat="40.0713749" lon="-105.229789">
  <ele>1583.0</ele>
  <time>2026-08-28T17:52:57Z</time>
  <course>0.0</course>
  <speed>0.0</speed>
  <fix>3d</fix>
</trkpt>
<trkpt lat="40.0713749" lon="-105.229789">
  <ele>1583.0</ele>
  <time>2026-08-28T17:52:57Z</time>
  <course>244.28</course>
  <speed>0.0</speed>
  <fix>3d</fix>
</trkpt>
<trkpt lat="40.0713749" lon="-105.229789">
  <ele>1583.0</ele>
  <time>2026-08-28T17:52:57Z</time>
  <course>0.0</course>
  <speed>0.0</speed>
  <fix>3d</fix>
</trkpt>
<trkpt lat="40.0713749" lon="-105.229789">
  <ele>1583.0</ele>
  <time>2026-08-28T17:52:57Z</time>
  <course>244.46</course>
  <speed>0.0</speed>
  <fix>3d</fix>
</trkpt>
<trkpt lat="40.0713749" lon="-105.229789">
  <ele>1583.0</ele>
  <time>2026-08-28T17:52:57Z</time>
  <course>0.0</course>
  <speed>0.0</speed>
  <fix>3d</fix>
</trkpt>
<trkpt lat="40.0713749" lon="-105.229789">
  <ele>1583.0</ele>
  <time>2026-08-28T17:52:57Z</time>
  <course>244.64</course>
  <speed>0.0</speed>
  <fix>3d</fix>
</trkpt>
<trkpt lat="40.0713749" lon="-105.229789">
  <ele>1583.0</ele>
  <time>2026-08-28T17:52:57Z</time>
  <course>0.0</course>
  <speed>0.0</speed>
  <fix>3d</fix>
</trkpt>
<trkpt lat="40.0713749" lon="-105.229789">
  <ele>1583.0</ele>
  <time>2026-08-28T17:52:57Z</time>
  <course>244.81</course>
  <speed>0.0</speed>
  <fix>3d</fix>
</trkpt>
<trkpt lat="40.0713749" lon="-105.229789">
  <ele>1583.0</ele>
  <time>2026-08-28T17:52:57Z</time>
  <course>0.0</course>
  <speed>0.0</speed>
  <fix>3d</fix>
</trkpt>
<trkpt lat="40.0713749" lon="-105.229789">
  <ele>1583.0</ele>
  <time>2026-08-28T17:52:57Z</time>
  <course>244.97</course>
  <speed>0.0</speed>
  <fix>3d</fix>
</trkpt>
<trkpt lat="40.0713749" lon="-105.229789">
  <ele>1583.0</ele>
  <time>2026-08-28T17:52:57Z</time>
  <course>0.0</course>
  <speed>0.0</speed>
  <fix>3d</fix>
</trkpt>
<trkpt lat="40.0713749" lon="-105.229789">
  <ele>1583.0</ele>
  <time>2026-08-28T17:52:57Z</time>
  <course>245.13</course>
  <speed>0.0</speed>
  <fix>3d</fix>
</trkpt>
<trkpt lat="40.0713749" lon="-105.229789">
  <ele>1583.0</ele>
  <time>2026-08-28T17:52:57Z</time>
  <course>0.0</course>
  <speed>0.0</speed>
  <fix>3d</fix>
</trkpt>
<trkpt lat="40.0713749" lon="-105.229789">
  <ele>1583.0</ele>
  <time>2026-08-28T17:52:57Z</time>
  <course>245.29</course>
  <speed>0.0</speed>
  <fix>3d</fix>
</trkpt>
<trkpt lat="40.0713749" lon="-105.229789">
  <ele>1583.0</ele>
  <time>2026-08-28T17:52:57Z</time>
  <course>0.0</course>
  <speed>0.0</speed>
  <fix>3d</fix>
</trkpt>
<trkpt lat="40.0713749" lon="-105.229789">
  <ele>1583.0</ele>
  <time>2026-08-28T17:52:57Z</time>
  <course>245.43</course>
  <speed>0.0</speed>
  <fix>3d</fix>
</trkpt>
<trkpt lat="40.0713749" lon="-105.229789">
  <ele>1583.0</ele>
  <time>2026-08-28T17:52:57Z</time>
  <course>0.0</course>
  <speed>0.0</speed>
  <fix>3d</fix>
</trkpt>
<trkpt lat="40.0713749" lon="-105.229789">
  <ele>1583.0</ele>
  <time>2026-08-28T17:52:57Z</time>
  <course>245.57</course>
  <speed>0.0</speed>
  <fix>3d</fix>
</trkpt>
<trkpt lat="40.0713749" lon="-105.229789">
  <ele>1583.0</ele>
  <time>2026-08-28T17:52:57Z</time>
  <course>0.0</course>
  <speed>0.0</speed>
  <fix>3d</fix>
</trkpt>
<trkpt lat="40.0713749" lon="-105.229789">
  <ele>1583.0</ele>
  <time>2026-08-28T17:52:57Z</time>
  <course>245.71</course>
  <speed>0.0</speed>
  <fix>3d</fix>
</trkpt>
<trkpt lat="40.0713749" lon="-105.229789">
  <ele>1583.0</ele>
  <time>2026-08-28T17:52:57Z</time>
  <course>0.0</course>
  <speed>0.0</speed>
  <fix>3d</fix>
</trkpt>
<trkpt lat="40.0713749" lon="-105.229789">
  <ele>1583.0</ele>
  <time>2026-08-28T17:52:57Z</time>
  <course>245.84</course>
  <speed>0.0</speed>
  <fix>3d</fix>
</trkpt>
<trkpt lat="40.0713749" lon="-105.229789">
  <ele>1583.0</ele>
  <time>2026-08-28T17:52:57Z</time>
  <course>0.0</course>
  <speed>0.0</speed>
  <fix>3d</fix>
</trkpt>
<trkpt lat="40.0713749" lon="-105.229789">
  <ele>1583.0</ele>
  <time>2026-08-28T17:52:57Z</time>
  <course>245.96</course>
  <speed>0.0</speed>
  <fix>3d</fix>
</trkpt>
<trkpt lat="40.0713749" lon="-105.229789">
  <ele>1583.0</ele>
  <time>2026-08-28T17:52:57Z</time>
  <course>0.0</course>
  <speed>0.0</speed>
  <fix>3d</fix>
</trkpt>
<trkpt lat="40.0713749" lon="-105.229789">
  <ele>1583.0</ele>
  <time>2026-08-28T17:52:57Z</time>
  <course>246.08</course>
  <speed>0.0</speed>
  <fix>3d</fix>
</trkpt>
<trkpt lat="40.0713749" lon="-105.229789">
  <ele>1583.0</ele>
  <time>2026-08-28T17:52:57Z</time>
  <course>0.0</course>
  <speed>0.0</speed>
  <fix>3d</fix>
</trkpt>
<trkpt lat="40.0713749" lon="-105.229789">
  <ele>1583.0</ele>
  <time>2026-08-28T17:52:57Z</time>
  <course>246.19</course>
  <speed>0.0</speed>
  <fix>3d</fix>
</trkpt>
<trkpt lat="40.0713749" lon="-105.229789">
  <ele>1583.0</ele>
  <time>2026-08-28T17:52:57Z</time>
  <course>0.0</course>
  <speed>0.0</speed>
  <fix>3d</fix>
</trkpt>
<trkpt lat="40.0713749" lon="-105.229789">
  <ele>1583.0</ele>
  <time>2026-08-28T17:52:57Z</time>
  <course>246.3</course>
  <speed>0.0</speed>
  <fix>3d</fix>
</trkpt>
<trkpt lat="40.0713749" lon="-105.229789">
  <ele>1583.0</ele>
  <time>2026-08-28T17:52:57Z</time>
  <course>0.0</course>
  <speed>0.0</speed>
  <fix>3d</fix>
</trkpt>
<trkpt lat="40.0713749" lon="-105.229789">
  <ele>1583.0</ele>
  <time>2026-08-28T17:52:57Z</time>
  <course>246.41</course>
  <speed>0.0</speed>
  <fix>3d</fix>
</trkpt>
<trkpt lat="40.0713749" lon="-105.229789">
  <ele>1583.0</ele>
  <time>2026-08-28T17:52:57Z</time>
  <course>0.0</course>
  <speed>0.0</speed>
  <fix>3d</fix>
</trkpt>
<trkpt lat="40.0713749" lon="-105.229789">
  <ele>1583.0</ele>
  <time>2026-08-28T17:52:57Z</time>
  <course>246.51</course>
  <speed>0.0</speed>
  <fix>3d</fix>
</trkpt>
<trkpt lat="40.0713749" lon="-105.229789">
  <ele>1583.0</ele>
  <time>2026-08-28T17:52:57Z</time>
  <course>0.0</course>
  <speed>0.0</speed>
  <fix>3d</fix>
</trkpt>
<trkpt lat="40.0713749" lon="-105.229789">
  <ele>1583.0</ele>
  <time>2026-08-28T17:52:57Z</time>
  <course>246.6</course>
  <speed>0.0</speed>
  <fix>3d</fix>
</trkpt>
<trkpt lat="40.0713749" lon="-105.229789">
  <ele>1583.0</ele>
  <time>2026-08-28T17:52:57Z</time>
  <course>0.0</course>
  <speed>0.0</speed>
  <fix>3d</fix>
</trkpt>
<trkpt lat="40.0713749" lon="-105.229789">
  <ele>1583.0</ele>
  <time>2026-08-28T17:52:57Z</time>
  <course>246.7</course>
  <speed>0.0</speed>
  <fix>3d</fix>
</trkpt>
<trkpt lat="40.0713749" lon="-105.229789">
  <ele>1583.0</ele>
  <time>2026-08-28T17:52:57Z</time>
  <course>0.0</course>
  <speed>0.0</speed>
  <fix>3d</fix>
</trkpt>
<trkpt lat="40.0713749" lon="-105.229789">
  <ele>1583.0</ele>
  <time>2026-08-28T17:52:57Z</time>
  <course>246.78</course>
  <speed>0.0</speed>
  <fix>3d</fix>
</trkpt>
<trkpt lat="40.0713749" lon="-105.229789">
  <ele>1583.0</ele>
  <time>2026-08-28T17:52:57Z</time>
  <course>0.0</course>
  <speed>0.0</speed>
  <fix>3d</fix>
</trkpt>
<trkpt lat="40.0713749" lon="-105.229789">
  <ele>1583.0</ele>
  <time>2026-08-28T17:52:57Z</time>
  <course>246.87</course>
  <speed>0.0</speed>
  <fix>3d</fix>
</trkpt>
<trkpt lat="40.0713749" lon="-105.229789">
  <ele>1583.0</ele>
  <time>2026-08-28T17:52:57Z</time>
  <course>0.0</course>
  <speed>0.0</speed>
  <fix>3d</fix>
</trkpt>
<trkpt lat="40.0713749" lon="-105.229789">
  <ele>1583.0</ele>
  <time>2026-08-28T17:52:57Z</time>
  <course>246.95</course>
  <speed>0.0</speed>
  <fix>3d</fix>
</trkpt>
<trkpt lat="40.0713749" lon="-105.229789">
  <ele>1583.0</ele>
  <time>2026-08-28T17:52:57Z</time>
  <course>0.0</course>
  <speed>0.0</speed>
  <fix>3d</fix>
</trkpt>
<trkpt lat="40.0713749" lon="-105.229789">
  <ele>1583.0</ele>
  <time>2026-08-28T17:52:57Z</time>
  <course>247.02</course>
  <speed>0.0</speed>
  <fix>3d</fix>
</trkpt>
<trkpt lat="40.0713749" lon="-105.229789">
  <ele>1583.0</ele>
  <time>2026-08-28T17:52:57Z</time>
  <course>0.0</course>
  <speed>0.0</speed>
  <fix>3d</fix>
</trkpt>
<trkpt lat="40.0713749" lon="-105.229789">
  <ele>1583.0</ele>
  <time>2026-08-28T17:52:57Z</time>
  <course>247.1</course>
  <speed>0.0</speed>
  <fix>3d</fix>
</trkpt>
<trkpt lat="40.0713749" lon="-105.229789">
  <ele>1583.0</ele>
  <time>2026-08-28T17:52:57Z</time>
  <course>0.0</course>
  <speed>0.0</speed>
  <fix>3d</fix>
</trkpt>
<trkpt lat="40.0713749" lon="-105.229789">
  <ele>1583.0</ele>
  <time>2026-08-28T17:52:57Z</time>
  <course>247.17</course>
  <speed>0.0</speed>
  <fix>3d</fix>
</trkpt>
<trkpt lat="40.0713749" lon="-105.229789">
  <ele>1583.0</ele>
  <time>2026-08-28T17:52:57Z</time>
  <course>0.0</course>
  <speed>0.0</speed>
  <fix>3d</fix>
</trkpt>
<trkpt lat="40.0713749" lon="-105.229789">
  <ele>1583.0</ele>
  <time>2026-08-28T17:52:57Z</time>
  <course>247.24</course>
  <speed>0.0</speed>
  <fix>3d</fix>
</trkpt>
<trkpt lat="40.0713749" lon="-105.229789">
  <ele>1583.0</ele>
  <time>2026-08-28T17:52:57Z</time>
  <course>0.0</course>
  <speed>0.0</speed>
  <fix>3d</fix>
</trkpt>
<trkpt lat="40.0713749" lon="-105.229789">
  <ele>1583.0</ele>
  <time>2026-08-28T17:52:57Z</time>
  <course>247.3</course>
  <speed>0.0</speed>
  <fix>3d</fix>
</trkpt>
<trkpt lat="40.0713749" lon="-105.229789">
  <ele>1583.0</ele>
  <time>2026-08-28T17:52:57Z</time>
  <course>0.0</course>
  <speed>0.0</speed>
  <fix>3d</fix>
</trkpt>
<trkpt lat="40.0713749" lon="-105.229789">
  <ele>1583.0</ele>
  <time>2026-08-28T17:52:57Z</time>
  <course>247.36</course>
  <speed>0.0</speed>
  <fix>3d</fix>
</trkpt>
<trkpt lat="40.0713749" lon="-105.229789">
  <ele>1583.0</ele>
  <time>2026-08-28T17:52:57Z</time>
  <course>0.0</course>
  <speed>0.0</speed>
  <fix>3d</fix>
</trkpt>
<trkpt lat="40.0713749" lon="-105.229789">
  <ele>1583.0</ele>
  <time>2026-08-28T17:52:57Z</time>
  <course>247.42</course>
  <speed>0.0</speed>
  <fix>3d</fix>
</trkpt>
<trkpt lat="40.0713749" lon="-105.229789">
  <ele>1583.0</ele>
  <time>2026-08-28T17:52:57Z</time>
  <course>0.0</course>
  <speed>0.0</speed>
  <fix>3d</fix>
</trkpt>
<trkpt lat="40.0713749" lon="-105.229789">
  <ele>1583.0</ele>
  <time>2026-08-28T17:52:57Z</time>
  <course>247.47</course>
  <speed>0.0</speed>
  <fix>3d</fix>
</trkpt>
<trkpt lat="40.0713749" lon="-105.229789">
  <ele>1583.0</ele>
  <time>2026-08-28T17:52:57Z</time>
  <course>0.0</course>
  <speed>0.0</speed>
  <fix>3d</fix>
</trkpt>
<trkpt lat="40.0713749" lon="-105.229789">
  <ele>1583.0</ele>
  <time>2026-08-28T17:52:57Z</time>
  <course>247.53</course>
  <speed>0.0</speed>
  <fix>3d</fix>
</trkpt>
<trkpt lat="40.0713749" lon="-105.229789">
  <ele>1583.0</ele>
  <time>2026-08-28T17:52:57Z</time>
  <course>0.0</course>
  <speed>0.0</speed>
  <fix>3d</fix>
</trkpt>
<trkpt lat="40.0713749" lon="-105.229789">
  <ele>1583.0</ele>
  <time>2026-08-28T17:52:57Z</time>
  <course>247.58</course>
  <speed>0.0</speed>
  <fix>3d</fix>
</trkpt>
<trkpt lat="40.0713749" lon="-105.229789">
  <ele>1583.0</ele>
  <time>2026-08-28T17:52:57Z</time>
  <course>0.0</course>
  <speed>0.0</speed>
  <fix>3d</fix>
</trkpt>
<trkpt lat="40.0713749" lon="-105.229789">
  <ele>1583.0</ele>
  <time>2026-08-28T17:52:57Z</time>
  <course>247.63</course>
  <speed>0.0</speed>
  <fix>3d</fix>
</trkpt>
<trkpt lat="40.0713749" lon="-105.229789">
  <ele>1583.0</ele>
  <time>2026-08-28T17:52:57Z</time>
  <course>0.0</course>
  <speed>0.0</speed>
  <fix>3d</fix>
</trkpt>
<trkpt lat="40.0713749" lon="-105.229789">
  <ele>1583.0</ele>
  <time>2026-08-28T17:52:57Z</time>
  <course>247.67</course>
  <speed>0.0</speed>
  <fix>3d</fix>
</trkpt>
<trkpt lat="40.0713749" lon="-105.229789">
  <ele>1583.0</ele>
  <time>2026-08-28T17:52:57Z</time>
  <course>0.0</course>
  <speed>0.0</speed>
  <fix>3d</fix>
</trkpt>
<trkpt lat="40.0713749" lon="-105.229789">
  <ele>1583.0</ele>
  <time>2026-08-28T17:52:57Z</time>
  <course>247.72</course>
  <speed>0.0</speed>
  <fix>3d</fix>
</trkpt>
<trkpt lat="40.0713749" lon="-105.229789">
  <ele>1583.0</ele>
  <time>2026-08-28T17:52:57Z</time>
  <course>0.0</course>
  <speed>0.0</speed>
  <fix>3d</fix>
</trkpt>
<trkpt lat="40.0713749" lon="-105.229789">
  <ele>1583.0</ele>
  <time>2026-08-28T17:52:57Z</time>
  <course>247.76</course>
  <speed>0.0</speed>
  <fix>3d</fix>
</trkpt>
<trkpt lat="40.0713749" lon="-105.229789">
  <ele>1583.0</ele>
  <time>2026-08-28T17:52:57Z</time>
  <course>0.0</course>
  <speed>0.0</speed>
  <fix>3d</fix>
</trkpt>
<trkpt lat="40.0713749" lon="-105.229789">
  <ele>1583.0</ele>
  <time>2026-08-28T17:52:57Z</time>
  <course>247.8</course>
  <speed>0.0</speed>
  <fix>3d</fix>
</trkpt>
<trkpt lat="40.0713749" lon="-105.229789">
  <ele>1583.0</ele>
  <time>2026-08-28T17:52:57Z</time>
  <course>0.0</course>
  <speed>0.0</speed>
  <fix>3d</fix>
</trkpt>
<trkpt lat="40.0713749" lon="-105.229789">
  <ele>1583.0</ele>
  <time>2026-08-28T17:52:57Z</time>
  <course>247.83</course>
  <speed>0.0</speed>
  <fix>3d</fix>
</trkpt>
<trkpt lat="40.0713749" lon="-105.229789">
  <ele>1583.0</ele>
  <time>2026-08-28T17:52:57Z</time>
  <course>0.0</course>
  <speed>0.0</speed>
  <fix>3d</fix>
</trkpt>
<trkpt lat="40.0713749" lon="-105.229789">
  <ele>1583.0</ele>
  <time>2026-08-28T17:52:57Z</time>
  <course>247.87</course>
  <speed>0.0</speed>
  <fix>3d</fix>
</trkpt>
<trkpt lat="40.0713749" lon="-105.229789">
  <ele>1583.0</ele>
  <time>2026-08-28T17:52:57Z</time>
  <course>0.0</course>
  <speed>0.0</speed>
  <fix>3d</fix>
</trkpt>
<trkpt lat="40.0713749" lon="-105.229789">
  <ele>1583.0</ele>
  <time>2026-08-28T17:52:57Z</time>
  <course>247.9</course>
  <speed>0.0</speed>
  <fix>3d</fix>
</trkpt>
<trkpt lat="40.0713749" lon="-105.229789">
  <ele>1583.0</ele>
  <time>2026-08-28T17:52:57Z</time>
  <course>0.0</course>
  <speed>0.0</speed>
  <fix>3d</fix>
</trkpt>
<trkpt lat="40.0713749" lon="-105.229789">
  <ele>1583.0</ele>
  <time>2026-08-28T17:52:57Z</time>
  <course>247.94</course>
  <speed>0.0</speed>
  <fix>3d</fix>
</trkpt>
<trkpt lat="40.0713749" lon="-105.229789">
  <ele>1583.0</ele>
  <time>2026-08-28T17:52:57Z</time>
  <course>0.0</course>
  <speed>0.0</speed>
  <fix>3d</fix>
</trkpt>
<trkpt lat="40.0713749" lon="-105.229789">
  <ele>1583.0</ele>
  <time>2026-08-28T17:52:57Z</time>
  <course>247.97</course>
  <speed>0.0</speed>
  <fix>3d</fix>
</trkpt>
<trkpt lat="40.0713749" lon="-105.229789">
  <ele>1583.0</ele>
  <time>2026-08-28T17:52:57Z</time>
  <course>0.0</course>
  <speed>0.0</speed>
  <fix>3d</fix>
</trkpt>
<trkpt lat="40.0713749" lon="-105.229789">
  <ele>1583.0</ele>
  <time>2026-08-28T17:52:57Z</time>
  <course>248.0</course>
  <speed>0.0</speed>
  <fix>3d</fix>
</trkpt>
<trkpt lat="40.0713749" lon="-105.229789">
  <ele>1583.0</ele>
  <time>2026-08-28T17:52:57Z</time>
  <course>0.0</course>
  <speed>0.0</speed>
  <fix>3d</fix>
</trkpt>
<trkpt lat="40.0713749" lon="-105.229789">
  <ele>1583.0</ele>
  <time>2026-08-28T17:52:57Z</time>
  <course>248.02</course>
  <speed>0.0</speed>
  <fix>3d</fix>
</trkpt>
<trkpt lat="40.0713749" lon="-105.229789">
  <ele>1583.0</ele>
  <time>2026-08-28T17:52:57Z</time>
  <course>0.0</course>
  <speed>0.0</speed>
  <fix>3d</fix>
</trkpt>
<trkpt lat="40.0713749" lon="-105.229789">
  <ele>1583.0</ele>
  <time>2026-08-28T17:52:57Z</time>
  <course>248.05</course>
  <speed>0.0</speed>
  <fix>3d</fix>
</trkpt>
<trkpt lat="40.0713749" lon="-105.229789">
  <ele>1583.0</ele>
  <time>2026-08-28T17:52:57Z</time>
  <course>0.0</course>
  <speed>0.0</speed>
  <fix>3d</fix>
</trkpt>
<trkpt lat="40.0713749" lon="-105.229789">
  <ele>1583.0</ele>
  <time>2026-08-28T17:52:57Z</time>
  <course>248.08</course>
  <speed>0.0</speed>
  <fix>3d</fix>
</trkpt>
<trkpt lat="40.0713749" lon="-105.229789">
  <ele>1583.0</ele>
  <time>2026-08-28T17:52:57Z</time>
  <course>0.0</course>
  <speed>0.0</speed>
  <fix>3d</fix>
</trkpt>
<trkpt lat="40.0713749" lon="-105.229789">
  <ele>1583.0</ele>
  <time>2026-08-28T17:52:57Z</time>
  <course>248.1</course>
  <speed>0.0</speed>
  <fix>3d</fix>
</trkpt>
<trkpt lat="40.0713749" lon="-105.229789">
  <ele>1583.0</ele>
  <time>2026-08-28T17:52:57Z</time>
  <course>0.0</course>
  <speed>0.0</speed>
  <fix>3d</fix>
</trkpt>
<trkpt lat="40.0713749" lon="-105.229789">
  <ele>1583.0</ele>
  <time>2026-08-28T17:52:57Z</time>
  <course>248.12</course>
  <speed>0.0</speed>
  <fix>3d</fix>
</trkpt>
<trkpt lat="40.0713749" lon="-105.229789">
  <ele>1583.0</ele>
  <time>2026-08-28T17:52:57Z</time>
  <course>0.0</course>
  <speed>0.0</speed>
  <fix>3d</fix>
</trkpt>
<trkpt lat="40.0713749" lon="-105.229789">
  <ele>1583.0</ele>
  <time>2026-08-28T17:52:57Z</time>
  <course>248.14</course>
  <speed>0.0</speed>
  <fix>3d</fix>
</trkpt>
<trkpt lat="40.0713749" lon="-105.229789">
  <ele>1583.0</ele>
  <time>2026-08-28T17:52:57Z</time>
  <course>0.0</course>
  <speed>0.0</speed>
  <fix>3d</fix>
</trkpt>
<trkpt lat="40.0713749" lon="-105.229789">
  <ele>1583.0</ele>
  <time>2026-08-28T17:52:57Z</time>
  <course>248.16</course>
  <speed>0.0</speed>
  <fix>3d</fix>
</trkpt>
<trkpt lat="40.0713749" lon="-105.229789">
  <ele>1583.0</ele>
  <time>2026-08-28T17:52:57Z</time>
  <course>0.0</course>
  <speed>0.0</speed>
  <fix>3d</fix>
</trkpt>
<trkpt lat="40.0713749" lon="-105.229789">
  <ele>1583.0</ele>
  <time>2026-08-28T17:52:57Z</time>
  <course>248.18</course>
  <speed>0.0</speed>
  <fix>3d</fix>
</trkpt>
<trkpt lat="40.0713749" lon="-105.229789">
  <ele>1583.0</ele>
  <time>2026-08-28T17:52:57Z</time>
  <course>0.0</course>
  <speed>0.0</speed>
  <fix>3d</fix>
</trkpt>
<trkpt lat="40.0713749" lon="-105.229789">
  <ele>1583.0</ele>
  <time>2026-08-28T17:52:57Z</time>
  <course>248.2</course>
  <speed>0.0</speed>
  <fix>3d</fix>
</trkpt>
<trkpt lat="40.0713749" lon="-105.229789">
  <ele>1583.0</ele>
  <time>2026-08-28T17:52:57Z</time>
  <course>0.0</course>
  <speed>0.0</speed>
  <fix>3d</fix>
</trkpt>
<trkpt lat="40.0713749" lon="-105.229789">
  <ele>1583.0</ele>
  <time>2026-08-28T17:52:57Z</time>
  <course>248.22</course>
  <speed>0.0</speed>
  <fix>3d</fix>
</trkpt>
<trkpt lat="40.0713749" lon="-105.229789">
  <ele>1583.0</ele>
  <time>2026-08-28T17:52:57Z</time>
  <course>0.0</course>
  <speed>0.0</speed>
  <fix>3d</fix>
</trkpt>
<trkpt lat="40.0713749" lon="-105.229789">
  <ele>1583.0</ele>
  <time>2026-08-28T17:52:57Z</time>
  <course>248.23</course>
  <speed>0.0</speed>
  <fix>3d</fix>
</trkpt>
<trkpt lat="40.0713749" lon="-105.229789">
  <ele>1583.0</ele>
  <time>2026-08-28T17:52:57Z</time>
  <course>0.0</course>
  <speed>0.0</speed>
  <fix>3d</fix>
</trkpt>
<trkpt lat="40.0713749" lon="-105.229789">
  <ele>1583.0</ele>
  <time>2026-08-28T17:52:57Z</time>
  <course>248.25</course>
  <speed>0.0</speed>
  <fix>3d</fix>
</trkpt>
<trkpt lat="40.0713749" lon="-105.229789">
  <ele>1583.0</ele>
  <time>2026-08-28T17:52:57Z</time>
  <course>0.0</course>
  <speed>0.0</speed>
  <fix>3d</fix>
</trkpt>
<trkpt lat="40.0713749" lon="-105.229789">
  <ele>1583.0</ele>
  <time>2026-08-28T17:52:57Z</time>
  <course>248.26</course>
  <speed>0.0</speed>
  <fix>3d</fix>
</trkpt>
<trkpt lat="40.0713749" lon="-105.229789">
  <ele>1583.0</ele>
  <time>2026-08-28T17:52:57Z</time>
  <course>0.0</course>
  <speed>0.0</speed>
  <fix>3d</fix>
</trkpt>
<trkpt lat="40.0713749" lon="-105.229789">
  <ele>1583.0</ele>
  <time>2026-08-28T17:52:57Z</time>
  <course>248.28</course>
  <speed>0.0</speed>
  <fix>3d</fix>
</trkpt>
<trkpt lat="40.0713749" lon="-105.229789">
  <ele>1583.0</ele>
  <time>2026-08-28T17:52:57Z</time>
  <course>0.0</course>
  <speed>0.0</speed>
  <fix>3d</fix>
</trkpt>
<trkpt lat="40.0713749" lon="-105.229789">
  <ele>1583.0</ele>
  <time>2026-08-28T17:52:57Z</time>
  <course>248.29</course>
  <speed>0.0</speed>
  <fix>3d</fix>
</trkpt>
<trkpt lat="40.0713749" lon="-105.229789">
  <ele>1583.0</ele>
  <time>2026-08-28T17:52:57Z</time>
  <course>0.0</course>
  <speed>0.0</speed>
  <fix>3d</fix>
</trkpt>
<trkpt lat="40.0713749" lon="-105.229789">
  <ele>1583.0</ele>
  <time>2026-08-28T17:52:57Z</time>
  <course>248.3</course>
  <speed>0.0</speed>
  <fix>3d</fix>
</trkpt>
<trkpt lat="40.0713749" lon="-105.229789">
  <ele>1583.0</ele>
  <time>2026-08-28T17:52:57Z</time>
  <course>0.0</course>
  <speed>0.0</speed>
  <fix>3d</fix>
</trkpt>
<trkpt lat="40.0713749" lon="-105.229789">
  <ele>1583.0</ele>
  <time>2026-08-28T17:52:57Z</time>
  <course>248.31</course>
  <speed>0.0</speed>
  <fix>3d</fix>
</trkpt>
<trkpt lat="40.0713749" lon="-105.229789">
  <ele>1583.0</ele>
  <time>2026-08-28T17:52:57Z</time>
  <course>0.0</course>
  <speed>0.0</speed>
  <fix>3d</fix>
</trkpt>
<trkpt lat="40.0713749" lon="-105.229789">
  <ele>1583.0</ele>
  <time>2026-08-28T17:52:57Z</time>
  <course>248.32</course>
  <speed>0.0</speed>
  <fix>3d</fix>
</trkpt>
<trkpt lat="40.0713749" lon="-105.229789">
  <ele>1583.0</ele>
  <time>2026-08-28T17:52:57Z</time>
  <course>0.0</course>
  <speed>0.0</speed>
  <fix>3d</fix>
</trkpt>
<trkpt lat="40.0713749" lon="-105.229789">
  <ele>1583.0</ele>
  <time>2026-08-28T17:52:57Z</time>
  <course>248.33</course>
  <speed>0.0</speed>
  <fix>3d</fix>
</trkpt>
<trkpt lat="40.0713749" lon="-105.229789">
  <ele>1583.0</ele>
  <time>2026-08-28T17:52:57Z</time>
  <course>0.0</course>
  <speed>0.0</speed>
  <fix>3d</fix>
</trkpt>
<trkpt lat="40.0713749" lon="-105.229789">
  <ele>1583.0</ele>
  <time>2026-08-28T17:52:57Z</time>
  <course>248.34</course>
  <speed>0.0</speed>
  <fix>3d</fix>
</trkpt>
<trkpt lat="40.0713749" lon="-105.229789">
  <ele>1583.0</ele>
  <time>2026-08-28T17:52:57Z</time>
  <course>0.0</course>
  <speed>0.0</speed>
  <fix>3d</fix>
</trkpt>
<trkpt lat="40.0713749" lon="-105.229789">
  <ele>1583.0</ele>
  <time>2026-08-28T17:52:57Z</time>
  <course>248.35</course>
  <speed>0.0</speed>
  <fix>3d</fix>
</trkpt>
<trkpt lat="40.0713749" lon="-105.229789">
  <ele>1583.0</ele>
  <time>2026-08-28T17:52:57Z</time>
  <course>0.0</course>
  <speed>0.0</speed>
  <fix>3d</fix>
</trkpt>
<trkpt lat="40.0713749" lon="-105.229789">
  <ele>1583.0</ele>
  <time>2026-08-28T17:52:57Z</time>
  <course>248.35</course>
  <speed>0.0</speed>
  <fix>3d</fix>
</trkpt>
<trkpt lat="40.0713749" lon="-105.229789">
  <ele>1583.0</ele>
  <time>2026-08-28T17:52:57Z</time>
  <course>0.0</course>
  <speed>0.0</speed>
  <fix>3d</fix>
</trkpt>
<trkpt lat="40.0713749" lon="-105.229789">
  <ele>1583.0</ele>
  <time>2026-08-28T17:52:57Z</time>
  <course>248.36</course>
  <speed>0.0</speed>
  <fix>3d</fix>
</trkpt>
<trkpt lat="40.0713749" lon="-105.229789">
  <ele>1583.0</ele>
  <time>2026-08-28T17:52:57Z</time>
  <course>0.0</course>
  <speed>0.0</speed>
  <fix>3d</fix>
</trkpt>
<trkpt lat="40.0713749" lon="-105.229789">
  <ele>1583.0</ele>
  <time>2026-08-28T17:52:57Z</time>
  <course>248.37</course>
  <speed>0.0</speed>
  <fix>3d</fix>
</trkpt>
<trkpt lat="40.0713749" lon="-105.229789">
  <ele>1583.0</ele>
  <time>2026-08-28T17:52:57Z</time>
  <course>0.0</course>
  <speed>0.0</speed>
  <fix>3d</fix>
</trkpt>
<trkpt lat="40.0713749" lon="-105.229789">
  <ele>1583.0</ele>
  <time>2026-08-28T17:52:57Z</time>
  <course>248.37</course>
  <speed>0.0</speed>
  <fix>3d</fix>
</trkpt>
<trkpt lat="40.0713749" lon="-105.229789">
  <ele>1583.0</ele>
  <time>2026-08-28T17:52:57Z</time>
  <course>0.0</course>
  <speed>0.0</speed>
  <fix>3d</fix>
</trkpt>
<trkpt lat="40.0713749" lon="-105.229789">
  <ele>1583.0</ele>
  <time>2026-08-28T17:52:57Z</time>
  <course>248.38</course>
  <speed>0.0</speed>
  <fix>3d</fix>
</trkpt>
<trkpt lat="40.0713749" lon="-105.229789">
  <ele>1583.0</ele>
  <time>2026-08-28T17:52:57Z</time>
  <course>0.0</course>
  <speed>0.0</speed>
  <fix>3d</fix>
</trkpt>
<trkpt lat="40.0713749" lon="-105.229789">
  <ele>1583.0</ele>
  <time>2026-08-28T17:52:57Z</time>
  <course>248.38</course>
  <speed>0.0</speed>
  <fix>3d</fix>
</trkpt>
<trkpt lat="40.0713749" lon="-105.229789">
  <ele>1583.0</ele>
  <time>2026-08-28T17:52:57Z</time>
  <course>0.0</course>
  <speed>0.0</speed>
  <fix>3d</fix>
</trkpt>
<trkpt lat="40.0713749" lon="-105.229789">
  <ele>1583.0</ele>
  <time>2026-08-28T17:52:57Z</time>
  <course>248.39</course>
  <speed>0.0</speed>
  <fix>3d</fix>
</trkpt>
<trkpt lat="40.0713749" lon="-105.229789">
  <ele>1583.0</ele>
  <time>2026-08-28T17:52:57Z</time>
  <course>0.0</course>
  <speed>0.0</speed>
  <fix>3d</fix>
</trkpt>
<trkpt lat="40.0713749" lon="-105.229789">
  <ele>1583.0</ele>
  <time>2026-08-28T17:52:57Z</time>
  <course>248.39</course>
  <speed>0.0</speed>
  <fix>3d</fix>
</trkpt>
<trkpt lat="40.0713749" lon="-105.229789">
  <ele>1583.0</ele>
  <time>2026-08-28T17:52:57Z</time>
  <course>0.0</course>
  <speed>0.0</speed>
  <fix>3d</fix>
</trkpt>
<trkpt lat="40.0713749" lon="-105.229789">
  <ele>1583.0</ele>
  <time>2026-08-28T17:52:57Z</time>
  <course>248.4</course>
  <speed>0.0</speed>
  <fix>3d</fix>
</trkpt>
<trkpt lat="40.0713749" lon="-105.229789">
  <ele>1583.0</ele>
  <time>2026-08-28T17:52:57Z</time>
  <course>0.0</course>
  <speed>0.0</speed>
  <fix>3d</fix>
</trkpt>
<trkpt lat="40.0713749" lon="-105.229789">
  <ele>1583.0</ele>
  <time>2026-08-28T17:52:57Z</time>
  <course>248.4</course>
  <speed>0.0</speed>
  <fix>3d</fix>
</trkpt>
<trkpt lat="40.0713749" lon="-105.229789">
  <ele>1583.0</ele>
  <time>2026-08-28T17:52:57Z</time>
  <course>0.0</course>
  <speed>0.0</speed>
  <fix>3d</fix>
</trkpt>
<trkpt lat="40.0713749" lon="-105.229789">
  <ele>1583.0</ele>
  <time>2026-08-28T17:52:57Z</time>
  <course>248.4</course>
  <speed>0.0</speed>
  <fix>3d</fix>
</trkpt>
<trkpt lat="40.0713749" lon="-105.229789">
  <ele>1583.0</ele>
  <time>2026-08-28T17:52:57Z</time>
  <course>0.0</course>
  <speed>0.0</speed>
  <fix>3d</fix>
</trkpt>
<trkpt lat="40.0713749" lon="-105.229789">
  <ele>1583.0</ele>
  <time>2026-08-28T17:52:57Z</time>
  <course>248.4</course>
  <speed>0.0</speed>
  <fix>3d</fix>
</trkpt>
<trkpt lat="40.0713749" lon="-105.229789">
  <ele>1583.0</ele>
  <time>2026-08-28T17:52:57Z</time>
  <course>0.0</course>
  <speed>0.0</speed>
  <fix>3d</fix>
</trkpt>
<trkpt lat="40.0713749" lon="-105.229789">
  <ele>1583.0</ele>
  <time>2026-08-28T17:52:57Z</time>
  <course>248.41</course>
  <speed>0.0</speed>
  <fix>3d</fix>
</trkpt>
<trkpt lat="40.0713749" lon="-105.229789">
  <ele>1583.0</ele>
  <time>2026-08-28T17:52:57Z</time>
  <course>0.0</course>
  <speed>0.0</speed>
  <fix>3d</fix>
</trkpt>
<trkpt lat="40.0713749" lon="-105.229789">
  <ele>1583.0</ele>
  <time>2026-08-28T17:52:57Z</time>
  <course>248.41</course>
  <speed>0.0</speed>
  <fix>3d</fix>
</trkpt>
<trkpt lat="40.0713749" lon="-105.229789">
  <ele>1583.0</ele>
  <time>2026-08-28T17:52:57Z</time>
  <course>0.0</course>
  <speed>0.0</speed>
  <fix>3d</fix>
</trkpt>
<trkpt lat="40.0713749" lon="-105.229789">
  <ele>1583.0</ele>
  <time>2026-08-28T17:52:57Z</time>
  <course>248.41</course>
  <speed>0.0</speed>
  <fix>3d</fix>
</trkpt>
<trkpt lat="40.0713749" lon="-105.229789">
  <ele>1583.0</ele>
  <time>2026-08-28T17:52:57Z</time>
  <course>0.0</course>
  <speed>0.0</speed>
  <fix>3d</fix>
</trkpt>
<trkpt lat="40.0713749" lon="-105.229789">
  <ele>1583.0</ele>
  <time>2026-08-28T17:52:57Z</time>
  <course>248.41</course>
  <speed>0.0</speed>
  <fix>3d</fix>
</trkpt>
<trkpt lat="40.0713749" lon="-105.229789">
  <ele>1583.0</ele>
  <time>2026-08-28T17:52:57Z</time>
  <course>0.0</course>
  <speed>0.0</speed>
  <fix>3d</fix>
</trkpt>
<trkpt lat="40.0713749" lon="-105.229789">
  <ele>1583.0</ele>
  <time>2026-08-28T17:52:57Z</time>
  <course>248.41</course>
  <speed>0.0</speed>
  <fix>3d</fix>
</trkpt>
<trkpt lat="40.0713749" lon="-105.229789">
  <ele>1583.0</ele>
  <time>2026-08-28T17:52:57Z</time>
  <course>0.0</course>
  <speed>0.0</speed>
  <fix>3d</fix>
</trkpt>
<trkpt lat="40.0713749" lon="-105.229789">
  <ele>1583.0</ele>
  <time>2026-08-28T17:52:57Z</time>
  <course>248.41</course>
  <speed>0.0</speed>
  <fix>3d</fix>
</trkpt>
<trkpt lat="40.0713749" lon="-105.229789">
  <ele>1583.0</ele>
  <time>2026-08-28T17:52:57Z</time>
  <course>0.0</course>
  <speed>0.0</speed>
  <fix>3d</fix>
</trkpt>
<trkpt lat="40.0713749" lon="-105.229789">
  <ele>1583.0</ele>
  <time>2026-08-28T17:52:57Z</time>
  <course>248.41</course>
  <speed>0.0</speed>
  <fix>3d</fix>
</trkpt>
<trkpt lat="40.0713749" lon="-105.229789">
  <ele>1583.0</ele>
  <time>2026-08-28T17:52:57Z</time>
  <course>0.0</course>
  <speed>0.0</speed>
  <fix>3d</fix>
</trkpt>
<trkpt lat="40.0713749" lon="-105.229789">
  <ele>1583.0</ele>
  <time>2026-08-28T17:52:57Z</time>
  <course>248.41</course>
  <speed>0.0</speed>
  <fix>3d</fix>
</trkpt>
<trkpt lat="40.0713749" lon="-105.229789">
  <ele>1583.0</ele>
  <time>2026-08-28T17:52:57Z</time>
  <course>0.0</course>
  <speed>0.0</speed>
  <fix>3d</fix>
</trkpt>
<trkpt lat="40.0713749" lon="-105.229789">
  <ele>1583.0</ele>
  <time>2026-08-28T17:52:57Z</time>
  <course>248.41</course>
  <speed>0.0</speed>
  <fix>3d</fix>
</trkpt>
<trkpt lat="40.0713749" lon="-105.229789">
  <ele>1583.0</ele>
  <time>2026-08-28T17:52:57Z</time>
  <course>0.0</course>
  <speed>0.0</speed>
  <fix>3d</fix>
</trkpt>
<trkpt lat="40.0713749" lon="-105.229789">
  <ele>1583.0</ele>
  <time>2026-08-28T17:52:57Z</time>
  <course>248.41</course>
  <speed>0.0</speed>
  <fix>3d</fix>
</trkpt>
<trkpt lat="40.0713749" lon="-105.229789">
  <ele>1583.0</ele>
  <time>2026-08-28T17:52:57Z</time>
  <course>0.0</course>
  <speed>0.0</speed>
  <fix>3d</fix>
</trkpt>
<trkpt lat="40.0713749" lon="-105.229789">
  <ele>1583.0</ele>
  <time>2026-08-28T17:52:57Z</time>
  <course>248.41</course>
  <speed>0.0</speed>
  <fix>3d</fix>
</trkpt>
<trkpt lat="40.0713749" lon="-105.229789">
  <ele>1583.0</ele>
  <time>2026-08-28T17:52:57Z</time>
  <course>0.0</course>
  <speed>0.0</speed>
  <fix>3d</fix>
</trkpt>
<trkpt lat="40.0713749" lon="-105.229789">
  <ele>1583.0</ele>
  <time>2026-08-28T17:52:57Z</time>
  <course>248.41</course>
  <speed>0.0</speed>
  <fix>3d</fix>
</trkpt>
<trkpt lat="40.0713749" lon="-105.229789">
  <ele>1583.0</ele>
  <time>2026-08-28T17:52:57Z</time>
  <course>0.0</course>
  <speed>0.0</speed>
  <fix>3d</fix>
</trkpt>
<trkpt lat="40.0713749" lon="-105.229789">
  <ele>1583.0</ele>
  <time>2026-08-28T17:52:57Z</time>
  <course>248.41</course>
  <speed>0.0</speed>
  <fix>3d</fix>
</trkpt>
<trkpt lat="40.0713749" lon="-105.229789">
  <ele>1583.0</ele>
  <time>2026-08-28T17:52:57Z</time>
  <course>0.0</course>
  <speed>0.0</speed>
  <fix>3d</fix>
</trkpt>
<trkpt lat="40.0713749" lon="-105.229789">
  <ele>1583.0</ele>
  <time>2026-08-28T17:52:57Z</time>
  <course>248.41</course>
  <speed>0.0</speed>
  <fix>3d</fix>
</trkpt>
<trkpt lat="40.0713749" lon="-105.229789">
  <ele>1583.0</ele>
  <time>2026-08-28T17:52:57Z</time>
  <course>0.0</course>
  <speed>0.0</speed>
  <fix>3d</fix>
</trkpt>
<trkpt lat="40.0713749" lon="-105.229789">
  <ele>1583.0</ele>
  <time>2026-08-28T17:52:58Z</time>
  <course>248.41</course>
  <speed>0.0</speed>
  <fix>3d</fix>
</trkpt>
<trkpt lat="40.0713749" lon="-105.229789">
  <ele>1583.0</ele>
  <time>2026-08-28T17:52:58Z</time>
  <course>0.0</course>
  <speed>0.0</speed>
  <fix>3d</fix>
</trkpt>
<trkpt lat="40.0713749" lon="-105.229789">
  <ele>1583.0</ele>
  <time>2026-08-28T17:52:58Z</time>
  <course>248.41</course>
  <speed>0.0</speed>
  <fix>3d</fix>
</trkpt>
<trkpt lat="40.0713749" lon="-105.229789">
  <ele>1583.0</ele>
  <time>2026-08-28T17:52:58Z</time>
  <course>0.0</course>
  <speed>0.0</speed>
  <fix>3d</fix>
</trkpt>
<trkpt lat="40.0713749" lon="-105.229789">
  <ele>1583.0</ele>
  <time>2026-08-28T17:52:58Z</time>
  <course>248.4</course>
  <speed>0.0</speed>
  <fix>3d</fix>
</trkpt>
<trkpt lat="40.0713749" lon="-105.229789">
  <ele>1583.0</ele>
  <time>2026-08-28T17:52:58Z</time>
  <course>0.0</course>
  <speed>0.0</speed>
  <fix>3d</fix>
</trkpt>
<trkpt lat="40.0713749" lon="-105.229789">
  <ele>1583.0</ele>
  <time>2026-08-28T17:52:58Z</time>
  <course>248.4</course>
  <speed>0.01</speed>
  <fix>3d</fix>
</trkpt>
<trkpt lat="40.0713749" lon="-105.229789">
  <ele>1583.0</ele>
  <time>2026-08-28T17:52:58Z</time>
  <course>0.0</course>
  <speed>0.0</speed>
  <fix>3d</fix>
</trkpt>
<trkpt lat="40.0713749" lon="-105.229789">
  <ele>1583.0</ele>
  <time>2026-08-28T17:52:58Z</time>
  <course>248.4</course>
  <speed>0.01</speed>
  <fix>3d</fix>
</trkpt>
<trkpt lat="40.0713749" lon="-105.229789">
  <ele>1583.0</ele>
  <time>2026-08-28T17:52:58Z</time>
  <course>0.0</course>
  <speed>0.0</speed>
  <fix>3d</fix>
</trkpt>
<trkpt lat="40.0713749" lon="-105.229789">
  <ele>1583.0</ele>
  <time>2026-08-28T17:52:58Z</time>
  <course>248.4</course>
  <speed>0.01</speed>
  <fix>3d</fix>
</trkpt>
<trkpt lat="40.0713749" lon="-105.229789">
  <ele>1583.0</ele>
  <time>2026-08-28T17:52:58Z</time>
  <course>0.0</course>
  <speed>0.0</speed>
  <fix>3d</fix>
</trkpt>
<trkpt lat="40.0713749" lon="-105.229789">
  <ele>1583.0</ele>
  <time>2026-08-28T17:52:58Z</time>
  <course>248.4</course>
  <speed>0.01</speed>
  <fix>3d</fix>
</trkpt>
<trkpt lat="40.0713749" lon="-105.229789">
  <ele>1583.0</ele>
  <time>2026-08-28T17:52:58Z</time>
  <course>0.0</course>
  <speed>0.0</speed>
  <fix>3d</fix>
</trkpt>
<trkpt lat="40.0713749" lon="-105.229789">
  <ele>1583.0</ele>
  <time>2026-08-28T17:52:58Z</time>
  <course>248.39</course>
  <speed>0.01</speed>
  <fix>3d</fix>
</trkpt>
<trkpt lat="40.0713749" lon="-105.229789">
  <ele>1583.0</ele>
  <time>2026-08-28T17:52:58Z</time>
  <course>0.0</course>
  <speed>0.0</speed>
  <fix>3d</fix>
</trkpt>
<trkpt lat="40.0713749" lon="-105.229789">
  <ele>1583.0</ele>
  <time>2026-08-28T17:52:58Z</time>
  <course>248.39</course>
  <speed>0.01</speed>
  <fix>3d</fix>
</trkpt>
<trkpt lat="40.0713749" lon="-105.229789">
  <ele>1583.0</ele>
  <time>2026-08-28T17:52:58Z</time>
  <course>0.0</course>
  <speed>0.0</speed>
  <fix>3d</fix>
</trkpt>
<trkpt lat="40.0713749" lon="-105.229789">
  <ele>1583.0</ele>
  <time>2026-08-28T17:52:58Z</time>
  <course>248.39</course>
  <speed>0.01</speed>
  <fix>3d</fix>
</trkpt>
<trkpt lat="40.0713749" lon="-105.229789">
  <ele>1583.0</ele>
  <time>2026-08-28T17:52:58Z</time>
  <course>0.0</course>
  <speed>0.0</speed>
  <fix>3d</fix>
</trkpt>
<trkpt lat="40.0713749" lon="-105.229789">
  <ele>1583.0</ele>
  <time>2026-08-28T17:52:58Z</time>
  <course>248.38</course>
  <speed>0.01</speed>
  <fix>3d</fix>
</trkpt>
<trkpt lat="40.0713749" lon="-105.229789">
  <ele>1583.0</ele>
  <time>2026-08-28T17:52:58Z</time>
  <course>0.0</course>
  <speed>0.0</speed>
  <fix>3d</fix>
</trkpt>
<trkpt lat="40.0713749" lon="-105.229789">
  <ele>1583.0</ele>
  <time>2026-08-28T17:52:58Z</time>
  <course>248.38</course>
  <speed>0.01</speed>
  <fix>3d</fix>
</trkpt>
<trkpt lat="40.0713749" lon="-105.229789">
  <ele>1583.0</ele>
  <time>2026-08-28T17:52:58Z</time>
  <course>0.0</course>
  <speed>0.0</speed>
  <fix>3d</fix>
</trkpt>
<trkpt lat="40.0713749" lon="-105.229789">
  <ele>1583.0</ele>
  <time>2026-08-28T17:52:58Z</time>
  <course>248.38</course>
  <speed>0.01</speed>
  <fix>3d</fix>
</trkpt>
<trkpt lat="40.0713749" lon="-105.229789">
  <ele>1583.0</ele>
  <time>2026-08-28T17:52:58Z</time>
  <course>0.0</course>
  <speed>0.0</speed>
  <fix>3d</fix>
</trkpt>
<trkpt lat="40.0713749" lon="-105.229789">
  <ele>1583.0</ele>
  <time>2026-08-28T17:52:58Z</time>
  <course>248.37</course>
  <speed>0.01</speed>
  <fix>3d</fix>
</trkpt>
<trkpt lat="40.0713749" lon="-105.229789">
  <ele>1583.0</ele>
  <time>2026-08-28T17:52:58Z</time>
  <course>0.0</course>
  <speed>0.0</speed>
  <fix>3d</fix>
</trkpt>
<trkpt lat="40.0713749" lon="-105.229789">
  <ele>1583.0</ele>
  <time>2026-08-28T17:52:58Z</time>
  <course>248.37</course>
  <speed>0.01</speed>
  <fix>3d</fix>
</trkpt>
<trkpt lat="40.0713749" lon="-105.229789">
  <ele>1583.0</ele>
  <time>2026-08-28T17:52:58Z</time>
  <course>0.0</course>
  <speed>0.0</speed>
  <fix>3d</fix>
</trkpt>
<trkpt lat="40.0713749" lon="-105.229789">
  <ele>1583.0</ele>
  <time>2026-08-28T17:52:58Z</time>
  <course>248.37</course>
  <speed>0.01</speed>
  <fix>3d</fix>
</trkpt>
<trkpt lat="40.0713749" lon="-105.229789">
  <ele>1583.0</ele>
  <time>2026-08-28T17:52:58Z</time>
  <course>0.0</course>
  <speed>0.0</speed>
  <fix>3d</fix>
</trkpt>
<trkpt lat="40.0713749" lon="-105.229789">
  <ele>1583.0</ele>
  <time>2026-08-28T17:52:58Z</time>
  <course>248.36</course>
  <speed>0.01</speed>
  <fix>3d</fix>
</trkpt>
<trkpt lat="40.0713749" lon="-105.229789">
  <ele>1583.0</ele>
  <time>2026-08-28T17:52:58Z</time>
  <course>0.0</course>
  <speed>0.0</speed>
  <fix>3d</fix>
</trkpt>
<trkpt lat="40.0713749" lon="-105.229789">
  <ele>1583.0</ele>
  <time>2026-08-28T17:52:58Z</time>
  <course>248.36</course>
  <speed>0.01</speed>
  <fix>3d</fix>
</trkpt>
<trkpt lat="40.0713749" lon="-105.229789">
  <ele>1583.0</ele>
  <time>2026-08-28T17:52:58Z</time>
  <course>0.0</course>
  <speed>0.0</speed>
  <fix>3d</fix>
</trkpt>
<trkpt lat="40.0713749" lon="-105.229789">
  <ele>1583.0</ele>
  <time>2026-08-28T17:52:58Z</time>
  <course>248.36</course>
  <speed>0.01</speed>
  <fix>3d</fix>
</trkpt>
<trkpt lat="40.0713749" lon="-105.229789">
  <ele>1583.0</ele>
  <time>2026-08-28T17:52:58Z</time>
  <course>0.0</course>
  <speed>0.0</speed>
  <fix>3d</fix>
</trkpt>
<trkpt lat="40.0713749" lon="-105.229789">
  <ele>1583.0</ele>
  <time>2026-08-28T17:52:58Z</time>
  <course>248.35</course>
  <speed>0.01</speed>
  <fix>3d</fix>
</trkpt>
<trkpt lat="40.0713749" lon="-105.229789">
  <ele>1583.0</ele>
  <time>2026-08-28T17:52:58Z</time>
  <course>0.0</course>
  <speed>0.0</speed>
  <fix>3d</fix>
</trkpt>
<trkpt lat="40.0713749" lon="-105.229789">
  <ele>1583.0</ele>
  <time>2026-08-28T17:52:58Z</time>
  <course>248.35</course>
  <speed>0.01</speed>
  <fix>3d</fix>
</trkpt>
<trkpt lat="40.0713749" lon="-105.229789">
  <ele>1583.0</ele>
  <time>2026-08-28T17:52:58Z</time>
  <course>0.0</course>
  <speed>0.0</speed>
  <fix>3d</fix>
</trkpt>
<trkpt lat="40.0713749" lon="-105.229789">
  <ele>1583.0</ele>
  <time>2026-08-28T17:52:58Z</time>
  <course>248.35</course>
  <speed>0.01</speed>
  <fix>3d</fix>
</trkpt>
<trkpt lat="40.0713749" lon="-105.229789">
  <ele>1583.0</ele>
  <time>2026-08-28T17:52:58Z</time>
  <course>0.0</course>
  <speed>0.0</speed>
  <fix>3d</fix>
</trkpt>
<trkpt lat="40.0713749" lon="-105.229789">
  <ele>1583.0</ele>
  <time>2026-08-28T17:52:58Z</time>
  <course>248.34</course>
  <speed>0.01</speed>
  <fix>3d</fix>
</trkpt>
<trkpt lat="40.0713749" lon="-105.229789">
  <ele>1583.0</ele>
  <time>2026-08-28T17:52:58Z</time>
  <course>0.0</course>
  <speed>0.0</speed>
  <fix>3d</fix>
</trkpt>
<trkpt lat="40.0713749" lon="-105.229789">
  <ele>1583.0</ele>
  <time>2026-08-28T17:52:58Z</time>
  <course>248.34</course>
  <speed>0.01</speed>
  <fix>3d</fix>
</trkpt>
<trkpt lat="40.0713749" lon="-105.229789">
  <ele>1583.0</ele>
  <time>2026-08-28T17:52:58Z</time>
  <course>0.0</course>
  <speed>0.0</speed>
  <fix>3d</fix>
</trkpt>
<trkpt lat="40.0713749" lon="-105.229789">
  <ele>1583.0</ele>
  <time>2026-08-28T17:52:58Z</time>
  <course>248.33</course>
  <speed>0.01</speed>
  <fix>3d</fix>
</trkpt>
<trkpt lat="40.0713749" lon="-105.229789">
  <ele>1583.0</ele>
  <time>2026-08-28T17:52:58Z</time>
  <course>0.0</course>
  <speed>0.0</speed>
  <fix>3d</fix>
</trkpt>
<trkpt lat="40.0713749" lon="-105.229789">
  <ele>1583.0</ele>
  <time>2026-08-28T17:52:58Z</time>
  <course>248.33</course>
  <speed>0.01</speed>
  <fix>3d</fix>
</trkpt>
<trkpt lat="40.0713749" lon="-105.229789">
  <ele>1583.0</ele>
  <time>2026-08-28T17:52:58Z</time>
  <course>0.0</course>
  <speed>0.0</speed>
  <fix>3d</fix>
</trkpt>
<trkpt lat="40.0713749" lon="-105.229789">
  <ele>1583.0</ele>
  <time>2026-08-28T17:52:58Z</time>
  <course>248.32</course>
  <speed>0.01</speed>
  <fix>3d</fix>
</trkpt>
<trkpt lat="40.0713749" lon="-105.229789">
  <ele>1583.0</ele>
  <time>2026-08-28T17:52:58Z</time>
  <course>0.0</course>
  <speed>0.0</speed>
  <fix>3d</fix>
</trkpt>
<trkpt lat="40.0713749" lon="-105.229789">
  <ele>1583.0</ele>
  <time>2026-08-28T17:52:58Z</time>
  <course>248.32</course>
  <speed>0.01</speed>
  <fix>3d</fix>
</trkpt>
<trkpt lat="40.0713749" lon="-105.229789">
  <ele>1583.0</ele>
  <time>2026-08-28T17:52:58Z</time>
  <course>0.0</course>
  <speed>0.0</speed>
  <fix>3d</fix>
</trkpt>
<trkpt lat="40.0713749" lon="-105.229789">
  <ele>1583.0</ele>
  <time>2026-08-28T17:52:58Z</time>
  <course>248.32</course>
  <speed>0.01</speed>
  <fix>3d</fix>
</trkpt>
<trkpt lat="40.0713749" lon="-105.229789">
  <ele>1583.0</ele>
  <time>2026-08-28T17:52:58Z</time>
  <course>0.0</course>
  <speed>0.0</speed>
  <fix>3d</fix>
</trkpt>
<trkpt lat="40.0713749" lon="-105.229789">
  <ele>1583.0</ele>
  <time>2026-08-28T17:52:58Z</time>
  <course>248.31</course>
  <speed>0.01</speed>
  <fix>3d</fix>
</trkpt>
<trkpt lat="40.0713749" lon="-105.229789">
  <ele>1583.0</ele>
  <time>2026-08-28T17:52:58Z</time>
  <course>0.0</course>
  <speed>0.0</speed>
  <fix>3d</fix>
</trkpt>
<trkpt lat="40.0713749" lon="-105.229789">
  <ele>1583.0</ele>
  <time>2026-08-28T17:52:58Z</time>
  <course>248.31</course>
  <speed>0.01</speed>
  <fix>3d</fix>
</trkpt>
<trkpt lat="40.0713749" lon="-105.229789">
  <ele>1583.0</ele>
  <time>2026-08-28T17:52:58Z</time>
  <course>0.0</course>
  <speed>0.0</speed>
  <fix>3d</fix>
</trkpt>
<trkpt lat="40.0713749" lon="-105.229789">
  <ele>1583.0</ele>
  <time>2026-08-28T17:52:58Z</time>
  <course>248.3</course>
  <speed>0.01</speed>
  <fix>3d</fix>
</trkpt>
<trkpt lat="40.0713749" lon="-105.229789">
  <ele>1583.0</ele>
  <time>2026-08-28T17:52:58Z</time>
  <course>0.0</course>
  <speed>0.0</speed>
  <fix>3d</fix>
</trkpt>
<trkpt lat="40.0713749" lon="-105.229789">
  <ele>1583.0</ele>
  <time>2026-08-28T17:52:58Z</time>
  <course>248.3</course>
  <speed>0.01</speed>
  <fix>3d</fix>
</trkpt>
<trkpt lat="40.0713749" lon="-105.229789">
  <ele>1583.0</ele>
  <time>2026-08-28T17:52:58Z</time>
  <course>0.0</course>
  <speed>0.0</speed>
  <fix>3d</fix>
</trkpt>
<trkpt lat="40.0713749" lon="-105.229789">
  <ele>1583.0</ele>
  <time>2026-08-28T17:52:58Z</time>
  <course>248.29</course>
  <speed>0.01</speed>
  <fix>3d</fix>
</trkpt>
<trkpt lat="40.0713749" lon="-105.229789">
  <ele>1583.0</ele>
  <time>2026-08-28T17:52:58Z</time>
  <course>0.0</course>
  <speed>0.0</speed>
  <fix>3d</fix>
</trkpt>
<trkpt lat="40.0713749" lon="-105.229789">
  <ele>1583.0</ele>
  <time>2026-08-28T17:52:58Z</time>
  <course>248.29</course>
  <speed>0.01</speed>
  <fix>3d</fix>
</trkpt>
<trkpt lat="40.0713749" lon="-105.229789">
  <ele>1583.0</ele>
  <time>2026-08-28T17:52:58Z</time>
  <course>0.0</course>
  <speed>0.0</speed>
  <fix>3d</fix>
</trkpt>
<trkpt lat="40.0713749" lon="-105.229789">
  <ele>1583.0</ele>
  <time>2026-08-28T17:52:58Z</time>
  <course>248.28</course>
  <speed>0.01</speed>
  <fix>3d</fix>
</trkpt>
<trkpt lat="40.0713749" lon="-105.229789">
  <ele>1583.0</ele>
  <time>2026-08-28T17:52:58Z</time>
  <course>0.0</course>
  <speed>0.0</speed>
  <fix>3d</fix>
</trkpt>
<trkpt lat="40.0713749" lon="-105.229789">
  <ele>1583.0</ele>
  <time>2026-08-28T17:52:58Z</time>
  <course>248.28</course>
  <speed>0.01</speed>
  <fix>3d</fix>
</trkpt>
<trkpt lat="40.0713749" lon="-105.229789">
  <ele>1583.0</ele>
  <time>2026-08-28T17:52:58Z</time>
  <course>0.0</course>
  <speed>0.0</speed>
  <fix>3d</fix>
</trkpt>
<trkpt lat="40.0713749" lon="-105.229789">
  <ele>1583.0</ele>
  <time>2026-08-28T17:52:58Z</time>
  <course>248.27</course>
  <speed>0.01</speed>
  <fix>3d</fix>
</trkpt>
<trkpt lat="40.0713749" lon="-105.229789">
  <ele>1583.0</ele>
  <time>2026-08-28T17:52:58Z</time>
  <course>0.0</course>
  <speed>0.0</speed>
  <fix>3d</fix>
</trkpt>
<trkpt lat="40.0713749" lon="-105.229789">
  <ele>1583.0</ele>
  <time>2026-08-28T17:52:58Z</time>
  <course>248.27</course>
  <speed>0.01</speed>
  <fix>3d</fix>
</trkpt>
<trkpt lat="40.0713749" lon="-105.229789">
  <ele>1583.0</ele>
  <time>2026-08-28T17:52:58Z</time>
  <course>0.0</course>
  <speed>0.0</speed>
  <fix>3d</fix>
</trkpt>
<trkpt lat="40.0713749" lon="-105.229789">
  <ele>1583.0</ele>
  <time>2026-08-28T17:52:58Z</time>
  <course>248.26</course>
  <speed>0.01</speed>
  <fix>3d</fix>
</trkpt>
<trkpt lat="40.0713749" lon="-105.229789">
  <ele>1583.0</ele>
  <time>2026-08-28T17:52:58Z</time>
  <course>0.0</course>
  <speed>0.0</speed>
  <fix>3d</fix>
</trkpt>
<trkpt lat="40.0713749" lon="-105.229789">
  <ele>1583.0</ele>
  <time>2026-08-28T17:52:58Z</time>
  <course>248.26</course>
  <speed>0.01</speed>
  <fix>3d</fix>
</trkpt>
<trkpt lat="40.0713749" lon="-105.229789">
  <ele>1583.0</ele>
  <time>2026-08-28T17:52:58Z</time>
  <course>0.0</course>
  <speed>0.0</speed>
  <fix>3d</fix>
</trkpt>
<trkpt lat="40.0713749" lon="-105.229789">
  <ele>1583.0</ele>
  <time>2026-08-28T17:52:58Z</time>
  <course>248.26</course>
  <speed>0.01</speed>
  <fix>3d</fix>
</trkpt>
<trkpt lat="40.0713749" lon="-105.229789">
  <ele>1583.0</ele>
  <time>2026-08-28T17:52:58Z</time>
  <course>0.0</course>
  <speed>0.0</speed>
  <fix>3d</fix>
</trkpt>
<trkpt lat="40.0713749" lon="-105.229789">
  <ele>1583.0</ele>
  <time>2026-08-28T17:52:58Z</time>
  <course>248.25</course>
  <speed>0.01</speed>
  <fix>3d</fix>
</trkpt>
<trkpt lat="40.0713749" lon="-105.229789">
  <ele>1583.0</ele>
  <time>2026-08-28T17:52:58Z</time>
  <course>0.0</course>
  <speed>0.0</speed>
  <fix>3d</fix>
</trkpt>
<trkpt lat="40.0713749" lon="-105.229789">
  <ele>1583.0</ele>
  <time>2026-08-28T17:52:58Z</time>
  <course>248.25</course>
  <speed>0.01</speed>
  <fix>3d</fix>
</trkpt>
<trkpt lat="40.0713749" lon="-105.229789">
  <ele>1583.0</ele>
  <time>2026-08-28T17:52:58Z</time>
  <course>0.0</course>
  <speed>0.0</speed>
  <fix>3d</fix>
</trkpt>
<trkpt lat="40.0713749" lon="-105.229789">
  <ele>1583.0</ele>
  <time>2026-08-28T17:52:58Z</time>
  <course>248.24</course>
  <speed>0.01</speed>
  <fix>3d</fix>
</trkpt>
<trkpt lat="40.0713749" lon="-105.229789">
  <ele>1583.0</ele>
  <time>2026-08-28T17:52:58Z</time>
  <course>0.0</course>
  <speed>0.0</speed>
  <fix>3d</fix>
</trkpt>
<trkpt lat="40.0713749" lon="-105.229789">
  <ele>1583.0</ele>
  <time>2026-08-28T17:52:58Z</time>
  <course>248.24</course>
  <speed>0.01</speed>
  <fix>3d</fix>
</trkpt>
<trkpt lat="40.0713749" lon="-105.229789">
  <ele>1583.0</ele>
  <time>2026-08-28T17:52:58Z</time>
  <course>0.0</course>
  <speed>0.0</speed>
  <fix>3d</fix>
</trkpt>
<trkpt lat="40.0713749" lon="-105.229789">
  <ele>1583.0</ele>
  <time>2026-08-28T17:52:58Z</time>
  <course>248.23</course>
  <speed>0.01</speed>
  <fix>3d</fix>
</trkpt>
<trkpt lat="40.0713749" lon="-105.229789">
  <ele>1583.0</ele>
  <time>2026-08-28T17:52:58Z</time>
  <course>0.0</course>
  <speed>0.0</speed>
  <fix>3d</fix>
</trkpt>
<trkpt lat="40.0713749" lon="-105.229789">
  <ele>1583.0</ele>
  <time>2026-08-28T17:52:58Z</time>
  <course>248.23</course>
  <speed>0.01</speed>
  <fix>3d</fix>
</trkpt>
<trkpt lat="40.0713749" lon="-105.229789">
  <ele>1583.0</ele>
  <time>2026-08-28T17:52:58Z</time>
  <course>0.0</course>
  <speed>0.0</speed>
  <fix>3d</fix>
</trkpt>
<trkpt lat="40.0713749" lon="-105.229789">
  <ele>1583.0</ele>
  <time>2026-08-28T17:52:58Z</time>
  <course>248.22</course>
  <speed>0.01</speed>
  <fix>3d</fix>
</trkpt>
<trkpt lat="40.0713749" lon="-105.229789">
  <ele>1583.0</ele>
  <time>2026-08-28T17:52:58Z</time>
  <course>0.0</course>
  <speed>0.0</speed>
  <fix>3d</fix>
</trkpt>
<trkpt lat="40.0713749" lon="-105.229789">
  <ele>1583.0</ele>
  <time>2026-08-28T17:52:58Z</time>
  <course>248.22</course>
  <speed>0.01</speed>
  <fix>3d</fix>
</trkpt>
<trkpt lat="40.0713749" lon="-105.229789">
  <ele>1583.0</ele>
  <time>2026-08-28T17:52:58Z</time>
  <course>0.0</course>
  <speed>0.0</speed>
  <fix>3d</fix>
</trkpt>
<trkpt lat="40.0713749" lon="-105.229789">
  <ele>1583.0</ele>
  <time>2026-08-28T17:52:58Z</time>
  <course>248.21</course>
  <speed>0.01</speed>
  <fix>3d</fix>
</trkpt>
<trkpt lat="40.0713749" lon="-105.229789">
  <ele>1583.0</ele>
  <time>2026-08-28T17:52:58Z</time>
  <course>0.0</course>
  <speed>0.0</speed>
  <fix>3d</fix>
</trkpt>
<trkpt lat="40.0713749" lon="-105.229789">
  <ele>1583.0</ele>
  <time>2026-08-28T17:52:58Z</time>
  <course>248.21</course>
  <speed>0.01</speed>
  <fix>3d</fix>
</trkpt>
<trkpt lat="40.0713749" lon="-105.229789">
  <ele>1583.0</ele>
  <time>2026-08-28T17:52:58Z</time>
  <course>0.0</course>
  <speed>0.0</speed>
  <fix>3d</fix>
</trkpt>
<trkpt lat="40.0713749" lon="-105.229789">
  <ele>1583.0</ele>
  <time>2026-08-28T17:52:58Z</time>
  <course>248.2</course>
  <speed>0.01</speed>
  <fix>3d</fix>
</trkpt>
<trkpt lat="40.0713749" lon="-105.229789">
  <ele>1583.0</ele>
  <time>2026-08-28T17:52:58Z</time>
  <course>0.0</course>
  <speed>0.0</speed>
  <fix>3d</fix>
</trkpt>
<trkpt lat="40.0713749" lon="-105.229789">
  <ele>1583.0</ele>
  <time>2026-08-28T17:52:58Z</time>
  <course>248.2</course>
  <speed>0.01</speed>
  <fix>3d</fix>
</trkpt>
<trkpt lat="40.0713749" lon="-105.229789">
  <ele>1583.0</ele>
  <time>2026-08-28T17:52:58Z</time>
  <course>0.0</course>
  <speed>0.0</speed>
  <fix>3d</fix>
</trkpt>
<trkpt lat="40.0713749" lon="-105.229789">
  <ele>1583.0</ele>
  <time>2026-08-28T17:52:58Z</time>
  <course>248.19</course>
  <speed>0.01</speed>
  <fix>3d</fix>
</trkpt>
<trkpt lat="40.0713749" lon="-105.229789">
  <ele>1583.0</ele>
  <time>2026-08-28T17:52:58Z</time>
  <course>0.0</course>
  <speed>0.0</speed>
  <fix>3d</fix>
</trkpt>
<trkpt lat="40.0713749" lon="-105.229789">
  <ele>1583.0</ele>
  <time>2026-08-28T17:52:58Z</time>
  <course>248.19</course>
  <speed>0.01</speed>
  <fix>3d</fix>
</trkpt>
<trkpt lat="40.0713749" lon="-105.229789">
  <ele>1583.0</ele>
  <time>2026-08-28T17:52:58Z</time>
  <course>0.0</course>
  <speed>0.0</speed>
  <fix>3d</fix>
</trkpt>
<trkpt lat="40.0713749" lon="-105.229789">
  <ele>1583.0</ele>
  <time>2026-08-28T17:52:58Z</time>
  <course>248.18</course>
  <speed>0.01</speed>
  <fix>3d</fix>
</trkpt>
<trkpt lat="40.0713749" lon="-105.229789">
  <ele>1583.0</ele>
  <time>2026-08-28T17:52:58Z</time>
  <course>0.0</course>
  <speed>0.0</speed>
  <fix>3d</fix>
</trkpt>
<trkpt lat="40.0713749" lon="-105.229789">
  <ele>1583.0</ele>
  <time>2026-08-28T17:52:58Z</time>
  <course>248.18</course>
  <speed>0.01</speed>
  <fix>3d</fix>
</trkpt>
<trkpt lat="40.0713749" lon="-105.229789">
  <ele>1583.0</ele>
  <time>2026-08-28T17:52:58Z</time>
  <course>0.0</course>
  <speed>0.0</speed>
  <fix>3d</fix>
</trkpt>
<trkpt lat="40.0713749" lon="-105.229789">
  <ele>1583.0</ele>
  <time>2026-08-28T17:52:58Z</time>
  <course>248.17</course>
  <speed>0.022360679774997897</speed>
  <fix>3d</fix>
</trkpt>
<trkpt lat="40.0713749" lon="-105.229789">
  <ele>1583.0</ele>
  <time>2026-08-28T17:52:58Z</time>
  <course>0.0</course>
  <speed>0.0</speed>
  <fix>3d</fix>
</trkpt>
<trkpt lat="40.0713749" lon="-105.229789">
  <ele>1583.0</ele>
  <time>2026-08-28T17:52:58Z</time>
  <course>248.17</course>
  <speed>0.022360679774997897</speed>
  <fix>3d</fix>
</trkpt>
<trkpt lat="40.0713749" lon="-105.229789">
  <ele>1583.0</ele>
  <time>2026-08-28T17:52:58Z</time>
  <course>0.0</course>
  <speed>0.0</speed>
  <fix>3d</fix>
</trkpt>
<trkpt lat="40.0713749" lon="-105.229789">
  <ele>1583.0</ele>
  <time>2026-08-28T17:52:58Z</time>
  <course>248.16</course>
  <speed>0.022360679774997897</speed>
  <fix>3d</fix>
</trkpt>
<trkpt lat="40.0713749" lon="-105.229789">
  <ele>1583.0</ele>
  <time>2026-08-28T17:52:58Z</time>
  <course>0.0</course>
  <speed>0.0</speed>
  <fix>3d</fix>
</trkpt>
<trkpt lat="40.0713749" lon="-105.229789">
  <ele>1583.0</ele>
  <time>2026-08-28T17:52:58Z</time>
  <course>248.16</course>
  <speed>0.022360679774997897</speed>
  <fix>3d</fix>
</trkpt>
<trkpt lat="40.0713749" lon="-105.229789">
  <ele>1583.0</ele>
  <time>2026-08-28T17:52:58Z</time>
  <course>0.0</course>
  <speed>0.0</speed>
  <fix>3d</fix>
</trkpt>
<trkpt lat="40.0713749" lon="-105.229789">
  <ele>1583.0</ele>
  <time>2026-08-28T17:52:58Z</time>
  <course>248.15</course>
  <speed>0.022360679774997897</speed>
  <fix>3d</fix>
</trkpt>
<trkpt lat="40.0713749" lon="-105.229789">
  <ele>1583.0</ele>
  <time>2026-08-28T17:52:58Z</time>
  <course>0.0</course>
  <speed>0.0</speed>
  <fix>3d</fix>
</trkpt>
<trkpt lat="40.0713749" lon="-105.229789">
  <ele>1583.0</ele>
  <time>2026-08-28T17:52:58Z</time>
  <course>248.15</course>
  <speed>0.022360679774997897</speed>
  <fix>3d</fix>
</trkpt>
<trkpt lat="40.0713749" lon="-105.229789">
  <ele>1583.0</ele>
  <time>2026-08-28T17:52:58Z</time>
  <course>0.0</course>
  <speed>0.0</speed>
  <fix>3d</fix>
</trkpt>
<trkpt lat="40.0713749" lon="-105.229789">
  <ele>1583.0</ele>
  <time>2026-08-28T17:52:58Z</time>
  <course>248.14</course>
  <speed>0.022360679774997897</speed>
  <fix>3d</fix>
</trkpt>
<trkpt lat="40.0713749" lon="-105.229789">
  <ele>1583.0</ele>
  <time>2026-08-28T17:52:58Z</time>
  <course>0.0</course>
  <speed>0.0</speed>
  <fix>3d</fix>
</trkpt>
<trkpt lat="40.0713749" lon="-105.229789">
  <ele>1583.0</ele>
  <time>2026-08-28T17:52:58Z</time>
  <course>248.14</course>
  <speed>0.022360679774997897</speed>
  <fix>3d</fix>
</trkpt>
<trkpt lat="40.0713749" lon="-105.229789">
  <ele>1583.0</ele>
  <time>2026-08-28T17:52:58Z</time>
  <course>0.0</course>
  <speed>0.0</speed>
  <fix>3d</fix>
</trkpt>
<trkpt lat="40.0713749" lon="-105.229789">
  <ele>1583.0</ele>
  <time>2026-08-28T17:52:58Z</time>
  <course>248.13</course>
  <speed>0.022360679774997897</speed>
  <fix>3d</fix>
</trkpt>
<trkpt lat="40.0713749" lon="-105.229789">
  <ele>1583.0</ele>
  <time>2026-08-28T17:52:58Z</time>
  <course>0.0</course>
  <speed>0.0</speed>
  <fix>3d</fix>
</trkpt>
<trkpt lat="40.0713749" lon="-105.229789">
  <ele>1583.0</ele>
  <time>2026-08-28T17:52:58Z</time>
  <course>248.13</course>
  <speed>0.022360679774997897</speed>
  <fix>3d</fix>
</trkpt>
<trkpt lat="40.0713749" lon="-105.229789">
  <ele>1583.0</ele>
  <time>2026-08-28T17:52:58Z</time>
  <course>0.0</course>
  <speed>0.0</speed>
  <fix>3d</fix>
</trkpt>
<trkpt lat="40.0713749" lon="-105.229789">
  <ele>1583.0</ele>
  <time>2026-08-28T17:52:58Z</time>
  <course>248.12</course>
  <speed>0.022360679774997897</speed>
  <fix>3d</fix>
</trkpt>
<trkpt lat="40.0713749" lon="-105.229789">
  <ele>1583.0</ele>
  <time>2026-08-28T17:52:58Z</time>
  <course>0.0</course>
  <speed>0.0</speed>
  <fix>3d</fix>
</trkpt>
<trkpt lat="40.0713749" lon="-105.229789">
  <ele>1583.0</ele>
  <time>2026-08-28T17:52:58Z</time>
  <course>248.12</course>
  <speed>0.022360679774997897</speed>
  <fix>3d</fix>
</trkpt>
<trkpt lat="40.0713749" lon="-105.229789">
  <ele>1583.0</ele>
  <time>2026-08-28T17:52:58Z</time>
  <course>0.0</course>
  <speed>0.0</speed>
  <fix>3d</fix>
</trkpt>
<trkpt lat="40.0713749" lon="-105.229789">
  <ele>1583.0</ele>
  <time>2026-08-28T17:52:58Z</time>
  <course>248.11</course>
  <speed>0.022360679774997897</speed>
  <fix>3d</fix>
</trkpt>
<trkpt lat="40.0713749" lon="-105.229789">
  <ele>1583.0</ele>
  <time>2026-08-28T17:52:58Z</time>
  <course>0.0</course>
  <speed>0.0</speed>
  <fix>3d</fix>
</trkpt>
<trkpt lat="40.0713749" lon="-105.229789">
  <ele>1583.0</ele>
  <time>2026-08-28T17:52:58Z</time>
  <course>248.11</course>
  <speed>0.022360679774997897</speed>
  <fix>3d</fix>
</trkpt>
<trkpt lat="40.0713749" lon="-105.229789">
  <ele>1583.0</ele>
  <time>2026-08-28T17:52:58Z</time>
  <course>0.0</course>
  <speed>0.0</speed>
  <fix>3d</fix>
</trkpt>
<trkpt lat="40.0713749" lon="-105.229789">
  <ele>1583.0</ele>
  <time>2026-08-28T17:52:58Z</time>
  <course>248.1</course>
  <speed>0.022360679774997897</speed>
  <fix>3d</fix>
</trkpt>
<trkpt lat="40.0713749" lon="-105.229789">
  <ele>1583.0</ele>
  <time>2026-08-28T17:52:58Z</time>
  <course>0.0</course>
  <speed>0.0</speed>
  <fix>3d</fix>
</trkpt>
<trkpt lat="40.0713749" lon="-105.229789">
  <ele>1583.0</ele>
  <time>2026-08-28T17:52:58Z</time>
  <course>248.1</course>
  <speed>0.022360679774997897</speed>
  <fix>3d</fix>
</trkpt>
<trkpt lat="40.0713749" lon="-105.229789">
  <ele>1583.0</ele>
  <time>2026-08-28T17:52:58Z</time>
  <course>0.0</course>
  <speed>0.0</speed>
  <fix>3d</fix>
</trkpt>
<trkpt lat="40.0713749" lon="-105.229789">
  <ele>1583.0</ele>
  <time>2026-08-28T17:52:58Z</time>
  <course>248.09</course>
  <speed>0.022360679774997897</speed>
  <fix>3d</fix>
</trkpt>
<trkpt lat="40.0713749" lon="-105.229789">
  <ele>1583.0</ele>
  <time>2026-08-28T17:52:58Z</time>
  <course>0.0</course>
  <speed>0.0</speed>
  <fix>3d</fix>
</trkpt>
<trkpt lat="40.0713749" lon="-105.229789">
  <ele>1583.0</ele>
  <time>2026-08-28T17:52:58Z</time>
  <course>248.09</course>
  <speed>0.022360679774997897</speed>
  <fix>3d</fix>
</trkpt>
<trkpt lat="40.0713749" lon="-105.229789">
  <ele>1583.0</ele>
  <time>2026-08-28T17:52:58Z</time>
  <course>0.0</course>
  <speed>0.0</speed>
  <fix>3d</fix>
</trkpt>
<trkpt lat="40.0713749" lon="-105.229789">
  <ele>1583.0</ele>
  <time>2026-08-28T17:52:58Z</time>
  <course>248.08</course>
  <speed>0.022360679774997897</speed>
  <fix>3d</fix>
</trkpt>
<trkpt lat="40.0713749" lon="-105.229789">
  <ele>1583.0</ele>
  <time>2026-08-28T17:52:58Z</time>
  <course>0.0</course>
  <speed>0.0</speed>
  <fix>3d</fix>
</trkpt>
<trkpt lat="40.0713749" lon="-105.229789">
  <ele>1583.0</ele>
  <time>2026-08-28T17:52:58Z</time>
  <course>248.08</course>
  <speed>0.022360679774997897</speed>
  <fix>3d</fix>
</trkpt>
<trkpt lat="40.0713749" lon="-105.229789">
  <ele>1583.0</ele>
  <time>2026-08-28T17:52:58Z</time>
  <course>0.0</course>
  <speed>0.0</speed>
  <fix>3d</fix>
</trkpt>
<trkpt lat="40.0713749" lon="-105.229789">
  <ele>1583.0</ele>
  <time>2026-08-28T17:52:58Z</time>
  <course>248.07</course>
  <speed>0.022360679774997897</speed>
  <fix>3d</fix>
</trkpt>
<trkpt lat="40.0713749" lon="-105.229789">
  <ele>1583.0</ele>
  <time>2026-08-28T17:52:58Z</time>
  <course>0.0</course>
  <speed>0.0</speed>
  <fix>3d</fix>
</trkpt>
<trkpt lat="40.0713749" lon="-105.229789">
  <ele>1583.0</ele>
  <time>2026-08-28T17:52:58Z</time>
  <course>248.07</course>
  <speed>0.022360679774997897</speed>
  <fix>3d</fix>
</trkpt>
<trkpt lat="40.0713749" lon="-105.229789">
  <ele>1583.0</ele>
  <time>2026-08-28T17:52:58Z</time>
  <course>0.0</course>
  <speed>0.0</speed>
  <fix>3d</fix>
</trkpt>
<trkpt lat="40.0713749" lon="-105.229789">
  <ele>1583.0</ele>
  <time>2026-08-28T17:52:58Z</time>
  <course>248.06</course>
  <speed>0.022360679774997897</speed>
  <fix>3d</fix>
</trkpt>
<trkpt lat="40.0713749" lon="-105.229789">
  <ele>1583.0</ele>
  <time>2026-08-28T17:52:58Z</time>
  <course>0.0</course>
  <speed>0.0</speed>
  <fix>3d</fix>
</trkpt>
<trkpt lat="40.0713749" lon="-105.229789">
  <ele>1583.0</ele>
  <time>2026-08-28T17:52:58Z</time>
  <course>248.06</course>
  <speed>0.022360679774997897</speed>
  <fix>3d</fix>
</trkpt>
<trkpt lat="40.0713749" lon="-105.229789">
  <ele>1583.0</ele>
  <time>2026-08-28T17:52:58Z</time>
  <course>0.0</course>
  <speed>0.0</speed>
  <fix>3d</fix>
</trkpt>
<trkpt lat="40.0713749" lon="-105.229789">
  <ele>1583.0</ele>
  <time>2026-08-28T17:52:58Z</time>
  <course>248.05</course>
  <speed>0.022360679774997897</speed>
  <fix>3d</fix>
</trkpt>
<trkpt lat="40.0713749" lon="-105.229789">
  <ele>1583.0</ele>
  <time>2026-08-28T17:52:58Z</time>
  <course>0.0</course>
  <speed>0.0</speed>
  <fix>3d</fix>
</trkpt>
<trkpt lat="40.0713749" lon="-105.229789">
  <ele>1583.0</ele>
  <time>2026-08-28T17:52:58Z</time>
  <course>248.05</course>
  <speed>0.022360679774997897</speed>
  <fix>3d</fix>
</trkpt>
<trkpt lat="40.0713749" lon="-105.229789">
  <ele>1583.0</ele>
  <time>2026-08-28T17:52:58Z</time>
  <course>0.0</course>
  <speed>0.0</speed>
  <fix>3d</fix>
</trkpt>
<trkpt lat="40.0713749" lon="-105.229789">
  <ele>1583.0</ele>
  <time>2026-08-28T17:52:58Z</time>
  <course>248.05</course>
  <speed>0.022360679774997897</speed>
  <fix>3d</fix>
</trkpt>
<trkpt lat="40.0713749" lon="-105.229789">
  <ele>1583.0</ele>
  <time>2026-08-28T17:52:58Z</time>
  <course>0.0</course>
  <speed>0.0</speed>
  <fix>3d</fix>
</trkpt>
<trkpt lat="40.0713749" lon="-105.229789">
  <ele>1583.0</ele>
  <time>2026-08-28T17:52:58Z</time>
  <course>248.04</course>
  <speed>0.022360679774997897</speed>
  <fix>3d</fix>
</trkpt>
<trkpt lat="40.0713749" lon="-105.229789">
  <ele>1583.0</ele>
  <time>2026-08-28T17:52:58Z</time>
  <course>0.0</course>
  <speed>0.0</speed>
  <fix>3d</fix>
</trkpt>
<trkpt lat="40.0713749" lon="-105.229789">
  <ele>1583.0</ele>
  <time>2026-08-28T17:52:58Z</time>
  <course>248.04</course>
  <speed>0.022360679774997897</speed>
  <fix>3d</fix>
</trkpt>
<trkpt lat="40.0713749" lon="-105.229789">
  <ele>1583.0</ele>
  <time>2026-08-28T17:52:58Z</time>
  <course>0.0</course>
  <speed>0.0</speed>
  <fix>3d</fix>
</trkpt>
<trkpt lat="40.0713749" lon="-105.229789">
  <ele>1583.0</ele>
  <time>2026-08-28T17:52:58Z</time>
  <course>248.03</course>
  <speed>0.022360679774997897</speed>
  <fix>3d</fix>
</trkpt>
<trkpt lat="40.0713749" lon="-105.229789">
  <ele>1583.0</ele>
  <time>2026-08-28T17:52:58Z</time>
  <course>0.0</course>
  <speed>0.0</speed>
  <fix>3d</fix>
</trkpt>
<trkpt lat="40.0713749" lon="-105.229789">
  <ele>1583.0</ele>
  <time>2026-08-28T17:52:58Z</time>
  <course>248.03</course>
  <speed>0.022360679774997897</speed>
  <fix>3d</fix>
</trkpt>
<trkpt lat="40.0713749" lon="-105.229789">
  <ele>1583.0</ele>
  <time>2026-08-28T17:52:58Z</time>
  <course>0.0</course>
  <speed>0.0</speed>
  <fix>3d</fix>
</trkpt>
<trkpt lat="40.0713749" lon="-105.229789">
  <ele>1583.0</ele>
  <time>2026-08-28T17:52:58Z</time>
  <course>248.02</course>
  <speed>0.022360679774997897</speed>
  <fix>3d</fix>
</trkpt>
<trkpt lat="40.0713749" lon="-105.229789">
  <ele>1583.0</ele>
  <time>2026-08-28T17:52:58Z</time>
  <course>0.0</course>
  <speed>0.0</speed>
  <fix>3d</fix>
</trkpt>
<trkpt lat="40.0713749" lon="-105.229789">
  <ele>1583.0</ele>
  <time>2026-08-28T17:52:58Z</time>
  <course>248.02</course>
  <speed>0.022360679774997897</speed>
  <fix>3d</fix>
</trkpt>
<trkpt lat="40.0713749" lon="-105.229789">
  <ele>1583.0</ele>
  <time>2026-08-28T17:52:58Z</time>
  <course>0.0</course>
  <speed>0.0</speed>
  <fix>3d</fix>
</trkpt>
<trkpt lat="40.0713749" lon="-105.229789">
  <ele>1583.0</ele>
  <time>2026-08-28T17:52:58Z</time>
  <course>248.01</course>
  <speed>0.022360679774997897</speed>
  <fix>3d</fix>
</trkpt>
<trkpt lat="40.0713749" lon="-105.229789">
  <ele>1583.0</ele>
  <time>2026-08-28T17:52:58Z</time>
  <course>0.0</course>
  <speed>0.0</speed>
  <fix>3d</fix>
</trkpt>
<trkpt lat="40.0713749" lon="-105.229789">
  <ele>1583.0</ele>
  <time>2026-08-28T17:52:58Z</time>
  <course>248.01</course>
  <speed>0.022360679774997897</speed>
  <fix>3d</fix>
</trkpt>
<trkpt lat="40.0713749" lon="-105.229789">
  <ele>1583.0</ele>
  <time>2026-08-28T17:52:58Z</time>
  <course>0.0</course>
  <speed>0.0</speed>
  <fix>3d</fix>
</trkpt>
<trkpt lat="40.0713749" lon="-105.229789">
  <ele>1583.0</ele>
  <time>2026-08-28T17:52:58Z</time>
  <course>248.0</course>
  <speed>0.022360679774997897</speed>
  <fix>3d</fix>
</trkpt>
<trkpt lat="40.0713749" lon="-105.229789">
  <ele>1583.0</ele>
  <time>2026-08-28T17:52:58Z</time>
  <course>0.0</course>
  <speed>0.0</speed>
  <fix>3d</fix>
</trkpt>
<trkpt lat="40.0713749" lon="-105.229789">
  <ele>1583.0</ele>
  <time>2026-08-28T17:52:58Z</time>
  <course>248.0</course>
  <speed>0.022360679774997897</speed>
  <fix>3d</fix>
</trkpt>
<trkpt lat="40.0713749" lon="-105.229789">
  <ele>1583.0</ele>
  <time>2026-08-28T17:52:58Z</time>
  <course>0.0</course>
  <speed>0.0</speed>
  <fix>3d</fix>
</trkpt>
<trkpt lat="40.0713749" lon="-105.229789">
  <ele>1583.0</ele>
  <time>2026-08-28T17:52:58Z</time>
  <course>247.99</course>
  <speed>0.022360679774997897</speed>
  <fix>3d</fix>
</trkpt>
<trkpt lat="40.0713749" lon="-105.229789">
  <ele>1583.0</ele>
  <time>2026-08-28T17:52:58Z</time>
  <course>0.0</course>
  <speed>0.0</speed>
  <fix>3d</fix>
</trkpt>
<trkpt lat="40.0713749" lon="-105.229789">
  <ele>1583.0</ele>
  <time>2026-08-28T17:52:58Z</time>
  <course>247.99</course>
  <speed>0.022360679774997897</speed>
  <fix>3d</fix>
</trkpt>
<trkpt lat="40.0713749" lon="-105.229789">
  <ele>1583.0</ele>
  <time>2026-08-28T17:52:58Z</time>
  <course>0.0</course>
  <speed>0.0</speed>
  <fix>3d</fix>
</trkpt>
<trkpt lat="40.0713749" lon="-105.229789">
  <ele>1583.0</ele>
  <time>2026-08-28T17:52:58Z</time>
  <course>247.99</course>
  <speed>0.022360679774997897</speed>
  <fix>3d</fix>
</trkpt>
<trkpt lat="40.0713749" lon="-105.229789">
  <ele>1583.0</ele>
  <time>2026-08-28T17:52:58Z</time>
  <course>0.0</course>
  <speed>0.0</speed>
  <fix>3d</fix>
</trkpt>
<trkpt lat="40.0713749" lon="-105.229789">
  <ele>1583.0</ele>
  <time>2026-08-28T17:52:58Z</time>
  <course>247.98</course>
  <speed>0.022360679774997897</speed>
  <fix>3d</fix>
</trkpt>
<trkpt lat="40.0713749" lon="-105.229789">
  <ele>1583.0</ele>
  <time>2026-08-28T17:52:58Z</time>
  <course>0.0</course>
  <speed>0.0</speed>
  <fix>3d</fix>
</trkpt>
<trkpt lat="40.0713749" lon="-105.229789">
  <ele>1583.0</ele>
  <time>2026-08-28T17:52:58Z</time>
  <course>247.98</course>
  <speed>0.022360679774997897</speed>
  <fix>3d</fix>
</trkpt>
<trkpt lat="40.0713749" lon="-105.229789">
  <ele>1583.0</ele>
  <time>2026-08-28T17:52:58Z</time>
  <course>0.0</course>
  <speed>0.0</speed>
  <fix>3d</fix>
</trkpt>
<trkpt lat="40.0713749" lon="-105.229789">
  <ele>1583.0</ele>
  <time>2026-08-28T17:52:58Z</time>
  <course>247.97</course>
  <speed>0.022360679774997897</speed>
  <fix>3d</fix>
</trkpt>
<trkpt lat="40.0713749" lon="-105.229789">
  <ele>1583.0</ele>
  <time>2026-08-28T17:52:58Z</time>
  <course>0.0</course>
  <speed>0.0</speed>
  <fix>3d</fix>
</trkpt>
<trkpt lat="40.0713749" lon="-105.229789">
  <ele>1583.0</ele>
  <time>2026-08-28T17:52:58Z</time>
  <course>247.97</course>
  <speed>0.022360679774997897</speed>
  <fix>3d</fix>
</trkpt>
<trkpt lat="40.0713749" lon="-105.229789">
  <ele>1583.0</ele>
  <time>2026-08-28T17:52:58Z</time>
  <course>0.0</course>
  <speed>0.0</speed>
  <fix>3d</fix>
</trkpt>
<trkpt lat="40.0713749" lon="-105.229789">
  <ele>1583.0</ele>
  <time>2026-08-28T17:52:58Z</time>
  <course>247.96</course>
  <speed>0.022360679774997897</speed>
  <fix>3d</fix>
</trkpt>
<trkpt lat="40.0713749" lon="-105.229789">
  <ele>1583.0</ele>
  <time>2026-08-28T17:52:58Z</time>
  <course>0.0</course>
  <speed>0.0</speed>
  <fix>3d</fix>
</trkpt>
<trkpt lat="40.0713749" lon="-105.229789">
  <ele>1583.0</ele>
  <time>2026-08-28T17:52:58Z</time>
  <course>247.96</course>
  <speed>0.022360679774997897</speed>
  <fix>3d</fix>
</trkpt>
<trkpt lat="40.0713749" lon="-105.229789">
  <ele>1583.0</ele>
  <time>2026-08-28T17:52:58Z</time>
  <course>0.0</course>
  <speed>0.0</speed>
  <fix>3d</fix>
</trkpt>
<trkpt lat="40.0713749" lon="-105.229789">
  <ele>1583.0</ele>
  <time>2026-08-28T17:52:58Z</time>
  <course>247.95</course>
  <speed>0.022360679774997897</speed>
  <fix>3d</fix>
</trkpt>
<trkpt lat="40.0713749" lon="-105.229789">
  <ele>1583.0</ele>
  <time>2026-08-28T17:52:58Z</time>
  <course>0.0</course>
  <speed>0.0</speed>
  <fix>3d</fix>
</trkpt>
<trkpt lat="40.0713749" lon="-105.229789">
  <ele>1583.0</ele>
  <time>2026-08-28T17:52:58Z</time>
  <course>247.95</course>
  <speed>0.022360679774997897</speed>
  <fix>3d</fix>
</trkpt>
<trkpt lat="40.0713749" lon="-105.229789">
  <ele>1583.0</ele>
  <time>2026-08-28T17:52:58Z</time>
  <course>0.0</course>
  <speed>0.0</speed>
  <fix>3d</fix>
</trkpt>
<trkpt lat="40.0713749" lon="-105.229789">
  <ele>1583.0</ele>
  <time>2026-08-28T17:52:58Z</time>
  <course>247.95</course>
  <speed>0.022360679774997897</speed>
  <fix>3d</fix>
</trkpt>
<trkpt lat="40.0713749" lon="-105.229789">
  <ele>1583.0</ele>
  <time>2026-08-28T17:52:58Z</time>
  <course>0.0</course>
  <speed>0.0</speed>
  <fix>3d</fix>
</trkpt>
<trkpt lat="40.0713749" lon="-105.229789">
  <ele>1583.0</ele>
  <time>2026-08-28T17:52:58Z</time>
  <course>247.94</course>
  <speed>0.022360679774997897</speed>
  <fix>3d</fix>
</trkpt>
<trkpt lat="40.0713749" lon="-105.229789">
  <ele>1583.0</ele>
  <time>2026-08-28T17:52:58Z</time>
  <course>0.0</course>
  <speed>0.0</speed>
  <fix>3d</fix>
</trkpt>
<trkpt lat="40.0713749" lon="-105.229789">
  <ele>1583.0</ele>
  <time>2026-08-28T17:52:58Z</time>
  <course>247.94</course>
  <speed>0.022360679774997897</speed>
  <fix>3d</fix>
</trkpt>
<trkpt lat="40.0713749" lon="-105.229789">
  <ele>1583.0</ele>
  <time>2026-08-28T17:52:58Z</time>
  <course>0.0</course>
  <speed>0.0</speed>
  <fix>3d</fix>
</trkpt>
<trkpt lat="40.0713749" lon="-105.229789">
  <ele>1583.0</ele>
  <time>2026-08-28T17:52:58Z</time>
  <course>247.93</course>
  <speed>0.022360679774997897</speed>
  <fix>3d</fix>
</trkpt>
<trkpt lat="40.0713749" lon="-105.229789">
  <ele>1583.0</ele>
  <time>2026-08-28T17:52:58Z</time>
  <course>0.0</course>
  <speed>0.0</speed>
  <fix>3d</fix>
</trkpt>
<trkpt lat="40.0713749" lon="-105.229789">
  <ele>1583.0</ele>
  <time>2026-08-28T17:52:58Z</time>
  <course>247.93</course>
  <speed>0.022360679774997897</speed>
  <fix>3d</fix>
</trkpt>
<trkpt lat="40.0713749" lon="-105.229789">
  <ele>1583.0</ele>
  <time>2026-08-28T17:52:58Z</time>
  <course>0.0</course>
  <speed>0.0</speed>
  <fix>3d</fix>
</trkpt>
<trkpt lat="40.0713749" lon="-105.229789">
  <ele>1583.0</ele>
  <time>2026-08-28T17:52:58Z</time>
  <course>247.92</course>
  <speed>0.022360679774997897</speed>
  <fix>3d</fix>
</trkpt>
<trkpt lat="40.0713749" lon="-105.229789">
  <ele>1583.0</ele>
  <time>2026-08-28T17:52:58Z</time>
  <course>0.0</course>
  <speed>0.0</speed>
  <fix>3d</fix>
</trkpt>
<trkpt lat="40.0713749" lon="-105.229789">
  <ele>1583.0</ele>
  <time>2026-08-28T17:52:58Z</time>
  <course>247.92</course>
  <speed>0.022360679774997897</speed>
  <fix>3d</fix>
</trkpt>
<trkpt lat="40.0713749" lon="-105.229789">
  <ele>1583.0</ele>
  <time>2026-08-28T17:52:58Z</time>
  <course>0.0</course>
  <speed>0.0</speed>
  <fix>3d</fix>
</trkpt>
<trkpt lat="40.0713749" lon="-105.229789">
  <ele>1583.0</ele>
  <time>2026-08-28T17:52:58Z</time>
  <course>247.92</course>
  <speed>0.022360679774997897</speed>
  <fix>3d</fix>
</trkpt>
<trkpt lat="40.0713749" lon="-105.229789">
  <ele>1583.0</ele>
  <time>2026-08-28T17:52:58Z</time>
  <course>0.0</course>
  <speed>0.0</speed>
  <fix>3d</fix>
</trkpt>
<trkpt lat="40.0713749" lon="-105.229789">
  <ele>1583.0</ele>
  <time>2026-08-28T17:52:58Z</time>
  <course>247.91</course>
  <speed>0.022360679774997897</speed>
  <fix>3d</fix>
</trkpt>
<trkpt lat="40.0713749" lon="-105.229789">
  <ele>1583.0</ele>
  <time>2026-08-28T17:52:58Z</time>
  <course>0.0</course>
  <speed>0.0</speed>
  <fix>3d</fix>
</trkpt>
<trkpt lat="40.0713749" lon="-105.229789">
  <ele>1583.0</ele>
  <time>2026-08-28T17:52:58Z</time>
  <course>247.91</course>
  <speed>0.022360679774997897</speed>
  <fix>3d</fix>
</trkpt>
<trkpt lat="40.0713749" lon="-105.229789">
  <ele>1583.0</ele>
  <time>2026-08-28T17:52:58Z</time>
  <course>0.0</course>
  <speed>0.0</speed>
  <fix>3d</fix>
</trkpt>
<trkpt lat="40.0713749" lon="-105.229789">
  <ele>1583.0</ele>
  <time>2026-08-28T17:52:58Z</time>
  <course>247.9</course>
  <speed>0.022360679774997897</speed>
  <fix>3d</fix>
</trkpt>
<trkpt lat="40.0713749" lon="-105.229789">
  <ele>1583.0</ele>
  <time>2026-08-28T17:52:58Z</time>
  <course>0.0</course>
  <speed>0.0</speed>
  <fix>3d</fix>
</trkpt>
<trkpt lat="40.0713749" lon="-105.229789">
  <ele>1583.0</ele>
  <time>2026-08-28T17:52:58Z</time>
  <course>247.9</course>
  <speed>0.022360679774997897</speed>
  <fix>3d</fix>
</trkpt>
<trkpt lat="40.0713749" lon="-105.229789">
  <ele>1583.0</ele>
  <time>2026-08-28T17:52:58Z</time>
  <course>0.0</course>
  <speed>0.0</speed>
  <fix>3d</fix>
</trkpt>
<trkpt lat="40.0713749" lon="-105.229789">
  <ele>1583.0</ele>
  <time>2026-08-28T17:52:58Z</time>
  <course>247.89</course>
  <speed>0.022360679774997897</speed>
  <fix>3d</fix>
</trkpt>
<trkpt lat="40.0713749" lon="-105.229789">
  <ele>1583.0</ele>
  <time>2026-08-28T17:52:58Z</time>
  <course>0.0</course>
  <speed>0.0</speed>
  <fix>3d</fix>
</trkpt>
<trkpt lat="40.0713749" lon="-105.229789">
  <ele>1583.0</ele>
  <time>2026-08-28T17:52:58Z</time>
  <course>247.89</course>
  <speed>0.022360679774997897</speed>
  <fix>3d</fix>
</trkpt>
<trkpt lat="40.0713749" lon="-105.229789">
  <ele>1583.0</ele>
  <time>2026-08-28T17:52:58Z</time>
  <course>0.0</course>
  <speed>0.0</speed>
  <fix>3d</fix>
</trkpt>
<trkpt lat="40.0713749" lon="-105.229789">
  <ele>1583.0</ele>
  <time>2026-08-28T17:52:58Z</time>
  <course>247.89</course>
  <speed>0.022360679774997897</speed>
  <fix>3d</fix>
</trkpt>
<trkpt lat="40.0713749" lon="-105.229789">
  <ele>1583.0</ele>
  <time>2026-08-28T17:52:58Z</time>
  <course>0.0</course>
  <speed>0.0</speed>
  <fix>3d</fix>
</trkpt>
<trkpt lat="40.0713749" lon="-105.229789">
  <ele>1583.0</ele>
  <time>2026-08-28T17:52:58Z</time>
  <course>247.88</course>
  <speed>0.0316227766016838</speed>
  <fix>3d</fix>
</trkpt>
<trkpt lat="40.0713749" lon="-105.229789">
  <ele>1583.0</ele>
  <time>2026-08-28T17:52:58Z</time>
  <course>0.0</course>
  <speed>0.0</speed>
  <fix>3d</fix>
</trkpt>
<trkpt lat="40.0713749" lon="-105.229789">
  <ele>1583.0</ele>
  <time>2026-08-28T17:52:58Z</time>
  <course>247.88</course>
  <speed>0.0316227766016838</speed>
  <fix>3d</fix>
</trkpt>
<trkpt lat="40.0713749" lon="-105.229789">
  <ele>1583.0</ele>
  <time>2026-08-28T17:52:58Z</time>
  <course>0.0</course>
  <speed>0.0</speed>
  <fix>3d</fix>
</trkpt>
<trkpt lat="40.0713749" lon="-105.229789">
  <ele>1583.0</ele>
  <time>2026-08-28T17:52:58Z</time>
  <course>247.87</course>
  <speed>0.0316227766016838</speed>
  <fix>3d</fix>
</trkpt>
<trkpt lat="40.0713749" lon="-105.229789">
  <ele>1583.0</ele>
  <time>2026-08-28T17:52:58Z</time>
  <course>0.0</course>
  <speed>0.0</speed>
  <fix>3d</fix>
</trkpt>
<trkpt lat="40.0713749" lon="-105.229789">
  <ele>1583.0</ele>
  <time>2026-08-28T17:52:58Z</time>
  <course>247.87</course>
  <speed>0.0316227766016838</speed>
  <fix>3d</fix>
</trkpt>
<trkpt lat="40.0713749" lon="-105.229789">
  <ele>1583.0</ele>
  <time>2026-08-28T17:52:58Z</time>
  <course>0.0</course>
  <speed>0.0</speed>
  <fix>3d</fix>
</trkpt>
<trkpt lat="40.0713749" lon="-105.229789">
  <ele>1583.0</ele>
  <time>2026-08-28T17:52:58Z</time>
  <course>247.87</course>
  <speed>0.0316227766016838</speed>
  <fix>3d</fix>
</trkpt>
<trkpt lat="40.0713749" lon="-105.229789">
  <ele>1583.0</ele>
  <time>2026-08-28T17:52:58Z</time>
  <course>0.0</course>
  <speed>0.0</speed>
  <fix>3d</fix>
</trkpt>
<trkpt lat="40.0713749" lon="-105.229789">
  <ele>1583.0</ele>
  <time>2026-08-28T17:52:58Z</time>
  <course>247.86</course>
  <speed>0.0316227766016838</speed>
  <fix>3d</fix>
</trkpt>
<trkpt lat="40.0713749" lon="-105.229789">
  <ele>1583.0</ele>
  <time>2026-08-28T17:52:58Z</time>
  <course>0.0</course>
  <speed>0.0</speed>
  <fix>3d</fix>
</trkpt>
<trkpt lat="40.0713749" lon="-105.229789">
  <ele>1583.0</ele>
  <time>2026-08-28T17:52:58Z</time>
  <course>247.86</course>
  <speed>0.0316227766016838</speed>
  <fix>3d</fix>
</trkpt>
<trkpt lat="40.0713749" lon="-105.229789">
  <ele>1583.0</ele>
  <time>2026-08-28T17:52:58Z</time>
  <course>0.0</course>
  <speed>0.0</speed>
  <fix>3d</fix>
</trkpt>
<trkpt lat="40.0713749" lon="-105.229789">
  <ele>1583.0</ele>
  <time>2026-08-28T17:52:58Z</time>
  <course>247.85</course>
  <speed>0.0316227766016838</speed>
  <fix>3d</fix>
</trkpt>
<trkpt lat="40.0713749" lon="-105.229789">
  <ele>1583.0</ele>
  <time>2026-08-28T17:52:58Z</time>
  <course>0.0</course>
  <speed>0.0</speed>
  <fix>3d</fix>
</trkpt>
<trkpt lat="40.0713749" lon="-105.229789">
  <ele>1583.0</ele>
  <time>2026-08-28T17:52:58Z</time>
  <course>247.85</course>
  <speed>0.0316227766016838</speed>
  <fix>3d</fix>
</trkpt>
<trkpt lat="40.0713749" lon="-105.229789">
  <ele>1583.0</ele>
  <time>2026-08-28T17:52:58Z</time>
  <course>0.0</course>
  <speed>0.0</speed>
  <fix>3d</fix>
</trkpt>
<trkpt lat="40.0713749" lon="-105.229789">
  <ele>1583.0</ele>
  <time>2026-08-28T17:52:58Z</time>
  <course>247.85</course>
  <speed>0.0316227766016838</speed>
  <fix>3d</fix>
</trkpt>
<trkpt lat="40.0713749" lon="-105.229789">
  <ele>1583.0</ele>
  <time>2026-08-28T17:52:58Z</time>
  <course>0.0</course>
  <speed>0.0</speed>
  <fix>3d</fix>
</trkpt>
<trkpt lat="40.0713749" lon="-105.229789">
  <ele>1583.0</ele>
  <time>2026-08-28T17:52:58Z</time>
  <course>247.84</course>
  <speed>0.0316227766016838</speed>
  <fix>3d</fix>
</trkpt>
<trkpt lat="40.0713749" lon="-105.229789">
  <ele>1583.0</ele>
  <time>2026-08-28T17:52:58Z</time>
  <course>0.0</course>
  <speed>0.0</speed>
  <fix>3d</fix>
</trkpt>
<trkpt lat="40.0713749" lon="-105.229789">
  <ele>1583.0</ele>
  <time>2026-08-28T17:52:58Z</time>
  <course>247.84</course>
  <speed>0.0316227766016838</speed>
  <fix>3d</fix>
</trkpt>
<trkpt lat="40.0713749" lon="-105.229789">
  <ele>1583.0</ele>
  <time>2026-08-28T17:52:58Z</time>
  <course>0.0</course>
  <speed>0.0</speed>
  <fix>3d</fix>
</trkpt>
<trkpt lat="40.0713749" lon="-105.229789">
  <ele>1583.0</ele>
  <time>2026-08-28T17:52:58Z</time>
  <course>247.83</course>
  <speed>0.0316227766016838</speed>
  <fix>3d</fix>
</trkpt>
<trkpt lat="40.0713749" lon="-105.229789">
  <ele>1583.0</ele>
  <time>2026-08-28T17:52:58Z</time>
  <course>0.0</course>
  <speed>0.0</speed>
  <fix>3d</fix>
</trkpt>
<trkpt lat="40.0713749" lon="-105.229789">
  <ele>1583.0</ele>
  <time>2026-08-28T17:52:58Z</time>
  <course>247.83</course>
  <speed>0.0316227766016838</speed>
  <fix>3d</fix>
</trkpt>
<trkpt lat="40.0713749" lon="-105.229789">
  <ele>1583.0</ele>
  <time>2026-08-28T17:52:58Z</time>
  <course>0.0</course>
  <speed>0.0</speed>
  <fix>3d</fix>
</trkpt>
<trkpt lat="40.0713749" lon="-105.229789">
  <ele>1583.0</ele>
  <time>2026-08-28T17:52:58Z</time>
  <course>247.83</course>
  <speed>0.0316227766016838</speed>
  <fix>3d</fix>
</trkpt>
<trkpt lat="40.0713749" lon="-105.229789">
  <ele>1583.0</ele>
  <time>2026-08-28T17:52:58Z</time>
  <course>0.0</course>
  <speed>0.0</speed>
  <fix>3d</fix>
</trkpt>
<trkpt lat="40.0713749" lon="-105.229789">
  <ele>1583.0</ele>
  <time>2026-08-28T17:52:58Z</time>
  <course>247.82</course>
  <speed>0.0316227766016838</speed>
  <fix>3d</fix>
</trkpt>
<trkpt lat="40.0713749" lon="-105.229789">
  <ele>1583.0</ele>
  <time>2026-08-28T17:52:58Z</time>
  <course>0.0</course>
  <speed>0.0</speed>
  <fix>3d</fix>
</trkpt>
<trkpt lat="40.0713749" lon="-105.229789">
  <ele>1583.0</ele>
  <time>2026-08-28T17:52:58Z</time>
  <course>247.82</course>
  <speed>0.0316227766016838</speed>
  <fix>3d</fix>
</trkpt>
<trkpt lat="40.0713749" lon="-105.229789">
  <ele>1583.0</ele>
  <time>2026-08-28T17:52:58Z</time>
  <course>0.0</course>
  <speed>0.0</speed>
  <fix>3d</fix>
</trkpt>
<trkpt lat="40.0713749" lon="-105.229789">
  <ele>1583.0</ele>
  <time>2026-08-28T17:52:58Z</time>
  <course>247.82</course>
  <speed>0.0316227766016838</speed>
  <fix>3d</fix>
</trkpt>
<trkpt lat="40.0713749" lon="-105.229789">
  <ele>1583.0</ele>
  <time>2026-08-28T17:52:58Z</time>
  <course>0.0</course>
  <speed>0.0</speed>
  <fix>3d</fix>
</trkpt>
<trkpt lat="40.0713749" lon="-105.229789">
  <ele>1583.0</ele>
  <time>2026-08-28T17:52:58Z</time>
  <course>247.81</course>
  <speed>0.0316227766016838</speed>
  <fix>3d</fix>
</trkpt>
<trkpt lat="40.0713749" lon="-105.229789">
  <ele>1583.0</ele>
  <time>2026-08-28T17:52:58Z</time>
  <course>0.0</course>
  <speed>0.0</speed>
  <fix>3d</fix>
</trkpt>
<trkpt lat="40.0713749" lon="-105.229789">
  <ele>1583.0</ele>
  <time>2026-08-28T17:52:58Z</time>
  <course>247.81</course>
  <speed>0.0316227766016838</speed>
  <fix>3d</fix>
</trkpt>
<trkpt lat="40.0713749" lon="-105.229789">
  <ele>1583.0</ele>
  <time>2026-08-28T17:52:58Z</time>
  <course>0.0</course>
  <speed>0.0</speed>
  <fix>3d</fix>
</trkpt>
<trkpt lat="40.0713749" lon="-105.229789">
  <ele>1583.0</ele>
  <time>2026-08-28T17:52:58Z</time>
  <course>247.8</course>
  <speed>0.0316227766016838</speed>
  <fix>3d</fix>
</trkpt>
<trkpt lat="40.0713749" lon="-105.229789">
  <ele>1583.0</ele>
  <time>2026-08-28T17:52:58Z</time>
  <course>0.0</course>
  <speed>0.0</speed>
  <fix>3d</fix>
</trkpt>
<trkpt lat="40.0713749" lon="-105.229789">
  <ele>1583.0</ele>
  <time>2026-08-28T17:52:58Z</time>
  <course>247.8</course>
  <speed>0.0316227766016838</speed>
  <fix>3d</fix>
</trkpt>
<trkpt lat="40.0713749" lon="-105.229789">
  <ele>1583.0</ele>
  <time>2026-08-28T17:52:58Z</time>
  <course>0.0</course>
  <speed>0.0</speed>
  <fix>3d</fix>
</trkpt>
<trkpt lat="40.0713749" lon="-105.229789">
  <ele>1583.0</ele>
  <time>2026-08-28T17:52:58Z</time>
  <course>247.8</course>
  <speed>0.0316227766016838</speed>
  <fix>3d</fix>
</trkpt>
<trkpt lat="40.0713749" lon="-105.229789">
  <ele>1583.0</ele>
  <time>2026-08-28T17:52:58Z</time>
  <course>0.0</course>
  <speed>0.0</speed>
  <fix>3d</fix>
</trkpt>
<trkpt lat="40.0713749" lon="-105.229789">
  <ele>1583.0</ele>
  <time>2026-08-28T17:52:58Z</time>
  <course>247.79</course>
  <speed>0.0316227766016838</speed>
  <fix>3d</fix>
</trkpt>
<trkpt lat="40.0713749" lon="-105.229789">
  <ele>1583.0</ele>
  <time>2026-08-28T17:52:58Z</time>
  <course>0.0</course>
  <speed>0.0</speed>
  <fix>3d</fix>
</trkpt>
<trkpt lat="40.0713749" lon="-105.229789">
  <ele>1583.0</ele>
  <time>2026-08-28T17:52:58Z</time>
  <course>247.79</course>
  <speed>0.0316227766016838</speed>
  <fix>3d</fix>
</trkpt>
<trkpt lat="40.0713749" lon="-105.229789">
  <ele>1583.0</ele>
  <time>2026-08-28T17:52:58Z</time>
  <course>0.0</course>
  <speed>0.0</speed>
  <fix>3d</fix>
</trkpt>
<trkpt lat="40.0713749" lon="-105.229789">
  <ele>1583.0</ele>
  <time>2026-08-28T17:52:58Z</time>
  <course>247.79</course>
  <speed>0.0316227766016838</speed>
  <fix>3d</fix>
</trkpt>
<trkpt lat="40.0713749" lon="-105.229789">
  <ele>1583.0</ele>
  <time>2026-08-28T17:52:58Z</time>
  <course>0.0</course>
  <speed>0.0</speed>
  <fix>3d</fix>
</trkpt>
<trkpt lat="40.0713749" lon="-105.229789">
  <ele>1583.0</ele>
  <time>2026-08-28T17:52:58Z</time>
  <course>247.78</course>
  <speed>0.0316227766016838</speed>
  <fix>3d</fix>
</trkpt>
<trkpt lat="40.0713749" lon="-105.229789">
  <ele>1583.0</ele>
  <time>2026-08-28T17:52:58Z</time>
  <course>0.0</course>
  <speed>0.0</speed>
  <fix>3d</fix>
</trkpt>
<trkpt lat="40.0713749" lon="-105.229789">
  <ele>1583.0</ele>
  <time>2026-08-28T17:52:58Z</time>
  <course>247.78</course>
  <speed>0.0316227766016838</speed>
  <fix>3d</fix>
</trkpt>
<trkpt lat="40.0713749" lon="-105.229789">
  <ele>1583.0</ele>
  <time>2026-08-28T17:52:58Z</time>
  <course>0.0</course>
  <speed>0.0</speed>
  <fix>3d</fix>
</trkpt>
<trkpt lat="40.0713749" lon="-105.229789">
  <ele>1583.0</ele>
  <time>2026-08-28T17:52:58Z</time>
  <course>247.78</course>
  <speed>0.0316227766016838</speed>
  <fix>3d</fix>
</trkpt>
<trkpt lat="40.0713749" lon="-105.229789">
  <ele>1583.0</ele>
  <time>2026-08-28T17:52:58Z</time>
  <course>0.0</course>
  <speed>0.0</speed>
  <fix>3d</fix>
</trkpt>
<trkpt lat="40.0713749" lon="-105.229789">
  <ele>1583.0</ele>
  <time>2026-08-28T17:52:58Z</time>
  <course>247.77</course>
  <speed>0.0316227766016838</speed>
  <fix>3d</fix>
</trkpt>
<trkpt lat="40.0713749" lon="-105.229789">
  <ele>1583.0</ele>
  <time>2026-08-28T17:52:58Z</time>
  <course>0.0</course>
  <speed>0.0</speed>
  <fix>3d</fix>
</trkpt>
<trkpt lat="40.0713749" lon="-105.229789">
  <ele>1583.0</ele>
  <time>2026-08-28T17:52:58Z</time>
  <course>247.77</course>
  <speed>0.0316227766016838</speed>
  <fix>3d</fix>
</trkpt>
<trkpt lat="40.0713749" lon="-105.229789">
  <ele>1583.0</ele>
  <time>2026-08-28T17:52:58Z</time>
  <course>0.0</course>
  <speed>0.0</speed>
  <fix>3d</fix>
</trkpt>
<trkpt lat="40.0713749" lon="-105.229789">
  <ele>1583.0</ele>
  <time>2026-08-28T17:52:58Z</time>
  <course>247.76</course>
  <speed>0.0316227766016838</speed>
  <fix>3d</fix>
</trkpt>
<trkpt lat="40.0713749" lon="-105.229789">
  <ele>1583.0</ele>
  <time>2026-08-28T17:52:58Z</time>
  <course>0.0</course>
  <speed>0.0</speed>
  <fix>3d</fix>
</trkpt>
<trkpt lat="40.0713749" lon="-105.229789">
  <ele>1583.0</ele>
  <time>2026-08-28T17:52:58Z</time>
  <course>247.76</course>
  <speed>0.0316227766016838</speed>
  <fix>3d</fix>
</trkpt>
<trkpt lat="40.0713749" lon="-105.229789">
  <ele>1583.0</ele>
  <time>2026-08-28T17:52:58Z</time>
  <course>0.0</course>
  <speed>0.0</speed>
  <fix>3d</fix>
</trkpt>
<trkpt lat="40.0713749" lon="-105.229789">
  <ele>1583.0</ele>
  <time>2026-08-28T17:52:58Z</time>
  <course>247.76</course>
  <speed>0.0316227766016838</speed>
  <fix>3d</fix>
</trkpt>
<trkpt lat="40.0713749" lon="-105.229789">
  <ele>1583.0</ele>
  <time>2026-08-28T17:52:58Z</time>
  <course>0.0</course>
  <speed>0.0</speed>
  <fix>3d</fix>
</trkpt>
<trkpt lat="40.0713749" lon="-105.229789">
  <ele>1583.0</ele>
  <time>2026-08-28T17:52:58Z</time>
  <course>247.75</course>
  <speed>0.0316227766016838</speed>
  <fix>3d</fix>
</trkpt>
<trkpt lat="40.0713749" lon="-105.229789">
  <ele>1583.0</ele>
  <time>2026-08-28T17:52:58Z</time>
  <course>0.0</course>
  <speed>0.0</speed>
  <fix>3d</fix>
</trkpt>
<trkpt lat="40.0713749" lon="-105.229789">
  <ele>1583.0</ele>
  <time>2026-08-28T17:52:58Z</time>
  <course>247.75</course>
  <speed>0.0316227766016838</speed>
  <fix>3d</fix>
</trkpt>
<trkpt lat="40.0713749" lon="-105.229789">
  <ele>1583.0</ele>
  <time>2026-08-28T17:52:58Z</time>
  <course>0.0</course>
  <speed>0.0</speed>
  <fix>3d</fix>
</trkpt>
<trkpt lat="40.0713749" lon="-105.229789">
  <ele>1583.0</ele>
  <time>2026-08-28T17:52:58Z</time>
  <course>247.75</course>
  <speed>0.0316227766016838</speed>
  <fix>3d</fix>
</trkpt>
<trkpt lat="40.0713749" lon="-105.229789">
  <ele>1583.0</ele>
  <time>2026-08-28T17:52:58Z</time>
  <course>0.0</course>
  <speed>0.0</speed>
  <fix>3d</fix>
</trkpt>
<trkpt lat="40.0713749" lon="-105.229789">
  <ele>1583.0</ele>
  <time>2026-08-28T17:52:58Z</time>
  <course>247.74</course>
  <speed>0.0316227766016838</speed>
  <fix>3d</fix>
</trkpt>
<trkpt lat="40.0713749" lon="-105.229789">
  <ele>1583.0</ele>
  <time>2026-08-28T17:52:58Z</time>
  <course>0.0</course>
  <speed>0.0</speed>
  <fix>3d</fix>
</trkpt>
<trkpt lat="40.0713749" lon="-105.229789">
  <ele>1583.0</ele>
  <time>2026-08-28T17:52:58Z</time>
  <course>247.74</course>
  <speed>0.0316227766016838</speed>
  <fix>3d</fix>
</trkpt>
<trkpt lat="40.0713749" lon="-105.229789">
  <ele>1583.0</ele>
  <time>2026-08-28T17:52:58Z</time>
  <course>0.0</course>
  <speed>0.0</speed>
  <fix>3d</fix>
</trkpt>
<trkpt lat="40.0713749" lon="-105.229789">
  <ele>1583.0</ele>
  <time>2026-08-28T17:52:58Z</time>
  <course>247.74</course>
  <speed>0.0316227766016838</speed>
  <fix>3d</fix>
</trkpt>
<trkpt lat="40.0713749" lon="-105.229789">
  <ele>1583.0</ele>
  <time>2026-08-28T17:52:58Z</time>
  <course>0.0</course>
  <speed>0.0</speed>
  <fix>3d</fix>
</trkpt>
<trkpt lat="40.0713749" lon="-105.229789">
  <ele>1583.0</ele>
  <time>2026-08-28T17:52:58Z</time>
  <course>247.73</course>
  <speed>0.0316227766016838</speed>
  <fix>3d</fix>
</trkpt>
<trkpt lat="40.0713749" lon="-105.229789">
  <ele>1583.0</ele>
  <time>2026-08-28T17:52:58Z</time>
  <course>0.0</course>
  <speed>0.0</speed>
  <fix>3d</fix>
</trkpt>
<trkpt lat="40.0713749" lon="-105.229789">
  <ele>1583.0</ele>
  <time>2026-08-28T17:52:58Z</time>
  <course>247.73</course>
  <speed>0.0316227766016838</speed>
  <fix>3d</fix>
</trkpt>
<trkpt lat="40.0713749" lon="-105.229789">
  <ele>1583.0</ele>
  <time>2026-08-28T17:52:58Z</time>
  <course>0.0</course>
  <speed>0.0</speed>
  <fix>3d</fix>
</trkpt>
<trkpt lat="40.0713749" lon="-105.229789">
  <ele>1583.0</ele>
  <time>2026-08-28T17:52:58Z</time>
  <course>247.73</course>
  <speed>0.0316227766016838</speed>
  <fix>3d</fix>
</trkpt>
<trkpt lat="40.0713749" lon="-105.229789">
  <ele>1583.0</ele>
  <time>2026-08-28T17:52:58Z</time>
  <course>0.0</course>
  <speed>0.0</speed>
  <fix>3d</fix>
</trkpt>
<trkpt lat="40.0713749" lon="-105.229789">
  <ele>1583.0</ele>
  <time>2026-08-28T17:52:58Z</time>
  <course>247.72</course>
  <speed>0.0316227766016838</speed>
  <fix>3d</fix>
</trkpt>
<trkpt lat="40.0713749" lon="-105.229789">
  <ele>1583.0</ele>
  <time>2026-08-28T17:52:58Z</time>
  <course>0.0</course>
  <speed>0.0</speed>
  <fix>3d</fix>
</trkpt>
<trkpt lat="40.0713749" lon="-105.229789">
  <ele>1583.0</ele>
  <time>2026-08-28T17:52:58Z</time>
  <course>247.72</course>
  <speed>0.0316227766016838</speed>
  <fix>3d</fix>
</trkpt>
<trkpt lat="40.0713749" lon="-105.229789">
  <ele>1583.0</ele>
  <time>2026-08-28T17:52:58Z</time>
  <course>0.0</course>
  <speed>0.0</speed>
  <fix>3d</fix>
</trkpt>
<trkpt lat="40.0713749" lon="-105.229789">
  <ele>1583.0</ele>
  <time>2026-08-28T17:52:58Z</time>
  <course>247.72</course>
  <speed>0.0316227766016838</speed>
  <fix>3d</fix>
</trkpt>
<trkpt lat="40.0713749" lon="-105.229789">
  <ele>1583.0</ele>
  <time>2026-08-28T17:52:58Z</time>
  <course>0.0</course>
  <speed>0.0</speed>
  <fix>3d</fix>
</trkpt>
<trkpt lat="40.0713749" lon="-105.229789">
  <ele>1583.0</ele>
  <time>2026-08-28T17:52:58Z</time>
  <course>247.71</course>
  <speed>0.0316227766016838</speed>
  <fix>3d</fix>
</trkpt>
<trkpt lat="40.0713749" lon="-105.229789">
  <ele>1583.0</ele>
  <time>2026-08-28T17:52:58Z</time>
  <course>0.0</course>
  <speed>0.0</speed>
  <fix>3d</fix>
</trkpt>
<trkpt lat="40.0713749" lon="-105.229789">
  <ele>1583.0</ele>
  <time>2026-08-28T17:52:58Z</time>
  <course>247.71</course>
  <speed>0.0316227766016838</speed>
  <fix>3d</fix>
</trkpt>
<trkpt lat="40.0713749" lon="-105.229789">
  <ele>1583.0</ele>
  <time>2026-08-28T17:52:58Z</time>
  <course>0.0</course>
  <speed>0.0</speed>
  <fix>3d</fix>
</trkpt>
<trkpt lat="40.0713749" lon="-105.229789">
  <ele>1583.0</ele>
  <time>2026-08-28T17:52:58Z</time>
  <course>247.71</course>
  <speed>0.0316227766016838</speed>
  <fix>3d</fix>
</trkpt>
<trkpt lat="40.0713749" lon="-105.229789">
  <ele>1583.0</ele>
  <time>2026-08-28T17:52:58Z</time>
  <course>0.0</course>
  <speed>0.0</speed>
  <fix>3d</fix>
</trkpt>
<trkpt lat="40.0713749" lon="-105.229789">
  <ele>1583.0</ele>
  <time>2026-08-28T17:52:58Z</time>
  <course>247.7</course>
  <speed>0.0316227766016838</speed>
  <fix>3d</fix>
</trkpt>
<trkpt lat="40.0713749" lon="-105.229789">
  <ele>1583.0</ele>
  <time>2026-08-28T17:52:58Z</time>
  <course>0.0</course>
  <speed>0.0</speed>
  <fix>3d</fix>
</trkpt>
<trkpt lat="40.0713749" lon="-105.229789">
  <ele>1583.0</ele>
  <time>2026-08-28T17:52:58Z</time>
  <course>247.7</course>
  <speed>0.0316227766016838</speed>
  <fix>3d</fix>
</trkpt>
<trkpt lat="40.0713749" lon="-105.229789">
  <ele>1583.0</ele>
  <time>2026-08-28T17:52:58Z</time>
  <course>0.0</course>
  <speed>0.0</speed>
  <fix>3d</fix>
</trkpt>
<trkpt lat="40.0713749" lon="-105.229789">
  <ele>1583.0</ele>
  <time>2026-08-28T17:52:58Z</time>
  <course>247.7</course>
  <speed>0.0316227766016838</speed>
  <fix>3d</fix>
</trkpt>
<trkpt lat="40.0713749" lon="-105.229789">
  <ele>1583.0</ele>
  <time>2026-08-28T17:52:58Z</time>
  <course>0.0</course>
  <speed>0.0</speed>
  <fix>3d</fix>
</trkpt>
<trkpt lat="40.0713749" lon="-105.229789">
  <ele>1583.0</ele>
  <time>2026-08-28T17:52:58Z</time>
  <course>247.69</course>
  <speed>0.0316227766016838</speed>
  <fix>3d</fix>
</trkpt>
<trkpt lat="40.0713749" lon="-105.229789">
  <ele>1583.0</ele>
  <time>2026-08-28T17:52:58Z</time>
  <course>0.0</course>
  <speed>0.0</speed>
  <fix>3d</fix>
</trkpt>
<trkpt lat="40.0713749" lon="-105.229789">
  <ele>1583.0</ele>
  <time>2026-08-28T17:52:58Z</time>
  <course>247.69</course>
  <speed>0.0316227766016838</speed>
  <fix>3d</fix>
</trkpt>
<trkpt lat="40.0713749" lon="-105.229789">
  <ele>1583.0</ele>
  <time>2026-08-28T17:52:58Z</time>
  <course>0.0</course>
  <speed>0.0</speed>
  <fix>3d</fix>
</trkpt>
<trkpt lat="40.0713749" lon="-105.229789">
  <ele>1583.0</ele>
  <time>2026-08-28T17:52:58Z</time>
  <course>247.69</course>
  <speed>0.0316227766016838</speed>
  <fix>3d</fix>
</trkpt>
<trkpt lat="40.0713749" lon="-105.229789">
  <ele>1583.0</ele>
  <time>2026-08-28T17:52:58Z</time>
  <course>0.0</course>
  <speed>0.0</speed>
  <fix>3d</fix>
</trkpt>
<trkpt lat="40.0713749" lon="-105.229789">
  <ele>1583.0</ele>
  <time>2026-08-28T17:52:58Z</time>
  <course>247.68</course>
  <speed>0.0316227766016838</speed>
  <fix>3d</fix>
</trkpt>
<trkpt lat="40.0713749" lon="-105.229789">
  <ele>1583.0</ele>
  <time>2026-08-28T17:52:58Z</time>
  <course>0.0</course>
  <speed>0.0</speed>
  <fix>3d</fix>
</trkpt>
<trkpt lat="40.0713749" lon="-105.229789">
  <ele>1583.0</ele>
  <time>2026-08-28T17:52:58Z</time>
  <course>247.68</course>
  <speed>0.0316227766016838</speed>
  <fix>3d</fix>
</trkpt>
<trkpt lat="40.0713749" lon="-105.229789">
  <ele>1583.0</ele>
  <time>2026-08-28T17:52:58Z</time>
  <course>0.0</course>
  <speed>0.0</speed>
  <fix>3d</fix>
</trkpt>
<trkpt lat="40.0713749" lon="-105.229789">
  <ele>1583.0</ele>
  <time>2026-08-28T17:52:58Z</time>
  <course>247.68</course>
  <speed>0.0316227766016838</speed>
  <fix>3d</fix>
</trkpt>
<trkpt lat="40.0713749" lon="-105.229789">
  <ele>1583.0</ele>
  <time>2026-08-28T17:52:58Z</time>
  <course>0.0</course>
  <speed>0.0</speed>
  <fix>3d</fix>
</trkpt>
<trkpt lat="40.0713749" lon="-105.229789">
  <ele>1583.0</ele>
  <time>2026-08-28T17:52:58Z</time>
  <course>247.67</course>
  <speed>0.0316227766016838</speed>
  <fix>3d</fix>
</trkpt>
<trkpt lat="40.0713749" lon="-105.229789">
  <ele>1583.0</ele>
  <time>2026-08-28T17:52:58Z</time>
  <course>0.0</course>
  <speed>0.0</speed>
  <fix>3d</fix>
</trkpt>
<trkpt lat="40.0713749" lon="-105.229789">
  <ele>1583.0</ele>
  <time>2026-08-28T17:52:58Z</time>
  <course>247.67</course>
  <speed>0.0316227766016838</speed>
  <fix>3d</fix>
</trkpt>
<trkpt lat="40.0713749" lon="-105.229789">
  <ele>1583.0</ele>
  <time>2026-08-28T17:52:58Z</time>
  <course>0.0</course>
  <speed>0.0</speed>
  <fix>3d</fix>
</trkpt>
<trkpt lat="40.0713749" lon="-105.229789">
  <ele>1583.0</ele>
  <time>2026-08-28T17:52:58Z</time>
  <course>247.67</course>
  <speed>0.0316227766016838</speed>
  <fix>3d</fix>
</trkpt>
<trkpt lat="40.0713749" lon="-105.229789">
  <ele>1583.0</ele>
  <time>2026-08-28T17:52:58Z</time>
  <course>0.0</course>
  <speed>0.0</speed>
  <fix>3d</fix>
</trkpt>
<trkpt lat="40.0713749" lon="-105.229789">
  <ele>1583.0</ele>
  <time>2026-08-28T17:52:58Z</time>
  <course>247.66</course>
  <speed>0.0316227766016838</speed>
  <fix>3d</fix>
</trkpt>
<trkpt lat="40.0713749" lon="-105.229789">
  <ele>1583.0</ele>
  <time>2026-08-28T17:52:58Z</time>
  <course>0.0</course>
  <speed>0.0</speed>
  <fix>3d</fix>
</trkpt>
<trkpt lat="40.0713749" lon="-105.229789">
  <ele>1583.0</ele>
  <time>2026-08-28T17:52:58Z</time>
  <course>247.66</course>
  <speed>0.0316227766016838</speed>
  <fix>3d</fix>
</trkpt>
<trkpt lat="40.0713749" lon="-105.229789">
  <ele>1583.0</ele>
  <time>2026-08-28T17:52:58Z</time>
  <course>0.0</course>
  <speed>0.0</speed>
  <fix>3d</fix>
</trkpt>
<trkpt lat="40.0713749" lon="-105.229789">
  <ele>1583.0</ele>
  <time>2026-08-28T17:52:58Z</time>
  <course>247.66</course>
  <speed>0.0316227766016838</speed>
  <fix>3d</fix>
</trkpt>
<trkpt lat="40.0713749" lon="-105.229789">
  <ele>1583.0</ele>
  <time>2026-08-28T17:52:58Z</time>
  <course>0.0</course>
  <speed>0.0</speed>
  <fix>3d</fix>
</trkpt>
<trkpt lat="40.0713749" lon="-105.229789">
  <ele>1583.0</ele>
  <time>2026-08-28T17:52:58Z</time>
  <course>247.65</course>
  <speed>0.0316227766016838</speed>
  <fix>3d</fix>
</trkpt>
<trkpt lat="40.0713749" lon="-105.229789">
  <ele>1583.0</ele>
  <time>2026-08-28T17:52:58Z</time>
  <course>0.0</course>
  <speed>0.0</speed>
  <fix>3d</fix>
</trkpt>
<trkpt lat="40.0713749" lon="-105.229789">
  <ele>1583.0</ele>
  <time>2026-08-28T17:52:58Z</time>
  <course>247.65</course>
  <speed>0.0316227766016838</speed>
  <fix>3d</fix>
</trkpt>
<trkpt lat="40.0713749" lon="-105.229789">
  <ele>1583.0</ele>
  <time>2026-08-28T17:52:58Z</time>
  <course>0.0</course>
  <speed>0.0</speed>
  <fix>3d</fix>
</trkpt>
<trkpt lat="40.0713749" lon="-105.229789">
  <ele>1583.0</ele>
  <time>2026-08-28T17:52:58Z</time>
  <course>247.65</course>
  <speed>0.0316227766016838</speed>
  <fix>3d</fix>
</trkpt>
<trkpt lat="40.0713749" lon="-105.229789">
  <ele>1583.0</ele>
  <time>2026-08-28T17:52:58Z</time>
  <course>0.0</course>
  <speed>0.0</speed>
  <fix>3d</fix>
</trkpt>
<trkpt lat="40.0713749" lon="-105.229789">
  <ele>1583.0</ele>
  <time>2026-08-28T17:52:58Z</time>
  <course>247.64</course>
  <speed>0.0316227766016838</speed>
  <fix>3d</fix>
</trkpt>
<trkpt lat="40.0713749" lon="-105.229789">
  <ele>1583.0</ele>
  <time>2026-08-28T17:52:58Z</time>
  <course>0.0</course>
  <speed>0.0</speed>
  <fix>3d</fix>
</trkpt>
<trkpt lat="40.0713749" lon="-105.229789">
  <ele>1583.0</ele>
  <time>2026-08-28T17:52:58Z</time>
  <course>247.64</course>
  <speed>0.0316227766016838</speed>
  <fix>3d</fix>
</trkpt>
<trkpt lat="40.0713749" lon="-105.229789">
  <ele>1583.0</ele>
  <time>2026-08-28T17:52:58Z</time>
  <course>0.0</course>
  <speed>0.0</speed>
  <fix>3d</fix>
</trkpt>
<trkpt lat="40.0713749" lon="-105.229789">
  <ele>1583.0</ele>
  <time>2026-08-28T17:52:58Z</time>
  <course>247.64</course>
  <speed>0.0316227766016838</speed>
  <fix>3d</fix>
</trkpt>
<trkpt lat="40.0713749" lon="-105.229789">
  <ele>1583.0</ele>
  <time>2026-08-28T17:52:58Z</time>
  <course>0.0</course>
  <speed>0.0</speed>
  <fix>3d</fix>
</trkpt>
<trkpt lat="40.0713749" lon="-105.229789">
  <ele>1583.0</ele>
  <time>2026-08-28T17:52:58Z</time>
  <course>247.64</course>
  <speed>0.0316227766016838</speed>
  <fix>3d</fix>
</trkpt>
<trkpt lat="40.0713749" lon="-105.229789">
  <ele>1583.0</ele>
  <time>2026-08-28T17:52:58Z</time>
  <course>0.0</course>
  <speed>0.0</speed>
  <fix>3d</fix>
</trkpt>
<trkpt lat="40.0713749" lon="-105.229789">
  <ele>1583.0</ele>
  <time>2026-08-28T17:52:58Z</time>
  <course>247.63</course>
  <speed>0.0316227766016838</speed>
  <fix>3d</fix>
</trkpt>
<trkpt lat="40.0713749" lon="-105.229789">
  <ele>1583.0</ele>
  <time>2026-08-28T17:52:58Z</time>
  <course>0.0</course>
  <speed>0.0</speed>
  <fix>3d</fix>
</trkpt>
<trkpt lat="40.0713749" lon="-105.229789">
  <ele>1583.0</ele>
  <time>2026-08-28T17:52:58Z</time>
  <course>247.63</course>
  <speed>0.0316227766016838</speed>
  <fix>3d</fix>
</trkpt>
<trkpt lat="40.0713749" lon="-105.229789">
  <ele>1583.0</ele>
  <time>2026-08-28T17:52:58Z</time>
  <course>0.0</course>
  <speed>0.0</speed>
  <fix>3d</fix>
</trkpt>
<trkpt lat="40.0713749" lon="-105.229789">
  <ele>1583.0</ele>
  <time>2026-08-28T17:52:58Z</time>
  <course>247.63</course>
  <speed>0.0316227766016838</speed>
  <fix>3d</fix>
</trkpt>
<trkpt lat="40.0713749" lon="-105.229789">
  <ele>1583.0</ele>
  <time>2026-08-28T17:52:58Z</time>
  <course>0.0</course>
  <speed>0.0</speed>
  <fix>3d</fix>
</trkpt>
<trkpt lat="40.0713749" lon="-105.229789">
  <ele>1583.0</ele>
  <time>2026-08-28T17:52:58Z</time>
  <course>247.62</course>
  <speed>0.0316227766016838</speed>
  <fix>3d</fix>
</trkpt>
<trkpt lat="40.0713749" lon="-105.229789">
  <ele>1583.0</ele>
  <time>2026-08-28T17:52:58Z</time>
  <course>0.0</course>
  <speed>0.0</speed>
  <fix>3d</fix>
</trkpt>
<trkpt lat="40.0713749" lon="-105.229789">
  <ele>1583.0</ele>
  <time>2026-08-28T17:52:58Z</time>
  <course>247.62</course>
  <speed>0.0316227766016838</speed>
  <fix>3d</fix>
</trkpt>
<trkpt lat="40.0713749" lon="-105.229789">
  <ele>1583.0</ele>
  <time>2026-08-28T17:52:58Z</time>
  <course>0.0</course>
  <speed>0.0</speed>
  <fix>3d</fix>
</trkpt>
<trkpt lat="40.0713749" lon="-105.229789">
  <ele>1583.0</ele>
  <time>2026-08-28T17:52:58Z</time>
  <course>247.62</course>
  <speed>0.0316227766016838</speed>
  <fix>3d</fix>
</trkpt>
<trkpt lat="40.0713749" lon="-105.229789">
  <ele>1583.0</ele>
  <time>2026-08-28T17:52:58Z</time>
  <course>0.0</course>
  <speed>0.0</speed>
  <fix>3d</fix>
</trkpt>
<trkpt lat="40.0713749" lon="-105.229789">
  <ele>1583.0</ele>
  <time>2026-08-28T17:52:58Z</time>
  <course>247.62</course>
  <speed>0.0316227766016838</speed>
  <fix>3d</fix>
</trkpt>
<trkpt lat="40.0713749" lon="-105.229789">
  <ele>1583.0</ele>
  <time>2026-08-28T17:52:58Z</time>
  <course>0.0</course>
  <speed>0.0</speed>
  <fix>3d</fix>
</trkpt>
<trkpt lat="40.0713749" lon="-105.229789">
  <ele>1583.0</ele>
  <time>2026-08-28T17:52:58Z</time>
  <course>247.61</course>
  <speed>0.0316227766016838</speed>
  <fix>3d</fix>
</trkpt>
<trkpt lat="40.0713749" lon="-105.229789">
  <ele>1583.0</ele>
  <time>2026-08-28T17:52:58Z</time>
  <course>0.0</course>
  <speed>0.0</speed>
  <fix>3d</fix>
</trkpt>
<trkpt lat="40.0713749" lon="-105.229789">
  <ele>1583.0</ele>
  <time>2026-08-28T17:52:58Z</time>
  <course>247.61</course>
  <speed>0.0316227766016838</speed>
  <fix>3d</fix>
</trkpt>
<trkpt lat="40.0713749" lon="-105.229789">
  <ele>1583.0</ele>
  <time>2026-08-28T17:52:58Z</time>
  <course>0.0</course>
  <speed>0.0</speed>
  <fix>3d</fix>
</trkpt>
<trkpt lat="40.0713749" lon="-105.229789">
  <ele>1583.0</ele>
  <time>2026-08-28T17:52:58Z</time>
  <course>247.61</course>
  <speed>0.0316227766016838</speed>
  <fix>3d</fix>
</trkpt>
<trkpt lat="40.0713749" lon="-105.229789">
  <ele>1583.0</ele>
  <time>2026-08-28T17:52:58Z</time>
  <course>0.0</course>
  <speed>0.0</speed>
  <fix>3d</fix>
</trkpt>
<trkpt lat="40.0713749" lon="-105.229789">
  <ele>1583.0</ele>
  <time>2026-08-28T17:52:58Z</time>
  <course>247.6</course>
  <speed>0.0316227766016838</speed>
  <fix>3d</fix>
</trkpt>
<trkpt lat="40.0713749" lon="-105.229789">
  <ele>1583.0</ele>
  <time>2026-08-28T17:52:58Z</time>
  <course>0.0</course>
  <speed>0.0</speed>
  <fix>3d</fix>
</trkpt>
<trkpt lat="40.0713749" lon="-105.229789">
  <ele>1583.0</ele>
  <time>2026-08-28T17:52:58Z</time>
  <course>247.6</course>
  <speed>0.0316227766016838</speed>
  <fix>3d</fix>
</trkpt>
<trkpt lat="40.0713749" lon="-105.229789">
  <ele>1583.0</ele>
  <time>2026-08-28T17:52:58Z</time>
  <course>0.0</course>
  <speed>0.0</speed>
  <fix>3d</fix>
</trkpt>
<trkpt lat="40.0713749" lon="-105.229789">
  <ele>1583.0</ele>
  <time>2026-08-28T17:52:58Z</time>
  <course>247.6</course>
  <speed>0.0316227766016838</speed>
  <fix>3d</fix>
</trkpt>
<trkpt lat="40.0713749" lon="-105.229789">
  <ele>1583.0</ele>
  <time>2026-08-28T17:52:58Z</time>
  <course>0.0</course>
  <speed>0.0</speed>
  <fix>3d</fix>
</trkpt>
<trkpt lat="40.0713749" lon="-105.229789">
  <ele>1583.0</ele>
  <time>2026-08-28T17:52:58Z</time>
  <course>247.6</course>
  <speed>0.0316227766016838</speed>
  <fix>3d</fix>
</trkpt>
<trkpt lat="40.0713749" lon="-105.229789">
  <ele>1583.0</ele>
  <time>2026-08-28T17:52:58Z</time>
  <course>0.0</course>
  <speed>0.0</speed>
  <fix>3d</fix>
</trkpt>
<trkpt lat="40.0713749" lon="-105.229789">
  <ele>1583.0</ele>
  <time>2026-08-28T17:52:58Z</time>
  <course>247.59</course>
  <speed>0.0316227766016838</speed>
  <fix>3d</fix>
</trkpt>
<trkpt lat="40.0713749" lon="-105.229789">
  <ele>1583.0</ele>
  <time>2026-08-28T17:52:58Z</time>
  <course>0.0</course>
  <speed>0.0</speed>
  <fix>3d</fix>
</trkpt>
<trkpt lat="40.0713749" lon="-105.229789">
  <ele>1582.92</ele>
  <time>2026-08-28T17:52:58Z</time>
  <course>247.59</course>
  <speed>0.0</speed>
  <fix>3d</fix>
</trkpt>
<trkpt lat="40.0713749" lon="-105.229789">
  <ele>1583.0</ele>
  <time>2026-08-28T17:52:58Z</time>
  <course>0.0</course>
  <speed>0.0</speed>
  <fix>3d</fix>
</trkpt>
<trkpt lat="40.0713749" lon="-105.229789">
  <ele>1582.92</ele>
  <time>2026-08-28T17:52:58Z</time>
  <course>247.59</course>
  <speed>0.0</speed>
  <fix>3d</fix>
</trkpt>
<trkpt lat="40.0713749" lon="-105.229789">
  <ele>1583.0</ele>
  <time>2026-08-28T17:52:58Z</time>
  <course>0.0</course>
  <speed>0.0</speed>
  <fix>3d</fix>
</trkpt>
<trkpt lat="40.0713749" lon="-105.229789">
  <ele>1582.91</ele>
  <time>2026-08-28T17:52:58Z</time>
  <course>247.58</course>
  <speed>0.0</speed>
  <fix>3d</fix>
</trkpt>
<trkpt lat="40.0713749" lon="-105.229789">
  <ele>1583.0</ele>
  <time>2026-08-28T17:52:58Z</time>
  <course>0.0</course>
  <speed>0.0</speed>
  <fix>3d</fix>
</trkpt>
<trkpt lat="40.0713749" lon="-105.229789">
  <ele>1582.91</ele>
  <time>2026-08-28T17:52:58Z</time>
  <course>247.58</course>
  <speed>0.0</speed>
  <fix>3d</fix>
</trkpt>
<trkpt lat="40.0713749" lon="-105.229789">
  <ele>1583.0</ele>
  <time>2026-08-28T17:52:58Z</time>
  <course>0.0</course>
  <speed>0.0</speed>
  <fix>3d</fix>
</trkpt>
<trkpt lat="40.0713749" lon="-105.229789">
  <ele>1582.9</ele>
  <time>2026-08-28T17:52:58Z</time>
  <course>247.58</course>
  <speed>0.0</speed>
  <fix>3d</fix>
</trkpt>
<trkpt lat="40.0713749" lon="-105.229789">
  <ele>1583.0</ele>
  <time>2026-08-28T17:52:58Z</time>
  <course>0.0</course>
  <speed>0.0</speed>
  <fix>3d</fix>
</trkpt>
<trkpt lat="40.0713749" lon="-105.229789">
  <ele>1582.9</ele>
  <time>2026-08-28T17:52:58Z</time>
  <course>247.58</course>
  <speed>0.0</speed>
  <fix>3d</fix>
</trkpt>
<trkpt lat="40.0713749" lon="-105.229789">
  <ele>1583.0</ele>
  <time>2026-08-28T17:52:58Z</time>
  <course>0.0</course>
  <speed>0.0</speed>
  <fix>3d</fix>
</trkpt>
<trkpt lat="40.0713749" lon="-105.229789">
  <ele>1582.9</ele>
  <time>2026-08-28T17:52:58Z</time>
  <course>247.57</course>
  <speed>0.0</speed>
  <fix>3d</fix>
</trkpt>
<trkpt lat="40.0713749" lon="-105.229789">
  <ele>1583.0</ele>
  <time>2026-08-28T17:52:58Z</time>
  <course>0.0</course>
  <speed>0.0</speed>
  <fix>3d</fix>
</trkpt>
<trkpt lat="40.0713749" lon="-105.229789">
  <ele>1582.9</ele>
  <time>2026-08-28T17:52:58Z</time>
  <course>247.57</course>
  <speed>0.0</speed>
  <fix>3d</fix>
</trkpt>
<trkpt lat="40.0713749" lon="-105.229789">
  <ele>1583.0</ele>
  <time>2026-08-28T17:52:58Z</time>
  <course>0.0</course>
  <speed>0.0</speed>
  <fix>3d</fix>
</trkpt>
<trkpt lat="40.0713749" lon="-105.229789">
  <ele>1582.9</ele>
  <time>2026-08-28T17:52:58Z</time>
  <course>247.57</course>
  <speed>0.0</speed>
  <fix>3d</fix>
</trkpt>
<trkpt lat="40.0713749" lon="-105.229789">
  <ele>1583.0</ele>
  <time>2026-08-28T17:52:58Z</time>
  <course>0.0</course>
  <speed>0.0</speed>
  <fix>3d</fix>
</trkpt>
<trkpt lat="40.0713749" lon="-105.229789">
  <ele>1582.9</ele>
  <time>2026-08-28T17:52:58Z</time>
  <course>247.57</course>
  <speed>0.01</speed>
  <fix>3d</fix>
</trkpt>
<trkpt lat="40.0713749" lon="-105.229789">
  <ele>1583.0</ele>
  <time>2026-08-28T17:52:58Z</time>
  <course>0.0</course>
  <speed>0.0</speed>
  <fix>3d</fix>
</trkpt>
<trkpt lat="40.0713749" lon="-105.229789">
  <ele>1582.9</ele>
  <time>2026-08-28T17:52:58Z</time>
  <course>247.56</course>
  <speed>0.01</speed>
  <fix>3d</fix>
</trkpt>
<trkpt lat="40.0713749" lon="-105.229789">
  <ele>1583.0</ele>
  <time>2026-08-28T17:52:58Z</time>
  <course>0.0</course>
  <speed>0.0</speed>
  <fix>3d</fix>
</trkpt>
<trkpt lat="40.0713749" lon="-105.229789">
  <ele>1582.91</ele>
  <time>2026-08-28T17:52:58Z</time>
  <course>247.56</course>
  <speed>0.01</speed>
  <fix>3d</fix>
</trkpt>
<trkpt lat="40.0713749" lon="-105.229789">
  <ele>1583.0</ele>
  <time>2026-08-28T17:52:58Z</time>
  <course>0.0</course>
  <speed>0.0</speed>
  <fix>3d</fix>
</trkpt>
<trkpt lat="40.0713749" lon="-105.229789">
  <ele>1582.91</ele>
  <time>2026-08-28T17:52:58Z</time>
  <course>247.56</course>
  <speed>0.01</speed>
  <fix>3d</fix>
</trkpt>
<trkpt lat="40.0713749" lon="-105.229789">
  <ele>1583.0</ele>
  <time>2026-08-28T17:52:58Z</time>
  <course>0.0</course>
  <speed>0.0</speed>
  <fix>3d</fix>
</trkpt>
<trkpt lat="40.0713749" lon="-105.229789">
  <ele>1582.92</ele>
  <time>2026-08-28T17:52:58Z</time>
  <course>247.56</course>
  <speed>0.01</speed>
  <fix>3d</fix>
</trkpt>
<trkpt lat="40.0713749" lon="-105.229789">
  <ele>1583.0</ele>
  <time>2026-08-28T17:52:58Z</time>
  <course>0.0</course>
  <speed>0.0</speed>
  <fix>3d</fix>
</trkpt>
<trkpt lat="40.0713749" lon="-105.229789">
  <ele>1582.92</ele>
  <time>2026-08-28T17:52:58Z</time>
  <course>247.55</course>
  <speed>0.01</speed>
  <fix>3d</fix>
</trkpt>
<trkpt lat="40.0713749" lon="-105.229789">
  <ele>1583.0</ele>
  <time>2026-08-28T17:52:58Z</time>
  <course>0.0</course>
  <speed>0.0</speed>
  <fix>3d</fix>
</trkpt>
<trkpt lat="40.0713749" lon="-105.229789">
  <ele>1582.92</ele>
  <time>2026-08-28T17:52:58Z</time>
  <course>247.55</course>
  <speed>0.01</speed>
  <fix>3d</fix>
</trkpt>
<trkpt lat="40.0713749" lon="-105.229789">
  <ele>1583.0</ele>
  <time>2026-08-28T17:52:58Z</time>
  <course>0.0</course>
  <speed>0.0</speed>
  <fix>3d</fix>
</trkpt>
<trkpt lat="40.0713749" lon="-105.229789">
  <ele>1582.93</ele>
  <time>2026-08-28T17:52:58Z</time>
  <course>247.55</course>
  <speed>0.01</speed>
  <fix>3d</fix>
</trkpt>
<trkpt lat="40.0713749" lon="-105.229789">
  <ele>1583.0</ele>
  <time>2026-08-28T17:52:58Z</time>
  <course>0.0</course>
  <speed>0.0</speed>
  <fix>3d</fix>
</trkpt>
<trkpt lat="40.0713749" lon="-105.229789">
  <ele>1582.93</ele>
  <time>2026-08-28T17:52:58Z</time>
  <course>247.55</course>
  <speed>0.01</speed>
  <fix>3d</fix>
</trkpt>
<trkpt lat="40.0713749" lon="-105.229789">
  <ele>1583.0</ele>
  <time>2026-08-28T17:52:58Z</time>
  <course>0.0</course>
  <speed>0.0</speed>
  <fix>3d</fix>
</trkpt>
<trkpt lat="40.0713749" lon="-105.229789">
  <ele>1582.93</ele>
  <time>2026-08-28T17:52:58Z</time>
  <course>247.54</course>
  <speed>0.01</speed>
  <fix>3d</fix>
</trkpt>
<trkpt lat="40.0713749" lon="-105.229789">
  <ele>1583.0</ele>
  <time>2026-08-28T17:52:58Z</time>
  <course>246.0</course>
  <speed>0.0</speed>
  <fix>3d</fix>
</trkpt>
<trkpt lat="40.0713749" lon="-105.229789">
  <ele>1582.93</ele>
  <time>2026-08-28T17:52:58Z</time>
  <course>247.54</course>
  <speed>0.01</speed>
  <fix>3d</fix>
</trkpt>
<trkpt lat="40.0713749" lon="-105.229789">
  <ele>1583.0</ele>
  <time>2026-08-28T17:52:58Z</time>
  <course>246.0</course>
  <speed>0.0</speed>
  <fix>3d</fix>
</trkpt>
<trkpt lat="40.0713749" lon="-105.229789">
  <ele>1582.94</ele>
  <time>2026-08-28T17:52:58Z</time>
  <course>247.55</course>
  <speed>0.01</speed>
  <fix>3d</fix>
</trkpt>
<trkpt lat="40.0713749" lon="-105.229789">
  <ele>1583.0</ele>
  <time>2026-08-28T17:52:58Z</time>
  <course>246.0</course>
  <speed>0.0</speed>
  <fix>3d</fix>
</trkpt>
<trkpt lat="40.0713749" lon="-105.229789">
  <ele>1582.94</ele>
  <time>2026-08-28T17:52:58Z</time>
  <course>247.53</course>
  <speed>0.01</speed>
  <fix>3d</fix>
</trkpt>
<trkpt lat="40.0713749" lon="-105.229789">
  <ele>1583.0</ele>
  <time>2026-08-28T17:52:58Z</time>
  <course>245.99</course>
  <speed>0.01</speed>
  <fix>3d</fix>
</trkpt>
<trkpt lat="40.0713749" lon="-105.229789">
  <ele>1582.94</ele>
  <time>2026-08-28T17:52:58Z</time>
  <course>247.47</course>
  <speed>0.03</speed>
  <fix>3d</fix>
</trkpt>
<trkpt lat="40.0713749" lon="-105.229789">
  <ele>1583.0</ele>
  <time>2026-08-28T17:52:58Z</time>
  <course>245.99</course>
  <speed>0.01</speed>
  <fix>3d</fix>
</trkpt>
<trkpt lat="40.0713749" lon="-105.229789">
  <ele>1582.95</ele>
  <time>2026-08-28T17:52:58Z</time>
  <course>247.37</course>
  <speed>0.05</speed>
  <fix>3d</fix>
</trkpt>
<trkpt lat="40.0713749" lon="-105.229789">
  <ele>1583.0</ele>
  <time>2026-08-28T17:52:58Z</time>
  <course>245.88</course>
  <speed>0.04</speed>
  <fix>3d</fix>
</trkpt>
<trkpt lat="40.0713749" lon="-105.2297891">
  <ele>1582.95</ele>
  <time>2026-08-28T17:52:58Z</time>
  <course>247.2</course>
  <speed>0.07071067811865475</speed>
  <fix>3d</fix>
</trkpt>
<trkpt lat="40.0713749" lon="-105.229789">
  <ele>1583.0</ele>
  <time>2026-08-28T17:52:58Z</time>
  <course>245.88</course>
  <speed>0.04</speed>
  <fix>3d</fix>
</trkpt>
<trkpt lat="40.0713749" lon="-105.2297892">
  <ele>1582.95</ele>
  <time>2026-08-28T17:52:58Z</time>
  <course>246.94</course>
  <speed>0.1019803902718557</speed>
  <fix>3d</fix>
</trkpt>
<trkpt lat="40.0713749" lon="-105.2297892">
  <ele>1583.0</ele>
  <time>2026-08-28T17:52:58Z</time>
  <course>245.55</course>
  <speed>0.09</speed>
  <fix>3d</fix>
</trkpt>
<trkpt lat="40.0713749" lon="-105.2297894">
  <ele>1582.96</ele>
  <time>2026-08-28T17:52:58Z</time>
  <course>246.57</course>
  <speed>0.13601470508735444</speed>
  <fix>3d</fix>
</trkpt>
<trkpt lat="40.0713749" lon="-105.2297892">
  <ele>1583.0</ele>
  <time>2026-08-28T17:52:58Z</time>
  <course>245.55</course>
  <speed>0.09</speed>
  <fix>3d</fix>
</trkpt>
<trkpt lat="40.0713748" lon="-105.2297896">
  <ele>1582.96</ele>
  <time>2026-08-28T17:52:58Z</time>
  <course>246.07</course>
  <speed>0.18027756377319945</speed>
  <fix>3d</fix>
</trkpt>
<trkpt lat="40.0713748" lon="-105.2297894">
  <ele>1583.0</ele>
  <time>2026-08-28T17:52:58Z</time>
  <course>244.87</course>
  <speed>0.15</speed>
  <fix>3d</fix>
</trkpt>
<trkpt lat="40.0713747" lon="-105.2297898">
  <ele>1582.96</ele>
  <time>2026-08-28T17:52:58Z</time>
  <course>245.4</course>
  <speed>0.21540659228538014</speed>
  <fix>3d</fix>
</trkpt>
<trkpt lat="40.0713748" lon="-105.2297894">
  <ele>1583.0</ele>
  <time>2026-08-28T17:52:58Z</time>
  <course>244.87</course>
  <speed>0.15</speed>
  <fix>3d</fix>
</trkpt>
<trkpt lat="40.0713746" lon="-105.2297901">
  <ele>1582.96</ele>
  <time>2026-08-28T17:52:58Z</time>
  <course>244.54</course>
  <speed>0.26</speed>
  <fix>3d</fix>
</trkpt>
<trkpt lat="40.0713747" lon="-105.2297898">
  <ele>1583.0</ele>
  <time>2026-08-28T17:52:58Z</time>
  <course>243.64</course>
  <speed>0.23</speed>
  <fix>3d</fix>
</trkpt>
<trkpt lat="40.0713745" lon="-105.2297904">
  <ele>1582.96</ele>
  <time>2026-08-28T17:52:58Z</time>
  <course>243.48</course>
  <speed>0.3087069808086626</speed>
  <fix>3d</fix>
</trkpt>
<trkpt lat="40.0713747" lon="-105.2297898">
  <ele>1583.0</ele>
  <time>2026-08-28T17:52:58Z</time>
  <course>243.64</course>
  <speed>0.23</speed>
  <fix>3d</fix>
</trkpt>
<trkpt lat="40.0713744" lon="-105.2297908">
  <ele>1582.96</ele>
  <time>2026-08-28T17:52:58Z</time>
  <course>242.16</course>
  <speed>0.35341194094144585</speed>
  <fix>3d</fix>
</trkpt>
<trkpt lat="40.0713745" lon="-105.2297904">
  <ele>1583.0</ele>
  <time>2026-08-28T17:52:58Z</time>
  <course>241.67</course>
  <speed>0.31</speed>
  <fix>3d</fix>
</trkpt>
<trkpt lat="40.0713742" lon="-105.2297912">
  <ele>1582.95</ele>
  <time>2026-08-28T17:52:58Z</time>
  <course>240.57</course>
  <speed>0.39824615503479754</speed>
  <fix>3d</fix>
</trkpt>
<trkpt lat="40.0713745" lon="-105.2297904">
  <ele>1583.0</ele>
  <time>2026-08-28T17:52:58Z</time>
  <course>241.67</course>
  <speed>0.31</speed>
  <fix>3d</fix>
</trkpt>
<trkpt lat="40.071374" lon="-105.2297917">
  <ele>1582.95</ele>
  <time>2026-08-28T17:52:58Z</time>
  <course>238.66</course>
  <speed>0.439089968002003</speed>
  <fix>3d</fix>
</trkpt>
<trkpt lat="40.0713741" lon="-105.2297911">
  <ele>1583.0</ele>
  <time>2026-08-28T17:52:58Z</time>
  <course>238.7</course>
  <speed>0.4</speed>
  <fix>3d</fix>
</trkpt>
<trkpt lat="40.0713737" lon="-105.2297921">
  <ele>1582.95</ele>
  <time>2026-08-28T17:52:58Z</time>
  <course>236.4</course>
  <speed>0.4909175083453431</speed>
  <fix>3d</fix>
</trkpt>
<trkpt lat="40.0713741" lon="-105.2297911">
  <ele>1583.0</ele>
  <time>2026-08-28T17:52:58Z</time>
  <course>238.7</course>
  <speed>0.4</speed>
  <fix>3d</fix>
</trkpt>
<trkpt lat="40.0713734" lon="-105.2297927">
  <ele>1582.96</ele>
  <time>2026-08-28T17:52:58Z</time>
  <course>233.75</course>
  <speed>0.5300943312279428</speed>
  <fix>3d</fix>
</trkpt>
<trkpt lat="40.0713741" lon="-105.2297911">
  <ele>1583.0</ele>
  <time>2026-08-28T17:52:58Z</time>
  <course>238.7</course>
  <speed>0.4</speed>
  <fix>3d</fix>
</trkpt>
<trkpt lat="40.0713731" lon="-105.2297932">
  <ele>1582.95</ele>
  <time>2026-08-28T17:52:58Z</time>
  <course>230.68</course>
  <speed>0.5762811813689563</speed>
  <fix>3d</fix>
</trkpt>
<trkpt lat="40.0713737" lon="-105.229792">
  <ele>1583.0</ele>
  <time>2026-08-28T17:52:58Z</time>
  <course>234.46</course>
  <speed>0.49</speed>
  <fix>3d</fix>
</trkpt>
<trkpt lat="40.0713727" lon="-105.2297937">
  <ele>1582.95</ele>
  <time>2026-08-28T17:52:58Z</time>
  <course>227.14</course>
  <speed>0.6155485358604957</speed>
  <fix>3d</fix>
</trkpt>
<trkpt lat="40.0713737" lon="-105.229792">
  <ele>1583.0</ele>
  <time>2026-08-28T17:52:58Z</time>
  <course>234.46</course>
  <speed>0.49</speed>
  <fix>3d</fix>
</trkpt>
<trkpt lat="40.0713723" lon="-105.2297942">
  <ele>1582.95</ele>
  <time>2026-08-28T17:52:58Z</time>
  <course>223.13</course>
  <speed>0.6511528238439882</speed>
  <fix>3d</fix>
</trkpt>
<trkpt lat="40.0713731" lon="-105.229793">
  <ele>1583.0</ele>
  <time>2026-08-28T17:52:58Z</time>
  <course>228.66</course>
  <speed>0.58</speed>
  <fix>3d</fix>
</trkpt>
<trkpt lat="40.0713718" lon="-105.2297947">
  <ele>1582.95</ele>
  <time>2026-08-28T17:52:58Z</time>
  <course>218.81</course>
  <speed>0.6902897942168927</speed>
  <fix>3d</fix>
</trkpt>
<trkpt lat="40.0713731" lon="-105.229793">
  <ele>1583.0</ele>
  <time>2026-08-28T17:52:58Z</time>
  <course>228.66</course>
  <speed>0.58</speed>
  <fix>3d</fix>
</trkpt>
<trkpt lat="40.0713713" lon="-105.2297952">
  <ele>1582.95</ele>
  <time>2026-08-28T17:52:58Z</time>
  <course>214.26</course>
  <speed>0.7294518489934754</speed>
  <fix>3d</fix>
</trkpt>
<trkpt lat="40.0713723" lon="-105.229794">
  <ele>1583.0</ele>
  <time>2026-08-28T17:52:58Z</time>
  <course>221.18</course>
  <speed>0.65</speed>
  <fix>3d</fix>
</trkpt>
<trkpt lat="40.0713707" lon="-105.2297956">
  <ele>1582.95</ele>
  <time>2026-08-28T17:52:58Z</time>
  <course>209.5</course>
  <speed>0.7605918747922567</speed>
  <fix>3d</fix>
</trkpt>
<trkpt lat="40.0713723" lon="-105.229794">
  <ele>1583.0</ele>
  <time>2026-08-28T17:52:58Z</time>
  <course>221.18</course>
  <speed>0.65</speed>
  <fix>3d</fix>
</trkpt>
<trkpt lat="40.0713701" lon="-105.229796">
  <ele>1582.95</ele>
  <time>2026-08-28T17:52:58Z</time>
  <course>204.51</course>
  <speed>0.7930952023559341</speed>
  <fix>3d</fix>
</trkpt>
<trkpt lat="40.0713713" lon="-105.229795">
  <ele>1583.0</ele>
  <time>2026-08-28T17:52:58Z</time>
  <course>212.38</course>
  <speed>0.72</speed>
  <fix>3d</fix>
</trkpt>
<trkpt lat="40.0713694" lon="-105.2297963">
  <ele>1582.96</ele>
  <time>2026-08-28T17:52:58Z</time>
  <course>199.37</course>
  <speed>0.8190848551890091</speed>
  <fix>3d</fix>
</trkpt>
<trkpt lat="40.0713701" lon="-105.2297959">
  <ele>1583.0</ele>
  <time>2026-08-28T17:52:58Z</time>
  <course>202.7</course>
  <speed>0.78</speed>
  <fix>3d</fix>
</trkpt>
<trkpt lat="40.0713686" lon="-105.2297965">
  <ele>1582.96</ele>
  <time>2026-08-28T17:52:58Z</time>
  <course>194.06</course>
  <speed>0.8374365647617735</speed>
  <fix>3d</fix>
</trkpt>
<trkpt lat="40.0713701" lon="-105.2297959">
  <ele>1583.0</ele>
  <time>2026-08-28T17:52:58Z</time>
  <course>202.7</course>
  <speed>0.78</speed>
  <fix>3d</fix>
</trkpt>
<trkpt lat="40.0713678" lon="-105.2297967">
  <ele>1582.97</ele>
  <time>2026-08-28T17:52:58Z</time>
  <course>188.66</course>
  <speed>0.8657944328765345</speed>
  <fix>3d</fix>
</trkpt>
<trkpt lat="40.0713687" lon="-105.2297964">
  <ele>1583.0</ele>
  <time>2026-08-28T17:52:58Z</time>
  <course>192.31</course>
  <speed>0.84</speed>
  <fix>3d</fix>
</trkpt>
<trkpt lat="40.071367" lon="-105.2297967">
  <ele>1582.97</ele>
  <time>2026-08-28T17:52:58Z</time>
  <course>183.09</course>
  <speed>0.8900561780022652</speed>
  <fix>3d</fix>
</trkpt>
<trkpt lat="40.0713687" lon="-105.2297964">
  <ele>1583.0</ele>
  <time>2026-08-28T17:52:58Z</time>
  <course>192.31</course>
  <speed>0.84</speed>
  <fix>3d</fix>
</trkpt>
<trkpt lat="40.0713662" lon="-105.2297967">
  <ele>1582.98</ele>
  <time>2026-08-28T17:52:58Z</time>
  <course>177.4</course>
  <speed>0.9135097153287424</speed>
  <fix>3d</fix>
</trkpt>
<trkpt lat="40.0713672" lon="-105.2297967">
  <ele>1583.0</ele>
  <time>2026-08-28T17:52:58Z</time>
  <course>181.33</course>
  <speed>0.88</speed>
  <fix>3d</fix>
</trkpt>
<trkpt lat="40.0713654" lon="-105.2297965">
  <ele>1582.98</ele>
  <time>2026-08-28T17:52:58Z</time>
  <course>171.56</course>
  <speed>0.9472592042308166</speed>
  <fix>3d</fix>
</trkpt>
<trkpt lat="40.0713672" lon="-105.2297967">
  <ele>1583.0</ele>
  <time>2026-08-28T17:52:58Z</time>
  <course>181.33</course>
  <speed>0.88</speed>
  <fix>3d</fix>
</trkpt>
<trkpt lat="40.0713645" lon="-105.2297963">
  <ele>1582.98</ele>
  <time>2026-08-28T17:52:58Z</time>
  <course>165.44</course>
  <speed>0.9837174391053561</speed>
  <fix>3d</fix>
</trkpt>
<trkpt lat="40.0713655" lon="-105.2297964">
  <ele>1583.0</ele>
  <time>2026-08-28T17:52:58Z</time>
  <course>169.63</course>
  <speed>0.93</speed>
  <fix>3d</fix>
</trkpt>
<trkpt lat="40.0713636" lon="-105.2297958">
  <ele>1582.98</ele>
  <time>2026-08-28T17:52:58Z</time>
  <course>159.06</course>
  <speed>1.047854951794379</speed>
  <fix>3d</fix>
</trkpt>
<trkpt lat="40.0713655" lon="-105.2297964">
  <ele>1583.0</ele>
  <time>2026-08-28T17:52:58Z</time>
  <course>169.63</course>
  <speed>0.93</speed>
  <fix>3d</fix>
</trkpt>
<trkpt lat="40.0713628" lon="-105.2297952">
  <ele>1582.98</ele>
  <time>2026-08-28T17:52:58Z</time>
  <course>152.33</course>
  <speed>1.1113955191559843</speed>
  <fix>3d</fix>
</trkpt>
<trkpt lat="40.0713638" lon="-105.2297959">
  <ele>1583.0</ele>
  <time>2026-08-28T17:52:58Z</time>
  <course>156.97</course>
  <speed>1.02</speed>
  <fix>3d</fix>
</trkpt>
<trkpt lat="40.0713619" lon="-105.2297944">
  <ele>1582.98</ele>
  <time>2026-08-28T17:52:58Z</time>
  <course>145.17</course>
  <speed>1.1901680553602503</speed>
  <fix>3d</fix>
</trkpt>
<trkpt lat="40.0713638" lon="-105.2297959">
  <ele>1583.0</ele>
  <time>2026-08-28T17:52:58Z</time>
  <course>156.97</course>
  <speed>1.02</speed>
  <fix>3d</fix>
</trkpt>
<trkpt lat="40.071361" lon="-105.2297935">
  <ele>1582.98</ele>
  <time>2026-08-28T17:52:58Z</time>
  <course>138.32</course>
  <speed>1.2728707711311467</speed>
  <fix>3d</fix>
</trkpt>
<trkpt lat="40.0713621" lon="-105.2297946">
  <ele>1583.0</ele>
  <time>2026-08-28T17:52:58Z</time>
  <course>143.32</course>
  <speed>1.15</speed>
  <fix>3d</fix>
</trkpt>
<trkpt lat="40.0713602" lon="-105.2297923">
  <ele>1582.98</ele>
  <time>2026-08-28T17:52:58Z</time>
  <course>132.2</course>
  <speed>1.3713132391981053</speed>
  <fix>3d</fix>
</trkpt>
<trkpt lat="40.0713621" lon="-105.2297946">
  <ele>1583.0</ele>
  <time>2026-08-28T17:52:58Z</time>
  <course>143.32</course>
  <speed>1.15</speed>
  <fix>3d</fix>
</trkpt>
<trkpt lat="40.0713595" lon="-105.2297909">
  <ele>1582.98</ele>
  <time>2026-08-28T17:52:58Z</time>
  <course>126.7</course>
  <speed>1.4616771189288007</speed>
  <fix>3d</fix>
</trkpt>
<trkpt lat="40.0713606" lon="-105.2297926">
  <ele>1583.0</ele>
  <time>2026-08-28T17:52:58Z</time>
  <course>130.57</course>
  <speed>1.32</speed>
  <fix>3d</fix>
</trkpt>
<trkpt lat="40.0713588" lon="-105.2297894">
  <ele>1582.98</ele>
  <time>2026-08-28T17:52:58Z</time>
  <course>121.58</course>
  <speed>1.5530936868070773</speed>
  <fix>3d</fix>
</trkpt>
<trkpt lat="40.0713606" lon="-105.2297926">
  <ele>1583.0</ele>
  <time>2026-08-28T17:52:58Z</time>
  <course>130.57</course>
  <speed>1.32</speed>
  <fix>3d</fix>
</trkpt>
<trkpt lat="40.0713581" lon="-105.2297877">
  <ele>1582.98</ele>
  <time>2026-08-28T17:52:58Z</time>
  <course>116.82</course>
  <speed>1.6337074401495513</speed>
  <fix>3d</fix>
</trkpt>
<trkpt lat="40.0713606" lon="-105.2297926">
  <ele>1583.0</ele>
  <time>2026-08-28T17:52:58Z</time>
  <course>130.57</course>
  <speed>1.32</speed>
  <fix>3d</fix>
</trkpt>
<trkpt lat="40.0713576" lon="-105.2297859">
  <ele>1582.98</ele>
  <time>2026-08-28T17:52:58Z</time>
  <course>112.41</course>
  <speed>1.711286066091815</speed>
  <fix>3d</fix>
</trkpt>
<trkpt lat="40.0713591" lon="-105.22979">
  <ele>1583.0</ele>
  <time>2026-08-28T17:52:58Z</time>
  <course>119.93</course>
  <speed>1.49</speed>
  <fix>3d</fix>
</trkpt>
<trkpt lat="40.0713571" lon="-105.2297839">
  <ele>1582.98</ele>
  <time>2026-08-28T17:52:58Z</time>
  <course>108.45</course>
  <speed>1.7857211428439772</speed>
  <fix>3d</fix>
</trkpt>
<trkpt lat="40.0713591" lon="-105.22979">
  <ele>1583.0</ele>
  <time>2026-08-28T17:52:58Z</time>
  <course>119.93</course>
  <speed>1.49</speed>
  <fix>3d</fix>
</trkpt>
<trkpt lat="40.0713568" lon="-105.2297819">
  <ele>1582.98</ele>
  <time>2026-08-28T17:52:58Z</time>
  <course>105.07</course>
  <speed>1.8634376834227646</speed>
  <fix>3d</fix>
</trkpt>
<trkpt lat="40.0713579" lon="-105.2297866">
  <ele>1583.0</ele>
  <time>2026-08-28T17:52:58Z</time>
  <course>110.87</course>
  <speed>1.64</speed>
  <fix>3d</fix>
</trkpt>
<trkpt lat="40.0713565" lon="-105.2297797">
  <ele>1582.98</ele>
  <time>2026-08-28T17:52:58Z</time>
  <course>102.2</course>
  <speed>1.9563486396856775</speed>
  <fix>3d</fix>
</trkpt>
<trkpt lat="40.0713579" lon="-105.2297866">
  <ele>1583.0</ele>
  <time>2026-08-28T17:52:58Z</time>
  <course>110.87</course>
  <speed>1.64</speed>
  <fix>3d</fix>
</trkpt>
<trkpt lat="40.0713562" lon="-105.2297775">
  <ele>1582.98</ele>
  <time>2026-08-28T17:52:58Z</time>
  <course>99.76</course>
  <speed>2.0465825172711702</speed>
  <fix>3d</fix>
</trkpt>
<trkpt lat="40.071357" lon="-105.2297827">
  <ele>1583.0</ele>
  <time>2026-08-28T17:52:58Z</time>
  <course>103.61</course>
  <speed>1.8</speed>
  <fix>3d</fix>
</trkpt>
<trkpt lat="40.071356" lon="-105.229775">
  <ele>1582.98</ele>
  <time>2026-08-28T17:52:58Z</time>
  <course>97.68</course>
  <speed>2.138457387931777</speed>
  <fix>3d</fix>
</trkpt>
<trkpt lat="40.0713564" lon="-105.2297783">
  <ele>1583.0</ele>
  <time>2026-08-28T17:52:58Z</time>
  <course>98.29</course>
  <speed>1.98</speed>
  <fix>3d</fix>
</trkpt>
<trkpt lat="40.0713559" lon="-105.2297725">
  <ele>1582.98</ele>
  <time>2026-08-28T17:52:58Z</time>
  <course>95.93</course>
  <speed>2.2337860237721965</speed>
  <fix>3d</fix>
</trkpt>
<trkpt lat="40.0713564" lon="-105.2297783">
  <ele>1583.0</ele>
  <time>2026-08-28T17:52:58Z</time>
  <course>98.29</course>
  <speed>1.98</speed>
  <fix>3d</fix>
</trkpt>
<trkpt lat="40.0713558" lon="-105.2297699">
  <ele>1582.98</ele>
  <time>2026-08-28T17:52:58Z</time>
  <course>94.44</course>
  <speed>2.3413671220037235</speed>
  <fix>3d</fix>
</trkpt>
<trkpt lat="40.0713559" lon="-105.2297735">
  <ele>1583.0</ele>
  <time>2026-08-28T17:52:58Z</time>
  <course>94.46</course>
  <speed>2.17</speed>
  <fix>3d</fix>
</trkpt>
<trkpt lat="40.0713558" lon="-105.2297671">
  <ele>1582.98</ele>
  <time>2026-08-28T17:52:58Z</time>
  <course>93.2</course>
  <speed>2.440184419260151</speed>
  <fix>3d</fix>
</trkpt>
<trkpt lat="40.0713559" lon="-105.2297735">
  <ele>1583.0</ele>
  <time>2026-08-28T17:52:58Z</time>
  <course>94.46</course>
  <speed>2.17</speed>
  <fix>3d</fix>
</trkpt>
<trkpt lat="40.0713558" lon="-105.2297642">
  <ele>1582.98</ele>
  <time>2026-08-28T17:52:58Z</time>
  <course>92.09</course>
  <speed>2.550019607767752</speed>
  <fix>3d</fix>
</trkpt>
<trkpt lat="40.0713557" lon="-105.2297682">
  <ele>1583.0</ele>
  <time>2026-08-28T17:52:58Z</time>
  <course>91.69</course>
  <speed>2.38</speed>
  <fix>3d</fix>
</trkpt>
<trkpt lat="40.0713558" lon="-105.2297611">
  <ele>1582.99</ele>
  <time>2026-08-28T17:52:58Z</time>
  <course>91.02</course>
  <speed>2.6604698833100895</speed>
  <fix>3d</fix>
</trkpt>
<trkpt lat="40.0713557" lon="-105.2297682">
  <ele>1583.0</ele>
  <time>2026-08-28T17:52:58Z</time>
  <course>91.69</course>
  <speed>2.38</speed>
  <fix>3d</fix>
</trkpt>
<trkpt lat="40.0713558" lon="-105.229758">
  <ele>1582.99</ele>
  <time>2026-08-28T17:52:58Z</time>
  <course>89.97</course>
  <speed>2.7721832551258223</speed>
  <fix>3d</fix>
</trkpt>
<trkpt lat="40.0713557" lon="-105.2297624">
  <ele>1583.0</ele>
  <time>2026-08-28T17:52:58Z</time>
  <course>89.45</course>
  <speed>2.59</speed>
  <fix>3d</fix>
</trkpt>
<trkpt lat="40.0713559" lon="-105.2297546">
  <ele>1582.99</ele>
  <time>2026-08-28T17:52:58Z</time>
  <course>88.92</course>
  <speed>2.884441020371191</speed>
  <fix>3d</fix>
</trkpt>
<trkpt lat="40.0713557" lon="-105.2297624">
  <ele>1583.0</ele>
  <time>2026-08-28T17:52:58Z</time>
  <course>89.45</course>
  <speed>2.59</speed>
  <fix>3d</fix>
</trkpt>
<trkpt lat="40.0713561" lon="-105.2297512">
  <ele>1582.99</ele>
  <time>2026-08-28T17:52:58Z</time>
  <course>87.87</course>
  <speed>2.988109770406703</speed>
  <fix>3d</fix>
</trkpt>
<trkpt lat="40.0713558" lon="-105.2297561">
  <ele>1583.0</ele>
  <time>2026-08-28T17:52:58Z</time>
  <course>87.35</course>
  <speed>2.81</speed>
  <fix>3d</fix>
</trkpt>
<trkpt lat="40.0713563" lon="-105.2297477">
  <ele>1583.0</ele>
  <time>2026-08-28T17:52:58Z</time>
  <course>86.82</course>
  <speed>3.1026601489689454</speed>
  <fix>3d</fix>
</trkpt>
<trkpt lat="40.0713558" lon="-105.2297561">
  <ele>1583.0</ele>
  <time>2026-08-28T17:52:58Z</time>
  <course>87.35</course>
  <speed>2.81</speed>
  <fix>3d</fix>
</trkpt>
<trkpt lat="40.0713566" lon="-105.229744">
  <ele>1583.0</ele>
  <time>2026-08-28T17:52:58Z</time>
  <course>85.73</course>
  <speed>3.2190837205639746</speed>
  <fix>3d</fix>
</trkpt>
<trkpt lat="40.0713561" lon="-105.2297492">
  <ele>1583.0</ele>
  <time>2026-08-28T17:52:58Z</time>
  <course>85.23</course>
  <speed>3.03</speed>
  <fix>3d</fix>
</trkpt>
<trkpt lat="40.0713569" lon="-105.2297402">
  <ele>1583.0</ele>
  <time>2026-08-28T17:52:58Z</time>
  <course>84.64</course>
  <speed>3.3278972339902566</speed>
  <fix>3d</fix>
</trkpt>
<trkpt lat="40.0713561" lon="-105.2297492">
  <ele>1583.0</ele>
  <time>2026-08-28T17:52:58Z</time>
  <course>85.23</course>
  <speed>3.03</speed>
  <fix>3d</fix>
</trkpt>
<trkpt lat="40.0713573" lon="-105.2297363">
  <ele>1583.0</ele>
  <time>2026-08-28T17:52:58Z</time>
  <course>83.51</course>
  <speed>3.4380372307466365</speed>
  <fix>3d</fix>
</trkpt>
<trkpt lat="40.0713566" lon="-105.2297418">
  <ele>1583.0</ele>
  <time>2026-08-28T17:52:58Z</time>
  <course>83.06</course>
  <speed>3.25</speed>
  <fix>3d</fix>
</trkpt>
<trkpt lat="40.0713578" lon="-105.2297323">
  <ele>1583.0</ele>
  <time>2026-08-28T17:52:58Z</time>
  <course>82.32</course>
  <speed>3.5493802275890363</speed>
  <fix>3d</fix>
</trkpt>
<trkpt lat="40.0713566" lon="-105.2297418">
  <ele>1583.0</ele>
  <time>2026-08-28T17:52:58Z</time>
  <course>83.06</course>
  <speed>3.25</speed>
  <fix>3d</fix>
</trkpt>
<trkpt lat="40.0713584" lon="-105.2297281">
  <ele>1583.0</ele>
  <time>2026-08-28T17:52:58Z</time>
  <course>81.07</course>
  <speed>3.655707865790154</speed>
  <fix>3d</fix>
</trkpt>
<trkpt lat="40.0713566" lon="-105.2297418">
  <ele>1583.0</ele>
  <time>2026-08-28T17:52:58Z</time>
  <course>83.06</course>
  <speed>3.25</speed>
  <fix>3d</fix>
</trkpt>
<trkpt lat="40.071359" lon="-105.2297239">
  <ele>1583.01</ele>
  <time>2026-08-28T17:52:58Z</time>
  <course>79.78</course>
  <speed>3.763841123108147</speed>
  <fix>3d</fix>
</trkpt>
<trkpt lat="40.0713575" lon="-105.229734">
  <ele>1583.0</ele>
  <time>2026-08-28T17:52:58Z</time>
  <course>80.72</course>
  <speed>3.48</speed>
  <fix>3d</fix>
</trkpt>
<trkpt lat="40.0713597" lon="-105.2297196">
  <ele>1583.01</ele>
  <time>2026-08-28T17:52:58Z</time>
  <course>78.46</course>
  <speed>3.8541665765765756</speed>
  <fix>3d</fix>
</trkpt>
<trkpt lat="40.0713575" lon="-105.229734">
  <ele>1583.0</ele>
  <time>2026-08-28T17:52:58Z</time>
  <course>80.72</course>
  <speed>3.48</speed>
  <fix>3d</fix>
</trkpt>
<trkpt lat="40.0713606" lon="-105.2297153">
  <ele>1583.0</ele>
  <time>2026-08-28T17:52:58Z</time>
  <course>77.07</course>
  <speed>3.9390481083632376</speed>
  <fix>3d</fix>
</trkpt>
<trkpt lat="40.0713587" lon="-105.2297257">
  <ele>1583.0</ele>
  <time>2026-08-28T17:52:58Z</time>
  <course>78.19</course>
  <speed>3.69</speed>
  <fix>3d</fix>
</trkpt>
<trkpt lat="40.0713615" lon="-105.2297109">
  <ele>1583.01</ele>
  <time>2026-08-28T17:52:58Z</time>
  <course>75.74</course>
  <speed>4.00681918733551</speed>
  <fix>3d</fix>
</trkpt>
<trkpt lat="40.0713587" lon="-105.2297257">
  <ele>1583.0</ele>
  <time>2026-08-28T17:52:58Z</time>
  <course>78.19</course>
  <speed>3.69</speed>
  <fix>3d</fix>
</trkpt>
<trkpt lat="40.0713625" lon="-105.2297064">
  <ele>1583.01</ele>
  <time>2026-08-28T17:52:58Z</time>
  <course>74.5</course>
  <speed>4.064295756954703</speed>
  <fix>3d</fix>
</trkpt>
<trkpt lat="40.0713602" lon="-105.229717">
  <ele>1583.0</ele>
  <time>2026-08-28T17:52:58Z</time>
  <course>75.53</course>
  <speed>3.87</speed>
  <fix>3d</fix>
</trkpt>
<trkpt lat="40.0713636" lon="-105.2297019">
  <ele>1583.01</ele>
  <time>2026-08-28T17:52:58Z</time>
  <course>73.41</course>
  <speed>4.120449004659565</speed>
  <fix>3d</fix>
</trkpt>
<trkpt lat="40.0713602" lon="-105.229717">
  <ele>1583.0</ele>
  <time>2026-08-28T17:52:58Z</time>
  <course>75.53</course>
  <speed>3.87</speed>
  <fix>3d</fix>
</trkpt>
<trkpt lat="40.0713648" lon="-105.2296974">
  <ele>1583.01</ele>
  <time>2026-08-28T17:52:58Z</time>
  <course>72.44</course>
  <speed>4.174685616905781</speed>
  <fix>3d</fix>
</trkpt>
<trkpt lat="40.0713622" lon="-105.2297081">
  <ele>1583.0</ele>
  <time>2026-08-28T17:52:58Z</time>
  <course>73.03</course>
  <speed>4.01</speed>
  <fix>3d</fix>
</trkpt>
<trkpt lat="40.0713661" lon="-105.2296928">
  <ele>1583.01</ele>
  <time>2026-08-28T17:52:58Z</time>
  <course>71.61</course>
  <speed>4.229952718411874</speed>
  <fix>3d</fix>
</trkpt>
<trkpt lat="40.0713645" lon="-105.229699">
  <ele>1583.0</ele>
  <time>2026-08-28T17:52:58Z</time>
  <course>70.98</course>
  <speed>4.13</speed>
  <fix>3d</fix>
</trkpt>
<trkpt lat="40.0713674" lon="-105.2296882">
  <ele>1583.01</ele>
  <time>2026-08-28T17:52:58Z</time>
  <course>70.94</course>
  <speed>4.279065318501226</speed>
  <fix>3d</fix>
</trkpt>
<trkpt lat="40.0713645" lon="-105.229699">
  <ele>1583.0</ele>
  <time>2026-08-28T17:52:58Z</time>
  <course>70.98</course>
  <speed>4.13</speed>
  <fix>3d</fix>
</trkpt>
<trkpt lat="40.0713688" lon="-105.2296836">
  <ele>1583.01</ele>
  <time>2026-08-28T17:52:58Z</time>
  <course>70.37</course>
  <speed>4.328660300832118</speed>
  <fix>3d</fix>
</trkpt>
<trkpt lat="40.071367" lon="-105.2296897">
  <ele>1583.0</ele>
  <time>2026-08-28T17:52:58Z</time>
  <course>69.47</course>
  <speed>4.24</speed>
  <fix>3d</fix>
</trkpt>
<trkpt lat="40.0713703" lon="-105.2296788">
  <ele>1583.01</ele>
  <time>2026-08-28T17:52:58Z</time>
  <course>69.73</course>
  <speed>4.391742251088968</speed>
  <fix>3d</fix>
</trkpt>
<trkpt lat="40.071367" lon="-105.2296897">
  <ele>1583.0</ele>
  <time>2026-08-28T17:52:58Z</time>
  <course>69.47</course>
  <speed>4.24</speed>
  <fix>3d</fix>
</trkpt>
<trkpt lat="40.0713718" lon="-105.229674">
  <ele>1583.01</ele>
  <time>2026-08-28T17:52:58Z</time>
  <course>69.01</course>
  <speed>4.446166888455718</speed>
  <fix>3d</fix>
</trkpt>
<trkpt lat="40.0713698" lon="-105.2296803">
  <ele>1583.0</ele>
  <time>2026-08-28T17:52:58Z</time>
  <course>68.18</course>
  <speed>4.36</speed>
  <fix>3d</fix>
</trkpt>
<trkpt lat="40.0713734" lon="-105.2296692">
  <ele>1583.01</ele>
  <time>2026-08-28T17:52:58Z</time>
  <course>68.38</course>
  <speed>4.510399095423819</speed>
  <fix>3d</fix>
</trkpt>
<trkpt lat="40.0713698" lon="-105.2296803">
  <ele>1583.0</ele>
  <time>2026-08-28T17:52:58Z</time>
  <course>68.18</course>
  <speed>4.36</speed>
  <fix>3d</fix>
</trkpt>
<trkpt lat="40.071375" lon="-105.2296642">
  <ele>1583.01</ele>
  <time>2026-08-28T17:52:58Z</time>
  <course>67.81</course>
  <speed>4.566015768698133</speed>
  <fix>3d</fix>
</trkpt>
<trkpt lat="40.0713728" lon="-105.2296707">
  <ele>1583.0</ele>
  <time>2026-08-28T17:52:58Z</time>
  <course>66.91</course>
  <speed>4.48</speed>
  <fix>3d</fix>
</trkpt>
<trkpt lat="40.0713767" lon="-105.2296593">
  <ele>1583.01</ele>
  <time>2026-08-28T17:52:58Z</time>
  <course>67.33</course>
  <speed>4.636248483418463</speed>
  <fix>3d</fix>
</trkpt>
<trkpt lat="40.0713728" lon="-105.2296707">
  <ele>1583.0</ele>
  <time>2026-08-28T17:52:58Z</time>
  <course>66.91</course>
  <speed>4.48</speed>
  <fix>3d</fix>
</trkpt>
<trkpt lat="40.0713785" lon="-105.2296543">
  <ele>1583.01</ele>
  <time>2026-08-28T17:52:58Z</time>
  <course>66.89</course>
  <speed>4.697658991455212</speed>
  <fix>3d</fix>
</trkpt>
<trkpt lat="40.071376" lon="-105.2296609">
  <ele>1583.0</ele>
  <time>2026-08-28T17:52:58Z</time>
  <course>65.86</course>
  <speed>4.6</speed>
  <fix>3d</fix>
</trkpt>
<trkpt lat="40.0713803" lon="-105.2296492">
  <ele>1583.01</ele>
  <time>2026-08-28T17:52:58Z</time>
  <course>66.51</course>
  <speed>4.755092007522041</speed>
  <fix>3d</fix>
</trkpt>
<trkpt lat="40.071376" lon="-105.2296609">
  <ele>1583.0</ele>
  <time>2026-08-28T17:52:58Z</time>
  <course>65.86</course>
  <speed>4.6</speed>
  <fix>3d</fix>
</trkpt>
<trkpt lat="40.0713821" lon="-105.2296441">
  <ele>1583.01</ele>
  <time>2026-08-28T17:52:58Z</time>
  <course>66.17</course>
  <speed>4.81269155462928</speed>
  <fix>3d</fix>
</trkpt>
<trkpt lat="40.0713796" lon="-105.229651">
  <ele>1583.0</ele>
  <time>2026-08-28T17:52:58Z</time>
  <course>65.05</course>
  <speed>4.73</speed>
  <fix>3d</fix>
</trkpt>
<trkpt lat="40.071384" lon="-105.229639">
  <ele>1583.01</ele>
  <time>2026-08-28T17:52:58Z</time>
  <course>65.86</course>
  <speed>4.8704517244296754</speed>
  <fix>3d</fix>
</trkpt>
<trkpt lat="40.0713796" lon="-105.229651">
  <ele>1583.0</ele>
  <time>2026-08-28T17:52:58Z</time>
  <course>65.05</course>
  <speed>4.73</speed>
  <fix>3d</fix>
</trkpt>
<trkpt lat="40.0713859" lon="-105.2296338">
  <ele>1583.01</ele>
  <time>2026-08-28T17:52:58Z</time>
  <course>65.6</course>
  <speed>4.9239516650755215</speed>
  <fix>3d</fix>
</trkpt>
<trkpt lat="40.0713833" lon="-105.2296408">
  <ele>1583.0</ele>
  <time>2026-08-28T17:52:58Z</time>
  <course>64.41</course>
  <speed>4.84</speed>
  <fix>3d</fix>
</trkpt>
<trkpt lat="40.0713879" lon="-105.2296286">
  <ele>1583.01</ele>
  <time>2026-08-28T17:52:58Z</time>
  <course>65.43</course>
  <speed>4.977519462543567</speed>
  <fix>3d</fix>
</trkpt>
<trkpt lat="40.0713833" lon="-105.2296408">
  <ele>1583.0</ele>
  <time>2026-08-28T17:52:58Z</time>
  <course>64.41</course>
  <speed>4.84</speed>
  <fix>3d</fix>
</trkpt>
<trkpt lat="40.0713899" lon="-105.2296233">
  <ele>1583.01</ele>
  <time>2026-08-28T17:52:58Z</time>
  <course>65.29</course>
  <speed>5.01328235789687</speed>
  <fix>3d</fix>
</trkpt>
<trkpt lat="40.0713833" lon="-105.2296408">
  <ele>1583.0</ele>
  <time>2026-08-28T17:52:58Z</time>
  <course>64.41</course>
  <speed>4.84</speed>
  <fix>3d</fix>
</trkpt>
<trkpt lat="40.0713919" lon="-105.229618">
  <ele>1583.02</ele>
  <time>2026-08-28T17:52:58Z</time>
  <course>65.15</course>
  <speed>5.053513629149524</speed>
  <fix>3d</fix>
</trkpt>
<trkpt lat="40.0713871" lon="-105.2296304">
  <ele>1583.0</ele>
  <time>2026-08-28T17:52:59Z</time>
  <course>63.98</course>
  <speed>4.95</speed>
  <fix>3d</fix>
</trkpt>
<trkpt lat="40.0713939" lon="-105.2296128">
  <ele>1583.02</ele>
  <time>2026-08-28T17:52:59Z</time>
  <course>65.01</course>
  <speed>5.084850046953204</speed>
  <fix>3d</fix>
</trkpt>
<trkpt lat="40.0713871" lon="-105.2296304">
  <ele>1583.0</ele>
  <time>2026-08-28T17:52:59Z</time>
  <course>63.98</course>
  <speed>4.95</speed>
  <fix>3d</fix>
</trkpt>
<trkpt lat="40.0713959" lon="-105.2296075">
  <ele>1583.02</ele>
  <time>2026-08-28T17:52:59Z</time>
  <course>64.93</course>
  <speed>5.116141123933154</speed>
  <fix>3d</fix>
</trkpt>
<trkpt lat="40.0713911" lon="-105.2296198">
  <ele>1583.0</ele>
  <time>2026-08-28T17:52:59Z</time>
  <course>63.69</course>
  <speed>5.03</speed>
  <fix>3d</fix>
</trkpt>
<trkpt lat="40.071398" lon="-105.2296021">
  <ele>1583.02</ele>
  <time>2026-08-28T17:52:59Z</time>
  <course>64.86</course>
  <speed>5.134082196459266</speed>
  <fix>3d</fix>
</trkpt>
<trkpt lat="40.0713911" lon="-105.2296198">
  <ele>1583.0</ele>
  <time>2026-08-28T17:52:59Z</time>
  <course>63.69</course>
  <speed>5.03</speed>
  <fix>3d</fix>
</trkpt>
<trkpt lat="40.0714" lon="-105.2295968">
  <ele>1583.02</ele>
  <time>2026-08-28T17:52:59Z</time>
  <course>64.78</course>
  <speed>5.156442572161548</speed>
  <fix>3d</fix>
</trkpt>
<trkpt lat="40.0713951" lon="-105.2296092">
  <ele>1583.0</ele>
  <time>2026-08-28T17:52:59Z</time>
  <course>63.49</course>
  <speed>5.1</speed>
  <fix>3d</fix>
</trkpt>
<trkpt lat="40.0714021" lon="-105.2295914">
  <ele>1583.02</ele>
  <time>2026-08-28T17:52:59Z</time>
  <course>64.71</course>
  <speed>5.169883944538794</speed>
  <fix>3d</fix>
</trkpt>
<trkpt lat="40.0713992" lon="-105.2295985">
  <ele>1583.0</ele>
  <time>2026-08-28T17:52:59Z</time>
  <course>63.35</course>
  <speed>5.16</speed>
  <fix>3d</fix>
</trkpt>
<trkpt lat="40.0714042" lon="-105.229586">
  <ele>1583.02</ele>
  <time>2026-08-28T17:52:59Z</time>
  <course>64.63</course>
  <speed>5.187870468699078</speed>
  <fix>3d</fix>
</trkpt>
<trkpt lat="40.0713992" lon="-105.2295985">
  <ele>1583.0</ele>
  <time>2026-08-28T17:52:59Z</time>
  <course>63.35</course>
  <speed>5.16</speed>
  <fix>3d</fix>
</trkpt>
<trkpt lat="40.0714063" lon="-105.2295805">
  <ele>1583.02</ele>
  <time>2026-08-28T17:52:59Z</time>
  <course>64.56</course>
  <speed>5.187870468699078</speed>
  <fix>3d</fix>
</trkpt>
<trkpt lat="40.0714035" lon="-105.2295876">
  <ele>1583.0</ele>
  <time>2026-08-28T17:52:59Z</time>
  <course>63.21</course>
  <speed>5.19</speed>
  <fix>3d</fix>
</trkpt>
<trkpt lat="40.0714084" lon="-105.2295751">
  <ele>1583.02</ele>
  <time>2026-08-28T17:52:59Z</time>
  <course>64.41</course>
  <speed>5.196999134115764</speed>
  <fix>3d</fix>
</trkpt>
<trkpt lat="40.0714035" lon="-105.2295876">
  <ele>1583.0</ele>
  <time>2026-08-28T17:52:59Z</time>
  <course>63.21</course>
  <speed>5.19</speed>
  <fix>3d</fix>
</trkpt>
<trkpt lat="40.0714105" lon="-105.2295697">
  <ele>1583.03</ele>
  <time>2026-08-28T17:52:59Z</time>
  <course>64.16</course>
  <speed>5.197316615331415</speed>
  <fix>3d</fix>
</trkpt>
<trkpt lat="40.0714076" lon="-105.2295767">
  <ele>1583.0</ele>
  <time>2026-08-28T17:52:59Z</time>
  <course>62.95</course>
  <speed>5.21</speed>
  <fix>3d</fix>
</trkpt>
<trkpt lat="40.0714127" lon="-105.2295642">
  <ele>1583.03</ele>
  <time>2026-08-28T17:52:59Z</time>
  <course>63.82</course>
  <speed>5.188882345939248</speed>
  <fix>3d</fix>
</trkpt>
<trkpt lat="40.0714076" lon="-105.2295767">
  <ele>1583.0</ele>
  <time>2026-08-28T17:52:59Z</time>
  <course>62.95</course>
  <speed>5.21</speed>
  <fix>3d</fix>
</trkpt>
<trkpt lat="40.0714149" lon="-105.2295588">
  <ele>1583.03</ele>
  <time>2026-08-28T17:52:59Z</time>
  <course>63.43</course>
  <speed>5.18530616260988</speed>
  <fix>3d</fix>
</trkpt>
<trkpt lat="40.0714119" lon="-105.2295658">
  <ele>1583.0</ele>
  <time>2026-08-28T17:52:59Z</time>
  <course>62.4</course>
  <speed>5.21</speed>
  <fix>3d</fix>
</trkpt>
<trkpt lat="40.0714171" lon="-105.2295534">
  <ele>1583.03</ele>
  <time>2026-08-28T17:52:59Z</time>
  <course>63.07</course>
  <speed>5.177200015452367</speed>
  <fix>3d</fix>
</trkpt>
<trkpt lat="40.0714119" lon="-105.2295658">
  <ele>1583.0</ele>
  <time>2026-08-28T17:52:59Z</time>
  <course>62.4</course>
  <speed>5.21</speed>
  <fix>3d</fix>
</trkpt>
<trkpt lat="40.0714193" lon="-105.229548">
  <ele>1583.03</ele>
  <time>2026-08-28T17:52:59Z</time>
  <course>62.78</course>
  <speed>5.160474784358509</speed>
  <fix>3d</fix>
</trkpt>
<trkpt lat="40.0714164" lon="-105.229555">
  <ele>1583.0</ele>
  <time>2026-08-28T17:52:59Z</time>
  <course>61.72</course>
  <speed>5.19</speed>
  <fix>3d</fix>
</trkpt>
<trkpt lat="40.0714216" lon="-105.2295426">
  <ele>1583.03</ele>
  <time>2026-08-28T17:52:59Z</time>
  <course>62.5</course>
  <speed>5.1526789148946595</speed>
  <fix>3d</fix>
</trkpt>
<trkpt lat="40.0714164" lon="-105.229555">
  <ele>1583.0</ele>
  <time>2026-08-28T17:52:59Z</time>
  <course>61.72</course>
  <speed>5.19</speed>
  <fix>3d</fix>
</trkpt>
<trkpt lat="40.0714239" lon="-105.2295373">
  <ele>1583.03</ele>
  <time>2026-08-28T17:52:59Z</time>
  <course>62.24</course>
  <speed>5.131403316832541</speed>
  <fix>3d</fix>
</trkpt>
<trkpt lat="40.0714208" lon="-105.2295444">
  <ele>1583.0</ele>
  <time>2026-08-28T17:52:59Z</time>
  <course>61.14</course>
  <speed>5.17</speed>
  <fix>3d</fix>
</trkpt>
<trkpt lat="40.0714261" lon="-105.2295321">
  <ele>1583.03</ele>
  <time>2026-08-28T17:52:59Z</time>
  <course>62.03</course>
  <speed>5.118925668536319</speed>
  <fix>3d</fix>
</trkpt>
<trkpt lat="40.0714208" lon="-105.2295444">
  <ele>1583.0</ele>
  <time>2026-08-28T17:52:59Z</time>
  <course>61.14</course>
  <speed>5.17</speed>
  <fix>3d</fix>
</trkpt>
<trkpt lat="40.0714284" lon="-105.2295268">
  <ele>1583.03</ele>
  <time>2026-08-28T17:52:59Z</time>
  <course>61.81</course>
  <speed>5.106515445976836</speed>
  <fix>3d</fix>
</trkpt>
<trkpt lat="40.0714253" lon="-105.2295338">
  <ele>1583.0</ele>
  <time>2026-08-28T17:52:59Z</time>
  <course>60.66</course>
  <speed>5.14</speed>
  <fix>3d</fix>
</trkpt>
<trkpt lat="40.0714307" lon="-105.2295216">
  <ele>1583.03</ele>
  <time>2026-08-28T17:52:59Z</time>
  <course>61.67</course>
  <speed>5.089174785758493</speed>
  <fix>3d</fix>
</trkpt>
<trkpt lat="40.0714253" lon="-105.2295338">
  <ele>1583.0</ele>
  <time>2026-08-28T17:52:59Z</time>
  <course>60.66</course>
  <speed>5.14</speed>
  <fix>3d</fix>
</trkpt>
<trkpt lat="40.071433" lon="-105.2295164">
  <ele>1583.03</ele>
  <time>2026-08-28T17:52:59Z</time>
  <course>61.59</course>
  <speed>5.0718537045147505</speed>
  <fix>3d</fix>
</trkpt>
<trkpt lat="40.0714253" lon="-105.2295338">
  <ele>1583.0</ele>
  <time>2026-08-28T17:52:59Z</time>
  <course>60.66</course>
  <speed>5.14</speed>
  <fix>3d</fix>
</trkpt>
<trkpt lat="40.0714352" lon="-105.2295112">
  <ele>1583.03</ele>
  <time>2026-08-28T17:52:59Z</time>
  <course>61.51</course>
  <speed>5.049534632023034</speed>
  <fix>3d</fix>
</trkpt>
<trkpt lat="40.0714299" lon="-105.2295233">
  <ele>1583.0</ele>
  <time>2026-08-28T17:52:59Z</time>
  <course>60.35</course>
  <speed>5.11</speed>
  <fix>3d</fix>
</trkpt>
<trkpt lat="40.0714375" lon="-105.2295061">
  <ele>1583.04</ele>
  <time>2026-08-28T17:52:59Z</time>
  <course>61.44</course>
  <speed>5.040882859182506</speed>
  <fix>3d</fix>
</trkpt>
<trkpt lat="40.0714299" lon="-105.2295233">
  <ele>1583.0</ele>
  <time>2026-08-28T17:52:59Z</time>
  <course>60.35</course>
  <speed>5.11</speed>
  <fix>3d</fix>
</trkpt>
<trkpt lat="40.0714397" lon="-105.229501">
  <ele>1583.04</ele>
  <time>2026-08-28T17:52:59Z</time>
  <course>61.36</course>
  <speed>5.0235943307556195</speed>
  <fix>3d</fix>
</trkpt>
<trkpt lat="40.0714344" lon="-105.2295129">
  <ele>1583.0</ele>
  <time>2026-08-28T17:52:59Z</time>
  <course>60.17</course>
  <speed>5.08</speed>
  <fix>3d</fix>
</trkpt>
<trkpt lat="40.071442" lon="-105.229496">
  <ele>1583.04</ele>
  <time>2026-08-28T17:52:59Z</time>
  <course>61.29</course>
  <speed>5.014957626939633</speed>
  <fix>3d</fix>
</trkpt>
<trkpt lat="40.0714344" lon="-105.2295129">
  <ele>1583.0</ele>
  <time>2026-08-28T17:52:59Z</time>
  <course>60.17</course>
  <speed>5.08</speed>
  <fix>3d</fix>
</trkpt>
<trkpt lat="40.0714442" lon="-105.2294909">
  <ele>1583.04</ele>
  <time>2026-08-28T17:52:59Z</time>
  <course>61.21</course>
  <speed>4.992644589794071</speed>
  <fix>3d</fix>
</trkpt>
<trkpt lat="40.0714389" lon="-105.2295025">
  <ele>1583.0</ele>
  <time>2026-08-28T17:52:59Z</time>
  <course>60.04</course>
  <speed>5.06</speed>
  <fix>3d</fix>
</trkpt>
<trkpt lat="40.0714465" lon="-105.2294858">
  <ele>1583.04</ele>
  <time>2026-08-28T17:52:59Z</time>
  <course>61.13</course>
  <speed>4.984014446206993</speed>
  <fix>3d</fix>
</trkpt>
<trkpt lat="40.0714435" lon="-105.2294923">
  <ele>1583.0</ele>
  <time>2026-08-28T17:52:59Z</time>
  <course>59.9</course>
  <speed>5.04</speed>
  <fix>3d</fix>
</trkpt>
<trkpt lat="40.0714487" lon="-105.2294808">
  <ele>1583.05</ele>
  <time>2026-08-28T17:52:59Z</time>
  <course>61.08</course>
  <speed>4.975389431994244</speed>
  <fix>3d</fix>
</trkpt>
<trkpt lat="40.0714435" lon="-105.2294923">
  <ele>1583.0</ele>
  <time>2026-08-28T17:52:59Z</time>
  <course>59.9</course>
  <speed>5.04</speed>
  <fix>3d</fix>
</trkpt>
<trkpt lat="40.071451" lon="-105.2294757">
  <ele>1583.05</ele>
  <time>2026-08-28T17:52:59Z</time>
  <course>61.02</course>
  <speed>4.975389431994244</speed>
  <fix>3d</fix>
</trkpt>
<trkpt lat="40.071448" lon="-105.229482">
  <ele>1583.0</ele>
  <time>2026-08-28T17:52:59Z</time>
  <course>59.78</course>
  <speed>5.03</speed>
  <fix>3d</fix>
</trkpt>
<trkpt lat="40.0714532" lon="-105.2294706">
  <ele>1583.05</ele>
  <time>2026-08-28T17:52:59Z</time>
  <course>61.01</course>
  <speed>4.966769573877975</speed>
  <fix>3d</fix>
</trkpt>
<trkpt lat="40.071448" lon="-105.229482">
  <ele>1583.0</ele>
  <time>2026-08-28T17:52:59Z</time>
  <course>59.78</course>
  <speed>5.03</speed>
  <fix>3d</fix>
</trkpt>
<trkpt lat="40.0714555" lon="-105.2294656">
  <ele>1583.05</ele>
  <time>2026-08-28T17:52:59Z</time>
  <course>61.0</course>
  <speed>4.961703336556912</speed>
  <fix>3d</fix>
</trkpt>
<trkpt lat="40.0714526" lon="-105.2294718">
  <ele>1583.0</ele>
  <time>2026-08-28T17:52:59Z</time>
  <course>59.74</course>
  <speed>5.02</speed>
  <fix>3d</fix>
</trkpt>
<trkpt lat="40.0714578" lon="-105.2294604">
  <ele>1583.05</ele>
  <time>2026-08-28T17:52:59Z</time>
  <course>60.99</course>
  <speed>4.961703336556912</speed>
  <fix>3d</fix>
</trkpt>
<trkpt lat="40.0714526" lon="-105.2294718">
  <ele>1583.0</ele>
  <time>2026-08-28T17:52:59Z</time>
  <course>59.74</course>
  <speed>5.02</speed>
  <fix>3d</fix>
</trkpt>
<trkpt lat="40.07146" lon="-105.2294554">
  <ele>1583.06</ele>
  <time>2026-08-28T17:52:59Z</time>
  <course>60.98</course>
  <speed>4.961703336556912</speed>
  <fix>3d</fix>
</trkpt>
<trkpt lat="40.0714571" lon="-105.2294617">
  <ele>1583.0</ele>
  <time>2026-08-28T17:52:59Z</time>
  <course>59.74</course>
  <speed>5.02</speed>
  <fix>3d</fix>
</trkpt>
<trkpt lat="40.0714623" lon="-105.2294502">
  <ele>1583.06</ele>
  <time>2026-08-28T17:52:59Z</time>
  <course>60.97</course>
  <speed>4.961703336556912</speed>
  <fix>3d</fix>
</trkpt>
<trkpt lat="40.0714571" lon="-105.2294617">
  <ele>1583.0</ele>
  <time>2026-08-28T17:52:59Z</time>
  <course>59.74</course>
  <speed>5.02</speed>
  <fix>3d</fix>
</trkpt>
<trkpt lat="40.0714646" lon="-105.2294451">
  <ele>1583.06</ele>
  <time>2026-08-28T17:52:59Z</time>
  <course>60.96</course>
  <speed>4.970331980864055</speed>
  <fix>3d</fix>
</trkpt>
<trkpt lat="40.0714617" lon="-105.2294515">
  <ele>1583.0</ele>
  <time>2026-08-28T17:52:59Z</time>
  <course>59.74</course>
  <speed>5.02</speed>
  <fix>3d</fix>
</trkpt>
<trkpt lat="40.0714669" lon="-105.22944">
  <ele>1583.06</ele>
  <time>2026-08-28T17:52:59Z</time>
  <course>60.95</course>
  <speed>4.970331980864055</speed>
  <fix>3d</fix>
</trkpt>
<trkpt lat="40.0714617" lon="-105.2294515">
  <ele>1583.0</ele>
  <time>2026-08-28T17:52:59Z</time>
  <course>59.74</course>
  <speed>5.02</speed>
  <fix>3d</fix>
</trkpt>
<trkpt lat="40.0714692" lon="-105.2294349">
  <ele>1583.06</ele>
  <time>2026-08-28T17:52:59Z</time>
  <course>60.95</course>
  <speed>4.970331980864055</speed>
  <fix>3d</fix>
</trkpt>
<trkpt lat="40.0714662" lon="-105.2294412">
  <ele>1583.0</ele>
  <time>2026-08-28T17:52:59Z</time>
  <course>59.74</course>
  <speed>5.02</speed>
  <fix>3d</fix>
</trkpt>
<trkpt lat="40.0714714" lon="-105.2294297">
  <ele>1583.06</ele>
  <time>2026-08-28T17:52:59Z</time>
  <course>60.94</course>
  <speed>4.970331980864055</speed>
  <fix>3d</fix>
</trkpt>
<trkpt lat="40.0714662" lon="-105.2294412">
  <ele>1583.0</ele>
  <time>2026-08-28T17:52:59Z</time>
  <course>59.74</course>
  <speed>5.02</speed>
  <fix>3d</fix>
</trkpt>
<trkpt lat="40.0714737" lon="-105.2294246">
  <ele>1583.06</ele>
  <time>2026-08-28T17:52:59Z</time>
  <course>60.93</course>
  <speed>4.970331980864055</speed>
  <fix>3d</fix>
</trkpt>
<trkpt lat="40.0714708" lon="-105.2294311">
  <ele>1583.0</ele>
  <time>2026-08-28T17:52:59Z</time>
  <course>59.74</course>
  <speed>5.02</speed>
  <fix>3d</fix>
</trkpt>
<trkpt lat="40.071476" lon="-105.2294195">
  <ele>1583.06</ele>
  <time>2026-08-28T17:52:59Z</time>
  <course>60.96</course>
  <speed>4.97896575605818</speed>
  <fix>3d</fix>
</trkpt>
<trkpt lat="40.0714708" lon="-105.2294311">
  <ele>1583.0</ele>
  <time>2026-08-28T17:52:59Z</time>
  <course>59.74</course>
  <speed>5.02</speed>
  <fix>3d</fix>
</trkpt>
<trkpt lat="40.0714783" lon="-105.2294144">
  <ele>1583.06</ele>
  <time>2026-08-28T17:52:59Z</time>
  <course>61.03</course>
  <speed>4.982579653151568</speed>
  <fix>3d</fix>
</trkpt>
<trkpt lat="40.0714708" lon="-105.2294311">
  <ele>1583.0</ele>
  <time>2026-08-28T17:52:59Z</time>
  <course>59.74</course>
  <speed>5.02</speed>
  <fix>3d</fix>
</trkpt>
<trkpt lat="40.0714805" lon="-105.2294093">
  <ele>1583.06</ele>
  <time>2026-08-28T17:52:59Z</time>
  <course>61.09</course>
  <speed>4.977569688110856</speed>
  <fix>3d</fix>
</trkpt>
<trkpt lat="40.0714753" lon="-105.2294209">
  <ele>1583.0</ele>
  <time>2026-08-28T17:52:59Z</time>
  <course>59.79</course>
  <speed>5.02</speed>
  <fix>3d</fix>
</trkpt>
<trkpt lat="40.0714827" lon="-105.2294042">
  <ele>1583.05</ele>
  <time>2026-08-28T17:52:59Z</time>
  <course>61.15</course>
  <speed>4.977569688110856</speed>
  <fix>3d</fix>
</trkpt>
<trkpt lat="40.0714753" lon="-105.2294209">
  <ele>1583.0</ele>
  <time>2026-08-28T17:52:59Z</time>
  <course>59.79</course>
  <speed>5.02</speed>
  <fix>3d</fix>
</trkpt>
<trkpt lat="40.071485" lon="-105.2293991">
  <ele>1583.05</ele>
  <time>2026-08-28T17:52:59Z</time>
  <course>61.22</course>
  <speed>4.981244824338591</speed>
  <fix>3d</fix>
</trkpt>
<trkpt lat="40.0714798" lon="-105.2294106">
  <ele>1583.0</ele>
  <time>2026-08-28T17:52:59Z</time>
  <course>59.91</course>
  <speed>5.03</speed>
  <fix>3d</fix>
</trkpt>
<trkpt lat="40.0714872" lon="-105.2293941">
  <ele>1583.05</ele>
  <time>2026-08-28T17:52:59Z</time>
  <course>61.28</course>
  <speed>4.981244824338591</speed>
  <fix>3d</fix>
</trkpt>
<trkpt lat="40.0714798" lon="-105.2294106">
  <ele>1583.0</ele>
  <time>2026-08-28T17:52:59Z</time>
  <course>59.91</course>
  <speed>5.03</speed>
  <fix>3d</fix>
</trkpt>
<trkpt lat="40.0714894" lon="-105.229389">
  <ele>1583.05</ele>
  <time>2026-08-28T17:52:59Z</time>
  <course>61.35</course>
  <speed>4.97627370629872</speed>
  <fix>3d</fix>
</trkpt>
<trkpt lat="40.0714844" lon="-105.2294005">
  <ele>1583.0</ele>
  <time>2026-08-28T17:52:59Z</time>
  <course>60.05</course>
  <speed>5.03</speed>
  <fix>3d</fix>
</trkpt>
<trkpt lat="40.0714916" lon="-105.2293839">
  <ele>1583.05</ele>
  <time>2026-08-28T17:52:59Z</time>
  <course>61.4</course>
  <speed>4.980010040150521</speed>
  <fix>3d</fix>
</trkpt>
<trkpt lat="40.0714844" lon="-105.2294005">
  <ele>1583.0</ele>
  <time>2026-08-28T17:52:59Z</time>
  <course>60.05</course>
  <speed>5.03</speed>
  <fix>3d</fix>
</trkpt>
<trkpt lat="40.0714938" lon="-105.2293788">
  <ele>1583.05</ele>
  <time>2026-08-28T17:52:59Z</time>
  <course>61.45</course>
  <speed>4.980010040150521</speed>
  <fix>3d</fix>
</trkpt>
<trkpt lat="40.0714889" lon="-105.2293902">
  <ele>1583.0</ele>
  <time>2026-08-28T17:52:59Z</time>
  <course>60.18</course>
  <speed>5.04</speed>
  <fix>3d</fix>
</trkpt>
<trkpt lat="40.0714961" lon="-105.2293737">
  <ele>1583.05</ele>
  <time>2026-08-28T17:52:59Z</time>
  <course>61.48</course>
  <speed>4.980010040150521</speed>
  <fix>3d</fix>
</trkpt>
<trkpt lat="40.0714934" lon="-105.2293799">
  <ele>1583.0</ele>
  <time>2026-08-28T17:52:59Z</time>
  <course>60.28</course>
  <speed>5.04</speed>
  <fix>3d</fix>
</trkpt>
<trkpt lat="40.0714983" lon="-105.2293685">
  <ele>1583.05</ele>
  <time>2026-08-28T17:52:59Z</time>
  <course>61.57</course>
  <speed>4.983783703171717</speed>
  <fix>3d</fix>
</trkpt>
<trkpt lat="40.0714934" lon="-105.2293799">
  <ele>1583.0</ele>
  <time>2026-08-28T17:52:59Z</time>
  <course>60.28</course>
  <speed>5.04</speed>
  <fix>3d</fix>
</trkpt>
<trkpt lat="40.0715005" lon="-105.2293634">
  <ele>1583.05</ele>
  <time>2026-08-28T17:52:59Z</time>
  <course>61.63</course>
  <speed>4.9875946106314615</speed>
  <fix>3d</fix>
</trkpt>
<trkpt lat="40.0714979" lon="-105.2293696">
  <ele>1583.0</ele>
  <time>2026-08-28T17:52:59Z</time>
  <course>60.41</course>
  <speed>5.05</speed>
  <fix>3d</fix>
</trkpt>
<trkpt lat="40.0715027" lon="-105.2293582">
  <ele>1583.05</ele>
  <time>2026-08-28T17:52:59Z</time>
  <course>61.69</course>
  <speed>4.9875946106314615</speed>
  <fix>3d</fix>
</trkpt>
<trkpt lat="40.0714979" lon="-105.2293696">
  <ele>1583.0</ele>
  <time>2026-08-28T17:52:59Z</time>
  <course>60.41</course>
  <speed>5.05</speed>
  <fix>3d</fix>
</trkpt>
<trkpt lat="40.071505" lon="-105.229353">
  <ele>1583.05</ele>
  <time>2026-08-28T17:52:59Z</time>
  <course>61.76</course>
  <speed>4.991442677222689</speed>
  <fix>3d</fix>
</trkpt>
<trkpt lat="40.0715023" lon="-105.2293593">
  <ele>1583.0</ele>
  <time>2026-08-28T17:52:59Z</time>
  <course>60.56</course>
  <speed>5.05</speed>
  <fix>3d</fix>
</trkpt>
<trkpt lat="40.0715072" lon="-105.2293478">
  <ele>1583.05</ele>
  <time>2026-08-28T17:52:59Z</time>
  <course>61.82</course>
  <speed>5.000179996760116</speed>
  <fix>3d</fix>
</trkpt>
<trkpt lat="40.0715023" lon="-105.2293593">
  <ele>1583.0</ele>
  <time>2026-08-28T17:52:59Z</time>
  <course>60.56</course>
  <speed>5.05</speed>
  <fix>3d</fix>
</trkpt>
<trkpt lat="40.0715094" lon="-105.2293426">
  <ele>1583.04</ele>
  <time>2026-08-28T17:52:59Z</time>
  <course>61.88</course>
  <speed>5.000179996760116</speed>
  <fix>3d</fix>
</trkpt>
<trkpt lat="40.0715067" lon="-105.2293489">
  <ele>1583.0</ele>
  <time>2026-08-28T17:52:59Z</time>
  <course>60.69</course>
  <speed>5.05</speed>
  <fix>3d</fix>
</trkpt>
<trkpt lat="40.0715116" lon="-105.2293373">
  <ele>1583.04</ele>
  <time>2026-08-28T17:52:59Z</time>
  <course>61.94</course>
  <speed>5.004078336716962</speed>
  <fix>3d</fix>
</trkpt>
<trkpt lat="40.0715067" lon="-105.2293489">
  <ele>1583.0</ele>
  <time>2026-08-28T17:52:59Z</time>
  <course>60.69</course>
  <speed>5.05</speed>
  <fix>3d</fix>
</trkpt>
<trkpt lat="40.0715139" lon="-105.2293321">
  <ele>1583.04</ele>
  <time>2026-08-28T17:52:59Z</time>
  <course>62.01</course>
  <speed>5.004078336716962</speed>
  <fix>3d</fix>
</trkpt>
<trkpt lat="40.0715112" lon="-105.2293386">
  <ele>1583.0</ele>
  <time>2026-08-28T17:52:59Z</time>
  <course>60.83</course>
  <speed>5.06</speed>
  <fix>3d</fix>
</trkpt>
<trkpt lat="40.0715161" lon="-105.2293269">
  <ele>1583.04</ele>
  <time>2026-08-28T17:52:59Z</time>
  <course>62.07</course>
  <speed>5.008013578256353</speed>
  <fix>3d</fix>
</trkpt>
<trkpt lat="40.0715112" lon="-105.2293386">
  <ele>1583.0</ele>
  <time>2026-08-28T17:52:59Z</time>
  <course>60.83</course>
  <speed>5.06</speed>
  <fix>3d</fix>
</trkpt>
<trkpt lat="40.0715183" lon="-105.2293217">
  <ele>1583.04</ele>
  <time>2026-08-28T17:52:59Z</time>
  <course>62.14</course>
  <speed>5.003208970250992</speed>
  <fix>3d</fix>
</trkpt>
<trkpt lat="40.0715156" lon="-105.2293282">
  <ele>1583.0</ele>
  <time>2026-08-28T17:52:59Z</time>
  <course>60.97</course>
  <speed>5.06</speed>
  <fix>3d</fix>
</trkpt>
<trkpt lat="40.0715205" lon="-105.2293164">
  <ele>1583.03</ele>
  <time>2026-08-28T17:52:59Z</time>
  <course>62.23</course>
  <speed>5.011985634456667</speed>
  <fix>3d</fix>
</trkpt>
<trkpt lat="40.0715156" lon="-105.2293282">
  <ele>1583.0</ele>
  <time>2026-08-28T17:52:59Z</time>
  <course>60.97</course>
  <speed>5.06</speed>
  <fix>3d</fix>
</trkpt>
<trkpt lat="40.0715227" lon="-105.2293112">
  <ele>1583.03</ele>
  <time>2026-08-28T17:52:59Z</time>
  <course>62.36</course>
  <speed>5.007204809072622</speed>
  <fix>3d</fix>
</trkpt>
<trkpt lat="40.0715201" lon="-105.2293177">
  <ele>1583.0</ele>
  <time>2026-08-28T17:52:59Z</time>
  <course>61.15</course>
  <speed>5.05</speed>
  <fix>3d</fix>
</trkpt>
<trkpt lat="40.0715248" lon="-105.2293059">
  <ele>1583.03</ele>
  <time>2026-08-28T17:52:59Z</time>
  <course>62.48</course>
  <speed>5.011237372146724</speed>
  <fix>3d</fix>
</trkpt>
<trkpt lat="40.0715201" lon="-105.2293177">
  <ele>1583.0</ele>
  <time>2026-08-28T17:52:59Z</time>
  <course>61.15</course>
  <speed>5.05</speed>
  <fix>3d</fix>
</trkpt>
<trkpt lat="40.071527" lon="-105.2293007">
  <ele>1583.03</ele>
  <time>2026-08-28T17:52:59Z</time>
  <course>62.57</course>
  <speed>5.006495780483591</speed>
  <fix>3d</fix>
</trkpt>
<trkpt lat="40.0715201" lon="-105.2293177">
  <ele>1583.0</ele>
  <time>2026-08-28T17:52:59Z</time>
  <course>61.15</course>
  <speed>5.05</speed>
  <fix>3d</fix>
</trkpt>
<trkpt lat="40.0715292" lon="-105.2292955">
  <ele>1583.02</ele>
  <time>2026-08-28T17:52:59Z</time>
  <course>62.64</course>
  <speed>5.001769686820856</speed>
  <fix>3d</fix>
</trkpt>
<trkpt lat="40.0715244" lon="-105.2293074">
  <ele>1583.0</ele>
  <time>2026-08-28T17:52:59Z</time>
  <course>61.38</course>
  <speed>5.05</speed>
  <fix>3d</fix>
</trkpt>
<trkpt lat="40.0715313" lon="-105.2292903">
  <ele>1583.02</ele>
  <time>2026-08-28T17:52:59Z</time>
  <course>62.71</course>
  <speed>4.997059135131383</speed>
  <fix>3d</fix>
</trkpt>
<trkpt lat="40.0715244" lon="-105.2293074">
  <ele>1583.0</ele>
  <time>2026-08-28T17:52:59Z</time>
  <course>61.38</course>
  <speed>5.05</speed>
  <fix>3d</fix>
</trkpt>
<trkpt lat="40.0715334" lon="-105.2292851">
  <ele>1583.02</ele>
  <time>2026-08-28T17:52:59Z</time>
  <course>62.78</course>
  <speed>5.005886534870722</speed>
  <fix>3d</fix>
</trkpt>
<trkpt lat="40.0715287" lon="-105.2292969">
  <ele>1583.0</ele>
  <time>2026-08-28T17:52:59Z</time>
  <course>61.56</course>
  <speed>5.05</speed>
  <fix>3d</fix>
</trkpt>
<trkpt lat="40.0715356" lon="-105.2292799">
  <ele>1583.01</ele>
  <time>2026-08-28T17:52:59Z</time>
  <course>62.85</course>
  <speed>5.00119985603455</speed>
  <fix>3d</fix>
</trkpt>
<trkpt lat="40.0715287" lon="-105.2292969">
  <ele>1583.0</ele>
  <time>2026-08-28T17:52:59Z</time>
  <course>61.56</course>
  <speed>5.05</speed>
  <fix>3d</fix>
</trkpt>
<trkpt lat="40.0715377" lon="-105.2292747">
  <ele>1583.01</ele>
  <time>2026-08-28T17:52:59Z</time>
  <course>62.92</course>
  <speed>4.996528795073636</speed>
  <fix>3d</fix>
</trkpt>
<trkpt lat="40.0715331" lon="-105.2292865">
  <ele>1583.0</ele>
  <time>2026-08-28T17:52:59Z</time>
  <course>61.7</course>
  <speed>5.05</speed>
  <fix>3d</fix>
</trkpt>
<trkpt lat="40.0715398" lon="-105.2292695">
  <ele>1583.01</ele>
  <time>2026-08-28T17:52:59Z</time>
  <course>62.99</course>
  <speed>4.996528795073636</speed>
  <fix>3d</fix>
</trkpt>
<trkpt lat="40.0715373" lon="-105.229276">
  <ele>1583.0</ele>
  <time>2026-08-28T17:52:59Z</time>
  <course>61.83</course>
  <speed>5.05</speed>
  <fix>3d</fix>
</trkpt>
<trkpt lat="40.0715419" lon="-105.2292643">
  <ele>1583.01</ele>
  <time>2026-08-28T17:52:59Z</time>
  <course>63.08</course>
  <speed>4.991873395830467</speed>
  <fix>3d</fix>
</trkpt>
<trkpt lat="40.0715373" lon="-105.229276">
  <ele>1583.0</ele>
  <time>2026-08-28T17:52:59Z</time>
  <course>61.83</course>
  <speed>5.05</speed>
  <fix>3d</fix>
</trkpt>
<trkpt lat="40.071544" lon="-105.2292591">
  <ele>1583.0</ele>
  <time>2026-08-28T17:52:59Z</time>
  <course>63.22</course>
  <speed>4.9960984778124615</speed>
  <fix>3d</fix>
</trkpt>
<trkpt lat="40.0715416" lon="-105.2292655">
  <ele>1583.0</ele>
  <time>2026-08-28T17:52:59Z</time>
  <course>62.02</course>
  <speed>5.04</speed>
  <fix>3d</fix>
</trkpt>
<trkpt lat="40.0715461" lon="-105.2292538">
  <ele>1583.0</ele>
  <time>2026-08-28T17:52:59Z</time>
  <course>63.35</course>
  <speed>5.000359987040933</speed>
  <fix>3d</fix>
</trkpt>
<trkpt lat="40.0715416" lon="-105.2292655">
  <ele>1583.0</ele>
  <time>2026-08-28T17:52:59Z</time>
  <course>62.02</course>
  <speed>5.04</speed>
  <fix>3d</fix>
</trkpt>
<trkpt lat="40.0715482" lon="-105.2292486">
  <ele>1582.99</ele>
  <time>2026-08-28T17:52:59Z</time>
  <course>63.48</course>
  <speed>4.995768209194658</speed>
  <fix>3d</fix>
</trkpt>
<trkpt lat="40.0715459" lon="-105.2292551">
  <ele>1583.0</ele>
  <time>2026-08-28T17:52:59Z</time>
  <course>62.27</course>
  <speed>5.04</speed>
  <fix>3d</fix>
</trkpt>
<trkpt lat="40.0715504" lon="-105.2292433">
  <ele>1582.99</ele>
  <time>2026-08-28T17:52:59Z</time>
  <course>63.57</course>
  <speed>5.000089999190014</speed>
  <fix>3d</fix>
</trkpt>
<trkpt lat="40.0715459" lon="-105.2292551">
  <ele>1583.0</ele>
  <time>2026-08-28T17:52:59Z</time>
  <course>62.27</course>
  <speed>5.04</speed>
  <fix>3d</fix>
</trkpt>
<trkpt lat="40.0715524" lon="-105.229238">
  <ele>1582.99</ele>
  <time>2026-08-28T17:52:59Z</time>
  <course>63.68</course>
  <speed>4.995538009063688</speed>
  <fix>3d</fix>
</trkpt>
<trkpt lat="40.07155" lon="-105.2292446">
  <ele>1583.0</ele>
  <time>2026-08-28T17:52:59Z</time>
  <course>62.51</course>
  <speed>5.04</speed>
  <fix>3d</fix>
</trkpt>
<trkpt lat="40.0715546" lon="-105.2292326">
  <ele>1582.99</ele>
  <time>2026-08-28T17:52:59Z</time>
  <course>63.74</course>
  <speed>4.995538009063688</speed>
  <fix>3d</fix>
</trkpt>
<trkpt lat="40.07155" lon="-105.2292446">
  <ele>1583.0</ele>
  <time>2026-08-28T17:52:59Z</time>
  <course>62.51</course>
  <speed>5.04</speed>
  <fix>3d</fix>
</trkpt>
<trkpt lat="40.0715566" lon="-105.2292273">
  <ele>1582.99</ele>
  <time>2026-08-28T17:52:59Z</time>
  <course>63.81</course>
  <speed>4.99991999935999</speed>
  <fix>3d</fix>
</trkpt>
<trkpt lat="40.0715543" lon="-105.2292341">
  <ele>1583.0</ele>
  <time>2026-08-28T17:52:59Z</time>
  <course>62.68</course>
  <speed>5.04</speed>
  <fix>3d</fix>
</trkpt>
<trkpt lat="40.0715587" lon="-105.229222">
  <ele>1583.0</ele>
  <time>2026-08-28T17:52:59Z</time>
  <course>63.88</course>
  <speed>4.99991999935999</speed>
  <fix>3d</fix>
</trkpt>
<trkpt lat="40.0715543" lon="-105.2292341">
  <ele>1583.0</ele>
  <time>2026-08-28T17:52:59Z</time>
  <course>62.68</course>
  <speed>5.04</speed>
  <fix>3d</fix>
</trkpt>
<trkpt lat="40.0715608" lon="-105.2292167">
  <ele>1583.0</ele>
  <time>2026-08-28T17:52:59Z</time>
  <course>63.94</course>
  <speed>4.995407891253726</speed>
  <fix>3d</fix>
</trkpt>
<trkpt lat="40.0715584" lon="-105.2292236">
  <ele>1583.0</ele>
  <time>2026-08-28T17:52:59Z</time>
  <course>62.82</course>
  <speed>5.03</speed>
  <fix>3d</fix>
</trkpt>
<trkpt lat="40.0715629" lon="-105.2292114">
  <ele>1583.0</ele>
  <time>2026-08-28T17:52:59Z</time>
  <course>64.03</course>
  <speed>4.999849997749933</speed>
  <fix>3d</fix>
</trkpt>
<trkpt lat="40.0715584" lon="-105.2292236">
  <ele>1583.0</ele>
  <time>2026-08-28T17:52:59Z</time>
  <course>62.82</course>
  <speed>5.03</speed>
  <fix>3d</fix>
</trkpt>
<trkpt lat="40.0715649" lon="-105.2292061">
  <ele>1583.0</ele>
  <time>2026-08-28T17:52:59Z</time>
  <course>64.17</course>
  <speed>4.995377863585497</speed>
  <fix>3d</fix>
</trkpt>
<trkpt lat="40.0715625" lon="-105.2292131">
  <ele>1583.0</ele>
  <time>2026-08-28T17:52:59Z</time>
  <course>63.0</course>
  <speed>5.03</speed>
  <fix>3d</fix>
</trkpt>
<trkpt lat="40.071567" lon="-105.2292008">
  <ele>1583.0</ele>
  <time>2026-08-28T17:52:59Z</time>
  <course>64.3</course>
  <speed>4.999879998559965</speed>
  <fix>3d</fix>
</trkpt>
<trkpt lat="40.0715625" lon="-105.2292131">
  <ele>1583.0</ele>
  <time>2026-08-28T17:52:59Z</time>
  <course>63.0</course>
  <speed>5.03</speed>
  <fix>3d</fix>
</trkpt>
<trkpt lat="40.071569" lon="-105.2291955">
  <ele>1583.0</ele>
  <time>2026-08-28T17:52:59Z</time>
  <course>64.44</course>
  <speed>4.9954479278639266</speed>
  <fix>3d</fix>
</trkpt>
<trkpt lat="40.0715625" lon="-105.2292131">
  <ele>1583.0</ele>
  <time>2026-08-28T17:52:59Z</time>
  <course>63.0</course>
  <speed>5.03</speed>
  <fix>3d</fix>
</trkpt>
<trkpt lat="40.071571" lon="-105.2291903">
  <ele>1583.0</ele>
  <time>2026-08-28T17:52:59Z</time>
  <course>64.58</course>
  <speed>4.991031957421231</speed>
  <fix>3d</fix>
</trkpt>
<trkpt lat="40.0715666" lon="-105.2292025">
  <ele>1583.0</ele>
  <time>2026-08-28T17:52:59Z</time>
  <course>63.25</course>
  <speed>5.03</speed>
  <fix>3d</fix>
</trkpt>
<trkpt lat="40.071573" lon="-105.229185">
  <ele>1583.0</ele>
  <time>2026-08-28T17:52:59Z</time>
  <course>64.67</course>
  <speed>4.995618079877604</speed>
  <fix>3d</fix>
</trkpt>
<trkpt lat="40.0715666" lon="-105.2292025">
  <ele>1583.0</ele>
  <time>2026-08-28T17:52:59Z</time>
  <course>63.25</course>
  <speed>5.03</speed>
  <fix>3d</fix>
</trkpt>
<trkpt lat="40.071575" lon="-105.2291798">
  <ele>1582.99</ele>
  <time>2026-08-28T17:52:59Z</time>
  <course>64.77</course>
  <speed>4.991242330322181</speed>
  <fix>3d</fix>
</trkpt>
<trkpt lat="40.0715706" lon="-105.2291919">
  <ele>1583.0</ele>
  <time>2026-08-28T17:52:59Z</time>
  <course>63.51</course>
  <speed>5.02</speed>
  <fix>3d</fix>
</trkpt>
<trkpt lat="40.071577" lon="-105.2291745">
  <ele>1583.0</ele>
  <time>2026-08-28T17:52:59Z</time>
  <course>64.84</course>
  <speed>4.991242330322181</speed>
  <fix>3d</fix>
</trkpt>
<trkpt lat="40.0715706" lon="-105.2291919">
  <ele>1583.0</ele>
  <time>2026-08-28T17:52:59Z</time>
  <course>63.51</course>
  <speed>5.02</speed>
  <fix>3d</fix>
</trkpt>
<trkpt lat="40.0715789" lon="-105.2291693">
  <ele>1583.0</ele>
  <time>2026-08-28T17:52:59Z</time>
  <course>64.91</course>
  <speed>4.986882793890388</speed>
  <fix>3d</fix>
</trkpt>
<trkpt lat="40.0715747" lon="-105.2291813">
  <ele>1583.0</ele>
  <time>2026-08-28T17:52:59Z</time>
  <course>63.7</course>
  <speed>5.02</speed>
  <fix>3d</fix>
</trkpt>
<trkpt lat="40.0715809" lon="-105.229164">
  <ele>1583.0</ele>
  <time>2026-08-28T17:52:59Z</time>
  <course>64.98</course>
  <speed>4.98253951313986</speed>
  <fix>3d</fix>
</trkpt>
<trkpt lat="40.0715747" lon="-105.2291813">
  <ele>1583.0</ele>
  <time>2026-08-28T17:52:59Z</time>
  <course>63.7</course>
  <speed>5.02</speed>
  <fix>3d</fix>
</trkpt>
<trkpt lat="40.0715829" lon="-105.2291587">
  <ele>1583.0</ele>
  <time>2026-08-28T17:52:59Z</time>
  <course>65.06</course>
  <speed>4.98253951313986</speed>
  <fix>3d</fix>
</trkpt>
<trkpt lat="40.0715787" lon="-105.2291707">
  <ele>1583.0</ele>
  <time>2026-08-28T17:52:59Z</time>
  <course>63.85</course>
  <speed>5.02</speed>
  <fix>3d</fix>
</trkpt>
<trkpt lat="40.0715848" lon="-105.2291535">
  <ele>1583.0</ele>
  <time>2026-08-28T17:52:59Z</time>
  <course>65.19</course>
  <speed>4.987233702163956</speed>
  <fix>3d</fix>
</trkpt>
<trkpt lat="40.0715826" lon="-105.2291602">
  <ele>1583.0</ele>
  <time>2026-08-28T17:52:59Z</time>
  <course>64.03</course>
  <speed>5.02</speed>
  <fix>3d</fix>
</trkpt>
<trkpt lat="40.0715868" lon="-105.2291482">
  <ele>1583.0</ele>
  <time>2026-08-28T17:52:59Z</time>
  <course>65.33</course>
  <speed>4.982930864461196</speed>
  <fix>3d</fix>
</trkpt>
<trkpt lat="40.0715826" lon="-105.2291602">
  <ele>1583.0</ele>
  <time>2026-08-28T17:52:59Z</time>
  <course>64.03</course>
  <speed>5.02</speed>
  <fix>3d</fix>
</trkpt>
<trkpt lat="40.0715887" lon="-105.2291429">
  <ele>1583.0</ele>
  <time>2026-08-28T17:52:59Z</time>
  <course>65.46</course>
  <speed>4.987684833667821</speed>
  <fix>3d</fix>
</trkpt>
<trkpt lat="40.0715866" lon="-105.2291496">
  <ele>1583.0</ele>
  <time>2026-08-28T17:52:59Z</time>
  <course>64.28</course>
  <speed>5.02</speed>
  <fix>3d</fix>
</trkpt>
<trkpt lat="40.0715907" lon="-105.2291376">
  <ele>1583.0</ele>
  <time>2026-08-28T17:52:59Z</time>
  <course>65.6</course>
  <speed>4.9924743364387965</speed>
  <fix>3d</fix>
</trkpt>
<trkpt lat="40.0715866" lon="-105.2291496">
  <ele>1583.0</ele>
  <time>2026-08-28T17:52:59Z</time>
  <course>64.28</course>
  <speed>5.02</speed>
  <fix>3d</fix>
</trkpt>
<trkpt lat="40.0715926" lon="-105.2291322">
  <ele>1583.0</ele>
  <time>2026-08-28T17:52:59Z</time>
  <course>65.73</course>
  <speed>4.9882361612096915</speed>
  <fix>3d</fix>
</trkpt>
<trkpt lat="40.0715905" lon="-105.2291389">
  <ele>1583.0</ele>
  <time>2026-08-28T17:52:59Z</time>
  <course>64.55</course>
  <speed>5.03</speed>
  <fix>3d</fix>
</trkpt>
<trkpt lat="40.0715946" lon="-105.2291268">
  <ele>1583.01</ele>
  <time>2026-08-28T17:52:59Z</time>
  <course>65.81</course>
  <speed>4.9930852185797905</speed>
  <fix>3d</fix>
</trkpt>
<trkpt lat="40.0715905" lon="-105.2291389">
  <ele>1583.0</ele>
  <time>2026-08-28T17:52:59Z</time>
  <course>64.55</course>
  <speed>5.03</speed>
  <fix>3d</fix>
</trkpt>
<trkpt lat="40.0715965" lon="-105.2291214">
  <ele>1583.01</ele>
  <time>2026-08-28T17:52:59Z</time>
  <course>65.89</course>
  <speed>4.9930852185797905</speed>
  <fix>3d</fix>
</trkpt>
<trkpt lat="40.0715943" lon="-105.2291282">
  <ele>1583.0</ele>
  <time>2026-08-28T17:52:59Z</time>
  <course>64.77</course>
  <speed>5.03</speed>
  <fix>3d</fix>
</trkpt>
<trkpt lat="40.0715985" lon="-105.229116">
  <ele>1583.01</ele>
  <time>2026-08-28T17:52:59Z</time>
  <course>65.96</course>
  <speed>4.997969587742606</speed>
  <fix>3d</fix>
</trkpt>
<trkpt lat="40.0715943" lon="-105.2291282">
  <ele>1583.0</ele>
  <time>2026-08-28T17:52:59Z</time>
  <course>64.77</course>
  <speed>5.03</speed>
  <fix>3d</fix>
</trkpt>
<trkpt lat="40.0716004" lon="-105.2291106">
  <ele>1583.01</ele>
  <time>2026-08-28T17:52:59Z</time>
  <course>66.03</course>
  <speed>4.997969587742606</speed>
  <fix>3d</fix>
</trkpt>
<trkpt lat="40.0715981" lon="-105.2291175">
  <ele>1583.0</ele>
  <time>2026-08-28T17:52:59Z</time>
  <course>64.92</course>
  <speed>5.03</speed>
  <fix>3d</fix>
</trkpt>
<trkpt lat="40.0716023" lon="-105.2291052">
  <ele>1583.01</ele>
  <time>2026-08-28T17:52:59Z</time>
  <course>66.11</course>
  <speed>5.0028891652724035</speed>
  <fix>3d</fix>
</trkpt>
<trkpt lat="40.0715981" lon="-105.2291175">
  <ele>1583.0</ele>
  <time>2026-08-28T17:52:59Z</time>
  <course>64.92</course>
  <speed>5.03</speed>
  <fix>3d</fix>
</trkpt>
<trkpt lat="40.0716042" lon="-105.2290998">
  <ele>1583.01</ele>
  <time>2026-08-28T17:52:59Z</time>
  <course>66.24</course>
  <speed>4.99873984119998</speed>
  <fix>3d</fix>
</trkpt>
<trkpt lat="40.071602" lon="-105.2291068">
  <ele>1583.0</ele>
  <time>2026-08-28T17:52:59Z</time>
  <course>65.09</course>
  <speed>5.03</speed>
  <fix>3d</fix>
</trkpt>
<trkpt lat="40.0716061" lon="-105.2290944">
  <ele>1583.02</ele>
  <time>2026-08-28T17:52:59Z</time>
  <course>66.38</course>
  <speed>5.00371861718862</speed>
  <fix>3d</fix>
</trkpt>
<trkpt lat="40.071602" lon="-105.2291068">
  <ele>1583.0</ele>
  <time>2026-08-28T17:52:59Z</time>
  <course>65.09</course>
  <speed>5.03</speed>
  <fix>3d</fix>
</trkpt>
<trkpt lat="40.071608" lon="-105.229089">
  <ele>1583.02</ele>
  <time>2026-08-28T17:52:59Z</time>
  <course>66.51</course>
  <speed>4.999609984788814</speed>
  <fix>3d</fix>
</trkpt>
<trkpt lat="40.0716058" lon="-105.2290961">
  <ele>1583.0</ele>
  <time>2026-08-28T17:52:59Z</time>
  <course>65.34</course>
  <speed>5.02</speed>
  <fix>3d</fix>
</trkpt>
<trkpt lat="40.0716099" lon="-105.2290836">
  <ele>1583.03</ele>
  <time>2026-08-28T17:52:59Z</time>
  <course>66.65</course>
  <speed>5.004647839758558</speed>
  <fix>3d</fix>
</trkpt>
<trkpt lat="40.0716058" lon="-105.2290961">
  <ele>1583.0</ele>
  <time>2026-08-28T17:52:59Z</time>
  <course>65.34</course>
  <speed>5.02</speed>
  <fix>3d</fix>
</trkpt>
<trkpt lat="40.0716118" lon="-105.2290782">
  <ele>1583.03</ele>
  <time>2026-08-28T17:52:59Z</time>
  <course>66.76</course>
  <speed>5.000579966363902</speed>
  <fix>3d</fix>
</trkpt>
<trkpt lat="40.0716058" lon="-105.2290961">
  <ele>1583.0</ele>
  <time>2026-08-28T17:52:59Z</time>
  <course>65.34</course>
  <speed>5.02</speed>
  <fix>3d</fix>
</trkpt>
<trkpt lat="40.0716136" lon="-105.2290729">
  <ele>1583.03</ele>
  <time>2026-08-28T17:52:59Z</time>
  <course>66.85</course>
  <speed>4.996528795073636</speed>
  <fix>3d</fix>
</trkpt>
<trkpt lat="40.0716095" lon="-105.2290854">
  <ele>1583.0</ele>
  <time>2026-08-28T17:52:59Z</time>
  <course>65.6</course>
  <speed>5.02</speed>
  <fix>3d</fix>
</trkpt>
<trkpt lat="40.0716154" lon="-105.2290675">
  <ele>1583.03</ele>
  <time>2026-08-28T17:52:59Z</time>
  <course>66.92</course>
  <speed>4.996528795073636</speed>
  <fix>3d</fix>
</trkpt>
<trkpt lat="40.0716095" lon="-105.2290854">
  <ele>1583.0</ele>
  <time>2026-08-28T17:52:59Z</time>
  <course>65.6</course>
  <speed>5.02</speed>
  <fix>3d</fix>
</trkpt>
<trkpt lat="40.0716173" lon="-105.2290622">
  <ele>1583.03</ele>
  <time>2026-08-28T17:52:59Z</time>
  <course>66.99</course>
  <speed>4.992494366546646</speed>
  <fix>3d</fix>
</trkpt>
<trkpt lat="40.0716132" lon="-105.2290745">
  <ele>1583.0</ele>
  <time>2026-08-28T17:52:59Z</time>
  <course>65.8</course>
  <speed>5.02</speed>
  <fix>3d</fix>
</trkpt>
<trkpt lat="40.0716191" lon="-105.2290568">
  <ele>1583.03</ele>
  <time>2026-08-28T17:52:59Z</time>
  <course>67.06</course>
  <speed>4.988476721405043</speed>
  <fix>3d</fix>
</trkpt>
<trkpt lat="40.0716132" lon="-105.2290745">
  <ele>1583.0</ele>
  <time>2026-08-28T17:52:59Z</time>
  <course>65.8</course>
  <speed>5.02</speed>
  <fix>3d</fix>
</trkpt>
<trkpt lat="40.0716209" lon="-105.2290515">
  <ele>1583.03</ele>
  <time>2026-08-28T17:52:59Z</time>
  <course>67.14</course>
  <speed>4.988476721405043</speed>
  <fix>3d</fix>
</trkpt>
<trkpt lat="40.0716169" lon="-105.2290638">
  <ele>1583.0</ele>
  <time>2026-08-28T17:52:59Z</time>
  <course>65.95</course>
  <speed>5.02</speed>
  <fix>3d</fix>
</trkpt>
<trkpt lat="40.0716227" lon="-105.2290461">
  <ele>1583.03</ele>
  <time>2026-08-28T17:52:59Z</time>
  <course>67.28</course>
  <speed>4.9896693277210264</speed>
  <fix>3d</fix>
</trkpt>
<trkpt lat="40.0716206" lon="-105.229053">
  <ele>1583.0</ele>
  <time>2026-08-28T17:52:59Z</time>
  <course>66.13</course>
  <speed>5.02</speed>
  <fix>3d</fix>
</trkpt>
<trkpt lat="40.0716245" lon="-105.2290407">
  <ele>1583.02</ele>
  <time>2026-08-28T17:52:59Z</time>
  <course>67.41</course>
  <speed>4.9857095783850065</speed>
  <fix>3d</fix>
</trkpt>
<trkpt lat="40.0716206" lon="-105.229053">
  <ele>1583.0</ele>
  <time>2026-08-28T17:52:59Z</time>
  <course>66.13</course>
  <speed>5.02</speed>
  <fix>3d</fix>
</trkpt>
<trkpt lat="40.0716263" lon="-105.2290353">
  <ele>1583.02</ele>
  <time>2026-08-28T17:52:59Z</time>
  <course>67.55</course>
  <speed>4.9909618311503845</speed>
  <fix>3d</fix>
</trkpt>
<trkpt lat="40.0716242" lon="-105.2290423">
  <ele>1583.0</ele>
  <time>2026-08-28T17:52:59Z</time>
  <course>66.38</course>
  <speed>5.02</speed>
  <fix>3d</fix>
</trkpt>
<trkpt lat="40.0716281" lon="-105.2290299">
  <ele>1583.02</ele>
  <time>2026-08-28T17:52:59Z</time>
  <course>67.68</course>
  <speed>4.9870432121649</speed>
  <fix>3d</fix>
</trkpt>
<trkpt lat="40.0716242" lon="-105.2290423">
  <ele>1583.0</ele>
  <time>2026-08-28T17:52:59Z</time>
  <course>66.38</course>
  <speed>5.02</speed>
  <fix>3d</fix>
</trkpt>
<trkpt lat="40.0716299" lon="-105.2290245">
  <ele>1583.01</ele>
  <time>2026-08-28T17:52:59Z</time>
  <course>67.79</course>
  <speed>4.9962485926943225</speed>
  <fix>3d</fix>
</trkpt>
<trkpt lat="40.0716278" lon="-105.2290314">
  <ele>1583.0</ele>
  <time>2026-08-28T17:52:59Z</time>
  <course>66.63</course>
  <speed>5.02</speed>
  <fix>3d</fix>
</trkpt>
<trkpt lat="40.0716317" lon="-105.2290191">
  <ele>1583.01</ele>
  <time>2026-08-28T17:52:59Z</time>
  <course>67.89</course>
  <speed>4.992354154104054</speed>
  <fix>3d</fix>
</trkpt>
<trkpt lat="40.0716278" lon="-105.2290314">
  <ele>1583.0</ele>
  <time>2026-08-28T17:52:59Z</time>
  <course>66.63</course>
  <speed>5.02</speed>
  <fix>3d</fix>
</trkpt>
<trkpt lat="40.0716334" lon="-105.2290136">
  <ele>1583.01</ele>
  <time>2026-08-28T17:52:59Z</time>
  <course>67.95</course>
  <speed>4.99769947075652</speed>
  <fix>3d</fix>
</trkpt>
<trkpt lat="40.0716314" lon="-105.2290207">
  <ele>1583.0</ele>
  <time>2026-08-28T17:52:59Z</time>
  <course>66.84</course>
  <speed>5.02</speed>
  <fix>3d</fix>
</trkpt>
<trkpt lat="40.0716352" lon="-105.2290081">
  <ele>1583.01</ele>
  <time>2026-08-28T17:52:59Z</time>
  <course>68.02</course>
  <speed>4.99769947075652</speed>
  <fix>3d</fix>
</trkpt>
<trkpt lat="40.0716314" lon="-105.2290207">
  <ele>1583.0</ele>
  <time>2026-08-28T17:52:59Z</time>
  <course>66.84</course>
  <speed>5.02</speed>
  <fix>3d</fix>
</trkpt>
<trkpt lat="40.071637" lon="-105.2290027">
  <ele>1583.01</ele>
  <time>2026-08-28T17:52:59Z</time>
  <course>68.09</course>
  <speed>4.993846213090667</speed>
  <fix>3d</fix>
</trkpt>
<trkpt lat="40.0716349" lon="-105.2290098">
  <ele>1583.0</ele>
  <time>2026-08-28T17:52:59Z</time>
  <course>66.99</course>
  <speed>5.02</speed>
  <fix>3d</fix>
</trkpt>
<trkpt lat="40.0716388" lon="-105.2289972">
  <ele>1583.01</ele>
  <time>2026-08-28T17:52:59Z</time>
  <course>68.16</course>
  <speed>4.993846213090667</speed>
  <fix>3d</fix>
</trkpt>
<trkpt lat="40.0716349" lon="-105.2290098">
  <ele>1583.0</ele>
  <time>2026-08-28T17:52:59Z</time>
  <course>66.99</course>
  <speed>5.02</speed>
  <fix>3d</fix>
</trkpt>
<trkpt lat="40.0716405" lon="-105.2289917">
  <ele>1583.01</ele>
  <time>2026-08-28T17:52:59Z</time>
  <course>68.29</course>
  <speed>4.999249943741561</speed>
  <fix>3d</fix>
</trkpt>
<trkpt lat="40.0716384" lon="-105.2289989">
  <ele>1583.0</ele>
  <time>2026-08-28T17:52:59Z</time>
  <course>67.16</course>
  <speed>5.01</speed>
  <fix>3d</fix>
</trkpt>
<trkpt lat="40.0716423" lon="-105.2289863">
  <ele>1583.01</ele>
  <time>2026-08-28T17:52:59Z</time>
  <course>68.43</course>
  <speed>4.995437918741459</speed>
  <fix>3d</fix>
</trkpt>
<trkpt lat="40.0716384" lon="-105.2289989">
  <ele>1583.0</ele>
  <time>2026-08-28T17:52:59Z</time>
  <course>67.16</course>
  <speed>5.01</speed>
  <fix>3d</fix>
</trkpt>
<trkpt lat="40.071644" lon="-105.2289808">
  <ele>1583.01</ele>
  <time>2026-08-28T17:52:59Z</time>
  <course>68.57</course>
  <speed>5.000899919014577</speed>
  <fix>3d</fix>
</trkpt>
<trkpt lat="40.0716419" lon="-105.2289881">
  <ele>1583.0</ele>
  <time>2026-08-28T17:52:59Z</time>
  <course>67.4</course>
  <speed>5.01</speed>
  <fix>3d</fix>
</trkpt>
<trkpt lat="40.0716457" lon="-105.2289753">
  <ele>1583.01</ele>
  <time>2026-08-28T17:52:59Z</time>
  <course>68.7</course>
  <speed>4.993375611748029</speed>
  <fix>3d</fix>
</trkpt>
<trkpt lat="40.0716419" lon="-105.2289881">
  <ele>1583.0</ele>
  <time>2026-08-28T17:52:59Z</time>
  <course>67.4</course>
  <speed>5.01</speed>
  <fix>3d</fix>
</trkpt>
<trkpt lat="40.0716474" lon="-105.2289699">
  <ele>1583.01</ele>
  <time>2026-08-28T17:52:59Z</time>
  <course>68.82</course>
  <speed>4.989639265518099</speed>
  <fix>3d</fix>
</trkpt>
<trkpt lat="40.0716419" lon="-105.2289881">
  <ele>1583.0</ele>
  <time>2026-08-28T17:52:59Z</time>
  <course>67.4</course>
  <speed>5.01</speed>
  <fix>3d</fix>
</trkpt>
<trkpt lat="40.0716491" lon="-105.2289644">
  <ele>1583.0</ele>
  <time>2026-08-28T17:52:59Z</time>
  <course>68.92</course>
  <speed>4.998919883334799</speed>
  <fix>3d</fix>
</trkpt>
<trkpt lat="40.0716453" lon="-105.2289771">
  <ele>1583.0</ele>
  <time>2026-08-28T17:52:59Z</time>
  <course>67.66</course>
  <speed>5.01</speed>
  <fix>3d</fix>
</trkpt>
<trkpt lat="40.0716508" lon="-105.228959">
  <ele>1583.0</ele>
  <time>2026-08-28T17:52:59Z</time>
  <course>68.99</course>
  <speed>4.995207703389319</speed>
  <fix>3d</fix>
</trkpt>
<trkpt lat="40.0716453" lon="-105.2289771">
  <ele>1583.0</ele>
  <time>2026-08-28T17:52:59Z</time>
  <course>67.66</course>
  <speed>5.01</speed>
  <fix>3d</fix>
</trkpt>
<trkpt lat="40.0716525" lon="-105.2289536">
  <ele>1583.0</ele>
  <time>2026-08-28T17:52:59Z</time>
  <course>69.06</course>
  <speed>4.991512796738079</speed>
  <fix>3d</fix>
</trkpt>
<trkpt lat="40.0716488" lon="-105.2289662">
  <ele>1583.0</ele>
  <time>2026-08-28T17:52:59Z</time>
  <course>67.87</course>
  <speed>5.01</speed>
  <fix>3d</fix>
</trkpt>
<trkpt lat="40.0716541" lon="-105.2289482">
  <ele>1583.0</ele>
  <time>2026-08-28T17:52:59Z</time>
  <course>69.12</course>
  <speed>4.991512796738079</speed>
  <fix>3d</fix>
</trkpt>
<trkpt lat="40.0716488" lon="-105.2289662">
  <ele>1583.0</ele>
  <time>2026-08-28T17:52:59Z</time>
  <course>67.87</course>
  <speed>5.01</speed>
  <fix>3d</fix>
</trkpt>
<trkpt lat="40.0716558" lon="-105.2289428">
  <ele>1583.0</ele>
  <time>2026-08-28T17:52:59Z</time>
  <course>69.19</course>
  <speed>4.987835201768398</speed>
  <fix>3d</fix>
</trkpt>
<trkpt lat="40.0716522" lon="-105.2289553">
  <ele>1583.0</ele>
  <time>2026-08-28T17:52:59Z</time>
  <course>68.02</course>
  <speed>5.01</speed>
  <fix>3d</fix>
</trkpt>
<trkpt lat="40.0716575" lon="-105.2289373">
  <ele>1583.0</ele>
  <time>2026-08-28T17:52:59Z</time>
  <course>69.33</course>
  <speed>4.984174956800774</speed>
  <fix>3d</fix>
</trkpt>
<trkpt lat="40.0716555" lon="-105.2289444">
  <ele>1583.0</ele>
  <time>2026-08-28T17:52:59Z</time>
  <course>68.19</course>
  <speed>5.01</speed>
  <fix>3d</fix>
</trkpt>
<trkpt lat="40.0716591" lon="-105.2289319">
  <ele>1582.99</ele>
  <time>2026-08-28T17:52:59Z</time>
  <course>69.46</course>
  <speed>4.989849697135175</speed>
  <fix>3d</fix>
</trkpt>
<trkpt lat="40.0716555" lon="-105.2289444">
  <ele>1583.0</ele>
  <time>2026-08-28T17:52:59Z</time>
  <course>68.19</course>
  <speed>5.01</speed>
  <fix>3d</fix>
</trkpt>
<trkpt lat="40.0716608" lon="-105.2289264">
  <ele>1582.99</ele>
  <time>2026-08-28T17:52:59Z</time>
  <course>69.6</course>
  <speed>4.986231041578399</speed>
  <fix>3d</fix>
</trkpt>
<trkpt lat="40.0716588" lon="-105.2289335">
  <ele>1583.0</ele>
  <time>2026-08-28T17:52:59Z</time>
  <course>68.43</course>
  <speed>5.01</speed>
  <fix>3d</fix>
</trkpt>
<trkpt lat="40.0716624" lon="-105.2289209">
  <ele>1582.99</ele>
  <time>2026-08-28T17:52:59Z</time>
  <course>69.74</course>
  <speed>4.991963541533532</speed>
  <fix>3d</fix>
</trkpt>
<trkpt lat="40.0716588" lon="-105.2289335">
  <ele>1583.0</ele>
  <time>2026-08-28T17:52:59Z</time>
  <course>68.43</course>
  <speed>5.01</speed>
  <fix>3d</fix>
</trkpt>
<trkpt lat="40.071664" lon="-105.2289154">
  <ele>1582.98</ele>
  <time>2026-08-28T17:52:59Z</time>
  <course>69.86</course>
  <speed>4.988386512691253</speed>
  <fix>3d</fix>
</trkpt>
<trkpt lat="40.0716621" lon="-105.2289225">
  <ele>1583.0</ele>
  <time>2026-08-28T17:52:59Z</time>
  <course>68.7</course>
  <speed>5.02</speed>
  <fix>3d</fix>
</trkpt>
<trkpt lat="40.0716657" lon="-105.2289099">
  <ele>1582.98</ele>
  <time>2026-08-28T17:52:59Z</time>
  <course>69.94</course>
  <speed>4.9941766088115065</speed>
  <fix>3d</fix>
</trkpt>
<trkpt lat="40.0716621" lon="-105.2289225">
  <ele>1583.0</ele>
  <time>2026-08-28T17:52:59Z</time>
  <course>68.7</course>
  <speed>5.02</speed>
  <fix>3d</fix>
</trkpt>
<trkpt lat="40.0716673" lon="-105.2289044">
  <ele>1582.98</ele>
  <time>2026-08-28T17:52:59Z</time>
  <course>70.02</course>
  <speed>4.9941766088115065</speed>
  <fix>3d</fix>
</trkpt>
<trkpt lat="40.0716654" lon="-105.2289115">
  <ele>1583.0</ele>
  <time>2026-08-28T17:52:59Z</time>
  <course>68.91</course>
  <speed>5.02</speed>
  <fix>3d</fix>
</trkpt>
<trkpt lat="40.0716689" lon="-105.2288989">
  <ele>1582.98</ele>
  <time>2026-08-28T17:52:59Z</time>
  <course>70.09</course>
  <speed>5.0</speed>
  <fix>3d</fix>
</trkpt>
<trkpt lat="40.0716654" lon="-105.2289115">
  <ele>1583.0</ele>
  <time>2026-08-28T17:52:59Z</time>
  <course>68.91</course>
  <speed>5.02</speed>
  <fix>3d</fix>
</trkpt>
<trkpt lat="40.0716705" lon="-105.2288933">
  <ele>1582.98</ele>
  <time>2026-08-28T17:52:59Z</time>
  <course>70.16</course>
  <speed>5.0</speed>
  <fix>3d</fix>
</trkpt>
<trkpt lat="40.0716686" lon="-105.2289005">
  <ele>1583.0</ele>
  <time>2026-08-28T17:52:59Z</time>
  <course>69.06</course>
  <speed>5.02</speed>
  <fix>3d</fix>
</trkpt>
<trkpt lat="40.0716721" lon="-105.2288877">
  <ele>1582.98</ele>
  <time>2026-08-28T17:52:59Z</time>
  <course>70.23</course>
  <speed>4.99648876712437</speed>
  <fix>3d</fix>
</trkpt>
<trkpt lat="40.0716686" lon="-105.2289005">
  <ele>1583.0</ele>
  <time>2026-08-28T17:52:59Z</time>
  <course>69.06</course>
  <speed>5.02</speed>
  <fix>3d</fix>
</trkpt>
<trkpt lat="40.0716737" lon="-105.2288822">
  <ele>1582.98</ele>
  <time>2026-08-28T17:52:59Z</time>
  <course>70.26</course>
  <speed>4.99648876712437</speed>
  <fix>3d</fix>
</trkpt>
<trkpt lat="40.0716719" lon="-105.2288895">
  <ele>1583.0</ele>
  <time>2026-08-28T17:52:59Z</time>
  <course>69.17</course>
  <speed>5.02</speed>
  <fix>3d</fix>
</trkpt>
<trkpt lat="40.0716754" lon="-105.2288767">
  <ele>1582.97</ele>
  <time>2026-08-28T17:52:59Z</time>
  <course>70.23</course>
  <speed>4.99648876712437</speed>
  <fix>3d</fix>
</trkpt>
<trkpt lat="40.0716719" lon="-105.2288895">
  <ele>1583.0</ele>
  <time>2026-08-28T17:52:59Z</time>
  <course>69.17</course>
  <speed>5.02</speed>
  <fix>3d</fix>
</trkpt>
<trkpt lat="40.071677" lon="-105.2288711">
  <ele>1582.97</ele>
  <time>2026-08-28T17:52:59Z</time>
  <course>70.08</course>
  <speed>5.003528754788964</speed>
  <fix>3d</fix>
</trkpt>
<trkpt lat="40.071675" lon="-105.2288784">
  <ele>1583.0</ele>
  <time>2026-08-28T17:52:59Z</time>
  <course>69.13</course>
  <speed>5.01</speed>
  <fix>3d</fix>
</trkpt>
<trkpt lat="40.0716786" lon="-105.2288656">
  <ele>1582.98</ele>
  <time>2026-08-28T17:52:59Z</time>
  <course>69.86</course>
  <speed>4.997729484475926</speed>
  <fix>3d</fix>
</trkpt>
<trkpt lat="40.071675" lon="-105.2288784">
  <ele>1583.0</ele>
  <time>2026-08-28T17:52:59Z</time>
  <course>69.13</course>
  <speed>5.01</speed>
  <fix>3d</fix>
</trkpt>
<trkpt lat="40.0716802" lon="-105.2288601">
  <ele>1582.98</ele>
  <time>2026-08-28T17:52:59Z</time>
  <course>69.66</course>
  <speed>4.995558026887487</speed>
  <fix>3d</fix>
</trkpt>
<trkpt lat="40.071675" lon="-105.2288784">
  <ele>1583.0</ele>
  <time>2026-08-28T17:52:59Z</time>
  <course>69.13</course>
  <speed>5.01</speed>
  <fix>3d</fix>
</trkpt>
<trkpt lat="40.0716819" lon="-105.2288546">
  <ele>1582.98</ele>
  <time>2026-08-28T17:52:59Z</time>
  <course>69.46</course>
  <speed>5.002799216438733</speed>
  <fix>3d</fix>
</trkpt>
<trkpt lat="40.0716783" lon="-105.2288674">
  <ele>1583.0</ele>
  <time>2026-08-28T17:52:59Z</time>
  <course>68.83</course>
  <speed>5.01</speed>
  <fix>3d</fix>
</trkpt>
<trkpt lat="40.0716835" lon="-105.2288492">
  <ele>1582.98</ele>
  <time>2026-08-28T17:52:59Z</time>
  <course>69.25</course>
  <speed>4.997139181571792</speed>
  <fix>3d</fix>
</trkpt>
<trkpt lat="40.0716783" lon="-105.2288674">
  <ele>1583.0</ele>
  <time>2026-08-28T17:52:59Z</time>
  <course>68.83</course>
  <speed>5.01</speed>
  <fix>3d</fix>
</trkpt>
<trkpt lat="40.0716852" lon="-105.2288438">
  <ele>1582.99</ele>
  <time>2026-08-28T17:52:59Z</time>
  <course>69.1</course>
  <speed>4.995207703389319</speed>
  <fix>3d</fix>
</trkpt>
<trkpt lat="40.0716816" lon="-105.2288565">
  <ele>1583.0</ele>
  <time>2026-08-28T17:52:59Z</time>
  <course>68.42</course>
  <speed>5.01</speed>
  <fix>3d</fix>
</trkpt>
<trkpt lat="40.0716869" lon="-105.2288384">
  <ele>1582.99</ele>
  <time>2026-08-28T17:52:59Z</time>
  <course>68.97</course>
  <speed>4.989639265518099</speed>
  <fix>3d</fix>
</trkpt>
<trkpt lat="40.0716816" lon="-105.2288565">
  <ele>1583.0</ele>
  <time>2026-08-28T17:52:59Z</time>
  <course>68.42</course>
  <speed>5.01</speed>
  <fix>3d</fix>
</trkpt>
<trkpt lat="40.0716886" lon="-105.228833">
  <ele>1582.99</ele>
  <time>2026-08-28T17:52:59Z</time>
  <course>68.83</course>
  <speed>4.984104734052044</speed>
  <fix>3d</fix>
</trkpt>
<trkpt lat="40.0716849" lon="-105.2288456">
  <ele>1583.0</ele>
  <time>2026-08-28T17:52:59Z</time>
  <course>68.07</course>
  <speed>5.01</speed>
  <fix>3d</fix>
</trkpt>
<trkpt lat="40.0716903" lon="-105.2288276">
  <ele>1583.0</ele>
  <time>2026-08-28T17:52:59Z</time>
  <course>68.71</course>
  <speed>4.98786527484454</speed>
  <fix>3d</fix>
</trkpt>
<trkpt lat="40.0716849" lon="-105.2288456">
  <ele>1583.0</ele>
  <time>2026-08-28T17:52:59Z</time>
  <course>68.07</course>
  <speed>5.01</speed>
  <fix>3d</fix>
</trkpt>
<trkpt lat="40.071692" lon="-105.2288222">
  <ele>1583.0</ele>
  <time>2026-08-28T17:52:59Z</time>
  <course>68.69</course>
  <speed>4.98786527484454</speed>
  <fix>3d</fix>
</trkpt>
<trkpt lat="40.0716883" lon="-105.2288347">
  <ele>1583.0</ele>
  <time>2026-08-28T17:52:59Z</time>
  <course>67.8</course>
  <speed>5.01</speed>
  <fix>3d</fix>
</trkpt>
<trkpt lat="40.0716937" lon="-105.2288168">
  <ele>1583.0</ele>
  <time>2026-08-28T17:52:59Z</time>
  <course>68.69</course>
  <speed>4.98786527484454</speed>
  <fix>3d</fix>
</trkpt>
<trkpt lat="40.0716917" lon="-105.2288238">
  <ele>1583.0</ele>
  <time>2026-08-28T17:52:59Z</time>
  <course>67.66</course>
  <speed>5.01</speed>
  <fix>3d</fix>
</trkpt>
<trkpt lat="40.0716954" lon="-105.2288114">
  <ele>1583.0</ele>
  <time>2026-08-28T17:52:59Z</time>
  <course>68.69</course>
  <speed>4.98786527484454</speed>
  <fix>3d</fix>
</trkpt>
<trkpt lat="40.0716917" lon="-105.2288238">
  <ele>1583.0</ele>
  <time>2026-08-28T17:52:59Z</time>
  <course>67.66</course>
  <speed>5.01</speed>
  <fix>3d</fix>
</trkpt>
<trkpt lat="40.0716971" lon="-105.228806">
  <ele>1583.0</ele>
  <time>2026-08-28T17:52:59Z</time>
  <course>68.69</course>
  <speed>4.98786527484454</speed>
  <fix>3d</fix>
</trkpt>
<trkpt lat="40.0716951" lon="-105.2288129">
  <ele>1583.0</ele>
  <time>2026-08-28T17:52:59Z</time>
  <course>67.66</course>
  <speed>5.01</speed>
  <fix>3d</fix>
</trkpt>
<trkpt lat="40.0716988" lon="-105.2288005">
  <ele>1583.0</ele>
  <time>2026-08-28T17:52:59Z</time>
  <course>68.7</course>
  <speed>4.98786527484454</speed>
  <fix>3d</fix>
</trkpt>
<trkpt lat="40.0716951" lon="-105.2288129">
  <ele>1583.0</ele>
  <time>2026-08-28T17:52:59Z</time>
  <course>67.66</course>
  <speed>5.01</speed>
  <fix>3d</fix>
</trkpt>
<trkpt lat="40.0717005" lon="-105.2287951">
  <ele>1583.0</ele>
  <time>2026-08-28T17:52:59Z</time>
  <course>68.7</course>
  <speed>4.98786527484454</speed>
  <fix>3d</fix>
</trkpt>
<trkpt lat="40.0716986" lon="-105.228802">
  <ele>1583.0</ele>
  <time>2026-08-28T17:52:59Z</time>
  <course>67.66</course>
  <speed>5.02</speed>
  <fix>3d</fix>
</trkpt>
<trkpt lat="40.0717023" lon="-105.2287896">
  <ele>1583.0</ele>
  <time>2026-08-28T17:52:59Z</time>
  <course>68.69</course>
  <speed>4.98786527484454</speed>
  <fix>3d</fix>
</trkpt>
<trkpt lat="40.0716986" lon="-105.228802">
  <ele>1583.0</ele>
  <time>2026-08-28T17:52:59Z</time>
  <course>67.66</course>
  <speed>5.02</speed>
  <fix>3d</fix>
</trkpt>
<trkpt lat="40.071704" lon="-105.2287841">
  <ele>1583.0</ele>
  <time>2026-08-28T17:52:59Z</time>
  <course>68.69</course>
  <speed>4.997129175836863</speed>
  <fix>3d</fix>
</trkpt>
<trkpt lat="40.071702" lon="-105.2287911">
  <ele>1583.0</ele>
  <time>2026-08-28T17:52:59Z</time>
  <course>67.65</course>
  <speed>5.02</speed>
  <fix>3d</fix>
</trkpt>
<trkpt lat="40.0717057" lon="-105.2287786">
  <ele>1583.01</ele>
  <time>2026-08-28T17:52:59Z</time>
  <course>68.66</course>
  <speed>5.000899919014577</speed>
  <fix>3d</fix>
</trkpt>
<trkpt lat="40.071702" lon="-105.2287911">
  <ele>1583.0</ele>
  <time>2026-08-28T17:52:59Z</time>
  <course>67.65</course>
  <speed>5.02</speed>
  <fix>3d</fix>
</trkpt>
<trkpt lat="40.0717075" lon="-105.2287731">
  <ele>1583.01</ele>
  <time>2026-08-28T17:52:59Z</time>
  <course>68.66</course>
  <speed>5.000899919014577</speed>
  <fix>3d</fix>
</trkpt>
<trkpt lat="40.0717054" lon="-105.2287802">
  <ele>1583.0</ele>
  <time>2026-08-28T17:52:59Z</time>
  <course>67.63</course>
  <speed>5.02</speed>
  <fix>3d</fix>
</trkpt>
<trkpt lat="40.0717092" lon="-105.2287676">
  <ele>1583.01</ele>
  <time>2026-08-28T17:52:59Z</time>
  <course>68.67</course>
  <speed>5.000899919014577</speed>
  <fix>3d</fix>
</trkpt>
<trkpt lat="40.0717054" lon="-105.2287802">
  <ele>1583.0</ele>
  <time>2026-08-28T17:52:59Z</time>
  <course>67.63</course>
  <speed>5.02</speed>
  <fix>3d</fix>
</trkpt>
<trkpt lat="40.0717109" lon="-105.2287621">
  <ele>1583.01</ele>
  <time>2026-08-28T17:52:59Z</time>
  <course>68.67</course>
  <speed>5.000899919014577</speed>
  <fix>3d</fix>
</trkpt>
<trkpt lat="40.0717089" lon="-105.2287693">
  <ele>1583.0</ele>
  <time>2026-08-28T17:52:59Z</time>
  <course>67.62</course>
  <speed>5.02</speed>
  <fix>3d</fix>
</trkpt>
<trkpt lat="40.0717127" lon="-105.2287567">
  <ele>1583.01</ele>
  <time>2026-08-28T17:52:59Z</time>
  <course>68.67</course>
  <speed>5.000899919014577</speed>
  <fix>3d</fix>
</trkpt>
<trkpt lat="40.0717089" lon="-105.2287693">
  <ele>1583.0</ele>
  <time>2026-08-28T17:52:59Z</time>
  <course>67.62</course>
  <speed>5.02</speed>
  <fix>3d</fix>
</trkpt>
<trkpt lat="40.0717144" lon="-105.2287512">
  <ele>1583.01</ele>
  <time>2026-08-28T17:52:59Z</time>
  <course>68.67</course>
  <speed>5.000899919014577</speed>
  <fix>3d</fix>
</trkpt>
<trkpt lat="40.0717123" lon="-105.2287584">
  <ele>1583.0</ele>
  <time>2026-08-28T17:52:59Z</time>
  <course>67.62</course>
  <speed>5.01</speed>
  <fix>3d</fix>
</trkpt>
<trkpt lat="40.0717161" lon="-105.2287457">
  <ele>1583.01</ele>
  <time>2026-08-28T17:52:59Z</time>
  <course>68.69</course>
  <speed>5.000899919014577</speed>
  <fix>3d</fix>
</trkpt>
<trkpt lat="40.0717123" lon="-105.2287584">
  <ele>1583.0</ele>
  <time>2026-08-28T17:52:59Z</time>
  <course>67.62</course>
  <speed>5.01</speed>
  <fix>3d</fix>
</trkpt>
<trkpt lat="40.0717178" lon="-105.2287402">
  <ele>1583.02</ele>
  <time>2026-08-28T17:52:59Z</time>
  <course>68.69</course>
  <speed>5.000899919014577</speed>
  <fix>3d</fix>
</trkpt>
<trkpt lat="40.0717123" lon="-105.2287584">
  <ele>1583.0</ele>
  <time>2026-08-28T17:52:59Z</time>
  <course>67.62</course>
  <speed>5.01</speed>
  <fix>3d</fix>
</trkpt>
<trkpt lat="40.0717196" lon="-105.2287348">
  <ele>1583.02</ele>
  <time>2026-08-28T17:52:59Z</time>
  <course>68.7</course>
  <speed>5.000899919014577</speed>
  <fix>3d</fix>
</trkpt>
<trkpt lat="40.0717157" lon="-105.2287475">
  <ele>1583.0</ele>
  <time>2026-08-28T17:52:59Z</time>
  <course>67.62</course>
  <speed>5.01</speed>
  <fix>3d</fix>
</trkpt>
<trkpt lat="40.0717213" lon="-105.2287294">
  <ele>1583.02</ele>
  <time>2026-08-28T17:52:59Z</time>
  <course>68.7</course>
  <speed>4.98786527484454</speed>
  <fix>3d</fix>
</trkpt>
<trkpt lat="40.0717157" lon="-105.2287475">
  <ele>1583.0</ele>
  <time>2026-08-28T17:52:59Z</time>
  <course>67.62</course>
  <speed>5.01</speed>
  <fix>3d</fix>
</trkpt>
<trkpt lat="40.071723" lon="-105.228724">
  <ele>1583.02</ele>
  <time>2026-08-28T17:52:59Z</time>
  <course>68.71</course>
  <speed>4.98786527484454</speed>
  <fix>3d</fix>
</trkpt>
<trkpt lat="40.0717191" lon="-105.2287366">
  <ele>1583.0</ele>
  <time>2026-08-28T17:52:59Z</time>
  <course>67.64</course>
  <speed>5.01</speed>
  <fix>3d</fix>
</trkpt>
<trkpt lat="40.0717246" lon="-105.2287186">
  <ele>1583.02</ele>
  <time>2026-08-28T17:52:59Z</time>
  <course>68.75</course>
  <speed>4.98786527484454</speed>
  <fix>3d</fix>
</trkpt>
<trkpt lat="40.0717191" lon="-105.2287366">
  <ele>1583.0</ele>
  <time>2026-08-28T17:52:59Z</time>
  <course>67.64</course>
  <speed>5.01</speed>
  <fix>3d</fix>
</trkpt>
<trkpt lat="40.0717263" lon="-105.2287132">
  <ele>1583.02</ele>
  <time>2026-08-28T17:52:59Z</time>
  <course>68.89</course>
  <speed>4.993375611748029</speed>
  <fix>3d</fix>
</trkpt>
<trkpt lat="40.0717226" lon="-105.2287257">
  <ele>1583.0</ele>
  <time>2026-08-28T17:52:59Z</time>
  <course>67.67</course>
  <speed>5.01</speed>
  <fix>3d</fix>
</trkpt>
<trkpt lat="40.071728" lon="-105.2287078">
  <ele>1583.02</ele>
  <time>2026-08-28T17:52:59Z</time>
  <course>69.02</course>
  <speed>4.985920175855205</speed>
  <fix>3d</fix>
</trkpt>
<trkpt lat="40.071726" lon="-105.2287148">
  <ele>1583.0</ele>
  <time>2026-08-28T17:52:59Z</time>
  <course>67.84</course>
  <speed>5.01</speed>
  <fix>3d</fix>
</trkpt>
<trkpt lat="40.0717297" lon="-105.2287023">
  <ele>1583.02</ele>
  <time>2026-08-28T17:52:59Z</time>
  <course>69.13</course>
  <speed>4.985920175855205</speed>
  <fix>3d</fix>
</trkpt>
<trkpt lat="40.071726" lon="-105.2287148">
  <ele>1583.0</ele>
  <time>2026-08-28T17:52:59Z</time>
  <course>67.84</course>
  <speed>5.01</speed>
  <fix>3d</fix>
</trkpt>
<trkpt lat="40.0717314" lon="-105.2286969">
  <ele>1583.01</ele>
  <time>2026-08-28T17:52:59Z</time>
  <course>69.23</course>
  <speed>4.991512796738079</speed>
  <fix>3d</fix>
</trkpt>
<trkpt lat="40.0717293" lon="-105.2287039">
  <ele>1583.0</ele>
  <time>2026-08-28T17:52:59Z</time>
  <course>68.07</course>
  <speed>5.01</speed>
  <fix>3d</fix>
</trkpt>
<trkpt lat="40.071733" lon="-105.2286914">
  <ele>1583.01</ele>
  <time>2026-08-28T17:52:59Z</time>
  <course>69.3</course>
  <speed>4.987835201768398</speed>
  <fix>3d</fix>
</trkpt>
<trkpt lat="40.0717293" lon="-105.2287039">
  <ele>1583.0</ele>
  <time>2026-08-28T17:52:59Z</time>
  <course>68.07</course>
  <speed>5.01</speed>
  <fix>3d</fix>
</trkpt>
<trkpt lat="40.0717347" lon="-105.228686">
  <ele>1583.01</ele>
  <time>2026-08-28T17:52:59Z</time>
  <course>69.37</course>
  <speed>4.987835201768398</speed>
  <fix>3d</fix>
</trkpt>
<trkpt lat="40.0717327" lon="-105.2286929">
  <ele>1583.0</ele>
  <time>2026-08-28T17:52:59Z</time>
  <course>68.24</course>
  <speed>5.02</speed>
  <fix>3d</fix>
</trkpt>
<trkpt lat="40.0717364" lon="-105.2286805">
  <ele>1583.01</ele>
  <time>2026-08-28T17:52:59Z</time>
  <course>69.44</course>
  <speed>4.993485756463114</speed>
  <fix>3d</fix>
</trkpt>
<trkpt lat="40.0717327" lon="-105.2286929">
  <ele>1583.0</ele>
  <time>2026-08-28T17:52:59Z</time>
  <course>68.24</course>
  <speed>5.02</speed>
  <fix>3d</fix>
</trkpt>
<trkpt lat="40.071738" lon="-105.228675">
  <ele>1583.0</ele>
  <time>2026-08-28T17:52:59Z</time>
  <course>69.51</course>
  <speed>4.993485756463114</speed>
  <fix>3d</fix>
</trkpt>
<trkpt lat="40.071736" lon="-105.2286819">
  <ele>1583.0</ele>
  <time>2026-08-28T17:52:59Z</time>
  <course>68.38</course>
  <speed>5.02</speed>
  <fix>3d</fix>
</trkpt>
<trkpt lat="40.0717397" lon="-105.2286694">
  <ele>1583.0</ele>
  <time>2026-08-28T17:52:59Z</time>
  <course>69.58</course>
  <speed>4.999169931098562</speed>
  <fix>3d</fix>
</trkpt>
<trkpt lat="40.071736" lon="-105.2286819">
  <ele>1583.0</ele>
  <time>2026-08-28T17:52:59Z</time>
  <course>68.38</course>
  <speed>5.02</speed>
  <fix>3d</fix>
</trkpt>
<trkpt lat="40.0717414" lon="-105.2286639">
  <ele>1583.0</ele>
  <time>2026-08-28T17:52:59Z</time>
  <course>69.65</course>
  <speed>4.999169931098562</speed>
  <fix>3d</fix>
</trkpt>
<trkpt lat="40.0717394" lon="-105.228671">
  <ele>1583.0</ele>
  <time>2026-08-28T17:52:59Z</time>
  <course>68.52</course>
  <speed>5.02</speed>
  <fix>3d</fix>
</trkpt>
<trkpt lat="40.071743" lon="-105.2286583">
  <ele>1583.0</ele>
  <time>2026-08-28T17:52:59Z</time>
  <course>69.81</course>
  <speed>5.001299831043926</speed>
  <fix>3d</fix>
</trkpt>
<trkpt lat="40.0717394" lon="-105.228671">
  <ele>1583.0</ele>
  <time>2026-08-28T17:52:59Z</time>
  <course>68.52</course>
  <speed>5.02</speed>
  <fix>3d</fix>
</trkpt>
<trkpt lat="40.0717446" lon="-105.2286528">
  <ele>1582.99</ele>
  <time>2026-08-28T17:52:59Z</time>
  <course>69.95</course>
  <speed>4.997729484475926</speed>
  <fix>3d</fix>
</trkpt>
<trkpt lat="40.0717427" lon="-105.2286601">
  <ele>1583.0</ele>
  <time>2026-08-28T17:52:59Z</time>
  <course>68.73</course>
  <speed>5.02</speed>
  <fix>3d</fix>
</trkpt>
<trkpt lat="40.0717463" lon="-105.2286473">
  <ele>1582.99</ele>
  <time>2026-08-28T17:52:59Z</time>
  <course>70.08</course>
  <speed>4.9941766088115065</speed>
  <fix>3d</fix>
</trkpt>
<trkpt lat="40.0717427" lon="-105.2286601">
  <ele>1583.0</ele>
  <time>2026-08-28T17:52:59Z</time>
  <course>68.73</course>
  <speed>5.02</speed>
  <fix>3d</fix>
</trkpt>
<trkpt lat="40.0717479" lon="-105.2286417">
  <ele>1582.99</ele>
  <time>2026-08-28T17:52:59Z</time>
  <course>70.22</course>
  <speed>5.0</speed>
  <fix>3d</fix>
</trkpt>
<trkpt lat="40.0717459" lon="-105.2286491">
  <ele>1583.0</ele>
  <time>2026-08-28T17:52:59Z</time>
  <course>69.02</course>
  <speed>5.02</speed>
  <fix>3d</fix>
</trkpt>
<trkpt lat="40.0717495" lon="-105.2286362">
  <ele>1582.99</ele>
  <time>2026-08-28T17:52:59Z</time>
  <course>70.36</course>
  <speed>4.99648876712437</speed>
  <fix>3d</fix>
</trkpt>
<trkpt lat="40.0717459" lon="-105.2286491">
  <ele>1583.0</ele>
  <time>2026-08-28T17:52:59Z</time>
  <course>69.02</course>
  <speed>5.02</speed>
  <fix>3d</fix>
</trkpt>
<trkpt lat="40.0717511" lon="-105.2286307">
  <ele>1582.99</ele>
  <time>2026-08-28T17:52:59Z</time>
  <course>70.49</course>
  <speed>5.002369438576084</speed>
  <fix>3d</fix>
</trkpt>
<trkpt lat="40.0717459" lon="-105.2286491">
  <ele>1583.0</ele>
  <time>2026-08-28T17:52:59Z</time>
  <course>69.02</course>
  <speed>5.02</speed>
  <fix>3d</fix>
</trkpt>
<trkpt lat="40.0717527" lon="-105.2286252">
  <ele>1582.99</ele>
  <time>2026-08-28T17:52:59Z</time>
  <course>70.57</course>
  <speed>4.998899878973373</speed>
  <fix>3d</fix>
</trkpt>
<trkpt lat="40.0717492" lon="-105.228638">
  <ele>1583.0</ele>
  <time>2026-08-28T17:52:59Z</time>
  <course>69.29</course>
  <speed>5.01</speed>
  <fix>3d</fix>
</trkpt>
<trkpt lat="40.0717542" lon="-105.2286197">
  <ele>1582.99</ele>
  <time>2026-08-28T17:52:59Z</time>
  <course>70.66</course>
  <speed>4.9954479278639266</speed>
  <fix>3d</fix>
</trkpt>
<trkpt lat="40.0717492" lon="-105.228638">
  <ele>1583.0</ele>
  <time>2026-08-28T17:52:59Z</time>
  <course>69.29</course>
  <speed>5.01</speed>
  <fix>3d</fix>
</trkpt>
<trkpt lat="40.0717558" lon="-105.2286142">
  <ele>1582.99</ele>
  <time>2026-08-28T17:52:59Z</time>
  <course>70.72</course>
  <speed>4.9954479278639266</speed>
  <fix>3d</fix>
</trkpt>
<trkpt lat="40.0717523" lon="-105.2286269">
  <ele>1583.0</ele>
  <time>2026-08-28T17:52:59Z</time>
  <course>69.51</course>
  <speed>5.01</speed>
  <fix>3d</fix>
</trkpt>
<trkpt lat="40.0717573" lon="-105.2286088">
  <ele>1582.99</ele>
  <time>2026-08-28T17:52:59Z</time>
  <course>70.8</course>
  <speed>4.9920136217762865</speed>
  <fix>3d</fix>
</trkpt>
<trkpt lat="40.0717523" lon="-105.2286269">
  <ele>1583.0</ele>
  <time>2026-08-28T17:52:59Z</time>
  <course>69.51</course>
  <speed>5.01</speed>
  <fix>3d</fix>
</trkpt>
<trkpt lat="40.0717589" lon="-105.2286033">
  <ele>1582.99</ele>
  <time>2026-08-28T17:52:59Z</time>
  <course>70.98</course>
  <speed>4.985198090347063</speed>
  <fix>3d</fix>
</trkpt>
<trkpt lat="40.0717554" lon="-105.2286159">
  <ele>1583.0</ele>
  <time>2026-08-28T17:52:59Z</time>
  <course>69.67</course>
  <speed>5.01</speed>
  <fix>3d</fix>
</trkpt>
<trkpt lat="40.0717604" lon="-105.2285978">
  <ele>1582.99</ele>
  <time>2026-08-28T17:52:59Z</time>
  <course>71.14</course>
  <speed>4.991232312766057</speed>
  <fix>3d</fix>
</trkpt>
<trkpt lat="40.0717554" lon="-105.2286159">
  <ele>1583.0</ele>
  <time>2026-08-28T17:52:59Z</time>
  <course>69.67</course>
  <speed>5.01</speed>
  <fix>3d</fix>
</trkpt>
<trkpt lat="40.0717619" lon="-105.2285923">
  <ele>1582.99</ele>
  <time>2026-08-28T17:52:59Z</time>
  <course>71.28</course>
  <speed>4.987875299162962</speed>
  <fix>3d</fix>
</trkpt>
<trkpt lat="40.0717585" lon="-105.2286048">
  <ele>1583.0</ele>
  <time>2026-08-28T17:52:59Z</time>
  <course>69.91</course>
  <speed>5.01</speed>
  <fix>3d</fix>
</trkpt>
<trkpt lat="40.0717634" lon="-105.2285868">
  <ele>1582.99</ele>
  <time>2026-08-28T17:52:59Z</time>
  <course>71.41</course>
  <speed>4.981214711292819</speed>
  <fix>3d</fix>
</trkpt>
<trkpt lat="40.0717616" lon="-105.2285938">
  <ele>1583.0</ele>
  <time>2026-08-28T17:52:59Z</time>
  <course>70.22</course>
  <speed>5.02</speed>
  <fix>3d</fix>
</trkpt>
<trkpt lat="40.0717649" lon="-105.2285812">
  <ele>1583.0</ele>
  <time>2026-08-28T17:52:59Z</time>
  <course>71.55</course>
  <speed>4.987354007888351</speed>
  <fix>3d</fix>
</trkpt>
<trkpt lat="40.0717616" lon="-105.2285938">
  <ele>1583.0</ele>
  <time>2026-08-28T17:52:59Z</time>
  <course>70.22</course>
  <speed>5.02</speed>
  <fix>3d</fix>
</trkpt>
<trkpt lat="40.0717664" lon="-105.2285757">
  <ele>1583.0</ele>
  <time>2026-08-28T17:52:59Z</time>
  <course>71.68</course>
  <speed>4.984074638285426</speed>
  <fix>3d</fix>
</trkpt>
<trkpt lat="40.0717647" lon="-105.2285827">
  <ele>1583.0</ele>
  <time>2026-08-28T17:52:59Z</time>
  <course>70.49</course>
  <speed>5.02</speed>
  <fix>3d</fix>
</trkpt>
<trkpt lat="40.0717679" lon="-105.2285701">
  <ele>1582.99</ele>
  <time>2026-08-28T17:52:59Z</time>
  <course>71.82</course>
  <speed>4.990270533748646</speed>
  <fix>3d</fix>
</trkpt>
<trkpt lat="40.0717647" lon="-105.2285827">
  <ele>1583.0</ele>
  <time>2026-08-28T17:52:59Z</time>
  <course>70.49</course>
  <speed>5.02</speed>
  <fix>3d</fix>
</trkpt>
<trkpt lat="40.0717693" lon="-105.2285646">
  <ele>1582.99</ele>
  <time>2026-08-28T17:52:59Z</time>
  <course>71.89</course>
  <speed>4.990270533748646</speed>
  <fix>3d</fix>
</trkpt>
<trkpt lat="40.0717676" lon="-105.2285716">
  <ele>1583.0</ele>
  <time>2026-08-28T17:52:59Z</time>
  <course>70.73</course>
  <speed>5.02</speed>
  <fix>3d</fix>
</trkpt>
<trkpt lat="40.0717708" lon="-105.2285589">
  <ele>1582.99</ele>
  <time>2026-08-28T17:52:59Z</time>
  <course>71.97</course>
  <speed>4.996498774141749</speed>
  <fix>3d</fix>
</trkpt>
<trkpt lat="40.0717676" lon="-105.2285716">
  <ele>1583.0</ele>
  <time>2026-08-28T17:52:59Z</time>
  <course>70.73</course>
  <speed>5.02</speed>
  <fix>3d</fix>
</trkpt>
<trkpt lat="40.0717723" lon="-105.2285533">
  <ele>1582.99</ele>
  <time>2026-08-28T17:52:59Z</time>
  <course>72.04</course>
  <speed>4.993285491537611</speed>
  <fix>3d</fix>
</trkpt>
<trkpt lat="40.0717706" lon="-105.2285604">
  <ele>1583.0</ele>
  <time>2026-08-28T17:52:59Z</time>
  <course>70.91</course>
  <speed>5.02</speed>
  <fix>3d</fix>
</trkpt>
<trkpt lat="40.0717738" lon="-105.2285477">
  <ele>1582.99</ele>
  <time>2026-08-28T17:52:59Z</time>
  <course>72.05</course>
  <speed>4.993285491537611</speed>
  <fix>3d</fix>
</trkpt>
<trkpt lat="40.0717706" lon="-105.2285604">
  <ele>1583.0</ele>
  <time>2026-08-28T17:52:59Z</time>
  <course>70.91</course>
  <speed>5.02</speed>
  <fix>3d</fix>
</trkpt>
<trkpt lat="40.0717753" lon="-105.2285421">
  <ele>1582.99</ele>
  <time>2026-08-28T17:52:59Z</time>
  <course>72.0</course>
  <speed>4.996498774141749</speed>
  <fix>3d</fix>
</trkpt>
<trkpt lat="40.0717736" lon="-105.2285493">
  <ele>1583.0</ele>
  <time>2026-08-28T17:52:59Z</time>
  <course>70.96</course>
  <speed>5.02</speed>
  <fix>3d</fix>
</trkpt>
<trkpt lat="40.0717768" lon="-105.2285364">
  <ele>1582.99</ele>
  <time>2026-08-28T17:52:59Z</time>
  <course>71.82</course>
  <speed>5.002979112488878</speed>
  <fix>3d</fix>
</trkpt>
<trkpt lat="40.0717736" lon="-105.2285493">
  <ele>1583.0</ele>
  <time>2026-08-28T17:52:59Z</time>
  <course>70.96</course>
  <speed>5.02</speed>
  <fix>3d</fix>
</trkpt>
<trkpt lat="40.0717783" lon="-105.2285308">
  <ele>1582.99</ele>
  <time>2026-08-28T17:52:59Z</time>
  <course>71.61</course>
  <speed>4.996798975344115</speed>
  <fix>3d</fix>
</trkpt>
<trkpt lat="40.0717765" lon="-105.2285381">
  <ele>1583.0</ele>
  <time>2026-08-28T17:52:59Z</time>
  <course>70.75</course>
  <speed>5.02</speed>
  <fix>3d</fix>
</trkpt>
<trkpt lat="40.0717798" lon="-105.2285252">
  <ele>1582.99</ele>
  <time>2026-08-28T17:52:59Z</time>
  <course>71.45</course>
  <speed>5.003398844785412</speed>
  <fix>3d</fix>
</trkpt>
<trkpt lat="40.0717765" lon="-105.2285381">
  <ele>1583.0</ele>
  <time>2026-08-28T17:52:59Z</time>
  <course>70.75</course>
  <speed>5.02</speed>
  <fix>3d</fix>
</trkpt>
<trkpt lat="40.0717813" lon="-105.2285197">
  <ele>1582.99</ele>
  <time>2026-08-28T17:52:59Z</time>
  <course>71.31</course>
  <speed>5.006725476796186</speed>
  <fix>3d</fix>
</trkpt>
<trkpt lat="40.0717795" lon="-105.228527">
  <ele>1583.0</ele>
  <time>2026-08-28T17:52:59Z</time>
  <course>70.41</course>
  <speed>5.02</speed>
  <fix>3d</fix>
</trkpt>
<trkpt lat="40.0717828" lon="-105.2285141">
  <ele>1582.99</ele>
  <time>2026-08-28T17:52:59Z</time>
  <course>71.18</course>
  <speed>5.000649957755492</speed>
  <fix>3d</fix>
</trkpt>
<trkpt lat="40.0717795" lon="-105.228527">
  <ele>1583.0</ele>
  <time>2026-08-28T17:52:59Z</time>
  <course>70.41</course>
  <speed>5.02</speed>
  <fix>3d</fix>
</trkpt>
<trkpt lat="40.0717844" lon="-105.2285085">
  <ele>1582.99</ele>
  <time>2026-08-28T17:52:59Z</time>
  <course>71.04</course>
  <speed>5.004018385257992</speed>
  <fix>3d</fix>
</trkpt>
<trkpt lat="40.0717795" lon="-105.228527">
  <ele>1583.0</ele>
  <time>2026-08-28T17:52:59Z</time>
  <course>70.41</course>
  <speed>5.02</speed>
  <fix>3d</fix>
</trkpt>
<trkpt lat="40.0717859" lon="-105.228503">
  <ele>1583.0</ele>
  <time>2026-08-28T17:52:59Z</time>
  <course>70.9</course>
  <speed>4.99799959983992</speed>
  <fix>3d</fix>
</trkpt>
<trkpt lat="40.0717825" lon="-105.2285158">
  <ele>1583.0</ele>
  <time>2026-08-28T17:52:59Z</time>
  <course>70.12</course>
  <speed>5.02</speed>
  <fix>3d</fix>
</trkpt>
<trkpt lat="40.0717875" lon="-105.2284975">
  <ele>1583.0</ele>
  <time>2026-08-28T17:52:59Z</time>
  <course>70.77</course>
  <speed>5.001409801246044</speed>
  <fix>3d</fix>
</trkpt>
<trkpt lat="40.0717825" lon="-105.2285158">
  <ele>1583.0</ele>
  <time>2026-08-28T17:52:59Z</time>
  <course>70.12</course>
  <speed>5.02</speed>
  <fix>3d</fix>
</trkpt>
<trkpt lat="40.071789" lon="-105.228492">
  <ele>1583.0</ele>
  <time>2026-08-28T17:52:59Z</time>
  <course>70.73</course>
  <speed>4.9920136217762865</speed>
  <fix>3d</fix>
</trkpt>
<trkpt lat="40.0717856" lon="-105.2285048">
  <ele>1583.0</ele>
  <time>2026-08-28T17:52:59Z</time>
  <course>69.85</course>
  <speed>5.02</speed>
  <fix>3d</fix>
</trkpt>
<trkpt lat="40.0717906" lon="-105.2284865">
  <ele>1583.01</ele>
  <time>2026-08-28T17:52:59Z</time>
  <course>70.73</course>
  <speed>4.9920136217762865</speed>
  <fix>3d</fix>
</trkpt>
<trkpt lat="40.0717856" lon="-105.2285048">
  <ele>1583.0</ele>
  <time>2026-08-28T17:52:59Z</time>
  <course>69.85</course>
  <speed>5.02</speed>
  <fix>3d</fix>
</trkpt>
<trkpt lat="40.0717921" lon="-105.2284811">
  <ele>1583.01</ele>
  <time>2026-08-28T17:52:59Z</time>
  <course>70.73</course>
  <speed>4.9920136217762865</speed>
  <fix>3d</fix>
</trkpt>
<trkpt lat="40.0717888" lon="-105.2284937">
  <ele>1583.0</ele>
  <time>2026-08-28T17:52:59Z</time>
  <course>69.69</course>
  <speed>5.01</speed>
  <fix>3d</fix>
</trkpt>
<trkpt lat="40.0717937" lon="-105.2284756">
  <ele>1583.01</ele>
  <time>2026-08-28T17:52:59Z</time>
  <course>70.73</course>
  <speed>4.982619792839907</speed>
  <fix>3d</fix>
</trkpt>
<trkpt lat="40.0717919" lon="-105.2284827">
  <ele>1583.0</ele>
  <time>2026-08-28T17:52:59Z</time>
  <course>69.67</course>
  <speed>5.01</speed>
  <fix>3d</fix>
</trkpt>
<trkpt lat="40.0717953" lon="-105.22847">
  <ele>1583.01</ele>
  <time>2026-08-28T17:52:59Z</time>
  <course>70.73</course>
  <speed>4.9920136217762865</speed>
  <fix>3d</fix>
</trkpt>
<trkpt lat="40.0717919" lon="-105.2284827">
  <ele>1583.0</ele>
  <time>2026-08-28T17:52:59Z</time>
  <course>69.67</course>
  <speed>5.01</speed>
  <fix>3d</fix>
</trkpt>
<trkpt lat="40.0717968" lon="-105.2284645">
  <ele>1583.01</ele>
  <time>2026-08-28T17:52:59Z</time>
  <course>70.73</course>
  <speed>4.9920136217762865</speed>
  <fix>3d</fix>
</trkpt>
<trkpt lat="40.071795" lon="-105.2284716">
  <ele>1583.0</ele>
  <time>2026-08-28T17:52:59Z</time>
  <course>69.67</course>
  <speed>5.01</speed>
  <fix>3d</fix>
</trkpt>
<trkpt lat="40.0717984" lon="-105.228459">
  <ele>1583.01</ele>
  <time>2026-08-28T17:52:59Z</time>
  <course>70.73</course>
  <speed>4.9920136217762865</speed>
  <fix>3d</fix>
</trkpt>
<trkpt lat="40.071795" lon="-105.2284716">
  <ele>1583.0</ele>
  <time>2026-08-28T17:52:59Z</time>
  <course>69.67</course>
  <speed>5.01</speed>
  <fix>3d</fix>
</trkpt>
<trkpt lat="40.0718" lon="-105.2284535">
  <ele>1583.02</ele>
  <time>2026-08-28T17:52:59Z</time>
  <course>70.73</course>
  <speed>4.9920136217762865</speed>
  <fix>3d</fix>
</trkpt>
<trkpt lat="40.0717982" lon="-105.2284605">
  <ele>1583.0</ele>
  <time>2026-08-28T17:52:59Z</time>
  <course>69.67</course>
  <speed>5.02</speed>
  <fix>3d</fix>
</trkpt>
<trkpt lat="40.0718015" lon="-105.2284479">
  <ele>1583.02</ele>
  <time>2026-08-28T17:52:59Z</time>
  <course>70.73</course>
  <speed>4.9920136217762865</speed>
  <fix>3d</fix>
</trkpt>
<trkpt lat="40.0717982" lon="-105.2284605">
  <ele>1583.0</ele>
  <time>2026-08-28T17:52:59Z</time>
  <course>69.67</course>
  <speed>5.02</speed>
  <fix>3d</fix>
</trkpt>
<trkpt lat="40.0718031" lon="-105.2284424">
  <ele>1583.02</ele>
  <time>2026-08-28T17:52:59Z</time>
  <course>70.73</course>
  <speed>4.9920136217762865</speed>
  <fix>3d</fix>
</trkpt>
<trkpt lat="40.0718013" lon="-105.2284495">
  <ele>1583.0</ele>
  <time>2026-08-28T17:52:59Z</time>
  <course>69.67</course>
  <speed>5.01</speed>
  <fix>3d</fix>
</trkpt>
<trkpt lat="40.0718047" lon="-105.2284368">
  <ele>1583.01</ele>
  <time>2026-08-28T17:52:59Z</time>
  <course>70.77</course>
  <speed>4.9920136217762865</speed>
  <fix>3d</fix>
</trkpt>
<trkpt lat="40.0718013" lon="-105.2284495">
  <ele>1583.0</ele>
  <time>2026-08-28T17:52:59Z</time>
  <course>69.67</course>
  <speed>5.01</speed>
  <fix>3d</fix>
</trkpt>
<trkpt lat="40.0718063" lon="-105.2284312">
  <ele>1583.01</ele>
  <time>2026-08-28T17:52:59Z</time>
  <course>70.88</course>
  <speed>4.988596997152606</speed>
  <fix>3d</fix>
</trkpt>
<trkpt lat="40.0718044" lon="-105.2284385">
  <ele>1583.0</ele>
  <time>2026-08-28T17:52:59Z</time>
  <course>69.75</course>
  <speed>5.01</speed>
  <fix>3d</fix>
</trkpt>
<trkpt lat="40.0718078" lon="-105.2284257">
  <ele>1583.01</ele>
  <time>2026-08-28T17:52:59Z</time>
  <course>70.95</course>
  <speed>4.99799959983992</speed>
  <fix>3d</fix>
</trkpt>
<trkpt lat="40.0718044" lon="-105.2284385">
  <ele>1583.0</ele>
  <time>2026-08-28T17:52:59Z</time>
  <course>69.75</course>
  <speed>5.01</speed>
  <fix>3d</fix>
</trkpt>
<trkpt lat="40.0718094" lon="-105.2284201">
  <ele>1583.01</ele>
  <time>2026-08-28T17:52:59Z</time>
  <course>71.01</course>
  <speed>4.9946070916539576</speed>
  <fix>3d</fix>
</trkpt>
<trkpt lat="40.0718075" lon="-105.2284274">
  <ele>1583.0</ele>
  <time>2026-08-28T17:52:59Z</time>
  <course>69.89</course>
  <speed>5.01</speed>
  <fix>3d</fix>
</trkpt>
<trkpt lat="40.0718109" lon="-105.2284145">
  <ele>1583.01</ele>
  <time>2026-08-28T17:52:59Z</time>
  <course>71.08</course>
  <speed>4.9946070916539576</speed>
  <fix>3d</fix>
</trkpt>
<trkpt lat="40.0718075" lon="-105.2284274">
  <ele>1583.0</ele>
  <time>2026-08-28T17:52:59Z</time>
  <course>69.89</course>
  <speed>5.01</speed>
  <fix>3d</fix>
</trkpt>
<trkpt lat="40.0718125" lon="-105.228409">
  <ele>1583.01</ele>
  <time>2026-08-28T17:52:59Z</time>
  <course>71.15</course>
  <speed>4.991232312766057</speed>
  <fix>3d</fix>
</trkpt>
<trkpt lat="40.0718106" lon="-105.2284164">
  <ele>1583.0</ele>
  <time>2026-08-28T17:52:59Z</time>
  <course>70.03</course>
  <speed>5.01</speed>
  <fix>3d</fix>
</trkpt>
<trkpt lat="40.071814" lon="-105.2284034">
  <ele>1583.01</ele>
  <time>2026-08-28T17:52:59Z</time>
  <course>71.22</course>
  <speed>4.991232312766057</speed>
  <fix>3d</fix>
</trkpt>
<trkpt lat="40.0718106" lon="-105.2284164">
  <ele>1583.0</ele>
  <time>2026-08-28T17:52:59Z</time>
  <course>70.03</course>
  <speed>5.01</speed>
  <fix>3d</fix>
</trkpt>
<trkpt lat="40.0718155" lon="-105.2283979">
  <ele>1583.01</ele>
  <time>2026-08-28T17:52:59Z</time>
  <course>71.29</course>
  <speed>4.997299270606074</speed>
  <fix>3d</fix>
</trkpt>
<trkpt lat="40.0718106" lon="-105.2284164">
  <ele>1583.0</ele>
  <time>2026-08-28T17:52:59Z</time>
  <course>70.03</course>
  <speed>5.01</speed>
  <fix>3d</fix>
</trkpt>
<trkpt lat="40.071817" lon="-105.2283924">
  <ele>1583.01</ele>
  <time>2026-08-28T17:52:59Z</time>
  <course>71.35</course>
  <speed>4.993966359518254</speed>
  <fix>3d</fix>
</trkpt>
<trkpt lat="40.0718137" lon="-105.2284053">
  <ele>1583.0</ele>
  <time>2026-08-28T17:52:59Z</time>
  <course>70.16</course>
  <speed>5.01</speed>
  <fix>3d</fix>
</trkpt>
<trkpt lat="40.0718185" lon="-105.2283869">
  <ele>1583.01</ele>
  <time>2026-08-28T17:52:59Z</time>
  <course>71.42</course>
  <speed>4.993966359518254</speed>
  <fix>3d</fix>
</trkpt>
<trkpt lat="40.0718137" lon="-105.2284053">
  <ele>1583.0</ele>
  <time>2026-08-28T17:52:59Z</time>
  <course>70.16</course>
  <speed>5.01</speed>
  <fix>3d</fix>
</trkpt>
<trkpt lat="40.07182" lon="-105.2283814">
  <ele>1583.01</ele>
  <time>2026-08-28T17:52:59Z</time>
  <course>71.52</course>
  <speed>4.99065126010624</speed>
  <fix>3d</fix>
</trkpt>
<trkpt lat="40.0718167" lon="-105.2283942">
  <ele>1583.0</ele>
  <time>2026-08-28T17:52:59Z</time>
  <course>70.3</course>
  <speed>5.01</speed>
  <fix>3d</fix>
</trkpt>
<trkpt lat="40.0718215" lon="-105.2283759">
  <ele>1583.01</ele>
  <time>2026-08-28T17:52:59Z</time>
  <course>71.72</course>
  <speed>4.984074638285426</speed>
  <fix>3d</fix>
</trkpt>
<trkpt lat="40.0718167" lon="-105.2283942">
  <ele>1583.0</ele>
  <time>2026-08-28T17:52:59Z</time>
  <course>70.3</course>
  <speed>5.01</speed>
  <fix>3d</fix>
</trkpt>
<trkpt lat="40.071823" lon="-105.2283704">
  <ele>1583.0</ele>
  <time>2026-08-28T17:52:59Z</time>
  <course>71.85</course>
  <speed>4.990270533748646</speed>
  <fix>3d</fix>
</trkpt>
<trkpt lat="40.0718198" lon="-105.2283831">
  <ele>1583.0</ele>
  <time>2026-08-28T17:52:59Z</time>
  <course>70.52</course>
  <speed>5.01</speed>
  <fix>3d</fix>
</trkpt>
<trkpt lat="40.0718245" lon="-105.2283649">
  <ele>1583.0</ele>
  <time>2026-08-28T17:52:59Z</time>
  <course>71.99</course>
  <speed>4.98703318617392</speed>
  <fix>3d</fix>
</trkpt>
<trkpt lat="40.0718198" lon="-105.2283831">
  <ele>1583.0</ele>
  <time>2026-08-28T17:52:59Z</time>
  <course>70.52</course>
  <speed>5.01</speed>
  <fix>3d</fix>
</trkpt>
<trkpt lat="40.0718259" lon="-105.2283593">
  <ele>1583.0</ele>
  <time>2026-08-28T17:52:59Z</time>
  <course>72.13</course>
  <speed>4.983813800695207</speed>
  <fix>3d</fix>
</trkpt>
<trkpt lat="40.0718227" lon="-105.228372">
  <ele>1583.0</ele>
  <time>2026-08-28T17:52:59Z</time>
  <course>70.8</course>
  <speed>5.01</speed>
  <fix>3d</fix>
</trkpt>
<trkpt lat="40.0718273" lon="-105.2283538">
  <ele>1583.0</ele>
  <time>2026-08-28T17:52:59Z</time>
  <course>72.26</course>
  <speed>4.9869128727099294</speed>
  <fix>3d</fix>
</trkpt>
<trkpt lat="40.0718257" lon="-105.2283608">
  <ele>1583.0</ele>
  <time>2026-08-28T17:52:59Z</time>
  <course>71.07</course>
  <speed>5.01</speed>
  <fix>3d</fix>
</trkpt>
<trkpt lat="40.0718288" lon="-105.2283482">
  <ele>1583.01</ele>
  <time>2026-08-28T17:52:59Z</time>
  <course>72.4</course>
  <speed>4.983753605466466</speed>
  <fix>3d</fix>
</trkpt>
<trkpt lat="40.0718257" lon="-105.2283608">
  <ele>1583.0</ele>
  <time>2026-08-28T17:52:59Z</time>
  <course>71.07</course>
  <speed>5.01</speed>
  <fix>3d</fix>
</trkpt>
<trkpt lat="40.0718302" lon="-105.2283427">
  <ele>1583.0</ele>
  <time>2026-08-28T17:52:59Z</time>
  <course>72.52</course>
  <speed>4.980612412143711</speed>
  <fix>3d</fix>
</trkpt>
<trkpt lat="40.0718286" lon="-105.2283497">
  <ele>1583.0</ele>
  <time>2026-08-28T17:52:59Z</time>
  <course>71.34</course>
  <speed>5.02</speed>
  <fix>3d</fix>
</trkpt>
<trkpt lat="40.0718316" lon="-105.2283371">
  <ele>1583.0</ele>
  <time>2026-08-28T17:52:59Z</time>
  <course>72.61</course>
  <speed>4.99011021922362</speed>
  <fix>3d</fix>
</trkpt>
<trkpt lat="40.0718286" lon="-105.2283497">
  <ele>1583.0</ele>
  <time>2026-08-28T17:52:59Z</time>
  <course>71.34</course>
  <speed>5.02</speed>
  <fix>3d</fix>
</trkpt>
<trkpt lat="40.0718331" lon="-105.2283315">
  <ele>1583.0</ele>
  <time>2026-08-28T17:52:59Z</time>
  <course>72.68</course>
  <speed>4.9869930820084365</speed>
  <fix>3d</fix>
</trkpt>
<trkpt lat="40.0718315" lon="-105.2283386">
  <ele>1583.0</ele>
  <time>2026-08-28T17:52:59Z</time>
  <course>71.55</course>
  <speed>5.02</speed>
  <fix>3d</fix>
</trkpt>
<trkpt lat="40.0718345" lon="-105.2283258">
  <ele>1582.99</ele>
  <time>2026-08-28T17:52:59Z</time>
  <course>72.83</course>
  <speed>4.993405651456729</speed>
  <fix>3d</fix>
</trkpt>
<trkpt lat="40.0718315" lon="-105.2283386">
  <ele>1583.0</ele>
  <time>2026-08-28T17:52:59Z</time>
  <course>71.55</course>
  <speed>5.02</speed>
  <fix>3d</fix>
</trkpt>
<trkpt lat="40.0718359" lon="-105.2283202">
  <ele>1582.99</ele>
  <time>2026-08-28T17:52:59Z</time>
  <course>73.08</course>
  <speed>4.996798975344115</speed>
  <fix>3d</fix>
</trkpt>
<trkpt lat="40.0718343" lon="-105.2283273">
  <ele>1583.0</ele>
  <time>2026-08-28T17:52:59Z</time>
  <course>71.83</course>
  <speed>5.02</speed>
  <fix>3d</fix>
</trkpt>
<trkpt lat="40.0718373" lon="-105.2283145">
  <ele>1582.99</ele>
  <time>2026-08-28T17:52:59Z</time>
  <course>73.44</course>
  <speed>4.997299270606074</speed>
  <fix>3d</fix>
</trkpt>
<trkpt lat="40.0718343" lon="-105.2283273">
  <ele>1583.0</ele>
  <time>2026-08-28T17:52:59Z</time>
  <course>71.83</course>
  <speed>5.02</speed>
  <fix>3d</fix>
</trkpt>
<trkpt lat="40.0718387" lon="-105.2283088">
  <ele>1582.99</ele>
  <time>2026-08-28T17:52:59Z</time>
  <course>73.91</course>
  <speed>4.9950875868196745</speed>
  <fix>3d</fix>
</trkpt>
<trkpt lat="40.071837" lon="-105.2283161">
  <ele>1583.0</ele>
  <time>2026-08-28T17:52:59Z</time>
  <course>72.44</course>
  <speed>5.02</speed>
  <fix>3d</fix>
</trkpt>
<trkpt lat="40.07184" lon="-105.2283032">
  <ele>1582.99</ele>
  <time>2026-08-28T17:52:59Z</time>
  <course>74.46</course>
  <speed>5.0</speed>
  <fix>3d</fix>
</trkpt>
<trkpt lat="40.071837" lon="-105.2283161">
  <ele>1583.0</ele>
  <time>2026-08-28T17:52:59Z</time>
  <course>72.44</course>
  <speed>5.02</speed>
  <fix>3d</fix>
</trkpt>
<trkpt lat="40.0718412" lon="-105.2282975">
  <ele>1583.0</ele>
  <time>2026-08-28T17:52:59Z</time>
  <course>75.01</course>
  <speed>4.998569795451495</speed>
  <fix>3d</fix>
</trkpt>
<trkpt lat="40.0718397" lon="-105.2283048">
  <ele>1583.0</ele>
  <time>2026-08-28T17:52:59Z</time>
  <course>73.41</course>
  <speed>5.02</speed>
  <fix>3d</fix>
</trkpt>
<trkpt lat="40.0718425" lon="-105.2282917">
  <ele>1583.0</ele>
  <time>2026-08-28T17:52:59Z</time>
  <course>75.48</course>
  <speed>4.997479364639738</speed>
  <fix>3d</fix>
</trkpt>
<trkpt lat="40.0718397" lon="-105.2283048">
  <ele>1583.0</ele>
  <time>2026-08-28T17:52:59Z</time>
  <course>73.41</course>
  <speed>5.02</speed>
  <fix>3d</fix>
</trkpt>
<trkpt lat="40.0718436" lon="-105.228286">
  <ele>1583.0</ele>
  <time>2026-08-28T17:52:59Z</time>
  <course>75.95</course>
  <speed>4.9941766088115065</speed>
  <fix>3d</fix>
</trkpt>
<trkpt lat="40.0718397" lon="-105.2283048">
  <ele>1583.0</ele>
  <time>2026-08-28T17:52:59Z</time>
  <course>73.41</course>
  <speed>5.02</speed>
  <fix>3d</fix>
</trkpt>
<trkpt lat="40.0718448" lon="-105.2282804">
  <ele>1583.0</ele>
  <time>2026-08-28T17:52:59Z</time>
  <course>76.35</course>
  <speed>4.996318644762361</speed>
  <fix>3d</fix>
</trkpt>
<trkpt lat="40.0718422" lon="-105.2282934">
  <ele>1583.0</ele>
  <time>2026-08-28T17:52:59Z</time>
  <course>74.43</course>
  <speed>5.02</speed>
  <fix>3d</fix>
</trkpt>
<trkpt lat="40.0718459" lon="-105.2282747">
  <ele>1583.0</ele>
  <time>2026-08-28T17:52:59Z</time>
  <course>76.75</course>
  <speed>4.98654188792193</speed>
  <fix>3d</fix>
</trkpt>
<trkpt lat="40.0718422" lon="-105.2282934">
  <ele>1583.0</ele>
  <time>2026-08-28T17:52:59Z</time>
  <course>74.43</course>
  <speed>5.02</speed>
  <fix>3d</fix>
</trkpt>
<trkpt lat="40.071847" lon="-105.228269">
  <ele>1583.0</ele>
  <time>2026-08-28T17:52:59Z</time>
  <course>77.13</course>
  <speed>4.989128180353758</speed>
  <fix>3d</fix>
</trkpt>
<trkpt lat="40.0718446" lon="-105.2282821">
  <ele>1583.0</ele>
  <time>2026-08-28T17:52:59Z</time>
  <course>75.31</course>
  <speed>5.01</speed>
  <fix>3d</fix>
</trkpt>
<trkpt lat="40.071848" lon="-105.2282633">
  <ele>1583.0</ele>
  <time>2026-08-28T17:52:59Z</time>
  <course>77.56</course>
  <speed>4.979899597381458</speed>
  <fix>3d</fix>
</trkpt>
<trkpt lat="40.0718446" lon="-105.2282821">
  <ele>1583.0</ele>
  <time>2026-08-28T17:52:59Z</time>
  <course>75.31</course>
  <speed>5.01</speed>
  <fix>3d</fix>
</trkpt>
<trkpt lat="40.071849" lon="-105.2282577">
  <ele>1583.0</ele>
  <time>2026-08-28T17:52:59Z</time>
  <course>77.95</course>
  <speed>4.982930864461196</speed>
  <fix>3d</fix>
</trkpt>
<trkpt lat="40.0718468" lon="-105.2282707">
  <ele>1583.0</ele>
  <time>2026-08-28T17:52:59Z</time>
  <course>76.12</course>
  <speed>5.01</speed>
  <fix>3d</fix>
</trkpt>
<trkpt lat="40.07185" lon="-105.228252">
  <ele>1583.0</ele>
  <time>2026-08-28T17:52:59Z</time>
  <course>78.29</course>
  <speed>4.97639427698409</speed>
  <fix>3d</fix>
</trkpt>
<trkpt lat="40.0718468" lon="-105.2282707">
  <ele>1583.0</ele>
  <time>2026-08-28T17:52:59Z</time>
  <course>76.12</course>
  <speed>5.01</speed>
  <fix>3d</fix>
</trkpt>
<trkpt lat="40.071851" lon="-105.2282463">
  <ele>1583.0</ele>
  <time>2026-08-28T17:52:59Z</time>
  <course>78.63</course>
  <speed>4.97003018099488</speed>
  <fix>3d</fix>
</trkpt>
<trkpt lat="40.0718489" lon="-105.2282592">
  <ele>1583.0</ele>
  <time>2026-08-28T17:52:59Z</time>
  <course>76.89</course>
  <speed>5.01</speed>
  <fix>3d</fix>
</trkpt>
<trkpt lat="40.0718519" lon="-105.2282406">
  <ele>1583.0</ele>
  <time>2026-08-28T17:52:59Z</time>
  <course>78.92</course>
  <speed>4.973630464761128</speed>
  <fix>3d</fix>
</trkpt>
<trkpt lat="40.0718509" lon="-105.2282478">
  <ele>1583.0</ele>
  <time>2026-08-28T17:52:59Z</time>
  <course>77.57</course>
  <speed>5.01</speed>
  <fix>3d</fix>
</trkpt>
<trkpt lat="40.0718528" lon="-105.2282348">
  <ele>1583.0</ele>
  <time>2026-08-28T17:52:59Z</time>
  <course>79.19</course>
  <speed>4.979407595286813</speed>
  <fix>3d</fix>
</trkpt>
<trkpt lat="40.0718509" lon="-105.2282478">
  <ele>1583.0</ele>
  <time>2026-08-28T17:52:59Z</time>
  <course>77.57</course>
  <speed>5.01</speed>
  <fix>3d</fix>
</trkpt>
<trkpt lat="40.0718537" lon="-105.2282291">
  <ele>1583.0</ele>
  <time>2026-08-28T17:52:59Z</time>
  <course>79.45</course>
  <speed>4.975469827061561</speed>
  <fix>3d</fix>
</trkpt>
<trkpt lat="40.0718528" lon="-105.2282362">
  <ele>1583.0</ele>
  <time>2026-08-28T17:52:59Z</time>
  <course>78.15</course>
  <speed>5.01</speed>
  <fix>3d</fix>
</trkpt>
<trkpt lat="40.0718546" lon="-105.2282233">
  <ele>1583.0</ele>
  <time>2026-08-28T17:52:59Z</time>
  <course>79.67</course>
  <speed>4.9814254987904825</speed>
  <fix>3d</fix>
</trkpt>
<trkpt lat="40.0718528" lon="-105.2282362">
  <ele>1583.0</ele>
  <time>2026-08-28T17:52:59Z</time>
  <course>78.15</course>
  <speed>5.01</speed>
  <fix>3d</fix>
</trkpt>
<trkpt lat="40.0718555" lon="-105.2282175">
  <ele>1583.0</ele>
  <time>2026-08-28T17:52:59Z</time>
  <course>79.87</course>
  <speed>4.9776500479644</speed>
  <fix>3d</fix>
</trkpt>
<trkpt lat="40.0718545" lon="-105.2282247">
  <ele>1583.0</ele>
  <time>2026-08-28T17:52:59Z</time>
  <course>78.64</course>
  <speed>5.01</speed>
  <fix>3d</fix>
</trkpt>
<trkpt lat="40.0718563" lon="-105.2282117">
  <ele>1583.0</ele>
  <time>2026-08-28T17:52:59Z</time>
  <course>80.08</course>
  <speed>4.983783703171717</speed>
  <fix>3d</fix>
</trkpt>
<trkpt lat="40.0718545" lon="-105.2282247">
  <ele>1583.0</ele>
  <time>2026-08-28T17:52:59Z</time>
  <course>78.64</course>
  <speed>5.01</speed>
  <fix>3d</fix>
</trkpt>
<trkpt lat="40.0718572" lon="-105.2282059">
  <ele>1583.0</ele>
  <time>2026-08-28T17:52:59Z</time>
  <course>80.38</course>
  <speed>4.99001002003002</speed>
  <fix>3d</fix>
</trkpt>
<trkpt lat="40.0718563" lon="-105.2282132">
  <ele>1583.0</ele>
  <time>2026-08-28T17:52:59Z</time>
  <course>79.11</course>
  <speed>5.01</speed>
  <fix>3d</fix>
</trkpt>
<trkpt lat="40.071858" lon="-105.2282">
  <ele>1583.0</ele>
  <time>2026-08-28T17:52:59Z</time>
  <course>80.65</course>
  <speed>4.9847467337869835</speed>
  <fix>3d</fix>
</trkpt>
<trkpt lat="40.0718563" lon="-105.2282132">
  <ele>1583.0</ele>
  <time>2026-08-28T17:52:59Z</time>
  <course>79.11</course>
  <speed>5.01</speed>
  <fix>3d</fix>
</trkpt>
<trkpt lat="40.0718588" lon="-105.2281941">
  <ele>1583.01</ele>
  <time>2026-08-28T17:52:59Z</time>
  <course>80.92</course>
  <speed>4.991192242340501</speed>
  <fix>3d</fix>
</trkpt>
<trkpt lat="40.071858" lon="-105.2282016">
  <ele>1583.0</ele>
  <time>2026-08-28T17:52:59Z</time>
  <course>79.64</course>
  <speed>5.01</speed>
  <fix>3d</fix>
</trkpt>
<trkpt lat="40.0718596" lon="-105.2281883">
  <ele>1583.01</ele>
  <time>2026-08-28T17:52:59Z</time>
  <course>81.14</course>
  <speed>4.98786527484454</speed>
  <fix>3d</fix>
</trkpt>
<trkpt lat="40.071858" lon="-105.2282016">
  <ele>1583.0</ele>
  <time>2026-08-28T17:52:59Z</time>
  <course>79.64</course>
  <speed>5.01</speed>
  <fix>3d</fix>
</trkpt>
<trkpt lat="40.0718603" lon="-105.2281825">
  <ele>1583.01</ele>
  <time>2026-08-28T17:52:59Z</time>
  <course>81.34</course>
  <speed>4.984616334282911</speed>
  <fix>3d</fix>
</trkpt>
<trkpt lat="40.0718595" lon="-105.22819">
  <ele>1583.0</ele>
  <time>2026-08-28T17:52:59Z</time>
  <course>80.12</course>
  <speed>5.01</speed>
  <fix>3d</fix>
</trkpt>
<trkpt lat="40.0718611" lon="-105.2281766">
  <ele>1583.02</ele>
  <time>2026-08-28T17:52:59Z</time>
  <course>81.54</course>
  <speed>4.992894951829049</speed>
  <fix>3d</fix>
</trkpt>
<trkpt lat="40.0718595" lon="-105.22819">
  <ele>1583.0</ele>
  <time>2026-08-28T17:52:59Z</time>
  <course>80.12</course>
  <speed>5.01</speed>
  <fix>3d</fix>
</trkpt>
<trkpt lat="40.0718618" lon="-105.2281708">
  <ele>1583.02</ele>
  <time>2026-08-28T17:52:59Z</time>
  <course>81.74</course>
  <speed>4.989769533756043</speed>
  <fix>3d</fix>
</trkpt>
<trkpt lat="40.0718611" lon="-105.2281785">
  <ele>1583.0</ele>
  <time>2026-08-28T17:52:59Z</time>
  <course>80.53</course>
  <speed>5.01</speed>
  <fix>3d</fix>
</trkpt>
<trkpt lat="40.0718625" lon="-105.2281649">
  <ele>1583.02</ele>
  <time>2026-08-28T17:52:59Z</time>
  <course>81.9</course>
  <speed>4.986722370455367</speed>
  <fix>3d</fix>
</trkpt>
<trkpt lat="40.0718611" lon="-105.2281785">
  <ele>1583.0</ele>
  <time>2026-08-28T17:52:59Z</time>
  <course>80.53</course>
  <speed>5.01</speed>
  <fix>3d</fix>
</trkpt>
<trkpt lat="40.0718632" lon="-105.2281591">
  <ele>1583.02</ele>
  <time>2026-08-28T17:52:59Z</time>
  <course>82.04</course>
  <speed>4.985228179331414</speed>
  <fix>3d</fix>
</trkpt>
<trkpt lat="40.0718611" lon="-105.2281785">
  <ele>1583.0</ele>
  <time>2026-08-28T17:52:59Z</time>
  <course>80.53</course>
  <speed>5.01</speed>
  <fix>3d</fix>
</trkpt>
<trkpt lat="40.0718639" lon="-105.2281533">
  <ele>1583.02</ele>
  <time>2026-08-28T17:52:59Z</time>
  <course>82.2</course>
  <speed>4.983753605466466</speed>
  <fix>3d</fix>
</trkpt>
<trkpt lat="40.0718625" lon="-105.2281668">
  <ele>1583.0</ele>
  <time>2026-08-28T17:52:59Z</time>
  <course>80.89</course>
  <speed>5.0</speed>
  <fix>3d</fix>
</trkpt>
<trkpt lat="40.0718646" lon="-105.2281476">
  <ele>1583.02</ele>
  <time>2026-08-28T17:52:59Z</time>
  <course>82.46</course>
  <speed>4.97944776054534</speed>
  <fix>3d</fix>
</trkpt>
<trkpt lat="40.0718625" lon="-105.2281668">
  <ele>1583.0</ele>
  <time>2026-08-28T17:52:59Z</time>
  <course>80.89</course>
  <speed>5.0</speed>
  <fix>3d</fix>
</trkpt>
<trkpt lat="40.0718652" lon="-105.2281418">
  <ele>1583.02</ele>
  <time>2026-08-28T17:52:59Z</time>
  <course>82.72</course>
  <speed>4.976675597223512</speed>
  <fix>3d</fix>
</trkpt>
<trkpt lat="40.071864" lon="-105.2281552">
  <ele>1583.0</ele>
  <time>2026-08-28T17:52:59Z</time>
  <course>81.25</course>
  <speed>5.0</speed>
  <fix>3d</fix>
</trkpt>
<trkpt lat="40.0718658" lon="-105.228136">
  <ele>1583.02</ele>
  <time>2026-08-28T17:52:59Z</time>
  <course>82.92</course>
  <speed>4.973982307970144</speed>
  <fix>3d</fix>
</trkpt>
<trkpt lat="40.071864" lon="-105.2281552">
  <ele>1583.0</ele>
  <time>2026-08-28T17:52:59Z</time>
  <course>81.25</course>
  <speed>5.0</speed>
  <fix>3d</fix>
</trkpt>
<trkpt lat="40.0718665" lon="-105.2281303">
  <ele>1583.02</ele>
  <time>2026-08-28T17:52:59Z</time>
  <course>83.12</course>
  <speed>4.972665281315444</speed>
  <fix>3d</fix>
</trkpt>
<trkpt lat="40.0718653" lon="-105.2281436">
  <ele>1583.0</ele>
  <time>2026-08-28T17:52:59Z</time>
  <course>81.69</course>
  <speed>5.0</speed>
  <fix>3d</fix>
</trkpt>
<trkpt lat="40.0718671" lon="-105.2281245">
  <ele>1583.01</ele>
  <time>2026-08-28T17:52:59Z</time>
  <course>83.33</course>
  <speed>4.970090542434815</speed>
  <fix>3d</fix>
</trkpt>
<trkpt lat="40.0718666" lon="-105.2281319">
  <ele>1583.0</ele>
  <time>2026-08-28T17:52:59Z</time>
  <course>82.12</course>
  <speed>5.0</speed>
  <fix>3d</fix>
</trkpt>
<trkpt lat="40.0718677" lon="-105.2281187">
  <ele>1583.01</ele>
  <time>2026-08-28T17:52:59Z</time>
  <course>83.52</course>
  <speed>4.977519462543567</speed>
  <fix>3d</fix>
</trkpt>
<trkpt lat="40.0718666" lon="-105.2281319">
  <ele>1583.0</ele>
  <time>2026-08-28T17:52:59Z</time>
  <course>82.12</course>
  <speed>5.0</speed>
  <fix>3d</fix>
</trkpt>
<trkpt lat="40.0718682" lon="-105.2281129">
  <ele>1583.0</ele>
  <time>2026-08-28T17:52:59Z</time>
  <course>83.65</course>
  <speed>4.976303849243934</speed>
  <fix>3d</fix>
</trkpt>
<trkpt lat="40.0718678" lon="-105.2281203">
  <ele>1583.0</ele>
  <time>2026-08-28T17:52:59Z</time>
  <course>82.49</course>
  <speed>5.0</speed>
  <fix>3d</fix>
</trkpt>
<trkpt lat="40.0718688" lon="-105.2281071">
  <ele>1583.0</ele>
  <time>2026-08-28T17:52:59Z</time>
  <course>83.79</course>
  <speed>4.975108039027896</speed>
  <fix>3d</fix>
</trkpt>
<trkpt lat="40.0718678" lon="-105.2281203">
  <ele>1583.0</ele>
  <time>2026-08-28T17:52:59Z</time>
  <course>82.49</course>
  <speed>5.0</speed>
  <fix>3d</fix>
</trkpt>
<trkpt lat="40.0718694" lon="-105.2281012">
  <ele>1583.0</ele>
  <time>2026-08-28T17:52:59Z</time>
  <course>83.92</course>
  <speed>4.983863962830446</speed>
  <fix>3d</fix>
</trkpt>
<trkpt lat="40.0718689" lon="-105.2281086">
  <ele>1583.0</ele>
  <time>2026-08-28T17:52:59Z</time>
  <course>82.79</course>
  <speed>5.0</speed>
  <fix>3d</fix>
</trkpt>
<trkpt lat="40.0718699" lon="-105.2280953">
  <ele>1583.0</ele>
  <time>2026-08-28T17:52:59Z</time>
  <course>84.05</course>
  <speed>4.9827101059563965</speed>
  <fix>3d</fix>
</trkpt>
<trkpt lat="40.0718689" lon="-105.2281086">
  <ele>1583.0</ele>
  <time>2026-08-28T17:52:59Z</time>
  <course>82.79</course>
  <speed>5.0</speed>
  <fix>3d</fix>
</trkpt>
<trkpt lat="40.0718704" lon="-105.2280895">
  <ele>1583.0</ele>
  <time>2026-08-28T17:52:59Z</time>
  <course>84.28</course>
  <speed>4.980461825975579</speed>
  <fix>3d</fix>
</trkpt>
<trkpt lat="40.07187" lon="-105.228097">
  <ele>1583.0</ele>
  <time>2026-08-28T17:52:59Z</time>
  <course>83.11</course>
  <speed>5.0</speed>
  <fix>3d</fix>
</trkpt>
<trkpt lat="40.071871" lon="-105.2280836">
  <ele>1583.01</ele>
  <time>2026-08-28T17:52:59Z</time>
  <course>84.62</course>
  <speed>4.987183573922259</speed>
  <fix>3d</fix>
</trkpt>
<trkpt lat="40.07187" lon="-105.228097">
  <ele>1583.0</ele>
  <time>2026-08-28T17:52:59Z</time>
  <course>83.11</course>
  <speed>5.0</speed>
  <fix>3d</fix>
</trkpt>
<trkpt lat="40.0718714" lon="-105.2280777">
  <ele>1583.01</ele>
  <time>2026-08-28T17:52:59Z</time>
  <course>85.05</course>
  <speed>4.98317168076718</speed>
  <fix>3d</fix>
</trkpt>
<trkpt lat="40.071871" lon="-105.2280853">
  <ele>1583.0</ele>
  <time>2026-08-28T17:52:59Z</time>
  <course>83.68</course>
  <speed>5.0</speed>
  <fix>3d</fix>
</trkpt>
<trkpt lat="40.0718719" lon="-105.2280718">
  <ele>1583.01</ele>
  <time>2026-08-28T17:52:59Z</time>
  <course>85.6</course>
  <speed>4.989438846203047</speed>
  <fix>3d</fix>
</trkpt>
<trkpt lat="40.071871" lon="-105.2280853">
  <ele>1583.0</ele>
  <time>2026-08-28T17:52:59Z</time>
  <course>83.68</course>
  <speed>5.0</speed>
  <fix>3d</fix>
</trkpt>
<trkpt lat="40.0718723" lon="-105.2280659">
  <ele>1583.01</ele>
  <time>2026-08-28T17:52:59Z</time>
  <course>86.19</course>
  <speed>4.984505993576494</speed>
  <fix>3d</fix>
</trkpt>
<trkpt lat="40.071872" lon="-105.2280736">
  <ele>1583.0</ele>
  <time>2026-08-28T17:52:59Z</time>
  <course>84.63</course>
  <speed>5.0</speed>
  <fix>3d</fix>
</trkpt>
<trkpt lat="40.0718726" lon="-105.22806">
  <ele>1583.02</ele>
  <time>2026-08-28T17:52:59Z</time>
  <course>86.73</course>
  <speed>4.981616203603004</speed>
  <fix>3d</fix>
</trkpt>
<trkpt lat="40.071872" lon="-105.2280736">
  <ele>1583.0</ele>
  <time>2026-08-28T17:52:59Z</time>
  <course>84.63</course>
  <speed>5.0</speed>
  <fix>3d</fix>
</trkpt>
<trkpt lat="40.0718729" lon="-105.2280541">
  <ele>1583.02</ele>
  <time>2026-08-28T17:52:59Z</time>
  <course>87.22</course>
  <speed>4.978453575157651</speed>
  <fix>3d</fix>
</trkpt>
<trkpt lat="40.0718727" lon="-105.2280619">
  <ele>1583.0</ele>
  <time>2026-08-28T17:52:59Z</time>
  <course>85.72</course>
  <speed>5.0</speed>
  <fix>3d</fix>
</trkpt>
<trkpt lat="40.0718732" lon="-105.2280483">
  <ele>1583.02</ele>
  <time>2026-08-28T17:52:59Z</time>
  <course>87.68</course>
  <speed>4.976283753967412</speed>
  <fix>3d</fix>
</trkpt>
<trkpt lat="40.0718727" lon="-105.2280619">
  <ele>1583.0</ele>
  <time>2026-08-28T17:52:59Z</time>
  <course>85.72</course>
  <speed>5.0</speed>
  <fix>3d</fix>
</trkpt>
<trkpt lat="40.0718734" lon="-105.2280424">
  <ele>1583.02</ele>
  <time>2026-08-28T17:52:59Z</time>
  <course>88.09</course>
  <speed>4.974866832388582</speed>
  <fix>3d</fix>
</trkpt>
<trkpt lat="40.0718727" lon="-105.2280619">
  <ele>1583.0</ele>
  <time>2026-08-28T17:52:59Z</time>
  <course>85.72</course>
  <speed>5.0</speed>
  <fix>3d</fix>
</trkpt>
<trkpt lat="40.0718736" lon="-105.2280365">
  <ele>1583.02</ele>
  <time>2026-08-28T17:52:59Z</time>
  <course>88.49</course>
  <speed>4.973258489159798</speed>
  <fix>3d</fix>
</trkpt>
<trkpt lat="40.0718733" lon="-105.2280501">
  <ele>1583.0</ele>
  <time>2026-08-28T17:52:59Z</time>
  <course>86.67</course>
  <speed>4.99</speed>
  <fix>3d</fix>
</trkpt>
<trkpt lat="40.0718738" lon="-105.2280307">
  <ele>1583.02</ele>
  <time>2026-08-28T17:52:59Z</time>
  <course>88.95</course>
  <speed>4.971971439982333</speed>
  <fix>3d</fix>
</trkpt>
<trkpt lat="40.0718733" lon="-105.2280501">
  <ele>1583.0</ele>
  <time>2026-08-28T17:52:59Z</time>
  <course>86.67</course>
  <speed>4.99</speed>
  <fix>3d</fix>
</trkpt>
<trkpt lat="40.0718739" lon="-105.2280249">
  <ele>1583.02</ele>
  <time>2026-08-28T17:52:59Z</time>
  <course>89.37</course>
  <speed>4.971217154782116</speed>
  <fix>3d</fix>
</trkpt>
<trkpt lat="40.0718738" lon="-105.2280384">
  <ele>1583.0</ele>
  <time>2026-08-28T17:52:59Z</time>
  <course>87.54</course>
  <speed>4.99</speed>
  <fix>3d</fix>
</trkpt>
<trkpt lat="40.071874" lon="-105.2280191">
  <ele>1583.03</ele>
  <time>2026-08-28T17:52:59Z</time>
  <course>89.78</course>
  <speed>4.970492933301485</speed>
  <fix>3d</fix>
</trkpt>
<trkpt lat="40.0718738" lon="-105.2280384">
  <ele>1583.0</ele>
  <time>2026-08-28T17:52:59Z</time>
  <course>87.54</course>
  <speed>4.99</speed>
  <fix>3d</fix>
</trkpt>
<trkpt lat="40.0718741" lon="-105.2280133">
  <ele>1583.03</ele>
  <time>2026-08-28T17:52:59Z</time>
  <course>90.12</course>
  <speed>4.970160963188214</speed>
  <fix>3d</fix>
</trkpt>
<trkpt lat="40.0718741" lon="-105.2280267">
  <ele>1583.0</ele>
  <time>2026-08-28T17:52:59Z</time>
  <course>88.38</course>
  <speed>4.99</speed>
  <fix>3d</fix>
</trkpt>
<trkpt lat="40.0718741" lon="-105.2280075">
  <ele>1583.03</ele>
  <time>2026-08-28T17:52:59Z</time>
  <course>90.46</course>
  <speed>4.960010080634917</speed>
  <fix>3d</fix>
</trkpt>
<trkpt lat="40.0718741" lon="-105.2280267">
  <ele>1583.0</ele>
  <time>2026-08-28T17:52:59Z</time>
  <course>88.38</course>
  <speed>4.99</speed>
  <fix>3d</fix>
</trkpt>
<trkpt lat="40.0718742" lon="-105.2280017">
  <ele>1583.03</ele>
  <time>2026-08-28T17:52:59Z</time>
  <course>90.75</course>
  <speed>4.96</speed>
  <fix>3d</fix>
</trkpt>
<trkpt lat="40.0718743" lon="-105.228015">
  <ele>1583.0</ele>
  <time>2026-08-28T17:52:59Z</time>
  <course>89.14</course>
  <speed>4.99</speed>
  <fix>3d</fix>
</trkpt>
<trkpt lat="40.0718742" lon="-105.2279959">
  <ele>1583.04</ele>
  <time>2026-08-28T17:52:59Z</time>
  <course>91.02</course>
  <speed>4.960090724976712</speed>
  <fix>3d</fix>
</trkpt>
<trkpt lat="40.0718744" lon="-105.2280033">
  <ele>1583.0</ele>
  <time>2026-08-28T17:52:59Z</time>
  <course>89.75</course>
  <speed>4.99</speed>
  <fix>3d</fix>
</trkpt>
<trkpt lat="40.0718741" lon="-105.22799">
  <ele>1583.04</ele>
  <time>2026-08-28T17:52:59Z</time>
  <course>91.29</course>
  <speed>4.970251502690784</speed>
  <fix>3d</fix>
</trkpt>
<trkpt lat="40.0718744" lon="-105.2280033">
  <ele>1583.0</ele>
  <time>2026-08-28T17:52:59Z</time>
  <course>89.75</course>
  <speed>4.99</speed>
  <fix>3d</fix>
</trkpt>
<trkpt lat="40.0718741" lon="-105.2279842">
  <ele>1583.04</ele>
  <time>2026-08-28T17:52:59Z</time>
  <course>91.5</course>
  <speed>4.970492933301485</speed>
  <fix>3d</fix>
</trkpt>
<trkpt lat="40.0718744" lon="-105.2279916">
  <ele>1583.0</ele>
  <time>2026-08-28T17:52:59Z</time>
  <course>90.27</course>
  <speed>4.99</speed>
  <fix>3d</fix>
</trkpt>
<trkpt lat="40.0718741" lon="-105.2279783">
  <ele>1583.05</ele>
  <time>2026-08-28T17:52:59Z</time>
  <course>91.71</course>
  <speed>4.970814822541673</speed>
  <fix>3d</fix>
</trkpt>
<trkpt lat="40.0718744" lon="-105.2279916">
  <ele>1583.0</ele>
  <time>2026-08-28T17:52:59Z</time>
  <course>90.27</course>
  <speed>4.99</speed>
  <fix>3d</fix>
</trkpt>
<trkpt lat="40.071874" lon="-105.2279725">
  <ele>1583.05</ele>
  <time>2026-08-28T17:52:59Z</time>
  <course>92.02</course>
  <speed>4.971448481076718</speed>
  <fix>3d</fix>
</trkpt>
<trkpt lat="40.0718743" lon="-105.2279798">
  <ele>1583.0</ele>
  <time>2026-08-28T17:52:59Z</time>
  <course>90.78</course>
  <speed>5.0</speed>
  <fix>3d</fix>
</trkpt>
<trkpt lat="40.071874" lon="-105.2279666">
  <ele>1583.05</ele>
  <time>2026-08-28T17:52:59Z</time>
  <course>92.44</course>
  <speed>4.982258524002945</speed>
  <fix>3d</fix>
</trkpt>
<trkpt lat="40.0718743" lon="-105.2279798">
  <ele>1583.0</ele>
  <time>2026-08-28T17:52:59Z</time>
  <course>90.78</course>
  <speed>5.0</speed>
  <fix>3d</fix>
</trkpt>
<trkpt lat="40.0718738" lon="-105.2279606">
  <ele>1583.05</ele>
  <time>2026-08-28T17:52:59Z</time>
  <course>92.96</course>
  <speed>4.984014446206993</speed>
  <fix>3d</fix>
</trkpt>
<trkpt lat="40.0718741" lon="-105.2279681">
  <ele>1583.0</ele>
  <time>2026-08-28T17:52:59Z</time>
  <course>91.51</course>
  <speed>5.0</speed>
  <fix>3d</fix>
</trkpt>
<trkpt lat="40.0718736" lon="-105.2279547">
  <ele>1583.05</ele>
  <time>2026-08-28T17:52:59Z</time>
  <course>93.6</course>
  <speed>4.98627115187291</speed>
  <fix>3d</fix>
</trkpt>
<trkpt lat="40.0718741" lon="-105.2279681">
  <ele>1583.0</ele>
  <time>2026-08-28T17:52:59Z</time>
  <course>91.51</course>
  <speed>5.0</speed>
  <fix>3d</fix>
</trkpt>
<trkpt lat="40.0718734" lon="-105.2279488">
  <ele>1583.05</ele>
  <time>2026-08-28T17:52:59Z</time>
  <course>94.22</course>
  <speed>4.979658622837514</speed>
  <fix>3d</fix>
</trkpt>
<trkpt lat="40.0718739" lon="-105.2279564">
  <ele>1583.0</ele>
  <time>2026-08-28T17:52:59Z</time>
  <course>92.61</course>
  <speed>5.0</speed>
  <fix>3d</fix>
</trkpt>
<trkpt lat="40.0718731" lon="-105.2279429">
  <ele>1583.05</ele>
  <time>2026-08-28T17:52:59Z</time>
  <course>94.79</course>
  <speed>4.983021171939771</speed>
  <fix>3d</fix>
</trkpt>
<trkpt lat="40.0718739" lon="-105.2279564">
  <ele>1583.0</ele>
  <time>2026-08-28T17:52:59Z</time>
  <course>92.61</course>
  <speed>5.0</speed>
  <fix>3d</fix>
</trkpt>
<trkpt lat="40.0718728" lon="-105.227937">
  <ele>1583.05</ele>
  <time>2026-08-28T17:52:59Z</time>
  <course>95.32</course>
  <speed>4.98607059717369</speed>
  <fix>3d</fix>
</trkpt>
<trkpt lat="40.0718734" lon="-105.2279447">
  <ele>1583.0</ele>
  <time>2026-08-28T17:52:59Z</time>
  <course>93.79</course>
  <speed>5.0</speed>
  <fix>3d</fix>
</trkpt>
<trkpt lat="40.0718724" lon="-105.2279311">
  <ele>1583.05</ele>
  <time>2026-08-28T17:53:00Z</time>
  <course>95.79</course>
  <speed>4.980371472089206</speed>
  <fix>3d</fix>
</trkpt>
<trkpt lat="40.0718734" lon="-105.2279447">
  <ele>1583.0</ele>
  <time>2026-08-28T17:53:00Z</time>
  <course>93.79</course>
  <speed>5.0</speed>
  <fix>3d</fix>
</trkpt>
<trkpt lat="40.071872" lon="-105.2279253">
  <ele>1583.05</ele>
  <time>2026-08-28T17:53:00Z</time>
  <course>96.24</course>
  <speed>4.98317168076718</speed>
  <fix>3d</fix>
</trkpt>
<trkpt lat="40.0718727" lon="-105.2279329">
  <ele>1583.0</ele>
  <time>2026-08-28T17:53:00Z</time>
  <course>94.8</course>
  <speed>5.0</speed>
  <fix>3d</fix>
</trkpt>
<trkpt lat="40.0718716" lon="-105.2279194">
  <ele>1583.05</ele>
  <time>2026-08-28T17:53:00Z</time>
  <course>96.64</course>
  <speed>4.977238190000555</speed>
  <fix>3d</fix>
</trkpt>
<trkpt lat="40.0718727" lon="-105.2279329">
  <ele>1583.0</ele>
  <time>2026-08-28T17:53:00Z</time>
  <course>94.8</course>
  <speed>5.0</speed>
  <fix>3d</fix>
</trkpt>
<trkpt lat="40.0718711" lon="-105.2279135">
  <ele>1583.05</ele>
  <time>2026-08-28T17:53:00Z</time>
  <course>97.12</course>
  <speed>4.981576055828115</speed>
  <fix>3d</fix>
</trkpt>
<trkpt lat="40.0718727" lon="-105.2279329">
  <ele>1583.0</ele>
  <time>2026-08-28T17:53:00Z</time>
  <course>94.8</course>
  <speed>5.0</speed>
  <fix>3d</fix>
</trkpt>
<trkpt lat="40.0718706" lon="-105.2279077">
  <ele>1583.05</ele>
  <time>2026-08-28T17:53:00Z</time>
  <course>97.7</course>
  <speed>4.977519462543567</speed>
  <fix>3d</fix>
</trkpt>
<trkpt lat="40.0718718" lon="-105.2279212">
  <ele>1583.0</ele>
  <time>2026-08-28T17:53:00Z</time>
  <course>95.71</course>
  <speed>4.99</speed>
  <fix>3d</fix>
</trkpt>
<trkpt lat="40.07187" lon="-105.2279019">
  <ele>1583.04</ele>
  <time>2026-08-28T17:53:00Z</time>
  <course>98.38</course>
  <speed>4.975319085244684</speed>
  <fix>3d</fix>
</trkpt>
<trkpt lat="40.0718718" lon="-105.2279212">
  <ele>1583.0</ele>
  <time>2026-08-28T17:53:00Z</time>
  <course>95.71</course>
  <speed>4.99</speed>
  <fix>3d</fix>
</trkpt>
<trkpt lat="40.0718694" lon="-105.2278962">
  <ele>1583.04</ele>
  <time>2026-08-28T17:53:00Z</time>
  <course>99.16</course>
  <speed>4.965450634131811</speed>
  <fix>3d</fix>
</trkpt>
<trkpt lat="40.0718709" lon="-105.2279096">
  <ele>1583.0</ele>
  <time>2026-08-28T17:53:00Z</time>
  <course>96.78</course>
  <speed>4.99</speed>
  <fix>3d</fix>
</trkpt>
<trkpt lat="40.0718687" lon="-105.2278905">
  <ele>1583.04</ele>
  <time>2026-08-28T17:53:00Z</time>
  <course>100.07</course>
  <speed>4.956631920972144</speed>
  <fix>3d</fix>
</trkpt>
<trkpt lat="40.0718709" lon="-105.2279096">
  <ele>1583.0</ele>
  <time>2026-08-28T17:53:00Z</time>
  <course>96.78</course>
  <speed>4.99</speed>
  <fix>3d</fix>
</trkpt>
<trkpt lat="40.071868" lon="-105.2278848">
  <ele>1583.04</ele>
  <time>2026-08-28T17:53:00Z</time>
  <course>101.08</course>
  <speed>4.952464033185905</speed>
  <fix>3d</fix>
</trkpt>
<trkpt lat="40.0718697" lon="-105.227898">
  <ele>1583.0</ele>
  <time>2026-08-28T17:53:00Z</time>
  <course>98.26</course>
  <speed>4.98</speed>
  <fix>3d</fix>
</trkpt>
<trkpt lat="40.0718671" lon="-105.227879">
  <ele>1583.04</ele>
  <time>2026-08-28T17:53:00Z</time>
  <course>102.13</course>
  <speed>4.950010100999795</speed>
  <fix>3d</fix>
</trkpt>
<trkpt lat="40.0718683" lon="-105.2278864">
  <ele>1583.0</ele>
  <time>2026-08-28T17:53:00Z</time>
  <course>100.13</course>
  <speed>4.98</speed>
  <fix>3d</fix>
</trkpt>
<trkpt lat="40.0718662" lon="-105.2278733">
  <ele>1583.04</ele>
  <time>2026-08-28T17:53:00Z</time>
  <course>103.09</course>
  <speed>4.947100160700206</speed>
  <fix>3d</fix>
</trkpt>
<trkpt lat="40.0718683" lon="-105.2278864">
  <ele>1583.0</ele>
  <time>2026-08-28T17:53:00Z</time>
  <course>100.13</course>
  <speed>4.98</speed>
  <fix>3d</fix>
</trkpt>
<trkpt lat="40.0718652" lon="-105.2278677">
  <ele>1583.04</ele>
  <time>2026-08-28T17:53:00Z</time>
  <course>103.96</course>
  <speed>4.943247920143192</speed>
  <fix>3d</fix>
</trkpt>
<trkpt lat="40.0718665" lon="-105.2278749">
  <ele>1583.0</ele>
  <time>2026-08-28T17:53:00Z</time>
  <course>102.07</course>
  <speed>4.97</speed>
  <fix>3d</fix>
</trkpt>
<trkpt lat="40.0718642" lon="-105.227862">
  <ele>1583.04</ele>
  <time>2026-08-28T17:53:00Z</time>
  <course>104.75</course>
  <speed>4.940465565106187</speed>
  <fix>3d</fix>
</trkpt>
<trkpt lat="40.0718665" lon="-105.2278749">
  <ele>1583.0</ele>
  <time>2026-08-28T17:53:00Z</time>
  <course>102.07</course>
  <speed>4.97</speed>
  <fix>3d</fix>
</trkpt>
<trkpt lat="40.0718631" lon="-105.2278564">
  <ele>1583.04</ele>
  <time>2026-08-28T17:53:00Z</time>
  <course>105.58</course>
  <speed>4.938754903819383</speed>
  <fix>3d</fix>
</trkpt>
<trkpt lat="40.0718646" lon="-105.2278635">
  <ele>1583.0</ele>
  <time>2026-08-28T17:53:00Z</time>
  <course>103.81</course>
  <speed>4.97</speed>
  <fix>3d</fix>
</trkpt>
<trkpt lat="40.0718619" lon="-105.2278507">
  <ele>1583.04</ele>
  <time>2026-08-28T17:53:00Z</time>
  <course>106.48</course>
  <speed>4.940860248984988</speed>
  <fix>3d</fix>
</trkpt>
<trkpt lat="40.0718646" lon="-105.2278635">
  <ele>1583.0</ele>
  <time>2026-08-28T17:53:00Z</time>
  <course>103.81</course>
  <speed>4.97</speed>
  <fix>3d</fix>
</trkpt>
<trkpt lat="40.0718606" lon="-105.2278451">
  <ele>1583.04</ele>
  <time>2026-08-28T17:53:00Z</time>
  <course>107.46</course>
  <speed>4.934774564253163</speed>
  <fix>3d</fix>
</trkpt>
<trkpt lat="40.0718623" lon="-105.2278523">
  <ele>1583.0</ele>
  <time>2026-08-28T17:53:00Z</time>
  <course>105.57</course>
  <speed>4.96</speed>
  <fix>3d</fix>
</trkpt>
<trkpt lat="40.0718593" lon="-105.2278395">
  <ele>1583.04</ele>
  <time>2026-08-28T17:53:00Z</time>
  <course>108.54</course>
  <speed>4.930162269134759</speed>
  <fix>3d</fix>
</trkpt>
<trkpt lat="40.0718623" lon="-105.2278523">
  <ele>1583.0</ele>
  <time>2026-08-28T17:53:00Z</time>
  <course>105.57</course>
  <speed>4.96</speed>
  <fix>3d</fix>
</trkpt>
<trkpt lat="40.0718579" lon="-105.227834">
  <ele>1583.04</ele>
  <time>2026-08-28T17:53:00Z</time>
  <course>109.68</course>
  <speed>4.914671911735309</speed>
  <fix>3d</fix>
</trkpt>
<trkpt lat="40.0718597" lon="-105.2278411">
  <ele>1583.0</ele>
  <time>2026-08-28T17:53:00Z</time>
  <course>107.62</course>
  <speed>4.95</speed>
  <fix>3d</fix>
</trkpt>
<trkpt lat="40.0718564" lon="-105.2278285">
  <ele>1583.04</ele>
  <time>2026-08-28T17:53:00Z</time>
  <course>110.81</course>
  <speed>4.907555399585418</speed>
  <fix>3d</fix>
</trkpt>
<trkpt lat="40.0718597" lon="-105.2278411">
  <ele>1583.0</ele>
  <time>2026-08-28T17:53:00Z</time>
  <course>107.62</course>
  <speed>4.95</speed>
  <fix>3d</fix>
</trkpt>
<trkpt lat="40.0718548" lon="-105.227823">
  <ele>1583.04</ele>
  <time>2026-08-28T17:53:00Z</time>
  <course>111.95</course>
  <speed>4.889437595470465</speed>
  <fix>3d</fix>
</trkpt>
<trkpt lat="40.0718569" lon="-105.2278301">
  <ele>1583.0</ele>
  <time>2026-08-28T17:53:00Z</time>
  <course>109.86</course>
  <speed>4.93</speed>
  <fix>3d</fix>
</trkpt>
<trkpt lat="40.0718531" lon="-105.2278177">
  <ele>1583.04</ele>
  <time>2026-08-28T17:53:00Z</time>
  <course>113.08</course>
  <speed>4.876925260858526</speed>
  <fix>3d</fix>
</trkpt>
<trkpt lat="40.0718569" lon="-105.2278301">
  <ele>1583.0</ele>
  <time>2026-08-28T17:53:00Z</time>
  <course>109.86</course>
  <speed>4.93</speed>
  <fix>3d</fix>
</trkpt>
<trkpt lat="40.0718514" lon="-105.2278124">
  <ele>1583.04</ele>
  <time>2026-08-28T17:53:00Z</time>
  <course>114.24</course>
  <speed>4.866559359547565</speed>
  <fix>3d</fix>
</trkpt>
<trkpt lat="40.0718537" lon="-105.2278193">
  <ele>1583.0</ele>
  <time>2026-08-28T17:53:00Z</time>
  <course>112.15</course>
  <speed>4.9</speed>
  <fix>3d</fix>
</trkpt>
<trkpt lat="40.0718496" lon="-105.2278071">
  <ele>1583.04</ele>
  <time>2026-08-28T17:53:00Z</time>
  <course>115.4</course>
  <speed>4.8541219597369</speed>
  <fix>3d</fix>
</trkpt>
<trkpt lat="40.0718537" lon="-105.2278193">
  <ele>1583.0</ele>
  <time>2026-08-28T17:53:00Z</time>
  <course>112.15</course>
  <speed>4.9</speed>
  <fix>3d</fix>
</trkpt>
<trkpt lat="40.0718477" lon="-105.2278019">
  <ele>1583.04</ele>
  <time>2026-08-28T17:53:00Z</time>
  <course>115.83</course>
  <speed>4.839762390861766</speed>
  <fix>3d</fix>
</trkpt>
<trkpt lat="40.0718537" lon="-105.2278193">
  <ele>1583.0</ele>
  <time>2026-08-28T17:53:00Z</time>
  <course>112.15</course>
  <speed>4.9</speed>
  <fix>3d</fix>
</trkpt>
<trkpt lat="40.0718459" lon="-105.2277968">
  <ele>1583.04</ele>
  <time>2026-08-28T17:53:00Z</time>
  <course>115.83</course>
  <speed>4.804081597974789</speed>
  <fix>3d</fix>
</trkpt>
<trkpt lat="40.0718503" lon="-105.2278087">
  <ele>1583.0</ele>
  <time>2026-08-28T17:53:00Z</time>
  <course>114.09</course>
  <speed>4.87</speed>
  <fix>3d</fix>
</trkpt>
<trkpt lat="40.0718441" lon="-105.2277918">
  <ele>1583.03</ele>
  <time>2026-08-28T17:53:00Z</time>
  <course>115.9</course>
  <speed>4.750336830162678</speed>
  <fix>3d</fix>
</trkpt>
<trkpt lat="40.0718503" lon="-105.2278087">
  <ele>1583.0</ele>
  <time>2026-08-28T17:53:00Z</time>
  <course>114.09</course>
  <speed>4.87</speed>
  <fix>3d</fix>
</trkpt>
<trkpt lat="40.0718423" lon="-105.2277868">
  <ele>1583.03</ele>
  <time>2026-08-28T17:53:00Z</time>
  <course>115.96</course>
  <speed>4.687568666163728</speed>
  <fix>3d</fix>
</trkpt>
<trkpt lat="40.0718466" lon="-105.2277984">
  <ele>1583.0</ele>
  <time>2026-08-28T17:53:00Z</time>
  <course>114.92</course>
  <speed>4.81</speed>
  <fix>3d</fix>
</trkpt>
<trkpt lat="40.0718405" lon="-105.2277819">
  <ele>1583.02</ele>
  <time>2026-08-28T17:53:00Z</time>
  <course>116.03</course>
  <speed>4.6114748183200565</speed>
  <fix>3d</fix>
</trkpt>
<trkpt lat="40.0718466" lon="-105.2277984">
  <ele>1583.0</ele>
  <time>2026-08-28T17:53:00Z</time>
  <course>114.92</course>
  <speed>4.81</speed>
  <fix>3d</fix>
</trkpt>
<trkpt lat="40.0718388" lon="-105.2277771">
  <ele>1583.02</ele>
  <time>2026-08-28T17:53:00Z</time>
  <course>116.1</course>
  <speed>4.526367196770496</speed>
  <fix>3d</fix>
</trkpt>
<trkpt lat="40.071843" lon="-105.2277883">
  <ele>1583.0</ele>
  <time>2026-08-28T17:53:00Z</time>
  <course>115.02</course>
  <speed>4.7</speed>
  <fix>3d</fix>
</trkpt>
<trkpt lat="40.071837" lon="-105.2277723">
  <ele>1583.02</ele>
  <time>2026-08-28T17:53:00Z</time>
  <course>116.23</course>
  <speed>4.441272340219636</speed>
  <fix>3d</fix>
</trkpt>
<trkpt lat="40.071843" lon="-105.2277883">
  <ele>1583.0</ele>
  <time>2026-08-28T17:53:00Z</time>
  <course>115.02</course>
  <speed>4.7</speed>
  <fix>3d</fix>
</trkpt>
<trkpt lat="40.0718354" lon="-105.2277677">
  <ele>1583.02</ele>
  <time>2026-08-28T17:53:00Z</time>
  <course>116.35</course>
  <speed>4.33383202258694</speed>
  <fix>3d</fix>
</trkpt>
<trkpt lat="40.0718395" lon="-105.2277784">
  <ele>1583.0</ele>
  <time>2026-08-28T17:53:00Z</time>
  <course>115.17</course>
  <speed>4.55</speed>
  <fix>3d</fix>
</trkpt>
<trkpt lat="40.0718337" lon="-105.2277632">
  <ele>1583.01</ele>
  <time>2026-08-28T17:53:00Z</time>
  <course>116.53</course>
  <speed>4.226405091800832</speed>
  <fix>3d</fix>
</trkpt>
<trkpt lat="40.0718361" lon="-105.227769">
  <ele>1583.0</ele>
  <time>2026-08-28T17:53:00Z</time>
  <course>115.41</course>
  <speed>4.36</speed>
  <fix>3d</fix>
</trkpt>
<trkpt lat="40.0718321" lon="-105.2277588">
  <ele>1583.01</ele>
  <time>2026-08-28T17:53:00Z</time>
  <course>116.74</course>
  <speed>4.110012165432117</speed>
  <fix>3d</fix>
</trkpt>
<trkpt lat="40.0718361" lon="-105.227769">
  <ele>1583.0</ele>
  <time>2026-08-28T17:53:00Z</time>
  <course>115.41</course>
  <speed>4.36</speed>
  <fix>3d</fix>
</trkpt>
<trkpt lat="40.0718305" lon="-105.2277545">
  <ele>1583.01</ele>
  <time>2026-08-28T17:53:00Z</time>
  <course>116.98</course>
  <speed>3.993657471541594</speed>
  <fix>3d</fix>
</trkpt>
<trkpt lat="40.0718327" lon="-105.2277599">
  <ele>1583.0</ele>
  <time>2026-08-28T17:53:00Z</time>
  <course>115.78</course>
  <speed>4.14</speed>
  <fix>3d</fix>
</trkpt>
<trkpt lat="40.071829" lon="-105.2277504">
  <ele>1583.01</ele>
  <time>2026-08-28T17:53:00Z</time>
  <course>117.27</course>
  <speed>3.872880065274421</speed>
  <fix>3d</fix>
</trkpt>
<trkpt lat="40.0718327" lon="-105.2277599">
  <ele>1583.0</ele>
  <time>2026-08-28T17:53:00Z</time>
  <course>115.78</course>
  <speed>4.14</speed>
  <fix>3d</fix>
</trkpt>
<trkpt lat="40.0718274" lon="-105.2277464">
  <ele>1583.01</ele>
  <time>2026-08-28T17:53:00Z</time>
  <course>117.62</course>
  <speed>3.7477459892580764</speed>
  <fix>3d</fix>
</trkpt>
<trkpt lat="40.0718296" lon="-105.2277515">
  <ele>1583.0</ele>
  <time>2026-08-28T17:53:00Z</time>
  <course>116.32</course>
  <speed>3.9</speed>
  <fix>3d</fix>
</trkpt>
<trkpt lat="40.0718259" lon="-105.2277425">
  <ele>1583.01</ele>
  <time>2026-08-28T17:53:00Z</time>
  <course>118.01</course>
  <speed>3.6227061708065698</speed>
  <fix>3d</fix>
</trkpt>
<trkpt lat="40.0718296" lon="-105.2277515">
  <ele>1583.0</ele>
  <time>2026-08-28T17:53:00Z</time>
  <course>116.32</course>
  <speed>3.9</speed>
  <fix>3d</fix>
</trkpt>
<trkpt lat="40.0718245" lon="-105.2277387">
  <ele>1583.01</ele>
  <time>2026-08-28T17:53:00Z</time>
  <course>118.48</course>
  <speed>3.4935655139126847</speed>
  <fix>3d</fix>
</trkpt>
<trkpt lat="40.0718265" lon="-105.2277435">
  <ele>1583.0</ele>
  <time>2026-08-28T17:53:00Z</time>
  <course>117.06</course>
  <speed>3.65</speed>
  <fix>3d</fix>
</trkpt>
<trkpt lat="40.071823" lon="-105.2277351">
  <ele>1583.01</ele>
  <time>2026-08-28T17:53:00Z</time>
  <course>118.98</course>
  <speed>3.360014880919428</speed>
  <fix>3d</fix>
</trkpt>
<trkpt lat="40.0718265" lon="-105.2277435">
  <ele>1583.0</ele>
  <time>2026-08-28T17:53:00Z</time>
  <course>117.06</course>
  <speed>3.65</speed>
  <fix>3d</fix>
</trkpt>
<trkpt lat="40.0718216" lon="-105.2277317">
  <ele>1583.01</ele>
  <time>2026-08-28T17:53:00Z</time>
  <course>119.55</course>
  <speed>3.231485726411305</speed>
  <fix>3d</fix>
</trkpt>
<trkpt lat="40.0718236" lon="-105.2277362">
  <ele>1583.0</ele>
  <time>2026-08-28T17:53:00Z</time>
  <course>118.01</course>
  <speed>3.4</speed>
  <fix>3d</fix>
</trkpt>
<trkpt lat="40.0718202" lon="-105.2277284">
  <ele>1583.0</ele>
  <time>2026-08-28T17:53:00Z</time>
  <course>120.19</course>
  <speed>3.1033691369220002</speed>
  <fix>3d</fix>
</trkpt>
<trkpt lat="40.0718236" lon="-105.2277362">
  <ele>1583.0</ele>
  <time>2026-08-28T17:53:00Z</time>
  <course>118.01</course>
  <speed>3.4</speed>
  <fix>3d</fix>
</trkpt>
<trkpt lat="40.0718189" lon="-105.2277253">
  <ele>1583.0</ele>
  <time>2026-08-28T17:53:00Z</time>
  <course>120.87</course>
  <speed>2.9793455657241243</speed>
  <fix>3d</fix>
</trkpt>
<trkpt lat="40.0718208" lon="-105.2277294">
  <ele>1583.0</ele>
  <time>2026-08-28T17:53:00Z</time>
  <course>119.2</course>
  <speed>3.14</speed>
  <fix>3d</fix>
</trkpt>
<trkpt lat="40.0718176" lon="-105.2277223">
  <ele>1583.0</ele>
  <time>2026-08-28T17:53:00Z</time>
  <course>121.57</course>
  <speed>2.8520343616443338</speed>
  <fix>3d</fix>
</trkpt>
<trkpt lat="40.0718208" lon="-105.2277294">
  <ele>1583.0</ele>
  <time>2026-08-28T17:53:00Z</time>
  <course>119.2</course>
  <speed>3.14</speed>
  <fix>3d</fix>
</trkpt>
<trkpt lat="40.0718163" lon="-105.2277195">
  <ele>1582.99</ele>
  <time>2026-08-28T17:53:00Z</time>
  <course>122.28</course>
  <speed>2.7338251590034064</speed>
  <fix>3d</fix>
</trkpt>
<trkpt lat="40.0718181" lon="-105.2277232">
  <ele>1583.0</ele>
  <time>2026-08-28T17:53:00Z</time>
  <course>120.56</course>
  <speed>2.89</speed>
  <fix>3d</fix>
</trkpt>
<trkpt lat="40.071815" lon="-105.2277168">
  <ele>1582.99</ele>
  <time>2026-08-28T17:53:00Z</time>
  <course>123.01</course>
  <speed>2.610785322465254</speed>
  <fix>3d</fix>
</trkpt>
<trkpt lat="40.0718181" lon="-105.2277232">
  <ele>1583.0</ele>
  <time>2026-08-28T17:53:00Z</time>
  <course>120.56</course>
  <speed>2.89</speed>
  <fix>3d</fix>
</trkpt>
<trkpt lat="40.0718138" lon="-105.2277143">
  <ele>1582.99</ele>
  <time>2026-08-28T17:53:00Z</time>
  <course>123.74</course>
  <speed>2.4880916381837705</speed>
  <fix>3d</fix>
</trkpt>
<trkpt lat="40.0718181" lon="-105.2277232">
  <ele>1583.0</ele>
  <time>2026-08-28T17:53:00Z</time>
  <course>120.56</course>
  <speed>2.89</speed>
  <fix>3d</fix>
</trkpt>
<trkpt lat="40.0718126" lon="-105.2277119">
  <ele>1582.98</ele>
  <time>2026-08-28T17:53:00Z</time>
  <course>124.49</course>
  <speed>2.3657979626333265</speed>
  <fix>3d</fix>
</trkpt>
<trkpt lat="40.0718155" lon="-105.2277177">
  <ele>1583.0</ele>
  <time>2026-08-28T17:53:00Z</time>
  <course>122.0</course>
  <speed>2.65</speed>
  <fix>3d</fix>
</trkpt>
<trkpt lat="40.0718114" lon="-105.2277097">
  <ele>1582.98</ele>
  <time>2026-08-28T17:53:00Z</time>
  <course>125.24</course>
  <speed>2.2522211259110416</speed>
  <fix>3d</fix>
</trkpt>
<trkpt lat="40.0718155" lon="-105.2277177">
  <ele>1583.0</ele>
  <time>2026-08-28T17:53:00Z</time>
  <course>122.0</course>
  <speed>2.65</speed>
  <fix>3d</fix>
</trkpt>
<trkpt lat="40.0718103" lon="-105.2277075">
  <ele>1582.98</ele>
  <time>2026-08-28T17:53:00Z</time>
  <course>125.99</course>
  <speed>2.1390184664934524</speed>
  <fix>3d</fix>
</trkpt>
<trkpt lat="40.0718131" lon="-105.2277127">
  <ele>1583.0</ele>
  <time>2026-08-28T17:53:00Z</time>
  <course>123.47</course>
  <speed>2.42</speed>
  <fix>3d</fix>
</trkpt>
<trkpt lat="40.0718092" lon="-105.2277056">
  <ele>1582.98</ele>
  <time>2026-08-28T17:53:00Z</time>
  <course>126.74</course>
  <speed>2.026252698949467</speed>
  <fix>3d</fix>
</trkpt>
<trkpt lat="40.0718131" lon="-105.2277127">
  <ele>1583.0</ele>
  <time>2026-08-28T17:53:00Z</time>
  <course>123.47</course>
  <speed>2.42</speed>
  <fix>3d</fix>
</trkpt>
<trkpt lat="40.0718082" lon="-105.2277037">
  <ele>1582.98</ele>
  <time>2026-08-28T17:53:00Z</time>
  <course>127.47</course>
  <speed>1.9220041623263984</speed>
  <fix>3d</fix>
</trkpt>
<trkpt lat="40.0718107" lon="-105.2277082">
  <ele>1583.0</ele>
  <time>2026-08-28T17:53:00Z</time>
  <course>124.96</course>
  <speed>2.19</speed>
  <fix>3d</fix>
</trkpt>
<trkpt lat="40.0718072" lon="-105.2277019">
  <ele>1582.98</ele>
  <time>2026-08-28T17:53:00Z</time>
  <course>128.19</course>
  <speed>1.8120706387997132</speed>
  <fix>3d</fix>
</trkpt>
<trkpt lat="40.0718085" lon="-105.2277042">
  <ele>1583.0</ele>
  <time>2026-08-28T17:53:00Z</time>
  <course>126.43</course>
  <speed>1.98</speed>
  <fix>3d</fix>
</trkpt>
<trkpt lat="40.0718062" lon="-105.2277003">
  <ele>1582.98</ele>
  <time>2026-08-28T17:53:00Z</time>
  <course>128.83</course>
  <speed>1.7383325343558405</speed>
  <fix>3d</fix>
</trkpt>
<trkpt lat="40.0718085" lon="-105.2277042">
  <ele>1583.0</ele>
  <time>2026-08-28T17:53:00Z</time>
  <course>126.43</course>
  <speed>1.98</speed>
  <fix>3d</fix>
</trkpt>
<trkpt lat="40.0718053" lon="-105.2276987">
  <ele>1582.98</ele>
  <time>2026-08-28T17:53:00Z</time>
  <course>129.4</course>
  <speed>1.6866831356244716</speed>
  <fix>3d</fix>
</trkpt>
<trkpt lat="40.0718064" lon="-105.2277007">
  <ele>1583.0</ele>
  <time>2026-08-28T17:53:00Z</time>
  <course>127.77</course>
  <speed>1.81</speed>
  <fix>3d</fix>
</trkpt>
<trkpt lat="40.0718043" lon="-105.2276972">
  <ele>1582.98</ele>
  <time>2026-08-28T17:53:00Z</time>
  <course>129.9</course>
  <speed>1.6696406799069075</speed>
  <fix>3d</fix>
</trkpt>
<trkpt lat="40.0718064" lon="-105.2277007">
  <ele>1583.0</ele>
  <time>2026-08-28T17:53:00Z</time>
  <course>127.77</course>
  <speed>1.81</speed>
  <fix>3d</fix>
</trkpt>
<trkpt lat="40.0718033" lon="-105.2276956">
  <ele>1582.97</ele>
  <time>2026-08-28T17:53:00Z</time>
  <course>130.35</course>
  <speed>1.676007159889241</speed>
  <fix>3d</fix>
</trkpt>
<trkpt lat="40.0718045" lon="-105.2276974">
  <ele>1583.0</ele>
  <time>2026-08-28T17:53:00Z</time>
  <course>128.87</course>
  <speed>1.74</speed>
  <fix>3d</fix>
</trkpt>
<trkpt lat="40.0718023" lon="-105.227694">
  <ele>1582.97</ele>
  <time>2026-08-28T17:53:00Z</time>
  <course>130.76</course>
  <speed>1.717032323516363</speed>
  <fix>3d</fix>
</trkpt>
<trkpt lat="40.0718045" lon="-105.2276974">
  <ele>1583.0</ele>
  <time>2026-08-28T17:53:00Z</time>
  <course>128.87</course>
  <speed>1.74</speed>
  <fix>3d</fix>
</trkpt>
<trkpt lat="40.0718013" lon="-105.2276925">
  <ele>1582.97</ele>
  <time>2026-08-28T17:53:00Z</time>
  <course>131.13</course>
  <speed>1.765814259767997</speed>
  <fix>3d</fix>
</trkpt>
<trkpt lat="40.0718025" lon="-105.2276943">
  <ele>1583.0</ele>
  <time>2026-08-28T17:53:00Z</time>
  <course>129.74</course>
  <speed>1.78</speed>
  <fix>3d</fix>
</trkpt>
<trkpt lat="40.0718002" lon="-105.2276908">
  <ele>1582.97</ele>
  <time>2026-08-28T17:53:00Z</time>
  <course>131.46</course>
  <speed>1.842878183711555</speed>
  <fix>3d</fix>
</trkpt>
<trkpt lat="40.0718025" lon="-105.2276943">
  <ele>1583.0</ele>
  <time>2026-08-28T17:53:00Z</time>
  <course>129.74</course>
  <speed>1.78</speed>
  <fix>3d</fix>
</trkpt>
<trkpt lat="40.0717991" lon="-105.2276891">
  <ele>1582.97</ele>
  <time>2026-08-28T17:53:00Z</time>
  <course>131.76</course>
  <speed>1.94164878389476</speed>
  <fix>3d</fix>
</trkpt>
<trkpt lat="40.0718004" lon="-105.2276909">
  <ele>1583.0</ele>
  <time>2026-08-28T17:53:00Z</time>
  <course>130.44</course>
  <speed>1.91</speed>
  <fix>3d</fix>
</trkpt>
<trkpt lat="40.0717978" lon="-105.2276872">
  <ele>1582.97</ele>
  <time>2026-08-28T17:53:00Z</time>
  <course>132.03</course>
  <speed>2.04707107839469</speed>
  <fix>3d</fix>
</trkpt>
<trkpt lat="40.0718004" lon="-105.2276909">
  <ele>1583.0</ele>
  <time>2026-08-28T17:53:00Z</time>
  <course>130.44</course>
  <speed>1.91</speed>
  <fix>3d</fix>
</trkpt>
<trkpt lat="40.0717965" lon="-105.2276854">
  <ele>1582.97</ele>
  <time>2026-08-28T17:53:00Z</time>
  <course>132.28</course>
  <speed>2.166702563805194</speed>
  <fix>3d</fix>
</trkpt>
<trkpt lat="40.071798" lon="-105.2276873">
  <ele>1583.0</ele>
  <time>2026-08-28T17:53:00Z</time>
  <course>131.01</course>
  <speed>2.1</speed>
  <fix>3d</fix>
</trkpt>
<trkpt lat="40.0717952" lon="-105.2276833">
  <ele>1582.97</ele>
  <time>2026-08-28T17:53:00Z</time>
  <course>132.51</course>
  <speed>2.286416410018088</speed>
  <fix>3d</fix>
</trkpt>
<trkpt lat="40.071798" lon="-105.2276873">
  <ele>1583.0</ele>
  <time>2026-08-28T17:53:00Z</time>
  <course>131.01</course>
  <speed>2.1</speed>
  <fix>3d</fix>
</trkpt>
<trkpt lat="40.0717937" lon="-105.2276812">
  <ele>1582.98</ele>
  <time>2026-08-28T17:53:00Z</time>
  <course>132.72</course>
  <speed>2.4203305559365234</speed>
  <fix>3d</fix>
</trkpt>
<trkpt lat="40.0717954" lon="-105.2276834">
  <ele>1583.0</ele>
  <time>2026-08-28T17:53:00Z</time>
  <course>131.47</course>
  <speed>2.33</speed>
  <fix>3d</fix>
</trkpt>
<trkpt lat="40.0717922" lon="-105.227679">
  <ele>1582.98</ele>
  <time>2026-08-28T17:53:00Z</time>
  <course>132.9</course>
  <speed>2.5548581173912575</speed>
  <fix>3d</fix>
</trkpt>
<trkpt lat="40.0717954" lon="-105.2276834">
  <ele>1583.0</ele>
  <time>2026-08-28T17:53:00Z</time>
  <course>131.47</course>
  <speed>2.33</speed>
  <fix>3d</fix>
</trkpt>
<trkpt lat="40.0717905" lon="-105.2276766">
  <ele>1582.98</ele>
  <time>2026-08-28T17:53:00Z</time>
  <course>133.08</course>
  <speed>2.6888287412923866</speed>
  <fix>3d</fix>
</trkpt>
<trkpt lat="40.0717954" lon="-105.2276834">
  <ele>1583.0</ele>
  <time>2026-08-28T17:53:00Z</time>
  <course>131.47</course>
  <speed>2.33</speed>
  <fix>3d</fix>
</trkpt>
<trkpt lat="40.0717888" lon="-105.2276742">
  <ele>1582.98</ele>
  <time>2026-08-28T17:53:00Z</time>
  <course>133.23</course>
  <speed>2.822853166567471</speed>
  <fix>3d</fix>
</trkpt>
<trkpt lat="40.0717924" lon="-105.2276791">
  <ele>1583.0</ele>
  <time>2026-08-28T17:53:00Z</time>
  <course>131.86</course>
  <speed>2.59</speed>
  <fix>3d</fix>
</trkpt>
<trkpt lat="40.071787" lon="-105.2276717">
  <ele>1582.98</ele>
  <time>2026-08-28T17:53:00Z</time>
  <course>133.39</course>
  <speed>2.9642030969554027</speed>
  <fix>3d</fix>
</trkpt>
<trkpt lat="40.0717924" lon="-105.2276791">
  <ele>1583.0</ele>
  <time>2026-08-28T17:53:00Z</time>
  <course>131.86</course>
  <speed>2.59</speed>
  <fix>3d</fix>
</trkpt>
<trkpt lat="40.0717851" lon="-105.227669">
  <ele>1582.98</ele>
  <time>2026-08-28T17:53:00Z</time>
  <course>133.51</course>
  <speed>3.09142362027594</speed>
  <fix>3d</fix>
</trkpt>
<trkpt lat="40.0717892" lon="-105.2276743">
  <ele>1583.0</ele>
  <time>2026-08-28T17:53:00Z</time>
  <course>132.18</course>
  <speed>2.85</speed>
  <fix>3d</fix>
</trkpt>
<trkpt lat="40.0717832" lon="-105.2276663">
  <ele>1582.98</ele>
  <time>2026-08-28T17:53:00Z</time>
  <course>133.64</course>
  <speed>3.225523213371747</speed>
  <fix>3d</fix>
</trkpt>
<trkpt lat="40.0717892" lon="-105.2276743">
  <ele>1583.0</ele>
  <time>2026-08-28T17:53:00Z</time>
  <course>132.18</course>
  <speed>2.85</speed>
  <fix>3d</fix>
</trkpt>
<trkpt lat="40.0717812" lon="-105.2276634">
  <ele>1582.98</ele>
  <time>2026-08-28T17:53:00Z</time>
  <course>133.78</course>
  <speed>3.3455193916640207</speed>
  <fix>3d</fix>
</trkpt>
<trkpt lat="40.0717856" lon="-105.2276691">
  <ele>1583.0</ele>
  <time>2026-08-28T17:53:00Z</time>
  <course>132.46</course>
  <speed>3.11</speed>
  <fix>3d</fix>
</trkpt>
<trkpt lat="40.071779" lon="-105.2276604">
  <ele>1582.97</ele>
  <time>2026-08-28T17:53:00Z</time>
  <course>133.88</course>
  <speed>3.472765468614315</speed>
  <fix>3d</fix>
</trkpt>
<trkpt lat="40.0717816" lon="-105.2276636">
  <ele>1583.0</ele>
  <time>2026-08-28T17:53:00Z</time>
  <course>132.7</course>
  <speed>3.36</speed>
  <fix>3d</fix>
</trkpt>
<trkpt lat="40.0717768" lon="-105.2276574">
  <ele>1582.97</ele>
  <time>2026-08-28T17:53:00Z</time>
  <course>133.98</course>
  <speed>3.592798352259698</speed>
  <fix>3d</fix>
</trkpt>
<trkpt lat="40.0717816" lon="-105.2276636">
  <ele>1583.0</ele>
  <time>2026-08-28T17:53:00Z</time>
  <course>132.7</course>
  <speed>3.36</speed>
  <fix>3d</fix>
</trkpt>
<trkpt lat="40.0717745" lon="-105.2276542">
  <ele>1582.97</ele>
  <time>2026-08-28T17:53:00Z</time>
  <course>134.07</course>
  <speed>3.70591419220683</speed>
  <fix>3d</fix>
</trkpt>
<trkpt lat="40.0717774" lon="-105.2276576">
  <ele>1583.0</ele>
  <time>2026-08-28T17:53:00Z</time>
  <course>132.92</course>
  <speed>3.59</speed>
  <fix>3d</fix>
</trkpt>
<trkpt lat="40.0717722" lon="-105.2276509">
  <ele>1582.97</ele>
  <time>2026-08-28T17:53:00Z</time>
  <course>134.17</course>
  <speed>3.811836827567518</speed>
  <fix>3d</fix>
</trkpt>
<trkpt lat="40.0717774" lon="-105.2276576">
  <ele>1583.0</ele>
  <time>2026-08-28T17:53:00Z</time>
  <course>132.92</course>
  <speed>3.59</speed>
  <fix>3d</fix>
</trkpt>
<trkpt lat="40.0717698" lon="-105.2276476">
  <ele>1582.97</ele>
  <time>2026-08-28T17:53:00Z</time>
  <course>134.27</course>
  <speed>3.92495859850776</speed>
  <fix>3d</fix>
</trkpt>
<trkpt lat="40.0717728" lon="-105.2276512">
  <ele>1583.0</ele>
  <time>2026-08-28T17:53:00Z</time>
  <course>133.12</course>
  <speed>3.81</speed>
  <fix>3d</fix>
</trkpt>
<trkpt lat="40.0717672" lon="-105.2276441">
  <ele>1582.97</ele>
  <time>2026-08-28T17:53:00Z</time>
  <course>134.38</course>
  <speed>4.030905605444017</speed>
  <fix>3d</fix>
</trkpt>
<trkpt lat="40.0717728" lon="-105.2276512">
  <ele>1583.0</ele>
  <time>2026-08-28T17:53:00Z</time>
  <course>133.12</course>
  <speed>3.81</speed>
  <fix>3d</fix>
</trkpt>
<trkpt lat="40.0717647" lon="-105.2276406">
  <ele>1582.97</ele>
  <time>2026-08-28T17:53:00Z</time>
  <course>134.48</course>
  <speed>4.122729678259296</speed>
  <fix>3d</fix>
</trkpt>
<trkpt lat="40.071768" lon="-105.2276445">
  <ele>1583.0</ele>
  <time>2026-08-28T17:53:00Z</time>
  <course>133.33</course>
  <speed>4.02</speed>
  <fix>3d</fix>
</trkpt>
<trkpt lat="40.071762" lon="-105.227637">
  <ele>1582.97</ele>
  <time>2026-08-28T17:53:00Z</time>
  <course>134.57</course>
  <speed>4.221717659910478</speed>
  <fix>3d</fix>
</trkpt>
<trkpt lat="40.071768" lon="-105.2276445">
  <ele>1583.0</ele>
  <time>2026-08-28T17:53:00Z</time>
  <course>133.33</course>
  <speed>4.02</speed>
  <fix>3d</fix>
</trkpt>
<trkpt lat="40.0717593" lon="-105.2276333">
  <ele>1582.97</ele>
  <time>2026-08-28T17:53:00Z</time>
  <course>134.65</course>
  <speed>4.313560014651471</speed>
  <fix>3d</fix>
</trkpt>
<trkpt lat="40.0717629" lon="-105.2276375">
  <ele>1583.0</ele>
  <time>2026-08-28T17:53:00Z</time>
  <course>133.53</course>
  <speed>4.2</speed>
  <fix>3d</fix>
</trkpt>
<trkpt lat="40.0717566" lon="-105.2276295">
  <ele>1582.98</ele>
  <time>2026-08-28T17:53:00Z</time>
  <course>134.73</course>
  <speed>4.405417119865042</speed>
  <fix>3d</fix>
</trkpt>
<trkpt lat="40.0717629" lon="-105.2276375">
  <ele>1583.0</ele>
  <time>2026-08-28T17:53:00Z</time>
  <course>133.53</course>
  <speed>4.2</speed>
  <fix>3d</fix>
</trkpt>
<trkpt lat="40.0717538" lon="-105.2276257">
  <ele>1582.98</ele>
  <time>2026-08-28T17:53:00Z</time>
  <course>134.78</course>
  <speed>4.490267252625394</speed>
  <fix>3d</fix>
</trkpt>
<trkpt lat="40.0717576" lon="-105.2276302">
  <ele>1583.0</ele>
  <time>2026-08-28T17:53:00Z</time>
  <course>133.69</course>
  <speed>4.38</speed>
  <fix>3d</fix>
</trkpt>
<trkpt lat="40.0717509" lon="-105.2276218">
  <ele>1582.98</ele>
  <time>2026-08-28T17:53:00Z</time>
  <course>134.84</course>
  <speed>4.575117484830308</speed>
  <fix>3d</fix>
</trkpt>
<trkpt lat="40.0717576" lon="-105.2276302">
  <ele>1583.0</ele>
  <time>2026-08-28T17:53:00Z</time>
  <course>133.69</course>
  <speed>4.38</speed>
  <fix>3d</fix>
</trkpt>
<trkpt lat="40.071748" lon="-105.2276179">
  <ele>1582.99</ele>
  <time>2026-08-28T17:53:00Z</time>
  <course>134.89</course>
  <speed>4.6599678110476255</speed>
  <fix>3d</fix>
</trkpt>
<trkpt lat="40.071752" lon="-105.2276226">
  <ele>1583.0</ele>
  <time>2026-08-28T17:53:00Z</time>
  <course>133.83</course>
  <speed>4.55</speed>
  <fix>3d</fix>
</trkpt>
<trkpt lat="40.071745" lon="-105.2276139">
  <ele>1582.99</ele>
  <time>2026-08-28T17:53:00Z</time>
  <course>134.95</course>
  <speed>4.737699863857988</speed>
  <fix>3d</fix>
</trkpt>
<trkpt lat="40.071752" lon="-105.2276226">
  <ele>1583.0</ele>
  <time>2026-08-28T17:53:00Z</time>
  <course>133.83</course>
  <speed>4.55</speed>
  <fix>3d</fix>
</trkpt>
<trkpt lat="40.071742" lon="-105.2276098">
  <ele>1582.99</ele>
  <time>2026-08-28T17:53:00Z</time>
  <course>135.0</course>
  <speed>4.822551192055923</speed>
  <fix>3d</fix>
</trkpt>
<trkpt lat="40.071752" lon="-105.2276226">
  <ele>1583.0</ele>
  <time>2026-08-28T17:53:00Z</time>
  <course>133.83</course>
  <speed>4.55</speed>
  <fix>3d</fix>
</trkpt>
<trkpt lat="40.071739" lon="-105.2276057">
  <ele>1583.0</ele>
  <time>2026-08-28T17:53:00Z</time>
  <course>135.05</course>
  <speed>4.900295909432409</speed>
  <fix>3d</fix>
</trkpt>
<trkpt lat="40.0717462" lon="-105.2276148">
  <ele>1583.0</ele>
  <time>2026-08-28T17:53:00Z</time>
  <course>133.96</course>
  <speed>4.71</speed>
  <fix>3d</fix>
</trkpt>
<trkpt lat="40.0717359" lon="-105.2276016">
  <ele>1583.0</ele>
  <time>2026-08-28T17:53:00Z</time>
  <course>135.11</course>
  <speed>4.978051827773593</speed>
  <fix>3d</fix>
</trkpt>
<trkpt lat="40.0717462" lon="-105.2276148">
  <ele>1583.0</ele>
  <time>2026-08-28T17:53:00Z</time>
  <course>133.96</course>
  <speed>4.71</speed>
  <fix>3d</fix>
</trkpt>
<trkpt lat="40.0717328" lon="-105.2275974">
  <ele>1583.0</ele>
  <time>2026-08-28T17:53:00Z</time>
  <course>135.16</course>
  <speed>5.048762224545735</speed>
  <fix>3d</fix>
</trkpt>
<trkpt lat="40.0717403" lon="-105.2276067">
  <ele>1583.0</ele>
  <time>2026-08-28T17:53:00Z</time>
  <course>134.09</course>
  <speed>4.86</speed>
  <fix>3d</fix>
</trkpt>
<trkpt lat="40.0717296" lon="-105.2275931">
  <ele>1583.0</ele>
  <time>2026-08-28T17:53:00Z</time>
  <course>135.22</course>
  <speed>5.119472629089836</speed>
  <fix>3d</fix>
</trkpt>
<trkpt lat="40.0717403" lon="-105.2276067">
  <ele>1583.0</ele>
  <time>2026-08-28T17:53:00Z</time>
  <course>134.09</course>
  <speed>4.86</speed>
  <fix>3d</fix>
</trkpt>
<trkpt lat="40.0717264" lon="-105.2275888">
  <ele>1583.0</ele>
  <time>2026-08-28T17:53:00Z</time>
  <course>135.27</course>
  <speed>5.183097529470191</speed>
  <fix>3d</fix>
</trkpt>
<trkpt lat="40.0717341" lon="-105.2275984">
  <ele>1583.0</ele>
  <time>2026-08-28T17:53:00Z</time>
  <course>134.23</course>
  <speed>5.02</speed>
  <fix>3d</fix>
</trkpt>
<trkpt lat="40.0717232" lon="-105.2275845">
  <ele>1583.0</ele>
  <time>2026-08-28T17:53:00Z</time>
  <course>135.33</course>
  <speed>5.232590180780452</speed>
  <fix>3d</fix>
</trkpt>
<trkpt lat="40.0717341" lon="-105.2275984">
  <ele>1583.0</ele>
  <time>2026-08-28T17:53:00Z</time>
  <course>134.23</course>
  <speed>5.02</speed>
  <fix>3d</fix>
</trkpt>
<trkpt lat="40.0717199" lon="-105.2275801">
  <ele>1583.0</ele>
  <time>2026-08-28T17:53:00Z</time>
  <course>135.38</course>
  <speed>5.2750165876516455</speed>
  <fix>3d</fix>
</trkpt>
<trkpt lat="40.0717277" lon="-105.2275898">
  <ele>1583.0</ele>
  <time>2026-08-28T17:53:00Z</time>
  <course>134.36</course>
  <speed>5.15</speed>
  <fix>3d</fix>
</trkpt>
<trkpt lat="40.0717166" lon="-105.2275757">
  <ele>1582.99</ele>
  <time>2026-08-28T17:53:00Z</time>
  <course>135.44</course>
  <speed>5.303300858899106</speed>
  <fix>3d</fix>
</trkpt>
<trkpt lat="40.0717212" lon="-105.2275811">
  <ele>1583.0</ele>
  <time>2026-08-28T17:53:00Z</time>
  <course>134.5</course>
  <speed>5.24</speed>
  <fix>3d</fix>
</trkpt>
<trkpt lat="40.0717133" lon="-105.2275713">
  <ele>1582.99</ele>
  <time>2026-08-28T17:53:00Z</time>
  <course>135.5</course>
  <speed>5.324518757596784</speed>
  <fix>3d</fix>
</trkpt>
<trkpt lat="40.0717212" lon="-105.2275811">
  <ele>1583.0</ele>
  <time>2026-08-28T17:53:00Z</time>
  <course>134.5</course>
  <speed>5.24</speed>
  <fix>3d</fix>
</trkpt>
<trkpt lat="40.0717099" lon="-105.2275669">
  <ele>1582.99</ele>
  <time>2026-08-28T17:53:00Z</time>
  <course>135.57</course>
  <speed>5.331603886261619</speed>
  <fix>3d</fix>
</trkpt>
<trkpt lat="40.0717145" lon="-105.2275722">
  <ele>1583.0</ele>
  <time>2026-08-28T17:53:00Z</time>
  <course>134.65</course>
  <speed>5.29</speed>
  <fix>3d</fix>
</trkpt>
<trkpt lat="40.0717065" lon="-105.2275624">
  <ele>1582.99</ele>
  <time>2026-08-28T17:53:00Z</time>
  <course>135.63</course>
  <speed>5.338698343229368</speed>
  <fix>3d</fix>
</trkpt>
<trkpt lat="40.0717145" lon="-105.2275722">
  <ele>1583.0</ele>
  <time>2026-08-28T17:53:00Z</time>
  <course>134.65</course>
  <speed>5.29</speed>
  <fix>3d</fix>
</trkpt>
<trkpt lat="40.0717032" lon="-105.2275579">
  <ele>1582.99</ele>
  <time>2026-08-28T17:53:00Z</time>
  <course>135.69</course>
  <speed>5.338698343229368</speed>
  <fix>3d</fix>
</trkpt>
<trkpt lat="40.0717078" lon="-105.2275634">
  <ele>1583.0</ele>
  <time>2026-08-28T17:53:00Z</time>
  <course>134.79</course>
  <speed>5.31</speed>
  <fix>3d</fix>
</trkpt>
<trkpt lat="40.0716998" lon="-105.2275534">
  <ele>1582.99</ele>
  <time>2026-08-28T17:53:00Z</time>
  <course>135.76</course>
  <speed>5.3245563195443815</speed>
  <fix>3d</fix>
</trkpt>
<trkpt lat="40.0717078" lon="-105.2275634">
  <ele>1583.0</ele>
  <time>2026-08-28T17:53:00Z</time>
  <course>134.79</course>
  <speed>5.31</speed>
  <fix>3d</fix>
</trkpt>
<trkpt lat="40.0716964" lon="-105.227549">
  <ele>1582.99</ele>
  <time>2026-08-28T17:53:00Z</time>
  <course>135.83</course>
  <speed>5.310489619611359</speed>
  <fix>3d</fix>
</trkpt>
<trkpt lat="40.0717011" lon="-105.2275545">
  <ele>1583.0</ele>
  <time>2026-08-28T17:53:00Z</time>
  <course>134.93</course>
  <speed>5.3</speed>
  <fix>3d</fix>
</trkpt>
<trkpt lat="40.071693" lon="-105.2275445">
  <ele>1582.99</ele>
  <time>2026-08-28T17:53:00Z</time>
  <course>135.89</course>
  <speed>5.2963477982473925</speed>
  <fix>3d</fix>
</trkpt>
<trkpt lat="40.0717011" lon="-105.2275545">
  <ele>1583.0</ele>
  <time>2026-08-28T17:53:00Z</time>
  <course>134.93</course>
  <speed>5.3</speed>
  <fix>3d</fix>
</trkpt>
<trkpt lat="40.0716896" lon="-105.2275401">
  <ele>1583.0</ele>
  <time>2026-08-28T17:53:00Z</time>
  <course>135.96</course>
  <speed>5.2751872004697615</speed>
  <fix>3d</fix>
</trkpt>
<trkpt lat="40.0716943" lon="-105.2275458">
  <ele>1583.0</ele>
  <time>2026-08-28T17:53:00Z</time>
  <course>135.08</course>
  <speed>5.27</speed>
  <fix>3d</fix>
</trkpt>
<trkpt lat="40.0716863" lon="-105.2275358">
  <ele>1583.0</ele>
  <time>2026-08-28T17:53:00Z</time>
  <course>136.02</course>
  <speed>5.246903848937962</speed>
  <fix>3d</fix>
</trkpt>
<trkpt lat="40.0716943" lon="-105.2275458">
  <ele>1583.0</ele>
  <time>2026-08-28T17:53:00Z</time>
  <course>135.08</course>
  <speed>5.27</speed>
  <fix>3d</fix>
</trkpt>
<trkpt lat="40.0716829" lon="-105.2275314">
  <ele>1583.0</ele>
  <time>2026-08-28T17:53:00Z</time>
  <course>136.09</course>
  <speed>5.225753534180501</speed>
  <fix>3d</fix>
</trkpt>
<trkpt lat="40.0716877" lon="-105.2275371">
  <ele>1583.0</ele>
  <time>2026-08-28T17:53:00Z</time>
  <course>135.22</course>
  <speed>5.22</speed>
  <fix>3d</fix>
</trkpt>
<trkpt lat="40.0716796" lon="-105.2275271">
  <ele>1583.0</ele>
  <time>2026-08-28T17:53:00Z</time>
  <course>136.16</course>
  <speed>5.190472040190565</speed>
  <fix>3d</fix>
</trkpt>
<trkpt lat="40.0716877" lon="-105.2275371">
  <ele>1583.0</ele>
  <time>2026-08-28T17:53:00Z</time>
  <course>135.22</course>
  <speed>5.22</speed>
  <fix>3d</fix>
</trkpt>
<trkpt lat="40.0716763" lon="-105.2275228">
  <ele>1583.0</ele>
  <time>2026-08-28T17:53:00Z</time>
  <course>136.2</course>
  <speed>5.162189457972266</speed>
  <fix>3d</fix>
</trkpt>
<trkpt lat="40.071681" lon="-105.2275285">
  <ele>1583.0</ele>
  <time>2026-08-28T17:53:00Z</time>
  <course>135.35</course>
  <speed>5.17</speed>
  <fix>3d</fix>
</trkpt>
<trkpt lat="40.071673" lon="-105.2275186">
  <ele>1583.0</ele>
  <time>2026-08-28T17:53:00Z</time>
  <course>136.26</course>
  <speed>5.141060201942786</speed>
  <fix>3d</fix>
</trkpt>
<trkpt lat="40.071681" lon="-105.2275285">
  <ele>1583.0</ele>
  <time>2026-08-28T17:53:00Z</time>
  <course>135.35</course>
  <speed>5.17</speed>
  <fix>3d</fix>
</trkpt>
<trkpt lat="40.0716697" lon="-105.2275143">
  <ele>1583.0</ele>
  <time>2026-08-28T17:53:00Z</time>
  <course>136.29</course>
  <speed>5.112778109795104</speed>
  <fix>3d</fix>
</trkpt>
<trkpt lat="40.071681" lon="-105.2275285">
  <ele>1583.0</ele>
  <time>2026-08-28T17:53:00Z</time>
  <course>135.35</course>
  <speed>5.17</speed>
  <fix>3d</fix>
</trkpt>
<trkpt lat="40.0716665" lon="-105.2275102">
  <ele>1583.0</ele>
  <time>2026-08-28T17:53:00Z</time>
  <course>136.33</course>
  <speed>5.0844960418904845</speed>
  <fix>3d</fix>
</trkpt>
<trkpt lat="40.0716744" lon="-105.22752">
  <ele>1583.0</ele>
  <time>2026-08-28T17:53:00Z</time>
  <course>135.45</course>
  <speed>5.12</speed>
  <fix>3d</fix>
</trkpt>
<trkpt lat="40.0716633" lon="-105.227506">
  <ele>1583.0</ele>
  <time>2026-08-28T17:53:00Z</time>
  <course>136.38</course>
  <speed>5.063378318869725</speed>
  <fix>3d</fix>
</trkpt>
<trkpt lat="40.0716744" lon="-105.22752">
  <ele>1583.0</ele>
  <time>2026-08-28T17:53:00Z</time>
  <course>135.45</course>
  <speed>5.12</speed>
  <fix>3d</fix>
</trkpt>
<trkpt lat="40.0716601" lon="-105.2275019">
  <ele>1583.0</ele>
  <time>2026-08-28T17:53:00Z</time>
  <course>136.39</course>
  <speed>5.03509682131337</speed>
  <fix>3d</fix>
</trkpt>
<trkpt lat="40.0716679" lon="-105.2275116">
  <ele>1583.0</ele>
  <time>2026-08-28T17:53:00Z</time>
  <course>135.55</course>
  <speed>5.07</speed>
  <fix>3d</fix>
</trkpt>
<trkpt lat="40.0716569" lon="-105.2274978">
  <ele>1583.01</ele>
  <time>2026-08-28T17:53:00Z</time>
  <course>136.41</course>
  <speed>5.020956084253276</speed>
  <fix>3d</fix>
</trkpt>
<trkpt lat="40.0716679" lon="-105.2275116">
  <ele>1583.0</ele>
  <time>2026-08-28T17:53:00Z</time>
  <course>135.55</course>
  <speed>5.07</speed>
  <fix>3d</fix>
</trkpt>
<trkpt lat="40.0716537" lon="-105.2274938">
  <ele>1583.0</ele>
  <time>2026-08-28T17:53:00Z</time>
  <course>136.45</course>
  <speed>4.992674633901151</speed>
  <fix>3d</fix>
</trkpt>
<trkpt lat="40.0716614" lon="-105.2275033">
  <ele>1583.0</ele>
  <time>2026-08-28T17:53:00Z</time>
  <course>135.62</course>
  <speed>5.03</speed>
  <fix>3d</fix>
</trkpt>
<trkpt lat="40.0716506" lon="-105.2274897">
  <ele>1583.0</ele>
  <time>2026-08-28T17:53:00Z</time>
  <course>136.47</course>
  <speed>4.978533920744138</speed>
  <fix>3d</fix>
</trkpt>
<trkpt lat="40.071655" lon="-105.2274951">
  <ele>1583.0</ele>
  <time>2026-08-28T17:53:00Z</time>
  <course>135.67</course>
  <speed>5.0</speed>
  <fix>3d</fix>
</trkpt>
<trkpt lat="40.0716474" lon="-105.2274856">
  <ele>1583.0</ele>
  <time>2026-08-28T17:53:00Z</time>
  <course>136.49</course>
  <speed>4.964393215691119</speed>
  <fix>3d</fix>
</trkpt>
<trkpt lat="40.071655" lon="-105.2274951">
  <ele>1583.0</ele>
  <time>2026-08-28T17:53:00Z</time>
  <course>135.67</course>
  <speed>5.0</speed>
  <fix>3d</fix>
</trkpt>
<trkpt lat="40.0716442" lon="-105.2274816">
  <ele>1583.0</ele>
  <time>2026-08-28T17:53:00Z</time>
  <course>136.5</course>
  <speed>4.957428769029365</speed>
  <fix>3d</fix>
</trkpt>
<trkpt lat="40.0716486" lon="-105.2274869">
  <ele>1583.0</ele>
  <time>2026-08-28T17:53:00Z</time>
  <course>135.72</course>
  <speed>4.97</speed>
  <fix>3d</fix>
</trkpt>
<trkpt lat="40.071641" lon="-105.2274775">
  <ele>1583.0</ele>
  <time>2026-08-28T17:53:00Z</time>
  <course>136.53</course>
  <speed>4.95025251881154</speed>
  <fix>3d</fix>
</trkpt>
<trkpt lat="40.0716486" lon="-105.2274869">
  <ele>1583.0</ele>
  <time>2026-08-28T17:53:00Z</time>
  <course>135.72</course>
  <speed>4.97</speed>
  <fix>3d</fix>
</trkpt>
<trkpt lat="40.0716379" lon="-105.2274735">
  <ele>1583.0</ele>
  <time>2026-08-28T17:53:00Z</time>
  <course>136.56</course>
  <speed>4.9432883792067</speed>
  <fix>3d</fix>
</trkpt>
<trkpt lat="40.0716422" lon="-105.2274788">
  <ele>1583.0</ele>
  <time>2026-08-28T17:53:00Z</time>
  <course>135.76</course>
  <speed>4.96</speed>
  <fix>3d</fix>
</trkpt>
<trkpt lat="40.0716347" lon="-105.2274694">
  <ele>1583.0</ele>
  <time>2026-08-28T17:53:00Z</time>
  <course>136.57</course>
  <speed>4.9432883792067</speed>
  <fix>3d</fix>
</trkpt>
<trkpt lat="40.0716422" lon="-105.2274788">
  <ele>1583.0</ele>
  <time>2026-08-28T17:53:00Z</time>
  <course>135.76</course>
  <speed>4.96</speed>
  <fix>3d</fix>
</trkpt>
<trkpt lat="40.0716315" lon="-105.2274654">
  <ele>1582.99</ele>
  <time>2026-08-28T17:53:00Z</time>
  <course>136.59</course>
  <speed>4.9432883792067</speed>
  <fix>3d</fix>
</trkpt>
<trkpt lat="40.0716357" lon="-105.2274707">
  <ele>1583.0</ele>
  <time>2026-08-28T17:53:00Z</time>
  <course>135.8</course>
  <speed>4.95</speed>
  <fix>3d</fix>
</trkpt>
<trkpt lat="40.0716283" lon="-105.2274613">
  <ele>1582.99</ele>
  <time>2026-08-28T17:53:00Z</time>
  <course>136.62</course>
  <speed>4.9432883792067</speed>
  <fix>3d</fix>
</trkpt>
<trkpt lat="40.0716357" lon="-105.2274707">
  <ele>1583.0</ele>
  <time>2026-08-28T17:53:00Z</time>
  <course>135.8</course>
  <speed>4.95</speed>
  <fix>3d</fix>
</trkpt>
<trkpt lat="40.0716251" lon="-105.2274572">
  <ele>1582.99</ele>
  <time>2026-08-28T17:53:00Z</time>
  <course>136.62</course>
  <speed>4.9432883792067</speed>
  <fix>3d</fix>
</trkpt>
<trkpt lat="40.0716294" lon="-105.2274625">
  <ele>1583.0</ele>
  <time>2026-08-28T17:53:00Z</time>
  <course>135.83</course>
  <speed>4.95</speed>
  <fix>3d</fix>
</trkpt>
<trkpt lat="40.0716219" lon="-105.2274531">
  <ele>1582.99</ele>
  <time>2026-08-28T17:53:00Z</time>
  <course>136.65</course>
  <speed>4.9432883792067</speed>
  <fix>3d</fix>
</trkpt>
<trkpt lat="40.0716294" lon="-105.2274625">
  <ele>1583.0</ele>
  <time>2026-08-28T17:53:00Z</time>
  <course>135.83</course>
  <speed>4.95</speed>
  <fix>3d</fix>
</trkpt>
<trkpt lat="40.0716187" lon="-105.2274491">
  <ele>1582.98</ele>
  <time>2026-08-28T17:53:00Z</time>
  <course>136.65</course>
  <speed>4.950474724710753</speed>
  <fix>3d</fix>
</trkpt>
<trkpt lat="40.071623" lon="-105.2274544">
  <ele>1583.0</ele>
  <time>2026-08-28T17:53:00Z</time>
  <course>135.85</course>
  <speed>4.95</speed>
  <fix>3d</fix>
</trkpt>
<trkpt lat="40.0716155" lon="-105.227445">
  <ele>1582.98</ele>
  <time>2026-08-28T17:53:00Z</time>
  <course>136.67</course>
  <speed>4.950474724710753</speed>
  <fix>3d</fix>
</trkpt>
<trkpt lat="40.071623" lon="-105.2274544">
  <ele>1583.0</ele>
  <time>2026-08-28T17:53:00Z</time>
  <course>135.85</course>
  <speed>4.95</speed>
  <fix>3d</fix>
</trkpt>
<trkpt lat="40.0716122" lon="-105.2274409">
  <ele>1582.98</ele>
  <time>2026-08-28T17:53:00Z</time>
  <course>136.67</course>
  <speed>4.950474724710753</speed>
  <fix>3d</fix>
</trkpt>
<trkpt lat="40.0716166" lon="-105.2274463">
  <ele>1583.0</ele>
  <time>2026-08-28T17:53:00Z</time>
  <course>135.87</course>
  <speed>4.96</speed>
  <fix>3d</fix>
</trkpt>
<trkpt lat="40.071609" lon="-105.2274369">
  <ele>1582.98</ele>
  <time>2026-08-28T17:53:00Z</time>
  <course>136.69</course>
  <speed>4.950474724710753</speed>
  <fix>3d</fix>
</trkpt>
<trkpt lat="40.0716166" lon="-105.2274463">
  <ele>1583.0</ele>
  <time>2026-08-28T17:53:00Z</time>
  <course>135.87</course>
  <speed>4.96</speed>
  <fix>3d</fix>
</trkpt>
<trkpt lat="40.0716058" lon="-105.2274328">
  <ele>1582.98</ele>
  <time>2026-08-28T17:53:00Z</time>
  <course>136.69</course>
  <speed>4.95767082408665</speed>
  <fix>3d</fix>
</trkpt>
<trkpt lat="40.0716166" lon="-105.2274463">
  <ele>1583.0</ele>
  <time>2026-08-28T17:53:00Z</time>
  <course>135.87</course>
  <speed>4.96</speed>
  <fix>3d</fix>
</trkpt>
<trkpt lat="40.0716026" lon="-105.2274288">
  <ele>1582.98</ele>
  <time>2026-08-28T17:53:00Z</time>
  <course>136.7</course>
  <speed>4.95767082408665</speed>
  <fix>3d</fix>
</trkpt>
<trkpt lat="40.0716101" lon="-105.2274382">
  <ele>1583.0</ele>
  <time>2026-08-28T17:53:00Z</time>
  <course>135.89</course>
  <speed>4.97</speed>
  <fix>3d</fix>
</trkpt>
<trkpt lat="40.0715994" lon="-105.2274247">
  <ele>1582.98</ele>
  <time>2026-08-28T17:53:00Z</time>
  <course>136.71</course>
  <speed>4.964614788681998</speed>
  <fix>3d</fix>
</trkpt>
<trkpt lat="40.0716101" lon="-105.2274382">
  <ele>1583.0</ele>
  <time>2026-08-28T17:53:00Z</time>
  <course>135.89</course>
  <speed>4.97</speed>
  <fix>3d</fix>
</trkpt>
<trkpt lat="40.0715963" lon="-105.2274207">
  <ele>1582.99</ele>
  <time>2026-08-28T17:53:00Z</time>
  <course>136.72</course>
  <speed>4.964614788681998</speed>
  <fix>3d</fix>
</trkpt>
<trkpt lat="40.0716038" lon="-105.22743">
  <ele>1583.0</ele>
  <time>2026-08-28T17:53:00Z</time>
  <course>135.9</course>
  <speed>4.97</speed>
  <fix>3d</fix>
</trkpt>
<trkpt lat="40.0715931" lon="-105.2274167">
  <ele>1582.99</ele>
  <time>2026-08-28T17:53:00Z</time>
  <course>136.72</course>
  <speed>4.971810535408605</speed>
  <fix>3d</fix>
</trkpt>
<trkpt lat="40.0716038" lon="-105.22743">
  <ele>1583.0</ele>
  <time>2026-08-28T17:53:00Z</time>
  <course>135.9</course>
  <speed>4.97</speed>
  <fix>3d</fix>
</trkpt>
<trkpt lat="40.0715899" lon="-105.2274126">
  <ele>1582.99</ele>
  <time>2026-08-28T17:53:00Z</time>
  <course>136.74</course>
  <speed>4.971810535408605</speed>
  <fix>3d</fix>
</trkpt>
<trkpt lat="40.0715973" lon="-105.2274219">
  <ele>1583.0</ele>
  <time>2026-08-28T17:53:00Z</time>
  <course>135.91</course>
  <speed>4.98</speed>
  <fix>3d</fix>
</trkpt>
<trkpt lat="40.0715867" lon="-105.2274086">
  <ele>1582.99</ele>
  <time>2026-08-28T17:53:00Z</time>
  <course>136.74</course>
  <speed>4.971810535408605</speed>
  <fix>3d</fix>
</trkpt>
<trkpt lat="40.0715973" lon="-105.2274219">
  <ele>1583.0</ele>
  <time>2026-08-28T17:53:00Z</time>
  <course>135.91</course>
  <speed>4.98</speed>
  <fix>3d</fix>
</trkpt>
<trkpt lat="40.0715835" lon="-105.2274045">
  <ele>1582.98</ele>
  <time>2026-08-28T17:53:00Z</time>
  <course>136.74</course>
  <speed>4.971810535408605</speed>
  <fix>3d</fix>
</trkpt>
<trkpt lat="40.0715908" lon="-105.2274137">
  <ele>1583.0</ele>
  <time>2026-08-28T17:53:00Z</time>
  <course>135.93</course>
  <speed>4.99</speed>
  <fix>3d</fix>
</trkpt>
<trkpt lat="40.0715803" lon="-105.2274005">
  <ele>1582.98</ele>
  <time>2026-08-28T17:53:00Z</time>
  <course>136.75</course>
  <speed>4.979015967036057</speed>
  <fix>3d</fix>
</trkpt>
<trkpt lat="40.0715844" lon="-105.2274056">
  <ele>1583.0</ele>
  <time>2026-08-28T17:53:00Z</time>
  <course>135.94</course>
  <speed>5.0</speed>
  <fix>3d</fix>
</trkpt>
<trkpt lat="40.0715771" lon="-105.2273964">
  <ele>1582.99</ele>
  <time>2026-08-28T17:53:00Z</time>
  <course>136.76</course>
  <speed>4.979015967036057</speed>
  <fix>3d</fix>
</trkpt>
<trkpt lat="40.0715844" lon="-105.2274056">
  <ele>1583.0</ele>
  <time>2026-08-28T17:53:00Z</time>
  <course>135.94</course>
  <speed>5.0</speed>
  <fix>3d</fix>
</trkpt>
<trkpt lat="40.0715738" lon="-105.2273924">
  <ele>1582.99</ele>
  <time>2026-08-28T17:53:00Z</time>
  <course>136.76</course>
  <speed>4.985950260481948</speed>
  <fix>3d</fix>
</trkpt>
<trkpt lat="40.0715779" lon="-105.2273975">
  <ele>1583.0</ele>
  <time>2026-08-28T17:53:00Z</time>
  <course>135.95</course>
  <speed>5.01</speed>
  <fix>3d</fix>
</trkpt>
<trkpt lat="40.0715706" lon="-105.2273883">
  <ele>1582.99</ele>
  <time>2026-08-28T17:53:00Z</time>
  <course>136.76</course>
  <speed>4.993155315028765</speed>
  <fix>3d</fix>
</trkpt>
<trkpt lat="40.0715779" lon="-105.2273975">
  <ele>1583.0</ele>
  <time>2026-08-28T17:53:00Z</time>
  <course>135.95</course>
  <speed>5.01</speed>
  <fix>3d</fix>
</trkpt>
<trkpt lat="40.0715673" lon="-105.2273842">
  <ele>1582.99</ele>
  <time>2026-08-28T17:53:00Z</time>
  <course>136.76</course>
  <speed>4.993155315028765</speed>
  <fix>3d</fix>
</trkpt>
<trkpt lat="40.0715714" lon="-105.2273893">
  <ele>1583.0</ele>
  <time>2026-08-28T17:53:00Z</time>
  <course>135.95</course>
  <speed>5.02</speed>
  <fix>3d</fix>
</trkpt>
<trkpt lat="40.0715641" lon="-105.22738">
  <ele>1582.99</ele>
  <time>2026-08-28T17:53:00Z</time>
  <course>136.78</course>
  <speed>4.993155315028765</speed>
  <fix>3d</fix>
</trkpt>
<trkpt lat="40.0715714" lon="-105.2273893">
  <ele>1583.0</ele>
  <time>2026-08-28T17:53:00Z</time>
  <course>135.95</course>
  <speed>5.02</speed>
  <fix>3d</fix>
</trkpt>
<trkpt lat="40.0715608" lon="-105.2273759">
  <ele>1582.99</ele>
  <time>2026-08-28T17:53:00Z</time>
  <course>136.78</course>
  <speed>4.993155315028765</speed>
  <fix>3d</fix>
</trkpt>
<trkpt lat="40.0715649" lon="-105.2273811">
  <ele>1583.0</ele>
  <time>2026-08-28T17:53:00Z</time>
  <course>135.96</course>
  <speed>5.03</speed>
  <fix>3d</fix>
</trkpt>
<trkpt lat="40.0715575" lon="-105.2273718">
  <ele>1582.99</ele>
  <time>2026-08-28T17:53:00Z</time>
  <course>136.79</course>
  <speed>5.007294678766169</speed>
  <fix>3d</fix>
</trkpt>
<trkpt lat="40.0715649" lon="-105.2273811">
  <ele>1583.0</ele>
  <time>2026-08-28T17:53:00Z</time>
  <course>135.96</course>
  <speed>5.03</speed>
  <fix>3d</fix>
</trkpt>
<trkpt lat="40.0715542" lon="-105.2273677">
  <ele>1582.99</ele>
  <time>2026-08-28T17:53:00Z</time>
  <course>136.79</course>
  <speed>5.007294678766169</speed>
  <fix>3d</fix>
</trkpt>
<trkpt lat="40.0715584" lon="-105.2273728">
  <ele>1583.0</ele>
  <time>2026-08-28T17:53:00Z</time>
  <course>135.96</course>
  <speed>5.03</speed>
  <fix>3d</fix>
</trkpt>
<trkpt lat="40.0715509" lon="-105.2273635">
  <ele>1582.98</ele>
  <time>2026-08-28T17:53:00Z</time>
  <course>136.79</course>
  <speed>5.007294678766169</speed>
  <fix>3d</fix>
</trkpt>
<trkpt lat="40.0715584" lon="-105.2273728">
  <ele>1583.0</ele>
  <time>2026-08-28T17:53:00Z</time>
  <course>135.96</course>
  <speed>5.03</speed>
  <fix>3d</fix>
</trkpt>
<trkpt lat="40.0715477" lon="-105.2273594">
  <ele>1582.98</ele>
  <time>2026-08-28T17:53:00Z</time>
  <course>136.8</course>
  <speed>5.007294678766169</speed>
  <fix>3d</fix>
</trkpt>
<trkpt lat="40.0715519" lon="-105.2273645">
  <ele>1583.0</ele>
  <time>2026-08-28T17:53:00Z</time>
  <course>135.96</course>
  <speed>5.03</speed>
  <fix>3d</fix>
</trkpt>
<trkpt lat="40.0715444" lon="-105.2273553">
  <ele>1582.98</ele>
  <time>2026-08-28T17:53:00Z</time>
  <course>136.8</course>
  <speed>5.007294678766169</speed>
  <fix>3d</fix>
</trkpt>
<trkpt lat="40.0715519" lon="-105.2273645">
  <ele>1583.0</ele>
  <time>2026-08-28T17:53:00Z</time>
  <course>135.96</course>
  <speed>5.03</speed>
  <fix>3d</fix>
</trkpt>
<trkpt lat="40.0715411" lon="-105.2273511">
  <ele>1582.98</ele>
  <time>2026-08-28T17:53:00Z</time>
  <course>136.8</course>
  <speed>5.007294678766169</speed>
  <fix>3d</fix>
</trkpt>
<trkpt lat="40.0715454" lon="-105.2273563">
  <ele>1583.0</ele>
  <time>2026-08-28T17:53:00Z</time>
  <course>135.96</course>
  <speed>5.03</speed>
  <fix>3d</fix>
</trkpt>
<trkpt lat="40.0715378" lon="-105.227347">
  <ele>1582.98</ele>
  <time>2026-08-28T17:53:00Z</time>
  <course>136.8</course>
  <speed>5.007294678766169</speed>
  <fix>3d</fix>
</trkpt>
<trkpt lat="40.0715454" lon="-105.2273563">
  <ele>1583.0</ele>
  <time>2026-08-28T17:53:00Z</time>
  <course>135.96</course>
  <speed>5.03</speed>
  <fix>3d</fix>
</trkpt>
<trkpt lat="40.0715346" lon="-105.2273429">
  <ele>1582.98</ele>
  <time>2026-08-28T17:53:00Z</time>
  <course>136.82</course>
  <speed>5.007294678766169</speed>
  <fix>3d</fix>
</trkpt>
<trkpt lat="40.0715454" lon="-105.2273563">
  <ele>1583.0</ele>
  <time>2026-08-28T17:53:00Z</time>
  <course>135.96</course>
  <speed>5.03</speed>
  <fix>3d</fix>
</trkpt>
<trkpt lat="40.0715313" lon="-105.2273388">
  <ele>1582.98</ele>
  <time>2026-08-28T17:53:00Z</time>
  <course>136.82</course>
  <speed>5.007294678766169</speed>
  <fix>3d</fix>
</trkpt>
<trkpt lat="40.0715389" lon="-105.2273482">
  <ele>1583.0</ele>
  <time>2026-08-28T17:53:00Z</time>
  <course>135.97</course>
  <speed>5.03</speed>
  <fix>3d</fix>
</trkpt>
<trkpt lat="40.0715281" lon="-105.2273347">
  <ele>1582.99</ele>
  <time>2026-08-28T17:53:00Z</time>
  <course>136.82</course>
  <speed>5.000369986311013</speed>
  <fix>3d</fix>
</trkpt>
<trkpt lat="40.0715389" lon="-105.2273482">
  <ele>1583.0</ele>
  <time>2026-08-28T17:53:00Z</time>
  <course>135.97</course>
  <speed>5.03</speed>
  <fix>3d</fix>
</trkpt>
<trkpt lat="40.0715249" lon="-105.2273307">
  <ele>1582.99</ele>
  <time>2026-08-28T17:53:00Z</time>
  <course>136.83</course>
  <speed>5.000369986311013</speed>
  <fix>3d</fix>
</trkpt>
<trkpt lat="40.0715324" lon="-105.2273399">
  <ele>1583.0</ele>
  <time>2026-08-28T17:53:00Z</time>
  <course>135.98</course>
  <speed>5.03</speed>
  <fix>3d</fix>
</trkpt>
<trkpt lat="40.0715217" lon="-105.2273266">
  <ele>1582.99</ele>
  <time>2026-08-28T17:53:00Z</time>
  <course>136.84</course>
  <speed>5.000369986311013</speed>
  <fix>3d</fix>
</trkpt>
<trkpt lat="40.0715324" lon="-105.2273399">
  <ele>1583.0</ele>
  <time>2026-08-28T17:53:00Z</time>
  <course>135.98</course>
  <speed>5.03</speed>
  <fix>3d</fix>
</trkpt>
<trkpt lat="40.0715184" lon="-105.2273225">
  <ele>1583.0</ele>
  <time>2026-08-28T17:53:00Z</time>
  <course>136.84</course>
  <speed>4.993155315028765</speed>
  <fix>3d</fix>
</trkpt>
<trkpt lat="40.0715259" lon="-105.2273316">
  <ele>1583.0</ele>
  <time>2026-08-28T17:53:00Z</time>
  <course>135.98</course>
  <speed>5.03</speed>
  <fix>3d</fix>
</trkpt>
<trkpt lat="40.0715152" lon="-105.2273184">
  <ele>1583.0</ele>
  <time>2026-08-28T17:53:00Z</time>
  <course>136.84</course>
  <speed>4.986231041578399</speed>
  <fix>3d</fix>
</trkpt>
<trkpt lat="40.0715194" lon="-105.2273235">
  <ele>1583.0</ele>
  <time>2026-08-28T17:53:00Z</time>
  <course>135.99</course>
  <speed>5.02</speed>
  <fix>3d</fix>
</trkpt>
<trkpt lat="40.071512" lon="-105.2273143">
  <ele>1583.0</ele>
  <time>2026-08-28T17:53:00Z</time>
  <course>136.86</course>
  <speed>4.993455717236311</speed>
  <fix>3d</fix>
</trkpt>
<trkpt lat="40.0715194" lon="-105.2273235">
  <ele>1583.0</ele>
  <time>2026-08-28T17:53:00Z</time>
  <course>135.99</course>
  <speed>5.02</speed>
  <fix>3d</fix>
</trkpt>
<trkpt lat="40.0715087" lon="-105.2273103">
  <ele>1583.0</ele>
  <time>2026-08-28T17:53:00Z</time>
  <course>136.86</course>
  <speed>4.993455717236311</speed>
  <fix>3d</fix>
</trkpt>
<trkpt lat="40.0715129" lon="-105.2273152">
  <ele>1583.0</ele>
  <time>2026-08-28T17:53:00Z</time>
  <course>136.0</course>
  <speed>5.03</speed>
  <fix>3d</fix>
</trkpt>
<trkpt lat="40.0715055" lon="-105.2273062">
  <ele>1583.0</ele>
  <time>2026-08-28T17:53:00Z</time>
  <course>136.86</course>
  <speed>5.000369986311013</speed>
  <fix>3d</fix>
</trkpt>
<trkpt lat="40.0715129" lon="-105.2273152">
  <ele>1583.0</ele>
  <time>2026-08-28T17:53:00Z</time>
  <course>136.0</course>
  <speed>5.03</speed>
  <fix>3d</fix>
</trkpt>
<trkpt lat="40.0715022" lon="-105.2273021">
  <ele>1582.99</ele>
  <time>2026-08-28T17:53:00Z</time>
  <course>136.88</course>
  <speed>4.993455717236311</speed>
  <fix>3d</fix>
</trkpt>
<trkpt lat="40.0715064" lon="-105.227307">
  <ele>1583.0</ele>
  <time>2026-08-28T17:53:00Z</time>
  <course>136.01</course>
  <speed>5.03</speed>
  <fix>3d</fix>
</trkpt>
<trkpt lat="40.071499" lon="-105.2272979">
  <ele>1582.99</ele>
  <time>2026-08-28T17:53:00Z</time>
  <course>136.88</course>
  <speed>5.000369986311013</speed>
  <fix>3d</fix>
</trkpt>
<trkpt lat="40.0715064" lon="-105.227307">
  <ele>1583.0</ele>
  <time>2026-08-28T17:53:00Z</time>
  <course>136.01</course>
  <speed>5.03</speed>
  <fix>3d</fix>
</trkpt>
<trkpt lat="40.0714957" lon="-105.2272938">
  <ele>1582.99</ele>
  <time>2026-08-28T17:53:00Z</time>
  <course>136.9</course>
  <speed>4.993455717236311</speed>
  <fix>3d</fix>
</trkpt>
<trkpt lat="40.0714999" lon="-105.2272988">
  <ele>1583.0</ele>
  <time>2026-08-28T17:53:00Z</time>
  <course>136.02</course>
  <speed>5.03</speed>
  <fix>3d</fix>
</trkpt>
<trkpt lat="40.0714924" lon="-105.2272897">
  <ele>1582.98</ele>
  <time>2026-08-28T17:53:00Z</time>
  <course>136.9</course>
  <speed>4.993455717236311</speed>
  <fix>3d</fix>
</trkpt>
<trkpt lat="40.0714999" lon="-105.2272988">
  <ele>1583.0</ele>
  <time>2026-08-28T17:53:00Z</time>
  <course>136.02</course>
  <speed>5.03</speed>
  <fix>3d</fix>
</trkpt>
<trkpt lat="40.0714891" lon="-105.2272855">
  <ele>1582.98</ele>
  <time>2026-08-28T17:53:00Z</time>
  <course>136.9</course>
  <speed>4.993455717236311</speed>
  <fix>3d</fix>
</trkpt>
<trkpt lat="40.0714934" lon="-105.2272907">
  <ele>1583.0</ele>
  <time>2026-08-28T17:53:00Z</time>
  <course>136.03</course>
  <speed>5.02</speed>
  <fix>3d</fix>
</trkpt>
<trkpt lat="40.0714859" lon="-105.2272814">
  <ele>1582.98</ele>
  <time>2026-08-28T17:53:00Z</time>
  <course>136.92</course>
  <speed>4.993455717236311</speed>
  <fix>3d</fix>
</trkpt>
<trkpt lat="40.0714934" lon="-105.2272907">
  <ele>1583.0</ele>
  <time>2026-08-28T17:53:00Z</time>
  <course>136.03</course>
  <speed>5.02</speed>
  <fix>3d</fix>
</trkpt>
<trkpt lat="40.0714826" lon="-105.2272773">
  <ele>1582.98</ele>
  <time>2026-08-28T17:53:00Z</time>
  <course>136.92</course>
  <speed>4.993455717236311</speed>
  <fix>3d</fix>
</trkpt>
<trkpt lat="40.0714869" lon="-105.2272826">
  <ele>1583.0</ele>
  <time>2026-08-28T17:53:00Z</time>
  <course>136.04</course>
  <speed>5.02</speed>
  <fix>3d</fix>
</trkpt>
<trkpt lat="40.0714793" lon="-105.2272732">
  <ele>1582.97</ele>
  <time>2026-08-28T17:53:00Z</time>
  <course>136.92</course>
  <speed>4.993455717236311</speed>
  <fix>3d</fix>
</trkpt>
<trkpt lat="40.0714869" lon="-105.2272826">
  <ele>1583.0</ele>
  <time>2026-08-28T17:53:00Z</time>
  <course>136.04</course>
  <speed>5.02</speed>
  <fix>3d</fix>
</trkpt>
<trkpt lat="40.0714761" lon="-105.2272691">
  <ele>1582.97</ele>
  <time>2026-08-28T17:53:00Z</time>
  <course>136.92</course>
  <speed>4.993455717236311</speed>
  <fix>3d</fix>
</trkpt>
<trkpt lat="40.0714804" lon="-105.2272744">
  <ele>1583.0</ele>
  <time>2026-08-28T17:53:00Z</time>
  <course>136.04</course>
  <speed>5.02</speed>
  <fix>3d</fix>
</trkpt>
<trkpt lat="40.0714728" lon="-105.227265">
  <ele>1582.97</ele>
  <time>2026-08-28T17:53:00Z</time>
  <course>136.92</course>
  <speed>4.993455717236311</speed>
  <fix>3d</fix>
</trkpt>
<trkpt lat="40.0714804" lon="-105.2272744">
  <ele>1583.0</ele>
  <time>2026-08-28T17:53:00Z</time>
  <course>136.04</course>
  <speed>5.02</speed>
  <fix>3d</fix>
</trkpt>
<trkpt lat="40.0714695" lon="-105.2272609">
  <ele>1582.97</ele>
  <time>2026-08-28T17:53:00Z</time>
  <course>136.93</course>
  <speed>4.993455717236311</speed>
  <fix>3d</fix>
</trkpt>
<trkpt lat="40.0714804" lon="-105.2272744">
  <ele>1583.0</ele>
  <time>2026-08-28T17:53:00Z</time>
  <course>136.04</course>
  <speed>5.02</speed>
  <fix>3d</fix>
</trkpt>
<trkpt lat="40.0714663" lon="-105.2272568">
  <ele>1582.97</ele>
  <time>2026-08-28T17:53:00Z</time>
  <course>136.93</course>
  <speed>4.993455717236311</speed>
  <fix>3d</fix>
</trkpt>
<trkpt lat="40.0714739" lon="-105.2272662">
  <ele>1583.0</ele>
  <time>2026-08-28T17:53:00Z</time>
  <course>136.04</course>
  <speed>5.02</speed>
  <fix>3d</fix>
</trkpt>
<trkpt lat="40.0714631" lon="-105.2272528">
  <ele>1582.97</ele>
  <time>2026-08-28T17:53:00Z</time>
  <course>136.93</course>
  <speed>4.993455717236311</speed>
  <fix>3d</fix>
</trkpt>
<trkpt lat="40.0714739" lon="-105.2272662">
  <ele>1583.0</ele>
  <time>2026-08-28T17:53:00Z</time>
  <course>136.04</course>
  <speed>5.02</speed>
  <fix>3d</fix>
</trkpt>
<trkpt lat="40.0714599" lon="-105.2272487">
  <ele>1582.97</ele>
  <time>2026-08-28T17:53:00Z</time>
  <course>136.93</course>
  <speed>4.993455717236311</speed>
  <fix>3d</fix>
</trkpt>
<trkpt lat="40.0714674" lon="-105.2272579">
  <ele>1583.0</ele>
  <time>2026-08-28T17:53:00Z</time>
  <course>136.04</course>
  <speed>5.01</speed>
  <fix>3d</fix>
</trkpt>
<trkpt lat="40.0714566" lon="-105.2272447">
  <ele>1582.97</ele>
  <time>2026-08-28T17:53:00Z</time>
  <course>136.94</course>
  <speed>4.993455717236311</speed>
  <fix>3d</fix>
</trkpt>
<trkpt lat="40.0714674" lon="-105.2272579">
  <ele>1583.0</ele>
  <time>2026-08-28T17:53:00Z</time>
  <course>136.04</course>
  <speed>5.01</speed>
  <fix>3d</fix>
</trkpt>
<trkpt lat="40.0714534" lon="-105.2272406">
  <ele>1582.98</ele>
  <time>2026-08-28T17:53:00Z</time>
  <course>136.95</course>
  <speed>4.9865519149007165</speed>
  <fix>3d</fix>
</trkpt>
<trkpt lat="40.0714609" lon="-105.2272498">
  <ele>1583.0</ele>
  <time>2026-08-28T17:53:00Z</time>
  <course>136.05</course>
  <speed>5.01</speed>
  <fix>3d</fix>
</trkpt>
<trkpt lat="40.0714502" lon="-105.2272366">
  <ele>1582.98</ele>
  <time>2026-08-28T17:53:00Z</time>
  <course>136.95</course>
  <speed>4.9865519149007165</speed>
  <fix>3d</fix>
</trkpt>
<trkpt lat="40.0714544" lon="-105.2272416">
  <ele>1583.0</ele>
  <time>2026-08-28T17:53:00Z</time>
  <course>136.06</course>
  <speed>5.02</speed>
  <fix>3d</fix>
</trkpt>
<trkpt lat="40.071447" lon="-105.2272325">
  <ele>1582.99</ele>
  <time>2026-08-28T17:53:00Z</time>
  <course>136.95</course>
  <speed>4.9865519149007165</speed>
  <fix>3d</fix>
</trkpt>
<trkpt lat="40.0714544" lon="-105.2272416">
  <ele>1583.0</ele>
  <time>2026-08-28T17:53:00Z</time>
  <course>136.06</course>
  <speed>5.02</speed>
  <fix>3d</fix>
</trkpt>
<trkpt lat="40.0714437" lon="-105.2272284">
  <ele>1582.99</ele>
  <time>2026-08-28T17:53:00Z</time>
  <course>136.95</course>
  <speed>4.9865519149007165</speed>
  <fix>3d</fix>
</trkpt>
<trkpt lat="40.0714479" lon="-105.2272334">
  <ele>1583.0</ele>
  <time>2026-08-28T17:53:00Z</time>
  <course>136.06</course>
  <speed>5.02</speed>
  <fix>3d</fix>
</trkpt>
<trkpt lat="40.0714404" lon="-105.2272243">
  <ele>1583.0</ele>
  <time>2026-08-28T17:53:00Z</time>
  <course>136.96</course>
  <speed>4.9865519149007165</speed>
  <fix>3d</fix>
</trkpt>
<trkpt lat="40.0714479" lon="-105.2272334">
  <ele>1583.0</ele>
  <time>2026-08-28T17:53:00Z</time>
  <course>136.06</course>
  <speed>5.02</speed>
  <fix>3d</fix>
</trkpt>
<trkpt lat="40.0714372" lon="-105.2272203">
  <ele>1583.0</ele>
  <time>2026-08-28T17:53:00Z</time>
  <course>136.96</course>
  <speed>4.993455717236311</speed>
  <fix>3d</fix>
</trkpt>
<trkpt lat="40.0714414" lon="-105.2272252">
  <ele>1583.0</ele>
  <time>2026-08-28T17:53:00Z</time>
  <course>136.06</course>
  <speed>5.02</speed>
  <fix>3d</fix>
</trkpt>
<trkpt lat="40.0714339" lon="-105.2272161">
  <ele>1583.01</ele>
  <time>2026-08-28T17:53:00Z</time>
  <course>136.97</course>
  <speed>4.993455717236311</speed>
  <fix>3d</fix>
</trkpt>
<trkpt lat="40.0714414" lon="-105.2272252">
  <ele>1583.0</ele>
  <time>2026-08-28T17:53:00Z</time>
  <course>136.06</course>
  <speed>5.02</speed>
  <fix>3d</fix>
</trkpt>
<trkpt lat="40.0714307" lon="-105.227212">
  <ele>1583.01</ele>
  <time>2026-08-28T17:53:00Z</time>
  <course>136.97</course>
  <speed>4.993455717236311</speed>
  <fix>3d</fix>
</trkpt>
<trkpt lat="40.0714349" lon="-105.227217">
  <ele>1583.0</ele>
  <time>2026-08-28T17:53:00Z</time>
  <course>136.07</course>
  <speed>5.02</speed>
  <fix>3d</fix>
</trkpt>
<trkpt lat="40.0714274" lon="-105.2272079">
  <ele>1583.01</ele>
  <time>2026-08-28T17:53:00Z</time>
  <course>136.97</course>
  <speed>4.993455717236311</speed>
  <fix>3d</fix>
</trkpt>
<trkpt lat="40.0714349" lon="-105.227217">
  <ele>1583.0</ele>
  <time>2026-08-28T17:53:00Z</time>
  <course>136.07</course>
  <speed>5.02</speed>
  <fix>3d</fix>
</trkpt>
<trkpt lat="40.0714241" lon="-105.2272038">
  <ele>1583.0</ele>
  <time>2026-08-28T17:53:00Z</time>
  <course>136.98</course>
  <speed>5.000689952396569</speed>
  <fix>3d</fix>
</trkpt>
<trkpt lat="40.0714284" lon="-105.2272088">
  <ele>1583.0</ele>
  <time>2026-08-28T17:53:00Z</time>
  <course>136.08</course>
  <speed>5.02</speed>
  <fix>3d</fix>
</trkpt>
<trkpt lat="40.0714208" lon="-105.2271996">
  <ele>1583.01</ele>
  <time>2026-08-28T17:53:00Z</time>
  <course>136.98</course>
  <speed>5.000689952396569</speed>
  <fix>3d</fix>
</trkpt>
<trkpt lat="40.0714284" lon="-105.2272088">
  <ele>1583.0</ele>
  <time>2026-08-28T17:53:00Z</time>
  <course>136.08</course>
  <speed>5.02</speed>
  <fix>3d</fix>
</trkpt>
<trkpt lat="40.0714176" lon="-105.2271955">
  <ele>1583.01</ele>
  <time>2026-08-28T17:53:00Z</time>
  <course>136.98</course>
  <speed>5.000689952396569</speed>
  <fix>3d</fix>
</trkpt>
<trkpt lat="40.0714219" lon="-105.2272007">
  <ele>1583.0</ele>
  <time>2026-08-28T17:53:00Z</time>
  <course>136.09</course>
  <speed>5.02</speed>
  <fix>3d</fix>
</trkpt>
<trkpt lat="40.0714143" lon="-105.2271914">
  <ele>1583.01</ele>
  <time>2026-08-28T17:53:00Z</time>
  <course>137.0</course>
  <speed>5.000689952396569</speed>
  <fix>3d</fix>
</trkpt>
<trkpt lat="40.0714219" lon="-105.2272007">
  <ele>1583.0</ele>
  <time>2026-08-28T17:53:00Z</time>
  <course>136.09</course>
  <speed>5.02</speed>
  <fix>3d</fix>
</trkpt>
<trkpt lat="40.071411" lon="-105.2271873">
  <ele>1583.02</ele>
  <time>2026-08-28T17:53:00Z</time>
  <course>137.0</course>
  <speed>5.000689952396569</speed>
  <fix>3d</fix>
</trkpt>
<trkpt lat="40.0714154" lon="-105.2271925">
  <ele>1583.0</ele>
  <time>2026-08-28T17:53:00Z</time>
  <course>136.09</course>
  <speed>5.02</speed>
  <fix>3d</fix>
</trkpt>
<trkpt lat="40.0714078" lon="-105.2271832">
  <ele>1583.02</ele>
  <time>2026-08-28T17:53:00Z</time>
  <course>137.0</course>
  <speed>5.000689952396569</speed>
  <fix>3d</fix>
</trkpt>
<trkpt lat="40.0714154" lon="-105.2271925">
  <ele>1583.0</ele>
  <time>2026-08-28T17:53:00Z</time>
  <course>136.09</course>
  <speed>5.02</speed>
  <fix>3d</fix>
</trkpt>
<trkpt lat="40.0714045" lon="-105.2271791">
  <ele>1583.02</ele>
  <time>2026-08-28T17:53:00Z</time>
  <course>137.0</course>
  <speed>5.000689952396569</speed>
  <fix>3d</fix>
</trkpt>
<trkpt lat="40.0714154" lon="-105.2271925">
  <ele>1583.0</ele>
  <time>2026-08-28T17:53:00Z</time>
  <course>136.09</course>
  <speed>5.02</speed>
  <fix>3d</fix>
</trkpt>
<trkpt lat="40.0714013" lon="-105.227175">
  <ele>1583.02</ele>
  <time>2026-08-28T17:53:00Z</time>
  <course>137.0</course>
  <speed>5.000689952396569</speed>
  <fix>3d</fix>
</trkpt>
<trkpt lat="40.0714089" lon="-105.2271844">
  <ele>1583.0</ele>
  <time>2026-08-28T17:53:00Z</time>
  <course>136.1</course>
  <speed>5.02</speed>
  <fix>3d</fix>
</trkpt>
<trkpt lat="40.071398" lon="-105.227171">
  <ele>1583.02</ele>
  <time>2026-08-28T17:53:00Z</time>
  <course>137.0</course>
  <speed>4.993455717236311</speed>
  <fix>3d</fix>
</trkpt>
<trkpt lat="40.0714089" lon="-105.2271844">
  <ele>1583.0</ele>
  <time>2026-08-28T17:53:00Z</time>
  <course>136.1</course>
  <speed>5.02</speed>
  <fix>3d</fix>
</trkpt>
<trkpt lat="40.0713948" lon="-105.2271669">
  <ele>1583.02</ele>
  <time>2026-08-28T17:53:00Z</time>
  <course>137.02</course>
  <speed>4.9865519149007165</speed>
  <fix>3d</fix>
</trkpt>
<trkpt lat="40.0714024" lon="-105.2271762">
  <ele>1583.0</ele>
  <time>2026-08-28T17:53:00Z</time>
  <course>136.1</course>
  <speed>5.02</speed>
  <fix>3d</fix>
</trkpt>
<trkpt lat="40.0713916" lon="-105.2271629">
  <ele>1583.02</ele>
  <time>2026-08-28T17:53:00Z</time>
  <course>137.02</course>
  <speed>4.9865519149007165</speed>
  <fix>3d</fix>
</trkpt>
<trkpt lat="40.0714024" lon="-105.2271762">
  <ele>1583.0</ele>
  <time>2026-08-28T17:53:00Z</time>
  <course>136.1</course>
  <speed>5.02</speed>
  <fix>3d</fix>
</trkpt>
<trkpt lat="40.0713884" lon="-105.2271589">
  <ele>1583.01</ele>
  <time>2026-08-28T17:53:00Z</time>
  <course>137.02</course>
  <speed>4.9865519149007165</speed>
  <fix>3d</fix>
</trkpt>
<trkpt lat="40.0713959" lon="-105.2271679">
  <ele>1583.0</ele>
  <time>2026-08-28T17:53:00Z</time>
  <course>136.11</course>
  <speed>5.01</speed>
  <fix>3d</fix>
</trkpt>
<trkpt lat="40.0713852" lon="-105.2271548">
  <ele>1583.01</ele>
  <time>2026-08-28T17:53:00Z</time>
  <course>137.02</course>
  <speed>4.9865519149007165</speed>
  <fix>3d</fix>
</trkpt>
<trkpt lat="40.0713959" lon="-105.2271679">
  <ele>1583.0</ele>
  <time>2026-08-28T17:53:00Z</time>
  <course>136.11</course>
  <speed>5.01</speed>
  <fix>3d</fix>
</trkpt>
<trkpt lat="40.0713819" lon="-105.2271507">
  <ele>1583.01</ele>
  <time>2026-08-28T17:53:00Z</time>
  <course>137.02</course>
  <speed>4.9865519149007165</speed>
  <fix>3d</fix>
</trkpt>
<trkpt lat="40.0713894" lon="-105.2271598">
  <ele>1583.0</ele>
  <time>2026-08-28T17:53:00Z</time>
  <course>136.11</course>
  <speed>5.02</speed>
  <fix>3d</fix>
</trkpt>
<trkpt lat="40.0713787" lon="-105.2271467">
  <ele>1583.0</ele>
  <time>2026-08-28T17:53:00Z</time>
  <course>137.03</course>
  <speed>4.9865519149007165</speed>
  <fix>3d</fix>
</trkpt>
<trkpt lat="40.0713829" lon="-105.2271516">
  <ele>1583.0</ele>
  <time>2026-08-28T17:53:00Z</time>
  <course>136.12</course>
  <speed>5.02</speed>
  <fix>3d</fix>
</trkpt>
<trkpt lat="40.0713755" lon="-105.2271426">
  <ele>1583.0</ele>
  <time>2026-08-28T17:53:00Z</time>
  <course>137.03</course>
  <speed>4.9865519149007165</speed>
  <fix>3d</fix>
</trkpt>
<trkpt lat="40.0713829" lon="-105.2271516">
  <ele>1583.0</ele>
  <time>2026-08-28T17:53:00Z</time>
  <course>136.12</course>
  <speed>5.02</speed>
  <fix>3d</fix>
</trkpt>
<trkpt lat="40.0713722" lon="-105.2271386">
  <ele>1583.0</ele>
  <time>2026-08-28T17:53:00Z</time>
  <course>137.03</course>
  <speed>4.9865519149007165</speed>
  <fix>3d</fix>
</trkpt>
<trkpt lat="40.0713764" lon="-105.2271435">
  <ele>1583.0</ele>
  <time>2026-08-28T17:53:00Z</time>
  <course>136.13</course>
  <speed>5.02</speed>
  <fix>3d</fix>
</trkpt>
<trkpt lat="40.071369" lon="-105.2271345">
  <ele>1582.99</ele>
  <time>2026-08-28T17:53:00Z</time>
  <course>137.05</course>
  <speed>4.9865519149007165</speed>
  <fix>3d</fix>
</trkpt>
<trkpt lat="40.0713764" lon="-105.2271435">
  <ele>1583.0</ele>
  <time>2026-08-28T17:53:00Z</time>
  <course>136.13</course>
  <speed>5.02</speed>
  <fix>3d</fix>
</trkpt>
<trkpt lat="40.0713657" lon="-105.2271304">
  <ele>1582.99</ele>
  <time>2026-08-28T17:53:00Z</time>
  <course>137.05</course>
  <speed>4.9865519149007165</speed>
  <fix>3d</fix>
</trkpt>
<trkpt lat="40.0713699" lon="-105.2271353">
  <ele>1583.0</ele>
  <time>2026-08-28T17:53:00Z</time>
  <course>136.13</course>
  <speed>5.02</speed>
  <fix>3d</fix>
</trkpt>
<trkpt lat="40.0713624" lon="-105.2271263">
  <ele>1582.99</ele>
  <time>2026-08-28T17:53:00Z</time>
  <course>137.05</course>
  <speed>4.993796151226039</speed>
  <fix>3d</fix>
</trkpt>
<trkpt lat="40.0713699" lon="-105.2271353">
  <ele>1583.0</ele>
  <time>2026-08-28T17:53:00Z</time>
  <course>136.13</course>
  <speed>5.02</speed>
  <fix>3d</fix>
</trkpt>
<trkpt lat="40.0713592" lon="-105.2271222">
  <ele>1582.99</ele>
  <time>2026-08-28T17:53:00Z</time>
  <course>137.05</course>
  <speed>4.993796151226039</speed>
  <fix>3d</fix>
</trkpt>
<trkpt lat="40.0713634" lon="-105.2271271">
  <ele>1583.0</ele>
  <time>2026-08-28T17:53:00Z</time>
  <course>136.14</course>
  <speed>5.02</speed>
  <fix>3d</fix>
</trkpt>
<trkpt lat="40.0713559" lon="-105.227118">
  <ele>1582.99</ele>
  <time>2026-08-28T17:53:00Z</time>
  <course>137.06</course>
  <speed>4.993796151226039</speed>
  <fix>3d</fix>
</trkpt>
<trkpt lat="40.0713634" lon="-105.2271271">
  <ele>1583.0</ele>
  <time>2026-08-28T17:53:00Z</time>
  <course>136.14</course>
  <speed>5.02</speed>
  <fix>3d</fix>
</trkpt>
<trkpt lat="40.0713526" lon="-105.2271139">
  <ele>1583.0</ele>
  <time>2026-08-28T17:53:00Z</time>
  <course>137.08</course>
  <speed>4.993796151226039</speed>
  <fix>3d</fix>
</trkpt>
<trkpt lat="40.0713569" lon="-105.2271189">
  <ele>1583.0</ele>
  <time>2026-08-28T17:53:00Z</time>
  <course>136.15</course>
  <speed>5.02</speed>
  <fix>3d</fix>
</trkpt>
<trkpt lat="40.0713493" lon="-105.2271098">
  <ele>1583.0</ele>
  <time>2026-08-28T17:53:00Z</time>
  <course>137.09</course>
  <speed>5.000689952396569</speed>
  <fix>3d</fix>
</trkpt>
<trkpt lat="40.0713569" lon="-105.2271189">
  <ele>1583.0</ele>
  <time>2026-08-28T17:53:00Z</time>
  <course>136.15</course>
  <speed>5.02</speed>
  <fix>3d</fix>
</trkpt>
<trkpt lat="40.071346" lon="-105.2271057">
  <ele>1583.0</ele>
  <time>2026-08-28T17:53:00Z</time>
  <course>137.12</course>
  <speed>4.993796151226039</speed>
  <fix>3d</fix>
</trkpt>
<trkpt lat="40.0713503" lon="-105.2271107">
  <ele>1583.0</ele>
  <time>2026-08-28T17:53:00Z</time>
  <course>136.19</course>
  <speed>5.02</speed>
  <fix>3d</fix>
</trkpt>
<trkpt lat="40.0713428" lon="-105.2271016">
  <ele>1583.01</ele>
  <time>2026-08-28T17:53:00Z</time>
  <course>137.13</course>
  <speed>4.9869128727099294</speed>
  <fix>3d</fix>
</trkpt>
<trkpt lat="40.0713503" lon="-105.2271107">
  <ele>1583.0</ele>
  <time>2026-08-28T17:53:00Z</time>
  <course>136.19</course>
  <speed>5.02</speed>
  <fix>3d</fix>
</trkpt>
<trkpt lat="40.0713395" lon="-105.2270975">
  <ele>1583.01</ele>
  <time>2026-08-28T17:53:00Z</time>
  <course>137.16</course>
  <speed>4.96552112068814</speed>
  <fix>3d</fix>
</trkpt>
<trkpt lat="40.0713438" lon="-105.2271026">
  <ele>1583.0</ele>
  <time>2026-08-28T17:53:00Z</time>
  <course>136.23</course>
  <speed>5.0</speed>
  <fix>3d</fix>
</trkpt>
<trkpt lat="40.0713362" lon="-105.2270934">
  <ele>1583.01</ele>
  <time>2026-08-28T17:53:00Z</time>
  <course>137.2</course>
  <speed>4.944501997168167</speed>
  <fix>3d</fix>
</trkpt>
<trkpt lat="40.0713438" lon="-105.2271026">
  <ele>1583.0</ele>
  <time>2026-08-28T17:53:00Z</time>
  <course>136.23</course>
  <speed>5.0</speed>
  <fix>3d</fix>
</trkpt>
<trkpt lat="40.071333" lon="-105.2270894">
  <ele>1583.01</ele>
  <time>2026-08-28T17:53:00Z</time>
  <course>137.21</course>
  <speed>4.902091390416952</speed>
  <fix>3d</fix>
</trkpt>
<trkpt lat="40.0713438" lon="-105.2271026">
  <ele>1583.0</ele>
  <time>2026-08-28T17:53:00Z</time>
  <course>136.23</course>
  <speed>5.0</speed>
  <fix>3d</fix>
</trkpt>
<trkpt lat="40.0713299" lon="-105.2270854">
  <ele>1583.01</ele>
  <time>2026-08-28T17:53:00Z</time>
  <course>137.27</course>
  <speed>4.845544345065887</speed>
  <fix>3d</fix>
</trkpt>
<trkpt lat="40.0713374" lon="-105.2270945">
  <ele>1583.0</ele>
  <time>2026-08-28T17:53:00Z</time>
  <course>136.28</course>
  <speed>4.95</speed>
  <fix>3d</fix>
</trkpt>
<trkpt lat="40.0713267" lon="-105.2270815">
  <ele>1583.01</ele>
  <time>2026-08-28T17:53:00Z</time>
  <course>137.31</course>
  <speed>4.788997807474963</speed>
  <fix>3d</fix>
</trkpt>
<trkpt lat="40.0713374" lon="-105.2270945">
  <ele>1583.0</ele>
  <time>2026-08-28T17:53:00Z</time>
  <course>136.28</course>
  <speed>4.95</speed>
  <fix>3d</fix>
</trkpt>
<trkpt lat="40.0713237" lon="-105.2270777">
  <ele>1583.01</ele>
  <time>2026-08-28T17:53:00Z</time>
  <course>137.33</course>
  <speed>4.70417899319318</speed>
  <fix>3d</fix>
</trkpt>
<trkpt lat="40.071331" lon="-105.2270865">
  <ele>1583.0</ele>
  <time>2026-08-28T17:53:00Z</time>
  <course>136.35</course>
  <speed>4.86</speed>
  <fix>3d</fix>
</trkpt>
<trkpt lat="40.0713206" lon="-105.227074">
  <ele>1583.01</ele>
  <time>2026-08-28T17:53:00Z</time>
  <course>137.4</course>
  <speed>4.619361427730028</speed>
  <fix>3d</fix>
</trkpt>
<trkpt lat="40.071331" lon="-105.2270865">
  <ele>1583.0</ele>
  <time>2026-08-28T17:53:00Z</time>
  <course>136.35</course>
  <speed>4.86</speed>
  <fix>3d</fix>
</trkpt>
<trkpt lat="40.0713177" lon="-105.2270703">
  <ele>1583.01</ele>
  <time>2026-08-28T17:53:00Z</time>
  <course>137.44</course>
  <speed>4.527692569068709</speed>
  <fix>3d</fix>
</trkpt>
<trkpt lat="40.0713247" lon="-105.2270787">
  <ele>1583.0</ele>
  <time>2026-08-28T17:53:00Z</time>
  <course>136.44</course>
  <speed>4.73</speed>
  <fix>3d</fix>
</trkpt>
<trkpt lat="40.0713148" lon="-105.2270667">
  <ele>1583.0</ele>
  <time>2026-08-28T17:53:00Z</time>
  <course>137.47</course>
  <speed>4.42145903520546</speed>
  <fix>3d</fix>
</trkpt>
<trkpt lat="40.0713187" lon="-105.2270713">
  <ele>1583.0</ele>
  <time>2026-08-28T17:53:00Z</time>
  <course>136.52</course>
  <speed>4.55</speed>
  <fix>3d</fix>
</trkpt>
<trkpt lat="40.0713119" lon="-105.2270631">
  <ele>1583.0</ele>
  <time>2026-08-28T17:53:00Z</time>
  <course>137.53</course>
  <speed>4.308375563945186</speed>
  <fix>3d</fix>
</trkpt>
<trkpt lat="40.0713187" lon="-105.2270713">
  <ele>1583.0</ele>
  <time>2026-08-28T17:53:00Z</time>
  <course>136.52</course>
  <speed>4.55</speed>
  <fix>3d</fix>
</trkpt>
<trkpt lat="40.0713091" lon="-105.2270597">
  <ele>1583.01</ele>
  <time>2026-08-28T17:53:00Z</time>
  <course>137.57</course>
  <speed>4.195294983669205</speed>
  <fix>3d</fix>
</trkpt>
<trkpt lat="40.0713128" lon="-105.2270641">
  <ele>1583.0</ele>
  <time>2026-08-28T17:53:00Z</time>
  <course>136.6</course>
  <speed>4.34</speed>
  <fix>3d</fix>
</trkpt>
<trkpt lat="40.0713064" lon="-105.2270564">
  <ele>1583.01</ele>
  <time>2026-08-28T17:53:00Z</time>
  <course>137.62</course>
  <speed>4.082217534625023</speed>
  <fix>3d</fix>
</trkpt>
<trkpt lat="40.0713128" lon="-105.2270641">
  <ele>1583.0</ele>
  <time>2026-08-28T17:53:00Z</time>
  <course>136.6</course>
  <speed>4.34</speed>
  <fix>3d</fix>
</trkpt>
<trkpt lat="40.0713038" lon="-105.2270531">
  <ele>1583.01</ele>
  <time>2026-08-28T17:53:00Z</time>
  <course>137.66</course>
  <speed>3.9550094816574077</speed>
  <fix>3d</fix>
</trkpt>
<trkpt lat="40.0713073" lon="-105.2270573">
  <ele>1583.0</ele>
  <time>2026-08-28T17:53:00Z</time>
  <course>136.7</course>
  <speed>4.11</speed>
  <fix>3d</fix>
</trkpt>
<trkpt lat="40.0713013" lon="-105.22705">
  <ele>1583.01</ele>
  <time>2026-08-28T17:53:00Z</time>
  <course>137.71</course>
  <speed>3.8346316641888825</speed>
  <fix>3d</fix>
</trkpt>
<trkpt lat="40.0713073" lon="-105.2270573">
  <ele>1583.0</ele>
  <time>2026-08-28T17:53:00Z</time>
  <course>136.7</course>
  <speed>4.11</speed>
  <fix>3d</fix>
</trkpt>
<trkpt lat="40.0712988" lon="-105.2270469">
  <ele>1583.01</ele>
  <time>2026-08-28T17:53:00Z</time>
  <course>137.76</course>
  <speed>3.700121619622793</speed>
  <fix>3d</fix>
</trkpt>
<trkpt lat="40.0713021" lon="-105.2270508">
  <ele>1583.0</ele>
  <time>2026-08-28T17:53:00Z</time>
  <course>136.79</course>
  <speed>3.87</speed>
  <fix>3d</fix>
</trkpt>
<trkpt lat="40.0712964" lon="-105.227044">
  <ele>1583.0</ele>
  <time>2026-08-28T17:53:00Z</time>
  <course>137.81</course>
  <speed>3.5729119776451252</speed>
  <fix>3d</fix>
</trkpt>
<trkpt lat="40.0713021" lon="-105.2270508">
  <ele>1583.0</ele>
  <time>2026-08-28T17:53:00Z</time>
  <course>136.79</course>
  <speed>3.87</speed>
  <fix>3d</fix>
</trkpt>
<trkpt lat="40.0712941" lon="-105.2270411">
  <ele>1583.0</ele>
  <time>2026-08-28T17:53:00Z</time>
  <course>137.86</course>
  <speed>3.4457074745253697</speed>
  <fix>3d</fix>
</trkpt>
<trkpt lat="40.0712972" lon="-105.2270447">
  <ele>1583.0</ele>
  <time>2026-08-28T17:53:00Z</time>
  <course>136.88</course>
  <speed>3.61</speed>
  <fix>3d</fix>
</trkpt>
<trkpt lat="40.0712918" lon="-105.2270384">
  <ele>1583.0</ele>
  <time>2026-08-28T17:53:00Z</time>
  <course>137.91</course>
  <speed>3.311193138432127</speed>
  <fix>3d</fix>
</trkpt>
<trkpt lat="40.0712972" lon="-105.2270447">
  <ele>1583.0</ele>
  <time>2026-08-28T17:53:00Z</time>
  <course>136.88</course>
  <speed>3.61</speed>
  <fix>3d</fix>
</trkpt>
<trkpt lat="40.0712897" lon="-105.2270358">
  <ele>1583.0</ele>
  <time>2026-08-28T17:53:00Z</time>
  <course>137.95</course>
  <speed>3.1839912060180064</speed>
  <fix>3d</fix>
</trkpt>
<trkpt lat="40.0712926" lon="-105.2270392">
  <ele>1583.0</ele>
  <time>2026-08-28T17:53:00Z</time>
  <course>136.98</course>
  <speed>3.36</speed>
  <fix>3d</fix>
</trkpt>
<trkpt lat="40.0712876" lon="-105.2270332">
  <ele>1583.0</ele>
  <time>2026-08-28T17:53:00Z</time>
  <course>138.0</course>
  <speed>3.056795707926848</speed>
  <fix>3d</fix>
</trkpt>
<trkpt lat="40.0712926" lon="-105.2270392">
  <ele>1583.0</ele>
  <time>2026-08-28T17:53:00Z</time>
  <course>136.98</course>
  <speed>3.36</speed>
  <fix>3d</fix>
</trkpt>
<trkpt lat="40.0712857" lon="-105.2270308">
  <ele>1583.0</ele>
  <time>2026-08-28T17:53:00Z</time>
  <course>138.04</course>
  <speed>2.9364093720052047</speed>
  <fix>3d</fix>
</trkpt>
<trkpt lat="40.0712884" lon="-105.2270341">
  <ele>1583.0</ele>
  <time>2026-08-28T17:53:00Z</time>
  <course>137.07</course>
  <speed>3.1</speed>
  <fix>3d</fix>
</trkpt>
<trkpt lat="40.0712838" lon="-105.2270285">
  <ele>1583.0</ele>
  <time>2026-08-28T17:53:00Z</time>
  <course>138.08</course>
  <speed>2.809216972752372</speed>
  <fix>3d</fix>
</trkpt>
<trkpt lat="40.0712884" lon="-105.2270341">
  <ele>1583.0</ele>
  <time>2026-08-28T17:53:00Z</time>
  <course>137.07</course>
  <speed>3.1</speed>
  <fix>3d</fix>
</trkpt>
<trkpt lat="40.071282" lon="-105.2270263">
  <ele>1582.99</ele>
  <time>2026-08-28T17:53:00Z</time>
  <course>138.12</course>
  <speed>2.6888287412923866</speed>
  <fix>3d</fix>
</trkpt>
<trkpt lat="40.0712884" lon="-105.2270341">
  <ele>1583.0</ele>
  <time>2026-08-28T17:53:00Z</time>
  <course>137.07</course>
  <speed>3.1</speed>
  <fix>3d</fix>
</trkpt>
<trkpt lat="40.0712802" lon="-105.2270242">
  <ele>1582.99</ele>
  <time>2026-08-28T17:53:00Z</time>
  <course>138.15</course>
  <speed>2.561640099623677</speed>
  <fix>3d</fix>
</trkpt>
<trkpt lat="40.0712845" lon="-105.2270293">
  <ele>1583.0</ele>
  <time>2026-08-28T17:53:00Z</time>
  <course>137.15</course>
  <speed>2.86</speed>
  <fix>3d</fix>
</trkpt>
<trkpt lat="40.0712786" lon="-105.2270222">
  <ele>1582.99</ele>
  <time>2026-08-28T17:53:00Z</time>
  <course>138.19</course>
  <speed>2.4485914318236106</speed>
  <fix>3d</fix>
</trkpt>
<trkpt lat="40.0712845" lon="-105.2270293">
  <ele>1583.0</ele>
  <time>2026-08-28T17:53:00Z</time>
  <course>137.15</course>
  <speed>2.86</speed>
  <fix>3d</fix>
</trkpt>
<trkpt lat="40.071277" lon="-105.2270203">
  <ele>1582.99</ele>
  <time>2026-08-28T17:53:00Z</time>
  <course>138.22</course>
  <speed>2.3281967270830015</speed>
  <fix>3d</fix>
</trkpt>
<trkpt lat="40.0712808" lon="-105.2270249">
  <ele>1583.0</ele>
  <time>2026-08-28T17:53:00Z</time>
  <course>137.22</course>
  <speed>2.62</speed>
  <fix>3d</fix>
</trkpt>
<trkpt lat="40.0712755" lon="-105.2270185">
  <ele>1582.99</ele>
  <time>2026-08-28T17:53:00Z</time>
  <course>138.25</course>
  <speed>2.2219360926903367</speed>
  <fix>3d</fix>
</trkpt>
<trkpt lat="40.0712808" lon="-105.2270249">
  <ele>1583.0</ele>
  <time>2026-08-28T17:53:00Z</time>
  <course>137.22</course>
  <speed>2.62</speed>
  <fix>3d</fix>
</trkpt>
<trkpt lat="40.0712741" lon="-105.2270168">
  <ele>1582.99</ele>
  <time>2026-08-28T17:53:00Z</time>
  <course>138.29</course>
  <speed>2.1088859618291362</speed>
  <fix>3d</fix>
</trkpt>
<trkpt lat="40.0712775" lon="-105.2270209">
  <ele>1583.0</ele>
  <time>2026-08-28T17:53:00Z</time>
  <course>137.29</course>
  <speed>2.39</speed>
  <fix>3d</fix>
</trkpt>
<trkpt lat="40.0712728" lon="-105.2270152">
  <ele>1582.99</ele>
  <time>2026-08-28T17:53:00Z</time>
  <course>138.32</course>
  <speed>2.0026232796010337</speed>
  <fix>3d</fix>
</trkpt>
<trkpt lat="40.0712775" lon="-105.2270209">
  <ele>1583.0</ele>
  <time>2026-08-28T17:53:00Z</time>
  <course>137.29</course>
  <speed>2.39</speed>
  <fix>3d</fix>
</trkpt>
<trkpt lat="40.0712715" lon="-105.2270136">
  <ele>1583.0</ele>
  <time>2026-08-28T17:53:00Z</time>
  <course>138.38</course>
  <speed>1.8895766721676048</speed>
  <fix>3d</fix>
</trkpt>
<trkpt lat="40.0712745" lon="-105.2270173">
  <ele>1583.0</ele>
  <time>2026-08-28T17:53:00Z</time>
  <course>137.36</course>
  <speed>2.17</speed>
  <fix>3d</fix>
</trkpt>
<trkpt lat="40.0712703" lon="-105.2270122">
  <ele>1583.0</ele>
  <time>2026-08-28T17:53:00Z</time>
  <course>138.43</course>
  <speed>1.7906702655709676</speed>
  <fix>3d</fix>
</trkpt>
<trkpt lat="40.0712718" lon="-105.227014">
  <ele>1583.0</ele>
  <time>2026-08-28T17:53:00Z</time>
  <course>137.44</course>
  <speed>1.96</speed>
  <fix>3d</fix>
</trkpt>
<trkpt lat="40.0712691" lon="-105.2270108">
  <ele>1583.0</ele>
  <time>2026-08-28T17:53:00Z</time>
  <course>138.48</course>
  <speed>1.6917742166140255</speed>
  <fix>3d</fix>
</trkpt>
<trkpt lat="40.0712718" lon="-105.227014">
  <ele>1583.0</ele>
  <time>2026-08-28T17:53:00Z</time>
  <course>137.44</course>
  <speed>1.96</speed>
  <fix>3d</fix>
</trkpt>
<trkpt lat="40.071268" lon="-105.2270095">
  <ele>1583.0</ele>
  <time>2026-08-28T17:53:00Z</time>
  <course>138.52</course>
  <speed>1.5854967675779097</speed>
  <fix>3d</fix>
</trkpt>
<trkpt lat="40.0712693" lon="-105.2270109">
  <ele>1583.0</ele>
  <time>2026-08-28T17:53:00Z</time>
  <course>137.54</course>
  <speed>1.76</speed>
  <fix>3d</fix>
</trkpt>
<trkpt lat="40.071267" lon="-105.2270082">
  <ele>1583.0</ele>
  <time>2026-08-28T17:53:00Z</time>
  <course>138.57</course>
  <speed>1.4933519344079613</speed>
  <fix>3d</fix>
</trkpt>
<trkpt lat="40.0712693" lon="-105.2270109">
  <ele>1583.0</ele>
  <time>2026-08-28T17:53:00Z</time>
  <course>137.54</course>
  <speed>1.76</speed>
  <fix>3d</fix>
</trkpt>
<trkpt lat="40.071266" lon="-105.227007">
  <ele>1583.0</ele>
  <time>2026-08-28T17:53:00Z</time>
  <course>138.63</course>
  <speed>1.3944532978913278</speed>
  <fix>3d</fix>
</trkpt>
<trkpt lat="40.0712671" lon="-105.2270083">
  <ele>1583.0</ele>
  <time>2026-08-28T17:53:00Z</time>
  <course>137.64</course>
  <speed>1.56</speed>
  <fix>3d</fix>
</trkpt>
<trkpt lat="40.0712651" lon="-105.2270059">
  <ele>1583.0</ele>
  <time>2026-08-28T17:53:00Z</time>
  <course>138.7</course>
  <speed>1.2955693729013509</speed>
  <fix>3d</fix>
</trkpt>
<trkpt lat="40.0712671" lon="-105.2270083">
  <ele>1583.0</ele>
  <time>2026-08-28T17:53:00Z</time>
  <course>137.64</course>
  <speed>1.56</speed>
  <fix>3d</fix>
</trkpt>
<trkpt lat="40.0712642" lon="-105.2270049">
  <ele>1583.0</ele>
  <time>2026-08-28T17:53:00Z</time>
  <course>138.77</course>
  <speed>1.2034118164618461</speed>
  <fix>3d</fix>
</trkpt>
<trkpt lat="40.0712651" lon="-105.227006">
  <ele>1583.0</ele>
  <time>2026-08-28T17:53:00Z</time>
  <course>137.76</course>
  <speed>1.37</speed>
  <fix>3d</fix>
</trkpt>
<trkpt lat="40.0712634" lon="-105.227004">
  <ele>1583.01</ele>
  <time>2026-08-28T17:53:00Z</time>
  <course>138.86</course>
  <speed>1.104536101718726</speed>
  <fix>3d</fix>
</trkpt>
<trkpt lat="40.0712651" lon="-105.227006">
  <ele>1583.0</ele>
  <time>2026-08-28T17:53:00Z</time>
  <course>137.76</course>
  <speed>1.37</speed>
  <fix>3d</fix>
</trkpt>
<trkpt lat="40.0712627" lon="-105.2270031">
  <ele>1583.01</ele>
  <time>2026-08-28T17:53:00Z</time>
  <course>138.95</course>
  <speed>1.00568384694197</speed>
  <fix>3d</fix>
</trkpt>
<trkpt lat="40.0712634" lon="-105.227004">
  <ele>1583.0</ele>
  <time>2026-08-28T17:53:00Z</time>
  <course>137.92</course>
  <speed>1.18</speed>
  <fix>3d</fix>
</trkpt>
<trkpt lat="40.071262" lon="-105.2270023">
  <ele>1583.0</ele>
  <time>2026-08-28T17:53:00Z</time>
  <course>139.07</course>
  <speed>0.9135097153287424</speed>
  <fix>3d</fix>
</trkpt>
<trkpt lat="40.0712634" lon="-105.227004">
  <ele>1583.0</ele>
  <time>2026-08-28T17:53:00Z</time>
  <course>137.92</course>
  <speed>1.18</speed>
  <fix>3d</fix>
</trkpt>
<trkpt lat="40.0712614" lon="-105.2270016">
  <ele>1583.0</ele>
  <time>2026-08-28T17:53:00Z</time>
  <course>139.18</course>
  <speed>0.8146778504415104</speed>
  <fix>3d</fix>
</trkpt>
<trkpt lat="40.071262" lon="-105.2270023">
  <ele>1583.0</ele>
  <time>2026-08-28T17:53:00Z</time>
  <course>138.12</course>
  <speed>0.98</speed>
  <fix>3d</fix>
</trkpt>
<trkpt lat="40.0712608" lon="-105.227001">
  <ele>1583.01</ele>
  <time>2026-08-28T17:53:00Z</time>
  <course>139.3</course>
  <speed>0.7224956747275377</speed>
  <fix>3d</fix>
</trkpt>
<trkpt lat="40.071262" lon="-105.2270023">
  <ele>1583.0</ele>
  <time>2026-08-28T17:53:00Z</time>
  <course>138.12</course>
  <speed>0.98</speed>
  <fix>3d</fix>
</trkpt>
<trkpt lat="40.0712604" lon="-105.2270004">
  <ele>1583.01</ele>
  <time>2026-08-28T17:53:00Z</time>
  <course>139.42</course>
  <speed>0.623698645180507</speed>
  <fix>3d</fix>
</trkpt>
<trkpt lat="40.0712608" lon="-105.227001">
  <ele>1583.0</ele>
  <time>2026-08-28T17:53:00Z</time>
  <course>138.35</course>
  <speed>0.79</speed>
  <fix>3d</fix>
</trkpt>
<trkpt lat="40.0712599" lon="-105.227">
  <ele>1583.01</ele>
  <time>2026-08-28T17:53:00Z</time>
  <course>139.53</course>
  <speed>0.5315072906367324</speed>
  <fix>3d</fix>
</trkpt>
<trkpt lat="40.0712608" lon="-105.227001">
  <ele>1583.0</ele>
  <time>2026-08-28T17:53:00Z</time>
  <course>138.35</course>
  <speed>0.79</speed>
  <fix>3d</fix>
</trkpt>
<trkpt lat="40.0712596" lon="-105.2269996">
  <ele>1583.01</ele>
  <time>2026-08-28T17:53:00Z</time>
  <course>139.64</course>
  <speed>0.43278170016764805</speed>
  <fix>3d</fix>
</trkpt>
<trkpt lat="40.0712608" lon="-105.227001">
  <ele>1583.0</ele>
  <time>2026-08-28T17:53:00Z</time>
  <course>138.35</course>
  <speed>0.79</speed>
  <fix>3d</fix>
</trkpt>
<trkpt lat="40.0712593" lon="-105.2269992">
  <ele>1583.01</ele>
  <time>2026-08-28T17:53:00Z</time>
  <course>139.74</course>
  <speed>0.34058772731852804</speed>
  <fix>3d</fix>
</trkpt>
<trkpt lat="40.0712599" lon="-105.2269999">
  <ele>1583.0</ele>
  <time>2026-08-28T17:53:00Z</time>
  <course>138.58</course>
  <speed>0.6</speed>
  <fix>3d</fix>
</trkpt>
<trkpt lat="40.0712591" lon="-105.226999">
  <ele>1583.01</ele>
  <time>2026-08-28T17:53:00Z</time>
  <course>139.81</course>
  <speed>0.23430749027719963</speed>
  <fix>3d</fix>
</trkpt>
<trkpt lat="40.0712599" lon="-105.2269999">
  <ele>1583.0</ele>
  <time>2026-08-28T17:53:00Z</time>
  <course>138.58</course>
  <speed>0.6</speed>
  <fix>3d</fix>
</trkpt>
<trkpt lat="40.0712589" lon="-105.2269988">
  <ele>1583.01</ele>
  <time>2026-08-28T17:53:00Z</time>
  <course>139.86</course>
  <speed>0.14212670403551894</speed>
  <fix>3d</fix>
</trkpt>
<trkpt lat="40.0712592" lon="-105.2269991">
  <ele>1583.0</ele>
  <time>2026-08-28T17:53:00Z</time>
  <course>138.77</course>
  <speed>0.41</speed>
  <fix>3d</fix>
</trkpt>
<trkpt lat="40.0712588" lon="-105.2269987">
  <ele>1583.01</ele>
  <time>2026-08-28T17:53:00Z</time>
  <course>139.89</course>
  <speed>0.044721359549995794</speed>
  <fix>3d</fix>
</trkpt>
<trkpt lat="40.0712592" lon="-105.2269991">
  <ele>1583.0</ele>
  <time>2026-08-28T17:53:00Z</time>
  <course>138.77</course>
  <speed>0.41</speed>
  <fix>3d</fix>
</trkpt>
<trkpt lat="40.0712588" lon="-105.2269987">
  <ele>1583.01</ele>
  <time>2026-08-28T17:53:00Z</time>
  <course>139.9</course>
  <speed>0.0282842712474619</speed>
  <fix>3d</fix>
</trkpt>
<trkpt lat="40.0712587" lon="-105.2269986">
  <ele>1583.0</ele>
  <time>2026-08-28T17:53:00Z</time>
  <course>138.9</course>
  <speed>0.21</speed>
  <fix>3d</fix>
</trkpt>
<trkpt lat="40.0712588" lon="-105.2269987">
  <ele>1583.01</ele>
  <time>2026-08-28T17:53:00Z</time>
  <course>139.9</course>
  <speed>0.1131370849898476</speed>
  <fix>3d</fix>
</trkpt>
<trkpt lat="40.0712586" lon="-105.2269984">
  <ele>1583.0</ele>
  <time>2026-08-28T17:53:00Z</time>
  <course>138.94</course>
  <speed>0.03</speed>
  <fix>3d</fix>
</trkpt>
<trkpt lat="40.0712589" lon="-105.2269988">
  <ele>1583.01</ele>
  <time>2026-08-28T17:53:00Z</time>
  <course>139.91</course>
  <speed>0.18384776310850234</speed>
  <fix>3d</fix>
</trkpt>
<trkpt lat="40.0712586" lon="-105.2269984">
  <ele>1583.0</ele>
  <time>2026-08-28T17:53:00Z</time>
  <course>138.94</course>
  <speed>0.03</speed>
  <fix>3d</fix>
</trkpt>
<trkpt lat="40.071259" lon="-105.226999">
  <ele>1583.01</ele>
  <time>2026-08-28T17:53:00Z</time>
  <course>139.92</course>
  <speed>0.24758836806279894</speed>
  <fix>3d</fix>
</trkpt>
<trkpt lat="40.0712586" lon="-105.2269985">
  <ele>1583.0</ele>
  <time>2026-08-28T17:53:00Z</time>
  <course>318.97</course>
  <speed>0.11</speed>
  <fix>3d</fix>
</trkpt>
<trkpt lat="40.0712591" lon="-105.2269991">
  <ele>1583.01</ele>
  <time>2026-08-28T17:53:00Z</time>
  <course>139.92</course>
  <speed>0.29</speed>
  <fix>3d</fix>
</trkpt>
<trkpt lat="40.0712586" lon="-105.2269985">
  <ele>1583.0</ele>
  <time>2026-08-28T17:53:00Z</time>
  <course>318.97</course>
  <speed>0.11</speed>
  <fix>3d</fix>
</trkpt>
<trkpt lat="40.0712593" lon="-105.2269993">
  <ele>1583.0</ele>
  <time>2026-08-28T17:53:00Z</time>
  <course>139.92</course>
  <speed>0.3255764119219941</speed>
  <fix>3d</fix>
</trkpt>
<trkpt lat="40.0712588" lon="-105.2269987">
  <ele>1583.0</ele>
  <time>2026-08-28T17:53:00Z</time>
  <course>318.97</course>
  <speed>0.22</speed>
  <fix>3d</fix>
</trkpt>
<trkpt lat="40.0712595" lon="-105.2269995">
  <ele>1583.0</ele>
  <time>2026-08-28T17:53:00Z</time>
  <course>139.91</course>
  <speed>0.3538361202590826</speed>
  <fix>3d</fix>
</trkpt>
<trkpt lat="40.0712588" lon="-105.2269987">
  <ele>1583.0</ele>
  <time>2026-08-28T17:53:00Z</time>
  <course>318.97</course>
  <speed>0.22</speed>
  <fix>3d</fix>
</trkpt>
<trkpt lat="40.0712597" lon="-105.2269998">
  <ele>1583.0</ele>
  <time>2026-08-28T17:53:00Z</time>
  <course>139.89</course>
  <speed>0.36796738985948196</speed>
  <fix>3d</fix>
</trkpt>
<trkpt lat="40.0712591" lon="-105.226999">
  <ele>1583.0</ele>
  <time>2026-08-28T17:53:00Z</time>
  <course>318.96</course>
  <speed>0.28</speed>
  <fix>3d</fix>
</trkpt>
<trkpt lat="40.0712599" lon="-105.2270001">
  <ele>1583.0</ele>
  <time>2026-08-28T17:53:00Z</time>
  <course>139.86</course>
  <speed>0.37483329627982626</speed>
  <fix>3d</fix>
</trkpt>
<trkpt lat="40.0712591" lon="-105.226999">
  <ele>1583.0</ele>
  <time>2026-08-28T17:53:00Z</time>
  <course>318.96</course>
  <speed>0.28</speed>
  <fix>3d</fix>
</trkpt>
<trkpt lat="40.0712601" lon="-105.2270003">
  <ele>1583.0</ele>
  <time>2026-08-28T17:53:00Z</time>
  <course>139.82</course>
  <speed>0.3676955262170047</speed>
  <fix>3d</fix>
</trkpt>
<trkpt lat="40.0712595" lon="-105.2269995">
  <ele>1583.0</ele>
  <time>2026-08-28T17:53:00Z</time>
  <course>318.91</course>
  <speed>0.31</speed>
  <fix>3d</fix>
</trkpt>
<trkpt lat="40.0712603" lon="-105.2270006">
  <ele>1583.0</ele>
  <time>2026-08-28T17:53:00Z</time>
  <course>139.77</course>
  <speed>0.3535533905932738</speed>
  <fix>3d</fix>
</trkpt>
<trkpt lat="40.0712595" lon="-105.2269995">
  <ele>1583.0</ele>
  <time>2026-08-28T17:53:00Z</time>
  <course>318.91</course>
  <speed>0.31</speed>
  <fix>3d</fix>
</trkpt>
<trkpt lat="40.0712605" lon="-105.2270008">
  <ele>1583.0</ele>
  <time>2026-08-28T17:53:00Z</time>
  <course>139.75</course>
  <speed>0.3394112549695428</speed>
  <fix>3d</fix>
</trkpt>
<trkpt lat="40.0712599" lon="-105.227">
  <ele>1583.0</ele>
  <time>2026-08-28T17:53:00Z</time>
  <course>318.84</course>
  <speed>0.3</speed>
  <fix>3d</fix>
</trkpt>
<trkpt lat="40.0712607" lon="-105.227001">
  <ele>1583.01</ele>
  <time>2026-08-28T17:53:00Z</time>
  <course>139.76</course>
  <speed>0.31827660925679097</speed>
  <fix>3d</fix>
</trkpt>
<trkpt lat="40.0712599" lon="-105.227">
  <ele>1583.0</ele>
  <time>2026-08-28T17:53:00Z</time>
  <course>318.84</course>
  <speed>0.3</speed>
  <fix>3d</fix>
</trkpt>
<trkpt lat="40.0712608" lon="-105.2270012">
  <ele>1583.01</ele>
  <time>2026-08-28T17:53:00Z</time>
  <course>139.76</course>
  <speed>0.304138126514911</speed>
  <fix>3d</fix>
</trkpt>
<trkpt lat="40.0712603" lon="-105.2270004">
  <ele>1583.0</ele>
  <time>2026-08-28T17:53:00Z</time>
  <course>318.81</course>
  <speed>0.27</speed>
  <fix>3d</fix>
</trkpt>
<trkpt lat="40.071261" lon="-105.2270014">
  <ele>1583.01</ele>
  <time>2026-08-28T17:53:00Z</time>
  <course>139.77</course>
  <speed>0.27586228448267447</speed>
  <fix>3d</fix>
</trkpt>
<trkpt lat="40.0712603" lon="-105.2270004">
  <ele>1583.0</ele>
  <time>2026-08-28T17:53:00Z</time>
  <course>318.81</course>
  <speed>0.27</speed>
  <fix>3d</fix>
</trkpt>
<trkpt lat="40.0712611" lon="-105.2270016">
  <ele>1583.01</ele>
  <time>2026-08-28T17:53:00Z</time>
  <course>139.77</course>
  <speed>0.24839484696748443</speed>
  <fix>3d</fix>
</trkpt>
<trkpt lat="40.0712603" lon="-105.2270004">
  <ele>1583.0</ele>
  <time>2026-08-28T17:53:00Z</time>
  <course>318.81</course>
  <speed>0.27</speed>
  <fix>3d</fix>
</trkpt>
<trkpt lat="40.0712612" lon="-105.2270017">
  <ele>1583.01</ele>
  <time>2026-08-28T17:53:00Z</time>
  <course>139.77</course>
  <speed>0.22022715545545238</speed>
  <fix>3d</fix>
</trkpt>
<trkpt lat="40.0712606" lon="-105.2270008">
  <ele>1583.0</ele>
  <time>2026-08-28T17:53:00Z</time>
  <course>318.81</course>
  <speed>0.23</speed>
  <fix>3d</fix>
</trkpt>
<trkpt lat="40.0712613" lon="-105.2270019">
  <ele>1583.02</ele>
  <time>2026-08-28T17:53:00Z</time>
  <course>139.78</course>
  <speed>0.19209372712298545</speed>
  <fix>3d</fix>
</trkpt>
<trkpt lat="40.0712606" lon="-105.2270008">
  <ele>1583.0</ele>
  <time>2026-08-28T17:53:00Z</time>
  <course>318.81</course>
  <speed>0.23</speed>
  <fix>3d</fix>
</trkpt>
<trkpt lat="40.0712614" lon="-105.227002">
  <ele>1583.02</ele>
  <time>2026-08-28T17:53:00Z</time>
  <course>139.8</course>
  <speed>0.15811388300841897</speed>
  <fix>3d</fix>
</trkpt>
<trkpt lat="40.071261" lon="-105.2270011">
  <ele>1583.0</ele>
  <time>2026-08-28T17:53:00Z</time>
  <course>318.82</course>
  <speed>0.18</speed>
  <fix>3d</fix>
</trkpt>
<trkpt lat="40.0712614" lon="-105.227002">
  <ele>1583.02</ele>
  <time>2026-08-28T17:53:00Z</time>
  <course>139.81</course>
  <speed>0.10295630140987001</speed>
  <fix>3d</fix>
</trkpt>
<trkpt lat="40.071261" lon="-105.2270011">
  <ele>1583.0</ele>
  <time>2026-08-28T17:53:00Z</time>
  <course>318.82</course>
  <speed>0.18</speed>
  <fix>3d</fix>
</trkpt>
<trkpt lat="40.0712614" lon="-105.2270021">
  <ele>1583.02</ele>
  <time>2026-08-28T17:53:00Z</time>
  <course>139.82</course>
  <speed>0.06</speed>
  <fix>3d</fix>
</trkpt>
<trkpt lat="40.0712611" lon="-105.2270014">
  <ele>1583.0</ele>
  <time>2026-08-28T17:53:00Z</time>
  <course>318.84</course>
  <speed>0.11</speed>
  <fix>3d</fix>
</trkpt>
<trkpt lat="40.0712614" lon="-105.2270021">
  <ele>1583.02</ele>
  <time>2026-08-28T17:53:00Z</time>
  <course>139.82</course>
  <speed>0.03605551275463989</speed>
  <fix>3d</fix>
</trkpt>
<trkpt lat="40.0712611" lon="-105.2270014">
  <ele>1583.0</ele>
  <time>2026-08-28T17:53:00Z</time>
  <course>318.84</course>
  <speed>0.11</speed>
  <fix>3d</fix>
</trkpt>
<trkpt lat="40.0712613" lon="-105.227002">
  <ele>1583.02</ele>
  <time>2026-08-28T17:53:00Z</time>
  <course>139.82</course>
  <speed>0.07</speed>
  <fix>3d</fix>
</trkpt>
<trkpt lat="40.0712612" lon="-105.2270015">
  <ele>1583.0</ele>
  <time>2026-08-28T17:53:00Z</time>
  <course>318.87</course>
  <speed>0.01</speed>
  <fix>3d</fix>
</trkpt>
<trkpt lat="40.0712613" lon="-105.2270019">
  <ele>1583.02</ele>
  <time>2026-08-28T17:53:00Z</time>
  <course>139.82</course>
  <speed>0.11401754250991379</speed>
  <fix>3d</fix>
</trkpt>
<trkpt lat="40.0712612" lon="-105.2270014">
  <ele>1583.0</ele>
  <time>2026-08-28T17:53:00Z</time>
  <course>138.87</course>
  <speed>0.08</speed>
  <fix>3d</fix>
</trkpt>
<trkpt lat="40.0712612" lon="-105.2270018">
  <ele>1583.02</ele>
  <time>2026-08-28T17:53:00Z</time>
  <course>139.83</course>
  <speed>0.16552945357246848</speed>
  <fix>3d</fix>
</trkpt>
<trkpt lat="40.0712612" lon="-105.2270014">
  <ele>1583.0</ele>
  <time>2026-08-28T17:53:00Z</time>
  <course>138.87</course>
  <speed>0.08</speed>
  <fix>3d</fix>
</trkpt>
<trkpt lat="40.071261" lon="-105.2270017">
  <ele>1583.02</ele>
  <time>2026-08-28T17:53:00Z</time>
  <course>139.86</course>
  <speed>0.21470910553583888</speed>
  <fix>3d</fix>
</trkpt>
<trkpt lat="40.0712611" lon="-105.2270012">
  <ele>1583.0</ele>
  <time>2026-08-28T17:53:00Z</time>
  <course>138.91</course>
  <speed>0.18</speed>
  <fix>3d</fix>
</trkpt>
<trkpt lat="40.0712608" lon="-105.2270015">
  <ele>1583.02</ele>
  <time>2026-08-28T17:53:00Z</time>
  <course>139.93</course>
  <speed>0.2778488797889961</speed>
  <fix>3d</fix>
</trkpt>
<trkpt lat="40.0712611" lon="-105.2270012">
  <ele>1583.0</ele>
  <time>2026-08-28T17:53:00Z</time>
  <course>138.91</course>
  <speed>0.18</speed>
  <fix>3d</fix>
</trkpt>
<trkpt lat="40.0712605" lon="-105.2270012">
  <ele>1583.02</ele>
  <time>2026-08-28T17:53:00Z</time>
  <course>140.06</course>
  <speed>0.3466987164671943</speed>
  <fix>3d</fix>
</trkpt>
<trkpt lat="40.0712608" lon="-105.2270009">
  <ele>1583.0</ele>
  <time>2026-08-28T17:53:00Z</time>
  <course>139.06</course>
  <speed>0.3</speed>
  <fix>3d</fix>
</trkpt>
<trkpt lat="40.0712602" lon="-105.2270008">
  <ele>1583.02</ele>
  <time>2026-08-28T17:53:00Z</time>
  <course>140.3</course>
  <speed>0.4243819034784589</speed>
  <fix>3d</fix>
</trkpt>
<trkpt lat="40.0712608" lon="-105.2270009">
  <ele>1583.0</ele>
  <time>2026-08-28T17:53:00Z</time>
  <course>139.06</course>
  <speed>0.3</speed>
  <fix>3d</fix>
</trkpt>
<trkpt lat="40.0712599" lon="-105.2270005">
  <ele>1583.02</ele>
  <time>2026-08-28T17:53:00Z</time>
  <course>140.71</course>
  <speed>0.5103920062069939</speed>
  <fix>3d</fix>
</trkpt>
<trkpt lat="40.0712602" lon="-105.2270004">
  <ele>1583.0</ele>
  <time>2026-08-28T17:53:00Z</time>
  <course>139.53</course>
  <speed>0.44</speed>
  <fix>3d</fix>
</trkpt>
<trkpt lat="40.0712594" lon="-105.227">
  <ele>1583.02</ele>
  <time>2026-08-28T17:53:00Z</time>
  <course>141.37</course>
  <speed>0.604648658313239</speed>
  <fix>3d</fix>
</trkpt>
<trkpt lat="40.0712602" lon="-105.2270004">
  <ele>1583.0</ele>
  <time>2026-08-28T17:53:00Z</time>
  <course>139.53</course>
  <speed>0.44</speed>
  <fix>3d</fix>
</trkpt>
<trkpt lat="40.0712589" lon="-105.2269995">
  <ele>1583.01</ele>
  <time>2026-08-28T17:53:00Z</time>
  <course>142.27</course>
  <speed>0.6989277502002621</speed>
  <fix>3d</fix>
</trkpt>
<trkpt lat="40.0712596" lon="-105.2269996">
  <ele>1583.0</ele>
  <time>2026-08-28T17:53:00Z</time>
  <course>140.71</course>
  <speed>0.61</speed>
  <fix>3d</fix>
</trkpt>
<trkpt lat="40.0712584" lon="-105.2269989">
  <ele>1583.01</ele>
  <time>2026-08-28T17:53:00Z</time>
  <course>143.51</course>
  <speed>0.807093550959243</speed>
  <fix>3d</fix>
</trkpt>
<trkpt lat="40.0712596" lon="-105.2269996">
  <ele>1583.0</ele>
  <time>2026-08-28T17:53:00Z</time>
  <course>140.71</course>
  <speed>0.61</speed>
  <fix>3d</fix>
</trkpt>
<trkpt lat="40.0712577" lon="-105.2269983">
  <ele>1583.01</ele>
  <time>2026-08-28T17:53:00Z</time>
  <course>145.13</course>
  <speed>0.9211405973031478</speed>
  <fix>3d</fix>
</trkpt>
<trkpt lat="40.0712586" lon="-105.2269985">
  <ele>1583.0</ele>
  <time>2026-08-28T17:53:00Z</time>
  <course>143.0</course>
  <speed>0.81</speed>
  <fix>3d</fix>
</trkpt>
<trkpt lat="40.071257" lon="-105.2269976">
  <ele>1583.01</ele>
  <time>2026-08-28T17:53:00Z</time>
  <course>147.17</course>
  <speed>1.0307764064044151</speed>
  <fix>3d</fix>
</trkpt>
<trkpt lat="40.0712586" lon="-105.2269985">
  <ele>1583.0</ele>
  <time>2026-08-28T17:53:00Z</time>
  <course>143.0</course>
  <speed>0.81</speed>
  <fix>3d</fix>
</trkpt>
<trkpt lat="40.0712561" lon="-105.226997">
  <ele>1583.01</ele>
  <time>2026-08-28T17:53:00Z</time>
  <course>149.6</course>
  <speed>1.1500434774390054</speed>
  <fix>3d</fix>
</trkpt>
<trkpt lat="40.0712586" lon="-105.2269985">
  <ele>1583.0</ele>
  <time>2026-08-28T17:53:00Z</time>
  <course>143.0</course>
  <speed>0.81</speed>
  <fix>3d</fix>
</trkpt>
<trkpt lat="40.0712551" lon="-105.2269962">
  <ele>1583.01</ele>
  <time>2026-08-28T17:53:00Z</time>
  <course>152.4</course>
  <speed>1.2657408897558773</speed>
  <fix>3d</fix>
</trkpt>
<trkpt lat="40.0712572" lon="-105.2269972">
  <ele>1583.0</ele>
  <time>2026-08-28T17:53:00Z</time>
  <course>146.75</course>
  <speed>1.03</speed>
  <fix>3d</fix>
</trkpt>
<trkpt lat="40.0712541" lon="-105.2269955">
  <ele>1583.01</ele>
  <time>2026-08-28T17:53:00Z</time>
  <course>155.65</course>
  <speed>1.3892443989449805</speed>
  <fix>3d</fix>
</trkpt>
<trkpt lat="40.0712572" lon="-105.2269972">
  <ele>1583.0</ele>
  <time>2026-08-28T17:53:00Z</time>
  <course>146.75</course>
  <speed>1.03</speed>
  <fix>3d</fix>
</trkpt>
<trkpt lat="40.0712528" lon="-105.2269949">
  <ele>1583.0</ele>
  <time>2026-08-28T17:53:00Z</time>
  <course>159.41</course>
  <speed>1.514892735476674</speed>
  <fix>3d</fix>
</trkpt>
<trkpt lat="40.0712554" lon="-105.2269958">
  <ele>1583.0</ele>
  <time>2026-08-28T17:53:00Z</time>
  <course>152.09</course>
  <speed>1.25</speed>
  <fix>3d</fix>
</trkpt>
<trkpt lat="40.0712515" lon="-105.2269943">
  <ele>1583.0</ele>
  <time>2026-08-28T17:53:00Z</time>
  <course>163.89</course>
  <speed>1.625207679036744</speed>
  <fix>3d</fix>
</trkpt>
<trkpt lat="40.0712554" lon="-105.2269958">
  <ele>1583.0</ele>
  <time>2026-08-28T17:53:00Z</time>
  <course>152.09</course>
  <speed>1.25</speed>
  <fix>3d</fix>
</trkpt>
<trkpt lat="40.07125" lon="-105.2269938">
  <ele>1583.0</ele>
  <time>2026-08-28T17:53:00Z</time>
  <course>169.37</course>
  <speed>1.7229045243425418</speed>
  <fix>3d</fix>
</trkpt>
<trkpt lat="40.0712532" lon="-105.2269945">
  <ele>1583.0</ele>
  <time>2026-08-28T17:53:00Z</time>
  <course>159.3</course>
  <speed>1.48</speed>
  <fix>3d</fix>
</trkpt>
<trkpt lat="40.0712485" lon="-105.2269935">
  <ele>1583.0</ele>
  <time>2026-08-28T17:53:00Z</time>
  <course>175.92</course>
  <speed>1.8027756377319946</speed>
  <fix>3d</fix>
</trkpt>
<trkpt lat="40.0712532" lon="-105.2269945">
  <ele>1583.0</ele>
  <time>2026-08-28T17:53:00Z</time>
  <course>159.3</course>
  <speed>1.48</speed>
  <fix>3d</fix>
</trkpt>
<trkpt lat="40.0712468" lon="-105.2269935">
  <ele>1582.99</ele>
  <time>2026-08-28T17:53:00Z</time>
  <course>183.6</course>
  <speed>1.8752333188166213</speed>
  <fix>3d</fix>
</trkpt>
<trkpt lat="40.0712505" lon="-105.2269935">
  <ele>1583.0</ele>
  <time>2026-08-28T17:53:00Z</time>
  <course>169.47</course>
  <speed>1.68</speed>
  <fix>3d</fix>
</trkpt>
<trkpt lat="40.0712452" lon="-105.2269938">
  <ele>1582.99</ele>
  <time>2026-08-28T17:53:00Z</time>
  <course>192.23</course>
  <speed>1.9165855055279948</speed>
  <fix>3d</fix>
</trkpt>
<trkpt lat="40.0712473" lon="-105.2269933">
  <ele>1583.0</ele>
  <time>2026-08-28T17:53:00Z</time>
  <course>183.58</course>
  <speed>1.82</speed>
  <fix>3d</fix>
</trkpt>
<trkpt lat="40.0712435" lon="-105.2269945">
  <ele>1583.0</ele>
  <time>2026-08-28T17:53:00Z</time>
  <course>201.9</course>
  <speed>1.9554283418218117</speed>
  <fix>3d</fix>
</trkpt>
<trkpt lat="40.0712473" lon="-105.2269933">
  <ele>1583.0</ele>
  <time>2026-08-28T17:53:00Z</time>
  <course>183.58</course>
  <speed>1.82</speed>
  <fix>3d</fix>
</trkpt>
<trkpt lat="40.071242" lon="-105.2269954">
  <ele>1583.0</ele>
  <time>2026-08-28T17:53:00Z</time>
  <course>212.38</course>
  <speed>1.9833809518093088</speed>
  <fix>3d</fix>
</trkpt>
<trkpt lat="40.0712441" lon="-105.2269942">
  <ele>1583.0</ele>
  <time>2026-08-28T17:53:00Z</time>
  <course>201.75</course>
  <speed>1.9</speed>
  <fix>3d</fix>
</trkpt>
<trkpt lat="40.0712406" lon="-105.2269969">
  <ele>1583.0</ele>
  <time>2026-08-28T17:53:00Z</time>
  <course>223.07</course>
  <speed>1.9948433522459854</speed>
  <fix>3d</fix>
</trkpt>
<trkpt lat="40.0712441" lon="-105.2269942">
  <ele>1583.0</ele>
  <time>2026-08-28T17:53:00Z</time>
  <course>201.75</course>
  <speed>1.9</speed>
  <fix>3d</fix>
</trkpt>
<trkpt lat="40.0712394" lon="-105.2269987">
  <ele>1583.0</ele>
  <time>2026-08-28T17:53:00Z</time>
  <course>233.76</course>
  <speed>1.9983242980057065</speed>
  <fix>3d</fix>
</trkpt>
<trkpt lat="40.0712411" lon="-105.2269965">
  <ele>1583.0</ele>
  <time>2026-08-28T17:53:00Z</time>
  <course>222.44</course>
  <speed>1.94</speed>
  <fix>3d</fix>
</trkpt>
<trkpt lat="40.0712385" lon="-105.2270008">
  <ele>1583.0</ele>
  <time>2026-08-28T17:53:00Z</time>
  <course>244.5</course>
  <speed>1.9996499693696395</speed>
  <fix>3d</fix>
</trkpt>
<trkpt lat="40.0712411" lon="-105.2269965">
  <ele>1583.0</ele>
  <time>2026-08-28T17:53:00Z</time>
  <course>222.44</course>
  <speed>1.94</speed>
  <fix>3d</fix>
</trkpt>
<trkpt lat="40.0712379" lon="-105.227003">
  <ele>1583.0</ele>
  <time>2026-08-28T17:53:00Z</time>
  <course>255.27</course>
  <speed>1.9912307751739877</speed>
  <fix>3d</fix>
</trkpt>
<trkpt lat="40.071239" lon="-105.2270001">
  <ele>1583.0</ele>
  <time>2026-08-28T17:53:01Z</time>
  <course>243.78</course>
  <speed>1.94</speed>
  <fix>3d</fix>
</trkpt>
<trkpt lat="40.0712377" lon="-105.2270053">
  <ele>1583.0</ele>
  <time>2026-08-28T17:53:01Z</time>
  <course>266.16</course>
  <speed>1.9836330305779848</speed>
  <fix>3d</fix>
</trkpt>
<trkpt lat="40.071239" lon="-105.2270001">
  <ele>1583.0</ele>
  <time>2026-08-28T17:53:01Z</time>
  <course>243.78</course>
  <speed>1.94</speed>
  <fix>3d</fix>
</trkpt>
<trkpt lat="40.0712378" lon="-105.2270077">
  <ele>1583.0</ele>
  <time>2026-08-28T17:53:01Z</time>
  <course>276.73</course>
  <speed>1.9845654436173175</speed>
  <fix>3d</fix>
</trkpt>
<trkpt lat="40.0712381" lon="-105.2270045">
  <ele>1583.0</ele>
  <time>2026-08-28T17:53:01Z</time>
  <course>265.22</course>
  <speed>1.94</speed>
  <fix>3d</fix>
</trkpt>
<trkpt lat="40.0712382" lon="-105.22701">
  <ele>1583.0</ele>
  <time>2026-08-28T17:53:01Z</time>
  <course>286.3</course>
  <speed>2.0028230076569424</speed>
  <fix>3d</fix>
</trkpt>
<trkpt lat="40.0712381" lon="-105.2270045">
  <ele>1583.0</ele>
  <time>2026-08-28T17:53:01Z</time>
  <course>265.22</course>
  <speed>1.94</speed>
  <fix>3d</fix>
</trkpt>
<trkpt lat="40.0712389" lon="-105.2270122">
  <ele>1582.99</ele>
  <time>2026-08-28T17:53:01Z</time>
  <course>294.87</course>
  <speed>2.026277374892194</speed>
  <fix>3d</fix>
</trkpt>
<trkpt lat="40.0712384" lon="-105.2270091">
  <ele>1583.0</ele>
  <time>2026-08-28T17:53:01Z</time>
  <course>285.07</course>
  <speed>1.97</speed>
  <fix>3d</fix>
</trkpt>
<trkpt lat="40.0712398" lon="-105.2270143">
  <ele>1582.99</ele>
  <time>2026-08-28T17:53:01Z</time>
  <course>302.42</course>
  <speed>2.0692993983471797</speed>
  <fix>3d</fix>
</trkpt>
<trkpt lat="40.0712384" lon="-105.2270091">
  <ele>1583.0</ele>
  <time>2026-08-28T17:53:01Z</time>
  <course>285.07</course>
  <speed>1.97</speed>
  <fix>3d</fix>
</trkpt>
<trkpt lat="40.071241" lon="-105.2270162">
  <ele>1582.99</ele>
  <time>2026-08-28T17:53:01Z</time>
  <course>308.92</course>
  <speed>2.1241704263076446</speed>
  <fix>3d</fix>
</trkpt>
<trkpt lat="40.0712398" lon="-105.2270134">
  <ele>1583.0</ele>
  <time>2026-08-28T17:53:01Z</time>
  <course>301.19</course>
  <speed>2.05</speed>
  <fix>3d</fix>
</trkpt>
<trkpt lat="40.0712423" lon="-105.2270181">
  <ele>1582.99</ele>
  <time>2026-08-28T17:53:01Z</time>
  <course>314.35</course>
  <speed>2.184971395693774</speed>
  <fix>3d</fix>
</trkpt>
<trkpt lat="40.0712398" lon="-105.2270134">
  <ele>1583.0</ele>
  <time>2026-08-28T17:53:01Z</time>
  <course>301.19</course>
  <speed>2.05</speed>
  <fix>3d</fix>
</trkpt>
<trkpt lat="40.0712438" lon="-105.2270199">
  <ele>1582.99</ele>
  <time>2026-08-28T17:53:01Z</time>
  <course>318.7</course>
  <speed>2.254994456755936</speed>
  <fix>3d</fix>
</trkpt>
<trkpt lat="40.0712398" lon="-105.2270134">
  <ele>1583.0</ele>
  <time>2026-08-28T17:53:01Z</time>
  <course>301.19</course>
  <speed>2.05</speed>
  <fix>3d</fix>
</trkpt>
<trkpt lat="40.0712455" lon="-105.2270215">
  <ele>1582.99</ele>
  <time>2026-08-28T17:53:01Z</time>
  <course>321.96</course>
  <speed>2.3321449354617734</speed>
  <fix>3d</fix>
</trkpt>
<trkpt lat="40.0712421" lon="-105.2270173">
  <ele>1583.0</ele>
  <time>2026-08-28T17:53:01Z</time>
  <course>313.09</course>
  <speed>2.17</speed>
  <fix>3d</fix>
</trkpt>
<trkpt lat="40.0712472" lon="-105.2270232">
  <ele>1582.98</ele>
  <time>2026-08-28T17:53:01Z</time>
  <course>324.13</course>
  <speed>2.424953607803663</speed>
  <fix>3d</fix>
</trkpt>
<trkpt lat="40.0712421" lon="-105.2270173">
  <ele>1583.0</ele>
  <time>2026-08-28T17:53:01Z</time>
  <course>313.09</course>
  <speed>2.17</speed>
  <fix>3d</fix>
</trkpt>
<trkpt lat="40.071249" lon="-105.2270248">
  <ele>1582.98</ele>
  <time>2026-08-28T17:53:01Z</time>
  <course>325.19</course>
  <speed>2.518491612056709</speed>
  <fix>3d</fix>
</trkpt>
<trkpt lat="40.0712451" lon="-105.2270209">
  <ele>1583.0</ele>
  <time>2026-08-28T17:53:01Z</time>
  <course>320.64</course>
  <speed>2.33</speed>
  <fix>3d</fix>
</trkpt>
<trkpt lat="40.0712509" lon="-105.2270265">
  <ele>1582.99</ele>
  <time>2026-08-28T17:53:01Z</time>
  <course>325.15</course>
  <speed>2.6183964558485027</speed>
  <fix>3d</fix>
</trkpt>
<trkpt lat="40.0712451" lon="-105.2270209">
  <ele>1583.0</ele>
  <time>2026-08-28T17:53:01Z</time>
  <course>320.64</course>
  <speed>2.33</speed>
  <fix>3d</fix>
</trkpt>
<trkpt lat="40.0712529" lon="-105.2270283">
  <ele>1582.99</ele>
  <time>2026-08-28T17:53:01Z</time>
  <course>324.04</course>
  <speed>2.7167075661542963</speed>
  <fix>3d</fix>
</trkpt>
<trkpt lat="40.0712485" lon="-105.2270243">
  <ele>1583.0</ele>
  <time>2026-08-28T17:53:01Z</time>
  <course>323.77</course>
  <speed>2.51</speed>
  <fix>3d</fix>
</trkpt>
<trkpt lat="40.0712549" lon="-105.2270303">
  <ele>1582.99</ele>
  <time>2026-08-28T17:53:01Z</time>
  <course>322.74</course>
  <speed>2.828002828852899</speed>
  <fix>3d</fix>
</trkpt>
<trkpt lat="40.0712523" lon="-105.227028">
  <ele>1583.0</ele>
  <time>2026-08-28T17:53:01Z</time>
  <course>323.01</course>
  <speed>2.71</speed>
  <fix>3d</fix>
</trkpt>
<trkpt lat="40.0712569" lon="-105.2270324">
  <ele>1583.0</ele>
  <time>2026-08-28T17:53:01Z</time>
  <course>321.75</course>
  <speed>2.9425329225006136</speed>
  <fix>3d</fix>
</trkpt>
<trkpt lat="40.0712523" lon="-105.227028">
  <ele>1583.0</ele>
  <time>2026-08-28T17:53:01Z</time>
  <course>323.01</course>
  <speed>2.71</speed>
  <fix>3d</fix>
</trkpt>
<trkpt lat="40.071259" lon="-105.2270346">
  <ele>1582.99</ele>
  <time>2026-08-28T17:53:01Z</time>
  <course>320.93</course>
  <speed>3.0579077814741242</speed>
  <fix>3d</fix>
</trkpt>
<trkpt lat="40.0712563" lon="-105.2270321">
  <ele>1583.0</ele>
  <time>2026-08-28T17:53:01Z</time>
  <course>320.94</course>
  <speed>2.93</speed>
  <fix>3d</fix>
</trkpt>
<trkpt lat="40.0712612" lon="-105.227037">
  <ele>1582.99</ele>
  <time>2026-08-28T17:53:01Z</time>
  <course>320.28</course>
  <speed>3.1817290896617836</speed>
  <fix>3d</fix>
</trkpt>
<trkpt lat="40.0712563" lon="-105.2270321">
  <ele>1583.0</ele>
  <time>2026-08-28T17:53:01Z</time>
  <course>320.94</course>
  <speed>2.93</speed>
  <fix>3d</fix>
</trkpt>
<trkpt lat="40.0712634" lon="-105.2270395">
  <ele>1582.99</ele>
  <time>2026-08-28T17:53:01Z</time>
  <course>319.74</course>
  <speed>3.3060550509633075</speed>
  <fix>3d</fix>
</trkpt>
<trkpt lat="40.0712605" lon="-105.2270367">
  <ele>1583.0</ele>
  <time>2026-08-28T17:53:01Z</time>
  <course>319.47</course>
  <speed>3.17</speed>
  <fix>3d</fix>
</trkpt>
<trkpt lat="40.0712657" lon="-105.2270422">
  <ele>1582.99</ele>
  <time>2026-08-28T17:53:01Z</time>
  <course>319.29</course>
  <speed>3.424280946417802</speed>
  <fix>3d</fix>
</trkpt>
<trkpt lat="40.0712605" lon="-105.2270367">
  <ele>1583.0</ele>
  <time>2026-08-28T17:53:01Z</time>
  <course>319.47</course>
  <speed>3.17</speed>
  <fix>3d</fix>
</trkpt>
<trkpt lat="40.0712681" lon="-105.2270449">
  <ele>1582.99</ele>
  <time>2026-08-28T17:53:01Z</time>
  <course>318.93</course>
  <speed>3.550281678965769</speed>
  <fix>3d</fix>
</trkpt>
<trkpt lat="40.0712649" lon="-105.2270418">
  <ele>1583.0</ele>
  <time>2026-08-28T17:53:01Z</time>
  <course>318.49</course>
  <speed>3.41</speed>
  <fix>3d</fix>
</trkpt>
<trkpt lat="40.0712705" lon="-105.2270478">
  <ele>1582.99</ele>
  <time>2026-08-28T17:53:01Z</time>
  <course>318.62</course>
  <speed>3.668950803703969</speed>
  <fix>3d</fix>
</trkpt>
<trkpt lat="40.0712649" lon="-105.2270418">
  <ele>1583.0</ele>
  <time>2026-08-28T17:53:01Z</time>
  <course>318.49</course>
  <speed>3.41</speed>
  <fix>3d</fix>
</trkpt>
<trkpt lat="40.071273" lon="-105.2270508">
  <ele>1582.99</ele>
  <time>2026-08-28T17:53:01Z</time>
  <course>318.36</course>
  <speed>3.7952602018833965</speed>
  <fix>3d</fix>
</trkpt>
<trkpt lat="40.0712697" lon="-105.2270473">
  <ele>1583.0</ele>
  <time>2026-08-28T17:53:01Z</time>
  <course>317.82</course>
  <speed>3.64</speed>
  <fix>3d</fix>
</trkpt>
<trkpt lat="40.0712756" lon="-105.2270539">
  <ele>1582.99</ele>
  <time>2026-08-28T17:53:01Z</time>
  <course>318.14</course>
  <speed>3.914958492755702</speed>
  <fix>3d</fix>
</trkpt>
<trkpt lat="40.0712697" lon="-105.2270473">
  <ele>1583.0</ele>
  <time>2026-08-28T17:53:01Z</time>
  <course>317.82</course>
  <speed>3.64</speed>
  <fix>3d</fix>
</trkpt>
<trkpt lat="40.0712783" lon="-105.2270571">
  <ele>1583.0</ele>
  <time>2026-08-28T17:53:01Z</time>
  <course>317.95</course>
  <speed>4.034699493146919</speed>
  <fix>3d</fix>
</trkpt>
<trkpt lat="40.0712747" lon="-105.2270533">
  <ele>1583.0</ele>
  <time>2026-08-28T17:53:01Z</time>
  <course>317.35</course>
  <speed>3.88</speed>
  <fix>3d</fix>
</trkpt>
<trkpt lat="40.071281" lon="-105.2270605">
  <ele>1583.0</ele>
  <time>2026-08-28T17:53:01Z</time>
  <course>317.78</course>
  <speed>4.147119482243067</speed>
  <fix>3d</fix>
</trkpt>
<trkpt lat="40.0712747" lon="-105.2270533">
  <ele>1583.0</ele>
  <time>2026-08-28T17:53:01Z</time>
  <course>317.35</course>
  <speed>3.88</speed>
  <fix>3d</fix>
</trkpt>
<trkpt lat="40.0712837" lon="-105.2270639">
  <ele>1583.0</ele>
  <time>2026-08-28T17:53:01Z</time>
  <course>317.66</course>
  <speed>4.266954417380153</speed>
  <fix>3d</fix>
</trkpt>
<trkpt lat="40.07128" lon="-105.2270597">
  <ele>1583.0</ele>
  <time>2026-08-28T17:53:01Z</time>
  <course>317.01</course>
  <speed>4.11</speed>
  <fix>3d</fix>
</trkpt>
<trkpt lat="40.0712866" lon="-105.2270674">
  <ele>1583.0</ele>
  <time>2026-08-28T17:53:01Z</time>
  <course>317.54</course>
  <speed>4.379509104911189</speed>
  <fix>3d</fix>
</trkpt>
<trkpt lat="40.07128" lon="-105.2270597">
  <ele>1583.0</ele>
  <time>2026-08-28T17:53:01Z</time>
  <course>317.01</course>
  <speed>4.11</speed>
  <fix>3d</fix>
</trkpt>
<trkpt lat="40.0712895" lon="-105.227071">
  <ele>1583.0</ele>
  <time>2026-08-28T17:53:01Z</time>
  <course>317.42</course>
  <speed>4.492582776087715</speed>
  <fix>3d</fix>
</trkpt>
<trkpt lat="40.07128" lon="-105.2270597">
  <ele>1583.0</ele>
  <time>2026-08-28T17:53:01Z</time>
  <course>317.01</course>
  <speed>4.11</speed>
  <fix>3d</fix>
</trkpt>
<trkpt lat="40.0712925" lon="-105.2270747">
  <ele>1583.0</ele>
  <time>2026-08-28T17:53:01Z</time>
  <course>317.36</course>
  <speed>4.598369276167368</speed>
  <fix>3d</fix>
</trkpt>
<trkpt lat="40.0712855" lon="-105.2270665">
  <ele>1583.0</ele>
  <time>2026-08-28T17:53:01Z</time>
  <course>316.74</course>
  <speed>4.34</speed>
  <fix>3d</fix>
</trkpt>
<trkpt lat="40.0712955" lon="-105.2270784">
  <ele>1583.0</ele>
  <time>2026-08-28T17:53:01Z</time>
  <course>317.37</course>
  <speed>4.7114541279736555</speed>
  <fix>3d</fix>
</trkpt>
<trkpt lat="40.0712855" lon="-105.2270665">
  <ele>1583.0</ele>
  <time>2026-08-28T17:53:01Z</time>
  <course>316.74</course>
  <speed>4.34</speed>
  <fix>3d</fix>
</trkpt>
<trkpt lat="40.0712985" lon="-105.2270823">
  <ele>1583.01</ele>
  <time>2026-08-28T17:53:01Z</time>
  <course>317.5</course>
  <speed>4.81084192215874</speed>
  <fix>3d</fix>
</trkpt>
<trkpt lat="40.0712914" lon="-105.2270736">
  <ele>1583.0</ele>
  <time>2026-08-28T17:53:01Z</time>
  <course>316.6</course>
  <speed>4.56</speed>
  <fix>3d</fix>
</trkpt>
<trkpt lat="40.0713017" lon="-105.2270861">
  <ele>1583.01</ele>
  <time>2026-08-28T17:53:01Z</time>
  <course>317.74</course>
  <speed>4.9175705383857995</speed>
  <fix>3d</fix>
</trkpt>
<trkpt lat="40.0712914" lon="-105.2270736">
  <ele>1583.0</ele>
  <time>2026-08-28T17:53:01Z</time>
  <course>316.6</course>
  <speed>4.56</speed>
  <fix>3d</fix>
</trkpt>
<trkpt lat="40.0713049" lon="-105.2270901">
  <ele>1583.01</ele>
  <time>2026-08-28T17:53:01Z</time>
  <course>318.06</course>
  <speed>5.017579097532993</speed>
  <fix>3d</fix>
</trkpt>
<trkpt lat="40.0712975" lon="-105.2270811">
  <ele>1583.0</ele>
  <time>2026-08-28T17:53:01Z</time>
  <course>316.77</course>
  <speed>4.77</speed>
  <fix>3d</fix>
</trkpt>
<trkpt lat="40.0713083" lon="-105.2270941">
  <ele>1583.02</ele>
  <time>2026-08-28T17:53:01Z</time>
  <course>318.5</course>
  <speed>5.118368880805681</speed>
  <fix>3d</fix>
</trkpt>
<trkpt lat="40.0712975" lon="-105.2270811">
  <ele>1583.0</ele>
  <time>2026-08-28T17:53:01Z</time>
  <course>316.77</course>
  <speed>4.77</speed>
  <fix>3d</fix>
</trkpt>
<trkpt lat="40.0713117" lon="-105.2270981">
  <ele>1583.02</ele>
  <time>2026-08-28T17:53:01Z</time>
  <course>319.02</course>
  <speed>5.198653671865438</speed>
  <fix>3d</fix>
</trkpt>
<trkpt lat="40.0713039" lon="-105.2270889">
  <ele>1583.0</ele>
  <time>2026-08-28T17:53:01Z</time>
  <course>317.33</course>
  <speed>4.98</speed>
  <fix>3d</fix>
</trkpt>
<trkpt lat="40.0713152" lon="-105.2271021">
  <ele>1583.02</ele>
  <time>2026-08-28T17:53:01Z</time>
  <course>319.63</course>
  <speed>5.266165587977651</speed>
  <fix>3d</fix>
</trkpt>
<trkpt lat="40.0713106" lon="-105.2270969">
  <ele>1583.0</ele>
  <time>2026-08-28T17:53:01Z</time>
  <course>318.28</course>
  <speed>5.16</speed>
  <fix>3d</fix>
</trkpt>
<trkpt lat="40.0713188" lon="-105.2271062">
  <ele>1583.02</ele>
  <time>2026-08-28T17:53:01Z</time>
  <course>320.27</course>
  <speed>5.326734459309944</speed>
  <fix>3d</fix>
</trkpt>
<trkpt lat="40.0713106" lon="-105.2270969">
  <ele>1583.0</ele>
  <time>2026-08-28T17:53:01Z</time>
  <course>318.28</course>
  <speed>5.16</speed>
  <fix>3d</fix>
</trkpt>
<trkpt lat="40.0713224" lon="-105.2271102">
  <ele>1583.02</ele>
  <time>2026-08-28T17:53:01Z</time>
  <course>320.83</course>
  <speed>5.359636181682484</speed>
  <fix>3d</fix>
</trkpt>
<trkpt lat="40.0713176" lon="-105.227105">
  <ele>1583.0</ele>
  <time>2026-08-28T17:53:01Z</time>
  <course>319.44</course>
  <speed>5.29</speed>
  <fix>3d</fix>
</trkpt>
<trkpt lat="40.0713261" lon="-105.2271143">
  <ele>1583.02</ele>
  <time>2026-08-28T17:53:01Z</time>
  <course>321.31</course>
  <speed>5.3917065943910565</speed>
  <fix>3d</fix>
</trkpt>
<trkpt lat="40.0713176" lon="-105.227105">
  <ele>1583.0</ele>
  <time>2026-08-28T17:53:01Z</time>
  <course>319.44</course>
  <speed>5.29</speed>
  <fix>3d</fix>
</trkpt>
<trkpt lat="40.0713299" lon="-105.2271183">
  <ele>1583.03</ele>
  <time>2026-08-28T17:53:01Z</time>
  <course>321.7</course>
  <speed>5.41</speed>
  <fix>3d</fix>
</trkpt>
<trkpt lat="40.071325" lon="-105.2271131">
  <ele>1583.0</ele>
  <time>2026-08-28T17:53:01Z</time>
  <course>320.47</course>
  <speed>5.36</speed>
  <fix>3d</fix>
</trkpt>
<trkpt lat="40.0713337" lon="-105.2271223">
  <ele>1583.03</ele>
  <time>2026-08-28T17:53:01Z</time>
  <course>321.96</course>
  <speed>5.419261942368167</speed>
  <fix>3d</fix>
</trkpt>
<trkpt lat="40.071325" lon="-105.2271131">
  <ele>1583.0</ele>
  <time>2026-08-28T17:53:01Z</time>
  <course>320.47</course>
  <speed>5.36</speed>
  <fix>3d</fix>
</trkpt>
<trkpt lat="40.0713376" lon="-105.2271263">
  <ele>1583.03</ele>
  <time>2026-08-28T17:53:01Z</time>
  <course>322.18</course>
  <speed>5.414545225593744</speed>
  <fix>3d</fix>
</trkpt>
<trkpt lat="40.0713325" lon="-105.2271211">
  <ele>1583.0</ele>
  <time>2026-08-28T17:53:01Z</time>
  <course>321.14</course>
  <speed>5.39</speed>
  <fix>3d</fix>
</trkpt>
<trkpt lat="40.0713414" lon="-105.2271303">
  <ele>1583.02</ele>
  <time>2026-08-28T17:53:01Z</time>
  <course>322.38</course>
  <speed>5.402082931610733</speed>
  <fix>3d</fix>
</trkpt>
<trkpt lat="40.0713325" lon="-105.2271211">
  <ele>1583.0</ele>
  <time>2026-08-28T17:53:01Z</time>
  <course>321.14</course>
  <speed>5.39</speed>
  <fix>3d</fix>
</trkpt>
<trkpt lat="40.0713452" lon="-105.2271343">
  <ele>1583.02</ele>
  <time>2026-08-28T17:53:01Z</time>
  <course>322.52</course>
  <speed>5.389666037891402</speed>
  <fix>3d</fix>
</trkpt>
<trkpt lat="40.0713401" lon="-105.2271289">
  <ele>1583.0</ele>
  <time>2026-08-28T17:53:01Z</time>
  <course>321.54</course>
  <speed>5.38</speed>
  <fix>3d</fix>
</trkpt>
<trkpt lat="40.071349" lon="-105.2271382">
  <ele>1583.02</ele>
  <time>2026-08-28T17:53:01Z</time>
  <course>322.67</course>
  <speed>5.369431999755653</speed>
  <fix>3d</fix>
</trkpt>
<trkpt lat="40.0713401" lon="-105.2271289">
  <ele>1583.0</ele>
  <time>2026-08-28T17:53:01Z</time>
  <course>321.54</course>
  <speed>5.38</speed>
  <fix>3d</fix>
</trkpt>
<trkpt lat="40.0713528" lon="-105.2271421">
  <ele>1583.02</ele>
  <time>2026-08-28T17:53:01Z</time>
  <course>322.8</course>
  <speed>5.335175723441544</speed>
  <fix>3d</fix>
</trkpt>
<trkpt lat="40.0713476" lon="-105.2271368">
  <ele>1583.0</ele>
  <time>2026-08-28T17:53:01Z</time>
  <course>321.85</course>
  <speed>5.34</speed>
  <fix>3d</fix>
</trkpt>
<trkpt lat="40.0713566" lon="-105.2271459">
  <ele>1583.02</ele>
  <time>2026-08-28T17:53:01Z</time>
  <course>322.88</course>
  <speed>5.307099019238288</speed>
  <fix>3d</fix>
</trkpt>
<trkpt lat="40.0713476" lon="-105.2271368">
  <ele>1583.0</ele>
  <time>2026-08-28T17:53:01Z</time>
  <course>321.85</course>
  <speed>5.34</speed>
  <fix>3d</fix>
</trkpt>
<trkpt lat="40.0713603" lon="-105.2271498">
  <ele>1583.02</ele>
  <time>2026-08-28T17:53:01Z</time>
  <course>322.95</course>
  <speed>5.279024531104207</speed>
  <fix>3d</fix>
</trkpt>
<trkpt lat="40.0713552" lon="-105.2271445">
  <ele>1583.0</ele>
  <time>2026-08-28T17:53:01Z</time>
  <course>322.06</course>
  <speed>5.29</speed>
  <fix>3d</fix>
</trkpt>
<trkpt lat="40.071364" lon="-105.2271535">
  <ele>1583.02</ele>
  <time>2026-08-28T17:53:01Z</time>
  <course>323.01</course>
  <speed>5.236917031995065</speed>
  <fix>3d</fix>
</trkpt>
<trkpt lat="40.0713552" lon="-105.2271445">
  <ele>1583.0</ele>
  <time>2026-08-28T17:53:01Z</time>
  <course>322.06</course>
  <speed>5.29</speed>
  <fix>3d</fix>
</trkpt>
<trkpt lat="40.0713677" lon="-105.2271573">
  <ele>1583.03</ele>
  <time>2026-08-28T17:53:01Z</time>
  <course>323.01</course>
  <speed>5.208848241214174</speed>
  <fix>3d</fix>
</trkpt>
<trkpt lat="40.0713552" lon="-105.2271445">
  <ele>1583.0</ele>
  <time>2026-08-28T17:53:01Z</time>
  <course>322.06</course>
  <speed>5.29</speed>
  <fix>3d</fix>
</trkpt>
<trkpt lat="40.0713714" lon="-105.227161">
  <ele>1583.03</ele>
  <time>2026-08-28T17:53:01Z</time>
  <course>323.01</course>
  <speed>5.172890874549743</speed>
  <fix>3d</fix>
</trkpt>
<trkpt lat="40.0713626" lon="-105.2271521">
  <ele>1583.0</ele>
  <time>2026-08-28T17:53:01Z</time>
  <course>322.16</course>
  <speed>5.22</speed>
  <fix>3d</fix>
</trkpt>
<trkpt lat="40.071375" lon="-105.2271647">
  <ele>1583.03</ele>
  <time>2026-08-28T17:53:01Z</time>
  <course>323.01</course>
  <speed>5.136934883760938</speed>
  <fix>3d</fix>
</trkpt>
<trkpt lat="40.0713626" lon="-105.2271521">
  <ele>1583.0</ele>
  <time>2026-08-28T17:53:01Z</time>
  <course>322.16</course>
  <speed>5.22</speed>
  <fix>3d</fix>
</trkpt>
<trkpt lat="40.0713786" lon="-105.2271684">
  <ele>1583.03</ele>
  <time>2026-08-28T17:53:01Z</time>
  <course>323.01</course>
  <speed>5.10098029794274</speed>
  <fix>3d</fix>
</trkpt>
<trkpt lat="40.07137" lon="-105.2271595">
  <ele>1583.0</ele>
  <time>2026-08-28T17:53:01Z</time>
  <course>322.19</course>
  <speed>5.16</speed>
  <fix>3d</fix>
</trkpt>
<trkpt lat="40.0713822" lon="-105.227172">
  <ele>1583.03</ele>
  <time>2026-08-28T17:53:01Z</time>
  <course>323.01</course>
  <speed>5.072908435996061</speed>
  <fix>3d</fix>
</trkpt>
<trkpt lat="40.07137" lon="-105.2271595">
  <ele>1583.0</ele>
  <time>2026-08-28T17:53:01Z</time>
  <course>322.19</course>
  <speed>5.16</speed>
  <fix>3d</fix>
</trkpt>
<trkpt lat="40.0713857" lon="-105.2271756">
  <ele>1583.03</ele>
  <time>2026-08-28T17:53:01Z</time>
  <course>323.02</course>
  <speed>5.050990001969911</speed>
  <fix>3d</fix>
</trkpt>
<trkpt lat="40.0713773" lon="-105.227167">
  <ele>1583.0</ele>
  <time>2026-08-28T17:53:01Z</time>
  <course>322.19</course>
  <speed>5.1</speed>
  <fix>3d</fix>
</trkpt>
<trkpt lat="40.0713892" lon="-105.2271792">
  <ele>1583.03</ele>
  <time>2026-08-28T17:53:01Z</time>
  <course>322.99</course>
  <speed>5.015037387697125</speed>
  <fix>3d</fix>
</trkpt>
<trkpt lat="40.0713846" lon="-105.2271743">
  <ele>1583.0</ele>
  <time>2026-08-28T17:53:01Z</time>
  <course>322.18</course>
  <speed>5.05</speed>
  <fix>3d</fix>
</trkpt>
<trkpt lat="40.0713928" lon="-105.2271828">
  <ele>1583.03</ele>
  <time>2026-08-28T17:53:01Z</time>
  <course>322.96</course>
  <speed>4.993125273813987</speed>
  <fix>3d</fix>
</trkpt>
<trkpt lat="40.0713846" lon="-105.2271743">
  <ele>1583.0</ele>
  <time>2026-08-28T17:53:01Z</time>
  <course>322.18</course>
  <speed>5.05</speed>
  <fix>3d</fix>
</trkpt>
<trkpt lat="40.0713963" lon="-105.2271864">
  <ele>1583.03</ele>
  <time>2026-08-28T17:53:01Z</time>
  <course>322.94</course>
  <speed>4.979086261554423</speed>
  <fix>3d</fix>
</trkpt>
<trkpt lat="40.0713917" lon="-105.2271815">
  <ele>1583.0</ele>
  <time>2026-08-28T17:53:01Z</time>
  <course>322.13</course>
  <speed>5.01</speed>
  <fix>3d</fix>
</trkpt>
<trkpt lat="40.0713998" lon="-105.22719">
  <ele>1583.02</ele>
  <time>2026-08-28T17:53:01Z</time>
  <course>322.9</course>
  <speed>4.971217154782116</speed>
  <fix>3d</fix>
</trkpt>
<trkpt lat="40.0713917" lon="-105.2271815">
  <ele>1583.0</ele>
  <time>2026-08-28T17:53:01Z</time>
  <course>322.13</course>
  <speed>5.01</speed>
  <fix>3d</fix>
</trkpt>
<trkpt lat="40.0714033" lon="-105.2271935">
  <ele>1583.02</ele>
  <time>2026-08-28T17:53:01Z</time>
  <course>322.88</course>
  <speed>4.949313083651104</speed>
  <fix>3d</fix>
</trkpt>
<trkpt lat="40.0713988" lon="-105.2271887">
  <ele>1583.0</ele>
  <time>2026-08-28T17:53:01Z</time>
  <course>322.08</course>
  <speed>4.98</speed>
  <fix>3d</fix>
</trkpt>
<trkpt lat="40.0714068" lon="-105.2271971">
  <ele>1583.02</ele>
  <time>2026-08-28T17:53:01Z</time>
  <course>322.84</course>
  <speed>4.949313083651104</speed>
  <fix>3d</fix>
</trkpt>
<trkpt lat="40.0713988" lon="-105.2271887">
  <ele>1583.0</ele>
  <time>2026-08-28T17:53:01Z</time>
  <course>322.08</course>
  <speed>4.98</speed>
  <fix>3d</fix>
</trkpt>
<trkpt lat="40.0714104" lon="-105.2272007">
  <ele>1583.01</ele>
  <time>2026-08-28T17:53:01Z</time>
  <course>322.79</course>
  <speed>4.941457274934187</speed>
  <fix>3d</fix>
</trkpt>
<trkpt lat="40.0714058" lon="-105.2271959">
  <ele>1583.0</ele>
  <time>2026-08-28T17:53:01Z</time>
  <course>322.01</course>
  <speed>4.96</speed>
  <fix>3d</fix>
</trkpt>
<trkpt lat="40.0714139" lon="-105.2272044">
  <ele>1583.01</ele>
  <time>2026-08-28T17:53:01Z</time>
  <course>322.75</course>
  <speed>4.927413114403946</speed>
  <fix>3d</fix>
</trkpt>
<trkpt lat="40.0714058" lon="-105.2271959">
  <ele>1583.0</ele>
  <time>2026-08-28T17:53:01Z</time>
  <course>322.01</course>
  <speed>4.96</speed>
  <fix>3d</fix>
</trkpt>
<trkpt lat="40.0714174" lon="-105.227208">
  <ele>1583.0</ele>
  <time>2026-08-28T17:53:01Z</time>
  <course>322.71</course>
  <speed>4.927413114403946</speed>
  <fix>3d</fix>
</trkpt>
<trkpt lat="40.0714129" lon="-105.2272031">
  <ele>1583.0</ele>
  <time>2026-08-28T17:53:01Z</time>
  <course>321.92</course>
  <speed>4.95</speed>
  <fix>3d</fix>
</trkpt>
<trkpt lat="40.0714209" lon="-105.2272116">
  <ele>1583.0</ele>
  <time>2026-08-28T17:53:01Z</time>
  <course>322.64</course>
  <speed>4.925768975500171</speed>
  <fix>3d</fix>
</trkpt>
<trkpt lat="40.0714129" lon="-105.2272031">
  <ele>1583.0</ele>
  <time>2026-08-28T17:53:01Z</time>
  <course>321.92</course>
  <speed>4.95</speed>
  <fix>3d</fix>
</trkpt>
<trkpt lat="40.0714244" lon="-105.2272152">
  <ele>1583.0</ele>
  <time>2026-08-28T17:53:01Z</time>
  <course>322.6</course>
  <speed>4.925768975500171</speed>
  <fix>3d</fix>
</trkpt>
<trkpt lat="40.0714198" lon="-105.2272103">
  <ele>1583.0</ele>
  <time>2026-08-28T17:53:01Z</time>
  <course>321.82</course>
  <speed>4.94</speed>
  <fix>3d</fix>
</trkpt>
<trkpt lat="40.0714279" lon="-105.2272188">
  <ele>1583.0</ele>
  <time>2026-08-28T17:53:01Z</time>
  <course>322.53</course>
  <speed>4.925768975500171</speed>
  <fix>3d</fix>
</trkpt>
<trkpt lat="40.0714198" lon="-105.2272103">
  <ele>1583.0</ele>
  <time>2026-08-28T17:53:01Z</time>
  <course>321.82</course>
  <speed>4.94</speed>
  <fix>3d</fix>
</trkpt>
<trkpt lat="40.0714314" lon="-105.2272224">
  <ele>1583.0</ele>
  <time>2026-08-28T17:53:01Z</time>
  <course>322.5</course>
  <speed>4.931987429018854</speed>
  <fix>3d</fix>
</trkpt>
<trkpt lat="40.0714268" lon="-105.2272175">
  <ele>1583.0</ele>
  <time>2026-08-28T17:53:01Z</time>
  <course>321.72</course>
  <speed>4.95</speed>
  <fix>3d</fix>
</trkpt>
<trkpt lat="40.0714349" lon="-105.227226">
  <ele>1583.0</ele>
  <time>2026-08-28T17:53:01Z</time>
  <course>322.46</course>
  <speed>4.931987429018854</speed>
  <fix>3d</fix>
</trkpt>
<trkpt lat="40.0714268" lon="-105.2272175">
  <ele>1583.0</ele>
  <time>2026-08-28T17:53:01Z</time>
  <course>321.72</course>
  <speed>4.95</speed>
  <fix>3d</fix>
</trkpt>
<trkpt lat="40.0714384" lon="-105.2272296">
  <ele>1583.0</ele>
  <time>2026-08-28T17:53:01Z</time>
  <course>322.43</course>
  <speed>4.938218302181466</speed>
  <fix>3d</fix>
</trkpt>
<trkpt lat="40.0714268" lon="-105.2272175">
  <ele>1583.0</ele>
  <time>2026-08-28T17:53:01Z</time>
  <course>321.72</course>
  <speed>4.95</speed>
  <fix>3d</fix>
</trkpt>
<trkpt lat="40.0714419" lon="-105.2272332">
  <ele>1583.0</ele>
  <time>2026-08-28T17:53:01Z</time>
  <course>322.4</course>
  <speed>4.938218302181466</speed>
  <fix>3d</fix>
</trkpt>
<trkpt lat="40.0714337" lon="-105.2272246">
  <ele>1583.0</ele>
  <time>2026-08-28T17:53:01Z</time>
  <course>321.63</course>
  <speed>4.95</speed>
  <fix>3d</fix>
</trkpt>
<trkpt lat="40.0714453" lon="-105.2272368">
  <ele>1583.0</ele>
  <time>2026-08-28T17:53:01Z</time>
  <course>322.35</course>
  <speed>4.938218302181466</speed>
  <fix>3d</fix>
</trkpt>
<trkpt lat="40.0714337" lon="-105.2272246">
  <ele>1583.0</ele>
  <time>2026-08-28T17:53:01Z</time>
  <course>321.63</course>
  <speed>4.95</speed>
  <fix>3d</fix>
</trkpt>
<trkpt lat="40.0714488" lon="-105.2272404">
  <ele>1583.0</ele>
  <time>2026-08-28T17:53:01Z</time>
  <course>322.32</course>
  <speed>4.938218302181466</speed>
  <fix>3d</fix>
</trkpt>
<trkpt lat="40.0714408" lon="-105.2272319">
  <ele>1583.0</ele>
  <time>2026-08-28T17:53:01Z</time>
  <course>321.56</course>
  <speed>4.96</speed>
  <fix>3d</fix>
</trkpt>
<trkpt lat="40.0714522" lon="-105.227244">
  <ele>1583.0</ele>
  <time>2026-08-28T17:53:01Z</time>
  <course>322.27</course>
  <speed>4.9444615480353376</speed>
  <fix>3d</fix>
</trkpt>
<trkpt lat="40.0714408" lon="-105.2272319">
  <ele>1583.0</ele>
  <time>2026-08-28T17:53:01Z</time>
  <course>321.56</course>
  <speed>4.96</speed>
  <fix>3d</fix>
</trkpt>
<trkpt lat="40.0714557" lon="-105.2272476">
  <ele>1583.0</ele>
  <time>2026-08-28T17:53:01Z</time>
  <course>322.23</course>
  <speed>4.9444615480353376</speed>
  <fix>3d</fix>
</trkpt>
<trkpt lat="40.0714478" lon="-105.2272392">
  <ele>1583.0</ele>
  <time>2026-08-28T17:53:01Z</time>
  <course>321.47</course>
  <speed>4.97</speed>
  <fix>3d</fix>
</trkpt>
<trkpt lat="40.0714591" lon="-105.2272512">
  <ele>1583.01</ele>
  <time>2026-08-28T17:53:01Z</time>
  <course>322.21</course>
  <speed>4.95071711977164</speed>
  <fix>3d</fix>
</trkpt>
<trkpt lat="40.0714478" lon="-105.2272392">
  <ele>1583.0</ele>
  <time>2026-08-28T17:53:01Z</time>
  <course>321.47</course>
  <speed>4.97</speed>
  <fix>3d</fix>
</trkpt>
<trkpt lat="40.0714626" lon="-105.2272548">
  <ele>1583.01</ele>
  <time>2026-08-28T17:53:01Z</time>
  <course>322.14</course>
  <speed>4.95071711977164</speed>
  <fix>3d</fix>
</trkpt>
<trkpt lat="40.0714548" lon="-105.2272464">
  <ele>1583.0</ele>
  <time>2026-08-28T17:53:01Z</time>
  <course>321.4</course>
  <speed>4.98</speed>
  <fix>3d</fix>
</trkpt>
<trkpt lat="40.0714661" lon="-105.2272584">
  <ele>1583.01</ele>
  <time>2026-08-28T17:53:01Z</time>
  <course>322.11</course>
  <speed>4.964775926464355</speed>
  <fix>3d</fix>
</trkpt>
<trkpt lat="40.0714617" lon="-105.2272538">
  <ele>1583.0</ele>
  <time>2026-08-28T17:53:01Z</time>
  <course>321.32</course>
  <speed>4.99</speed>
  <fix>3d</fix>
</trkpt>
<trkpt lat="40.0714696" lon="-105.2272621">
  <ele>1583.01</ele>
  <time>2026-08-28T17:53:01Z</time>
  <course>322.07</course>
  <speed>4.964775926464355</speed>
  <fix>3d</fix>
</trkpt>
<trkpt lat="40.0714617" lon="-105.2272538">
  <ele>1583.0</ele>
  <time>2026-08-28T17:53:01Z</time>
  <course>321.32</course>
  <speed>4.99</speed>
  <fix>3d</fix>
</trkpt>
<trkpt lat="40.0714731" lon="-105.2272657">
  <ele>1583.01</ele>
  <time>2026-08-28T17:53:01Z</time>
  <course>322.05</course>
  <speed>4.971046167558696</speed>
  <fix>3d</fix>
</trkpt>
<trkpt lat="40.0714688" lon="-105.2272611">
  <ele>1583.0</ele>
  <time>2026-08-28T17:53:01Z</time>
  <course>321.24</course>
  <speed>5.01</speed>
  <fix>3d</fix>
</trkpt>
<trkpt lat="40.0714766" lon="-105.2272694">
  <ele>1583.01</ele>
  <time>2026-08-28T17:53:01Z</time>
  <course>322.03</course>
  <speed>4.978835205145878</speed>
  <fix>3d</fix>
</trkpt>
<trkpt lat="40.0714688" lon="-105.2272611">
  <ele>1583.0</ele>
  <time>2026-08-28T17:53:01Z</time>
  <course>321.24</course>
  <speed>5.01</speed>
  <fix>3d</fix>
</trkpt>
<trkpt lat="40.0714801" lon="-105.2272731">
  <ele>1583.01</ele>
  <time>2026-08-28T17:53:01Z</time>
  <course>321.98</course>
  <speed>4.985107822304348</speed>
  <fix>3d</fix>
</trkpt>
<trkpt lat="40.0714758" lon="-105.2272685">
  <ele>1583.0</ele>
  <time>2026-08-28T17:53:01Z</time>
  <course>321.16</course>
  <speed>5.02</speed>
  <fix>3d</fix>
</trkpt>
<trkpt lat="40.0714836" lon="-105.2272768">
  <ele>1583.01</ele>
  <time>2026-08-28T17:53:01Z</time>
  <course>321.97</course>
  <speed>4.985107822304348</speed>
  <fix>3d</fix>
</trkpt>
<trkpt lat="40.0714758" lon="-105.2272685">
  <ele>1583.0</ele>
  <time>2026-08-28T17:53:01Z</time>
  <course>321.16</course>
  <speed>5.02</speed>
  <fix>3d</fix>
</trkpt>
<trkpt lat="40.0714872" lon="-105.2272806">
  <ele>1583.01</ele>
  <time>2026-08-28T17:53:01Z</time>
  <course>321.93</course>
  <speed>4.991392591251463</speed>
  <fix>3d</fix>
</trkpt>
<trkpt lat="40.0714829" lon="-105.2272759">
  <ele>1583.0</ele>
  <time>2026-08-28T17:53:01Z</time>
  <course>321.09</course>
  <speed>5.02</speed>
  <fix>3d</fix>
</trkpt>
<trkpt lat="40.0714908" lon="-105.2272843">
  <ele>1583.01</ele>
  <time>2026-08-28T17:53:01Z</time>
  <course>321.89</course>
  <speed>4.999169931098562</speed>
  <fix>3d</fix>
</trkpt>
<trkpt lat="40.0714829" lon="-105.2272759">
  <ele>1583.0</ele>
  <time>2026-08-28T17:53:01Z</time>
  <course>321.09</course>
  <speed>5.02</speed>
  <fix>3d</fix>
</trkpt>
<trkpt lat="40.0714943" lon="-105.227288">
  <ele>1583.01</ele>
  <time>2026-08-28T17:53:01Z</time>
  <course>321.88</course>
  <speed>4.999169931098562</speed>
  <fix>3d</fix>
</trkpt>
<trkpt lat="40.0714899" lon="-105.2272832">
  <ele>1583.0</ele>
  <time>2026-08-28T17:53:01Z</time>
  <course>321.04</course>
  <speed>5.03</speed>
  <fix>3d</fix>
</trkpt>
<trkpt lat="40.0714978" lon="-105.2272918">
  <ele>1583.01</ele>
  <time>2026-08-28T17:53:01Z</time>
  <course>321.83</course>
  <speed>5.00545702209099</speed>
  <fix>3d</fix>
</trkpt>
<trkpt lat="40.0714899" lon="-105.2272832">
  <ele>1583.0</ele>
  <time>2026-08-28T17:53:01Z</time>
  <course>321.04</course>
  <speed>5.03</speed>
  <fix>3d</fix>
</trkpt>
<trkpt lat="40.0715014" lon="-105.2272955">
  <ele>1583.01</ele>
  <time>2026-08-28T17:53:01Z</time>
  <course>321.8</course>
  <speed>5.00545702209099</speed>
  <fix>3d</fix>
</trkpt>
<trkpt lat="40.0714969" lon="-105.2272907">
  <ele>1583.0</ele>
  <time>2026-08-28T17:53:01Z</time>
  <course>320.97</course>
  <speed>5.04</speed>
  <fix>3d</fix>
</trkpt>
<trkpt lat="40.0715049" lon="-105.2272993">
  <ele>1583.02</ele>
  <time>2026-08-28T17:53:01Z</time>
  <course>321.78</course>
  <speed>5.00545702209099</speed>
  <fix>3d</fix>
</trkpt>
<trkpt lat="40.0714969" lon="-105.2272907">
  <ele>1583.0</ele>
  <time>2026-08-28T17:53:01Z</time>
  <course>320.97</course>
  <speed>5.04</speed>
  <fix>3d</fix>
</trkpt>
<trkpt lat="40.0715085" lon="-105.227303">
  <ele>1583.02</ele>
  <time>2026-08-28T17:53:01Z</time>
  <course>321.74</course>
  <speed>5.011756179225003</speed>
  <fix>3d</fix>
</trkpt>
<trkpt lat="40.071504" lon="-105.2272982">
  <ele>1583.0</ele>
  <time>2026-08-28T17:53:01Z</time>
  <course>320.9</course>
  <speed>5.04</speed>
  <fix>3d</fix>
</trkpt>
<trkpt lat="40.071512" lon="-105.2273067">
  <ele>1583.02</ele>
  <time>2026-08-28T17:53:01Z</time>
  <course>321.72</course>
  <speed>5.011756179225003</speed>
  <fix>3d</fix>
</trkpt>
<trkpt lat="40.071504" lon="-105.2272982">
  <ele>1583.0</ele>
  <time>2026-08-28T17:53:01Z</time>
  <course>320.9</course>
  <speed>5.04</speed>
  <fix>3d</fix>
</trkpt>
<trkpt lat="40.0715155" lon="-105.2273105">
  <ele>1583.02</ele>
  <time>2026-08-28T17:53:01Z</time>
  <course>321.71</course>
  <speed>5.011756179225003</speed>
  <fix>3d</fix>
</trkpt>
<trkpt lat="40.071504" lon="-105.2272982">
  <ele>1583.0</ele>
  <time>2026-08-28T17:53:01Z</time>
  <course>320.9</course>
  <speed>5.04</speed>
  <fix>3d</fix>
</trkpt>
<trkpt lat="40.071519" lon="-105.2273142">
  <ele>1583.02</ele>
  <time>2026-08-28T17:53:01Z</time>
  <course>321.67</course>
  <speed>5.011756179225003</speed>
  <fix>3d</fix>
</trkpt>
<trkpt lat="40.071511" lon="-105.2273057">
  <ele>1583.0</ele>
  <time>2026-08-28T17:53:01Z</time>
  <course>320.84</course>
  <speed>5.04</speed>
  <fix>3d</fix>
</trkpt>
<trkpt lat="40.0715225" lon="-105.2273179">
  <ele>1583.02</ele>
  <time>2026-08-28T17:53:01Z</time>
  <course>321.63</course>
  <speed>5.0039984012787215</speed>
  <fix>3d</fix>
</trkpt>
<trkpt lat="40.071511" lon="-105.2273057">
  <ele>1583.0</ele>
  <time>2026-08-28T17:53:01Z</time>
  <course>320.84</course>
  <speed>5.04</speed>
  <fix>3d</fix>
</trkpt>
<trkpt lat="40.071526" lon="-105.2273216">
  <ele>1583.02</ele>
  <time>2026-08-28T17:53:01Z</time>
  <course>321.62</course>
  <speed>5.0039984012787215</speed>
  <fix>3d</fix>
</trkpt>
<trkpt lat="40.071518" lon="-105.2273132">
  <ele>1583.0</ele>
  <time>2026-08-28T17:53:01Z</time>
  <course>320.78</course>
  <speed>5.04</speed>
  <fix>3d</fix>
</trkpt>
<trkpt lat="40.0715295" lon="-105.2273253">
  <ele>1583.02</ele>
  <time>2026-08-28T17:53:01Z</time>
  <course>321.6</course>
  <speed>5.0039984012787215</speed>
  <fix>3d</fix>
</trkpt>
<trkpt lat="40.071518" lon="-105.2273132">
  <ele>1583.0</ele>
  <time>2026-08-28T17:53:01Z</time>
  <course>320.78</course>
  <speed>5.04</speed>
  <fix>3d</fix>
</trkpt>
<trkpt lat="40.071533" lon="-105.227329">
  <ele>1583.02</ele>
  <time>2026-08-28T17:53:01Z</time>
  <course>321.56</course>
  <speed>4.9962485926943225</speed>
  <fix>3d</fix>
</trkpt>
<trkpt lat="40.071525" lon="-105.2273206">
  <ele>1583.0</ele>
  <time>2026-08-28T17:53:01Z</time>
  <course>320.72</course>
  <speed>5.03</speed>
  <fix>3d</fix>
</trkpt>
<trkpt lat="40.0715364" lon="-105.2273328">
  <ele>1583.02</ele>
  <time>2026-08-28T17:53:01Z</time>
  <course>321.56</course>
  <speed>4.9962485926943225</speed>
  <fix>3d</fix>
</trkpt>
<trkpt lat="40.0715321" lon="-105.2273281">
  <ele>1583.0</ele>
  <time>2026-08-28T17:53:01Z</time>
  <course>320.68</course>
  <speed>5.03</speed>
  <fix>3d</fix>
</trkpt>
<trkpt lat="40.0715399" lon="-105.2273365">
  <ele>1583.02</ele>
  <time>2026-08-28T17:53:01Z</time>
  <course>321.54</course>
  <speed>4.9962485926943225</speed>
  <fix>3d</fix>
</trkpt>
<trkpt lat="40.0715321" lon="-105.2273281">
  <ele>1583.0</ele>
  <time>2026-08-28T17:53:01Z</time>
  <course>320.68</course>
  <speed>5.03</speed>
  <fix>3d</fix>
</trkpt>
<trkpt lat="40.0715434" lon="-105.2273402">
  <ele>1583.02</ele>
  <time>2026-08-28T17:53:01Z</time>
  <course>321.54</course>
  <speed>4.9962485926943225</speed>
  <fix>3d</fix>
</trkpt>
<trkpt lat="40.071539" lon="-105.2273356">
  <ele>1583.0</ele>
  <time>2026-08-28T17:53:01Z</time>
  <course>320.64</course>
  <speed>5.03</speed>
  <fix>3d</fix>
</trkpt>
<trkpt lat="40.0715469" lon="-105.227344">
  <ele>1583.02</ele>
  <time>2026-08-28T17:53:01Z</time>
  <course>321.61</course>
  <speed>4.9976894661433295</speed>
  <fix>3d</fix>
</trkpt>
<trkpt lat="40.071539" lon="-105.2273356">
  <ele>1583.0</ele>
  <time>2026-08-28T17:53:01Z</time>
  <course>320.64</course>
  <speed>5.03</speed>
  <fix>3d</fix>
</trkpt>
<trkpt lat="40.0715504" lon="-105.2273477">
  <ele>1583.02</ele>
  <time>2026-08-28T17:53:01Z</time>
  <course>321.79</course>
  <speed>4.999169931098562</speed>
  <fix>3d</fix>
</trkpt>
<trkpt lat="40.071546" lon="-105.2273431">
  <ele>1583.0</ele>
  <time>2026-08-28T17:53:01Z</time>
  <course>320.75</course>
  <speed>5.03</speed>
  <fix>3d</fix>
</trkpt>
<trkpt lat="40.071554" lon="-105.2273514">
  <ele>1583.02</ele>
  <time>2026-08-28T17:53:01Z</time>
  <course>322.07</course>
  <speed>4.994436905197622</speed>
  <fix>3d</fix>
</trkpt>
<trkpt lat="40.071546" lon="-105.2273431">
  <ele>1583.0</ele>
  <time>2026-08-28T17:53:01Z</time>
  <course>320.75</course>
  <speed>5.03</speed>
  <fix>3d</fix>
</trkpt>
<trkpt lat="40.0715575" lon="-105.2273551">
  <ele>1583.02</ele>
  <time>2026-08-28T17:53:01Z</time>
  <course>322.44</course>
  <speed>4.991442677222689</speed>
  <fix>3d</fix>
</trkpt>
<trkpt lat="40.071553" lon="-105.2273506">
  <ele>1583.0</ele>
  <time>2026-08-28T17:53:01Z</time>
  <course>321.2</course>
  <speed>5.03</speed>
  <fix>3d</fix>
</trkpt>
<trkpt lat="40.0715611" lon="-105.2273588">
  <ele>1583.02</ele>
  <time>2026-08-28T17:53:01Z</time>
  <course>322.91</course>
  <speed>4.996608850010174</speed>
  <fix>3d</fix>
</trkpt>
<trkpt lat="40.071553" lon="-105.2273506">
  <ele>1583.0</ele>
  <time>2026-08-28T17:53:01Z</time>
  <course>321.2</course>
  <speed>5.03</speed>
  <fix>3d</fix>
</trkpt>
<trkpt lat="40.0715647" lon="-105.2273624">
  <ele>1583.02</ele>
  <time>2026-08-28T17:53:01Z</time>
  <course>323.49</course>
  <speed>4.996078462154092</speed>
  <fix>3d</fix>
</trkpt>
<trkpt lat="40.0715601" lon="-105.2273579">
  <ele>1583.0</ele>
  <time>2026-08-28T17:53:01Z</time>
  <course>322.04</course>
  <speed>5.03</speed>
  <fix>3d</fix>
</trkpt>
<trkpt lat="40.0715684" lon="-105.227366">
  <ele>1583.02</ele>
  <time>2026-08-28T17:53:01Z</time>
  <course>324.14</course>
  <speed>4.990090179545857</speed>
  <fix>3d</fix>
</trkpt>
<trkpt lat="40.0715601" lon="-105.2273579">
  <ele>1583.0</ele>
  <time>2026-08-28T17:53:01Z</time>
  <course>322.04</course>
  <speed>5.03</speed>
  <fix>3d</fix>
</trkpt>
<trkpt lat="40.071572" lon="-105.2273695">
  <ele>1583.02</ele>
  <time>2026-08-28T17:53:01Z</time>
  <course>324.92</course>
  <speed>4.9870432121649</speed>
  <fix>3d</fix>
</trkpt>
<trkpt lat="40.0715673" lon="-105.227365">
  <ele>1583.0</ele>
  <time>2026-08-28T17:53:01Z</time>
  <course>323.27</course>
  <speed>5.02</speed>
  <fix>3d</fix>
</trkpt>
<trkpt lat="40.0715757" lon="-105.2273729">
  <ele>1583.02</ele>
  <time>2026-08-28T17:53:01Z</time>
  <course>325.8</course>
  <speed>4.993245437588663</speed>
  <fix>3d</fix>
</trkpt>
<trkpt lat="40.0715673" lon="-105.227365">
  <ele>1583.0</ele>
  <time>2026-08-28T17:53:01Z</time>
  <course>323.27</course>
  <speed>5.02</speed>
  <fix>3d</fix>
</trkpt>
<trkpt lat="40.0715794" lon="-105.2273763">
  <ele>1583.02</ele>
  <time>2026-08-28T17:53:01Z</time>
  <course>326.68</course>
  <speed>4.986782529848279</speed>
  <fix>3d</fix>
</trkpt>
<trkpt lat="40.0715746" lon="-105.227372">
  <ele>1583.0</ele>
  <time>2026-08-28T17:53:01Z</time>
  <course>324.86</course>
  <speed>5.02</speed>
  <fix>3d</fix>
</trkpt>
<trkpt lat="40.0715832" lon="-105.2273796">
  <ele>1583.02</ele>
  <time>2026-08-28T17:53:01Z</time>
  <course>327.46</course>
  <speed>4.992524411557744</speed>
  <fix>3d</fix>
</trkpt>
<trkpt lat="40.0715746" lon="-105.227372">
  <ele>1583.0</ele>
  <time>2026-08-28T17:53:01Z</time>
  <course>324.86</course>
  <speed>5.02</speed>
  <fix>3d</fix>
</trkpt>
<trkpt lat="40.071587" lon="-105.2273828">
  <ele>1583.01</ele>
  <time>2026-08-28T17:53:01Z</time>
  <course>328.13</course>
  <speed>4.9906412413636785</speed>
  <fix>3d</fix>
</trkpt>
<trkpt lat="40.0715746" lon="-105.227372">
  <ele>1583.0</ele>
  <time>2026-08-28T17:53:01Z</time>
  <course>324.86</course>
  <speed>5.02</speed>
  <fix>3d</fix>
</trkpt>
<trkpt lat="40.0715908" lon="-105.2273859">
  <ele>1583.01</ele>
  <time>2026-08-28T17:53:01Z</time>
  <course>328.71</course>
  <speed>4.989438846203047</speed>
  <fix>3d</fix>
</trkpt>
<trkpt lat="40.0715821" lon="-105.2273787">
  <ele>1583.0</ele>
  <time>2026-08-28T17:53:01Z</time>
  <course>326.47</course>
  <speed>5.02</speed>
  <fix>3d</fix>
</trkpt>
<trkpt lat="40.0715946" lon="-105.227389">
  <ele>1583.01</ele>
  <time>2026-08-28T17:53:01Z</time>
  <course>329.17</course>
  <speed>4.990751446425678</speed>
  <fix>3d</fix>
</trkpt>
<trkpt lat="40.0715821" lon="-105.2273787">
  <ele>1583.0</ele>
  <time>2026-08-28T17:53:01Z</time>
  <course>326.47</course>
  <speed>5.02</speed>
  <fix>3d</fix>
</trkpt>
<trkpt lat="40.0715985" lon="-105.227392">
  <ele>1583.01</ele>
  <time>2026-08-28T17:53:01Z</time>
  <course>329.54</course>
  <speed>4.992324108068305</speed>
  <fix>3d</fix>
</trkpt>
<trkpt lat="40.0715896" lon="-105.2273851">
  <ele>1583.0</ele>
  <time>2026-08-28T17:53:01Z</time>
  <course>327.71</course>
  <speed>5.02</speed>
  <fix>3d</fix>
</trkpt>
<trkpt lat="40.0716023" lon="-105.227395">
  <ele>1583.02</ele>
  <time>2026-08-28T17:53:01Z</time>
  <course>329.82</course>
  <speed>4.99065126010624</speed>
  <fix>3d</fix>
</trkpt>
<trkpt lat="40.0715896" lon="-105.2273851">
  <ele>1583.0</ele>
  <time>2026-08-28T17:53:01Z</time>
  <course>327.71</course>
  <speed>5.02</speed>
  <fix>3d</fix>
</trkpt>
<trkpt lat="40.0716061" lon="-105.227398">
  <ele>1583.02</ele>
  <time>2026-08-28T17:53:01Z</time>
  <course>330.0</course>
  <speed>4.989078071147013</speed>
  <fix>3d</fix>
</trkpt>
<trkpt lat="40.0715973" lon="-105.2273913">
  <ele>1583.0</ele>
  <time>2026-08-28T17:53:01Z</time>
  <course>328.55</course>
  <speed>5.02</speed>
  <fix>3d</fix>
</trkpt>
<trkpt lat="40.07161" lon="-105.227401">
  <ele>1583.02</ele>
  <time>2026-08-28T17:53:01Z</time>
  <course>330.08</course>
  <speed>4.984014446206993</speed>
  <fix>3d</fix>
</trkpt>
<trkpt lat="40.0716051" lon="-105.2273974">
  <ele>1583.0</ele>
  <time>2026-08-28T17:53:01Z</time>
  <course>328.99</course>
  <speed>5.02</speed>
  <fix>3d</fix>
</trkpt>
<trkpt lat="40.0716139" lon="-105.227404">
  <ele>1583.02</ele>
  <time>2026-08-28T17:53:01Z</time>
  <course>330.08</course>
  <speed>4.984014446206993</speed>
  <fix>3d</fix>
</trkpt>
<trkpt lat="40.0716051" lon="-105.2273974">
  <ele>1583.0</ele>
  <time>2026-08-28T17:53:01Z</time>
  <course>328.99</course>
  <speed>5.02</speed>
  <fix>3d</fix>
</trkpt>
<trkpt lat="40.0716178" lon="-105.227407">
  <ele>1583.02</ele>
  <time>2026-08-28T17:53:01Z</time>
  <course>330.03</course>
  <speed>4.989078071147013</speed>
  <fix>3d</fix>
</trkpt>
<trkpt lat="40.0716128" lon="-105.2274035">
  <ele>1583.0</ele>
  <time>2026-08-28T17:53:01Z</time>
  <course>329.1</course>
  <speed>5.02</speed>
  <fix>3d</fix>
</trkpt>
<trkpt lat="40.0716216" lon="-105.22741">
  <ele>1583.02</ele>
  <time>2026-08-28T17:53:01Z</time>
  <course>329.87</course>
  <speed>4.985549117198627</speed>
  <fix>3d</fix>
</trkpt>
<trkpt lat="40.0716128" lon="-105.2274035">
  <ele>1583.0</ele>
  <time>2026-08-28T17:53:01Z</time>
  <course>329.1</course>
  <speed>5.02</speed>
  <fix>3d</fix>
</trkpt>
<trkpt lat="40.0716255" lon="-105.2274131">
  <ele>1583.01</ele>
  <time>2026-08-28T17:53:01Z</time>
  <course>329.61</course>
  <speed>4.995768209194658</speed>
  <fix>3d</fix>
</trkpt>
<trkpt lat="40.0716206" lon="-105.2274095">
  <ele>1583.0</ele>
  <time>2026-08-28T17:53:01Z</time>
  <course>328.86</course>
  <speed>5.03</speed>
  <fix>3d</fix>
</trkpt>
<trkpt lat="40.0716294" lon="-105.2274162">
  <ele>1583.01</ele>
  <time>2026-08-28T17:53:01Z</time>
  <course>329.24</course>
  <speed>4.994096514886351</speed>
  <fix>3d</fix>
</trkpt>
<trkpt lat="40.0716206" lon="-105.2274095">
  <ele>1583.0</ele>
  <time>2026-08-28T17:53:01Z</time>
  <course>328.86</course>
  <speed>5.03</speed>
  <fix>3d</fix>
</trkpt>
<trkpt lat="40.0716332" lon="-105.2274193">
  <ele>1583.01</ele>
  <time>2026-08-28T17:53:01Z</time>
  <course>328.78</course>
  <speed>4.9979395754650735</speed>
  <fix>3d</fix>
</trkpt>
<trkpt lat="40.0716283" lon="-105.2274157">
  <ele>1583.0</ele>
  <time>2026-08-28T17:53:01Z</time>
  <course>328.23</course>
  <speed>5.03</speed>
  <fix>3d</fix>
</trkpt>
<trkpt lat="40.0716371" lon="-105.2274225">
  <ele>1583.01</ele>
  <time>2026-08-28T17:53:01Z</time>
  <course>328.2</course>
  <speed>5.002179524967092</speed>
  <fix>3d</fix>
</trkpt>
<trkpt lat="40.0716283" lon="-105.2274157">
  <ele>1583.0</ele>
  <time>2026-08-28T17:53:01Z</time>
  <course>328.23</course>
  <speed>5.03</speed>
  <fix>3d</fix>
</trkpt>
<trkpt lat="40.0716409" lon="-105.2274258">
  <ele>1583.01</ele>
  <time>2026-08-28T17:53:01Z</time>
  <course>327.53</course>
  <speed>4.9954479278639266</speed>
  <fix>3d</fix>
</trkpt>
<trkpt lat="40.0716358" lon="-105.227422">
  <ele>1583.0</ele>
  <time>2026-08-28T17:53:01Z</time>
  <course>327.19</course>
  <speed>5.03</speed>
  <fix>3d</fix>
</trkpt>
<trkpt lat="40.0716447" lon="-105.2274291">
  <ele>1583.01</ele>
  <time>2026-08-28T17:53:01Z</time>
  <course>326.76</course>
  <speed>5.003398844785412</speed>
  <fix>3d</fix>
</trkpt>
<trkpt lat="40.0716358" lon="-105.227422">
  <ele>1583.0</ele>
  <time>2026-08-28T17:53:01Z</time>
  <course>327.19</course>
  <speed>5.03</speed>
  <fix>3d</fix>
</trkpt>
<trkpt lat="40.0716484" lon="-105.2274325">
  <ele>1583.01</ele>
  <time>2026-08-28T17:53:01Z</time>
  <course>325.9</course>
  <speed>5.0039984012787215</speed>
  <fix>3d</fix>
</trkpt>
<trkpt lat="40.0716434" lon="-105.2274285">
  <ele>1583.0</ele>
  <time>2026-08-28T17:53:01Z</time>
  <course>325.76</course>
  <speed>5.02</speed>
  <fix>3d</fix>
</trkpt>
<trkpt lat="40.0716521" lon="-105.2274359">
  <ele>1583.01</ele>
  <time>2026-08-28T17:53:01Z</time>
  <course>324.93</course>
  <speed>5.0091216794963165</speed>
  <fix>3d</fix>
</trkpt>
<trkpt lat="40.0716434" lon="-105.2274285">
  <ele>1583.0</ele>
  <time>2026-08-28T17:53:01Z</time>
  <course>325.76</course>
  <speed>5.02</speed>
  <fix>3d</fix>
</trkpt>
<trkpt lat="40.0716558" lon="-105.2274395">
  <ele>1583.02</ele>
  <time>2026-08-28T17:53:01Z</time>
  <course>323.92</course>
  <speed>5.002019592124765</speed>
  <fix>3d</fix>
</trkpt>
<trkpt lat="40.0716508" lon="-105.2274353">
  <ele>1583.0</ele>
  <time>2026-08-28T17:53:01Z</time>
  <course>323.95</course>
  <speed>5.02</speed>
  <fix>3d</fix>
</trkpt>
<trkpt lat="40.0716593" lon="-105.2274431">
  <ele>1583.01</ele>
  <time>2026-08-28T17:53:01Z</time>
  <course>322.97</course>
  <speed>5.004517958804824</speed>
  <fix>3d</fix>
</trkpt>
<trkpt lat="40.0716508" lon="-105.2274353">
  <ele>1583.0</ele>
  <time>2026-08-28T17:53:01Z</time>
  <course>323.95</course>
  <speed>5.02</speed>
  <fix>3d</fix>
</trkpt>
<trkpt lat="40.0716629" lon="-105.2274468">
  <ele>1583.01</ele>
  <time>2026-08-28T17:53:01Z</time>
  <course>321.99</course>
  <speed>5.008492787256461</speed>
  <fix>3d</fix>
</trkpt>
<trkpt lat="40.0716508" lon="-105.2274353">
  <ele>1583.0</ele>
  <time>2026-08-28T17:53:01Z</time>
  <course>323.95</course>
  <speed>5.02</speed>
  <fix>3d</fix>
</trkpt>
<trkpt lat="40.0716663" lon="-105.2274506">
  <ele>1583.01</ele>
  <time>2026-08-28T17:53:01Z</time>
  <course>321.04</course>
  <speed>4.999859998039945</speed>
  <fix>3d</fix>
</trkpt>
<trkpt lat="40.071658" lon="-105.2274424">
  <ele>1583.0</ele>
  <time>2026-08-28T17:53:01Z</time>
  <course>321.99</course>
  <speed>5.02</speed>
  <fix>3d</fix>
</trkpt>
<trkpt lat="40.0716698" lon="-105.2274544">
  <ele>1583.01</ele>
  <time>2026-08-28T17:53:01Z</time>
  <course>320.08</course>
  <speed>5.000249993750312</speed>
  <fix>3d</fix>
</trkpt>
<trkpt lat="40.071658" lon="-105.2274424">
  <ele>1583.0</ele>
  <time>2026-08-28T17:53:01Z</time>
  <course>321.99</course>
  <speed>5.02</speed>
  <fix>3d</fix>
</trkpt>
<trkpt lat="40.0716731" lon="-105.2274583">
  <ele>1583.01</ele>
  <time>2026-08-28T17:53:01Z</time>
  <course>319.11</course>
  <speed>5.000999900019995</speed>
  <fix>3d</fix>
</trkpt>
<trkpt lat="40.0716651" lon="-105.2274499">
  <ele>1583.0</ele>
  <time>2026-08-28T17:53:01Z</time>
  <course>320.06</course>
  <speed>5.01</speed>
  <fix>3d</fix>
</trkpt>
<trkpt lat="40.0716764" lon="-105.2274623">
  <ele>1583.01</ele>
  <time>2026-08-28T17:53:01Z</time>
  <course>318.16</course>
  <speed>4.996678897027505</speed>
  <fix>3d</fix>
</trkpt>
<trkpt lat="40.0716651" lon="-105.2274499">
  <ele>1583.0</ele>
  <time>2026-08-28T17:53:01Z</time>
  <course>320.06</course>
  <speed>5.01</speed>
  <fix>3d</fix>
</trkpt>
<trkpt lat="40.0716796" lon="-105.2274663">
  <ele>1583.01</ele>
  <time>2026-08-28T17:53:01Z</time>
  <course>317.19</course>
  <speed>4.993796151226039</speed>
  <fix>3d</fix>
</trkpt>
<trkpt lat="40.0716719" lon="-105.2274575">
  <ele>1583.0</ele>
  <time>2026-08-28T17:53:01Z</time>
  <course>318.14</course>
  <speed>5.01</speed>
  <fix>3d</fix>
</trkpt>
<trkpt lat="40.0716828" lon="-105.2274704">
  <ele>1583.01</ele>
  <time>2026-08-28T17:53:01Z</time>
  <course>316.21</course>
  <speed>4.992354154104054</speed>
  <fix>3d</fix>
</trkpt>
<trkpt lat="40.0716719" lon="-105.2274575">
  <ele>1583.0</ele>
  <time>2026-08-28T17:53:01Z</time>
  <course>318.14</course>
  <speed>5.01</speed>
  <fix>3d</fix>
</trkpt>
<trkpt lat="40.071686" lon="-105.2274746">
  <ele>1583.01</ele>
  <time>2026-08-28T17:53:01Z</time>
  <course>315.24</course>
  <speed>4.985348533452802</speed>
  <fix>3d</fix>
</trkpt>
<trkpt lat="40.0716785" lon="-105.2274655">
  <ele>1583.0</ele>
  <time>2026-08-28T17:53:01Z</time>
  <course>316.2</course>
  <speed>5.01</speed>
  <fix>3d</fix>
</trkpt>
<trkpt lat="40.071689" lon="-105.2274788">
  <ele>1583.01</ele>
  <time>2026-08-28T17:53:01Z</time>
  <course>314.29</course>
  <speed>4.9869128727099294</speed>
  <fix>3d</fix>
</trkpt>
<trkpt lat="40.0716849" lon="-105.2274739">
  <ele>1583.0</ele>
  <time>2026-08-28T17:53:01Z</time>
  <course>314.27</course>
  <speed>5.01</speed>
  <fix>3d</fix>
</trkpt>
<trkpt lat="40.0716921" lon="-105.2274832">
  <ele>1583.0</ele>
  <time>2026-08-28T17:53:01Z</time>
  <course>313.33</course>
  <speed>4.989919839035493</speed>
  <fix>3d</fix>
</trkpt>
<trkpt lat="40.0716849" lon="-105.2274739">
  <ele>1583.0</ele>
  <time>2026-08-28T17:53:01Z</time>
  <course>314.27</course>
  <speed>5.01</speed>
  <fix>3d</fix>
</trkpt>
<trkpt lat="40.071695" lon="-105.2274876">
  <ele>1583.0</ele>
  <time>2026-08-28T17:53:01Z</time>
  <course>312.36</course>
  <speed>4.994366826735898</speed>
  <fix>3d</fix>
</trkpt>
<trkpt lat="40.071691" lon="-105.2274824">
  <ele>1583.0</ele>
  <time>2026-08-28T17:53:01Z</time>
  <course>312.34</course>
  <speed>5.01</speed>
  <fix>3d</fix>
</trkpt>
<trkpt lat="40.071698" lon="-105.2274921">
  <ele>1583.01</ele>
  <time>2026-08-28T17:53:01Z</time>
  <course>311.36</course>
  <speed>4.993756101372994</speed>
  <fix>3d</fix>
</trkpt>
<trkpt lat="40.071691" lon="-105.2274824">
  <ele>1583.0</ele>
  <time>2026-08-28T17:53:01Z</time>
  <course>312.34</course>
  <speed>5.01</speed>
  <fix>3d</fix>
</trkpt>
<trkpt lat="40.0717008" lon="-105.2274966">
  <ele>1583.01</ele>
  <time>2026-08-28T17:53:01Z</time>
  <course>310.41</course>
  <speed>4.98712341936712</speed>
  <fix>3d</fix>
</trkpt>
<trkpt lat="40.071697" lon="-105.2274913">
  <ele>1583.0</ele>
  <time>2026-08-28T17:53:01Z</time>
  <course>310.39</course>
  <speed>5.01</speed>
  <fix>3d</fix>
</trkpt>
<trkpt lat="40.0717037" lon="-105.2275013">
  <ele>1583.01</ele>
  <time>2026-08-28T17:53:01Z</time>
  <course>309.48</course>
  <speed>4.996018414697848</speed>
  <fix>3d</fix>
</trkpt>
<trkpt lat="40.071697" lon="-105.2274913">
  <ele>1583.0</ele>
  <time>2026-08-28T17:53:01Z</time>
  <course>310.39</course>
  <speed>5.01</speed>
  <fix>3d</fix>
</trkpt>
<trkpt lat="40.0717065" lon="-105.227506">
  <ele>1583.01</ele>
  <time>2026-08-28T17:53:01Z</time>
  <course>308.62</course>
  <speed>4.998409747109574</speed>
  <fix>3d</fix>
</trkpt>
<trkpt lat="40.0717027" lon="-105.2275004">
  <ele>1583.0</ele>
  <time>2026-08-28T17:53:01Z</time>
  <course>308.51</course>
  <speed>5.0</speed>
  <fix>3d</fix>
</trkpt>
<trkpt lat="40.0717092" lon="-105.2275108">
  <ele>1583.01</ele>
  <time>2026-08-28T17:53:01Z</time>
  <course>307.87</course>
  <speed>5.0</speed>
  <fix>3d</fix>
</trkpt>
<trkpt lat="40.0717027" lon="-105.2275004">
  <ele>1583.0</ele>
  <time>2026-08-28T17:53:01Z</time>
  <course>308.51</course>
  <speed>5.0</speed>
  <fix>3d</fix>
</trkpt>
<trkpt lat="40.0717119" lon="-105.2275156">
  <ele>1583.01</ele>
  <time>2026-08-28T17:53:01Z</time>
  <course>307.22</course>
  <speed>4.994336792808431</speed>
  <fix>3d</fix>
</trkpt>
<trkpt lat="40.0717082" lon="-105.2275096">
  <ele>1583.0</ele>
  <time>2026-08-28T17:53:01Z</time>
  <course>306.92</course>
  <speed>5.0</speed>
  <fix>3d</fix>
</trkpt>
<trkpt lat="40.0717145" lon="-105.2275204">
  <ele>1583.01</ele>
  <time>2026-08-28T17:53:01Z</time>
  <course>306.67</course>
  <speed>4.995167664853703</speed>
  <fix>3d</fix>
</trkpt>
<trkpt lat="40.0717082" lon="-105.2275096">
  <ele>1583.0</ele>
  <time>2026-08-28T17:53:01Z</time>
  <course>306.92</course>
  <speed>5.0</speed>
  <fix>3d</fix>
</trkpt>
<trkpt lat="40.0717171" lon="-105.2275252">
  <ele>1583.02</ele>
  <time>2026-08-28T17:53:01Z</time>
  <course>306.18</course>
  <speed>5.0022494939776845</speed>
  <fix>3d</fix>
</trkpt>
<trkpt lat="40.0717135" lon="-105.2275191">
  <ele>1583.0</ele>
  <time>2026-08-28T17:53:01Z</time>
  <course>305.7</course>
  <speed>5.0</speed>
  <fix>3d</fix>
</trkpt>
<trkpt lat="40.0717197" lon="-105.2275301">
  <ele>1583.02</ele>
  <time>2026-08-28T17:53:01Z</time>
  <course>305.71</course>
  <speed>4.995768209194658</speed>
  <fix>3d</fix>
</trkpt>
<trkpt lat="40.0717135" lon="-105.2275191">
  <ele>1583.0</ele>
  <time>2026-08-28T17:53:01Z</time>
  <course>305.7</course>
  <speed>5.0</speed>
  <fix>3d</fix>
</trkpt>
<trkpt lat="40.0717222" lon="-105.227535">
  <ele>1583.02</ele>
  <time>2026-08-28T17:53:01Z</time>
  <course>305.31</course>
  <speed>4.995297788921096</speed>
  <fix>3d</fix>
</trkpt>
<trkpt lat="40.0717187" lon="-105.2275287">
  <ele>1583.0</ele>
  <time>2026-08-28T17:53:01Z</time>
  <course>304.73</course>
  <speed>5.0</speed>
  <fix>3d</fix>
</trkpt>
<trkpt lat="40.0717247" lon="-105.2275399">
  <ele>1583.02</ele>
  <time>2026-08-28T17:53:01Z</time>
  <course>304.92</course>
  <speed>4.9950875868196745</speed>
  <fix>3d</fix>
</trkpt>
<trkpt lat="40.0717187" lon="-105.2275287">
  <ele>1583.0</ele>
  <time>2026-08-28T17:53:01Z</time>
  <course>304.73</course>
  <speed>5.0</speed>
  <fix>3d</fix>
</trkpt>
<trkpt lat="40.0717272" lon="-105.2275448">
  <ele>1583.02</ele>
  <time>2026-08-28T17:53:01Z</time>
  <course>304.58</course>
  <speed>5.000649957755492</speed>
  <fix>3d</fix>
</trkpt>
<trkpt lat="40.0717187" lon="-105.2275287">
  <ele>1583.0</ele>
  <time>2026-08-28T17:53:01Z</time>
  <course>304.73</course>
  <speed>5.0</speed>
  <fix>3d</fix>
</trkpt>
<trkpt lat="40.0717296" lon="-105.2275497">
  <ele>1583.02</ele>
  <time>2026-08-28T17:53:01Z</time>
  <course>304.24</course>
  <speed>4.992524411557744</speed>
  <fix>3d</fix>
</trkpt>
<trkpt lat="40.0717238" lon="-105.2275384">
  <ele>1583.0</ele>
  <time>2026-08-28T17:53:01Z</time>
  <course>303.92</course>
  <speed>5.0</speed>
  <fix>3d</fix>
</trkpt>
<trkpt lat="40.0717321" lon="-105.2275546">
  <ele>1583.03</ele>
  <time>2026-08-28T17:53:01Z</time>
  <course>303.97</course>
  <speed>4.99001002003002</speed>
  <fix>3d</fix>
</trkpt>
<trkpt lat="40.0717238" lon="-105.2275384">
  <ele>1583.0</ele>
  <time>2026-08-28T17:53:01Z</time>
  <course>303.92</course>
  <speed>5.0</speed>
  <fix>3d</fix>
</trkpt>
<trkpt lat="40.0717345" lon="-105.2275595">
  <ele>1583.03</ele>
  <time>2026-08-28T17:53:01Z</time>
  <course>303.7</course>
  <speed>4.9875946106314615</speed>
  <fix>3d</fix>
</trkpt>
<trkpt lat="40.0717288" lon="-105.2275482">
  <ele>1583.0</ele>
  <time>2026-08-28T17:53:01Z</time>
  <course>303.25</course>
  <speed>4.99</speed>
  <fix>3d</fix>
</trkpt>
<trkpt lat="40.0717369" lon="-105.2275645">
  <ele>1583.03</ele>
  <time>2026-08-28T17:53:01Z</time>
  <course>303.43</course>
  <speed>4.9852783272351004</speed>
  <fix>3d</fix>
</trkpt>
<trkpt lat="40.0717288" lon="-105.2275482">
  <ele>1583.0</ele>
  <time>2026-08-28T17:53:01Z</time>
  <course>303.25</course>
  <speed>4.99</speed>
  <fix>3d</fix>
</trkpt>
<trkpt lat="40.0717392" lon="-105.2275694">
  <ele>1583.03</ele>
  <time>2026-08-28T17:53:01Z</time>
  <course>303.22</course>
  <speed>4.9830613080715755</speed>
  <fix>3d</fix>
</trkpt>
<trkpt lat="40.0717336" lon="-105.227558">
  <ele>1583.0</ele>
  <time>2026-08-28T17:53:01Z</time>
  <course>302.68</course>
  <speed>4.99</speed>
  <fix>3d</fix>
</trkpt>
<trkpt lat="40.0717416" lon="-105.2275743">
  <ele>1583.03</ele>
  <time>2026-08-28T17:53:01Z</time>
  <course>303.01</course>
  <speed>4.980943685688486</speed>
  <fix>3d</fix>
</trkpt>
<trkpt lat="40.0717384" lon="-105.2275679">
  <ele>1583.0</ele>
  <time>2026-08-28T17:53:01Z</time>
  <course>302.2</course>
  <speed>4.99</speed>
  <fix>3d</fix>
</trkpt>
<trkpt lat="40.0717439" lon="-105.2275793">
  <ele>1583.03</ele>
  <time>2026-08-28T17:53:01Z</time>
  <course>302.75</course>
  <speed>4.978925586911297</speed>
  <fix>3d</fix>
</trkpt>
<trkpt lat="40.0717384" lon="-105.2275679">
  <ele>1583.0</ele>
  <time>2026-08-28T17:53:01Z</time>
  <course>302.2</course>
  <speed>4.99</speed>
  <fix>3d</fix>
</trkpt>
<trkpt lat="40.0717463" lon="-105.2275843">
  <ele>1583.03</ele>
  <time>2026-08-28T17:53:01Z</time>
  <course>302.55</course>
  <speed>4.982218381404011</speed>
  <fix>3d</fix>
</trkpt>
<trkpt lat="40.0717432" lon="-105.2275779">
  <ele>1583.0</ele>
  <time>2026-08-28T17:53:01Z</time>
  <course>301.76</course>
  <speed>5.0</speed>
  <fix>3d</fix>
</trkpt>
<trkpt lat="40.0717486" lon="-105.2275893">
  <ele>1583.03</ele>
  <time>2026-08-28T17:53:01Z</time>
  <course>302.35</course>
  <speed>4.985549117198627</speed>
  <fix>3d</fix>
</trkpt>
<trkpt lat="40.0717432" lon="-105.2275779">
  <ele>1583.0</ele>
  <time>2026-08-28T17:53:01Z</time>
  <course>301.76</course>
  <speed>5.0</speed>
  <fix>3d</fix>
</trkpt>
<trkpt lat="40.0717509" lon="-105.2275943">
  <ele>1583.03</ele>
  <time>2026-08-28T17:53:01Z</time>
  <course>302.15</course>
  <speed>4.983753605466466</speed>
  <fix>3d</fix>
</trkpt>
<trkpt lat="40.0717479" lon="-105.2275879">
  <ele>1583.0</ele>
  <time>2026-08-28T17:53:01Z</time>
  <course>301.32</course>
  <speed>5.0</speed>
  <fix>3d</fix>
</trkpt>
<trkpt lat="40.0717532" lon="-105.2275994">
  <ele>1583.03</ele>
  <time>2026-08-28T17:53:01Z</time>
  <course>301.95</course>
  <speed>4.987183573922259</speed>
  <fix>3d</fix>
</trkpt>
<trkpt lat="40.0717479" lon="-105.2275879">
  <ele>1583.0</ele>
  <time>2026-08-28T17:53:01Z</time>
  <course>301.32</course>
  <speed>5.0</speed>
  <fix>3d</fix>
</trkpt>
<trkpt lat="40.0717555" lon="-105.2276045">
  <ele>1583.03</ele>
  <time>2026-08-28T17:53:01Z</time>
  <course>301.81</course>
  <speed>4.99065126010624</speed>
  <fix>3d</fix>
</trkpt>
<trkpt lat="40.0717525" lon="-105.227598">
  <ele>1583.0</ele>
  <time>2026-08-28T17:53:01Z</time>
  <course>300.94</course>
  <speed>5.0</speed>
  <fix>3d</fix>
</trkpt>
<trkpt lat="40.0717579" lon="-105.2276096">
  <ele>1583.03</ele>
  <time>2026-08-28T17:53:01Z</time>
  <course>301.68</course>
  <speed>4.99415658545064</speed>
  <fix>3d</fix>
</trkpt>
<trkpt lat="40.0717525" lon="-105.227598">
  <ele>1583.0</ele>
  <time>2026-08-28T17:53:01Z</time>
  <course>300.94</course>
  <speed>5.0</speed>
  <fix>3d</fix>
</trkpt>
<trkpt lat="40.0717602" lon="-105.2276147">
  <ele>1583.03</ele>
  <time>2026-08-28T17:53:01Z</time>
  <course>301.54</course>
  <speed>4.989078071147013</speed>
  <fix>3d</fix>
</trkpt>
<trkpt lat="40.0717571" lon="-105.2276081">
  <ele>1583.0</ele>
  <time>2026-08-28T17:53:01Z</time>
  <course>300.63</course>
  <speed>5.01</speed>
  <fix>3d</fix>
</trkpt>
<trkpt lat="40.0717624" lon="-105.2276198">
  <ele>1583.03</ele>
  <time>2026-08-28T17:53:01Z</time>
  <course>301.41</course>
  <speed>4.992644589794071</speed>
  <fix>3d</fix>
</trkpt>
<trkpt lat="40.0717571" lon="-105.2276081">
  <ele>1583.0</ele>
  <time>2026-08-28T17:53:01Z</time>
  <course>300.63</course>
  <speed>5.01</speed>
  <fix>3d</fix>
</trkpt>
<trkpt lat="40.0717647" lon="-105.2276249">
  <ele>1583.03</ele>
  <time>2026-08-28T17:53:01Z</time>
  <course>301.28</course>
  <speed>4.9962485926943225</speed>
  <fix>3d</fix>
</trkpt>
<trkpt lat="40.0717618" lon="-105.2276182">
  <ele>1583.0</ele>
  <time>2026-08-28T17:53:01Z</time>
  <course>300.36</course>
  <speed>5.01</speed>
  <fix>3d</fix>
</trkpt>
<trkpt lat="40.071767" lon="-105.22763">
  <ele>1583.03</ele>
  <time>2026-08-28T17:53:01Z</time>
  <course>301.08</course>
  <speed>4.991232312766057</speed>
  <fix>3d</fix>
</trkpt>
<trkpt lat="40.0717618" lon="-105.2276182">
  <ele>1583.0</ele>
  <time>2026-08-28T17:53:01Z</time>
  <course>300.36</course>
  <speed>5.01</speed>
  <fix>3d</fix>
</trkpt>
<trkpt lat="40.0717692" lon="-105.2276351">
  <ele>1583.03</ele>
  <time>2026-08-28T17:53:01Z</time>
  <course>300.89</course>
  <speed>4.989919839035493</speed>
  <fix>3d</fix>
</trkpt>
<trkpt lat="40.0717663" lon="-105.2276283">
  <ele>1583.0</ele>
  <time>2026-08-28T17:53:01Z</time>
  <course>300.02</course>
  <speed>5.01</speed>
  <fix>3d</fix>
</trkpt>
<trkpt lat="40.0717715" lon="-105.2276403">
  <ele>1583.03</ele>
  <time>2026-08-28T17:53:01Z</time>
  <course>300.76</course>
  <speed>4.993645962620898</speed>
  <fix>3d</fix>
</trkpt>
<trkpt lat="40.0717663" lon="-105.2276283">
  <ele>1583.0</ele>
  <time>2026-08-28T17:53:01Z</time>
  <course>300.02</course>
  <speed>5.01</speed>
  <fix>3d</fix>
</trkpt>
<trkpt lat="40.0717737" lon="-105.2276454">
  <ele>1583.03</ele>
  <time>2026-08-28T17:53:01Z</time>
  <course>300.63</course>
  <speed>4.988707247373813</speed>
  <fix>3d</fix>
</trkpt>
<trkpt lat="40.0717663" lon="-105.2276283">
  <ele>1583.0</ele>
  <time>2026-08-28T17:53:01Z</time>
  <course>300.02</course>
  <speed>5.01</speed>
  <fix>3d</fix>
</trkpt>
<trkpt lat="40.0717759" lon="-105.2276505">
  <ele>1583.03</ele>
  <time>2026-08-28T17:53:01Z</time>
  <course>300.49</course>
  <speed>4.992494366546646</speed>
  <fix>3d</fix>
</trkpt>
<trkpt lat="40.0717707" lon="-105.2276386">
  <ele>1583.0</ele>
  <time>2026-08-28T17:53:01Z</time>
  <course>299.69</course>
  <speed>5.01</speed>
  <fix>3d</fix>
</trkpt>
<trkpt lat="40.0717781" lon="-105.2276556">
  <ele>1583.03</ele>
  <time>2026-08-28T17:53:01Z</time>
  <course>300.36</course>
  <speed>4.9875946106314615</speed>
  <fix>3d</fix>
</trkpt>
<trkpt lat="40.0717707" lon="-105.2276386">
  <ele>1583.0</ele>
  <time>2026-08-28T17:53:01Z</time>
  <course>299.69</course>
  <speed>5.01</speed>
  <fix>3d</fix>
</trkpt>
<trkpt lat="40.0717803" lon="-105.2276607">
  <ele>1583.03</ele>
  <time>2026-08-28T17:53:01Z</time>
  <course>300.22</course>
  <speed>4.991442677222689</speed>
  <fix>3d</fix>
</trkpt>
<trkpt lat="40.0717752" lon="-105.2276488">
  <ele>1583.0</ele>
  <time>2026-08-28T17:53:01Z</time>
  <course>299.42</course>
  <speed>5.01</speed>
  <fix>3d</fix>
</trkpt>
<trkpt lat="40.0717824" lon="-105.2276658">
  <ele>1583.04</ele>
  <time>2026-08-28T17:53:01Z</time>
  <course>300.09</course>
  <speed>4.986581995716104</speed>
  <fix>3d</fix>
</trkpt>
<trkpt lat="40.0717752" lon="-105.2276488">
  <ele>1583.0</ele>
  <time>2026-08-28T17:53:01Z</time>
  <course>299.42</course>
  <speed>5.01</speed>
  <fix>3d</fix>
</trkpt>
<trkpt lat="40.0717846" lon="-105.2276708">
  <ele>1583.04</ele>
  <time>2026-08-28T17:53:01Z</time>
  <course>299.95</course>
  <speed>4.9817366449863645</speed>
  <fix>3d</fix>
</trkpt>
<trkpt lat="40.0717796" lon="-105.2276591">
  <ele>1583.0</ele>
  <time>2026-08-28T17:53:01Z</time>
  <course>299.15</course>
  <speed>5.01</speed>
  <fix>3d</fix>
</trkpt>
<trkpt lat="40.0717867" lon="-105.2276759">
  <ele>1583.04</ele>
  <time>2026-08-28T17:53:01Z</time>
  <course>299.81</course>
  <speed>4.98566946357257</speed>
  <fix>3d</fix>
</trkpt>
<trkpt lat="40.0717796" lon="-105.2276591">
  <ele>1583.0</ele>
  <time>2026-08-28T17:53:01Z</time>
  <course>299.15</course>
  <speed>5.01</speed>
  <fix>3d</fix>
</trkpt>
<trkpt lat="40.0717889" lon="-105.2276811">
  <ele>1583.04</ele>
  <time>2026-08-28T17:53:01Z</time>
  <course>299.64</course>
  <speed>4.980863378973569</speed>
  <fix>3d</fix>
</trkpt>
<trkpt lat="40.071784" lon="-105.2276694">
  <ele>1583.0</ele>
  <time>2026-08-28T17:53:01Z</time>
  <course>298.87</course>
  <speed>5.01</speed>
  <fix>3d</fix>
</trkpt>
<trkpt lat="40.071791" lon="-105.2276862">
  <ele>1583.04</ele>
  <time>2026-08-28T17:53:01Z</time>
  <course>299.49</course>
  <speed>4.984857069164572</speed>
  <fix>3d</fix>
</trkpt>
<trkpt lat="40.0717883" lon="-105.2276798">
  <ele>1583.0</ele>
  <time>2026-08-28T17:53:01Z</time>
  <course>298.57</course>
  <speed>5.02</speed>
  <fix>3d</fix>
</trkpt>
<trkpt lat="40.0717932" lon="-105.2276914">
  <ele>1583.04</ele>
  <time>2026-08-28T17:53:01Z</time>
  <course>299.35</course>
  <speed>4.98888765157124</speed>
  <fix>3d</fix>
</trkpt>
<trkpt lat="40.0717883" lon="-105.2276798">
  <ele>1583.0</ele>
  <time>2026-08-28T17:53:01Z</time>
  <course>298.57</course>
  <speed>5.02</speed>
  <fix>3d</fix>
</trkpt>
<trkpt lat="40.0717953" lon="-105.2276965">
  <ele>1583.04</ele>
  <time>2026-08-28T17:53:01Z</time>
  <course>299.22</course>
  <speed>4.984144861458182</speed>
  <fix>3d</fix>
</trkpt>
<trkpt lat="40.0717926" lon="-105.2276902">
  <ele>1583.0</ele>
  <time>2026-08-28T17:53:01Z</time>
  <course>298.28</course>
  <speed>5.02</speed>
  <fix>3d</fix>
</trkpt>
<trkpt lat="40.0717974" lon="-105.2277017">
  <ele>1583.03</ele>
  <time>2026-08-28T17:53:01Z</time>
  <course>299.08</course>
  <speed>4.9882361612096915</speed>
  <fix>3d</fix>
</trkpt>
<trkpt lat="40.0717926" lon="-105.2276902">
  <ele>1583.0</ele>
  <time>2026-08-28T17:53:01Z</time>
  <course>298.28</course>
  <speed>5.02</speed>
  <fix>3d</fix>
</trkpt>
<trkpt lat="40.0717995" lon="-105.227707">
  <ele>1583.03</ele>
  <time>2026-08-28T17:53:01Z</time>
  <course>298.95</course>
  <speed>4.992364169409118</speed>
  <fix>3d</fix>
</trkpt>
<trkpt lat="40.0717968" lon="-105.2277005">
  <ele>1583.0</ele>
  <time>2026-08-28T17:53:01Z</time>
  <course>298.0</course>
  <speed>5.02</speed>
  <fix>3d</fix>
</trkpt>
<trkpt lat="40.0718016" lon="-105.2277122">
  <ele>1583.03</ele>
  <time>2026-08-28T17:53:01Z</time>
  <course>298.81</course>
  <speed>4.987684833667821</speed>
  <fix>3d</fix>
</trkpt>
<trkpt lat="40.0717968" lon="-105.2277005">
  <ele>1583.0</ele>
  <time>2026-08-28T17:53:01Z</time>
  <course>298.0</course>
  <speed>5.02</speed>
  <fix>3d</fix>
</trkpt>
<trkpt lat="40.0718038" lon="-105.2277175">
  <ele>1583.03</ele>
  <time>2026-08-28T17:53:01Z</time>
  <course>298.68</course>
  <speed>4.991873395830467</speed>
  <fix>3d</fix>
</trkpt>
<trkpt lat="40.0718011" lon="-105.227711">
  <ele>1583.0</ele>
  <time>2026-08-28T17:53:01Z</time>
  <course>297.73</course>
  <speed>5.03</speed>
  <fix>3d</fix>
</trkpt>
<trkpt lat="40.0718059" lon="-105.2277228">
  <ele>1583.03</ele>
  <time>2026-08-28T17:53:01Z</time>
  <course>298.56</course>
  <speed>4.9960984778124615</speed>
  <fix>3d</fix>
</trkpt>
<trkpt lat="40.0718011" lon="-105.227711">
  <ele>1583.0</ele>
  <time>2026-08-28T17:53:01Z</time>
  <course>297.73</course>
  <speed>5.03</speed>
  <fix>3d</fix>
</trkpt>
<trkpt lat="40.071808" lon="-105.2277281">
  <ele>1583.02</ele>
  <time>2026-08-28T17:53:01Z</time>
  <course>298.45</course>
  <speed>4.9960984778124615</speed>
  <fix>3d</fix>
</trkpt>
<trkpt lat="40.0718052" lon="-105.2277214">
  <ele>1583.0</ele>
  <time>2026-08-28T17:53:01Z</time>
  <course>297.48</course>
  <speed>5.03</speed>
  <fix>3d</fix>
</trkpt>
<trkpt lat="40.0718101" lon="-105.2277333">
  <ele>1583.02</ele>
  <time>2026-08-28T17:53:01Z</time>
  <course>298.38</course>
  <speed>5.000359987040933</speed>
  <fix>3d</fix>
</trkpt>
<trkpt lat="40.0718052" lon="-105.2277214">
  <ele>1583.0</ele>
  <time>2026-08-28T17:53:01Z</time>
  <course>297.48</course>
  <speed>5.03</speed>
  <fix>3d</fix>
</trkpt>
<trkpt lat="40.0718121" lon="-105.2277386">
  <ele>1583.02</ele>
  <time>2026-08-28T17:53:01Z</time>
  <course>298.31</course>
  <speed>5.000359987040933</speed>
  <fix>3d</fix>
</trkpt>
<trkpt lat="40.0718095" lon="-105.2277319">
  <ele>1583.0</ele>
  <time>2026-08-28T17:53:01Z</time>
  <course>297.29</course>
  <speed>5.03</speed>
  <fix>3d</fix>
</trkpt>
<trkpt lat="40.0718142" lon="-105.2277439">
  <ele>1583.02</ele>
  <time>2026-08-28T17:53:01Z</time>
  <course>298.24</course>
  <speed>4.995768209194658</speed>
  <fix>3d</fix>
</trkpt>
<trkpt lat="40.0718095" lon="-105.2277319">
  <ele>1583.0</ele>
  <time>2026-08-28T17:53:01Z</time>
  <course>297.29</course>
  <speed>5.03</speed>
  <fix>3d</fix>
</trkpt>
<trkpt lat="40.0718163" lon="-105.2277492">
  <ele>1583.02</ele>
  <time>2026-08-28T17:53:01Z</time>
  <course>298.18</course>
  <speed>5.004657830461539</speed>
  <fix>3d</fix>
</trkpt>
<trkpt lat="40.0718136" lon="-105.2277424">
  <ele>1583.0</ele>
  <time>2026-08-28T17:53:01Z</time>
  <course>297.16</course>
  <speed>5.03</speed>
  <fix>3d</fix>
</trkpt>
<trkpt lat="40.0718184" lon="-105.2277545">
  <ele>1583.02</ele>
  <time>2026-08-28T17:53:01Z</time>
  <course>298.11</course>
  <speed>5.000089999190014</speed>
  <fix>3d</fix>
</trkpt>
<trkpt lat="40.0718136" lon="-105.2277424">
  <ele>1583.0</ele>
  <time>2026-08-28T17:53:01Z</time>
  <course>297.16</course>
  <speed>5.03</speed>
  <fix>3d</fix>
</trkpt>
<trkpt lat="40.0718204" lon="-105.2277597">
  <ele>1583.02</ele>
  <time>2026-08-28T17:53:01Z</time>
  <course>298.08</course>
  <speed>5.000089999190014</speed>
  <fix>3d</fix>
</trkpt>
<trkpt lat="40.0718136" lon="-105.2277424">
  <ele>1583.0</ele>
  <time>2026-08-28T17:53:01Z</time>
  <course>297.16</course>
  <speed>5.03</speed>
  <fix>3d</fix>
</trkpt>
<trkpt lat="40.0718225" lon="-105.227765">
  <ele>1583.02</ele>
  <time>2026-08-28T17:53:01Z</time>
  <course>298.08</course>
  <speed>5.000089999190014</speed>
  <fix>3d</fix>
</trkpt>
<trkpt lat="40.0718177" lon="-105.2277529">
  <ele>1583.0</ele>
  <time>2026-08-28T17:53:01Z</time>
  <course>297.04</course>
  <speed>5.03</speed>
  <fix>3d</fix>
</trkpt>
<trkpt lat="40.0718245" lon="-105.2277702">
  <ele>1583.02</ele>
  <time>2026-08-28T17:53:01Z</time>
  <course>298.08</course>
  <speed>4.991192242340501</speed>
  <fix>3d</fix>
</trkpt>
<trkpt lat="40.0718177" lon="-105.2277529">
  <ele>1583.0</ele>
  <time>2026-08-28T17:53:01Z</time>
  <course>297.04</course>
  <speed>5.03</speed>
  <fix>3d</fix>
</trkpt>
<trkpt lat="40.0718266" lon="-105.2277754">
  <ele>1583.02</ele>
  <time>2026-08-28T17:53:01Z</time>
  <course>298.09</course>
  <speed>4.991192242340501</speed>
  <fix>3d</fix>
</trkpt>
<trkpt lat="40.0718218" lon="-105.2277635">
  <ele>1583.0</ele>
  <time>2026-08-28T17:53:01Z</time>
  <course>296.99</course>
  <speed>5.02</speed>
  <fix>3d</fix>
</trkpt>
<trkpt lat="40.0718286" lon="-105.2277806">
  <ele>1583.02</ele>
  <time>2026-08-28T17:53:01Z</time>
  <course>298.09</course>
  <speed>4.991192242340501</speed>
  <fix>3d</fix>
</trkpt>
<trkpt lat="40.0718218" lon="-105.2277635">
  <ele>1583.0</ele>
  <time>2026-08-28T17:53:01Z</time>
  <course>296.99</course>
  <speed>5.02</speed>
  <fix>3d</fix>
</trkpt>
<trkpt lat="40.0718306" lon="-105.2277858">
  <ele>1583.02</ele>
  <time>2026-08-28T17:53:01Z</time>
  <course>298.09</course>
  <speed>4.991192242340501</speed>
  <fix>3d</fix>
</trkpt>
<trkpt lat="40.0718259" lon="-105.227774">
  <ele>1583.0</ele>
  <time>2026-08-28T17:53:01Z</time>
  <course>296.99</course>
  <speed>5.02</speed>
  <fix>3d</fix>
</trkpt>
<trkpt lat="40.0718327" lon="-105.2277911">
  <ele>1583.02</ele>
  <time>2026-08-28T17:53:01Z</time>
  <course>298.09</course>
  <speed>4.991192242340501</speed>
  <fix>3d</fix>
</trkpt>
<trkpt lat="40.07183" lon="-105.2277845">
  <ele>1583.0</ele>
  <time>2026-08-28T17:53:01Z</time>
  <course>296.99</course>
  <speed>5.02</speed>
  <fix>3d</fix>
</trkpt>
<trkpt lat="40.0718347" lon="-105.2277963">
  <ele>1583.02</ele>
  <time>2026-08-28T17:53:01Z</time>
  <course>298.09</course>
  <speed>4.991192242340501</speed>
  <fix>3d</fix>
</trkpt>
<trkpt lat="40.07183" lon="-105.2277845">
  <ele>1583.0</ele>
  <time>2026-08-28T17:53:01Z</time>
  <course>296.99</course>
  <speed>5.02</speed>
  <fix>3d</fix>
</trkpt>
<trkpt lat="40.0718368" lon="-105.2278015">
  <ele>1583.02</ele>
  <time>2026-08-28T17:53:01Z</time>
  <course>298.09</course>
  <speed>4.991192242340501</speed>
  <fix>3d</fix>
</trkpt>
<trkpt lat="40.0718341" lon="-105.227795">
  <ele>1583.0</ele>
  <time>2026-08-28T17:53:01Z</time>
  <course>296.99</course>
  <speed>5.02</speed>
  <fix>3d</fix>
</trkpt>
<trkpt lat="40.0718388" lon="-105.2278068">
  <ele>1583.01</ele>
  <time>2026-08-28T17:53:01Z</time>
  <course>298.09</course>
  <speed>4.982298666278448</speed>
  <fix>3d</fix>
</trkpt>
<trkpt lat="40.0718341" lon="-105.227795">
  <ele>1583.0</ele>
  <time>2026-08-28T17:53:01Z</time>
  <course>296.99</course>
  <speed>5.02</speed>
  <fix>3d</fix>
</trkpt>
<trkpt lat="40.0718409" lon="-105.227812">
  <ele>1583.01</ele>
  <time>2026-08-28T17:53:01Z</time>
  <course>298.09</course>
  <speed>4.968832860944309</speed>
  <fix>3d</fix>
</trkpt>
<trkpt lat="40.0718382" lon="-105.2278055">
  <ele>1583.0</ele>
  <time>2026-08-28T17:53:01Z</time>
  <course>296.99</course>
  <speed>5.01</speed>
  <fix>3d</fix>
</trkpt>
<trkpt lat="40.0718429" lon="-105.2278173">
  <ele>1583.01</ele>
  <time>2026-08-28T17:53:01Z</time>
  <course>298.08</course>
  <speed>4.937580379092577</speed>
  <fix>3d</fix>
</trkpt>
<trkpt lat="40.0718382" lon="-105.2278055">
  <ele>1583.0</ele>
  <time>2026-08-28T17:53:01Z</time>
  <course>296.99</course>
  <speed>5.01</speed>
  <fix>3d</fix>
</trkpt>
<trkpt lat="40.0718449" lon="-105.2278225">
  <ele>1583.01</ele>
  <time>2026-08-28T17:53:01Z</time>
  <course>298.08</course>
  <speed>4.892862148068347</speed>
  <fix>3d</fix>
</trkpt>
<trkpt lat="40.0718423" lon="-105.2278159">
  <ele>1583.0</ele>
  <time>2026-08-28T17:53:01Z</time>
  <course>296.99</course>
  <speed>4.96</speed>
  <fix>3d</fix>
</trkpt>
<trkpt lat="40.071847" lon="-105.2278277">
  <ele>1583.01</ele>
  <time>2026-08-28T17:53:01Z</time>
  <course>298.08</course>
  <speed>4.825784910250352</speed>
  <fix>3d</fix>
</trkpt>
<trkpt lat="40.0718423" lon="-105.2278159">
  <ele>1583.0</ele>
  <time>2026-08-28T17:53:01Z</time>
  <course>296.99</course>
  <speed>4.96</speed>
  <fix>3d</fix>
</trkpt>
<trkpt lat="40.0718489" lon="-105.2278327">
  <ele>1583.01</ele>
  <time>2026-08-28T17:53:01Z</time>
  <course>298.08</course>
  <speed>4.754135042255321</speed>
  <fix>3d</fix>
</trkpt>
<trkpt lat="40.0718463" lon="-105.2278263">
  <ele>1583.0</ele>
  <time>2026-08-28T17:53:01Z</time>
  <course>296.99</course>
  <speed>4.85</speed>
  <fix>3d</fix>
</trkpt>
<trkpt lat="40.0718509" lon="-105.2278377">
  <ele>1583.0</ele>
  <time>2026-08-28T17:53:01Z</time>
  <course>298.06</course>
  <speed>4.664697203463478</speed>
  <fix>3d</fix>
</trkpt>
<trkpt lat="40.0718463" lon="-105.2278263">
  <ele>1583.0</ele>
  <time>2026-08-28T17:53:01Z</time>
  <course>296.99</course>
  <speed>4.85</speed>
  <fix>3d</fix>
</trkpt>
<trkpt lat="40.0718528" lon="-105.2278426">
  <ele>1583.0</ele>
  <time>2026-08-28T17:53:01Z</time>
  <course>297.95</course>
  <speed>4.570700165182573</speed>
  <fix>3d</fix>
</trkpt>
<trkpt lat="40.0718502" lon="-105.2278363">
  <ele>1583.0</ele>
  <time>2026-08-28T17:53:01Z</time>
  <course>296.93</course>
  <speed>4.7</speed>
  <fix>3d</fix>
</trkpt>
<trkpt lat="40.0718546" lon="-105.2278474">
  <ele>1583.0</ele>
  <time>2026-08-28T17:53:01Z</time>
  <course>297.73</course>
  <speed>4.472191856349635</speed>
  <fix>3d</fix>
</trkpt>
<trkpt lat="40.0718502" lon="-105.2278363">
  <ele>1583.0</ele>
  <time>2026-08-28T17:53:01Z</time>
  <course>296.93</course>
  <speed>4.7</speed>
  <fix>3d</fix>
</trkpt>
<trkpt lat="40.0718564" lon="-105.227852">
  <ele>1583.0</ele>
  <time>2026-08-28T17:53:01Z</time>
  <course>297.4</course>
  <speed>4.355869603190619</speed>
  <fix>3d</fix>
</trkpt>
<trkpt lat="40.0718539" lon="-105.2278459">
  <ele>1583.0</ele>
  <time>2026-08-28T17:53:01Z</time>
  <course>296.59</course>
  <speed>4.5</speed>
  <fix>3d</fix>
</trkpt>
<trkpt lat="40.0718581" lon="-105.2278566">
  <ele>1583.0</ele>
  <time>2026-08-28T17:53:01Z</time>
  <course>296.96</course>
  <speed>4.239775937475941</speed>
  <fix>3d</fix>
</trkpt>
<trkpt lat="40.0718539" lon="-105.2278459">
  <ele>1583.0</ele>
  <time>2026-08-28T17:53:01Z</time>
  <course>296.59</course>
  <speed>4.5</speed>
  <fix>3d</fix>
</trkpt>
<trkpt lat="40.0718597" lon="-105.2278611">
  <ele>1583.0</ele>
  <time>2026-08-28T17:53:01Z</time>
  <course>296.4</course>
  <speed>4.119623769229418</speed>
  <fix>3d</fix>
</trkpt>
<trkpt lat="40.0718539" lon="-105.2278459">
  <ele>1583.0</ele>
  <time>2026-08-28T17:53:01Z</time>
  <course>296.59</course>
  <speed>4.5</speed>
  <fix>3d</fix>
</trkpt>
<trkpt lat="40.0718613" lon="-105.2278654">
  <ele>1583.0</ele>
  <time>2026-08-28T17:53:01Z</time>
  <course>295.73</course>
  <speed>3.995722713102099</speed>
  <fix>3d</fix>
</trkpt>
<trkpt lat="40.0718574" lon="-105.2278552">
  <ele>1583.0</ele>
  <time>2026-08-28T17:53:01Z</time>
  <course>295.81</course>
  <speed>4.27</speed>
  <fix>3d</fix>
</trkpt>
<trkpt lat="40.0718627" lon="-105.2278696">
  <ele>1583.0</ele>
  <time>2026-08-28T17:53:01Z</time>
  <course>294.97</course>
  <speed>3.859339321697433</speed>
  <fix>3d</fix>
</trkpt>
<trkpt lat="40.0718574" lon="-105.2278552">
  <ele>1583.0</ele>
  <time>2026-08-28T17:53:01Z</time>
  <course>295.81</course>
  <speed>4.27</speed>
  <fix>3d</fix>
</trkpt>
<trkpt lat="40.071864" lon="-105.2278736">
  <ele>1583.0</ele>
  <time>2026-08-28T17:53:01Z</time>
  <course>294.12</course>
  <speed>3.7278009603518263</speed>
  <fix>3d</fix>
</trkpt>
<trkpt lat="40.0718605" lon="-105.227864">
  <ele>1583.0</ele>
  <time>2026-08-28T17:53:01Z</time>
  <course>294.6</course>
  <speed>4.02</speed>
  <fix>3d</fix>
</trkpt>
<trkpt lat="40.0718652" lon="-105.2278776">
  <ele>1583.0</ele>
  <time>2026-08-28T17:53:01Z</time>
  <course>293.21</course>
  <speed>3.5932436599818836</speed>
  <fix>3d</fix>
</trkpt>
<trkpt lat="40.0718605" lon="-105.227864">
  <ele>1583.0</ele>
  <time>2026-08-28T17:53:01Z</time>
  <course>294.6</course>
  <speed>4.02</speed>
  <fix>3d</fix>
</trkpt>
<trkpt lat="40.0718664" lon="-105.2278814">
  <ele>1583.0</ele>
  <time>2026-08-28T17:53:01Z</time>
  <course>292.19</course>
  <speed>3.4691785771274444</speed>
  <fix>3d</fix>
</trkpt>
<trkpt lat="40.0718634" lon="-105.2278724">
  <ele>1583.0</ele>
  <time>2026-08-28T17:53:01Z</time>
  <course>293.0</course>
  <speed>3.76</speed>
  <fix>3d</fix>
</trkpt>
<trkpt lat="40.0718674" lon="-105.2278851">
  <ele>1582.99</ele>
  <time>2026-08-28T17:53:01Z</time>
  <course>291.07</course>
  <speed>3.3465504627900056</speed>
  <fix>3d</fix>
</trkpt>
<trkpt lat="40.0718634" lon="-105.2278724">
  <ele>1583.0</ele>
  <time>2026-08-28T17:53:01Z</time>
  <course>293.0</course>
  <speed>3.76</speed>
  <fix>3d</fix>
</trkpt>
<trkpt lat="40.0718684" lon="-105.2278888">
  <ele>1582.99</ele>
  <time>2026-08-28T17:53:01Z</time>
  <course>289.88</course>
  <speed>3.247660696562989</speed>
  <fix>3d</fix>
</trkpt>
<trkpt lat="40.0718659" lon="-105.2278803">
  <ele>1583.0</ele>
  <time>2026-08-28T17:53:01Z</time>
  <course>291.04</course>
  <speed>3.51</speed>
  <fix>3d</fix>
</trkpt>
<trkpt lat="40.0718692" lon="-105.2278924">
  <ele>1582.99</ele>
  <time>2026-08-28T17:53:01Z</time>
  <course>288.67</course>
  <speed>3.1629100524675056</speed>
  <fix>3d</fix>
</trkpt>
<trkpt lat="40.071868" lon="-105.2278878">
  <ele>1583.0</ele>
  <time>2026-08-28T17:53:01Z</time>
  <course>288.76</course>
  <speed>3.3</speed>
  <fix>3d</fix>
</trkpt>
<trkpt lat="40.07187" lon="-105.2278959">
  <ele>1582.99</ele>
  <time>2026-08-28T17:53:01Z</time>
  <course>287.46</course>
  <speed>3.1016124838541645</speed>
  <fix>3d</fix>
</trkpt>
<trkpt lat="40.071868" lon="-105.2278878">
  <ele>1583.0</ele>
  <time>2026-08-28T17:53:01Z</time>
  <course>288.76</course>
  <speed>3.3</speed>
  <fix>3d</fix>
</trkpt>
<trkpt lat="40.0718707" lon="-105.2278994">
  <ele>1582.99</ele>
  <time>2026-08-28T17:53:01Z</time>
  <course>286.31</course>
  <speed>3.0610455730027932</speed>
  <fix>3d</fix>
</trkpt>
<trkpt lat="40.0718698" lon="-105.227895">
  <ele>1583.0</ele>
  <time>2026-08-28T17:53:01Z</time>
  <course>286.36</course>
  <speed>3.16</speed>
  <fix>3d</fix>
</trkpt>
<trkpt lat="40.0718714" lon="-105.2279029">
  <ele>1582.99</ele>
  <time>2026-08-28T17:53:01Z</time>
  <course>285.22</course>
  <speed>3.0365934861288237</speed>
  <fix>3d</fix>
</trkpt>
<trkpt lat="40.0718698" lon="-105.227895">
  <ele>1583.0</ele>
  <time>2026-08-28T17:53:01Z</time>
  <course>286.36</course>
  <speed>3.16</speed>
  <fix>3d</fix>
</trkpt>
<trkpt lat="40.071872" lon="-105.2279064">
  <ele>1582.99</ele>
  <time>2026-08-28T17:53:01Z</time>
  <course>284.21</course>
  <speed>3.0348805577814755</speed>
  <fix>3d</fix>
</trkpt>
<trkpt lat="40.0718712" lon="-105.2279021">
  <ele>1583.0</ele>
  <time>2026-08-28T17:53:01Z</time>
  <course>284.1</course>
  <speed>3.09</speed>
  <fix>3d</fix>
</trkpt>
<trkpt lat="40.0718726" lon="-105.2279099">
  <ele>1582.99</ele>
  <time>2026-08-28T17:53:01Z</time>
  <course>283.31</course>
  <speed>3.0438133976970403</speed>
  <fix>3d</fix>
</trkpt>
<trkpt lat="40.0718712" lon="-105.2279021">
  <ele>1583.0</ele>
  <time>2026-08-28T17:53:01Z</time>
  <course>284.1</course>
  <speed>3.09</speed>
  <fix>3d</fix>
</trkpt>
<trkpt lat="40.0718732" lon="-105.2279135">
  <ele>1582.99</ele>
  <time>2026-08-28T17:53:01Z</time>
  <course>282.53</course>
  <speed>3.086907837950463</speed>
  <fix>3d</fix>
</trkpt>
<trkpt lat="40.0718725" lon="-105.2279092">
  <ele>1583.0</ele>
  <time>2026-08-28T17:53:01Z</time>
  <course>282.19</course>
  <speed>3.1</speed>
  <fix>3d</fix>
</trkpt>
<trkpt lat="40.0718737" lon="-105.2279172">
  <ele>1582.99</ele>
  <time>2026-08-28T17:53:01Z</time>
  <course>281.81</course>
  <speed>3.1403343771006296</speed>
  <fix>3d</fix>
</trkpt>
<trkpt lat="40.0718725" lon="-105.2279092">
  <ele>1583.0</ele>
  <time>2026-08-28T17:53:01Z</time>
  <course>282.19</course>
  <speed>3.1</speed>
  <fix>3d</fix>
</trkpt>
<trkpt lat="40.0718742" lon="-105.2279209">
  <ele>1582.99</ele>
  <time>2026-08-28T17:53:01Z</time>
  <course>281.03</course>
  <speed>3.2140006222774753</speed>
  <fix>3d</fix>
</trkpt>
<trkpt lat="40.0718735" lon="-105.2279164">
  <ele>1583.0</ele>
  <time>2026-08-28T17:53:01Z</time>
  <course>280.59</course>
  <speed>3.19</speed>
  <fix>3d</fix>
</trkpt>
<trkpt lat="40.0718747" lon="-105.2279248">
  <ele>1582.99</ele>
  <time>2026-08-28T17:53:01Z</time>
  <course>280.18</course>
  <speed>3.298120676991671</speed>
  <fix>3d</fix>
</trkpt>
<trkpt lat="40.0718735" lon="-105.2279164">
  <ele>1583.0</ele>
  <time>2026-08-28T17:53:01Z</time>
  <course>280.59</course>
  <speed>3.19</speed>
  <fix>3d</fix>
</trkpt>
<trkpt lat="40.0718751" lon="-105.2279288">
  <ele>1582.99</ele>
  <time>2026-08-28T17:53:01Z</time>
  <course>279.25</course>
  <speed>3.4026166401756166</speed>
  <fix>3d</fix>
</trkpt>
<trkpt lat="40.0718746" lon="-105.227924">
  <ele>1583.0</ele>
  <time>2026-08-28T17:53:01Z</time>
  <course>278.93</course>
  <speed>3.34</speed>
  <fix>3d</fix>
</trkpt>
<trkpt lat="40.0718755" lon="-105.2279329">
  <ele>1582.99</ele>
  <time>2026-08-28T17:53:01Z</time>
  <course>278.24</course>
  <speed>3.505253200554847</speed>
  <fix>3d</fix>
</trkpt>
<trkpt lat="40.0718746" lon="-105.227924">
  <ele>1583.0</ele>
  <time>2026-08-28T17:53:01Z</time>
  <course>278.93</course>
  <speed>3.34</speed>
  <fix>3d</fix>
</trkpt>
<trkpt lat="40.0718759" lon="-105.2279371">
  <ele>1582.99</ele>
  <time>2026-08-28T17:53:01Z</time>
  <course>277.13</course>
  <speed>3.618963940135353</speed>
  <fix>3d</fix>
</trkpt>
<trkpt lat="40.0718746" lon="-105.227924">
  <ele>1583.0</ele>
  <time>2026-08-28T17:53:01Z</time>
  <course>278.93</course>
  <speed>3.34</speed>
  <fix>3d</fix>
</trkpt>
<trkpt lat="40.0718762" lon="-105.2279414">
  <ele>1582.99</ele>
  <time>2026-08-28T17:53:01Z</time>
  <course>276.11</course>
  <speed>3.7229289544658246</speed>
  <fix>3d</fix>
</trkpt>
<trkpt lat="40.0718755" lon="-105.227932">
  <ele>1583.0</ele>
  <time>2026-08-28T17:53:01Z</time>
  <course>276.96</course>
  <speed>3.54</speed>
  <fix>3d</fix>
</trkpt>
<trkpt lat="40.0718765" lon="-105.2279459">
  <ele>1582.98</ele>
  <time>2026-08-28T17:53:01Z</time>
  <course>275.21</course>
  <speed>3.839505176451778</speed>
  <fix>3d</fix>
</trkpt>
<trkpt lat="40.0718755" lon="-105.227932">
  <ele>1583.0</ele>
  <time>2026-08-28T17:53:01Z</time>
  <course>276.96</course>
  <speed>3.54</speed>
  <fix>3d</fix>
</trkpt>
<trkpt lat="40.0718767" lon="-105.2279505">
  <ele>1582.98</ele>
  <time>2026-08-28T17:53:01Z</time>
  <course>274.39</course>
  <speed>3.966106403010388</speed>
  <fix>3d</fix>
</trkpt>
<trkpt lat="40.0718761" lon="-105.2279406">
  <ele>1583.0</ele>
  <time>2026-08-28T17:53:01Z</time>
  <course>274.92</course>
  <speed>3.76</speed>
  <fix>3d</fix>
</trkpt>
<trkpt lat="40.0718769" lon="-105.2279553">
  <ele>1582.98</ele>
  <time>2026-08-28T17:53:01Z</time>
  <course>273.66</course>
  <speed>4.083968658057993</speed>
  <fix>3d</fix>
</trkpt>
<trkpt lat="40.0718761" lon="-105.2279406">
  <ele>1583.0</ele>
  <time>2026-08-28T17:53:01Z</time>
  <course>274.92</course>
  <speed>3.76</speed>
  <fix>3d</fix>
</trkpt>
<trkpt lat="40.071877" lon="-105.2279602">
  <ele>1582.98</ele>
  <time>2026-08-28T17:53:01Z</time>
  <course>273.01</course>
  <speed>4.212327147788975</speed>
  <fix>3d</fix>
</trkpt>
<trkpt lat="40.0718765" lon="-105.2279497">
  <ele>1583.0</ele>
  <time>2026-08-28T17:53:01Z</time>
  <course>273.18</course>
  <speed>3.99</speed>
  <fix>3d</fix>
</trkpt>
<trkpt lat="40.0718771" lon="-105.2279652">
  <ele>1582.98</ele>
  <time>2026-08-28T17:53:01Z</time>
  <course>272.44</course>
  <speed>4.3411519208615585</speed>
  <fix>3d</fix>
</trkpt>
<trkpt lat="40.0718765" lon="-105.2279497">
  <ele>1583.0</ele>
  <time>2026-08-28T17:53:01Z</time>
  <course>273.18</course>
  <speed>3.99</speed>
  <fix>3d</fix>
</trkpt>
<trkpt lat="40.0718772" lon="-105.2279705">
  <ele>1582.98</ele>
  <time>2026-08-28T17:53:01Z</time>
  <course>271.92</course>
  <speed>4.470548064835004</speed>
  <fix>3d</fix>
</trkpt>
<trkpt lat="40.0718769" lon="-105.2279593">
  <ele>1583.0</ele>
  <time>2026-08-28T17:53:01Z</time>
  <course>271.8</course>
  <speed>4.24</speed>
  <fix>3d</fix>
</trkpt>
<trkpt lat="40.0718772" lon="-105.2279758">
  <ele>1582.98</ele>
  <time>2026-08-28T17:53:01Z</time>
  <course>271.45</course>
  <speed>4.590098038168684</speed>
  <fix>3d</fix>
</trkpt>
<trkpt lat="40.0718771" lon="-105.2279696">
  <ele>1583.0</ele>
  <time>2026-08-28T17:53:01Z</time>
  <course>270.69</course>
  <speed>4.49</speed>
  <fix>3d</fix>
</trkpt>
<trkpt lat="40.0718772" lon="-105.2279814">
  <ele>1582.97</ele>
  <time>2026-08-28T17:53:01Z</time>
  <course>271.03</course>
  <speed>4.71</speed>
  <fix>3d</fix>
</trkpt>
<trkpt lat="40.0718771" lon="-105.2279696">
  <ele>1583.0</ele>
  <time>2026-08-28T17:53:01Z</time>
  <course>270.69</course>
  <speed>4.49</speed>
  <fix>3d</fix>
</trkpt>
<trkpt lat="40.0718772" lon="-105.227987">
  <ele>1582.97</ele>
  <time>2026-08-28T17:53:01Z</time>
  <course>270.64</course>
  <speed>4.820041493597333</speed>
  <fix>3d</fix>
</trkpt>
<trkpt lat="40.0718771" lon="-105.2279804">
  <ele>1583.0</ele>
  <time>2026-08-28T17:53:01Z</time>
  <course>269.8</course>
  <speed>4.73</speed>
  <fix>3d</fix>
</trkpt>
<trkpt lat="40.0718771" lon="-105.2279928">
  <ele>1582.97</ele>
  <time>2026-08-28T17:53:01Z</time>
  <course>270.3</course>
  <speed>4.93025354317605</speed>
  <fix>3d</fix>
</trkpt>
<trkpt lat="40.0718771" lon="-105.2279804">
  <ele>1583.0</ele>
  <time>2026-08-28T17:53:01Z</time>
  <course>269.8</course>
  <speed>4.73</speed>
  <fix>3d</fix>
</trkpt>
<trkpt lat="40.071877" lon="-105.2279988">
  <ele>1582.97</ele>
  <time>2026-08-28T17:53:01Z</time>
  <course>269.97</course>
  <speed>5.020637409731956</speed>
  <fix>3d</fix>
</trkpt>
<trkpt lat="40.071877" lon="-105.2279918">
  <ele>1583.0</ele>
  <time>2026-08-28T17:53:01Z</time>
  <course>269.05</course>
  <speed>4.94</speed>
  <fix>3d</fix>
</trkpt>
<trkpt lat="40.0718769" lon="-105.2280048">
  <ele>1582.97</ele>
  <time>2026-08-28T17:53:01Z</time>
  <course>269.69</course>
  <speed>5.111183815908014</speed>
  <fix>3d</fix>
</trkpt>
<trkpt lat="40.071877" lon="-105.2279918">
  <ele>1583.0</ele>
  <time>2026-08-28T17:53:01Z</time>
  <course>269.05</course>
  <speed>4.94</speed>
  <fix>3d</fix>
</trkpt>
<trkpt lat="40.0718769" lon="-105.228011">
  <ele>1582.97</ele>
  <time>2026-08-28T17:53:01Z</time>
  <course>269.41</course>
  <speed>5.181631017353513</speed>
  <fix>3d</fix>
</trkpt>
<trkpt lat="40.0718769" lon="-105.2280035">
  <ele>1583.0</ele>
  <time>2026-08-28T17:53:01Z</time>
  <course>268.43</course>
  <speed>5.11</speed>
  <fix>3d</fix>
</trkpt>
<trkpt lat="40.0718767" lon="-105.2280173">
  <ele>1582.97</ele>
  <time>2026-08-28T17:53:01Z</time>
  <course>269.15</course>
  <speed>5.252437529376242</speed>
  <fix>3d</fix>
</trkpt>
<trkpt lat="40.0718769" lon="-105.2280035">
  <ele>1583.0</ele>
  <time>2026-08-28T17:53:01Z</time>
  <course>268.43</course>
  <speed>5.11</speed>
  <fix>3d</fix>
</trkpt>
<trkpt lat="40.0718766" lon="-105.2280235">
  <ele>1582.98</ele>
  <time>2026-08-28T17:53:01Z</time>
  <course>268.94</course>
  <speed>5.303055722882798</speed>
  <fix>3d</fix>
</trkpt>
<trkpt lat="40.0718766" lon="-105.2280157">
  <ele>1583.0</ele>
  <time>2026-08-28T17:53:01Z</time>
  <course>267.92</course>
  <speed>5.24</speed>
  <fix>3d</fix>
</trkpt>
<trkpt lat="40.0718764" lon="-105.2280299">
  <ele>1582.98</ele>
  <time>2026-08-28T17:53:01Z</time>
  <course>268.72</course>
  <speed>5.333751025310424</speed>
  <fix>3d</fix>
</trkpt>
<trkpt lat="40.0718766" lon="-105.2280157">
  <ele>1583.0</ele>
  <time>2026-08-28T17:53:01Z</time>
  <course>267.92</course>
  <speed>5.24</speed>
  <fix>3d</fix>
</trkpt>
<trkpt lat="40.0718761" lon="-105.2280362">
  <ele>1582.98</ele>
  <time>2026-08-28T17:53:01Z</time>
  <course>268.5</course>
  <speed>5.3645130254292415</speed>
  <fix>3d</fix>
</trkpt>
<trkpt lat="40.0718763" lon="-105.2280281">
  <ele>1583.0</ele>
  <time>2026-08-28T17:53:01Z</time>
  <course>267.47</course>
  <speed>5.33</speed>
  <fix>3d</fix>
</trkpt>
<trkpt lat="40.0718759" lon="-105.2280426">
  <ele>1582.99</ele>
  <time>2026-08-28T17:53:01Z</time>
  <course>268.31</course>
  <speed>5.375360453030104</speed>
  <fix>3d</fix>
</trkpt>
<trkpt lat="40.0718763" lon="-105.2280281">
  <ele>1583.0</ele>
  <time>2026-08-28T17:53:01Z</time>
  <course>267.47</course>
  <speed>5.33</speed>
  <fix>3d</fix>
</trkpt>
<trkpt lat="40.0718757" lon="-105.228049">
  <ele>1582.98</ele>
  <time>2026-08-28T17:53:01Z</time>
  <course>268.16</course>
  <speed>5.385805417948182</speed>
  <fix>3d</fix>
</trkpt>
<trkpt lat="40.0718758" lon="-105.2280406">
  <ele>1583.0</ele>
  <time>2026-08-28T17:53:01Z</time>
  <course>267.09</course>
  <speed>5.37</speed>
  <fix>3d</fix>
</trkpt>
<trkpt lat="40.0718754" lon="-105.2280553">
  <ele>1582.98</ele>
  <time>2026-08-28T17:53:01Z</time>
  <course>268.01</course>
  <speed>5.376783425060005</speed>
  <fix>3d</fix>
</trkpt>
<trkpt lat="40.0718758" lon="-105.2280406">
  <ele>1583.0</ele>
  <time>2026-08-28T17:53:01Z</time>
  <course>267.09</course>
  <speed>5.37</speed>
  <fix>3d</fix>
</trkpt>
<trkpt lat="40.0718751" lon="-105.2280617">
  <ele>1582.98</ele>
  <time>2026-08-28T17:53:01Z</time>
  <course>267.86</course>
  <speed>5.367308450238351</speed>
  <fix>3d</fix>
</trkpt>
<trkpt lat="40.0718758" lon="-105.2280406">
  <ele>1583.0</ele>
  <time>2026-08-28T17:53:01Z</time>
  <course>267.09</course>
  <speed>5.37</speed>
  <fix>3d</fix>
</trkpt>
<trkpt lat="40.0718748" lon="-105.2280679">
  <ele>1582.98</ele>
  <time>2026-08-28T17:53:01Z</time>
  <course>267.71</course>
  <speed>5.347868734365121</speed>
  <fix>3d</fix>
</trkpt>
<trkpt lat="40.0718753" lon="-105.2280533">
  <ele>1583.0</ele>
  <time>2026-08-28T17:53:01Z</time>
  <course>266.77</course>
  <speed>5.37</speed>
  <fix>3d</fix>
</trkpt>
<trkpt lat="40.0718746" lon="-105.2280742">
  <ele>1582.99</ele>
  <time>2026-08-28T17:53:01Z</time>
  <course>267.57</course>
  <speed>5.3290243009391505</speed>
  <fix>3d</fix>
</trkpt>
<trkpt lat="40.0718753" lon="-105.2280533">
  <ele>1583.0</ele>
  <time>2026-08-28T17:53:01Z</time>
  <course>266.77</course>
  <speed>5.37</speed>
  <fix>3d</fix>
</trkpt>
<trkpt lat="40.0718742" lon="-105.2280804">
  <ele>1582.99</ele>
  <time>2026-08-28T17:53:01Z</time>
  <course>267.42</course>
  <speed>5.299669801034778</speed>
  <fix>3d</fix>
</trkpt>
<trkpt lat="40.0718746" lon="-105.2280659">
  <ele>1583.0</ele>
  <time>2026-08-28T17:53:01Z</time>
  <course>266.48</course>
  <speed>5.34</speed>
  <fix>3d</fix>
</trkpt>
<trkpt lat="40.0718739" lon="-105.2280865">
  <ele>1582.99</ele>
  <time>2026-08-28T17:53:01Z</time>
  <course>267.17</course>
  <speed>5.270977139013221</speed>
  <fix>3d</fix>
</trkpt>
<trkpt lat="40.0718746" lon="-105.2280659">
  <ele>1583.0</ele>
  <time>2026-08-28T17:53:01Z</time>
  <course>266.48</course>
  <speed>5.34</speed>
  <fix>3d</fix>
</trkpt>
<trkpt lat="40.0718736" lon="-105.2280926">
  <ele>1583.0</ele>
  <time>2026-08-28T17:53:01Z</time>
  <course>266.83</course>
  <speed>5.243071618812774</speed>
  <fix>3d</fix>
</trkpt>
<trkpt lat="40.0718741" lon="-105.2280783">
  <ele>1583.0</ele>
  <time>2026-08-28T17:53:01Z</time>
  <course>266.14</course>
  <speed>5.3</speed>
  <fix>3d</fix>
</trkpt>
<trkpt lat="40.0718732" lon="-105.2280987">
  <ele>1583.0</ele>
  <time>2026-08-28T17:53:01Z</time>
  <course>266.37</course>
  <speed>5.206169417143473</speed>
  <fix>3d</fix>
</trkpt>
<trkpt lat="40.0718734" lon="-105.2280907">
  <ele>1583.0</ele>
  <time>2026-08-28T17:53:01Z</time>
  <course>265.55</course>
  <speed>5.24</speed>
  <fix>3d</fix>
</trkpt>
<trkpt lat="40.0718728" lon="-105.2281048">
  <ele>1583.0</ele>
  <time>2026-08-28T17:53:01Z</time>
  <course>265.86</course>
  <speed>5.180463299744531</speed>
  <fix>3d</fix>
</trkpt>
<trkpt lat="40.0718734" lon="-105.2280907">
  <ele>1583.0</ele>
  <time>2026-08-28T17:53:01Z</time>
  <course>265.55</course>
  <speed>5.24</speed>
  <fix>3d</fix>
</trkpt>
<trkpt lat="40.0718723" lon="-105.2281108">
  <ele>1583.0</ele>
  <time>2026-08-28T17:53:01Z</time>
  <course>265.36</course>
  <speed>5.154308877046466</speed>
  <fix>3d</fix>
</trkpt>
<trkpt lat="40.0718726" lon="-105.2281029">
  <ele>1583.0</ele>
  <time>2026-08-28T17:53:01Z</time>
  <course>264.65</course>
  <speed>5.19</speed>
  <fix>3d</fix>
</trkpt>
<trkpt lat="40.0718718" lon="-105.2281168">
  <ele>1583.0</ele>
  <time>2026-08-28T17:53:01Z</time>
  <course>264.95</course>
  <speed>5.128508555125944</speed>
  <fix>3d</fix>
</trkpt>
<trkpt lat="40.0718726" lon="-105.2281029">
  <ele>1583.0</ele>
  <time>2026-08-28T17:53:01Z</time>
  <course>264.65</course>
  <speed>5.19</speed>
  <fix>3d</fix>
</trkpt>
<trkpt lat="40.0718713" lon="-105.2281228">
  <ele>1583.0</ele>
  <time>2026-08-28T17:53:01Z</time>
  <course>264.53</course>
  <speed>5.1019408071830865</speed>
  <fix>3d</fix>
</trkpt>
<trkpt lat="40.0718717" lon="-105.228115">
  <ele>1583.0</ele>
  <time>2026-08-28T17:53:01Z</time>
  <course>263.73</course>
  <speed>5.13</speed>
  <fix>3d</fix>
</trkpt>
<trkpt lat="40.0718707" lon="-105.2281288">
  <ele>1583.0</ele>
  <time>2026-08-28T17:53:01Z</time>
  <course>264.17</course>
  <speed>5.075588635813585</speed>
  <fix>3d</fix>
</trkpt>
<trkpt lat="40.0718717" lon="-105.228115">
  <ele>1583.0</ele>
  <time>2026-08-28T17:53:01Z</time>
  <course>263.73</course>
  <speed>5.13</speed>
  <fix>3d</fix>
</trkpt>
<trkpt lat="40.0718701" lon="-105.2281347">
  <ele>1583.0</ele>
  <time>2026-08-28T17:53:01Z</time>
  <course>263.82</course>
  <speed>5.049455416181036</speed>
  <fix>3d</fix>
</trkpt>
<trkpt lat="40.0718706" lon="-105.2281269">
  <ele>1583.0</ele>
  <time>2026-08-28T17:53:01Z</time>
  <course>262.96</course>
  <speed>5.09</speed>
  <fix>3d</fix>
</trkpt>
<trkpt lat="40.0718695" lon="-105.2281406">
  <ele>1582.99</ele>
  <time>2026-08-28T17:53:01Z</time>
  <course>263.49</course>
  <speed>5.0334580558498745</speed>
  <fix>3d</fix>
</trkpt>
<trkpt lat="40.0718706" lon="-105.2281269">
  <ele>1583.0</ele>
  <time>2026-08-28T17:53:01Z</time>
  <course>262.96</course>
  <speed>5.09</speed>
  <fix>3d</fix>
</trkpt>
<trkpt lat="40.0718689" lon="-105.2281465">
  <ele>1582.99</ele>
  <time>2026-08-28T17:53:01Z</time>
  <course>263.08</course>
  <speed>5.017668781416326</speed>
  <fix>3d</fix>
</trkpt>
<trkpt lat="40.0718695" lon="-105.2281387">
  <ele>1583.0</ele>
  <time>2026-08-28T17:53:01Z</time>
  <course>262.24</course>
  <speed>5.04</speed>
  <fix>3d</fix>
</trkpt>
<trkpt lat="40.0718682" lon="-105.2281524">
  <ele>1582.99</ele>
  <time>2026-08-28T17:53:01Z</time>
  <course>262.58</course>
  <speed>5.005007492501885</speed>
  <fix>3d</fix>
</trkpt>
<trkpt lat="40.0718695" lon="-105.2281387">
  <ele>1583.0</ele>
  <time>2026-08-28T17:53:01Z</time>
  <course>262.24</course>
  <speed>5.04</speed>
  <fix>3d</fix>
</trkpt>
<trkpt lat="40.0718675" lon="-105.2281582">
  <ele>1582.98</ele>
  <time>2026-08-28T17:53:01Z</time>
  <course>261.97</course>
  <speed>4.983021171939771</speed>
  <fix>3d</fix>
</trkpt>
<trkpt lat="40.0718682" lon="-105.2281504">
  <ele>1583.0</ele>
  <time>2026-08-28T17:53:01Z</time>
  <course>261.32</course>
  <speed>5.01</speed>
  <fix>3d</fix>
</trkpt>
<trkpt lat="40.0718667" lon="-105.228164">
  <ele>1582.98</ele>
  <time>2026-08-28T17:53:01Z</time>
  <course>261.34</course>
  <speed>4.971478653278117</speed>
  <fix>3d</fix>
</trkpt>
<trkpt lat="40.0718682" lon="-105.2281504">
  <ele>1583.0</ele>
  <time>2026-08-28T17:53:01Z</time>
  <course>261.32</course>
  <speed>5.01</speed>
  <fix>3d</fix>
</trkpt>
<trkpt lat="40.0718659" lon="-105.2281698">
  <ele>1582.98</ele>
  <time>2026-08-28T17:53:01Z</time>
  <course>260.79</course>
  <speed>4.970331980864055</speed>
  <fix>3d</fix>
</trkpt>
<trkpt lat="40.0718667" lon="-105.228162">
  <ele>1583.0</ele>
  <time>2026-08-28T17:53:01Z</time>
  <course>260.17</course>
  <speed>4.98</speed>
  <fix>3d</fix>
</trkpt>
<trkpt lat="40.071865" lon="-105.2281755">
  <ele>1582.98</ele>
  <time>2026-08-28T17:53:01Z</time>
  <course>260.27</course>
  <speed>4.958003630494838</speed>
  <fix>3d</fix>
</trkpt>
<trkpt lat="40.0718667" lon="-105.228162">
  <ele>1583.0</ele>
  <time>2026-08-28T17:53:01Z</time>
  <course>260.17</course>
  <speed>4.98</speed>
  <fix>3d</fix>
</trkpt>
<trkpt lat="40.0718642" lon="-105.2281812">
  <ele>1582.98</ele>
  <time>2026-08-28T17:53:01Z</time>
  <course>259.8</course>
  <speed>4.946048928185001</speed>
  <fix>3d</fix>
</trkpt>
<trkpt lat="40.0718667" lon="-105.228162">
  <ele>1583.0</ele>
  <time>2026-08-28T17:53:01Z</time>
  <course>260.17</course>
  <speed>4.98</speed>
  <fix>3d</fix>
</trkpt>
<trkpt lat="40.0718633" lon="-105.2281869">
  <ele>1582.98</ele>
  <time>2026-08-28T17:53:01Z</time>
  <course>259.35</course>
  <speed>4.944259297407449</speed>
  <fix>3d</fix>
</trkpt>
<trkpt lat="40.0718651" lon="-105.2281735">
  <ele>1583.0</ele>
  <time>2026-08-28T17:53:01Z</time>
  <course>259.08</course>
  <speed>4.96</speed>
  <fix>3d</fix>
</trkpt>
<trkpt lat="40.0718623" lon="-105.2281926">
  <ele>1582.99</ele>
  <time>2026-08-28T17:53:01Z</time>
  <course>258.95</course>
  <speed>4.940698331207846</speed>
  <fix>3d</fix>
</trkpt>
<trkpt lat="40.0718651" lon="-105.2281735">
  <ele>1583.0</ele>
  <time>2026-08-28T17:53:01Z</time>
  <course>259.08</course>
  <speed>4.96</speed>
  <fix>3d</fix>
</trkpt>
<trkpt lat="40.0718613" lon="-105.2281982">
  <ele>1582.99</ele>
  <time>2026-08-28T17:53:01Z</time>
  <course>258.57</course>
  <speed>4.937337339092803</speed>
  <fix>3d</fix>
</trkpt>
<trkpt lat="40.0718633" lon="-105.2281849">
  <ele>1583.0</ele>
  <time>2026-08-28T17:53:01Z</time>
  <course>258.16</course>
  <speed>4.95</speed>
  <fix>3d</fix>
</trkpt>
<trkpt lat="40.0718604" lon="-105.2282038">
  <ele>1582.99</ele>
  <time>2026-08-28T17:53:01Z</time>
  <course>258.23</course>
  <speed>4.934176729708818</speed>
  <fix>3d</fix>
</trkpt>
<trkpt lat="40.0718633" lon="-105.2281849">
  <ele>1583.0</ele>
  <time>2026-08-28T17:53:01Z</time>
  <course>258.16</course>
  <speed>4.95</speed>
  <fix>3d</fix>
</trkpt>
<trkpt lat="40.0718593" lon="-105.2282094">
  <ele>1583.0</ele>
  <time>2026-08-28T17:53:01Z</time>
  <course>257.94</course>
  <speed>4.931216888355246</speed>
  <fix>3d</fix>
</trkpt>
<trkpt lat="40.0718614" lon="-105.2281962">
  <ele>1583.0</ele>
  <time>2026-08-28T17:53:01Z</time>
  <course>257.37</course>
  <speed>4.95</speed>
  <fix>3d</fix>
</trkpt>
<trkpt lat="40.0718583" lon="-105.2282149">
  <ele>1583.0</ele>
  <time>2026-08-28T17:53:01Z</time>
  <course>257.67</course>
  <speed>4.935838327984416</speed>
  <fix>3d</fix>
</trkpt>
<trkpt lat="40.0718614" lon="-105.2281962">
  <ele>1583.0</ele>
  <time>2026-08-28T17:53:01Z</time>
  <course>257.37</course>
  <speed>4.95</speed>
  <fix>3d</fix>
</trkpt>
<trkpt lat="40.0718572" lon="-105.2282206">
  <ele>1583.0</ele>
  <time>2026-08-28T17:53:01Z</time>
  <course>257.4</course>
  <speed>4.930821432580985</speed>
  <fix>3d</fix>
</trkpt>
<trkpt lat="40.0718595" lon="-105.2282076">
  <ele>1583.0</ele>
  <time>2026-08-28T17:53:01Z</time>
  <course>256.73</course>
  <speed>4.95</speed>
  <fix>3d</fix>
</trkpt>
<trkpt lat="40.0718562" lon="-105.2282262">
  <ele>1583.0</ele>
  <time>2026-08-28T17:53:01Z</time>
  <course>257.16</course>
  <speed>4.935605332682102</speed>
  <fix>3d</fix>
</trkpt>
<trkpt lat="40.0718574" lon="-105.2282189">
  <ele>1583.0</ele>
  <time>2026-08-28T17:53:01Z</time>
  <course>256.19</course>
  <speed>4.96</speed>
  <fix>3d</fix>
</trkpt>
<trkpt lat="40.0718551" lon="-105.2282318">
  <ele>1583.0</ele>
  <time>2026-08-28T17:53:01Z</time>
  <course>256.96</course>
  <speed>4.940465565106187</speed>
  <fix>3d</fix>
</trkpt>
<trkpt lat="40.0718574" lon="-105.2282189">
  <ele>1583.0</ele>
  <time>2026-08-28T17:53:01Z</time>
  <course>256.19</course>
  <speed>4.96</speed>
  <fix>3d</fix>
</trkpt>
<trkpt lat="40.071854" lon="-105.2282374">
  <ele>1583.0</ele>
  <time>2026-08-28T17:53:01Z</time>
  <course>256.76</course>
  <speed>4.945401904800054</speed>
  <fix>3d</fix>
</trkpt>
<trkpt lat="40.0718552" lon="-105.2282302">
  <ele>1583.0</ele>
  <time>2026-08-28T17:53:01Z</time>
  <course>255.73</course>
  <speed>4.97</speed>
  <fix>3d</fix>
</trkpt>
<trkpt lat="40.0718528" lon="-105.228243">
  <ele>1583.0</ele>
  <time>2026-08-28T17:53:01Z</time>
  <course>256.56</course>
  <speed>4.950414124091035</speed>
  <fix>3d</fix>
</trkpt>
<trkpt lat="40.0718552" lon="-105.2282302">
  <ele>1583.0</ele>
  <time>2026-08-28T17:53:01Z</time>
  <course>255.73</course>
  <speed>4.97</speed>
  <fix>3d</fix>
</trkpt>
<trkpt lat="40.0718517" lon="-105.2282487">
  <ele>1583.0</ele>
  <time>2026-08-28T17:53:01Z</time>
  <course>256.38</course>
  <speed>4.952948616733269</speed>
  <fix>3d</fix>
</trkpt>
<trkpt lat="40.071853" lon="-105.2282415">
  <ele>1583.0</ele>
  <time>2026-08-28T17:53:01Z</time>
  <course>255.34</course>
  <speed>4.98</speed>
  <fix>3d</fix>
</trkpt>
<trkpt lat="40.0718505" lon="-105.2282544">
  <ele>1583.0</ele>
  <time>2026-08-28T17:53:01Z</time>
  <course>256.25</course>
  <speed>4.9677359028032075</speed>
  <fix>3d</fix>
</trkpt>
<trkpt lat="40.071853" lon="-105.2282415">
  <ele>1583.0</ele>
  <time>2026-08-28T17:53:01Z</time>
  <course>255.34</course>
  <speed>4.98</speed>
  <fix>3d</fix>
</trkpt>
<trkpt lat="40.0718493" lon="-105.2282601">
  <ele>1583.0</ele>
  <time>2026-08-28T17:53:01Z</time>
  <course>256.11</course>
  <speed>4.9703219211636585</speed>
  <fix>3d</fix>
</trkpt>
<trkpt lat="40.0718507" lon="-105.2282529">
  <ele>1583.0</ele>
  <time>2026-08-28T17:53:01Z</time>
  <course>255.01</course>
  <speed>4.99</speed>
  <fix>3d</fix>
</trkpt>
<trkpt lat="40.0718481" lon="-105.2282658">
  <ele>1583.0</ele>
  <time>2026-08-28T17:53:01Z</time>
  <course>255.98</course>
  <speed>4.972926703662543</speed>
  <fix>3d</fix>
</trkpt>
<trkpt lat="40.0718507" lon="-105.2282529">
  <ele>1583.0</ele>
  <time>2026-08-28T17:53:01Z</time>
  <course>255.01</course>
  <speed>4.99</speed>
  <fix>3d</fix>
</trkpt>
<trkpt lat="40.0718469" lon="-105.2282715">
  <ele>1583.0</ele>
  <time>2026-08-28T17:53:01Z</time>
  <course>255.84</course>
  <speed>4.987835201768398</speed>
  <fix>3d</fix>
</trkpt>
<trkpt lat="40.0718483" lon="-105.2282642">
  <ele>1583.0</ele>
  <time>2026-08-28T17:53:01Z</time>
  <course>254.74</course>
  <speed>5.01</speed>
  <fix>3d</fix>
</trkpt>
<trkpt lat="40.0718457" lon="-105.2282772">
  <ele>1582.99</ele>
  <time>2026-08-28T17:53:01Z</time>
  <course>255.71</course>
  <speed>4.990490957811666</speed>
  <fix>3d</fix>
</trkpt>
<trkpt lat="40.0718483" lon="-105.2282642">
  <ele>1583.0</ele>
  <time>2026-08-28T17:53:01Z</time>
  <course>254.74</course>
  <speed>5.01</speed>
  <fix>3d</fix>
</trkpt>
<trkpt lat="40.0718445" lon="-105.2282829">
  <ele>1583.0</ele>
  <time>2026-08-28T17:53:01Z</time>
  <course>255.57</course>
  <speed>4.9931653287268585</speed>
  <fix>3d</fix>
</trkpt>
<trkpt lat="40.071846" lon="-105.2282755">
  <ele>1583.0</ele>
  <time>2026-08-28T17:53:01Z</time>
  <course>254.47</course>
  <speed>5.01</speed>
  <fix>3d</fix>
</trkpt>
<trkpt lat="40.0718433" lon="-105.2282886">
  <ele>1583.0</ele>
  <time>2026-08-28T17:53:01Z</time>
  <course>255.49</course>
  <speed>4.995858284619371</speed>
  <fix>3d</fix>
</trkpt>
<trkpt lat="40.071846" lon="-105.2282755">
  <ele>1583.0</ele>
  <time>2026-08-28T17:53:01Z</time>
  <course>254.47</course>
  <speed>5.01</speed>
  <fix>3d</fix>
</trkpt>
<trkpt lat="40.071842" lon="-105.2282943">
  <ele>1583.0</ele>
  <time>2026-08-28T17:53:01Z</time>
  <course>255.4</course>
  <speed>4.998569795451495</speed>
  <fix>3d</fix>
</trkpt>
<trkpt lat="40.0718435" lon="-105.2282869">
  <ele>1583.0</ele>
  <time>2026-08-28T17:53:01Z</time>
  <course>254.25</course>
  <speed>5.02</speed>
  <fix>3d</fix>
</trkpt>
<trkpt lat="40.0718408" lon="-105.2283">
  <ele>1582.99</ele>
  <time>2026-08-28T17:53:01Z</time>
  <course>255.33</course>
  <speed>4.998569795451495</speed>
  <fix>3d</fix>
</trkpt>
<trkpt lat="40.0718435" lon="-105.2282869">
  <ele>1583.0</ele>
  <time>2026-08-28T17:53:01Z</time>
  <course>254.25</course>
  <speed>5.02</speed>
  <fix>3d</fix>
</trkpt>
<trkpt lat="40.0718395" lon="-105.2283057">
  <ele>1582.99</ele>
  <time>2026-08-28T17:53:01Z</time>
  <course>255.26</course>
  <speed>5.001299831043926</speed>
  <fix>3d</fix>
</trkpt>
<trkpt lat="40.0718435" lon="-105.2282869">
  <ele>1583.0</ele>
  <time>2026-08-28T17:53:01Z</time>
  <course>254.25</course>
  <speed>5.02</speed>
  <fix>3d</fix>
</trkpt>
<trkpt lat="40.0718383" lon="-105.2283114">
  <ele>1582.99</ele>
  <time>2026-08-28T17:53:01Z</time>
  <course>255.2</course>
  <speed>5.001299831043926</speed>
  <fix>3d</fix>
</trkpt>
<trkpt lat="40.071841" lon="-105.2282982">
  <ele>1583.0</ele>
  <time>2026-08-28T17:53:01Z</time>
  <course>254.09</course>
  <speed>5.02</speed>
  <fix>3d</fix>
</trkpt>
<trkpt lat="40.071837" lon="-105.228317">
  <ele>1582.99</ele>
  <time>2026-08-28T17:53:01Z</time>
  <course>255.13</course>
  <speed>5.004048361077259</speed>
  <fix>3d</fix>
</trkpt>
<trkpt lat="40.071841" lon="-105.2282982">
  <ele>1583.0</ele>
  <time>2026-08-28T17:53:01Z</time>
  <course>254.09</course>
  <speed>5.02</speed>
  <fix>3d</fix>
</trkpt>
<trkpt lat="40.0718358" lon="-105.2283226">
  <ele>1582.99</ele>
  <time>2026-08-28T17:53:01Z</time>
  <course>255.06</course>
  <speed>4.994436905197622</speed>
  <fix>3d</fix>
</trkpt>
<trkpt lat="40.0718385" lon="-105.2283097">
  <ele>1583.0</ele>
  <time>2026-08-28T17:53:01Z</time>
  <course>253.95</course>
  <speed>5.03</speed>
  <fix>3d</fix>
</trkpt>
<trkpt lat="40.0718345" lon="-105.2283282">
  <ele>1582.99</ele>
  <time>2026-08-28T17:53:01Z</time>
  <course>255.0</course>
  <speed>4.997209221155344</speed>
  <fix>3d</fix>
</trkpt>
<trkpt lat="40.0718385" lon="-105.2283097">
  <ele>1583.0</ele>
  <time>2026-08-28T17:53:01Z</time>
  <course>253.95</course>
  <speed>5.03</speed>
  <fix>3d</fix>
</trkpt>
<trkpt lat="40.0718333" lon="-105.2283338">
  <ele>1583.0</ele>
  <time>2026-08-28T17:53:01Z</time>
  <course>254.93</course>
  <speed>4.997209221155344</speed>
  <fix>3d</fix>
</trkpt>
<trkpt lat="40.071836" lon="-105.228321">
  <ele>1583.0</ele>
  <time>2026-08-28T17:53:01Z</time>
  <course>253.82</course>
  <speed>5.03</speed>
  <fix>3d</fix>
</trkpt>
<trkpt lat="40.071832" lon="-105.2283395">
  <ele>1583.0</ele>
  <time>2026-08-28T17:53:01Z</time>
  <course>254.86</course>
  <speed>5.0</speed>
  <fix>3d</fix>
</trkpt>
<trkpt lat="40.0718335" lon="-105.2283324">
  <ele>1583.0</ele>
  <time>2026-08-28T17:53:01Z</time>
  <course>253.68</course>
  <speed>5.03</speed>
  <fix>3d</fix>
</trkpt>
<trkpt lat="40.0718307" lon="-105.2283452">
  <ele>1583.0</ele>
  <time>2026-08-28T17:53:01Z</time>
  <course>254.8</course>
  <speed>4.990400785508114</speed>
  <fix>3d</fix>
</trkpt>
<trkpt lat="40.0718335" lon="-105.2283324">
  <ele>1583.0</ele>
  <time>2026-08-28T17:53:01Z</time>
  <course>253.68</course>
  <speed>5.03</speed>
  <fix>3d</fix>
</trkpt>
<trkpt lat="40.0718294" lon="-105.2283508">
  <ele>1583.0</ele>
  <time>2026-08-28T17:53:01Z</time>
  <course>254.73</course>
  <speed>4.993215396916099</speed>
  <fix>3d</fix>
</trkpt>
<trkpt lat="40.0718309" lon="-105.2283437">
  <ele>1583.0</ele>
  <time>2026-08-28T17:53:01Z</time>
  <course>253.54</course>
  <speed>5.03</speed>
  <fix>3d</fix>
</trkpt>
<trkpt lat="40.0718282" lon="-105.2283565">
  <ele>1583.01</ele>
  <time>2026-08-28T17:53:02Z</time>
  <course>254.66</course>
  <speed>4.993215396916099</speed>
  <fix>3d</fix>
</trkpt>
<trkpt lat="40.0718309" lon="-105.2283437">
  <ele>1583.0</ele>
  <time>2026-08-28T17:53:02Z</time>
  <course>253.54</course>
  <speed>5.03</speed>
  <fix>3d</fix>
</trkpt>
<trkpt lat="40.0718269" lon="-105.2283621">
  <ele>1583.01</ele>
  <time>2026-08-28T17:53:02Z</time>
  <course>254.59</course>
  <speed>4.996048438516184</speed>
  <fix>3d</fix>
</trkpt>
<trkpt lat="40.0718284" lon="-105.228355">
  <ele>1583.0</ele>
  <time>2026-08-28T17:53:02Z</time>
  <course>253.41</course>
  <speed>5.03</speed>
  <fix>3d</fix>
</trkpt>
<trkpt lat="40.0718256" lon="-105.2283678">
  <ele>1583.01</ele>
  <time>2026-08-28T17:53:02Z</time>
  <course>254.52</course>
  <speed>4.998899878973373</speed>
  <fix>3d</fix>
</trkpt>
<trkpt lat="40.0718284" lon="-105.228355">
  <ele>1583.0</ele>
  <time>2026-08-28T17:53:02Z</time>
  <course>253.41</course>
  <speed>5.03</speed>
  <fix>3d</fix>
</trkpt>
<trkpt lat="40.0718242" lon="-105.2283735">
  <ele>1583.01</ele>
  <time>2026-08-28T17:53:02Z</time>
  <course>254.45</course>
  <speed>4.998899878973373</speed>
  <fix>3d</fix>
</trkpt>
<trkpt lat="40.0718258" lon="-105.2283664">
  <ele>1583.0</ele>
  <time>2026-08-28T17:53:02Z</time>
  <course>253.27</course>
  <speed>5.03</speed>
  <fix>3d</fix>
</trkpt>
<trkpt lat="40.0718229" lon="-105.2283793">
  <ele>1583.01</ele>
  <time>2026-08-28T17:53:02Z</time>
  <course>254.39</course>
  <speed>5.001769686820856</speed>
  <fix>3d</fix>
</trkpt>
<trkpt lat="40.0718258" lon="-105.2283664">
  <ele>1583.0</ele>
  <time>2026-08-28T17:53:02Z</time>
  <course>253.27</course>
  <speed>5.03</speed>
  <fix>3d</fix>
</trkpt>
<trkpt lat="40.0718216" lon="-105.228385">
  <ele>1583.01</ele>
  <time>2026-08-28T17:53:02Z</time>
  <course>254.32</course>
  <speed>5.001769686820856</speed>
  <fix>3d</fix>
</trkpt>
<trkpt lat="40.0718232" lon="-105.2283777">
  <ele>1583.0</ele>
  <time>2026-08-28T17:53:02Z</time>
  <course>253.13</course>
  <speed>5.03</speed>
  <fix>3d</fix>
</trkpt>
<trkpt lat="40.0718203" lon="-105.2283907">
  <ele>1583.01</ele>
  <time>2026-08-28T17:53:02Z</time>
  <course>254.25</course>
  <speed>5.004657830461539</speed>
  <fix>3d</fix>
</trkpt>
<trkpt lat="40.0718232" lon="-105.2283777">
  <ele>1583.0</ele>
  <time>2026-08-28T17:53:02Z</time>
  <course>253.13</course>
  <speed>5.03</speed>
  <fix>3d</fix>
</trkpt>
<trkpt lat="40.071819" lon="-105.2283963">
  <ele>1583.01</ele>
  <time>2026-08-28T17:53:02Z</time>
  <course>254.21</course>
  <speed>5.004657830461539</speed>
  <fix>3d</fix>
</trkpt>
<trkpt lat="40.0718205" lon="-105.228389">
  <ele>1583.0</ele>
  <time>2026-08-28T17:53:02Z</time>
  <course>253.01</course>
  <speed>5.03</speed>
  <fix>3d</fix>
</trkpt>
<trkpt lat="40.0718176" lon="-105.228402">
  <ele>1583.01</ele>
  <time>2026-08-28T17:53:02Z</time>
  <course>254.15</course>
  <speed>5.004657830461539</speed>
  <fix>3d</fix>
</trkpt>
<trkpt lat="40.0718205" lon="-105.228389">
  <ele>1583.0</ele>
  <time>2026-08-28T17:53:02Z</time>
  <course>253.01</course>
  <speed>5.03</speed>
  <fix>3d</fix>
</trkpt>
<trkpt lat="40.0718163" lon="-105.2284077">
  <ele>1583.01</ele>
  <time>2026-08-28T17:53:02Z</time>
  <course>254.11</course>
  <speed>5.0075642781695775</speed>
  <fix>3d</fix>
</trkpt>
<trkpt lat="40.0718179" lon="-105.2284003">
  <ele>1583.0</ele>
  <time>2026-08-28T17:53:02Z</time>
  <course>252.91</course>
  <speed>5.03</speed>
  <fix>3d</fix>
</trkpt>
<trkpt lat="40.0718149" lon="-105.2284134">
  <ele>1583.01</ele>
  <time>2026-08-28T17:53:02Z</time>
  <course>254.1</course>
  <speed>5.0075642781695775</speed>
  <fix>3d</fix>
</trkpt>
<trkpt lat="40.0718179" lon="-105.2284003">
  <ele>1583.0</ele>
  <time>2026-08-28T17:53:02Z</time>
  <course>252.91</course>
  <speed>5.03</speed>
  <fix>3d</fix>
</trkpt>
<trkpt lat="40.0718136" lon="-105.228419">
  <ele>1583.01</ele>
  <time>2026-08-28T17:53:02Z</time>
  <course>254.07</course>
  <speed>4.99799959983992</speed>
  <fix>3d</fix>
</trkpt>
<trkpt lat="40.0718179" lon="-105.2284003">
  <ele>1583.0</ele>
  <time>2026-08-28T17:53:02Z</time>
  <course>252.91</course>
  <speed>5.03</speed>
  <fix>3d</fix>
</trkpt>
<trkpt lat="40.0718123" lon="-105.2284246">
  <ele>1583.01</ele>
  <time>2026-08-28T17:53:02Z</time>
  <course>254.04</course>
  <speed>4.99799959983992</speed>
  <fix>3d</fix>
</trkpt>
<trkpt lat="40.0718152" lon="-105.2284116">
  <ele>1583.0</ele>
  <time>2026-08-28T17:53:02Z</time>
  <course>252.84</course>
  <speed>5.03</speed>
  <fix>3d</fix>
</trkpt>
<trkpt lat="40.071811" lon="-105.2284303">
  <ele>1583.01</ele>
  <time>2026-08-28T17:53:02Z</time>
  <course>254.0</course>
  <speed>4.99799959983992</speed>
  <fix>3d</fix>
</trkpt>
<trkpt lat="40.0718152" lon="-105.2284116">
  <ele>1583.0</ele>
  <time>2026-08-28T17:53:02Z</time>
  <course>252.84</course>
  <speed>5.03</speed>
  <fix>3d</fix>
</trkpt>
<trkpt lat="40.0718096" lon="-105.2284358">
  <ele>1583.01</ele>
  <time>2026-08-28T17:53:02Z</time>
  <course>253.94</course>
  <speed>4.991372556722249</speed>
  <fix>3d</fix>
</trkpt>
<trkpt lat="40.0718125" lon="-105.2284229">
  <ele>1583.0</ele>
  <time>2026-08-28T17:53:02Z</time>
  <course>252.79</course>
  <speed>5.03</speed>
  <fix>3d</fix>
</trkpt>
<trkpt lat="40.0718083" lon="-105.2284414">
  <ele>1583.02</ele>
  <time>2026-08-28T17:53:02Z</time>
  <course>253.91</course>
  <speed>4.991372556722249</speed>
  <fix>3d</fix>
</trkpt>
<trkpt lat="40.0718125" lon="-105.2284229">
  <ele>1583.0</ele>
  <time>2026-08-28T17:53:02Z</time>
  <course>252.79</course>
  <speed>5.03</speed>
  <fix>3d</fix>
</trkpt>
<trkpt lat="40.071807" lon="-105.228447">
  <ele>1583.02</ele>
  <time>2026-08-28T17:53:02Z</time>
  <course>253.87</course>
  <speed>4.991372556722249</speed>
  <fix>3d</fix>
</trkpt>
<trkpt lat="40.0718098" lon="-105.2284342">
  <ele>1583.0</ele>
  <time>2026-08-28T17:53:02Z</time>
  <course>252.7</course>
  <speed>5.02</speed>
  <fix>3d</fix>
</trkpt>
<trkpt lat="40.0718056" lon="-105.2284526">
  <ele>1583.02</ele>
  <time>2026-08-28T17:53:02Z</time>
  <course>253.83</course>
  <speed>4.991372556722249</speed>
  <fix>3d</fix>
</trkpt>
<trkpt lat="40.0718098" lon="-105.2284342">
  <ele>1583.0</ele>
  <time>2026-08-28T17:53:02Z</time>
  <course>252.7</course>
  <speed>5.02</speed>
  <fix>3d</fix>
</trkpt>
<trkpt lat="40.0718043" lon="-105.2284582">
  <ele>1583.03</ele>
  <time>2026-08-28T17:53:02Z</time>
  <course>253.83</course>
  <speed>4.981816937624264</speed>
  <fix>3d</fix>
</trkpt>
<trkpt lat="40.0718071" lon="-105.2284455">
  <ele>1583.0</ele>
  <time>2026-08-28T17:53:02Z</time>
  <course>252.61</course>
  <speed>5.02</speed>
  <fix>3d</fix>
</trkpt>
<trkpt lat="40.0718029" lon="-105.2284638">
  <ele>1583.03</ele>
  <time>2026-08-28T17:53:02Z</time>
  <course>253.79</course>
  <speed>4.984776825495802</speed>
  <fix>3d</fix>
</trkpt>
<trkpt lat="40.0718045" lon="-105.2284568">
  <ele>1583.0</ele>
  <time>2026-08-28T17:53:02Z</time>
  <course>252.55</course>
  <speed>5.03</speed>
  <fix>3d</fix>
</trkpt>
<trkpt lat="40.0718016" lon="-105.2284694">
  <ele>1583.03</ele>
  <time>2026-08-28T17:53:02Z</time>
  <course>253.78</course>
  <speed>4.984776825495802</speed>
  <fix>3d</fix>
</trkpt>
<trkpt lat="40.0718045" lon="-105.2284568">
  <ele>1583.0</ele>
  <time>2026-08-28T17:53:02Z</time>
  <course>252.55</course>
  <speed>5.03</speed>
  <fix>3d</fix>
</trkpt>
<trkpt lat="40.0718002" lon="-105.228475">
  <ele>1583.03</ele>
  <time>2026-08-28T17:53:02Z</time>
  <course>253.77</course>
  <speed>4.984776825495802</speed>
  <fix>3d</fix>
</trkpt>
<trkpt lat="40.0718017" lon="-105.228468">
  <ele>1583.0</ele>
  <time>2026-08-28T17:53:02Z</time>
  <course>252.52</course>
  <speed>5.03</speed>
  <fix>3d</fix>
</trkpt>
<trkpt lat="40.0717989" lon="-105.2284806">
  <ele>1583.03</ele>
  <time>2026-08-28T17:53:02Z</time>
  <course>253.74</course>
  <speed>4.984776825495802</speed>
  <fix>3d</fix>
</trkpt>
<trkpt lat="40.0718017" lon="-105.228468">
  <ele>1583.0</ele>
  <time>2026-08-28T17:53:02Z</time>
  <course>252.52</course>
  <speed>5.03</speed>
  <fix>3d</fix>
</trkpt>
<trkpt lat="40.0717975" lon="-105.2284863">
  <ele>1583.03</ele>
  <time>2026-08-28T17:53:02Z</time>
  <course>253.71</course>
  <speed>4.994326781459139</speed>
  <fix>3d</fix>
</trkpt>
<trkpt lat="40.071799" lon="-105.2284793">
  <ele>1583.0</ele>
  <time>2026-08-28T17:53:02Z</time>
  <course>252.48</course>
  <speed>5.03</speed>
  <fix>3d</fix>
</trkpt>
<trkpt lat="40.0717961" lon="-105.2284919">
  <ele>1583.03</ele>
  <time>2026-08-28T17:53:02Z</time>
  <course>253.64</course>
  <speed>4.997299270606074</speed>
  <fix>3d</fix>
</trkpt>
<trkpt lat="40.071799" lon="-105.2284793">
  <ele>1583.0</ele>
  <time>2026-08-28T17:53:02Z</time>
  <course>252.48</course>
  <speed>5.03</speed>
  <fix>3d</fix>
</trkpt>
<trkpt lat="40.0717948" lon="-105.2284976">
  <ele>1583.02</ele>
  <time>2026-08-28T17:53:02Z</time>
  <course>253.61</course>
  <speed>4.997299270606074</speed>
  <fix>3d</fix>
</trkpt>
<trkpt lat="40.0717963" lon="-105.2284905">
  <ele>1583.0</ele>
  <time>2026-08-28T17:53:02Z</time>
  <course>252.4</course>
  <speed>5.03</speed>
  <fix>3d</fix>
</trkpt>
<trkpt lat="40.0717934" lon="-105.2285033">
  <ele>1583.02</ele>
  <time>2026-08-28T17:53:02Z</time>
  <course>253.58</course>
  <speed>4.997299270606074</speed>
  <fix>3d</fix>
</trkpt>
<trkpt lat="40.0717963" lon="-105.2284905">
  <ele>1583.0</ele>
  <time>2026-08-28T17:53:02Z</time>
  <course>252.4</course>
  <speed>5.03</speed>
  <fix>3d</fix>
</trkpt>
<trkpt lat="40.071792" lon="-105.228509">
  <ele>1583.03</ele>
  <time>2026-08-28T17:53:02Z</time>
  <course>253.55</course>
  <speed>5.000289991590488</speed>
  <fix>3d</fix>
</trkpt>
<trkpt lat="40.0717936" lon="-105.2285018">
  <ele>1583.0</ele>
  <time>2026-08-28T17:53:02Z</time>
  <course>252.33</course>
  <speed>5.03</speed>
  <fix>3d</fix>
</trkpt>
<trkpt lat="40.0717906" lon="-105.2285147">
  <ele>1583.03</ele>
  <time>2026-08-28T17:53:02Z</time>
  <course>253.52</course>
  <speed>5.000289991590488</speed>
  <fix>3d</fix>
</trkpt>
<trkpt lat="40.0717936" lon="-105.2285018">
  <ele>1583.0</ele>
  <time>2026-08-28T17:53:02Z</time>
  <course>252.33</course>
  <speed>5.03</speed>
  <fix>3d</fix>
</trkpt>
<trkpt lat="40.0717892" lon="-105.2285203">
  <ele>1583.03</ele>
  <time>2026-08-28T17:53:02Z</time>
  <course>253.51</course>
  <speed>5.000289991590488</speed>
  <fix>3d</fix>
</trkpt>
<trkpt lat="40.0717908" lon="-105.228513">
  <ele>1583.0</ele>
  <time>2026-08-28T17:53:02Z</time>
  <course>252.28</course>
  <speed>5.03</speed>
  <fix>3d</fix>
</trkpt>
<trkpt lat="40.0717878" lon="-105.228526">
  <ele>1583.04</ele>
  <time>2026-08-28T17:53:02Z</time>
  <course>253.49</course>
  <speed>5.000289991590488</speed>
  <fix>3d</fix>
</trkpt>
<trkpt lat="40.0717908" lon="-105.228513">
  <ele>1583.0</ele>
  <time>2026-08-28T17:53:02Z</time>
  <course>252.28</course>
  <speed>5.03</speed>
  <fix>3d</fix>
</trkpt>
<trkpt lat="40.0717865" lon="-105.2285316">
  <ele>1583.04</ele>
  <time>2026-08-28T17:53:02Z</time>
  <course>253.47</course>
  <speed>5.000289991590488</speed>
  <fix>3d</fix>
</trkpt>
<trkpt lat="40.0717881" lon="-105.2285243">
  <ele>1583.0</ele>
  <time>2026-08-28T17:53:02Z</time>
  <course>252.24</course>
  <speed>5.03</speed>
  <fix>3d</fix>
</trkpt>
<trkpt lat="40.0717851" lon="-105.2285373">
  <ele>1583.04</ele>
  <time>2026-08-28T17:53:02Z</time>
  <course>253.47</course>
  <speed>5.000289991590488</speed>
  <fix>3d</fix>
</trkpt>
<trkpt lat="40.0717881" lon="-105.2285243">
  <ele>1583.0</ele>
  <time>2026-08-28T17:53:02Z</time>
  <course>252.24</course>
  <speed>5.03</speed>
  <fix>3d</fix>
</trkpt>
<trkpt lat="40.0717837" lon="-105.2285429">
  <ele>1583.04</ele>
  <time>2026-08-28T17:53:02Z</time>
  <course>253.44</course>
  <speed>5.000289991590488</speed>
  <fix>3d</fix>
</trkpt>
<trkpt lat="40.0717881" lon="-105.2285243">
  <ele>1583.0</ele>
  <time>2026-08-28T17:53:02Z</time>
  <course>252.24</course>
  <speed>5.03</speed>
  <fix>3d</fix>
</trkpt>
<trkpt lat="40.0717823" lon="-105.2285485">
  <ele>1583.04</ele>
  <time>2026-08-28T17:53:02Z</time>
  <course>253.37</course>
  <speed>5.003298911718148</speed>
  <fix>3d</fix>
</trkpt>
<trkpt lat="40.0717853" lon="-105.2285356">
  <ele>1583.0</ele>
  <time>2026-08-28T17:53:02Z</time>
  <course>252.21</course>
  <speed>5.02</speed>
  <fix>3d</fix>
</trkpt>
<trkpt lat="40.071781" lon="-105.2285541">
  <ele>1583.05</ele>
  <time>2026-08-28T17:53:02Z</time>
  <course>253.33</course>
  <speed>4.993766113866368</speed>
  <fix>3d</fix>
</trkpt>
<trkpt lat="40.0717853" lon="-105.2285356">
  <ele>1583.0</ele>
  <time>2026-08-28T17:53:02Z</time>
  <course>252.21</course>
  <speed>5.02</speed>
  <fix>3d</fix>
</trkpt>
<trkpt lat="40.0717796" lon="-105.2285597">
  <ele>1583.05</ele>
  <time>2026-08-28T17:53:02Z</time>
  <course>253.29</course>
  <speed>4.993766113866368</speed>
  <fix>3d</fix>
</trkpt>
<trkpt lat="40.0717826" lon="-105.2285469">
  <ele>1583.0</ele>
  <time>2026-08-28T17:53:02Z</time>
  <course>252.14</course>
  <speed>5.02</speed>
  <fix>3d</fix>
</trkpt>
<trkpt lat="40.0717782" lon="-105.2285653">
  <ele>1583.05</ele>
  <time>2026-08-28T17:53:02Z</time>
  <course>253.25</course>
  <speed>4.996798975344115</speed>
  <fix>3d</fix>
</trkpt>
<trkpt lat="40.0717826" lon="-105.2285469">
  <ele>1583.0</ele>
  <time>2026-08-28T17:53:02Z</time>
  <course>252.14</course>
  <speed>5.02</speed>
  <fix>3d</fix>
</trkpt>
<trkpt lat="40.0717768" lon="-105.2285709">
  <ele>1583.05</ele>
  <time>2026-08-28T17:53:02Z</time>
  <course>253.24</course>
  <speed>4.987273804394541</speed>
  <fix>3d</fix>
</trkpt>
<trkpt lat="40.0717798" lon="-105.228558">
  <ele>1583.0</ele>
  <time>2026-08-28T17:53:02Z</time>
  <course>252.04</course>
  <speed>5.02</speed>
  <fix>3d</fix>
</trkpt>
<trkpt lat="40.0717754" lon="-105.2285764">
  <ele>1583.05</ele>
  <time>2026-08-28T17:53:02Z</time>
  <course>253.23</course>
  <speed>4.987273804394541</speed>
  <fix>3d</fix>
</trkpt>
<trkpt lat="40.071777" lon="-105.2285693">
  <ele>1583.0</ele>
  <time>2026-08-28T17:53:02Z</time>
  <course>251.99</course>
  <speed>5.02</speed>
  <fix>3d</fix>
</trkpt>
<trkpt lat="40.071774" lon="-105.228582">
  <ele>1583.05</ele>
  <time>2026-08-28T17:53:02Z</time>
  <course>253.2</course>
  <speed>4.987273804394541</speed>
  <fix>3d</fix>
</trkpt>
<trkpt lat="40.071777" lon="-105.2285693">
  <ele>1583.0</ele>
  <time>2026-08-28T17:53:02Z</time>
  <course>251.99</course>
  <speed>5.02</speed>
  <fix>3d</fix>
</trkpt>
<trkpt lat="40.0717727" lon="-105.2285876">
  <ele>1583.05</ele>
  <time>2026-08-28T17:53:02Z</time>
  <course>253.18</course>
  <speed>4.987273804394541</speed>
  <fix>3d</fix>
</trkpt>
<trkpt lat="40.0717741" lon="-105.2285804">
  <ele>1583.0</ele>
  <time>2026-08-28T17:53:02Z</time>
  <course>251.95</course>
  <speed>5.02</speed>
  <fix>3d</fix>
</trkpt>
<trkpt lat="40.0717713" lon="-105.2285932">
  <ele>1583.05</ele>
  <time>2026-08-28T17:53:02Z</time>
  <course>253.17</course>
  <speed>4.987273804394541</speed>
  <fix>3d</fix>
</trkpt>
<trkpt lat="40.0717741" lon="-105.2285804">
  <ele>1583.0</ele>
  <time>2026-08-28T17:53:02Z</time>
  <course>251.95</course>
  <speed>5.02</speed>
  <fix>3d</fix>
</trkpt>
<trkpt lat="40.0717699" lon="-105.2285988">
  <ele>1583.05</ele>
  <time>2026-08-28T17:53:02Z</time>
  <course>253.17</course>
  <speed>4.996798975344115</speed>
  <fix>3d</fix>
</trkpt>
<trkpt lat="40.0717714" lon="-105.2285917">
  <ele>1583.0</ele>
  <time>2026-08-28T17:53:02Z</time>
  <course>251.93</course>
  <speed>5.02</speed>
  <fix>3d</fix>
</trkpt>
<trkpt lat="40.0717684" lon="-105.2286045">
  <ele>1583.05</ele>
  <time>2026-08-28T17:53:02Z</time>
  <course>253.17</course>
  <speed>4.987273804394541</speed>
  <fix>3d</fix>
</trkpt>
<trkpt lat="40.0717714" lon="-105.2285917">
  <ele>1583.0</ele>
  <time>2026-08-28T17:53:02Z</time>
  <course>251.93</course>
  <speed>5.02</speed>
  <fix>3d</fix>
</trkpt>
<trkpt lat="40.071767" lon="-105.2286101">
  <ele>1583.05</ele>
  <time>2026-08-28T17:53:02Z</time>
  <course>253.17</course>
  <speed>4.955653337351191</speed>
  <fix>3d</fix>
</trkpt>
<trkpt lat="40.0717686" lon="-105.2286029">
  <ele>1583.0</ele>
  <time>2026-08-28T17:53:02Z</time>
  <course>251.92</course>
  <speed>5.0</speed>
  <fix>3d</fix>
</trkpt>
<trkpt lat="40.0717656" lon="-105.2286157">
  <ele>1583.05</ele>
  <time>2026-08-28T17:53:02Z</time>
  <course>253.16</course>
  <speed>4.9145091311340545</speed>
  <fix>3d</fix>
</trkpt>
<trkpt lat="40.0717686" lon="-105.2286029">
  <ele>1583.0</ele>
  <time>2026-08-28T17:53:02Z</time>
  <course>251.92</course>
  <speed>5.0</speed>
  <fix>3d</fix>
</trkpt>
<trkpt lat="40.0717643" lon="-105.2286212">
  <ele>1583.05</ele>
  <time>2026-08-28T17:53:02Z</time>
  <course>253.16</course>
  <speed>4.860792116517636</speed>
  <fix>3d</fix>
</trkpt>
<trkpt lat="40.0717658" lon="-105.228614">
  <ele>1583.0</ele>
  <time>2026-08-28T17:53:02Z</time>
  <course>251.92</course>
  <speed>4.93</speed>
  <fix>3d</fix>
</trkpt>
<trkpt lat="40.0717629" lon="-105.2286266">
  <ele>1583.05</ele>
  <time>2026-08-28T17:53:02Z</time>
  <course>253.11</course>
  <speed>4.791085471999012</speed>
  <fix>3d</fix>
</trkpt>
<trkpt lat="40.0717658" lon="-105.228614">
  <ele>1583.0</ele>
  <time>2026-08-28T17:53:02Z</time>
  <course>251.92</course>
  <speed>4.93</speed>
  <fix>3d</fix>
</trkpt>
<trkpt lat="40.0717616" lon="-105.228632">
  <ele>1583.04</ele>
  <time>2026-08-28T17:53:02Z</time>
  <course>253.05</course>
  <speed>4.708810890235453</speed>
  <fix>3d</fix>
</trkpt>
<trkpt lat="40.0717631" lon="-105.2286249">
  <ele>1583.0</ele>
  <time>2026-08-28T17:53:02Z</time>
  <course>251.86</course>
  <speed>4.81</speed>
  <fix>3d</fix>
</trkpt>
<trkpt lat="40.0717602" lon="-105.2286372">
  <ele>1583.04</ele>
  <time>2026-08-28T17:53:02Z</time>
  <course>252.98</course>
  <speed>4.617033679755867</speed>
  <fix>3d</fix>
</trkpt>
<trkpt lat="40.0717631" lon="-105.2286249">
  <ele>1583.0</ele>
  <time>2026-08-28T17:53:02Z</time>
  <course>251.86</course>
  <speed>4.81</speed>
  <fix>3d</fix>
</trkpt>
<trkpt lat="40.0717589" lon="-105.2286424">
  <ele>1583.04</ele>
  <time>2026-08-28T17:53:02Z</time>
  <course>252.88</course>
  <speed>4.515772359187296</speed>
  <fix>3d</fix>
</trkpt>
<trkpt lat="40.0717604" lon="-105.2286355">
  <ele>1583.0</ele>
  <time>2026-08-28T17:53:02Z</time>
  <course>251.72</course>
  <speed>4.64</speed>
  <fix>3d</fix>
</trkpt>
<trkpt lat="40.0717576" lon="-105.2286474">
  <ele>1583.04</ele>
  <time>2026-08-28T17:53:02Z</time>
  <course>252.76</course>
  <speed>4.411405671665212</speed>
  <fix>3d</fix>
</trkpt>
<trkpt lat="40.0717604" lon="-105.2286355">
  <ele>1583.0</ele>
  <time>2026-08-28T17:53:02Z</time>
  <course>251.72</course>
  <speed>4.64</speed>
  <fix>3d</fix>
</trkpt>
<trkpt lat="40.0717564" lon="-105.2286522">
  <ele>1583.04</ele>
  <time>2026-08-28T17:53:02Z</time>
  <course>252.63</course>
  <speed>4.291211950020647</speed>
  <fix>3d</fix>
</trkpt>
<trkpt lat="40.0717604" lon="-105.2286355">
  <ele>1583.0</ele>
  <time>2026-08-28T17:53:02Z</time>
  <course>251.72</course>
  <speed>4.64</speed>
  <fix>3d</fix>
</trkpt>
<trkpt lat="40.0717551" lon="-105.2286569">
  <ele>1583.04</ele>
  <time>2026-08-28T17:53:02Z</time>
  <course>252.46</course>
  <speed>4.167901150459305</speed>
  <fix>3d</fix>
</trkpt>
<trkpt lat="40.0717578" lon="-105.2286456">
  <ele>1583.0</ele>
  <time>2026-08-28T17:53:02Z</time>
  <course>251.51</course>
  <speed>4.43</speed>
  <fix>3d</fix>
</trkpt>
<trkpt lat="40.0717539" lon="-105.2286615">
  <ele>1583.04</ele>
  <time>2026-08-28T17:53:02Z</time>
  <course>252.29</course>
  <speed>4.047838929601819</speed>
  <fix>3d</fix>
</trkpt>
<trkpt lat="40.0717578" lon="-105.2286456">
  <ele>1583.0</ele>
  <time>2026-08-28T17:53:02Z</time>
  <course>251.51</course>
  <speed>4.43</speed>
  <fix>3d</fix>
</trkpt>
<trkpt lat="40.0717528" lon="-105.2286658">
  <ele>1583.04</ele>
  <time>2026-08-28T17:53:02Z</time>
  <course>252.13</course>
  <speed>3.9151500609810603</speed>
  <fix>3d</fix>
</trkpt>
<trkpt lat="40.0717554" lon="-105.2286552">
  <ele>1583.0</ele>
  <time>2026-08-28T17:53:02Z</time>
  <course>251.22</course>
  <speed>4.19</speed>
  <fix>3d</fix>
</trkpt>
<trkpt lat="40.0717516" lon="-105.2286701">
  <ele>1583.04</ele>
  <time>2026-08-28T17:53:02Z</time>
  <course>251.97</course>
  <speed>3.7825123925771873</speed>
  <fix>3d</fix>
</trkpt>
<trkpt lat="40.0717554" lon="-105.2286552">
  <ele>1583.0</ele>
  <time>2026-08-28T17:53:02Z</time>
  <course>251.22</course>
  <speed>4.19</speed>
  <fix>3d</fix>
</trkpt>
<trkpt lat="40.0717505" lon="-105.2286741">
  <ele>1583.04</ele>
  <time>2026-08-28T17:53:02Z</time>
  <course>251.77</course>
  <speed>3.6499315062066575</speed>
  <fix>3d</fix>
</trkpt>
<trkpt lat="40.071753" lon="-105.2286642">
  <ele>1583.0</ele>
  <time>2026-08-28T17:53:02Z</time>
  <course>250.88</course>
  <speed>3.94</speed>
  <fix>3d</fix>
</trkpt>
<trkpt lat="40.0717494" lon="-105.2286781">
  <ele>1583.04</ele>
  <time>2026-08-28T17:53:02Z</time>
  <course>251.57</course>
  <speed>3.517413822682796</speed>
  <fix>3d</fix>
</trkpt>
<trkpt lat="40.0717507" lon="-105.2286727">
  <ele>1583.0</ele>
  <time>2026-08-28T17:53:02Z</time>
  <course>250.52</course>
  <speed>3.69</speed>
  <fix>3d</fix>
</trkpt>
<trkpt lat="40.0717484" lon="-105.2286819">
  <ele>1583.04</ele>
  <time>2026-08-28T17:53:02Z</time>
  <course>251.38</course>
  <speed>3.3815528977083886</speed>
  <fix>3d</fix>
</trkpt>
<trkpt lat="40.0717507" lon="-105.2286727">
  <ele>1583.0</ele>
  <time>2026-08-28T17:53:02Z</time>
  <course>250.52</course>
  <speed>3.69</speed>
  <fix>3d</fix>
</trkpt>
<trkpt lat="40.0717473" lon="-105.2286855">
  <ele>1583.04</ele>
  <time>2026-08-28T17:53:02Z</time>
  <course>251.18</course>
  <speed>3.2491383473161006</speed>
  <fix>3d</fix>
</trkpt>
<trkpt lat="40.0717486" lon="-105.2286805">
  <ele>1583.0</ele>
  <time>2026-08-28T17:53:02Z</time>
  <course>250.12</course>
  <speed>3.43</speed>
  <fix>3d</fix>
</trkpt>
<trkpt lat="40.0717463" lon="-105.228689">
  <ele>1583.03</ele>
  <time>2026-08-28T17:53:02Z</time>
  <course>250.97</course>
  <speed>3.1261797773000835</speed>
  <fix>3d</fix>
</trkpt>
<trkpt lat="40.0717486" lon="-105.2286805">
  <ele>1583.0</ele>
  <time>2026-08-28T17:53:02Z</time>
  <course>250.12</course>
  <speed>3.43</speed>
  <fix>3d</fix>
</trkpt>
<trkpt lat="40.0717454" lon="-105.2286923">
  <ele>1583.03</ele>
  <time>2026-08-28T17:53:02Z</time>
  <course>250.76</course>
  <speed>3.003281538584087</speed>
  <fix>3d</fix>
</trkpt>
<trkpt lat="40.0717466" lon="-105.2286878">
  <ele>1583.0</ele>
  <time>2026-08-28T17:53:02Z</time>
  <course>249.71</course>
  <speed>3.17</speed>
  <fix>3d</fix>
</trkpt>
<trkpt lat="40.0717444" lon="-105.2286956">
  <ele>1583.03</ele>
  <time>2026-08-28T17:53:02Z</time>
  <course>250.55</course>
  <speed>2.871114766079545</speed>
  <fix>3d</fix>
</trkpt>
<trkpt lat="40.0717466" lon="-105.2286878">
  <ele>1583.0</ele>
  <time>2026-08-28T17:53:02Z</time>
  <course>249.71</course>
  <speed>3.17</speed>
  <fix>3d</fix>
</trkpt>
<trkpt lat="40.0717435" lon="-105.2286987">
  <ele>1583.03</ele>
  <time>2026-08-28T17:53:02Z</time>
  <course>250.34</course>
  <speed>2.7447586414838008</speed>
  <fix>3d</fix>
</trkpt>
<trkpt lat="40.0717446" lon="-105.2286945">
  <ele>1583.0</ele>
  <time>2026-08-28T17:53:02Z</time>
  <course>249.29</course>
  <speed>2.92</speed>
  <fix>3d</fix>
</trkpt>
<trkpt lat="40.0717426" lon="-105.2287016">
  <ele>1583.02</ele>
  <time>2026-08-28T17:53:02Z</time>
  <course>250.11</course>
  <speed>2.6313684652666947</speed>
  <fix>3d</fix>
</trkpt>
<trkpt lat="40.0717446" lon="-105.2286945">
  <ele>1583.0</ele>
  <time>2026-08-28T17:53:02Z</time>
  <course>249.29</course>
  <speed>2.92</speed>
  <fix>3d</fix>
</trkpt>
<trkpt lat="40.0717417" lon="-105.2287045">
  <ele>1583.02</ele>
  <time>2026-08-28T17:53:02Z</time>
  <course>249.92</course>
  <speed>2.527330607577885</speed>
  <fix>3d</fix>
</trkpt>
<trkpt lat="40.0717428" lon="-105.2287007">
  <ele>1583.0</ele>
  <time>2026-08-28T17:53:02Z</time>
  <course>248.87</course>
  <speed>2.69</speed>
  <fix>3d</fix>
</trkpt>
<trkpt lat="40.0717409" lon="-105.2287072">
  <ele>1583.02</ele>
  <time>2026-08-28T17:53:02Z</time>
  <course>249.73</course>
  <speed>2.467893838883674</speed>
  <fix>3d</fix>
</trkpt>
<trkpt lat="40.0717428" lon="-105.2287007">
  <ele>1583.0</ele>
  <time>2026-08-28T17:53:02Z</time>
  <course>248.87</course>
  <speed>2.69</speed>
  <fix>3d</fix>
</trkpt>
<trkpt lat="40.0717401" lon="-105.2287099">
  <ele>1583.02</ele>
  <time>2026-08-28T17:53:02Z</time>
  <course>249.56</course>
  <speed>2.4270558296009592</speed>
  <fix>3d</fix>
</trkpt>
<trkpt lat="40.0717411" lon="-105.2287064">
  <ele>1583.0</ele>
  <time>2026-08-28T17:53:02Z</time>
  <course>248.48</course>
  <speed>2.54</speed>
  <fix>3d</fix>
</trkpt>
<trkpt lat="40.0717392" lon="-105.2287126">
  <ele>1583.02</ele>
  <time>2026-08-28T17:53:02Z</time>
  <course>249.39</course>
  <speed>2.4270558296009592</speed>
  <fix>3d</fix>
</trkpt>
<trkpt lat="40.0717411" lon="-105.2287064">
  <ele>1583.0</ele>
  <time>2026-08-28T17:53:02Z</time>
  <course>248.48</course>
  <speed>2.54</speed>
  <fix>3d</fix>
</trkpt>
<trkpt lat="40.0717384" lon="-105.2287152">
  <ele>1583.02</ele>
  <time>2026-08-28T17:53:02Z</time>
  <course>249.22</course>
  <speed>2.4438698819699876</speed>
  <fix>3d</fix>
</trkpt>
<trkpt lat="40.0717394" lon="-105.2287119">
  <ele>1583.0</ele>
  <time>2026-08-28T17:53:02Z</time>
  <course>248.13</course>
  <speed>2.49</speed>
  <fix>3d</fix>
</trkpt>
<trkpt lat="40.0717375" lon="-105.228718">
  <ele>1583.02</ele>
  <time>2026-08-28T17:53:02Z</time>
  <course>249.08</course>
  <speed>2.488473427625861</speed>
  <fix>3d</fix>
</trkpt>
<trkpt lat="40.0717394" lon="-105.2287119">
  <ele>1583.0</ele>
  <time>2026-08-28T17:53:02Z</time>
  <course>248.13</course>
  <speed>2.49</speed>
  <fix>3d</fix>
</trkpt>
<trkpt lat="40.0717367" lon="-105.2287208">
  <ele>1583.02</ele>
  <time>2026-08-28T17:53:02Z</time>
  <course>248.94</course>
  <speed>2.551568145278507</speed>
  <fix>3d</fix>
</trkpt>
<trkpt lat="40.0717394" lon="-105.2287119">
  <ele>1583.0</ele>
  <time>2026-08-28T17:53:02Z</time>
  <course>248.13</course>
  <speed>2.49</speed>
  <fix>3d</fix>
</trkpt>
<trkpt lat="40.0717358" lon="-105.2287236">
  <ele>1583.02</ele>
  <time>2026-08-28T17:53:02Z</time>
  <course>248.8</course>
  <speed>2.640776400985134</speed>
  <fix>3d</fix>
</trkpt>
<trkpt lat="40.0717377" lon="-105.2287174">
  <ele>1583.0</ele>
  <time>2026-08-28T17:53:02Z</time>
  <course>247.81</course>
  <speed>2.56</speed>
  <fix>3d</fix>
</trkpt>
<trkpt lat="40.0717348" lon="-105.2287266">
  <ele>1583.02</ele>
  <time>2026-08-28T17:53:02Z</time>
  <course>248.67</course>
  <speed>2.7392334694216918</speed>
  <fix>3d</fix>
</trkpt>
<trkpt lat="40.0717377" lon="-105.2287174">
  <ele>1583.0</ele>
  <time>2026-08-28T17:53:02Z</time>
  <course>247.81</course>
  <speed>2.56</speed>
  <fix>3d</fix>
</trkpt>
<trkpt lat="40.0717339" lon="-105.2287296">
  <ele>1583.02</ele>
  <time>2026-08-28T17:53:02Z</time>
  <course>248.56</course>
  <speed>2.846928169097352</speed>
  <fix>3d</fix>
</trkpt>
<trkpt lat="40.071736" lon="-105.2287231">
  <ele>1583.0</ele>
  <time>2026-08-28T17:53:02Z</time>
  <course>247.53</course>
  <speed>2.7</speed>
  <fix>3d</fix>
</trkpt>
<trkpt lat="40.0717329" lon="-105.2287328">
  <ele>1583.02</ele>
  <time>2026-08-28T17:53:02Z</time>
  <course>248.44</course>
  <speed>2.9676927064640637</speed>
  <fix>3d</fix>
</trkpt>
<trkpt lat="40.071736" lon="-105.2287231">
  <ele>1583.0</ele>
  <time>2026-08-28T17:53:02Z</time>
  <course>247.53</course>
  <speed>2.7</speed>
  <fix>3d</fix>
</trkpt>
<trkpt lat="40.0717318" lon="-105.2287361">
  <ele>1583.02</ele>
  <time>2026-08-28T17:53:02Z</time>
  <course>248.31</course>
  <speed>3.0976926897289214</speed>
  <fix>3d</fix>
</trkpt>
<trkpt lat="40.071734" lon="-105.2287292">
  <ele>1583.0</ele>
  <time>2026-08-28T17:53:02Z</time>
  <course>247.28</course>
  <speed>2.91</speed>
  <fix>3d</fix>
</trkpt>
<trkpt lat="40.0717307" lon="-105.2287396">
  <ele>1583.01</ele>
  <time>2026-08-28T17:53:02Z</time>
  <course>248.23</course>
  <speed>3.227692674341843</speed>
  <fix>3d</fix>
</trkpt>
<trkpt lat="40.071734" lon="-105.2287292">
  <ele>1583.0</ele>
  <time>2026-08-28T17:53:02Z</time>
  <course>247.28</course>
  <speed>2.91</speed>
  <fix>3d</fix>
</trkpt>
<trkpt lat="40.0717295" lon="-105.2287432">
  <ele>1583.01</ele>
  <time>2026-08-28T17:53:02Z</time>
  <course>248.14</course>
  <speed>3.35769266014625</speed>
  <fix>3d</fix>
</trkpt>
<trkpt lat="40.0717318" lon="-105.2287358">
  <ele>1583.0</ele>
  <time>2026-08-28T17:53:02Z</time>
  <course>247.06</course>
  <speed>3.15</speed>
  <fix>3d</fix>
</trkpt>
<trkpt lat="40.0717283" lon="-105.228747">
  <ele>1583.01</ele>
  <time>2026-08-28T17:53:02Z</time>
  <course>248.05</course>
  <speed>3.5007713435755843</speed>
  <fix>3d</fix>
</trkpt>
<trkpt lat="40.0717296" lon="-105.2287428">
  <ele>1583.0</ele>
  <time>2026-08-28T17:53:02Z</time>
  <course>246.86</course>
  <speed>3.41</speed>
  <fix>3d</fix>
</trkpt>
<trkpt lat="40.071727" lon="-105.228751">
  <ele>1583.01</ele>
  <time>2026-08-28T17:53:02Z</time>
  <course>247.95</course>
  <speed>3.6346389091627795</speed>
  <fix>3d</fix>
</trkpt>
<trkpt lat="40.0717296" lon="-105.2287428">
  <ele>1583.0</ele>
  <time>2026-08-28T17:53:02Z</time>
  <course>246.86</course>
  <speed>3.41</speed>
  <fix>3d</fix>
</trkpt>
<trkpt lat="40.0717257" lon="-105.228755">
  <ele>1583.01</ele>
  <time>2026-08-28T17:53:02Z</time>
  <course>247.85</course>
  <speed>3.7646380968162134</speed>
  <fix>3d</fix>
</trkpt>
<trkpt lat="40.071727" lon="-105.2287505">
  <ele>1583.0</ele>
  <time>2026-08-28T17:53:02Z</time>
  <course>246.67</course>
  <speed>3.68</speed>
  <fix>3d</fix>
</trkpt>
<trkpt lat="40.0717243" lon="-105.2287593">
  <ele>1583.01</ele>
  <time>2026-08-28T17:53:02Z</time>
  <course>247.8</course>
  <speed>3.903857067055606</speed>
  <fix>3d</fix>
</trkpt>
<trkpt lat="40.071727" lon="-105.2287505">
  <ele>1583.0</ele>
  <time>2026-08-28T17:53:02Z</time>
  <course>246.67</course>
  <speed>3.68</speed>
  <fix>3d</fix>
</trkpt>
<trkpt lat="40.0717229" lon="-105.2287637">
  <ele>1583.01</ele>
  <time>2026-08-28T17:53:02Z</time>
  <course>247.73</course>
  <speed>4.028523302650737</speed>
  <fix>3d</fix>
</trkpt>
<trkpt lat="40.0717243" lon="-105.2287587">
  <ele>1583.0</ele>
  <time>2026-08-28T17:53:02Z</time>
  <course>246.51</course>
  <speed>3.94</speed>
  <fix>3d</fix>
</trkpt>
<trkpt lat="40.0717214" lon="-105.2287682">
  <ele>1583.02</ele>
  <time>2026-08-28T17:53:02Z</time>
  <course>247.67</course>
  <speed>4.1585213718339835</speed>
  <fix>3d</fix>
</trkpt>
<trkpt lat="40.0717243" lon="-105.2287587">
  <ele>1583.0</ele>
  <time>2026-08-28T17:53:02Z</time>
  <course>246.51</course>
  <speed>3.94</speed>
  <fix>3d</fix>
</trkpt>
<trkpt lat="40.0717199" lon="-105.2287729">
  <ele>1583.02</ele>
  <time>2026-08-28T17:53:02Z</time>
  <course>247.61</course>
  <speed>4.2793106921559225</speed>
  <fix>3d</fix>
</trkpt>
<trkpt lat="40.0717214" lon="-105.2287675">
  <ele>1583.0</ele>
  <time>2026-08-28T17:53:02Z</time>
  <course>246.39</course>
  <speed>4.18</speed>
  <fix>3d</fix>
</trkpt>
<trkpt lat="40.0717183" lon="-105.2287777">
  <ele>1583.02</ele>
  <time>2026-08-28T17:53:02Z</time>
  <course>247.55</course>
  <speed>4.400102271538697</speed>
  <fix>3d</fix>
</trkpt>
<trkpt lat="40.0717214" lon="-105.2287675">
  <ele>1583.0</ele>
  <time>2026-08-28T17:53:02Z</time>
  <course>246.39</course>
  <speed>4.18</speed>
  <fix>3d</fix>
</trkpt>
<trkpt lat="40.0717166" lon="-105.2287826">
  <ele>1583.02</ele>
  <time>2026-08-28T17:53:02Z</time>
  <course>247.48</course>
  <speed>4.507782159776579</speed>
  <fix>3d</fix>
</trkpt>
<trkpt lat="40.0717183" lon="-105.2287767">
  <ele>1583.0</ele>
  <time>2026-08-28T17:53:02Z</time>
  <course>246.28</course>
  <speed>4.41</speed>
  <fix>3d</fix>
</trkpt>
<trkpt lat="40.071715" lon="-105.2287876">
  <ele>1583.02</ele>
  <time>2026-08-28T17:53:02Z</time>
  <course>247.42</course>
  <speed>4.610173532525646</speed>
  <fix>3d</fix>
</trkpt>
<trkpt lat="40.0717183" lon="-105.2287767">
  <ele>1583.0</ele>
  <time>2026-08-28T17:53:02Z</time>
  <course>246.28</course>
  <speed>4.41</speed>
  <fix>3d</fix>
</trkpt>
<trkpt lat="40.0717133" lon="-105.2287927">
  <ele>1583.02</ele>
  <time>2026-08-28T17:53:02Z</time>
  <course>247.35</course>
  <speed>4.708651611661241</speed>
  <fix>3d</fix>
</trkpt>
<trkpt lat="40.0717151" lon="-105.2287865">
  <ele>1583.0</ele>
  <time>2026-08-28T17:53:02Z</time>
  <course>246.15</course>
  <speed>4.62</speed>
  <fix>3d</fix>
</trkpt>
<trkpt lat="40.0717115" lon="-105.228798">
  <ele>1583.02</ele>
  <time>2026-08-28T17:53:02Z</time>
  <course>247.27</course>
  <speed>4.811070566932063</speed>
  <fix>3d</fix>
</trkpt>
<trkpt lat="40.0717151" lon="-105.2287865">
  <ele>1583.0</ele>
  <time>2026-08-28T17:53:02Z</time>
  <course>246.15</course>
  <speed>4.62</speed>
  <fix>3d</fix>
</trkpt>
<trkpt lat="40.0717097" lon="-105.2288033">
  <ele>1583.02</ele>
  <time>2026-08-28T17:53:02Z</time>
  <course>247.24</course>
  <speed>4.909551914380782</speed>
  <fix>3d</fix>
</trkpt>
<trkpt lat="40.0717116" lon="-105.2287966">
  <ele>1583.0</ele>
  <time>2026-08-28T17:53:02Z</time>
  <course>246.05</course>
  <speed>4.81</speed>
  <fix>3d</fix>
</trkpt>
<trkpt lat="40.0717079" lon="-105.2288087">
  <ele>1583.02</ele>
  <time>2026-08-28T17:53:02Z</time>
  <course>247.19</course>
  <speed>4.998849867719573</speed>
  <fix>3d</fix>
</trkpt>
<trkpt lat="40.0717116" lon="-105.2287966">
  <ele>1583.0</ele>
  <time>2026-08-28T17:53:02Z</time>
  <course>246.05</course>
  <speed>4.81</speed>
  <fix>3d</fix>
</trkpt>
<trkpt lat="40.071706" lon="-105.2288142">
  <ele>1583.02</ele>
  <time>2026-08-28T17:53:02Z</time>
  <course>247.15</course>
  <speed>5.075007389157182</speed>
  <fix>3d</fix>
</trkpt>
<trkpt lat="40.0717116" lon="-105.2287966">
  <ele>1583.0</ele>
  <time>2026-08-28T17:53:02Z</time>
  <course>246.05</course>
  <speed>4.81</speed>
  <fix>3d</fix>
</trkpt>
<trkpt lat="40.0717042" lon="-105.2288197">
  <ele>1583.02</ele>
  <time>2026-08-28T17:53:02Z</time>
  <course>247.14</course>
  <speed>5.1603488254186844</speed>
  <fix>3d</fix>
</trkpt>
<trkpt lat="40.071708" lon="-105.2288071">
  <ele>1583.0</ele>
  <time>2026-08-28T17:53:02Z</time>
  <course>245.97</course>
  <speed>4.99</speed>
  <fix>3d</fix>
</trkpt>
<trkpt lat="40.0717023" lon="-105.2288253">
  <ele>1583.02</ele>
  <time>2026-08-28T17:53:02Z</time>
  <course>247.13</course>
  <speed>5.227322450356396</speed>
  <fix>3d</fix>
</trkpt>
<trkpt lat="40.071708" lon="-105.2288071">
  <ele>1583.0</ele>
  <time>2026-08-28T17:53:02Z</time>
  <course>245.97</course>
  <speed>4.99</speed>
  <fix>3d</fix>
</trkpt>
<trkpt lat="40.0717004" lon="-105.2288309">
  <ele>1583.02</ele>
  <time>2026-08-28T17:53:02Z</time>
  <course>247.12</course>
  <speed>5.285120623032174</speed>
  <fix>3d</fix>
</trkpt>
<trkpt lat="40.0717043" lon="-105.228818">
  <ele>1583.0</ele>
  <time>2026-08-28T17:53:02Z</time>
  <course>245.93</course>
  <speed>5.14</speed>
  <fix>3d</fix>
</trkpt>
<trkpt lat="40.0716984" lon="-105.2288366">
  <ele>1583.02</ele>
  <time>2026-08-28T17:53:02Z</time>
  <course>247.11</course>
  <speed>5.32580510345619</speed>
  <fix>3d</fix>
</trkpt>
<trkpt lat="40.0717043" lon="-105.228818">
  <ele>1583.0</ele>
  <time>2026-08-28T17:53:02Z</time>
  <course>245.93</course>
  <speed>5.14</speed>
  <fix>3d</fix>
</trkpt>
<trkpt lat="40.0716965" lon="-105.2288423">
  <ele>1583.02</ele>
  <time>2026-08-28T17:53:02Z</time>
  <course>247.1</course>
  <speed>5.352102390649865</speed>
  <fix>3d</fix>
</trkpt>
<trkpt lat="40.0717005" lon="-105.2288292">
  <ele>1583.0</ele>
  <time>2026-08-28T17:53:02Z</time>
  <course>245.93</course>
  <speed>5.27</speed>
  <fix>3d</fix>
</trkpt>
<trkpt lat="40.0716945" lon="-105.2288481">
  <ele>1583.02</ele>
  <time>2026-08-28T17:53:02Z</time>
  <course>247.09</course>
  <speed>5.370456218981773</speed>
  <fix>3d</fix>
</trkpt>
<trkpt lat="40.0716966" lon="-105.2288406">
  <ele>1583.0</ele>
  <time>2026-08-28T17:53:02Z</time>
  <course>245.93</course>
  <speed>5.34</speed>
  <fix>3d</fix>
</trkpt>
<trkpt lat="40.0716925" lon="-105.2288539">
  <ele>1583.02</ele>
  <time>2026-08-28T17:53:02Z</time>
  <course>247.07</course>
  <speed>5.383604740320374</speed>
  <fix>3d</fix>
</trkpt>
<trkpt lat="40.0716966" lon="-105.2288406">
  <ele>1583.0</ele>
  <time>2026-08-28T17:53:02Z</time>
  <course>245.93</course>
  <speed>5.34</speed>
  <fix>3d</fix>
</trkpt>
<trkpt lat="40.0716906" lon="-105.2288597">
  <ele>1583.02</ele>
  <time>2026-08-28T17:53:02Z</time>
  <course>247.06</course>
  <speed>5.383604740320374</speed>
  <fix>3d</fix>
</trkpt>
<trkpt lat="40.0716927" lon="-105.2288521">
  <ele>1583.0</ele>
  <time>2026-08-28T17:53:02Z</time>
  <course>245.93</course>
  <speed>5.37</speed>
  <fix>3d</fix>
</trkpt>
<trkpt lat="40.0716886" lon="-105.2288654">
  <ele>1583.02</ele>
  <time>2026-08-28T17:53:02Z</time>
  <course>247.05</course>
  <speed>5.374430202356339</speed>
  <fix>3d</fix>
</trkpt>
<trkpt lat="40.0716927" lon="-105.2288521">
  <ele>1583.0</ele>
  <time>2026-08-28T17:53:02Z</time>
  <course>245.93</course>
  <speed>5.37</speed>
  <fix>3d</fix>
</trkpt>
<trkpt lat="40.0716866" lon="-105.2288712">
  <ele>1583.02</ele>
  <time>2026-08-28T17:53:02Z</time>
  <course>247.04</course>
  <speed>5.365258614456529</speed>
  <fix>3d</fix>
</trkpt>
<trkpt lat="40.0716887" lon="-105.2288636">
  <ele>1583.0</ele>
  <time>2026-08-28T17:53:02Z</time>
  <course>245.93</course>
  <speed>5.36</speed>
  <fix>3d</fix>
</trkpt>
<trkpt lat="40.0716846" lon="-105.228877">
  <ele>1583.02</ele>
  <time>2026-08-28T17:53:02Z</time>
  <course>247.03</course>
  <speed>5.346924349567703</speed>
  <fix>3d</fix>
</trkpt>
<trkpt lat="40.0716887" lon="-105.2288636">
  <ele>1583.0</ele>
  <time>2026-08-28T17:53:02Z</time>
  <course>245.93</course>
  <speed>5.36</speed>
  <fix>3d</fix>
</trkpt>
<trkpt lat="40.0716826" lon="-105.2288828">
  <ele>1583.02</ele>
  <time>2026-08-28T17:53:02Z</time>
  <course>247.02</course>
  <speed>5.324593881226999</speed>
  <fix>3d</fix>
</trkpt>
<trkpt lat="40.0716848" lon="-105.2288751">
  <ele>1583.0</ele>
  <time>2026-08-28T17:53:02Z</time>
  <course>245.93</course>
  <speed>5.33</speed>
  <fix>3d</fix>
</trkpt>
<trkpt lat="40.0716806" lon="-105.2288885">
  <ele>1583.02</ele>
  <time>2026-08-28T17:53:02Z</time>
  <course>247.01</course>
  <speed>5.302263667529181</speed>
  <fix>3d</fix>
</trkpt>
<trkpt lat="40.0716848" lon="-105.2288751">
  <ele>1583.0</ele>
  <time>2026-08-28T17:53:02Z</time>
  <course>245.93</course>
  <speed>5.33</speed>
  <fix>3d</fix>
</trkpt>
<trkpt lat="40.0716787" lon="-105.2288942">
  <ele>1583.02</ele>
  <time>2026-08-28T17:53:02Z</time>
  <course>247.01</course>
  <speed>5.270768444923378</speed>
  <fix>3d</fix>
</trkpt>
<trkpt lat="40.0716809" lon="-105.2288864">
  <ele>1583.0</ele>
  <time>2026-08-28T17:53:02Z</time>
  <course>245.93</course>
  <speed>5.29</speed>
  <fix>3d</fix>
</trkpt>
<trkpt lat="40.0716767" lon="-105.2288999">
  <ele>1583.02</ele>
  <time>2026-08-28T17:53:02Z</time>
  <course>247.0</course>
  <speed>5.239274758971894</speed>
  <fix>3d</fix>
</trkpt>
<trkpt lat="40.0716809" lon="-105.2288864">
  <ele>1583.0</ele>
  <time>2026-08-28T17:53:02Z</time>
  <course>245.93</course>
  <speed>5.29</speed>
  <fix>3d</fix>
</trkpt>
<trkpt lat="40.0716748" lon="-105.2289055">
  <ele>1583.02</ele>
  <time>2026-08-28T17:53:02Z</time>
  <course>246.99</course>
  <speed>5.207782637553146</speed>
  <fix>3d</fix>
</trkpt>
<trkpt lat="40.0716771" lon="-105.2288978">
  <ele>1583.0</ele>
  <time>2026-08-28T17:53:02Z</time>
  <course>245.93</course>
  <speed>5.23</speed>
  <fix>3d</fix>
</trkpt>
<trkpt lat="40.0716729" lon="-105.2289111">
  <ele>1583.02</ele>
  <time>2026-08-28T17:53:02Z</time>
  <course>246.99</course>
  <speed>5.185450800075149</speed>
  <fix>3d</fix>
</trkpt>
<trkpt lat="40.0716771" lon="-105.2288978">
  <ele>1583.0</ele>
  <time>2026-08-28T17:53:02Z</time>
  <course>245.93</course>
  <speed>5.23</speed>
  <fix>3d</fix>
</trkpt>
<trkpt lat="40.071671" lon="-105.2289167">
  <ele>1583.02</ele>
  <time>2026-08-28T17:53:02Z</time>
  <course>246.98</course>
  <speed>5.1539596428377275</speed>
  <fix>3d</fix>
</trkpt>
<trkpt lat="40.0716733" lon="-105.2289089">
  <ele>1583.0</ele>
  <time>2026-08-28T17:53:02Z</time>
  <course>245.93</course>
  <speed>5.17</speed>
  <fix>3d</fix>
</trkpt>
<trkpt lat="40.0716691" lon="-105.2289222">
  <ele>1583.02</ele>
  <time>2026-08-28T17:53:02Z</time>
  <course>246.98</course>
  <speed>5.122470107282228</speed>
  <fix>3d</fix>
</trkpt>
<trkpt lat="40.0716733" lon="-105.2289089">
  <ele>1583.0</ele>
  <time>2026-08-28T17:53:02Z</time>
  <course>245.93</course>
  <speed>5.17</speed>
  <fix>3d</fix>
</trkpt>
<trkpt lat="40.0716672" lon="-105.2289276">
  <ele>1583.02</ele>
  <time>2026-08-28T17:53:02Z</time>
  <course>246.98</course>
  <speed>5.090982223500688</speed>
  <fix>3d</fix>
</trkpt>
<trkpt lat="40.0716733" lon="-105.2289089">
  <ele>1583.0</ele>
  <time>2026-08-28T17:53:02Z</time>
  <course>245.93</course>
  <speed>5.17</speed>
  <fix>3d</fix>
</trkpt>
<trkpt lat="40.0716654" lon="-105.228933">
  <ele>1583.01</ele>
  <time>2026-08-28T17:53:02Z</time>
  <course>246.98</course>
  <speed>5.068648735116688</speed>
  <fix>3d</fix>
</trkpt>
<trkpt lat="40.0716695" lon="-105.2289199">
  <ele>1583.0</ele>
  <time>2026-08-28T17:53:02Z</time>
  <course>245.93</course>
  <speed>5.11</speed>
  <fix>3d</fix>
</trkpt>
<trkpt lat="40.0716635" lon="-105.2289384">
  <ele>1583.01</ele>
  <time>2026-08-28T17:53:02Z</time>
  <course>246.97</course>
  <speed>5.0371618993238645</speed>
  <fix>3d</fix>
</trkpt>
<trkpt lat="40.0716695" lon="-105.2289199">
  <ele>1583.0</ele>
  <time>2026-08-28T17:53:02Z</time>
  <course>245.93</course>
  <speed>5.11</speed>
  <fix>3d</fix>
</trkpt>
<trkpt lat="40.0716617" lon="-105.2289437">
  <ele>1583.01</ele>
  <time>2026-08-28T17:53:02Z</time>
  <course>246.97</course>
  <speed>5.014828013003038</speed>
  <fix>3d</fix>
</trkpt>
<trkpt lat="40.0716657" lon="-105.2289309">
  <ele>1583.0</ele>
  <time>2026-08-28T17:53:02Z</time>
  <course>245.93</course>
  <speed>5.06</speed>
  <fix>3d</fix>
</trkpt>
<trkpt lat="40.0716598" lon="-105.2289491">
  <ele>1583.01</ele>
  <time>2026-08-28T17:53:02Z</time>
  <course>246.97</course>
  <speed>4.996528795073636</speed>
  <fix>3d</fix>
</trkpt>
<trkpt lat="40.0716657" lon="-105.2289309">
  <ele>1583.0</ele>
  <time>2026-08-28T17:53:02Z</time>
  <course>245.93</course>
  <speed>5.06</speed>
  <fix>3d</fix>
</trkpt>
<trkpt lat="40.071658" lon="-105.2289543">
  <ele>1583.01</ele>
  <time>2026-08-28T17:53:02Z</time>
  <course>246.97</course>
  <speed>4.983342251942966</speed>
  <fix>3d</fix>
</trkpt>
<trkpt lat="40.0716621" lon="-105.2289417">
  <ele>1583.0</ele>
  <time>2026-08-28T17:53:02Z</time>
  <course>245.93</course>
  <speed>5.02</speed>
  <fix>3d</fix>
</trkpt>
<trkpt lat="40.0716562" lon="-105.2289596">
  <ele>1583.0</ele>
  <time>2026-08-28T17:53:02Z</time>
  <course>246.97</course>
  <speed>4.961007962098026</speed>
  <fix>3d</fix>
</trkpt>
<trkpt lat="40.0716621" lon="-105.2289417">
  <ele>1583.0</ele>
  <time>2026-08-28T17:53:02Z</time>
  <course>245.93</course>
  <speed>5.02</speed>
  <fix>3d</fix>
</trkpt>
<trkpt lat="40.0716544" lon="-105.2289649">
  <ele>1583.0</ele>
  <time>2026-08-28T17:53:02Z</time>
  <course>246.97</course>
  <speed>4.951858237066163</speed>
  <fix>3d</fix>
</trkpt>
<trkpt lat="40.0716584" lon="-105.2289524">
  <ele>1583.0</ele>
  <time>2026-08-28T17:53:02Z</time>
  <course>245.93</course>
  <speed>4.99</speed>
  <fix>3d</fix>
</trkpt>
<trkpt lat="40.0716526" lon="-105.2289701">
  <ele>1583.0</ele>
  <time>2026-08-28T17:53:02Z</time>
  <course>246.97</course>
  <speed>4.9427118062861</speed>
  <fix>3d</fix>
</trkpt>
<trkpt lat="40.0716548" lon="-105.228963">
  <ele>1583.0</ele>
  <time>2026-08-28T17:53:02Z</time>
  <course>245.93</course>
  <speed>4.97</speed>
  <fix>3d</fix>
</trkpt>
<trkpt lat="40.0716508" lon="-105.2289754">
  <ele>1583.0</ele>
  <time>2026-08-28T17:53:02Z</time>
  <course>246.97</course>
  <speed>4.929523303525403</speed>
  <fix>3d</fix>
</trkpt>
<trkpt lat="40.0716548" lon="-105.228963">
  <ele>1583.0</ele>
  <time>2026-08-28T17:53:02Z</time>
  <course>245.93</course>
  <speed>4.97</speed>
  <fix>3d</fix>
</trkpt>
<trkpt lat="40.071649" lon="-105.2289806">
  <ele>1583.0</ele>
  <time>2026-08-28T17:53:02Z</time>
  <course>246.97</course>
  <speed>4.929523303525403</speed>
  <fix>3d</fix>
</trkpt>
<trkpt lat="40.0716511" lon="-105.2289737">
  <ele>1583.0</ele>
  <time>2026-08-28T17:53:02Z</time>
  <course>245.93</course>
  <speed>4.95</speed>
  <fix>3d</fix>
</trkpt>
<trkpt lat="40.0716472" lon="-105.228986">
  <ele>1583.0</ele>
  <time>2026-08-28T17:53:02Z</time>
  <course>246.97</course>
  <speed>4.929523303525403</speed>
  <fix>3d</fix>
</trkpt>
<trkpt lat="40.0716511" lon="-105.2289737">
  <ele>1583.0</ele>
  <time>2026-08-28T17:53:02Z</time>
  <course>245.93</course>
  <speed>4.95</speed>
  <fix>3d</fix>
</trkpt>
<trkpt lat="40.0716454" lon="-105.2289913">
  <ele>1582.99</ele>
  <time>2026-08-28T17:53:02Z</time>
  <course>246.97</course>
  <speed>4.929523303525403</speed>
  <fix>3d</fix>
</trkpt>
<trkpt lat="40.0716475" lon="-105.2289844">
  <ele>1583.0</ele>
  <time>2026-08-28T17:53:02Z</time>
  <course>245.93</course>
  <speed>4.95</speed>
  <fix>3d</fix>
</trkpt>
<trkpt lat="40.0716435" lon="-105.2289966">
  <ele>1582.99</ele>
  <time>2026-08-28T17:53:02Z</time>
  <course>246.97</course>
  <speed>4.933568688079655</speed>
  <fix>3d</fix>
</trkpt>
<trkpt lat="40.0716475" lon="-105.2289844">
  <ele>1583.0</ele>
  <time>2026-08-28T17:53:02Z</time>
  <course>245.93</course>
  <speed>4.95</speed>
  <fix>3d</fix>
</trkpt>
<trkpt lat="40.0716417" lon="-105.229002">
  <ele>1582.99</ele>
  <time>2026-08-28T17:53:02Z</time>
  <course>246.97</course>
  <speed>4.933568688079655</speed>
  <fix>3d</fix>
</trkpt>
<trkpt lat="40.0716439" lon="-105.228995">
  <ele>1583.0</ele>
  <time>2026-08-28T17:53:02Z</time>
  <course>245.93</course>
  <speed>4.95</speed>
  <fix>3d</fix>
</trkpt>
<trkpt lat="40.0716399" lon="-105.2290073">
  <ele>1582.99</ele>
  <time>2026-08-28T17:53:02Z</time>
  <course>246.97</course>
  <speed>4.9427118062861</speed>
  <fix>3d</fix>
</trkpt>
<trkpt lat="40.0716439" lon="-105.228995">
  <ele>1583.0</ele>
  <time>2026-08-28T17:53:02Z</time>
  <course>245.93</course>
  <speed>4.95</speed>
  <fix>3d</fix>
</trkpt>
<trkpt lat="40.071638" lon="-105.2290126">
  <ele>1582.99</ele>
  <time>2026-08-28T17:53:02Z</time>
  <course>246.97</course>
  <speed>4.9427118062861</speed>
  <fix>3d</fix>
</trkpt>
<trkpt lat="40.0716403" lon="-105.2290055">
  <ele>1583.0</ele>
  <time>2026-08-28T17:53:02Z</time>
  <course>245.93</course>
  <speed>4.96</speed>
  <fix>3d</fix>
</trkpt>
<trkpt lat="40.0716362" lon="-105.229018">
  <ele>1582.99</ele>
  <time>2026-08-28T17:53:02Z</time>
  <course>246.97</course>
  <speed>4.9427118062861</speed>
  <fix>3d</fix>
</trkpt>
<trkpt lat="40.0716403" lon="-105.2290055">
  <ele>1583.0</ele>
  <time>2026-08-28T17:53:02Z</time>
  <course>245.93</course>
  <speed>4.96</speed>
  <fix>3d</fix>
</trkpt>
<trkpt lat="40.0716344" lon="-105.2290233">
  <ele>1582.99</ele>
  <time>2026-08-28T17:53:02Z</time>
  <course>246.97</course>
  <speed>4.951858237066163</speed>
  <fix>3d</fix>
</trkpt>
<trkpt lat="40.0716366" lon="-105.2290162">
  <ele>1583.0</ele>
  <time>2026-08-28T17:53:02Z</time>
  <course>245.93</course>
  <speed>4.96</speed>
  <fix>3d</fix>
</trkpt>
<trkpt lat="40.0716325" lon="-105.2290287">
  <ele>1582.99</ele>
  <time>2026-08-28T17:53:02Z</time>
  <course>246.97</course>
  <speed>4.9559055681076085</speed>
  <fix>3d</fix>
</trkpt>
<trkpt lat="40.0716366" lon="-105.2290162">
  <ele>1583.0</ele>
  <time>2026-08-28T17:53:02Z</time>
  <course>245.93</course>
  <speed>4.96</speed>
  <fix>3d</fix>
</trkpt>
<trkpt lat="40.0716307" lon="-105.229034">
  <ele>1582.99</ele>
  <time>2026-08-28T17:53:02Z</time>
  <course>246.97</course>
  <speed>4.965047834613479</speed>
  <fix>3d</fix>
</trkpt>
<trkpt lat="40.071633" lon="-105.2290268">
  <ele>1583.0</ele>
  <time>2026-08-28T17:53:02Z</time>
  <course>245.93</course>
  <speed>4.97</speed>
  <fix>3d</fix>
</trkpt>
<trkpt lat="40.0716289" lon="-105.2290394">
  <ele>1582.99</ele>
  <time>2026-08-28T17:53:02Z</time>
  <course>246.97</course>
  <speed>4.965047834613479</speed>
  <fix>3d</fix>
</trkpt>
<trkpt lat="40.071633" lon="-105.2290268">
  <ele>1583.0</ele>
  <time>2026-08-28T17:53:02Z</time>
  <course>245.93</course>
  <speed>4.97</speed>
  <fix>3d</fix>
</trkpt>
<trkpt lat="40.071627" lon="-105.2290447">
  <ele>1582.99</ele>
  <time>2026-08-28T17:53:02Z</time>
  <course>246.98</course>
  <speed>4.974193401949707</speed>
  <fix>3d</fix>
</trkpt>
<trkpt lat="40.071633" lon="-105.2290268">
  <ele>1583.0</ele>
  <time>2026-08-28T17:53:02Z</time>
  <course>245.93</course>
  <speed>4.97</speed>
  <fix>3d</fix>
</trkpt>
<trkpt lat="40.0716252" lon="-105.2290501">
  <ele>1582.99</ele>
  <time>2026-08-28T17:53:02Z</time>
  <course>246.98</course>
  <speed>4.974193401949707</speed>
  <fix>3d</fix>
</trkpt>
<trkpt lat="40.0716293" lon="-105.2290376">
  <ele>1583.0</ele>
  <time>2026-08-28T17:53:02Z</time>
  <course>245.93</course>
  <speed>4.98</speed>
  <fix>3d</fix>
</trkpt>
<trkpt lat="40.0716234" lon="-105.2290554">
  <ele>1582.99</ele>
  <time>2026-08-28T17:53:02Z</time>
  <course>246.98</course>
  <speed>4.974193401949707</speed>
  <fix>3d</fix>
</trkpt>
<trkpt lat="40.0716293" lon="-105.2290376">
  <ele>1583.0</ele>
  <time>2026-08-28T17:53:02Z</time>
  <course>245.93</course>
  <speed>4.98</speed>
  <fix>3d</fix>
</trkpt>
<trkpt lat="40.0716216" lon="-105.2290607">
  <ele>1582.99</ele>
  <time>2026-08-28T17:53:02Z</time>
  <course>246.98</course>
  <speed>4.978242661823547</speed>
  <fix>3d</fix>
</trkpt>
<trkpt lat="40.0716256" lon="-105.2290483">
  <ele>1583.0</ele>
  <time>2026-08-28T17:53:02Z</time>
  <course>245.93</course>
  <speed>4.99</speed>
  <fix>3d</fix>
</trkpt>
<trkpt lat="40.0716198" lon="-105.229066">
  <ele>1582.99</ele>
  <time>2026-08-28T17:53:02Z</time>
  <course>246.98</course>
  <speed>4.978242661823547</speed>
  <fix>3d</fix>
</trkpt>
<trkpt lat="40.0716256" lon="-105.2290483">
  <ele>1583.0</ele>
  <time>2026-08-28T17:53:02Z</time>
  <course>245.93</course>
  <speed>4.99</speed>
  <fix>3d</fix>
</trkpt>
<trkpt lat="40.0716179" lon="-105.2290713">
  <ele>1583.0</ele>
  <time>2026-08-28T17:53:02Z</time>
  <course>246.98</course>
  <speed>4.98738408386601</speed>
  <fix>3d</fix>
</trkpt>
<trkpt lat="40.071622" lon="-105.229059">
  <ele>1583.0</ele>
  <time>2026-08-28T17:53:02Z</time>
  <course>245.93</course>
  <speed>5.0</speed>
  <fix>3d</fix>
</trkpt>
<trkpt lat="40.0716161" lon="-105.2290767">
  <ele>1583.0</ele>
  <time>2026-08-28T17:53:02Z</time>
  <course>246.99</course>
  <speed>4.98738408386601</speed>
  <fix>3d</fix>
</trkpt>
<trkpt lat="40.0716183" lon="-105.2290697">
  <ele>1583.0</ele>
  <time>2026-08-28T17:53:02Z</time>
  <course>245.93</course>
  <speed>5.01</speed>
  <fix>3d</fix>
</trkpt>
<trkpt lat="40.0716143" lon="-105.229082">
  <ele>1583.0</ele>
  <time>2026-08-28T17:53:02Z</time>
  <course>246.99</course>
  <speed>4.98738408386601</speed>
  <fix>3d</fix>
</trkpt>
<trkpt lat="40.0716183" lon="-105.2290697">
  <ele>1583.0</ele>
  <time>2026-08-28T17:53:02Z</time>
  <course>245.93</course>
  <speed>5.01</speed>
  <fix>3d</fix>
</trkpt>
<trkpt lat="40.0716124" lon="-105.2290874">
  <ele>1583.01</ele>
  <time>2026-08-28T17:53:02Z</time>
  <course>246.99</course>
  <speed>4.98738408386601</speed>
  <fix>3d</fix>
</trkpt>
<trkpt lat="40.0716146" lon="-105.2290805">
  <ele>1583.0</ele>
  <time>2026-08-28T17:53:02Z</time>
  <course>245.93</course>
  <speed>5.01</speed>
  <fix>3d</fix>
</trkpt>
<trkpt lat="40.0716106" lon="-105.2290927">
  <ele>1583.01</ele>
  <time>2026-08-28T17:53:02Z</time>
  <course>246.99</course>
  <speed>4.98738408386601</speed>
  <fix>3d</fix>
</trkpt>
<trkpt lat="40.0716146" lon="-105.2290805">
  <ele>1583.0</ele>
  <time>2026-08-28T17:53:02Z</time>
  <course>245.93</course>
  <speed>5.01</speed>
  <fix>3d</fix>
</trkpt>
<trkpt lat="40.0716088" lon="-105.2290981">
  <ele>1583.02</ele>
  <time>2026-08-28T17:53:02Z</time>
  <course>246.99</course>
  <speed>4.996528795073636</speed>
  <fix>3d</fix>
</trkpt>
<trkpt lat="40.071611" lon="-105.2290912">
  <ele>1583.0</ele>
  <time>2026-08-28T17:53:02Z</time>
  <course>245.93</course>
  <speed>5.02</speed>
  <fix>3d</fix>
</trkpt>
<trkpt lat="40.0716069" lon="-105.2291035">
  <ele>1583.02</ele>
  <time>2026-08-28T17:53:02Z</time>
  <course>246.99</course>
  <speed>4.996528795073636</speed>
  <fix>3d</fix>
</trkpt>
<trkpt lat="40.071611" lon="-105.2290912">
  <ele>1583.0</ele>
  <time>2026-08-28T17:53:02Z</time>
  <course>245.93</course>
  <speed>5.02</speed>
  <fix>3d</fix>
</trkpt>
<trkpt lat="40.0716051" lon="-105.229109">
  <ele>1583.02</ele>
  <time>2026-08-28T17:53:02Z</time>
  <course>246.99</course>
  <speed>4.996528795073636</speed>
  <fix>3d</fix>
</trkpt>
<trkpt lat="40.0716073" lon="-105.229102">
  <ele>1583.0</ele>
  <time>2026-08-28T17:53:02Z</time>
  <course>245.93</course>
  <speed>5.02</speed>
  <fix>3d</fix>
</trkpt>
<trkpt lat="40.0716032" lon="-105.2291144">
  <ele>1583.02</ele>
  <time>2026-08-28T17:53:02Z</time>
  <course>246.99</course>
  <speed>4.996528795073636</speed>
  <fix>3d</fix>
</trkpt>
<trkpt lat="40.0716073" lon="-105.229102">
  <ele>1583.0</ele>
  <time>2026-08-28T17:53:02Z</time>
  <course>245.93</course>
  <speed>5.02</speed>
  <fix>3d</fix>
</trkpt>
<trkpt lat="40.0716014" lon="-105.2291198">
  <ele>1583.02</ele>
  <time>2026-08-28T17:53:02Z</time>
  <course>247.0</course>
  <speed>5.0097205510886536</speed>
  <fix>3d</fix>
</trkpt>
<trkpt lat="40.0716036" lon="-105.2291128">
  <ele>1583.0</ele>
  <time>2026-08-28T17:53:02Z</time>
  <course>245.93</course>
  <speed>5.03</speed>
  <fix>3d</fix>
</trkpt>
<trkpt lat="40.0715995" lon="-105.2291253">
  <ele>1583.01</ele>
  <time>2026-08-28T17:53:02Z</time>
  <course>247.0</course>
  <speed>5.0097205510886536</speed>
  <fix>3d</fix>
</trkpt>
<trkpt lat="40.0716036" lon="-105.2291128">
  <ele>1583.0</ele>
  <time>2026-08-28T17:53:02Z</time>
  <course>245.93</course>
  <speed>5.03</speed>
  <fix>3d</fix>
</trkpt>
<trkpt lat="40.0715977" lon="-105.2291307">
  <ele>1583.01</ele>
  <time>2026-08-28T17:53:02Z</time>
  <course>247.0</course>
  <speed>5.0097205510886536</speed>
  <fix>3d</fix>
</trkpt>
<trkpt lat="40.0715999" lon="-105.2291236">
  <ele>1583.0</ele>
  <time>2026-08-28T17:53:02Z</time>
  <course>245.93</course>
  <speed>5.03</speed>
  <fix>3d</fix>
</trkpt>
<trkpt lat="40.0715958" lon="-105.2291361">
  <ele>1583.0</ele>
  <time>2026-08-28T17:53:02Z</time>
  <course>247.0</course>
  <speed>5.0097205510886536</speed>
  <fix>3d</fix>
</trkpt>
<trkpt lat="40.0715999" lon="-105.2291236">
  <ele>1583.0</ele>
  <time>2026-08-28T17:53:02Z</time>
  <course>245.93</course>
  <speed>5.03</speed>
  <fix>3d</fix>
</trkpt>
<trkpt lat="40.0715939" lon="-105.2291415">
  <ele>1583.0</ele>
  <time>2026-08-28T17:53:02Z</time>
  <course>247.0</course>
  <speed>5.0097205510886536</speed>
  <fix>3d</fix>
</trkpt>
<trkpt lat="40.0715962" lon="-105.2291343">
  <ele>1583.0</ele>
  <time>2026-08-28T17:53:02Z</time>
  <course>245.93</course>
  <speed>5.03</speed>
  <fix>3d</fix>
</trkpt>
<trkpt lat="40.0715921" lon="-105.2291469">
  <ele>1583.0</ele>
  <time>2026-08-28T17:53:02Z</time>
  <course>247.0</course>
  <speed>5.0097205510886536</speed>
  <fix>3d</fix>
</trkpt>
<trkpt lat="40.0715962" lon="-105.2291343">
  <ele>1583.0</ele>
  <time>2026-08-28T17:53:02Z</time>
  <course>245.93</course>
  <speed>5.03</speed>
  <fix>3d</fix>
</trkpt>
<trkpt lat="40.0715902" lon="-105.2291523">
  <ele>1582.99</ele>
  <time>2026-08-28T17:53:02Z</time>
  <course>247.0</course>
  <speed>5.0097205510886536</speed>
  <fix>3d</fix>
</trkpt>
<trkpt lat="40.0715962" lon="-105.2291343">
  <ele>1583.0</ele>
  <time>2026-08-28T17:53:02Z</time>
  <course>245.93</course>
  <speed>5.03</speed>
  <fix>3d</fix>
</trkpt>
<trkpt lat="40.0715884" lon="-105.2291577">
  <ele>1582.99</ele>
  <time>2026-08-28T17:53:02Z</time>
  <course>247.01</course>
  <speed>4.996528795073636</speed>
  <fix>3d</fix>
</trkpt>
<trkpt lat="40.0715925" lon="-105.2291452">
  <ele>1583.0</ele>
  <time>2026-08-28T17:53:02Z</time>
  <course>245.93</course>
  <speed>5.03</speed>
  <fix>3d</fix>
</trkpt>
<trkpt lat="40.0715866" lon="-105.2291631">
  <ele>1582.99</ele>
  <time>2026-08-28T17:53:02Z</time>
  <course>247.01</course>
  <speed>4.996528795073636</speed>
  <fix>3d</fix>
</trkpt>
<trkpt lat="40.0715925" lon="-105.2291452">
  <ele>1583.0</ele>
  <time>2026-08-28T17:53:02Z</time>
  <course>245.93</course>
  <speed>5.03</speed>
  <fix>3d</fix>
</trkpt>
<trkpt lat="40.0715848" lon="-105.2291684">
  <ele>1582.99</ele>
  <time>2026-08-28T17:53:02Z</time>
  <course>247.01</course>
  <speed>4.996528795073636</speed>
  <fix>3d</fix>
</trkpt>
<trkpt lat="40.0715888" lon="-105.2291559">
  <ele>1583.0</ele>
  <time>2026-08-28T17:53:02Z</time>
  <course>245.93</course>
  <speed>5.02</speed>
  <fix>3d</fix>
</trkpt>
<trkpt lat="40.0715829" lon="-105.2291737">
  <ele>1582.99</ele>
  <time>2026-08-28T17:53:02Z</time>
  <course>247.01</course>
  <speed>4.996528795073636</speed>
  <fix>3d</fix>
</trkpt>
<trkpt lat="40.0715888" lon="-105.2291559">
  <ele>1583.0</ele>
  <time>2026-08-28T17:53:02Z</time>
  <course>245.93</course>
  <speed>5.02</speed>
  <fix>3d</fix>
</trkpt>
<trkpt lat="40.0715811" lon="-105.229179">
  <ele>1582.99</ele>
  <time>2026-08-28T17:53:02Z</time>
  <course>247.01</course>
  <speed>4.996528795073636</speed>
  <fix>3d</fix>
</trkpt>
<trkpt lat="40.0715852" lon="-105.2291667">
  <ele>1583.0</ele>
  <time>2026-08-28T17:53:02Z</time>
  <course>245.93</course>
  <speed>5.02</speed>
  <fix>3d</fix>
</trkpt>
<trkpt lat="40.0715793" lon="-105.2291844">
  <ele>1582.99</ele>
  <time>2026-08-28T17:53:02Z</time>
  <course>247.01</course>
  <speed>4.98738408386601</speed>
  <fix>3d</fix>
</trkpt>
<trkpt lat="40.0715815" lon="-105.2291774">
  <ele>1583.0</ele>
  <time>2026-08-28T17:53:02Z</time>
  <course>245.93</course>
  <speed>5.02</speed>
  <fix>3d</fix>
</trkpt>
<trkpt lat="40.0715774" lon="-105.2291898">
  <ele>1582.99</ele>
  <time>2026-08-28T17:53:02Z</time>
  <course>247.02</course>
  <speed>4.98738408386601</speed>
  <fix>3d</fix>
</trkpt>
<trkpt lat="40.0715815" lon="-105.2291774">
  <ele>1583.0</ele>
  <time>2026-08-28T17:53:02Z</time>
  <course>245.93</course>
  <speed>5.02</speed>
  <fix>3d</fix>
</trkpt>
<trkpt lat="40.0715756" lon="-105.2291951">
  <ele>1582.99</ele>
  <time>2026-08-28T17:53:02Z</time>
  <course>247.02</course>
  <speed>4.98738408386601</speed>
  <fix>3d</fix>
</trkpt>
<trkpt lat="40.0715778" lon="-105.2291883">
  <ele>1583.0</ele>
  <time>2026-08-28T17:53:02Z</time>
  <course>245.93</course>
  <speed>5.02</speed>
  <fix>3d</fix>
</trkpt>
<trkpt lat="40.0715738" lon="-105.2292005">
  <ele>1582.99</ele>
  <time>2026-08-28T17:53:02Z</time>
  <course>247.02</course>
  <speed>4.996528795073636</speed>
  <fix>3d</fix>
</trkpt>
<trkpt lat="40.0715778" lon="-105.2291883">
  <ele>1583.0</ele>
  <time>2026-08-28T17:53:02Z</time>
  <course>245.93</course>
  <speed>5.02</speed>
  <fix>3d</fix>
</trkpt>
<trkpt lat="40.0715719" lon="-105.2292059">
  <ele>1582.99</ele>
  <time>2026-08-28T17:53:02Z</time>
  <course>247.02</course>
  <speed>4.996528795073636</speed>
  <fix>3d</fix>
</trkpt>
<trkpt lat="40.0715741" lon="-105.229199">
  <ele>1583.0</ele>
  <time>2026-08-28T17:53:02Z</time>
  <course>245.93</course>
  <speed>5.02</speed>
  <fix>3d</fix>
</trkpt>
<trkpt lat="40.0715701" lon="-105.2292113">
  <ele>1582.99</ele>
  <time>2026-08-28T17:53:02Z</time>
  <course>247.02</course>
  <speed>4.996528795073636</speed>
  <fix>3d</fix>
</trkpt>
<trkpt lat="40.0715741" lon="-105.229199">
  <ele>1583.0</ele>
  <time>2026-08-28T17:53:02Z</time>
  <course>245.93</course>
  <speed>5.02</speed>
  <fix>3d</fix>
</trkpt>
<trkpt lat="40.0715682" lon="-105.2292167">
  <ele>1582.99</ele>
  <time>2026-08-28T17:53:02Z</time>
  <course>247.02</course>
  <speed>4.996528795073636</speed>
  <fix>3d</fix>
</trkpt>
<trkpt lat="40.0715704" lon="-105.2292098">
  <ele>1583.0</ele>
  <time>2026-08-28T17:53:02Z</time>
  <course>245.93</course>
  <speed>5.02</speed>
  <fix>3d</fix>
</trkpt>
<trkpt lat="40.0715664" lon="-105.2292221">
  <ele>1582.99</ele>
  <time>2026-08-28T17:53:02Z</time>
  <course>247.02</course>
  <speed>4.996528795073636</speed>
  <fix>3d</fix>
</trkpt>
<trkpt lat="40.0715704" lon="-105.2292098">
  <ele>1583.0</ele>
  <time>2026-08-28T17:53:02Z</time>
  <course>245.93</course>
  <speed>5.02</speed>
  <fix>3d</fix>
</trkpt>
<trkpt lat="40.0715645" lon="-105.2292276">
  <ele>1582.99</ele>
  <time>2026-08-28T17:53:02Z</time>
  <course>247.02</course>
  <speed>4.996528795073636</speed>
  <fix>3d</fix>
</trkpt>
<trkpt lat="40.0715668" lon="-105.2292205">
  <ele>1583.0</ele>
  <time>2026-08-28T17:53:02Z</time>
  <course>245.93</course>
  <speed>5.02</speed>
  <fix>3d</fix>
</trkpt>
<trkpt lat="40.0715627" lon="-105.229233">
  <ele>1582.99</ele>
  <time>2026-08-28T17:53:02Z</time>
  <course>247.03</course>
  <speed>4.996528795073636</speed>
  <fix>3d</fix>
</trkpt>
<trkpt lat="40.0715668" lon="-105.2292205">
  <ele>1583.0</ele>
  <time>2026-08-28T17:53:02Z</time>
  <course>245.93</course>
  <speed>5.02</speed>
  <fix>3d</fix>
</trkpt>
<trkpt lat="40.0715608" lon="-105.2292384">
  <ele>1582.99</ele>
  <time>2026-08-28T17:53:02Z</time>
  <course>247.03</course>
  <speed>4.996528795073636</speed>
  <fix>3d</fix>
</trkpt>
<trkpt lat="40.0715631" lon="-105.2292314">
  <ele>1583.0</ele>
  <time>2026-08-28T17:53:02Z</time>
  <course>245.93</course>
  <speed>5.02</speed>
  <fix>3d</fix>
</trkpt>
<trkpt lat="40.071559" lon="-105.2292438">
  <ele>1582.99</ele>
  <time>2026-08-28T17:53:02Z</time>
  <course>247.03</course>
  <speed>4.996528795073636</speed>
  <fix>3d</fix>
</trkpt>
<trkpt lat="40.0715631" lon="-105.2292314">
  <ele>1583.0</ele>
  <time>2026-08-28T17:53:02Z</time>
  <course>245.93</course>
  <speed>5.02</speed>
  <fix>3d</fix>
</trkpt>
<trkpt lat="40.0715571" lon="-105.2292492">
  <ele>1582.99</ele>
  <time>2026-08-28T17:53:02Z</time>
  <course>247.03</course>
  <speed>4.996528795073636</speed>
  <fix>3d</fix>
</trkpt>
<trkpt lat="40.0715594" lon="-105.2292421">
  <ele>1583.0</ele>
  <time>2026-08-28T17:53:02Z</time>
  <course>245.93</course>
  <speed>5.02</speed>
  <fix>3d</fix>
</trkpt>
<trkpt lat="40.0715553" lon="-105.2292546">
  <ele>1582.99</ele>
  <time>2026-08-28T17:53:02Z</time>
  <course>247.03</course>
  <speed>4.996528795073636</speed>
  <fix>3d</fix>
</trkpt>
<trkpt lat="40.0715594" lon="-105.2292421">
  <ele>1583.0</ele>
  <time>2026-08-28T17:53:02Z</time>
  <course>245.93</course>
  <speed>5.02</speed>
  <fix>3d</fix>
</trkpt>
<trkpt lat="40.0715534" lon="-105.22926">
  <ele>1582.99</ele>
  <time>2026-08-28T17:53:02Z</time>
  <course>247.03</course>
  <speed>4.996528795073636</speed>
  <fix>3d</fix>
</trkpt>
<trkpt lat="40.0715594" lon="-105.2292421">
  <ele>1583.0</ele>
  <time>2026-08-28T17:53:02Z</time>
  <course>245.93</course>
  <speed>5.02</speed>
  <fix>3d</fix>
</trkpt>
<trkpt lat="40.0715516" lon="-105.2292654">
  <ele>1583.0</ele>
  <time>2026-08-28T17:53:02Z</time>
  <course>247.03</course>
  <speed>4.996528795073636</speed>
  <fix>3d</fix>
</trkpt>
<trkpt lat="40.0715557" lon="-105.2292529">
  <ele>1583.0</ele>
  <time>2026-08-28T17:53:02Z</time>
  <course>245.93</course>
  <speed>5.02</speed>
  <fix>3d</fix>
</trkpt>
<trkpt lat="40.0715498" lon="-105.2292708">
  <ele>1583.0</ele>
  <time>2026-08-28T17:53:02Z</time>
  <course>247.03</course>
  <speed>4.996528795073636</speed>
  <fix>3d</fix>
</trkpt>
<trkpt lat="40.0715557" lon="-105.2292529">
  <ele>1583.0</ele>
  <time>2026-08-28T17:53:02Z</time>
  <course>245.93</course>
  <speed>5.02</speed>
  <fix>3d</fix>
</trkpt>
<trkpt lat="40.071548" lon="-105.2292761">
  <ele>1583.0</ele>
  <time>2026-08-28T17:53:02Z</time>
  <course>247.03</course>
  <speed>4.98738408386601</speed>
  <fix>3d</fix>
</trkpt>
<trkpt lat="40.071552" lon="-105.2292637">
  <ele>1583.0</ele>
  <time>2026-08-28T17:53:02Z</time>
  <course>245.93</course>
  <speed>5.01</speed>
  <fix>3d</fix>
</trkpt>
<trkpt lat="40.0715461" lon="-105.2292814">
  <ele>1583.0</ele>
  <time>2026-08-28T17:53:02Z</time>
  <course>247.04</course>
  <speed>4.98738408386601</speed>
  <fix>3d</fix>
</trkpt>
<trkpt lat="40.071552" lon="-105.2292637">
  <ele>1583.0</ele>
  <time>2026-08-28T17:53:02Z</time>
  <course>245.93</course>
  <speed>5.01</speed>
  <fix>3d</fix>
</trkpt>
<trkpt lat="40.0715443" lon="-105.2292867">
  <ele>1583.0</ele>
  <time>2026-08-28T17:53:02Z</time>
  <course>247.04</course>
  <speed>4.98738408386601</speed>
  <fix>3d</fix>
</trkpt>
<trkpt lat="40.0715484" lon="-105.2292745">
  <ele>1583.0</ele>
  <time>2026-08-28T17:53:02Z</time>
  <course>245.93</course>
  <speed>5.01</speed>
  <fix>3d</fix>
</trkpt>
<trkpt lat="40.0715425" lon="-105.2292921">
  <ele>1583.0</ele>
  <time>2026-08-28T17:53:02Z</time>
  <course>247.04</course>
  <speed>4.983342251942966</speed>
  <fix>3d</fix>
</trkpt>
<trkpt lat="40.0715484" lon="-105.2292745">
  <ele>1583.0</ele>
  <time>2026-08-28T17:53:02Z</time>
  <course>245.93</course>
  <speed>5.01</speed>
  <fix>3d</fix>
</trkpt>
<trkpt lat="40.0715407" lon="-105.2292974">
  <ele>1583.0</ele>
  <time>2026-08-28T17:53:02Z</time>
  <course>247.04</course>
  <speed>4.983342251942966</speed>
  <fix>3d</fix>
</trkpt>
<trkpt lat="40.0715447" lon="-105.2292852">
  <ele>1583.0</ele>
  <time>2026-08-28T17:53:02Z</time>
  <course>245.93</course>
  <speed>5.02</speed>
  <fix>3d</fix>
</trkpt>
<trkpt lat="40.0715389" lon="-105.2293028">
  <ele>1583.01</ele>
  <time>2026-08-28T17:53:02Z</time>
  <course>247.04</course>
  <speed>4.983342251942966</speed>
  <fix>3d</fix>
</trkpt>
<trkpt lat="40.071541" lon="-105.229296">
  <ele>1583.0</ele>
  <time>2026-08-28T17:53:02Z</time>
  <course>245.93</course>
  <speed>5.02</speed>
  <fix>3d</fix>
</trkpt>
<trkpt lat="40.071537" lon="-105.2293081">
  <ele>1583.01</ele>
  <time>2026-08-28T17:53:02Z</time>
  <course>247.04</course>
  <speed>4.983342251942966</speed>
  <fix>3d</fix>
</trkpt>
<trkpt lat="40.071541" lon="-105.229296">
  <ele>1583.0</ele>
  <time>2026-08-28T17:53:02Z</time>
  <course>245.93</course>
  <speed>5.02</speed>
  <fix>3d</fix>
</trkpt>
<trkpt lat="40.0715352" lon="-105.2293135">
  <ele>1583.01</ele>
  <time>2026-08-28T17:53:02Z</time>
  <course>247.04</course>
  <speed>4.983342251942966</speed>
  <fix>3d</fix>
</trkpt>
<trkpt lat="40.0715373" lon="-105.2293067">
  <ele>1583.0</ele>
  <time>2026-08-28T17:53:02Z</time>
  <course>245.93</course>
  <speed>5.02</speed>
  <fix>3d</fix>
</trkpt>
<trkpt lat="40.0715334" lon="-105.2293189">
  <ele>1583.01</ele>
  <time>2026-08-28T17:53:02Z</time>
  <course>247.04</course>
  <speed>4.98738408386601</speed>
  <fix>3d</fix>
</trkpt>
<trkpt lat="40.0715373" lon="-105.2293067">
  <ele>1583.0</ele>
  <time>2026-08-28T17:53:02Z</time>
  <course>245.93</course>
  <speed>5.02</speed>
  <fix>3d</fix>
</trkpt>
<trkpt lat="40.0715315" lon="-105.2293243">
  <ele>1583.01</ele>
  <time>2026-08-28T17:53:02Z</time>
  <course>247.04</course>
  <speed>4.996528795073636</speed>
  <fix>3d</fix>
</trkpt>
<trkpt lat="40.0715336" lon="-105.2293175">
  <ele>1583.0</ele>
  <time>2026-08-28T17:53:02Z</time>
  <course>245.93</course>
  <speed>5.02</speed>
  <fix>3d</fix>
</trkpt>
<trkpt lat="40.0715297" lon="-105.2293297">
  <ele>1583.01</ele>
  <time>2026-08-28T17:53:02Z</time>
  <course>247.05</course>
  <speed>4.996528795073636</speed>
  <fix>3d</fix>
</trkpt>
<trkpt lat="40.0715336" lon="-105.2293175">
  <ele>1583.0</ele>
  <time>2026-08-28T17:53:02Z</time>
  <course>245.93</course>
  <speed>5.02</speed>
  <fix>3d</fix>
</trkpt>
<trkpt lat="40.0715278" lon="-105.2293352">
  <ele>1583.01</ele>
  <time>2026-08-28T17:53:02Z</time>
  <course>247.05</course>
  <speed>4.996528795073636</speed>
  <fix>3d</fix>
</trkpt>
<trkpt lat="40.0715299" lon="-105.2293282">
  <ele>1583.0</ele>
  <time>2026-08-28T17:53:02Z</time>
  <course>245.93</course>
  <speed>5.02</speed>
  <fix>3d</fix>
</trkpt>
<trkpt lat="40.0715259" lon="-105.2293406">
  <ele>1583.01</ele>
  <time>2026-08-28T17:53:02Z</time>
  <course>247.05</course>
  <speed>4.996528795073636</speed>
  <fix>3d</fix>
</trkpt>
<trkpt lat="40.0715299" lon="-105.2293282">
  <ele>1583.0</ele>
  <time>2026-08-28T17:53:02Z</time>
  <course>245.93</course>
  <speed>5.02</speed>
  <fix>3d</fix>
</trkpt>
<trkpt lat="40.0715241" lon="-105.229346">
  <ele>1583.01</ele>
  <time>2026-08-28T17:53:02Z</time>
  <course>247.05</course>
  <speed>4.996528795073636</speed>
  <fix>3d</fix>
</trkpt>
<trkpt lat="40.0715263" lon="-105.2293391">
  <ele>1583.0</ele>
  <time>2026-08-28T17:53:02Z</time>
  <course>245.93</course>
  <speed>5.02</speed>
  <fix>3d</fix>
</trkpt>
<trkpt lat="40.0715222" lon="-105.2293514">
  <ele>1583.01</ele>
  <time>2026-08-28T17:53:02Z</time>
  <course>247.05</course>
  <speed>5.005676777419812</speed>
  <fix>3d</fix>
</trkpt>
<trkpt lat="40.0715263" lon="-105.2293391">
  <ele>1583.0</ele>
  <time>2026-08-28T17:53:02Z</time>
  <course>245.93</course>
  <speed>5.02</speed>
  <fix>3d</fix>
</trkpt>
<trkpt lat="40.0715204" lon="-105.2293569">
  <ele>1583.01</ele>
  <time>2026-08-28T17:53:02Z</time>
  <course>247.05</course>
  <speed>5.005676777419812</speed>
  <fix>3d</fix>
</trkpt>
<trkpt lat="40.0715226" lon="-105.2293498">
  <ele>1583.0</ele>
  <time>2026-08-28T17:53:02Z</time>
  <course>245.93</course>
  <speed>5.02</speed>
  <fix>3d</fix>
</trkpt>
<trkpt lat="40.0715185" lon="-105.2293623">
  <ele>1583.01</ele>
  <time>2026-08-28T17:53:02Z</time>
  <course>247.05</course>
  <speed>5.005676777419812</speed>
  <fix>3d</fix>
</trkpt>
<trkpt lat="40.0715226" lon="-105.2293498">
  <ele>1583.0</ele>
  <time>2026-08-28T17:53:02Z</time>
  <course>245.93</course>
  <speed>5.02</speed>
  <fix>3d</fix>
</trkpt>
<trkpt lat="40.0715167" lon="-105.2293677">
  <ele>1583.01</ele>
  <time>2026-08-28T17:53:02Z</time>
  <course>247.05</course>
  <speed>5.005676777419812</speed>
  <fix>3d</fix>
</trkpt>
<trkpt lat="40.0715189" lon="-105.2293606">
  <ele>1583.0</ele>
  <time>2026-08-28T17:53:02Z</time>
  <course>245.93</course>
  <speed>5.02</speed>
  <fix>3d</fix>
</trkpt>
<trkpt lat="40.0715148" lon="-105.2293731">
  <ele>1583.01</ele>
  <time>2026-08-28T17:53:02Z</time>
  <course>247.05</course>
  <speed>5.005676777419812</speed>
  <fix>3d</fix>
</trkpt>
<trkpt lat="40.0715189" lon="-105.2293606">
  <ele>1583.0</ele>
  <time>2026-08-28T17:53:02Z</time>
  <course>245.93</course>
  <speed>5.02</speed>
  <fix>3d</fix>
</trkpt>
<trkpt lat="40.071513" lon="-105.2293785">
  <ele>1583.01</ele>
  <time>2026-08-28T17:53:02Z</time>
  <course>247.07</course>
  <speed>5.005676777419812</speed>
  <fix>3d</fix>
</trkpt>
<trkpt lat="40.0715189" lon="-105.2293606">
  <ele>1583.0</ele>
  <time>2026-08-28T17:53:02Z</time>
  <course>245.93</course>
  <speed>5.02</speed>
  <fix>3d</fix>
</trkpt>
<trkpt lat="40.0715111" lon="-105.2293839">
  <ele>1583.01</ele>
  <time>2026-08-28T17:53:02Z</time>
  <course>247.07</course>
  <speed>4.996528795073636</speed>
  <fix>3d</fix>
</trkpt>
<trkpt lat="40.0715152" lon="-105.2293713">
  <ele>1583.0</ele>
  <time>2026-08-28T17:53:02Z</time>
  <course>245.94</course>
  <speed>5.02</speed>
  <fix>3d</fix>
</trkpt>
<trkpt lat="40.0715093" lon="-105.2293892">
  <ele>1583.01</ele>
  <time>2026-08-28T17:53:02Z</time>
  <course>247.07</course>
  <speed>4.996528795073636</speed>
  <fix>3d</fix>
</trkpt>
<trkpt lat="40.0715152" lon="-105.2293713">
  <ele>1583.0</ele>
  <time>2026-08-28T17:53:02Z</time>
  <course>245.94</course>
  <speed>5.02</speed>
  <fix>3d</fix>
</trkpt>
<trkpt lat="40.0715075" lon="-105.2293946">
  <ele>1583.01</ele>
  <time>2026-08-28T17:53:02Z</time>
  <course>247.07</course>
  <speed>4.996528795073636</speed>
  <fix>3d</fix>
</trkpt>
<trkpt lat="40.0715116" lon="-105.2293822">
  <ele>1583.0</ele>
  <time>2026-08-28T17:53:02Z</time>
  <course>245.95</course>
  <speed>5.02</speed>
  <fix>3d</fix>
</trkpt>
<trkpt lat="40.0715057" lon="-105.2293999">
  <ele>1583.01</ele>
  <time>2026-08-28T17:53:02Z</time>
  <course>247.07</course>
  <speed>4.992494366546646</speed>
  <fix>3d</fix>
</trkpt>
<trkpt lat="40.0715116" lon="-105.2293822">
  <ele>1583.0</ele>
  <time>2026-08-28T17:53:02Z</time>
  <course>245.95</course>
  <speed>5.02</speed>
  <fix>3d</fix>
</trkpt>
<trkpt lat="40.0715039" lon="-105.2294052">
  <ele>1583.0</ele>
  <time>2026-08-28T17:53:02Z</time>
  <course>247.07</course>
  <speed>4.983342251942966</speed>
  <fix>3d</fix>
</trkpt>
<trkpt lat="40.0715079" lon="-105.2293929">
  <ele>1583.0</ele>
  <time>2026-08-28T17:53:02Z</time>
  <course>245.95</course>
  <speed>5.01</speed>
  <fix>3d</fix>
</trkpt>
<trkpt lat="40.071502" lon="-105.2294106">
  <ele>1583.0</ele>
  <time>2026-08-28T17:53:02Z</time>
  <course>247.07</course>
  <speed>4.983342251942966</speed>
  <fix>3d</fix>
</trkpt>
<trkpt lat="40.0715042" lon="-105.2294037">
  <ele>1583.0</ele>
  <time>2026-08-28T17:53:02Z</time>
  <course>245.95</course>
  <speed>5.01</speed>
  <fix>3d</fix>
</trkpt>
<trkpt lat="40.0715002" lon="-105.229416">
  <ele>1583.0</ele>
  <time>2026-08-28T17:53:02Z</time>
  <course>247.07</course>
  <speed>4.992494366546646</speed>
  <fix>3d</fix>
</trkpt>
<trkpt lat="40.0715042" lon="-105.2294037">
  <ele>1583.0</ele>
  <time>2026-08-28T17:53:02Z</time>
  <course>245.95</course>
  <speed>5.01</speed>
  <fix>3d</fix>
</trkpt>
<trkpt lat="40.0714984" lon="-105.2294213">
  <ele>1582.99</ele>
  <time>2026-08-28T17:53:02Z</time>
  <course>247.07</course>
  <speed>4.992494366546646</speed>
  <fix>3d</fix>
</trkpt>
<trkpt lat="40.0715005" lon="-105.2294144">
  <ele>1583.0</ele>
  <time>2026-08-28T17:53:02Z</time>
  <course>245.95</course>
  <speed>5.02</speed>
  <fix>3d</fix>
</trkpt>
<trkpt lat="40.0714965" lon="-105.2294267">
  <ele>1582.99</ele>
  <time>2026-08-28T17:53:02Z</time>
  <course>247.08</course>
  <speed>4.992494366546646</speed>
  <fix>3d</fix>
</trkpt>
<trkpt lat="40.0715005" lon="-105.2294144">
  <ele>1583.0</ele>
  <time>2026-08-28T17:53:02Z</time>
  <course>245.95</course>
  <speed>5.02</speed>
  <fix>3d</fix>
</trkpt>
<trkpt lat="40.0714947" lon="-105.2294321">
  <ele>1582.99</ele>
  <time>2026-08-28T17:53:02Z</time>
  <course>247.08</course>
  <speed>4.992494366546646</speed>
  <fix>3d</fix>
</trkpt>
<trkpt lat="40.0714969" lon="-105.2294252">
  <ele>1583.0</ele>
  <time>2026-08-28T17:53:02Z</time>
  <course>245.95</course>
  <speed>5.02</speed>
  <fix>3d</fix>
</trkpt>
<trkpt lat="40.0714929" lon="-105.2294375">
  <ele>1582.99</ele>
  <time>2026-08-28T17:53:02Z</time>
  <course>247.09</course>
  <speed>4.992494366546646</speed>
  <fix>3d</fix>
</trkpt>
<trkpt lat="40.0714969" lon="-105.2294252">
  <ele>1583.0</ele>
  <time>2026-08-28T17:53:02Z</time>
  <course>245.95</course>
  <speed>5.02</speed>
  <fix>3d</fix>
</trkpt>
<trkpt lat="40.071491" lon="-105.2294429">
  <ele>1582.99</ele>
  <time>2026-08-28T17:53:02Z</time>
  <course>247.09</course>
  <speed>4.992494366546646</speed>
  <fix>3d</fix>
</trkpt>
<trkpt lat="40.0714932" lon="-105.2294359">
  <ele>1583.0</ele>
  <time>2026-08-28T17:53:02Z</time>
  <course>245.96</course>
  <speed>5.02</speed>
  <fix>3d</fix>
</trkpt>
<trkpt lat="40.0714891" lon="-105.2294484">
  <ele>1582.99</ele>
  <time>2026-08-28T17:53:02Z</time>
  <course>247.09</course>
  <speed>4.992494366546646</speed>
  <fix>3d</fix>
</trkpt>
<trkpt lat="40.0714932" lon="-105.2294359">
  <ele>1583.0</ele>
  <time>2026-08-28T17:53:02Z</time>
  <course>245.96</course>
  <speed>5.02</speed>
  <fix>3d</fix>
</trkpt>
<trkpt lat="40.0714873" lon="-105.2294538">
  <ele>1582.99</ele>
  <time>2026-08-28T17:53:02Z</time>
  <course>247.09</course>
  <speed>4.992494366546646</speed>
  <fix>3d</fix>
</trkpt>
<trkpt lat="40.0714895" lon="-105.2294468">
  <ele>1583.0</ele>
  <time>2026-08-28T17:53:02Z</time>
  <course>245.96</course>
  <speed>5.02</speed>
  <fix>3d</fix>
</trkpt>
<trkpt lat="40.0714855" lon="-105.2294592">
  <ele>1582.99</ele>
  <time>2026-08-28T17:53:02Z</time>
  <course>247.09</course>
  <speed>4.992494366546646</speed>
  <fix>3d</fix>
</trkpt>
<trkpt lat="40.0714895" lon="-105.2294468">
  <ele>1583.0</ele>
  <time>2026-08-28T17:53:02Z</time>
  <course>245.96</course>
  <speed>5.02</speed>
  <fix>3d</fix>
</trkpt>
<trkpt lat="40.0714836" lon="-105.2294646">
  <ele>1582.99</ele>
  <time>2026-08-28T17:53:02Z</time>
  <course>247.09</course>
  <speed>4.992494366546646</speed>
  <fix>3d</fix>
</trkpt>
<trkpt lat="40.0714858" lon="-105.2294575">
  <ele>1583.0</ele>
  <time>2026-08-28T17:53:02Z</time>
  <course>245.96</course>
  <speed>5.02</speed>
  <fix>3d</fix>
</trkpt>
<trkpt lat="40.0714818" lon="-105.22947">
  <ele>1582.99</ele>
  <time>2026-08-28T17:53:02Z</time>
  <course>247.09</course>
  <speed>4.992494366546646</speed>
  <fix>3d</fix>
</trkpt>
<trkpt lat="40.0714858" lon="-105.2294575">
  <ele>1583.0</ele>
  <time>2026-08-28T17:53:02Z</time>
  <course>245.96</course>
  <speed>5.02</speed>
  <fix>3d</fix>
</trkpt>
<trkpt lat="40.0714799" lon="-105.2294754">
  <ele>1582.99</ele>
  <time>2026-08-28T17:53:02Z</time>
  <course>247.09</course>
  <speed>4.992494366546646</speed>
  <fix>3d</fix>
</trkpt>
<trkpt lat="40.0714822" lon="-105.2294683">
  <ele>1583.0</ele>
  <time>2026-08-28T17:53:02Z</time>
  <course>245.96</course>
  <speed>5.01</speed>
  <fix>3d</fix>
</trkpt>
<trkpt lat="40.0714781" lon="-105.2294808">
  <ele>1582.99</ele>
  <time>2026-08-28T17:53:02Z</time>
  <course>247.09</course>
  <speed>4.992494366546646</speed>
  <fix>3d</fix>
</trkpt>
<trkpt lat="40.0714822" lon="-105.2294683">
  <ele>1583.0</ele>
  <time>2026-08-28T17:53:02Z</time>
  <course>245.96</course>
  <speed>5.01</speed>
  <fix>3d</fix>
</trkpt>
<trkpt lat="40.0714762" lon="-105.2294862">
  <ele>1582.99</ele>
  <time>2026-08-28T17:53:02Z</time>
  <course>247.09</course>
  <speed>4.992494366546646</speed>
  <fix>3d</fix>
</trkpt>
<trkpt lat="40.0714822" lon="-105.2294683">
  <ele>1583.0</ele>
  <time>2026-08-28T17:53:02Z</time>
  <course>245.96</course>
  <speed>5.01</speed>
  <fix>3d</fix>
</trkpt>
<trkpt lat="40.0714744" lon="-105.2294916">
  <ele>1582.99</ele>
  <time>2026-08-28T17:53:02Z</time>
  <course>247.09</course>
  <speed>4.992494366546646</speed>
  <fix>3d</fix>
</trkpt>
<trkpt lat="40.0714785" lon="-105.229479">
  <ele>1583.0</ele>
  <time>2026-08-28T17:53:02Z</time>
  <course>245.96</course>
  <speed>5.01</speed>
  <fix>3d</fix>
</trkpt>
<trkpt lat="40.0714726" lon="-105.2294969">
  <ele>1582.99</ele>
  <time>2026-08-28T17:53:02Z</time>
  <course>247.09</course>
  <speed>4.992494366546646</speed>
  <fix>3d</fix>
</trkpt>
<trkpt lat="40.0714785" lon="-105.229479">
  <ele>1583.0</ele>
  <time>2026-08-28T17:53:02Z</time>
  <course>245.96</course>
  <speed>5.01</speed>
  <fix>3d</fix>
</trkpt>
<trkpt lat="40.0714708" lon="-105.2295023">
  <ele>1583.0</ele>
  <time>2026-08-28T17:53:02Z</time>
  <course>247.09</course>
  <speed>4.992494366546646</speed>
  <fix>3d</fix>
</trkpt>
<trkpt lat="40.0714748" lon="-105.2294898">
  <ele>1583.0</ele>
  <time>2026-08-28T17:53:02Z</time>
  <course>245.96</course>
  <speed>5.01</speed>
  <fix>3d</fix>
</trkpt>
<trkpt lat="40.071469" lon="-105.2295076">
  <ele>1583.0</ele>
  <time>2026-08-28T17:53:02Z</time>
  <course>247.09</course>
  <speed>4.992494366546646</speed>
  <fix>3d</fix>
</trkpt>
<trkpt lat="40.0714748" lon="-105.2294898">
  <ele>1583.0</ele>
  <time>2026-08-28T17:53:02Z</time>
  <course>245.96</course>
  <speed>5.01</speed>
  <fix>3d</fix>
</trkpt>
<trkpt lat="40.0714671" lon="-105.2295129">
  <ele>1583.0</ele>
  <time>2026-08-28T17:53:02Z</time>
  <course>247.09</course>
  <speed>4.983342251942966</speed>
  <fix>3d</fix>
</trkpt>
<trkpt lat="40.0714711" lon="-105.2295006">
  <ele>1583.0</ele>
  <time>2026-08-28T17:53:02Z</time>
  <course>245.96</course>
  <speed>5.01</speed>
  <fix>3d</fix>
</trkpt>
<trkpt lat="40.0714653" lon="-105.2295182">
  <ele>1583.01</ele>
  <time>2026-08-28T17:53:02Z</time>
  <course>247.1</course>
  <speed>4.983342251942966</speed>
  <fix>3d</fix>
</trkpt>
<trkpt lat="40.0714711" lon="-105.2295006">
  <ele>1583.0</ele>
  <time>2026-08-28T17:53:02Z</time>
  <course>245.96</course>
  <speed>5.01</speed>
  <fix>3d</fix>
</trkpt>
<trkpt lat="40.0714635" lon="-105.2295236">
  <ele>1583.01</ele>
  <time>2026-08-28T17:53:02Z</time>
  <course>247.1</course>
  <speed>4.983342251942966</speed>
  <fix>3d</fix>
</trkpt>
<trkpt lat="40.0714675" lon="-105.2295113">
  <ele>1583.0</ele>
  <time>2026-08-28T17:53:02Z</time>
  <course>245.97</course>
  <speed>5.01</speed>
  <fix>3d</fix>
</trkpt>
<trkpt lat="40.0714617" lon="-105.2295289">
  <ele>1583.01</ele>
  <time>2026-08-28T17:53:02Z</time>
  <course>247.1</course>
  <speed>4.983342251942966</speed>
  <fix>3d</fix>
</trkpt>
<trkpt lat="40.0714638" lon="-105.2295221">
  <ele>1583.0</ele>
  <time>2026-08-28T17:53:02Z</time>
  <course>245.97</course>
  <speed>5.01</speed>
  <fix>3d</fix>
</trkpt>
<trkpt lat="40.0714598" lon="-105.2295343">
  <ele>1583.01</ele>
  <time>2026-08-28T17:53:02Z</time>
  <course>247.1</course>
  <speed>4.983342251942966</speed>
  <fix>3d</fix>
</trkpt>
<trkpt lat="40.0714638" lon="-105.2295221">
  <ele>1583.0</ele>
  <time>2026-08-28T17:53:02Z</time>
  <course>245.97</course>
  <speed>5.01</speed>
  <fix>3d</fix>
</trkpt>
<trkpt lat="40.071458" lon="-105.2295396">
  <ele>1583.01</ele>
  <time>2026-08-28T17:53:02Z</time>
  <course>247.1</course>
  <speed>4.983342251942966</speed>
  <fix>3d</fix>
</trkpt>
<trkpt lat="40.0714601" lon="-105.2295328">
  <ele>1583.0</ele>
  <time>2026-08-28T17:53:02Z</time>
  <course>245.97</course>
  <speed>5.02</speed>
  <fix>3d</fix>
</trkpt>
<trkpt lat="40.0714562" lon="-105.229545">
  <ele>1583.01</ele>
  <time>2026-08-28T17:53:02Z</time>
  <course>247.1</course>
  <speed>4.992494366546646</speed>
  <fix>3d</fix>
</trkpt>
<trkpt lat="40.0714601" lon="-105.2295328">
  <ele>1583.0</ele>
  <time>2026-08-28T17:53:02Z</time>
  <course>245.97</course>
  <speed>5.02</speed>
  <fix>3d</fix>
</trkpt>
<trkpt lat="40.0714543" lon="-105.2295504">
  <ele>1583.01</ele>
  <time>2026-08-28T17:53:02Z</time>
  <course>247.11</course>
  <speed>4.992494366546646</speed>
  <fix>3d</fix>
</trkpt>
<trkpt lat="40.0714564" lon="-105.2295436">
  <ele>1583.0</ele>
  <time>2026-08-28T17:53:02Z</time>
  <course>245.98</course>
  <speed>5.02</speed>
  <fix>3d</fix>
</trkpt>
<trkpt lat="40.0714525" lon="-105.2295558">
  <ele>1583.01</ele>
  <time>2026-08-28T17:53:02Z</time>
  <course>247.11</course>
  <speed>4.992494366546646</speed>
  <fix>3d</fix>
</trkpt>
<trkpt lat="40.0714564" lon="-105.2295436">
  <ele>1583.0</ele>
  <time>2026-08-28T17:53:02Z</time>
  <course>245.98</course>
  <speed>5.02</speed>
  <fix>3d</fix>
</trkpt>
<trkpt lat="40.0714506" lon="-105.2295613">
  <ele>1583.02</ele>
  <time>2026-08-28T17:53:02Z</time>
  <course>247.11</course>
  <speed>4.992494366546646</speed>
  <fix>3d</fix>
</trkpt>
<trkpt lat="40.0714528" lon="-105.2295543">
  <ele>1583.0</ele>
  <time>2026-08-28T17:53:02Z</time>
  <course>245.97</course>
  <speed>5.02</speed>
  <fix>3d</fix>
</trkpt>
<trkpt lat="40.0714488" lon="-105.2295667">
  <ele>1583.02</ele>
  <time>2026-08-28T17:53:02Z</time>
  <course>247.11</course>
  <speed>4.992494366546646</speed>
  <fix>3d</fix>
</trkpt>
<trkpt lat="40.0714528" lon="-105.2295543">
  <ele>1583.0</ele>
  <time>2026-08-28T17:53:02Z</time>
  <course>245.97</course>
  <speed>5.02</speed>
  <fix>3d</fix>
</trkpt>
<trkpt lat="40.0714469" lon="-105.2295721">
  <ele>1583.02</ele>
  <time>2026-08-28T17:53:02Z</time>
  <course>247.11</course>
  <speed>5.001649727839806</speed>
  <fix>3d</fix>
</trkpt>
<trkpt lat="40.0714491" lon="-105.2295652">
  <ele>1583.0</ele>
  <time>2026-08-28T17:53:02Z</time>
  <course>245.97</course>
  <speed>5.02</speed>
  <fix>3d</fix>
</trkpt>
<trkpt lat="40.0714451" lon="-105.2295776">
  <ele>1583.02</ele>
  <time>2026-08-28T17:53:02Z</time>
  <course>247.11</course>
  <speed>5.005676777419812</speed>
  <fix>3d</fix>
</trkpt>
<trkpt lat="40.0714491" lon="-105.2295652">
  <ele>1583.0</ele>
  <time>2026-08-28T17:53:02Z</time>
  <course>245.97</course>
  <speed>5.02</speed>
  <fix>3d</fix>
</trkpt>
<trkpt lat="40.0714432" lon="-105.229583">
  <ele>1583.02</ele>
  <time>2026-08-28T17:53:02Z</time>
  <course>247.12</course>
  <speed>5.001649727839806</speed>
  <fix>3d</fix>
</trkpt>
<trkpt lat="40.0714454" lon="-105.2295759">
  <ele>1583.0</ele>
  <time>2026-08-28T17:53:02Z</time>
  <course>245.98</course>
  <speed>5.02</speed>
  <fix>3d</fix>
</trkpt>
<trkpt lat="40.0714414" lon="-105.2295884">
  <ele>1583.02</ele>
  <time>2026-08-28T17:53:02Z</time>
  <course>247.12</course>
  <speed>5.001649727839806</speed>
  <fix>3d</fix>
</trkpt>
<trkpt lat="40.0714454" lon="-105.2295759">
  <ele>1583.0</ele>
  <time>2026-08-28T17:53:02Z</time>
  <course>245.98</course>
  <speed>5.02</speed>
  <fix>3d</fix>
</trkpt>
<trkpt lat="40.0714395" lon="-105.2295938">
  <ele>1583.02</ele>
  <time>2026-08-28T17:53:02Z</time>
  <course>247.12</course>
  <speed>5.001649727839806</speed>
  <fix>3d</fix>
</trkpt>
<trkpt lat="40.0714417" lon="-105.2295867">
  <ele>1583.0</ele>
  <time>2026-08-28T17:53:02Z</time>
  <course>245.99</course>
  <speed>5.02</speed>
  <fix>3d</fix>
</trkpt>
<trkpt lat="40.0714377" lon="-105.2295992">
  <ele>1583.03</ele>
  <time>2026-08-28T17:53:02Z</time>
  <course>247.12</course>
  <speed>5.001649727839806</speed>
  <fix>3d</fix>
</trkpt>
<trkpt lat="40.0714417" lon="-105.2295867">
  <ele>1583.0</ele>
  <time>2026-08-28T17:53:02Z</time>
  <course>245.99</course>
  <speed>5.02</speed>
  <fix>3d</fix>
</trkpt>
<trkpt lat="40.0714358" lon="-105.2296046">
  <ele>1583.03</ele>
  <time>2026-08-28T17:53:02Z</time>
  <course>247.12</course>
  <speed>5.001649727839806</speed>
  <fix>3d</fix>
</trkpt>
<trkpt lat="40.0714417" lon="-105.2295867">
  <ele>1583.0</ele>
  <time>2026-08-28T17:53:02Z</time>
  <course>245.99</course>
  <speed>5.02</speed>
  <fix>3d</fix>
</trkpt>
<trkpt lat="40.071434" lon="-105.22961">
  <ele>1583.04</ele>
  <time>2026-08-28T17:53:02Z</time>
  <course>247.12</course>
  <speed>5.001649727839806</speed>
  <fix>3d</fix>
</trkpt>
<trkpt lat="40.0714381" lon="-105.2295974">
  <ele>1583.0</ele>
  <time>2026-08-28T17:53:02Z</time>
  <course>245.99</course>
  <speed>5.02</speed>
  <fix>3d</fix>
</trkpt>
<trkpt lat="40.0714322" lon="-105.2296154">
  <ele>1583.04</ele>
  <time>2026-08-28T17:53:02Z</time>
  <course>247.12</course>
  <speed>4.992494366546646</speed>
  <fix>3d</fix>
</trkpt>
<trkpt lat="40.0714381" lon="-105.2295974">
  <ele>1583.0</ele>
  <time>2026-08-28T17:53:02Z</time>
  <course>245.99</course>
  <speed>5.02</speed>
  <fix>3d</fix>
</trkpt>
<trkpt lat="40.0714304" lon="-105.2296207">
  <ele>1583.04</ele>
  <time>2026-08-28T17:53:02Z</time>
  <course>247.13</course>
  <speed>4.992494366546646</speed>
  <fix>3d</fix>
</trkpt>
<trkpt lat="40.0714344" lon="-105.2296083">
  <ele>1583.0</ele>
  <time>2026-08-28T17:53:02Z</time>
  <course>245.99</course>
  <speed>5.01</speed>
  <fix>3d</fix>
</trkpt>
<trkpt lat="40.0714286" lon="-105.229626">
  <ele>1583.04</ele>
  <time>2026-08-28T17:53:02Z</time>
  <course>247.16</course>
  <speed>4.992494366546646</speed>
  <fix>3d</fix>
</trkpt>
<trkpt lat="40.0714344" lon="-105.2296083">
  <ele>1583.0</ele>
  <time>2026-08-28T17:53:02Z</time>
  <course>245.99</course>
  <speed>5.01</speed>
  <fix>3d</fix>
</trkpt>
<trkpt lat="40.0714267" lon="-105.2296313">
  <ele>1583.04</ele>
  <time>2026-08-28T17:53:02Z</time>
  <course>247.16</course>
  <speed>4.992494366546646</speed>
  <fix>3d</fix>
</trkpt>
<trkpt lat="40.0714308" lon="-105.229619">
  <ele>1583.0</ele>
  <time>2026-08-28T17:53:02Z</time>
  <course>246.01</course>
  <speed>5.01</speed>
  <fix>3d</fix>
</trkpt>
<trkpt lat="40.0714249" lon="-105.2296367">
  <ele>1583.04</ele>
  <time>2026-08-28T17:53:02Z</time>
  <course>247.19</course>
  <speed>4.988476721405043</speed>
  <fix>3d</fix>
</trkpt>
<trkpt lat="40.0714271" lon="-105.2296298">
  <ele>1583.0</ele>
  <time>2026-08-28T17:53:02Z</time>
  <course>246.04</course>
  <speed>5.01</speed>
  <fix>3d</fix>
</trkpt>
<trkpt lat="40.0714231" lon="-105.2296421">
  <ele>1583.04</ele>
  <time>2026-08-28T17:53:02Z</time>
  <course>247.22</course>
  <speed>4.988476721405043</speed>
  <fix>3d</fix>
</trkpt>
<trkpt lat="40.0714271" lon="-105.2296298">
  <ele>1583.0</ele>
  <time>2026-08-28T17:53:02Z</time>
  <course>246.04</course>
  <speed>5.01</speed>
  <fix>3d</fix>
</trkpt>
<trkpt lat="40.0714213" lon="-105.2296475">
  <ele>1583.04</ele>
  <time>2026-08-28T17:53:02Z</time>
  <course>247.23</course>
  <speed>4.988476721405043</speed>
  <fix>3d</fix>
</trkpt>
<trkpt lat="40.0714234" lon="-105.2296405">
  <ele>1583.0</ele>
  <time>2026-08-28T17:53:02Z</time>
  <course>246.08</course>
  <speed>5.01</speed>
  <fix>3d</fix>
</trkpt>
<trkpt lat="40.0714195" lon="-105.2296528">
  <ele>1583.04</ele>
  <time>2026-08-28T17:53:02Z</time>
  <course>247.27</course>
  <speed>4.988476721405043</speed>
  <fix>3d</fix>
</trkpt>
<trkpt lat="40.0714234" lon="-105.2296405">
  <ele>1583.0</ele>
  <time>2026-08-28T17:53:02Z</time>
  <course>246.08</course>
  <speed>5.01</speed>
  <fix>3d</fix>
</trkpt>
<trkpt lat="40.0714176" lon="-105.2296582">
  <ele>1583.04</ele>
  <time>2026-08-28T17:53:02Z</time>
  <course>247.3</course>
  <speed>4.984475900232641</speed>
  <fix>3d</fix>
</trkpt>
<trkpt lat="40.0714198" lon="-105.2296513">
  <ele>1583.0</ele>
  <time>2026-08-28T17:53:02Z</time>
  <course>246.13</course>
  <speed>5.01</speed>
  <fix>3d</fix>
</trkpt>
<trkpt lat="40.0714158" lon="-105.2296636">
  <ele>1583.04</ele>
  <time>2026-08-28T17:53:02Z</time>
  <course>247.33</course>
  <speed>4.96214671286531</speed>
  <fix>3d</fix>
</trkpt>
<trkpt lat="40.0714198" lon="-105.2296513">
  <ele>1583.0</ele>
  <time>2026-08-28T17:53:02Z</time>
  <course>246.13</course>
  <speed>5.01</speed>
  <fix>3d</fix>
</trkpt>
<trkpt lat="40.071414" lon="-105.229669">
  <ele>1583.03</ele>
  <time>2026-08-28T17:53:02Z</time>
  <course>247.39</course>
  <speed>4.926662156064692</speed>
  <fix>3d</fix>
</trkpt>
<trkpt lat="40.0714162" lon="-105.229662">
  <ele>1583.0</ele>
  <time>2026-08-28T17:53:02Z</time>
  <course>246.21</course>
  <speed>4.98</speed>
  <fix>3d</fix>
</trkpt>
<trkpt lat="40.0714122" lon="-105.2296743">
  <ele>1583.03</ele>
  <time>2026-08-28T17:53:02Z</time>
  <course>247.43</course>
  <speed>4.8728328516377415</speed>
  <fix>3d</fix>
</trkpt>
<trkpt lat="40.0714162" lon="-105.229662">
  <ele>1583.0</ele>
  <time>2026-08-28T17:53:02Z</time>
  <course>246.21</course>
  <speed>4.98</speed>
  <fix>3d</fix>
</trkpt>
<trkpt lat="40.0714105" lon="-105.2296796">
  <ele>1583.02</ele>
  <time>2026-08-28T17:53:02Z</time>
  <course>247.46</course>
  <speed>4.8058506010903</speed>
  <fix>3d</fix>
</trkpt>
<trkpt lat="40.0714126" lon="-105.2296727">
  <ele>1583.0</ele>
  <time>2026-08-28T17:53:02Z</time>
  <course>246.29</course>
  <speed>4.89</speed>
  <fix>3d</fix>
</trkpt>
<trkpt lat="40.0714087" lon="-105.2296848">
  <ele>1583.02</ele>
  <time>2026-08-28T17:53:02Z</time>
  <course>247.52</course>
  <speed>4.729693436154187</speed>
  <fix>3d</fix>
</trkpt>
<trkpt lat="40.0714126" lon="-105.2296727">
  <ele>1583.0</ele>
  <time>2026-08-28T17:53:02Z</time>
  <course>246.29</course>
  <speed>4.89</speed>
  <fix>3d</fix>
</trkpt>
<trkpt lat="40.071407" lon="-105.2296898">
  <ele>1583.02</ele>
  <time>2026-08-28T17:53:02Z</time>
  <course>247.56</course>
  <speed>4.6403879148191916</speed>
  <fix>3d</fix>
</trkpt>
<trkpt lat="40.0714091" lon="-105.229683">
  <ele>1583.0</ele>
  <time>2026-08-28T17:53:02Z</time>
  <course>246.38</course>
  <speed>4.75</speed>
  <fix>3d</fix>
</trkpt>
<trkpt lat="40.0714054" lon="-105.2296948">
  <ele>1583.02</ele>
  <time>2026-08-28T17:53:02Z</time>
  <course>247.63</course>
  <speed>4.551087782058263</speed>
  <fix>3d</fix>
</trkpt>
<trkpt lat="40.0714091" lon="-105.229683">
  <ele>1583.0</ele>
  <time>2026-08-28T17:53:02Z</time>
  <course>246.38</course>
  <speed>4.75</speed>
  <fix>3d</fix>
</trkpt>
<trkpt lat="40.0714037" lon="-105.2296997">
  <ele>1583.02</ele>
  <time>2026-08-28T17:53:02Z</time>
  <course>247.66</course>
  <speed>4.4434221046396205</speed>
  <fix>3d</fix>
</trkpt>
<trkpt lat="40.0714057" lon="-105.229693">
  <ele>1583.0</ele>
  <time>2026-08-28T17:53:02Z</time>
  <course>246.48</course>
  <speed>4.56</speed>
  <fix>3d</fix>
</trkpt>
<trkpt lat="40.0714021" lon="-105.2297044">
  <ele>1583.02</ele>
  <time>2026-08-28T17:53:02Z</time>
  <course>247.72</course>
  <speed>4.331801011126896</speed>
  <fix>3d</fix>
</trkpt>
<trkpt lat="40.0714057" lon="-105.229693">
  <ele>1583.0</ele>
  <time>2026-08-28T17:53:02Z</time>
  <course>246.48</course>
  <speed>4.56</speed>
  <fix>3d</fix>
</trkpt>
<trkpt lat="40.0714006" lon="-105.229709">
  <ele>1583.02</ele>
  <time>2026-08-28T17:53:02Z</time>
  <course>247.78</course>
  <speed>4.210997506529777</speed>
  <fix>3d</fix>
</trkpt>
<trkpt lat="40.0714057" lon="-105.229693">
  <ele>1583.0</ele>
  <time>2026-08-28T17:53:02Z</time>
  <course>246.48</course>
  <speed>4.56</speed>
  <fix>3d</fix>
</trkpt>
<trkpt lat="40.0713991" lon="-105.2297135">
  <ele>1583.03</ele>
  <time>2026-08-28T17:53:02Z</time>
  <course>247.84</course>
  <speed>4.08100477823783</speed>
  <fix>3d</fix>
</trkpt>
<trkpt lat="40.0714026" lon="-105.2297026">
  <ele>1583.0</ele>
  <time>2026-08-28T17:53:02Z</time>
  <course>246.59</course>
  <speed>4.35</speed>
  <fix>3d</fix>
</trkpt>
<trkpt lat="40.0713977" lon="-105.2297178">
  <ele>1583.03</ele>
  <time>2026-08-28T17:53:02Z</time>
  <course>247.89</course>
  <speed>3.9602020150492323</speed>
  <fix>3d</fix>
</trkpt>
<trkpt lat="40.0714026" lon="-105.2297026">
  <ele>1583.0</ele>
  <time>2026-08-28T17:53:02Z</time>
  <course>246.59</course>
  <speed>4.35</speed>
  <fix>3d</fix>
</trkpt>
<trkpt lat="40.0713963" lon="-105.2297219">
  <ele>1583.03</ele>
  <time>2026-08-28T17:53:02Z</time>
  <course>247.97</course>
  <speed>3.794759544424389</speed>
  <fix>3d</fix>
</trkpt>
<trkpt lat="40.0713995" lon="-105.2297118">
  <ele>1583.0</ele>
  <time>2026-08-28T17:53:02Z</time>
  <course>246.7</course>
  <speed>4.11</speed>
  <fix>3d</fix>
</trkpt>
<trkpt lat="40.071395" lon="-105.2297259">
  <ele>1583.04</ele>
  <time>2026-08-28T17:53:02Z</time>
  <course>248.02</course>
  <speed>3.6109278585981195</speed>
  <fix>3d</fix>
</trkpt>
<trkpt lat="40.0713995" lon="-105.2297118">
  <ele>1583.0</ele>
  <time>2026-08-28T17:53:02Z</time>
  <course>246.7</course>
  <speed>4.11</speed>
  <fix>3d</fix>
</trkpt>
<trkpt lat="40.0713938" lon="-105.2297296">
  <ele>1583.04</ele>
  <time>2026-08-28T17:53:02Z</time>
  <course>248.07</course>
  <speed>3.423171044514136</speed>
  <fix>3d</fix>
</trkpt>
<trkpt lat="40.0713967" lon="-105.2297204">
  <ele>1583.0</ele>
  <time>2026-08-28T17:53:02Z</time>
  <course>246.82</course>
  <speed>3.81</speed>
  <fix>3d</fix>
</trkpt>
<trkpt lat="40.0713926" lon="-105.2297331">
  <ele>1583.04</ele>
  <time>2026-08-28T17:53:02Z</time>
  <course>248.11</course>
  <speed>3.252460606986655</speed>
  <fix>3d</fix>
</trkpt>
<trkpt lat="40.0713967" lon="-105.2297204">
  <ele>1583.0</ele>
  <time>2026-08-28T17:53:02Z</time>
  <course>246.82</course>
  <speed>3.81</speed>
  <fix>3d</fix>
</trkpt>
<trkpt lat="40.0713915" lon="-105.2297365">
  <ele>1583.04</ele>
  <time>2026-08-28T17:53:02Z</time>
  <course>248.16</course>
  <speed>3.087021217938095</speed>
  <fix>3d</fix>
</trkpt>
<trkpt lat="40.0713942" lon="-105.2297283">
  <ele>1583.0</ele>
  <time>2026-08-28T17:53:02Z</time>
  <course>246.93</course>
  <speed>3.47</speed>
  <fix>3d</fix>
</trkpt>
<trkpt lat="40.0713905" lon="-105.2297398">
  <ele>1583.04</ele>
  <time>2026-08-28T17:53:02Z</time>
  <course>248.2</course>
  <speed>2.925508502807674</speed>
  <fix>3d</fix>
</trkpt>
<trkpt lat="40.0713918" lon="-105.2297354">
  <ele>1583.0</ele>
  <time>2026-08-28T17:53:02Z</time>
  <course>247.02</course>
  <speed>3.14</speed>
  <fix>3d</fix>
</trkpt>
<trkpt lat="40.0713895" lon="-105.2297428">
  <ele>1583.04</ele>
  <time>2026-08-28T17:53:02Z</time>
  <course>248.24</course>
  <speed>2.7823910580649875</speed>
  <fix>3d</fix>
</trkpt>
<trkpt lat="40.0713918" lon="-105.2297354">
  <ele>1583.0</ele>
  <time>2026-08-28T17:53:02Z</time>
  <course>247.02</course>
  <speed>3.14</speed>
  <fix>3d</fix>
</trkpt>
<trkpt lat="40.0713885" lon="-105.2297457">
  <ele>1583.04</ele>
  <time>2026-08-28T17:53:02Z</time>
  <course>248.28</course>
  <speed>2.6431988196123273</speed>
  <fix>3d</fix>
</trkpt>
<trkpt lat="40.0713898" lon="-105.2297418">
  <ele>1583.0</ele>
  <time>2026-08-28T17:53:02Z</time>
  <course>247.1</course>
  <speed>2.84</speed>
  <fix>3d</fix>
</trkpt>
<trkpt lat="40.0713876" lon="-105.2297485">
  <ele>1583.05</ele>
  <time>2026-08-28T17:53:02Z</time>
  <course>248.31</course>
  <speed>2.5092827660508887</speed>
  <fix>3d</fix>
</trkpt>
<trkpt lat="40.0713898" lon="-105.2297418">
  <ele>1583.0</ele>
  <time>2026-08-28T17:53:02Z</time>
  <course>247.1</course>
  <speed>2.84</speed>
  <fix>3d</fix>
</trkpt>
<trkpt lat="40.0713867" lon="-105.2297511">
  <ele>1583.05</ele>
  <time>2026-08-28T17:53:02Z</time>
  <course>248.34</course>
  <speed>2.379285607067802</speed>
  <fix>3d</fix>
</trkpt>
<trkpt lat="40.0713879" lon="-105.2297477">
  <ele>1583.0</ele>
  <time>2026-08-28T17:53:02Z</time>
  <course>247.17</course>
  <speed>2.57</speed>
  <fix>3d</fix>
</trkpt>
<trkpt lat="40.0713859" lon="-105.2297537">
  <ele>1583.05</ele>
  <time>2026-08-28T17:53:02Z</time>
  <course>248.37</course>
  <speed>2.262410219213129</speed>
  <fix>3d</fix>
</trkpt>
<trkpt lat="40.0713879" lon="-105.2297477">
  <ele>1583.0</ele>
  <time>2026-08-28T17:53:02Z</time>
  <course>247.17</course>
  <speed>2.57</speed>
  <fix>3d</fix>
</trkpt>
<trkpt lat="40.0713851" lon="-105.2297561">
  <ele>1583.05</ele>
  <time>2026-08-28T17:53:02Z</time>
  <course>248.4</course>
  <speed>2.141611542740653</speed>
  <fix>3d</fix>
</trkpt>
<trkpt lat="40.0713862" lon="-105.229753">
  <ele>1583.0</ele>
  <time>2026-08-28T17:53:02Z</time>
  <course>247.24</course>
  <speed>2.32</speed>
  <fix>3d</fix>
</trkpt>
<trkpt lat="40.0713844" lon="-105.2297584">
  <ele>1583.04</ele>
  <time>2026-08-28T17:53:02Z</time>
  <course>248.43</course>
  <speed>2.033937068839643</speed>
  <fix>3d</fix>
</trkpt>
<trkpt lat="40.0713862" lon="-105.229753">
  <ele>1583.0</ele>
  <time>2026-08-28T17:53:02Z</time>
  <course>247.24</course>
  <speed>2.32</speed>
  <fix>3d</fix>
</trkpt>
<trkpt lat="40.0713837" lon="-105.2297605">
  <ele>1583.04</ele>
  <time>2026-08-28T17:53:02Z</time>
  <course>248.46</course>
  <speed>1.9354586019855862</speed>
  <fix>3d</fix>
</trkpt>
<trkpt lat="40.0713846" lon="-105.2297578">
  <ele>1583.0</ele>
  <time>2026-08-28T17:53:02Z</time>
  <course>247.3</course>
  <speed>2.1</speed>
  <fix>3d</fix>
</trkpt>
<trkpt lat="40.071383" lon="-105.2297626">
  <ele>1583.04</ele>
  <time>2026-08-28T17:53:02Z</time>
  <course>248.48</course>
  <speed>1.8369812192834198</speed>
  <fix>3d</fix>
</trkpt>
<trkpt lat="40.0713846" lon="-105.2297578">
  <ele>1583.0</ele>
  <time>2026-08-28T17:53:02Z</time>
  <course>247.3</course>
  <speed>2.1</speed>
  <fix>3d</fix>
</trkpt>
<trkpt lat="40.0713824" lon="-105.2297646">
  <ele>1583.04</ele>
  <time>2026-08-28T17:53:02Z</time>
  <course>248.51</course>
  <speed>1.7385051049680584</speed>
  <fix>3d</fix>
</trkpt>
<trkpt lat="40.0713832" lon="-105.2297621">
  <ele>1583.0</ele>
  <time>2026-08-28T17:53:02Z</time>
  <course>247.36</course>
  <speed>1.9</speed>
  <fix>3d</fix>
</trkpt>
<trkpt lat="40.0713818" lon="-105.2297664">
  <ele>1583.04</ele>
  <time>2026-08-28T17:53:02Z</time>
  <course>248.53</course>
  <speed>1.6492422502470643</speed>
  <fix>3d</fix>
</trkpt>
<trkpt lat="40.0713832" lon="-105.2297621">
  <ele>1583.0</ele>
  <time>2026-08-28T17:53:02Z</time>
  <course>247.36</course>
  <speed>1.9</speed>
  <fix>3d</fix>
</trkpt>
<trkpt lat="40.0713813" lon="-105.2297682">
  <ele>1583.04</ele>
  <time>2026-08-28T17:53:02Z</time>
  <course>248.55</course>
  <speed>1.563873396410336</speed>
  <fix>3d</fix>
</trkpt>
<trkpt lat="40.0713832" lon="-105.2297621">
  <ele>1583.0</ele>
  <time>2026-08-28T17:53:02Z</time>
  <course>247.36</course>
  <speed>1.9</speed>
  <fix>3d</fix>
</trkpt>
<trkpt lat="40.0713807" lon="-105.2297699">
  <ele>1583.04</ele>
  <time>2026-08-28T17:53:02Z</time>
  <course>248.57</course>
  <speed>1.48771637081804</speed>
  <fix>3d</fix>
</trkpt>
<trkpt lat="40.071382" lon="-105.229766">
  <ele>1583.0</ele>
  <time>2026-08-28T17:53:02Z</time>
  <course>247.41</course>
  <speed>1.72</speed>
  <fix>3d</fix>
</trkpt>
<trkpt lat="40.0713802" lon="-105.2297715">
  <ele>1583.04</ele>
  <time>2026-08-28T17:53:02Z</time>
  <course>248.59</course>
  <speed>1.4115594213493106</speed>
  <fix>3d</fix>
</trkpt>
<trkpt lat="40.071382" lon="-105.229766">
  <ele>1583.0</ele>
  <time>2026-08-28T17:53:02Z</time>
  <course>247.41</course>
  <speed>1.72</speed>
  <fix>3d</fix>
</trkpt>
<trkpt lat="40.0713797" lon="-105.229773">
  <ele>1583.04</ele>
  <time>2026-08-28T17:53:02Z</time>
  <course>248.61</course>
  <speed>1.335402561027947</speed>
  <fix>3d</fix>
</trkpt>
<trkpt lat="40.0713808" lon="-105.2297696">
  <ele>1583.0</ele>
  <time>2026-08-28T17:53:02Z</time>
  <course>247.45</course>
  <speed>1.55</speed>
  <fix>3d</fix>
</trkpt>
<trkpt lat="40.0713793" lon="-105.2297744">
  <ele>1583.05</ele>
  <time>2026-08-28T17:53:02Z</time>
  <course>248.62</course>
  <speed>1.2684636376341263</speed>
  <fix>3d</fix>
</trkpt>
<trkpt lat="40.0713808" lon="-105.2297696">
  <ele>1583.0</ele>
  <time>2026-08-28T17:53:02Z</time>
  <course>247.45</course>
  <speed>1.55</speed>
  <fix>3d</fix>
</trkpt>
<trkpt lat="40.0713788" lon="-105.2297758">
  <ele>1583.05</ele>
  <time>2026-08-28T17:53:02Z</time>
  <course>248.64</course>
  <speed>1.2015406776301834</speed>
  <fix>3d</fix>
</trkpt>
<trkpt lat="40.0713798" lon="-105.2297729">
  <ele>1583.0</ele>
  <time>2026-08-28T17:53:02Z</time>
  <course>247.49</course>
  <speed>1.41</speed>
  <fix>3d</fix>
</trkpt>
<trkpt lat="40.0713784" lon="-105.2297771">
  <ele>1583.05</ele>
  <time>2026-08-28T17:53:02Z</time>
  <course>248.66</course>
  <speed>1.1384638773364748</speed>
  <fix>3d</fix>
</trkpt>
<trkpt lat="40.0713798" lon="-105.2297729">
  <ele>1583.0</ele>
  <time>2026-08-28T17:53:02Z</time>
  <course>247.49</course>
  <speed>1.41</speed>
  <fix>3d</fix>
</trkpt>
<trkpt lat="40.071378" lon="-105.2297783">
  <ele>1583.06</ele>
  <time>2026-08-28T17:53:02Z</time>
  <course>248.67</course>
  <speed>1.0807867504739312</speed>
  <fix>3d</fix>
</trkpt>
<trkpt lat="40.0713789" lon="-105.2297758">
  <ele>1583.0</ele>
  <time>2026-08-28T17:53:02Z</time>
  <course>247.53</course>
  <speed>1.27</speed>
  <fix>3d</fix>
</trkpt>
<trkpt lat="40.0713777" lon="-105.2297795">
  <ele>1583.06</ele>
  <time>2026-08-28T17:53:02Z</time>
  <course>248.69</course>
  <speed>1.0269371937952194</speed>
  <fix>3d</fix>
</trkpt>
<trkpt lat="40.0713781" lon="-105.2297784">
  <ele>1583.0</ele>
  <time>2026-08-28T17:53:02Z</time>
  <course>247.56</course>
  <speed>1.15</speed>
  <fix>3d</fix>
</trkpt>
<trkpt lat="40.0713773" lon="-105.2297807">
  <ele>1583.06</ele>
  <time>2026-08-28T17:53:02Z</time>
  <course>248.7</course>
  <speed>0.9730878685915265</speed>
  <fix>3d</fix>
</trkpt>
<trkpt lat="40.0713781" lon="-105.2297784">
  <ele>1583.0</ele>
  <time>2026-08-28T17:53:02Z</time>
  <course>247.56</course>
  <speed>1.15</speed>
  <fix>3d</fix>
</trkpt>
<trkpt lat="39.655741" lon="-104.1383097">
  <ele>1566.58</ele>
  <time>2026-08-28T17:53:03Z</time>
  <course>0.0</course>
  <speed>0.0</speed>
  <fix>3d</fix>
</trkpt>
<trkpt lat="40.0713749" lon="-105.229789">
  <ele>1583.0</ele>
  <time>2026-08-28T17:53:03Z</time>
  <course>0.0</course>
  <speed>0.0</speed>
  <fix>3d</fix>
</trkpt>
<trkpt lat="40.0713749" lon="-105.229789">
  <ele>1583.0</ele>
  <time>2026-08-28T17:53:03Z</time>
  <course>238.36</course>
  <speed>0.0</speed>
  <fix>3d</fix>
</trkpt>
<trkpt lat="40.0713749" lon="-105.229789">
  <ele>1583.0</ele>
  <time>2026-08-28T17:53:03Z</time>
  <course>0.0</course>
  <speed>0.0</speed>
  <fix>3d</fix>
</trkpt>
<trkpt lat="40.0713749" lon="-105.229789">
  <ele>1583.0</ele>
  <time>2026-08-28T17:53:03Z</time>
  <course>238.44</course>
  <speed>0.0</speed>
  <fix>3d</fix>
</trkpt>
<trkpt lat="40.0713749" lon="-105.229789">
  <ele>1583.0</ele>
  <time>2026-08-28T17:53:03Z</time>
  <course>0.0</course>
  <speed>0.0</speed>
  <fix>3d</fix>
</trkpt>
<trkpt lat="40.0713749" lon="-105.229789">
  <ele>1583.0</ele>
  <time>2026-08-28T17:53:03Z</time>
  <course>238.64</course>
  <speed>0.0</speed>
  <fix>3d</fix>
</trkpt>
<trkpt lat="40.0713749" lon="-105.229789">
  <ele>1583.0</ele>
  <time>2026-08-28T17:53:03Z</time>
  <course>0.0</course>
  <speed>0.0</speed>
  <fix>3d</fix>
</trkpt>
<trkpt lat="40.0713749" lon="-105.229789">
  <ele>1583.0</ele>
  <time>2026-08-28T17:53:03Z</time>
  <course>238.93</course>
  <speed>0.0</speed>
  <fix>3d</fix>
</trkpt>
<trkpt lat="40.0713749" lon="-105.229789">
  <ele>1583.0</ele>
  <time>2026-08-28T17:53:03Z</time>
  <course>0.0</course>
  <speed>0.0</speed>
  <fix>3d</fix>
</trkpt>
<trkpt lat="40.0713749" lon="-105.229789">
  <ele>1583.0</ele>
  <time>2026-08-28T17:53:03Z</time>
  <course>239.26</course>
  <speed>0.0</speed>
  <fix>3d</fix>
</trkpt>
<trkpt lat="40.0713749" lon="-105.229789">
  <ele>1583.0</ele>
  <time>2026-08-28T17:53:03Z</time>
  <course>0.0</course>
  <speed>0.0</speed>
  <fix>3d</fix>
</trkpt>
<trkpt lat="40.0713749" lon="-105.229789">
  <ele>1583.0</ele>
  <time>2026-08-28T17:53:03Z</time>
  <course>239.61</course>
  <speed>0.0</speed>
  <fix>3d</fix>
</trkpt>
<trkpt lat="40.0713749" lon="-105.229789">
  <ele>1583.0</ele>
  <time>2026-08-28T17:53:03Z</time>
  <course>0.0</course>
  <speed>0.0</speed>
  <fix>3d</fix>
</trkpt>
<trkpt lat="40.0713749" lon="-105.229789">
  <ele>1583.0</ele>
  <time>2026-08-28T17:53:03Z</time>
  <course>239.96</course>
  <speed>0.0</speed>
  <fix>3d</fix>
</trkpt>
<trkpt lat="40.0713749" lon="-105.229789">
  <ele>1583.0</ele>
  <time>2026-08-28T17:53:03Z</time>
  <course>0.0</course>
  <speed>0.0</speed>
  <fix>3d</fix>
</trkpt>
<trkpt lat="40.0713749" lon="-105.229789">
  <ele>1583.0</ele>
  <time>2026-08-28T17:53:03Z</time>
  <course>240.29</course>
  <speed>0.0</speed>
  <fix>3d</fix>
</trkpt>
<trkpt lat="40.0713749" lon="-105.229789">
  <ele>1583.0</ele>
  <time>2026-08-28T17:53:03Z</time>
  <course>0.0</course>
  <speed>0.0</speed>
  <fix>3d</fix>
</trkpt>
<trkpt lat="40.0713749" lon="-105.229789">
  <ele>1583.0</ele>
  <time>2026-08-28T17:53:03Z</time>
  <course>240.61</course>
  <speed>0.0</speed>
  <fix>3d</fix>
</trkpt>
<trkpt lat="40.0713749" lon="-105.229789">
  <ele>1583.0</ele>
  <time>2026-08-28T17:53:03Z</time>
  <course>0.0</course>
  <speed>0.0</speed>
  <fix>3d</fix>
</trkpt>
<trkpt lat="40.0713749" lon="-105.229789">
  <ele>1583.0</ele>
  <time>2026-08-28T17:53:03Z</time>
  <course>240.92</course>
  <speed>0.0</speed>
  <fix>3d</fix>
</trkpt>
<trkpt lat="40.0713749" lon="-105.229789">
  <ele>1583.0</ele>
  <time>2026-08-28T17:53:03Z</time>
  <course>0.0</course>
  <speed>0.0</speed>
  <fix>3d</fix>
</trkpt>
<trkpt lat="40.0713749" lon="-105.229789">
  <ele>1583.0</ele>
  <time>2026-08-28T17:53:03Z</time>
  <course>241.21</course>
  <speed>0.0</speed>
  <fix>3d</fix>
</trkpt>
<trkpt lat="40.0713749" lon="-105.229789">
  <ele>1583.0</ele>
  <time>2026-08-28T17:53:03Z</time>
  <course>0.0</course>
  <speed>0.0</speed>
  <fix>3d</fix>
</trkpt>
<trkpt lat="40.0713749" lon="-105.229789">
  <ele>1583.0</ele>
  <time>2026-08-28T17:53:03Z</time>
  <course>241.49</course>
  <speed>0.0</speed>
  <fix>3d</fix>
</trkpt>
<trkpt lat="40.0713749" lon="-105.229789">
  <ele>1583.0</ele>
  <time>2026-08-28T17:53:03Z</time>
  <course>0.0</course>
  <speed>0.0</speed>
  <fix>3d</fix>
</trkpt>
<trkpt lat="40.0713749" lon="-105.229789">
  <ele>1583.0</ele>
  <time>2026-08-28T17:53:03Z</time>
  <course>241.77</course>
  <speed>0.0</speed>
  <fix>3d</fix>
</trkpt>
<trkpt lat="40.0713749" lon="-105.229789">
  <ele>1583.0</ele>
  <time>2026-08-28T17:53:03Z</time>
  <course>0.0</course>
  <speed>0.0</speed>
  <fix>3d</fix>
</trkpt>
<trkpt lat="40.0713749" lon="-105.229789">
  <ele>1583.0</ele>
  <time>2026-08-28T17:53:03Z</time>
  <course>242.03</course>
  <speed>0.0</speed>
  <fix>3d</fix>
</trkpt>
<trkpt lat="40.0713749" lon="-105.229789">
  <ele>1583.0</ele>
  <time>2026-08-28T17:53:03Z</time>
  <course>0.0</course>
  <speed>0.0</speed>
  <fix>3d</fix>
</trkpt>
<trkpt lat="40.0713749" lon="-105.229789">
  <ele>1583.0</ele>
  <time>2026-08-28T17:53:03Z</time>
  <course>242.29</course>
  <speed>0.0</speed>
  <fix>3d</fix>
</trkpt>
<trkpt lat="40.0713749" lon="-105.229789">
  <ele>1583.0</ele>
  <time>2026-08-28T17:53:03Z</time>
  <course>0.0</course>
  <speed>0.0</speed>
  <fix>3d</fix>
</trkpt>
<trkpt lat="40.0713749" lon="-105.229789">
  <ele>1583.0</ele>
  <time>2026-08-28T17:53:03Z</time>
  <course>242.54</course>
  <speed>0.0</speed>
  <fix>3d</fix>
</trkpt>
<trkpt lat="40.0713749" lon="-105.229789">
  <ele>1583.0</ele>
  <time>2026-08-28T17:53:03Z</time>
  <course>0.0</course>
  <speed>0.0</speed>
  <fix>3d</fix>
</trkpt>
<trkpt lat="40.0713749" lon="-105.229789">
  <ele>1583.0</ele>
  <time>2026-08-28T17:53:03Z</time>
  <course>242.79</course>
  <speed>0.0</speed>
  <fix>3d</fix>
</trkpt>
<trkpt lat="40.0713749" lon="-105.229789">
  <ele>1583.0</ele>
  <time>2026-08-28T17:53:03Z</time>
  <course>0.0</course>
  <speed>0.0</speed>
  <fix>3d</fix>
</trkpt>
<trkpt lat="40.0713749" lon="-105.229789">
  <ele>1583.0</ele>
  <time>2026-08-28T17:53:03Z</time>
  <course>243.02</course>
  <speed>0.0</speed>
  <fix>3d</fix>
</trkpt>
<trkpt lat="40.0713749" lon="-105.229789">
  <ele>1583.0</ele>
  <time>2026-08-28T17:53:03Z</time>
  <course>0.0</course>
  <speed>0.0</speed>
  <fix>3d</fix>
</trkpt>
<trkpt lat="40.0713749" lon="-105.229789">
  <ele>1583.0</ele>
  <time>2026-08-28T17:53:03Z</time>
  <course>243.25</course>
  <speed>0.0</speed>
  <fix>3d</fix>
</trkpt>
<trkpt lat="40.0713749" lon="-105.229789">
  <ele>1583.0</ele>
  <time>2026-08-28T17:53:03Z</time>
  <course>0.0</course>
  <speed>0.0</speed>
  <fix>3d</fix>
</trkpt>
<trkpt lat="40.0713749" lon="-105.229789">
  <ele>1583.0</ele>
  <time>2026-08-28T17:53:03Z</time>
  <course>243.47</course>
  <speed>0.0</speed>
  <fix>3d</fix>
</trkpt>
<trkpt lat="40.0713749" lon="-105.229789">
  <ele>1583.0</ele>
  <time>2026-08-28T17:53:03Z</time>
  <course>0.0</course>
  <speed>0.0</speed>
  <fix>3d</fix>
</trkpt>
<trkpt lat="40.0713749" lon="-105.229789">
  <ele>1583.0</ele>
  <time>2026-08-28T17:53:03Z</time>
  <course>243.68</course>
  <speed>0.0</speed>
  <fix>3d</fix>
</trkpt>
<trkpt lat="40.0713749" lon="-105.229789">
  <ele>1583.0</ele>
  <time>2026-08-28T17:53:03Z</time>
  <course>0.0</course>
  <speed>0.0</speed>
  <fix>3d</fix>
</trkpt>
<trkpt lat="40.0713749" lon="-105.229789">
  <ele>1583.0</ele>
  <time>2026-08-28T17:53:03Z</time>
  <course>243.89</course>
  <speed>0.0</speed>
  <fix>3d</fix>
</trkpt>
<trkpt lat="40.0713749" lon="-105.229789">
  <ele>1583.0</ele>
  <time>2026-08-28T17:53:03Z</time>
  <course>0.0</course>
  <speed>0.0</speed>
  <fix>3d</fix>
</trkpt>
<trkpt lat="40.0713749" lon="-105.229789">
  <ele>1583.0</ele>
  <time>2026-08-28T17:53:03Z</time>
  <course>244.09</course>
  <speed>0.0</speed>
  <fix>3d</fix>
</trkpt>
<trkpt lat="40.0713749" lon="-105.229789">
  <ele>1583.0</ele>
  <time>2026-08-28T17:53:03Z</time>
  <course>0.0</course>
  <speed>0.0</speed>
  <fix>3d</fix>
</trkpt>
<trkpt lat="40.0713749" lon="-105.229789">
  <ele>1583.0</ele>
  <time>2026-08-28T17:53:03Z</time>
  <course>244.28</course>
  <speed>0.0</speed>
  <fix>3d</fix>
</trkpt>
<trkpt lat="40.0713749" lon="-105.229789">
  <ele>1583.0</ele>
  <time>2026-08-28T17:53:03Z</time>
  <course>0.0</course>
  <speed>0.0</speed>
  <fix>3d</fix>
</trkpt>
<trkpt lat="40.0713749" lon="-105.229789">
  <ele>1583.0</ele>
  <time>2026-08-28T17:53:03Z</time>
  <course>244.46</course>
  <speed>0.0</speed>
  <fix>3d</fix>
</trkpt>
<trkpt lat="40.0713749" lon="-105.229789">
  <ele>1583.0</ele>
  <time>2026-08-28T17:53:03Z</time>
  <course>0.0</course>
  <speed>0.0</speed>
  <fix>3d</fix>
</trkpt>
<trkpt lat="40.0713749" lon="-105.229789">
  <ele>1583.0</ele>
  <time>2026-08-28T17:53:03Z</time>
  <course>244.64</course>
  <speed>0.0</speed>
  <fix>3d</fix>
</trkpt>
<trkpt lat="40.0713749" lon="-105.229789">
  <ele>1583.0</ele>
  <time>2026-08-28T17:53:03Z</time>
  <course>0.0</course>
  <speed>0.0</speed>
  <fix>3d</fix>
</trkpt>
<trkpt lat="40.0713749" lon="-105.229789">
  <ele>1583.0</ele>
  <time>2026-08-28T17:53:03Z</time>
  <course>244.81</course>
  <speed>0.0</speed>
  <fix>3d</fix>
</trkpt>
<trkpt lat="40.0713749" lon="-105.229789">
  <ele>1583.0</ele>
  <time>2026-08-28T17:53:03Z</time>
  <course>0.0</course>
  <speed>0.0</speed>
  <fix>3d</fix>
</trkpt>
<trkpt lat="40.0713749" lon="-105.229789">
  <ele>1583.0</ele>
  <time>2026-08-28T17:53:03Z</time>
  <course>244.97</course>
  <speed>0.0</speed>
  <fix>3d</fix>
</trkpt>
<trkpt lat="40.0713749" lon="-105.229789">
  <ele>1583.0</ele>
  <time>2026-08-28T17:53:03Z</time>
  <course>0.0</course>
  <speed>0.0</speed>
  <fix>3d</fix>
</trkpt>
<trkpt lat="40.0713749" lon="-105.229789">
  <ele>1583.0</ele>
  <time>2026-08-28T17:53:03Z</time>
  <course>245.13</course>
  <speed>0.0</speed>
  <fix>3d</fix>
</trkpt>
<trkpt lat="40.0713749" lon="-105.229789">
  <ele>1583.0</ele>
  <time>2026-08-28T17:53:03Z</time>
  <course>0.0</course>
  <speed>0.0</speed>
  <fix>3d</fix>
</trkpt>
<trkpt lat="40.0713749" lon="-105.229789">
  <ele>1583.0</ele>
  <time>2026-08-28T17:53:03Z</time>
  <course>245.29</course>
  <speed>0.0</speed>
  <fix>3d</fix>
</trkpt>
<trkpt lat="40.0713749" lon="-105.229789">
  <ele>1583.0</ele>
  <time>2026-08-28T17:53:03Z</time>
  <course>0.0</course>
  <speed>0.0</speed>
  <fix>3d</fix>
</trkpt>
<trkpt lat="40.0713749" lon="-105.229789">
  <ele>1583.0</ele>
  <time>2026-08-28T17:53:03Z</time>
  <course>245.43</course>
  <speed>0.0</speed>
  <fix>3d</fix>
</trkpt>
<trkpt lat="40.0713749" lon="-105.229789">
  <ele>1583.0</ele>
  <time>2026-08-28T17:53:03Z</time>
  <course>0.0</course>
  <speed>0.0</speed>
  <fix>3d</fix>
</trkpt>
<trkpt lat="40.0713749" lon="-105.229789">
  <ele>1583.0</ele>
  <time>2026-08-28T17:53:03Z</time>
  <course>245.57</course>
  <speed>0.0</speed>
  <fix>3d</fix>
</trkpt>
<trkpt lat="40.0713749" lon="-105.229789">
  <ele>1583.0</ele>
  <time>2026-08-28T17:53:03Z</time>
  <course>0.0</course>
  <speed>0.0</speed>
  <fix>3d</fix>
</trkpt>
<trkpt lat="40.0713749" lon="-105.229789">
  <ele>1583.0</ele>
  <time>2026-08-28T17:53:03Z</time>
  <course>245.71</course>
  <speed>0.0</speed>
  <fix>3d</fix>
</trkpt>
<trkpt lat="40.0713749" lon="-105.229789">
  <ele>1583.0</ele>
  <time>2026-08-28T17:53:03Z</time>
  <course>0.0</course>
  <speed>0.0</speed>
  <fix>3d</fix>
</trkpt>
<trkpt lat="40.0713749" lon="-105.229789">
  <ele>1583.0</ele>
  <time>2026-08-28T17:53:03Z</time>
  <course>245.84</course>
  <speed>0.0</speed>
  <fix>3d</fix>
</trkpt>
<trkpt lat="40.0713749" lon="-105.229789">
  <ele>1583.0</ele>
  <time>2026-08-28T17:53:03Z</time>
  <course>0.0</course>
  <speed>0.0</speed>
  <fix>3d</fix>
</trkpt>
<trkpt lat="40.0713749" lon="-105.229789">
  <ele>1583.0</ele>
  <time>2026-08-28T17:53:03Z</time>
  <course>245.96</course>
  <speed>0.0</speed>
  <fix>3d</fix>
</trkpt>
<trkpt lat="40.0713749" lon="-105.229789">
  <ele>1583.0</ele>
  <time>2026-08-28T17:53:03Z</time>
  <course>0.0</course>
  <speed>0.0</speed>
  <fix>3d</fix>
</trkpt>
<trkpt lat="39.655741" lon="-104.1383097">
  <ele>1566.58</ele>
  <time>2026-08-28T17:53:04Z</time>
  <course>0.0</course>
  <speed>0.0</speed>
  <fix>3d</fix>
</trkpt>
<trkpt lat="40.0713749" lon="-105.229789">
  <ele>1583.0</ele>
  <time>2026-08-28T17:53:04Z</time>
  <course>0.0</course>
  <speed>0.0</speed>
  <fix>3d</fix>
</trkpt>
<trkpt lat="40.0713749" lon="-105.229789">
  <ele>1583.0</ele>
  <time>2026-08-28T17:53:04Z</time>
  <course>238.36</course>
  <speed>0.0</speed>
  <fix>3d</fix>
</trkpt>
<trkpt lat="40.0713749" lon="-105.229789">
  <ele>1583.0</ele>
  <time>2026-08-28T17:53:04Z</time>
  <course>0.0</course>
  <speed>0.0</speed>
  <fix>3d</fix>
</trkpt>
<trkpt lat="40.0713749" lon="-105.229789">
  <ele>1583.0</ele>
  <time>2026-08-28T17:53:04Z</time>
  <course>238.44</course>
  <speed>0.0</speed>
  <fix>3d</fix>
</trkpt>
<trkpt lat="40.0713749" lon="-105.229789">
  <ele>1583.0</ele>
  <time>2026-08-28T17:53:04Z</time>
  <course>0.0</course>
  <speed>0.0</speed>
  <fix>3d</fix>
</trkpt>
<trkpt lat="40.0713749" lon="-105.229789">
  <ele>1583.0</ele>
  <time>2026-08-28T17:53:04Z</time>
  <course>238.64</course>
  <speed>0.0</speed>
  <fix>3d</fix>
</trkpt>
<trkpt lat="40.0713749" lon="-105.229789">
  <ele>1583.0</ele>
  <time>2026-08-28T17:53:04Z</time>
  <course>0.0</course>
  <speed>0.0</speed>
  <fix>3d</fix>
</trkpt>
<trkpt lat="40.0713749" lon="-105.229789">
  <ele>1583.0</ele>
  <time>2026-08-28T17:53:04Z</time>
  <course>238.93</course>
  <speed>0.0</speed>
  <fix>3d</fix>
</trkpt>
<trkpt lat="40.0713749" lon="-105.229789">
  <ele>1583.0</ele>
  <time>2026-08-28T17:53:04Z</time>
  <course>0.0</course>
  <speed>0.0</speed>
  <fix>3d</fix>
</trkpt>
<trkpt lat="40.0713749" lon="-105.229789">
  <ele>1583.0</ele>
  <time>2026-08-28T17:53:04Z</time>
  <course>239.26</course>
  <speed>0.0</speed>
  <fix>3d</fix>
</trkpt>
<trkpt lat="40.0713749" lon="-105.229789">
  <ele>1583.0</ele>
  <time>2026-08-28T17:53:04Z</time>
  <course>0.0</course>
  <speed>0.0</speed>
  <fix>3d</fix>
</trkpt>
<trkpt lat="40.0713749" lon="-105.229789">
  <ele>1583.0</ele>
  <time>2026-08-28T17:53:04Z</time>
  <course>239.61</course>
  <speed>0.0</speed>
  <fix>3d</fix>
</trkpt>
<trkpt lat="40.0713749" lon="-105.229789">
  <ele>1583.0</ele>
  <time>2026-08-28T17:53:04Z</time>
  <course>0.0</course>
  <speed>0.0</speed>
  <fix>3d</fix>
</trkpt>
<trkpt lat="40.0713749" lon="-105.229789">
  <ele>1583.0</ele>
  <time>2026-08-28T17:53:04Z</time>
  <course>239.96</course>
  <speed>0.0</speed>
  <fix>3d</fix>
</trkpt>
<trkpt lat="40.0713749" lon="-105.229789">
  <ele>1583.0</ele>
  <time>2026-08-28T17:53:04Z</time>
  <course>0.0</course>
  <speed>0.0</speed>
  <fix>3d</fix>
</trkpt>
<trkpt lat="40.0713749" lon="-105.229789">
  <ele>1583.0</ele>
  <time>2026-08-28T17:53:04Z</time>
  <course>240.29</course>
  <speed>0.0</speed>
  <fix>3d</fix>
</trkpt>
<trkpt lat="40.0713749" lon="-105.229789">
  <ele>1583.0</ele>
  <time>2026-08-28T17:53:04Z</time>
  <course>0.0</course>
  <speed>0.0</speed>
  <fix>3d</fix>
</trkpt>
<trkpt lat="40.0713749" lon="-105.229789">
  <ele>1583.0</ele>
  <time>2026-08-28T17:53:04Z</time>
  <course>240.61</course>
  <speed>0.0</speed>
  <fix>3d</fix>
</trkpt>
<trkpt lat="40.0713749" lon="-105.229789">
  <ele>1583.0</ele>
  <time>2026-08-28T17:53:04Z</time>
  <course>0.0</course>
  <speed>0.0</speed>
  <fix>3d</fix>
</trkpt>
<trkpt lat="40.0713749" lon="-105.229789">
  <ele>1583.0</ele>
  <time>2026-08-28T17:53:04Z</time>
  <course>240.92</course>
  <speed>0.0</speed>
  <fix>3d</fix>
</trkpt>
<trkpt lat="40.0713749" lon="-105.229789">
  <ele>1583.0</ele>
  <time>2026-08-28T17:53:04Z</time>
  <course>0.0</course>
  <speed>0.0</speed>
  <fix>3d</fix>
</trkpt>
<trkpt lat="40.0713749" lon="-105.229789">
  <ele>1583.0</ele>
  <time>2026-08-28T17:53:04Z</time>
  <course>241.21</course>
  <speed>0.0</speed>
  <fix>3d</fix>
</trkpt>
<trkpt lat="40.0713749" lon="-105.229789">
  <ele>1583.0</ele>
  <time>2026-08-28T17:53:04Z</time>
  <course>0.0</course>
  <speed>0.0</speed>
  <fix>3d</fix>
</trkpt>
<trkpt lat="40.0713749" lon="-105.229789">
  <ele>1583.0</ele>
  <time>2026-08-28T17:53:04Z</time>
  <course>241.49</course>
  <speed>0.0</speed>
  <fix>3d</fix>
</trkpt>
<trkpt lat="40.0713749" lon="-105.229789">
  <ele>1583.0</ele>
  <time>2026-08-28T17:53:04Z</time>
  <course>0.0</course>
  <speed>0.0</speed>
  <fix>3d</fix>
</trkpt>
<trkpt lat="40.0713749" lon="-105.229789">
  <ele>1583.0</ele>
  <time>2026-08-28T17:53:04Z</time>
  <course>241.77</course>
  <speed>0.0</speed>
  <fix>3d</fix>
</trkpt>
<trkpt lat="40.0713749" lon="-105.229789">
  <ele>1583.0</ele>
  <time>2026-08-28T17:53:04Z</time>
  <course>0.0</course>
  <speed>0.0</speed>
  <fix>3d</fix>
</trkpt>
<trkpt lat="40.0713749" lon="-105.229789">
  <ele>1583.0</ele>
  <time>2026-08-28T17:53:04Z</time>
  <course>242.03</course>
  <speed>0.0</speed>
  <fix>3d</fix>
</trkpt>
<trkpt lat="40.0713749" lon="-105.229789">
  <ele>1583.0</ele>
  <time>2026-08-28T17:53:04Z</time>
  <course>0.0</course>
  <speed>0.0</speed>
  <fix>3d</fix>
</trkpt>
<trkpt lat="40.0713749" lon="-105.229789">
  <ele>1583.0</ele>
  <time>2026-08-28T17:53:04Z</time>
  <course>242.29</course>
  <speed>0.0</speed>
  <fix>3d</fix>
</trkpt>
<trkpt lat="40.0713749" lon="-105.229789">
  <ele>1583.0</ele>
  <time>2026-08-28T17:53:04Z</time>
  <course>0.0</course>
  <speed>0.0</speed>
  <fix>3d</fix>
</trkpt>
<trkpt lat="40.0713749" lon="-105.229789">
  <ele>1583.0</ele>
  <time>2026-08-28T17:53:04Z</time>
  <course>242.54</course>
  <speed>0.0</speed>
  <fix>3d</fix>
</trkpt>
<trkpt lat="40.0713749" lon="-105.229789">
  <ele>1583.0</ele>
  <time>2026-08-28T17:53:04Z</time>
  <course>0.0</course>
  <speed>0.0</speed>
  <fix>3d</fix>
</trkpt>
<trkpt lat="40.0713749" lon="-105.229789">
  <ele>1583.0</ele>
  <time>2026-08-28T17:53:04Z</time>
  <course>242.79</course>
  <speed>0.0</speed>
  <fix>3d</fix>
</trkpt>
<trkpt lat="40.0713749" lon="-105.229789">
  <ele>1583.0</ele>
  <time>2026-08-28T17:53:04Z</time>
  <course>0.0</course>
  <speed>0.0</speed>
  <fix>3d</fix>
</trkpt>
<trkpt lat="40.0713749" lon="-105.229789">
  <ele>1583.0</ele>
  <time>2026-08-28T17:53:04Z</time>
  <course>243.02</course>
  <speed>0.0</speed>
  <fix>3d</fix>
</trkpt>
<trkpt lat="40.0713749" lon="-105.229789">
  <ele>1583.0</ele>
  <time>2026-08-28T17:53:04Z</time>
  <course>0.0</course>
  <speed>0.0</speed>
  <fix>3d</fix>
</trkpt>
<trkpt lat="40.0713749" lon="-105.229789">
  <ele>1583.0</ele>
  <time>2026-08-28T17:53:04Z</time>
  <course>243.25</course>
  <speed>0.0</speed>
  <fix>3d</fix>
</trkpt>
<trkpt lat="40.0713749" lon="-105.229789">
  <ele>1583.0</ele>
  <time>2026-08-28T17:53:04Z</time>
  <course>0.0</course>
  <speed>0.0</speed>
  <fix>3d</fix>
</trkpt>
<trkpt lat="40.0713749" lon="-105.229789">
  <ele>1583.0</ele>
  <time>2026-08-28T17:53:04Z</time>
  <course>243.47</course>
  <speed>0.0</speed>
  <fix>3d</fix>
</trkpt>
<trkpt lat="40.0713749" lon="-105.229789">
  <ele>1583.0</ele>
  <time>2026-08-28T17:53:04Z</time>
  <course>0.0</course>
  <speed>0.0</speed>
  <fix>3d</fix>
</trkpt>
<trkpt lat="40.0713749" lon="-105.229789">
  <ele>1583.0</ele>
  <time>2026-08-28T17:53:04Z</time>
  <course>243.68</course>
  <speed>0.0</speed>
  <fix>3d</fix>
</trkpt>
<trkpt lat="40.0713749" lon="-105.229789">
  <ele>1583.0</ele>
  <time>2026-08-28T17:53:04Z</time>
  <course>0.0</course>
  <speed>0.0</speed>
  <fix>3d</fix>
</trkpt>
<trkpt lat="40.0713749" lon="-105.229789">
  <ele>1583.0</ele>
  <time>2026-08-28T17:53:04Z</time>
  <course>243.89</course>
  <speed>0.0</speed>
  <fix>3d</fix>
</trkpt>
<trkpt lat="40.0713749" lon="-105.229789">
  <ele>1583.0</ele>
  <time>2026-08-28T17:53:04Z</time>
  <course>0.0</course>
  <speed>0.0</speed>
  <fix>3d</fix>
</trkpt>
<trkpt lat="40.0713749" lon="-105.229789">
  <ele>1583.0</ele>
  <time>2026-08-28T17:53:04Z</time>
  <course>244.09</course>
  <speed>0.0</speed>
  <fix>3d</fix>
</trkpt>
<trkpt lat="40.0713749" lon="-105.229789">
  <ele>1583.0</ele>
  <time>2026-08-28T17:53:04Z</time>
  <course>0.0</course>
  <speed>0.0</speed>
  <fix>3d</fix>
</trkpt>
<trkpt lat="40.0713749" lon="-105.229789">
  <ele>1583.0</ele>
  <time>2026-08-28T17:53:04Z</time>
  <course>244.28</course>
  <speed>0.0</speed>
  <fix>3d</fix>
</trkpt>
<trkpt lat="40.0713749" lon="-105.229789">
  <ele>1583.0</ele>
  <time>2026-08-28T17:53:04Z</time>
  <course>0.0</course>
  <speed>0.0</speed>
  <fix>3d</fix>
</trkpt>
<trkpt lat="40.0713749" lon="-105.229789">
  <ele>1583.0</ele>
  <time>2026-08-28T17:53:04Z</time>
  <course>244.46</course>
  <speed>0.0</speed>
  <fix>3d</fix>
</trkpt>
<trkpt lat="40.0713749" lon="-105.229789">
  <ele>1583.0</ele>
  <time>2026-08-28T17:53:04Z</time>
  <course>0.0</course>
  <speed>0.0</speed>
  <fix>3d</fix>
</trkpt>
<trkpt lat="40.0713749" lon="-105.229789">
  <ele>1583.0</ele>
  <time>2026-08-28T17:53:04Z</time>
  <course>244.64</course>
  <speed>0.0</speed>
  <fix>3d</fix>
</trkpt>
<trkpt lat="40.0713749" lon="-105.229789">
  <ele>1583.0</ele>
  <time>2026-08-28T17:53:04Z</time>
  <course>0.0</course>
  <speed>0.0</speed>
  <fix>3d</fix>
</trkpt>
<trkpt lat="40.0713749" lon="-105.229789">
  <ele>1583.0</ele>
  <time>2026-08-28T17:53:04Z</time>
  <course>244.81</course>
  <speed>0.0</speed>
  <fix>3d</fix>
</trkpt>
<trkpt lat="40.0713749" lon="-105.229789">
  <ele>1583.0</ele>
  <time>2026-08-28T17:53:04Z</time>
  <course>0.0</course>
  <speed>0.0</speed>
  <fix>3d</fix>
</trkpt>
<trkpt lat="40.0713749" lon="-105.229789">
  <ele>1583.0</ele>
  <time>2026-08-28T17:53:04Z</time>
  <course>244.97</course>
  <speed>0.0</speed>
  <fix>3d</fix>
</trkpt>
<trkpt lat="40.0713749" lon="-105.229789">
  <ele>1583.0</ele>
  <time>2026-08-28T17:53:04Z</time>
  <course>0.0</course>
  <speed>0.0</speed>
  <fix>3d</fix>
</trkpt>
<trkpt lat="40.0713749" lon="-105.229789">
  <ele>1583.0</ele>
  <time>2026-08-28T17:53:04Z</time>
  <course>245.13</course>
  <speed>0.0</speed>
  <fix>3d</fix>
</trkpt>
<trkpt lat="40.0713749" lon="-105.229789">
  <ele>1583.0</ele>
  <time>2026-08-28T17:53:04Z</time>
  <course>0.0</course>
  <speed>0.0</speed>
  <fix>3d</fix>
</trkpt>
<trkpt lat="40.0713749" lon="-105.229789">
  <ele>1583.0</ele>
  <time>2026-08-28T17:53:04Z</time>
  <course>245.29</course>
  <speed>0.0</speed>
  <fix>3d</fix>
</trkpt>
<trkpt lat="40.0713749" lon="-105.229789">
  <ele>1583.0</ele>
  <time>2026-08-28T17:53:04Z</time>
  <course>0.0</course>
  <speed>0.0</speed>
  <fix>3d</fix>
</trkpt>
<trkpt lat="40.0713749" lon="-105.229789">
  <ele>1583.0</ele>
  <time>2026-08-28T17:53:04Z</time>
  <course>245.43</course>
  <speed>0.0</speed>
  <fix>3d</fix>
</trkpt>
<trkpt lat="40.0713749" lon="-105.229789">
  <ele>1583.0</ele>
  <time>2026-08-28T17:53:04Z</time>
  <course>0.0</course>
  <speed>0.0</speed>
  <fix>3d</fix>
</trkpt>
<trkpt lat="40.0713749" lon="-105.229789">
  <ele>1583.0</ele>
  <time>2026-08-28T17:53:04Z</time>
  <course>245.57</course>
  <speed>0.0</speed>
  <fix>3d</fix>
</trkpt>
<trkpt lat="40.0713749" lon="-105.229789">
  <ele>1583.0</ele>
  <time>2026-08-28T17:53:04Z</time>
  <course>0.0</course>
  <speed>0.0</speed>
  <fix>3d</fix>
</trkpt>
<trkpt lat="40.0713749" lon="-105.229789">
  <ele>1583.0</ele>
  <time>2026-08-28T17:53:04Z</time>
  <course>245.71</course>
  <speed>0.0</speed>
  <fix>3d</fix>
</trkpt>
<trkpt lat="40.0713749" lon="-105.229789">
  <ele>1583.0</ele>
  <time>2026-08-28T17:53:04Z</time>
  <course>0.0</course>
  <speed>0.0</speed>
  <fix>3d</fix>
</trkpt>
<trkpt lat="40.0713749" lon="-105.229789">
  <ele>1583.0</ele>
  <time>2026-08-28T17:53:04Z</time>
  <course>245.84</course>
  <speed>0.0</speed>
  <fix>3d</fix>
</trkpt>
<trkpt lat="40.0713749" lon="-105.229789">
  <ele>1583.0</ele>
  <time>2026-08-28T17:53:04Z</time>
  <course>0.0</course>
  <speed>0.0</speed>
  <fix>3d</fix>
</trkpt>
<trkpt lat="40.0713749" lon="-105.229789">
  <ele>1583.0</ele>
  <time>2026-08-28T17:53:04Z</time>
  <course>245.96</course>
  <speed>0.0</speed>
  <fix>3d</fix>
</trkpt>
<trkpt lat="40.0713749" lon="-105.229789">
  <ele>1583.0</ele>
  <time>2026-08-28T17:53:04Z</time>
  <course>0.0</course>
  <speed>0.0</speed>
  <fix>3d</fix>
</trkpt>
<trkpt lat="40.0713749" lon="-105.229789">
  <ele>1583.0</ele>
  <time>2026-08-28T17:53:04Z</time>
  <course>246.08</course>
  <speed>0.0</speed>
  <fix>3d</fix>
</trkpt>
<trkpt lat="40.0713749" lon="-105.229789">
  <ele>1583.0</ele>
  <time>2026-08-28T17:53:04Z</time>
  <course>0.0</course>
  <speed>0.0</speed>
  <fix>3d</fix>
</trkpt>
<trkpt lat="40.0713749" lon="-105.229789">
  <ele>1583.0</ele>
  <time>2026-08-28T17:53:04Z</time>
  <course>246.19</course>
  <speed>0.0</speed>
  <fix>3d</fix>
</trkpt>
<trkpt lat="40.0713749" lon="-105.229789">
  <ele>1583.0</ele>
  <time>2026-08-28T17:53:04Z</time>
  <course>0.0</course>
  <speed>0.0</speed>
  <fix>3d</fix>
</trkpt>
<trkpt lat="40.0713749" lon="-105.229789">
  <ele>1583.0</ele>
  <time>2026-08-28T17:53:04Z</time>
  <course>246.3</course>
  <speed>0.0</speed>
  <fix>3d</fix>
</trkpt>
<trkpt lat="40.0713749" lon="-105.229789">
  <ele>1583.0</ele>
  <time>2026-08-28T17:53:04Z</time>
  <course>0.0</course>
  <speed>0.0</speed>
  <fix>3d</fix>
</trkpt>
<trkpt lat="40.0713749" lon="-105.229789">
  <ele>1583.0</ele>
  <time>2026-08-28T17:53:04Z</time>
  <course>246.41</course>
  <speed>0.0</speed>
  <fix>3d</fix>
</trkpt>
<trkpt lat="40.0713749" lon="-105.229789">
  <ele>1583.0</ele>
  <time>2026-08-28T17:53:04Z</time>
  <course>0.0</course>
  <speed>0.0</speed>
  <fix>3d</fix>
</trkpt>
<trkpt lat="40.0713749" lon="-105.229789">
  <ele>1583.0</ele>
  <time>2026-08-28T17:53:04Z</time>
  <course>246.51</course>
  <speed>0.0</speed>
  <fix>3d</fix>
</trkpt>
<trkpt lat="40.0713749" lon="-105.229789">
  <ele>1583.0</ele>
  <time>2026-08-28T17:53:04Z</time>
  <course>0.0</course>
  <speed>0.0</speed>
  <fix>3d</fix>
</trkpt>
<trkpt lat="40.0713749" lon="-105.229789">
  <ele>1583.0</ele>
  <time>2026-08-28T17:53:04Z</time>
  <course>246.6</course>
  <speed>0.0</speed>
  <fix>3d</fix>
</trkpt>
<trkpt lat="40.0713749" lon="-105.229789">
  <ele>1583.0</ele>
  <time>2026-08-28T17:53:04Z</time>
  <course>0.0</course>
  <speed>0.0</speed>
  <fix>3d</fix>
</trkpt>
<trkpt lat="40.0713749" lon="-105.229789">
  <ele>1583.0</ele>
  <time>2026-08-28T17:53:04Z</time>
  <course>246.7</course>
  <speed>0.0</speed>
  <fix>3d</fix>
</trkpt>
<trkpt lat="40.0713749" lon="-105.229789">
  <ele>1583.0</ele>
  <time>2026-08-28T17:53:04Z</time>
  <course>0.0</course>
  <speed>0.0</speed>
  <fix>3d</fix>
</trkpt>
<trkpt lat="40.0713749" lon="-105.229789">
  <ele>1583.0</ele>
  <time>2026-08-28T17:53:04Z</time>
  <course>246.78</course>
  <speed>0.0</speed>
  <fix>3d</fix>
</trkpt>
<trkpt lat="40.0713749" lon="-105.229789">
  <ele>1583.0</ele>
  <time>2026-08-28T17:53:04Z</time>
  <course>0.0</course>
  <speed>0.0</speed>
  <fix>3d</fix>
</trkpt>
<trkpt lat="40.0713749" lon="-105.229789">
  <ele>1583.0</ele>
  <time>2026-08-28T17:53:04Z</time>
  <course>246.87</course>
  <speed>0.0</speed>
  <fix>3d</fix>
</trkpt>
<trkpt lat="40.0713749" lon="-105.229789">
  <ele>1583.0</ele>
  <time>2026-08-28T17:53:04Z</time>
  <course>0.0</course>
  <speed>0.0</speed>
  <fix>3d</fix>
</trkpt>
<trkpt lat="40.0713749" lon="-105.229789">
  <ele>1583.0</ele>
  <time>2026-08-28T17:53:04Z</time>
  <course>246.95</course>
  <speed>0.0</speed>
  <fix>3d</fix>
</trkpt>
<trkpt lat="40.0713749" lon="-105.229789">
  <ele>1583.0</ele>
  <time>2026-08-28T17:53:04Z</time>
  <course>0.0</course>
  <speed>0.0</speed>
  <fix>3d</fix>
</trkpt>
<trkpt lat="40.0713749" lon="-105.229789">
  <ele>1583.0</ele>
  <time>2026-08-28T17:53:04Z</time>
  <course>247.02</course>
  <speed>0.0</speed>
  <fix>3d</fix>
</trkpt>
<trkpt lat="40.0713749" lon="-105.229789">
  <ele>1583.0</ele>
  <time>2026-08-28T17:53:04Z</time>
  <course>0.0</course>
  <speed>0.0</speed>
  <fix>3d</fix>
</trkpt>
<trkpt lat="40.0713749" lon="-105.229789">
  <ele>1583.0</ele>
  <time>2026-08-28T17:53:04Z</time>
  <course>247.1</course>
  <speed>0.0</speed>
  <fix>3d</fix>
</trkpt>
<trkpt lat="40.0713749" lon="-105.229789">
  <ele>1583.0</ele>
  <time>2026-08-28T17:53:04Z</time>
  <course>0.0</course>
  <speed>0.0</speed>
  <fix>3d</fix>
</trkpt>
<trkpt lat="40.0713749" lon="-105.229789">
  <ele>1583.0</ele>
  <time>2026-08-28T17:53:04Z</time>
  <course>247.17</course>
  <speed>0.0</speed>
  <fix>3d</fix>
</trkpt>
<trkpt lat="40.0713749" lon="-105.229789">
  <ele>1583.0</ele>
  <time>2026-08-28T17:53:04Z</time>
  <course>0.0</course>
  <speed>0.0</speed>
  <fix>3d</fix>
</trkpt>
<trkpt lat="40.0713749" lon="-105.229789">
  <ele>1583.0</ele>
  <time>2026-08-28T17:53:04Z</time>
  <course>247.24</course>
  <speed>0.0</speed>
  <fix>3d</fix>
</trkpt>
<trkpt lat="40.0713749" lon="-105.229789">
  <ele>1583.0</ele>
  <time>2026-08-28T17:53:04Z</time>
  <course>0.0</course>
  <speed>0.0</speed>
  <fix>3d</fix>
</trkpt>
<trkpt lat="40.0713749" lon="-105.229789">
  <ele>1583.0</ele>
  <time>2026-08-28T17:53:04Z</time>
  <course>247.3</course>
  <speed>0.0</speed>
  <fix>3d</fix>
</trkpt>
<trkpt lat="40.0713749" lon="-105.229789">
  <ele>1583.0</ele>
  <time>2026-08-28T17:53:04Z</time>
  <course>0.0</course>
  <speed>0.0</speed>
  <fix>3d</fix>
</trkpt>
<trkpt lat="40.0713749" lon="-105.229789">
  <ele>1583.0</ele>
  <time>2026-08-28T17:53:04Z</time>
  <course>247.36</course>
  <speed>0.0</speed>
  <fix>3d</fix>
</trkpt>
<trkpt lat="40.0713749" lon="-105.229789">
  <ele>1583.0</ele>
  <time>2026-08-28T17:53:04Z</time>
  <course>0.0</course>
  <speed>0.0</speed>
  <fix>3d</fix>
</trkpt>
<trkpt lat="40.0713749" lon="-105.229789">
  <ele>1583.0</ele>
  <time>2026-08-28T17:53:04Z</time>
  <course>247.42</course>
  <speed>0.0</speed>
  <fix>3d</fix>
</trkpt>
<trkpt lat="40.0713749" lon="-105.229789">
  <ele>1583.0</ele>
  <time>2026-08-28T17:53:04Z</time>
  <course>0.0</course>
  <speed>0.0</speed>
  <fix>3d</fix>
</trkpt>
<trkpt lat="40.0713749" lon="-105.229789">
  <ele>1583.0</ele>
  <time>2026-08-28T17:53:04Z</time>
  <course>247.47</course>
  <speed>0.0</speed>
  <fix>3d</fix>
</trkpt>
<trkpt lat="40.0713749" lon="-105.229789">
  <ele>1583.0</ele>
  <time>2026-08-28T17:53:04Z</time>
  <course>0.0</course>
  <speed>0.0</speed>
  <fix>3d</fix>
</trkpt>
<trkpt lat="40.0713749" lon="-105.229789">
  <ele>1583.0</ele>
  <time>2026-08-28T17:53:04Z</time>
  <course>247.53</course>
  <speed>0.0</speed>
  <fix>3d</fix>
</trkpt>
<trkpt lat="40.0713749" lon="-105.229789">
  <ele>1583.0</ele>
  <time>2026-08-28T17:53:04Z</time>
  <course>0.0</course>
  <speed>0.0</speed>
  <fix>3d</fix>
</trkpt>
<trkpt lat="40.0713749" lon="-105.229789">
  <ele>1583.0</ele>
  <time>2026-08-28T17:53:04Z</time>
  <course>247.58</course>
  <speed>0.0</speed>
  <fix>3d</fix>
</trkpt>
<trkpt lat="40.0713749" lon="-105.229789">
  <ele>1583.0</ele>
  <time>2026-08-28T17:53:04Z</time>
  <course>0.0</course>
  <speed>0.0</speed>
  <fix>3d</fix>
</trkpt>
<trkpt lat="40.0713749" lon="-105.229789">
  <ele>1583.0</ele>
  <time>2026-08-28T17:53:04Z</time>
  <course>247.63</course>
  <speed>0.0</speed>
  <fix>3d</fix>
</trkpt>
<trkpt lat="40.0713749" lon="-105.229789">
  <ele>1583.0</ele>
  <time>2026-08-28T17:53:04Z</time>
  <course>0.0</course>
  <speed>0.0</speed>
  <fix>3d</fix>
</trkpt>
<trkpt lat="40.0713749" lon="-105.229789">
  <ele>1583.0</ele>
  <time>2026-08-28T17:53:04Z</time>
  <course>247.67</course>
  <speed>0.0</speed>
  <fix>3d</fix>
</trkpt>
<trkpt lat="40.0713749" lon="-105.229789">
  <ele>1583.0</ele>
  <time>2026-08-28T17:53:04Z</time>
  <course>0.0</course>
  <speed>0.0</speed>
  <fix>3d</fix>
</trkpt>
<trkpt lat="40.0713749" lon="-105.229789">
  <ele>1583.0</ele>
  <time>2026-08-28T17:53:04Z</time>
  <course>247.72</course>
  <speed>0.0</speed>
  <fix>3d</fix>
</trkpt>
<trkpt lat="40.0713749" lon="-105.229789">
  <ele>1583.0</ele>
  <time>2026-08-28T17:53:04Z</time>
  <course>0.0</course>
  <speed>0.0</speed>
  <fix>3d</fix>
</trkpt>
<trkpt lat="40.0713749" lon="-105.229789">
  <ele>1583.0</ele>
  <time>2026-08-28T17:53:04Z</time>
  <course>247.76</course>
  <speed>0.0</speed>
  <fix>3d</fix>
</trkpt>
<trkpt lat="40.0713749" lon="-105.229789">
  <ele>1583.0</ele>
  <time>2026-08-28T17:53:04Z</time>
  <course>0.0</course>
  <speed>0.0</speed>
  <fix>3d</fix>
</trkpt>
<trkpt lat="40.0713749" lon="-105.229789">
  <ele>1583.0</ele>
  <time>2026-08-28T17:53:04Z</time>
  <course>247.8</course>
  <speed>0.0</speed>
  <fix>3d</fix>
</trkpt>
<trkpt lat="40.0713749" lon="-105.229789">
  <ele>1583.0</ele>
  <time>2026-08-28T17:53:04Z</time>
  <course>0.0</course>
  <speed>0.0</speed>
  <fix>3d</fix>
</trkpt>
<trkpt lat="40.0713749" lon="-105.229789">
  <ele>1583.0</ele>
  <time>2026-08-28T17:53:04Z</time>
  <course>247.83</course>
  <speed>0.0</speed>
  <fix>3d</fix>
</trkpt>
<trkpt lat="40.0713749" lon="-105.229789">
  <ele>1583.0</ele>
  <time>2026-08-28T17:53:04Z</time>
  <course>0.0</course>
  <speed>0.0</speed>
  <fix>3d</fix>
</trkpt>
<trkpt lat="40.0713749" lon="-105.229789">
  <ele>1583.0</ele>
  <time>2026-08-28T17:53:04Z</time>
  <course>247.87</course>
  <speed>0.0</speed>
  <fix>3d</fix>
</trkpt>
<trkpt lat="40.0713749" lon="-105.229789">
  <ele>1583.0</ele>
  <time>2026-08-28T17:53:04Z</time>
  <course>0.0</course>
  <speed>0.0</speed>
  <fix>3d</fix>
</trkpt>
<trkpt lat="40.0713749" lon="-105.229789">
  <ele>1583.0</ele>
  <time>2026-08-28T17:53:04Z</time>
  <course>247.9</course>
  <speed>0.0</speed>
  <fix>3d</fix>
</trkpt>
<trkpt lat="40.0713749" lon="-105.229789">
  <ele>1583.0</ele>
  <time>2026-08-28T17:53:04Z</time>
  <course>0.0</course>
  <speed>0.0</speed>
  <fix>3d</fix>
</trkpt>
<trkpt lat="40.0713749" lon="-105.229789">
  <ele>1583.0</ele>
  <time>2026-08-28T17:53:04Z</time>
  <course>247.94</course>
  <speed>0.0</speed>
  <fix>3d</fix>
</trkpt>
<trkpt lat="40.0713749" lon="-105.229789">
  <ele>1583.0</ele>
  <time>2026-08-28T17:53:04Z</time>
  <course>0.0</course>
  <speed>0.0</speed>
  <fix>3d</fix>
</trkpt>
<trkpt lat="40.0713749" lon="-105.229789">
  <ele>1583.0</ele>
  <time>2026-08-28T17:53:04Z</time>
  <course>247.97</course>
  <speed>0.0</speed>
  <fix>3d</fix>
</trkpt>
<trkpt lat="40.0713749" lon="-105.229789">
  <ele>1583.0</ele>
  <time>2026-08-28T17:53:04Z</time>
  <course>0.0</course>
  <speed>0.0</speed>
  <fix>3d</fix>
</trkpt>
<trkpt lat="40.0713749" lon="-105.229789">
  <ele>1583.0</ele>
  <time>2026-08-28T17:53:04Z</time>
  <course>248.0</course>
  <speed>0.0</speed>
  <fix>3d</fix>
</trkpt>
<trkpt lat="40.0713749" lon="-105.229789">
  <ele>1583.0</ele>
  <time>2026-08-28T17:53:04Z</time>
  <course>0.0</course>
  <speed>0.0</speed>
  <fix>3d</fix>
</trkpt>
<trkpt lat="40.0713749" lon="-105.229789">
  <ele>1583.0</ele>
  <time>2026-08-28T17:53:04Z</time>
  <course>248.02</course>
  <speed>0.0</speed>
  <fix>3d</fix>
</trkpt>
<trkpt lat="40.0713749" lon="-105.229789">
  <ele>1583.0</ele>
  <time>2026-08-28T17:53:04Z</time>
  <course>0.0</course>
  <speed>0.0</speed>
  <fix>3d</fix>
</trkpt>
<trkpt lat="40.0713749" lon="-105.229789">
  <ele>1583.0</ele>
  <time>2026-08-28T17:53:04Z</time>
  <course>248.05</course>
  <speed>0.0</speed>
  <fix>3d</fix>
</trkpt>
<trkpt lat="40.0713749" lon="-105.229789">
  <ele>1583.0</ele>
  <time>2026-08-28T17:53:04Z</time>
  <course>0.0</course>
  <speed>0.0</speed>
  <fix>3d</fix>
</trkpt>
<trkpt lat="40.0713749" lon="-105.229789">
  <ele>1583.0</ele>
  <time>2026-08-28T17:53:04Z</time>
  <course>248.08</course>
  <speed>0.0</speed>
  <fix>3d</fix>
</trkpt>
<trkpt lat="40.0713749" lon="-105.229789">
  <ele>1583.0</ele>
  <time>2026-08-28T17:53:04Z</time>
  <course>0.0</course>
  <speed>0.0</speed>
  <fix>3d</fix>
</trkpt>
<trkpt lat="40.0713749" lon="-105.229789">
  <ele>1583.0</ele>
  <time>2026-08-28T17:53:04Z</time>
  <course>248.1</course>
  <speed>0.0</speed>
  <fix>3d</fix>
</trkpt>
<trkpt lat="40.0713749" lon="-105.229789">
  <ele>1583.0</ele>
  <time>2026-08-28T17:53:04Z</time>
  <course>0.0</course>
  <speed>0.0</speed>
  <fix>3d</fix>
</trkpt>
<trkpt lat="40.0713749" lon="-105.229789">
  <ele>1583.0</ele>
  <time>2026-08-28T17:53:04Z</time>
  <course>248.12</course>
  <speed>0.0</speed>
  <fix>3d</fix>
</trkpt>
<trkpt lat="40.0713749" lon="-105.229789">
  <ele>1583.0</ele>
  <time>2026-08-28T17:53:04Z</time>
  <course>0.0</course>
  <speed>0.0</speed>
  <fix>3d</fix>
</trkpt>
<trkpt lat="40.0713749" lon="-105.229789">
  <ele>1583.0</ele>
  <time>2026-08-28T17:53:04Z</time>
  <course>248.14</course>
  <speed>0.0</speed>
  <fix>3d</fix>
</trkpt>
<trkpt lat="40.0713749" lon="-105.229789">
  <ele>1583.0</ele>
  <time>2026-08-28T17:53:04Z</time>
  <course>0.0</course>
  <speed>0.0</speed>
  <fix>3d</fix>
</trkpt>
<trkpt lat="40.0713749" lon="-105.229789">
  <ele>1583.0</ele>
  <time>2026-08-28T17:53:04Z</time>
  <course>248.16</course>
  <speed>0.0</speed>
  <fix>3d</fix>
</trkpt>
<trkpt lat="40.0713749" lon="-105.229789">
  <ele>1583.0</ele>
  <time>2026-08-28T17:53:04Z</time>
  <course>0.0</course>
  <speed>0.0</speed>
  <fix>3d</fix>
</trkpt>
<trkpt lat="40.0713749" lon="-105.229789">
  <ele>1583.0</ele>
  <time>2026-08-28T17:53:04Z</time>
  <course>248.18</course>
  <speed>0.0</speed>
  <fix>3d</fix>
</trkpt>
<trkpt lat="40.0713749" lon="-105.229789">
  <ele>1583.0</ele>
  <time>2026-08-28T17:53:04Z</time>
  <course>0.0</course>
  <speed>0.0</speed>
  <fix>3d</fix>
</trkpt>
<trkpt lat="40.0713749" lon="-105.229789">
  <ele>1583.0</ele>
  <time>2026-08-28T17:53:04Z</time>
  <course>248.2</course>
  <speed>0.0</speed>
  <fix>3d</fix>
</trkpt>
<trkpt lat="40.0713749" lon="-105.229789">
  <ele>1583.0</ele>
  <time>2026-08-28T17:53:04Z</time>
  <course>0.0</course>
  <speed>0.0</speed>
  <fix>3d</fix>
</trkpt>
<trkpt lat="40.0713749" lon="-105.229789">
  <ele>1583.0</ele>
  <time>2026-08-28T17:53:04Z</time>
  <course>248.22</course>
  <speed>0.0</speed>
  <fix>3d</fix>
</trkpt>
<trkpt lat="40.0713749" lon="-105.229789">
  <ele>1583.0</ele>
  <time>2026-08-28T17:53:04Z</time>
  <course>0.0</course>
  <speed>0.0</speed>
  <fix>3d</fix>
</trkpt>
<trkpt lat="40.0713749" lon="-105.229789">
  <ele>1583.0</ele>
  <time>2026-08-28T17:53:04Z</time>
  <course>248.23</course>
  <speed>0.0</speed>
  <fix>3d</fix>
</trkpt>
<trkpt lat="40.0713749" lon="-105.229789">
  <ele>1583.0</ele>
  <time>2026-08-28T17:53:04Z</time>
  <course>0.0</course>
  <speed>0.0</speed>
  <fix>3d</fix>
</trkpt>
<trkpt lat="40.0713749" lon="-105.229789">
  <ele>1583.0</ele>
  <time>2026-08-28T17:53:04Z</time>
  <course>248.25</course>
  <speed>0.0</speed>
  <fix>3d</fix>
</trkpt>
<trkpt lat="40.0713749" lon="-105.229789">
  <ele>1583.0</ele>
  <time>2026-08-28T17:53:04Z</time>
  <course>0.0</course>
  <speed>0.0</speed>
  <fix>3d</fix>
</trkpt>
<trkpt lat="40.0713749" lon="-105.229789">
  <ele>1583.0</ele>
  <time>2026-08-28T17:53:04Z</time>
  <course>248.26</course>
  <speed>0.0</speed>
  <fix>3d</fix>
</trkpt>
<trkpt lat="40.0713749" lon="-105.229789">
  <ele>1583.0</ele>
  <time>2026-08-28T17:53:04Z</time>
  <course>0.0</course>
  <speed>0.0</speed>
  <fix>3d</fix>
</trkpt>
<trkpt lat="40.0713749" lon="-105.229789">
  <ele>1583.0</ele>
  <time>2026-08-28T17:53:04Z</time>
  <course>248.28</course>
  <speed>0.0</speed>
  <fix>3d</fix>
</trkpt>
<trkpt lat="40.0713749" lon="-105.229789">
  <ele>1583.0</ele>
  <time>2026-08-28T17:53:04Z</time>
  <course>0.0</course>
  <speed>0.0</speed>
  <fix>3d</fix>
</trkpt>
<trkpt lat="40.0713749" lon="-105.229789">
  <ele>1583.0</ele>
  <time>2026-08-28T17:53:04Z</time>
  <course>248.29</course>
  <speed>0.0</speed>
  <fix>3d</fix>
</trkpt>
<trkpt lat="40.0713749" lon="-105.229789">
  <ele>1583.0</ele>
  <time>2026-08-28T17:53:04Z</time>
  <course>0.0</course>
  <speed>0.0</speed>
  <fix>3d</fix>
</trkpt>
<trkpt lat="40.0713749" lon="-105.229789">
  <ele>1583.0</ele>
  <time>2026-08-28T17:53:04Z</time>
  <course>248.3</course>
  <speed>0.0</speed>
  <fix>3d</fix>
</trkpt>
<trkpt lat="40.0713749" lon="-105.229789">
  <ele>1583.0</ele>
  <time>2026-08-28T17:53:04Z</time>
  <course>0.0</course>
  <speed>0.0</speed>
  <fix>3d</fix>
</trkpt>
<trkpt lat="40.0713749" lon="-105.229789">
  <ele>1583.0</ele>
  <time>2026-08-28T17:53:04Z</time>
  <course>248.31</course>
  <speed>0.0</speed>
  <fix>3d</fix>
</trkpt>
<trkpt lat="40.0713749" lon="-105.229789">
  <ele>1583.0</ele>
  <time>2026-08-28T17:53:04Z</time>
  <course>0.0</course>
  <speed>0.0</speed>
  <fix>3d</fix>
</trkpt>
<trkpt lat="40.0713749" lon="-105.229789">
  <ele>1583.0</ele>
  <time>2026-08-28T17:53:04Z</time>
  <course>248.32</course>
  <speed>0.0</speed>
  <fix>3d</fix>
</trkpt>
<trkpt lat="40.0713749" lon="-105.229789">
  <ele>1583.0</ele>
  <time>2026-08-28T17:53:04Z</time>
  <course>0.0</course>
  <speed>0.0</speed>
  <fix>3d</fix>
</trkpt>
<trkpt lat="40.0713749" lon="-105.229789">
  <ele>1583.0</ele>
  <time>2026-08-28T17:53:04Z</time>
  <course>248.33</course>
  <speed>0.0</speed>
  <fix>3d</fix>
</trkpt>
<trkpt lat="40.0713749" lon="-105.229789">
  <ele>1583.0</ele>
  <time>2026-08-28T17:53:04Z</time>
  <course>0.0</course>
  <speed>0.0</speed>
  <fix>3d</fix>
</trkpt>
<trkpt lat="40.0713749" lon="-105.229789">
  <ele>1583.0</ele>
  <time>2026-08-28T17:53:04Z</time>
  <course>248.34</course>
  <speed>0.0</speed>
  <fix>3d</fix>
</trkpt>
<trkpt lat="40.0713749" lon="-105.229789">
  <ele>1583.0</ele>
  <time>2026-08-28T17:53:04Z</time>
  <course>0.0</course>
  <speed>0.0</speed>
  <fix>3d</fix>
</trkpt>
<trkpt lat="40.0713749" lon="-105.229789">
  <ele>1583.0</ele>
  <time>2026-08-28T17:53:04Z</time>
  <course>248.35</course>
  <speed>0.0</speed>
  <fix>3d</fix>
</trkpt>
<trkpt lat="40.0713749" lon="-105.229789">
  <ele>1583.0</ele>
  <time>2026-08-28T17:53:04Z</time>
  <course>0.0</course>
  <speed>0.0</speed>
  <fix>3d</fix>
</trkpt>
<trkpt lat="40.0713749" lon="-105.229789">
  <ele>1583.0</ele>
  <time>2026-08-28T17:53:04Z</time>
  <course>248.35</course>
  <speed>0.0</speed>
  <fix>3d</fix>
</trkpt>
<trkpt lat="40.0713749" lon="-105.229789">
  <ele>1583.0</ele>
  <time>2026-08-28T17:53:04Z</time>
  <course>0.0</course>
  <speed>0.0</speed>
  <fix>3d</fix>
</trkpt>
<trkpt lat="40.0713749" lon="-105.229789">
  <ele>1583.0</ele>
  <time>2026-08-28T17:53:04Z</time>
  <course>248.36</course>
  <speed>0.0</speed>
  <fix>3d</fix>
</trkpt>
<trkpt lat="40.0713749" lon="-105.229789">
  <ele>1583.0</ele>
  <time>2026-08-28T17:53:04Z</time>
  <course>0.0</course>
  <speed>0.0</speed>
  <fix>3d</fix>
</trkpt>
<trkpt lat="40.0713749" lon="-105.229789">
  <ele>1583.0</ele>
  <time>2026-08-28T17:53:04Z</time>
  <course>248.37</course>
  <speed>0.0</speed>
  <fix>3d</fix>
</trkpt>
<trkpt lat="40.0713749" lon="-105.229789">
  <ele>1583.0</ele>
  <time>2026-08-28T17:53:04Z</time>
  <course>0.0</course>
  <speed>0.0</speed>
  <fix>3d</fix>
</trkpt>
<trkpt lat="40.0713749" lon="-105.229789">
  <ele>1583.0</ele>
  <time>2026-08-28T17:53:04Z</time>
  <course>248.37</course>
  <speed>0.0</speed>
  <fix>3d</fix>
</trkpt>
<trkpt lat="40.0713749" lon="-105.229789">
  <ele>1583.0</ele>
  <time>2026-08-28T17:53:04Z</time>
  <course>0.0</course>
  <speed>0.0</speed>
  <fix>3d</fix>
</trkpt>
<trkpt lat="40.0713749" lon="-105.229789">
  <ele>1583.0</ele>
  <time>2026-08-28T17:53:04Z</time>
  <course>248.38</course>
  <speed>0.0</speed>
  <fix>3d</fix>
</trkpt>
<trkpt lat="40.0713749" lon="-105.229789">
  <ele>1583.0</ele>
  <time>2026-08-28T17:53:04Z</time>
  <course>0.0</course>
  <speed>0.0</speed>
  <fix>3d</fix>
</trkpt>
<trkpt lat="40.0713749" lon="-105.229789">
  <ele>1583.0</ele>
  <time>2026-08-28T17:53:04Z</time>
  <course>248.38</course>
  <speed>0.0</speed>
  <fix>3d</fix>
</trkpt>
<trkpt lat="40.0713749" lon="-105.229789">
  <ele>1583.0</ele>
  <time>2026-08-28T17:53:04Z</time>
  <course>0.0</course>
  <speed>0.0</speed>
  <fix>3d</fix>
</trkpt>
<trkpt lat="40.0713749" lon="-105.229789">
  <ele>1583.0</ele>
  <time>2026-08-28T17:53:04Z</time>
  <course>248.39</course>
  <speed>0.0</speed>
  <fix>3d</fix>
</trkpt>
<trkpt lat="40.0713749" lon="-105.229789">
  <ele>1583.0</ele>
  <time>2026-08-28T17:53:04Z</time>
  <course>0.0</course>
  <speed>0.0</speed>
  <fix>3d</fix>
</trkpt>
<trkpt lat="40.0713749" lon="-105.229789">
  <ele>1583.0</ele>
  <time>2026-08-28T17:53:04Z</time>
  <course>248.39</course>
  <speed>0.0</speed>
  <fix>3d</fix>
</trkpt>
<trkpt lat="40.0713749" lon="-105.229789">
  <ele>1583.0</ele>
  <time>2026-08-28T17:53:04Z</time>
  <course>0.0</course>
  <speed>0.0</speed>
  <fix>3d</fix>
</trkpt>
<trkpt lat="40.0713749" lon="-105.229789">
  <ele>1583.0</ele>
  <time>2026-08-28T17:53:04Z</time>
  <course>248.4</course>
  <speed>0.0</speed>
  <fix>3d</fix>
</trkpt>
<trkpt lat="40.0713749" lon="-105.229789">
  <ele>1583.0</ele>
  <time>2026-08-28T17:53:04Z</time>
  <course>0.0</course>
  <speed>0.0</speed>
  <fix>3d</fix>
</trkpt>
<trkpt lat="40.0713749" lon="-105.229789">
  <ele>1583.0</ele>
  <time>2026-08-28T17:53:04Z</time>
  <course>248.4</course>
  <speed>0.0</speed>
  <fix>3d</fix>
</trkpt>
<trkpt lat="40.0713749" lon="-105.229789">
  <ele>1583.0</ele>
  <time>2026-08-28T17:53:04Z</time>
  <course>0.0</course>
  <speed>0.0</speed>
  <fix>3d</fix>
</trkpt>
<trkpt lat="40.0713749" lon="-105.229789">
  <ele>1583.0</ele>
  <time>2026-08-28T17:53:04Z</time>
  <course>248.4</course>
  <speed>0.0</speed>
  <fix>3d</fix>
</trkpt>
<trkpt lat="40.0713749" lon="-105.229789">
  <ele>1583.0</ele>
  <time>2026-08-28T17:53:04Z</time>
  <course>0.0</course>
  <speed>0.0</speed>
  <fix>3d</fix>
</trkpt>
<trkpt lat="40.0713749" lon="-105.229789">
  <ele>1583.0</ele>
  <time>2026-08-28T17:53:04Z</time>
  <course>248.4</course>
  <speed>0.0</speed>
  <fix>3d</fix>
</trkpt>
<trkpt lat="40.0713749" lon="-105.229789">
  <ele>1583.0</ele>
  <time>2026-08-28T17:53:04Z</time>
  <course>0.0</course>
  <speed>0.0</speed>
  <fix>3d</fix>
</trkpt>
<trkpt lat="40.0713749" lon="-105.229789">
  <ele>1583.0</ele>
  <time>2026-08-28T17:53:04Z</time>
  <course>248.41</course>
  <speed>0.0</speed>
  <fix>3d</fix>
</trkpt>
<trkpt lat="40.0713749" lon="-105.229789">
  <ele>1583.0</ele>
  <time>2026-08-28T17:53:04Z</time>
  <course>0.0</course>
  <speed>0.0</speed>
  <fix>3d</fix>
</trkpt>
<trkpt lat="40.0713749" lon="-105.229789">
  <ele>1583.0</ele>
  <time>2026-08-28T17:53:04Z</time>
  <course>248.41</course>
  <speed>0.0</speed>
  <fix>3d</fix>
</trkpt>
<trkpt lat="40.0713749" lon="-105.229789">
  <ele>1583.0</ele>
  <time>2026-08-28T17:53:04Z</time>
  <course>0.0</course>
  <speed>0.0</speed>
  <fix>3d</fix>
</trkpt>
<trkpt lat="40.0713749" lon="-105.229789">
  <ele>1583.0</ele>
  <time>2026-08-28T17:53:04Z</time>
  <course>248.41</course>
  <speed>0.0</speed>
  <fix>3d</fix>
</trkpt>
<trkpt lat="40.0713749" lon="-105.229789">
  <ele>1583.0</ele>
  <time>2026-08-28T17:53:04Z</time>
  <course>0.0</course>
  <speed>0.0</speed>
  <fix>3d</fix>
</trkpt>
<trkpt lat="40.0713749" lon="-105.229789">
  <ele>1583.0</ele>
  <time>2026-08-28T17:53:04Z</time>
  <course>248.41</course>
  <speed>0.0</speed>
  <fix>3d</fix>
</trkpt>
<trkpt lat="40.0713749" lon="-105.229789">
  <ele>1583.0</ele>
  <time>2026-08-28T17:53:04Z</time>
  <course>0.0</course>
  <speed>0.0</speed>
  <fix>3d</fix>
</trkpt>
<trkpt lat="40.0713749" lon="-105.229789">
  <ele>1583.0</ele>
  <time>2026-08-28T17:53:04Z</time>
  <course>248.41</course>
  <speed>0.0</speed>
  <fix>3d</fix>
</trkpt>
<trkpt lat="40.0713749" lon="-105.229789">
  <ele>1583.0</ele>
  <time>2026-08-28T17:53:04Z</time>
  <course>0.0</course>
  <speed>0.0</speed>
  <fix>3d</fix>
</trkpt>
<trkpt lat="40.0713749" lon="-105.229789">
  <ele>1583.0</ele>
  <time>2026-08-28T17:53:04Z</time>
  <course>248.41</course>
  <speed>0.0</speed>
  <fix>3d</fix>
</trkpt>
<trkpt lat="40.0713749" lon="-105.229789">
  <ele>1583.0</ele>
  <time>2026-08-28T17:53:04Z</time>
  <course>0.0</course>
  <speed>0.0</speed>
  <fix>3d</fix>
</trkpt>
<trkpt lat="40.0713749" lon="-105.229789">
  <ele>1583.0</ele>
  <time>2026-08-28T17:53:04Z</time>
  <course>248.41</course>
  <speed>0.0</speed>
  <fix>3d</fix>
</trkpt>
<trkpt lat="40.0713749" lon="-105.229789">
  <ele>1583.0</ele>
  <time>2026-08-28T17:53:04Z</time>
  <course>0.0</course>
  <speed>0.0</speed>
  <fix>3d</fix>
</trkpt>
<trkpt lat="40.0713749" lon="-105.229789">
  <ele>1583.0</ele>
  <time>2026-08-28T17:53:04Z</time>
  <course>248.41</course>
  <speed>0.0</speed>
  <fix>3d</fix>
</trkpt>
<trkpt lat="40.0713749" lon="-105.229789">
  <ele>1583.0</ele>
  <time>2026-08-28T17:53:04Z</time>
  <course>0.0</course>
  <speed>0.0</speed>
  <fix>3d</fix>
</trkpt>
<trkpt lat="40.0713749" lon="-105.229789">
  <ele>1583.0</ele>
  <time>2026-08-28T17:53:04Z</time>
  <course>248.41</course>
  <speed>0.0</speed>
  <fix>3d</fix>
</trkpt>
<trkpt lat="40.0713749" lon="-105.229789">
  <ele>1583.0</ele>
  <time>2026-08-28T17:53:04Z</time>
  <course>0.0</course>
  <speed>0.0</speed>
  <fix>3d</fix>
</trkpt>
<trkpt lat="40.0713749" lon="-105.229789">
  <ele>1583.0</ele>
  <time>2026-08-28T17:53:04Z</time>
  <course>248.41</course>
  <speed>0.0</speed>
  <fix>3d</fix>
</trkpt>
<trkpt lat="40.0713749" lon="-105.229789">
  <ele>1583.0</ele>
  <time>2026-08-28T17:53:04Z</time>
  <course>0.0</course>
  <speed>0.0</speed>
  <fix>3d</fix>
</trkpt>
<trkpt lat="40.0713749" lon="-105.229789">
  <ele>1583.0</ele>
  <time>2026-08-28T17:53:04Z</time>
  <course>248.41</course>
  <speed>0.0</speed>
  <fix>3d</fix>
</trkpt>
<trkpt lat="40.0713749" lon="-105.229789">
  <ele>1583.0</ele>
  <time>2026-08-28T17:53:04Z</time>
  <course>0.0</course>
  <speed>0.0</speed>
  <fix>3d</fix>
</trkpt>
<trkpt lat="40.0713749" lon="-105.229789">
  <ele>1583.0</ele>
  <time>2026-08-28T17:53:04Z</time>
  <course>248.41</course>
  <speed>0.0</speed>
  <fix>3d</fix>
</trkpt>
<trkpt lat="40.0713749" lon="-105.229789">
  <ele>1583.0</ele>
  <time>2026-08-28T17:53:04Z</time>
  <course>0.0</course>
  <speed>0.0</speed>
  <fix>3d</fix>
</trkpt>
<trkpt lat="40.0713749" lon="-105.229789">
  <ele>1583.0</ele>
  <time>2026-08-28T17:53:04Z</time>
  <course>248.41</course>
  <speed>0.0</speed>
  <fix>3d</fix>
</trkpt>
<trkpt lat="40.0713749" lon="-105.229789">
  <ele>1583.0</ele>
  <time>2026-08-28T17:53:04Z</time>
  <course>0.0</course>
  <speed>0.0</speed>
  <fix>3d</fix>
</trkpt>
<trkpt lat="40.0713749" lon="-105.229789">
  <ele>1583.0</ele>
  <time>2026-08-28T17:53:04Z</time>
  <course>248.41</course>
  <speed>0.0</speed>
  <fix>3d</fix>
</trkpt>
<trkpt lat="40.0713749" lon="-105.229789">
  <ele>1583.0</ele>
  <time>2026-08-28T17:53:04Z</time>
  <course>0.0</course>
  <speed>0.0</speed>
  <fix>3d</fix>
</trkpt>
<trkpt lat="40.0713749" lon="-105.229789">
  <ele>1583.0</ele>
  <time>2026-08-28T17:53:04Z</time>
  <course>248.41</course>
  <speed>0.0</speed>
  <fix>3d</fix>
</trkpt>
<trkpt lat="40.0713749" lon="-105.229789">
  <ele>1583.0</ele>
  <time>2026-08-28T17:53:04Z</time>
  <course>0.0</course>
  <speed>0.0</speed>
  <fix>3d</fix>
</trkpt>
<trkpt lat="40.0713749" lon="-105.229789">
  <ele>1583.0</ele>
  <time>2026-08-28T17:53:04Z</time>
  <course>248.41</course>
  <speed>0.0</speed>
  <fix>3d</fix>
</trkpt>
<trkpt lat="40.0713749" lon="-105.229789">
  <ele>1583.0</ele>
  <time>2026-08-28T17:53:04Z</time>
  <course>0.0</course>
  <speed>0.0</speed>
  <fix>3d</fix>
</trkpt>
<trkpt lat="40.0713749" lon="-105.229789">
  <ele>1583.0</ele>
  <time>2026-08-28T17:53:04Z</time>
  <course>248.4</course>
  <speed>0.0</speed>
  <fix>3d</fix>
</trkpt>
<trkpt lat="40.0713749" lon="-105.229789">
  <ele>1583.0</ele>
  <time>2026-08-28T17:53:04Z</time>
  <course>0.0</course>
  <speed>0.0</speed>
  <fix>3d</fix>
</trkpt>
<trkpt lat="40.0713749" lon="-105.229789">
  <ele>1583.0</ele>
  <time>2026-08-28T17:53:04Z</time>
  <course>248.4</course>
  <speed>0.01</speed>
  <fix>3d</fix>
</trkpt>
<trkpt lat="40.0713749" lon="-105.229789">
  <ele>1583.0</ele>
  <time>2026-08-28T17:53:04Z</time>
  <course>0.0</course>
  <speed>0.0</speed>
  <fix>3d</fix>
</trkpt>
<trkpt lat="40.0713749" lon="-105.229789">
  <ele>1583.0</ele>
  <time>2026-08-28T17:53:04Z</time>
  <course>248.4</course>
  <speed>0.01</speed>
  <fix>3d</fix>
</trkpt>
<trkpt lat="40.0713749" lon="-105.229789">
  <ele>1583.0</ele>
  <time>2026-08-28T17:53:04Z</time>
  <course>0.0</course>
  <speed>0.0</speed>
  <fix>3d</fix>
</trkpt>
<trkpt lat="40.0713749" lon="-105.229789">
  <ele>1583.0</ele>
  <time>2026-08-28T17:53:04Z</time>
  <course>248.4</course>
  <speed>0.01</speed>
  <fix>3d</fix>
</trkpt>
<trkpt lat="40.0713749" lon="-105.229789">
  <ele>1583.0</ele>
  <time>2026-08-28T17:53:04Z</time>
  <course>0.0</course>
  <speed>0.0</speed>
  <fix>3d</fix>
</trkpt>
<trkpt lat="40.0713749" lon="-105.229789">
  <ele>1583.0</ele>
  <time>2026-08-28T17:53:04Z</time>
  <course>248.4</course>
  <speed>0.01</speed>
  <fix>3d</fix>
</trkpt>
<trkpt lat="40.0713749" lon="-105.229789">
  <ele>1583.0</ele>
  <time>2026-08-28T17:53:04Z</time>
  <course>0.0</course>
  <speed>0.0</speed>
  <fix>3d</fix>
</trkpt>
<trkpt lat="40.0713749" lon="-105.229789">
  <ele>1583.0</ele>
  <time>2026-08-28T17:53:04Z</time>
  <course>248.39</course>
  <speed>0.01</speed>
  <fix>3d</fix>
</trkpt>
<trkpt lat="40.0713749" lon="-105.229789">
  <ele>1583.0</ele>
  <time>2026-08-28T17:53:04Z</time>
  <course>0.0</course>
  <speed>0.0</speed>
  <fix>3d</fix>
</trkpt>
<trkpt lat="40.0713749" lon="-105.229789">
  <ele>1583.0</ele>
  <time>2026-08-28T17:53:04Z</time>
  <course>248.39</course>
  <speed>0.01</speed>
  <fix>3d</fix>
</trkpt>
<trkpt lat="40.0713749" lon="-105.229789">
  <ele>1583.0</ele>
  <time>2026-08-28T17:53:04Z</time>
  <course>0.0</course>
  <speed>0.0</speed>
  <fix>3d</fix>
</trkpt>
<trkpt lat="40.0713749" lon="-105.229789">
  <ele>1583.0</ele>
  <time>2026-08-28T17:53:04Z</time>
  <course>248.39</course>
  <speed>0.01</speed>
  <fix>3d</fix>
</trkpt>
<trkpt lat="40.0713749" lon="-105.229789">
  <ele>1583.0</ele>
  <time>2026-08-28T17:53:04Z</time>
  <course>0.0</course>
  <speed>0.0</speed>
  <fix>3d</fix>
</trkpt>
<trkpt lat="40.0713749" lon="-105.229789">
  <ele>1583.0</ele>
  <time>2026-08-28T17:53:04Z</time>
  <course>248.38</course>
  <speed>0.01</speed>
  <fix>3d</fix>
</trkpt>
<trkpt lat="40.0713749" lon="-105.229789">
  <ele>1583.0</ele>
  <time>2026-08-28T17:53:04Z</time>
  <course>0.0</course>
  <speed>0.0</speed>
  <fix>3d</fix>
</trkpt>
<trkpt lat="40.0713749" lon="-105.229789">
  <ele>1583.0</ele>
  <time>2026-08-28T17:53:04Z</time>
  <course>248.38</course>
  <speed>0.01</speed>
  <fix>3d</fix>
</trkpt>
<trkpt lat="40.0713749" lon="-105.229789">
  <ele>1583.0</ele>
  <time>2026-08-28T17:53:04Z</time>
  <course>0.0</course>
  <speed>0.0</speed>
  <fix>3d</fix>
</trkpt>
<trkpt lat="40.0713749" lon="-105.229789">
  <ele>1583.0</ele>
  <time>2026-08-28T17:53:04Z</time>
  <course>248.38</course>
  <speed>0.01</speed>
  <fix>3d</fix>
</trkpt>
<trkpt lat="40.0713749" lon="-105.229789">
  <ele>1583.0</ele>
  <time>2026-08-28T17:53:04Z</time>
  <course>0.0</course>
  <speed>0.0</speed>
  <fix>3d</fix>
</trkpt>
<trkpt lat="40.0713749" lon="-105.229789">
  <ele>1583.0</ele>
  <time>2026-08-28T17:53:04Z</time>
  <course>248.37</course>
  <speed>0.01</speed>
  <fix>3d</fix>
</trkpt>
<trkpt lat="40.0713749" lon="-105.229789">
  <ele>1583.0</ele>
  <time>2026-08-28T17:53:04Z</time>
  <course>0.0</course>
  <speed>0.0</speed>
  <fix>3d</fix>
</trkpt>
<trkpt lat="40.0713749" lon="-105.229789">
  <ele>1583.0</ele>
  <time>2026-08-28T17:53:04Z</time>
  <course>248.37</course>
  <speed>0.01</speed>
  <fix>3d</fix>
</trkpt>
<trkpt lat="40.0713749" lon="-105.229789">
  <ele>1583.0</ele>
  <time>2026-08-28T17:53:04Z</time>
  <course>0.0</course>
  <speed>0.0</speed>
  <fix>3d</fix>
</trkpt>
<trkpt lat="40.0713749" lon="-105.229789">
  <ele>1583.0</ele>
  <time>2026-08-28T17:53:04Z</time>
  <course>248.37</course>
  <speed>0.01</speed>
  <fix>3d</fix>
</trkpt>
<trkpt lat="40.0713749" lon="-105.229789">
  <ele>1583.0</ele>
  <time>2026-08-28T17:53:04Z</time>
  <course>0.0</course>
  <speed>0.0</speed>
  <fix>3d</fix>
</trkpt>
<trkpt lat="40.0713749" lon="-105.229789">
  <ele>1583.0</ele>
  <time>2026-08-28T17:53:04Z</time>
  <course>248.36</course>
  <speed>0.01</speed>
  <fix>3d</fix>
</trkpt>
<trkpt lat="40.0713749" lon="-105.229789">
  <ele>1583.0</ele>
  <time>2026-08-28T17:53:04Z</time>
  <course>0.0</course>
  <speed>0.0</speed>
  <fix>3d</fix>
</trkpt>
<trkpt lat="40.0713749" lon="-105.229789">
  <ele>1583.0</ele>
  <time>2026-08-28T17:53:04Z</time>
  <course>248.36</course>
  <speed>0.01</speed>
  <fix>3d</fix>
</trkpt>
<trkpt lat="40.0713749" lon="-105.229789">
  <ele>1583.0</ele>
  <time>2026-08-28T17:53:04Z</time>
  <course>0.0</course>
  <speed>0.0</speed>
  <fix>3d</fix>
</trkpt>
<trkpt lat="40.0713749" lon="-105.229789">
  <ele>1583.0</ele>
  <time>2026-08-28T17:53:04Z</time>
  <course>248.36</course>
  <speed>0.01</speed>
  <fix>3d</fix>
</trkpt>
<trkpt lat="40.0713749" lon="-105.229789">
  <ele>1583.0</ele>
  <time>2026-08-28T17:53:04Z</time>
  <course>0.0</course>
  <speed>0.0</speed>
  <fix>3d</fix>
</trkpt>
<trkpt lat="40.0713749" lon="-105.229789">
  <ele>1583.0</ele>
  <time>2026-08-28T17:53:04Z</time>
  <course>248.35</course>
  <speed>0.01</speed>
  <fix>3d</fix>
</trkpt>
<trkpt lat="40.0713749" lon="-105.229789">
  <ele>1583.0</ele>
  <time>2026-08-28T17:53:04Z</time>
  <course>0.0</course>
  <speed>0.0</speed>
  <fix>3d</fix>
</trkpt>
<trkpt lat="40.0713749" lon="-105.229789">
  <ele>1583.0</ele>
  <time>2026-08-28T17:53:04Z</time>
  <course>248.35</course>
  <speed>0.01</speed>
  <fix>3d</fix>
</trkpt>
<trkpt lat="40.0713749" lon="-105.229789">
  <ele>1583.0</ele>
  <time>2026-08-28T17:53:04Z</time>
  <course>0.0</course>
  <speed>0.0</speed>
  <fix>3d</fix>
</trkpt>
<trkpt lat="40.0713749" lon="-105.229789">
  <ele>1583.0</ele>
  <time>2026-08-28T17:53:04Z</time>
  <course>248.35</course>
  <speed>0.01</speed>
  <fix>3d</fix>
</trkpt>
<trkpt lat="40.0713749" lon="-105.229789">
  <ele>1583.0</ele>
  <time>2026-08-28T17:53:04Z</time>
  <course>0.0</course>
  <speed>0.0</speed>
  <fix>3d</fix>
</trkpt>
<trkpt lat="40.0713749" lon="-105.229789">
  <ele>1583.0</ele>
  <time>2026-08-28T17:53:04Z</time>
  <course>248.34</course>
  <speed>0.01</speed>
  <fix>3d</fix>
</trkpt>
<trkpt lat="40.0713749" lon="-105.229789">
  <ele>1583.0</ele>
  <time>2026-08-28T17:53:04Z</time>
  <course>0.0</course>
  <speed>0.0</speed>
  <fix>3d</fix>
</trkpt>
<trkpt lat="40.0713749" lon="-105.229789">
  <ele>1583.0</ele>
  <time>2026-08-28T17:53:04Z</time>
  <course>248.34</course>
  <speed>0.01</speed>
  <fix>3d</fix>
</trkpt>
<trkpt lat="40.0713749" lon="-105.229789">
  <ele>1583.0</ele>
  <time>2026-08-28T17:53:04Z</time>
  <course>0.0</course>
  <speed>0.0</speed>
  <fix>3d</fix>
</trkpt>
<trkpt lat="40.0713749" lon="-105.229789">
  <ele>1583.0</ele>
  <time>2026-08-28T17:53:04Z</time>
  <course>248.33</course>
  <speed>0.01</speed>
  <fix>3d</fix>
</trkpt>
<trkpt lat="40.0713749" lon="-105.229789">
  <ele>1583.0</ele>
  <time>2026-08-28T17:53:04Z</time>
  <course>0.0</course>
  <speed>0.0</speed>
  <fix>3d</fix>
</trkpt>
<trkpt lat="40.0713749" lon="-105.229789">
  <ele>1583.0</ele>
  <time>2026-08-28T17:53:04Z</time>
  <course>248.33</course>
  <speed>0.01</speed>
  <fix>3d</fix>
</trkpt>
<trkpt lat="40.0713749" lon="-105.229789">
  <ele>1583.0</ele>
  <time>2026-08-28T17:53:04Z</time>
  <course>0.0</course>
  <speed>0.0</speed>
  <fix>3d</fix>
</trkpt>
<trkpt lat="40.0713749" lon="-105.229789">
  <ele>1583.0</ele>
  <time>2026-08-28T17:53:04Z</time>
  <course>248.32</course>
  <speed>0.01</speed>
  <fix>3d</fix>
</trkpt>
<trkpt lat="40.0713749" lon="-105.229789">
  <ele>1583.0</ele>
  <time>2026-08-28T17:53:04Z</time>
  <course>0.0</course>
  <speed>0.0</speed>
  <fix>3d</fix>
</trkpt>
<trkpt lat="40.0713749" lon="-105.229789">
  <ele>1583.0</ele>
  <time>2026-08-28T17:53:04Z</time>
  <course>248.32</course>
  <speed>0.01</speed>
  <fix>3d</fix>
</trkpt>
<trkpt lat="40.0713749" lon="-105.229789">
  <ele>1583.0</ele>
  <time>2026-08-28T17:53:04Z</time>
  <course>0.0</course>
  <speed>0.0</speed>
  <fix>3d</fix>
</trkpt>
<trkpt lat="40.0713749" lon="-105.229789">
  <ele>1583.0</ele>
  <time>2026-08-28T17:53:04Z</time>
  <course>248.32</course>
  <speed>0.01</speed>
  <fix>3d</fix>
</trkpt>
<trkpt lat="40.0713749" lon="-105.229789">
  <ele>1583.0</ele>
  <time>2026-08-28T17:53:04Z</time>
  <course>0.0</course>
  <speed>0.0</speed>
  <fix>3d</fix>
</trkpt>
<trkpt lat="40.0713749" lon="-105.229789">
  <ele>1583.0</ele>
  <time>2026-08-28T17:53:04Z</time>
  <course>248.31</course>
  <speed>0.01</speed>
  <fix>3d</fix>
</trkpt>
<trkpt lat="40.0713749" lon="-105.229789">
  <ele>1583.0</ele>
  <time>2026-08-28T17:53:04Z</time>
  <course>0.0</course>
  <speed>0.0</speed>
  <fix>3d</fix>
</trkpt>
<trkpt lat="40.0713749" lon="-105.229789">
  <ele>1583.0</ele>
  <time>2026-08-28T17:53:04Z</time>
  <course>248.31</course>
  <speed>0.01</speed>
  <fix>3d</fix>
</trkpt>
<trkpt lat="40.0713749" lon="-105.229789">
  <ele>1583.0</ele>
  <time>2026-08-28T17:53:04Z</time>
  <course>0.0</course>
  <speed>0.0</speed>
  <fix>3d</fix>
</trkpt>
<trkpt lat="40.0713749" lon="-105.229789">
  <ele>1583.0</ele>
  <time>2026-08-28T17:53:04Z</time>
  <course>248.3</course>
  <speed>0.01</speed>
  <fix>3d</fix>
</trkpt>
<trkpt lat="40.0713749" lon="-105.229789">
  <ele>1583.0</ele>
  <time>2026-08-28T17:53:04Z</time>
  <course>0.0</course>
  <speed>0.0</speed>
  <fix>3d</fix>
</trkpt>
<trkpt lat="40.0713749" lon="-105.229789">
  <ele>1583.0</ele>
  <time>2026-08-28T17:53:04Z</time>
  <course>248.3</course>
  <speed>0.01</speed>
  <fix>3d</fix>
</trkpt>
<trkpt lat="40.0713749" lon="-105.229789">
  <ele>1583.0</ele>
  <time>2026-08-28T17:53:04Z</time>
  <course>0.0</course>
  <speed>0.0</speed>
  <fix>3d</fix>
</trkpt>
<trkpt lat="40.0713749" lon="-105.229789">
  <ele>1583.0</ele>
  <time>2026-08-28T17:53:04Z</time>
  <course>248.29</course>
  <speed>0.01</speed>
  <fix>3d</fix>
</trkpt>
<trkpt lat="40.0713749" lon="-105.229789">
  <ele>1583.0</ele>
  <time>2026-08-28T17:53:04Z</time>
  <course>0.0</course>
  <speed>0.0</speed>
  <fix>3d</fix>
</trkpt>
<trkpt lat="40.0713749" lon="-105.229789">
  <ele>1583.0</ele>
  <time>2026-08-28T17:53:04Z</time>
  <course>248.29</course>
  <speed>0.01</speed>
  <fix>3d</fix>
</trkpt>
<trkpt lat="40.0713749" lon="-105.229789">
  <ele>1583.0</ele>
  <time>2026-08-28T17:53:04Z</time>
  <course>0.0</course>
  <speed>0.0</speed>
  <fix>3d</fix>
</trkpt>
<trkpt lat="40.0713749" lon="-105.229789">
  <ele>1583.0</ele>
  <time>2026-08-28T17:53:04Z</time>
  <course>248.28</course>
  <speed>0.01</speed>
  <fix>3d</fix>
</trkpt>
<trkpt lat="40.0713749" lon="-105.229789">
  <ele>1583.0</ele>
  <time>2026-08-28T17:53:04Z</time>
  <course>0.0</course>
  <speed>0.0</speed>
  <fix>3d</fix>
</trkpt>
<trkpt lat="40.0713749" lon="-105.229789">
  <ele>1583.0</ele>
  <time>2026-08-28T17:53:05Z</time>
  <course>248.28</course>
  <speed>0.01</speed>
  <fix>3d</fix>
</trkpt>
<trkpt lat="40.0713749" lon="-105.229789">
  <ele>1583.0</ele>
  <time>2026-08-28T17:53:05Z</time>
  <course>0.0</course>
  <speed>0.0</speed>
  <fix>3d</fix>
</trkpt>
<trkpt lat="40.0713749" lon="-105.229789">
  <ele>1583.0</ele>
  <time>2026-08-28T17:53:05Z</time>
  <course>248.27</course>
  <speed>0.01</speed>
  <fix>3d</fix>
</trkpt>
<trkpt lat="40.0713749" lon="-105.229789">
  <ele>1583.0</ele>
  <time>2026-08-28T17:53:05Z</time>
  <course>0.0</course>
  <speed>0.0</speed>
  <fix>3d</fix>
</trkpt>
<trkpt lat="40.0713749" lon="-105.229789">
  <ele>1583.0</ele>
  <time>2026-08-28T17:53:05Z</time>
  <course>248.27</course>
  <speed>0.01</speed>
  <fix>3d</fix>
</trkpt>
<trkpt lat="40.0713749" lon="-105.229789">
  <ele>1583.0</ele>
  <time>2026-08-28T17:53:05Z</time>
  <course>0.0</course>
  <speed>0.0</speed>
  <fix>3d</fix>
</trkpt>
<trkpt lat="40.0713749" lon="-105.229789">
  <ele>1583.0</ele>
  <time>2026-08-28T17:53:05Z</time>
  <course>248.26</course>
  <speed>0.01</speed>
  <fix>3d</fix>
</trkpt>
<trkpt lat="40.0713749" lon="-105.229789">
  <ele>1583.0</ele>
  <time>2026-08-28T17:53:05Z</time>
  <course>0.0</course>
  <speed>0.0</speed>
  <fix>3d</fix>
</trkpt>
<trkpt lat="40.0713749" lon="-105.229789">
  <ele>1583.0</ele>
  <time>2026-08-28T17:53:05Z</time>
  <course>248.26</course>
  <speed>0.01</speed>
  <fix>3d</fix>
</trkpt>
<trkpt lat="40.0713749" lon="-105.229789">
  <ele>1583.0</ele>
  <time>2026-08-28T17:53:05Z</time>
  <course>0.0</course>
  <speed>0.0</speed>
  <fix>3d</fix>
</trkpt>
<trkpt lat="40.0713749" lon="-105.229789">
  <ele>1583.0</ele>
  <time>2026-08-28T17:53:05Z</time>
  <course>248.26</course>
  <speed>0.01</speed>
  <fix>3d</fix>
</trkpt>
<trkpt lat="40.0713749" lon="-105.229789">
  <ele>1583.0</ele>
  <time>2026-08-28T17:53:05Z</time>
  <course>0.0</course>
  <speed>0.0</speed>
  <fix>3d</fix>
</trkpt>
<trkpt lat="40.0713749" lon="-105.229789">
  <ele>1583.0</ele>
  <time>2026-08-28T17:53:05Z</time>
  <course>248.25</course>
  <speed>0.01</speed>
  <fix>3d</fix>
</trkpt>
<trkpt lat="40.0713749" lon="-105.229789">
  <ele>1583.0</ele>
  <time>2026-08-28T17:53:05Z</time>
  <course>0.0</course>
  <speed>0.0</speed>
  <fix>3d</fix>
</trkpt>
<trkpt lat="40.0713749" lon="-105.229789">
  <ele>1583.0</ele>
  <time>2026-08-28T17:53:05Z</time>
  <course>248.25</course>
  <speed>0.01</speed>
  <fix>3d</fix>
</trkpt>
<trkpt lat="40.0713749" lon="-105.229789">
  <ele>1583.0</ele>
  <time>2026-08-28T17:53:05Z</time>
  <course>0.0</course>
  <speed>0.0</speed>
  <fix>3d</fix>
</trkpt>
<trkpt lat="40.0713749" lon="-105.229789">
  <ele>1583.0</ele>
  <time>2026-08-28T17:53:05Z</time>
  <course>248.24</course>
  <speed>0.01</speed>
  <fix>3d</fix>
</trkpt>
<trkpt lat="40.0713749" lon="-105.229789">
  <ele>1583.0</ele>
  <time>2026-08-28T17:53:05Z</time>
  <course>0.0</course>
  <speed>0.0</speed>
  <fix>3d</fix>
</trkpt>
<trkpt lat="40.0713749" lon="-105.229789">
  <ele>1583.0</ele>
  <time>2026-08-28T17:53:05Z</time>
  <course>248.24</course>
  <speed>0.01</speed>
  <fix>3d</fix>
</trkpt>
<trkpt lat="40.0713749" lon="-105.229789">
  <ele>1583.0</ele>
  <time>2026-08-28T17:53:05Z</time>
  <course>0.0</course>
  <speed>0.0</speed>
  <fix>3d</fix>
</trkpt>
<trkpt lat="40.0713749" lon="-105.229789">
  <ele>1583.0</ele>
  <time>2026-08-28T17:53:05Z</time>
  <course>248.23</course>
  <speed>0.01</speed>
  <fix>3d</fix>
</trkpt>
<trkpt lat="40.0713749" lon="-105.229789">
  <ele>1583.0</ele>
  <time>2026-08-28T17:53:05Z</time>
  <course>0.0</course>
  <speed>0.0</speed>
  <fix>3d</fix>
</trkpt>
<trkpt lat="40.0713749" lon="-105.229789">
  <ele>1583.0</ele>
  <time>2026-08-28T17:53:05Z</time>
  <course>248.23</course>
  <speed>0.01</speed>
  <fix>3d</fix>
</trkpt>
<trkpt lat="40.0713749" lon="-105.229789">
  <ele>1583.0</ele>
  <time>2026-08-28T17:53:05Z</time>
  <course>0.0</course>
  <speed>0.0</speed>
  <fix>3d</fix>
</trkpt>
<trkpt lat="40.0713749" lon="-105.229789">
  <ele>1583.0</ele>
  <time>2026-08-28T17:53:05Z</time>
  <course>248.22</course>
  <speed>0.01</speed>
  <fix>3d</fix>
</trkpt>
<trkpt lat="40.0713749" lon="-105.229789">
  <ele>1583.0</ele>
  <time>2026-08-28T17:53:05Z</time>
  <course>0.0</course>
  <speed>0.0</speed>
  <fix>3d</fix>
</trkpt>
<trkpt lat="40.0713749" lon="-105.229789">
  <ele>1583.0</ele>
  <time>2026-08-28T17:53:05Z</time>
  <course>248.22</course>
  <speed>0.01</speed>
  <fix>3d</fix>
</trkpt>
<trkpt lat="40.0713749" lon="-105.229789">
  <ele>1583.0</ele>
  <time>2026-08-28T17:53:05Z</time>
  <course>0.0</course>
  <speed>0.0</speed>
  <fix>3d</fix>
</trkpt>
<trkpt lat="40.0713749" lon="-105.229789">
  <ele>1583.0</ele>
  <time>2026-08-28T17:53:05Z</time>
  <course>248.21</course>
  <speed>0.01</speed>
  <fix>3d</fix>
</trkpt>
<trkpt lat="40.0713749" lon="-105.229789">
  <ele>1583.0</ele>
  <time>2026-08-28T17:53:05Z</time>
  <course>0.0</course>
  <speed>0.0</speed>
  <fix>3d</fix>
</trkpt>
<trkpt lat="40.0713749" lon="-105.229789">
  <ele>1583.0</ele>
  <time>2026-08-28T17:53:05Z</time>
  <course>248.21</course>
  <speed>0.01</speed>
  <fix>3d</fix>
</trkpt>
<trkpt lat="40.0713749" lon="-105.229789">
  <ele>1583.0</ele>
  <time>2026-08-28T17:53:05Z</time>
  <course>0.0</course>
  <speed>0.0</speed>
  <fix>3d</fix>
</trkpt>
<trkpt lat="40.0713749" lon="-105.229789">
  <ele>1583.0</ele>
  <time>2026-08-28T17:53:05Z</time>
  <course>248.2</course>
  <speed>0.01</speed>
  <fix>3d</fix>
</trkpt>
<trkpt lat="40.0713749" lon="-105.229789">
  <ele>1583.0</ele>
  <time>2026-08-28T17:53:05Z</time>
  <course>0.0</course>
  <speed>0.0</speed>
  <fix>3d</fix>
</trkpt>
<trkpt lat="40.0713749" lon="-105.229789">
  <ele>1583.0</ele>
  <time>2026-08-28T17:53:05Z</time>
  <course>248.2</course>
  <speed>0.01</speed>
  <fix>3d</fix>
</trkpt>
<trkpt lat="40.0713749" lon="-105.229789">
  <ele>1583.0</ele>
  <time>2026-08-28T17:53:05Z</time>
  <course>0.0</course>
  <speed>0.0</speed>
  <fix>3d</fix>
</trkpt>
<trkpt lat="40.0713749" lon="-105.229789">
  <ele>1583.0</ele>
  <time>2026-08-28T17:53:05Z</time>
  <course>248.19</course>
  <speed>0.01</speed>
  <fix>3d</fix>
</trkpt>
<trkpt lat="40.0713749" lon="-105.229789">
  <ele>1583.0</ele>
  <time>2026-08-28T17:53:05Z</time>
  <course>0.0</course>
  <speed>0.0</speed>
  <fix>3d</fix>
</trkpt>
<trkpt lat="40.0713749" lon="-105.229789">
  <ele>1583.0</ele>
  <time>2026-08-28T17:53:05Z</time>
  <course>248.19</course>
  <speed>0.01</speed>
  <fix>3d</fix>
</trkpt>
<trkpt lat="40.0713749" lon="-105.229789">
  <ele>1583.0</ele>
  <time>2026-08-28T17:53:05Z</time>
  <course>0.0</course>
  <speed>0.0</speed>
  <fix>3d</fix>
</trkpt>
<trkpt lat="40.0713749" lon="-105.229789">
  <ele>1583.0</ele>
  <time>2026-08-28T17:53:05Z</time>
  <course>248.18</course>
  <speed>0.01</speed>
  <fix>3d</fix>
</trkpt>
<trkpt lat="40.0713749" lon="-105.229789">
  <ele>1583.0</ele>
  <time>2026-08-28T17:53:05Z</time>
  <course>0.0</course>
  <speed>0.0</speed>
  <fix>3d</fix>
</trkpt>
<trkpt lat="40.0713749" lon="-105.229789">
  <ele>1583.0</ele>
  <time>2026-08-28T17:53:05Z</time>
  <course>248.18</course>
  <speed>0.01</speed>
  <fix>3d</fix>
</trkpt>
<trkpt lat="40.0713749" lon="-105.229789">
  <ele>1583.0</ele>
  <time>2026-08-28T17:53:05Z</time>
  <course>0.0</course>
  <speed>0.0</speed>
  <fix>3d</fix>
</trkpt>
<trkpt lat="40.0713749" lon="-105.229789">
  <ele>1583.0</ele>
  <time>2026-08-28T17:53:05Z</time>
  <course>248.17</course>
  <speed>0.022360679774997897</speed>
  <fix>3d</fix>
</trkpt>
<trkpt lat="40.0713749" lon="-105.229789">
  <ele>1583.0</ele>
  <time>2026-08-28T17:53:05Z</time>
  <course>0.0</course>
  <speed>0.0</speed>
  <fix>3d</fix>
</trkpt>
<trkpt lat="40.0713749" lon="-105.229789">
  <ele>1583.0</ele>
  <time>2026-08-28T17:53:05Z</time>
  <course>248.17</course>
  <speed>0.022360679774997897</speed>
  <fix>3d</fix>
</trkpt>
<trkpt lat="40.0713749" lon="-105.229789">
  <ele>1583.0</ele>
  <time>2026-08-28T17:53:05Z</time>
  <course>0.0</course>
  <speed>0.0</speed>
  <fix>3d</fix>
</trkpt>
<trkpt lat="40.0713749" lon="-105.229789">
  <ele>1583.0</ele>
  <time>2026-08-28T17:53:05Z</time>
  <course>248.16</course>
  <speed>0.022360679774997897</speed>
  <fix>3d</fix>
</trkpt>
<trkpt lat="40.0713749" lon="-105.229789">
  <ele>1583.0</ele>
  <time>2026-08-28T17:53:05Z</time>
  <course>0.0</course>
  <speed>0.0</speed>
  <fix>3d</fix>
</trkpt>
<trkpt lat="40.0713749" lon="-105.229789">
  <ele>1583.0</ele>
  <time>2026-08-28T17:53:05Z</time>
  <course>248.16</course>
  <speed>0.022360679774997897</speed>
  <fix>3d</fix>
</trkpt>
<trkpt lat="40.0713749" lon="-105.229789">
  <ele>1583.0</ele>
  <time>2026-08-28T17:53:05Z</time>
  <course>0.0</course>
  <speed>0.0</speed>
  <fix>3d</fix>
</trkpt>
<trkpt lat="40.0713749" lon="-105.229789">
  <ele>1583.0</ele>
  <time>2026-08-28T17:53:05Z</time>
  <course>248.15</course>
  <speed>0.022360679774997897</speed>
  <fix>3d</fix>
</trkpt>
<trkpt lat="40.0713749" lon="-105.229789">
  <ele>1583.0</ele>
  <time>2026-08-28T17:53:05Z</time>
  <course>0.0</course>
  <speed>0.0</speed>
  <fix>3d</fix>
</trkpt>
<trkpt lat="40.0713749" lon="-105.229789">
  <ele>1583.0</ele>
  <time>2026-08-28T17:53:05Z</time>
  <course>248.15</course>
  <speed>0.022360679774997897</speed>
  <fix>3d</fix>
</trkpt>
<trkpt lat="40.0713749" lon="-105.229789">
  <ele>1583.0</ele>
  <time>2026-08-28T17:53:05Z</time>
  <course>0.0</course>
  <speed>0.0</speed>
  <fix>3d</fix>
</trkpt>
<trkpt lat="40.0713749" lon="-105.229789">
  <ele>1583.0</ele>
  <time>2026-08-28T17:53:05Z</time>
  <course>248.14</course>
  <speed>0.022360679774997897</speed>
  <fix>3d</fix>
</trkpt>
<trkpt lat="40.0713749" lon="-105.229789">
  <ele>1583.0</ele>
  <time>2026-08-28T17:53:05Z</time>
  <course>0.0</course>
  <speed>0.0</speed>
  <fix>3d</fix>
</trkpt>
<trkpt lat="40.0713749" lon="-105.229789">
  <ele>1583.0</ele>
  <time>2026-08-28T17:53:05Z</time>
  <course>248.14</course>
  <speed>0.022360679774997897</speed>
  <fix>3d</fix>
</trkpt>
<trkpt lat="40.0713749" lon="-105.229789">
  <ele>1583.0</ele>
  <time>2026-08-28T17:53:05Z</time>
  <course>0.0</course>
  <speed>0.0</speed>
  <fix>3d</fix>
</trkpt>
<trkpt lat="40.0713749" lon="-105.229789">
  <ele>1583.0</ele>
  <time>2026-08-28T17:53:05Z</time>
  <course>248.13</course>
  <speed>0.022360679774997897</speed>
  <fix>3d</fix>
</trkpt>
<trkpt lat="40.0713749" lon="-105.229789">
  <ele>1583.0</ele>
  <time>2026-08-28T17:53:05Z</time>
  <course>0.0</course>
  <speed>0.0</speed>
  <fix>3d</fix>
</trkpt>
<trkpt lat="40.0713749" lon="-105.229789">
  <ele>1583.0</ele>
  <time>2026-08-28T17:53:05Z</time>
  <course>248.13</course>
  <speed>0.022360679774997897</speed>
  <fix>3d</fix>
</trkpt>
<trkpt lat="40.0713749" lon="-105.229789">
  <ele>1583.0</ele>
  <time>2026-08-28T17:53:05Z</time>
  <course>0.0</course>
  <speed>0.0</speed>
  <fix>3d</fix>
</trkpt>
<trkpt lat="40.0713749" lon="-105.229789">
  <ele>1583.0</ele>
  <time>2026-08-28T17:53:05Z</time>
  <course>248.12</course>
  <speed>0.022360679774997897</speed>
  <fix>3d</fix>
</trkpt>
<trkpt lat="40.0713749" lon="-105.229789">
  <ele>1583.0</ele>
  <time>2026-08-28T17:53:05Z</time>
  <course>0.0</course>
  <speed>0.0</speed>
  <fix>3d</fix>
</trkpt>
<trkpt lat="40.0713749" lon="-105.229789">
  <ele>1583.0</ele>
  <time>2026-08-28T17:53:05Z</time>
  <course>248.12</course>
  <speed>0.022360679774997897</speed>
  <fix>3d</fix>
</trkpt>
<trkpt lat="40.0713749" lon="-105.229789">
  <ele>1583.0</ele>
  <time>2026-08-28T17:53:05Z</time>
  <course>0.0</course>
  <speed>0.0</speed>
  <fix>3d</fix>
</trkpt>
<trkpt lat="40.0713749" lon="-105.229789">
  <ele>1583.0</ele>
  <time>2026-08-28T17:53:05Z</time>
  <course>248.11</course>
  <speed>0.022360679774997897</speed>
  <fix>3d</fix>
</trkpt>
<trkpt lat="40.0713749" lon="-105.229789">
  <ele>1583.0</ele>
  <time>2026-08-28T17:53:05Z</time>
  <course>0.0</course>
  <speed>0.0</speed>
  <fix>3d</fix>
</trkpt>
<trkpt lat="40.0713749" lon="-105.229789">
  <ele>1583.0</ele>
  <time>2026-08-28T17:53:05Z</time>
  <course>248.11</course>
  <speed>0.022360679774997897</speed>
  <fix>3d</fix>
</trkpt>
<trkpt lat="40.0713749" lon="-105.229789">
  <ele>1583.0</ele>
  <time>2026-08-28T17:53:05Z</time>
  <course>0.0</course>
  <speed>0.0</speed>
  <fix>3d</fix>
</trkpt>
<trkpt lat="40.0713749" lon="-105.229789">
  <ele>1583.0</ele>
  <time>2026-08-28T17:53:05Z</time>
  <course>248.1</course>
  <speed>0.022360679774997897</speed>
  <fix>3d</fix>
</trkpt>
<trkpt lat="40.0713749" lon="-105.229789">
  <ele>1583.0</ele>
  <time>2026-08-28T17:53:05Z</time>
  <course>0.0</course>
  <speed>0.0</speed>
  <fix>3d</fix>
</trkpt>
<trkpt lat="40.0713749" lon="-105.229789">
  <ele>1583.0</ele>
  <time>2026-08-28T17:53:05Z</time>
  <course>248.1</course>
  <speed>0.022360679774997897</speed>
  <fix>3d</fix>
</trkpt>
<trkpt lat="40.0713749" lon="-105.229789">
  <ele>1583.0</ele>
  <time>2026-08-28T17:53:05Z</time>
  <course>0.0</course>
  <speed>0.0</speed>
  <fix>3d</fix>
</trkpt>
<trkpt lat="40.0713749" lon="-105.229789">
  <ele>1583.0</ele>
  <time>2026-08-28T17:53:05Z</time>
  <course>248.09</course>
  <speed>0.022360679774997897</speed>
  <fix>3d</fix>
</trkpt>
<trkpt lat="40.0713749" lon="-105.229789">
  <ele>1583.0</ele>
  <time>2026-08-28T17:53:05Z</time>
  <course>0.0</course>
  <speed>0.0</speed>
  <fix>3d</fix>
</trkpt>
<trkpt lat="40.0713749" lon="-105.229789">
  <ele>1583.0</ele>
  <time>2026-08-28T17:53:05Z</time>
  <course>248.09</course>
  <speed>0.022360679774997897</speed>
  <fix>3d</fix>
</trkpt>
<trkpt lat="40.0713749" lon="-105.229789">
  <ele>1583.0</ele>
  <time>2026-08-28T17:53:05Z</time>
  <course>0.0</course>
  <speed>0.0</speed>
  <fix>3d</fix>
</trkpt>
<trkpt lat="40.0713749" lon="-105.229789">
  <ele>1583.0</ele>
  <time>2026-08-28T17:53:05Z</time>
  <course>248.08</course>
  <speed>0.022360679774997897</speed>
  <fix>3d</fix>
</trkpt>
<trkpt lat="40.0713749" lon="-105.229789">
  <ele>1583.0</ele>
  <time>2026-08-28T17:53:05Z</time>
  <course>0.0</course>
  <speed>0.0</speed>
  <fix>3d</fix>
</trkpt>
<trkpt lat="40.0713749" lon="-105.229789">
  <ele>1583.0</ele>
  <time>2026-08-28T17:53:05Z</time>
  <course>248.08</course>
  <speed>0.022360679774997897</speed>
  <fix>3d</fix>
</trkpt>
<trkpt lat="40.0713749" lon="-105.229789">
  <ele>1583.0</ele>
  <time>2026-08-28T17:53:05Z</time>
  <course>0.0</course>
  <speed>0.0</speed>
  <fix>3d</fix>
</trkpt>
<trkpt lat="40.0713749" lon="-105.229789">
  <ele>1583.0</ele>
  <time>2026-08-28T17:53:05Z</time>
  <course>248.07</course>
  <speed>0.022360679774997897</speed>
  <fix>3d</fix>
</trkpt>
<trkpt lat="40.0713749" lon="-105.229789">
  <ele>1583.0</ele>
  <time>2026-08-28T17:53:05Z</time>
  <course>0.0</course>
  <speed>0.0</speed>
  <fix>3d</fix>
</trkpt>
<trkpt lat="40.0713749" lon="-105.229789">
  <ele>1583.0</ele>
  <time>2026-08-28T17:53:05Z</time>
  <course>248.07</course>
  <speed>0.022360679774997897</speed>
  <fix>3d</fix>
</trkpt>
<trkpt lat="40.0713749" lon="-105.229789">
  <ele>1583.0</ele>
  <time>2026-08-28T17:53:05Z</time>
  <course>0.0</course>
  <speed>0.0</speed>
  <fix>3d</fix>
</trkpt>
<trkpt lat="40.0713749" lon="-105.229789">
  <ele>1583.0</ele>
  <time>2026-08-28T17:53:05Z</time>
  <course>248.06</course>
  <speed>0.022360679774997897</speed>
  <fix>3d</fix>
</trkpt>
<trkpt lat="40.0713749" lon="-105.229789">
  <ele>1583.0</ele>
  <time>2026-08-28T17:53:05Z</time>
  <course>0.0</course>
  <speed>0.0</speed>
  <fix>3d</fix>
</trkpt>
<trkpt lat="40.0713749" lon="-105.229789">
  <ele>1583.0</ele>
  <time>2026-08-28T17:53:05Z</time>
  <course>248.06</course>
  <speed>0.022360679774997897</speed>
  <fix>3d</fix>
</trkpt>
<trkpt lat="40.0713749" lon="-105.229789">
  <ele>1583.0</ele>
  <time>2026-08-28T17:53:05Z</time>
  <course>0.0</course>
  <speed>0.0</speed>
  <fix>3d</fix>
</trkpt>
<trkpt lat="40.0713749" lon="-105.229789">
  <ele>1583.0</ele>
  <time>2026-08-28T17:53:05Z</time>
  <course>248.05</course>
  <speed>0.022360679774997897</speed>
  <fix>3d</fix>
</trkpt>
<trkpt lat="40.0713749" lon="-105.229789">
  <ele>1583.0</ele>
  <time>2026-08-28T17:53:05Z</time>
  <course>0.0</course>
  <speed>0.0</speed>
  <fix>3d</fix>
</trkpt>
<trkpt lat="40.0713749" lon="-105.229789">
  <ele>1583.0</ele>
  <time>2026-08-28T17:53:05Z</time>
  <course>248.05</course>
  <speed>0.022360679774997897</speed>
  <fix>3d</fix>
</trkpt>
<trkpt lat="40.0713749" lon="-105.229789">
  <ele>1583.0</ele>
  <time>2026-08-28T17:53:05Z</time>
  <course>0.0</course>
  <speed>0.0</speed>
  <fix>3d</fix>
</trkpt>
<trkpt lat="40.0713749" lon="-105.229789">
  <ele>1583.0</ele>
  <time>2026-08-28T17:53:05Z</time>
  <course>248.05</course>
  <speed>0.022360679774997897</speed>
  <fix>3d</fix>
</trkpt>
<trkpt lat="40.0713749" lon="-105.229789">
  <ele>1583.0</ele>
  <time>2026-08-28T17:53:05Z</time>
  <course>0.0</course>
  <speed>0.0</speed>
  <fix>3d</fix>
</trkpt>
<trkpt lat="40.0713749" lon="-105.229789">
  <ele>1583.0</ele>
  <time>2026-08-28T17:53:05Z</time>
  <course>248.04</course>
  <speed>0.022360679774997897</speed>
  <fix>3d</fix>
</trkpt>
<trkpt lat="40.0713749" lon="-105.229789">
  <ele>1583.0</ele>
  <time>2026-08-28T17:53:05Z</time>
  <course>0.0</course>
  <speed>0.0</speed>
  <fix>3d</fix>
</trkpt>
<trkpt lat="40.0713749" lon="-105.229789">
  <ele>1583.0</ele>
  <time>2026-08-28T17:53:05Z</time>
  <course>248.04</course>
  <speed>0.022360679774997897</speed>
  <fix>3d</fix>
</trkpt>
<trkpt lat="40.0713749" lon="-105.229789">
  <ele>1583.0</ele>
  <time>2026-08-28T17:53:05Z</time>
  <course>0.0</course>
  <speed>0.0</speed>
  <fix>3d</fix>
</trkpt>
<trkpt lat="40.0713749" lon="-105.229789">
  <ele>1583.0</ele>
  <time>2026-08-28T17:53:05Z</time>
  <course>248.03</course>
  <speed>0.022360679774997897</speed>
  <fix>3d</fix>
</trkpt>
<trkpt lat="40.0713749" lon="-105.229789">
  <ele>1583.0</ele>
  <time>2026-08-28T17:53:05Z</time>
  <course>0.0</course>
  <speed>0.0</speed>
  <fix>3d</fix>
</trkpt>
<trkpt lat="40.0713749" lon="-105.229789">
  <ele>1583.0</ele>
  <time>2026-08-28T17:53:05Z</time>
  <course>248.03</course>
  <speed>0.022360679774997897</speed>
  <fix>3d</fix>
</trkpt>
<trkpt lat="40.0713749" lon="-105.229789">
  <ele>1583.0</ele>
  <time>2026-08-28T17:53:05Z</time>
  <course>0.0</course>
  <speed>0.0</speed>
  <fix>3d</fix>
</trkpt>
<trkpt lat="40.0713749" lon="-105.229789">
  <ele>1583.0</ele>
  <time>2026-08-28T17:53:05Z</time>
  <course>248.02</course>
  <speed>0.022360679774997897</speed>
  <fix>3d</fix>
</trkpt>
<trkpt lat="40.0713749" lon="-105.229789">
  <ele>1583.0</ele>
  <time>2026-08-28T17:53:05Z</time>
  <course>0.0</course>
  <speed>0.0</speed>
  <fix>3d</fix>
</trkpt>
<trkpt lat="40.0713749" lon="-105.229789">
  <ele>1583.0</ele>
  <time>2026-08-28T17:53:05Z</time>
  <course>248.02</course>
  <speed>0.022360679774997897</speed>
  <fix>3d</fix>
</trkpt>
<trkpt lat="40.0713749" lon="-105.229789">
  <ele>1583.0</ele>
  <time>2026-08-28T17:53:05Z</time>
  <course>0.0</course>
  <speed>0.0</speed>
  <fix>3d</fix>
</trkpt>
<trkpt lat="40.0713749" lon="-105.229789">
  <ele>1583.0</ele>
  <time>2026-08-28T17:53:05Z</time>
  <course>248.01</course>
  <speed>0.022360679774997897</speed>
  <fix>3d</fix>
</trkpt>
<trkpt lat="40.0713749" lon="-105.229789">
  <ele>1583.0</ele>
  <time>2026-08-28T17:53:05Z</time>
  <course>0.0</course>
  <speed>0.0</speed>
  <fix>3d</fix>
</trkpt>
<trkpt lat="40.0713749" lon="-105.229789">
  <ele>1583.0</ele>
  <time>2026-08-28T17:53:05Z</time>
  <course>248.01</course>
  <speed>0.022360679774997897</speed>
  <fix>3d</fix>
</trkpt>
<trkpt lat="40.0713749" lon="-105.229789">
  <ele>1583.0</ele>
  <time>2026-08-28T17:53:05Z</time>
  <course>0.0</course>
  <speed>0.0</speed>
  <fix>3d</fix>
</trkpt>
<trkpt lat="40.0713749" lon="-105.229789">
  <ele>1583.0</ele>
  <time>2026-08-28T17:53:05Z</time>
  <course>248.0</course>
  <speed>0.022360679774997897</speed>
  <fix>3d</fix>
</trkpt>
<trkpt lat="40.0713749" lon="-105.229789">
  <ele>1583.0</ele>
  <time>2026-08-28T17:53:05Z</time>
  <course>0.0</course>
  <speed>0.0</speed>
  <fix>3d</fix>
</trkpt>
<trkpt lat="40.0713749" lon="-105.229789">
  <ele>1583.0</ele>
  <time>2026-08-28T17:53:05Z</time>
  <course>248.0</course>
  <speed>0.022360679774997897</speed>
  <fix>3d</fix>
</trkpt>
<trkpt lat="40.0713749" lon="-105.229789">
  <ele>1583.0</ele>
  <time>2026-08-28T17:53:05Z</time>
  <course>0.0</course>
  <speed>0.0</speed>
  <fix>3d</fix>
</trkpt>
<trkpt lat="40.0713749" lon="-105.229789">
  <ele>1583.0</ele>
  <time>2026-08-28T17:53:05Z</time>
  <course>247.99</course>
  <speed>0.022360679774997897</speed>
  <fix>3d</fix>
</trkpt>
<trkpt lat="40.0713749" lon="-105.229789">
  <ele>1583.0</ele>
  <time>2026-08-28T17:53:05Z</time>
  <course>0.0</course>
  <speed>0.0</speed>
  <fix>3d</fix>
</trkpt>
<trkpt lat="40.0713749" lon="-105.229789">
  <ele>1583.0</ele>
  <time>2026-08-28T17:53:05Z</time>
  <course>247.99</course>
  <speed>0.022360679774997897</speed>
  <fix>3d</fix>
</trkpt>
<trkpt lat="40.0713749" lon="-105.229789">
  <ele>1583.0</ele>
  <time>2026-08-28T17:53:05Z</time>
  <course>0.0</course>
  <speed>0.0</speed>
  <fix>3d</fix>
</trkpt>
<trkpt lat="40.0713749" lon="-105.229789">
  <ele>1583.0</ele>
  <time>2026-08-28T17:53:05Z</time>
  <course>247.99</course>
  <speed>0.022360679774997897</speed>
  <fix>3d</fix>
</trkpt>
<trkpt lat="40.0713749" lon="-105.229789">
  <ele>1583.0</ele>
  <time>2026-08-28T17:53:05Z</time>
  <course>0.0</course>
  <speed>0.0</speed>
  <fix>3d</fix>
</trkpt>
<trkpt lat="40.0713749" lon="-105.229789">
  <ele>1583.0</ele>
  <time>2026-08-28T17:53:05Z</time>
  <course>247.98</course>
  <speed>0.022360679774997897</speed>
  <fix>3d</fix>
</trkpt>
<trkpt lat="40.0713749" lon="-105.229789">
  <ele>1583.0</ele>
  <time>2026-08-28T17:53:05Z</time>
  <course>0.0</course>
  <speed>0.0</speed>
  <fix>3d</fix>
</trkpt>
<trkpt lat="40.0713749" lon="-105.229789">
  <ele>1583.0</ele>
  <time>2026-08-28T17:53:05Z</time>
  <course>247.98</course>
  <speed>0.022360679774997897</speed>
  <fix>3d</fix>
</trkpt>
<trkpt lat="40.0713749" lon="-105.229789">
  <ele>1583.0</ele>
  <time>2026-08-28T17:53:05Z</time>
  <course>0.0</course>
  <speed>0.0</speed>
  <fix>3d</fix>
</trkpt>
<trkpt lat="40.0713749" lon="-105.229789">
  <ele>1583.0</ele>
  <time>2026-08-28T17:53:05Z</time>
  <course>247.97</course>
  <speed>0.022360679774997897</speed>
  <fix>3d</fix>
</trkpt>
<trkpt lat="40.0713749" lon="-105.229789">
  <ele>1583.0</ele>
  <time>2026-08-28T17:53:05Z</time>
  <course>0.0</course>
  <speed>0.0</speed>
  <fix>3d</fix>
</trkpt>
<trkpt lat="40.0713749" lon="-105.229789">
  <ele>1583.0</ele>
  <time>2026-08-28T17:53:05Z</time>
  <course>247.97</course>
  <speed>0.022360679774997897</speed>
  <fix>3d</fix>
</trkpt>
<trkpt lat="40.0713749" lon="-105.229789">
  <ele>1583.0</ele>
  <time>2026-08-28T17:53:05Z</time>
  <course>0.0</course>
  <speed>0.0</speed>
  <fix>3d</fix>
</trkpt>
<trkpt lat="40.0713749" lon="-105.229789">
  <ele>1583.0</ele>
  <time>2026-08-28T17:53:05Z</time>
  <course>247.96</course>
  <speed>0.022360679774997897</speed>
  <fix>3d</fix>
</trkpt>
<trkpt lat="40.0713749" lon="-105.229789">
  <ele>1583.0</ele>
  <time>2026-08-28T17:53:05Z</time>
  <course>0.0</course>
  <speed>0.0</speed>
  <fix>3d</fix>
</trkpt>
<trkpt lat="40.0713749" lon="-105.229789">
  <ele>1583.0</ele>
  <time>2026-08-28T17:53:05Z</time>
  <course>247.96</course>
  <speed>0.022360679774997897</speed>
  <fix>3d</fix>
</trkpt>
<trkpt lat="40.0713749" lon="-105.229789">
  <ele>1583.0</ele>
  <time>2026-08-28T17:53:05Z</time>
  <course>0.0</course>
  <speed>0.0</speed>
  <fix>3d</fix>
</trkpt>
<trkpt lat="40.0713749" lon="-105.229789">
  <ele>1583.0</ele>
  <time>2026-08-28T17:53:05Z</time>
  <course>247.95</course>
  <speed>0.022360679774997897</speed>
  <fix>3d</fix>
</trkpt>
<trkpt lat="40.0713749" lon="-105.229789">
  <ele>1583.0</ele>
  <time>2026-08-28T17:53:05Z</time>
  <course>0.0</course>
  <speed>0.0</speed>
  <fix>3d</fix>
</trkpt>
<trkpt lat="40.0713749" lon="-105.229789">
  <ele>1583.0</ele>
  <time>2026-08-28T17:53:05Z</time>
  <course>247.95</course>
  <speed>0.022360679774997897</speed>
  <fix>3d</fix>
</trkpt>
<trkpt lat="40.0713749" lon="-105.229789">
  <ele>1583.0</ele>
  <time>2026-08-28T17:53:05Z</time>
  <course>0.0</course>
  <speed>0.0</speed>
  <fix>3d</fix>
</trkpt>
<trkpt lat="40.0713749" lon="-105.229789">
  <ele>1583.0</ele>
  <time>2026-08-28T17:53:05Z</time>
  <course>247.95</course>
  <speed>0.022360679774997897</speed>
  <fix>3d</fix>
</trkpt>
<trkpt lat="40.0713749" lon="-105.229789">
  <ele>1583.0</ele>
  <time>2026-08-28T17:53:05Z</time>
  <course>0.0</course>
  <speed>0.0</speed>
  <fix>3d</fix>
</trkpt>
<trkpt lat="40.0713749" lon="-105.229789">
  <ele>1583.0</ele>
  <time>2026-08-28T17:53:05Z</time>
  <course>247.94</course>
  <speed>0.022360679774997897</speed>
  <fix>3d</fix>
</trkpt>
<trkpt lat="40.0713749" lon="-105.229789">
  <ele>1583.0</ele>
  <time>2026-08-28T17:53:05Z</time>
  <course>0.0</course>
  <speed>0.0</speed>
  <fix>3d</fix>
</trkpt>
<trkpt lat="40.0713749" lon="-105.229789">
  <ele>1583.0</ele>
  <time>2026-08-28T17:53:05Z</time>
  <course>247.94</course>
  <speed>0.022360679774997897</speed>
  <fix>3d</fix>
</trkpt>
<trkpt lat="40.0713749" lon="-105.229789">
  <ele>1583.0</ele>
  <time>2026-08-28T17:53:05Z</time>
  <course>0.0</course>
  <speed>0.0</speed>
  <fix>3d</fix>
</trkpt>
<trkpt lat="40.0713749" lon="-105.229789">
  <ele>1583.0</ele>
  <time>2026-08-28T17:53:05Z</time>
  <course>247.93</course>
  <speed>0.022360679774997897</speed>
  <fix>3d</fix>
</trkpt>
<trkpt lat="40.0713749" lon="-105.229789">
  <ele>1583.0</ele>
  <time>2026-08-28T17:53:05Z</time>
  <course>0.0</course>
  <speed>0.0</speed>
  <fix>3d</fix>
</trkpt>
<trkpt lat="40.0713749" lon="-105.229789">
  <ele>1583.0</ele>
  <time>2026-08-28T17:53:05Z</time>
  <course>247.93</course>
  <speed>0.022360679774997897</speed>
  <fix>3d</fix>
</trkpt>
<trkpt lat="40.0713749" lon="-105.229789">
  <ele>1583.0</ele>
  <time>2026-08-28T17:53:05Z</time>
  <course>0.0</course>
  <speed>0.0</speed>
  <fix>3d</fix>
</trkpt>
<trkpt lat="40.0713749" lon="-105.229789">
  <ele>1583.0</ele>
  <time>2026-08-28T17:53:05Z</time>
  <course>247.92</course>
  <speed>0.022360679774997897</speed>
  <fix>3d</fix>
</trkpt>
<trkpt lat="40.0713749" lon="-105.229789">
  <ele>1583.0</ele>
  <time>2026-08-28T17:53:05Z</time>
  <course>0.0</course>
  <speed>0.0</speed>
  <fix>3d</fix>
</trkpt>
<trkpt lat="40.0713749" lon="-105.229789">
  <ele>1583.0</ele>
  <time>2026-08-28T17:53:05Z</time>
  <course>247.92</course>
  <speed>0.022360679774997897</speed>
  <fix>3d</fix>
</trkpt>
<trkpt lat="40.0713749" lon="-105.229789">
  <ele>1583.0</ele>
  <time>2026-08-28T17:53:05Z</time>
  <course>0.0</course>
  <speed>0.0</speed>
  <fix>3d</fix>
</trkpt>
<trkpt lat="40.0713749" lon="-105.229789">
  <ele>1583.0</ele>
  <time>2026-08-28T17:53:05Z</time>
  <course>247.92</course>
  <speed>0.022360679774997897</speed>
  <fix>3d</fix>
</trkpt>
<trkpt lat="40.0713749" lon="-105.229789">
  <ele>1583.0</ele>
  <time>2026-08-28T17:53:05Z</time>
  <course>0.0</course>
  <speed>0.0</speed>
  <fix>3d</fix>
</trkpt>
<trkpt lat="40.0713749" lon="-105.229789">
  <ele>1583.0</ele>
  <time>2026-08-28T17:53:05Z</time>
  <course>247.91</course>
  <speed>0.022360679774997897</speed>
  <fix>3d</fix>
</trkpt>
<trkpt lat="40.0713749" lon="-105.229789">
  <ele>1583.0</ele>
  <time>2026-08-28T17:53:05Z</time>
  <course>0.0</course>
  <speed>0.0</speed>
  <fix>3d</fix>
</trkpt>
<trkpt lat="40.0713749" lon="-105.229789">
  <ele>1583.0</ele>
  <time>2026-08-28T17:53:05Z</time>
  <course>247.91</course>
  <speed>0.022360679774997897</speed>
  <fix>3d</fix>
</trkpt>
<trkpt lat="40.0713749" lon="-105.229789">
  <ele>1583.0</ele>
  <time>2026-08-28T17:53:05Z</time>
  <course>0.0</course>
  <speed>0.0</speed>
  <fix>3d</fix>
</trkpt>
<trkpt lat="40.0713749" lon="-105.229789">
  <ele>1583.0</ele>
  <time>2026-08-28T17:53:05Z</time>
  <course>247.9</course>
  <speed>0.022360679774997897</speed>
  <fix>3d</fix>
</trkpt>
<trkpt lat="40.0713749" lon="-105.229789">
  <ele>1583.0</ele>
  <time>2026-08-28T17:53:05Z</time>
  <course>0.0</course>
  <speed>0.0</speed>
  <fix>3d</fix>
</trkpt>
<trkpt lat="40.0713749" lon="-105.229789">
  <ele>1583.0</ele>
  <time>2026-08-28T17:53:05Z</time>
  <course>247.9</course>
  <speed>0.022360679774997897</speed>
  <fix>3d</fix>
</trkpt>
<trkpt lat="40.0713749" lon="-105.229789">
  <ele>1583.0</ele>
  <time>2026-08-28T17:53:05Z</time>
  <course>0.0</course>
  <speed>0.0</speed>
  <fix>3d</fix>
</trkpt>
<trkpt lat="40.0713749" lon="-105.229789">
  <ele>1583.0</ele>
  <time>2026-08-28T17:53:05Z</time>
  <course>247.89</course>
  <speed>0.022360679774997897</speed>
  <fix>3d</fix>
</trkpt>
<trkpt lat="40.0713749" lon="-105.229789">
  <ele>1583.0</ele>
  <time>2026-08-28T17:53:05Z</time>
  <course>0.0</course>
  <speed>0.0</speed>
  <fix>3d</fix>
</trkpt>
<trkpt lat="40.0713749" lon="-105.229789">
  <ele>1583.0</ele>
  <time>2026-08-28T17:53:05Z</time>
  <course>247.89</course>
  <speed>0.022360679774997897</speed>
  <fix>3d</fix>
</trkpt>
<trkpt lat="40.0713749" lon="-105.229789">
  <ele>1583.0</ele>
  <time>2026-08-28T17:53:05Z</time>
  <course>0.0</course>
  <speed>0.0</speed>
  <fix>3d</fix>
</trkpt>
<trkpt lat="40.0713749" lon="-105.229789">
  <ele>1583.0</ele>
  <time>2026-08-28T17:53:05Z</time>
  <course>247.89</course>
  <speed>0.022360679774997897</speed>
  <fix>3d</fix>
</trkpt>
<trkpt lat="40.0713749" lon="-105.229789">
  <ele>1583.0</ele>
  <time>2026-08-28T17:53:05Z</time>
  <course>0.0</course>
  <speed>0.0</speed>
  <fix>3d</fix>
</trkpt>
<trkpt lat="40.0713749" lon="-105.229789">
  <ele>1583.0</ele>
  <time>2026-08-28T17:53:05Z</time>
  <course>247.88</course>
  <speed>0.0316227766016838</speed>
  <fix>3d</fix>
</trkpt>
<trkpt lat="40.0713749" lon="-105.229789">
  <ele>1583.0</ele>
  <time>2026-08-28T17:53:05Z</time>
  <course>0.0</course>
  <speed>0.0</speed>
  <fix>3d</fix>
</trkpt>
<trkpt lat="40.0713749" lon="-105.229789">
  <ele>1583.0</ele>
  <time>2026-08-28T17:53:05Z</time>
  <course>247.88</course>
  <speed>0.0316227766016838</speed>
  <fix>3d</fix>
</trkpt>
<trkpt lat="40.0713749" lon="-105.229789">
  <ele>1583.0</ele>
  <time>2026-08-28T17:53:05Z</time>
  <course>0.0</course>
  <speed>0.0</speed>
  <fix>3d</fix>
</trkpt>
<trkpt lat="40.0713749" lon="-105.229789">
  <ele>1583.0</ele>
  <time>2026-08-28T17:53:05Z</time>
  <course>247.87</course>
  <speed>0.0316227766016838</speed>
  <fix>3d</fix>
</trkpt>
<trkpt lat="40.0713749" lon="-105.229789">
  <ele>1583.0</ele>
  <time>2026-08-28T17:53:05Z</time>
  <course>0.0</course>
  <speed>0.0</speed>
  <fix>3d</fix>
</trkpt>
<trkpt lat="40.0713749" lon="-105.229789">
  <ele>1583.0</ele>
  <time>2026-08-28T17:53:05Z</time>
  <course>247.87</course>
  <speed>0.0316227766016838</speed>
  <fix>3d</fix>
</trkpt>
<trkpt lat="40.0713749" lon="-105.229789">
  <ele>1583.0</ele>
  <time>2026-08-28T17:53:05Z</time>
  <course>0.0</course>
  <speed>0.0</speed>
  <fix>3d</fix>
</trkpt>
<trkpt lat="40.0713749" lon="-105.229789">
  <ele>1583.0</ele>
  <time>2026-08-28T17:53:05Z</time>
  <course>247.87</course>
  <speed>0.0316227766016838</speed>
  <fix>3d</fix>
</trkpt>
<trkpt lat="40.0713749" lon="-105.229789">
  <ele>1583.0</ele>
  <time>2026-08-28T17:53:05Z</time>
  <course>0.0</course>
  <speed>0.0</speed>
  <fix>3d</fix>
</trkpt>
<trkpt lat="40.0713749" lon="-105.229789">
  <ele>1583.0</ele>
  <time>2026-08-28T17:53:05Z</time>
  <course>247.86</course>
  <speed>0.0316227766016838</speed>
  <fix>3d</fix>
</trkpt>
<trkpt lat="40.0713749" lon="-105.229789">
  <ele>1583.0</ele>
  <time>2026-08-28T17:53:05Z</time>
  <course>0.0</course>
  <speed>0.0</speed>
  <fix>3d</fix>
</trkpt>
<trkpt lat="40.0713749" lon="-105.229789">
  <ele>1583.0</ele>
  <time>2026-08-28T17:53:05Z</time>
  <course>247.86</course>
  <speed>0.0316227766016838</speed>
  <fix>3d</fix>
</trkpt>
<trkpt lat="40.0713749" lon="-105.229789">
  <ele>1583.0</ele>
  <time>2026-08-28T17:53:05Z</time>
  <course>0.0</course>
  <speed>0.0</speed>
  <fix>3d</fix>
</trkpt>
<trkpt lat="40.0713749" lon="-105.229789">
  <ele>1583.0</ele>
  <time>2026-08-28T17:53:05Z</time>
  <course>247.85</course>
  <speed>0.0316227766016838</speed>
  <fix>3d</fix>
</trkpt>
<trkpt lat="40.0713749" lon="-105.229789">
  <ele>1583.0</ele>
  <time>2026-08-28T17:53:05Z</time>
  <course>0.0</course>
  <speed>0.0</speed>
  <fix>3d</fix>
</trkpt>
<trkpt lat="40.0713749" lon="-105.229789">
  <ele>1583.0</ele>
  <time>2026-08-28T17:53:05Z</time>
  <course>247.85</course>
  <speed>0.0316227766016838</speed>
  <fix>3d</fix>
</trkpt>
<trkpt lat="40.0713749" lon="-105.229789">
  <ele>1583.0</ele>
  <time>2026-08-28T17:53:05Z</time>
  <course>0.0</course>
  <speed>0.0</speed>
  <fix>3d</fix>
</trkpt>
<trkpt lat="40.0713749" lon="-105.229789">
  <ele>1583.0</ele>
  <time>2026-08-28T17:53:05Z</time>
  <course>247.85</course>
  <speed>0.0316227766016838</speed>
  <fix>3d</fix>
</trkpt>
<trkpt lat="40.0713749" lon="-105.229789">
  <ele>1583.0</ele>
  <time>2026-08-28T17:53:05Z</time>
  <course>0.0</course>
  <speed>0.0</speed>
  <fix>3d</fix>
</trkpt>
<trkpt lat="40.0713749" lon="-105.229789">
  <ele>1583.0</ele>
  <time>2026-08-28T17:53:05Z</time>
  <course>247.84</course>
  <speed>0.0316227766016838</speed>
  <fix>3d</fix>
</trkpt>
<trkpt lat="40.0713749" lon="-105.229789">
  <ele>1583.0</ele>
  <time>2026-08-28T17:53:05Z</time>
  <course>0.0</course>
  <speed>0.0</speed>
  <fix>3d</fix>
</trkpt>
<trkpt lat="40.0713749" lon="-105.229789">
  <ele>1583.0</ele>
  <time>2026-08-28T17:53:05Z</time>
  <course>247.84</course>
  <speed>0.0316227766016838</speed>
  <fix>3d</fix>
</trkpt>
<trkpt lat="40.0713749" lon="-105.229789">
  <ele>1583.0</ele>
  <time>2026-08-28T17:53:05Z</time>
  <course>0.0</course>
  <speed>0.0</speed>
  <fix>3d</fix>
</trkpt>
<trkpt lat="40.0713749" lon="-105.229789">
  <ele>1583.0</ele>
  <time>2026-08-28T17:53:05Z</time>
  <course>247.83</course>
  <speed>0.0316227766016838</speed>
  <fix>3d</fix>
</trkpt>
<trkpt lat="40.0713749" lon="-105.229789">
  <ele>1583.0</ele>
  <time>2026-08-28T17:53:05Z</time>
  <course>0.0</course>
  <speed>0.0</speed>
  <fix>3d</fix>
</trkpt>
<trkpt lat="40.0713749" lon="-105.229789">
  <ele>1583.0</ele>
  <time>2026-08-28T17:53:05Z</time>
  <course>247.83</course>
  <speed>0.0316227766016838</speed>
  <fix>3d</fix>
</trkpt>
<trkpt lat="40.0713749" lon="-105.229789">
  <ele>1583.0</ele>
  <time>2026-08-28T17:53:05Z</time>
  <course>0.0</course>
  <speed>0.0</speed>
  <fix>3d</fix>
</trkpt>
<trkpt lat="40.0713749" lon="-105.229789">
  <ele>1583.0</ele>
  <time>2026-08-28T17:53:05Z</time>
  <course>247.83</course>
  <speed>0.0316227766016838</speed>
  <fix>3d</fix>
</trkpt>
<trkpt lat="40.0713749" lon="-105.229789">
  <ele>1583.0</ele>
  <time>2026-08-28T17:53:05Z</time>
  <course>0.0</course>
  <speed>0.0</speed>
  <fix>3d</fix>
</trkpt>
<trkpt lat="40.0713749" lon="-105.229789">
  <ele>1583.0</ele>
  <time>2026-08-28T17:53:05Z</time>
  <course>247.82</course>
  <speed>0.0316227766016838</speed>
  <fix>3d</fix>
</trkpt>
<trkpt lat="40.0713749" lon="-105.229789">
  <ele>1583.0</ele>
  <time>2026-08-28T17:53:05Z</time>
  <course>0.0</course>
  <speed>0.0</speed>
  <fix>3d</fix>
</trkpt>
<trkpt lat="40.0713749" lon="-105.229789">
  <ele>1583.0</ele>
  <time>2026-08-28T17:53:05Z</time>
  <course>247.82</course>
  <speed>0.0316227766016838</speed>
  <fix>3d</fix>
</trkpt>
<trkpt lat="40.0713749" lon="-105.229789">
  <ele>1583.0</ele>
  <time>2026-08-28T17:53:05Z</time>
  <course>0.0</course>
  <speed>0.0</speed>
  <fix>3d</fix>
</trkpt>
<trkpt lat="40.0713749" lon="-105.229789">
  <ele>1583.0</ele>
  <time>2026-08-28T17:53:05Z</time>
  <course>247.82</course>
  <speed>0.0316227766016838</speed>
  <fix>3d</fix>
</trkpt>
<trkpt lat="40.0713749" lon="-105.229789">
  <ele>1583.0</ele>
  <time>2026-08-28T17:53:05Z</time>
  <course>0.0</course>
  <speed>0.0</speed>
  <fix>3d</fix>
</trkpt>
<trkpt lat="40.0713749" lon="-105.229789">
  <ele>1583.0</ele>
  <time>2026-08-28T17:53:05Z</time>
  <course>247.81</course>
  <speed>0.0316227766016838</speed>
  <fix>3d</fix>
</trkpt>
<trkpt lat="40.0713749" lon="-105.229789">
  <ele>1583.0</ele>
  <time>2026-08-28T17:53:05Z</time>
  <course>0.0</course>
  <speed>0.0</speed>
  <fix>3d</fix>
</trkpt>
<trkpt lat="40.0713749" lon="-105.229789">
  <ele>1583.0</ele>
  <time>2026-08-28T17:53:05Z</time>
  <course>247.81</course>
  <speed>0.0316227766016838</speed>
  <fix>3d</fix>
</trkpt>
<trkpt lat="40.0713749" lon="-105.229789">
  <ele>1583.0</ele>
  <time>2026-08-28T17:53:05Z</time>
  <course>0.0</course>
  <speed>0.0</speed>
  <fix>3d</fix>
</trkpt>
<trkpt lat="40.0713749" lon="-105.229789">
  <ele>1583.0</ele>
  <time>2026-08-28T17:53:05Z</time>
  <course>247.8</course>
  <speed>0.0316227766016838</speed>
  <fix>3d</fix>
</trkpt>
<trkpt lat="40.0713749" lon="-105.229789">
  <ele>1583.0</ele>
  <time>2026-08-28T17:53:05Z</time>
  <course>0.0</course>
  <speed>0.0</speed>
  <fix>3d</fix>
</trkpt>
<trkpt lat="40.0713749" lon="-105.229789">
  <ele>1583.0</ele>
  <time>2026-08-28T17:53:05Z</time>
  <course>247.8</course>
  <speed>0.0316227766016838</speed>
  <fix>3d</fix>
</trkpt>
<trkpt lat="40.0713749" lon="-105.229789">
  <ele>1583.0</ele>
  <time>2026-08-28T17:53:05Z</time>
  <course>0.0</course>
  <speed>0.0</speed>
  <fix>3d</fix>
</trkpt>
<trkpt lat="40.0713749" lon="-105.229789">
  <ele>1583.0</ele>
  <time>2026-08-28T17:53:05Z</time>
  <course>247.8</course>
  <speed>0.0316227766016838</speed>
  <fix>3d</fix>
</trkpt>
<trkpt lat="40.0713749" lon="-105.229789">
  <ele>1583.0</ele>
  <time>2026-08-28T17:53:05Z</time>
  <course>0.0</course>
  <speed>0.0</speed>
  <fix>3d</fix>
</trkpt>
<trkpt lat="40.0713749" lon="-105.229789">
  <ele>1583.0</ele>
  <time>2026-08-28T17:53:05Z</time>
  <course>247.79</course>
  <speed>0.0316227766016838</speed>
  <fix>3d</fix>
</trkpt>
<trkpt lat="40.0713749" lon="-105.229789">
  <ele>1583.0</ele>
  <time>2026-08-28T17:53:05Z</time>
  <course>0.0</course>
  <speed>0.0</speed>
  <fix>3d</fix>
</trkpt>
<trkpt lat="40.0713749" lon="-105.229789">
  <ele>1583.0</ele>
  <time>2026-08-28T17:53:05Z</time>
  <course>247.79</course>
  <speed>0.0316227766016838</speed>
  <fix>3d</fix>
</trkpt>
<trkpt lat="40.0713749" lon="-105.229789">
  <ele>1583.0</ele>
  <time>2026-08-28T17:53:05Z</time>
  <course>0.0</course>
  <speed>0.0</speed>
  <fix>3d</fix>
</trkpt>
<trkpt lat="40.0713749" lon="-105.229789">
  <ele>1583.0</ele>
  <time>2026-08-28T17:53:05Z</time>
  <course>247.79</course>
  <speed>0.0316227766016838</speed>
  <fix>3d</fix>
</trkpt>
<trkpt lat="40.0713749" lon="-105.229789">
  <ele>1583.0</ele>
  <time>2026-08-28T17:53:05Z</time>
  <course>0.0</course>
  <speed>0.0</speed>
  <fix>3d</fix>
</trkpt>
<trkpt lat="40.0713749" lon="-105.229789">
  <ele>1583.0</ele>
  <time>2026-08-28T17:53:05Z</time>
  <course>247.78</course>
  <speed>0.0316227766016838</speed>
  <fix>3d</fix>
</trkpt>
<trkpt lat="40.0713749" lon="-105.229789">
  <ele>1583.0</ele>
  <time>2026-08-28T17:53:05Z</time>
  <course>0.0</course>
  <speed>0.0</speed>
  <fix>3d</fix>
</trkpt>
<trkpt lat="40.0713749" lon="-105.229789">
  <ele>1583.0</ele>
  <time>2026-08-28T17:53:05Z</time>
  <course>247.78</course>
  <speed>0.0316227766016838</speed>
  <fix>3d</fix>
</trkpt>
<trkpt lat="40.0713749" lon="-105.229789">
  <ele>1583.0</ele>
  <time>2026-08-28T17:53:05Z</time>
  <course>0.0</course>
  <speed>0.0</speed>
  <fix>3d</fix>
</trkpt>
<trkpt lat="40.0713749" lon="-105.229789">
  <ele>1583.0</ele>
  <time>2026-08-28T17:53:05Z</time>
  <course>247.78</course>
  <speed>0.0316227766016838</speed>
  <fix>3d</fix>
</trkpt>
<trkpt lat="40.0713749" lon="-105.229789">
  <ele>1583.0</ele>
  <time>2026-08-28T17:53:05Z</time>
  <course>0.0</course>
  <speed>0.0</speed>
  <fix>3d</fix>
</trkpt>
<trkpt lat="40.0713749" lon="-105.229789">
  <ele>1583.0</ele>
  <time>2026-08-28T17:53:05Z</time>
  <course>247.77</course>
  <speed>0.0316227766016838</speed>
  <fix>3d</fix>
</trkpt>
<trkpt lat="40.0713749" lon="-105.229789">
  <ele>1583.0</ele>
  <time>2026-08-28T17:53:05Z</time>
  <course>0.0</course>
  <speed>0.0</speed>
  <fix>3d</fix>
</trkpt>
<trkpt lat="40.0713749" lon="-105.229789">
  <ele>1583.0</ele>
  <time>2026-08-28T17:53:05Z</time>
  <course>247.77</course>
  <speed>0.0316227766016838</speed>
  <fix>3d</fix>
</trkpt>
<trkpt lat="40.0713749" lon="-105.229789">
  <ele>1583.0</ele>
  <time>2026-08-28T17:53:05Z</time>
  <course>0.0</course>
  <speed>0.0</speed>
  <fix>3d</fix>
</trkpt>
<trkpt lat="40.0713749" lon="-105.229789">
  <ele>1583.0</ele>
  <time>2026-08-28T17:53:05Z</time>
  <course>247.76</course>
  <speed>0.0316227766016838</speed>
  <fix>3d</fix>
</trkpt>
<trkpt lat="40.0713749" lon="-105.229789">
  <ele>1583.0</ele>
  <time>2026-08-28T17:53:05Z</time>
  <course>0.0</course>
  <speed>0.0</speed>
  <fix>3d</fix>
</trkpt>
<trkpt lat="40.0713749" lon="-105.229789">
  <ele>1583.0</ele>
  <time>2026-08-28T17:53:05Z</time>
  <course>247.76</course>
  <speed>0.0316227766016838</speed>
  <fix>3d</fix>
</trkpt>
<trkpt lat="40.0713749" lon="-105.229789">
  <ele>1583.0</ele>
  <time>2026-08-28T17:53:05Z</time>
  <course>0.0</course>
  <speed>0.0</speed>
  <fix>3d</fix>
</trkpt>
<trkpt lat="40.0713749" lon="-105.229789">
  <ele>1583.0</ele>
  <time>2026-08-28T17:53:05Z</time>
  <course>247.76</course>
  <speed>0.0316227766016838</speed>
  <fix>3d</fix>
</trkpt>
<trkpt lat="40.0713749" lon="-105.229789">
  <ele>1583.0</ele>
  <time>2026-08-28T17:53:05Z</time>
  <course>0.0</course>
  <speed>0.0</speed>
  <fix>3d</fix>
</trkpt>
<trkpt lat="40.0713749" lon="-105.229789">
  <ele>1583.0</ele>
  <time>2026-08-28T17:53:05Z</time>
  <course>247.75</course>
  <speed>0.0316227766016838</speed>
  <fix>3d</fix>
</trkpt>
<trkpt lat="40.0713749" lon="-105.229789">
  <ele>1583.0</ele>
  <time>2026-08-28T17:53:05Z</time>
  <course>0.0</course>
  <speed>0.0</speed>
  <fix>3d</fix>
</trkpt>
<trkpt lat="40.0713749" lon="-105.229789">
  <ele>1583.0</ele>
  <time>2026-08-28T17:53:05Z</time>
  <course>247.75</course>
  <speed>0.0316227766016838</speed>
  <fix>3d</fix>
</trkpt>
<trkpt lat="40.0713749" lon="-105.229789">
  <ele>1583.0</ele>
  <time>2026-08-28T17:53:05Z</time>
  <course>0.0</course>
  <speed>0.0</speed>
  <fix>3d</fix>
</trkpt>
<trkpt lat="40.0713749" lon="-105.229789">
  <ele>1583.0</ele>
  <time>2026-08-28T17:53:05Z</time>
  <course>247.75</course>
  <speed>0.0316227766016838</speed>
  <fix>3d</fix>
</trkpt>
<trkpt lat="40.0713749" lon="-105.229789">
  <ele>1583.0</ele>
  <time>2026-08-28T17:53:05Z</time>
  <course>0.0</course>
  <speed>0.0</speed>
  <fix>3d</fix>
</trkpt>
<trkpt lat="40.0713749" lon="-105.229789">
  <ele>1583.0</ele>
  <time>2026-08-28T17:53:05Z</time>
  <course>247.74</course>
  <speed>0.0316227766016838</speed>
  <fix>3d</fix>
</trkpt>
<trkpt lat="40.0713749" lon="-105.229789">
  <ele>1583.0</ele>
  <time>2026-08-28T17:53:05Z</time>
  <course>0.0</course>
  <speed>0.0</speed>
  <fix>3d</fix>
</trkpt>
<trkpt lat="40.0713749" lon="-105.229789">
  <ele>1583.0</ele>
  <time>2026-08-28T17:53:05Z</time>
  <course>247.74</course>
  <speed>0.0316227766016838</speed>
  <fix>3d</fix>
</trkpt>
<trkpt lat="40.0713749" lon="-105.229789">
  <ele>1583.0</ele>
  <time>2026-08-28T17:53:05Z</time>
  <course>0.0</course>
  <speed>0.0</speed>
  <fix>3d</fix>
</trkpt>
<trkpt lat="40.0713749" lon="-105.229789">
  <ele>1583.0</ele>
  <time>2026-08-28T17:53:05Z</time>
  <course>247.74</course>
  <speed>0.0316227766016838</speed>
  <fix>3d</fix>
</trkpt>
<trkpt lat="40.0713749" lon="-105.229789">
  <ele>1583.0</ele>
  <time>2026-08-28T17:53:05Z</time>
  <course>0.0</course>
  <speed>0.0</speed>
  <fix>3d</fix>
</trkpt>
<trkpt lat="40.0713749" lon="-105.229789">
  <ele>1583.0</ele>
  <time>2026-08-28T17:53:05Z</time>
  <course>247.73</course>
  <speed>0.0316227766016838</speed>
  <fix>3d</fix>
</trkpt>
<trkpt lat="40.0713749" lon="-105.229789">
  <ele>1583.0</ele>
  <time>2026-08-28T17:53:05Z</time>
  <course>0.0</course>
  <speed>0.0</speed>
  <fix>3d</fix>
</trkpt>
<trkpt lat="40.0713749" lon="-105.229789">
  <ele>1583.0</ele>
  <time>2026-08-28T17:53:05Z</time>
  <course>247.73</course>
  <speed>0.0316227766016838</speed>
  <fix>3d</fix>
</trkpt>
<trkpt lat="40.0713749" lon="-105.229789">
  <ele>1583.0</ele>
  <time>2026-08-28T17:53:05Z</time>
  <course>0.0</course>
  <speed>0.0</speed>
  <fix>3d</fix>
</trkpt>
<trkpt lat="40.0713749" lon="-105.229789">
  <ele>1583.0</ele>
  <time>2026-08-28T17:53:05Z</time>
  <course>247.73</course>
  <speed>0.0316227766016838</speed>
  <fix>3d</fix>
</trkpt>
<trkpt lat="40.0713749" lon="-105.229789">
  <ele>1583.0</ele>
  <time>2026-08-28T17:53:05Z</time>
  <course>0.0</course>
  <speed>0.0</speed>
  <fix>3d</fix>
</trkpt>
<trkpt lat="40.0713749" lon="-105.229789">
  <ele>1583.0</ele>
  <time>2026-08-28T17:53:05Z</time>
  <course>247.72</course>
  <speed>0.0316227766016838</speed>
  <fix>3d</fix>
</trkpt>
<trkpt lat="40.0713749" lon="-105.229789">
  <ele>1583.0</ele>
  <time>2026-08-28T17:53:05Z</time>
  <course>0.0</course>
  <speed>0.0</speed>
  <fix>3d</fix>
</trkpt>
<trkpt lat="40.0713749" lon="-105.229789">
  <ele>1583.0</ele>
  <time>2026-08-28T17:53:05Z</time>
  <course>247.72</course>
  <speed>0.0316227766016838</speed>
  <fix>3d</fix>
</trkpt>
<trkpt lat="40.0713749" lon="-105.229789">
  <ele>1583.0</ele>
  <time>2026-08-28T17:53:05Z</time>
  <course>0.0</course>
  <speed>0.0</speed>
  <fix>3d</fix>
</trkpt>
<trkpt lat="40.0713749" lon="-105.229789">
  <ele>1583.0</ele>
  <time>2026-08-28T17:53:05Z</time>
  <course>247.72</course>
  <speed>0.0316227766016838</speed>
  <fix>3d</fix>
</trkpt>
<trkpt lat="40.0713749" lon="-105.229789">
  <ele>1583.0</ele>
  <time>2026-08-28T17:53:05Z</time>
  <course>0.0</course>
  <speed>0.0</speed>
  <fix>3d</fix>
</trkpt>
<trkpt lat="40.0713749" lon="-105.229789">
  <ele>1583.0</ele>
  <time>2026-08-28T17:53:05Z</time>
  <course>247.71</course>
  <speed>0.0316227766016838</speed>
  <fix>3d</fix>
</trkpt>
<trkpt lat="40.0713749" lon="-105.229789">
  <ele>1583.0</ele>
  <time>2026-08-28T17:53:05Z</time>
  <course>0.0</course>
  <speed>0.0</speed>
  <fix>3d</fix>
</trkpt>
<trkpt lat="40.0713749" lon="-105.229789">
  <ele>1583.0</ele>
  <time>2026-08-28T17:53:05Z</time>
  <course>247.71</course>
  <speed>0.0316227766016838</speed>
  <fix>3d</fix>
</trkpt>
<trkpt lat="40.0713749" lon="-105.229789">
  <ele>1583.0</ele>
  <time>2026-08-28T17:53:05Z</time>
  <course>0.0</course>
  <speed>0.0</speed>
  <fix>3d</fix>
</trkpt>
<trkpt lat="40.0713749" lon="-105.229789">
  <ele>1583.0</ele>
  <time>2026-08-28T17:53:05Z</time>
  <course>247.71</course>
  <speed>0.0316227766016838</speed>
  <fix>3d</fix>
</trkpt>
<trkpt lat="40.0713749" lon="-105.229789">
  <ele>1583.0</ele>
  <time>2026-08-28T17:53:05Z</time>
  <course>0.0</course>
  <speed>0.0</speed>
  <fix>3d</fix>
</trkpt>
<trkpt lat="40.0713749" lon="-105.229789">
  <ele>1583.0</ele>
  <time>2026-08-28T17:53:05Z</time>
  <course>247.7</course>
  <speed>0.0316227766016838</speed>
  <fix>3d</fix>
</trkpt>
<trkpt lat="40.0713749" lon="-105.229789">
  <ele>1583.0</ele>
  <time>2026-08-28T17:53:05Z</time>
  <course>0.0</course>
  <speed>0.0</speed>
  <fix>3d</fix>
</trkpt>
<trkpt lat="40.0713749" lon="-105.229789">
  <ele>1583.0</ele>
  <time>2026-08-28T17:53:05Z</time>
  <course>247.7</course>
  <speed>0.0316227766016838</speed>
  <fix>3d</fix>
</trkpt>
<trkpt lat="40.0713749" lon="-105.229789">
  <ele>1583.0</ele>
  <time>2026-08-28T17:53:05Z</time>
  <course>0.0</course>
  <speed>0.0</speed>
  <fix>3d</fix>
</trkpt>
<trkpt lat="40.0713749" lon="-105.229789">
  <ele>1583.0</ele>
  <time>2026-08-28T17:53:05Z</time>
  <course>247.7</course>
  <speed>0.0316227766016838</speed>
  <fix>3d</fix>
</trkpt>
<trkpt lat="40.0713749" lon="-105.229789">
  <ele>1583.0</ele>
  <time>2026-08-28T17:53:05Z</time>
  <course>0.0</course>
  <speed>0.0</speed>
  <fix>3d</fix>
</trkpt>
<trkpt lat="40.0713749" lon="-105.229789">
  <ele>1583.0</ele>
  <time>2026-08-28T17:53:05Z</time>
  <course>247.69</course>
  <speed>0.0316227766016838</speed>
  <fix>3d</fix>
</trkpt>
<trkpt lat="40.0713749" lon="-105.229789">
  <ele>1583.0</ele>
  <time>2026-08-28T17:53:05Z</time>
  <course>0.0</course>
  <speed>0.0</speed>
  <fix>3d</fix>
</trkpt>
<trkpt lat="40.0713749" lon="-105.229789">
  <ele>1583.0</ele>
  <time>2026-08-28T17:53:05Z</time>
  <course>247.69</course>
  <speed>0.0316227766016838</speed>
  <fix>3d</fix>
</trkpt>
<trkpt lat="40.0713749" lon="-105.229789">
  <ele>1583.0</ele>
  <time>2026-08-28T17:53:05Z</time>
  <course>0.0</course>
  <speed>0.0</speed>
  <fix>3d</fix>
</trkpt>
<trkpt lat="40.0713749" lon="-105.229789">
  <ele>1583.0</ele>
  <time>2026-08-28T17:53:05Z</time>
  <course>247.69</course>
  <speed>0.0316227766016838</speed>
  <fix>3d</fix>
</trkpt>
<trkpt lat="40.0713749" lon="-105.229789">
  <ele>1583.0</ele>
  <time>2026-08-28T17:53:05Z</time>
  <course>0.0</course>
  <speed>0.0</speed>
  <fix>3d</fix>
</trkpt>
<trkpt lat="40.0713749" lon="-105.229789">
  <ele>1583.0</ele>
  <time>2026-08-28T17:53:05Z</time>
  <course>247.68</course>
  <speed>0.0316227766016838</speed>
  <fix>3d</fix>
</trkpt>
<trkpt lat="40.0713749" lon="-105.229789">
  <ele>1583.0</ele>
  <time>2026-08-28T17:53:05Z</time>
  <course>0.0</course>
  <speed>0.0</speed>
  <fix>3d</fix>
</trkpt>
<trkpt lat="40.0713749" lon="-105.229789">
  <ele>1583.0</ele>
  <time>2026-08-28T17:53:05Z</time>
  <course>247.68</course>
  <speed>0.0316227766016838</speed>
  <fix>3d</fix>
</trkpt>
<trkpt lat="40.0713749" lon="-105.229789">
  <ele>1583.0</ele>
  <time>2026-08-28T17:53:05Z</time>
  <course>0.0</course>
  <speed>0.0</speed>
  <fix>3d</fix>
</trkpt>
<trkpt lat="40.0713749" lon="-105.229789">
  <ele>1583.0</ele>
  <time>2026-08-28T17:53:05Z</time>
  <course>247.68</course>
  <speed>0.0316227766016838</speed>
  <fix>3d</fix>
</trkpt>
<trkpt lat="40.0713749" lon="-105.229789">
  <ele>1583.0</ele>
  <time>2026-08-28T17:53:05Z</time>
  <course>0.0</course>
  <speed>0.0</speed>
  <fix>3d</fix>
</trkpt>
<trkpt lat="40.0713749" lon="-105.229789">
  <ele>1583.0</ele>
  <time>2026-08-28T17:53:05Z</time>
  <course>247.67</course>
  <speed>0.0316227766016838</speed>
  <fix>3d</fix>
</trkpt>
<trkpt lat="40.0713749" lon="-105.229789">
  <ele>1583.0</ele>
  <time>2026-08-28T17:53:05Z</time>
  <course>0.0</course>
  <speed>0.0</speed>
  <fix>3d</fix>
</trkpt>
<trkpt lat="40.0713749" lon="-105.229789">
  <ele>1583.0</ele>
  <time>2026-08-28T17:53:05Z</time>
  <course>247.67</course>
  <speed>0.0316227766016838</speed>
  <fix>3d</fix>
</trkpt>
<trkpt lat="40.0713749" lon="-105.229789">
  <ele>1583.0</ele>
  <time>2026-08-28T17:53:05Z</time>
  <course>0.0</course>
  <speed>0.0</speed>
  <fix>3d</fix>
</trkpt>
<trkpt lat="40.0713749" lon="-105.229789">
  <ele>1583.0</ele>
  <time>2026-08-28T17:53:05Z</time>
  <course>247.67</course>
  <speed>0.0316227766016838</speed>
  <fix>3d</fix>
</trkpt>
<trkpt lat="40.0713749" lon="-105.229789">
  <ele>1583.0</ele>
  <time>2026-08-28T17:53:05Z</time>
  <course>0.0</course>
  <speed>0.0</speed>
  <fix>3d</fix>
</trkpt>
<trkpt lat="40.0713749" lon="-105.229789">
  <ele>1583.0</ele>
  <time>2026-08-28T17:53:05Z</time>
  <course>247.66</course>
  <speed>0.0316227766016838</speed>
  <fix>3d</fix>
</trkpt>
<trkpt lat="40.0713749" lon="-105.229789">
  <ele>1583.0</ele>
  <time>2026-08-28T17:53:05Z</time>
  <course>0.0</course>
  <speed>0.0</speed>
  <fix>3d</fix>
</trkpt>
<trkpt lat="40.0713749" lon="-105.229789">
  <ele>1583.0</ele>
  <time>2026-08-28T17:53:05Z</time>
  <course>247.66</course>
  <speed>0.0316227766016838</speed>
  <fix>3d</fix>
</trkpt>
<trkpt lat="40.0713749" lon="-105.229789">
  <ele>1583.0</ele>
  <time>2026-08-28T17:53:05Z</time>
  <course>0.0</course>
  <speed>0.0</speed>
  <fix>3d</fix>
</trkpt>
<trkpt lat="40.0713749" lon="-105.229789">
  <ele>1583.0</ele>
  <time>2026-08-28T17:53:05Z</time>
  <course>247.66</course>
  <speed>0.0316227766016838</speed>
  <fix>3d</fix>
</trkpt>
<trkpt lat="40.0713749" lon="-105.229789">
  <ele>1583.0</ele>
  <time>2026-08-28T17:53:05Z</time>
  <course>0.0</course>
  <speed>0.0</speed>
  <fix>3d</fix>
</trkpt>
<trkpt lat="40.0713749" lon="-105.229789">
  <ele>1583.0</ele>
  <time>2026-08-28T17:53:05Z</time>
  <course>247.65</course>
  <speed>0.0316227766016838</speed>
  <fix>3d</fix>
</trkpt>
<trkpt lat="40.0713749" lon="-105.229789">
  <ele>1583.0</ele>
  <time>2026-08-28T17:53:05Z</time>
  <course>0.0</course>
  <speed>0.0</speed>
  <fix>3d</fix>
</trkpt>
<trkpt lat="40.0713749" lon="-105.229789">
  <ele>1583.0</ele>
  <time>2026-08-28T17:53:05Z</time>
  <course>247.65</course>
  <speed>0.0316227766016838</speed>
  <fix>3d</fix>
</trkpt>
<trkpt lat="40.0713749" lon="-105.229789">
  <ele>1583.0</ele>
  <time>2026-08-28T17:53:05Z</time>
  <course>0.0</course>
  <speed>0.0</speed>
  <fix>3d</fix>
</trkpt>
<trkpt lat="40.0713749" lon="-105.229789">
  <ele>1583.0</ele>
  <time>2026-08-28T17:53:05Z</time>
  <course>247.65</course>
  <speed>0.0316227766016838</speed>
  <fix>3d</fix>
</trkpt>
<trkpt lat="40.0713749" lon="-105.229789">
  <ele>1583.0</ele>
  <time>2026-08-28T17:53:05Z</time>
  <course>0.0</course>
  <speed>0.0</speed>
  <fix>3d</fix>
</trkpt>
<trkpt lat="40.0713749" lon="-105.229789">
  <ele>1583.0</ele>
  <time>2026-08-28T17:53:05Z</time>
  <course>247.64</course>
  <speed>0.0316227766016838</speed>
  <fix>3d</fix>
</trkpt>
<trkpt lat="40.0713749" lon="-105.229789">
  <ele>1583.0</ele>
  <time>2026-08-28T17:53:05Z</time>
  <course>0.0</course>
  <speed>0.0</speed>
  <fix>3d</fix>
</trkpt>
<trkpt lat="40.0713749" lon="-105.229789">
  <ele>1583.0</ele>
  <time>2026-08-28T17:53:05Z</time>
  <course>247.64</course>
  <speed>0.0316227766016838</speed>
  <fix>3d</fix>
</trkpt>
<trkpt lat="40.0713749" lon="-105.229789">
  <ele>1583.0</ele>
  <time>2026-08-28T17:53:05Z</time>
  <course>0.0</course>
  <speed>0.0</speed>
  <fix>3d</fix>
</trkpt>
<trkpt lat="40.0713749" lon="-105.229789">
  <ele>1583.0</ele>
  <time>2026-08-28T17:53:05Z</time>
  <course>247.64</course>
  <speed>0.0316227766016838</speed>
  <fix>3d</fix>
</trkpt>
<trkpt lat="40.0713749" lon="-105.229789">
  <ele>1583.0</ele>
  <time>2026-08-28T17:53:05Z</time>
  <course>0.0</course>
  <speed>0.0</speed>
  <fix>3d</fix>
</trkpt>
<trkpt lat="40.0713749" lon="-105.229789">
  <ele>1583.0</ele>
  <time>2026-08-28T17:53:05Z</time>
  <course>247.64</course>
  <speed>0.0316227766016838</speed>
  <fix>3d</fix>
</trkpt>
<trkpt lat="40.0713749" lon="-105.229789">
  <ele>1583.0</ele>
  <time>2026-08-28T17:53:05Z</time>
  <course>0.0</course>
  <speed>0.0</speed>
  <fix>3d</fix>
</trkpt>
<trkpt lat="40.0713749" lon="-105.229789">
  <ele>1583.0</ele>
  <time>2026-08-28T17:53:05Z</time>
  <course>247.63</course>
  <speed>0.0316227766016838</speed>
  <fix>3d</fix>
</trkpt>
<trkpt lat="40.0713749" lon="-105.229789">
  <ele>1583.0</ele>
  <time>2026-08-28T17:53:05Z</time>
  <course>0.0</course>
  <speed>0.0</speed>
  <fix>3d</fix>
</trkpt>
<trkpt lat="40.0713749" lon="-105.229789">
  <ele>1583.0</ele>
  <time>2026-08-28T17:53:05Z</time>
  <course>247.63</course>
  <speed>0.0316227766016838</speed>
  <fix>3d</fix>
</trkpt>
<trkpt lat="40.0713749" lon="-105.229789">
  <ele>1583.0</ele>
  <time>2026-08-28T17:53:05Z</time>
  <course>0.0</course>
  <speed>0.0</speed>
  <fix>3d</fix>
</trkpt>
<trkpt lat="40.0713749" lon="-105.229789">
  <ele>1583.0</ele>
  <time>2026-08-28T17:53:05Z</time>
  <course>247.63</course>
  <speed>0.0316227766016838</speed>
  <fix>3d</fix>
</trkpt>
<trkpt lat="40.0713749" lon="-105.229789">
  <ele>1583.0</ele>
  <time>2026-08-28T17:53:05Z</time>
  <course>0.0</course>
  <speed>0.0</speed>
  <fix>3d</fix>
</trkpt>
<trkpt lat="40.0713749" lon="-105.229789">
  <ele>1583.0</ele>
  <time>2026-08-28T17:53:05Z</time>
  <course>247.62</course>
  <speed>0.0316227766016838</speed>
  <fix>3d</fix>
</trkpt>
<trkpt lat="40.0713749" lon="-105.229789">
  <ele>1583.0</ele>
  <time>2026-08-28T17:53:05Z</time>
  <course>0.0</course>
  <speed>0.0</speed>
  <fix>3d</fix>
</trkpt>
<trkpt lat="40.0713749" lon="-105.229789">
  <ele>1583.0</ele>
  <time>2026-08-28T17:53:05Z</time>
  <course>247.62</course>
  <speed>0.0316227766016838</speed>
  <fix>3d</fix>
</trkpt>
<trkpt lat="40.0713749" lon="-105.229789">
  <ele>1583.0</ele>
  <time>2026-08-28T17:53:05Z</time>
  <course>0.0</course>
  <speed>0.0</speed>
  <fix>3d</fix>
</trkpt>
<trkpt lat="40.0713749" lon="-105.229789">
  <ele>1583.0</ele>
  <time>2026-08-28T17:53:05Z</time>
  <course>247.62</course>
  <speed>0.0316227766016838</speed>
  <fix>3d</fix>
</trkpt>
<trkpt lat="40.0713749" lon="-105.229789">
  <ele>1583.0</ele>
  <time>2026-08-28T17:53:05Z</time>
  <course>0.0</course>
  <speed>0.0</speed>
  <fix>3d</fix>
</trkpt>
<trkpt lat="40.0713749" lon="-105.229789">
  <ele>1583.0</ele>
  <time>2026-08-28T17:53:05Z</time>
  <course>247.62</course>
  <speed>0.0316227766016838</speed>
  <fix>3d</fix>
</trkpt>
<trkpt lat="40.0713749" lon="-105.229789">
  <ele>1583.0</ele>
  <time>2026-08-28T17:53:05Z</time>
  <course>0.0</course>
  <speed>0.0</speed>
  <fix>3d</fix>
</trkpt>
<trkpt lat="40.0713749" lon="-105.229789">
  <ele>1583.0</ele>
  <time>2026-08-28T17:53:05Z</time>
  <course>247.61</course>
  <speed>0.0316227766016838</speed>
  <fix>3d</fix>
</trkpt>
<trkpt lat="40.0713749" lon="-105.229789">
  <ele>1583.0</ele>
  <time>2026-08-28T17:53:05Z</time>
  <course>0.0</course>
  <speed>0.0</speed>
  <fix>3d</fix>
</trkpt>
<trkpt lat="40.0713749" lon="-105.229789">
  <ele>1583.0</ele>
  <time>2026-08-28T17:53:05Z</time>
  <course>247.61</course>
  <speed>0.0316227766016838</speed>
  <fix>3d</fix>
</trkpt>
<trkpt lat="40.0713749" lon="-105.229789">
  <ele>1583.0</ele>
  <time>2026-08-28T17:53:05Z</time>
  <course>0.0</course>
  <speed>0.0</speed>
  <fix>3d</fix>
</trkpt>
<trkpt lat="40.0713749" lon="-105.229789">
  <ele>1583.0</ele>
  <time>2026-08-28T17:53:05Z</time>
  <course>247.61</course>
  <speed>0.0316227766016838</speed>
  <fix>3d</fix>
</trkpt>
<trkpt lat="40.0713749" lon="-105.229789">
  <ele>1583.0</ele>
  <time>2026-08-28T17:53:05Z</time>
  <course>0.0</course>
  <speed>0.0</speed>
  <fix>3d</fix>
</trkpt>
<trkpt lat="40.0713749" lon="-105.229789">
  <ele>1583.0</ele>
  <time>2026-08-28T17:53:05Z</time>
  <course>247.6</course>
  <speed>0.0316227766016838</speed>
  <fix>3d</fix>
</trkpt>
<trkpt lat="40.0713749" lon="-105.229789">
  <ele>1583.0</ele>
  <time>2026-08-28T17:53:05Z</time>
  <course>0.0</course>
  <speed>0.0</speed>
  <fix>3d</fix>
</trkpt>
<trkpt lat="40.0713749" lon="-105.229789">
  <ele>1583.0</ele>
  <time>2026-08-28T17:53:05Z</time>
  <course>247.6</course>
  <speed>0.0316227766016838</speed>
  <fix>3d</fix>
</trkpt>
<trkpt lat="40.0713749" lon="-105.229789">
  <ele>1583.0</ele>
  <time>2026-08-28T17:53:05Z</time>
  <course>0.0</course>
  <speed>0.0</speed>
  <fix>3d</fix>
</trkpt>
<trkpt lat="40.0713749" lon="-105.229789">
  <ele>1583.0</ele>
  <time>2026-08-28T17:53:05Z</time>
  <course>247.6</course>
  <speed>0.0316227766016838</speed>
  <fix>3d</fix>
</trkpt>
<trkpt lat="40.0713749" lon="-105.229789">
  <ele>1583.0</ele>
  <time>2026-08-28T17:53:05Z</time>
  <course>0.0</course>
  <speed>0.0</speed>
  <fix>3d</fix>
</trkpt>
<trkpt lat="40.0713749" lon="-105.229789">
  <ele>1583.0</ele>
  <time>2026-08-28T17:53:05Z</time>
  <course>247.6</course>
  <speed>0.0316227766016838</speed>
  <fix>3d</fix>
</trkpt>
<trkpt lat="40.0713749" lon="-105.229789">
  <ele>1583.0</ele>
  <time>2026-08-28T17:53:05Z</time>
  <course>0.0</course>
  <speed>0.0</speed>
  <fix>3d</fix>
</trkpt>
<trkpt lat="40.0713749" lon="-105.229789">
  <ele>1583.0</ele>
  <time>2026-08-28T17:53:05Z</time>
  <course>247.59</course>
  <speed>0.0316227766016838</speed>
  <fix>3d</fix>
</trkpt>
<trkpt lat="40.0713749" lon="-105.229789">
  <ele>1583.0</ele>
  <time>2026-08-28T17:53:05Z</time>
  <course>0.0</course>
  <speed>0.0</speed>
  <fix>3d</fix>
</trkpt>
<trkpt lat="40.0713749" lon="-105.229789">
  <ele>1582.92</ele>
  <time>2026-08-28T17:53:05Z</time>
  <course>247.59</course>
  <speed>0.0</speed>
  <fix>3d</fix>
</trkpt>
<trkpt lat="40.0713749" lon="-105.229789">
  <ele>1583.0</ele>
  <time>2026-08-28T17:53:05Z</time>
  <course>0.0</course>
  <speed>0.0</speed>
  <fix>3d</fix>
</trkpt>
<trkpt lat="40.0713749" lon="-105.229789">
  <ele>1582.92</ele>
  <time>2026-08-28T17:53:05Z</time>
  <course>247.59</course>
  <speed>0.0</speed>
  <fix>3d</fix>
</trkpt>
<trkpt lat="40.0713749" lon="-105.229789">
  <ele>1583.0</ele>
  <time>2026-08-28T17:53:05Z</time>
  <course>0.0</course>
  <speed>0.0</speed>
  <fix>3d</fix>
</trkpt>
<trkpt lat="40.0713749" lon="-105.229789">
  <ele>1582.91</ele>
  <time>2026-08-28T17:53:05Z</time>
  <course>247.58</course>
  <speed>0.0</speed>
  <fix>3d</fix>
</trkpt>
<trkpt lat="40.0713749" lon="-105.229789">
  <ele>1583.0</ele>
  <time>2026-08-28T17:53:05Z</time>
  <course>0.0</course>
  <speed>0.0</speed>
  <fix>3d</fix>
</trkpt>
<trkpt lat="40.0713749" lon="-105.229789">
  <ele>1582.91</ele>
  <time>2026-08-28T17:53:05Z</time>
  <course>247.58</course>
  <speed>0.0</speed>
  <fix>3d</fix>
</trkpt>
<trkpt lat="40.0713749" lon="-105.229789">
  <ele>1583.0</ele>
  <time>2026-08-28T17:53:05Z</time>
  <course>0.0</course>
  <speed>0.0</speed>
  <fix>3d</fix>
</trkpt>
<trkpt lat="40.0713749" lon="-105.229789">
  <ele>1582.9</ele>
  <time>2026-08-28T17:53:05Z</time>
  <course>247.58</course>
  <speed>0.0</speed>
  <fix>3d</fix>
</trkpt>
<trkpt lat="40.0713749" lon="-105.229789">
  <ele>1583.0</ele>
  <time>2026-08-28T17:53:05Z</time>
  <course>0.0</course>
  <speed>0.0</speed>
  <fix>3d</fix>
</trkpt>
<trkpt lat="40.0713749" lon="-105.229789">
  <ele>1582.9</ele>
  <time>2026-08-28T17:53:05Z</time>
  <course>247.58</course>
  <speed>0.0</speed>
  <fix>3d</fix>
</trkpt>
<trkpt lat="40.0713749" lon="-105.229789">
  <ele>1583.0</ele>
  <time>2026-08-28T17:53:05Z</time>
  <course>0.0</course>
  <speed>0.0</speed>
  <fix>3d</fix>
</trkpt>
<trkpt lat="40.0713749" lon="-105.229789">
  <ele>1582.9</ele>
  <time>2026-08-28T17:53:05Z</time>
  <course>247.57</course>
  <speed>0.0</speed>
  <fix>3d</fix>
</trkpt>
<trkpt lat="40.0713749" lon="-105.229789">
  <ele>1583.0</ele>
  <time>2026-08-28T17:53:05Z</time>
  <course>0.0</course>
  <speed>0.0</speed>
  <fix>3d</fix>
</trkpt>
<trkpt lat="40.0713749" lon="-105.229789">
  <ele>1582.9</ele>
  <time>2026-08-28T17:53:05Z</time>
  <course>247.57</course>
  <speed>0.0</speed>
  <fix>3d</fix>
</trkpt>
<trkpt lat="40.0713749" lon="-105.229789">
  <ele>1583.0</ele>
  <time>2026-08-28T17:53:05Z</time>
  <course>0.0</course>
  <speed>0.0</speed>
  <fix>3d</fix>
</trkpt>
<trkpt lat="40.0713749" lon="-105.229789">
  <ele>1582.9</ele>
  <time>2026-08-28T17:53:05Z</time>
  <course>247.57</course>
  <speed>0.0</speed>
  <fix>3d</fix>
</trkpt>
<trkpt lat="40.0713749" lon="-105.229789">
  <ele>1583.0</ele>
  <time>2026-08-28T17:53:05Z</time>
  <course>0.0</course>
  <speed>0.0</speed>
  <fix>3d</fix>
</trkpt>
<trkpt lat="40.0713749" lon="-105.229789">
  <ele>1582.9</ele>
  <time>2026-08-28T17:53:05Z</time>
  <course>247.57</course>
  <speed>0.01</speed>
  <fix>3d</fix>
</trkpt>
<trkpt lat="40.0713749" lon="-105.229789">
  <ele>1583.0</ele>
  <time>2026-08-28T17:53:05Z</time>
  <course>0.0</course>
  <speed>0.0</speed>
  <fix>3d</fix>
</trkpt>
<trkpt lat="40.0713749" lon="-105.229789">
  <ele>1582.9</ele>
  <time>2026-08-28T17:53:05Z</time>
  <course>247.56</course>
  <speed>0.01</speed>
  <fix>3d</fix>
</trkpt>
<trkpt lat="40.0713749" lon="-105.229789">
  <ele>1583.0</ele>
  <time>2026-08-28T17:53:05Z</time>
  <course>0.0</course>
  <speed>0.0</speed>
  <fix>3d</fix>
</trkpt>
<trkpt lat="40.0713749" lon="-105.229789">
  <ele>1582.91</ele>
  <time>2026-08-28T17:53:05Z</time>
  <course>247.56</course>
  <speed>0.01</speed>
  <fix>3d</fix>
</trkpt>
<trkpt lat="40.0713749" lon="-105.229789">
  <ele>1583.0</ele>
  <time>2026-08-28T17:53:05Z</time>
  <course>0.0</course>
  <speed>0.0</speed>
  <fix>3d</fix>
</trkpt>
<trkpt lat="40.0713749" lon="-105.229789">
  <ele>1582.91</ele>
  <time>2026-08-28T17:53:05Z</time>
  <course>247.56</course>
  <speed>0.01</speed>
  <fix>3d</fix>
</trkpt>
<trkpt lat="40.0713749" lon="-105.229789">
  <ele>1583.0</ele>
  <time>2026-08-28T17:53:05Z</time>
  <course>0.0</course>
  <speed>0.0</speed>
  <fix>3d</fix>
</trkpt>
<trkpt lat="40.0713749" lon="-105.229789">
  <ele>1582.92</ele>
  <time>2026-08-28T17:53:05Z</time>
  <course>247.56</course>
  <speed>0.01</speed>
  <fix>3d</fix>
</trkpt>
<trkpt lat="40.0713749" lon="-105.229789">
  <ele>1583.0</ele>
  <time>2026-08-28T17:53:05Z</time>
  <course>0.0</course>
  <speed>0.0</speed>
  <fix>3d</fix>
</trkpt>
<trkpt lat="40.0713749" lon="-105.229789">
  <ele>1582.92</ele>
  <time>2026-08-28T17:53:05Z</time>
  <course>247.55</course>
  <speed>0.01</speed>
  <fix>3d</fix>
</trkpt>
<trkpt lat="40.0713749" lon="-105.229789">
  <ele>1583.0</ele>
  <time>2026-08-28T17:53:05Z</time>
  <course>0.0</course>
  <speed>0.0</speed>
  <fix>3d</fix>
</trkpt>
<trkpt lat="40.0713749" lon="-105.229789">
  <ele>1582.92</ele>
  <time>2026-08-28T17:53:05Z</time>
  <course>247.55</course>
  <speed>0.01</speed>
  <fix>3d</fix>
</trkpt>
<trkpt lat="40.0713749" lon="-105.229789">
  <ele>1583.0</ele>
  <time>2026-08-28T17:53:05Z</time>
  <course>0.0</course>
  <speed>0.0</speed>
  <fix>3d</fix>
</trkpt>
<trkpt lat="40.0713749" lon="-105.229789">
  <ele>1582.93</ele>
  <time>2026-08-28T17:53:05Z</time>
  <course>247.55</course>
  <speed>0.01</speed>
  <fix>3d</fix>
</trkpt>
<trkpt lat="40.0713749" lon="-105.229789">
  <ele>1583.0</ele>
  <time>2026-08-28T17:53:05Z</time>
  <course>0.0</course>
  <speed>0.0</speed>
  <fix>3d</fix>
</trkpt>
<trkpt lat="40.0713749" lon="-105.229789">
  <ele>1582.93</ele>
  <time>2026-08-28T17:53:05Z</time>
  <course>247.55</course>
  <speed>0.01</speed>
  <fix>3d</fix>
</trkpt>
<trkpt lat="40.0713749" lon="-105.229789">
  <ele>1583.0</ele>
  <time>2026-08-28T17:53:05Z</time>
  <course>0.0</course>
  <speed>0.0</speed>
  <fix>3d</fix>
</trkpt>
<trkpt lat="40.0713749" lon="-105.229789">
  <ele>1582.93</ele>
  <time>2026-08-28T17:53:05Z</time>
  <course>247.54</course>
  <speed>0.02</speed>
  <fix>3d</fix>
</trkpt>
<trkpt lat="40.0713749" lon="-105.229789">
  <ele>1583.0</ele>
  <time>2026-08-28T17:53:05Z</time>
  <course>0.0</course>
  <speed>0.0</speed>
  <fix>3d</fix>
</trkpt>
<trkpt lat="40.0713749" lon="-105.229789">
  <ele>1582.93</ele>
  <time>2026-08-28T17:53:05Z</time>
  <course>247.54</course>
  <speed>0.02</speed>
  <fix>3d</fix>
</trkpt>
<trkpt lat="40.0713749" lon="-105.229789">
  <ele>1583.0</ele>
  <time>2026-08-28T17:53:05Z</time>
  <course>0.0</course>
  <speed>0.0</speed>
  <fix>3d</fix>
</trkpt>
<trkpt lat="40.0713749" lon="-105.229789">
  <ele>1582.93</ele>
  <time>2026-08-28T17:53:05Z</time>
  <course>247.54</course>
  <speed>0.02</speed>
  <fix>3d</fix>
</trkpt>
<trkpt lat="40.0713749" lon="-105.229789">
  <ele>1583.0</ele>
  <time>2026-08-28T17:53:05Z</time>
  <course>0.0</course>
  <speed>0.0</speed>
  <fix>3d</fix>
</trkpt>
<trkpt lat="40.0713749" lon="-105.229789">
  <ele>1582.93</ele>
  <time>2026-08-28T17:53:05Z</time>
  <course>247.54</course>
  <speed>0.022360679774997897</speed>
  <fix>3d</fix>
</trkpt>
<trkpt lat="40.0713749" lon="-105.229789">
  <ele>1583.0</ele>
  <time>2026-08-28T17:53:05Z</time>
  <course>0.0</course>
  <speed>0.0</speed>
  <fix>3d</fix>
</trkpt>
<trkpt lat="40.0713749" lon="-105.229789">
  <ele>1582.94</ele>
  <time>2026-08-28T17:53:05Z</time>
  <course>247.53</course>
  <speed>0.022360679774997897</speed>
  <fix>3d</fix>
</trkpt>
<trkpt lat="40.0713749" lon="-105.229789">
  <ele>1583.0</ele>
  <time>2026-08-28T17:53:05Z</time>
  <course>0.0</course>
  <speed>0.0</speed>
  <fix>3d</fix>
</trkpt>
<trkpt lat="40.0713749" lon="-105.229789">
  <ele>1582.94</ele>
  <time>2026-08-28T17:53:05Z</time>
  <course>247.53</course>
  <speed>0.022360679774997897</speed>
  <fix>3d</fix>
</trkpt>
<trkpt lat="40.0713749" lon="-105.229789">
  <ele>1583.0</ele>
  <time>2026-08-28T17:53:05Z</time>
  <course>0.0</course>
  <speed>0.0</speed>
  <fix>3d</fix>
</trkpt>
<trkpt lat="40.071375" lon="-105.229789">
  <ele>1582.94</ele>
  <time>2026-08-28T17:53:05Z</time>
  <course>247.53</course>
  <speed>0.022360679774997897</speed>
  <fix>3d</fix>
</trkpt>
<trkpt lat="40.0713749" lon="-105.229789">
  <ele>1583.0</ele>
  <time>2026-08-28T17:53:05Z</time>
  <course>0.0</course>
  <speed>0.0</speed>
  <fix>3d</fix>
</trkpt>
<trkpt lat="40.071375" lon="-105.229789">
  <ele>1582.95</ele>
  <time>2026-08-28T17:53:05Z</time>
  <course>247.53</course>
  <speed>0.022360679774997897</speed>
  <fix>3d</fix>
</trkpt>
<trkpt lat="40.0713749" lon="-105.229789">
  <ele>1583.0</ele>
  <time>2026-08-28T17:53:05Z</time>
  <course>0.0</course>
  <speed>0.0</speed>
  <fix>3d</fix>
</trkpt>
<trkpt lat="40.071375" lon="-105.229789">
  <ele>1582.95</ele>
  <time>2026-08-28T17:53:05Z</time>
  <course>247.53</course>
  <speed>0.022360679774997897</speed>
  <fix>3d</fix>
</trkpt>
<trkpt lat="40.0713749" lon="-105.229789">
  <ele>1583.0</ele>
  <time>2026-08-28T17:53:05Z</time>
  <course>0.0</course>
  <speed>0.0</speed>
  <fix>3d</fix>
</trkpt>
<trkpt lat="40.071375" lon="-105.229789">
  <ele>1582.95</ele>
  <time>2026-08-28T17:53:05Z</time>
  <course>247.52</course>
  <speed>0.022360679774997897</speed>
  <fix>3d</fix>
</trkpt>
<trkpt lat="40.0713749" lon="-105.229789">
  <ele>1583.0</ele>
  <time>2026-08-28T17:53:05Z</time>
  <course>0.0</course>
  <speed>0.0</speed>
  <fix>3d</fix>
</trkpt>
<trkpt lat="40.071375" lon="-105.229789">
  <ele>1582.95</ele>
  <time>2026-08-28T17:53:05Z</time>
  <course>247.52</course>
  <speed>0.022360679774997897</speed>
  <fix>3d</fix>
</trkpt>
<trkpt lat="40.0713749" lon="-105.229789">
  <ele>1583.0</ele>
  <time>2026-08-28T17:53:05Z</time>
  <course>0.0</course>
  <speed>0.0</speed>
  <fix>3d</fix>
</trkpt>
<trkpt lat="40.071375" lon="-105.229789">
  <ele>1582.95</ele>
  <time>2026-08-28T17:53:05Z</time>
  <course>247.52</course>
  <speed>0.022360679774997897</speed>
  <fix>3d</fix>
</trkpt>
<trkpt lat="40.0713749" lon="-105.229789">
  <ele>1583.0</ele>
  <time>2026-08-28T17:53:05Z</time>
  <course>0.0</course>
  <speed>0.0</speed>
  <fix>3d</fix>
</trkpt>
<trkpt lat="40.071375" lon="-105.229789">
  <ele>1582.95</ele>
  <time>2026-08-28T17:53:05Z</time>
  <course>247.52</course>
  <speed>0.022360679774997897</speed>
  <fix>3d</fix>
</trkpt>
<trkpt lat="40.0713749" lon="-105.229789">
  <ele>1583.0</ele>
  <time>2026-08-28T17:53:05Z</time>
  <course>0.0</course>
  <speed>0.0</speed>
  <fix>3d</fix>
</trkpt>
<trkpt lat="40.071375" lon="-105.229789">
  <ele>1582.95</ele>
  <time>2026-08-28T17:53:05Z</time>
  <course>247.51</course>
  <speed>0.0316227766016838</speed>
  <fix>3d</fix>
</trkpt>
<trkpt lat="40.0713749" lon="-105.229789">
  <ele>1583.0</ele>
  <time>2026-08-28T17:53:05Z</time>
  <course>0.0</course>
  <speed>0.0</speed>
  <fix>3d</fix>
</trkpt>
<trkpt lat="40.071375" lon="-105.229789">
  <ele>1582.95</ele>
  <time>2026-08-28T17:53:05Z</time>
  <course>247.51</course>
  <speed>0.0316227766016838</speed>
  <fix>3d</fix>
</trkpt>
<trkpt lat="40.0713749" lon="-105.229789">
  <ele>1583.0</ele>
  <time>2026-08-28T17:53:05Z</time>
  <course>0.0</course>
  <speed>0.0</speed>
  <fix>3d</fix>
</trkpt>
<trkpt lat="40.071375" lon="-105.229789">
  <ele>1582.95</ele>
  <time>2026-08-28T17:53:05Z</time>
  <course>247.51</course>
  <speed>0.0316227766016838</speed>
  <fix>3d</fix>
</trkpt>
<trkpt lat="40.0713749" lon="-105.229789">
  <ele>1583.0</ele>
  <time>2026-08-28T17:53:05Z</time>
  <course>0.0</course>
  <speed>0.0</speed>
  <fix>3d</fix>
</trkpt>
<trkpt lat="40.071375" lon="-105.2297889">
  <ele>1582.95</ele>
  <time>2026-08-28T17:53:05Z</time>
  <course>247.51</course>
  <speed>0.0316227766016838</speed>
  <fix>3d</fix>
</trkpt>
<trkpt lat="40.0713749" lon="-105.229789">
  <ele>1583.0</ele>
  <time>2026-08-28T17:53:05Z</time>
  <course>0.0</course>
  <speed>0.0</speed>
  <fix>3d</fix>
</trkpt>
<trkpt lat="40.071375" lon="-105.2297889">
  <ele>1582.95</ele>
  <time>2026-08-28T17:53:05Z</time>
  <course>247.51</course>
  <speed>0.0316227766016838</speed>
  <fix>3d</fix>
</trkpt>
<trkpt lat="40.0713749" lon="-105.229789">
  <ele>1583.0</ele>
  <time>2026-08-28T17:53:05Z</time>
  <course>0.0</course>
  <speed>0.0</speed>
  <fix>3d</fix>
</trkpt>
<trkpt lat="40.071375" lon="-105.2297889">
  <ele>1582.95</ele>
  <time>2026-08-28T17:53:05Z</time>
  <course>247.5</course>
  <speed>0.0316227766016838</speed>
  <fix>3d</fix>
</trkpt>
<trkpt lat="40.0713749" lon="-105.229789">
  <ele>1583.0</ele>
  <time>2026-08-28T17:53:05Z</time>
  <course>0.0</course>
  <speed>0.0</speed>
  <fix>3d</fix>
</trkpt>
<trkpt lat="40.071375" lon="-105.2297889">
  <ele>1582.95</ele>
  <time>2026-08-28T17:53:05Z</time>
  <course>247.5</course>
  <speed>0.0316227766016838</speed>
  <fix>3d</fix>
</trkpt>
<trkpt lat="40.0713749" lon="-105.229789">
  <ele>1583.0</ele>
  <time>2026-08-28T17:53:05Z</time>
  <course>0.0</course>
  <speed>0.0</speed>
  <fix>3d</fix>
</trkpt>
<trkpt lat="40.071375" lon="-105.2297889">
  <ele>1582.95</ele>
  <time>2026-08-28T17:53:05Z</time>
  <course>247.5</course>
  <speed>0.0316227766016838</speed>
  <fix>3d</fix>
</trkpt>
<trkpt lat="40.0713749" lon="-105.229789">
  <ele>1583.0</ele>
  <time>2026-08-28T17:53:05Z</time>
  <course>0.0</course>
  <speed>0.0</speed>
  <fix>3d</fix>
</trkpt>
<trkpt lat="40.0713751" lon="-105.2297889">
  <ele>1582.95</ele>
  <time>2026-08-28T17:53:05Z</time>
  <course>247.5</course>
  <speed>0.0316227766016838</speed>
  <fix>3d</fix>
</trkpt>
<trkpt lat="40.0713749" lon="-105.229789">
  <ele>1583.0</ele>
  <time>2026-08-28T17:53:05Z</time>
  <course>0.0</course>
  <speed>0.0</speed>
  <fix>3d</fix>
</trkpt>
<trkpt lat="40.0713751" lon="-105.2297889">
  <ele>1582.96</ele>
  <time>2026-08-28T17:53:05Z</time>
  <course>247.49</course>
  <speed>0.0316227766016838</speed>
  <fix>3d</fix>
</trkpt>
<trkpt lat="40.0713749" lon="-105.229789">
  <ele>1583.0</ele>
  <time>2026-08-28T17:53:05Z</time>
  <course>0.0</course>
  <speed>0.0</speed>
  <fix>3d</fix>
</trkpt>
<trkpt lat="40.0713751" lon="-105.2297889">
  <ele>1582.96</ele>
  <time>2026-08-28T17:53:05Z</time>
  <course>247.49</course>
  <speed>0.0316227766016838</speed>
  <fix>3d</fix>
</trkpt>
<trkpt lat="40.0713749" lon="-105.229789">
  <ele>1583.0</ele>
  <time>2026-08-28T17:53:05Z</time>
  <course>0.0</course>
  <speed>0.0</speed>
  <fix>3d</fix>
</trkpt>
<trkpt lat="40.0713751" lon="-105.2297889">
  <ele>1582.97</ele>
  <time>2026-08-28T17:53:05Z</time>
  <course>247.49</course>
  <speed>0.0316227766016838</speed>
  <fix>3d</fix>
</trkpt>
<trkpt lat="40.0713749" lon="-105.229789">
  <ele>1583.0</ele>
  <time>2026-08-28T17:53:05Z</time>
  <course>0.0</course>
  <speed>0.0</speed>
  <fix>3d</fix>
</trkpt>
<trkpt lat="40.0713751" lon="-105.2297889">
  <ele>1582.98</ele>
  <time>2026-08-28T17:53:05Z</time>
  <course>247.49</course>
  <speed>0.0316227766016838</speed>
  <fix>3d</fix>
</trkpt>
<trkpt lat="40.0713749" lon="-105.229789">
  <ele>1583.0</ele>
  <time>2026-08-28T17:53:05Z</time>
  <course>0.0</course>
  <speed>0.0</speed>
  <fix>3d</fix>
</trkpt>
<trkpt lat="40.0713751" lon="-105.2297889">
  <ele>1582.98</ele>
  <time>2026-08-28T17:53:05Z</time>
  <course>247.49</course>
  <speed>0.0316227766016838</speed>
  <fix>3d</fix>
</trkpt>
<trkpt lat="40.0713749" lon="-105.229789">
  <ele>1583.0</ele>
  <time>2026-08-28T17:53:05Z</time>
  <course>0.0</course>
  <speed>0.0</speed>
  <fix>3d</fix>
</trkpt>
<trkpt lat="40.0713751" lon="-105.2297889">
  <ele>1582.99</ele>
  <time>2026-08-28T17:53:05Z</time>
  <course>247.48</course>
  <speed>0.0316227766016838</speed>
  <fix>3d</fix>
</trkpt>
<trkpt lat="40.0713749" lon="-105.229789">
  <ele>1583.0</ele>
  <time>2026-08-28T17:53:05Z</time>
  <course>0.0</course>
  <speed>0.0</speed>
  <fix>3d</fix>
</trkpt>
<trkpt lat="40.0713751" lon="-105.2297889">
  <ele>1583.0</ele>
  <time>2026-08-28T17:53:05Z</time>
  <course>247.48</course>
  <speed>0.022360679774997897</speed>
  <fix>3d</fix>
</trkpt>
<trkpt lat="40.0713749" lon="-105.229789">
  <ele>1583.0</ele>
  <time>2026-08-28T17:53:05Z</time>
  <course>0.0</course>
  <speed>0.0</speed>
  <fix>3d</fix>
</trkpt>
<trkpt lat="40.0713751" lon="-105.2297889">
  <ele>1583.01</ele>
  <time>2026-08-28T17:53:05Z</time>
  <course>247.48</course>
  <speed>0.022360679774997897</speed>
  <fix>3d</fix>
</trkpt>
<trkpt lat="40.0713749" lon="-105.229789">
  <ele>1583.0</ele>
  <time>2026-08-28T17:53:05Z</time>
  <course>0.0</course>
  <speed>0.0</speed>
  <fix>3d</fix>
</trkpt>
<trkpt lat="40.0713751" lon="-105.2297889">
  <ele>1583.01</ele>
  <time>2026-08-28T17:53:05Z</time>
  <course>247.48</course>
  <speed>0.022360679774997897</speed>
  <fix>3d</fix>
</trkpt>
<trkpt lat="40.0713749" lon="-105.229789">
  <ele>1583.0</ele>
  <time>2026-08-28T17:53:05Z</time>
  <course>0.0</course>
  <speed>0.0</speed>
  <fix>3d</fix>
</trkpt>
<trkpt lat="40.0713751" lon="-105.2297889">
  <ele>1583.01</ele>
  <time>2026-08-28T17:53:05Z</time>
  <course>247.47</course>
  <speed>0.022360679774997897</speed>
  <fix>3d</fix>
</trkpt>
<trkpt lat="40.0713749" lon="-105.229789">
  <ele>1583.0</ele>
  <time>2026-08-28T17:53:05Z</time>
  <course>0.0</course>
  <speed>0.0</speed>
  <fix>3d</fix>
</trkpt>
<trkpt lat="40.0713751" lon="-105.2297889">
  <ele>1583.01</ele>
  <time>2026-08-28T17:53:05Z</time>
  <course>247.47</course>
  <speed>0.022360679774997897</speed>
  <fix>3d</fix>
</trkpt>
<trkpt lat="40.0713749" lon="-105.229789">
  <ele>1583.0</ele>
  <time>2026-08-28T17:53:05Z</time>
  <course>0.0</course>
  <speed>0.0</speed>
  <fix>3d</fix>
</trkpt>
<trkpt lat="40.0713751" lon="-105.2297889">
  <ele>1583.01</ele>
  <time>2026-08-28T17:53:05Z</time>
  <course>247.47</course>
  <speed>0.022360679774997897</speed>
  <fix>3d</fix>
</trkpt>
<trkpt lat="40.0713749" lon="-105.229789">
  <ele>1583.0</ele>
  <time>2026-08-28T17:53:05Z</time>
  <course>0.0</course>
  <speed>0.0</speed>
  <fix>3d</fix>
</trkpt>
<trkpt lat="40.071375" lon="-105.2297889">
  <ele>1583.0</ele>
  <time>2026-08-28T17:53:05Z</time>
  <course>247.47</course>
  <speed>0.022360679774997897</speed>
  <fix>3d</fix>
</trkpt>
<trkpt lat="40.0713749" lon="-105.229789">
  <ele>1583.0</ele>
  <time>2026-08-28T17:53:05Z</time>
  <course>0.0</course>
  <speed>0.0</speed>
  <fix>3d</fix>
</trkpt>
<trkpt lat="40.0713751" lon="-105.2297889">
  <ele>1583.0</ele>
  <time>2026-08-28T17:53:05Z</time>
  <course>247.47</course>
  <speed>0.022360679774997897</speed>
  <fix>3d</fix>
</trkpt>
<trkpt lat="40.0713749" lon="-105.229789">
  <ele>1583.0</ele>
  <time>2026-08-28T17:53:05Z</time>
  <course>0.0</course>
  <speed>0.0</speed>
  <fix>3d</fix>
</trkpt>
<trkpt lat="40.071375" lon="-105.2297889">
  <ele>1583.0</ele>
  <time>2026-08-28T17:53:05Z</time>
  <course>247.46</course>
  <speed>0.022360679774997897</speed>
  <fix>3d</fix>
</trkpt>
<trkpt lat="40.0713749" lon="-105.229789">
  <ele>1583.0</ele>
  <time>2026-08-28T17:53:05Z</time>
  <course>0.0</course>
  <speed>0.0</speed>
  <fix>3d</fix>
</trkpt>
<trkpt lat="40.071375" lon="-105.2297889">
  <ele>1582.99</ele>
  <time>2026-08-28T17:53:05Z</time>
  <course>247.46</course>
  <speed>0.022360679774997897</speed>
  <fix>3d</fix>
</trkpt>
<trkpt lat="40.0713749" lon="-105.229789">
  <ele>1583.0</ele>
  <time>2026-08-28T17:53:05Z</time>
  <course>0.0</course>
  <speed>0.0</speed>
  <fix>3d</fix>
</trkpt>
<trkpt lat="40.071375" lon="-105.2297889">
  <ele>1582.99</ele>
  <time>2026-08-28T17:53:05Z</time>
  <course>247.46</course>
  <speed>0.022360679774997897</speed>
  <fix>3d</fix>
</trkpt>
<trkpt lat="40.0713749" lon="-105.229789">
  <ele>1583.0</ele>
  <time>2026-08-28T17:53:05Z</time>
  <course>0.0</course>
  <speed>0.0</speed>
  <fix>3d</fix>
</trkpt>
<trkpt lat="40.071375" lon="-105.2297889">
  <ele>1582.99</ele>
  <time>2026-08-28T17:53:05Z</time>
  <course>247.46</course>
  <speed>0.022360679774997897</speed>
  <fix>3d</fix>
</trkpt>
<trkpt lat="40.0713749" lon="-105.229789">
  <ele>1583.0</ele>
  <time>2026-08-28T17:53:05Z</time>
  <course>0.0</course>
  <speed>0.0</speed>
  <fix>3d</fix>
</trkpt>
<trkpt lat="40.071375" lon="-105.2297889">
  <ele>1582.99</ele>
  <time>2026-08-28T17:53:05Z</time>
  <course>247.45</course>
  <speed>0.022360679774997897</speed>
  <fix>3d</fix>
</trkpt>
<trkpt lat="40.0713749" lon="-105.229789">
  <ele>1583.0</ele>
  <time>2026-08-28T17:53:05Z</time>
  <course>0.0</course>
  <speed>0.0</speed>
  <fix>3d</fix>
</trkpt>
<trkpt lat="40.071375" lon="-105.2297889">
  <ele>1582.99</ele>
  <time>2026-08-28T17:53:05Z</time>
  <course>247.45</course>
  <speed>0.022360679774997897</speed>
  <fix>3d</fix>
</trkpt>
<trkpt lat="40.0713749" lon="-105.229789">
  <ele>1583.0</ele>
  <time>2026-08-28T17:53:05Z</time>
  <course>0.0</course>
  <speed>0.0</speed>
  <fix>3d</fix>
</trkpt>
<trkpt lat="40.071375" lon="-105.2297889">
  <ele>1582.99</ele>
  <time>2026-08-28T17:53:05Z</time>
  <course>247.45</course>
  <speed>0.022360679774997897</speed>
  <fix>3d</fix>
</trkpt>
<trkpt lat="40.0713749" lon="-105.229789">
  <ele>1583.0</ele>
  <time>2026-08-28T17:53:05Z</time>
  <course>0.0</course>
  <speed>0.0</speed>
  <fix>3d</fix>
</trkpt>
<trkpt lat="40.071375" lon="-105.2297889">
  <ele>1582.99</ele>
  <time>2026-08-28T17:53:05Z</time>
  <course>247.45</course>
  <speed>0.022360679774997897</speed>
  <fix>3d</fix>
</trkpt>
<trkpt lat="40.0713749" lon="-105.229789">
  <ele>1583.0</ele>
  <time>2026-08-28T17:53:05Z</time>
  <course>0.0</course>
  <speed>0.0</speed>
  <fix>3d</fix>
</trkpt>
<trkpt lat="40.071375" lon="-105.2297889">
  <ele>1583.0</ele>
  <time>2026-08-28T17:53:05Z</time>
  <course>247.45</course>
  <speed>0.022360679774997897</speed>
  <fix>3d</fix>
</trkpt>
<trkpt lat="40.0713749" lon="-105.229789">
  <ele>1583.0</ele>
  <time>2026-08-28T17:53:05Z</time>
  <course>0.0</course>
  <speed>0.0</speed>
  <fix>3d</fix>
</trkpt>
<trkpt lat="40.071375" lon="-105.2297889">
  <ele>1583.0</ele>
  <time>2026-08-28T17:53:05Z</time>
  <course>247.44</course>
  <speed>0.022360679774997897</speed>
  <fix>3d</fix>
</trkpt>
<trkpt lat="40.0713749" lon="-105.229789">
  <ele>1583.0</ele>
  <time>2026-08-28T17:53:05Z</time>
  <course>0.0</course>
  <speed>0.0</speed>
  <fix>3d</fix>
</trkpt>
<trkpt lat="40.071375" lon="-105.229789">
  <ele>1583.0</ele>
  <time>2026-08-28T17:53:05Z</time>
  <course>247.44</course>
  <speed>0.02</speed>
  <fix>3d</fix>
</trkpt>
<trkpt lat="40.0713749" lon="-105.229789">
  <ele>1583.0</ele>
  <time>2026-08-28T17:53:05Z</time>
  <course>0.0</course>
  <speed>0.0</speed>
  <fix>3d</fix>
</trkpt>
<trkpt lat="39.655741" lon="-104.1383097">
  <ele>1566.58</ele>
  <time>2026-08-28T17:53:07Z</time>
  <course>0.0</course>
  <speed>0.0</speed>
  <fix>3d</fix>
</trkpt>
<trkpt lat="40.0713749" lon="-105.229789">
  <ele>1583.0</ele>
  <time>2026-08-28T17:53:07Z</time>
  <course>0.0</course>
  <speed>0.0</speed>
  <fix>3d</fix>
</trkpt>
<trkpt lat="40.0713749" lon="-105.229789">
  <ele>1583.0</ele>
  <time>2026-08-28T17:53:07Z</time>
  <course>238.36</course>
  <speed>0.0</speed>
  <fix>3d</fix>
</trkpt>
<trkpt lat="40.0713749" lon="-105.229789">
  <ele>1583.0</ele>
  <time>2026-08-28T17:53:07Z</time>
  <course>0.0</course>
  <speed>0.0</speed>
  <fix>3d</fix>
</trkpt>
<trkpt lat="40.0713749" lon="-105.229789">
  <ele>1583.0</ele>
  <time>2026-08-28T17:53:07Z</time>
  <course>238.45</course>
  <speed>0.0</speed>
  <fix>3d</fix>
</trkpt>
<trkpt lat="40.0713749" lon="-105.229789">
  <ele>1583.0</ele>
  <time>2026-08-28T17:53:07Z</time>
  <course>0.0</course>
  <speed>0.0</speed>
  <fix>3d</fix>
</trkpt>
<trkpt lat="40.0713749" lon="-105.229789">
  <ele>1583.0</ele>
  <time>2026-08-28T17:53:07Z</time>
  <course>238.64</course>
  <speed>0.0</speed>
  <fix>3d</fix>
</trkpt>
<trkpt lat="40.0713749" lon="-105.229789">
  <ele>1583.0</ele>
  <time>2026-08-28T17:53:07Z</time>
  <course>0.0</course>
  <speed>0.0</speed>
  <fix>3d</fix>
</trkpt>
<trkpt lat="40.0713749" lon="-105.229789">
  <ele>1583.0</ele>
  <time>2026-08-28T17:53:07Z</time>
  <course>238.93</course>
  <speed>0.0</speed>
  <fix>3d</fix>
</trkpt>
<trkpt lat="40.0713749" lon="-105.229789">
  <ele>1583.0</ele>
  <time>2026-08-28T17:53:07Z</time>
  <course>0.0</course>
  <speed>0.0</speed>
  <fix>3d</fix>
</trkpt>
<trkpt lat="40.0713749" lon="-105.229789">
  <ele>1583.0</ele>
  <time>2026-08-28T17:53:07Z</time>
  <course>239.26</course>
  <speed>0.0</speed>
  <fix>3d</fix>
</trkpt>
<trkpt lat="40.0713749" lon="-105.229789">
  <ele>1583.0</ele>
  <time>2026-08-28T17:53:07Z</time>
  <course>0.0</course>
  <speed>0.0</speed>
  <fix>3d</fix>
</trkpt>
<trkpt lat="40.0713749" lon="-105.229789">
  <ele>1583.0</ele>
  <time>2026-08-28T17:53:07Z</time>
  <course>239.61</course>
  <speed>0.0</speed>
  <fix>3d</fix>
</trkpt>
<trkpt lat="40.0713749" lon="-105.229789">
  <ele>1583.0</ele>
  <time>2026-08-28T17:53:07Z</time>
  <course>0.0</course>
  <speed>0.0</speed>
  <fix>3d</fix>
</trkpt>
<trkpt lat="40.0713749" lon="-105.229789">
  <ele>1583.0</ele>
  <time>2026-08-28T17:53:07Z</time>
  <course>239.96</course>
  <speed>0.0</speed>
  <fix>3d</fix>
</trkpt>
<trkpt lat="40.0713749" lon="-105.229789">
  <ele>1583.0</ele>
  <time>2026-08-28T17:53:07Z</time>
  <course>0.0</course>
  <speed>0.0</speed>
  <fix>3d</fix>
</trkpt>
<trkpt lat="40.0713749" lon="-105.229789">
  <ele>1583.0</ele>
  <time>2026-08-28T17:53:07Z</time>
  <course>240.29</course>
  <speed>0.0</speed>
  <fix>3d</fix>
</trkpt>
<trkpt lat="40.0713749" lon="-105.229789">
  <ele>1583.0</ele>
  <time>2026-08-28T17:53:07Z</time>
  <course>0.0</course>
  <speed>0.0</speed>
  <fix>3d</fix>
</trkpt>
<trkpt lat="40.0713749" lon="-105.229789">
  <ele>1583.0</ele>
  <time>2026-08-28T17:53:07Z</time>
  <course>240.61</course>
  <speed>0.0</speed>
  <fix>3d</fix>
</trkpt>
<trkpt lat="40.0713749" lon="-105.229789">
  <ele>1583.0</ele>
  <time>2026-08-28T17:53:07Z</time>
  <course>0.0</course>
  <speed>0.0</speed>
  <fix>3d</fix>
</trkpt>
<trkpt lat="40.0713749" lon="-105.229789">
  <ele>1583.0</ele>
  <time>2026-08-28T17:53:07Z</time>
  <course>240.92</course>
  <speed>0.0</speed>
  <fix>3d</fix>
</trkpt>
<trkpt lat="40.0713749" lon="-105.229789">
  <ele>1583.0</ele>
  <time>2026-08-28T17:53:07Z</time>
  <course>0.0</course>
  <speed>0.0</speed>
  <fix>3d</fix>
</trkpt>
<trkpt lat="40.0713749" lon="-105.229789">
  <ele>1583.0</ele>
  <time>2026-08-28T17:53:07Z</time>
  <course>241.21</course>
  <speed>0.0</speed>
  <fix>3d</fix>
</trkpt>
<trkpt lat="40.0713749" lon="-105.229789">
  <ele>1583.0</ele>
  <time>2026-08-28T17:53:07Z</time>
  <course>0.0</course>
  <speed>0.0</speed>
  <fix>3d</fix>
</trkpt>
<trkpt lat="40.0713749" lon="-105.229789">
  <ele>1583.0</ele>
  <time>2026-08-28T17:53:07Z</time>
  <course>241.49</course>
  <speed>0.0</speed>
  <fix>3d</fix>
</trkpt>
<trkpt lat="40.0713749" lon="-105.229789">
  <ele>1583.0</ele>
  <time>2026-08-28T17:53:07Z</time>
  <course>0.0</course>
  <speed>0.0</speed>
  <fix>3d</fix>
</trkpt>
<trkpt lat="40.0713749" lon="-105.229789">
  <ele>1583.0</ele>
  <time>2026-08-28T17:53:07Z</time>
  <course>241.77</course>
  <speed>0.0</speed>
  <fix>3d</fix>
</trkpt>
<trkpt lat="40.0713749" lon="-105.229789">
  <ele>1583.0</ele>
  <time>2026-08-28T17:53:07Z</time>
  <course>0.0</course>
  <speed>0.0</speed>
  <fix>3d</fix>
</trkpt>
<trkpt lat="40.0713749" lon="-105.229789">
  <ele>1583.0</ele>
  <time>2026-08-28T17:53:07Z</time>
  <course>242.03</course>
  <speed>0.0</speed>
  <fix>3d</fix>
</trkpt>
<trkpt lat="40.0713749" lon="-105.229789">
  <ele>1583.0</ele>
  <time>2026-08-28T17:53:07Z</time>
  <course>0.0</course>
  <speed>0.0</speed>
  <fix>3d</fix>
</trkpt>
<trkpt lat="40.0713749" lon="-105.229789">
  <ele>1583.0</ele>
  <time>2026-08-28T17:53:07Z</time>
  <course>242.29</course>
  <speed>0.0</speed>
  <fix>3d</fix>
</trkpt>
<trkpt lat="40.0713749" lon="-105.229789">
  <ele>1583.0</ele>
  <time>2026-08-28T17:53:07Z</time>
  <course>0.0</course>
  <speed>0.0</speed>
  <fix>3d</fix>
</trkpt>
<trkpt lat="40.0713749" lon="-105.229789">
  <ele>1583.0</ele>
  <time>2026-08-28T17:53:07Z</time>
  <course>242.55</course>
  <speed>0.0</speed>
  <fix>3d</fix>
</trkpt>
<trkpt lat="40.0713749" lon="-105.229789">
  <ele>1583.0</ele>
  <time>2026-08-28T17:53:07Z</time>
  <course>0.0</course>
  <speed>0.0</speed>
  <fix>3d</fix>
</trkpt>
<trkpt lat="40.0713749" lon="-105.229789">
  <ele>1583.0</ele>
  <time>2026-08-28T17:53:07Z</time>
  <course>242.79</course>
  <speed>0.0</speed>
  <fix>3d</fix>
</trkpt>
<trkpt lat="40.0713749" lon="-105.229789">
  <ele>1583.0</ele>
  <time>2026-08-28T17:53:07Z</time>
  <course>0.0</course>
  <speed>0.0</speed>
  <fix>3d</fix>
</trkpt>
<trkpt lat="40.0713749" lon="-105.229789">
  <ele>1583.0</ele>
  <time>2026-08-28T17:53:07Z</time>
  <course>243.02</course>
  <speed>0.0</speed>
  <fix>3d</fix>
</trkpt>
<trkpt lat="40.0713749" lon="-105.229789">
  <ele>1583.0</ele>
  <time>2026-08-28T17:53:07Z</time>
  <course>0.0</course>
  <speed>0.0</speed>
  <fix>3d</fix>
</trkpt>
<trkpt lat="40.0713749" lon="-105.229789">
  <ele>1583.0</ele>
  <time>2026-08-28T17:53:07Z</time>
  <course>243.25</course>
  <speed>0.0</speed>
  <fix>3d</fix>
</trkpt>
<trkpt lat="40.0713749" lon="-105.229789">
  <ele>1583.0</ele>
  <time>2026-08-28T17:53:07Z</time>
  <course>0.0</course>
  <speed>0.0</speed>
  <fix>3d</fix>
</trkpt>
<trkpt lat="40.0713749" lon="-105.229789">
  <ele>1583.0</ele>
  <time>2026-08-28T17:53:07Z</time>
  <course>243.47</course>
  <speed>0.0</speed>
  <fix>3d</fix>
</trkpt>
<trkpt lat="40.0713749" lon="-105.229789">
  <ele>1583.0</ele>
  <time>2026-08-28T17:53:07Z</time>
  <course>0.0</course>
  <speed>0.0</speed>
  <fix>3d</fix>
</trkpt>
<trkpt lat="40.0713749" lon="-105.229789">
  <ele>1583.0</ele>
  <time>2026-08-28T17:53:07Z</time>
  <course>243.69</course>
  <speed>0.0</speed>
  <fix>3d</fix>
</trkpt>
<trkpt lat="40.0713749" lon="-105.229789">
  <ele>1583.0</ele>
  <time>2026-08-28T17:53:07Z</time>
  <course>0.0</course>
  <speed>0.0</speed>
  <fix>3d</fix>
</trkpt>
<trkpt lat="40.0713749" lon="-105.229789">
  <ele>1583.0</ele>
  <time>2026-08-28T17:53:07Z</time>
  <course>243.89</course>
  <speed>0.0</speed>
  <fix>3d</fix>
</trkpt>
<trkpt lat="40.0713749" lon="-105.229789">
  <ele>1583.0</ele>
  <time>2026-08-28T17:53:07Z</time>
  <course>0.0</course>
  <speed>0.0</speed>
  <fix>3d</fix>
</trkpt>
<trkpt lat="40.0713749" lon="-105.229789">
  <ele>1583.0</ele>
  <time>2026-08-28T17:53:07Z</time>
  <course>244.09</course>
  <speed>0.0</speed>
  <fix>3d</fix>
</trkpt>
<trkpt lat="40.0713749" lon="-105.229789">
  <ele>1583.0</ele>
  <time>2026-08-28T17:53:07Z</time>
  <course>0.0</course>
  <speed>0.0</speed>
  <fix>3d</fix>
</trkpt>
<trkpt lat="40.0713749" lon="-105.229789">
  <ele>1583.0</ele>
  <time>2026-08-28T17:53:07Z</time>
  <course>244.28</course>
  <speed>0.0</speed>
  <fix>3d</fix>
</trkpt>
<trkpt lat="40.0713749" lon="-105.229789">
  <ele>1583.0</ele>
  <time>2026-08-28T17:53:07Z</time>
  <course>0.0</course>
  <speed>0.0</speed>
  <fix>3d</fix>
</trkpt>
<trkpt lat="40.0713749" lon="-105.229789">
  <ele>1583.0</ele>
  <time>2026-08-28T17:53:07Z</time>
  <course>244.46</course>
  <speed>0.0</speed>
  <fix>3d</fix>
</trkpt>
<trkpt lat="40.0713749" lon="-105.229789">
  <ele>1583.0</ele>
  <time>2026-08-28T17:53:07Z</time>
  <course>0.0</course>
  <speed>0.0</speed>
  <fix>3d</fix>
</trkpt>
<trkpt lat="40.0713749" lon="-105.229789">
  <ele>1583.0</ele>
  <time>2026-08-28T17:53:07Z</time>
  <course>244.64</course>
  <speed>0.0</speed>
  <fix>3d</fix>
</trkpt>
<trkpt lat="40.0713749" lon="-105.229789">
  <ele>1583.0</ele>
  <time>2026-08-28T17:53:07Z</time>
  <course>0.0</course>
  <speed>0.0</speed>
  <fix>3d</fix>
</trkpt>
<trkpt lat="40.0713749" lon="-105.229789">
  <ele>1583.0</ele>
  <time>2026-08-28T17:53:07Z</time>
  <course>244.81</course>
  <speed>0.0</speed>
  <fix>3d</fix>
</trkpt>
<trkpt lat="40.0713749" lon="-105.229789">
  <ele>1583.0</ele>
  <time>2026-08-28T17:53:07Z</time>
  <course>0.0</course>
  <speed>0.0</speed>
  <fix>3d</fix>
</trkpt>
<trkpt lat="40.0713749" lon="-105.229789">
  <ele>1583.0</ele>
  <time>2026-08-28T17:53:07Z</time>
  <course>244.98</course>
  <speed>0.0</speed>
  <fix>3d</fix>
</trkpt>
<trkpt lat="40.0713749" lon="-105.229789">
  <ele>1583.0</ele>
  <time>2026-08-28T17:53:07Z</time>
  <course>0.0</course>
  <speed>0.0</speed>
  <fix>3d</fix>
</trkpt>
<trkpt lat="40.0713749" lon="-105.229789">
  <ele>1583.0</ele>
  <time>2026-08-28T17:53:07Z</time>
  <course>245.14</course>
  <speed>0.0</speed>
  <fix>3d</fix>
</trkpt>
<trkpt lat="40.0713749" lon="-105.229789">
  <ele>1583.0</ele>
  <time>2026-08-28T17:53:07Z</time>
  <course>0.0</course>
  <speed>0.0</speed>
  <fix>3d</fix>
</trkpt>
<trkpt lat="40.0713749" lon="-105.229789">
  <ele>1583.0</ele>
  <time>2026-08-28T17:53:07Z</time>
  <course>245.29</course>
  <speed>0.0</speed>
  <fix>3d</fix>
</trkpt>
<trkpt lat="40.0713749" lon="-105.229789">
  <ele>1583.0</ele>
  <time>2026-08-28T17:53:07Z</time>
  <course>0.0</course>
  <speed>0.0</speed>
  <fix>3d</fix>
</trkpt>
<trkpt lat="40.0713749" lon="-105.229789">
  <ele>1583.0</ele>
  <time>2026-08-28T17:53:07Z</time>
  <course>245.43</course>
  <speed>0.0</speed>
  <fix>3d</fix>
</trkpt>
<trkpt lat="40.0713749" lon="-105.229789">
  <ele>1583.0</ele>
  <time>2026-08-28T17:53:07Z</time>
  <course>0.0</course>
  <speed>0.0</speed>
  <fix>3d</fix>
</trkpt>
<trkpt lat="40.0713749" lon="-105.229789">
  <ele>1583.0</ele>
  <time>2026-08-28T17:53:07Z</time>
  <course>245.57</course>
  <speed>0.0</speed>
  <fix>3d</fix>
</trkpt>
<trkpt lat="40.0713749" lon="-105.229789">
  <ele>1583.0</ele>
  <time>2026-08-28T17:53:07Z</time>
  <course>0.0</course>
  <speed>0.0</speed>
  <fix>3d</fix>
</trkpt>
<trkpt lat="40.0713749" lon="-105.229789">
  <ele>1583.0</ele>
  <time>2026-08-28T17:53:07Z</time>
  <course>245.71</course>
  <speed>0.0</speed>
  <fix>3d</fix>
</trkpt>
<trkpt lat="40.0713749" lon="-105.229789">
  <ele>1583.0</ele>
  <time>2026-08-28T17:53:07Z</time>
  <course>0.0</course>
  <speed>0.0</speed>
  <fix>3d</fix>
</trkpt>
<trkpt lat="40.0713749" lon="-105.229789">
  <ele>1583.0</ele>
  <time>2026-08-28T17:53:07Z</time>
  <course>245.84</course>
  <speed>0.0</speed>
  <fix>3d</fix>
</trkpt>
<trkpt lat="40.0713749" lon="-105.229789">
  <ele>1583.0</ele>
  <time>2026-08-28T17:53:07Z</time>
  <course>0.0</course>
  <speed>0.0</speed>
  <fix>3d</fix>
</trkpt>
<trkpt lat="40.0713749" lon="-105.229789">
  <ele>1583.0</ele>
  <time>2026-08-28T17:53:07Z</time>
  <course>245.96</course>
  <speed>0.0</speed>
  <fix>3d</fix>
</trkpt>
<trkpt lat="40.0713749" lon="-105.229789">
  <ele>1583.0</ele>
  <time>2026-08-28T17:53:07Z</time>
  <course>0.0</course>
  <speed>0.0</speed>
  <fix>3d</fix>
</trkpt>
<trkpt lat="40.0713749" lon="-105.229789">
  <ele>1583.0</ele>
  <time>2026-08-28T17:53:07Z</time>
  <course>246.08</course>
  <speed>0.0</speed>
  <fix>3d</fix>
</trkpt>
<trkpt lat="40.0713749" lon="-105.229789">
  <ele>1583.0</ele>
  <time>2026-08-28T17:53:07Z</time>
  <course>0.0</course>
  <speed>0.0</speed>
  <fix>3d</fix>
</trkpt>
<trkpt lat="40.0713749" lon="-105.229789">
  <ele>1583.0</ele>
  <time>2026-08-28T17:53:07Z</time>
  <course>246.2</course>
  <speed>0.0</speed>
  <fix>3d</fix>
</trkpt>
<trkpt lat="40.0713749" lon="-105.229789">
  <ele>1583.0</ele>
  <time>2026-08-28T17:53:07Z</time>
  <course>0.0</course>
  <speed>0.0</speed>
  <fix>3d</fix>
</trkpt>
<trkpt lat="40.0713749" lon="-105.229789">
  <ele>1583.0</ele>
  <time>2026-08-28T17:53:07Z</time>
  <course>246.31</course>
  <speed>0.0</speed>
  <fix>3d</fix>
</trkpt>
<trkpt lat="40.0713749" lon="-105.229789">
  <ele>1583.0</ele>
  <time>2026-08-28T17:53:07Z</time>
  <course>0.0</course>
  <speed>0.0</speed>
  <fix>3d</fix>
</trkpt>
<trkpt lat="40.0713749" lon="-105.229789">
  <ele>1583.0</ele>
  <time>2026-08-28T17:53:07Z</time>
  <course>246.41</course>
  <speed>0.0</speed>
  <fix>3d</fix>
</trkpt>
<trkpt lat="40.0713749" lon="-105.229789">
  <ele>1583.0</ele>
  <time>2026-08-28T17:53:07Z</time>
  <course>0.0</course>
  <speed>0.0</speed>
  <fix>3d</fix>
</trkpt>
<trkpt lat="40.0713749" lon="-105.229789">
  <ele>1583.0</ele>
  <time>2026-08-28T17:53:07Z</time>
  <course>246.51</course>
  <speed>0.0</speed>
  <fix>3d</fix>
</trkpt>
<trkpt lat="40.0713749" lon="-105.229789">
  <ele>1583.0</ele>
  <time>2026-08-28T17:53:07Z</time>
  <course>0.0</course>
  <speed>0.0</speed>
  <fix>3d</fix>
</trkpt>
<trkpt lat="40.0713749" lon="-105.229789">
  <ele>1583.0</ele>
  <time>2026-08-28T17:53:07Z</time>
  <course>246.61</course>
  <speed>0.0</speed>
  <fix>3d</fix>
</trkpt>
<trkpt lat="40.0713749" lon="-105.229789">
  <ele>1583.0</ele>
  <time>2026-08-28T17:53:07Z</time>
  <course>0.0</course>
  <speed>0.0</speed>
  <fix>3d</fix>
</trkpt>
<trkpt lat="40.0713749" lon="-105.229789">
  <ele>1583.0</ele>
  <time>2026-08-28T17:53:07Z</time>
  <course>246.7</course>
  <speed>0.0</speed>
  <fix>3d</fix>
</trkpt>
<trkpt lat="40.0713749" lon="-105.229789">
  <ele>1583.0</ele>
  <time>2026-08-28T17:53:07Z</time>
  <course>0.0</course>
  <speed>0.0</speed>
  <fix>3d</fix>
</trkpt>
<trkpt lat="40.0713749" lon="-105.229789">
  <ele>1583.0</ele>
  <time>2026-08-28T17:53:07Z</time>
  <course>246.79</course>
  <speed>0.0</speed>
  <fix>3d</fix>
</trkpt>
<trkpt lat="40.0713749" lon="-105.229789">
  <ele>1583.0</ele>
  <time>2026-08-28T17:53:07Z</time>
  <course>0.0</course>
  <speed>0.0</speed>
  <fix>3d</fix>
</trkpt>
<trkpt lat="40.0713749" lon="-105.229789">
  <ele>1583.0</ele>
  <time>2026-08-28T17:53:07Z</time>
  <course>246.87</course>
  <speed>0.0</speed>
  <fix>3d</fix>
</trkpt>
<trkpt lat="40.0713749" lon="-105.229789">
  <ele>1583.0</ele>
  <time>2026-08-28T17:53:07Z</time>
  <course>0.0</course>
  <speed>0.0</speed>
  <fix>3d</fix>
</trkpt>
<trkpt lat="40.0713749" lon="-105.229789">
  <ele>1583.0</ele>
  <time>2026-08-28T17:53:07Z</time>
  <course>246.95</course>
  <speed>0.0</speed>
  <fix>3d</fix>
</trkpt>
<trkpt lat="40.0713749" lon="-105.229789">
  <ele>1583.0</ele>
  <time>2026-08-28T17:53:07Z</time>
  <course>0.0</course>
  <speed>0.0</speed>
  <fix>3d</fix>
</trkpt>
<trkpt lat="40.0713749" lon="-105.229789">
  <ele>1583.0</ele>
  <time>2026-08-28T17:53:07Z</time>
  <course>247.03</course>
  <speed>0.0</speed>
  <fix>3d</fix>
</trkpt>
<trkpt lat="40.0713749" lon="-105.229789">
  <ele>1583.0</ele>
  <time>2026-08-28T17:53:07Z</time>
  <course>0.0</course>
  <speed>0.0</speed>
  <fix>3d</fix>
</trkpt>
<trkpt lat="40.0713749" lon="-105.229789">
  <ele>1583.0</ele>
  <time>2026-08-28T17:53:07Z</time>
  <course>247.1</course>
  <speed>0.0</speed>
  <fix>3d</fix>
</trkpt>
<trkpt lat="40.0713749" lon="-105.229789">
  <ele>1583.0</ele>
  <time>2026-08-28T17:53:07Z</time>
  <course>0.0</course>
  <speed>0.0</speed>
  <fix>3d</fix>
</trkpt>
<trkpt lat="40.0713749" lon="-105.229789">
  <ele>1583.0</ele>
  <time>2026-08-28T17:53:07Z</time>
  <course>247.17</course>
  <speed>0.0</speed>
  <fix>3d</fix>
</trkpt>
<trkpt lat="40.0713749" lon="-105.229789">
  <ele>1583.0</ele>
  <time>2026-08-28T17:53:07Z</time>
  <course>0.0</course>
  <speed>0.0</speed>
  <fix>3d</fix>
</trkpt>
<trkpt lat="40.0713749" lon="-105.229789">
  <ele>1583.0</ele>
  <time>2026-08-28T17:53:07Z</time>
  <course>247.24</course>
  <speed>0.0</speed>
  <fix>3d</fix>
</trkpt>
<trkpt lat="40.0713749" lon="-105.229789">
  <ele>1583.0</ele>
  <time>2026-08-28T17:53:07Z</time>
  <course>0.0</course>
  <speed>0.0</speed>
  <fix>3d</fix>
</trkpt>
<trkpt lat="40.0713749" lon="-105.229789">
  <ele>1583.0</ele>
  <time>2026-08-28T17:53:07Z</time>
  <course>247.3</course>
  <speed>0.0</speed>
  <fix>3d</fix>
</trkpt>
<trkpt lat="40.0713749" lon="-105.229789">
  <ele>1583.0</ele>
  <time>2026-08-28T17:53:07Z</time>
  <course>0.0</course>
  <speed>0.0</speed>
  <fix>3d</fix>
</trkpt>
<trkpt lat="40.0713749" lon="-105.229789">
  <ele>1583.0</ele>
  <time>2026-08-28T17:53:07Z</time>
  <course>247.36</course>
  <speed>0.0</speed>
  <fix>3d</fix>
</trkpt>
<trkpt lat="40.0713749" lon="-105.229789">
  <ele>1583.0</ele>
  <time>2026-08-28T17:53:07Z</time>
  <course>0.0</course>
  <speed>0.0</speed>
  <fix>3d</fix>
</trkpt>
<trkpt lat="40.0713749" lon="-105.229789">
  <ele>1583.0</ele>
  <time>2026-08-28T17:53:07Z</time>
  <course>247.42</course>
  <speed>0.0</speed>
  <fix>3d</fix>
</trkpt>
<trkpt lat="40.0713749" lon="-105.229789">
  <ele>1583.0</ele>
  <time>2026-08-28T17:53:07Z</time>
  <course>0.0</course>
  <speed>0.0</speed>
  <fix>3d</fix>
</trkpt>
<trkpt lat="40.0713749" lon="-105.229789">
  <ele>1583.0</ele>
  <time>2026-08-28T17:53:07Z</time>
  <course>247.48</course>
  <speed>0.0</speed>
  <fix>3d</fix>
</trkpt>
<trkpt lat="40.0713749" lon="-105.229789">
  <ele>1583.0</ele>
  <time>2026-08-28T17:53:07Z</time>
  <course>0.0</course>
  <speed>0.0</speed>
  <fix>3d</fix>
</trkpt>
<trkpt lat="40.0713749" lon="-105.229789">
  <ele>1583.0</ele>
  <time>2026-08-28T17:53:07Z</time>
  <course>247.53</course>
  <speed>0.0</speed>
  <fix>3d</fix>
</trkpt>
<trkpt lat="40.0713749" lon="-105.229789">
  <ele>1583.0</ele>
  <time>2026-08-28T17:53:07Z</time>
  <course>0.0</course>
  <speed>0.0</speed>
  <fix>3d</fix>
</trkpt>
<trkpt lat="40.0713749" lon="-105.229789">
  <ele>1583.0</ele>
  <time>2026-08-28T17:53:07Z</time>
  <course>247.58</course>
  <speed>0.0</speed>
  <fix>3d</fix>
</trkpt>
<trkpt lat="40.0713749" lon="-105.229789">
  <ele>1583.0</ele>
  <time>2026-08-28T17:53:07Z</time>
  <course>0.0</course>
  <speed>0.0</speed>
  <fix>3d</fix>
</trkpt>
<trkpt lat="39.655741" lon="-104.1383097">
  <ele>1566.58</ele>
  <time>2026-08-28T17:53:08Z</time>
  <course>0.0</course>
  <speed>0.0</speed>
  <fix>3d</fix>
</trkpt>
<trkpt lat="40.0713749" lon="-105.229789">
  <ele>1583.0</ele>
  <time>2026-08-28T17:53:08Z</time>
  <course>0.0</course>
  <speed>0.0</speed>
  <fix>3d</fix>
</trkpt>
<trkpt lat="40.0713749" lon="-105.229789">
  <ele>1583.0</ele>
  <time>2026-08-28T17:53:08Z</time>
  <course>238.36</course>
  <speed>0.0</speed>
  <fix>3d</fix>
</trkpt>
<trkpt lat="40.0713749" lon="-105.229789">
  <ele>1583.0</ele>
  <time>2026-08-28T17:53:08Z</time>
  <course>0.0</course>
  <speed>0.0</speed>
  <fix>3d</fix>
</trkpt>
<trkpt lat="40.0713749" lon="-105.229789">
  <ele>1583.0</ele>
  <time>2026-08-28T17:53:08Z</time>
  <course>238.44</course>
  <speed>0.0</speed>
  <fix>3d</fix>
</trkpt>
<trkpt lat="40.0713749" lon="-105.229789">
  <ele>1583.0</ele>
  <time>2026-08-28T17:53:08Z</time>
  <course>0.0</course>
  <speed>0.0</speed>
  <fix>3d</fix>
</trkpt>
<trkpt lat="40.0713749" lon="-105.229789">
  <ele>1583.0</ele>
  <time>2026-08-28T17:53:08Z</time>
  <course>238.64</course>
  <speed>0.0</speed>
  <fix>3d</fix>
</trkpt>
<trkpt lat="40.0713749" lon="-105.229789">
  <ele>1583.0</ele>
  <time>2026-08-28T17:53:08Z</time>
  <course>0.0</course>
  <speed>0.0</speed>
  <fix>3d</fix>
</trkpt>
<trkpt lat="40.0713749" lon="-105.229789">
  <ele>1583.0</ele>
  <time>2026-08-28T17:53:08Z</time>
  <course>238.93</course>
  <speed>0.0</speed>
  <fix>3d</fix>
</trkpt>
<trkpt lat="40.0713749" lon="-105.229789">
  <ele>1583.0</ele>
  <time>2026-08-28T17:53:08Z</time>
  <course>0.0</course>
  <speed>0.0</speed>
  <fix>3d</fix>
</trkpt>
<trkpt lat="40.0713749" lon="-105.229789">
  <ele>1583.0</ele>
  <time>2026-08-28T17:53:08Z</time>
  <course>239.26</course>
  <speed>0.0</speed>
  <fix>3d</fix>
</trkpt>
<trkpt lat="40.0713749" lon="-105.229789">
  <ele>1583.0</ele>
  <time>2026-08-28T17:53:08Z</time>
  <course>0.0</course>
  <speed>0.0</speed>
  <fix>3d</fix>
</trkpt>
<trkpt lat="39.655741" lon="-104.1383097">
  <ele>1566.58</ele>
  <time>2026-08-28T17:53:08Z</time>
  <course>0.0</course>
  <speed>0.0</speed>
  <fix>3d</fix>
</trkpt>
<trkpt lat="40.0713749" lon="-105.229789">
  <ele>1583.0</ele>
  <time>2026-08-28T17:53:08Z</time>
  <course>0.0</course>
  <speed>0.0</speed>
  <fix>3d</fix>
</trkpt>
<trkpt lat="40.0713749" lon="-105.229789">
  <ele>1583.0</ele>
  <time>2026-08-28T17:53:08Z</time>
  <course>238.36</course>
  <speed>0.0</speed>
  <fix>3d</fix>
</trkpt>
<trkpt lat="40.0713749" lon="-105.229789">
  <ele>1583.0</ele>
  <time>2026-08-28T17:53:08Z</time>
  <course>0.0</course>
  <speed>0.0</speed>
  <fix>3d</fix>
</trkpt>
<trkpt lat="40.0713749" lon="-105.229789">
  <ele>1583.0</ele>
  <time>2026-08-28T17:53:08Z</time>
  <course>238.44</course>
  <speed>0.0</speed>
  <fix>3d</fix>
</trkpt>
<trkpt lat="40.0713749" lon="-105.229789">
  <ele>1583.0</ele>
  <time>2026-08-28T17:53:08Z</time>
  <course>0.0</course>
  <speed>0.0</speed>
  <fix>3d</fix>
</trkpt>
<trkpt lat="40.0713749" lon="-105.229789">
  <ele>1583.0</ele>
  <time>2026-08-28T17:53:08Z</time>
  <course>238.64</course>
  <speed>0.0</speed>
  <fix>3d</fix>
</trkpt>
<trkpt lat="40.0713749" lon="-105.229789">
  <ele>1583.0</ele>
  <time>2026-08-28T17:53:08Z</time>
  <course>0.0</course>
  <speed>0.0</speed>
  <fix>3d</fix>
</trkpt>
<trkpt lat="40.0713749" lon="-105.229789">
  <ele>1583.0</ele>
  <time>2026-08-28T17:53:08Z</time>
  <course>238.93</course>
  <speed>0.0</speed>
  <fix>3d</fix>
</trkpt>
<trkpt lat="40.0713749" lon="-105.229789">
  <ele>1583.0</ele>
  <time>2026-08-28T17:53:08Z</time>
  <course>0.0</course>
  <speed>0.0</speed>
  <fix>3d</fix>
</trkpt>
<trkpt lat="40.0713749" lon="-105.229789">
  <ele>1583.0</ele>
  <time>2026-08-28T17:53:08Z</time>
  <course>239.26</course>
  <speed>0.0</speed>
  <fix>3d</fix>
</trkpt>
<trkpt lat="40.0713749" lon="-105.229789">
  <ele>1583.0</ele>
  <time>2026-08-28T17:53:08Z</time>
  <course>0.0</course>
  <speed>0.0</speed>
  <fix>3d</fix>
</trkpt>
<trkpt lat="40.0713749" lon="-105.229789">
  <ele>1583.0</ele>
  <time>2026-08-28T17:53:08Z</time>
  <course>239.61</course>
  <speed>0.0</speed>
  <fix>3d</fix>
</trkpt>
<trkpt lat="40.0713749" lon="-105.229789">
  <ele>1583.0</ele>
  <time>2026-08-28T17:53:08Z</time>
  <course>0.0</course>
  <speed>0.0</speed>
  <fix>3d</fix>
</trkpt>
<trkpt lat="40.0713749" lon="-105.229789">
  <ele>1583.0</ele>
  <time>2026-08-28T17:53:08Z</time>
  <course>239.96</course>
  <speed>0.0</speed>
  <fix>3d</fix>
</trkpt>
<trkpt lat="40.0713749" lon="-105.229789">
  <ele>1583.0</ele>
  <time>2026-08-28T17:53:08Z</time>
  <course>0.0</course>
  <speed>0.0</speed>
  <fix>3d</fix>
</trkpt>
<trkpt lat="40.0713749" lon="-105.229789">
  <ele>1583.0</ele>
  <time>2026-08-28T17:53:08Z</time>
  <course>240.29</course>
  <speed>0.0</speed>
  <fix>3d</fix>
</trkpt>
<trkpt lat="40.0713749" lon="-105.229789">
  <ele>1583.0</ele>
  <time>2026-08-28T17:53:08Z</time>
  <course>0.0</course>
  <speed>0.0</speed>
  <fix>3d</fix>
</trkpt>
<trkpt lat="40.0713749" lon="-105.229789">
  <ele>1583.0</ele>
  <time>2026-08-28T17:53:08Z</time>
  <course>240.61</course>
  <speed>0.0</speed>
  <fix>3d</fix>
</trkpt>
<trkpt lat="40.0713749" lon="-105.229789">
  <ele>1583.0</ele>
  <time>2026-08-28T17:53:08Z</time>
  <course>0.0</course>
  <speed>0.0</speed>
  <fix>3d</fix>
</trkpt>
<trkpt lat="40.0713749" lon="-105.229789">
  <ele>1583.0</ele>
  <time>2026-08-28T17:53:08Z</time>
  <course>240.92</course>
  <speed>0.0</speed>
  <fix>3d</fix>
</trkpt>
<trkpt lat="40.0713749" lon="-105.229789">
  <ele>1583.0</ele>
  <time>2026-08-28T17:53:08Z</time>
  <course>0.0</course>
  <speed>0.0</speed>
  <fix>3d</fix>
</trkpt>
<trkpt lat="40.0713749" lon="-105.229789">
  <ele>1583.0</ele>
  <time>2026-08-28T17:53:08Z</time>
  <course>241.21</course>
  <speed>0.0</speed>
  <fix>3d</fix>
</trkpt>
<trkpt lat="40.0713749" lon="-105.229789">
  <ele>1583.0</ele>
  <time>2026-08-28T17:53:08Z</time>
  <course>0.0</course>
  <speed>0.0</speed>
  <fix>3d</fix>
</trkpt>
<trkpt lat="40.0713749" lon="-105.229789">
  <ele>1583.0</ele>
  <time>2026-08-28T17:53:08Z</time>
  <course>241.49</course>
  <speed>0.0</speed>
  <fix>3d</fix>
</trkpt>
<trkpt lat="40.0713749" lon="-105.229789">
  <ele>1583.0</ele>
  <time>2026-08-28T17:53:08Z</time>
  <course>0.0</course>
  <speed>0.0</speed>
  <fix>3d</fix>
</trkpt>
<trkpt lat="40.0713749" lon="-105.229789">
  <ele>1583.0</ele>
  <time>2026-08-28T17:53:08Z</time>
  <course>241.77</course>
  <speed>0.0</speed>
  <fix>3d</fix>
</trkpt>
<trkpt lat="40.0713749" lon="-105.229789">
  <ele>1583.0</ele>
  <time>2026-08-28T17:53:08Z</time>
  <course>0.0</course>
  <speed>0.0</speed>
  <fix>3d</fix>
</trkpt>
<trkpt lat="40.0713749" lon="-105.229789">
  <ele>1583.0</ele>
  <time>2026-08-28T17:53:08Z</time>
  <course>242.03</course>
  <speed>0.0</speed>
  <fix>3d</fix>
</trkpt>
<trkpt lat="40.0713749" lon="-105.229789">
  <ele>1583.0</ele>
  <time>2026-08-28T17:53:08Z</time>
  <course>0.0</course>
  <speed>0.0</speed>
  <fix>3d</fix>
</trkpt>
<trkpt lat="40.0713749" lon="-105.229789">
  <ele>1583.0</ele>
  <time>2026-08-28T17:53:08Z</time>
  <course>242.29</course>
  <speed>0.0</speed>
  <fix>3d</fix>
</trkpt>
<trkpt lat="40.0713749" lon="-105.229789">
  <ele>1583.0</ele>
  <time>2026-08-28T17:53:08Z</time>
  <course>0.0</course>
  <speed>0.0</speed>
  <fix>3d</fix>
</trkpt>
<trkpt lat="40.0713749" lon="-105.229789">
  <ele>1583.0</ele>
  <time>2026-08-28T17:53:08Z</time>
  <course>242.54</course>
  <speed>0.0</speed>
  <fix>3d</fix>
</trkpt>
<trkpt lat="40.0713749" lon="-105.229789">
  <ele>1583.0</ele>
  <time>2026-08-28T17:53:08Z</time>
  <course>0.0</course>
  <speed>0.0</speed>
  <fix>3d</fix>
</trkpt>
<trkpt lat="40.0713749" lon="-105.229789">
  <ele>1583.0</ele>
  <time>2026-08-28T17:53:08Z</time>
  <course>242.79</course>
  <speed>0.0</speed>
  <fix>3d</fix>
</trkpt>
<trkpt lat="40.0713749" lon="-105.229789">
  <ele>1583.0</ele>
  <time>2026-08-28T17:53:08Z</time>
  <course>0.0</course>
  <speed>0.0</speed>
  <fix>3d</fix>
</trkpt>
<trkpt lat="40.0713749" lon="-105.229789">
  <ele>1583.0</ele>
  <time>2026-08-28T17:53:08Z</time>
  <course>243.02</course>
  <speed>0.0</speed>
  <fix>3d</fix>
</trkpt>
<trkpt lat="40.0713749" lon="-105.229789">
  <ele>1583.0</ele>
  <time>2026-08-28T17:53:08Z</time>
  <course>0.0</course>
  <speed>0.0</speed>
  <fix>3d</fix>
</trkpt>
<trkpt lat="40.0713749" lon="-105.229789">
  <ele>1583.0</ele>
  <time>2026-08-28T17:53:08Z</time>
  <course>243.25</course>
  <speed>0.0</speed>
  <fix>3d</fix>
</trkpt>
<trkpt lat="40.0713749" lon="-105.229789">
  <ele>1583.0</ele>
  <time>2026-08-28T17:53:08Z</time>
  <course>0.0</course>
  <speed>0.0</speed>
  <fix>3d</fix>
</trkpt>
<trkpt lat="40.0713749" lon="-105.229789">
  <ele>1583.0</ele>
  <time>2026-08-28T17:53:08Z</time>
  <course>243.47</course>
  <speed>0.0</speed>
  <fix>3d</fix>
</trkpt>
<trkpt lat="40.0713749" lon="-105.229789">
  <ele>1583.0</ele>
  <time>2026-08-28T17:53:08Z</time>
  <course>0.0</course>
  <speed>0.0</speed>
  <fix>3d</fix>
</trkpt>
<trkpt lat="40.0713749" lon="-105.229789">
  <ele>1583.0</ele>
  <time>2026-08-28T17:53:08Z</time>
  <course>243.68</course>
  <speed>0.0</speed>
  <fix>3d</fix>
</trkpt>
<trkpt lat="40.0713749" lon="-105.229789">
  <ele>1583.0</ele>
  <time>2026-08-28T17:53:08Z</time>
  <course>0.0</course>
  <speed>0.0</speed>
  <fix>3d</fix>
</trkpt>
<trkpt lat="40.0713749" lon="-105.229789">
  <ele>1583.0</ele>
  <time>2026-08-28T17:53:08Z</time>
  <course>243.89</course>
  <speed>0.0</speed>
  <fix>3d</fix>
</trkpt>
<trkpt lat="40.0713749" lon="-105.229789">
  <ele>1583.0</ele>
  <time>2026-08-28T17:53:08Z</time>
  <course>0.0</course>
  <speed>0.0</speed>
  <fix>3d</fix>
</trkpt>
<trkpt lat="40.0713749" lon="-105.229789">
  <ele>1583.0</ele>
  <time>2026-08-28T17:53:08Z</time>
  <course>244.09</course>
  <speed>0.0</speed>
  <fix>3d</fix>
</trkpt>
<trkpt lat="40.0713749" lon="-105.229789">
  <ele>1583.0</ele>
  <time>2026-08-28T17:53:08Z</time>
  <course>0.0</course>
  <speed>0.0</speed>
  <fix>3d</fix>
</trkpt>
<trkpt lat="40.0713749" lon="-105.229789">
  <ele>1583.0</ele>
  <time>2026-08-28T17:53:08Z</time>
  <course>244.28</course>
  <speed>0.0</speed>
  <fix>3d</fix>
</trkpt>
<trkpt lat="40.0713749" lon="-105.229789">
  <ele>1583.0</ele>
  <time>2026-08-28T17:53:08Z</time>
  <course>0.0</course>
  <speed>0.0</speed>
  <fix>3d</fix>
</trkpt>
<trkpt lat="40.0713749" lon="-105.229789">
  <ele>1583.0</ele>
  <time>2026-08-28T17:53:08Z</time>
  <course>244.46</course>
  <speed>0.0</speed>
  <fix>3d</fix>
</trkpt>
<trkpt lat="40.0713749" lon="-105.229789">
  <ele>1583.0</ele>
  <time>2026-08-28T17:53:08Z</time>
  <course>0.0</course>
  <speed>0.0</speed>
  <fix>3d</fix>
</trkpt>
<trkpt lat="40.0713749" lon="-105.229789">
  <ele>1583.0</ele>
  <time>2026-08-28T17:53:08Z</time>
  <course>244.64</course>
  <speed>0.0</speed>
  <fix>3d</fix>
</trkpt>
<trkpt lat="40.0713749" lon="-105.229789">
  <ele>1583.0</ele>
  <time>2026-08-28T17:53:08Z</time>
  <course>0.0</course>
  <speed>0.0</speed>
  <fix>3d</fix>
</trkpt>
<trkpt lat="40.0713749" lon="-105.229789">
  <ele>1583.0</ele>
  <time>2026-08-28T17:53:08Z</time>
  <course>244.81</course>
  <speed>0.0</speed>
  <fix>3d</fix>
</trkpt>
<trkpt lat="40.0713749" lon="-105.229789">
  <ele>1583.0</ele>
  <time>2026-08-28T17:53:08Z</time>
  <course>0.0</course>
  <speed>0.0</speed>
  <fix>3d</fix>
</trkpt>
<trkpt lat="40.0713749" lon="-105.229789">
  <ele>1583.0</ele>
  <time>2026-08-28T17:53:08Z</time>
  <course>244.97</course>
  <speed>0.0</speed>
  <fix>3d</fix>
</trkpt>
<trkpt lat="40.0713749" lon="-105.229789">
  <ele>1583.0</ele>
  <time>2026-08-28T17:53:08Z</time>
  <course>0.0</course>
  <speed>0.0</speed>
  <fix>3d</fix>
</trkpt>
<trkpt lat="40.0713749" lon="-105.229789">
  <ele>1583.0</ele>
  <time>2026-08-28T17:53:08Z</time>
  <course>245.13</course>
  <speed>0.0</speed>
  <fix>3d</fix>
</trkpt>
<trkpt lat="40.0713749" lon="-105.229789">
  <ele>1583.0</ele>
  <time>2026-08-28T17:53:08Z</time>
  <course>0.0</course>
  <speed>0.0</speed>
  <fix>3d</fix>
</trkpt>
<trkpt lat="40.0713749" lon="-105.229789">
  <ele>1583.0</ele>
  <time>2026-08-28T17:53:08Z</time>
  <course>245.29</course>
  <speed>0.0</speed>
  <fix>3d</fix>
</trkpt>
<trkpt lat="40.0713749" lon="-105.229789">
  <ele>1583.0</ele>
  <time>2026-08-28T17:53:08Z</time>
  <course>0.0</course>
  <speed>0.0</speed>
  <fix>3d</fix>
</trkpt>
<trkpt lat="40.0713749" lon="-105.229789">
  <ele>1583.0</ele>
  <time>2026-08-28T17:53:08Z</time>
  <course>245.43</course>
  <speed>0.0</speed>
  <fix>3d</fix>
</trkpt>
<trkpt lat="40.0713749" lon="-105.229789">
  <ele>1583.0</ele>
  <time>2026-08-28T17:53:08Z</time>
  <course>0.0</course>
  <speed>0.0</speed>
  <fix>3d</fix>
</trkpt>
<trkpt lat="40.0713749" lon="-105.229789">
  <ele>1583.0</ele>
  <time>2026-08-28T17:53:08Z</time>
  <course>245.57</course>
  <speed>0.0</speed>
  <fix>3d</fix>
</trkpt>
<trkpt lat="40.0713749" lon="-105.229789">
  <ele>1583.0</ele>
  <time>2026-08-28T17:53:08Z</time>
  <course>0.0</course>
  <speed>0.0</speed>
  <fix>3d</fix>
</trkpt>
<trkpt lat="40.0713749" lon="-105.229789">
  <ele>1583.0</ele>
  <time>2026-08-28T17:53:08Z</time>
  <course>245.71</course>
  <speed>0.0</speed>
  <fix>3d</fix>
</trkpt>
<trkpt lat="40.0713749" lon="-105.229789">
  <ele>1583.0</ele>
  <time>2026-08-28T17:53:08Z</time>
  <course>0.0</course>
  <speed>0.0</speed>
  <fix>3d</fix>
</trkpt>
<trkpt lat="40.0713749" lon="-105.229789">
  <ele>1583.0</ele>
  <time>2026-08-28T17:53:08Z</time>
  <course>245.84</course>
  <speed>0.0</speed>
  <fix>3d</fix>
</trkpt>
<trkpt lat="40.0713749" lon="-105.229789">
  <ele>1583.0</ele>
  <time>2026-08-28T17:53:08Z</time>
  <course>0.0</course>
  <speed>0.0</speed>
  <fix>3d</fix>
</trkpt>
<trkpt lat="40.0713749" lon="-105.229789">
  <ele>1583.0</ele>
  <time>2026-08-28T17:53:08Z</time>
  <course>245.96</course>
  <speed>0.0</speed>
  <fix>3d</fix>
</trkpt>
<trkpt lat="40.0713749" lon="-105.229789">
  <ele>1583.0</ele>
  <time>2026-08-28T17:53:08Z</time>
  <course>0.0</course>
  <speed>0.0</speed>
  <fix>3d</fix>
</trkpt>
<trkpt lat="40.0713749" lon="-105.229789">
  <ele>1583.0</ele>
  <time>2026-08-28T17:53:08Z</time>
  <course>246.08</course>
  <speed>0.0</speed>
  <fix>3d</fix>
</trkpt>
<trkpt lat="40.0713749" lon="-105.229789">
  <ele>1583.0</ele>
  <time>2026-08-28T17:53:08Z</time>
  <course>0.0</course>
  <speed>0.0</speed>
  <fix>3d</fix>
</trkpt>
<trkpt lat="40.0713749" lon="-105.229789">
  <ele>1583.0</ele>
  <time>2026-08-28T17:53:08Z</time>
  <course>246.19</course>
  <speed>0.0</speed>
  <fix>3d</fix>
</trkpt>
<trkpt lat="40.0713749" lon="-105.229789">
  <ele>1583.0</ele>
  <time>2026-08-28T17:53:08Z</time>
  <course>0.0</course>
  <speed>0.0</speed>
  <fix>3d</fix>
</trkpt>
<trkpt lat="40.0713749" lon="-105.229789">
  <ele>1583.0</ele>
  <time>2026-08-28T17:53:08Z</time>
  <course>246.3</course>
  <speed>0.0</speed>
  <fix>3d</fix>
</trkpt>
<trkpt lat="40.0713749" lon="-105.229789">
  <ele>1583.0</ele>
  <time>2026-08-28T17:53:08Z</time>
  <course>0.0</course>
  <speed>0.0</speed>
  <fix>3d</fix>
</trkpt>
<trkpt lat="40.0713749" lon="-105.229789">
  <ele>1583.0</ele>
  <time>2026-08-28T17:53:08Z</time>
  <course>246.41</course>
  <speed>0.0</speed>
  <fix>3d</fix>
</trkpt>
<trkpt lat="40.0713749" lon="-105.229789">
  <ele>1583.0</ele>
  <time>2026-08-28T17:53:08Z</time>
  <course>0.0</course>
  <speed>0.0</speed>
  <fix>3d</fix>
</trkpt>
<trkpt lat="40.0713749" lon="-105.229789">
  <ele>1583.0</ele>
  <time>2026-08-28T17:53:08Z</time>
  <course>246.51</course>
  <speed>0.0</speed>
  <fix>3d</fix>
</trkpt>
<trkpt lat="40.0713749" lon="-105.229789">
  <ele>1583.0</ele>
  <time>2026-08-28T17:53:08Z</time>
  <course>0.0</course>
  <speed>0.0</speed>
  <fix>3d</fix>
</trkpt>
<trkpt lat="40.0713749" lon="-105.229789">
  <ele>1583.0</ele>
  <time>2026-08-28T17:53:08Z</time>
  <course>246.6</course>
  <speed>0.0</speed>
  <fix>3d</fix>
</trkpt>
<trkpt lat="40.0713749" lon="-105.229789">
  <ele>1583.0</ele>
  <time>2026-08-28T17:53:08Z</time>
  <course>0.0</course>
  <speed>0.0</speed>
  <fix>3d</fix>
</trkpt>
<trkpt lat="40.0713749" lon="-105.229789">
  <ele>1583.0</ele>
  <time>2026-08-28T17:53:08Z</time>
  <course>246.7</course>
  <speed>0.0</speed>
  <fix>3d</fix>
</trkpt>
<trkpt lat="40.0713749" lon="-105.229789">
  <ele>1583.0</ele>
  <time>2026-08-28T17:53:08Z</time>
  <course>0.0</course>
  <speed>0.0</speed>
  <fix>3d</fix>
</trkpt>
<trkpt lat="40.0713749" lon="-105.229789">
  <ele>1583.0</ele>
  <time>2026-08-28T17:53:08Z</time>
  <course>246.78</course>
  <speed>0.0</speed>
  <fix>3d</fix>
</trkpt>
<trkpt lat="40.0713749" lon="-105.229789">
  <ele>1583.0</ele>
  <time>2026-08-28T17:53:08Z</time>
  <course>0.0</course>
  <speed>0.0</speed>
  <fix>3d</fix>
</trkpt>
<trkpt lat="40.0713749" lon="-105.229789">
  <ele>1583.0</ele>
  <time>2026-08-28T17:53:08Z</time>
  <course>246.87</course>
  <speed>0.0</speed>
  <fix>3d</fix>
</trkpt>
<trkpt lat="40.0713749" lon="-105.229789">
  <ele>1583.0</ele>
  <time>2026-08-28T17:53:08Z</time>
  <course>0.0</course>
  <speed>0.0</speed>
  <fix>3d</fix>
</trkpt>
<trkpt lat="40.0713749" lon="-105.229789">
  <ele>1583.0</ele>
  <time>2026-08-28T17:53:08Z</time>
  <course>246.95</course>
  <speed>0.0</speed>
  <fix>3d</fix>
</trkpt>
<trkpt lat="40.0713749" lon="-105.229789">
  <ele>1583.0</ele>
  <time>2026-08-28T17:53:08Z</time>
  <course>0.0</course>
  <speed>0.0</speed>
  <fix>3d</fix>
</trkpt>
<trkpt lat="40.0713749" lon="-105.229789">
  <ele>1583.0</ele>
  <time>2026-08-28T17:53:08Z</time>
  <course>247.02</course>
  <speed>0.0</speed>
  <fix>3d</fix>
</trkpt>
<trkpt lat="40.0713749" lon="-105.229789">
  <ele>1583.0</ele>
  <time>2026-08-28T17:53:08Z</time>
  <course>0.0</course>
  <speed>0.0</speed>
  <fix>3d</fix>
</trkpt>
<trkpt lat="40.0713749" lon="-105.229789">
  <ele>1583.0</ele>
  <time>2026-08-28T17:53:08Z</time>
  <course>247.1</course>
  <speed>0.0</speed>
  <fix>3d</fix>
</trkpt>
<trkpt lat="40.0713749" lon="-105.229789">
  <ele>1583.0</ele>
  <time>2026-08-28T17:53:08Z</time>
  <course>0.0</course>
  <speed>0.0</speed>
  <fix>3d</fix>
</trkpt>
<trkpt lat="40.0713749" lon="-105.229789">
  <ele>1583.0</ele>
  <time>2026-08-28T17:53:08Z</time>
  <course>247.17</course>
  <speed>0.0</speed>
  <fix>3d</fix>
</trkpt>
<trkpt lat="40.0713749" lon="-105.229789">
  <ele>1583.0</ele>
  <time>2026-08-28T17:53:08Z</time>
  <course>0.0</course>
  <speed>0.0</speed>
  <fix>3d</fix>
</trkpt>
<trkpt lat="40.0713749" lon="-105.229789">
  <ele>1583.0</ele>
  <time>2026-08-28T17:53:08Z</time>
  <course>247.24</course>
  <speed>0.0</speed>
  <fix>3d</fix>
</trkpt>
<trkpt lat="40.0713749" lon="-105.229789">
  <ele>1583.0</ele>
  <time>2026-08-28T17:53:08Z</time>
  <course>0.0</course>
  <speed>0.0</speed>
  <fix>3d</fix>
</trkpt>
<trkpt lat="40.0713749" lon="-105.229789">
  <ele>1583.0</ele>
  <time>2026-08-28T17:53:08Z</time>
  <course>247.3</course>
  <speed>0.0</speed>
  <fix>3d</fix>
</trkpt>
<trkpt lat="40.0713749" lon="-105.229789">
  <ele>1583.0</ele>
  <time>2026-08-28T17:53:08Z</time>
  <course>0.0</course>
  <speed>0.0</speed>
  <fix>3d</fix>
</trkpt>
<trkpt lat="40.0713749" lon="-105.229789">
  <ele>1583.0</ele>
  <time>2026-08-28T17:53:08Z</time>
  <course>247.36</course>
  <speed>0.0</speed>
  <fix>3d</fix>
</trkpt>
<trkpt lat="40.0713749" lon="-105.229789">
  <ele>1583.0</ele>
  <time>2026-08-28T17:53:08Z</time>
  <course>0.0</course>
  <speed>0.0</speed>
  <fix>3d</fix>
</trkpt>
<trkpt lat="40.0713749" lon="-105.229789">
  <ele>1583.0</ele>
  <time>2026-08-28T17:53:08Z</time>
  <course>247.42</course>
  <speed>0.0</speed>
  <fix>3d</fix>
</trkpt>
<trkpt lat="40.0713749" lon="-105.229789">
  <ele>1583.0</ele>
  <time>2026-08-28T17:53:08Z</time>
  <course>0.0</course>
  <speed>0.0</speed>
  <fix>3d</fix>
</trkpt>
<trkpt lat="40.0713749" lon="-105.229789">
  <ele>1583.0</ele>
  <time>2026-08-28T17:53:08Z</time>
  <course>247.47</course>
  <speed>0.0</speed>
  <fix>3d</fix>
</trkpt>
<trkpt lat="40.0713749" lon="-105.229789">
  <ele>1583.0</ele>
  <time>2026-08-28T17:53:08Z</time>
  <course>0.0</course>
  <speed>0.0</speed>
  <fix>3d</fix>
</trkpt>
<trkpt lat="40.0713749" lon="-105.229789">
  <ele>1583.0</ele>
  <time>2026-08-28T17:53:08Z</time>
  <course>247.53</course>
  <speed>0.0</speed>
  <fix>3d</fix>
</trkpt>
<trkpt lat="40.0713749" lon="-105.229789">
  <ele>1583.0</ele>
  <time>2026-08-28T17:53:08Z</time>
  <course>0.0</course>
  <speed>0.0</speed>
  <fix>3d</fix>
</trkpt>
<trkpt lat="40.0713749" lon="-105.229789">
  <ele>1583.0</ele>
  <time>2026-08-28T17:53:08Z</time>
  <course>247.58</course>
  <speed>0.0</speed>
  <fix>3d</fix>
</trkpt>
<trkpt lat="40.0713749" lon="-105.229789">
  <ele>1583.0</ele>
  <time>2026-08-28T17:53:08Z</time>
  <course>0.0</course>
  <speed>0.0</speed>
  <fix>3d</fix>
</trkpt>
<trkpt lat="40.0713749" lon="-105.229789">
  <ele>1583.0</ele>
  <time>2026-08-28T17:53:08Z</time>
  <course>247.63</course>
  <speed>0.0</speed>
  <fix>3d</fix>
</trkpt>
<trkpt lat="40.0713749" lon="-105.229789">
  <ele>1583.0</ele>
  <time>2026-08-28T17:53:08Z</time>
  <course>0.0</course>
  <speed>0.0</speed>
  <fix>3d</fix>
</trkpt>
<trkpt lat="40.0713749" lon="-105.229789">
  <ele>1583.0</ele>
  <time>2026-08-28T17:53:08Z</time>
  <course>247.67</course>
  <speed>0.0</speed>
  <fix>3d</fix>
</trkpt>
<trkpt lat="40.0713749" lon="-105.229789">
  <ele>1583.0</ele>
  <time>2026-08-28T17:53:08Z</time>
  <course>0.0</course>
  <speed>0.0</speed>
  <fix>3d</fix>
</trkpt>
<trkpt lat="40.0713749" lon="-105.229789">
  <ele>1583.0</ele>
  <time>2026-08-28T17:53:08Z</time>
  <course>247.72</course>
  <speed>0.0</speed>
  <fix>3d</fix>
</trkpt>
<trkpt lat="40.0713749" lon="-105.229789">
  <ele>1583.0</ele>
  <time>2026-08-28T17:53:08Z</time>
  <course>0.0</course>
  <speed>0.0</speed>
  <fix>3d</fix>
</trkpt>
<trkpt lat="40.0713749" lon="-105.229789">
  <ele>1583.0</ele>
  <time>2026-08-28T17:53:08Z</time>
  <course>247.76</course>
  <speed>0.0</speed>
  <fix>3d</fix>
</trkpt>
<trkpt lat="40.0713749" lon="-105.229789">
  <ele>1583.0</ele>
  <time>2026-08-28T17:53:08Z</time>
  <course>0.0</course>
  <speed>0.0</speed>
  <fix>3d</fix>
</trkpt>
<trkpt lat="40.0713749" lon="-105.229789">
  <ele>1583.0</ele>
  <time>2026-08-28T17:53:08Z</time>
  <course>247.8</course>
  <speed>0.0</speed>
  <fix>3d</fix>
</trkpt>
<trkpt lat="40.0713749" lon="-105.229789">
  <ele>1583.0</ele>
  <time>2026-08-28T17:53:08Z</time>
  <course>0.0</course>
  <speed>0.0</speed>
  <fix>3d</fix>
</trkpt>
<trkpt lat="40.0713749" lon="-105.229789">
  <ele>1583.0</ele>
  <time>2026-08-28T17:53:08Z</time>
  <course>247.83</course>
  <speed>0.0</speed>
  <fix>3d</fix>
</trkpt>
<trkpt lat="40.0713749" lon="-105.229789">
  <ele>1583.0</ele>
  <time>2026-08-28T17:53:08Z</time>
  <course>0.0</course>
  <speed>0.0</speed>
  <fix>3d</fix>
</trkpt>
<trkpt lat="40.0713749" lon="-105.229789">
  <ele>1583.0</ele>
  <time>2026-08-28T17:53:08Z</time>
  <course>247.87</course>
  <speed>0.0</speed>
  <fix>3d</fix>
</trkpt>
<trkpt lat="40.0713749" lon="-105.229789">
  <ele>1583.0</ele>
  <time>2026-08-28T17:53:08Z</time>
  <course>0.0</course>
  <speed>0.0</speed>
  <fix>3d</fix>
</trkpt>
<trkpt lat="40.0713749" lon="-105.229789">
  <ele>1583.0</ele>
  <time>2026-08-28T17:53:08Z</time>
  <course>247.9</course>
  <speed>0.0</speed>
  <fix>3d</fix>
</trkpt>
<trkpt lat="40.0713749" lon="-105.229789">
  <ele>1583.0</ele>
  <time>2026-08-28T17:53:08Z</time>
  <course>0.0</course>
  <speed>0.0</speed>
  <fix>3d</fix>
</trkpt>
<trkpt lat="40.0713749" lon="-105.229789">
  <ele>1583.0</ele>
  <time>2026-08-28T17:53:08Z</time>
  <course>247.94</course>
  <speed>0.0</speed>
  <fix>3d</fix>
</trkpt>
<trkpt lat="40.0713749" lon="-105.229789">
  <ele>1583.0</ele>
  <time>2026-08-28T17:53:08Z</time>
  <course>0.0</course>
  <speed>0.0</speed>
  <fix>3d</fix>
</trkpt>
<trkpt lat="40.0713749" lon="-105.229789">
  <ele>1583.0</ele>
  <time>2026-08-28T17:53:08Z</time>
  <course>247.97</course>
  <speed>0.0</speed>
  <fix>3d</fix>
</trkpt>
<trkpt lat="40.0713749" lon="-105.229789">
  <ele>1583.0</ele>
  <time>2026-08-28T17:53:08Z</time>
  <course>0.0</course>
  <speed>0.0</speed>
  <fix>3d</fix>
</trkpt>
<trkpt lat="40.0713749" lon="-105.229789">
  <ele>1583.0</ele>
  <time>2026-08-28T17:53:08Z</time>
  <course>248.0</course>
  <speed>0.0</speed>
  <fix>3d</fix>
</trkpt>
<trkpt lat="40.0713749" lon="-105.229789">
  <ele>1583.0</ele>
  <time>2026-08-28T17:53:08Z</time>
  <course>0.0</course>
  <speed>0.0</speed>
  <fix>3d</fix>
</trkpt>
<trkpt lat="40.0713749" lon="-105.229789">
  <ele>1583.0</ele>
  <time>2026-08-28T17:53:08Z</time>
  <course>248.02</course>
  <speed>0.0</speed>
  <fix>3d</fix>
</trkpt>
<trkpt lat="40.0713749" lon="-105.229789">
  <ele>1583.0</ele>
  <time>2026-08-28T17:53:08Z</time>
  <course>0.0</course>
  <speed>0.0</speed>
  <fix>3d</fix>
</trkpt>
<trkpt lat="40.0713749" lon="-105.229789">
  <ele>1583.0</ele>
  <time>2026-08-28T17:53:08Z</time>
  <course>248.05</course>
  <speed>0.0</speed>
  <fix>3d</fix>
</trkpt>
<trkpt lat="40.0713749" lon="-105.229789">
  <ele>1583.0</ele>
  <time>2026-08-28T17:53:08Z</time>
  <course>0.0</course>
  <speed>0.0</speed>
  <fix>3d</fix>
</trkpt>
<trkpt lat="40.0713749" lon="-105.229789">
  <ele>1583.0</ele>
  <time>2026-08-28T17:53:08Z</time>
  <course>248.08</course>
  <speed>0.0</speed>
  <fix>3d</fix>
</trkpt>
<trkpt lat="40.0713749" lon="-105.229789">
  <ele>1583.0</ele>
  <time>2026-08-28T17:53:08Z</time>
  <course>0.0</course>
  <speed>0.0</speed>
  <fix>3d</fix>
</trkpt>
<trkpt lat="40.0713749" lon="-105.229789">
  <ele>1583.0</ele>
  <time>2026-08-28T17:53:08Z</time>
  <course>248.1</course>
  <speed>0.0</speed>
  <fix>3d</fix>
</trkpt>
<trkpt lat="40.0713749" lon="-105.229789">
  <ele>1583.0</ele>
  <time>2026-08-28T17:53:08Z</time>
  <course>0.0</course>
  <speed>0.0</speed>
  <fix>3d</fix>
</trkpt>
<trkpt lat="40.0713749" lon="-105.229789">
  <ele>1583.0</ele>
  <time>2026-08-28T17:53:08Z</time>
  <course>248.12</course>
  <speed>0.0</speed>
  <fix>3d</fix>
</trkpt>
<trkpt lat="40.0713749" lon="-105.229789">
  <ele>1583.0</ele>
  <time>2026-08-28T17:53:08Z</time>
  <course>0.0</course>
  <speed>0.0</speed>
  <fix>3d</fix>
</trkpt>
<trkpt lat="40.0713749" lon="-105.229789">
  <ele>1583.0</ele>
  <time>2026-08-28T17:53:08Z</time>
  <course>248.14</course>
  <speed>0.0</speed>
  <fix>3d</fix>
</trkpt>
<trkpt lat="40.0713749" lon="-105.229789">
  <ele>1583.0</ele>
  <time>2026-08-28T17:53:08Z</time>
  <course>0.0</course>
  <speed>0.0</speed>
  <fix>3d</fix>
</trkpt>
<trkpt lat="40.0713749" lon="-105.229789">
  <ele>1583.0</ele>
  <time>2026-08-28T17:53:08Z</time>
  <course>248.16</course>
  <speed>0.0</speed>
  <fix>3d</fix>
</trkpt>
<trkpt lat="40.0713749" lon="-105.229789">
  <ele>1583.0</ele>
  <time>2026-08-28T17:53:08Z</time>
  <course>0.0</course>
  <speed>0.0</speed>
  <fix>3d</fix>
</trkpt>
<trkpt lat="40.0713749" lon="-105.229789">
  <ele>1583.0</ele>
  <time>2026-08-28T17:53:08Z</time>
  <course>248.18</course>
  <speed>0.0</speed>
  <fix>3d</fix>
</trkpt>
<trkpt lat="40.0713749" lon="-105.229789">
  <ele>1583.0</ele>
  <time>2026-08-28T17:53:08Z</time>
  <course>0.0</course>
  <speed>0.0</speed>
  <fix>3d</fix>
</trkpt>
<trkpt lat="40.0713749" lon="-105.229789">
  <ele>1583.0</ele>
  <time>2026-08-28T17:53:08Z</time>
  <course>248.2</course>
  <speed>0.0</speed>
  <fix>3d</fix>
</trkpt>
<trkpt lat="40.0713749" lon="-105.229789">
  <ele>1583.0</ele>
  <time>2026-08-28T17:53:08Z</time>
  <course>0.0</course>
  <speed>0.0</speed>
  <fix>3d</fix>
</trkpt>
<trkpt lat="40.0713749" lon="-105.229789">
  <ele>1583.0</ele>
  <time>2026-08-28T17:53:08Z</time>
  <course>248.22</course>
  <speed>0.0</speed>
  <fix>3d</fix>
</trkpt>
<trkpt lat="40.0713749" lon="-105.229789">
  <ele>1583.0</ele>
  <time>2026-08-28T17:53:08Z</time>
  <course>0.0</course>
  <speed>0.0</speed>
  <fix>3d</fix>
</trkpt>
<trkpt lat="40.0713749" lon="-105.229789">
  <ele>1583.0</ele>
  <time>2026-08-28T17:53:08Z</time>
  <course>248.23</course>
  <speed>0.0</speed>
  <fix>3d</fix>
</trkpt>
<trkpt lat="40.0713749" lon="-105.229789">
  <ele>1583.0</ele>
  <time>2026-08-28T17:53:08Z</time>
  <course>0.0</course>
  <speed>0.0</speed>
  <fix>3d</fix>
</trkpt>
<trkpt lat="40.0713749" lon="-105.229789">
  <ele>1583.0</ele>
  <time>2026-08-28T17:53:09Z</time>
  <course>248.25</course>
  <speed>0.0</speed>
  <fix>3d</fix>
</trkpt>
<trkpt lat="40.0713749" lon="-105.229789">
  <ele>1583.0</ele>
  <time>2026-08-28T17:53:09Z</time>
  <course>0.0</course>
  <speed>0.0</speed>
  <fix>3d</fix>
</trkpt>
<trkpt lat="40.0713749" lon="-105.229789">
  <ele>1583.0</ele>
  <time>2026-08-28T17:53:09Z</time>
  <course>248.26</course>
  <speed>0.0</speed>
  <fix>3d</fix>
</trkpt>
<trkpt lat="40.0713749" lon="-105.229789">
  <ele>1583.0</ele>
  <time>2026-08-28T17:53:09Z</time>
  <course>0.0</course>
  <speed>0.0</speed>
  <fix>3d</fix>
</trkpt>
<trkpt lat="40.0713749" lon="-105.229789">
  <ele>1583.0</ele>
  <time>2026-08-28T17:53:09Z</time>
  <course>248.28</course>
  <speed>0.0</speed>
  <fix>3d</fix>
</trkpt>
<trkpt lat="40.0713749" lon="-105.229789">
  <ele>1583.0</ele>
  <time>2026-08-28T17:53:09Z</time>
  <course>0.0</course>
  <speed>0.0</speed>
  <fix>3d</fix>
</trkpt>
<trkpt lat="40.0713749" lon="-105.229789">
  <ele>1583.0</ele>
  <time>2026-08-28T17:53:09Z</time>
  <course>248.29</course>
  <speed>0.0</speed>
  <fix>3d</fix>
</trkpt>
<trkpt lat="40.0713749" lon="-105.229789">
  <ele>1583.0</ele>
  <time>2026-08-28T17:53:09Z</time>
  <course>0.0</course>
  <speed>0.0</speed>
  <fix>3d</fix>
</trkpt>
<trkpt lat="40.0713749" lon="-105.229789">
  <ele>1583.0</ele>
  <time>2026-08-28T17:53:09Z</time>
  <course>248.3</course>
  <speed>0.0</speed>
  <fix>3d</fix>
</trkpt>
<trkpt lat="40.0713749" lon="-105.229789">
  <ele>1583.0</ele>
  <time>2026-08-28T17:53:09Z</time>
  <course>0.0</course>
  <speed>0.0</speed>
  <fix>3d</fix>
</trkpt>
<trkpt lat="40.0713749" lon="-105.229789">
  <ele>1583.0</ele>
  <time>2026-08-28T17:53:09Z</time>
  <course>248.31</course>
  <speed>0.0</speed>
  <fix>3d</fix>
</trkpt>
<trkpt lat="40.0713749" lon="-105.229789">
  <ele>1583.0</ele>
  <time>2026-08-28T17:53:09Z</time>
  <course>0.0</course>
  <speed>0.0</speed>
  <fix>3d</fix>
</trkpt>
<trkpt lat="40.0713749" lon="-105.229789">
  <ele>1583.0</ele>
  <time>2026-08-28T17:53:09Z</time>
  <course>248.32</course>
  <speed>0.0</speed>
  <fix>3d</fix>
</trkpt>
<trkpt lat="40.0713749" lon="-105.229789">
  <ele>1583.0</ele>
  <time>2026-08-28T17:53:09Z</time>
  <course>0.0</course>
  <speed>0.0</speed>
  <fix>3d</fix>
</trkpt>
<trkpt lat="40.0713749" lon="-105.229789">
  <ele>1583.0</ele>
  <time>2026-08-28T17:53:09Z</time>
  <course>248.33</course>
  <speed>0.0</speed>
  <fix>3d</fix>
</trkpt>
<trkpt lat="40.0713749" lon="-105.229789">
  <ele>1583.0</ele>
  <time>2026-08-28T17:53:09Z</time>
  <course>0.0</course>
  <speed>0.0</speed>
  <fix>3d</fix>
</trkpt>
<trkpt lat="40.0713749" lon="-105.229789">
  <ele>1583.0</ele>
  <time>2026-08-28T17:53:09Z</time>
  <course>248.34</course>
  <speed>0.0</speed>
  <fix>3d</fix>
</trkpt>
<trkpt lat="40.0713749" lon="-105.229789">
  <ele>1583.0</ele>
  <time>2026-08-28T17:53:09Z</time>
  <course>0.0</course>
  <speed>0.0</speed>
  <fix>3d</fix>
</trkpt>
<trkpt lat="40.0713749" lon="-105.229789">
  <ele>1583.0</ele>
  <time>2026-08-28T17:53:09Z</time>
  <course>248.35</course>
  <speed>0.0</speed>
  <fix>3d</fix>
</trkpt>
<trkpt lat="40.0713749" lon="-105.229789">
  <ele>1583.0</ele>
  <time>2026-08-28T17:53:09Z</time>
  <course>0.0</course>
  <speed>0.0</speed>
  <fix>3d</fix>
</trkpt>
<trkpt lat="40.0713749" lon="-105.229789">
  <ele>1583.0</ele>
  <time>2026-08-28T17:53:09Z</time>
  <course>248.35</course>
  <speed>0.0</speed>
  <fix>3d</fix>
</trkpt>
<trkpt lat="40.0713749" lon="-105.229789">
  <ele>1583.0</ele>
  <time>2026-08-28T17:53:09Z</time>
  <course>0.0</course>
  <speed>0.0</speed>
  <fix>3d</fix>
</trkpt>
<trkpt lat="40.0713749" lon="-105.229789">
  <ele>1583.0</ele>
  <time>2026-08-28T17:53:09Z</time>
  <course>248.36</course>
  <speed>0.0</speed>
  <fix>3d</fix>
</trkpt>
<trkpt lat="40.0713749" lon="-105.229789">
  <ele>1583.0</ele>
  <time>2026-08-28T17:53:09Z</time>
  <course>0.0</course>
  <speed>0.0</speed>
  <fix>3d</fix>
</trkpt>
<trkpt lat="40.0713749" lon="-105.229789">
  <ele>1583.0</ele>
  <time>2026-08-28T17:53:09Z</time>
  <course>248.37</course>
  <speed>0.0</speed>
  <fix>3d</fix>
</trkpt>
<trkpt lat="40.0713749" lon="-105.229789">
  <ele>1583.0</ele>
  <time>2026-08-28T17:53:09Z</time>
  <course>0.0</course>
  <speed>0.0</speed>
  <fix>3d</fix>
</trkpt>
<trkpt lat="40.0713749" lon="-105.229789">
  <ele>1583.0</ele>
  <time>2026-08-28T17:53:09Z</time>
  <course>248.37</course>
  <speed>0.0</speed>
  <fix>3d</fix>
</trkpt>
<trkpt lat="40.0713749" lon="-105.229789">
  <ele>1583.0</ele>
  <time>2026-08-28T17:53:09Z</time>
  <course>0.0</course>
  <speed>0.0</speed>
  <fix>3d</fix>
</trkpt>
<trkpt lat="40.0713749" lon="-105.229789">
  <ele>1583.0</ele>
  <time>2026-08-28T17:53:09Z</time>
  <course>248.38</course>
  <speed>0.0</speed>
  <fix>3d</fix>
</trkpt>
<trkpt lat="40.0713749" lon="-105.229789">
  <ele>1583.0</ele>
  <time>2026-08-28T17:53:09Z</time>
  <course>0.0</course>
  <speed>0.0</speed>
  <fix>3d</fix>
</trkpt>
<trkpt lat="40.0713749" lon="-105.229789">
  <ele>1583.0</ele>
  <time>2026-08-28T17:53:09Z</time>
  <course>248.38</course>
  <speed>0.0</speed>
  <fix>3d</fix>
</trkpt>
<trkpt lat="40.0713749" lon="-105.229789">
  <ele>1583.0</ele>
  <time>2026-08-28T17:53:09Z</time>
  <course>0.0</course>
  <speed>0.0</speed>
  <fix>3d</fix>
</trkpt>
<trkpt lat="40.0713749" lon="-105.229789">
  <ele>1583.0</ele>
  <time>2026-08-28T17:53:09Z</time>
  <course>248.39</course>
  <speed>0.0</speed>
  <fix>3d</fix>
</trkpt>
<trkpt lat="40.0713749" lon="-105.229789">
  <ele>1583.0</ele>
  <time>2026-08-28T17:53:09Z</time>
  <course>0.0</course>
  <speed>0.0</speed>
  <fix>3d</fix>
</trkpt>
<trkpt lat="40.0713749" lon="-105.229789">
  <ele>1583.0</ele>
  <time>2026-08-28T17:53:09Z</time>
  <course>248.39</course>
  <speed>0.0</speed>
  <fix>3d</fix>
</trkpt>
<trkpt lat="40.0713749" lon="-105.229789">
  <ele>1583.0</ele>
  <time>2026-08-28T17:53:09Z</time>
  <course>0.0</course>
  <speed>0.0</speed>
  <fix>3d</fix>
</trkpt>
<trkpt lat="40.0713749" lon="-105.229789">
  <ele>1583.0</ele>
  <time>2026-08-28T17:53:09Z</time>
  <course>248.4</course>
  <speed>0.0</speed>
  <fix>3d</fix>
</trkpt>
<trkpt lat="40.0713749" lon="-105.229789">
  <ele>1583.0</ele>
  <time>2026-08-28T17:53:09Z</time>
  <course>0.0</course>
  <speed>0.0</speed>
  <fix>3d</fix>
</trkpt>
<trkpt lat="40.0713749" lon="-105.229789">
  <ele>1583.0</ele>
  <time>2026-08-28T17:53:09Z</time>
  <course>248.4</course>
  <speed>0.0</speed>
  <fix>3d</fix>
</trkpt>
<trkpt lat="40.0713749" lon="-105.229789">
  <ele>1583.0</ele>
  <time>2026-08-28T17:53:09Z</time>
  <course>0.0</course>
  <speed>0.0</speed>
  <fix>3d</fix>
</trkpt>
<trkpt lat="40.0713749" lon="-105.229789">
  <ele>1583.0</ele>
  <time>2026-08-28T17:53:09Z</time>
  <course>248.4</course>
  <speed>0.0</speed>
  <fix>3d</fix>
</trkpt>
<trkpt lat="40.0713749" lon="-105.229789">
  <ele>1583.0</ele>
  <time>2026-08-28T17:53:09Z</time>
  <course>0.0</course>
  <speed>0.0</speed>
  <fix>3d</fix>
</trkpt>
<trkpt lat="40.0713749" lon="-105.229789">
  <ele>1583.0</ele>
  <time>2026-08-28T17:53:09Z</time>
  <course>248.4</course>
  <speed>0.0</speed>
  <fix>3d</fix>
</trkpt>
<trkpt lat="40.0713749" lon="-105.229789">
  <ele>1583.0</ele>
  <time>2026-08-28T17:53:09Z</time>
  <course>0.0</course>
  <speed>0.0</speed>
  <fix>3d</fix>
</trkpt>
<trkpt lat="40.0713749" lon="-105.229789">
  <ele>1583.0</ele>
  <time>2026-08-28T17:53:09Z</time>
  <course>248.41</course>
  <speed>0.0</speed>
  <fix>3d</fix>
</trkpt>
<trkpt lat="40.0713749" lon="-105.229789">
  <ele>1583.0</ele>
  <time>2026-08-28T17:53:09Z</time>
  <course>0.0</course>
  <speed>0.0</speed>
  <fix>3d</fix>
</trkpt>
<trkpt lat="40.0713749" lon="-105.229789">
  <ele>1583.0</ele>
  <time>2026-08-28T17:53:09Z</time>
  <course>248.41</course>
  <speed>0.0</speed>
  <fix>3d</fix>
</trkpt>
<trkpt lat="40.0713749" lon="-105.229789">
  <ele>1583.0</ele>
  <time>2026-08-28T17:53:09Z</time>
  <course>0.0</course>
  <speed>0.0</speed>
  <fix>3d</fix>
</trkpt>
<trkpt lat="40.0713749" lon="-105.229789">
  <ele>1583.0</ele>
  <time>2026-08-28T17:53:09Z</time>
  <course>248.41</course>
  <speed>0.0</speed>
  <fix>3d</fix>
</trkpt>
<trkpt lat="40.0713749" lon="-105.229789">
  <ele>1583.0</ele>
  <time>2026-08-28T17:53:09Z</time>
  <course>0.0</course>
  <speed>0.0</speed>
  <fix>3d</fix>
</trkpt>
<trkpt lat="40.0713749" lon="-105.229789">
  <ele>1583.0</ele>
  <time>2026-08-28T17:53:09Z</time>
  <course>248.41</course>
  <speed>0.0</speed>
  <fix>3d</fix>
</trkpt>
<trkpt lat="40.0713749" lon="-105.229789">
  <ele>1583.0</ele>
  <time>2026-08-28T17:53:09Z</time>
  <course>0.0</course>
  <speed>0.0</speed>
  <fix>3d</fix>
</trkpt>
<trkpt lat="40.0713749" lon="-105.229789">
  <ele>1583.0</ele>
  <time>2026-08-28T17:53:09Z</time>
  <course>248.41</course>
  <speed>0.0</speed>
  <fix>3d</fix>
</trkpt>
<trkpt lat="40.0713749" lon="-105.229789">
  <ele>1583.0</ele>
  <time>2026-08-28T17:53:09Z</time>
  <course>0.0</course>
  <speed>0.0</speed>
  <fix>3d</fix>
</trkpt>
<trkpt lat="40.0713749" lon="-105.229789">
  <ele>1583.0</ele>
  <time>2026-08-28T17:53:09Z</time>
  <course>248.41</course>
  <speed>0.0</speed>
  <fix>3d</fix>
</trkpt>
<trkpt lat="40.0713749" lon="-105.229789">
  <ele>1583.0</ele>
  <time>2026-08-28T17:53:09Z</time>
  <course>0.0</course>
  <speed>0.0</speed>
  <fix>3d</fix>
</trkpt>
<trkpt lat="40.0713749" lon="-105.229789">
  <ele>1583.0</ele>
  <time>2026-08-28T17:53:09Z</time>
  <course>248.41</course>
  <speed>0.0</speed>
  <fix>3d</fix>
</trkpt>
<trkpt lat="40.0713749" lon="-105.229789">
  <ele>1583.0</ele>
  <time>2026-08-28T17:53:09Z</time>
  <course>0.0</course>
  <speed>0.0</speed>
  <fix>3d</fix>
</trkpt>
<trkpt lat="40.0713749" lon="-105.229789">
  <ele>1583.0</ele>
  <time>2026-08-28T17:53:09Z</time>
  <course>248.41</course>
  <speed>0.0</speed>
  <fix>3d</fix>
</trkpt>
<trkpt lat="40.0713749" lon="-105.229789">
  <ele>1583.0</ele>
  <time>2026-08-28T17:53:09Z</time>
  <course>0.0</course>
  <speed>0.0</speed>
  <fix>3d</fix>
</trkpt>
<trkpt lat="40.0713749" lon="-105.229789">
  <ele>1583.0</ele>
  <time>2026-08-28T17:53:09Z</time>
  <course>248.41</course>
  <speed>0.0</speed>
  <fix>3d</fix>
</trkpt>
<trkpt lat="40.0713749" lon="-105.229789">
  <ele>1583.0</ele>
  <time>2026-08-28T17:53:09Z</time>
  <course>0.0</course>
  <speed>0.0</speed>
  <fix>3d</fix>
</trkpt>
<trkpt lat="40.0713749" lon="-105.229789">
  <ele>1583.0</ele>
  <time>2026-08-28T17:53:09Z</time>
  <course>248.41</course>
  <speed>0.0</speed>
  <fix>3d</fix>
</trkpt>
<trkpt lat="40.0713749" lon="-105.229789">
  <ele>1583.0</ele>
  <time>2026-08-28T17:53:09Z</time>
  <course>0.0</course>
  <speed>0.0</speed>
  <fix>3d</fix>
</trkpt>
<trkpt lat="40.0713749" lon="-105.229789">
  <ele>1583.0</ele>
  <time>2026-08-28T17:53:09Z</time>
  <course>248.41</course>
  <speed>0.0</speed>
  <fix>3d</fix>
</trkpt>
<trkpt lat="40.0713749" lon="-105.229789">
  <ele>1583.0</ele>
  <time>2026-08-28T17:53:09Z</time>
  <course>0.0</course>
  <speed>0.0</speed>
  <fix>3d</fix>
</trkpt>
<trkpt lat="40.0713749" lon="-105.229789">
  <ele>1583.0</ele>
  <time>2026-08-28T17:53:09Z</time>
  <course>248.41</course>
  <speed>0.0</speed>
  <fix>3d</fix>
</trkpt>
<trkpt lat="40.0713749" lon="-105.229789">
  <ele>1583.0</ele>
  <time>2026-08-28T17:53:09Z</time>
  <course>0.0</course>
  <speed>0.0</speed>
  <fix>3d</fix>
</trkpt>
<trkpt lat="40.0713749" lon="-105.229789">
  <ele>1583.0</ele>
  <time>2026-08-28T17:53:09Z</time>
  <course>248.41</course>
  <speed>0.0</speed>
  <fix>3d</fix>
</trkpt>
<trkpt lat="40.0713749" lon="-105.229789">
  <ele>1583.0</ele>
  <time>2026-08-28T17:53:09Z</time>
  <course>0.0</course>
  <speed>0.0</speed>
  <fix>3d</fix>
</trkpt>
<trkpt lat="40.0713749" lon="-105.229789">
  <ele>1583.0</ele>
  <time>2026-08-28T17:53:09Z</time>
  <course>248.41</course>
  <speed>0.0</speed>
  <fix>3d</fix>
</trkpt>
<trkpt lat="40.0713749" lon="-105.229789">
  <ele>1583.0</ele>
  <time>2026-08-28T17:53:09Z</time>
  <course>0.0</course>
  <speed>0.0</speed>
  <fix>3d</fix>
</trkpt>
<trkpt lat="40.0713749" lon="-105.229789">
  <ele>1583.0</ele>
  <time>2026-08-28T17:53:09Z</time>
  <course>248.41</course>
  <speed>0.0</speed>
  <fix>3d</fix>
</trkpt>
<trkpt lat="40.0713749" lon="-105.229789">
  <ele>1583.0</ele>
  <time>2026-08-28T17:53:09Z</time>
  <course>0.0</course>
  <speed>0.0</speed>
  <fix>3d</fix>
</trkpt>
<trkpt lat="40.0713749" lon="-105.229789">
  <ele>1583.0</ele>
  <time>2026-08-28T17:53:09Z</time>
  <course>248.41</course>
  <speed>0.0</speed>
  <fix>3d</fix>
</trkpt>
<trkpt lat="40.0713749" lon="-105.229789">
  <ele>1583.0</ele>
  <time>2026-08-28T17:53:09Z</time>
  <course>0.0</course>
  <speed>0.0</speed>
  <fix>3d</fix>
</trkpt>
<trkpt lat="40.0713749" lon="-105.229789">
  <ele>1583.0</ele>
  <time>2026-08-28T17:53:09Z</time>
  <course>248.4</course>
  <speed>0.0</speed>
  <fix>3d</fix>
</trkpt>
<trkpt lat="40.0713749" lon="-105.229789">
  <ele>1583.0</ele>
  <time>2026-08-28T17:53:09Z</time>
  <course>0.0</course>
  <speed>0.0</speed>
  <fix>3d</fix>
</trkpt>
<trkpt lat="40.0713749" lon="-105.229789">
  <ele>1583.0</ele>
  <time>2026-08-28T17:53:09Z</time>
  <course>248.4</course>
  <speed>0.01</speed>
  <fix>3d</fix>
</trkpt>
<trkpt lat="40.0713749" lon="-105.229789">
  <ele>1583.0</ele>
  <time>2026-08-28T17:53:09Z</time>
  <course>0.0</course>
  <speed>0.0</speed>
  <fix>3d</fix>
</trkpt>
<trkpt lat="40.0713749" lon="-105.229789">
  <ele>1583.0</ele>
  <time>2026-08-28T17:53:09Z</time>
  <course>248.4</course>
  <speed>0.01</speed>
  <fix>3d</fix>
</trkpt>
<trkpt lat="40.0713749" lon="-105.229789">
  <ele>1583.0</ele>
  <time>2026-08-28T17:53:09Z</time>
  <course>0.0</course>
  <speed>0.0</speed>
  <fix>3d</fix>
</trkpt>
<trkpt lat="40.0713749" lon="-105.229789">
  <ele>1583.0</ele>
  <time>2026-08-28T17:53:09Z</time>
  <course>248.4</course>
  <speed>0.01</speed>
  <fix>3d</fix>
</trkpt>
<trkpt lat="40.0713749" lon="-105.229789">
  <ele>1583.0</ele>
  <time>2026-08-28T17:53:09Z</time>
  <course>0.0</course>
  <speed>0.0</speed>
  <fix>3d</fix>
</trkpt>
<trkpt lat="40.0713749" lon="-105.229789">
  <ele>1583.0</ele>
  <time>2026-08-28T17:53:09Z</time>
  <course>248.4</course>
  <speed>0.01</speed>
  <fix>3d</fix>
</trkpt>
<trkpt lat="40.0713749" lon="-105.229789">
  <ele>1583.0</ele>
  <time>2026-08-28T17:53:09Z</time>
  <course>0.0</course>
  <speed>0.0</speed>
  <fix>3d</fix>
</trkpt>
<trkpt lat="40.0713749" lon="-105.229789">
  <ele>1583.0</ele>
  <time>2026-08-28T17:53:09Z</time>
  <course>248.39</course>
  <speed>0.01</speed>
  <fix>3d</fix>
</trkpt>
<trkpt lat="40.0713749" lon="-105.229789">
  <ele>1583.0</ele>
  <time>2026-08-28T17:53:09Z</time>
  <course>0.0</course>
  <speed>0.0</speed>
  <fix>3d</fix>
</trkpt>
<trkpt lat="40.0713749" lon="-105.229789">
  <ele>1583.0</ele>
  <time>2026-08-28T17:53:09Z</time>
  <course>248.39</course>
  <speed>0.01</speed>
  <fix>3d</fix>
</trkpt>
<trkpt lat="40.0713749" lon="-105.229789">
  <ele>1583.0</ele>
  <time>2026-08-28T17:53:09Z</time>
  <course>0.0</course>
  <speed>0.0</speed>
  <fix>3d</fix>
</trkpt>
<trkpt lat="40.0713749" lon="-105.229789">
  <ele>1583.0</ele>
  <time>2026-08-28T17:53:09Z</time>
  <course>248.39</course>
  <speed>0.01</speed>
  <fix>3d</fix>
</trkpt>
<trkpt lat="40.0713749" lon="-105.229789">
  <ele>1583.0</ele>
  <time>2026-08-28T17:53:09Z</time>
  <course>0.0</course>
  <speed>0.0</speed>
  <fix>3d</fix>
</trkpt>
<trkpt lat="40.0713749" lon="-105.229789">
  <ele>1583.0</ele>
  <time>2026-08-28T17:53:09Z</time>
  <course>248.38</course>
  <speed>0.01</speed>
  <fix>3d</fix>
</trkpt>
<trkpt lat="40.0713749" lon="-105.229789">
  <ele>1583.0</ele>
  <time>2026-08-28T17:53:09Z</time>
  <course>0.0</course>
  <speed>0.0</speed>
  <fix>3d</fix>
</trkpt>
<trkpt lat="40.0713749" lon="-105.229789">
  <ele>1583.0</ele>
  <time>2026-08-28T17:53:09Z</time>
  <course>248.38</course>
  <speed>0.01</speed>
  <fix>3d</fix>
</trkpt>
<trkpt lat="40.0713749" lon="-105.229789">
  <ele>1583.0</ele>
  <time>2026-08-28T17:53:09Z</time>
  <course>0.0</course>
  <speed>0.0</speed>
  <fix>3d</fix>
</trkpt>
<trkpt lat="40.0713749" lon="-105.229789">
  <ele>1583.0</ele>
  <time>2026-08-28T17:53:09Z</time>
  <course>248.38</course>
  <speed>0.01</speed>
  <fix>3d</fix>
</trkpt>
<trkpt lat="40.0713749" lon="-105.229789">
  <ele>1583.0</ele>
  <time>2026-08-28T17:53:09Z</time>
  <course>0.0</course>
  <speed>0.0</speed>
  <fix>3d</fix>
</trkpt>
<trkpt lat="40.0713749" lon="-105.229789">
  <ele>1583.0</ele>
  <time>2026-08-28T17:53:09Z</time>
  <course>248.37</course>
  <speed>0.01</speed>
  <fix>3d</fix>
</trkpt>
<trkpt lat="40.0713749" lon="-105.229789">
  <ele>1583.0</ele>
  <time>2026-08-28T17:53:09Z</time>
  <course>0.0</course>
  <speed>0.0</speed>
  <fix>3d</fix>
</trkpt>
<trkpt lat="40.0713749" lon="-105.229789">
  <ele>1583.0</ele>
  <time>2026-08-28T17:53:09Z</time>
  <course>248.37</course>
  <speed>0.01</speed>
  <fix>3d</fix>
</trkpt>
<trkpt lat="40.0713749" lon="-105.229789">
  <ele>1583.0</ele>
  <time>2026-08-28T17:53:09Z</time>
  <course>0.0</course>
  <speed>0.0</speed>
  <fix>3d</fix>
</trkpt>
<trkpt lat="40.0713749" lon="-105.229789">
  <ele>1583.0</ele>
  <time>2026-08-28T17:53:09Z</time>
  <course>248.37</course>
  <speed>0.01</speed>
  <fix>3d</fix>
</trkpt>
<trkpt lat="40.0713749" lon="-105.229789">
  <ele>1583.0</ele>
  <time>2026-08-28T17:53:09Z</time>
  <course>0.0</course>
  <speed>0.0</speed>
  <fix>3d</fix>
</trkpt>
<trkpt lat="40.0713749" lon="-105.229789">
  <ele>1583.0</ele>
  <time>2026-08-28T17:53:09Z</time>
  <course>248.36</course>
  <speed>0.01</speed>
  <fix>3d</fix>
</trkpt>
<trkpt lat="40.0713749" lon="-105.229789">
  <ele>1583.0</ele>
  <time>2026-08-28T17:53:09Z</time>
  <course>0.0</course>
  <speed>0.0</speed>
  <fix>3d</fix>
</trkpt>
<trkpt lat="40.0713749" lon="-105.229789">
  <ele>1583.0</ele>
  <time>2026-08-28T17:53:09Z</time>
  <course>248.36</course>
  <speed>0.01</speed>
  <fix>3d</fix>
</trkpt>
<trkpt lat="40.0713749" lon="-105.229789">
  <ele>1583.0</ele>
  <time>2026-08-28T17:53:09Z</time>
  <course>0.0</course>
  <speed>0.0</speed>
  <fix>3d</fix>
</trkpt>
<trkpt lat="40.0713749" lon="-105.229789">
  <ele>1583.0</ele>
  <time>2026-08-28T17:53:09Z</time>
  <course>248.36</course>
  <speed>0.01</speed>
  <fix>3d</fix>
</trkpt>
<trkpt lat="40.0713749" lon="-105.229789">
  <ele>1583.0</ele>
  <time>2026-08-28T17:53:09Z</time>
  <course>0.0</course>
  <speed>0.0</speed>
  <fix>3d</fix>
</trkpt>
<trkpt lat="40.0713749" lon="-105.229789">
  <ele>1583.0</ele>
  <time>2026-08-28T17:53:09Z</time>
  <course>248.35</course>
  <speed>0.01</speed>
  <fix>3d</fix>
</trkpt>
<trkpt lat="40.0713749" lon="-105.229789">
  <ele>1583.0</ele>
  <time>2026-08-28T17:53:09Z</time>
  <course>0.0</course>
  <speed>0.0</speed>
  <fix>3d</fix>
</trkpt>
<trkpt lat="40.0713749" lon="-105.229789">
  <ele>1583.0</ele>
  <time>2026-08-28T17:53:09Z</time>
  <course>248.35</course>
  <speed>0.01</speed>
  <fix>3d</fix>
</trkpt>
<trkpt lat="40.0713749" lon="-105.229789">
  <ele>1583.0</ele>
  <time>2026-08-28T17:53:09Z</time>
  <course>0.0</course>
  <speed>0.0</speed>
  <fix>3d</fix>
</trkpt>
<trkpt lat="40.0713749" lon="-105.229789">
  <ele>1583.0</ele>
  <time>2026-08-28T17:53:09Z</time>
  <course>248.35</course>
  <speed>0.01</speed>
  <fix>3d</fix>
</trkpt>
<trkpt lat="40.0713749" lon="-105.229789">
  <ele>1583.0</ele>
  <time>2026-08-28T17:53:09Z</time>
  <course>0.0</course>
  <speed>0.0</speed>
  <fix>3d</fix>
</trkpt>
<trkpt lat="40.0713749" lon="-105.229789">
  <ele>1583.0</ele>
  <time>2026-08-28T17:53:09Z</time>
  <course>248.34</course>
  <speed>0.01</speed>
  <fix>3d</fix>
</trkpt>
<trkpt lat="40.0713749" lon="-105.229789">
  <ele>1583.0</ele>
  <time>2026-08-28T17:53:09Z</time>
  <course>0.0</course>
  <speed>0.0</speed>
  <fix>3d</fix>
</trkpt>
<trkpt lat="40.0713749" lon="-105.229789">
  <ele>1583.0</ele>
  <time>2026-08-28T17:53:09Z</time>
  <course>248.34</course>
  <speed>0.01</speed>
  <fix>3d</fix>
</trkpt>
<trkpt lat="40.0713749" lon="-105.229789">
  <ele>1583.0</ele>
  <time>2026-08-28T17:53:09Z</time>
  <course>0.0</course>
  <speed>0.0</speed>
  <fix>3d</fix>
</trkpt>
<trkpt lat="40.0713749" lon="-105.229789">
  <ele>1583.0</ele>
  <time>2026-08-28T17:53:09Z</time>
  <course>248.33</course>
  <speed>0.01</speed>
  <fix>3d</fix>
</trkpt>
<trkpt lat="40.0713749" lon="-105.229789">
  <ele>1583.0</ele>
  <time>2026-08-28T17:53:09Z</time>
  <course>0.0</course>
  <speed>0.0</speed>
  <fix>3d</fix>
</trkpt>
<trkpt lat="40.0713749" lon="-105.229789">
  <ele>1583.0</ele>
  <time>2026-08-28T17:53:09Z</time>
  <course>248.33</course>
  <speed>0.01</speed>
  <fix>3d</fix>
</trkpt>
<trkpt lat="40.0713749" lon="-105.229789">
  <ele>1583.0</ele>
  <time>2026-08-28T17:53:09Z</time>
  <course>0.0</course>
  <speed>0.0</speed>
  <fix>3d</fix>
</trkpt>
<trkpt lat="40.0713749" lon="-105.229789">
  <ele>1583.0</ele>
  <time>2026-08-28T17:53:09Z</time>
  <course>248.32</course>
  <speed>0.01</speed>
  <fix>3d</fix>
</trkpt>
<trkpt lat="40.0713749" lon="-105.229789">
  <ele>1583.0</ele>
  <time>2026-08-28T17:53:09Z</time>
  <course>0.0</course>
  <speed>0.0</speed>
  <fix>3d</fix>
</trkpt>
<trkpt lat="40.0713749" lon="-105.229789">
  <ele>1583.0</ele>
  <time>2026-08-28T17:53:09Z</time>
  <course>248.32</course>
  <speed>0.01</speed>
  <fix>3d</fix>
</trkpt>
<trkpt lat="40.0713749" lon="-105.229789">
  <ele>1583.0</ele>
  <time>2026-08-28T17:53:09Z</time>
  <course>0.0</course>
  <speed>0.0</speed>
  <fix>3d</fix>
</trkpt>
<trkpt lat="40.0713749" lon="-105.229789">
  <ele>1583.0</ele>
  <time>2026-08-28T17:53:09Z</time>
  <course>248.32</course>
  <speed>0.01</speed>
  <fix>3d</fix>
</trkpt>
<trkpt lat="40.0713749" lon="-105.229789">
  <ele>1583.0</ele>
  <time>2026-08-28T17:53:09Z</time>
  <course>0.0</course>
  <speed>0.0</speed>
  <fix>3d</fix>
</trkpt>
<trkpt lat="40.0713749" lon="-105.229789">
  <ele>1583.0</ele>
  <time>2026-08-28T17:53:09Z</time>
  <course>248.31</course>
  <speed>0.01</speed>
  <fix>3d</fix>
</trkpt>
<trkpt lat="40.0713749" lon="-105.229789">
  <ele>1583.0</ele>
  <time>2026-08-28T17:53:09Z</time>
  <course>0.0</course>
  <speed>0.0</speed>
  <fix>3d</fix>
</trkpt>
<trkpt lat="40.0713749" lon="-105.229789">
  <ele>1583.0</ele>
  <time>2026-08-28T17:53:09Z</time>
  <course>248.31</course>
  <speed>0.01</speed>
  <fix>3d</fix>
</trkpt>
<trkpt lat="40.0713749" lon="-105.229789">
  <ele>1583.0</ele>
  <time>2026-08-28T17:53:09Z</time>
  <course>0.0</course>
  <speed>0.0</speed>
  <fix>3d</fix>
</trkpt>
<trkpt lat="40.0713749" lon="-105.229789">
  <ele>1583.0</ele>
  <time>2026-08-28T17:53:09Z</time>
  <course>248.3</course>
  <speed>0.01</speed>
  <fix>3d</fix>
</trkpt>
<trkpt lat="40.0713749" lon="-105.229789">
  <ele>1583.0</ele>
  <time>2026-08-28T17:53:09Z</time>
  <course>0.0</course>
  <speed>0.0</speed>
  <fix>3d</fix>
</trkpt>
<trkpt lat="40.0713749" lon="-105.229789">
  <ele>1583.0</ele>
  <time>2026-08-28T17:53:09Z</time>
  <course>248.3</course>
  <speed>0.01</speed>
  <fix>3d</fix>
</trkpt>
<trkpt lat="40.0713749" lon="-105.229789">
  <ele>1583.0</ele>
  <time>2026-08-28T17:53:09Z</time>
  <course>0.0</course>
  <speed>0.0</speed>
  <fix>3d</fix>
</trkpt>
<trkpt lat="40.0713749" lon="-105.229789">
  <ele>1583.0</ele>
  <time>2026-08-28T17:53:09Z</time>
  <course>248.29</course>
  <speed>0.01</speed>
  <fix>3d</fix>
</trkpt>
<trkpt lat="40.0713749" lon="-105.229789">
  <ele>1583.0</ele>
  <time>2026-08-28T17:53:09Z</time>
  <course>0.0</course>
  <speed>0.0</speed>
  <fix>3d</fix>
</trkpt>
<trkpt lat="40.0713749" lon="-105.229789">
  <ele>1583.0</ele>
  <time>2026-08-28T17:53:09Z</time>
  <course>248.29</course>
  <speed>0.01</speed>
  <fix>3d</fix>
</trkpt>
<trkpt lat="40.0713749" lon="-105.229789">
  <ele>1583.0</ele>
  <time>2026-08-28T17:53:09Z</time>
  <course>0.0</course>
  <speed>0.0</speed>
  <fix>3d</fix>
</trkpt>
<trkpt lat="40.0713749" lon="-105.229789">
  <ele>1583.0</ele>
  <time>2026-08-28T17:53:09Z</time>
  <course>248.28</course>
  <speed>0.01</speed>
  <fix>3d</fix>
</trkpt>
<trkpt lat="40.0713749" lon="-105.229789">
  <ele>1583.0</ele>
  <time>2026-08-28T17:53:09Z</time>
  <course>0.0</course>
  <speed>0.0</speed>
  <fix>3d</fix>
</trkpt>
<trkpt lat="40.0713749" lon="-105.229789">
  <ele>1583.0</ele>
  <time>2026-08-28T17:53:09Z</time>
  <course>248.28</course>
  <speed>0.01</speed>
  <fix>3d</fix>
</trkpt>
<trkpt lat="40.0713749" lon="-105.229789">
  <ele>1583.0</ele>
  <time>2026-08-28T17:53:09Z</time>
  <course>0.0</course>
  <speed>0.0</speed>
  <fix>3d</fix>
</trkpt>
<trkpt lat="40.0713749" lon="-105.229789">
  <ele>1583.0</ele>
  <time>2026-08-28T17:53:09Z</time>
  <course>248.27</course>
  <speed>0.01</speed>
  <fix>3d</fix>
</trkpt>
<trkpt lat="40.0713749" lon="-105.229789">
  <ele>1583.0</ele>
  <time>2026-08-28T17:53:09Z</time>
  <course>0.0</course>
  <speed>0.0</speed>
  <fix>3d</fix>
</trkpt>
<trkpt lat="40.0713749" lon="-105.229789">
  <ele>1583.0</ele>
  <time>2026-08-28T17:53:09Z</time>
  <course>248.27</course>
  <speed>0.01</speed>
  <fix>3d</fix>
</trkpt>
<trkpt lat="40.0713749" lon="-105.229789">
  <ele>1583.0</ele>
  <time>2026-08-28T17:53:09Z</time>
  <course>0.0</course>
  <speed>0.0</speed>
  <fix>3d</fix>
</trkpt>
<trkpt lat="40.0713749" lon="-105.229789">
  <ele>1583.0</ele>
  <time>2026-08-28T17:53:09Z</time>
  <course>248.26</course>
  <speed>0.01</speed>
  <fix>3d</fix>
</trkpt>
<trkpt lat="40.0713749" lon="-105.229789">
  <ele>1583.0</ele>
  <time>2026-08-28T17:53:09Z</time>
  <course>0.0</course>
  <speed>0.0</speed>
  <fix>3d</fix>
</trkpt>
<trkpt lat="40.0713749" lon="-105.229789">
  <ele>1583.0</ele>
  <time>2026-08-28T17:53:09Z</time>
  <course>248.26</course>
  <speed>0.01</speed>
  <fix>3d</fix>
</trkpt>
<trkpt lat="40.0713749" lon="-105.229789">
  <ele>1583.0</ele>
  <time>2026-08-28T17:53:09Z</time>
  <course>0.0</course>
  <speed>0.0</speed>
  <fix>3d</fix>
</trkpt>
<trkpt lat="40.0713749" lon="-105.229789">
  <ele>1583.0</ele>
  <time>2026-08-28T17:53:09Z</time>
  <course>248.26</course>
  <speed>0.01</speed>
  <fix>3d</fix>
</trkpt>
<trkpt lat="40.0713749" lon="-105.229789">
  <ele>1583.0</ele>
  <time>2026-08-28T17:53:09Z</time>
  <course>0.0</course>
  <speed>0.0</speed>
  <fix>3d</fix>
</trkpt>
<trkpt lat="40.0713749" lon="-105.229789">
  <ele>1583.0</ele>
  <time>2026-08-28T17:53:09Z</time>
  <course>248.25</course>
  <speed>0.01</speed>
  <fix>3d</fix>
</trkpt>
<trkpt lat="40.0713749" lon="-105.229789">
  <ele>1583.0</ele>
  <time>2026-08-28T17:53:09Z</time>
  <course>0.0</course>
  <speed>0.0</speed>
  <fix>3d</fix>
</trkpt>
<trkpt lat="40.0713749" lon="-105.229789">
  <ele>1583.0</ele>
  <time>2026-08-28T17:53:09Z</time>
  <course>248.25</course>
  <speed>0.01</speed>
  <fix>3d</fix>
</trkpt>
<trkpt lat="40.0713749" lon="-105.229789">
  <ele>1583.0</ele>
  <time>2026-08-28T17:53:09Z</time>
  <course>0.0</course>
  <speed>0.0</speed>
  <fix>3d</fix>
</trkpt>
<trkpt lat="40.0713749" lon="-105.229789">
  <ele>1583.0</ele>
  <time>2026-08-28T17:53:09Z</time>
  <course>248.24</course>
  <speed>0.01</speed>
  <fix>3d</fix>
</trkpt>
<trkpt lat="40.0713749" lon="-105.229789">
  <ele>1583.0</ele>
  <time>2026-08-28T17:53:09Z</time>
  <course>0.0</course>
  <speed>0.0</speed>
  <fix>3d</fix>
</trkpt>
<trkpt lat="40.0713749" lon="-105.229789">
  <ele>1583.0</ele>
  <time>2026-08-28T17:53:09Z</time>
  <course>248.24</course>
  <speed>0.01</speed>
  <fix>3d</fix>
</trkpt>
<trkpt lat="40.0713749" lon="-105.229789">
  <ele>1583.0</ele>
  <time>2026-08-28T17:53:09Z</time>
  <course>0.0</course>
  <speed>0.0</speed>
  <fix>3d</fix>
</trkpt>
<trkpt lat="40.0713749" lon="-105.229789">
  <ele>1583.0</ele>
  <time>2026-08-28T17:53:09Z</time>
  <course>248.23</course>
  <speed>0.01</speed>
  <fix>3d</fix>
</trkpt>
<trkpt lat="40.0713749" lon="-105.229789">
  <ele>1583.0</ele>
  <time>2026-08-28T17:53:09Z</time>
  <course>0.0</course>
  <speed>0.0</speed>
  <fix>3d</fix>
</trkpt>
<trkpt lat="40.0713749" lon="-105.229789">
  <ele>1583.0</ele>
  <time>2026-08-28T17:53:09Z</time>
  <course>248.23</course>
  <speed>0.01</speed>
  <fix>3d</fix>
</trkpt>
<trkpt lat="40.0713749" lon="-105.229789">
  <ele>1583.0</ele>
  <time>2026-08-28T17:53:09Z</time>
  <course>0.0</course>
  <speed>0.0</speed>
  <fix>3d</fix>
</trkpt>
<trkpt lat="40.0713749" lon="-105.229789">
  <ele>1583.0</ele>
  <time>2026-08-28T17:53:09Z</time>
  <course>248.22</course>
  <speed>0.01</speed>
  <fix>3d</fix>
</trkpt>
<trkpt lat="40.0713749" lon="-105.229789">
  <ele>1583.0</ele>
  <time>2026-08-28T17:53:09Z</time>
  <course>0.0</course>
  <speed>0.0</speed>
  <fix>3d</fix>
</trkpt>
<trkpt lat="40.0713749" lon="-105.229789">
  <ele>1583.0</ele>
  <time>2026-08-28T17:53:09Z</time>
  <course>248.22</course>
  <speed>0.01</speed>
  <fix>3d</fix>
</trkpt>
<trkpt lat="40.0713749" lon="-105.229789">
  <ele>1583.0</ele>
  <time>2026-08-28T17:53:09Z</time>
  <course>0.0</course>
  <speed>0.0</speed>
  <fix>3d</fix>
</trkpt>
<trkpt lat="40.0713749" lon="-105.229789">
  <ele>1583.0</ele>
  <time>2026-08-28T17:53:09Z</time>
  <course>248.21</course>
  <speed>0.01</speed>
  <fix>3d</fix>
</trkpt>
<trkpt lat="40.0713749" lon="-105.229789">
  <ele>1583.0</ele>
  <time>2026-08-28T17:53:09Z</time>
  <course>0.0</course>
  <speed>0.0</speed>
  <fix>3d</fix>
</trkpt>
<trkpt lat="40.0713749" lon="-105.229789">
  <ele>1583.0</ele>
  <time>2026-08-28T17:53:09Z</time>
  <course>248.21</course>
  <speed>0.01</speed>
  <fix>3d</fix>
</trkpt>
<trkpt lat="40.0713749" lon="-105.229789">
  <ele>1583.0</ele>
  <time>2026-08-28T17:53:09Z</time>
  <course>0.0</course>
  <speed>0.0</speed>
  <fix>3d</fix>
</trkpt>
<trkpt lat="40.0713749" lon="-105.229789">
  <ele>1583.0</ele>
  <time>2026-08-28T17:53:09Z</time>
  <course>248.2</course>
  <speed>0.01</speed>
  <fix>3d</fix>
</trkpt>
<trkpt lat="40.0713749" lon="-105.229789">
  <ele>1583.0</ele>
  <time>2026-08-28T17:53:09Z</time>
  <course>0.0</course>
  <speed>0.0</speed>
  <fix>3d</fix>
</trkpt>
<trkpt lat="40.0713749" lon="-105.229789">
  <ele>1583.0</ele>
  <time>2026-08-28T17:53:09Z</time>
  <course>248.2</course>
  <speed>0.01</speed>
  <fix>3d</fix>
</trkpt>
<trkpt lat="40.0713749" lon="-105.229789">
  <ele>1583.0</ele>
  <time>2026-08-28T17:53:09Z</time>
  <course>0.0</course>
  <speed>0.0</speed>
  <fix>3d</fix>
</trkpt>
<trkpt lat="40.0713749" lon="-105.229789">
  <ele>1583.0</ele>
  <time>2026-08-28T17:53:09Z</time>
  <course>248.19</course>
  <speed>0.01</speed>
  <fix>3d</fix>
</trkpt>
<trkpt lat="40.0713749" lon="-105.229789">
  <ele>1583.0</ele>
  <time>2026-08-28T17:53:09Z</time>
  <course>0.0</course>
  <speed>0.0</speed>
  <fix>3d</fix>
</trkpt>
<trkpt lat="40.0713749" lon="-105.229789">
  <ele>1583.0</ele>
  <time>2026-08-28T17:53:09Z</time>
  <course>248.19</course>
  <speed>0.01</speed>
  <fix>3d</fix>
</trkpt>
<trkpt lat="40.0713749" lon="-105.229789">
  <ele>1583.0</ele>
  <time>2026-08-28T17:53:09Z</time>
  <course>0.0</course>
  <speed>0.0</speed>
  <fix>3d</fix>
</trkpt>
<trkpt lat="40.0713749" lon="-105.229789">
  <ele>1583.0</ele>
  <time>2026-08-28T17:53:09Z</time>
  <course>248.18</course>
  <speed>0.01</speed>
  <fix>3d</fix>
</trkpt>
<trkpt lat="40.0713749" lon="-105.229789">
  <ele>1583.0</ele>
  <time>2026-08-28T17:53:09Z</time>
  <course>0.0</course>
  <speed>0.0</speed>
  <fix>3d</fix>
</trkpt>
<trkpt lat="40.0713749" lon="-105.229789">
  <ele>1583.0</ele>
  <time>2026-08-28T17:53:09Z</time>
  <course>248.18</course>
  <speed>0.01</speed>
  <fix>3d</fix>
</trkpt>
<trkpt lat="40.0713749" lon="-105.229789">
  <ele>1583.0</ele>
  <time>2026-08-28T17:53:09Z</time>
  <course>0.0</course>
  <speed>0.0</speed>
  <fix>3d</fix>
</trkpt>
<trkpt lat="40.0713749" lon="-105.229789">
  <ele>1583.0</ele>
  <time>2026-08-28T17:53:09Z</time>
  <course>248.17</course>
  <speed>0.022360679774997897</speed>
  <fix>3d</fix>
</trkpt>
<trkpt lat="40.0713749" lon="-105.229789">
  <ele>1583.0</ele>
  <time>2026-08-28T17:53:09Z</time>
  <course>0.0</course>
  <speed>0.0</speed>
  <fix>3d</fix>
</trkpt>
<trkpt lat="40.0713749" lon="-105.229789">
  <ele>1583.0</ele>
  <time>2026-08-28T17:53:09Z</time>
  <course>248.17</course>
  <speed>0.022360679774997897</speed>
  <fix>3d</fix>
</trkpt>
<trkpt lat="40.0713749" lon="-105.229789">
  <ele>1583.0</ele>
  <time>2026-08-28T17:53:09Z</time>
  <course>0.0</course>
  <speed>0.0</speed>
  <fix>3d</fix>
</trkpt>
<trkpt lat="40.0713749" lon="-105.229789">
  <ele>1583.0</ele>
  <time>2026-08-28T17:53:09Z</time>
  <course>248.16</course>
  <speed>0.022360679774997897</speed>
  <fix>3d</fix>
</trkpt>
<trkpt lat="40.0713749" lon="-105.229789">
  <ele>1583.0</ele>
  <time>2026-08-28T17:53:09Z</time>
  <course>0.0</course>
  <speed>0.0</speed>
  <fix>3d</fix>
</trkpt>
<trkpt lat="40.0713749" lon="-105.229789">
  <ele>1583.0</ele>
  <time>2026-08-28T17:53:09Z</time>
  <course>248.16</course>
  <speed>0.022360679774997897</speed>
  <fix>3d</fix>
</trkpt>
<trkpt lat="40.0713749" lon="-105.229789">
  <ele>1583.0</ele>
  <time>2026-08-28T17:53:09Z</time>
  <course>0.0</course>
  <speed>0.0</speed>
  <fix>3d</fix>
</trkpt>
<trkpt lat="40.0713749" lon="-105.229789">
  <ele>1583.0</ele>
  <time>2026-08-28T17:53:09Z</time>
  <course>248.15</course>
  <speed>0.022360679774997897</speed>
  <fix>3d</fix>
</trkpt>
<trkpt lat="40.0713749" lon="-105.229789">
  <ele>1583.0</ele>
  <time>2026-08-28T17:53:09Z</time>
  <course>0.0</course>
  <speed>0.0</speed>
  <fix>3d</fix>
</trkpt>
<trkpt lat="40.0713749" lon="-105.229789">
  <ele>1583.0</ele>
  <time>2026-08-28T17:53:09Z</time>
  <course>248.15</course>
  <speed>0.022360679774997897</speed>
  <fix>3d</fix>
</trkpt>
<trkpt lat="40.0713749" lon="-105.229789">
  <ele>1583.0</ele>
  <time>2026-08-28T17:53:09Z</time>
  <course>0.0</course>
  <speed>0.0</speed>
  <fix>3d</fix>
</trkpt>
<trkpt lat="40.0713749" lon="-105.229789">
  <ele>1583.0</ele>
  <time>2026-08-28T17:53:09Z</time>
  <course>248.14</course>
  <speed>0.022360679774997897</speed>
  <fix>3d</fix>
</trkpt>
<trkpt lat="40.0713749" lon="-105.229789">
  <ele>1583.0</ele>
  <time>2026-08-28T17:53:09Z</time>
  <course>0.0</course>
  <speed>0.0</speed>
  <fix>3d</fix>
</trkpt>
<trkpt lat="40.0713749" lon="-105.229789">
  <ele>1583.0</ele>
  <time>2026-08-28T17:53:09Z</time>
  <course>248.14</course>
  <speed>0.022360679774997897</speed>
  <fix>3d</fix>
</trkpt>
<trkpt lat="40.0713749" lon="-105.229789">
  <ele>1583.0</ele>
  <time>2026-08-28T17:53:09Z</time>
  <course>0.0</course>
  <speed>0.0</speed>
  <fix>3d</fix>
</trkpt>
<trkpt lat="40.0713749" lon="-105.229789">
  <ele>1583.0</ele>
  <time>2026-08-28T17:53:09Z</time>
  <course>248.13</course>
  <speed>0.022360679774997897</speed>
  <fix>3d</fix>
</trkpt>
<trkpt lat="40.0713749" lon="-105.229789">
  <ele>1583.0</ele>
  <time>2026-08-28T17:53:09Z</time>
  <course>0.0</course>
  <speed>0.0</speed>
  <fix>3d</fix>
</trkpt>
<trkpt lat="40.0713749" lon="-105.229789">
  <ele>1583.0</ele>
  <time>2026-08-28T17:53:09Z</time>
  <course>248.13</course>
  <speed>0.022360679774997897</speed>
  <fix>3d</fix>
</trkpt>
<trkpt lat="40.0713749" lon="-105.229789">
  <ele>1583.0</ele>
  <time>2026-08-28T17:53:09Z</time>
  <course>0.0</course>
  <speed>0.0</speed>
  <fix>3d</fix>
</trkpt>
<trkpt lat="40.0713749" lon="-105.229789">
  <ele>1583.0</ele>
  <time>2026-08-28T17:53:09Z</time>
  <course>248.12</course>
  <speed>0.022360679774997897</speed>
  <fix>3d</fix>
</trkpt>
<trkpt lat="40.0713749" lon="-105.229789">
  <ele>1583.0</ele>
  <time>2026-08-28T17:53:09Z</time>
  <course>0.0</course>
  <speed>0.0</speed>
  <fix>3d</fix>
</trkpt>
<trkpt lat="40.0713749" lon="-105.229789">
  <ele>1583.0</ele>
  <time>2026-08-28T17:53:09Z</time>
  <course>248.12</course>
  <speed>0.022360679774997897</speed>
  <fix>3d</fix>
</trkpt>
<trkpt lat="40.0713749" lon="-105.229789">
  <ele>1583.0</ele>
  <time>2026-08-28T17:53:09Z</time>
  <course>0.0</course>
  <speed>0.0</speed>
  <fix>3d</fix>
</trkpt>
<trkpt lat="40.0713749" lon="-105.229789">
  <ele>1583.0</ele>
  <time>2026-08-28T17:53:09Z</time>
  <course>248.11</course>
  <speed>0.022360679774997897</speed>
  <fix>3d</fix>
</trkpt>
<trkpt lat="40.0713749" lon="-105.229789">
  <ele>1583.0</ele>
  <time>2026-08-28T17:53:09Z</time>
  <course>0.0</course>
  <speed>0.0</speed>
  <fix>3d</fix>
</trkpt>
<trkpt lat="40.0713749" lon="-105.229789">
  <ele>1583.0</ele>
  <time>2026-08-28T17:53:09Z</time>
  <course>248.11</course>
  <speed>0.022360679774997897</speed>
  <fix>3d</fix>
</trkpt>
<trkpt lat="40.0713749" lon="-105.229789">
  <ele>1583.0</ele>
  <time>2026-08-28T17:53:09Z</time>
  <course>0.0</course>
  <speed>0.0</speed>
  <fix>3d</fix>
</trkpt>
<trkpt lat="40.0713749" lon="-105.229789">
  <ele>1583.0</ele>
  <time>2026-08-28T17:53:09Z</time>
  <course>248.1</course>
  <speed>0.022360679774997897</speed>
  <fix>3d</fix>
</trkpt>
<trkpt lat="40.0713749" lon="-105.229789">
  <ele>1583.0</ele>
  <time>2026-08-28T17:53:09Z</time>
  <course>0.0</course>
  <speed>0.0</speed>
  <fix>3d</fix>
</trkpt>
<trkpt lat="40.0713749" lon="-105.229789">
  <ele>1583.0</ele>
  <time>2026-08-28T17:53:09Z</time>
  <course>248.1</course>
  <speed>0.022360679774997897</speed>
  <fix>3d</fix>
</trkpt>
<trkpt lat="40.0713749" lon="-105.229789">
  <ele>1583.0</ele>
  <time>2026-08-28T17:53:09Z</time>
  <course>0.0</course>
  <speed>0.0</speed>
  <fix>3d</fix>
</trkpt>
<trkpt lat="40.0713749" lon="-105.229789">
  <ele>1583.0</ele>
  <time>2026-08-28T17:53:09Z</time>
  <course>248.09</course>
  <speed>0.022360679774997897</speed>
  <fix>3d</fix>
</trkpt>
<trkpt lat="40.0713749" lon="-105.229789">
  <ele>1583.0</ele>
  <time>2026-08-28T17:53:09Z</time>
  <course>0.0</course>
  <speed>0.0</speed>
  <fix>3d</fix>
</trkpt>
<trkpt lat="40.0713749" lon="-105.229789">
  <ele>1583.0</ele>
  <time>2026-08-28T17:53:09Z</time>
  <course>248.09</course>
  <speed>0.022360679774997897</speed>
  <fix>3d</fix>
</trkpt>
<trkpt lat="40.0713749" lon="-105.229789">
  <ele>1583.0</ele>
  <time>2026-08-28T17:53:09Z</time>
  <course>0.0</course>
  <speed>0.0</speed>
  <fix>3d</fix>
</trkpt>
<trkpt lat="40.0713749" lon="-105.229789">
  <ele>1583.0</ele>
  <time>2026-08-28T17:53:09Z</time>
  <course>248.08</course>
  <speed>0.022360679774997897</speed>
  <fix>3d</fix>
</trkpt>
<trkpt lat="40.0713749" lon="-105.229789">
  <ele>1583.0</ele>
  <time>2026-08-28T17:53:09Z</time>
  <course>0.0</course>
  <speed>0.0</speed>
  <fix>3d</fix>
</trkpt>
<trkpt lat="40.0713749" lon="-105.229789">
  <ele>1583.0</ele>
  <time>2026-08-28T17:53:09Z</time>
  <course>248.08</course>
  <speed>0.022360679774997897</speed>
  <fix>3d</fix>
</trkpt>
<trkpt lat="40.0713749" lon="-105.229789">
  <ele>1583.0</ele>
  <time>2026-08-28T17:53:09Z</time>
  <course>0.0</course>
  <speed>0.0</speed>
  <fix>3d</fix>
</trkpt>
<trkpt lat="40.0713749" lon="-105.229789">
  <ele>1583.0</ele>
  <time>2026-08-28T17:53:09Z</time>
  <course>248.07</course>
  <speed>0.022360679774997897</speed>
  <fix>3d</fix>
</trkpt>
<trkpt lat="40.0713749" lon="-105.229789">
  <ele>1583.0</ele>
  <time>2026-08-28T17:53:09Z</time>
  <course>0.0</course>
  <speed>0.0</speed>
  <fix>3d</fix>
</trkpt>
<trkpt lat="40.0713749" lon="-105.229789">
  <ele>1583.0</ele>
  <time>2026-08-28T17:53:09Z</time>
  <course>248.07</course>
  <speed>0.022360679774997897</speed>
  <fix>3d</fix>
</trkpt>
<trkpt lat="40.0713749" lon="-105.229789">
  <ele>1583.0</ele>
  <time>2026-08-28T17:53:09Z</time>
  <course>0.0</course>
  <speed>0.0</speed>
  <fix>3d</fix>
</trkpt>
<trkpt lat="40.0713749" lon="-105.229789">
  <ele>1583.0</ele>
  <time>2026-08-28T17:53:09Z</time>
  <course>248.06</course>
  <speed>0.022360679774997897</speed>
  <fix>3d</fix>
</trkpt>
<trkpt lat="40.0713749" lon="-105.229789">
  <ele>1583.0</ele>
  <time>2026-08-28T17:53:09Z</time>
  <course>0.0</course>
  <speed>0.0</speed>
  <fix>3d</fix>
</trkpt>
<trkpt lat="40.0713749" lon="-105.229789">
  <ele>1583.0</ele>
  <time>2026-08-28T17:53:09Z</time>
  <course>248.06</course>
  <speed>0.022360679774997897</speed>
  <fix>3d</fix>
</trkpt>
<trkpt lat="40.0713749" lon="-105.229789">
  <ele>1583.0</ele>
  <time>2026-08-28T17:53:09Z</time>
  <course>0.0</course>
  <speed>0.0</speed>
  <fix>3d</fix>
</trkpt>
<trkpt lat="40.0713749" lon="-105.229789">
  <ele>1583.0</ele>
  <time>2026-08-28T17:53:09Z</time>
  <course>248.05</course>
  <speed>0.022360679774997897</speed>
  <fix>3d</fix>
</trkpt>
<trkpt lat="40.0713749" lon="-105.229789">
  <ele>1583.0</ele>
  <time>2026-08-28T17:53:09Z</time>
  <course>0.0</course>
  <speed>0.0</speed>
  <fix>3d</fix>
</trkpt>
<trkpt lat="40.0713749" lon="-105.229789">
  <ele>1583.0</ele>
  <time>2026-08-28T17:53:09Z</time>
  <course>248.05</course>
  <speed>0.022360679774997897</speed>
  <fix>3d</fix>
</trkpt>
<trkpt lat="40.0713749" lon="-105.229789">
  <ele>1583.0</ele>
  <time>2026-08-28T17:53:09Z</time>
  <course>0.0</course>
  <speed>0.0</speed>
  <fix>3d</fix>
</trkpt>
<trkpt lat="40.0713749" lon="-105.229789">
  <ele>1583.0</ele>
  <time>2026-08-28T17:53:09Z</time>
  <course>248.05</course>
  <speed>0.022360679774997897</speed>
  <fix>3d</fix>
</trkpt>
<trkpt lat="40.0713749" lon="-105.229789">
  <ele>1583.0</ele>
  <time>2026-08-28T17:53:09Z</time>
  <course>0.0</course>
  <speed>0.0</speed>
  <fix>3d</fix>
</trkpt>
<trkpt lat="40.0713749" lon="-105.229789">
  <ele>1583.0</ele>
  <time>2026-08-28T17:53:09Z</time>
  <course>248.04</course>
  <speed>0.022360679774997897</speed>
  <fix>3d</fix>
</trkpt>
<trkpt lat="40.0713749" lon="-105.229789">
  <ele>1583.0</ele>
  <time>2026-08-28T17:53:09Z</time>
  <course>0.0</course>
  <speed>0.0</speed>
  <fix>3d</fix>
</trkpt>
<trkpt lat="40.0713749" lon="-105.229789">
  <ele>1583.0</ele>
  <time>2026-08-28T17:53:09Z</time>
  <course>248.04</course>
  <speed>0.022360679774997897</speed>
  <fix>3d</fix>
</trkpt>
<trkpt lat="40.0713749" lon="-105.229789">
  <ele>1583.0</ele>
  <time>2026-08-28T17:53:09Z</time>
  <course>0.0</course>
  <speed>0.0</speed>
  <fix>3d</fix>
</trkpt>
<trkpt lat="40.0713749" lon="-105.229789">
  <ele>1583.0</ele>
  <time>2026-08-28T17:53:09Z</time>
  <course>248.03</course>
  <speed>0.022360679774997897</speed>
  <fix>3d</fix>
</trkpt>
<trkpt lat="40.0713749" lon="-105.229789">
  <ele>1583.0</ele>
  <time>2026-08-28T17:53:09Z</time>
  <course>0.0</course>
  <speed>0.0</speed>
  <fix>3d</fix>
</trkpt>
<trkpt lat="40.0713749" lon="-105.229789">
  <ele>1583.0</ele>
  <time>2026-08-28T17:53:09Z</time>
  <course>248.03</course>
  <speed>0.022360679774997897</speed>
  <fix>3d</fix>
</trkpt>
<trkpt lat="40.0713749" lon="-105.229789">
  <ele>1583.0</ele>
  <time>2026-08-28T17:53:09Z</time>
  <course>0.0</course>
  <speed>0.0</speed>
  <fix>3d</fix>
</trkpt>
<trkpt lat="40.0713749" lon="-105.229789">
  <ele>1583.0</ele>
  <time>2026-08-28T17:53:09Z</time>
  <course>248.02</course>
  <speed>0.022360679774997897</speed>
  <fix>3d</fix>
</trkpt>
<trkpt lat="40.0713749" lon="-105.229789">
  <ele>1583.0</ele>
  <time>2026-08-28T17:53:09Z</time>
  <course>0.0</course>
  <speed>0.0</speed>
  <fix>3d</fix>
</trkpt>
<trkpt lat="40.0713749" lon="-105.229789">
  <ele>1583.0</ele>
  <time>2026-08-28T17:53:09Z</time>
  <course>248.02</course>
  <speed>0.022360679774997897</speed>
  <fix>3d</fix>
</trkpt>
<trkpt lat="40.0713749" lon="-105.229789">
  <ele>1583.0</ele>
  <time>2026-08-28T17:53:09Z</time>
  <course>0.0</course>
  <speed>0.0</speed>
  <fix>3d</fix>
</trkpt>
<trkpt lat="40.0713749" lon="-105.229789">
  <ele>1583.0</ele>
  <time>2026-08-28T17:53:09Z</time>
  <course>248.01</course>
  <speed>0.022360679774997897</speed>
  <fix>3d</fix>
</trkpt>
<trkpt lat="40.0713749" lon="-105.229789">
  <ele>1583.0</ele>
  <time>2026-08-28T17:53:09Z</time>
  <course>0.0</course>
  <speed>0.0</speed>
  <fix>3d</fix>
</trkpt>
<trkpt lat="40.0713749" lon="-105.229789">
  <ele>1583.0</ele>
  <time>2026-08-28T17:53:09Z</time>
  <course>248.01</course>
  <speed>0.022360679774997897</speed>
  <fix>3d</fix>
</trkpt>
<trkpt lat="40.0713749" lon="-105.229789">
  <ele>1583.0</ele>
  <time>2026-08-28T17:53:09Z</time>
  <course>0.0</course>
  <speed>0.0</speed>
  <fix>3d</fix>
</trkpt>
<trkpt lat="40.0713749" lon="-105.229789">
  <ele>1583.0</ele>
  <time>2026-08-28T17:53:09Z</time>
  <course>248.0</course>
  <speed>0.022360679774997897</speed>
  <fix>3d</fix>
</trkpt>
<trkpt lat="40.0713749" lon="-105.229789">
  <ele>1583.0</ele>
  <time>2026-08-28T17:53:09Z</time>
  <course>0.0</course>
  <speed>0.0</speed>
  <fix>3d</fix>
</trkpt>
<trkpt lat="40.0713749" lon="-105.229789">
  <ele>1583.0</ele>
  <time>2026-08-28T17:53:09Z</time>
  <course>248.0</course>
  <speed>0.022360679774997897</speed>
  <fix>3d</fix>
</trkpt>
<trkpt lat="40.0713749" lon="-105.229789">
  <ele>1583.0</ele>
  <time>2026-08-28T17:53:09Z</time>
  <course>0.0</course>
  <speed>0.0</speed>
  <fix>3d</fix>
</trkpt>
<trkpt lat="40.0713749" lon="-105.229789">
  <ele>1583.0</ele>
  <time>2026-08-28T17:53:09Z</time>
  <course>247.99</course>
  <speed>0.022360679774997897</speed>
  <fix>3d</fix>
</trkpt>
<trkpt lat="40.0713749" lon="-105.229789">
  <ele>1583.0</ele>
  <time>2026-08-28T17:53:09Z</time>
  <course>0.0</course>
  <speed>0.0</speed>
  <fix>3d</fix>
</trkpt>
<trkpt lat="40.0713749" lon="-105.229789">
  <ele>1583.0</ele>
  <time>2026-08-28T17:53:09Z</time>
  <course>247.99</course>
  <speed>0.022360679774997897</speed>
  <fix>3d</fix>
</trkpt>
<trkpt lat="40.0713749" lon="-105.229789">
  <ele>1583.0</ele>
  <time>2026-08-28T17:53:09Z</time>
  <course>0.0</course>
  <speed>0.0</speed>
  <fix>3d</fix>
</trkpt>
<trkpt lat="40.0713749" lon="-105.229789">
  <ele>1583.0</ele>
  <time>2026-08-28T17:53:09Z</time>
  <course>247.99</course>
  <speed>0.022360679774997897</speed>
  <fix>3d</fix>
</trkpt>
<trkpt lat="40.0713749" lon="-105.229789">
  <ele>1583.0</ele>
  <time>2026-08-28T17:53:09Z</time>
  <course>0.0</course>
  <speed>0.0</speed>
  <fix>3d</fix>
</trkpt>
<trkpt lat="40.0713749" lon="-105.229789">
  <ele>1583.0</ele>
  <time>2026-08-28T17:53:09Z</time>
  <course>247.98</course>
  <speed>0.022360679774997897</speed>
  <fix>3d</fix>
</trkpt>
<trkpt lat="40.0713749" lon="-105.229789">
  <ele>1583.0</ele>
  <time>2026-08-28T17:53:09Z</time>
  <course>0.0</course>
  <speed>0.0</speed>
  <fix>3d</fix>
</trkpt>
<trkpt lat="40.0713749" lon="-105.229789">
  <ele>1583.0</ele>
  <time>2026-08-28T17:53:09Z</time>
  <course>247.98</course>
  <speed>0.022360679774997897</speed>
  <fix>3d</fix>
</trkpt>
<trkpt lat="40.0713749" lon="-105.229789">
  <ele>1583.0</ele>
  <time>2026-08-28T17:53:09Z</time>
  <course>0.0</course>
  <speed>0.0</speed>
  <fix>3d</fix>
</trkpt>
<trkpt lat="40.0713749" lon="-105.229789">
  <ele>1583.0</ele>
  <time>2026-08-28T17:53:09Z</time>
  <course>247.97</course>
  <speed>0.022360679774997897</speed>
  <fix>3d</fix>
</trkpt>
<trkpt lat="40.0713749" lon="-105.229789">
  <ele>1583.0</ele>
  <time>2026-08-28T17:53:09Z</time>
  <course>0.0</course>
  <speed>0.0</speed>
  <fix>3d</fix>
</trkpt>
<trkpt lat="40.0713749" lon="-105.229789">
  <ele>1583.0</ele>
  <time>2026-08-28T17:53:09Z</time>
  <course>247.97</course>
  <speed>0.022360679774997897</speed>
  <fix>3d</fix>
</trkpt>
<trkpt lat="40.0713749" lon="-105.229789">
  <ele>1583.0</ele>
  <time>2026-08-28T17:53:09Z</time>
  <course>0.0</course>
  <speed>0.0</speed>
  <fix>3d</fix>
</trkpt>
<trkpt lat="40.0713749" lon="-105.229789">
  <ele>1583.0</ele>
  <time>2026-08-28T17:53:09Z</time>
  <course>247.96</course>
  <speed>0.022360679774997897</speed>
  <fix>3d</fix>
</trkpt>
<trkpt lat="40.0713749" lon="-105.229789">
  <ele>1583.0</ele>
  <time>2026-08-28T17:53:09Z</time>
  <course>0.0</course>
  <speed>0.0</speed>
  <fix>3d</fix>
</trkpt>
<trkpt lat="40.0713749" lon="-105.229789">
  <ele>1583.0</ele>
  <time>2026-08-28T17:53:09Z</time>
  <course>247.96</course>
  <speed>0.022360679774997897</speed>
  <fix>3d</fix>
</trkpt>
<trkpt lat="40.0713749" lon="-105.229789">
  <ele>1583.0</ele>
  <time>2026-08-28T17:53:09Z</time>
  <course>0.0</course>
  <speed>0.0</speed>
  <fix>3d</fix>
</trkpt>
<trkpt lat="40.0713749" lon="-105.229789">
  <ele>1583.0</ele>
  <time>2026-08-28T17:53:09Z</time>
  <course>247.95</course>
  <speed>0.022360679774997897</speed>
  <fix>3d</fix>
</trkpt>
<trkpt lat="40.0713749" lon="-105.229789">
  <ele>1583.0</ele>
  <time>2026-08-28T17:53:09Z</time>
  <course>0.0</course>
  <speed>0.0</speed>
  <fix>3d</fix>
</trkpt>
<trkpt lat="40.0713749" lon="-105.229789">
  <ele>1583.0</ele>
  <time>2026-08-28T17:53:09Z</time>
  <course>247.95</course>
  <speed>0.022360679774997897</speed>
  <fix>3d</fix>
</trkpt>
<trkpt lat="40.0713749" lon="-105.229789">
  <ele>1583.0</ele>
  <time>2026-08-28T17:53:09Z</time>
  <course>0.0</course>
  <speed>0.0</speed>
  <fix>3d</fix>
</trkpt>
<trkpt lat="40.0713749" lon="-105.229789">
  <ele>1583.0</ele>
  <time>2026-08-28T17:53:09Z</time>
  <course>247.95</course>
  <speed>0.022360679774997897</speed>
  <fix>3d</fix>
</trkpt>
<trkpt lat="40.0713749" lon="-105.229789">
  <ele>1583.0</ele>
  <time>2026-08-28T17:53:09Z</time>
  <course>0.0</course>
  <speed>0.0</speed>
  <fix>3d</fix>
</trkpt>
<trkpt lat="40.0713749" lon="-105.229789">
  <ele>1583.0</ele>
  <time>2026-08-28T17:53:09Z</time>
  <course>247.94</course>
  <speed>0.022360679774997897</speed>
  <fix>3d</fix>
</trkpt>
<trkpt lat="40.0713749" lon="-105.229789">
  <ele>1583.0</ele>
  <time>2026-08-28T17:53:09Z</time>
  <course>0.0</course>
  <speed>0.0</speed>
  <fix>3d</fix>
</trkpt>
<trkpt lat="40.0713749" lon="-105.229789">
  <ele>1583.0</ele>
  <time>2026-08-28T17:53:09Z</time>
  <course>247.94</course>
  <speed>0.022360679774997897</speed>
  <fix>3d</fix>
</trkpt>
<trkpt lat="40.0713749" lon="-105.229789">
  <ele>1583.0</ele>
  <time>2026-08-28T17:53:09Z</time>
  <course>0.0</course>
  <speed>0.0</speed>
  <fix>3d</fix>
</trkpt>
<trkpt lat="40.0713749" lon="-105.229789">
  <ele>1583.0</ele>
  <time>2026-08-28T17:53:09Z</time>
  <course>247.93</course>
  <speed>0.022360679774997897</speed>
  <fix>3d</fix>
</trkpt>
<trkpt lat="40.0713749" lon="-105.229789">
  <ele>1583.0</ele>
  <time>2026-08-28T17:53:09Z</time>
  <course>0.0</course>
  <speed>0.0</speed>
  <fix>3d</fix>
</trkpt>
<trkpt lat="40.0713749" lon="-105.229789">
  <ele>1583.0</ele>
  <time>2026-08-28T17:53:09Z</time>
  <course>247.93</course>
  <speed>0.022360679774997897</speed>
  <fix>3d</fix>
</trkpt>
<trkpt lat="40.0713749" lon="-105.229789">
  <ele>1583.0</ele>
  <time>2026-08-28T17:53:09Z</time>
  <course>0.0</course>
  <speed>0.0</speed>
  <fix>3d</fix>
</trkpt>
<trkpt lat="40.0713749" lon="-105.229789">
  <ele>1583.0</ele>
  <time>2026-08-28T17:53:09Z</time>
  <course>247.92</course>
  <speed>0.022360679774997897</speed>
  <fix>3d</fix>
</trkpt>
<trkpt lat="40.0713749" lon="-105.229789">
  <ele>1583.0</ele>
  <time>2026-08-28T17:53:09Z</time>
  <course>0.0</course>
  <speed>0.0</speed>
  <fix>3d</fix>
</trkpt>
<trkpt lat="40.0713749" lon="-105.229789">
  <ele>1583.0</ele>
  <time>2026-08-28T17:53:09Z</time>
  <course>247.92</course>
  <speed>0.022360679774997897</speed>
  <fix>3d</fix>
</trkpt>
<trkpt lat="40.0713749" lon="-105.229789">
  <ele>1583.0</ele>
  <time>2026-08-28T17:53:09Z</time>
  <course>0.0</course>
  <speed>0.0</speed>
  <fix>3d</fix>
</trkpt>
<trkpt lat="40.0713749" lon="-105.229789">
  <ele>1583.0</ele>
  <time>2026-08-28T17:53:09Z</time>
  <course>247.92</course>
  <speed>0.022360679774997897</speed>
  <fix>3d</fix>
</trkpt>
<trkpt lat="40.0713749" lon="-105.229789">
  <ele>1583.0</ele>
  <time>2026-08-28T17:53:09Z</time>
  <course>0.0</course>
  <speed>0.0</speed>
  <fix>3d</fix>
</trkpt>
<trkpt lat="40.0713749" lon="-105.229789">
  <ele>1583.0</ele>
  <time>2026-08-28T17:53:09Z</time>
  <course>247.91</course>
  <speed>0.022360679774997897</speed>
  <fix>3d</fix>
</trkpt>
<trkpt lat="40.0713749" lon="-105.229789">
  <ele>1583.0</ele>
  <time>2026-08-28T17:53:09Z</time>
  <course>0.0</course>
  <speed>0.0</speed>
  <fix>3d</fix>
</trkpt>
<trkpt lat="40.0713749" lon="-105.229789">
  <ele>1583.0</ele>
  <time>2026-08-28T17:53:09Z</time>
  <course>247.91</course>
  <speed>0.022360679774997897</speed>
  <fix>3d</fix>
</trkpt>
<trkpt lat="40.0713749" lon="-105.229789">
  <ele>1583.0</ele>
  <time>2026-08-28T17:53:09Z</time>
  <course>0.0</course>
  <speed>0.0</speed>
  <fix>3d</fix>
</trkpt>
<trkpt lat="40.0713749" lon="-105.229789">
  <ele>1583.0</ele>
  <time>2026-08-28T17:53:09Z</time>
  <course>247.9</course>
  <speed>0.022360679774997897</speed>
  <fix>3d</fix>
</trkpt>
<trkpt lat="40.0713749" lon="-105.229789">
  <ele>1583.0</ele>
  <time>2026-08-28T17:53:09Z</time>
  <course>0.0</course>
  <speed>0.0</speed>
  <fix>3d</fix>
</trkpt>
<trkpt lat="40.0713749" lon="-105.229789">
  <ele>1583.0</ele>
  <time>2026-08-28T17:53:09Z</time>
  <course>247.9</course>
  <speed>0.022360679774997897</speed>
  <fix>3d</fix>
</trkpt>
<trkpt lat="40.0713749" lon="-105.229789">
  <ele>1583.0</ele>
  <time>2026-08-28T17:53:09Z</time>
  <course>0.0</course>
  <speed>0.0</speed>
  <fix>3d</fix>
</trkpt>
<trkpt lat="40.0713749" lon="-105.229789">
  <ele>1583.0</ele>
  <time>2026-08-28T17:53:09Z</time>
  <course>247.89</course>
  <speed>0.022360679774997897</speed>
  <fix>3d</fix>
</trkpt>
<trkpt lat="40.0713749" lon="-105.229789">
  <ele>1583.0</ele>
  <time>2026-08-28T17:53:09Z</time>
  <course>0.0</course>
  <speed>0.0</speed>
  <fix>3d</fix>
</trkpt>
<trkpt lat="40.0713749" lon="-105.229789">
  <ele>1583.0</ele>
  <time>2026-08-28T17:53:09Z</time>
  <course>247.89</course>
  <speed>0.022360679774997897</speed>
  <fix>3d</fix>
</trkpt>
<trkpt lat="40.0713749" lon="-105.229789">
  <ele>1583.0</ele>
  <time>2026-08-28T17:53:09Z</time>
  <course>0.0</course>
  <speed>0.0</speed>
  <fix>3d</fix>
</trkpt>
<trkpt lat="40.0713749" lon="-105.229789">
  <ele>1583.0</ele>
  <time>2026-08-28T17:53:09Z</time>
  <course>247.89</course>
  <speed>0.022360679774997897</speed>
  <fix>3d</fix>
</trkpt>
<trkpt lat="40.0713749" lon="-105.229789">
  <ele>1583.0</ele>
  <time>2026-08-28T17:53:09Z</time>
  <course>0.0</course>
  <speed>0.0</speed>
  <fix>3d</fix>
</trkpt>
<trkpt lat="40.0713749" lon="-105.229789">
  <ele>1583.0</ele>
  <time>2026-08-28T17:53:09Z</time>
  <course>247.88</course>
  <speed>0.0316227766016838</speed>
  <fix>3d</fix>
</trkpt>
<trkpt lat="40.0713749" lon="-105.229789">
  <ele>1583.0</ele>
  <time>2026-08-28T17:53:09Z</time>
  <course>0.0</course>
  <speed>0.0</speed>
  <fix>3d</fix>
</trkpt>
<trkpt lat="40.0713749" lon="-105.229789">
  <ele>1583.0</ele>
  <time>2026-08-28T17:53:09Z</time>
  <course>247.88</course>
  <speed>0.0316227766016838</speed>
  <fix>3d</fix>
</trkpt>
<trkpt lat="40.0713749" lon="-105.229789">
  <ele>1583.0</ele>
  <time>2026-08-28T17:53:09Z</time>
  <course>0.0</course>
  <speed>0.0</speed>
  <fix>3d</fix>
</trkpt>
<trkpt lat="40.0713749" lon="-105.229789">
  <ele>1583.0</ele>
  <time>2026-08-28T17:53:09Z</time>
  <course>247.87</course>
  <speed>0.0316227766016838</speed>
  <fix>3d</fix>
</trkpt>
<trkpt lat="40.0713749" lon="-105.229789">
  <ele>1583.0</ele>
  <time>2026-08-28T17:53:09Z</time>
  <course>0.0</course>
  <speed>0.0</speed>
  <fix>3d</fix>
</trkpt>
<trkpt lat="40.0713749" lon="-105.229789">
  <ele>1583.0</ele>
  <time>2026-08-28T17:53:09Z</time>
  <course>247.87</course>
  <speed>0.0316227766016838</speed>
  <fix>3d</fix>
</trkpt>
<trkpt lat="40.0713749" lon="-105.229789">
  <ele>1583.0</ele>
  <time>2026-08-28T17:53:09Z</time>
  <course>0.0</course>
  <speed>0.0</speed>
  <fix>3d</fix>
</trkpt>
<trkpt lat="40.0713749" lon="-105.229789">
  <ele>1583.0</ele>
  <time>2026-08-28T17:53:09Z</time>
  <course>247.87</course>
  <speed>0.0316227766016838</speed>
  <fix>3d</fix>
</trkpt>
<trkpt lat="40.0713749" lon="-105.229789">
  <ele>1583.0</ele>
  <time>2026-08-28T17:53:09Z</time>
  <course>0.0</course>
  <speed>0.0</speed>
  <fix>3d</fix>
</trkpt>
<trkpt lat="40.0713749" lon="-105.229789">
  <ele>1583.0</ele>
  <time>2026-08-28T17:53:09Z</time>
  <course>247.86</course>
  <speed>0.0316227766016838</speed>
  <fix>3d</fix>
</trkpt>
<trkpt lat="40.0713749" lon="-105.229789">
  <ele>1583.0</ele>
  <time>2026-08-28T17:53:09Z</time>
  <course>0.0</course>
  <speed>0.0</speed>
  <fix>3d</fix>
</trkpt>
<trkpt lat="40.0713749" lon="-105.229789">
  <ele>1583.0</ele>
  <time>2026-08-28T17:53:09Z</time>
  <course>247.86</course>
  <speed>0.0316227766016838</speed>
  <fix>3d</fix>
</trkpt>
<trkpt lat="40.0713749" lon="-105.229789">
  <ele>1583.0</ele>
  <time>2026-08-28T17:53:09Z</time>
  <course>0.0</course>
  <speed>0.0</speed>
  <fix>3d</fix>
</trkpt>
<trkpt lat="40.0713749" lon="-105.229789">
  <ele>1583.0</ele>
  <time>2026-08-28T17:53:09Z</time>
  <course>247.85</course>
  <speed>0.0316227766016838</speed>
  <fix>3d</fix>
</trkpt>
<trkpt lat="40.0713749" lon="-105.229789">
  <ele>1583.0</ele>
  <time>2026-08-28T17:53:09Z</time>
  <course>0.0</course>
  <speed>0.0</speed>
  <fix>3d</fix>
</trkpt>
<trkpt lat="40.0713749" lon="-105.229789">
  <ele>1583.0</ele>
  <time>2026-08-28T17:53:09Z</time>
  <course>247.85</course>
  <speed>0.0316227766016838</speed>
  <fix>3d</fix>
</trkpt>
<trkpt lat="40.0713749" lon="-105.229789">
  <ele>1583.0</ele>
  <time>2026-08-28T17:53:09Z</time>
  <course>0.0</course>
  <speed>0.0</speed>
  <fix>3d</fix>
</trkpt>
<trkpt lat="40.0713749" lon="-105.229789">
  <ele>1583.0</ele>
  <time>2026-08-28T17:53:09Z</time>
  <course>247.85</course>
  <speed>0.0316227766016838</speed>
  <fix>3d</fix>
</trkpt>
<trkpt lat="40.0713749" lon="-105.229789">
  <ele>1583.0</ele>
  <time>2026-08-28T17:53:09Z</time>
  <course>0.0</course>
  <speed>0.0</speed>
  <fix>3d</fix>
</trkpt>
<trkpt lat="40.0713749" lon="-105.229789">
  <ele>1583.0</ele>
  <time>2026-08-28T17:53:09Z</time>
  <course>247.84</course>
  <speed>0.0316227766016838</speed>
  <fix>3d</fix>
</trkpt>
<trkpt lat="40.0713749" lon="-105.229789">
  <ele>1583.0</ele>
  <time>2026-08-28T17:53:09Z</time>
  <course>0.0</course>
  <speed>0.0</speed>
  <fix>3d</fix>
</trkpt>
<trkpt lat="40.0713749" lon="-105.229789">
  <ele>1583.0</ele>
  <time>2026-08-28T17:53:09Z</time>
  <course>247.84</course>
  <speed>0.0316227766016838</speed>
  <fix>3d</fix>
</trkpt>
<trkpt lat="40.0713749" lon="-105.229789">
  <ele>1583.0</ele>
  <time>2026-08-28T17:53:09Z</time>
  <course>0.0</course>
  <speed>0.0</speed>
  <fix>3d</fix>
</trkpt>
<trkpt lat="40.0713749" lon="-105.229789">
  <ele>1583.0</ele>
  <time>2026-08-28T17:53:09Z</time>
  <course>247.83</course>
  <speed>0.0316227766016838</speed>
  <fix>3d</fix>
</trkpt>
<trkpt lat="40.0713749" lon="-105.229789">
  <ele>1583.0</ele>
  <time>2026-08-28T17:53:09Z</time>
  <course>0.0</course>
  <speed>0.0</speed>
  <fix>3d</fix>
</trkpt>
<trkpt lat="40.0713749" lon="-105.229789">
  <ele>1583.0</ele>
  <time>2026-08-28T17:53:09Z</time>
  <course>247.83</course>
  <speed>0.0316227766016838</speed>
  <fix>3d</fix>
</trkpt>
<trkpt lat="40.0713749" lon="-105.229789">
  <ele>1583.0</ele>
  <time>2026-08-28T17:53:09Z</time>
  <course>0.0</course>
  <speed>0.0</speed>
  <fix>3d</fix>
</trkpt>
<trkpt lat="40.0713749" lon="-105.229789">
  <ele>1583.0</ele>
  <time>2026-08-28T17:53:09Z</time>
  <course>247.83</course>
  <speed>0.0316227766016838</speed>
  <fix>3d</fix>
</trkpt>
<trkpt lat="40.0713749" lon="-105.229789">
  <ele>1583.0</ele>
  <time>2026-08-28T17:53:09Z</time>
  <course>0.0</course>
  <speed>0.0</speed>
  <fix>3d</fix>
</trkpt>
<trkpt lat="40.0713749" lon="-105.229789">
  <ele>1583.0</ele>
  <time>2026-08-28T17:53:09Z</time>
  <course>247.82</course>
  <speed>0.0316227766016838</speed>
  <fix>3d</fix>
</trkpt>
<trkpt lat="40.0713749" lon="-105.229789">
  <ele>1583.0</ele>
  <time>2026-08-28T17:53:09Z</time>
  <course>0.0</course>
  <speed>0.0</speed>
  <fix>3d</fix>
</trkpt>
<trkpt lat="40.0713749" lon="-105.229789">
  <ele>1583.0</ele>
  <time>2026-08-28T17:53:09Z</time>
  <course>247.82</course>
  <speed>0.0316227766016838</speed>
  <fix>3d</fix>
</trkpt>
<trkpt lat="40.0713749" lon="-105.229789">
  <ele>1583.0</ele>
  <time>2026-08-28T17:53:09Z</time>
  <course>0.0</course>
  <speed>0.0</speed>
  <fix>3d</fix>
</trkpt>
<trkpt lat="40.0713749" lon="-105.229789">
  <ele>1583.0</ele>
  <time>2026-08-28T17:53:09Z</time>
  <course>247.82</course>
  <speed>0.0316227766016838</speed>
  <fix>3d</fix>
</trkpt>
<trkpt lat="40.0713749" lon="-105.229789">
  <ele>1583.0</ele>
  <time>2026-08-28T17:53:09Z</time>
  <course>0.0</course>
  <speed>0.0</speed>
  <fix>3d</fix>
</trkpt>
<trkpt lat="40.0713749" lon="-105.229789">
  <ele>1583.0</ele>
  <time>2026-08-28T17:53:09Z</time>
  <course>247.81</course>
  <speed>0.0316227766016838</speed>
  <fix>3d</fix>
</trkpt>
<trkpt lat="40.0713749" lon="-105.229789">
  <ele>1583.0</ele>
  <time>2026-08-28T17:53:09Z</time>
  <course>0.0</course>
  <speed>0.0</speed>
  <fix>3d</fix>
</trkpt>
<trkpt lat="40.0713749" lon="-105.229789">
  <ele>1583.0</ele>
  <time>2026-08-28T17:53:09Z</time>
  <course>247.81</course>
  <speed>0.0316227766016838</speed>
  <fix>3d</fix>
</trkpt>
<trkpt lat="40.0713749" lon="-105.229789">
  <ele>1583.0</ele>
  <time>2026-08-28T17:53:09Z</time>
  <course>0.0</course>
  <speed>0.0</speed>
  <fix>3d</fix>
</trkpt>
<trkpt lat="40.0713749" lon="-105.229789">
  <ele>1583.0</ele>
  <time>2026-08-28T17:53:09Z</time>
  <course>247.8</course>
  <speed>0.0316227766016838</speed>
  <fix>3d</fix>
</trkpt>
<trkpt lat="40.0713749" lon="-105.229789">
  <ele>1583.0</ele>
  <time>2026-08-28T17:53:09Z</time>
  <course>0.0</course>
  <speed>0.0</speed>
  <fix>3d</fix>
</trkpt>
<trkpt lat="40.0713749" lon="-105.229789">
  <ele>1583.0</ele>
  <time>2026-08-28T17:53:09Z</time>
  <course>247.8</course>
  <speed>0.0316227766016838</speed>
  <fix>3d</fix>
</trkpt>
<trkpt lat="40.0713749" lon="-105.229789">
  <ele>1583.0</ele>
  <time>2026-08-28T17:53:09Z</time>
  <course>0.0</course>
  <speed>0.0</speed>
  <fix>3d</fix>
</trkpt>
<trkpt lat="40.0713749" lon="-105.229789">
  <ele>1583.0</ele>
  <time>2026-08-28T17:53:09Z</time>
  <course>247.8</course>
  <speed>0.0316227766016838</speed>
  <fix>3d</fix>
</trkpt>
<trkpt lat="40.0713749" lon="-105.229789">
  <ele>1583.0</ele>
  <time>2026-08-28T17:53:09Z</time>
  <course>0.0</course>
  <speed>0.0</speed>
  <fix>3d</fix>
</trkpt>
<trkpt lat="40.0713749" lon="-105.229789">
  <ele>1583.0</ele>
  <time>2026-08-28T17:53:09Z</time>
  <course>247.79</course>
  <speed>0.0316227766016838</speed>
  <fix>3d</fix>
</trkpt>
<trkpt lat="40.0713749" lon="-105.229789">
  <ele>1583.0</ele>
  <time>2026-08-28T17:53:09Z</time>
  <course>0.0</course>
  <speed>0.0</speed>
  <fix>3d</fix>
</trkpt>
<trkpt lat="40.0713749" lon="-105.229789">
  <ele>1583.0</ele>
  <time>2026-08-28T17:53:09Z</time>
  <course>247.79</course>
  <speed>0.0316227766016838</speed>
  <fix>3d</fix>
</trkpt>
<trkpt lat="40.0713749" lon="-105.229789">
  <ele>1583.0</ele>
  <time>2026-08-28T17:53:09Z</time>
  <course>0.0</course>
  <speed>0.0</speed>
  <fix>3d</fix>
</trkpt>
<trkpt lat="40.0713749" lon="-105.229789">
  <ele>1583.0</ele>
  <time>2026-08-28T17:53:09Z</time>
  <course>247.79</course>
  <speed>0.0316227766016838</speed>
  <fix>3d</fix>
</trkpt>
<trkpt lat="40.0713749" lon="-105.229789">
  <ele>1583.0</ele>
  <time>2026-08-28T17:53:09Z</time>
  <course>0.0</course>
  <speed>0.0</speed>
  <fix>3d</fix>
</trkpt>
<trkpt lat="40.0713749" lon="-105.229789">
  <ele>1583.0</ele>
  <time>2026-08-28T17:53:09Z</time>
  <course>247.78</course>
  <speed>0.0316227766016838</speed>
  <fix>3d</fix>
</trkpt>
<trkpt lat="40.0713749" lon="-105.229789">
  <ele>1583.0</ele>
  <time>2026-08-28T17:53:09Z</time>
  <course>0.0</course>
  <speed>0.0</speed>
  <fix>3d</fix>
</trkpt>
<trkpt lat="40.0713749" lon="-105.229789">
  <ele>1583.0</ele>
  <time>2026-08-28T17:53:09Z</time>
  <course>247.78</course>
  <speed>0.0316227766016838</speed>
  <fix>3d</fix>
</trkpt>
<trkpt lat="40.0713749" lon="-105.229789">
  <ele>1583.0</ele>
  <time>2026-08-28T17:53:09Z</time>
  <course>0.0</course>
  <speed>0.0</speed>
  <fix>3d</fix>
</trkpt>
<trkpt lat="40.0713749" lon="-105.229789">
  <ele>1583.0</ele>
  <time>2026-08-28T17:53:09Z</time>
  <course>247.78</course>
  <speed>0.0316227766016838</speed>
  <fix>3d</fix>
</trkpt>
<trkpt lat="40.0713749" lon="-105.229789">
  <ele>1583.0</ele>
  <time>2026-08-28T17:53:09Z</time>
  <course>0.0</course>
  <speed>0.0</speed>
  <fix>3d</fix>
</trkpt>
<trkpt lat="40.0713749" lon="-105.229789">
  <ele>1583.0</ele>
  <time>2026-08-28T17:53:09Z</time>
  <course>247.77</course>
  <speed>0.0316227766016838</speed>
  <fix>3d</fix>
</trkpt>
<trkpt lat="40.0713749" lon="-105.229789">
  <ele>1583.0</ele>
  <time>2026-08-28T17:53:09Z</time>
  <course>0.0</course>
  <speed>0.0</speed>
  <fix>3d</fix>
</trkpt>
<trkpt lat="40.0713749" lon="-105.229789">
  <ele>1583.0</ele>
  <time>2026-08-28T17:53:09Z</time>
  <course>247.77</course>
  <speed>0.0316227766016838</speed>
  <fix>3d</fix>
</trkpt>
<trkpt lat="40.0713749" lon="-105.229789">
  <ele>1583.0</ele>
  <time>2026-08-28T17:53:09Z</time>
  <course>0.0</course>
  <speed>0.0</speed>
  <fix>3d</fix>
</trkpt>
<trkpt lat="40.0713749" lon="-105.229789">
  <ele>1583.0</ele>
  <time>2026-08-28T17:53:09Z</time>
  <course>247.76</course>
  <speed>0.0316227766016838</speed>
  <fix>3d</fix>
</trkpt>
<trkpt lat="40.0713749" lon="-105.229789">
  <ele>1583.0</ele>
  <time>2026-08-28T17:53:09Z</time>
  <course>0.0</course>
  <speed>0.0</speed>
  <fix>3d</fix>
</trkpt>
<trkpt lat="40.0713749" lon="-105.229789">
  <ele>1583.0</ele>
  <time>2026-08-28T17:53:09Z</time>
  <course>247.76</course>
  <speed>0.0316227766016838</speed>
  <fix>3d</fix>
</trkpt>
<trkpt lat="40.0713749" lon="-105.229789">
  <ele>1583.0</ele>
  <time>2026-08-28T17:53:09Z</time>
  <course>0.0</course>
  <speed>0.0</speed>
  <fix>3d</fix>
</trkpt>
<trkpt lat="40.0713749" lon="-105.229789">
  <ele>1583.0</ele>
  <time>2026-08-28T17:53:09Z</time>
  <course>247.76</course>
  <speed>0.0316227766016838</speed>
  <fix>3d</fix>
</trkpt>
<trkpt lat="40.0713749" lon="-105.229789">
  <ele>1583.0</ele>
  <time>2026-08-28T17:53:09Z</time>
  <course>0.0</course>
  <speed>0.0</speed>
  <fix>3d</fix>
</trkpt>
<trkpt lat="40.0713749" lon="-105.229789">
  <ele>1583.0</ele>
  <time>2026-08-28T17:53:09Z</time>
  <course>247.75</course>
  <speed>0.0316227766016838</speed>
  <fix>3d</fix>
</trkpt>
<trkpt lat="40.0713749" lon="-105.229789">
  <ele>1583.0</ele>
  <time>2026-08-28T17:53:09Z</time>
  <course>0.0</course>
  <speed>0.0</speed>
  <fix>3d</fix>
</trkpt>
<trkpt lat="40.0713749" lon="-105.229789">
  <ele>1583.0</ele>
  <time>2026-08-28T17:53:09Z</time>
  <course>247.75</course>
  <speed>0.0316227766016838</speed>
  <fix>3d</fix>
</trkpt>
<trkpt lat="40.0713749" lon="-105.229789">
  <ele>1583.0</ele>
  <time>2026-08-28T17:53:09Z</time>
  <course>0.0</course>
  <speed>0.0</speed>
  <fix>3d</fix>
</trkpt>
<trkpt lat="40.0713749" lon="-105.229789">
  <ele>1583.0</ele>
  <time>2026-08-28T17:53:09Z</time>
  <course>247.75</course>
  <speed>0.0316227766016838</speed>
  <fix>3d</fix>
</trkpt>
<trkpt lat="40.0713749" lon="-105.229789">
  <ele>1583.0</ele>
  <time>2026-08-28T17:53:09Z</time>
  <course>0.0</course>
  <speed>0.0</speed>
  <fix>3d</fix>
</trkpt>
<trkpt lat="40.0713749" lon="-105.229789">
  <ele>1583.0</ele>
  <time>2026-08-28T17:53:09Z</time>
  <course>247.74</course>
  <speed>0.0316227766016838</speed>
  <fix>3d</fix>
</trkpt>
<trkpt lat="40.0713749" lon="-105.229789">
  <ele>1583.0</ele>
  <time>2026-08-28T17:53:09Z</time>
  <course>0.0</course>
  <speed>0.0</speed>
  <fix>3d</fix>
</trkpt>
<trkpt lat="40.0713749" lon="-105.229789">
  <ele>1583.0</ele>
  <time>2026-08-28T17:53:09Z</time>
  <course>247.74</course>
  <speed>0.0316227766016838</speed>
  <fix>3d</fix>
</trkpt>
<trkpt lat="40.0713749" lon="-105.229789">
  <ele>1583.0</ele>
  <time>2026-08-28T17:53:09Z</time>
  <course>0.0</course>
  <speed>0.0</speed>
  <fix>3d</fix>
</trkpt>
<trkpt lat="40.0713749" lon="-105.229789">
  <ele>1583.0</ele>
  <time>2026-08-28T17:53:09Z</time>
  <course>247.74</course>
  <speed>0.0316227766016838</speed>
  <fix>3d</fix>
</trkpt>
<trkpt lat="40.0713749" lon="-105.229789">
  <ele>1583.0</ele>
  <time>2026-08-28T17:53:09Z</time>
  <course>0.0</course>
  <speed>0.0</speed>
  <fix>3d</fix>
</trkpt>
<trkpt lat="40.0713749" lon="-105.229789">
  <ele>1583.0</ele>
  <time>2026-08-28T17:53:09Z</time>
  <course>247.73</course>
  <speed>0.0316227766016838</speed>
  <fix>3d</fix>
</trkpt>
<trkpt lat="40.0713749" lon="-105.229789">
  <ele>1583.0</ele>
  <time>2026-08-28T17:53:09Z</time>
  <course>0.0</course>
  <speed>0.0</speed>
  <fix>3d</fix>
</trkpt>
<trkpt lat="40.0713749" lon="-105.229789">
  <ele>1583.0</ele>
  <time>2026-08-28T17:53:09Z</time>
  <course>247.73</course>
  <speed>0.0316227766016838</speed>
  <fix>3d</fix>
</trkpt>
<trkpt lat="40.0713749" lon="-105.229789">
  <ele>1583.0</ele>
  <time>2026-08-28T17:53:09Z</time>
  <course>0.0</course>
  <speed>0.0</speed>
  <fix>3d</fix>
</trkpt>
<trkpt lat="40.0713749" lon="-105.229789">
  <ele>1583.0</ele>
  <time>2026-08-28T17:53:09Z</time>
  <course>247.73</course>
  <speed>0.0316227766016838</speed>
  <fix>3d</fix>
</trkpt>
<trkpt lat="40.0713749" lon="-105.229789">
  <ele>1583.0</ele>
  <time>2026-08-28T17:53:09Z</time>
  <course>0.0</course>
  <speed>0.0</speed>
  <fix>3d</fix>
</trkpt>
<trkpt lat="40.0713749" lon="-105.229789">
  <ele>1583.0</ele>
  <time>2026-08-28T17:53:09Z</time>
  <course>247.72</course>
  <speed>0.0316227766016838</speed>
  <fix>3d</fix>
</trkpt>
<trkpt lat="40.0713749" lon="-105.229789">
  <ele>1583.0</ele>
  <time>2026-08-28T17:53:09Z</time>
  <course>0.0</course>
  <speed>0.0</speed>
  <fix>3d</fix>
</trkpt>
<trkpt lat="40.0713749" lon="-105.229789">
  <ele>1583.0</ele>
  <time>2026-08-28T17:53:09Z</time>
  <course>247.72</course>
  <speed>0.0316227766016838</speed>
  <fix>3d</fix>
</trkpt>
<trkpt lat="40.0713749" lon="-105.229789">
  <ele>1583.0</ele>
  <time>2026-08-28T17:53:09Z</time>
  <course>0.0</course>
  <speed>0.0</speed>
  <fix>3d</fix>
</trkpt>
<trkpt lat="40.0713749" lon="-105.229789">
  <ele>1583.0</ele>
  <time>2026-08-28T17:53:09Z</time>
  <course>247.72</course>
  <speed>0.0316227766016838</speed>
  <fix>3d</fix>
</trkpt>
<trkpt lat="40.0713749" lon="-105.229789">
  <ele>1583.0</ele>
  <time>2026-08-28T17:53:09Z</time>
  <course>0.0</course>
  <speed>0.0</speed>
  <fix>3d</fix>
</trkpt>
<trkpt lat="40.0713749" lon="-105.229789">
  <ele>1583.0</ele>
  <time>2026-08-28T17:53:09Z</time>
  <course>247.71</course>
  <speed>0.0316227766016838</speed>
  <fix>3d</fix>
</trkpt>
<trkpt lat="40.0713749" lon="-105.229789">
  <ele>1583.0</ele>
  <time>2026-08-28T17:53:09Z</time>
  <course>0.0</course>
  <speed>0.0</speed>
  <fix>3d</fix>
</trkpt>
<trkpt lat="40.0713749" lon="-105.229789">
  <ele>1583.0</ele>
  <time>2026-08-28T17:53:09Z</time>
  <course>247.71</course>
  <speed>0.0316227766016838</speed>
  <fix>3d</fix>
</trkpt>
<trkpt lat="40.0713749" lon="-105.229789">
  <ele>1583.0</ele>
  <time>2026-08-28T17:53:09Z</time>
  <course>0.0</course>
  <speed>0.0</speed>
  <fix>3d</fix>
</trkpt>
<trkpt lat="40.0713749" lon="-105.229789">
  <ele>1583.0</ele>
  <time>2026-08-28T17:53:09Z</time>
  <course>247.71</course>
  <speed>0.0316227766016838</speed>
  <fix>3d</fix>
</trkpt>
<trkpt lat="40.0713749" lon="-105.229789">
  <ele>1583.0</ele>
  <time>2026-08-28T17:53:09Z</time>
  <course>0.0</course>
  <speed>0.0</speed>
  <fix>3d</fix>
</trkpt>
<trkpt lat="40.0713749" lon="-105.229789">
  <ele>1583.0</ele>
  <time>2026-08-28T17:53:09Z</time>
  <course>247.7</course>
  <speed>0.0316227766016838</speed>
  <fix>3d</fix>
</trkpt>
<trkpt lat="40.0713749" lon="-105.229789">
  <ele>1583.0</ele>
  <time>2026-08-28T17:53:09Z</time>
  <course>0.0</course>
  <speed>0.0</speed>
  <fix>3d</fix>
</trkpt>
<trkpt lat="40.0713749" lon="-105.229789">
  <ele>1583.0</ele>
  <time>2026-08-28T17:53:09Z</time>
  <course>247.7</course>
  <speed>0.0316227766016838</speed>
  <fix>3d</fix>
</trkpt>
<trkpt lat="40.0713749" lon="-105.229789">
  <ele>1583.0</ele>
  <time>2026-08-28T17:53:09Z</time>
  <course>0.0</course>
  <speed>0.0</speed>
  <fix>3d</fix>
</trkpt>
<trkpt lat="40.0713749" lon="-105.229789">
  <ele>1583.0</ele>
  <time>2026-08-28T17:53:09Z</time>
  <course>247.7</course>
  <speed>0.0316227766016838</speed>
  <fix>3d</fix>
</trkpt>
<trkpt lat="40.0713749" lon="-105.229789">
  <ele>1583.0</ele>
  <time>2026-08-28T17:53:09Z</time>
  <course>0.0</course>
  <speed>0.0</speed>
  <fix>3d</fix>
</trkpt>
<trkpt lat="40.0713749" lon="-105.229789">
  <ele>1583.0</ele>
  <time>2026-08-28T17:53:09Z</time>
  <course>247.69</course>
  <speed>0.0316227766016838</speed>
  <fix>3d</fix>
</trkpt>
<trkpt lat="40.0713749" lon="-105.229789">
  <ele>1583.0</ele>
  <time>2026-08-28T17:53:09Z</time>
  <course>0.0</course>
  <speed>0.0</speed>
  <fix>3d</fix>
</trkpt>
<trkpt lat="40.0713749" lon="-105.229789">
  <ele>1583.0</ele>
  <time>2026-08-28T17:53:09Z</time>
  <course>247.69</course>
  <speed>0.0316227766016838</speed>
  <fix>3d</fix>
</trkpt>
<trkpt lat="40.0713749" lon="-105.229789">
  <ele>1583.0</ele>
  <time>2026-08-28T17:53:09Z</time>
  <course>0.0</course>
  <speed>0.0</speed>
  <fix>3d</fix>
</trkpt>
<trkpt lat="40.0713749" lon="-105.229789">
  <ele>1583.0</ele>
  <time>2026-08-28T17:53:09Z</time>
  <course>247.69</course>
  <speed>0.0316227766016838</speed>
  <fix>3d</fix>
</trkpt>
<trkpt lat="40.0713749" lon="-105.229789">
  <ele>1583.0</ele>
  <time>2026-08-28T17:53:09Z</time>
  <course>0.0</course>
  <speed>0.0</speed>
  <fix>3d</fix>
</trkpt>
<trkpt lat="40.0713749" lon="-105.229789">
  <ele>1583.0</ele>
  <time>2026-08-28T17:53:09Z</time>
  <course>247.68</course>
  <speed>0.0316227766016838</speed>
  <fix>3d</fix>
</trkpt>
<trkpt lat="40.0713749" lon="-105.229789">
  <ele>1583.0</ele>
  <time>2026-08-28T17:53:09Z</time>
  <course>0.0</course>
  <speed>0.0</speed>
  <fix>3d</fix>
</trkpt>
<trkpt lat="40.0713749" lon="-105.229789">
  <ele>1583.0</ele>
  <time>2026-08-28T17:53:09Z</time>
  <course>247.68</course>
  <speed>0.0316227766016838</speed>
  <fix>3d</fix>
</trkpt>
<trkpt lat="40.0713749" lon="-105.229789">
  <ele>1583.0</ele>
  <time>2026-08-28T17:53:09Z</time>
  <course>0.0</course>
  <speed>0.0</speed>
  <fix>3d</fix>
</trkpt>
<trkpt lat="40.0713749" lon="-105.229789">
  <ele>1583.0</ele>
  <time>2026-08-28T17:53:09Z</time>
  <course>247.68</course>
  <speed>0.0316227766016838</speed>
  <fix>3d</fix>
</trkpt>
<trkpt lat="40.0713749" lon="-105.229789">
  <ele>1583.0</ele>
  <time>2026-08-28T17:53:09Z</time>
  <course>0.0</course>
  <speed>0.0</speed>
  <fix>3d</fix>
</trkpt>
<trkpt lat="40.0713749" lon="-105.229789">
  <ele>1583.0</ele>
  <time>2026-08-28T17:53:09Z</time>
  <course>247.67</course>
  <speed>0.0316227766016838</speed>
  <fix>3d</fix>
</trkpt>
<trkpt lat="40.0713749" lon="-105.229789">
  <ele>1583.0</ele>
  <time>2026-08-28T17:53:09Z</time>
  <course>0.0</course>
  <speed>0.0</speed>
  <fix>3d</fix>
</trkpt>
<trkpt lat="40.0713749" lon="-105.229789">
  <ele>1583.0</ele>
  <time>2026-08-28T17:53:09Z</time>
  <course>247.67</course>
  <speed>0.0316227766016838</speed>
  <fix>3d</fix>
</trkpt>
<trkpt lat="40.0713749" lon="-105.229789">
  <ele>1583.0</ele>
  <time>2026-08-28T17:53:09Z</time>
  <course>0.0</course>
  <speed>0.0</speed>
  <fix>3d</fix>
</trkpt>
<trkpt lat="40.0713749" lon="-105.229789">
  <ele>1583.0</ele>
  <time>2026-08-28T17:53:09Z</time>
  <course>247.67</course>
  <speed>0.0316227766016838</speed>
  <fix>3d</fix>
</trkpt>
<trkpt lat="40.0713749" lon="-105.229789">
  <ele>1583.0</ele>
  <time>2026-08-28T17:53:09Z</time>
  <course>0.0</course>
  <speed>0.0</speed>
  <fix>3d</fix>
</trkpt>
<trkpt lat="40.0713749" lon="-105.229789">
  <ele>1583.0</ele>
  <time>2026-08-28T17:53:09Z</time>
  <course>247.66</course>
  <speed>0.0316227766016838</speed>
  <fix>3d</fix>
</trkpt>
<trkpt lat="40.0713749" lon="-105.229789">
  <ele>1583.0</ele>
  <time>2026-08-28T17:53:09Z</time>
  <course>0.0</course>
  <speed>0.0</speed>
  <fix>3d</fix>
</trkpt>
<trkpt lat="40.0713749" lon="-105.229789">
  <ele>1583.0</ele>
  <time>2026-08-28T17:53:09Z</time>
  <course>247.66</course>
  <speed>0.0316227766016838</speed>
  <fix>3d</fix>
</trkpt>
<trkpt lat="40.0713749" lon="-105.229789">
  <ele>1583.0</ele>
  <time>2026-08-28T17:53:09Z</time>
  <course>0.0</course>
  <speed>0.0</speed>
  <fix>3d</fix>
</trkpt>
<trkpt lat="40.0713749" lon="-105.229789">
  <ele>1583.0</ele>
  <time>2026-08-28T17:53:09Z</time>
  <course>247.66</course>
  <speed>0.0316227766016838</speed>
  <fix>3d</fix>
</trkpt>
<trkpt lat="40.0713749" lon="-105.229789">
  <ele>1583.0</ele>
  <time>2026-08-28T17:53:09Z</time>
  <course>0.0</course>
  <speed>0.0</speed>
  <fix>3d</fix>
</trkpt>
<trkpt lat="40.0713749" lon="-105.229789">
  <ele>1583.0</ele>
  <time>2026-08-28T17:53:09Z</time>
  <course>247.65</course>
  <speed>0.0316227766016838</speed>
  <fix>3d</fix>
</trkpt>
<trkpt lat="40.0713749" lon="-105.229789">
  <ele>1583.0</ele>
  <time>2026-08-28T17:53:09Z</time>
  <course>0.0</course>
  <speed>0.0</speed>
  <fix>3d</fix>
</trkpt>
<trkpt lat="40.0713749" lon="-105.229789">
  <ele>1583.0</ele>
  <time>2026-08-28T17:53:09Z</time>
  <course>247.65</course>
  <speed>0.0316227766016838</speed>
  <fix>3d</fix>
</trkpt>
<trkpt lat="40.0713749" lon="-105.229789">
  <ele>1583.0</ele>
  <time>2026-08-28T17:53:09Z</time>
  <course>0.0</course>
  <speed>0.0</speed>
  <fix>3d</fix>
</trkpt>
<trkpt lat="40.0713749" lon="-105.229789">
  <ele>1583.0</ele>
  <time>2026-08-28T17:53:09Z</time>
  <course>247.65</course>
  <speed>0.0316227766016838</speed>
  <fix>3d</fix>
</trkpt>
<trkpt lat="40.0713749" lon="-105.229789">
  <ele>1583.0</ele>
  <time>2026-08-28T17:53:09Z</time>
  <course>0.0</course>
  <speed>0.0</speed>
  <fix>3d</fix>
</trkpt>
<trkpt lat="40.0713749" lon="-105.229789">
  <ele>1583.0</ele>
  <time>2026-08-28T17:53:09Z</time>
  <course>247.64</course>
  <speed>0.0316227766016838</speed>
  <fix>3d</fix>
</trkpt>
<trkpt lat="40.0713749" lon="-105.229789">
  <ele>1583.0</ele>
  <time>2026-08-28T17:53:09Z</time>
  <course>0.0</course>
  <speed>0.0</speed>
  <fix>3d</fix>
</trkpt>
<trkpt lat="40.0713749" lon="-105.229789">
  <ele>1583.0</ele>
  <time>2026-08-28T17:53:09Z</time>
  <course>247.64</course>
  <speed>0.0316227766016838</speed>
  <fix>3d</fix>
</trkpt>
<trkpt lat="40.0713749" lon="-105.229789">
  <ele>1583.0</ele>
  <time>2026-08-28T17:53:09Z</time>
  <course>0.0</course>
  <speed>0.0</speed>
  <fix>3d</fix>
</trkpt>
<trkpt lat="40.0713749" lon="-105.229789">
  <ele>1583.0</ele>
  <time>2026-08-28T17:53:09Z</time>
  <course>247.64</course>
  <speed>0.0316227766016838</speed>
  <fix>3d</fix>
</trkpt>
<trkpt lat="40.0713749" lon="-105.229789">
  <ele>1583.0</ele>
  <time>2026-08-28T17:53:09Z</time>
  <course>0.0</course>
  <speed>0.0</speed>
  <fix>3d</fix>
</trkpt>
<trkpt lat="40.0713749" lon="-105.229789">
  <ele>1583.0</ele>
  <time>2026-08-28T17:53:09Z</time>
  <course>247.64</course>
  <speed>0.0316227766016838</speed>
  <fix>3d</fix>
</trkpt>
<trkpt lat="40.0713749" lon="-105.229789">
  <ele>1583.0</ele>
  <time>2026-08-28T17:53:09Z</time>
  <course>0.0</course>
  <speed>0.0</speed>
  <fix>3d</fix>
</trkpt>
<trkpt lat="40.0713749" lon="-105.229789">
  <ele>1583.0</ele>
  <time>2026-08-28T17:53:09Z</time>
  <course>247.63</course>
  <speed>0.0316227766016838</speed>
  <fix>3d</fix>
</trkpt>
<trkpt lat="40.0713749" lon="-105.229789">
  <ele>1583.0</ele>
  <time>2026-08-28T17:53:09Z</time>
  <course>0.0</course>
  <speed>0.0</speed>
  <fix>3d</fix>
</trkpt>
<trkpt lat="40.0713749" lon="-105.229789">
  <ele>1583.0</ele>
  <time>2026-08-28T17:53:09Z</time>
  <course>247.63</course>
  <speed>0.0316227766016838</speed>
  <fix>3d</fix>
</trkpt>
<trkpt lat="40.0713749" lon="-105.229789">
  <ele>1583.0</ele>
  <time>2026-08-28T17:53:09Z</time>
  <course>0.0</course>
  <speed>0.0</speed>
  <fix>3d</fix>
</trkpt>
<trkpt lat="40.0713749" lon="-105.229789">
  <ele>1583.0</ele>
  <time>2026-08-28T17:53:09Z</time>
  <course>247.63</course>
  <speed>0.0316227766016838</speed>
  <fix>3d</fix>
</trkpt>
<trkpt lat="40.0713749" lon="-105.229789">
  <ele>1583.0</ele>
  <time>2026-08-28T17:53:09Z</time>
  <course>0.0</course>
  <speed>0.0</speed>
  <fix>3d</fix>
</trkpt>
<trkpt lat="40.0713749" lon="-105.229789">
  <ele>1583.0</ele>
  <time>2026-08-28T17:53:09Z</time>
  <course>247.62</course>
  <speed>0.0316227766016838</speed>
  <fix>3d</fix>
</trkpt>
<trkpt lat="40.0713749" lon="-105.229789">
  <ele>1583.0</ele>
  <time>2026-08-28T17:53:09Z</time>
  <course>0.0</course>
  <speed>0.0</speed>
  <fix>3d</fix>
</trkpt>
<trkpt lat="40.0713749" lon="-105.229789">
  <ele>1583.0</ele>
  <time>2026-08-28T17:53:09Z</time>
  <course>247.62</course>
  <speed>0.0316227766016838</speed>
  <fix>3d</fix>
</trkpt>
<trkpt lat="40.0713749" lon="-105.229789">
  <ele>1583.0</ele>
  <time>2026-08-28T17:53:09Z</time>
  <course>0.0</course>
  <speed>0.0</speed>
  <fix>3d</fix>
</trkpt>
<trkpt lat="40.0713749" lon="-105.229789">
  <ele>1583.0</ele>
  <time>2026-08-28T17:53:09Z</time>
  <course>247.62</course>
  <speed>0.0316227766016838</speed>
  <fix>3d</fix>
</trkpt>
<trkpt lat="40.0713749" lon="-105.229789">
  <ele>1583.0</ele>
  <time>2026-08-28T17:53:09Z</time>
  <course>0.0</course>
  <speed>0.0</speed>
  <fix>3d</fix>
</trkpt>
<trkpt lat="40.0713749" lon="-105.229789">
  <ele>1583.0</ele>
  <time>2026-08-28T17:53:09Z</time>
  <course>247.62</course>
  <speed>0.0316227766016838</speed>
  <fix>3d</fix>
</trkpt>
<trkpt lat="40.0713749" lon="-105.229789">
  <ele>1583.0</ele>
  <time>2026-08-28T17:53:09Z</time>
  <course>0.0</course>
  <speed>0.0</speed>
  <fix>3d</fix>
</trkpt>
<trkpt lat="40.0713749" lon="-105.229789">
  <ele>1583.0</ele>
  <time>2026-08-28T17:53:09Z</time>
  <course>247.61</course>
  <speed>0.0316227766016838</speed>
  <fix>3d</fix>
</trkpt>
<trkpt lat="40.0713749" lon="-105.229789">
  <ele>1583.0</ele>
  <time>2026-08-28T17:53:09Z</time>
  <course>0.0</course>
  <speed>0.0</speed>
  <fix>3d</fix>
</trkpt>
<trkpt lat="40.0713749" lon="-105.229789">
  <ele>1583.0</ele>
  <time>2026-08-28T17:53:09Z</time>
  <course>247.61</course>
  <speed>0.0316227766016838</speed>
  <fix>3d</fix>
</trkpt>
<trkpt lat="40.0713749" lon="-105.229789">
  <ele>1583.0</ele>
  <time>2026-08-28T17:53:09Z</time>
  <course>0.0</course>
  <speed>0.0</speed>
  <fix>3d</fix>
</trkpt>
<trkpt lat="40.0713749" lon="-105.229789">
  <ele>1583.0</ele>
  <time>2026-08-28T17:53:09Z</time>
  <course>247.61</course>
  <speed>0.0316227766016838</speed>
  <fix>3d</fix>
</trkpt>
<trkpt lat="40.0713749" lon="-105.229789">
  <ele>1583.0</ele>
  <time>2026-08-28T17:53:09Z</time>
  <course>0.0</course>
  <speed>0.0</speed>
  <fix>3d</fix>
</trkpt>
<trkpt lat="40.0713749" lon="-105.229789">
  <ele>1583.0</ele>
  <time>2026-08-28T17:53:09Z</time>
  <course>247.6</course>
  <speed>0.0316227766016838</speed>
  <fix>3d</fix>
</trkpt>
<trkpt lat="40.0713749" lon="-105.229789">
  <ele>1583.0</ele>
  <time>2026-08-28T17:53:09Z</time>
  <course>0.0</course>
  <speed>0.0</speed>
  <fix>3d</fix>
</trkpt>
<trkpt lat="40.0713749" lon="-105.229789">
  <ele>1583.0</ele>
  <time>2026-08-28T17:53:09Z</time>
  <course>247.6</course>
  <speed>0.0316227766016838</speed>
  <fix>3d</fix>
</trkpt>
<trkpt lat="40.0713749" lon="-105.229789">
  <ele>1583.0</ele>
  <time>2026-08-28T17:53:09Z</time>
  <course>0.0</course>
  <speed>0.0</speed>
  <fix>3d</fix>
</trkpt>
<trkpt lat="40.0713749" lon="-105.229789">
  <ele>1583.0</ele>
  <time>2026-08-28T17:53:09Z</time>
  <course>247.6</course>
  <speed>0.0316227766016838</speed>
  <fix>3d</fix>
</trkpt>
<trkpt lat="40.0713749" lon="-105.229789">
  <ele>1583.0</ele>
  <time>2026-08-28T17:53:09Z</time>
  <course>0.0</course>
  <speed>0.0</speed>
  <fix>3d</fix>
</trkpt>
<trkpt lat="40.0713749" lon="-105.229789">
  <ele>1583.0</ele>
  <time>2026-08-28T17:53:09Z</time>
  <course>247.6</course>
  <speed>0.0316227766016838</speed>
  <fix>3d</fix>
</trkpt>
<trkpt lat="40.0713749" lon="-105.229789">
  <ele>1583.0</ele>
  <time>2026-08-28T17:53:09Z</time>
  <course>0.0</course>
  <speed>0.0</speed>
  <fix>3d</fix>
</trkpt>
<trkpt lat="40.0713749" lon="-105.229789">
  <ele>1583.0</ele>
  <time>2026-08-28T17:53:09Z</time>
  <course>247.59</course>
  <speed>0.0316227766016838</speed>
  <fix>3d</fix>
</trkpt>
<trkpt lat="40.0713749" lon="-105.229789">
  <ele>1583.0</ele>
  <time>2026-08-28T17:53:09Z</time>
  <course>0.0</course>
  <speed>0.0</speed>
  <fix>3d</fix>
</trkpt>
<trkpt lat="40.0713749" lon="-105.229789">
  <ele>1582.92</ele>
  <time>2026-08-28T17:53:09Z</time>
  <course>247.59</course>
  <speed>0.0</speed>
  <fix>3d</fix>
</trkpt>
<trkpt lat="40.0713749" lon="-105.229789">
  <ele>1583.0</ele>
  <time>2026-08-28T17:53:09Z</time>
  <course>0.0</course>
  <speed>0.0</speed>
  <fix>3d</fix>
</trkpt>
<trkpt lat="40.0713749" lon="-105.229789">
  <ele>1582.92</ele>
  <time>2026-08-28T17:53:09Z</time>
  <course>247.59</course>
  <speed>0.0</speed>
  <fix>3d</fix>
</trkpt>
<trkpt lat="40.0713749" lon="-105.229789">
  <ele>1583.0</ele>
  <time>2026-08-28T17:53:09Z</time>
  <course>0.0</course>
  <speed>0.0</speed>
  <fix>3d</fix>
</trkpt>
<trkpt lat="40.0713749" lon="-105.229789">
  <ele>1582.91</ele>
  <time>2026-08-28T17:53:09Z</time>
  <course>247.58</course>
  <speed>0.0</speed>
  <fix>3d</fix>
</trkpt>
<trkpt lat="40.0713749" lon="-105.229789">
  <ele>1583.0</ele>
  <time>2026-08-28T17:53:09Z</time>
  <course>0.0</course>
  <speed>0.0</speed>
  <fix>3d</fix>
</trkpt>
<trkpt lat="40.0713749" lon="-105.229789">
  <ele>1582.91</ele>
  <time>2026-08-28T17:53:09Z</time>
  <course>247.58</course>
  <speed>0.0</speed>
  <fix>3d</fix>
</trkpt>
<trkpt lat="40.0713749" lon="-105.229789">
  <ele>1583.0</ele>
  <time>2026-08-28T17:53:09Z</time>
  <course>0.0</course>
  <speed>0.0</speed>
  <fix>3d</fix>
</trkpt>
<trkpt lat="40.0713749" lon="-105.229789">
  <ele>1582.9</ele>
  <time>2026-08-28T17:53:09Z</time>
  <course>247.58</course>
  <speed>0.0</speed>
  <fix>3d</fix>
</trkpt>
<trkpt lat="40.0713749" lon="-105.229789">
  <ele>1583.0</ele>
  <time>2026-08-28T17:53:09Z</time>
  <course>0.0</course>
  <speed>0.0</speed>
  <fix>3d</fix>
</trkpt>
<trkpt lat="40.0713749" lon="-105.229789">
  <ele>1582.9</ele>
  <time>2026-08-28T17:53:09Z</time>
  <course>247.58</course>
  <speed>0.0</speed>
  <fix>3d</fix>
</trkpt>
<trkpt lat="40.0713749" lon="-105.229789">
  <ele>1583.0</ele>
  <time>2026-08-28T17:53:09Z</time>
  <course>0.0</course>
  <speed>0.0</speed>
  <fix>3d</fix>
</trkpt>
<trkpt lat="40.0713749" lon="-105.229789">
  <ele>1582.9</ele>
  <time>2026-08-28T17:53:09Z</time>
  <course>247.57</course>
  <speed>0.0</speed>
  <fix>3d</fix>
</trkpt>
<trkpt lat="40.0713749" lon="-105.229789">
  <ele>1583.0</ele>
  <time>2026-08-28T17:53:09Z</time>
  <course>0.0</course>
  <speed>0.0</speed>
  <fix>3d</fix>
</trkpt>
<trkpt lat="40.0713749" lon="-105.229789">
  <ele>1582.9</ele>
  <time>2026-08-28T17:53:09Z</time>
  <course>247.57</course>
  <speed>0.0</speed>
  <fix>3d</fix>
</trkpt>
<trkpt lat="40.0713749" lon="-105.229789">
  <ele>1583.0</ele>
  <time>2026-08-28T17:53:09Z</time>
  <course>0.0</course>
  <speed>0.0</speed>
  <fix>3d</fix>
</trkpt>
<trkpt lat="40.0713749" lon="-105.229789">
  <ele>1582.9</ele>
  <time>2026-08-28T17:53:09Z</time>
  <course>247.57</course>
  <speed>0.0</speed>
  <fix>3d</fix>
</trkpt>
<trkpt lat="40.0713749" lon="-105.229789">
  <ele>1583.0</ele>
  <time>2026-08-28T17:53:09Z</time>
  <course>0.0</course>
  <speed>0.0</speed>
  <fix>3d</fix>
</trkpt>
<trkpt lat="40.0713749" lon="-105.229789">
  <ele>1582.9</ele>
  <time>2026-08-28T17:53:09Z</time>
  <course>247.57</course>
  <speed>0.01</speed>
  <fix>3d</fix>
</trkpt>
<trkpt lat="40.0713749" lon="-105.229789">
  <ele>1583.0</ele>
  <time>2026-08-28T17:53:09Z</time>
  <course>0.0</course>
  <speed>0.0</speed>
  <fix>3d</fix>
</trkpt>
<trkpt lat="40.0713749" lon="-105.229789">
  <ele>1582.9</ele>
  <time>2026-08-28T17:53:09Z</time>
  <course>247.56</course>
  <speed>0.01</speed>
  <fix>3d</fix>
</trkpt>
<trkpt lat="40.0713749" lon="-105.229789">
  <ele>1583.0</ele>
  <time>2026-08-28T17:53:09Z</time>
  <course>0.0</course>
  <speed>0.0</speed>
  <fix>3d</fix>
</trkpt>
<trkpt lat="40.0713749" lon="-105.229789">
  <ele>1582.91</ele>
  <time>2026-08-28T17:53:09Z</time>
  <course>247.56</course>
  <speed>0.01</speed>
  <fix>3d</fix>
</trkpt>
<trkpt lat="40.0713749" lon="-105.229789">
  <ele>1583.0</ele>
  <time>2026-08-28T17:53:09Z</time>
  <course>0.0</course>
  <speed>0.0</speed>
  <fix>3d</fix>
</trkpt>
<trkpt lat="40.0713749" lon="-105.229789">
  <ele>1582.91</ele>
  <time>2026-08-28T17:53:09Z</time>
  <course>247.56</course>
  <speed>0.01</speed>
  <fix>3d</fix>
</trkpt>
<trkpt lat="40.0713749" lon="-105.229789">
  <ele>1583.0</ele>
  <time>2026-08-28T17:53:09Z</time>
  <course>0.0</course>
  <speed>0.0</speed>
  <fix>3d</fix>
</trkpt>
<trkpt lat="40.0713749" lon="-105.229789">
  <ele>1582.92</ele>
  <time>2026-08-28T17:53:09Z</time>
  <course>247.56</course>
  <speed>0.01</speed>
  <fix>3d</fix>
</trkpt>
<trkpt lat="40.0713749" lon="-105.229789">
  <ele>1583.0</ele>
  <time>2026-08-28T17:53:09Z</time>
  <course>0.0</course>
  <speed>0.0</speed>
  <fix>3d</fix>
</trkpt>
<trkpt lat="40.0713749" lon="-105.229789">
  <ele>1582.92</ele>
  <time>2026-08-28T17:53:09Z</time>
  <course>247.55</course>
  <speed>0.01</speed>
  <fix>3d</fix>
</trkpt>
<trkpt lat="40.0713749" lon="-105.229789">
  <ele>1583.0</ele>
  <time>2026-08-28T17:53:09Z</time>
  <course>0.0</course>
  <speed>0.0</speed>
  <fix>3d</fix>
</trkpt>
<trkpt lat="40.0713749" lon="-105.229789">
  <ele>1582.92</ele>
  <time>2026-08-28T17:53:09Z</time>
  <course>247.55</course>
  <speed>0.01</speed>
  <fix>3d</fix>
</trkpt>
<trkpt lat="40.0713749" lon="-105.229789">
  <ele>1583.0</ele>
  <time>2026-08-28T17:53:09Z</time>
  <course>0.0</course>
  <speed>0.0</speed>
  <fix>3d</fix>
</trkpt>
<trkpt lat="40.0713749" lon="-105.229789">
  <ele>1582.93</ele>
  <time>2026-08-28T17:53:09Z</time>
  <course>247.55</course>
  <speed>0.01</speed>
  <fix>3d</fix>
</trkpt>
<trkpt lat="40.0713749" lon="-105.229789">
  <ele>1583.0</ele>
  <time>2026-08-28T17:53:09Z</time>
  <course>0.0</course>
  <speed>0.0</speed>
  <fix>3d</fix>
</trkpt>
<trkpt lat="40.0713749" lon="-105.229789">
  <ele>1582.93</ele>
  <time>2026-08-28T17:53:09Z</time>
  <course>247.55</course>
  <speed>0.01</speed>
  <fix>3d</fix>
</trkpt>
<trkpt lat="40.0713749" lon="-105.229789">
  <ele>1583.0</ele>
  <time>2026-08-28T17:53:09Z</time>
  <course>0.0</course>
  <speed>0.0</speed>
  <fix>3d</fix>
</trkpt>
<trkpt lat="40.0713749" lon="-105.229789">
  <ele>1582.93</ele>
  <time>2026-08-28T17:53:09Z</time>
  <course>247.54</course>
  <speed>0.01</speed>
  <fix>3d</fix>
</trkpt>
<trkpt lat="40.0713749" lon="-105.229789">
  <ele>1583.0</ele>
  <time>2026-08-28T17:53:09Z</time>
  <course>0.0</course>
  <speed>0.0</speed>
  <fix>3d</fix>
</trkpt>
<trkpt lat="40.0713749" lon="-105.229789">
  <ele>1582.93</ele>
  <time>2026-08-28T17:53:09Z</time>
  <course>247.54</course>
  <speed>0.01</speed>
  <fix>3d</fix>
</trkpt>
<trkpt lat="40.0713749" lon="-105.229789">
  <ele>1583.0</ele>
  <time>2026-08-28T17:53:09Z</time>
  <course>0.0</course>
  <speed>0.0</speed>
  <fix>3d</fix>
</trkpt>
<trkpt lat="40.0713749" lon="-105.229789">
  <ele>1582.94</ele>
  <time>2026-08-28T17:53:09Z</time>
  <course>247.54</course>
  <speed>0.01</speed>
  <fix>3d</fix>
</trkpt>
<trkpt lat="40.0713749" lon="-105.229789">
  <ele>1583.0</ele>
  <time>2026-08-28T17:53:09Z</time>
  <course>0.0</course>
  <speed>0.0</speed>
  <fix>3d</fix>
</trkpt>
<trkpt lat="40.0713749" lon="-105.229789">
  <ele>1582.94</ele>
  <time>2026-08-28T17:53:09Z</time>
  <course>247.54</course>
  <speed>0.02</speed>
  <fix>3d</fix>
</trkpt>
<trkpt lat="40.0713749" lon="-105.229789">
  <ele>1583.0</ele>
  <time>2026-08-28T17:53:09Z</time>
  <course>0.0</course>
  <speed>0.0</speed>
  <fix>3d</fix>
</trkpt>
<trkpt lat="40.0713749" lon="-105.229789">
  <ele>1582.94</ele>
  <time>2026-08-28T17:53:09Z</time>
  <course>247.53</course>
  <speed>0.01</speed>
  <fix>3d</fix>
</trkpt>
<trkpt lat="40.0713749" lon="-105.229789">
  <ele>1583.0</ele>
  <time>2026-08-28T17:53:09Z</time>
  <course>0.0</course>
  <speed>0.0</speed>
  <fix>3d</fix>
</trkpt>
<trkpt lat="40.0713749" lon="-105.229789">
  <ele>1582.95</ele>
  <time>2026-08-28T17:53:09Z</time>
  <course>247.53</course>
  <speed>0.01</speed>
  <fix>3d</fix>
</trkpt>
<trkpt lat="40.0713749" lon="-105.229789">
  <ele>1583.0</ele>
  <time>2026-08-28T17:53:09Z</time>
  <course>0.0</course>
  <speed>0.0</speed>
  <fix>3d</fix>
</trkpt>
<trkpt lat="40.0713749" lon="-105.229789">
  <ele>1582.95</ele>
  <time>2026-08-28T17:53:09Z</time>
  <course>247.53</course>
  <speed>0.01</speed>
  <fix>3d</fix>
</trkpt>
<trkpt lat="40.0713749" lon="-105.229789">
  <ele>1583.0</ele>
  <time>2026-08-28T17:53:09Z</time>
  <course>0.0</course>
  <speed>0.0</speed>
  <fix>3d</fix>
</trkpt>
<trkpt lat="40.0713749" lon="-105.229789">
  <ele>1582.95</ele>
  <time>2026-08-28T17:53:09Z</time>
  <course>247.53</course>
  <speed>0.01</speed>
  <fix>3d</fix>
</trkpt>
<trkpt lat="40.0713749" lon="-105.229789">
  <ele>1583.0</ele>
  <time>2026-08-28T17:53:09Z</time>
  <course>0.0</course>
  <speed>0.0</speed>
  <fix>3d</fix>
</trkpt>
<trkpt lat="40.0713749" lon="-105.229789">
  <ele>1582.96</ele>
  <time>2026-08-28T17:53:09Z</time>
  <course>247.54</course>
  <speed>0.02</speed>
  <fix>3d</fix>
</trkpt>
<trkpt lat="40.0713749" lon="-105.229789">
  <ele>1583.0</ele>
  <time>2026-08-28T17:53:09Z</time>
  <course>0.0</course>
  <speed>0.0</speed>
  <fix>3d</fix>
</trkpt>
<trkpt lat="40.0713749" lon="-105.229789">
  <ele>1582.96</ele>
  <time>2026-08-28T17:53:09Z</time>
  <course>247.67</course>
  <speed>0.15524174696260024</speed>
  <fix>3d</fix>
</trkpt>
<trkpt lat="40.0713749" lon="-105.229789">
  <ele>1583.0</ele>
  <time>2026-08-28T17:53:09Z</time>
  <course>246.14</course>
  <speed>0.08</speed>
  <fix>3d</fix>
</trkpt>
<trkpt lat="40.0713749" lon="-105.2297894">
  <ele>1582.96</ele>
  <time>2026-08-28T17:53:09Z</time>
  <course>248.05</course>
  <speed>0.3921734310225516</speed>
  <fix>3d</fix>
</trkpt>
<trkpt lat="40.0713749" lon="-105.229789">
  <ele>1583.0</ele>
  <time>2026-08-28T17:53:09Z</time>
  <course>246.14</course>
  <speed>0.08</speed>
  <fix>3d</fix>
</trkpt>
<trkpt lat="40.0713747" lon="-105.22979">
  <ele>1582.96</ele>
  <time>2026-08-28T17:53:09Z</time>
  <course>248.77</course>
  <speed>0.6706713054842887</speed>
  <fix>3d</fix>
</trkpt>
<trkpt lat="40.0713748" lon="-105.2297895">
  <ele>1583.0</ele>
  <time>2026-08-28T17:53:09Z</time>
  <course>247.02</course>
  <speed>0.42</speed>
  <fix>3d</fix>
</trkpt>
<trkpt lat="40.0713744" lon="-105.229791">
  <ele>1582.96</ele>
  <time>2026-08-28T17:53:09Z</time>
  <course>249.85</course>
  <speed>0.9330058949438638</speed>
  <fix>3d</fix>
</trkpt>
<trkpt lat="40.0713748" lon="-105.2297895">
  <ele>1583.0</ele>
  <time>2026-08-28T17:53:09Z</time>
  <course>247.02</course>
  <speed>0.42</speed>
  <fix>3d</fix>
</trkpt>
<trkpt lat="40.0713741" lon="-105.2297922">
  <ele>1582.96</ele>
  <time>2026-08-28T17:53:09Z</time>
  <course>251.27</course>
  <speed>1.1890332207301864</speed>
  <fix>3d</fix>
</trkpt>
<trkpt lat="40.0713743" lon="-105.2297909">
  <ele>1583.0</ele>
  <time>2026-08-28T17:53:09Z</time>
  <course>248.85</course>
  <speed>0.92</speed>
  <fix>3d</fix>
</trkpt>
<trkpt lat="40.0713737" lon="-105.2297938">
  <ele>1582.96</ele>
  <time>2026-08-28T17:53:09Z</time>
  <course>253.02</course>
  <speed>1.4396180048887968</speed>
  <fix>3d</fix>
</trkpt>
<trkpt lat="40.0713743" lon="-105.2297909">
  <ele>1583.0</ele>
  <time>2026-08-28T17:53:09Z</time>
  <course>248.85</course>
  <speed>0.92</speed>
  <fix>3d</fix>
</trkpt>
<trkpt lat="40.0713733" lon="-105.2297956">
  <ele>1582.95</ele>
  <time>2026-08-28T17:53:09Z</time>
  <course>255.08</course>
  <speed>1.6735590817177624</speed>
  <fix>3d</fix>
</trkpt>
<trkpt lat="40.0713736" lon="-105.2297935">
  <ele>1583.0</ele>
  <time>2026-08-28T17:53:09Z</time>
  <course>251.98</course>
  <speed>1.4</speed>
  <fix>3d</fix>
</trkpt>
<trkpt lat="40.0713728" lon="-105.2297977">
  <ele>1582.96</ele>
  <time>2026-08-28T17:53:09Z</time>
  <course>257.43</course>
  <speed>1.89274932307477</speed>
  <fix>3d</fix>
</trkpt>
<trkpt lat="40.0713736" lon="-105.2297935">
  <ele>1583.0</ele>
  <time>2026-08-28T17:53:09Z</time>
  <course>251.98</course>
  <speed>1.4</speed>
  <fix>3d</fix>
</trkpt>
<trkpt lat="40.0713725" lon="-105.2298001">
  <ele>1582.96</ele>
  <time>2026-08-28T17:53:09Z</time>
  <course>260.06</course>
  <speed>2.1010711553871753</speed>
  <fix>3d</fix>
</trkpt>
<trkpt lat="40.0713736" lon="-105.2297935">
  <ele>1583.0</ele>
  <time>2026-08-28T17:53:09Z</time>
  <course>251.98</course>
  <speed>1.4</speed>
  <fix>3d</fix>
</trkpt>
<trkpt lat="40.0713722" lon="-105.2298027">
  <ele>1582.96</ele>
  <time>2026-08-28T17:53:09Z</time>
  <course>262.95</course>
  <speed>2.297128642457797</speed>
  <fix>3d</fix>
</trkpt>
<trkpt lat="40.0713729" lon="-105.2297972">
  <ele>1583.0</ele>
  <time>2026-08-28T17:53:09Z</time>
  <course>256.38</course>
  <speed>1.84</speed>
  <fix>3d</fix>
</trkpt>
<trkpt lat="40.0713719" lon="-105.2298055">
  <ele>1582.95</ele>
  <time>2026-08-28T17:53:09Z</time>
  <course>266.1</course>
  <speed>2.4858197842965204</speed>
  <fix>3d</fix>
</trkpt>
<trkpt lat="40.0713729" lon="-105.2297972">
  <ele>1583.0</ele>
  <time>2026-08-28T17:53:09Z</time>
  <course>256.38</course>
  <speed>1.84</speed>
  <fix>3d</fix>
</trkpt>
<trkpt lat="40.0713718" lon="-105.2298085">
  <ele>1582.95</ele>
  <time>2026-08-28T17:53:09Z</time>
  <course>269.49</course>
  <speed>2.660169167553071</speed>
  <fix>3d</fix>
</trkpt>
<trkpt lat="40.0713722" lon="-105.2298019">
  <ele>1583.0</ele>
  <time>2026-08-28T17:53:09Z</time>
  <course>261.9</course>
  <speed>2.23</speed>
  <fix>3d</fix>
</trkpt>
<trkpt lat="40.0713719" lon="-105.2298117">
  <ele>1582.95</ele>
  <time>2026-08-28T17:53:09Z</time>
  <course>273.12</course>
  <speed>2.8234730386529283</speed>
  <fix>3d</fix>
</trkpt>
<trkpt lat="40.0713722" lon="-105.2298019">
  <ele>1583.0</ele>
  <time>2026-08-28T17:53:09Z</time>
  <course>261.9</course>
  <speed>2.23</speed>
  <fix>3d</fix>
</trkpt>
<trkpt lat="40.071372" lon="-105.229815">
  <ele>1582.95</ele>
  <time>2026-08-28T17:53:09Z</time>
  <course>276.96</course>
  <speed>2.9794630388712657</speed>
  <fix>3d</fix>
</trkpt>
<trkpt lat="40.0713718" lon="-105.2298076">
  <ele>1583.0</ele>
  <time>2026-08-28T17:53:09Z</time>
  <course>268.43</course>
  <speed>2.59</speed>
  <fix>3d</fix>
</trkpt>
<trkpt lat="40.0713724" lon="-105.2298186">
  <ele>1582.95</ele>
  <time>2026-08-28T17:53:09Z</time>
  <course>281.0</course>
  <speed>3.1243079233647886</speed>
  <fix>3d</fix>
</trkpt>
<trkpt lat="40.0713718" lon="-105.2298076">
  <ele>1583.0</ele>
  <time>2026-08-28T17:53:09Z</time>
  <course>268.43</course>
  <speed>2.59</speed>
  <fix>3d</fix>
</trkpt>
<trkpt lat="40.071373" lon="-105.2298222">
  <ele>1582.95</ele>
  <time>2026-08-28T17:53:09Z</time>
  <course>285.29</course>
  <speed>3.260076686214605</speed>
  <fix>3d</fix>
</trkpt>
<trkpt lat="40.0713719" lon="-105.2298141">
  <ele>1583.0</ele>
  <time>2026-08-28T17:53:09Z</time>
  <course>275.88</course>
  <speed>2.91</speed>
  <fix>3d</fix>
</trkpt>
<trkpt lat="40.0713739" lon="-105.2298259">
  <ele>1582.96</ele>
  <time>2026-08-28T17:53:09Z</time>
  <course>289.73</course>
  <speed>3.39365584583941</speed>
  <fix>3d</fix>
</trkpt>
<trkpt lat="40.0713729" lon="-105.2298211">
  <ele>1583.0</ele>
  <time>2026-08-28T17:53:09Z</time>
  <course>284.17</course>
  <speed>3.2</speed>
  <fix>3d</fix>
</trkpt>
<trkpt lat="40.0713751" lon="-105.2298297">
  <ele>1582.96</ele>
  <time>2026-08-28T17:53:09Z</time>
  <course>294.35</course>
  <speed>3.523251339317137</speed>
  <fix>3d</fix>
</trkpt>
<trkpt lat="40.0713729" lon="-105.2298211">
  <ele>1583.0</ele>
  <time>2026-08-28T17:53:09Z</time>
  <course>284.17</course>
  <speed>3.2</speed>
  <fix>3d</fix>
</trkpt>
<trkpt lat="40.0713765" lon="-105.2298334">
  <ele>1582.97</ele>
  <time>2026-08-28T17:53:09Z</time>
  <course>299.11</course>
  <speed>3.6433089355694226</speed>
  <fix>3d</fix>
</trkpt>
<trkpt lat="40.0713748" lon="-105.2298285">
  <ele>1583.0</ele>
  <time>2026-08-28T17:53:09Z</time>
  <course>293.21</course>
  <speed>3.46</speed>
  <fix>3d</fix>
</trkpt>
<trkpt lat="40.0713783" lon="-105.2298371">
  <ele>1582.97</ele>
  <time>2026-08-28T17:53:09Z</time>
  <course>304.08</course>
  <speed>3.7636418533117624</speed>
  <fix>3d</fix>
</trkpt>
<trkpt lat="40.0713748" lon="-105.2298285">
  <ele>1583.0</ele>
  <time>2026-08-28T17:53:09Z</time>
  <course>293.21</course>
  <speed>3.46</speed>
  <fix>3d</fix>
</trkpt>
<trkpt lat="40.0713803" lon="-105.2298407">
  <ele>1582.98</ele>
  <time>2026-08-28T17:53:09Z</time>
  <course>309.2</course>
  <speed>3.8684622267769395</speed>
  <fix>3d</fix>
</trkpt>
<trkpt lat="40.0713778" lon="-105.229836">
  <ele>1583.0</ele>
  <time>2026-08-28T17:53:09Z</time>
  <course>302.93</course>
  <speed>3.7</speed>
  <fix>3d</fix>
</trkpt>
<trkpt lat="40.0713827" lon="-105.2298442">
  <ele>1582.98</ele>
  <time>2026-08-28T17:53:09Z</time>
  <course>314.47</course>
  <speed>3.974342712952671</speed>
  <fix>3d</fix>
</trkpt>
<trkpt lat="40.0713778" lon="-105.229836">
  <ele>1583.0</ele>
  <time>2026-08-28T17:53:09Z</time>
  <course>302.93</course>
  <speed>3.7</speed>
  <fix>3d</fix>
</trkpt>
<trkpt lat="40.0713854" lon="-105.2298474">
  <ele>1582.98</ele>
  <time>2026-08-28T17:53:09Z</time>
  <course>319.93</course>
  <speed>4.079423978946047</speed>
  <fix>3d</fix>
</trkpt>
<trkpt lat="40.0713821" lon="-105.229843">
  <ele>1583.0</ele>
  <time>2026-08-28T17:53:09Z</time>
  <course>313.27</course>
  <speed>3.92</speed>
  <fix>3d</fix>
</trkpt>
<trkpt lat="40.0713884" lon="-105.2298504">
  <ele>1582.98</ele>
  <time>2026-08-28T17:53:09Z</time>
  <course>325.48</course>
  <speed>4.174841314349565</speed>
  <fix>3d</fix>
</trkpt>
<trkpt lat="40.0713821" lon="-105.229843">
  <ele>1583.0</ele>
  <time>2026-08-28T17:53:09Z</time>
  <course>313.27</course>
  <speed>3.92</speed>
  <fix>3d</fix>
</trkpt>
<trkpt lat="40.0713917" lon="-105.229853">
  <ele>1582.98</ele>
  <time>2026-08-28T17:53:09Z</time>
  <course>331.15</course>
  <speed>4.265887949770833</speed>
  <fix>3d</fix>
</trkpt>
<trkpt lat="40.0713875" lon="-105.2298492">
  <ele>1583.0</ele>
  <time>2026-08-28T17:53:09Z</time>
  <course>324.18</course>
  <speed>4.11</speed>
  <fix>3d</fix>
</trkpt>
<trkpt lat="40.0713952" lon="-105.2298551">
  <ele>1582.97</ele>
  <time>2026-08-28T17:53:09Z</time>
  <course>336.96</course>
  <speed>4.350183904158536</speed>
  <fix>3d</fix>
</trkpt>
<trkpt lat="40.0713875" lon="-105.2298492">
  <ele>1583.0</ele>
  <time>2026-08-28T17:53:09Z</time>
  <course>324.18</course>
  <speed>4.11</speed>
  <fix>3d</fix>
</trkpt>
<trkpt lat="40.0713989" lon="-105.2298569">
  <ele>1582.97</ele>
  <time>2026-08-28T17:53:09Z</time>
  <course>342.87</course>
  <speed>4.428205053969385</speed>
  <fix>3d</fix>
</trkpt>
<trkpt lat="40.071394" lon="-105.2298542">
  <ele>1583.0</ele>
  <time>2026-08-28T17:53:09Z</time>
  <course>335.58</course>
  <speed>4.28</speed>
  <fix>3d</fix>
</trkpt>
<trkpt lat="40.0714028" lon="-105.2298581">
  <ele>1582.97</ele>
  <time>2026-08-28T17:53:09Z</time>
  <course>348.89</course>
  <speed>4.5048085419915465</speed>
  <fix>3d</fix>
</trkpt>
<trkpt lat="40.071394" lon="-105.2298542">
  <ele>1583.0</ele>
  <time>2026-08-28T17:53:09Z</time>
  <course>335.58</course>
  <speed>4.28</speed>
  <fix>3d</fix>
</trkpt>
<trkpt lat="40.0714069" lon="-105.2298588">
  <ele>1582.97</ele>
  <time>2026-08-28T17:53:09Z</time>
  <course>355.02</course>
  <speed>4.57751024029439</speed>
  <fix>3d</fix>
</trkpt>
<trkpt lat="40.0714014" lon="-105.2298574">
  <ele>1583.0</ele>
  <time>2026-08-28T17:53:09Z</time>
  <course>347.45</course>
  <speed>4.44</speed>
  <fix>3d</fix>
</trkpt>
<trkpt lat="40.0714111" lon="-105.2298589">
  <ele>1582.97</ele>
  <time>2026-08-28T17:53:09Z</time>
  <course>1.24</course>
  <speed>4.650870886188951</speed>
  <fix>3d</fix>
</trkpt>
<trkpt lat="40.0714014" lon="-105.2298574">
  <ele>1583.0</ele>
  <time>2026-08-28T17:53:09Z</time>
  <course>347.45</course>
  <speed>4.44</speed>
  <fix>3d</fix>
</trkpt>
<trkpt lat="40.0714153" lon="-105.2298585">
  <ele>1582.97</ele>
  <time>2026-08-28T17:53:09Z</time>
  <course>7.56</course>
  <speed>4.709670901453731</speed>
  <fix>3d</fix>
</trkpt>
<trkpt lat="40.0714014" lon="-105.2298574">
  <ele>1583.0</ele>
  <time>2026-08-28T17:53:09Z</time>
  <course>347.45</course>
  <speed>4.44</speed>
  <fix>3d</fix>
</trkpt>
<trkpt lat="40.0714194" lon="-105.2298574">
  <ele>1582.97</ele>
  <time>2026-08-28T17:53:09Z</time>
  <course>13.96</course>
  <speed>4.768280612547882</speed>
  <fix>3d</fix>
</trkpt>
<trkpt lat="40.0714095" lon="-105.2298586">
  <ele>1583.0</ele>
  <time>2026-08-28T17:53:09Z</time>
  <course>359.75</course>
  <speed>4.58</speed>
  <fix>3d</fix>
</trkpt>
<trkpt lat="40.0714235" lon="-105.2298558">
  <ele>1582.97</ele>
  <time>2026-08-28T17:53:09Z</time>
  <course>20.44</course>
  <speed>4.822115718229914</speed>
  <fix>3d</fix>
</trkpt>
<trkpt lat="40.0714095" lon="-105.2298586">
  <ele>1583.0</ele>
  <time>2026-08-28T17:53:09Z</time>
  <course>359.75</course>
  <speed>4.58</speed>
  <fix>3d</fix>
</trkpt>
<trkpt lat="40.0714274" lon="-105.2298535">
  <ele>1582.97</ele>
  <time>2026-08-28T17:53:09Z</time>
  <course>27.0</course>
  <speed>4.879200754221945</speed>
  <fix>3d</fix>
</trkpt>
<trkpt lat="40.0714178" lon="-105.2298575">
  <ele>1583.0</ele>
  <time>2026-08-28T17:53:09Z</time>
  <course>12.43</course>
  <speed>4.71</speed>
  <fix>3d</fix>
</trkpt>
<trkpt lat="40.0714311" lon="-105.2298505">
  <ele>1582.97</ele>
  <time>2026-08-28T17:53:09Z</time>
  <course>33.63</course>
  <speed>4.920203247834382</speed>
  <fix>3d</fix>
</trkpt>
<trkpt lat="40.0714178" lon="-105.2298575">
  <ele>1583.0</ele>
  <time>2026-08-28T17:53:09Z</time>
  <course>12.43</course>
  <speed>4.71</speed>
  <fix>3d</fix>
</trkpt>
<trkpt lat="40.0714346" lon="-105.229847">
  <ele>1582.97</ele>
  <time>2026-08-28T17:53:09Z</time>
  <course>40.32</course>
  <speed>4.966709172077625</speed>
  <fix>3d</fix>
</trkpt>
<trkpt lat="40.0714259" lon="-105.2298539">
  <ele>1583.0</ele>
  <time>2026-08-28T17:53:09Z</time>
  <course>25.43</course>
  <speed>4.83</speed>
  <fix>3d</fix>
</trkpt>
<trkpt lat="40.0714378" lon="-105.229843">
  <ele>1582.97</ele>
  <time>2026-08-28T17:53:09Z</time>
  <course>47.15</course>
  <speed>5.009690609209315</speed>
  <fix>3d</fix>
</trkpt>
<trkpt lat="40.0714333" lon="-105.2298478">
  <ele>1583.0</ele>
  <time>2026-08-28T17:53:09Z</time>
  <course>38.73</course>
  <speed>4.93</speed>
  <fix>3d</fix>
</trkpt>
<trkpt lat="40.0714406" lon="-105.2298383">
  <ele>1582.97</ele>
  <time>2026-08-28T17:53:09Z</time>
  <course>53.99</course>
  <speed>5.048732514205917</speed>
  <fix>3d</fix>
</trkpt>
<trkpt lat="40.0714333" lon="-105.2298478">
  <ele>1583.0</ele>
  <time>2026-08-28T17:53:10Z</time>
  <course>38.73</course>
  <speed>4.93</speed>
  <fix>3d</fix>
</trkpt>
<trkpt lat="40.071443" lon="-105.2298333">
  <ele>1582.97</ele>
  <time>2026-08-28T17:53:10Z</time>
  <course>60.9</course>
  <speed>5.098284025042151</speed>
  <fix>3d</fix>
</trkpt>
<trkpt lat="40.0714396" lon="-105.2298395">
  <ele>1583.0</ele>
  <time>2026-08-28T17:53:10Z</time>
  <course>52.3</course>
  <speed>5.03</speed>
  <fix>3d</fix>
</trkpt>
<trkpt lat="40.071445" lon="-105.2298278">
  <ele>1582.97</ele>
  <time>2026-08-28T17:53:10Z</time>
  <course>67.82</course>
  <speed>5.13264064590538</speed>
  <fix>3d</fix>
</trkpt>
<trkpt lat="40.0714396" lon="-105.2298395">
  <ele>1583.0</ele>
  <time>2026-08-28T17:53:10Z</time>
  <course>52.3</course>
  <speed>5.03</speed>
  <fix>3d</fix>
</trkpt>
<trkpt lat="40.0714464" lon="-105.229822">
  <ele>1582.97</ele>
  <time>2026-08-28T17:53:10Z</time>
  <course>74.85</course>
  <speed>5.1738670257361665</speed>
  <fix>3d</fix>
</trkpt>
<trkpt lat="40.0714442" lon="-105.2298292">
  <ele>1583.0</ele>
  <time>2026-08-28T17:53:10Z</time>
  <course>66.13</course>
  <speed>5.12</speed>
  <fix>3d</fix>
</trkpt>
<trkpt lat="40.0714473" lon="-105.2298159">
  <ele>1582.98</ele>
  <time>2026-08-28T17:53:10Z</time>
  <course>81.94</course>
  <speed>5.217173564297051</speed>
  <fix>3d</fix>
</trkpt>
<trkpt lat="40.0714442" lon="-105.2298292">
  <ele>1583.0</ele>
  <time>2026-08-28T17:53:10Z</time>
  <course>66.13</course>
  <speed>5.12</speed>
  <fix>3d</fix>
</trkpt>
<trkpt lat="40.0714476" lon="-105.2298097">
  <ele>1582.98</ele>
  <time>2026-08-28T17:53:10Z</time>
  <course>89.07</course>
  <speed>5.260237637217544</speed>
  <fix>3d</fix>
</trkpt>
<trkpt lat="40.0714469" lon="-105.2298177">
  <ele>1583.0</ele>
  <time>2026-08-28T17:53:10Z</time>
  <course>80.18</course>
  <speed>5.19</speed>
  <fix>3d</fix>
</trkpt>
<trkpt lat="40.0714473" lon="-105.2298034">
  <ele>1582.98</ele>
  <time>2026-08-28T17:53:10Z</time>
  <course>96.32</course>
  <speed>5.296413881108613</speed>
  <fix>3d</fix>
</trkpt>
<trkpt lat="40.0714469" lon="-105.2298177">
  <ele>1583.0</ele>
  <time>2026-08-28T17:53:10Z</time>
  <course>80.18</course>
  <speed>5.19</speed>
  <fix>3d</fix>
</trkpt>
<trkpt lat="40.0714465" lon="-105.2297972">
  <ele>1582.98</ele>
  <time>2026-08-28T17:53:10Z</time>
  <course>103.54</course>
  <speed>5.328508234018223</speed>
  <fix>3d</fix>
</trkpt>
<trkpt lat="40.0714473" lon="-105.2298055">
  <ele>1583.0</ele>
  <time>2026-08-28T17:53:10Z</time>
  <course>94.44</course>
  <speed>5.26</speed>
  <fix>3d</fix>
</trkpt>
<trkpt lat="40.071445" lon="-105.2297912">
  <ele>1582.99</ele>
  <time>2026-08-28T17:53:10Z</time>
  <course>110.81</course>
  <speed>5.357480751248669</speed>
  <fix>3d</fix>
</trkpt>
<trkpt lat="40.0714473" lon="-105.2298055">
  <ele>1583.0</ele>
  <time>2026-08-28T17:53:10Z</time>
  <course>94.44</course>
  <speed>5.26</speed>
  <fix>3d</fix>
</trkpt>
<trkpt lat="40.0714429" lon="-105.2297855">
  <ele>1582.99</ele>
  <time>2026-08-28T17:53:10Z</time>
  <course>118.12</course>
  <speed>5.392680224155702</speed>
  <fix>3d</fix>
</trkpt>
<trkpt lat="40.0714455" lon="-105.2297933">
  <ele>1583.0</ele>
  <time>2026-08-28T17:53:10Z</time>
  <course>108.88</course>
  <speed>5.33</speed>
  <fix>3d</fix>
</trkpt>
<trkpt lat="40.0714402" lon="-105.2297801">
  <ele>1582.99</ele>
  <time>2026-08-28T17:53:10Z</time>
  <course>125.46</course>
  <speed>5.4185330118031025</speed>
  <fix>3d</fix>
</trkpt>
<trkpt lat="40.0714455" lon="-105.2297933">
  <ele>1583.0</ele>
  <time>2026-08-28T17:53:10Z</time>
  <course>108.88</course>
  <speed>5.33</speed>
  <fix>3d</fix>
</trkpt>
<trkpt lat="40.0714371" lon="-105.2297752">
  <ele>1582.99</ele>
  <time>2026-08-28T17:53:10Z</time>
  <course>132.84</course>
  <speed>5.453815178386594</speed>
  <fix>3d</fix>
</trkpt>
<trkpt lat="40.0714413" lon="-105.2297821">
  <ele>1583.0</ele>
  <time>2026-08-28T17:53:10Z</time>
  <course>123.49</course>
  <speed>5.38</speed>
  <fix>3d</fix>
</trkpt>
<trkpt lat="40.0714335" lon="-105.2297708">
  <ele>1582.99</ele>
  <time>2026-08-28T17:53:10Z</time>
  <course>140.26</course>
  <speed>5.474029594366475</speed>
  <fix>3d</fix>
</trkpt>
<trkpt lat="40.0714413" lon="-105.2297821">
  <ele>1583.0</ele>
  <time>2026-08-28T17:53:10Z</time>
  <course>123.49</course>
  <speed>5.38</speed>
  <fix>3d</fix>
</trkpt>
<trkpt lat="40.0714294" lon="-105.2297671">
  <ele>1582.99</ele>
  <time>2026-08-28T17:53:10Z</time>
  <course>147.71</course>
  <speed>5.503680586661984</speed>
  <fix>3d</fix>
</trkpt>
<trkpt lat="40.0714413" lon="-105.2297821">
  <ele>1583.0</ele>
  <time>2026-08-28T17:53:10Z</time>
  <course>123.49</course>
  <speed>5.38</speed>
  <fix>3d</fix>
</trkpt>
<trkpt lat="40.0714251" lon="-105.2297641">
  <ele>1583.0</ele>
  <time>2026-08-28T17:53:10Z</time>
  <course>155.18</course>
  <speed>5.523513374655664</speed>
  <fix>3d</fix>
</trkpt>
<trkpt lat="40.0714349" lon="-105.2297725">
  <ele>1583.0</ele>
  <time>2026-08-28T17:53:10Z</time>
  <course>138.29</course>
  <speed>5.44</speed>
  <fix>3d</fix>
</trkpt>
<trkpt lat="40.0714205" lon="-105.2297619">
  <ele>1583.0</ele>
  <time>2026-08-28T17:53:10Z</time>
  <course>162.68</course>
  <speed>5.54294145738524</speed>
  <fix>3d</fix>
</trkpt>
<trkpt lat="40.0714349" lon="-105.2297725">
  <ele>1583.0</ele>
  <time>2026-08-28T17:53:10Z</time>
  <course>138.29</course>
  <speed>5.44</speed>
  <fix>3d</fix>
</trkpt>
<trkpt lat="40.0714157" lon="-105.2297604">
  <ele>1582.99</ele>
  <time>2026-08-28T17:53:10Z</time>
  <course>170.2</course>
  <speed>5.560080934662732</speed>
  <fix>3d</fix>
</trkpt>
<trkpt lat="40.0714268" lon="-105.2297653">
  <ele>1583.0</ele>
  <time>2026-08-28T17:53:10Z</time>
  <course>153.22</course>
  <speed>5.48</speed>
  <fix>3d</fix>
</trkpt>
<trkpt lat="40.0714108" lon="-105.2297598">
  <ele>1583.0</ele>
  <time>2026-08-28T17:53:10Z</time>
  <course>177.75</course>
  <speed>5.572297551279903</speed>
  <fix>3d</fix>
</trkpt>
<trkpt lat="40.0714268" lon="-105.2297653">
  <ele>1583.0</ele>
  <time>2026-08-28T17:53:10Z</time>
  <course>153.22</course>
  <speed>5.48</speed>
  <fix>3d</fix>
</trkpt>
<trkpt lat="40.0714059" lon="-105.2297601">
  <ele>1583.0</ele>
  <time>2026-08-28T17:53:10Z</time>
  <course>185.33</course>
  <speed>5.589141257832011</speed>
  <fix>3d</fix>
</trkpt>
<trkpt lat="40.0714174" lon="-105.229761">
  <ele>1583.0</ele>
  <time>2026-08-28T17:53:10Z</time>
  <course>168.24</course>
  <speed>5.53</speed>
  <fix>3d</fix>
</trkpt>
<trkpt lat="40.071401" lon="-105.2297612">
  <ele>1583.0</ele>
  <time>2026-08-28T17:53:10Z</time>
  <course>192.93</course>
  <speed>5.595507126257637</speed>
  <fix>3d</fix>
</trkpt>
<trkpt lat="40.0714174" lon="-105.229761">
  <ele>1583.0</ele>
  <time>2026-08-28T17:53:10Z</time>
  <course>168.24</course>
  <speed>5.53</speed>
  <fix>3d</fix>
</trkpt>
<trkpt lat="40.0713963" lon="-105.2297631">
  <ele>1583.0</ele>
  <time>2026-08-28T17:53:10Z</time>
  <course>200.62</course>
  <speed>5.610151513105507</speed>
  <fix>3d</fix>
</trkpt>
<trkpt lat="40.0714076" lon="-105.22976">
  <ele>1583.0</ele>
  <time>2026-08-28T17:53:10Z</time>
  <course>183.38</course>
  <speed>5.56</speed>
  <fix>3d</fix>
</trkpt>
<trkpt lat="40.0713918" lon="-105.2297659">
  <ele>1583.0</ele>
  <time>2026-08-28T17:53:10Z</time>
  <course>208.26</course>
  <speed>5.616983176047442</speed>
  <fix>3d</fix>
</trkpt>
<trkpt lat="40.0713978" lon="-105.2297624">
  <ele>1583.0</ele>
  <time>2026-08-28T17:53:10Z</time>
  <course>198.62</course>
  <speed>5.6</speed>
  <fix>3d</fix>
</trkpt>
<trkpt lat="40.0713876" lon="-105.2297693">
  <ele>1583.0</ele>
  <time>2026-08-28T17:53:10Z</time>
  <course>215.94</course>
  <speed>5.632051136131489</speed>
  <fix>3d</fix>
</trkpt>
<trkpt lat="40.0713978" lon="-105.2297624">
  <ele>1583.0</ele>
  <time>2026-08-28T17:53:10Z</time>
  <course>198.62</course>
  <speed>5.6</speed>
  <fix>3d</fix>
</trkpt>
<trkpt lat="40.0713837" lon="-105.2297736">
  <ele>1583.0</ele>
  <time>2026-08-28T17:53:10Z</time>
  <course>223.58</course>
  <speed>5.65014159114619</speed>
  <fix>3d</fix>
</trkpt>
<trkpt lat="40.0713887" lon="-105.2297682">
  <ele>1583.0</ele>
  <time>2026-08-28T17:53:10Z</time>
  <course>213.95</course>
  <speed>5.63</speed>
  <fix>3d</fix>
</trkpt>
<trkpt lat="40.0713804" lon="-105.2297786">
  <ele>1583.0</ele>
  <time>2026-08-28T17:53:10Z</time>
  <course>231.3</course>
  <speed>5.664918357752387</speed>
  <fix>3d</fix>
</trkpt>
<trkpt lat="40.0713887" lon="-105.2297682">
  <ele>1583.0</ele>
  <time>2026-08-28T17:53:10Z</time>
  <course>213.95</course>
  <speed>5.63</speed>
  <fix>3d</fix>
</trkpt>
<trkpt lat="40.0713775" lon="-105.2297841">
  <ele>1583.0</ele>
  <time>2026-08-28T17:53:10Z</time>
  <course>239.05</course>
  <speed>5.680845007567097</speed>
  <fix>3d</fix>
</trkpt>
<trkpt lat="40.0713812" lon="-105.229777">
  <ele>1583.0</ele>
  <time>2026-08-28T17:53:10Z</time>
  <course>229.36</course>
  <speed>5.66</speed>
  <fix>3d</fix>
</trkpt>
<trkpt lat="40.0713752" lon="-105.2297902">
  <ele>1583.0</ele>
  <time>2026-08-28T17:53:10Z</time>
  <course>246.82</course>
  <speed>5.691695705147984</speed>
  <fix>3d</fix>
</trkpt>
<trkpt lat="40.0713812" lon="-105.229777">
  <ele>1583.0</ele>
  <time>2026-08-28T17:53:10Z</time>
  <course>229.36</course>
  <speed>5.66</speed>
  <fix>3d</fix>
</trkpt>
<trkpt lat="40.0713736" lon="-105.2297966">
  <ele>1583.0</ele>
  <time>2026-08-28T17:53:10Z</time>
  <course>254.67</course>
  <speed>5.716616131943791</speed>
  <fix>3d</fix>
</trkpt>
<trkpt lat="40.0713757" lon="-105.2297882">
  <ele>1583.0</ele>
  <time>2026-08-28T17:53:10Z</time>
  <course>244.85</course>
  <speed>5.68</speed>
  <fix>3d</fix>
</trkpt>
<trkpt lat="40.0713726" lon="-105.2298033">
  <ele>1583.0</ele>
  <time>2026-08-28T17:53:10Z</time>
  <course>262.47</course>
  <speed>5.736941693969008</speed>
  <fix>3d</fix>
</trkpt>
<trkpt lat="40.0713757" lon="-105.2297882">
  <ele>1583.0</ele>
  <time>2026-08-28T17:53:10Z</time>
  <course>244.85</course>
  <speed>5.68</speed>
  <fix>3d</fix>
</trkpt>
<trkpt lat="40.0713724" lon="-105.22981">
  <ele>1583.0</ele>
  <time>2026-08-28T17:53:10Z</time>
  <course>270.28</course>
  <speed>5.75146937747216</speed>
  <fix>3d</fix>
</trkpt>
<trkpt lat="40.0713726" lon="-105.2298009">
  <ele>1583.0</ele>
  <time>2026-08-28T17:53:10Z</time>
  <course>260.4</course>
  <speed>5.71</speed>
  <fix>3d</fix>
</trkpt>
<trkpt lat="40.0713729" lon="-105.2298168">
  <ele>1583.0</ele>
  <time>2026-08-28T17:53:10Z</time>
  <course>278.11</course>
  <speed>5.763896251668657</speed>
  <fix>3d</fix>
</trkpt>
<trkpt lat="40.0713726" lon="-105.2298009">
  <ele>1583.0</ele>
  <time>2026-08-28T17:53:10Z</time>
  <course>260.4</course>
  <speed>5.71</speed>
  <fix>3d</fix>
</trkpt>
<trkpt lat="40.071374" lon="-105.2298234">
  <ele>1583.01</ele>
  <time>2026-08-28T17:53:10Z</time>
  <course>285.95</course>
  <speed>5.78247351917845</speed>
  <fix>3d</fix>
</trkpt>
<trkpt lat="40.0713723" lon="-105.2298143">
  <ele>1583.0</ele>
  <time>2026-08-28T17:53:10Z</time>
  <course>276.02</course>
  <speed>5.73</speed>
  <fix>3d</fix>
</trkpt>
<trkpt lat="40.0713759" lon="-105.2298297">
  <ele>1583.01</ele>
  <time>2026-08-28T17:53:10Z</time>
  <course>293.81</course>
  <speed>5.789309112493475</speed>
  <fix>3d</fix>
</trkpt>
<trkpt lat="40.0713723" lon="-105.2298143">
  <ele>1583.0</ele>
  <time>2026-08-28T17:53:10Z</time>
  <course>276.02</course>
  <speed>5.73</speed>
  <fix>3d</fix>
</trkpt>
<trkpt lat="40.0713784" lon="-105.2298357">
  <ele>1583.01</ele>
  <time>2026-08-28T17:53:10Z</time>
  <course>301.67</course>
  <speed>5.802930294256514</speed>
  <fix>3d</fix>
</trkpt>
<trkpt lat="40.0713747" lon="-105.2298274">
  <ele>1583.0</ele>
  <time>2026-08-28T17:53:10Z</time>
  <course>291.69</course>
  <speed>5.75</speed>
  <fix>3d</fix>
</trkpt>
<trkpt lat="40.0713815" lon="-105.2298412">
  <ele>1583.01</ele>
  <time>2026-08-28T17:53:10Z</time>
  <course>309.55</course>
  <speed>5.814825878734462</speed>
  <fix>3d</fix>
</trkpt>
<trkpt lat="40.0713747" lon="-105.2298274">
  <ele>1583.0</ele>
  <time>2026-08-28T17:53:10Z</time>
  <course>291.69</course>
  <speed>5.75</speed>
  <fix>3d</fix>
</trkpt>
<trkpt lat="40.071385" lon="-105.229846">
  <ele>1583.01</ele>
  <time>2026-08-28T17:53:10Z</time>
  <course>317.44</course>
  <speed>5.830651764597162</speed>
  <fix>3d</fix>
</trkpt>
<trkpt lat="40.0713747" lon="-105.2298274">
  <ele>1583.0</ele>
  <time>2026-08-28T17:53:10Z</time>
  <course>291.69</course>
  <speed>5.75</speed>
  <fix>3d</fix>
</trkpt>
<trkpt lat="40.0713891" lon="-105.2298502">
  <ele>1583.01</ele>
  <time>2026-08-28T17:53:10Z</time>
  <course>325.32</course>
  <speed>5.843783021297078</speed>
  <fix>3d</fix>
</trkpt>
<trkpt lat="40.0713798" lon="-105.2298391">
  <ele>1583.0</ele>
  <time>2026-08-28T17:53:10Z</time>
  <course>307.45</course>
  <speed>5.76</speed>
  <fix>3d</fix>
</trkpt>
<trkpt lat="40.0713936" lon="-105.2298536">
  <ele>1583.01</ele>
  <time>2026-08-28T17:53:10Z</time>
  <course>333.21</course>
  <speed>5.850170937673531</speed>
  <fix>3d</fix>
</trkpt>
<trkpt lat="40.0713798" lon="-105.2298391">
  <ele>1583.0</ele>
  <time>2026-08-28T17:53:10Z</time>
  <course>307.45</course>
  <speed>5.76</speed>
  <fix>3d</fix>
</trkpt>
<trkpt lat="40.0713983" lon="-105.2298561">
  <ele>1583.01</ele>
  <time>2026-08-28T17:53:10Z</time>
  <course>341.09</course>
  <speed>5.8631390909648395</speed>
  <fix>3d</fix>
</trkpt>
<trkpt lat="40.0713871" lon="-105.2298486">
  <ele>1583.0</ele>
  <time>2026-08-28T17:53:10Z</time>
  <course>323.25</course>
  <speed>5.78</speed>
  <fix>3d</fix>
</trkpt>
<trkpt lat="40.0714033" lon="-105.2298577">
  <ele>1583.01</ele>
  <time>2026-08-28T17:53:10Z</time>
  <course>348.98</course>
  <speed>5.869310010554903</speed>
  <fix>3d</fix>
</trkpt>
<trkpt lat="40.0713871" lon="-105.2298486">
  <ele>1583.0</ele>
  <time>2026-08-28T17:53:10Z</time>
  <course>323.25</course>
  <speed>5.78</speed>
  <fix>3d</fix>
</trkpt>
<trkpt lat="40.0714084" lon="-105.2298585">
  <ele>1583.01</ele>
  <time>2026-08-28T17:53:10Z</time>
  <course>356.88</course>
  <speed>5.87412121087061</speed>
  <fix>3d</fix>
</trkpt>
<trkpt lat="40.0713962" lon="-105.2298551">
  <ele>1583.0</ele>
  <time>2026-08-28T17:53:10Z</time>
  <course>339.06</course>
  <speed>5.79</speed>
  <fix>3d</fix>
</trkpt>
<trkpt lat="40.0714136" lon="-105.2298583">
  <ele>1583.01</ele>
  <time>2026-08-28T17:53:10Z</time>
  <course>4.85</course>
  <speed>5.8697274212692365</speed>
  <fix>3d</fix>
</trkpt>
<trkpt lat="40.0714064" lon="-105.2298582">
  <ele>1583.0</ele>
  <time>2026-08-28T17:53:10Z</time>
  <course>354.91</course>
  <speed>5.81</speed>
  <fix>3d</fix>
</trkpt>
<trkpt lat="40.0714187" lon="-105.2298571">
  <ele>1583.01</ele>
  <time>2026-08-28T17:53:10Z</time>
  <course>12.78</course>
  <speed>5.876750802952257</speed>
  <fix>3d</fix>
</trkpt>
<trkpt lat="40.0714064" lon="-105.2298582">
  <ele>1583.0</ele>
  <time>2026-08-28T17:53:10Z</time>
  <course>354.91</course>
  <speed>5.81</speed>
  <fix>3d</fix>
</trkpt>
<trkpt lat="40.0714237" lon="-105.229855">
  <ele>1583.01</ele>
  <time>2026-08-28T17:53:10Z</time>
  <course>20.74</course>
  <speed>5.884708998752615</speed>
  <fix>3d</fix>
</trkpt>
<trkpt lat="40.0714167" lon="-105.2298576">
  <ele>1583.0</ele>
  <time>2026-08-28T17:53:10Z</time>
  <course>10.79</course>
  <speed>5.82</speed>
  <fix>3d</fix>
</trkpt>
<trkpt lat="40.0714284" lon="-105.229852">
  <ele>1583.01</ele>
  <time>2026-08-28T17:53:10Z</time>
  <course>28.66</course>
  <speed>5.889185003037348</speed>
  <fix>3d</fix>
</trkpt>
<trkpt lat="40.0714167" lon="-105.2298576">
  <ele>1583.0</ele>
  <time>2026-08-28T17:53:10Z</time>
  <course>10.79</course>
  <speed>5.82</speed>
  <fix>3d</fix>
</trkpt>
<trkpt lat="40.0714328" lon="-105.2298482">
  <ele>1583.01</ele>
  <time>2026-08-28T17:53:10Z</time>
  <course>36.64</course>
  <speed>5.896515920439798</speed>
  <fix>3d</fix>
</trkpt>
<trkpt lat="40.0714267" lon="-105.2298532">
  <ele>1583.0</ele>
  <time>2026-08-28T17:53:10Z</time>
  <course>26.7</course>
  <speed>5.83</speed>
  <fix>3d</fix>
</trkpt>
<trkpt lat="40.0714367" lon="-105.2298436">
  <ele>1583.01</ele>
  <time>2026-08-28T17:53:10Z</time>
  <course>44.64</course>
  <speed>5.904684580906926</speed>
  <fix>3d</fix>
</trkpt>
<trkpt lat="40.0714267" lon="-105.2298532">
  <ele>1583.0</ele>
  <time>2026-08-28T17:53:10Z</time>
  <course>26.7</course>
  <speed>5.83</speed>
  <fix>3d</fix>
</trkpt>
<trkpt lat="40.0714402" lon="-105.2298383">
  <ele>1583.01</ele>
  <time>2026-08-28T17:53:10Z</time>
  <course>52.64</course>
  <speed>5.914194788811069</speed>
  <fix>3d</fix>
</trkpt>
<trkpt lat="40.0714352" lon="-105.2298455">
  <ele>1583.0</ele>
  <time>2026-08-28T17:53:10Z</time>
  <course>42.64</course>
  <speed>5.84</speed>
  <fix>3d</fix>
</trkpt>
<trkpt lat="40.071443" lon="-105.2298324">
  <ele>1583.01</ele>
  <time>2026-08-28T17:53:10Z</time>
  <course>60.71</course>
  <speed>5.919476328189851</speed>
  <fix>3d</fix>
</trkpt>
<trkpt lat="40.0714352" lon="-105.2298455">
  <ele>1583.0</ele>
  <time>2026-08-28T17:53:10Z</time>
  <course>42.64</course>
  <speed>5.84</speed>
  <fix>3d</fix>
</trkpt>
<trkpt lat="40.0714452" lon="-105.2298261">
  <ele>1583.01</ele>
  <time>2026-08-28T17:53:10Z</time>
  <course>68.72</course>
  <speed>5.929350723308581</speed>
  <fix>3d</fix>
</trkpt>
<trkpt lat="40.0714418" lon="-105.2298348">
  <ele>1583.0</ele>
  <time>2026-08-28T17:53:10Z</time>
  <course>58.6</course>
  <speed>5.85</speed>
  <fix>3d</fix>
</trkpt>
<trkpt lat="40.0714466" lon="-105.2298194">
  <ele>1583.02</ele>
  <time>2026-08-28T17:53:10Z</time>
  <course>76.73</course>
  <speed>5.927647088010554</speed>
  <fix>3d</fix>
</trkpt>
<trkpt lat="40.0714418" lon="-105.2298348">
  <ele>1583.0</ele>
  <time>2026-08-28T17:53:10Z</time>
  <course>58.6</course>
  <speed>5.85</speed>
  <fix>3d</fix>
</trkpt>
<trkpt lat="40.0714474" lon="-105.2298126">
  <ele>1583.01</ele>
  <time>2026-08-28T17:53:10Z</time>
  <course>84.75</course>
  <speed>5.937078406084932</speed>
  <fix>3d</fix>
</trkpt>
<trkpt lat="40.0714459" lon="-105.2298223">
  <ele>1583.0</ele>
  <time>2026-08-28T17:53:10Z</time>
  <course>74.59</course>
  <speed>5.85</speed>
  <fix>3d</fix>
</trkpt>
<trkpt lat="40.0714474" lon="-105.2298056">
  <ele>1583.02</ele>
  <time>2026-08-28T17:53:10Z</time>
  <course>92.77</course>
  <speed>5.941531789025452</speed>
  <fix>3d</fix>
</trkpt>
<trkpt lat="40.0714459" lon="-105.2298223">
  <ele>1583.0</ele>
  <time>2026-08-28T17:53:10Z</time>
  <course>74.59</course>
  <speed>5.85</speed>
  <fix>3d</fix>
</trkpt>
<trkpt lat="40.0714466" lon="-105.2297987">
  <ele>1583.02</ele>
  <time>2026-08-28T17:53:10Z</time>
  <course>100.79</course>
  <speed>5.942423747933161</speed>
  <fix>3d</fix>
</trkpt>
<trkpt lat="40.0714473" lon="-105.2298087">
  <ele>1583.0</ele>
  <time>2026-08-28T17:53:10Z</time>
  <course>90.59</course>
  <speed>5.86</speed>
  <fix>3d</fix>
</trkpt>
<trkpt lat="40.0714452" lon="-105.2297921">
  <ele>1583.02</ele>
  <time>2026-08-28T17:53:10Z</time>
  <course>108.82</course>
  <speed>5.946427498927402</speed>
  <fix>3d</fix>
</trkpt>
<trkpt lat="40.0714473" lon="-105.2298087">
  <ele>1583.0</ele>
  <time>2026-08-28T17:53:10Z</time>
  <course>90.59</course>
  <speed>5.86</speed>
  <fix>3d</fix>
</trkpt>
<trkpt lat="40.071443" lon="-105.2297857">
  <ele>1583.02</ele>
  <time>2026-08-28T17:53:10Z</time>
  <course>116.85</course>
  <speed>5.948991511172292</speed>
  <fix>3d</fix>
</trkpt>
<trkpt lat="40.0714473" lon="-105.2298087">
  <ele>1583.0</ele>
  <time>2026-08-28T17:53:10Z</time>
  <course>90.59</course>
  <speed>5.86</speed>
  <fix>3d</fix>
</trkpt>
<trkpt lat="40.0714403" lon="-105.2297799">
  <ele>1583.02</ele>
  <time>2026-08-28T17:53:10Z</time>
  <course>124.87</course>
  <speed>5.955375722823876</speed>
  <fix>3d</fix>
</trkpt>
<trkpt lat="40.0714457" lon="-105.2297951">
  <ele>1583.0</ele>
  <time>2026-08-28T17:53:10Z</time>
  <course>106.65</course>
  <speed>5.87</speed>
  <fix>3d</fix>
</trkpt>
<trkpt lat="40.071437" lon="-105.2297746">
  <ele>1583.02</ele>
  <time>2026-08-28T17:53:10Z</time>
  <course>132.89</course>
  <speed>5.948285467258612</speed>
  <fix>3d</fix>
</trkpt>
<trkpt lat="40.0714457" lon="-105.2297951">
  <ele>1583.0</ele>
  <time>2026-08-28T17:53:10Z</time>
  <course>106.65</course>
  <speed>5.87</speed>
  <fix>3d</fix>
</trkpt>
<trkpt lat="40.0714331" lon="-105.22977">
  <ele>1583.02</ele>
  <time>2026-08-28T17:53:10Z</time>
  <course>140.9</course>
  <speed>5.9440474426101275</speed>
  <fix>3d</fix>
</trkpt>
<trkpt lat="40.0714414" lon="-105.2297826">
  <ele>1583.0</ele>
  <time>2026-08-28T17:53:10Z</time>
  <course>122.73</course>
  <speed>5.87</speed>
  <fix>3d</fix>
</trkpt>
<trkpt lat="40.0714287" lon="-105.2297662">
  <ele>1583.02</ele>
  <time>2026-08-28T17:53:10Z</time>
  <course>148.91</course>
  <speed>5.942802369253078</speed>
  <fix>3d</fix>
</trkpt>
<trkpt lat="40.0714414" lon="-105.2297826">
  <ele>1583.0</ele>
  <time>2026-08-28T17:53:10Z</time>
  <course>122.73</course>
  <speed>5.87</speed>
  <fix>3d</fix>
</trkpt>
<trkpt lat="40.071424" lon="-105.2297632">
  <ele>1583.03</ele>
  <time>2026-08-28T17:53:10Z</time>
  <course>156.93</course>
  <speed>5.933177900585823</speed>
  <fix>3d</fix>
</trkpt>
<trkpt lat="40.0714346" lon="-105.2297722">
  <ele>1583.0</ele>
  <time>2026-08-28T17:53:10Z</time>
  <course>138.78</course>
  <speed>5.88</speed>
  <fix>3d</fix>
</trkpt>
<trkpt lat="40.071419" lon="-105.2297611">
  <ele>1583.03</ele>
  <time>2026-08-28T17:53:10Z</time>
  <course>165.02</course>
  <speed>5.932461546440904</speed>
  <fix>3d</fix>
</trkpt>
<trkpt lat="40.0714258" lon="-105.2297647">
  <ele>1583.0</ele>
  <time>2026-08-28T17:53:10Z</time>
  <course>154.85</course>
  <speed>5.88</speed>
  <fix>3d</fix>
</trkpt>
<trkpt lat="40.0714139" lon="-105.2297596">
  <ele>1583.03</ele>
  <time>2026-08-28T17:53:10Z</time>
  <course>163.54</course>
  <speed>5.9230144352348155</speed>
  <fix>3d</fix>
</trkpt>
<trkpt lat="40.0714258" lon="-105.2297647">
  <ele>1583.0</ele>
  <time>2026-08-28T17:53:10Z</time>
  <course>154.85</course>
  <speed>5.88</speed>
  <fix>3d</fix>
</trkpt>
<trkpt lat="40.0714089" lon="-105.2297573">
  <ele>1583.04</ele>
  <time>2026-08-28T17:53:10Z</time>
  <course>155.51</course>
  <speed>5.896117366538763</speed>
  <fix>3d</fix>
</trkpt>
<trkpt lat="40.0714159" lon="-105.2297594">
  <ele>1583.0</ele>
  <time>2026-08-28T17:53:10Z</time>
  <course>158.06</course>
  <speed>5.92</speed>
  <fix>3d</fix>
</trkpt>
<trkpt lat="40.0714044" lon="-105.2297538">
  <ele>1583.04</ele>
  <time>2026-08-28T17:53:10Z</time>
  <course>147.48</course>
  <speed>5.88727441181401</speed>
  <fix>3d</fix>
</trkpt>
<trkpt lat="40.0714159" lon="-105.2297594">
  <ele>1583.0</ele>
  <time>2026-08-28T17:53:10Z</time>
  <course>158.06</course>
  <speed>5.92</speed>
  <fix>3d</fix>
</trkpt>
<trkpt lat="40.0714002" lon="-105.2297495">
  <ele>1583.04</ele>
  <time>2026-08-28T17:53:10Z</time>
  <course>139.36</course>
  <speed>5.8864080728403465</speed>
  <fix>3d</fix>
</trkpt>
<trkpt lat="40.0714065" lon="-105.2297531">
  <ele>1583.0</ele>
  <time>2026-08-28T17:53:10Z</time>
  <course>145.18</course>
  <speed>5.89</speed>
  <fix>3d</fix>
</trkpt>
<trkpt lat="40.0713966" lon="-105.2297442">
  <ele>1583.04</ele>
  <time>2026-08-28T17:53:10Z</time>
  <course>131.23</course>
  <speed>5.890848835269837</speed>
  <fix>3d</fix>
</trkpt>
<trkpt lat="40.0714065" lon="-105.2297531">
  <ele>1583.0</ele>
  <time>2026-08-28T17:53:10Z</time>
  <course>145.18</course>
  <speed>5.89</speed>
  <fix>3d</fix>
</trkpt>
<trkpt lat="40.0713936" lon="-105.2297384">
  <ele>1583.04</ele>
  <time>2026-08-28T17:53:10Z</time>
  <course>123.11</course>
  <speed>5.886467531550649</speed>
  <fix>3d</fix>
</trkpt>
<trkpt lat="40.0713988" lon="-105.2297438">
  <ele>1583.0</ele>
  <time>2026-08-28T17:53:10Z</time>
  <course>129.08</course>
  <speed>5.89</speed>
  <fix>3d</fix>
</trkpt>
<trkpt lat="40.0713913" lon="-105.2297319">
  <ele>1583.04</ele>
  <time>2026-08-28T17:53:10Z</time>
  <course>114.99</course>
  <speed>5.904252704618934</speed>
  <fix>3d</fix>
</trkpt>
<trkpt lat="40.0713988" lon="-105.2297438">
  <ele>1583.0</ele>
  <time>2026-08-28T17:53:10Z</time>
  <course>129.08</course>
  <speed>5.89</speed>
  <fix>3d</fix>
</trkpt>
<trkpt lat="40.0713896" lon="-105.2297251">
  <ele>1583.04</ele>
  <time>2026-08-28T17:53:10Z</time>
  <course>106.81</course>
  <speed>5.920304046246274</speed>
  <fix>3d</fix>
</trkpt>
<trkpt lat="40.0713934" lon="-105.2297319">
  <ele>1583.0</ele>
  <time>2026-08-28T17:53:10Z</time>
  <course>112.96</course>
  <speed>5.9</speed>
  <fix>3d</fix>
</trkpt>
<trkpt lat="40.0713888" lon="-105.2297179">
  <ele>1583.04</ele>
  <time>2026-08-28T17:53:10Z</time>
  <course>98.7</course>
  <speed>5.938829851073358</speed>
  <fix>3d</fix>
</trkpt>
<trkpt lat="40.0713934" lon="-105.2297319">
  <ele>1583.0</ele>
  <time>2026-08-28T17:53:10Z</time>
  <course>112.96</course>
  <speed>5.9</speed>
  <fix>3d</fix>
</trkpt>
<trkpt lat="40.0713887" lon="-105.2297107">
  <ele>1583.04</ele>
  <time>2026-08-28T17:53:10Z</time>
  <course>90.6</course>
  <speed>5.960679491467395</speed>
  <fix>3d</fix>
</trkpt>
<trkpt lat="40.0713906" lon="-105.2297186">
  <ele>1583.0</ele>
  <time>2026-08-28T17:53:10Z</time>
  <course>96.84</course>
  <speed>5.9</speed>
  <fix>3d</fix>
</trkpt>
<trkpt lat="40.0713894" lon="-105.2297035">
  <ele>1583.04</ele>
  <time>2026-08-28T17:53:10Z</time>
  <course>82.49</course>
  <speed>5.98746189967001</speed>
  <fix>3d</fix>
</trkpt>
<trkpt lat="40.0713906" lon="-105.2297186">
  <ele>1583.0</ele>
  <time>2026-08-28T17:53:10Z</time>
  <course>96.84</course>
  <speed>5.9</speed>
  <fix>3d</fix>
</trkpt>
<trkpt lat="40.0713909" lon="-105.2296964">
  <ele>1583.04</ele>
  <time>2026-08-28T17:53:10Z</time>
  <course>74.39</course>
  <speed>6.006071927641227</speed>
  <fix>3d</fix>
</trkpt>
<trkpt lat="40.0713909" lon="-105.2297047">
  <ele>1583.0</ele>
  <time>2026-08-28T17:53:10Z</time>
  <course>80.72</course>
  <speed>5.9</speed>
  <fix>3d</fix>
</trkpt>
<trkpt lat="40.0713932" lon="-105.2296897">
  <ele>1583.04</ele>
  <time>2026-08-28T17:53:10Z</time>
  <course>66.27</course>
  <speed>6.038046041560134</speed>
  <fix>3d</fix>
</trkpt>
<trkpt lat="40.0713909" lon="-105.2297047">
  <ele>1583.0</ele>
  <time>2026-08-28T17:53:10Z</time>
  <course>80.72</course>
  <speed>5.9</speed>
  <fix>3d</fix>
</trkpt>
<trkpt lat="40.0713961" lon="-105.2296835">
  <ele>1583.04</ele>
  <time>2026-08-28T17:53:10Z</time>
  <course>58.16</course>
  <speed>6.068442963396788</speed>
  <fix>3d</fix>
</trkpt>
<trkpt lat="40.0713909" lon="-105.2297047">
  <ele>1583.0</ele>
  <time>2026-08-28T17:53:10Z</time>
  <course>80.72</course>
  <speed>5.9</speed>
  <fix>3d</fix>
</trkpt>
<trkpt lat="40.0713996" lon="-105.2296778">
  <ele>1583.04</ele>
  <time>2026-08-28T17:53:10Z</time>
  <course>50.05</course>
  <speed>6.082376180408443</speed>
  <fix>3d</fix>
</trkpt>
<trkpt lat="40.0713941" lon="-105.2296915">
  <ele>1583.0</ele>
  <time>2026-08-28T17:53:10Z</time>
  <course>64.55</course>
  <speed>5.9</speed>
  <fix>3d</fix>
</trkpt>
<trkpt lat="40.0714037" lon="-105.2296729">
  <ele>1583.03</ele>
  <time>2026-08-28T17:53:10Z</time>
  <course>41.95</course>
  <speed>6.10481776959804</speed>
  <fix>3d</fix>
</trkpt>
<trkpt lat="40.0713941" lon="-105.2296915">
  <ele>1583.0</ele>
  <time>2026-08-28T17:53:10Z</time>
  <course>64.55</course>
  <speed>5.9</speed>
  <fix>3d</fix>
</trkpt>
<trkpt lat="40.0714083" lon="-105.2296688">
  <ele>1583.03</ele>
  <time>2026-08-28T17:53:10Z</time>
  <course>33.84</course>
  <speed>6.126793614934323</speed>
  <fix>3d</fix>
</trkpt>
<trkpt lat="40.0713999" lon="-105.22968">
  <ele>1583.0</ele>
  <time>2026-08-28T17:53:10Z</time>
  <course>48.37</course>
  <speed>5.91</speed>
  <fix>3d</fix>
</trkpt>
<trkpt lat="40.0714132" lon="-105.2296656">
  <ele>1583.03</ele>
  <time>2026-08-28T17:53:10Z</time>
  <course>25.74</course>
  <speed>6.137768324073498</speed>
  <fix>3d</fix>
</trkpt>
<trkpt lat="40.0713999" lon="-105.22968">
  <ele>1583.0</ele>
  <time>2026-08-28T17:53:10Z</time>
  <course>48.37</course>
  <speed>5.91</speed>
  <fix>3d</fix>
</trkpt>
<trkpt lat="40.0714185" lon="-105.2296633">
  <ele>1583.03</ele>
  <time>2026-08-28T17:53:10Z</time>
  <course>17.63</course>
  <speed>6.153763076362299</speed>
  <fix>3d</fix>
</trkpt>
<trkpt lat="40.0714078" lon="-105.229671">
  <ele>1583.0</ele>
  <time>2026-08-28T17:53:10Z</time>
  <course>32.23</course>
  <speed>5.91</speed>
  <fix>3d</fix>
</trkpt>
<trkpt lat="40.071424" lon="-105.229662">
  <ele>1583.03</ele>
  <time>2026-08-28T17:53:10Z</time>
  <course>9.51</course>
  <speed>6.157564453580652</speed>
  <fix>3d</fix>
</trkpt>
<trkpt lat="40.0714078" lon="-105.229671">
  <ele>1583.0</ele>
  <time>2026-08-28T17:53:10Z</time>
  <course>32.23</course>
  <speed>5.91</speed>
  <fix>3d</fix>
</trkpt>
<trkpt lat="40.0714295" lon="-105.2296618">
  <ele>1583.03</ele>
  <time>2026-08-28T17:53:10Z</time>
  <course>1.33</course>
  <speed>6.160032467446905</speed>
  <fix>3d</fix>
</trkpt>
<trkpt lat="40.0714175" lon="-105.2296654">
  <ele>1583.0</ele>
  <time>2026-08-28T17:53:10Z</time>
  <course>16.08</course>
  <speed>5.91</speed>
  <fix>3d</fix>
</trkpt>
<trkpt lat="40.071435" lon="-105.2296625">
  <ele>1583.03</ele>
  <time>2026-08-28T17:53:10Z</time>
  <course>353.22</course>
  <speed>6.161728653551696</speed>
  <fix>3d</fix>
</trkpt>
<trkpt lat="40.071428" lon="-105.2296635">
  <ele>1583.0</ele>
  <time>2026-08-28T17:53:10Z</time>
  <course>359.92</course>
  <speed>5.91</speed>
  <fix>3d</fix>
</trkpt>
<trkpt lat="40.0714404" lon="-105.2296644">
  <ele>1583.03</ele>
  <time>2026-08-28T17:53:10Z</time>
  <course>345.07</course>
  <speed>6.164803322085791</speed>
  <fix>3d</fix>
</trkpt>
<trkpt lat="40.071428" lon="-105.2296635">
  <ele>1583.0</ele>
  <time>2026-08-28T17:53:10Z</time>
  <course>359.92</course>
  <speed>5.91</speed>
  <fix>3d</fix>
</trkpt>
<trkpt lat="40.0714456" lon="-105.2296671">
  <ele>1583.03</ele>
  <time>2026-08-28T17:53:10Z</time>
  <course>337.0</course>
  <speed>6.163221560190742</speed>
  <fix>3d</fix>
</trkpt>
<trkpt lat="40.0714385" lon="-105.2296654">
  <ele>1583.0</ele>
  <time>2026-08-28T17:53:10Z</time>
  <course>343.76</course>
  <speed>5.91</speed>
  <fix>3d</fix>
</trkpt>
<trkpt lat="40.0714504" lon="-105.2296708">
  <ele>1583.03</ele>
  <time>2026-08-28T17:53:10Z</time>
  <course>328.84</course>
  <speed>6.167179257975238</speed>
  <fix>3d</fix>
</trkpt>
<trkpt lat="40.0714385" lon="-105.2296654">
  <ele>1583.0</ele>
  <time>2026-08-28T17:53:10Z</time>
  <course>343.76</course>
  <speed>5.91</speed>
  <fix>3d</fix>
</trkpt>
<trkpt lat="40.0714547" lon="-105.2296754">
  <ele>1583.03</ele>
  <time>2026-08-28T17:53:10Z</time>
  <course>320.69</course>
  <speed>6.157613173949789</speed>
  <fix>3d</fix>
</trkpt>
<trkpt lat="40.0714481" lon="-105.229671">
  <ele>1583.0</ele>
  <time>2026-08-28T17:53:10Z</time>
  <course>327.6</course>
  <speed>5.91</speed>
  <fix>3d</fix>
</trkpt>
<trkpt lat="40.0714585" lon="-105.2296807">
  <ele>1583.03</ele>
  <time>2026-08-28T17:53:10Z</time>
  <course>312.52</course>
  <speed>6.14955282927141</speed>
  <fix>3d</fix>
</trkpt>
<trkpt lat="40.0714481" lon="-105.229671">
  <ele>1583.0</ele>
  <time>2026-08-28T17:53:10Z</time>
  <course>327.6</course>
  <speed>5.91</speed>
  <fix>3d</fix>
</trkpt>
<trkpt lat="40.0714618" lon="-105.2296867">
  <ele>1583.03</ele>
  <time>2026-08-28T17:53:10Z</time>
  <course>304.31</course>
  <speed>6.151747719144535</speed>
  <fix>3d</fix>
</trkpt>
<trkpt lat="40.0714562" lon="-105.22968">
  <ele>1583.0</ele>
  <time>2026-08-28T17:53:10Z</time>
  <course>311.43</course>
  <speed>5.91</speed>
  <fix>3d</fix>
</trkpt>
<trkpt lat="40.0714643" lon="-105.2296933">
  <ele>1583.03</ele>
  <time>2026-08-28T17:53:10Z</time>
  <course>296.15</course>
  <speed>6.142125039430572</speed>
  <fix>3d</fix>
</trkpt>
<trkpt lat="40.0714562" lon="-105.22968">
  <ele>1583.0</ele>
  <time>2026-08-28T17:53:10Z</time>
  <course>311.43</course>
  <speed>5.91</speed>
  <fix>3d</fix>
</trkpt>
<trkpt lat="40.0714661" lon="-105.2297002">
  <ele>1583.03</ele>
  <time>2026-08-28T17:53:10Z</time>
  <course>288.0</course>
  <speed>6.139780126356317</speed>
  <fix>3d</fix>
</trkpt>
<trkpt lat="40.071462" lon="-105.2296916">
  <ele>1583.0</ele>
  <time>2026-08-28T17:53:10Z</time>
  <course>295.26</course>
  <speed>5.92</speed>
  <fix>3d</fix>
</trkpt>
<trkpt lat="40.0714671" lon="-105.2297074">
  <ele>1583.03</ele>
  <time>2026-08-28T17:53:10Z</time>
  <course>279.85</course>
  <speed>6.132470953865171</speed>
  <fix>3d</fix>
</trkpt>
<trkpt lat="40.071462" lon="-105.2296916">
  <ele>1583.0</ele>
  <time>2026-08-28T17:53:10Z</time>
  <course>295.26</course>
  <speed>5.92</speed>
  <fix>3d</fix>
</trkpt>
<trkpt lat="40.0714673" lon="-105.2297146">
  <ele>1583.03</ele>
  <time>2026-08-28T17:53:10Z</time>
  <course>271.7</course>
  <speed>6.130399660707285</speed>
  <fix>3d</fix>
</trkpt>
<trkpt lat="40.0714651" lon="-105.2297049">
  <ele>1583.0</ele>
  <time>2026-08-28T17:53:10Z</time>
  <course>279.09</course>
  <speed>5.92</speed>
  <fix>3d</fix>
</trkpt>
<trkpt lat="40.0714667" lon="-105.2297219">
  <ele>1583.03</ele>
  <time>2026-08-28T17:53:10Z</time>
  <course>263.55</course>
  <speed>6.121192694238599</speed>
  <fix>3d</fix>
</trkpt>
<trkpt lat="40.0714651" lon="-105.2297049">
  <ele>1583.0</ele>
  <time>2026-08-28T17:53:10Z</time>
  <course>279.09</course>
  <speed>5.92</speed>
  <fix>3d</fix>
</trkpt>
<trkpt lat="40.0714654" lon="-105.2297289">
  <ele>1583.03</ele>
  <time>2026-08-28T17:53:10Z</time>
  <course>255.42</course>
  <speed>6.114057572512709</speed>
  <fix>3d</fix>
</trkpt>
<trkpt lat="40.0714653" lon="-105.2297187">
  <ele>1583.0</ele>
  <time>2026-08-28T17:53:10Z</time>
  <course>262.91</course>
  <speed>5.92</speed>
  <fix>3d</fix>
</trkpt>
<trkpt lat="40.0714633" lon="-105.2297356">
  <ele>1583.03</ele>
  <time>2026-08-28T17:53:10Z</time>
  <course>247.27</course>
  <speed>6.107348033312004</speed>
  <fix>3d</fix>
</trkpt>
<trkpt lat="40.0714653" lon="-105.2297187">
  <ele>1583.0</ele>
  <time>2026-08-28T17:53:10Z</time>
  <course>262.91</course>
  <speed>5.92</speed>
  <fix>3d</fix>
</trkpt>
<trkpt lat="40.0714606" lon="-105.2297419">
  <ele>1583.03</ele>
  <time>2026-08-28T17:53:10Z</time>
  <course>239.14</course>
  <speed>6.1045311040242884</speed>
  <fix>3d</fix>
</trkpt>
<trkpt lat="40.0714653" lon="-105.2297187">
  <ele>1583.0</ele>
  <time>2026-08-28T17:53:10Z</time>
  <course>262.91</course>
  <speed>5.92</speed>
  <fix>3d</fix>
</trkpt>
<trkpt lat="40.0714571" lon="-105.2297475">
  <ele>1583.03</ele>
  <time>2026-08-28T17:53:10Z</time>
  <course>231.01</course>
  <speed>6.095941272682998</speed>
  <fix>3d</fix>
</trkpt>
<trkpt lat="40.0714626" lon="-105.2297321">
  <ele>1583.0</ele>
  <time>2026-08-28T17:53:10Z</time>
  <course>246.7</course>
  <speed>5.92</speed>
  <fix>3d</fix>
</trkpt>
<trkpt lat="40.0714532" lon="-105.2297525">
  <ele>1583.03</ele>
  <time>2026-08-28T17:53:10Z</time>
  <course>222.9</course>
  <speed>6.083921432760288</speed>
  <fix>3d</fix>
</trkpt>
<trkpt lat="40.0714626" lon="-105.2297321">
  <ele>1583.0</ele>
  <time>2026-08-28T17:53:10Z</time>
  <course>246.7</course>
  <speed>5.92</speed>
  <fix>3d</fix>
</trkpt>
<trkpt lat="40.0714487" lon="-105.2297566">
  <ele>1583.03</ele>
  <time>2026-08-28T17:53:10Z</time>
  <course>214.8</course>
  <speed>6.082310416280972</speed>
  <fix>3d</fix>
</trkpt>
<trkpt lat="40.0714571" lon="-105.2297439">
  <ele>1583.0</ele>
  <time>2026-08-28T17:53:10Z</time>
  <course>230.49</course>
  <speed>5.92</speed>
  <fix>3d</fix>
</trkpt>
<trkpt lat="40.0714439" lon="-105.2297599">
  <ele>1583.03</ele>
  <time>2026-08-28T17:53:10Z</time>
  <course>206.69</course>
  <speed>6.078832124676581</speed>
  <fix>3d</fix>
</trkpt>
<trkpt lat="40.0714571" lon="-105.2297439">
  <ele>1583.0</ele>
  <time>2026-08-28T17:53:10Z</time>
  <course>230.49</course>
  <speed>5.92</speed>
  <fix>3d</fix>
</trkpt>
<trkpt lat="40.0714388" lon="-105.2297622">
  <ele>1583.02</ele>
  <time>2026-08-28T17:53:10Z</time>
  <course>198.59</course>
  <speed>6.07289058027559</speed>
  <fix>3d</fix>
</trkpt>
<trkpt lat="40.0714493" lon="-105.2297533">
  <ele>1583.0</ele>
  <time>2026-08-28T17:53:10Z</time>
  <course>214.31</course>
  <speed>5.92</speed>
  <fix>3d</fix>
</trkpt>
<trkpt lat="40.0714334" lon="-105.2297636">
  <ele>1583.02</ele>
  <time>2026-08-28T17:53:10Z</time>
  <course>190.42</course>
  <speed>6.074742792909014</speed>
  <fix>3d</fix>
</trkpt>
<trkpt lat="40.0714397" lon="-105.2297594">
  <ele>1583.0</ele>
  <time>2026-08-28T17:53:10Z</time>
  <course>198.13</course>
  <speed>5.92</speed>
  <fix>3d</fix>
</trkpt>
<trkpt lat="40.0714279" lon="-105.229764">
  <ele>1583.02</ele>
  <time>2026-08-28T17:53:10Z</time>
  <course>182.31</course>
  <speed>6.080666081935432</speed>
  <fix>3d</fix>
</trkpt>
<trkpt lat="40.0714397" lon="-105.2297594">
  <ele>1583.0</ele>
  <time>2026-08-28T17:53:10Z</time>
  <course>198.13</course>
  <speed>5.92</speed>
  <fix>3d</fix>
</trkpt>
<trkpt lat="40.0714224" lon="-105.2297633">
  <ele>1583.02</ele>
  <time>2026-08-28T17:53:10Z</time>
  <course>174.18</course>
  <speed>6.078963727478558</speed>
  <fix>3d</fix>
</trkpt>
<trkpt lat="40.0714293" lon="-105.2297618">
  <ele>1583.0</ele>
  <time>2026-08-28T17:53:10Z</time>
  <course>181.94</course>
  <speed>5.92</speed>
  <fix>3d</fix>
</trkpt>
<trkpt lat="40.071417" lon="-105.2297617">
  <ele>1583.01</ele>
  <time>2026-08-28T17:53:10Z</time>
  <course>166.12</course>
  <speed>6.086788972849314</speed>
  <fix>3d</fix>
</trkpt>
<trkpt lat="40.0714293" lon="-105.2297618">
  <ele>1583.0</ele>
  <time>2026-08-28T17:53:10Z</time>
  <course>181.94</course>
  <speed>5.92</speed>
  <fix>3d</fix>
</trkpt>
<trkpt lat="40.0714118" lon="-105.2297591">
  <ele>1583.01</ele>
  <time>2026-08-28T17:53:10Z</time>
  <course>158.0</course>
  <speed>6.0861564225708165</speed>
  <fix>3d</fix>
</trkpt>
<trkpt lat="40.0714188" lon="-105.2297604">
  <ele>1583.0</ele>
  <time>2026-08-28T17:53:10Z</time>
  <course>165.76</course>
  <speed>5.92</speed>
  <fix>3d</fix>
</trkpt>
<trkpt lat="40.071407" lon="-105.2297555">
  <ele>1583.01</ele>
  <time>2026-08-28T17:53:10Z</time>
  <course>149.87</course>
  <speed>6.102474907773074</speed>
  <fix>3d</fix>
</trkpt>
<trkpt lat="40.0714188" lon="-105.2297604">
  <ele>1583.0</ele>
  <time>2026-08-28T17:53:10Z</time>
  <course>165.76</course>
  <speed>5.92</speed>
  <fix>3d</fix>
</trkpt>
<trkpt lat="40.0714026" lon="-105.2297511">
  <ele>1583.01</ele>
  <time>2026-08-28T17:53:10Z</time>
  <course>141.75</course>
  <speed>6.106078938238515</speed>
  <fix>3d</fix>
</trkpt>
<trkpt lat="40.071409" lon="-105.2297551">
  <ele>1583.0</ele>
  <time>2026-08-28T17:53:10Z</time>
  <course>149.57</course>
  <speed>5.92</speed>
  <fix>3d</fix>
</trkpt>
<trkpt lat="40.0713986" lon="-105.2297458">
  <ele>1583.01</ele>
  <time>2026-08-28T17:53:10Z</time>
  <course>133.56</course>
  <speed>6.118055246563241</speed>
  <fix>3d</fix>
</trkpt>
<trkpt lat="40.071409" lon="-105.2297551">
  <ele>1583.0</ele>
  <time>2026-08-28T17:53:10Z</time>
  <course>149.57</course>
  <speed>5.92</speed>
  <fix>3d</fix>
</trkpt>
<trkpt lat="40.0713953" lon="-105.22974">
  <ele>1583.01</ele>
  <time>2026-08-28T17:53:10Z</time>
  <course>125.44</course>
  <speed>6.1183739669948265</speed>
  <fix>3d</fix>
</trkpt>
<trkpt lat="40.0714007" lon="-105.2297465">
  <ele>1583.0</ele>
  <time>2026-08-28T17:53:10Z</time>
  <course>133.38</course>
  <speed>5.92</speed>
  <fix>3d</fix>
</trkpt>
<trkpt lat="40.0713927" lon="-105.2297335">
  <ele>1583.01</ele>
  <time>2026-08-28T17:53:10Z</time>
  <course>117.32</course>
  <speed>6.127479090131602</speed>
  <fix>3d</fix>
</trkpt>
<trkpt lat="40.0714007" lon="-105.2297465">
  <ele>1583.0</ele>
  <time>2026-08-28T17:53:10Z</time>
  <course>133.38</course>
  <speed>5.92</speed>
  <fix>3d</fix>
</trkpt>
<trkpt lat="40.0713907" lon="-105.2297267">
  <ele>1583.01</ele>
  <time>2026-08-28T17:53:10Z</time>
  <course>109.21</course>
  <speed>6.132087735836792</speed>
  <fix>3d</fix>
</trkpt>
<trkpt lat="40.0713945" lon="-105.2297352">
  <ele>1583.0</ele>
  <time>2026-08-28T17:53:10Z</time>
  <course>117.19</course>
  <speed>5.92</speed>
  <fix>3d</fix>
</trkpt>
<trkpt lat="40.0713896" lon="-105.2297196">
  <ele>1583.01</ele>
  <time>2026-08-28T17:53:10Z</time>
  <course>101.09</course>
  <speed>6.1370514092681345</speed>
  <fix>3d</fix>
</trkpt>
<trkpt lat="40.0713945" lon="-105.2297352">
  <ele>1583.0</ele>
  <time>2026-08-28T17:53:10Z</time>
  <course>117.19</course>
  <speed>5.92</speed>
  <fix>3d</fix>
</trkpt>
<trkpt lat="40.0713892" lon="-105.2297124">
  <ele>1583.01</ele>
  <time>2026-08-28T17:53:10Z</time>
  <course>92.97</course>
  <speed>6.142352969343263</speed>
  <fix>3d</fix>
</trkpt>
<trkpt lat="40.0713911" lon="-105.2297221">
  <ele>1583.0</ele>
  <time>2026-08-28T17:53:10Z</time>
  <course>101.0</course>
  <speed>5.92</speed>
  <fix>3d</fix>
</trkpt>
<trkpt lat="40.0713896" lon="-105.2297051">
  <ele>1583.01</ele>
  <time>2026-08-28T17:53:10Z</time>
  <course>84.85</course>
  <speed>6.14772315577076</speed>
  <fix>3d</fix>
</trkpt>
<trkpt lat="40.0713911" lon="-105.2297221">
  <ele>1583.0</ele>
  <time>2026-08-28T17:53:10Z</time>
  <course>101.0</course>
  <speed>5.92</speed>
  <fix>3d</fix>
</trkpt>
<trkpt lat="40.0713906" lon="-105.229698">
  <ele>1583.0</ele>
  <time>2026-08-28T17:53:10Z</time>
  <course>76.74</course>
  <speed>6.141082966383046</speed>
  <fix>3d</fix>
</trkpt>
<trkpt lat="40.0713911" lon="-105.2297221">
  <ele>1583.0</ele>
  <time>2026-08-28T17:53:10Z</time>
  <course>101.0</course>
  <speed>5.92</speed>
  <fix>3d</fix>
</trkpt>
<trkpt lat="40.0713925" lon="-105.2296913">
  <ele>1583.0</ele>
  <time>2026-08-28T17:53:10Z</time>
  <course>68.63</course>
  <speed>6.143126239953075</speed>
  <fix>3d</fix>
</trkpt>
<trkpt lat="40.0713905" lon="-105.2297082">
  <ele>1583.0</ele>
  <time>2026-08-28T17:53:10Z</time>
  <course>84.78</course>
  <speed>5.92</speed>
  <fix>3d</fix>
</trkpt>
<trkpt lat="40.071395" lon="-105.229685">
  <ele>1583.0</ele>
  <time>2026-08-28T17:53:10Z</time>
  <course>60.52</course>
  <speed>6.131402775874376</speed>
  <fix>3d</fix>
</trkpt>
<trkpt lat="40.0713905" lon="-105.2297082">
  <ele>1583.0</ele>
  <time>2026-08-28T17:53:10Z</time>
  <course>84.78</course>
  <speed>5.92</speed>
  <fix>3d</fix>
</trkpt>
<trkpt lat="40.0713982" lon="-105.2296793">
  <ele>1582.99</ele>
  <time>2026-08-28T17:53:10Z</time>
  <course>52.42</course>
  <speed>6.1220911460055865</speed>
  <fix>3d</fix>
</trkpt>
<trkpt lat="40.0713929" lon="-105.2296947">
  <ele>1583.0</ele>
  <time>2026-08-28T17:53:10Z</time>
  <course>68.56</course>
  <speed>5.92</speed>
  <fix>3d</fix>
</trkpt>
<trkpt lat="40.071402" lon="-105.2296741">
  <ele>1582.99</ele>
  <time>2026-08-28T17:53:10Z</time>
  <course>44.32</course>
  <speed>6.111382822242442</speed>
  <fix>3d</fix>
</trkpt>
<trkpt lat="40.0713929" lon="-105.2296947">
  <ele>1583.0</ele>
  <time>2026-08-28T17:53:10Z</time>
  <course>68.56</course>
  <speed>5.92</speed>
  <fix>3d</fix>
</trkpt>
<trkpt lat="40.0714063" lon="-105.2296698">
  <ele>1582.99</ele>
  <time>2026-08-28T17:53:10Z</time>
  <course>36.21</course>
  <speed>6.093701666474984</speed>
  <fix>3d</fix>
</trkpt>
<trkpt lat="40.0713981" lon="-105.2296826">
  <ele>1583.0</ele>
  <time>2026-08-28T17:53:10Z</time>
  <course>52.36</course>
  <speed>5.92</speed>
  <fix>3d</fix>
</trkpt>
<trkpt lat="40.071411" lon="-105.2296663">
  <ele>1582.99</ele>
  <time>2026-08-28T17:53:10Z</time>
  <course>28.11</course>
  <speed>6.0873721752493495</speed>
  <fix>3d</fix>
</trkpt>
<trkpt lat="40.0713981" lon="-105.2296826">
  <ele>1583.0</ele>
  <time>2026-08-28T17:53:10Z</time>
  <course>52.36</course>
  <speed>5.92</speed>
  <fix>3d</fix>
</trkpt>
<trkpt lat="40.0714161" lon="-105.2296637">
  <ele>1583.0</ele>
  <time>2026-08-28T17:53:10Z</time>
  <course>19.94</course>
  <speed>6.072314221118667</speed>
  <fix>3d</fix>
</trkpt>
<trkpt lat="40.0714057" lon="-105.2296729">
  <ele>1583.0</ele>
  <time>2026-08-28T17:53:10Z</time>
  <course>36.17</course>
  <speed>5.92</speed>
  <fix>3d</fix>
</trkpt>
<trkpt lat="40.0714214" lon="-105.229662">
  <ele>1583.0</ele>
  <time>2026-08-28T17:53:10Z</time>
  <course>11.83</course>
  <speed>6.056071333793881</speed>
  <fix>3d</fix>
</trkpt>
<trkpt lat="40.0714151" lon="-105.2296664">
  <ele>1583.0</ele>
  <time>2026-08-28T17:53:10Z</time>
  <course>19.98</course>
  <speed>5.92</speed>
  <fix>3d</fix>
</trkpt>
<trkpt lat="40.0714268" lon="-105.2296614">
  <ele>1583.0</ele>
  <time>2026-08-28T17:53:10Z</time>
  <course>3.71</course>
  <speed>6.048470881140125</speed>
  <fix>3d</fix>
</trkpt>
<trkpt lat="40.0714151" lon="-105.2296664">
  <ele>1583.0</ele>
  <time>2026-08-28T17:53:10Z</time>
  <course>19.98</course>
  <speed>5.92</speed>
  <fix>3d</fix>
</trkpt>
<trkpt lat="40.0714322" lon="-105.2296618">
  <ele>1583.0</ele>
  <time>2026-08-28T17:53:10Z</time>
  <course>355.66</course>
  <speed>6.032453895389503</speed>
  <fix>3d</fix>
</trkpt>
<trkpt lat="40.0714255" lon="-105.2296636">
  <ele>1583.0</ele>
  <time>2026-08-28T17:53:10Z</time>
  <course>3.78</course>
  <speed>5.92</speed>
  <fix>3d</fix>
</trkpt>
<trkpt lat="40.0714376" lon="-105.2296632">
  <ele>1583.0</ele>
  <time>2026-08-28T17:53:10Z</time>
  <course>347.53</course>
  <speed>6.027752483305863</speed>
  <fix>3d</fix>
</trkpt>
<trkpt lat="40.0714255" lon="-105.2296636">
  <ele>1583.0</ele>
  <time>2026-08-28T17:53:10Z</time>
  <course>3.78</course>
  <speed>5.92</speed>
  <fix>3d</fix>
</trkpt>
<trkpt lat="40.0714428" lon="-105.2296654">
  <ele>1583.0</ele>
  <time>2026-08-28T17:53:10Z</time>
  <course>339.41</course>
  <speed>6.018679257112809</speed>
  <fix>3d</fix>
</trkpt>
<trkpt lat="40.0714361" lon="-105.2296645">
  <ele>1583.0</ele>
  <time>2026-08-28T17:53:10Z</time>
  <course>347.59</course>
  <speed>5.92</speed>
  <fix>3d</fix>
</trkpt>
<trkpt lat="40.0714477" lon="-105.2296687">
  <ele>1583.01</ele>
  <time>2026-08-28T17:53:10Z</time>
  <course>331.28</course>
  <speed>6.009534091757863</speed>
  <fix>3d</fix>
</trkpt>
<trkpt lat="40.0714361" lon="-105.2296645">
  <ele>1583.0</ele>
  <time>2026-08-28T17:53:10Z</time>
  <course>347.59</course>
  <speed>5.92</speed>
  <fix>3d</fix>
</trkpt>
<trkpt lat="40.0714523" lon="-105.2296729">
  <ele>1583.01</ele>
  <time>2026-08-28T17:53:10Z</time>
  <course>323.08</course>
  <speed>6.008735307866373</speed>
  <fix>3d</fix>
</trkpt>
<trkpt lat="40.0714459" lon="-105.2296694">
  <ele>1583.0</ele>
  <time>2026-08-28T17:53:10Z</time>
  <course>331.4</course>
  <speed>5.92</speed>
  <fix>3d</fix>
</trkpt>
<trkpt lat="40.0714562" lon="-105.2296779">
  <ele>1583.01</ele>
  <time>2026-08-28T17:53:10Z</time>
  <course>314.95</course>
  <speed>6.0042734781154</speed>
  <fix>3d</fix>
</trkpt>
<trkpt lat="40.0714459" lon="-105.2296694">
  <ele>1583.0</ele>
  <time>2026-08-28T17:53:10Z</time>
  <course>331.4</course>
  <speed>5.92</speed>
  <fix>3d</fix>
</trkpt>
<trkpt lat="40.0714597" lon="-105.2296835">
  <ele>1583.01</ele>
  <time>2026-08-28T17:53:10Z</time>
  <course>306.83</course>
  <speed>5.9949728940171205</speed>
  <fix>3d</fix>
</trkpt>
<trkpt lat="40.0714545" lon="-105.2296777">
  <ele>1583.0</ele>
  <time>2026-08-28T17:53:10Z</time>
  <course>315.2</course>
  <speed>5.92</speed>
  <fix>3d</fix>
</trkpt>
<trkpt lat="40.0714624" lon="-105.2296897">
  <ele>1583.01</ele>
  <time>2026-08-28T17:53:10Z</time>
  <course>298.71</course>
  <speed>6.002566117919901</speed>
  <fix>3d</fix>
</trkpt>
<trkpt lat="40.0714545" lon="-105.2296777">
  <ele>1583.0</ele>
  <time>2026-08-28T17:53:10Z</time>
  <course>315.2</course>
  <speed>5.92</speed>
  <fix>3d</fix>
</trkpt>
<trkpt lat="40.0714645" lon="-105.2296963">
  <ele>1583.02</ele>
  <time>2026-08-28T17:53:10Z</time>
  <course>290.58</course>
  <speed>6.002965933603155</speed>
  <fix>3d</fix>
</trkpt>
<trkpt lat="40.0714609" lon="-105.2296887">
  <ele>1583.0</ele>
  <time>2026-08-28T17:53:10Z</time>
  <course>299.01</course>
  <speed>5.92</speed>
  <fix>3d</fix>
</trkpt>
<trkpt lat="40.0714659" lon="-105.2297033">
  <ele>1583.02</ele>
  <time>2026-08-28T17:53:10Z</time>
  <course>282.46</course>
  <speed>5.995273138064687</speed>
  <fix>3d</fix>
</trkpt>
<trkpt lat="40.0714609" lon="-105.2296887">
  <ele>1583.0</ele>
  <time>2026-08-28T17:53:10Z</time>
  <course>299.01</course>
  <speed>5.92</speed>
  <fix>3d</fix>
</trkpt>
<trkpt lat="40.0714665" lon="-105.2297104">
  <ele>1583.03</ele>
  <time>2026-08-28T17:53:10Z</time>
  <course>274.34</course>
  <speed>5.998541489395568</speed>
  <fix>3d</fix>
</trkpt>
<trkpt lat="40.0714647" lon="-105.2297017">
  <ele>1583.0</ele>
  <time>2026-08-28T17:53:10Z</time>
  <course>282.81</course>
  <speed>5.92</speed>
  <fix>3d</fix>
</trkpt>
<trkpt lat="40.0714662" lon="-105.2297176">
  <ele>1583.03</ele>
  <time>2026-08-28T17:53:10Z</time>
  <course>266.22</course>
  <speed>6.0034406801433455</speed>
  <fix>3d</fix>
</trkpt>
<trkpt lat="40.0714647" lon="-105.2297017">
  <ele>1583.0</ele>
  <time>2026-08-28T17:53:10Z</time>
  <course>282.81</course>
  <speed>5.92</speed>
  <fix>3d</fix>
</trkpt>
<trkpt lat="40.0714653" lon="-105.2297246">
  <ele>1583.03</ele>
  <time>2026-08-28T17:53:10Z</time>
  <course>258.11</course>
  <speed>6.000833275470999</speed>
  <fix>3d</fix>
</trkpt>
<trkpt lat="40.0714647" lon="-105.2297017">
  <ele>1583.0</ele>
  <time>2026-08-28T17:53:10Z</time>
  <course>282.81</course>
  <speed>5.92</speed>
  <fix>3d</fix>
</trkpt>
<trkpt lat="40.0714636" lon="-105.2297314">
  <ele>1583.03</ele>
  <time>2026-08-28T17:53:10Z</time>
  <course>250.0</course>
  <speed>6.003682203448148</speed>
  <fix>3d</fix>
</trkpt>
<trkpt lat="40.0714656" lon="-105.2297155">
  <ele>1583.0</ele>
  <time>2026-08-28T17:53:10Z</time>
  <course>266.58</course>
  <speed>5.92</speed>
  <fix>3d</fix>
</trkpt>
<trkpt lat="40.0714613" lon="-105.2297377">
  <ele>1583.04</ele>
  <time>2026-08-28T17:53:10Z</time>
  <course>241.9</course>
  <speed>6.000833275470999</speed>
  <fix>3d</fix>
</trkpt>
<trkpt lat="40.0714656" lon="-105.2297155">
  <ele>1583.0</ele>
  <time>2026-08-28T17:53:10Z</time>
  <course>266.58</course>
  <speed>5.92</speed>
  <fix>3d</fix>
</trkpt>
<trkpt lat="40.0714583" lon="-105.2297435">
  <ele>1583.04</ele>
  <time>2026-08-28T17:53:10Z</time>
  <course>233.8</course>
  <speed>6.002616096336664</speed>
  <fix>3d</fix>
</trkpt>
<trkpt lat="40.0714636" lon="-105.2297292">
  <ele>1583.0</ele>
  <time>2026-08-28T17:53:10Z</time>
  <course>250.35</course>
  <speed>5.92</speed>
  <fix>3d</fix>
</trkpt>
<trkpt lat="40.0714546" lon="-105.2297487">
  <ele>1583.04</ele>
  <time>2026-08-28T17:53:10Z</time>
  <course>225.7</course>
  <speed>6.004040306327065</speed>
  <fix>3d</fix>
</trkpt>
<trkpt lat="40.0714636" lon="-105.2297292">
  <ele>1583.0</ele>
  <time>2026-08-28T17:53:10Z</time>
  <course>250.35</course>
  <speed>5.92</speed>
  <fix>3d</fix>
</trkpt>
<trkpt lat="40.0714505" lon="-105.2297532">
  <ele>1583.03</ele>
  <time>2026-08-28T17:53:10Z</time>
  <course>217.61</course>
  <speed>5.998616507162297</speed>
  <fix>3d</fix>
</trkpt>
<trkpt lat="40.0714586" lon="-105.2297414">
  <ele>1583.0</ele>
  <time>2026-08-28T17:53:10Z</time>
  <course>234.16</course>
  <speed>5.92</speed>
  <fix>3d</fix>
</trkpt>
<trkpt lat="40.0714459" lon="-105.2297569">
  <ele>1583.03</ele>
  <time>2026-08-28T17:53:10Z</time>
  <course>209.44</course>
  <speed>6.003007579538777</speed>
  <fix>3d</fix>
</trkpt>
<trkpt lat="40.0714512" lon="-105.2297514">
  <ele>1583.0</ele>
  <time>2026-08-28T17:53:10Z</time>
  <course>217.96</course>
  <speed>5.92</speed>
  <fix>3d</fix>
</trkpt>
<trkpt lat="40.0714409" lon="-105.2297596">
  <ele>1583.03</ele>
  <time>2026-08-28T17:53:10Z</time>
  <course>201.34</course>
  <speed>6.000241661799964</speed>
  <fix>3d</fix>
</trkpt>
<trkpt lat="40.0714512" lon="-105.2297514">
  <ele>1583.0</ele>
  <time>2026-08-28T17:53:10Z</time>
  <course>217.96</course>
  <speed>5.92</speed>
  <fix>3d</fix>
</trkpt>
<trkpt lat="40.0714356" lon="-105.2297614">
  <ele>1583.02</ele>
  <time>2026-08-28T17:53:10Z</time>
  <course>193.23</course>
  <speed>6.010998253202208</speed>
  <fix>3d</fix>
</trkpt>
<trkpt lat="40.071442" lon="-105.2297584">
  <ele>1583.0</ele>
  <time>2026-08-28T17:53:10Z</time>
  <course>201.76</course>
  <speed>5.92</speed>
  <fix>3d</fix>
</trkpt>
<trkpt lat="40.0714303" lon="-105.2297623">
  <ele>1583.02</ele>
  <time>2026-08-28T17:53:10Z</time>
  <course>185.18</course>
  <speed>6.010790297456733</speed>
  <fix>3d</fix>
</trkpt>
<trkpt lat="40.071442" lon="-105.2297584">
  <ele>1583.0</ele>
  <time>2026-08-28T17:53:10Z</time>
  <course>201.76</course>
  <speed>5.92</speed>
  <fix>3d</fix>
</trkpt>
<trkpt lat="40.0714248" lon="-105.2297621">
  <ele>1583.02</ele>
  <time>2026-08-28T17:53:10Z</time>
  <course>177.06</course>
  <speed>6.019975083004912</speed>
  <fix>3d</fix>
</trkpt>
<trkpt lat="40.0714317" lon="-105.2297616">
  <ele>1583.0</ele>
  <time>2026-08-28T17:53:10Z</time>
  <course>185.57</course>
  <speed>5.92</speed>
  <fix>3d</fix>
</trkpt>
<trkpt lat="40.0714194" lon="-105.2297609">
  <ele>1583.01</ele>
  <time>2026-08-28T17:53:10Z</time>
  <course>168.95</course>
  <speed>6.0285404535426315</speed>
  <fix>3d</fix>
</trkpt>
<trkpt lat="40.0714317" lon="-105.2297616">
  <ele>1583.0</ele>
  <time>2026-08-28T17:53:10Z</time>
  <course>185.57</course>
  <speed>5.92</speed>
  <fix>3d</fix>
</trkpt>
<trkpt lat="40.0714142" lon="-105.2297588">
  <ele>1583.01</ele>
  <time>2026-08-28T17:53:10Z</time>
  <course>160.83</course>
  <speed>6.035900926953656</speed>
  <fix>3d</fix>
</trkpt>
<trkpt lat="40.071421" lon="-105.229761">
  <ele>1583.0</ele>
  <time>2026-08-28T17:53:10Z</time>
  <course>169.37</course>
  <speed>5.92</speed>
  <fix>3d</fix>
</trkpt>
<trkpt lat="40.0714092" lon="-105.2297557">
  <ele>1583.01</ele>
  <time>2026-08-28T17:53:10Z</time>
  <course>152.65</course>
  <speed>6.043343445477842</speed>
  <fix>3d</fix>
</trkpt>
<trkpt lat="40.071421" lon="-105.229761">
  <ele>1583.0</ele>
  <time>2026-08-28T17:53:10Z</time>
  <course>169.37</course>
  <speed>5.92</speed>
  <fix>3d</fix>
</trkpt>
<trkpt lat="40.0714047" lon="-105.2297518">
  <ele>1583.02</ele>
  <time>2026-08-28T17:53:10Z</time>
  <course>144.54</course>
  <speed>6.046064835907734</speed>
  <fix>3d</fix>
</trkpt>
<trkpt lat="40.071411" lon="-105.2297566">
  <ele>1583.0</ele>
  <time>2026-08-28T17:53:10Z</time>
  <course>153.17</course>
  <speed>5.92</speed>
  <fix>3d</fix>
</trkpt>
<trkpt lat="40.0714006" lon="-105.2297471">
  <ele>1583.02</ele>
  <time>2026-08-28T17:53:10Z</time>
  <course>136.43</course>
  <speed>6.052900131342</speed>
  <fix>3d</fix>
</trkpt>
<trkpt lat="40.071411" lon="-105.2297566">
  <ele>1583.0</ele>
  <time>2026-08-28T17:53:10Z</time>
  <course>153.17</course>
  <speed>5.92</speed>
  <fix>3d</fix>
</trkpt>
<trkpt lat="40.0713971" lon="-105.2297416">
  <ele>1583.02</ele>
  <time>2026-08-28T17:53:10Z</time>
  <course>128.32</course>
  <speed>6.0540647502318645</speed>
  <fix>3d</fix>
</trkpt>
<trkpt lat="40.0714023" lon="-105.2297486">
  <ele>1583.0</ele>
  <time>2026-08-28T17:53:10Z</time>
  <course>136.97</course>
  <speed>5.92</speed>
  <fix>3d</fix>
</trkpt>
<trkpt lat="40.0713942" lon="-105.2297356">
  <ele>1583.01</ele>
  <time>2026-08-28T17:53:10Z</time>
  <course>120.2</course>
  <speed>6.054295995406898</speed>
  <fix>3d</fix>
</trkpt>
<trkpt lat="40.0714023" lon="-105.2297486">
  <ele>1583.0</ele>
  <time>2026-08-28T17:53:10Z</time>
  <course>136.97</course>
  <speed>5.92</speed>
  <fix>3d</fix>
</trkpt>
<trkpt lat="40.071392" lon="-105.2297291">
  <ele>1583.01</ele>
  <time>2026-08-28T17:53:10Z</time>
  <course>112.09</course>
  <speed>6.062738655096391</speed>
  <fix>3d</fix>
</trkpt>
<trkpt lat="40.0713956" lon="-105.2297378">
  <ele>1583.0</ele>
  <time>2026-08-28T17:53:10Z</time>
  <course>120.78</course>
  <speed>5.92</speed>
  <fix>3d</fix>
</trkpt>
<trkpt lat="40.0713905" lon="-105.2297222">
  <ele>1583.01</ele>
  <time>2026-08-28T17:53:10Z</time>
  <course>103.98</course>
  <speed>6.06105601360027</speed>
  <fix>3d</fix>
</trkpt>
<trkpt lat="40.0713956" lon="-105.2297378">
  <ele>1583.0</ele>
  <time>2026-08-28T17:53:10Z</time>
  <course>120.78</course>
  <speed>5.92</speed>
  <fix>3d</fix>
</trkpt>
<trkpt lat="40.0713898" lon="-105.2297152">
  <ele>1583.0</ele>
  <time>2026-08-28T17:53:10Z</time>
  <course>95.87</course>
  <speed>6.066712454039667</speed>
  <fix>3d</fix>
</trkpt>
<trkpt lat="40.0713956" lon="-105.2297378">
  <ele>1583.0</ele>
  <time>2026-08-28T17:53:10Z</time>
  <course>120.78</course>
  <speed>5.92</speed>
  <fix>3d</fix>
</trkpt>
<trkpt lat="40.0713898" lon="-105.2297081">
  <ele>1583.0</ele>
  <time>2026-08-28T17:53:10Z</time>
  <course>87.77</course>
  <speed>6.0625572162248496</speed>
  <fix>3d</fix>
</trkpt>
<trkpt lat="40.0713916" lon="-105.2297251">
  <ele>1583.0</ele>
  <time>2026-08-28T17:53:10Z</time>
  <course>104.55</course>
  <speed>5.92</speed>
  <fix>3d</fix>
</trkpt>
<trkpt lat="40.0713906" lon="-105.2297012">
  <ele>1583.0</ele>
  <time>2026-08-28T17:53:10Z</time>
  <course>79.67</course>
  <speed>6.0562199431658685</speed>
  <fix>3d</fix>
</trkpt>
<trkpt lat="40.0713916" lon="-105.2297251">
  <ele>1583.0</ele>
  <time>2026-08-28T17:53:10Z</time>
  <course>104.55</course>
  <speed>5.92</speed>
  <fix>3d</fix>
</trkpt>
<trkpt lat="40.0713921" lon="-105.2296945">
  <ele>1583.0</ele>
  <time>2026-08-28T17:53:10Z</time>
  <course>74.78</course>
  <speed>6.040074502851765</speed>
  <fix>3d</fix>
</trkpt>
<trkpt lat="40.0713904" lon="-105.2297112">
  <ele>1583.0</ele>
  <time>2026-08-28T17:53:10Z</time>
  <course>88.32</course>
  <speed>5.93</speed>
  <fix>3d</fix>
</trkpt>
<trkpt lat="40.0713937" lon="-105.2296879">
  <ele>1583.0</ele>
  <time>2026-08-28T17:53:10Z</time>
  <course>74.78</course>
  <speed>5.928945943420298</speed>
  <fix>3d</fix>
</trkpt>
<trkpt lat="40.0713904" lon="-105.2297112">
  <ele>1583.0</ele>
  <time>2026-08-28T17:53:10Z</time>
  <course>88.32</course>
  <speed>5.93</speed>
  <fix>3d</fix>
</trkpt>
<trkpt lat="40.0713951" lon="-105.2296815">
  <ele>1582.99</ele>
  <time>2026-08-28T17:53:10Z</time>
  <course>74.8</course>
  <speed>5.720139858430036</speed>
  <fix>3d</fix>
</trkpt>
<trkpt lat="40.0713918" lon="-105.2296974">
  <ele>1583.0</ele>
  <time>2026-08-28T17:53:10Z</time>
  <course>77.84</course>
  <speed>5.92</speed>
  <fix>3d</fix>
</trkpt>
<trkpt lat="40.0713965" lon="-105.2296752">
  <ele>1582.99</ele>
  <time>2026-08-28T17:53:10Z</time>
  <course>74.83</course>
  <speed>5.4385384065941835</speed>
  <fix>3d</fix>
</trkpt>
<trkpt lat="40.0713943" lon="-105.2296842">
  <ele>1583.0</ele>
  <time>2026-08-28T17:53:10Z</time>
  <course>75.42</course>
  <speed>5.64</speed>
  <fix>3d</fix>
</trkpt>
<trkpt lat="40.0713978" lon="-105.2296694">
  <ele>1582.99</ele>
  <time>2026-08-28T17:53:10Z</time>
  <course>74.86</course>
  <speed>5.154076056869941</speed>
  <fix>3d</fix>
</trkpt>
<trkpt lat="40.0713943" lon="-105.2296842">
  <ele>1583.0</ele>
  <time>2026-08-28T17:53:10Z</time>
  <course>75.42</course>
  <speed>5.64</speed>
  <fix>3d</fix>
</trkpt>
<trkpt lat="40.0713989" lon="-105.2296638">
  <ele>1582.98</ele>
  <time>2026-08-28T17:53:10Z</time>
  <course>74.88</course>
  <speed>4.884915557100245</speed>
  <fix>3d</fix>
</trkpt>
<trkpt lat="40.0713967" lon="-105.2296719">
  <ele>1583.0</ele>
  <time>2026-08-28T17:53:10Z</time>
  <course>75.42</course>
  <speed>5.16</speed>
  <fix>3d</fix>
</trkpt>
<trkpt lat="40.0714" lon="-105.2296585">
  <ele>1582.98</ele>
  <time>2026-08-28T17:53:10Z</time>
  <course>74.9</course>
  <speed>4.632062175748508</speed>
  <fix>3d</fix>
</trkpt>
<trkpt lat="40.0713967" lon="-105.2296719">
  <ele>1583.0</ele>
  <time>2026-08-28T17:53:10Z</time>
  <course>75.42</course>
  <speed>5.16</speed>
  <fix>3d</fix>
</trkpt>
<trkpt lat="40.0714011" lon="-105.2296536">
  <ele>1582.98</ele>
  <time>2026-08-28T17:53:10Z</time>
  <course>74.91</course>
  <speed>4.394507936049268</speed>
  <fix>3d</fix>
</trkpt>
<trkpt lat="40.071399" lon="-105.2296607">
  <ele>1583.0</ele>
  <time>2026-08-28T17:53:10Z</time>
  <course>75.42</course>
  <speed>4.67</speed>
  <fix>3d</fix>
</trkpt>
<trkpt lat="40.0714021" lon="-105.2296488">
  <ele>1582.98</ele>
  <time>2026-08-28T17:53:10Z</time>
  <course>74.92</course>
  <speed>4.163676260229654</speed>
  <fix>3d</fix>
</trkpt>
<trkpt lat="40.071399" lon="-105.2296607">
  <ele>1583.0</ele>
  <time>2026-08-28T17:53:10Z</time>
  <course>75.42</course>
  <speed>4.67</speed>
  <fix>3d</fix>
</trkpt>
<trkpt lat="40.071403" lon="-105.2296442">
  <ele>1582.98</ele>
  <time>2026-08-28T17:53:10Z</time>
  <course>74.92</course>
  <speed>3.942435795292043</speed>
  <fix>3d</fix>
</trkpt>
<trkpt lat="40.071401" lon="-105.2296506">
  <ele>1583.0</ele>
  <time>2026-08-28T17:53:10Z</time>
  <course>75.42</course>
  <speed>4.22</speed>
  <fix>3d</fix>
</trkpt>
<trkpt lat="40.0714039" lon="-105.2296399">
  <ele>1582.97</ele>
  <time>2026-08-28T17:53:10Z</time>
  <course>74.93</course>
  <speed>3.733630940518894</speed>
  <fix>3d</fix>
</trkpt>
<trkpt lat="40.071401" lon="-105.2296506">
  <ele>1583.0</ele>
  <time>2026-08-28T17:53:10Z</time>
  <course>75.42</course>
  <speed>4.22</speed>
  <fix>3d</fix>
</trkpt>
<trkpt lat="40.0714047" lon="-105.2296358">
  <ele>1582.97</ele>
  <time>2026-08-28T17:53:10Z</time>
  <course>74.93</course>
  <speed>3.534416500640523</speed>
  <fix>3d</fix>
</trkpt>
<trkpt lat="40.0714028" lon="-105.2296415">
  <ele>1583.0</ele>
  <time>2026-08-28T17:53:10Z</time>
  <course>75.42</course>
  <speed>3.82</speed>
  <fix>3d</fix>
</trkpt>
<trkpt lat="40.0714055" lon="-105.2296319">
  <ele>1582.97</ele>
  <time>2026-08-28T17:53:10Z</time>
  <course>74.94</course>
  <speed>3.347626024513491</speed>
  <fix>3d</fix>
</trkpt>
<trkpt lat="40.0714028" lon="-105.2296415">
  <ele>1583.0</ele>
  <time>2026-08-28T17:53:10Z</time>
  <course>75.42</course>
  <speed>3.82</speed>
  <fix>3d</fix>
</trkpt>
<trkpt lat="40.0714062" lon="-105.2296282">
  <ele>1582.98</ele>
  <time>2026-08-28T17:53:10Z</time>
  <course>74.94</course>
  <speed>3.1676016163652907</speed>
  <fix>3d</fix>
</trkpt>
<trkpt lat="40.0714045" lon="-105.2296332">
  <ele>1583.0</ele>
  <time>2026-08-28T17:53:10Z</time>
  <course>75.42</course>
  <speed>3.46</speed>
  <fix>3d</fix>
</trkpt>
<trkpt lat="40.0714069" lon="-105.2296247">
  <ele>1582.98</ele>
  <time>2026-08-28T17:53:10Z</time>
  <course>74.94</course>
  <speed>3.0</speed>
  <fix>3d</fix>
</trkpt>
<trkpt lat="40.0714045" lon="-105.2296332">
  <ele>1583.0</ele>
  <time>2026-08-28T17:53:10Z</time>
  <course>75.42</course>
  <speed>3.46</speed>
  <fix>3d</fix>
</trkpt>
<trkpt lat="40.0714076" lon="-105.2296214">
  <ele>1582.98</ele>
  <time>2026-08-28T17:53:10Z</time>
  <course>74.95</course>
  <speed>2.8324018076537096</speed>
  <fix>3d</fix>
</trkpt>
<trkpt lat="40.0714059" lon="-105.2296258">
  <ele>1583.0</ele>
  <time>2026-08-28T17:53:10Z</time>
  <course>75.42</course>
  <speed>3.13</speed>
  <fix>3d</fix>
</trkpt>
<trkpt lat="40.0714082" lon="-105.2296183">
  <ele>1582.98</ele>
  <time>2026-08-28T17:53:10Z</time>
  <course>74.95</course>
  <speed>2.6840268254993283</speed>
  <fix>3d</fix>
</trkpt>
<trkpt lat="40.0714059" lon="-105.2296258">
  <ele>1583.0</ele>
  <time>2026-08-28T17:53:10Z</time>
  <course>75.42</course>
  <speed>3.13</speed>
  <fix>3d</fix>
</trkpt>
<trkpt lat="40.0714088" lon="-105.2296153">
  <ele>1582.99</ele>
  <time>2026-08-28T17:53:10Z</time>
  <course>74.95</course>
  <speed>2.5384247083575278</speed>
  <fix>3d</fix>
</trkpt>
<trkpt lat="40.0714059" lon="-105.2296258">
  <ele>1583.0</ele>
  <time>2026-08-28T17:53:10Z</time>
  <course>75.42</course>
  <speed>3.13</speed>
  <fix>3d</fix>
</trkpt>
<trkpt lat="40.0714093" lon="-105.2296125">
  <ele>1583.0</ele>
  <time>2026-08-28T17:53:10Z</time>
  <course>74.96</course>
  <speed>2.3928226010300055</speed>
  <fix>3d</fix>
</trkpt>
<trkpt lat="40.0714073" lon="-105.229619">
  <ele>1583.0</ele>
  <time>2026-08-28T17:53:10Z</time>
  <course>75.42</course>
  <speed>2.83</speed>
  <fix>3d</fix>
</trkpt>
<trkpt lat="40.0714098" lon="-105.2296098">
  <ele>1583.0</ele>
  <time>2026-08-28T17:53:10Z</time>
  <course>74.96</course>
  <speed>2.2568340656769608</speed>
  <fix>3d</fix>
</trkpt>
<trkpt lat="40.0714073" lon="-105.229619">
  <ele>1583.0</ele>
  <time>2026-08-28T17:53:10Z</time>
  <course>75.42</course>
  <speed>2.83</speed>
  <fix>3d</fix>
</trkpt>
<trkpt lat="39.655741" lon="-104.1383097">
  <ele>1566.58</ele>
  <time>2026-08-28T17:53:11Z</time>
  <course>0.0</course>
  <speed>0.0</speed>
  <fix>3d</fix>
</trkpt>
<trkpt lat="40.0713749" lon="-105.229789">
  <ele>1583.0</ele>
  <time>2026-08-28T17:53:11Z</time>
  <course>0.0</course>
  <speed>0.0</speed>
  <fix>3d</fix>
</trkpt>
<trkpt lat="40.0713749" lon="-105.229789">
  <ele>1583.0</ele>
  <time>2026-08-28T17:53:11Z</time>
  <course>238.36</course>
  <speed>0.0</speed>
  <fix>3d</fix>
</trkpt>
<trkpt lat="40.0713749" lon="-105.229789">
  <ele>1583.0</ele>
  <time>2026-08-28T17:53:11Z</time>
  <course>0.0</course>
  <speed>0.0</speed>
  <fix>3d</fix>
</trkpt>
<trkpt lat="40.0713749" lon="-105.229789">
  <ele>1583.0</ele>
  <time>2026-08-28T17:53:11Z</time>
  <course>238.44</course>
  <speed>0.0</speed>
  <fix>3d</fix>
</trkpt>
<trkpt lat="40.0713749" lon="-105.229789">
  <ele>1583.0</ele>
  <time>2026-08-28T17:53:11Z</time>
  <course>0.0</course>
  <speed>0.0</speed>
  <fix>3d</fix>
</trkpt>
<trkpt lat="40.0713749" lon="-105.229789">
  <ele>1583.0</ele>
  <time>2026-08-28T17:53:11Z</time>
  <course>238.64</course>
  <speed>0.0</speed>
  <fix>3d</fix>
</trkpt>
<trkpt lat="40.0713749" lon="-105.229789">
  <ele>1583.0</ele>
  <time>2026-08-28T17:53:11Z</time>
  <course>0.0</course>
  <speed>0.0</speed>
  <fix>3d</fix>
</trkpt>
<trkpt lat="40.0713749" lon="-105.229789">
  <ele>1583.0</ele>
  <time>2026-08-28T17:53:11Z</time>
  <course>238.93</course>
  <speed>0.0</speed>
  <fix>3d</fix>
</trkpt>
<trkpt lat="40.0713749" lon="-105.229789">
  <ele>1583.0</ele>
  <time>2026-08-28T17:53:11Z</time>
  <course>0.0</course>
  <speed>0.0</speed>
  <fix>3d</fix>
</trkpt>
<trkpt lat="40.0713749" lon="-105.229789">
  <ele>1583.0</ele>
  <time>2026-08-28T17:53:11Z</time>
  <course>239.26</course>
  <speed>0.0</speed>
  <fix>3d</fix>
</trkpt>
<trkpt lat="40.0713749" lon="-105.229789">
  <ele>1583.0</ele>
  <time>2026-08-28T17:53:11Z</time>
  <course>0.0</course>
  <speed>0.0</speed>
  <fix>3d</fix>
</trkpt>
<trkpt lat="40.0713749" lon="-105.229789">
  <ele>1583.0</ele>
  <time>2026-08-28T17:53:11Z</time>
  <course>239.61</course>
  <speed>0.0</speed>
  <fix>3d</fix>
</trkpt>
<trkpt lat="40.0713749" lon="-105.229789">
  <ele>1583.0</ele>
  <time>2026-08-28T17:53:11Z</time>
  <course>0.0</course>
  <speed>0.0</speed>
  <fix>3d</fix>
</trkpt>
<trkpt lat="40.0713749" lon="-105.229789">
  <ele>1583.0</ele>
  <time>2026-08-28T17:53:11Z</time>
  <course>239.96</course>
  <speed>0.0</speed>
  <fix>3d</fix>
</trkpt>
<trkpt lat="40.0713749" lon="-105.229789">
  <ele>1583.0</ele>
  <time>2026-08-28T17:53:11Z</time>
  <course>0.0</course>
  <speed>0.0</speed>
  <fix>3d</fix>
</trkpt>
<trkpt lat="40.0713749" lon="-105.229789">
  <ele>1583.0</ele>
  <time>2026-08-28T17:53:11Z</time>
  <course>240.29</course>
  <speed>0.0</speed>
  <fix>3d</fix>
</trkpt>
<trkpt lat="40.0713749" lon="-105.229789">
  <ele>1583.0</ele>
  <time>2026-08-28T17:53:11Z</time>
  <course>0.0</course>
  <speed>0.0</speed>
  <fix>3d</fix>
</trkpt>
<trkpt lat="40.0713749" lon="-105.229789">
  <ele>1583.0</ele>
  <time>2026-08-28T17:53:11Z</time>
  <course>240.61</course>
  <speed>0.0</speed>
  <fix>3d</fix>
</trkpt>
<trkpt lat="40.0713749" lon="-105.229789">
  <ele>1583.0</ele>
  <time>2026-08-28T17:53:11Z</time>
  <course>0.0</course>
  <speed>0.0</speed>
  <fix>3d</fix>
</trkpt>
<trkpt lat="40.0713749" lon="-105.229789">
  <ele>1583.0</ele>
  <time>2026-08-28T17:53:11Z</time>
  <course>240.92</course>
  <speed>0.0</speed>
  <fix>3d</fix>
</trkpt>
<trkpt lat="40.0713749" lon="-105.229789">
  <ele>1583.0</ele>
  <time>2026-08-28T17:53:11Z</time>
  <course>0.0</course>
  <speed>0.0</speed>
  <fix>3d</fix>
</trkpt>
<trkpt lat="40.0713749" lon="-105.229789">
  <ele>1583.0</ele>
  <time>2026-08-28T17:53:11Z</time>
  <course>241.21</course>
  <speed>0.0</speed>
  <fix>3d</fix>
</trkpt>
<trkpt lat="40.0713749" lon="-105.229789">
  <ele>1583.0</ele>
  <time>2026-08-28T17:53:11Z</time>
  <course>0.0</course>
  <speed>0.0</speed>
  <fix>3d</fix>
</trkpt>
<trkpt lat="40.0713749" lon="-105.229789">
  <ele>1583.0</ele>
  <time>2026-08-28T17:53:11Z</time>
  <course>241.49</course>
  <speed>0.0</speed>
  <fix>3d</fix>
</trkpt>
<trkpt lat="40.0713749" lon="-105.229789">
  <ele>1583.0</ele>
  <time>2026-08-28T17:53:11Z</time>
  <course>0.0</course>
  <speed>0.0</speed>
  <fix>3d</fix>
</trkpt>
<trkpt lat="40.0713749" lon="-105.229789">
  <ele>1583.0</ele>
  <time>2026-08-28T17:53:11Z</time>
  <course>241.77</course>
  <speed>0.0</speed>
  <fix>3d</fix>
</trkpt>
<trkpt lat="40.0713749" lon="-105.229789">
  <ele>1583.0</ele>
  <time>2026-08-28T17:53:11Z</time>
  <course>0.0</course>
  <speed>0.0</speed>
  <fix>3d</fix>
</trkpt>
<trkpt lat="40.0713749" lon="-105.229789">
  <ele>1583.0</ele>
  <time>2026-08-28T17:53:11Z</time>
  <course>242.03</course>
  <speed>0.0</speed>
  <fix>3d</fix>
</trkpt>
<trkpt lat="40.0713749" lon="-105.229789">
  <ele>1583.0</ele>
  <time>2026-08-28T17:53:11Z</time>
  <course>0.0</course>
  <speed>0.0</speed>
  <fix>3d</fix>
</trkpt>
<trkpt lat="40.0713749" lon="-105.229789">
  <ele>1583.0</ele>
  <time>2026-08-28T17:53:11Z</time>
  <course>242.29</course>
  <speed>0.0</speed>
  <fix>3d</fix>
</trkpt>
<trkpt lat="40.0713749" lon="-105.229789">
  <ele>1583.0</ele>
  <time>2026-08-28T17:53:11Z</time>
  <course>0.0</course>
  <speed>0.0</speed>
  <fix>3d</fix>
</trkpt>
<trkpt lat="40.0713749" lon="-105.229789">
  <ele>1583.0</ele>
  <time>2026-08-28T17:53:11Z</time>
  <course>242.54</course>
  <speed>0.0</speed>
  <fix>3d</fix>
</trkpt>
<trkpt lat="40.0713749" lon="-105.229789">
  <ele>1583.0</ele>
  <time>2026-08-28T17:53:11Z</time>
  <course>0.0</course>
  <speed>0.0</speed>
  <fix>3d</fix>
</trkpt>
<trkpt lat="40.0713749" lon="-105.229789">
  <ele>1583.0</ele>
  <time>2026-08-28T17:53:11Z</time>
  <course>242.79</course>
  <speed>0.0</speed>
  <fix>3d</fix>
</trkpt>
<trkpt lat="40.0713749" lon="-105.229789">
  <ele>1583.0</ele>
  <time>2026-08-28T17:53:11Z</time>
  <course>0.0</course>
  <speed>0.0</speed>
  <fix>3d</fix>
</trkpt>
<trkpt lat="40.0713749" lon="-105.229789">
  <ele>1583.0</ele>
  <time>2026-08-28T17:53:11Z</time>
  <course>243.02</course>
  <speed>0.0</speed>
  <fix>3d</fix>
</trkpt>
<trkpt lat="40.0713749" lon="-105.229789">
  <ele>1583.0</ele>
  <time>2026-08-28T17:53:11Z</time>
  <course>0.0</course>
  <speed>0.0</speed>
  <fix>3d</fix>
</trkpt>
<trkpt lat="40.0713749" lon="-105.229789">
  <ele>1583.0</ele>
  <time>2026-08-28T17:53:11Z</time>
  <course>243.25</course>
  <speed>0.0</speed>
  <fix>3d</fix>
</trkpt>
<trkpt lat="40.0713749" lon="-105.229789">
  <ele>1583.0</ele>
  <time>2026-08-28T17:53:11Z</time>
  <course>0.0</course>
  <speed>0.0</speed>
  <fix>3d</fix>
</trkpt>
<trkpt lat="40.0713749" lon="-105.229789">
  <ele>1583.0</ele>
  <time>2026-08-28T17:53:11Z</time>
  <course>243.47</course>
  <speed>0.0</speed>
  <fix>3d</fix>
</trkpt>
<trkpt lat="40.0713749" lon="-105.229789">
  <ele>1583.0</ele>
  <time>2026-08-28T17:53:11Z</time>
  <course>0.0</course>
  <speed>0.0</speed>
  <fix>3d</fix>
</trkpt>
<trkpt lat="40.0713749" lon="-105.229789">
  <ele>1583.0</ele>
  <time>2026-08-28T17:53:11Z</time>
  <course>243.68</course>
  <speed>0.0</speed>
  <fix>3d</fix>
</trkpt>
<trkpt lat="40.0713749" lon="-105.229789">
  <ele>1583.0</ele>
  <time>2026-08-28T17:53:11Z</time>
  <course>0.0</course>
  <speed>0.0</speed>
  <fix>3d</fix>
</trkpt>
<trkpt lat="40.0713749" lon="-105.229789">
  <ele>1583.0</ele>
  <time>2026-08-28T17:53:11Z</time>
  <course>243.89</course>
  <speed>0.0</speed>
  <fix>3d</fix>
</trkpt>
<trkpt lat="40.0713749" lon="-105.229789">
  <ele>1583.0</ele>
  <time>2026-08-28T17:53:11Z</time>
  <course>0.0</course>
  <speed>0.0</speed>
  <fix>3d</fix>
</trkpt>
<trkpt lat="40.0713749" lon="-105.229789">
  <ele>1583.0</ele>
  <time>2026-08-28T17:53:11Z</time>
  <course>244.64</course>
  <speed>0.0</speed>
  <fix>3d</fix>
</trkpt>
<trkpt lat="40.0713749" lon="-105.229789">
  <ele>1583.0</ele>
  <time>2026-08-28T17:53:11Z</time>
  <course>0.0</course>
  <speed>0.0</speed>
  <fix>3d</fix>
</trkpt>
<trkpt lat="40.0713749" lon="-105.229789">
  <ele>1583.0</ele>
  <time>2026-08-28T17:53:11Z</time>
  <course>245.13</course>
  <speed>0.0</speed>
  <fix>3d</fix>
</trkpt>
<trkpt lat="40.0713749" lon="-105.229789">
  <ele>1583.0</ele>
  <time>2026-08-28T17:53:11Z</time>
  <course>0.0</course>
  <speed>0.0</speed>
  <fix>3d</fix>
</trkpt>
<trkpt lat="40.0713749" lon="-105.229789">
  <ele>1583.0</ele>
  <time>2026-08-28T17:53:11Z</time>
  <course>245.29</course>
  <speed>0.0</speed>
  <fix>3d</fix>
</trkpt>
<trkpt lat="40.0713749" lon="-105.229789">
  <ele>1583.0</ele>
  <time>2026-08-28T17:53:11Z</time>
  <course>0.0</course>
  <speed>0.0</speed>
  <fix>3d</fix>
</trkpt>
<trkpt lat="40.0713749" lon="-105.229789">
  <ele>1583.0</ele>
  <time>2026-08-28T17:53:11Z</time>
  <course>245.43</course>
  <speed>0.0</speed>
  <fix>3d</fix>
</trkpt>
<trkpt lat="40.0713749" lon="-105.229789">
  <ele>1583.0</ele>
  <time>2026-08-28T17:53:11Z</time>
  <course>0.0</course>
  <speed>0.0</speed>
  <fix>3d</fix>
</trkpt>
<trkpt lat="40.0713749" lon="-105.229789">
  <ele>1583.0</ele>
  <time>2026-08-28T17:53:11Z</time>
  <course>245.57</course>
  <speed>0.0</speed>
  <fix>3d</fix>
</trkpt>
<trkpt lat="40.0713749" lon="-105.229789">
  <ele>1583.0</ele>
  <time>2026-08-28T17:53:11Z</time>
  <course>0.0</course>
  <speed>0.0</speed>
  <fix>3d</fix>
</trkpt>
<trkpt lat="40.0713749" lon="-105.229789">
  <ele>1583.0</ele>
  <time>2026-08-28T17:53:11Z</time>
  <course>245.71</course>
  <speed>0.0</speed>
  <fix>3d</fix>
</trkpt>
<trkpt lat="40.0713749" lon="-105.229789">
  <ele>1583.0</ele>
  <time>2026-08-28T17:53:11Z</time>
  <course>0.0</course>
  <speed>0.0</speed>
  <fix>3d</fix>
</trkpt>
<trkpt lat="40.0713749" lon="-105.229789">
  <ele>1583.0</ele>
  <time>2026-08-28T17:53:11Z</time>
  <course>245.96</course>
  <speed>0.0</speed>
  <fix>3d</fix>
</trkpt>
<trkpt lat="40.0713749" lon="-105.229789">
  <ele>1583.0</ele>
  <time>2026-08-28T17:53:11Z</time>
  <course>0.0</course>
  <speed>0.0</speed>
  <fix>3d</fix>
</trkpt>
<trkpt lat="40.0713749" lon="-105.229789">
  <ele>1583.0</ele>
  <time>2026-08-28T17:53:11Z</time>
  <course>246.08</course>
  <speed>0.0</speed>
  <fix>3d</fix>
</trkpt>
<trkpt lat="40.0713749" lon="-105.229789">
  <ele>1583.0</ele>
  <time>2026-08-28T17:53:11Z</time>
  <course>0.0</course>
  <speed>0.0</speed>
  <fix>3d</fix>
</trkpt>
<trkpt lat="40.0713749" lon="-105.229789">
  <ele>1583.0</ele>
  <time>2026-08-28T17:53:11Z</time>
  <course>246.19</course>
  <speed>0.0</speed>
  <fix>3d</fix>
</trkpt>
<trkpt lat="40.0713749" lon="-105.229789">
  <ele>1583.0</ele>
  <time>2026-08-28T17:53:11Z</time>
  <course>0.0</course>
  <speed>0.0</speed>
  <fix>3d</fix>
</trkpt>
<trkpt lat="40.0713749" lon="-105.229789">
  <ele>1583.0</ele>
  <time>2026-08-28T17:53:11Z</time>
  <course>246.3</course>
  <speed>0.0</speed>
  <fix>3d</fix>
</trkpt>
<trkpt lat="40.0713749" lon="-105.229789">
  <ele>1583.0</ele>
  <time>2026-08-28T17:53:11Z</time>
  <course>0.0</course>
  <speed>0.0</speed>
  <fix>3d</fix>
</trkpt>
<trkpt lat="40.0713749" lon="-105.229789">
  <ele>1583.0</ele>
  <time>2026-08-28T17:53:11Z</time>
  <course>246.41</course>
  <speed>0.0</speed>
  <fix>3d</fix>
</trkpt>
<trkpt lat="40.0713749" lon="-105.229789">
  <ele>1583.0</ele>
  <time>2026-08-28T17:53:11Z</time>
  <course>0.0</course>
  <speed>0.0</speed>
  <fix>3d</fix>
</trkpt>
<trkpt lat="40.0713749" lon="-105.229789">
  <ele>1583.0</ele>
  <time>2026-08-28T17:53:11Z</time>
  <course>246.51</course>
  <speed>0.0</speed>
  <fix>3d</fix>
</trkpt>
<trkpt lat="40.0713749" lon="-105.229789">
  <ele>1583.0</ele>
  <time>2026-08-28T17:53:11Z</time>
  <course>0.0</course>
  <speed>0.0</speed>
  <fix>3d</fix>
</trkpt>
<trkpt lat="40.0713749" lon="-105.229789">
  <ele>1583.0</ele>
  <time>2026-08-28T17:53:11Z</time>
  <course>246.6</course>
  <speed>0.0</speed>
  <fix>3d</fix>
</trkpt>
<trkpt lat="40.0713749" lon="-105.229789">
  <ele>1583.0</ele>
  <time>2026-08-28T17:53:11Z</time>
  <course>0.0</course>
  <speed>0.0</speed>
  <fix>3d</fix>
</trkpt>
<trkpt lat="40.0713749" lon="-105.229789">
  <ele>1583.0</ele>
  <time>2026-08-28T17:53:11Z</time>
  <course>246.7</course>
  <speed>0.0</speed>
  <fix>3d</fix>
</trkpt>
<trkpt lat="40.0713749" lon="-105.229789">
  <ele>1583.0</ele>
  <time>2026-08-28T17:53:11Z</time>
  <course>0.0</course>
  <speed>0.0</speed>
  <fix>3d</fix>
</trkpt>
<trkpt lat="40.0713749" lon="-105.229789">
  <ele>1583.0</ele>
  <time>2026-08-28T17:53:11Z</time>
  <course>246.78</course>
  <speed>0.0</speed>
  <fix>3d</fix>
</trkpt>
<trkpt lat="40.0713749" lon="-105.229789">
  <ele>1583.0</ele>
  <time>2026-08-28T17:53:11Z</time>
  <course>0.0</course>
  <speed>0.0</speed>
  <fix>3d</fix>
</trkpt>
<trkpt lat="40.0713749" lon="-105.229789">
  <ele>1583.0</ele>
  <time>2026-08-28T17:53:11Z</time>
  <course>246.87</course>
  <speed>0.0</speed>
  <fix>3d</fix>
</trkpt>
<trkpt lat="40.0713749" lon="-105.229789">
  <ele>1583.0</ele>
  <time>2026-08-28T17:53:11Z</time>
  <course>0.0</course>
  <speed>0.0</speed>
  <fix>3d</fix>
</trkpt>
<trkpt lat="40.0713749" lon="-105.229789">
  <ele>1583.0</ele>
  <time>2026-08-28T17:53:11Z</time>
  <course>246.95</course>
  <speed>0.0</speed>
  <fix>3d</fix>
</trkpt>
<trkpt lat="40.0713749" lon="-105.229789">
  <ele>1583.0</ele>
  <time>2026-08-28T17:53:11Z</time>
  <course>0.0</course>
  <speed>0.0</speed>
  <fix>3d</fix>
</trkpt>
<trkpt lat="40.0713749" lon="-105.229789">
  <ele>1583.0</ele>
  <time>2026-08-28T17:53:11Z</time>
  <course>247.02</course>
  <speed>0.0</speed>
  <fix>3d</fix>
</trkpt>
<trkpt lat="40.0713749" lon="-105.229789">
  <ele>1583.0</ele>
  <time>2026-08-28T17:53:11Z</time>
  <course>0.0</course>
  <speed>0.0</speed>
  <fix>3d</fix>
</trkpt>
<trkpt lat="40.0713749" lon="-105.229789">
  <ele>1583.0</ele>
  <time>2026-08-28T17:53:11Z</time>
  <course>247.1</course>
  <speed>0.0</speed>
  <fix>3d</fix>
</trkpt>
<trkpt lat="40.0713749" lon="-105.229789">
  <ele>1583.0</ele>
  <time>2026-08-28T17:53:11Z</time>
  <course>0.0</course>
  <speed>0.0</speed>
  <fix>3d</fix>
</trkpt>
<trkpt lat="40.0713749" lon="-105.229789">
  <ele>1583.0</ele>
  <time>2026-08-28T17:53:11Z</time>
  <course>247.17</course>
  <speed>0.0</speed>
  <fix>3d</fix>
</trkpt>
<trkpt lat="40.0713749" lon="-105.229789">
  <ele>1583.0</ele>
  <time>2026-08-28T17:53:11Z</time>
  <course>0.0</course>
  <speed>0.0</speed>
  <fix>3d</fix>
</trkpt>
<trkpt lat="40.0713749" lon="-105.229789">
  <ele>1583.0</ele>
  <time>2026-08-28T17:53:11Z</time>
  <course>247.24</course>
  <speed>0.0</speed>
  <fix>3d</fix>
</trkpt>
<trkpt lat="40.0713749" lon="-105.229789">
  <ele>1583.0</ele>
  <time>2026-08-28T17:53:11Z</time>
  <course>0.0</course>
  <speed>0.0</speed>
  <fix>3d</fix>
</trkpt>
<trkpt lat="40.0713749" lon="-105.229789">
  <ele>1583.0</ele>
  <time>2026-08-28T17:53:11Z</time>
  <course>247.3</course>
  <speed>0.0</speed>
  <fix>3d</fix>
</trkpt>
<trkpt lat="40.0713749" lon="-105.229789">
  <ele>1583.0</ele>
  <time>2026-08-28T17:53:11Z</time>
  <course>0.0</course>
  <speed>0.0</speed>
  <fix>3d</fix>
</trkpt>
<trkpt lat="40.0713749" lon="-105.229789">
  <ele>1583.0</ele>
  <time>2026-08-28T17:53:11Z</time>
  <course>247.36</course>
  <speed>0.0</speed>
  <fix>3d</fix>
</trkpt>
<trkpt lat="40.0713749" lon="-105.229789">
  <ele>1583.0</ele>
  <time>2026-08-28T17:53:11Z</time>
  <course>0.0</course>
  <speed>0.0</speed>
  <fix>3d</fix>
</trkpt>
<trkpt lat="40.0713749" lon="-105.229789">
  <ele>1583.0</ele>
  <time>2026-08-28T17:53:11Z</time>
  <course>247.42</course>
  <speed>0.0</speed>
  <fix>3d</fix>
</trkpt>
<trkpt lat="40.0713749" lon="-105.229789">
  <ele>1583.0</ele>
  <time>2026-08-28T17:53:11Z</time>
  <course>0.0</course>
  <speed>0.0</speed>
  <fix>3d</fix>
</trkpt>
<trkpt lat="40.0713749" lon="-105.229789">
  <ele>1583.0</ele>
  <time>2026-08-28T17:53:11Z</time>
  <course>247.47</course>
  <speed>0.0</speed>
  <fix>3d</fix>
</trkpt>
<trkpt lat="40.0713749" lon="-105.229789">
  <ele>1583.0</ele>
  <time>2026-08-28T17:53:11Z</time>
  <course>0.0</course>
  <speed>0.0</speed>
  <fix>3d</fix>
</trkpt>
<trkpt lat="40.0713749" lon="-105.229789">
  <ele>1583.0</ele>
  <time>2026-08-28T17:53:11Z</time>
  <course>247.53</course>
  <speed>0.0</speed>
  <fix>3d</fix>
</trkpt>
<trkpt lat="40.0713749" lon="-105.229789">
  <ele>1583.0</ele>
  <time>2026-08-28T17:53:11Z</time>
  <course>0.0</course>
  <speed>0.0</speed>
  <fix>3d</fix>
</trkpt>
<trkpt lat="40.0713749" lon="-105.229789">
  <ele>1583.0</ele>
  <time>2026-08-28T17:53:11Z</time>
  <course>247.58</course>
  <speed>0.0</speed>
  <fix>3d</fix>
</trkpt>
<trkpt lat="40.0713749" lon="-105.229789">
  <ele>1583.0</ele>
  <time>2026-08-28T17:53:11Z</time>
  <course>0.0</course>
  <speed>0.0</speed>
  <fix>3d</fix>
</trkpt>
<trkpt lat="40.0713749" lon="-105.229789">
  <ele>1583.0</ele>
  <time>2026-08-28T17:53:11Z</time>
  <course>247.63</course>
  <speed>0.0</speed>
  <fix>3d</fix>
</trkpt>
<trkpt lat="40.0713749" lon="-105.229789">
  <ele>1583.0</ele>
  <time>2026-08-28T17:53:11Z</time>
  <course>0.0</course>
  <speed>0.0</speed>
  <fix>3d</fix>
</trkpt>
<trkpt lat="40.0713749" lon="-105.229789">
  <ele>1583.0</ele>
  <time>2026-08-28T17:53:11Z</time>
  <course>247.67</course>
  <speed>0.0</speed>
  <fix>3d</fix>
</trkpt>
<trkpt lat="40.0713749" lon="-105.229789">
  <ele>1583.0</ele>
  <time>2026-08-28T17:53:11Z</time>
  <course>0.0</course>
  <speed>0.0</speed>
  <fix>3d</fix>
</trkpt>
<trkpt lat="40.0713749" lon="-105.229789">
  <ele>1583.0</ele>
  <time>2026-08-28T17:53:11Z</time>
  <course>247.72</course>
  <speed>0.0</speed>
  <fix>3d</fix>
</trkpt>
<trkpt lat="40.0713749" lon="-105.229789">
  <ele>1583.0</ele>
  <time>2026-08-28T17:53:11Z</time>
  <course>0.0</course>
  <speed>0.0</speed>
  <fix>3d</fix>
</trkpt>
<trkpt lat="40.0713749" lon="-105.229789">
  <ele>1583.0</ele>
  <time>2026-08-28T17:53:11Z</time>
  <course>247.76</course>
  <speed>0.0</speed>
  <fix>3d</fix>
</trkpt>
<trkpt lat="40.0713749" lon="-105.229789">
  <ele>1583.0</ele>
  <time>2026-08-28T17:53:11Z</time>
  <course>0.0</course>
  <speed>0.0</speed>
  <fix>3d</fix>
</trkpt>
<trkpt lat="40.0713749" lon="-105.229789">
  <ele>1583.0</ele>
  <time>2026-08-28T17:53:11Z</time>
  <course>247.8</course>
  <speed>0.0</speed>
  <fix>3d</fix>
</trkpt>
<trkpt lat="40.0713749" lon="-105.229789">
  <ele>1583.0</ele>
  <time>2026-08-28T17:53:11Z</time>
  <course>0.0</course>
  <speed>0.0</speed>
  <fix>3d</fix>
</trkpt>
<trkpt lat="40.0713749" lon="-105.229789">
  <ele>1583.0</ele>
  <time>2026-08-28T17:53:11Z</time>
  <course>247.83</course>
  <speed>0.0</speed>
  <fix>3d</fix>
</trkpt>
<trkpt lat="40.0713749" lon="-105.229789">
  <ele>1583.0</ele>
  <time>2026-08-28T17:53:11Z</time>
  <course>0.0</course>
  <speed>0.0</speed>
  <fix>3d</fix>
</trkpt>
<trkpt lat="40.0713749" lon="-105.229789">
  <ele>1583.0</ele>
  <time>2026-08-28T17:53:11Z</time>
  <course>247.87</course>
  <speed>0.0</speed>
  <fix>3d</fix>
</trkpt>
<trkpt lat="40.0713749" lon="-105.229789">
  <ele>1583.0</ele>
  <time>2026-08-28T17:53:11Z</time>
  <course>0.0</course>
  <speed>0.0</speed>
  <fix>3d</fix>
</trkpt>
<trkpt lat="40.0713749" lon="-105.229789">
  <ele>1583.0</ele>
  <time>2026-08-28T17:53:11Z</time>
  <course>247.9</course>
  <speed>0.0</speed>
  <fix>3d</fix>
</trkpt>
<trkpt lat="40.0713749" lon="-105.229789">
  <ele>1583.0</ele>
  <time>2026-08-28T17:53:11Z</time>
  <course>0.0</course>
  <speed>0.0</speed>
  <fix>3d</fix>
</trkpt>
<trkpt lat="40.0713749" lon="-105.229789">
  <ele>1583.0</ele>
  <time>2026-08-28T17:53:11Z</time>
  <course>247.94</course>
  <speed>0.0</speed>
  <fix>3d</fix>
</trkpt>
<trkpt lat="40.0713749" lon="-105.229789">
  <ele>1583.0</ele>
  <time>2026-08-28T17:53:11Z</time>
  <course>0.0</course>
  <speed>0.0</speed>
  <fix>3d</fix>
</trkpt>
<trkpt lat="40.0713749" lon="-105.229789">
  <ele>1583.0</ele>
  <time>2026-08-28T17:53:11Z</time>
  <course>247.97</course>
  <speed>0.0</speed>
  <fix>3d</fix>
</trkpt>
<trkpt lat="40.0713749" lon="-105.229789">
  <ele>1583.0</ele>
  <time>2026-08-28T17:53:11Z</time>
  <course>0.0</course>
  <speed>0.0</speed>
  <fix>3d</fix>
</trkpt>
<trkpt lat="40.0713749" lon="-105.229789">
  <ele>1583.0</ele>
  <time>2026-08-28T17:53:11Z</time>
  <course>248.0</course>
  <speed>0.0</speed>
  <fix>3d</fix>
</trkpt>
<trkpt lat="40.0713749" lon="-105.229789">
  <ele>1583.0</ele>
  <time>2026-08-28T17:53:11Z</time>
  <course>0.0</course>
  <speed>0.0</speed>
  <fix>3d</fix>
</trkpt>
<trkpt lat="40.0713749" lon="-105.229789">
  <ele>1583.0</ele>
  <time>2026-08-28T17:53:11Z</time>
  <course>248.02</course>
  <speed>0.0</speed>
  <fix>3d</fix>
</trkpt>
<trkpt lat="40.0713749" lon="-105.229789">
  <ele>1583.0</ele>
  <time>2026-08-28T17:53:11Z</time>
  <course>0.0</course>
  <speed>0.0</speed>
  <fix>3d</fix>
</trkpt>
<trkpt lat="40.0713749" lon="-105.229789">
  <ele>1583.0</ele>
  <time>2026-08-28T17:53:11Z</time>
  <course>248.05</course>
  <speed>0.0</speed>
  <fix>3d</fix>
</trkpt>
<trkpt lat="40.0713749" lon="-105.229789">
  <ele>1583.0</ele>
  <time>2026-08-28T17:53:11Z</time>
  <course>0.0</course>
  <speed>0.0</speed>
  <fix>3d</fix>
</trkpt>
<trkpt lat="40.0713749" lon="-105.229789">
  <ele>1583.0</ele>
  <time>2026-08-28T17:53:11Z</time>
  <course>248.08</course>
  <speed>0.0</speed>
  <fix>3d</fix>
</trkpt>
<trkpt lat="40.0713749" lon="-105.229789">
  <ele>1583.0</ele>
  <time>2026-08-28T17:53:11Z</time>
  <course>0.0</course>
  <speed>0.0</speed>
  <fix>3d</fix>
</trkpt>
<trkpt lat="40.0713749" lon="-105.229789">
  <ele>1583.0</ele>
  <time>2026-08-28T17:53:11Z</time>
  <course>248.1</course>
  <speed>0.0</speed>
  <fix>3d</fix>
</trkpt>
<trkpt lat="40.0713749" lon="-105.229789">
  <ele>1583.0</ele>
  <time>2026-08-28T17:53:11Z</time>
  <course>0.0</course>
  <speed>0.0</speed>
  <fix>3d</fix>
</trkpt>
<trkpt lat="40.0713749" lon="-105.229789">
  <ele>1583.0</ele>
  <time>2026-08-28T17:53:11Z</time>
  <course>248.12</course>
  <speed>0.0</speed>
  <fix>3d</fix>
</trkpt>
<trkpt lat="40.0713749" lon="-105.229789">
  <ele>1583.0</ele>
  <time>2026-08-28T17:53:11Z</time>
  <course>0.0</course>
  <speed>0.0</speed>
  <fix>3d</fix>
</trkpt>
<trkpt lat="40.0713749" lon="-105.229789">
  <ele>1583.0</ele>
  <time>2026-08-28T17:53:11Z</time>
  <course>248.14</course>
  <speed>0.0</speed>
  <fix>3d</fix>
</trkpt>
<trkpt lat="40.0713749" lon="-105.229789">
  <ele>1583.0</ele>
  <time>2026-08-28T17:53:11Z</time>
  <course>0.0</course>
  <speed>0.0</speed>
  <fix>3d</fix>
</trkpt>
<trkpt lat="40.0713749" lon="-105.229789">
  <ele>1583.0</ele>
  <time>2026-08-28T17:53:11Z</time>
  <course>248.16</course>
  <speed>0.0</speed>
  <fix>3d</fix>
</trkpt>
<trkpt lat="40.0713749" lon="-105.229789">
  <ele>1583.0</ele>
  <time>2026-08-28T17:53:11Z</time>
  <course>0.0</course>
  <speed>0.0</speed>
  <fix>3d</fix>
</trkpt>
<trkpt lat="40.0713749" lon="-105.229789">
  <ele>1583.0</ele>
  <time>2026-08-28T17:53:11Z</time>
  <course>248.18</course>
  <speed>0.0</speed>
  <fix>3d</fix>
</trkpt>
<trkpt lat="40.0713749" lon="-105.229789">
  <ele>1583.0</ele>
  <time>2026-08-28T17:53:11Z</time>
  <course>0.0</course>
  <speed>0.0</speed>
  <fix>3d</fix>
</trkpt>
<trkpt lat="40.0713749" lon="-105.229789">
  <ele>1583.0</ele>
  <time>2026-08-28T17:53:11Z</time>
  <course>248.2</course>
  <speed>0.0</speed>
  <fix>3d</fix>
</trkpt>
<trkpt lat="40.0713749" lon="-105.229789">
  <ele>1583.0</ele>
  <time>2026-08-28T17:53:11Z</time>
  <course>0.0</course>
  <speed>0.0</speed>
  <fix>3d</fix>
</trkpt>
<trkpt lat="40.0713749" lon="-105.229789">
  <ele>1583.0</ele>
  <time>2026-08-28T17:53:11Z</time>
  <course>248.22</course>
  <speed>0.0</speed>
  <fix>3d</fix>
</trkpt>
<trkpt lat="40.0713749" lon="-105.229789">
  <ele>1583.0</ele>
  <time>2026-08-28T17:53:11Z</time>
  <course>0.0</course>
  <speed>0.0</speed>
  <fix>3d</fix>
</trkpt>
<trkpt lat="40.0713749" lon="-105.229789">
  <ele>1583.0</ele>
  <time>2026-08-28T17:53:11Z</time>
  <course>248.23</course>
  <speed>0.0</speed>
  <fix>3d</fix>
</trkpt>
<trkpt lat="40.0713749" lon="-105.229789">
  <ele>1583.0</ele>
  <time>2026-08-28T17:53:11Z</time>
  <course>0.0</course>
  <speed>0.0</speed>
  <fix>3d</fix>
</trkpt>
<trkpt lat="40.0713749" lon="-105.229789">
  <ele>1583.0</ele>
  <time>2026-08-28T17:53:11Z</time>
  <course>248.25</course>
  <speed>0.0</speed>
  <fix>3d</fix>
</trkpt>
<trkpt lat="40.0713749" lon="-105.229789">
  <ele>1583.0</ele>
  <time>2026-08-28T17:53:11Z</time>
  <course>0.0</course>
  <speed>0.0</speed>
  <fix>3d</fix>
</trkpt>
<trkpt lat="40.0713749" lon="-105.229789">
  <ele>1583.0</ele>
  <time>2026-08-28T17:53:11Z</time>
  <course>248.26</course>
  <speed>0.0</speed>
  <fix>3d</fix>
</trkpt>
<trkpt lat="40.0713749" lon="-105.229789">
  <ele>1583.0</ele>
  <time>2026-08-28T17:53:11Z</time>
  <course>0.0</course>
  <speed>0.0</speed>
  <fix>3d</fix>
</trkpt>
<trkpt lat="40.0713749" lon="-105.229789">
  <ele>1583.0</ele>
  <time>2026-08-28T17:53:11Z</time>
  <course>248.28</course>
  <speed>0.0</speed>
  <fix>3d</fix>
</trkpt>
<trkpt lat="40.0713749" lon="-105.229789">
  <ele>1583.0</ele>
  <time>2026-08-28T17:53:11Z</time>
  <course>0.0</course>
  <speed>0.0</speed>
  <fix>3d</fix>
</trkpt>
<trkpt lat="40.0713749" lon="-105.229789">
  <ele>1583.0</ele>
  <time>2026-08-28T17:53:11Z</time>
  <course>248.29</course>
  <speed>0.0</speed>
  <fix>3d</fix>
</trkpt>
<trkpt lat="40.0713749" lon="-105.229789">
  <ele>1583.0</ele>
  <time>2026-08-28T17:53:11Z</time>
  <course>0.0</course>
  <speed>0.0</speed>
  <fix>3d</fix>
</trkpt>
<trkpt lat="40.0713749" lon="-105.229789">
  <ele>1583.0</ele>
  <time>2026-08-28T17:53:11Z</time>
  <course>248.3</course>
  <speed>0.0</speed>
  <fix>3d</fix>
</trkpt>
<trkpt lat="40.0713749" lon="-105.229789">
  <ele>1583.0</ele>
  <time>2026-08-28T17:53:11Z</time>
  <course>0.0</course>
  <speed>0.0</speed>
  <fix>3d</fix>
</trkpt>
<trkpt lat="40.0713749" lon="-105.229789">
  <ele>1583.0</ele>
  <time>2026-08-28T17:53:11Z</time>
  <course>248.31</course>
  <speed>0.0</speed>
  <fix>3d</fix>
</trkpt>
<trkpt lat="40.0713749" lon="-105.229789">
  <ele>1583.0</ele>
  <time>2026-08-28T17:53:11Z</time>
  <course>0.0</course>
  <speed>0.0</speed>
  <fix>3d</fix>
</trkpt>
<trkpt lat="40.0713749" lon="-105.229789">
  <ele>1583.0</ele>
  <time>2026-08-28T17:53:11Z</time>
  <course>248.32</course>
  <speed>0.0</speed>
  <fix>3d</fix>
</trkpt>
<trkpt lat="40.0713749" lon="-105.229789">
  <ele>1583.0</ele>
  <time>2026-08-28T17:53:11Z</time>
  <course>0.0</course>
  <speed>0.0</speed>
  <fix>3d</fix>
</trkpt>
<trkpt lat="40.0713749" lon="-105.229789">
  <ele>1583.0</ele>
  <time>2026-08-28T17:53:11Z</time>
  <course>248.33</course>
  <speed>0.0</speed>
  <fix>3d</fix>
</trkpt>
<trkpt lat="40.0713749" lon="-105.229789">
  <ele>1583.0</ele>
  <time>2026-08-28T17:53:11Z</time>
  <course>0.0</course>
  <speed>0.0</speed>
  <fix>3d</fix>
</trkpt>
<trkpt lat="40.0713749" lon="-105.229789">
  <ele>1583.0</ele>
  <time>2026-08-28T17:53:11Z</time>
  <course>248.34</course>
  <speed>0.0</speed>
  <fix>3d</fix>
</trkpt>
<trkpt lat="40.0713749" lon="-105.229789">
  <ele>1583.0</ele>
  <time>2026-08-28T17:53:11Z</time>
  <course>0.0</course>
  <speed>0.0</speed>
  <fix>3d</fix>
</trkpt>
<trkpt lat="40.0713749" lon="-105.229789">
  <ele>1583.0</ele>
  <time>2026-08-28T17:53:11Z</time>
  <course>248.35</course>
  <speed>0.0</speed>
  <fix>3d</fix>
</trkpt>
<trkpt lat="40.0713749" lon="-105.229789">
  <ele>1583.0</ele>
  <time>2026-08-28T17:53:11Z</time>
  <course>0.0</course>
  <speed>0.0</speed>
  <fix>3d</fix>
</trkpt>
<trkpt lat="40.0713749" lon="-105.229789">
  <ele>1583.0</ele>
  <time>2026-08-28T17:53:11Z</time>
  <course>248.35</course>
  <speed>0.0</speed>
  <fix>3d</fix>
</trkpt>
<trkpt lat="40.0713749" lon="-105.229789">
  <ele>1583.0</ele>
  <time>2026-08-28T17:53:11Z</time>
  <course>0.0</course>
  <speed>0.0</speed>
  <fix>3d</fix>
</trkpt>
<trkpt lat="40.0713749" lon="-105.229789">
  <ele>1583.0</ele>
  <time>2026-08-28T17:53:11Z</time>
  <course>248.36</course>
  <speed>0.0</speed>
  <fix>3d</fix>
</trkpt>
<trkpt lat="40.0713749" lon="-105.229789">
  <ele>1583.0</ele>
  <time>2026-08-28T17:53:11Z</time>
  <course>0.0</course>
  <speed>0.0</speed>
  <fix>3d</fix>
</trkpt>
<trkpt lat="40.0713749" lon="-105.229789">
  <ele>1583.0</ele>
  <time>2026-08-28T17:53:11Z</time>
  <course>248.37</course>
  <speed>0.0</speed>
  <fix>3d</fix>
</trkpt>
<trkpt lat="40.0713749" lon="-105.229789">
  <ele>1583.0</ele>
  <time>2026-08-28T17:53:11Z</time>
  <course>0.0</course>
  <speed>0.0</speed>
  <fix>3d</fix>
</trkpt>
<trkpt lat="40.0713749" lon="-105.229789">
  <ele>1583.0</ele>
  <time>2026-08-28T17:53:11Z</time>
  <course>248.37</course>
  <speed>0.0</speed>
  <fix>3d</fix>
</trkpt>
<trkpt lat="40.0713749" lon="-105.229789">
  <ele>1583.0</ele>
  <time>2026-08-28T17:53:11Z</time>
  <course>0.0</course>
  <speed>0.0</speed>
  <fix>3d</fix>
</trkpt>
<trkpt lat="40.0713749" lon="-105.229789">
  <ele>1583.0</ele>
  <time>2026-08-28T17:53:11Z</time>
  <course>248.38</course>
  <speed>0.0</speed>
  <fix>3d</fix>
</trkpt>
<trkpt lat="40.0713749" lon="-105.229789">
  <ele>1583.0</ele>
  <time>2026-08-28T17:53:11Z</time>
  <course>0.0</course>
  <speed>0.0</speed>
  <fix>3d</fix>
</trkpt>
<trkpt lat="40.0713749" lon="-105.229789">
  <ele>1583.0</ele>
  <time>2026-08-28T17:53:11Z</time>
  <course>248.38</course>
  <speed>0.0</speed>
  <fix>3d</fix>
</trkpt>
<trkpt lat="40.0713749" lon="-105.229789">
  <ele>1583.0</ele>
  <time>2026-08-28T17:53:11Z</time>
  <course>0.0</course>
  <speed>0.0</speed>
  <fix>3d</fix>
</trkpt>
<trkpt lat="40.0713749" lon="-105.229789">
  <ele>1583.0</ele>
  <time>2026-08-28T17:53:11Z</time>
  <course>248.39</course>
  <speed>0.0</speed>
  <fix>3d</fix>
</trkpt>
<trkpt lat="40.0713749" lon="-105.229789">
  <ele>1583.0</ele>
  <time>2026-08-28T17:53:11Z</time>
  <course>0.0</course>
  <speed>0.0</speed>
  <fix>3d</fix>
</trkpt>
<trkpt lat="40.0713749" lon="-105.229789">
  <ele>1583.0</ele>
  <time>2026-08-28T17:53:11Z</time>
  <course>248.39</course>
  <speed>0.0</speed>
  <fix>3d</fix>
</trkpt>
<trkpt lat="40.0713749" lon="-105.229789">
  <ele>1583.0</ele>
  <time>2026-08-28T17:53:11Z</time>
  <course>0.0</course>
  <speed>0.0</speed>
  <fix>3d</fix>
</trkpt>
<trkpt lat="40.0713749" lon="-105.229789">
  <ele>1583.0</ele>
  <time>2026-08-28T17:53:11Z</time>
  <course>248.4</course>
  <speed>0.0</speed>
  <fix>3d</fix>
</trkpt>
<trkpt lat="40.0713749" lon="-105.229789">
  <ele>1583.0</ele>
  <time>2026-08-28T17:53:11Z</time>
  <course>0.0</course>
  <speed>0.0</speed>
  <fix>3d</fix>
</trkpt>
<trkpt lat="40.0713749" lon="-105.229789">
  <ele>1583.0</ele>
  <time>2026-08-28T17:53:11Z</time>
  <course>248.4</course>
  <speed>0.0</speed>
  <fix>3d</fix>
</trkpt>
<trkpt lat="40.0713749" lon="-105.229789">
  <ele>1583.0</ele>
  <time>2026-08-28T17:53:11Z</time>
  <course>0.0</course>
  <speed>0.0</speed>
  <fix>3d</fix>
</trkpt>
<trkpt lat="40.0713749" lon="-105.229789">
  <ele>1583.0</ele>
  <time>2026-08-28T17:53:11Z</time>
  <course>248.4</course>
  <speed>0.0</speed>
  <fix>3d</fix>
</trkpt>
<trkpt lat="40.0713749" lon="-105.229789">
  <ele>1583.0</ele>
  <time>2026-08-28T17:53:11Z</time>
  <course>0.0</course>
  <speed>0.0</speed>
  <fix>3d</fix>
</trkpt>
<trkpt lat="40.0713749" lon="-105.229789">
  <ele>1583.0</ele>
  <time>2026-08-28T17:53:11Z</time>
  <course>248.4</course>
  <speed>0.0</speed>
  <fix>3d</fix>
</trkpt>
<trkpt lat="40.0713749" lon="-105.229789">
  <ele>1583.0</ele>
  <time>2026-08-28T17:53:11Z</time>
  <course>0.0</course>
  <speed>0.0</speed>
  <fix>3d</fix>
</trkpt>
<trkpt lat="40.0713749" lon="-105.229789">
  <ele>1583.0</ele>
  <time>2026-08-28T17:53:11Z</time>
  <course>248.41</course>
  <speed>0.0</speed>
  <fix>3d</fix>
</trkpt>
<trkpt lat="40.0713749" lon="-105.229789">
  <ele>1583.0</ele>
  <time>2026-08-28T17:53:11Z</time>
  <course>0.0</course>
  <speed>0.0</speed>
  <fix>3d</fix>
</trkpt>
<trkpt lat="40.0713749" lon="-105.229789">
  <ele>1583.0</ele>
  <time>2026-08-28T17:53:11Z</time>
  <course>248.41</course>
  <speed>0.0</speed>
  <fix>3d</fix>
</trkpt>
<trkpt lat="40.0713749" lon="-105.229789">
  <ele>1583.0</ele>
  <time>2026-08-28T17:53:11Z</time>
  <course>0.0</course>
  <speed>0.0</speed>
  <fix>3d</fix>
</trkpt>
<trkpt lat="40.0713749" lon="-105.229789">
  <ele>1583.0</ele>
  <time>2026-08-28T17:53:11Z</time>
  <course>248.41</course>
  <speed>0.0</speed>
  <fix>3d</fix>
</trkpt>
<trkpt lat="40.0713749" lon="-105.229789">
  <ele>1583.0</ele>
  <time>2026-08-28T17:53:11Z</time>
  <course>0.0</course>
  <speed>0.0</speed>
  <fix>3d</fix>
</trkpt>
<trkpt lat="40.0713749" lon="-105.229789">
  <ele>1583.0</ele>
  <time>2026-08-28T17:53:11Z</time>
  <course>248.41</course>
  <speed>0.0</speed>
  <fix>3d</fix>
</trkpt>
<trkpt lat="40.0713749" lon="-105.229789">
  <ele>1583.0</ele>
  <time>2026-08-28T17:53:11Z</time>
  <course>0.0</course>
  <speed>0.0</speed>
  <fix>3d</fix>
</trkpt>
<trkpt lat="40.0713749" lon="-105.229789">
  <ele>1583.0</ele>
  <time>2026-08-28T17:53:11Z</time>
  <course>248.41</course>
  <speed>0.0</speed>
  <fix>3d</fix>
</trkpt>
<trkpt lat="40.0713749" lon="-105.229789">
  <ele>1583.0</ele>
  <time>2026-08-28T17:53:11Z</time>
  <course>0.0</course>
  <speed>0.0</speed>
  <fix>3d</fix>
</trkpt>
<trkpt lat="40.0713749" lon="-105.229789">
  <ele>1583.0</ele>
  <time>2026-08-28T17:53:11Z</time>
  <course>248.41</course>
  <speed>0.0</speed>
  <fix>3d</fix>
</trkpt>
<trkpt lat="40.0713749" lon="-105.229789">
  <ele>1583.0</ele>
  <time>2026-08-28T17:53:11Z</time>
  <course>0.0</course>
  <speed>0.0</speed>
  <fix>3d</fix>
</trkpt>
<trkpt lat="40.0713749" lon="-105.229789">
  <ele>1583.0</ele>
  <time>2026-08-28T17:53:11Z</time>
  <course>248.41</course>
  <speed>0.0</speed>
  <fix>3d</fix>
</trkpt>
<trkpt lat="40.0713749" lon="-105.229789">
  <ele>1583.0</ele>
  <time>2026-08-28T17:53:11Z</time>
  <course>0.0</course>
  <speed>0.0</speed>
  <fix>3d</fix>
</trkpt>
<trkpt lat="40.0713749" lon="-105.229789">
  <ele>1583.0</ele>
  <time>2026-08-28T17:53:11Z</time>
  <course>248.41</course>
  <speed>0.0</speed>
  <fix>3d</fix>
</trkpt>
<trkpt lat="40.0713749" lon="-105.229789">
  <ele>1583.0</ele>
  <time>2026-08-28T17:53:11Z</time>
  <course>0.0</course>
  <speed>0.0</speed>
  <fix>3d</fix>
</trkpt>
<trkpt lat="40.0713749" lon="-105.229789">
  <ele>1583.0</ele>
  <time>2026-08-28T17:53:11Z</time>
  <course>248.41</course>
  <speed>0.0</speed>
  <fix>3d</fix>
</trkpt>
<trkpt lat="40.0713749" lon="-105.229789">
  <ele>1583.0</ele>
  <time>2026-08-28T17:53:11Z</time>
  <course>0.0</course>
  <speed>0.0</speed>
  <fix>3d</fix>
</trkpt>
<trkpt lat="40.0713749" lon="-105.229789">
  <ele>1583.0</ele>
  <time>2026-08-28T17:53:11Z</time>
  <course>248.41</course>
  <speed>0.0</speed>
  <fix>3d</fix>
</trkpt>
<trkpt lat="40.0713749" lon="-105.229789">
  <ele>1583.0</ele>
  <time>2026-08-28T17:53:11Z</time>
  <course>0.0</course>
  <speed>0.0</speed>
  <fix>3d</fix>
</trkpt>
<trkpt lat="40.0713749" lon="-105.229789">
  <ele>1583.0</ele>
  <time>2026-08-28T17:53:11Z</time>
  <course>248.41</course>
  <speed>0.0</speed>
  <fix>3d</fix>
</trkpt>
<trkpt lat="40.0713749" lon="-105.229789">
  <ele>1583.0</ele>
  <time>2026-08-28T17:53:11Z</time>
  <course>0.0</course>
  <speed>0.0</speed>
  <fix>3d</fix>
</trkpt>
<trkpt lat="40.0713749" lon="-105.229789">
  <ele>1583.0</ele>
  <time>2026-08-28T17:53:11Z</time>
  <course>248.41</course>
  <speed>0.0</speed>
  <fix>3d</fix>
</trkpt>
<trkpt lat="40.0713749" lon="-105.229789">
  <ele>1583.0</ele>
  <time>2026-08-28T17:53:11Z</time>
  <course>0.0</course>
  <speed>0.0</speed>
  <fix>3d</fix>
</trkpt>
<trkpt lat="40.0713749" lon="-105.229789">
  <ele>1583.0</ele>
  <time>2026-08-28T17:53:11Z</time>
  <course>248.41</course>
  <speed>0.0</speed>
  <fix>3d</fix>
</trkpt>
<trkpt lat="40.0713749" lon="-105.229789">
  <ele>1583.0</ele>
  <time>2026-08-28T17:53:11Z</time>
  <course>0.0</course>
  <speed>0.0</speed>
  <fix>3d</fix>
</trkpt>
<trkpt lat="40.0713749" lon="-105.229789">
  <ele>1583.0</ele>
  <time>2026-08-28T17:53:11Z</time>
  <course>248.41</course>
  <speed>0.0</speed>
  <fix>3d</fix>
</trkpt>
<trkpt lat="40.0713749" lon="-105.229789">
  <ele>1583.0</ele>
  <time>2026-08-28T17:53:11Z</time>
  <course>0.0</course>
  <speed>0.0</speed>
  <fix>3d</fix>
</trkpt>
<trkpt lat="40.0713749" lon="-105.229789">
  <ele>1583.0</ele>
  <time>2026-08-28T17:53:11Z</time>
  <course>248.41</course>
  <speed>0.0</speed>
  <fix>3d</fix>
</trkpt>
<trkpt lat="40.0713749" lon="-105.229789">
  <ele>1583.0</ele>
  <time>2026-08-28T17:53:11Z</time>
  <course>0.0</course>
  <speed>0.0</speed>
  <fix>3d</fix>
</trkpt>
<trkpt lat="40.0713749" lon="-105.229789">
  <ele>1583.0</ele>
  <time>2026-08-28T17:53:11Z</time>
  <course>248.41</course>
  <speed>0.0</speed>
  <fix>3d</fix>
</trkpt>
<trkpt lat="40.0713749" lon="-105.229789">
  <ele>1583.0</ele>
  <time>2026-08-28T17:53:11Z</time>
  <course>0.0</course>
  <speed>0.0</speed>
  <fix>3d</fix>
</trkpt>
<trkpt lat="40.0713749" lon="-105.229789">
  <ele>1583.0</ele>
  <time>2026-08-28T17:53:11Z</time>
  <course>248.4</course>
  <speed>0.0</speed>
  <fix>3d</fix>
</trkpt>
<trkpt lat="40.0713749" lon="-105.229789">
  <ele>1583.0</ele>
  <time>2026-08-28T17:53:11Z</time>
  <course>0.0</course>
  <speed>0.0</speed>
  <fix>3d</fix>
</trkpt>
<trkpt lat="40.0713749" lon="-105.229789">
  <ele>1583.0</ele>
  <time>2026-08-28T17:53:11Z</time>
  <course>248.4</course>
  <speed>0.01</speed>
  <fix>3d</fix>
</trkpt>
<trkpt lat="40.0713749" lon="-105.229789">
  <ele>1583.0</ele>
  <time>2026-08-28T17:53:11Z</time>
  <course>0.0</course>
  <speed>0.0</speed>
  <fix>3d</fix>
</trkpt>
<trkpt lat="40.0713749" lon="-105.229789">
  <ele>1583.0</ele>
  <time>2026-08-28T17:53:11Z</time>
  <course>248.4</course>
  <speed>0.01</speed>
  <fix>3d</fix>
</trkpt>
<trkpt lat="40.0713749" lon="-105.229789">
  <ele>1583.0</ele>
  <time>2026-08-28T17:53:11Z</time>
  <course>0.0</course>
  <speed>0.0</speed>
  <fix>3d</fix>
</trkpt>
<trkpt lat="40.0713749" lon="-105.229789">
  <ele>1583.0</ele>
  <time>2026-08-28T17:53:11Z</time>
  <course>248.4</course>
  <speed>0.01</speed>
  <fix>3d</fix>
</trkpt>
<trkpt lat="40.0713749" lon="-105.229789">
  <ele>1583.0</ele>
  <time>2026-08-28T17:53:11Z</time>
  <course>0.0</course>
  <speed>0.0</speed>
  <fix>3d</fix>
</trkpt>
<trkpt lat="40.0713749" lon="-105.229789">
  <ele>1583.0</ele>
  <time>2026-08-28T17:53:11Z</time>
  <course>248.4</course>
  <speed>0.01</speed>
  <fix>3d</fix>
</trkpt>
<trkpt lat="40.0713749" lon="-105.229789">
  <ele>1583.0</ele>
  <time>2026-08-28T17:53:11Z</time>
  <course>0.0</course>
  <speed>0.0</speed>
  <fix>3d</fix>
</trkpt>
<trkpt lat="40.0713749" lon="-105.229789">
  <ele>1583.0</ele>
  <time>2026-08-28T17:53:11Z</time>
  <course>248.39</course>
  <speed>0.01</speed>
  <fix>3d</fix>
</trkpt>
<trkpt lat="40.0713749" lon="-105.229789">
  <ele>1583.0</ele>
  <time>2026-08-28T17:53:11Z</time>
  <course>0.0</course>
  <speed>0.0</speed>
  <fix>3d</fix>
</trkpt>
<trkpt lat="40.0713749" lon="-105.229789">
  <ele>1583.0</ele>
  <time>2026-08-28T17:53:11Z</time>
  <course>248.39</course>
  <speed>0.01</speed>
  <fix>3d</fix>
</trkpt>
<trkpt lat="40.0713749" lon="-105.229789">
  <ele>1583.0</ele>
  <time>2026-08-28T17:53:11Z</time>
  <course>0.0</course>
  <speed>0.0</speed>
  <fix>3d</fix>
</trkpt>
<trkpt lat="40.0713749" lon="-105.229789">
  <ele>1583.0</ele>
  <time>2026-08-28T17:53:11Z</time>
  <course>248.39</course>
  <speed>0.01</speed>
  <fix>3d</fix>
</trkpt>
<trkpt lat="40.0713749" lon="-105.229789">
  <ele>1583.0</ele>
  <time>2026-08-28T17:53:11Z</time>
  <course>0.0</course>
  <speed>0.0</speed>
  <fix>3d</fix>
</trkpt>
<trkpt lat="40.0713749" lon="-105.229789">
  <ele>1583.0</ele>
  <time>2026-08-28T17:53:11Z</time>
  <course>248.38</course>
  <speed>0.01</speed>
  <fix>3d</fix>
</trkpt>
<trkpt lat="40.0713749" lon="-105.229789">
  <ele>1583.0</ele>
  <time>2026-08-28T17:53:11Z</time>
  <course>0.0</course>
  <speed>0.0</speed>
  <fix>3d</fix>
</trkpt>
<trkpt lat="40.0713749" lon="-105.229789">
  <ele>1583.0</ele>
  <time>2026-08-28T17:53:11Z</time>
  <course>248.38</course>
  <speed>0.01</speed>
  <fix>3d</fix>
</trkpt>
<trkpt lat="40.0713749" lon="-105.229789">
  <ele>1583.0</ele>
  <time>2026-08-28T17:53:11Z</time>
  <course>0.0</course>
  <speed>0.0</speed>
  <fix>3d</fix>
</trkpt>
<trkpt lat="40.0713749" lon="-105.229789">
  <ele>1583.0</ele>
  <time>2026-08-28T17:53:11Z</time>
  <course>248.38</course>
  <speed>0.01</speed>
  <fix>3d</fix>
</trkpt>
<trkpt lat="40.0713749" lon="-105.229789">
  <ele>1583.0</ele>
  <time>2026-08-28T17:53:11Z</time>
  <course>0.0</course>
  <speed>0.0</speed>
  <fix>3d</fix>
</trkpt>
<trkpt lat="40.0713749" lon="-105.229789">
  <ele>1583.0</ele>
  <time>2026-08-28T17:53:11Z</time>
  <course>248.37</course>
  <speed>0.01</speed>
  <fix>3d</fix>
</trkpt>
<trkpt lat="40.0713749" lon="-105.229789">
  <ele>1583.0</ele>
  <time>2026-08-28T17:53:11Z</time>
  <course>0.0</course>
  <speed>0.0</speed>
  <fix>3d</fix>
</trkpt>
<trkpt lat="40.0713749" lon="-105.229789">
  <ele>1583.0</ele>
  <time>2026-08-28T17:53:11Z</time>
  <course>248.37</course>
  <speed>0.01</speed>
  <fix>3d</fix>
</trkpt>
<trkpt lat="40.0713749" lon="-105.229789">
  <ele>1583.0</ele>
  <time>2026-08-28T17:53:11Z</time>
  <course>0.0</course>
  <speed>0.0</speed>
  <fix>3d</fix>
</trkpt>
<trkpt lat="40.0713749" lon="-105.229789">
  <ele>1583.0</ele>
  <time>2026-08-28T17:53:11Z</time>
  <course>248.37</course>
  <speed>0.01</speed>
  <fix>3d</fix>
</trkpt>
<trkpt lat="40.0713749" lon="-105.229789">
  <ele>1583.0</ele>
  <time>2026-08-28T17:53:11Z</time>
  <course>0.0</course>
  <speed>0.0</speed>
  <fix>3d</fix>
</trkpt>
<trkpt lat="40.0713749" lon="-105.229789">
  <ele>1583.0</ele>
  <time>2026-08-28T17:53:11Z</time>
  <course>248.36</course>
  <speed>0.01</speed>
  <fix>3d</fix>
</trkpt>
<trkpt lat="40.0713749" lon="-105.229789">
  <ele>1583.0</ele>
  <time>2026-08-28T17:53:11Z</time>
  <course>0.0</course>
  <speed>0.0</speed>
  <fix>3d</fix>
</trkpt>
<trkpt lat="40.0713749" lon="-105.229789">
  <ele>1583.0</ele>
  <time>2026-08-28T17:53:11Z</time>
  <course>248.36</course>
  <speed>0.01</speed>
  <fix>3d</fix>
</trkpt>
<trkpt lat="40.0713749" lon="-105.229789">
  <ele>1583.0</ele>
  <time>2026-08-28T17:53:11Z</time>
  <course>0.0</course>
  <speed>0.0</speed>
  <fix>3d</fix>
</trkpt>
<trkpt lat="40.0713749" lon="-105.229789">
  <ele>1583.0</ele>
  <time>2026-08-28T17:53:11Z</time>
  <course>248.36</course>
  <speed>0.01</speed>
  <fix>3d</fix>
</trkpt>
<trkpt lat="40.0713749" lon="-105.229789">
  <ele>1583.0</ele>
  <time>2026-08-28T17:53:11Z</time>
  <course>0.0</course>
  <speed>0.0</speed>
  <fix>3d</fix>
</trkpt>
<trkpt lat="40.0713749" lon="-105.229789">
  <ele>1583.0</ele>
  <time>2026-08-28T17:53:11Z</time>
  <course>248.35</course>
  <speed>0.01</speed>
  <fix>3d</fix>
</trkpt>
<trkpt lat="40.0713749" lon="-105.229789">
  <ele>1583.0</ele>
  <time>2026-08-28T17:53:11Z</time>
  <course>0.0</course>
  <speed>0.0</speed>
  <fix>3d</fix>
</trkpt>
<trkpt lat="40.0713749" lon="-105.229789">
  <ele>1583.0</ele>
  <time>2026-08-28T17:53:11Z</time>
  <course>248.35</course>
  <speed>0.01</speed>
  <fix>3d</fix>
</trkpt>
<trkpt lat="40.0713749" lon="-105.229789">
  <ele>1583.0</ele>
  <time>2026-08-28T17:53:11Z</time>
  <course>0.0</course>
  <speed>0.0</speed>
  <fix>3d</fix>
</trkpt>
<trkpt lat="40.0713749" lon="-105.229789">
  <ele>1583.0</ele>
  <time>2026-08-28T17:53:11Z</time>
  <course>248.35</course>
  <speed>0.01</speed>
  <fix>3d</fix>
</trkpt>
<trkpt lat="40.0713749" lon="-105.229789">
  <ele>1583.0</ele>
  <time>2026-08-28T17:53:11Z</time>
  <course>0.0</course>
  <speed>0.0</speed>
  <fix>3d</fix>
</trkpt>
<trkpt lat="40.0713749" lon="-105.229789">
  <ele>1583.0</ele>
  <time>2026-08-28T17:53:11Z</time>
  <course>248.34</course>
  <speed>0.01</speed>
  <fix>3d</fix>
</trkpt>
<trkpt lat="40.0713749" lon="-105.229789">
  <ele>1583.0</ele>
  <time>2026-08-28T17:53:11Z</time>
  <course>0.0</course>
  <speed>0.0</speed>
  <fix>3d</fix>
</trkpt>
<trkpt lat="40.0713749" lon="-105.229789">
  <ele>1583.0</ele>
  <time>2026-08-28T17:53:11Z</time>
  <course>248.34</course>
  <speed>0.01</speed>
  <fix>3d</fix>
</trkpt>
<trkpt lat="40.0713749" lon="-105.229789">
  <ele>1583.0</ele>
  <time>2026-08-28T17:53:11Z</time>
  <course>0.0</course>
  <speed>0.0</speed>
  <fix>3d</fix>
</trkpt>
<trkpt lat="40.0713749" lon="-105.229789">
  <ele>1583.0</ele>
  <time>2026-08-28T17:53:11Z</time>
  <course>248.33</course>
  <speed>0.01</speed>
  <fix>3d</fix>
</trkpt>
<trkpt lat="40.0713749" lon="-105.229789">
  <ele>1583.0</ele>
  <time>2026-08-28T17:53:11Z</time>
  <course>0.0</course>
  <speed>0.0</speed>
  <fix>3d</fix>
</trkpt>
<trkpt lat="40.0713749" lon="-105.229789">
  <ele>1583.0</ele>
  <time>2026-08-28T17:53:11Z</time>
  <course>248.33</course>
  <speed>0.01</speed>
  <fix>3d</fix>
</trkpt>
<trkpt lat="40.0713749" lon="-105.229789">
  <ele>1583.0</ele>
  <time>2026-08-28T17:53:11Z</time>
  <course>0.0</course>
  <speed>0.0</speed>
  <fix>3d</fix>
</trkpt>
<trkpt lat="40.0713749" lon="-105.229789">
  <ele>1583.0</ele>
  <time>2026-08-28T17:53:11Z</time>
  <course>248.32</course>
  <speed>0.01</speed>
  <fix>3d</fix>
</trkpt>
<trkpt lat="40.0713749" lon="-105.229789">
  <ele>1583.0</ele>
  <time>2026-08-28T17:53:11Z</time>
  <course>0.0</course>
  <speed>0.0</speed>
  <fix>3d</fix>
</trkpt>
<trkpt lat="40.0713749" lon="-105.229789">
  <ele>1583.0</ele>
  <time>2026-08-28T17:53:11Z</time>
  <course>248.32</course>
  <speed>0.01</speed>
  <fix>3d</fix>
</trkpt>
<trkpt lat="40.0713749" lon="-105.229789">
  <ele>1583.0</ele>
  <time>2026-08-28T17:53:11Z</time>
  <course>0.0</course>
  <speed>0.0</speed>
  <fix>3d</fix>
</trkpt>
<trkpt lat="40.0713749" lon="-105.229789">
  <ele>1583.0</ele>
  <time>2026-08-28T17:53:11Z</time>
  <course>248.32</course>
  <speed>0.01</speed>
  <fix>3d</fix>
</trkpt>
<trkpt lat="40.0713749" lon="-105.229789">
  <ele>1583.0</ele>
  <time>2026-08-28T17:53:11Z</time>
  <course>0.0</course>
  <speed>0.0</speed>
  <fix>3d</fix>
</trkpt>
<trkpt lat="40.0713749" lon="-105.229789">
  <ele>1583.0</ele>
  <time>2026-08-28T17:53:11Z</time>
  <course>248.31</course>
  <speed>0.01</speed>
  <fix>3d</fix>
</trkpt>
<trkpt lat="40.0713749" lon="-105.229789">
  <ele>1583.0</ele>
  <time>2026-08-28T17:53:11Z</time>
  <course>0.0</course>
  <speed>0.0</speed>
  <fix>3d</fix>
</trkpt>
<trkpt lat="40.0713749" lon="-105.229789">
  <ele>1583.0</ele>
  <time>2026-08-28T17:53:11Z</time>
  <course>248.31</course>
  <speed>0.01</speed>
  <fix>3d</fix>
</trkpt>
<trkpt lat="40.0713749" lon="-105.229789">
  <ele>1583.0</ele>
  <time>2026-08-28T17:53:11Z</time>
  <course>0.0</course>
  <speed>0.0</speed>
  <fix>3d</fix>
</trkpt>
<trkpt lat="40.0713749" lon="-105.229789">
  <ele>1583.0</ele>
  <time>2026-08-28T17:53:11Z</time>
  <course>248.3</course>
  <speed>0.01</speed>
  <fix>3d</fix>
</trkpt>
<trkpt lat="40.0713749" lon="-105.229789">
  <ele>1583.0</ele>
  <time>2026-08-28T17:53:11Z</time>
  <course>0.0</course>
  <speed>0.0</speed>
  <fix>3d</fix>
</trkpt>
<trkpt lat="40.0713749" lon="-105.229789">
  <ele>1583.0</ele>
  <time>2026-08-28T17:53:11Z</time>
  <course>248.3</course>
  <speed>0.01</speed>
  <fix>3d</fix>
</trkpt>
<trkpt lat="40.0713749" lon="-105.229789">
  <ele>1583.0</ele>
  <time>2026-08-28T17:53:11Z</time>
  <course>0.0</course>
  <speed>0.0</speed>
  <fix>3d</fix>
</trkpt>
<trkpt lat="40.0713749" lon="-105.229789">
  <ele>1583.0</ele>
  <time>2026-08-28T17:53:11Z</time>
  <course>248.29</course>
  <speed>0.01</speed>
  <fix>3d</fix>
</trkpt>
<trkpt lat="40.0713749" lon="-105.229789">
  <ele>1583.0</ele>
  <time>2026-08-28T17:53:11Z</time>
  <course>0.0</course>
  <speed>0.0</speed>
  <fix>3d</fix>
</trkpt>
<trkpt lat="40.0713749" lon="-105.229789">
  <ele>1583.0</ele>
  <time>2026-08-28T17:53:11Z</time>
  <course>248.29</course>
  <speed>0.01</speed>
  <fix>3d</fix>
</trkpt>
<trkpt lat="40.0713749" lon="-105.229789">
  <ele>1583.0</ele>
  <time>2026-08-28T17:53:11Z</time>
  <course>0.0</course>
  <speed>0.0</speed>
  <fix>3d</fix>
</trkpt>
<trkpt lat="40.0713749" lon="-105.229789">
  <ele>1583.0</ele>
  <time>2026-08-28T17:53:11Z</time>
  <course>248.28</course>
  <speed>0.01</speed>
  <fix>3d</fix>
</trkpt>
<trkpt lat="40.0713749" lon="-105.229789">
  <ele>1583.0</ele>
  <time>2026-08-28T17:53:11Z</time>
  <course>0.0</course>
  <speed>0.0</speed>
  <fix>3d</fix>
</trkpt>
<trkpt lat="40.0713749" lon="-105.229789">
  <ele>1583.0</ele>
  <time>2026-08-28T17:53:11Z</time>
  <course>248.28</course>
  <speed>0.01</speed>
  <fix>3d</fix>
</trkpt>
<trkpt lat="40.0713749" lon="-105.229789">
  <ele>1583.0</ele>
  <time>2026-08-28T17:53:11Z</time>
  <course>0.0</course>
  <speed>0.0</speed>
  <fix>3d</fix>
</trkpt>
<trkpt lat="40.0713749" lon="-105.229789">
  <ele>1583.0</ele>
  <time>2026-08-28T17:53:11Z</time>
  <course>248.27</course>
  <speed>0.01</speed>
  <fix>3d</fix>
</trkpt>
<trkpt lat="40.0713749" lon="-105.229789">
  <ele>1583.0</ele>
  <time>2026-08-28T17:53:11Z</time>
  <course>0.0</course>
  <speed>0.0</speed>
  <fix>3d</fix>
</trkpt>
<trkpt lat="40.0713749" lon="-105.229789">
  <ele>1583.0</ele>
  <time>2026-08-28T17:53:11Z</time>
  <course>248.27</course>
  <speed>0.01</speed>
  <fix>3d</fix>
</trkpt>
<trkpt lat="40.0713749" lon="-105.229789">
  <ele>1583.0</ele>
  <time>2026-08-28T17:53:11Z</time>
  <course>0.0</course>
  <speed>0.0</speed>
  <fix>3d</fix>
</trkpt>
<trkpt lat="40.0713749" lon="-105.229789">
  <ele>1583.0</ele>
  <time>2026-08-28T17:53:11Z</time>
  <course>248.26</course>
  <speed>0.01</speed>
  <fix>3d</fix>
</trkpt>
<trkpt lat="40.0713749" lon="-105.229789">
  <ele>1583.0</ele>
  <time>2026-08-28T17:53:11Z</time>
  <course>0.0</course>
  <speed>0.0</speed>
  <fix>3d</fix>
</trkpt>
<trkpt lat="40.0713749" lon="-105.229789">
  <ele>1583.0</ele>
  <time>2026-08-28T17:53:11Z</time>
  <course>248.26</course>
  <speed>0.01</speed>
  <fix>3d</fix>
</trkpt>
<trkpt lat="40.0713749" lon="-105.229789">
  <ele>1583.0</ele>
  <time>2026-08-28T17:53:11Z</time>
  <course>0.0</course>
  <speed>0.0</speed>
  <fix>3d</fix>
</trkpt>
<trkpt lat="40.0713749" lon="-105.229789">
  <ele>1583.0</ele>
  <time>2026-08-28T17:53:11Z</time>
  <course>248.26</course>
  <speed>0.01</speed>
  <fix>3d</fix>
</trkpt>
<trkpt lat="40.0713749" lon="-105.229789">
  <ele>1583.0</ele>
  <time>2026-08-28T17:53:11Z</time>
  <course>0.0</course>
  <speed>0.0</speed>
  <fix>3d</fix>
</trkpt>
<trkpt lat="40.0713749" lon="-105.229789">
  <ele>1583.0</ele>
  <time>2026-08-28T17:53:11Z</time>
  <course>248.25</course>
  <speed>0.01</speed>
  <fix>3d</fix>
</trkpt>
<trkpt lat="40.0713749" lon="-105.229789">
  <ele>1583.0</ele>
  <time>2026-08-28T17:53:11Z</time>
  <course>0.0</course>
  <speed>0.0</speed>
  <fix>3d</fix>
</trkpt>
<trkpt lat="40.0713749" lon="-105.229789">
  <ele>1583.0</ele>
  <time>2026-08-28T17:53:11Z</time>
  <course>248.25</course>
  <speed>0.01</speed>
  <fix>3d</fix>
</trkpt>
<trkpt lat="40.0713749" lon="-105.229789">
  <ele>1583.0</ele>
  <time>2026-08-28T17:53:11Z</time>
  <course>0.0</course>
  <speed>0.0</speed>
  <fix>3d</fix>
</trkpt>
<trkpt lat="40.0713749" lon="-105.229789">
  <ele>1583.0</ele>
  <time>2026-08-28T17:53:11Z</time>
  <course>248.24</course>
  <speed>0.01</speed>
  <fix>3d</fix>
</trkpt>
<trkpt lat="40.0713749" lon="-105.229789">
  <ele>1583.0</ele>
  <time>2026-08-28T17:53:11Z</time>
  <course>0.0</course>
  <speed>0.0</speed>
  <fix>3d</fix>
</trkpt>
<trkpt lat="40.0713749" lon="-105.229789">
  <ele>1583.0</ele>
  <time>2026-08-28T17:53:11Z</time>
  <course>248.24</course>
  <speed>0.01</speed>
  <fix>3d</fix>
</trkpt>
<trkpt lat="40.0713749" lon="-105.229789">
  <ele>1583.0</ele>
  <time>2026-08-28T17:53:11Z</time>
  <course>0.0</course>
  <speed>0.0</speed>
  <fix>3d</fix>
</trkpt>
<trkpt lat="40.0713749" lon="-105.229789">
  <ele>1583.0</ele>
  <time>2026-08-28T17:53:11Z</time>
  <course>248.23</course>
  <speed>0.01</speed>
  <fix>3d</fix>
</trkpt>
<trkpt lat="40.0713749" lon="-105.229789">
  <ele>1583.0</ele>
  <time>2026-08-28T17:53:11Z</time>
  <course>0.0</course>
  <speed>0.0</speed>
  <fix>3d</fix>
</trkpt>
<trkpt lat="40.0713749" lon="-105.229789">
  <ele>1583.0</ele>
  <time>2026-08-28T17:53:11Z</time>
  <course>248.23</course>
  <speed>0.01</speed>
  <fix>3d</fix>
</trkpt>
<trkpt lat="40.0713749" lon="-105.229789">
  <ele>1583.0</ele>
  <time>2026-08-28T17:53:11Z</time>
  <course>0.0</course>
  <speed>0.0</speed>
  <fix>3d</fix>
</trkpt>
<trkpt lat="40.0713749" lon="-105.229789">
  <ele>1583.0</ele>
  <time>2026-08-28T17:53:11Z</time>
  <course>248.22</course>
  <speed>0.01</speed>
  <fix>3d</fix>
</trkpt>
<trkpt lat="40.0713749" lon="-105.229789">
  <ele>1583.0</ele>
  <time>2026-08-28T17:53:11Z</time>
  <course>0.0</course>
  <speed>0.0</speed>
  <fix>3d</fix>
</trkpt>
<trkpt lat="40.0713749" lon="-105.229789">
  <ele>1583.0</ele>
  <time>2026-08-28T17:53:11Z</time>
  <course>248.22</course>
  <speed>0.01</speed>
  <fix>3d</fix>
</trkpt>
<trkpt lat="40.0713749" lon="-105.229789">
  <ele>1583.0</ele>
  <time>2026-08-28T17:53:11Z</time>
  <course>0.0</course>
  <speed>0.0</speed>
  <fix>3d</fix>
</trkpt>
<trkpt lat="40.0713749" lon="-105.229789">
  <ele>1583.0</ele>
  <time>2026-08-28T17:53:11Z</time>
  <course>248.21</course>
  <speed>0.01</speed>
  <fix>3d</fix>
</trkpt>
<trkpt lat="40.0713749" lon="-105.229789">
  <ele>1583.0</ele>
  <time>2026-08-28T17:53:11Z</time>
  <course>0.0</course>
  <speed>0.0</speed>
  <fix>3d</fix>
</trkpt>
<trkpt lat="40.0713749" lon="-105.229789">
  <ele>1583.0</ele>
  <time>2026-08-28T17:53:11Z</time>
  <course>248.21</course>
  <speed>0.01</speed>
  <fix>3d</fix>
</trkpt>
<trkpt lat="40.0713749" lon="-105.229789">
  <ele>1583.0</ele>
  <time>2026-08-28T17:53:11Z</time>
  <course>0.0</course>
  <speed>0.0</speed>
  <fix>3d</fix>
</trkpt>
<trkpt lat="40.0713749" lon="-105.229789">
  <ele>1583.0</ele>
  <time>2026-08-28T17:53:11Z</time>
  <course>248.2</course>
  <speed>0.01</speed>
  <fix>3d</fix>
</trkpt>
<trkpt lat="40.0713749" lon="-105.229789">
  <ele>1583.0</ele>
  <time>2026-08-28T17:53:11Z</time>
  <course>0.0</course>
  <speed>0.0</speed>
  <fix>3d</fix>
</trkpt>
<trkpt lat="40.0713749" lon="-105.229789">
  <ele>1583.0</ele>
  <time>2026-08-28T17:53:11Z</time>
  <course>248.2</course>
  <speed>0.01</speed>
  <fix>3d</fix>
</trkpt>
<trkpt lat="40.0713749" lon="-105.229789">
  <ele>1583.0</ele>
  <time>2026-08-28T17:53:11Z</time>
  <course>0.0</course>
  <speed>0.0</speed>
  <fix>3d</fix>
</trkpt>
<trkpt lat="40.0713749" lon="-105.229789">
  <ele>1583.0</ele>
  <time>2026-08-28T17:53:11Z</time>
  <course>248.19</course>
  <speed>0.01</speed>
  <fix>3d</fix>
</trkpt>
<trkpt lat="40.0713749" lon="-105.229789">
  <ele>1583.0</ele>
  <time>2026-08-28T17:53:11Z</time>
  <course>0.0</course>
  <speed>0.0</speed>
  <fix>3d</fix>
</trkpt>
<trkpt lat="40.0713749" lon="-105.229789">
  <ele>1583.0</ele>
  <time>2026-08-28T17:53:11Z</time>
  <course>248.19</course>
  <speed>0.01</speed>
  <fix>3d</fix>
</trkpt>
<trkpt lat="40.0713749" lon="-105.229789">
  <ele>1583.0</ele>
  <time>2026-08-28T17:53:11Z</time>
  <course>0.0</course>
  <speed>0.0</speed>
  <fix>3d</fix>
</trkpt>
<trkpt lat="40.0713749" lon="-105.229789">
  <ele>1583.0</ele>
  <time>2026-08-28T17:53:11Z</time>
  <course>248.18</course>
  <speed>0.01</speed>
  <fix>3d</fix>
</trkpt>
<trkpt lat="40.0713749" lon="-105.229789">
  <ele>1583.0</ele>
  <time>2026-08-28T17:53:11Z</time>
  <course>0.0</course>
  <speed>0.0</speed>
  <fix>3d</fix>
</trkpt>
<trkpt lat="40.0713749" lon="-105.229789">
  <ele>1583.0</ele>
  <time>2026-08-28T17:53:11Z</time>
  <course>248.18</course>
  <speed>0.01</speed>
  <fix>3d</fix>
</trkpt>
<trkpt lat="40.0713749" lon="-105.229789">
  <ele>1583.0</ele>
  <time>2026-08-28T17:53:11Z</time>
  <course>0.0</course>
  <speed>0.0</speed>
  <fix>3d</fix>
</trkpt>
<trkpt lat="40.0713749" lon="-105.229789">
  <ele>1583.0</ele>
  <time>2026-08-28T17:53:11Z</time>
  <course>248.17</course>
  <speed>0.022360679774997897</speed>
  <fix>3d</fix>
</trkpt>
<trkpt lat="40.0713749" lon="-105.229789">
  <ele>1583.0</ele>
  <time>2026-08-28T17:53:11Z</time>
  <course>0.0</course>
  <speed>0.0</speed>
  <fix>3d</fix>
</trkpt>
<trkpt lat="40.0713749" lon="-105.229789">
  <ele>1583.0</ele>
  <time>2026-08-28T17:53:11Z</time>
  <course>248.17</course>
  <speed>0.022360679774997897</speed>
  <fix>3d</fix>
</trkpt>
<trkpt lat="40.0713749" lon="-105.229789">
  <ele>1583.0</ele>
  <time>2026-08-28T17:53:11Z</time>
  <course>0.0</course>
  <speed>0.0</speed>
  <fix>3d</fix>
</trkpt>
<trkpt lat="40.0713749" lon="-105.229789">
  <ele>1583.0</ele>
  <time>2026-08-28T17:53:11Z</time>
  <course>248.16</course>
  <speed>0.022360679774997897</speed>
  <fix>3d</fix>
</trkpt>
<trkpt lat="40.0713749" lon="-105.229789">
  <ele>1583.0</ele>
  <time>2026-08-28T17:53:11Z</time>
  <course>0.0</course>
  <speed>0.0</speed>
  <fix>3d</fix>
</trkpt>
<trkpt lat="40.0713749" lon="-105.229789">
  <ele>1583.0</ele>
  <time>2026-08-28T17:53:11Z</time>
  <course>248.16</course>
  <speed>0.022360679774997897</speed>
  <fix>3d</fix>
</trkpt>
<trkpt lat="40.0713749" lon="-105.229789">
  <ele>1583.0</ele>
  <time>2026-08-28T17:53:11Z</time>
  <course>0.0</course>
  <speed>0.0</speed>
  <fix>3d</fix>
</trkpt>
<trkpt lat="40.0713749" lon="-105.229789">
  <ele>1583.0</ele>
  <time>2026-08-28T17:53:11Z</time>
  <course>248.15</course>
  <speed>0.022360679774997897</speed>
  <fix>3d</fix>
</trkpt>
<trkpt lat="40.0713749" lon="-105.229789">
  <ele>1583.0</ele>
  <time>2026-08-28T17:53:11Z</time>
  <course>0.0</course>
  <speed>0.0</speed>
  <fix>3d</fix>
</trkpt>
<trkpt lat="40.0713749" lon="-105.229789">
  <ele>1583.0</ele>
  <time>2026-08-28T17:53:11Z</time>
  <course>248.15</course>
  <speed>0.022360679774997897</speed>
  <fix>3d</fix>
</trkpt>
<trkpt lat="40.0713749" lon="-105.229789">
  <ele>1583.0</ele>
  <time>2026-08-28T17:53:11Z</time>
  <course>0.0</course>
  <speed>0.0</speed>
  <fix>3d</fix>
</trkpt>
<trkpt lat="40.0713749" lon="-105.229789">
  <ele>1583.0</ele>
  <time>2026-08-28T17:53:11Z</time>
  <course>248.14</course>
  <speed>0.022360679774997897</speed>
  <fix>3d</fix>
</trkpt>
<trkpt lat="40.0713749" lon="-105.229789">
  <ele>1583.0</ele>
  <time>2026-08-28T17:53:11Z</time>
  <course>0.0</course>
  <speed>0.0</speed>
  <fix>3d</fix>
</trkpt>
<trkpt lat="40.0713749" lon="-105.229789">
  <ele>1583.0</ele>
  <time>2026-08-28T17:53:11Z</time>
  <course>248.14</course>
  <speed>0.022360679774997897</speed>
  <fix>3d</fix>
</trkpt>
<trkpt lat="40.0713749" lon="-105.229789">
  <ele>1583.0</ele>
  <time>2026-08-28T17:53:11Z</time>
  <course>0.0</course>
  <speed>0.0</speed>
  <fix>3d</fix>
</trkpt>
<trkpt lat="40.0713749" lon="-105.229789">
  <ele>1583.0</ele>
  <time>2026-08-28T17:53:11Z</time>
  <course>248.13</course>
  <speed>0.022360679774997897</speed>
  <fix>3d</fix>
</trkpt>
<trkpt lat="40.0713749" lon="-105.229789">
  <ele>1583.0</ele>
  <time>2026-08-28T17:53:11Z</time>
  <course>0.0</course>
  <speed>0.0</speed>
  <fix>3d</fix>
</trkpt>
<trkpt lat="40.0713749" lon="-105.229789">
  <ele>1583.0</ele>
  <time>2026-08-28T17:53:11Z</time>
  <course>248.13</course>
  <speed>0.022360679774997897</speed>
  <fix>3d</fix>
</trkpt>
<trkpt lat="40.0713749" lon="-105.229789">
  <ele>1583.0</ele>
  <time>2026-08-28T17:53:11Z</time>
  <course>0.0</course>
  <speed>0.0</speed>
  <fix>3d</fix>
</trkpt>
<trkpt lat="40.0713749" lon="-105.229789">
  <ele>1583.0</ele>
  <time>2026-08-28T17:53:11Z</time>
  <course>248.12</course>
  <speed>0.022360679774997897</speed>
  <fix>3d</fix>
</trkpt>
<trkpt lat="40.0713749" lon="-105.229789">
  <ele>1583.0</ele>
  <time>2026-08-28T17:53:11Z</time>
  <course>0.0</course>
  <speed>0.0</speed>
  <fix>3d</fix>
</trkpt>
<trkpt lat="40.0713749" lon="-105.229789">
  <ele>1583.0</ele>
  <time>2026-08-28T17:53:11Z</time>
  <course>248.12</course>
  <speed>0.022360679774997897</speed>
  <fix>3d</fix>
</trkpt>
<trkpt lat="40.0713749" lon="-105.229789">
  <ele>1583.0</ele>
  <time>2026-08-28T17:53:11Z</time>
  <course>0.0</course>
  <speed>0.0</speed>
  <fix>3d</fix>
</trkpt>
<trkpt lat="40.0713749" lon="-105.229789">
  <ele>1583.0</ele>
  <time>2026-08-28T17:53:11Z</time>
  <course>248.11</course>
  <speed>0.022360679774997897</speed>
  <fix>3d</fix>
</trkpt>
<trkpt lat="40.0713749" lon="-105.229789">
  <ele>1583.0</ele>
  <time>2026-08-28T17:53:11Z</time>
  <course>0.0</course>
  <speed>0.0</speed>
  <fix>3d</fix>
</trkpt>
<trkpt lat="40.0713749" lon="-105.229789">
  <ele>1583.0</ele>
  <time>2026-08-28T17:53:11Z</time>
  <course>248.11</course>
  <speed>0.022360679774997897</speed>
  <fix>3d</fix>
</trkpt>
<trkpt lat="40.0713749" lon="-105.229789">
  <ele>1583.0</ele>
  <time>2026-08-28T17:53:11Z</time>
  <course>0.0</course>
  <speed>0.0</speed>
  <fix>3d</fix>
</trkpt>
<trkpt lat="40.0713749" lon="-105.229789">
  <ele>1583.0</ele>
  <time>2026-08-28T17:53:11Z</time>
  <course>248.1</course>
  <speed>0.022360679774997897</speed>
  <fix>3d</fix>
</trkpt>
<trkpt lat="40.0713749" lon="-105.229789">
  <ele>1583.0</ele>
  <time>2026-08-28T17:53:11Z</time>
  <course>0.0</course>
  <speed>0.0</speed>
  <fix>3d</fix>
</trkpt>
<trkpt lat="40.0713749" lon="-105.229789">
  <ele>1583.0</ele>
  <time>2026-08-28T17:53:11Z</time>
  <course>248.1</course>
  <speed>0.022360679774997897</speed>
  <fix>3d</fix>
</trkpt>
<trkpt lat="40.0713749" lon="-105.229789">
  <ele>1583.0</ele>
  <time>2026-08-28T17:53:11Z</time>
  <course>0.0</course>
  <speed>0.0</speed>
  <fix>3d</fix>
</trkpt>
<trkpt lat="40.0713749" lon="-105.229789">
  <ele>1583.0</ele>
  <time>2026-08-28T17:53:11Z</time>
  <course>248.09</course>
  <speed>0.022360679774997897</speed>
  <fix>3d</fix>
</trkpt>
<trkpt lat="40.0713749" lon="-105.229789">
  <ele>1583.0</ele>
  <time>2026-08-28T17:53:11Z</time>
  <course>0.0</course>
  <speed>0.0</speed>
  <fix>3d</fix>
</trkpt>
<trkpt lat="40.0713749" lon="-105.229789">
  <ele>1583.0</ele>
  <time>2026-08-28T17:53:11Z</time>
  <course>248.09</course>
  <speed>0.022360679774997897</speed>
  <fix>3d</fix>
</trkpt>
<trkpt lat="40.0713749" lon="-105.229789">
  <ele>1583.0</ele>
  <time>2026-08-28T17:53:11Z</time>
  <course>0.0</course>
  <speed>0.0</speed>
  <fix>3d</fix>
</trkpt>
<trkpt lat="40.0713749" lon="-105.229789">
  <ele>1583.0</ele>
  <time>2026-08-28T17:53:11Z</time>
  <course>248.08</course>
  <speed>0.022360679774997897</speed>
  <fix>3d</fix>
</trkpt>
<trkpt lat="40.0713749" lon="-105.229789">
  <ele>1583.0</ele>
  <time>2026-08-28T17:53:11Z</time>
  <course>0.0</course>
  <speed>0.0</speed>
  <fix>3d</fix>
</trkpt>
<trkpt lat="40.0713749" lon="-105.229789">
  <ele>1583.0</ele>
  <time>2026-08-28T17:53:11Z</time>
  <course>248.08</course>
  <speed>0.022360679774997897</speed>
  <fix>3d</fix>
</trkpt>
<trkpt lat="40.0713749" lon="-105.229789">
  <ele>1583.0</ele>
  <time>2026-08-28T17:53:11Z</time>
  <course>0.0</course>
  <speed>0.0</speed>
  <fix>3d</fix>
</trkpt>
<trkpt lat="40.0713749" lon="-105.229789">
  <ele>1583.0</ele>
  <time>2026-08-28T17:53:11Z</time>
  <course>248.07</course>
  <speed>0.022360679774997897</speed>
  <fix>3d</fix>
</trkpt>
<trkpt lat="40.0713749" lon="-105.229789">
  <ele>1583.0</ele>
  <time>2026-08-28T17:53:11Z</time>
  <course>0.0</course>
  <speed>0.0</speed>
  <fix>3d</fix>
</trkpt>
<trkpt lat="40.0713749" lon="-105.229789">
  <ele>1583.0</ele>
  <time>2026-08-28T17:53:11Z</time>
  <course>248.07</course>
  <speed>0.022360679774997897</speed>
  <fix>3d</fix>
</trkpt>
<trkpt lat="40.0713749" lon="-105.229789">
  <ele>1583.0</ele>
  <time>2026-08-28T17:53:11Z</time>
  <course>0.0</course>
  <speed>0.0</speed>
  <fix>3d</fix>
</trkpt>
<trkpt lat="40.0713749" lon="-105.229789">
  <ele>1583.0</ele>
  <time>2026-08-28T17:53:11Z</time>
  <course>248.06</course>
  <speed>0.022360679774997897</speed>
  <fix>3d</fix>
</trkpt>
<trkpt lat="40.0713749" lon="-105.229789">
  <ele>1583.0</ele>
  <time>2026-08-28T17:53:11Z</time>
  <course>0.0</course>
  <speed>0.0</speed>
  <fix>3d</fix>
</trkpt>
<trkpt lat="40.0713749" lon="-105.229789">
  <ele>1583.0</ele>
  <time>2026-08-28T17:53:11Z</time>
  <course>248.06</course>
  <speed>0.022360679774997897</speed>
  <fix>3d</fix>
</trkpt>
<trkpt lat="40.0713749" lon="-105.229789">
  <ele>1583.0</ele>
  <time>2026-08-28T17:53:11Z</time>
  <course>0.0</course>
  <speed>0.0</speed>
  <fix>3d</fix>
</trkpt>
<trkpt lat="40.0713749" lon="-105.229789">
  <ele>1583.0</ele>
  <time>2026-08-28T17:53:11Z</time>
  <course>248.05</course>
  <speed>0.022360679774997897</speed>
  <fix>3d</fix>
</trkpt>
<trkpt lat="40.0713749" lon="-105.229789">
  <ele>1583.0</ele>
  <time>2026-08-28T17:53:11Z</time>
  <course>0.0</course>
  <speed>0.0</speed>
  <fix>3d</fix>
</trkpt>
<trkpt lat="40.0713749" lon="-105.229789">
  <ele>1583.0</ele>
  <time>2026-08-28T17:53:11Z</time>
  <course>248.05</course>
  <speed>0.022360679774997897</speed>
  <fix>3d</fix>
</trkpt>
<trkpt lat="40.0713749" lon="-105.229789">
  <ele>1583.0</ele>
  <time>2026-08-28T17:53:11Z</time>
  <course>0.0</course>
  <speed>0.0</speed>
  <fix>3d</fix>
</trkpt>
<trkpt lat="40.0713749" lon="-105.229789">
  <ele>1583.0</ele>
  <time>2026-08-28T17:53:11Z</time>
  <course>248.05</course>
  <speed>0.022360679774997897</speed>
  <fix>3d</fix>
</trkpt>
<trkpt lat="40.0713749" lon="-105.229789">
  <ele>1583.0</ele>
  <time>2026-08-28T17:53:11Z</time>
  <course>0.0</course>
  <speed>0.0</speed>
  <fix>3d</fix>
</trkpt>
<trkpt lat="40.0713749" lon="-105.229789">
  <ele>1583.0</ele>
  <time>2026-08-28T17:53:12Z</time>
  <course>248.04</course>
  <speed>0.022360679774997897</speed>
  <fix>3d</fix>
</trkpt>
<trkpt lat="40.0713749" lon="-105.229789">
  <ele>1583.0</ele>
  <time>2026-08-28T17:53:12Z</time>
  <course>0.0</course>
  <speed>0.0</speed>
  <fix>3d</fix>
</trkpt>
<trkpt lat="40.0713749" lon="-105.229789">
  <ele>1583.0</ele>
  <time>2026-08-28T17:53:12Z</time>
  <course>248.04</course>
  <speed>0.022360679774997897</speed>
  <fix>3d</fix>
</trkpt>
<trkpt lat="40.0713749" lon="-105.229789">
  <ele>1583.0</ele>
  <time>2026-08-28T17:53:12Z</time>
  <course>0.0</course>
  <speed>0.0</speed>
  <fix>3d</fix>
</trkpt>
<trkpt lat="40.0713749" lon="-105.229789">
  <ele>1583.0</ele>
  <time>2026-08-28T17:53:12Z</time>
  <course>248.03</course>
  <speed>0.022360679774997897</speed>
  <fix>3d</fix>
</trkpt>
<trkpt lat="40.0713749" lon="-105.229789">
  <ele>1583.0</ele>
  <time>2026-08-28T17:53:12Z</time>
  <course>0.0</course>
  <speed>0.0</speed>
  <fix>3d</fix>
</trkpt>
<trkpt lat="40.0713749" lon="-105.229789">
  <ele>1583.0</ele>
  <time>2026-08-28T17:53:12Z</time>
  <course>248.03</course>
  <speed>0.022360679774997897</speed>
  <fix>3d</fix>
</trkpt>
<trkpt lat="40.0713749" lon="-105.229789">
  <ele>1583.0</ele>
  <time>2026-08-28T17:53:12Z</time>
  <course>0.0</course>
  <speed>0.0</speed>
  <fix>3d</fix>
</trkpt>
<trkpt lat="40.0713749" lon="-105.229789">
  <ele>1583.0</ele>
  <time>2026-08-28T17:53:12Z</time>
  <course>248.02</course>
  <speed>0.022360679774997897</speed>
  <fix>3d</fix>
</trkpt>
<trkpt lat="40.0713749" lon="-105.229789">
  <ele>1583.0</ele>
  <time>2026-08-28T17:53:12Z</time>
  <course>0.0</course>
  <speed>0.0</speed>
  <fix>3d</fix>
</trkpt>
<trkpt lat="40.0713749" lon="-105.229789">
  <ele>1583.0</ele>
  <time>2026-08-28T17:53:12Z</time>
  <course>248.02</course>
  <speed>0.022360679774997897</speed>
  <fix>3d</fix>
</trkpt>
<trkpt lat="40.0713749" lon="-105.229789">
  <ele>1583.0</ele>
  <time>2026-08-28T17:53:12Z</time>
  <course>0.0</course>
  <speed>0.0</speed>
  <fix>3d</fix>
</trkpt>
<trkpt lat="40.0713749" lon="-105.229789">
  <ele>1583.0</ele>
  <time>2026-08-28T17:53:12Z</time>
  <course>248.01</course>
  <speed>0.022360679774997897</speed>
  <fix>3d</fix>
</trkpt>
<trkpt lat="40.0713749" lon="-105.229789">
  <ele>1583.0</ele>
  <time>2026-08-28T17:53:12Z</time>
  <course>0.0</course>
  <speed>0.0</speed>
  <fix>3d</fix>
</trkpt>
<trkpt lat="40.0713749" lon="-105.229789">
  <ele>1583.0</ele>
  <time>2026-08-28T17:53:12Z</time>
  <course>248.01</course>
  <speed>0.022360679774997897</speed>
  <fix>3d</fix>
</trkpt>
<trkpt lat="40.0713749" lon="-105.229789">
  <ele>1583.0</ele>
  <time>2026-08-28T17:53:12Z</time>
  <course>0.0</course>
  <speed>0.0</speed>
  <fix>3d</fix>
</trkpt>
<trkpt lat="40.0713749" lon="-105.229789">
  <ele>1583.0</ele>
  <time>2026-08-28T17:53:12Z</time>
  <course>248.0</course>
  <speed>0.022360679774997897</speed>
  <fix>3d</fix>
</trkpt>
<trkpt lat="40.0713749" lon="-105.229789">
  <ele>1583.0</ele>
  <time>2026-08-28T17:53:12Z</time>
  <course>0.0</course>
  <speed>0.0</speed>
  <fix>3d</fix>
</trkpt>
<trkpt lat="40.0713749" lon="-105.229789">
  <ele>1583.0</ele>
  <time>2026-08-28T17:53:12Z</time>
  <course>248.0</course>
  <speed>0.022360679774997897</speed>
  <fix>3d</fix>
</trkpt>
<trkpt lat="40.0713749" lon="-105.229789">
  <ele>1583.0</ele>
  <time>2026-08-28T17:53:12Z</time>
  <course>0.0</course>
  <speed>0.0</speed>
  <fix>3d</fix>
</trkpt>
<trkpt lat="40.0713749" lon="-105.229789">
  <ele>1583.0</ele>
  <time>2026-08-28T17:53:12Z</time>
  <course>247.99</course>
  <speed>0.022360679774997897</speed>
  <fix>3d</fix>
</trkpt>
<trkpt lat="40.0713749" lon="-105.229789">
  <ele>1583.0</ele>
  <time>2026-08-28T17:53:12Z</time>
  <course>0.0</course>
  <speed>0.0</speed>
  <fix>3d</fix>
</trkpt>
<trkpt lat="40.0713749" lon="-105.229789">
  <ele>1583.0</ele>
  <time>2026-08-28T17:53:12Z</time>
  <course>247.99</course>
  <speed>0.022360679774997897</speed>
  <fix>3d</fix>
</trkpt>
<trkpt lat="40.0713749" lon="-105.229789">
  <ele>1583.0</ele>
  <time>2026-08-28T17:53:12Z</time>
  <course>0.0</course>
  <speed>0.0</speed>
  <fix>3d</fix>
</trkpt>
<trkpt lat="40.0713749" lon="-105.229789">
  <ele>1583.0</ele>
  <time>2026-08-28T17:53:12Z</time>
  <course>247.99</course>
  <speed>0.022360679774997897</speed>
  <fix>3d</fix>
</trkpt>
<trkpt lat="40.0713749" lon="-105.229789">
  <ele>1583.0</ele>
  <time>2026-08-28T17:53:12Z</time>
  <course>0.0</course>
  <speed>0.0</speed>
  <fix>3d</fix>
</trkpt>
<trkpt lat="40.0713749" lon="-105.229789">
  <ele>1583.0</ele>
  <time>2026-08-28T17:53:12Z</time>
  <course>247.98</course>
  <speed>0.022360679774997897</speed>
  <fix>3d</fix>
</trkpt>
<trkpt lat="40.0713749" lon="-105.229789">
  <ele>1583.0</ele>
  <time>2026-08-28T17:53:12Z</time>
  <course>0.0</course>
  <speed>0.0</speed>
  <fix>3d</fix>
</trkpt>
<trkpt lat="40.0713749" lon="-105.229789">
  <ele>1583.0</ele>
  <time>2026-08-28T17:53:12Z</time>
  <course>247.98</course>
  <speed>0.022360679774997897</speed>
  <fix>3d</fix>
</trkpt>
<trkpt lat="40.0713749" lon="-105.229789">
  <ele>1583.0</ele>
  <time>2026-08-28T17:53:12Z</time>
  <course>0.0</course>
  <speed>0.0</speed>
  <fix>3d</fix>
</trkpt>
<trkpt lat="40.0713749" lon="-105.229789">
  <ele>1583.0</ele>
  <time>2026-08-28T17:53:12Z</time>
  <course>247.97</course>
  <speed>0.022360679774997897</speed>
  <fix>3d</fix>
</trkpt>
<trkpt lat="40.0713749" lon="-105.229789">
  <ele>1583.0</ele>
  <time>2026-08-28T17:53:12Z</time>
  <course>0.0</course>
  <speed>0.0</speed>
  <fix>3d</fix>
</trkpt>
<trkpt lat="40.0713749" lon="-105.229789">
  <ele>1583.0</ele>
  <time>2026-08-28T17:53:12Z</time>
  <course>247.97</course>
  <speed>0.022360679774997897</speed>
  <fix>3d</fix>
</trkpt>
<trkpt lat="40.0713749" lon="-105.229789">
  <ele>1583.0</ele>
  <time>2026-08-28T17:53:12Z</time>
  <course>0.0</course>
  <speed>0.0</speed>
  <fix>3d</fix>
</trkpt>
<trkpt lat="40.0713749" lon="-105.229789">
  <ele>1583.0</ele>
  <time>2026-08-28T17:53:12Z</time>
  <course>247.96</course>
  <speed>0.022360679774997897</speed>
  <fix>3d</fix>
</trkpt>
<trkpt lat="40.0713749" lon="-105.229789">
  <ele>1583.0</ele>
  <time>2026-08-28T17:53:12Z</time>
  <course>0.0</course>
  <speed>0.0</speed>
  <fix>3d</fix>
</trkpt>
<trkpt lat="40.0713749" lon="-105.229789">
  <ele>1583.0</ele>
  <time>2026-08-28T17:53:12Z</time>
  <course>247.96</course>
  <speed>0.022360679774997897</speed>
  <fix>3d</fix>
</trkpt>
<trkpt lat="40.0713749" lon="-105.229789">
  <ele>1583.0</ele>
  <time>2026-08-28T17:53:12Z</time>
  <course>0.0</course>
  <speed>0.0</speed>
  <fix>3d</fix>
</trkpt>
<trkpt lat="40.0713749" lon="-105.229789">
  <ele>1583.0</ele>
  <time>2026-08-28T17:53:12Z</time>
  <course>247.95</course>
  <speed>0.022360679774997897</speed>
  <fix>3d</fix>
</trkpt>
<trkpt lat="40.0713749" lon="-105.229789">
  <ele>1583.0</ele>
  <time>2026-08-28T17:53:12Z</time>
  <course>0.0</course>
  <speed>0.0</speed>
  <fix>3d</fix>
</trkpt>
<trkpt lat="40.0713749" lon="-105.229789">
  <ele>1583.0</ele>
  <time>2026-08-28T17:53:12Z</time>
  <course>247.95</course>
  <speed>0.022360679774997897</speed>
  <fix>3d</fix>
</trkpt>
<trkpt lat="40.0713749" lon="-105.229789">
  <ele>1583.0</ele>
  <time>2026-08-28T17:53:12Z</time>
  <course>0.0</course>
  <speed>0.0</speed>
  <fix>3d</fix>
</trkpt>
<trkpt lat="40.0713749" lon="-105.229789">
  <ele>1583.0</ele>
  <time>2026-08-28T17:53:12Z</time>
  <course>247.95</course>
  <speed>0.022360679774997897</speed>
  <fix>3d</fix>
</trkpt>
<trkpt lat="40.0713749" lon="-105.229789">
  <ele>1583.0</ele>
  <time>2026-08-28T17:53:12Z</time>
  <course>0.0</course>
  <speed>0.0</speed>
  <fix>3d</fix>
</trkpt>
<trkpt lat="40.0713749" lon="-105.229789">
  <ele>1583.0</ele>
  <time>2026-08-28T17:53:12Z</time>
  <course>247.94</course>
  <speed>0.022360679774997897</speed>
  <fix>3d</fix>
</trkpt>
<trkpt lat="40.0713749" lon="-105.229789">
  <ele>1583.0</ele>
  <time>2026-08-28T17:53:12Z</time>
  <course>0.0</course>
  <speed>0.0</speed>
  <fix>3d</fix>
</trkpt>
<trkpt lat="40.0713749" lon="-105.229789">
  <ele>1583.0</ele>
  <time>2026-08-28T17:53:12Z</time>
  <course>247.94</course>
  <speed>0.022360679774997897</speed>
  <fix>3d</fix>
</trkpt>
<trkpt lat="40.0713749" lon="-105.229789">
  <ele>1583.0</ele>
  <time>2026-08-28T17:53:12Z</time>
  <course>0.0</course>
  <speed>0.0</speed>
  <fix>3d</fix>
</trkpt>
<trkpt lat="40.0713749" lon="-105.229789">
  <ele>1583.0</ele>
  <time>2026-08-28T17:53:12Z</time>
  <course>247.93</course>
  <speed>0.022360679774997897</speed>
  <fix>3d</fix>
</trkpt>
<trkpt lat="40.0713749" lon="-105.229789">
  <ele>1583.0</ele>
  <time>2026-08-28T17:53:12Z</time>
  <course>0.0</course>
  <speed>0.0</speed>
  <fix>3d</fix>
</trkpt>
<trkpt lat="40.0713749" lon="-105.229789">
  <ele>1583.0</ele>
  <time>2026-08-28T17:53:12Z</time>
  <course>247.93</course>
  <speed>0.022360679774997897</speed>
  <fix>3d</fix>
</trkpt>
<trkpt lat="40.0713749" lon="-105.229789">
  <ele>1583.0</ele>
  <time>2026-08-28T17:53:12Z</time>
  <course>0.0</course>
  <speed>0.0</speed>
  <fix>3d</fix>
</trkpt>
<trkpt lat="40.0713749" lon="-105.229789">
  <ele>1583.0</ele>
  <time>2026-08-28T17:53:12Z</time>
  <course>247.92</course>
  <speed>0.022360679774997897</speed>
  <fix>3d</fix>
</trkpt>
<trkpt lat="40.0713749" lon="-105.229789">
  <ele>1583.0</ele>
  <time>2026-08-28T17:53:12Z</time>
  <course>0.0</course>
  <speed>0.0</speed>
  <fix>3d</fix>
</trkpt>
<trkpt lat="40.0713749" lon="-105.229789">
  <ele>1583.0</ele>
  <time>2026-08-28T17:53:12Z</time>
  <course>247.92</course>
  <speed>0.022360679774997897</speed>
  <fix>3d</fix>
</trkpt>
<trkpt lat="40.0713749" lon="-105.229789">
  <ele>1583.0</ele>
  <time>2026-08-28T17:53:12Z</time>
  <course>0.0</course>
  <speed>0.0</speed>
  <fix>3d</fix>
</trkpt>
<trkpt lat="40.0713749" lon="-105.229789">
  <ele>1583.0</ele>
  <time>2026-08-28T17:53:12Z</time>
  <course>247.92</course>
  <speed>0.022360679774997897</speed>
  <fix>3d</fix>
</trkpt>
<trkpt lat="40.0713749" lon="-105.229789">
  <ele>1583.0</ele>
  <time>2026-08-28T17:53:12Z</time>
  <course>0.0</course>
  <speed>0.0</speed>
  <fix>3d</fix>
</trkpt>
<trkpt lat="40.0713749" lon="-105.229789">
  <ele>1583.0</ele>
  <time>2026-08-28T17:53:12Z</time>
  <course>247.91</course>
  <speed>0.022360679774997897</speed>
  <fix>3d</fix>
</trkpt>
<trkpt lat="40.0713749" lon="-105.229789">
  <ele>1583.0</ele>
  <time>2026-08-28T17:53:12Z</time>
  <course>0.0</course>
  <speed>0.0</speed>
  <fix>3d</fix>
</trkpt>
<trkpt lat="40.0713749" lon="-105.229789">
  <ele>1583.0</ele>
  <time>2026-08-28T17:53:12Z</time>
  <course>247.91</course>
  <speed>0.022360679774997897</speed>
  <fix>3d</fix>
</trkpt>
<trkpt lat="40.0713749" lon="-105.229789">
  <ele>1583.0</ele>
  <time>2026-08-28T17:53:12Z</time>
  <course>0.0</course>
  <speed>0.0</speed>
  <fix>3d</fix>
</trkpt>
<trkpt lat="40.0713749" lon="-105.229789">
  <ele>1583.0</ele>
  <time>2026-08-28T17:53:12Z</time>
  <course>247.9</course>
  <speed>0.022360679774997897</speed>
  <fix>3d</fix>
</trkpt>
<trkpt lat="40.0713749" lon="-105.229789">
  <ele>1583.0</ele>
  <time>2026-08-28T17:53:12Z</time>
  <course>0.0</course>
  <speed>0.0</speed>
  <fix>3d</fix>
</trkpt>
<trkpt lat="40.0713749" lon="-105.229789">
  <ele>1583.0</ele>
  <time>2026-08-28T17:53:12Z</time>
  <course>247.9</course>
  <speed>0.022360679774997897</speed>
  <fix>3d</fix>
</trkpt>
<trkpt lat="40.0713749" lon="-105.229789">
  <ele>1583.0</ele>
  <time>2026-08-28T17:53:12Z</time>
  <course>0.0</course>
  <speed>0.0</speed>
  <fix>3d</fix>
</trkpt>
<trkpt lat="40.0713749" lon="-105.229789">
  <ele>1583.0</ele>
  <time>2026-08-28T17:53:12Z</time>
  <course>247.89</course>
  <speed>0.022360679774997897</speed>
  <fix>3d</fix>
</trkpt>
<trkpt lat="40.0713749" lon="-105.229789">
  <ele>1583.0</ele>
  <time>2026-08-28T17:53:12Z</time>
  <course>0.0</course>
  <speed>0.0</speed>
  <fix>3d</fix>
</trkpt>
<trkpt lat="40.0713749" lon="-105.229789">
  <ele>1583.0</ele>
  <time>2026-08-28T17:53:12Z</time>
  <course>247.89</course>
  <speed>0.022360679774997897</speed>
  <fix>3d</fix>
</trkpt>
<trkpt lat="40.0713749" lon="-105.229789">
  <ele>1583.0</ele>
  <time>2026-08-28T17:53:12Z</time>
  <course>0.0</course>
  <speed>0.0</speed>
  <fix>3d</fix>
</trkpt>
<trkpt lat="40.0713749" lon="-105.229789">
  <ele>1583.0</ele>
  <time>2026-08-28T17:53:12Z</time>
  <course>247.89</course>
  <speed>0.022360679774997897</speed>
  <fix>3d</fix>
</trkpt>
<trkpt lat="40.0713749" lon="-105.229789">
  <ele>1583.0</ele>
  <time>2026-08-28T17:53:12Z</time>
  <course>0.0</course>
  <speed>0.0</speed>
  <fix>3d</fix>
</trkpt>
<trkpt lat="40.0713749" lon="-105.229789">
  <ele>1583.0</ele>
  <time>2026-08-28T17:53:12Z</time>
  <course>247.88</course>
  <speed>0.0316227766016838</speed>
  <fix>3d</fix>
</trkpt>
<trkpt lat="40.0713749" lon="-105.229789">
  <ele>1583.0</ele>
  <time>2026-08-28T17:53:12Z</time>
  <course>0.0</course>
  <speed>0.0</speed>
  <fix>3d</fix>
</trkpt>
<trkpt lat="40.0713749" lon="-105.229789">
  <ele>1583.0</ele>
  <time>2026-08-28T17:53:12Z</time>
  <course>247.88</course>
  <speed>0.0316227766016838</speed>
  <fix>3d</fix>
</trkpt>
<trkpt lat="40.0713749" lon="-105.229789">
  <ele>1583.0</ele>
  <time>2026-08-28T17:53:12Z</time>
  <course>0.0</course>
  <speed>0.0</speed>
  <fix>3d</fix>
</trkpt>
<trkpt lat="40.0713749" lon="-105.229789">
  <ele>1583.0</ele>
  <time>2026-08-28T17:53:12Z</time>
  <course>247.87</course>
  <speed>0.0316227766016838</speed>
  <fix>3d</fix>
</trkpt>
<trkpt lat="40.0713749" lon="-105.229789">
  <ele>1583.0</ele>
  <time>2026-08-28T17:53:12Z</time>
  <course>0.0</course>
  <speed>0.0</speed>
  <fix>3d</fix>
</trkpt>
<trkpt lat="40.0713749" lon="-105.229789">
  <ele>1583.0</ele>
  <time>2026-08-28T17:53:12Z</time>
  <course>247.87</course>
  <speed>0.0316227766016838</speed>
  <fix>3d</fix>
</trkpt>
<trkpt lat="40.0713749" lon="-105.229789">
  <ele>1583.0</ele>
  <time>2026-08-28T17:53:12Z</time>
  <course>0.0</course>
  <speed>0.0</speed>
  <fix>3d</fix>
</trkpt>
<trkpt lat="40.0713749" lon="-105.229789">
  <ele>1583.0</ele>
  <time>2026-08-28T17:53:12Z</time>
  <course>247.87</course>
  <speed>0.0316227766016838</speed>
  <fix>3d</fix>
</trkpt>
<trkpt lat="40.0713749" lon="-105.229789">
  <ele>1583.0</ele>
  <time>2026-08-28T17:53:12Z</time>
  <course>0.0</course>
  <speed>0.0</speed>
  <fix>3d</fix>
</trkpt>
<trkpt lat="40.0713749" lon="-105.229789">
  <ele>1583.0</ele>
  <time>2026-08-28T17:53:12Z</time>
  <course>247.86</course>
  <speed>0.0316227766016838</speed>
  <fix>3d</fix>
</trkpt>
<trkpt lat="40.0713749" lon="-105.229789">
  <ele>1583.0</ele>
  <time>2026-08-28T17:53:12Z</time>
  <course>0.0</course>
  <speed>0.0</speed>
  <fix>3d</fix>
</trkpt>
<trkpt lat="40.0713749" lon="-105.229789">
  <ele>1583.0</ele>
  <time>2026-08-28T17:53:12Z</time>
  <course>247.86</course>
  <speed>0.0316227766016838</speed>
  <fix>3d</fix>
</trkpt>
<trkpt lat="40.0713749" lon="-105.229789">
  <ele>1583.0</ele>
  <time>2026-08-28T17:53:12Z</time>
  <course>0.0</course>
  <speed>0.0</speed>
  <fix>3d</fix>
</trkpt>
<trkpt lat="40.0713749" lon="-105.229789">
  <ele>1583.0</ele>
  <time>2026-08-28T17:53:12Z</time>
  <course>247.85</course>
  <speed>0.0316227766016838</speed>
  <fix>3d</fix>
</trkpt>
<trkpt lat="40.0713749" lon="-105.229789">
  <ele>1583.0</ele>
  <time>2026-08-28T17:53:12Z</time>
  <course>0.0</course>
  <speed>0.0</speed>
  <fix>3d</fix>
</trkpt>
<trkpt lat="40.0713749" lon="-105.229789">
  <ele>1583.0</ele>
  <time>2026-08-28T17:53:12Z</time>
  <course>247.85</course>
  <speed>0.0316227766016838</speed>
  <fix>3d</fix>
</trkpt>
<trkpt lat="40.0713749" lon="-105.229789">
  <ele>1583.0</ele>
  <time>2026-08-28T17:53:12Z</time>
  <course>0.0</course>
  <speed>0.0</speed>
  <fix>3d</fix>
</trkpt>
<trkpt lat="40.0713749" lon="-105.229789">
  <ele>1583.0</ele>
  <time>2026-08-28T17:53:12Z</time>
  <course>247.85</course>
  <speed>0.0316227766016838</speed>
  <fix>3d</fix>
</trkpt>
<trkpt lat="40.0713749" lon="-105.229789">
  <ele>1583.0</ele>
  <time>2026-08-28T17:53:12Z</time>
  <course>0.0</course>
  <speed>0.0</speed>
  <fix>3d</fix>
</trkpt>
<trkpt lat="40.0713749" lon="-105.229789">
  <ele>1583.0</ele>
  <time>2026-08-28T17:53:12Z</time>
  <course>247.84</course>
  <speed>0.0316227766016838</speed>
  <fix>3d</fix>
</trkpt>
<trkpt lat="40.0713749" lon="-105.229789">
  <ele>1583.0</ele>
  <time>2026-08-28T17:53:12Z</time>
  <course>0.0</course>
  <speed>0.0</speed>
  <fix>3d</fix>
</trkpt>
<trkpt lat="40.0713749" lon="-105.229789">
  <ele>1583.0</ele>
  <time>2026-08-28T17:53:12Z</time>
  <course>247.84</course>
  <speed>0.0316227766016838</speed>
  <fix>3d</fix>
</trkpt>
<trkpt lat="40.0713749" lon="-105.229789">
  <ele>1583.0</ele>
  <time>2026-08-28T17:53:12Z</time>
  <course>0.0</course>
  <speed>0.0</speed>
  <fix>3d</fix>
</trkpt>
<trkpt lat="40.0713749" lon="-105.229789">
  <ele>1583.0</ele>
  <time>2026-08-28T17:53:12Z</time>
  <course>247.83</course>
  <speed>0.0316227766016838</speed>
  <fix>3d</fix>
</trkpt>
<trkpt lat="40.0713749" lon="-105.229789">
  <ele>1583.0</ele>
  <time>2026-08-28T17:53:12Z</time>
  <course>0.0</course>
  <speed>0.0</speed>
  <fix>3d</fix>
</trkpt>
<trkpt lat="40.0713749" lon="-105.229789">
  <ele>1583.0</ele>
  <time>2026-08-28T17:53:12Z</time>
  <course>247.83</course>
  <speed>0.0316227766016838</speed>
  <fix>3d</fix>
</trkpt>
<trkpt lat="40.0713749" lon="-105.229789">
  <ele>1583.0</ele>
  <time>2026-08-28T17:53:12Z</time>
  <course>0.0</course>
  <speed>0.0</speed>
  <fix>3d</fix>
</trkpt>
<trkpt lat="40.0713749" lon="-105.229789">
  <ele>1583.0</ele>
  <time>2026-08-28T17:53:12Z</time>
  <course>247.83</course>
  <speed>0.0316227766016838</speed>
  <fix>3d</fix>
</trkpt>
<trkpt lat="40.0713749" lon="-105.229789">
  <ele>1583.0</ele>
  <time>2026-08-28T17:53:12Z</time>
  <course>0.0</course>
  <speed>0.0</speed>
  <fix>3d</fix>
</trkpt>
<trkpt lat="40.0713749" lon="-105.229789">
  <ele>1583.0</ele>
  <time>2026-08-28T17:53:12Z</time>
  <course>247.82</course>
  <speed>0.0316227766016838</speed>
  <fix>3d</fix>
</trkpt>
<trkpt lat="40.0713749" lon="-105.229789">
  <ele>1583.0</ele>
  <time>2026-08-28T17:53:12Z</time>
  <course>0.0</course>
  <speed>0.0</speed>
  <fix>3d</fix>
</trkpt>
<trkpt lat="40.0713749" lon="-105.229789">
  <ele>1583.0</ele>
  <time>2026-08-28T17:53:12Z</time>
  <course>247.82</course>
  <speed>0.0316227766016838</speed>
  <fix>3d</fix>
</trkpt>
<trkpt lat="40.0713749" lon="-105.229789">
  <ele>1583.0</ele>
  <time>2026-08-28T17:53:12Z</time>
  <course>0.0</course>
  <speed>0.0</speed>
  <fix>3d</fix>
</trkpt>
<trkpt lat="40.0713749" lon="-105.229789">
  <ele>1583.0</ele>
  <time>2026-08-28T17:53:12Z</time>
  <course>247.82</course>
  <speed>0.0316227766016838</speed>
  <fix>3d</fix>
</trkpt>
<trkpt lat="40.0713749" lon="-105.229789">
  <ele>1583.0</ele>
  <time>2026-08-28T17:53:12Z</time>
  <course>0.0</course>
  <speed>0.0</speed>
  <fix>3d</fix>
</trkpt>
<trkpt lat="40.0713749" lon="-105.229789">
  <ele>1583.0</ele>
  <time>2026-08-28T17:53:12Z</time>
  <course>247.81</course>
  <speed>0.0316227766016838</speed>
  <fix>3d</fix>
</trkpt>
<trkpt lat="40.0713749" lon="-105.229789">
  <ele>1583.0</ele>
  <time>2026-08-28T17:53:12Z</time>
  <course>0.0</course>
  <speed>0.0</speed>
  <fix>3d</fix>
</trkpt>
<trkpt lat="40.0713749" lon="-105.229789">
  <ele>1583.0</ele>
  <time>2026-08-28T17:53:12Z</time>
  <course>247.81</course>
  <speed>0.0316227766016838</speed>
  <fix>3d</fix>
</trkpt>
<trkpt lat="40.0713749" lon="-105.229789">
  <ele>1583.0</ele>
  <time>2026-08-28T17:53:12Z</time>
  <course>0.0</course>
  <speed>0.0</speed>
  <fix>3d</fix>
</trkpt>
<trkpt lat="40.0713749" lon="-105.229789">
  <ele>1583.0</ele>
  <time>2026-08-28T17:53:12Z</time>
  <course>247.8</course>
  <speed>0.0316227766016838</speed>
  <fix>3d</fix>
</trkpt>
<trkpt lat="40.0713749" lon="-105.229789">
  <ele>1583.0</ele>
  <time>2026-08-28T17:53:12Z</time>
  <course>0.0</course>
  <speed>0.0</speed>
  <fix>3d</fix>
</trkpt>
<trkpt lat="40.0713749" lon="-105.229789">
  <ele>1583.0</ele>
  <time>2026-08-28T17:53:12Z</time>
  <course>247.8</course>
  <speed>0.0316227766016838</speed>
  <fix>3d</fix>
</trkpt>
<trkpt lat="40.0713749" lon="-105.229789">
  <ele>1583.0</ele>
  <time>2026-08-28T17:53:12Z</time>
  <course>0.0</course>
  <speed>0.0</speed>
  <fix>3d</fix>
</trkpt>
<trkpt lat="40.0713749" lon="-105.229789">
  <ele>1583.0</ele>
  <time>2026-08-28T17:53:12Z</time>
  <course>247.8</course>
  <speed>0.0316227766016838</speed>
  <fix>3d</fix>
</trkpt>
<trkpt lat="40.0713749" lon="-105.229789">
  <ele>1583.0</ele>
  <time>2026-08-28T17:53:12Z</time>
  <course>0.0</course>
  <speed>0.0</speed>
  <fix>3d</fix>
</trkpt>
<trkpt lat="40.0713749" lon="-105.229789">
  <ele>1583.0</ele>
  <time>2026-08-28T17:53:12Z</time>
  <course>247.79</course>
  <speed>0.0316227766016838</speed>
  <fix>3d</fix>
</trkpt>
<trkpt lat="40.0713749" lon="-105.229789">
  <ele>1583.0</ele>
  <time>2026-08-28T17:53:12Z</time>
  <course>0.0</course>
  <speed>0.0</speed>
  <fix>3d</fix>
</trkpt>
<trkpt lat="40.0713749" lon="-105.229789">
  <ele>1583.0</ele>
  <time>2026-08-28T17:53:12Z</time>
  <course>247.79</course>
  <speed>0.0316227766016838</speed>
  <fix>3d</fix>
</trkpt>
<trkpt lat="40.0713749" lon="-105.229789">
  <ele>1583.0</ele>
  <time>2026-08-28T17:53:12Z</time>
  <course>0.0</course>
  <speed>0.0</speed>
  <fix>3d</fix>
</trkpt>
<trkpt lat="40.0713749" lon="-105.229789">
  <ele>1583.0</ele>
  <time>2026-08-28T17:53:12Z</time>
  <course>247.79</course>
  <speed>0.0316227766016838</speed>
  <fix>3d</fix>
</trkpt>
<trkpt lat="40.0713749" lon="-105.229789">
  <ele>1583.0</ele>
  <time>2026-08-28T17:53:12Z</time>
  <course>0.0</course>
  <speed>0.0</speed>
  <fix>3d</fix>
</trkpt>
<trkpt lat="40.0713749" lon="-105.229789">
  <ele>1583.0</ele>
  <time>2026-08-28T17:53:12Z</time>
  <course>247.78</course>
  <speed>0.0316227766016838</speed>
  <fix>3d</fix>
</trkpt>
<trkpt lat="40.0713749" lon="-105.229789">
  <ele>1583.0</ele>
  <time>2026-08-28T17:53:12Z</time>
  <course>0.0</course>
  <speed>0.0</speed>
  <fix>3d</fix>
</trkpt>
<trkpt lat="40.0713749" lon="-105.229789">
  <ele>1583.0</ele>
  <time>2026-08-28T17:53:12Z</time>
  <course>247.78</course>
  <speed>0.0316227766016838</speed>
  <fix>3d</fix>
</trkpt>
<trkpt lat="40.0713749" lon="-105.229789">
  <ele>1583.0</ele>
  <time>2026-08-28T17:53:12Z</time>
  <course>0.0</course>
  <speed>0.0</speed>
  <fix>3d</fix>
</trkpt>
<trkpt lat="40.0713749" lon="-105.229789">
  <ele>1583.0</ele>
  <time>2026-08-28T17:53:12Z</time>
  <course>247.78</course>
  <speed>0.0316227766016838</speed>
  <fix>3d</fix>
</trkpt>
<trkpt lat="40.0713749" lon="-105.229789">
  <ele>1583.0</ele>
  <time>2026-08-28T17:53:12Z</time>
  <course>0.0</course>
  <speed>0.0</speed>
  <fix>3d</fix>
</trkpt>
<trkpt lat="40.0713749" lon="-105.229789">
  <ele>1583.0</ele>
  <time>2026-08-28T17:53:12Z</time>
  <course>247.77</course>
  <speed>0.0316227766016838</speed>
  <fix>3d</fix>
</trkpt>
<trkpt lat="40.0713749" lon="-105.229789">
  <ele>1583.0</ele>
  <time>2026-08-28T17:53:12Z</time>
  <course>0.0</course>
  <speed>0.0</speed>
  <fix>3d</fix>
</trkpt>
<trkpt lat="40.0713749" lon="-105.229789">
  <ele>1583.0</ele>
  <time>2026-08-28T17:53:12Z</time>
  <course>247.77</course>
  <speed>0.0316227766016838</speed>
  <fix>3d</fix>
</trkpt>
<trkpt lat="40.0713749" lon="-105.229789">
  <ele>1583.0</ele>
  <time>2026-08-28T17:53:12Z</time>
  <course>0.0</course>
  <speed>0.0</speed>
  <fix>3d</fix>
</trkpt>
<trkpt lat="40.0713749" lon="-105.229789">
  <ele>1583.0</ele>
  <time>2026-08-28T17:53:12Z</time>
  <course>247.76</course>
  <speed>0.0316227766016838</speed>
  <fix>3d</fix>
</trkpt>
<trkpt lat="40.0713749" lon="-105.229789">
  <ele>1583.0</ele>
  <time>2026-08-28T17:53:12Z</time>
  <course>0.0</course>
  <speed>0.0</speed>
  <fix>3d</fix>
</trkpt>
<trkpt lat="40.0713749" lon="-105.229789">
  <ele>1583.0</ele>
  <time>2026-08-28T17:53:12Z</time>
  <course>247.76</course>
  <speed>0.0316227766016838</speed>
  <fix>3d</fix>
</trkpt>
<trkpt lat="40.0713749" lon="-105.229789">
  <ele>1583.0</ele>
  <time>2026-08-28T17:53:12Z</time>
  <course>0.0</course>
  <speed>0.0</speed>
  <fix>3d</fix>
</trkpt>
<trkpt lat="40.0713749" lon="-105.229789">
  <ele>1583.0</ele>
  <time>2026-08-28T17:53:12Z</time>
  <course>247.76</course>
  <speed>0.0316227766016838</speed>
  <fix>3d</fix>
</trkpt>
<trkpt lat="40.0713749" lon="-105.229789">
  <ele>1583.0</ele>
  <time>2026-08-28T17:53:12Z</time>
  <course>0.0</course>
  <speed>0.0</speed>
  <fix>3d</fix>
</trkpt>
<trkpt lat="40.0713749" lon="-105.229789">
  <ele>1583.0</ele>
  <time>2026-08-28T17:53:12Z</time>
  <course>247.75</course>
  <speed>0.0316227766016838</speed>
  <fix>3d</fix>
</trkpt>
<trkpt lat="40.0713749" lon="-105.229789">
  <ele>1583.0</ele>
  <time>2026-08-28T17:53:12Z</time>
  <course>0.0</course>
  <speed>0.0</speed>
  <fix>3d</fix>
</trkpt>
<trkpt lat="40.0713749" lon="-105.229789">
  <ele>1583.0</ele>
  <time>2026-08-28T17:53:12Z</time>
  <course>247.75</course>
  <speed>0.0316227766016838</speed>
  <fix>3d</fix>
</trkpt>
<trkpt lat="40.0713749" lon="-105.229789">
  <ele>1583.0</ele>
  <time>2026-08-28T17:53:12Z</time>
  <course>0.0</course>
  <speed>0.0</speed>
  <fix>3d</fix>
</trkpt>
<trkpt lat="40.0713749" lon="-105.229789">
  <ele>1583.0</ele>
  <time>2026-08-28T17:53:12Z</time>
  <course>247.75</course>
  <speed>0.0316227766016838</speed>
  <fix>3d</fix>
</trkpt>
<trkpt lat="40.0713749" lon="-105.229789">
  <ele>1583.0</ele>
  <time>2026-08-28T17:53:12Z</time>
  <course>0.0</course>
  <speed>0.0</speed>
  <fix>3d</fix>
</trkpt>
<trkpt lat="40.0713749" lon="-105.229789">
  <ele>1583.0</ele>
  <time>2026-08-28T17:53:12Z</time>
  <course>247.74</course>
  <speed>0.0316227766016838</speed>
  <fix>3d</fix>
</trkpt>
<trkpt lat="40.0713749" lon="-105.229789">
  <ele>1583.0</ele>
  <time>2026-08-28T17:53:12Z</time>
  <course>0.0</course>
  <speed>0.0</speed>
  <fix>3d</fix>
</trkpt>
<trkpt lat="40.0713749" lon="-105.229789">
  <ele>1583.0</ele>
  <time>2026-08-28T17:53:12Z</time>
  <course>247.74</course>
  <speed>0.0316227766016838</speed>
  <fix>3d</fix>
</trkpt>
<trkpt lat="40.0713749" lon="-105.229789">
  <ele>1583.0</ele>
  <time>2026-08-28T17:53:12Z</time>
  <course>0.0</course>
  <speed>0.0</speed>
  <fix>3d</fix>
</trkpt>
<trkpt lat="40.0713749" lon="-105.229789">
  <ele>1583.0</ele>
  <time>2026-08-28T17:53:12Z</time>
  <course>247.74</course>
  <speed>0.0316227766016838</speed>
  <fix>3d</fix>
</trkpt>
<trkpt lat="40.0713749" lon="-105.229789">
  <ele>1583.0</ele>
  <time>2026-08-28T17:53:12Z</time>
  <course>0.0</course>
  <speed>0.0</speed>
  <fix>3d</fix>
</trkpt>
<trkpt lat="40.0713749" lon="-105.229789">
  <ele>1583.0</ele>
  <time>2026-08-28T17:53:12Z</time>
  <course>247.73</course>
  <speed>0.0316227766016838</speed>
  <fix>3d</fix>
</trkpt>
<trkpt lat="40.0713749" lon="-105.229789">
  <ele>1583.0</ele>
  <time>2026-08-28T17:53:12Z</time>
  <course>0.0</course>
  <speed>0.0</speed>
  <fix>3d</fix>
</trkpt>
<trkpt lat="40.0713749" lon="-105.229789">
  <ele>1583.0</ele>
  <time>2026-08-28T17:53:12Z</time>
  <course>247.73</course>
  <speed>0.0316227766016838</speed>
  <fix>3d</fix>
</trkpt>
<trkpt lat="40.0713749" lon="-105.229789">
  <ele>1583.0</ele>
  <time>2026-08-28T17:53:12Z</time>
  <course>0.0</course>
  <speed>0.0</speed>
  <fix>3d</fix>
</trkpt>
<trkpt lat="40.0713749" lon="-105.229789">
  <ele>1583.0</ele>
  <time>2026-08-28T17:53:12Z</time>
  <course>247.73</course>
  <speed>0.0316227766016838</speed>
  <fix>3d</fix>
</trkpt>
<trkpt lat="40.0713749" lon="-105.229789">
  <ele>1583.0</ele>
  <time>2026-08-28T17:53:12Z</time>
  <course>0.0</course>
  <speed>0.0</speed>
  <fix>3d</fix>
</trkpt>
<trkpt lat="40.0713749" lon="-105.229789">
  <ele>1583.0</ele>
  <time>2026-08-28T17:53:12Z</time>
  <course>247.72</course>
  <speed>0.0316227766016838</speed>
  <fix>3d</fix>
</trkpt>
<trkpt lat="40.0713749" lon="-105.229789">
  <ele>1583.0</ele>
  <time>2026-08-28T17:53:12Z</time>
  <course>0.0</course>
  <speed>0.0</speed>
  <fix>3d</fix>
</trkpt>
<trkpt lat="40.0713749" lon="-105.229789">
  <ele>1583.0</ele>
  <time>2026-08-28T17:53:12Z</time>
  <course>247.72</course>
  <speed>0.0316227766016838</speed>
  <fix>3d</fix>
</trkpt>
<trkpt lat="40.0713749" lon="-105.229789">
  <ele>1583.0</ele>
  <time>2026-08-28T17:53:12Z</time>
  <course>0.0</course>
  <speed>0.0</speed>
  <fix>3d</fix>
</trkpt>
<trkpt lat="40.0713749" lon="-105.229789">
  <ele>1583.0</ele>
  <time>2026-08-28T17:53:12Z</time>
  <course>247.72</course>
  <speed>0.0316227766016838</speed>
  <fix>3d</fix>
</trkpt>
<trkpt lat="40.0713749" lon="-105.229789">
  <ele>1583.0</ele>
  <time>2026-08-28T17:53:12Z</time>
  <course>0.0</course>
  <speed>0.0</speed>
  <fix>3d</fix>
</trkpt>
<trkpt lat="40.0713749" lon="-105.229789">
  <ele>1583.0</ele>
  <time>2026-08-28T17:53:12Z</time>
  <course>247.71</course>
  <speed>0.0316227766016838</speed>
  <fix>3d</fix>
</trkpt>
<trkpt lat="40.0713749" lon="-105.229789">
  <ele>1583.0</ele>
  <time>2026-08-28T17:53:12Z</time>
  <course>0.0</course>
  <speed>0.0</speed>
  <fix>3d</fix>
</trkpt>
<trkpt lat="40.0713749" lon="-105.229789">
  <ele>1583.0</ele>
  <time>2026-08-28T17:53:12Z</time>
  <course>247.71</course>
  <speed>0.0316227766016838</speed>
  <fix>3d</fix>
</trkpt>
<trkpt lat="40.0713749" lon="-105.229789">
  <ele>1583.0</ele>
  <time>2026-08-28T17:53:12Z</time>
  <course>0.0</course>
  <speed>0.0</speed>
  <fix>3d</fix>
</trkpt>
<trkpt lat="40.0713749" lon="-105.229789">
  <ele>1583.0</ele>
  <time>2026-08-28T17:53:12Z</time>
  <course>247.71</course>
  <speed>0.0316227766016838</speed>
  <fix>3d</fix>
</trkpt>
<trkpt lat="40.0713749" lon="-105.229789">
  <ele>1583.0</ele>
  <time>2026-08-28T17:53:12Z</time>
  <course>0.0</course>
  <speed>0.0</speed>
  <fix>3d</fix>
</trkpt>
<trkpt lat="40.0713749" lon="-105.229789">
  <ele>1583.0</ele>
  <time>2026-08-28T17:53:12Z</time>
  <course>247.7</course>
  <speed>0.0316227766016838</speed>
  <fix>3d</fix>
</trkpt>
<trkpt lat="40.0713749" lon="-105.229789">
  <ele>1583.0</ele>
  <time>2026-08-28T17:53:12Z</time>
  <course>0.0</course>
  <speed>0.0</speed>
  <fix>3d</fix>
</trkpt>
<trkpt lat="40.0713749" lon="-105.229789">
  <ele>1583.0</ele>
  <time>2026-08-28T17:53:12Z</time>
  <course>247.7</course>
  <speed>0.0316227766016838</speed>
  <fix>3d</fix>
</trkpt>
<trkpt lat="40.0713749" lon="-105.229789">
  <ele>1583.0</ele>
  <time>2026-08-28T17:53:12Z</time>
  <course>0.0</course>
  <speed>0.0</speed>
  <fix>3d</fix>
</trkpt>
<trkpt lat="40.0713749" lon="-105.229789">
  <ele>1583.0</ele>
  <time>2026-08-28T17:53:12Z</time>
  <course>247.7</course>
  <speed>0.0316227766016838</speed>
  <fix>3d</fix>
</trkpt>
<trkpt lat="40.0713749" lon="-105.229789">
  <ele>1583.0</ele>
  <time>2026-08-28T17:53:12Z</time>
  <course>0.0</course>
  <speed>0.0</speed>
  <fix>3d</fix>
</trkpt>
<trkpt lat="40.0713749" lon="-105.229789">
  <ele>1583.0</ele>
  <time>2026-08-28T17:53:12Z</time>
  <course>247.69</course>
  <speed>0.0316227766016838</speed>
  <fix>3d</fix>
</trkpt>
<trkpt lat="40.0713749" lon="-105.229789">
  <ele>1583.0</ele>
  <time>2026-08-28T17:53:12Z</time>
  <course>0.0</course>
  <speed>0.0</speed>
  <fix>3d</fix>
</trkpt>
<trkpt lat="40.0713749" lon="-105.229789">
  <ele>1583.0</ele>
  <time>2026-08-28T17:53:12Z</time>
  <course>247.69</course>
  <speed>0.0316227766016838</speed>
  <fix>3d</fix>
</trkpt>
<trkpt lat="40.0713749" lon="-105.229789">
  <ele>1583.0</ele>
  <time>2026-08-28T17:53:12Z</time>
  <course>0.0</course>
  <speed>0.0</speed>
  <fix>3d</fix>
</trkpt>
<trkpt lat="40.0713749" lon="-105.229789">
  <ele>1583.0</ele>
  <time>2026-08-28T17:53:12Z</time>
  <course>247.69</course>
  <speed>0.0316227766016838</speed>
  <fix>3d</fix>
</trkpt>
<trkpt lat="40.0713749" lon="-105.229789">
  <ele>1583.0</ele>
  <time>2026-08-28T17:53:12Z</time>
  <course>0.0</course>
  <speed>0.0</speed>
  <fix>3d</fix>
</trkpt>
<trkpt lat="40.0713749" lon="-105.229789">
  <ele>1583.0</ele>
  <time>2026-08-28T17:53:12Z</time>
  <course>247.68</course>
  <speed>0.0316227766016838</speed>
  <fix>3d</fix>
</trkpt>
<trkpt lat="40.0713749" lon="-105.229789">
  <ele>1583.0</ele>
  <time>2026-08-28T17:53:12Z</time>
  <course>0.0</course>
  <speed>0.0</speed>
  <fix>3d</fix>
</trkpt>
<trkpt lat="40.0713749" lon="-105.229789">
  <ele>1583.0</ele>
  <time>2026-08-28T17:53:12Z</time>
  <course>247.68</course>
  <speed>0.0316227766016838</speed>
  <fix>3d</fix>
</trkpt>
<trkpt lat="40.0713749" lon="-105.229789">
  <ele>1583.0</ele>
  <time>2026-08-28T17:53:12Z</time>
  <course>0.0</course>
  <speed>0.0</speed>
  <fix>3d</fix>
</trkpt>
<trkpt lat="40.0713749" lon="-105.229789">
  <ele>1583.0</ele>
  <time>2026-08-28T17:53:12Z</time>
  <course>247.68</course>
  <speed>0.0316227766016838</speed>
  <fix>3d</fix>
</trkpt>
<trkpt lat="40.0713749" lon="-105.229789">
  <ele>1583.0</ele>
  <time>2026-08-28T17:53:12Z</time>
  <course>0.0</course>
  <speed>0.0</speed>
  <fix>3d</fix>
</trkpt>
<trkpt lat="40.0713749" lon="-105.229789">
  <ele>1583.0</ele>
  <time>2026-08-28T17:53:12Z</time>
  <course>247.67</course>
  <speed>0.0316227766016838</speed>
  <fix>3d</fix>
</trkpt>
<trkpt lat="40.0713749" lon="-105.229789">
  <ele>1583.0</ele>
  <time>2026-08-28T17:53:12Z</time>
  <course>0.0</course>
  <speed>0.0</speed>
  <fix>3d</fix>
</trkpt>
<trkpt lat="40.0713749" lon="-105.229789">
  <ele>1583.0</ele>
  <time>2026-08-28T17:53:12Z</time>
  <course>247.67</course>
  <speed>0.0316227766016838</speed>
  <fix>3d</fix>
</trkpt>
<trkpt lat="40.0713749" lon="-105.229789">
  <ele>1583.0</ele>
  <time>2026-08-28T17:53:12Z</time>
  <course>0.0</course>
  <speed>0.0</speed>
  <fix>3d</fix>
</trkpt>
<trkpt lat="40.0713749" lon="-105.229789">
  <ele>1583.0</ele>
  <time>2026-08-28T17:53:12Z</time>
  <course>247.67</course>
  <speed>0.0316227766016838</speed>
  <fix>3d</fix>
</trkpt>
<trkpt lat="40.0713749" lon="-105.229789">
  <ele>1583.0</ele>
  <time>2026-08-28T17:53:12Z</time>
  <course>0.0</course>
  <speed>0.0</speed>
  <fix>3d</fix>
</trkpt>
<trkpt lat="40.0713749" lon="-105.229789">
  <ele>1583.0</ele>
  <time>2026-08-28T17:53:12Z</time>
  <course>247.66</course>
  <speed>0.0316227766016838</speed>
  <fix>3d</fix>
</trkpt>
<trkpt lat="40.0713749" lon="-105.229789">
  <ele>1583.0</ele>
  <time>2026-08-28T17:53:12Z</time>
  <course>0.0</course>
  <speed>0.0</speed>
  <fix>3d</fix>
</trkpt>
<trkpt lat="40.0713749" lon="-105.229789">
  <ele>1583.0</ele>
  <time>2026-08-28T17:53:12Z</time>
  <course>247.66</course>
  <speed>0.0316227766016838</speed>
  <fix>3d</fix>
</trkpt>
<trkpt lat="40.0713749" lon="-105.229789">
  <ele>1583.0</ele>
  <time>2026-08-28T17:53:12Z</time>
  <course>0.0</course>
  <speed>0.0</speed>
  <fix>3d</fix>
</trkpt>
<trkpt lat="40.0713749" lon="-105.229789">
  <ele>1583.0</ele>
  <time>2026-08-28T17:53:12Z</time>
  <course>247.66</course>
  <speed>0.0316227766016838</speed>
  <fix>3d</fix>
</trkpt>
<trkpt lat="40.0713749" lon="-105.229789">
  <ele>1583.0</ele>
  <time>2026-08-28T17:53:12Z</time>
  <course>0.0</course>
  <speed>0.0</speed>
  <fix>3d</fix>
</trkpt>
<trkpt lat="40.0713749" lon="-105.229789">
  <ele>1583.0</ele>
  <time>2026-08-28T17:53:12Z</time>
  <course>247.65</course>
  <speed>0.0316227766016838</speed>
  <fix>3d</fix>
</trkpt>
<trkpt lat="40.0713749" lon="-105.229789">
  <ele>1583.0</ele>
  <time>2026-08-28T17:53:12Z</time>
  <course>0.0</course>
  <speed>0.0</speed>
  <fix>3d</fix>
</trkpt>
<trkpt lat="40.0713749" lon="-105.229789">
  <ele>1583.0</ele>
  <time>2026-08-28T17:53:12Z</time>
  <course>247.65</course>
  <speed>0.0316227766016838</speed>
  <fix>3d</fix>
</trkpt>
<trkpt lat="40.0713749" lon="-105.229789">
  <ele>1583.0</ele>
  <time>2026-08-28T17:53:12Z</time>
  <course>0.0</course>
  <speed>0.0</speed>
  <fix>3d</fix>
</trkpt>
<trkpt lat="40.0713749" lon="-105.229789">
  <ele>1583.0</ele>
  <time>2026-08-28T17:53:12Z</time>
  <course>247.65</course>
  <speed>0.0316227766016838</speed>
  <fix>3d</fix>
</trkpt>
<trkpt lat="40.0713749" lon="-105.229789">
  <ele>1583.0</ele>
  <time>2026-08-28T17:53:12Z</time>
  <course>0.0</course>
  <speed>0.0</speed>
  <fix>3d</fix>
</trkpt>
<trkpt lat="40.0713749" lon="-105.229789">
  <ele>1583.0</ele>
  <time>2026-08-28T17:53:12Z</time>
  <course>247.64</course>
  <speed>0.0316227766016838</speed>
  <fix>3d</fix>
</trkpt>
<trkpt lat="40.0713749" lon="-105.229789">
  <ele>1583.0</ele>
  <time>2026-08-28T17:53:12Z</time>
  <course>0.0</course>
  <speed>0.0</speed>
  <fix>3d</fix>
</trkpt>
<trkpt lat="40.0713749" lon="-105.229789">
  <ele>1583.0</ele>
  <time>2026-08-28T17:53:12Z</time>
  <course>247.64</course>
  <speed>0.0316227766016838</speed>
  <fix>3d</fix>
</trkpt>
<trkpt lat="40.0713749" lon="-105.229789">
  <ele>1583.0</ele>
  <time>2026-08-28T17:53:12Z</time>
  <course>0.0</course>
  <speed>0.0</speed>
  <fix>3d</fix>
</trkpt>
<trkpt lat="40.0713749" lon="-105.229789">
  <ele>1583.0</ele>
  <time>2026-08-28T17:53:12Z</time>
  <course>247.64</course>
  <speed>0.0316227766016838</speed>
  <fix>3d</fix>
</trkpt>
<trkpt lat="40.0713749" lon="-105.229789">
  <ele>1583.0</ele>
  <time>2026-08-28T17:53:12Z</time>
  <course>0.0</course>
  <speed>0.0</speed>
  <fix>3d</fix>
</trkpt>
<trkpt lat="40.0713749" lon="-105.229789">
  <ele>1583.0</ele>
  <time>2026-08-28T17:53:12Z</time>
  <course>247.64</course>
  <speed>0.0316227766016838</speed>
  <fix>3d</fix>
</trkpt>
<trkpt lat="40.0713749" lon="-105.229789">
  <ele>1583.0</ele>
  <time>2026-08-28T17:53:12Z</time>
  <course>0.0</course>
  <speed>0.0</speed>
  <fix>3d</fix>
</trkpt>
<trkpt lat="40.0713749" lon="-105.229789">
  <ele>1583.0</ele>
  <time>2026-08-28T17:53:12Z</time>
  <course>247.63</course>
  <speed>0.0316227766016838</speed>
  <fix>3d</fix>
</trkpt>
<trkpt lat="40.0713749" lon="-105.229789">
  <ele>1583.0</ele>
  <time>2026-08-28T17:53:12Z</time>
  <course>0.0</course>
  <speed>0.0</speed>
  <fix>3d</fix>
</trkpt>
<trkpt lat="40.0713749" lon="-105.229789">
  <ele>1583.0</ele>
  <time>2026-08-28T17:53:12Z</time>
  <course>247.63</course>
  <speed>0.0316227766016838</speed>
  <fix>3d</fix>
</trkpt>
<trkpt lat="40.0713749" lon="-105.229789">
  <ele>1583.0</ele>
  <time>2026-08-28T17:53:12Z</time>
  <course>0.0</course>
  <speed>0.0</speed>
  <fix>3d</fix>
</trkpt>
<trkpt lat="40.0713749" lon="-105.229789">
  <ele>1583.0</ele>
  <time>2026-08-28T17:53:12Z</time>
  <course>247.63</course>
  <speed>0.0316227766016838</speed>
  <fix>3d</fix>
</trkpt>
<trkpt lat="40.0713749" lon="-105.229789">
  <ele>1583.0</ele>
  <time>2026-08-28T17:53:12Z</time>
  <course>0.0</course>
  <speed>0.0</speed>
  <fix>3d</fix>
</trkpt>
<trkpt lat="40.0713749" lon="-105.229789">
  <ele>1583.0</ele>
  <time>2026-08-28T17:53:12Z</time>
  <course>247.62</course>
  <speed>0.0316227766016838</speed>
  <fix>3d</fix>
</trkpt>
<trkpt lat="40.0713749" lon="-105.229789">
  <ele>1583.0</ele>
  <time>2026-08-28T17:53:12Z</time>
  <course>0.0</course>
  <speed>0.0</speed>
  <fix>3d</fix>
</trkpt>
<trkpt lat="40.0713749" lon="-105.229789">
  <ele>1583.0</ele>
  <time>2026-08-28T17:53:12Z</time>
  <course>247.62</course>
  <speed>0.0316227766016838</speed>
  <fix>3d</fix>
</trkpt>
<trkpt lat="40.0713749" lon="-105.229789">
  <ele>1583.0</ele>
  <time>2026-08-28T17:53:12Z</time>
  <course>0.0</course>
  <speed>0.0</speed>
  <fix>3d</fix>
</trkpt>
<trkpt lat="40.0713749" lon="-105.229789">
  <ele>1583.0</ele>
  <time>2026-08-28T17:53:12Z</time>
  <course>247.62</course>
  <speed>0.0316227766016838</speed>
  <fix>3d</fix>
</trkpt>
<trkpt lat="40.0713749" lon="-105.229789">
  <ele>1583.0</ele>
  <time>2026-08-28T17:53:12Z</time>
  <course>0.0</course>
  <speed>0.0</speed>
  <fix>3d</fix>
</trkpt>
<trkpt lat="40.0713749" lon="-105.229789">
  <ele>1583.0</ele>
  <time>2026-08-28T17:53:12Z</time>
  <course>247.62</course>
  <speed>0.0316227766016838</speed>
  <fix>3d</fix>
</trkpt>
<trkpt lat="40.0713749" lon="-105.229789">
  <ele>1583.0</ele>
  <time>2026-08-28T17:53:12Z</time>
  <course>0.0</course>
  <speed>0.0</speed>
  <fix>3d</fix>
</trkpt>
<trkpt lat="40.0713749" lon="-105.229789">
  <ele>1583.0</ele>
  <time>2026-08-28T17:53:12Z</time>
  <course>247.61</course>
  <speed>0.0316227766016838</speed>
  <fix>3d</fix>
</trkpt>
<trkpt lat="40.0713749" lon="-105.229789">
  <ele>1583.0</ele>
  <time>2026-08-28T17:53:12Z</time>
  <course>0.0</course>
  <speed>0.0</speed>
  <fix>3d</fix>
</trkpt>
<trkpt lat="40.0713749" lon="-105.229789">
  <ele>1583.0</ele>
  <time>2026-08-28T17:53:12Z</time>
  <course>247.61</course>
  <speed>0.0316227766016838</speed>
  <fix>3d</fix>
</trkpt>
<trkpt lat="40.0713749" lon="-105.229789">
  <ele>1583.0</ele>
  <time>2026-08-28T17:53:12Z</time>
  <course>0.0</course>
  <speed>0.0</speed>
  <fix>3d</fix>
</trkpt>
<trkpt lat="40.0713749" lon="-105.229789">
  <ele>1583.0</ele>
  <time>2026-08-28T17:53:12Z</time>
  <course>247.61</course>
  <speed>0.0316227766016838</speed>
  <fix>3d</fix>
</trkpt>
<trkpt lat="40.0713749" lon="-105.229789">
  <ele>1583.0</ele>
  <time>2026-08-28T17:53:12Z</time>
  <course>0.0</course>
  <speed>0.0</speed>
  <fix>3d</fix>
</trkpt>
<trkpt lat="40.0713749" lon="-105.229789">
  <ele>1583.0</ele>
  <time>2026-08-28T17:53:12Z</time>
  <course>247.6</course>
  <speed>0.0316227766016838</speed>
  <fix>3d</fix>
</trkpt>
<trkpt lat="40.0713749" lon="-105.229789">
  <ele>1583.0</ele>
  <time>2026-08-28T17:53:12Z</time>
  <course>0.0</course>
  <speed>0.0</speed>
  <fix>3d</fix>
</trkpt>
<trkpt lat="40.0713749" lon="-105.229789">
  <ele>1583.0</ele>
  <time>2026-08-28T17:53:12Z</time>
  <course>247.6</course>
  <speed>0.0316227766016838</speed>
  <fix>3d</fix>
</trkpt>
<trkpt lat="40.0713749" lon="-105.229789">
  <ele>1583.0</ele>
  <time>2026-08-28T17:53:12Z</time>
  <course>0.0</course>
  <speed>0.0</speed>
  <fix>3d</fix>
</trkpt>
<trkpt lat="40.0713749" lon="-105.229789">
  <ele>1583.0</ele>
  <time>2026-08-28T17:53:12Z</time>
  <course>247.6</course>
  <speed>0.0316227766016838</speed>
  <fix>3d</fix>
</trkpt>
<trkpt lat="40.0713749" lon="-105.229789">
  <ele>1583.0</ele>
  <time>2026-08-28T17:53:12Z</time>
  <course>0.0</course>
  <speed>0.0</speed>
  <fix>3d</fix>
</trkpt>
<trkpt lat="40.0713749" lon="-105.229789">
  <ele>1583.0</ele>
  <time>2026-08-28T17:53:12Z</time>
  <course>247.6</course>
  <speed>0.0316227766016838</speed>
  <fix>3d</fix>
</trkpt>
<trkpt lat="40.0713749" lon="-105.229789">
  <ele>1583.0</ele>
  <time>2026-08-28T17:53:12Z</time>
  <course>0.0</course>
  <speed>0.0</speed>
  <fix>3d</fix>
</trkpt>
<trkpt lat="40.0713749" lon="-105.229789">
  <ele>1583.0</ele>
  <time>2026-08-28T17:53:12Z</time>
  <course>247.59</course>
  <speed>0.0316227766016838</speed>
  <fix>3d</fix>
</trkpt>
<trkpt lat="40.0713749" lon="-105.229789">
  <ele>1583.0</ele>
  <time>2026-08-28T17:53:12Z</time>
  <course>0.0</course>
  <speed>0.0</speed>
  <fix>3d</fix>
</trkpt>
<trkpt lat="40.0713749" lon="-105.229789">
  <ele>1582.92</ele>
  <time>2026-08-28T17:53:12Z</time>
  <course>247.59</course>
  <speed>0.0</speed>
  <fix>3d</fix>
</trkpt>
<trkpt lat="40.0713749" lon="-105.229789">
  <ele>1583.0</ele>
  <time>2026-08-28T17:53:12Z</time>
  <course>0.0</course>
  <speed>0.0</speed>
  <fix>3d</fix>
</trkpt>
<trkpt lat="40.0713749" lon="-105.229789">
  <ele>1582.92</ele>
  <time>2026-08-28T17:53:12Z</time>
  <course>247.59</course>
  <speed>0.0</speed>
  <fix>3d</fix>
</trkpt>
<trkpt lat="40.0713749" lon="-105.229789">
  <ele>1583.0</ele>
  <time>2026-08-28T17:53:12Z</time>
  <course>0.0</course>
  <speed>0.0</speed>
  <fix>3d</fix>
</trkpt>
<trkpt lat="40.0713749" lon="-105.229789">
  <ele>1582.91</ele>
  <time>2026-08-28T17:53:12Z</time>
  <course>247.58</course>
  <speed>0.0</speed>
  <fix>3d</fix>
</trkpt>
<trkpt lat="40.0713749" lon="-105.229789">
  <ele>1583.0</ele>
  <time>2026-08-28T17:53:12Z</time>
  <course>0.0</course>
  <speed>0.0</speed>
  <fix>3d</fix>
</trkpt>
<trkpt lat="40.0713749" lon="-105.229789">
  <ele>1582.91</ele>
  <time>2026-08-28T17:53:12Z</time>
  <course>247.58</course>
  <speed>0.0</speed>
  <fix>3d</fix>
</trkpt>
<trkpt lat="40.0713749" lon="-105.229789">
  <ele>1583.0</ele>
  <time>2026-08-28T17:53:12Z</time>
  <course>0.0</course>
  <speed>0.0</speed>
  <fix>3d</fix>
</trkpt>
<trkpt lat="40.0713749" lon="-105.229789">
  <ele>1582.9</ele>
  <time>2026-08-28T17:53:12Z</time>
  <course>247.58</course>
  <speed>0.0</speed>
  <fix>3d</fix>
</trkpt>
<trkpt lat="40.0713749" lon="-105.229789">
  <ele>1583.0</ele>
  <time>2026-08-28T17:53:12Z</time>
  <course>0.0</course>
  <speed>0.0</speed>
  <fix>3d</fix>
</trkpt>
<trkpt lat="40.0713749" lon="-105.229789">
  <ele>1582.9</ele>
  <time>2026-08-28T17:53:12Z</time>
  <course>247.58</course>
  <speed>0.0</speed>
  <fix>3d</fix>
</trkpt>
<trkpt lat="40.0713749" lon="-105.229789">
  <ele>1583.0</ele>
  <time>2026-08-28T17:53:12Z</time>
  <course>0.0</course>
  <speed>0.0</speed>
  <fix>3d</fix>
</trkpt>
<trkpt lat="40.0713749" lon="-105.229789">
  <ele>1582.9</ele>
  <time>2026-08-28T17:53:12Z</time>
  <course>247.57</course>
  <speed>0.0</speed>
  <fix>3d</fix>
</trkpt>
<trkpt lat="40.0713749" lon="-105.229789">
  <ele>1583.0</ele>
  <time>2026-08-28T17:53:12Z</time>
  <course>0.0</course>
  <speed>0.0</speed>
  <fix>3d</fix>
</trkpt>
<trkpt lat="40.0713749" lon="-105.229789">
  <ele>1582.9</ele>
  <time>2026-08-28T17:53:12Z</time>
  <course>247.57</course>
  <speed>0.0</speed>
  <fix>3d</fix>
</trkpt>
<trkpt lat="40.0713749" lon="-105.229789">
  <ele>1583.0</ele>
  <time>2026-08-28T17:53:12Z</time>
  <course>0.0</course>
  <speed>0.0</speed>
  <fix>3d</fix>
</trkpt>
<trkpt lat="40.0713749" lon="-105.229789">
  <ele>1582.9</ele>
  <time>2026-08-28T17:53:12Z</time>
  <course>247.57</course>
  <speed>0.0</speed>
  <fix>3d</fix>
</trkpt>
<trkpt lat="40.0713749" lon="-105.229789">
  <ele>1583.0</ele>
  <time>2026-08-28T17:53:12Z</time>
  <course>0.0</course>
  <speed>0.0</speed>
  <fix>3d</fix>
</trkpt>
<trkpt lat="40.0713749" lon="-105.229789">
  <ele>1582.9</ele>
  <time>2026-08-28T17:53:12Z</time>
  <course>247.57</course>
  <speed>0.01</speed>
  <fix>3d</fix>
</trkpt>
<trkpt lat="40.0713749" lon="-105.229789">
  <ele>1583.0</ele>
  <time>2026-08-28T17:53:12Z</time>
  <course>0.0</course>
  <speed>0.0</speed>
  <fix>3d</fix>
</trkpt>
<trkpt lat="40.0713749" lon="-105.229789">
  <ele>1582.9</ele>
  <time>2026-08-28T17:53:12Z</time>
  <course>247.56</course>
  <speed>0.01</speed>
  <fix>3d</fix>
</trkpt>
<trkpt lat="40.0713749" lon="-105.229789">
  <ele>1583.0</ele>
  <time>2026-08-28T17:53:12Z</time>
  <course>0.0</course>
  <speed>0.0</speed>
  <fix>3d</fix>
</trkpt>
<trkpt lat="40.0713749" lon="-105.229789">
  <ele>1582.91</ele>
  <time>2026-08-28T17:53:12Z</time>
  <course>247.56</course>
  <speed>0.01</speed>
  <fix>3d</fix>
</trkpt>
<trkpt lat="40.0713749" lon="-105.229789">
  <ele>1583.0</ele>
  <time>2026-08-28T17:53:12Z</time>
  <course>0.0</course>
  <speed>0.0</speed>
  <fix>3d</fix>
</trkpt>
<trkpt lat="40.0713749" lon="-105.229789">
  <ele>1582.91</ele>
  <time>2026-08-28T17:53:12Z</time>
  <course>247.56</course>
  <speed>0.01</speed>
  <fix>3d</fix>
</trkpt>
<trkpt lat="40.0713749" lon="-105.229789">
  <ele>1583.0</ele>
  <time>2026-08-28T17:53:12Z</time>
  <course>0.0</course>
  <speed>0.0</speed>
  <fix>3d</fix>
</trkpt>
<trkpt lat="40.0713749" lon="-105.229789">
  <ele>1582.92</ele>
  <time>2026-08-28T17:53:12Z</time>
  <course>247.56</course>
  <speed>0.01</speed>
  <fix>3d</fix>
</trkpt>
<trkpt lat="40.0713749" lon="-105.229789">
  <ele>1583.0</ele>
  <time>2026-08-28T17:53:12Z</time>
  <course>0.0</course>
  <speed>0.0</speed>
  <fix>3d</fix>
</trkpt>
<trkpt lat="40.0713749" lon="-105.229789">
  <ele>1582.92</ele>
  <time>2026-08-28T17:53:12Z</time>
  <course>247.55</course>
  <speed>0.01</speed>
  <fix>3d</fix>
</trkpt>
<trkpt lat="40.0713749" lon="-105.229789">
  <ele>1583.0</ele>
  <time>2026-08-28T17:53:12Z</time>
  <course>0.0</course>
  <speed>0.0</speed>
  <fix>3d</fix>
</trkpt>
<trkpt lat="40.0713749" lon="-105.229789">
  <ele>1582.92</ele>
  <time>2026-08-28T17:53:12Z</time>
  <course>247.55</course>
  <speed>0.01</speed>
  <fix>3d</fix>
</trkpt>
<trkpt lat="40.0713749" lon="-105.229789">
  <ele>1583.0</ele>
  <time>2026-08-28T17:53:12Z</time>
  <course>0.0</course>
  <speed>0.0</speed>
  <fix>3d</fix>
</trkpt>
<trkpt lat="40.0713749" lon="-105.229789">
  <ele>1582.93</ele>
  <time>2026-08-28T17:53:12Z</time>
  <course>247.55</course>
  <speed>0.01</speed>
  <fix>3d</fix>
</trkpt>
<trkpt lat="40.0713749" lon="-105.229789">
  <ele>1583.0</ele>
  <time>2026-08-28T17:53:12Z</time>
  <course>0.0</course>
  <speed>0.0</speed>
  <fix>3d</fix>
</trkpt>
<trkpt lat="40.0713749" lon="-105.229789">
  <ele>1582.93</ele>
  <time>2026-08-28T17:53:12Z</time>
  <course>247.54</course>
  <speed>0.01</speed>
  <fix>3d</fix>
</trkpt>
<trkpt lat="40.0713749" lon="-105.229789">
  <ele>1583.0</ele>
  <time>2026-08-28T17:53:12Z</time>
  <course>0.0</course>
  <speed>0.0</speed>
  <fix>3d</fix>
</trkpt>
<trkpt lat="40.0713749" lon="-105.229789">
  <ele>1582.93</ele>
  <time>2026-08-28T17:53:12Z</time>
  <course>247.53</course>
  <speed>0.01</speed>
  <fix>3d</fix>
</trkpt>
<trkpt lat="40.0713749" lon="-105.229789">
  <ele>1583.0</ele>
  <time>2026-08-28T17:53:12Z</time>
  <course>245.99</course>
  <speed>0.0</speed>
  <fix>3d</fix>
</trkpt>
<trkpt lat="40.0713749" lon="-105.229789">
  <ele>1582.93</ele>
  <time>2026-08-28T17:53:12Z</time>
  <course>247.54</course>
  <speed>0.01414213562373095</speed>
  <fix>3d</fix>
</trkpt>
<trkpt lat="40.0713749" lon="-105.229789">
  <ele>1583.0</ele>
  <time>2026-08-28T17:53:12Z</time>
  <course>245.99</course>
  <speed>0.0</speed>
  <fix>3d</fix>
</trkpt>
<trkpt lat="40.0713749" lon="-105.229789">
  <ele>1582.94</ele>
  <time>2026-08-28T17:53:12Z</time>
  <course>247.63</course>
  <speed>0.02</speed>
  <fix>3d</fix>
</trkpt>
<trkpt lat="40.0713749" lon="-105.229789">
  <ele>1583.0</ele>
  <time>2026-08-28T17:53:12Z</time>
  <course>245.99</course>
  <speed>0.01</speed>
  <fix>3d</fix>
</trkpt>
<trkpt lat="40.0713749" lon="-105.229789">
  <ele>1582.94</ele>
  <time>2026-08-28T17:53:12Z</time>
  <course>247.81</course>
  <speed>0.04</speed>
  <fix>3d</fix>
</trkpt>
<trkpt lat="40.0713749" lon="-105.229789">
  <ele>1583.0</ele>
  <time>2026-08-28T17:53:12Z</time>
  <course>246.19</course>
  <speed>0.04</speed>
  <fix>3d</fix>
</trkpt>
<trkpt lat="40.0713749" lon="-105.2297891">
  <ele>1582.94</ele>
  <time>2026-08-28T17:53:12Z</time>
  <course>248.14</course>
  <speed>0.07071067811865475</speed>
  <fix>3d</fix>
</trkpt>
<trkpt lat="40.0713749" lon="-105.229789">
  <ele>1583.0</ele>
  <time>2026-08-28T17:53:12Z</time>
  <course>246.19</course>
  <speed>0.04</speed>
  <fix>3d</fix>
</trkpt>
<trkpt lat="40.0713749" lon="-105.2297892">
  <ele>1582.95</ele>
  <time>2026-08-28T17:53:12Z</time>
  <course>248.72</course>
  <speed>0.1118033988749895</speed>
  <fix>3d</fix>
</trkpt>
<trkpt lat="40.0713749" lon="-105.2297892">
  <ele>1583.0</ele>
  <time>2026-08-28T17:53:12Z</time>
  <course>246.89</course>
  <speed>0.09</speed>
  <fix>3d</fix>
</trkpt>
<trkpt lat="40.0713749" lon="-105.2297894">
  <ele>1582.95</ele>
  <time>2026-08-28T17:53:12Z</time>
  <course>249.66</course>
  <speed>0.1649242250247064</speed>
  <fix>3d</fix>
</trkpt>
<trkpt lat="40.0713749" lon="-105.2297892">
  <ele>1583.0</ele>
  <time>2026-08-28T17:53:12Z</time>
  <course>246.89</course>
  <speed>0.09</speed>
  <fix>3d</fix>
</trkpt>
<trkpt lat="40.0713748" lon="-105.2297897">
  <ele>1582.95</ele>
  <time>2026-08-28T17:53:12Z</time>
  <course>250.99</course>
  <speed>0.22803508501982758</speed>
  <fix>3d</fix>
</trkpt>
<trkpt lat="40.0713748" lon="-105.2297895">
  <ele>1583.0</ele>
  <time>2026-08-28T17:53:12Z</time>
  <course>248.67</course>
  <speed>0.18</speed>
  <fix>3d</fix>
</trkpt>
<trkpt lat="40.0713747" lon="-105.22979">
  <ele>1582.96</ele>
  <time>2026-08-28T17:53:12Z</time>
  <course>252.74</course>
  <speed>0.29832867780352595</speed>
  <fix>3d</fix>
</trkpt>
<trkpt lat="40.0713748" lon="-105.2297895">
  <ele>1583.0</ele>
  <time>2026-08-28T17:53:12Z</time>
  <course>248.67</course>
  <speed>0.18</speed>
  <fix>3d</fix>
</trkpt>
<trkpt lat="40.0713746" lon="-105.2297904">
  <ele>1582.96</ele>
  <time>2026-08-28T17:53:12Z</time>
  <course>254.99</course>
  <speed>0.388329756778952</speed>
  <fix>3d</fix>
</trkpt>
<trkpt lat="40.0713747" lon="-105.22979">
  <ele>1583.0</ele>
  <time>2026-08-28T17:53:12Z</time>
  <course>251.98</course>
  <speed>0.31</speed>
  <fix>3d</fix>
</trkpt>
<trkpt lat="40.0713745" lon="-105.2297909">
  <ele>1582.96</ele>
  <time>2026-08-28T17:53:12Z</time>
  <course>257.82</course>
  <speed>0.48662100242385753</speed>
  <fix>3d</fix>
</trkpt>
<trkpt lat="40.0713747" lon="-105.22979">
  <ele>1583.0</ele>
  <time>2026-08-28T17:53:12Z</time>
  <course>251.98</course>
  <speed>0.31</speed>
  <fix>3d</fix>
</trkpt>
<trkpt lat="40.0713745" lon="-105.2297916">
  <ele>1582.96</ele>
  <time>2026-08-28T17:53:12Z</time>
  <course>261.23</course>
  <speed>0.5842088667591412</speed>
  <fix>3d</fix>
</trkpt>
<trkpt lat="40.0713745" lon="-105.2297909">
  <ele>1583.0</ele>
  <time>2026-08-28T17:53:12Z</time>
  <course>257.22</course>
  <speed>0.49</speed>
  <fix>3d</fix>
</trkpt>
<trkpt lat="40.0713744" lon="-105.2297924">
  <ele>1582.96</ele>
  <time>2026-08-28T17:53:12Z</time>
  <course>265.3</course>
  <speed>0.7011419257183242</speed>
  <fix>3d</fix>
</trkpt>
<trkpt lat="40.0713745" lon="-105.2297909">
  <ele>1583.0</ele>
  <time>2026-08-28T17:53:12Z</time>
  <course>257.22</course>
  <speed>0.49</speed>
  <fix>3d</fix>
</trkpt>
<trkpt lat="40.0713744" lon="-105.2297933">
  <ele>1582.96</ele>
  <time>2026-08-28T17:53:12Z</time>
  <course>270.07</course>
  <speed>0.8200609733428362</speed>
  <fix>3d</fix>
</trkpt>
<trkpt lat="40.0713743" lon="-105.2297922">
  <ele>1583.0</ele>
  <time>2026-08-28T17:53:12Z</time>
  <course>264.86</course>
  <speed>0.69</speed>
  <fix>3d</fix>
</trkpt>
<trkpt lat="40.0713744" lon="-105.2297944">
  <ele>1582.96</ele>
  <time>2026-08-28T17:53:12Z</time>
  <course>275.56</course>
  <speed>0.9353608929178086</speed>
  <fix>3d</fix>
</trkpt>
<trkpt lat="40.0713743" lon="-105.2297922">
  <ele>1583.0</ele>
  <time>2026-08-28T17:53:12Z</time>
  <course>264.86</course>
  <speed>0.69</speed>
  <fix>3d</fix>
</trkpt>
<trkpt lat="40.0713745" lon="-105.2297956">
  <ele>1582.95</ele>
  <time>2026-08-28T17:53:12Z</time>
  <course>281.8</course>
  <speed>1.0651291001564083</speed>
  <fix>3d</fix>
</trkpt>
<trkpt lat="40.0713742" lon="-105.2297941">
  <ele>1583.0</ele>
  <time>2026-08-28T17:53:12Z</time>
  <course>275.21</course>
  <speed>0.91</speed>
  <fix>3d</fix>
</trkpt>
<trkpt lat="40.0713747" lon="-105.2297969">
  <ele>1582.95</ele>
  <time>2026-08-28T17:53:12Z</time>
  <course>288.81</course>
  <speed>1.1859595271340417</speed>
  <fix>3d</fix>
</trkpt>
<trkpt lat="40.0713742" lon="-105.2297941">
  <ele>1583.0</ele>
  <time>2026-08-28T17:53:12Z</time>
  <course>275.21</course>
  <speed>0.91</speed>
  <fix>3d</fix>
</trkpt>
<trkpt lat="40.0713752" lon="-105.2297983">
  <ele>1582.95</ele>
  <time>2026-08-28T17:53:12Z</time>
  <course>296.59</course>
  <speed>1.3148764200486676</speed>
  <fix>3d</fix>
</trkpt>
<trkpt lat="40.0713742" lon="-105.2297941">
  <ele>1583.0</ele>
  <time>2026-08-28T17:53:12Z</time>
  <course>275.21</course>
  <speed>0.91</speed>
  <fix>3d</fix>
</trkpt>
<trkpt lat="40.0713758" lon="-105.2297996">
  <ele>1582.95</ele>
  <time>2026-08-28T17:53:12Z</time>
  <course>304.47</course>
  <speed>1.4369411957348845</speed>
  <fix>3d</fix>
</trkpt>
<trkpt lat="40.0713746" lon="-105.2297965">
  <ele>1583.0</ele>
  <time>2026-08-28T17:53:12Z</time>
  <course>288.57</course>
  <speed>1.15</speed>
  <fix>3d</fix>
</trkpt>
<trkpt lat="40.0713766" lon="-105.229801">
  <ele>1582.95</ele>
  <time>2026-08-28T17:53:12Z</time>
  <course>311.79</course>
  <speed>1.5646405337968208</speed>
  <fix>3d</fix>
</trkpt>
<trkpt lat="40.0713746" lon="-105.2297965">
  <ele>1583.0</ele>
  <time>2026-08-28T17:53:12Z</time>
  <course>288.57</course>
  <speed>1.15</speed>
  <fix>3d</fix>
</trkpt>
<trkpt lat="40.0713777" lon="-105.2298023">
  <ele>1582.95</ele>
  <time>2026-08-28T17:53:12Z</time>
  <course>318.83</course>
  <speed>1.666043216726385</speed>
  <fix>3d</fix>
</trkpt>
<trkpt lat="40.0713757" lon="-105.2297993">
  <ele>1583.0</ele>
  <time>2026-08-28T17:53:12Z</time>
  <course>303.49</course>
  <speed>1.39</speed>
  <fix>3d</fix>
</trkpt>
<trkpt lat="40.0713789" lon="-105.2298036">
  <ele>1582.95</ele>
  <time>2026-08-28T17:53:12Z</time>
  <course>325.42</course>
  <speed>1.755733464965568</speed>
  <fix>3d</fix>
</trkpt>
<trkpt lat="40.0713757" lon="-105.2297993">
  <ele>1583.0</ele>
  <time>2026-08-28T17:53:12Z</time>
  <course>303.49</course>
  <speed>1.39</speed>
  <fix>3d</fix>
</trkpt>
<trkpt lat="40.0713803" lon="-105.2298046">
  <ele>1582.95</ele>
  <time>2026-08-28T17:53:12Z</time>
  <course>331.3</course>
  <speed>1.8435834670553977</speed>
  <fix>3d</fix>
</trkpt>
<trkpt lat="40.0713774" lon="-105.2298019">
  <ele>1583.0</ele>
  <time>2026-08-28T17:53:12Z</time>
  <course>317.66</course>
  <speed>1.62</speed>
  <fix>3d</fix>
</trkpt>
<trkpt lat="40.0713818" lon="-105.2298056">
  <ele>1582.95</ele>
  <time>2026-08-28T17:53:12Z</time>
  <course>336.3</course>
  <speed>1.921067411623028</speed>
  <fix>3d</fix>
</trkpt>
<trkpt lat="40.0713774" lon="-105.2298019">
  <ele>1583.0</ele>
  <time>2026-08-28T17:53:12Z</time>
  <course>317.66</course>
  <speed>1.62</speed>
  <fix>3d</fix>
</trkpt>
<trkpt lat="40.0713834" lon="-105.2298064">
  <ele>1582.95</ele>
  <time>2026-08-28T17:53:12Z</time>
  <course>340.58</course>
  <speed>2.01136769388394</speed>
  <fix>3d</fix>
</trkpt>
<trkpt lat="40.0713799" lon="-105.2298042">
  <ele>1583.0</ele>
  <time>2026-08-28T17:53:12Z</time>
  <course>329.74</course>
  <speed>1.8</speed>
  <fix>3d</fix>
</trkpt>
<trkpt lat="40.0713852" lon="-105.2298071">
  <ele>1582.95</ele>
  <time>2026-08-28T17:53:12Z</time>
  <course>344.19</course>
  <speed>2.0961870145576227</speed>
  <fix>3d</fix>
</trkpt>
<trkpt lat="40.071383" lon="-105.2298061">
  <ele>1583.0</ele>
  <time>2026-08-28T17:53:12Z</time>
  <course>339.04</course>
  <speed>1.97</speed>
  <fix>3d</fix>
</trkpt>
<trkpt lat="40.071387" lon="-105.2298077">
  <ele>1582.96</ele>
  <time>2026-08-28T17:53:12Z</time>
  <course>347.24</course>
  <speed>2.1834147567514517</speed>
  <fix>3d</fix>
</trkpt>
<trkpt lat="40.071383" lon="-105.2298061">
  <ele>1583.0</ele>
  <time>2026-08-28T17:53:12Z</time>
  <course>339.04</course>
  <speed>1.97</speed>
  <fix>3d</fix>
</trkpt>
<trkpt lat="40.071389" lon="-105.2298082">
  <ele>1582.96</ele>
  <time>2026-08-28T17:53:12Z</time>
  <course>349.77</course>
  <speed>2.275434024532463</speed>
  <fix>3d</fix>
</trkpt>
<trkpt lat="40.0713865" lon="-105.2298076">
  <ele>1583.0</ele>
  <time>2026-08-28T17:53:12Z</time>
  <course>345.72</course>
  <speed>2.14</speed>
  <fix>3d</fix>
</trkpt>
<trkpt lat="40.071391" lon="-105.2298087">
  <ele>1582.97</ele>
  <time>2026-08-28T17:53:12Z</time>
  <course>351.9</course>
  <speed>2.3631546711969573</speed>
  <fix>3d</fix>
</trkpt>
<trkpt lat="40.0713865" lon="-105.2298076">
  <ele>1583.0</ele>
  <time>2026-08-28T17:53:12Z</time>
  <course>345.72</course>
  <speed>2.14</speed>
  <fix>3d</fix>
</trkpt>
<trkpt lat="40.0713932" lon="-105.229809">
  <ele>1582.97</ele>
  <time>2026-08-28T17:53:12Z</time>
  <course>353.69</course>
  <speed>2.4648326515201795</speed>
  <fix>3d</fix>
</trkpt>
<trkpt lat="40.0713904" lon="-105.2298087">
  <ele>1583.0</ele>
  <time>2026-08-28T17:53:12Z</time>
  <course>350.46</course>
  <speed>2.32</speed>
  <fix>3d</fix>
</trkpt>
<trkpt lat="40.0713954" lon="-105.2298093">
  <ele>1582.98</ele>
  <time>2026-08-28T17:53:12Z</time>
  <course>355.2</course>
  <speed>2.5586324472264477</speed>
  <fix>3d</fix>
</trkpt>
<trkpt lat="40.0713904" lon="-105.2298087">
  <ele>1583.0</ele>
  <time>2026-08-28T17:53:12Z</time>
  <course>350.46</course>
  <speed>2.32</speed>
  <fix>3d</fix>
</trkpt>
<trkpt lat="40.0713978" lon="-105.2298096">
  <ele>1582.98</ele>
  <time>2026-08-28T17:53:12Z</time>
  <course>356.5</course>
  <speed>2.6548257946614875</speed>
  <fix>3d</fix>
</trkpt>
<trkpt lat="40.0713947" lon="-105.2298094">
  <ele>1583.0</ele>
  <time>2026-08-28T17:53:12Z</time>
  <course>353.8</course>
  <speed>2.5</speed>
  <fix>3d</fix>
</trkpt>
<trkpt lat="40.0714002" lon="-105.2298098">
  <ele>1582.98</ele>
  <time>2026-08-28T17:53:12Z</time>
  <course>357.61</course>
  <speed>2.7526169366622737</speed>
  <fix>3d</fix>
</trkpt>
<trkpt lat="40.0713947" lon="-105.2298094">
  <ele>1583.0</ele>
  <time>2026-08-28T17:53:12Z</time>
  <course>353.8</course>
  <speed>2.5</speed>
  <fix>3d</fix>
</trkpt>
<trkpt lat="40.0714027" lon="-105.2298099">
  <ele>1582.97</ele>
  <time>2026-08-28T17:53:12Z</time>
  <course>358.57</course>
  <speed>2.85112258592997</speed>
  <fix>3d</fix>
</trkpt>
<trkpt lat="40.0713994" lon="-105.2298099">
  <ele>1583.0</ele>
  <time>2026-08-28T17:53:12Z</time>
  <course>356.23</course>
  <speed>2.69</speed>
  <fix>3d</fix>
</trkpt>
<trkpt lat="40.0714054" lon="-105.22981">
  <ele>1582.97</ele>
  <time>2026-08-28T17:53:12Z</time>
  <course>359.39</course>
  <speed>2.9502711739770633</speed>
  <fix>3d</fix>
</trkpt>
<trkpt lat="40.0713994" lon="-105.2298099">
  <ele>1583.0</ele>
  <time>2026-08-28T17:53:12Z</time>
  <course>356.23</course>
  <speed>2.69</speed>
  <fix>3d</fix>
</trkpt>
<trkpt lat="40.071408" lon="-105.2298101">
  <ele>1582.97</ele>
  <time>2026-08-28T17:53:12Z</time>
  <course>0.1</course>
  <speed>3.0500163933985664</speed>
  <fix>3d</fix>
</trkpt>
<trkpt lat="40.0714044" lon="-105.2298103">
  <ele>1583.0</ele>
  <time>2026-08-28T17:53:12Z</time>
  <course>358.04</course>
  <speed>2.88</speed>
  <fix>3d</fix>
</trkpt>
<trkpt lat="40.0714108" lon="-105.2298101">
  <ele>1582.97</ele>
  <time>2026-08-28T17:53:12Z</time>
  <course>0.74</course>
  <speed>3.1400636936215163</speed>
  <fix>3d</fix>
</trkpt>
<trkpt lat="40.0714044" lon="-105.2298103">
  <ele>1583.0</ele>
  <time>2026-08-28T17:53:12Z</time>
  <course>358.04</course>
  <speed>2.88</speed>
  <fix>3d</fix>
</trkpt>
<trkpt lat="40.0714137" lon="-105.2298101">
  <ele>1582.97</ele>
  <time>2026-08-28T17:53:12Z</time>
  <course>1.32</course>
  <speed>3.240385779502188</speed>
  <fix>3d</fix>
</trkpt>
<trkpt lat="40.0714098" lon="-105.2298104">
  <ele>1583.0</ele>
  <time>2026-08-28T17:53:12Z</time>
  <course>359.43</course>
  <speed>3.07</speed>
  <fix>3d</fix>
</trkpt>
<trkpt lat="40.0714166" lon="-105.2298101">
  <ele>1582.97</ele>
  <time>2026-08-28T17:53:12Z</time>
  <course>1.87</course>
  <speed>3.330960822345409</speed>
  <fix>3d</fix>
</trkpt>
<trkpt lat="40.0714098" lon="-105.2298104">
  <ele>1583.0</ele>
  <time>2026-08-28T17:53:12Z</time>
  <course>359.43</course>
  <speed>3.07</speed>
  <fix>3d</fix>
</trkpt>
<trkpt lat="40.0714197" lon="-105.22981">
  <ele>1582.97</ele>
  <time>2026-08-28T17:53:12Z</time>
  <course>2.38</course>
  <speed>3.3917841912480227</speed>
  <fix>3d</fix>
</trkpt>
<trkpt lat="40.0714098" lon="-105.2298104">
  <ele>1583.0</ele>
  <time>2026-08-28T17:53:12Z</time>
  <course>359.43</course>
  <speed>3.07</speed>
  <fix>3d</fix>
</trkpt>
<trkpt lat="40.0714227" lon="-105.2298099">
  <ele>1582.97</ele>
  <time>2026-08-28T17:53:12Z</time>
  <course>2.87</course>
  <speed>3.442455518957362</speed>
  <fix>3d</fix>
</trkpt>
<trkpt lat="40.0714155" lon="-105.2298104">
  <ele>1583.0</ele>
  <time>2026-08-28T17:53:12Z</time>
  <course>0.58</course>
  <speed>3.25</speed>
  <fix>3d</fix>
</trkpt>
<trkpt lat="40.0714257" lon="-105.2298098">
  <ele>1582.98</ele>
  <time>2026-08-28T17:53:12Z</time>
  <course>3.34</course>
  <speed>3.463697446371435</speed>
  <fix>3d</fix>
</trkpt>
<trkpt lat="40.0714155" lon="-105.2298104">
  <ele>1583.0</ele>
  <time>2026-08-28T17:53:12Z</time>
  <course>0.58</course>
  <speed>3.25</speed>
  <fix>3d</fix>
</trkpt>
<trkpt lat="40.0714288" lon="-105.2298097">
  <ele>1582.97</ele>
  <time>2026-08-28T17:53:12Z</time>
  <course>3.8</course>
  <speed>3.4646789173024386</speed>
  <fix>3d</fix>
</trkpt>
<trkpt lat="40.0714214" lon="-105.2298103">
  <ele>1583.0</ele>
  <time>2026-08-28T17:53:12Z</time>
  <course>1.59</course>
  <speed>3.36</speed>
  <fix>3d</fix>
</trkpt>
<trkpt lat="40.0714318" lon="-105.2298095">
  <ele>1582.97</ele>
  <time>2026-08-28T17:53:12Z</time>
  <course>4.25</course>
  <speed>3.43582595601116</speed>
  <fix>3d</fix>
</trkpt>
<trkpt lat="40.0714214" lon="-105.2298103">
  <ele>1583.0</ele>
  <time>2026-08-28T17:53:12Z</time>
  <course>1.59</course>
  <speed>3.36</speed>
  <fix>3d</fix>
</trkpt>
<trkpt lat="40.0714348" lon="-105.2298093">
  <ele>1582.97</ele>
  <time>2026-08-28T17:53:12Z</time>
  <course>4.75</course>
  <speed>3.397131142596647</speed>
  <fix>3d</fix>
</trkpt>
<trkpt lat="40.0714275" lon="-105.22981">
  <ele>1583.0</ele>
  <time>2026-08-28T17:53:12Z</time>
  <course>2.54</course>
  <speed>3.38</speed>
  <fix>3d</fix>
</trkpt>
<trkpt lat="40.0714377" lon="-105.229809">
  <ele>1582.97</ele>
  <time>2026-08-28T17:53:12Z</time>
  <course>5.24</course>
  <speed>3.3286633954186478</speed>
  <fix>3d</fix>
</trkpt>
<trkpt lat="40.0714336" lon="-105.2298097">
  <ele>1583.0</ele>
  <time>2026-08-28T17:53:12Z</time>
  <course>3.49</course>
  <speed>3.33</speed>
  <fix>3d</fix>
</trkpt>
<trkpt lat="40.0714406" lon="-105.2298088">
  <ele>1582.97</ele>
  <time>2026-08-28T17:53:12Z</time>
  <course>5.77</course>
  <speed>3.250415358073488</speed>
  <fix>3d</fix>
</trkpt>
<trkpt lat="40.0714336" lon="-105.2298097">
  <ele>1583.0</ele>
  <time>2026-08-28T17:53:12Z</time>
  <course>3.49</course>
  <speed>3.33</speed>
  <fix>3d</fix>
</trkpt>
<trkpt lat="40.0714434" lon="-105.2298085">
  <ele>1582.97</ele>
  <time>2026-08-28T17:53:12Z</time>
  <course>6.31</course>
  <speed>3.1524593573906707</speed>
  <fix>3d</fix>
</trkpt>
<trkpt lat="40.0714394" lon="-105.2298092">
  <ele>1583.0</ele>
  <time>2026-08-28T17:53:12Z</time>
  <course>4.52</course>
  <speed>3.2</speed>
  <fix>3d</fix>
</trkpt>
<trkpt lat="40.0714461" lon="-105.2298082">
  <ele>1582.97</ele>
  <time>2026-08-28T17:53:12Z</time>
  <course>6.86</course>
  <speed>3.0438462510448847</speed>
  <fix>3d</fix>
</trkpt>
<trkpt lat="40.0714394" lon="-105.2298092">
  <ele>1583.0</ele>
  <time>2026-08-28T17:53:12Z</time>
  <course>4.52</course>
  <speed>3.2</speed>
  <fix>3d</fix>
</trkpt>
<trkpt lat="40.0714488" lon="-105.2298079">
  <ele>1582.98</ele>
  <time>2026-08-28T17:53:12Z</time>
  <course>7.42</course>
  <speed>2.91547594742265</speed>
  <fix>3d</fix>
</trkpt>
<trkpt lat="40.071445" lon="-105.2298085">
  <ele>1583.0</ele>
  <time>2026-08-28T17:53:12Z</time>
  <course>5.62</course>
  <speed>3.0</speed>
  <fix>3d</fix>
</trkpt>
<trkpt lat="40.0714512" lon="-105.2298075">
  <ele>1582.98</ele>
  <time>2026-08-28T17:53:12Z</time>
  <course>8.01</course>
  <speed>2.777354856693685</speed>
  <fix>3d</fix>
</trkpt>
<trkpt lat="40.071445" lon="-105.2298085">
  <ele>1583.0</ele>
  <time>2026-08-28T17:53:12Z</time>
  <course>5.62</course>
  <speed>3.0</speed>
  <fix>3d</fix>
</trkpt>
<trkpt lat="40.0714536" lon="-105.2298072">
  <ele>1582.99</ele>
  <time>2026-08-28T17:53:12Z</time>
  <course>8.64</course>
  <speed>2.6394696436973852</speed>
  <fix>3d</fix>
</trkpt>
<trkpt lat="40.0714501" lon="-105.2298078">
  <ele>1583.0</ele>
  <time>2026-08-28T17:53:12Z</time>
  <course>6.79</course>
  <speed>2.75</speed>
  <fix>3d</fix>
</trkpt>
<trkpt lat="40.0714559" lon="-105.2298068">
  <ele>1582.99</ele>
  <time>2026-08-28T17:53:12Z</time>
  <course>9.3</course>
  <speed>2.4906424873915567</speed>
  <fix>3d</fix>
</trkpt>
<trkpt lat="40.0714501" lon="-105.2298078">
  <ele>1583.0</ele>
  <time>2026-08-28T17:53:12Z</time>
  <course>6.79</course>
  <speed>2.75</speed>
  <fix>3d</fix>
</trkpt>
<trkpt lat="40.071458" lon="-105.2298064">
  <ele>1582.99</ele>
  <time>2026-08-28T17:53:12Z</time>
  <course>10.0</course>
  <speed>2.333452377915607</speed>
  <fix>3d</fix>
</trkpt>
<trkpt lat="40.0714548" lon="-105.2298069">
  <ele>1583.0</ele>
  <time>2026-08-28T17:53:12Z</time>
  <course>8.08</course>
  <speed>2.47</speed>
  <fix>3d</fix>
</trkpt>
<trkpt lat="40.0714599" lon="-105.229806">
  <ele>1582.99</ele>
  <time>2026-08-28T17:53:12Z</time>
  <course>10.74</course>
  <speed>2.175178153623284</speed>
  <fix>3d</fix>
</trkpt>
<trkpt lat="40.0714548" lon="-105.2298069">
  <ele>1583.0</ele>
  <time>2026-08-28T17:53:12Z</time>
  <course>8.08</course>
  <speed>2.47</speed>
  <fix>3d</fix>
</trkpt>
<trkpt lat="40.0714618" lon="-105.2298056">
  <ele>1583.0</ele>
  <time>2026-08-28T17:53:12Z</time>
  <course>11.54</course>
  <speed>2.0270421801235416</speed>
  <fix>3d</fix>
</trkpt>
<trkpt lat="40.0714589" lon="-105.2298061">
  <ele>1583.0</ele>
  <time>2026-08-28T17:53:12Z</time>
  <course>9.54</course>
  <speed>2.18</speed>
  <fix>3d</fix>
</trkpt>
<trkpt lat="40.0714634" lon="-105.2298052">
  <ele>1583.0</ele>
  <time>2026-08-28T17:53:12Z</time>
  <course>12.4</course>
  <speed>1.8693581786270923</speed>
  <fix>3d</fix>
</trkpt>
<trkpt lat="40.0714589" lon="-105.2298061">
  <ele>1583.0</ele>
  <time>2026-08-28T17:53:12Z</time>
  <course>9.54</course>
  <speed>2.18</speed>
  <fix>3d</fix>
</trkpt>
<trkpt lat="40.071465" lon="-105.2298048">
  <ele>1583.0</ele>
  <time>2026-08-28T17:53:12Z</time>
  <course>13.35</course>
  <speed>1.7102046661145558</speed>
  <fix>3d</fix>
</trkpt>
<trkpt lat="40.0714625" lon="-105.2298053">
  <ele>1583.0</ele>
  <time>2026-08-28T17:53:12Z</time>
  <course>11.21</course>
  <speed>1.88</speed>
  <fix>3d</fix>
</trkpt>
<trkpt lat="40.0714663" lon="-105.2298044">
  <ele>1583.0</ele>
  <time>2026-08-28T17:53:12Z</time>
  <course>14.4</course>
  <speed>1.553319027115808</speed>
  <fix>3d</fix>
</trkpt>
<trkpt lat="40.0714625" lon="-105.2298053">
  <ele>1583.0</ele>
  <time>2026-08-28T17:53:12Z</time>
  <course>11.21</course>
  <speed>1.88</speed>
  <fix>3d</fix>
</trkpt>
<trkpt lat="40.0714676" lon="-105.229804">
  <ele>1583.0</ele>
  <time>2026-08-28T17:53:12Z</time>
  <course>15.58</course>
  <speed>1.4046351839534705</speed>
  <fix>3d</fix>
</trkpt>
<trkpt lat="40.0714625" lon="-105.2298053">
  <ele>1583.0</ele>
  <time>2026-08-28T17:53:12Z</time>
  <course>11.21</course>
  <speed>1.88</speed>
  <fix>3d</fix>
</trkpt>
<trkpt lat="40.0714687" lon="-105.2298036">
  <ele>1583.0</ele>
  <time>2026-08-28T17:53:12Z</time>
  <course>16.94</course>
  <speed>1.2563439019631528</speed>
  <fix>3d</fix>
</trkpt>
<trkpt lat="40.0714655" lon="-105.2298044">
  <ele>1583.0</ele>
  <time>2026-08-28T17:53:12Z</time>
  <course>13.24</course>
  <speed>1.59</speed>
  <fix>3d</fix>
</trkpt>
<trkpt lat="40.0714697" lon="-105.2298033">
  <ele>1583.0</ele>
  <time>2026-08-28T17:53:12Z</time>
  <course>18.5</course>
  <speed>1.1182575731914361</speed>
  <fix>3d</fix>
</trkpt>
<trkpt lat="40.0714655" lon="-105.2298044">
  <ele>1583.0</ele>
  <time>2026-08-28T17:53:12Z</time>
  <course>13.24</course>
  <speed>1.59</speed>
  <fix>3d</fix>
</trkpt>
<trkpt lat="40.0714706" lon="-105.2298029">
  <ele>1583.0</ele>
  <time>2026-08-28T17:53:12Z</time>
  <course>20.35</course>
  <speed>0.9741663102366043</speed>
  <fix>3d</fix>
</trkpt>
<trkpt lat="40.0714681" lon="-105.2298036">
  <ele>1583.0</ele>
  <time>2026-08-28T17:53:12Z</time>
  <course>15.8</course>
  <speed>1.3</speed>
  <fix>3d</fix>
</trkpt>
<trkpt lat="40.0714713" lon="-105.2298025">
  <ele>1583.0</ele>
  <time>2026-08-28T17:53:12Z</time>
  <course>22.29</course>
  <speed>0.8443340571124678</speed>
  <fix>3d</fix>
</trkpt>
<trkpt lat="40.0714681" lon="-105.2298036">
  <ele>1583.0</ele>
  <time>2026-08-28T17:53:12Z</time>
  <course>15.8</course>
  <speed>1.3</speed>
  <fix>3d</fix>
</trkpt>
<trkpt lat="40.0714719" lon="-105.2298022">
  <ele>1583.01</ele>
  <time>2026-08-28T17:53:12Z</time>
  <course>24.05</course>
  <speed>0.715122367151245</speed>
  <fix>3d</fix>
</trkpt>
<trkpt lat="40.0714701" lon="-105.2298027">
  <ele>1583.0</ele>
  <time>2026-08-28T17:53:12Z</time>
  <course>19.1</course>
  <speed>1.03</speed>
  <fix>3d</fix>
</trkpt>
<trkpt lat="40.0714725" lon="-105.2298019">
  <ele>1583.01</ele>
  <time>2026-08-28T17:53:12Z</time>
  <course>25.55</course>
  <speed>0.5887274411814011</speed>
  <fix>3d</fix>
</trkpt>
<trkpt lat="40.0714701" lon="-105.2298027">
  <ele>1583.0</ele>
  <time>2026-08-28T17:53:12Z</time>
  <course>19.1</course>
  <speed>1.03</speed>
  <fix>3d</fix>
</trkpt>
<trkpt lat="40.0714729" lon="-105.2298016">
  <ele>1583.01</ele>
  <time>2026-08-28T17:53:12Z</time>
  <course>26.8</course>
  <speed>0.4661544808322666</speed>
  <fix>3d</fix>
</trkpt>
<trkpt lat="40.0714716" lon="-105.229802">
  <ele>1583.0</ele>
  <time>2026-08-28T17:53:12Z</time>
  <course>22.64</course>
  <speed>0.78</speed>
  <fix>3d</fix>
</trkpt>
<trkpt lat="40.0714732" lon="-105.2298014">
  <ele>1583.01</ele>
  <time>2026-08-28T17:53:12Z</time>
  <course>27.78</course>
  <speed>0.354682957019364</speed>
  <fix>3d</fix>
</trkpt>
<trkpt lat="40.0714727" lon="-105.2298013">
  <ele>1583.0</ele>
  <time>2026-08-28T17:53:12Z</time>
  <course>25.42</course>
  <speed>0.54</speed>
  <fix>3d</fix>
</trkpt>
<trkpt lat="40.0714734" lon="-105.2298012">
  <ele>1583.0</ele>
  <time>2026-08-28T17:53:12Z</time>
  <course>28.5</course>
  <speed>0.23769728648009425</speed>
  <fix>3d</fix>
</trkpt>
<trkpt lat="40.0714727" lon="-105.2298013">
  <ele>1583.0</ele>
  <time>2026-08-28T17:53:12Z</time>
  <course>25.42</course>
  <speed>0.54</speed>
  <fix>3d</fix>
</trkpt>
<trkpt lat="40.0714736" lon="-105.229801">
  <ele>1583.0</ele>
  <time>2026-08-28T17:53:12Z</time>
  <course>28.98</course>
  <speed>0.13601470508735444</speed>
  <fix>3d</fix>
</trkpt>
<trkpt lat="40.0714734" lon="-105.2298009">
  <ele>1583.0</ele>
  <time>2026-08-28T17:53:12Z</time>
  <course>27.19</course>
  <speed>0.32</speed>
  <fix>3d</fix>
</trkpt>
<trkpt lat="40.0714737" lon="-105.229801">
  <ele>1583.0</ele>
  <time>2026-08-28T17:53:12Z</time>
  <course>29.26</course>
  <speed>0.04</speed>
  <fix>3d</fix>
</trkpt>
<trkpt lat="40.0714734" lon="-105.2298009">
  <ele>1583.0</ele>
  <time>2026-08-28T17:53:12Z</time>
  <course>27.19</course>
  <speed>0.32</speed>
  <fix>3d</fix>
</trkpt>
<trkpt lat="40.0714737" lon="-105.2298009">
  <ele>1583.0</ele>
  <time>2026-08-28T17:53:12Z</time>
  <course>29.31</course>
  <speed>0.03605551275463989</speed>
  <fix>3d</fix>
</trkpt>
<trkpt lat="40.0714738" lon="-105.2298007">
  <ele>1583.0</ele>
  <time>2026-08-28T17:53:12Z</time>
  <course>28.06</course>
  <speed>0.12</speed>
  <fix>3d</fix>
</trkpt>
<trkpt lat="40.0714737" lon="-105.2298009">
  <ele>1583.0</ele>
  <time>2026-08-28T17:53:12Z</time>
  <course>29.29</course>
  <speed>0.1</speed>
  <fix>3d</fix>
</trkpt>
<trkpt lat="40.0714738" lon="-105.2298007">
  <ele>1583.0</ele>
  <time>2026-08-28T17:53:12Z</time>
  <course>28.06</course>
  <speed>0.12</speed>
  <fix>3d</fix>
</trkpt>
<trkpt lat="40.0714737" lon="-105.2298009">
  <ele>1583.0</ele>
  <time>2026-08-28T17:53:12Z</time>
  <course>29.33</course>
  <speed>0.15811388300841897</speed>
  <fix>3d</fix>
</trkpt>
<trkpt lat="40.0714739" lon="-105.2298005">
  <ele>1583.0</ele>
  <time>2026-08-28T17:53:12Z</time>
  <course>208.4</course>
  <speed>0.01</speed>
  <fix>3d</fix>
</trkpt>
<trkpt lat="40.0714735" lon="-105.229801">
  <ele>1583.0</ele>
  <time>2026-08-28T17:53:12Z</time>
  <course>29.34</course>
  <speed>0.2109502310972899</speed>
  <fix>3d</fix>
</trkpt>
<trkpt lat="40.0714739" lon="-105.2298005">
  <ele>1583.0</ele>
  <time>2026-08-28T17:53:12Z</time>
  <course>208.4</course>
  <speed>0.01</speed>
  <fix>3d</fix>
</trkpt>
<trkpt lat="40.0714734" lon="-105.2298011">
  <ele>1583.0</ele>
  <time>2026-08-28T17:53:12Z</time>
  <course>29.35</course>
  <speed>0.2692582403567252</speed>
  <fix>3d</fix>
</trkpt>
<trkpt lat="40.0714738" lon="-105.2298006">
  <ele>1583.0</ele>
  <time>2026-08-28T17:53:12Z</time>
  <course>208.4</course>
  <speed>0.13</speed>
  <fix>3d</fix>
</trkpt>
<trkpt lat="40.0714732" lon="-105.2298012">
  <ele>1583.01</ele>
  <time>2026-08-28T17:53:12Z</time>
  <course>29.37</course>
  <speed>0.3138470965295043</speed>
  <fix>3d</fix>
</trkpt>
<trkpt lat="40.0714738" lon="-105.2298006">
  <ele>1583.0</ele>
  <time>2026-08-28T17:53:12Z</time>
  <course>208.4</course>
  <speed>0.13</speed>
  <fix>3d</fix>
</trkpt>
<trkpt lat="40.0714729" lon="-105.2298014">
  <ele>1583.01</ele>
  <time>2026-08-28T17:53:12Z</time>
  <course>29.38</course>
  <speed>0.34481879299133333</speed>
  <fix>3d</fix>
</trkpt>
<trkpt lat="40.0714735" lon="-105.2298008">
  <ele>1583.0</ele>
  <time>2026-08-28T17:53:12Z</time>
  <course>208.44</course>
  <speed>0.23</speed>
  <fix>3d</fix>
</trkpt>
<trkpt lat="40.0714727" lon="-105.2298015">
  <ele>1583.01</ele>
  <time>2026-08-28T17:53:12Z</time>
  <course>29.41</course>
  <speed>0.3671511950137164</speed>
  <fix>3d</fix>
</trkpt>
<trkpt lat="40.0714735" lon="-105.2298008">
  <ele>1583.0</ele>
  <time>2026-08-28T17:53:12Z</time>
  <course>208.44</course>
  <speed>0.23</speed>
  <fix>3d</fix>
</trkpt>
<trkpt lat="40.0714724" lon="-105.2298017">
  <ele>1583.01</ele>
  <time>2026-08-28T17:53:12Z</time>
  <course>29.44</course>
  <speed>0.3671511950137164</speed>
  <fix>3d</fix>
</trkpt>
<trkpt lat="40.0714731" lon="-105.2298011">
  <ele>1583.0</ele>
  <time>2026-08-28T17:53:12Z</time>
  <course>208.49</course>
  <speed>0.28</speed>
  <fix>3d</fix>
</trkpt>
<trkpt lat="40.0714722" lon="-105.2298018">
  <ele>1583.01</ele>
  <time>2026-08-28T17:53:12Z</time>
  <course>29.47</course>
  <speed>0.34</speed>
  <fix>3d</fix>
</trkpt>
<trkpt lat="40.0714731" lon="-105.2298011">
  <ele>1583.0</ele>
  <time>2026-08-28T17:53:12Z</time>
  <course>208.49</course>
  <speed>0.28</speed>
  <fix>3d</fix>
</trkpt>
<trkpt lat="40.071472" lon="-105.229802">
  <ele>1583.01</ele>
  <time>2026-08-28T17:53:12Z</time>
  <course>29.49</course>
  <speed>0.295296461204668</speed>
  <fix>3d</fix>
</trkpt>
<trkpt lat="40.0714731" lon="-105.2298011">
  <ele>1583.0</ele>
  <time>2026-08-28T17:53:12Z</time>
  <course>208.49</course>
  <speed>0.28</speed>
  <fix>3d</fix>
</trkpt>
<trkpt lat="40.0714718" lon="-105.2298021">
  <ele>1583.01</ele>
  <time>2026-08-28T17:53:12Z</time>
  <course>29.51</course>
  <speed>0.223606797749979</speed>
  <fix>3d</fix>
</trkpt>
<trkpt lat="40.0714727" lon="-105.2298014">
  <ele>1583.0</ele>
  <time>2026-08-28T17:53:12Z</time>
  <course>208.54</course>
  <speed>0.26</speed>
  <fix>3d</fix>
</trkpt>
<trkpt lat="40.0714717" lon="-105.2298021">
  <ele>1583.02</ele>
  <time>2026-08-28T17:53:12Z</time>
  <course>29.52</course>
  <speed>0.15652475842498528</speed>
  <fix>3d</fix>
</trkpt>
<trkpt lat="40.0714727" lon="-105.2298014">
  <ele>1583.0</ele>
  <time>2026-08-28T17:53:12Z</time>
  <course>208.54</course>
  <speed>0.26</speed>
  <fix>3d</fix>
</trkpt>
<trkpt lat="40.0714717" lon="-105.2298021">
  <ele>1583.02</ele>
  <time>2026-08-28T17:53:12Z</time>
  <course>29.53</course>
  <speed>0.07615773105863909</speed>
  <fix>3d</fix>
</trkpt>
<trkpt lat="40.0714723" lon="-105.2298017">
  <ele>1583.0</ele>
  <time>2026-08-28T17:53:12Z</time>
  <course>208.57</course>
  <speed>0.15</speed>
  <fix>3d</fix>
</trkpt>
<trkpt lat="40.0714717" lon="-105.2298021">
  <ele>1583.02</ele>
  <time>2026-08-28T17:53:12Z</time>
  <course>29.53</course>
  <speed>0.02</speed>
  <fix>3d</fix>
</trkpt>
<trkpt lat="40.0714723" lon="-105.2298017">
  <ele>1583.0</ele>
  <time>2026-08-28T17:53:12Z</time>
  <course>208.57</course>
  <speed>0.15</speed>
  <fix>3d</fix>
</trkpt>
<trkpt lat="40.0714718" lon="-105.229802">
  <ele>1583.02</ele>
  <time>2026-08-28T17:53:12Z</time>
  <course>29.54</course>
  <speed>0.03605551275463989</speed>
  <fix>3d</fix>
</trkpt>
<trkpt lat="40.0714721" lon="-105.2298017">
  <ele>1583.0</ele>
  <time>2026-08-28T17:53:12Z</time>
  <course>208.57</course>
  <speed>0.02</speed>
  <fix>3d</fix>
</trkpt>
<trkpt lat="40.0714719" lon="-105.2298019">
  <ele>1583.02</ele>
  <time>2026-08-28T17:53:12Z</time>
  <course>29.54</course>
  <speed>0.07810249675906654</speed>
  <fix>3d</fix>
</trkpt>
<trkpt lat="40.0714721" lon="-105.2298017">
  <ele>1583.0</ele>
  <time>2026-08-28T17:53:12Z</time>
  <course>28.6</course>
  <speed>0.09</speed>
  <fix>3d</fix>
</trkpt>
<trkpt lat="40.071472" lon="-105.2298018">
  <ele>1583.02</ele>
  <time>2026-08-28T17:53:12Z</time>
  <course>29.54</course>
  <speed>0.11401754250991379</speed>
  <fix>3d</fix>
</trkpt>
<trkpt lat="40.0714721" lon="-105.2298017">
  <ele>1583.0</ele>
  <time>2026-08-28T17:53:12Z</time>
  <course>28.6</course>
  <speed>0.09</speed>
  <fix>3d</fix>
</trkpt>
<trkpt lat="40.0714722" lon="-105.2298017">
  <ele>1583.02</ele>
  <time>2026-08-28T17:53:12Z</time>
  <course>29.53</course>
  <speed>0.13601470508735444</speed>
  <fix>3d</fix>
</trkpt>
<trkpt lat="40.0714723" lon="-105.2298017">
  <ele>1583.0</ele>
  <time>2026-08-28T17:53:12Z</time>
  <course>28.59</course>
  <speed>0.16</speed>
  <fix>3d</fix>
</trkpt>
<trkpt lat="40.0714723" lon="-105.2298016">
  <ele>1583.02</ele>
  <time>2026-08-28T17:53:12Z</time>
  <course>29.55</course>
  <speed>0.13601470508735444</speed>
  <fix>3d</fix>
</trkpt>
<trkpt lat="40.0714723" lon="-105.2298017">
  <ele>1583.0</ele>
  <time>2026-08-28T17:53:12Z</time>
  <course>28.59</course>
  <speed>0.16</speed>
  <fix>3d</fix>
</trkpt>
<trkpt lat="40.0714725" lon="-105.2298015">
  <ele>1583.02</ele>
  <time>2026-08-28T17:53:12Z</time>
  <course>29.65</course>
  <speed>0.13601470508735444</speed>
  <fix>3d</fix>
</trkpt>
<trkpt lat="40.0714726" lon="-105.2298015">
  <ele>1583.0</ele>
  <time>2026-08-28T17:53:12Z</time>
  <course>28.63</course>
  <speed>0.18</speed>
  <fix>3d</fix>
</trkpt>
<trkpt lat="40.0714725" lon="-105.2298014">
  <ele>1583.02</ele>
  <time>2026-08-28T17:53:12Z</time>
  <course>29.84</course>
  <speed>0.14212670403551894</speed>
  <fix>3d</fix>
</trkpt>
<trkpt lat="40.0714726" lon="-105.2298015">
  <ele>1583.0</ele>
  <time>2026-08-28T17:53:12Z</time>
  <course>28.63</course>
  <speed>0.18</speed>
  <fix>3d</fix>
</trkpt>
<trkpt lat="40.0714727" lon="-105.2298013">
  <ele>1583.02</ele>
  <time>2026-08-28T17:53:12Z</time>
  <course>30.14</course>
  <speed>0.16401219466856726</speed>
  <fix>3d</fix>
</trkpt>
<trkpt lat="40.0714729" lon="-105.2298012">
  <ele>1583.0</ele>
  <time>2026-08-28T17:53:12Z</time>
  <course>28.94</course>
  <speed>0.19</speed>
  <fix>3d</fix>
</trkpt>
<trkpt lat="40.0714729" lon="-105.2298011">
  <ele>1583.02</ele>
  <time>2026-08-28T17:53:12Z</time>
  <course>30.59</course>
  <speed>0.18601075237738274</speed>
  <fix>3d</fix>
</trkpt>
<trkpt lat="40.0714729" lon="-105.2298012">
  <ele>1583.0</ele>
  <time>2026-08-28T17:53:12Z</time>
  <course>28.94</course>
  <speed>0.19</speed>
  <fix>3d</fix>
</trkpt>
<trkpt lat="40.0714731" lon="-105.2298009">
  <ele>1583.02</ele>
  <time>2026-08-28T17:53:12Z</time>
  <course>31.22</course>
  <speed>0.2220360331117452</speed>
  <fix>3d</fix>
</trkpt>
<trkpt lat="40.0714732" lon="-105.229801">
  <ele>1583.0</ele>
  <time>2026-08-28T17:53:12Z</time>
  <course>29.76</course>
  <speed>0.23</speed>
  <fix>3d</fix>
</trkpt>
<trkpt lat="40.0714733" lon="-105.2298008">
  <ele>1583.02</ele>
  <time>2026-08-28T17:53:12Z</time>
  <course>32.08</course>
  <speed>0.2640075756488817</speed>
  <fix>3d</fix>
</trkpt>
<trkpt lat="40.0714732" lon="-105.229801">
  <ele>1583.0</ele>
  <time>2026-08-28T17:53:12Z</time>
  <course>29.76</course>
  <speed>0.23</speed>
  <fix>3d</fix>
</trkpt>
<trkpt lat="40.0714735" lon="-105.2298005">
  <ele>1583.02</ele>
  <time>2026-08-28T17:53:12Z</time>
  <course>33.24</course>
  <speed>0.31400636936215165</speed>
  <fix>3d</fix>
</trkpt>
<trkpt lat="40.0714737" lon="-105.2298007">
  <ele>1583.0</ele>
  <time>2026-08-28T17:53:12Z</time>
  <course>31.38</course>
  <speed>0.31</speed>
  <fix>3d</fix>
</trkpt>
<trkpt lat="40.0714739" lon="-105.2298003">
  <ele>1583.03</ele>
  <time>2026-08-28T17:53:12Z</time>
  <course>34.74</course>
  <speed>0.37013511046643494</speed>
  <fix>3d</fix>
</trkpt>
<trkpt lat="40.0714737" lon="-105.2298007">
  <ele>1583.0</ele>
  <time>2026-08-28T17:53:12Z</time>
  <course>31.38</course>
  <speed>0.31</speed>
  <fix>3d</fix>
</trkpt>
<trkpt lat="40.0714742" lon="-105.2298">
  <ele>1583.03</ele>
  <time>2026-08-28T17:53:12Z</time>
  <course>36.64</course>
  <speed>0.42638011210655685</speed>
  <fix>3d</fix>
</trkpt>
<trkpt lat="40.0714742" lon="-105.2298002">
  <ele>1583.0</ele>
  <time>2026-08-28T17:53:12Z</time>
  <course>34.16</course>
  <speed>0.4</speed>
  <fix>3d</fix>
</trkpt>
<trkpt lat="40.0714745" lon="-105.2297996">
  <ele>1583.03</ele>
  <time>2026-08-28T17:53:12Z</time>
  <course>38.98</course>
  <speed>0.4883646178829912</speed>
  <fix>3d</fix>
</trkpt>
<trkpt lat="40.0714742" lon="-105.2298002">
  <ele>1583.0</ele>
  <time>2026-08-28T17:53:12Z</time>
  <course>34.16</course>
  <speed>0.4</speed>
  <fix>3d</fix>
</trkpt>
<trkpt lat="40.0714749" lon="-105.2297991">
  <ele>1583.03</ele>
  <time>2026-08-28T17:53:12Z</time>
  <course>41.88</course>
  <speed>0.551543289325507</speed>
  <fix>3d</fix>
</trkpt>
<trkpt lat="40.0714742" lon="-105.2298002">
  <ele>1583.0</ele>
  <time>2026-08-28T17:53:12Z</time>
  <course>34.16</course>
  <speed>0.4</speed>
  <fix>3d</fix>
</trkpt>
<trkpt lat="40.0714753" lon="-105.2297986">
  <ele>1583.03</ele>
  <time>2026-08-28T17:53:12Z</time>
  <course>45.46</course>
  <speed>0.6161980201201558</speed>
  <fix>3d</fix>
</trkpt>
<trkpt lat="40.0714749" lon="-105.2297996">
  <ele>1583.0</ele>
  <time>2026-08-28T17:53:12Z</time>
  <course>38.57</course>
  <speed>0.51</speed>
  <fix>3d</fix>
</trkpt>
<trkpt lat="40.0714758" lon="-105.229798">
  <ele>1583.03</ele>
  <time>2026-08-28T17:53:12Z</time>
  <course>49.66</course>
  <speed>0.6780117993073571</speed>
  <fix>3d</fix>
</trkpt>
<trkpt lat="40.0714749" lon="-105.2297996">
  <ele>1583.0</ele>
  <time>2026-08-28T17:53:12Z</time>
  <course>38.57</course>
  <speed>0.51</speed>
  <fix>3d</fix>
</trkpt>
<trkpt lat="40.0714762" lon="-105.2297974">
  <ele>1583.03</ele>
  <time>2026-08-28T17:53:12Z</time>
  <course>54.3</course>
  <speed>0.7516648189186453</speed>
  <fix>3d</fix>
</trkpt>
<trkpt lat="40.0714756" lon="-105.2297987">
  <ele>1583.0</ele>
  <time>2026-08-28T17:53:12Z</time>
  <course>45.17</course>
  <speed>0.63</speed>
  <fix>3d</fix>
</trkpt>
<trkpt lat="40.0714766" lon="-105.2297966">
  <ele>1583.04</ele>
  <time>2026-08-28T17:53:12Z</time>
  <course>59.17</course>
  <speed>0.8276472678623424</speed>
  <fix>3d</fix>
</trkpt>
<trkpt lat="40.0714756" lon="-105.2297987">
  <ele>1583.0</ele>
  <time>2026-08-28T17:53:12Z</time>
  <course>45.17</course>
  <speed>0.63</speed>
  <fix>3d</fix>
</trkpt>
<trkpt lat="40.071477" lon="-105.2297956">
  <ele>1583.04</ele>
  <time>2026-08-28T17:53:12Z</time>
  <course>63.84</course>
  <speed>0.9178779875342911</speed>
  <fix>3d</fix>
</trkpt>
<trkpt lat="40.0714765" lon="-105.2297974">
  <ele>1583.0</ele>
  <time>2026-08-28T17:53:12Z</time>
  <course>53.89</course>
  <speed>0.76</speed>
  <fix>3d</fix>
</trkpt>
<trkpt lat="40.0714773" lon="-105.2297946">
  <ele>1583.04</ele>
  <time>2026-08-28T17:53:12Z</time>
  <course>67.96</course>
  <speed>1.0090094152187086</speed>
  <fix>3d</fix>
</trkpt>
<trkpt lat="40.0714773" lon="-105.2297957">
  <ele>1583.0</ele>
  <time>2026-08-28T17:53:12Z</time>
  <course>62.98</course>
  <speed>0.92</speed>
  <fix>3d</fix>
</trkpt>
<trkpt lat="40.0714777" lon="-105.2297934">
  <ele>1583.05</ele>
  <time>2026-08-28T17:53:12Z</time>
  <course>71.47</course>
  <speed>1.1072488428533127</speed>
  <fix>3d</fix>
</trkpt>
<trkpt lat="40.0714773" lon="-105.2297957">
  <ele>1583.0</ele>
  <time>2026-08-28T17:53:12Z</time>
  <course>62.98</course>
  <speed>0.92</speed>
  <fix>3d</fix>
</trkpt>
<trkpt lat="40.071478" lon="-105.229792">
  <ele>1583.05</ele>
  <time>2026-08-28T17:53:12Z</time>
  <course>74.39</course>
  <speed>1.2054044964243331</speed>
  <fix>3d</fix>
</trkpt>
<trkpt lat="40.071478" lon="-105.2297935">
  <ele>1583.0</ele>
  <time>2026-08-28T17:53:12Z</time>
  <course>70.43</course>
  <speed>1.1</speed>
  <fix>3d</fix>
</trkpt>
<trkpt lat="40.0714783" lon="-105.2297906">
  <ele>1583.05</ele>
  <time>2026-08-28T17:53:12Z</time>
  <course>76.81</course>
  <speed>1.3179529581893277</speed>
  <fix>3d</fix>
</trkpt>
<trkpt lat="40.071478" lon="-105.2297935">
  <ele>1583.0</ele>
  <time>2026-08-28T17:53:12Z</time>
  <course>70.43</course>
  <speed>1.1</speed>
  <fix>3d</fix>
</trkpt>
<trkpt lat="40.0714786" lon="-105.229789">
  <ele>1583.05</ele>
  <time>2026-08-28T17:53:12Z</time>
  <course>78.88</course>
  <speed>1.4204224723651762</speed>
  <fix>3d</fix>
</trkpt>
<trkpt lat="40.0714785" lon="-105.2297909">
  <ele>1583.0</ele>
  <time>2026-08-28T17:53:12Z</time>
  <course>75.79</course>
  <speed>1.3</speed>
  <fix>3d</fix>
</trkpt>
<trkpt lat="40.0714788" lon="-105.2297872">
  <ele>1583.05</ele>
  <time>2026-08-28T17:53:12Z</time>
  <course>80.62</course>
  <speed>1.535838533179839</speed>
  <fix>3d</fix>
</trkpt>
<trkpt lat="40.0714785" lon="-105.2297909">
  <ele>1583.0</ele>
  <time>2026-08-28T17:53:12Z</time>
  <course>75.79</course>
  <speed>1.3</speed>
  <fix>3d</fix>
</trkpt>
<trkpt lat="40.071479" lon="-105.2297853">
  <ele>1583.06</ele>
  <time>2026-08-28T17:53:12Z</time>
  <course>82.1</course>
  <speed>1.6521501142450705</speed>
  <fix>3d</fix>
</trkpt>
<trkpt lat="40.0714791" lon="-105.2297876">
  <ele>1583.0</ele>
  <time>2026-08-28T17:53:12Z</time>
  <course>79.59</course>
  <speed>1.51</speed>
  <fix>3d</fix>
</trkpt>
<trkpt lat="40.0714793" lon="-105.2297833">
  <ele>1583.06</ele>
  <time>2026-08-28T17:53:12Z</time>
  <course>83.34</course>
  <speed>1.759232787325202</speed>
  <fix>3d</fix>
</trkpt>
<trkpt lat="40.0714791" lon="-105.2297876">
  <ele>1583.0</ele>
  <time>2026-08-28T17:53:12Z</time>
  <course>79.59</course>
  <speed>1.51</speed>
  <fix>3d</fix>
</trkpt>
<trkpt lat="40.0714794" lon="-105.2297811">
  <ele>1583.06</ele>
  <time>2026-08-28T17:53:12Z</time>
  <course>84.42</course>
  <speed>1.8768324379123458</speed>
  <fix>3d</fix>
</trkpt>
<trkpt lat="40.0714796" lon="-105.2297838">
  <ele>1583.0</ele>
  <time>2026-08-28T17:53:12Z</time>
  <course>82.31</course>
  <speed>1.74</speed>
  <fix>3d</fix>
</trkpt>
<trkpt lat="40.0714796" lon="-105.2297788">
  <ele>1583.06</ele>
  <time>2026-08-28T17:53:12Z</time>
  <course>85.33</course>
  <speed>1.9949185447030162</speed>
  <fix>3d</fix>
</trkpt>
<trkpt lat="40.0714796" lon="-105.2297838">
  <ele>1583.0</ele>
  <time>2026-08-28T17:53:12Z</time>
  <course>82.31</course>
  <speed>1.74</speed>
  <fix>3d</fix>
</trkpt>
<trkpt lat="40.0714798" lon="-105.2297764">
  <ele>1583.05</ele>
  <time>2026-08-28T17:53:12Z</time>
  <course>86.1</course>
  <speed>2.113409567499873</speed>
  <fix>3d</fix>
</trkpt>
<trkpt lat="40.0714799" lon="-105.2297795">
  <ele>1583.0</ele>
  <time>2026-08-28T17:53:12Z</time>
  <course>84.29</course>
  <speed>1.96</speed>
  <fix>3d</fix>
</trkpt>
<trkpt lat="40.0714799" lon="-105.2297738">
  <ele>1583.06</ele>
  <time>2026-08-28T17:53:12Z</time>
  <course>86.76</course>
  <speed>2.2327113561766105</speed>
  <fix>3d</fix>
</trkpt>
<trkpt lat="40.0714799" lon="-105.2297795">
  <ele>1583.0</ele>
  <time>2026-08-28T17:53:12Z</time>
  <course>84.29</course>
  <speed>1.96</speed>
  <fix>3d</fix>
</trkpt>
<trkpt lat="40.0714801" lon="-105.2297711">
  <ele>1583.06</ele>
  <time>2026-08-28T17:53:12Z</time>
  <course>87.33</course>
  <speed>2.341730129626384</speed>
  <fix>3d</fix>
</trkpt>
<trkpt lat="40.0714803" lon="-105.2297746">
  <ele>1583.0</ele>
  <time>2026-08-28T17:53:12Z</time>
  <course>85.74</course>
  <speed>2.19</speed>
  <fix>3d</fix>
</trkpt>
<trkpt lat="40.0714802" lon="-105.2297683">
  <ele>1583.05</ele>
  <time>2026-08-28T17:53:12Z</time>
  <course>87.83</course>
  <speed>2.4613004692641653</speed>
  <fix>3d</fix>
</trkpt>
<trkpt lat="40.0714803" lon="-105.2297746">
  <ele>1583.0</ele>
  <time>2026-08-28T17:53:12Z</time>
  <course>85.74</course>
  <speed>2.19</speed>
  <fix>3d</fix>
</trkpt>
<trkpt lat="40.0714803" lon="-105.2297653">
  <ele>1583.05</ele>
  <time>2026-08-28T17:53:12Z</time>
  <course>88.27</course>
  <speed>2.5709531306501874</speed>
  <fix>3d</fix>
</trkpt>
<trkpt lat="40.0714803" lon="-105.2297746">
  <ele>1583.0</ele>
  <time>2026-08-28T17:53:12Z</time>
  <course>85.74</course>
  <speed>2.19</speed>
  <fix>3d</fix>
</trkpt>
<trkpt lat="40.0714804" lon="-105.2297623">
  <ele>1583.05</ele>
  <time>2026-08-28T17:53:12Z</time>
  <course>88.66</course>
  <speed>2.670468123756582</speed>
  <fix>3d</fix>
</trkpt>
<trkpt lat="40.0714805" lon="-105.2297692">
  <ele>1583.0</ele>
  <time>2026-08-28T17:53:12Z</time>
  <course>86.83</course>
  <speed>2.41</speed>
  <fix>3d</fix>
</trkpt>
<trkpt lat="40.0714805" lon="-105.2297591">
  <ele>1583.05</ele>
  <time>2026-08-28T17:53:12Z</time>
  <course>89.02</course>
  <speed>2.7602898398537787</speed>
  <fix>3d</fix>
</trkpt>
<trkpt lat="40.0714805" lon="-105.2297692">
  <ele>1583.0</ele>
  <time>2026-08-28T17:53:12Z</time>
  <course>86.83</course>
  <speed>2.41</speed>
  <fix>3d</fix>
</trkpt>
<trkpt lat="40.0714806" lon="-105.2297558">
  <ele>1583.05</ele>
  <time>2026-08-28T17:53:12Z</time>
  <course>89.35</course>
  <speed>2.8301590061337545</speed>
  <fix>3d</fix>
</trkpt>
<trkpt lat="40.0714807" lon="-105.2297633">
  <ele>1583.0</ele>
  <time>2026-08-28T17:53:12Z</time>
  <course>87.68</course>
  <speed>2.61</speed>
  <fix>3d</fix>
</trkpt>
<trkpt lat="40.0714806" lon="-105.2297525">
  <ele>1583.05</ele>
  <time>2026-08-28T17:53:12Z</time>
  <course>89.64</course>
  <speed>2.9000689646972186</speed>
  <fix>3d</fix>
</trkpt>
<trkpt lat="40.0714807" lon="-105.2297633">
  <ele>1583.0</ele>
  <time>2026-08-28T17:53:12Z</time>
  <course>87.68</course>
  <speed>2.61</speed>
  <fix>3d</fix>
</trkpt>
<trkpt lat="40.0714807" lon="-105.2297491">
  <ele>1583.04</ele>
  <time>2026-08-28T17:53:12Z</time>
  <course>89.91</course>
  <speed>2.9600168918436935</speed>
  <fix>3d</fix>
</trkpt>
<trkpt lat="40.0714809" lon="-105.2297569">
  <ele>1583.0</ele>
  <time>2026-08-28T17:53:12Z</time>
  <course>88.38</course>
  <speed>2.78</speed>
  <fix>3d</fix>
</trkpt>
<trkpt lat="40.0714807" lon="-105.2297457">
  <ele>1583.04</ele>
  <time>2026-08-28T17:53:12Z</time>
  <course>90.18</course>
  <speed>3.0</speed>
  <fix>3d</fix>
</trkpt>
<trkpt lat="40.0714809" lon="-105.2297569">
  <ele>1583.0</ele>
  <time>2026-08-28T17:53:12Z</time>
  <course>88.38</course>
  <speed>2.78</speed>
  <fix>3d</fix>
</trkpt>
<trkpt lat="40.0714808" lon="-105.2297421">
  <ele>1583.04</ele>
  <time>2026-08-28T17:53:12Z</time>
  <course>90.42</course>
  <speed>3.02</speed>
  <fix>3d</fix>
</trkpt>
<trkpt lat="40.071481" lon="-105.2297502">
  <ele>1583.0</ele>
  <time>2026-08-28T17:53:12Z</time>
  <course>88.98</course>
  <speed>2.91</speed>
  <fix>3d</fix>
</trkpt>
<trkpt lat="40.0714808" lon="-105.2297386">
  <ele>1583.04</ele>
  <time>2026-08-28T17:53:12Z</time>
  <course>90.65</course>
  <speed>3.0400657887618157</speed>
  <fix>3d</fix>
</trkpt>
<trkpt lat="40.0714811" lon="-105.2297433">
  <ele>1583.0</ele>
  <time>2026-08-28T17:53:12Z</time>
  <course>89.5</course>
  <speed>2.97</speed>
  <fix>3d</fix>
</trkpt>
<trkpt lat="40.0714808" lon="-105.2297351">
  <ele>1583.04</ele>
  <time>2026-08-28T17:53:12Z</time>
  <course>90.89</course>
  <speed>3.03006600588172</speed>
  <fix>3d</fix>
</trkpt>
<trkpt lat="40.0714811" lon="-105.2297433">
  <ele>1583.0</ele>
  <time>2026-08-28T17:53:12Z</time>
  <course>89.5</course>
  <speed>2.97</speed>
  <fix>3d</fix>
</trkpt>
<trkpt lat="40.0714808" lon="-105.2297316">
  <ele>1583.04</ele>
  <time>2026-08-28T17:53:12Z</time>
  <course>91.12</course>
  <speed>3.020149002946709</speed>
  <fix>3d</fix>
</trkpt>
<trkpt lat="40.0714812" lon="-105.2297363">
  <ele>1583.0</ele>
  <time>2026-08-28T17:53:12Z</time>
  <course>89.99</course>
  <speed>2.99</speed>
  <fix>3d</fix>
</trkpt>
<trkpt lat="40.0714809" lon="-105.2297281">
  <ele>1583.04</ele>
  <time>2026-08-28T17:53:12Z</time>
  <course>91.36</course>
  <speed>2.9802684442848433</speed>
  <fix>3d</fix>
</trkpt>
<trkpt lat="40.0714812" lon="-105.2297363">
  <ele>1583.0</ele>
  <time>2026-08-28T17:53:12Z</time>
  <course>89.99</course>
  <speed>2.99</speed>
  <fix>3d</fix>
</trkpt>
<trkpt lat="40.0714809" lon="-105.2297246">
  <ele>1583.04</ele>
  <time>2026-08-28T17:53:12Z</time>
  <course>91.59</course>
  <speed>2.9404251393293452</speed>
  <fix>3d</fix>
</trkpt>
<trkpt lat="40.0714811" lon="-105.2297293">
  <ele>1583.0</ele>
  <time>2026-08-28T17:53:12Z</time>
  <course>90.47</course>
  <speed>2.94</speed>
  <fix>3d</fix>
</trkpt>
<trkpt lat="40.0714809" lon="-105.2297212">
  <ele>1583.04</ele>
  <time>2026-08-28T17:53:12Z</time>
  <course>91.84</course>
  <speed>2.8706271091871196</speed>
  <fix>3d</fix>
</trkpt>
<trkpt lat="40.0714811" lon="-105.2297293">
  <ele>1583.0</ele>
  <time>2026-08-28T17:53:12Z</time>
  <course>90.47</course>
  <speed>2.94</speed>
  <fix>3d</fix>
</trkpt>
<trkpt lat="40.0714808" lon="-105.2297179">
  <ele>1583.04</ele>
  <time>2026-08-28T17:53:12Z</time>
  <course>92.11</course>
  <speed>2.8008748633239575</speed>
  <fix>3d</fix>
</trkpt>
<trkpt lat="40.0714811" lon="-105.2297226">
  <ele>1583.0</ele>
  <time>2026-08-28T17:53:12Z</time>
  <course>90.97</course>
  <speed>2.83</speed>
  <fix>3d</fix>
</trkpt>
<trkpt lat="40.0714808" lon="-105.2297147">
  <ele>1583.04</ele>
  <time>2026-08-28T17:53:12Z</time>
  <course>92.38</course>
  <speed>2.701184925176357</speed>
  <fix>3d</fix>
</trkpt>
<trkpt lat="40.0714811" lon="-105.2297226">
  <ele>1583.0</ele>
  <time>2026-08-28T17:53:12Z</time>
  <course>90.97</course>
  <speed>2.83</speed>
  <fix>3d</fix>
</trkpt>
<trkpt lat="40.0714807" lon="-105.2297116">
  <ele>1583.04</ele>
  <time>2026-08-28T17:53:12Z</time>
  <course>92.69</course>
  <speed>2.601230478062257</speed>
  <fix>3d</fix>
</trkpt>
<trkpt lat="40.071481" lon="-105.2297161">
  <ele>1583.0</ele>
  <time>2026-08-28T17:53:12Z</time>
  <course>91.52</course>
  <speed>2.67</speed>
  <fix>3d</fix>
</trkpt>
<trkpt lat="40.0714807" lon="-105.2297086">
  <ele>1583.03</ele>
  <time>2026-08-28T17:53:12Z</time>
  <course>93.0</course>
  <speed>2.481632527188504</speed>
  <fix>3d</fix>
</trkpt>
<trkpt lat="40.071481" lon="-105.2297161">
  <ele>1583.0</ele>
  <time>2026-08-28T17:53:12Z</time>
  <course>91.52</course>
  <speed>2.67</speed>
  <fix>3d</fix>
</trkpt>
<trkpt lat="40.0714806" lon="-105.2297058">
  <ele>1583.03</ele>
  <time>2026-08-28T17:53:12Z</time>
  <course>93.33</course>
  <speed>2.352126697267815</speed>
  <fix>3d</fix>
</trkpt>
<trkpt lat="40.0714809" lon="-105.22971">
  <ele>1583.0</ele>
  <time>2026-08-28T17:53:12Z</time>
  <course>92.14</course>
  <speed>2.45</speed>
  <fix>3d</fix>
</trkpt>
<trkpt lat="40.0714805" lon="-105.2297032">
  <ele>1583.03</ele>
  <time>2026-08-28T17:53:12Z</time>
  <course>93.69</course>
  <speed>2.222251110923336</speed>
  <fix>3d</fix>
</trkpt>
<trkpt lat="40.0714809" lon="-105.22971">
  <ele>1583.0</ele>
  <time>2026-08-28T17:53:12Z</time>
  <course>92.14</course>
  <speed>2.45</speed>
  <fix>3d</fix>
</trkpt>
<trkpt lat="40.0714805" lon="-105.2297007">
  <ele>1583.03</ele>
  <time>2026-08-28T17:53:12Z</time>
  <course>94.09</course>
  <speed>2.08290662296705</speed>
  <fix>3d</fix>
</trkpt>
<trkpt lat="40.0714806" lon="-105.2297045">
  <ele>1583.0</ele>
  <time>2026-08-28T17:53:12Z</time>
  <course>92.83</course>
  <speed>2.2</speed>
  <fix>3d</fix>
</trkpt>
<trkpt lat="40.0714804" lon="-105.2296984">
  <ele>1583.02</ele>
  <time>2026-08-28T17:53:12Z</time>
  <course>94.51</course>
  <speed>1.9331321734428817</speed>
  <fix>3d</fix>
</trkpt>
<trkpt lat="40.0714806" lon="-105.2297045">
  <ele>1583.0</ele>
  <time>2026-08-28T17:53:12Z</time>
  <course>92.83</course>
  <speed>2.2</speed>
  <fix>3d</fix>
</trkpt>
<trkpt lat="40.0714803" lon="-105.2296963">
  <ele>1583.02</ele>
  <time>2026-08-28T17:53:12Z</time>
  <course>94.99</course>
  <speed>1.7833956375409243</speed>
  <fix>3d</fix>
</trkpt>
<trkpt lat="40.0714806" lon="-105.2297045">
  <ele>1583.0</ele>
  <time>2026-08-28T17:53:12Z</time>
  <course>92.83</course>
  <speed>2.2</speed>
  <fix>3d</fix>
</trkpt>
<trkpt lat="40.0714802" lon="-105.2296943">
  <ele>1583.02</ele>
  <time>2026-08-28T17:53:12Z</time>
  <course>95.52</course>
  <speed>1.6337074401495513</speed>
  <fix>3d</fix>
</trkpt>
<trkpt lat="40.0714805" lon="-105.2296997">
  <ele>1583.0</ele>
  <time>2026-08-28T17:53:12Z</time>
  <course>93.66</course>
  <speed>1.92</speed>
  <fix>3d</fix>
</trkpt>
<trkpt lat="40.0714801" lon="-105.2296926">
  <ele>1583.02</ele>
  <time>2026-08-28T17:53:12Z</time>
  <course>96.11</course>
  <speed>1.484082207965583</speed>
  <fix>3d</fix>
</trkpt>
<trkpt lat="40.0714805" lon="-105.2296997">
  <ele>1583.0</ele>
  <time>2026-08-28T17:53:12Z</time>
  <course>93.66</course>
  <speed>1.92</speed>
  <fix>3d</fix>
</trkpt>
<trkpt lat="40.07148" lon="-105.229691">
  <ele>1583.02</ele>
  <time>2026-08-28T17:53:12Z</time>
  <course>96.79</course>
  <speed>1.334541119636259</speed>
  <fix>3d</fix>
</trkpt>
<trkpt lat="40.0714803" lon="-105.2296956">
  <ele>1583.0</ele>
  <time>2026-08-28T17:53:12Z</time>
  <course>94.66</course>
  <speed>1.64</speed>
  <fix>3d</fix>
</trkpt>
<trkpt lat="40.0714799" lon="-105.2296896">
  <ele>1583.01</ele>
  <time>2026-08-28T17:53:12Z</time>
  <course>97.58</course>
  <speed>1.1851160280748885</speed>
  <fix>3d</fix>
</trkpt>
<trkpt lat="40.0714803" lon="-105.2296956">
  <ele>1583.0</ele>
  <time>2026-08-28T17:53:12Z</time>
  <course>94.66</course>
  <speed>1.64</speed>
  <fix>3d</fix>
</trkpt>
<trkpt lat="40.0714798" lon="-105.2296884">
  <ele>1583.01</ele>
  <time>2026-08-28T17:53:12Z</time>
  <course>98.49</course>
  <speed>1.0458011283222064</speed>
  <fix>3d</fix>
</trkpt>
<trkpt lat="40.07148" lon="-105.2296921">
  <ele>1583.0</ele>
  <time>2026-08-28T17:53:12Z</time>
  <course>95.93</course>
  <speed>1.35</speed>
  <fix>3d</fix>
</trkpt>
<trkpt lat="40.0714797" lon="-105.2296873">
  <ele>1583.01</ele>
  <time>2026-08-28T17:53:12Z</time>
  <course>99.47</course>
  <speed>0.8967719888578144</speed>
  <fix>3d</fix>
</trkpt>
<trkpt lat="40.0714798" lon="-105.2296892">
  <ele>1583.0</ele>
  <time>2026-08-28T17:53:12Z</time>
  <course>97.57</course>
  <speed>1.06</speed>
  <fix>3d</fix>
</trkpt>
<trkpt lat="40.0714796" lon="-105.2296864">
  <ele>1583.01</ele>
  <time>2026-08-28T17:53:12Z</time>
  <course>100.39</course>
  <speed>0.7566372975210779</speed>
  <fix>3d</fix>
</trkpt>
<trkpt lat="40.0714798" lon="-105.2296892">
  <ele>1583.0</ele>
  <time>2026-08-28T17:53:12Z</time>
  <course>97.57</course>
  <speed>1.06</speed>
  <fix>3d</fix>
</trkpt>
<trkpt lat="40.0714795" lon="-105.2296856">
  <ele>1583.0</ele>
  <time>2026-08-28T17:53:12Z</time>
  <course>101.26</course>
  <speed>0.6251399843235114</speed>
  <fix>3d</fix>
</trkpt>
<trkpt lat="40.0714795" lon="-105.229687">
  <ele>1583.0</ele>
  <time>2026-08-28T17:53:12Z</time>
  <course>99.38</course>
  <speed>0.79</speed>
  <fix>3d</fix>
</trkpt>
<trkpt lat="40.0714794" lon="-105.229685">
  <ele>1583.0</ele>
  <time>2026-08-28T17:53:12Z</time>
  <course>102.01</course>
  <speed>0.4949747468305833</speed>
  <fix>3d</fix>
</trkpt>
<trkpt lat="40.0714795" lon="-105.229687">
  <ele>1583.0</ele>
  <time>2026-08-28T17:53:12Z</time>
  <course>99.38</course>
  <speed>0.79</speed>
  <fix>3d</fix>
</trkpt>
<trkpt lat="40.0714794" lon="-105.2296846">
  <ele>1582.99</ele>
  <time>2026-08-28T17:53:12Z</time>
  <course>102.61</course>
  <speed>0.3634556369077249</speed>
  <fix>3d</fix>
</trkpt>
<trkpt lat="40.0714793" lon="-105.2296855">
  <ele>1583.0</ele>
  <time>2026-08-28T17:53:12Z</time>
  <course>100.95</course>
  <speed>0.53</speed>
  <fix>3d</fix>
</trkpt>
<trkpt lat="40.0714793" lon="-105.2296843">
  <ele>1582.99</ele>
  <time>2026-08-28T17:53:12Z</time>
  <course>103.05</course>
  <speed>0.24083189157584592</speed>
  <fix>3d</fix>
</trkpt>
<trkpt lat="40.0714793" lon="-105.2296855">
  <ele>1583.0</ele>
  <time>2026-08-28T17:53:12Z</time>
  <course>100.95</course>
  <speed>0.53</speed>
  <fix>3d</fix>
</trkpt>
<trkpt lat="40.0714793" lon="-105.2296841">
  <ele>1582.99</ele>
  <time>2026-08-28T17:53:12Z</time>
  <course>103.34</course>
  <speed>0.12</speed>
  <fix>3d</fix>
</trkpt>
<trkpt lat="40.0714791" lon="-105.2296846">
  <ele>1583.0</ele>
  <time>2026-08-28T17:53:12Z</time>
  <course>102.0</course>
  <speed>0.29</speed>
  <fix>3d</fix>
</trkpt>
<trkpt lat="40.0714793" lon="-105.229684">
  <ele>1582.99</ele>
  <time>2026-08-28T17:53:12Z</time>
  <course>103.48</course>
  <speed>0.022360679774997897</speed>
  <fix>3d</fix>
</trkpt>
<trkpt lat="40.0714791" lon="-105.2296846">
  <ele>1583.0</ele>
  <time>2026-08-28T17:53:12Z</time>
  <course>102.0</course>
  <speed>0.29</speed>
  <fix>3d</fix>
</trkpt>
<trkpt lat="40.0714793" lon="-105.2296841">
  <ele>1582.99</ele>
  <time>2026-08-28T17:53:12Z</time>
  <course>103.48</course>
  <speed>0.07615773105863909</speed>
  <fix>3d</fix>
</trkpt>
<trkpt lat="40.0714791" lon="-105.2296842">
  <ele>1583.0</ele>
  <time>2026-08-28T17:53:12Z</time>
  <course>102.5</course>
  <speed>0.07</speed>
  <fix>3d</fix>
</trkpt>
<trkpt lat="40.0714793" lon="-105.2296842">
  <ele>1582.99</ele>
  <time>2026-08-28T17:53:12Z</time>
  <course>103.55</course>
  <speed>0.15811388300841897</speed>
  <fix>3d</fix>
</trkpt>
<trkpt lat="40.0714791" lon="-105.2296842">
  <ele>1583.0</ele>
  <time>2026-08-28T17:53:12Z</time>
  <course>102.5</course>
  <speed>0.07</speed>
  <fix>3d</fix>
</trkpt>
<trkpt lat="40.0714793" lon="-105.2296845">
  <ele>1583.0</ele>
  <time>2026-08-28T17:53:12Z</time>
  <course>103.68</course>
  <speed>0.22135943621178655</speed>
  <fix>3d</fix>
</trkpt>
<trkpt lat="40.0714791" lon="-105.2296843">
  <ele>1583.0</ele>
  <time>2026-08-28T17:53:12Z</time>
  <course>282.84</course>
  <speed>0.09</speed>
  <fix>3d</fix>
</trkpt>
<trkpt lat="40.0714794" lon="-105.2296848">
  <ele>1583.0</ele>
  <time>2026-08-28T17:53:12Z</time>
  <course>103.88</course>
  <speed>0.2816025568065745</speed>
  <fix>3d</fix>
</trkpt>
<trkpt lat="40.0714791" lon="-105.2296843">
  <ele>1583.0</ele>
  <time>2026-08-28T17:53:12Z</time>
  <course>282.84</course>
  <speed>0.09</speed>
  <fix>3d</fix>
</trkpt>
<trkpt lat="40.0714795" lon="-105.2296851">
  <ele>1583.0</ele>
  <time>2026-08-28T17:53:12Z</time>
  <course>104.24</course>
  <speed>0.3132091952673165</speed>
  <fix>3d</fix>
</trkpt>
<trkpt lat="40.0714791" lon="-105.2296846">
  <ele>1583.0</ele>
  <time>2026-08-28T17:53:12Z</time>
  <course>283.2</course>
  <speed>0.21</speed>
  <fix>3d</fix>
</trkpt>
<trkpt lat="40.0714794" lon="-105.2296854">
  <ele>1583.0</ele>
  <time>2026-08-28T17:53:12Z</time>
  <course>104.81</course>
  <speed>0.3420526275297414</speed>
  <fix>3d</fix>
</trkpt>
<trkpt lat="40.0714791" lon="-105.2296846">
  <ele>1583.0</ele>
  <time>2026-08-28T17:53:12Z</time>
  <course>283.2</course>
  <speed>0.21</speed>
  <fix>3d</fix>
</trkpt>
<trkpt lat="40.0714795" lon="-105.2296858">
  <ele>1583.0</ele>
  <time>2026-08-28T17:53:12Z</time>
  <course>105.61</course>
  <speed>0.354400902933387</speed>
  <fix>3d</fix>
</trkpt>
<trkpt lat="40.0714791" lon="-105.2296846">
  <ele>1583.0</ele>
  <time>2026-08-28T17:53:12Z</time>
  <course>283.2</course>
  <speed>0.21</speed>
  <fix>3d</fix>
</trkpt>
<trkpt lat="40.0714795" lon="-105.2296861">
  <ele>1582.99</ele>
  <time>2026-08-28T17:53:12Z</time>
  <course>106.62</course>
  <speed>0.34481879299133333</speed>
  <fix>3d</fix>
</trkpt>
<trkpt lat="40.0714792" lon="-105.2296851">
  <ele>1583.0</ele>
  <time>2026-08-28T17:53:12Z</time>
  <course>284.16</course>
  <speed>0.27</speed>
  <fix>3d</fix>
</trkpt>
<trkpt lat="40.0714796" lon="-105.2296865">
  <ele>1582.99</ele>
  <time>2026-08-28T17:53:12Z</time>
  <course>107.78</course>
  <speed>0.32572994949804657</speed>
  <fix>3d</fix>
</trkpt>
<trkpt lat="40.0714792" lon="-105.2296851">
  <ele>1583.0</ele>
  <time>2026-08-28T17:53:12Z</time>
  <course>284.16</course>
  <speed>0.27</speed>
  <fix>3d</fix>
</trkpt>
<trkpt lat="40.0714797" lon="-105.2296868">
  <ele>1582.99</ele>
  <time>2026-08-28T17:53:12Z</time>
  <course>109.0</course>
  <speed>0.29410882339705485</speed>
  <fix>3d</fix>
</trkpt>
<trkpt lat="40.0714793" lon="-105.2296857">
  <ele>1583.0</ele>
  <time>2026-08-28T17:53:12Z</time>
  <course>285.84</course>
  <speed>0.27</speed>
  <fix>3d</fix>
</trkpt>
<trkpt lat="40.0714797" lon="-105.2296871">
  <ele>1582.99</ele>
  <time>2026-08-28T17:53:13Z</time>
  <course>110.14</course>
  <speed>0.24041630560342614</speed>
  <fix>3d</fix>
</trkpt>
<trkpt lat="40.0714793" lon="-105.2296857">
  <ele>1583.0</ele>
  <time>2026-08-28T17:53:13Z</time>
  <course>285.84</course>
  <speed>0.27</speed>
  <fix>3d</fix>
</trkpt>
<trkpt lat="40.0714797" lon="-105.2296872">
  <ele>1582.99</ele>
  <time>2026-08-28T17:53:13Z</time>
  <course>111.04</course>
  <speed>0.1676305461424021</speed>
  <fix>3d</fix>
</trkpt>
<trkpt lat="40.0714794" lon="-105.2296863">
  <ele>1583.0</ele>
  <time>2026-08-28T17:53:13Z</time>
  <course>287.93</course>
  <speed>0.22</speed>
  <fix>3d</fix>
</trkpt>
<trkpt lat="40.0714797" lon="-105.2296873">
  <ele>1583.0</ele>
  <time>2026-08-28T17:53:13Z</time>
  <course>111.52</course>
  <speed>0.09219544457292887</speed>
  <fix>3d</fix>
</trkpt>
<trkpt lat="40.0714794" lon="-105.2296863">
  <ele>1583.0</ele>
  <time>2026-08-28T17:53:13Z</time>
  <course>287.93</course>
  <speed>0.22</speed>
  <fix>3d</fix>
</trkpt>
<trkpt lat="40.0714797" lon="-105.2296873">
  <ele>1583.0</ele>
  <time>2026-08-28T17:53:13Z</time>
  <course>111.45</course>
  <speed>0.01</speed>
  <fix>3d</fix>
</trkpt>
<trkpt lat="40.0714795" lon="-105.2296867">
  <ele>1583.0</ele>
  <time>2026-08-28T17:53:13Z</time>
  <course>289.55</course>
  <speed>0.1</speed>
  <fix>3d</fix>
</trkpt>
<trkpt lat="40.0714797" lon="-105.2296872">
  <ele>1583.0</ele>
  <time>2026-08-28T17:53:13Z</time>
  <course>112.14</course>
  <speed>0.10295630140987001</speed>
  <fix>3d</fix>
</trkpt>
<trkpt lat="40.0714795" lon="-105.2296867">
  <ele>1583.0</ele>
  <time>2026-08-28T17:53:13Z</time>
  <course>111.5</course>
  <speed>0.06</speed>
  <fix>3d</fix>
</trkpt>
<trkpt lat="40.0714796" lon="-105.229687">
  <ele>1583.0</ele>
  <time>2026-08-28T17:53:13Z</time>
  <course>113.52</course>
  <speed>0.2195449840010015</speed>
  <fix>3d</fix>
</trkpt>
<trkpt lat="40.0714795" lon="-105.2296867">
  <ele>1583.0</ele>
  <time>2026-08-28T17:53:13Z</time>
  <course>111.5</course>
  <speed>0.06</speed>
  <fix>3d</fix>
</trkpt>
<trkpt lat="40.0714795" lon="-105.2296867">
  <ele>1583.0</ele>
  <time>2026-08-28T17:53:13Z</time>
  <course>115.65</course>
  <speed>0.34481879299133333</speed>
  <fix>3d</fix>
</trkpt>
<trkpt lat="40.0714794" lon="-105.2296864">
  <ele>1583.0</ele>
  <time>2026-08-28T17:53:13Z</time>
  <course>113.85</course>
  <speed>0.28</speed>
  <fix>3d</fix>
</trkpt>
<trkpt lat="40.0714793" lon="-105.2296861">
  <ele>1583.0</ele>
  <time>2026-08-28T17:53:13Z</time>
  <course>118.6</course>
  <speed>0.4854894437575342</speed>
  <fix>3d</fix>
</trkpt>
<trkpt lat="40.0714794" lon="-105.2296864">
  <ele>1583.0</ele>
  <time>2026-08-28T17:53:13Z</time>
  <course>113.85</course>
  <speed>0.28</speed>
  <fix>3d</fix>
</trkpt>
<trkpt lat="40.071479" lon="-105.2296855">
  <ele>1583.0</ele>
  <time>2026-08-28T17:53:13Z</time>
  <course>122.4</course>
  <speed>0.6242595614005443</speed>
  <fix>3d</fix>
</trkpt>
<trkpt lat="40.0714792" lon="-105.2296856">
  <ele>1583.0</ele>
  <time>2026-08-28T17:53:13Z</time>
  <course>119.1</course>
  <speed>0.53</speed>
  <fix>3d</fix>
</trkpt>
<trkpt lat="40.0714786" lon="-105.2296848">
  <ele>1583.01</ele>
  <time>2026-08-28T17:53:13Z</time>
  <course>127.09</course>
  <speed>0.7733692520394123</speed>
  <fix>3d</fix>
</trkpt>
<trkpt lat="40.0714792" lon="-105.2296856">
  <ele>1583.0</ele>
  <time>2026-08-28T17:53:13Z</time>
  <course>119.1</course>
  <speed>0.53</speed>
  <fix>3d</fix>
</trkpt>
<trkpt lat="40.071478" lon="-105.2296839">
  <ele>1583.01</ele>
  <time>2026-08-28T17:53:13Z</time>
  <course>132.73</course>
  <speed>0.9263368717696602</speed>
  <fix>3d</fix>
</trkpt>
<trkpt lat="40.0714785" lon="-105.2296843">
  <ele>1583.0</ele>
  <time>2026-08-28T17:53:13Z</time>
  <course>127.69</course>
  <speed>0.8</speed>
  <fix>3d</fix>
</trkpt>
<trkpt lat="40.0714773" lon="-105.2296831">
  <ele>1583.01</ele>
  <time>2026-08-28T17:53:13Z</time>
  <course>139.07</course>
  <speed>1.074476616776745</speed>
  <fix>3d</fix>
</trkpt>
<trkpt lat="40.0714785" lon="-105.2296843">
  <ele>1583.0</ele>
  <time>2026-08-28T17:53:13Z</time>
  <course>127.69</course>
  <speed>0.8</speed>
  <fix>3d</fix>
</trkpt>
<trkpt lat="40.0714764" lon="-105.2296822">
  <ele>1583.01</ele>
  <time>2026-08-28T17:53:13Z</time>
  <course>144.77</course>
  <speed>1.2287391912037315</speed>
  <fix>3d</fix>
</trkpt>
<trkpt lat="40.0714774" lon="-105.2296827">
  <ele>1583.0</ele>
  <time>2026-08-28T17:53:13Z</time>
  <course>138.75</course>
  <speed>1.09</speed>
  <fix>3d</fix>
</trkpt>
<trkpt lat="40.0714754" lon="-105.2296813">
  <ele>1583.01</ele>
  <time>2026-08-28T17:53:13Z</time>
  <course>149.72</course>
  <speed>1.3823530663329107</speed>
  <fix>3d</fix>
</trkpt>
<trkpt lat="40.0714774" lon="-105.2296827">
  <ele>1583.0</ele>
  <time>2026-08-28T17:53:13Z</time>
  <course>138.75</course>
  <speed>1.09</speed>
  <fix>3d</fix>
</trkpt>
<trkpt lat="40.0714742" lon="-105.2296805">
  <ele>1583.01</ele>
  <time>2026-08-28T17:53:13Z</time>
  <course>154.08</course>
  <speed>1.5311433636338563</speed>
  <fix>3d</fix>
</trkpt>
<trkpt lat="40.0714756" lon="-105.229681">
  <ele>1583.0</ele>
  <time>2026-08-28T17:53:13Z</time>
  <course>149.11</course>
  <speed>1.37</speed>
  <fix>3d</fix>
</trkpt>
<trkpt lat="40.0714728" lon="-105.2296797">
  <ele>1583.02</ele>
  <time>2026-08-28T17:53:13Z</time>
  <course>158.07</course>
  <speed>1.660873264279969</speed>
  <fix>3d</fix>
</trkpt>
<trkpt lat="40.0714756" lon="-105.229681">
  <ele>1583.0</ele>
  <time>2026-08-28T17:53:13Z</time>
  <course>149.11</course>
  <speed>1.37</speed>
  <fix>3d</fix>
</trkpt>
<trkpt lat="40.0714713" lon="-105.229679">
  <ele>1583.02</ele>
  <time>2026-08-28T17:53:13Z</time>
  <course>161.51</course>
  <speed>1.777751388693031</speed>
  <fix>3d</fix>
</trkpt>
<trkpt lat="40.0714731" lon="-105.2296794">
  <ele>1583.0</ele>
  <time>2026-08-28T17:53:13Z</time>
  <course>157.27</course>
  <speed>1.64</speed>
  <fix>3d</fix>
</trkpt>
<trkpt lat="40.0714697" lon="-105.2296784">
  <ele>1583.03</ele>
  <time>2026-08-28T17:53:13Z</time>
  <course>164.44</course>
  <speed>1.8966285877841238</speed>
  <fix>3d</fix>
</trkpt>
<trkpt lat="40.0714731" lon="-105.2296794">
  <ele>1583.0</ele>
  <time>2026-08-28T17:53:13Z</time>
  <course>157.27</course>
  <speed>1.64</speed>
  <fix>3d</fix>
</trkpt>
<trkpt lat="40.071468" lon="-105.2296778">
  <ele>1583.03</ele>
  <time>2026-08-28T17:53:13Z</time>
  <course>166.95</course>
  <speed>2.012212712413874</speed>
  <fix>3d</fix>
</trkpt>
<trkpt lat="40.0714731" lon="-105.2296794">
  <ele>1583.0</ele>
  <time>2026-08-28T17:53:13Z</time>
  <course>157.27</course>
  <speed>1.64</speed>
  <fix>3d</fix>
</trkpt>
<trkpt lat="40.0714662" lon="-105.2296773">
  <ele>1583.03</ele>
  <time>2026-08-28T17:53:13Z</time>
  <course>169.11</course>
  <speed>2.1207781590727497</speed>
  <fix>3d</fix>
</trkpt>
<trkpt lat="40.0714701" lon="-105.2296781">
  <ele>1583.0</ele>
  <time>2026-08-28T17:53:13Z</time>
  <course>163.61</course>
  <speed>1.87</speed>
  <fix>3d</fix>
</trkpt>
<trkpt lat="40.0714642" lon="-105.2296768">
  <ele>1583.03</ele>
  <time>2026-08-28T17:53:13Z</time>
  <course>170.96</course>
  <speed>2.2316361710637334</speed>
  <fix>3d</fix>
</trkpt>
<trkpt lat="40.0714701" lon="-105.2296781">
  <ele>1583.0</ele>
  <time>2026-08-28T17:53:13Z</time>
  <course>163.61</course>
  <speed>1.87</speed>
  <fix>3d</fix>
</trkpt>
<trkpt lat="40.0714622" lon="-105.2296764">
  <ele>1583.03</ele>
  <time>2026-08-28T17:53:13Z</time>
  <course>172.57</course>
  <speed>2.335658365429328</speed>
  <fix>3d</fix>
</trkpt>
<trkpt lat="40.0714667" lon="-105.229677">
  <ele>1583.0</ele>
  <time>2026-08-28T17:53:13Z</time>
  <course>168.29</course>
  <speed>2.09</speed>
  <fix>3d</fix>
</trkpt>
<trkpt lat="40.0714601" lon="-105.2296761">
  <ele>1583.03</ele>
  <time>2026-08-28T17:53:13Z</time>
  <course>173.95</course>
  <speed>2.4399385238157127</speed>
  <fix>3d</fix>
</trkpt>
<trkpt lat="40.0714667" lon="-105.229677">
  <ele>1583.0</ele>
  <time>2026-08-28T17:53:13Z</time>
  <course>168.29</course>
  <speed>2.09</speed>
  <fix>3d</fix>
</trkpt>
<trkpt lat="40.0714578" lon="-105.2296758">
  <ele>1583.03</ele>
  <time>2026-08-28T17:53:13Z</time>
  <course>175.13</course>
  <speed>2.5470963860835734</speed>
  <fix>3d</fix>
</trkpt>
<trkpt lat="40.0714628" lon="-105.2296761">
  <ele>1583.0</ele>
  <time>2026-08-28T17:53:13Z</time>
  <course>171.76</course>
  <speed>2.3</speed>
  <fix>3d</fix>
</trkpt>
<trkpt lat="40.0714555" lon="-105.2296756">
  <ele>1583.02</ele>
  <time>2026-08-28T17:53:13Z</time>
  <course>176.15</course>
  <speed>2.6542418879973995</speed>
  <fix>3d</fix>
</trkpt>
<trkpt lat="40.0714585" lon="-105.2296753">
  <ele>1583.0</ele>
  <time>2026-08-28T17:53:13Z</time>
  <course>174.34</course>
  <speed>2.5</speed>
  <fix>3d</fix>
</trkpt>
<trkpt lat="40.0714531" lon="-105.2296753">
  <ele>1583.02</ele>
  <time>2026-08-28T17:53:13Z</time>
  <course>177.02</course>
  <speed>2.7526169366622737</speed>
  <fix>3d</fix>
</trkpt>
<trkpt lat="40.0714585" lon="-105.2296753">
  <ele>1583.0</ele>
  <time>2026-08-28T17:53:13Z</time>
  <course>174.34</course>
  <speed>2.5</speed>
  <fix>3d</fix>
</trkpt>
<trkpt lat="40.0714506" lon="-105.2296751">
  <ele>1583.02</ele>
  <time>2026-08-28T17:53:13Z</time>
  <course>177.77</course>
  <speed>2.8514206985290684</speed>
  <fix>3d</fix>
</trkpt>
<trkpt lat="40.0714538" lon="-105.2296748">
  <ele>1583.0</ele>
  <time>2026-08-28T17:53:13Z</time>
  <course>176.24</course>
  <speed>2.71</speed>
  <fix>3d</fix>
</trkpt>
<trkpt lat="40.071448" lon="-105.229675">
  <ele>1583.01</ele>
  <time>2026-08-28T17:53:13Z</time>
  <course>178.43</course>
  <speed>2.9506101064017254</speed>
  <fix>3d</fix>
</trkpt>
<trkpt lat="40.0714538" lon="-105.2296748">
  <ele>1583.0</ele>
  <time>2026-08-28T17:53:13Z</time>
  <course>176.24</course>
  <speed>2.71</speed>
  <fix>3d</fix>
</trkpt>
<trkpt lat="40.0714453" lon="-105.2296749">
  <ele>1583.01</ele>
  <time>2026-08-28T17:53:13Z</time>
  <course>179.0</course>
  <speed>3.05026228380446</speed>
  <fix>3d</fix>
</trkpt>
<trkpt lat="40.0714488" lon="-105.2296745">
  <ele>1583.0</ele>
  <time>2026-08-28T17:53:13Z</time>
  <course>177.68</course>
  <speed>2.9</speed>
  <fix>3d</fix>
</trkpt>
<trkpt lat="40.0714425" lon="-105.2296748">
  <ele>1583.01</ele>
  <time>2026-08-28T17:53:13Z</time>
  <course>179.51</course>
  <speed>3.150063491423625</speed>
  <fix>3d</fix>
</trkpt>
<trkpt lat="40.0714488" lon="-105.2296745">
  <ele>1583.0</ele>
  <time>2026-08-28T17:53:13Z</time>
  <course>177.68</course>
  <speed>2.9</speed>
  <fix>3d</fix>
</trkpt>
<trkpt lat="40.0714396" lon="-105.2296747">
  <ele>1583.01</ele>
  <time>2026-08-28T17:53:13Z</time>
  <course>179.98</course>
  <speed>3.23</speed>
  <fix>3d</fix>
</trkpt>
<trkpt lat="40.0714433" lon="-105.2296743">
  <ele>1583.0</ele>
  <time>2026-08-28T17:53:13Z</time>
  <course>178.79</course>
  <speed>3.09</speed>
  <fix>3d</fix>
</trkpt>
<trkpt lat="40.0714366" lon="-105.2296747">
  <ele>1583.01</ele>
  <time>2026-08-28T17:53:13Z</time>
  <course>180.41</course>
  <speed>3.3100604224092347</speed>
  <fix>3d</fix>
</trkpt>
<trkpt lat="40.0714433" lon="-105.2296743">
  <ele>1583.0</ele>
  <time>2026-08-28T17:53:13Z</time>
  <course>178.79</course>
  <speed>3.09</speed>
  <fix>3d</fix>
</trkpt>
<trkpt lat="40.0714336" lon="-105.2296746">
  <ele>1583.01</ele>
  <time>2026-08-28T17:53:13Z</time>
  <course>180.81</course>
  <speed>3.360238086802779</speed>
  <fix>3d</fix>
</trkpt>
<trkpt lat="40.0714377" lon="-105.2296742">
  <ele>1583.0</ele>
  <time>2026-08-28T17:53:13Z</time>
  <course>179.7</course>
  <speed>3.24</speed>
  <fix>3d</fix>
</trkpt>
<trkpt lat="40.0714306" lon="-105.2296747">
  <ele>1583.01</ele>
  <time>2026-08-28T17:53:13Z</time>
  <course>181.17</course>
  <speed>3.4105278183882333</speed>
  <fix>3d</fix>
</trkpt>
<trkpt lat="40.0714377" lon="-105.2296742">
  <ele>1583.0</ele>
  <time>2026-08-28T17:53:13Z</time>
  <course>179.7</course>
  <speed>3.24</speed>
  <fix>3d</fix>
</trkpt>
<trkpt lat="40.0714275" lon="-105.2296747">
  <ele>1583.01</ele>
  <time>2026-08-28T17:53:13Z</time>
  <course>181.52</course>
  <speed>3.4309328177625393</speed>
  <fix>3d</fix>
</trkpt>
<trkpt lat="40.0714318" lon="-105.2296742">
  <ele>1583.0</ele>
  <time>2026-08-28T17:53:13Z</time>
  <course>180.46</course>
  <speed>3.34</speed>
  <fix>3d</fix>
</trkpt>
<trkpt lat="40.0714244" lon="-105.2296747">
  <ele>1583.01</ele>
  <time>2026-08-28T17:53:13Z</time>
  <course>181.83</course>
  <speed>3.4411771241829445</speed>
  <fix>3d</fix>
</trkpt>
<trkpt lat="40.0714318" lon="-105.2296742">
  <ele>1583.0</ele>
  <time>2026-08-28T17:53:13Z</time>
  <course>180.46</course>
  <speed>3.34</speed>
  <fix>3d</fix>
</trkpt>
<trkpt lat="40.0714213" lon="-105.2296747">
  <ele>1583.0</ele>
  <time>2026-08-28T17:53:13Z</time>
  <course>182.15</course>
  <speed>3.441758271581547</speed>
  <fix>3d</fix>
</trkpt>
<trkpt lat="40.0714257" lon="-105.2296743">
  <ele>1583.0</ele>
  <time>2026-08-28T17:53:13Z</time>
  <course>181.14</course>
  <speed>3.38</speed>
  <fix>3d</fix>
</trkpt>
<trkpt lat="40.0714183" lon="-105.2296748">
  <ele>1583.0</ele>
  <time>2026-08-28T17:53:13Z</time>
  <course>182.46</course>
  <speed>3.412110783664563</speed>
  <fix>3d</fix>
</trkpt>
<trkpt lat="40.0714257" lon="-105.2296743">
  <ele>1583.0</ele>
  <time>2026-08-28T17:53:13Z</time>
  <course>181.14</course>
  <speed>3.38</speed>
  <fix>3d</fix>
</trkpt>
<trkpt lat="40.0714152" lon="-105.229675">
  <ele>1583.0</ele>
  <time>2026-08-28T17:53:13Z</time>
  <course>182.78</course>
  <speed>3.372906758272455</speed>
  <fix>3d</fix>
</trkpt>
<trkpt lat="40.0714257" lon="-105.2296743">
  <ele>1583.0</ele>
  <time>2026-08-28T17:53:13Z</time>
  <course>181.14</course>
  <speed>3.38</speed>
  <fix>3d</fix>
</trkpt>
<trkpt lat="40.0714123" lon="-105.2296751">
  <ele>1583.0</ele>
  <time>2026-08-28T17:53:13Z</time>
  <course>183.09</course>
  <speed>3.3233868267175883</speed>
  <fix>3d</fix>
</trkpt>
<trkpt lat="40.0714196" lon="-105.2296744">
  <ele>1583.0</ele>
  <time>2026-08-28T17:53:13Z</time>
  <course>181.78</course>
  <speed>3.35</speed>
  <fix>3d</fix>
</trkpt>
<trkpt lat="40.0714094" lon="-105.2296752">
  <ele>1583.0</ele>
  <time>2026-08-28T17:53:13Z</time>
  <course>183.39</course>
  <speed>3.2539360780445583</speed>
  <fix>3d</fix>
</trkpt>
<trkpt lat="40.0714196" lon="-105.2296744">
  <ele>1583.0</ele>
  <time>2026-08-28T17:53:13Z</time>
  <course>181.78</course>
  <speed>3.35</speed>
  <fix>3d</fix>
</trkpt>
<trkpt lat="40.0714066" lon="-105.2296754">
  <ele>1583.0</ele>
  <time>2026-08-28T17:53:13Z</time>
  <course>183.72</course>
  <speed>3.1645694809878955</speed>
  <fix>3d</fix>
</trkpt>
<trkpt lat="40.0714136" lon="-105.2296747">
  <ele>1583.0</ele>
  <time>2026-08-28T17:53:13Z</time>
  <course>182.41</course>
  <speed>3.26</speed>
  <fix>3d</fix>
</trkpt>
<trkpt lat="40.0714039" lon="-105.2296756">
  <ele>1583.0</ele>
  <time>2026-08-28T17:53:13Z</time>
  <course>184.06</course>
  <speed>3.0652895458667526</speed>
  <fix>3d</fix>
</trkpt>
<trkpt lat="40.0714136" lon="-105.2296747">
  <ele>1583.0</ele>
  <time>2026-08-28T17:53:13Z</time>
  <course>182.41</course>
  <speed>3.26</speed>
  <fix>3d</fix>
</trkpt>
<trkpt lat="40.0714012" lon="-105.2296758">
  <ele>1582.99</ele>
  <time>2026-08-28T17:53:13Z</time>
  <course>184.42</course>
  <speed>2.9461330587738224</speed>
  <fix>3d</fix>
</trkpt>
<trkpt lat="40.071408" lon="-105.2296751">
  <ele>1583.0</ele>
  <time>2026-08-28T17:53:13Z</time>
  <course>183.05</course>
  <speed>3.11</speed>
  <fix>3d</fix>
</trkpt>
<trkpt lat="40.0713987" lon="-105.229676">
  <ele>1582.99</ele>
  <time>2026-08-28T17:53:13Z</time>
  <course>184.8</course>
  <speed>2.827083302628347</speed>
  <fix>3d</fix>
</trkpt>
<trkpt lat="40.0714025" lon="-105.2296755">
  <ele>1583.0</ele>
  <time>2026-08-28T17:53:13Z</time>
  <course>183.76</course>
  <speed>2.91</speed>
  <fix>3d</fix>
</trkpt>
<trkpt lat="40.0713963" lon="-105.2296762">
  <ele>1582.99</ele>
  <time>2026-08-28T17:53:13Z</time>
  <course>185.19</course>
  <speed>2.687452325158532</speed>
  <fix>3d</fix>
</trkpt>
<trkpt lat="40.0714025" lon="-105.2296755">
  <ele>1583.0</ele>
  <time>2026-08-28T17:53:13Z</time>
  <course>183.76</course>
  <speed>2.91</speed>
  <fix>3d</fix>
</trkpt>
<trkpt lat="40.071394" lon="-105.2296764">
  <ele>1582.98</ele>
  <time>2026-08-28T17:53:13Z</time>
  <course>185.6</course>
  <speed>2.5486663179004037</speed>
  <fix>3d</fix>
</trkpt>
<trkpt lat="40.0713975" lon="-105.229676">
  <ele>1583.0</ele>
  <time>2026-08-28T17:53:13Z</time>
  <course>184.53</course>
  <speed>2.67</speed>
  <fix>3d</fix>
</trkpt>
<trkpt lat="40.0713918" lon="-105.2296766">
  <ele>1582.98</ele>
  <time>2026-08-28T17:53:13Z</time>
  <course>186.03</course>
  <speed>2.4091699815496623</speed>
  <fix>3d</fix>
</trkpt>
<trkpt lat="40.0713975" lon="-105.229676">
  <ele>1583.0</ele>
  <time>2026-08-28T17:53:13Z</time>
  <course>184.53</course>
  <speed>2.67</speed>
  <fix>3d</fix>
</trkpt>
<trkpt lat="40.0713898" lon="-105.2296769">
  <ele>1582.98</ele>
  <time>2026-08-28T17:53:13Z</time>
  <course>186.48</course>
  <speed>2.2597787502319777</speed>
  <fix>3d</fix>
</trkpt>
<trkpt lat="40.071393" lon="-105.2296765">
  <ele>1583.0</ele>
  <time>2026-08-28T17:53:13Z</time>
  <course>185.36</course>
  <speed>2.39</speed>
  <fix>3d</fix>
</trkpt>
<trkpt lat="40.0713879" lon="-105.2296771">
  <ele>1582.98</ele>
  <time>2026-08-28T17:53:13Z</time>
  <course>186.97</course>
  <speed>2.110473880435387</speed>
  <fix>3d</fix>
</trkpt>
<trkpt lat="40.071393" lon="-105.2296765">
  <ele>1583.0</ele>
  <time>2026-08-28T17:53:13Z</time>
  <course>185.36</course>
  <speed>2.39</speed>
  <fix>3d</fix>
</trkpt>
<trkpt lat="40.0713861" lon="-105.2296774">
  <ele>1582.98</ele>
  <time>2026-08-28T17:53:13Z</time>
  <course>187.49</course>
  <speed>1.9612750954417384</speed>
  <fix>3d</fix>
</trkpt>
<trkpt lat="40.0713889" lon="-105.229677">
  <ele>1583.0</ele>
  <time>2026-08-28T17:53:13Z</time>
  <course>186.3</course>
  <speed>2.11</speed>
  <fix>3d</fix>
</trkpt>
<trkpt lat="40.0713845" lon="-105.2296776">
  <ele>1582.98</ele>
  <time>2026-08-28T17:53:13Z</time>
  <course>188.06</course>
  <speed>1.8122085972646746</speed>
  <fix>3d</fix>
</trkpt>
<trkpt lat="40.0713889" lon="-105.229677">
  <ele>1583.0</ele>
  <time>2026-08-28T17:53:13Z</time>
  <course>186.3</course>
  <speed>2.11</speed>
  <fix>3d</fix>
</trkpt>
<trkpt lat="40.071383" lon="-105.2296779">
  <ele>1582.97</ele>
  <time>2026-08-28T17:53:13Z</time>
  <course>188.68</course>
  <speed>1.6633099530754933</speed>
  <fix>3d</fix>
</trkpt>
<trkpt lat="40.0713854" lon="-105.2296776">
  <ele>1583.0</ele>
  <time>2026-08-28T17:53:13Z</time>
  <course>187.38</course>
  <speed>1.82</speed>
  <fix>3d</fix>
</trkpt>
<trkpt lat="40.0713816" lon="-105.2296781">
  <ele>1582.97</ele>
  <time>2026-08-28T17:53:13Z</time>
  <course>189.37</course>
  <speed>1.5146286673637206</speed>
  <fix>3d</fix>
</trkpt>
<trkpt lat="40.0713854" lon="-105.2296776">
  <ele>1583.0</ele>
  <time>2026-08-28T17:53:13Z</time>
  <course>187.38</course>
  <speed>1.82</speed>
  <fix>3d</fix>
</trkpt>
<trkpt lat="40.0713804" lon="-105.2296784">
  <ele>1582.97</ele>
  <time>2026-08-28T17:53:13Z</time>
  <course>190.14</course>
  <speed>1.3746272221951665</speed>
  <fix>3d</fix>
</trkpt>
<trkpt lat="40.0713824" lon="-105.2296781">
  <ele>1583.0</ele>
  <time>2026-08-28T17:53:13Z</time>
  <course>188.69</course>
  <speed>1.53</speed>
  <fix>3d</fix>
</trkpt>
<trkpt lat="40.0713792" lon="-105.2296786">
  <ele>1582.97</ele>
  <time>2026-08-28T17:53:13Z</time>
  <course>191.03</course>
  <speed>1.2264175471673584</speed>
  <fix>3d</fix>
</trkpt>
<trkpt lat="40.0713824" lon="-105.2296781">
  <ele>1583.0</ele>
  <time>2026-08-28T17:53:13Z</time>
  <course>188.69</course>
  <speed>1.53</speed>
  <fix>3d</fix>
</trkpt>
<trkpt lat="40.0713782" lon="-105.2296789">
  <ele>1582.97</ele>
  <time>2026-08-28T17:53:13Z</time>
  <course>192.05</course>
  <speed>1.0867382389517726</speed>
  <fix>3d</fix>
</trkpt>
<trkpt lat="40.07138" lon="-105.2296786">
  <ele>1583.0</ele>
  <time>2026-08-28T17:53:13Z</time>
  <course>190.35</course>
  <speed>1.26</speed>
  <fix>3d</fix>
</trkpt>
<trkpt lat="40.0713774" lon="-105.2296791">
  <ele>1582.97</ele>
  <time>2026-08-28T17:53:13Z</time>
  <course>193.26</course>
  <speed>0.9590099061010788</speed>
  <fix>3d</fix>
</trkpt>
<trkpt lat="40.07138" lon="-105.2296786">
  <ele>1583.0</ele>
  <time>2026-08-28T17:53:13Z</time>
  <course>190.35</course>
  <speed>1.26</speed>
  <fix>3d</fix>
</trkpt>
<trkpt lat="40.0713766" lon="-105.2296793">
  <ele>1582.98</ele>
  <time>2026-08-28T17:53:13Z</time>
  <course>194.47</course>
  <speed>0.8178630692236935</speed>
  <fix>3d</fix>
</trkpt>
<trkpt lat="40.07138" lon="-105.2296786">
  <ele>1583.0</ele>
  <time>2026-08-28T17:53:13Z</time>
  <course>190.35</course>
  <speed>1.26</speed>
  <fix>3d</fix>
</trkpt>
<trkpt lat="40.071376" lon="-105.2296796">
  <ele>1582.98</ele>
  <time>2026-08-28T17:53:13Z</time>
  <course>195.63</course>
  <speed>0.6985699678629191</speed>
  <fix>3d</fix>
</trkpt>
<trkpt lat="40.0713779" lon="-105.2296792">
  <ele>1583.0</ele>
  <time>2026-08-28T17:53:13Z</time>
  <course>192.47</course>
  <speed>0.99</speed>
  <fix>3d</fix>
</trkpt>
<trkpt lat="40.0713755" lon="-105.2296797">
  <ele>1582.98</ele>
  <time>2026-08-28T17:53:13Z</time>
  <course>196.73</course>
  <speed>0.5772347875864725</speed>
  <fix>3d</fix>
</trkpt>
<trkpt lat="40.0713779" lon="-105.2296792">
  <ele>1583.0</ele>
  <time>2026-08-28T17:53:13Z</time>
  <course>192.47</course>
  <speed>0.99</speed>
  <fix>3d</fix>
</trkpt>
<trkpt lat="40.0713751" lon="-105.2296799">
  <ele>1582.99</ele>
  <time>2026-08-28T17:53:13Z</time>
  <course>197.65</course>
  <speed>0.4535416188179427</speed>
  <fix>3d</fix>
</trkpt>
<trkpt lat="40.0713765" lon="-105.2296796">
  <ele>1583.0</ele>
  <time>2026-08-28T17:53:13Z</time>
  <course>194.79</course>
  <speed>0.74</speed>
  <fix>3d</fix>
</trkpt>
<trkpt lat="40.0713747" lon="-105.2296801">
  <ele>1582.99</ele>
  <time>2026-08-28T17:53:13Z</time>
  <course>198.4</course>
  <speed>0.3420526275297414</speed>
  <fix>3d</fix>
</trkpt>
<trkpt lat="40.0713765" lon="-105.2296796">
  <ele>1583.0</ele>
  <time>2026-08-28T17:53:13Z</time>
  <course>194.79</course>
  <speed>0.74</speed>
  <fix>3d</fix>
</trkpt>
<trkpt lat="40.0713745" lon="-105.2296802">
  <ele>1582.99</ele>
  <time>2026-08-28T17:53:13Z</time>
  <course>198.95</course>
  <speed>0.22803508501982758</speed>
  <fix>3d</fix>
</trkpt>
<trkpt lat="40.0713754" lon="-105.2296801">
  <ele>1583.0</ele>
  <time>2026-08-28T17:53:13Z</time>
  <course>196.75</course>
  <speed>0.51</speed>
  <fix>3d</fix>
</trkpt>
<trkpt lat="40.0713744" lon="-105.2296802">
  <ele>1583.0</ele>
  <time>2026-08-28T17:53:13Z</time>
  <course>199.33</course>
  <speed>0.12165525060596438</speed>
  <fix>3d</fix>
</trkpt>
<trkpt lat="40.0713754" lon="-105.2296801">
  <ele>1583.0</ele>
  <time>2026-08-28T17:53:13Z</time>
  <course>196.75</course>
  <speed>0.51</speed>
  <fix>3d</fix>
</trkpt>
<trkpt lat="40.0713743" lon="-105.2296803">
  <ele>1583.0</ele>
  <time>2026-08-28T17:53:13Z</time>
  <course>199.54</course>
  <speed>0.03</speed>
  <fix>3d</fix>
</trkpt>
<trkpt lat="40.0713747" lon="-105.2296804">
  <ele>1583.0</ele>
  <time>2026-08-28T17:53:13Z</time>
  <course>198.07</course>
  <speed>0.29</speed>
  <fix>3d</fix>
</trkpt>
<trkpt lat="40.0713743" lon="-105.2296804">
  <ele>1583.0</ele>
  <time>2026-08-28T17:53:13Z</time>
  <course>199.55</course>
  <speed>0.044721359549995794</speed>
  <fix>3d</fix>
</trkpt>
<trkpt lat="40.0713743" lon="-105.2296805">
  <ele>1583.0</ele>
  <time>2026-08-28T17:53:13Z</time>
  <course>198.72</course>
  <speed>0.09</speed>
  <fix>3d</fix>
</trkpt>
<trkpt lat="40.0713743" lon="-105.2296804">
  <ele>1583.0</ele>
  <time>2026-08-28T17:53:13Z</time>
  <course>199.59</course>
  <speed>0.11704699910719625</speed>
  <fix>3d</fix>
</trkpt>
<trkpt lat="40.0713743" lon="-105.2296805">
  <ele>1583.0</ele>
  <time>2026-08-28T17:53:13Z</time>
  <course>198.72</course>
  <speed>0.09</speed>
  <fix>3d</fix>
</trkpt>
<trkpt lat="40.0713744" lon="-105.2296803">
  <ele>1583.0</ele>
  <time>2026-08-28T17:53:13Z</time>
  <course>199.71</course>
  <speed>0.1708800749063506</speed>
  <fix>3d</fix>
</trkpt>
<trkpt lat="40.0713742" lon="-105.2296806">
  <ele>1583.0</ele>
  <time>2026-08-28T17:53:13Z</time>
  <course>19.08</course>
  <speed>0.05</speed>
  <fix>3d</fix>
</trkpt>
<trkpt lat="40.0713746" lon="-105.2296803">
  <ele>1583.0</ele>
  <time>2026-08-28T17:53:13Z</time>
  <course>199.87</course>
  <speed>0.21189620100417092</speed>
  <fix>3d</fix>
</trkpt>
<trkpt lat="40.0713742" lon="-105.2296806">
  <ele>1583.0</ele>
  <time>2026-08-28T17:53:13Z</time>
  <course>19.08</course>
  <speed>0.05</speed>
  <fix>3d</fix>
</trkpt>
<trkpt lat="40.0713748" lon="-105.2296802">
  <ele>1583.0</ele>
  <time>2026-08-28T17:53:13Z</time>
  <course>199.92</course>
  <speed>0.2529822128134704</speed>
  <fix>3d</fix>
</trkpt>
<trkpt lat="40.0713744" lon="-105.2296805">
  <ele>1583.0</ele>
  <time>2026-08-28T17:53:13Z</time>
  <course>19.21</course>
  <speed>0.15</speed>
  <fix>3d</fix>
</trkpt>
<trkpt lat="40.071375" lon="-105.2296801">
  <ele>1583.0</ele>
  <time>2026-08-28T17:53:13Z</time>
  <course>199.95</course>
  <speed>0.2973213749463701</speed>
  <fix>3d</fix>
</trkpt>
<trkpt lat="40.0713744" lon="-105.2296805">
  <ele>1583.0</ele>
  <time>2026-08-28T17:53:13Z</time>
  <course>19.21</course>
  <speed>0.15</speed>
  <fix>3d</fix>
</trkpt>
<trkpt lat="40.0713753" lon="-105.22968">
  <ele>1583.0</ele>
  <time>2026-08-28T17:53:13Z</time>
  <course>200.05</course>
  <speed>0.31622776601683794</speed>
  <fix>3d</fix>
</trkpt>
<trkpt lat="40.0713748" lon="-105.2296804">
  <ele>1583.0</ele>
  <time>2026-08-28T17:53:13Z</time>
  <course>19.36</course>
  <speed>0.22</speed>
  <fix>3d</fix>
</trkpt>
<trkpt lat="40.0713755" lon="-105.2296799">
  <ele>1583.01</ele>
  <time>2026-08-28T17:53:13Z</time>
  <course>200.23</course>
  <speed>0.31622776601683794</speed>
  <fix>3d</fix>
</trkpt>
<trkpt lat="40.0713748" lon="-105.2296804">
  <ele>1583.0</ele>
  <time>2026-08-28T17:53:13Z</time>
  <course>19.36</course>
  <speed>0.22</speed>
  <fix>3d</fix>
</trkpt>
<trkpt lat="40.0713757" lon="-105.2296798">
  <ele>1583.01</ele>
  <time>2026-08-28T17:53:13Z</time>
  <course>200.47</course>
  <speed>0.28460498941515416</speed>
  <fix>3d</fix>
</trkpt>
<trkpt lat="40.0713752" lon="-105.2296801">
  <ele>1583.0</ele>
  <time>2026-08-28T17:53:13Z</time>
  <course>19.61</course>
  <speed>0.24</speed>
  <fix>3d</fix>
</trkpt>
<trkpt lat="40.0713759" lon="-105.2296798">
  <ele>1583.01</ele>
  <time>2026-08-28T17:53:13Z</time>
  <course>200.74</course>
  <speed>0.2308679276123039</speed>
  <fix>3d</fix>
</trkpt>
<trkpt lat="40.0713752" lon="-105.2296801">
  <ele>1583.0</ele>
  <time>2026-08-28T17:53:13Z</time>
  <course>19.61</course>
  <speed>0.24</speed>
  <fix>3d</fix>
</trkpt>
<trkpt lat="40.0713761" lon="-105.2296797">
  <ele>1583.01</ele>
  <time>2026-08-28T17:53:13Z</time>
  <course>200.99</course>
  <speed>0.1649242250247064</speed>
  <fix>3d</fix>
</trkpt>
<trkpt lat="40.0713755" lon="-105.22968">
  <ele>1583.0</ele>
  <time>2026-08-28T17:53:13Z</time>
  <course>20.0</course>
  <speed>0.16</speed>
  <fix>3d</fix>
</trkpt>
<trkpt lat="40.0713761" lon="-105.2296797">
  <ele>1583.01</ele>
  <time>2026-08-28T17:53:13Z</time>
  <course>201.16</course>
  <speed>0.09219544457292887</speed>
  <fix>3d</fix>
</trkpt>
<trkpt lat="40.0713755" lon="-105.22968">
  <ele>1583.0</ele>
  <time>2026-08-28T17:53:13Z</time>
  <course>20.0</course>
  <speed>0.16</speed>
  <fix>3d</fix>
</trkpt>
<trkpt lat="40.0713761" lon="-105.2296797">
  <ele>1583.01</ele>
  <time>2026-08-28T17:53:13Z</time>
  <course>201.17</course>
  <speed>0.03</speed>
  <fix>3d</fix>
</trkpt>
<trkpt lat="40.0713757" lon="-105.2296799">
  <ele>1583.0</ele>
  <time>2026-08-28T17:53:13Z</time>
  <course>20.26</course>
  <speed>0.03</speed>
  <fix>3d</fix>
</trkpt>
<trkpt lat="40.0713761" lon="-105.2296798">
  <ele>1583.01</ele>
  <time>2026-08-28T17:53:13Z</time>
  <course>201.29</course>
  <speed>0.04242640687119285</speed>
  <fix>3d</fix>
</trkpt>
<trkpt lat="40.0713757" lon="-105.2296799">
  <ele>1583.0</ele>
  <time>2026-08-28T17:53:13Z</time>
  <course>20.26</course>
  <speed>0.03</speed>
  <fix>3d</fix>
</trkpt>
<trkpt lat="40.071376" lon="-105.2296799">
  <ele>1583.02</ele>
  <time>2026-08-28T17:53:13Z</time>
  <course>201.86</course>
  <speed>0.10816653826391968</speed>
  <fix>3d</fix>
</trkpt>
<trkpt lat="40.0713757" lon="-105.2296799">
  <ele>1583.0</ele>
  <time>2026-08-28T17:53:13Z</time>
  <course>20.26</course>
  <speed>0.03</speed>
  <fix>3d</fix>
</trkpt>
<trkpt lat="40.0713758" lon="-105.2296799">
  <ele>1583.02</ele>
  <time>2026-08-28T17:53:13Z</time>
  <course>202.85</course>
  <speed>0.1835755975068582</speed>
  <fix>3d</fix>
</trkpt>
<trkpt lat="40.0713757" lon="-105.2296799">
  <ele>1583.0</ele>
  <time>2026-08-28T17:53:13Z</time>
  <course>201.12</course>
  <speed>0.09</speed>
  <fix>3d</fix>
</trkpt>
<trkpt lat="40.0713756" lon="-105.22968">
  <ele>1583.02</ele>
  <time>2026-08-28T17:53:13Z</time>
  <course>204.28</course>
  <speed>0.24186773244895649</speed>
  <fix>3d</fix>
</trkpt>
<trkpt lat="40.0713757" lon="-105.2296799">
  <ele>1583.0</ele>
  <time>2026-08-28T17:53:13Z</time>
  <course>201.12</course>
  <speed>0.09</speed>
  <fix>3d</fix>
</trkpt>
<trkpt lat="40.0713754" lon="-105.2296802">
  <ele>1583.02</ele>
  <time>2026-08-28T17:53:13Z</time>
  <course>206.13</course>
  <speed>0.3138470965295043</speed>
  <fix>3d</fix>
</trkpt>
<trkpt lat="40.0713755" lon="-105.22968">
  <ele>1583.0</ele>
  <time>2026-08-28T17:53:13Z</time>
  <course>202.77</course>
  <speed>0.23</speed>
  <fix>3d</fix>
</trkpt>
<trkpt lat="40.0713751" lon="-105.2296804">
  <ele>1583.02</ele>
  <time>2026-08-28T17:53:13Z</time>
  <course>208.31</course>
  <speed>0.3827531841800928</speed>
  <fix>3d</fix>
</trkpt>
<trkpt lat="40.0713755" lon="-105.22968">
  <ele>1583.0</ele>
  <time>2026-08-28T17:53:13Z</time>
  <course>202.77</course>
  <speed>0.23</speed>
  <fix>3d</fix>
</trkpt>
<trkpt lat="40.0713747" lon="-105.2296807">
  <ele>1583.02</ele>
  <time>2026-08-28T17:53:13Z</time>
  <course>210.72</course>
  <speed>0.4522167621838005</speed>
  <fix>3d</fix>
</trkpt>
<trkpt lat="40.071375" lon="-105.2296803">
  <ele>1583.0</ele>
  <time>2026-08-28T17:53:13Z</time>
  <course>206.01</course>
  <speed>0.36</speed>
  <fix>3d</fix>
</trkpt>
<trkpt lat="40.0713743" lon="-105.2296811">
  <ele>1583.02</ele>
  <time>2026-08-28T17:53:13Z</time>
  <course>213.24</course>
  <speed>0.5140038910358559</speed>
  <fix>3d</fix>
</trkpt>
<trkpt lat="40.0713743" lon="-105.2296808">
  <ele>1583.0</ele>
  <time>2026-08-28T17:53:13Z</time>
  <course>210.43</course>
  <speed>0.49</speed>
  <fix>3d</fix>
</trkpt>
<trkpt lat="40.0713739" lon="-105.2296815">
  <ele>1583.02</ele>
  <time>2026-08-28T17:53:13Z</time>
  <course>215.87</course>
  <speed>0.5748912940721924</speed>
  <fix>3d</fix>
</trkpt>
<trkpt lat="40.0713743" lon="-105.2296808">
  <ele>1583.0</ele>
  <time>2026-08-28T17:53:13Z</time>
  <course>210.43</course>
  <speed>0.49</speed>
  <fix>3d</fix>
</trkpt>
<trkpt lat="40.0713734" lon="-105.229682">
  <ele>1583.01</ele>
  <time>2026-08-28T17:53:13Z</time>
  <course>219.0</course>
  <speed>0.6370243323453194</speed>
  <fix>3d</fix>
</trkpt>
<trkpt lat="40.0713734" lon="-105.2296815">
  <ele>1583.0</ele>
  <time>2026-08-28T17:53:13Z</time>
  <course>215.74</course>
  <speed>0.61</speed>
  <fix>3d</fix>
</trkpt>
<trkpt lat="40.0713729" lon="-105.2296826">
  <ele>1583.01</ele>
  <time>2026-08-28T17:53:13Z</time>
  <course>222.6</course>
  <speed>0.7072481884034769</speed>
  <fix>3d</fix>
</trkpt>
<trkpt lat="40.0713734" lon="-105.2296815">
  <ele>1583.0</ele>
  <time>2026-08-28T17:53:13Z</time>
  <course>215.74</course>
  <speed>0.61</speed>
  <fix>3d</fix>
</trkpt>
<trkpt lat="40.0713724" lon="-105.2296832">
  <ele>1583.01</ele>
  <time>2026-08-28T17:53:13Z</time>
  <course>226.69</course>
  <speed>0.7810249675906654</speed>
  <fix>3d</fix>
</trkpt>
<trkpt lat="40.0713725" lon="-105.2296825">
  <ele>1583.0</ele>
  <time>2026-08-28T17:53:13Z</time>
  <course>222.54</course>
  <speed>0.73</speed>
  <fix>3d</fix>
</trkpt>
<trkpt lat="40.0713719" lon="-105.229684">
  <ele>1583.01</ele>
  <time>2026-08-28T17:53:13Z</time>
  <course>231.24</course>
  <speed>0.8521150157109073</speed>
  <fix>3d</fix>
</trkpt>
<trkpt lat="40.0713725" lon="-105.2296825">
  <ele>1583.0</ele>
  <time>2026-08-28T17:53:13Z</time>
  <course>222.54</course>
  <speed>0.73</speed>
  <fix>3d</fix>
</trkpt>
<trkpt lat="40.0713714" lon="-105.2296849">
  <ele>1583.0</ele>
  <time>2026-08-28T17:53:13Z</time>
  <course>236.13</course>
  <speed>0.9329523031752481</speed>
  <fix>3d</fix>
</trkpt>
<trkpt lat="40.0713716" lon="-105.2296839">
  <ele>1583.0</ele>
  <time>2026-08-28T17:53:13Z</time>
  <course>231.18</course>
  <speed>0.86</speed>
  <fix>3d</fix>
</trkpt>
<trkpt lat="40.0713709" lon="-105.2296859">
  <ele>1583.0</ele>
  <time>2026-08-28T17:53:13Z</time>
  <course>240.99</course>
  <speed>1.0241581909060729</speed>
  <fix>3d</fix>
</trkpt>
<trkpt lat="40.0713716" lon="-105.2296839">
  <ele>1583.0</ele>
  <time>2026-08-28T17:53:13Z</time>
  <course>231.18</course>
  <speed>0.86</speed>
  <fix>3d</fix>
</trkpt>
<trkpt lat="40.0713705" lon="-105.2296871">
  <ele>1583.0</ele>
  <time>2026-08-28T17:53:13Z</time>
  <course>245.33</course>
  <speed>1.1123398761170078</speed>
  <fix>3d</fix>
</trkpt>
<trkpt lat="40.0713706" lon="-105.2296857">
  <ele>1583.0</ele>
  <time>2026-08-28T17:53:13Z</time>
  <course>240.47</course>
  <speed>1.02</speed>
  <fix>3d</fix>
</trkpt>
<trkpt lat="40.07137" lon="-105.2296884">
  <ele>1583.0</ele>
  <time>2026-08-28T17:53:13Z</time>
  <course>248.96</course>
  <speed>1.2143310915891101</speed>
  <fix>3d</fix>
</trkpt>
<trkpt lat="40.0713706" lon="-105.2296857">
  <ele>1583.0</ele>
  <time>2026-08-28T17:53:13Z</time>
  <course>240.47</course>
  <speed>1.02</speed>
  <fix>3d</fix>
</trkpt>
<trkpt lat="40.0713697" lon="-105.2296898">
  <ele>1582.99</ele>
  <time>2026-08-28T17:53:13Z</time>
  <course>252.02</course>
  <speed>1.3104197800704933</speed>
  <fix>3d</fix>
</trkpt>
<trkpt lat="40.0713698" lon="-105.2296881">
  <ele>1583.0</ele>
  <time>2026-08-28T17:53:13Z</time>
  <course>248.28</course>
  <speed>1.2</speed>
  <fix>3d</fix>
</trkpt>
<trkpt lat="40.0713693" lon="-105.2296914">
  <ele>1582.99</ele>
  <time>2026-08-28T17:53:13Z</time>
  <course>254.61</course>
  <speed>1.4091841611372162</speed>
  <fix>3d</fix>
</trkpt>
<trkpt lat="40.0713698" lon="-105.2296881">
  <ele>1583.0</ele>
  <time>2026-08-28T17:53:13Z</time>
  <course>248.28</course>
  <speed>1.2</speed>
  <fix>3d</fix>
</trkpt>
<trkpt lat="40.071369" lon="-105.2296931">
  <ele>1582.99</ele>
  <time>2026-08-28T17:53:13Z</time>
  <course>256.81</course>
  <speed>1.5219066988485201</speed>
  <fix>3d</fix>
</trkpt>
<trkpt lat="40.071369" lon="-105.2296909">
  <ele>1583.0</ele>
  <time>2026-08-28T17:53:13Z</time>
  <course>253.93</course>
  <speed>1.39</speed>
  <fix>3d</fix>
</trkpt>
<trkpt lat="40.0713687" lon="-105.2296949">
  <ele>1582.99</ele>
  <time>2026-08-28T17:53:13Z</time>
  <course>258.74</course>
  <speed>1.6243152403397563</speed>
  <fix>3d</fix>
</trkpt>
<trkpt lat="40.071369" lon="-105.2296909">
  <ele>1583.0</ele>
  <time>2026-08-28T17:53:13Z</time>
  <course>253.93</course>
  <speed>1.39</speed>
  <fix>3d</fix>
</trkpt>
<trkpt lat="40.0713684" lon="-105.2296969">
  <ele>1582.99</ele>
  <time>2026-08-28T17:53:13Z</time>
  <course>260.37</course>
  <speed>1.7182840277439584</speed>
  <fix>3d</fix>
</trkpt>
<trkpt lat="40.071369" lon="-105.2296909">
  <ele>1583.0</ele>
  <time>2026-08-28T17:53:13Z</time>
  <course>253.93</course>
  <speed>1.39</speed>
  <fix>3d</fix>
</trkpt>
<trkpt lat="40.0713681" lon="-105.2296989">
  <ele>1582.99</ele>
  <time>2026-08-28T17:53:13Z</time>
  <course>261.75</course>
  <speed>1.8245547402037574</speed>
  <fix>3d</fix>
</trkpt>
<trkpt lat="40.0713684" lon="-105.2296943">
  <ele>1583.0</ele>
  <time>2026-08-28T17:53:13Z</time>
  <course>258.04</course>
  <speed>1.59</speed>
  <fix>3d</fix>
</trkpt>
<trkpt lat="40.0713679" lon="-105.2297011">
  <ele>1582.99</ele>
  <time>2026-08-28T17:53:13Z</time>
  <course>262.92</course>
  <speed>1.9314502323383846</speed>
  <fix>3d</fix>
</trkpt>
<trkpt lat="40.0713684" lon="-105.2296943">
  <ele>1583.0</ele>
  <time>2026-08-28T17:53:13Z</time>
  <course>258.04</course>
  <speed>1.59</speed>
  <fix>3d</fix>
</trkpt>
<trkpt lat="40.0713677" lon="-105.2297034">
  <ele>1582.99</ele>
  <time>2026-08-28T17:53:13Z</time>
  <course>263.92</course>
  <speed>2.038872237291979</speed>
  <fix>3d</fix>
</trkpt>
<trkpt lat="40.0713678" lon="-105.2296983">
  <ele>1583.0</ele>
  <time>2026-08-28T17:53:13Z</time>
  <course>261.07</course>
  <speed>1.79</speed>
  <fix>3d</fix>
</trkpt>
<trkpt lat="40.0713675" lon="-105.2297058">
  <ele>1582.99</ele>
  <time>2026-08-28T17:53:13Z</time>
  <course>264.76</course>
  <speed>2.1467417171145673</speed>
  <fix>3d</fix>
</trkpt>
<trkpt lat="40.0713678" lon="-105.2296983">
  <ele>1583.0</ele>
  <time>2026-08-28T17:53:13Z</time>
  <course>261.07</course>
  <speed>1.79</speed>
  <fix>3d</fix>
</trkpt>
<trkpt lat="40.0713673" lon="-105.2297084">
  <ele>1582.99</ele>
  <time>2026-08-28T17:53:13Z</time>
  <course>265.49</course>
  <speed>2.2450167037240503</speed>
  <fix>3d</fix>
</trkpt>
<trkpt lat="40.0713674" lon="-105.2297026">
  <ele>1583.0</ele>
  <time>2026-08-28T17:53:13Z</time>
  <course>263.25</course>
  <speed>2.0</speed>
  <fix>3d</fix>
</trkpt>
<trkpt lat="40.0713671" lon="-105.2297111">
  <ele>1582.99</ele>
  <time>2026-08-28T17:53:13Z</time>
  <course>266.11</course>
  <speed>2.354166519174037</speed>
  <fix>3d</fix>
</trkpt>
<trkpt lat="40.0713674" lon="-105.2297026">
  <ele>1583.0</ele>
  <time>2026-08-28T17:53:13Z</time>
  <course>263.25</course>
  <speed>2.0</speed>
  <fix>3d</fix>
</trkpt>
<trkpt lat="40.071367" lon="-105.2297139">
  <ele>1582.99</ele>
  <time>2026-08-28T17:53:13Z</time>
  <course>266.65</course>
  <speed>2.4634325645326687</speed>
  <fix>3d</fix>
</trkpt>
<trkpt lat="40.0713669" lon="-105.2297076">
  <ele>1583.0</ele>
  <time>2026-08-28T17:53:13Z</time>
  <course>264.84</course>
  <speed>2.21</speed>
  <fix>3d</fix>
</trkpt>
<trkpt lat="40.0713668" lon="-105.2297168">
  <ele>1582.99</ele>
  <time>2026-08-28T17:53:13Z</time>
  <course>267.12</course>
  <speed>2.5623621914163497</speed>
  <fix>3d</fix>
</trkpt>
<trkpt lat="40.0713666" lon="-105.229713">
  <ele>1583.0</ele>
  <time>2026-08-28T17:53:13Z</time>
  <course>266.01</course>
  <speed>2.42</speed>
  <fix>3d</fix>
</trkpt>
<trkpt lat="40.0713667" lon="-105.2297199">
  <ele>1582.99</ele>
  <time>2026-08-28T17:53:13Z</time>
  <course>267.55</course>
  <speed>2.6618790355686714</speed>
  <fix>3d</fix>
</trkpt>
<trkpt lat="40.0713666" lon="-105.229713">
  <ele>1583.0</ele>
  <time>2026-08-28T17:53:13Z</time>
  <course>266.01</course>
  <speed>2.42</speed>
  <fix>3d</fix>
</trkpt>
<trkpt lat="40.0713665" lon="-105.229723">
  <ele>1582.99</ele>
  <time>2026-08-28T17:53:13Z</time>
  <course>267.94</course>
  <speed>2.7414777037211153</speed>
  <fix>3d</fix>
</trkpt>
<trkpt lat="40.0713664" lon="-105.2297189">
  <ele>1583.0</ele>
  <time>2026-08-28T17:53:13Z</time>
  <course>266.93</course>
  <speed>2.61</speed>
  <fix>3d</fix>
</trkpt>
<trkpt lat="40.0713664" lon="-105.2297263">
  <ele>1582.99</ele>
  <time>2026-08-28T17:53:13Z</time>
  <course>268.3</course>
  <speed>2.8211345235560814</speed>
  <fix>3d</fix>
</trkpt>
<trkpt lat="40.0713664" lon="-105.2297189">
  <ele>1583.0</ele>
  <time>2026-08-28T17:53:13Z</time>
  <course>266.93</course>
  <speed>2.61</speed>
  <fix>3d</fix>
</trkpt>
<trkpt lat="40.0713663" lon="-105.2297296">
  <ele>1582.99</ele>
  <time>2026-08-28T17:53:13Z</time>
  <course>268.63</course>
  <speed>2.880624932197873</speed>
  <fix>3d</fix>
</trkpt>
<trkpt lat="40.0713662" lon="-105.2297253">
  <ele>1583.0</ele>
  <time>2026-08-28T17:53:13Z</time>
  <course>267.69</course>
  <speed>2.77</speed>
  <fix>3d</fix>
</trkpt>
<trkpt lat="40.0713662" lon="-105.2297331">
  <ele>1582.99</ele>
  <time>2026-08-28T17:53:13Z</time>
  <course>268.94</course>
  <speed>2.920428050817209</speed>
  <fix>3d</fix>
</trkpt>
<trkpt lat="40.0713662" lon="-105.2297253">
  <ele>1583.0</ele>
  <time>2026-08-28T17:53:13Z</time>
  <course>267.69</course>
  <speed>2.77</speed>
  <fix>3d</fix>
</trkpt>
<trkpt lat="40.0713662" lon="-105.2297365">
  <ele>1582.99</ele>
  <time>2026-08-28T17:53:13Z</time>
  <course>269.25</course>
  <speed>2.960270257932542</speed>
  <fix>3d</fix>
</trkpt>
<trkpt lat="40.071366" lon="-105.2297319">
  <ele>1583.0</ele>
  <time>2026-08-28T17:53:13Z</time>
  <course>268.35</course>
  <speed>2.87</speed>
  <fix>3d</fix>
</trkpt>
<trkpt lat="40.0713661" lon="-105.22974">
  <ele>1582.99</ele>
  <time>2026-08-28T17:53:13Z</time>
  <course>269.52</course>
  <speed>2.9701515112869243</speed>
  <fix>3d</fix>
</trkpt>
<trkpt lat="40.071366" lon="-105.2297319">
  <ele>1583.0</ele>
  <time>2026-08-28T17:53:13Z</time>
  <course>268.35</course>
  <speed>2.87</speed>
  <fix>3d</fix>
</trkpt>
<trkpt lat="40.0713661" lon="-105.2297435">
  <ele>1582.98</ele>
  <time>2026-08-28T17:53:13Z</time>
  <course>269.8</course>
  <speed>2.9800167784762555</speed>
  <fix>3d</fix>
</trkpt>
<trkpt lat="40.0713658" lon="-105.2297387">
  <ele>1583.0</ele>
  <time>2026-08-28T17:53:13Z</time>
  <course>268.93</course>
  <speed>2.92</speed>
  <fix>3d</fix>
</trkpt>
<trkpt lat="40.071366" lon="-105.229747">
  <ele>1582.98</ele>
  <time>2026-08-28T17:53:13Z</time>
  <course>270.07</course>
  <speed>2.96</speed>
  <fix>3d</fix>
</trkpt>
<trkpt lat="40.0713658" lon="-105.2297387">
  <ele>1583.0</ele>
  <time>2026-08-28T17:53:13Z</time>
  <course>268.93</course>
  <speed>2.92</speed>
  <fix>3d</fix>
</trkpt>
<trkpt lat="40.071366" lon="-105.2297505">
  <ele>1582.98</ele>
  <time>2026-08-28T17:53:13Z</time>
  <course>270.34</course>
  <speed>2.93</speed>
  <fix>3d</fix>
</trkpt>
<trkpt lat="40.0713657" lon="-105.2297456">
  <ele>1583.0</ele>
  <time>2026-08-28T17:53:13Z</time>
  <course>269.48</course>
  <speed>2.91</speed>
  <fix>3d</fix>
</trkpt>
<trkpt lat="40.071366" lon="-105.2297539">
  <ele>1582.98</ele>
  <time>2026-08-28T17:53:13Z</time>
  <course>270.65</course>
  <speed>2.890017300986276</speed>
  <fix>3d</fix>
</trkpt>
<trkpt lat="40.0713657" lon="-105.2297456">
  <ele>1583.0</ele>
  <time>2026-08-28T17:53:13Z</time>
  <course>269.48</course>
  <speed>2.91</speed>
  <fix>3d</fix>
</trkpt>
<trkpt lat="40.071366" lon="-105.2297572">
  <ele>1582.98</ele>
  <time>2026-08-28T17:53:13Z</time>
  <course>270.95</course>
  <speed>2.8301590061337545</speed>
  <fix>3d</fix>
</trkpt>
<trkpt lat="40.0713657" lon="-105.2297523">
  <ele>1583.0</ele>
  <time>2026-08-28T17:53:13Z</time>
  <course>270.06</course>
  <speed>2.84</speed>
  <fix>3d</fix>
</trkpt>
<trkpt lat="40.071366" lon="-105.2297604">
  <ele>1582.98</ele>
  <time>2026-08-28T17:53:13Z</time>
  <course>271.29</course>
  <speed>2.750290893705609</speed>
  <fix>3d</fix>
</trkpt>
<trkpt lat="40.0713657" lon="-105.2297523">
  <ele>1583.0</ele>
  <time>2026-08-28T17:53:13Z</time>
  <course>270.06</course>
  <speed>2.84</speed>
  <fix>3d</fix>
</trkpt>
<trkpt lat="40.071366" lon="-105.2297636">
  <ele>1582.99</ele>
  <time>2026-08-28T17:53:13Z</time>
  <course>271.66</course>
  <speed>2.6604698833100895</speed>
  <fix>3d</fix>
</trkpt>
<trkpt lat="40.0713657" lon="-105.2297523">
  <ele>1583.0</ele>
  <time>2026-08-28T17:53:13Z</time>
  <course>270.06</course>
  <speed>2.84</speed>
  <fix>3d</fix>
</trkpt>
<trkpt lat="40.071366" lon="-105.2297666">
  <ele>1582.99</ele>
  <time>2026-08-28T17:53:13Z</time>
  <course>272.06</course>
  <speed>2.550960603380617</speed>
  <fix>3d</fix>
</trkpt>
<trkpt lat="40.0713657" lon="-105.2297589">
  <ele>1583.0</ele>
  <time>2026-08-28T17:53:13Z</time>
  <course>270.72</course>
  <speed>2.7</speed>
  <fix>3d</fix>
</trkpt>
<trkpt lat="40.0713661" lon="-105.2297694">
  <ele>1583.0</ele>
  <time>2026-08-28T17:53:13Z</time>
  <course>272.49</course>
  <speed>2.4313165157996193</speed>
  <fix>3d</fix>
</trkpt>
<trkpt lat="40.0713657" lon="-105.2297589">
  <ele>1583.0</ele>
  <time>2026-08-28T17:53:13Z</time>
  <course>270.72</course>
  <speed>2.7</speed>
  <fix>3d</fix>
</trkpt>
<trkpt lat="40.0713661" lon="-105.2297721">
  <ele>1583.0</ele>
  <time>2026-08-28T17:53:13Z</time>
  <course>272.95</course>
  <speed>2.3117525819170184</speed>
  <fix>3d</fix>
</trkpt>
<trkpt lat="40.0713658" lon="-105.229765">
  <ele>1583.0</ele>
  <time>2026-08-28T17:53:13Z</time>
  <course>271.49</course>
  <speed>2.51</speed>
  <fix>3d</fix>
</trkpt>
<trkpt lat="40.0713661" lon="-105.2297747">
  <ele>1583.0</ele>
  <time>2026-08-28T17:53:13Z</time>
  <course>273.45</course>
  <speed>2.1723029254687294</speed>
  <fix>3d</fix>
</trkpt>
<trkpt lat="40.0713658" lon="-105.229765">
  <ele>1583.0</ele>
  <time>2026-08-28T17:53:13Z</time>
  <course>271.49</course>
  <speed>2.51</speed>
  <fix>3d</fix>
</trkpt>
<trkpt lat="40.0713662" lon="-105.229777">
  <ele>1583.0</ele>
  <time>2026-08-28T17:53:13Z</time>
  <course>273.99</course>
  <speed>2.0329781110479277</speed>
  <fix>3d</fix>
</trkpt>
<trkpt lat="40.0713659" lon="-105.2297706">
  <ele>1583.0</ele>
  <time>2026-08-28T17:53:13Z</time>
  <course>272.39</course>
  <speed>2.28</speed>
  <fix>3d</fix>
</trkpt>
<trkpt lat="40.0713663" lon="-105.2297793">
  <ele>1583.01</ele>
  <time>2026-08-28T17:53:13Z</time>
  <course>274.59</course>
  <speed>1.8938056922503954</speed>
  <fix>3d</fix>
</trkpt>
<trkpt lat="40.0713661" lon="-105.2297757">
  <ele>1583.0</ele>
  <time>2026-08-28T17:53:13Z</time>
  <course>273.43</course>
  <speed>2.01</speed>
  <fix>3d</fix>
</trkpt>
<trkpt lat="40.0713664" lon="-105.2297813">
  <ele>1583.01</ele>
  <time>2026-08-28T17:53:13Z</time>
  <course>275.25</course>
  <speed>1.7448495637160242</speed>
  <fix>3d</fix>
</trkpt>
<trkpt lat="40.0713661" lon="-105.2297757">
  <ele>1583.0</ele>
  <time>2026-08-28T17:53:13Z</time>
  <course>273.43</course>
  <speed>2.01</speed>
  <fix>3d</fix>
</trkpt>
<trkpt lat="40.0713665" lon="-105.2297832">
  <ele>1583.01</ele>
  <time>2026-08-28T17:53:13Z</time>
  <course>275.99</course>
  <speed>1.596151621870554</speed>
  <fix>3d</fix>
</trkpt>
<trkpt lat="40.0713663" lon="-105.2297801">
  <ele>1583.0</ele>
  <time>2026-08-28T17:53:13Z</time>
  <course>274.68</course>
  <speed>1.73</speed>
  <fix>3d</fix>
</trkpt>
<trkpt lat="40.0713666" lon="-105.2297849">
  <ele>1583.01</ele>
  <time>2026-08-28T17:53:13Z</time>
  <course>276.83</course>
  <speed>1.446789549312546</speed>
  <fix>3d</fix>
</trkpt>
<trkpt lat="40.0713663" lon="-105.2297801">
  <ele>1583.0</ele>
  <time>2026-08-28T17:53:13Z</time>
  <course>274.68</course>
  <speed>1.73</speed>
  <fix>3d</fix>
</trkpt>
<trkpt lat="40.0713668" lon="-105.2297864">
  <ele>1583.01</ele>
  <time>2026-08-28T17:53:13Z</time>
  <course>277.81</course>
  <speed>1.2986916493148017</speed>
  <fix>3d</fix>
</trkpt>
<trkpt lat="40.0713666" lon="-105.2297839">
  <ele>1583.0</ele>
  <time>2026-08-28T17:53:13Z</time>
  <course>276.26</course>
  <speed>1.45</speed>
  <fix>3d</fix>
</trkpt>
<trkpt lat="40.0713669" lon="-105.2297878">
  <ele>1583.01</ele>
  <time>2026-08-28T17:53:13Z</time>
  <course>278.96</course>
  <speed>1.149826073804208</speed>
  <fix>3d</fix>
</trkpt>
<trkpt lat="40.0713666" lon="-105.2297839">
  <ele>1583.0</ele>
  <time>2026-08-28T17:53:13Z</time>
  <course>276.26</course>
  <speed>1.45</speed>
  <fix>3d</fix>
</trkpt>
<trkpt lat="40.071367" lon="-105.229789">
  <ele>1583.01</ele>
  <time>2026-08-28T17:53:13Z</time>
  <course>280.24</course>
  <speed>1.0012991560967182</speed>
  <fix>3d</fix>
</trkpt>
<trkpt lat="40.0713669" lon="-105.2297869">
  <ele>1583.0</ele>
  <time>2026-08-28T17:53:13Z</time>
  <course>278.33</course>
  <speed>1.16</speed>
  <fix>3d</fix>
</trkpt>
<trkpt lat="40.0713672" lon="-105.22979">
  <ele>1583.01</ele>
  <time>2026-08-28T17:53:13Z</time>
  <course>281.57</course>
  <speed>0.8515867542417507</speed>
  <fix>3d</fix>
</trkpt>
<trkpt lat="40.0713669" lon="-105.2297869">
  <ele>1583.0</ele>
  <time>2026-08-28T17:53:13Z</time>
  <course>278.33</course>
  <speed>1.16</speed>
  <fix>3d</fix>
</trkpt>
<trkpt lat="40.0713673" lon="-105.2297909">
  <ele>1583.01</ele>
  <time>2026-08-28T17:53:13Z</time>
  <course>282.83</course>
  <speed>0.7119691004531025</speed>
  <fix>3d</fix>
</trkpt>
<trkpt lat="40.0713672" lon="-105.2297892">
  <ele>1583.0</ele>
  <time>2026-08-28T17:53:13Z</time>
  <course>280.79</course>
  <speed>0.88</speed>
  <fix>3d</fix>
</trkpt>
<trkpt lat="40.0713674" lon="-105.2297916">
  <ele>1583.01</ele>
  <time>2026-08-28T17:53:13Z</time>
  <course>283.99</course>
  <speed>0.5824946351684279</speed>
  <fix>3d</fix>
</trkpt>
<trkpt lat="40.0713672" lon="-105.2297892">
  <ele>1583.0</ele>
  <time>2026-08-28T17:53:13Z</time>
  <course>280.79</course>
  <speed>0.88</speed>
  <fix>3d</fix>
</trkpt>
<trkpt lat="40.0713675" lon="-105.2297921">
  <ele>1583.01</ele>
  <time>2026-08-28T17:53:13Z</time>
  <course>284.94</course>
  <speed>0.4491102314577124</speed>
  <fix>3d</fix>
</trkpt>
<trkpt lat="40.0713674" lon="-105.2297909">
  <ele>1583.0</ele>
  <time>2026-08-28T17:53:13Z</time>
  <course>283.12</course>
  <speed>0.61</speed>
  <fix>3d</fix>
</trkpt>
<trkpt lat="40.0713676" lon="-105.2297925">
  <ele>1583.01</ele>
  <time>2026-08-28T17:53:13Z</time>
  <course>285.68</course>
  <speed>0.3178049716414141</speed>
  <fix>3d</fix>
</trkpt>
<trkpt lat="40.0713674" lon="-105.2297909">
  <ele>1583.0</ele>
  <time>2026-08-28T17:53:13Z</time>
  <course>283.12</course>
  <speed>0.61</speed>
  <fix>3d</fix>
</trkpt>
<trkpt lat="40.0713677" lon="-105.2297928">
  <ele>1583.01</ele>
  <time>2026-08-28T17:53:13Z</time>
  <course>286.2</course>
  <speed>0.194164878389476</speed>
  <fix>3d</fix>
</trkpt>
<trkpt lat="40.0713676" lon="-105.2297921">
  <ele>1583.0</ele>
  <time>2026-08-28T17:53:13Z</time>
  <course>284.82</course>
  <speed>0.36</speed>
  <fix>3d</fix>
</trkpt>
<trkpt lat="40.0713677" lon="-105.2297929">
  <ele>1583.01</ele>
  <time>2026-08-28T17:53:13Z</time>
  <course>286.53</course>
  <speed>0.09055385138137417</speed>
  <fix>3d</fix>
</trkpt>
<trkpt lat="40.0713676" lon="-105.2297921">
  <ele>1583.0</ele>
  <time>2026-08-28T17:53:13Z</time>
  <course>284.82</course>
  <speed>0.36</speed>
  <fix>3d</fix>
</trkpt>
<trkpt lat="40.0713677" lon="-105.2297929">
  <ele>1583.01</ele>
  <time>2026-08-28T17:53:13Z</time>
  <course>286.67</course>
  <speed>0.01</speed>
  <fix>3d</fix>
</trkpt>
<trkpt lat="40.0713676" lon="-105.2297921">
  <ele>1583.0</ele>
  <time>2026-08-28T17:53:13Z</time>
  <course>284.82</course>
  <speed>0.36</speed>
  <fix>3d</fix>
</trkpt>
<trkpt lat="40.0713677" lon="-105.2297928">
  <ele>1583.01</ele>
  <time>2026-08-28T17:53:13Z</time>
  <course>286.67</course>
  <speed>0.0854400374531753</speed>
  <fix>3d</fix>
</trkpt>
<trkpt lat="40.0713678" lon="-105.2297926">
  <ele>1583.0</ele>
  <time>2026-08-28T17:53:13Z</time>
  <course>285.73</course>
  <speed>0.14</speed>
  <fix>3d</fix>
</trkpt>
<trkpt lat="40.0713676" lon="-105.2297927">
  <ele>1583.01</ele>
  <time>2026-08-28T17:53:13Z</time>
  <course>286.79</course>
  <speed>0.15811388300841897</speed>
  <fix>3d</fix>
</trkpt>
<trkpt lat="40.0713678" lon="-105.2297926">
  <ele>1583.0</ele>
  <time>2026-08-28T17:53:13Z</time>
  <course>285.73</course>
  <speed>0.14</speed>
  <fix>3d</fix>
</trkpt>
<trkpt lat="40.0713676" lon="-105.2297925">
  <ele>1583.01</ele>
  <time>2026-08-28T17:53:13Z</time>
  <course>286.99</course>
  <speed>0.21189620100417092</speed>
  <fix>3d</fix>
</trkpt>
<trkpt lat="40.0713679" lon="-105.2297927">
  <ele>1583.0</ele>
  <time>2026-08-28T17:53:13Z</time>
  <course>106.29</course>
  <speed>0.03</speed>
  <fix>3d</fix>
</trkpt>
<trkpt lat="40.0713676" lon="-105.2297922">
  <ele>1583.01</ele>
  <time>2026-08-28T17:53:13Z</time>
  <course>287.26</course>
  <speed>0.2529822128134704</speed>
  <fix>3d</fix>
</trkpt>
<trkpt lat="40.0713679" lon="-105.2297927">
  <ele>1583.0</ele>
  <time>2026-08-28T17:53:13Z</time>
  <course>106.29</course>
  <speed>0.03</speed>
  <fix>3d</fix>
</trkpt>
<trkpt lat="40.0713676" lon="-105.229792">
  <ele>1583.0</ele>
  <time>2026-08-28T17:53:13Z</time>
  <course>287.57</course>
  <speed>0.2816025568065745</speed>
  <fix>3d</fix>
</trkpt>
<trkpt lat="40.0713678" lon="-105.2297926">
  <ele>1583.0</ele>
  <time>2026-08-28T17:53:13Z</time>
  <course>106.54</course>
  <speed>0.15</speed>
  <fix>3d</fix>
</trkpt>
<trkpt lat="40.0713675" lon="-105.2297917">
  <ele>1583.0</ele>
  <time>2026-08-28T17:53:13Z</time>
  <course>288.04</course>
  <speed>0.29410882339705485</speed>
  <fix>3d</fix>
</trkpt>
<trkpt lat="40.0713678" lon="-105.2297926">
  <ele>1583.0</ele>
  <time>2026-08-28T17:53:13Z</time>
  <course>106.54</course>
  <speed>0.15</speed>
  <fix>3d</fix>
</trkpt>
<trkpt lat="40.0713675" lon="-105.2297914">
  <ele>1583.0</ele>
  <time>2026-08-28T17:53:13Z</time>
  <course>288.68</course>
  <speed>0.29410882339705485</speed>
  <fix>3d</fix>
</trkpt>
<trkpt lat="40.0713678" lon="-105.2297922">
  <ele>1583.0</ele>
  <time>2026-08-28T17:53:13Z</time>
  <course>107.14</course>
  <speed>0.22</speed>
  <fix>3d</fix>
</trkpt>
<trkpt lat="40.0713674" lon="-105.229791">
  <ele>1583.0</ele>
  <time>2026-08-28T17:53:13Z</time>
  <course>289.48</course>
  <speed>0.28460498941515416</speed>
  <fix>3d</fix>
</trkpt>
<trkpt lat="40.0713676" lon="-105.2297916">
  <ele>1583.0</ele>
  <time>2026-08-28T17:53:13Z</time>
  <course>108.2</course>
  <speed>0.24</speed>
  <fix>3d</fix>
</trkpt>
<trkpt lat="40.0713673" lon="-105.2297908">
  <ele>1583.01</ele>
  <time>2026-08-28T17:53:13Z</time>
  <course>290.38</course>
  <speed>0.26248809496813374</speed>
  <fix>3d</fix>
</trkpt>
<trkpt lat="40.0713676" lon="-105.2297916">
  <ele>1583.0</ele>
  <time>2026-08-28T17:53:13Z</time>
  <course>108.2</course>
  <speed>0.24</speed>
  <fix>3d</fix>
</trkpt>
<trkpt lat="40.0713673" lon="-105.2297905">
  <ele>1583.0</ele>
  <time>2026-08-28T17:53:13Z</time>
  <course>291.31</course>
  <speed>0.22135943621178655</speed>
  <fix>3d</fix>
</trkpt>
<trkpt lat="40.0713675" lon="-105.2297911">
  <ele>1583.0</ele>
  <time>2026-08-28T17:53:13Z</time>
  <course>109.72</course>
  <speed>0.2</speed>
  <fix>3d</fix>
</trkpt>
<trkpt lat="40.0713672" lon="-105.2297903">
  <ele>1583.0</ele>
  <time>2026-08-28T17:53:13Z</time>
  <course>292.15</course>
  <speed>0.1772004514666935</speed>
  <fix>3d</fix>
</trkpt>
<trkpt lat="40.0713675" lon="-105.2297911">
  <ele>1583.0</ele>
  <time>2026-08-28T17:53:13Z</time>
  <course>109.72</course>
  <speed>0.2</speed>
  <fix>3d</fix>
</trkpt>
<trkpt lat="40.0713672" lon="-105.2297902">
  <ele>1583.0</ele>
  <time>2026-08-28T17:53:13Z</time>
  <course>292.74</course>
  <speed>0.11401754250991379</speed>
  <fix>3d</fix>
</trkpt>
<trkpt lat="40.0713674" lon="-105.2297907">
  <ele>1583.0</ele>
  <time>2026-08-28T17:53:13Z</time>
  <course>111.15</course>
  <speed>0.12</speed>
  <fix>3d</fix>
</trkpt>
<trkpt lat="40.0713672" lon="-105.2297902">
  <ele>1583.0</ele>
  <time>2026-08-28T17:53:13Z</time>
  <course>292.94</course>
  <speed>0.04</speed>
  <fix>3d</fix>
</trkpt>
<trkpt lat="40.0713674" lon="-105.2297907">
  <ele>1583.0</ele>
  <time>2026-08-28T17:53:13Z</time>
  <course>111.15</course>
  <speed>0.12</speed>
  <fix>3d</fix>
</trkpt>
<trkpt lat="40.0713673" lon="-105.2297902">
  <ele>1582.99</ele>
  <time>2026-08-28T17:53:13Z</time>
  <course>293.0</course>
  <speed>0.04242640687119285</speed>
  <fix>3d</fix>
</trkpt>
<trkpt lat="40.0713674" lon="-105.2297907">
  <ele>1583.0</ele>
  <time>2026-08-28T17:53:13Z</time>
  <course>293.05</course>
  <speed>0.01</speed>
  <fix>3d</fix>
</trkpt>
<trkpt lat="40.0713673" lon="-105.2297904">
  <ele>1582.99</ele>
  <time>2026-08-28T17:53:13Z</time>
  <course>293.91</course>
  <speed>0.13892443989449804</speed>
  <fix>3d</fix>
</trkpt>
<trkpt lat="40.0713674" lon="-105.2297907">
  <ele>1583.0</ele>
  <time>2026-08-28T17:53:13Z</time>
  <course>293.05</course>
  <speed>0.01</speed>
  <fix>3d</fix>
</trkpt>
<trkpt lat="40.0713674" lon="-105.2297905">
  <ele>1582.99</ele>
  <time>2026-08-28T17:53:13Z</time>
  <course>295.48</course>
  <speed>0.25553864678361277</speed>
  <fix>3d</fix>
</trkpt>
<trkpt lat="40.0713674" lon="-105.2297908">
  <ele>1583.0</ele>
  <time>2026-08-28T17:53:13Z</time>
  <course>294.32</course>
  <speed>0.19</speed>
  <fix>3d</fix>
</trkpt>
<trkpt lat="40.0713675" lon="-105.2297909">
  <ele>1582.99</ele>
  <time>2026-08-28T17:53:13Z</time>
  <course>297.76</course>
  <speed>0.3773592452822641</speed>
  <fix>3d</fix>
</trkpt>
<trkpt lat="40.0713674" lon="-105.2297908">
  <ele>1583.0</ele>
  <time>2026-08-28T17:53:13Z</time>
  <course>294.32</course>
  <speed>0.19</speed>
  <fix>3d</fix>
</trkpt>
<trkpt lat="40.0713678" lon="-105.2297915">
  <ele>1583.0</ele>
  <time>2026-08-28T17:53:13Z</time>
  <course>300.81</course>
  <speed>0.5047771785649585</speed>
  <fix>3d</fix>
</trkpt>
<trkpt lat="40.0713676" lon="-105.2297914">
  <ele>1583.0</ele>
  <time>2026-08-28T17:53:13Z</time>
  <course>298.35</course>
  <speed>0.42</speed>
  <fix>3d</fix>
</trkpt>
<trkpt lat="40.0713681" lon="-105.2297921">
  <ele>1583.0</ele>
  <time>2026-08-28T17:53:13Z</time>
  <course>304.67</course>
  <speed>0.6420280367709809</speed>
  <fix>3d</fix>
</trkpt>
<trkpt lat="40.0713676" lon="-105.2297914">
  <ele>1583.0</ele>
  <time>2026-08-28T17:53:13Z</time>
  <course>298.35</course>
  <speed>0.42</speed>
  <fix>3d</fix>
</trkpt>
<trkpt lat="40.0713685" lon="-105.2297928">
  <ele>1583.0</ele>
  <time>2026-08-28T17:53:13Z</time>
  <course>309.39</course>
  <speed>0.7789736837660179</speed>
  <fix>3d</fix>
</trkpt>
<trkpt lat="40.0713676" lon="-105.2297914">
  <ele>1583.0</ele>
  <time>2026-08-28T17:53:13Z</time>
  <course>298.35</course>
  <speed>0.42</speed>
  <fix>3d</fix>
</trkpt>
<trkpt lat="40.0713691" lon="-105.2297936">
  <ele>1583.0</ele>
  <time>2026-08-28T17:53:13Z</time>
  <course>314.97</course>
  <speed>0.9269843580125827</speed>
  <fix>3d</fix>
</trkpt>
<trkpt lat="40.0713681" lon="-105.2297925">
  <ele>1583.0</ele>
  <time>2026-08-28T17:53:13Z</time>
  <course>305.41</course>
  <speed>0.67</speed>
  <fix>3d</fix>
</trkpt>
<trkpt lat="40.0713698" lon="-105.2297944">
  <ele>1583.0</ele>
  <time>2026-08-28T17:53:13Z</time>
  <course>321.16</course>
  <speed>1.0720074626605918</speed>
  <fix>3d</fix>
</trkpt>
<trkpt lat="40.0713681" lon="-105.2297925">
  <ele>1583.0</ele>
  <time>2026-08-28T17:53:13Z</time>
  <course>305.41</course>
  <speed>0.67</speed>
  <fix>3d</fix>
</trkpt>
<trkpt lat="40.0713706" lon="-105.2297952">
  <ele>1583.0</ele>
  <time>2026-08-28T17:53:13Z</time>
  <course>326.6</course>
  <speed>1.2159358535712317</speed>
  <fix>3d</fix>
</trkpt>
<trkpt lat="40.0713691" lon="-105.229794">
  <ele>1583.0</ele>
  <time>2026-08-28T17:53:13Z</time>
  <course>315.63</course>
  <speed>0.94</speed>
  <fix>3d</fix>
</trkpt>
<trkpt lat="40.0713717" lon="-105.229796">
  <ele>1583.0</ele>
  <time>2026-08-28T17:53:13Z</time>
  <course>331.33</course>
  <speed>1.3685028315644803</speed>
  <fix>3d</fix>
</trkpt>
<trkpt lat="40.0713691" lon="-105.229794">
  <ele>1583.0</ele>
  <time>2026-08-28T17:53:13Z</time>
  <course>315.63</course>
  <speed>0.94</speed>
  <fix>3d</fix>
</trkpt>
<trkpt lat="40.0713729" lon="-105.2297968">
  <ele>1583.0</ele>
  <time>2026-08-28T17:53:13Z</time>
  <course>335.48</course>
  <speed>1.5061540425866142</speed>
  <fix>3d</fix>
</trkpt>
<trkpt lat="40.0713705" lon="-105.2297955">
  <ele>1583.0</ele>
  <time>2026-08-28T17:53:13Z</time>
  <course>326.31</course>
  <speed>1.22</speed>
  <fix>3d</fix>
</trkpt>
<trkpt lat="40.0713742" lon="-105.2297975">
  <ele>1583.0</ele>
  <time>2026-08-28T17:53:13Z</time>
  <course>339.26</course>
  <speed>1.6413713778423213</speed>
  <fix>3d</fix>
</trkpt>
<trkpt lat="40.0713705" lon="-105.2297955">
  <ele>1583.0</ele>
  <time>2026-08-28T17:53:13Z</time>
  <course>326.31</course>
  <speed>1.22</speed>
  <fix>3d</fix>
</trkpt>
<trkpt lat="40.0713757" lon="-105.2297981">
  <ele>1583.0</ele>
  <time>2026-08-28T17:53:13Z</time>
  <course>342.55</course>
  <speed>1.7596022277776304</speed>
  <fix>3d</fix>
</trkpt>
<trkpt lat="40.0713727" lon="-105.2297971">
  <ele>1583.0</ele>
  <time>2026-08-28T17:53:13Z</time>
  <course>335.11</course>
  <speed>1.49</speed>
  <fix>3d</fix>
</trkpt>
<trkpt lat="40.0713773" lon="-105.2297987">
  <ele>1583.0</ele>
  <time>2026-08-28T17:53:13Z</time>
  <course>345.33</course>
  <speed>1.8701069488133562</speed>
  <fix>3d</fix>
</trkpt>
<trkpt lat="40.0713755" lon="-105.2297984">
  <ele>1583.0</ele>
  <time>2026-08-28T17:53:13Z</time>
  <course>341.94</course>
  <speed>1.74</speed>
  <fix>3d</fix>
</trkpt>
<trkpt lat="40.071379" lon="-105.2297993">
  <ele>1583.0</ele>
  <time>2026-08-28T17:53:13Z</time>
  <course>347.71</course>
  <speed>1.9886176103011861</speed>
  <fix>3d</fix>
</trkpt>
<trkpt lat="40.0713755" lon="-105.2297984">
  <ele>1583.0</ele>
  <time>2026-08-28T17:53:13Z</time>
  <course>341.94</course>
  <speed>1.74</speed>
  <fix>3d</fix>
</trkpt>
<trkpt lat="40.0713808" lon="-105.2297997">
  <ele>1583.0</ele>
  <time>2026-08-28T17:53:13Z</time>
  <course>349.74</course>
  <speed>2.1076052761368764</speed>
  <fix>3d</fix>
</trkpt>
<trkpt lat="40.0713786" lon="-105.2297996">
  <ele>1583.0</ele>
  <time>2026-08-28T17:53:13Z</time>
  <course>347.09</course>
  <speed>1.97</speed>
  <fix>3d</fix>
</trkpt>
<trkpt lat="40.0713828" lon="-105.2298002">
  <ele>1583.0</ele>
  <time>2026-08-28T17:53:13Z</time>
  <course>351.5</course>
  <speed>2.2190313201935656</speed>
  <fix>3d</fix>
</trkpt>
<trkpt lat="40.0713786" lon="-105.2297996">
  <ele>1583.0</ele>
  <time>2026-08-28T17:53:13Z</time>
  <course>347.09</course>
  <speed>1.97</speed>
  <fix>3d</fix>
</trkpt>
<trkpt lat="40.0713848" lon="-105.2298005">
  <ele>1583.0</ele>
  <time>2026-08-28T17:53:13Z</time>
  <course>353.02</course>
  <speed>2.323488756159582</speed>
  <fix>3d</fix>
</trkpt>
<trkpt lat="40.0713823" lon="-105.2298006">
  <ele>1583.0</ele>
  <time>2026-08-28T17:53:13Z</time>
  <course>350.9</course>
  <speed>2.19</speed>
  <fix>3d</fix>
</trkpt>
<trkpt lat="40.071387" lon="-105.2298009">
  <ele>1583.0</ele>
  <time>2026-08-28T17:53:13Z</time>
  <course>354.33</course>
  <speed>2.4390571949013413</speed>
  <fix>3d</fix>
</trkpt>
<trkpt lat="40.0713823" lon="-105.2298006">
  <ele>1583.0</ele>
  <time>2026-08-28T17:53:13Z</time>
  <course>350.9</course>
  <speed>2.19</speed>
  <fix>3d</fix>
</trkpt>
<trkpt lat="40.0713892" lon="-105.2298011">
  <ele>1583.0</ele>
  <time>2026-08-28T17:53:13Z</time>
  <course>355.46</course>
  <speed>2.5463699652642777</speed>
  <fix>3d</fix>
</trkpt>
<trkpt lat="40.0713864" lon="-105.2298012">
  <ele>1583.0</ele>
  <time>2026-08-28T17:53:13Z</time>
  <course>353.73</course>
  <speed>2.4</speed>
  <fix>3d</fix>
</trkpt>
<trkpt lat="40.0713916" lon="-105.2298014">
  <ele>1583.0</ele>
  <time>2026-08-28T17:53:13Z</time>
  <course>356.44</course>
  <speed>2.653695536417092</speed>
  <fix>3d</fix>
</trkpt>
<trkpt lat="40.0713864" lon="-105.2298012">
  <ele>1583.0</ele>
  <time>2026-08-28T17:53:13Z</time>
  <course>353.73</course>
  <speed>2.4</speed>
  <fix>3d</fix>
</trkpt>
<trkpt lat="40.071394" lon="-105.2298016">
  <ele>1583.0</ele>
  <time>2026-08-28T17:53:13Z</time>
  <course>357.27</course>
  <speed>2.7521991207032968</speed>
  <fix>3d</fix>
</trkpt>
<trkpt lat="40.0713909" lon="-105.2298017">
  <ele>1583.0</ele>
  <time>2026-08-28T17:53:13Z</time>
  <course>355.84</course>
  <speed>2.61</speed>
  <fix>3d</fix>
</trkpt>
<trkpt lat="40.0713966" lon="-105.2298018">
  <ele>1583.01</ele>
  <time>2026-08-28T17:53:13Z</time>
  <course>357.98</course>
  <speed>2.85112258592997</speed>
  <fix>3d</fix>
</trkpt>
<trkpt lat="40.0713909" lon="-105.2298017">
  <ele>1583.0</ele>
  <time>2026-08-28T17:53:13Z</time>
  <course>355.84</course>
  <speed>2.61</speed>
  <fix>3d</fix>
</trkpt>
<trkpt lat="40.0713992" lon="-105.2298019">
  <ele>1583.01</ele>
  <time>2026-08-28T17:53:13Z</time>
  <course>358.6</course>
  <speed>2.9606080456554866</speed>
  <fix>3d</fix>
</trkpt>
<trkpt lat="40.0713958" lon="-105.2298021">
  <ele>1583.0</ele>
  <time>2026-08-28T17:53:13Z</time>
  <course>357.4</course>
  <speed>2.81</speed>
  <fix>3d</fix>
</trkpt>
<trkpt lat="40.0714019" lon="-105.229802">
  <ele>1583.01</ele>
  <time>2026-08-28T17:53:13Z</time>
  <course>359.15</course>
  <speed>3.0601470552899905</speed>
  <fix>3d</fix>
</trkpt>
<trkpt lat="40.0713958" lon="-105.2298021">
  <ele>1583.0</ele>
  <time>2026-08-28T17:53:13Z</time>
  <course>357.4</course>
  <speed>2.81</speed>
  <fix>3d</fix>
</trkpt>
<trkpt lat="40.0714047" lon="-105.229802">
  <ele>1583.02</ele>
  <time>2026-08-28T17:53:13Z</time>
  <course>359.62</course>
  <speed>3.1500158729758807</speed>
  <fix>3d</fix>
</trkpt>
<trkpt lat="40.0714011" lon="-105.2298023">
  <ele>1583.0</ele>
  <time>2026-08-28T17:53:13Z</time>
  <course>358.58</course>
  <speed>3.01</speed>
  <fix>3d</fix>
</trkpt>
<trkpt lat="40.0714076" lon="-105.2298021">
  <ele>1583.02</ele>
  <time>2026-08-28T17:53:13Z</time>
  <course>0.05</course>
  <speed>3.24</speed>
  <fix>3d</fix>
</trkpt>
<trkpt lat="40.0714011" lon="-105.2298023">
  <ele>1583.0</ele>
  <time>2026-08-28T17:53:13Z</time>
  <course>358.58</course>
  <speed>3.01</speed>
  <fix>3d</fix>
</trkpt>
<trkpt lat="40.0714106" lon="-105.2298021">
  <ele>1583.02</ele>
  <time>2026-08-28T17:53:13Z</time>
  <course>0.45</course>
  <speed>3.3100604224092347</speed>
  <fix>3d</fix>
</trkpt>
<trkpt lat="40.0714011" lon="-105.2298023">
  <ele>1583.0</ele>
  <time>2026-08-28T17:53:13Z</time>
  <course>358.58</course>
  <speed>3.01</speed>
  <fix>3d</fix>
</trkpt>
<trkpt lat="40.0714136" lon="-105.2298021">
  <ele>1583.02</ele>
  <time>2026-08-28T17:53:13Z</time>
  <course>0.8</course>
  <speed>3.370237380363585</speed>
  <fix>3d</fix>
</trkpt>
<trkpt lat="40.0714066" lon="-105.2298025">
  <ele>1583.0</ele>
  <time>2026-08-28T17:53:13Z</time>
  <course>359.5</course>
  <speed>3.18</speed>
  <fix>3d</fix>
</trkpt>
<trkpt lat="40.0714166" lon="-105.2298021">
  <ele>1583.02</ele>
  <time>2026-08-28T17:53:13Z</time>
  <course>1.14</course>
  <speed>3.4105278183882333</speed>
  <fix>3d</fix>
</trkpt>
<trkpt lat="40.0714066" lon="-105.2298025">
  <ele>1583.0</ele>
  <time>2026-08-28T17:53:13Z</time>
  <course>359.5</course>
  <speed>3.18</speed>
  <fix>3d</fix>
</trkpt>
<trkpt lat="40.0714196" lon="-105.2298021">
  <ele>1583.02</ele>
  <time>2026-08-28T17:53:13Z</time>
  <course>1.45</course>
  <speed>3.440712135590538</speed>
  <fix>3d</fix>
</trkpt>
<trkpt lat="40.0714125" lon="-105.2298026">
  <ele>1583.0</ele>
  <time>2026-08-28T17:53:13Z</time>
  <course>0.27</course>
  <speed>3.31</speed>
  <fix>3d</fix>
</trkpt>
<trkpt lat="40.0714227" lon="-105.2298021">
  <ele>1583.01</ele>
  <time>2026-08-28T17:53:13Z</time>
  <course>1.74</course>
  <speed>3.4511737133908515</speed>
  <fix>3d</fix>
</trkpt>
<trkpt lat="40.0714125" lon="-105.2298026">
  <ele>1583.0</ele>
  <time>2026-08-28T17:53:13Z</time>
  <course>0.27</course>
  <speed>3.31</speed>
  <fix>3d</fix>
</trkpt>
<trkpt lat="40.0714257" lon="-105.229802">
  <ele>1583.01</ele>
  <time>2026-08-28T17:53:13Z</time>
  <course>2.01</course>
  <speed>3.4514489710844636</speed>
  <fix>3d</fix>
</trkpt>
<trkpt lat="40.0714185" lon="-105.2298025">
  <ele>1583.0</ele>
  <time>2026-08-28T17:53:13Z</time>
  <course>0.91</course>
  <speed>3.39</speed>
  <fix>3d</fix>
</trkpt>
<trkpt lat="40.0714288" lon="-105.2298019">
  <ele>1583.01</ele>
  <time>2026-08-28T17:53:13Z</time>
  <course>2.29</course>
  <speed>3.432098483435462</speed>
  <fix>3d</fix>
</trkpt>
<trkpt lat="40.0714246" lon="-105.2298023">
  <ele>1583.0</ele>
  <time>2026-08-28T17:53:13Z</time>
  <course>1.49</course>
  <speed>3.4</speed>
  <fix>3d</fix>
</trkpt>
<trkpt lat="40.0714319" lon="-105.2298018">
  <ele>1583.0</ele>
  <time>2026-08-28T17:53:13Z</time>
  <course>2.56</course>
  <speed>3.4024843864447045</speed>
  <fix>3d</fix>
</trkpt>
<trkpt lat="40.0714246" lon="-105.2298023">
  <ele>1583.0</ele>
  <time>2026-08-28T17:53:13Z</time>
  <course>1.49</course>
  <speed>3.4</speed>
  <fix>3d</fix>
</trkpt>
<trkpt lat="40.0714349" lon="-105.2298017">
  <ele>1583.0</ele>
  <time>2026-08-28T17:53:13Z</time>
  <course>2.83</course>
  <speed>3.3629154018500076</speed>
  <fix>3d</fix>
</trkpt>
<trkpt lat="40.0714307" lon="-105.2298021">
  <ele>1583.0</ele>
  <time>2026-08-28T17:53:13Z</time>
  <course>2.04</course>
  <speed>3.36</speed>
  <fix>3d</fix>
</trkpt>
<trkpt lat="40.0714378" lon="-105.2298015">
  <ele>1582.99</ele>
  <time>2026-08-28T17:53:13Z</time>
  <course>3.1</course>
  <speed>3.2934176777323585</speed>
  <fix>3d</fix>
</trkpt>
<trkpt lat="40.0714307" lon="-105.2298021">
  <ele>1583.0</ele>
  <time>2026-08-28T17:53:13Z</time>
  <course>2.04</course>
  <speed>3.36</speed>
  <fix>3d</fix>
</trkpt>
<trkpt lat="40.0714407" lon="-105.2298013">
  <ele>1582.99</ele>
  <time>2026-08-28T17:53:13Z</time>
  <course>3.38</course>
  <speed>3.2239727045990945</speed>
  <fix>3d</fix>
</trkpt>
<trkpt lat="40.0714367" lon="-105.2298018">
  <ele>1583.0</ele>
  <time>2026-08-28T17:53:13Z</time>
  <course>2.59</course>
  <speed>3.26</speed>
  <fix>3d</fix>
</trkpt>
<trkpt lat="40.0714435" lon="-105.2298012">
  <ele>1583.0</ele>
  <time>2026-08-28T17:53:13Z</time>
  <course>3.68</course>
  <speed>3.124627977855924</speed>
  <fix>3d</fix>
</trkpt>
<trkpt lat="40.0714367" lon="-105.2298018">
  <ele>1583.0</ele>
  <time>2026-08-28T17:53:13Z</time>
  <course>2.59</course>
  <speed>3.26</speed>
  <fix>3d</fix>
</trkpt>
<trkpt lat="40.0714463" lon="-105.229801">
  <ele>1583.0</ele>
  <time>2026-08-28T17:53:13Z</time>
  <course>3.99</course>
  <speed>3.0253594827722536</speed>
  <fix>3d</fix>
</trkpt>
<trkpt lat="40.0714423" lon="-105.2298014">
  <ele>1583.0</ele>
  <time>2026-08-28T17:53:13Z</time>
  <course>3.16</course>
  <speed>3.09</speed>
  <fix>3d</fix>
</trkpt>
<trkpt lat="40.0714489" lon="-105.2298008">
  <ele>1583.0</ele>
  <time>2026-08-28T17:53:13Z</time>
  <course>4.31</course>
  <speed>2.906217472936256</speed>
  <fix>3d</fix>
</trkpt>
<trkpt lat="40.0714423" lon="-105.2298014">
  <ele>1583.0</ele>
  <time>2026-08-28T17:53:13Z</time>
  <course>3.16</course>
  <speed>3.09</speed>
  <fix>3d</fix>
</trkpt>
<trkpt lat="40.0714515" lon="-105.2298006">
  <ele>1583.0</ele>
  <time>2026-08-28T17:53:13Z</time>
  <course>4.66</course>
  <speed>2.776508598942204</speed>
  <fix>3d</fix>
</trkpt>
<trkpt lat="40.0714478" lon="-105.229801">
  <ele>1583.0</ele>
  <time>2026-08-28T17:53:13Z</time>
  <course>3.8</course>
  <speed>2.88</speed>
  <fix>3d</fix>
</trkpt>
<trkpt lat="40.0714539" lon="-105.2298004">
  <ele>1583.01</ele>
  <time>2026-08-28T17:53:13Z</time>
  <course>5.01</course>
  <speed>2.647564918939666</speed>
  <fix>3d</fix>
</trkpt>
<trkpt lat="40.0714478" lon="-105.229801">
  <ele>1583.0</ele>
  <time>2026-08-28T17:53:13Z</time>
  <course>3.8</course>
  <speed>2.88</speed>
  <fix>3d</fix>
</trkpt>
<trkpt lat="40.0714561" lon="-105.2298001">
  <ele>1583.01</ele>
  <time>2026-08-28T17:53:13Z</time>
  <course>5.37</course>
  <speed>2.5079872407968904</speed>
  <fix>3d</fix>
</trkpt>
<trkpt lat="40.0714527" lon="-105.2298005">
  <ele>1583.0</ele>
  <time>2026-08-28T17:53:13Z</time>
  <course>4.48</course>
  <speed>2.63</speed>
  <fix>3d</fix>
</trkpt>
<trkpt lat="40.0714583" lon="-105.2297999">
  <ele>1583.01</ele>
  <time>2026-08-28T17:53:13Z</time>
  <course>5.76</course>
  <speed>2.358495283014151</speed>
  <fix>3d</fix>
</trkpt>
<trkpt lat="40.0714527" lon="-105.2298005">
  <ele>1583.0</ele>
  <time>2026-08-28T17:53:13Z</time>
  <course>4.48</course>
  <speed>2.63</speed>
  <fix>3d</fix>
</trkpt>
<trkpt lat="40.0714603" lon="-105.2297997">
  <ele>1583.01</ele>
  <time>2026-08-28T17:53:13Z</time>
  <course>6.16</course>
  <speed>2.209072203437452</speed>
  <fix>3d</fix>
</trkpt>
<trkpt lat="40.0714572" lon="-105.2298">
  <ele>1583.0</ele>
  <time>2026-08-28T17:53:13Z</time>
  <course>5.22</course>
  <speed>2.35</speed>
  <fix>3d</fix>
</trkpt>
<trkpt lat="40.0714622" lon="-105.2297994">
  <ele>1583.01</ele>
  <time>2026-08-28T17:53:13Z</time>
  <course>6.6</course>
  <speed>2.059732992404598</speed>
  <fix>3d</fix>
</trkpt>
<trkpt lat="40.0714572" lon="-105.2298">
  <ele>1583.0</ele>
  <time>2026-08-28T17:53:13Z</time>
  <course>5.22</course>
  <speed>2.35</speed>
  <fix>3d</fix>
</trkpt>
<trkpt lat="40.0714639" lon="-105.2297992">
  <ele>1583.01</ele>
  <time>2026-08-28T17:53:13Z</time>
  <course>7.06</course>
  <speed>1.91049731745428</speed>
  <fix>3d</fix>
</trkpt>
<trkpt lat="40.0714572" lon="-105.2298">
  <ele>1583.0</ele>
  <time>2026-08-28T17:53:13Z</time>
  <course>5.22</course>
  <speed>2.35</speed>
  <fix>3d</fix>
</trkpt>
<trkpt lat="40.0714655" lon="-105.229799">
  <ele>1583.02</ele>
  <time>2026-08-28T17:53:13Z</time>
  <course>7.57</course>
  <speed>1.7613914953808538</speed>
  <fix>3d</fix>
</trkpt>
<trkpt lat="40.0714611" lon="-105.2297995">
  <ele>1583.0</ele>
  <time>2026-08-28T17:53:13Z</time>
  <course>6.06</course>
  <speed>2.06</speed>
  <fix>3d</fix>
</trkpt>
<trkpt lat="40.071467" lon="-105.2297987">
  <ele>1583.02</ele>
  <time>2026-08-28T17:53:13Z</time>
  <course>8.14</course>
  <speed>1.611241757155021</speed>
  <fix>3d</fix>
</trkpt>
<trkpt lat="40.0714611" lon="-105.2297995">
  <ele>1583.0</ele>
  <time>2026-08-28T17:53:13Z</time>
  <course>6.06</course>
  <speed>2.06</speed>
  <fix>3d</fix>
</trkpt>
<trkpt lat="40.0714683" lon="-105.2297985">
  <ele>1583.02</ele>
  <time>2026-08-28T17:53:13Z</time>
  <course>8.77</course>
  <speed>1.4723111084278349</speed>
  <fix>3d</fix>
</trkpt>
<trkpt lat="40.0714646" lon="-105.229799">
  <ele>1583.0</ele>
  <time>2026-08-28T17:53:13Z</time>
  <course>7.04</course>
  <speed>1.77</speed>
  <fix>3d</fix>
</trkpt>
<trkpt lat="40.0714695" lon="-105.2297983">
  <ele>1583.02</ele>
  <time>2026-08-28T17:53:13Z</time>
  <course>9.48</course>
  <speed>1.3237069162016188</speed>
  <fix>3d</fix>
</trkpt>
<trkpt lat="40.0714646" lon="-105.229799">
  <ele>1583.0</ele>
  <time>2026-08-28T17:53:13Z</time>
  <course>7.04</course>
  <speed>1.77</speed>
  <fix>3d</fix>
</trkpt>
<trkpt lat="40.0714705" lon="-105.229798">
  <ele>1583.02</ele>
  <time>2026-08-28T17:53:13Z</time>
  <course>10.3</course>
  <speed>1.1837651794169315</speed>
  <fix>3d</fix>
</trkpt>
<trkpt lat="40.0714675" lon="-105.2297985">
  <ele>1583.0</ele>
  <time>2026-08-28T17:53:13Z</time>
  <course>8.23</course>
  <speed>1.49</speed>
  <fix>3d</fix>
</trkpt>
<trkpt lat="40.0714715" lon="-105.2297978">
  <ele>1583.03</ele>
  <time>2026-08-28T17:53:13Z</time>
  <course>11.26</course>
  <speed>1.045609869884557</speed>
  <fix>3d</fix>
</trkpt>
<trkpt lat="40.0714675" lon="-105.2297985">
  <ele>1583.0</ele>
  <time>2026-08-28T17:53:13Z</time>
  <course>8.23</course>
  <speed>1.49</speed>
  <fix>3d</fix>
</trkpt>
<trkpt lat="40.0714723" lon="-105.2297976">
  <ele>1583.03</ele>
  <time>2026-08-28T17:53:13Z</time>
  <course>12.37</course>
  <speed>0.9159148432032315</speed>
  <fix>3d</fix>
</trkpt>
<trkpt lat="40.0714698" lon="-105.229798">
  <ele>1583.0</ele>
  <time>2026-08-28T17:53:13Z</time>
  <course>9.76</course>
  <speed>1.21</speed>
  <fix>3d</fix>
</trkpt>
<trkpt lat="40.071473" lon="-105.2297974">
  <ele>1583.03</ele>
  <time>2026-08-28T17:53:13Z</time>
  <course>13.43</course>
  <speed>0.7864477096412705</speed>
  <fix>3d</fix>
</trkpt>
<trkpt lat="40.0714718" lon="-105.2297976">
  <ele>1583.0</ele>
  <time>2026-08-28T17:53:13Z</time>
  <course>11.69</course>
  <speed>0.95</speed>
  <fix>3d</fix>
</trkpt>
<trkpt lat="40.0714736" lon="-105.2297972">
  <ele>1583.04</ele>
  <time>2026-08-28T17:53:13Z</time>
  <course>14.46</course>
  <speed>0.655133574166368</speed>
  <fix>3d</fix>
</trkpt>
<trkpt lat="40.0714718" lon="-105.2297976">
  <ele>1583.0</ele>
  <time>2026-08-28T17:53:13Z</time>
  <course>11.69</course>
  <speed>0.95</speed>
  <fix>3d</fix>
</trkpt>
<trkpt lat="40.0714741" lon="-105.229797">
  <ele>1583.04</ele>
  <time>2026-08-28T17:53:13Z</time>
  <course>15.39</course>
  <speed>0.5336665625650534</speed>
  <fix>3d</fix>
</trkpt>
<trkpt lat="40.0714733" lon="-105.2297971">
  <ele>1583.0</ele>
  <time>2026-08-28T17:53:13Z</time>
  <course>13.73</course>
  <speed>0.71</speed>
  <fix>3d</fix>
</trkpt>
<trkpt lat="40.0714745" lon="-105.2297969">
  <ele>1583.04</ele>
  <time>2026-08-28T17:53:13Z</time>
  <course>16.17</course>
  <speed>0.4220189569201838</speed>
  <fix>3d</fix>
</trkpt>
<trkpt lat="40.0714733" lon="-105.2297971">
  <ele>1583.0</ele>
  <time>2026-08-28T17:53:13Z</time>
  <course>13.73</course>
  <speed>0.71</speed>
  <fix>3d</fix>
</trkpt>
<trkpt lat="40.0714748" lon="-105.2297968">
  <ele>1583.04</ele>
  <time>2026-08-28T17:53:13Z</time>
  <course>16.78</course>
  <speed>0.3080584360149873</speed>
  <fix>3d</fix>
</trkpt>
<trkpt lat="40.0714743" lon="-105.2297968">
  <ele>1583.0</ele>
  <time>2026-08-28T17:53:13Z</time>
  <course>15.41</course>
  <speed>0.48</speed>
  <fix>3d</fix>
</trkpt>
<trkpt lat="40.071475" lon="-105.2297967">
  <ele>1583.04</ele>
  <time>2026-08-28T17:53:13Z</time>
  <course>17.23</course>
  <speed>0.194164878389476</speed>
  <fix>3d</fix>
</trkpt>
<trkpt lat="40.0714743" lon="-105.2297968">
  <ele>1583.0</ele>
  <time>2026-08-28T17:53:13Z</time>
  <course>15.41</course>
  <speed>0.48</speed>
  <fix>3d</fix>
</trkpt>
<trkpt lat="40.0714751" lon="-105.2297966">
  <ele>1583.05</ele>
  <time>2026-08-28T17:53:13Z</time>
  <course>17.52</course>
  <speed>0.09219544457292887</speed>
  <fix>3d</fix>
</trkpt>
<trkpt lat="40.0714749" lon="-105.2297965">
  <ele>1583.0</ele>
  <time>2026-08-28T17:53:13Z</time>
  <course>16.49</course>
  <speed>0.26</speed>
  <fix>3d</fix>
</trkpt>
<trkpt lat="40.0714752" lon="-105.2297966">
  <ele>1583.04</ele>
  <time>2026-08-28T17:53:13Z</time>
  <course>17.67</course>
  <speed>0.0</speed>
  <fix>3d</fix>
</trkpt>
<trkpt lat="40.0714749" lon="-105.2297965">
  <ele>1583.0</ele>
  <time>2026-08-28T17:53:13Z</time>
  <course>16.49</course>
  <speed>0.26</speed>
  <fix>3d</fix>
</trkpt>
<trkpt lat="40.0714751" lon="-105.2297966">
  <ele>1583.05</ele>
  <time>2026-08-28T17:53:13Z</time>
  <course>17.67</course>
  <speed>0.07280109889280519</speed>
  <fix>3d</fix>
</trkpt>
<trkpt lat="40.0714752" lon="-105.2297964">
  <ele>1583.0</ele>
  <time>2026-08-28T17:53:13Z</time>
  <course>17.0</course>
  <speed>0.07</speed>
  <fix>3d</fix>
</trkpt>
<trkpt lat="40.071475" lon="-105.2297966">
  <ele>1583.05</ele>
  <time>2026-08-28T17:53:13Z</time>
  <course>17.73</course>
  <speed>0.13601470508735444</speed>
  <fix>3d</fix>
</trkpt>
<trkpt lat="40.0714752" lon="-105.2297964">
  <ele>1583.0</ele>
  <time>2026-08-28T17:53:13Z</time>
  <course>17.0</course>
  <speed>0.07</speed>
  <fix>3d</fix>
</trkpt>
<trkpt lat="40.0714749" lon="-105.2297967">
  <ele>1583.05</ele>
  <time>2026-08-28T17:53:13Z</time>
  <course>17.86</course>
  <speed>0.19924858845171275</speed>
  <fix>3d</fix>
</trkpt>
<trkpt lat="40.0714752" lon="-105.2297964">
  <ele>1583.0</ele>
  <time>2026-08-28T17:53:13Z</time>
  <course>197.3</course>
  <speed>0.07</speed>
  <fix>3d</fix>
</trkpt>
<trkpt lat="40.0714747" lon="-105.2297967">
  <ele>1583.05</ele>
  <time>2026-08-28T17:53:13Z</time>
  <course>17.97</course>
  <speed>0.24041630560342614</speed>
  <fix>3d</fix>
</trkpt>
<trkpt lat="40.0714752" lon="-105.2297964">
  <ele>1583.0</ele>
  <time>2026-08-28T17:53:13Z</time>
  <course>197.3</course>
  <speed>0.07</speed>
  <fix>3d</fix>
</trkpt>
<trkpt lat="40.0714746" lon="-105.2297968">
  <ele>1583.05</ele>
  <time>2026-08-28T17:53:13Z</time>
  <course>17.98</course>
  <speed>0.2816025568065745</speed>
  <fix>3d</fix>
</trkpt>
<trkpt lat="40.071475" lon="-105.2297965">
  <ele>1583.0</ele>
  <time>2026-08-28T17:53:13Z</time>
  <course>197.4</course>
  <speed>0.17</speed>
  <fix>3d</fix>
</trkpt>
<trkpt lat="40.0714744" lon="-105.2297968">
  <ele>1583.05</ele>
  <time>2026-08-28T17:53:13Z</time>
  <course>18.02</course>
  <speed>0.32280024783137945</speed>
  <fix>3d</fix>
</trkpt>
<trkpt lat="40.071475" lon="-105.2297965">
  <ele>1583.0</ele>
  <time>2026-08-28T17:53:13Z</time>
  <course>197.4</course>
  <speed>0.17</speed>
  <fix>3d</fix>
</trkpt>
<trkpt lat="40.0714741" lon="-105.2297969">
  <ele>1583.05</ele>
  <time>2026-08-28T17:53:13Z</time>
  <course>18.15</course>
  <speed>0.34481879299133333</speed>
  <fix>3d</fix>
</trkpt>
<trkpt lat="40.071475" lon="-105.2297965">
  <ele>1583.0</ele>
  <time>2026-08-28T17:53:13Z</time>
  <course>197.4</course>
  <speed>0.17</speed>
  <fix>3d</fix>
</trkpt>
<trkpt lat="40.0714738" lon="-105.229797">
  <ele>1583.05</ele>
  <time>2026-08-28T17:53:13Z</time>
  <course>18.36</course>
  <speed>0.33241540277189324</speed>
  <fix>3d</fix>
</trkpt>
<trkpt lat="40.0714746" lon="-105.2297966">
  <ele>1583.0</ele>
  <time>2026-08-28T17:53:13Z</time>
  <course>197.53</course>
  <speed>0.24</speed>
  <fix>3d</fix>
</trkpt>
<trkpt lat="40.0714736" lon="-105.2297971">
  <ele>1583.04</ele>
  <time>2026-08-28T17:53:13Z</time>
  <course>18.64</course>
  <speed>0.30083217912982646</speed>
  <fix>3d</fix>
</trkpt>
<trkpt lat="40.0714746" lon="-105.2297966">
  <ele>1583.0</ele>
  <time>2026-08-28T17:53:13Z</time>
  <course>197.53</course>
  <speed>0.24</speed>
  <fix>3d</fix>
</trkpt>
<trkpt lat="40.0714734" lon="-105.2297972">
  <ele>1583.04</ele>
  <time>2026-08-28T17:53:13Z</time>
  <course>18.95</course>
  <speed>0.23769728648009425</speed>
  <fix>3d</fix>
</trkpt>
<trkpt lat="40.0714743" lon="-105.2297968">
  <ele>1583.0</ele>
  <time>2026-08-28T17:53:13Z</time>
  <course>197.82</course>
  <speed>0.25</speed>
  <fix>3d</fix>
</trkpt>
<trkpt lat="40.0714732" lon="-105.2297972">
  <ele>1583.04</ele>
  <time>2026-08-28T17:53:13Z</time>
  <course>19.22</course>
  <speed>0.1649242250247064</speed>
  <fix>3d</fix>
</trkpt>
<trkpt lat="40.0714743" lon="-105.2297968">
  <ele>1583.0</ele>
  <time>2026-08-28T17:53:13Z</time>
  <course>197.82</course>
  <speed>0.25</speed>
  <fix>3d</fix>
</trkpt>
<trkpt lat="40.0714732" lon="-105.2297972">
  <ele>1583.04</ele>
  <time>2026-08-28T17:53:13Z</time>
  <course>19.38</course>
  <speed>0.09055385138137417</speed>
  <fix>3d</fix>
</trkpt>
<trkpt lat="40.0714739" lon="-105.2297969">
  <ele>1583.0</ele>
  <time>2026-08-28T17:53:13Z</time>
  <course>198.26</course>
  <speed>0.16</speed>
  <fix>3d</fix>
</trkpt>
<trkpt lat="40.0714732" lon="-105.2297972">
  <ele>1583.04</ele>
  <time>2026-08-28T17:53:13Z</time>
  <course>19.34</course>
  <speed>0.01414213562373095</speed>
  <fix>3d</fix>
</trkpt>
<trkpt lat="40.0714737" lon="-105.2297969">
  <ele>1583.0</ele>
  <time>2026-08-28T17:53:13Z</time>
  <course>198.52</course>
  <speed>0.02</speed>
  <fix>3d</fix>
</trkpt>
<trkpt lat="40.0714733" lon="-105.2297971">
  <ele>1583.04</ele>
  <time>2026-08-28T17:53:13Z</time>
  <course>19.61</course>
  <speed>0.06403124237432849</speed>
  <fix>3d</fix>
</trkpt>
<trkpt lat="40.0714737" lon="-105.2297969">
  <ele>1583.0</ele>
  <time>2026-08-28T17:53:13Z</time>
  <course>198.52</course>
  <speed>0.02</speed>
  <fix>3d</fix>
</trkpt>
<trkpt lat="40.0714734" lon="-105.229797">
  <ele>1583.04</ele>
  <time>2026-08-28T17:53:13Z</time>
  <course>20.38</course>
  <speed>0.13892443989449804</speed>
  <fix>3d</fix>
</trkpt>
<trkpt lat="40.0714738" lon="-105.2297969">
  <ele>1583.0</ele>
  <time>2026-08-28T17:53:13Z</time>
  <course>19.6</course>
  <speed>0.12</speed>
  <fix>3d</fix>
</trkpt>
<trkpt lat="40.0714737" lon="-105.2297969">
  <ele>1583.04</ele>
  <time>2026-08-28T17:53:13Z</time>
  <course>21.62</course>
  <speed>0.21470910553583888</speed>
  <fix>3d</fix>
</trkpt>
<trkpt lat="40.0714738" lon="-105.2297969">
  <ele>1583.0</ele>
  <time>2026-08-28T17:53:13Z</time>
  <course>19.6</course>
  <speed>0.12</speed>
  <fix>3d</fix>
</trkpt>
<trkpt lat="40.0714739" lon="-105.2297968">
  <ele>1583.04</ele>
  <time>2026-08-28T17:53:13Z</time>
  <course>23.37</course>
  <speed>0.295296461204668</speed>
  <fix>3d</fix>
</trkpt>
<trkpt lat="40.0714741" lon="-105.2297968">
  <ele>1583.0</ele>
  <time>2026-08-28T17:53:13Z</time>
  <course>21.71</course>
  <speed>0.27</speed>
  <fix>3d</fix>
</trkpt>
<trkpt lat="40.0714743" lon="-105.2297966">
  <ele>1583.04</ele>
  <time>2026-08-28T17:53:13Z</time>
  <course>25.59</course>
  <speed>0.3721558813185679</speed>
  <fix>3d</fix>
</trkpt>
<trkpt lat="40.0714741" lon="-105.2297968">
  <ele>1583.0</ele>
  <time>2026-08-28T17:53:13Z</time>
  <course>21.71</course>
  <speed>0.27</speed>
  <fix>3d</fix>
</trkpt>
<trkpt lat="40.0714746" lon="-105.2297963">
  <ele>1583.04</ele>
  <time>2026-08-28T17:53:13Z</time>
  <course>28.17</course>
  <speed>0.4410215414239989</speed>
  <fix>3d</fix>
</trkpt>
<trkpt lat="40.0714746" lon="-105.2297965">
  <ele>1583.0</ele>
  <time>2026-08-28T17:53:13Z</time>
  <course>25.61</course>
  <speed>0.42</speed>
  <fix>3d</fix>
</trkpt>
<trkpt lat="40.071475" lon="-105.229796">
  <ele>1583.04</ele>
  <time>2026-08-28T17:53:13Z</time>
  <course>31.01</course>
  <speed>0.5161395160225576</speed>
  <fix>3d</fix>
</trkpt>
<trkpt lat="40.0714746" lon="-105.2297965">
  <ele>1583.0</ele>
  <time>2026-08-28T17:53:13Z</time>
  <course>25.61</course>
  <speed>0.42</speed>
  <fix>3d</fix>
</trkpt>
<trkpt lat="40.0714754" lon="-105.2297956">
  <ele>1583.05</ele>
  <time>2026-08-28T17:53:13Z</time>
  <course>33.89</course>
  <speed>0.5841232746604094</speed>
  <fix>3d</fix>
</trkpt>
<trkpt lat="40.0714754" lon="-105.229796">
  <ele>1583.0</ele>
  <time>2026-08-28T17:53:13Z</time>
  <course>30.8</course>
  <speed>0.55</speed>
  <fix>3d</fix>
</trkpt>
<trkpt lat="40.071476" lon="-105.2297951">
  <ele>1583.05</ele>
  <time>2026-08-28T17:53:13Z</time>
  <course>36.79</course>
  <speed>0.6529931086925803</speed>
  <fix>3d</fix>
</trkpt>
<trkpt lat="40.0714754" lon="-105.229796">
  <ele>1583.0</ele>
  <time>2026-08-28T17:53:13Z</time>
  <course>30.8</course>
  <speed>0.55</speed>
  <fix>3d</fix>
</trkpt>
<trkpt lat="40.0714765" lon="-105.2297945">
  <ele>1583.05</ele>
  <time>2026-08-28T17:53:13Z</time>
  <course>40.13</course>
  <speed>0.7213875518748573</speed>
  <fix>3d</fix>
</trkpt>
<trkpt lat="40.0714763" lon="-105.2297952">
  <ele>1583.0</ele>
  <time>2026-08-28T17:53:13Z</time>
  <course>36.69</course>
  <speed>0.68</speed>
  <fix>3d</fix>
</trkpt>
<trkpt lat="40.071477" lon="-105.2297939">
  <ele>1583.05</ele>
  <time>2026-08-28T17:53:13Z</time>
  <course>43.92</course>
  <speed>0.7783315488916018</speed>
  <fix>3d</fix>
</trkpt>
<trkpt lat="40.0714763" lon="-105.2297952">
  <ele>1583.0</ele>
  <time>2026-08-28T17:53:13Z</time>
  <course>36.69</course>
  <speed>0.68</speed>
  <fix>3d</fix>
</trkpt>
<trkpt lat="40.0714775" lon="-105.2297932">
  <ele>1583.05</ele>
  <time>2026-08-28T17:53:13Z</time>
  <course>48.14</course>
  <speed>0.8464632301523793</speed>
  <fix>3d</fix>
</trkpt>
<trkpt lat="40.0714774" lon="-105.229794">
  <ele>1583.0</ele>
  <time>2026-08-28T17:53:13Z</time>
  <course>43.84</course>
  <speed>0.8</speed>
  <fix>3d</fix>
</trkpt>
<trkpt lat="40.0714781" lon="-105.2297923">
  <ele>1583.05</ele>
  <time>2026-08-28T17:53:13Z</time>
  <course>52.73</course>
  <speed>0.920869154657707</speed>
  <fix>3d</fix>
</trkpt>
<trkpt lat="40.0714774" lon="-105.229794">
  <ele>1583.0</ele>
  <time>2026-08-28T17:53:13Z</time>
  <course>43.84</course>
  <speed>0.8</speed>
  <fix>3d</fix>
</trkpt>
<trkpt lat="40.0714786" lon="-105.2297913">
  <ele>1583.04</ele>
  <time>2026-08-28T17:53:13Z</time>
  <course>57.52</course>
  <speed>0.9897979591815695</speed>
  <fix>3d</fix>
</trkpt>
<trkpt lat="40.0714774" lon="-105.229794">
  <ele>1583.0</ele>
  <time>2026-08-28T17:53:13Z</time>
  <course>43.84</course>
  <speed>0.8</speed>
  <fix>3d</fix>
</trkpt>
<trkpt lat="40.0714791" lon="-105.2297903">
  <ele>1583.04</ele>
  <time>2026-08-28T17:53:13Z</time>
  <course>62.04</course>
  <speed>1.0735455276791945</speed>
  <fix>3d</fix>
</trkpt>
<trkpt lat="40.0714783" lon="-105.2297925">
  <ele>1583.0</ele>
  <time>2026-08-28T17:53:13Z</time>
  <course>52.59</course>
  <speed>0.92</speed>
  <fix>3d</fix>
</trkpt>
<trkpt lat="40.0714795" lon="-105.2297891">
  <ele>1583.04</ele>
  <time>2026-08-28T17:53:13Z</time>
  <course>66.16</course>
  <speed>1.158792474949678</speed>
  <fix>3d</fix>
</trkpt>
<trkpt lat="40.0714783" lon="-105.2297925">
  <ele>1583.0</ele>
  <time>2026-08-28T17:53:13Z</time>
  <course>52.59</course>
  <speed>0.92</speed>
  <fix>3d</fix>
</trkpt>
<trkpt lat="40.0714799" lon="-105.2297877">
  <ele>1583.03</ele>
  <time>2026-08-28T17:53:13Z</time>
  <course>69.65</course>
  <speed>1.2427791436936813</speed>
  <fix>3d</fix>
</trkpt>
<trkpt lat="40.0714793" lon="-105.2297906">
  <ele>1583.0</ele>
  <time>2026-08-28T17:53:13Z</time>
  <course>61.58</course>
  <speed>1.07</speed>
  <fix>3d</fix>
</trkpt>
<trkpt lat="40.0714803" lon="-105.2297863">
  <ele>1583.03</ele>
  <time>2026-08-28T17:53:13Z</time>
  <course>72.59</course>
  <speed>1.339290857132983</speed>
  <fix>3d</fix>
</trkpt>
<trkpt lat="40.0714793" lon="-105.2297906">
  <ele>1583.0</ele>
  <time>2026-08-28T17:53:13Z</time>
  <course>61.58</course>
  <speed>1.07</speed>
  <fix>3d</fix>
</trkpt>
<trkpt lat="40.0714806" lon="-105.2297847">
  <ele>1583.02</ele>
  <time>2026-08-28T17:53:13Z</time>
  <course>75.07</course>
  <speed>1.4383671297690308</speed>
  <fix>3d</fix>
</trkpt>
<trkpt lat="40.0714801" lon="-105.2297881">
  <ele>1583.0</ele>
  <time>2026-08-28T17:53:13Z</time>
  <course>69.02</course>
  <speed>1.23</speed>
  <fix>3d</fix>
</trkpt>
<trkpt lat="40.0714809" lon="-105.229783">
  <ele>1583.02</ele>
  <time>2026-08-28T17:53:13Z</time>
  <course>77.19</course>
  <speed>1.5395129099815954</speed>
  <fix>3d</fix>
</trkpt>
<trkpt lat="40.0714801" lon="-105.2297881">
  <ele>1583.0</ele>
  <time>2026-08-28T17:53:13Z</time>
  <course>69.02</course>
  <speed>1.23</speed>
  <fix>3d</fix>
</trkpt>
<trkpt lat="40.0714812" lon="-105.2297812">
  <ele>1583.02</ele>
  <time>2026-08-28T17:53:13Z</time>
  <course>79.05</course>
  <speed>1.6324827717314507</speed>
  <fix>3d</fix>
</trkpt>
<trkpt lat="40.0714809" lon="-105.2297852">
  <ele>1583.0</ele>
  <time>2026-08-28T17:53:13Z</time>
  <course>74.45</course>
  <speed>1.42</speed>
  <fix>3d</fix>
</trkpt>
<trkpt lat="40.0714815" lon="-105.2297792">
  <ele>1583.02</ele>
  <time>2026-08-28T17:53:13Z</time>
  <course>80.61</course>
  <speed>1.7281782315490495</speed>
  <fix>3d</fix>
</trkpt>
<trkpt lat="40.0714816" lon="-105.2297817">
  <ele>1583.0</ele>
  <time>2026-08-28T17:53:13Z</time>
  <course>78.39</course>
  <speed>1.61</speed>
  <fix>3d</fix>
</trkpt>
<trkpt lat="40.0714818" lon="-105.2297772">
  <ele>1583.02</ele>
  <time>2026-08-28T17:53:13Z</time>
  <course>81.93</course>
  <speed>1.8332484828849578</speed>
  <fix>3d</fix>
</trkpt>
<trkpt lat="40.0714816" lon="-105.2297817">
  <ele>1583.0</ele>
  <time>2026-08-28T17:53:13Z</time>
  <course>78.39</course>
  <speed>1.61</speed>
  <fix>3d</fix>
</trkpt>
<trkpt lat="40.071482" lon="-105.229775">
  <ele>1583.02</ele>
  <time>2026-08-28T17:53:13Z</time>
  <course>83.04</course>
  <speed>1.9303885619221848</speed>
  <fix>3d</fix>
</trkpt>
<trkpt lat="40.0714821" lon="-105.2297777">
  <ele>1583.0</ele>
  <time>2026-08-28T17:53:13Z</time>
  <course>81.28</course>
  <speed>1.8</speed>
  <fix>3d</fix>
</trkpt>
<trkpt lat="40.0714822" lon="-105.2297726">
  <ele>1583.02</ele>
  <time>2026-08-28T17:53:13Z</time>
  <course>83.99</course>
  <speed>2.0379646709401023</speed>
  <fix>3d</fix>
</trkpt>
<trkpt lat="40.0714821" lon="-105.2297777">
  <ele>1583.0</ele>
  <time>2026-08-28T17:53:13Z</time>
  <course>81.28</course>
  <speed>1.8</speed>
  <fix>3d</fix>
</trkpt>
<trkpt lat="40.0714824" lon="-105.2297702">
  <ele>1583.01</ele>
  <time>2026-08-28T17:53:13Z</time>
  <course>84.78</course>
  <speed>2.1467417171145673</speed>
  <fix>3d</fix>
</trkpt>
<trkpt lat="40.0714825" lon="-105.2297733">
  <ele>1583.0</ele>
  <time>2026-08-28T17:53:13Z</time>
  <course>83.34</course>
  <speed>2.01</speed>
  <fix>3d</fix>
</trkpt>
<trkpt lat="40.0714826" lon="-105.2297676">
  <ele>1583.01</ele>
  <time>2026-08-28T17:53:13Z</time>
  <course>85.46</course>
  <speed>2.254994456755936</speed>
  <fix>3d</fix>
</trkpt>
<trkpt lat="40.0714825" lon="-105.2297733">
  <ele>1583.0</ele>
  <time>2026-08-28T17:53:13Z</time>
  <course>83.34</course>
  <speed>2.01</speed>
  <fix>3d</fix>
</trkpt>
<trkpt lat="40.0714828" lon="-105.2297648">
  <ele>1583.01</ele>
  <time>2026-08-28T17:53:13Z</time>
  <course>86.06</course>
  <speed>2.364148895480147</speed>
  <fix>3d</fix>
</trkpt>
<trkpt lat="40.071483" lon="-105.2297684">
  <ele>1583.0</ele>
  <time>2026-08-28T17:53:13Z</time>
  <course>84.83</course>
  <speed>2.22</speed>
  <fix>3d</fix>
</trkpt>
<trkpt lat="40.0714829" lon="-105.229762">
  <ele>1583.01</ele>
  <time>2026-08-28T17:53:13Z</time>
  <course>86.57</course>
  <speed>2.4634325645326687</speed>
  <fix>3d</fix>
</trkpt>
<trkpt lat="40.071483" lon="-105.2297684">
  <ele>1583.0</ele>
  <time>2026-08-28T17:53:13Z</time>
  <course>84.83</course>
  <speed>2.22</speed>
  <fix>3d</fix>
</trkpt>
<trkpt lat="40.0714831" lon="-105.229759">
  <ele>1583.01</ele>
  <time>2026-08-28T17:53:13Z</time>
  <course>87.02</course>
  <speed>2.5628109567426156</speed>
  <fix>3d</fix>
</trkpt>
<trkpt lat="40.0714833" lon="-105.2297629">
  <ele>1583.0</ele>
  <time>2026-08-28T17:53:13Z</time>
  <course>85.94</course>
  <speed>2.43</speed>
  <fix>3d</fix>
</trkpt>
<trkpt lat="40.0714832" lon="-105.2297559">
  <ele>1583.0</ele>
  <time>2026-08-28T17:53:13Z</time>
  <course>87.43</course>
  <speed>2.6522820362849804</speed>
  <fix>3d</fix>
</trkpt>
<trkpt lat="40.0714833" lon="-105.2297629">
  <ele>1583.0</ele>
  <time>2026-08-28T17:53:13Z</time>
  <course>85.94</course>
  <speed>2.43</speed>
  <fix>3d</fix>
</trkpt>
<trkpt lat="40.0714834" lon="-105.2297528">
  <ele>1583.0</ele>
  <time>2026-08-28T17:53:13Z</time>
  <course>87.8</course>
  <speed>2.731483113621609</speed>
  <fix>3d</fix>
</trkpt>
<trkpt lat="40.0714836" lon="-105.2297569">
  <ele>1583.0</ele>
  <time>2026-08-28T17:53:13Z</time>
  <course>86.81</course>
  <speed>2.61</speed>
  <fix>3d</fix>
</trkpt>
<trkpt lat="40.0714835" lon="-105.2297495">
  <ele>1583.0</ele>
  <time>2026-08-28T17:53:13Z</time>
  <course>88.14</course>
  <speed>2.8011426240018555</speed>
  <fix>3d</fix>
</trkpt>
<trkpt lat="40.0714836" lon="-105.2297569">
  <ele>1583.0</ele>
  <time>2026-08-28T17:53:13Z</time>
  <course>86.81</course>
  <speed>2.61</speed>
  <fix>3d</fix>
</trkpt>
<trkpt lat="40.0714836" lon="-105.2297461">
  <ele>1582.99</ele>
  <time>2026-08-28T17:53:13Z</time>
  <course>88.46</course>
  <speed>2.8608565151017276</speed>
  <fix>3d</fix>
</trkpt>
<trkpt lat="40.0714838" lon="-105.2297506">
  <ele>1583.0</ele>
  <time>2026-08-28T17:53:13Z</time>
  <course>87.52</course>
  <speed>2.76</speed>
  <fix>3d</fix>
</trkpt>
<trkpt lat="40.0714837" lon="-105.2297427">
  <ele>1582.99</ele>
  <time>2026-08-28T17:53:13Z</time>
  <course>88.76</course>
  <speed>2.9006206232459975</speed>
  <fix>3d</fix>
</trkpt>
<trkpt lat="40.0714838" lon="-105.2297506">
  <ele>1583.0</ele>
  <time>2026-08-28T17:53:13Z</time>
  <course>87.52</course>
  <speed>2.76</speed>
  <fix>3d</fix>
</trkpt>
<trkpt lat="40.0714838" lon="-105.2297393">
  <ele>1582.98</ele>
  <time>2026-08-28T17:53:13Z</time>
  <course>89.04</course>
  <speed>2.9304265901059523</speed>
  <fix>3d</fix>
</trkpt>
<trkpt lat="40.0714838" lon="-105.2297506">
  <ele>1583.0</ele>
  <time>2026-08-28T17:53:13Z</time>
  <course>87.52</course>
  <speed>2.76</speed>
  <fix>3d</fix>
</trkpt>
<trkpt lat="40.0714839" lon="-105.2297359">
  <ele>1582.98</ele>
  <time>2026-08-28T17:53:13Z</time>
  <course>89.32</course>
  <speed>2.940153057240388</speed>
  <fix>3d</fix>
</trkpt>
<trkpt lat="40.071484" lon="-105.229744">
  <ele>1583.0</ele>
  <time>2026-08-28T17:53:13Z</time>
  <course>88.14</course>
  <speed>2.85</speed>
  <fix>3d</fix>
</trkpt>
<trkpt lat="40.0714839" lon="-105.2297325">
  <ele>1582.98</ele>
  <time>2026-08-28T17:53:13Z</time>
  <course>89.59</course>
  <speed>2.9400680264238788</speed>
  <fix>3d</fix>
</trkpt>
<trkpt lat="40.071484" lon="-105.229744">
  <ele>1583.0</ele>
  <time>2026-08-28T17:53:13Z</time>
  <course>88.14</course>
  <speed>2.85</speed>
  <fix>3d</fix>
</trkpt>
<trkpt lat="40.071484" lon="-105.2297291">
  <ele>1582.98</ele>
  <time>2026-08-28T17:53:13Z</time>
  <course>89.86</course>
  <speed>2.9200171232374648</speed>
  <fix>3d</fix>
</trkpt>
<trkpt lat="40.0714841" lon="-105.2297373">
  <ele>1583.0</ele>
  <time>2026-08-28T17:53:13Z</time>
  <course>88.71</course>
  <speed>2.89</speed>
  <fix>3d</fix>
</trkpt>
<trkpt lat="40.071484" lon="-105.2297257">
  <ele>1582.98</ele>
  <time>2026-08-28T17:53:13Z</time>
  <course>90.16</course>
  <speed>2.88</speed>
  <fix>3d</fix>
</trkpt>
<trkpt lat="40.0714841" lon="-105.2297373">
  <ele>1583.0</ele>
  <time>2026-08-28T17:53:13Z</time>
  <course>88.71</course>
  <speed>2.89</speed>
  <fix>3d</fix>
</trkpt>
<trkpt lat="40.071484" lon="-105.2297225">
  <ele>1582.98</ele>
  <time>2026-08-28T17:53:13Z</time>
  <course>90.46</course>
  <speed>2.830017667789373</speed>
  <fix>3d</fix>
</trkpt>
<trkpt lat="40.0714842" lon="-105.2297304">
  <ele>1583.0</ele>
  <time>2026-08-28T17:53:13Z</time>
  <course>89.27</course>
  <speed>2.87</speed>
  <fix>3d</fix>
</trkpt>
<trkpt lat="40.071484" lon="-105.2297192">
  <ele>1582.98</ele>
  <time>2026-08-28T17:53:13Z</time>
  <course>90.79</course>
  <speed>2.770072201225087</speed>
  <fix>3d</fix>
</trkpt>
<trkpt lat="40.0714843" lon="-105.2297238">
  <ele>1583.0</ele>
  <time>2026-08-28T17:53:13Z</time>
  <course>89.87</course>
  <speed>2.79</speed>
  <fix>3d</fix>
</trkpt>
<trkpt lat="40.071484" lon="-105.229716">
  <ele>1582.98</ele>
  <time>2026-08-28T17:53:13Z</time>
  <course>91.14</course>
  <speed>2.690167281044062</speed>
  <fix>3d</fix>
</trkpt>
<trkpt lat="40.0714843" lon="-105.2297238">
  <ele>1583.0</ele>
  <time>2026-08-28T17:53:13Z</time>
  <course>89.87</course>
  <speed>2.79</speed>
  <fix>3d</fix>
</trkpt>
<trkpt lat="40.071484" lon="-105.229713">
  <ele>1582.98</ele>
  <time>2026-08-28T17:53:13Z</time>
  <course>91.53</course>
  <speed>2.5904825805243314</speed>
  <fix>3d</fix>
</trkpt>
<trkpt lat="40.0714843" lon="-105.2297174">
  <ele>1583.0</ele>
  <time>2026-08-28T17:53:13Z</time>
  <course>90.55</course>
  <speed>2.65</speed>
  <fix>3d</fix>
</trkpt>
<trkpt lat="40.071484" lon="-105.2297101">
  <ele>1582.97</ele>
  <time>2026-08-28T17:53:13Z</time>
  <course>91.95</course>
  <speed>2.490722786662538</speed>
  <fix>3d</fix>
</trkpt>
<trkpt lat="40.0714843" lon="-105.2297174">
  <ele>1583.0</ele>
  <time>2026-08-28T17:53:13Z</time>
  <course>90.55</course>
  <speed>2.65</speed>
  <fix>3d</fix>
</trkpt>
<trkpt lat="40.071484" lon="-105.2297072">
  <ele>1582.97</ele>
  <time>2026-08-28T17:53:13Z</time>
  <course>92.4</course>
  <speed>2.371349826575573</speed>
  <fix>3d</fix>
</trkpt>
<trkpt lat="40.0714843" lon="-105.2297114">
  <ele>1583.0</ele>
  <time>2026-08-28T17:53:13Z</time>
  <course>91.35</course>
  <speed>2.46</speed>
  <fix>3d</fix>
</trkpt>
<trkpt lat="40.071484" lon="-105.2297046">
  <ele>1582.97</ele>
  <time>2026-08-28T17:53:13Z</time>
  <course>92.88</course>
  <speed>2.241807306616695</speed>
  <fix>3d</fix>
</trkpt>
<trkpt lat="40.0714843" lon="-105.2297114">
  <ele>1583.0</ele>
  <time>2026-08-28T17:53:13Z</time>
  <course>91.35</course>
  <speed>2.46</speed>
  <fix>3d</fix>
</trkpt>
<trkpt lat="40.0714839" lon="-105.2297021">
  <ele>1582.97</ele>
  <time>2026-08-28T17:53:13Z</time>
  <course>93.41</course>
  <speed>2.112368339092404</speed>
  <fix>3d</fix>
</trkpt>
<trkpt lat="40.0714842" lon="-105.2297059">
  <ele>1583.0</ele>
  <time>2026-08-28T17:53:13Z</time>
  <course>92.28</course>
  <speed>2.23</speed>
  <fix>3d</fix>
</trkpt>
<trkpt lat="40.0714838" lon="-105.2296997">
  <ele>1582.97</ele>
  <time>2026-08-28T17:53:13Z</time>
  <course>93.99</course>
  <speed>1.973068675946177</speed>
  <fix>3d</fix>
</trkpt>
<trkpt lat="40.0714842" lon="-105.2297059">
  <ele>1583.0</ele>
  <time>2026-08-28T17:53:13Z</time>
  <course>92.28</course>
  <speed>2.23</speed>
  <fix>3d</fix>
</trkpt>
<trkpt lat="40.0714837" lon="-105.2296975">
  <ele>1582.97</ele>
  <time>2026-08-28T17:53:13Z</time>
  <course>94.63</course>
  <speed>1.8239517537478889</speed>
  <fix>3d</fix>
</trkpt>
<trkpt lat="40.071484" lon="-105.229701">
  <ele>1583.0</ele>
  <time>2026-08-28T17:53:13Z</time>
  <course>93.38</course>
  <speed>1.96</speed>
  <fix>3d</fix>
</trkpt>
<trkpt lat="40.0714836" lon="-105.2296955">
  <ele>1582.97</ele>
  <time>2026-08-28T17:53:13Z</time>
  <course>95.35</course>
  <speed>1.6850222550459089</speed>
  <fix>3d</fix>
</trkpt>
<trkpt lat="40.071484" lon="-105.229701">
  <ele>1583.0</ele>
  <time>2026-08-28T17:53:13Z</time>
  <course>93.38</course>
  <speed>1.96</speed>
  <fix>3d</fix>
</trkpt>
<trkpt lat="40.0714835" lon="-105.2296937">
  <ele>1582.97</ele>
  <time>2026-08-28T17:53:13Z</time>
  <course>96.16</course>
  <speed>1.5363918770938616</speed>
  <fix>3d</fix>
</trkpt>
<trkpt lat="40.0714837" lon="-105.2296967">
  <ele>1583.0</ele>
  <time>2026-08-28T17:53:13Z</time>
  <course>94.74</course>
  <speed>1.68</speed>
  <fix>3d</fix>
</trkpt>
<trkpt lat="40.0714834" lon="-105.229692">
  <ele>1582.97</ele>
  <time>2026-08-28T17:53:13Z</time>
  <course>97.09</course>
  <speed>1.3781872151489436</speed>
  <fix>3d</fix>
</trkpt>
<trkpt lat="40.0714837" lon="-105.2296967">
  <ele>1583.0</ele>
  <time>2026-08-28T17:53:13Z</time>
  <course>94.74</course>
  <speed>1.68</speed>
  <fix>3d</fix>
</trkpt>
<trkpt lat="40.0714833" lon="-105.2296906">
  <ele>1582.97</ele>
  <time>2026-08-28T17:53:13Z</time>
  <course>98.18</course>
  <speed>1.229186723000212</speed>
  <fix>3d</fix>
</trkpt>
<trkpt lat="40.0714835" lon="-105.229693">
  <ele>1583.0</ele>
  <time>2026-08-28T17:53:13Z</time>
  <course>96.47</course>
  <speed>1.39</speed>
  <fix>3d</fix>
</trkpt>
<trkpt lat="40.0714831" lon="-105.2296893">
  <ele>1582.97</ele>
  <time>2026-08-28T17:53:13Z</time>
  <course>99.44</course>
  <speed>1.0818964830333815</speed>
  <fix>3d</fix>
</trkpt>
<trkpt lat="40.0714835" lon="-105.229693">
  <ele>1583.0</ele>
  <time>2026-08-28T17:53:13Z</time>
  <course>96.47</course>
  <speed>1.39</speed>
  <fix>3d</fix>
</trkpt>
<trkpt lat="40.071483" lon="-105.2296881">
  <ele>1582.97</ele>
  <time>2026-08-28T17:53:13Z</time>
  <course>100.81</course>
  <speed>0.942019108086455</speed>
  <fix>3d</fix>
</trkpt>
<trkpt lat="40.0714835" lon="-105.229693">
  <ele>1583.0</ele>
  <time>2026-08-28T17:53:13Z</time>
  <course>96.47</course>
  <speed>1.39</speed>
  <fix>3d</fix>
</trkpt>
<trkpt lat="40.0714828" lon="-105.2296872">
  <ele>1582.98</ele>
  <time>2026-08-28T17:53:13Z</time>
  <course>102.16</course>
  <speed>0.7942921376924236</speed>
  <fix>3d</fix>
</trkpt>
<trkpt lat="40.0714832" lon="-105.2296901">
  <ele>1583.0</ele>
  <time>2026-08-28T17:53:13Z</time>
  <course>98.73</course>
  <speed>1.11</speed>
  <fix>3d</fix>
</trkpt>
<trkpt lat="40.0714827" lon="-105.2296864">
  <ele>1582.98</ele>
  <time>2026-08-28T17:53:13Z</time>
  <course>103.44</course>
  <speed>0.6649060083951716</speed>
  <fix>3d</fix>
</trkpt>
<trkpt lat="40.0714832" lon="-105.2296901">
  <ele>1583.0</ele>
  <time>2026-08-28T17:53:13Z</time>
  <course>98.73</course>
  <speed>1.11</speed>
  <fix>3d</fix>
</trkpt>
<trkpt lat="40.0714826" lon="-105.2296857">
  <ele>1582.98</ele>
  <time>2026-08-28T17:53:13Z</time>
  <course>104.56</course>
  <speed>0.5239274758971895</speed>
  <fix>3d</fix>
</trkpt>
<trkpt lat="40.0714829" lon="-105.2296879">
  <ele>1583.0</ele>
  <time>2026-08-28T17:53:13Z</time>
  <course>101.32</course>
  <speed>0.83</speed>
  <fix>3d</fix>
</trkpt>
<trkpt lat="40.0714825" lon="-105.2296852">
  <ele>1582.98</ele>
  <time>2026-08-28T17:53:13Z</time>
  <course>105.45</course>
  <speed>0.3905124837953327</speed>
  <fix>3d</fix>
</trkpt>
<trkpt lat="40.0714829" lon="-105.2296879">
  <ele>1583.0</ele>
  <time>2026-08-28T17:53:13Z</time>
  <course>101.32</course>
  <speed>0.83</speed>
  <fix>3d</fix>
</trkpt>
<trkpt lat="40.0714824" lon="-105.2296849">
  <ele>1582.97</ele>
  <time>2026-08-28T17:53:13Z</time>
  <course>106.13</course>
  <speed>0.2668332812825267</speed>
  <fix>3d</fix>
</trkpt>
<trkpt lat="40.0714826" lon="-105.2296863">
  <ele>1583.0</ele>
  <time>2026-08-28T17:53:13Z</time>
  <course>103.63</course>
  <speed>0.56</speed>
  <fix>3d</fix>
</trkpt>
<trkpt lat="40.0714824" lon="-105.2296847">
  <ele>1582.97</ele>
  <time>2026-08-28T17:53:13Z</time>
  <course>106.59</course>
  <speed>0.14317821063276354</speed>
  <fix>3d</fix>
</trkpt>
<trkpt lat="40.0714824" lon="-105.2296853">
  <ele>1583.0</ele>
  <time>2026-08-28T17:53:13Z</time>
  <course>105.21</course>
  <speed>0.31</speed>
  <fix>3d</fix>
</trkpt>
<trkpt lat="40.0714824" lon="-105.2296846">
  <ele>1582.97</ele>
  <time>2026-08-28T17:53:13Z</time>
  <course>106.84</course>
  <speed>0.04</speed>
  <fix>3d</fix>
</trkpt>
<trkpt lat="40.0714824" lon="-105.2296853">
  <ele>1583.0</ele>
  <time>2026-08-28T17:53:13Z</time>
  <course>105.21</course>
  <speed>0.31</speed>
  <fix>3d</fix>
</trkpt>
<trkpt lat="40.0714824" lon="-105.2296847">
  <ele>1582.97</ele>
  <time>2026-08-28T17:53:13Z</time>
  <course>106.89</course>
  <speed>0.0412310562561766</speed>
  <fix>3d</fix>
</trkpt>
<trkpt lat="40.0714823" lon="-105.2296848">
  <ele>1583.0</ele>
  <time>2026-08-28T17:53:13Z</time>
  <course>105.99</course>
  <speed>0.1</speed>
  <fix>3d</fix>
</trkpt>
<trkpt lat="40.0714824" lon="-105.2296848">
  <ele>1582.97</ele>
  <time>2026-08-28T17:53:13Z</time>
  <course>106.95</course>
  <speed>0.11401754250991379</speed>
  <fix>3d</fix>
</trkpt>
<trkpt lat="40.0714823" lon="-105.2296848">
  <ele>1583.0</ele>
  <time>2026-08-28T17:53:13Z</time>
  <course>105.99</course>
  <speed>0.1</speed>
  <fix>3d</fix>
</trkpt>
<trkpt lat="40.0714823" lon="-105.2296849">
  <ele>1582.97</ele>
  <time>2026-08-28T17:53:13Z</time>
  <course>107.11</course>
  <speed>0.18681541692269404</speed>
  <fix>3d</fix>
</trkpt>
<trkpt lat="40.0714823" lon="-105.2296847">
  <ele>1583.0</ele>
  <time>2026-08-28T17:53:13Z</time>
  <course>286.49</course>
  <speed>0.06</speed>
  <fix>3d</fix>
</trkpt>
<trkpt lat="40.0714824" lon="-105.2296851">
  <ele>1582.97</ele>
  <time>2026-08-28T17:53:13Z</time>
  <course>107.34</course>
  <speed>0.2308679276123039</speed>
  <fix>3d</fix>
</trkpt>
<trkpt lat="40.0714823" lon="-105.2296847">
  <ele>1583.0</ele>
  <time>2026-08-28T17:53:13Z</time>
  <course>286.49</course>
  <speed>0.06</speed>
  <fix>3d</fix>
</trkpt>
<trkpt lat="40.0714825" lon="-105.2296854">
  <ele>1582.97</ele>
  <time>2026-08-28T17:53:13Z</time>
  <course>107.62</course>
  <speed>0.2692582403567252</speed>
  <fix>3d</fix>
</trkpt>
<trkpt lat="40.0714823" lon="-105.2296849">
  <ele>1583.0</ele>
  <time>2026-08-28T17:53:13Z</time>
  <course>286.8</course>
  <speed>0.17</speed>
  <fix>3d</fix>
</trkpt>
<trkpt lat="40.0714825" lon="-105.2296857">
  <ele>1582.97</ele>
  <time>2026-08-28T17:53:13Z</time>
  <course>107.95</course>
  <speed>0.29120439557122074</speed>
  <fix>3d</fix>
</trkpt>
<trkpt lat="40.0714823" lon="-105.2296849">
  <ele>1583.0</ele>
  <time>2026-08-28T17:53:13Z</time>
  <course>286.8</course>
  <speed>0.17</speed>
  <fix>3d</fix>
</trkpt>
<trkpt lat="40.0714826" lon="-105.229686">
  <ele>1582.97</ele>
  <time>2026-08-28T17:53:13Z</time>
  <course>108.42</course>
  <speed>0.30083217912982646</speed>
  <fix>3d</fix>
</trkpt>
<trkpt lat="40.0714823" lon="-105.2296854">
  <ele>1583.0</ele>
  <time>2026-08-28T17:53:13Z</time>
  <course>287.42</course>
  <speed>0.22</speed>
  <fix>3d</fix>
</trkpt>
<trkpt lat="40.0714826" lon="-105.2296863">
  <ele>1582.98</ele>
  <time>2026-08-28T17:53:13Z</time>
  <course>109.05</course>
  <speed>0.29120439557122074</speed>
  <fix>3d</fix>
</trkpt>
<trkpt lat="40.0714823" lon="-105.2296854">
  <ele>1583.0</ele>
  <time>2026-08-28T17:53:13Z</time>
  <course>287.42</course>
  <speed>0.22</speed>
  <fix>3d</fix>
</trkpt>
<trkpt lat="40.0714827" lon="-105.2296866">
  <ele>1582.98</ele>
  <time>2026-08-28T17:53:13Z</time>
  <course>109.82</course>
  <speed>0.2816025568065745</speed>
  <fix>3d</fix>
</trkpt>
<trkpt lat="40.0714825" lon="-105.2296859">
  <ele>1583.0</ele>
  <time>2026-08-28T17:53:13Z</time>
  <course>288.46</course>
  <speed>0.23</speed>
  <fix>3d</fix>
</trkpt>
<trkpt lat="40.0714828" lon="-105.2296869">
  <ele>1582.98</ele>
  <time>2026-08-28T17:53:13Z</time>
  <course>110.66</course>
  <speed>0.25</speed>
  <fix>3d</fix>
</trkpt>
<trkpt lat="40.0714825" lon="-105.2296859">
  <ele>1583.0</ele>
  <time>2026-08-28T17:53:13Z</time>
  <course>288.46</course>
  <speed>0.23</speed>
  <fix>3d</fix>
</trkpt>
<trkpt lat="40.0714828" lon="-105.2296871">
  <ele>1582.98</ele>
  <time>2026-08-28T17:53:13Z</time>
  <course>111.5</course>
  <speed>0.208806130178211</speed>
  <fix>3d</fix>
</trkpt>
<trkpt lat="40.0714826" lon="-105.2296863">
  <ele>1583.0</ele>
  <time>2026-08-28T17:53:13Z</time>
  <course>289.87</course>
  <speed>0.18</speed>
  <fix>3d</fix>
</trkpt>
<trkpt lat="40.0714828" lon="-105.2296873">
  <ele>1582.99</ele>
  <time>2026-08-28T17:53:14Z</time>
  <course>112.21</course>
  <speed>0.15524174696260024</speed>
  <fix>3d</fix>
</trkpt>
<trkpt lat="40.0714826" lon="-105.2296863">
  <ele>1583.0</ele>
  <time>2026-08-28T17:53:14Z</time>
  <course>289.87</course>
  <speed>0.18</speed>
  <fix>3d</fix>
</trkpt>
<trkpt lat="40.0714828" lon="-105.2296874">
  <ele>1582.99</ele>
  <time>2026-08-28T17:53:14Z</time>
  <course>112.63</course>
  <speed>0.09055385138137417</speed>
  <fix>3d</fix>
</trkpt>
<trkpt lat="40.0714826" lon="-105.2296863">
  <ele>1583.0</ele>
  <time>2026-08-28T17:53:14Z</time>
  <course>289.87</course>
  <speed>0.18</speed>
  <fix>3d</fix>
</trkpt>
<trkpt lat="40.0714828" lon="-105.2296873">
  <ele>1583.0</ele>
  <time>2026-08-28T17:53:14Z</time>
  <course>112.64</course>
  <speed>0.022360679774997897</speed>
  <fix>3d</fix>
</trkpt>
<trkpt lat="40.0714827" lon="-105.2296867">
  <ele>1583.0</ele>
  <time>2026-08-28T17:53:14Z</time>
  <course>291.08</course>
  <speed>0.09</speed>
  <fix>3d</fix>
</trkpt>
<trkpt lat="40.0714828" lon="-105.2296873">
  <ele>1583.0</ele>
  <time>2026-08-28T17:53:14Z</time>
  <course>113.04</course>
  <speed>0.07071067811865475</speed>
  <fix>3d</fix>
</trkpt>
<trkpt lat="40.0714827" lon="-105.2296867">
  <ele>1583.0</ele>
  <time>2026-08-28T17:53:14Z</time>
  <course>291.08</course>
  <speed>0.09</speed>
  <fix>3d</fix>
</trkpt>
<trkpt lat="40.0714827" lon="-105.2296871">
  <ele>1583.0</ele>
  <time>2026-08-28T17:53:14Z</time>
  <course>114.17</course>
  <speed>0.17204650534085253</speed>
  <fix>3d</fix>
</trkpt>
<trkpt lat="40.0714828" lon="-105.2296868">
  <ele>1583.0</ele>
  <time>2026-08-28T17:53:14Z</time>
  <course>112.58</course>
  <speed>0.04</speed>
  <fix>3d</fix>
</trkpt>
<trkpt lat="40.0714827" lon="-105.2296869">
  <ele>1583.0</ele>
  <time>2026-08-28T17:53:14Z</time>
  <course>115.95</course>
  <speed>0.2830194339616981</speed>
  <fix>3d</fix>
</trkpt>
<trkpt lat="40.0714828" lon="-105.2296868">
  <ele>1583.0</ele>
  <time>2026-08-28T17:53:14Z</time>
  <course>112.58</course>
  <speed>0.04</speed>
  <fix>3d</fix>
</trkpt>
<trkpt lat="40.0714825" lon="-105.2296864">
  <ele>1583.0</ele>
  <time>2026-08-28T17:53:14Z</time>
  <course>118.45</course>
  <speed>0.4049691346263317</speed>
  <fix>3d</fix>
</trkpt>
<trkpt lat="40.0714827" lon="-105.2296865">
  <ele>1583.0</ele>
  <time>2026-08-28T17:53:14Z</time>
  <course>114.51</course>
  <speed>0.23</speed>
  <fix>3d</fix>
</trkpt>
<trkpt lat="40.0714822" lon="-105.2296859">
  <ele>1583.0</ele>
  <time>2026-08-28T17:53:14Z</time>
  <course>121.72</course>
  <speed>0.5300943312279428</speed>
  <fix>3d</fix>
</trkpt>
<trkpt lat="40.0714827" lon="-105.2296865">
  <ele>1583.0</ele>
  <time>2026-08-28T17:53:14Z</time>
  <course>114.51</course>
  <speed>0.23</speed>
  <fix>3d</fix>
</trkpt>
<trkpt lat="40.0714819" lon="-105.2296853">
  <ele>1583.0</ele>
  <time>2026-08-28T17:53:14Z</time>
  <course>125.84</course>
  <speed>0.6747592163134936</speed>
  <fix>3d</fix>
</trkpt>
<trkpt lat="40.0714825" lon="-105.2296858">
  <ele>1583.0</ele>
  <time>2026-08-28T17:53:14Z</time>
  <course>118.97</course>
  <speed>0.45</speed>
  <fix>3d</fix>
</trkpt>
<trkpt lat="40.0714814" lon="-105.2296845">
  <ele>1583.0</ele>
  <time>2026-08-28T17:53:14Z</time>
  <course>130.77</course>
  <speed>0.8132035415564789</speed>
  <fix>3d</fix>
</trkpt>
<trkpt lat="40.0714819" lon="-105.2296847">
  <ele>1583.0</ele>
  <time>2026-08-28T17:53:14Z</time>
  <course>126.45</course>
  <speed>0.7</speed>
  <fix>3d</fix>
</trkpt>
<trkpt lat="40.0714808" lon="-105.2296837">
  <ele>1582.99</ele>
  <time>2026-08-28T17:53:14Z</time>
  <course>136.57</course>
  <speed>0.9577577981932593</speed>
  <fix>3d</fix>
</trkpt>
<trkpt lat="40.0714819" lon="-105.2296847">
  <ele>1583.0</ele>
  <time>2026-08-28T17:53:14Z</time>
  <course>126.45</course>
  <speed>0.7</speed>
  <fix>3d</fix>
</trkpt>
<trkpt lat="40.0714801" lon="-105.2296829">
  <ele>1582.99</ele>
  <time>2026-08-28T17:53:14Z</time>
  <course>142.61</course>
  <speed>1.101135777277262</speed>
  <fix>3d</fix>
</trkpt>
<trkpt lat="40.0714809" lon="-105.2296833">
  <ele>1583.0</ele>
  <time>2026-08-28T17:53:14Z</time>
  <course>136.9</course>
  <speed>0.97</speed>
  <fix>3d</fix>
</trkpt>
<trkpt lat="40.0714792" lon="-105.2296821">
  <ele>1582.99</ele>
  <time>2026-08-28T17:53:14Z</time>
  <course>147.85</course>
  <speed>1.2539936203984452</speed>
  <fix>3d</fix>
</trkpt>
<trkpt lat="40.0714809" lon="-105.2296833">
  <ele>1583.0</ele>
  <time>2026-08-28T17:53:14Z</time>
  <course>136.9</course>
  <speed>0.97</speed>
  <fix>3d</fix>
</trkpt>
<trkpt lat="40.0714781" lon="-105.2296813">
  <ele>1582.99</ele>
  <time>2026-08-28T17:53:14Z</time>
  <course>152.41</course>
  <speed>1.391294361377203</speed>
  <fix>3d</fix>
</trkpt>
<trkpt lat="40.0714793" lon="-105.2296816">
  <ele>1583.0</ele>
  <time>2026-08-28T17:53:14Z</time>
  <course>147.44</course>
  <speed>1.25</speed>
  <fix>3d</fix>
</trkpt>
<trkpt lat="40.0714769" lon="-105.2296805">
  <ele>1583.0</ele>
  <time>2026-08-28T17:53:14Z</time>
  <course>156.42</course>
  <speed>1.5357408635573906</speed>
  <fix>3d</fix>
</trkpt>
<trkpt lat="40.0714793" lon="-105.2296816">
  <ele>1583.0</ele>
  <time>2026-08-28T17:53:14Z</time>
  <course>147.44</course>
  <speed>1.25</speed>
  <fix>3d</fix>
</trkpt>
<trkpt lat="40.0714755" lon="-105.2296798">
  <ele>1583.0</ele>
  <time>2026-08-28T17:53:14Z</time>
  <course>160.11</course>
  <speed>1.6602710622064096</speed>
  <fix>3d</fix>
</trkpt>
<trkpt lat="40.0714771" lon="-105.2296801">
  <ele>1583.0</ele>
  <time>2026-08-28T17:53:14Z</time>
  <course>155.94</course>
  <speed>1.52</speed>
  <fix>3d</fix>
</trkpt>
<trkpt lat="40.0714739" lon="-105.2296792">
  <ele>1583.0</ele>
  <time>2026-08-28T17:53:14Z</time>
  <course>163.23</course>
  <speed>1.7804493814764857</speed>
  <fix>3d</fix>
</trkpt>
<trkpt lat="40.0714771" lon="-105.2296801">
  <ele>1583.0</ele>
  <time>2026-08-28T17:53:14Z</time>
  <course>155.94</course>
  <speed>1.52</speed>
  <fix>3d</fix>
</trkpt>
<trkpt lat="40.0714723" lon="-105.2296786">
  <ele>1583.0</ele>
  <time>2026-08-28T17:53:14Z</time>
  <course>165.9</course>
  <speed>1.894887859478761</speed>
  <fix>3d</fix>
</trkpt>
<trkpt lat="40.0714744" lon="-105.2296787">
  <ele>1583.0</ele>
  <time>2026-08-28T17:53:14Z</time>
  <course>162.54</course>
  <speed>1.76</speed>
  <fix>3d</fix>
</trkpt>
<trkpt lat="40.0714706" lon="-105.2296781">
  <ele>1583.0</ele>
  <time>2026-08-28T17:53:14Z</time>
  <course>168.19</course>
  <speed>2.0124611797498106</speed>
  <fix>3d</fix>
</trkpt>
<trkpt lat="40.0714744" lon="-105.2296787">
  <ele>1583.0</ele>
  <time>2026-08-28T17:53:14Z</time>
  <course>162.54</course>
  <speed>1.76</speed>
  <fix>3d</fix>
</trkpt>
<trkpt lat="40.0714687" lon="-105.2296776">
  <ele>1583.0</ele>
  <time>2026-08-28T17:53:14Z</time>
  <course>170.16</course>
  <speed>2.124241040936739</speed>
  <fix>3d</fix>
</trkpt>
<trkpt lat="40.0714711" lon="-105.2296777">
  <ele>1583.0</ele>
  <time>2026-08-28T17:53:14Z</time>
  <course>167.49</course>
  <speed>1.98</speed>
  <fix>3d</fix>
</trkpt>
<trkpt lat="40.0714668" lon="-105.2296772">
  <ele>1583.0</ele>
  <time>2026-08-28T17:53:14Z</time>
  <course>171.85</course>
  <speed>2.2264321233758735</speed>
  <fix>3d</fix>
</trkpt>
<trkpt lat="40.0714711" lon="-105.2296777">
  <ele>1583.0</ele>
  <time>2026-08-28T17:53:14Z</time>
  <course>167.49</course>
  <speed>1.98</speed>
  <fix>3d</fix>
</trkpt>
<trkpt lat="40.0714647" lon="-105.2296768">
  <ele>1583.0</ele>
  <time>2026-08-28T17:53:14Z</time>
  <course>173.31</course>
  <speed>2.341324411524383</speed>
  <fix>3d</fix>
</trkpt>
<trkpt lat="40.0714674" lon="-105.2296767">
  <ele>1583.0</ele>
  <time>2026-08-28T17:53:14Z</time>
  <course>171.16</course>
  <speed>2.19</speed>
  <fix>3d</fix>
</trkpt>
<trkpt lat="40.0714626" lon="-105.2296765">
  <ele>1583.0</ele>
  <time>2026-08-28T17:53:14Z</time>
  <course>174.58</course>
  <speed>2.4473863609981974</speed>
  <fix>3d</fix>
</trkpt>
<trkpt lat="40.0714674" lon="-105.2296767">
  <ele>1583.0</ele>
  <time>2026-08-28T17:53:14Z</time>
  <course>171.16</course>
  <speed>2.19</speed>
  <fix>3d</fix>
</trkpt>
<trkpt lat="40.0714603" lon="-105.2296762">
  <ele>1583.0</ele>
  <time>2026-08-28T17:53:14Z</time>
  <course>175.67</course>
  <speed>2.54503438090726</speed>
  <fix>3d</fix>
</trkpt>
<trkpt lat="40.0714674" lon="-105.2296767">
  <ele>1583.0</ele>
  <time>2026-08-28T17:53:14Z</time>
  <course>171.16</course>
  <speed>2.19</speed>
  <fix>3d</fix>
</trkpt>
<trkpt lat="40.071458" lon="-105.229676">
  <ele>1583.0</ele>
  <time>2026-08-28T17:53:14Z</time>
  <course>176.6</course>
  <speed>2.6527155897306445</speed>
  <fix>3d</fix>
</trkpt>
<trkpt lat="40.0714633" lon="-105.229676">
  <ele>1583.0</ele>
  <time>2026-08-28T17:53:14Z</time>
  <course>173.9</course>
  <speed>2.4</speed>
  <fix>3d</fix>
</trkpt>
<trkpt lat="40.0714556" lon="-105.2296758">
  <ele>1583.0</ele>
  <time>2026-08-28T17:53:14Z</time>
  <course>177.41</course>
  <speed>2.7514723331336626</speed>
  <fix>3d</fix>
</trkpt>
<trkpt lat="40.0714633" lon="-105.229676">
  <ele>1583.0</ele>
  <time>2026-08-28T17:53:14Z</time>
  <course>173.9</course>
  <speed>2.4</speed>
  <fix>3d</fix>
</trkpt>
<trkpt lat="40.0714531" lon="-105.2296757">
  <ele>1583.0</ele>
  <time>2026-08-28T17:53:14Z</time>
  <course>178.1</course>
  <speed>2.8508595195133695</speed>
  <fix>3d</fix>
</trkpt>
<trkpt lat="40.0714588" lon="-105.2296755">
  <ele>1583.0</ele>
  <time>2026-08-28T17:53:14Z</time>
  <course>175.94</course>
  <speed>2.6</speed>
  <fix>3d</fix>
</trkpt>
<trkpt lat="40.0714505" lon="-105.2296755">
  <ele>1583.0</ele>
  <time>2026-08-28T17:53:14Z</time>
  <course>178.71</course>
  <speed>2.9502711739770633</speed>
  <fix>3d</fix>
</trkpt>
<trkpt lat="40.0714588" lon="-105.2296755">
  <ele>1583.0</ele>
  <time>2026-08-28T17:53:14Z</time>
  <course>175.94</course>
  <speed>2.6</speed>
  <fix>3d</fix>
</trkpt>
<trkpt lat="40.0714479" lon="-105.2296754">
  <ele>1583.0</ele>
  <time>2026-08-28T17:53:14Z</time>
  <course>179.24</course>
  <speed>3.0400657887618157</speed>
  <fix>3d</fix>
</trkpt>
<trkpt lat="40.0714539" lon="-105.2296752">
  <ele>1583.0</ele>
  <time>2026-08-28T17:53:14Z</time>
  <course>177.46</course>
  <speed>2.8</speed>
  <fix>3d</fix>
</trkpt>
<trkpt lat="40.0714451" lon="-105.2296754">
  <ele>1583.0</ele>
  <time>2026-08-28T17:53:14Z</time>
  <course>179.71</course>
  <speed>3.14</speed>
  <fix>3d</fix>
</trkpt>
<trkpt lat="40.0714488" lon="-105.2296749">
  <ele>1583.0</ele>
  <time>2026-08-28T17:53:14Z</time>
  <course>178.61</course>
  <speed>3.0</speed>
  <fix>3d</fix>
</trkpt>
<trkpt lat="40.0714422" lon="-105.2296753">
  <ele>1583.0</ele>
  <time>2026-08-28T17:53:14Z</time>
  <course>180.15</course>
  <speed>3.2300154798390674</speed>
  <fix>3d</fix>
</trkpt>
<trkpt lat="40.0714488" lon="-105.2296749">
  <ele>1583.0</ele>
  <time>2026-08-28T17:53:14Z</time>
  <course>178.61</course>
  <speed>3.0</speed>
  <fix>3d</fix>
</trkpt>
<trkpt lat="40.0714393" lon="-105.2296753">
  <ele>1583.0</ele>
  <time>2026-08-28T17:53:14Z</time>
  <course>180.54</course>
  <speed>3.3001363608190495</speed>
  <fix>3d</fix>
</trkpt>
<trkpt lat="40.0714432" lon="-105.2296748">
  <ele>1583.0</ele>
  <time>2026-08-28T17:53:14Z</time>
  <course>179.52</course>
  <speed>3.17</speed>
  <fix>3d</fix>
</trkpt>
<trkpt lat="40.0714363" lon="-105.2296752">
  <ele>1583.0</ele>
  <time>2026-08-28T17:53:14Z</time>
  <course>180.89</course>
  <speed>3.3603720032163107</speed>
  <fix>3d</fix>
</trkpt>
<trkpt lat="40.0714432" lon="-105.2296748">
  <ele>1583.0</ele>
  <time>2026-08-28T17:53:14Z</time>
  <course>179.52</course>
  <speed>3.17</speed>
  <fix>3d</fix>
</trkpt>
<trkpt lat="40.0714333" lon="-105.2296752">
  <ele>1582.99</ele>
  <time>2026-08-28T17:53:14Z</time>
  <course>181.22</course>
  <speed>3.4107183993991645</speed>
  <fix>3d</fix>
</trkpt>
<trkpt lat="40.0714374" lon="-105.2296748">
  <ele>1583.0</ele>
  <time>2026-08-28T17:53:14Z</time>
  <course>180.27</course>
  <speed>3.31</speed>
  <fix>3d</fix>
</trkpt>
<trkpt lat="40.0714302" lon="-105.2296753">
  <ele>1582.99</ele>
  <time>2026-08-28T17:53:14Z</time>
  <course>181.54</course>
  <speed>3.4411771241829445</speed>
  <fix>3d</fix>
</trkpt>
<trkpt lat="40.0714374" lon="-105.2296748">
  <ele>1583.0</ele>
  <time>2026-08-28T17:53:14Z</time>
  <course>180.27</course>
  <speed>3.31</speed>
  <fix>3d</fix>
</trkpt>
<trkpt lat="40.0714271" lon="-105.2296753">
  <ele>1582.99</ele>
  <time>2026-08-28T17:53:14Z</time>
  <course>181.82</course>
  <speed>3.4514489710844636</speed>
  <fix>3d</fix>
</trkpt>
<trkpt lat="40.0714313" lon="-105.2296748">
  <ele>1583.0</ele>
  <time>2026-08-28T17:53:14Z</time>
  <course>180.92</course>
  <speed>3.39</speed>
  <fix>3d</fix>
</trkpt>
<trkpt lat="40.071424" lon="-105.2296754">
  <ele>1582.98</ele>
  <time>2026-08-28T17:53:14Z</time>
  <course>182.1</course>
  <speed>3.4520863256876995</speed>
  <fix>3d</fix>
</trkpt>
<trkpt lat="40.0714313" lon="-105.2296748">
  <ele>1583.0</ele>
  <time>2026-08-28T17:53:14Z</time>
  <course>180.92</course>
  <speed>3.39</speed>
  <fix>3d</fix>
</trkpt>
<trkpt lat="40.0714209" lon="-105.2296755">
  <ele>1582.98</ele>
  <time>2026-08-28T17:53:14Z</time>
  <course>182.37</course>
  <speed>3.442455518957362</speed>
  <fix>3d</fix>
</trkpt>
<trkpt lat="40.0714252" lon="-105.2296749">
  <ele>1583.0</ele>
  <time>2026-08-28T17:53:14Z</time>
  <course>181.5</course>
  <speed>3.4</speed>
  <fix>3d</fix>
</trkpt>
<trkpt lat="40.0714178" lon="-105.2296756">
  <ele>1582.98</ele>
  <time>2026-08-28T17:53:14Z</time>
  <course>182.64</course>
  <speed>3.41287269027135</speed>
  <fix>3d</fix>
</trkpt>
<trkpt lat="40.0714252" lon="-105.2296749">
  <ele>1583.0</ele>
  <time>2026-08-28T17:53:14Z</time>
  <course>181.5</course>
  <speed>3.4</speed>
  <fix>3d</fix>
</trkpt>
<trkpt lat="40.0714148" lon="-105.2296758">
  <ele>1582.98</ele>
  <time>2026-08-28T17:53:14Z</time>
  <course>182.91</course>
  <speed>3.3638073666605823</speed>
  <fix>3d</fix>
</trkpt>
<trkpt lat="40.0714191" lon="-105.2296752">
  <ele>1583.0</ele>
  <time>2026-08-28T17:53:14Z</time>
  <course>182.05</course>
  <speed>3.36</speed>
  <fix>3d</fix>
</trkpt>
<trkpt lat="40.0714118" lon="-105.2296759">
  <ele>1582.98</ele>
  <time>2026-08-28T17:53:14Z</time>
  <course>183.18</course>
  <speed>3.3043758866085438</speed>
  <fix>3d</fix>
</trkpt>
<trkpt lat="40.0714191" lon="-105.2296752">
  <ele>1583.0</ele>
  <time>2026-08-28T17:53:14Z</time>
  <course>182.05</course>
  <speed>3.36</speed>
  <fix>3d</fix>
</trkpt>
<trkpt lat="40.0714089" lon="-105.2296761">
  <ele>1582.98</ele>
  <time>2026-08-28T17:53:14Z</time>
  <course>183.46</course>
  <speed>3.2250271316688175</speed>
  <fix>3d</fix>
</trkpt>
<trkpt lat="40.0714131" lon="-105.2296755">
  <ele>1583.0</ele>
  <time>2026-08-28T17:53:14Z</time>
  <course>182.59</course>
  <speed>3.25</speed>
  <fix>3d</fix>
</trkpt>
<trkpt lat="40.0714061" lon="-105.2296762">
  <ele>1582.98</ele>
  <time>2026-08-28T17:53:14Z</time>
  <course>183.75</course>
  <speed>3.1251879943453003</speed>
  <fix>3d</fix>
</trkpt>
<trkpt lat="40.0714131" lon="-105.2296755">
  <ele>1583.0</ele>
  <time>2026-08-28T17:53:14Z</time>
  <course>182.59</course>
  <speed>3.25</speed>
  <fix>3d</fix>
</trkpt>
<trkpt lat="40.0714034" lon="-105.2296764">
  <ele>1582.98</ele>
  <time>2026-08-28T17:53:14Z</time>
  <course>184.07</course>
  <speed>3.0259709185648167</speed>
  <fix>3d</fix>
</trkpt>
<trkpt lat="40.0714131" lon="-105.2296755">
  <ele>1583.0</ele>
  <time>2026-08-28T17:53:14Z</time>
  <course>182.59</course>
  <speed>3.25</speed>
  <fix>3d</fix>
</trkpt>
<trkpt lat="40.0714008" lon="-105.2296766">
  <ele>1582.98</ele>
  <time>2026-08-28T17:53:14Z</time>
  <course>184.38</course>
  <speed>2.9068883707497264</speed>
  <fix>3d</fix>
</trkpt>
<trkpt lat="40.0714074" lon="-105.229676">
  <ele>1583.0</ele>
  <time>2026-08-28T17:53:14Z</time>
  <course>183.17</course>
  <speed>3.09</speed>
  <fix>3d</fix>
</trkpt>
<trkpt lat="40.0713983" lon="-105.2296769">
  <ele>1582.98</ele>
  <time>2026-08-28T17:53:14Z</time>
  <course>184.72</course>
  <speed>2.7772108310317383</speed>
  <fix>3d</fix>
</trkpt>
<trkpt lat="40.0714074" lon="-105.229676">
  <ele>1583.0</ele>
  <time>2026-08-28T17:53:14Z</time>
  <course>183.17</course>
  <speed>3.09</speed>
  <fix>3d</fix>
</trkpt>
<trkpt lat="40.0713959" lon="-105.2296771">
  <ele>1582.98</ele>
  <time>2026-08-28T17:53:14Z</time>
  <course>185.06</course>
  <speed>2.6383707093583344</speed>
  <fix>3d</fix>
</trkpt>
<trkpt lat="40.0714021" lon="-105.2296763">
  <ele>1583.0</ele>
  <time>2026-08-28T17:53:14Z</time>
  <course>183.8</course>
  <speed>2.87</speed>
  <fix>3d</fix>
</trkpt>
<trkpt lat="40.0713937" lon="-105.2296773">
  <ele>1582.98</ele>
  <time>2026-08-28T17:53:14Z</time>
  <course>185.42</course>
  <speed>2.498839730755056</speed>
  <fix>3d</fix>
</trkpt>
<trkpt lat="40.0714021" lon="-105.2296763">
  <ele>1583.0</ele>
  <time>2026-08-28T17:53:14Z</time>
  <course>183.8</course>
  <speed>2.87</speed>
  <fix>3d</fix>
</trkpt>
<trkpt lat="40.0713916" lon="-105.2296775">
  <ele>1582.98</ele>
  <time>2026-08-28T17:53:14Z</time>
  <course>185.8</course>
  <speed>2.3494041797868666</speed>
  <fix>3d</fix>
</trkpt>
<trkpt lat="40.0713972" lon="-105.2296768">
  <ele>1583.0</ele>
  <time>2026-08-28T17:53:14Z</time>
  <course>184.47</course>
  <speed>2.61</speed>
  <fix>3d</fix>
</trkpt>
<trkpt lat="40.0713896" lon="-105.2296777">
  <ele>1582.98</ele>
  <time>2026-08-28T17:53:14Z</time>
  <course>186.2</course>
  <speed>2.2000454540758927</speed>
  <fix>3d</fix>
</trkpt>
<trkpt lat="40.0713972" lon="-105.2296768">
  <ele>1583.0</ele>
  <time>2026-08-28T17:53:14Z</time>
  <course>184.47</course>
  <speed>2.61</speed>
  <fix>3d</fix>
</trkpt>
<trkpt lat="40.0713878" lon="-105.229678">
  <ele>1582.98</ele>
  <time>2026-08-28T17:53:14Z</time>
  <course>186.64</course>
  <speed>2.050780339285512</speed>
  <fix>3d</fix>
</trkpt>
<trkpt lat="40.0713928" lon="-105.2296773">
  <ele>1583.0</ele>
  <time>2026-08-28T17:53:14Z</time>
  <course>185.21</course>
  <speed>2.34</speed>
  <fix>3d</fix>
</trkpt>
<trkpt lat="40.0713861" lon="-105.2296782">
  <ele>1582.98</ele>
  <time>2026-08-28T17:53:14Z</time>
  <course>187.1</course>
  <speed>1.9016308790088576</speed>
  <fix>3d</fix>
</trkpt>
<trkpt lat="40.0713888" lon="-105.2296778">
  <ele>1583.0</ele>
  <time>2026-08-28T17:53:14Z</time>
  <course>186.04</course>
  <speed>2.05</speed>
  <fix>3d</fix>
</trkpt>
<trkpt lat="40.0713845" lon="-105.2296784">
  <ele>1582.98</ele>
  <time>2026-08-28T17:53:14Z</time>
  <course>187.61</course>
  <speed>1.7426990560621762</speed>
  <fix>3d</fix>
</trkpt>
<trkpt lat="40.0713888" lon="-105.2296778">
  <ele>1583.0</ele>
  <time>2026-08-28T17:53:14Z</time>
  <course>186.04</course>
  <speed>2.05</speed>
  <fix>3d</fix>
</trkpt>
<trkpt lat="40.0713831" lon="-105.2296787">
  <ele>1582.98</ele>
  <time>2026-08-28T17:53:14Z</time>
  <course>188.16</course>
  <speed>1.6025292509030842</speed>
  <fix>3d</fix>
</trkpt>
<trkpt lat="40.0713854" lon="-105.2296783">
  <ele>1583.0</ele>
  <time>2026-08-28T17:53:14Z</time>
  <course>187.01</course>
  <speed>1.76</speed>
  <fix>3d</fix>
</trkpt>
<trkpt lat="40.0713818" lon="-105.2296789">
  <ele>1582.99</ele>
  <time>2026-08-28T17:53:14Z</time>
  <course>188.79</course>
  <speed>1.4538225476308997</speed>
  <fix>3d</fix>
</trkpt>
<trkpt lat="40.0713854" lon="-105.2296783">
  <ele>1583.0</ele>
  <time>2026-08-28T17:53:14Z</time>
  <course>187.01</course>
  <speed>1.76</speed>
  <fix>3d</fix>
</trkpt>
<trkpt lat="40.0713806" lon="-105.2296791">
  <ele>1582.99</ele>
  <time>2026-08-28T17:53:14Z</time>
  <course>189.5</course>
  <speed>1.3152946437965907</speed>
  <fix>3d</fix>
</trkpt>
<trkpt lat="40.0713825" lon="-105.2296788">
  <ele>1583.0</ele>
  <time>2026-08-28T17:53:14Z</time>
  <course>188.19</course>
  <speed>1.48</speed>
  <fix>3d</fix>
</trkpt>
<trkpt lat="40.0713795" lon="-105.2296794">
  <ele>1582.99</ele>
  <time>2026-08-28T17:53:14Z</time>
  <course>190.31</course>
  <speed>1.175457357797381</speed>
  <fix>3d</fix>
</trkpt>
<trkpt lat="40.0713825" lon="-105.2296788">
  <ele>1583.0</ele>
  <time>2026-08-28T17:53:14Z</time>
  <course>188.19</course>
  <speed>1.48</speed>
  <fix>3d</fix>
</trkpt>
<trkpt lat="40.0713786" lon="-105.2296796">
  <ele>1582.99</ele>
  <time>2026-08-28T17:53:14Z</time>
  <course>191.27</course>
  <speed>1.035760590097924</speed>
  <fix>3d</fix>
</trkpt>
<trkpt lat="40.0713801" lon="-105.2296793">
  <ele>1583.0</ele>
  <time>2026-08-28T17:53:14Z</time>
  <course>189.7</course>
  <speed>1.2</speed>
  <fix>3d</fix>
</trkpt>
<trkpt lat="40.0713777" lon="-105.2296798">
  <ele>1582.98</ele>
  <time>2026-08-28T17:53:14Z</time>
  <course>192.35</course>
  <speed>0.9080198235721508</speed>
  <fix>3d</fix>
</trkpt>
<trkpt lat="40.0713801" lon="-105.2296793">
  <ele>1583.0</ele>
  <time>2026-08-28T17:53:14Z</time>
  <course>189.7</course>
  <speed>1.2</speed>
  <fix>3d</fix>
</trkpt>
<trkpt lat="40.071377" lon="-105.22968">
  <ele>1582.98</ele>
  <time>2026-08-28T17:53:14Z</time>
  <course>193.39</course>
  <speed>0.7787810988975015</speed>
  <fix>3d</fix>
</trkpt>
<trkpt lat="40.0713782" lon="-105.2296798">
  <ele>1583.0</ele>
  <time>2026-08-28T17:53:14Z</time>
  <course>191.6</course>
  <speed>0.94</speed>
  <fix>3d</fix>
</trkpt>
<trkpt lat="40.0713764" lon="-105.2296802">
  <ele>1582.98</ele>
  <time>2026-08-28T17:53:14Z</time>
  <course>194.39</course>
  <speed>0.6476109943476871</speed>
  <fix>3d</fix>
</trkpt>
<trkpt lat="40.0713782" lon="-105.2296798">
  <ele>1583.0</ele>
  <time>2026-08-28T17:53:14Z</time>
  <course>191.6</course>
  <speed>0.94</speed>
  <fix>3d</fix>
</trkpt>
<trkpt lat="40.0713759" lon="-105.2296804">
  <ele>1582.98</ele>
  <time>2026-08-28T17:53:14Z</time>
  <course>195.29</course>
  <speed>0.5263078946776306</speed>
  <fix>3d</fix>
</trkpt>
<trkpt lat="40.0713767" lon="-105.2296801">
  <ele>1583.0</ele>
  <time>2026-08-28T17:53:14Z</time>
  <course>193.59</course>
  <speed>0.7</speed>
  <fix>3d</fix>
</trkpt>
<trkpt lat="40.0713755" lon="-105.2296805">
  <ele>1582.98</ele>
  <time>2026-08-28T17:53:14Z</time>
  <course>196.02</course>
  <speed>0.41484937025383084</speed>
  <fix>3d</fix>
</trkpt>
<trkpt lat="40.0713767" lon="-105.2296801">
  <ele>1583.0</ele>
  <time>2026-08-28T17:53:14Z</time>
  <course>193.59</course>
  <speed>0.7</speed>
  <fix>3d</fix>
</trkpt>
<trkpt lat="40.0713752" lon="-105.2296806">
  <ele>1582.98</ele>
  <time>2026-08-28T17:53:14Z</time>
  <course>196.6</course>
  <speed>0.30083217912982646</speed>
  <fix>3d</fix>
</trkpt>
<trkpt lat="40.0713758" lon="-105.2296805">
  <ele>1583.0</ele>
  <time>2026-08-28T17:53:14Z</time>
  <course>195.2</course>
  <speed>0.47</speed>
  <fix>3d</fix>
</trkpt>
<trkpt lat="40.071375" lon="-105.2296807">
  <ele>1582.98</ele>
  <time>2026-08-28T17:53:14Z</time>
  <course>197.02</course>
  <speed>0.18681541692269404</speed>
  <fix>3d</fix>
</trkpt>
<trkpt lat="40.0713758" lon="-105.2296805">
  <ele>1583.0</ele>
  <time>2026-08-28T17:53:14Z</time>
  <course>195.2</course>
  <speed>0.47</speed>
  <fix>3d</fix>
</trkpt>
<trkpt lat="40.0713749" lon="-105.2296808">
  <ele>1582.98</ele>
  <time>2026-08-28T17:53:14Z</time>
  <course>197.28</course>
  <speed>0.0854400374531753</speed>
  <fix>3d</fix>
</trkpt>
<trkpt lat="40.0713758" lon="-105.2296805">
  <ele>1583.0</ele>
  <time>2026-08-28T17:53:14Z</time>
  <course>195.2</course>
  <speed>0.47</speed>
  <fix>3d</fix>
</trkpt>
<trkpt lat="40.0713749" lon="-105.2296808">
  <ele>1582.98</ele>
  <time>2026-08-28T17:53:14Z</time>
  <course>197.41</course>
  <speed>0.0</speed>
  <fix>3d</fix>
</trkpt>
<trkpt lat="40.0713752" lon="-105.2296807">
  <ele>1583.0</ele>
  <time>2026-08-28T17:53:14Z</time>
  <course>196.21</course>
  <speed>0.25</speed>
  <fix>3d</fix>
</trkpt>
<trkpt lat="40.0713749" lon="-105.2296808">
  <ele>1582.98</ele>
  <time>2026-08-28T17:53:14Z</time>
  <course>197.42</course>
  <speed>0.07071067811865475</speed>
  <fix>3d</fix>
</trkpt>
<trkpt lat="40.0713752" lon="-105.2296807">
  <ele>1583.0</ele>
  <time>2026-08-28T17:53:14Z</time>
  <course>196.21</course>
  <speed>0.25</speed>
  <fix>3d</fix>
</trkpt>
<trkpt lat="40.071375" lon="-105.2296808">
  <ele>1582.99</ele>
  <time>2026-08-28T17:53:14Z</time>
  <course>197.47</course>
  <speed>0.13341664064126335</speed>
  <fix>3d</fix>
</trkpt>
<trkpt lat="40.0713749" lon="-105.2296808">
  <ele>1583.0</ele>
  <time>2026-08-28T17:53:14Z</time>
  <course>196.68</course>
  <speed>0.06</speed>
  <fix>3d</fix>
</trkpt>
<trkpt lat="40.0713752" lon="-105.2296807">
  <ele>1582.99</ele>
  <time>2026-08-28T17:53:14Z</time>
  <course>197.59</course>
  <speed>0.18439088914585774</speed>
  <fix>3d</fix>
</trkpt>
<trkpt lat="40.0713749" lon="-105.2296808">
  <ele>1583.0</ele>
  <time>2026-08-28T17:53:14Z</time>
  <course>196.68</course>
  <speed>0.06</speed>
  <fix>3d</fix>
</trkpt>
<trkpt lat="40.0713753" lon="-105.2296806">
  <ele>1583.0</ele>
  <time>2026-08-28T17:53:14Z</time>
  <course>197.76</course>
  <speed>0.22561028345356957</speed>
  <fix>3d</fix>
</trkpt>
<trkpt lat="40.0713748" lon="-105.2296808">
  <ele>1583.0</ele>
  <time>2026-08-28T17:53:14Z</time>
  <course>16.95</course>
  <speed>0.07</speed>
  <fix>3d</fix>
</trkpt>
<trkpt lat="40.0713755" lon="-105.2296806">
  <ele>1583.0</ele>
  <time>2026-08-28T17:53:14Z</time>
  <course>197.84</course>
  <speed>0.2570992026436488</speed>
  <fix>3d</fix>
</trkpt>
<trkpt lat="40.071375" lon="-105.2296808">
  <ele>1583.0</ele>
  <time>2026-08-28T17:53:14Z</time>
  <course>17.12</course>
  <speed>0.16</speed>
  <fix>3d</fix>
</trkpt>
<trkpt lat="40.0713756" lon="-105.2296806">
  <ele>1583.0</ele>
  <time>2026-08-28T17:53:14Z</time>
  <course>197.88</course>
  <speed>0.28861739379323625</speed>
  <fix>3d</fix>
</trkpt>
<trkpt lat="40.071375" lon="-105.2296808">
  <ele>1583.0</ele>
  <time>2026-08-28T17:53:14Z</time>
  <course>17.12</course>
  <speed>0.16</speed>
  <fix>3d</fix>
</trkpt>
<trkpt lat="40.0713759" lon="-105.2296805">
  <ele>1583.0</ele>
  <time>2026-08-28T17:53:14Z</time>
  <course>198.01</course>
  <speed>0.29832867780352595</speed>
  <fix>3d</fix>
</trkpt>
<trkpt lat="40.0713753" lon="-105.2296807">
  <ele>1583.0</ele>
  <time>2026-08-28T17:53:14Z</time>
  <course>17.31</course>
  <speed>0.22</speed>
  <fix>3d</fix>
</trkpt>
<trkpt lat="40.0713761" lon="-105.2296804">
  <ele>1583.0</ele>
  <time>2026-08-28T17:53:14Z</time>
  <course>198.24</course>
  <speed>0.28861739379323625</speed>
  <fix>3d</fix>
</trkpt>
<trkpt lat="40.0713753" lon="-105.2296807">
  <ele>1583.0</ele>
  <time>2026-08-28T17:53:14Z</time>
  <course>17.31</course>
  <speed>0.22</speed>
  <fix>3d</fix>
</trkpt>
<trkpt lat="40.0713763" lon="-105.2296804">
  <ele>1582.99</ele>
  <time>2026-08-28T17:53:14Z</time>
  <course>198.54</course>
  <speed>0.2570992026436488</speed>
  <fix>3d</fix>
</trkpt>
<trkpt lat="40.0713758" lon="-105.2296806">
  <ele>1583.0</ele>
  <time>2026-08-28T17:53:14Z</time>
  <course>17.62</course>
  <speed>0.22</speed>
  <fix>3d</fix>
</trkpt>
<trkpt lat="40.0713765" lon="-105.2296803">
  <ele>1582.99</ele>
  <time>2026-08-28T17:53:14Z</time>
  <course>198.85</course>
  <speed>0.2039607805437114</speed>
  <fix>3d</fix>
</trkpt>
<trkpt lat="40.0713758" lon="-105.2296806">
  <ele>1583.0</ele>
  <time>2026-08-28T17:53:14Z</time>
  <course>17.62</course>
  <speed>0.22</speed>
  <fix>3d</fix>
</trkpt>
<trkpt lat="40.0713766" lon="-105.2296803">
  <ele>1582.99</ele>
  <time>2026-08-28T17:53:14Z</time>
  <course>199.13</course>
  <speed>0.1414213562373095</speed>
  <fix>3d</fix>
</trkpt>
<trkpt lat="40.071376" lon="-105.2296804">
  <ele>1583.0</ele>
  <time>2026-08-28T17:53:14Z</time>
  <course>18.08</course>
  <speed>0.14</speed>
  <fix>3d</fix>
</trkpt>
<trkpt lat="40.0713766" lon="-105.2296803">
  <ele>1582.98</ele>
  <time>2026-08-28T17:53:14Z</time>
  <course>199.31</course>
  <speed>0.08</speed>
  <fix>3d</fix>
</trkpt>
<trkpt lat="40.071376" lon="-105.2296804">
  <ele>1583.0</ele>
  <time>2026-08-28T17:53:14Z</time>
  <course>18.08</course>
  <speed>0.14</speed>
  <fix>3d</fix>
</trkpt>
<trkpt lat="40.0713766" lon="-105.2296803">
  <ele>1582.98</ele>
  <time>2026-08-28T17:53:14Z</time>
  <course>199.28</course>
  <speed>0.0282842712474619</speed>
  <fix>3d</fix>
</trkpt>
<trkpt lat="40.0713761" lon="-105.2296803">
  <ele>1583.0</ele>
  <time>2026-08-28T17:53:14Z</time>
  <course>18.35</course>
  <speed>0.02</speed>
  <fix>3d</fix>
</trkpt>
<trkpt lat="40.0713766" lon="-105.2296804">
  <ele>1582.98</ele>
  <time>2026-08-28T17:53:14Z</time>
  <course>199.44</course>
  <speed>0.05830951894845301</speed>
  <fix>3d</fix>
</trkpt>
<trkpt lat="40.0713761" lon="-105.2296803">
  <ele>1583.0</ele>
  <time>2026-08-28T17:53:14Z</time>
  <course>18.35</course>
  <speed>0.02</speed>
  <fix>3d</fix>
</trkpt>
<trkpt lat="40.0713765" lon="-105.2296805">
  <ele>1582.98</ele>
  <time>2026-08-28T17:53:14Z</time>
  <course>200.15</course>
  <speed>0.12206555615733702</speed>
  <fix>3d</fix>
</trkpt>
<trkpt lat="40.0713761" lon="-105.2296803">
  <ele>1583.0</ele>
  <time>2026-08-28T17:53:14Z</time>
  <course>199.35</course>
  <speed>0.1</speed>
  <fix>3d</fix>
</trkpt>
<trkpt lat="40.0713763" lon="-105.2296805">
  <ele>1582.98</ele>
  <time>2026-08-28T17:53:14Z</time>
  <course>201.27</course>
  <speed>0.18867962264113206</speed>
  <fix>3d</fix>
</trkpt>
<trkpt lat="40.0713761" lon="-105.2296803">
  <ele>1583.0</ele>
  <time>2026-08-28T17:53:14Z</time>
  <course>199.35</course>
  <speed>0.1</speed>
  <fix>3d</fix>
</trkpt>
<trkpt lat="40.0713761" lon="-105.2296806">
  <ele>1582.97</ele>
  <time>2026-08-28T17:53:14Z</time>
  <course>202.81</course>
  <speed>0.2692582403567252</speed>
  <fix>3d</fix>
</trkpt>
<trkpt lat="40.071376" lon="-105.2296805">
  <ele>1583.0</ele>
  <time>2026-08-28T17:53:14Z</time>
  <course>201.21</course>
  <speed>0.23</speed>
  <fix>3d</fix>
</trkpt>
<trkpt lat="40.0713758" lon="-105.2296808">
  <ele>1582.97</ele>
  <time>2026-08-28T17:53:14Z</time>
  <course>204.71</course>
  <speed>0.34132096331752027</speed>
  <fix>3d</fix>
</trkpt>
<trkpt lat="40.071376" lon="-105.2296805">
  <ele>1583.0</ele>
  <time>2026-08-28T17:53:14Z</time>
  <course>201.21</course>
  <speed>0.23</speed>
  <fix>3d</fix>
</trkpt>
<trkpt lat="40.0713755" lon="-105.229681">
  <ele>1582.97</ele>
  <time>2026-08-28T17:53:14Z</time>
  <course>206.9</course>
  <speed>0.4049691346263317</speed>
  <fix>3d</fix>
</trkpt>
<trkpt lat="40.071376" lon="-105.2296805">
  <ele>1583.0</ele>
  <time>2026-08-28T17:53:14Z</time>
  <course>201.21</course>
  <speed>0.23</speed>
  <fix>3d</fix>
</trkpt>
<trkpt lat="40.0713751" lon="-105.2296813">
  <ele>1582.97</ele>
  <time>2026-08-28T17:53:14Z</time>
  <course>209.26</course>
  <speed>0.4801041553663121</speed>
  <fix>3d</fix>
</trkpt>
<trkpt lat="40.0713754" lon="-105.2296808">
  <ele>1583.0</ele>
  <time>2026-08-28T17:53:14Z</time>
  <course>204.58</course>
  <speed>0.37</speed>
  <fix>3d</fix>
</trkpt>
<trkpt lat="40.0713747" lon="-105.2296817">
  <ele>1582.97</ele>
  <time>2026-08-28T17:53:14Z</time>
  <course>212.04</course>
  <speed>0.55</speed>
  <fix>3d</fix>
</trkpt>
<trkpt lat="40.0713754" lon="-105.2296808">
  <ele>1583.0</ele>
  <time>2026-08-28T17:53:14Z</time>
  <course>204.58</course>
  <speed>0.37</speed>
  <fix>3d</fix>
</trkpt>
<trkpt lat="40.0713742" lon="-105.2296821">
  <ele>1582.97</ele>
  <time>2026-08-28T17:53:14Z</time>
  <course>215.39</course>
  <speed>0.6248199740725323</speed>
  <fix>3d</fix>
</trkpt>
<trkpt lat="40.0713746" lon="-105.2296812">
  <ele>1583.0</ele>
  <time>2026-08-28T17:53:14Z</time>
  <course>209.16</course>
  <speed>0.51</speed>
  <fix>3d</fix>
</trkpt>
<trkpt lat="40.0713737" lon="-105.2296826">
  <ele>1582.98</ele>
  <time>2026-08-28T17:53:14Z</time>
  <course>219.33</course>
  <speed>0.7072481884034769</speed>
  <fix>3d</fix>
</trkpt>
<trkpt lat="40.0713746" lon="-105.2296812">
  <ele>1583.0</ele>
  <time>2026-08-28T17:53:14Z</time>
  <course>209.16</course>
  <speed>0.51</speed>
  <fix>3d</fix>
</trkpt>
<trkpt lat="40.0713732" lon="-105.2296832">
  <ele>1582.98</ele>
  <time>2026-08-28T17:53:14Z</time>
  <course>223.83</course>
  <speed>0.7856844150166147</speed>
  <fix>3d</fix>
</trkpt>
<trkpt lat="40.0713738" lon="-105.2296819">
  <ele>1583.0</ele>
  <time>2026-08-28T17:53:14Z</time>
  <course>215.44</course>
  <speed>0.64</speed>
  <fix>3d</fix>
</trkpt>
<trkpt lat="40.0713726" lon="-105.229684">
  <ele>1582.99</ele>
  <time>2026-08-28T17:53:14Z</time>
  <course>228.9</course>
  <speed>0.8700574693662483</speed>
  <fix>3d</fix>
</trkpt>
<trkpt lat="40.0713728" lon="-105.229683">
  <ele>1583.0</ele>
  <time>2026-08-28T17:53:14Z</time>
  <course>223.94</course>
  <speed>0.79</speed>
  <fix>3d</fix>
</trkpt>
<trkpt lat="40.0713721" lon="-105.2296849">
  <ele>1582.99</ele>
  <time>2026-08-28T17:53:14Z</time>
  <course>234.1</course>
  <speed>0.9625487000666512</speed>
  <fix>3d</fix>
</trkpt>
<trkpt lat="40.0713728" lon="-105.229683">
  <ele>1583.0</ele>
  <time>2026-08-28T17:53:14Z</time>
  <course>223.94</course>
  <speed>0.79</speed>
  <fix>3d</fix>
</trkpt>
<trkpt lat="40.0713716" lon="-105.2296859">
  <ele>1583.0</ele>
  <time>2026-08-28T17:53:14Z</time>
  <course>239.16</course>
  <speed>1.0647065323364933</speed>
  <fix>3d</fix>
</trkpt>
<trkpt lat="40.0713717" lon="-105.2296846">
  <ele>1583.0</ele>
  <time>2026-08-28T17:53:14Z</time>
  <course>233.84</course>
  <speed>0.95</speed>
  <fix>3d</fix>
</trkpt>
<trkpt lat="40.0713711" lon="-105.2296871">
  <ele>1583.0</ele>
  <time>2026-08-28T17:53:14Z</time>
  <course>243.53</course>
  <speed>1.1595257651298656</speed>
  <fix>3d</fix>
</trkpt>
<trkpt lat="40.0713717" lon="-105.2296846">
  <ele>1583.0</ele>
  <time>2026-08-28T17:53:14Z</time>
  <course>233.84</course>
  <speed>0.95</speed>
  <fix>3d</fix>
</trkpt>
<trkpt lat="40.0713706" lon="-105.2296884">
  <ele>1583.0</ele>
  <time>2026-08-28T17:53:14Z</time>
  <course>247.21</course>
  <speed>1.2687395319765205</speed>
  <fix>3d</fix>
</trkpt>
<trkpt lat="40.0713708" lon="-105.2296867">
  <ele>1583.0</ele>
  <time>2026-08-28T17:53:14Z</time>
  <course>242.87</course>
  <speed>1.14</speed>
  <fix>3d</fix>
</trkpt>
<trkpt lat="40.0713702" lon="-105.2296899">
  <ele>1583.01</ele>
  <time>2026-08-28T17:53:14Z</time>
  <course>250.37</course>
  <speed>1.3726616480400406</speed>
  <fix>3d</fix>
</trkpt>
<trkpt lat="40.0713708" lon="-105.2296867">
  <ele>1583.0</ele>
  <time>2026-08-28T17:53:14Z</time>
  <course>242.87</course>
  <speed>1.14</speed>
  <fix>3d</fix>
</trkpt>
<trkpt lat="40.0713698" lon="-105.2296915">
  <ele>1583.01</ele>
  <time>2026-08-28T17:53:14Z</time>
  <course>253.08</course>
  <speed>1.4822280526288794</speed>
  <fix>3d</fix>
</trkpt>
<trkpt lat="40.0713699" lon="-105.2296894">
  <ele>1583.0</ele>
  <time>2026-08-28T17:53:14Z</time>
  <course>249.72</course>
  <speed>1.34</speed>
  <fix>3d</fix>
</trkpt>
<trkpt lat="40.0713694" lon="-105.2296932">
  <ele>1583.01</ele>
  <time>2026-08-28T17:53:14Z</time>
  <course>255.44</course>
  <speed>1.591257364476281</speed>
  <fix>3d</fix>
</trkpt>
<trkpt lat="40.0713699" lon="-105.2296894">
  <ele>1583.0</ele>
  <time>2026-08-28T17:53:14Z</time>
  <course>249.72</course>
  <speed>1.34</speed>
  <fix>3d</fix>
</trkpt>
<trkpt lat="40.0713691" lon="-105.2296952">
  <ele>1583.01</ele>
  <time>2026-08-28T17:53:14Z</time>
  <course>257.52</course>
  <speed>1.6924833824885843</speed>
  <fix>3d</fix>
</trkpt>
<trkpt lat="40.0713691" lon="-105.2296926">
  <ele>1583.0</ele>
  <time>2026-08-28T17:53:14Z</time>
  <course>254.78</course>
  <speed>1.55</speed>
  <fix>3d</fix>
</trkpt>
<trkpt lat="40.0713687" lon="-105.2296972">
  <ele>1583.01</ele>
  <time>2026-08-28T17:53:14Z</time>
  <course>259.26</course>
  <speed>1.7952437160452615</speed>
  <fix>3d</fix>
</trkpt>
<trkpt lat="40.0713691" lon="-105.2296926">
  <ele>1583.0</ele>
  <time>2026-08-28T17:53:14Z</time>
  <course>254.78</course>
  <speed>1.55</speed>
  <fix>3d</fix>
</trkpt>
<trkpt lat="40.0713684" lon="-105.2296993">
  <ele>1583.01</ele>
  <time>2026-08-28T17:53:14Z</time>
  <course>260.75</course>
  <speed>1.8992893407798612</speed>
  <fix>3d</fix>
</trkpt>
<trkpt lat="40.0713684" lon="-105.2296964">
  <ele>1583.0</ele>
  <time>2026-08-28T17:53:14Z</time>
  <course>258.56</course>
  <speed>1.75</speed>
  <fix>3d</fix>
</trkpt>
<trkpt lat="40.0713681" lon="-105.2297016">
  <ele>1583.01</ele>
  <time>2026-08-28T17:53:14Z</time>
  <course>262.01</course>
  <speed>2.005642041840966</speed>
  <fix>3d</fix>
</trkpt>
<trkpt lat="40.0713684" lon="-105.2296964">
  <ele>1583.0</ele>
  <time>2026-08-28T17:53:14Z</time>
  <course>258.56</course>
  <speed>1.75</speed>
  <fix>3d</fix>
</trkpt>
<trkpt lat="40.0713679" lon="-105.229704">
  <ele>1583.01</ele>
  <time>2026-08-28T17:53:14Z</time>
  <course>263.1</course>
  <speed>2.111492363235065</speed>
  <fix>3d</fix>
</trkpt>
<trkpt lat="40.0713679" lon="-105.2297007">
  <ele>1583.0</ele>
  <time>2026-08-28T17:53:14Z</time>
  <course>261.33</course>
  <speed>1.95</speed>
  <fix>3d</fix>
</trkpt>
<trkpt lat="40.0713677" lon="-105.2297065">
  <ele>1583.02</ele>
  <time>2026-08-28T17:53:14Z</time>
  <course>264.02</course>
  <speed>2.2190313201935656</speed>
  <fix>3d</fix>
</trkpt>
<trkpt lat="40.0713679" lon="-105.2297007">
  <ele>1583.0</ele>
  <time>2026-08-28T17:53:14Z</time>
  <course>261.33</course>
  <speed>1.95</speed>
  <fix>3d</fix>
</trkpt>
<trkpt lat="40.0713674" lon="-105.2297092">
  <ele>1583.02</ele>
  <time>2026-08-28T17:53:14Z</time>
  <course>264.8</course>
  <speed>2.3178006816808043</speed>
  <fix>3d</fix>
</trkpt>
<trkpt lat="40.0713679" lon="-105.2297007">
  <ele>1583.0</ele>
  <time>2026-08-28T17:53:14Z</time>
  <course>261.33</course>
  <speed>1.95</speed>
  <fix>3d</fix>
</trkpt>
<trkpt lat="40.0713672" lon="-105.2297119">
  <ele>1583.02</ele>
  <time>2026-08-28T17:53:14Z</time>
  <course>265.47</course>
  <speed>2.425963726027246</speed>
  <fix>3d</fix>
</trkpt>
<trkpt lat="40.0713674" lon="-105.2297055">
  <ele>1583.0</ele>
  <time>2026-08-28T17:53:14Z</time>
  <course>263.34</course>
  <speed>2.16</speed>
  <fix>3d</fix>
</trkpt>
<trkpt lat="40.0713671" lon="-105.2297148">
  <ele>1583.01</ele>
  <time>2026-08-28T17:53:14Z</time>
  <course>266.07</course>
  <speed>2.534442739538615</speed>
  <fix>3d</fix>
</trkpt>
<trkpt lat="40.0713674" lon="-105.2297055">
  <ele>1583.0</ele>
  <time>2026-08-28T17:53:14Z</time>
  <course>263.34</course>
  <speed>2.16</speed>
  <fix>3d</fix>
</trkpt>
<trkpt lat="40.0713669" lon="-105.2297178">
  <ele>1583.01</ele>
  <time>2026-08-28T17:53:14Z</time>
  <course>266.59</course>
  <speed>2.623737791777219</speed>
  <fix>3d</fix>
</trkpt>
<trkpt lat="40.0713669" lon="-105.2297108">
  <ele>1583.0</ele>
  <time>2026-08-28T17:53:14Z</time>
  <course>264.82</course>
  <speed>2.37</speed>
  <fix>3d</fix>
</trkpt>
<trkpt lat="40.0713667" lon="-105.2297209">
  <ele>1583.01</ele>
  <time>2026-08-28T17:53:14Z</time>
  <course>267.07</course>
  <speed>2.713116289435453</speed>
  <fix>3d</fix>
</trkpt>
<trkpt lat="40.0713669" lon="-105.2297108">
  <ele>1583.0</ele>
  <time>2026-08-28T17:53:14Z</time>
  <course>264.82</course>
  <speed>2.37</speed>
  <fix>3d</fix>
</trkpt>
<trkpt lat="40.0713666" lon="-105.229724">
  <ele>1583.01</ele>
  <time>2026-08-28T17:53:14Z</time>
  <course>267.5</course>
  <speed>2.7921676167450977</speed>
  <fix>3d</fix>
</trkpt>
<trkpt lat="40.0713666" lon="-105.2297166">
  <ele>1583.0</ele>
  <time>2026-08-28T17:53:14Z</time>
  <course>265.96</course>
  <speed>2.57</speed>
  <fix>3d</fix>
</trkpt>
<trkpt lat="40.0713665" lon="-105.2297273">
  <ele>1583.01</ele>
  <time>2026-08-28T17:53:14Z</time>
  <course>267.89</course>
  <speed>2.8517538463198395</speed>
  <fix>3d</fix>
</trkpt>
<trkpt lat="40.0713666" lon="-105.2297166">
  <ele>1583.0</ele>
  <time>2026-08-28T17:53:14Z</time>
  <course>265.96</course>
  <speed>2.57</speed>
  <fix>3d</fix>
</trkpt>
<trkpt lat="40.0713663" lon="-105.2297306">
  <ele>1583.0</ele>
  <time>2026-08-28T17:53:14Z</time>
  <course>268.26</course>
  <speed>2.901103238424996</speed>
  <fix>3d</fix>
</trkpt>
<trkpt lat="40.0713663" lon="-105.2297228">
  <ele>1583.0</ele>
  <time>2026-08-28T17:53:14Z</time>
  <course>266.87</course>
  <speed>2.73</speed>
  <fix>3d</fix>
</trkpt>
<trkpt lat="40.0713662" lon="-105.229734">
  <ele>1583.0</ele>
  <time>2026-08-28T17:53:14Z</time>
  <course>268.6</course>
  <speed>2.940833215264001</speed>
  <fix>3d</fix>
</trkpt>
<trkpt lat="40.0713661" lon="-105.2297294">
  <ele>1583.0</ele>
  <time>2026-08-28T17:53:14Z</time>
  <course>267.64</course>
  <speed>2.85</speed>
  <fix>3d</fix>
</trkpt>
<trkpt lat="40.0713661" lon="-105.2297375">
  <ele>1583.0</ele>
  <time>2026-08-28T17:53:14Z</time>
  <course>268.92</course>
  <speed>2.970420845604205</speed>
  <fix>3d</fix>
</trkpt>
<trkpt lat="40.0713661" lon="-105.2297294">
  <ele>1583.0</ele>
  <time>2026-08-28T17:53:14Z</time>
  <course>267.64</course>
  <speed>2.85</speed>
  <fix>3d</fix>
</trkpt>
<trkpt lat="40.0713661" lon="-105.2297409">
  <ele>1582.99</ele>
  <time>2026-08-28T17:53:14Z</time>
  <course>269.24</course>
  <speed>2.9802684442848433</speed>
  <fix>3d</fix>
</trkpt>
<trkpt lat="40.0713659" lon="-105.2297362">
  <ele>1583.0</ele>
  <time>2026-08-28T17:53:14Z</time>
  <course>268.32</course>
  <speed>2.92</speed>
  <fix>3d</fix>
</trkpt>
<trkpt lat="40.071366" lon="-105.2297444">
  <ele>1582.99</ele>
  <time>2026-08-28T17:53:14Z</time>
  <course>269.55</course>
  <speed>2.9700673393039425</speed>
  <fix>3d</fix>
</trkpt>
<trkpt lat="40.0713659" lon="-105.2297362">
  <ele>1583.0</ele>
  <time>2026-08-28T17:53:14Z</time>
  <course>268.32</course>
  <speed>2.92</speed>
  <fix>3d</fix>
</trkpt>
<trkpt lat="40.071366" lon="-105.2297478">
  <ele>1582.99</ele>
  <time>2026-08-28T17:53:14Z</time>
  <course>269.87</course>
  <speed>2.950016949103852</speed>
  <fix>3d</fix>
</trkpt>
<trkpt lat="40.0713658" lon="-105.2297431">
  <ele>1583.0</ele>
  <time>2026-08-28T17:53:14Z</time>
  <course>268.95</course>
  <speed>2.92</speed>
  <fix>3d</fix>
</trkpt>
<trkpt lat="40.0713659" lon="-105.2297513">
  <ele>1582.99</ele>
  <time>2026-08-28T17:53:14Z</time>
  <course>270.18</course>
  <speed>2.91</speed>
  <fix>3d</fix>
</trkpt>
<trkpt lat="40.0713658" lon="-105.2297431">
  <ele>1583.0</ele>
  <time>2026-08-28T17:53:14Z</time>
  <course>268.95</course>
  <speed>2.92</speed>
  <fix>3d</fix>
</trkpt>
<trkpt lat="40.0713659" lon="-105.2297546">
  <ele>1582.99</ele>
  <time>2026-08-28T17:53:14Z</time>
  <course>270.5</course>
  <speed>2.860017482464049</speed>
  <fix>3d</fix>
</trkpt>
<trkpt lat="40.0713657" lon="-105.2297499">
  <ele>1583.0</ele>
  <time>2026-08-28T17:53:14Z</time>
  <course>269.59</course>
  <speed>2.87</speed>
  <fix>3d</fix>
</trkpt>
<trkpt lat="40.0713659" lon="-105.229758">
  <ele>1582.99</ele>
  <time>2026-08-28T17:53:14Z</time>
  <course>270.84</course>
  <speed>2.790071683666927</speed>
  <fix>3d</fix>
</trkpt>
<trkpt lat="40.0713657" lon="-105.2297499">
  <ele>1583.0</ele>
  <time>2026-08-28T17:53:14Z</time>
  <course>269.59</course>
  <speed>2.87</speed>
  <fix>3d</fix>
</trkpt>
<trkpt lat="40.0713659" lon="-105.2297612">
  <ele>1582.99</ele>
  <time>2026-08-28T17:53:14Z</time>
  <course>271.2</course>
  <speed>2.7102951868754075</speed>
  <fix>3d</fix>
</trkpt>
<trkpt lat="40.0713657" lon="-105.2297565">
  <ele>1583.0</ele>
  <time>2026-08-28T17:53:14Z</time>
  <course>270.25</course>
  <speed>2.75</speed>
  <fix>3d</fix>
</trkpt>
<trkpt lat="40.071366" lon="-105.2297643">
  <ele>1582.99</ele>
  <time>2026-08-28T17:53:14Z</time>
  <course>271.61</course>
  <speed>2.6104788832702708</speed>
  <fix>3d</fix>
</trkpt>
<trkpt lat="40.0713657" lon="-105.2297565">
  <ele>1583.0</ele>
  <time>2026-08-28T17:53:14Z</time>
  <course>270.25</course>
  <speed>2.75</speed>
  <fix>3d</fix>
</trkpt>
<trkpt lat="40.0713659" lon="-105.2297672">
  <ele>1583.0</ele>
  <time>2026-08-28T17:53:14Z</time>
  <course>272.03</course>
  <speed>2.5009798079952588</speed>
  <fix>3d</fix>
</trkpt>
<trkpt lat="40.0713657" lon="-105.2297628">
  <ele>1583.0</ele>
  <time>2026-08-28T17:53:14Z</time>
  <course>271.01</course>
  <speed>2.57</speed>
  <fix>3d</fix>
</trkpt>
<trkpt lat="40.071366" lon="-105.2297701">
  <ele>1583.0</ele>
  <time>2026-08-28T17:53:14Z</time>
  <course>272.47</course>
  <speed>2.3813441582434067</speed>
  <fix>3d</fix>
</trkpt>
<trkpt lat="40.0713657" lon="-105.2297628">
  <ele>1583.0</ele>
  <time>2026-08-28T17:53:14Z</time>
  <course>271.01</course>
  <speed>2.57</speed>
  <fix>3d</fix>
</trkpt>
<trkpt lat="40.071366" lon="-105.2297727">
  <ele>1583.0</ele>
  <time>2026-08-28T17:53:14Z</time>
  <course>272.95</course>
  <speed>2.2517992805754248</speed>
  <fix>3d</fix>
</trkpt>
<trkpt lat="40.0713657" lon="-105.2297686">
  <ele>1583.0</ele>
  <time>2026-08-28T17:53:14Z</time>
  <course>271.89</course>
  <speed>2.35</speed>
  <fix>3d</fix>
</trkpt>
<trkpt lat="40.0713661" lon="-105.2297752">
  <ele>1583.0</ele>
  <time>2026-08-28T17:53:14Z</time>
  <course>273.47</course>
  <speed>2.1128653530218156</speed>
  <fix>3d</fix>
</trkpt>
<trkpt lat="40.0713657" lon="-105.2297686">
  <ele>1583.0</ele>
  <time>2026-08-28T17:53:14Z</time>
  <course>271.89</course>
  <speed>2.35</speed>
  <fix>3d</fix>
</trkpt>
<trkpt lat="40.0713662" lon="-105.2297776">
  <ele>1583.0</ele>
  <time>2026-08-28T17:53:14Z</time>
  <course>274.03</course>
  <speed>1.9736514383244068</speed>
  <fix>3d</fix>
</trkpt>
<trkpt lat="40.0713657" lon="-105.2297686">
  <ele>1583.0</ele>
  <time>2026-08-28T17:53:14Z</time>
  <course>271.89</course>
  <speed>2.35</speed>
  <fix>3d</fix>
</trkpt>
<trkpt lat="40.0713663" lon="-105.2297797">
  <ele>1583.01</ele>
  <time>2026-08-28T17:53:14Z</time>
  <course>274.65</course>
  <speed>1.8239517537478889</speed>
  <fix>3d</fix>
</trkpt>
<trkpt lat="40.071366" lon="-105.2297738">
  <ele>1583.0</ele>
  <time>2026-08-28T17:53:14Z</time>
  <course>272.88</course>
  <speed>2.09</speed>
  <fix>3d</fix>
</trkpt>
<trkpt lat="40.0713664" lon="-105.2297817">
  <ele>1583.01</ele>
  <time>2026-08-28T17:53:14Z</time>
  <course>275.34</course>
  <speed>1.6750522379914006</speed>
  <fix>3d</fix>
</trkpt>
<trkpt lat="40.071366" lon="-105.2297738">
  <ele>1583.0</ele>
  <time>2026-08-28T17:53:14Z</time>
  <course>272.88</course>
  <speed>2.09</speed>
  <fix>3d</fix>
</trkpt>
<trkpt lat="40.0713665" lon="-105.2297835">
  <ele>1583.01</ele>
  <time>2026-08-28T17:53:14Z</time>
  <course>276.12</course>
  <speed>1.5264337522473748</speed>
  <fix>3d</fix>
</trkpt>
<trkpt lat="40.0713662" lon="-105.2297784">
  <ele>1583.0</ele>
  <time>2026-08-28T17:53:14Z</time>
  <course>274.07</course>
  <speed>1.81</speed>
  <fix>3d</fix>
</trkpt>
<trkpt lat="40.0713666" lon="-105.2297851">
  <ele>1583.01</ele>
  <time>2026-08-28T17:53:14Z</time>
  <course>277.01</course>
  <speed>1.3771347065556077</speed>
  <fix>3d</fix>
</trkpt>
<trkpt lat="40.0713662" lon="-105.2297784">
  <ele>1583.0</ele>
  <time>2026-08-28T17:53:14Z</time>
  <course>274.07</course>
  <speed>1.81</speed>
  <fix>3d</fix>
</trkpt>
<trkpt lat="40.0713667" lon="-105.2297866">
  <ele>1583.0</ele>
  <time>2026-08-28T17:53:14Z</time>
  <course>278.06</course>
  <speed>1.229186723000212</speed>
  <fix>3d</fix>
</trkpt>
<trkpt lat="40.0713664" lon="-105.2297823">
  <ele>1583.0</ele>
  <time>2026-08-28T17:53:14Z</time>
  <course>275.53</course>
  <speed>1.52</speed>
  <fix>3d</fix>
</trkpt>
<trkpt lat="40.0713669" lon="-105.2297878">
  <ele>1583.0</ele>
  <time>2026-08-28T17:53:14Z</time>
  <course>279.28</course>
  <speed>1.0804628637764464</speed>
  <fix>3d</fix>
</trkpt>
<trkpt lat="40.0713667" lon="-105.2297855">
  <ele>1583.0</ele>
  <time>2026-08-28T17:53:14Z</time>
  <course>277.45</course>
  <speed>1.23</speed>
  <fix>3d</fix>
</trkpt>
<trkpt lat="40.071367" lon="-105.2297889">
  <ele>1583.0</ele>
  <time>2026-08-28T17:53:14Z</time>
  <course>280.59</course>
  <speed>0.932148056909416</speed>
  <fix>3d</fix>
</trkpt>
<trkpt lat="40.0713667" lon="-105.2297855">
  <ele>1583.0</ele>
  <time>2026-08-28T17:53:14Z</time>
  <course>277.45</course>
  <speed>1.23</speed>
  <fix>3d</fix>
</trkpt>
<trkpt lat="40.0713672" lon="-105.2297899">
  <ele>1583.0</ele>
  <time>2026-08-28T17:53:14Z</time>
  <course>281.87</course>
  <speed>0.792464510246358</speed>
  <fix>3d</fix>
</trkpt>
<trkpt lat="40.0713669" lon="-105.2297881">
  <ele>1583.0</ele>
  <time>2026-08-28T17:53:14Z</time>
  <course>279.82</course>
  <speed>0.95</speed>
  <fix>3d</fix>
</trkpt>
<trkpt lat="40.0713673" lon="-105.2297906">
  <ele>1583.0</ele>
  <time>2026-08-28T17:53:14Z</time>
  <course>283.06</course>
  <speed>0.6530696746902278</speed>
  <fix>3d</fix>
</trkpt>
<trkpt lat="40.0713669" lon="-105.2297881">
  <ele>1583.0</ele>
  <time>2026-08-28T17:53:14Z</time>
  <course>279.82</course>
  <speed>0.95</speed>
  <fix>3d</fix>
</trkpt>
<trkpt lat="40.0713674" lon="-105.2297913">
  <ele>1583.01</ele>
  <time>2026-08-28T17:53:14Z</time>
  <course>284.09</course>
  <speed>0.5217278984298233</speed>
  <fix>3d</fix>
</trkpt>
<trkpt lat="40.0713672" lon="-105.22979">
  <ele>1583.0</ele>
  <time>2026-08-28T17:53:14Z</time>
  <course>282.21</course>
  <speed>0.68</speed>
  <fix>3d</fix>
</trkpt>
<trkpt lat="40.0713675" lon="-105.2297917">
  <ele>1583.01</ele>
  <time>2026-08-28T17:53:14Z</time>
  <course>284.92</course>
  <speed>0.3905124837953327</speed>
  <fix>3d</fix>
</trkpt>
<trkpt lat="40.0713672" lon="-105.22979">
  <ele>1583.0</ele>
  <time>2026-08-28T17:53:14Z</time>
  <course>282.21</course>
  <speed>0.68</speed>
  <fix>3d</fix>
</trkpt>
<trkpt lat="40.0713675" lon="-105.2297921">
  <ele>1583.0</ele>
  <time>2026-08-28T17:53:14Z</time>
  <course>285.53</course>
  <speed>0.2570992026436488</speed>
  <fix>3d</fix>
</trkpt>
<trkpt lat="40.0713674" lon="-105.2297912">
  <ele>1583.0</ele>
  <time>2026-08-28T17:53:14Z</time>
  <course>284.05</course>
  <speed>0.42</speed>
  <fix>3d</fix>
</trkpt>
<trkpt lat="40.0713676" lon="-105.2297923">
  <ele>1583.0</ele>
  <time>2026-08-28T17:53:14Z</time>
  <course>285.94</course>
  <speed>0.14317821063276354</speed>
  <fix>3d</fix>
</trkpt>
<trkpt lat="40.0713674" lon="-105.2297912">
  <ele>1583.0</ele>
  <time>2026-08-28T17:53:14Z</time>
  <course>284.05</course>
  <speed>0.42</speed>
  <fix>3d</fix>
</trkpt>
<trkpt lat="40.0713676" lon="-105.2297923">
  <ele>1583.0</ele>
  <time>2026-08-28T17:53:14Z</time>
  <course>286.16</course>
  <speed>0.04</speed>
  <fix>3d</fix>
</trkpt>
<trkpt lat="40.0713676" lon="-105.2297919">
  <ele>1583.0</ele>
  <time>2026-08-28T17:53:14Z</time>
  <course>285.11</course>
  <speed>0.19</speed>
  <fix>3d</fix>
</trkpt>
<trkpt lat="40.0713676" lon="-105.2297923">
  <ele>1583.0</ele>
  <time>2026-08-28T17:53:14Z</time>
  <course>286.21</course>
  <speed>0.0412310562561766</speed>
  <fix>3d</fix>
</trkpt>
<trkpt lat="40.0713676" lon="-105.2297919">
  <ele>1583.0</ele>
  <time>2026-08-28T17:53:14Z</time>
  <course>285.11</course>
  <speed>0.19</speed>
  <fix>3d</fix>
</trkpt>
<trkpt lat="40.0713676" lon="-105.2297923">
  <ele>1583.0</ele>
  <time>2026-08-28T17:53:14Z</time>
  <course>286.27</course>
  <speed>0.11401754250991379</speed>
  <fix>3d</fix>
</trkpt>
<trkpt lat="40.0713676" lon="-105.2297921">
  <ele>1583.0</ele>
  <time>2026-08-28T17:53:14Z</time>
  <course>284.94</course>
  <speed>0.0</speed>
  <fix>3d</fix>
</trkpt>
<trkpt lat="40.0713676" lon="-105.2297921">
  <ele>1583.0</ele>
  <time>2026-08-28T17:53:14Z</time>
  <course>286.43</course>
  <speed>0.1772004514666935</speed>
  <fix>3d</fix>
</trkpt>
<trkpt lat="40.0713676" lon="-105.2297921">
  <ele>1583.0</ele>
  <time>2026-08-28T17:53:14Z</time>
  <course>284.94</course>
  <speed>0.0</speed>
  <fix>3d</fix>
</trkpt>
<trkpt lat="40.0713676" lon="-105.2297918">
  <ele>1583.0</ele>
  <time>2026-08-28T17:53:14Z</time>
  <course>286.66</course>
  <speed>0.22803508501982758</speed>
  <fix>3d</fix>
</trkpt>
<trkpt lat="40.0713676" lon="-105.229792">
  <ele>1583.0</ele>
  <time>2026-08-28T17:53:14Z</time>
  <course>105.96</course>
  <speed>0.12</speed>
  <fix>3d</fix>
</trkpt>
<trkpt lat="40.0713675" lon="-105.2297915">
  <ele>1583.0</ele>
  <time>2026-08-28T17:53:14Z</time>
  <course>286.93</course>
  <speed>0.2596150997149434</speed>
  <fix>3d</fix>
</trkpt>
<trkpt lat="40.0713676" lon="-105.229792">
  <ele>1583.0</ele>
  <time>2026-08-28T17:53:14Z</time>
  <course>105.96</course>
  <speed>0.12</speed>
  <fix>3d</fix>
</trkpt>
<trkpt lat="40.0713674" lon="-105.2297912">
  <ele>1582.99</ele>
  <time>2026-08-28T17:53:14Z</time>
  <course>287.23</course>
  <speed>0.29120439557122074</speed>
  <fix>3d</fix>
</trkpt>
<trkpt lat="40.0713676" lon="-105.229792">
  <ele>1583.0</ele>
  <time>2026-08-28T17:53:14Z</time>
  <course>105.96</course>
  <speed>0.12</speed>
  <fix>3d</fix>
</trkpt>
<trkpt lat="40.0713674" lon="-105.2297909">
  <ele>1582.99</ele>
  <time>2026-08-28T17:53:14Z</time>
  <course>287.54</course>
  <speed>0.30083217912982646</speed>
  <fix>3d</fix>
</trkpt>
<trkpt lat="40.0713675" lon="-105.2297916">
  <ele>1583.0</ele>
  <time>2026-08-28T17:53:14Z</time>
  <course>106.4</course>
  <speed>0.2</speed>
  <fix>3d</fix>
</trkpt>
<trkpt lat="40.0713673" lon="-105.2297905">
  <ele>1582.99</ele>
  <time>2026-08-28T17:53:14Z</time>
  <course>287.92</course>
  <speed>0.30083217912982646</speed>
  <fix>3d</fix>
</trkpt>
<trkpt lat="40.0713675" lon="-105.2297916">
  <ele>1583.0</ele>
  <time>2026-08-28T17:53:14Z</time>
  <course>106.4</course>
  <speed>0.2</speed>
  <fix>3d</fix>
</trkpt>
<trkpt lat="40.0713672" lon="-105.2297902">
  <ele>1582.99</ele>
  <time>2026-08-28T17:53:14Z</time>
  <course>288.43</course>
  <speed>0.2816025568065745</speed>
  <fix>3d</fix>
</trkpt>
<trkpt lat="40.0713675" lon="-105.2297911">
  <ele>1583.0</ele>
  <time>2026-08-28T17:53:14Z</time>
  <course>107.0</course>
  <speed>0.24</speed>
  <fix>3d</fix>
</trkpt>
<trkpt lat="40.0713672" lon="-105.2297899">
  <ele>1582.99</ele>
  <time>2026-08-28T17:53:14Z</time>
  <course>289.06</course>
  <speed>0.2692582403567252</speed>
  <fix>3d</fix>
</trkpt>
<trkpt lat="40.0713675" lon="-105.2297911">
  <ele>1583.0</ele>
  <time>2026-08-28T17:53:14Z</time>
  <course>107.0</course>
  <speed>0.24</speed>
  <fix>3d</fix>
</trkpt>
<trkpt lat="40.0713671" lon="-105.2297897">
  <ele>1583.0</ele>
  <time>2026-08-28T17:53:14Z</time>
  <course>289.76</course>
  <speed>0.23769728648009425</speed>
  <fix>3d</fix>
</trkpt>
<trkpt lat="40.0713674" lon="-105.2297906">
  <ele>1583.0</ele>
  <time>2026-08-28T17:53:14Z</time>
  <course>107.87</course>
  <speed>0.23</speed>
  <fix>3d</fix>
</trkpt>
<trkpt lat="40.0713671" lon="-105.2297895">
  <ele>1583.0</ele>
  <time>2026-08-28T17:53:14Z</time>
  <course>290.45</course>
  <speed>0.196468827043885</speed>
  <fix>3d</fix>
</trkpt>
<trkpt lat="40.0713674" lon="-105.2297906">
  <ele>1583.0</ele>
  <time>2026-08-28T17:53:14Z</time>
  <course>107.87</course>
  <speed>0.23</speed>
  <fix>3d</fix>
</trkpt>
<trkpt lat="40.0713671" lon="-105.2297894">
  <ele>1583.0</ele>
  <time>2026-08-28T17:53:14Z</time>
  <course>291.04</course>
  <speed>0.14317821063276354</speed>
  <fix>3d</fix>
</trkpt>
<trkpt lat="40.0713673" lon="-105.2297902">
  <ele>1583.0</ele>
  <time>2026-08-28T17:53:14Z</time>
  <course>109.03</course>
  <speed>0.17</speed>
  <fix>3d</fix>
</trkpt>
<trkpt lat="40.0713671" lon="-105.2297893">
  <ele>1583.0</ele>
  <time>2026-08-28T17:53:14Z</time>
  <course>291.4</course>
  <speed>0.08</speed>
  <fix>3d</fix>
</trkpt>
<trkpt lat="40.0713672" lon="-105.2297898">
  <ele>1583.0</ele>
  <time>2026-08-28T17:53:14Z</time>
  <course>110.03</course>
  <speed>0.08</speed>
  <fix>3d</fix>
</trkpt>
<trkpt lat="40.0713671" lon="-105.2297893">
  <ele>1583.0</ele>
  <time>2026-08-28T17:53:14Z</time>
  <course>291.38</course>
  <speed>0.022360679774997897</speed>
  <fix>3d</fix>
</trkpt>
<trkpt lat="40.0713672" lon="-105.2297898">
  <ele>1583.0</ele>
  <time>2026-08-28T17:53:14Z</time>
  <course>110.03</course>
  <speed>0.08</speed>
  <fix>3d</fix>
</trkpt>
<trkpt lat="40.0713671" lon="-105.2297894">
  <ele>1583.0</ele>
  <time>2026-08-28T17:53:14Z</time>
  <course>291.76</course>
  <speed>0.07810249675906654</speed>
  <fix>3d</fix>
</trkpt>
<trkpt lat="40.0713672" lon="-105.2297898">
  <ele>1583.0</ele>
  <time>2026-08-28T17:53:14Z</time>
  <course>291.32</course>
  <speed>0.04</speed>
  <fix>3d</fix>
</trkpt>
<trkpt lat="40.0713672" lon="-105.2297896">
  <ele>1583.0</ele>
  <time>2026-08-28T17:53:14Z</time>
  <course>292.8</course>
  <speed>0.1664331697709324</speed>
  <fix>3d</fix>
</trkpt>
<trkpt lat="40.0713672" lon="-105.2297898">
  <ele>1583.0</ele>
  <time>2026-08-28T17:53:14Z</time>
  <course>291.32</course>
  <speed>0.04</speed>
  <fix>3d</fix>
</trkpt>
<trkpt lat="40.0713673" lon="-105.2297898">
  <ele>1583.01</ele>
  <time>2026-08-28T17:53:14Z</time>
  <course>294.46</course>
  <speed>0.2692582403567252</speed>
  <fix>3d</fix>
</trkpt>
<trkpt lat="40.0713672" lon="-105.2297901">
  <ele>1583.0</ele>
  <time>2026-08-28T17:53:14Z</time>
  <course>293.13</course>
  <speed>0.21</speed>
  <fix>3d</fix>
</trkpt>
<trkpt lat="40.0713674" lon="-105.2297902">
  <ele>1583.01</ele>
  <time>2026-08-28T17:53:14Z</time>
  <course>296.79</course>
  <speed>0.3858756276314948</speed>
  <fix>3d</fix>
</trkpt>
<trkpt lat="40.0713672" lon="-105.2297901">
  <ele>1583.0</ele>
  <time>2026-08-28T17:53:14Z</time>
  <course>293.13</course>
  <speed>0.21</speed>
  <fix>3d</fix>
</trkpt>
<trkpt lat="40.0713676" lon="-105.2297907">
  <ele>1583.01</ele>
  <time>2026-08-28T17:53:14Z</time>
  <course>299.87</course>
  <speed>0.5047771785649585</speed>
  <fix>3d</fix>
</trkpt>
<trkpt lat="40.0713674" lon="-105.2297907">
  <ele>1583.0</ele>
  <time>2026-08-28T17:53:14Z</time>
  <course>297.3</course>
  <speed>0.42</speed>
  <fix>3d</fix>
</trkpt>
<trkpt lat="40.0713679" lon="-105.2297913">
  <ele>1583.01</ele>
  <time>2026-08-28T17:53:14Z</time>
  <course>303.69</course>
  <speed>0.6420280367709809</speed>
  <fix>3d</fix>
</trkpt>
<trkpt lat="40.0713674" lon="-105.2297907">
  <ele>1583.0</ele>
  <time>2026-08-28T17:53:14Z</time>
  <course>297.3</course>
  <speed>0.42</speed>
  <fix>3d</fix>
</trkpt>
<trkpt lat="40.0713684" lon="-105.229792">
  <ele>1583.01</ele>
  <time>2026-08-28T17:53:14Z</time>
  <course>308.31</course>
  <speed>0.772334124585985</speed>
  <fix>3d</fix>
</trkpt>
<trkpt lat="40.0713679" lon="-105.2297918">
  <ele>1583.0</ele>
  <time>2026-08-28T17:53:14Z</time>
  <course>304.3</course>
  <speed>0.66</speed>
  <fix>3d</fix>
</trkpt>
<trkpt lat="40.0713689" lon="-105.2297928">
  <ele>1583.01</ele>
  <time>2026-08-28T17:53:14Z</time>
  <course>313.75</course>
  <speed>0.9055385138137417</speed>
  <fix>3d</fix>
</trkpt>
<trkpt lat="40.0713679" lon="-105.2297918">
  <ele>1583.0</ele>
  <time>2026-08-28T17:53:14Z</time>
  <course>304.3</course>
  <speed>0.66</speed>
  <fix>3d</fix>
</trkpt>
<trkpt lat="40.0713696" lon="-105.2297937">
  <ele>1583.01</ele>
  <time>2026-08-28T17:53:14Z</time>
  <course>319.92</course>
  <speed>1.0480935072788113</speed>
  <fix>3d</fix>
</trkpt>
<trkpt lat="40.0713688" lon="-105.2297932">
  <ele>1583.0</ele>
  <time>2026-08-28T17:53:14Z</time>
  <course>314.36</course>
  <speed>0.91</speed>
  <fix>3d</fix>
</trkpt>
<trkpt lat="40.0713704" lon="-105.2297945">
  <ele>1583.01</ele>
  <time>2026-08-28T17:53:14Z</time>
  <course>325.51</course>
  <speed>1.1903780911962385</speed>
  <fix>3d</fix>
</trkpt>
<trkpt lat="40.0713688" lon="-105.2297932">
  <ele>1583.0</ele>
  <time>2026-08-28T17:53:14Z</time>
  <course>314.36</course>
  <speed>0.91</speed>
  <fix>3d</fix>
</trkpt>
<trkpt lat="40.0713714" lon="-105.2297953">
  <ele>1583.01</ele>
  <time>2026-08-28T17:53:14Z</time>
  <course>330.35</course>
  <speed>1.3329666162361307</speed>
  <fix>3d</fix>
</trkpt>
<trkpt lat="40.0713703" lon="-105.2297947">
  <ele>1583.0</ele>
  <time>2026-08-28T17:53:14Z</time>
  <course>325.13</course>
  <speed>1.18</speed>
  <fix>3d</fix>
</trkpt>
<trkpt lat="40.0713726" lon="-105.2297961">
  <ele>1583.01</ele>
  <time>2026-08-28T17:53:14Z</time>
  <course>334.57</course>
  <speed>1.473295625460145</speed>
  <fix>3d</fix>
</trkpt>
<trkpt lat="40.0713703" lon="-105.2297947">
  <ele>1583.0</ele>
  <time>2026-08-28T17:53:14Z</time>
  <course>325.13</course>
  <speed>1.18</speed>
  <fix>3d</fix>
</trkpt>
<trkpt lat="40.0713739" lon="-105.2297968">
  <ele>1583.01</ele>
  <time>2026-08-28T17:53:14Z</time>
  <course>338.35</course>
  <speed>1.6070469812671937</speed>
  <fix>3d</fix>
</trkpt>
<trkpt lat="40.0713703" lon="-105.2297947">
  <ele>1583.0</ele>
  <time>2026-08-28T17:53:14Z</time>
  <course>325.13</course>
  <speed>1.18</speed>
  <fix>3d</fix>
</trkpt>
<trkpt lat="40.0713753" lon="-105.2297975">
  <ele>1583.01</ele>
  <time>2026-08-28T17:53:14Z</time>
  <course>341.72</course>
  <speed>1.7240939649566667</speed>
  <fix>3d</fix>
</trkpt>
<trkpt lat="40.0713723" lon="-105.2297963">
  <ele>1583.0</ele>
  <time>2026-08-28T17:53:14Z</time>
  <course>334.13</course>
  <speed>1.45</speed>
  <fix>3d</fix>
</trkpt>
<trkpt lat="40.0713769" lon="-105.2297981">
  <ele>1583.01</ele>
  <time>2026-08-28T17:53:14Z</time>
  <course>344.59</course>
  <speed>1.8360010893242955</speed>
  <fix>3d</fix>
</trkpt>
<trkpt lat="40.0713723" lon="-105.2297963">
  <ele>1583.0</ele>
  <time>2026-08-28T17:53:14Z</time>
  <course>334.13</course>
  <speed>1.45</speed>
  <fix>3d</fix>
</trkpt>
<trkpt lat="40.0713785" lon="-105.2297986">
  <ele>1583.01</ele>
  <time>2026-08-28T17:53:14Z</time>
  <course>347.05</course>
  <speed>1.9514353691577901</speed>
  <fix>3d</fix>
</trkpt>
<trkpt lat="40.0713749" lon="-105.2297977">
  <ele>1583.0</ele>
  <time>2026-08-28T17:53:14Z</time>
  <course>341.1</course>
  <speed>1.69</speed>
  <fix>3d</fix>
</trkpt>
<trkpt lat="40.0713803" lon="-105.2297991">
  <ele>1583.02</ele>
  <time>2026-08-28T17:53:14Z</time>
  <course>349.17</course>
  <speed>2.0599514557387026</speed>
  <fix>3d</fix>
</trkpt>
<trkpt lat="40.0713749" lon="-105.2297977">
  <ele>1583.0</ele>
  <time>2026-08-28T17:53:14Z</time>
  <course>341.1</course>
  <speed>1.69</speed>
  <fix>3d</fix>
</trkpt>
<trkpt lat="40.0713821" lon="-105.2297995">
  <ele>1583.02</ele>
  <time>2026-08-28T17:53:14Z</time>
  <course>350.99</course>
  <speed>2.1623366990364845</speed>
  <fix>3d</fix>
</trkpt>
<trkpt lat="40.071378" lon="-105.2297989">
  <ele>1583.0</ele>
  <time>2026-08-28T17:53:14Z</time>
  <course>346.42</course>
  <speed>1.91</speed>
  <fix>3d</fix>
</trkpt>
<trkpt lat="40.0713841" lon="-105.2297999">
  <ele>1583.01</ele>
  <time>2026-08-28T17:53:14Z</time>
  <course>352.58</course>
  <speed>2.274906591488978</speed>
  <fix>3d</fix>
</trkpt>
<trkpt lat="40.0713816" lon="-105.2297998">
  <ele>1583.0</ele>
  <time>2026-08-28T17:53:14Z</time>
  <course>350.36</course>
  <speed>2.13</speed>
  <fix>3d</fix>
</trkpt>
<trkpt lat="40.0713862" lon="-105.2298002">
  <ele>1583.01</ele>
  <time>2026-08-28T17:53:14Z</time>
  <course>353.94</course>
  <speed>2.38018906812043</speed>
  <fix>3d</fix>
</trkpt>
<trkpt lat="40.0713816" lon="-105.2297998">
  <ele>1583.0</ele>
  <time>2026-08-28T17:53:14Z</time>
  <course>350.36</course>
  <speed>2.13</speed>
  <fix>3d</fix>
</trkpt>
<trkpt lat="40.0713884" lon="-105.2298005">
  <ele>1583.01</ele>
  <time>2026-08-28T17:53:14Z</time>
  <course>355.12</course>
  <speed>2.487267577081324</speed>
  <fix>3d</fix>
</trkpt>
<trkpt lat="40.0713856" lon="-105.2298006">
  <ele>1583.0</ele>
  <time>2026-08-28T17:53:14Z</time>
  <course>353.31</course>
  <speed>2.34</speed>
  <fix>3d</fix>
</trkpt>
<trkpt lat="40.0713906" lon="-105.2298008">
  <ele>1583.01</ele>
  <time>2026-08-28T17:53:14Z</time>
  <course>356.13</course>
  <speed>2.5943399931389104</speed>
  <fix>3d</fix>
</trkpt>
<trkpt lat="40.0713856" lon="-105.2298006">
  <ele>1583.0</ele>
  <time>2026-08-28T17:53:14Z</time>
  <course>353.31</course>
  <speed>2.34</speed>
  <fix>3d</fix>
</trkpt>
<trkpt lat="40.071393" lon="-105.229801">
  <ele>1583.0</ele>
  <time>2026-08-28T17:53:14Z</time>
  <course>357.01</course>
  <speed>2.692675249635574</speed>
  <fix>3d</fix>
</trkpt>
<trkpt lat="40.0713899" lon="-105.2298011">
  <ele>1583.0</ele>
  <time>2026-08-28T17:53:14Z</time>
  <course>355.51</course>
  <speed>2.55</speed>
  <fix>3d</fix>
</trkpt>
<trkpt lat="40.0713955" lon="-105.2298012">
  <ele>1583.0</ele>
  <time>2026-08-28T17:53:14Z</time>
  <course>357.76</course>
  <speed>2.791451235468748</speed>
  <fix>3d</fix>
</trkpt>
<trkpt lat="40.0713899" lon="-105.2298011">
  <ele>1583.0</ele>
  <time>2026-08-28T17:53:14Z</time>
  <course>355.51</course>
  <speed>2.55</speed>
  <fix>3d</fix>
</trkpt>
<trkpt lat="40.0713981" lon="-105.2298013">
  <ele>1583.0</ele>
  <time>2026-08-28T17:53:14Z</time>
  <course>358.41</course>
  <speed>2.9006206232459975</speed>
  <fix>3d</fix>
</trkpt>
<trkpt lat="40.0713947" lon="-105.2298015">
  <ele>1583.0</ele>
  <time>2026-08-28T17:53:14Z</time>
  <course>357.15</course>
  <speed>2.75</speed>
  <fix>3d</fix>
</trkpt>
<trkpt lat="40.0714008" lon="-105.2298014">
  <ele>1582.99</ele>
  <time>2026-08-28T17:53:14Z</time>
  <course>358.97</course>
  <speed>3.000266654815868</speed>
  <fix>3d</fix>
</trkpt>
<trkpt lat="40.0713947" lon="-105.2298015">
  <ele>1583.0</ele>
  <time>2026-08-28T17:53:14Z</time>
  <course>357.15</course>
  <speed>2.75</speed>
  <fix>3d</fix>
</trkpt>
<trkpt lat="40.0714035" lon="-105.2298015">
  <ele>1582.99</ele>
  <time>2026-08-28T17:53:14Z</time>
  <course>359.48</course>
  <speed>3.1000645154577025</speed>
  <fix>3d</fix>
</trkpt>
<trkpt lat="40.0713999" lon="-105.2298017">
  <ele>1583.0</ele>
  <time>2026-08-28T17:53:14Z</time>
  <course>358.38</course>
  <speed>2.95</speed>
  <fix>3d</fix>
</trkpt>
<trkpt lat="40.0714063" lon="-105.2298015">
  <ele>1583.0</ele>
  <time>2026-08-28T17:53:14Z</time>
  <course>359.92</course>
  <speed>3.19</speed>
  <fix>3d</fix>
</trkpt>
<trkpt lat="40.0713999" lon="-105.2298017">
  <ele>1583.0</ele>
  <time>2026-08-28T17:53:14Z</time>
  <course>358.38</course>
  <speed>2.95</speed>
  <fix>3d</fix>
</trkpt>
<trkpt lat="40.0714093" lon="-105.2298015">
  <ele>1583.0</ele>
  <time>2026-08-28T17:53:14Z</time>
  <course>0.31</course>
  <speed>3.2700152904841286</speed>
  <fix>3d</fix>
</trkpt>
<trkpt lat="40.0714054" lon="-105.2298019">
  <ele>1583.0</ele>
  <time>2026-08-28T17:53:14Z</time>
  <course>359.33</course>
  <speed>3.14</speed>
  <fix>3d</fix>
</trkpt>
<trkpt lat="40.0714122" lon="-105.2298016">
  <ele>1583.0</ele>
  <time>2026-08-28T17:53:14Z</time>
  <course>0.68</course>
  <speed>3.330135132393279</speed>
  <fix>3d</fix>
</trkpt>
<trkpt lat="40.0714054" lon="-105.2298019">
  <ele>1583.0</ele>
  <time>2026-08-28T17:53:14Z</time>
  <course>359.33</course>
  <speed>3.14</speed>
  <fix>3d</fix>
</trkpt>
<trkpt lat="40.0714153" lon="-105.2298015">
  <ele>1583.0</ele>
  <time>2026-08-28T17:53:14Z</time>
  <course>1.02</course>
  <speed>3.390368711512068</speed>
  <fix>3d</fix>
</trkpt>
<trkpt lat="40.0714111" lon="-105.2298019">
  <ele>1583.0</ele>
  <time>2026-08-28T17:53:14Z</time>
  <course>0.11</course>
  <speed>3.28</speed>
  <fix>3d</fix>
</trkpt>
<trkpt lat="40.0714183" lon="-105.2298015">
  <ele>1583.0</ele>
  <time>2026-08-28T17:53:14Z</time>
  <course>1.34</course>
  <speed>3.420716299256634</speed>
  <fix>3d</fix>
</trkpt>
<trkpt lat="40.0714111" lon="-105.2298019">
  <ele>1583.0</ele>
  <time>2026-08-28T17:53:14Z</time>
  <course>0.11</course>
  <speed>3.28</speed>
  <fix>3d</fix>
</trkpt>
<trkpt lat="40.0714214" lon="-105.2298014">
  <ele>1583.01</ele>
  <time>2026-08-28T17:53:14Z</time>
  <course>1.63</course>
  <speed>3.4411771241829445</speed>
  <fix>3d</fix>
</trkpt>
<trkpt lat="40.0714111" lon="-105.2298019">
  <ele>1583.0</ele>
  <time>2026-08-28T17:53:14Z</time>
  <course>0.11</course>
  <speed>3.28</speed>
  <fix>3d</fix>
</trkpt>
<trkpt lat="40.0714245" lon="-105.2298014">
  <ele>1583.01</ele>
  <time>2026-08-28T17:53:14Z</time>
  <course>1.91</course>
  <speed>3.4514489710844636</speed>
  <fix>3d</fix>
</trkpt>
<trkpt lat="40.0714171" lon="-105.2298019">
  <ele>1583.0</ele>
  <time>2026-08-28T17:53:14Z</time>
  <course>0.77</course>
  <speed>3.37</speed>
  <fix>3d</fix>
</trkpt>
<trkpt lat="40.0714275" lon="-105.2298013">
  <ele>1583.01</ele>
  <time>2026-08-28T17:53:14Z</time>
  <course>2.18</course>
  <speed>3.4420923869065456</speed>
  <fix>3d</fix>
</trkpt>
<trkpt lat="40.0714171" lon="-105.2298019">
  <ele>1583.0</ele>
  <time>2026-08-28T17:53:14Z</time>
  <course>0.77</course>
  <speed>3.37</speed>
  <fix>3d</fix>
</trkpt>
<trkpt lat="40.0714305" lon="-105.2298012">
  <ele>1583.01</ele>
  <time>2026-08-28T17:53:14Z</time>
  <course>2.45</course>
  <speed>3.412477106150311</speed>
  <fix>3d</fix>
</trkpt>
<trkpt lat="40.0714232" lon="-105.2298018">
  <ele>1583.0</ele>
  <time>2026-08-28T17:53:14Z</time>
  <course>1.35</course>
  <speed>3.4</speed>
  <fix>3d</fix>
</trkpt>
<trkpt lat="40.0714335" lon="-105.2298011">
  <ele>1583.01</ele>
  <time>2026-08-28T17:53:14Z</time>
  <course>2.72</course>
  <speed>3.372906758272455</speed>
  <fix>3d</fix>
</trkpt>
<trkpt lat="40.0714232" lon="-105.2298018">
  <ele>1583.0</ele>
  <time>2026-08-28T17:53:14Z</time>
  <course>1.35</course>
  <speed>3.4</speed>
  <fix>3d</fix>
</trkpt>
<trkpt lat="40.0714365" lon="-105.229801">
  <ele>1583.01</ele>
  <time>2026-08-28T17:53:14Z</time>
  <course>2.99</course>
  <speed>3.313397048347813</speed>
  <fix>3d</fix>
</trkpt>
<trkpt lat="40.0714293" lon="-105.2298016">
  <ele>1583.0</ele>
  <time>2026-08-28T17:53:14Z</time>
  <course>1.9</course>
  <speed>3.36</speed>
  <fix>3d</fix>
</trkpt>
<trkpt lat="40.0714394" lon="-105.2298008">
  <ele>1583.01</ele>
  <time>2026-08-28T17:53:14Z</time>
  <course>3.25</course>
  <speed>3.2439482116704634</speed>
  <fix>3d</fix>
</trkpt>
<trkpt lat="40.0714293" lon="-105.2298016">
  <ele>1583.0</ele>
  <time>2026-08-28T17:53:14Z</time>
  <course>1.9</course>
  <speed>3.36</speed>
  <fix>3d</fix>
</trkpt>
<trkpt lat="40.0714422" lon="-105.2298007">
  <ele>1583.01</ele>
  <time>2026-08-28T17:53:14Z</time>
  <course>3.52</course>
  <speed>3.1545839662307293</speed>
  <fix>3d</fix>
</trkpt>
<trkpt lat="40.0714353" lon="-105.2298013">
  <ele>1583.0</ele>
  <time>2026-08-28T17:53:14Z</time>
  <course>2.44</course>
  <speed>3.27</speed>
  <fix>3d</fix>
</trkpt>
<trkpt lat="40.0714449" lon="-105.2298005">
  <ele>1583.01</ele>
  <time>2026-08-28T17:53:14Z</time>
  <course>3.81</course>
  <speed>3.055306858565928</speed>
  <fix>3d</fix>
</trkpt>
<trkpt lat="40.0714411" lon="-105.229801">
  <ele>1583.0</ele>
  <time>2026-08-28T17:53:14Z</time>
  <course>2.98</course>
  <speed>3.12</speed>
  <fix>3d</fix>
</trkpt>
<trkpt lat="40.0714476" lon="-105.2298003">
  <ele>1583.01</ele>
  <time>2026-08-28T17:53:14Z</time>
  <course>4.12</course>
  <speed>2.9455050500720588</speed>
  <fix>3d</fix>
</trkpt>
<trkpt lat="40.0714411" lon="-105.229801">
  <ele>1583.0</ele>
  <time>2026-08-28T17:53:14Z</time>
  <course>2.98</course>
  <speed>3.12</speed>
  <fix>3d</fix>
</trkpt>
<trkpt lat="40.0714501" lon="-105.2298001">
  <ele>1583.01</ele>
  <time>2026-08-28T17:53:14Z</time>
  <course>4.43</course>
  <speed>2.8164161624305457</speed>
  <fix>3d</fix>
</trkpt>
<trkpt lat="40.0714464" lon="-105.2298006">
  <ele>1583.0</ele>
  <time>2026-08-28T17:53:14Z</time>
  <course>3.57</course>
  <speed>2.92</speed>
  <fix>3d</fix>
</trkpt>
<trkpt lat="40.0714525" lon="-105.2297999">
  <ele>1583.01</ele>
  <time>2026-08-28T17:53:14Z</time>
  <course>4.75</course>
  <speed>2.686726632912251</speed>
  <fix>3d</fix>
</trkpt>
<trkpt lat="40.0714464" lon="-105.2298006">
  <ele>1583.0</ele>
  <time>2026-08-28T17:53:14Z</time>
  <course>3.57</course>
  <speed>2.92</speed>
  <fix>3d</fix>
</trkpt>
<trkpt lat="40.0714548" lon="-105.2297997">
  <ele>1583.01</ele>
  <time>2026-08-28T17:53:14Z</time>
  <course>5.1</course>
  <speed>2.5578311124857325</speed>
  <fix>3d</fix>
</trkpt>
<trkpt lat="40.0714514" lon="-105.2298001">
  <ele>1583.0</ele>
  <time>2026-08-28T17:53:14Z</time>
  <course>4.21</course>
  <speed>2.68</speed>
  <fix>3d</fix>
</trkpt>
<trkpt lat="40.071457" lon="-105.2297995">
  <ele>1583.01</ele>
  <time>2026-08-28T17:53:14Z</time>
  <course>5.45</course>
  <speed>2.408318915758459</speed>
  <fix>3d</fix>
</trkpt>
<trkpt lat="40.0714514" lon="-105.2298001">
  <ele>1583.0</ele>
  <time>2026-08-28T17:53:14Z</time>
  <course>4.21</course>
  <speed>2.68</speed>
  <fix>3d</fix>
</trkpt>
<trkpt lat="40.0714591" lon="-105.2297992">
  <ele>1583.01</ele>
  <time>2026-08-28T17:53:14Z</time>
  <course>5.82</course>
  <speed>2.2688322987827902</speed>
  <fix>3d</fix>
</trkpt>
<trkpt lat="40.071456" lon="-105.2297996">
  <ele>1583.0</ele>
  <time>2026-08-28T17:53:14Z</time>
  <course>4.9</course>
  <speed>2.41</speed>
  <fix>3d</fix>
</trkpt>
<trkpt lat="40.071461" lon="-105.229799">
  <ele>1583.01</ele>
  <time>2026-08-28T17:53:14Z</time>
  <course>6.22</course>
  <speed>2.119457477752267</speed>
  <fix>3d</fix>
</trkpt>
<trkpt lat="40.071456" lon="-105.2297996">
  <ele>1583.0</ele>
  <time>2026-08-28T17:53:14Z</time>
  <course>4.9</course>
  <speed>2.41</speed>
  <fix>3d</fix>
</trkpt>
<trkpt lat="40.0714628" lon="-105.2297988">
  <ele>1583.01</ele>
  <time>2026-08-28T17:53:14Z</time>
  <course>6.65</course>
  <speed>1.9701776569639602</speed>
  <fix>3d</fix>
</trkpt>
<trkpt lat="40.07146" lon="-105.2297991">
  <ele>1583.0</ele>
  <time>2026-08-28T17:53:14Z</time>
  <course>5.67</course>
  <speed>2.12</speed>
  <fix>3d</fix>
</trkpt>
<trkpt lat="40.0714645" lon="-105.2297986">
  <ele>1583.0</ele>
  <time>2026-08-28T17:53:14Z</time>
  <course>7.12</course>
  <speed>1.8210161998181127</speed>
  <fix>3d</fix>
</trkpt>
<trkpt lat="40.07146" lon="-105.2297991">
  <ele>1583.0</ele>
  <time>2026-08-28T17:53:14Z</time>
  <course>5.67</course>
  <speed>2.12</speed>
  <fix>3d</fix>
</trkpt>
<trkpt lat="40.071466" lon="-105.2297983">
  <ele>1583.0</ele>
  <time>2026-08-28T17:53:14Z</time>
  <course>7.63</course>
  <speed>1.6708381130438699</speed>
  <fix>3d</fix>
</trkpt>
<trkpt lat="40.0714636" lon="-105.2297987">
  <ele>1583.0</ele>
  <time>2026-08-28T17:53:14Z</time>
  <course>6.56</course>
  <speed>1.83</speed>
  <fix>3d</fix>
</trkpt>
<trkpt lat="40.0714674" lon="-105.2297981">
  <ele>1583.0</ele>
  <time>2026-08-28T17:53:14Z</time>
  <course>8.21</course>
  <speed>1.5219066988485201</speed>
  <fix>3d</fix>
</trkpt>
<trkpt lat="40.0714636" lon="-105.2297987">
  <ele>1583.0</ele>
  <time>2026-08-28T17:53:14Z</time>
  <course>6.56</course>
  <speed>1.83</speed>
  <fix>3d</fix>
</trkpt>
<trkpt lat="40.0714687" lon="-105.2297979">
  <ele>1583.0</ele>
  <time>2026-08-28T17:53:14Z</time>
  <course>8.84</course>
  <speed>1.3831124321616084</speed>
  <fix>3d</fix>
</trkpt>
<trkpt lat="40.0714636" lon="-105.2297987">
  <ele>1583.0</ele>
  <time>2026-08-28T17:53:14Z</time>
  <course>6.56</course>
  <speed>1.83</speed>
  <fix>3d</fix>
</trkpt>
<trkpt lat="40.0714698" lon="-105.2297977">
  <ele>1583.0</ele>
  <time>2026-08-28T17:53:14Z</time>
  <course>9.57</course>
  <speed>1.2332072007574397</speed>
  <fix>3d</fix>
</trkpt>
<trkpt lat="40.0714667" lon="-105.2297982">
  <ele>1583.0</ele>
  <time>2026-08-28T17:53:14Z</time>
  <course>7.64</course>
  <speed>1.55</speed>
  <fix>3d</fix>
</trkpt>
<trkpt lat="40.0714708" lon="-105.2297974">
  <ele>1583.0</ele>
  <time>2026-08-28T17:53:14Z</time>
  <course>10.41</course>
  <speed>1.103177229641729</speed>
  <fix>3d</fix>
</trkpt>
<trkpt lat="40.0714667" lon="-105.2297982">
  <ele>1583.0</ele>
  <time>2026-08-28T17:53:14Z</time>
  <course>7.64</course>
  <speed>1.55</speed>
  <fix>3d</fix>
</trkpt>
<trkpt lat="40.0714717" lon="-105.2297972">
  <ele>1583.0</ele>
  <time>2026-08-28T17:53:14Z</time>
  <course>11.41</course>
  <speed>0.965090669315583</speed>
  <fix>3d</fix>
</trkpt>
<trkpt lat="40.0714692" lon="-105.2297977">
  <ele>1583.0</ele>
  <time>2026-08-28T17:53:14Z</time>
  <course>9.0</course>
  <speed>1.27</speed>
  <fix>3d</fix>
</trkpt>
<trkpt lat="40.0714725" lon="-105.229797">
  <ele>1583.0</ele>
  <time>2026-08-28T17:53:14Z</time>
  <course>12.43</course>
  <speed>0.8354639429682169</speed>
  <fix>3d</fix>
</trkpt>
<trkpt lat="40.0714692" lon="-105.2297977">
  <ele>1583.0</ele>
  <time>2026-08-28T17:53:14Z</time>
  <course>9.0</course>
  <speed>1.27</speed>
  <fix>3d</fix>
</trkpt>
<trkpt lat="40.0714731" lon="-105.2297969">
  <ele>1582.99</ele>
  <time>2026-08-28T17:53:14Z</time>
  <course>13.42</course>
  <speed>0.7061161377563892</speed>
  <fix>3d</fix>
</trkpt>
<trkpt lat="40.0714712" lon="-105.2297972">
  <ele>1583.0</ele>
  <time>2026-08-28T17:53:14Z</time>
  <course>10.75</course>
  <speed>1.01</speed>
  <fix>3d</fix>
</trkpt>
<trkpt lat="40.0714737" lon="-105.2297967">
  <ele>1582.99</ele>
  <time>2026-08-28T17:53:14Z</time>
  <course>14.33</course>
  <speed>0.5846366392897386</speed>
  <fix>3d</fix>
</trkpt>
<trkpt lat="40.0714712" lon="-105.2297972">
  <ele>1583.0</ele>
  <time>2026-08-28T17:53:14Z</time>
  <course>10.75</course>
  <speed>1.01</speed>
  <fix>3d</fix>
</trkpt>
<trkpt lat="40.0714741" lon="-105.2297965">
  <ele>1582.99</ele>
  <time>2026-08-28T17:53:14Z</time>
  <course>15.09</course>
  <speed>0.4632493928760188</speed>
  <fix>3d</fix>
</trkpt>
<trkpt lat="40.0714727" lon="-105.2297968">
  <ele>1583.0</ele>
  <time>2026-08-28T17:53:14Z</time>
  <course>12.69</course>
  <speed>0.76</speed>
  <fix>3d</fix>
</trkpt>
<trkpt lat="40.0714744" lon="-105.2297964">
  <ele>1582.99</ele>
  <time>2026-08-28T17:53:14Z</time>
  <course>15.7</course>
  <speed>0.34928498393145957</speed>
  <fix>3d</fix>
</trkpt>
<trkpt lat="40.0714739" lon="-105.2297964">
  <ele>1583.0</ele>
  <time>2026-08-28T17:53:14Z</time>
  <course>14.31</course>
  <speed>0.52</speed>
  <fix>3d</fix>
</trkpt>
<trkpt lat="40.0714747" lon="-105.2297963">
  <ele>1582.99</ele>
  <time>2026-08-28T17:53:14Z</time>
  <course>16.15</course>
  <speed>0.23769728648009425</speed>
  <fix>3d</fix>
</trkpt>
<trkpt lat="40.0714739" lon="-105.2297964">
  <ele>1583.0</ele>
  <time>2026-08-28T17:53:14Z</time>
  <course>14.31</course>
  <speed>0.52</speed>
  <fix>3d</fix>
</trkpt>
<trkpt lat="40.0714748" lon="-105.2297962">
  <ele>1582.99</ele>
  <time>2026-08-28T17:53:14Z</time>
  <course>16.45</course>
  <speed>0.13341664064126335</speed>
  <fix>3d</fix>
</trkpt>
<trkpt lat="40.0714746" lon="-105.2297962">
  <ele>1583.0</ele>
  <time>2026-08-28T17:53:14Z</time>
  <course>15.39</course>
  <speed>0.3</speed>
  <fix>3d</fix>
</trkpt>
<trkpt lat="40.0714749" lon="-105.2297962">
  <ele>1582.99</ele>
  <time>2026-08-28T17:53:14Z</time>
  <course>16.63</course>
  <speed>0.03</speed>
  <fix>3d</fix>
</trkpt>
<trkpt lat="40.0714746" lon="-105.2297962">
  <ele>1583.0</ele>
  <time>2026-08-28T17:53:14Z</time>
  <course>15.39</course>
  <speed>0.3</speed>
  <fix>3d</fix>
</trkpt>
<trkpt lat="40.0714749" lon="-105.2297962">
  <ele>1582.99</ele>
  <time>2026-08-28T17:53:14Z</time>
  <course>16.67</course>
  <speed>0.0412310562561766</speed>
  <fix>3d</fix>
</trkpt>
<trkpt lat="40.071475" lon="-105.2297961">
  <ele>1583.0</ele>
  <time>2026-08-28T17:53:14Z</time>
  <course>15.92</course>
  <speed>0.1</speed>
  <fix>3d</fix>
</trkpt>
<trkpt lat="40.0714748" lon="-105.2297962">
  <ele>1583.0</ele>
  <time>2026-08-28T17:53:14Z</time>
  <course>16.69</course>
  <speed>0.1044030650891055</speed>
  <fix>3d</fix>
</trkpt>
<trkpt lat="40.071475" lon="-105.2297961">
  <ele>1583.0</ele>
  <time>2026-08-28T17:53:14Z</time>
  <course>15.92</course>
  <speed>0.1</speed>
  <fix>3d</fix>
</trkpt>
<trkpt lat="40.0714748" lon="-105.2297961">
  <ele>1583.0</ele>
  <time>2026-08-28T17:53:14Z</time>
  <course>16.77</course>
  <speed>0.1649242250247064</speed>
  <fix>3d</fix>
</trkpt>
<trkpt lat="40.071475" lon="-105.2297961">
  <ele>1583.0</ele>
  <time>2026-08-28T17:53:14Z</time>
  <course>196.2</course>
  <speed>0.04</speed>
  <fix>3d</fix>
</trkpt>
<trkpt lat="40.0714747" lon="-105.2297962">
  <ele>1583.0</ele>
  <time>2026-08-28T17:53:14Z</time>
  <course>16.91</course>
  <speed>0.20615528128088303</speed>
  <fix>3d</fix>
</trkpt>
<trkpt lat="40.071475" lon="-105.2297961">
  <ele>1583.0</ele>
  <time>2026-08-28T17:53:14Z</time>
  <course>196.2</course>
  <speed>0.04</speed>
  <fix>3d</fix>
</trkpt>
<trkpt lat="40.0714745" lon="-105.2297963">
  <ele>1583.0</ele>
  <time>2026-08-28T17:53:14Z</time>
  <course>17.07</course>
  <speed>0.24738633753705963</speed>
  <fix>3d</fix>
</trkpt>
<trkpt lat="40.0714749" lon="-105.2297961">
  <ele>1583.0</ele>
  <time>2026-08-28T17:53:14Z</time>
  <course>196.38</course>
  <speed>0.14</speed>
  <fix>3d</fix>
</trkpt>
<trkpt lat="40.0714743" lon="-105.2297963">
  <ele>1583.0</ele>
  <time>2026-08-28T17:53:14Z</time>
  <course>17.23</course>
  <speed>0.2692582403567252</speed>
  <fix>3d</fix>
</trkpt>
<trkpt lat="40.0714749" lon="-105.2297961">
  <ele>1583.0</ele>
  <time>2026-08-28T17:53:14Z</time>
  <course>196.38</course>
  <speed>0.14</speed>
  <fix>3d</fix>
</trkpt>
<trkpt lat="40.0714741" lon="-105.2297964">
  <ele>1582.99</ele>
  <time>2026-08-28T17:53:14Z</time>
  <course>17.26</course>
  <speed>0.28861739379323625</speed>
  <fix>3d</fix>
</trkpt>
<trkpt lat="40.0714746" lon="-105.2297962">
  <ele>1583.0</ele>
  <time>2026-08-28T17:53:14Z</time>
  <course>196.59</course>
  <speed>0.2</speed>
  <fix>3d</fix>
</trkpt>
<trkpt lat="40.0714738" lon="-105.2297965">
  <ele>1582.99</ele>
  <time>2026-08-28T17:53:14Z</time>
  <course>17.33</course>
  <speed>0.31048349392520047</speed>
  <fix>3d</fix>
</trkpt>
<trkpt lat="40.0714746" lon="-105.2297962">
  <ele>1583.0</ele>
  <time>2026-08-28T17:53:14Z</time>
  <course>196.59</course>
  <speed>0.2</speed>
  <fix>3d</fix>
</trkpt>
<trkpt lat="40.0714736" lon="-105.2297966">
  <ele>1582.99</ele>
  <time>2026-08-28T17:53:14Z</time>
  <course>17.51</course>
  <speed>0.3080584360149873</speed>
  <fix>3d</fix>
</trkpt>
<trkpt lat="40.0714743" lon="-105.2297963">
  <ele>1583.0</ele>
  <time>2026-08-28T17:53:14Z</time>
  <course>196.8</course>
  <speed>0.23</speed>
  <fix>3d</fix>
</trkpt>
<trkpt lat="40.0714734" lon="-105.2297966">
  <ele>1582.99</ele>
  <time>2026-08-28T17:53:14Z</time>
  <course>17.78</course>
  <speed>0.2765863337187866</speed>
  <fix>3d</fix>
</trkpt>
<trkpt lat="40.0714743" lon="-105.2297963">
  <ele>1583.0</ele>
  <time>2026-08-28T17:53:14Z</time>
  <course>196.8</course>
  <speed>0.23</speed>
  <fix>3d</fix>
</trkpt>
<trkpt lat="40.0714732" lon="-105.2297967">
  <ele>1582.99</ele>
  <time>2026-08-28T17:53:14Z</time>
  <course>18.09</course>
  <speed>0.22561028345356957</speed>
  <fix>3d</fix>
</trkpt>
<trkpt lat="40.0714743" lon="-105.2297963">
  <ele>1583.0</ele>
  <time>2026-08-28T17:53:14Z</time>
  <course>196.8</course>
  <speed>0.23</speed>
  <fix>3d</fix>
</trkpt>
<trkpt lat="40.0714731" lon="-105.2297967">
  <ele>1582.99</ele>
  <time>2026-08-28T17:53:14Z</time>
  <course>18.39</course>
  <speed>0.16278820596099705</speed>
  <fix>3d</fix>
</trkpt>
<trkpt lat="40.0714739" lon="-105.2297964">
  <ele>1583.0</ele>
  <time>2026-08-28T17:53:14Z</time>
  <course>197.15</course>
  <speed>0.2</speed>
  <fix>3d</fix>
</trkpt>
<trkpt lat="40.071473" lon="-105.2297967">
  <ele>1582.99</ele>
  <time>2026-08-28T17:53:14Z</time>
  <course>18.61</course>
  <speed>0.1</speed>
  <fix>3d</fix>
</trkpt>
<trkpt lat="40.0714739" lon="-105.2297964">
  <ele>1583.0</ele>
  <time>2026-08-28T17:53:14Z</time>
  <course>197.15</course>
  <speed>0.2</speed>
  <fix>3d</fix>
</trkpt>
<trkpt lat="40.071473" lon="-105.2297967">
  <ele>1582.99</ele>
  <time>2026-08-28T17:53:14Z</time>
  <course>18.67</course>
  <speed>0.0412310562561766</speed>
  <fix>3d</fix>
</trkpt>
<trkpt lat="40.0714736" lon="-105.2297966">
  <ele>1583.0</ele>
  <time>2026-08-28T17:53:14Z</time>
  <course>197.6</course>
  <speed>0.1</speed>
  <fix>3d</fix>
</trkpt>
<trkpt lat="40.071473" lon="-105.2297967">
  <ele>1582.99</ele>
  <time>2026-08-28T17:53:14Z</time>
  <course>18.6</course>
  <speed>0.0316227766016838</speed>
  <fix>3d</fix>
</trkpt>
<trkpt lat="40.0714736" lon="-105.2297966">
  <ele>1583.0</ele>
  <time>2026-08-28T17:53:14Z</time>
  <course>197.6</course>
  <speed>0.1</speed>
  <fix>3d</fix>
</trkpt>
<trkpt lat="40.0714731" lon="-105.2297966">
  <ele>1582.99</ele>
  <time>2026-08-28T17:53:14Z</time>
  <course>19.16</course>
  <speed>0.08602325267042626</speed>
  <fix>3d</fix>
</trkpt>
<trkpt lat="40.0714735" lon="-105.2297966">
  <ele>1583.0</ele>
  <time>2026-08-28T17:53:14Z</time>
  <course>18.02</course>
  <speed>0.01</speed>
  <fix>3d</fix>
</trkpt>
<trkpt lat="40.0714733" lon="-105.2297966">
  <ele>1583.0</ele>
  <time>2026-08-28T17:53:14Z</time>
  <course>20.11</course>
  <speed>0.15264337522473748</speed>
  <fix>3d</fix>
</trkpt>
<trkpt lat="40.0714737" lon="-105.2297965">
  <ele>1583.0</ele>
  <time>2026-08-28T17:53:14Z</time>
  <course>19.08</course>
  <speed>0.14</speed>
  <fix>3d</fix>
</trkpt>
<trkpt lat="40.0714734" lon="-105.2297965">
  <ele>1583.0</ele>
  <time>2026-08-28T17:53:14Z</time>
  <course>21.43</course>
  <speed>0.22825424421026652</speed>
  <fix>3d</fix>
</trkpt>
<trkpt lat="40.0714737" lon="-105.2297965">
  <ele>1583.0</ele>
  <time>2026-08-28T17:53:14Z</time>
  <course>19.08</course>
  <speed>0.14</speed>
  <fix>3d</fix>
</trkpt>
<trkpt lat="40.0714737" lon="-105.2297963">
  <ele>1583.0</ele>
  <time>2026-08-28T17:53:14Z</time>
  <course>23.1</course>
  <speed>0.30016662039607267</speed>
  <fix>3d</fix>
</trkpt>
<trkpt lat="40.0714739" lon="-105.2297964">
  <ele>1583.0</ele>
  <time>2026-08-28T17:53:14Z</time>
  <course>21.34</course>
  <speed>0.27</speed>
  <fix>3d</fix>
</trkpt>
<trkpt lat="40.071474" lon="-105.2297961">
  <ele>1583.0</ele>
  <time>2026-08-28T17:53:14Z</time>
  <course>25.02</course>
  <speed>0.3721558813185679</speed>
  <fix>3d</fix>
</trkpt>
<trkpt lat="40.0714739" lon="-105.2297964">
  <ele>1583.0</ele>
  <time>2026-08-28T17:53:14Z</time>
  <course>21.34</course>
  <speed>0.27</speed>
  <fix>3d</fix>
</trkpt>
<trkpt lat="40.0714744" lon="-105.2297958">
  <ele>1583.0</ele>
  <time>2026-08-28T17:53:14Z</time>
  <course>27.24</course>
  <speed>0.4410215414239989</speed>
  <fix>3d</fix>
</trkpt>
<trkpt lat="40.0714744" lon="-105.2297962">
  <ele>1583.0</ele>
  <time>2026-08-28T17:53:14Z</time>
  <course>24.89</course>
  <speed>0.4</speed>
  <fix>3d</fix>
</trkpt>
<trkpt lat="40.0714748" lon="-105.2297955">
  <ele>1583.0</ele>
  <time>2026-08-28T17:53:14Z</time>
  <course>30.03</course>
  <speed>0.5103920062069939</speed>
  <fix>3d</fix>
</trkpt>
<trkpt lat="40.0714744" lon="-105.2297962">
  <ele>1583.0</ele>
  <time>2026-08-28T17:53:14Z</time>
  <course>24.89</course>
  <speed>0.4</speed>
  <fix>3d</fix>
</trkpt>
<trkpt lat="40.0714753" lon="-105.2297951">
  <ele>1583.0</ele>
  <time>2026-08-28T17:53:14Z</time>
  <course>33.43</course>
  <speed>0.5841232746604094</speed>
  <fix>3d</fix>
</trkpt>
<trkpt lat="40.0714752" lon="-105.2297957">
  <ele>1583.0</ele>
  <time>2026-08-28T17:53:14Z</time>
  <course>30.12</course>
  <speed>0.54</speed>
  <fix>3d</fix>
</trkpt>
<trkpt lat="40.0714758" lon="-105.2297946">
  <ele>1583.0</ele>
  <time>2026-08-28T17:53:14Z</time>
  <course>37.49</course>
  <speed>0.6660330322138686</speed>
  <fix>3d</fix>
</trkpt>
<trkpt lat="40.0714752" lon="-105.2297957">
  <ele>1583.0</ele>
  <time>2026-08-28T17:53:14Z</time>
  <course>30.12</course>
  <speed>0.54</speed>
  <fix>3d</fix>
</trkpt>
<trkpt lat="40.0714763" lon="-105.2297941">
  <ele>1583.0</ele>
  <time>2026-08-28T17:53:14Z</time>
  <course>42.11</course>
  <speed>0.7496665925596525</speed>
  <fix>3d</fix>
</trkpt>
<trkpt lat="40.0714762" lon="-105.2297949">
  <ele>1583.0</ele>
  <time>2026-08-28T17:53:14Z</time>
  <course>37.63</course>
  <speed>0.68</speed>
  <fix>3d</fix>
</trkpt>
<trkpt lat="40.0714768" lon="-105.2297934">
  <ele>1583.0</ele>
  <time>2026-08-28T17:53:14Z</time>
  <course>47.26</course>
  <speed>0.8386894538504702</speed>
  <fix>3d</fix>
</trkpt>
<trkpt lat="40.0714762" lon="-105.2297949">
  <ele>1583.0</ele>
  <time>2026-08-28T17:53:14Z</time>
  <course>37.63</course>
  <speed>0.68</speed>
  <fix>3d</fix>
</trkpt>
<trkpt lat="40.0714774" lon="-105.2297925">
  <ele>1583.0</ele>
  <time>2026-08-28T17:53:14Z</time>
  <course>52.76</course>
  <speed>0.9430270409696638</speed>
  <fix>3d</fix>
</trkpt>
<trkpt lat="40.0714771" lon="-105.2297936">
  <ele>1583.0</ele>
  <time>2026-08-28T17:53:14Z</time>
  <course>47.35</course>
  <speed>0.85</speed>
  <fix>3d</fix>
</trkpt>
<trkpt lat="40.0714779" lon="-105.2297915">
  <ele>1583.01</ele>
  <time>2026-08-28T17:53:14Z</time>
  <course>58.04</course>
  <speed>1.0431682510506155</speed>
  <fix>3d</fix>
</trkpt>
<trkpt lat="40.0714771" lon="-105.2297936">
  <ele>1583.0</ele>
  <time>2026-08-28T17:53:14Z</time>
  <course>47.35</course>
  <speed>0.85</speed>
  <fix>3d</fix>
</trkpt>
<trkpt lat="40.0714784" lon="-105.2297904">
  <ele>1583.01</ele>
  <time>2026-08-28T17:53:14Z</time>
  <course>62.56</course>
  <speed>1.1587061750072793</speed>
  <fix>3d</fix>
</trkpt>
<trkpt lat="40.0714782" lon="-105.2297919">
  <ele>1583.0</ele>
  <time>2026-08-28T17:53:14Z</time>
  <course>57.48</course>
  <speed>1.03</speed>
  <fix>3d</fix>
</trkpt>
<trkpt lat="40.0714789" lon="-105.2297891">
  <ele>1583.01</ele>
  <time>2026-08-28T17:53:14Z</time>
  <course>66.41</course>
  <speed>1.2664912159190052</speed>
  <fix>3d</fix>
</trkpt>
<trkpt lat="40.0714782" lon="-105.2297919">
  <ele>1583.0</ele>
  <time>2026-08-28T17:53:14Z</time>
  <course>57.48</course>
  <speed>1.03</speed>
  <fix>3d</fix>
</trkpt>
<trkpt lat="40.0714793" lon="-105.2297876">
  <ele>1583.01</ele>
  <time>2026-08-28T17:53:14Z</time>
  <course>69.7</course>
  <speed>1.3692698784388708</speed>
  <fix>3d</fix>
</trkpt>
<trkpt lat="40.0714782" lon="-105.2297919">
  <ele>1583.0</ele>
  <time>2026-08-28T17:53:14Z</time>
  <course>57.48</course>
  <speed>1.03</speed>
  <fix>3d</fix>
</trkpt>
<trkpt lat="40.0714797" lon="-105.229786">
  <ele>1583.01</ele>
  <time>2026-08-28T17:53:14Z</time>
  <course>72.52</course>
  <speed>1.4848905683584903</speed>
  <fix>3d</fix>
</trkpt>
<trkpt lat="40.0714791" lon="-105.2297895">
  <ele>1583.0</ele>
  <time>2026-08-28T17:53:14Z</time>
  <course>65.79</course>
  <speed>1.24</speed>
  <fix>3d</fix>
</trkpt>
<trkpt lat="40.0714801" lon="-105.2297843">
  <ele>1583.01</ele>
  <time>2026-08-28T17:53:14Z</time>
  <course>74.98</course>
  <speed>1.593549497191725</speed>
  <fix>3d</fix>
</trkpt>
<trkpt lat="40.0714791" lon="-105.2297895">
  <ele>1583.0</ele>
  <time>2026-08-28T17:53:14Z</time>
  <course>65.79</course>
  <speed>1.24</speed>
  <fix>3d</fix>
</trkpt>
<trkpt lat="40.0714805" lon="-105.2297824">
  <ele>1583.01</ele>
  <time>2026-08-28T17:53:14Z</time>
  <course>77.12</course>
  <speed>1.6944615663980107</speed>
  <fix>3d</fix>
</trkpt>
<trkpt lat="40.07148" lon="-105.2297865">
  <ele>1583.0</ele>
  <time>2026-08-28T17:53:14Z</time>
  <course>71.9</course>
  <speed>1.45</speed>
  <fix>3d</fix>
</trkpt>
<trkpt lat="40.0714808" lon="-105.2297804">
  <ele>1583.02</ele>
  <time>2026-08-28T17:53:14Z</time>
  <course>78.93</course>
  <speed>1.806792738528689</speed>
  <fix>3d</fix>
</trkpt>
<trkpt lat="40.07148" lon="-105.2297865">
  <ele>1583.0</ele>
  <time>2026-08-28T17:53:14Z</time>
  <course>71.9</course>
  <speed>1.45</speed>
  <fix>3d</fix>
</trkpt>
<trkpt lat="40.0714811" lon="-105.2297782">
  <ele>1583.02</ele>
  <time>2026-08-28T17:53:14Z</time>
  <course>80.48</course>
  <speed>1.9106281689538653</speed>
  <fix>3d</fix>
</trkpt>
<trkpt lat="40.0714808" lon="-105.229783">
  <ele>1583.0</ele>
  <time>2026-08-28T17:53:14Z</time>
  <course>76.43</course>
  <speed>1.67</speed>
  <fix>3d</fix>
</trkpt>
<trkpt lat="40.0714814" lon="-105.229776">
  <ele>1583.02</ele>
  <time>2026-08-28T17:53:14Z</time>
  <course>81.82</course>
  <speed>2.0155644370746373</speed>
  <fix>3d</fix>
</trkpt>
<trkpt lat="40.0714808" lon="-105.229783">
  <ele>1583.0</ele>
  <time>2026-08-28T17:53:14Z</time>
  <course>76.43</course>
  <speed>1.67</speed>
  <fix>3d</fix>
</trkpt>
<trkpt lat="40.0714817" lon="-105.2297736">
  <ele>1583.02</ele>
  <time>2026-08-28T17:53:14Z</time>
  <course>82.95</course>
  <speed>2.1224985276791126</speed>
  <fix>3d</fix>
</trkpt>
<trkpt lat="40.0714815" lon="-105.2297789">
  <ele>1583.0</ele>
  <time>2026-08-28T17:53:14Z</time>
  <course>79.8</course>
  <speed>1.87</speed>
  <fix>3d</fix>
</trkpt>
<trkpt lat="40.0714819" lon="-105.2297711">
  <ele>1583.02</ele>
  <time>2026-08-28T17:53:14Z</time>
  <course>83.91</course>
  <speed>2.229910312097776</speed>
  <fix>3d</fix>
</trkpt>
<trkpt lat="40.071482" lon="-105.2297743">
  <ele>1583.0</ele>
  <time>2026-08-28T17:53:14Z</time>
  <course>82.26</course>
  <speed>2.09</speed>
  <fix>3d</fix>
</trkpt>
<trkpt lat="40.0714821" lon="-105.2297684">
  <ele>1583.02</ele>
  <time>2026-08-28T17:53:14Z</time>
  <course>84.73</course>
  <speed>2.3377339455121917</speed>
  <fix>3d</fix>
</trkpt>
<trkpt lat="40.071482" lon="-105.2297743">
  <ele>1583.0</ele>
  <time>2026-08-28T17:53:14Z</time>
  <course>82.26</course>
  <speed>2.09</speed>
  <fix>3d</fix>
</trkpt>
<trkpt lat="40.0714823" lon="-105.2297656">
  <ele>1583.03</ele>
  <time>2026-08-28T17:53:14Z</time>
  <course>85.43</course>
  <speed>2.4459149617270017</speed>
  <fix>3d</fix>
</trkpt>
<trkpt lat="40.0714825" lon="-105.2297691">
  <ele>1583.0</ele>
  <time>2026-08-28T17:53:14Z</time>
  <course>84.05</course>
  <speed>2.3</speed>
  <fix>3d</fix>
</trkpt>
<trkpt lat="40.0714825" lon="-105.2297627">
  <ele>1583.03</ele>
  <time>2026-08-28T17:53:14Z</time>
  <course>86.05</course>
  <speed>2.5550146770615623</speed>
  <fix>3d</fix>
</trkpt>
<trkpt lat="40.0714825" lon="-105.2297691">
  <ele>1583.0</ele>
  <time>2026-08-28T17:53:14Z</time>
  <course>84.05</course>
  <speed>2.3</speed>
  <fix>3d</fix>
</trkpt>
<trkpt lat="40.0714827" lon="-105.2297596">
  <ele>1583.03</ele>
  <time>2026-08-28T17:53:14Z</time>
  <course>86.6</course>
  <speed>2.6437095150564485</speed>
  <fix>3d</fix>
</trkpt>
<trkpt lat="40.0714828" lon="-105.2297635">
  <ele>1583.0</ele>
  <time>2026-08-28T17:53:14Z</time>
  <course>85.38</course>
  <speed>2.51</speed>
  <fix>3d</fix>
</trkpt>
<trkpt lat="40.0714829" lon="-105.2297564">
  <ele>1583.03</ele>
  <time>2026-08-28T17:53:14Z</time>
  <course>87.09</course>
  <speed>2.733093485411723</speed>
  <fix>3d</fix>
</trkpt>
<trkpt lat="40.0714828" lon="-105.2297635">
  <ele>1583.0</ele>
  <time>2026-08-28T17:53:14Z</time>
  <course>85.38</course>
  <speed>2.51</speed>
  <fix>3d</fix>
</trkpt>
<trkpt lat="40.071483" lon="-105.2297531">
  <ele>1583.03</ele>
  <time>2026-08-28T17:53:14Z</time>
  <course>87.55</course>
  <speed>2.8121522007174504</speed>
  <fix>3d</fix>
</trkpt>
<trkpt lat="40.0714831" lon="-105.2297574">
  <ele>1583.0</ele>
  <time>2026-08-28T17:53:14Z</time>
  <course>86.43</course>
  <speed>2.69</speed>
  <fix>3d</fix>
</trkpt>
<trkpt lat="40.0714832" lon="-105.2297498">
  <ele>1583.02</ele>
  <time>2026-08-28T17:53:14Z</time>
  <course>87.96</course>
  <speed>2.881405906844782</speed>
  <fix>3d</fix>
</trkpt>
<trkpt lat="40.0714831" lon="-105.2297574">
  <ele>1583.0</ele>
  <time>2026-08-28T17:53:14Z</time>
  <course>86.43</course>
  <speed>2.69</speed>
  <fix>3d</fix>
</trkpt>
<trkpt lat="40.0714833" lon="-105.2297463">
  <ele>1583.02</ele>
  <time>2026-08-28T17:53:14Z</time>
  <course>88.34</course>
  <speed>2.931091946698363</speed>
  <fix>3d</fix>
</trkpt>
<trkpt lat="40.0714834" lon="-105.2297509">
  <ele>1583.0</ele>
  <time>2026-08-28T17:53:14Z</time>
  <course>87.3</course>
  <speed>2.83</speed>
  <fix>3d</fix>
</trkpt>
<trkpt lat="40.0714834" lon="-105.2297429">
  <ele>1583.02</ele>
  <time>2026-08-28T17:53:14Z</time>
  <course>88.69</course>
  <speed>2.9606080456554866</speed>
  <fix>3d</fix>
</trkpt>
<trkpt lat="40.0714834" lon="-105.2297509">
  <ele>1583.0</ele>
  <time>2026-08-28T17:53:14Z</time>
  <course>87.3</course>
  <speed>2.83</speed>
  <fix>3d</fix>
</trkpt>
<trkpt lat="40.0714834" lon="-105.2297394">
  <ele>1583.02</ele>
  <time>2026-08-28T17:53:14Z</time>
  <course>89.03</course>
  <speed>2.9904180309782777</speed>
  <fix>3d</fix>
</trkpt>
<trkpt lat="40.0714837" lon="-105.2297442">
  <ele>1583.0</ele>
  <time>2026-08-28T17:53:14Z</time>
  <course>88.04</course>
  <speed>2.91</speed>
  <fix>3d</fix>
</trkpt>
<trkpt lat="40.0714835" lon="-105.2297359">
  <ele>1583.02</ele>
  <time>2026-08-28T17:53:14Z</time>
  <course>89.35</course>
  <speed>2.99015049788468</speed>
  <fix>3d</fix>
</trkpt>
<trkpt lat="40.0714837" lon="-105.2297442">
  <ele>1583.0</ele>
  <time>2026-08-28T17:53:14Z</time>
  <course>88.04</course>
  <speed>2.91</speed>
  <fix>3d</fix>
</trkpt>
<trkpt lat="40.0714836" lon="-105.2297324">
  <ele>1583.02</ele>
  <time>2026-08-28T17:53:14Z</time>
  <course>89.67</course>
  <speed>2.980067113338221</speed>
  <fix>3d</fix>
</trkpt>
<trkpt lat="40.0714838" lon="-105.2297373">
  <ele>1583.0</ele>
  <time>2026-08-28T17:53:14Z</time>
  <course>88.7</course>
  <speed>2.94</speed>
  <fix>3d</fix>
</trkpt>
<trkpt lat="40.0714836" lon="-105.2297289">
  <ele>1583.02</ele>
  <time>2026-08-28T17:53:14Z</time>
  <course>89.99</course>
  <speed>2.95</speed>
  <fix>3d</fix>
</trkpt>
<trkpt lat="40.0714838" lon="-105.2297373">
  <ele>1583.0</ele>
  <time>2026-08-28T17:53:14Z</time>
  <course>88.7</course>
  <speed>2.94</speed>
  <fix>3d</fix>
</trkpt>
<trkpt lat="40.0714836" lon="-105.2297255">
  <ele>1583.03</ele>
  <time>2026-08-28T17:53:14Z</time>
  <course>90.3</course>
  <speed>2.91</speed>
  <fix>3d</fix>
</trkpt>
<trkpt lat="40.0714838" lon="-105.2297373">
  <ele>1583.0</ele>
  <time>2026-08-28T17:53:14Z</time>
  <course>88.7</course>
  <speed>2.94</speed>
  <fix>3d</fix>
</trkpt>
<trkpt lat="40.0714837" lon="-105.2297221">
  <ele>1583.03</ele>
  <time>2026-08-28T17:53:14Z</time>
  <course>90.64</course>
  <speed>2.850070174574654</speed>
  <fix>3d</fix>
</trkpt>
<trkpt lat="40.0714838" lon="-105.2297304">
  <ele>1583.0</ele>
  <time>2026-08-28T17:53:14Z</time>
  <course>89.34</course>
  <speed>2.9</speed>
  <fix>3d</fix>
</trkpt>
<trkpt lat="40.0714836" lon="-105.2297189">
  <ele>1583.03</ele>
  <time>2026-08-28T17:53:14Z</time>
  <course>90.97</course>
  <speed>2.780161865791271</speed>
  <fix>3d</fix>
</trkpt>
<trkpt lat="40.0714838" lon="-105.2297304">
  <ele>1583.0</ele>
  <time>2026-08-28T17:53:14Z</time>
  <course>89.34</course>
  <speed>2.9</speed>
  <fix>3d</fix>
</trkpt>
<trkpt lat="40.0714836" lon="-105.2297157">
  <ele>1583.03</ele>
  <time>2026-08-28T17:53:14Z</time>
  <course>91.35</course>
  <speed>2.6904646438858846</speed>
  <fix>3d</fix>
</trkpt>
<trkpt lat="40.0714838" lon="-105.2297236">
  <ele>1583.0</ele>
  <time>2026-08-28T17:53:14Z</time>
  <course>89.99</course>
  <speed>2.81</speed>
  <fix>3d</fix>
</trkpt>
<trkpt lat="40.0714836" lon="-105.2297127">
  <ele>1583.03</ele>
  <time>2026-08-28T17:53:14Z</time>
  <course>91.75</course>
  <speed>2.580697580112788</speed>
  <fix>3d</fix>
</trkpt>
<trkpt lat="40.0714838" lon="-105.2297236">
  <ele>1583.0</ele>
  <time>2026-08-28T17:53:14Z</time>
  <course>89.99</course>
  <speed>2.81</speed>
  <fix>3d</fix>
</trkpt>
<trkpt lat="40.0714836" lon="-105.2297098">
  <ele>1583.03</ele>
  <time>2026-08-28T17:53:14Z</time>
  <course>92.18</course>
  <speed>2.4709917037497315</speed>
  <fix>3d</fix>
</trkpt>
<trkpt lat="40.0714838" lon="-105.2297172">
  <ele>1583.0</ele>
  <time>2026-08-28T17:53:14Z</time>
  <course>90.71</course>
  <speed>2.65</speed>
  <fix>3d</fix>
</trkpt>
<trkpt lat="40.0714836" lon="-105.2297071">
  <ele>1583.03</ele>
  <time>2026-08-28T17:53:14Z</time>
  <course>92.63</course>
  <speed>2.341730129626384</speed>
  <fix>3d</fix>
</trkpt>
<trkpt lat="40.0714838" lon="-105.2297112">
  <ele>1583.0</ele>
  <time>2026-08-28T17:53:14Z</time>
  <course>91.54</course>
  <speed>2.44</speed>
  <fix>3d</fix>
</trkpt>
<trkpt lat="40.0714835" lon="-105.2297045">
  <ele>1583.03</ele>
  <time>2026-08-28T17:53:14Z</time>
  <course>93.11</course>
  <speed>2.2122612865572635</speed>
  <fix>3d</fix>
</trkpt>
<trkpt lat="40.0714838" lon="-105.2297112">
  <ele>1583.0</ele>
  <time>2026-08-28T17:53:14Z</time>
  <course>91.54</course>
  <speed>2.44</speed>
  <fix>3d</fix>
</trkpt>
<trkpt lat="40.0714834" lon="-105.229702">
  <ele>1583.03</ele>
  <time>2026-08-28T17:53:14Z</time>
  <course>93.63</course>
  <speed>2.0729206448873048</speed>
  <fix>3d</fix>
</trkpt>
<trkpt lat="40.0714837" lon="-105.2297057">
  <ele>1583.0</ele>
  <time>2026-08-28T17:53:14Z</time>
  <course>92.47</course>
  <speed>2.2</speed>
  <fix>3d</fix>
</trkpt>
<trkpt lat="40.0714833" lon="-105.2296997">
  <ele>1583.02</ele>
  <time>2026-08-28T17:53:14Z</time>
  <course>94.18</course>
  <speed>1.933726971420733</speed>
  <fix>3d</fix>
</trkpt>
<trkpt lat="40.0714837" lon="-105.2297057">
  <ele>1583.0</ele>
  <time>2026-08-28T17:53:14Z</time>
  <course>92.47</course>
  <speed>2.2</speed>
  <fix>3d</fix>
</trkpt>
<trkpt lat="40.0714832" lon="-105.2296976">
  <ele>1583.02</ele>
  <time>2026-08-28T17:53:14Z</time>
  <course>94.81</course>
  <speed>1.7847408775505762</speed>
  <fix>3d</fix>
</trkpt>
<trkpt lat="40.0714836" lon="-105.2297009">
  <ele>1583.0</ele>
  <time>2026-08-28T17:53:14Z</time>
  <course>93.54</course>
  <speed>1.93</speed>
  <fix>3d</fix>
</trkpt>
<trkpt lat="40.0714831" lon="-105.2296956">
  <ele>1583.02</ele>
  <time>2026-08-28T17:53:14Z</time>
  <course>95.5</course>
  <speed>1.6360012224934308</speed>
  <fix>3d</fix>
</trkpt>
<trkpt lat="40.0714836" lon="-105.2297009">
  <ele>1583.0</ele>
  <time>2026-08-28T17:53:14Z</time>
  <course>93.54</course>
  <speed>1.93</speed>
  <fix>3d</fix>
</trkpt>
<trkpt lat="40.071483" lon="-105.2296938">
  <ele>1583.01</ele>
  <time>2026-08-28T17:53:14Z</time>
  <course>96.28</course>
  <speed>1.4866068747318506</speed>
  <fix>3d</fix>
</trkpt>
<trkpt lat="40.0714833" lon="-105.2296968">
  <ele>1583.0</ele>
  <time>2026-08-28T17:53:14Z</time>
  <course>94.85</course>
  <speed>1.64</speed>
  <fix>3d</fix>
</trkpt>
<trkpt lat="40.0714829" lon="-105.2296922">
  <ele>1583.01</ele>
  <time>2026-08-28T17:53:14Z</time>
  <course>97.2</course>
  <speed>1.33843191832831</speed>
  <fix>3d</fix>
</trkpt>
<trkpt lat="40.0714833" lon="-105.2296968">
  <ele>1583.0</ele>
  <time>2026-08-28T17:53:14Z</time>
  <course>94.85</course>
  <speed>1.64</speed>
  <fix>3d</fix>
</trkpt>
<trkpt lat="40.0714828" lon="-105.2296908">
  <ele>1583.0</ele>
  <time>2026-08-28T17:53:14Z</time>
  <course>98.26</course>
  <speed>1.1894956914591999</speed>
  <fix>3d</fix>
</trkpt>
<trkpt lat="40.071483" lon="-105.2296932">
  <ele>1583.0</ele>
  <time>2026-08-28T17:53:14Z</time>
  <course>96.53</course>
  <speed>1.35</speed>
  <fix>3d</fix>
</trkpt>
<trkpt lat="40.0714826" lon="-105.2296896">
  <ele>1583.0</ele>
  <time>2026-08-28T17:53:14Z</time>
  <course>99.47</course>
  <speed>1.0408650248711404</speed>
  <fix>3d</fix>
</trkpt>
<trkpt lat="40.071483" lon="-105.2296932">
  <ele>1583.0</ele>
  <time>2026-08-28T17:53:14Z</time>
  <course>96.53</course>
  <speed>1.35</speed>
  <fix>3d</fix>
</trkpt>
<trkpt lat="40.0714825" lon="-105.2296885">
  <ele>1583.0</ele>
  <time>2026-08-28T17:53:14Z</time>
  <course>100.76</course>
  <speed>0.902551937563706</speed>
  <fix>3d</fix>
</trkpt>
<trkpt lat="40.0714828" lon="-105.2296904">
  <ele>1583.0</ele>
  <time>2026-08-28T17:53:14Z</time>
  <course>98.71</course>
  <speed>1.07</speed>
  <fix>3d</fix>
</trkpt>
<trkpt lat="40.0714824" lon="-105.2296876">
  <ele>1583.0</ele>
  <time>2026-08-28T17:53:14Z</time>
  <course>102.0</course>
  <speed>0.762954782408499</speed>
  <fix>3d</fix>
</trkpt>
<trkpt lat="40.0714828" lon="-105.2296904">
  <ele>1583.0</ele>
  <time>2026-08-28T17:53:14Z</time>
  <course>98.71</course>
  <speed>1.07</speed>
  <fix>3d</fix>
</trkpt>
<trkpt lat="40.0714823" lon="-105.2296868">
  <ele>1583.0</ele>
  <time>2026-08-28T17:53:14Z</time>
  <course>103.17</course>
  <speed>0.623698645180507</speed>
  <fix>3d</fix>
</trkpt>
<trkpt lat="40.0714825" lon="-105.2296882">
  <ele>1583.0</ele>
  <time>2026-08-28T17:53:14Z</time>
  <course>101.12</course>
  <speed>0.79</speed>
  <fix>3d</fix>
</trkpt>
<trkpt lat="40.0714822" lon="-105.2296862">
  <ele>1583.0</ele>
  <time>2026-08-28T17:53:14Z</time>
  <course>104.15</course>
  <speed>0.49244289008980524</speed>
  <fix>3d</fix>
</trkpt>
<trkpt lat="40.0714825" lon="-105.2296882">
  <ele>1583.0</ele>
  <time>2026-08-28T17:53:14Z</time>
  <course>101.12</course>
  <speed>0.79</speed>
  <fix>3d</fix>
</trkpt>
<trkpt lat="40.0714821" lon="-105.2296857">
  <ele>1583.0</ele>
  <time>2026-08-28T17:53:14Z</time>
  <course>104.93</course>
  <speed>0.3590264614203248</speed>
  <fix>3d</fix>
</trkpt>
<trkpt lat="40.0714825" lon="-105.2296882">
  <ele>1583.0</ele>
  <time>2026-08-28T17:53:14Z</time>
  <course>101.12</course>
  <speed>0.79</speed>
  <fix>3d</fix>
</trkpt>
<trkpt lat="40.071482" lon="-105.2296854">
  <ele>1583.0</ele>
  <time>2026-08-28T17:53:14Z</time>
  <course>105.51</course>
  <speed>0.2353720459187964</speed>
  <fix>3d</fix>
</trkpt>
<trkpt lat="40.0714823" lon="-105.2296868">
  <ele>1583.0</ele>
  <time>2026-08-28T17:53:14Z</time>
  <course>103.2</course>
  <speed>0.53</speed>
  <fix>3d</fix>
</trkpt>
<trkpt lat="40.071482" lon="-105.2296853">
  <ele>1583.0</ele>
  <time>2026-08-28T17:53:14Z</time>
  <course>105.88</course>
  <speed>0.12165525060596438</speed>
  <fix>3d</fix>
</trkpt>
<trkpt lat="40.0714823" lon="-105.2296868">
  <ele>1583.0</ele>
  <time>2026-08-28T17:53:14Z</time>
  <course>103.2</course>
  <speed>0.53</speed>
  <fix>3d</fix>
</trkpt>
<trkpt lat="40.071482" lon="-105.2296852">
  <ele>1583.0</ele>
  <time>2026-08-28T17:53:14Z</time>
  <course>106.07</course>
  <speed>0.02</speed>
  <fix>3d</fix>
</trkpt>
<trkpt lat="40.0714821" lon="-105.2296858">
  <ele>1583.0</ele>
  <time>2026-08-28T17:53:14Z</time>
  <course>104.57</course>
  <speed>0.28</speed>
  <fix>3d</fix>
</trkpt>
<trkpt lat="40.071482" lon="-105.2296853">
  <ele>1583.0</ele>
  <time>2026-08-28T17:53:14Z</time>
  <course>106.1</course>
  <speed>0.0632455532033676</speed>
  <fix>3d</fix>
</trkpt>
<trkpt lat="40.0714821" lon="-105.2296858">
  <ele>1583.0</ele>
  <time>2026-08-28T17:53:14Z</time>
  <course>104.57</course>
  <speed>0.28</speed>
  <fix>3d</fix>
</trkpt>
<trkpt lat="40.071482" lon="-105.2296854">
  <ele>1583.01</ele>
  <time>2026-08-28T17:53:14Z</time>
  <course>106.18</course>
  <speed>0.13601470508735444</speed>
  <fix>3d</fix>
</trkpt>
<trkpt lat="40.0714819" lon="-105.2296854">
  <ele>1583.0</ele>
  <time>2026-08-28T17:53:14Z</time>
  <course>105.22</course>
  <speed>0.07</speed>
  <fix>3d</fix>
</trkpt>
<trkpt lat="40.0714821" lon="-105.2296856">
  <ele>1583.01</ele>
  <time>2026-08-28T17:53:14Z</time>
  <course>106.35</course>
  <speed>0.196468827043885</speed>
  <fix>3d</fix>
</trkpt>
<trkpt lat="40.0714819" lon="-105.2296854">
  <ele>1583.0</ele>
  <time>2026-08-28T17:53:14Z</time>
  <course>105.22</course>
  <speed>0.07</speed>
  <fix>3d</fix>
</trkpt>
<trkpt lat="40.0714821" lon="-105.2296859">
  <ele>1583.01</ele>
  <time>2026-08-28T17:53:14Z</time>
  <course>106.58</course>
  <speed>0.24738633753705963</speed>
  <fix>3d</fix>
</trkpt>
<trkpt lat="40.0714819" lon="-105.2296854">
  <ele>1583.0</ele>
  <time>2026-08-28T17:53:14Z</time>
  <course>285.65</course>
  <speed>0.08</speed>
  <fix>3d</fix>
</trkpt>
<trkpt lat="40.0714821" lon="-105.2296862">
  <ele>1583.01</ele>
  <time>2026-08-28T17:53:14Z</time>
  <course>106.86</course>
  <speed>0.27892651361962706</speed>
  <fix>3d</fix>
</trkpt>
<trkpt lat="40.0714819" lon="-105.2296857">
  <ele>1583.0</ele>
  <time>2026-08-28T17:53:14Z</time>
  <course>285.99</course>
  <speed>0.18</speed>
  <fix>3d</fix>
</trkpt>
<trkpt lat="40.0714821" lon="-105.2296864">
  <ele>1583.01</ele>
  <time>2026-08-28T17:53:14Z</time>
  <course>107.15</course>
  <speed>0.30083217912982646</speed>
  <fix>3d</fix>
</trkpt>
<trkpt lat="40.0714819" lon="-105.2296857">
  <ele>1583.0</ele>
  <time>2026-08-28T17:53:14Z</time>
  <course>285.99</course>
  <speed>0.18</speed>
  <fix>3d</fix>
</trkpt>
<trkpt lat="40.0714822" lon="-105.2296867">
  <ele>1583.01</ele>
  <time>2026-08-28T17:53:14Z</time>
  <course>107.38</course>
  <speed>0.31048349392520047</speed>
  <fix>3d</fix>
</trkpt>
<trkpt lat="40.071482" lon="-105.2296861">
  <ele>1583.0</ele>
  <time>2026-08-28T17:53:14Z</time>
  <course>286.47</course>
  <speed>0.23</speed>
  <fix>3d</fix>
</trkpt>
<trkpt lat="40.0714823" lon="-105.229687">
  <ele>1583.01</ele>
  <time>2026-08-28T17:53:14Z</time>
  <course>107.41</course>
  <speed>0.32015621187164245</speed>
  <fix>3d</fix>
</trkpt>
<trkpt lat="40.071482" lon="-105.2296861">
  <ele>1583.0</ele>
  <time>2026-08-28T17:53:14Z</time>
  <course>286.47</course>
  <speed>0.23</speed>
  <fix>3d</fix>
</trkpt>
<trkpt lat="40.0714823" lon="-105.2296874">
  <ele>1583.01</ele>
  <time>2026-08-28T17:53:14Z</time>
  <course>107.48</course>
  <speed>0.3298484500494128</speed>
  <fix>3d</fix>
</trkpt>
<trkpt lat="40.0714822" lon="-105.2296867">
  <ele>1583.0</ele>
  <time>2026-08-28T17:53:14Z</time>
  <course>286.76</course>
  <speed>0.26</speed>
  <fix>3d</fix>
</trkpt>
<trkpt lat="40.0714824" lon="-105.2296877">
  <ele>1583.01</ele>
  <time>2026-08-28T17:53:14Z</time>
  <course>107.67</course>
  <speed>0.32015621187164245</speed>
  <fix>3d</fix>
</trkpt>
<trkpt lat="40.0714822" lon="-105.2296867">
  <ele>1583.0</ele>
  <time>2026-08-28T17:53:14Z</time>
  <course>286.76</course>
  <speed>0.26</speed>
  <fix>3d</fix>
</trkpt>
<trkpt lat="40.0714825" lon="-105.2296881">
  <ele>1583.01</ele>
  <time>2026-08-28T17:53:15Z</time>
  <course>107.97</course>
  <speed>0.28861739379323625</speed>
  <fix>3d</fix>
</trkpt>
<trkpt lat="40.0714823" lon="-105.2296873">
  <ele>1583.0</ele>
  <time>2026-08-28T17:53:15Z</time>
  <course>287.03</course>
  <speed>0.25</speed>
  <fix>3d</fix>
</trkpt>
<trkpt lat="40.0714825" lon="-105.2296883">
  <ele>1583.01</ele>
  <time>2026-08-28T17:53:15Z</time>
  <course>108.33</course>
  <speed>0.2353720459187964</speed>
  <fix>3d</fix>
</trkpt>
<trkpt lat="40.0714823" lon="-105.2296873">
  <ele>1583.0</ele>
  <time>2026-08-28T17:53:15Z</time>
  <course>287.03</course>
  <speed>0.25</speed>
  <fix>3d</fix>
</trkpt>
<trkpt lat="40.0714825" lon="-105.2296885">
  <ele>1583.01</ele>
  <time>2026-08-28T17:53:15Z</time>
  <course>108.68</course>
  <speed>0.17262676501632068</speed>
  <fix>3d</fix>
</trkpt>
<trkpt lat="40.0714824" lon="-105.2296877">
  <ele>1583.0</ele>
  <time>2026-08-28T17:53:15Z</time>
  <course>287.52</course>
  <speed>0.17</speed>
  <fix>3d</fix>
</trkpt>
<trkpt lat="40.0714825" lon="-105.2296886">
  <ele>1583.02</ele>
  <time>2026-08-28T17:53:15Z</time>
  <course>108.93</course>
  <speed>0.1</speed>
  <fix>3d</fix>
</trkpt>
<trkpt lat="40.0714824" lon="-105.2296877">
  <ele>1583.0</ele>
  <time>2026-08-28T17:53:15Z</time>
  <course>287.52</course>
  <speed>0.17</speed>
  <fix>3d</fix>
</trkpt>
<trkpt lat="40.0714825" lon="-105.2296886">
  <ele>1583.02</ele>
  <time>2026-08-28T17:53:15Z</time>
  <course>108.99</course>
  <speed>0.0412310562561766</speed>
  <fix>3d</fix>
</trkpt>
<trkpt lat="40.0714824" lon="-105.229688">
  <ele>1583.0</ele>
  <time>2026-08-28T17:53:15Z</time>
  <course>287.91</course>
  <speed>0.04</speed>
  <fix>3d</fix>
</trkpt>
<trkpt lat="40.0714825" lon="-105.2296885">
  <ele>1583.02</ele>
  <time>2026-08-28T17:53:15Z</time>
  <course>109.03</course>
  <speed>0.044721359549995794</speed>
  <fix>3d</fix>
</trkpt>
<trkpt lat="40.0714824" lon="-105.229688">
  <ele>1583.0</ele>
  <time>2026-08-28T17:53:15Z</time>
  <course>287.91</course>
  <speed>0.04</speed>
  <fix>3d</fix>
</trkpt>
<trkpt lat="40.0714824" lon="-105.2296884">
  <ele>1583.02</ele>
  <time>2026-08-28T17:53:15Z</time>
  <course>109.65</course>
  <speed>0.1</speed>
  <fix>3d</fix>
</trkpt>
<trkpt lat="40.0714824" lon="-105.229688">
  <ele>1583.0</ele>
  <time>2026-08-28T17:53:15Z</time>
  <course>108.89</course>
  <speed>0.08</speed>
  <fix>3d</fix>
</trkpt>
<trkpt lat="40.0714824" lon="-105.2296882">
  <ele>1583.02</ele>
  <time>2026-08-28T17:53:15Z</time>
  <course>110.67</course>
  <speed>0.17492855684535902</speed>
  <fix>3d</fix>
</trkpt>
<trkpt lat="40.0714824" lon="-105.229688">
  <ele>1583.0</ele>
  <time>2026-08-28T17:53:15Z</time>
  <course>108.89</course>
  <speed>0.08</speed>
  <fix>3d</fix>
</trkpt>
<trkpt lat="40.0714823" lon="-105.229688">
  <ele>1583.02</ele>
  <time>2026-08-28T17:53:15Z</time>
  <course>112.06</course>
  <speed>0.24698178070456936</speed>
  <fix>3d</fix>
</trkpt>
<trkpt lat="40.0714824" lon="-105.229688">
  <ele>1583.0</ele>
  <time>2026-08-28T17:53:15Z</time>
  <course>108.89</course>
  <speed>0.08</speed>
  <fix>3d</fix>
</trkpt>
<trkpt lat="40.0714822" lon="-105.2296876">
  <ele>1583.02</ele>
  <time>2026-08-28T17:53:15Z</time>
  <course>113.76</course>
  <speed>0.3138470965295043</speed>
  <fix>3d</fix>
</trkpt>
<trkpt lat="40.0714824" lon="-105.2296877">
  <ele>1583.0</ele>
  <time>2026-08-28T17:53:15Z</time>
  <course>110.53</course>
  <speed>0.22</speed>
  <fix>3d</fix>
</trkpt>
<trkpt lat="40.071482" lon="-105.2296872">
  <ele>1583.02</ele>
  <time>2026-08-28T17:53:15Z</time>
  <course>115.79</course>
  <speed>0.3911521443121589</speed>
  <fix>3d</fix>
</trkpt>
<trkpt lat="40.0714824" lon="-105.2296877">
  <ele>1583.0</ele>
  <time>2026-08-28T17:53:15Z</time>
  <course>110.53</course>
  <speed>0.22</speed>
  <fix>3d</fix>
</trkpt>
<trkpt lat="40.0714818" lon="-105.2296867">
  <ele>1583.02</ele>
  <time>2026-08-28T17:53:15Z</time>
  <course>118.39</course>
  <speed>0.4604345773288535</speed>
  <fix>3d</fix>
</trkpt>
<trkpt lat="40.0714823" lon="-105.2296871">
  <ele>1583.0</ele>
  <time>2026-08-28T17:53:15Z</time>
  <course>113.59</course>
  <speed>0.35</speed>
  <fix>3d</fix>
</trkpt>
<trkpt lat="40.0714816" lon="-105.2296862">
  <ele>1583.02</ele>
  <time>2026-08-28T17:53:15Z</time>
  <course>121.63</course>
  <speed>0.5360037313302959</speed>
  <fix>3d</fix>
</trkpt>
<trkpt lat="40.0714823" lon="-105.2296871">
  <ele>1583.0</ele>
  <time>2026-08-28T17:53:15Z</time>
  <course>113.59</course>
  <speed>0.35</speed>
  <fix>3d</fix>
</trkpt>
<trkpt lat="40.0714812" lon="-105.2296855">
  <ele>1583.02</ele>
  <time>2026-08-28T17:53:15Z</time>
  <course>125.48</course>
  <speed>0.6248199740725323</speed>
  <fix>3d</fix>
</trkpt>
<trkpt lat="40.071482" lon="-105.2296862">
  <ele>1583.0</ele>
  <time>2026-08-28T17:53:15Z</time>
  <course>118.44</course>
  <speed>0.49</speed>
  <fix>3d</fix>
</trkpt>
<trkpt lat="40.0714808" lon="-105.2296849">
  <ele>1583.02</ele>
  <time>2026-08-28T17:53:15Z</time>
  <course>129.9</course>
  <speed>0.7142128534267639</speed>
  <fix>3d</fix>
</trkpt>
<trkpt lat="40.0714814" lon="-105.229685">
  <ele>1583.0</ele>
  <time>2026-08-28T17:53:15Z</time>
  <course>125.57</course>
  <speed>0.64</speed>
  <fix>3d</fix>
</trkpt>
<trkpt lat="40.0714804" lon="-105.2296842">
  <ele>1583.02</ele>
  <time>2026-08-28T17:53:15Z</time>
  <course>134.82</course>
  <speed>0.808084154033477</speed>
  <fix>3d</fix>
</trkpt>
<trkpt lat="40.0714814" lon="-105.229685">
  <ele>1583.0</ele>
  <time>2026-08-28T17:53:15Z</time>
  <course>125.57</course>
  <speed>0.64</speed>
  <fix>3d</fix>
</trkpt>
<trkpt lat="40.0714798" lon="-105.2296835">
  <ele>1583.02</ele>
  <time>2026-08-28T17:53:15Z</time>
  <course>140.32</course>
  <speed>0.9080198235721508</speed>
  <fix>3d</fix>
</trkpt>
<trkpt lat="40.0714806" lon="-105.2296837">
  <ele>1583.0</ele>
  <time>2026-08-28T17:53:15Z</time>
  <course>134.98</course>
  <speed>0.81</speed>
  <fix>3d</fix>
</trkpt>
<trkpt lat="40.071479" lon="-105.2296828">
  <ele>1583.02</ele>
  <time>2026-08-28T17:53:15Z</time>
  <course>146.02</course>
  <speed>1.0135580891098448</speed>
  <fix>3d</fix>
</trkpt>
<trkpt lat="40.0714806" lon="-105.2296837">
  <ele>1583.0</ele>
  <time>2026-08-28T17:53:15Z</time>
  <course>134.98</course>
  <speed>0.81</speed>
  <fix>3d</fix>
</trkpt>
<trkpt lat="40.0714782" lon="-105.2296821">
  <ele>1583.02</ele>
  <time>2026-08-28T17:53:15Z</time>
  <course>151.07</course>
  <speed>1.1225862995778988</speed>
  <fix>3d</fix>
</trkpt>
<trkpt lat="40.0714793" lon="-105.2296824">
  <ele>1583.0</ele>
  <time>2026-08-28T17:53:15Z</time>
  <course>145.54</course>
  <speed>1.0</speed>
  <fix>3d</fix>
</trkpt>
<trkpt lat="40.0714772" lon="-105.2296815">
  <ele>1583.02</ele>
  <time>2026-08-28T17:53:15Z</time>
  <course>155.39</course>
  <speed>1.2293087488503447</speed>
  <fix>3d</fix>
</trkpt>
<trkpt lat="40.0714793" lon="-105.2296824">
  <ele>1583.0</ele>
  <time>2026-08-28T17:53:15Z</time>
  <course>145.54</course>
  <speed>1.0</speed>
  <fix>3d</fix>
</trkpt>
<trkpt lat="40.0714761" lon="-105.2296809">
  <ele>1583.02</ele>
  <time>2026-08-28T17:53:15Z</time>
  <course>159.09</course>
  <speed>1.3408206442324788</speed>
  <fix>3d</fix>
</trkpt>
<trkpt lat="40.0714775" lon="-105.2296811">
  <ele>1583.0</ele>
  <time>2026-08-28T17:53:15Z</time>
  <course>154.76</course>
  <speed>1.21</speed>
  <fix>3d</fix>
</trkpt>
<trkpt lat="40.0714749" lon="-105.2296803">
  <ele>1583.02</ele>
  <time>2026-08-28T17:53:15Z</time>
  <course>162.28</course>
  <speed>1.465639792036229</speed>
  <fix>3d</fix>
</trkpt>
<trkpt lat="40.0714775" lon="-105.2296811">
  <ele>1583.0</ele>
  <time>2026-08-28T17:53:15Z</time>
  <course>154.76</course>
  <speed>1.21</speed>
  <fix>3d</fix>
</trkpt>
<trkpt lat="40.0714736" lon="-105.2296798">
  <ele>1583.02</ele>
  <time>2026-08-28T17:53:15Z</time>
  <course>165.02</course>
  <speed>1.5717824276915684</speed>
  <fix>3d</fix>
</trkpt>
<trkpt lat="40.0714754" lon="-105.22968">
  <ele>1583.0</ele>
  <time>2026-08-28T17:53:15Z</time>
  <course>161.58</course>
  <speed>1.43</speed>
  <fix>3d</fix>
</trkpt>
<trkpt lat="40.0714722" lon="-105.2296794">
  <ele>1583.02</ele>
  <time>2026-08-28T17:53:15Z</time>
  <course>167.45</course>
  <speed>1.6807438829280326</speed>
  <fix>3d</fix>
</trkpt>
<trkpt lat="40.0714754" lon="-105.22968">
  <ele>1583.0</ele>
  <time>2026-08-28T17:53:15Z</time>
  <course>161.58</course>
  <speed>1.43</speed>
  <fix>3d</fix>
</trkpt>
<trkpt lat="40.0714706" lon="-105.229679">
  <ele>1583.02</ele>
  <time>2026-08-28T17:53:15Z</time>
  <course>169.5</course>
  <speed>1.782133552795637</speed>
  <fix>3d</fix>
</trkpt>
<trkpt lat="40.0714727" lon="-105.229679">
  <ele>1583.0</ele>
  <time>2026-08-28T17:53:15Z</time>
  <course>166.69</course>
  <speed>1.64</speed>
  <fix>3d</fix>
</trkpt>
<trkpt lat="40.071469" lon="-105.2296786">
  <ele>1583.02</ele>
  <time>2026-08-28T17:53:15Z</time>
  <course>171.26</course>
  <speed>1.8866372200293304</speed>
  <fix>3d</fix>
</trkpt>
<trkpt lat="40.0714727" lon="-105.229679">
  <ele>1583.0</ele>
  <time>2026-08-28T17:53:15Z</time>
  <course>166.69</course>
  <speed>1.64</speed>
  <fix>3d</fix>
</trkpt>
<trkpt lat="40.0714672" lon="-105.2296783">
  <ele>1583.02</ele>
  <time>2026-08-28T17:53:15Z</time>
  <course>172.76</course>
  <speed>1.991105220725414</speed>
  <fix>3d</fix>
</trkpt>
<trkpt lat="40.0714696" lon="-105.2296782">
  <ele>1583.0</ele>
  <time>2026-08-28T17:53:15Z</time>
  <course>170.51</course>
  <speed>1.85</speed>
  <fix>3d</fix>
</trkpt>
<trkpt lat="40.0714654" lon="-105.229678">
  <ele>1583.01</ele>
  <time>2026-08-28T17:53:15Z</time>
  <course>174.05</course>
  <speed>2.0977368757782755</speed>
  <fix>3d</fix>
</trkpt>
<trkpt lat="40.0714696" lon="-105.2296782">
  <ele>1583.0</ele>
  <time>2026-08-28T17:53:15Z</time>
  <course>170.51</course>
  <speed>1.85</speed>
  <fix>3d</fix>
</trkpt>
<trkpt lat="40.0714635" lon="-105.2296777">
  <ele>1583.01</ele>
  <time>2026-08-28T17:53:15Z</time>
  <course>175.16</course>
  <speed>2.2051077071199945</speed>
  <fix>3d</fix>
</trkpt>
<trkpt lat="40.0714696" lon="-105.2296782">
  <ele>1583.0</ele>
  <time>2026-08-28T17:53:15Z</time>
  <course>170.51</course>
  <speed>1.85</speed>
  <fix>3d</fix>
</trkpt>
<trkpt lat="40.0714615" lon="-105.2296775">
  <ele>1583.01</ele>
  <time>2026-08-28T17:53:15Z</time>
  <course>176.11</course>
  <speed>2.3136551169091732</speed>
  <fix>3d</fix>
</trkpt>
<trkpt lat="40.0714661" lon="-105.2296776">
  <ele>1583.0</ele>
  <time>2026-08-28T17:53:15Z</time>
  <course>173.32</course>
  <speed>2.06</speed>
  <fix>3d</fix>
</trkpt>
<trkpt lat="40.0714594" lon="-105.2296773">
  <ele>1583.01</ele>
  <time>2026-08-28T17:53:15Z</time>
  <course>176.93</course>
  <speed>2.422065234464175</speed>
  <fix>3d</fix>
</trkpt>
<trkpt lat="40.0714661" lon="-105.2296776">
  <ele>1583.0</ele>
  <time>2026-08-28T17:53:15Z</time>
  <course>173.32</course>
  <speed>2.06</speed>
  <fix>3d</fix>
</trkpt>
<trkpt lat="40.0714572" lon="-105.2296771">
  <ele>1583.01</ele>
  <time>2026-08-28T17:53:15Z</time>
  <course>177.63</course>
  <speed>2.521269521491108</speed>
  <fix>3d</fix>
</trkpt>
<trkpt lat="40.0714622" lon="-105.2296771">
  <ele>1583.0</ele>
  <time>2026-08-28T17:53:15Z</time>
  <course>175.38</course>
  <speed>2.27</speed>
  <fix>3d</fix>
</trkpt>
<trkpt lat="40.0714549" lon="-105.229677">
  <ele>1583.01</ele>
  <time>2026-08-28T17:53:15Z</time>
  <course>178.23</course>
  <speed>2.630684321616716</speed>
  <fix>3d</fix>
</trkpt>
<trkpt lat="40.0714622" lon="-105.2296771">
  <ele>1583.0</ele>
  <time>2026-08-28T17:53:15Z</time>
  <course>175.38</course>
  <speed>2.27</speed>
  <fix>3d</fix>
</trkpt>
<trkpt lat="40.0714525" lon="-105.2296769">
  <ele>1583.01</ele>
  <time>2026-08-28T17:53:15Z</time>
  <course>178.76</course>
  <speed>2.7302930245671435</speed>
  <fix>3d</fix>
</trkpt>
<trkpt lat="40.0714579" lon="-105.2296767">
  <ele>1583.0</ele>
  <time>2026-08-28T17:53:15Z</time>
  <course>176.91</course>
  <speed>2.48</speed>
  <fix>3d</fix>
</trkpt>
<trkpt lat="40.07145" lon="-105.2296768">
  <ele>1583.01</ele>
  <time>2026-08-28T17:53:15Z</time>
  <course>179.21</course>
  <speed>2.840070421662111</speed>
  <fix>3d</fix>
</trkpt>
<trkpt lat="40.0714533" lon="-105.2296764">
  <ele>1583.0</ele>
  <time>2026-08-28T17:53:15Z</time>
  <course>178.05</course>
  <speed>2.69</speed>
  <fix>3d</fix>
</trkpt>
<trkpt lat="40.0714474" lon="-105.2296767">
  <ele>1583.01</ele>
  <time>2026-08-28T17:53:15Z</time>
  <course>179.61</course>
  <speed>2.940017006753532</speed>
  <fix>3d</fix>
</trkpt>
<trkpt lat="40.0714533" lon="-105.2296764">
  <ele>1583.0</ele>
  <time>2026-08-28T17:53:15Z</time>
  <course>178.05</course>
  <speed>2.69</speed>
  <fix>3d</fix>
</trkpt>
<trkpt lat="40.0714447" lon="-105.2296767">
  <ele>1583.01</ele>
  <time>2026-08-28T17:53:15Z</time>
  <course>179.95</course>
  <speed>3.05</speed>
  <fix>3d</fix>
</trkpt>
<trkpt lat="40.0714483" lon="-105.2296762">
  <ele>1583.0</ele>
  <time>2026-08-28T17:53:15Z</time>
  <course>178.9</course>
  <speed>2.9</speed>
  <fix>3d</fix>
</trkpt>
<trkpt lat="40.071442" lon="-105.2296766">
  <ele>1583.01</ele>
  <time>2026-08-28T17:53:15Z</time>
  <course>180.27</course>
  <speed>3.1400159235265033</speed>
  <fix>3d</fix>
</trkpt>
<trkpt lat="40.0714483" lon="-105.2296762">
  <ele>1583.0</ele>
  <time>2026-08-28T17:53:15Z</time>
  <course>178.9</course>
  <speed>2.9</speed>
  <fix>3d</fix>
</trkpt>
<trkpt lat="40.0714391" lon="-105.2296766">
  <ele>1583.01</ele>
  <time>2026-08-28T17:53:15Z</time>
  <course>180.56</course>
  <speed>3.220139748520241</speed>
  <fix>3d</fix>
</trkpt>
<trkpt lat="40.0714428" lon="-105.2296762">
  <ele>1583.0</ele>
  <time>2026-08-28T17:53:15Z</time>
  <course>179.58</course>
  <speed>3.1</speed>
  <fix>3d</fix>
</trkpt>
<trkpt lat="40.0714362" lon="-105.2296766">
  <ele>1583.01</ele>
  <time>2026-08-28T17:53:15Z</time>
  <course>180.82</course>
  <speed>3.300242415338607</speed>
  <fix>3d</fix>
</trkpt>
<trkpt lat="40.0714428" lon="-105.2296762">
  <ele>1583.0</ele>
  <time>2026-08-28T17:53:15Z</time>
  <course>179.58</course>
  <speed>3.1</speed>
  <fix>3d</fix>
</trkpt>
<trkpt lat="40.0714332" lon="-105.2296766">
  <ele>1583.01</ele>
  <time>2026-08-28T17:53:15Z</time>
  <course>181.06</course>
  <speed>3.350537270349339</speed>
  <fix>3d</fix>
</trkpt>
<trkpt lat="40.0714372" lon="-105.2296762">
  <ele>1583.0</ele>
  <time>2026-08-28T17:53:15Z</time>
  <course>180.13</course>
  <speed>3.25</speed>
  <fix>3d</fix>
</trkpt>
<trkpt lat="40.0714301" lon="-105.2296766">
  <ele>1583.0</ele>
  <time>2026-08-28T17:53:15Z</time>
  <course>181.28</course>
  <speed>3.400720511891561</speed>
  <fix>3d</fix>
</trkpt>
<trkpt lat="40.0714372" lon="-105.2296762">
  <ele>1583.0</ele>
  <time>2026-08-28T17:53:15Z</time>
  <course>180.13</course>
  <speed>3.25</speed>
  <fix>3d</fix>
</trkpt>
<trkpt lat="40.071427" lon="-105.2296766">
  <ele>1583.0</ele>
  <time>2026-08-28T17:53:15Z</time>
  <course>181.51</course>
  <speed>3.4309328177625393</speed>
  <fix>3d</fix>
</trkpt>
<trkpt lat="40.0714312" lon="-105.2296762">
  <ele>1583.0</ele>
  <time>2026-08-28T17:53:15Z</time>
  <course>180.6</course>
  <speed>3.35</speed>
  <fix>3d</fix>
</trkpt>
<trkpt lat="40.0714239" lon="-105.2296767">
  <ele>1583.0</ele>
  <time>2026-08-28T17:53:15Z</time>
  <course>181.71</course>
  <speed>3.4411771241829445</speed>
  <fix>3d</fix>
</trkpt>
<trkpt lat="40.0714312" lon="-105.2296762">
  <ele>1583.0</ele>
  <time>2026-08-28T17:53:15Z</time>
  <course>180.6</course>
  <speed>3.35</speed>
  <fix>3d</fix>
</trkpt>
<trkpt lat="40.0714208" lon="-105.2296768">
  <ele>1583.01</ele>
  <time>2026-08-28T17:53:15Z</time>
  <course>181.9</course>
  <speed>3.4414531814336806</speed>
  <fix>3d</fix>
</trkpt>
<trkpt lat="40.0714251" lon="-105.2296762">
  <ele>1583.0</ele>
  <time>2026-08-28T17:53:15Z</time>
  <course>181.03</course>
  <speed>3.39</speed>
  <fix>3d</fix>
</trkpt>
<trkpt lat="40.0714178" lon="-105.2296768">
  <ele>1583.01</ele>
  <time>2026-08-28T17:53:15Z</time>
  <course>182.09</course>
  <speed>3.421768548572507</speed>
  <fix>3d</fix>
</trkpt>
<trkpt lat="40.0714251" lon="-105.2296762">
  <ele>1583.0</ele>
  <time>2026-08-28T17:53:15Z</time>
  <course>181.03</course>
  <speed>3.39</speed>
  <fix>3d</fix>
</trkpt>
<trkpt lat="40.0714147" lon="-105.2296769">
  <ele>1583.01</ele>
  <time>2026-08-28T17:53:15Z</time>
  <course>182.3</course>
  <speed>3.392123228893668</speed>
  <fix>3d</fix>
</trkpt>
<trkpt lat="40.0714191" lon="-105.2296763">
  <ele>1583.0</ele>
  <time>2026-08-28T17:53:15Z</time>
  <course>181.42</course>
  <speed>3.37</speed>
  <fix>3d</fix>
</trkpt>
<trkpt lat="40.0714117" lon="-105.229677">
  <ele>1583.01</ele>
  <time>2026-08-28T17:53:15Z</time>
  <course>182.52</course>
  <speed>3.342528982671654</speed>
  <fix>3d</fix>
</trkpt>
<trkpt lat="40.0714191" lon="-105.2296763">
  <ele>1583.0</ele>
  <time>2026-08-28T17:53:15Z</time>
  <course>181.42</course>
  <speed>3.37</speed>
  <fix>3d</fix>
</trkpt>
<trkpt lat="40.0714088" lon="-105.2296771">
  <ele>1583.0</ele>
  <time>2026-08-28T17:53:15Z</time>
  <course>182.74</course>
  <speed>3.2729955698106283</speed>
  <fix>3d</fix>
</trkpt>
<trkpt lat="40.0714191" lon="-105.2296763">
  <ele>1583.0</ele>
  <time>2026-08-28T17:53:15Z</time>
  <course>181.42</course>
  <speed>3.37</speed>
  <fix>3d</fix>
</trkpt>
<trkpt lat="40.0714059" lon="-105.2296773">
  <ele>1583.0</ele>
  <time>2026-08-28T17:53:15Z</time>
  <course>182.96</course>
  <speed>3.1930706224573235</speed>
  <fix>3d</fix>
</trkpt>
<trkpt lat="40.0714131" lon="-105.2296766">
  <ele>1583.0</ele>
  <time>2026-08-28T17:53:15Z</time>
  <course>181.85</course>
  <speed>3.29</speed>
  <fix>3d</fix>
</trkpt>
<trkpt lat="40.0714031" lon="-105.2296774">
  <ele>1583.0</ele>
  <time>2026-08-28T17:53:15Z</time>
  <course>183.21</course>
  <speed>3.0936386343592233</speed>
  <fix>3d</fix>
</trkpt>
<trkpt lat="40.0714131" lon="-105.2296766">
  <ele>1583.0</ele>
  <time>2026-08-28T17:53:15Z</time>
  <course>181.85</course>
  <speed>3.29</speed>
  <fix>3d</fix>
</trkpt>
<trkpt lat="40.0714005" lon="-105.2296775">
  <ele>1583.0</ele>
  <time>2026-08-28T17:53:15Z</time>
  <course>183.48</course>
  <speed>2.984292210893565</speed>
  <fix>3d</fix>
</trkpt>
<trkpt lat="40.0714072" lon="-105.2296769">
  <ele>1583.0</ele>
  <time>2026-08-28T17:53:15Z</time>
  <course>182.31</course>
  <speed>3.15</speed>
  <fix>3d</fix>
</trkpt>
<trkpt lat="40.0713979" lon="-105.2296777">
  <ele>1583.0</ele>
  <time>2026-08-28T17:53:15Z</time>
  <course>183.75</course>
  <speed>2.8644720281406135</speed>
  <fix>3d</fix>
</trkpt>
<trkpt lat="40.0714072" lon="-105.2296769">
  <ele>1583.0</ele>
  <time>2026-08-28T17:53:15Z</time>
  <course>182.31</course>
  <speed>3.15</speed>
  <fix>3d</fix>
</trkpt>
<trkpt lat="40.0713955" lon="-105.2296779">
  <ele>1583.0</ele>
  <time>2026-08-28T17:53:15Z</time>
  <course>184.05</course>
  <speed>2.7352879190315598</speed>
  <fix>3d</fix>
</trkpt>
<trkpt lat="40.0714017" lon="-105.2296772">
  <ele>1583.0</ele>
  <time>2026-08-28T17:53:15Z</time>
  <course>182.82</course>
  <speed>2.96</speed>
  <fix>3d</fix>
</trkpt>
<trkpt lat="40.0713931" lon="-105.229678">
  <ele>1583.0</ele>
  <time>2026-08-28T17:53:15Z</time>
  <course>184.35</course>
  <speed>2.605551764981844</speed>
  <fix>3d</fix>
</trkpt>
<trkpt lat="40.0714017" lon="-105.2296772">
  <ele>1583.0</ele>
  <time>2026-08-28T17:53:15Z</time>
  <course>182.82</course>
  <speed>2.96</speed>
  <fix>3d</fix>
</trkpt>
<trkpt lat="40.0713909" lon="-105.2296782">
  <ele>1583.0</ele>
  <time>2026-08-28T17:53:15Z</time>
  <course>184.68</course>
  <speed>2.4558908770545975</speed>
  <fix>3d</fix>
</trkpt>
<trkpt lat="40.0713966" lon="-105.2296776">
  <ele>1583.0</ele>
  <time>2026-08-28T17:53:15Z</time>
  <course>183.39</course>
  <speed>2.72</speed>
  <fix>3d</fix>
</trkpt>
<trkpt lat="40.0713888" lon="-105.2296784">
  <ele>1583.0</ele>
  <time>2026-08-28T17:53:15Z</time>
  <course>185.02</course>
  <speed>2.3170023737579557</speed>
  <fix>3d</fix>
</trkpt>
<trkpt lat="40.071392" lon="-105.2296779">
  <ele>1583.0</ele>
  <time>2026-08-28T17:53:15Z</time>
  <course>184.02</course>
  <speed>2.45</speed>
  <fix>3d</fix>
</trkpt>
<trkpt lat="40.0713869" lon="-105.2296786">
  <ele>1583.0</ele>
  <time>2026-08-28T17:53:15Z</time>
  <course>185.38</course>
  <speed>2.167487024182613</speed>
  <fix>3d</fix>
</trkpt>
<trkpt lat="40.071392" lon="-105.2296779">
  <ele>1583.0</ele>
  <time>2026-08-28T17:53:15Z</time>
  <course>184.02</course>
  <speed>2.45</speed>
  <fix>3d</fix>
</trkpt>
<trkpt lat="40.0713851" lon="-105.2296788">
  <ele>1583.0</ele>
  <time>2026-08-28T17:53:15Z</time>
  <course>185.77</course>
  <speed>2.0180436070610566</speed>
  <fix>3d</fix>
</trkpt>
<trkpt lat="40.0713878" lon="-105.2296784">
  <ele>1583.0</ele>
  <time>2026-08-28T17:53:15Z</time>
  <course>184.72</course>
  <speed>2.17</speed>
  <fix>3d</fix>
</trkpt>
<trkpt lat="40.0713834" lon="-105.229679">
  <ele>1583.0</ele>
  <time>2026-08-28T17:53:15Z</time>
  <course>186.21</course>
  <speed>1.8686893802876923</speed>
  <fix>3d</fix>
</trkpt>
<trkpt lat="40.0713878" lon="-105.2296784">
  <ele>1583.0</ele>
  <time>2026-08-28T17:53:15Z</time>
  <course>184.72</course>
  <speed>2.17</speed>
  <fix>3d</fix>
</trkpt>
<trkpt lat="40.0713818" lon="-105.2296792">
  <ele>1583.0</ele>
  <time>2026-08-28T17:53:15Z</time>
  <course>186.67</course>
  <speed>1.719447585708852</speed>
  <fix>3d</fix>
</trkpt>
<trkpt lat="40.0713842" lon="-105.2296787">
  <ele>1583.0</ele>
  <time>2026-08-28T17:53:15Z</time>
  <course>185.54</course>
  <speed>1.88</speed>
  <fix>3d</fix>
</trkpt>
<trkpt lat="40.0713804" lon="-105.2296794">
  <ele>1583.0</ele>
  <time>2026-08-28T17:53:15Z</time>
  <course>187.19</course>
  <speed>1.5791770008456936</speed>
  <fix>3d</fix>
</trkpt>
<trkpt lat="40.0713842" lon="-105.2296787">
  <ele>1583.0</ele>
  <time>2026-08-28T17:53:15Z</time>
  <course>185.54</course>
  <speed>1.88</speed>
  <fix>3d</fix>
</trkpt>
<trkpt lat="40.071379" lon="-105.2296795">
  <ele>1583.0</ele>
  <time>2026-08-28T17:53:15Z</time>
  <course>187.78</course>
  <speed>1.4301398533010679</speed>
  <fix>3d</fix>
</trkpt>
<trkpt lat="40.0713811" lon="-105.2296792">
  <ele>1583.0</ele>
  <time>2026-08-28T17:53:15Z</time>
  <course>186.53</course>
  <speed>1.6</speed>
  <fix>3d</fix>
</trkpt>
<trkpt lat="40.0713778" lon="-105.2296797">
  <ele>1583.0</ele>
  <time>2026-08-28T17:53:15Z</time>
  <course>188.45</course>
  <speed>1.291239714383042</speed>
  <fix>3d</fix>
</trkpt>
<trkpt lat="40.0713811" lon="-105.2296792">
  <ele>1583.0</ele>
  <time>2026-08-28T17:53:15Z</time>
  <course>186.53</course>
  <speed>1.6</speed>
  <fix>3d</fix>
</trkpt>
<trkpt lat="40.0713768" lon="-105.2296799">
  <ele>1583.01</ele>
  <time>2026-08-28T17:53:15Z</time>
  <course>189.22</course>
  <speed>1.1526057435220423</speed>
  <fix>3d</fix>
</trkpt>
<trkpt lat="40.0713785" lon="-105.2296796">
  <ele>1583.0</ele>
  <time>2026-08-28T17:53:15Z</time>
  <course>187.77</course>
  <speed>1.32</speed>
  <fix>3d</fix>
</trkpt>
<trkpt lat="40.0713759" lon="-105.2296801">
  <ele>1583.01</ele>
  <time>2026-08-28T17:53:15Z</time>
  <course>190.12</course>
  <speed>1.012719112093773</speed>
  <fix>3d</fix>
</trkpt>
<trkpt lat="40.0713785" lon="-105.2296796">
  <ele>1583.0</ele>
  <time>2026-08-28T17:53:15Z</time>
  <course>187.77</course>
  <speed>1.32</speed>
  <fix>3d</fix>
</trkpt>
<trkpt lat="40.071375" lon="-105.2296803">
  <ele>1583.01</ele>
  <time>2026-08-28T17:53:15Z</time>
  <course>191.12</course>
  <speed>0.8845903006477066</speed>
  <fix>3d</fix>
</trkpt>
<trkpt lat="40.0713764" lon="-105.2296801">
  <ele>1583.0</ele>
  <time>2026-08-28T17:53:15Z</time>
  <course>189.39</course>
  <speed>1.05</speed>
  <fix>3d</fix>
</trkpt>
<trkpt lat="40.0713743" lon="-105.2296805">
  <ele>1583.01</ele>
  <time>2026-08-28T17:53:15Z</time>
  <course>192.08</course>
  <speed>0.7550496672405067</speed>
  <fix>3d</fix>
</trkpt>
<trkpt lat="40.0713764" lon="-105.2296801">
  <ele>1583.0</ele>
  <time>2026-08-28T17:53:15Z</time>
  <course>189.39</course>
  <speed>1.05</speed>
  <fix>3d</fix>
</trkpt>
<trkpt lat="40.0713738" lon="-105.2296807">
  <ele>1583.01</ele>
  <time>2026-08-28T17:53:15Z</time>
  <course>193.0</course>
  <speed>0.6334824385884742</speed>
  <fix>3d</fix>
</trkpt>
<trkpt lat="40.0713748" lon="-105.2296805">
  <ele>1583.0</ele>
  <time>2026-08-28T17:53:15Z</time>
  <course>191.26</course>
  <speed>0.8</speed>
  <fix>3d</fix>
</trkpt>
<trkpt lat="40.0713733" lon="-105.2296808">
  <ele>1583.01</ele>
  <time>2026-08-28T17:53:15Z</time>
  <course>193.86</course>
  <speed>0.5119570294468082</speed>
  <fix>3d</fix>
</trkpt>
<trkpt lat="40.0713748" lon="-105.2296805">
  <ele>1583.0</ele>
  <time>2026-08-28T17:53:15Z</time>
  <course>191.26</course>
  <speed>0.8</speed>
  <fix>3d</fix>
</trkpt>
<trkpt lat="40.0713729" lon="-105.2296809">
  <ele>1583.01</ele>
  <time>2026-08-28T17:53:15Z</time>
  <course>194.59</course>
  <speed>0.3905124837953327</speed>
  <fix>3d</fix>
</trkpt>
<trkpt lat="40.0713748" lon="-105.2296805">
  <ele>1583.0</ele>
  <time>2026-08-28T17:53:15Z</time>
  <course>191.26</course>
  <speed>0.8</speed>
  <fix>3d</fix>
</trkpt>
<trkpt lat="40.0713726" lon="-105.229681">
  <ele>1583.02</ele>
  <time>2026-08-28T17:53:15Z</time>
  <course>195.16</course>
  <speed>0.27892651361962706</speed>
  <fix>3d</fix>
</trkpt>
<trkpt lat="40.0713736" lon="-105.2296808">
  <ele>1583.0</ele>
  <time>2026-08-28T17:53:15Z</time>
  <course>192.97</course>
  <speed>0.56</speed>
  <fix>3d</fix>
</trkpt>
<trkpt lat="40.0713724" lon="-105.2296811">
  <ele>1583.02</ele>
  <time>2026-08-28T17:53:15Z</time>
  <course>195.57</course>
  <speed>0.1676305461424021</speed>
  <fix>3d</fix>
</trkpt>
<trkpt lat="40.0713736" lon="-105.2296808">
  <ele>1583.0</ele>
  <time>2026-08-28T17:53:15Z</time>
  <course>192.97</course>
  <speed>0.56</speed>
  <fix>3d</fix>
</trkpt>
<trkpt lat="40.0713723" lon="-105.2296812">
  <ele>1583.03</ele>
  <time>2026-08-28T17:53:15Z</time>
  <course>195.82</course>
  <speed>0.0632455532033676</speed>
  <fix>3d</fix>
</trkpt>
<trkpt lat="40.0713727" lon="-105.229681">
  <ele>1583.0</ele>
  <time>2026-08-28T17:53:15Z</time>
  <course>194.26</course>
  <speed>0.33</speed>
  <fix>3d</fix>
</trkpt>
<trkpt lat="40.0713723" lon="-105.2296812">
  <ele>1583.03</ele>
  <time>2026-08-28T17:53:15Z</time>
  <course>195.93</course>
  <speed>0.01</speed>
  <fix>3d</fix>
</trkpt>
<trkpt lat="40.0713727" lon="-105.229681">
  <ele>1583.0</ele>
  <time>2026-08-28T17:53:15Z</time>
  <course>194.26</course>
  <speed>0.33</speed>
  <fix>3d</fix>
</trkpt>
<trkpt lat="40.0713724" lon="-105.2296812">
  <ele>1583.03</ele>
  <time>2026-08-28T17:53:15Z</time>
  <course>195.94</course>
  <speed>0.09055385138137417</speed>
  <fix>3d</fix>
</trkpt>
<trkpt lat="40.0713724" lon="-105.2296812">
  <ele>1583.0</ele>
  <time>2026-08-28T17:53:15Z</time>
  <course>194.96</course>
  <speed>0.13</speed>
  <fix>3d</fix>
</trkpt>
<trkpt lat="40.0713725" lon="-105.2296811">
  <ele>1583.03</ele>
  <time>2026-08-28T17:53:15Z</time>
  <course>196.02</course>
  <speed>0.15297058540778355</speed>
  <fix>3d</fix>
</trkpt>
<trkpt lat="40.0713723" lon="-105.2296812">
  <ele>1583.0</ele>
  <time>2026-08-28T17:53:15Z</time>
  <course>15.35</course>
  <speed>0.03</speed>
  <fix>3d</fix>
</trkpt>
<trkpt lat="40.0713726" lon="-105.2296811">
  <ele>1583.03</ele>
  <time>2026-08-28T17:53:15Z</time>
  <course>196.17</course>
  <speed>0.2039607805437114</speed>
  <fix>3d</fix>
</trkpt>
<trkpt lat="40.0713723" lon="-105.2296812">
  <ele>1583.0</ele>
  <time>2026-08-28T17:53:15Z</time>
  <course>15.35</course>
  <speed>0.03</speed>
  <fix>3d</fix>
</trkpt>
<trkpt lat="40.0713727" lon="-105.2296811">
  <ele>1583.03</ele>
  <time>2026-08-28T17:53:15Z</time>
  <course>196.37</course>
  <speed>0.24515301344262524</speed>
  <fix>3d</fix>
</trkpt>
<trkpt lat="40.0713724" lon="-105.2296811">
  <ele>1583.0</ele>
  <time>2026-08-28T17:53:15Z</time>
  <course>15.55</course>
  <speed>0.14</speed>
  <fix>3d</fix>
</trkpt>
<trkpt lat="40.071373" lon="-105.2296811">
  <ele>1583.03</ele>
  <time>2026-08-28T17:53:15Z</time>
  <course>196.55</course>
  <speed>0.2765863337187866</speed>
  <fix>3d</fix>
</trkpt>
<trkpt lat="40.0713724" lon="-105.2296811">
  <ele>1583.0</ele>
  <time>2026-08-28T17:53:15Z</time>
  <course>15.55</course>
  <speed>0.14</speed>
  <fix>3d</fix>
</trkpt>
<trkpt lat="40.0713732" lon="-105.229681">
  <ele>1583.03</ele>
  <time>2026-08-28T17:53:15Z</time>
  <course>196.58</course>
  <speed>0.3059411708155671</speed>
  <fix>3d</fix>
</trkpt>
<trkpt lat="40.0713727" lon="-105.229681">
  <ele>1583.0</ele>
  <time>2026-08-28T17:53:15Z</time>
  <course>15.79</course>
  <speed>0.22</speed>
  <fix>3d</fix>
</trkpt>
<trkpt lat="40.0713735" lon="-105.2296809">
  <ele>1583.03</ele>
  <time>2026-08-28T17:53:15Z</time>
  <course>196.6</course>
  <speed>0.33734255586865997</speed>
  <fix>3d</fix>
</trkpt>
<trkpt lat="40.0713727" lon="-105.229681">
  <ele>1583.0</ele>
  <time>2026-08-28T17:53:15Z</time>
  <course>15.79</course>
  <speed>0.22</speed>
  <fix>3d</fix>
</trkpt>
<trkpt lat="40.0713737" lon="-105.2296808">
  <ele>1583.03</ele>
  <time>2026-08-28T17:53:15Z</time>
  <course>196.68</course>
  <speed>0.34713109915419565</speed>
  <fix>3d</fix>
</trkpt>
<trkpt lat="40.0713731" lon="-105.229681">
  <ele>1583.0</ele>
  <time>2026-08-28T17:53:15Z</time>
  <course>15.93</course>
  <speed>0.27</speed>
  <fix>3d</fix>
</trkpt>
<trkpt lat="40.071374" lon="-105.2296807">
  <ele>1583.03</ele>
  <time>2026-08-28T17:53:15Z</time>
  <course>196.91</course>
  <speed>0.33734255586865997</speed>
  <fix>3d</fix>
</trkpt>
<trkpt lat="40.0713731" lon="-105.229681">
  <ele>1583.0</ele>
  <time>2026-08-28T17:53:15Z</time>
  <course>15.93</course>
  <speed>0.27</speed>
  <fix>3d</fix>
</trkpt>
<trkpt lat="40.0713743" lon="-105.2296806">
  <ele>1583.03</ele>
  <time>2026-08-28T17:53:15Z</time>
  <course>197.24</course>
  <speed>0.3059411708155671</speed>
  <fix>3d</fix>
</trkpt>
<trkpt lat="40.0713736" lon="-105.2296807">
  <ele>1583.0</ele>
  <time>2026-08-28T17:53:15Z</time>
  <course>16.23</course>
  <speed>0.27</speed>
  <fix>3d</fix>
</trkpt>
<trkpt lat="40.0713745" lon="-105.2296806">
  <ele>1583.03</ele>
  <time>2026-08-28T17:53:15Z</time>
  <course>197.65</course>
  <speed>0.25317977802344327</speed>
  <fix>3d</fix>
</trkpt>
<trkpt lat="40.0713736" lon="-105.2296807">
  <ele>1583.0</ele>
  <time>2026-08-28T17:53:15Z</time>
  <course>16.23</course>
  <speed>0.27</speed>
  <fix>3d</fix>
</trkpt>
<trkpt lat="40.0713746" lon="-105.2296805">
  <ele>1583.03</ele>
  <time>2026-08-28T17:53:15Z</time>
  <course>198.06</course>
  <speed>0.191049731745428</speed>
  <fix>3d</fix>
</trkpt>
<trkpt lat="40.071374" lon="-105.2296806">
  <ele>1583.0</ele>
  <time>2026-08-28T17:53:15Z</time>
  <course>16.8</course>
  <speed>0.19</speed>
  <fix>3d</fix>
</trkpt>
<trkpt lat="40.0713747" lon="-105.2296805">
  <ele>1583.03</ele>
  <time>2026-08-28T17:53:15Z</time>
  <course>198.37</course>
  <speed>0.11</speed>
  <fix>3d</fix>
</trkpt>
<trkpt lat="40.071374" lon="-105.2296806">
  <ele>1583.0</ele>
  <time>2026-08-28T17:53:15Z</time>
  <course>16.8</course>
  <speed>0.19</speed>
  <fix>3d</fix>
</trkpt>
<trkpt lat="40.0713748" lon="-105.2296805">
  <ele>1583.03</ele>
  <time>2026-08-28T17:53:15Z</time>
  <course>198.48</course>
  <speed>0.044721359549995794</speed>
  <fix>3d</fix>
</trkpt>
<trkpt lat="40.0713742" lon="-105.2296805">
  <ele>1583.0</ele>
  <time>2026-08-28T17:53:15Z</time>
  <course>17.29</course>
  <speed>0.06</speed>
  <fix>3d</fix>
</trkpt>
<trkpt lat="40.0713747" lon="-105.2296806">
  <ele>1583.03</ele>
  <time>2026-08-28T17:53:15Z</time>
  <course>198.53</course>
  <speed>0.053851648071345036</speed>
  <fix>3d</fix>
</trkpt>
<trkpt lat="40.0713742" lon="-105.2296805">
  <ele>1583.0</ele>
  <time>2026-08-28T17:53:15Z</time>
  <course>17.29</course>
  <speed>0.06</speed>
  <fix>3d</fix>
</trkpt>
<trkpt lat="40.0713746" lon="-105.2296806">
  <ele>1583.03</ele>
  <time>2026-08-28T17:53:15Z</time>
  <course>199.16</course>
  <speed>0.11401754250991379</speed>
  <fix>3d</fix>
</trkpt>
<trkpt lat="40.0713742" lon="-105.2296805">
  <ele>1583.0</ele>
  <time>2026-08-28T17:53:15Z</time>
  <course>17.29</course>
  <speed>0.06</speed>
  <fix>3d</fix>
</trkpt>
<trkpt lat="40.0713745" lon="-105.2296807">
  <ele>1583.03</ele>
  <time>2026-08-28T17:53:15Z</time>
  <course>200.23</course>
  <speed>0.194164878389476</speed>
  <fix>3d</fix>
</trkpt>
<trkpt lat="40.0713742" lon="-105.2296805">
  <ele>1583.0</ele>
  <time>2026-08-28T17:53:15Z</time>
  <course>198.41</course>
  <speed>0.08</speed>
  <fix>3d</fix>
</trkpt>
<trkpt lat="40.0713743" lon="-105.2296808">
  <ele>1583.03</ele>
  <time>2026-08-28T17:53:15Z</time>
  <course>201.74</course>
  <speed>0.2692582403567252</speed>
  <fix>3d</fix>
</trkpt>
<trkpt lat="40.0713742" lon="-105.2296805">
  <ele>1583.0</ele>
  <time>2026-08-28T17:53:15Z</time>
  <course>198.41</course>
  <speed>0.08</speed>
  <fix>3d</fix>
</trkpt>
<trkpt lat="40.071374" lon="-105.229681">
  <ele>1583.04</ele>
  <time>2026-08-28T17:53:15Z</time>
  <course>203.62</course>
  <speed>0.34985711369071804</speed>
  <fix>3d</fix>
</trkpt>
<trkpt lat="40.071374" lon="-105.2296806">
  <ele>1583.0</ele>
  <time>2026-08-28T17:53:15Z</time>
  <course>200.14</course>
  <speed>0.23</speed>
  <fix>3d</fix>
</trkpt>
<trkpt lat="40.0713736" lon="-105.2296812">
  <ele>1583.04</ele>
  <time>2026-08-28T17:53:15Z</time>
  <course>205.79</course>
  <speed>0.42720018726587655</speed>
  <fix>3d</fix>
</trkpt>
<trkpt lat="40.071374" lon="-105.2296806">
  <ele>1583.0</ele>
  <time>2026-08-28T17:53:15Z</time>
  <course>200.14</course>
  <speed>0.23</speed>
  <fix>3d</fix>
</trkpt>
<trkpt lat="40.0713732" lon="-105.2296815">
  <ele>1583.04</ele>
  <time>2026-08-28T17:53:15Z</time>
  <course>208.31</course>
  <speed>0.49648766349225637</speed>
  <fix>3d</fix>
</trkpt>
<trkpt lat="40.0713736" lon="-105.2296808">
  <ele>1583.0</ele>
  <time>2026-08-28T17:53:15Z</time>
  <course>203.43</course>
  <speed>0.37</speed>
  <fix>3d</fix>
</trkpt>
<trkpt lat="40.0713728" lon="-105.2296819">
  <ele>1583.04</ele>
  <time>2026-08-28T17:53:15Z</time>
  <course>211.45</course>
  <speed>0.578013840664737</speed>
  <fix>3d</fix>
</trkpt>
<trkpt lat="40.0713736" lon="-105.2296808">
  <ele>1583.0</ele>
  <time>2026-08-28T17:53:15Z</time>
  <course>203.43</course>
  <speed>0.37</speed>
  <fix>3d</fix>
</trkpt>
<trkpt lat="40.0713723" lon="-105.2296823">
  <ele>1583.04</ele>
  <time>2026-08-28T17:53:15Z</time>
  <course>215.25</course>
  <speed>0.6529931086925803</speed>
  <fix>3d</fix>
</trkpt>
<trkpt lat="40.0713728" lon="-105.2296813">
  <ele>1583.0</ele>
  <time>2026-08-28T17:53:15Z</time>
  <course>208.29</course>
  <speed>0.52</speed>
  <fix>3d</fix>
</trkpt>
<trkpt lat="40.0713717" lon="-105.2296828">
  <ele>1583.04</ele>
  <time>2026-08-28T17:53:15Z</time>
  <course>219.65</course>
  <speed>0.7424957912338628</speed>
  <fix>3d</fix>
</trkpt>
<trkpt lat="40.0713719" lon="-105.229682">
  <ele>1583.0</ele>
  <time>2026-08-28T17:53:15Z</time>
  <course>215.28</course>
  <speed>0.66</speed>
  <fix>3d</fix>
</trkpt>
<trkpt lat="40.0713712" lon="-105.2296835">
  <ele>1583.04</ele>
  <time>2026-08-28T17:53:15Z</time>
  <course>224.65</course>
  <speed>0.8287943049997388</speed>
  <fix>3d</fix>
</trkpt>
<trkpt lat="40.0713719" lon="-105.229682">
  <ele>1583.0</ele>
  <time>2026-08-28T17:53:15Z</time>
  <course>215.28</course>
  <speed>0.66</speed>
  <fix>3d</fix>
</trkpt>
<trkpt lat="40.0713707" lon="-105.2296843">
  <ele>1583.04</ele>
  <time>2026-08-28T17:53:15Z</time>
  <course>230.06</course>
  <speed>0.9220086767487604</speed>
  <fix>3d</fix>
</trkpt>
<trkpt lat="40.0713709" lon="-105.2296832">
  <ele>1583.0</ele>
  <time>2026-08-28T17:53:15Z</time>
  <course>224.67</course>
  <speed>0.82</speed>
  <fix>3d</fix>
</trkpt>
<trkpt lat="40.0713701" lon="-105.2296852">
  <ele>1583.03</ele>
  <time>2026-08-28T17:53:15Z</time>
  <course>235.56</course>
  <speed>1.0187246929372038</speed>
  <fix>3d</fix>
</trkpt>
<trkpt lat="40.0713709" lon="-105.2296832">
  <ele>1583.0</ele>
  <time>2026-08-28T17:53:15Z</time>
  <course>224.67</course>
  <speed>0.82</speed>
  <fix>3d</fix>
</trkpt>
<trkpt lat="40.0713696" lon="-105.2296863">
  <ele>1583.03</ele>
  <time>2026-08-28T17:53:15Z</time>
  <course>240.59</course>
  <speed>1.118033988749895</speed>
  <fix>3d</fix>
</trkpt>
<trkpt lat="40.0713698" lon="-105.2296848">
  <ele>1583.0</ele>
  <time>2026-08-28T17:53:15Z</time>
  <course>235.13</course>
  <speed>1.0</speed>
  <fix>3d</fix>
</trkpt>
<trkpt lat="40.0713691" lon="-105.2296876">
  <ele>1583.03</ele>
  <time>2026-08-28T17:53:15Z</time>
  <course>244.87</course>
  <speed>1.2277214667830811</speed>
  <fix>3d</fix>
</trkpt>
<trkpt lat="40.0713698" lon="-105.2296848">
  <ele>1583.0</ele>
  <time>2026-08-28T17:53:15Z</time>
  <course>235.13</course>
  <speed>1.0</speed>
  <fix>3d</fix>
</trkpt>
<trkpt lat="40.0713686" lon="-105.229689">
  <ele>1583.03</ele>
  <time>2026-08-28T17:53:15Z</time>
  <course>248.57</course>
  <speed>1.3346160496562296</speed>
  <fix>3d</fix>
</trkpt>
<trkpt lat="40.0713688" lon="-105.229687">
  <ele>1583.0</ele>
  <time>2026-08-28T17:53:15Z</time>
  <course>244.21</course>
  <speed>1.2</speed>
  <fix>3d</fix>
</trkpt>
<trkpt lat="40.0713682" lon="-105.2296905">
  <ele>1583.03</ele>
  <time>2026-08-28T17:53:15Z</time>
  <course>251.72</course>
  <speed>1.4492066795319432</speed>
  <fix>3d</fix>
</trkpt>
<trkpt lat="40.0713688" lon="-105.229687">
  <ele>1583.0</ele>
  <time>2026-08-28T17:53:15Z</time>
  <course>244.21</course>
  <speed>1.2</speed>
  <fix>3d</fix>
</trkpt>
<trkpt lat="40.0713678" lon="-105.2296922">
  <ele>1583.02</ele>
  <time>2026-08-28T17:53:15Z</time>
  <course>254.42</course>
  <speed>1.557080601638849</speed>
  <fix>3d</fix>
</trkpt>
<trkpt lat="40.0713679" lon="-105.2296899">
  <ele>1583.0</ele>
  <time>2026-08-28T17:53:15Z</time>
  <course>250.99</course>
  <speed>1.41</speed>
  <fix>3d</fix>
</trkpt>
<trkpt lat="40.0713674" lon="-105.2296941">
  <ele>1583.02</ele>
  <time>2026-08-28T17:53:15Z</time>
  <course>256.84</course>
  <speed>1.6552945357246849</speed>
  <fix>3d</fix>
</trkpt>
<trkpt lat="40.0713679" lon="-105.2296899">
  <ele>1583.0</ele>
  <time>2026-08-28T17:53:15Z</time>
  <course>250.99</course>
  <speed>1.41</speed>
  <fix>3d</fix>
</trkpt>
<trkpt lat="40.0713671" lon="-105.229696">
  <ele>1583.02</ele>
  <time>2026-08-28T17:53:15Z</time>
  <course>258.91</course>
  <speed>1.7558188972670274</speed>
  <fix>3d</fix>
</trkpt>
<trkpt lat="40.0713672" lon="-105.2296933">
  <ele>1583.0</ele>
  <time>2026-08-28T17:53:15Z</time>
  <course>256.08</course>
  <speed>1.61</speed>
  <fix>3d</fix>
</trkpt>
<trkpt lat="40.0713668" lon="-105.2296981">
  <ele>1583.01</ele>
  <time>2026-08-28T17:53:15Z</time>
  <course>260.68</course>
  <speed>1.8597042775667318</speed>
  <fix>3d</fix>
</trkpt>
<trkpt lat="40.0713672" lon="-105.2296933">
  <ele>1583.0</ele>
  <time>2026-08-28T17:53:15Z</time>
  <course>256.08</course>
  <speed>1.61</speed>
  <fix>3d</fix>
</trkpt>
<trkpt lat="40.0713665" lon="-105.2297003">
  <ele>1583.01</ele>
  <time>2026-08-28T17:53:15Z</time>
  <course>262.18</course>
  <speed>1.9647137196039528</speed>
  <fix>3d</fix>
</trkpt>
<trkpt lat="40.0713666" lon="-105.2296972">
  <ele>1583.0</ele>
  <time>2026-08-28T17:53:15Z</time>
  <course>259.92</course>
  <speed>1.81</speed>
  <fix>3d</fix>
</trkpt>
<trkpt lat="40.0713663" lon="-105.2297027">
  <ele>1583.01</ele>
  <time>2026-08-28T17:53:15Z</time>
  <course>263.48</course>
  <speed>2.060728026693479</speed>
  <fix>3d</fix>
</trkpt>
<trkpt lat="40.0713666" lon="-105.2296972">
  <ele>1583.0</ele>
  <time>2026-08-28T17:53:15Z</time>
  <course>259.92</course>
  <speed>1.81</speed>
  <fix>3d</fix>
</trkpt>
<trkpt lat="40.0713661" lon="-105.2297051">
  <ele>1583.02</ele>
  <time>2026-08-28T17:53:15Z</time>
  <course>264.57</course>
  <speed>2.167487024182613</speed>
  <fix>3d</fix>
</trkpt>
<trkpt lat="40.0713666" lon="-105.2296972">
  <ele>1583.0</ele>
  <time>2026-08-28T17:53:15Z</time>
  <course>259.92</course>
  <speed>1.81</speed>
  <fix>3d</fix>
</trkpt>
<trkpt lat="40.0713659" lon="-105.2297077">
  <ele>1583.02</ele>
  <time>2026-08-28T17:53:15Z</time>
  <course>265.5</course>
  <speed>2.2756317804073665</speed>
  <fix>3d</fix>
</trkpt>
<trkpt lat="40.0713661" lon="-105.2297016">
  <ele>1583.0</ele>
  <time>2026-08-28T17:53:15Z</time>
  <course>262.73</course>
  <speed>2.01</speed>
  <fix>3d</fix>
</trkpt>
<trkpt lat="40.0713657" lon="-105.2297104">
  <ele>1583.02</ele>
  <time>2026-08-28T17:53:15Z</time>
  <course>266.3</course>
  <speed>2.3735627229968035</speed>
  <fix>3d</fix>
</trkpt>
<trkpt lat="40.0713661" lon="-105.2297016">
  <ele>1583.0</ele>
  <time>2026-08-28T17:53:15Z</time>
  <course>262.73</course>
  <speed>2.01</speed>
  <fix>3d</fix>
</trkpt>
<trkpt lat="40.0713656" lon="-105.2297132">
  <ele>1583.01</ele>
  <time>2026-08-28T17:53:15Z</time>
  <course>266.99</course>
  <speed>2.482438317461282</speed>
  <fix>3d</fix>
</trkpt>
<trkpt lat="40.0713657" lon="-105.2297067">
  <ele>1583.0</ele>
  <time>2026-08-28T17:53:15Z</time>
  <course>264.77</course>
  <speed>2.22</speed>
  <fix>3d</fix>
</trkpt>
<trkpt lat="40.0713655" lon="-105.2297161">
  <ele>1583.01</ele>
  <time>2026-08-28T17:53:15Z</time>
  <course>267.6</course>
  <speed>2.5815692901799094</speed>
  <fix>3d</fix>
</trkpt>
<trkpt lat="40.0713657" lon="-105.2297067">
  <ele>1583.0</ele>
  <time>2026-08-28T17:53:15Z</time>
  <course>264.77</course>
  <speed>2.22</speed>
  <fix>3d</fix>
</trkpt>
<trkpt lat="40.0713654" lon="-105.2297191">
  <ele>1583.01</ele>
  <time>2026-08-28T17:53:15Z</time>
  <course>268.15</course>
  <speed>2.671198233003309</speed>
  <fix>3d</fix>
</trkpt>
<trkpt lat="40.0713653" lon="-105.2297121">
  <ele>1583.0</ele>
  <time>2026-08-28T17:53:15Z</time>
  <course>266.28</course>
  <speed>2.43</speed>
  <fix>3d</fix>
</trkpt>
<trkpt lat="40.0713653" lon="-105.2297223">
  <ele>1583.01</ele>
  <time>2026-08-28T17:53:15Z</time>
  <course>268.64</course>
  <speed>2.7606520968785615</speed>
  <fix>3d</fix>
</trkpt>
<trkpt lat="40.071365" lon="-105.229718">
  <ele>1583.0</ele>
  <time>2026-08-28T17:53:15Z</time>
  <course>267.44</course>
  <speed>2.62</speed>
  <fix>3d</fix>
</trkpt>
<trkpt lat="40.0713652" lon="-105.2297256">
  <ele>1583.01</ele>
  <time>2026-08-28T17:53:15Z</time>
  <course>269.09</course>
  <speed>2.8302826713952087</speed>
  <fix>3d</fix>
</trkpt>
<trkpt lat="40.071365" lon="-105.229718">
  <ele>1583.0</ele>
  <time>2026-08-28T17:53:15Z</time>
  <course>267.44</course>
  <speed>2.62</speed>
  <fix>3d</fix>
</trkpt>
<trkpt lat="40.0713651" lon="-105.2297289">
  <ele>1583.01</ele>
  <time>2026-08-28T17:53:15Z</time>
  <course>269.5</course>
  <speed>2.890069203323685</speed>
  <fix>3d</fix>
</trkpt>
<trkpt lat="40.0713649" lon="-105.2297244">
  <ele>1583.0</ele>
  <time>2026-08-28T17:53:15Z</time>
  <course>268.39</course>
  <speed>2.78</speed>
  <fix>3d</fix>
</trkpt>
<trkpt lat="40.0713651" lon="-105.2297323">
  <ele>1583.01</ele>
  <time>2026-08-28T17:53:15Z</time>
  <course>269.88</course>
  <speed>2.94</speed>
  <fix>3d</fix>
</trkpt>
<trkpt lat="40.0713649" lon="-105.2297244">
  <ele>1583.0</ele>
  <time>2026-08-28T17:53:15Z</time>
  <course>268.39</course>
  <speed>2.78</speed>
  <fix>3d</fix>
</trkpt>
<trkpt lat="40.071365" lon="-105.2297358">
  <ele>1583.01</ele>
  <time>2026-08-28T17:53:15Z</time>
  <course>270.23</course>
  <speed>2.97</speed>
  <fix>3d</fix>
</trkpt>
<trkpt lat="40.0713648" lon="-105.229731">
  <ele>1583.0</ele>
  <time>2026-08-28T17:53:15Z</time>
  <course>269.19</course>
  <speed>2.88</speed>
  <fix>3d</fix>
</trkpt>
<trkpt lat="40.071365" lon="-105.2297392">
  <ele>1583.0</ele>
  <time>2026-08-28T17:53:15Z</time>
  <course>270.59</course>
  <speed>2.990066888883926</speed>
  <fix>3d</fix>
</trkpt>
<trkpt lat="40.0713648" lon="-105.229731">
  <ele>1583.0</ele>
  <time>2026-08-28T17:53:15Z</time>
  <course>269.19</course>
  <speed>2.88</speed>
  <fix>3d</fix>
</trkpt>
<trkpt lat="40.071365" lon="-105.2297427">
  <ele>1583.0</ele>
  <time>2026-08-28T17:53:15Z</time>
  <course>270.91</course>
  <speed>2.99015049788468</speed>
  <fix>3d</fix>
</trkpt>
<trkpt lat="40.0713648" lon="-105.2297379">
  <ele>1583.0</ele>
  <time>2026-08-28T17:53:15Z</time>
  <course>269.9</course>
  <speed>2.94</speed>
  <fix>3d</fix>
</trkpt>
<trkpt lat="40.071365" lon="-105.2297463">
  <ele>1583.0</ele>
  <time>2026-08-28T17:53:15Z</time>
  <course>271.22</course>
  <speed>2.9804194335697116</speed>
  <fix>3d</fix>
</trkpt>
<trkpt lat="40.0713648" lon="-105.2297379">
  <ele>1583.0</ele>
  <time>2026-08-28T17:53:15Z</time>
  <course>269.9</course>
  <speed>2.94</speed>
  <fix>3d</fix>
</trkpt>
<trkpt lat="40.0713651" lon="-105.2297497">
  <ele>1583.0</ele>
  <time>2026-08-28T17:53:15Z</time>
  <course>271.54</course>
  <speed>2.9506101064017254</speed>
  <fix>3d</fix>
</trkpt>
<trkpt lat="40.0713648" lon="-105.2297448">
  <ele>1583.0</ele>
  <time>2026-08-28T17:53:15Z</time>
  <course>270.55</course>
  <speed>2.93</speed>
  <fix>3d</fix>
</trkpt>
<trkpt lat="40.0713651" lon="-105.2297531">
  <ele>1583.0</ele>
  <time>2026-08-28T17:53:15Z</time>
  <course>271.89</course>
  <speed>2.901103238424996</speed>
  <fix>3d</fix>
</trkpt>
<trkpt lat="40.0713648" lon="-105.2297448">
  <ele>1583.0</ele>
  <time>2026-08-28T17:53:15Z</time>
  <course>270.55</course>
  <speed>2.93</speed>
  <fix>3d</fix>
</trkpt>
<trkpt lat="40.0713652" lon="-105.2297565">
  <ele>1583.0</ele>
  <time>2026-08-28T17:53:15Z</time>
  <course>272.23</course>
  <speed>2.8414256984830697</speed>
  <fix>3d</fix>
</trkpt>
<trkpt lat="40.0713648" lon="-105.2297516">
  <ele>1583.0</ele>
  <time>2026-08-28T17:53:15Z</time>
  <course>271.22</course>
  <speed>2.86</speed>
  <fix>3d</fix>
</trkpt>
<trkpt lat="40.0713651" lon="-105.2297598">
  <ele>1583.0</ele>
  <time>2026-08-28T17:53:15Z</time>
  <course>272.6</course>
  <speed>2.7718044664081196</speed>
  <fix>3d</fix>
</trkpt>
<trkpt lat="40.0713648" lon="-105.2297516">
  <ele>1583.0</ele>
  <time>2026-08-28T17:53:15Z</time>
  <course>271.22</course>
  <speed>2.86</speed>
  <fix>3d</fix>
</trkpt>
<trkpt lat="40.0713652" lon="-105.2297629">
  <ele>1583.0</ele>
  <time>2026-08-28T17:53:15Z</time>
  <course>272.99</course>
  <speed>2.6826852219371546</speed>
  <fix>3d</fix>
</trkpt>
<trkpt lat="40.0713649" lon="-105.2297581">
  <ele>1583.0</ele>
  <time>2026-08-28T17:53:15Z</time>
  <course>271.94</course>
  <speed>2.72</speed>
  <fix>3d</fix>
</trkpt>
<trkpt lat="40.0713653" lon="-105.2297659">
  <ele>1582.99</ele>
  <time>2026-08-28T17:53:15Z</time>
  <course>273.42</course>
  <speed>2.573285837212804</speed>
  <fix>3d</fix>
</trkpt>
<trkpt lat="40.0713649" lon="-105.2297581">
  <ele>1583.0</ele>
  <time>2026-08-28T17:53:15Z</time>
  <course>271.94</course>
  <speed>2.72</speed>
  <fix>3d</fix>
</trkpt>
<trkpt lat="40.0713654" lon="-105.2297689">
  <ele>1582.99</ele>
  <time>2026-08-28T17:53:15Z</time>
  <course>273.87</course>
  <speed>2.4539967400141345</speed>
  <fix>3d</fix>
</trkpt>
<trkpt lat="40.0713649" lon="-105.2297581">
  <ele>1583.0</ele>
  <time>2026-08-28T17:53:15Z</time>
  <course>271.94</course>
  <speed>2.72</speed>
  <fix>3d</fix>
</trkpt>
<trkpt lat="40.0713655" lon="-105.2297716">
  <ele>1583.0</ele>
  <time>2026-08-28T17:53:15Z</time>
  <course>274.34</course>
  <speed>2.334823333787805</speed>
  <fix>3d</fix>
</trkpt>
<trkpt lat="40.071365" lon="-105.2297643">
  <ele>1583.0</ele>
  <time>2026-08-28T17:53:15Z</time>
  <course>272.76</course>
  <speed>2.54</speed>
  <fix>3d</fix>
</trkpt>
<trkpt lat="40.0713657" lon="-105.2297742">
  <ele>1583.0</ele>
  <time>2026-08-28T17:53:15Z</time>
  <course>274.85</course>
  <speed>2.1958369702689677</speed>
  <fix>3d</fix>
</trkpt>
<trkpt lat="40.071365" lon="-105.2297643">
  <ele>1583.0</ele>
  <time>2026-08-28T17:53:15Z</time>
  <course>272.76</course>
  <speed>2.54</speed>
  <fix>3d</fix>
</trkpt>
<trkpt lat="40.0713658" lon="-105.2297766">
  <ele>1583.0</ele>
  <time>2026-08-28T17:53:15Z</time>
  <course>275.4</course>
  <speed>2.057036703610317</speed>
  <fix>3d</fix>
</trkpt>
<trkpt lat="40.0713653" lon="-105.2297701">
  <ele>1583.0</ele>
  <time>2026-08-28T17:53:15Z</time>
  <course>273.69</course>
  <speed>2.3</speed>
  <fix>3d</fix>
</trkpt>
<trkpt lat="40.0713659" lon="-105.2297788">
  <ele>1583.0</ele>
  <time>2026-08-28T17:53:15Z</time>
  <course>276.01</course>
  <speed>1.9075901027212319</speed>
  <fix>3d</fix>
</trkpt>
<trkpt lat="40.0713653" lon="-105.2297701">
  <ele>1583.0</ele>
  <time>2026-08-28T17:53:15Z</time>
  <course>273.69</course>
  <speed>2.3</speed>
  <fix>3d</fix>
</trkpt>
<trkpt lat="40.0713661" lon="-105.2297808">
  <ele>1582.99</ele>
  <time>2026-08-28T17:53:15Z</time>
  <course>276.68</course>
  <speed>1.759232787325202</speed>
  <fix>3d</fix>
</trkpt>
<trkpt lat="40.0713656" lon="-105.2297751">
  <ele>1583.0</ele>
  <time>2026-08-28T17:53:15Z</time>
  <course>274.75</course>
  <speed>2.04</speed>
  <fix>3d</fix>
</trkpt>
<trkpt lat="40.0713662" lon="-105.2297827">
  <ele>1582.99</ele>
  <time>2026-08-28T17:53:15Z</time>
  <course>277.43</course>
  <speed>1.6100931650062986</speed>
  <fix>3d</fix>
</trkpt>
<trkpt lat="40.0713656" lon="-105.2297751">
  <ele>1583.0</ele>
  <time>2026-08-28T17:53:15Z</time>
  <course>274.75</course>
  <speed>2.04</speed>
  <fix>3d</fix>
</trkpt>
<trkpt lat="40.0713664" lon="-105.2297845">
  <ele>1582.99</ele>
  <time>2026-08-28T17:53:15Z</time>
  <course>278.29</course>
  <speed>1.4611296999240004</speed>
  <fix>3d</fix>
</trkpt>
<trkpt lat="40.0713659" lon="-105.2297796">
  <ele>1583.0</ele>
  <time>2026-08-28T17:53:15Z</time>
  <course>276.03</course>
  <speed>1.76</speed>
  <fix>3d</fix>
</trkpt>
<trkpt lat="40.0713665" lon="-105.229786">
  <ele>1582.99</ele>
  <time>2026-08-28T17:53:15Z</time>
  <course>279.27</course>
  <speed>1.3124023773218334</speed>
  <fix>3d</fix>
</trkpt>
<trkpt lat="40.0713662" lon="-105.2297834">
  <ele>1583.0</ele>
  <time>2026-08-28T17:53:15Z</time>
  <course>277.63</course>
  <speed>1.47</speed>
  <fix>3d</fix>
</trkpt>
<trkpt lat="40.0713667" lon="-105.2297874">
  <ele>1582.99</ele>
  <time>2026-08-28T17:53:15Z</time>
  <course>280.42</course>
  <speed>1.1640017182117903</speed>
  <fix>3d</fix>
</trkpt>
<trkpt lat="40.0713662" lon="-105.2297834">
  <ele>1583.0</ele>
  <time>2026-08-28T17:53:15Z</time>
  <course>277.63</course>
  <speed>1.47</speed>
  <fix>3d</fix>
</trkpt>
<trkpt lat="40.0713668" lon="-105.2297886">
  <ele>1582.99</ele>
  <time>2026-08-28T17:53:15Z</time>
  <course>281.7</course>
  <speed>1.016070863670443</speed>
  <fix>3d</fix>
</trkpt>
<trkpt lat="40.0713667" lon="-105.2297864">
  <ele>1583.0</ele>
  <time>2026-08-28T17:53:15Z</time>
  <course>279.71</course>
  <speed>1.18</speed>
  <fix>3d</fix>
</trkpt>
<trkpt lat="40.071367" lon="-105.2297896">
  <ele>1582.99</ele>
  <time>2026-08-28T17:53:15Z</time>
  <course>283.06</course>
  <speed>0.8766413177577246</speed>
  <fix>3d</fix>
</trkpt>
<trkpt lat="40.0713667" lon="-105.2297864">
  <ele>1583.0</ele>
  <time>2026-08-28T17:53:15Z</time>
  <course>279.71</course>
  <speed>1.18</speed>
  <fix>3d</fix>
</trkpt>
<trkpt lat="40.0713671" lon="-105.2297905">
  <ele>1582.99</ele>
  <time>2026-08-28T17:53:15Z</time>
  <course>284.35</course>
  <speed>0.737563556583431</speed>
  <fix>3d</fix>
</trkpt>
<trkpt lat="40.071367" lon="-105.2297888">
  <ele>1583.0</ele>
  <time>2026-08-28T17:53:15Z</time>
  <course>282.21</course>
  <speed>0.9</speed>
  <fix>3d</fix>
</trkpt>
<trkpt lat="40.0713673" lon="-105.2297912">
  <ele>1582.99</ele>
  <time>2026-08-28T17:53:15Z</time>
  <course>285.55</course>
  <speed>0.5966573556070519</speed>
  <fix>3d</fix>
</trkpt>
<trkpt lat="40.071367" lon="-105.2297888">
  <ele>1583.0</ele>
  <time>2026-08-28T17:53:15Z</time>
  <course>282.21</course>
  <speed>0.9</speed>
  <fix>3d</fix>
</trkpt>
<trkpt lat="40.0713674" lon="-105.2297917">
  <ele>1582.99</ele>
  <time>2026-08-28T17:53:15Z</time>
  <course>286.56</course>
  <speed>0.4657252408878007</speed>
  <fix>3d</fix>
</trkpt>
<trkpt lat="40.0713673" lon="-105.2297906">
  <ele>1583.0</ele>
  <time>2026-08-28T17:53:15Z</time>
  <course>284.61</course>
  <speed>0.63</speed>
  <fix>3d</fix>
</trkpt>
<trkpt lat="40.0713675" lon="-105.2297922">
  <ele>1582.99</ele>
  <time>2026-08-28T17:53:15Z</time>
  <course>287.34</course>
  <speed>0.3420526275297414</speed>
  <fix>3d</fix>
</trkpt>
<trkpt lat="40.0713673" lon="-105.2297906">
  <ele>1583.0</ele>
  <time>2026-08-28T17:53:15Z</time>
  <course>284.61</course>
  <speed>0.63</speed>
  <fix>3d</fix>
</trkpt>
<trkpt lat="40.0713676" lon="-105.2297924">
  <ele>1582.99</ele>
  <time>2026-08-28T17:53:15Z</time>
  <course>287.91</course>
  <speed>0.215870331449229</speed>
  <fix>3d</fix>
</trkpt>
<trkpt lat="40.0713676" lon="-105.2297917">
  <ele>1583.0</ele>
  <time>2026-08-28T17:53:15Z</time>
  <course>286.39</course>
  <speed>0.38</speed>
  <fix>3d</fix>
</trkpt>
<trkpt lat="40.0713676" lon="-105.2297926">
  <ele>1582.99</ele>
  <time>2026-08-28T17:53:15Z</time>
  <course>288.26</course>
  <speed>0.1019803902718557</speed>
  <fix>3d</fix>
</trkpt>
<trkpt lat="40.0713676" lon="-105.2297917">
  <ele>1583.0</ele>
  <time>2026-08-28T17:53:15Z</time>
  <course>286.39</course>
  <speed>0.38</speed>
  <fix>3d</fix>
</trkpt>
<trkpt lat="40.0713676" lon="-105.2297926">
  <ele>1582.99</ele>
  <time>2026-08-28T17:53:15Z</time>
  <course>288.43</course>
  <speed>0.0</speed>
  <fix>3d</fix>
</trkpt>
<trkpt lat="40.0713677" lon="-105.2297923">
  <ele>1583.0</ele>
  <time>2026-08-28T17:53:15Z</time>
  <course>287.37</course>
  <speed>0.15</speed>
  <fix>3d</fix>
</trkpt>
<trkpt lat="40.0713676" lon="-105.2297925">
  <ele>1582.99</ele>
  <time>2026-08-28T17:53:15Z</time>
  <course>288.44</course>
  <speed>0.07280109889280519</speed>
  <fix>3d</fix>
</trkpt>
<trkpt lat="40.0713677" lon="-105.2297923">
  <ele>1583.0</ele>
  <time>2026-08-28T17:53:15Z</time>
  <course>287.37</course>
  <speed>0.15</speed>
  <fix>3d</fix>
</trkpt>
<trkpt lat="40.0713676" lon="-105.2297924">
  <ele>1582.99</ele>
  <time>2026-08-28T17:53:15Z</time>
  <course>288.54</course>
  <speed>0.14866068747318506</speed>
  <fix>3d</fix>
</trkpt>
<trkpt lat="40.0713677" lon="-105.2297923">
  <ele>1583.0</ele>
  <time>2026-08-28T17:53:15Z</time>
  <course>287.37</course>
  <speed>0.15</speed>
  <fix>3d</fix>
</trkpt>
<trkpt lat="40.0713676" lon="-105.2297922">
  <ele>1582.99</ele>
  <time>2026-08-28T17:53:15Z</time>
  <course>288.73</course>
  <speed>0.208806130178211</speed>
  <fix>3d</fix>
</trkpt>
<trkpt lat="40.0713678" lon="-105.2297926">
  <ele>1583.0</ele>
  <time>2026-08-28T17:53:15Z</time>
  <course>107.98</course>
  <speed>0.02</speed>
  <fix>3d</fix>
</trkpt>
<trkpt lat="40.0713676" lon="-105.229792">
  <ele>1582.98</ele>
  <time>2026-08-28T17:53:15Z</time>
  <course>288.98</course>
  <speed>0.2529822128134704</speed>
  <fix>3d</fix>
</trkpt>
<trkpt lat="40.0713678" lon="-105.2297926">
  <ele>1583.0</ele>
  <time>2026-08-28T17:53:15Z</time>
  <course>107.98</course>
  <speed>0.02</speed>
  <fix>3d</fix>
</trkpt>
<trkpt lat="40.0713675" lon="-105.2297917">
  <ele>1582.98</ele>
  <time>2026-08-28T17:53:15Z</time>
  <course>289.27</course>
  <speed>0.2720294101747089</speed>
  <fix>3d</fix>
</trkpt>
<trkpt lat="40.0713678" lon="-105.2297924">
  <ele>1583.0</ele>
  <time>2026-08-28T17:53:15Z</time>
  <course>108.19</course>
  <speed>0.14</speed>
  <fix>3d</fix>
</trkpt>
<trkpt lat="40.0713675" lon="-105.2297914">
  <ele>1582.98</ele>
  <time>2026-08-28T17:53:15Z</time>
  <course>289.4</course>
  <speed>0.30364452901377953</speed>
  <fix>3d</fix>
</trkpt>
<trkpt lat="40.0713678" lon="-105.2297924">
  <ele>1583.0</ele>
  <time>2026-08-28T17:53:15Z</time>
  <course>108.19</course>
  <speed>0.14</speed>
  <fix>3d</fix>
</trkpt>
<trkpt lat="40.0713674" lon="-105.2297911">
  <ele>1582.98</ele>
  <time>2026-08-28T17:53:15Z</time>
  <course>289.5</course>
  <speed>0.3132091952673165</speed>
  <fix>3d</fix>
</trkpt>
<trkpt lat="40.0713677" lon="-105.229792">
  <ele>1583.0</ele>
  <time>2026-08-28T17:53:15Z</time>
  <course>108.57</course>
  <speed>0.22</speed>
  <fix>3d</fix>
</trkpt>
<trkpt lat="40.0713673" lon="-105.2297908">
  <ele>1582.98</ele>
  <time>2026-08-28T17:53:15Z</time>
  <course>289.69</course>
  <speed>0.30364452901377953</speed>
  <fix>3d</fix>
</trkpt>
<trkpt lat="40.0713677" lon="-105.229792">
  <ele>1583.0</ele>
  <time>2026-08-28T17:53:15Z</time>
  <course>108.57</course>
  <speed>0.22</speed>
  <fix>3d</fix>
</trkpt>
<trkpt lat="40.0713673" lon="-105.2297905">
  <ele>1582.98</ele>
  <time>2026-08-28T17:53:15Z</time>
  <course>289.97</course>
  <speed>0.2596150997149434</speed>
  <fix>3d</fix>
</trkpt>
<trkpt lat="40.0713676" lon="-105.2297915">
  <ele>1583.0</ele>
  <time>2026-08-28T17:53:15Z</time>
  <course>108.9</course>
  <speed>0.25</speed>
  <fix>3d</fix>
</trkpt>
<trkpt lat="40.0713672" lon="-105.2297903">
  <ele>1582.97</ele>
  <time>2026-08-28T17:53:15Z</time>
  <course>290.29</course>
  <speed>0.215870331449229</speed>
  <fix>3d</fix>
</trkpt>
<trkpt lat="40.0713674" lon="-105.2297909">
  <ele>1583.0</ele>
  <time>2026-08-28T17:53:15Z</time>
  <course>109.28</course>
  <speed>0.2</speed>
  <fix>3d</fix>
</trkpt>
<trkpt lat="40.0713672" lon="-105.2297901">
  <ele>1582.97</ele>
  <time>2026-08-28T17:53:15Z</time>
  <course>290.6</course>
  <speed>0.15297058540778355</speed>
  <fix>3d</fix>
</trkpt>
<trkpt lat="40.0713674" lon="-105.2297909">
  <ele>1583.0</ele>
  <time>2026-08-28T17:53:15Z</time>
  <course>109.28</course>
  <speed>0.2</speed>
  <fix>3d</fix>
</trkpt>
<trkpt lat="40.0713672" lon="-105.22979">
  <ele>1582.97</ele>
  <time>2026-08-28T17:53:15Z</time>
  <course>290.84</course>
  <speed>0.1004987562112089</speed>
  <fix>3d</fix>
</trkpt>
<trkpt lat="40.0713673" lon="-105.2297906">
  <ele>1583.0</ele>
  <time>2026-08-28T17:53:15Z</time>
  <course>109.77</course>
  <speed>0.11</speed>
  <fix>3d</fix>
</trkpt>
<trkpt lat="40.0713672" lon="-105.22979">
  <ele>1582.97</ele>
  <time>2026-08-28T17:53:15Z</time>
  <course>290.94</course>
  <speed>0.04</speed>
  <fix>3d</fix>
</trkpt>
<trkpt lat="40.0713673" lon="-105.2297906">
  <ele>1583.0</ele>
  <time>2026-08-28T17:53:15Z</time>
  <course>109.77</course>
  <speed>0.11</speed>
  <fix>3d</fix>
</trkpt>
<trkpt lat="40.0713672" lon="-105.22979">
  <ele>1582.97</ele>
  <time>2026-08-28T17:53:15Z</time>
  <course>290.91</course>
  <speed>0.02</speed>
  <fix>3d</fix>
</trkpt>
<trkpt lat="40.0713673" lon="-105.2297904">
  <ele>1583.0</ele>
  <time>2026-08-28T17:53:15Z</time>
  <course>291.74</course>
  <speed>0.0</speed>
  <fix>3d</fix>
</trkpt>
<trkpt lat="40.0713673" lon="-105.2297901">
  <ele>1582.97</ele>
  <time>2026-08-28T17:53:15Z</time>
  <course>291.37</course>
  <speed>0.07810249675906654</speed>
  <fix>3d</fix>
</trkpt>
<trkpt lat="40.0713673" lon="-105.2297904">
  <ele>1583.0</ele>
  <time>2026-08-28T17:53:15Z</time>
  <course>291.74</course>
  <speed>0.0</speed>
  <fix>3d</fix>
</trkpt>
<trkpt lat="40.0713674" lon="-105.2297903">
  <ele>1582.97</ele>
  <time>2026-08-28T17:53:15Z</time>
  <course>292.18</course>
  <speed>0.14422205101855956</speed>
  <fix>3d</fix>
</trkpt>
<trkpt lat="40.0713673" lon="-105.2297905">
  <ele>1583.0</ele>
  <time>2026-08-28T17:53:15Z</time>
  <course>291.23</course>
  <speed>0.12</speed>
  <fix>3d</fix>
</trkpt>
<trkpt lat="40.0713675" lon="-105.2297905">
  <ele>1582.97</ele>
  <time>2026-08-28T17:53:15Z</time>
  <course>293.36</course>
  <speed>0.2109502310972899</speed>
  <fix>3d</fix>
</trkpt>
<trkpt lat="40.0713673" lon="-105.2297905">
  <ele>1583.0</ele>
  <time>2026-08-28T17:53:15Z</time>
  <course>291.23</course>
  <speed>0.12</speed>
  <fix>3d</fix>
</trkpt>
<trkpt lat="40.0713675" lon="-105.2297908">
  <ele>1582.98</ele>
  <time>2026-08-28T17:53:15Z</time>
  <course>294.85</course>
  <speed>0.2692582403567252</speed>
  <fix>3d</fix>
</trkpt>
<trkpt lat="40.0713674" lon="-105.2297909">
  <ele>1583.0</ele>
  <time>2026-08-28T17:53:15Z</time>
  <course>293.22</course>
  <speed>0.24</speed>
  <fix>3d</fix>
</trkpt>
<trkpt lat="40.0713676" lon="-105.2297911">
  <ele>1582.98</ele>
  <time>2026-08-28T17:53:15Z</time>
  <course>296.61</course>
  <speed>0.34132096331752027</speed>
  <fix>3d</fix>
</trkpt>
<trkpt lat="40.0713674" lon="-105.2297909">
  <ele>1583.0</ele>
  <time>2026-08-28T17:53:15Z</time>
  <course>293.22</course>
  <speed>0.24</speed>
  <fix>3d</fix>
</trkpt>
<trkpt lat="40.0713678" lon="-105.2297915">
  <ele>1582.98</ele>
  <time>2026-08-28T17:53:15Z</time>
  <course>298.81</course>
  <speed>0.41048751503547587</speed>
  <fix>3d</fix>
</trkpt>
<trkpt lat="40.0713676" lon="-105.2297916">
  <ele>1583.0</ele>
  <time>2026-08-28T17:53:15Z</time>
  <course>296.53</course>
  <speed>0.37</speed>
  <fix>3d</fix>
</trkpt>
<trkpt lat="40.0713681" lon="-105.2297921">
  <ele>1582.99</ele>
  <time>2026-08-28T17:53:15Z</time>
  <course>301.63</course>
  <speed>0.4860041152089147</speed>
  <fix>3d</fix>
</trkpt>
<trkpt lat="40.0713676" lon="-105.2297916">
  <ele>1583.0</ele>
  <time>2026-08-28T17:53:15Z</time>
  <course>296.53</course>
  <speed>0.37</speed>
  <fix>3d</fix>
</trkpt>
<trkpt lat="40.0713684" lon="-105.2297926">
  <ele>1582.98</ele>
  <time>2026-08-28T17:53:15Z</time>
  <course>305.07</course>
  <speed>0.5685068161420758</speed>
  <fix>3d</fix>
</trkpt>
<trkpt lat="40.0713679" lon="-105.2297925">
  <ele>1583.0</ele>
  <time>2026-08-28T17:53:15Z</time>
  <course>301.73</course>
  <speed>0.51</speed>
  <fix>3d</fix>
</trkpt>
<trkpt lat="40.0713687" lon="-105.2297932">
  <ele>1582.98</ele>
  <time>2026-08-28T17:53:15Z</time>
  <course>309.05</course>
  <speed>0.6511528238439882</speed>
  <fix>3d</fix>
</trkpt>
<trkpt lat="40.0713679" lon="-105.2297925">
  <ele>1583.0</ele>
  <time>2026-08-28T17:53:15Z</time>
  <course>301.73</course>
  <speed>0.51</speed>
  <fix>3d</fix>
</trkpt>
<trkpt lat="40.0713692" lon="-105.2297939">
  <ele>1582.98</ele>
  <time>2026-08-28T17:53:15Z</time>
  <course>313.56</course>
  <speed>0.7427651041883968</speed>
  <fix>3d</fix>
</trkpt>
<trkpt lat="40.0713679" lon="-105.2297925">
  <ele>1583.0</ele>
  <time>2026-08-28T17:53:15Z</time>
  <course>301.73</course>
  <speed>0.51</speed>
  <fix>3d</fix>
</trkpt>
<trkpt lat="40.0713697" lon="-105.2297945">
  <ele>1582.98</ele>
  <time>2026-08-28T17:53:15Z</time>
  <course>318.64</course>
  <speed>0.8402380615040002</speed>
  <fix>3d</fix>
</trkpt>
<trkpt lat="40.0713686" lon="-105.2297935">
  <ele>1583.0</ele>
  <time>2026-08-28T17:53:15Z</time>
  <course>309.22</course>
  <speed>0.66</speed>
  <fix>3d</fix>
</trkpt>
<trkpt lat="40.0713703" lon="-105.2297952">
  <ele>1582.98</ele>
  <time>2026-08-28T17:53:15Z</time>
  <course>324.23</course>
  <speed>0.9403190947758107</speed>
  <fix>3d</fix>
</trkpt>
<trkpt lat="40.0713686" lon="-105.2297935">
  <ele>1583.0</ele>
  <time>2026-08-28T17:53:15Z</time>
  <course>309.22</course>
  <speed>0.66</speed>
  <fix>3d</fix>
</trkpt>
<trkpt lat="40.0713711" lon="-105.2297958">
  <ele>1582.99</ele>
  <time>2026-08-28T17:53:15Z</time>
  <course>329.55</course>
  <speed>1.0511898020814319</speed>
  <fix>3d</fix>
</trkpt>
<trkpt lat="40.0713695" lon="-105.2297948">
  <ele>1583.0</ele>
  <time>2026-08-28T17:53:15Z</time>
  <course>318.89</course>
  <speed>0.84</speed>
  <fix>3d</fix>
</trkpt>
<trkpt lat="40.071372" lon="-105.2297965">
  <ele>1582.99</ele>
  <time>2026-08-28T17:53:15Z</time>
  <course>334.14</course>
  <speed>1.1595257651298656</speed>
  <fix>3d</fix>
</trkpt>
<trkpt lat="40.0713695" lon="-105.2297948">
  <ele>1583.0</ele>
  <time>2026-08-28T17:53:15Z</time>
  <course>318.89</course>
  <speed>0.84</speed>
  <fix>3d</fix>
</trkpt>
<trkpt lat="40.071373" lon="-105.229797">
  <ele>1582.99</ele>
  <time>2026-08-28T17:53:15Z</time>
  <course>338.08</course>
  <speed>1.2781236246936367</speed>
  <fix>3d</fix>
</trkpt>
<trkpt lat="40.0713709" lon="-105.2297961">
  <ele>1583.0</ele>
  <time>2026-08-28T17:53:15Z</time>
  <course>329.07</course>
  <speed>1.04</speed>
  <fix>3d</fix>
</trkpt>
<trkpt lat="40.0713742" lon="-105.2297976">
  <ele>1583.0</ele>
  <time>2026-08-28T17:53:15Z</time>
  <course>341.47</course>
  <speed>1.3888484438555562</speed>
  <fix>3d</fix>
</trkpt>
<trkpt lat="40.0713727" lon="-105.2297973">
  <ele>1583.0</ele>
  <time>2026-08-28T17:53:15Z</time>
  <course>337.49</course>
  <speed>1.26</speed>
  <fix>3d</fix>
</trkpt>
<trkpt lat="40.0713754" lon="-105.2297981">
  <ele>1583.0</ele>
  <time>2026-08-28T17:53:15Z</time>
  <course>344.36</course>
  <speed>1.5061540425866142</speed>
  <fix>3d</fix>
</trkpt>
<trkpt lat="40.0713727" lon="-105.2297973">
  <ele>1583.0</ele>
  <time>2026-08-28T17:53:15Z</time>
  <course>337.49</course>
  <speed>1.26</speed>
  <fix>3d</fix>
</trkpt>
<trkpt lat="40.0713768" lon="-105.2297985">
  <ele>1583.0</ele>
  <time>2026-08-28T17:53:15Z</time>
  <course>346.92</course>
  <speed>1.6238842323269231</speed>
  <fix>3d</fix>
</trkpt>
<trkpt lat="40.0713751" lon="-105.2297983">
  <ele>1583.0</ele>
  <time>2026-08-28T17:53:15Z</time>
  <course>343.74</course>
  <speed>1.48</speed>
  <fix>3d</fix>
</trkpt>
<trkpt lat="40.0713783" lon="-105.2297989">
  <ele>1582.99</ele>
  <time>2026-08-28T17:53:15Z</time>
  <course>349.09</course>
  <speed>1.7245579143653018</speed>
  <fix>3d</fix>
</trkpt>
<trkpt lat="40.0713751" lon="-105.2297983">
  <ele>1583.0</ele>
  <time>2026-08-28T17:53:15Z</time>
  <course>343.74</course>
  <speed>1.48</speed>
  <fix>3d</fix>
</trkpt>
<trkpt lat="40.0713799" lon="-105.2297993">
  <ele>1582.99</ele>
  <time>2026-08-28T17:53:15Z</time>
  <course>350.95</course>
  <speed>1.8384776310850237</speed>
  <fix>3d</fix>
</trkpt>
<trkpt lat="40.0713779" lon="-105.2297993">
  <ele>1583.0</ele>
  <time>2026-08-28T17:53:15Z</time>
  <course>348.4</course>
  <speed>1.7</speed>
  <fix>3d</fix>
</trkpt>
<trkpt lat="40.0713816" lon="-105.2297996">
  <ele>1582.99</ele>
  <time>2026-08-28T17:53:15Z</time>
  <course>352.54</course>
  <speed>1.9424983912477252</speed>
  <fix>3d</fix>
</trkpt>
<trkpt lat="40.0713779" lon="-105.2297993">
  <ele>1583.0</ele>
  <time>2026-08-28T17:53:15Z</time>
  <course>348.4</course>
  <speed>1.7</speed>
  <fix>3d</fix>
</trkpt>
<trkpt lat="40.0713834" lon="-105.2297999">
  <ele>1582.99</ele>
  <time>2026-08-28T17:53:15Z</time>
  <course>353.91</course>
  <speed>2.0587860500790267</speed>
  <fix>3d</fix>
</trkpt>
<trkpt lat="40.071381" lon="-105.2298">
  <ele>1583.0</ele>
  <time>2026-08-28T17:53:15Z</time>
  <course>351.86</course>
  <speed>1.91</speed>
  <fix>3d</fix>
</trkpt>
<trkpt lat="40.0713853" lon="-105.2298002">
  <ele>1582.99</ele>
  <time>2026-08-28T17:53:15Z</time>
  <course>355.08</course>
  <speed>2.1659178193089414</speed>
  <fix>3d</fix>
</trkpt>
<trkpt lat="40.071381" lon="-105.2298">
  <ele>1583.0</ele>
  <time>2026-08-28T17:53:15Z</time>
  <course>351.86</course>
  <speed>1.91</speed>
  <fix>3d</fix>
</trkpt>
<trkpt lat="40.0713873" lon="-105.2298004">
  <ele>1582.99</ele>
  <time>2026-08-28T17:53:15Z</time>
  <course>356.07</course>
  <speed>2.2737194198053547</speed>
  <fix>3d</fix>
</trkpt>
<trkpt lat="40.0713846" lon="-105.2298006">
  <ele>1583.0</ele>
  <time>2026-08-28T17:53:15Z</time>
  <course>354.39</course>
  <speed>2.13</speed>
  <fix>3d</fix>
</trkpt>
<trkpt lat="40.0713894" lon="-105.2298006">
  <ele>1582.98</ele>
  <time>2026-08-28T17:53:15Z</time>
  <course>356.93</course>
  <speed>2.382540660723338</speed>
  <fix>3d</fix>
</trkpt>
<trkpt lat="40.0713846" lon="-105.2298006">
  <ele>1583.0</ele>
  <time>2026-08-28T17:53:15Z</time>
  <course>354.39</course>
  <speed>2.13</speed>
  <fix>3d</fix>
</trkpt>
<trkpt lat="40.0713916" lon="-105.2298008">
  <ele>1582.98</ele>
  <time>2026-08-28T17:53:15Z</time>
  <course>357.67</course>
  <speed>2.491284809089479</speed>
  <fix>3d</fix>
</trkpt>
<trkpt lat="40.0713887" lon="-105.229801">
  <ele>1583.0</ele>
  <time>2026-08-28T17:53:15Z</time>
  <course>356.25</course>
  <speed>2.34</speed>
  <fix>3d</fix>
</trkpt>
<trkpt lat="40.0713939" lon="-105.2298009">
  <ele>1582.98</ele>
  <time>2026-08-28T17:53:15Z</time>
  <course>358.29</course>
  <speed>2.6006922155457</speed>
  <fix>3d</fix>
</trkpt>
<trkpt lat="40.0713887" lon="-105.229801">
  <ele>1583.0</ele>
  <time>2026-08-28T17:53:15Z</time>
  <course>356.25</course>
  <speed>2.34</speed>
  <fix>3d</fix>
</trkpt>
<trkpt lat="40.0713963" lon="-105.229801">
  <ele>1582.98</ele>
  <time>2026-08-28T17:53:15Z</time>
  <course>358.84</course>
  <speed>2.7102951868754075</speed>
  <fix>3d</fix>
</trkpt>
<trkpt lat="40.071393" lon="-105.2298012">
  <ele>1583.0</ele>
  <time>2026-08-28T17:53:15Z</time>
  <course>357.63</course>
  <speed>2.56</speed>
  <fix>3d</fix>
</trkpt>
<trkpt lat="40.0713988" lon="-105.2298011">
  <ele>1582.98</ele>
  <time>2026-08-28T17:53:15Z</time>
  <course>359.31</course>
  <speed>2.8100711734758606</speed>
  <fix>3d</fix>
</trkpt>
<trkpt lat="40.071393" lon="-105.2298012">
  <ele>1583.0</ele>
  <time>2026-08-28T17:53:15Z</time>
  <course>357.63</course>
  <speed>2.56</speed>
  <fix>3d</fix>
</trkpt>
<trkpt lat="40.0714014" lon="-105.2298011">
  <ele>1582.98</ele>
  <time>2026-08-28T17:53:15Z</time>
  <course>359.71</course>
  <speed>2.92</speed>
  <fix>3d</fix>
</trkpt>
<trkpt lat="40.071393" lon="-105.2298012">
  <ele>1583.0</ele>
  <time>2026-08-28T17:53:15Z</time>
  <course>357.63</course>
  <speed>2.56</speed>
  <fix>3d</fix>
</trkpt>
<trkpt lat="40.071404" lon="-105.2298012">
  <ele>1582.98</ele>
  <time>2026-08-28T17:53:15Z</time>
  <course>0.06</course>
  <speed>3.02</speed>
  <fix>3d</fix>
</trkpt>
<trkpt lat="40.0713979" lon="-105.2298015">
  <ele>1583.0</ele>
  <time>2026-08-28T17:53:15Z</time>
  <course>358.65</course>
  <speed>2.77</speed>
  <fix>3d</fix>
</trkpt>
<trkpt lat="40.0714067" lon="-105.2298012">
  <ele>1582.98</ele>
  <time>2026-08-28T17:53:15Z</time>
  <course>0.38</course>
  <speed>3.1200641019056</speed>
  <fix>3d</fix>
</trkpt>
<trkpt lat="40.0713979" lon="-105.2298015">
  <ele>1583.0</ele>
  <time>2026-08-28T17:53:15Z</time>
  <course>358.65</course>
  <speed>2.77</speed>
  <fix>3d</fix>
</trkpt>
<trkpt lat="40.0714096" lon="-105.2298012">
  <ele>1582.98</ele>
  <time>2026-08-28T17:53:15Z</time>
  <course>0.67</course>
  <speed>3.2001406219102306</speed>
  <fix>3d</fix>
</trkpt>
<trkpt lat="40.0714031" lon="-105.2298016">
  <ele>1583.0</ele>
  <time>2026-08-28T17:53:15Z</time>
  <course>359.43</course>
  <speed>2.98</speed>
  <fix>3d</fix>
</trkpt>
<trkpt lat="40.0714124" lon="-105.2298012">
  <ele>1582.99</ele>
  <time>2026-08-28T17:53:15Z</time>
  <course>0.93</course>
  <speed>3.280381075424012</speed>
  <fix>3d</fix>
</trkpt>
<trkpt lat="40.0714031" lon="-105.2298016">
  <ele>1583.0</ele>
  <time>2026-08-28T17:53:15Z</time>
  <course>359.43</course>
  <speed>2.98</speed>
  <fix>3d</fix>
</trkpt>
<trkpt lat="40.0714154" lon="-105.2298013">
  <ele>1582.99</ele>
  <time>2026-08-28T17:53:15Z</time>
  <course>1.18</course>
  <speed>3.340538878684096</speed>
  <fix>3d</fix>
</trkpt>
<trkpt lat="40.0714086" lon="-105.2298017">
  <ele>1583.0</ele>
  <time>2026-08-28T17:53:15Z</time>
  <course>0.04</course>
  <speed>3.16</speed>
  <fix>3d</fix>
</trkpt>
<trkpt lat="40.0714184" lon="-105.2298012">
  <ele>1582.99</ele>
  <time>2026-08-28T17:53:15Z</time>
  <course>1.4</course>
  <speed>3.3807247743642193</speed>
  <fix>3d</fix>
</trkpt>
<trkpt lat="40.0714086" lon="-105.2298017">
  <ele>1583.0</ele>
  <time>2026-08-28T17:53:15Z</time>
  <course>0.04</course>
  <speed>3.16</speed>
  <fix>3d</fix>
</trkpt>
<trkpt lat="40.0714214" lon="-105.2298012">
  <ele>1582.99</ele>
  <time>2026-08-28T17:53:15Z</time>
  <course>1.63</course>
  <speed>3.4209355445550274</speed>
  <fix>3d</fix>
</trkpt>
<trkpt lat="40.0714144" lon="-105.2298016">
  <ele>1583.0</ele>
  <time>2026-08-28T17:53:15Z</time>
  <course>0.56</course>
  <speed>3.3</speed>
  <fix>3d</fix>
</trkpt>
<trkpt lat="40.0714245" lon="-105.2298011">
  <ele>1582.99</ele>
  <time>2026-08-28T17:53:15Z</time>
  <course>1.82</course>
  <speed>3.4411771241829445</speed>
  <fix>3d</fix>
</trkpt>
<trkpt lat="40.0714204" lon="-105.2298015">
  <ele>1583.0</ele>
  <time>2026-08-28T17:53:15Z</time>
  <course>1.0</course>
  <speed>3.38</speed>
  <fix>3d</fix>
</trkpt>
<trkpt lat="40.0714275" lon="-105.229801">
  <ele>1582.99</ele>
  <time>2026-08-28T17:53:15Z</time>
  <course>2.0</course>
  <speed>3.4414531814336806</speed>
  <fix>3d</fix>
</trkpt>
<trkpt lat="40.0714204" lon="-105.2298015">
  <ele>1583.0</ele>
  <time>2026-08-28T17:53:15Z</time>
  <course>1.0</course>
  <speed>3.38</speed>
  <fix>3d</fix>
</trkpt>
<trkpt lat="40.0714306" lon="-105.2298009">
  <ele>1582.99</ele>
  <time>2026-08-28T17:53:15Z</time>
  <course>2.18</course>
  <speed>3.4317633951075357</speed>
  <fix>3d</fix>
</trkpt>
<trkpt lat="40.0714265" lon="-105.2298013">
  <ele>1583.0</ele>
  <time>2026-08-28T17:53:15Z</time>
  <course>1.4</course>
  <speed>3.41</speed>
  <fix>3d</fix>
</trkpt>
<trkpt lat="40.0714337" lon="-105.2298008">
  <ele>1582.99</ele>
  <time>2026-08-28T17:53:15Z</time>
  <course>2.39</course>
  <speed>3.402116987994387</speed>
  <fix>3d</fix>
</trkpt>
<trkpt lat="40.0714265" lon="-105.2298013">
  <ele>1583.0</ele>
  <time>2026-08-28T17:53:15Z</time>
  <course>1.4</course>
  <speed>3.41</speed>
  <fix>3d</fix>
</trkpt>
<trkpt lat="40.0714367" lon="-105.2298007">
  <ele>1582.99</ele>
  <time>2026-08-28T17:53:15Z</time>
  <course>2.59</course>
  <speed>3.3625139404915485</speed>
  <fix>3d</fix>
</trkpt>
<trkpt lat="40.0714326" lon="-105.2298012">
  <ele>1583.0</ele>
  <time>2026-08-28T17:53:15Z</time>
  <course>1.79</course>
  <speed>3.37</speed>
  <fix>3d</fix>
</trkpt>
<trkpt lat="40.0714397" lon="-105.2298006">
  <ele>1582.99</ele>
  <time>2026-08-28T17:53:15Z</time>
  <course>2.81</course>
  <speed>3.3029683619435413</speed>
  <fix>3d</fix>
</trkpt>
<trkpt lat="40.0714326" lon="-105.2298012">
  <ele>1583.0</ele>
  <time>2026-08-28T17:53:15Z</time>
  <course>1.79</course>
  <speed>3.37</speed>
  <fix>3d</fix>
</trkpt>
<trkpt lat="40.0714426" lon="-105.2298004">
  <ele>1582.99</ele>
  <time>2026-08-28T17:53:15Z</time>
  <course>3.03</course>
  <speed>3.2334810962799825</speed>
  <fix>3d</fix>
</trkpt>
<trkpt lat="40.0714386" lon="-105.2298009">
  <ele>1583.0</ele>
  <time>2026-08-28T17:53:15Z</time>
  <course>2.21</course>
  <speed>3.28</speed>
  <fix>3d</fix>
</trkpt>
<trkpt lat="40.0714455" lon="-105.2298003">
  <ele>1582.99</ele>
  <time>2026-08-28T17:53:15Z</time>
  <course>3.27</course>
  <speed>3.1435807608521844</speed>
  <fix>3d</fix>
</trkpt>
<trkpt lat="40.0714386" lon="-105.2298009">
  <ele>1583.0</ele>
  <time>2026-08-28T17:53:15Z</time>
  <course>2.21</course>
  <speed>3.28</speed>
  <fix>3d</fix>
</trkpt>
<trkpt lat="40.0714483" lon="-105.2298001">
  <ele>1582.99</ele>
  <time>2026-08-28T17:53:15Z</time>
  <course>3.52</course>
  <speed>3.0442076144704715</speed>
  <fix>3d</fix>
</trkpt>
<trkpt lat="40.0714444" lon="-105.2298006">
  <ele>1583.0</ele>
  <time>2026-08-28T17:53:15Z</time>
  <course>2.68</course>
  <speed>3.12</speed>
  <fix>3d</fix>
</trkpt>
<trkpt lat="40.0714509" lon="-105.2298">
  <ele>1582.99</ele>
  <time>2026-08-28T17:53:15Z</time>
  <course>3.8</course>
  <speed>2.93492759706266</speed>
  <fix>3d</fix>
</trkpt>
<trkpt lat="40.0714444" lon="-105.2298006">
  <ele>1583.0</ele>
  <time>2026-08-28T17:53:15Z</time>
  <course>2.68</course>
  <speed>3.12</speed>
  <fix>3d</fix>
</trkpt>
<trkpt lat="40.0714535" lon="-105.2297998">
  <ele>1582.99</ele>
  <time>2026-08-28T17:53:15Z</time>
  <course>4.07</course>
  <speed>2.80515596714336</speed>
  <fix>3d</fix>
</trkpt>
<trkpt lat="40.0714498" lon="-105.2298002">
  <ele>1583.0</ele>
  <time>2026-08-28T17:53:15Z</time>
  <course>3.2</course>
  <speed>2.91</speed>
  <fix>3d</fix>
</trkpt>
<trkpt lat="40.0714559" lon="-105.2297996">
  <ele>1582.99</ele>
  <time>2026-08-28T17:53:15Z</time>
  <course>4.37</course>
  <speed>2.676060537431842</speed>
  <fix>3d</fix>
</trkpt>
<trkpt lat="40.0714498" lon="-105.2298002">
  <ele>1583.0</ele>
  <time>2026-08-28T17:53:15Z</time>
  <course>3.2</course>
  <speed>2.91</speed>
  <fix>3d</fix>
</trkpt>
<trkpt lat="40.0714582" lon="-105.2297994">
  <ele>1582.99</ele>
  <time>2026-08-28T17:53:15Z</time>
  <course>4.68</course>
  <speed>2.5363950796356627</speed>
  <fix>3d</fix>
</trkpt>
<trkpt lat="40.0714549" lon="-105.2297998">
  <ele>1583.0</ele>
  <time>2026-08-28T17:53:15Z</time>
  <course>3.77</course>
  <speed>2.66</speed>
  <fix>3d</fix>
</trkpt>
<trkpt lat="40.0714604" lon="-105.2297992">
  <ele>1582.99</ele>
  <time>2026-08-28T17:53:15Z</time>
  <course>5.0</course>
  <speed>2.3967686580060246</speed>
  <fix>3d</fix>
</trkpt>
<trkpt lat="40.0714549" lon="-105.2297998">
  <ele>1583.0</ele>
  <time>2026-08-28T17:53:15Z</time>
  <course>3.77</course>
  <speed>2.66</speed>
  <fix>3d</fix>
</trkpt>
<trkpt lat="40.0714625" lon="-105.229799">
  <ele>1582.99</ele>
  <time>2026-08-28T17:53:15Z</time>
  <course>5.35</course>
  <speed>2.247220505424423</speed>
  <fix>3d</fix>
</trkpt>
<trkpt lat="40.0714549" lon="-105.2297998">
  <ele>1583.0</ele>
  <time>2026-08-28T17:53:15Z</time>
  <course>3.77</course>
  <speed>2.66</speed>
  <fix>3d</fix>
</trkpt>
<trkpt lat="40.0714644" lon="-105.2297988">
  <ele>1582.99</ele>
  <time>2026-08-28T17:53:15Z</time>
  <course>5.72</course>
  <speed>2.0977368757782755</speed>
  <fix>3d</fix>
</trkpt>
<trkpt lat="40.0714594" lon="-105.2297994">
  <ele>1583.0</ele>
  <time>2026-08-28T17:53:15Z</time>
  <course>4.41</course>
  <speed>2.39</speed>
  <fix>3d</fix>
</trkpt>
<trkpt lat="40.0714661" lon="-105.2297986">
  <ele>1582.99</ele>
  <time>2026-08-28T17:53:15Z</time>
  <course>6.13</course>
  <speed>1.9483326204732085</speed>
  <fix>3d</fix>
</trkpt>
<trkpt lat="40.0714594" lon="-105.2297994">
  <ele>1583.0</ele>
  <time>2026-08-28T17:53:15Z</time>
  <course>4.41</course>
  <speed>2.39</speed>
  <fix>3d</fix>
</trkpt>
<trkpt lat="40.0714678" lon="-105.2297984">
  <ele>1582.99</ele>
  <time>2026-08-28T17:53:15Z</time>
  <course>6.57</course>
  <speed>1.7890779748239034</speed>
  <fix>3d</fix>
</trkpt>
<trkpt lat="40.0714634" lon="-105.229799">
  <ele>1583.0</ele>
  <time>2026-08-28T17:53:15Z</time>
  <course>5.13</course>
  <speed>2.1</speed>
  <fix>3d</fix>
</trkpt>
<trkpt lat="40.0714693" lon="-105.2297982">
  <ele>1582.99</ele>
  <time>2026-08-28T17:53:15Z</time>
  <course>7.05</course>
  <speed>1.6399085340347492</speed>
  <fix>3d</fix>
</trkpt>
<trkpt lat="40.0714634" lon="-105.229799">
  <ele>1583.0</ele>
  <time>2026-08-28T17:53:15Z</time>
  <course>5.13</course>
  <speed>2.1</speed>
  <fix>3d</fix>
</trkpt>
<trkpt lat="40.0714706" lon="-105.229798">
  <ele>1582.99</ele>
  <time>2026-08-28T17:53:15Z</time>
  <course>7.59</course>
  <speed>1.4996666296213967</speed>
  <fix>3d</fix>
</trkpt>
<trkpt lat="40.0714669" lon="-105.2297985">
  <ele>1583.0</ele>
  <time>2026-08-28T17:53:15Z</time>
  <course>5.97</course>
  <speed>1.81</speed>
  <fix>3d</fix>
</trkpt>
<trkpt lat="40.0714718" lon="-105.2297978">
  <ele>1583.0</ele>
  <time>2026-08-28T17:53:15Z</time>
  <course>8.21</course>
  <speed>1.3507405376311175</speed>
  <fix>3d</fix>
</trkpt>
<trkpt lat="40.0714699" lon="-105.2297981">
  <ele>1583.0</ele>
  <time>2026-08-28T17:53:15Z</time>
  <course>6.99</course>
  <speed>1.52</speed>
  <fix>3d</fix>
</trkpt>
<trkpt lat="40.0714729" lon="-105.2297976">
  <ele>1583.0</ele>
  <time>2026-08-28T17:53:15Z</time>
  <course>8.92</course>
  <speed>1.2106196760337244</speed>
  <fix>3d</fix>
</trkpt>
<trkpt lat="40.0714699" lon="-105.2297981">
  <ele>1583.0</ele>
  <time>2026-08-28T17:53:15Z</time>
  <course>6.99</course>
  <speed>1.52</speed>
  <fix>3d</fix>
</trkpt>
<trkpt lat="40.0714739" lon="-105.2297974">
  <ele>1583.0</ele>
  <time>2026-08-28T17:53:15Z</time>
  <course>9.75</course>
  <speed>1.0720074626605918</speed>
  <fix>3d</fix>
</trkpt>
<trkpt lat="40.0714724" lon="-105.2297976">
  <ele>1583.0</ele>
  <time>2026-08-28T17:53:15Z</time>
  <course>8.31</course>
  <speed>1.24</speed>
  <fix>3d</fix>
</trkpt>
<trkpt lat="40.0714748" lon="-105.2297972">
  <ele>1583.0</ele>
  <time>2026-08-28T17:53:15Z</time>
  <course>10.71</course>
  <speed>0.9436630754670864</speed>
  <fix>3d</fix>
</trkpt>
<trkpt lat="40.0714724" lon="-105.2297976">
  <ele>1583.0</ele>
  <time>2026-08-28T17:53:15Z</time>
  <course>8.31</course>
  <speed>1.24</speed>
  <fix>3d</fix>
</trkpt>
<trkpt lat="40.0714755" lon="-105.229797">
  <ele>1583.0</ele>
  <time>2026-08-28T17:53:15Z</time>
  <course>11.67</course>
  <speed>0.8139410298049853</speed>
  <fix>3d</fix>
</trkpt>
<trkpt lat="40.0714743" lon="-105.2297973">
  <ele>1583.0</ele>
  <time>2026-08-28T17:53:15Z</time>
  <course>10.0</course>
  <speed>0.98</speed>
  <fix>3d</fix>
</trkpt>
<trkpt lat="40.0714762" lon="-105.2297969">
  <ele>1583.0</ele>
  <time>2026-08-28T17:53:15Z</time>
  <course>12.59</course>
  <speed>0.6824954212300622</speed>
  <fix>3d</fix>
</trkpt>
<trkpt lat="40.0714743" lon="-105.2297973">
  <ele>1583.0</ele>
  <time>2026-08-28T17:53:15Z</time>
  <course>10.0</course>
  <speed>0.98</speed>
  <fix>3d</fix>
</trkpt>
<trkpt lat="40.0714767" lon="-105.2297967">
  <ele>1583.0</ele>
  <time>2026-08-28T17:53:15Z</time>
  <course>13.47</course>
  <speed>0.5629387178015027</speed>
  <fix>3d</fix>
</trkpt>
<trkpt lat="40.0714758" lon="-105.2297969">
  <ele>1583.0</ele>
  <time>2026-08-28T17:53:15Z</time>
  <course>11.84</course>
  <speed>0.73</speed>
  <fix>3d</fix>
</trkpt>
<trkpt lat="40.0714771" lon="-105.2297966">
  <ele>1583.0</ele>
  <time>2026-08-28T17:53:15Z</time>
  <course>14.27</course>
  <speed>0.44147480109288234</speed>
  <fix>3d</fix>
</trkpt>
<trkpt lat="40.0714758" lon="-105.2297969">
  <ele>1583.0</ele>
  <time>2026-08-28T17:53:15Z</time>
  <course>11.84</course>
  <speed>0.73</speed>
  <fix>3d</fix>
</trkpt>
<trkpt lat="40.0714775" lon="-105.2297965">
  <ele>1583.0</ele>
  <time>2026-08-28T17:53:15Z</time>
  <course>14.92</course>
  <speed>0.3298484500494128</speed>
  <fix>3d</fix>
</trkpt>
<trkpt lat="40.0714769" lon="-105.2297965">
  <ele>1583.0</ele>
  <time>2026-08-28T17:53:15Z</time>
  <course>13.44</course>
  <speed>0.49</speed>
  <fix>3d</fix>
</trkpt>
<trkpt lat="40.0714777" lon="-105.2297964">
  <ele>1583.0</ele>
  <time>2026-08-28T17:53:15Z</time>
  <course>15.4</course>
  <speed>0.215870331449229</speed>
  <fix>3d</fix>
</trkpt>
<trkpt lat="40.0714769" lon="-105.2297965">
  <ele>1583.0</ele>
  <time>2026-08-28T17:53:15Z</time>
  <course>13.44</course>
  <speed>0.49</speed>
  <fix>3d</fix>
</trkpt>
<trkpt lat="40.0714778" lon="-105.2297963">
  <ele>1583.01</ele>
  <time>2026-08-28T17:53:15Z</time>
  <course>15.72</course>
  <speed>0.1044030650891055</speed>
  <fix>3d</fix>
</trkpt>
<trkpt lat="40.0714775" lon="-105.2297963">
  <ele>1583.0</ele>
  <time>2026-08-28T17:53:15Z</time>
  <course>14.57</course>
  <speed>0.27</speed>
  <fix>3d</fix>
</trkpt>
<trkpt lat="40.0714779" lon="-105.2297963">
  <ele>1583.01</ele>
  <time>2026-08-28T17:53:15Z</time>
  <course>15.89</course>
  <speed>0.01</speed>
  <fix>3d</fix>
</trkpt>
<trkpt lat="40.0714775" lon="-105.2297963">
  <ele>1583.0</ele>
  <time>2026-08-28T17:53:15Z</time>
  <course>14.57</course>
  <speed>0.27</speed>
  <fix>3d</fix>
</trkpt>
<trkpt lat="40.0714778" lon="-105.2297963">
  <ele>1583.01</ele>
  <time>2026-08-28T17:53:15Z</time>
  <course>15.89</course>
  <speed>0.06082762530298219</speed>
  <fix>3d</fix>
</trkpt>
<trkpt lat="40.0714779" lon="-105.2297962">
  <ele>1583.0</ele>
  <time>2026-08-28T17:53:15Z</time>
  <course>15.13</course>
  <speed>0.07</speed>
  <fix>3d</fix>
</trkpt>
<trkpt lat="40.0714777" lon="-105.2297963">
  <ele>1583.01</ele>
  <time>2026-08-28T17:53:15Z</time>
  <course>15.95</course>
  <speed>0.14317821063276354</speed>
  <fix>3d</fix>
</trkpt>
<trkpt lat="40.0714779" lon="-105.2297962">
  <ele>1583.0</ele>
  <time>2026-08-28T17:53:15Z</time>
  <course>15.13</course>
  <speed>0.07</speed>
  <fix>3d</fix>
</trkpt>
<trkpt lat="40.0714776" lon="-105.2297964">
  <ele>1583.0</ele>
  <time>2026-08-28T17:53:15Z</time>
  <course>16.09</course>
  <speed>0.194164878389476</speed>
  <fix>3d</fix>
</trkpt>
<trkpt lat="40.0714779" lon="-105.2297962">
  <ele>1583.0</ele>
  <time>2026-08-28T17:53:15Z</time>
  <course>15.13</course>
  <speed>0.07</speed>
  <fix>3d</fix>
</trkpt>
<trkpt lat="40.0714774" lon="-105.2297964">
  <ele>1583.01</ele>
  <time>2026-08-28T17:53:15Z</time>
  <course>16.27</course>
  <speed>0.24738633753705963</speed>
  <fix>3d</fix>
</trkpt>
<trkpt lat="40.0714779" lon="-105.2297962">
  <ele>1583.0</ele>
  <time>2026-08-28T17:53:15Z</time>
  <course>195.45</course>
  <speed>0.07</speed>
  <fix>3d</fix>
</trkpt>
<trkpt lat="40.0714772" lon="-105.2297965">
  <ele>1583.01</ele>
  <time>2026-08-28T17:53:15Z</time>
  <course>16.34</course>
  <speed>0.28861739379323625</speed>
  <fix>3d</fix>
</trkpt>
<trkpt lat="40.0714779" lon="-105.2297962">
  <ele>1583.0</ele>
  <time>2026-08-28T17:53:15Z</time>
  <course>195.45</course>
  <speed>0.07</speed>
  <fix>3d</fix>
</trkpt>
<trkpt lat="40.0714769" lon="-105.2297966">
  <ele>1583.01</ele>
  <time>2026-08-28T17:53:15Z</time>
  <course>16.48</course>
  <speed>0.3080584360149873</speed>
  <fix>3d</fix>
</trkpt>
<trkpt lat="40.0714777" lon="-105.2297962">
  <ele>1583.0</ele>
  <time>2026-08-28T17:53:15Z</time>
  <course>195.62</course>
  <speed>0.18</speed>
  <fix>3d</fix>
</trkpt>
<trkpt lat="40.0714768" lon="-105.2297965">
  <ele>1583.02</ele>
  <time>2026-08-28T17:53:15Z</time>
  <course>16.72</course>
  <speed>0.29832867780352595</speed>
  <fix>3d</fix>
</trkpt>
<trkpt lat="40.0714777" lon="-105.2297962">
  <ele>1583.0</ele>
  <time>2026-08-28T17:53:15Z</time>
  <course>195.62</course>
  <speed>0.18</speed>
  <fix>3d</fix>
</trkpt>
<trkpt lat="40.0714766" lon="-105.2297966">
  <ele>1583.02</ele>
  <time>2026-08-28T17:53:15Z</time>
  <course>17.04</course>
  <speed>0.25495097567963926</speed>
  <fix>3d</fix>
</trkpt>
<trkpt lat="40.0714774" lon="-105.2297964">
  <ele>1583.0</ele>
  <time>2026-08-28T17:53:15Z</time>
  <course>195.91</course>
  <speed>0.23</speed>
  <fix>3d</fix>
</trkpt>
<trkpt lat="40.0714764" lon="-105.2297967">
  <ele>1583.02</ele>
  <time>2026-08-28T17:53:15Z</time>
  <course>17.4</course>
  <speed>0.21377558326431947</speed>
  <fix>3d</fix>
</trkpt>
<trkpt lat="40.0714774" lon="-105.2297964">
  <ele>1583.0</ele>
  <time>2026-08-28T17:53:15Z</time>
  <course>195.91</course>
  <speed>0.23</speed>
  <fix>3d</fix>
</trkpt>
<trkpt lat="40.0714763" lon="-105.2297967">
  <ele>1583.03</ele>
  <time>2026-08-28T17:53:15Z</time>
  <course>17.73</course>
  <speed>0.15132745950421556</speed>
  <fix>3d</fix>
</trkpt>
<trkpt lat="40.071477" lon="-105.2297965">
  <ele>1583.0</ele>
  <time>2026-08-28T17:53:15Z</time>
  <course>196.36</course>
  <speed>0.19</speed>
  <fix>3d</fix>
</trkpt>
<trkpt lat="40.0714762" lon="-105.2297967">
  <ele>1583.03</ele>
  <time>2026-08-28T17:53:15Z</time>
  <course>17.96</course>
  <speed>0.09</speed>
  <fix>3d</fix>
</trkpt>
<trkpt lat="40.0714767" lon="-105.2297966">
  <ele>1583.0</ele>
  <time>2026-08-28T17:53:15Z</time>
  <course>196.86</course>
  <speed>0.09</speed>
  <fix>3d</fix>
</trkpt>
<trkpt lat="40.0714762" lon="-105.2297967">
  <ele>1583.03</ele>
  <time>2026-08-28T17:53:15Z</time>
  <course>17.98</course>
  <speed>0.0282842712474619</speed>
  <fix>3d</fix>
</trkpt>
<trkpt lat="40.0714767" lon="-105.2297966">
  <ele>1583.0</ele>
  <time>2026-08-28T17:53:15Z</time>
  <course>196.86</course>
  <speed>0.09</speed>
  <fix>3d</fix>
</trkpt>
<trkpt lat="40.0714763" lon="-105.2297966">
  <ele>1583.03</ele>
  <time>2026-08-28T17:53:15Z</time>
  <course>18.13</course>
  <speed>0.05</speed>
  <fix>3d</fix>
</trkpt>
<trkpt lat="40.0714767" lon="-105.2297966">
  <ele>1583.0</ele>
  <time>2026-08-28T17:53:15Z</time>
  <course>17.63</course>
  <speed>0.03</speed>
  <fix>3d</fix>
</trkpt>
<trkpt lat="40.0714764" lon="-105.2297965">
  <ele>1583.03</ele>
  <time>2026-08-28T17:53:15Z</time>
  <course>18.86</course>
  <speed>0.130384048104053</speed>
  <fix>3d</fix>
</trkpt>
<trkpt lat="40.0714767" lon="-105.2297966">
  <ele>1583.0</ele>
  <time>2026-08-28T17:53:15Z</time>
  <course>17.63</course>
  <speed>0.03</speed>
  <fix>3d</fix>
</trkpt>
<trkpt lat="40.0714766" lon="-105.2297964">
  <ele>1583.03</ele>
  <time>2026-08-28T17:53:15Z</time>
  <course>20.06</course>
  <speed>0.20591260281974003</speed>
  <fix>3d</fix>
</trkpt>
<trkpt lat="40.0714768" lon="-105.2297966">
  <ele>1583.0</ele>
  <time>2026-08-28T17:53:15Z</time>
  <course>18.87</course>
  <speed>0.17</speed>
  <fix>3d</fix>
</trkpt>
<trkpt lat="40.0714769" lon="-105.2297964">
  <ele>1583.03</ele>
  <time>2026-08-28T17:53:15Z</time>
  <course>21.77</course>
  <speed>0.28653097563788804</speed>
  <fix>3d</fix>
</trkpt>
<trkpt lat="40.0714768" lon="-105.2297966">
  <ele>1583.0</ele>
  <time>2026-08-28T17:53:15Z</time>
  <course>18.87</course>
  <speed>0.17</speed>
  <fix>3d</fix>
</trkpt>
<trkpt lat="40.0714771" lon="-105.2297962">
  <ele>1583.03</ele>
  <time>2026-08-28T17:53:15Z</time>
  <course>23.98</course>
  <speed>0.3671511950137164</speed>
  <fix>3d</fix>
</trkpt>
<trkpt lat="40.0714772" lon="-105.2297964">
  <ele>1583.0</ele>
  <time>2026-08-28T17:53:15Z</time>
  <course>21.83</course>
  <speed>0.32</speed>
  <fix>3d</fix>
</trkpt>
<trkpt lat="40.0714775" lon="-105.2297959">
  <ele>1583.03</ele>
  <time>2026-08-28T17:53:15Z</time>
  <course>26.58</course>
  <speed>0.4441846462902562</speed>
  <fix>3d</fix>
</trkpt>
<trkpt lat="40.0714772" lon="-105.2297964">
  <ele>1583.0</ele>
  <time>2026-08-28T17:53:15Z</time>
  <course>21.83</course>
  <speed>0.32</speed>
  <fix>3d</fix>
</trkpt>
<trkpt lat="40.0714779" lon="-105.2297956">
  <ele>1583.03</ele>
  <time>2026-08-28T17:53:15Z</time>
  <course>29.46</course>
  <speed>0.5186520991955976</speed>
  <fix>3d</fix>
</trkpt>
<trkpt lat="40.0714778" lon="-105.229796">
  <ele>1583.0</ele>
  <time>2026-08-28T17:53:15Z</time>
  <course>26.5</course>
  <speed>0.47</speed>
  <fix>3d</fix>
</trkpt>
<trkpt lat="40.0714784" lon="-105.2297952">
  <ele>1583.03</ele>
  <time>2026-08-28T17:53:15Z</time>
  <course>32.5</course>
  <speed>0.6</speed>
  <fix>3d</fix>
</trkpt>
<trkpt lat="40.0714778" lon="-105.229796">
  <ele>1583.0</ele>
  <time>2026-08-28T17:53:15Z</time>
  <course>26.5</course>
  <speed>0.47</speed>
  <fix>3d</fix>
</trkpt>
<trkpt lat="40.0714789" lon="-105.2297948">
  <ele>1583.03</ele>
  <time>2026-08-28T17:53:15Z</time>
  <course>35.92</course>
  <speed>0.6747592163134936</speed>
  <fix>3d</fix>
</trkpt>
<trkpt lat="40.0714787" lon="-105.2297954">
  <ele>1583.0</ele>
  <time>2026-08-28T17:53:15Z</time>
  <course>32.4</course>
  <speed>0.62</speed>
  <fix>3d</fix>
</trkpt>
<trkpt lat="40.0714794" lon="-105.2297942">
  <ele>1583.04</ele>
  <time>2026-08-28T17:53:15Z</time>
  <course>39.92</course>
  <speed>0.7569015788066504</speed>
  <fix>3d</fix>
</trkpt>
<trkpt lat="40.0714787" lon="-105.2297954">
  <ele>1583.0</ele>
  <time>2026-08-28T17:53:15Z</time>
  <course>32.4</course>
  <speed>0.62</speed>
  <fix>3d</fix>
</trkpt>
<trkpt lat="40.07148" lon="-105.2297935">
  <ele>1583.04</ele>
  <time>2026-08-28T17:53:15Z</time>
  <course>44.43</course>
  <speed>0.8354639429682169</speed>
  <fix>3d</fix>
</trkpt>
<trkpt lat="40.0714797" lon="-105.2297945">
  <ele>1583.0</ele>
  <time>2026-08-28T17:53:15Z</time>
  <course>39.9</course>
  <speed>0.76</speed>
  <fix>3d</fix>
</trkpt>
<trkpt lat="40.0714805" lon="-105.2297928">
  <ele>1583.04</ele>
  <time>2026-08-28T17:53:15Z</time>
  <course>49.42</course>
  <speed>0.9060353193998566</speed>
  <fix>3d</fix>
</trkpt>
<trkpt lat="40.0714797" lon="-105.2297945">
  <ele>1583.0</ele>
  <time>2026-08-28T17:53:15Z</time>
  <course>39.9</course>
  <speed>0.76</speed>
  <fix>3d</fix>
</trkpt>
<trkpt lat="40.0714811" lon="-105.2297918">
  <ele>1583.04</ele>
  <time>2026-08-28T17:53:15Z</time>
  <course>54.56</course>
  <speed>0.9932270636667125</speed>
  <fix>3d</fix>
</trkpt>
<trkpt lat="40.0714797" lon="-105.2297945">
  <ele>1583.0</ele>
  <time>2026-08-28T17:53:15Z</time>
  <course>39.9</course>
  <speed>0.76</speed>
  <fix>3d</fix>
</trkpt>
<trkpt lat="40.0714816" lon="-105.2297908">
  <ele>1583.05</ele>
  <time>2026-08-28T17:53:15Z</time>
  <course>59.46</course>
  <speed>1.0782393055347221</speed>
  <fix>3d</fix>
</trkpt>
<trkpt lat="40.0714807" lon="-105.2297931">
  <ele>1583.0</ele>
  <time>2026-08-28T17:53:15Z</time>
  <course>49.27</course>
  <speed>0.9</speed>
  <fix>3d</fix>
</trkpt>
<trkpt lat="40.071482" lon="-105.2297896">
  <ele>1583.05</ele>
  <time>2026-08-28T17:53:15Z</time>
  <course>63.97</course>
  <speed>1.1686744627996284</speed>
  <fix>3d</fix>
</trkpt>
<trkpt lat="40.0714807" lon="-105.2297931">
  <ele>1583.0</ele>
  <time>2026-08-28T17:53:15Z</time>
  <course>49.27</course>
  <speed>0.9</speed>
  <fix>3d</fix>
</trkpt>
<trkpt lat="40.0714825" lon="-105.2297883">
  <ele>1583.05</ele>
  <time>2026-08-28T17:53:15Z</time>
  <course>67.96</course>
  <speed>1.2653062870309306</speed>
  <fix>3d</fix>
</trkpt>
<trkpt lat="40.0714818" lon="-105.2297912">
  <ele>1583.0</ele>
  <time>2026-08-28T17:53:15Z</time>
  <course>59.0</course>
  <speed>1.06</speed>
  <fix>3d</fix>
</trkpt>
<trkpt lat="40.0714829" lon="-105.2297869">
  <ele>1583.05</ele>
  <time>2026-08-28T17:53:15Z</time>
  <course>71.34</course>
  <speed>1.3601470508735443</speed>
  <fix>3d</fix>
</trkpt>
<trkpt lat="40.0714818" lon="-105.2297912">
  <ele>1583.0</ele>
  <time>2026-08-28T17:53:15Z</time>
  <course>59.0</course>
  <speed>1.06</speed>
  <fix>3d</fix>
</trkpt>
<trkpt lat="40.0714833" lon="-105.2297853">
  <ele>1583.05</ele>
  <time>2026-08-28T17:53:15Z</time>
  <course>74.26</course>
  <speed>1.464923206178399</speed>
  <fix>3d</fix>
</trkpt>
<trkpt lat="40.0714827" lon="-105.2297888">
  <ele>1583.0</ele>
  <time>2026-08-28T17:53:15Z</time>
  <course>67.29</course>
  <speed>1.24</speed>
  <fix>3d</fix>
</trkpt>
<trkpt lat="40.0714836" lon="-105.2297836">
  <ele>1583.05</ele>
  <time>2026-08-28T17:53:15Z</time>
  <course>76.76</course>
  <speed>1.5631058825300352</speed>
  <fix>3d</fix>
</trkpt>
<trkpt lat="40.0714835" lon="-105.2297858">
  <ele>1583.0</ele>
  <time>2026-08-28T17:53:15Z</time>
  <course>73.57</course>
  <speed>1.44</speed>
  <fix>3d</fix>
</trkpt>
<trkpt lat="40.0714839" lon="-105.2297817">
  <ele>1583.05</ele>
  <time>2026-08-28T17:53:15Z</time>
  <course>78.99</course>
  <speed>1.6637307474468337</speed>
  <fix>3d</fix>
</trkpt>
<trkpt lat="40.0714835" lon="-105.2297858">
  <ele>1583.0</ele>
  <time>2026-08-28T17:53:15Z</time>
  <course>73.57</course>
  <speed>1.44</speed>
  <fix>3d</fix>
</trkpt>
<trkpt lat="40.0714842" lon="-105.2297797">
  <ele>1583.05</ele>
  <time>2026-08-28T17:53:15Z</time>
  <course>80.87</course>
  <speed>1.7578680269007683</speed>
  <fix>3d</fix>
</trkpt>
<trkpt lat="40.0714842" lon="-105.2297823">
  <ele>1583.0</ele>
  <time>2026-08-28T17:53:15Z</time>
  <course>78.25</course>
  <speed>1.63</speed>
  <fix>3d</fix>
</trkpt>
<trkpt lat="40.0714844" lon="-105.2297776">
  <ele>1583.05</ele>
  <time>2026-08-28T17:53:15Z</time>
  <course>82.45</course>
  <speed>1.851944923587092</speed>
  <fix>3d</fix>
</trkpt>
<trkpt lat="40.0714842" lon="-105.2297823">
  <ele>1583.0</ele>
  <time>2026-08-28T17:53:15Z</time>
  <course>78.25</course>
  <speed>1.63</speed>
  <fix>3d</fix>
</trkpt>
<trkpt lat="40.0714847" lon="-105.2297754">
  <ele>1583.05</ele>
  <time>2026-08-28T17:53:15Z</time>
  <course>83.81</course>
  <speed>1.9582900704441106</speed>
  <fix>3d</fix>
</trkpt>
<trkpt lat="40.0714847" lon="-105.2297782">
  <ele>1583.0</ele>
  <time>2026-08-28T17:53:15Z</time>
  <course>81.73</course>
  <speed>1.82</speed>
  <fix>3d</fix>
</trkpt>
<trkpt lat="40.0714848" lon="-105.229773">
  <ele>1583.05</ele>
  <time>2026-08-28T17:53:15Z</time>
  <course>84.96</course>
  <speed>2.0554804791094465</speed>
  <fix>3d</fix>
</trkpt>
<trkpt lat="40.0714847" lon="-105.2297782">
  <ele>1583.0</ele>
  <time>2026-08-28T17:53:15Z</time>
  <course>81.73</course>
  <speed>1.82</speed>
  <fix>3d</fix>
</trkpt>
<trkpt lat="40.071485" lon="-105.2297705">
  <ele>1583.05</ele>
  <time>2026-08-28T17:53:15Z</time>
  <course>85.92</course>
  <speed>2.16390850083824</speed>
  <fix>3d</fix>
</trkpt>
<trkpt lat="40.0714851" lon="-105.2297738">
  <ele>1583.0</ele>
  <time>2026-08-28T17:53:15Z</time>
  <course>84.24</course>
  <speed>2.02</speed>
  <fix>3d</fix>
</trkpt>
<trkpt lat="40.0714852" lon="-105.2297679">
  <ele>1583.05</ele>
  <time>2026-08-28T17:53:15Z</time>
  <course>86.76</course>
  <speed>2.262675407565124</speed>
  <fix>3d</fix>
</trkpt>
<trkpt lat="40.0714851" lon="-105.2297738">
  <ele>1583.0</ele>
  <time>2026-08-28T17:53:15Z</time>
  <course>84.24</course>
  <speed>2.02</speed>
  <fix>3d</fix>
</trkpt>
<trkpt lat="40.0714853" lon="-105.2297652">
  <ele>1583.05</ele>
  <time>2026-08-28T17:53:15Z</time>
  <course>87.47</course>
  <speed>2.371349826575573</speed>
  <fix>3d</fix>
</trkpt>
<trkpt lat="40.0714854" lon="-105.2297688">
  <ele>1583.0</ele>
  <time>2026-08-28T17:53:15Z</time>
  <course>86.05</course>
  <speed>2.23</speed>
  <fix>3d</fix>
</trkpt>
<trkpt lat="40.0714854" lon="-105.2297623">
  <ele>1583.05</ele>
  <time>2026-08-28T17:53:15Z</time>
  <course>88.08</course>
  <speed>2.4809877065394743</speed>
  <fix>3d</fix>
</trkpt>
<trkpt lat="40.0714854" lon="-105.2297688">
  <ele>1583.0</ele>
  <time>2026-08-28T17:53:15Z</time>
  <course>86.05</course>
  <speed>2.23</speed>
  <fix>3d</fix>
</trkpt>
<trkpt lat="40.0714855" lon="-105.2297593">
  <ele>1583.04</ele>
  <time>2026-08-28T17:53:15Z</time>
  <course>88.62</course>
  <speed>2.580484450641003</speed>
  <fix>3d</fix>
</trkpt>
<trkpt lat="40.0714856" lon="-105.2297633">
  <ele>1583.0</ele>
  <time>2026-08-28T17:53:15Z</time>
  <course>87.38</course>
  <speed>2.44</speed>
  <fix>3d</fix>
</trkpt>
<trkpt lat="40.0714855" lon="-105.2297562">
  <ele>1583.04</ele>
  <time>2026-08-28T17:53:15Z</time>
  <course>89.1</course>
  <speed>2.6701685340067955</speed>
  <fix>3d</fix>
</trkpt>
<trkpt lat="40.0714856" lon="-105.2297633">
  <ele>1583.0</ele>
  <time>2026-08-28T17:53:15Z</time>
  <course>87.38</course>
  <speed>2.44</speed>
  <fix>3d</fix>
</trkpt>
<trkpt lat="40.0714856" lon="-105.229753">
  <ele>1583.04</ele>
  <time>2026-08-28T17:53:15Z</time>
  <course>89.54</course>
  <speed>2.7500181817580773</speed>
  <fix>3d</fix>
</trkpt>
<trkpt lat="40.0714858" lon="-105.2297574">
  <ele>1583.0</ele>
  <time>2026-08-28T17:53:15Z</time>
  <course>88.41</course>
  <speed>2.62</speed>
  <fix>3d</fix>
</trkpt>
<trkpt lat="40.0714856" lon="-105.2297498">
  <ele>1583.03</ele>
  <time>2026-08-28T17:53:15Z</time>
  <course>89.94</course>
  <speed>2.82</speed>
  <fix>3d</fix>
</trkpt>
<trkpt lat="40.0714858" lon="-105.2297574">
  <ele>1583.0</ele>
  <time>2026-08-28T17:53:15Z</time>
  <course>88.41</course>
  <speed>2.62</speed>
  <fix>3d</fix>
</trkpt>
<trkpt lat="40.0714856" lon="-105.2297464">
  <ele>1583.03</ele>
  <time>2026-08-28T17:53:15Z</time>
  <course>90.31</course>
  <speed>2.8700174215499112</speed>
  <fix>3d</fix>
</trkpt>
<trkpt lat="40.0714858" lon="-105.2297574">
  <ele>1583.0</ele>
  <time>2026-08-28T17:53:15Z</time>
  <course>88.41</course>
  <speed>2.62</speed>
  <fix>3d</fix>
</trkpt>
<trkpt lat="40.0714856" lon="-105.2297431">
  <ele>1583.03</ele>
  <time>2026-08-28T17:53:15Z</time>
  <course>90.66</course>
  <speed>2.9101546350666663</speed>
  <fix>3d</fix>
</trkpt>
<trkpt lat="40.0714859" lon="-105.229751">
  <ele>1583.0</ele>
  <time>2026-08-28T17:53:15Z</time>
  <course>89.25</course>
  <speed>2.77</speed>
  <fix>3d</fix>
</trkpt>
<trkpt lat="40.0714857" lon="-105.2297397">
  <ele>1583.03</ele>
  <time>2026-08-28T17:53:15Z</time>
  <course>90.98</course>
  <speed>2.9404251393293452</speed>
  <fix>3d</fix>
</trkpt>
<trkpt lat="40.0714859" lon="-105.229751">
  <ele>1583.0</ele>
  <time>2026-08-28T17:53:15Z</time>
  <course>89.25</course>
  <speed>2.77</speed>
  <fix>3d</fix>
</trkpt>
<trkpt lat="40.0714857" lon="-105.2297362">
  <ele>1583.04</ele>
  <time>2026-08-28T17:53:15Z</time>
  <course>91.29</course>
  <speed>2.9506101064017254</speed>
  <fix>3d</fix>
</trkpt>
<trkpt lat="40.071486" lon="-105.2297443">
  <ele>1583.0</ele>
  <time>2026-08-28T17:53:15Z</time>
  <course>89.97</course>
  <speed>2.87</speed>
  <fix>3d</fix>
</trkpt>
<trkpt lat="40.0714857" lon="-105.2297328">
  <ele>1583.04</ele>
  <time>2026-08-28T17:53:15Z</time>
  <course>91.6</course>
  <speed>2.940833215264001</speed>
  <fix>3d</fix>
</trkpt>
<trkpt lat="40.071486" lon="-105.2297443">
  <ele>1583.0</ele>
  <time>2026-08-28T17:53:15Z</time>
  <course>89.97</course>
  <speed>2.87</speed>
  <fix>3d</fix>
</trkpt>
<trkpt lat="40.0714856" lon="-105.2297294">
  <ele>1583.04</ele>
  <time>2026-08-28T17:53:15Z</time>
  <course>91.92</course>
  <speed>2.92138665705175</speed>
  <fix>3d</fix>
</trkpt>
<trkpt lat="40.071486" lon="-105.2297375">
  <ele>1583.0</ele>
  <time>2026-08-28T17:53:15Z</time>
  <course>90.62</course>
  <speed>2.91</speed>
  <fix>3d</fix>
</trkpt>
<trkpt lat="40.0714856" lon="-105.229726">
  <ele>1583.04</ele>
  <time>2026-08-28T17:53:15Z</time>
  <course>92.23</course>
  <speed>2.891729586251107</speed>
  <fix>3d</fix>
</trkpt>
<trkpt lat="40.0714859" lon="-105.2297308">
  <ele>1583.0</ele>
  <time>2026-08-28T17:53:15Z</time>
  <course>91.25</course>
  <speed>2.89</speed>
  <fix>3d</fix>
</trkpt>
<trkpt lat="40.0714855" lon="-105.2297227">
  <ele>1583.03</ele>
  <time>2026-08-28T17:53:15Z</time>
  <course>92.56</course>
  <speed>2.8421294833275983</speed>
  <fix>3d</fix>
</trkpt>
<trkpt lat="40.0714859" lon="-105.2297308">
  <ele>1583.0</ele>
  <time>2026-08-28T17:53:15Z</time>
  <course>91.25</course>
  <speed>2.89</speed>
  <fix>3d</fix>
</trkpt>
<trkpt lat="40.0714854" lon="-105.2297195">
  <ele>1583.03</ele>
  <time>2026-08-28T17:53:15Z</time>
  <course>92.9</course>
  <speed>2.773048863615641</speed>
  <fix>3d</fix>
</trkpt>
<trkpt lat="40.0714858" lon="-105.2297241">
  <ele>1583.0</ele>
  <time>2026-08-28T17:53:15Z</time>
  <course>91.9</course>
  <speed>2.81</speed>
  <fix>3d</fix>
</trkpt>
<trkpt lat="40.0714853" lon="-105.2297163">
  <ele>1583.03</ele>
  <time>2026-08-28T17:53:15Z</time>
  <course>93.28</course>
  <speed>2.693640659033792</speed>
  <fix>3d</fix>
</trkpt>
<trkpt lat="40.0714858" lon="-105.2297241">
  <ele>1583.0</ele>
  <time>2026-08-28T17:53:15Z</time>
  <course>91.9</course>
  <speed>2.81</speed>
  <fix>3d</fix>
</trkpt>
<trkpt lat="40.0714852" lon="-105.2297132">
  <ele>1583.03</ele>
  <time>2026-08-28T17:53:15Z</time>
  <course>93.7</course>
  <speed>2.6043233286210836</speed>
  <fix>3d</fix>
</trkpt>
<trkpt lat="40.0714856" lon="-105.2297176">
  <ele>1583.0</ele>
  <time>2026-08-28T17:53:15Z</time>
  <course>92.63</course>
  <speed>2.67</speed>
  <fix>3d</fix>
</trkpt>
<trkpt lat="40.0714851" lon="-105.2297103">
  <ele>1583.03</ele>
  <time>2026-08-28T17:53:15Z</time>
  <course>94.15</course>
  <speed>2.495135266874323</speed>
  <fix>3d</fix>
</trkpt>
<trkpt lat="40.0714856" lon="-105.2297176">
  <ele>1583.0</ele>
  <time>2026-08-28T17:53:15Z</time>
  <course>92.63</course>
  <speed>2.67</speed>
  <fix>3d</fix>
</trkpt>
<trkpt lat="40.071485" lon="-105.2297074">
  <ele>1583.02</ele>
  <time>2026-08-28T17:53:15Z</time>
  <course>94.63</course>
  <speed>2.3760892239139504</speed>
  <fix>3d</fix>
</trkpt>
<trkpt lat="40.0714854" lon="-105.2297115">
  <ele>1583.0</ele>
  <time>2026-08-28T17:53:15Z</time>
  <course>93.49</course>
  <speed>2.48</speed>
  <fix>3d</fix>
</trkpt>
<trkpt lat="40.0714849" lon="-105.2297048">
  <ele>1583.02</ele>
  <time>2026-08-28T17:53:15Z</time>
  <course>95.15</course>
  <speed>2.247220505424423</speed>
  <fix>3d</fix>
</trkpt>
<trkpt lat="40.0714854" lon="-105.2297115">
  <ele>1583.0</ele>
  <time>2026-08-28T17:53:15Z</time>
  <course>93.49</course>
  <speed>2.48</speed>
  <fix>3d</fix>
</trkpt>
<trkpt lat="40.0714847" lon="-105.2297022">
  <ele>1583.02</ele>
  <time>2026-08-28T17:53:15Z</time>
  <course>95.71</course>
  <speed>2.118537231204588</speed>
  <fix>3d</fix>
</trkpt>
<trkpt lat="40.0714851" lon="-105.2297059">
  <ele>1583.0</ele>
  <time>2026-08-28T17:53:15Z</time>
  <course>94.48</course>
  <speed>2.24</speed>
  <fix>3d</fix>
</trkpt>
<trkpt lat="40.0714846" lon="-105.2296999">
  <ele>1583.02</ele>
  <time>2026-08-28T17:53:15Z</time>
  <course>96.31</course>
  <speed>1.9791412279066898</speed>
  <fix>3d</fix>
</trkpt>
<trkpt lat="40.0714851" lon="-105.2297059">
  <ele>1583.0</ele>
  <time>2026-08-28T17:53:15Z</time>
  <course>94.48</course>
  <speed>2.24</speed>
  <fix>3d</fix>
</trkpt>
<trkpt lat="40.0714844" lon="-105.2296977">
  <ele>1583.02</ele>
  <time>2026-08-28T17:53:15Z</time>
  <course>96.98</course>
  <speed>1.8309560344257314</speed>
  <fix>3d</fix>
</trkpt>
<trkpt lat="40.0714847" lon="-105.2297011">
  <ele>1583.0</ele>
  <time>2026-08-28T17:53:15Z</time>
  <course>95.64</course>
  <speed>1.97</speed>
  <fix>3d</fix>
</trkpt>
<trkpt lat="40.0714842" lon="-105.2296957">
  <ele>1583.02</ele>
  <time>2026-08-28T17:53:15Z</time>
  <course>97.73</course>
  <speed>1.6819334112859523</speed>
  <fix>3d</fix>
</trkpt>
<trkpt lat="40.0714847" lon="-105.2297011">
  <ele>1583.0</ele>
  <time>2026-08-28T17:53:15Z</time>
  <course>95.64</course>
  <speed>1.97</speed>
  <fix>3d</fix>
</trkpt>
<trkpt lat="40.071484" lon="-105.2296938">
  <ele>1583.02</ele>
  <time>2026-08-28T17:53:15Z</time>
  <course>98.58</course>
  <speed>1.5344380078712856</speed>
  <fix>3d</fix>
</trkpt>
<trkpt lat="40.0714844" lon="-105.2296968">
  <ele>1583.0</ele>
  <time>2026-08-28T17:53:15Z</time>
  <course>97.05</course>
  <speed>1.69</speed>
  <fix>3d</fix>
</trkpt>
<trkpt lat="40.0714839" lon="-105.2296922">
  <ele>1583.02</ele>
  <time>2026-08-28T17:53:15Z</time>
  <course>99.55</course>
  <speed>1.386001443000692</speed>
  <fix>3d</fix>
</trkpt>
<trkpt lat="40.0714844" lon="-105.2296968">
  <ele>1583.0</ele>
  <time>2026-08-28T17:53:15Z</time>
  <course>97.05</course>
  <speed>1.69</speed>
  <fix>3d</fix>
</trkpt>
<trkpt lat="40.0714837" lon="-105.2296907">
  <ele>1583.02</ele>
  <time>2026-08-28T17:53:15Z</time>
  <course>100.68</course>
  <speed>1.2379418403139946</speed>
  <fix>3d</fix>
</trkpt>
<trkpt lat="40.0714844" lon="-105.2296968">
  <ele>1583.0</ele>
  <time>2026-08-28T17:53:15Z</time>
  <course>97.05</course>
  <speed>1.69</speed>
  <fix>3d</fix>
</trkpt>
<trkpt lat="40.0714835" lon="-105.2296894">
  <ele>1583.02</ele>
  <time>2026-08-28T17:53:15Z</time>
  <course>101.99</course>
  <speed>1.0904127658827185</speed>
  <fix>3d</fix>
</trkpt>
<trkpt lat="40.071484" lon="-105.2296931">
  <ele>1583.0</ele>
  <time>2026-08-28T17:53:15Z</time>
  <course>98.86</course>
  <speed>1.4</speed>
  <fix>3d</fix>
</trkpt>
<trkpt lat="40.0714833" lon="-105.2296883">
  <ele>1583.02</ele>
  <time>2026-08-28T17:53:15Z</time>
  <course>103.41</course>
  <speed>0.9414881836751856</speed>
  <fix>3d</fix>
</trkpt>
<trkpt lat="40.071484" lon="-105.2296931">
  <ele>1583.0</ele>
  <time>2026-08-28T17:53:15Z</time>
  <course>98.86</course>
  <speed>1.4</speed>
  <fix>3d</fix>
</trkpt>
<trkpt lat="40.0714832" lon="-105.2296873">
  <ele>1583.02</ele>
  <time>2026-08-28T17:53:15Z</time>
  <course>104.82</course>
  <speed>0.802807573457052</speed>
  <fix>3d</fix>
</trkpt>
<trkpt lat="40.0714835" lon="-105.2296902">
  <ele>1583.0</ele>
  <time>2026-08-28T17:53:15Z</time>
  <course>101.22</course>
  <speed>1.11</speed>
  <fix>3d</fix>
</trkpt>
<trkpt lat="40.071483" lon="-105.2296865">
  <ele>1583.02</ele>
  <time>2026-08-28T17:53:15Z</time>
  <course>106.15</course>
  <speed>0.6621933252457322</speed>
  <fix>3d</fix>
</trkpt>
<trkpt lat="40.0714835" lon="-105.2296902">
  <ele>1583.0</ele>
  <time>2026-08-28T17:53:15Z</time>
  <course>101.22</course>
  <speed>1.11</speed>
  <fix>3d</fix>
</trkpt>
<trkpt lat="40.0714828" lon="-105.2296859">
  <ele>1583.02</ele>
  <time>2026-08-28T17:53:15Z</time>
  <course>107.3</course>
  <speed>0.5316013544000805</speed>
  <fix>3d</fix>
</trkpt>
<trkpt lat="40.0714832" lon="-105.229688">
  <ele>1583.0</ele>
  <time>2026-08-28T17:53:15Z</time>
  <course>103.91</course>
  <speed>0.84</speed>
  <fix>3d</fix>
</trkpt>
<trkpt lat="40.0714827" lon="-105.2296854">
  <ele>1583.01</ele>
  <time>2026-08-28T17:53:15Z</time>
  <course>108.22</course>
  <speed>0.3956008088970496</speed>
  <fix>3d</fix>
</trkpt>
<trkpt lat="40.0714832" lon="-105.229688">
  <ele>1583.0</ele>
  <time>2026-08-28T17:53:15Z</time>
  <course>103.91</course>
  <speed>0.84</speed>
  <fix>3d</fix>
</trkpt>
<trkpt lat="40.0714826" lon="-105.2296851">
  <ele>1583.01</ele>
  <time>2026-08-28T17:53:15Z</time>
  <course>108.92</course>
  <speed>0.26248809496813374</speed>
  <fix>3d</fix>
</trkpt>
<trkpt lat="40.0714829" lon="-105.2296863">
  <ele>1583.0</ele>
  <time>2026-08-28T17:53:15Z</time>
  <course>106.3</course>
  <speed>0.57</speed>
  <fix>3d</fix>
</trkpt>
<trkpt lat="40.0714826" lon="-105.2296848">
  <ele>1583.01</ele>
  <time>2026-08-28T17:53:15Z</time>
  <course>109.38</course>
  <speed>0.14560219778561037</speed>
  <fix>3d</fix>
</trkpt>
<trkpt lat="40.0714827" lon="-105.2296853">
  <ele>1583.0</ele>
  <time>2026-08-28T17:53:15Z</time>
  <course>107.92</course>
  <speed>0.32</speed>
  <fix>3d</fix>
</trkpt>
<trkpt lat="40.0714826" lon="-105.2296848">
  <ele>1583.01</ele>
  <time>2026-08-28T17:53:15Z</time>
  <course>109.65</course>
  <speed>0.0412310562561766</speed>
  <fix>3d</fix>
</trkpt>
<trkpt lat="40.0714827" lon="-105.2296853">
  <ele>1583.0</ele>
  <time>2026-08-28T17:53:15Z</time>
  <course>107.92</course>
  <speed>0.32</speed>
  <fix>3d</fix>
</trkpt>
<trkpt lat="40.0714826" lon="-105.2296848">
  <ele>1583.01</ele>
  <time>2026-08-28T17:53:16Z</time>
  <course>109.7</course>
  <speed>0.0412310562561766</speed>
  <fix>3d</fix>
</trkpt>
<trkpt lat="40.0714825" lon="-105.2296849">
  <ele>1583.0</ele>
  <time>2026-08-28T17:53:16Z</time>
  <course>108.73</course>
  <speed>0.1</speed>
  <fix>3d</fix>
</trkpt>
<trkpt lat="40.0714826" lon="-105.2296849">
  <ele>1583.01</ele>
  <time>2026-08-28T17:53:16Z</time>
  <course>109.75</course>
  <speed>0.11401754250991379</speed>
  <fix>3d</fix>
</trkpt>
<trkpt lat="40.0714825" lon="-105.2296849">
  <ele>1583.0</ele>
  <time>2026-08-28T17:53:16Z</time>
  <course>108.73</course>
  <speed>0.1</speed>
  <fix>3d</fix>
</trkpt>
<trkpt lat="40.0714825" lon="-105.229685">
  <ele>1583.01</ele>
  <time>2026-08-28T17:53:16Z</time>
  <course>109.91</course>
  <speed>0.1772004514666935</speed>
  <fix>3d</fix>
</trkpt>
<trkpt lat="40.0714825" lon="-105.2296849">
  <ele>1583.0</ele>
  <time>2026-08-28T17:53:16Z</time>
  <course>289.21</course>
  <speed>0.05</speed>
  <fix>3d</fix>
</trkpt>
<trkpt lat="40.0714826" lon="-105.2296852">
  <ele>1583.01</ele>
  <time>2026-08-28T17:53:16Z</time>
  <course>110.14</course>
  <speed>0.2308679276123039</speed>
  <fix>3d</fix>
</trkpt>
<trkpt lat="40.0714825" lon="-105.2296849">
  <ele>1583.0</ele>
  <time>2026-08-28T17:53:16Z</time>
  <course>289.21</course>
  <speed>0.05</speed>
  <fix>3d</fix>
</trkpt>
<trkpt lat="40.0714827" lon="-105.2296855">
  <ele>1583.01</ele>
  <time>2026-08-28T17:53:16Z</time>
  <course>110.42</course>
  <speed>0.26248809496813374</speed>
  <fix>3d</fix>
</trkpt>
<trkpt lat="40.0714826" lon="-105.229685">
  <ele>1583.0</ele>
  <time>2026-08-28T17:53:16Z</time>
  <course>289.53</course>
  <speed>0.16</speed>
  <fix>3d</fix>
</trkpt>
<trkpt lat="40.0714827" lon="-105.2296858">
  <ele>1583.02</ele>
  <time>2026-08-28T17:53:16Z</time>
  <course>110.73</course>
  <speed>0.28460498941515416</speed>
  <fix>3d</fix>
</trkpt>
<trkpt lat="40.0714826" lon="-105.229685">
  <ele>1583.0</ele>
  <time>2026-08-28T17:53:16Z</time>
  <course>289.53</course>
  <speed>0.16</speed>
  <fix>3d</fix>
</trkpt>
<trkpt lat="40.0714828" lon="-105.2296861">
  <ele>1583.02</ele>
  <time>2026-08-28T17:53:16Z</time>
  <course>111.06</course>
  <speed>0.29410882339705485</speed>
  <fix>3d</fix>
</trkpt>
<trkpt lat="40.0714827" lon="-105.2296854">
  <ele>1583.0</ele>
  <time>2026-08-28T17:53:16Z</time>
  <course>290.06</course>
  <speed>0.22</speed>
  <fix>3d</fix>
</trkpt>
<trkpt lat="40.0714829" lon="-105.2296864">
  <ele>1583.02</ele>
  <time>2026-08-28T17:53:16Z</time>
  <course>111.47</course>
  <speed>0.29410882339705485</speed>
  <fix>3d</fix>
</trkpt>
<trkpt lat="40.0714827" lon="-105.2296854">
  <ele>1583.0</ele>
  <time>2026-08-28T17:53:16Z</time>
  <course>290.06</course>
  <speed>0.22</speed>
  <fix>3d</fix>
</trkpt>
<trkpt lat="40.071483" lon="-105.2296867">
  <ele>1583.02</ele>
  <time>2026-08-28T17:53:16Z</time>
  <course>112.01</course>
  <speed>0.2751363298439521</speed>
  <fix>3d</fix>
</trkpt>
<trkpt lat="40.0714828" lon="-105.2296859">
  <ele>1583.0</ele>
  <time>2026-08-28T17:53:16Z</time>
  <course>290.81</course>
  <speed>0.22</speed>
  <fix>3d</fix>
</trkpt>
<trkpt lat="40.071483" lon="-105.2296869">
  <ele>1583.02</ele>
  <time>2026-08-28T17:53:16Z</time>
  <course>112.66</course>
  <speed>0.2529822128134704</speed>
  <fix>3d</fix>
</trkpt>
<trkpt lat="40.0714828" lon="-105.2296859">
  <ele>1583.0</ele>
  <time>2026-08-28T17:53:16Z</time>
  <course>290.81</course>
  <speed>0.22</speed>
  <fix>3d</fix>
</trkpt>
<trkpt lat="40.0714831" lon="-105.2296872">
  <ele>1583.02</ele>
  <time>2026-08-28T17:53:16Z</time>
  <course>113.35</course>
  <speed>0.21840329667841554</speed>
  <fix>3d</fix>
</trkpt>
<trkpt lat="40.0714829" lon="-105.2296864">
  <ele>1583.0</ele>
  <time>2026-08-28T17:53:16Z</time>
  <course>291.88</course>
  <speed>0.19</speed>
  <fix>3d</fix>
</trkpt>
<trkpt lat="40.0714831" lon="-105.2296873">
  <ele>1583.02</ele>
  <time>2026-08-28T17:53:16Z</time>
  <course>114.02</course>
  <speed>0.1772004514666935</speed>
  <fix>3d</fix>
</trkpt>
<trkpt lat="40.0714829" lon="-105.2296864">
  <ele>1583.0</ele>
  <time>2026-08-28T17:53:16Z</time>
  <course>291.88</course>
  <speed>0.19</speed>
  <fix>3d</fix>
</trkpt>
<trkpt lat="40.0714832" lon="-105.2296874">
  <ele>1583.02</ele>
  <time>2026-08-28T17:53:16Z</time>
  <course>114.52</course>
  <speed>0.12165525060596438</speed>
  <fix>3d</fix>
</trkpt>
<trkpt lat="40.0714829" lon="-105.2296864">
  <ele>1583.0</ele>
  <time>2026-08-28T17:53:16Z</time>
  <course>291.88</course>
  <speed>0.19</speed>
  <fix>3d</fix>
</trkpt>
<trkpt lat="40.0714832" lon="-105.2296875">
  <ele>1583.02</ele>
  <time>2026-08-28T17:53:16Z</time>
  <course>114.74</course>
  <speed>0.06</speed>
  <fix>3d</fix>
</trkpt>
<trkpt lat="40.071483" lon="-105.2296868">
  <ele>1583.0</ele>
  <time>2026-08-28T17:53:16Z</time>
  <course>292.98</course>
  <speed>0.11</speed>
  <fix>3d</fix>
</trkpt>
<trkpt lat="40.0714831" lon="-105.2296875">
  <ele>1583.02</ele>
  <time>2026-08-28T17:53:16Z</time>
  <course>114.7</course>
  <speed>0.03</speed>
  <fix>3d</fix>
</trkpt>
<trkpt lat="40.071483" lon="-105.2296868">
  <ele>1583.0</ele>
  <time>2026-08-28T17:53:16Z</time>
  <course>292.98</course>
  <speed>0.11</speed>
  <fix>3d</fix>
</trkpt>
<trkpt lat="40.0714831" lon="-105.2296873">
  <ele>1583.02</ele>
  <time>2026-08-28T17:53:16Z</time>
  <course>115.41</course>
  <speed>0.1063014581273465</speed>
  <fix>3d</fix>
</trkpt>
<trkpt lat="40.071483" lon="-105.2296869">
  <ele>1583.0</ele>
  <time>2026-08-28T17:53:16Z</time>
  <course>144.95</course>
  <speed>0.0</speed>
  <fix>3d</fix>
</trkpt>
<trkpt lat="40.071483" lon="-105.2296871">
  <ele>1583.02</ele>
  <time>2026-08-28T17:53:16Z</time>
  <course>116.69</course>
  <speed>0.2</speed>
  <fix>3d</fix>
</trkpt>
<trkpt lat="40.071483" lon="-105.2296869">
  <ele>1583.0</ele>
  <time>2026-08-28T17:53:16Z</time>
  <course>144.95</course>
  <speed>0.0</speed>
  <fix>3d</fix>
</trkpt>
<trkpt lat="40.0714829" lon="-105.2296869">
  <ele>1583.02</ele>
  <time>2026-08-28T17:53:16Z</time>
  <course>118.6</course>
  <speed>0.3080584360149873</speed>
  <fix>3d</fix>
</trkpt>
<trkpt lat="40.071483" lon="-105.2296868">
  <ele>1583.0</ele>
  <time>2026-08-28T17:53:16Z</time>
  <course>115.55</course>
  <speed>0.16</speed>
  <fix>3d</fix>
</trkpt>
<trkpt lat="40.0714827" lon="-105.2296865">
  <ele>1583.02</ele>
  <time>2026-08-28T17:53:16Z</time>
  <course>121.22</course>
  <speed>0.4280186911806539</speed>
  <fix>3d</fix>
</trkpt>
<trkpt lat="40.0714829" lon="-105.2296863">
  <ele>1583.0</ele>
  <time>2026-08-28T17:53:16Z</time>
  <course>118.92</course>
  <speed>0.35</speed>
  <fix>3d</fix>
</trkpt>
<trkpt lat="40.0714824" lon="-105.2296859">
  <ele>1583.02</ele>
  <time>2026-08-28T17:53:16Z</time>
  <course>124.56</course>
  <speed>0.5544366510251645</speed>
  <fix>3d</fix>
</trkpt>
<trkpt lat="40.0714829" lon="-105.2296863">
  <ele>1583.0</ele>
  <time>2026-08-28T17:53:16Z</time>
  <course>118.92</course>
  <speed>0.35</speed>
  <fix>3d</fix>
</trkpt>
<trkpt lat="40.071482" lon="-105.2296853">
  <ele>1583.02</ele>
  <time>2026-08-28T17:53:16Z</time>
  <course>128.68</course>
  <speed>0.6794115100585212</speed>
  <fix>3d</fix>
</trkpt>
<trkpt lat="40.0714825" lon="-105.2296853">
  <ele>1583.0</ele>
  <time>2026-08-28T17:53:16Z</time>
  <course>125.0</course>
  <speed>0.58</speed>
  <fix>3d</fix>
</trkpt>
<trkpt lat="40.0714815" lon="-105.2296846">
  <ele>1583.02</ele>
  <time>2026-08-28T17:53:16Z</time>
  <course>133.57</course>
  <speed>0.8207313811473277</speed>
  <fix>3d</fix>
</trkpt>
<trkpt lat="40.0714825" lon="-105.2296853">
  <ele>1583.0</ele>
  <time>2026-08-28T17:53:16Z</time>
  <course>125.0</course>
  <speed>0.58</speed>
  <fix>3d</fix>
</trkpt>
<trkpt lat="40.0714809" lon="-105.2296838">
  <ele>1583.02</ele>
  <time>2026-08-28T17:53:16Z</time>
  <course>139.31</course>
  <speed>0.9560334722173696</speed>
  <fix>3d</fix>
</trkpt>
<trkpt lat="40.0714816" lon="-105.2296841">
  <ele>1583.0</ele>
  <time>2026-08-28T17:53:16Z</time>
  <course>134.13</course>
  <speed>0.83</speed>
  <fix>3d</fix>
</trkpt>
<trkpt lat="40.0714801" lon="-105.229683">
  <ele>1583.02</ele>
  <time>2026-08-28T17:53:16Z</time>
  <course>145.05</course>
  <speed>1.0960383204979651</speed>
  <fix>3d</fix>
</trkpt>
<trkpt lat="40.0714816" lon="-105.2296841">
  <ele>1583.0</ele>
  <time>2026-08-28T17:53:16Z</time>
  <course>134.13</course>
  <speed>0.83</speed>
  <fix>3d</fix>
</trkpt>
<trkpt lat="40.0714792" lon="-105.2296823">
  <ele>1583.02</ele>
  <time>2026-08-28T17:53:16Z</time>
  <course>150.0</course>
  <speed>1.2389108119634762</speed>
  <fix>3d</fix>
</trkpt>
<trkpt lat="40.0714803" lon="-105.2296826">
  <ele>1583.0</ele>
  <time>2026-08-28T17:53:16Z</time>
  <course>144.62</course>
  <speed>1.1</speed>
  <fix>3d</fix>
</trkpt>
<trkpt lat="40.0714781" lon="-105.2296815">
  <ele>1583.02</ele>
  <time>2026-08-28T17:53:16Z</time>
  <course>154.33</course>
  <speed>1.383979768638256</speed>
  <fix>3d</fix>
</trkpt>
<trkpt lat="40.0714803" lon="-105.2296826">
  <ele>1583.0</ele>
  <time>2026-08-28T17:53:16Z</time>
  <course>144.62</course>
  <speed>1.1</speed>
  <fix>3d</fix>
</trkpt>
<trkpt lat="40.0714769" lon="-105.2296808">
  <ele>1583.02</ele>
  <time>2026-08-28T17:53:16Z</time>
  <course>158.06</course>
  <speed>1.5216109883935514</speed>
  <fix>3d</fix>
</trkpt>
<trkpt lat="40.0714783" lon="-105.2296811">
  <ele>1583.0</ele>
  <time>2026-08-28T17:53:16Z</time>
  <course>153.71</course>
  <speed>1.37</speed>
  <fix>3d</fix>
</trkpt>
<trkpt lat="40.0714755" lon="-105.2296802">
  <ele>1583.02</ele>
  <time>2026-08-28T17:53:16Z</time>
  <course>161.44</course>
  <speed>1.6484234892769516</speed>
  <fix>3d</fix>
</trkpt>
<trkpt lat="40.0714783" lon="-105.2296811">
  <ele>1583.0</ele>
  <time>2026-08-28T17:53:16Z</time>
  <course>153.71</course>
  <speed>1.37</speed>
  <fix>3d</fix>
</trkpt>
<trkpt lat="40.071474" lon="-105.2296796">
  <ele>1583.02</ele>
  <time>2026-08-28T17:53:16Z</time>
  <course>164.36</course>
  <speed>1.7632356620712955</speed>
  <fix>3d</fix>
</trkpt>
<trkpt lat="40.0714759" lon="-105.2296798">
  <ele>1583.0</ele>
  <time>2026-08-28T17:53:16Z</time>
  <course>160.71</course>
  <speed>1.62</speed>
  <fix>3d</fix>
</trkpt>
<trkpt lat="40.0714724" lon="-105.229679">
  <ele>1583.02</ele>
  <time>2026-08-28T17:53:16Z</time>
  <course>166.85</course>
  <speed>1.8788294228055935</speed>
  <fix>3d</fix>
</trkpt>
<trkpt lat="40.0714759" lon="-105.2296798">
  <ele>1583.0</ele>
  <time>2026-08-28T17:53:16Z</time>
  <course>160.71</course>
  <speed>1.62</speed>
  <fix>3d</fix>
</trkpt>
<trkpt lat="40.0714707" lon="-105.2296785">
  <ele>1583.02</ele>
  <time>2026-08-28T17:53:16Z</time>
  <course>168.99</course>
  <speed>1.9974483722990188</speed>
  <fix>3d</fix>
</trkpt>
<trkpt lat="40.0714729" lon="-105.2296786">
  <ele>1583.0</ele>
  <time>2026-08-28T17:53:16Z</time>
  <course>166.08</course>
  <speed>1.84</speed>
  <fix>3d</fix>
</trkpt>
<trkpt lat="40.0714688" lon="-105.2296781">
  <ele>1583.02</ele>
  <time>2026-08-28T17:53:16Z</time>
  <course>170.83</course>
  <speed>2.1100236965494013</speed>
  <fix>3d</fix>
</trkpt>
<trkpt lat="40.0714729" lon="-105.2296786">
  <ele>1583.0</ele>
  <time>2026-08-28T17:53:16Z</time>
  <course>166.08</course>
  <speed>1.84</speed>
  <fix>3d</fix>
</trkpt>
<trkpt lat="40.0714669" lon="-105.2296777">
  <ele>1583.01</ele>
  <time>2026-08-28T17:53:16Z</time>
  <course>172.42</course>
  <speed>2.2141589825484527</speed>
  <fix>3d</fix>
</trkpt>
<trkpt lat="40.0714729" lon="-105.2296786">
  <ele>1583.0</ele>
  <time>2026-08-28T17:53:16Z</time>
  <course>166.08</course>
  <speed>1.84</speed>
  <fix>3d</fix>
</trkpt>
<trkpt lat="40.0714649" lon="-105.2296774">
  <ele>1583.01</ele>
  <time>2026-08-28T17:53:16Z</time>
  <course>173.79</course>
  <speed>2.319525813609325</speed>
  <fix>3d</fix>
</trkpt>
<trkpt lat="40.0714694" lon="-105.2296777">
  <ele>1583.0</ele>
  <time>2026-08-28T17:53:16Z</time>
  <course>170.07</course>
  <speed>2.06</speed>
  <fix>3d</fix>
</trkpt>
<trkpt lat="40.0714628" lon="-105.2296771">
  <ele>1583.01</ele>
  <time>2026-08-28T17:53:16Z</time>
  <course>174.98</course>
  <speed>2.4266849816158667</speed>
  <fix>3d</fix>
</trkpt>
<trkpt lat="40.0714694" lon="-105.2296777">
  <ele>1583.0</ele>
  <time>2026-08-28T17:53:16Z</time>
  <course>170.07</course>
  <speed>2.06</speed>
  <fix>3d</fix>
</trkpt>
<trkpt lat="40.0714605" lon="-105.2296769">
  <ele>1583.0</ele>
  <time>2026-08-28T17:53:16Z</time>
  <course>176.01</course>
  <speed>2.5338705570727167</speed>
  <fix>3d</fix>
</trkpt>
<trkpt lat="40.0714655" lon="-105.229677">
  <ele>1583.0</ele>
  <time>2026-08-28T17:53:16Z</time>
  <course>173.04</course>
  <speed>2.28</speed>
  <fix>3d</fix>
</trkpt>
<trkpt lat="40.0714582" lon="-105.2296767">
  <ele>1583.0</ele>
  <time>2026-08-28T17:53:16Z</time>
  <course>176.9</course>
  <speed>2.632299375071156</speed>
  <fix>3d</fix>
</trkpt>
<trkpt lat="40.0714655" lon="-105.229677">
  <ele>1583.0</ele>
  <time>2026-08-28T17:53:16Z</time>
  <course>173.04</course>
  <speed>2.28</speed>
  <fix>3d</fix>
</trkpt>
<trkpt lat="40.0714559" lon="-105.2296765">
  <ele>1583.0</ele>
  <time>2026-08-28T17:53:16Z</time>
  <course>177.66</course>
  <speed>2.7311719096387908</speed>
  <fix>3d</fix>
</trkpt>
<trkpt lat="40.0714613" lon="-105.2296764">
  <ele>1583.0</ele>
  <time>2026-08-28T17:53:16Z</time>
  <course>175.27</course>
  <speed>2.49</speed>
  <fix>3d</fix>
</trkpt>
<trkpt lat="40.0714534" lon="-105.2296763">
  <ele>1583.0</ele>
  <time>2026-08-28T17:53:16Z</time>
  <course>178.32</course>
  <speed>2.830635970943632</speed>
  <fix>3d</fix>
</trkpt>
<trkpt lat="40.0714613" lon="-105.2296764">
  <ele>1583.0</ele>
  <time>2026-08-28T17:53:16Z</time>
  <course>175.27</course>
  <speed>2.49</speed>
  <fix>3d</fix>
</trkpt>
<trkpt lat="40.0714508" lon="-105.2296762">
  <ele>1583.0</ele>
  <time>2026-08-28T17:53:16Z</time>
  <course>178.89</course>
  <speed>2.940153057240388</speed>
  <fix>3d</fix>
</trkpt>
<trkpt lat="40.0714567" lon="-105.229676">
  <ele>1583.0</ele>
  <time>2026-08-28T17:53:16Z</time>
  <course>176.93</course>
  <speed>2.69</speed>
  <fix>3d</fix>
</trkpt>
<trkpt lat="40.0714482" lon="-105.2296761">
  <ele>1583.0</ele>
  <time>2026-08-28T17:53:16Z</time>
  <course>179.39</course>
  <speed>3.040016447323928</speed>
  <fix>3d</fix>
</trkpt>
<trkpt lat="40.0714517" lon="-105.2296757">
  <ele>1583.0</ele>
  <time>2026-08-28T17:53:16Z</time>
  <course>178.17</course>
  <speed>2.9</speed>
  <fix>3d</fix>
</trkpt>
<trkpt lat="40.0714454" lon="-105.2296761">
  <ele>1582.99</ele>
  <time>2026-08-28T17:53:16Z</time>
  <course>179.84</course>
  <speed>3.13</speed>
  <fix>3d</fix>
</trkpt>
<trkpt lat="40.0714517" lon="-105.2296757">
  <ele>1583.0</ele>
  <time>2026-08-28T17:53:16Z</time>
  <course>178.17</course>
  <speed>2.9</speed>
  <fix>3d</fix>
</trkpt>
<trkpt lat="40.0714426" lon="-105.229676">
  <ele>1582.99</ele>
  <time>2026-08-28T17:53:16Z</time>
  <course>180.25</course>
  <speed>3.2200621112022048</speed>
  <fix>3d</fix>
</trkpt>
<trkpt lat="40.0714463" lon="-105.2296755">
  <ele>1583.0</ele>
  <time>2026-08-28T17:53:16Z</time>
  <course>179.13</course>
  <speed>3.09</speed>
  <fix>3d</fix>
</trkpt>
<trkpt lat="40.0714396" lon="-105.2296759">
  <ele>1582.99</ele>
  <time>2026-08-28T17:53:16Z</time>
  <course>180.61</course>
  <speed>3.2902431521089746</speed>
  <fix>3d</fix>
</trkpt>
<trkpt lat="40.0714463" lon="-105.2296755">
  <ele>1583.0</ele>
  <time>2026-08-28T17:53:16Z</time>
  <course>179.13</course>
  <speed>3.09</speed>
  <fix>3d</fix>
</trkpt>
<trkpt lat="40.0714367" lon="-105.2296759">
  <ele>1582.99</ele>
  <time>2026-08-28T17:53:16Z</time>
  <course>180.94</course>
  <speed>3.350537270349339</speed>
  <fix>3d</fix>
</trkpt>
<trkpt lat="40.0714406" lon="-105.2296755">
  <ele>1583.0</ele>
  <time>2026-08-28T17:53:16Z</time>
  <course>179.91</course>
  <speed>3.25</speed>
  <fix>3d</fix>
</trkpt>
<trkpt lat="40.0714336" lon="-105.2296759">
  <ele>1582.99</ele>
  <time>2026-08-28T17:53:16Z</time>
  <course>181.26</course>
  <speed>3.400720511891561</speed>
  <fix>3d</fix>
</trkpt>
<trkpt lat="40.0714406" lon="-105.2296755">
  <ele>1583.0</ele>
  <time>2026-08-28T17:53:16Z</time>
  <course>179.91</course>
  <speed>3.25</speed>
  <fix>3d</fix>
</trkpt>
<trkpt lat="40.0714305" lon="-105.229676">
  <ele>1582.98</ele>
  <time>2026-08-28T17:53:16Z</time>
  <course>181.54</course>
  <speed>3.431180554852805</speed>
  <fix>3d</fix>
</trkpt>
<trkpt lat="40.0714346" lon="-105.2296755">
  <ele>1583.0</ele>
  <time>2026-08-28T17:53:16Z</time>
  <course>180.56</course>
  <speed>3.36</speed>
  <fix>3d</fix>
</trkpt>
<trkpt lat="40.0714274" lon="-105.2296761">
  <ele>1582.98</ele>
  <time>2026-08-28T17:53:16Z</time>
  <course>181.81</course>
  <speed>3.4514489710844636</speed>
  <fix>3d</fix>
</trkpt>
<trkpt lat="40.0714346" lon="-105.2296755">
  <ele>1583.0</ele>
  <time>2026-08-28T17:53:16Z</time>
  <course>180.56</course>
  <speed>3.36</speed>
  <fix>3d</fix>
</trkpt>
<trkpt lat="40.0714243" lon="-105.2296761">
  <ele>1582.98</ele>
  <time>2026-08-28T17:53:16Z</time>
  <course>182.09</course>
  <speed>3.4520863256876995</speed>
  <fix>3d</fix>
</trkpt>
<trkpt lat="40.0714285" lon="-105.2296756">
  <ele>1583.0</ele>
  <time>2026-08-28T17:53:16Z</time>
  <course>181.13</course>
  <speed>3.41</speed>
  <fix>3d</fix>
</trkpt>
<trkpt lat="40.0714212" lon="-105.2296762">
  <ele>1582.98</ele>
  <time>2026-08-28T17:53:16Z</time>
  <course>182.32</course>
  <speed>3.442455518957362</speed>
  <fix>3d</fix>
</trkpt>
<trkpt lat="40.0714285" lon="-105.2296756">
  <ele>1583.0</ele>
  <time>2026-08-28T17:53:16Z</time>
  <course>181.13</course>
  <speed>3.41</speed>
  <fix>3d</fix>
</trkpt>
<trkpt lat="40.0714181" lon="-105.2296764">
  <ele>1582.98</ele>
  <time>2026-08-28T17:53:16Z</time>
  <course>182.56</course>
  <speed>3.41287269027135</speed>
  <fix>3d</fix>
</trkpt>
<trkpt lat="40.0714224" lon="-105.2296758">
  <ele>1583.0</ele>
  <time>2026-08-28T17:53:16Z</time>
  <course>181.65</course>
  <speed>3.4</speed>
  <fix>3d</fix>
</trkpt>
<trkpt lat="40.0714151" lon="-105.2296765">
  <ele>1582.98</ele>
  <time>2026-08-28T17:53:16Z</time>
  <course>182.8</course>
  <speed>3.3733366271393668</speed>
  <fix>3d</fix>
</trkpt>
<trkpt lat="40.0714224" lon="-105.2296758">
  <ele>1583.0</ele>
  <time>2026-08-28T17:53:16Z</time>
  <course>181.65</course>
  <speed>3.4</speed>
  <fix>3d</fix>
</trkpt>
<trkpt lat="40.0714121" lon="-105.2296766">
  <ele>1582.98</ele>
  <time>2026-08-28T17:53:16Z</time>
  <course>183.06</course>
  <speed>3.3138648131750936</speed>
  <fix>3d</fix>
</trkpt>
<trkpt lat="40.0714163" lon="-105.229676">
  <ele>1583.0</ele>
  <time>2026-08-28T17:53:16Z</time>
  <course>182.14</course>
  <speed>3.33</speed>
  <fix>3d</fix>
</trkpt>
<trkpt lat="40.0714092" lon="-105.2296768">
  <ele>1582.98</ele>
  <time>2026-08-28T17:53:16Z</time>
  <course>183.32</course>
  <speed>3.2344705903748765</speed>
  <fix>3d</fix>
</trkpt>
<trkpt lat="40.0714163" lon="-105.229676">
  <ele>1583.0</ele>
  <time>2026-08-28T17:53:16Z</time>
  <course>182.14</course>
  <speed>3.33</speed>
  <fix>3d</fix>
</trkpt>
<trkpt lat="40.0714063" lon="-105.229677">
  <ele>1582.98</ele>
  <time>2026-08-28T17:53:16Z</time>
  <course>183.58</course>
  <speed>3.145155004129367</speed>
  <fix>3d</fix>
</trkpt>
<trkpt lat="40.0714163" lon="-105.229676">
  <ele>1583.0</ele>
  <time>2026-08-28T17:53:16Z</time>
  <course>182.14</course>
  <speed>3.33</speed>
  <fix>3d</fix>
</trkpt>
<trkpt lat="40.0714036" lon="-105.2296771">
  <ele>1582.98</ele>
  <time>2026-08-28T17:53:16Z</time>
  <course>183.87</course>
  <speed>3.0359512512555273</speed>
  <fix>3d</fix>
</trkpt>
<trkpt lat="40.0714105" lon="-105.2296763">
  <ele>1583.0</ele>
  <time>2026-08-28T17:53:16Z</time>
  <course>182.65</course>
  <speed>3.19</speed>
  <fix>3d</fix>
</trkpt>
<trkpt lat="40.071401" lon="-105.2296773">
  <ele>1582.98</ele>
  <time>2026-08-28T17:53:16Z</time>
  <course>184.16</course>
  <speed>2.9261749776799064</speed>
  <fix>3d</fix>
</trkpt>
<trkpt lat="40.0714105" lon="-105.2296763">
  <ele>1583.0</ele>
  <time>2026-08-28T17:53:16Z</time>
  <course>182.65</course>
  <speed>3.19</speed>
  <fix>3d</fix>
</trkpt>
<trkpt lat="40.0713985" lon="-105.2296775">
  <ele>1582.99</ele>
  <time>2026-08-28T17:53:16Z</time>
  <course>184.47</course>
  <speed>2.7971592732627863</speed>
  <fix>3d</fix>
</trkpt>
<trkpt lat="40.0714049" lon="-105.2296767">
  <ele>1583.0</ele>
  <time>2026-08-28T17:53:16Z</time>
  <course>183.21</course>
  <speed>3.01</speed>
  <fix>3d</fix>
</trkpt>
<trkpt lat="40.0713961" lon="-105.2296777">
  <ele>1582.99</ele>
  <time>2026-08-28T17:53:16Z</time>
  <course>184.79</course>
  <speed>2.6575364531836625</speed>
  <fix>3d</fix>
</trkpt>
<trkpt lat="40.0714049" lon="-105.2296767">
  <ele>1583.0</ele>
  <time>2026-08-28T17:53:16Z</time>
  <course>183.21</course>
  <speed>3.01</speed>
  <fix>3d</fix>
</trkpt>
<trkpt lat="40.0713938" lon="-105.2296779">
  <ele>1582.99</ele>
  <time>2026-08-28T17:53:16Z</time>
  <course>185.11</course>
  <speed>2.517955519861302</speed>
  <fix>3d</fix>
</trkpt>
<trkpt lat="40.0713997" lon="-105.2296771">
  <ele>1583.0</ele>
  <time>2026-08-28T17:53:16Z</time>
  <course>183.81</course>
  <speed>2.77</speed>
  <fix>3d</fix>
</trkpt>
<trkpt lat="40.0713917" lon="-105.2296781">
  <ele>1582.99</ele>
  <time>2026-08-28T17:53:16Z</time>
  <course>185.47</course>
  <speed>2.368459414893994</speed>
  <fix>3d</fix>
</trkpt>
<trkpt lat="40.0713949" lon="-105.2296776">
  <ele>1583.0</ele>
  <time>2026-08-28T17:53:16Z</time>
  <course>184.46</course>
  <speed>2.51</speed>
  <fix>3d</fix>
</trkpt>
<trkpt lat="40.0713897" lon="-105.2296783">
  <ele>1583.0</ele>
  <time>2026-08-28T17:53:16Z</time>
  <course>185.84</course>
  <speed>2.228990803031722</speed>
  <fix>3d</fix>
</trkpt>
<trkpt lat="40.0713949" lon="-105.2296776">
  <ele>1583.0</ele>
  <time>2026-08-28T17:53:16Z</time>
  <course>184.46</course>
  <speed>2.51</speed>
  <fix>3d</fix>
</trkpt>
<trkpt lat="40.0713878" lon="-105.2296785">
  <ele>1583.0</ele>
  <time>2026-08-28T17:53:16Z</time>
  <course>186.24</course>
  <speed>2.0796393918177256</speed>
  <fix>3d</fix>
</trkpt>
<trkpt lat="40.0713906" lon="-105.229678">
  <ele>1583.0</ele>
  <time>2026-08-28T17:53:16Z</time>
  <course>185.18</course>
  <speed>2.23</speed>
  <fix>3d</fix>
</trkpt>
<trkpt lat="40.0713861" lon="-105.2296787">
  <ele>1583.01</ele>
  <time>2026-08-28T17:53:16Z</time>
  <course>186.67</course>
  <speed>1.9303885619221848</speed>
  <fix>3d</fix>
</trkpt>
<trkpt lat="40.0713906" lon="-105.229678">
  <ele>1583.0</ele>
  <time>2026-08-28T17:53:16Z</time>
  <course>185.18</course>
  <speed>2.23</speed>
  <fix>3d</fix>
</trkpt>
<trkpt lat="40.0713845" lon="-105.229679">
  <ele>1583.01</ele>
  <time>2026-08-28T17:53:16Z</time>
  <course>187.13</course>
  <speed>1.7812635964393366</speed>
  <fix>3d</fix>
</trkpt>
<trkpt lat="40.071387" lon="-105.2296785">
  <ele>1583.0</ele>
  <time>2026-08-28T17:53:16Z</time>
  <course>186.0</course>
  <speed>1.94</speed>
  <fix>3d</fix>
</trkpt>
<trkpt lat="40.071383" lon="-105.2296792">
  <ele>1583.02</ele>
  <time>2026-08-28T17:53:16Z</time>
  <course>187.65</course>
  <speed>1.6322989922192566</speed>
  <fix>3d</fix>
</trkpt>
<trkpt lat="40.071387" lon="-105.2296785">
  <ele>1583.0</ele>
  <time>2026-08-28T17:53:16Z</time>
  <course>186.0</course>
  <speed>1.94</speed>
  <fix>3d</fix>
</trkpt>
<trkpt lat="40.0713816" lon="-105.2296794">
  <ele>1583.02</ele>
  <time>2026-08-28T17:53:16Z</time>
  <course>188.23</course>
  <speed>1.4822280526288794</speed>
  <fix>3d</fix>
</trkpt>
<trkpt lat="40.0713837" lon="-105.229679">
  <ele>1583.0</ele>
  <time>2026-08-28T17:53:16Z</time>
  <course>186.98</course>
  <speed>1.65</speed>
  <fix>3d</fix>
</trkpt>
<trkpt lat="40.0713804" lon="-105.2296796">
  <ele>1583.02</ele>
  <time>2026-08-28T17:53:16Z</time>
  <course>188.88</course>
  <speed>1.3435028842544403</speed>
  <fix>3d</fix>
</trkpt>
<trkpt lat="40.0713837" lon="-105.229679">
  <ele>1583.0</ele>
  <time>2026-08-28T17:53:16Z</time>
  <course>186.98</course>
  <speed>1.65</speed>
  <fix>3d</fix>
</trkpt>
<trkpt lat="40.0713793" lon="-105.2296798">
  <ele>1583.01</ele>
  <time>2026-08-28T17:53:16Z</time>
  <course>189.62</course>
  <speed>1.2035364556173611</speed>
  <fix>3d</fix>
</trkpt>
<trkpt lat="40.071381" lon="-105.2296795">
  <ele>1583.0</ele>
  <time>2026-08-28T17:53:16Z</time>
  <course>188.2</course>
  <speed>1.37</speed>
  <fix>3d</fix>
</trkpt>
<trkpt lat="40.0713783" lon="-105.22968">
  <ele>1583.01</ele>
  <time>2026-08-28T17:53:16Z</time>
  <course>190.48</course>
  <speed>1.0653168542738822</speed>
  <fix>3d</fix>
</trkpt>
<trkpt lat="40.071381" lon="-105.2296795">
  <ele>1583.0</ele>
  <time>2026-08-28T17:53:16Z</time>
  <course>188.2</course>
  <speed>1.37</speed>
  <fix>3d</fix>
</trkpt>
<trkpt lat="40.0713774" lon="-105.2296802">
  <ele>1583.01</ele>
  <time>2026-08-28T17:53:16Z</time>
  <course>191.48</course>
  <speed>0.9355746896961247</speed>
  <fix>3d</fix>
</trkpt>
<trkpt lat="40.0713789" lon="-105.2296799">
  <ele>1583.0</ele>
  <time>2026-08-28T17:53:16Z</time>
  <course>189.78</course>
  <speed>1.1</speed>
  <fix>3d</fix>
</trkpt>
<trkpt lat="40.0713767" lon="-105.2296804">
  <ele>1583.0</ele>
  <time>2026-08-28T17:53:16Z</time>
  <course>192.47</course>
  <speed>0.8060397012554654</speed>
  <fix>3d</fix>
</trkpt>
<trkpt lat="40.0713789" lon="-105.2296799">
  <ele>1583.0</ele>
  <time>2026-08-28T17:53:16Z</time>
  <course>189.78</course>
  <speed>1.1</speed>
  <fix>3d</fix>
</trkpt>
<trkpt lat="40.0713761" lon="-105.2296806">
  <ele>1583.0</ele>
  <time>2026-08-28T17:53:16Z</time>
  <course>193.41</course>
  <speed>0.6768308503607087</speed>
  <fix>3d</fix>
</trkpt>
<trkpt lat="40.0713771" lon="-105.2296803">
  <ele>1583.0</ele>
  <time>2026-08-28T17:53:16Z</time>
  <course>191.64</course>
  <speed>0.84</speed>
  <fix>3d</fix>
</trkpt>
<trkpt lat="40.0713755" lon="-105.2296808">
  <ele>1582.99</ele>
  <time>2026-08-28T17:53:16Z</time>
  <course>194.3</course>
  <speed>0.5554277630799526</speed>
  <fix>3d</fix>
</trkpt>
<trkpt lat="40.0713771" lon="-105.2296803">
  <ele>1583.0</ele>
  <time>2026-08-28T17:53:16Z</time>
  <course>191.64</course>
  <speed>0.84</speed>
  <fix>3d</fix>
</trkpt>
<trkpt lat="40.0713751" lon="-105.2296809">
  <ele>1582.99</ele>
  <time>2026-08-28T17:53:16Z</time>
  <course>195.03</course>
  <speed>0.4341658669218482</speed>
  <fix>3d</fix>
</trkpt>
<trkpt lat="40.0713771" lon="-105.2296803">
  <ele>1583.0</ele>
  <time>2026-08-28T17:53:16Z</time>
  <course>191.64</course>
  <speed>0.84</speed>
  <fix>3d</fix>
</trkpt>
<trkpt lat="40.0713748" lon="-105.229681">
  <ele>1582.99</ele>
  <time>2026-08-28T17:53:16Z</time>
  <course>195.61</course>
  <speed>0.32280024783137945</speed>
  <fix>3d</fix>
</trkpt>
<trkpt lat="40.0713759" lon="-105.2296807">
  <ele>1583.0</ele>
  <time>2026-08-28T17:53:16Z</time>
  <course>193.4</course>
  <speed>0.6</speed>
  <fix>3d</fix>
</trkpt>
<trkpt lat="40.0713746" lon="-105.2296811">
  <ele>1582.99</ele>
  <time>2026-08-28T17:53:16Z</time>
  <course>196.04</course>
  <speed>0.208806130178211</speed>
  <fix>3d</fix>
</trkpt>
<trkpt lat="40.0713759" lon="-105.2296807">
  <ele>1583.0</ele>
  <time>2026-08-28T17:53:16Z</time>
  <course>193.4</course>
  <speed>0.6</speed>
  <fix>3d</fix>
</trkpt>
<trkpt lat="40.0713745" lon="-105.2296812">
  <ele>1582.99</ele>
  <time>2026-08-28T17:53:16Z</time>
  <course>196.33</course>
  <speed>0.1044030650891055</speed>
  <fix>3d</fix>
</trkpt>
<trkpt lat="40.071375" lon="-105.229681">
  <ele>1583.0</ele>
  <time>2026-08-28T17:53:16Z</time>
  <course>194.73</course>
  <speed>0.37</speed>
  <fix>3d</fix>
</trkpt>
<trkpt lat="40.0713744" lon="-105.2296812">
  <ele>1582.99</ele>
  <time>2026-08-28T17:53:16Z</time>
  <course>196.47</course>
  <speed>0.01414213562373095</speed>
  <fix>3d</fix>
</trkpt>
<trkpt lat="40.071375" lon="-105.229681">
  <ele>1583.0</ele>
  <time>2026-08-28T17:53:16Z</time>
  <course>194.73</course>
  <speed>0.37</speed>
  <fix>3d</fix>
</trkpt>
<trkpt lat="40.0713744" lon="-105.2296812">
  <ele>1582.99</ele>
  <time>2026-08-28T17:53:16Z</time>
  <course>196.49</course>
  <speed>0.06</speed>
  <fix>3d</fix>
</trkpt>
<trkpt lat="40.0713745" lon="-105.2296811">
  <ele>1583.0</ele>
  <time>2026-08-28T17:53:16Z</time>
  <course>195.47</course>
  <speed>0.16</speed>
  <fix>3d</fix>
</trkpt>
<trkpt lat="40.0713745" lon="-105.2296812">
  <ele>1582.99</ele>
  <time>2026-08-28T17:53:16Z</time>
  <course>196.55</course>
  <speed>0.13152946437965907</speed>
  <fix>3d</fix>
</trkpt>
<trkpt lat="40.0713744" lon="-105.2296812">
  <ele>1583.0</ele>
  <time>2026-08-28T17:53:16Z</time>
  <course>16.05</course>
  <speed>0.0</speed>
  <fix>3d</fix>
</trkpt>
<trkpt lat="40.0713747" lon="-105.2296811">
  <ele>1582.99</ele>
  <time>2026-08-28T17:53:16Z</time>
  <course>196.67</course>
  <speed>0.18439088914585774</speed>
  <fix>3d</fix>
</trkpt>
<trkpt lat="40.0713744" lon="-105.2296812">
  <ele>1583.0</ele>
  <time>2026-08-28T17:53:16Z</time>
  <course>16.05</course>
  <speed>0.0</speed>
  <fix>3d</fix>
</trkpt>
<trkpt lat="40.0713748" lon="-105.229681">
  <ele>1582.99</ele>
  <time>2026-08-28T17:53:16Z</time>
  <course>196.77</course>
  <speed>0.2353720459187964</speed>
  <fix>3d</fix>
</trkpt>
<trkpt lat="40.0713746" lon="-105.2296811">
  <ele>1583.0</ele>
  <time>2026-08-28T17:53:16Z</time>
  <course>15.99</course>
  <speed>0.12</speed>
  <fix>3d</fix>
</trkpt>
<trkpt lat="40.071375" lon="-105.2296811">
  <ele>1582.99</ele>
  <time>2026-08-28T17:53:16Z</time>
  <course>196.78</course>
  <speed>0.2765863337187866</speed>
  <fix>3d</fix>
</trkpt>
<trkpt lat="40.0713746" lon="-105.2296811">
  <ele>1583.0</ele>
  <time>2026-08-28T17:53:16Z</time>
  <course>15.99</course>
  <speed>0.12</speed>
  <fix>3d</fix>
</trkpt>
<trkpt lat="40.0713752" lon="-105.229681">
  <ele>1582.99</ele>
  <time>2026-08-28T17:53:16Z</time>
  <course>196.81</course>
  <speed>0.3178049716414141</speed>
  <fix>3d</fix>
</trkpt>
<trkpt lat="40.0713748" lon="-105.229681">
  <ele>1583.0</ele>
  <time>2026-08-28T17:53:16Z</time>
  <course>16.08</course>
  <speed>0.22</speed>
  <fix>3d</fix>
</trkpt>
<trkpt lat="40.0713755" lon="-105.2296809">
  <ele>1582.99</ele>
  <time>2026-08-28T17:53:16Z</time>
  <course>196.83</course>
  <speed>0.3590264614203248</speed>
  <fix>3d</fix>
</trkpt>
<trkpt lat="40.0713748" lon="-105.229681">
  <ele>1583.0</ele>
  <time>2026-08-28T17:53:16Z</time>
  <course>16.08</course>
  <speed>0.22</speed>
  <fix>3d</fix>
</trkpt>
<trkpt lat="40.0713758" lon="-105.2296808">
  <ele>1582.99</ele>
  <time>2026-08-28T17:53:16Z</time>
  <course>196.91</course>
  <speed>0.3687817782917155</speed>
  <fix>3d</fix>
</trkpt>
<trkpt lat="40.0713752" lon="-105.2296809">
  <ele>1583.0</ele>
  <time>2026-08-28T17:53:16Z</time>
  <course>16.15</course>
  <speed>0.29</speed>
  <fix>3d</fix>
</trkpt>
<trkpt lat="40.0713761" lon="-105.2296807">
  <ele>1582.99</ele>
  <time>2026-08-28T17:53:16Z</time>
  <course>197.13</course>
  <speed>0.3687817782917155</speed>
  <fix>3d</fix>
</trkpt>
<trkpt lat="40.0713752" lon="-105.2296809">
  <ele>1583.0</ele>
  <time>2026-08-28T17:53:16Z</time>
  <course>16.15</course>
  <speed>0.29</speed>
  <fix>3d</fix>
</trkpt>
<trkpt lat="40.0713764" lon="-105.2296806">
  <ele>1582.99</ele>
  <time>2026-08-28T17:53:16Z</time>
  <course>197.47</course>
  <speed>0.33734255586865997</speed>
  <fix>3d</fix>
</trkpt>
<trkpt lat="40.0713757" lon="-105.2296807">
  <ele>1583.0</ele>
  <time>2026-08-28T17:53:16Z</time>
  <course>16.45</course>
  <speed>0.3</speed>
  <fix>3d</fix>
</trkpt>
<trkpt lat="40.0713766" lon="-105.2296805">
  <ele>1582.99</ele>
  <time>2026-08-28T17:53:16Z</time>
  <course>197.89</course>
  <speed>0.28442925306655786</speed>
  <fix>3d</fix>
</trkpt>
<trkpt lat="40.0713757" lon="-105.2296807">
  <ele>1583.0</ele>
  <time>2026-08-28T17:53:16Z</time>
  <course>16.45</course>
  <speed>0.3</speed>
  <fix>3d</fix>
</trkpt>
<trkpt lat="40.0713768" lon="-105.2296804">
  <ele>1582.99</ele>
  <time>2026-08-28T17:53:16Z</time>
  <course>198.32</course>
  <speed>0.21213203435596426</speed>
  <fix>3d</fix>
</trkpt>
<trkpt lat="40.0713762" lon="-105.2296806">
  <ele>1583.0</ele>
  <time>2026-08-28T17:53:16Z</time>
  <course>17.05</course>
  <speed>0.22</speed>
  <fix>3d</fix>
</trkpt>
<trkpt lat="40.0713769" lon="-105.2296804">
  <ele>1582.99</ele>
  <time>2026-08-28T17:53:16Z</time>
  <course>198.67</course>
  <speed>0.13</speed>
  <fix>3d</fix>
</trkpt>
<trkpt lat="40.0713762" lon="-105.2296806">
  <ele>1583.0</ele>
  <time>2026-08-28T17:53:16Z</time>
  <course>17.05</course>
  <speed>0.22</speed>
  <fix>3d</fix>
</trkpt>
<trkpt lat="40.071377" lon="-105.2296804">
  <ele>1582.99</ele>
  <time>2026-08-28T17:53:16Z</time>
  <course>198.84</course>
  <speed>0.06082762530298219</speed>
  <fix>3d</fix>
</trkpt>
<trkpt lat="40.0713765" lon="-105.2296805">
  <ele>1583.0</ele>
  <time>2026-08-28T17:53:16Z</time>
  <course>17.6</course>
  <speed>0.08</speed>
  <fix>3d</fix>
</trkpt>
<trkpt lat="40.0713769" lon="-105.2296805">
  <ele>1582.99</ele>
  <time>2026-08-28T17:53:16Z</time>
  <course>198.83</course>
  <speed>0.0412310562561766</speed>
  <fix>3d</fix>
</trkpt>
<trkpt lat="40.0713765" lon="-105.2296805">
  <ele>1583.0</ele>
  <time>2026-08-28T17:53:16Z</time>
  <course>17.6</course>
  <speed>0.08</speed>
  <fix>3d</fix>
</trkpt>
<trkpt lat="40.0713768" lon="-105.2296805">
  <ele>1583.0</ele>
  <time>2026-08-28T17:53:16Z</time>
  <course>199.35</course>
  <speed>0.1063014581273465</speed>
  <fix>3d</fix>
</trkpt>
<trkpt lat="40.0713765" lon="-105.2296805">
  <ele>1583.0</ele>
  <time>2026-08-28T17:53:16Z</time>
  <course>17.6</course>
  <speed>0.08</speed>
  <fix>3d</fix>
</trkpt>
<trkpt lat="40.0713767" lon="-105.2296806">
  <ele>1583.0</ele>
  <time>2026-08-28T17:53:16Z</time>
  <course>200.32</course>
  <speed>0.18027756377319945</speed>
  <fix>3d</fix>
</trkpt>
<trkpt lat="40.0713765" lon="-105.2296805">
  <ele>1583.0</ele>
  <time>2026-08-28T17:53:16Z</time>
  <course>198.68</course>
  <speed>0.06</speed>
  <fix>3d</fix>
</trkpt>
<trkpt lat="40.0713766" lon="-105.2296807">
  <ele>1583.0</ele>
  <time>2026-08-28T17:53:16Z</time>
  <course>201.75</course>
  <speed>0.260768096208106</speed>
  <fix>3d</fix>
</trkpt>
<trkpt lat="40.0713765" lon="-105.2296805">
  <ele>1583.0</ele>
  <time>2026-08-28T17:53:16Z</time>
  <course>198.68</course>
  <speed>0.06</speed>
  <fix>3d</fix>
</trkpt>
<trkpt lat="40.0713763" lon="-105.2296809">
  <ele>1583.0</ele>
  <time>2026-08-28T17:53:16Z</time>
  <course>203.56</course>
  <speed>0.34132096331752027</speed>
  <fix>3d</fix>
</trkpt>
<trkpt lat="40.0713763" lon="-105.2296805">
  <ele>1583.0</ele>
  <time>2026-08-28T17:53:16Z</time>
  <course>200.23</course>
  <speed>0.21</speed>
  <fix>3d</fix>
</trkpt>
<trkpt lat="40.0713759" lon="-105.2296811">
  <ele>1583.0</ele>
  <time>2026-08-28T17:53:16Z</time>
  <course>205.68</course>
  <speed>0.41340053217188777</speed>
  <fix>3d</fix>
</trkpt>
<trkpt lat="40.0713763" lon="-105.2296805">
  <ele>1583.0</ele>
  <time>2026-08-28T17:53:16Z</time>
  <course>200.23</course>
  <speed>0.21</speed>
  <fix>3d</fix>
</trkpt>
<trkpt lat="40.0713755" lon="-105.2296814">
  <ele>1583.01</ele>
  <time>2026-08-28T17:53:16Z</time>
  <course>208.01</course>
  <speed>0.4825971404805462</speed>
  <fix>3d</fix>
</trkpt>
<trkpt lat="40.0713758" lon="-105.2296807">
  <ele>1583.0</ele>
  <time>2026-08-28T17:53:16Z</time>
  <course>203.38</course>
  <speed>0.36</speed>
  <fix>3d</fix>
</trkpt>
<trkpt lat="40.0713751" lon="-105.2296817">
  <ele>1583.01</ele>
  <time>2026-08-28T17:53:16Z</time>
  <course>210.79</course>
  <speed>0.5580322571321482</speed>
  <fix>3d</fix>
</trkpt>
<trkpt lat="40.0713758" lon="-105.2296807">
  <ele>1583.0</ele>
  <time>2026-08-28T17:53:16Z</time>
  <course>203.38</course>
  <speed>0.36</speed>
  <fix>3d</fix>
</trkpt>
<trkpt lat="40.0713746" lon="-105.2296821">
  <ele>1583.01</ele>
  <time>2026-08-28T17:53:16Z</time>
  <course>214.2</course>
  <speed>0.6403124237432849</speed>
  <fix>3d</fix>
</trkpt>
<trkpt lat="40.0713752" lon="-105.2296811">
  <ele>1583.0</ele>
  <time>2026-08-28T17:53:16Z</time>
  <course>207.86</course>
  <speed>0.5</speed>
  <fix>3d</fix>
</trkpt>
<trkpt lat="40.0713741" lon="-105.2296826">
  <ele>1583.01</ele>
  <time>2026-08-28T17:53:16Z</time>
  <course>218.17</course>
  <speed>0.7150524456289902</speed>
  <fix>3d</fix>
</trkpt>
<trkpt lat="40.0713743" lon="-105.2296819">
  <ele>1583.0</ele>
  <time>2026-08-28T17:53:16Z</time>
  <course>214.15</course>
  <speed>0.64</speed>
  <fix>3d</fix>
</trkpt>
<trkpt lat="40.0713736" lon="-105.2296832">
  <ele>1583.01</ele>
  <time>2026-08-28T17:53:16Z</time>
  <course>222.73</course>
  <speed>0.7993122043357026</speed>
  <fix>3d</fix>
</trkpt>
<trkpt lat="40.0713743" lon="-105.2296819">
  <ele>1583.0</ele>
  <time>2026-08-28T17:53:16Z</time>
  <course>214.15</course>
  <speed>0.64</speed>
  <fix>3d</fix>
</trkpt>
<trkpt lat="40.071373" lon="-105.229684">
  <ele>1583.01</ele>
  <time>2026-08-28T17:53:16Z</time>
  <course>227.78</course>
  <speed>0.8823831367382311</speed>
  <fix>3d</fix>
</trkpt>
<trkpt lat="40.0713733" lon="-105.2296829">
  <ele>1583.0</ele>
  <time>2026-08-28T17:53:16Z</time>
  <course>222.73</course>
  <speed>0.79</speed>
  <fix>3d</fix>
</trkpt>
<trkpt lat="40.0713725" lon="-105.2296848">
  <ele>1583.01</ele>
  <time>2026-08-28T17:53:16Z</time>
  <course>233.07</course>
  <speed>0.973498844375277</speed>
  <fix>3d</fix>
</trkpt>
<trkpt lat="40.0713733" lon="-105.2296829">
  <ele>1583.0</ele>
  <time>2026-08-28T17:53:16Z</time>
  <course>222.73</course>
  <speed>0.79</speed>
  <fix>3d</fix>
</trkpt>
<trkpt lat="40.0713719" lon="-105.2296859">
  <ele>1583.01</ele>
  <time>2026-08-28T17:53:16Z</time>
  <course>238.2</course>
  <speed>1.0742439201596627</speed>
  <fix>3d</fix>
</trkpt>
<trkpt lat="40.0713722" lon="-105.2296844">
  <ele>1583.0</ele>
  <time>2026-08-28T17:53:16Z</time>
  <course>232.77</course>
  <speed>0.96</speed>
  <fix>3d</fix>
</trkpt>
<trkpt lat="40.0713714" lon="-105.229687">
  <ele>1583.01</ele>
  <time>2026-08-28T17:53:16Z</time>
  <course>242.66</course>
  <speed>1.1677756633874505</speed>
  <fix>3d</fix>
</trkpt>
<trkpt lat="40.0713722" lon="-105.2296844">
  <ele>1583.0</ele>
  <time>2026-08-28T17:53:16Z</time>
  <course>232.77</course>
  <speed>0.96</speed>
  <fix>3d</fix>
</trkpt>
<trkpt lat="40.071371" lon="-105.2296884">
  <ele>1583.01</ele>
  <time>2026-08-28T17:53:16Z</time>
  <course>246.49</course>
  <speed>1.2794530081249564</speed>
  <fix>3d</fix>
</trkpt>
<trkpt lat="40.0713712" lon="-105.2296865">
  <ele>1583.0</ele>
  <time>2026-08-28T17:53:16Z</time>
  <course>241.98</course>
  <speed>1.14</speed>
  <fix>3d</fix>
</trkpt>
<trkpt lat="40.0713705" lon="-105.2296898">
  <ele>1583.01</ele>
  <time>2026-08-28T17:53:16Z</time>
  <course>249.74</course>
  <speed>1.3819189556555045</speed>
  <fix>3d</fix>
</trkpt>
<trkpt lat="40.0713712" lon="-105.2296865">
  <ele>1583.0</ele>
  <time>2026-08-28T17:53:16Z</time>
  <course>241.98</course>
  <speed>1.14</speed>
  <fix>3d</fix>
</trkpt>
<trkpt lat="40.0713701" lon="-105.2296914">
  <ele>1583.01</ele>
  <time>2026-08-28T17:53:16Z</time>
  <course>252.52</course>
  <speed>1.487615541731129</speed>
  <fix>3d</fix>
</trkpt>
<trkpt lat="40.0713703" lon="-105.2296892">
  <ele>1583.0</ele>
  <time>2026-08-28T17:53:16Z</time>
  <course>249.0</course>
  <speed>1.34</speed>
  <fix>3d</fix>
</trkpt>
<trkpt lat="40.0713697" lon="-105.2296932">
  <ele>1583.01</ele>
  <time>2026-08-28T17:53:16Z</time>
  <course>254.95</course>
  <speed>1.5959009994357418</speed>
  <fix>3d</fix>
</trkpt>
<trkpt lat="40.0713703" lon="-105.2296892">
  <ele>1583.0</ele>
  <time>2026-08-28T17:53:16Z</time>
  <course>249.0</course>
  <speed>1.34</speed>
  <fix>3d</fix>
</trkpt>
<trkpt lat="40.0713693" lon="-105.2296951">
  <ele>1583.01</ele>
  <time>2026-08-28T17:53:16Z</time>
  <course>257.07</course>
  <speed>1.6964963896218583</speed>
  <fix>3d</fix>
</trkpt>
<trkpt lat="40.0713695" lon="-105.2296924">
  <ele>1583.0</ele>
  <time>2026-08-28T17:53:16Z</time>
  <course>254.2</course>
  <speed>1.55</speed>
  <fix>3d</fix>
</trkpt>
<trkpt lat="40.071369" lon="-105.2296971">
  <ele>1583.01</ele>
  <time>2026-08-28T17:53:16Z</time>
  <course>258.87</course>
  <speed>1.7986939706353606</speed>
  <fix>3d</fix>
</trkpt>
<trkpt lat="40.0713695" lon="-105.2296924">
  <ele>1583.0</ele>
  <time>2026-08-28T17:53:16Z</time>
  <course>254.2</course>
  <speed>1.55</speed>
  <fix>3d</fix>
</trkpt>
<trkpt lat="40.0713687" lon="-105.2296992">
  <ele>1583.01</ele>
  <time>2026-08-28T17:53:16Z</time>
  <course>260.41</course>
  <speed>1.902235526952433</speed>
  <fix>3d</fix>
</trkpt>
<trkpt lat="40.0713688" lon="-105.2296962">
  <ele>1583.0</ele>
  <time>2026-08-28T17:53:16Z</time>
  <course>258.1</course>
  <speed>1.75</speed>
  <fix>3d</fix>
</trkpt>
<trkpt lat="40.0713684" lon="-105.2297015">
  <ele>1583.01</ele>
  <time>2026-08-28T17:53:16Z</time>
  <course>261.73</course>
  <speed>2.006913052426537</speed>
  <fix>3d</fix>
</trkpt>
<trkpt lat="40.0713688" lon="-105.2296962">
  <ele>1583.0</ele>
  <time>2026-08-28T17:53:16Z</time>
  <course>258.1</course>
  <speed>1.75</speed>
  <fix>3d</fix>
</trkpt>
<trkpt lat="40.0713682" lon="-105.2297038">
  <ele>1583.01</ele>
  <time>2026-08-28T17:53:16Z</time>
  <course>262.85</course>
  <speed>2.103734774157617</speed>
  <fix>3d</fix>
</trkpt>
<trkpt lat="40.0713688" lon="-105.2296962">
  <ele>1583.0</ele>
  <time>2026-08-28T17:53:16Z</time>
  <course>258.1</course>
  <speed>1.75</speed>
  <fix>3d</fix>
</trkpt>
<trkpt lat="40.0713679" lon="-105.2297063">
  <ele>1583.01</ele>
  <time>2026-08-28T17:53:16Z</time>
  <course>263.8</course>
  <speed>2.210972636646596</speed>
  <fix>3d</fix>
</trkpt>
<trkpt lat="40.0713681" lon="-105.2297005">
  <ele>1583.0</ele>
  <time>2026-08-28T17:53:16Z</time>
  <course>260.97</course>
  <speed>1.95</speed>
  <fix>3d</fix>
</trkpt>
<trkpt lat="40.0713677" lon="-105.229709">
  <ele>1583.01</ele>
  <time>2026-08-28T17:53:16Z</time>
  <course>264.61</course>
  <speed>2.3186418438387593</speed>
  <fix>3d</fix>
</trkpt>
<trkpt lat="40.0713681" lon="-105.2297005">
  <ele>1583.0</ele>
  <time>2026-08-28T17:53:16Z</time>
  <course>260.97</course>
  <speed>1.95</speed>
  <fix>3d</fix>
</trkpt>
<trkpt lat="40.0713675" lon="-105.2297117">
  <ele>1583.0</ele>
  <time>2026-08-28T17:53:16Z</time>
  <course>265.31</course>
  <speed>2.4266849816158667</speed>
  <fix>3d</fix>
</trkpt>
<trkpt lat="40.0713676" lon="-105.2297053">
  <ele>1583.0</ele>
  <time>2026-08-28T17:53:16Z</time>
  <course>263.06</course>
  <speed>2.16</speed>
  <fix>3d</fix>
</trkpt>
<trkpt lat="40.0713673" lon="-105.2297145">
  <ele>1583.0</ele>
  <time>2026-08-28T17:53:16Z</time>
  <course>265.93</course>
  <speed>2.525727617935077</speed>
  <fix>3d</fix>
</trkpt>
<trkpt lat="40.0713676" lon="-105.2297053">
  <ele>1583.0</ele>
  <time>2026-08-28T17:53:16Z</time>
  <course>263.06</course>
  <speed>2.16</speed>
  <fix>3d</fix>
</trkpt>
<trkpt lat="40.0713671" lon="-105.2297175">
  <ele>1583.0</ele>
  <time>2026-08-28T17:53:16Z</time>
  <course>266.47</course>
  <speed>2.6242903802742563</speed>
  <fix>3d</fix>
</trkpt>
<trkpt lat="40.0713673" lon="-105.2297106">
  <ele>1583.0</ele>
  <time>2026-08-28T17:53:16Z</time>
  <course>264.59</course>
  <speed>2.37</speed>
  <fix>3d</fix>
</trkpt>
<trkpt lat="40.071367" lon="-105.2297206">
  <ele>1583.0</ele>
  <time>2026-08-28T17:53:16Z</time>
  <course>266.96</course>
  <speed>2.713116289435453</speed>
  <fix>3d</fix>
</trkpt>
<trkpt lat="40.0713669" lon="-105.2297164">
  <ele>1583.0</ele>
  <time>2026-08-28T17:53:16Z</time>
  <course>265.76</course>
  <speed>2.57</speed>
  <fix>3d</fix>
</trkpt>
<trkpt lat="40.0713668" lon="-105.2297238">
  <ele>1582.99</ele>
  <time>2026-08-28T17:53:16Z</time>
  <course>267.41</course>
  <speed>2.792579452764057</speed>
  <fix>3d</fix>
</trkpt>
<trkpt lat="40.0713669" lon="-105.2297164">
  <ele>1583.0</ele>
  <time>2026-08-28T17:53:16Z</time>
  <course>265.76</course>
  <speed>2.57</speed>
  <fix>3d</fix>
</trkpt>
<trkpt lat="40.0713667" lon="-105.2297271">
  <ele>1582.99</ele>
  <time>2026-08-28T17:53:16Z</time>
  <course>267.81</course>
  <speed>2.8517538463198395</speed>
  <fix>3d</fix>
</trkpt>
<trkpt lat="40.0713665" lon="-105.2297227">
  <ele>1583.0</ele>
  <time>2026-08-28T17:53:16Z</time>
  <course>266.7</course>
  <speed>2.74</speed>
  <fix>3d</fix>
</trkpt>
<trkpt lat="40.0713665" lon="-105.2297304">
  <ele>1582.99</ele>
  <time>2026-08-28T17:53:16Z</time>
  <course>268.19</course>
  <speed>2.9113914199227833</speed>
  <fix>3d</fix>
</trkpt>
<trkpt lat="40.0713665" lon="-105.2297227">
  <ele>1583.0</ele>
  <time>2026-08-28T17:53:16Z</time>
  <course>266.7</course>
  <speed>2.74</speed>
  <fix>3d</fix>
</trkpt>
<trkpt lat="40.0713664" lon="-105.2297339">
  <ele>1582.99</ele>
  <time>2026-08-28T17:53:16Z</time>
  <course>268.54</course>
  <speed>2.9508303916016594</speed>
  <fix>3d</fix>
</trkpt>
<trkpt lat="40.0713662" lon="-105.2297292">
  <ele>1583.0</ele>
  <time>2026-08-28T17:53:16Z</time>
  <course>267.49</course>
  <speed>2.86</speed>
  <fix>3d</fix>
</trkpt>
<trkpt lat="40.0713663" lon="-105.2297373">
  <ele>1582.99</ele>
  <time>2026-08-28T17:53:16Z</time>
  <course>268.87</course>
  <speed>2.9706059987820668</speed>
  <fix>3d</fix>
</trkpt>
<trkpt lat="40.0713662" lon="-105.2297292">
  <ele>1583.0</ele>
  <time>2026-08-28T17:53:16Z</time>
  <course>267.49</course>
  <speed>2.86</speed>
  <fix>3d</fix>
</trkpt>
<trkpt lat="40.0713663" lon="-105.2297408">
  <ele>1582.99</ele>
  <time>2026-08-28T17:53:16Z</time>
  <course>269.18</course>
  <speed>2.9802684442848433</speed>
  <fix>3d</fix>
</trkpt>
<trkpt lat="40.0713661" lon="-105.229736">
  <ele>1583.0</ele>
  <time>2026-08-28T17:53:16Z</time>
  <course>268.18</course>
  <speed>2.92</speed>
  <fix>3d</fix>
</trkpt>
<trkpt lat="40.0713662" lon="-105.2297444">
  <ele>1582.98</ele>
  <time>2026-08-28T17:53:16Z</time>
  <course>269.5</course>
  <speed>2.980151002885592</speed>
  <fix>3d</fix>
</trkpt>
<trkpt lat="40.0713661" lon="-105.229736">
  <ele>1583.0</ele>
  <time>2026-08-28T17:53:16Z</time>
  <course>268.18</course>
  <speed>2.92</speed>
  <fix>3d</fix>
</trkpt>
<trkpt lat="40.0713661" lon="-105.2297478">
  <ele>1582.98</ele>
  <time>2026-08-28T17:53:16Z</time>
  <course>269.82</course>
  <speed>2.9600168918436935</speed>
  <fix>3d</fix>
</trkpt>
<trkpt lat="40.0713659" lon="-105.2297429">
  <ele>1583.0</ele>
  <time>2026-08-28T17:53:16Z</time>
  <course>268.82</course>
  <speed>2.93</speed>
  <fix>3d</fix>
</trkpt>
<trkpt lat="40.0713661" lon="-105.2297513">
  <ele>1582.98</ele>
  <time>2026-08-28T17:53:16Z</time>
  <course>270.13</course>
  <speed>2.92</speed>
  <fix>3d</fix>
</trkpt>
<trkpt lat="40.0713659" lon="-105.2297429">
  <ele>1583.0</ele>
  <time>2026-08-28T17:53:16Z</time>
  <course>268.82</course>
  <speed>2.93</speed>
  <fix>3d</fix>
</trkpt>
<trkpt lat="40.0713661" lon="-105.2297546">
  <ele>1582.98</ele>
  <time>2026-08-28T17:53:16Z</time>
  <course>270.46</course>
  <speed>2.87</speed>
  <fix>3d</fix>
</trkpt>
<trkpt lat="40.0713658" lon="-105.2297497">
  <ele>1583.0</ele>
  <time>2026-08-28T17:53:16Z</time>
  <course>269.46</course>
  <speed>2.87</speed>
  <fix>3d</fix>
</trkpt>
<trkpt lat="40.0713661" lon="-105.2297579">
  <ele>1582.98</ele>
  <time>2026-08-28T17:53:16Z</time>
  <course>270.8</course>
  <speed>2.800071427660373</speed>
  <fix>3d</fix>
</trkpt>
<trkpt lat="40.0713658" lon="-105.2297497">
  <ele>1583.0</ele>
  <time>2026-08-28T17:53:16Z</time>
  <course>269.46</course>
  <speed>2.87</speed>
  <fix>3d</fix>
</trkpt>
<trkpt lat="40.0713661" lon="-105.2297611">
  <ele>1582.98</ele>
  <time>2026-08-28T17:53:16Z</time>
  <course>271.17</course>
  <speed>2.7201654361453826</speed>
  <fix>3d</fix>
</trkpt>
<trkpt lat="40.0713658" lon="-105.2297564">
  <ele>1583.0</ele>
  <time>2026-08-28T17:53:16Z</time>
  <course>270.14</course>
  <speed>2.76</speed>
  <fix>3d</fix>
</trkpt>
<trkpt lat="40.0713661" lon="-105.2297642">
  <ele>1582.98</ele>
  <time>2026-08-28T17:53:16Z</time>
  <course>271.57</course>
  <speed>2.620477055804916</speed>
  <fix>3d</fix>
</trkpt>
<trkpt lat="40.0713658" lon="-105.2297564">
  <ele>1583.0</ele>
  <time>2026-08-28T17:53:16Z</time>
  <course>270.14</course>
  <speed>2.76</speed>
  <fix>3d</fix>
</trkpt>
<trkpt lat="40.0713661" lon="-105.2297672">
  <ele>1582.98</ele>
  <time>2026-08-28T17:53:16Z</time>
  <course>272.0</course>
  <speed>2.5107170290576355</speed>
  <fix>3d</fix>
</trkpt>
<trkpt lat="40.0713658" lon="-105.2297564">
  <ele>1583.0</ele>
  <time>2026-08-28T17:53:16Z</time>
  <course>270.14</course>
  <speed>2.76</speed>
  <fix>3d</fix>
</trkpt>
<trkpt lat="40.0713661" lon="-105.22977">
  <ele>1582.99</ele>
  <time>2026-08-28T17:53:16Z</time>
  <course>272.45</course>
  <speed>2.3813441582434067</speed>
  <fix>3d</fix>
</trkpt>
<trkpt lat="40.0713658" lon="-105.2297627">
  <ele>1583.0</ele>
  <time>2026-08-28T17:53:16Z</time>
  <course>270.91</course>
  <speed>2.58</speed>
  <fix>3d</fix>
</trkpt>
<trkpt lat="40.0713661" lon="-105.2297727">
  <ele>1582.99</ele>
  <time>2026-08-28T17:53:16Z</time>
  <course>272.92</course>
  <speed>2.2517992805754248</speed>
  <fix>3d</fix>
</trkpt>
<trkpt lat="40.0713658" lon="-105.2297627">
  <ele>1583.0</ele>
  <time>2026-08-28T17:53:16Z</time>
  <course>270.91</course>
  <speed>2.58</speed>
  <fix>3d</fix>
</trkpt>
<trkpt lat="40.0713662" lon="-105.2297751">
  <ele>1582.99</ele>
  <time>2026-08-28T17:53:16Z</time>
  <course>273.45</course>
  <speed>2.112368339092404</speed>
  <fix>3d</fix>
</trkpt>
<trkpt lat="40.0713659" lon="-105.2297685">
  <ele>1583.0</ele>
  <time>2026-08-28T17:53:16Z</time>
  <course>271.79</course>
  <speed>2.36</speed>
  <fix>3d</fix>
</trkpt>
<trkpt lat="40.0713663" lon="-105.2297775">
  <ele>1583.0</ele>
  <time>2026-08-28T17:53:16Z</time>
  <course>274.01</course>
  <speed>1.973068675946177</speed>
  <fix>3d</fix>
</trkpt>
<trkpt lat="40.0713659" lon="-105.2297685">
  <ele>1583.0</ele>
  <time>2026-08-28T17:53:16Z</time>
  <course>271.79</course>
  <speed>2.36</speed>
  <fix>3d</fix>
</trkpt>
<trkpt lat="40.0713664" lon="-105.2297796">
  <ele>1583.0</ele>
  <time>2026-08-28T17:53:16Z</time>
  <course>274.62</course>
  <speed>1.8239517537478889</speed>
  <fix>3d</fix>
</trkpt>
<trkpt lat="40.0713661" lon="-105.2297737">
  <ele>1583.0</ele>
  <time>2026-08-28T17:53:16Z</time>
  <course>272.79</course>
  <speed>2.1</speed>
  <fix>3d</fix>
</trkpt>
<trkpt lat="40.0713665" lon="-105.2297816">
  <ele>1583.0</ele>
  <time>2026-08-28T17:53:16Z</time>
  <course>275.31</course>
  <speed>1.6850222550459089</speed>
  <fix>3d</fix>
</trkpt>
<trkpt lat="40.0713661" lon="-105.2297737">
  <ele>1583.0</ele>
  <time>2026-08-28T17:53:16Z</time>
  <course>272.79</course>
  <speed>2.1</speed>
  <fix>3d</fix>
</trkpt>
<trkpt lat="40.0713666" lon="-105.2297834">
  <ele>1583.01</ele>
  <time>2026-08-28T17:53:16Z</time>
  <course>276.1</course>
  <speed>1.5264337522473748</speed>
  <fix>3d</fix>
</trkpt>
<trkpt lat="40.0713662" lon="-105.2297783">
  <ele>1583.0</ele>
  <time>2026-08-28T17:53:16Z</time>
  <course>273.97</course>
  <speed>1.82</speed>
  <fix>3d</fix>
</trkpt>
<trkpt lat="40.0713667" lon="-105.229785">
  <ele>1583.01</ele>
  <time>2026-08-28T17:53:16Z</time>
  <course>276.99</course>
  <speed>1.3771347065556077</speed>
  <fix>3d</fix>
</trkpt>
<trkpt lat="40.0713665" lon="-105.2297822">
  <ele>1583.0</ele>
  <time>2026-08-28T17:53:16Z</time>
  <course>275.43</course>
  <speed>1.53</speed>
  <fix>3d</fix>
</trkpt>
<trkpt lat="40.0713668" lon="-105.2297864">
  <ele>1583.01</ele>
  <time>2026-08-28T17:53:16Z</time>
  <course>278.03</course>
  <speed>1.229186723000212</speed>
  <fix>3d</fix>
</trkpt>
<trkpt lat="40.0713665" lon="-105.2297822">
  <ele>1583.0</ele>
  <time>2026-08-28T17:53:16Z</time>
  <course>275.43</course>
  <speed>1.53</speed>
  <fix>3d</fix>
</trkpt>
<trkpt lat="40.071367" lon="-105.2297877">
  <ele>1583.01</ele>
  <time>2026-08-28T17:53:16Z</time>
  <course>279.22</course>
  <speed>1.0804628637764464</speed>
  <fix>3d</fix>
</trkpt>
<trkpt lat="40.0713668" lon="-105.2297855">
  <ele>1583.0</ele>
  <time>2026-08-28T17:53:16Z</time>
  <course>277.35</course>
  <speed>1.24</speed>
  <fix>3d</fix>
</trkpt>
<trkpt lat="40.0713671" lon="-105.2297888">
  <ele>1583.01</ele>
  <time>2026-08-28T17:53:16Z</time>
  <course>280.53</course>
  <speed>0.942019108086455</speed>
  <fix>3d</fix>
</trkpt>
<trkpt lat="40.0713668" lon="-105.2297855">
  <ele>1583.0</ele>
  <time>2026-08-28T17:53:16Z</time>
  <course>277.35</course>
  <speed>1.24</speed>
  <fix>3d</fix>
</trkpt>
<trkpt lat="40.0713672" lon="-105.2297898">
  <ele>1583.01</ele>
  <time>2026-08-28T17:53:16Z</time>
  <course>281.81</course>
  <speed>0.792464510246358</speed>
  <fix>3d</fix>
</trkpt>
<trkpt lat="40.0713671" lon="-105.2297881">
  <ele>1583.0</ele>
  <time>2026-08-28T17:53:16Z</time>
  <course>279.71</course>
  <speed>0.96</speed>
  <fix>3d</fix>
</trkpt>
<trkpt lat="40.0713674" lon="-105.2297906">
  <ele>1583.01</ele>
  <time>2026-08-28T17:53:16Z</time>
  <course>283.03</course>
  <speed>0.6530696746902278</speed>
  <fix>3d</fix>
</trkpt>
<trkpt lat="40.0713671" lon="-105.2297881">
  <ele>1583.0</ele>
  <time>2026-08-28T17:53:16Z</time>
  <course>279.71</course>
  <speed>0.96</speed>
  <fix>3d</fix>
</trkpt>
<trkpt lat="40.0713675" lon="-105.2297912">
  <ele>1583.01</ele>
  <time>2026-08-28T17:53:16Z</time>
  <course>284.08</course>
  <speed>0.5217278984298233</speed>
  <fix>3d</fix>
</trkpt>
<trkpt lat="40.0713674" lon="-105.22979">
  <ele>1583.0</ele>
  <time>2026-08-28T17:53:16Z</time>
  <course>282.1</course>
  <speed>0.69</speed>
  <fix>3d</fix>
</trkpt>
<trkpt lat="40.0713676" lon="-105.2297917">
  <ele>1583.02</ele>
  <time>2026-08-28T17:53:16Z</time>
  <course>284.92</course>
  <speed>0.3905124837953327</speed>
  <fix>3d</fix>
</trkpt>
<trkpt lat="40.0713674" lon="-105.22979">
  <ele>1583.0</ele>
  <time>2026-08-28T17:53:16Z</time>
  <course>282.1</course>
  <speed>0.69</speed>
  <fix>3d</fix>
</trkpt>
<trkpt lat="40.0713677" lon="-105.2297921">
  <ele>1583.02</ele>
  <time>2026-08-28T17:53:16Z</time>
  <course>285.54</course>
  <speed>0.2668332812825267</speed>
  <fix>3d</fix>
</trkpt>
<trkpt lat="40.0713676" lon="-105.2297912">
  <ele>1583.0</ele>
  <time>2026-08-28T17:53:16Z</time>
  <course>283.97</course>
  <speed>0.43</speed>
  <fix>3d</fix>
</trkpt>
<trkpt lat="40.0713677" lon="-105.2297923">
  <ele>1583.02</ele>
  <time>2026-08-28T17:53:16Z</time>
  <course>285.96</course>
  <speed>0.14317821063276354</speed>
  <fix>3d</fix>
</trkpt>
<trkpt lat="40.0713676" lon="-105.2297912">
  <ele>1583.0</ele>
  <time>2026-08-28T17:53:16Z</time>
  <course>283.97</course>
  <speed>0.43</speed>
  <fix>3d</fix>
</trkpt>
<trkpt lat="40.0713677" lon="-105.2297923">
  <ele>1583.02</ele>
  <time>2026-08-28T17:53:16Z</time>
  <course>286.19</course>
  <speed>0.04</speed>
  <fix>3d</fix>
</trkpt>
<trkpt lat="40.0713677" lon="-105.229792">
  <ele>1583.0</ele>
  <time>2026-08-28T17:53:16Z</time>
  <course>285.06</course>
  <speed>0.2</speed>
  <fix>3d</fix>
</trkpt>
<trkpt lat="40.0713677" lon="-105.2297923">
  <ele>1583.02</ele>
  <time>2026-08-28T17:53:16Z</time>
  <course>286.24</course>
  <speed>0.0412310562561766</speed>
  <fix>3d</fix>
</trkpt>
<trkpt lat="40.0713677" lon="-105.229792">
  <ele>1583.0</ele>
  <time>2026-08-28T17:53:16Z</time>
  <course>285.06</course>
  <speed>0.2</speed>
  <fix>3d</fix>
</trkpt>
<trkpt lat="40.0713677" lon="-105.2297922">
  <ele>1583.02</ele>
  <time>2026-08-28T17:53:16Z</time>
  <course>286.29</course>
  <speed>0.11401754250991379</speed>
  <fix>3d</fix>
</trkpt>
<trkpt lat="40.0713678" lon="-105.2297923">
  <ele>1583.0</ele>
  <time>2026-08-28T17:53:16Z</time>
  <course>285.33</course>
  <speed>0.01</speed>
  <fix>3d</fix>
</trkpt>
<trkpt lat="40.0713677" lon="-105.229792">
  <ele>1583.03</ele>
  <time>2026-08-28T17:53:16Z</time>
  <course>286.44</course>
  <speed>0.18681541692269404</speed>
  <fix>3d</fix>
</trkpt>
<trkpt lat="40.0713678" lon="-105.2297923">
  <ele>1583.0</ele>
  <time>2026-08-28T17:53:16Z</time>
  <course>285.33</course>
  <speed>0.01</speed>
  <fix>3d</fix>
</trkpt>
<trkpt lat="40.0713677" lon="-105.2297919">
  <ele>1583.03</ele>
  <time>2026-08-28T17:53:16Z</time>
  <course>286.66</course>
  <speed>0.22803508501982758</speed>
  <fix>3d</fix>
</trkpt>
<trkpt lat="40.0713678" lon="-105.2297923">
  <ele>1583.0</ele>
  <time>2026-08-28T17:53:16Z</time>
  <course>285.33</course>
  <speed>0.01</speed>
  <fix>3d</fix>
</trkpt>
<trkpt lat="40.0713677" lon="-105.2297916">
  <ele>1583.04</ele>
  <time>2026-08-28T17:53:16Z</time>
  <course>286.96</course>
  <speed>0.2692582403567252</speed>
  <fix>3d</fix>
</trkpt>
<trkpt lat="40.0713678" lon="-105.2297921">
  <ele>1583.0</ele>
  <time>2026-08-28T17:53:16Z</time>
  <course>105.9</course>
  <speed>0.12</speed>
  <fix>3d</fix>
</trkpt>
<trkpt lat="40.0713676" lon="-105.2297913">
  <ele>1583.04</ele>
  <time>2026-08-28T17:53:16Z</time>
  <course>287.42</course>
  <speed>0.29120439557122074</speed>
  <fix>3d</fix>
</trkpt>
<trkpt lat="40.0713678" lon="-105.2297921">
  <ele>1583.0</ele>
  <time>2026-08-28T17:53:16Z</time>
  <course>105.9</course>
  <speed>0.12</speed>
  <fix>3d</fix>
</trkpt>
<trkpt lat="40.0713675" lon="-105.229791">
  <ele>1583.04</ele>
  <time>2026-08-28T17:53:16Z</time>
  <course>288.07</course>
  <speed>0.29120439557122074</speed>
  <fix>3d</fix>
</trkpt>
<trkpt lat="40.0713677" lon="-105.2297918">
  <ele>1583.0</ele>
  <time>2026-08-28T17:53:16Z</time>
  <course>106.44</course>
  <speed>0.21</speed>
  <fix>3d</fix>
</trkpt>
<trkpt lat="40.0713675" lon="-105.2297906">
  <ele>1583.04</ele>
  <time>2026-08-28T17:53:16Z</time>
  <course>288.9</course>
  <speed>0.29120439557122074</speed>
  <fix>3d</fix>
</trkpt>
<trkpt lat="40.0713677" lon="-105.2297918">
  <ele>1583.0</ele>
  <time>2026-08-28T17:53:16Z</time>
  <course>106.44</course>
  <speed>0.21</speed>
  <fix>3d</fix>
</trkpt>
<trkpt lat="40.0713674" lon="-105.2297904">
  <ele>1583.04</ele>
  <time>2026-08-28T17:53:16Z</time>
  <course>289.84</course>
  <speed>0.2692582403567252</speed>
  <fix>3d</fix>
</trkpt>
<trkpt lat="40.0713676" lon="-105.2297913">
  <ele>1583.0</ele>
  <time>2026-08-28T17:53:16Z</time>
  <course>107.52</course>
  <speed>0.23</speed>
  <fix>3d</fix>
</trkpt>
<trkpt lat="40.0713673" lon="-105.2297901">
  <ele>1583.04</ele>
  <time>2026-08-28T17:53:16Z</time>
  <course>290.84</course>
  <speed>0.22803508501982758</speed>
  <fix>3d</fix>
</trkpt>
<trkpt lat="40.0713675" lon="-105.2297908">
  <ele>1583.0</ele>
  <time>2026-08-28T17:53:16Z</time>
  <course>109.1</course>
  <speed>0.21</speed>
  <fix>3d</fix>
</trkpt>
<trkpt lat="40.0713673" lon="-105.2297899">
  <ele>1583.04</ele>
  <time>2026-08-28T17:53:16Z</time>
  <course>291.74</course>
  <speed>0.18681541692269404</speed>
  <fix>3d</fix>
</trkpt>
<trkpt lat="40.0713675" lon="-105.2297908">
  <ele>1583.0</ele>
  <time>2026-08-28T17:53:16Z</time>
  <course>109.1</course>
  <speed>0.21</speed>
  <fix>3d</fix>
</trkpt>
<trkpt lat="40.0713673" lon="-105.2297898">
  <ele>1583.04</ele>
  <time>2026-08-28T17:53:16Z</time>
  <course>292.41</course>
  <speed>0.12165525060596438</speed>
  <fix>3d</fix>
</trkpt>
<trkpt lat="40.0713674" lon="-105.2297904">
  <ele>1583.0</ele>
  <time>2026-08-28T17:53:16Z</time>
  <course>110.64</course>
  <speed>0.13</speed>
  <fix>3d</fix>
</trkpt>
<trkpt lat="40.0713673" lon="-105.2297897">
  <ele>1583.04</ele>
  <time>2026-08-28T17:53:16Z</time>
  <course>292.68</course>
  <speed>0.05</speed>
  <fix>3d</fix>
</trkpt>
<trkpt lat="40.0713674" lon="-105.2297904">
  <ele>1583.0</ele>
  <time>2026-08-28T17:53:16Z</time>
  <course>110.64</course>
  <speed>0.13</speed>
  <fix>3d</fix>
</trkpt>
<trkpt lat="40.0713673" lon="-105.2297898">
  <ele>1583.04</ele>
  <time>2026-08-28T17:53:16Z</time>
  <course>292.77</course>
  <speed>0.044721359549995794</speed>
  <fix>3d</fix>
</trkpt>
<trkpt lat="40.0713674" lon="-105.2297902">
  <ele>1583.0</ele>
  <time>2026-08-28T17:53:16Z</time>
  <course>304.01</course>
  <speed>0.0</speed>
  <fix>3d</fix>
</trkpt>
<trkpt lat="40.0713674" lon="-105.2297899">
  <ele>1583.04</ele>
  <time>2026-08-28T17:53:16Z</time>
  <course>293.59</course>
  <speed>0.13601470508735444</speed>
  <fix>3d</fix>
</trkpt>
<trkpt lat="40.0713674" lon="-105.2297902">
  <ele>1583.0</ele>
  <time>2026-08-28T17:53:16Z</time>
  <course>304.01</course>
  <speed>0.0</speed>
  <fix>3d</fix>
</trkpt>
<trkpt lat="40.0713675" lon="-105.2297902">
  <ele>1583.03</ele>
  <time>2026-08-28T17:53:16Z</time>
  <course>295.06</course>
  <speed>0.24698178070456936</speed>
  <fix>3d</fix>
</trkpt>
<trkpt lat="40.0713674" lon="-105.2297904">
  <ele>1583.0</ele>
  <time>2026-08-28T17:53:16Z</time>
  <course>293.91</course>
  <speed>0.18</speed>
  <fix>3d</fix>
</trkpt>
<trkpt lat="40.0713676" lon="-105.2297906">
  <ele>1583.03</ele>
  <time>2026-08-28T17:53:16Z</time>
  <course>297.27</course>
  <speed>0.3689173349139343</speed>
  <fix>3d</fix>
</trkpt>
<trkpt lat="40.0713674" lon="-105.2297904">
  <ele>1583.0</ele>
  <time>2026-08-28T17:53:16Z</time>
  <course>293.91</course>
  <speed>0.18</speed>
  <fix>3d</fix>
</trkpt>
<trkpt lat="40.0713678" lon="-105.229791">
  <ele>1583.02</ele>
  <time>2026-08-28T17:53:16Z</time>
  <course>300.25</course>
  <speed>0.49648766349225637</speed>
  <fix>3d</fix>
</trkpt>
<trkpt lat="40.0713676" lon="-105.229791">
  <ele>1583.0</ele>
  <time>2026-08-28T17:53:16Z</time>
  <course>297.78</course>
  <speed>0.4</speed>
  <fix>3d</fix>
</trkpt>
<trkpt lat="40.0713681" lon="-105.2297916">
  <ele>1583.02</ele>
  <time>2026-08-28T17:53:16Z</time>
  <course>304.05</course>
  <speed>0.6420280367709809</speed>
  <fix>3d</fix>
</trkpt>
<trkpt lat="40.0713676" lon="-105.229791">
  <ele>1583.0</ele>
  <time>2026-08-28T17:53:16Z</time>
  <course>297.78</course>
  <speed>0.4</speed>
  <fix>3d</fix>
</trkpt>
<trkpt lat="40.0713685" lon="-105.2297923">
  <ele>1583.02</ele>
  <time>2026-08-28T17:53:16Z</time>
  <course>308.7</course>
  <speed>0.7789736837660179</speed>
  <fix>3d</fix>
</trkpt>
<trkpt lat="40.0713681" lon="-105.229792">
  <ele>1583.0</ele>
  <time>2026-08-28T17:53:16Z</time>
  <course>304.68</course>
  <speed>0.66</speed>
  <fix>3d</fix>
</trkpt>
<trkpt lat="40.0713691" lon="-105.2297931">
  <ele>1583.02</ele>
  <time>2026-08-28T17:53:16Z</time>
  <course>314.24</course>
  <speed>0.9338094023943002</speed>
  <fix>3d</fix>
</trkpt>
<trkpt lat="40.0713681" lon="-105.229792">
  <ele>1583.0</ele>
  <time>2026-08-28T17:53:16Z</time>
  <course>304.68</course>
  <speed>0.66</speed>
  <fix>3d</fix>
</trkpt>
<trkpt lat="40.0713698" lon="-105.229794">
  <ele>1583.02</ele>
  <time>2026-08-28T17:53:16Z</time>
  <course>320.4</course>
  <speed>1.0780074211247341</speed>
  <fix>3d</fix>
</trkpt>
<trkpt lat="40.071369" lon="-105.2297935">
  <ele>1583.0</ele>
  <time>2026-08-28T17:53:16Z</time>
  <course>314.78</course>
  <speed>0.93</speed>
  <fix>3d</fix>
</trkpt>
<trkpt lat="40.0713707" lon="-105.2297948">
  <ele>1583.02</ele>
  <time>2026-08-28T17:53:16Z</time>
  <course>325.83</course>
  <speed>1.2264175471673584</speed>
  <fix>3d</fix>
</trkpt>
<trkpt lat="40.071369" lon="-105.2297935">
  <ele>1583.0</ele>
  <time>2026-08-28T17:53:16Z</time>
  <course>314.78</course>
  <speed>0.93</speed>
  <fix>3d</fix>
</trkpt>
<trkpt lat="40.0713717" lon="-105.2297956">
  <ele>1583.02</ele>
  <time>2026-08-28T17:53:16Z</time>
  <course>330.58</course>
  <speed>1.373062270984095</speed>
  <fix>3d</fix>
</trkpt>
<trkpt lat="40.071369" lon="-105.2297935">
  <ele>1583.0</ele>
  <time>2026-08-28T17:53:16Z</time>
  <course>314.78</course>
  <speed>0.93</speed>
  <fix>3d</fix>
</trkpt>
<trkpt lat="40.0713729" lon="-105.2297964">
  <ele>1583.03</ele>
  <time>2026-08-28T17:53:16Z</time>
  <course>334.8</course>
  <speed>1.513968295572929</speed>
  <fix>3d</fix>
</trkpt>
<trkpt lat="40.0713705" lon="-105.229795">
  <ele>1583.0</ele>
  <time>2026-08-28T17:53:16Z</time>
  <course>325.45</course>
  <speed>1.22</speed>
  <fix>3d</fix>
</trkpt>
<trkpt lat="40.0713742" lon="-105.2297972">
  <ele>1583.03</ele>
  <time>2026-08-28T17:53:16Z</time>
  <course>338.65</course>
  <speed>1.6480594649465778</speed>
  <fix>3d</fix>
</trkpt>
<trkpt lat="40.0713705" lon="-105.229795">
  <ele>1583.0</ele>
  <time>2026-08-28T17:53:16Z</time>
  <course>325.45</course>
  <speed>1.22</speed>
  <fix>3d</fix>
</trkpt>
<trkpt lat="40.0713757" lon="-105.2297978">
  <ele>1583.03</ele>
  <time>2026-08-28T17:53:16Z</time>
  <course>341.98</course>
  <speed>1.7624131184259835</speed>
  <fix>3d</fix>
</trkpt>
<trkpt lat="40.0713725" lon="-105.2297967">
  <ele>1583.0</ele>
  <time>2026-08-28T17:53:16Z</time>
  <course>334.34</course>
  <speed>1.49</speed>
  <fix>3d</fix>
</trkpt>
<trkpt lat="40.0713772" lon="-105.2297984">
  <ele>1583.04</ele>
  <time>2026-08-28T17:53:16Z</time>
  <course>344.82</course>
  <speed>1.8748066566982313</speed>
  <fix>3d</fix>
</trkpt>
<trkpt lat="40.0713725" lon="-105.2297967">
  <ele>1583.0</ele>
  <time>2026-08-28T17:53:16Z</time>
  <course>334.34</course>
  <speed>1.49</speed>
  <fix>3d</fix>
</trkpt>
<trkpt lat="40.0713789" lon="-105.229799">
  <ele>1583.04</ele>
  <time>2026-08-28T17:53:16Z</time>
  <course>347.26</course>
  <speed>1.9906029237394385</speed>
  <fix>3d</fix>
</trkpt>
<trkpt lat="40.0713753" lon="-105.2297981">
  <ele>1583.0</ele>
  <time>2026-08-28T17:53:16Z</time>
  <course>341.31</course>
  <speed>1.73</speed>
  <fix>3d</fix>
</trkpt>
<trkpt lat="40.0713807" lon="-105.2297995">
  <ele>1583.04</ele>
  <time>2026-08-28T17:53:16Z</time>
  <course>349.37</course>
  <speed>2.099380861111199</speed>
  <fix>3d</fix>
</trkpt>
<trkpt lat="40.0713753" lon="-105.2297981">
  <ele>1583.0</ele>
  <time>2026-08-28T17:53:16Z</time>
  <course>341.31</course>
  <speed>1.73</speed>
  <fix>3d</fix>
</trkpt>
<trkpt lat="40.0713826" lon="-105.2297999">
  <ele>1583.04</ele>
  <time>2026-08-28T17:53:16Z</time>
  <course>351.2</course>
  <speed>2.211831820008022</speed>
  <fix>3d</fix>
</trkpt>
<trkpt lat="40.0713784" lon="-105.2297993">
  <ele>1583.0</ele>
  <time>2026-08-28T17:53:16Z</time>
  <course>346.59</course>
  <speed>1.96</speed>
  <fix>3d</fix>
</trkpt>
<trkpt lat="40.0713847" lon="-105.2298003">
  <ele>1583.04</ele>
  <time>2026-08-28T17:53:16Z</time>
  <course>352.75</course>
  <speed>2.324585984643287</speed>
  <fix>3d</fix>
</trkpt>
<trkpt lat="40.0713821" lon="-105.2298002">
  <ele>1583.0</ele>
  <time>2026-08-28T17:53:16Z</time>
  <course>350.5</course>
  <speed>2.18</speed>
  <fix>3d</fix>
</trkpt>
<trkpt lat="40.0713868" lon="-105.2298006">
  <ele>1583.04</ele>
  <time>2026-08-28T17:53:16Z</time>
  <course>354.1</course>
  <speed>2.4299794237811976</speed>
  <fix>3d</fix>
</trkpt>
<trkpt lat="40.0713821" lon="-105.2298002">
  <ele>1583.0</ele>
  <time>2026-08-28T17:53:16Z</time>
  <course>350.5</course>
  <speed>2.18</speed>
  <fix>3d</fix>
</trkpt>
<trkpt lat="40.071389" lon="-105.2298009">
  <ele>1583.04</ele>
  <time>2026-08-28T17:53:16Z</time>
  <course>355.25</course>
  <speed>2.5363950796356627</speed>
  <fix>3d</fix>
</trkpt>
<trkpt lat="40.0713862" lon="-105.229801">
  <ele>1583.0</ele>
  <time>2026-08-28T17:53:16Z</time>
  <course>353.41</course>
  <speed>2.4</speed>
  <fix>3d</fix>
</trkpt>
<trkpt lat="40.0713913" lon="-105.2298012">
  <ele>1583.05</ele>
  <time>2026-08-28T17:53:16Z</time>
  <course>356.26</course>
  <speed>2.644257929930437</speed>
  <fix>3d</fix>
</trkpt>
<trkpt lat="40.0713862" lon="-105.229801">
  <ele>1583.0</ele>
  <time>2026-08-28T17:53:16Z</time>
  <course>353.41</course>
  <speed>2.4</speed>
  <fix>3d</fix>
</trkpt>
<trkpt lat="40.0713938" lon="-105.2298014">
  <ele>1583.05</ele>
  <time>2026-08-28T17:53:16Z</time>
  <course>357.11</course>
  <speed>2.7426264783962107</speed>
  <fix>3d</fix>
</trkpt>
<trkpt lat="40.0713907" lon="-105.2298015">
  <ele>1583.0</ele>
  <time>2026-08-28T17:53:16Z</time>
  <course>355.59</course>
  <speed>2.61</speed>
  <fix>3d</fix>
</trkpt>
<trkpt lat="40.0713963" lon="-105.2298015">
  <ele>1583.05</ele>
  <time>2026-08-28T17:53:16Z</time>
  <course>357.85</course>
  <speed>2.8514206985290684</speed>
  <fix>3d</fix>
</trkpt>
<trkpt lat="40.0713907" lon="-105.2298015">
  <ele>1583.0</ele>
  <time>2026-08-28T17:53:16Z</time>
  <course>355.59</course>
  <speed>2.61</speed>
  <fix>3d</fix>
</trkpt>
<trkpt lat="40.0713989" lon="-105.2298017">
  <ele>1583.04</ele>
  <time>2026-08-28T17:53:16Z</time>
  <course>358.49</course>
  <speed>2.9506101064017254</speed>
  <fix>3d</fix>
</trkpt>
<trkpt lat="40.0713956" lon="-105.2298019">
  <ele>1583.0</ele>
  <time>2026-08-28T17:53:16Z</time>
  <course>357.19</course>
  <speed>2.81</speed>
  <fix>3d</fix>
</trkpt>
<trkpt lat="40.0714016" lon="-105.2298018">
  <ele>1583.04</ele>
  <time>2026-08-28T17:53:16Z</time>
  <course>359.04</course>
  <speed>3.05026228380446</speed>
  <fix>3d</fix>
</trkpt>
<trkpt lat="40.0713956" lon="-105.2298019">
  <ele>1583.0</ele>
  <time>2026-08-28T17:53:16Z</time>
  <course>357.19</course>
  <speed>2.81</speed>
  <fix>3d</fix>
</trkpt>
<trkpt lat="40.0714045" lon="-105.2298019">
  <ele>1583.04</ele>
  <time>2026-08-28T17:53:16Z</time>
  <course>359.53</course>
  <speed>3.1500158729758807</speed>
  <fix>3d</fix>
</trkpt>
<trkpt lat="40.0714009" lon="-105.2298022">
  <ele>1583.0</ele>
  <time>2026-08-28T17:53:16Z</time>
  <course>358.39</course>
  <speed>3.01</speed>
  <fix>3d</fix>
</trkpt>
<trkpt lat="40.0714074" lon="-105.2298019">
  <ele>1583.04</ele>
  <time>2026-08-28T17:53:16Z</time>
  <course>359.97</course>
  <speed>3.24</speed>
  <fix>3d</fix>
</trkpt>
<trkpt lat="40.0714009" lon="-105.2298022">
  <ele>1583.0</ele>
  <time>2026-08-28T17:53:16Z</time>
  <course>358.39</course>
  <speed>3.01</speed>
  <fix>3d</fix>
</trkpt>
<trkpt lat="40.0714103" lon="-105.2298019">
  <ele>1583.04</ele>
  <time>2026-08-28T17:53:16Z</time>
  <course>0.36</course>
  <speed>3.3100604224092347</speed>
  <fix>3d</fix>
</trkpt>
<trkpt lat="40.0714064" lon="-105.2298023">
  <ele>1583.0</ele>
  <time>2026-08-28T17:53:16Z</time>
  <course>359.34</course>
  <speed>3.19</speed>
  <fix>3d</fix>
</trkpt>
<trkpt lat="40.0714133" lon="-105.2298019">
  <ele>1583.04</ele>
  <time>2026-08-28T17:53:16Z</time>
  <course>0.72</course>
  <speed>3.3802366781040645</speed>
  <fix>3d</fix>
</trkpt>
<trkpt lat="40.0714064" lon="-105.2298023">
  <ele>1583.0</ele>
  <time>2026-08-28T17:53:16Z</time>
  <course>359.34</course>
  <speed>3.19</speed>
  <fix>3d</fix>
</trkpt>
<trkpt lat="40.0714164" lon="-105.2298019">
  <ele>1583.04</ele>
  <time>2026-08-28T17:53:16Z</time>
  <course>1.06</course>
  <speed>3.420526275297414</speed>
  <fix>3d</fix>
</trkpt>
<trkpt lat="40.0714064" lon="-105.2298023">
  <ele>1583.0</ele>
  <time>2026-08-28T17:53:16Z</time>
  <course>359.34</course>
  <speed>3.19</speed>
  <fix>3d</fix>
</trkpt>
<trkpt lat="40.0714195" lon="-105.2298019">
  <ele>1583.03</ele>
  <time>2026-08-28T17:53:16Z</time>
  <course>1.38</course>
  <speed>3.450927411580835</speed>
  <fix>3d</fix>
</trkpt>
<trkpt lat="40.0714123" lon="-105.2298024">
  <ele>1583.0</ele>
  <time>2026-08-28T17:53:16Z</time>
  <course>0.11</course>
  <speed>3.33</speed>
  <fix>3d</fix>
</trkpt>
<trkpt lat="40.0714226" lon="-105.2298018">
  <ele>1583.03</ele>
  <time>2026-08-28T17:53:16Z</time>
  <course>1.66</course>
  <speed>3.4711669507530174</speed>
  <fix>3d</fix>
</trkpt>
<trkpt lat="40.0714123" lon="-105.2298024">
  <ele>1583.0</ele>
  <time>2026-08-28T17:53:16Z</time>
  <course>0.11</course>
  <speed>3.33</speed>
  <fix>3d</fix>
</trkpt>
<trkpt lat="40.0714256" lon="-105.2298018">
  <ele>1583.03</ele>
  <time>2026-08-28T17:53:16Z</time>
  <course>1.94</course>
  <speed>3.4617481133092283</speed>
  <fix>3d</fix>
</trkpt>
<trkpt lat="40.0714184" lon="-105.2298023">
  <ele>1583.0</ele>
  <time>2026-08-28T17:53:16Z</time>
  <course>0.77</course>
  <speed>3.41</speed>
  <fix>3d</fix>
</trkpt>
<trkpt lat="40.0714287" lon="-105.2298017">
  <ele>1583.04</ele>
  <time>2026-08-28T17:53:16Z</time>
  <course>2.21</course>
  <speed>3.4420923869065456</speed>
  <fix>3d</fix>
</trkpt>
<trkpt lat="40.0714184" lon="-105.2298023">
  <ele>1583.0</ele>
  <time>2026-08-28T17:53:16Z</time>
  <course>0.77</course>
  <speed>3.41</speed>
  <fix>3d</fix>
</trkpt>
<trkpt lat="40.0714318" lon="-105.2298016">
  <ele>1583.04</ele>
  <time>2026-08-28T17:53:16Z</time>
  <course>2.49</course>
  <speed>3.412477106150311</speed>
  <fix>3d</fix>
</trkpt>
<trkpt lat="40.0714246" lon="-105.2298022">
  <ele>1583.0</ele>
  <time>2026-08-28T17:53:16Z</time>
  <course>1.35</course>
  <speed>3.42</speed>
  <fix>3d</fix>
</trkpt>
<trkpt lat="40.0714348" lon="-105.2298015">
  <ele>1583.04</ele>
  <time>2026-08-28T17:53:16Z</time>
  <course>2.76</course>
  <speed>3.363346547711074</speed>
  <fix>3d</fix>
</trkpt>
<trkpt lat="40.0714246" lon="-105.2298022">
  <ele>1583.0</ele>
  <time>2026-08-28T17:53:16Z</time>
  <course>1.35</course>
  <speed>3.42</speed>
  <fix>3d</fix>
</trkpt>
<trkpt lat="40.0714377" lon="-105.2298014">
  <ele>1583.04</ele>
  <time>2026-08-28T17:53:16Z</time>
  <course>3.03</course>
  <speed>3.2938882798297815</speed>
  <fix>3d</fix>
</trkpt>
<trkpt lat="40.0714307" lon="-105.229802">
  <ele>1583.0</ele>
  <time>2026-08-28T17:53:16Z</time>
  <course>1.9</course>
  <speed>3.38</speed>
  <fix>3d</fix>
</trkpt>
<trkpt lat="40.0714406" lon="-105.2298012">
  <ele>1583.04</ele>
  <time>2026-08-28T17:53:16Z</time>
  <course>3.3</course>
  <speed>3.214498405661449</speed>
  <fix>3d</fix>
</trkpt>
<trkpt lat="40.0714366" lon="-105.2298017">
  <ele>1583.0</ele>
  <time>2026-08-28T17:53:16Z</time>
  <course>2.44</course>
  <speed>3.27</speed>
  <fix>3d</fix>
</trkpt>
<trkpt lat="40.0714434" lon="-105.229801">
  <ele>1583.04</ele>
  <time>2026-08-28T17:53:16Z</time>
  <course>3.59</course>
  <speed>3.124627977855924</speed>
  <fix>3d</fix>
</trkpt>
<trkpt lat="40.0714366" lon="-105.2298017">
  <ele>1583.0</ele>
  <time>2026-08-28T17:53:16Z</time>
  <course>2.44</course>
  <speed>3.27</speed>
  <fix>3d</fix>
</trkpt>
<trkpt lat="40.0714461" lon="-105.2298009">
  <ele>1583.04</ele>
  <time>2026-08-28T17:53:16Z</time>
  <course>3.9</course>
  <speed>3.0153772566629202</speed>
  <fix>3d</fix>
</trkpt>
<trkpt lat="40.0714423" lon="-105.2298014">
  <ele>1583.0</ele>
  <time>2026-08-28T17:53:16Z</time>
  <course>3.01</course>
  <speed>3.1</speed>
  <fix>3d</fix>
</trkpt>
<trkpt lat="40.0714487" lon="-105.2298007">
  <ele>1583.04</ele>
  <time>2026-08-28T17:53:16Z</time>
  <course>4.22</course>
  <speed>2.8962389404191082</speed>
  <fix>3d</fix>
</trkpt>
<trkpt lat="40.0714423" lon="-105.2298014">
  <ele>1583.0</ele>
  <time>2026-08-28T17:53:16Z</time>
  <course>3.01</course>
  <speed>3.1</speed>
  <fix>3d</fix>
</trkpt>
<trkpt lat="40.0714513" lon="-105.2298005">
  <ele>1583.04</ele>
  <time>2026-08-28T17:53:16Z</time>
  <course>4.54</course>
  <speed>2.7665321252427195</speed>
  <fix>3d</fix>
</trkpt>
<trkpt lat="40.0714478" lon="-105.229801">
  <ele>1583.0</ele>
  <time>2026-08-28T17:53:16Z</time>
  <course>3.64</course>
  <speed>2.88</speed>
  <fix>3d</fix>
</trkpt>
<trkpt lat="40.0714537" lon="-105.2298003">
  <ele>1583.04</ele>
  <time>2026-08-28T17:53:16Z</time>
  <course>4.88</course>
  <speed>2.6276224995230955</speed>
  <fix>3d</fix>
</trkpt>
<trkpt lat="40.0714478" lon="-105.229801">
  <ele>1583.0</ele>
  <time>2026-08-28T17:53:16Z</time>
  <course>3.64</course>
  <speed>2.88</speed>
  <fix>3d</fix>
</trkpt>
<trkpt lat="40.0714559" lon="-105.2298">
  <ele>1583.04</ele>
  <time>2026-08-28T17:53:16Z</time>
  <course>5.23</course>
  <speed>2.488051446413438</speed>
  <fix>3d</fix>
</trkpt>
<trkpt lat="40.0714527" lon="-105.2298005">
  <ele>1583.0</ele>
  <time>2026-08-28T17:53:16Z</time>
  <course>4.3</course>
  <speed>2.63</speed>
  <fix>3d</fix>
</trkpt>
<trkpt lat="40.0714581" lon="-105.2297998">
  <ele>1583.03</ele>
  <time>2026-08-28T17:53:16Z</time>
  <course>5.61</course>
  <speed>2.348531456038007</speed>
  <fix>3d</fix>
</trkpt>
<trkpt lat="40.0714527" lon="-105.2298005">
  <ele>1583.0</ele>
  <time>2026-08-28T17:53:16Z</time>
  <course>4.3</course>
  <speed>2.63</speed>
  <fix>3d</fix>
</trkpt>
<trkpt lat="40.0714601" lon="-105.2297996">
  <ele>1583.03</ele>
  <time>2026-08-28T17:53:16Z</time>
  <course>6.01</course>
  <speed>2.1991134577370035</speed>
  <fix>3d</fix>
</trkpt>
<trkpt lat="40.0714572" lon="-105.2298">
  <ele>1583.0</ele>
  <time>2026-08-28T17:53:16Z</time>
  <course>5.03</course>
  <speed>2.35</speed>
  <fix>3d</fix>
</trkpt>
<trkpt lat="40.071462" lon="-105.2297994">
  <ele>1583.03</ele>
  <time>2026-08-28T17:53:16Z</time>
  <course>6.44</course>
  <speed>2.049780476051033</speed>
  <fix>3d</fix>
</trkpt>
<trkpt lat="40.0714572" lon="-105.2298">
  <ele>1583.0</ele>
  <time>2026-08-28T17:53:16Z</time>
  <course>5.03</course>
  <speed>2.35</speed>
  <fix>3d</fix>
</trkpt>
<trkpt lat="40.0714637" lon="-105.2297991">
  <ele>1583.03</ele>
  <time>2026-08-28T17:53:16Z</time>
  <course>6.91</course>
  <speed>1.9005525512334562</speed>
  <fix>3d</fix>
</trkpt>
<trkpt lat="40.0714611" lon="-105.2297995">
  <ele>1583.0</ele>
  <time>2026-08-28T17:53:16Z</time>
  <course>5.86</course>
  <speed>2.06</speed>
  <fix>3d</fix>
</trkpt>
<trkpt lat="40.0714653" lon="-105.2297989">
  <ele>1583.02</ele>
  <time>2026-08-28T17:53:16Z</time>
  <course>7.4</course>
  <speed>1.751456536714514</speed>
  <fix>3d</fix>
</trkpt>
<trkpt lat="40.0714611" lon="-105.2297995">
  <ele>1583.0</ele>
  <time>2026-08-28T17:53:16Z</time>
  <course>5.86</course>
  <speed>2.06</speed>
  <fix>3d</fix>
</trkpt>
<trkpt lat="40.0714668" lon="-105.2297987">
  <ele>1583.02</ele>
  <time>2026-08-28T17:53:16Z</time>
  <course>7.96</course>
  <speed>1.6025292509030842</speed>
  <fix>3d</fix>
</trkpt>
<trkpt lat="40.0714645" lon="-105.229799">
  <ele>1583.0</ele>
  <time>2026-08-28T17:53:16Z</time>
  <course>6.82</course>
  <speed>1.77</speed>
  <fix>3d</fix>
</trkpt>
<trkpt lat="40.0714681" lon="-105.2297984">
  <ele>1583.02</ele>
  <time>2026-08-28T17:53:16Z</time>
  <course>8.57</course>
  <speed>1.4524806367039804</speed>
  <fix>3d</fix>
</trkpt>
<trkpt lat="40.0714645" lon="-105.229799">
  <ele>1583.0</ele>
  <time>2026-08-28T17:53:16Z</time>
  <course>6.82</course>
  <speed>1.77</speed>
  <fix>3d</fix>
</trkpt>
<trkpt lat="40.0714693" lon="-105.2297982">
  <ele>1583.02</ele>
  <time>2026-08-28T17:53:16Z</time>
  <course>9.27</course>
  <speed>1.3039171752837677</speed>
  <fix>3d</fix>
</trkpt>
<trkpt lat="40.0714645" lon="-105.229799">
  <ele>1583.0</ele>
  <time>2026-08-28T17:53:16Z</time>
  <course>6.82</course>
  <speed>1.77</speed>
  <fix>3d</fix>
</trkpt>
<trkpt lat="40.0714704" lon="-105.229798">
  <ele>1583.02</ele>
  <time>2026-08-28T17:53:16Z</time>
  <course>10.08</course>
  <speed>1.1640017182117903</speed>
  <fix>3d</fix>
</trkpt>
<trkpt lat="40.0714674" lon="-105.2297986">
  <ele>1583.0</ele>
  <time>2026-08-28T17:53:16Z</time>
  <course>7.98</course>
  <speed>1.48</speed>
  <fix>3d</fix>
</trkpt>
<trkpt lat="40.0714713" lon="-105.2297978">
  <ele>1583.01</ele>
  <time>2026-08-28T17:53:16Z</time>
  <course>11.02</course>
  <speed>1.0259142264341596</speed>
  <fix>3d</fix>
</trkpt>
<trkpt lat="40.0714674" lon="-105.2297986">
  <ele>1583.0</ele>
  <time>2026-08-28T17:53:16Z</time>
  <course>7.98</course>
  <speed>1.48</speed>
  <fix>3d</fix>
</trkpt>
<trkpt lat="40.0714722" lon="-105.2297976">
  <ele>1583.01</ele>
  <time>2026-08-28T17:53:16Z</time>
  <course>12.09</course>
  <speed>0.8962700485902673</speed>
  <fix>3d</fix>
</trkpt>
<trkpt lat="40.0714698" lon="-105.2297981">
  <ele>1583.0</ele>
  <time>2026-08-28T17:53:16Z</time>
  <course>9.49</course>
  <speed>1.2</speed>
  <fix>3d</fix>
</trkpt>
<trkpt lat="40.0714729" lon="-105.2297974">
  <ele>1583.01</ele>
  <time>2026-08-28T17:53:16Z</time>
  <course>13.11</course>
  <speed>0.7668767828015137</speed>
  <fix>3d</fix>
</trkpt>
<trkpt lat="40.0714698" lon="-105.2297981">
  <ele>1583.0</ele>
  <time>2026-08-28T17:53:16Z</time>
  <course>9.49</course>
  <speed>1.2</speed>
  <fix>3d</fix>
</trkpt>
<trkpt lat="40.0714735" lon="-105.2297972">
  <ele>1583.01</ele>
  <time>2026-08-28T17:53:16Z</time>
  <course>14.09</course>
  <speed>0.6453681120105021</speed>
  <fix>3d</fix>
</trkpt>
<trkpt lat="40.0714717" lon="-105.2297976">
  <ele>1583.0</ele>
  <time>2026-08-28T17:53:16Z</time>
  <course>11.36</course>
  <speed>0.94</speed>
  <fix>3d</fix>
</trkpt>
<trkpt lat="40.071474" lon="-105.229797">
  <ele>1583.01</ele>
  <time>2026-08-28T17:53:16Z</time>
  <course>14.94</course>
  <speed>0.5141984052872977</speed>
  <fix>3d</fix>
</trkpt>
<trkpt lat="40.0714732" lon="-105.2297973">
  <ele>1583.0</ele>
  <time>2026-08-28T17:53:16Z</time>
  <course>13.3</course>
  <speed>0.69</speed>
  <fix>3d</fix>
</trkpt>
<trkpt lat="40.0714743" lon="-105.2297969">
  <ele>1583.01</ele>
  <time>2026-08-28T17:53:16Z</time>
  <course>15.63</course>
  <speed>0.4026164427839479</speed>
  <fix>3d</fix>
</trkpt>
<trkpt lat="40.0714732" lon="-105.2297973">
  <ele>1583.0</ele>
  <time>2026-08-28T17:53:16Z</time>
  <course>13.3</course>
  <speed>0.69</speed>
  <fix>3d</fix>
</trkpt>
<trkpt lat="40.0714746" lon="-105.2297968">
  <ele>1583.01</ele>
  <time>2026-08-28T17:53:16Z</time>
  <course>16.16</course>
  <speed>0.28861739379323625</speed>
  <fix>3d</fix>
</trkpt>
<trkpt lat="40.0714742" lon="-105.2297969">
  <ele>1583.0</ele>
  <time>2026-08-28T17:53:16Z</time>
  <course>14.83</course>
  <speed>0.46</speed>
  <fix>3d</fix>
</trkpt>
<trkpt lat="40.0714748" lon="-105.2297967">
  <ele>1583.01</ele>
  <time>2026-08-28T17:53:16Z</time>
  <course>16.54</course>
  <speed>0.1772004514666935</speed>
  <fix>3d</fix>
</trkpt>
<trkpt lat="40.0714742" lon="-105.2297969">
  <ele>1583.0</ele>
  <time>2026-08-28T17:53:16Z</time>
  <course>14.83</course>
  <speed>0.46</speed>
  <fix>3d</fix>
</trkpt>
<trkpt lat="40.0714749" lon="-105.2297967">
  <ele>1583.01</ele>
  <time>2026-08-28T17:53:16Z</time>
  <course>16.77</course>
  <speed>0.07280109889280519</speed>
  <fix>3d</fix>
</trkpt>
<trkpt lat="40.0714748" lon="-105.2297967">
  <ele>1583.0</ele>
  <time>2026-08-28T17:53:16Z</time>
  <course>15.76</course>
  <speed>0.24</speed>
  <fix>3d</fix>
</trkpt>
<trkpt lat="40.071475" lon="-105.2297967">
  <ele>1583.0</ele>
  <time>2026-08-28T17:53:16Z</time>
  <course>16.88</course>
  <speed>0.0</speed>
  <fix>3d</fix>
</trkpt>
<trkpt lat="40.0714748" lon="-105.2297967">
  <ele>1583.0</ele>
  <time>2026-08-28T17:53:16Z</time>
  <course>15.76</course>
  <speed>0.24</speed>
  <fix>3d</fix>
</trkpt>
<trkpt lat="40.0714749" lon="-105.2297967">
  <ele>1583.0</ele>
  <time>2026-08-28T17:53:16Z</time>
  <course>16.87</course>
  <speed>0.0824621125123532</speed>
  <fix>3d</fix>
</trkpt>
<trkpt lat="40.071475" lon="-105.2297966">
  <ele>1583.0</ele>
  <time>2026-08-28T17:53:16Z</time>
  <course>16.19</course>
  <speed>0.05</speed>
  <fix>3d</fix>
</trkpt>
<trkpt lat="40.0714748" lon="-105.2297967">
  <ele>1583.0</ele>
  <time>2026-08-28T17:53:16Z</time>
  <course>16.94</course>
  <speed>0.14317821063276354</speed>
  <fix>3d</fix>
</trkpt>
<trkpt lat="40.071475" lon="-105.2297966">
  <ele>1583.0</ele>
  <time>2026-08-28T17:53:16Z</time>
  <course>16.19</course>
  <speed>0.05</speed>
  <fix>3d</fix>
</trkpt>
<trkpt lat="40.0714748" lon="-105.2297967">
  <ele>1583.0</ele>
  <time>2026-08-28T17:53:16Z</time>
  <course>17.07</course>
  <speed>0.196468827043885</speed>
  <fix>3d</fix>
</trkpt>
<trkpt lat="40.071475" lon="-105.2297966">
  <ele>1583.0</ele>
  <time>2026-08-28T17:53:16Z</time>
  <course>196.42</course>
  <speed>0.08</speed>
  <fix>3d</fix>
</trkpt>
<trkpt lat="40.0714746" lon="-105.2297967">
  <ele>1583.0</ele>
  <time>2026-08-28T17:53:16Z</time>
  <course>17.23</course>
  <speed>0.22803508501982758</speed>
  <fix>3d</fix>
</trkpt>
<trkpt lat="40.071475" lon="-105.2297966">
  <ele>1583.0</ele>
  <time>2026-08-28T17:53:16Z</time>
  <course>196.42</course>
  <speed>0.08</speed>
  <fix>3d</fix>
</trkpt>
<trkpt lat="40.0714744" lon="-105.2297968">
  <ele>1583.01</ele>
  <time>2026-08-28T17:53:16Z</time>
  <course>17.43</course>
  <speed>0.2570992026436488</speed>
  <fix>3d</fix>
</trkpt>
<trkpt lat="40.0714748" lon="-105.2297966">
  <ele>1583.0</ele>
  <time>2026-08-28T17:53:16Z</time>
  <course>196.68</course>
  <speed>0.16</speed>
  <fix>3d</fix>
</trkpt>
<trkpt lat="40.0714742" lon="-105.2297969">
  <ele>1583.01</ele>
  <time>2026-08-28T17:53:16Z</time>
  <course>17.55</course>
  <speed>0.27892651361962706</speed>
  <fix>3d</fix>
</trkpt>
<trkpt lat="40.0714748" lon="-105.2297966">
  <ele>1583.0</ele>
  <time>2026-08-28T17:53:16Z</time>
  <course>196.68</course>
  <speed>0.16</speed>
  <fix>3d</fix>
</trkpt>
<trkpt lat="40.071474" lon="-105.2297969">
  <ele>1583.01</ele>
  <time>2026-08-28T17:53:16Z</time>
  <course>17.57</course>
  <speed>0.29832867780352595</speed>
  <fix>3d</fix>
</trkpt>
<trkpt lat="40.0714744" lon="-105.2297967">
  <ele>1583.0</ele>
  <time>2026-08-28T17:53:16Z</time>
  <course>196.9</course>
  <speed>0.22</speed>
  <fix>3d</fix>
</trkpt>
<trkpt lat="40.0714737" lon="-105.229797">
  <ele>1583.01</ele>
  <time>2026-08-28T17:53:16Z</time>
  <course>17.59</course>
  <speed>0.32015621187164245</speed>
  <fix>3d</fix>
</trkpt>
<trkpt lat="40.0714744" lon="-105.2297967">
  <ele>1583.0</ele>
  <time>2026-08-28T17:53:16Z</time>
  <course>196.9</course>
  <speed>0.22</speed>
  <fix>3d</fix>
</trkpt>
<trkpt lat="40.0714734" lon="-105.2297971">
  <ele>1583.01</ele>
  <time>2026-08-28T17:53:16Z</time>
  <course>17.68</course>
  <speed>0.3298484500494128</speed>
  <fix>3d</fix>
</trkpt>
<trkpt lat="40.0714744" lon="-105.2297967">
  <ele>1583.0</ele>
  <time>2026-08-28T17:53:16Z</time>
  <course>196.9</course>
  <speed>0.22</speed>
  <fix>3d</fix>
</trkpt>
<trkpt lat="40.0714732" lon="-105.2297972">
  <ele>1583.0</ele>
  <time>2026-08-28T17:53:16Z</time>
  <course>17.89</course>
  <speed>0.3080584360149873</speed>
  <fix>3d</fix>
</trkpt>
<trkpt lat="40.0714741" lon="-105.2297969">
  <ele>1583.0</ele>
  <time>2026-08-28T17:53:16Z</time>
  <course>197.01</course>
  <speed>0.25</speed>
  <fix>3d</fix>
</trkpt>
<trkpt lat="40.071473" lon="-105.2297973">
  <ele>1583.0</ele>
  <time>2026-08-28T17:53:16Z</time>
  <course>18.18</course>
  <speed>0.2765863337187866</speed>
  <fix>3d</fix>
</trkpt>
<trkpt lat="40.0714741" lon="-105.2297969">
  <ele>1583.0</ele>
  <time>2026-08-28T17:53:16Z</time>
  <course>197.01</course>
  <speed>0.25</speed>
  <fix>3d</fix>
</trkpt>
<trkpt lat="40.0714728" lon="-105.2297973">
  <ele>1583.0</ele>
  <time>2026-08-28T17:53:16Z</time>
  <course>18.51</course>
  <speed>0.21377558326431947</speed>
  <fix>3d</fix>
</trkpt>
<trkpt lat="40.0714737" lon="-105.229797">
  <ele>1583.0</ele>
  <time>2026-08-28T17:53:16Z</time>
  <course>197.29</course>
  <speed>0.24</speed>
  <fix>3d</fix>
</trkpt>
<trkpt lat="40.0714727" lon="-105.2297973">
  <ele>1583.0</ele>
  <time>2026-08-28T17:53:16Z</time>
  <course>18.82</course>
  <speed>0.15132745950421556</speed>
  <fix>3d</fix>
</trkpt>
<trkpt lat="40.0714737" lon="-105.229797">
  <ele>1583.0</ele>
  <time>2026-08-28T17:53:16Z</time>
  <course>197.29</course>
  <speed>0.24</speed>
  <fix>3d</fix>
</trkpt>
<trkpt lat="40.0714726" lon="-105.2297973">
  <ele>1583.0</ele>
  <time>2026-08-28T17:53:16Z</time>
  <course>19.02</course>
  <speed>0.08</speed>
  <fix>3d</fix>
</trkpt>
<trkpt lat="40.0714733" lon="-105.2297972">
  <ele>1583.0</ele>
  <time>2026-08-28T17:53:16Z</time>
  <course>197.75</course>
  <speed>0.15</speed>
  <fix>3d</fix>
</trkpt>
<trkpt lat="40.0714726" lon="-105.2297973">
  <ele>1583.0</ele>
  <time>2026-08-28T17:53:16Z</time>
  <course>19.03</course>
  <speed>0.0282842712474619</speed>
  <fix>3d</fix>
</trkpt>
<trkpt lat="40.0714733" lon="-105.2297972">
  <ele>1583.0</ele>
  <time>2026-08-28T17:53:16Z</time>
  <course>197.75</course>
  <speed>0.15</speed>
  <fix>3d</fix>
</trkpt>
<trkpt lat="40.0714727" lon="-105.2297972">
  <ele>1583.0</ele>
  <time>2026-08-28T17:53:16Z</time>
  <course>19.18</course>
  <speed>0.05830951894845301</speed>
  <fix>3d</fix>
</trkpt>
<trkpt lat="40.0714731" lon="-105.2297973">
  <ele>1583.0</ele>
  <time>2026-08-28T17:53:16Z</time>
  <course>198.06</course>
  <speed>0.03</speed>
  <fix>3d</fix>
</trkpt>
<trkpt lat="40.0714728" lon="-105.2297972">
  <ele>1583.0</ele>
  <time>2026-08-28T17:53:16Z</time>
  <course>19.83</course>
  <speed>0.12206555615733702</speed>
  <fix>3d</fix>
</trkpt>
<trkpt lat="40.0714731" lon="-105.2297973">
  <ele>1583.0</ele>
  <time>2026-08-28T17:53:16Z</time>
  <course>19.07</course>
  <speed>0.09</speed>
  <fix>3d</fix>
</trkpt>
<trkpt lat="40.071473" lon="-105.2297972">
  <ele>1583.0</ele>
  <time>2026-08-28T17:53:16Z</time>
  <course>20.84</course>
  <speed>0.18867962264113206</speed>
  <fix>3d</fix>
</trkpt>
<trkpt lat="40.0714731" lon="-105.2297973">
  <ele>1583.0</ele>
  <time>2026-08-28T17:53:16Z</time>
  <course>19.07</course>
  <speed>0.09</speed>
  <fix>3d</fix>
</trkpt>
<trkpt lat="40.0714731" lon="-105.229797">
  <ele>1583.0</ele>
  <time>2026-08-28T17:53:16Z</time>
  <course>22.18</course>
  <speed>0.25553864678361277</speed>
  <fix>3d</fix>
</trkpt>
<trkpt lat="40.0714734" lon="-105.2297972">
  <ele>1583.0</ele>
  <time>2026-08-28T17:53:16Z</time>
  <course>20.71</course>
  <speed>0.22</speed>
  <fix>3d</fix>
</trkpt>
<trkpt lat="40.0714734" lon="-105.2297968">
  <ele>1583.0</ele>
  <time>2026-08-28T17:53:16Z</time>
  <course>23.81</course>
  <speed>0.327566787083184</speed>
  <fix>3d</fix>
</trkpt>
<trkpt lat="40.0714734" lon="-105.2297972">
  <ele>1583.0</ele>
  <time>2026-08-28T17:53:16Z</time>
  <course>20.71</course>
  <speed>0.22</speed>
  <fix>3d</fix>
</trkpt>
<trkpt lat="40.0714738" lon="-105.2297966">
  <ele>1583.0</ele>
  <time>2026-08-28T17:53:16Z</time>
  <course>25.74</course>
  <speed>0.3911521443121589</speed>
  <fix>3d</fix>
</trkpt>
<trkpt lat="40.0714739" lon="-105.2297969">
  <ele>1583.0</ele>
  <time>2026-08-28T17:53:16Z</time>
  <course>23.66</course>
  <speed>0.35</speed>
  <fix>3d</fix>
</trkpt>
<trkpt lat="40.0714742" lon="-105.2297963">
  <ele>1583.0</ele>
  <time>2026-08-28T17:53:16Z</time>
  <course>28.24</course>
  <speed>0.4687216658103186</speed>
  <fix>3d</fix>
</trkpt>
<trkpt lat="40.0714739" lon="-105.2297969">
  <ele>1583.0</ele>
  <time>2026-08-28T17:53:16Z</time>
  <course>23.66</course>
  <speed>0.35</speed>
  <fix>3d</fix>
</trkpt>
<trkpt lat="40.0714746" lon="-105.229796">
  <ele>1583.0</ele>
  <time>2026-08-28T17:53:16Z</time>
  <course>31.38</course>
  <speed>0.5440588203494178</speed>
  <fix>3d</fix>
</trkpt>
<trkpt lat="40.0714745" lon="-105.2297965">
  <ele>1583.0</ele>
  <time>2026-08-28T17:53:16Z</time>
  <course>28.31</course>
  <speed>0.48</speed>
  <fix>3d</fix>
</trkpt>
<trkpt lat="40.0714751" lon="-105.2297956">
  <ele>1583.01</ele>
  <time>2026-08-28T17:53:16Z</time>
  <course>35.12</course>
  <speed>0.6248199740725323</speed>
  <fix>3d</fix>
</trkpt>
<trkpt lat="40.0714745" lon="-105.2297965">
  <ele>1583.0</ele>
  <time>2026-08-28T17:53:16Z</time>
  <course>28.31</course>
  <speed>0.48</speed>
  <fix>3d</fix>
</trkpt>
<trkpt lat="40.0714756" lon="-105.2297951">
  <ele>1583.01</ele>
  <time>2026-08-28T17:53:16Z</time>
  <course>39.4</course>
  <speed>0.7072481884034769</speed>
  <fix>3d</fix>
</trkpt>
<trkpt lat="40.0714754" lon="-105.2297959">
  <ele>1583.0</ele>
  <time>2026-08-28T17:53:16Z</time>
  <course>35.22</course>
  <speed>0.63</speed>
  <fix>3d</fix>
</trkpt>
<trkpt lat="40.0714761" lon="-105.2297945">
  <ele>1583.01</ele>
  <time>2026-08-28T17:53:16Z</time>
  <course>44.2</course>
  <speed>0.7998124780221925</speed>
  <fix>3d</fix>
</trkpt>
<trkpt lat="40.0714754" lon="-105.2297959">
  <ele>1583.0</ele>
  <time>2026-08-28T17:53:16Z</time>
  <course>35.22</course>
  <speed>0.63</speed>
  <fix>3d</fix>
</trkpt>
<trkpt lat="40.0714766" lon="-105.2297937">
  <ele>1583.01</ele>
  <time>2026-08-28T17:53:16Z</time>
  <course>49.58</course>
  <speed>0.9060353193998566</speed>
  <fix>3d</fix>
</trkpt>
<trkpt lat="40.0714763" lon="-105.2297948">
  <ele>1583.0</ele>
  <time>2026-08-28T17:53:16Z</time>
  <course>44.4</course>
  <speed>0.79</speed>
  <fix>3d</fix>
</trkpt>
<trkpt lat="40.0714772" lon="-105.2297928">
  <ele>1583.01</ele>
  <time>2026-08-28T17:53:16Z</time>
  <course>55.1</course>
  <speed>1.0016985574512922</speed>
  <fix>3d</fix>
</trkpt>
<trkpt lat="40.0714763" lon="-105.2297948">
  <ele>1583.0</ele>
  <time>2026-08-28T17:53:16Z</time>
  <course>44.4</course>
  <speed>0.79</speed>
  <fix>3d</fix>
</trkpt>
<trkpt lat="40.0714777" lon="-105.2297917">
  <ele>1583.01</ele>
  <time>2026-08-28T17:53:16Z</time>
  <course>60.01</course>
  <speed>1.1047624178980746</speed>
  <fix>3d</fix>
</trkpt>
<trkpt lat="40.0714774" lon="-105.2297932">
  <ele>1583.0</ele>
  <time>2026-08-28T17:53:16Z</time>
  <course>54.66</course>
  <speed>0.98</speed>
  <fix>3d</fix>
</trkpt>
<trkpt lat="40.0714782" lon="-105.2297905">
  <ele>1583.01</ele>
  <time>2026-08-28T17:53:16Z</time>
  <course>64.2</course>
  <speed>1.2224974437601086</speed>
  <fix>3d</fix>
</trkpt>
<trkpt lat="40.0714774" lon="-105.2297932">
  <ele>1583.0</ele>
  <time>2026-08-28T17:53:16Z</time>
  <course>54.66</course>
  <speed>0.98</speed>
  <fix>3d</fix>
</trkpt>
<trkpt lat="40.0714787" lon="-105.2297891">
  <ele>1583.01</ele>
  <time>2026-08-28T17:53:16Z</time>
  <course>67.79</course>
  <speed>1.3319534526401438</speed>
  <fix>3d</fix>
</trkpt>
<trkpt lat="40.0714774" lon="-105.2297932">
  <ele>1583.0</ele>
  <time>2026-08-28T17:53:16Z</time>
  <course>54.66</course>
  <speed>0.98</speed>
  <fix>3d</fix>
</trkpt>
<trkpt lat="40.0714791" lon="-105.2297876">
  <ele>1583.0</ele>
  <time>2026-08-28T17:53:16Z</time>
  <course>70.87</course>
  <speed>1.4484474446799924</speed>
  <fix>3d</fix>
</trkpt>
<trkpt lat="40.0714783" lon="-105.229791">
  <ele>1583.0</ele>
  <time>2026-08-28T17:53:16Z</time>
  <course>63.6</course>
  <speed>1.19</speed>
  <fix>3d</fix>
</trkpt>
<trkpt lat="40.0714795" lon="-105.2297859">
  <ele>1583.0</ele>
  <time>2026-08-28T17:53:16Z</time>
  <course>73.53</course>
  <speed>1.5524174696260025</speed>
  <fix>3d</fix>
</trkpt>
<trkpt lat="40.0714783" lon="-105.229791">
  <ele>1583.0</ele>
  <time>2026-08-28T17:53:16Z</time>
  <course>63.6</course>
  <speed>1.19</speed>
  <fix>3d</fix>
</trkpt>
<trkpt lat="40.0714799" lon="-105.2297841">
  <ele>1583.0</ele>
  <time>2026-08-28T17:53:16Z</time>
  <course>75.87</course>
  <speed>1.661715980545412</speed>
  <fix>3d</fix>
</trkpt>
<trkpt lat="40.0714793" lon="-105.2297881">
  <ele>1583.0</ele>
  <time>2026-08-28T17:53:16Z</time>
  <course>70.24</course>
  <speed>1.41</speed>
  <fix>3d</fix>
</trkpt>
<trkpt lat="40.0714802" lon="-105.2297821">
  <ele>1583.0</ele>
  <time>2026-08-28T17:53:16Z</time>
  <course>77.86</course>
  <speed>1.7729072169744249</speed>
  <fix>3d</fix>
</trkpt>
<trkpt lat="40.0714793" lon="-105.2297881">
  <ele>1583.0</ele>
  <time>2026-08-28T17:53:16Z</time>
  <course>70.24</course>
  <speed>1.41</speed>
  <fix>3d</fix>
</trkpt>
<trkpt lat="40.0714806" lon="-105.22978">
  <ele>1583.0</ele>
  <time>2026-08-28T17:53:16Z</time>
  <course>79.55</course>
  <speed>1.8757931655702342</speed>
  <fix>3d</fix>
</trkpt>
<trkpt lat="40.0714801" lon="-105.2297847">
  <ele>1583.0</ele>
  <time>2026-08-28T17:53:16Z</time>
  <course>75.18</course>
  <speed>1.63</speed>
  <fix>3d</fix>
</trkpt>
<trkpt lat="40.0714809" lon="-105.2297778">
  <ele>1583.01</ele>
  <time>2026-08-28T17:53:16Z</time>
  <course>81.03</course>
  <speed>1.9798989873223332</speed>
  <fix>3d</fix>
</trkpt>
<trkpt lat="40.0714808" lon="-105.2297807">
  <ele>1583.0</ele>
  <time>2026-08-28T17:53:16Z</time>
  <course>78.87</course>
  <speed>1.84</speed>
  <fix>3d</fix>
</trkpt>
<trkpt lat="40.0714811" lon="-105.2297754">
  <ele>1583.01</ele>
  <time>2026-08-28T17:53:16Z</time>
  <course>82.27</course>
  <speed>2.0961870145576227</speed>
  <fix>3d</fix>
</trkpt>
<trkpt lat="40.0714808" lon="-105.2297807">
  <ele>1583.0</ele>
  <time>2026-08-28T17:53:16Z</time>
  <course>78.87</course>
  <speed>1.84</speed>
  <fix>3d</fix>
</trkpt>
<trkpt lat="40.0714814" lon="-105.2297729">
  <ele>1583.01</ele>
  <time>2026-08-28T17:53:16Z</time>
  <course>83.33</course>
  <speed>2.202044504545719</speed>
  <fix>3d</fix>
</trkpt>
<trkpt lat="40.0714813" lon="-105.2297763">
  <ele>1583.0</ele>
  <time>2026-08-28T17:53:16Z</time>
  <course>81.57</course>
  <speed>2.05</speed>
  <fix>3d</fix>
</trkpt>
<trkpt lat="40.0714816" lon="-105.2297703">
  <ele>1583.01</ele>
  <time>2026-08-28T17:53:16Z</time>
  <course>84.22</course>
  <speed>2.3095670589961226</speed>
  <fix>3d</fix>
</trkpt>
<trkpt lat="40.0714813" lon="-105.2297763">
  <ele>1583.0</ele>
  <time>2026-08-28T17:53:16Z</time>
  <course>81.57</course>
  <speed>2.05</speed>
  <fix>3d</fix>
</trkpt>
<trkpt lat="40.0714818" lon="-105.2297676">
  <ele>1583.01</ele>
  <time>2026-08-28T17:53:16Z</time>
  <course>84.98</course>
  <speed>2.4174780247191494</speed>
  <fix>3d</fix>
</trkpt>
<trkpt lat="40.0714818" lon="-105.2297712">
  <ele>1583.0</ele>
  <time>2026-08-28T17:53:16Z</time>
  <course>83.53</course>
  <speed>2.27</speed>
  <fix>3d</fix>
</trkpt>
<trkpt lat="40.071482" lon="-105.2297647">
  <ele>1583.0</ele>
  <time>2026-08-28T17:53:16Z</time>
  <course>85.65</course>
  <speed>2.525727617935077</speed>
  <fix>3d</fix>
</trkpt>
<trkpt lat="40.0714818" lon="-105.2297712">
  <ele>1583.0</ele>
  <time>2026-08-28T17:53:16Z</time>
  <course>83.53</course>
  <speed>2.27</speed>
  <fix>3d</fix>
</trkpt>
<trkpt lat="40.0714822" lon="-105.2297616">
  <ele>1583.0</ele>
  <time>2026-08-28T17:53:16Z</time>
  <course>86.24</course>
  <speed>2.6248809496813372</speed>
  <fix>3d</fix>
</trkpt>
<trkpt lat="40.0714823" lon="-105.2297656">
  <ele>1583.0</ele>
  <time>2026-08-28T17:53:16Z</time>
  <course>84.97</course>
  <speed>2.49</speed>
  <fix>3d</fix>
</trkpt>
<trkpt lat="40.0714824" lon="-105.2297584">
  <ele>1583.0</ele>
  <time>2026-08-28T17:53:16Z</time>
  <course>86.77</course>
  <speed>2.72360055808483</speed>
  <fix>3d</fix>
</trkpt>
<trkpt lat="40.0714823" lon="-105.2297656">
  <ele>1583.0</ele>
  <time>2026-08-28T17:53:16Z</time>
  <course>84.97</course>
  <speed>2.49</speed>
  <fix>3d</fix>
</trkpt>
<trkpt lat="40.0714825" lon="-105.2297552">
  <ele>1583.0</ele>
  <time>2026-08-28T17:53:16Z</time>
  <course>87.25</course>
  <speed>2.8025702488965374</speed>
  <fix>3d</fix>
</trkpt>
<trkpt lat="40.0714827" lon="-105.2297595">
  <ele>1583.0</ele>
  <time>2026-08-28T17:53:16Z</time>
  <course>86.1</course>
  <speed>2.68</speed>
  <fix>3d</fix>
</trkpt>
<trkpt lat="40.0714827" lon="-105.2297519">
  <ele>1583.0</ele>
  <time>2026-08-28T17:53:16Z</time>
  <course>87.68</course>
  <speed>2.872107240337658</speed>
  <fix>3d</fix>
</trkpt>
<trkpt lat="40.0714827" lon="-105.2297595">
  <ele>1583.0</ele>
  <time>2026-08-28T17:53:16Z</time>
  <course>86.1</course>
  <speed>2.68</speed>
  <fix>3d</fix>
</trkpt>
<trkpt lat="40.0714828" lon="-105.2297484">
  <ele>1583.0</ele>
  <time>2026-08-28T17:53:16Z</time>
  <course>88.07</course>
  <speed>2.931381926668717</speed>
  <fix>3d</fix>
</trkpt>
<trkpt lat="40.071483" lon="-105.2297531">
  <ele>1583.0</ele>
  <time>2026-08-28T17:53:16Z</time>
  <course>87.0</course>
  <speed>2.83</speed>
  <fix>3d</fix>
</trkpt>
<trkpt lat="40.0714829" lon="-105.229745">
  <ele>1583.0</ele>
  <time>2026-08-28T17:53:16Z</time>
  <course>88.43</course>
  <speed>2.971077245714086</speed>
  <fix>3d</fix>
</trkpt>
<trkpt lat="40.071483" lon="-105.2297531">
  <ele>1583.0</ele>
  <time>2026-08-28T17:53:16Z</time>
  <course>87.0</course>
  <speed>2.83</speed>
  <fix>3d</fix>
</trkpt>
<trkpt lat="40.071483" lon="-105.2297415">
  <ele>1583.0</ele>
  <time>2026-08-28T17:53:16Z</time>
  <course>88.78</course>
  <speed>3.000599940011997</speed>
  <fix>3d</fix>
</trkpt>
<trkpt lat="40.0714831" lon="-105.2297463">
  <ele>1583.0</ele>
  <time>2026-08-28T17:53:16Z</time>
  <course>87.77</course>
  <speed>2.93</speed>
  <fix>3d</fix>
</trkpt>
<trkpt lat="40.0714831" lon="-105.2297379">
  <ele>1583.0</ele>
  <time>2026-08-28T17:53:16Z</time>
  <course>89.1</course>
  <speed>3.0104152537482265</speed>
  <fix>3d</fix>
</trkpt>
<trkpt lat="40.0714831" lon="-105.2297463">
  <ele>1583.0</ele>
  <time>2026-08-28T17:53:16Z</time>
  <course>87.77</course>
  <speed>2.93</speed>
  <fix>3d</fix>
</trkpt>
<trkpt lat="40.0714832" lon="-105.2297344">
  <ele>1583.0</ele>
  <time>2026-08-28T17:53:16Z</time>
  <course>89.43</course>
  <speed>3.0101494979485652</speed>
  <fix>3d</fix>
</trkpt>
<trkpt lat="40.0714831" lon="-105.2297463">
  <ele>1583.0</ele>
  <time>2026-08-28T17:53:16Z</time>
  <course>87.77</course>
  <speed>2.93</speed>
  <fix>3d</fix>
</trkpt>
<trkpt lat="40.0714832" lon="-105.2297309">
  <ele>1583.0</ele>
  <time>2026-08-28T17:53:16Z</time>
  <course>89.74</course>
  <speed>2.990016722361265</speed>
  <fix>3d</fix>
</trkpt>
<trkpt lat="40.0714834" lon="-105.2297394">
  <ele>1583.0</ele>
  <time>2026-08-28T17:53:16Z</time>
  <course>88.45</course>
  <speed>2.96</speed>
  <fix>3d</fix>
</trkpt>
<trkpt lat="40.0714832" lon="-105.2297275">
  <ele>1583.0</ele>
  <time>2026-08-28T17:53:16Z</time>
  <course>90.06</course>
  <speed>2.95</speed>
  <fix>3d</fix>
</trkpt>
<trkpt lat="40.0714834" lon="-105.2297394">
  <ele>1583.0</ele>
  <time>2026-08-28T17:53:16Z</time>
  <course>88.45</course>
  <speed>2.96</speed>
  <fix>3d</fix>
</trkpt>
<trkpt lat="40.0714833" lon="-105.2297241">
  <ele>1583.0</ele>
  <time>2026-08-28T17:53:16Z</time>
  <course>90.37</course>
  <speed>2.9</speed>
  <fix>3d</fix>
</trkpt>
<trkpt lat="40.0714835" lon="-105.2297324">
  <ele>1583.0</ele>
  <time>2026-08-28T17:53:16Z</time>
  <course>89.09</course>
  <speed>2.94</speed>
  <fix>3d</fix>
</trkpt>
<trkpt lat="40.0714833" lon="-105.2297208">
  <ele>1583.0</ele>
  <time>2026-08-28T17:53:16Z</time>
  <course>90.71</course>
  <speed>2.830070670495703</speed>
  <fix>3d</fix>
</trkpt>
<trkpt lat="40.0714835" lon="-105.2297324">
  <ele>1583.0</ele>
  <time>2026-08-28T17:53:16Z</time>
  <course>89.09</course>
  <speed>2.94</speed>
  <fix>3d</fix>
</trkpt>
<trkpt lat="40.0714833" lon="-105.2297176">
  <ele>1582.99</ele>
  <time>2026-08-28T17:53:16Z</time>
  <course>91.05</course>
  <speed>2.750163631495406</speed>
  <fix>3d</fix>
</trkpt>
<trkpt lat="40.0714836" lon="-105.2297256">
  <ele>1583.0</ele>
  <time>2026-08-28T17:53:16Z</time>
  <course>89.73</course>
  <speed>2.86</speed>
  <fix>3d</fix>
</trkpt>
<trkpt lat="40.0714833" lon="-105.2297145">
  <ele>1582.99</ele>
  <time>2026-08-28T17:53:16Z</time>
  <course>91.43</course>
  <speed>2.6504716561397146</speed>
  <fix>3d</fix>
</trkpt>
<trkpt lat="40.0714836" lon="-105.2297256">
  <ele>1583.0</ele>
  <time>2026-08-28T17:53:16Z</time>
  <course>89.73</course>
  <speed>2.86</speed>
  <fix>3d</fix>
</trkpt>
<trkpt lat="40.0714833" lon="-105.2297115">
  <ele>1582.99</ele>
  <time>2026-08-28T17:53:16Z</time>
  <course>91.83</course>
  <speed>2.5407085625864294</speed>
  <fix>3d</fix>
</trkpt>
<trkpt lat="40.0714835" lon="-105.2297189">
  <ele>1583.0</ele>
  <time>2026-08-28T17:53:16Z</time>
  <course>90.42</course>
  <speed>2.72</speed>
  <fix>3d</fix>
</trkpt>
<trkpt lat="40.0714833" lon="-105.2297087">
  <ele>1582.99</ele>
  <time>2026-08-28T17:53:16Z</time>
  <course>92.26</course>
  <speed>2.421321952983535</speed>
  <fix>3d</fix>
</trkpt>
<trkpt lat="40.0714835" lon="-105.2297128">
  <ele>1583.0</ele>
  <time>2026-08-28T17:53:16Z</time>
  <course>91.19</course>
  <speed>2.52</speed>
  <fix>3d</fix>
</trkpt>
<trkpt lat="40.0714832" lon="-105.229706">
  <ele>1582.99</ele>
  <time>2026-08-28T17:53:16Z</time>
  <course>92.71</course>
  <speed>2.2917678765529463</speed>
  <fix>3d</fix>
</trkpt>
<trkpt lat="40.0714835" lon="-105.2297128">
  <ele>1583.0</ele>
  <time>2026-08-28T17:53:16Z</time>
  <course>91.19</course>
  <speed>2.52</speed>
  <fix>3d</fix>
</trkpt>
<trkpt lat="40.0714832" lon="-105.2297034">
  <ele>1582.99</ele>
  <time>2026-08-28T17:53:16Z</time>
  <course>93.19</course>
  <speed>2.1623135757794243</speed>
  <fix>3d</fix>
</trkpt>
<trkpt lat="40.0714834" lon="-105.2297071">
  <ele>1583.0</ele>
  <time>2026-08-28T17:53:16Z</time>
  <course>92.06</course>
  <speed>2.28</speed>
  <fix>3d</fix>
</trkpt>
<trkpt lat="40.0714831" lon="-105.229701">
  <ele>1583.0</ele>
  <time>2026-08-28T17:53:16Z</time>
  <course>93.7</course>
  <speed>2.022992832414391</speed>
  <fix>3d</fix>
</trkpt>
<trkpt lat="40.0714834" lon="-105.2297071">
  <ele>1583.0</ele>
  <time>2026-08-28T17:53:16Z</time>
  <course>92.06</course>
  <speed>2.28</speed>
  <fix>3d</fix>
</trkpt>
<trkpt lat="40.071483" lon="-105.2296988">
  <ele>1583.0</ele>
  <time>2026-08-28T17:53:16Z</time>
  <course>94.27</course>
  <speed>1.873846311734236</speed>
  <fix>3d</fix>
</trkpt>
<trkpt lat="40.0714833" lon="-105.2297021">
  <ele>1583.0</ele>
  <time>2026-08-28T17:53:16Z</time>
  <course>93.06</course>
  <speed>2.02</speed>
  <fix>3d</fix>
</trkpt>
<trkpt lat="40.0714829" lon="-105.2296967">
  <ele>1583.0</ele>
  <time>2026-08-28T17:53:16Z</time>
  <course>94.91</course>
  <speed>1.7249057945290809</speed>
  <fix>3d</fix>
</trkpt>
<trkpt lat="40.0714833" lon="-105.2297021">
  <ele>1583.0</ele>
  <time>2026-08-28T17:53:16Z</time>
  <course>93.06</course>
  <speed>2.02</speed>
  <fix>3d</fix>
</trkpt>
<trkpt lat="40.0714828" lon="-105.2296948">
  <ele>1583.01</ele>
  <time>2026-08-28T17:53:16Z</time>
  <course>95.62</course>
  <speed>1.5753729717117784</speed>
  <fix>3d</fix>
</trkpt>
<trkpt lat="40.071483" lon="-105.2296977">
  <ele>1583.0</ele>
  <time>2026-08-28T17:53:16Z</time>
  <course>94.26</course>
  <speed>1.73</speed>
  <fix>3d</fix>
</trkpt>
<trkpt lat="40.0714827" lon="-105.2296931">
  <ele>1583.01</ele>
  <time>2026-08-28T17:53:16Z</time>
  <course>96.42</course>
  <speed>1.4268847185389575</speed>
  <fix>3d</fix>
</trkpt>
<trkpt lat="40.071483" lon="-105.2296977">
  <ele>1583.0</ele>
  <time>2026-08-28T17:53:16Z</time>
  <course>94.26</course>
  <speed>1.73</speed>
  <fix>3d</fix>
</trkpt>
<trkpt lat="40.0714826" lon="-105.2296915">
  <ele>1583.01</ele>
  <time>2026-08-28T17:53:16Z</time>
  <course>97.35</course>
  <speed>1.2776932339180638</speed>
  <fix>3d</fix>
</trkpt>
<trkpt lat="40.0714828" lon="-105.229694">
  <ele>1583.0</ele>
  <time>2026-08-28T17:53:16Z</time>
  <course>95.76</course>
  <speed>1.44</speed>
  <fix>3d</fix>
</trkpt>
<trkpt lat="40.0714824" lon="-105.2296901">
  <ele>1583.01</ele>
  <time>2026-08-28T17:53:16Z</time>
  <course>98.44</course>
  <speed>1.13</speed>
  <fix>3d</fix>
</trkpt>
<trkpt lat="40.0714828" lon="-105.229694">
  <ele>1583.0</ele>
  <time>2026-08-28T17:53:16Z</time>
  <course>95.76</course>
  <speed>1.44</speed>
  <fix>3d</fix>
</trkpt>
<trkpt lat="40.0714823" lon="-105.2296889">
  <ele>1583.01</ele>
  <time>2026-08-28T17:53:16Z</time>
  <course>99.64</course>
  <speed>0.9914131328563285</speed>
  <fix>3d</fix>
</trkpt>
<trkpt lat="40.0714825" lon="-105.2296909">
  <ele>1583.0</ele>
  <time>2026-08-28T17:53:16Z</time>
  <course>97.72</course>
  <speed>1.16</speed>
  <fix>3d</fix>
</trkpt>
<trkpt lat="40.0714822" lon="-105.2296879">
  <ele>1583.01</ele>
  <time>2026-08-28T17:53:16Z</time>
  <course>100.87</course>
  <speed>0.8417244204607586</speed>
  <fix>3d</fix>
</trkpt>
<trkpt lat="40.0714825" lon="-105.2296909">
  <ele>1583.0</ele>
  <time>2026-08-28T17:53:16Z</time>
  <course>97.72</course>
  <speed>1.16</speed>
  <fix>3d</fix>
</trkpt>
<trkpt lat="40.071482" lon="-105.2296871">
  <ele>1583.01</ele>
  <time>2026-08-28T17:53:16Z</time>
  <course>102.04</course>
  <speed>0.7021395872616784</speed>
  <fix>3d</fix>
</trkpt>
<trkpt lat="40.0714822" lon="-105.2296886">
  <ele>1583.0</ele>
  <time>2026-08-28T17:53:16Z</time>
  <course>100.02</course>
  <speed>0.88</speed>
  <fix>3d</fix>
</trkpt>
<trkpt lat="40.0714819" lon="-105.2296864">
  <ele>1583.01</ele>
  <time>2026-08-28T17:53:16Z</time>
  <course>103.11</course>
  <speed>0.5727128425310541</speed>
  <fix>3d</fix>
</trkpt>
<trkpt lat="40.0714822" lon="-105.2296886">
  <ele>1583.0</ele>
  <time>2026-08-28T17:53:16Z</time>
  <course>100.02</course>
  <speed>0.88</speed>
  <fix>3d</fix>
</trkpt>
<trkpt lat="40.0714818" lon="-105.2296858">
  <ele>1583.01</ele>
  <time>2026-08-28T17:53:16Z</time>
  <course>103.99</course>
  <speed>0.44147480109288234</speed>
  <fix>3d</fix>
</trkpt>
<trkpt lat="40.0714822" lon="-105.2296886">
  <ele>1583.0</ele>
  <time>2026-08-28T17:53:16Z</time>
  <course>100.02</course>
  <speed>0.88</speed>
  <fix>3d</fix>
</trkpt>
<trkpt lat="40.0714818" lon="-105.2296854">
  <ele>1583.01</ele>
  <time>2026-08-28T17:53:16Z</time>
  <course>104.66</course>
  <speed>0.3080584360149873</speed>
  <fix>3d</fix>
</trkpt>
<trkpt lat="40.0714819" lon="-105.2296868">
  <ele>1583.0</ele>
  <time>2026-08-28T17:53:16Z</time>
  <course>102.17</course>
  <speed>0.61</speed>
  <fix>3d</fix>
</trkpt>
<trkpt lat="40.0714817" lon="-105.2296851">
  <ele>1583.0</ele>
  <time>2026-08-28T17:53:16Z</time>
  <course>105.14</course>
  <speed>0.18439088914585774</speed>
  <fix>3d</fix>
</trkpt>
<trkpt lat="40.0714819" lon="-105.2296868">
  <ele>1583.0</ele>
  <time>2026-08-28T17:53:16Z</time>
  <course>102.17</course>
  <speed>0.61</speed>
  <fix>3d</fix>
</trkpt>
<trkpt lat="40.0714817" lon="-105.229685">
  <ele>1583.0</ele>
  <time>2026-08-28T17:53:17Z</time>
  <course>105.43</course>
  <speed>0.07280109889280519</speed>
  <fix>3d</fix>
</trkpt>
<trkpt lat="40.0714818" lon="-105.2296858">
  <ele>1583.0</ele>
  <time>2026-08-28T17:53:17Z</time>
  <course>103.73</course>
  <speed>0.36</speed>
  <fix>3d</fix>
</trkpt>
<trkpt lat="40.0714817" lon="-105.229685">
  <ele>1583.0</ele>
  <time>2026-08-28T17:53:17Z</time>
  <course>105.53</course>
  <speed>0.01</speed>
  <fix>3d</fix>
</trkpt>
<trkpt lat="40.0714818" lon="-105.2296858">
  <ele>1583.0</ele>
  <time>2026-08-28T17:53:17Z</time>
  <course>103.73</course>
  <speed>0.36</speed>
  <fix>3d</fix>
</trkpt>
<trkpt lat="40.0714817" lon="-105.2296851">
  <ele>1583.0</ele>
  <time>2026-08-28T17:53:17Z</time>
  <course>105.54</course>
  <speed>0.1019803902718557</speed>
  <fix>3d</fix>
</trkpt>
<trkpt lat="40.0714817" lon="-105.2296852">
  <ele>1583.0</ele>
  <time>2026-08-28T17:53:17Z</time>
  <course>104.55</course>
  <speed>0.13</speed>
  <fix>3d</fix>
</trkpt>
<trkpt lat="40.0714817" lon="-105.2296853">
  <ele>1583.0</ele>
  <time>2026-08-28T17:53:17Z</time>
  <course>105.66</course>
  <speed>0.17464249196572978</speed>
  <fix>3d</fix>
</trkpt>
<trkpt lat="40.0714817" lon="-105.2296851">
  <ele>1583.0</ele>
  <time>2026-08-28T17:53:17Z</time>
  <course>285.01</course>
  <speed>0.04</speed>
  <fix>3d</fix>
</trkpt>
<trkpt lat="40.0714818" lon="-105.2296855">
  <ele>1583.0</ele>
  <time>2026-08-28T17:53:17Z</time>
  <course>105.86</course>
  <speed>0.22561028345356957</speed>
  <fix>3d</fix>
</trkpt>
<trkpt lat="40.0714817" lon="-105.2296851">
  <ele>1583.0</ele>
  <time>2026-08-28T17:53:17Z</time>
  <course>285.01</course>
  <speed>0.04</speed>
  <fix>3d</fix>
</trkpt>
<trkpt lat="40.0714818" lon="-105.2296858">
  <ele>1583.0</ele>
  <time>2026-08-28T17:53:17Z</time>
  <course>106.11</course>
  <speed>0.2668332812825267</speed>
  <fix>3d</fix>
</trkpt>
<trkpt lat="40.0714817" lon="-105.2296853">
  <ele>1583.0</ele>
  <time>2026-08-28T17:53:17Z</time>
  <course>285.27</course>
  <speed>0.16</speed>
  <fix>3d</fix>
</trkpt>
<trkpt lat="40.0714819" lon="-105.2296861">
  <ele>1583.0</ele>
  <time>2026-08-28T17:53:17Z</time>
  <course>106.38</course>
  <speed>0.29832867780352595</speed>
  <fix>3d</fix>
</trkpt>
<trkpt lat="40.0714817" lon="-105.2296853">
  <ele>1583.0</ele>
  <time>2026-08-28T17:53:17Z</time>
  <course>285.27</course>
  <speed>0.16</speed>
  <fix>3d</fix>
</trkpt>
<trkpt lat="40.0714819" lon="-105.2296863">
  <ele>1583.0</ele>
  <time>2026-08-28T17:53:17Z</time>
  <course>106.55</course>
  <speed>0.3178049716414141</speed>
  <fix>3d</fix>
</trkpt>
<trkpt lat="40.0714818" lon="-105.2296858">
  <ele>1583.0</ele>
  <time>2026-08-28T17:53:17Z</time>
  <course>285.67</course>
  <speed>0.23</speed>
  <fix>3d</fix>
</trkpt>
<trkpt lat="40.0714819" lon="-105.2296867">
  <ele>1583.0</ele>
  <time>2026-08-28T17:53:17Z</time>
  <course>106.57</course>
  <speed>0.33955853692699295</speed>
  <fix>3d</fix>
</trkpt>
<trkpt lat="40.0714818" lon="-105.2296858">
  <ele>1583.0</ele>
  <time>2026-08-28T17:53:17Z</time>
  <course>285.67</course>
  <speed>0.23</speed>
  <fix>3d</fix>
</trkpt>
<trkpt lat="40.071482" lon="-105.2296871">
  <ele>1583.01</ele>
  <time>2026-08-28T17:53:17Z</time>
  <course>106.6</course>
  <speed>0.3590264614203248</speed>
  <fix>3d</fix>
</trkpt>
<trkpt lat="40.0714819" lon="-105.2296863">
  <ele>1583.0</ele>
  <time>2026-08-28T17:53:17Z</time>
  <course>285.89</course>
  <speed>0.28</speed>
  <fix>3d</fix>
</trkpt>
<trkpt lat="40.0714821" lon="-105.2296875">
  <ele>1583.01</ele>
  <time>2026-08-28T17:53:17Z</time>
  <course>106.74</course>
  <speed>0.3590264614203248</speed>
  <fix>3d</fix>
</trkpt>
<trkpt lat="40.0714819" lon="-105.2296863">
  <ele>1583.0</ele>
  <time>2026-08-28T17:53:17Z</time>
  <course>285.89</course>
  <speed>0.28</speed>
  <fix>3d</fix>
</trkpt>
<trkpt lat="40.0714822" lon="-105.2296878">
  <ele>1583.01</ele>
  <time>2026-08-28T17:53:17Z</time>
  <course>107.02</course>
  <speed>0.33955853692699295</speed>
  <fix>3d</fix>
</trkpt>
<trkpt lat="40.071482" lon="-105.229687">
  <ele>1583.0</ele>
  <time>2026-08-28T17:53:17Z</time>
  <course>286.11</course>
  <speed>0.29</speed>
  <fix>3d</fix>
</trkpt>
<trkpt lat="40.0714822" lon="-105.2296881">
  <ele>1583.01</ele>
  <time>2026-08-28T17:53:17Z</time>
  <course>107.39</course>
  <speed>0.29614185789921693</speed>
  <fix>3d</fix>
</trkpt>
<trkpt lat="40.071482" lon="-105.229687">
  <ele>1583.0</ele>
  <time>2026-08-28T17:53:17Z</time>
  <course>286.11</course>
  <speed>0.29</speed>
  <fix>3d</fix>
</trkpt>
<trkpt lat="40.0714823" lon="-105.2296884">
  <ele>1583.01</ele>
  <time>2026-08-28T17:53:17Z</time>
  <course>107.82</course>
  <speed>0.223606797749979</speed>
  <fix>3d</fix>
</trkpt>
<trkpt lat="40.0714821" lon="-105.2296876">
  <ele>1583.0</ele>
  <time>2026-08-28T17:53:17Z</time>
  <course>286.62</course>
  <speed>0.23</speed>
  <fix>3d</fix>
</trkpt>
<trkpt lat="40.0714823" lon="-105.2296886">
  <ele>1583.01</ele>
  <time>2026-08-28T17:53:17Z</time>
  <course>108.19</course>
  <speed>0.15132745950421556</speed>
  <fix>3d</fix>
</trkpt>
<trkpt lat="40.0714821" lon="-105.2296876">
  <ele>1583.0</ele>
  <time>2026-08-28T17:53:17Z</time>
  <course>286.62</course>
  <speed>0.23</speed>
  <fix>3d</fix>
</trkpt>
<trkpt lat="40.0714823" lon="-105.2296887">
  <ele>1583.01</ele>
  <time>2026-08-28T17:53:17Z</time>
  <course>108.42</course>
  <speed>0.08</speed>
  <fix>3d</fix>
</trkpt>
<trkpt lat="40.0714822" lon="-105.229688">
  <ele>1583.0</ele>
  <time>2026-08-28T17:53:17Z</time>
  <course>287.19</course>
  <speed>0.1</speed>
  <fix>3d</fix>
</trkpt>
<trkpt lat="40.0714823" lon="-105.2296886">
  <ele>1583.01</ele>
  <time>2026-08-28T17:53:17Z</time>
  <course>108.39</course>
  <speed>0.0316227766016838</speed>
  <fix>3d</fix>
</trkpt>
<trkpt lat="40.0714822" lon="-105.229688">
  <ele>1583.0</ele>
  <time>2026-08-28T17:53:17Z</time>
  <course>287.19</course>
  <speed>0.1</speed>
  <fix>3d</fix>
</trkpt>
<trkpt lat="40.0714822" lon="-105.2296885">
  <ele>1583.01</ele>
  <time>2026-08-28T17:53:17Z</time>
  <course>108.7</course>
  <speed>0.07071067811865475</speed>
  <fix>3d</fix>
</trkpt>
<trkpt lat="40.0714822" lon="-105.229688">
  <ele>1583.0</ele>
  <time>2026-08-28T17:53:17Z</time>
  <course>287.19</course>
  <speed>0.1</speed>
  <fix>3d</fix>
</trkpt>
<trkpt lat="40.0714822" lon="-105.2296884">
  <ele>1583.01</ele>
  <time>2026-08-28T17:53:17Z</time>
  <course>109.55</course>
  <speed>0.15264337522473748</speed>
  <fix>3d</fix>
</trkpt>
<trkpt lat="40.0714823" lon="-105.229688">
  <ele>1583.0</ele>
  <time>2026-08-28T17:53:17Z</time>
  <course>108.13</course>
  <speed>0.04</speed>
  <fix>3d</fix>
</trkpt>
<trkpt lat="40.0714821" lon="-105.2296882">
  <ele>1583.01</ele>
  <time>2026-08-28T17:53:17Z</time>
  <course>110.82</course>
  <speed>0.2195449840010015</speed>
  <fix>3d</fix>
</trkpt>
<trkpt lat="40.0714823" lon="-105.229688">
  <ele>1583.0</ele>
  <time>2026-08-28T17:53:17Z</time>
  <course>108.13</course>
  <speed>0.04</speed>
  <fix>3d</fix>
</trkpt>
<trkpt lat="40.071482" lon="-105.2296878">
  <ele>1583.01</ele>
  <time>2026-08-28T17:53:17Z</time>
  <course>112.5</course>
  <speed>0.30016662039607267</speed>
  <fix>3d</fix>
</trkpt>
<trkpt lat="40.0714822" lon="-105.2296878">
  <ele>1583.0</ele>
  <time>2026-08-28T17:53:17Z</time>
  <course>109.47</course>
  <speed>0.19</speed>
  <fix>3d</fix>
</trkpt>
<trkpt lat="40.0714819" lon="-105.2296874">
  <ele>1583.01</ele>
  <time>2026-08-28T17:53:17Z</time>
  <course>114.5</course>
  <speed>0.3721558813185679</speed>
  <fix>3d</fix>
</trkpt>
<trkpt lat="40.0714822" lon="-105.2296878">
  <ele>1583.0</ele>
  <time>2026-08-28T17:53:17Z</time>
  <course>109.47</course>
  <speed>0.19</speed>
  <fix>3d</fix>
</trkpt>
<trkpt lat="40.0714817" lon="-105.2296869">
  <ele>1583.0</ele>
  <time>2026-08-28T17:53:17Z</time>
  <course>116.83</course>
  <speed>0.44944410108488464</speed>
  <fix>3d</fix>
</trkpt>
<trkpt lat="40.0714821" lon="-105.2296873">
  <ele>1583.0</ele>
  <time>2026-08-28T17:53:17Z</time>
  <course>112.36</course>
  <speed>0.33</speed>
  <fix>3d</fix>
</trkpt>
<trkpt lat="40.0714814" lon="-105.2296864">
  <ele>1583.0</ele>
  <time>2026-08-28T17:53:17Z</time>
  <course>119.81</course>
  <speed>0.5243090691567331</speed>
  <fix>3d</fix>
</trkpt>
<trkpt lat="40.0714818" lon="-105.2296863">
  <ele>1583.0</ele>
  <time>2026-08-28T17:53:17Z</time>
  <course>116.84</course>
  <speed>0.48</speed>
  <fix>3d</fix>
</trkpt>
<trkpt lat="40.0714811" lon="-105.2296857">
  <ele>1583.0</ele>
  <time>2026-08-28T17:53:17Z</time>
  <course>123.41</course>
  <speed>0.6122091146005587</speed>
  <fix>3d</fix>
</trkpt>
<trkpt lat="40.0714818" lon="-105.2296863">
  <ele>1583.0</ele>
  <time>2026-08-28T17:53:17Z</time>
  <course>116.84</course>
  <speed>0.48</speed>
  <fix>3d</fix>
</trkpt>
<trkpt lat="40.0714808" lon="-105.2296851">
  <ele>1582.99</ele>
  <time>2026-08-28T17:53:17Z</time>
  <course>127.63</course>
  <speed>0.6942621983083913</speed>
  <fix>3d</fix>
</trkpt>
<trkpt lat="40.0714813" lon="-105.2296853">
  <ele>1583.0</ele>
  <time>2026-08-28T17:53:17Z</time>
  <course>123.47</course>
  <speed>0.62</speed>
  <fix>3d</fix>
</trkpt>
<trkpt lat="40.0714803" lon="-105.2296844">
  <ele>1582.99</ele>
  <time>2026-08-28T17:53:17Z</time>
  <course>132.33</course>
  <speed>0.777946013551069</speed>
  <fix>3d</fix>
</trkpt>
<trkpt lat="40.0714813" lon="-105.2296853">
  <ele>1583.0</ele>
  <time>2026-08-28T17:53:17Z</time>
  <course>123.47</course>
  <speed>0.62</speed>
  <fix>3d</fix>
</trkpt>
<trkpt lat="40.0714798" lon="-105.2296837">
  <ele>1582.99</ele>
  <time>2026-08-28T17:53:17Z</time>
  <course>137.62</course>
  <speed>0.8745856161634491</speed>
  <fix>3d</fix>
</trkpt>
<trkpt lat="40.0714805" lon="-105.2296839">
  <ele>1583.0</ele>
  <time>2026-08-28T17:53:17Z</time>
  <course>132.46</course>
  <speed>0.78</speed>
  <fix>3d</fix>
</trkpt>
<trkpt lat="40.0714791" lon="-105.2296829">
  <ele>1582.99</ele>
  <time>2026-08-28T17:53:17Z</time>
  <course>143.35</course>
  <speed>0.973498844375277</speed>
  <fix>3d</fix>
</trkpt>
<trkpt lat="40.0714805" lon="-105.2296839">
  <ele>1583.0</ele>
  <time>2026-08-28T17:53:17Z</time>
  <course>132.46</course>
  <speed>0.78</speed>
  <fix>3d</fix>
</trkpt>
<trkpt lat="40.0714783" lon="-105.2296823">
  <ele>1582.99</ele>
  <time>2026-08-28T17:53:17Z</time>
  <course>148.8</course>
  <speed>1.0782393055347221</speed>
  <fix>3d</fix>
</trkpt>
<trkpt lat="40.0714794" lon="-105.2296825">
  <ele>1583.0</ele>
  <time>2026-08-28T17:53:17Z</time>
  <course>143.07</course>
  <speed>0.96</speed>
  <fix>3d</fix>
</trkpt>
<trkpt lat="40.0714774" lon="-105.2296816">
  <ele>1582.99</ele>
  <time>2026-08-28T17:53:17Z</time>
  <course>153.44</course>
  <speed>1.1818629362155326</speed>
  <fix>3d</fix>
</trkpt>
<trkpt lat="40.0714794" lon="-105.2296825">
  <ele>1583.0</ele>
  <time>2026-08-28T17:53:17Z</time>
  <course>143.07</course>
  <speed>0.96</speed>
  <fix>3d</fix>
</trkpt>
<trkpt lat="40.0714764" lon="-105.229681">
  <ele>1582.99</ele>
  <time>2026-08-28T17:53:17Z</time>
  <course>157.46</course>
  <speed>1.2909686285886268</speed>
  <fix>3d</fix>
</trkpt>
<trkpt lat="40.0714777" lon="-105.2296812">
  <ele>1583.0</ele>
  <time>2026-08-28T17:53:17Z</time>
  <course>152.81</course>
  <speed>1.16</speed>
  <fix>3d</fix>
</trkpt>
<trkpt lat="40.0714752" lon="-105.2296804">
  <ele>1582.99</ele>
  <time>2026-08-28T17:53:17Z</time>
  <course>160.88</course>
  <speed>1.4042791745233567</speed>
  <fix>3d</fix>
</trkpt>
<trkpt lat="40.0714777" lon="-105.2296812">
  <ele>1583.0</ele>
  <time>2026-08-28T17:53:17Z</time>
  <course>152.81</course>
  <speed>1.16</speed>
  <fix>3d</fix>
</trkpt>
<trkpt lat="40.0714739" lon="-105.2296799">
  <ele>1582.99</ele>
  <time>2026-08-28T17:53:17Z</time>
  <course>163.81</course>
  <speed>1.5183214415926556</speed>
  <fix>3d</fix>
</trkpt>
<trkpt lat="40.0714756" lon="-105.2296801">
  <ele>1583.0</ele>
  <time>2026-08-28T17:53:17Z</time>
  <course>160.16</course>
  <speed>1.37</speed>
  <fix>3d</fix>
</trkpt>
<trkpt lat="40.0714726" lon="-105.2296794">
  <ele>1582.99</ele>
  <time>2026-08-28T17:53:17Z</time>
  <course>166.4</course>
  <speed>1.616168308066954</speed>
  <fix>3d</fix>
</trkpt>
<trkpt lat="40.0714756" lon="-105.2296801">
  <ele>1583.0</ele>
  <time>2026-08-28T17:53:17Z</time>
  <course>160.16</course>
  <speed>1.37</speed>
  <fix>3d</fix>
</trkpt>
<trkpt lat="40.0714711" lon="-105.229679">
  <ele>1582.99</ele>
  <time>2026-08-28T17:53:17Z</time>
  <course>168.65</course>
  <speed>1.7262676501632068</speed>
  <fix>3d</fix>
</trkpt>
<trkpt lat="40.0714731" lon="-105.2296791">
  <ele>1583.0</ele>
  <time>2026-08-28T17:53:17Z</time>
  <course>165.65</course>
  <speed>1.58</speed>
  <fix>3d</fix>
</trkpt>
<trkpt lat="40.0714695" lon="-105.2296786">
  <ele>1582.99</ele>
  <time>2026-08-28T17:53:17Z</time>
  <course>170.55</course>
  <speed>1.8186808406094785</speed>
  <fix>3d</fix>
</trkpt>
<trkpt lat="40.0714731" lon="-105.2296791">
  <ele>1583.0</ele>
  <time>2026-08-28T17:53:17Z</time>
  <course>165.65</course>
  <speed>1.58</speed>
  <fix>3d</fix>
</trkpt>
<trkpt lat="40.0714678" lon="-105.2296782">
  <ele>1582.99</ele>
  <time>2026-08-28T17:53:17Z</time>
  <course>172.18</course>
  <speed>1.9237983262286096</speed>
  <fix>3d</fix>
</trkpt>
<trkpt lat="40.0714731" lon="-105.2296791">
  <ele>1583.0</ele>
  <time>2026-08-28T17:53:17Z</time>
  <course>165.65</course>
  <speed>1.58</speed>
  <fix>3d</fix>
</trkpt>
<trkpt lat="40.0714661" lon="-105.2296779">
  <ele>1582.99</ele>
  <time>2026-08-28T17:53:17Z</time>
  <course>173.58</course>
  <speed>2.0298768435548005</speed>
  <fix>3d</fix>
</trkpt>
<trkpt lat="40.0714701" lon="-105.2296782">
  <ele>1583.0</ele>
  <time>2026-08-28T17:53:17Z</time>
  <course>169.79</course>
  <speed>1.78</speed>
  <fix>3d</fix>
</trkpt>
<trkpt lat="40.0714642" lon="-105.2296777">
  <ele>1582.99</ele>
  <time>2026-08-28T17:53:17Z</time>
  <course>174.77</course>
  <speed>2.1367732682715777</speed>
  <fix>3d</fix>
</trkpt>
<trkpt lat="40.0714701" lon="-105.2296782">
  <ele>1583.0</ele>
  <time>2026-08-28T17:53:17Z</time>
  <course>169.79</course>
  <speed>1.78</speed>
  <fix>3d</fix>
</trkpt>
<trkpt lat="40.0714623" lon="-105.2296774">
  <ele>1582.99</ele>
  <time>2026-08-28T17:53:17Z</time>
  <course>175.8</course>
  <speed>2.234390297150433</speed>
  <fix>3d</fix>
</trkpt>
<trkpt lat="40.0714667" lon="-105.2296776">
  <ele>1583.0</ele>
  <time>2026-08-28T17:53:17Z</time>
  <course>172.82</course>
  <speed>1.99</speed>
  <fix>3d</fix>
</trkpt>
<trkpt lat="40.0714603" lon="-105.2296772">
  <ele>1582.99</ele>
  <time>2026-08-28T17:53:17Z</time>
  <course>176.68</course>
  <speed>2.3425840433162692</speed>
  <fix>3d</fix>
</trkpt>
<trkpt lat="40.0714667" lon="-105.2296776">
  <ele>1583.0</ele>
  <time>2026-08-28T17:53:17Z</time>
  <course>172.82</course>
  <speed>1.99</speed>
  <fix>3d</fix>
</trkpt>
<trkpt lat="40.0714582" lon="-105.2296771">
  <ele>1582.99</ele>
  <time>2026-08-28T17:53:17Z</time>
  <course>177.43</course>
  <speed>2.4416592718886885</speed>
  <fix>3d</fix>
</trkpt>
<trkpt lat="40.071463" lon="-105.2296771">
  <ele>1583.0</ele>
  <time>2026-08-28T17:53:17Z</time>
  <course>175.05</course>
  <speed>2.2</speed>
  <fix>3d</fix>
</trkpt>
<trkpt lat="40.0714559" lon="-105.2296769">
  <ele>1582.99</ele>
  <time>2026-08-28T17:53:17Z</time>
  <course>178.08</course>
  <speed>2.550960603380617</speed>
  <fix>3d</fix>
</trkpt>
<trkpt lat="40.071463" lon="-105.2296771">
  <ele>1583.0</ele>
  <time>2026-08-28T17:53:17Z</time>
  <course>175.05</course>
  <speed>2.2</speed>
  <fix>3d</fix>
</trkpt>
<trkpt lat="40.0714536" lon="-105.2296768">
  <ele>1582.99</ele>
  <time>2026-08-28T17:53:17Z</time>
  <course>178.63</course>
  <speed>2.6604698833100895</speed>
  <fix>3d</fix>
</trkpt>
<trkpt lat="40.0714588" lon="-105.2296767">
  <ele>1583.0</ele>
  <time>2026-08-28T17:53:17Z</time>
  <course>176.69</course>
  <speed>2.41</speed>
  <fix>3d</fix>
</trkpt>
<trkpt lat="40.0714512" lon="-105.2296767">
  <ele>1582.99</ele>
  <time>2026-08-28T17:53:17Z</time>
  <course>179.11</course>
  <speed>2.760163038662753</speed>
  <fix>3d</fix>
</trkpt>
<trkpt lat="40.0714543" lon="-105.2296764">
  <ele>1583.0</ele>
  <time>2026-08-28T17:53:17Z</time>
  <course>177.89</course>
  <speed>2.62</speed>
  <fix>3d</fix>
</trkpt>
<trkpt lat="40.0714487" lon="-105.2296766">
  <ele>1582.99</ele>
  <time>2026-08-28T17:53:17Z</time>
  <course>179.52</course>
  <speed>2.8700174215499112</speed>
  <fix>3d</fix>
</trkpt>
<trkpt lat="40.0714543" lon="-105.2296764">
  <ele>1583.0</ele>
  <time>2026-08-28T17:53:17Z</time>
  <course>177.89</course>
  <speed>2.62</speed>
  <fix>3d</fix>
</trkpt>
<trkpt lat="40.0714461" lon="-105.2296766">
  <ele>1582.99</ele>
  <time>2026-08-28T17:53:17Z</time>
  <course>179.88</course>
  <speed>2.97</speed>
  <fix>3d</fix>
</trkpt>
<trkpt lat="40.0714494" lon="-105.2296763">
  <ele>1583.0</ele>
  <time>2026-08-28T17:53:17Z</time>
  <course>178.79</course>
  <speed>2.84</speed>
  <fix>3d</fix>
</trkpt>
<trkpt lat="40.0714433" lon="-105.2296766">
  <ele>1583.0</ele>
  <time>2026-08-28T17:53:17Z</time>
  <course>180.21</course>
  <speed>3.0800162337234527</speed>
  <fix>3d</fix>
</trkpt>
<trkpt lat="40.0714494" lon="-105.2296763">
  <ele>1583.0</ele>
  <time>2026-08-28T17:53:17Z</time>
  <course>178.79</course>
  <speed>2.84</speed>
  <fix>3d</fix>
</trkpt>
<trkpt lat="40.0714405" lon="-105.2296765">
  <ele>1583.0</ele>
  <time>2026-08-28T17:53:17Z</time>
  <course>180.51</course>
  <speed>3.170141952657641</speed>
  <fix>3d</fix>
</trkpt>
<trkpt lat="40.0714441" lon="-105.2296762">
  <ele>1583.0</ele>
  <time>2026-08-28T17:53:17Z</time>
  <course>179.49</course>
  <speed>3.04</speed>
  <fix>3d</fix>
</trkpt>
<trkpt lat="40.0714376" lon="-105.2296765">
  <ele>1583.0</ele>
  <time>2026-08-28T17:53:17Z</time>
  <course>180.76</course>
  <speed>3.250246144525057</speed>
  <fix>3d</fix>
</trkpt>
<trkpt lat="40.0714441" lon="-105.2296762">
  <ele>1583.0</ele>
  <time>2026-08-28T17:53:17Z</time>
  <course>179.49</course>
  <speed>3.04</speed>
  <fix>3d</fix>
</trkpt>
<trkpt lat="40.0714346" lon="-105.2296765">
  <ele>1583.0</ele>
  <time>2026-08-28T17:53:17Z</time>
  <course>181.0</course>
  <speed>3.3103776219639958</speed>
  <fix>3d</fix>
</trkpt>
<trkpt lat="40.0714385" lon="-105.2296762">
  <ele>1583.0</ele>
  <time>2026-08-28T17:53:17Z</time>
  <course>180.04</course>
  <speed>3.21</speed>
  <fix>3d</fix>
</trkpt>
<trkpt lat="40.0714316" lon="-105.2296765">
  <ele>1583.0</ele>
  <time>2026-08-28T17:53:17Z</time>
  <course>181.22</course>
  <speed>3.370534082308025</speed>
  <fix>3d</fix>
</trkpt>
<trkpt lat="40.0714385" lon="-105.2296762">
  <ele>1583.0</ele>
  <time>2026-08-28T17:53:17Z</time>
  <course>180.04</course>
  <speed>3.21</speed>
  <fix>3d</fix>
</trkpt>
<trkpt lat="40.0714285" lon="-105.2296766">
  <ele>1583.0</ele>
  <time>2026-08-28T17:53:17Z</time>
  <course>181.44</course>
  <speed>3.4109382873338534</speed>
  <fix>3d</fix>
</trkpt>
<trkpt lat="40.0714326" lon="-105.2296762">
  <ele>1583.0</ele>
  <time>2026-08-28T17:53:17Z</time>
  <course>180.51</course>
  <speed>3.32</speed>
  <fix>3d</fix>
</trkpt>
<trkpt lat="40.0714255" lon="-105.2296766">
  <ele>1583.01</ele>
  <time>2026-08-28T17:53:17Z</time>
  <course>181.62</course>
  <speed>3.431180554852805</speed>
  <fix>3d</fix>
</trkpt>
<trkpt lat="40.0714326" lon="-105.2296762">
  <ele>1583.0</ele>
  <time>2026-08-28T17:53:17Z</time>
  <course>180.51</course>
  <speed>3.32</speed>
  <fix>3d</fix>
</trkpt>
<trkpt lat="40.0714224" lon="-105.2296767">
  <ele>1583.0</ele>
  <time>2026-08-28T17:53:17Z</time>
  <course>181.8</course>
  <speed>3.4414531814336806</speed>
  <fix>3d</fix>
</trkpt>
<trkpt lat="40.0714266" lon="-105.2296762">
  <ele>1583.0</ele>
  <time>2026-08-28T17:53:17Z</time>
  <course>180.91</course>
  <speed>3.39</speed>
  <fix>3d</fix>
</trkpt>
<trkpt lat="40.0714193" lon="-105.2296768">
  <ele>1583.0</ele>
  <time>2026-08-28T17:53:17Z</time>
  <course>181.98</course>
  <speed>3.4317633951075357</speed>
  <fix>3d</fix>
</trkpt>
<trkpt lat="40.0714266" lon="-105.2296762">
  <ele>1583.0</ele>
  <time>2026-08-28T17:53:17Z</time>
  <course>180.91</course>
  <speed>3.39</speed>
  <fix>3d</fix>
</trkpt>
<trkpt lat="40.0714162" lon="-105.2296769">
  <ele>1583.0</ele>
  <time>2026-08-28T17:53:17Z</time>
  <course>182.17</course>
  <speed>3.411773732239581</speed>
  <fix>3d</fix>
</trkpt>
<trkpt lat="40.0714205" lon="-105.2296763">
  <ele>1583.0</ele>
  <time>2026-08-28T17:53:17Z</time>
  <course>181.28</course>
  <speed>3.39</speed>
  <fix>3d</fix>
</trkpt>
<trkpt lat="40.0714132" lon="-105.229677">
  <ele>1583.0</ele>
  <time>2026-08-28T17:53:17Z</time>
  <course>182.35</course>
  <speed>3.362142174269256</speed>
  <fix>3d</fix>
</trkpt>
<trkpt lat="40.0714205" lon="-105.2296763">
  <ele>1583.0</ele>
  <time>2026-08-28T17:53:17Z</time>
  <course>181.28</course>
  <speed>3.39</speed>
  <fix>3d</fix>
</trkpt>
<trkpt lat="40.0714102" lon="-105.2296771">
  <ele>1583.0</ele>
  <time>2026-08-28T17:53:17Z</time>
  <course>182.58</course>
  <speed>3.312551886386083</speed>
  <fix>3d</fix>
</trkpt>
<trkpt lat="40.0714205" lon="-105.2296763">
  <ele>1583.0</ele>
  <time>2026-08-28T17:53:17Z</time>
  <course>181.28</course>
  <speed>3.39</speed>
  <fix>3d</fix>
</trkpt>
<trkpt lat="40.0714073" lon="-105.2296772">
  <ele>1583.0</ele>
  <time>2026-08-28T17:53:17Z</time>
  <course>182.79</course>
  <speed>3.243023280829171</speed>
  <fix>3d</fix>
</trkpt>
<trkpt lat="40.0714144" lon="-105.2296765">
  <ele>1583.0</ele>
  <time>2026-08-28T17:53:17Z</time>
  <course>181.67</course>
  <speed>3.33</speed>
  <fix>3d</fix>
</trkpt>
<trkpt lat="40.0714044" lon="-105.2296773">
  <ele>1583.0</ele>
  <time>2026-08-28T17:53:17Z</time>
  <course>183.02</course>
  <speed>3.1535694062442956</speed>
  <fix>3d</fix>
</trkpt>
<trkpt lat="40.0714144" lon="-105.2296765">
  <ele>1583.0</ele>
  <time>2026-08-28T17:53:17Z</time>
  <course>181.67</course>
  <speed>3.33</speed>
  <fix>3d</fix>
</trkpt>
<trkpt lat="40.0714017" lon="-105.2296774">
  <ele>1583.0</ele>
  <time>2026-08-28T17:53:17Z</time>
  <course>183.26</course>
  <speed>3.0536862969204943</speed>
  <fix>3d</fix>
</trkpt>
<trkpt lat="40.0714086" lon="-105.2296767">
  <ele>1583.0</ele>
  <time>2026-08-28T17:53:17Z</time>
  <course>182.1</course>
  <speed>3.2</speed>
  <fix>3d</fix>
</trkpt>
<trkpt lat="40.0713991" lon="-105.2296776">
  <ele>1583.0</ele>
  <time>2026-08-28T17:53:17Z</time>
  <course>183.54</course>
  <speed>2.9343653487594215</speed>
  <fix>3d</fix>
</trkpt>
<trkpt lat="40.0714086" lon="-105.2296767">
  <ele>1583.0</ele>
  <time>2026-08-28T17:53:17Z</time>
  <course>182.1</course>
  <speed>3.2</speed>
  <fix>3d</fix>
</trkpt>
<trkpt lat="40.0713966" lon="-105.2296777">
  <ele>1582.99</ele>
  <time>2026-08-28T17:53:17Z</time>
  <course>183.81</course>
  <speed>2.8151376520518494</speed>
  <fix>3d</fix>
</trkpt>
<trkpt lat="40.071403" lon="-105.2296771">
  <ele>1583.0</ele>
  <time>2026-08-28T17:53:17Z</time>
  <course>182.58</course>
  <speed>3.02</speed>
  <fix>3d</fix>
</trkpt>
<trkpt lat="40.0713942" lon="-105.2296779">
  <ele>1582.99</ele>
  <time>2026-08-28T17:53:17Z</time>
  <course>184.11</course>
  <speed>2.685386378158644</speed>
  <fix>3d</fix>
</trkpt>
<trkpt lat="40.0713977" lon="-105.2296774">
  <ele>1583.0</ele>
  <time>2026-08-28T17:53:17Z</time>
  <course>183.13</course>
  <speed>2.8</speed>
  <fix>3d</fix>
</trkpt>
<trkpt lat="40.0713919" lon="-105.2296781">
  <ele>1582.99</ele>
  <time>2026-08-28T17:53:17Z</time>
  <course>184.41</course>
  <speed>2.54568261965234</speed>
  <fix>3d</fix>
</trkpt>
<trkpt lat="40.0713977" lon="-105.2296774">
  <ele>1583.0</ele>
  <time>2026-08-28T17:53:17Z</time>
  <course>183.13</course>
  <speed>2.8</speed>
  <fix>3d</fix>
</trkpt>
<trkpt lat="40.0713897" lon="-105.2296783">
  <ele>1582.98</ele>
  <time>2026-08-28T17:53:17Z</time>
  <course>184.73</course>
  <speed>2.4067405344157895</speed>
  <fix>3d</fix>
</trkpt>
<trkpt lat="40.0713929" lon="-105.2296777">
  <ele>1583.0</ele>
  <time>2026-08-28T17:53:17Z</time>
  <course>183.72</course>
  <speed>2.54</speed>
  <fix>3d</fix>
</trkpt>
<trkpt lat="40.0713877" lon="-105.2296784">
  <ele>1582.98</ele>
  <time>2026-08-28T17:53:17Z</time>
  <course>185.07</course>
  <speed>2.257188516717201</speed>
  <fix>3d</fix>
</trkpt>
<trkpt lat="40.0713929" lon="-105.2296777">
  <ele>1583.0</ele>
  <time>2026-08-28T17:53:17Z</time>
  <course>183.72</course>
  <speed>2.54</speed>
  <fix>3d</fix>
</trkpt>
<trkpt lat="40.0713857" lon="-105.2296786">
  <ele>1582.98</ele>
  <time>2026-08-28T17:53:17Z</time>
  <course>185.45</course>
  <speed>2.1077001684300356</speed>
  <fix>3d</fix>
</trkpt>
<trkpt lat="40.0713886" lon="-105.2296782">
  <ele>1583.0</ele>
  <time>2026-08-28T17:53:17Z</time>
  <course>184.38</course>
  <speed>2.26</speed>
  <fix>3d</fix>
</trkpt>
<trkpt lat="40.071384" lon="-105.2296788">
  <ele>1582.98</ele>
  <time>2026-08-28T17:53:17Z</time>
  <course>185.85</course>
  <speed>1.9582900704441106</speed>
  <fix>3d</fix>
</trkpt>
<trkpt lat="40.0713886" lon="-105.2296782">
  <ele>1583.0</ele>
  <time>2026-08-28T17:53:17Z</time>
  <course>184.38</course>
  <speed>2.26</speed>
  <fix>3d</fix>
</trkpt>
<trkpt lat="40.0713823" lon="-105.229679">
  <ele>1582.98</ele>
  <time>2026-08-28T17:53:17Z</time>
  <course>186.29</course>
  <speed>1.8089776118017602</speed>
  <fix>3d</fix>
</trkpt>
<trkpt lat="40.0713848" lon="-105.2296786">
  <ele>1583.0</ele>
  <time>2026-08-28T17:53:17Z</time>
  <course>185.16</course>
  <speed>1.97</speed>
  <fix>3d</fix>
</trkpt>
<trkpt lat="40.0713808" lon="-105.2296792">
  <ele>1582.99</ele>
  <time>2026-08-28T17:53:17Z</time>
  <course>186.78</course>
  <speed>1.6597891432347662</speed>
  <fix>3d</fix>
</trkpt>
<trkpt lat="40.0713848" lon="-105.2296786">
  <ele>1583.0</ele>
  <time>2026-08-28T17:53:17Z</time>
  <course>185.16</course>
  <speed>1.97</speed>
  <fix>3d</fix>
</trkpt>
<trkpt lat="40.0713794" lon="-105.2296794">
  <ele>1582.99</ele>
  <time>2026-08-28T17:53:17Z</time>
  <course>187.33</course>
  <speed>1.509602596712128</speed>
  <fix>3d</fix>
</trkpt>
<trkpt lat="40.0713815" lon="-105.229679">
  <ele>1583.0</ele>
  <time>2026-08-28T17:53:17Z</time>
  <course>186.08</course>
  <speed>1.68</speed>
  <fix>3d</fix>
</trkpt>
<trkpt lat="40.0713781" lon="-105.2296796">
  <ele>1582.99</ele>
  <time>2026-08-28T17:53:17Z</time>
  <course>187.94</course>
  <speed>1.3705838172107534</speed>
  <fix>3d</fix>
</trkpt>
<trkpt lat="40.0713815" lon="-105.229679">
  <ele>1583.0</ele>
  <time>2026-08-28T17:53:17Z</time>
  <course>186.08</course>
  <speed>1.68</speed>
  <fix>3d</fix>
</trkpt>
<trkpt lat="40.071377" lon="-105.2296798">
  <ele>1582.99</ele>
  <time>2026-08-28T17:53:17Z</time>
  <course>188.64</course>
  <speed>1.2317873193047573</speed>
  <fix>3d</fix>
</trkpt>
<trkpt lat="40.0713788" lon="-105.2296795">
  <ele>1583.0</ele>
  <time>2026-08-28T17:53:17Z</time>
  <course>187.23</course>
  <speed>1.4</speed>
  <fix>3d</fix>
</trkpt>
<trkpt lat="40.071376" lon="-105.22968">
  <ele>1582.99</ele>
  <time>2026-08-28T17:53:17Z</time>
  <course>189.46</course>
  <speed>1.0932977636490435</speed>
  <fix>3d</fix>
</trkpt>
<trkpt lat="40.0713788" lon="-105.2296795">
  <ele>1583.0</ele>
  <time>2026-08-28T17:53:17Z</time>
  <course>187.23</course>
  <speed>1.4</speed>
  <fix>3d</fix>
</trkpt>
<trkpt lat="40.0713751" lon="-105.2296802">
  <ele>1582.99</ele>
  <time>2026-08-28T17:53:17Z</time>
  <course>190.41</course>
  <speed>0.9535197952848173</speed>
  <fix>3d</fix>
</trkpt>
<trkpt lat="40.0713765" lon="-105.2296798">
  <ele>1583.0</ele>
  <time>2026-08-28T17:53:17Z</time>
  <course>188.73</course>
  <speed>1.12</speed>
  <fix>3d</fix>
</trkpt>
<trkpt lat="40.0713743" lon="-105.2296803">
  <ele>1582.99</ele>
  <time>2026-08-28T17:53:17Z</time>
  <course>191.39</course>
  <speed>0.8237718130647589</speed>
  <fix>3d</fix>
</trkpt>
<trkpt lat="40.0713765" lon="-105.2296798">
  <ele>1583.0</ele>
  <time>2026-08-28T17:53:17Z</time>
  <course>188.73</course>
  <speed>1.12</speed>
  <fix>3d</fix>
</trkpt>
<trkpt lat="40.0713737" lon="-105.2296805">
  <ele>1582.99</ele>
  <time>2026-08-28T17:53:17Z</time>
  <course>192.31</course>
  <speed>0.7040596565632774</speed>
  <fix>3d</fix>
</trkpt>
<trkpt lat="40.0713765" lon="-105.2296798">
  <ele>1583.0</ele>
  <time>2026-08-28T17:53:17Z</time>
  <course>188.73</course>
  <speed>1.12</speed>
  <fix>3d</fix>
</trkpt>
<trkpt lat="40.0713731" lon="-105.2296807">
  <ele>1582.99</ele>
  <time>2026-08-28T17:53:17Z</time>
  <course>193.2</course>
  <speed>0.5748912940721924</speed>
  <fix>3d</fix>
</trkpt>
<trkpt lat="40.0713748" lon="-105.2296803">
  <ele>1583.0</ele>
  <time>2026-08-28T17:53:17Z</time>
  <course>190.54</course>
  <speed>0.86</speed>
  <fix>3d</fix>
</trkpt>
<trkpt lat="40.0713727" lon="-105.2296808">
  <ele>1582.99</ele>
  <time>2026-08-28T17:53:17Z</time>
  <course>194.02</course>
  <speed>0.4632493928760188</speed>
  <fix>3d</fix>
</trkpt>
<trkpt lat="40.0713748" lon="-105.2296803">
  <ele>1583.0</ele>
  <time>2026-08-28T17:53:17Z</time>
  <course>190.54</course>
  <speed>0.86</speed>
  <fix>3d</fix>
</trkpt>
<trkpt lat="40.0713724" lon="-105.2296809">
  <ele>1582.99</ele>
  <time>2026-08-28T17:53:17Z</time>
  <course>194.68</course>
  <speed>0.3420526275297414</speed>
  <fix>3d</fix>
</trkpt>
<trkpt lat="40.0713735" lon="-105.2296806">
  <ele>1583.0</ele>
  <time>2026-08-28T17:53:17Z</time>
  <course>192.31</course>
  <speed>0.62</speed>
  <fix>3d</fix>
</trkpt>
<trkpt lat="40.0713721" lon="-105.229681">
  <ele>1582.99</ele>
  <time>2026-08-28T17:53:17Z</time>
  <course>195.19</course>
  <speed>0.22803508501982758</speed>
  <fix>3d</fix>
</trkpt>
<trkpt lat="40.0713735" lon="-105.2296806">
  <ele>1583.0</ele>
  <time>2026-08-28T17:53:17Z</time>
  <course>192.31</course>
  <speed>0.62</speed>
  <fix>3d</fix>
</trkpt>
<trkpt lat="40.071372" lon="-105.2296811">
  <ele>1582.99</ele>
  <time>2026-08-28T17:53:17Z</time>
  <course>195.53</course>
  <speed>0.1264911064067352</speed>
  <fix>3d</fix>
</trkpt>
<trkpt lat="40.0713726" lon="-105.2296809">
  <ele>1583.0</ele>
  <time>2026-08-28T17:53:17Z</time>
  <course>193.74</course>
  <speed>0.39</speed>
  <fix>3d</fix>
</trkpt>
<trkpt lat="40.0713719" lon="-105.2296811">
  <ele>1583.0</ele>
  <time>2026-08-28T17:53:17Z</time>
  <course>195.71</course>
  <speed>0.022360679774997897</speed>
  <fix>3d</fix>
</trkpt>
<trkpt lat="40.0713726" lon="-105.2296809">
  <ele>1583.0</ele>
  <time>2026-08-28T17:53:17Z</time>
  <course>193.74</course>
  <speed>0.39</speed>
  <fix>3d</fix>
</trkpt>
<trkpt lat="40.071372" lon="-105.2296811">
  <ele>1583.0</ele>
  <time>2026-08-28T17:53:17Z</time>
  <course>195.74</course>
  <speed>0.05</speed>
  <fix>3d</fix>
</trkpt>
<trkpt lat="40.0713721" lon="-105.229681">
  <ele>1583.0</ele>
  <time>2026-08-28T17:53:17Z</time>
  <course>194.61</course>
  <speed>0.18</speed>
  <fix>3d</fix>
</trkpt>
<trkpt lat="40.071372" lon="-105.2296811">
  <ele>1583.0</ele>
  <time>2026-08-28T17:53:17Z</time>
  <course>195.79</course>
  <speed>0.13152946437965907</speed>
  <fix>3d</fix>
</trkpt>
<trkpt lat="40.0713719" lon="-105.229681">
  <ele>1583.0</ele>
  <time>2026-08-28T17:53:17Z</time>
  <course>194.15</course>
  <speed>0.0</speed>
  <fix>3d</fix>
</trkpt>
<trkpt lat="40.0713722" lon="-105.229681">
  <ele>1583.0</ele>
  <time>2026-08-28T17:53:17Z</time>
  <course>195.93</course>
  <speed>0.1824828759089466</speed>
  <fix>3d</fix>
</trkpt>
<trkpt lat="40.0713719" lon="-105.229681">
  <ele>1583.0</ele>
  <time>2026-08-28T17:53:17Z</time>
  <course>194.15</course>
  <speed>0.0</speed>
  <fix>3d</fix>
</trkpt>
<trkpt lat="40.0713723" lon="-105.2296811">
  <ele>1583.0</ele>
  <time>2026-08-28T17:53:17Z</time>
  <course>196.11</course>
  <speed>0.23345235059857505</speed>
  <fix>3d</fix>
</trkpt>
<trkpt lat="40.071372" lon="-105.229681">
  <ele>1583.0</ele>
  <time>2026-08-28T17:53:17Z</time>
  <course>15.27</course>
  <speed>0.13</speed>
  <fix>3d</fix>
</trkpt>
<trkpt lat="40.0713725" lon="-105.229681">
  <ele>1583.01</ele>
  <time>2026-08-28T17:53:17Z</time>
  <course>196.17</course>
  <speed>0.2765863337187866</speed>
  <fix>3d</fix>
</trkpt>
<trkpt lat="40.071372" lon="-105.229681">
  <ele>1583.0</ele>
  <time>2026-08-28T17:53:17Z</time>
  <course>15.27</course>
  <speed>0.13</speed>
  <fix>3d</fix>
</trkpt>
<trkpt lat="40.0713728" lon="-105.2296809">
  <ele>1583.01</ele>
  <time>2026-08-28T17:53:17Z</time>
  <course>196.19</course>
  <speed>0.327566787083184</speed>
  <fix>3d</fix>
</trkpt>
<trkpt lat="40.0713722" lon="-105.229681">
  <ele>1583.0</ele>
  <time>2026-08-28T17:53:17Z</time>
  <course>15.41</course>
  <speed>0.23</speed>
  <fix>3d</fix>
</trkpt>
<trkpt lat="40.071373" lon="-105.2296808">
  <ele>1583.01</ele>
  <time>2026-08-28T17:53:17Z</time>
  <course>196.21</course>
  <speed>0.356931365951495</speed>
  <fix>3d</fix>
</trkpt>
<trkpt lat="40.0713722" lon="-105.229681">
  <ele>1583.0</ele>
  <time>2026-08-28T17:53:17Z</time>
  <course>15.41</course>
  <speed>0.23</speed>
  <fix>3d</fix>
</trkpt>
<trkpt lat="40.0713733" lon="-105.2296807">
  <ele>1583.01</ele>
  <time>2026-08-28T17:53:17Z</time>
  <course>196.3</course>
  <speed>0.378549864614954</speed>
  <fix>3d</fix>
</trkpt>
<trkpt lat="40.0713727" lon="-105.2296809">
  <ele>1583.0</ele>
  <time>2026-08-28T17:53:17Z</time>
  <course>15.5</course>
  <speed>0.3</speed>
  <fix>3d</fix>
</trkpt>
<trkpt lat="40.0713736" lon="-105.2296806">
  <ele>1583.01</ele>
  <time>2026-08-28T17:53:17Z</time>
  <course>196.55</course>
  <speed>0.366742416417845</speed>
  <fix>3d</fix>
</trkpt>
<trkpt lat="40.0713727" lon="-105.2296809">
  <ele>1583.0</ele>
  <time>2026-08-28T17:53:17Z</time>
  <course>15.5</course>
  <speed>0.3</speed>
  <fix>3d</fix>
</trkpt>
<trkpt lat="40.0713739" lon="-105.2296805">
  <ele>1583.01</ele>
  <time>2026-08-28T17:53:17Z</time>
  <course>196.93</course>
  <speed>0.33541019662496846</speed>
  <fix>3d</fix>
</trkpt>
<trkpt lat="40.0713733" lon="-105.2296806">
  <ele>1583.0</ele>
  <time>2026-08-28T17:53:17Z</time>
  <course>15.84</course>
  <speed>0.31</speed>
  <fix>3d</fix>
</trkpt>
<trkpt lat="40.0713742" lon="-105.2296805">
  <ele>1583.01</ele>
  <time>2026-08-28T17:53:17Z</time>
  <course>197.39</course>
  <speed>0.28442925306655786</speed>
  <fix>3d</fix>
</trkpt>
<trkpt lat="40.0713733" lon="-105.2296806">
  <ele>1583.0</ele>
  <time>2026-08-28T17:53:17Z</time>
  <course>15.84</course>
  <speed>0.31</speed>
  <fix>3d</fix>
</trkpt>
<trkpt lat="40.0713744" lon="-105.2296804">
  <ele>1583.02</ele>
  <time>2026-08-28T17:53:17Z</time>
  <course>197.88</course>
  <speed>0.21213203435596426</speed>
  <fix>3d</fix>
</trkpt>
<trkpt lat="40.0713738" lon="-105.2296805">
  <ele>1583.0</ele>
  <time>2026-08-28T17:53:17Z</time>
  <course>16.51</course>
  <speed>0.23</speed>
  <fix>3d</fix>
</trkpt>
<trkpt lat="40.0713745" lon="-105.2296804">
  <ele>1583.02</ele>
  <time>2026-08-28T17:53:17Z</time>
  <course>198.28</course>
  <speed>0.13</speed>
  <fix>3d</fix>
</trkpt>
<trkpt lat="40.0713738" lon="-105.2296805">
  <ele>1583.0</ele>
  <time>2026-08-28T17:53:17Z</time>
  <course>16.51</course>
  <speed>0.23</speed>
  <fix>3d</fix>
</trkpt>
<trkpt lat="40.0713745" lon="-105.2296804">
  <ele>1583.02</ele>
  <time>2026-08-28T17:53:17Z</time>
  <course>198.47</course>
  <speed>0.0632455532033676</speed>
  <fix>3d</fix>
</trkpt>
<trkpt lat="40.0713741" lon="-105.2296803">
  <ele>1583.0</ele>
  <time>2026-08-28T17:53:17Z</time>
  <course>17.13</course>
  <speed>0.09</speed>
  <fix>3d</fix>
</trkpt>
<trkpt lat="40.0713745" lon="-105.2296804">
  <ele>1583.02</ele>
  <time>2026-08-28T17:53:17Z</time>
  <course>198.55</course>
  <speed>0.05099019513592785</speed>
  <fix>3d</fix>
</trkpt>
<trkpt lat="40.0713741" lon="-105.2296803">
  <ele>1583.0</ele>
  <time>2026-08-28T17:53:17Z</time>
  <course>17.13</course>
  <speed>0.09</speed>
  <fix>3d</fix>
</trkpt>
<trkpt lat="40.0713744" lon="-105.2296805">
  <ele>1583.02</ele>
  <time>2026-08-28T17:53:17Z</time>
  <course>199.12</course>
  <speed>0.12041594578792296</speed>
  <fix>3d</fix>
</trkpt>
<trkpt lat="40.0713741" lon="-105.2296803">
  <ele>1583.0</ele>
  <time>2026-08-28T17:53:17Z</time>
  <course>17.13</course>
  <speed>0.09</speed>
  <fix>3d</fix>
</trkpt>
<trkpt lat="40.0713742" lon="-105.2296805">
  <ele>1583.01</ele>
  <time>2026-08-28T17:53:17Z</time>
  <course>200.2</course>
  <speed>0.20248456731316586</speed>
  <fix>3d</fix>
</trkpt>
<trkpt lat="40.0713741" lon="-105.2296803">
  <ele>1583.0</ele>
  <time>2026-08-28T17:53:17Z</time>
  <course>198.43</course>
  <speed>0.06</speed>
  <fix>3d</fix>
</trkpt>
<trkpt lat="40.0713741" lon="-105.2296807">
  <ele>1583.01</ele>
  <time>2026-08-28T17:53:17Z</time>
  <course>201.77</course>
  <speed>0.2830194339616981</speed>
  <fix>3d</fix>
</trkpt>
<trkpt lat="40.0713741" lon="-105.2296803">
  <ele>1583.0</ele>
  <time>2026-08-28T17:53:17Z</time>
  <course>198.43</course>
  <speed>0.06</speed>
  <fix>3d</fix>
</trkpt>
<trkpt lat="40.0713738" lon="-105.2296809">
  <ele>1583.01</ele>
  <time>2026-08-28T17:53:17Z</time>
  <course>203.78</course>
  <speed>0.36359317925395684</speed>
  <fix>3d</fix>
</trkpt>
<trkpt lat="40.0713739" lon="-105.2296804">
  <ele>1583.0</ele>
  <time>2026-08-28T17:53:17Z</time>
  <course>200.14</course>
  <speed>0.23</speed>
  <fix>3d</fix>
</trkpt>
<trkpt lat="40.0713734" lon="-105.2296811">
  <ele>1583.01</ele>
  <time>2026-08-28T17:53:17Z</time>
  <course>206.16</course>
  <speed>0.44944410108488464</speed>
  <fix>3d</fix>
</trkpt>
<trkpt lat="40.0713739" lon="-105.2296804">
  <ele>1583.0</ele>
  <time>2026-08-28T17:53:17Z</time>
  <course>200.14</course>
  <speed>0.23</speed>
  <fix>3d</fix>
</trkpt>
<trkpt lat="40.071373" lon="-105.2296814">
  <ele>1583.01</ele>
  <time>2026-08-28T17:53:17Z</time>
  <course>208.76</course>
  <speed>0.532541078227774</speed>
  <fix>3d</fix>
</trkpt>
<trkpt lat="40.0713734" lon="-105.2296806">
  <ele>1583.0</ele>
  <time>2026-08-28T17:53:17Z</time>
  <course>203.64</course>
  <speed>0.38</speed>
  <fix>3d</fix>
</trkpt>
<trkpt lat="40.0713725" lon="-105.2296818">
  <ele>1583.01</ele>
  <time>2026-08-28T17:53:17Z</time>
  <course>211.77</course>
  <speed>0.6060528029800704</speed>
  <fix>3d</fix>
</trkpt>
<trkpt lat="40.0713727" lon="-105.229681">
  <ele>1583.0</ele>
  <time>2026-08-28T17:53:17Z</time>
  <course>208.57</course>
  <speed>0.53</speed>
  <fix>3d</fix>
</trkpt>
<trkpt lat="40.071372" lon="-105.2296822">
  <ele>1583.01</ele>
  <time>2026-08-28T17:53:17Z</time>
  <course>215.38</course>
  <speed>0.6811754546370561</speed>
  <fix>3d</fix>
</trkpt>
<trkpt lat="40.0713727" lon="-105.229681">
  <ele>1583.0</ele>
  <time>2026-08-28T17:53:17Z</time>
  <course>208.57</course>
  <speed>0.53</speed>
  <fix>3d</fix>
</trkpt>
<trkpt lat="40.0713715" lon="-105.2296828">
  <ele>1583.01</ele>
  <time>2026-08-28T17:53:17Z</time>
  <course>219.58</course>
  <speed>0.7638062581571324</speed>
  <fix>3d</fix>
</trkpt>
<trkpt lat="40.0713717" lon="-105.2296819">
  <ele>1583.0</ele>
  <time>2026-08-28T17:53:17Z</time>
  <course>215.3</course>
  <speed>0.68</speed>
  <fix>3d</fix>
</trkpt>
<trkpt lat="40.0713709" lon="-105.2296834">
  <ele>1583.0</ele>
  <time>2026-08-28T17:53:17Z</time>
  <course>224.3</course>
  <speed>0.8495881355103778</speed>
  <fix>3d</fix>
</trkpt>
<trkpt lat="40.0713717" lon="-105.2296819">
  <ele>1583.0</ele>
  <time>2026-08-28T17:53:17Z</time>
  <course>215.3</course>
  <speed>0.68</speed>
  <fix>3d</fix>
</trkpt>
<trkpt lat="40.0713704" lon="-105.2296842">
  <ele>1583.0</ele>
  <time>2026-08-28T17:53:17Z</time>
  <course>229.55</course>
  <speed>0.9280086206496145</speed>
  <fix>3d</fix>
</trkpt>
<trkpt lat="40.0713707" lon="-105.229683">
  <ele>1583.0</ele>
  <time>2026-08-28T17:53:17Z</time>
  <course>224.27</course>
  <speed>0.83</speed>
  <fix>3d</fix>
</trkpt>
<trkpt lat="40.0713698" lon="-105.2296851">
  <ele>1583.0</ele>
  <time>2026-08-28T17:53:17Z</time>
  <course>234.84</course>
  <speed>1.0208329931972222</speed>
  <fix>3d</fix>
</trkpt>
<trkpt lat="40.0713707" lon="-105.229683">
  <ele>1583.0</ele>
  <time>2026-08-28T17:53:17Z</time>
  <course>224.27</course>
  <speed>0.83</speed>
  <fix>3d</fix>
</trkpt>
<trkpt lat="40.0713693" lon="-105.2296862">
  <ele>1583.0</ele>
  <time>2026-08-28T17:53:17Z</time>
  <course>239.8</course>
  <speed>1.1182575731914361</speed>
  <fix>3d</fix>
</trkpt>
<trkpt lat="40.0713696" lon="-105.2296846">
  <ele>1583.0</ele>
  <time>2026-08-28T17:53:17Z</time>
  <course>234.38</course>
  <speed>0.99</speed>
  <fix>3d</fix>
</trkpt>
<trkpt lat="40.0713688" lon="-105.2296874">
  <ele>1583.0</ele>
  <time>2026-08-28T17:53:17Z</time>
  <course>244.28</course>
  <speed>1.2093386622447826</speed>
  <fix>3d</fix>
</trkpt>
<trkpt lat="40.0713696" lon="-105.2296846">
  <ele>1583.0</ele>
  <time>2026-08-28T17:53:17Z</time>
  <course>234.38</course>
  <speed>0.99</speed>
  <fix>3d</fix>
</trkpt>
<trkpt lat="40.0713683" lon="-105.2296888">
  <ele>1583.0</ele>
  <time>2026-08-28T17:53:17Z</time>
  <course>248.07</course>
  <speed>1.3097327971765844</speed>
  <fix>3d</fix>
</trkpt>
<trkpt lat="40.0713686" lon="-105.2296868">
  <ele>1583.0</ele>
  <time>2026-08-28T17:53:17Z</time>
  <course>243.5</course>
  <speed>1.18</speed>
  <fix>3d</fix>
</trkpt>
<trkpt lat="40.0713679" lon="-105.2296903">
  <ele>1583.0</ele>
  <time>2026-08-28T17:53:17Z</time>
  <course>251.32</course>
  <speed>1.4138246001537815</speed>
  <fix>3d</fix>
</trkpt>
<trkpt lat="40.0713686" lon="-105.2296868">
  <ele>1583.0</ele>
  <time>2026-08-28T17:53:17Z</time>
  <course>243.5</course>
  <speed>1.18</speed>
  <fix>3d</fix>
</trkpt>
<trkpt lat="40.0713675" lon="-105.229692">
  <ele>1583.0</ele>
  <time>2026-08-28T17:53:17Z</time>
  <course>254.11</course>
  <speed>1.5183214415926556</speed>
  <fix>3d</fix>
</trkpt>
<trkpt lat="40.0713677" lon="-105.2296896">
  <ele>1583.0</ele>
  <time>2026-08-28T17:53:17Z</time>
  <course>250.53</course>
  <speed>1.37</speed>
  <fix>3d</fix>
</trkpt>
<trkpt lat="40.0713672" lon="-105.2296937">
  <ele>1583.01</ele>
  <time>2026-08-28T17:53:17Z</time>
  <course>256.59</course>
  <speed>1.6259458785580778</speed>
  <fix>3d</fix>
</trkpt>
<trkpt lat="40.0713677" lon="-105.2296896">
  <ele>1583.0</ele>
  <time>2026-08-28T17:53:17Z</time>
  <course>250.53</course>
  <speed>1.37</speed>
  <fix>3d</fix>
</trkpt>
<trkpt lat="40.0713668" lon="-105.2296957">
  <ele>1583.01</ele>
  <time>2026-08-28T17:53:17Z</time>
  <course>258.74</course>
  <speed>1.7164206943520577</speed>
  <fix>3d</fix>
</trkpt>
<trkpt lat="40.0713669" lon="-105.229693">
  <ele>1583.0</ele>
  <time>2026-08-28T17:53:17Z</time>
  <course>255.79</course>
  <speed>1.57</speed>
  <fix>3d</fix>
</trkpt>
<trkpt lat="40.0713665" lon="-105.2296977">
  <ele>1583.01</ele>
  <time>2026-08-28T17:53:17Z</time>
  <course>260.56</course>
  <speed>1.8201373574541018</speed>
  <fix>3d</fix>
</trkpt>
<trkpt lat="40.0713669" lon="-105.229693">
  <ele>1583.0</ele>
  <time>2026-08-28T17:53:17Z</time>
  <course>255.79</course>
  <speed>1.57</speed>
  <fix>3d</fix>
</trkpt>
<trkpt lat="40.0713663" lon="-105.2296998">
  <ele>1583.01</ele>
  <time>2026-08-28T17:53:17Z</time>
  <course>262.12</course>
  <speed>1.915097908724251</speed>
  <fix>3d</fix>
</trkpt>
<trkpt lat="40.0713669" lon="-105.229693">
  <ele>1583.0</ele>
  <time>2026-08-28T17:53:17Z</time>
  <course>255.79</course>
  <speed>1.57</speed>
  <fix>3d</fix>
</trkpt>
<trkpt lat="40.071366" lon="-105.2297021">
  <ele>1583.01</ele>
  <time>2026-08-28T17:53:17Z</time>
  <course>263.45</course>
  <speed>2.010994778710278</speed>
  <fix>3d</fix>
</trkpt>
<trkpt lat="40.0713663" lon="-105.2296968">
  <ele>1583.0</ele>
  <time>2026-08-28T17:53:17Z</time>
  <course>259.75</course>
  <speed>1.77</speed>
  <fix>3d</fix>
</trkpt>
<trkpt lat="40.0713658" lon="-105.2297045">
  <ele>1583.01</ele>
  <time>2026-08-28T17:53:17Z</time>
  <course>264.58</course>
  <speed>2.117663807123312</speed>
  <fix>3d</fix>
</trkpt>
<trkpt lat="40.0713663" lon="-105.2296968">
  <ele>1583.0</ele>
  <time>2026-08-28T17:53:17Z</time>
  <course>259.75</course>
  <speed>1.77</speed>
  <fix>3d</fix>
</trkpt>
<trkpt lat="40.0713656" lon="-105.229707">
  <ele>1583.0</ele>
  <time>2026-08-28T17:53:17Z</time>
  <course>265.53</course>
  <speed>2.215784285529618</speed>
  <fix>3d</fix>
</trkpt>
<trkpt lat="40.0713658" lon="-105.2297011">
  <ele>1583.0</ele>
  <time>2026-08-28T17:53:17Z</time>
  <course>262.65</course>
  <speed>1.97</speed>
  <fix>3d</fix>
</trkpt>
<trkpt lat="40.0713655" lon="-105.2297096">
  <ele>1583.0</ele>
  <time>2026-08-28T17:53:17Z</time>
  <course>266.35</course>
  <speed>2.32363938682404</speed>
  <fix>3d</fix>
</trkpt>
<trkpt lat="40.0713658" lon="-105.2297011">
  <ele>1583.0</ele>
  <time>2026-08-28T17:53:17Z</time>
  <course>262.65</course>
  <speed>1.97</speed>
  <fix>3d</fix>
</trkpt>
<trkpt lat="40.0713653" lon="-105.2297123">
  <ele>1583.0</ele>
  <time>2026-08-28T17:53:17Z</time>
  <course>267.06</course>
  <speed>2.4224987100099766</speed>
  <fix>3d</fix>
</trkpt>
<trkpt lat="40.0713654" lon="-105.2297059">
  <ele>1583.0</ele>
  <time>2026-08-28T17:53:17Z</time>
  <course>264.75</course>
  <speed>2.17</speed>
  <fix>3d</fix>
</trkpt>
<trkpt lat="40.0713652" lon="-105.2297152">
  <ele>1583.0</ele>
  <time>2026-08-28T17:53:17Z</time>
  <course>267.68</course>
  <speed>2.521606630701942</speed>
  <fix>3d</fix>
</trkpt>
<trkpt lat="40.0713651" lon="-105.2297112">
  <ele>1583.0</ele>
  <time>2026-08-28T17:53:17Z</time>
  <course>266.29</course>
  <speed>2.38</speed>
  <fix>3d</fix>
</trkpt>
<trkpt lat="40.0713651" lon="-105.2297182">
  <ele>1583.0</ele>
  <time>2026-08-28T17:53:17Z</time>
  <course>268.23</course>
  <speed>2.620934947685654</speed>
  <fix>3d</fix>
</trkpt>
<trkpt lat="40.0713651" lon="-105.2297112">
  <ele>1583.0</ele>
  <time>2026-08-28T17:53:17Z</time>
  <course>266.29</course>
  <speed>2.38</speed>
  <fix>3d</fix>
</trkpt>
<trkpt lat="40.071365" lon="-105.2297213">
  <ele>1583.0</ele>
  <time>2026-08-28T17:53:17Z</time>
  <course>268.73</course>
  <speed>2.710461215365385</speed>
  <fix>3d</fix>
</trkpt>
<trkpt lat="40.0713649" lon="-105.2297171">
  <ele>1583.0</ele>
  <time>2026-08-28T17:53:17Z</time>
  <course>267.47</course>
  <speed>2.58</speed>
  <fix>3d</fix>
</trkpt>
<trkpt lat="40.0713649" lon="-105.2297245">
  <ele>1583.0</ele>
  <time>2026-08-28T17:53:17Z</time>
  <course>269.18</course>
  <speed>2.7902867236182023</speed>
  <fix>3d</fix>
</trkpt>
<trkpt lat="40.0713649" lon="-105.2297171">
  <ele>1583.0</ele>
  <time>2026-08-28T17:53:17Z</time>
  <course>267.47</course>
  <speed>2.58</speed>
  <fix>3d</fix>
</trkpt>
<trkpt lat="40.0713649" lon="-105.2297278">
  <ele>1583.0</ele>
  <time>2026-08-28T17:53:17Z</time>
  <course>269.59</course>
  <speed>2.850070174574654</speed>
  <fix>3d</fix>
</trkpt>
<trkpt lat="40.0713647" lon="-105.2297233">
  <ele>1583.0</ele>
  <time>2026-08-28T17:53:17Z</time>
  <course>268.43</course>
  <speed>2.74</speed>
  <fix>3d</fix>
</trkpt>
<trkpt lat="40.0713648" lon="-105.2297312">
  <ele>1583.0</ele>
  <time>2026-08-28T17:53:17Z</time>
  <course>269.98</course>
  <speed>2.91</speed>
  <fix>3d</fix>
</trkpt>
<trkpt lat="40.0713647" lon="-105.2297233">
  <ele>1583.0</ele>
  <time>2026-08-28T17:53:17Z</time>
  <course>268.43</course>
  <speed>2.74</speed>
  <fix>3d</fix>
</trkpt>
<trkpt lat="40.0713648" lon="-105.2297346">
  <ele>1583.0</ele>
  <time>2026-08-28T17:53:17Z</time>
  <course>270.33</course>
  <speed>2.950016949103852</speed>
  <fix>3d</fix>
</trkpt>
<trkpt lat="40.0713646" lon="-105.2297299">
  <ele>1583.0</ele>
  <time>2026-08-28T17:53:17Z</time>
  <course>269.23</course>
  <speed>2.86</speed>
  <fix>3d</fix>
</trkpt>
<trkpt lat="40.0713648" lon="-105.2297381">
  <ele>1583.0</ele>
  <time>2026-08-28T17:53:17Z</time>
  <course>270.67</course>
  <speed>2.9700673393039425</speed>
  <fix>3d</fix>
</trkpt>
<trkpt lat="40.0713646" lon="-105.2297299">
  <ele>1583.0</ele>
  <time>2026-08-28T17:53:17Z</time>
  <course>269.23</course>
  <speed>2.86</speed>
  <fix>3d</fix>
</trkpt>
<trkpt lat="40.0713648" lon="-105.2297416">
  <ele>1583.0</ele>
  <time>2026-08-28T17:53:17Z</time>
  <course>270.99</course>
  <speed>2.9802684442848433</speed>
  <fix>3d</fix>
</trkpt>
<trkpt lat="40.0713645" lon="-105.2297368">
  <ele>1583.0</ele>
  <time>2026-08-28T17:53:17Z</time>
  <course>269.93</course>
  <speed>2.93</speed>
  <fix>3d</fix>
</trkpt>
<trkpt lat="40.0713648" lon="-105.2297451">
  <ele>1583.0</ele>
  <time>2026-08-28T17:53:17Z</time>
  <course>271.3</course>
  <speed>2.9804194335697116</speed>
  <fix>3d</fix>
</trkpt>
<trkpt lat="40.0713645" lon="-105.2297368">
  <ele>1583.0</ele>
  <time>2026-08-28T17:53:17Z</time>
  <course>269.93</course>
  <speed>2.93</speed>
  <fix>3d</fix>
</trkpt>
<trkpt lat="40.0713649" lon="-105.2297486">
  <ele>1583.0</ele>
  <time>2026-08-28T17:53:17Z</time>
  <course>271.62</course>
  <speed>2.9508303916016594</speed>
  <fix>3d</fix>
</trkpt>
<trkpt lat="40.0713645" lon="-105.2297437">
  <ele>1583.0</ele>
  <time>2026-08-28T17:53:17Z</time>
  <course>270.57</course>
  <speed>2.93</speed>
  <fix>3d</fix>
</trkpt>
<trkpt lat="40.0713649" lon="-105.229752">
  <ele>1583.0</ele>
  <time>2026-08-28T17:53:17Z</time>
  <course>271.93</course>
  <speed>2.9110994486619655</speed>
  <fix>3d</fix>
</trkpt>
<trkpt lat="40.0713645" lon="-105.2297437">
  <ele>1583.0</ele>
  <time>2026-08-28T17:53:17Z</time>
  <course>270.57</course>
  <speed>2.93</speed>
  <fix>3d</fix>
</trkpt>
<trkpt lat="40.071365" lon="-105.2297554">
  <ele>1583.01</ele>
  <time>2026-08-28T17:53:17Z</time>
  <course>272.28</course>
  <speed>2.8614157335137445</speed>
  <fix>3d</fix>
</trkpt>
<trkpt lat="40.0713646" lon="-105.2297505">
  <ele>1583.0</ele>
  <time>2026-08-28T17:53:17Z</time>
  <course>271.22</course>
  <speed>2.87</speed>
  <fix>3d</fix>
</trkpt>
<trkpt lat="40.0713649" lon="-105.2297587">
  <ele>1583.01</ele>
  <time>2026-08-28T17:53:17Z</time>
  <course>272.63</course>
  <speed>2.7921676167450977</speed>
  <fix>3d</fix>
</trkpt>
<trkpt lat="40.0713646" lon="-105.2297505">
  <ele>1583.0</ele>
  <time>2026-08-28T17:53:17Z</time>
  <course>271.22</course>
  <speed>2.87</speed>
  <fix>3d</fix>
</trkpt>
<trkpt lat="40.071365" lon="-105.2297619">
  <ele>1583.01</ele>
  <time>2026-08-28T17:53:17Z</time>
  <course>273.01</course>
  <speed>2.70266535109325</speed>
  <fix>3d</fix>
</trkpt>
<trkpt lat="40.0713646" lon="-105.2297505">
  <ele>1583.0</ele>
  <time>2026-08-28T17:53:17Z</time>
  <course>271.22</course>
  <speed>2.87</speed>
  <fix>3d</fix>
</trkpt>
<trkpt lat="40.0713651" lon="-105.2297649">
  <ele>1583.01</ele>
  <time>2026-08-28T17:53:17Z</time>
  <course>273.42</course>
  <speed>2.603247971285102</speed>
  <fix>3d</fix>
</trkpt>
<trkpt lat="40.0713647" lon="-105.2297572">
  <ele>1583.0</ele>
  <time>2026-08-28T17:53:17Z</time>
  <course>271.92</course>
  <speed>2.75</speed>
  <fix>3d</fix>
</trkpt>
<trkpt lat="40.0713652" lon="-105.2297679">
  <ele>1583.01</ele>
  <time>2026-08-28T17:53:17Z</time>
  <course>273.87</course>
  <speed>2.49393263742227</speed>
  <fix>3d</fix>
</trkpt>
<trkpt lat="40.0713647" lon="-105.2297572">
  <ele>1583.0</ele>
  <time>2026-08-28T17:53:17Z</time>
  <course>271.92</course>
  <speed>2.75</speed>
  <fix>3d</fix>
</trkpt>
<trkpt lat="40.0713653" lon="-105.2297706">
  <ele>1583.01</ele>
  <time>2026-08-28T17:53:17Z</time>
  <course>274.34</course>
  <speed>2.3747420912595962</speed>
  <fix>3d</fix>
</trkpt>
<trkpt lat="40.0713649" lon="-105.2297634">
  <ele>1583.0</ele>
  <time>2026-08-28T17:53:17Z</time>
  <course>272.72</course>
  <speed>2.58</speed>
  <fix>3d</fix>
</trkpt>
<trkpt lat="40.0713655" lon="-105.2297733">
  <ele>1583.02</ele>
  <time>2026-08-28T17:53:17Z</time>
  <course>274.85</course>
  <speed>2.2357325421436256</speed>
  <fix>3d</fix>
</trkpt>
<trkpt lat="40.0713649" lon="-105.2297634">
  <ele>1583.0</ele>
  <time>2026-08-28T17:53:17Z</time>
  <course>272.72</course>
  <speed>2.58</speed>
  <fix>3d</fix>
</trkpt>
<trkpt lat="40.0713656" lon="-105.2297757">
  <ele>1583.02</ele>
  <time>2026-08-28T17:53:17Z</time>
  <course>275.4</course>
  <speed>2.10686971595303</speed>
  <fix>3d</fix>
</trkpt>
<trkpt lat="40.0713651" lon="-105.2297692">
  <ele>1583.0</ele>
  <time>2026-08-28T17:53:17Z</time>
  <course>273.63</course>
  <speed>2.35</speed>
  <fix>3d</fix>
</trkpt>
<trkpt lat="40.0713657" lon="-105.229778">
  <ele>1583.02</ele>
  <time>2026-08-28T17:53:17Z</time>
  <course>275.99</course>
  <speed>1.9582900704441106</speed>
  <fix>3d</fix>
</trkpt>
<trkpt lat="40.0713651" lon="-105.2297692">
  <ele>1583.0</ele>
  <time>2026-08-28T17:53:17Z</time>
  <course>273.63</course>
  <speed>2.35</speed>
  <fix>3d</fix>
</trkpt>
<trkpt lat="40.0713659" lon="-105.2297802">
  <ele>1583.02</ele>
  <time>2026-08-28T17:53:17Z</time>
  <course>276.65</course>
  <speed>1.8089776118017602</speed>
  <fix>3d</fix>
</trkpt>
<trkpt lat="40.0713654" lon="-105.2297744">
  <ele>1583.0</ele>
  <time>2026-08-28T17:53:17Z</time>
  <course>274.68</course>
  <speed>2.09</speed>
  <fix>3d</fix>
</trkpt>
<trkpt lat="40.071366" lon="-105.2297821">
  <ele>1583.02</ele>
  <time>2026-08-28T17:53:17Z</time>
  <course>277.38</course>
  <speed>1.660903368652132</speed>
  <fix>3d</fix>
</trkpt>
<trkpt lat="40.0713657" lon="-105.2297791">
  <ele>1583.0</ele>
  <time>2026-08-28T17:53:17Z</time>
  <course>275.93</course>
  <speed>1.81</speed>
  <fix>3d</fix>
</trkpt>
<trkpt lat="40.0713662" lon="-105.2297839">
  <ele>1583.02</ele>
  <time>2026-08-28T17:53:17Z</time>
  <course>278.2</course>
  <speed>1.5119854496654392</speed>
  <fix>3d</fix>
</trkpt>
<trkpt lat="40.0713657" lon="-105.2297791">
  <ele>1583.0</ele>
  <time>2026-08-28T17:53:17Z</time>
  <course>275.93</course>
  <speed>1.81</speed>
  <fix>3d</fix>
</trkpt>
<trkpt lat="40.0713663" lon="-105.2297855">
  <ele>1583.03</ele>
  <time>2026-08-28T17:53:17Z</time>
  <course>279.14</course>
  <speed>1.3633048081775403</speed>
  <fix>3d</fix>
</trkpt>
<trkpt lat="40.0713661" lon="-105.229783">
  <ele>1583.0</ele>
  <time>2026-08-28T17:53:17Z</time>
  <course>277.49</course>
  <speed>1.52</speed>
  <fix>3d</fix>
</trkpt>
<trkpt lat="40.0713665" lon="-105.229787">
  <ele>1583.03</ele>
  <time>2026-08-28T17:53:17Z</time>
  <course>280.25</course>
  <speed>1.2149485585818027</speed>
  <fix>3d</fix>
</trkpt>
<trkpt lat="40.0713661" lon="-105.229783">
  <ele>1583.0</ele>
  <time>2026-08-28T17:53:17Z</time>
  <course>277.49</course>
  <speed>1.52</speed>
  <fix>3d</fix>
</trkpt>
<trkpt lat="40.0713667" lon="-105.2297883">
  <ele>1583.03</ele>
  <time>2026-08-28T17:53:17Z</time>
  <course>281.53</course>
  <speed>1.067052013727541</speed>
  <fix>3d</fix>
</trkpt>
<trkpt lat="40.0713664" lon="-105.2297861">
  <ele>1583.0</ele>
  <time>2026-08-28T17:53:17Z</time>
  <course>279.52</course>
  <speed>1.24</speed>
  <fix>3d</fix>
</trkpt>
<trkpt lat="40.0713668" lon="-105.2297894">
  <ele>1583.03</ele>
  <time>2026-08-28T17:53:17Z</time>
  <course>282.9</course>
  <speed>0.9276313923105448</speed>
  <fix>3d</fix>
</trkpt>
<trkpt lat="40.0713664" lon="-105.2297861">
  <ele>1583.0</ele>
  <time>2026-08-28T17:53:17Z</time>
  <course>279.52</course>
  <speed>1.24</speed>
  <fix>3d</fix>
</trkpt>
<trkpt lat="40.071367" lon="-105.2297903">
  <ele>1583.03</ele>
  <time>2026-08-28T17:53:17Z</time>
  <course>284.25</course>
  <speed>0.7787810988975015</speed>
  <fix>3d</fix>
</trkpt>
<trkpt lat="40.0713668" lon="-105.2297887">
  <ele>1583.0</ele>
  <time>2026-08-28T17:53:17Z</time>
  <course>282.01</course>
  <speed>0.95</speed>
  <fix>3d</fix>
</trkpt>
<trkpt lat="40.0713672" lon="-105.2297911">
  <ele>1583.03</ele>
  <time>2026-08-28T17:53:17Z</time>
  <course>285.51</course>
  <speed>0.6476109943476871</speed>
  <fix>3d</fix>
</trkpt>
<trkpt lat="40.0713668" lon="-105.2297887">
  <ele>1583.0</ele>
  <time>2026-08-28T17:53:17Z</time>
  <course>282.01</course>
  <speed>0.95</speed>
  <fix>3d</fix>
</trkpt>
<trkpt lat="40.0713673" lon="-105.2297917">
  <ele>1583.03</ele>
  <time>2026-08-28T17:53:17Z</time>
  <course>286.6</course>
  <speed>0.5069516742254631</speed>
  <fix>3d</fix>
</trkpt>
<trkpt lat="40.0713672" lon="-105.2297906">
  <ele>1583.0</ele>
  <time>2026-08-28T17:53:17Z</time>
  <course>284.51</course>
  <speed>0.68</speed>
  <fix>3d</fix>
</trkpt>
<trkpt lat="40.0713674" lon="-105.2297922">
  <ele>1583.03</ele>
  <time>2026-08-28T17:53:17Z</time>
  <course>287.47</course>
  <speed>0.383275357934736</speed>
  <fix>3d</fix>
</trkpt>
<trkpt lat="40.0713672" lon="-105.2297906">
  <ele>1583.0</ele>
  <time>2026-08-28T17:53:17Z</time>
  <course>284.51</course>
  <speed>0.68</speed>
  <fix>3d</fix>
</trkpt>
<trkpt lat="40.0713675" lon="-105.2297925">
  <ele>1583.03</ele>
  <time>2026-08-28T17:53:17Z</time>
  <course>288.11</course>
  <speed>0.2596150997149434</speed>
  <fix>3d</fix>
</trkpt>
<trkpt lat="40.0713674" lon="-105.2297918">
  <ele>1583.0</ele>
  <time>2026-08-28T17:53:17Z</time>
  <course>286.45</course>
  <speed>0.42</speed>
  <fix>3d</fix>
</trkpt>
<trkpt lat="40.0713675" lon="-105.2297927">
  <ele>1583.03</ele>
  <time>2026-08-28T17:53:17Z</time>
  <course>288.54</course>
  <speed>0.13341664064126335</speed>
  <fix>3d</fix>
</trkpt>
<trkpt lat="40.0713674" lon="-105.2297918">
  <ele>1583.0</ele>
  <time>2026-08-28T17:53:17Z</time>
  <course>286.45</course>
  <speed>0.42</speed>
  <fix>3d</fix>
</trkpt>
<trkpt lat="40.0713676" lon="-105.2297928">
  <ele>1583.03</ele>
  <time>2026-08-28T17:53:17Z</time>
  <course>288.77</course>
  <speed>0.03</speed>
  <fix>3d</fix>
</trkpt>
<trkpt lat="40.0713676" lon="-105.2297925">
  <ele>1583.0</ele>
  <time>2026-08-28T17:53:17Z</time>
  <course>287.58</course>
  <speed>0.19</speed>
  <fix>3d</fix>
</trkpt>
<trkpt lat="40.0713676" lon="-105.2297928">
  <ele>1583.03</ele>
  <time>2026-08-28T17:53:17Z</time>
  <course>288.8</course>
  <speed>0.053851648071345036</speed>
  <fix>3d</fix>
</trkpt>
<trkpt lat="40.0713676" lon="-105.2297925">
  <ele>1583.0</ele>
  <time>2026-08-28T17:53:17Z</time>
  <course>287.58</course>
  <speed>0.19</speed>
  <fix>3d</fix>
</trkpt>
<trkpt lat="40.0713675" lon="-105.2297926">
  <ele>1583.03</ele>
  <time>2026-08-28T17:53:17Z</time>
  <course>288.86</course>
  <speed>0.1264911064067352</speed>
  <fix>3d</fix>
</trkpt>
<trkpt lat="40.0713676" lon="-105.2297925">
  <ele>1583.0</ele>
  <time>2026-08-28T17:53:17Z</time>
  <course>287.58</course>
  <speed>0.19</speed>
  <fix>3d</fix>
</trkpt>
<trkpt lat="40.0713675" lon="-105.2297925">
  <ele>1583.02</ele>
  <time>2026-08-28T17:53:17Z</time>
  <course>289.03</course>
  <speed>0.18973665961010278</speed>
  <fix>3d</fix>
</trkpt>
<trkpt lat="40.0713676" lon="-105.2297928">
  <ele>1583.0</ele>
  <time>2026-08-28T17:53:17Z</time>
  <course>287.55</course>
  <speed>0.0</speed>
  <fix>3d</fix>
</trkpt>
<trkpt lat="40.0713674" lon="-105.2297922">
  <ele>1583.02</ele>
  <time>2026-08-28T17:53:17Z</time>
  <course>289.27</course>
  <speed>0.2308679276123039</speed>
  <fix>3d</fix>
</trkpt>
<trkpt lat="40.0713676" lon="-105.2297928">
  <ele>1583.0</ele>
  <time>2026-08-28T17:53:17Z</time>
  <course>287.55</course>
  <speed>0.0</speed>
  <fix>3d</fix>
</trkpt>
<trkpt lat="40.0713674" lon="-105.229792">
  <ele>1583.02</ele>
  <time>2026-08-28T17:53:17Z</time>
  <course>289.55</course>
  <speed>0.2720294101747089</speed>
  <fix>3d</fix>
</trkpt>
<trkpt lat="40.0713676" lon="-105.2297926">
  <ele>1583.0</ele>
  <time>2026-08-28T17:53:17Z</time>
  <course>108.43</course>
  <speed>0.13</speed>
  <fix>3d</fix>
</trkpt>
<trkpt lat="40.0713674" lon="-105.2297917">
  <ele>1583.02</ele>
  <time>2026-08-28T17:53:17Z</time>
  <course>289.86</course>
  <speed>0.29410882339705485</speed>
  <fix>3d</fix>
</trkpt>
<trkpt lat="40.0713676" lon="-105.2297926">
  <ele>1583.0</ele>
  <time>2026-08-28T17:53:17Z</time>
  <course>108.43</course>
  <speed>0.13</speed>
  <fix>3d</fix>
</trkpt>
<trkpt lat="40.0713673" lon="-105.2297914">
  <ele>1583.02</ele>
  <time>2026-08-28T17:53:17Z</time>
  <course>290.0</course>
  <speed>0.30364452901377953</speed>
  <fix>3d</fix>
</trkpt>
<trkpt lat="40.0713675" lon="-105.2297922">
  <ele>1583.0</ele>
  <time>2026-08-28T17:53:17Z</time>
  <course>108.89</course>
  <speed>0.21</speed>
  <fix>3d</fix>
</trkpt>
<trkpt lat="40.0713672" lon="-105.2297911">
  <ele>1583.02</ele>
  <time>2026-08-28T17:53:17Z</time>
  <course>290.02</course>
  <speed>0.32572994949804657</speed>
  <fix>3d</fix>
</trkpt>
<trkpt lat="40.0713674" lon="-105.2297917">
  <ele>1583.0</ele>
  <time>2026-08-28T17:53:17Z</time>
  <course>109.24</course>
  <speed>0.26</speed>
  <fix>3d</fix>
</trkpt>
<trkpt lat="40.0713671" lon="-105.2297907">
  <ele>1583.02</ele>
  <time>2026-08-28T17:53:17Z</time>
  <course>290.09</course>
  <speed>0.3352610922848042</speed>
  <fix>3d</fix>
</trkpt>
<trkpt lat="40.0713674" lon="-105.2297917">
  <ele>1583.0</ele>
  <time>2026-08-28T17:53:17Z</time>
  <course>109.24</course>
  <speed>0.26</speed>
  <fix>3d</fix>
</trkpt>
<trkpt lat="40.0713671" lon="-105.2297904">
  <ele>1583.02</ele>
  <time>2026-08-28T17:53:17Z</time>
  <course>290.27</course>
  <speed>0.32572994949804657</speed>
  <fix>3d</fix>
</trkpt>
<trkpt lat="40.0713673" lon="-105.2297911">
  <ele>1583.0</ele>
  <time>2026-08-28T17:53:17Z</time>
  <course>109.44</course>
  <speed>0.28</speed>
  <fix>3d</fix>
</trkpt>
<trkpt lat="40.071367" lon="-105.2297901">
  <ele>1583.02</ele>
  <time>2026-08-28T17:53:17Z</time>
  <course>290.55</course>
  <speed>0.29120439557122074</speed>
  <fix>3d</fix>
</trkpt>
<trkpt lat="40.0713673" lon="-105.2297911">
  <ele>1583.0</ele>
  <time>2026-08-28T17:53:17Z</time>
  <course>109.44</course>
  <speed>0.28</speed>
  <fix>3d</fix>
</trkpt>
<trkpt lat="40.0713669" lon="-105.2297898">
  <ele>1583.01</ele>
  <time>2026-08-28T17:53:17Z</time>
  <course>290.89</course>
  <speed>0.23769728648009425</speed>
  <fix>3d</fix>
</trkpt>
<trkpt lat="40.0713672" lon="-105.2297906">
  <ele>1583.0</ele>
  <time>2026-08-28T17:53:17Z</time>
  <course>109.81</course>
  <speed>0.24</speed>
  <fix>3d</fix>
</trkpt>
<trkpt lat="40.0713669" lon="-105.2297896">
  <ele>1583.01</ele>
  <time>2026-08-28T17:53:17Z</time>
  <course>291.23</course>
  <speed>0.17464249196572978</speed>
  <fix>3d</fix>
</trkpt>
<trkpt lat="40.0713672" lon="-105.2297906">
  <ele>1583.0</ele>
  <time>2026-08-28T17:53:17Z</time>
  <course>109.81</course>
  <speed>0.24</speed>
  <fix>3d</fix>
</trkpt>
<trkpt lat="40.0713669" lon="-105.2297895">
  <ele>1583.01</ele>
  <time>2026-08-28T17:53:17Z</time>
  <course>291.49</course>
  <speed>0.11045361017187261</speed>
  <fix>3d</fix>
</trkpt>
<trkpt lat="40.071367" lon="-105.2297901">
  <ele>1583.0</ele>
  <time>2026-08-28T17:53:17Z</time>
  <course>110.32</course>
  <speed>0.13</speed>
  <fix>3d</fix>
</trkpt>
<trkpt lat="40.0713669" lon="-105.2297895">
  <ele>1583.01</ele>
  <time>2026-08-28T17:53:17Z</time>
  <course>291.61</course>
  <speed>0.0412310562561766</speed>
  <fix>3d</fix>
</trkpt>
<trkpt lat="40.071367" lon="-105.2297901">
  <ele>1583.0</ele>
  <time>2026-08-28T17:53:17Z</time>
  <course>110.32</course>
  <speed>0.13</speed>
  <fix>3d</fix>
</trkpt>
<trkpt lat="40.0713669" lon="-105.2297895">
  <ele>1583.01</ele>
  <time>2026-08-28T17:53:17Z</time>
  <course>291.66</course>
  <speed>0.0316227766016838</speed>
  <fix>3d</fix>
</trkpt>
<trkpt lat="40.0713669" lon="-105.22979">
  <ele>1583.0</ele>
  <time>2026-08-28T17:53:17Z</time>
  <course>103.07</course>
  <speed>0.0</speed>
  <fix>3d</fix>
</trkpt>
<trkpt lat="40.071367" lon="-105.2297896">
  <ele>1583.01</ele>
  <time>2026-08-28T17:53:17Z</time>
  <course>292.14</course>
  <speed>0.09219544457292887</speed>
  <fix>3d</fix>
</trkpt>
<trkpt lat="40.0713669" lon="-105.22979">
  <ele>1583.0</ele>
  <time>2026-08-28T17:53:17Z</time>
  <course>103.07</course>
  <speed>0.0</speed>
  <fix>3d</fix>
</trkpt>
<trkpt lat="40.0713671" lon="-105.2297898">
  <ele>1583.01</ele>
  <time>2026-08-28T17:53:17Z</time>
  <course>292.99</course>
  <speed>0.15811388300841897</speed>
  <fix>3d</fix>
</trkpt>
<trkpt lat="40.0713669" lon="-105.2297901">
  <ele>1583.0</ele>
  <time>2026-08-28T17:53:17Z</time>
  <course>291.95</course>
  <speed>0.12</speed>
  <fix>3d</fix>
</trkpt>
<trkpt lat="40.0713671" lon="-105.22979">
  <ele>1583.01</ele>
  <time>2026-08-28T17:53:17Z</time>
  <course>294.19</course>
  <speed>0.22472205054244232</speed>
  <fix>3d</fix>
</trkpt>
<trkpt lat="40.0713669" lon="-105.2297901">
  <ele>1583.0</ele>
  <time>2026-08-28T17:53:17Z</time>
  <course>291.95</course>
  <speed>0.12</speed>
  <fix>3d</fix>
</trkpt>
<trkpt lat="40.0713672" lon="-105.2297903">
  <ele>1583.01</ele>
  <time>2026-08-28T17:53:17Z</time>
  <course>295.7</course>
  <speed>0.2968164415931166</speed>
  <fix>3d</fix>
</trkpt>
<trkpt lat="40.071367" lon="-105.2297904">
  <ele>1583.0</ele>
  <time>2026-08-28T17:53:17Z</time>
  <course>293.97</course>
  <speed>0.25</speed>
  <fix>3d</fix>
</trkpt>
<trkpt lat="40.0713674" lon="-105.2297907">
  <ele>1583.01</ele>
  <time>2026-08-28T17:53:17Z</time>
  <course>297.46</course>
  <speed>0.3689173349139343</speed>
  <fix>3d</fix>
</trkpt>
<trkpt lat="40.071367" lon="-105.2297904">
  <ele>1583.0</ele>
  <time>2026-08-28T17:53:17Z</time>
  <course>293.97</course>
  <speed>0.25</speed>
  <fix>3d</fix>
</trkpt>
<trkpt lat="40.0713676" lon="-105.2297912">
  <ele>1583.01</ele>
  <time>2026-08-28T17:53:17Z</time>
  <course>299.69</course>
  <speed>0.4382921400162225</speed>
  <fix>3d</fix>
</trkpt>
<trkpt lat="40.071367" lon="-105.2297904">
  <ele>1583.0</ele>
  <time>2026-08-28T17:53:17Z</time>
  <course>293.97</course>
  <speed>0.25</speed>
  <fix>3d</fix>
</trkpt>
<trkpt lat="40.0713678" lon="-105.2297917">
  <ele>1583.01</ele>
  <time>2026-08-28T17:53:17Z</time>
  <course>302.51</course>
  <speed>0.5060632371551997</speed>
  <fix>3d</fix>
</trkpt>
<trkpt lat="40.0713673" lon="-105.2297911">
  <ele>1583.0</ele>
  <time>2026-08-28T17:53:17Z</time>
  <course>297.33</course>
  <speed>0.38</speed>
  <fix>3d</fix>
</trkpt>
<trkpt lat="40.0713681" lon="-105.2297922">
  <ele>1583.01</ele>
  <time>2026-08-28T17:53:17Z</time>
  <course>305.96</course>
  <speed>0.5889821729050889</speed>
  <fix>3d</fix>
</trkpt>
<trkpt lat="40.0713673" lon="-105.2297911">
  <ele>1583.0</ele>
  <time>2026-08-28T17:53:17Z</time>
  <course>297.33</course>
  <speed>0.38</speed>
  <fix>3d</fix>
</trkpt>
<trkpt lat="40.0713685" lon="-105.2297928">
  <ele>1583.01</ele>
  <time>2026-08-28T17:53:17Z</time>
  <course>309.98</course>
  <speed>0.6648308055437865</speed>
  <fix>3d</fix>
</trkpt>
<trkpt lat="40.0713677" lon="-105.2297921">
  <ele>1583.0</ele>
  <time>2026-08-28T17:53:17Z</time>
  <course>302.56</course>
  <speed>0.52</speed>
  <fix>3d</fix>
</trkpt>
<trkpt lat="40.0713689" lon="-105.2297935">
  <ele>1583.02</ele>
  <time>2026-08-28T17:53:17Z</time>
  <course>314.52</course>
  <speed>0.757429864739964</speed>
  <fix>3d</fix>
</trkpt>
<trkpt lat="40.0713677" lon="-105.2297921">
  <ele>1583.0</ele>
  <time>2026-08-28T17:53:17Z</time>
  <course>302.56</course>
  <speed>0.52</speed>
  <fix>3d</fix>
</trkpt>
<trkpt lat="40.0713695" lon="-105.2297941">
  <ele>1583.02</ele>
  <time>2026-08-28T17:53:17Z</time>
  <course>319.61</course>
  <speed>0.8560373823613078</speed>
  <fix>3d</fix>
</trkpt>
<trkpt lat="40.0713684" lon="-105.2297931">
  <ele>1583.0</ele>
  <time>2026-08-28T17:53:17Z</time>
  <course>310.08</course>
  <speed>0.67</speed>
  <fix>3d</fix>
</trkpt>
<trkpt lat="40.0713701" lon="-105.2297948">
  <ele>1583.02</ele>
  <time>2026-08-28T17:53:17Z</time>
  <course>325.16</course>
  <speed>0.9487360012142472</speed>
  <fix>3d</fix>
</trkpt>
<trkpt lat="40.0713684" lon="-105.2297931">
  <ele>1583.0</ele>
  <time>2026-08-28T17:53:17Z</time>
  <course>310.08</course>
  <speed>0.67</speed>
  <fix>3d</fix>
</trkpt>
<trkpt lat="40.0713709" lon="-105.2297954">
  <ele>1583.02</ele>
  <time>2026-08-28T17:53:17Z</time>
  <course>330.41</course>
  <speed>1.055461984156701</speed>
  <fix>3d</fix>
</trkpt>
<trkpt lat="40.0713693" lon="-105.2297944">
  <ele>1583.0</ele>
  <time>2026-08-28T17:53:17Z</time>
  <course>319.76</course>
  <speed>0.84</speed>
  <fix>3d</fix>
</trkpt>
<trkpt lat="40.0713718" lon="-105.229796">
  <ele>1583.02</ele>
  <time>2026-08-28T17:53:17Z</time>
  <course>334.89</course>
  <speed>1.1646887996370532</speed>
  <fix>3d</fix>
</trkpt>
<trkpt lat="40.0713707" lon="-105.2297957">
  <ele>1583.0</ele>
  <time>2026-08-28T17:53:17Z</time>
  <course>329.81</course>
  <speed>1.04</speed>
  <fix>3d</fix>
</trkpt>
<trkpt lat="40.0713728" lon="-105.2297966">
  <ele>1583.02</ele>
  <time>2026-08-28T17:53:17Z</time>
  <course>338.72</course>
  <speed>1.2747156545677156</speed>
  <fix>3d</fix>
</trkpt>
<trkpt lat="40.0713707" lon="-105.2297957">
  <ele>1583.0</ele>
  <time>2026-08-28T17:53:17Z</time>
  <course>329.81</course>
  <speed>1.04</speed>
  <fix>3d</fix>
</trkpt>
<trkpt lat="40.071374" lon="-105.2297971">
  <ele>1583.02</ele>
  <time>2026-08-28T17:53:17Z</time>
  <course>341.98</course>
  <speed>1.386001443000692</speed>
  <fix>3d</fix>
</trkpt>
<trkpt lat="40.0713725" lon="-105.2297969">
  <ele>1583.0</ele>
  <time>2026-08-28T17:53:17Z</time>
  <course>338.04</course>
  <speed>1.25</speed>
  <fix>3d</fix>
</trkpt>
<trkpt lat="40.0713752" lon="-105.2297976">
  <ele>1583.02</ele>
  <time>2026-08-28T17:53:17Z</time>
  <course>344.78</course>
  <speed>1.5037286989347514</speed>
  <fix>3d</fix>
</trkpt>
<trkpt lat="40.0713725" lon="-105.2297969">
  <ele>1583.0</ele>
  <time>2026-08-28T17:53:17Z</time>
  <course>338.04</course>
  <speed>1.25</speed>
  <fix>3d</fix>
</trkpt>
<trkpt lat="40.0713766" lon="-105.229798">
  <ele>1583.02</ele>
  <time>2026-08-28T17:53:17Z</time>
  <course>347.26</course>
  <speed>1.6120794025109308</speed>
  <fix>3d</fix>
</trkpt>
<trkpt lat="40.0713748" lon="-105.2297979">
  <ele>1583.0</ele>
  <time>2026-08-28T17:53:17Z</time>
  <course>344.12</course>
  <speed>1.47</speed>
  <fix>3d</fix>
</trkpt>
<trkpt lat="40.0713781" lon="-105.2297985">
  <ele>1583.02</ele>
  <time>2026-08-28T17:53:17Z</time>
  <course>349.38</course>
  <speed>1.7245579143653018</speed>
  <fix>3d</fix>
</trkpt>
<trkpt lat="40.0713748" lon="-105.2297979">
  <ele>1583.0</ele>
  <time>2026-08-28T17:53:17Z</time>
  <course>344.12</course>
  <speed>1.47</speed>
  <fix>3d</fix>
</trkpt>
<trkpt lat="40.0713797" lon="-105.2297988">
  <ele>1583.01</ele>
  <time>2026-08-28T17:53:17Z</time>
  <course>351.2</course>
  <speed>1.827183625145541</speed>
  <fix>3d</fix>
</trkpt>
<trkpt lat="40.0713777" lon="-105.2297988">
  <ele>1583.0</ele>
  <time>2026-08-28T17:53:17Z</time>
  <course>348.65</course>
  <speed>1.69</speed>
  <fix>3d</fix>
</trkpt>
<trkpt lat="40.0713814" lon="-105.2297992">
  <ele>1583.01</ele>
  <time>2026-08-28T17:53:17Z</time>
  <course>352.74</course>
  <speed>1.9424983912477252</speed>
  <fix>3d</fix>
</trkpt>
<trkpt lat="40.0713777" lon="-105.2297988">
  <ele>1583.0</ele>
  <time>2026-08-28T17:53:17Z</time>
  <course>348.65</course>
  <speed>1.69</speed>
  <fix>3d</fix>
</trkpt>
<trkpt lat="40.0713832" lon="-105.2297994">
  <ele>1583.01</ele>
  <time>2026-08-28T17:53:17Z</time>
  <course>354.07</course>
  <speed>2.0488289338058463</speed>
  <fix>3d</fix>
</trkpt>
<trkpt lat="40.0713808" lon="-105.2297995">
  <ele>1583.0</ele>
  <time>2026-08-28T17:53:17Z</time>
  <course>352.0</course>
  <speed>1.9</speed>
  <fix>3d</fix>
</trkpt>
<trkpt lat="40.0713851" lon="-105.2297997">
  <ele>1583.01</ele>
  <time>2026-08-28T17:53:17Z</time>
  <course>355.2</course>
  <speed>2.1559452683219953</speed>
  <fix>3d</fix>
</trkpt>
<trkpt lat="40.0713808" lon="-105.2297995">
  <ele>1583.0</ele>
  <time>2026-08-28T17:53:17Z</time>
  <course>352.0</course>
  <speed>1.9</speed>
  <fix>3d</fix>
</trkpt>
<trkpt lat="40.0713871" lon="-105.2297999">
  <ele>1583.01</ele>
  <time>2026-08-28T17:53:17Z</time>
  <course>356.17</course>
  <speed>2.263735850314696</speed>
  <fix>3d</fix>
</trkpt>
<trkpt lat="40.0713845" lon="-105.2298">
  <ele>1583.0</ele>
  <time>2026-08-28T17:53:17Z</time>
  <course>354.46</course>
  <speed>2.12</speed>
  <fix>3d</fix>
</trkpt>
<trkpt lat="40.0713892" lon="-105.2298001">
  <ele>1583.01</ele>
  <time>2026-08-28T17:53:17Z</time>
  <course>357.0</course>
  <speed>2.37255136930689</speed>
  <fix>3d</fix>
</trkpt>
<trkpt lat="40.0713845" lon="-105.2298">
  <ele>1583.0</ele>
  <time>2026-08-28T17:53:17Z</time>
  <course>354.46</course>
  <speed>2.12</speed>
  <fix>3d</fix>
</trkpt>
<trkpt lat="40.0713913" lon="-105.2298002">
  <ele>1583.01</ele>
  <time>2026-08-28T17:53:17Z</time>
  <course>357.71</course>
  <speed>2.481289987083332</speed>
  <fix>3d</fix>
</trkpt>
<trkpt lat="40.0713885" lon="-105.2298004">
  <ele>1583.0</ele>
  <time>2026-08-28T17:53:17Z</time>
  <course>356.27</course>
  <speed>2.34</speed>
  <fix>3d</fix>
</trkpt>
<trkpt lat="40.0713936" lon="-105.2298004">
  <ele>1583.01</ele>
  <time>2026-08-28T17:53:17Z</time>
  <course>358.33</course>
  <speed>2.590694887477103</speed>
  <fix>3d</fix>
</trkpt>
<trkpt lat="40.0713885" lon="-105.2298004">
  <ele>1583.0</ele>
  <time>2026-08-28T17:53:17Z</time>
  <course>356.27</course>
  <speed>2.34</speed>
  <fix>3d</fix>
</trkpt>
<trkpt lat="40.071396" lon="-105.2298005">
  <ele>1583.01</ele>
  <time>2026-08-28T17:53:17Z</time>
  <course>358.85</course>
  <speed>2.700296280040396</speed>
  <fix>3d</fix>
</trkpt>
<trkpt lat="40.0713885" lon="-105.2298004">
  <ele>1583.0</ele>
  <time>2026-08-28T17:53:17Z</time>
  <course>356.27</course>
  <speed>2.34</speed>
  <fix>3d</fix>
</trkpt>
<trkpt lat="40.0713985" lon="-105.2298006">
  <ele>1583.02</ele>
  <time>2026-08-28T17:53:17Z</time>
  <course>359.3</course>
  <speed>2.8101601377857457</speed>
  <fix>3d</fix>
</trkpt>
<trkpt lat="40.0713929" lon="-105.2298007">
  <ele>1583.0</ele>
  <time>2026-08-28T17:53:17Z</time>
  <course>357.61</course>
  <speed>2.55</speed>
  <fix>3d</fix>
</trkpt>
<trkpt lat="40.0714011" lon="-105.2298006">
  <ele>1583.02</ele>
  <time>2026-08-28T17:53:17Z</time>
  <course>359.7</course>
  <speed>2.9100171820798586</speed>
  <fix>3d</fix>
</trkpt>
<trkpt lat="40.0713929" lon="-105.2298007">
  <ele>1583.0</ele>
  <time>2026-08-28T17:53:17Z</time>
  <course>357.61</course>
  <speed>2.55</speed>
  <fix>3d</fix>
</trkpt>
<trkpt lat="40.0714037" lon="-105.2298007">
  <ele>1583.02</ele>
  <time>2026-08-28T17:53:17Z</time>
  <course>0.03</course>
  <speed>3.02</speed>
  <fix>3d</fix>
</trkpt>
<trkpt lat="40.0713977" lon="-105.2298009">
  <ele>1583.0</ele>
  <time>2026-08-28T17:53:17Z</time>
  <course>358.6</course>
  <speed>2.77</speed>
  <fix>3d</fix>
</trkpt>
<trkpt lat="40.0714064" lon="-105.2298007">
  <ele>1583.02</ele>
  <time>2026-08-28T17:53:17Z</time>
  <course>0.34</course>
  <speed>3.1100160771288627</speed>
  <fix>3d</fix>
</trkpt>
<trkpt lat="40.0713977" lon="-105.2298009">
  <ele>1583.0</ele>
  <time>2026-08-28T17:53:17Z</time>
  <course>358.6</course>
  <speed>2.77</speed>
  <fix>3d</fix>
</trkpt>
<trkpt lat="40.0714092" lon="-105.2298008">
  <ele>1583.02</ele>
  <time>2026-08-28T17:53:17Z</time>
  <course>0.63</course>
  <speed>3.2001406219102306</speed>
  <fix>3d</fix>
</trkpt>
<trkpt lat="40.0714028" lon="-105.229801">
  <ele>1583.0</ele>
  <time>2026-08-28T17:53:17Z</time>
  <course>359.35</course>
  <speed>2.98</speed>
  <fix>3d</fix>
</trkpt>
<trkpt lat="40.0714121" lon="-105.2298008">
  <ele>1583.02</ele>
  <time>2026-08-28T17:53:17Z</time>
  <course>0.88</course>
  <speed>3.270244639166923</speed>
  <fix>3d</fix>
</trkpt>
<trkpt lat="40.0714083" lon="-105.229801">
  <ele>1583.0</ele>
  <time>2026-08-28T17:53:17Z</time>
  <course>359.95</course>
  <speed>3.16</speed>
  <fix>3d</fix>
</trkpt>
<trkpt lat="40.0714151" lon="-105.2298008">
  <ele>1583.02</ele>
  <time>2026-08-28T17:53:17Z</time>
  <course>1.11</course>
  <speed>3.3303753542206023</speed>
  <fix>3d</fix>
</trkpt>
<trkpt lat="40.0714083" lon="-105.229801">
  <ele>1583.0</ele>
  <time>2026-08-28T17:53:17Z</time>
  <course>359.95</course>
  <speed>3.16</speed>
  <fix>3d</fix>
</trkpt>
<trkpt lat="40.0714181" lon="-105.2298007">
  <ele>1583.01</ele>
  <time>2026-08-28T17:53:17Z</time>
  <course>1.33</course>
  <speed>3.3807247743642193</speed>
  <fix>3d</fix>
</trkpt>
<trkpt lat="40.0714141" lon="-105.229801">
  <ele>1583.0</ele>
  <time>2026-08-28T17:53:17Z</time>
  <course>0.45</course>
  <speed>3.29</speed>
  <fix>3d</fix>
</trkpt>
<trkpt lat="40.0714211" lon="-105.2298007">
  <ele>1583.01</ele>
  <time>2026-08-28T17:53:17Z</time>
  <course>1.54</course>
  <speed>3.4109382873338534</speed>
  <fix>3d</fix>
</trkpt>
<trkpt lat="40.0714141" lon="-105.229801">
  <ele>1583.0</ele>
  <time>2026-08-28T17:53:17Z</time>
  <course>0.45</course>
  <speed>3.29</speed>
  <fix>3d</fix>
</trkpt>
<trkpt lat="40.0714242" lon="-105.2298006">
  <ele>1583.01</ele>
  <time>2026-08-28T17:53:17Z</time>
  <course>1.72</course>
  <speed>3.431180554852805</speed>
  <fix>3d</fix>
</trkpt>
<trkpt lat="40.0714201" lon="-105.229801">
  <ele>1583.0</ele>
  <time>2026-08-28T17:53:17Z</time>
  <course>0.88</course>
  <speed>3.38</speed>
  <fix>3d</fix>
</trkpt>
<trkpt lat="40.0714273" lon="-105.2298005">
  <ele>1583.01</ele>
  <time>2026-08-28T17:53:17Z</time>
  <course>1.9</course>
  <speed>3.4414531814336806</speed>
  <fix>3d</fix>
</trkpt>
<trkpt lat="40.0714201" lon="-105.229801">
  <ele>1583.0</ele>
  <time>2026-08-28T17:53:17Z</time>
  <course>0.88</course>
  <speed>3.38</speed>
  <fix>3d</fix>
</trkpt>
<trkpt lat="40.0714304" lon="-105.2298004">
  <ele>1583.02</ele>
  <time>2026-08-28T17:53:17Z</time>
  <course>2.09</course>
  <speed>3.4317633951075357</speed>
  <fix>3d</fix>
</trkpt>
<trkpt lat="40.0714263" lon="-105.2298009">
  <ele>1583.0</ele>
  <time>2026-08-28T17:53:17Z</time>
  <course>1.26</course>
  <speed>3.4</speed>
  <fix>3d</fix>
</trkpt>
<trkpt lat="40.0714335" lon="-105.2298003">
  <ele>1583.02</ele>
  <time>2026-08-28T17:53:17Z</time>
  <course>2.27</course>
  <speed>3.4017789463749697</speed>
  <fix>3d</fix>
</trkpt>
<trkpt lat="40.0714263" lon="-105.2298009">
  <ele>1583.0</ele>
  <time>2026-08-28T17:53:17Z</time>
  <course>1.26</course>
  <speed>3.4</speed>
  <fix>3d</fix>
</trkpt>
<trkpt lat="40.0714365" lon="-105.2298002">
  <ele>1583.02</ele>
  <time>2026-08-28T17:53:17Z</time>
  <course>2.45</course>
  <speed>3.362142174269256</speed>
  <fix>3d</fix>
</trkpt>
<trkpt lat="40.0714324" lon="-105.2298007">
  <ele>1583.0</ele>
  <time>2026-08-28T17:53:17Z</time>
  <course>1.62</course>
  <speed>3.37</speed>
  <fix>3d</fix>
</trkpt>
<trkpt lat="40.0714395" lon="-105.2298001">
  <ele>1583.02</ele>
  <time>2026-08-28T17:53:17Z</time>
  <course>2.66</course>
  <speed>3.3025596133908017</speed>
  <fix>3d</fix>
</trkpt>
<trkpt lat="40.0714324" lon="-105.2298007">
  <ele>1583.0</ele>
  <time>2026-08-28T17:53:17Z</time>
  <course>1.62</course>
  <speed>3.37</speed>
  <fix>3d</fix>
</trkpt>
<trkpt lat="40.0714425" lon="-105.2298">
  <ele>1583.02</ele>
  <time>2026-08-28T17:53:17Z</time>
  <course>2.88</course>
  <speed>3.2330326320654423</speed>
  <fix>3d</fix>
</trkpt>
<trkpt lat="40.0714383" lon="-105.2298005">
  <ele>1583.0</ele>
  <time>2026-08-28T17:53:17Z</time>
  <course>2.02</course>
  <speed>3.27</speed>
  <fix>3d</fix>
</trkpt>
<trkpt lat="40.0714453" lon="-105.2297998">
  <ele>1583.03</ele>
  <time>2026-08-28T17:53:17Z</time>
  <course>3.1</course>
  <speed>3.1435807608521844</speed>
  <fix>3d</fix>
</trkpt>
<trkpt lat="40.0714383" lon="-105.2298005">
  <ele>1583.0</ele>
  <time>2026-08-28T17:53:17Z</time>
  <course>2.02</course>
  <speed>3.27</speed>
  <fix>3d</fix>
</trkpt>
<trkpt lat="40.0714481" lon="-105.2297997">
  <ele>1583.03</ele>
  <time>2026-08-28T17:53:17Z</time>
  <course>3.35</course>
  <speed>3.0436984081869873</speed>
  <fix>3d</fix>
</trkpt>
<trkpt lat="40.071444" lon="-105.2298002">
  <ele>1583.0</ele>
  <time>2026-08-28T17:53:17Z</time>
  <course>2.47</course>
  <speed>3.12</speed>
  <fix>3d</fix>
</trkpt>
<trkpt lat="40.0714507" lon="-105.2297996">
  <ele>1583.03</ele>
  <time>2026-08-28T17:53:17Z</time>
  <course>3.61</course>
  <speed>2.9243802762294786</speed>
  <fix>3d</fix>
</trkpt>
<trkpt lat="40.071444" lon="-105.2298002">
  <ele>1583.0</ele>
  <time>2026-08-28T17:53:17Z</time>
  <course>2.47</course>
  <speed>3.12</speed>
  <fix>3d</fix>
</trkpt>
<trkpt lat="40.0714533" lon="-105.2297994">
  <ele>1583.03</ele>
  <time>2026-08-28T17:53:17Z</time>
  <course>3.88</course>
  <speed>2.804567702873297</speed>
  <fix>3d</fix>
</trkpt>
<trkpt lat="40.071444" lon="-105.2298002">
  <ele>1583.0</ele>
  <time>2026-08-28T17:53:17Z</time>
  <course>2.47</course>
  <speed>3.12</speed>
  <fix>3d</fix>
</trkpt>
<trkpt lat="40.0714557" lon="-105.2297992">
  <ele>1583.03</ele>
  <time>2026-08-28T17:53:17Z</time>
  <course>4.16</course>
  <speed>2.6654267950930484</speed>
  <fix>3d</fix>
</trkpt>
<trkpt lat="40.0714495" lon="-105.2297998">
  <ele>1583.0</ele>
  <time>2026-08-28T17:53:17Z</time>
  <course>2.98</course>
  <speed>2.91</speed>
  <fix>3d</fix>
</trkpt>
<trkpt lat="40.071458" lon="-105.229799">
  <ele>1583.03</ele>
  <time>2026-08-28T17:53:17Z</time>
  <course>4.45</course>
  <speed>2.525727617935077</speed>
  <fix>3d</fix>
</trkpt>
<trkpt lat="40.0714495" lon="-105.2297998">
  <ele>1583.0</ele>
  <time>2026-08-28T17:53:17Z</time>
  <course>2.98</course>
  <speed>2.91</speed>
  <fix>3d</fix>
</trkpt>
<trkpt lat="40.0714601" lon="-105.2297989">
  <ele>1583.03</ele>
  <time>2026-08-28T17:53:17Z</time>
  <course>4.76</course>
  <speed>2.386063704095094</speed>
  <fix>3d</fix>
</trkpt>
<trkpt lat="40.0714545" lon="-105.2297995">
  <ele>1583.0</ele>
  <time>2026-08-28T17:53:17Z</time>
  <course>3.53</course>
  <speed>2.65</speed>
  <fix>3d</fix>
</trkpt>
<trkpt lat="40.0714621" lon="-105.2297987">
  <ele>1583.04</ele>
  <time>2026-08-28T17:53:17Z</time>
  <course>5.1</course>
  <speed>2.2364704335179573</speed>
  <fix>3d</fix>
</trkpt>
<trkpt lat="40.0714545" lon="-105.2297995">
  <ele>1583.0</ele>
  <time>2026-08-28T17:53:17Z</time>
  <course>3.53</course>
  <speed>2.65</speed>
  <fix>3d</fix>
</trkpt>
<trkpt lat="40.071464" lon="-105.2297985">
  <ele>1583.04</ele>
  <time>2026-08-28T17:53:17Z</time>
  <course>5.46</course>
  <speed>2.086935552430884</speed>
  <fix>3d</fix>
</trkpt>
<trkpt lat="40.071459" lon="-105.229799">
  <ele>1583.0</ele>
  <time>2026-08-28T17:53:17Z</time>
  <course>4.14</course>
  <speed>2.38</speed>
  <fix>3d</fix>
</trkpt>
<trkpt lat="40.0714657" lon="-105.2297983">
  <ele>1583.04</ele>
  <time>2026-08-28T17:53:17Z</time>
  <course>5.85</course>
  <speed>1.9374725804511401</speed>
  <fix>3d</fix>
</trkpt>
<trkpt lat="40.071459" lon="-105.229799">
  <ele>1583.0</ele>
  <time>2026-08-28T17:53:17Z</time>
  <course>4.14</course>
  <speed>2.38</speed>
  <fix>3d</fix>
</trkpt>
<trkpt lat="40.0714674" lon="-105.2297981">
  <ele>1583.04</ele>
  <time>2026-08-28T17:53:17Z</time>
  <course>6.28</course>
  <speed>1.7880995498014085</speed>
  <fix>3d</fix>
</trkpt>
<trkpt lat="40.0714631" lon="-105.2297987">
  <ele>1583.0</ele>
  <time>2026-08-28T17:53:17Z</time>
  <course>4.83</course>
  <speed>2.09</speed>
  <fix>3d</fix>
</trkpt>
<trkpt lat="40.0714688" lon="-105.2297979">
  <ele>1583.04</ele>
  <time>2026-08-28T17:53:17Z</time>
  <course>6.76</course>
  <speed>1.6388410539158458</speed>
  <fix>3d</fix>
</trkpt>
<trkpt lat="40.0714665" lon="-105.2297983">
  <ele>1583.0</ele>
  <time>2026-08-28T17:53:17Z</time>
  <course>5.65</course>
  <speed>1.8</speed>
  <fix>3d</fix>
</trkpt>
<trkpt lat="40.0714702" lon="-105.2297977">
  <ele>1583.03</ele>
  <time>2026-08-28T17:53:17Z</time>
  <course>7.28</course>
  <speed>1.4886235252742717</speed>
  <fix>3d</fix>
</trkpt>
<trkpt lat="40.0714665" lon="-105.2297983">
  <ele>1583.0</ele>
  <time>2026-08-28T17:53:17Z</time>
  <course>5.65</course>
  <speed>1.8</speed>
  <fix>3d</fix>
</trkpt>
<trkpt lat="40.0714714" lon="-105.2297976">
  <ele>1583.03</ele>
  <time>2026-08-28T17:53:17Z</time>
  <course>7.87</course>
  <speed>1.3495184326269871</speed>
  <fix>3d</fix>
</trkpt>
<trkpt lat="40.0714695" lon="-105.2297979">
  <ele>1583.0</ele>
  <time>2026-08-28T17:53:17Z</time>
  <course>6.65</course>
  <speed>1.52</speed>
  <fix>3d</fix>
</trkpt>
<trkpt lat="40.0714725" lon="-105.2297974">
  <ele>1583.03</ele>
  <time>2026-08-28T17:53:17Z</time>
  <course>8.56</course>
  <speed>1.2106196760337244</speed>
  <fix>3d</fix>
</trkpt>
<trkpt lat="40.0714695" lon="-105.2297979">
  <ele>1583.0</ele>
  <time>2026-08-28T17:53:17Z</time>
  <course>6.65</course>
  <speed>1.52</speed>
  <fix>3d</fix>
</trkpt>
<trkpt lat="40.0714735" lon="-105.2297972">
  <ele>1583.03</ele>
  <time>2026-08-28T17:53:17Z</time>
  <course>9.35</course>
  <speed>1.0705606008068858</speed>
  <fix>3d</fix>
</trkpt>
<trkpt lat="40.071472" lon="-105.2297974">
  <ele>1583.0</ele>
  <time>2026-08-28T17:53:17Z</time>
  <course>7.92</course>
  <speed>1.24</speed>
  <fix>3d</fix>
</trkpt>
<trkpt lat="40.0714744" lon="-105.229797">
  <ele>1583.03</ele>
  <time>2026-08-28T17:53:17Z</time>
  <course>10.29</course>
  <speed>0.932148056909416</speed>
  <fix>3d</fix>
</trkpt>
<trkpt lat="40.071472" lon="-105.2297974">
  <ele>1583.0</ele>
  <time>2026-08-28T17:53:17Z</time>
  <course>7.92</course>
  <speed>1.24</speed>
  <fix>3d</fix>
</trkpt>
<trkpt lat="40.0714751" lon="-105.2297968">
  <ele>1583.03</ele>
  <time>2026-08-28T17:53:17Z</time>
  <course>11.22</course>
  <speed>0.8023091673413684</speed>
  <fix>3d</fix>
</trkpt>
<trkpt lat="40.0714739" lon="-105.2297971">
  <ele>1583.0</ele>
  <time>2026-08-28T17:53:17Z</time>
  <course>9.55</course>
  <speed>0.98</speed>
  <fix>3d</fix>
</trkpt>
<trkpt lat="40.0714758" lon="-105.2297967">
  <ele>1583.03</ele>
  <time>2026-08-28T17:53:17Z</time>
  <course>12.11</course>
  <speed>0.6824954212300622</speed>
  <fix>3d</fix>
</trkpt>
<trkpt lat="40.0714739" lon="-105.2297971">
  <ele>1583.0</ele>
  <time>2026-08-28T17:53:17Z</time>
  <course>9.55</course>
  <speed>0.98</speed>
  <fix>3d</fix>
</trkpt>
<trkpt lat="40.0714763" lon="-105.2297965">
  <ele>1583.03</ele>
  <time>2026-08-28T17:53:17Z</time>
  <course>12.96</course>
  <speed>0.5608921464952064</speed>
  <fix>3d</fix>
</trkpt>
<trkpt lat="40.0714755" lon="-105.2297967">
  <ele>1583.0</ele>
  <time>2026-08-28T17:53:17Z</time>
  <course>11.33</course>
  <speed>0.73</speed>
  <fix>3d</fix>
</trkpt>
<trkpt lat="40.0714767" lon="-105.2297964">
  <ele>1583.03</ele>
  <time>2026-08-28T17:53:17Z</time>
  <course>13.72</course>
  <speed>0.44147480109288234</speed>
  <fix>3d</fix>
</trkpt>
<trkpt lat="40.0714755" lon="-105.2297967">
  <ele>1583.0</ele>
  <time>2026-08-28T17:53:17Z</time>
  <course>11.33</course>
  <speed>0.73</speed>
  <fix>3d</fix>
</trkpt>
<trkpt lat="40.0714771" lon="-105.2297963">
  <ele>1583.03</ele>
  <time>2026-08-28T17:53:17Z</time>
  <course>14.32</course>
  <speed>0.327566787083184</speed>
  <fix>3d</fix>
</trkpt>
<trkpt lat="40.0714765" lon="-105.2297964">
  <ele>1583.0</ele>
  <time>2026-08-28T17:53:17Z</time>
  <course>12.86</course>
  <speed>0.49</speed>
  <fix>3d</fix>
</trkpt>
<trkpt lat="40.0714773" lon="-105.2297962">
  <ele>1583.03</ele>
  <time>2026-08-28T17:53:17Z</time>
  <course>14.77</course>
  <speed>0.215870331449229</speed>
  <fix>3d</fix>
</trkpt>
<trkpt lat="40.0714765" lon="-105.2297964">
  <ele>1583.0</ele>
  <time>2026-08-28T17:53:17Z</time>
  <course>12.86</course>
  <speed>0.49</speed>
  <fix>3d</fix>
</trkpt>
<trkpt lat="40.0714774" lon="-105.2297962">
  <ele>1583.04</ele>
  <time>2026-08-28T17:53:17Z</time>
  <course>15.06</course>
  <speed>0.11401754250991379</speed>
  <fix>3d</fix>
</trkpt>
<trkpt lat="40.0714765" lon="-105.2297964">
  <ele>1583.0</ele>
  <time>2026-08-28T17:53:17Z</time>
  <course>12.86</course>
  <speed>0.49</speed>
  <fix>3d</fix>
</trkpt>
<trkpt lat="40.0714775" lon="-105.2297961">
  <ele>1583.04</ele>
  <time>2026-08-28T17:53:17Z</time>
  <course>15.22</course>
  <speed>0.01</speed>
  <fix>3d</fix>
</trkpt>
<trkpt lat="40.0714772" lon="-105.2297962">
  <ele>1583.0</ele>
  <time>2026-08-28T17:53:17Z</time>
  <course>13.93</course>
  <speed>0.27</speed>
  <fix>3d</fix>
</trkpt>
<trkpt lat="40.0714775" lon="-105.2297961">
  <ele>1583.04</ele>
  <time>2026-08-28T17:53:17Z</time>
  <course>15.24</course>
  <speed>0.06082762530298219</speed>
  <fix>3d</fix>
</trkpt>
<trkpt lat="40.0714772" lon="-105.2297962">
  <ele>1583.0</ele>
  <time>2026-08-28T17:53:17Z</time>
  <course>13.93</course>
  <speed>0.27</speed>
  <fix>3d</fix>
</trkpt>
<trkpt lat="40.0714774" lon="-105.2297962">
  <ele>1583.04</ele>
  <time>2026-08-28T17:53:17Z</time>
  <course>15.29</course>
  <speed>0.13152946437965907</speed>
  <fix>3d</fix>
</trkpt>
<trkpt lat="40.0714775" lon="-105.2297961">
  <ele>1583.0</ele>
  <time>2026-08-28T17:53:17Z</time>
  <course>14.46</course>
  <speed>0.08</speed>
  <fix>3d</fix>
</trkpt>
<trkpt lat="40.0714772" lon="-105.2297962">
  <ele>1583.04</ele>
  <time>2026-08-28T17:53:17Z</time>
  <course>15.41</course>
  <speed>0.18439088914585774</speed>
  <fix>3d</fix>
</trkpt>
<trkpt lat="40.0714775" lon="-105.2297961">
  <ele>1583.0</ele>
  <time>2026-08-28T17:53:17Z</time>
  <course>14.46</course>
  <speed>0.08</speed>
  <fix>3d</fix>
</trkpt>
<trkpt lat="40.0714771" lon="-105.2297963">
  <ele>1583.04</ele>
  <time>2026-08-28T17:53:17Z</time>
  <course>15.59</course>
  <speed>0.2353720459187964</speed>
  <fix>3d</fix>
</trkpt>
<trkpt lat="40.0714776" lon="-105.2297961">
  <ele>1583.0</ele>
  <time>2026-08-28T17:53:17Z</time>
  <course>194.74</course>
  <speed>0.07</speed>
  <fix>3d</fix>
</trkpt>
<trkpt lat="40.071477" lon="-105.2297962">
  <ele>1583.04</ele>
  <time>2026-08-28T17:53:17Z</time>
  <course>15.79</course>
  <speed>0.2668332812825267</speed>
  <fix>3d</fix>
</trkpt>
<trkpt lat="40.0714776" lon="-105.2297961">
  <ele>1583.0</ele>
  <time>2026-08-28T17:53:17Z</time>
  <course>194.74</course>
  <speed>0.07</speed>
  <fix>3d</fix>
</trkpt>
<trkpt lat="40.0714767" lon="-105.2297963">
  <ele>1583.03</ele>
  <time>2026-08-28T17:53:17Z</time>
  <course>16.01</course>
  <speed>0.2863564212655271</speed>
  <fix>3d</fix>
</trkpt>
<trkpt lat="40.0714774" lon="-105.2297961">
  <ele>1583.0</ele>
  <time>2026-08-28T17:53:17Z</time>
  <course>194.99</course>
  <speed>0.17</speed>
  <fix>3d</fix>
</trkpt>
<trkpt lat="40.0714765" lon="-105.2297964">
  <ele>1583.03</ele>
  <time>2026-08-28T17:53:17Z</time>
  <course>16.3</course>
  <speed>0.29614185789921693</speed>
  <fix>3d</fix>
</trkpt>
<trkpt lat="40.071477" lon="-105.2297962">
  <ele>1583.0</ele>
  <time>2026-08-28T17:53:17Z</time>
  <course>195.41</course>
  <speed>0.23</speed>
  <fix>3d</fix>
</trkpt>
<trkpt lat="40.0714763" lon="-105.2297964">
  <ele>1583.03</ele>
  <time>2026-08-28T17:53:17Z</time>
  <course>16.75</course>
  <speed>0.29614185789921693</speed>
  <fix>3d</fix>
</trkpt>
<trkpt lat="40.071477" lon="-105.2297962">
  <ele>1583.0</ele>
  <time>2026-08-28T17:53:17Z</time>
  <course>195.41</course>
  <speed>0.23</speed>
  <fix>3d</fix>
</trkpt>
<trkpt lat="40.071476" lon="-105.2297965">
  <ele>1583.02</ele>
  <time>2026-08-28T17:53:17Z</time>
  <course>17.35</course>
  <speed>0.2863564212655271</speed>
  <fix>3d</fix>
</trkpt>
<trkpt lat="40.0714766" lon="-105.2297963">
  <ele>1583.0</ele>
  <time>2026-08-28T17:53:17Z</time>
  <course>196.16</course>
  <speed>0.24</speed>
  <fix>3d</fix>
</trkpt>
<trkpt lat="40.0714758" lon="-105.2297966">
  <ele>1583.02</ele>
  <time>2026-08-28T17:53:17Z</time>
  <course>18.08</course>
  <speed>0.2668332812825267</speed>
  <fix>3d</fix>
</trkpt>
<trkpt lat="40.0714766" lon="-105.2297963">
  <ele>1583.0</ele>
  <time>2026-08-28T17:53:17Z</time>
  <course>196.16</course>
  <speed>0.24</speed>
  <fix>3d</fix>
</trkpt>
<trkpt lat="40.0714756" lon="-105.2297966">
  <ele>1583.02</ele>
  <time>2026-08-28T17:53:17Z</time>
  <course>18.88</course>
  <speed>0.2353720459187964</speed>
  <fix>3d</fix>
</trkpt>
<trkpt lat="40.0714762" lon="-105.2297964">
  <ele>1583.0</ele>
  <time>2026-08-28T17:53:17Z</time>
  <course>197.37</course>
  <speed>0.21</speed>
  <fix>3d</fix>
</trkpt>
<trkpt lat="40.0714755" lon="-105.2297967">
  <ele>1583.02</ele>
  <time>2026-08-28T17:53:17Z</time>
  <course>19.66</course>
  <speed>0.19235384061671343</speed>
  <fix>3d</fix>
</trkpt>
<trkpt lat="40.0714762" lon="-105.2297964">
  <ele>1583.0</ele>
  <time>2026-08-28T17:53:17Z</time>
  <course>197.37</course>
  <speed>0.21</speed>
  <fix>3d</fix>
</trkpt>
<trkpt lat="40.0714754" lon="-105.2297967">
  <ele>1583.02</ele>
  <time>2026-08-28T17:53:17Z</time>
  <course>20.3</course>
  <speed>0.140356688476182</speed>
  <fix>3d</fix>
</trkpt>
<trkpt lat="40.0714759" lon="-105.2297966">
  <ele>1583.0</ele>
  <time>2026-08-28T17:53:17Z</time>
  <course>198.69</course>
  <speed>0.14</speed>
  <fix>3d</fix>
</trkpt>
<trkpt lat="40.0714753" lon="-105.2297967">
  <ele>1583.02</ele>
  <time>2026-08-28T17:53:17Z</time>
  <course>20.68</course>
  <speed>0.07</speed>
  <fix>3d</fix>
</trkpt>
<trkpt lat="40.0714759" lon="-105.2297966">
  <ele>1583.0</ele>
  <time>2026-08-28T17:53:17Z</time>
  <course>198.69</course>
  <speed>0.14</speed>
  <fix>3d</fix>
</trkpt>
<trkpt lat="40.0714753" lon="-105.2297966">
  <ele>1583.02</ele>
  <time>2026-08-28T17:53:17Z</time>
  <course>20.64</course>
  <speed>0.03</speed>
  <fix>3d</fix>
</trkpt>
<trkpt lat="40.0714757" lon="-105.2297967">
  <ele>1583.0</ele>
  <time>2026-08-28T17:53:17Z</time>
  <course>199.26</course>
  <speed>0.02</speed>
  <fix>3d</fix>
</trkpt>
<trkpt lat="40.0714754" lon="-105.2297966">
  <ele>1583.02</ele>
  <time>2026-08-28T17:53:17Z</time>
  <course>21.2</course>
  <speed>0.09899494936611665</speed>
  <fix>3d</fix>
</trkpt>
<trkpt lat="40.0714757" lon="-105.2297967">
  <ele>1583.0</ele>
  <time>2026-08-28T17:53:17Z</time>
  <course>199.26</course>
  <speed>0.02</speed>
  <fix>3d</fix>
</trkpt>
<trkpt lat="40.0714756" lon="-105.2297966">
  <ele>1583.02</ele>
  <time>2026-08-28T17:53:17Z</time>
  <course>22.34</course>
  <speed>0.194164878389476</speed>
  <fix>3d</fix>
</trkpt>
<trkpt lat="40.0714758" lon="-105.2297966">
  <ele>1583.0</ele>
  <time>2026-08-28T17:53:17Z</time>
  <course>21.39</course>
  <speed>0.13</speed>
  <fix>3d</fix>
</trkpt>
<trkpt lat="40.0714757" lon="-105.2297964">
  <ele>1583.02</ele>
  <time>2026-08-28T17:53:17Z</time>
  <course>24.12</course>
  <speed>0.30528675044947495</speed>
  <fix>3d</fix>
</trkpt>
<trkpt lat="40.0714758" lon="-105.2297966">
  <ele>1583.0</ele>
  <time>2026-08-28T17:53:17Z</time>
  <course>21.39</course>
  <speed>0.13</speed>
  <fix>3d</fix>
</trkpt>
<trkpt lat="40.0714761" lon="-105.2297962">
  <ele>1583.02</ele>
  <time>2026-08-28T17:53:17Z</time>
  <course>26.61</course>
  <speed>0.42720018726587655</speed>
  <fix>3d</fix>
</trkpt>
<trkpt lat="40.0714762" lon="-105.2297964">
  <ele>1583.0</ele>
  <time>2026-08-28T17:53:17Z</time>
  <course>24.49</course>
  <speed>0.33</speed>
  <fix>3d</fix>
</trkpt>
<trkpt lat="40.0714765" lon="-105.2297958">
  <ele>1583.02</ele>
  <time>2026-08-28T17:53:17Z</time>
  <course>29.85</course>
  <speed>0.560357029044876</speed>
  <fix>3d</fix>
</trkpt>
<trkpt lat="40.0714762" lon="-105.2297964">
  <ele>1583.0</ele>
  <time>2026-08-28T17:53:17Z</time>
  <course>24.49</course>
  <speed>0.33</speed>
  <fix>3d</fix>
</trkpt>
<trkpt lat="40.071477" lon="-105.2297954">
  <ele>1583.02</ele>
  <time>2026-08-28T17:53:17Z</time>
  <course>33.87</course>
  <speed>0.6841052550594828</speed>
  <fix>3d</fix>
</trkpt>
<trkpt lat="40.0714762" lon="-105.2297964">
  <ele>1583.0</ele>
  <time>2026-08-28T17:53:17Z</time>
  <course>24.49</course>
  <speed>0.33</speed>
  <fix>3d</fix>
</trkpt>
<trkpt lat="40.0714776" lon="-105.2297948">
  <ele>1583.02</ele>
  <time>2026-08-28T17:53:17Z</time>
  <course>38.72</course>
  <speed>0.8280700453464067</speed>
  <fix>3d</fix>
</trkpt>
<trkpt lat="40.0714768" lon="-105.229796">
  <ele>1583.0</ele>
  <time>2026-08-28T17:53:17Z</time>
  <course>30.38</course>
  <speed>0.57</speed>
  <fix>3d</fix>
</trkpt>
<trkpt lat="40.0714782" lon="-105.2297941">
  <ele>1583.02</ele>
  <time>2026-08-28T17:53:17Z</time>
  <course>44.42</course>
  <speed>0.9626006440887103</speed>
  <fix>3d</fix>
</trkpt>
<trkpt lat="40.0714768" lon="-105.229796">
  <ele>1583.0</ele>
  <time>2026-08-28T17:53:17Z</time>
  <course>30.38</course>
  <speed>0.57</speed>
  <fix>3d</fix>
</trkpt>
<trkpt lat="40.0714789" lon="-105.2297932">
  <ele>1583.02</ele>
  <time>2026-08-28T17:53:17Z</time>
  <course>50.58</course>
  <speed>1.1080162453682707</speed>
  <fix>3d</fix>
</trkpt>
<trkpt lat="40.0714779" lon="-105.229795">
  <ele>1583.0</ele>
  <time>2026-08-28T17:53:17Z</time>
  <course>39.36</course>
  <speed>0.82</speed>
  <fix>3d</fix>
</trkpt>
<trkpt lat="40.0714795" lon="-105.229792">
  <ele>1583.01</ele>
  <time>2026-08-28T17:53:17Z</time>
  <course>55.98</course>
  <speed>1.2486793023030374</speed>
  <fix>3d</fix>
</trkpt>
<trkpt lat="40.0714779" lon="-105.229795">
  <ele>1583.0</ele>
  <time>2026-08-28T17:53:17Z</time>
  <course>39.36</course>
  <speed>0.82</speed>
  <fix>3d</fix>
</trkpt>
<trkpt lat="40.0714801" lon="-105.2297907">
  <ele>1583.01</ele>
  <time>2026-08-28T17:53:17Z</time>
  <course>60.72</course>
  <speed>1.3865424623862048</speed>
  <fix>3d</fix>
</trkpt>
<trkpt lat="40.0714791" lon="-105.2297935">
  <ele>1583.0</ele>
  <time>2026-08-28T17:53:17Z</time>
  <course>50.28</course>
  <speed>1.09</speed>
  <fix>3d</fix>
</trkpt>
<trkpt lat="40.0714807" lon="-105.2297891">
  <ele>1583.01</ele>
  <time>2026-08-28T17:53:17Z</time>
  <course>64.92</course>
  <speed>1.5231546211727818</speed>
  <fix>3d</fix>
</trkpt>
<trkpt lat="40.0714804" lon="-105.2297911">
  <ele>1583.0</ele>
  <time>2026-08-28T17:53:17Z</time>
  <course>60.23</course>
  <speed>1.36</speed>
  <fix>3d</fix>
</trkpt>
<trkpt lat="40.0714813" lon="-105.2297874">
  <ele>1583.0</ele>
  <time>2026-08-28T17:53:17Z</time>
  <course>68.74</course>
  <speed>1.6480594649465778</speed>
  <fix>3d</fix>
</trkpt>
<trkpt lat="40.0714804" lon="-105.2297911">
  <ele>1583.0</ele>
  <time>2026-08-28T17:53:17Z</time>
  <course>60.23</course>
  <speed>1.36</speed>
  <fix>3d</fix>
</trkpt>
<trkpt lat="40.0714818" lon="-105.2297855">
  <ele>1583.0</ele>
  <time>2026-08-28T17:53:17Z</time>
  <course>72.04</course>
  <speed>1.7624131184259835</speed>
  <fix>3d</fix>
</trkpt>
<trkpt lat="40.0714815" lon="-105.2297879">
  <ele>1583.0</ele>
  <time>2026-08-28T17:53:17Z</time>
  <course>68.05</course>
  <speed>1.61</speed>
  <fix>3d</fix>
</trkpt>
<trkpt lat="40.0714823" lon="-105.2297834">
  <ele>1583.0</ele>
  <time>2026-08-28T17:53:17Z</time>
  <course>74.85</course>
  <speed>1.8748066566982313</speed>
  <fix>3d</fix>
</trkpt>
<trkpt lat="40.0714815" lon="-105.2297879">
  <ele>1583.0</ele>
  <time>2026-08-28T17:53:17Z</time>
  <course>68.05</course>
  <speed>1.61</speed>
  <fix>3d</fix>
</trkpt>
<trkpt lat="40.0714827" lon="-105.2297812">
  <ele>1583.0</ele>
  <time>2026-08-28T17:53:17Z</time>
  <course>77.3</course>
  <speed>1.9906029237394385</speed>
  <fix>3d</fix>
</trkpt>
<trkpt lat="40.0714825" lon="-105.229784">
  <ele>1583.0</ele>
  <time>2026-08-28T17:53:17Z</time>
  <course>74.14</course>
  <speed>1.84</speed>
  <fix>3d</fix>
</trkpt>
<trkpt lat="40.0714831" lon="-105.2297788">
  <ele>1582.99</ele>
  <time>2026-08-28T17:53:17Z</time>
  <course>79.38</course>
  <speed>2.099380861111199</speed>
  <fix>3d</fix>
</trkpt>
<trkpt lat="40.0714825" lon="-105.229784">
  <ele>1583.0</ele>
  <time>2026-08-28T17:53:17Z</time>
  <course>74.14</course>
  <speed>1.84</speed>
  <fix>3d</fix>
</trkpt>
<trkpt lat="40.0714834" lon="-105.2297763">
  <ele>1582.99</ele>
  <time>2026-08-28T17:53:17Z</time>
  <course>81.14</course>
  <speed>2.211831820008022</speed>
  <fix>3d</fix>
</trkpt>
<trkpt lat="40.0714833" lon="-105.2297796">
  <ele>1583.0</ele>
  <time>2026-08-28T17:53:17Z</time>
  <course>78.64</course>
  <speed>2.06</speed>
  <fix>3d</fix>
</trkpt>
<trkpt lat="40.0714837" lon="-105.2297736">
  <ele>1582.99</ele>
  <time>2026-08-28T17:53:17Z</time>
  <course>82.64</course>
  <speed>2.325725693197717</speed>
  <fix>3d</fix>
</trkpt>
<trkpt lat="40.0714833" lon="-105.2297796">
  <ele>1583.0</ele>
  <time>2026-08-28T17:53:17Z</time>
  <course>78.64</course>
  <speed>2.06</speed>
  <fix>3d</fix>
</trkpt>
<trkpt lat="40.071484" lon="-105.2297708">
  <ele>1582.98</ele>
  <time>2026-08-28T17:53:17Z</time>
  <course>83.91</course>
  <speed>2.430905181203084</speed>
  <fix>3d</fix>
</trkpt>
<trkpt lat="40.071484" lon="-105.2297746">
  <ele>1583.0</ele>
  <time>2026-08-28T17:53:17Z</time>
  <course>81.9</course>
  <speed>2.28</speed>
  <fix>3d</fix>
</trkpt>
<trkpt lat="40.0714842" lon="-105.2297679">
  <ele>1582.98</ele>
  <time>2026-08-28T17:53:17Z</time>
  <course>85.01</course>
  <speed>2.5279240494919937</speed>
  <fix>3d</fix>
</trkpt>
<trkpt lat="40.071484" lon="-105.2297746">
  <ele>1583.0</ele>
  <time>2026-08-28T17:53:17Z</time>
  <course>81.9</course>
  <speed>2.28</speed>
  <fix>3d</fix>
</trkpt>
<trkpt lat="40.0714844" lon="-105.2297649">
  <ele>1582.98</ele>
  <time>2026-08-28T17:53:17Z</time>
  <course>85.94</course>
  <speed>2.6348624252510797</speed>
  <fix>3d</fix>
</trkpt>
<trkpt lat="40.0714844" lon="-105.229769">
  <ele>1583.0</ele>
  <time>2026-08-28T17:53:17Z</time>
  <course>84.28</course>
  <speed>2.49</speed>
  <fix>3d</fix>
</trkpt>
<trkpt lat="40.0714846" lon="-105.2297617">
  <ele>1582.98</ele>
  <time>2026-08-28T17:53:17Z</time>
  <course>86.78</course>
  <speed>2.733093485411723</speed>
  <fix>3d</fix>
</trkpt>
<trkpt lat="40.0714844" lon="-105.229769">
  <ele>1583.0</ele>
  <time>2026-08-28T17:53:17Z</time>
  <course>84.28</course>
  <speed>2.49</speed>
  <fix>3d</fix>
</trkpt>
<trkpt lat="40.0714847" lon="-105.2297585">
  <ele>1582.98</ele>
  <time>2026-08-28T17:53:17Z</time>
  <course>87.53</course>
  <speed>2.82177249260106</speed>
  <fix>3d</fix>
</trkpt>
<trkpt lat="40.0714849" lon="-105.2297629">
  <ele>1583.0</ele>
  <time>2026-08-28T17:53:17Z</time>
  <course>86.08</course>
  <speed>2.68</speed>
  <fix>3d</fix>
</trkpt>
<trkpt lat="40.0714848" lon="-105.2297551">
  <ele>1582.97</ele>
  <time>2026-08-28T17:53:17Z</time>
  <course>88.21</course>
  <speed>2.89110705439975</speed>
  <fix>3d</fix>
</trkpt>
<trkpt lat="40.0714849" lon="-105.2297629">
  <ele>1583.0</ele>
  <time>2026-08-28T17:53:17Z</time>
  <course>86.08</course>
  <speed>2.68</speed>
  <fix>3d</fix>
</trkpt>
<trkpt lat="40.0714849" lon="-105.2297517">
  <ele>1582.97</ele>
  <time>2026-08-28T17:53:17Z</time>
  <course>88.82</course>
  <speed>2.950423698386386</speed>
  <fix>3d</fix>
</trkpt>
<trkpt lat="40.0714849" lon="-105.2297629">
  <ele>1583.0</ele>
  <time>2026-08-28T17:53:17Z</time>
  <course>86.08</course>
  <speed>2.68</speed>
  <fix>3d</fix>
</trkpt>
<trkpt lat="40.071485" lon="-105.2297482">
  <ele>1582.97</ele>
  <time>2026-08-28T17:53:17Z</time>
  <course>89.39</course>
  <speed>2.990066888883926</speed>
  <fix>3d</fix>
</trkpt>
<trkpt lat="40.0714852" lon="-105.2297564">
  <ele>1583.0</ele>
  <time>2026-08-28T17:53:17Z</time>
  <course>87.51</course>
  <speed>2.84</speed>
  <fix>3d</fix>
</trkpt>
<trkpt lat="40.071485" lon="-105.2297447">
  <ele>1582.97</ele>
  <time>2026-08-28T17:53:17Z</time>
  <course>89.92</course>
  <speed>3.02</speed>
  <fix>3d</fix>
</trkpt>
<trkpt lat="40.0714852" lon="-105.2297564">
  <ele>1583.0</ele>
  <time>2026-08-28T17:53:17Z</time>
  <course>87.51</course>
  <speed>2.84</speed>
  <fix>3d</fix>
</trkpt>
<trkpt lat="40.0714851" lon="-105.2297412">
  <ele>1582.97</ele>
  <time>2026-08-28T17:53:17Z</time>
  <course>90.4</course>
  <speed>3.03006600588172</speed>
  <fix>3d</fix>
</trkpt>
<trkpt lat="40.0714853" lon="-105.2297496">
  <ele>1583.0</ele>
  <time>2026-08-28T17:53:17Z</time>
  <course>88.7</course>
  <speed>2.94</speed>
  <fix>3d</fix>
</trkpt>
<trkpt lat="40.0714851" lon="-105.2297377">
  <ele>1582.96</ele>
  <time>2026-08-28T17:53:17Z</time>
  <course>90.87</course>
  <speed>3.02026488904533</speed>
  <fix>3d</fix>
</trkpt>
<trkpt lat="40.0714853" lon="-105.2297496">
  <ele>1583.0</ele>
  <time>2026-08-28T17:53:17Z</time>
  <course>88.7</course>
  <speed>2.94</speed>
  <fix>3d</fix>
</trkpt>
<trkpt lat="40.0714851" lon="-105.2297343">
  <ele>1582.96</ele>
  <time>2026-08-28T17:53:17Z</time>
  <course>91.31</course>
  <speed>3.000599940011997</speed>
  <fix>3d</fix>
</trkpt>
<trkpt lat="40.0714854" lon="-105.2297427">
  <ele>1583.0</ele>
  <time>2026-08-28T17:53:17Z</time>
  <course>89.73</course>
  <speed>2.99</speed>
  <fix>3d</fix>
</trkpt>
<trkpt lat="40.0714851" lon="-105.2297308">
  <ele>1582.96</ele>
  <time>2026-08-28T17:53:17Z</time>
  <course>91.75</course>
  <speed>2.9610808837314795</speed>
  <fix>3d</fix>
</trkpt>
<trkpt lat="40.0714854" lon="-105.2297427">
  <ele>1583.0</ele>
  <time>2026-08-28T17:53:17Z</time>
  <course>89.73</course>
  <speed>2.99</speed>
  <fix>3d</fix>
</trkpt>
<trkpt lat="40.0714851" lon="-105.2297274">
  <ele>1582.95</ele>
  <time>2026-08-28T17:53:17Z</time>
  <course>92.19</course>
  <speed>2.9117177060972104</speed>
  <fix>3d</fix>
</trkpt>
<trkpt lat="40.0714854" lon="-105.2297356">
  <ele>1583.0</ele>
  <time>2026-08-28T17:53:17Z</time>
  <course>90.65</course>
  <speed>2.97</speed>
  <fix>3d</fix>
</trkpt>
<trkpt lat="40.071485" lon="-105.2297241">
  <ele>1582.95</ele>
  <time>2026-08-28T17:53:17Z</time>
  <course>92.61</course>
  <speed>2.842534080710379</speed>
  <fix>3d</fix>
</trkpt>
<trkpt lat="40.0714853" lon="-105.2297288">
  <ele>1583.0</ele>
  <time>2026-08-28T17:53:17Z</time>
  <course>91.52</course>
  <speed>2.88</speed>
  <fix>3d</fix>
</trkpt>
<trkpt lat="40.0714849" lon="-105.2297209">
  <ele>1582.95</ele>
  <time>2026-08-28T17:53:17Z</time>
  <course>93.06</course>
  <speed>2.763059898011623</speed>
  <fix>3d</fix>
</trkpt>
<trkpt lat="40.0714853" lon="-105.2297288">
  <ele>1583.0</ele>
  <time>2026-08-28T17:53:17Z</time>
  <course>91.52</course>
  <speed>2.88</speed>
  <fix>3d</fix>
</trkpt>
<trkpt lat="40.0714848" lon="-105.2297177">
  <ele>1582.95</ele>
  <time>2026-08-28T17:53:17Z</time>
  <course>93.53</course>
  <speed>2.6642259663924905</speed>
  <fix>3d</fix>
</trkpt>
<trkpt lat="40.0714852" lon="-105.2297222">
  <ele>1583.0</ele>
  <time>2026-08-28T17:53:17Z</time>
  <course>92.4</course>
  <speed>2.74</speed>
  <fix>3d</fix>
</trkpt>
<trkpt lat="40.0714847" lon="-105.2297147">
  <ele>1582.95</ele>
  <time>2026-08-28T17:53:17Z</time>
  <course>94.01</course>
  <speed>2.5550146770615623</speed>
  <fix>3d</fix>
</trkpt>
<trkpt lat="40.0714852" lon="-105.2297222">
  <ele>1583.0</ele>
  <time>2026-08-28T17:53:17Z</time>
  <course>92.4</course>
  <speed>2.74</speed>
  <fix>3d</fix>
</trkpt>
<trkpt lat="40.0714846" lon="-105.2297118">
  <ele>1582.95</ele>
  <time>2026-08-28T17:53:17Z</time>
  <course>94.53</course>
  <speed>2.425963726027246</speed>
  <fix>3d</fix>
</trkpt>
<trkpt lat="40.0714849" lon="-105.229716">
  <ele>1583.0</ele>
  <time>2026-08-28T17:53:17Z</time>
  <course>93.36</course>
  <speed>2.54</speed>
  <fix>3d</fix>
</trkpt>
<trkpt lat="40.0714844" lon="-105.2297091">
  <ele>1582.95</ele>
  <time>2026-08-28T17:53:17Z</time>
  <course>95.06</course>
  <speed>2.2970633426181353</speed>
  <fix>3d</fix>
</trkpt>
<trkpt lat="40.0714849" lon="-105.229716">
  <ele>1583.0</ele>
  <time>2026-08-28T17:53:17Z</time>
  <course>93.36</course>
  <speed>2.54</speed>
  <fix>3d</fix>
</trkpt>
<trkpt lat="40.0714843" lon="-105.2297065">
  <ele>1582.94</ele>
  <time>2026-08-28T17:53:17Z</time>
  <course>95.63</course>
  <speed>2.168340379184043</speed>
  <fix>3d</fix>
</trkpt>
<trkpt lat="40.0714847" lon="-105.2297102">
  <ele>1583.0</ele>
  <time>2026-08-28T17:53:17Z</time>
  <course>94.4</course>
  <speed>2.3</speed>
  <fix>3d</fix>
</trkpt>
<trkpt lat="40.0714841" lon="-105.2297041">
  <ele>1582.94</ele>
  <time>2026-08-28T17:53:17Z</time>
  <course>96.24</course>
  <speed>2.019925741209315</speed>
  <fix>3d</fix>
</trkpt>
<trkpt lat="40.0714847" lon="-105.2297102">
  <ele>1583.0</ele>
  <time>2026-08-28T17:53:17Z</time>
  <course>94.4</course>
  <speed>2.3</speed>
  <fix>3d</fix>
</trkpt>
<trkpt lat="40.0714839" lon="-105.2297018">
  <ele>1582.94</ele>
  <time>2026-08-28T17:53:17Z</time>
  <course>96.89</course>
  <speed>1.870721785835617</speed>
  <fix>3d</fix>
</trkpt>
<trkpt lat="40.0714843" lon="-105.2297052">
  <ele>1583.0</ele>
  <time>2026-08-28T17:53:17Z</time>
  <course>95.57</course>
  <speed>2.03</speed>
  <fix>3d</fix>
</trkpt>
<trkpt lat="40.0714838" lon="-105.2296998">
  <ele>1582.94</ele>
  <time>2026-08-28T17:53:17Z</time>
  <course>97.61</course>
  <speed>1.7228464818433473</speed>
  <fix>3d</fix>
</trkpt>
<trkpt lat="40.0714843" lon="-105.2297052">
  <ele>1583.0</ele>
  <time>2026-08-28T17:53:17Z</time>
  <course>95.57</course>
  <speed>2.03</speed>
  <fix>3d</fix>
</trkpt>
<trkpt lat="40.0714836" lon="-105.2296979">
  <ele>1582.94</ele>
  <time>2026-08-28T17:53:17Z</time>
  <course>98.41</course>
  <speed>1.5740711546813886</speed>
  <fix>3d</fix>
</trkpt>
<trkpt lat="40.071484" lon="-105.2297007">
  <ele>1583.0</ele>
  <time>2026-08-28T17:53:17Z</time>
  <course>96.94</course>
  <speed>1.74</speed>
  <fix>3d</fix>
</trkpt>
<trkpt lat="40.0714834" lon="-105.2296961">
  <ele>1582.94</ele>
  <time>2026-08-28T17:53:17Z</time>
  <course>99.32</course>
  <speed>1.4255525244620066</speed>
  <fix>3d</fix>
</trkpt>
<trkpt lat="40.071484" lon="-105.2297007">
  <ele>1583.0</ele>
  <time>2026-08-28T17:53:17Z</time>
  <course>96.94</course>
  <speed>1.74</speed>
  <fix>3d</fix>
</trkpt>
<trkpt lat="40.0714832" lon="-105.2296946">
  <ele>1582.94</ele>
  <time>2026-08-28T17:53:17Z</time>
  <course>100.37</course>
  <speed>1.277380131362626</speed>
  <fix>3d</fix>
</trkpt>
<trkpt lat="40.0714835" lon="-105.2296971">
  <ele>1583.0</ele>
  <time>2026-08-28T17:53:17Z</time>
  <course>98.64</course>
  <speed>1.45</speed>
  <fix>3d</fix>
</trkpt>
<trkpt lat="40.0714831" lon="-105.2296933">
  <ele>1582.94</ele>
  <time>2026-08-28T17:53:18Z</time>
  <course>101.58</course>
  <speed>1.1296902230257637</speed>
  <fix>3d</fix>
</trkpt>
<trkpt lat="40.0714835" lon="-105.2296971">
  <ele>1583.0</ele>
  <time>2026-08-28T17:53:18Z</time>
  <course>98.64</course>
  <speed>1.45</speed>
  <fix>3d</fix>
</trkpt>
<trkpt lat="40.0714829" lon="-105.2296921">
  <ele>1582.95</ele>
  <time>2026-08-28T17:53:18Z</time>
  <course>102.92</course>
  <speed>0.980612053770501</speed>
  <fix>3d</fix>
</trkpt>
<trkpt lat="40.0714835" lon="-105.2296971">
  <ele>1583.0</ele>
  <time>2026-08-28T17:53:18Z</time>
  <course>98.64</course>
  <speed>1.45</speed>
  <fix>3d</fix>
</trkpt>
<trkpt lat="40.0714827" lon="-105.2296911">
  <ele>1582.95</ele>
  <time>2026-08-28T17:53:18Z</time>
  <course>104.27</course>
  <speed>0.8319855767980596</speed>
  <fix>3d</fix>
</trkpt>
<trkpt lat="40.0714832" lon="-105.229694">
  <ele>1583.0</ele>
  <time>2026-08-28T17:53:18Z</time>
  <course>100.84</course>
  <speed>1.16</speed>
  <fix>3d</fix>
</trkpt>
<trkpt lat="40.0714825" lon="-105.2296902">
  <ele>1582.95</ele>
  <time>2026-08-28T17:53:18Z</time>
  <course>105.49</course>
  <speed>0.6912307863514182</speed>
  <fix>3d</fix>
</trkpt>
<trkpt lat="40.0714832" lon="-105.229694">
  <ele>1583.0</ele>
  <time>2026-08-28T17:53:18Z</time>
  <course>100.84</course>
  <speed>1.16</speed>
  <fix>3d</fix>
</trkpt>
<trkpt lat="40.0714824" lon="-105.2296895">
  <ele>1582.95</ele>
  <time>2026-08-28T17:53:18Z</time>
  <course>106.52</course>
  <speed>0.5604462507680822</speed>
  <fix>3d</fix>
</trkpt>
<trkpt lat="40.0714828" lon="-105.2296916">
  <ele>1583.0</ele>
  <time>2026-08-28T17:53:18Z</time>
  <course>103.36</course>
  <speed>0.88</speed>
  <fix>3d</fix>
</trkpt>
<trkpt lat="40.0714823" lon="-105.229689">
  <ele>1582.96</ele>
  <time>2026-08-28T17:53:18Z</time>
  <course>107.35</course>
  <speed>0.42720018726587655</speed>
  <fix>3d</fix>
</trkpt>
<trkpt lat="40.0714828" lon="-105.2296916">
  <ele>1583.0</ele>
  <time>2026-08-28T17:53:18Z</time>
  <course>103.36</course>
  <speed>0.88</speed>
  <fix>3d</fix>
</trkpt>
<trkpt lat="40.0714822" lon="-105.2296886">
  <ele>1582.96</ele>
  <time>2026-08-28T17:53:18Z</time>
  <course>107.98</course>
  <speed>0.30083217912982646</speed>
  <fix>3d</fix>
</trkpt>
<trkpt lat="40.0714824" lon="-105.2296899">
  <ele>1583.0</ele>
  <time>2026-08-28T17:53:18Z</time>
  <course>105.58</course>
  <speed>0.61</speed>
  <fix>3d</fix>
</trkpt>
<trkpt lat="40.0714821" lon="-105.2296884">
  <ele>1582.96</ele>
  <time>2026-08-28T17:53:18Z</time>
  <course>108.42</course>
  <speed>0.1772004514666935</speed>
  <fix>3d</fix>
</trkpt>
<trkpt lat="40.0714822" lon="-105.2296888">
  <ele>1583.0</ele>
  <time>2026-08-28T17:53:18Z</time>
  <course>107.05</course>
  <speed>0.36</speed>
  <fix>3d</fix>
</trkpt>
<trkpt lat="40.0714821" lon="-105.2296882">
  <ele>1582.96</ele>
  <time>2026-08-28T17:53:18Z</time>
  <course>108.68</course>
  <speed>0.07280109889280519</speed>
  <fix>3d</fix>
</trkpt>
<trkpt lat="40.0714822" lon="-105.2296888">
  <ele>1583.0</ele>
  <time>2026-08-28T17:53:18Z</time>
  <course>107.05</course>
  <speed>0.36</speed>
  <fix>3d</fix>
</trkpt>
<trkpt lat="40.0714821" lon="-105.2296882">
  <ele>1582.96</ele>
  <time>2026-08-28T17:53:18Z</time>
  <course>108.78</course>
  <speed>0.01</speed>
  <fix>3d</fix>
</trkpt>
<trkpt lat="40.0714821" lon="-105.2296883">
  <ele>1583.0</ele>
  <time>2026-08-28T17:53:18Z</time>
  <course>107.82</course>
  <speed>0.14</speed>
  <fix>3d</fix>
</trkpt>
<trkpt lat="40.0714821" lon="-105.2296883">
  <ele>1582.96</ele>
  <time>2026-08-28T17:53:18Z</time>
  <course>108.78</course>
  <speed>0.09486832980505139</speed>
  <fix>3d</fix>
</trkpt>
<trkpt lat="40.0714821" lon="-105.2296883">
  <ele>1583.0</ele>
  <time>2026-08-28T17:53:18Z</time>
  <course>107.82</course>
  <speed>0.14</speed>
  <fix>3d</fix>
</trkpt>
<trkpt lat="40.0714821" lon="-105.2296884">
  <ele>1582.96</ele>
  <time>2026-08-28T17:53:18Z</time>
  <course>108.87</course>
  <speed>0.15524174696260024</speed>
  <fix>3d</fix>
</trkpt>
<trkpt lat="40.0714821" lon="-105.2296882">
  <ele>1583.0</ele>
  <time>2026-08-28T17:53:18Z</time>
  <course>288.18</course>
  <speed>0.02</speed>
  <fix>3d</fix>
</trkpt>
<trkpt lat="40.0714822" lon="-105.2296886">
  <ele>1582.96</ele>
  <time>2026-08-28T17:53:18Z</time>
  <course>109.03</course>
  <speed>0.208806130178211</speed>
  <fix>3d</fix>
</trkpt>
<trkpt lat="40.0714821" lon="-105.2296882">
  <ele>1583.0</ele>
  <time>2026-08-28T17:53:18Z</time>
  <course>288.18</course>
  <speed>0.02</speed>
  <fix>3d</fix>
</trkpt>
<trkpt lat="40.0714822" lon="-105.2296888">
  <ele>1582.96</ele>
  <time>2026-08-28T17:53:18Z</time>
  <course>109.24</course>
  <speed>0.24041630560342614</speed>
  <fix>3d</fix>
</trkpt>
<trkpt lat="40.0714821" lon="-105.2296883">
  <ele>1583.0</ele>
  <time>2026-08-28T17:53:18Z</time>
  <course>288.42</course>
  <speed>0.14</speed>
  <fix>3d</fix>
</trkpt>
<trkpt lat="40.0714822" lon="-105.229689">
  <ele>1582.96</ele>
  <time>2026-08-28T17:53:18Z</time>
  <course>109.49</course>
  <speed>0.26248809496813374</speed>
  <fix>3d</fix>
</trkpt>
<trkpt lat="40.0714821" lon="-105.2296883">
  <ele>1583.0</ele>
  <time>2026-08-28T17:53:18Z</time>
  <course>288.42</course>
  <speed>0.14</speed>
  <fix>3d</fix>
</trkpt>
<trkpt lat="40.0714823" lon="-105.2296893">
  <ele>1582.97</ele>
  <time>2026-08-28T17:53:18Z</time>
  <course>109.72</course>
  <speed>0.2816025568065745</speed>
  <fix>3d</fix>
</trkpt>
<trkpt lat="40.0714821" lon="-105.2296887">
  <ele>1583.0</ele>
  <time>2026-08-28T17:53:18Z</time>
  <course>288.81</course>
  <speed>0.2</speed>
  <fix>3d</fix>
</trkpt>
<trkpt lat="40.0714824" lon="-105.2296896">
  <ele>1582.97</ele>
  <time>2026-08-28T17:53:18Z</time>
  <course>109.77</course>
  <speed>0.29120439557122074</speed>
  <fix>3d</fix>
</trkpt>
<trkpt lat="40.0714821" lon="-105.2296887">
  <ele>1583.0</ele>
  <time>2026-08-28T17:53:18Z</time>
  <course>288.81</course>
  <speed>0.2</speed>
  <fix>3d</fix>
</trkpt>
<trkpt lat="40.0714824" lon="-105.2296899">
  <ele>1582.97</ele>
  <time>2026-08-28T17:53:18Z</time>
  <course>109.79</course>
  <speed>0.3132091952673165</speed>
  <fix>3d</fix>
</trkpt>
<trkpt lat="40.0714822" lon="-105.2296892">
  <ele>1583.0</ele>
  <time>2026-08-28T17:53:18Z</time>
  <course>289.06</course>
  <speed>0.23</speed>
  <fix>3d</fix>
</trkpt>
<trkpt lat="40.0714825" lon="-105.2296903">
  <ele>1582.97</ele>
  <time>2026-08-28T17:53:18Z</time>
  <course>109.86</course>
  <speed>0.32280024783137945</speed>
  <fix>3d</fix>
</trkpt>
<trkpt lat="40.0714822" lon="-105.2296892">
  <ele>1583.0</ele>
  <time>2026-08-28T17:53:18Z</time>
  <course>289.06</course>
  <speed>0.23</speed>
  <fix>3d</fix>
</trkpt>
<trkpt lat="40.0714826" lon="-105.2296906">
  <ele>1582.98</ele>
  <time>2026-08-28T17:53:18Z</time>
  <course>110.03</course>
  <speed>0.31048349392520047</speed>
  <fix>3d</fix>
</trkpt>
<trkpt lat="40.0714823" lon="-105.2296897">
  <ele>1583.0</ele>
  <time>2026-08-28T17:53:18Z</time>
  <course>289.2</course>
  <speed>0.25</speed>
  <fix>3d</fix>
</trkpt>
<trkpt lat="40.0714826" lon="-105.2296909">
  <ele>1582.98</ele>
  <time>2026-08-28T17:53:18Z</time>
  <course>110.28</course>
  <speed>0.2692582403567252</speed>
  <fix>3d</fix>
</trkpt>
<trkpt lat="40.0714823" lon="-105.2296897">
  <ele>1583.0</ele>
  <time>2026-08-28T17:53:18Z</time>
  <course>289.2</course>
  <speed>0.25</speed>
  <fix>3d</fix>
</trkpt>
<trkpt lat="40.0714827" lon="-105.2296911">
  <ele>1582.98</ele>
  <time>2026-08-28T17:53:18Z</time>
  <course>110.58</course>
  <speed>0.215870331449229</speed>
  <fix>3d</fix>
</trkpt>
<trkpt lat="40.0714823" lon="-105.2296897">
  <ele>1583.0</ele>
  <time>2026-08-28T17:53:18Z</time>
  <course>289.2</course>
  <speed>0.25</speed>
  <fix>3d</fix>
</trkpt>
<trkpt lat="40.0714827" lon="-105.2296912">
  <ele>1582.98</ele>
  <time>2026-08-28T17:53:18Z</time>
  <course>110.86</course>
  <speed>0.15297058540778355</speed>
  <fix>3d</fix>
</trkpt>
<trkpt lat="40.0714825" lon="-105.2296902">
  <ele>1583.0</ele>
  <time>2026-08-28T17:53:18Z</time>
  <course>289.54</course>
  <speed>0.2</speed>
  <fix>3d</fix>
</trkpt>
<trkpt lat="40.0714827" lon="-105.2296913">
  <ele>1582.99</ele>
  <time>2026-08-28T17:53:18Z</time>
  <course>111.06</course>
  <speed>0.09</speed>
  <fix>3d</fix>
</trkpt>
<trkpt lat="40.0714825" lon="-105.2296902">
  <ele>1583.0</ele>
  <time>2026-08-28T17:53:18Z</time>
  <course>289.54</course>
  <speed>0.2</speed>
  <fix>3d</fix>
</trkpt>
<trkpt lat="40.0714827" lon="-105.2296913">
  <ele>1582.99</ele>
  <time>2026-08-28T17:53:18Z</time>
  <course>111.09</course>
  <speed>0.03605551275463989</speed>
  <fix>3d</fix>
</trkpt>
<trkpt lat="40.0714826" lon="-105.2296906">
  <ele>1583.0</ele>
  <time>2026-08-28T17:53:18Z</time>
  <course>289.94</course>
  <speed>0.1</speed>
  <fix>3d</fix>
</trkpt>
<trkpt lat="40.0714826" lon="-105.2296913">
  <ele>1582.99</ele>
  <time>2026-08-28T17:53:18Z</time>
  <course>111.12</course>
  <speed>0.044721359549995794</speed>
  <fix>3d</fix>
</trkpt>
<trkpt lat="40.0714826" lon="-105.2296906">
  <ele>1583.0</ele>
  <time>2026-08-28T17:53:18Z</time>
  <course>289.94</course>
  <speed>0.1</speed>
  <fix>3d</fix>
</trkpt>
<trkpt lat="40.0714826" lon="-105.2296911">
  <ele>1582.99</ele>
  <time>2026-08-28T17:53:18Z</time>
  <course>111.68</course>
  <speed>0.09899494936611665</speed>
  <fix>3d</fix>
</trkpt>
<trkpt lat="40.0714827" lon="-105.2296907">
  <ele>1583.0</ele>
  <time>2026-08-28T17:53:18Z</time>
  <course>110.55</course>
  <speed>0.02</speed>
  <fix>3d</fix>
</trkpt>
<trkpt lat="40.0714826" lon="-105.2296909">
  <ele>1582.99</ele>
  <time>2026-08-28T17:53:18Z</time>
  <course>112.57</course>
  <speed>0.15811388300841897</speed>
  <fix>3d</fix>
</trkpt>
<trkpt lat="40.0714827" lon="-105.2296907">
  <ele>1583.0</ele>
  <time>2026-08-28T17:53:18Z</time>
  <course>110.55</course>
  <speed>0.02</speed>
  <fix>3d</fix>
</trkpt>
<trkpt lat="40.0714825" lon="-105.2296907">
  <ele>1582.99</ele>
  <time>2026-08-28T17:53:18Z</time>
  <course>113.79</course>
  <speed>0.23021728866442676</speed>
  <fix>3d</fix>
</trkpt>
<trkpt lat="40.0714826" lon="-105.2296905">
  <ele>1583.0</ele>
  <time>2026-08-28T17:53:18Z</time>
  <course>111.45</course>
  <speed>0.14</speed>
  <fix>3d</fix>
</trkpt>
<trkpt lat="40.0714824" lon="-105.2296904">
  <ele>1582.99</ele>
  <time>2026-08-28T17:53:18Z</time>
  <course>115.25</course>
  <speed>0.2884441020371191</speed>
  <fix>3d</fix>
</trkpt>
<trkpt lat="40.0714825" lon="-105.2296901">
  <ele>1583.0</ele>
  <time>2026-08-28T17:53:18Z</time>
  <course>113.5</course>
  <speed>0.26</speed>
  <fix>3d</fix>
</trkpt>
<trkpt lat="40.0714822" lon="-105.22969">
  <ele>1582.98</ele>
  <time>2026-08-28T17:53:18Z</time>
  <course>117.03</course>
  <speed>0.3605551275463989</speed>
  <fix>3d</fix>
</trkpt>
<trkpt lat="40.0714825" lon="-105.2296901">
  <ele>1583.0</ele>
  <time>2026-08-28T17:53:18Z</time>
  <course>113.5</course>
  <speed>0.26</speed>
  <fix>3d</fix>
</trkpt>
<trkpt lat="40.071482" lon="-105.2296895">
  <ele>1582.98</ele>
  <time>2026-08-28T17:53:18Z</time>
  <course>119.34</course>
  <speed>0.4301162633521314</speed>
  <fix>3d</fix>
</trkpt>
<trkpt lat="40.0714823" lon="-105.2296895">
  <ele>1583.0</ele>
  <time>2026-08-28T17:53:18Z</time>
  <course>116.91</course>
  <speed>0.39</speed>
  <fix>3d</fix>
</trkpt>
<trkpt lat="40.0714818" lon="-105.229689">
  <ele>1582.98</ele>
  <time>2026-08-28T17:53:18Z</time>
  <course>122.26</course>
  <speed>0.5060632371551997</speed>
  <fix>3d</fix>
</trkpt>
<trkpt lat="40.0714823" lon="-105.2296895">
  <ele>1583.0</ele>
  <time>2026-08-28T17:53:18Z</time>
  <course>116.91</course>
  <speed>0.39</speed>
  <fix>3d</fix>
</trkpt>
<trkpt lat="40.0714814" lon="-105.2296884">
  <ele>1582.98</ele>
  <time>2026-08-28T17:53:18Z</time>
  <course>125.81</course>
  <speed>0.5813776741499453</speed>
  <fix>3d</fix>
</trkpt>
<trkpt lat="40.0714819" lon="-105.2296885">
  <ele>1583.0</ele>
  <time>2026-08-28T17:53:18Z</time>
  <course>122.31</course>
  <speed>0.52</speed>
  <fix>3d</fix>
</trkpt>
<trkpt lat="40.0714811" lon="-105.2296878">
  <ele>1582.99</ele>
  <time>2026-08-28T17:53:18Z</time>
  <course>129.89</course>
  <speed>0.6717886572427374</speed>
  <fix>3d</fix>
</trkpt>
<trkpt lat="40.0714819" lon="-105.2296885">
  <ele>1583.0</ele>
  <time>2026-08-28T17:53:18Z</time>
  <course>122.31</course>
  <speed>0.52</speed>
  <fix>3d</fix>
</trkpt>
<trkpt lat="40.0714806" lon="-105.2296872">
  <ele>1582.99</ele>
  <time>2026-08-28T17:53:18Z</time>
  <course>134.55</course>
  <speed>0.7648529270389177</speed>
  <fix>3d</fix>
</trkpt>
<trkpt lat="40.0714813" lon="-105.2296873">
  <ele>1583.0</ele>
  <time>2026-08-28T17:53:18Z</time>
  <course>130.0</course>
  <speed>0.68</speed>
  <fix>3d</fix>
</trkpt>
<trkpt lat="40.07148" lon="-105.2296865">
  <ele>1582.99</ele>
  <time>2026-08-28T17:53:18Z</time>
  <course>139.75</course>
  <speed>0.8640023148117139</speed>
  <fix>3d</fix>
</trkpt>
<trkpt lat="40.0714813" lon="-105.2296873">
  <ele>1583.0</ele>
  <time>2026-08-28T17:53:18Z</time>
  <course>130.0</course>
  <speed>0.68</speed>
  <fix>3d</fix>
</trkpt>
<trkpt lat="40.0714794" lon="-105.2296858">
  <ele>1582.99</ele>
  <time>2026-08-28T17:53:18Z</time>
  <course>145.26</course>
  <speed>0.9741663102366043</speed>
  <fix>3d</fix>
</trkpt>
<trkpt lat="40.0714803" lon="-105.2296861">
  <ele>1583.0</ele>
  <time>2026-08-28T17:53:18Z</time>
  <course>139.75</course>
  <speed>0.86</speed>
  <fix>3d</fix>
</trkpt>
<trkpt lat="40.0714786" lon="-105.2296851">
  <ele>1582.99</ele>
  <time>2026-08-28T17:53:18Z</time>
  <course>150.29</course>
  <speed>1.0778218776773831</speed>
  <fix>3d</fix>
</trkpt>
<trkpt lat="40.0714803" lon="-105.2296861">
  <ele>1583.0</ele>
  <time>2026-08-28T17:53:18Z</time>
  <course>139.75</course>
  <speed>0.86</speed>
  <fix>3d</fix>
</trkpt>
<trkpt lat="40.0714776" lon="-105.2296845">
  <ele>1582.99</ele>
  <time>2026-08-28T17:53:18Z</time>
  <course>154.6</course>
  <speed>1.1830891766895681</speed>
  <fix>3d</fix>
</trkpt>
<trkpt lat="40.0714789" lon="-105.2296848">
  <ele>1583.0</ele>
  <time>2026-08-28T17:53:18Z</time>
  <course>149.64</course>
  <speed>1.06</speed>
  <fix>3d</fix>
</trkpt>
<trkpt lat="40.0714766" lon="-105.2296839">
  <ele>1582.99</ele>
  <time>2026-08-28T17:53:18Z</time>
  <course>158.28</course>
  <speed>1.306330739131557</speed>
  <fix>3d</fix>
</trkpt>
<trkpt lat="40.0714789" lon="-105.2296848">
  <ele>1583.0</ele>
  <time>2026-08-28T17:53:18Z</time>
  <course>149.64</course>
  <speed>1.06</speed>
  <fix>3d</fix>
</trkpt>
<trkpt lat="40.0714754" lon="-105.2296834">
  <ele>1582.99</ele>
  <time>2026-08-28T17:53:18Z</time>
  <course>161.43</course>
  <speed>1.4204576727238303</speed>
  <fix>3d</fix>
</trkpt>
<trkpt lat="40.071477" lon="-105.2296836">
  <ele>1583.0</ele>
  <time>2026-08-28T17:53:18Z</time>
  <course>157.55</course>
  <speed>1.27</speed>
  <fix>3d</fix>
</trkpt>
<trkpt lat="40.0714741" lon="-105.2296828">
  <ele>1582.99</ele>
  <time>2026-08-28T17:53:18Z</time>
  <course>164.13</course>
  <speed>1.5376930773076922</speed>
  <fix>3d</fix>
</trkpt>
<trkpt lat="40.071477" lon="-105.2296836">
  <ele>1583.0</ele>
  <time>2026-08-28T17:53:18Z</time>
  <course>157.55</course>
  <speed>1.27</speed>
  <fix>3d</fix>
</trkpt>
<trkpt lat="40.0714728" lon="-105.2296824">
  <ele>1582.99</ele>
  <time>2026-08-28T17:53:18Z</time>
  <course>166.53</course>
  <speed>1.6455090397806995</speed>
  <fix>3d</fix>
</trkpt>
<trkpt lat="40.071477" lon="-105.2296836">
  <ele>1583.0</ele>
  <time>2026-08-28T17:53:18Z</time>
  <course>157.55</course>
  <speed>1.27</speed>
  <fix>3d</fix>
</trkpt>
<trkpt lat="40.0714713" lon="-105.2296819">
  <ele>1582.99</ele>
  <time>2026-08-28T17:53:18Z</time>
  <course>168.56</course>
  <speed>1.7477127910500627</speed>
  <fix>3d</fix>
</trkpt>
<trkpt lat="40.0714746" lon="-105.2296825">
  <ele>1583.0</ele>
  <time>2026-08-28T17:53:18Z</time>
  <course>163.42</course>
  <speed>1.5</speed>
  <fix>3d</fix>
</trkpt>
<trkpt lat="40.0714697" lon="-105.2296815">
  <ele>1582.99</ele>
  <time>2026-08-28T17:53:18Z</time>
  <course>170.3</course>
  <speed>1.85129684275645</speed>
  <fix>3d</fix>
</trkpt>
<trkpt lat="40.0714746" lon="-105.2296825">
  <ele>1583.0</ele>
  <time>2026-08-28T17:53:18Z</time>
  <course>163.42</course>
  <speed>1.5</speed>
  <fix>3d</fix>
</trkpt>
<trkpt lat="40.071468" lon="-105.2296812">
  <ele>1582.99</ele>
  <time>2026-08-28T17:53:18Z</time>
  <course>171.79</course>
  <speed>1.96596032513375</speed>
  <fix>3d</fix>
</trkpt>
<trkpt lat="40.0714718" lon="-105.2296816">
  <ele>1583.0</ele>
  <time>2026-08-28T17:53:18Z</time>
  <course>167.78</course>
  <speed>1.71</speed>
  <fix>3d</fix>
</trkpt>
<trkpt lat="40.0714662" lon="-105.2296809">
  <ele>1582.99</ele>
  <time>2026-08-28T17:53:18Z</time>
  <course>173.06</course>
  <speed>2.07171426601257</speed>
  <fix>3d</fix>
</trkpt>
<trkpt lat="40.0714718" lon="-105.2296816">
  <ele>1583.0</ele>
  <time>2026-08-28T17:53:18Z</time>
  <course>167.78</course>
  <speed>1.71</speed>
  <fix>3d</fix>
</trkpt>
<trkpt lat="40.0714644" lon="-105.2296806">
  <ele>1582.99</ele>
  <time>2026-08-28T17:53:18Z</time>
  <course>174.16</course>
  <speed>2.1783020910791966</speed>
  <fix>3d</fix>
</trkpt>
<trkpt lat="40.0714686" lon="-105.2296808">
  <ele>1583.0</ele>
  <time>2026-08-28T17:53:18Z</time>
  <course>171.01</course>
  <speed>1.93</speed>
  <fix>3d</fix>
</trkpt>
<trkpt lat="40.0714624" lon="-105.2296803">
  <ele>1582.99</ele>
  <time>2026-08-28T17:53:18Z</time>
  <course>175.11</course>
  <speed>2.2863289352147036</speed>
  <fix>3d</fix>
</trkpt>
<trkpt lat="40.0714649" lon="-105.2296801">
  <ele>1583.0</ele>
  <time>2026-08-28T17:53:18Z</time>
  <course>173.38</course>
  <speed>2.15</speed>
  <fix>3d</fix>
</trkpt>
<trkpt lat="40.0714603" lon="-105.22968">
  <ele>1582.99</ele>
  <time>2026-08-28T17:53:18Z</time>
  <course>175.92</course>
  <speed>2.3947024867402633</speed>
  <fix>3d</fix>
</trkpt>
<trkpt lat="40.0714649" lon="-105.2296801">
  <ele>1583.0</ele>
  <time>2026-08-28T17:53:18Z</time>
  <course>173.38</course>
  <speed>2.15</speed>
  <fix>3d</fix>
</trkpt>
<trkpt lat="40.0714581" lon="-105.2296798">
  <ele>1582.99</ele>
  <time>2026-08-28T17:53:18Z</time>
  <course>176.61</course>
  <speed>2.502878343028282</speed>
  <fix>3d</fix>
</trkpt>
<trkpt lat="40.0714609" lon="-105.2296796">
  <ele>1583.0</ele>
  <time>2026-08-28T17:53:18Z</time>
  <course>175.14</course>
  <speed>2.36</speed>
  <fix>3d</fix>
</trkpt>
<trkpt lat="40.0714558" lon="-105.2296796">
  <ele>1582.99</ele>
  <time>2026-08-28T17:53:18Z</time>
  <course>177.2</course>
  <speed>2.612316979235101</speed>
  <fix>3d</fix>
</trkpt>
<trkpt lat="40.0714609" lon="-105.2296796">
  <ele>1583.0</ele>
  <time>2026-08-28T17:53:18Z</time>
  <course>175.14</course>
  <speed>2.36</speed>
  <fix>3d</fix>
</trkpt>
<trkpt lat="40.0714534" lon="-105.2296795">
  <ele>1582.99</ele>
  <time>2026-08-28T17:53:18Z</time>
  <course>177.71</course>
  <speed>2.721488563268271</speed>
  <fix>3d</fix>
</trkpt>
<trkpt lat="40.0714564" lon="-105.2296792">
  <ele>1583.0</ele>
  <time>2026-08-28T17:53:18Z</time>
  <course>176.44</course>
  <speed>2.58</speed>
  <fix>3d</fix>
</trkpt>
<trkpt lat="40.0714508" lon="-105.2296793">
  <ele>1582.99</ele>
  <time>2026-08-28T17:53:18Z</time>
  <course>178.16</course>
  <speed>2.8308655920053853</speed>
  <fix>3d</fix>
</trkpt>
<trkpt lat="40.0714564" lon="-105.2296792">
  <ele>1583.0</ele>
  <time>2026-08-28T17:53:18Z</time>
  <course>176.44</course>
  <speed>2.58</speed>
  <fix>3d</fix>
</trkpt>
<trkpt lat="40.0714482" lon="-105.2296792">
  <ele>1583.0</ele>
  <time>2026-08-28T17:53:18Z</time>
  <course>178.54</course>
  <speed>2.940612181162283</speed>
  <fix>3d</fix>
</trkpt>
<trkpt lat="40.0714516" lon="-105.2296789">
  <ele>1583.0</ele>
  <time>2026-08-28T17:53:18Z</time>
  <course>177.41</course>
  <speed>2.8</speed>
  <fix>3d</fix>
</trkpt>
<trkpt lat="40.0714455" lon="-105.2296791">
  <ele>1583.0</ele>
  <time>2026-08-28T17:53:18Z</time>
  <course>178.89</course>
  <speed>3.0404111564063174</speed>
  <fix>3d</fix>
</trkpt>
<trkpt lat="40.0714516" lon="-105.2296789">
  <ele>1583.0</ele>
  <time>2026-08-28T17:53:18Z</time>
  <course>177.41</course>
  <speed>2.8</speed>
  <fix>3d</fix>
</trkpt>
<trkpt lat="40.0714427" lon="-105.229679">
  <ele>1583.0</ele>
  <time>2026-08-28T17:53:18Z</time>
  <course>179.19</course>
  <speed>3.140143308831621</speed>
  <fix>3d</fix>
</trkpt>
<trkpt lat="40.0714464" lon="-105.2296786">
  <ele>1583.0</ele>
  <time>2026-08-28T17:53:18Z</time>
  <course>178.14</course>
  <speed>3.0</speed>
  <fix>3d</fix>
</trkpt>
<trkpt lat="40.0714398" lon="-105.2296789">
  <ele>1583.01</ele>
  <time>2026-08-28T17:53:18Z</time>
  <course>179.47</course>
  <speed>3.230061918911153</speed>
  <fix>3d</fix>
</trkpt>
<trkpt lat="40.0714464" lon="-105.2296786">
  <ele>1583.0</ele>
  <time>2026-08-28T17:53:18Z</time>
  <course>178.14</course>
  <speed>3.0</speed>
  <fix>3d</fix>
</trkpt>
<trkpt lat="40.0714369" lon="-105.2296788">
  <ele>1583.01</ele>
  <time>2026-08-28T17:53:18Z</time>
  <course>179.73</course>
  <speed>3.3000151514803684</speed>
  <fix>3d</fix>
</trkpt>
<trkpt lat="40.0714408" lon="-105.2296785">
  <ele>1583.0</ele>
  <time>2026-08-28T17:53:18Z</time>
  <course>178.74</course>
  <speed>3.18</speed>
  <fix>3d</fix>
</trkpt>
<trkpt lat="40.0714339" lon="-105.2296787">
  <ele>1583.01</ele>
  <time>2026-08-28T17:53:18Z</time>
  <course>179.95</course>
  <speed>3.36</speed>
  <fix>3d</fix>
</trkpt>
<trkpt lat="40.0714408" lon="-105.2296785">
  <ele>1583.0</ele>
  <time>2026-08-28T17:53:18Z</time>
  <course>178.74</course>
  <speed>3.18</speed>
  <fix>3d</fix>
</trkpt>
<trkpt lat="40.0714308" lon="-105.2296787">
  <ele>1583.01</ele>
  <time>2026-08-28T17:53:18Z</time>
  <course>180.19</course>
  <speed>3.4000147058505497</speed>
  <fix>3d</fix>
</trkpt>
<trkpt lat="40.071435" lon="-105.2296783">
  <ele>1583.0</ele>
  <time>2026-08-28T17:53:18Z</time>
  <course>179.23</course>
  <speed>3.31</speed>
  <fix>3d</fix>
</trkpt>
<trkpt lat="40.0714278" lon="-105.2296787">
  <ele>1583.01</ele>
  <time>2026-08-28T17:53:18Z</time>
  <course>180.38</course>
  <speed>3.430058308542291</speed>
  <fix>3d</fix>
</trkpt>
<trkpt lat="40.071435" lon="-105.2296783">
  <ele>1583.0</ele>
  <time>2026-08-28T17:53:18Z</time>
  <course>179.23</course>
  <speed>3.31</speed>
  <fix>3d</fix>
</trkpt>
<trkpt lat="40.0714247" lon="-105.2296787">
  <ele>1583.01</ele>
  <time>2026-08-28T17:53:18Z</time>
  <course>180.57</course>
  <speed>3.450130432317016</speed>
  <fix>3d</fix>
</trkpt>
<trkpt lat="40.071435" lon="-105.2296783">
  <ele>1583.0</ele>
  <time>2026-08-28T17:53:18Z</time>
  <course>179.23</course>
  <speed>3.31</speed>
  <fix>3d</fix>
</trkpt>
<trkpt lat="40.0714216" lon="-105.2296786">
  <ele>1583.01</ele>
  <time>2026-08-28T17:53:18Z</time>
  <course>180.75</course>
  <speed>3.450130432317016</speed>
  <fix>3d</fix>
</trkpt>
<trkpt lat="40.0714289" lon="-105.2296782">
  <ele>1583.0</ele>
  <time>2026-08-28T17:53:18Z</time>
  <course>179.65</course>
  <speed>3.38</speed>
  <fix>3d</fix>
</trkpt>
<trkpt lat="40.0714185" lon="-105.2296786">
  <ele>1583.01</ele>
  <time>2026-08-28T17:53:18Z</time>
  <course>180.93</course>
  <speed>3.430233228222244</speed>
  <fix>3d</fix>
</trkpt>
<trkpt lat="40.0714289" lon="-105.2296782">
  <ele>1583.0</ele>
  <time>2026-08-28T17:53:18Z</time>
  <course>179.65</course>
  <speed>3.38</speed>
  <fix>3d</fix>
</trkpt>
<trkpt lat="40.0714155" lon="-105.2296786">
  <ele>1583.01</ele>
  <time>2026-08-28T17:53:18Z</time>
  <course>181.11</course>
  <speed>3.390368711512068</speed>
  <fix>3d</fix>
</trkpt>
<trkpt lat="40.0714228" lon="-105.2296782">
  <ele>1583.0</ele>
  <time>2026-08-28T17:53:18Z</time>
  <course>180.02</course>
  <speed>3.4</speed>
  <fix>3d</fix>
</trkpt>
<trkpt lat="40.0714125" lon="-105.2296786">
  <ele>1583.02</ele>
  <time>2026-08-28T17:53:18Z</time>
  <course>181.29</course>
  <speed>3.350537270349339</speed>
  <fix>3d</fix>
</trkpt>
<trkpt lat="40.0714228" lon="-105.2296782">
  <ele>1583.0</ele>
  <time>2026-08-28T17:53:18Z</time>
  <course>180.02</course>
  <speed>3.4</speed>
  <fix>3d</fix>
</trkpt>
<trkpt lat="40.0714096" lon="-105.2296786">
  <ele>1583.02</ele>
  <time>2026-08-28T17:53:18Z</time>
  <course>181.51</course>
  <speed>3.280746866187637</speed>
  <fix>3d</fix>
</trkpt>
<trkpt lat="40.0714167" lon="-105.2296782">
  <ele>1583.0</ele>
  <time>2026-08-28T17:53:18Z</time>
  <course>180.39</course>
  <speed>3.35</speed>
  <fix>3d</fix>
</trkpt>
<trkpt lat="40.0714067" lon="-105.2296787">
  <ele>1583.02</ele>
  <time>2026-08-28T17:53:18Z</time>
  <course>181.73</course>
  <speed>3.200999843798809</speed>
  <fix>3d</fix>
</trkpt>
<trkpt lat="40.0714108" lon="-105.2296783">
  <ele>1583.0</ele>
  <time>2026-08-28T17:53:18Z</time>
  <course>180.8</course>
  <speed>3.25</speed>
  <fix>3d</fix>
</trkpt>
<trkpt lat="40.0714039" lon="-105.2296787">
  <ele>1583.02</ele>
  <time>2026-08-28T17:53:18Z</time>
  <course>181.95</course>
  <speed>3.1113019782721185</speed>
  <fix>3d</fix>
</trkpt>
<trkpt lat="40.0714108" lon="-105.2296783">
  <ele>1583.0</ele>
  <time>2026-08-28T17:53:18Z</time>
  <course>180.8</course>
  <speed>3.25</speed>
  <fix>3d</fix>
</trkpt>
<trkpt lat="40.0714012" lon="-105.2296788">
  <ele>1583.02</ele>
  <time>2026-08-28T17:53:18Z</time>
  <course>182.2</course>
  <speed>3.0116606714568626</speed>
  <fix>3d</fix>
</trkpt>
<trkpt lat="40.0714051" lon="-105.2296784">
  <ele>1583.0</ele>
  <time>2026-08-28T17:53:18Z</time>
  <course>181.25</course>
  <speed>3.09</speed>
  <fix>3d</fix>
</trkpt>
<trkpt lat="40.0713986" lon="-105.2296789">
  <ele>1583.02</ele>
  <time>2026-08-28T17:53:18Z</time>
  <course>182.45</course>
  <speed>2.891729586251107</speed>
  <fix>3d</fix>
</trkpt>
<trkpt lat="40.0714051" lon="-105.2296784">
  <ele>1583.0</ele>
  <time>2026-08-28T17:53:18Z</time>
  <course>181.25</course>
  <speed>3.09</speed>
  <fix>3d</fix>
</trkpt>
<trkpt lat="40.0713961" lon="-105.229679">
  <ele>1583.02</ele>
  <time>2026-08-28T17:53:18Z</time>
  <course>182.71</course>
  <speed>2.7721832551258223</speed>
  <fix>3d</fix>
</trkpt>
<trkpt lat="40.0713997" lon="-105.2296786">
  <ele>1583.0</ele>
  <time>2026-08-28T17:53:18Z</time>
  <course>181.74</course>
  <speed>2.87</speed>
  <fix>3d</fix>
</trkpt>
<trkpt lat="40.0713937" lon="-105.2296791">
  <ele>1583.02</ele>
  <time>2026-08-28T17:53:18Z</time>
  <course>182.99</course>
  <speed>2.6327362192213637</speed>
  <fix>3d</fix>
</trkpt>
<trkpt lat="40.0713997" lon="-105.2296786">
  <ele>1583.0</ele>
  <time>2026-08-28T17:53:18Z</time>
  <course>181.74</course>
  <speed>2.87</speed>
  <fix>3d</fix>
</trkpt>
<trkpt lat="40.0713914" lon="-105.2296792">
  <ele>1583.02</ele>
  <time>2026-08-28T17:53:18Z</time>
  <course>183.28</course>
  <speed>2.4928898892650673</speed>
  <fix>3d</fix>
</trkpt>
<trkpt lat="40.0713948" lon="-105.2296787">
  <ele>1583.0</ele>
  <time>2026-08-28T17:53:18Z</time>
  <course>182.29</course>
  <speed>2.62</speed>
  <fix>3d</fix>
</trkpt>
<trkpt lat="40.0713893" lon="-105.2296793">
  <ele>1583.02</ele>
  <time>2026-08-28T17:53:18Z</time>
  <course>183.59</course>
  <speed>2.3535929979501553</speed>
  <fix>3d</fix>
</trkpt>
<trkpt lat="40.0713948" lon="-105.2296787">
  <ele>1583.0</ele>
  <time>2026-08-28T17:53:18Z</time>
  <course>182.29</course>
  <speed>2.62</speed>
  <fix>3d</fix>
</trkpt>
<trkpt lat="40.0713873" lon="-105.2296795">
  <ele>1583.02</ele>
  <time>2026-08-28T17:53:18Z</time>
  <course>183.92</course>
  <speed>2.2038375620721236</speed>
  <fix>3d</fix>
</trkpt>
<trkpt lat="40.0713904" lon="-105.229679">
  <ele>1583.0</ele>
  <time>2026-08-28T17:53:18Z</time>
  <course>182.89</course>
  <speed>2.35</speed>
  <fix>3d</fix>
</trkpt>
<trkpt lat="40.0713854" lon="-105.2296796">
  <ele>1583.02</ele>
  <time>2026-08-28T17:53:18Z</time>
  <course>184.28</course>
  <speed>2.0541178155110775</speed>
  <fix>3d</fix>
</trkpt>
<trkpt lat="40.0713904" lon="-105.229679">
  <ele>1583.0</ele>
  <time>2026-08-28T17:53:18Z</time>
  <course>182.89</course>
  <speed>2.35</speed>
  <fix>3d</fix>
</trkpt>
<trkpt lat="40.0713836" lon="-105.2296797">
  <ele>1583.02</ele>
  <time>2026-08-28T17:53:18Z</time>
  <course>184.67</course>
  <speed>1.9051509126575774</speed>
  <fix>3d</fix>
</trkpt>
<trkpt lat="40.0713864" lon="-105.2296793">
  <ele>1583.0</ele>
  <time>2026-08-28T17:53:18Z</time>
  <course>183.57</course>
  <speed>2.06</speed>
  <fix>3d</fix>
</trkpt>
<trkpt lat="40.071382" lon="-105.2296799">
  <ele>1583.02</ele>
  <time>2026-08-28T17:53:18Z</time>
  <course>185.1</course>
  <speed>1.7555910685578235</speed>
  <fix>3d</fix>
</trkpt>
<trkpt lat="40.0713864" lon="-105.2296793">
  <ele>1583.0</ele>
  <time>2026-08-28T17:53:18Z</time>
  <course>183.57</course>
  <speed>2.06</speed>
  <fix>3d</fix>
</trkpt>
<trkpt lat="40.0713806" lon="-105.22968">
  <ele>1583.03</ele>
  <time>2026-08-28T17:53:18Z</time>
  <course>185.57</course>
  <speed>1.6061133210331082</speed>
  <fix>3d</fix>
</trkpt>
<trkpt lat="40.071383" lon="-105.2296796">
  <ele>1583.0</ele>
  <time>2026-08-28T17:53:18Z</time>
  <course>184.38</course>
  <speed>1.77</speed>
  <fix>3d</fix>
</trkpt>
<trkpt lat="40.0713792" lon="-105.2296801">
  <ele>1583.03</ele>
  <time>2026-08-28T17:53:18Z</time>
  <course>186.1</course>
  <speed>1.4666969693839282</speed>
  <fix>3d</fix>
</trkpt>
<trkpt lat="40.071383" lon="-105.2296796">
  <ele>1583.0</ele>
  <time>2026-08-28T17:53:18Z</time>
  <course>184.38</course>
  <speed>1.77</speed>
  <fix>3d</fix>
</trkpt>
<trkpt lat="40.071378" lon="-105.2296803">
  <ele>1583.03</ele>
  <time>2026-08-28T17:53:18Z</time>
  <course>186.7</course>
  <speed>1.317459676802292</speed>
  <fix>3d</fix>
</trkpt>
<trkpt lat="40.071383" lon="-105.2296796">
  <ele>1583.0</ele>
  <time>2026-08-28T17:53:18Z</time>
  <course>184.38</course>
  <speed>1.77</speed>
  <fix>3d</fix>
</trkpt>
<trkpt lat="40.071377" lon="-105.2296804">
  <ele>1583.03</ele>
  <time>2026-08-28T17:53:18Z</time>
  <course>187.4</course>
  <speed>1.1783462988442743</speed>
  <fix>3d</fix>
</trkpt>
<trkpt lat="40.07138" lon="-105.2296799">
  <ele>1583.0</ele>
  <time>2026-08-28T17:53:18Z</time>
  <course>185.38</course>
  <speed>1.48</speed>
  <fix>3d</fix>
</trkpt>
<trkpt lat="40.071376" lon="-105.2296806">
  <ele>1583.03</ele>
  <time>2026-08-28T17:53:18Z</time>
  <course>188.21</course>
  <speed>1.039471019317037</speed>
  <fix>3d</fix>
</trkpt>
<trkpt lat="40.07138" lon="-105.2296799">
  <ele>1583.0</ele>
  <time>2026-08-28T17:53:18Z</time>
  <course>185.38</course>
  <speed>1.48</speed>
  <fix>3d</fix>
</trkpt>
<trkpt lat="40.0713752" lon="-105.2296807">
  <ele>1583.02</ele>
  <time>2026-08-28T17:53:18Z</time>
  <course>189.14</course>
  <speed>0.9093404203047393</speed>
  <fix>3d</fix>
</trkpt>
<trkpt lat="40.0713776" lon="-105.2296803">
  <ele>1583.0</ele>
  <time>2026-08-28T17:53:18Z</time>
  <course>186.67</course>
  <speed>1.21</speed>
  <fix>3d</fix>
</trkpt>
<trkpt lat="40.0713744" lon="-105.2296809">
  <ele>1583.02</ele>
  <time>2026-08-28T17:53:18Z</time>
  <course>190.04</course>
  <speed>0.7808969202141856</speed>
  <fix>3d</fix>
</trkpt>
<trkpt lat="40.0713776" lon="-105.2296803">
  <ele>1583.0</ele>
  <time>2026-08-28T17:53:18Z</time>
  <course>186.67</course>
  <speed>1.21</speed>
  <fix>3d</fix>
</trkpt>
<trkpt lat="40.0713738" lon="-105.229681">
  <ele>1583.02</ele>
  <time>2026-08-28T17:53:18Z</time>
  <course>190.9</course>
  <speed>0.6609841147864296</speed>
  <fix>3d</fix>
</trkpt>
<trkpt lat="40.0713757" lon="-105.2296806">
  <ele>1583.0</ele>
  <time>2026-08-28T17:53:18Z</time>
  <course>188.3</course>
  <speed>0.94</speed>
  <fix>3d</fix>
</trkpt>
<trkpt lat="40.0713733" lon="-105.2296811">
  <ele>1583.02</ele>
  <time>2026-08-28T17:53:18Z</time>
  <course>191.72</course>
  <speed>0.5295280917949491</speed>
  <fix>3d</fix>
</trkpt>
<trkpt lat="40.0713757" lon="-105.2296806">
  <ele>1583.0</ele>
  <time>2026-08-28T17:53:18Z</time>
  <course>188.3</course>
  <speed>0.94</speed>
  <fix>3d</fix>
</trkpt>
<trkpt lat="40.0713729" lon="-105.2296812">
  <ele>1583.02</ele>
  <time>2026-08-28T17:53:18Z</time>
  <course>192.44</course>
  <speed>0.4197618372363071</speed>
  <fix>3d</fix>
</trkpt>
<trkpt lat="40.0713742" lon="-105.2296809">
  <ele>1583.0</ele>
  <time>2026-08-28T17:53:18Z</time>
  <course>190.03</course>
  <speed>0.69</speed>
  <fix>3d</fix>
</trkpt>
<trkpt lat="40.0713726" lon="-105.2296813">
  <ele>1583.02</ele>
  <time>2026-08-28T17:53:18Z</time>
  <course>192.99</course>
  <speed>0.29832867780352595</speed>
  <fix>3d</fix>
</trkpt>
<trkpt lat="40.0713731" lon="-105.2296811">
  <ele>1583.0</ele>
  <time>2026-08-28T17:53:18Z</time>
  <course>191.49</course>
  <speed>0.46</speed>
  <fix>3d</fix>
</trkpt>
<trkpt lat="40.0713724" lon="-105.2296814">
  <ele>1583.02</ele>
  <time>2026-08-28T17:53:18Z</time>
  <course>193.4</course>
  <speed>0.196468827043885</speed>
  <fix>3d</fix>
</trkpt>
<trkpt lat="40.0713731" lon="-105.2296811">
  <ele>1583.0</ele>
  <time>2026-08-28T17:53:18Z</time>
  <course>191.49</course>
  <speed>0.46</speed>
  <fix>3d</fix>
</trkpt>
<trkpt lat="40.0713723" lon="-105.2296814">
  <ele>1583.02</ele>
  <time>2026-08-28T17:53:18Z</time>
  <course>193.65</course>
  <speed>0.09219544457292887</speed>
  <fix>3d</fix>
</trkpt>
<trkpt lat="40.0713726" lon="-105.2296813">
  <ele>1583.0</ele>
  <time>2026-08-28T17:53:18Z</time>
  <course>192.46</course>
  <speed>0.24</speed>
  <fix>3d</fix>
</trkpt>
<trkpt lat="40.0713723" lon="-105.2296814">
  <ele>1583.02</ele>
  <time>2026-08-28T17:53:18Z</time>
  <course>193.78</course>
  <speed>0.0</speed>
  <fix>3d</fix>
</trkpt>
<trkpt lat="40.0713726" lon="-105.2296813">
  <ele>1583.0</ele>
  <time>2026-08-28T17:53:18Z</time>
  <course>192.46</course>
  <speed>0.24</speed>
  <fix>3d</fix>
</trkpt>
<trkpt lat="40.0713723" lon="-105.2296814">
  <ele>1583.02</ele>
  <time>2026-08-28T17:53:18Z</time>
  <course>193.79</course>
  <speed>0.07</speed>
  <fix>3d</fix>
</trkpt>
<trkpt lat="40.0713723" lon="-105.2296814">
  <ele>1583.0</ele>
  <time>2026-08-28T17:53:18Z</time>
  <course>192.92</course>
  <speed>0.05</speed>
  <fix>3d</fix>
</trkpt>
<trkpt lat="40.0713724" lon="-105.2296814">
  <ele>1583.02</ele>
  <time>2026-08-28T17:53:18Z</time>
  <course>193.87</course>
  <speed>0.1414213562373095</speed>
  <fix>3d</fix>
</trkpt>
<trkpt lat="40.0713723" lon="-105.2296814">
  <ele>1583.0</ele>
  <time>2026-08-28T17:53:18Z</time>
  <course>192.92</course>
  <speed>0.05</speed>
  <fix>3d</fix>
</trkpt>
<trkpt lat="40.0713725" lon="-105.2296814">
  <ele>1583.02</ele>
  <time>2026-08-28T17:53:18Z</time>
  <course>194.01</course>
  <speed>0.20223748416156684</speed>
  <fix>3d</fix>
</trkpt>
<trkpt lat="40.0713724" lon="-105.2296814">
  <ele>1583.0</ele>
  <time>2026-08-28T17:53:18Z</time>
  <course>13.21</course>
  <speed>0.09</speed>
  <fix>3d</fix>
</trkpt>
<trkpt lat="40.0713727" lon="-105.2296814">
  <ele>1583.02</ele>
  <time>2026-08-28T17:53:18Z</time>
  <course>194.2</course>
  <speed>0.24331050121192876</speed>
  <fix>3d</fix>
</trkpt>
<trkpt lat="40.0713724" lon="-105.2296814">
  <ele>1583.0</ele>
  <time>2026-08-28T17:53:18Z</time>
  <course>13.21</course>
  <speed>0.09</speed>
  <fix>3d</fix>
</trkpt>
<trkpt lat="40.0713729" lon="-105.2296813">
  <ele>1583.02</ele>
  <time>2026-08-28T17:53:18Z</time>
  <course>194.42</course>
  <speed>0.2745906043549196</speed>
  <fix>3d</fix>
</trkpt>
<trkpt lat="40.0713725" lon="-105.2296813">
  <ele>1583.0</ele>
  <time>2026-08-28T17:53:18Z</time>
  <course>13.49</course>
  <speed>0.19</speed>
  <fix>3d</fix>
</trkpt>
<trkpt lat="40.0713732" lon="-105.2296813">
  <ele>1583.02</ele>
  <time>2026-08-28T17:53:18Z</time>
  <course>194.61</course>
  <speed>0.2942787793912432</speed>
  <fix>3d</fix>
</trkpt>
<trkpt lat="40.0713725" lon="-105.2296813">
  <ele>1583.0</ele>
  <time>2026-08-28T17:53:18Z</time>
  <course>13.49</course>
  <speed>0.19</speed>
  <fix>3d</fix>
</trkpt>
<trkpt lat="40.0713734" lon="-105.2296812">
  <ele>1583.02</ele>
  <time>2026-08-28T17:53:18Z</time>
  <course>194.68</course>
  <speed>0.31400636936215165</speed>
  <fix>3d</fix>
</trkpt>
<trkpt lat="40.0713729" lon="-105.2296813">
  <ele>1583.0</ele>
  <time>2026-08-28T17:53:18Z</time>
  <course>13.79</course>
  <speed>0.24</speed>
  <fix>3d</fix>
</trkpt>
<trkpt lat="40.0713737" lon="-105.2296811">
  <ele>1583.02</ele>
  <time>2026-08-28T17:53:18Z</time>
  <course>194.9</course>
  <speed>0.304138126514911</speed>
  <fix>3d</fix>
</trkpt>
<trkpt lat="40.0713729" lon="-105.2296813">
  <ele>1583.0</ele>
  <time>2026-08-28T17:53:18Z</time>
  <course>13.79</course>
  <speed>0.24</speed>
  <fix>3d</fix>
</trkpt>
<trkpt lat="40.0713739" lon="-105.2296811">
  <ele>1583.02</ele>
  <time>2026-08-28T17:53:18Z</time>
  <course>195.23</course>
  <speed>0.27294688127912364</speed>
  <fix>3d</fix>
</trkpt>
<trkpt lat="40.0713734" lon="-105.2296811">
  <ele>1583.0</ele>
  <time>2026-08-28T17:53:18Z</time>
  <course>14.16</course>
  <speed>0.24</speed>
  <fix>3d</fix>
</trkpt>
<trkpt lat="40.0713741" lon="-105.229681">
  <ele>1583.02</ele>
  <time>2026-08-28T17:53:18Z</time>
  <course>195.63</course>
  <speed>0.2220360331117452</speed>
  <fix>3d</fix>
</trkpt>
<trkpt lat="40.0713734" lon="-105.2296811">
  <ele>1583.0</ele>
  <time>2026-08-28T17:53:18Z</time>
  <course>14.16</course>
  <speed>0.24</speed>
  <fix>3d</fix>
</trkpt>
<trkpt lat="40.0713743" lon="-105.229681">
  <ele>1583.02</ele>
  <time>2026-08-28T17:53:18Z</time>
  <course>196.03</course>
  <speed>0.17029386365926402</speed>
  <fix>3d</fix>
</trkpt>
<trkpt lat="40.0713734" lon="-105.2296811">
  <ele>1583.0</ele>
  <time>2026-08-28T17:53:18Z</time>
  <course>14.16</course>
  <speed>0.24</speed>
  <fix>3d</fix>
</trkpt>
<trkpt lat="40.0713743" lon="-105.229681">
  <ele>1583.02</ele>
  <time>2026-08-28T17:53:18Z</time>
  <course>196.37</course>
  <speed>0.11</speed>
  <fix>3d</fix>
</trkpt>
<trkpt lat="40.0713737" lon="-105.229681">
  <ele>1583.0</ele>
  <time>2026-08-28T17:53:18Z</time>
  <course>14.73</course>
  <speed>0.17</speed>
  <fix>3d</fix>
</trkpt>
<trkpt lat="40.0713744" lon="-105.229681">
  <ele>1583.02</ele>
  <time>2026-08-28T17:53:18Z</time>
  <course>196.53</course>
  <speed>0.053851648071345036</speed>
  <fix>3d</fix>
</trkpt>
<trkpt lat="40.0713737" lon="-105.229681">
  <ele>1583.0</ele>
  <time>2026-08-28T17:53:18Z</time>
  <course>14.73</course>
  <speed>0.17</speed>
  <fix>3d</fix>
</trkpt>
<trkpt lat="40.0713744" lon="-105.229681">
  <ele>1583.02</ele>
  <time>2026-08-28T17:53:18Z</time>
  <course>196.52</course>
  <speed>0.0412310562561766</speed>
  <fix>3d</fix>
</trkpt>
<trkpt lat="40.0713739" lon="-105.229681">
  <ele>1583.0</ele>
  <time>2026-08-28T17:53:18Z</time>
  <course>15.25</course>
  <speed>0.06</speed>
  <fix>3d</fix>
</trkpt>
<trkpt lat="40.0713743" lon="-105.2296811">
  <ele>1583.02</ele>
  <time>2026-08-28T17:53:18Z</time>
  <course>197.0</course>
  <speed>0.09219544457292887</speed>
  <fix>3d</fix>
</trkpt>
<trkpt lat="40.0713739" lon="-105.229681">
  <ele>1583.0</ele>
  <time>2026-08-28T17:53:18Z</time>
  <course>15.25</course>
  <speed>0.06</speed>
  <fix>3d</fix>
</trkpt>
<trkpt lat="40.0713741" lon="-105.2296812">
  <ele>1583.02</ele>
  <time>2026-08-28T17:53:18Z</time>
  <course>197.87</course>
  <speed>0.1664331697709324</speed>
  <fix>3d</fix>
</trkpt>
<trkpt lat="40.071374" lon="-105.229681">
  <ele>1583.0</ele>
  <time>2026-08-28T17:53:18Z</time>
  <course>196.28</course>
  <speed>0.05</speed>
  <fix>3d</fix>
</trkpt>
<trkpt lat="40.0713739" lon="-105.2296812">
  <ele>1583.02</ele>
  <time>2026-08-28T17:53:18Z</time>
  <course>199.16</course>
  <speed>0.24186773244895649</speed>
  <fix>3d</fix>
</trkpt>
<trkpt lat="40.0713738" lon="-105.229681">
  <ele>1583.0</ele>
  <time>2026-08-28T17:53:18Z</time>
  <course>197.68</course>
  <speed>0.19</speed>
  <fix>3d</fix>
</trkpt>
<trkpt lat="40.0713736" lon="-105.2296814">
  <ele>1583.02</ele>
  <time>2026-08-28T17:53:18Z</time>
  <course>200.8</course>
  <speed>0.30886890422961</speed>
  <fix>3d</fix>
</trkpt>
<trkpt lat="40.0713738" lon="-105.229681">
  <ele>1583.0</ele>
  <time>2026-08-28T17:53:18Z</time>
  <course>197.68</course>
  <speed>0.19</speed>
  <fix>3d</fix>
</trkpt>
<trkpt lat="40.0713734" lon="-105.2296816">
  <ele>1583.02</ele>
  <time>2026-08-28T17:53:18Z</time>
  <course>202.79</course>
  <speed>0.3944616584663204</speed>
  <fix>3d</fix>
</trkpt>
<trkpt lat="40.0713734" lon="-105.2296811">
  <ele>1583.0</ele>
  <time>2026-08-28T17:53:18Z</time>
  <course>200.57</course>
  <speed>0.33</speed>
  <fix>3d</fix>
</trkpt>
<trkpt lat="40.071373" lon="-105.2296818">
  <ele>1583.02</ele>
  <time>2026-08-28T17:53:18Z</time>
  <course>205.35</course>
  <speed>0.46647615158762407</speed>
  <fix>3d</fix>
</trkpt>
<trkpt lat="40.0713734" lon="-105.2296811">
  <ele>1583.0</ele>
  <time>2026-08-28T17:53:18Z</time>
  <course>200.57</course>
  <speed>0.33</speed>
  <fix>3d</fix>
</trkpt>
<trkpt lat="40.0713726" lon="-105.2296821">
  <ele>1583.01</ele>
  <time>2026-08-28T17:53:18Z</time>
  <course>208.58</course>
  <speed>0.54644304369257</speed>
  <fix>3d</fix>
</trkpt>
<trkpt lat="40.0713727" lon="-105.2296815">
  <ele>1583.0</ele>
  <time>2026-08-28T17:53:18Z</time>
  <course>205.35</course>
  <speed>0.47</speed>
  <fix>3d</fix>
</trkpt>
<trkpt lat="40.0713721" lon="-105.2296825">
  <ele>1583.01</ele>
  <time>2026-08-28T17:53:18Z</time>
  <course>212.35</course>
  <speed>0.6360031446463138</speed>
  <fix>3d</fix>
</trkpt>
<trkpt lat="40.0713727" lon="-105.2296815">
  <ele>1583.0</ele>
  <time>2026-08-28T17:53:18Z</time>
  <course>205.35</course>
  <speed>0.47</speed>
  <fix>3d</fix>
</trkpt>
<trkpt lat="40.0713716" lon="-105.229683">
  <ele>1583.01</ele>
  <time>2026-08-28T17:53:18Z</time>
  <course>216.65</course>
  <speed>0.73</speed>
  <fix>3d</fix>
</trkpt>
<trkpt lat="40.0713719" lon="-105.2296821">
  <ele>1583.0</ele>
  <time>2026-08-28T17:53:18Z</time>
  <course>212.37</course>
  <speed>0.63</speed>
  <fix>3d</fix>
</trkpt>
<trkpt lat="40.071371" lon="-105.2296836">
  <ele>1583.0</ele>
  <time>2026-08-28T17:53:18Z</time>
  <course>221.55</course>
  <speed>0.8273451516749222</speed>
  <fix>3d</fix>
</trkpt>
<trkpt lat="40.0713719" lon="-105.2296821">
  <ele>1583.0</ele>
  <time>2026-08-28T17:53:18Z</time>
  <course>212.37</course>
  <speed>0.63</speed>
  <fix>3d</fix>
</trkpt>
<trkpt lat="40.0713704" lon="-105.2296843">
  <ele>1583.0</ele>
  <time>2026-08-28T17:53:18Z</time>
  <course>227.01</course>
  <speed>0.9231467922275417</speed>
  <fix>3d</fix>
</trkpt>
<trkpt lat="40.0713708" lon="-105.2296831">
  <ele>1583.0</ele>
  <time>2026-08-28T17:53:18Z</time>
  <course>221.65</course>
  <speed>0.81</speed>
  <fix>3d</fix>
</trkpt>
<trkpt lat="40.0713699" lon="-105.2296852">
  <ele>1583.0</ele>
  <time>2026-08-28T17:53:18Z</time>
  <course>232.92</course>
  <speed>1.0290286682109493</speed>
  <fix>3d</fix>
</trkpt>
<trkpt lat="40.0713708" lon="-105.2296831">
  <ele>1583.0</ele>
  <time>2026-08-28T17:53:18Z</time>
  <course>221.65</course>
  <speed>0.81</speed>
  <fix>3d</fix>
</trkpt>
<trkpt lat="40.0713693" lon="-105.2296863">
  <ele>1583.0</ele>
  <time>2026-08-28T17:53:18Z</time>
  <course>238.17</course>
  <speed>1.1461239025515522</speed>
  <fix>3d</fix>
</trkpt>
<trkpt lat="40.0713697" lon="-105.2296847">
  <ele>1583.0</ele>
  <time>2026-08-28T17:53:18Z</time>
  <course>232.36</course>
  <speed>1.0</speed>
  <fix>3d</fix>
</trkpt>
<trkpt lat="40.0713688" lon="-105.2296875">
  <ele>1583.0</ele>
  <time>2026-08-28T17:53:18Z</time>
  <course>242.73</course>
  <speed>1.2614277624977184</speed>
  <fix>3d</fix>
</trkpt>
<trkpt lat="40.0713697" lon="-105.2296847">
  <ele>1583.0</ele>
  <time>2026-08-28T17:53:18Z</time>
  <course>232.36</course>
  <speed>1.0</speed>
  <fix>3d</fix>
</trkpt>
<trkpt lat="40.0713683" lon="-105.2296889">
  <ele>1583.01</ele>
  <time>2026-08-28T17:53:18Z</time>
  <course>246.68</course>
  <speed>1.3648809471891679</speed>
  <fix>3d</fix>
</trkpt>
<trkpt lat="40.0713686" lon="-105.2296869">
  <ele>1583.0</ele>
  <time>2026-08-28T17:53:18Z</time>
  <course>242.0</course>
  <speed>1.21</speed>
  <fix>3d</fix>
</trkpt>
<trkpt lat="40.0713678" lon="-105.2296905">
  <ele>1583.01</ele>
  <time>2026-08-28T17:53:18Z</time>
  <course>250.1</course>
  <speed>1.4862705002791383</speed>
  <fix>3d</fix>
</trkpt>
<trkpt lat="40.0713686" lon="-105.2296869">
  <ele>1583.0</ele>
  <time>2026-08-28T17:53:18Z</time>
  <course>242.0</course>
  <speed>1.21</speed>
  <fix>3d</fix>
</trkpt>
<trkpt lat="40.0713674" lon="-105.2296922">
  <ele>1583.02</ele>
  <time>2026-08-28T17:53:18Z</time>
  <course>253.13</course>
  <speed>1.5989058759038945</speed>
  <fix>3d</fix>
</trkpt>
<trkpt lat="40.0713686" lon="-105.2296869">
  <ele>1583.0</ele>
  <time>2026-08-28T17:53:18Z</time>
  <course>242.0</course>
  <speed>1.21</speed>
  <fix>3d</fix>
</trkpt>
<trkpt lat="40.071367" lon="-105.229694">
  <ele>1583.02</ele>
  <time>2026-08-28T17:53:18Z</time>
  <course>255.82</course>
  <speed>1.695464538113375</speed>
  <fix>3d</fix>
</trkpt>
<trkpt lat="40.0713676" lon="-105.2296897">
  <ele>1583.0</ele>
  <time>2026-08-28T17:53:18Z</time>
  <course>249.36</course>
  <speed>1.44</speed>
  <fix>3d</fix>
</trkpt>
<trkpt lat="40.0713666" lon="-105.229696">
  <ele>1583.02</ele>
  <time>2026-08-28T17:53:18Z</time>
  <course>258.1</course>
  <speed>1.7925400971805345</speed>
  <fix>3d</fix>
</trkpt>
<trkpt lat="40.0713676" lon="-105.2296897">
  <ele>1583.0</ele>
  <time>2026-08-28T17:53:18Z</time>
  <course>249.36</course>
  <speed>1.44</speed>
  <fix>3d</fix>
</trkpt>
<trkpt lat="40.0713663" lon="-105.2296981">
  <ele>1583.03</ele>
  <time>2026-08-28T17:53:18Z</time>
  <course>260.06</course>
  <speed>1.8939112967612817</speed>
  <fix>3d</fix>
</trkpt>
<trkpt lat="40.0713668" lon="-105.2296932">
  <ele>1583.0</ele>
  <time>2026-08-28T17:53:18Z</time>
  <course>254.98</course>
  <speed>1.65</speed>
  <fix>3d</fix>
</trkpt>
<trkpt lat="40.071366" lon="-105.2297003">
  <ele>1583.03</ele>
  <time>2026-08-28T17:53:18Z</time>
  <course>261.74</course>
  <speed>1.9983242980057065</speed>
  <fix>3d</fix>
</trkpt>
<trkpt lat="40.0713668" lon="-105.2296932">
  <ele>1583.0</ele>
  <time>2026-08-28T17:53:18Z</time>
  <course>254.98</course>
  <speed>1.65</speed>
  <fix>3d</fix>
</trkpt>
<trkpt lat="40.0713657" lon="-105.2297027">
  <ele>1583.03</ele>
  <time>2026-08-28T17:53:18Z</time>
  <course>263.16</course>
  <speed>2.10261741645978</speed>
  <fix>3d</fix>
</trkpt>
<trkpt lat="40.0713661" lon="-105.2296973">
  <ele>1583.0</ele>
  <time>2026-08-28T17:53:18Z</time>
  <course>259.23</course>
  <speed>1.85</speed>
  <fix>3d</fix>
</trkpt>
<trkpt lat="40.0713655" lon="-105.2297052">
  <ele>1583.03</ele>
  <time>2026-08-28T17:53:18Z</time>
  <course>264.37</course>
  <speed>2.209072203437452</speed>
  <fix>3d</fix>
</trkpt>
<trkpt lat="40.0713661" lon="-105.2296973">
  <ele>1583.0</ele>
  <time>2026-08-28T17:53:18Z</time>
  <course>259.23</course>
  <speed>1.85</speed>
  <fix>3d</fix>
</trkpt>
<trkpt lat="40.0713653" lon="-105.2297078">
  <ele>1583.03</ele>
  <time>2026-08-28T17:53:18Z</time>
  <course>265.42</course>
  <speed>2.3162469643800936</speed>
  <fix>3d</fix>
</trkpt>
<trkpt lat="40.0713655" lon="-105.2297018">
  <ele>1583.0</ele>
  <time>2026-08-28T17:53:18Z</time>
  <course>262.34</course>
  <speed>2.06</speed>
  <fix>3d</fix>
</trkpt>
<trkpt lat="40.0713652" lon="-105.2297105">
  <ele>1583.03</ele>
  <time>2026-08-28T17:53:18Z</time>
  <course>266.3</course>
  <speed>2.42404620418011</speed>
  <fix>3d</fix>
</trkpt>
<trkpt lat="40.0713652" lon="-105.2297069">
  <ele>1583.0</ele>
  <time>2026-08-28T17:53:18Z</time>
  <course>264.59</course>
  <speed>2.28</speed>
  <fix>3d</fix>
</trkpt>
<trkpt lat="40.071365" lon="-105.2297134">
  <ele>1583.04</ele>
  <time>2026-08-28T17:53:18Z</time>
  <course>267.06</course>
  <speed>2.5228555249954367</speed>
  <fix>3d</fix>
</trkpt>
<trkpt lat="40.0713652" lon="-105.2297069">
  <ele>1583.0</ele>
  <time>2026-08-28T17:53:18Z</time>
  <course>264.59</course>
  <speed>2.28</speed>
  <fix>3d</fix>
</trkpt>
<trkpt lat="40.0713649" lon="-105.2297164">
  <ele>1583.04</ele>
  <time>2026-08-28T17:53:18Z</time>
  <course>267.73</course>
  <speed>2.631900454044567</speed>
  <fix>3d</fix>
</trkpt>
<trkpt lat="40.0713648" lon="-105.2297124">
  <ele>1583.0</ele>
  <time>2026-08-28T17:53:18Z</time>
  <course>266.26</course>
  <speed>2.49</speed>
  <fix>3d</fix>
</trkpt>
<trkpt lat="40.0713648" lon="-105.2297195">
  <ele>1583.04</ele>
  <time>2026-08-28T17:53:18Z</time>
  <course>268.34</course>
  <speed>2.7209005862030313</speed>
  <fix>3d</fix>
</trkpt>
<trkpt lat="40.0713648" lon="-105.2297124">
  <ele>1583.0</ele>
  <time>2026-08-28T17:53:18Z</time>
  <course>266.26</course>
  <speed>2.49</speed>
  <fix>3d</fix>
</trkpt>
<trkpt lat="40.0713647" lon="-105.2297228">
  <ele>1583.04</ele>
  <time>2026-08-28T17:53:18Z</time>
  <course>268.88</course>
  <speed>2.8104448046528154</speed>
  <fix>3d</fix>
</trkpt>
<trkpt lat="40.0713645" lon="-105.2297185">
  <ele>1583.0</ele>
  <time>2026-08-28T17:53:18Z</time>
  <course>267.55</course>
  <speed>2.68</speed>
  <fix>3d</fix>
</trkpt>
<trkpt lat="40.0713646" lon="-105.2297261">
  <ele>1583.04</ele>
  <time>2026-08-28T17:53:18Z</time>
  <course>269.38</course>
  <speed>2.880156245761677</speed>
  <fix>3d</fix>
</trkpt>
<trkpt lat="40.0713645" lon="-105.2297185">
  <ele>1583.0</ele>
  <time>2026-08-28T17:53:18Z</time>
  <course>267.55</course>
  <speed>2.68</speed>
  <fix>3d</fix>
</trkpt>
<trkpt lat="40.0713646" lon="-105.2297296">
  <ele>1583.04</ele>
  <time>2026-08-28T17:53:18Z</time>
  <course>269.85</course>
  <speed>2.9300170647967225</speed>
  <fix>3d</fix>
</trkpt>
<trkpt lat="40.0713644" lon="-105.229725">
  <ele>1583.0</ele>
  <time>2026-08-28T17:53:18Z</time>
  <course>268.6</course>
  <speed>2.83</speed>
  <fix>3d</fix>
</trkpt>
<trkpt lat="40.0713645" lon="-105.2297331">
  <ele>1583.04</ele>
  <time>2026-08-28T17:53:18Z</time>
  <course>270.27</course>
  <speed>2.97</speed>
  <fix>3d</fix>
</trkpt>
<trkpt lat="40.0713644" lon="-105.229725">
  <ele>1583.0</ele>
  <time>2026-08-28T17:53:18Z</time>
  <course>268.6</course>
  <speed>2.83</speed>
  <fix>3d</fix>
</trkpt>
<trkpt lat="40.0713645" lon="-105.2297366">
  <ele>1583.04</ele>
  <time>2026-08-28T17:53:18Z</time>
  <course>270.67</course>
  <speed>3.0000666659259423</speed>
  <fix>3d</fix>
</trkpt>
<trkpt lat="40.0713643" lon="-105.2297318">
  <ele>1583.0</ele>
  <time>2026-08-28T17:53:18Z</time>
  <course>269.49</course>
  <speed>2.93</speed>
  <fix>3d</fix>
</trkpt>
<trkpt lat="40.0713645" lon="-105.2297401">
  <ele>1583.04</ele>
  <time>2026-08-28T17:53:18Z</time>
  <course>271.05</course>
  <speed>3.010265768997814</speed>
  <fix>3d</fix>
</trkpt>
<trkpt lat="40.0713643" lon="-105.2297318">
  <ele>1583.0</ele>
  <time>2026-08-28T17:53:18Z</time>
  <course>269.49</course>
  <speed>2.93</speed>
  <fix>3d</fix>
</trkpt>
<trkpt lat="40.0713646" lon="-105.2297437">
  <ele>1583.03</ele>
  <time>2026-08-28T17:53:18Z</time>
  <course>271.41</course>
  <speed>3.0105979472523394</speed>
  <fix>3d</fix>
</trkpt>
<trkpt lat="40.0713643" lon="-105.2297388">
  <ele>1583.0</ele>
  <time>2026-08-28T17:53:18Z</time>
  <course>270.27</course>
  <speed>2.97</speed>
  <fix>3d</fix>
</trkpt>
<trkpt lat="40.0713646" lon="-105.2297472">
  <ele>1583.03</ele>
  <time>2026-08-28T17:53:18Z</time>
  <course>271.77</course>
  <speed>2.9808220342717546</speed>
  <fix>3d</fix>
</trkpt>
<trkpt lat="40.0713643" lon="-105.2297388">
  <ele>1583.0</ele>
  <time>2026-08-28T17:53:18Z</time>
  <course>270.27</course>
  <speed>2.97</speed>
  <fix>3d</fix>
</trkpt>
<trkpt lat="40.0713646" lon="-105.2297506">
  <ele>1583.03</ele>
  <time>2026-08-28T17:53:18Z</time>
  <course>272.12</course>
  <speed>2.9413772284424855</speed>
  <fix>3d</fix>
</trkpt>
<trkpt lat="40.0713643" lon="-105.2297457">
  <ele>1583.0</ele>
  <time>2026-08-28T17:53:18Z</time>
  <course>271.0</course>
  <speed>2.94</speed>
  <fix>3d</fix>
</trkpt>
<trkpt lat="40.0713646" lon="-105.229754">
  <ele>1583.03</ele>
  <time>2026-08-28T17:53:18Z</time>
  <course>272.49</course>
  <speed>2.8920926679482455</speed>
  <fix>3d</fix>
</trkpt>
<trkpt lat="40.0713643" lon="-105.2297457">
  <ele>1583.0</ele>
  <time>2026-08-28T17:53:18Z</time>
  <course>271.0</course>
  <speed>2.94</speed>
  <fix>3d</fix>
</trkpt>
<trkpt lat="40.0713647" lon="-105.2297574">
  <ele>1583.03</ele>
  <time>2026-08-28T17:53:18Z</time>
  <course>272.88</course>
  <speed>2.8225520367213783</speed>
  <fix>3d</fix>
</trkpt>
<trkpt lat="40.0713643" lon="-105.2297457">
  <ele>1583.0</ele>
  <time>2026-08-28T17:53:18Z</time>
  <course>271.0</course>
  <speed>2.94</speed>
  <fix>3d</fix>
</trkpt>
<trkpt lat="40.0713648" lon="-105.2297606">
  <ele>1583.03</ele>
  <time>2026-08-28T17:53:18Z</time>
  <course>273.28</course>
  <speed>2.733093485411723</speed>
  <fix>3d</fix>
</trkpt>
<trkpt lat="40.0713644" lon="-105.2297526">
  <ele>1583.0</ele>
  <time>2026-08-28T17:53:18Z</time>
  <course>271.74</course>
  <speed>2.85</speed>
  <fix>3d</fix>
</trkpt>
<trkpt lat="40.0713649" lon="-105.2297637">
  <ele>1583.03</ele>
  <time>2026-08-28T17:53:18Z</time>
  <course>273.71</course>
  <speed>2.6342740935597417</speed>
  <fix>3d</fix>
</trkpt>
<trkpt lat="40.0713644" lon="-105.2297526">
  <ele>1583.0</ele>
  <time>2026-08-28T17:53:18Z</time>
  <course>271.74</course>
  <speed>2.85</speed>
  <fix>3d</fix>
</trkpt>
<trkpt lat="40.071365" lon="-105.2297666">
  <ele>1583.03</ele>
  <time>2026-08-28T17:53:18Z</time>
  <course>274.18</course>
  <speed>2.515094431626773</speed>
  <fix>3d</fix>
</trkpt>
<trkpt lat="40.0713645" lon="-105.2297591">
  <ele>1583.0</ele>
  <time>2026-08-28T17:53:18Z</time>
  <course>272.54</course>
  <speed>2.7</speed>
  <fix>3d</fix>
</trkpt>
<trkpt lat="40.0713652" lon="-105.2297694">
  <ele>1583.03</ele>
  <time>2026-08-28T17:53:18Z</time>
  <course>274.66</course>
  <speed>2.3960383970212162</speed>
  <fix>3d</fix>
</trkpt>
<trkpt lat="40.0713645" lon="-105.2297591">
  <ele>1583.0</ele>
  <time>2026-08-28T17:53:18Z</time>
  <course>272.54</course>
  <speed>2.7</speed>
  <fix>3d</fix>
</trkpt>
<trkpt lat="40.0713653" lon="-105.2297721">
  <ele>1583.03</ele>
  <time>2026-08-28T17:53:18Z</time>
  <course>275.18</course>
  <speed>2.257188516717201</speed>
  <fix>3d</fix>
</trkpt>
<trkpt lat="40.0713648" lon="-105.2297652">
  <ele>1583.0</ele>
  <time>2026-08-28T17:53:18Z</time>
  <course>273.43</course>
  <speed>2.5</speed>
  <fix>3d</fix>
</trkpt>
<trkpt lat="40.0713654" lon="-105.2297746">
  <ele>1583.03</ele>
  <time>2026-08-28T17:53:18Z</time>
  <course>275.74</course>
  <speed>2.118537231204588</speed>
  <fix>3d</fix>
</trkpt>
<trkpt lat="40.0713651" lon="-105.2297708">
  <ele>1583.0</ele>
  <time>2026-08-28T17:53:18Z</time>
  <course>274.44</course>
  <speed>2.25</speed>
  <fix>3d</fix>
</trkpt>
<trkpt lat="40.0713656" lon="-105.2297769">
  <ele>1583.03</ele>
  <time>2026-08-28T17:53:18Z</time>
  <course>276.35</course>
  <speed>1.9791412279066898</speed>
  <fix>3d</fix>
</trkpt>
<trkpt lat="40.0713651" lon="-105.2297708">
  <ele>1583.0</ele>
  <time>2026-08-28T17:53:18Z</time>
  <course>274.44</course>
  <speed>2.25</speed>
  <fix>3d</fix>
</trkpt>
<trkpt lat="40.0713657" lon="-105.2297791">
  <ele>1583.03</ele>
  <time>2026-08-28T17:53:18Z</time>
  <course>277.02</course>
  <speed>1.8309560344257314</speed>
  <fix>3d</fix>
</trkpt>
<trkpt lat="40.0713654" lon="-105.2297758">
  <ele>1583.0</ele>
  <time>2026-08-28T17:53:18Z</time>
  <course>275.61</course>
  <speed>1.98</speed>
  <fix>3d</fix>
</trkpt>
<trkpt lat="40.0713659" lon="-105.2297811">
  <ele>1583.03</ele>
  <time>2026-08-28T17:53:18Z</time>
  <course>277.75</course>
  <speed>1.6819334112859523</speed>
  <fix>3d</fix>
</trkpt>
<trkpt lat="40.0713654" lon="-105.2297758">
  <ele>1583.0</ele>
  <time>2026-08-28T17:53:18Z</time>
  <course>275.61</course>
  <speed>1.98</speed>
  <fix>3d</fix>
</trkpt>
<trkpt lat="40.0713661" lon="-105.2297829">
  <ele>1583.03</ele>
  <time>2026-08-28T17:53:18Z</time>
  <course>278.58</course>
  <speed>1.533101431738944</speed>
  <fix>3d</fix>
</trkpt>
<trkpt lat="40.0713657" lon="-105.22978">
  <ele>1583.0</ele>
  <time>2026-08-28T17:53:18Z</time>
  <course>277.01</course>
  <speed>1.69</speed>
  <fix>3d</fix>
</trkpt>
<trkpt lat="40.0713662" lon="-105.2297846">
  <ele>1583.03</ele>
  <time>2026-08-28T17:53:18Z</time>
  <course>279.53</course>
  <speed>1.38452157801892</speed>
  <fix>3d</fix>
</trkpt>
<trkpt lat="40.0713657" lon="-105.22978">
  <ele>1583.0</ele>
  <time>2026-08-28T17:53:18Z</time>
  <course>277.01</course>
  <speed>1.69</speed>
  <fix>3d</fix>
</trkpt>
<trkpt lat="40.0713664" lon="-105.229786">
  <ele>1583.03</ele>
  <time>2026-08-28T17:53:18Z</time>
  <course>280.63</course>
  <speed>1.2362847568420472</speed>
  <fix>3d</fix>
</trkpt>
<trkpt lat="40.0713662" lon="-105.2297836">
  <ele>1583.0</ele>
  <time>2026-08-28T17:53:18Z</time>
  <course>278.78</course>
  <speed>1.4</speed>
  <fix>3d</fix>
</trkpt>
<trkpt lat="40.0713666" lon="-105.2297873">
  <ele>1583.03</ele>
  <time>2026-08-28T17:53:18Z</time>
  <course>281.91</course>
  <speed>1.078702924812944</speed>
  <fix>3d</fix>
</trkpt>
<trkpt lat="40.0713662" lon="-105.2297836">
  <ele>1583.0</ele>
  <time>2026-08-28T17:53:18Z</time>
  <course>278.78</course>
  <speed>1.4</speed>
  <fix>3d</fix>
</trkpt>
<trkpt lat="40.0713668" lon="-105.2297885">
  <ele>1583.03</ele>
  <time>2026-08-28T17:53:18Z</time>
  <course>283.3</course>
  <speed>0.9394147114027968</speed>
  <fix>3d</fix>
</trkpt>
<trkpt lat="40.0713666" lon="-105.2297865">
  <ele>1583.0</ele>
  <time>2026-08-28T17:53:18Z</time>
  <course>281.07</course>
  <speed>1.11</speed>
  <fix>3d</fix>
</trkpt>
<trkpt lat="40.071367" lon="-105.2297894">
  <ele>1583.03</ele>
  <time>2026-08-28T17:53:18Z</time>
  <course>284.66</course>
  <speed>0.7907591289387687</speed>
  <fix>3d</fix>
</trkpt>
<trkpt lat="40.0713666" lon="-105.2297865">
  <ele>1583.0</ele>
  <time>2026-08-28T17:53:18Z</time>
  <course>281.07</course>
  <speed>1.11</speed>
  <fix>3d</fix>
</trkpt>
<trkpt lat="40.0713671" lon="-105.2297902">
  <ele>1583.03</ele>
  <time>2026-08-28T17:53:18Z</time>
  <course>285.92</course>
  <speed>0.6596969000988256</speed>
  <fix>3d</fix>
</trkpt>
<trkpt lat="40.0713669" lon="-105.2297888">
  <ele>1583.0</ele>
  <time>2026-08-28T17:53:18Z</time>
  <course>283.67</course>
  <speed>0.83</speed>
  <fix>3d</fix>
</trkpt>
<trkpt lat="40.0713673" lon="-105.2297908">
  <ele>1583.03</ele>
  <time>2026-08-28T17:53:18Z</time>
  <course>286.98</course>
  <speed>0.5192301994298868</speed>
  <fix>3d</fix>
</trkpt>
<trkpt lat="40.0713669" lon="-105.2297888">
  <ele>1583.0</ele>
  <time>2026-08-28T17:53:18Z</time>
  <course>283.67</course>
  <speed>0.83</speed>
  <fix>3d</fix>
</trkpt>
<trkpt lat="40.0713674" lon="-105.2297913">
  <ele>1583.02</ele>
  <time>2026-08-28T17:53:18Z</time>
  <course>287.83</course>
  <speed>0.3956008088970496</speed>
  <fix>3d</fix>
</trkpt>
<trkpt lat="40.0713672" lon="-105.2297904">
  <ele>1583.0</ele>
  <time>2026-08-28T17:53:18Z</time>
  <course>285.94</course>
  <speed>0.57</speed>
  <fix>3d</fix>
</trkpt>
<trkpt lat="40.0713675" lon="-105.2297917">
  <ele>1583.02</ele>
  <time>2026-08-28T17:53:18Z</time>
  <course>288.46</course>
  <speed>0.2692582403567252</speed>
  <fix>3d</fix>
</trkpt>
<trkpt lat="40.0713672" lon="-105.2297904">
  <ele>1583.0</ele>
  <time>2026-08-28T17:53:18Z</time>
  <course>285.94</course>
  <speed>0.57</speed>
  <fix>3d</fix>
</trkpt>
<trkpt lat="40.0713675" lon="-105.2297919">
  <ele>1583.02</ele>
  <time>2026-08-28T17:53:18Z</time>
  <course>288.88</course>
  <speed>0.14560219778561037</speed>
  <fix>3d</fix>
</trkpt>
<trkpt lat="40.0713672" lon="-105.2297904">
  <ele>1583.0</ele>
  <time>2026-08-28T17:53:18Z</time>
  <course>285.94</course>
  <speed>0.57</speed>
  <fix>3d</fix>
</trkpt>
<trkpt lat="40.0713675" lon="-105.229792">
  <ele>1583.01</ele>
  <time>2026-08-28T17:53:18Z</time>
  <course>289.12</course>
  <speed>0.0412310562561766</speed>
  <fix>3d</fix>
</trkpt>
<trkpt lat="40.0713674" lon="-105.2297914">
  <ele>1583.0</ele>
  <time>2026-08-28T17:53:18Z</time>
  <course>287.44</course>
  <speed>0.32</speed>
  <fix>3d</fix>
</trkpt>
<trkpt lat="40.0713675" lon="-105.229792">
  <ele>1583.01</ele>
  <time>2026-08-28T17:53:18Z</time>
  <course>289.17</course>
  <speed>0.0316227766016838</speed>
  <fix>3d</fix>
</trkpt>
<trkpt lat="40.0713674" lon="-105.2297914">
  <ele>1583.0</ele>
  <time>2026-08-28T17:53:18Z</time>
  <course>287.44</course>
  <speed>0.32</speed>
  <fix>3d</fix>
</trkpt>
<trkpt lat="40.0713675" lon="-105.2297919">
  <ele>1583.01</ele>
  <time>2026-08-28T17:53:18Z</time>
  <course>289.21</course>
  <speed>0.1044030650891055</speed>
  <fix>3d</fix>
</trkpt>
<trkpt lat="40.0713676" lon="-105.2297919">
  <ele>1583.0</ele>
  <time>2026-08-28T17:53:18Z</time>
  <course>288.2</course>
  <speed>0.1</speed>
  <fix>3d</fix>
</trkpt>
<trkpt lat="40.0713675" lon="-105.2297917">
  <ele>1583.01</ele>
  <time>2026-08-28T17:53:18Z</time>
  <course>289.34</course>
  <speed>0.1676305461424021</speed>
  <fix>3d</fix>
</trkpt>
<trkpt lat="40.0713676" lon="-105.2297919">
  <ele>1583.0</ele>
  <time>2026-08-28T17:53:18Z</time>
  <course>288.2</course>
  <speed>0.1</speed>
  <fix>3d</fix>
</trkpt>
<trkpt lat="40.0713674" lon="-105.2297915">
  <ele>1583.0</ele>
  <time>2026-08-28T17:53:18Z</time>
  <course>289.55</course>
  <speed>0.22135943621178655</speed>
  <fix>3d</fix>
</trkpt>
<trkpt lat="40.0713676" lon="-105.2297919">
  <ele>1583.0</ele>
  <time>2026-08-28T17:53:18Z</time>
  <course>108.59</course>
  <speed>0.05</speed>
  <fix>3d</fix>
</trkpt>
<trkpt lat="40.0713673" lon="-105.2297912">
  <ele>1583.0</ele>
  <time>2026-08-28T17:53:18Z</time>
  <course>289.8</course>
  <speed>0.2529822128134704</speed>
  <fix>3d</fix>
</trkpt>
<trkpt lat="40.0713676" lon="-105.2297917">
  <ele>1583.0</ele>
  <time>2026-08-28T17:53:18Z</time>
  <course>108.88</course>
  <speed>0.16</speed>
  <fix>3d</fix>
</trkpt>
<trkpt lat="40.0713673" lon="-105.2297909">
  <ele>1583.0</ele>
  <time>2026-08-28T17:53:18Z</time>
  <course>290.08</course>
  <speed>0.2720294101747089</speed>
  <fix>3d</fix>
</trkpt>
<trkpt lat="40.0713676" lon="-105.2297917">
  <ele>1583.0</ele>
  <time>2026-08-28T17:53:18Z</time>
  <course>108.88</course>
  <speed>0.16</speed>
  <fix>3d</fix>
</trkpt>
<trkpt lat="40.0713673" lon="-105.2297907">
  <ele>1583.0</ele>
  <time>2026-08-28T17:53:18Z</time>
  <course>290.37</course>
  <speed>0.28460498941515416</speed>
  <fix>3d</fix>
</trkpt>
<trkpt lat="40.0713675" lon="-105.2297913">
  <ele>1583.0</ele>
  <time>2026-08-28T17:53:18Z</time>
  <course>109.36</course>
  <speed>0.21</speed>
  <fix>3d</fix>
</trkpt>
<trkpt lat="40.0713672" lon="-105.2297904">
  <ele>1583.01</ele>
  <time>2026-08-28T17:53:18Z</time>
  <course>290.65</course>
  <speed>0.28460498941515416</speed>
  <fix>3d</fix>
</trkpt>
<trkpt lat="40.0713675" lon="-105.2297913">
  <ele>1583.0</ele>
  <time>2026-08-28T17:53:18Z</time>
  <course>109.36</course>
  <speed>0.21</speed>
  <fix>3d</fix>
</trkpt>
<trkpt lat="40.0713672" lon="-105.2297902">
  <ele>1583.01</ele>
  <time>2026-08-28T17:53:18Z</time>
  <course>290.78</course>
  <speed>0.2816025568065745</speed>
  <fix>3d</fix>
</trkpt>
<trkpt lat="40.0713674" lon="-105.2297908">
  <ele>1583.0</ele>
  <time>2026-08-28T17:53:18Z</time>
  <course>109.83</course>
  <speed>0.23</speed>
  <fix>3d</fix>
</trkpt>
<trkpt lat="40.0713671" lon="-105.2297899">
  <ele>1583.01</ele>
  <time>2026-08-28T17:53:18Z</time>
  <course>290.92</course>
  <speed>0.29120439557122074</speed>
  <fix>3d</fix>
</trkpt>
<trkpt lat="40.0713674" lon="-105.2297908">
  <ele>1583.0</ele>
  <time>2026-08-28T17:53:18Z</time>
  <course>109.83</course>
  <speed>0.23</speed>
  <fix>3d</fix>
</trkpt>
<trkpt lat="40.071367" lon="-105.2297896">
  <ele>1583.01</ele>
  <time>2026-08-28T17:53:18Z</time>
  <course>291.19</course>
  <speed>0.29120439557122074</speed>
  <fix>3d</fix>
</trkpt>
<trkpt lat="40.0713672" lon="-105.2297903">
  <ele>1583.0</ele>
  <time>2026-08-28T17:53:18Z</time>
  <course>110.24</course>
  <speed>0.23</speed>
  <fix>3d</fix>
</trkpt>
<trkpt lat="40.071367" lon="-105.2297893">
  <ele>1583.01</ele>
  <time>2026-08-28T17:53:18Z</time>
  <course>291.06</course>
  <speed>0.2816025568065745</speed>
  <fix>3d</fix>
</trkpt>
<trkpt lat="40.0713672" lon="-105.2297903">
  <ele>1583.0</ele>
  <time>2026-08-28T17:53:18Z</time>
  <course>110.24</course>
  <speed>0.23</speed>
  <fix>3d</fix>
</trkpt>
<trkpt lat="40.0713669" lon="-105.229789">
  <ele>1583.02</ele>
  <time>2026-08-28T17:53:18Z</time>
  <course>291.03</course>
  <speed>0.2596150997149434</speed>
  <fix>3d</fix>
</trkpt>
<trkpt lat="40.0713671" lon="-105.2297898">
  <ele>1583.0</ele>
  <time>2026-08-28T17:53:18Z</time>
  <course>110.37</course>
  <speed>0.23</speed>
  <fix>3d</fix>
</trkpt>
<trkpt lat="40.0713669" lon="-105.2297888">
  <ele>1583.02</ele>
  <time>2026-08-28T17:53:18Z</time>
  <course>291.01</course>
  <speed>0.24738633753705963</speed>
  <fix>3d</fix>
</trkpt>
<trkpt lat="40.0713671" lon="-105.2297898">
  <ele>1583.0</ele>
  <time>2026-08-28T17:53:18Z</time>
  <course>110.37</course>
  <speed>0.23</speed>
  <fix>3d</fix>
</trkpt>
<trkpt lat="40.0713668" lon="-105.2297885">
  <ele>1583.02</ele>
  <time>2026-08-28T17:53:18Z</time>
  <course>290.99</course>
  <speed>0.23769728648009425</speed>
  <fix>3d</fix>
</trkpt>
<trkpt lat="40.0713669" lon="-105.2297893">
  <ele>1583.0</ele>
  <time>2026-08-28T17:53:18Z</time>
  <course>110.26</course>
  <speed>0.21</speed>
  <fix>3d</fix>
</trkpt>
<trkpt lat="40.0713668" lon="-105.2297883">
  <ele>1583.02</ele>
  <time>2026-08-28T17:53:18Z</time>
  <course>290.98</course>
  <speed>0.22561028345356957</speed>
  <fix>3d</fix>
</trkpt>
<trkpt lat="40.0713669" lon="-105.2297893">
  <ele>1583.0</ele>
  <time>2026-08-28T17:53:18Z</time>
  <course>110.26</course>
  <speed>0.21</speed>
  <fix>3d</fix>
</trkpt>
<trkpt lat="40.0713667" lon="-105.2297881">
  <ele>1583.02</ele>
  <time>2026-08-28T17:53:18Z</time>
  <course>290.96</course>
  <speed>0.21377558326431947</speed>
  <fix>3d</fix>
</trkpt>
<trkpt lat="40.0713668" lon="-105.2297888">
  <ele>1583.0</ele>
  <time>2026-08-28T17:53:18Z</time>
  <course>110.22</course>
  <speed>0.19</speed>
  <fix>3d</fix>
</trkpt>
<trkpt lat="40.0713667" lon="-105.2297879">
  <ele>1583.02</ele>
  <time>2026-08-28T17:53:18Z</time>
  <course>290.95</course>
  <speed>0.2039607805437114</speed>
  <fix>3d</fix>
</trkpt>
<trkpt lat="40.0713668" lon="-105.2297888">
  <ele>1583.0</ele>
  <time>2026-08-28T17:53:18Z</time>
  <course>110.22</course>
  <speed>0.19</speed>
  <fix>3d</fix>
</trkpt>
<trkpt lat="40.0713667" lon="-105.2297877">
  <ele>1583.02</ele>
  <time>2026-08-28T17:53:18Z</time>
  <course>290.94</course>
  <speed>0.19235384061671343</speed>
  <fix>3d</fix>
</trkpt>
<trkpt lat="40.0713668" lon="-105.2297888">
  <ele>1583.0</ele>
  <time>2026-08-28T17:53:18Z</time>
  <course>110.22</course>
  <speed>0.19</speed>
  <fix>3d</fix>
</trkpt>
<trkpt lat="40.0713666" lon="-105.2297876">
  <ele>1583.02</ele>
  <time>2026-08-28T17:53:18Z</time>
  <course>290.92</course>
  <speed>0.1824828759089466</speed>
  <fix>3d</fix>
</trkpt>
<trkpt lat="40.0713667" lon="-105.2297885">
  <ele>1583.0</ele>
  <time>2026-08-28T17:53:18Z</time>
  <course>110.19</course>
  <speed>0.17</speed>
  <fix>3d</fix>
</trkpt>
<trkpt lat="40.0713666" lon="-105.2297874">
  <ele>1583.02</ele>
  <time>2026-08-28T17:53:18Z</time>
  <course>290.91</course>
  <speed>0.1711724276862369</speed>
  <fix>3d</fix>
</trkpt>
<trkpt lat="40.0713667" lon="-105.2297885">
  <ele>1583.0</ele>
  <time>2026-08-28T17:53:18Z</time>
  <course>110.19</course>
  <speed>0.17</speed>
  <fix>3d</fix>
</trkpt>
<trkpt lat="40.0713666" lon="-105.2297873">
  <ele>1583.02</ele>
  <time>2026-08-28T17:53:18Z</time>
  <course>290.9</course>
  <speed>0.1711724276862369</speed>
  <fix>3d</fix>
</trkpt>
<trkpt lat="40.0713666" lon="-105.229788">
  <ele>1583.0</ele>
  <time>2026-08-28T17:53:18Z</time>
  <course>110.15</course>
  <speed>0.15</speed>
  <fix>3d</fix>
</trkpt>
<trkpt lat="40.0713666" lon="-105.2297871">
  <ele>1583.02</ele>
  <time>2026-08-28T17:53:18Z</time>
  <course>290.89</course>
  <speed>0.16031219541881397</speed>
  <fix>3d</fix>
</trkpt>
<trkpt lat="40.0713666" lon="-105.229788">
  <ele>1583.0</ele>
  <time>2026-08-28T17:53:18Z</time>
  <course>110.15</course>
  <speed>0.15</speed>
  <fix>3d</fix>
</trkpt>
<trkpt lat="40.0713665" lon="-105.229787">
  <ele>1583.02</ele>
  <time>2026-08-28T17:53:18Z</time>
  <course>290.88</course>
  <speed>0.15033296378372907</speed>
  <fix>3d</fix>
</trkpt>
<trkpt lat="40.0713665" lon="-105.2297877">
  <ele>1583.0</ele>
  <time>2026-08-28T17:53:18Z</time>
  <course>110.12</course>
  <speed>0.14</speed>
  <fix>3d</fix>
</trkpt>
<trkpt lat="40.0713665" lon="-105.2297868">
  <ele>1583.02</ele>
  <time>2026-08-28T17:53:18Z</time>
  <course>290.87</course>
  <speed>0.14</speed>
  <fix>3d</fix>
</trkpt>
<trkpt lat="40.0713665" lon="-105.2297877">
  <ele>1583.0</ele>
  <time>2026-08-28T17:53:18Z</time>
  <course>110.12</course>
  <speed>0.14</speed>
  <fix>3d</fix>
</trkpt>
<trkpt lat="40.0713665" lon="-105.2297867">
  <ele>1583.02</ele>
  <time>2026-08-28T17:53:18Z</time>
  <course>290.86</course>
  <speed>0.13</speed>
  <fix>3d</fix>
</trkpt>
<trkpt lat="40.0713664" lon="-105.2297874">
  <ele>1583.0</ele>
  <time>2026-08-28T17:53:18Z</time>
  <course>110.1</course>
  <speed>0.12</speed>
  <fix>3d</fix>
</trkpt>
<trkpt lat="40.0713665" lon="-105.2297866">
  <ele>1583.02</ele>
  <time>2026-08-28T17:53:18Z</time>
  <course>290.86</course>
  <speed>0.13</speed>
  <fix>3d</fix>
</trkpt>
<trkpt lat="40.0713663" lon="-105.2297872">
  <ele>1583.0</ele>
  <time>2026-08-28T17:53:18Z</time>
  <course>110.07</course>
  <speed>0.11</speed>
  <fix>3d</fix>
</trkpt>
<trkpt lat="40.0713665" lon="-105.2297865">
  <ele>1583.02</ele>
  <time>2026-08-28T17:53:18Z</time>
  <course>290.85</course>
  <speed>0.12</speed>
  <fix>3d</fix>
</trkpt>
<trkpt lat="40.0713663" lon="-105.2297872">
  <ele>1583.0</ele>
  <time>2026-08-28T17:53:18Z</time>
  <course>110.07</course>
  <speed>0.11</speed>
  <fix>3d</fix>
</trkpt>
<trkpt lat="40.0713665" lon="-105.2297864">
  <ele>1583.03</ele>
  <time>2026-08-28T17:53:18Z</time>
  <course>290.84</course>
  <speed>0.11</speed>
  <fix>3d</fix>
</trkpt>
<trkpt lat="40.0713663" lon="-105.2297869">
  <ele>1583.0</ele>
  <time>2026-08-28T17:53:18Z</time>
  <course>110.05</course>
  <speed>0.1</speed>
  <fix>3d</fix>
</trkpt>
<trkpt lat="40.0713664" lon="-105.2297863">
  <ele>1583.03</ele>
  <time>2026-08-28T17:53:18Z</time>
  <course>290.83</course>
  <speed>0.11045361017187261</speed>
  <fix>3d</fix>
</trkpt>
<trkpt lat="40.0713663" lon="-105.2297869">
  <ele>1583.0</ele>
  <time>2026-08-28T17:53:18Z</time>
  <course>110.05</course>
  <speed>0.1</speed>
  <fix>3d</fix>
</trkpt>
<trkpt lat="40.0713664" lon="-105.2297862">
  <ele>1583.03</ele>
  <time>2026-08-28T17:53:18Z</time>
  <course>290.83</course>
  <speed>0.1004987562112089</speed>
  <fix>3d</fix>
</trkpt>
<trkpt lat="40.0713662" lon="-105.2297868">
  <ele>1583.0</ele>
  <time>2026-08-28T17:53:18Z</time>
  <course>110.03</course>
  <speed>0.09</speed>
  <fix>3d</fix>
</trkpt>
<trkpt lat="40.0713664" lon="-105.2297862">
  <ele>1583.04</ele>
  <time>2026-08-28T17:53:18Z</time>
  <course>290.82</course>
  <speed>0.09055385138137417</speed>
  <fix>3d</fix>
</trkpt>
<trkpt lat="40.0713662" lon="-105.2297868">
  <ele>1583.0</ele>
  <time>2026-08-28T17:53:18Z</time>
  <course>110.03</course>
  <speed>0.09</speed>
  <fix>3d</fix>
</trkpt>
<trkpt lat="40.0713664" lon="-105.2297861">
  <ele>1583.04</ele>
  <time>2026-08-28T17:53:18Z</time>
  <course>290.81</course>
  <speed>0.09219544457292887</speed>
  <fix>3d</fix>
</trkpt>
<trkpt lat="40.0713662" lon="-105.2297865">
  <ele>1583.0</ele>
  <time>2026-08-28T17:53:18Z</time>
  <course>110.01</course>
  <speed>0.08</speed>
  <fix>3d</fix>
</trkpt>
<trkpt lat="40.0713664" lon="-105.229786">
  <ele>1583.04</ele>
  <time>2026-08-28T17:53:18Z</time>
  <course>290.8</course>
  <speed>0.0824621125123532</speed>
  <fix>3d</fix>
</trkpt>
<trkpt lat="40.0713662" lon="-105.2297865">
  <ele>1583.0</ele>
  <time>2026-08-28T17:53:18Z</time>
  <course>110.01</course>
  <speed>0.08</speed>
  <fix>3d</fix>
</trkpt>
<trkpt lat="40.0713664" lon="-105.229786">
  <ele>1583.04</ele>
  <time>2026-08-28T17:53:18Z</time>
  <course>290.8</course>
  <speed>0.0824621125123532</speed>
  <fix>3d</fix>
</trkpt>
<trkpt lat="40.0713661" lon="-105.2297864">
  <ele>1583.0</ele>
  <time>2026-08-28T17:53:18Z</time>
  <course>109.99</course>
  <speed>0.07</speed>
  <fix>3d</fix>
</trkpt>
<trkpt lat="40.0713664" lon="-105.2297859">
  <ele>1583.05</ele>
  <time>2026-08-28T17:53:18Z</time>
  <course>290.79</course>
  <speed>0.07280109889280519</speed>
  <fix>3d</fix>
</trkpt>
<trkpt lat="40.0713661" lon="-105.2297864">
  <ele>1583.0</ele>
  <time>2026-08-28T17:53:18Z</time>
  <course>109.99</course>
  <speed>0.07</speed>
  <fix>3d</fix>
</trkpt>
<trkpt lat="40.0713663" lon="-105.2297859">
  <ele>1583.05</ele>
  <time>2026-08-28T17:53:18Z</time>
  <course>290.79</course>
  <speed>0.07615773105863909</speed>
  <fix>3d</fix>
</trkpt>
<trkpt lat="40.0713661" lon="-105.2297862">
  <ele>1583.0</ele>
  <time>2026-08-28T17:53:18Z</time>
  <course>109.97</course>
  <speed>0.07</speed>
  <fix>3d</fix>
</trkpt>
<trkpt lat="40.0713663" lon="-105.2297858">
  <ele>1583.06</ele>
  <time>2026-08-28T17:53:18Z</time>
  <course>290.78</course>
  <speed>0.0670820393249937</speed>
  <fix>3d</fix>
</trkpt>
<trkpt lat="40.0713661" lon="-105.2297862">
  <ele>1583.0</ele>
  <time>2026-08-28T17:53:18Z</time>
  <course>109.97</course>
  <speed>0.07</speed>
  <fix>3d</fix>
</trkpt>
<trkpt lat="40.0713663" lon="-105.2297858">
  <ele>1583.06</ele>
  <time>2026-08-28T17:53:18Z</time>
  <course>290.77</course>
  <speed>0.0670820393249937</speed>
  <fix>3d</fix>
</trkpt>
<trkpt lat="40.0713661" lon="-105.229786">
  <ele>1583.0</ele>
  <time>2026-08-28T17:53:18Z</time>
  <course>109.95</course>
  <speed>0.06</speed>
  <fix>3d</fix>
</trkpt>
<trkpt lat="40.0713663" lon="-105.2297857">
  <ele>1583.07</ele>
  <time>2026-08-28T17:53:18Z</time>
  <course>290.77</course>
  <speed>0.05830951894845301</speed>
  <fix>3d</fix>
</trkpt>
<trkpt lat="40.0713661" lon="-105.229786">
  <ele>1583.0</ele>
  <time>2026-08-28T17:53:18Z</time>
  <course>109.95</course>
  <speed>0.06</speed>
  <fix>3d</fix>
</trkpt>
<trkpt lat="40.0713663" lon="-105.2297857">
  <ele>1583.08</ele>
  <time>2026-08-28T17:53:18Z</time>
  <course>290.76</course>
  <speed>0.06403124237432849</speed>
  <fix>3d</fix>
</trkpt>
<trkpt lat="40.0713661" lon="-105.229786">
  <ele>1583.0</ele>
  <time>2026-08-28T17:53:18Z</time>
  <course>109.95</course>
  <speed>0.06</speed>
  <fix>3d</fix>
</trkpt>
<trkpt lat="40.0713663" lon="-105.2297855">
  <ele>1583.1</ele>
  <time>2026-08-28T17:53:18Z</time>
  <course>290.73</course>
  <speed>0.05</speed>
  <fix>3d</fix>
</trkpt>
<trkpt lat="40.071366" lon="-105.2297858">
  <ele>1583.0</ele>
  <time>2026-08-28T17:53:18Z</time>
  <course>109.92</course>
  <speed>0.05</speed>
  <fix>3d</fix>
</trkpt>
<trkpt lat="40.0713663" lon="-105.2297855">
  <ele>1583.11</ele>
  <time>2026-08-28T17:53:18Z</time>
  <course>290.71</course>
  <speed>0.05830951894845301</speed>
  <fix>3d</fix>
</trkpt>
<trkpt lat="40.0713659" lon="-105.2297856">
  <ele>1583.0</ele>
  <time>2026-08-28T17:53:18Z</time>
  <course>109.9</course>
  <speed>0.04</speed>
  <fix>3d</fix>
</trkpt>
<trkpt lat="40.0713663" lon="-105.2297854">
  <ele>1583.11</ele>
  <time>2026-08-28T17:53:18Z</time>
  <course>290.71</course>
  <speed>0.053851648071345036</speed>
  <fix>3d</fix>
</trkpt>
<trkpt lat="40.0713658" lon="-105.2297855">
  <ele>1583.0</ele>
  <time>2026-08-28T17:53:18Z</time>
  <course>109.88</course>
  <speed>0.03</speed>
  <fix>3d</fix>
</trkpt>
<trkpt lat="40.0713663" lon="-105.2297854">
  <ele>1583.11</ele>
  <time>2026-08-28T17:53:18Z</time>
  <course>290.7</course>
  <speed>0.053851648071345036</speed>
  <fix>3d</fix>
</trkpt>
<trkpt lat="40.0713658" lon="-105.2297855">
  <ele>1583.0</ele>
  <time>2026-08-28T17:53:18Z</time>
  <course>109.88</course>
  <speed>0.03</speed>
  <fix>3d</fix>
</trkpt>
<trkpt lat="40.0713663" lon="-105.2297854">
  <ele>1583.11</ele>
  <time>2026-08-28T17:53:18Z</time>
  <course>290.7</course>
  <speed>0.053851648071345036</speed>
  <fix>3d</fix>
</trkpt>
<trkpt lat="40.0713658" lon="-105.2297854">
  <ele>1583.0</ele>
  <time>2026-08-28T17:53:18Z</time>
  <course>109.87</course>
  <speed>0.03</speed>
  <fix>3d</fix>
</trkpt>
<trkpt lat="40.0713663" lon="-105.2297854">
  <ele>1583.11</ele>
  <time>2026-08-28T17:53:18Z</time>
  <course>290.69</course>
  <speed>0.05099019513592785</speed>
  <fix>3d</fix>
</trkpt>
<trkpt lat="40.0713658" lon="-105.2297854">
  <ele>1583.0</ele>
  <time>2026-08-28T17:53:18Z</time>
  <course>109.87</course>
  <speed>0.03</speed>
  <fix>3d</fix>
</trkpt>
<trkpt lat="40.0713663" lon="-105.2297853">
  <ele>1583.11</ele>
  <time>2026-08-28T17:53:18Z</time>
  <course>290.68</course>
  <speed>0.05099019513592785</speed>
  <fix>3d</fix>
</trkpt>
<trkpt lat="40.0713658" lon="-105.2297853">
  <ele>1583.0</ele>
  <time>2026-08-28T17:53:18Z</time>
  <course>109.85</course>
  <speed>0.03</speed>
  <fix>3d</fix>
</trkpt>
<trkpt lat="40.0713663" lon="-105.2297853">
  <ele>1583.11</ele>
  <time>2026-08-28T17:53:18Z</time>
  <course>290.67</course>
  <speed>0.05099019513592785</speed>
  <fix>3d</fix>
</trkpt>
<trkpt lat="40.0713658" lon="-105.2297852">
  <ele>1583.0</ele>
  <time>2026-08-28T17:53:18Z</time>
  <course>109.84</course>
  <speed>0.02</speed>
  <fix>3d</fix>
</trkpt>
<trkpt lat="40.0713663" lon="-105.2297853">
  <ele>1583.11</ele>
  <time>2026-08-28T17:53:18Z</time>
  <course>290.67</course>
  <speed>0.05099019513592785</speed>
  <fix>3d</fix>
</trkpt>
<trkpt lat="40.0713658" lon="-105.2297852">
  <ele>1583.0</ele>
  <time>2026-08-28T17:53:18Z</time>
  <course>109.84</course>
  <speed>0.02</speed>
  <fix>3d</fix>
</trkpt>
<trkpt lat="40.0713662" lon="-105.2297852">
  <ele>1583.11</ele>
  <time>2026-08-28T17:53:18Z</time>
  <course>290.66</course>
  <speed>0.05</speed>
  <fix>3d</fix>
</trkpt>
<trkpt lat="40.0713658" lon="-105.2297852">
  <ele>1583.0</ele>
  <time>2026-08-28T17:53:18Z</time>
  <course>109.83</course>
  <speed>0.02</speed>
  <fix>3d</fix>
</trkpt>
<trkpt lat="40.0713662" lon="-105.2297852">
  <ele>1583.1</ele>
  <time>2026-08-28T17:53:18Z</time>
  <course>290.65</course>
  <speed>0.05</speed>
  <fix>3d</fix>
</trkpt>
<trkpt lat="40.0713658" lon="-105.2297852">
  <ele>1583.0</ele>
  <time>2026-08-28T17:53:18Z</time>
  <course>109.83</course>
  <speed>0.02</speed>
  <fix>3d</fix>
</trkpt>
<trkpt lat="40.0713662" lon="-105.2297852">
  <ele>1583.1</ele>
  <time>2026-08-28T17:53:18Z</time>
  <course>290.65</course>
  <speed>0.05</speed>
  <fix>3d</fix>
</trkpt>
<trkpt lat="40.0713657" lon="-105.2297852">
  <ele>1583.0</ele>
  <time>2026-08-28T17:53:18Z</time>
  <course>109.81</course>
  <speed>0.02</speed>
  <fix>3d</fix>
</trkpt>
<trkpt lat="40.0713662" lon="-105.2297852">
  <ele>1583.09</ele>
  <time>2026-08-28T17:53:18Z</time>
  <course>290.64</course>
  <speed>0.05</speed>
  <fix>3d</fix>
</trkpt>
<trkpt lat="40.0713657" lon="-105.2297852">
  <ele>1583.0</ele>
  <time>2026-08-28T17:53:18Z</time>
  <course>109.81</course>
  <speed>0.02</speed>
  <fix>3d</fix>
</trkpt>
<trkpt lat="40.0713662" lon="-105.2297852">
  <ele>1583.08</ele>
  <time>2026-08-28T17:53:18Z</time>
  <course>290.64</course>
  <speed>0.05</speed>
  <fix>3d</fix>
</trkpt>
<trkpt lat="40.0713657" lon="-105.2297851">
  <ele>1583.0</ele>
  <time>2026-08-28T17:53:18Z</time>
  <course>109.8</course>
  <speed>0.02</speed>
  <fix>3d</fix>
</trkpt>
<trkpt lat="40.0713662" lon="-105.2297852">
  <ele>1583.08</ele>
  <time>2026-08-28T17:53:18Z</time>
  <course>290.64</course>
  <speed>0.05</speed>
  <fix>3d</fix>
</trkpt>
<trkpt lat="40.0713657" lon="-105.2297851">
  <ele>1583.0</ele>
  <time>2026-08-28T17:53:18Z</time>
  <course>109.8</course>
  <speed>0.02</speed>
  <fix>3d</fix>
</trkpt>
<trkpt lat="40.0713662" lon="-105.2297852">
  <ele>1583.07</ele>
  <time>2026-08-28T17:53:18Z</time>
  <course>290.63</course>
  <speed>0.05</speed>
  <fix>3d</fix>
</trkpt>
<trkpt lat="40.0713657" lon="-105.2297851">
  <ele>1583.0</ele>
  <time>2026-08-28T17:53:18Z</time>
  <course>109.79</course>
  <speed>0.01</speed>
  <fix>3d</fix>
</trkpt>
<trkpt lat="40.0713662" lon="-105.2297852">
  <ele>1583.06</ele>
  <time>2026-08-28T17:53:18Z</time>
  <course>290.63</course>
  <speed>0.05</speed>
  <fix>3d</fix>
</trkpt>
<trkpt lat="40.0713657" lon="-105.2297851">
  <ele>1583.0</ele>
  <time>2026-08-28T17:53:18Z</time>
  <course>109.79</course>
  <speed>0.01</speed>
  <fix>3d</fix>
</trkpt>
<trkpt lat="40.0713662" lon="-105.2297852">
  <ele>1583.05</ele>
  <time>2026-08-28T17:53:18Z</time>
  <course>290.63</course>
  <speed>0.05</speed>
  <fix>3d</fix>
</trkpt>
<trkpt lat="40.0713657" lon="-105.229785">
  <ele>1583.0</ele>
  <time>2026-08-28T17:53:18Z</time>
  <course>109.77</course>
  <speed>0.01</speed>
  <fix>3d</fix>
</trkpt>
<trkpt lat="40.0713662" lon="-105.2297852">
  <ele>1583.04</ele>
  <time>2026-08-28T17:53:18Z</time>
  <course>290.62</course>
  <speed>0.05</speed>
  <fix>3d</fix>
</trkpt>
<trkpt lat="40.0713657" lon="-105.229785">
  <ele>1583.0</ele>
  <time>2026-08-28T17:53:18Z</time>
  <course>109.77</course>
  <speed>0.01</speed>
  <fix>3d</fix>
</trkpt>
<trkpt lat="40.0713661" lon="-105.2297851">
  <ele>1583.04</ele>
  <time>2026-08-28T17:53:18Z</time>
  <course>290.62</course>
  <speed>0.05</speed>
  <fix>3d</fix>
</trkpt>
<trkpt lat="40.0713657" lon="-105.2297849">
  <ele>1583.0</ele>
  <time>2026-08-28T17:53:18Z</time>
  <course>109.76</course>
  <speed>0.01</speed>
  <fix>3d</fix>
</trkpt>
<trkpt lat="40.0713661" lon="-105.2297851">
  <ele>1583.04</ele>
  <time>2026-08-28T17:53:18Z</time>
  <course>290.62</course>
  <speed>0.05</speed>
  <fix>3d</fix>
</trkpt>
<trkpt lat="40.0713657" lon="-105.2297849">
  <ele>1583.0</ele>
  <time>2026-08-28T17:53:18Z</time>
  <course>109.76</course>
  <speed>0.01</speed>
  <fix>3d</fix>
</trkpt>
<trkpt lat="40.0713661" lon="-105.2297851">
  <ele>1583.03</ele>
  <time>2026-08-28T17:53:18Z</time>
  <course>290.61</course>
  <speed>0.05</speed>
  <fix>3d</fix>
</trkpt>
<trkpt lat="40.0713657" lon="-105.2297849">
  <ele>1583.0</ele>
  <time>2026-08-28T17:53:18Z</time>
  <course>109.74</course>
  <speed>0.01</speed>
  <fix>3d</fix>
</trkpt>
<trkpt lat="40.0713661" lon="-105.2297851">
  <ele>1583.04</ele>
  <time>2026-08-28T17:53:18Z</time>
  <course>290.61</course>
  <speed>0.05</speed>
  <fix>3d</fix>
</trkpt>
<trkpt lat="40.0713657" lon="-105.2297849">
  <ele>1583.0</ele>
  <time>2026-08-28T17:53:18Z</time>
  <course>109.74</course>
  <speed>0.01</speed>
  <fix>3d</fix>
</trkpt>
<trkpt lat="40.0713661" lon="-105.2297851">
  <ele>1583.04</ele>
  <time>2026-08-28T17:53:18Z</time>
  <course>290.61</course>
  <speed>0.05</speed>
  <fix>3d</fix>
</trkpt>
<trkpt lat="40.0713657" lon="-105.2297849">
  <ele>1583.0</ele>
  <time>2026-08-28T17:53:18Z</time>
  <course>109.72</course>
  <speed>0.01</speed>
  <fix>3d</fix>
</trkpt>
<trkpt lat="40.0713661" lon="-105.2297851">
  <ele>1583.04</ele>
  <time>2026-08-28T17:53:18Z</time>
  <course>290.6</course>
  <speed>0.05</speed>
  <fix>3d</fix>
</trkpt>
<trkpt lat="40.0713657" lon="-105.2297849">
  <ele>1583.0</ele>
  <time>2026-08-28T17:53:18Z</time>
  <course>109.72</course>
  <speed>0.01</speed>
  <fix>3d</fix>
</trkpt>
<trkpt lat="40.0713661" lon="-105.2297851">
  <ele>1583.04</ele>
  <time>2026-08-28T17:53:18Z</time>
  <course>290.6</course>
  <speed>0.05</speed>
  <fix>3d</fix>
</trkpt>
<trkpt lat="40.0713657" lon="-105.2297849">
  <ele>1583.0</ele>
  <time>2026-08-28T17:53:18Z</time>
  <course>109.7</course>
  <speed>0.01</speed>
  <fix>3d</fix>
</trkpt>
<trkpt lat="40.0713661" lon="-105.2297851">
  <ele>1583.04</ele>
  <time>2026-08-28T17:53:18Z</time>
  <course>290.6</course>
  <speed>0.05</speed>
  <fix>3d</fix>
</trkpt>
<trkpt lat="40.0713657" lon="-105.2297849">
  <ele>1583.0</ele>
  <time>2026-08-28T17:53:18Z</time>
  <course>109.7</course>
  <speed>0.01</speed>
  <fix>3d</fix>
</trkpt>
<trkpt lat="40.0713661" lon="-105.229785">
  <ele>1583.05</ele>
  <time>2026-08-28T17:53:18Z</time>
  <course>290.59</course>
  <speed>0.05</speed>
  <fix>3d</fix>
</trkpt>
<trkpt lat="40.0713657" lon="-105.2297849">
  <ele>1583.0</ele>
  <time>2026-08-28T17:53:18Z</time>
  <course>109.68</course>
  <speed>0.01</speed>
  <fix>3d</fix>
</trkpt>
<trkpt lat="40.0713661" lon="-105.229785">
  <ele>1583.05</ele>
  <time>2026-08-28T17:53:18Z</time>
  <course>290.59</course>
  <speed>0.05</speed>
  <fix>3d</fix>
</trkpt>
<trkpt lat="40.0713657" lon="-105.2297849">
  <ele>1583.0</ele>
  <time>2026-08-28T17:53:18Z</time>
  <course>109.68</course>
  <speed>0.01</speed>
  <fix>3d</fix>
</trkpt>
<trkpt lat="40.0713661" lon="-105.229785">
  <ele>1583.05</ele>
  <time>2026-08-28T17:53:18Z</time>
  <course>290.59</course>
  <speed>0.05</speed>
  <fix>3d</fix>
</trkpt>
<trkpt lat="40.0713657" lon="-105.2297849">
  <ele>1583.0</ele>
  <time>2026-08-28T17:53:18Z</time>
  <course>109.66</course>
  <speed>0.0</speed>
  <fix>3d</fix>
</trkpt>
<trkpt lat="40.0713661" lon="-105.229785">
  <ele>1583.06</ele>
  <time>2026-08-28T17:53:18Z</time>
  <course>290.58</course>
  <speed>0.05099019513592785</speed>
  <fix>3d</fix>
</trkpt>
<trkpt lat="40.0713657" lon="-105.2297849">
  <ele>1583.0</ele>
  <time>2026-08-28T17:53:18Z</time>
  <course>109.66</course>
  <speed>0.0</speed>
  <fix>3d</fix>
</trkpt>
<trkpt lat="40.0713661" lon="-105.229785">
  <ele>1583.06</ele>
  <time>2026-08-28T17:53:18Z</time>
  <course>290.58</course>
  <speed>0.05099019513592785</speed>
  <fix>3d</fix>
</trkpt>
<trkpt lat="40.0713657" lon="-105.2297849">
  <ele>1583.0</ele>
  <time>2026-08-28T17:53:18Z</time>
  <course>109.63</course>
  <speed>0.0</speed>
  <fix>3d</fix>
</trkpt>
<trkpt lat="40.0713661" lon="-105.229785">
  <ele>1583.06</ele>
  <time>2026-08-28T17:53:18Z</time>
  <course>290.58</course>
  <speed>0.05099019513592785</speed>
  <fix>3d</fix>
</trkpt>
<trkpt lat="40.0713657" lon="-105.2297849">
  <ele>1583.0</ele>
  <time>2026-08-28T17:53:18Z</time>
  <course>109.63</course>
  <speed>0.0</speed>
  <fix>3d</fix>
</trkpt>
<trkpt lat="40.0713661" lon="-105.229785">
  <ele>1583.06</ele>
  <time>2026-08-28T17:53:18Z</time>
  <course>290.58</course>
  <speed>0.05099019513592785</speed>
  <fix>3d</fix>
</trkpt>
<trkpt lat="40.0713657" lon="-105.2297848">
  <ele>1583.0</ele>
  <time>2026-08-28T17:53:18Z</time>
  <course>109.6</course>
  <speed>0.0</speed>
  <fix>3d</fix>
</trkpt>
<trkpt lat="40.0713661" lon="-105.229785">
  <ele>1583.06</ele>
  <time>2026-08-28T17:53:18Z</time>
  <course>290.57</course>
  <speed>0.05099019513592785</speed>
  <fix>3d</fix>
</trkpt>
<trkpt lat="40.0713657" lon="-105.2297848">
  <ele>1583.0</ele>
  <time>2026-08-28T17:53:18Z</time>
  <course>109.6</course>
  <speed>0.0</speed>
  <fix>3d</fix>
</trkpt>
<trkpt lat="40.0713661" lon="-105.229785">
  <ele>1583.07</ele>
  <time>2026-08-28T17:53:18Z</time>
  <course>290.57</course>
  <speed>0.05099019513592785</speed>
  <fix>3d</fix>
</trkpt>
<trkpt lat="40.0713657" lon="-105.2297847">
  <ele>1583.0</ele>
  <time>2026-08-28T17:53:18Z</time>
  <course>109.57</course>
  <speed>0.0</speed>
  <fix>3d</fix>
</trkpt>
<trkpt lat="40.0713661" lon="-105.229785">
  <ele>1583.07</ele>
  <time>2026-08-28T17:53:18Z</time>
  <course>290.56</course>
  <speed>0.05099019513592785</speed>
  <fix>3d</fix>
</trkpt>
<trkpt lat="40.0713657" lon="-105.2297847">
  <ele>1583.0</ele>
  <time>2026-08-28T17:53:18Z</time>
  <course>109.57</course>
  <speed>0.0</speed>
  <fix>3d</fix>
</trkpt>
<trkpt lat="40.0713661" lon="-105.229785">
  <ele>1583.07</ele>
  <time>2026-08-28T17:53:18Z</time>
  <course>290.58</course>
  <speed>0.0670820393249937</speed>
  <fix>3d</fix>
</trkpt>
<trkpt lat="40.0713657" lon="-105.2297847">
  <ele>1583.0</ele>
  <time>2026-08-28T17:53:18Z</time>
  <course>290.62</course>
  <speed>0.0</speed>
  <fix>3d</fix>
</trkpt>
<trkpt lat="40.0713661" lon="-105.229785">
  <ele>1583.08</ele>
  <time>2026-08-28T17:53:18Z</time>
  <course>290.7</course>
  <speed>0.09219544457292887</speed>
  <fix>3d</fix>
</trkpt>
<trkpt lat="40.0713657" lon="-105.2297847">
  <ele>1583.0</ele>
  <time>2026-08-28T17:53:18Z</time>
  <course>290.62</course>
  <speed>0.0</speed>
  <fix>3d</fix>
</trkpt>
<trkpt lat="40.0713661" lon="-105.229785">
  <ele>1583.08</ele>
  <time>2026-08-28T17:53:18Z</time>
  <course>291.06</course>
  <speed>0.14212670403551894</speed>
  <fix>3d</fix>
</trkpt>
<trkpt lat="40.0713657" lon="-105.2297847">
  <ele>1583.0</ele>
  <time>2026-08-28T17:53:18Z</time>
  <course>290.31</course>
  <speed>0.05</speed>
  <fix>3d</fix>
</trkpt>
<trkpt lat="40.0713661" lon="-105.2297852">
  <ele>1583.08</ele>
  <time>2026-08-28T17:53:18Z</time>
  <course>291.84</course>
  <speed>0.20248456731316586</speed>
  <fix>3d</fix>
</trkpt>
<trkpt lat="40.0713657" lon="-105.2297847">
  <ele>1583.0</ele>
  <time>2026-08-28T17:53:18Z</time>
  <course>290.31</course>
  <speed>0.05</speed>
  <fix>3d</fix>
</trkpt>
<trkpt lat="40.0713662" lon="-105.2297853">
  <ele>1583.08</ele>
  <time>2026-08-28T17:53:18Z</time>
  <course>292.85</course>
  <speed>0.260768096208106</speed>
  <fix>3d</fix>
</trkpt>
<trkpt lat="40.0713657" lon="-105.2297849">
  <ele>1583.0</ele>
  <time>2026-08-28T17:53:18Z</time>
  <course>291.67</course>
  <speed>0.16</speed>
  <fix>3d</fix>
</trkpt>
<trkpt lat="40.0713663" lon="-105.2297856">
  <ele>1583.09</ele>
  <time>2026-08-28T17:53:18Z</time>
  <course>294.55</course>
  <speed>0.34985711369071804</speed>
  <fix>3d</fix>
</trkpt>
<trkpt lat="40.0713657" lon="-105.2297849">
  <ele>1583.0</ele>
  <time>2026-08-28T17:53:18Z</time>
  <course>291.67</course>
  <speed>0.16</speed>
  <fix>3d</fix>
</trkpt>
<trkpt lat="40.0713664" lon="-105.229786">
  <ele>1583.09</ele>
  <time>2026-08-28T17:53:18Z</time>
  <course>296.82</course>
  <speed>0.4356604182158393</speed>
  <fix>3d</fix>
</trkpt>
<trkpt lat="40.0713658" lon="-105.2297854">
  <ele>1583.0</ele>
  <time>2026-08-28T17:53:18Z</time>
  <course>294.77</course>
  <speed>0.31</speed>
  <fix>3d</fix>
</trkpt>
<trkpt lat="40.0713666" lon="-105.2297865">
  <ele>1583.09</ele>
  <time>2026-08-28T17:53:18Z</time>
  <course>299.69</course>
  <speed>0.5408326913195984</speed>
  <fix>3d</fix>
</trkpt>
<trkpt lat="40.0713658" lon="-105.2297854">
  <ele>1583.0</ele>
  <time>2026-08-28T17:53:18Z</time>
  <course>294.77</course>
  <speed>0.31</speed>
  <fix>3d</fix>
</trkpt>
<trkpt lat="40.0713669" lon="-105.2297871">
  <ele>1583.09</ele>
  <time>2026-08-28T17:53:18Z</time>
  <course>303.25</course>
  <speed>0.6521502894272148</speed>
  <fix>3d</fix>
</trkpt>
<trkpt lat="40.0713662" lon="-105.2297863">
  <ele>1583.0</ele>
  <time>2026-08-28T17:53:18Z</time>
  <course>300.1</course>
  <speed>0.51</speed>
  <fix>3d</fix>
</trkpt>
<trkpt lat="40.0713672" lon="-105.2297877">
  <ele>1583.09</ele>
  <time>2026-08-28T17:53:18Z</time>
  <course>307.51</course>
  <speed>0.7669419795525605</speed>
  <fix>3d</fix>
</trkpt>
<trkpt lat="40.0713662" lon="-105.2297863">
  <ele>1583.0</ele>
  <time>2026-08-28T17:53:18Z</time>
  <course>300.1</course>
  <speed>0.51</speed>
  <fix>3d</fix>
</trkpt>
<trkpt lat="40.0713677" lon="-105.2297884">
  <ele>1583.09</ele>
  <time>2026-08-28T17:53:18Z</time>
  <course>312.45</course>
  <speed>0.8627861844049197</speed>
  <fix>3d</fix>
</trkpt>
<trkpt lat="40.0713667" lon="-105.2297875">
  <ele>1583.0</ele>
  <time>2026-08-28T17:53:18Z</time>
  <course>307.95</course>
  <speed>0.71</speed>
  <fix>3d</fix>
</trkpt>
<trkpt lat="40.0713682" lon="-105.2297892">
  <ele>1583.09</ele>
  <time>2026-08-28T17:53:18Z</time>
  <course>318.03</course>
  <speed>0.9501578816175763</speed>
  <fix>3d</fix>
</trkpt>
<trkpt lat="40.0713667" lon="-105.2297875">
  <ele>1583.0</ele>
  <time>2026-08-28T17:53:18Z</time>
  <course>307.95</course>
  <speed>0.71</speed>
  <fix>3d</fix>
</trkpt>
<trkpt lat="40.0713689" lon="-105.2297899">
  <ele>1583.09</ele>
  <time>2026-08-28T17:53:18Z</time>
  <course>324.08</course>
  <speed>1.026498904042279</speed>
  <fix>3d</fix>
</trkpt>
<trkpt lat="40.0713678" lon="-105.2297889">
  <ele>1583.0</ele>
  <time>2026-08-28T17:53:18Z</time>
  <course>318.21</course>
  <speed>0.9</speed>
  <fix>3d</fix>
</trkpt>
<trkpt lat="40.0713699" lon="-105.2297907">
  <ele>1583.1</ele>
  <time>2026-08-28T17:53:18Z</time>
  <course>330.77</course>
  <speed>1.105350623105628</speed>
  <fix>3d</fix>
</trkpt>
<trkpt lat="40.0713678" lon="-105.2297889">
  <ele>1583.0</ele>
  <time>2026-08-28T17:53:18Z</time>
  <course>318.21</course>
  <speed>0.9</speed>
  <fix>3d</fix>
</trkpt>
<trkpt lat="40.0713708" lon="-105.2297913">
  <ele>1583.1</ele>
  <time>2026-08-28T17:53:18Z</time>
  <course>335.4</course>
  <speed>1.1503912377969505</speed>
  <fix>3d</fix>
</trkpt>
<trkpt lat="40.0713692" lon="-105.2297902">
  <ele>1583.0</ele>
  <time>2026-08-28T17:53:18Z</time>
  <course>329.01</course>
  <speed>1.04</speed>
  <fix>3d</fix>
</trkpt>
<trkpt lat="40.0713717" lon="-105.2297918">
  <ele>1583.11</ele>
  <time>2026-08-28T17:53:18Z</time>
  <course>339.34</course>
  <speed>1.1961605243444544</speed>
  <fix>3d</fix>
</trkpt>
<trkpt lat="40.0713692" lon="-105.2297902">
  <ele>1583.0</ele>
  <time>2026-08-28T17:53:18Z</time>
  <course>329.01</course>
  <speed>1.04</speed>
  <fix>3d</fix>
</trkpt>
<trkpt lat="40.0713727" lon="-105.2297922">
  <ele>1583.11</ele>
  <time>2026-08-28T17:53:18Z</time>
  <course>342.67</course>
  <speed>1.22413234578619</speed>
  <fix>3d</fix>
</trkpt>
<trkpt lat="40.071371" lon="-105.2297914">
  <ele>1583.0</ele>
  <time>2026-08-28T17:53:18Z</time>
  <course>337.82</course>
  <speed>1.14</speed>
  <fix>3d</fix>
</trkpt>
<trkpt lat="40.0713738" lon="-105.2297926">
  <ele>1583.11</ele>
  <time>2026-08-28T17:53:18Z</time>
  <course>345.48</course>
  <speed>1.2490796611905903</speed>
  <fix>3d</fix>
</trkpt>
<trkpt lat="40.071371" lon="-105.2297914">
  <ele>1583.0</ele>
  <time>2026-08-28T17:53:18Z</time>
  <course>337.82</course>
  <speed>1.14</speed>
  <fix>3d</fix>
</trkpt>
<trkpt lat="40.0713749" lon="-105.2297929">
  <ele>1583.11</ele>
  <time>2026-08-28T17:53:18Z</time>
  <course>347.85</course>
  <speed>1.257179382586272</speed>
  <fix>3d</fix>
</trkpt>
<trkpt lat="40.071373" lon="-105.2297923">
  <ele>1583.0</ele>
  <time>2026-08-28T17:53:18Z</time>
  <course>344.19</course>
  <speed>1.2</speed>
  <fix>3d</fix>
</trkpt>
<trkpt lat="40.0713759" lon="-105.2297932">
  <ele>1583.11</ele>
  <time>2026-08-28T17:53:18Z</time>
  <course>349.84</course>
  <speed>1.2593649193144933</speed>
  <fix>3d</fix>
</trkpt>
<trkpt lat="40.071373" lon="-105.2297923">
  <ele>1583.0</ele>
  <time>2026-08-28T17:53:18Z</time>
  <course>344.19</course>
  <speed>1.2</speed>
  <fix>3d</fix>
</trkpt>
<trkpt lat="40.071377" lon="-105.2297934">
  <ele>1583.11</ele>
  <time>2026-08-28T17:53:18Z</time>
  <course>351.51</course>
  <speed>1.2643575443678896</speed>
  <fix>3d</fix>
</trkpt>
<trkpt lat="40.0713752" lon="-105.229793">
  <ele>1583.0</ele>
  <time>2026-08-28T17:53:18Z</time>
  <course>348.73</course>
  <speed>1.23</speed>
  <fix>3d</fix>
</trkpt>
<trkpt lat="40.0713781" lon="-105.2297936">
  <ele>1583.1</ele>
  <time>2026-08-28T17:53:18Z</time>
  <course>352.91</course>
  <speed>1.260198397078809</speed>
  <fix>3d</fix>
</trkpt>
<trkpt lat="40.0713752" lon="-105.229793">
  <ele>1583.0</ele>
  <time>2026-08-28T17:53:18Z</time>
  <course>348.73</course>
  <speed>1.23</speed>
  <fix>3d</fix>
</trkpt>
<trkpt lat="40.0713792" lon="-105.2297938">
  <ele>1583.1</ele>
  <time>2026-08-28T17:53:18Z</time>
  <course>354.09</course>
  <speed>1.2467958934805647</speed>
  <fix>3d</fix>
</trkpt>
<trkpt lat="40.0713774" lon="-105.2297935">
  <ele>1583.0</ele>
  <time>2026-08-28T17:53:18Z</time>
  <course>351.94</course>
  <speed>1.23</speed>
  <fix>3d</fix>
</trkpt>
<trkpt lat="40.0713803" lon="-105.2297939">
  <ele>1583.1</ele>
  <time>2026-08-28T17:53:18Z</time>
  <course>355.07</course>
  <speed>1.2349089035228469</speed>
  <fix>3d</fix>
</trkpt>
<trkpt lat="40.0713774" lon="-105.2297935">
  <ele>1583.0</ele>
  <time>2026-08-28T17:53:18Z</time>
  <course>351.94</course>
  <speed>1.23</speed>
  <fix>3d</fix>
</trkpt>
<trkpt lat="40.0713813" lon="-105.229794">
  <ele>1583.09</ele>
  <time>2026-08-28T17:53:18Z</time>
  <course>355.91</course>
  <speed>1.2133424908079333</speed>
  <fix>3d</fix>
</trkpt>
<trkpt lat="40.0713796" lon="-105.2297938">
  <ele>1583.0</ele>
  <time>2026-08-28T17:53:18Z</time>
  <course>354.21</course>
  <speed>1.22</speed>
  <fix>3d</fix>
</trkpt>
<trkpt lat="40.0713822" lon="-105.2297941">
  <ele>1583.09</ele>
  <time>2026-08-28T17:53:18Z</time>
  <course>356.47</course>
  <speed>1.2026637102698325</speed>
  <fix>3d</fix>
</trkpt>
<trkpt lat="40.0713796" lon="-105.2297938">
  <ele>1583.0</ele>
  <time>2026-08-28T17:53:18Z</time>
  <course>354.21</course>
  <speed>1.22</speed>
  <fix>3d</fix>
</trkpt>
<trkpt lat="40.0713832" lon="-105.2297942">
  <ele>1583.08</ele>
  <time>2026-08-28T17:53:18Z</time>
  <course>357.07</course>
  <speed>1.1820744477400735</speed>
  <fix>3d</fix>
</trkpt>
<trkpt lat="40.0713817" lon="-105.229794">
  <ele>1583.0</ele>
  <time>2026-08-28T17:53:18Z</time>
  <course>355.81</course>
  <speed>1.19</speed>
  <fix>3d</fix>
</trkpt>
<trkpt lat="40.0713843" lon="-105.2297943">
  <ele>1583.08</ele>
  <time>2026-08-28T17:53:18Z</time>
  <course>357.57</course>
  <speed>1.1615506876585284</speed>
  <fix>3d</fix>
</trkpt>
<trkpt lat="40.0713817" lon="-105.229794">
  <ele>1583.0</ele>
  <time>2026-08-28T17:53:18Z</time>
  <course>355.81</course>
  <speed>1.19</speed>
  <fix>3d</fix>
</trkpt>
<trkpt lat="40.0713853" lon="-105.2297943">
  <ele>1583.07</ele>
  <time>2026-08-28T17:53:18Z</time>
  <course>357.99</course>
  <speed>1.1410959644131602</speed>
  <fix>3d</fix>
</trkpt>
<trkpt lat="40.0713838" lon="-105.2297942">
  <ele>1583.0</ele>
  <time>2026-08-28T17:53:18Z</time>
  <course>356.93</course>
  <speed>1.16</speed>
  <fix>3d</fix>
</trkpt>
<trkpt lat="40.0713863" lon="-105.2297944">
  <ele>1583.07</ele>
  <time>2026-08-28T17:53:18Z</time>
  <course>358.34</course>
  <speed>1.120714058089752</speed>
  <fix>3d</fix>
</trkpt>
<trkpt lat="40.0713838" lon="-105.2297942">
  <ele>1583.0</ele>
  <time>2026-08-28T17:53:18Z</time>
  <course>356.93</course>
  <speed>1.16</speed>
  <fix>3d</fix>
</trkpt>
<trkpt lat="40.0713872" lon="-105.2297944">
  <ele>1583.07</ele>
  <time>2026-08-28T17:53:18Z</time>
  <course>358.64</course>
  <speed>1.100727032465361</speed>
  <fix>3d</fix>
</trkpt>
<trkpt lat="40.0713858" lon="-105.2297943">
  <ele>1583.0</ele>
  <time>2026-08-28T17:53:18Z</time>
  <course>357.72</course>
  <speed>1.13</speed>
  <fix>3d</fix>
</trkpt>
<trkpt lat="40.0713882" lon="-105.2297945">
  <ele>1583.07</ele>
  <time>2026-08-28T17:53:18Z</time>
  <course>358.88</course>
  <speed>1.0804165863221464</speed>
  <fix>3d</fix>
</trkpt>
<trkpt lat="40.0713858" lon="-105.2297943">
  <ele>1583.0</ele>
  <time>2026-08-28T17:53:18Z</time>
  <course>357.72</course>
  <speed>1.13</speed>
  <fix>3d</fix>
</trkpt>
<trkpt lat="40.0713892" lon="-105.2297945">
  <ele>1583.07</ele>
  <time>2026-08-28T17:53:18Z</time>
  <course>359.09</course>
  <speed>1.0604244433244643</speed>
  <fix>3d</fix>
</trkpt>
<trkpt lat="40.0713879" lon="-105.2297944">
  <ele>1583.0</ele>
  <time>2026-08-28T17:53:18Z</time>
  <course>358.27</course>
  <speed>1.1</speed>
  <fix>3d</fix>
</trkpt>
<trkpt lat="40.0713901" lon="-105.2297945">
  <ele>1583.08</ele>
  <time>2026-08-28T17:53:18Z</time>
  <course>359.26</course>
  <speed>1.0501904589168576</speed>
  <fix>3d</fix>
</trkpt>
<trkpt lat="40.0713879" lon="-105.2297944">
  <ele>1583.0</ele>
  <time>2026-08-28T17:53:18Z</time>
  <course>358.27</course>
  <speed>1.1</speed>
  <fix>3d</fix>
</trkpt>
<trkpt lat="40.0713913" lon="-105.2297945">
  <ele>1583.08</ele>
  <time>2026-08-28T17:53:18Z</time>
  <course>359.42</course>
  <speed>1.030194156457898</speed>
  <fix>3d</fix>
</trkpt>
<trkpt lat="40.0713898" lon="-105.2297945">
  <ele>1583.0</ele>
  <time>2026-08-28T17:53:18Z</time>
  <course>358.65</course>
  <speed>1.07</speed>
  <fix>3d</fix>
</trkpt>
<trkpt lat="40.0713922" lon="-105.2297946">
  <ele>1583.08</ele>
  <time>2026-08-28T17:53:18Z</time>
  <course>359.54</course>
  <speed>1.010198000393982</speed>
  <fix>3d</fix>
</trkpt>
<trkpt lat="40.0713898" lon="-105.2297945">
  <ele>1583.0</ele>
  <time>2026-08-28T17:53:18Z</time>
  <course>358.65</course>
  <speed>1.07</speed>
  <fix>3d</fix>
</trkpt>
<trkpt lat="40.0713931" lon="-105.2297946">
  <ele>1583.09</ele>
  <time>2026-08-28T17:53:18Z</time>
  <course>359.63</course>
  <speed>1.000199980003999</speed>
  <fix>3d</fix>
</trkpt>
<trkpt lat="40.0713917" lon="-105.2297945">
  <ele>1583.0</ele>
  <time>2026-08-28T17:53:18Z</time>
  <course>358.91</course>
  <speed>1.04</speed>
  <fix>3d</fix>
</trkpt>
<trkpt lat="40.071394" lon="-105.2297946">
  <ele>1583.09</ele>
  <time>2026-08-28T17:53:18Z</time>
  <course>359.71</course>
  <speed>0.9902019995940222</speed>
  <fix>3d</fix>
</trkpt>
<trkpt lat="40.0713917" lon="-105.2297945">
  <ele>1583.0</ele>
  <time>2026-08-28T17:53:18Z</time>
  <course>358.91</course>
  <speed>1.04</speed>
  <fix>3d</fix>
</trkpt>
<trkpt lat="40.0713949" lon="-105.2297946">
  <ele>1583.1</ele>
  <time>2026-08-28T17:53:18Z</time>
  <course>359.77</course>
  <speed>0.9800510190801294</speed>
  <fix>3d</fix>
</trkpt>
<trkpt lat="40.0713936" lon="-105.2297946">
  <ele>1583.0</ele>
  <time>2026-08-28T17:53:18Z</time>
  <course>359.09</course>
  <speed>1.02</speed>
  <fix>3d</fix>
</trkpt>
<trkpt lat="40.0713958" lon="-105.2297946">
  <ele>1583.1</ele>
  <time>2026-08-28T17:53:18Z</time>
  <course>359.83</course>
  <speed>0.9800510190801294</speed>
  <fix>3d</fix>
</trkpt>
<trkpt lat="40.0713936" lon="-105.2297946">
  <ele>1583.0</ele>
  <time>2026-08-28T17:53:18Z</time>
  <course>359.09</course>
  <speed>1.02</speed>
  <fix>3d</fix>
</trkpt>
<trkpt lat="40.0713967" lon="-105.2297946">
  <ele>1583.1</ele>
  <time>2026-08-28T17:53:18Z</time>
  <course>359.87</course>
  <speed>0.970051545022222</speed>
  <fix>3d</fix>
</trkpt>
<trkpt lat="40.0713954" lon="-105.2297947">
  <ele>1583.0</ele>
  <time>2026-08-28T17:53:18Z</time>
  <course>359.21</course>
  <speed>1.01</speed>
  <fix>3d</fix>
</trkpt>
<trkpt lat="40.0713975" lon="-105.2297947">
  <ele>1583.11</ele>
  <time>2026-08-28T17:53:19Z</time>
  <course>0.65</course>
  <speed>0.97</speed>
  <fix>3d</fix>
</trkpt>
<trkpt lat="40.0713954" lon="-105.2297947">
  <ele>1583.0</ele>
  <time>2026-08-28T17:53:19Z</time>
  <course>359.21</course>
  <speed>1.01</speed>
  <fix>3d</fix>
</trkpt>
<trkpt lat="40.0713984" lon="-105.2297946">
  <ele>1583.11</ele>
  <time>2026-08-28T17:53:19Z</time>
  <course>2.61</course>
  <speed>0.9904544411531506</speed>
  <fix>3d</fix>
</trkpt>
<trkpt lat="40.0713973" lon="-105.2297947">
  <ele>1583.0</ele>
  <time>2026-08-28T17:53:19Z</time>
  <course>0.43</course>
  <speed>1.01</speed>
  <fix>3d</fix>
</trkpt>
<trkpt lat="40.0713993" lon="-105.2297947">
  <ele>1583.11</ele>
  <time>2026-08-28T17:53:19Z</time>
  <course>5.7</course>
  <speed>1.0239628899525608</speed>
  <fix>3d</fix>
</trkpt>
<trkpt lat="40.0713973" lon="-105.2297947">
  <ele>1583.0</ele>
  <time>2026-08-28T17:53:19Z</time>
  <course>0.43</course>
  <speed>1.01</speed>
  <fix>3d</fix>
</trkpt>
<trkpt lat="40.0714003" lon="-105.2297945">
  <ele>1583.11</ele>
  <time>2026-08-28T17:53:19Z</time>
  <course>9.89</course>
  <speed>1.0735455276791945</speed>
  <fix>3d</fix>
</trkpt>
<trkpt lat="40.0713991" lon="-105.2297946">
  <ele>1583.0</ele>
  <time>2026-08-28T17:53:19Z</time>
  <course>5.14</course>
  <speed>1.07</speed>
  <fix>3d</fix>
</trkpt>
<trkpt lat="40.0714011" lon="-105.2297943">
  <ele>1583.11</ele>
  <time>2026-08-28T17:53:19Z</time>
  <course>14.07</course>
  <speed>1.1229425630903835</speed>
  <fix>3d</fix>
</trkpt>
<trkpt lat="40.0713991" lon="-105.2297946">
  <ele>1583.0</ele>
  <time>2026-08-28T17:53:19Z</time>
  <course>5.14</course>
  <speed>1.07</speed>
  <fix>3d</fix>
</trkpt>
<trkpt lat="40.0714021" lon="-105.2297939">
  <ele>1583.11</ele>
  <time>2026-08-28T17:53:19Z</time>
  <course>19.42</course>
  <speed>1.1859595271340417</speed>
  <fix>3d</fix>
</trkpt>
<trkpt lat="40.0714011" lon="-105.2297942">
  <ele>1583.0</ele>
  <time>2026-08-28T17:53:19Z</time>
  <course>13.91</course>
  <speed>1.17</speed>
  <fix>3d</fix>
</trkpt>
<trkpt lat="40.0714032" lon="-105.2297933">
  <ele>1583.11</ele>
  <time>2026-08-28T17:53:19Z</time>
  <course>23.76</course>
  <speed>1.235677951571525</speed>
  <fix>3d</fix>
</trkpt>
<trkpt lat="40.0714011" lon="-105.2297942">
  <ele>1583.0</ele>
  <time>2026-08-28T17:53:19Z</time>
  <course>13.91</course>
  <speed>1.17</speed>
  <fix>3d</fix>
</trkpt>
<trkpt lat="40.0714042" lon="-105.2297926">
  <ele>1583.11</ele>
  <time>2026-08-28T17:53:19Z</time>
  <course>27.37</course>
  <speed>1.2882546332150333</speed>
  <fix>3d</fix>
</trkpt>
<trkpt lat="40.0714032" lon="-105.2297932">
  <ele>1583.0</ele>
  <time>2026-08-28T17:53:19Z</time>
  <course>23.0</course>
  <speed>1.28</speed>
  <fix>3d</fix>
</trkpt>
<trkpt lat="40.0714053" lon="-105.2297918">
  <ele>1583.11</ele>
  <time>2026-08-28T17:53:19Z</time>
  <course>30.39</course>
  <speed>1.341118935814419</speed>
  <fix>3d</fix>
</trkpt>
<trkpt lat="40.0714032" lon="-105.2297932">
  <ele>1583.0</ele>
  <time>2026-08-28T17:53:19Z</time>
  <course>23.0</course>
  <speed>1.28</speed>
  <fix>3d</fix>
</trkpt>
<trkpt lat="40.0714064" lon="-105.2297909">
  <ele>1583.11</ele>
  <time>2026-08-28T17:53:19Z</time>
  <course>32.9</course>
  <speed>1.3784411485442534</speed>
  <fix>3d</fix>
</trkpt>
<trkpt lat="40.0714053" lon="-105.2297919">
  <ele>1583.0</ele>
  <time>2026-08-28T17:53:19Z</time>
  <course>29.68</course>
  <speed>1.38</speed>
  <fix>3d</fix>
</trkpt>
<trkpt lat="40.0714075" lon="-105.22979">
  <ele>1583.11</ele>
  <time>2026-08-28T17:53:19Z</time>
  <course>34.99</course>
  <speed>1.4182383438618489</speed>
  <fix>3d</fix>
</trkpt>
<trkpt lat="40.0714053" lon="-105.2297919">
  <ele>1583.0</ele>
  <time>2026-08-28T17:53:19Z</time>
  <course>29.68</course>
  <speed>1.38</speed>
  <fix>3d</fix>
</trkpt>
<trkpt lat="40.0714085" lon="-105.2297889">
  <ele>1583.11</ele>
  <time>2026-08-28T17:53:19Z</time>
  <course>36.72</course>
  <speed>1.4480676779764128</speed>
  <fix>3d</fix>
</trkpt>
<trkpt lat="40.0714075" lon="-105.2297901">
  <ele>1583.0</ele>
  <time>2026-08-28T17:53:19Z</time>
  <course>34.31</course>
  <speed>1.46</speed>
  <fix>3d</fix>
</trkpt>
<trkpt lat="40.0714096" lon="-105.2297878">
  <ele>1583.12</ele>
  <time>2026-08-28T17:53:19Z</time>
  <course>38.16</course>
  <speed>1.4712239802287073</speed>
  <fix>3d</fix>
</trkpt>
<trkpt lat="40.0714075" lon="-105.2297901">
  <ele>1583.0</ele>
  <time>2026-08-28T17:53:19Z</time>
  <course>34.31</course>
  <speed>1.46</speed>
  <fix>3d</fix>
</trkpt>
<trkpt lat="40.0714107" lon="-105.2297867">
  <ele>1583.12</ele>
  <time>2026-08-28T17:53:19Z</time>
  <course>39.34</course>
  <speed>1.4903690818049065</speed>
  <fix>3d</fix>
</trkpt>
<trkpt lat="40.0714096" lon="-105.2297881">
  <ele>1583.0</ele>
  <time>2026-08-28T17:53:19Z</time>
  <course>37.5</course>
  <speed>1.51</speed>
  <fix>3d</fix>
</trkpt>
<trkpt lat="40.071412" lon="-105.2297853">
  <ele>1583.12</ele>
  <time>2026-08-28T17:53:19Z</time>
  <course>40.51</course>
  <speed>1.5089400253157845</speed>
  <fix>3d</fix>
</trkpt>
<trkpt lat="40.0714096" lon="-105.2297881">
  <ele>1583.0</ele>
  <time>2026-08-28T17:53:19Z</time>
  <course>37.5</course>
  <speed>1.51</speed>
  <fix>3d</fix>
</trkpt>
<trkpt lat="40.071413" lon="-105.2297841">
  <ele>1583.11</ele>
  <time>2026-08-28T17:53:19Z</time>
  <course>41.29</course>
  <speed>1.5222680447279973</speed>
  <fix>3d</fix>
</trkpt>
<trkpt lat="40.0714118" lon="-105.2297858">
  <ele>1583.0</ele>
  <time>2026-08-28T17:53:19Z</time>
  <course>39.71</course>
  <speed>1.55</speed>
  <fix>3d</fix>
</trkpt>
<trkpt lat="40.0714141" lon="-105.2297829">
  <ele>1583.11</ele>
  <time>2026-08-28T17:53:19Z</time>
  <course>41.95</course>
  <speed>1.528397853963424</speed>
  <fix>3d</fix>
</trkpt>
<trkpt lat="40.0714118" lon="-105.2297858">
  <ele>1583.0</ele>
  <time>2026-08-28T17:53:19Z</time>
  <course>39.71</course>
  <speed>1.55</speed>
  <fix>3d</fix>
</trkpt>
<trkpt lat="40.0714152" lon="-105.2297816">
  <ele>1583.11</ele>
  <time>2026-08-28T17:53:19Z</time>
  <course>42.49</course>
  <speed>1.5352198539622917</speed>
  <fix>3d</fix>
</trkpt>
<trkpt lat="40.071414" lon="-105.2297834">
  <ele>1583.0</ele>
  <time>2026-08-28T17:53:19Z</time>
  <course>41.23</course>
  <speed>1.57</speed>
  <fix>3d</fix>
</trkpt>
<trkpt lat="40.0714162" lon="-105.2297803">
  <ele>1583.11</ele>
  <time>2026-08-28T17:53:19Z</time>
  <course>42.95</course>
  <speed>1.5348289807011073</speed>
  <fix>3d</fix>
</trkpt>
<trkpt lat="40.071414" lon="-105.2297834">
  <ele>1583.0</ele>
  <time>2026-08-28T17:53:19Z</time>
  <course>41.23</course>
  <speed>1.57</speed>
  <fix>3d</fix>
</trkpt>
<trkpt lat="40.0714173" lon="-105.2297791">
  <ele>1583.11</ele>
  <time>2026-08-28T17:53:19Z</time>
  <course>43.32</course>
  <speed>1.5345683432157722</speed>
  <fix>3d</fix>
</trkpt>
<trkpt lat="40.0714161" lon="-105.2297809">
  <ele>1583.0</ele>
  <time>2026-08-28T17:53:19Z</time>
  <course>42.28</course>
  <speed>1.58</speed>
  <fix>3d</fix>
</trkpt>
<trkpt lat="40.0714183" lon="-105.2297778">
  <ele>1583.11</ele>
  <time>2026-08-28T17:53:19Z</time>
  <course>43.63</course>
  <speed>1.5274161188098023</speed>
  <fix>3d</fix>
</trkpt>
<trkpt lat="40.0714161" lon="-105.2297809">
  <ele>1583.0</ele>
  <time>2026-08-28T17:53:19Z</time>
  <course>42.28</course>
  <speed>1.58</speed>
  <fix>3d</fix>
</trkpt>
<trkpt lat="40.0714193" lon="-105.2297766">
  <ele>1583.11</ele>
  <time>2026-08-28T17:53:19Z</time>
  <course>43.89</course>
  <speed>1.52029602380589</speed>
  <fix>3d</fix>
</trkpt>
<trkpt lat="40.0714181" lon="-105.2297784">
  <ele>1583.0</ele>
  <time>2026-08-28T17:53:19Z</time>
  <course>43.01</course>
  <speed>1.57</speed>
  <fix>3d</fix>
</trkpt>
<trkpt lat="40.0714203" lon="-105.2297753">
  <ele>1583.11</ele>
  <time>2026-08-28T17:53:19Z</time>
  <course>44.1</course>
  <speed>1.52029602380589</speed>
  <fix>3d</fix>
</trkpt>
<trkpt lat="40.0714181" lon="-105.2297784">
  <ele>1583.0</ele>
  <time>2026-08-28T17:53:19Z</time>
  <course>43.01</course>
  <speed>1.57</speed>
  <fix>3d</fix>
</trkpt>
<trkpt lat="40.0714213" lon="-105.2297741">
  <ele>1583.11</ele>
  <time>2026-08-28T17:53:19Z</time>
  <course>44.28</course>
  <speed>1.5061540425866142</speed>
  <fix>3d</fix>
</trkpt>
<trkpt lat="40.0714202" lon="-105.2297759">
  <ele>1583.0</ele>
  <time>2026-08-28T17:53:19Z</time>
  <course>43.51</course>
  <speed>1.56</speed>
  <fix>3d</fix>
</trkpt>
<trkpt lat="40.0714223" lon="-105.2297728">
  <ele>1583.11</ele>
  <time>2026-08-28T17:53:19Z</time>
  <course>44.43</course>
  <speed>1.4990663761154805</speed>
  <fix>3d</fix>
</trkpt>
<trkpt lat="40.0714202" lon="-105.2297759">
  <ele>1583.0</ele>
  <time>2026-08-28T17:53:19Z</time>
  <course>43.51</course>
  <speed>1.56</speed>
  <fix>3d</fix>
</trkpt>
<trkpt lat="40.0714231" lon="-105.2297718">
  <ele>1583.11</ele>
  <time>2026-08-28T17:53:19Z</time>
  <course>44.53</course>
  <speed>1.4920120642943877</speed>
  <fix>3d</fix>
</trkpt>
<trkpt lat="40.0714222" lon="-105.2297734">
  <ele>1583.0</ele>
  <time>2026-08-28T17:53:19Z</time>
  <course>43.86</course>
  <speed>1.54</speed>
  <fix>3d</fix>
</trkpt>
<trkpt lat="40.0714241" lon="-105.2297706">
  <ele>1583.11</ele>
  <time>2026-08-28T17:53:19Z</time>
  <course>44.63</course>
  <speed>1.4778700890132392</speed>
  <fix>3d</fix>
</trkpt>
<trkpt lat="40.0714222" lon="-105.2297734">
  <ele>1583.0</ele>
  <time>2026-08-28T17:53:19Z</time>
  <course>43.86</course>
  <speed>1.54</speed>
  <fix>3d</fix>
</trkpt>
<trkpt lat="40.0714251" lon="-105.2297693">
  <ele>1583.11</ele>
  <time>2026-08-28T17:53:19Z</time>
  <course>44.72</course>
  <speed>1.4778700890132392</speed>
  <fix>3d</fix>
</trkpt>
<trkpt lat="40.0714243" lon="-105.2297709">
  <ele>1583.0</ele>
  <time>2026-08-28T17:53:19Z</time>
  <course>44.09</course>
  <speed>1.52</speed>
  <fix>3d</fix>
</trkpt>
<trkpt lat="40.0714261" lon="-105.2297681">
  <ele>1583.1</ele>
  <time>2026-08-28T17:53:19Z</time>
  <course>44.78</course>
  <speed>1.4637281168304446</speed>
  <fix>3d</fix>
</trkpt>
<trkpt lat="40.0714243" lon="-105.2297709">
  <ele>1583.0</ele>
  <time>2026-08-28T17:53:19Z</time>
  <course>44.09</course>
  <speed>1.52</speed>
  <fix>3d</fix>
</trkpt>
<trkpt lat="40.071427" lon="-105.2297669">
  <ele>1583.1</ele>
  <time>2026-08-28T17:53:19Z</time>
  <course>44.85</course>
  <speed>1.4495861478366852</speed>
  <fix>3d</fix>
</trkpt>
<trkpt lat="40.0714262" lon="-105.2297684">
  <ele>1583.0</ele>
  <time>2026-08-28T17:53:19Z</time>
  <course>44.25</course>
  <speed>1.51</speed>
  <fix>3d</fix>
</trkpt>
<trkpt lat="40.071428" lon="-105.2297656">
  <ele>1583.1</ele>
  <time>2026-08-28T17:53:19Z</time>
  <course>44.89</course>
  <speed>1.4495861478366852</speed>
  <fix>3d</fix>
</trkpt>
<trkpt lat="40.0714262" lon="-105.2297684">
  <ele>1583.0</ele>
  <time>2026-08-28T17:53:19Z</time>
  <course>44.25</course>
  <speed>1.51</speed>
  <fix>3d</fix>
</trkpt>
<trkpt lat="40.071429" lon="-105.2297644">
  <ele>1583.1</ele>
  <time>2026-08-28T17:53:19Z</time>
  <course>44.93</course>
  <speed>1.4354441821262156</speed>
  <fix>3d</fix>
</trkpt>
<trkpt lat="40.0714281" lon="-105.2297659">
  <ele>1583.0</ele>
  <time>2026-08-28T17:53:19Z</time>
  <course>44.36</course>
  <speed>1.49</speed>
  <fix>3d</fix>
</trkpt>
<trkpt lat="40.0714299" lon="-105.2297632">
  <ele>1583.1</ele>
  <time>2026-08-28T17:53:19Z</time>
  <course>44.97</course>
  <speed>1.4354441821262156</speed>
  <fix>3d</fix>
</trkpt>
<trkpt lat="40.0714281" lon="-105.2297659">
  <ele>1583.0</ele>
  <time>2026-08-28T17:53:19Z</time>
  <course>44.36</course>
  <speed>1.49</speed>
  <fix>3d</fix>
</trkpt>
<trkpt lat="40.0714309" lon="-105.229762">
  <ele>1583.09</ele>
  <time>2026-08-28T17:53:19Z</time>
  <course>44.99</course>
  <speed>1.4213022197970424</speed>
  <fix>3d</fix>
</trkpt>
<trkpt lat="40.07143" lon="-105.2297634">
  <ele>1583.0</ele>
  <time>2026-08-28T17:53:19Z</time>
  <course>44.43</course>
  <speed>1.47</speed>
  <fix>3d</fix>
</trkpt>
<trkpt lat="40.0714318" lon="-105.2297608">
  <ele>1583.09</ele>
  <time>2026-08-28T17:53:19Z</time>
  <course>45.01</course>
  <speed>1.4213022197970424</speed>
  <fix>3d</fix>
</trkpt>
<trkpt lat="40.07143" lon="-105.2297634">
  <ele>1583.0</ele>
  <time>2026-08-28T17:53:19Z</time>
  <course>44.43</course>
  <speed>1.47</speed>
  <fix>3d</fix>
</trkpt>
<trkpt lat="40.071433" lon="-105.2297593">
  <ele>1583.09</ele>
  <time>2026-08-28T17:53:19Z</time>
  <course>45.03</course>
  <speed>1.4142842712835353</speed>
  <fix>3d</fix>
</trkpt>
<trkpt lat="40.0714319" lon="-105.229761">
  <ele>1583.0</ele>
  <time>2026-08-28T17:53:19Z</time>
  <course>44.48</course>
  <speed>1.46</speed>
  <fix>3d</fix>
</trkpt>
<trkpt lat="40.0714339" lon="-105.2297581">
  <ele>1583.08</ele>
  <time>2026-08-28T17:53:19Z</time>
  <course>45.05</course>
  <speed>1.4071602609511116</speed>
  <fix>3d</fix>
</trkpt>
<trkpt lat="40.0714319" lon="-105.229761">
  <ele>1583.0</ele>
  <time>2026-08-28T17:53:19Z</time>
  <course>44.48</course>
  <speed>1.46</speed>
  <fix>3d</fix>
</trkpt>
<trkpt lat="40.0714348" lon="-105.2297569">
  <ele>1583.08</ele>
  <time>2026-08-28T17:53:19Z</time>
  <course>45.06</course>
  <speed>1.4071602609511116</speed>
  <fix>3d</fix>
</trkpt>
<trkpt lat="40.0714337" lon="-105.2297586">
  <ele>1583.0</ele>
  <time>2026-08-28T17:53:19Z</time>
  <course>44.51</course>
  <speed>1.45</speed>
  <fix>3d</fix>
</trkpt>
<trkpt lat="40.0714358" lon="-105.2297557">
  <ele>1583.09</ele>
  <time>2026-08-28T17:53:19Z</time>
  <course>45.07</course>
  <speed>1.400142849854971</speed>
  <fix>3d</fix>
</trkpt>
<trkpt lat="40.0714337" lon="-105.2297586">
  <ele>1583.0</ele>
  <time>2026-08-28T17:53:19Z</time>
  <course>44.51</course>
  <speed>1.45</speed>
  <fix>3d</fix>
</trkpt>
<trkpt lat="40.0714367" lon="-105.2297545">
  <ele>1583.09</ele>
  <time>2026-08-28T17:53:19Z</time>
  <course>45.07</course>
  <speed>1.400142849854971</speed>
  <fix>3d</fix>
</trkpt>
<trkpt lat="40.0714356" lon="-105.2297562">
  <ele>1583.0</ele>
  <time>2026-08-28T17:53:19Z</time>
  <course>44.53</course>
  <speed>1.44</speed>
  <fix>3d</fix>
</trkpt>
<trkpt lat="40.0714376" lon="-105.2297534">
  <ele>1583.09</ele>
  <time>2026-08-28T17:53:19Z</time>
  <course>45.07</course>
  <speed>1.400142849854971</speed>
  <fix>3d</fix>
</trkpt>
<trkpt lat="40.0714356" lon="-105.2297562">
  <ele>1583.0</ele>
  <time>2026-08-28T17:53:19Z</time>
  <course>44.53</course>
  <speed>1.44</speed>
  <fix>3d</fix>
</trkpt>
<trkpt lat="40.0714385" lon="-105.2297522">
  <ele>1583.09</ele>
  <time>2026-08-28T17:53:19Z</time>
  <course>45.07</course>
  <speed>1.393018305694509</speed>
  <fix>3d</fix>
</trkpt>
<trkpt lat="40.0714375" lon="-105.2297539">
  <ele>1583.0</ele>
  <time>2026-08-28T17:53:19Z</time>
  <course>44.53</course>
  <speed>1.43</speed>
  <fix>3d</fix>
</trkpt>
<trkpt lat="40.0714394" lon="-105.229751">
  <ele>1583.09</ele>
  <time>2026-08-28T17:53:19Z</time>
  <course>45.08</course>
  <speed>1.393018305694509</speed>
  <fix>3d</fix>
</trkpt>
<trkpt lat="40.0714375" lon="-105.2297539">
  <ele>1583.0</ele>
  <time>2026-08-28T17:53:19Z</time>
  <course>44.53</course>
  <speed>1.43</speed>
  <fix>3d</fix>
</trkpt>
<trkpt lat="40.0714403" lon="-105.2297498">
  <ele>1583.1</ele>
  <time>2026-08-28T17:53:19Z</time>
  <course>45.08</course>
  <speed>1.393018305694509</speed>
  <fix>3d</fix>
</trkpt>
<trkpt lat="40.0714393" lon="-105.2297516">
  <ele>1583.0</ele>
  <time>2026-08-28T17:53:19Z</time>
  <course>44.53</course>
  <speed>1.43</speed>
  <fix>3d</fix>
</trkpt>
<trkpt lat="40.0714412" lon="-105.2297487">
  <ele>1583.1</ele>
  <time>2026-08-28T17:53:19Z</time>
  <course>45.08</course>
  <speed>1.393018305694509</speed>
  <fix>3d</fix>
</trkpt>
<trkpt lat="40.0714393" lon="-105.2297516">
  <ele>1583.0</ele>
  <time>2026-08-28T17:53:19Z</time>
  <course>44.53</course>
  <speed>1.43</speed>
  <fix>3d</fix>
</trkpt>
<trkpt lat="40.0714421" lon="-105.2297475">
  <ele>1583.1</ele>
  <time>2026-08-28T17:53:19Z</time>
  <course>45.09</course>
  <speed>1.393018305694509</speed>
  <fix>3d</fix>
</trkpt>
<trkpt lat="40.0714411" lon="-105.2297492">
  <ele>1583.0</ele>
  <time>2026-08-28T17:53:19Z</time>
  <course>44.53</course>
  <speed>1.42</speed>
  <fix>3d</fix>
</trkpt>
<trkpt lat="40.0714429" lon="-105.2297466">
  <ele>1583.1</ele>
  <time>2026-08-28T17:53:19Z</time>
  <course>45.09</course>
  <speed>1.393018305694509</speed>
  <fix>3d</fix>
</trkpt>
<trkpt lat="40.0714411" lon="-105.2297492">
  <ele>1583.0</ele>
  <time>2026-08-28T17:53:19Z</time>
  <course>44.53</course>
  <speed>1.42</speed>
  <fix>3d</fix>
</trkpt>
<trkpt lat="40.0714438" lon="-105.2297454">
  <ele>1583.1</ele>
  <time>2026-08-28T17:53:19Z</time>
  <course>45.09</course>
  <speed>1.393018305694509</speed>
  <fix>3d</fix>
</trkpt>
<trkpt lat="40.071443" lon="-105.2297469">
  <ele>1583.0</ele>
  <time>2026-08-28T17:53:19Z</time>
  <course>44.53</course>
  <speed>1.42</speed>
  <fix>3d</fix>
</trkpt>
<trkpt lat="40.0714447" lon="-105.2297442">
  <ele>1583.1</ele>
  <time>2026-08-28T17:53:19Z</time>
  <course>45.09</course>
  <speed>1.393018305694509</speed>
  <fix>3d</fix>
</trkpt>
<trkpt lat="40.071443" lon="-105.2297469">
  <ele>1583.0</ele>
  <time>2026-08-28T17:53:19Z</time>
  <course>44.53</course>
  <speed>1.42</speed>
  <fix>3d</fix>
</trkpt>
<trkpt lat="40.0714456" lon="-105.2297431">
  <ele>1583.1</ele>
  <time>2026-08-28T17:53:19Z</time>
  <course>45.1</course>
  <speed>1.400142849854971</speed>
  <fix>3d</fix>
</trkpt>
<trkpt lat="40.0714447" lon="-105.2297445">
  <ele>1583.0</ele>
  <time>2026-08-28T17:53:19Z</time>
  <course>44.53</course>
  <speed>1.42</speed>
  <fix>3d</fix>
</trkpt>
<trkpt lat="40.0714465" lon="-105.2297419">
  <ele>1583.1</ele>
  <time>2026-08-28T17:53:19Z</time>
  <course>45.1</course>
  <speed>1.400142849854971</speed>
  <fix>3d</fix>
</trkpt>
<trkpt lat="40.0714447" lon="-105.2297445">
  <ele>1583.0</ele>
  <time>2026-08-28T17:53:19Z</time>
  <course>44.53</course>
  <speed>1.42</speed>
  <fix>3d</fix>
</trkpt>
<trkpt lat="40.0714475" lon="-105.2297407">
  <ele>1583.09</ele>
  <time>2026-08-28T17:53:19Z</time>
  <course>45.1</course>
  <speed>1.400142849854971</speed>
  <fix>3d</fix>
</trkpt>
<trkpt lat="40.0714466" lon="-105.2297421">
  <ele>1583.0</ele>
  <time>2026-08-28T17:53:19Z</time>
  <course>44.53</course>
  <speed>1.42</speed>
  <fix>3d</fix>
</trkpt>
<trkpt lat="40.0714484" lon="-105.2297395">
  <ele>1583.09</ele>
  <time>2026-08-28T17:53:19Z</time>
  <course>45.11</course>
  <speed>1.400142849854971</speed>
  <fix>3d</fix>
</trkpt>
<trkpt lat="40.0714466" lon="-105.2297421">
  <ele>1583.0</ele>
  <time>2026-08-28T17:53:19Z</time>
  <course>44.53</course>
  <speed>1.42</speed>
  <fix>3d</fix>
</trkpt>
<trkpt lat="40.0714493" lon="-105.2297383">
  <ele>1583.09</ele>
  <time>2026-08-28T17:53:19Z</time>
  <course>45.11</course>
  <speed>1.400142849854971</speed>
  <fix>3d</fix>
</trkpt>
<trkpt lat="40.0714485" lon="-105.2297398">
  <ele>1583.0</ele>
  <time>2026-08-28T17:53:19Z</time>
  <course>44.53</course>
  <speed>1.42</speed>
  <fix>3d</fix>
</trkpt>
<trkpt lat="40.0714502" lon="-105.2297371">
  <ele>1583.09</ele>
  <time>2026-08-28T17:53:19Z</time>
  <course>45.11</course>
  <speed>1.400142849854971</speed>
  <fix>3d</fix>
</trkpt>
<trkpt lat="40.0714485" lon="-105.2297398">
  <ele>1583.0</ele>
  <time>2026-08-28T17:53:19Z</time>
  <course>44.53</course>
  <speed>1.42</speed>
  <fix>3d</fix>
</trkpt>
<trkpt lat="40.0714512" lon="-105.2297359">
  <ele>1583.08</ele>
  <time>2026-08-28T17:53:19Z</time>
  <course>45.12</course>
  <speed>1.4073023839957068</speed>
  <fix>3d</fix>
</trkpt>
<trkpt lat="40.0714502" lon="-105.2297375">
  <ele>1583.0</ele>
  <time>2026-08-28T17:53:19Z</time>
  <course>44.53</course>
  <speed>1.43</speed>
  <fix>3d</fix>
</trkpt>
<trkpt lat="40.0714523" lon="-105.2297345">
  <ele>1583.08</ele>
  <time>2026-08-28T17:53:19Z</time>
  <course>45.12</course>
  <speed>1.4073023839957068</speed>
  <fix>3d</fix>
</trkpt>
<trkpt lat="40.0714502" lon="-105.2297375">
  <ele>1583.0</ele>
  <time>2026-08-28T17:53:19Z</time>
  <course>44.53</course>
  <speed>1.43</speed>
  <fix>3d</fix>
</trkpt>
<trkpt lat="40.0714532" lon="-105.2297333">
  <ele>1583.08</ele>
  <time>2026-08-28T17:53:19Z</time>
  <course>45.12</course>
  <speed>1.4073023839957068</speed>
  <fix>3d</fix>
</trkpt>
<trkpt lat="40.0714521" lon="-105.2297351">
  <ele>1583.0</ele>
  <time>2026-08-28T17:53:19Z</time>
  <course>44.53</course>
  <speed>1.42</speed>
  <fix>3d</fix>
</trkpt>
<trkpt lat="40.0714541" lon="-105.2297321">
  <ele>1583.08</ele>
  <time>2026-08-28T17:53:19Z</time>
  <course>45.13</course>
  <speed>1.4073023839957068</speed>
  <fix>3d</fix>
</trkpt>
<trkpt lat="40.0714521" lon="-105.2297351">
  <ele>1583.0</ele>
  <time>2026-08-28T17:53:19Z</time>
  <course>44.53</course>
  <speed>1.42</speed>
  <fix>3d</fix>
</trkpt>
<trkpt lat="40.071455" lon="-105.2297309">
  <ele>1583.08</ele>
  <time>2026-08-28T17:53:19Z</time>
  <course>45.13</course>
  <speed>1.4073023839957068</speed>
  <fix>3d</fix>
</trkpt>
<trkpt lat="40.071454" lon="-105.2297327">
  <ele>1583.0</ele>
  <time>2026-08-28T17:53:19Z</time>
  <course>44.53</course>
  <speed>1.42</speed>
  <fix>3d</fix>
</trkpt>
<trkpt lat="40.071456" lon="-105.2297297">
  <ele>1583.08</ele>
  <time>2026-08-28T17:53:19Z</time>
  <course>45.14</course>
  <speed>1.4073023839957068</speed>
  <fix>3d</fix>
</trkpt>
<trkpt lat="40.071454" lon="-105.2297327">
  <ele>1583.0</ele>
  <time>2026-08-28T17:53:19Z</time>
  <course>44.53</course>
  <speed>1.42</speed>
  <fix>3d</fix>
</trkpt>
<trkpt lat="40.0714569" lon="-105.2297285">
  <ele>1583.09</ele>
  <time>2026-08-28T17:53:19Z</time>
  <course>45.14</course>
  <speed>1.4073023839957068</speed>
  <fix>3d</fix>
</trkpt>
<trkpt lat="40.0714557" lon="-105.2297304">
  <ele>1583.0</ele>
  <time>2026-08-28T17:53:19Z</time>
  <course>44.53</course>
  <speed>1.42</speed>
  <fix>3d</fix>
</trkpt>
<trkpt lat="40.0714578" lon="-105.2297274">
  <ele>1583.09</ele>
  <time>2026-08-28T17:53:19Z</time>
  <course>45.14</course>
  <speed>1.4073023839957068</speed>
  <fix>3d</fix>
</trkpt>
<trkpt lat="40.0714557" lon="-105.2297304">
  <ele>1583.0</ele>
  <time>2026-08-28T17:53:19Z</time>
  <course>44.53</course>
  <speed>1.42</speed>
  <fix>3d</fix>
</trkpt>
<trkpt lat="40.0714587" lon="-105.2297262">
  <ele>1583.09</ele>
  <time>2026-08-28T17:53:19Z</time>
  <course>45.15</course>
  <speed>1.4073023839957068</speed>
  <fix>3d</fix>
</trkpt>
<trkpt lat="40.0714576" lon="-105.229728">
  <ele>1583.0</ele>
  <time>2026-08-28T17:53:19Z</time>
  <course>44.53</course>
  <speed>1.42</speed>
  <fix>3d</fix>
</trkpt>
<trkpt lat="40.0714596" lon="-105.229725">
  <ele>1583.09</ele>
  <time>2026-08-28T17:53:19Z</time>
  <course>45.15</course>
  <speed>1.4073023839957068</speed>
  <fix>3d</fix>
</trkpt>
<trkpt lat="40.0714576" lon="-105.229728">
  <ele>1583.0</ele>
  <time>2026-08-28T17:53:19Z</time>
  <course>44.53</course>
  <speed>1.42</speed>
  <fix>3d</fix>
</trkpt>
<trkpt lat="40.0714605" lon="-105.2297239">
  <ele>1583.09</ele>
  <time>2026-08-28T17:53:19Z</time>
  <course>45.15</course>
  <speed>1.4073023839957068</speed>
  <fix>3d</fix>
</trkpt>
<trkpt lat="40.0714593" lon="-105.2297257">
  <ele>1583.0</ele>
  <time>2026-08-28T17:53:19Z</time>
  <course>44.53</course>
  <speed>1.41</speed>
  <fix>3d</fix>
</trkpt>
<trkpt lat="40.0714614" lon="-105.2297227">
  <ele>1583.09</ele>
  <time>2026-08-28T17:53:19Z</time>
  <course>45.16</course>
  <speed>1.4073023839957068</speed>
  <fix>3d</fix>
</trkpt>
<trkpt lat="40.0714593" lon="-105.2297257">
  <ele>1583.0</ele>
  <time>2026-08-28T17:53:19Z</time>
  <course>44.53</course>
  <speed>1.41</speed>
  <fix>3d</fix>
</trkpt>
<trkpt lat="40.0714621" lon="-105.2297217">
  <ele>1583.09</ele>
  <time>2026-08-28T17:53:19Z</time>
  <course>45.16</course>
  <speed>1.4073023839957068</speed>
  <fix>3d</fix>
</trkpt>
<trkpt lat="40.0714612" lon="-105.2297234">
  <ele>1583.0</ele>
  <time>2026-08-28T17:53:19Z</time>
  <course>44.53</course>
  <speed>1.41</speed>
  <fix>3d</fix>
</trkpt>
<trkpt lat="40.071463" lon="-105.2297206">
  <ele>1583.08</ele>
  <time>2026-08-28T17:53:19Z</time>
  <course>45.16</course>
  <speed>1.4073023839957068</speed>
  <fix>3d</fix>
</trkpt>
<trkpt lat="40.0714612" lon="-105.2297234">
  <ele>1583.0</ele>
  <time>2026-08-28T17:53:19Z</time>
  <course>44.53</course>
  <speed>1.41</speed>
  <fix>3d</fix>
</trkpt>
<trkpt lat="40.0714639" lon="-105.2297194">
  <ele>1583.08</ele>
  <time>2026-08-28T17:53:19Z</time>
  <course>45.16</course>
  <speed>1.4073023839957068</speed>
  <fix>3d</fix>
</trkpt>
<trkpt lat="40.0714631" lon="-105.229721">
  <ele>1583.0</ele>
  <time>2026-08-28T17:53:19Z</time>
  <course>44.53</course>
  <speed>1.41</speed>
  <fix>3d</fix>
</trkpt>
<trkpt lat="40.0714648" lon="-105.2297182">
  <ele>1583.08</ele>
  <time>2026-08-28T17:53:19Z</time>
  <course>45.16</course>
  <speed>1.4073023839957068</speed>
  <fix>3d</fix>
</trkpt>
<trkpt lat="40.0714631" lon="-105.229721">
  <ele>1583.0</ele>
  <time>2026-08-28T17:53:19Z</time>
  <course>44.53</course>
  <speed>1.41</speed>
  <fix>3d</fix>
</trkpt>
<trkpt lat="40.0714658" lon="-105.229717">
  <ele>1583.08</ele>
  <time>2026-08-28T17:53:19Z</time>
  <course>45.15</course>
  <speed>1.4073023839957068</speed>
  <fix>3d</fix>
</trkpt>
<trkpt lat="40.0714648" lon="-105.2297187">
  <ele>1583.0</ele>
  <time>2026-08-28T17:53:19Z</time>
  <course>44.52</course>
  <speed>1.41</speed>
  <fix>3d</fix>
</trkpt>
<trkpt lat="40.0714667" lon="-105.2297159">
  <ele>1583.08</ele>
  <time>2026-08-28T17:53:19Z</time>
  <course>45.15</course>
  <speed>1.4073023839957068</speed>
  <fix>3d</fix>
</trkpt>
<trkpt lat="40.0714648" lon="-105.2297187">
  <ele>1583.0</ele>
  <time>2026-08-28T17:53:19Z</time>
  <course>44.52</course>
  <speed>1.41</speed>
  <fix>3d</fix>
</trkpt>
<trkpt lat="40.0714676" lon="-105.2297147">
  <ele>1583.08</ele>
  <time>2026-08-28T17:53:19Z</time>
  <course>45.14</course>
  <speed>1.4073023839957068</speed>
  <fix>3d</fix>
</trkpt>
<trkpt lat="40.0714667" lon="-105.2297164">
  <ele>1583.0</ele>
  <time>2026-08-28T17:53:19Z</time>
  <course>44.51</course>
  <speed>1.41</speed>
  <fix>3d</fix>
</trkpt>
<trkpt lat="40.0714685" lon="-105.2297135">
  <ele>1583.08</ele>
  <time>2026-08-28T17:53:19Z</time>
  <course>45.87</course>
  <speed>1.4148498153514388</speed>
  <fix>3d</fix>
</trkpt>
<trkpt lat="40.0714667" lon="-105.2297164">
  <ele>1583.0</ele>
  <time>2026-08-28T17:53:19Z</time>
  <course>44.51</course>
  <speed>1.41</speed>
  <fix>3d</fix>
</trkpt>
<trkpt lat="40.0714694" lon="-105.2297123">
  <ele>1583.08</ele>
  <time>2026-08-28T17:53:19Z</time>
  <course>47.74</course>
  <speed>1.4101418368376992</speed>
  <fix>3d</fix>
</trkpt>
<trkpt lat="40.0714684" lon="-105.229714">
  <ele>1583.0</ele>
  <time>2026-08-28T17:53:19Z</time>
  <course>45.8</course>
  <speed>1.41</speed>
  <fix>3d</fix>
</trkpt>
<trkpt lat="40.0714702" lon="-105.229711">
  <ele>1583.08</ele>
  <time>2026-08-28T17:53:19Z</time>
  <course>50.7</course>
  <speed>1.4165097952361643</speed>
  <fix>3d</fix>
</trkpt>
<trkpt lat="40.0714684" lon="-105.229714">
  <ele>1583.0</ele>
  <time>2026-08-28T17:53:19Z</time>
  <course>45.8</course>
  <speed>1.41</speed>
  <fix>3d</fix>
</trkpt>
<trkpt lat="40.0714712" lon="-105.2297094">
  <ele>1583.09</ele>
  <time>2026-08-28T17:53:19Z</time>
  <course>55.66</course>
  <speed>1.4144963768069538</speed>
  <fix>3d</fix>
</trkpt>
<trkpt lat="40.0714701" lon="-105.2297116">
  <ele>1583.0</ele>
  <time>2026-08-28T17:53:19Z</time>
  <course>50.59</course>
  <speed>1.4</speed>
  <fix>3d</fix>
</trkpt>
<trkpt lat="40.0714718" lon="-105.229708">
  <ele>1583.09</ele>
  <time>2026-08-28T17:53:19Z</time>
  <course>60.96</course>
  <speed>1.4135416513141734</speed>
  <fix>3d</fix>
</trkpt>
<trkpt lat="40.0714701" lon="-105.2297116">
  <ele>1583.0</ele>
  <time>2026-08-28T17:53:19Z</time>
  <course>50.59</course>
  <speed>1.4</speed>
  <fix>3d</fix>
</trkpt>
<trkpt lat="40.0714724" lon="-105.2297065">
  <ele>1583.09</ele>
  <time>2026-08-28T17:53:19Z</time>
  <course>67.29</course>
  <speed>1.418731828077456</speed>
  <fix>3d</fix>
</trkpt>
<trkpt lat="40.0714716" lon="-105.2297088">
  <ele>1583.0</ele>
  <time>2026-08-28T17:53:19Z</time>
  <course>59.69</course>
  <speed>1.4</speed>
  <fix>3d</fix>
</trkpt>
<trkpt lat="40.0714728" lon="-105.2297049">
  <ele>1583.09</ele>
  <time>2026-08-28T17:53:19Z</time>
  <course>74.63</course>
  <speed>1.4140014144264494</speed>
  <fix>3d</fix>
</trkpt>
<trkpt lat="40.0714716" lon="-105.2297088">
  <ele>1583.0</ele>
  <time>2026-08-28T17:53:19Z</time>
  <course>59.69</course>
  <speed>1.4</speed>
  <fix>3d</fix>
</trkpt>
<trkpt lat="40.071473" lon="-105.2297033">
  <ele>1583.09</ele>
  <time>2026-08-28T17:53:19Z</time>
  <course>82.94</course>
  <speed>1.417956275771577</speed>
  <fix>3d</fix>
</trkpt>
<trkpt lat="40.0714727" lon="-105.2297059">
  <ele>1583.0</ele>
  <time>2026-08-28T17:53:19Z</time>
  <course>72.97</course>
  <speed>1.39</speed>
  <fix>3d</fix>
</trkpt>
<trkpt lat="40.071473" lon="-105.2297016">
  <ele>1583.09</ele>
  <time>2026-08-28T17:53:19Z</time>
  <course>91.56</course>
  <speed>1.4112760183606892</speed>
  <fix>3d</fix>
</trkpt>
<trkpt lat="40.0714727" lon="-105.2297059">
  <ele>1583.0</ele>
  <time>2026-08-28T17:53:19Z</time>
  <course>72.97</course>
  <speed>1.39</speed>
  <fix>3d</fix>
</trkpt>
<trkpt lat="40.0714729" lon="-105.2297">
  <ele>1583.09</ele>
  <time>2026-08-28T17:53:19Z</time>
  <course>99.15</course>
  <speed>1.4105672617780407</speed>
  <fix>3d</fix>
</trkpt>
<trkpt lat="40.0714731" lon="-105.2297026">
  <ele>1583.0</ele>
  <time>2026-08-28T17:53:19Z</time>
  <course>88.88</course>
  <speed>1.39</speed>
  <fix>3d</fix>
</trkpt>
<trkpt lat="40.0714727" lon="-105.2296984">
  <ele>1583.09</ele>
  <time>2026-08-28T17:53:19Z</time>
  <course>105.75</course>
  <speed>1.4080127840328722</speed>
  <fix>3d</fix>
</trkpt>
<trkpt lat="40.0714731" lon="-105.2297026">
  <ele>1583.0</ele>
  <time>2026-08-28T17:53:19Z</time>
  <course>88.88</course>
  <speed>1.39</speed>
  <fix>3d</fix>
</trkpt>
<trkpt lat="40.0714723" lon="-105.2296969">
  <ele>1583.1</ele>
  <time>2026-08-28T17:53:19Z</time>
  <course>111.35</course>
  <speed>1.41315250415516</speed>
  <fix>3d</fix>
</trkpt>
<trkpt lat="40.0714728" lon="-105.2296993">
  <ele>1583.0</ele>
  <time>2026-08-28T17:53:19Z</time>
  <course>103.42</course>
  <speed>1.39</speed>
  <fix>3d</fix>
</trkpt>
<trkpt lat="40.0714718" lon="-105.2296954">
  <ele>1583.1</ele>
  <time>2026-08-28T17:53:19Z</time>
  <course>115.91</course>
  <speed>1.4087228258248674</speed>
  <fix>3d</fix>
</trkpt>
<trkpt lat="40.0714728" lon="-105.2296993">
  <ele>1583.0</ele>
  <time>2026-08-28T17:53:19Z</time>
  <course>103.42</course>
  <speed>1.39</speed>
  <fix>3d</fix>
</trkpt>
<trkpt lat="40.0714712" lon="-105.229694">
  <ele>1583.1</ele>
  <time>2026-08-28T17:53:19Z</time>
  <course>119.41</course>
  <speed>1.4065560778013793</speed>
  <fix>3d</fix>
</trkpt>
<trkpt lat="40.071472" lon="-105.2296963">
  <ele>1583.0</ele>
  <time>2026-08-28T17:53:19Z</time>
  <course>113.93</course>
  <speed>1.4</speed>
  <fix>3d</fix>
</trkpt>
<trkpt lat="40.0714706" lon="-105.2296929">
  <ele>1583.1</ele>
  <time>2026-08-28T17:53:19Z</time>
  <course>121.62</course>
  <speed>1.4066271716414411</speed>
  <fix>3d</fix>
</trkpt>
<trkpt lat="40.071472" lon="-105.2296963">
  <ele>1583.0</ele>
  <time>2026-08-28T17:53:19Z</time>
  <course>113.93</course>
  <speed>1.4</speed>
  <fix>3d</fix>
</trkpt>
<trkpt lat="40.07147" lon="-105.2296915">
  <ele>1583.11</ele>
  <time>2026-08-28T17:53:19Z</time>
  <course>124.0</course>
  <speed>1.40089257261219</speed>
  <fix>3d</fix>
</trkpt>
<trkpt lat="40.0714709" lon="-105.2296934">
  <ele>1583.0</ele>
  <time>2026-08-28T17:53:19Z</time>
  <course>120.75</course>
  <speed>1.4</speed>
  <fix>3d</fix>
</trkpt>
<trkpt lat="40.0714692" lon="-105.2296902">
  <ele>1583.11</ele>
  <time>2026-08-28T17:53:19Z</time>
  <course>125.99</course>
  <speed>1.3940229553346675</speed>
  <fix>3d</fix>
</trkpt>
<trkpt lat="40.0714709" lon="-105.2296934">
  <ele>1583.0</ele>
  <time>2026-08-28T17:53:19Z</time>
  <course>120.75</course>
  <speed>1.4</speed>
  <fix>3d</fix>
</trkpt>
<trkpt lat="40.0714685" lon="-105.2296889">
  <ele>1583.11</ele>
  <time>2026-08-28T17:53:19Z</time>
  <course>127.63</course>
  <speed>1.3962807740565648</speed>
  <fix>3d</fix>
</trkpt>
<trkpt lat="40.0714695" lon="-105.2296906">
  <ele>1583.0</ele>
  <time>2026-08-28T17:53:19Z</time>
  <course>125.16</course>
  <speed>1.4</speed>
  <fix>3d</fix>
</trkpt>
<trkpt lat="40.0714677" lon="-105.2296876">
  <ele>1583.12</ele>
  <time>2026-08-28T17:53:19Z</time>
  <course>129.01</course>
  <speed>1.3994641831786907</speed>
  <fix>3d</fix>
</trkpt>
<trkpt lat="40.0714695" lon="-105.2296906">
  <ele>1583.0</ele>
  <time>2026-08-28T17:53:19Z</time>
  <course>125.16</course>
  <speed>1.4</speed>
  <fix>3d</fix>
</trkpt>
<trkpt lat="40.0714669" lon="-105.2296864">
  <ele>1583.12</ele>
  <time>2026-08-28T17:53:19Z</time>
  <course>130.16</course>
  <speed>1.3970325694127537</speed>
  <fix>3d</fix>
</trkpt>
<trkpt lat="40.0714679" lon="-105.229688">
  <ele>1583.0</ele>
  <time>2026-08-28T17:53:19Z</time>
  <course>128.24</course>
  <speed>1.4</speed>
  <fix>3d</fix>
</trkpt>
<trkpt lat="40.0714661" lon="-105.2296851">
  <ele>1583.12</ele>
  <time>2026-08-28T17:53:19Z</time>
  <course>131.12</course>
  <speed>1.3951702405083042</speed>
  <fix>3d</fix>
</trkpt>
<trkpt lat="40.0714679" lon="-105.229688">
  <ele>1583.0</ele>
  <time>2026-08-28T17:53:19Z</time>
  <course>128.24</course>
  <speed>1.4</speed>
  <fix>3d</fix>
</trkpt>
<trkpt lat="40.0714652" lon="-105.2296839">
  <ele>1583.12</ele>
  <time>2026-08-28T17:53:19Z</time>
  <course>131.91</course>
  <speed>1.3944532978913278</speed>
  <fix>3d</fix>
</trkpt>
<trkpt lat="40.0714664" lon="-105.2296854">
  <ele>1583.0</ele>
  <time>2026-08-28T17:53:19Z</time>
  <course>130.37</course>
  <speed>1.41</speed>
  <fix>3d</fix>
</trkpt>
<trkpt lat="40.0714644" lon="-105.2296826">
  <ele>1583.12</ele>
  <time>2026-08-28T17:53:19Z</time>
  <course>132.57</course>
  <speed>1.3938794782907167</speed>
  <fix>3d</fix>
</trkpt>
<trkpt lat="40.0714664" lon="-105.2296854">
  <ele>1583.0</ele>
  <time>2026-08-28T17:53:19Z</time>
  <course>130.37</course>
  <speed>1.41</speed>
  <fix>3d</fix>
</trkpt>
<trkpt lat="40.0714633" lon="-105.2296812">
  <ele>1583.12</ele>
  <time>2026-08-28T17:53:19Z</time>
  <course>133.21</course>
  <speed>1.3934489585198304</speed>
  <fix>3d</fix>
</trkpt>
<trkpt lat="40.0714647" lon="-105.2296829">
  <ele>1583.0</ele>
  <time>2026-08-28T17:53:19Z</time>
  <course>131.84</course>
  <speed>1.41</speed>
  <fix>3d</fix>
</trkpt>
<trkpt lat="40.0714625" lon="-105.22968">
  <ele>1583.12</ele>
  <time>2026-08-28T17:53:19Z</time>
  <course>133.65</course>
  <speed>1.4003570973148243</speed>
  <fix>3d</fix>
</trkpt>
<trkpt lat="40.0714647" lon="-105.2296829">
  <ele>1583.0</ele>
  <time>2026-08-28T17:53:19Z</time>
  <course>131.84</course>
  <speed>1.41</speed>
  <fix>3d</fix>
</trkpt>
<trkpt lat="40.0714616" lon="-105.2296788">
  <ele>1583.12</ele>
  <time>2026-08-28T17:53:19Z</time>
  <course>134.01</course>
  <speed>1.400142849854971</speed>
  <fix>3d</fix>
</trkpt>
<trkpt lat="40.0714629" lon="-105.2296805">
  <ele>1583.0</ele>
  <time>2026-08-28T17:53:19Z</time>
  <course>132.86</course>
  <speed>1.41</speed>
  <fix>3d</fix>
</trkpt>
<trkpt lat="40.0714607" lon="-105.2296776">
  <ele>1583.11</ele>
  <time>2026-08-28T17:53:19Z</time>
  <course>134.3</course>
  <speed>1.400142849854971</speed>
  <fix>3d</fix>
</trkpt>
<trkpt lat="40.0714629" lon="-105.2296805">
  <ele>1583.0</ele>
  <time>2026-08-28T17:53:19Z</time>
  <course>132.86</course>
  <speed>1.41</speed>
  <fix>3d</fix>
</trkpt>
<trkpt lat="40.0714598" lon="-105.2296764">
  <ele>1583.12</ele>
  <time>2026-08-28T17:53:19Z</time>
  <course>134.55</course>
  <speed>1.4071602609511116</speed>
  <fix>3d</fix>
</trkpt>
<trkpt lat="40.0714612" lon="-105.229678">
  <ele>1583.0</ele>
  <time>2026-08-28T17:53:19Z</time>
  <course>133.55</course>
  <speed>1.42</speed>
  <fix>3d</fix>
</trkpt>
<trkpt lat="40.0714589" lon="-105.2296752">
  <ele>1583.12</ele>
  <time>2026-08-28T17:53:19Z</time>
  <course>134.75</course>
  <speed>1.4000714267493641</speed>
  <fix>3d</fix>
</trkpt>
<trkpt lat="40.0714612" lon="-105.229678">
  <ele>1583.0</ele>
  <time>2026-08-28T17:53:19Z</time>
  <course>133.55</course>
  <speed>1.42</speed>
  <fix>3d</fix>
</trkpt>
<trkpt lat="40.0714581" lon="-105.229674">
  <ele>1583.12</ele>
  <time>2026-08-28T17:53:19Z</time>
  <course>134.92</course>
  <speed>1.4000714267493641</speed>
  <fix>3d</fix>
</trkpt>
<trkpt lat="40.0714595" lon="-105.2296755">
  <ele>1583.0</ele>
  <time>2026-08-28T17:53:19Z</time>
  <course>134.02</course>
  <speed>1.42</speed>
  <fix>3d</fix>
</trkpt>
<trkpt lat="40.0714572" lon="-105.2296728">
  <ele>1583.12</ele>
  <time>2026-08-28T17:53:19Z</time>
  <course>135.05</course>
  <speed>1.4000714267493641</speed>
  <fix>3d</fix>
</trkpt>
<trkpt lat="40.0714595" lon="-105.2296755">
  <ele>1583.0</ele>
  <time>2026-08-28T17:53:19Z</time>
  <course>134.02</course>
  <speed>1.42</speed>
  <fix>3d</fix>
</trkpt>
<trkpt lat="40.0714563" lon="-105.2296716">
  <ele>1583.12</ele>
  <time>2026-08-28T17:53:19Z</time>
  <course>135.16</course>
  <speed>1.4071602609511116</speed>
  <fix>3d</fix>
</trkpt>
<trkpt lat="40.0714576" lon="-105.2296731">
  <ele>1583.0</ele>
  <time>2026-08-28T17:53:19Z</time>
  <course>134.34</course>
  <speed>1.43</speed>
  <fix>3d</fix>
</trkpt>
<trkpt lat="40.0714554" lon="-105.2296704">
  <ele>1583.12</ele>
  <time>2026-08-28T17:53:19Z</time>
  <course>135.25</course>
  <speed>1.4071602609511116</speed>
  <fix>3d</fix>
</trkpt>
<trkpt lat="40.0714576" lon="-105.2296731">
  <ele>1583.0</ele>
  <time>2026-08-28T17:53:19Z</time>
  <course>134.34</course>
  <speed>1.43</speed>
  <fix>3d</fix>
</trkpt>
<trkpt lat="40.0714545" lon="-105.2296692">
  <ele>1583.12</ele>
  <time>2026-08-28T17:53:19Z</time>
  <course>135.32</course>
  <speed>1.4071602609511116</speed>
  <fix>3d</fix>
</trkpt>
<trkpt lat="40.0714559" lon="-105.2296707">
  <ele>1583.0</ele>
  <time>2026-08-28T17:53:19Z</time>
  <course>134.55</course>
  <speed>1.43</speed>
  <fix>3d</fix>
</trkpt>
<trkpt lat="40.0714536" lon="-105.229668">
  <ele>1583.12</ele>
  <time>2026-08-28T17:53:19Z</time>
  <course>135.38</course>
  <speed>1.4071602609511116</speed>
  <fix>3d</fix>
</trkpt>
<trkpt lat="40.0714559" lon="-105.2296707">
  <ele>1583.0</ele>
  <time>2026-08-28T17:53:19Z</time>
  <course>134.55</course>
  <speed>1.43</speed>
  <fix>3d</fix>
</trkpt>
<trkpt lat="40.0714529" lon="-105.2296671">
  <ele>1583.12</ele>
  <time>2026-08-28T17:53:19Z</time>
  <course>135.42</course>
  <speed>1.4071602609511116</speed>
  <fix>3d</fix>
</trkpt>
<trkpt lat="40.071454" lon="-105.2296684">
  <ele>1583.0</ele>
  <time>2026-08-28T17:53:19Z</time>
  <course>134.68</course>
  <speed>1.44</speed>
  <fix>3d</fix>
</trkpt>
<trkpt lat="40.071452" lon="-105.2296659">
  <ele>1583.12</ele>
  <time>2026-08-28T17:53:19Z</time>
  <course>135.96</course>
  <speed>1.4073023839957068</speed>
  <fix>3d</fix>
</trkpt>
<trkpt lat="40.071454" lon="-105.2296684">
  <ele>1583.0</ele>
  <time>2026-08-28T17:53:19Z</time>
  <course>134.68</course>
  <speed>1.44</speed>
  <fix>3d</fix>
</trkpt>
<trkpt lat="40.0714511" lon="-105.2296647">
  <ele>1583.12</ele>
  <time>2026-08-28T17:53:19Z</time>
  <course>137.72</course>
  <speed>1.4085808461000737</speed>
  <fix>3d</fix>
</trkpt>
<trkpt lat="40.0714522" lon="-105.229666">
  <ele>1583.0</ele>
  <time>2026-08-28T17:53:19Z</time>
  <course>135.89</course>
  <speed>1.44</speed>
  <fix>3d</fix>
</trkpt>
<trkpt lat="40.0714501" lon="-105.2296636">
  <ele>1583.12</ele>
  <time>2026-08-28T17:53:19Z</time>
  <course>140.55</course>
  <speed>1.4071957930579526</speed>
  <fix>3d</fix>
</trkpt>
<trkpt lat="40.0714522" lon="-105.229666">
  <ele>1583.0</ele>
  <time>2026-08-28T17:53:19Z</time>
  <course>135.89</course>
  <speed>1.44</speed>
  <fix>3d</fix>
</trkpt>
<trkpt lat="40.0714491" lon="-105.2296626">
  <ele>1583.12</ele>
  <time>2026-08-28T17:53:19Z</time>
  <course>144.5</course>
  <speed>1.4124092891226678</speed>
  <fix>3d</fix>
</trkpt>
<trkpt lat="40.0714502" lon="-105.2296637">
  <ele>1583.0</ele>
  <time>2026-08-28T17:53:19Z</time>
  <course>140.46</course>
  <speed>1.44</speed>
  <fix>3d</fix>
</trkpt>
<trkpt lat="40.071448" lon="-105.2296616">
  <ele>1583.12</ele>
  <time>2026-08-28T17:53:19Z</time>
  <course>149.55</course>
  <speed>1.4115594213493106</speed>
  <fix>3d</fix>
</trkpt>
<trkpt lat="40.0714502" lon="-105.2296637">
  <ele>1583.0</ele>
  <time>2026-08-28T17:53:19Z</time>
  <course>140.46</course>
  <speed>1.44</speed>
  <fix>3d</fix>
</trkpt>
<trkpt lat="40.0714468" lon="-105.2296609">
  <ele>1583.12</ele>
  <time>2026-08-28T17:53:19Z</time>
  <course>155.66</course>
  <speed>1.410319112825179</speed>
  <fix>3d</fix>
</trkpt>
<trkpt lat="40.0714482" lon="-105.2296618">
  <ele>1583.0</ele>
  <time>2026-08-28T17:53:19Z</time>
  <course>149.46</course>
  <speed>1.44</speed>
  <fix>3d</fix>
</trkpt>
<trkpt lat="40.0714456" lon="-105.2296603">
  <ele>1583.12</ele>
  <time>2026-08-28T17:53:19Z</time>
  <course>162.88</course>
  <speed>1.4080127840328722</speed>
  <fix>3d</fix>
</trkpt>
<trkpt lat="40.0714482" lon="-105.2296618">
  <ele>1583.0</ele>
  <time>2026-08-28T17:53:19Z</time>
  <course>149.46</course>
  <speed>1.44</speed>
  <fix>3d</fix>
</trkpt>
<trkpt lat="40.0714444" lon="-105.2296599">
  <ele>1583.12</ele>
  <time>2026-08-28T17:53:19Z</time>
  <course>171.07</course>
  <speed>1.412834031300209</speed>
  <fix>3d</fix>
</trkpt>
<trkpt lat="40.0714458" lon="-105.2296604">
  <ele>1583.0</ele>
  <time>2026-08-28T17:53:19Z</time>
  <course>162.72</course>
  <speed>1.43</speed>
  <fix>3d</fix>
</trkpt>
<trkpt lat="40.0714428" lon="-105.2296598">
  <ele>1583.13</ele>
  <time>2026-08-28T17:53:19Z</time>
  <course>181.69</course>
  <speed>1.4117365193264642</speed>
  <fix>3d</fix>
</trkpt>
<trkpt lat="40.0714458" lon="-105.2296604">
  <ele>1583.0</ele>
  <time>2026-08-28T17:53:19Z</time>
  <course>162.72</course>
  <speed>1.43</speed>
  <fix>3d</fix>
</trkpt>
<trkpt lat="40.0714415" lon="-105.22966">
  <ele>1583.13</ele>
  <time>2026-08-28T17:53:19Z</time>
  <course>189.49</course>
  <speed>1.4042791745233567</speed>
  <fix>3d</fix>
</trkpt>
<trkpt lat="40.0714433" lon="-105.2296598">
  <ele>1583.0</ele>
  <time>2026-08-28T17:53:19Z</time>
  <course>178.87</course>
  <speed>1.43</speed>
  <fix>3d</fix>
</trkpt>
<trkpt lat="40.0714402" lon="-105.2296605">
  <ele>1583.13</ele>
  <time>2026-08-28T17:53:19Z</time>
  <course>196.26</course>
  <speed>1.4073023839957068</speed>
  <fix>3d</fix>
</trkpt>
<trkpt lat="40.0714433" lon="-105.2296598">
  <ele>1583.0</ele>
  <time>2026-08-28T17:53:19Z</time>
  <course>178.87</course>
  <speed>1.43</speed>
  <fix>3d</fix>
</trkpt>
<trkpt lat="40.071439" lon="-105.2296611">
  <ele>1583.12</ele>
  <time>2026-08-28T17:53:19Z</time>
  <course>201.99</course>
  <speed>1.410319112825179</speed>
  <fix>3d</fix>
</trkpt>
<trkpt lat="40.0714407" lon="-105.2296602">
  <ele>1583.0</ele>
  <time>2026-08-28T17:53:19Z</time>
  <course>193.79</course>
  <speed>1.43</speed>
  <fix>3d</fix>
</trkpt>
<trkpt lat="40.0714379" lon="-105.2296618">
  <ele>1583.12</ele>
  <time>2026-08-28T17:53:19Z</time>
  <course>206.64</course>
  <speed>1.4142135623730951</speed>
  <fix>3d</fix>
</trkpt>
<trkpt lat="40.0714407" lon="-105.2296602">
  <ele>1583.0</ele>
  <time>2026-08-28T17:53:19Z</time>
  <course>193.79</course>
  <speed>1.43</speed>
  <fix>3d</fix>
</trkpt>
<trkpt lat="40.0714367" lon="-105.2296626">
  <ele>1583.12</ele>
  <time>2026-08-28T17:53:19Z</time>
  <course>210.19</course>
  <speed>1.4150971698084904</speed>
  <fix>3d</fix>
</trkpt>
<trkpt lat="40.0714382" lon="-105.2296613">
  <ele>1583.0</ele>
  <time>2026-08-28T17:53:19Z</time>
  <course>204.58</course>
  <speed>1.44</speed>
  <fix>3d</fix>
</trkpt>
<trkpt lat="40.0714357" lon="-105.2296635">
  <ele>1583.13</ele>
  <time>2026-08-28T17:53:19Z</time>
  <course>212.85</course>
  <speed>1.414814475470194</speed>
  <fix>3d</fix>
</trkpt>
<trkpt lat="40.0714382" lon="-105.2296613">
  <ele>1583.0</ele>
  <time>2026-08-28T17:53:19Z</time>
  <course>204.58</course>
  <speed>1.44</speed>
  <fix>3d</fix>
</trkpt>
<trkpt lat="40.0714346" lon="-105.2296645">
  <ele>1583.13</ele>
  <time>2026-08-28T17:53:19Z</time>
  <course>215.1</course>
  <speed>1.4140014144264494</speed>
  <fix>3d</fix>
</trkpt>
<trkpt lat="40.071436" lon="-105.2296628">
  <ele>1583.0</ele>
  <time>2026-08-28T17:53:19Z</time>
  <course>211.47</course>
  <speed>1.44</speed>
  <fix>3d</fix>
</trkpt>
<trkpt lat="40.0714336" lon="-105.2296655">
  <ele>1583.13</ele>
  <time>2026-08-28T17:53:19Z</time>
  <course>216.96</course>
  <speed>1.414955829699288</speed>
  <fix>3d</fix>
</trkpt>
<trkpt lat="40.071436" lon="-105.2296628">
  <ele>1583.0</ele>
  <time>2026-08-28T17:53:19Z</time>
  <course>211.47</course>
  <speed>1.44</speed>
  <fix>3d</fix>
</trkpt>
<trkpt lat="40.0714326" lon="-105.2296665">
  <ele>1583.13</ele>
  <time>2026-08-28T17:53:19Z</time>
  <course>218.5</course>
  <speed>1.4111342955225772</speed>
  <fix>3d</fix>
</trkpt>
<trkpt lat="40.0714338" lon="-105.2296648">
  <ele>1583.0</ele>
  <time>2026-08-28T17:53:19Z</time>
  <course>215.79</course>
  <speed>1.44</speed>
  <fix>3d</fix>
</trkpt>
<trkpt lat="40.0714316" lon="-105.2296675">
  <ele>1583.13</ele>
  <time>2026-08-28T17:53:19Z</time>
  <course>219.79</course>
  <speed>1.4092906016858269</speed>
  <fix>3d</fix>
</trkpt>
<trkpt lat="40.0714338" lon="-105.2296648">
  <ele>1583.0</ele>
  <time>2026-08-28T17:53:19Z</time>
  <course>215.79</course>
  <speed>1.44</speed>
  <fix>3d</fix>
</trkpt>
<trkpt lat="40.0714308" lon="-105.2296684">
  <ele>1583.13</ele>
  <time>2026-08-28T17:53:19Z</time>
  <course>220.66</course>
  <speed>1.4012137595670404</speed>
  <fix>3d</fix>
</trkpt>
<trkpt lat="40.0714318" lon="-105.2296668">
  <ele>1583.0</ele>
  <time>2026-08-28T17:53:19Z</time>
  <course>218.78</course>
  <speed>1.44</speed>
  <fix>3d</fix>
</trkpt>
<trkpt lat="40.0714298" lon="-105.2296695">
  <ele>1583.13</ele>
  <time>2026-08-28T17:53:19Z</time>
  <course>221.58</course>
  <speed>1.4075865870347015</speed>
  <fix>3d</fix>
</trkpt>
<trkpt lat="40.0714318" lon="-105.2296668">
  <ele>1583.0</ele>
  <time>2026-08-28T17:53:19Z</time>
  <course>218.78</course>
  <speed>1.44</speed>
  <fix>3d</fix>
</trkpt>
<trkpt lat="40.0714289" lon="-105.2296706">
  <ele>1583.14</ele>
  <time>2026-08-28T17:53:19Z</time>
  <course>222.33</course>
  <speed>1.4073023839957068</speed>
  <fix>3d</fix>
</trkpt>
<trkpt lat="40.0714298" lon="-105.229669">
  <ele>1583.0</ele>
  <time>2026-08-28T17:53:19Z</time>
  <course>220.83</course>
  <speed>1.44</speed>
  <fix>3d</fix>
</trkpt>
<trkpt lat="40.071428" lon="-105.2296718">
  <ele>1583.14</ele>
  <time>2026-08-28T17:53:19Z</time>
  <course>222.96</course>
  <speed>1.4071602609511116</speed>
  <fix>3d</fix>
</trkpt>
<trkpt lat="40.0714298" lon="-105.229669">
  <ele>1583.0</ele>
  <time>2026-08-28T17:53:19Z</time>
  <course>220.83</course>
  <speed>1.44</speed>
  <fix>3d</fix>
</trkpt>
<trkpt lat="40.071427" lon="-105.2296729">
  <ele>1583.13</ele>
  <time>2026-08-28T17:53:19Z</time>
  <course>223.48</course>
  <speed>1.4071602609511116</speed>
  <fix>3d</fix>
</trkpt>
<trkpt lat="40.0714278" lon="-105.2296712">
  <ele>1583.0</ele>
  <time>2026-08-28T17:53:19Z</time>
  <course>222.25</course>
  <speed>1.44</speed>
  <fix>3d</fix>
</trkpt>
<trkpt lat="40.0714261" lon="-105.2296741">
  <ele>1583.13</ele>
  <time>2026-08-28T17:53:19Z</time>
  <course>223.91</course>
  <speed>1.400142849854971</speed>
  <fix>3d</fix>
</trkpt>
<trkpt lat="40.0714278" lon="-105.2296712">
  <ele>1583.0</ele>
  <time>2026-08-28T17:53:19Z</time>
  <course>222.25</course>
  <speed>1.44</speed>
  <fix>3d</fix>
</trkpt>
<trkpt lat="40.0714251" lon="-105.2296752">
  <ele>1583.13</ele>
  <time>2026-08-28T17:53:19Z</time>
  <course>224.26</course>
  <speed>1.4073023839957068</speed>
  <fix>3d</fix>
</trkpt>
<trkpt lat="40.0714259" lon="-105.2296735">
  <ele>1583.0</ele>
  <time>2026-08-28T17:53:19Z</time>
  <course>223.22</course>
  <speed>1.44</speed>
  <fix>3d</fix>
</trkpt>
<trkpt lat="40.0714242" lon="-105.2296764">
  <ele>1583.12</ele>
  <time>2026-08-28T17:53:19Z</time>
  <course>224.55</course>
  <speed>1.4003570973148243</speed>
  <fix>3d</fix>
</trkpt>
<trkpt lat="40.0714259" lon="-105.2296735">
  <ele>1583.0</ele>
  <time>2026-08-28T17:53:19Z</time>
  <course>223.22</course>
  <speed>1.44</speed>
  <fix>3d</fix>
</trkpt>
<trkpt lat="40.0714233" lon="-105.2296776">
  <ele>1583.12</ele>
  <time>2026-08-28T17:53:19Z</time>
  <course>224.79</course>
  <speed>1.4075865870347015</speed>
  <fix>3d</fix>
</trkpt>
<trkpt lat="40.0714241" lon="-105.2296758">
  <ele>1583.0</ele>
  <time>2026-08-28T17:53:19Z</time>
  <course>223.87</course>
  <speed>1.44</speed>
  <fix>3d</fix>
</trkpt>
<trkpt lat="40.0714223" lon="-105.2296788">
  <ele>1583.12</ele>
  <time>2026-08-28T17:53:19Z</time>
  <course>224.98</course>
  <speed>1.4075865870347015</speed>
  <fix>3d</fix>
</trkpt>
<trkpt lat="40.0714241" lon="-105.2296758">
  <ele>1583.0</ele>
  <time>2026-08-28T17:53:19Z</time>
  <course>223.87</course>
  <speed>1.44</speed>
  <fix>3d</fix>
</trkpt>
<trkpt lat="40.0714212" lon="-105.2296802">
  <ele>1583.12</ele>
  <time>2026-08-28T17:53:19Z</time>
  <course>225.16</course>
  <speed>1.4075865870347015</speed>
  <fix>3d</fix>
</trkpt>
<trkpt lat="40.0714222" lon="-105.2296782">
  <ele>1583.0</ele>
  <time>2026-08-28T17:53:19Z</time>
  <course>224.31</course>
  <speed>1.44</speed>
  <fix>3d</fix>
</trkpt>
<trkpt lat="40.0714203" lon="-105.2296814">
  <ele>1583.12</ele>
  <time>2026-08-28T17:53:19Z</time>
  <course>225.29</course>
  <speed>1.4075865870347015</speed>
  <fix>3d</fix>
</trkpt>
<trkpt lat="40.0714222" lon="-105.2296782">
  <ele>1583.0</ele>
  <time>2026-08-28T17:53:19Z</time>
  <course>224.31</course>
  <speed>1.44</speed>
  <fix>3d</fix>
</trkpt>
<trkpt lat="40.0714194" lon="-105.2296826">
  <ele>1583.12</ele>
  <time>2026-08-28T17:53:19Z</time>
  <course>225.39</course>
  <speed>1.4075865870347015</speed>
  <fix>3d</fix>
</trkpt>
<trkpt lat="40.0714203" lon="-105.2296806">
  <ele>1583.0</ele>
  <time>2026-08-28T17:53:19Z</time>
  <course>224.61</course>
  <speed>1.45</speed>
  <fix>3d</fix>
</trkpt>
<trkpt lat="40.0714184" lon="-105.2296838">
  <ele>1583.12</ele>
  <time>2026-08-28T17:53:19Z</time>
  <course>225.47</course>
  <speed>1.4075865870347015</speed>
  <fix>3d</fix>
</trkpt>
<trkpt lat="40.0714203" lon="-105.2296806">
  <ele>1583.0</ele>
  <time>2026-08-28T17:53:19Z</time>
  <course>224.61</course>
  <speed>1.45</speed>
  <fix>3d</fix>
</trkpt>
<trkpt lat="40.0714175" lon="-105.229685">
  <ele>1583.13</ele>
  <time>2026-08-28T17:53:19Z</time>
  <course>225.53</course>
  <speed>1.4075865870347015</speed>
  <fix>3d</fix>
</trkpt>
<trkpt lat="40.0714184" lon="-105.229683">
  <ele>1583.0</ele>
  <time>2026-08-28T17:53:19Z</time>
  <course>224.8</course>
  <speed>1.45</speed>
  <fix>3d</fix>
</trkpt>
<trkpt lat="40.0714166" lon="-105.2296861">
  <ele>1583.13</ele>
  <time>2026-08-28T17:53:19Z</time>
  <course>225.58</course>
  <speed>1.4075865870347015</speed>
  <fix>3d</fix>
</trkpt>
<trkpt lat="40.0714184" lon="-105.229683">
  <ele>1583.0</ele>
  <time>2026-08-28T17:53:19Z</time>
  <course>224.8</course>
  <speed>1.45</speed>
  <fix>3d</fix>
</trkpt>
<trkpt lat="40.0714157" lon="-105.2296873">
  <ele>1583.13</ele>
  <time>2026-08-28T17:53:19Z</time>
  <course>225.62</course>
  <speed>1.4075865870347015</speed>
  <fix>3d</fix>
</trkpt>
<trkpt lat="40.0714166" lon="-105.2296854">
  <ele>1583.0</ele>
  <time>2026-08-28T17:53:19Z</time>
  <course>224.92</course>
  <speed>1.45</speed>
  <fix>3d</fix>
</trkpt>
<trkpt lat="40.0714148" lon="-105.2296885">
  <ele>1583.13</ele>
  <time>2026-08-28T17:53:19Z</time>
  <course>225.65</course>
  <speed>1.4075865870347015</speed>
  <fix>3d</fix>
</trkpt>
<trkpt lat="40.0714166" lon="-105.2296854">
  <ele>1583.0</ele>
  <time>2026-08-28T17:53:19Z</time>
  <course>224.92</course>
  <speed>1.45</speed>
  <fix>3d</fix>
</trkpt>
<trkpt lat="40.0714139" lon="-105.2296897">
  <ele>1583.13</ele>
  <time>2026-08-28T17:53:19Z</time>
  <course>226.44</course>
  <speed>1.4012137595670404</speed>
  <fix>3d</fix>
</trkpt>
<trkpt lat="40.0714148" lon="-105.2296879">
  <ele>1583.0</ele>
  <time>2026-08-28T17:53:19Z</time>
  <course>225.25</course>
  <speed>1.44</speed>
  <fix>3d</fix>
</trkpt>
<trkpt lat="40.071413" lon="-105.2296909">
  <ele>1583.13</ele>
  <time>2026-08-28T17:53:19Z</time>
  <course>228.4</course>
  <speed>1.3753544997563356</speed>
  <fix>3d</fix>
</trkpt>
<trkpt lat="40.0714148" lon="-105.2296879">
  <ele>1583.0</ele>
  <time>2026-08-28T17:53:19Z</time>
  <course>225.25</course>
  <speed>1.44</speed>
  <fix>3d</fix>
</trkpt>
<trkpt lat="40.0714122" lon="-105.2296921">
  <ele>1583.13</ele>
  <time>2026-08-28T17:53:19Z</time>
  <course>231.47</course>
  <speed>1.3340539719216762</speed>
  <fix>3d</fix>
</trkpt>
<trkpt lat="40.071413" lon="-105.2296903">
  <ele>1583.0</ele>
  <time>2026-08-28T17:53:19Z</time>
  <course>227.81</course>
  <speed>1.41</speed>
  <fix>3d</fix>
</trkpt>
<trkpt lat="40.0714116" lon="-105.2296931">
  <ele>1583.12</ele>
  <time>2026-08-28T17:53:19Z</time>
  <course>234.74</course>
  <speed>1.2952991932368365</speed>
  <fix>3d</fix>
</trkpt>
<trkpt lat="40.071413" lon="-105.2296903">
  <ele>1583.0</ele>
  <time>2026-08-28T17:53:19Z</time>
  <course>227.81</course>
  <speed>1.41</speed>
  <fix>3d</fix>
</trkpt>
<trkpt lat="40.0714109" lon="-105.2296944">
  <ele>1583.12</ele>
  <time>2026-08-28T17:53:19Z</time>
  <course>239.75</course>
  <speed>1.23547561691844</speed>
  <fix>3d</fix>
</trkpt>
<trkpt lat="40.0714114" lon="-105.2296928">
  <ele>1583.0</ele>
  <time>2026-08-28T17:53:19Z</time>
  <course>234.45</course>
  <speed>1.32</speed>
  <fix>3d</fix>
</trkpt>
<trkpt lat="40.0714104" lon="-105.2296956">
  <ele>1583.12</ele>
  <time>2026-08-28T17:53:19Z</time>
  <course>245.8</course>
  <speed>1.1607756027760059</speed>
  <fix>3d</fix>
</trkpt>
<trkpt lat="40.0714114" lon="-105.2296928">
  <ele>1583.0</ele>
  <time>2026-08-28T17:53:19Z</time>
  <course>234.45</course>
  <speed>1.32</speed>
  <fix>3d</fix>
</trkpt>
<trkpt lat="40.0714101" lon="-105.2296969">
  <ele>1583.12</ele>
  <time>2026-08-28T17:53:19Z</time>
  <course>252.7</course>
  <speed>1.0770329614269007</speed>
  <fix>3d</fix>
</trkpt>
<trkpt lat="40.0714103" lon="-105.2296953">
  <ele>1583.0</ele>
  <time>2026-08-28T17:53:19Z</time>
  <course>245.2</course>
  <speed>1.18</speed>
  <fix>3d</fix>
</trkpt>
<trkpt lat="40.0714099" lon="-105.2296981">
  <ele>1583.12</ele>
  <time>2026-08-28T17:53:19Z</time>
  <course>259.52</course>
  <speed>0.9800510190801294</speed>
  <fix>3d</fix>
</trkpt>
<trkpt lat="40.0714103" lon="-105.2296953">
  <ele>1583.0</ele>
  <time>2026-08-28T17:53:19Z</time>
  <course>245.2</course>
  <speed>1.18</speed>
  <fix>3d</fix>
</trkpt>
<trkpt lat="40.0714098" lon="-105.2296992">
  <ele>1583.12</ele>
  <time>2026-08-28T17:53:19Z</time>
  <course>265.69</course>
  <speed>0.8802272433866155</speed>
  <fix>3d</fix>
</trkpt>
<trkpt lat="40.0714097" lon="-105.2296978">
  <ele>1583.0</ele>
  <time>2026-08-28T17:53:19Z</time>
  <course>258.0</course>
  <speed>1.0</speed>
  <fix>3d</fix>
</trkpt>
<trkpt lat="40.0714098" lon="-105.2297002">
  <ele>1583.12</ele>
  <time>2026-08-28T17:53:19Z</time>
  <course>271.18</course>
  <speed>0.771621668954417</speed>
  <fix>3d</fix>
</trkpt>
<trkpt lat="40.0714097" lon="-105.2296978">
  <ele>1583.0</ele>
  <time>2026-08-28T17:53:19Z</time>
  <course>258.0</course>
  <speed>1.0</speed>
  <fix>3d</fix>
</trkpt>
<trkpt lat="40.0714098" lon="-105.229701">
  <ele>1583.12</ele>
  <time>2026-08-28T17:53:19Z</time>
  <course>275.97</course>
  <speed>0.6493843238021688</speed>
  <fix>3d</fix>
</trkpt>
<trkpt lat="40.0714095" lon="-105.2296999">
  <ele>1583.0</ele>
  <time>2026-08-28T17:53:19Z</time>
  <course>269.51</course>
  <speed>0.79</speed>
  <fix>3d</fix>
</trkpt>
<trkpt lat="40.0714099" lon="-105.2297017">
  <ele>1583.12</ele>
  <time>2026-08-28T17:53:19Z</time>
  <course>279.95</course>
  <speed>0.5263078946776306</speed>
  <fix>3d</fix>
</trkpt>
<trkpt lat="40.0714095" lon="-105.2296999">
  <ele>1583.0</ele>
  <time>2026-08-28T17:53:19Z</time>
  <course>269.51</course>
  <speed>0.79</speed>
  <fix>3d</fix>
</trkpt>
<trkpt lat="40.07141" lon="-105.2297022">
  <ele>1583.12</ele>
  <time>2026-08-28T17:53:19Z</time>
  <course>283.13</course>
  <speed>0.4016217125604641</speed>
  <fix>3d</fix>
</trkpt>
<trkpt lat="40.0714095" lon="-105.2297015">
  <ele>1583.0</ele>
  <time>2026-08-28T17:53:19Z</time>
  <course>278.14</course>
  <speed>0.55</speed>
  <fix>3d</fix>
</trkpt>
<trkpt lat="40.0714101" lon="-105.2297026">
  <ele>1583.12</ele>
  <time>2026-08-28T17:53:19Z</time>
  <course>285.88</course>
  <speed>0.24596747752497689</speed>
  <fix>3d</fix>
</trkpt>
<trkpt lat="40.0714095" lon="-105.2297015">
  <ele>1583.0</ele>
  <time>2026-08-28T17:53:19Z</time>
  <course>278.14</course>
  <speed>0.55</speed>
  <fix>3d</fix>
</trkpt>
<trkpt lat="40.0714102" lon="-105.2297028">
  <ele>1583.12</ele>
  <time>2026-08-28T17:53:19Z</time>
  <course>287.26</course>
  <speed>0.12206555615733702</speed>
  <fix>3d</fix>
</trkpt>
<trkpt lat="40.0714096" lon="-105.2297025">
  <ele>1583.0</ele>
  <time>2026-08-28T17:53:19Z</time>
  <course>283.64</course>
  <speed>0.3</speed>
  <fix>3d</fix>
</trkpt>
<trkpt lat="40.0714102" lon="-105.2297029">
  <ele>1583.11</ele>
  <time>2026-08-28T17:53:19Z</time>
  <course>287.96</course>
  <speed>0.053851648071345036</speed>
  <fix>3d</fix>
</trkpt>
<trkpt lat="40.0714096" lon="-105.2297025">
  <ele>1583.0</ele>
  <time>2026-08-28T17:53:19Z</time>
  <course>283.64</course>
  <speed>0.3</speed>
  <fix>3d</fix>
</trkpt>
<trkpt lat="40.0714101" lon="-105.2297029">
  <ele>1583.11</ele>
  <time>2026-08-28T17:53:19Z</time>
  <course>288.44</course>
  <speed>0.053851648071345036</speed>
  <fix>3d</fix>
</trkpt>
<trkpt lat="40.0714097" lon="-105.229703">
  <ele>1583.0</ele>
  <time>2026-08-28T17:53:19Z</time>
  <course>286.79</course>
  <speed>0.12</speed>
  <fix>3d</fix>
</trkpt>
<trkpt lat="40.0714101" lon="-105.229703">
  <ele>1583.11</ele>
  <time>2026-08-28T17:53:19Z</time>
  <course>288.9</course>
  <speed>0.0412310562561766</speed>
  <fix>3d</fix>
</trkpt>
<trkpt lat="40.0714097" lon="-105.229703">
  <ele>1583.0</ele>
  <time>2026-08-28T17:53:19Z</time>
  <course>286.79</course>
  <speed>0.12</speed>
  <fix>3d</fix>
</trkpt>
<trkpt lat="40.0714101" lon="-105.229703">
  <ele>1583.11</ele>
  <time>2026-08-28T17:53:19Z</time>
  <course>289.33</course>
  <speed>0.0412310562561766</speed>
  <fix>3d</fix>
</trkpt>
<trkpt lat="40.0714098" lon="-105.2297031">
  <ele>1583.0</ele>
  <time>2026-08-28T17:53:19Z</time>
  <course>288.13</course>
  <speed>0.07</speed>
  <fix>3d</fix>
</trkpt>
<trkpt lat="40.0714101" lon="-105.229703">
  <ele>1583.12</ele>
  <time>2026-08-28T17:53:19Z</time>
  <course>289.74</course>
  <speed>0.04</speed>
  <fix>3d</fix>
</trkpt>
<trkpt lat="40.0714098" lon="-105.2297031">
  <ele>1583.0</ele>
  <time>2026-08-28T17:53:19Z</time>
  <course>288.13</course>
  <speed>0.07</speed>
  <fix>3d</fix>
</trkpt>
<trkpt lat="40.0714101" lon="-105.2297031">
  <ele>1583.11</ele>
  <time>2026-08-28T17:53:19Z</time>
  <course>290.14</course>
  <speed>0.04</speed>
  <fix>3d</fix>
</trkpt>
<trkpt lat="40.0714098" lon="-105.2297032">
  <ele>1583.0</ele>
  <time>2026-08-28T17:53:19Z</time>
  <course>288.98</course>
  <speed>0.06</speed>
  <fix>3d</fix>
</trkpt>
<trkpt lat="40.0714101" lon="-105.2297031">
  <ele>1583.11</ele>
  <time>2026-08-28T17:53:19Z</time>
  <course>290.51</course>
  <speed>0.03</speed>
  <fix>3d</fix>
</trkpt>
<trkpt lat="40.0714098" lon="-105.2297032">
  <ele>1583.0</ele>
  <time>2026-08-28T17:53:19Z</time>
  <course>288.98</course>
  <speed>0.06</speed>
  <fix>3d</fix>
</trkpt>
<trkpt lat="40.0714101" lon="-105.2297031">
  <ele>1583.11</ele>
  <time>2026-08-28T17:53:19Z</time>
  <course>290.86</course>
  <speed>0.03</speed>
  <fix>3d</fix>
</trkpt>
<trkpt lat="40.0714098" lon="-105.2297034">
  <ele>1583.0</ele>
  <time>2026-08-28T17:53:19Z</time>
  <course>289.75</course>
  <speed>0.05</speed>
  <fix>3d</fix>
</trkpt>
<trkpt lat="40.0714101" lon="-105.2297031">
  <ele>1583.12</ele>
  <time>2026-08-28T17:53:19Z</time>
  <course>291.2</course>
  <speed>0.03</speed>
  <fix>3d</fix>
</trkpt>
<trkpt lat="40.0714098" lon="-105.2297034">
  <ele>1583.0</ele>
  <time>2026-08-28T17:53:19Z</time>
  <course>289.75</course>
  <speed>0.05</speed>
  <fix>3d</fix>
</trkpt>
<trkpt lat="40.0714101" lon="-105.2297032">
  <ele>1583.12</ele>
  <time>2026-08-28T17:53:19Z</time>
  <course>291.46</course>
  <speed>0.03</speed>
  <fix>3d</fix>
</trkpt>
<trkpt lat="40.0714099" lon="-105.2297035">
  <ele>1583.0</ele>
  <time>2026-08-28T17:53:19Z</time>
  <course>290.45</course>
  <speed>0.05</speed>
  <fix>3d</fix>
</trkpt>
<trkpt lat="40.0714101" lon="-105.2297032">
  <ele>1583.12</ele>
  <time>2026-08-28T17:53:19Z</time>
  <course>291.77</course>
  <speed>0.03</speed>
  <fix>3d</fix>
</trkpt>
<trkpt lat="40.0714099" lon="-105.2297035">
  <ele>1583.0</ele>
  <time>2026-08-28T17:53:19Z</time>
  <course>290.45</course>
  <speed>0.05</speed>
  <fix>3d</fix>
</trkpt>
<trkpt lat="40.0714101" lon="-105.2297032">
  <ele>1583.12</ele>
  <time>2026-08-28T17:53:19Z</time>
  <course>292.06</course>
  <speed>0.03</speed>
  <fix>3d</fix>
</trkpt>
<trkpt lat="40.0714099" lon="-105.2297036">
  <ele>1583.0</ele>
  <time>2026-08-28T17:53:19Z</time>
  <course>291.08</course>
  <speed>0.04</speed>
  <fix>3d</fix>
</trkpt>
<trkpt lat="40.0714101" lon="-105.2297034">
  <ele>1583.12</ele>
  <time>2026-08-28T17:53:19Z</time>
  <course>292.34</course>
  <speed>0.022360679774997897</speed>
  <fix>3d</fix>
</trkpt>
<trkpt lat="40.0714099" lon="-105.2297036">
  <ele>1583.0</ele>
  <time>2026-08-28T17:53:19Z</time>
  <course>291.08</course>
  <speed>0.04</speed>
  <fix>3d</fix>
</trkpt>
<trkpt lat="40.0714101" lon="-105.2297034">
  <ele>1583.12</ele>
  <time>2026-08-28T17:53:19Z</time>
  <course>292.51</course>
  <speed>0.022360679774997897</speed>
  <fix>3d</fix>
</trkpt>
<trkpt lat="40.0714099" lon="-105.2297037">
  <ele>1583.0</ele>
  <time>2026-08-28T17:53:19Z</time>
  <course>291.6</course>
  <speed>0.04</speed>
  <fix>3d</fix>
</trkpt>
<trkpt lat="40.0714101" lon="-105.2297034">
  <ele>1583.12</ele>
  <time>2026-08-28T17:53:19Z</time>
  <course>292.26</course>
  <speed>0.022360679774997897</speed>
  <fix>3d</fix>
</trkpt>
<trkpt lat="40.0714099" lon="-105.2297037">
  <ele>1583.0</ele>
  <time>2026-08-28T17:53:19Z</time>
  <course>291.6</course>
  <speed>0.04</speed>
  <fix>3d</fix>
</trkpt>
<trkpt lat="40.0714101" lon="-105.2297034">
  <ele>1583.12</ele>
  <time>2026-08-28T17:53:19Z</time>
  <course>292.02</course>
  <speed>0.022360679774997897</speed>
  <fix>3d</fix>
</trkpt>
<trkpt lat="40.07141" lon="-105.2297038">
  <ele>1583.0</ele>
  <time>2026-08-28T17:53:19Z</time>
  <course>291.6</course>
  <speed>0.03</speed>
  <fix>3d</fix>
</trkpt>
<trkpt lat="40.0714101" lon="-105.2297034">
  <ele>1583.12</ele>
  <time>2026-08-28T17:53:19Z</time>
  <course>291.8</course>
  <speed>0.022360679774997897</speed>
  <fix>3d</fix>
</trkpt>
<trkpt lat="40.07141" lon="-105.2297038">
  <ele>1583.0</ele>
  <time>2026-08-28T17:53:19Z</time>
  <course>291.6</course>
  <speed>0.03</speed>
  <fix>3d</fix>
</trkpt>
<trkpt lat="40.0714101" lon="-105.2297034">
  <ele>1583.12</ele>
  <time>2026-08-28T17:53:19Z</time>
  <course>291.58</course>
  <speed>0.022360679774997897</speed>
  <fix>3d</fix>
</trkpt>
<trkpt lat="40.07141" lon="-105.2297039">
  <ele>1583.0</ele>
  <time>2026-08-28T17:53:19Z</time>
  <course>291.14</course>
  <speed>0.03</speed>
  <fix>3d</fix>
</trkpt>
<trkpt lat="40.0714101" lon="-105.2297035">
  <ele>1583.12</ele>
  <time>2026-08-28T17:53:19Z</time>
  <course>291.38</course>
  <speed>0.022360679774997897</speed>
  <fix>3d</fix>
</trkpt>
<trkpt lat="40.07141" lon="-105.2297039">
  <ele>1583.0</ele>
  <time>2026-08-28T17:53:19Z</time>
  <course>291.14</course>
  <speed>0.03</speed>
  <fix>3d</fix>
</trkpt>
<trkpt lat="40.0714101" lon="-105.2297035">
  <ele>1583.11</ele>
  <time>2026-08-28T17:53:19Z</time>
  <course>291.15</course>
  <speed>0.022360679774997897</speed>
  <fix>3d</fix>
</trkpt>
<trkpt lat="40.07141" lon="-105.229704">
  <ele>1583.0</ele>
  <time>2026-08-28T17:53:19Z</time>
  <course>290.71</course>
  <speed>0.03</speed>
  <fix>3d</fix>
</trkpt>
<trkpt lat="40.0714101" lon="-105.2297035">
  <ele>1583.11</ele>
  <time>2026-08-28T17:53:19Z</time>
  <course>290.97</course>
  <speed>0.022360679774997897</speed>
  <fix>3d</fix>
</trkpt>
<trkpt lat="40.07141" lon="-105.229704">
  <ele>1583.0</ele>
  <time>2026-08-28T17:53:19Z</time>
  <course>290.71</course>
  <speed>0.03</speed>
  <fix>3d</fix>
</trkpt>
<trkpt lat="40.0714101" lon="-105.2297036">
  <ele>1583.11</ele>
  <time>2026-08-28T17:53:19Z</time>
  <course>290.8</course>
  <speed>0.022360679774997897</speed>
  <fix>3d</fix>
</trkpt>
<trkpt lat="40.07141" lon="-105.229704">
  <ele>1583.0</ele>
  <time>2026-08-28T17:53:19Z</time>
  <course>290.33</course>
  <speed>0.02</speed>
  <fix>3d</fix>
</trkpt>
<trkpt lat="40.0714101" lon="-105.2297037">
  <ele>1583.11</ele>
  <time>2026-08-28T17:53:19Z</time>
  <course>290.63</course>
  <speed>0.022360679774997897</speed>
  <fix>3d</fix>
</trkpt>
<trkpt lat="40.07141" lon="-105.229704">
  <ele>1583.0</ele>
  <time>2026-08-28T17:53:19Z</time>
  <course>290.33</course>
  <speed>0.02</speed>
  <fix>3d</fix>
</trkpt>
<trkpt lat="40.0714101" lon="-105.2297037">
  <ele>1583.1</ele>
  <time>2026-08-28T17:53:19Z</time>
  <course>290.48</course>
  <speed>0.022360679774997897</speed>
  <fix>3d</fix>
</trkpt>
<trkpt lat="40.07141" lon="-105.2297041">
  <ele>1583.0</ele>
  <time>2026-08-28T17:53:19Z</time>
  <course>289.99</course>
  <speed>0.02</speed>
  <fix>3d</fix>
</trkpt>
<trkpt lat="40.0714101" lon="-105.2297037">
  <ele>1583.1</ele>
  <time>2026-08-28T17:53:19Z</time>
  <course>290.33</course>
  <speed>0.022360679774997897</speed>
  <fix>3d</fix>
</trkpt>
<trkpt lat="40.07141" lon="-105.2297041">
  <ele>1583.0</ele>
  <time>2026-08-28T17:53:19Z</time>
  <course>289.99</course>
  <speed>0.02</speed>
  <fix>3d</fix>
</trkpt>
<trkpt lat="40.0714101" lon="-105.2297037">
  <ele>1583.1</ele>
  <time>2026-08-28T17:53:19Z</time>
  <course>290.19</course>
  <speed>0.022360679774997897</speed>
  <fix>3d</fix>
</trkpt>
<trkpt lat="40.0714101" lon="-105.2297042">
  <ele>1583.0</ele>
  <time>2026-08-28T17:53:19Z</time>
  <course>289.68</course>
  <speed>0.02</speed>
  <fix>3d</fix>
</trkpt>
<trkpt lat="40.0714101" lon="-105.2297037">
  <ele>1583.1</ele>
  <time>2026-08-28T17:53:19Z</time>
  <course>290.05</course>
  <speed>0.022360679774997897</speed>
  <fix>3d</fix>
</trkpt>
<trkpt lat="40.0714101" lon="-105.2297042">
  <ele>1583.0</ele>
  <time>2026-08-28T17:53:19Z</time>
  <course>289.68</course>
  <speed>0.02</speed>
  <fix>3d</fix>
</trkpt>
<trkpt lat="40.0714102" lon="-105.2297037">
  <ele>1583.1</ele>
  <time>2026-08-28T17:53:19Z</time>
  <course>289.93</course>
  <speed>0.022360679774997897</speed>
  <fix>3d</fix>
</trkpt>
<trkpt lat="40.0714101" lon="-105.2297042">
  <ele>1583.0</ele>
  <time>2026-08-28T17:53:19Z</time>
  <course>289.4</course>
  <speed>0.02</speed>
  <fix>3d</fix>
</trkpt>
<trkpt lat="40.0714102" lon="-105.2297038">
  <ele>1583.1</ele>
  <time>2026-08-28T17:53:19Z</time>
  <course>289.8</course>
  <speed>0.022360679774997897</speed>
  <fix>3d</fix>
</trkpt>
<trkpt lat="40.0714101" lon="-105.2297042">
  <ele>1583.0</ele>
  <time>2026-08-28T17:53:19Z</time>
  <course>289.4</course>
  <speed>0.02</speed>
  <fix>3d</fix>
</trkpt>
<trkpt lat="40.0714102" lon="-105.2297038">
  <ele>1583.09</ele>
  <time>2026-08-28T17:53:19Z</time>
  <course>289.69</course>
  <speed>0.022360679774997897</speed>
  <fix>3d</fix>
</trkpt>
<trkpt lat="40.0714101" lon="-105.2297043">
  <ele>1583.0</ele>
  <time>2026-08-28T17:53:19Z</time>
  <course>289.15</course>
  <speed>0.01</speed>
  <fix>3d</fix>
</trkpt>
<trkpt lat="40.0714102" lon="-105.2297038">
  <ele>1583.09</ele>
  <time>2026-08-28T17:53:19Z</time>
  <course>289.6</course>
  <speed>0.022360679774997897</speed>
  <fix>3d</fix>
</trkpt>
<trkpt lat="40.0714101" lon="-105.2297043">
  <ele>1583.0</ele>
  <time>2026-08-28T17:53:19Z</time>
  <course>289.15</course>
  <speed>0.01</speed>
  <fix>3d</fix>
</trkpt>
<trkpt lat="40.0714102" lon="-105.2297038">
  <ele>1583.09</ele>
  <time>2026-08-28T17:53:19Z</time>
  <course>289.49</course>
  <speed>0.022360679774997897</speed>
  <fix>3d</fix>
</trkpt>
<trkpt lat="40.0714101" lon="-105.2297043">
  <ele>1583.0</ele>
  <time>2026-08-28T17:53:19Z</time>
  <course>288.92</course>
  <speed>0.01</speed>
  <fix>3d</fix>
</trkpt>
<trkpt lat="40.0714102" lon="-105.229704">
  <ele>1583.09</ele>
  <time>2026-08-28T17:53:19Z</time>
  <course>289.39</course>
  <speed>0.022360679774997897</speed>
  <fix>3d</fix>
</trkpt>
<trkpt lat="40.0714101" lon="-105.2297043">
  <ele>1583.0</ele>
  <time>2026-08-28T17:53:19Z</time>
  <course>288.92</course>
  <speed>0.01</speed>
  <fix>3d</fix>
</trkpt>
<trkpt lat="40.0714102" lon="-105.229704">
  <ele>1583.09</ele>
  <time>2026-08-28T17:53:19Z</time>
  <course>289.3</course>
  <speed>0.022360679774997897</speed>
  <fix>3d</fix>
</trkpt>
<trkpt lat="40.0714101" lon="-105.2297043">
  <ele>1583.0</ele>
  <time>2026-08-28T17:53:19Z</time>
  <course>288.71</course>
  <speed>0.01</speed>
  <fix>3d</fix>
</trkpt>
<trkpt lat="40.0714102" lon="-105.229704">
  <ele>1583.08</ele>
  <time>2026-08-28T17:53:19Z</time>
  <course>289.21</course>
  <speed>0.022360679774997897</speed>
  <fix>3d</fix>
</trkpt>
<trkpt lat="40.0714101" lon="-105.2297043">
  <ele>1583.0</ele>
  <time>2026-08-28T17:53:19Z</time>
  <course>288.71</course>
  <speed>0.01</speed>
  <fix>3d</fix>
</trkpt>
<trkpt lat="40.0714102" lon="-105.229704">
  <ele>1583.08</ele>
  <time>2026-08-28T17:53:19Z</time>
  <course>289.12</course>
  <speed>0.0316227766016838</speed>
  <fix>3d</fix>
</trkpt>
<trkpt lat="40.0714101" lon="-105.2297043">
  <ele>1583.0</ele>
  <time>2026-08-28T17:53:19Z</time>
  <course>288.53</course>
  <speed>0.01</speed>
  <fix>3d</fix>
</trkpt>
<trkpt lat="40.0714102" lon="-105.229704">
  <ele>1583.08</ele>
  <time>2026-08-28T17:53:19Z</time>
  <course>289.04</course>
  <speed>0.0316227766016838</speed>
  <fix>3d</fix>
</trkpt>
<trkpt lat="40.0714101" lon="-105.2297043">
  <ele>1583.0</ele>
  <time>2026-08-28T17:53:19Z</time>
  <course>288.53</course>
  <speed>0.01</speed>
  <fix>3d</fix>
</trkpt>
<trkpt lat="40.0714102" lon="-105.229704">
  <ele>1583.08</ele>
  <time>2026-08-28T17:53:19Z</time>
  <course>288.96</course>
  <speed>0.0316227766016838</speed>
  <fix>3d</fix>
</trkpt>
<trkpt lat="40.0714101" lon="-105.2297043">
  <ele>1583.0</ele>
  <time>2026-08-28T17:53:19Z</time>
  <course>288.36</course>
  <speed>0.01</speed>
  <fix>3d</fix>
</trkpt>
<trkpt lat="40.0714103" lon="-105.229704">
  <ele>1583.08</ele>
  <time>2026-08-28T17:53:19Z</time>
  <course>288.89</course>
  <speed>0.0316227766016838</speed>
  <fix>3d</fix>
</trkpt>
<trkpt lat="40.0714101" lon="-105.2297043">
  <ele>1583.0</ele>
  <time>2026-08-28T17:53:19Z</time>
  <course>288.36</course>
  <speed>0.01</speed>
  <fix>3d</fix>
</trkpt>
<trkpt lat="40.0714103" lon="-105.229704">
  <ele>1583.08</ele>
  <time>2026-08-28T17:53:19Z</time>
  <course>288.82</course>
  <speed>0.0316227766016838</speed>
  <fix>3d</fix>
</trkpt>
<trkpt lat="40.0714101" lon="-105.2297044">
  <ele>1583.0</ele>
  <time>2026-08-28T17:53:19Z</time>
  <course>288.21</course>
  <speed>0.01</speed>
  <fix>3d</fix>
</trkpt>
<trkpt lat="40.0714103" lon="-105.2297041">
  <ele>1583.07</ele>
  <time>2026-08-28T17:53:19Z</time>
  <course>288.74</course>
  <speed>0.0316227766016838</speed>
  <fix>3d</fix>
</trkpt>
<trkpt lat="40.0714101" lon="-105.2297044">
  <ele>1583.0</ele>
  <time>2026-08-28T17:53:19Z</time>
  <course>288.21</course>
  <speed>0.01</speed>
  <fix>3d</fix>
</trkpt>
<trkpt lat="40.0714103" lon="-105.2297041">
  <ele>1583.07</ele>
  <time>2026-08-28T17:53:19Z</time>
  <course>288.67</course>
  <speed>0.0316227766016838</speed>
  <fix>3d</fix>
</trkpt>
<trkpt lat="40.0714101" lon="-105.2297045">
  <ele>1583.0</ele>
  <time>2026-08-28T17:53:19Z</time>
  <course>288.07</course>
  <speed>0.01</speed>
  <fix>3d</fix>
</trkpt>
<trkpt lat="40.0714103" lon="-105.2297041">
  <ele>1583.08</ele>
  <time>2026-08-28T17:53:19Z</time>
  <course>288.61</course>
  <speed>0.0316227766016838</speed>
  <fix>3d</fix>
</trkpt>
<trkpt lat="40.0714101" lon="-105.2297045">
  <ele>1583.0</ele>
  <time>2026-08-28T17:53:19Z</time>
  <course>288.07</course>
  <speed>0.01</speed>
  <fix>3d</fix>
</trkpt>
<trkpt lat="40.0714103" lon="-105.2297041">
  <ele>1583.08</ele>
  <time>2026-08-28T17:53:19Z</time>
  <course>288.66</course>
  <speed>0.04</speed>
  <fix>3d</fix>
</trkpt>
<trkpt lat="40.0714101" lon="-105.2297045">
  <ele>1583.0</ele>
  <time>2026-08-28T17:53:19Z</time>
  <course>287.97</course>
  <speed>0.01</speed>
  <fix>3d</fix>
</trkpt>
<trkpt lat="40.0714103" lon="-105.2297042">
  <ele>1583.08</ele>
  <time>2026-08-28T17:53:19Z</time>
  <course>288.83</course>
  <speed>0.05099019513592785</speed>
  <fix>3d</fix>
</trkpt>
<trkpt lat="40.0714101" lon="-105.2297045">
  <ele>1583.0</ele>
  <time>2026-08-28T17:53:19Z</time>
  <course>287.97</course>
  <speed>0.01</speed>
  <fix>3d</fix>
</trkpt>
<trkpt lat="40.0714103" lon="-105.2297042">
  <ele>1583.08</ele>
  <time>2026-08-28T17:53:19Z</time>
  <course>289.19</course>
  <speed>0.07810249675906654</speed>
  <fix>3d</fix>
</trkpt>
<trkpt lat="40.0714101" lon="-105.2297045">
  <ele>1583.0</ele>
  <time>2026-08-28T17:53:19Z</time>
  <course>288.3</course>
  <speed>0.04</speed>
  <fix>3d</fix>
</trkpt>
<trkpt lat="40.0714104" lon="-105.2297044">
  <ele>1583.09</ele>
  <time>2026-08-28T17:53:19Z</time>
  <course>289.83</course>
  <speed>0.12806248474865697</speed>
  <fix>3d</fix>
</trkpt>
<trkpt lat="40.0714101" lon="-105.2297045">
  <ele>1583.0</ele>
  <time>2026-08-28T17:53:19Z</time>
  <course>288.3</course>
  <speed>0.04</speed>
  <fix>3d</fix>
</trkpt>
<trkpt lat="40.0714104" lon="-105.2297045">
  <ele>1583.09</ele>
  <time>2026-08-28T17:53:19Z</time>
  <course>290.85</course>
  <speed>0.194164878389476</speed>
  <fix>3d</fix>
</trkpt>
<trkpt lat="40.0714101" lon="-105.2297047">
  <ele>1583.0</ele>
  <time>2026-08-28T17:53:19Z</time>
  <course>289.48</course>
  <speed>0.12</speed>
  <fix>3d</fix>
</trkpt>
<trkpt lat="40.0714105" lon="-105.2297048">
  <ele>1583.09</ele>
  <time>2026-08-28T17:53:19Z</time>
  <course>292.32</course>
  <speed>0.2692582403567252</speed>
  <fix>3d</fix>
</trkpt>
<trkpt lat="40.0714101" lon="-105.2297047">
  <ele>1583.0</ele>
  <time>2026-08-28T17:53:19Z</time>
  <course>289.48</course>
  <speed>0.12</speed>
  <fix>3d</fix>
</trkpt>
<trkpt lat="40.0714106" lon="-105.2297052">
  <ele>1583.1</ele>
  <time>2026-08-28T17:53:19Z</time>
  <course>294.32</course>
  <speed>0.36359317925395684</speed>
  <fix>3d</fix>
</trkpt>
<trkpt lat="40.0714102" lon="-105.2297051">
  <ele>1583.0</ele>
  <time>2026-08-28T17:53:19Z</time>
  <course>292.03</course>
  <speed>0.26</speed>
  <fix>3d</fix>
</trkpt>
<trkpt lat="40.0714108" lon="-105.2297056">
  <ele>1583.1</ele>
  <time>2026-08-28T17:53:19Z</time>
  <course>296.92</course>
  <speed>0.4632493928760188</speed>
  <fix>3d</fix>
</trkpt>
<trkpt lat="40.0714102" lon="-105.2297051">
  <ele>1583.0</ele>
  <time>2026-08-28T17:53:19Z</time>
  <course>292.03</course>
  <speed>0.26</speed>
  <fix>3d</fix>
</trkpt>
<trkpt lat="40.071411" lon="-105.2297061">
  <ele>1583.1</ele>
  <time>2026-08-28T17:53:19Z</time>
  <course>299.45</course>
  <speed>0.54644304369257</speed>
  <fix>3d</fix>
</trkpt>
<trkpt lat="40.0714105" lon="-105.2297058">
  <ele>1583.0</ele>
  <time>2026-08-28T17:53:19Z</time>
  <course>296.57</course>
  <speed>0.43</speed>
  <fix>3d</fix>
</trkpt>
<trkpt lat="40.0714113" lon="-105.2297067">
  <ele>1583.1</ele>
  <time>2026-08-28T17:53:19Z</time>
  <course>303.22</course>
  <speed>0.6640030120413611</speed>
  <fix>3d</fix>
</trkpt>
<trkpt lat="40.0714105" lon="-105.2297058">
  <ele>1583.0</ele>
  <time>2026-08-28T17:53:19Z</time>
  <course>296.57</course>
  <speed>0.43</speed>
  <fix>3d</fix>
</trkpt>
<trkpt lat="40.0714117" lon="-105.2297074">
  <ele>1583.1</ele>
  <time>2026-08-28T17:53:19Z</time>
  <course>307.7</course>
  <speed>0.772334124585985</speed>
  <fix>3d</fix>
</trkpt>
<trkpt lat="40.071411" lon="-105.2297069">
  <ele>1583.0</ele>
  <time>2026-08-28T17:53:19Z</time>
  <course>303.56</course>
  <speed>0.64</speed>
  <fix>3d</fix>
</trkpt>
<trkpt lat="40.0714121" lon="-105.2297082">
  <ele>1583.1</ele>
  <time>2026-08-28T17:53:19Z</time>
  <course>312.8</course>
  <speed>0.87692645073575</speed>
  <fix>3d</fix>
</trkpt>
<trkpt lat="40.071411" lon="-105.2297069">
  <ele>1583.0</ele>
  <time>2026-08-28T17:53:19Z</time>
  <course>303.56</course>
  <speed>0.64</speed>
  <fix>3d</fix>
</trkpt>
<trkpt lat="40.0714127" lon="-105.2297089">
  <ele>1583.1</ele>
  <time>2026-08-28T17:53:19Z</time>
  <course>318.53</course>
  <speed>0.9667471230885561</speed>
  <fix>3d</fix>
</trkpt>
<trkpt lat="40.0714119" lon="-105.2297083">
  <ele>1583.0</ele>
  <time>2026-08-28T17:53:19Z</time>
  <course>313.03</course>
  <speed>0.84</speed>
  <fix>3d</fix>
</trkpt>
<trkpt lat="40.0714135" lon="-105.2297097">
  <ele>1583.1</ele>
  <time>2026-08-28T17:53:19Z</time>
  <course>324.77</course>
  <speed>1.0484750831564857</speed>
  <fix>3d</fix>
</trkpt>
<trkpt lat="40.0714119" lon="-105.2297083">
  <ele>1583.0</ele>
  <time>2026-08-28T17:53:19Z</time>
  <course>313.03</course>
  <speed>0.84</speed>
  <fix>3d</fix>
</trkpt>
<trkpt lat="40.0714143" lon="-105.2297103">
  <ele>1583.1</ele>
  <time>2026-08-28T17:53:19Z</time>
  <course>331.45</course>
  <speed>1.118033988749895</speed>
  <fix>3d</fix>
</trkpt>
<trkpt lat="40.0714131" lon="-105.2297098">
  <ele>1583.0</ele>
  <time>2026-08-28T17:53:19Z</time>
  <course>324.79</course>
  <speed>1.0</speed>
  <fix>3d</fix>
</trkpt>
<trkpt lat="40.0714152" lon="-105.2297109">
  <ele>1583.1</ele>
  <time>2026-08-28T17:53:19Z</time>
  <course>338.56</course>
  <speed>1.1704699910719625</speed>
  <fix>3d</fix>
</trkpt>
<trkpt lat="40.0714131" lon="-105.2297098">
  <ele>1583.0</ele>
  <time>2026-08-28T17:53:19Z</time>
  <course>324.79</course>
  <speed>1.0</speed>
  <fix>3d</fix>
</trkpt>
<trkpt lat="40.0714163" lon="-105.2297113">
  <ele>1583.1</ele>
  <time>2026-08-28T17:53:19Z</time>
  <course>345.89</course>
  <speed>1.210495766204905</speed>
  <fix>3d</fix>
</trkpt>
<trkpt lat="40.0714148" lon="-105.229711">
  <ele>1583.0</ele>
  <time>2026-08-28T17:53:19Z</time>
  <course>338.31</course>
  <speed>1.11</speed>
  <fix>3d</fix>
</trkpt>
<trkpt lat="40.0714176" lon="-105.2297116">
  <ele>1583.1</ele>
  <time>2026-08-28T17:53:19Z</time>
  <course>354.99</course>
  <speed>1.2532358118087752</speed>
  <fix>3d</fix>
</trkpt>
<trkpt lat="40.0714148" lon="-105.229711">
  <ele>1583.0</ele>
  <time>2026-08-28T17:53:19Z</time>
  <course>338.31</course>
  <speed>1.11</speed>
  <fix>3d</fix>
</trkpt>
<trkpt lat="40.0714187" lon="-105.2297116">
  <ele>1583.09</ele>
  <time>2026-08-28T17:53:19Z</time>
  <course>2.73</course>
  <speed>1.271416532848303</speed>
  <fix>3d</fix>
</trkpt>
<trkpt lat="40.0714168" lon="-105.2297116">
  <ele>1583.0</ele>
  <time>2026-08-28T17:53:19Z</time>
  <course>353.02</course>
  <speed>1.18</speed>
  <fix>3d</fix>
</trkpt>
<trkpt lat="40.0714198" lon="-105.2297115">
  <ele>1583.1</ele>
  <time>2026-08-28T17:53:19Z</time>
  <course>10.57</course>
  <speed>1.2808200498118385</speed>
  <fix>3d</fix>
</trkpt>
<trkpt lat="40.0714168" lon="-105.2297116">
  <ele>1583.0</ele>
  <time>2026-08-28T17:53:19Z</time>
  <course>353.02</course>
  <speed>1.18</speed>
  <fix>3d</fix>
</trkpt>
<trkpt lat="40.0714209" lon="-105.2297112">
  <ele>1583.1</ele>
  <time>2026-08-28T17:53:19Z</time>
  <course>18.47</course>
  <speed>1.274401820463232</speed>
  <fix>3d</fix>
</trkpt>
<trkpt lat="40.071419" lon="-105.2297116">
  <ele>1583.0</ele>
  <time>2026-08-28T17:53:19Z</time>
  <course>8.43</course>
  <speed>1.22</speed>
  <fix>3d</fix>
</trkpt>
<trkpt lat="40.0714219" lon="-105.2297106">
  <ele>1583.1</ele>
  <time>2026-08-28T17:53:19Z</time>
  <course>26.39</course>
  <speed>1.2701181047445942</speed>
  <fix>3d</fix>
</trkpt>
<trkpt lat="40.071419" lon="-105.2297116">
  <ele>1583.0</ele>
  <time>2026-08-28T17:53:19Z</time>
  <course>8.43</course>
  <speed>1.22</speed>
  <fix>3d</fix>
</trkpt>
<trkpt lat="40.0714229" lon="-105.2297098">
  <ele>1583.1</ele>
  <time>2026-08-28T17:53:19Z</time>
  <course>34.28</course>
  <speed>1.2619429464123961</speed>
  <fix>3d</fix>
</trkpt>
<trkpt lat="40.0714211" lon="-105.2297108">
  <ele>1583.0</ele>
  <time>2026-08-28T17:53:19Z</time>
  <course>24.16</course>
  <speed>1.22</speed>
  <fix>3d</fix>
</trkpt>
<trkpt lat="40.0714237" lon="-105.2297089">
  <ele>1583.1</ele>
  <time>2026-08-28T17:53:19Z</time>
  <course>42.13</course>
  <speed>1.2398790263570072</speed>
  <fix>3d</fix>
</trkpt>
<trkpt lat="40.0714211" lon="-105.2297108">
  <ele>1583.0</ele>
  <time>2026-08-28T17:53:19Z</time>
  <course>24.16</course>
  <speed>1.22</speed>
  <fix>3d</fix>
</trkpt>
<trkpt lat="40.0714245" lon="-105.2297079">
  <ele>1583.1</ele>
  <time>2026-08-28T17:53:19Z</time>
  <course>49.91</course>
  <speed>1.2191800523302536</speed>
  <fix>3d</fix>
</trkpt>
<trkpt lat="40.0714229" lon="-105.2297093">
  <ele>1583.0</ele>
  <time>2026-08-28T17:53:19Z</time>
  <course>39.88</course>
  <speed>1.21</speed>
  <fix>3d</fix>
</trkpt>
<trkpt lat="40.0714251" lon="-105.2297068">
  <ele>1583.1</ele>
  <time>2026-08-28T17:53:19Z</time>
  <course>57.32</course>
  <speed>1.1981652640600127</speed>
  <fix>3d</fix>
</trkpt>
<trkpt lat="40.0714229" lon="-105.2297093">
  <ele>1583.0</ele>
  <time>2026-08-28T17:53:19Z</time>
  <course>39.88</course>
  <speed>1.21</speed>
  <fix>3d</fix>
</trkpt>
<trkpt lat="40.0714256" lon="-105.2297055">
  <ele>1583.1</ele>
  <time>2026-08-28T17:53:19Z</time>
  <course>63.76</course>
  <speed>1.1807201192492656</speed>
  <fix>3d</fix>
</trkpt>
<trkpt lat="40.0714244" lon="-105.2297073">
  <ele>1583.0</ele>
  <time>2026-08-28T17:53:19Z</time>
  <course>54.77</course>
  <speed>1.19</speed>
  <fix>3d</fix>
</trkpt>
<trkpt lat="40.071426" lon="-105.2297043">
  <ele>1583.1</ele>
  <time>2026-08-28T17:53:19Z</time>
  <course>69.22</course>
  <speed>1.158792474949678</speed>
  <fix>3d</fix>
</trkpt>
<trkpt lat="40.0714244" lon="-105.2297073">
  <ele>1583.0</ele>
  <time>2026-08-28T17:53:19Z</time>
  <course>54.77</course>
  <speed>1.19</speed>
  <fix>3d</fix>
</trkpt>
<trkpt lat="40.0714262" lon="-105.2297033">
  <ele>1583.1</ele>
  <time>2026-08-28T17:53:19Z</time>
  <course>72.9</course>
  <speed>1.1352973178863766</speed>
  <fix>3d</fix>
</trkpt>
<trkpt lat="40.0714255" lon="-105.2297048">
  <ele>1583.0</ele>
  <time>2026-08-28T17:53:19Z</time>
  <course>67.03</course>
  <speed>1.16</speed>
  <fix>3d</fix>
</trkpt>
<trkpt lat="40.0714264" lon="-105.229702">
  <ele>1583.11</ele>
  <time>2026-08-28T17:53:19Z</time>
  <course>76.52</course>
  <speed>1.1229425630903835</speed>
  <fix>3d</fix>
</trkpt>
<trkpt lat="40.0714255" lon="-105.2297048">
  <ele>1583.0</ele>
  <time>2026-08-28T17:53:19Z</time>
  <course>67.03</course>
  <speed>1.16</speed>
  <fix>3d</fix>
</trkpt>
<trkpt lat="40.0714266" lon="-105.2297007">
  <ele>1583.11</ele>
  <time>2026-08-28T17:53:19Z</time>
  <course>79.07</course>
  <speed>1.1021796586763883</speed>
  <fix>3d</fix>
</trkpt>
<trkpt lat="40.0714261" lon="-105.2297022">
  <ele>1583.0</ele>
  <time>2026-08-28T17:53:19Z</time>
  <course>75.28</course>
  <speed>1.14</speed>
  <fix>3d</fix>
</trkpt>
<trkpt lat="40.0714268" lon="-105.2296994">
  <ele>1583.11</ele>
  <time>2026-08-28T17:53:19Z</time>
  <course>81.08</course>
  <speed>1.0834205093129814</speed>
  <fix>3d</fix>
</trkpt>
<trkpt lat="40.0714261" lon="-105.2297022">
  <ele>1583.0</ele>
  <time>2026-08-28T17:53:19Z</time>
  <course>75.28</course>
  <speed>1.14</speed>
  <fix>3d</fix>
</trkpt>
<trkpt lat="40.0714269" lon="-105.2296982">
  <ele>1583.11</ele>
  <time>2026-08-28T17:53:19Z</time>
  <course>82.77</course>
  <speed>1.059292216529509</speed>
  <fix>3d</fix>
</trkpt>
<trkpt lat="40.0714265" lon="-105.2296997">
  <ele>1583.0</ele>
  <time>2026-08-28T17:53:19Z</time>
  <course>80.23</course>
  <speed>1.11</speed>
  <fix>3d</fix>
</trkpt>
<trkpt lat="40.071427" lon="-105.2296969">
  <ele>1583.12</ele>
  <time>2026-08-28T17:53:19Z</time>
  <course>84.18</course>
  <speed>1.0458011283222064</speed>
  <fix>3d</fix>
</trkpt>
<trkpt lat="40.0714265" lon="-105.2296997">
  <ele>1583.0</ele>
  <time>2026-08-28T17:53:19Z</time>
  <course>80.23</course>
  <speed>1.11</speed>
  <fix>3d</fix>
</trkpt>
<trkpt lat="40.071427" lon="-105.2296957">
  <ele>1583.12</ele>
  <time>2026-08-28T17:53:19Z</time>
  <course>85.35</course>
  <speed>1.0331021246711285</speed>
  <fix>3d</fix>
</trkpt>
<trkpt lat="40.0714268" lon="-105.2296971">
  <ele>1583.0</ele>
  <time>2026-08-28T17:53:19Z</time>
  <course>83.38</course>
  <speed>1.08</speed>
  <fix>3d</fix>
</trkpt>
<trkpt lat="40.0714271" lon="-105.2296944">
  <ele>1583.12</ele>
  <time>2026-08-28T17:53:19Z</time>
  <course>86.33</course>
  <speed>1.0217631819555841</speed>
  <fix>3d</fix>
</trkpt>
<trkpt lat="40.0714268" lon="-105.2296971">
  <ele>1583.0</ele>
  <time>2026-08-28T17:53:19Z</time>
  <course>83.38</course>
  <speed>1.08</speed>
  <fix>3d</fix>
</trkpt>
<trkpt lat="40.0714271" lon="-105.2296932">
  <ele>1583.12</ele>
  <time>2026-08-28T17:53:19Z</time>
  <course>87.14</course>
  <speed>1.0012492197250393</speed>
  <fix>3d</fix>
</trkpt>
<trkpt lat="40.071427" lon="-105.2296946">
  <ele>1583.0</ele>
  <time>2026-08-28T17:53:19Z</time>
  <course>85.57</course>
  <speed>1.06</speed>
  <fix>3d</fix>
</trkpt>
<trkpt lat="40.0714271" lon="-105.229692">
  <ele>1583.12</ele>
  <time>2026-08-28T17:53:19Z</time>
  <course>87.8</course>
  <speed>1.0004498987955368</speed>
  <fix>3d</fix>
</trkpt>
<trkpt lat="40.071427" lon="-105.2296946">
  <ele>1583.0</ele>
  <time>2026-08-28T17:53:19Z</time>
  <course>85.57</course>
  <speed>1.06</speed>
  <fix>3d</fix>
</trkpt>
<trkpt lat="40.0714272" lon="-105.2296906">
  <ele>1583.12</ele>
  <time>2026-08-28T17:53:19Z</time>
  <course>88.44</course>
  <speed>0.9902019995940222</speed>
  <fix>3d</fix>
</trkpt>
<trkpt lat="40.0714271" lon="-105.2296921">
  <ele>1583.0</ele>
  <time>2026-08-28T17:53:19Z</time>
  <course>87.06</course>
  <speed>1.04</speed>
  <fix>3d</fix>
</trkpt>
<trkpt lat="40.0714272" lon="-105.2296894">
  <ele>1583.12</ele>
  <time>2026-08-28T17:53:19Z</time>
  <course>88.87</course>
  <speed>0.9800510190801294</speed>
  <fix>3d</fix>
</trkpt>
<trkpt lat="40.0714271" lon="-105.2296921">
  <ele>1583.0</ele>
  <time>2026-08-28T17:53:19Z</time>
  <course>87.06</course>
  <speed>1.04</speed>
  <fix>3d</fix>
</trkpt>
<trkpt lat="40.0714272" lon="-105.2296882">
  <ele>1583.12</ele>
  <time>2026-08-28T17:53:19Z</time>
  <course>89.22</course>
  <speed>0.970051545022222</speed>
  <fix>3d</fix>
</trkpt>
<trkpt lat="40.0714271" lon="-105.2296897">
  <ele>1583.0</ele>
  <time>2026-08-28T17:53:19Z</time>
  <course>88.08</course>
  <speed>1.03</speed>
  <fix>3d</fix>
</trkpt>
<trkpt lat="40.0714272" lon="-105.229687">
  <ele>1583.12</ele>
  <time>2026-08-28T17:53:19Z</time>
  <course>89.51</course>
  <speed>0.97</speed>
  <fix>3d</fix>
</trkpt>
<trkpt lat="40.0714271" lon="-105.2296897">
  <ele>1583.0</ele>
  <time>2026-08-28T17:53:19Z</time>
  <course>88.08</course>
  <speed>1.03</speed>
  <fix>3d</fix>
</trkpt>
<trkpt lat="40.0714272" lon="-105.2296858">
  <ele>1583.12</ele>
  <time>2026-08-28T17:53:19Z</time>
  <course>89.75</course>
  <speed>0.96</speed>
  <fix>3d</fix>
</trkpt>
<trkpt lat="40.0714272" lon="-105.2296873">
  <ele>1583.0</ele>
  <time>2026-08-28T17:53:19Z</time>
  <course>88.76</course>
  <speed>1.02</speed>
  <fix>3d</fix>
</trkpt>
<trkpt lat="40.0714272" lon="-105.2296847">
  <ele>1583.12</ele>
  <time>2026-08-28T17:53:19Z</time>
  <course>89.94</course>
  <speed>0.96</speed>
  <fix>3d</fix>
</trkpt>
<trkpt lat="40.0714272" lon="-105.2296873">
  <ele>1583.0</ele>
  <time>2026-08-28T17:53:19Z</time>
  <course>88.76</course>
  <speed>1.02</speed>
  <fix>3d</fix>
</trkpt>
<trkpt lat="40.0714272" lon="-105.2296835">
  <ele>1583.11</ele>
  <time>2026-08-28T17:53:19Z</time>
  <course>90.1</course>
  <speed>0.96</speed>
  <fix>3d</fix>
</trkpt>
<trkpt lat="40.0714272" lon="-105.2296849">
  <ele>1583.0</ele>
  <time>2026-08-28T17:53:19Z</time>
  <course>89.22</course>
  <speed>1.01</speed>
  <fix>3d</fix>
</trkpt>
<trkpt lat="40.0714272" lon="-105.2296823">
  <ele>1583.12</ele>
  <time>2026-08-28T17:53:19Z</time>
  <course>90.23</course>
  <speed>0.9600520819205591</speed>
  <fix>3d</fix>
</trkpt>
<trkpt lat="40.0714272" lon="-105.2296849">
  <ele>1583.0</ele>
  <time>2026-08-28T17:53:19Z</time>
  <course>89.22</course>
  <speed>1.01</speed>
  <fix>3d</fix>
</trkpt>
<trkpt lat="40.0714272" lon="-105.2296812">
  <ele>1583.12</ele>
  <time>2026-08-28T17:53:19Z</time>
  <course>90.33</course>
  <speed>0.9600520819205591</speed>
  <fix>3d</fix>
</trkpt>
<trkpt lat="40.0714272" lon="-105.2296825">
  <ele>1583.0</ele>
  <time>2026-08-28T17:53:19Z</time>
  <course>89.52</course>
  <speed>1.01</speed>
  <fix>3d</fix>
</trkpt>
<trkpt lat="40.0714272" lon="-105.22968">
  <ele>1583.12</ele>
  <time>2026-08-28T17:53:19Z</time>
  <course>90.42</course>
  <speed>0.9600520819205591</speed>
  <fix>3d</fix>
</trkpt>
<trkpt lat="40.0714272" lon="-105.2296825">
  <ele>1583.0</ele>
  <time>2026-08-28T17:53:19Z</time>
  <course>89.52</course>
  <speed>1.01</speed>
  <fix>3d</fix>
</trkpt>
<trkpt lat="40.0714272" lon="-105.2296788">
  <ele>1583.12</ele>
  <time>2026-08-28T17:53:19Z</time>
  <course>90.48</course>
  <speed>0.9600520819205591</speed>
  <fix>3d</fix>
</trkpt>
<trkpt lat="40.0714272" lon="-105.2296801">
  <ele>1583.0</ele>
  <time>2026-08-28T17:53:19Z</time>
  <course>89.72</course>
  <speed>1.02</speed>
  <fix>3d</fix>
</trkpt>
<trkpt lat="40.0714272" lon="-105.2296779">
  <ele>1583.12</ele>
  <time>2026-08-28T17:53:19Z</time>
  <course>90.53</course>
  <speed>0.970051545022222</speed>
  <fix>3d</fix>
</trkpt>
<trkpt lat="40.0714272" lon="-105.2296801">
  <ele>1583.0</ele>
  <time>2026-08-28T17:53:19Z</time>
  <course>89.72</course>
  <speed>1.02</speed>
  <fix>3d</fix>
</trkpt>
<trkpt lat="40.0714272" lon="-105.2296767">
  <ele>1583.12</ele>
  <time>2026-08-28T17:53:19Z</time>
  <course>90.57</course>
  <speed>0.9702061636580135</speed>
  <fix>3d</fix>
</trkpt>
<trkpt lat="40.0714272" lon="-105.2296777">
  <ele>1583.0</ele>
  <time>2026-08-28T17:53:19Z</time>
  <course>89.85</course>
  <speed>1.02</speed>
  <fix>3d</fix>
</trkpt>
<trkpt lat="40.0714272" lon="-105.2296755">
  <ele>1583.12</ele>
  <time>2026-08-28T17:53:19Z</time>
  <course>90.6</course>
  <speed>0.9702061636580135</speed>
  <fix>3d</fix>
</trkpt>
<trkpt lat="40.0714272" lon="-105.2296777">
  <ele>1583.0</ele>
  <time>2026-08-28T17:53:19Z</time>
  <course>89.85</course>
  <speed>1.02</speed>
  <fix>3d</fix>
</trkpt>
<trkpt lat="40.0714272" lon="-105.2296743">
  <ele>1583.12</ele>
  <time>2026-08-28T17:53:19Z</time>
  <course>90.63</course>
  <speed>0.9702061636580135</speed>
  <fix>3d</fix>
</trkpt>
<trkpt lat="40.0714272" lon="-105.2296753">
  <ele>1583.0</ele>
  <time>2026-08-28T17:53:19Z</time>
  <course>89.93</course>
  <speed>1.03</speed>
  <fix>3d</fix>
</trkpt>
<trkpt lat="40.0714272" lon="-105.2296731">
  <ele>1583.12</ele>
  <time>2026-08-28T17:53:19Z</time>
  <course>90.64</course>
  <speed>0.9802040603874276</speed>
  <fix>3d</fix>
</trkpt>
<trkpt lat="40.0714272" lon="-105.2296753">
  <ele>1583.0</ele>
  <time>2026-08-28T17:53:19Z</time>
  <course>89.93</course>
  <speed>1.03</speed>
  <fix>3d</fix>
</trkpt>
<trkpt lat="40.0714272" lon="-105.2296719">
  <ele>1583.12</ele>
  <time>2026-08-28T17:53:19Z</time>
  <course>90.66</course>
  <speed>0.9802040603874276</speed>
  <fix>3d</fix>
</trkpt>
<trkpt lat="40.0714272" lon="-105.2296729">
  <ele>1583.0</ele>
  <time>2026-08-28T17:53:19Z</time>
  <course>89.97</course>
  <speed>1.03</speed>
  <fix>3d</fix>
</trkpt>
<trkpt lat="40.0714272" lon="-105.2296706">
  <ele>1583.12</ele>
  <time>2026-08-28T17:53:19Z</time>
  <course>90.66</course>
  <speed>0.9802040603874276</speed>
  <fix>3d</fix>
</trkpt>
<trkpt lat="40.0714272" lon="-105.2296729">
  <ele>1583.0</ele>
  <time>2026-08-28T17:53:19Z</time>
  <course>89.97</course>
  <speed>1.03</speed>
  <fix>3d</fix>
</trkpt>
<trkpt lat="40.0714271" lon="-105.2296694">
  <ele>1583.12</ele>
  <time>2026-08-28T17:53:19Z</time>
  <course>90.66</course>
  <speed>0.9902019995940222</speed>
  <fix>3d</fix>
</trkpt>
<trkpt lat="40.0714272" lon="-105.2296705">
  <ele>1583.0</ele>
  <time>2026-08-28T17:53:19Z</time>
  <course>89.98</course>
  <speed>1.04</speed>
  <fix>3d</fix>
</trkpt>
<trkpt lat="40.0714271" lon="-105.2296682">
  <ele>1583.12</ele>
  <time>2026-08-28T17:53:19Z</time>
  <course>90.66</course>
  <speed>0.9902019995940222</speed>
  <fix>3d</fix>
</trkpt>
<trkpt lat="40.0714272" lon="-105.2296705">
  <ele>1583.0</ele>
  <time>2026-08-28T17:53:19Z</time>
  <course>89.98</course>
  <speed>1.04</speed>
  <fix>3d</fix>
</trkpt>
<trkpt lat="40.0714271" lon="-105.2296669">
  <ele>1583.12</ele>
  <time>2026-08-28T17:53:19Z</time>
  <course>90.67</course>
  <speed>0.9902019995940222</speed>
  <fix>3d</fix>
</trkpt>
<trkpt lat="40.0714272" lon="-105.229668">
  <ele>1583.0</ele>
  <time>2026-08-28T17:53:19Z</time>
  <course>89.99</course>
  <speed>1.04</speed>
  <fix>3d</fix>
</trkpt>
<trkpt lat="40.0714271" lon="-105.2296654">
  <ele>1583.11</ele>
  <time>2026-08-28T17:53:19Z</time>
  <course>90.67</course>
  <speed>0.9902019995940222</speed>
  <fix>3d</fix>
</trkpt>
<trkpt lat="40.0714272" lon="-105.229668">
  <ele>1583.0</ele>
  <time>2026-08-28T17:53:19Z</time>
  <course>89.99</course>
  <speed>1.04</speed>
  <fix>3d</fix>
</trkpt>
<trkpt lat="40.0714271" lon="-105.2296642">
  <ele>1583.11</ele>
  <time>2026-08-28T17:53:19Z</time>
  <course>90.67</course>
  <speed>1.0004498987955368</speed>
  <fix>3d</fix>
</trkpt>
<trkpt lat="40.0714272" lon="-105.2296655">
  <ele>1583.0</ele>
  <time>2026-08-28T17:53:19Z</time>
  <course>89.99</course>
  <speed>1.05</speed>
  <fix>3d</fix>
</trkpt>
<trkpt lat="40.0714271" lon="-105.229663">
  <ele>1583.11</ele>
  <time>2026-08-28T17:53:19Z</time>
  <course>90.67</course>
  <speed>1.0004498987955368</speed>
  <fix>3d</fix>
</trkpt>
<trkpt lat="40.0714272" lon="-105.2296655">
  <ele>1583.0</ele>
  <time>2026-08-28T17:53:19Z</time>
  <course>89.99</course>
  <speed>1.05</speed>
  <fix>3d</fix>
</trkpt>
<trkpt lat="40.0714271" lon="-105.2296617">
  <ele>1583.1</ele>
  <time>2026-08-28T17:53:19Z</time>
  <course>90.67</course>
  <speed>1.0004498987955368</speed>
  <fix>3d</fix>
</trkpt>
<trkpt lat="40.0714272" lon="-105.2296631">
  <ele>1583.0</ele>
  <time>2026-08-28T17:53:19Z</time>
  <course>89.99</course>
  <speed>1.05</speed>
  <fix>3d</fix>
</trkpt>
<trkpt lat="40.0714271" lon="-105.2296605">
  <ele>1583.1</ele>
  <time>2026-08-28T17:53:19Z</time>
  <course>90.67</course>
  <speed>1.0004498987955368</speed>
  <fix>3d</fix>
</trkpt>
<trkpt lat="40.0714272" lon="-105.2296631">
  <ele>1583.0</ele>
  <time>2026-08-28T17:53:19Z</time>
  <course>89.99</course>
  <speed>1.05</speed>
  <fix>3d</fix>
</trkpt>
<trkpt lat="40.0714271" lon="-105.2296592">
  <ele>1583.09</ele>
  <time>2026-08-28T17:53:19Z</time>
  <course>90.66</course>
  <speed>1.0004498987955368</speed>
  <fix>3d</fix>
</trkpt>
<trkpt lat="40.0714272" lon="-105.2296606">
  <ele>1583.0</ele>
  <time>2026-08-28T17:53:19Z</time>
  <course>89.98</course>
  <speed>1.05</speed>
  <fix>3d</fix>
</trkpt>
<trkpt lat="40.071427" lon="-105.229658">
  <ele>1583.09</ele>
  <time>2026-08-28T17:53:19Z</time>
  <course>90.65</course>
  <speed>1.0004498987955368</speed>
  <fix>3d</fix>
</trkpt>
<trkpt lat="40.0714272" lon="-105.2296606">
  <ele>1583.0</ele>
  <time>2026-08-28T17:53:19Z</time>
  <course>89.98</course>
  <speed>1.05</speed>
  <fix>3d</fix>
</trkpt>
<trkpt lat="40.071427" lon="-105.2296568">
  <ele>1583.09</ele>
  <time>2026-08-28T17:53:19Z</time>
  <course>90.64</course>
  <speed>1.0004498987955368</speed>
  <fix>3d</fix>
</trkpt>
<trkpt lat="40.0714272" lon="-105.2296581">
  <ele>1583.0</ele>
  <time>2026-08-28T17:53:19Z</time>
  <course>89.96</course>
  <speed>1.05</speed>
  <fix>3d</fix>
</trkpt>
<trkpt lat="40.071427" lon="-105.2296555">
  <ele>1583.09</ele>
  <time>2026-08-28T17:53:19Z</time>
  <course>90.63</course>
  <speed>1.0004498987955368</speed>
  <fix>3d</fix>
</trkpt>
<trkpt lat="40.0714272" lon="-105.2296581">
  <ele>1583.0</ele>
  <time>2026-08-28T17:53:19Z</time>
  <course>89.96</course>
  <speed>1.05</speed>
  <fix>3d</fix>
</trkpt>
<trkpt lat="40.071427" lon="-105.2296543">
  <ele>1583.08</ele>
  <time>2026-08-28T17:53:19Z</time>
  <course>90.62</course>
  <speed>1.0004498987955368</speed>
  <fix>3d</fix>
</trkpt>
<trkpt lat="40.0714272" lon="-105.2296556">
  <ele>1583.0</ele>
  <time>2026-08-28T17:53:19Z</time>
  <course>89.93</course>
  <speed>1.05</speed>
  <fix>3d</fix>
</trkpt>
<trkpt lat="40.071427" lon="-105.2296531">
  <ele>1583.08</ele>
  <time>2026-08-28T17:53:19Z</time>
  <course>90.61</course>
  <speed>1.0004498987955368</speed>
  <fix>3d</fix>
</trkpt>
<trkpt lat="40.0714272" lon="-105.2296556">
  <ele>1583.0</ele>
  <time>2026-08-28T17:53:19Z</time>
  <course>89.93</course>
  <speed>1.05</speed>
  <fix>3d</fix>
</trkpt>
<trkpt lat="40.071427" lon="-105.2296521">
  <ele>1583.08</ele>
  <time>2026-08-28T17:53:19Z</time>
  <course>90.6</course>
  <speed>1.0004498987955368</speed>
  <fix>3d</fix>
</trkpt>
<trkpt lat="40.0714272" lon="-105.2296531">
  <ele>1583.0</ele>
  <time>2026-08-28T17:53:19Z</time>
  <course>89.91</course>
  <speed>1.05</speed>
  <fix>3d</fix>
</trkpt>
<trkpt lat="40.071427" lon="-105.2296508">
  <ele>1583.09</ele>
  <time>2026-08-28T17:53:19Z</time>
  <course>90.59</course>
  <speed>1.0004498987955368</speed>
  <fix>3d</fix>
</trkpt>
<trkpt lat="40.0714272" lon="-105.2296531">
  <ele>1583.0</ele>
  <time>2026-08-28T17:53:19Z</time>
  <course>89.91</course>
  <speed>1.05</speed>
  <fix>3d</fix>
</trkpt>
<trkpt lat="40.071427" lon="-105.2296496">
  <ele>1583.09</ele>
  <time>2026-08-28T17:53:19Z</time>
  <course>90.58</course>
  <speed>1.0004498987955368</speed>
  <fix>3d</fix>
</trkpt>
<trkpt lat="40.0714272" lon="-105.2296506">
  <ele>1583.0</ele>
  <time>2026-08-28T17:53:19Z</time>
  <course>89.88</course>
  <speed>1.05</speed>
  <fix>3d</fix>
</trkpt>
<trkpt lat="40.071427" lon="-105.2296483">
  <ele>1583.09</ele>
  <time>2026-08-28T17:53:19Z</time>
  <course>90.57</course>
  <speed>1.0004498987955368</speed>
  <fix>3d</fix>
</trkpt>
<trkpt lat="40.0714272" lon="-105.2296506">
  <ele>1583.0</ele>
  <time>2026-08-28T17:53:19Z</time>
  <course>89.88</course>
  <speed>1.05</speed>
  <fix>3d</fix>
</trkpt>
<trkpt lat="40.071427" lon="-105.2296471">
  <ele>1583.09</ele>
  <time>2026-08-28T17:53:19Z</time>
  <course>90.55</course>
  <speed>1.0004498987955368</speed>
  <fix>3d</fix>
</trkpt>
<trkpt lat="40.0714273" lon="-105.2296482">
  <ele>1583.0</ele>
  <time>2026-08-28T17:53:19Z</time>
  <course>89.85</course>
  <speed>1.05</speed>
  <fix>3d</fix>
</trkpt>
<trkpt lat="40.071427" lon="-105.2296459">
  <ele>1583.09</ele>
  <time>2026-08-28T17:53:19Z</time>
  <course>90.54</course>
  <speed>1.0104454463255303</speed>
  <fix>3d</fix>
</trkpt>
<trkpt lat="40.0714273" lon="-105.2296482">
  <ele>1583.0</ele>
  <time>2026-08-28T17:53:19Z</time>
  <course>89.85</course>
  <speed>1.05</speed>
  <fix>3d</fix>
</trkpt>
<trkpt lat="40.071427" lon="-105.2296446">
  <ele>1583.09</ele>
  <time>2026-08-28T17:53:19Z</time>
  <course>90.53</course>
  <speed>1.0004498987955368</speed>
  <fix>3d</fix>
</trkpt>
<trkpt lat="40.0714274" lon="-105.2296457">
  <ele>1583.0</ele>
  <time>2026-08-28T17:53:19Z</time>
  <course>89.82</course>
  <speed>1.04</speed>
  <fix>3d</fix>
</trkpt>
<trkpt lat="40.071427" lon="-105.2296434">
  <ele>1583.09</ele>
  <time>2026-08-28T17:53:19Z</time>
  <course>90.52</course>
  <speed>1.0004498987955368</speed>
  <fix>3d</fix>
</trkpt>
<trkpt lat="40.0714274" lon="-105.2296457">
  <ele>1583.0</ele>
  <time>2026-08-28T17:53:19Z</time>
  <course>89.82</course>
  <speed>1.04</speed>
  <fix>3d</fix>
</trkpt>
<trkpt lat="40.071427" lon="-105.2296421">
  <ele>1583.09</ele>
  <time>2026-08-28T17:53:19Z</time>
  <course>90.51</course>
  <speed>1.0007996802557444</speed>
  <fix>3d</fix>
</trkpt>
<trkpt lat="40.0714274" lon="-105.2296432">
  <ele>1583.0</ele>
  <time>2026-08-28T17:53:19Z</time>
  <course>89.79</course>
  <speed>1.04</speed>
  <fix>3d</fix>
</trkpt>
<trkpt lat="40.071427" lon="-105.2296409">
  <ele>1583.09</ele>
  <time>2026-08-28T17:53:19Z</time>
  <course>90.5</course>
  <speed>1.0004498987955368</speed>
  <fix>3d</fix>
</trkpt>
<trkpt lat="40.0714274" lon="-105.2296432">
  <ele>1583.0</ele>
  <time>2026-08-28T17:53:19Z</time>
  <course>89.79</course>
  <speed>1.04</speed>
  <fix>3d</fix>
</trkpt>
<trkpt lat="40.071427" lon="-105.2296394">
  <ele>1583.09</ele>
  <time>2026-08-28T17:53:19Z</time>
  <course>90.49</course>
  <speed>1.0004498987955368</speed>
  <fix>3d</fix>
</trkpt>
<trkpt lat="40.0714274" lon="-105.2296408">
  <ele>1583.0</ele>
  <time>2026-08-28T17:53:19Z</time>
  <course>89.76</course>
  <speed>1.04</speed>
  <fix>3d</fix>
</trkpt>
<trkpt lat="40.071427" lon="-105.2296382">
  <ele>1583.09</ele>
  <time>2026-08-28T17:53:19Z</time>
  <course>90.48</course>
  <speed>1.0004498987955368</speed>
  <fix>3d</fix>
</trkpt>
<trkpt lat="40.0714274" lon="-105.2296408">
  <ele>1583.0</ele>
  <time>2026-08-28T17:53:19Z</time>
  <course>89.76</course>
  <speed>1.04</speed>
  <fix>3d</fix>
</trkpt>
<trkpt lat="40.071427" lon="-105.2296369">
  <ele>1583.09</ele>
  <time>2026-08-28T17:53:19Z</time>
  <course>90.47</course>
  <speed>1.0007996802557444</speed>
  <fix>3d</fix>
</trkpt>
<trkpt lat="40.0714274" lon="-105.2296384">
  <ele>1583.0</ele>
  <time>2026-08-28T17:53:19Z</time>
  <course>89.74</course>
  <speed>1.03</speed>
  <fix>3d</fix>
</trkpt>
<trkpt lat="40.071427" lon="-105.2296357">
  <ele>1583.09</ele>
  <time>2026-08-28T17:53:19Z</time>
  <course>90.46</course>
  <speed>1.0007996802557444</speed>
  <fix>3d</fix>
</trkpt>
<trkpt lat="40.0714274" lon="-105.2296384">
  <ele>1583.0</ele>
  <time>2026-08-28T17:53:19Z</time>
  <course>89.74</course>
  <speed>1.03</speed>
  <fix>3d</fix>
</trkpt>
<trkpt lat="40.071427" lon="-105.2296345">
  <ele>1583.09</ele>
  <time>2026-08-28T17:53:19Z</time>
  <course>90.45</course>
  <speed>1.0007996802557444</speed>
  <fix>3d</fix>
</trkpt>
<trkpt lat="40.0714274" lon="-105.229636">
  <ele>1583.0</ele>
  <time>2026-08-28T17:53:19Z</time>
  <course>89.71</course>
  <speed>1.03</speed>
  <fix>3d</fix>
</trkpt>
<trkpt lat="40.0714271" lon="-105.2296333">
  <ele>1583.09</ele>
  <time>2026-08-28T17:53:19Z</time>
  <course>90.44</course>
  <speed>1.0007996802557444</speed>
  <fix>3d</fix>
</trkpt>
<trkpt lat="40.0714274" lon="-105.229636">
  <ele>1583.0</ele>
  <time>2026-08-28T17:53:19Z</time>
  <course>89.71</course>
  <speed>1.03</speed>
  <fix>3d</fix>
</trkpt>
<trkpt lat="40.0714271" lon="-105.2296321">
  <ele>1583.09</ele>
  <time>2026-08-28T17:53:19Z</time>
  <course>90.43</course>
  <speed>0.9908077512817509</speed>
  <fix>3d</fix>
</trkpt>
<trkpt lat="40.0714274" lon="-105.2296336">
  <ele>1583.0</ele>
  <time>2026-08-28T17:53:19Z</time>
  <course>89.69</course>
  <speed>1.03</speed>
  <fix>3d</fix>
</trkpt>
<trkpt lat="40.0714271" lon="-105.2296309">
  <ele>1583.09</ele>
  <time>2026-08-28T17:53:19Z</time>
  <course>90.42</course>
  <speed>0.9908077512817509</speed>
  <fix>3d</fix>
</trkpt>
<trkpt lat="40.0714274" lon="-105.2296336">
  <ele>1583.0</ele>
  <time>2026-08-28T17:53:19Z</time>
  <course>89.69</course>
  <speed>1.03</speed>
  <fix>3d</fix>
</trkpt>
<trkpt lat="40.0714271" lon="-105.2296297">
  <ele>1583.09</ele>
  <time>2026-08-28T17:53:19Z</time>
  <course>90.41</course>
  <speed>0.9908077512817509</speed>
  <fix>3d</fix>
</trkpt>
<trkpt lat="40.0714274" lon="-105.2296312">
  <ele>1583.0</ele>
  <time>2026-08-28T17:53:19Z</time>
  <course>89.66</course>
  <speed>1.02</speed>
  <fix>3d</fix>
</trkpt>
<trkpt lat="40.0714271" lon="-105.2296285">
  <ele>1583.09</ele>
  <time>2026-08-28T17:53:19Z</time>
  <course>90.41</course>
  <speed>0.9908077512817509</speed>
  <fix>3d</fix>
</trkpt>
<trkpt lat="40.0714274" lon="-105.2296312">
  <ele>1583.0</ele>
  <time>2026-08-28T17:53:19Z</time>
  <course>89.66</course>
  <speed>1.02</speed>
  <fix>3d</fix>
</trkpt>
<trkpt lat="40.0714271" lon="-105.2296273">
  <ele>1583.09</ele>
  <time>2026-08-28T17:53:19Z</time>
  <course>90.4</course>
  <speed>0.9908077512817509</speed>
  <fix>3d</fix>
</trkpt>
<trkpt lat="40.0714274" lon="-105.2296287">
  <ele>1583.0</ele>
  <time>2026-08-28T17:53:19Z</time>
  <course>89.64</course>
  <speed>1.02</speed>
  <fix>3d</fix>
</trkpt>
<trkpt lat="40.0714271" lon="-105.2296263">
  <ele>1583.09</ele>
  <time>2026-08-28T17:53:19Z</time>
  <course>90.39</course>
  <speed>0.9908077512817509</speed>
  <fix>3d</fix>
</trkpt>
<trkpt lat="40.0714274" lon="-105.2296287">
  <ele>1583.0</ele>
  <time>2026-08-28T17:53:19Z</time>
  <course>89.64</course>
  <speed>1.02</speed>
  <fix>3d</fix>
</trkpt>
<trkpt lat="40.0714271" lon="-105.2296251">
  <ele>1583.08</ele>
  <time>2026-08-28T17:53:19Z</time>
  <course>90.38</course>
  <speed>0.9908077512817509</speed>
  <fix>3d</fix>
</trkpt>
<trkpt lat="40.0714274" lon="-105.2296262">
  <ele>1583.0</ele>
  <time>2026-08-28T17:53:19Z</time>
  <course>89.62</course>
  <speed>1.02</speed>
  <fix>3d</fix>
</trkpt>
<trkpt lat="40.0714271" lon="-105.2296239">
  <ele>1583.08</ele>
  <time>2026-08-28T17:53:19Z</time>
  <course>90.38</course>
  <speed>0.9908077512817509</speed>
  <fix>3d</fix>
</trkpt>
<trkpt lat="40.0714274" lon="-105.2296262">
  <ele>1583.0</ele>
  <time>2026-08-28T17:53:19Z</time>
  <course>89.62</course>
  <speed>1.02</speed>
  <fix>3d</fix>
</trkpt>
<trkpt lat="40.0714271" lon="-105.2296227">
  <ele>1583.08</ele>
  <time>2026-08-28T17:53:19Z</time>
  <course>91.11</course>
  <speed>1.0012492197250393</speed>
  <fix>3d</fix>
</trkpt>
<trkpt lat="40.0714274" lon="-105.2296238">
  <ele>1583.0</ele>
  <time>2026-08-28T17:53:19Z</time>
  <course>89.98</course>
  <speed>1.02</speed>
  <fix>3d</fix>
</trkpt>
<trkpt lat="40.0714271" lon="-105.2296215">
  <ele>1583.07</ele>
  <time>2026-08-28T17:53:19Z</time>
  <course>93.03</course>
  <speed>1.0339245620450266</speed>
  <fix>3d</fix>
</trkpt>
<trkpt lat="40.0714274" lon="-105.2296238">
  <ele>1583.0</ele>
  <time>2026-08-28T17:53:19Z</time>
  <course>89.98</course>
  <speed>1.02</speed>
  <fix>3d</fix>
</trkpt>
<trkpt lat="40.071427" lon="-105.2296202">
  <ele>1583.07</ele>
  <time>2026-08-28T17:53:19Z</time>
  <course>96.03</course>
  <speed>1.0705606008068858</speed>
  <fix>3d</fix>
</trkpt>
<trkpt lat="40.0714274" lon="-105.2296214">
  <ele>1583.0</ele>
  <time>2026-08-28T17:53:19Z</time>
  <course>92.88</course>
  <speed>1.06</speed>
  <fix>3d</fix>
</trkpt>
<trkpt lat="40.0714269" lon="-105.2296189">
  <ele>1583.07</ele>
  <time>2026-08-28T17:53:19Z</time>
  <course>100.11</course>
  <speed>1.1258774356030055</speed>
  <fix>3d</fix>
</trkpt>
<trkpt lat="40.0714274" lon="-105.2296214">
  <ele>1583.0</ele>
  <time>2026-08-28T17:53:19Z</time>
  <course>92.88</course>
  <speed>1.06</speed>
  <fix>3d</fix>
</trkpt>
<trkpt lat="40.0714266" lon="-105.2296175">
  <ele>1583.07</ele>
  <time>2026-08-28T17:53:19Z</time>
  <course>105.28</course>
  <speed>1.1925183436744276</speed>
  <fix>3d</fix>
</trkpt>
<trkpt lat="40.0714272" lon="-105.2296188">
  <ele>1583.0</ele>
  <time>2026-08-28T17:53:19Z</time>
  <course>100.11</course>
  <speed>1.14</speed>
  <fix>3d</fix>
</trkpt>
<trkpt lat="40.0714263" lon="-105.2296161">
  <ele>1583.07</ele>
  <time>2026-08-28T17:53:19Z</time>
  <course>110.36</course>
  <speed>1.2553883861180173</speed>
  <fix>3d</fix>
</trkpt>
<trkpt lat="40.0714272" lon="-105.2296188">
  <ele>1583.0</ele>
  <time>2026-08-28T17:53:19Z</time>
  <course>100.11</course>
  <speed>1.14</speed>
  <fix>3d</fix>
</trkpt>
<trkpt lat="40.0714258" lon="-105.2296146">
  <ele>1583.07</ele>
  <time>2026-08-28T17:53:19Z</time>
  <course>114.49</course>
  <speed>1.3058713566044704</speed>
  <fix>3d</fix>
</trkpt>
<trkpt lat="40.0714267" lon="-105.2296162">
  <ele>1583.0</ele>
  <time>2026-08-28T17:53:19Z</time>
  <course>109.29</course>
  <speed>1.25</speed>
  <fix>3d</fix>
</trkpt>
<trkpt lat="40.0714252" lon="-105.2296129">
  <ele>1583.07</ele>
  <time>2026-08-28T17:53:19Z</time>
  <course>118.6</course>
  <speed>1.3583077707206124</speed>
  <fix>3d</fix>
</trkpt>
<trkpt lat="40.0714267" lon="-105.2296162">
  <ele>1583.0</ele>
  <time>2026-08-28T17:53:19Z</time>
  <course>109.29</course>
  <speed>1.25</speed>
  <fix>3d</fix>
</trkpt>
<trkpt lat="40.0714245" lon="-105.2296115">
  <ele>1583.07</ele>
  <time>2026-08-28T17:53:19Z</time>
  <course>121.4</course>
  <speed>1.4006427096158394</speed>
  <fix>3d</fix>
</trkpt>
<trkpt lat="40.0714258" lon="-105.2296133">
  <ele>1583.0</ele>
  <time>2026-08-28T17:53:19Z</time>
  <course>116.99</course>
  <speed>1.34</speed>
  <fix>3d</fix>
</trkpt>
<trkpt lat="40.0714238" lon="-105.2296101">
  <ele>1583.08</ele>
  <time>2026-08-28T17:53:19Z</time>
  <course>123.73</course>
  <speed>1.4403124660989366</speed>
  <fix>3d</fix>
</trkpt>
<trkpt lat="40.0714258" lon="-105.2296133">
  <ele>1583.0</ele>
  <time>2026-08-28T17:53:19Z</time>
  <course>116.99</course>
  <speed>1.34</speed>
  <fix>3d</fix>
</trkpt>
<trkpt lat="40.0714231" lon="-105.2296087">
  <ele>1583.08</ele>
  <time>2026-08-28T17:53:20Z</time>
  <course>125.68</course>
  <speed>1.462087548678259</speed>
  <fix>3d</fix>
</trkpt>
<trkpt lat="40.0714246" lon="-105.2296106">
  <ele>1583.0</ele>
  <time>2026-08-28T17:53:20Z</time>
  <course>122.35</course>
  <speed>1.42</speed>
  <fix>3d</fix>
</trkpt>
<trkpt lat="40.0714223" lon="-105.2296073">
  <ele>1583.08</ele>
  <time>2026-08-28T17:53:20Z</time>
  <course>127.31</course>
  <speed>1.4930505684671231</speed>
  <fix>3d</fix>
</trkpt>
<trkpt lat="40.0714246" lon="-105.2296106">
  <ele>1583.0</ele>
  <time>2026-08-28T17:53:20Z</time>
  <course>122.35</course>
  <speed>1.42</speed>
  <fix>3d</fix>
</trkpt>
<trkpt lat="40.0714215" lon="-105.2296059">
  <ele>1583.08</ele>
  <time>2026-08-28T17:53:20Z</time>
  <course>128.67</course>
  <speed>1.5109268678529744</speed>
  <fix>3d</fix>
</trkpt>
<trkpt lat="40.071423" lon="-105.2296078">
  <ele>1583.0</ele>
  <time>2026-08-28T17:53:20Z</time>
  <course>126.1</course>
  <speed>1.47</speed>
  <fix>3d</fix>
</trkpt>
<trkpt lat="40.0714206" lon="-105.2296045">
  <ele>1583.08</ele>
  <time>2026-08-28T17:53:20Z</time>
  <course>129.8</course>
  <speed>1.523056138164316</speed>
  <fix>3d</fix>
</trkpt>
<trkpt lat="40.071423" lon="-105.2296078">
  <ele>1583.0</ele>
  <time>2026-08-28T17:53:20Z</time>
  <course>126.1</course>
  <speed>1.47</speed>
  <fix>3d</fix>
</trkpt>
<trkpt lat="40.0714197" lon="-105.2296031">
  <ele>1583.09</ele>
  <time>2026-08-28T17:53:20Z</time>
  <course>130.75</course>
  <speed>1.5289865924853627</speed>
  <fix>3d</fix>
</trkpt>
<trkpt lat="40.0714214" lon="-105.2296049">
  <ele>1583.0</ele>
  <time>2026-08-28T17:53:20Z</time>
  <course>128.71</course>
  <speed>1.5</speed>
  <fix>3d</fix>
</trkpt>
<trkpt lat="40.0714189" lon="-105.2296018">
  <ele>1583.09</ele>
  <time>2026-08-28T17:53:20Z</time>
  <course>131.53</course>
  <speed>1.5352198539622917</speed>
  <fix>3d</fix>
</trkpt>
<trkpt lat="40.0714214" lon="-105.2296049">
  <ele>1583.0</ele>
  <time>2026-08-28T17:53:20Z</time>
  <course>128.71</course>
  <speed>1.5</speed>
  <fix>3d</fix>
</trkpt>
<trkpt lat="40.071418" lon="-105.2296005">
  <ele>1583.09</ele>
  <time>2026-08-28T17:53:20Z</time>
  <course>132.19</course>
  <speed>1.5348289807011073</speed>
  <fix>3d</fix>
</trkpt>
<trkpt lat="40.0714196" lon="-105.2296022">
  <ele>1583.0</ele>
  <time>2026-08-28T17:53:20Z</time>
  <course>130.53</course>
  <speed>1.51</speed>
  <fix>3d</fix>
</trkpt>
<trkpt lat="40.071417" lon="-105.2295991">
  <ele>1583.08</ele>
  <time>2026-08-28T17:53:20Z</time>
  <course>132.74</course>
  <speed>1.5345683432157722</speed>
  <fix>3d</fix>
</trkpt>
<trkpt lat="40.0714196" lon="-105.2296022">
  <ele>1583.0</ele>
  <time>2026-08-28T17:53:20Z</time>
  <course>130.53</course>
  <speed>1.51</speed>
  <fix>3d</fix>
</trkpt>
<trkpt lat="40.0714163" lon="-105.2295981">
  <ele>1583.08</ele>
  <time>2026-08-28T17:53:20Z</time>
  <course>133.11</course>
  <speed>1.5344380078712856</speed>
  <fix>3d</fix>
</trkpt>
<trkpt lat="40.0714179" lon="-105.2295995">
  <ele>1583.0</ele>
  <time>2026-08-28T17:53:20Z</time>
  <course>131.8</course>
  <speed>1.52</speed>
  <fix>3d</fix>
</trkpt>
<trkpt lat="40.0714154" lon="-105.2295968">
  <ele>1583.08</ele>
  <time>2026-08-28T17:53:20Z</time>
  <course>133.5</course>
  <speed>1.5273506473629428</speed>
  <fix>3d</fix>
</trkpt>
<trkpt lat="40.0714179" lon="-105.2295995">
  <ele>1583.0</ele>
  <time>2026-08-28T17:53:20Z</time>
  <course>131.8</course>
  <speed>1.52</speed>
  <fix>3d</fix>
</trkpt>
<trkpt lat="40.0714145" lon="-105.2295955">
  <ele>1583.08</ele>
  <time>2026-08-28T17:53:20Z</time>
  <course>133.83</course>
  <speed>1.52029602380589</speed>
  <fix>3d</fix>
</trkpt>
<trkpt lat="40.071416" lon="-105.2295968">
  <ele>1583.0</ele>
  <time>2026-08-28T17:53:20Z</time>
  <course>132.68</course>
  <speed>1.51</speed>
  <fix>3d</fix>
</trkpt>
<trkpt lat="40.0714135" lon="-105.2295942">
  <ele>1583.08</ele>
  <time>2026-08-28T17:53:20Z</time>
  <course>134.09</course>
  <speed>1.5132745950421558</speed>
  <fix>3d</fix>
</trkpt>
<trkpt lat="40.071416" lon="-105.2295968">
  <ele>1583.0</ele>
  <time>2026-08-28T17:53:20Z</time>
  <course>132.68</course>
  <speed>1.51</speed>
  <fix>3d</fix>
</trkpt>
<trkpt lat="40.0714126" lon="-105.2295929">
  <ele>1583.07</ele>
  <time>2026-08-28T17:53:20Z</time>
  <course>134.32</course>
  <speed>1.506286825275983</speed>
  <fix>3d</fix>
</trkpt>
<trkpt lat="40.0714142" lon="-105.2295943">
  <ele>1583.0</ele>
  <time>2026-08-28T17:53:20Z</time>
  <course>133.29</course>
  <speed>1.5</speed>
  <fix>3d</fix>
</trkpt>
<trkpt lat="40.0714117" lon="-105.2295916">
  <ele>1583.08</ele>
  <time>2026-08-28T17:53:20Z</time>
  <course>134.51</course>
  <speed>1.4921461054467824</speed>
  <fix>3d</fix>
</trkpt>
<trkpt lat="40.0714142" lon="-105.2295943">
  <ele>1583.0</ele>
  <time>2026-08-28T17:53:20Z</time>
  <course>133.29</course>
  <speed>1.5</speed>
  <fix>3d</fix>
</trkpt>
<trkpt lat="40.0714108" lon="-105.2295904">
  <ele>1583.08</ele>
  <time>2026-08-28T17:53:20Z</time>
  <course>134.66</course>
  <speed>1.4851935900750448</speed>
  <fix>3d</fix>
</trkpt>
<trkpt lat="40.0714124" lon="-105.2295917">
  <ele>1583.0</ele>
  <time>2026-08-28T17:53:20Z</time>
  <course>133.71</course>
  <speed>1.48</speed>
  <fix>3d</fix>
</trkpt>
<trkpt lat="40.0714098" lon="-105.2295891">
  <ele>1583.08</ele>
  <time>2026-08-28T17:53:20Z</time>
  <course>134.79</course>
  <speed>1.4780054127099804</speed>
  <fix>3d</fix>
</trkpt>
<trkpt lat="40.0714124" lon="-105.2295917">
  <ele>1583.0</ele>
  <time>2026-08-28T17:53:20Z</time>
  <course>133.71</course>
  <speed>1.48</speed>
  <fix>3d</fix>
</trkpt>
<trkpt lat="40.0714089" lon="-105.2295879">
  <ele>1583.08</ele>
  <time>2026-08-28T17:53:20Z</time>
  <course>134.9</course>
  <speed>1.4710540438746633</speed>
  <fix>3d</fix>
</trkpt>
<trkpt lat="40.0714105" lon="-105.2295893">
  <ele>1583.0</ele>
  <time>2026-08-28T17:53:20Z</time>
  <course>134.0</course>
  <speed>1.46</speed>
  <fix>3d</fix>
</trkpt>
<trkpt lat="40.0714078" lon="-105.2295864">
  <ele>1583.09</ele>
  <time>2026-08-28T17:53:20Z</time>
  <course>135.0</course>
  <speed>1.4569145479402694</speed>
  <fix>3d</fix>
</trkpt>
<trkpt lat="40.0714105" lon="-105.2295893">
  <ele>1583.0</ele>
  <time>2026-08-28T17:53:20Z</time>
  <course>134.0</course>
  <speed>1.46</speed>
  <fix>3d</fix>
</trkpt>
<trkpt lat="40.0714069" lon="-105.2295852">
  <ele>1583.09</ele>
  <time>2026-08-28T17:53:20Z</time>
  <course>135.07</course>
  <speed>1.4427751037497145</speed>
  <fix>3d</fix>
</trkpt>
<trkpt lat="40.0714086" lon="-105.2295868">
  <ele>1583.0</ele>
  <time>2026-08-28T17:53:20Z</time>
  <course>134.2</course>
  <speed>1.44</speed>
  <fix>3d</fix>
</trkpt>
<trkpt lat="40.071406" lon="-105.229584">
  <ele>1583.09</ele>
  <time>2026-08-28T17:53:20Z</time>
  <course>135.13</course>
  <speed>1.4427751037497145</speed>
  <fix>3d</fix>
</trkpt>
<trkpt lat="40.0714086" lon="-105.2295868">
  <ele>1583.0</ele>
  <time>2026-08-28T17:53:20Z</time>
  <course>134.2</course>
  <speed>1.44</speed>
  <fix>3d</fix>
</trkpt>
<trkpt lat="40.0714051" lon="-105.2295828">
  <ele>1583.09</ele>
  <time>2026-08-28T17:53:20Z</time>
  <course>135.17</course>
  <speed>1.4286357128393508</speed>
  <fix>3d</fix>
</trkpt>
<trkpt lat="40.0714069" lon="-105.2295843">
  <ele>1583.0</ele>
  <time>2026-08-28T17:53:20Z</time>
  <course>134.33</course>
  <speed>1.43</speed>
  <fix>3d</fix>
</trkpt>
<trkpt lat="40.0714043" lon="-105.2295816">
  <ele>1583.09</ele>
  <time>2026-08-28T17:53:20Z</time>
  <course>135.95</course>
  <speed>1.4221462653327892</speed>
  <fix>3d</fix>
</trkpt>
<trkpt lat="40.0714069" lon="-105.2295843">
  <ele>1583.0</ele>
  <time>2026-08-28T17:53:20Z</time>
  <course>134.33</course>
  <speed>1.43</speed>
  <fix>3d</fix>
</trkpt>
<trkpt lat="40.0714033" lon="-105.2295804">
  <ele>1583.09</ele>
  <time>2026-08-28T17:53:20Z</time>
  <course>137.87</course>
  <speed>1.4176741515595181</speed>
  <fix>3d</fix>
</trkpt>
<trkpt lat="40.071405" lon="-105.229582">
  <ele>1583.0</ele>
  <time>2026-08-28T17:53:20Z</time>
  <course>135.51</course>
  <speed>1.41</speed>
  <fix>3d</fix>
</trkpt>
<trkpt lat="40.0714024" lon="-105.2295793">
  <ele>1583.09</ele>
  <time>2026-08-28T17:53:20Z</time>
  <course>140.87</course>
  <speed>1.410319112825179</speed>
  <fix>3d</fix>
</trkpt>
<trkpt lat="40.071405" lon="-105.229582">
  <ele>1583.0</ele>
  <time>2026-08-28T17:53:20Z</time>
  <course>135.51</course>
  <speed>1.41</speed>
  <fix>3d</fix>
</trkpt>
<trkpt lat="40.0714014" lon="-105.2295784">
  <ele>1583.09</ele>
  <time>2026-08-28T17:53:20Z</time>
  <course>144.94</course>
  <speed>1.4034600101178514</speed>
  <fix>3d</fix>
</trkpt>
<trkpt lat="40.0714032" lon="-105.2295798">
  <ele>1583.0</ele>
  <time>2026-08-28T17:53:20Z</time>
  <course>139.97</course>
  <speed>1.4</speed>
  <fix>3d</fix>
</trkpt>
<trkpt lat="40.0714004" lon="-105.2295775">
  <ele>1583.09</ele>
  <time>2026-08-28T17:53:20Z</time>
  <course>150.07</course>
  <speed>1.396710420953463</speed>
  <fix>3d</fix>
</trkpt>
<trkpt lat="40.0714032" lon="-105.2295798">
  <ele>1583.0</ele>
  <time>2026-08-28T17:53:20Z</time>
  <course>139.97</course>
  <speed>1.4</speed>
  <fix>3d</fix>
</trkpt>
<trkpt lat="40.0713993" lon="-105.2295768">
  <ele>1583.1</ele>
  <time>2026-08-28T17:53:20Z</time>
  <course>156.24</course>
  <speed>1.3984634424967999</speed>
  <fix>3d</fix>
</trkpt>
<trkpt lat="40.0714012" lon="-105.2295778">
  <ele>1583.0</ele>
  <time>2026-08-28T17:53:20Z</time>
  <course>148.75</course>
  <speed>1.38</speed>
  <fix>3d</fix>
</trkpt>
<trkpt lat="40.0713982" lon="-105.2295762">
  <ele>1583.1</ele>
  <time>2026-08-28T17:53:20Z</time>
  <course>163.42</course>
  <speed>1.392838827718412</speed>
  <fix>3d</fix>
</trkpt>
<trkpt lat="40.0714012" lon="-105.2295778">
  <ele>1583.0</ele>
  <time>2026-08-28T17:53:20Z</time>
  <course>148.75</course>
  <speed>1.38</speed>
  <fix>3d</fix>
</trkpt>
<trkpt lat="40.0713969" lon="-105.2295759">
  <ele>1583.1</ele>
  <time>2026-08-28T17:53:20Z</time>
  <course>171.66</course>
  <speed>1.3916896205691842</speed>
  <fix>3d</fix>
</trkpt>
<trkpt lat="40.071399" lon="-105.2295764">
  <ele>1583.0</ele>
  <time>2026-08-28T17:53:20Z</time>
  <course>161.7</course>
  <speed>1.37</speed>
  <fix>3d</fix>
</trkpt>
<trkpt lat="40.071396" lon="-105.2295758">
  <ele>1583.1</ele>
  <time>2026-08-28T17:53:20Z</time>
  <course>178.65</course>
  <speed>1.3900359707575916</speed>
  <fix>3d</fix>
</trkpt>
<trkpt lat="40.071399" lon="-105.2295764">
  <ele>1583.0</ele>
  <time>2026-08-28T17:53:20Z</time>
  <course>161.7</course>
  <speed>1.37</speed>
  <fix>3d</fix>
</trkpt>
<trkpt lat="40.0713948" lon="-105.2295759">
  <ele>1583.1</ele>
  <time>2026-08-28T17:53:20Z</time>
  <course>186.65</course>
  <speed>1.3805071531868278</speed>
  <fix>3d</fix>
</trkpt>
<trkpt lat="40.0713966" lon="-105.2295759">
  <ele>1583.0</ele>
  <time>2026-08-28T17:53:20Z</time>
  <course>177.54</course>
  <speed>1.36</speed>
  <fix>3d</fix>
</trkpt>
<trkpt lat="40.0713936" lon="-105.2295762">
  <ele>1583.1</ele>
  <time>2026-08-28T17:53:20Z</time>
  <course>193.63</course>
  <speed>1.3824615727028364</speed>
  <fix>3d</fix>
</trkpt>
<trkpt lat="40.0713966" lon="-105.2295759">
  <ele>1583.0</ele>
  <time>2026-08-28T17:53:20Z</time>
  <course>177.54</course>
  <speed>1.36</speed>
  <fix>3d</fix>
</trkpt>
<trkpt lat="40.0713924" lon="-105.2295767">
  <ele>1583.1</ele>
  <time>2026-08-28T17:53:20Z</time>
  <course>199.56</course>
  <speed>1.3857849761056005</speed>
  <fix>3d</fix>
</trkpt>
<trkpt lat="40.0713941" lon="-105.2295762">
  <ele>1583.0</ele>
  <time>2026-08-28T17:53:20Z</time>
  <course>192.37</course>
  <speed>1.37</speed>
  <fix>3d</fix>
</trkpt>
<trkpt lat="40.0713913" lon="-105.2295774">
  <ele>1583.1</ele>
  <time>2026-08-28T17:53:20Z</time>
  <course>204.51</course>
  <speed>1.382244551445221</speed>
  <fix>3d</fix>
</trkpt>
<trkpt lat="40.0713941" lon="-105.2295762">
  <ele>1583.0</ele>
  <time>2026-08-28T17:53:20Z</time>
  <course>192.37</course>
  <speed>1.37</speed>
  <fix>3d</fix>
</trkpt>
<trkpt lat="40.0713902" lon="-105.2295782">
  <ele>1583.1</ele>
  <time>2026-08-28T17:53:20Z</time>
  <course>208.41</course>
  <speed>1.387984149765407</speed>
  <fix>3d</fix>
</trkpt>
<trkpt lat="40.0713918" lon="-105.2295772">
  <ele>1583.0</ele>
  <time>2026-08-28T17:53:20Z</time>
  <course>203.26</course>
  <speed>1.38</speed>
  <fix>3d</fix>
</trkpt>
<trkpt lat="40.0713892" lon="-105.2295789">
  <ele>1583.1</ele>
  <time>2026-08-28T17:53:20Z</time>
  <course>211.34</course>
  <speed>1.3843771162512042</speed>
  <fix>3d</fix>
</trkpt>
<trkpt lat="40.0713918" lon="-105.2295772">
  <ele>1583.0</ele>
  <time>2026-08-28T17:53:20Z</time>
  <course>203.26</course>
  <speed>1.38</speed>
  <fix>3d</fix>
</trkpt>
<trkpt lat="40.0713881" lon="-105.2295798">
  <ele>1583.1</ele>
  <time>2026-08-28T17:53:20Z</time>
  <course>213.81</course>
  <speed>1.3869751259485514</speed>
  <fix>3d</fix>
</trkpt>
<trkpt lat="40.0713895" lon="-105.2295786">
  <ele>1583.0</ele>
  <time>2026-08-28T17:53:20Z</time>
  <course>210.36</course>
  <speed>1.38</speed>
  <fix>3d</fix>
</trkpt>
<trkpt lat="40.0713871" lon="-105.2295808">
  <ele>1583.1</ele>
  <time>2026-08-28T17:53:20Z</time>
  <course>215.86</course>
  <speed>1.3940229553346675</speed>
  <fix>3d</fix>
</trkpt>
<trkpt lat="40.0713895" lon="-105.2295786">
  <ele>1583.0</ele>
  <time>2026-08-28T17:53:20Z</time>
  <course>210.36</course>
  <speed>1.38</speed>
  <fix>3d</fix>
</trkpt>
<trkpt lat="40.0713859" lon="-105.229582">
  <ele>1583.11</ele>
  <time>2026-08-28T17:53:20Z</time>
  <course>217.86</course>
  <speed>1.3946325680981355</speed>
  <fix>3d</fix>
</trkpt>
<trkpt lat="40.0713875" lon="-105.2295803">
  <ele>1583.0</ele>
  <time>2026-08-28T17:53:20Z</time>
  <course>214.92</course>
  <speed>1.39</speed>
  <fix>3d</fix>
</trkpt>
<trkpt lat="40.0713849" lon="-105.229583">
  <ele>1583.11</ele>
  <time>2026-08-28T17:53:20Z</time>
  <course>219.23</course>
  <speed>1.398177385026664</speed>
  <fix>3d</fix>
</trkpt>
<trkpt lat="40.0713875" lon="-105.2295803">
  <ele>1583.0</ele>
  <time>2026-08-28T17:53:20Z</time>
  <course>214.92</course>
  <speed>1.39</speed>
  <fix>3d</fix>
</trkpt>
<trkpt lat="40.071384" lon="-105.2295841">
  <ele>1583.11</ele>
  <time>2026-08-28T17:53:20Z</time>
  <course>220.37</course>
  <speed>1.3960300856356929</speed>
  <fix>3d</fix>
</trkpt>
<trkpt lat="40.0713855" lon="-105.2295823">
  <ele>1583.0</ele>
  <time>2026-08-28T17:53:20Z</time>
  <course>218.1</course>
  <speed>1.39</speed>
  <fix>3d</fix>
</trkpt>
<trkpt lat="40.071383" lon="-105.2295852">
  <ele>1583.11</ele>
  <time>2026-08-28T17:53:20Z</time>
  <course>221.32</course>
  <speed>1.4018559127100045</speed>
  <fix>3d</fix>
</trkpt>
<trkpt lat="40.0713855" lon="-105.2295823">
  <ele>1583.0</ele>
  <time>2026-08-28T17:53:20Z</time>
  <course>218.1</course>
  <speed>1.39</speed>
  <fix>3d</fix>
</trkpt>
<trkpt lat="40.0713821" lon="-105.2295863">
  <ele>1583.11</ele>
  <time>2026-08-28T17:53:20Z</time>
  <course>222.11</course>
  <speed>1.4012137595670404</speed>
  <fix>3d</fix>
</trkpt>
<trkpt lat="40.0713835" lon="-105.2295843">
  <ele>1583.0</ele>
  <time>2026-08-28T17:53:20Z</time>
  <course>220.3</course>
  <speed>1.4</speed>
  <fix>3d</fix>
</trkpt>
<trkpt lat="40.0713812" lon="-105.2295874">
  <ele>1583.12</ele>
  <time>2026-08-28T17:53:20Z</time>
  <course>222.77</course>
  <speed>1.4075865870347015</speed>
  <fix>3d</fix>
</trkpt>
<trkpt lat="40.0713835" lon="-105.2295843">
  <ele>1583.0</ele>
  <time>2026-08-28T17:53:20Z</time>
  <course>220.3</course>
  <speed>1.4</speed>
  <fix>3d</fix>
</trkpt>
<trkpt lat="40.0713803" lon="-105.2295885">
  <ele>1583.12</ele>
  <time>2026-08-28T17:53:20Z</time>
  <course>223.31</course>
  <speed>1.4073023839957068</speed>
  <fix>3d</fix>
</trkpt>
<trkpt lat="40.0713816" lon="-105.2295866">
  <ele>1583.0</ele>
  <time>2026-08-28T17:53:20Z</time>
  <course>221.82</course>
  <speed>1.4</speed>
  <fix>3d</fix>
</trkpt>
<trkpt lat="40.0713794" lon="-105.2295896">
  <ele>1583.12</ele>
  <time>2026-08-28T17:53:20Z</time>
  <course>223.76</course>
  <speed>1.400142849854971</speed>
  <fix>3d</fix>
</trkpt>
<trkpt lat="40.0713816" lon="-105.2295866">
  <ele>1583.0</ele>
  <time>2026-08-28T17:53:20Z</time>
  <course>221.82</course>
  <speed>1.4</speed>
  <fix>3d</fix>
</trkpt>
<trkpt lat="40.0713785" lon="-105.2295907">
  <ele>1583.12</ele>
  <time>2026-08-28T17:53:20Z</time>
  <course>224.13</course>
  <speed>1.4071602609511116</speed>
  <fix>3d</fix>
</trkpt>
<trkpt lat="40.0713797" lon="-105.2295887">
  <ele>1583.0</ele>
  <time>2026-08-28T17:53:20Z</time>
  <course>222.87</course>
  <speed>1.4</speed>
  <fix>3d</fix>
</trkpt>
<trkpt lat="40.0713776" lon="-105.2295918">
  <ele>1583.13</ele>
  <time>2026-08-28T17:53:20Z</time>
  <course>224.44</course>
  <speed>1.4000714267493641</speed>
  <fix>3d</fix>
</trkpt>
<trkpt lat="40.0713797" lon="-105.2295887">
  <ele>1583.0</ele>
  <time>2026-08-28T17:53:20Z</time>
  <course>222.87</course>
  <speed>1.4</speed>
  <fix>3d</fix>
</trkpt>
<trkpt lat="40.0713767" lon="-105.229593">
  <ele>1583.13</ele>
  <time>2026-08-28T17:53:20Z</time>
  <course>224.69</course>
  <speed>1.4071602609511116</speed>
  <fix>3d</fix>
</trkpt>
<trkpt lat="40.0713779" lon="-105.229591">
  <ele>1583.0</ele>
  <time>2026-08-28T17:53:20Z</time>
  <course>223.59</course>
  <speed>1.41</speed>
  <fix>3d</fix>
</trkpt>
<trkpt lat="40.0713759" lon="-105.2295939">
  <ele>1583.13</ele>
  <time>2026-08-28T17:53:20Z</time>
  <course>224.86</course>
  <speed>1.4071602609511116</speed>
  <fix>3d</fix>
</trkpt>
<trkpt lat="40.0713779" lon="-105.229591">
  <ele>1583.0</ele>
  <time>2026-08-28T17:53:20Z</time>
  <course>223.59</course>
  <speed>1.41</speed>
  <fix>3d</fix>
</trkpt>
<trkpt lat="40.0713751" lon="-105.229595">
  <ele>1583.13</ele>
  <time>2026-08-28T17:53:20Z</time>
  <course>225.05</course>
  <speed>1.400142849854971</speed>
  <fix>3d</fix>
</trkpt>
<trkpt lat="40.071376" lon="-105.2295933">
  <ele>1583.0</ele>
  <time>2026-08-28T17:53:20Z</time>
  <course>224.08</course>
  <speed>1.41</speed>
  <fix>3d</fix>
</trkpt>
<trkpt lat="40.0713741" lon="-105.2295962">
  <ele>1583.13</ele>
  <time>2026-08-28T17:53:20Z</time>
  <course>225.19</course>
  <speed>1.400142849854971</speed>
  <fix>3d</fix>
</trkpt>
<trkpt lat="40.071376" lon="-105.2295933">
  <ele>1583.0</ele>
  <time>2026-08-28T17:53:20Z</time>
  <course>224.08</course>
  <speed>1.41</speed>
  <fix>3d</fix>
</trkpt>
<trkpt lat="40.0713733" lon="-105.2295973">
  <ele>1583.13</ele>
  <time>2026-08-28T17:53:20Z</time>
  <course>225.31</course>
  <speed>1.400142849854971</speed>
  <fix>3d</fix>
</trkpt>
<trkpt lat="40.0713743" lon="-105.2295956">
  <ele>1583.0</ele>
  <time>2026-08-28T17:53:20Z</time>
  <course>224.4</course>
  <speed>1.41</speed>
  <fix>3d</fix>
</trkpt>
<trkpt lat="40.0713723" lon="-105.2295985">
  <ele>1583.13</ele>
  <time>2026-08-28T17:53:20Z</time>
  <course>225.4</course>
  <speed>1.4073023839957068</speed>
  <fix>3d</fix>
</trkpt>
<trkpt lat="40.0713743" lon="-105.2295956">
  <ele>1583.0</ele>
  <time>2026-08-28T17:53:20Z</time>
  <course>224.4</course>
  <speed>1.41</speed>
  <fix>3d</fix>
</trkpt>
<trkpt lat="40.0713714" lon="-105.2295996">
  <ele>1583.12</ele>
  <time>2026-08-28T17:53:20Z</time>
  <course>225.48</course>
  <speed>1.4073023839957068</speed>
  <fix>3d</fix>
</trkpt>
<trkpt lat="40.0713724" lon="-105.229598">
  <ele>1583.0</ele>
  <time>2026-08-28T17:53:20Z</time>
  <course>224.62</course>
  <speed>1.41</speed>
  <fix>3d</fix>
</trkpt>
<trkpt lat="40.0713705" lon="-105.2296008">
  <ele>1583.12</ele>
  <time>2026-08-28T17:53:20Z</time>
  <course>225.54</course>
  <speed>1.4073023839957068</speed>
  <fix>3d</fix>
</trkpt>
<trkpt lat="40.0713724" lon="-105.229598">
  <ele>1583.0</ele>
  <time>2026-08-28T17:53:20Z</time>
  <course>224.62</course>
  <speed>1.41</speed>
  <fix>3d</fix>
</trkpt>
<trkpt lat="40.0713696" lon="-105.229602">
  <ele>1583.12</ele>
  <time>2026-08-28T17:53:20Z</time>
  <course>225.58</course>
  <speed>1.4073023839957068</speed>
  <fix>3d</fix>
</trkpt>
<trkpt lat="40.0713705" lon="-105.2296003">
  <ele>1583.0</ele>
  <time>2026-08-28T17:53:20Z</time>
  <course>224.76</course>
  <speed>1.42</speed>
  <fix>3d</fix>
</trkpt>
<trkpt lat="40.0713687" lon="-105.2296032">
  <ele>1583.12</ele>
  <time>2026-08-28T17:53:20Z</time>
  <course>225.62</course>
  <speed>1.4073023839957068</speed>
  <fix>3d</fix>
</trkpt>
<trkpt lat="40.0713705" lon="-105.2296003">
  <ele>1583.0</ele>
  <time>2026-08-28T17:53:20Z</time>
  <course>224.76</course>
  <speed>1.42</speed>
  <fix>3d</fix>
</trkpt>
<trkpt lat="40.0713678" lon="-105.2296044">
  <ele>1583.12</ele>
  <time>2026-08-28T17:53:20Z</time>
  <course>226.4</course>
  <speed>1.4007141035914503</speed>
  <fix>3d</fix>
</trkpt>
<trkpt lat="40.0713688" lon="-105.2296027">
  <ele>1583.0</ele>
  <time>2026-08-28T17:53:20Z</time>
  <course>225.22</course>
  <speed>1.41</speed>
  <fix>3d</fix>
</trkpt>
<trkpt lat="40.0713668" lon="-105.2296058">
  <ele>1583.12</ele>
  <time>2026-08-28T17:53:20Z</time>
  <course>228.85</course>
  <speed>1.367808466123821</speed>
  <fix>3d</fix>
</trkpt>
<trkpt lat="40.0713688" lon="-105.2296027">
  <ele>1583.0</ele>
  <time>2026-08-28T17:53:20Z</time>
  <course>225.22</course>
  <speed>1.41</speed>
  <fix>3d</fix>
</trkpt>
<trkpt lat="40.071366" lon="-105.229607">
  <ele>1583.12</ele>
  <time>2026-08-28T17:53:20Z</time>
  <course>232.08</course>
  <speed>1.3261221663180205</speed>
  <fix>3d</fix>
</trkpt>
<trkpt lat="40.0713671" lon="-105.2296051">
  <ele>1583.0</ele>
  <time>2026-08-28T17:53:20Z</time>
  <course>228.06</course>
  <speed>1.38</speed>
  <fix>3d</fix>
</trkpt>
<trkpt lat="40.0713653" lon="-105.2296083">
  <ele>1583.12</ele>
  <time>2026-08-28T17:53:20Z</time>
  <course>236.39</course>
  <speed>1.2702755606560334</speed>
  <fix>3d</fix>
</trkpt>
<trkpt lat="40.0713671" lon="-105.2296051">
  <ele>1583.0</ele>
  <time>2026-08-28T17:53:20Z</time>
  <course>228.06</course>
  <speed>1.38</speed>
  <fix>3d</fix>
</trkpt>
<trkpt lat="40.0713647" lon="-105.2296095">
  <ele>1583.12</ele>
  <time>2026-08-28T17:53:20Z</time>
  <course>241.73</course>
  <speed>1.1988327656516566</speed>
  <fix>3d</fix>
</trkpt>
<trkpt lat="40.0713656" lon="-105.2296075">
  <ele>1583.0</ele>
  <time>2026-08-28T17:53:20Z</time>
  <course>235.0</course>
  <speed>1.28</speed>
  <fix>3d</fix>
</trkpt>
<trkpt lat="40.0713642" lon="-105.2296107">
  <ele>1583.12</ele>
  <time>2026-08-28T17:53:20Z</time>
  <course>248.07</course>
  <speed>1.1272089424769483</speed>
  <fix>3d</fix>
</trkpt>
<trkpt lat="40.0713656" lon="-105.2296075">
  <ele>1583.0</ele>
  <time>2026-08-28T17:53:20Z</time>
  <course>235.0</course>
  <speed>1.28</speed>
  <fix>3d</fix>
</trkpt>
<trkpt lat="40.0713639" lon="-105.2296119">
  <ele>1583.12</ele>
  <time>2026-08-28T17:53:20Z</time>
  <course>254.99</course>
  <speed>1.0332473082471592</speed>
  <fix>3d</fix>
</trkpt>
<trkpt lat="40.0713645" lon="-105.22961">
  <ele>1583.0</ele>
  <time>2026-08-28T17:53:20Z</time>
  <course>245.92</course>
  <speed>1.14</speed>
  <fix>3d</fix>
</trkpt>
<trkpt lat="40.0713638" lon="-105.2296131">
  <ele>1583.12</ele>
  <time>2026-08-28T17:53:20Z</time>
  <course>261.37</course>
  <speed>0.9291393867445293</speed>
  <fix>3d</fix>
</trkpt>
<trkpt lat="40.0713645" lon="-105.22961">
  <ele>1583.0</ele>
  <time>2026-08-28T17:53:20Z</time>
  <course>245.92</course>
  <speed>1.14</speed>
  <fix>3d</fix>
</trkpt>
<trkpt lat="40.0713637" lon="-105.2296141">
  <ele>1583.12</ele>
  <time>2026-08-28T17:53:20Z</time>
  <course>267.1</course>
  <speed>0.8302409288875127</speed>
  <fix>3d</fix>
</trkpt>
<trkpt lat="40.0713638" lon="-105.2296124">
  <ele>1583.0</ele>
  <time>2026-08-28T17:53:20Z</time>
  <course>258.49</course>
  <speed>0.96</speed>
  <fix>3d</fix>
</trkpt>
<trkpt lat="40.0713637" lon="-105.229615">
  <ele>1583.12</ele>
  <time>2026-08-28T17:53:20Z</time>
  <course>272.13</course>
  <speed>0.711125867902441</speed>
  <fix>3d</fix>
</trkpt>
<trkpt lat="40.0713638" lon="-105.2296124">
  <ele>1583.0</ele>
  <time>2026-08-28T17:53:20Z</time>
  <course>258.49</course>
  <speed>0.96</speed>
  <fix>3d</fix>
</trkpt>
<trkpt lat="40.0713638" lon="-105.2296157">
  <ele>1583.12</ele>
  <time>2026-08-28T17:53:20Z</time>
  <course>276.43</course>
  <speed>0.5953990258641678</speed>
  <fix>3d</fix>
</trkpt>
<trkpt lat="40.0713637" lon="-105.2296144">
  <ele>1583.0</ele>
  <time>2026-08-28T17:53:20Z</time>
  <course>269.38</course>
  <speed>0.74</speed>
  <fix>3d</fix>
</trkpt>
<trkpt lat="40.0713639" lon="-105.2296163">
  <ele>1583.12</ele>
  <time>2026-08-28T17:53:20Z</time>
  <course>279.95</course>
  <speed>0.4687216658103186</speed>
  <fix>3d</fix>
</trkpt>
<trkpt lat="40.0713637" lon="-105.2296144">
  <ele>1583.0</ele>
  <time>2026-08-28T17:53:20Z</time>
  <course>269.38</course>
  <speed>0.74</speed>
  <fix>3d</fix>
</trkpt>
<trkpt lat="40.0713639" lon="-105.2296167">
  <ele>1583.12</ele>
  <time>2026-08-28T17:53:20Z</time>
  <course>282.22</course>
  <speed>0.36138621999185305</speed>
  <fix>3d</fix>
</trkpt>
<trkpt lat="40.0713637" lon="-105.2296159">
  <ele>1583.0</ele>
  <time>2026-08-28T17:53:20Z</time>
  <course>277.4</course>
  <speed>0.51</speed>
  <fix>3d</fix>
</trkpt>
<trkpt lat="40.0713639" lon="-105.229617">
  <ele>1583.11</ele>
  <time>2026-08-28T17:53:20Z</time>
  <course>284.3</course>
  <speed>0.2308679276123039</speed>
  <fix>3d</fix>
</trkpt>
<trkpt lat="40.0713637" lon="-105.2296159">
  <ele>1583.0</ele>
  <time>2026-08-28T17:53:20Z</time>
  <course>277.4</course>
  <speed>0.51</speed>
  <fix>3d</fix>
</trkpt>
<trkpt lat="40.071364" lon="-105.2296172">
  <ele>1583.11</ele>
  <time>2026-08-28T17:53:20Z</time>
  <course>285.58</course>
  <speed>0.10770329614269007</speed>
  <fix>3d</fix>
</trkpt>
<trkpt lat="40.0713638" lon="-105.2296168">
  <ele>1583.0</ele>
  <time>2026-08-28T17:53:20Z</time>
  <course>282.35</course>
  <speed>0.26</speed>
  <fix>3d</fix>
</trkpt>
<trkpt lat="40.071364" lon="-105.2296172">
  <ele>1583.11</ele>
  <time>2026-08-28T17:53:20Z</time>
  <course>286.18</course>
  <speed>0.03605551275463989</speed>
  <fix>3d</fix>
</trkpt>
<trkpt lat="40.0713638" lon="-105.2296168">
  <ele>1583.0</ele>
  <time>2026-08-28T17:53:20Z</time>
  <course>282.35</course>
  <speed>0.26</speed>
  <fix>3d</fix>
</trkpt>
<trkpt lat="40.071364" lon="-105.2296172">
  <ele>1583.11</ele>
  <time>2026-08-28T17:53:20Z</time>
  <course>286.58</course>
  <speed>0.0282842712474619</speed>
  <fix>3d</fix>
</trkpt>
<trkpt lat="40.0713639" lon="-105.2296171">
  <ele>1583.0</ele>
  <time>2026-08-28T17:53:20Z</time>
  <course>285.13</course>
  <speed>0.09</speed>
  <fix>3d</fix>
</trkpt>
<trkpt lat="40.071364" lon="-105.2296172">
  <ele>1583.11</ele>
  <time>2026-08-28T17:53:20Z</time>
  <course>286.96</course>
  <speed>0.0282842712474619</speed>
  <fix>3d</fix>
</trkpt>
<trkpt lat="40.0713639" lon="-105.2296171">
  <ele>1583.0</ele>
  <time>2026-08-28T17:53:20Z</time>
  <course>285.13</course>
  <speed>0.09</speed>
  <fix>3d</fix>
</trkpt>
<trkpt lat="40.071364" lon="-105.2296173">
  <ele>1583.11</ele>
  <time>2026-08-28T17:53:20Z</time>
  <course>287.33</course>
  <speed>0.0282842712474619</speed>
  <fix>3d</fix>
</trkpt>
<trkpt lat="40.0713639" lon="-105.2296173">
  <ele>1583.0</ele>
  <time>2026-08-28T17:53:20Z</time>
  <course>286.18</course>
  <speed>0.05</speed>
  <fix>3d</fix>
</trkpt>
<trkpt lat="40.071364" lon="-105.2296173">
  <ele>1583.11</ele>
  <time>2026-08-28T17:53:20Z</time>
  <course>287.67</course>
  <speed>0.022360679774997897</speed>
  <fix>3d</fix>
</trkpt>
<trkpt lat="40.0713639" lon="-105.2296173">
  <ele>1583.0</ele>
  <time>2026-08-28T17:53:20Z</time>
  <course>286.18</course>
  <speed>0.05</speed>
  <fix>3d</fix>
</trkpt>
<trkpt lat="40.071364" lon="-105.2296173">
  <ele>1583.1</ele>
  <time>2026-08-28T17:53:20Z</time>
  <course>288.0</course>
  <speed>0.022360679774997897</speed>
  <fix>3d</fix>
</trkpt>
<trkpt lat="40.0713639" lon="-105.2296174">
  <ele>1583.0</ele>
  <time>2026-08-28T17:53:20Z</time>
  <course>286.89</course>
  <speed>0.05</speed>
  <fix>3d</fix>
</trkpt>
<trkpt lat="40.071364" lon="-105.2296174">
  <ele>1583.1</ele>
  <time>2026-08-28T17:53:20Z</time>
  <course>288.31</course>
  <speed>0.022360679774997897</speed>
  <fix>3d</fix>
</trkpt>
<trkpt lat="40.0713639" lon="-105.2296174">
  <ele>1583.0</ele>
  <time>2026-08-28T17:53:20Z</time>
  <course>286.89</course>
  <speed>0.05</speed>
  <fix>3d</fix>
</trkpt>
<trkpt lat="40.071364" lon="-105.2296174">
  <ele>1583.1</ele>
  <time>2026-08-28T17:53:20Z</time>
  <course>288.66</course>
  <speed>0.02</speed>
  <fix>3d</fix>
</trkpt>
<trkpt lat="40.0713639" lon="-105.2296175">
  <ele>1583.0</ele>
  <time>2026-08-28T17:53:20Z</time>
  <course>287.53</course>
  <speed>0.04</speed>
  <fix>3d</fix>
</trkpt>
<trkpt lat="40.071364" lon="-105.2296174">
  <ele>1583.11</ele>
  <time>2026-08-28T17:53:20Z</time>
  <course>288.94</course>
  <speed>0.01</speed>
  <fix>3d</fix>
</trkpt>
<trkpt lat="40.0713639" lon="-105.2296175">
  <ele>1583.0</ele>
  <time>2026-08-28T17:53:20Z</time>
  <course>287.53</course>
  <speed>0.04</speed>
  <fix>3d</fix>
</trkpt>
<trkpt lat="40.071364" lon="-105.2296174">
  <ele>1583.11</ele>
  <time>2026-08-28T17:53:20Z</time>
  <course>289.21</course>
  <speed>0.01</speed>
  <fix>3d</fix>
</trkpt>
<trkpt lat="40.0713639" lon="-105.2296176">
  <ele>1583.0</ele>
  <time>2026-08-28T17:53:20Z</time>
  <course>288.11</course>
  <speed>0.04</speed>
  <fix>3d</fix>
</trkpt>
<trkpt lat="40.071364" lon="-105.2296175">
  <ele>1583.11</ele>
  <time>2026-08-28T17:53:20Z</time>
  <course>289.46</course>
  <speed>0.01</speed>
  <fix>3d</fix>
</trkpt>
<trkpt lat="40.0713639" lon="-105.2296176">
  <ele>1583.0</ele>
  <time>2026-08-28T17:53:20Z</time>
  <course>288.11</course>
  <speed>0.04</speed>
  <fix>3d</fix>
</trkpt>
<trkpt lat="40.071364" lon="-105.2296175">
  <ele>1583.11</ele>
  <time>2026-08-28T17:53:20Z</time>
  <course>289.7</course>
  <speed>0.01</speed>
  <fix>3d</fix>
</trkpt>
<trkpt lat="40.071364" lon="-105.2296177">
  <ele>1583.0</ele>
  <time>2026-08-28T17:53:20Z</time>
  <course>288.63</course>
  <speed>0.03</speed>
  <fix>3d</fix>
</trkpt>
<trkpt lat="40.071364" lon="-105.2296175">
  <ele>1583.11</ele>
  <time>2026-08-28T17:53:20Z</time>
  <course>289.93</course>
  <speed>0.01</speed>
  <fix>3d</fix>
</trkpt>
<trkpt lat="40.071364" lon="-105.2296177">
  <ele>1583.0</ele>
  <time>2026-08-28T17:53:20Z</time>
  <course>288.63</course>
  <speed>0.03</speed>
  <fix>3d</fix>
</trkpt>
<trkpt lat="40.0713641" lon="-105.2296175">
  <ele>1583.1</ele>
  <time>2026-08-28T17:53:20Z</time>
  <course>290.15</course>
  <speed>0.01</speed>
  <fix>3d</fix>
</trkpt>
<trkpt lat="40.071364" lon="-105.2296178">
  <ele>1583.0</ele>
  <time>2026-08-28T17:53:20Z</time>
  <course>289.11</course>
  <speed>0.03</speed>
  <fix>3d</fix>
</trkpt>
<trkpt lat="40.0713641" lon="-105.2296176">
  <ele>1583.1</ele>
  <time>2026-08-28T17:53:20Z</time>
  <course>290.35</course>
  <speed>0.01</speed>
  <fix>3d</fix>
</trkpt>
<trkpt lat="40.071364" lon="-105.2296178">
  <ele>1583.0</ele>
  <time>2026-08-28T17:53:20Z</time>
  <course>289.11</course>
  <speed>0.03</speed>
  <fix>3d</fix>
</trkpt>
<trkpt lat="40.0713641" lon="-105.2296176">
  <ele>1583.1</ele>
  <time>2026-08-28T17:53:20Z</time>
  <course>290.55</course>
  <speed>0.01</speed>
  <fix>3d</fix>
</trkpt>
<trkpt lat="40.071364" lon="-105.2296178">
  <ele>1583.0</ele>
  <time>2026-08-28T17:53:20Z</time>
  <course>289.54</course>
  <speed>0.03</speed>
  <fix>3d</fix>
</trkpt>
<trkpt lat="40.0713641" lon="-105.2296176">
  <ele>1583.1</ele>
  <time>2026-08-28T17:53:20Z</time>
  <course>290.74</course>
  <speed>0.01</speed>
  <fix>3d</fix>
</trkpt>
<trkpt lat="40.071364" lon="-105.2296178">
  <ele>1583.0</ele>
  <time>2026-08-28T17:53:20Z</time>
  <course>289.54</course>
  <speed>0.03</speed>
  <fix>3d</fix>
</trkpt>
<trkpt lat="40.0713641" lon="-105.2296176">
  <ele>1583.1</ele>
  <time>2026-08-28T17:53:20Z</time>
  <course>290.92</course>
  <speed>0.01</speed>
  <fix>3d</fix>
</trkpt>
<trkpt lat="40.071364" lon="-105.2296179">
  <ele>1583.0</ele>
  <time>2026-08-28T17:53:20Z</time>
  <course>289.93</course>
  <speed>0.02</speed>
  <fix>3d</fix>
</trkpt>
<trkpt lat="40.0713641" lon="-105.2296176">
  <ele>1583.1</ele>
  <time>2026-08-28T17:53:20Z</time>
  <course>291.05</course>
  <speed>0.01</speed>
  <fix>3d</fix>
</trkpt>
<trkpt lat="40.071364" lon="-105.2296179">
  <ele>1583.0</ele>
  <time>2026-08-28T17:53:20Z</time>
  <course>289.93</course>
  <speed>0.02</speed>
  <fix>3d</fix>
</trkpt>
<trkpt lat="40.0713641" lon="-105.2296177">
  <ele>1583.1</ele>
  <time>2026-08-28T17:53:20Z</time>
  <course>291.03</course>
  <speed>0.01</speed>
  <fix>3d</fix>
</trkpt>
<trkpt lat="40.071364" lon="-105.229618">
  <ele>1583.0</ele>
  <time>2026-08-28T17:53:20Z</time>
  <course>290.19</course>
  <speed>0.02</speed>
  <fix>3d</fix>
</trkpt>
<trkpt lat="40.0713641" lon="-105.2296177">
  <ele>1583.11</ele>
  <time>2026-08-28T17:53:20Z</time>
  <course>290.88</course>
  <speed>0.01</speed>
  <fix>3d</fix>
</trkpt>
<trkpt lat="40.071364" lon="-105.229618">
  <ele>1583.0</ele>
  <time>2026-08-28T17:53:20Z</time>
  <course>290.19</course>
  <speed>0.02</speed>
  <fix>3d</fix>
</trkpt>
<trkpt lat="40.0713641" lon="-105.2296177">
  <ele>1583.11</ele>
  <time>2026-08-28T17:53:20Z</time>
  <course>290.73</course>
  <speed>0.01</speed>
  <fix>3d</fix>
</trkpt>
<trkpt lat="40.071364" lon="-105.2296181">
  <ele>1583.0</ele>
  <time>2026-08-28T17:53:20Z</time>
  <course>290.12</course>
  <speed>0.02</speed>
  <fix>3d</fix>
</trkpt>
<trkpt lat="40.0713641" lon="-105.2296177">
  <ele>1583.11</ele>
  <time>2026-08-28T17:53:20Z</time>
  <course>290.59</course>
  <speed>0.01</speed>
  <fix>3d</fix>
</trkpt>
<trkpt lat="40.071364" lon="-105.2296181">
  <ele>1583.0</ele>
  <time>2026-08-28T17:53:20Z</time>
  <course>290.12</course>
  <speed>0.02</speed>
  <fix>3d</fix>
</trkpt>
<trkpt lat="40.0713641" lon="-105.2296178">
  <ele>1583.11</ele>
  <time>2026-08-28T17:53:20Z</time>
  <course>290.46</course>
  <speed>0.01</speed>
  <fix>3d</fix>
</trkpt>
<trkpt lat="40.0713641" lon="-105.2296181">
  <ele>1583.0</ele>
  <time>2026-08-28T17:53:20Z</time>
  <course>289.84</course>
  <speed>0.02</speed>
  <fix>3d</fix>
</trkpt>
<trkpt lat="40.0713641" lon="-105.2296179">
  <ele>1583.11</ele>
  <time>2026-08-28T17:53:20Z</time>
  <course>290.34</course>
  <speed>0.02</speed>
  <fix>3d</fix>
</trkpt>
<trkpt lat="40.0713641" lon="-105.2296181">
  <ele>1583.0</ele>
  <time>2026-08-28T17:53:20Z</time>
  <course>289.84</course>
  <speed>0.02</speed>
  <fix>3d</fix>
</trkpt>
<trkpt lat="40.0713641" lon="-105.2296179">
  <ele>1583.11</ele>
  <time>2026-08-28T17:53:20Z</time>
  <course>290.22</course>
  <speed>0.022360679774997897</speed>
  <fix>3d</fix>
</trkpt>
<trkpt lat="40.0713642" lon="-105.2296181">
  <ele>1583.0</ele>
  <time>2026-08-28T17:53:20Z</time>
  <course>289.58</course>
  <speed>0.01</speed>
  <fix>3d</fix>
</trkpt>
<trkpt lat="40.0713641" lon="-105.2296179">
  <ele>1583.11</ele>
  <time>2026-08-28T17:53:20Z</time>
  <course>290.1</course>
  <speed>0.022360679774997897</speed>
  <fix>3d</fix>
</trkpt>
<trkpt lat="40.0713642" lon="-105.2296181">
  <ele>1583.0</ele>
  <time>2026-08-28T17:53:20Z</time>
  <course>289.58</course>
  <speed>0.01</speed>
  <fix>3d</fix>
</trkpt>
<trkpt lat="40.0713642" lon="-105.2296179">
  <ele>1583.1</ele>
  <time>2026-08-28T17:53:20Z</time>
  <course>290.0</course>
  <speed>0.022360679774997897</speed>
  <fix>3d</fix>
</trkpt>
<trkpt lat="40.0713642" lon="-105.2296181">
  <ele>1583.0</ele>
  <time>2026-08-28T17:53:20Z</time>
  <course>289.35</course>
  <speed>0.01</speed>
  <fix>3d</fix>
</trkpt>
<trkpt lat="40.0713642" lon="-105.2296179">
  <ele>1583.11</ele>
  <time>2026-08-28T17:53:20Z</time>
  <course>289.88</course>
  <speed>0.022360679774997897</speed>
  <fix>3d</fix>
</trkpt>
<trkpt lat="40.0713642" lon="-105.2296181">
  <ele>1583.0</ele>
  <time>2026-08-28T17:53:20Z</time>
  <course>289.35</course>
  <speed>0.01</speed>
  <fix>3d</fix>
</trkpt>
<trkpt lat="40.0713642" lon="-105.2296179">
  <ele>1583.11</ele>
  <time>2026-08-28T17:53:20Z</time>
  <course>289.78</course>
  <speed>0.022360679774997897</speed>
  <fix>3d</fix>
</trkpt>
<trkpt lat="40.0713642" lon="-105.2296182">
  <ele>1583.0</ele>
  <time>2026-08-28T17:53:20Z</time>
  <course>289.14</course>
  <speed>0.01</speed>
  <fix>3d</fix>
</trkpt>
<trkpt lat="40.0713642" lon="-105.2296179">
  <ele>1583.11</ele>
  <time>2026-08-28T17:53:20Z</time>
  <course>289.69</course>
  <speed>0.022360679774997897</speed>
  <fix>3d</fix>
</trkpt>
<trkpt lat="40.0713642" lon="-105.2296182">
  <ele>1583.0</ele>
  <time>2026-08-28T17:53:20Z</time>
  <course>289.14</course>
  <speed>0.01</speed>
  <fix>3d</fix>
</trkpt>
<trkpt lat="40.0713642" lon="-105.2296179">
  <ele>1583.12</ele>
  <time>2026-08-28T17:53:20Z</time>
  <course>289.6</course>
  <speed>0.022360679774997897</speed>
  <fix>3d</fix>
</trkpt>
<trkpt lat="40.0713642" lon="-105.2296183">
  <ele>1583.0</ele>
  <time>2026-08-28T17:53:20Z</time>
  <course>288.95</course>
  <speed>0.01</speed>
  <fix>3d</fix>
</trkpt>
<trkpt lat="40.0713642" lon="-105.2296179">
  <ele>1583.12</ele>
  <time>2026-08-28T17:53:20Z</time>
  <course>289.52</course>
  <speed>0.022360679774997897</speed>
  <fix>3d</fix>
</trkpt>
<trkpt lat="40.0713642" lon="-105.2296183">
  <ele>1583.0</ele>
  <time>2026-08-28T17:53:20Z</time>
  <course>288.95</course>
  <speed>0.01</speed>
  <fix>3d</fix>
</trkpt>
<trkpt lat="40.0713643" lon="-105.2296179">
  <ele>1583.12</ele>
  <time>2026-08-28T17:53:20Z</time>
  <course>289.44</course>
  <speed>0.022360679774997897</speed>
  <fix>3d</fix>
</trkpt>
<trkpt lat="40.0713642" lon="-105.2296183">
  <ele>1583.0</ele>
  <time>2026-08-28T17:53:20Z</time>
  <course>288.78</course>
  <speed>0.01</speed>
  <fix>3d</fix>
</trkpt>
<trkpt lat="40.0713643" lon="-105.229618">
  <ele>1583.12</ele>
  <time>2026-08-28T17:53:20Z</time>
  <course>289.37</course>
  <speed>0.0316227766016838</speed>
  <fix>3d</fix>
</trkpt>
<trkpt lat="40.0713642" lon="-105.2296183">
  <ele>1583.0</ele>
  <time>2026-08-28T17:53:20Z</time>
  <course>288.78</course>
  <speed>0.01</speed>
  <fix>3d</fix>
</trkpt>
<trkpt lat="40.0713643" lon="-105.229618">
  <ele>1583.13</ele>
  <time>2026-08-28T17:53:20Z</time>
  <course>289.29</course>
  <speed>0.0316227766016838</speed>
  <fix>3d</fix>
</trkpt>
<trkpt lat="40.0713642" lon="-105.2296183">
  <ele>1583.0</ele>
  <time>2026-08-28T17:53:20Z</time>
  <course>288.63</course>
  <speed>0.01</speed>
  <fix>3d</fix>
</trkpt>
<trkpt lat="40.0713643" lon="-105.229618">
  <ele>1583.12</ele>
  <time>2026-08-28T17:53:20Z</time>
  <course>289.23</course>
  <speed>0.0316227766016838</speed>
  <fix>3d</fix>
</trkpt>
<trkpt lat="40.0713642" lon="-105.2296183">
  <ele>1583.0</ele>
  <time>2026-08-28T17:53:20Z</time>
  <course>288.63</course>
  <speed>0.01</speed>
  <fix>3d</fix>
</trkpt>
<trkpt lat="40.0713643" lon="-105.229618">
  <ele>1583.13</ele>
  <time>2026-08-28T17:53:20Z</time>
  <course>289.16</course>
  <speed>0.0316227766016838</speed>
  <fix>3d</fix>
</trkpt>
<trkpt lat="40.0713642" lon="-105.2296183">
  <ele>1583.0</ele>
  <time>2026-08-28T17:53:20Z</time>
  <course>288.49</course>
  <speed>0.01</speed>
  <fix>3d</fix>
</trkpt>
<trkpt lat="40.0713643" lon="-105.229618">
  <ele>1583.13</ele>
  <time>2026-08-28T17:53:20Z</time>
  <course>289.1</course>
  <speed>0.0316227766016838</speed>
  <fix>3d</fix>
</trkpt>
<trkpt lat="40.0713642" lon="-105.2296183">
  <ele>1583.0</ele>
  <time>2026-08-28T17:53:20Z</time>
  <course>288.49</course>
  <speed>0.01</speed>
  <fix>3d</fix>
</trkpt>
<trkpt lat="40.0713643" lon="-105.229618">
  <ele>1583.13</ele>
  <time>2026-08-28T17:53:20Z</time>
  <course>289.05</course>
  <speed>0.0316227766016838</speed>
  <fix>3d</fix>
</trkpt>
<trkpt lat="40.0713642" lon="-105.2296183">
  <ele>1583.0</ele>
  <time>2026-08-28T17:53:20Z</time>
  <course>288.36</course>
  <speed>0.0</speed>
  <fix>3d</fix>
</trkpt>
<trkpt lat="40.0713644" lon="-105.2296181">
  <ele>1583.12</ele>
  <time>2026-08-28T17:53:20Z</time>
  <course>289.0</course>
  <speed>0.0316227766016838</speed>
  <fix>3d</fix>
</trkpt>
<trkpt lat="40.0713642" lon="-105.2296183">
  <ele>1583.0</ele>
  <time>2026-08-28T17:53:20Z</time>
  <course>288.36</course>
  <speed>0.0</speed>
  <fix>3d</fix>
</trkpt>
<trkpt lat="40.0713644" lon="-105.2296181">
  <ele>1583.12</ele>
  <time>2026-08-28T17:53:20Z</time>
  <course>288.94</course>
  <speed>0.0316227766016838</speed>
  <fix>3d</fix>
</trkpt>
<trkpt lat="40.0713642" lon="-105.2296183">
  <ele>1583.0</ele>
  <time>2026-08-28T17:53:20Z</time>
  <course>288.25</course>
  <speed>0.0</speed>
  <fix>3d</fix>
</trkpt>
<trkpt lat="40.0713644" lon="-105.2296181">
  <ele>1583.12</ele>
  <time>2026-08-28T17:53:20Z</time>
  <course>289.01</course>
  <speed>0.04</speed>
  <fix>3d</fix>
</trkpt>
<trkpt lat="40.0713642" lon="-105.2296183">
  <ele>1583.0</ele>
  <time>2026-08-28T17:53:20Z</time>
  <course>288.25</course>
  <speed>0.0</speed>
  <fix>3d</fix>
</trkpt>
<trkpt lat="40.0713644" lon="-105.2296181">
  <ele>1583.13</ele>
  <time>2026-08-28T17:53:20Z</time>
  <course>289.24</course>
  <speed>0.053851648071345036</speed>
  <fix>3d</fix>
</trkpt>
<trkpt lat="40.0713642" lon="-105.2296184">
  <ele>1583.0</ele>
  <time>2026-08-28T17:53:20Z</time>
  <course>288.4</course>
  <speed>0.03</speed>
  <fix>3d</fix>
</trkpt>
<trkpt lat="40.0713644" lon="-105.2296182">
  <ele>1583.13</ele>
  <time>2026-08-28T17:53:20Z</time>
  <course>289.7</course>
  <speed>0.09219544457292887</speed>
  <fix>3d</fix>
</trkpt>
<trkpt lat="40.0713642" lon="-105.2296184">
  <ele>1583.0</ele>
  <time>2026-08-28T17:53:20Z</time>
  <course>288.4</course>
  <speed>0.03</speed>
  <fix>3d</fix>
</trkpt>
<trkpt lat="40.0713645" lon="-105.2296183">
  <ele>1583.13</ele>
  <time>2026-08-28T17:53:20Z</time>
  <course>290.48</course>
  <speed>0.15</speed>
  <fix>3d</fix>
</trkpt>
<trkpt lat="40.0713642" lon="-105.2296186">
  <ele>1583.0</ele>
  <time>2026-08-28T17:53:20Z</time>
  <course>289.37</course>
  <speed>0.1</speed>
  <fix>3d</fix>
</trkpt>
<trkpt lat="40.0713645" lon="-105.2296186">
  <ele>1583.12</ele>
  <time>2026-08-28T17:53:20Z</time>
  <course>291.69</course>
  <speed>0.21633307652783937</speed>
  <fix>3d</fix>
</trkpt>
<trkpt lat="40.0713642" lon="-105.2296186">
  <ele>1583.0</ele>
  <time>2026-08-28T17:53:20Z</time>
  <course>289.37</course>
  <speed>0.1</speed>
  <fix>3d</fix>
</trkpt>
<trkpt lat="40.0713647" lon="-105.2296189">
  <ele>1583.12</ele>
  <time>2026-08-28T17:53:20Z</time>
  <course>293.37</course>
  <speed>0.30528675044947495</speed>
  <fix>3d</fix>
</trkpt>
<trkpt lat="40.0713643" lon="-105.2296189">
  <ele>1583.0</ele>
  <time>2026-08-28T17:53:20Z</time>
  <course>291.6</course>
  <speed>0.23</speed>
  <fix>3d</fix>
</trkpt>
<trkpt lat="40.0713648" lon="-105.2296193">
  <ele>1583.12</ele>
  <time>2026-08-28T17:53:20Z</time>
  <course>295.6</course>
  <speed>0.3996248240537617</speed>
  <fix>3d</fix>
</trkpt>
<trkpt lat="40.0713643" lon="-105.2296189">
  <ele>1583.0</ele>
  <time>2026-08-28T17:53:20Z</time>
  <course>291.6</course>
  <speed>0.23</speed>
  <fix>3d</fix>
</trkpt>
<trkpt lat="40.071365" lon="-105.2296199">
  <ele>1583.12</ele>
  <time>2026-08-28T17:53:20Z</time>
  <course>299.09</course>
  <speed>0.5186520991955976</speed>
  <fix>3d</fix>
</trkpt>
<trkpt lat="40.0713645" lon="-105.2296196">
  <ele>1583.0</ele>
  <time>2026-08-28T17:53:20Z</time>
  <course>295.71</course>
  <speed>0.4</speed>
  <fix>3d</fix>
</trkpt>
<trkpt lat="40.0713653" lon="-105.2296205">
  <ele>1583.12</ele>
  <time>2026-08-28T17:53:20Z</time>
  <course>302.73</course>
  <speed>0.6360031446463138</speed>
  <fix>3d</fix>
</trkpt>
<trkpt lat="40.0713645" lon="-105.2296196">
  <ele>1583.0</ele>
  <time>2026-08-28T17:53:20Z</time>
  <course>295.71</course>
  <speed>0.4</speed>
  <fix>3d</fix>
</trkpt>
<trkpt lat="40.0713657" lon="-105.2296212">
  <ele>1583.12</ele>
  <time>2026-08-28T17:53:20Z</time>
  <course>307.08</course>
  <speed>0.7516648189186453</speed>
  <fix>3d</fix>
</trkpt>
<trkpt lat="40.071365" lon="-105.2296206">
  <ele>1583.0</ele>
  <time>2026-08-28T17:53:20Z</time>
  <course>302.2</course>
  <speed>0.6</speed>
  <fix>3d</fix>
</trkpt>
<trkpt lat="40.0713662" lon="-105.2296219">
  <ele>1583.12</ele>
  <time>2026-08-28T17:53:20Z</time>
  <course>312.1</course>
  <speed>0.862670273047588</speed>
  <fix>3d</fix>
</trkpt>
<trkpt lat="40.071365" lon="-105.2296206">
  <ele>1583.0</ele>
  <time>2026-08-28T17:53:20Z</time>
  <course>302.2</course>
  <speed>0.6</speed>
  <fix>3d</fix>
</trkpt>
<trkpt lat="40.0713667" lon="-105.2296227">
  <ele>1583.12</ele>
  <time>2026-08-28T17:53:20Z</time>
  <course>317.74</course>
  <speed>0.9513148795220223</speed>
  <fix>3d</fix>
</trkpt>
<trkpt lat="40.0713657" lon="-105.2296219">
  <ele>1583.0</ele>
  <time>2026-08-28T17:53:20Z</time>
  <course>311.22</course>
  <speed>0.81</speed>
  <fix>3d</fix>
</trkpt>
<trkpt lat="40.0713674" lon="-105.2296234">
  <ele>1583.12</ele>
  <time>2026-08-28T17:53:20Z</time>
  <course>323.9</course>
  <speed>1.0373041983911953</speed>
  <fix>3d</fix>
</trkpt>
<trkpt lat="40.0713657" lon="-105.2296219">
  <ele>1583.0</ele>
  <time>2026-08-28T17:53:20Z</time>
  <course>311.22</course>
  <speed>0.81</speed>
  <fix>3d</fix>
</trkpt>
<trkpt lat="40.0713682" lon="-105.2296241">
  <ele>1583.12</ele>
  <time>2026-08-28T17:53:20Z</time>
  <course>330.51</course>
  <speed>1.1047624178980746</speed>
  <fix>3d</fix>
</trkpt>
<trkpt lat="40.0713669" lon="-105.2296234">
  <ele>1583.0</ele>
  <time>2026-08-28T17:53:20Z</time>
  <course>322.6</course>
  <speed>0.98</speed>
  <fix>3d</fix>
</trkpt>
<trkpt lat="40.0713691" lon="-105.2296247">
  <ele>1583.12</ele>
  <time>2026-08-28T17:53:20Z</time>
  <course>337.5</course>
  <speed>1.1552056094046634</speed>
  <fix>3d</fix>
</trkpt>
<trkpt lat="40.0713669" lon="-105.2296234">
  <ele>1583.0</ele>
  <time>2026-08-28T17:53:20Z</time>
  <course>322.6</course>
  <speed>0.98</speed>
  <fix>3d</fix>
</trkpt>
<trkpt lat="40.0713701" lon="-105.2296251">
  <ele>1583.12</ele>
  <time>2026-08-28T17:53:20Z</time>
  <course>344.8</course>
  <speed>1.2054044964243331</speed>
  <fix>3d</fix>
</trkpt>
<trkpt lat="40.0713686" lon="-105.2296246">
  <ele>1583.0</ele>
  <time>2026-08-28T17:53:20Z</time>
  <course>335.85</course>
  <speed>1.1</speed>
  <fix>3d</fix>
</trkpt>
<trkpt lat="40.0713712" lon="-105.2296254">
  <ele>1583.12</ele>
  <time>2026-08-28T17:53:20Z</time>
  <course>352.34</course>
  <speed>1.2379418403139946</speed>
  <fix>3d</fix>
</trkpt>
<trkpt lat="40.0713686" lon="-105.2296246">
  <ele>1583.0</ele>
  <time>2026-08-28T17:53:20Z</time>
  <course>335.85</course>
  <speed>1.1</speed>
  <fix>3d</fix>
</trkpt>
<trkpt lat="40.0713723" lon="-105.2296255">
  <ele>1583.12</ele>
  <time>2026-08-28T17:53:20Z</time>
  <course>0.04</course>
  <speed>1.2600396819148196</speed>
  <fix>3d</fix>
</trkpt>
<trkpt lat="40.0713705" lon="-105.2296254">
  <ele>1583.0</ele>
  <time>2026-08-28T17:53:20Z</time>
  <course>350.41</course>
  <speed>1.18</speed>
  <fix>3d</fix>
</trkpt>
<trkpt lat="40.0713732" lon="-105.2296254">
  <ele>1583.12</ele>
  <time>2026-08-28T17:53:20Z</time>
  <course>6.37</course>
  <speed>1.2688971589533962</speed>
  <fix>3d</fix>
</trkpt>
<trkpt lat="40.0713705" lon="-105.2296254">
  <ele>1583.0</ele>
  <time>2026-08-28T17:53:20Z</time>
  <course>350.41</course>
  <speed>1.18</speed>
  <fix>3d</fix>
</trkpt>
<trkpt lat="40.0713743" lon="-105.2296251">
  <ele>1583.12</ele>
  <time>2026-08-28T17:53:20Z</time>
  <course>14.27</course>
  <speed>1.2806248474865698</speed>
  <fix>3d</fix>
</trkpt>
<trkpt lat="40.0713727" lon="-105.2296255">
  <ele>1583.0</ele>
  <time>2026-08-28T17:53:20Z</time>
  <course>5.76</course>
  <speed>1.22</speed>
  <fix>3d</fix>
</trkpt>
<trkpt lat="40.0713753" lon="-105.2296246">
  <ele>1583.12</ele>
  <time>2026-08-28T17:53:20Z</time>
  <course>22.21</course>
  <speed>1.2738916751435343</speed>
  <fix>3d</fix>
</trkpt>
<trkpt lat="40.0713727" lon="-105.2296255">
  <ele>1583.0</ele>
  <time>2026-08-28T17:53:20Z</time>
  <course>5.76</course>
  <speed>1.22</speed>
  <fix>3d</fix>
</trkpt>
<trkpt lat="40.0713763" lon="-105.229624">
  <ele>1583.12</ele>
  <time>2026-08-28T17:53:20Z</time>
  <course>30.09</course>
  <speed>1.26763559432512</speed>
  <fix>3d</fix>
</trkpt>
<trkpt lat="40.0713748" lon="-105.2296248">
  <ele>1583.0</ele>
  <time>2026-08-28T17:53:20Z</time>
  <course>21.49</course>
  <speed>1.23</speed>
  <fix>3d</fix>
</trkpt>
<trkpt lat="40.0713772" lon="-105.2296232">
  <ele>1583.12</ele>
  <time>2026-08-28T17:53:20Z</time>
  <course>38.0</course>
  <speed>1.2621014222319853</speed>
  <fix>3d</fix>
</trkpt>
<trkpt lat="40.0713748" lon="-105.2296248">
  <ele>1583.0</ele>
  <time>2026-08-28T17:53:20Z</time>
  <course>21.49</course>
  <speed>1.23</speed>
  <fix>3d</fix>
</trkpt>
<trkpt lat="40.0713781" lon="-105.2296222">
  <ele>1583.12</ele>
  <time>2026-08-28T17:53:20Z</time>
  <course>45.86</course>
  <speed>1.2445882853377659</speed>
  <fix>3d</fix>
</trkpt>
<trkpt lat="40.0713767" lon="-105.2296235">
  <ele>1583.0</ele>
  <time>2026-08-28T17:53:20Z</time>
  <course>37.26</course>
  <speed>1.22</speed>
  <fix>3d</fix>
</trkpt>
<trkpt lat="40.0713787" lon="-105.2296211">
  <ele>1583.12</ele>
  <time>2026-08-28T17:53:20Z</time>
  <course>53.6</course>
  <speed>1.2220065466273085</speed>
  <fix>3d</fix>
</trkpt>
<trkpt lat="40.0713767" lon="-105.2296235">
  <ele>1583.0</ele>
  <time>2026-08-28T17:53:20Z</time>
  <course>37.26</course>
  <speed>1.22</speed>
  <fix>3d</fix>
</trkpt>
<trkpt lat="40.0713793" lon="-105.2296199">
  <ele>1583.12</ele>
  <time>2026-08-28T17:53:20Z</time>
  <course>60.64</course>
  <speed>1.2093386622447826</speed>
  <fix>3d</fix>
</trkpt>
<trkpt lat="40.0713783" lon="-105.2296215">
  <ele>1583.0</ele>
  <time>2026-08-28T17:53:20Z</time>
  <course>52.47</course>
  <speed>1.2</speed>
  <fix>3d</fix>
</trkpt>
<trkpt lat="40.0713798" lon="-105.2296186">
  <ele>1583.12</ele>
  <time>2026-08-28T17:53:20Z</time>
  <course>66.64</course>
  <speed>1.1818629362155326</speed>
  <fix>3d</fix>
</trkpt>
<trkpt lat="40.0713783" lon="-105.2296215">
  <ele>1583.0</ele>
  <time>2026-08-28T17:53:20Z</time>
  <course>52.47</course>
  <speed>1.2</speed>
  <fix>3d</fix>
</trkpt>
<trkpt lat="40.0713802" lon="-105.2296171">
  <ele>1583.11</ele>
  <time>2026-08-28T17:53:20Z</time>
  <course>72.52</course>
  <speed>1.1543396380615194</speed>
  <fix>3d</fix>
</trkpt>
<trkpt lat="40.0713794" lon="-105.2296191">
  <ele>1583.0</ele>
  <time>2026-08-28T17:53:20Z</time>
  <course>65.33</course>
  <speed>1.17</speed>
  <fix>3d</fix>
</trkpt>
<trkpt lat="40.0713804" lon="-105.2296158">
  <ele>1583.11</ele>
  <time>2026-08-28T17:53:20Z</time>
  <course>76.29</course>
  <speed>1.132651755836718</speed>
  <fix>3d</fix>
</trkpt>
<trkpt lat="40.0713794" lon="-105.2296191">
  <ele>1583.0</ele>
  <time>2026-08-28T17:53:20Z</time>
  <course>65.33</course>
  <speed>1.17</speed>
  <fix>3d</fix>
</trkpt>
<trkpt lat="40.0713806" lon="-105.2296145">
  <ele>1583.11</ele>
  <time>2026-08-28T17:53:20Z</time>
  <course>78.99</course>
  <speed>1.1119802156513396</speed>
  <fix>3d</fix>
</trkpt>
<trkpt lat="40.0713801" lon="-105.2296165">
  <ele>1583.0</ele>
  <time>2026-08-28T17:53:20Z</time>
  <course>74.29</course>
  <speed>1.14</speed>
  <fix>3d</fix>
</trkpt>
<trkpt lat="40.0713808" lon="-105.2296132">
  <ele>1583.11</ele>
  <time>2026-08-28T17:53:20Z</time>
  <course>80.98</course>
  <speed>1.0948972554536796</speed>
  <fix>3d</fix>
</trkpt>
<trkpt lat="40.0713801" lon="-105.2296165">
  <ele>1583.0</ele>
  <time>2026-08-28T17:53:20Z</time>
  <course>74.29</course>
  <speed>1.14</speed>
  <fix>3d</fix>
</trkpt>
<trkpt lat="40.0713809" lon="-105.2296119">
  <ele>1583.11</ele>
  <time>2026-08-28T17:53:20Z</time>
  <course>82.69</course>
  <speed>1.0791200118615167</speed>
  <fix>3d</fix>
</trkpt>
<trkpt lat="40.0713805" lon="-105.229614">
  <ele>1583.0</ele>
  <time>2026-08-28T17:53:20Z</time>
  <course>79.68</course>
  <speed>1.1</speed>
  <fix>3d</fix>
</trkpt>
<trkpt lat="40.071381" lon="-105.2296107">
  <ele>1583.11</ele>
  <time>2026-08-28T17:53:20Z</time>
  <course>84.11</course>
  <speed>1.0557461816175324</speed>
  <fix>3d</fix>
</trkpt>
<trkpt lat="40.0713805" lon="-105.229614">
  <ele>1583.0</ele>
  <time>2026-08-28T17:53:20Z</time>
  <course>79.68</course>
  <speed>1.1</speed>
  <fix>3d</fix>
</trkpt>
<trkpt lat="40.0713811" lon="-105.2296095">
  <ele>1583.11</ele>
  <time>2026-08-28T17:53:20Z</time>
  <course>85.29</course>
  <speed>1.0438869670610895</speed>
  <fix>3d</fix>
</trkpt>
<trkpt lat="40.0713808" lon="-105.2296114">
  <ele>1583.0</ele>
  <time>2026-08-28T17:53:20Z</time>
  <course>82.96</course>
  <speed>1.07</speed>
  <fix>3d</fix>
</trkpt>
<trkpt lat="40.0713811" lon="-105.2296083">
  <ele>1583.11</ele>
  <time>2026-08-28T17:53:20Z</time>
  <course>86.27</course>
  <speed>1.022399139279763</speed>
  <fix>3d</fix>
</trkpt>
<trkpt lat="40.0713808" lon="-105.2296114">
  <ele>1583.0</ele>
  <time>2026-08-28T17:53:20Z</time>
  <course>82.96</course>
  <speed>1.07</speed>
  <fix>3d</fix>
</trkpt>
<trkpt lat="40.0713812" lon="-105.2296071">
  <ele>1583.11</ele>
  <time>2026-08-28T17:53:20Z</time>
  <course>87.09</course>
  <speed>1.011236866416568</speed>
  <fix>3d</fix>
</trkpt>
<trkpt lat="40.071381" lon="-105.229609">
  <ele>1583.0</ele>
  <time>2026-08-28T17:53:20Z</time>
  <course>85.25</course>
  <speed>1.04</speed>
  <fix>3d</fix>
</trkpt>
<trkpt lat="40.0713812" lon="-105.2296059">
  <ele>1583.11</ele>
  <time>2026-08-28T17:53:20Z</time>
  <course>87.76</course>
  <speed>1.0007996802557444</speed>
  <fix>3d</fix>
</trkpt>
<trkpt lat="40.071381" lon="-105.229609">
  <ele>1583.0</ele>
  <time>2026-08-28T17:53:20Z</time>
  <course>85.25</course>
  <speed>1.04</speed>
  <fix>3d</fix>
</trkpt>
<trkpt lat="40.0713812" lon="-105.2296048">
  <ele>1583.11</ele>
  <time>2026-08-28T17:53:20Z</time>
  <course>88.32</course>
  <speed>0.9904544411531506</speed>
  <fix>3d</fix>
</trkpt>
<trkpt lat="40.0713811" lon="-105.2296066">
  <ele>1583.0</ele>
  <time>2026-08-28T17:53:20Z</time>
  <course>86.82</course>
  <speed>1.02</speed>
  <fix>3d</fix>
</trkpt>
<trkpt lat="40.0713812" lon="-105.2296036">
  <ele>1583.11</ele>
  <time>2026-08-28T17:53:20Z</time>
  <course>88.78</course>
  <speed>0.9802040603874276</speed>
  <fix>3d</fix>
</trkpt>
<trkpt lat="40.0713811" lon="-105.2296066">
  <ele>1583.0</ele>
  <time>2026-08-28T17:53:20Z</time>
  <course>86.82</course>
  <speed>1.02</speed>
  <fix>3d</fix>
</trkpt>
<trkpt lat="40.0713812" lon="-105.2296027">
  <ele>1583.11</ele>
  <time>2026-08-28T17:53:20Z</time>
  <course>89.09</course>
  <speed>0.970051545022222</speed>
  <fix>3d</fix>
</trkpt>
<trkpt lat="40.0713812" lon="-105.2296042">
  <ele>1583.0</ele>
  <time>2026-08-28T17:53:20Z</time>
  <course>87.9</course>
  <speed>1.01</speed>
  <fix>3d</fix>
</trkpt>
<trkpt lat="40.0713812" lon="-105.2296016">
  <ele>1583.11</ele>
  <time>2026-08-28T17:53:20Z</time>
  <course>89.41</course>
  <speed>0.970051545022222</speed>
  <fix>3d</fix>
</trkpt>
<trkpt lat="40.0713812" lon="-105.2296042">
  <ele>1583.0</ele>
  <time>2026-08-28T17:53:20Z</time>
  <course>87.9</course>
  <speed>1.01</speed>
  <fix>3d</fix>
</trkpt>
<trkpt lat="40.0713813" lon="-105.2296004">
  <ele>1583.11</ele>
  <time>2026-08-28T17:53:20Z</time>
  <course>89.67</course>
  <speed>0.96</speed>
  <fix>3d</fix>
</trkpt>
<trkpt lat="40.0713813" lon="-105.2296018">
  <ele>1583.0</ele>
  <time>2026-08-28T17:53:20Z</time>
  <course>88.62</course>
  <speed>1.0</speed>
  <fix>3d</fix>
</trkpt>
<trkpt lat="40.0713813" lon="-105.2295993">
  <ele>1583.11</ele>
  <time>2026-08-28T17:53:20Z</time>
  <course>89.89</course>
  <speed>0.96</speed>
  <fix>3d</fix>
</trkpt>
<trkpt lat="40.0713813" lon="-105.2296018">
  <ele>1583.0</ele>
  <time>2026-08-28T17:53:20Z</time>
  <course>88.62</course>
  <speed>1.0</speed>
  <fix>3d</fix>
</trkpt>
<trkpt lat="40.0713813" lon="-105.2295981">
  <ele>1583.1</ele>
  <time>2026-08-28T17:53:20Z</time>
  <course>90.07</course>
  <speed>0.96</speed>
  <fix>3d</fix>
</trkpt>
<trkpt lat="40.0713813" lon="-105.2295994">
  <ele>1583.0</ele>
  <time>2026-08-28T17:53:20Z</time>
  <course>89.12</course>
  <speed>0.99</speed>
  <fix>3d</fix>
</trkpt>
<trkpt lat="40.0713813" lon="-105.229597">
  <ele>1583.1</ele>
  <time>2026-08-28T17:53:20Z</time>
  <course>90.21</course>
  <speed>0.96</speed>
  <fix>3d</fix>
</trkpt>
<trkpt lat="40.0713813" lon="-105.2295994">
  <ele>1583.0</ele>
  <time>2026-08-28T17:53:20Z</time>
  <course>89.12</course>
  <speed>0.99</speed>
  <fix>3d</fix>
</trkpt>
<trkpt lat="40.0713813" lon="-105.2295958">
  <ele>1583.1</ele>
  <time>2026-08-28T17:53:20Z</time>
  <course>90.33</course>
  <speed>0.96</speed>
  <fix>3d</fix>
</trkpt>
<trkpt lat="40.0713814" lon="-105.2295971">
  <ele>1583.0</ele>
  <time>2026-08-28T17:53:20Z</time>
  <course>89.44</course>
  <speed>0.99</speed>
  <fix>3d</fix>
</trkpt>
<trkpt lat="40.0713813" lon="-105.2295947">
  <ele>1583.1</ele>
  <time>2026-08-28T17:53:20Z</time>
  <course>90.42</course>
  <speed>0.96</speed>
  <fix>3d</fix>
</trkpt>
<trkpt lat="40.0713814" lon="-105.2295971">
  <ele>1583.0</ele>
  <time>2026-08-28T17:53:20Z</time>
  <course>89.44</course>
  <speed>0.99</speed>
  <fix>3d</fix>
</trkpt>
<trkpt lat="40.0713813" lon="-105.2295935">
  <ele>1583.1</ele>
  <time>2026-08-28T17:53:20Z</time>
  <course>90.5</course>
  <speed>0.96</speed>
  <fix>3d</fix>
</trkpt>
<trkpt lat="40.0713814" lon="-105.2295948">
  <ele>1583.0</ele>
  <time>2026-08-28T17:53:20Z</time>
  <course>89.66</course>
  <speed>0.99</speed>
  <fix>3d</fix>
</trkpt>
<trkpt lat="40.0713813" lon="-105.2295921">
  <ele>1583.1</ele>
  <time>2026-08-28T17:53:20Z</time>
  <course>90.57</course>
  <speed>0.96</speed>
  <fix>3d</fix>
</trkpt>
<trkpt lat="40.0713814" lon="-105.2295948">
  <ele>1583.0</ele>
  <time>2026-08-28T17:53:20Z</time>
  <course>89.66</course>
  <speed>0.99</speed>
  <fix>3d</fix>
</trkpt>
<trkpt lat="40.0713813" lon="-105.2295909">
  <ele>1583.1</ele>
  <time>2026-08-28T17:53:20Z</time>
  <course>90.61</course>
  <speed>0.97</speed>
  <fix>3d</fix>
</trkpt>
<trkpt lat="40.0713814" lon="-105.2295924">
  <ele>1583.0</ele>
  <time>2026-08-28T17:53:20Z</time>
  <course>89.8</course>
  <speed>1.0</speed>
  <fix>3d</fix>
</trkpt>
<trkpt lat="40.0713813" lon="-105.2295897">
  <ele>1583.09</ele>
  <time>2026-08-28T17:53:20Z</time>
  <course>90.65</course>
  <speed>0.970051545022222</speed>
  <fix>3d</fix>
</trkpt>
<trkpt lat="40.0713814" lon="-105.2295924">
  <ele>1583.0</ele>
  <time>2026-08-28T17:53:20Z</time>
  <course>89.8</course>
  <speed>1.0</speed>
  <fix>3d</fix>
</trkpt>
<trkpt lat="40.0713813" lon="-105.2295886">
  <ele>1583.09</ele>
  <time>2026-08-28T17:53:20Z</time>
  <course>90.68</course>
  <speed>0.970051545022222</speed>
  <fix>3d</fix>
</trkpt>
<trkpt lat="40.0713814" lon="-105.2295901">
  <ele>1583.0</ele>
  <time>2026-08-28T17:53:20Z</time>
  <course>89.88</course>
  <speed>1.01</speed>
  <fix>3d</fix>
</trkpt>
<trkpt lat="40.0713813" lon="-105.2295874">
  <ele>1583.1</ele>
  <time>2026-08-28T17:53:20Z</time>
  <course>90.69</course>
  <speed>0.970051545022222</speed>
  <fix>3d</fix>
</trkpt>
<trkpt lat="40.0713814" lon="-105.2295901">
  <ele>1583.0</ele>
  <time>2026-08-28T17:53:20Z</time>
  <course>89.88</course>
  <speed>1.01</speed>
  <fix>3d</fix>
</trkpt>
<trkpt lat="40.0713813" lon="-105.2295862">
  <ele>1583.1</ele>
  <time>2026-08-28T17:53:20Z</time>
  <course>90.71</course>
  <speed>0.9800510190801294</speed>
  <fix>3d</fix>
</trkpt>
<trkpt lat="40.0713814" lon="-105.2295877">
  <ele>1583.0</ele>
  <time>2026-08-28T17:53:20Z</time>
  <course>89.93</course>
  <speed>1.01</speed>
  <fix>3d</fix>
</trkpt>
<trkpt lat="40.0713813" lon="-105.229585">
  <ele>1583.1</ele>
  <time>2026-08-28T17:53:20Z</time>
  <course>90.71</course>
  <speed>0.9800510190801294</speed>
  <fix>3d</fix>
</trkpt>
<trkpt lat="40.0713814" lon="-105.2295877">
  <ele>1583.0</ele>
  <time>2026-08-28T17:53:20Z</time>
  <course>89.93</course>
  <speed>1.01</speed>
  <fix>3d</fix>
</trkpt>
<trkpt lat="40.0713813" lon="-105.2295838">
  <ele>1583.1</ele>
  <time>2026-08-28T17:53:20Z</time>
  <course>90.71</course>
  <speed>0.9800510190801294</speed>
  <fix>3d</fix>
</trkpt>
<trkpt lat="40.0713814" lon="-105.2295853">
  <ele>1583.0</ele>
  <time>2026-08-28T17:53:20Z</time>
  <course>89.96</course>
  <speed>1.02</speed>
  <fix>3d</fix>
</trkpt>
<trkpt lat="40.0713813" lon="-105.2295826">
  <ele>1583.1</ele>
  <time>2026-08-28T17:53:20Z</time>
  <course>90.72</course>
  <speed>0.9800510190801294</speed>
  <fix>3d</fix>
</trkpt>
<trkpt lat="40.0713814" lon="-105.2295853">
  <ele>1583.0</ele>
  <time>2026-08-28T17:53:20Z</time>
  <course>89.96</course>
  <speed>1.02</speed>
  <fix>3d</fix>
</trkpt>
<trkpt lat="40.0713813" lon="-105.2295815">
  <ele>1583.1</ele>
  <time>2026-08-28T17:53:20Z</time>
  <course>90.72</course>
  <speed>0.9800510190801294</speed>
  <fix>3d</fix>
</trkpt>
<trkpt lat="40.0713814" lon="-105.2295829">
  <ele>1583.0</ele>
  <time>2026-08-28T17:53:20Z</time>
  <course>89.96</course>
  <speed>1.02</speed>
  <fix>3d</fix>
</trkpt>
<trkpt lat="40.0713813" lon="-105.2295803">
  <ele>1583.1</ele>
  <time>2026-08-28T17:53:20Z</time>
  <course>90.72</course>
  <speed>0.9900505037623081</speed>
  <fix>3d</fix>
</trkpt>
<trkpt lat="40.0713814" lon="-105.2295829">
  <ele>1583.0</ele>
  <time>2026-08-28T17:53:20Z</time>
  <course>89.96</course>
  <speed>1.02</speed>
  <fix>3d</fix>
</trkpt>
<trkpt lat="40.0713813" lon="-105.2295793">
  <ele>1583.1</ele>
  <time>2026-08-28T17:53:20Z</time>
  <course>90.72</course>
  <speed>0.9900505037623081</speed>
  <fix>3d</fix>
</trkpt>
<trkpt lat="40.0713814" lon="-105.2295804">
  <ele>1583.0</ele>
  <time>2026-08-28T17:53:20Z</time>
  <course>89.96</course>
  <speed>1.03</speed>
  <fix>3d</fix>
</trkpt>
<trkpt lat="40.0713813" lon="-105.2295781">
  <ele>1583.09</ele>
  <time>2026-08-28T17:53:20Z</time>
  <course>90.72</course>
  <speed>0.9900505037623081</speed>
  <fix>3d</fix>
</trkpt>
<trkpt lat="40.0713814" lon="-105.2295804">
  <ele>1583.0</ele>
  <time>2026-08-28T17:53:20Z</time>
  <course>89.96</course>
  <speed>1.03</speed>
  <fix>3d</fix>
</trkpt>
<trkpt lat="40.0713813" lon="-105.2295769">
  <ele>1583.09</ele>
  <time>2026-08-28T17:53:20Z</time>
  <course>90.72</course>
  <speed>0.9900505037623081</speed>
  <fix>3d</fix>
</trkpt>
<trkpt lat="40.0713814" lon="-105.2295779">
  <ele>1583.0</ele>
  <time>2026-08-28T17:53:20Z</time>
  <course>89.96</course>
  <speed>1.03</speed>
  <fix>3d</fix>
</trkpt>
<trkpt lat="40.0713813" lon="-105.2295756">
  <ele>1583.09</ele>
  <time>2026-08-28T17:53:20Z</time>
  <course>90.72</course>
  <speed>1.0000499987500624</speed>
  <fix>3d</fix>
</trkpt>
<trkpt lat="40.0713814" lon="-105.2295779">
  <ele>1583.0</ele>
  <time>2026-08-28T17:53:20Z</time>
  <course>89.96</course>
  <speed>1.03</speed>
  <fix>3d</fix>
</trkpt>
<trkpt lat="40.0713813" lon="-105.2295744">
  <ele>1583.09</ele>
  <time>2026-08-28T17:53:20Z</time>
  <course>90.71</course>
  <speed>1.0000499987500624</speed>
  <fix>3d</fix>
</trkpt>
<trkpt lat="40.0713814" lon="-105.2295755">
  <ele>1583.0</ele>
  <time>2026-08-28T17:53:20Z</time>
  <course>89.95</course>
  <speed>1.04</speed>
  <fix>3d</fix>
</trkpt>
<trkpt lat="40.0713813" lon="-105.2295732">
  <ele>1583.09</ele>
  <time>2026-08-28T17:53:20Z</time>
  <course>90.7</course>
  <speed>1.0000499987500624</speed>
  <fix>3d</fix>
</trkpt>
<trkpt lat="40.0713814" lon="-105.2295755">
  <ele>1583.0</ele>
  <time>2026-08-28T17:53:20Z</time>
  <course>89.95</course>
  <speed>1.04</speed>
  <fix>3d</fix>
</trkpt>
<trkpt lat="40.0713813" lon="-105.2295719">
  <ele>1583.08</ele>
  <time>2026-08-28T17:53:20Z</time>
  <course>90.69</course>
  <speed>1.000199980003999</speed>
  <fix>3d</fix>
</trkpt>
<trkpt lat="40.0713814" lon="-105.2295731">
  <ele>1583.0</ele>
  <time>2026-08-28T17:53:20Z</time>
  <course>89.93</course>
  <speed>1.04</speed>
  <fix>3d</fix>
</trkpt>
<trkpt lat="40.0713813" lon="-105.2295707">
  <ele>1583.08</ele>
  <time>2026-08-28T17:53:20Z</time>
  <course>90.68</course>
  <speed>1.000199980003999</speed>
  <fix>3d</fix>
</trkpt>
<trkpt lat="40.0713814" lon="-105.2295731">
  <ele>1583.0</ele>
  <time>2026-08-28T17:53:20Z</time>
  <course>89.93</course>
  <speed>1.04</speed>
  <fix>3d</fix>
</trkpt>
<trkpt lat="40.0713813" lon="-105.2295695">
  <ele>1583.09</ele>
  <time>2026-08-28T17:53:20Z</time>
  <course>90.66</course>
  <speed>1.000199980003999</speed>
  <fix>3d</fix>
</trkpt>
<trkpt lat="40.0713814" lon="-105.2295706">
  <ele>1583.0</ele>
  <time>2026-08-28T17:53:20Z</time>
  <course>89.91</course>
  <speed>1.04</speed>
  <fix>3d</fix>
</trkpt>
<trkpt lat="40.0713813" lon="-105.2295682">
  <ele>1583.09</ele>
  <time>2026-08-28T17:53:20Z</time>
  <course>90.65</course>
  <speed>1.000199980003999</speed>
  <fix>3d</fix>
</trkpt>
<trkpt lat="40.0713814" lon="-105.2295706">
  <ele>1583.0</ele>
  <time>2026-08-28T17:53:20Z</time>
  <course>89.91</course>
  <speed>1.04</speed>
  <fix>3d</fix>
</trkpt>
<trkpt lat="40.0713813" lon="-105.2295667">
  <ele>1583.09</ele>
  <time>2026-08-28T17:53:20Z</time>
  <course>90.64</course>
  <speed>1.000199980003999</speed>
  <fix>3d</fix>
</trkpt>
<trkpt lat="40.0713814" lon="-105.2295681">
  <ele>1583.0</ele>
  <time>2026-08-28T17:53:20Z</time>
  <course>89.88</course>
  <speed>1.04</speed>
  <fix>3d</fix>
</trkpt>
<trkpt lat="40.0713813" lon="-105.2295655">
  <ele>1583.09</ele>
  <time>2026-08-28T17:53:20Z</time>
  <course>90.62</course>
  <speed>1.010198000393982</speed>
  <fix>3d</fix>
</trkpt>
<trkpt lat="40.0713814" lon="-105.2295681">
  <ele>1583.0</ele>
  <time>2026-08-28T17:53:20Z</time>
  <course>89.88</course>
  <speed>1.04</speed>
  <fix>3d</fix>
</trkpt>
<trkpt lat="40.0713813" lon="-105.2295642">
  <ele>1583.09</ele>
  <time>2026-08-28T17:53:20Z</time>
  <course>90.61</course>
  <speed>1.010198000393982</speed>
  <fix>3d</fix>
</trkpt>
<trkpt lat="40.0713814" lon="-105.2295657">
  <ele>1583.0</ele>
  <time>2026-08-28T17:53:20Z</time>
  <course>89.85</course>
  <speed>1.04</speed>
  <fix>3d</fix>
</trkpt>
<trkpt lat="40.0713813" lon="-105.229563">
  <ele>1583.08</ele>
  <time>2026-08-28T17:53:20Z</time>
  <course>90.6</course>
  <speed>1.010198000393982</speed>
  <fix>3d</fix>
</trkpt>
<trkpt lat="40.0713814" lon="-105.2295657">
  <ele>1583.0</ele>
  <time>2026-08-28T17:53:20Z</time>
  <course>89.85</course>
  <speed>1.04</speed>
  <fix>3d</fix>
</trkpt>
<trkpt lat="40.0713813" lon="-105.2295618">
  <ele>1583.08</ele>
  <time>2026-08-28T17:53:20Z</time>
  <course>90.59</course>
  <speed>1.010198000393982</speed>
  <fix>3d</fix>
</trkpt>
<trkpt lat="40.0713814" lon="-105.2295633">
  <ele>1583.0</ele>
  <time>2026-08-28T17:53:20Z</time>
  <course>89.82</course>
  <speed>1.04</speed>
  <fix>3d</fix>
</trkpt>
<trkpt lat="40.0713813" lon="-105.2295606">
  <ele>1583.08</ele>
  <time>2026-08-28T17:53:20Z</time>
  <course>90.57</course>
  <speed>1.000199980003999</speed>
  <fix>3d</fix>
</trkpt>
<trkpt lat="40.0713814" lon="-105.2295633">
  <ele>1583.0</ele>
  <time>2026-08-28T17:53:20Z</time>
  <course>89.82</course>
  <speed>1.04</speed>
  <fix>3d</fix>
</trkpt>
<trkpt lat="40.0713813" lon="-105.2295593">
  <ele>1583.08</ele>
  <time>2026-08-28T17:53:20Z</time>
  <course>90.56</course>
  <speed>1.000199980003999</speed>
  <fix>3d</fix>
</trkpt>
<trkpt lat="40.0713814" lon="-105.2295608">
  <ele>1583.0</ele>
  <time>2026-08-28T17:53:20Z</time>
  <course>89.8</course>
  <speed>1.04</speed>
  <fix>3d</fix>
</trkpt>
<trkpt lat="40.0713813" lon="-105.2295581">
  <ele>1583.07</ele>
  <time>2026-08-28T17:53:20Z</time>
  <course>90.55</course>
  <speed>1.000199980003999</speed>
  <fix>3d</fix>
</trkpt>
<trkpt lat="40.0713814" lon="-105.2295608">
  <ele>1583.0</ele>
  <time>2026-08-28T17:53:20Z</time>
  <course>89.8</course>
  <speed>1.04</speed>
  <fix>3d</fix>
</trkpt>
<trkpt lat="40.0713813" lon="-105.2295569">
  <ele>1583.07</ele>
  <time>2026-08-28T17:53:20Z</time>
  <course>90.54</course>
  <speed>1.0004498987955368</speed>
  <fix>3d</fix>
</trkpt>
<trkpt lat="40.0713814" lon="-105.2295584">
  <ele>1583.0</ele>
  <time>2026-08-28T17:53:20Z</time>
  <course>89.77</course>
  <speed>1.04</speed>
  <fix>3d</fix>
</trkpt>
<trkpt lat="40.0713813" lon="-105.2295557">
  <ele>1583.07</ele>
  <time>2026-08-28T17:53:20Z</time>
  <course>90.53</course>
  <speed>1.0004498987955368</speed>
  <fix>3d</fix>
</trkpt>
<trkpt lat="40.0713814" lon="-105.2295584">
  <ele>1583.0</ele>
  <time>2026-08-28T17:53:20Z</time>
  <course>89.77</course>
  <speed>1.04</speed>
  <fix>3d</fix>
</trkpt>
<trkpt lat="40.0713812" lon="-105.2295545">
  <ele>1583.06</ele>
  <time>2026-08-28T17:53:20Z</time>
  <course>90.52</course>
  <speed>1.0004498987955368</speed>
  <fix>3d</fix>
</trkpt>
<trkpt lat="40.0713814" lon="-105.2295559">
  <ele>1583.0</ele>
  <time>2026-08-28T17:53:20Z</time>
  <course>89.74</course>
  <speed>1.03</speed>
  <fix>3d</fix>
</trkpt>
<trkpt lat="40.0713812" lon="-105.2295535">
  <ele>1583.06</ele>
  <time>2026-08-28T17:53:20Z</time>
  <course>90.51</course>
  <speed>1.0004498987955368</speed>
  <fix>3d</fix>
</trkpt>
<trkpt lat="40.0713814" lon="-105.2295559">
  <ele>1583.0</ele>
  <time>2026-08-28T17:53:20Z</time>
  <course>89.74</course>
  <speed>1.03</speed>
  <fix>3d</fix>
</trkpt>
<trkpt lat="40.0713812" lon="-105.2295523">
  <ele>1583.06</ele>
  <time>2026-08-28T17:53:20Z</time>
  <course>90.5</course>
  <speed>1.0004498987955368</speed>
  <fix>3d</fix>
</trkpt>
<trkpt lat="40.0713814" lon="-105.2295535">
  <ele>1583.0</ele>
  <time>2026-08-28T17:53:20Z</time>
  <course>89.72</course>
  <speed>1.03</speed>
  <fix>3d</fix>
</trkpt>
<trkpt lat="40.0713812" lon="-105.2295511">
  <ele>1583.07</ele>
  <time>2026-08-28T17:53:20Z</time>
  <course>90.49</course>
  <speed>1.0004498987955368</speed>
  <fix>3d</fix>
</trkpt>
<trkpt lat="40.0713814" lon="-105.2295535">
  <ele>1583.0</ele>
  <time>2026-08-28T17:53:20Z</time>
  <course>89.72</course>
  <speed>1.03</speed>
  <fix>3d</fix>
</trkpt>
<trkpt lat="40.0713812" lon="-105.2295499">
  <ele>1583.07</ele>
  <time>2026-08-28T17:53:20Z</time>
  <course>90.48</course>
  <speed>1.0004498987955368</speed>
  <fix>3d</fix>
</trkpt>
<trkpt lat="40.0713814" lon="-105.2295511">
  <ele>1583.0</ele>
  <time>2026-08-28T17:53:20Z</time>
  <course>89.69</course>
  <speed>1.03</speed>
  <fix>3d</fix>
</trkpt>
<trkpt lat="40.0713812" lon="-105.2295487">
  <ele>1583.07</ele>
  <time>2026-08-28T17:53:20Z</time>
  <course>90.47</course>
  <speed>1.0004498987955368</speed>
  <fix>3d</fix>
</trkpt>
<trkpt lat="40.0713814" lon="-105.2295511">
  <ele>1583.0</ele>
  <time>2026-08-28T17:53:20Z</time>
  <course>89.69</course>
  <speed>1.03</speed>
  <fix>3d</fix>
</trkpt>
<trkpt lat="40.0713812" lon="-105.2295475">
  <ele>1583.07</ele>
  <time>2026-08-28T17:53:20Z</time>
  <course>90.46</course>
  <speed>1.0004498987955368</speed>
  <fix>3d</fix>
</trkpt>
<trkpt lat="40.0713815" lon="-105.2295486">
  <ele>1583.0</ele>
  <time>2026-08-28T17:53:20Z</time>
  <course>89.67</course>
  <speed>1.03</speed>
  <fix>3d</fix>
</trkpt>
<trkpt lat="40.0713812" lon="-105.2295462">
  <ele>1583.07</ele>
  <time>2026-08-28T17:53:20Z</time>
  <course>90.46</course>
  <speed>1.0004498987955368</speed>
  <fix>3d</fix>
</trkpt>
<trkpt lat="40.0713815" lon="-105.2295486">
  <ele>1583.0</ele>
  <time>2026-08-28T17:53:20Z</time>
  <course>89.67</course>
  <speed>1.03</speed>
  <fix>3d</fix>
</trkpt>
<trkpt lat="40.0713812" lon="-105.229545">
  <ele>1583.07</ele>
  <time>2026-08-28T17:53:20Z</time>
  <course>90.45</course>
  <speed>1.0004498987955368</speed>
  <fix>3d</fix>
</trkpt>
<trkpt lat="40.0713815" lon="-105.2295462">
  <ele>1583.0</ele>
  <time>2026-08-28T17:53:20Z</time>
  <course>89.65</course>
  <speed>1.03</speed>
  <fix>3d</fix>
</trkpt>
<trkpt lat="40.0713812" lon="-105.2295438">
  <ele>1583.07</ele>
  <time>2026-08-28T17:53:20Z</time>
  <course>90.44</course>
  <speed>1.0004498987955368</speed>
  <fix>3d</fix>
</trkpt>
<trkpt lat="40.0713815" lon="-105.2295462">
  <ele>1583.0</ele>
  <time>2026-08-28T17:53:20Z</time>
  <course>89.65</course>
  <speed>1.03</speed>
  <fix>3d</fix>
</trkpt>
<trkpt lat="40.0713812" lon="-105.2295426">
  <ele>1583.07</ele>
  <time>2026-08-28T17:53:20Z</time>
  <course>90.43</course>
  <speed>1.0004498987955368</speed>
  <fix>3d</fix>
</trkpt>
<trkpt lat="40.0713815" lon="-105.2295438">
  <ele>1583.0</ele>
  <time>2026-08-28T17:53:20Z</time>
  <course>89.62</course>
  <speed>1.03</speed>
  <fix>3d</fix>
</trkpt>
<trkpt lat="40.0713812" lon="-105.2295411">
  <ele>1583.07</ele>
  <time>2026-08-28T17:53:20Z</time>
  <course>90.42</course>
  <speed>0.9904544411531506</speed>
  <fix>3d</fix>
</trkpt>
<trkpt lat="40.0713815" lon="-105.2295438">
  <ele>1583.0</ele>
  <time>2026-08-28T17:53:20Z</time>
  <course>89.62</course>
  <speed>1.03</speed>
  <fix>3d</fix>
</trkpt>
<trkpt lat="40.0713812" lon="-105.2295399">
  <ele>1583.07</ele>
  <time>2026-08-28T17:53:20Z</time>
  <course>90.41</course>
  <speed>1.0004498987955368</speed>
  <fix>3d</fix>
</trkpt>
<trkpt lat="40.0713815" lon="-105.2295413">
  <ele>1583.0</ele>
  <time>2026-08-28T17:53:20Z</time>
  <course>89.6</course>
  <speed>1.02</speed>
  <fix>3d</fix>
</trkpt>
<trkpt lat="40.0713812" lon="-105.2295387">
  <ele>1583.07</ele>
  <time>2026-08-28T17:53:20Z</time>
  <course>90.4</course>
  <speed>0.9904544411531506</speed>
  <fix>3d</fix>
</trkpt>
<trkpt lat="40.0713815" lon="-105.2295413">
  <ele>1583.0</ele>
  <time>2026-08-28T17:53:20Z</time>
  <course>89.6</course>
  <speed>1.02</speed>
  <fix>3d</fix>
</trkpt>
<trkpt lat="40.0713812" lon="-105.2295374">
  <ele>1583.07</ele>
  <time>2026-08-28T17:53:20Z</time>
  <course>91.15</course>
  <speed>1.0012492197250393</speed>
  <fix>3d</fix>
</trkpt>
<trkpt lat="40.0713815" lon="-105.2295389">
  <ele>1583.0</ele>
  <time>2026-08-28T17:53:20Z</time>
  <course>89.83</course>
  <speed>1.02</speed>
  <fix>3d</fix>
</trkpt>
<trkpt lat="40.0713812" lon="-105.2295362">
  <ele>1583.07</ele>
  <time>2026-08-28T17:53:20Z</time>
  <course>93.07</course>
  <speed>1.0339245620450266</speed>
  <fix>3d</fix>
</trkpt>
<trkpt lat="40.0713815" lon="-105.2295389">
  <ele>1583.0</ele>
  <time>2026-08-28T17:53:20Z</time>
  <course>89.83</course>
  <speed>1.02</speed>
  <fix>3d</fix>
</trkpt>
<trkpt lat="40.0713811" lon="-105.2295349">
  <ele>1583.07</ele>
  <time>2026-08-28T17:53:20Z</time>
  <course>96.09</course>
  <speed>1.0705606008068858</speed>
  <fix>3d</fix>
</trkpt>
<trkpt lat="40.0713815" lon="-105.2295365">
  <ele>1583.0</ele>
  <time>2026-08-28T17:53:20Z</time>
  <course>92.4</course>
  <speed>1.05</speed>
  <fix>3d</fix>
</trkpt>
<trkpt lat="40.071381" lon="-105.2295336">
  <ele>1583.07</ele>
  <time>2026-08-28T17:53:20Z</time>
  <course>100.18</course>
  <speed>1.1237882362794158</speed>
  <fix>3d</fix>
</trkpt>
<trkpt lat="40.0713815" lon="-105.2295365">
  <ele>1583.0</ele>
  <time>2026-08-28T17:53:20Z</time>
  <course>92.4</course>
  <speed>1.05</speed>
  <fix>3d</fix>
</trkpt>
<trkpt lat="40.0713808" lon="-105.2295323">
  <ele>1583.07</ele>
  <time>2026-08-28T17:53:20Z</time>
  <course>105.34</course>
  <speed>1.1829623831720095</speed>
  <fix>3d</fix>
</trkpt>
<trkpt lat="40.0713813" lon="-105.2295339">
  <ele>1583.0</ele>
  <time>2026-08-28T17:53:20Z</time>
  <course>99.24</course>
  <speed>1.13</speed>
  <fix>3d</fix>
</trkpt>
<trkpt lat="40.0713804" lon="-105.2295309">
  <ele>1583.07</ele>
  <time>2026-08-28T17:53:20Z</time>
  <course>110.43</course>
  <speed>1.2423365083583433</speed>
  <fix>3d</fix>
</trkpt>
<trkpt lat="40.0713813" lon="-105.2295339">
  <ele>1583.0</ele>
  <time>2026-08-28T17:53:20Z</time>
  <course>99.24</course>
  <speed>1.13</speed>
  <fix>3d</fix>
</trkpt>
<trkpt lat="40.07138" lon="-105.2295295">
  <ele>1583.07</ele>
  <time>2026-08-28T17:53:20Z</time>
  <course>114.58</course>
  <speed>1.296919426949878</speed>
  <fix>3d</fix>
</trkpt>
<trkpt lat="40.0713808" lon="-105.2295312">
  <ele>1583.0</ele>
  <time>2026-08-28T17:53:20Z</time>
  <course>108.44</course>
  <speed>1.24</speed>
  <fix>3d</fix>
</trkpt>
<trkpt lat="40.0713794" lon="-105.2295281">
  <ele>1583.07</ele>
  <time>2026-08-28T17:53:20Z</time>
  <course>118.06</course>
  <speed>1.3482581355215328</speed>
  <fix>3d</fix>
</trkpt>
<trkpt lat="40.0713808" lon="-105.2295312">
  <ele>1583.0</ele>
  <time>2026-08-28T17:53:20Z</time>
  <course>108.44</course>
  <speed>1.24</speed>
  <fix>3d</fix>
</trkpt>
<trkpt lat="40.0713789" lon="-105.229527">
  <ele>1583.07</ele>
  <time>2026-08-28T17:53:20Z</time>
  <course>120.45</course>
  <speed>1.3843771162512042</speed>
  <fix>3d</fix>
</trkpt>
<trkpt lat="40.0713799" lon="-105.2295284">
  <ele>1583.0</ele>
  <time>2026-08-28T17:53:20Z</time>
  <course>116.43</course>
  <speed>1.34</speed>
  <fix>3d</fix>
</trkpt>
<trkpt lat="40.0713783" lon="-105.2295255">
  <ele>1583.08</ele>
  <time>2026-08-28T17:53:20Z</time>
  <course>122.96</course>
  <speed>1.4230249470757708</speed>
  <fix>3d</fix>
</trkpt>
<trkpt lat="40.0713799" lon="-105.2295284">
  <ele>1583.0</ele>
  <time>2026-08-28T17:53:20Z</time>
  <course>116.43</course>
  <speed>1.34</speed>
  <fix>3d</fix>
</trkpt>
<trkpt lat="40.0713775" lon="-105.2295241">
  <ele>1583.08</ele>
  <time>2026-08-28T17:53:20Z</time>
  <course>125.05</course>
  <speed>1.45</speed>
  <fix>3d</fix>
</trkpt>
<trkpt lat="40.0713787" lon="-105.2295255">
  <ele>1583.0</ele>
  <time>2026-08-28T17:53:20Z</time>
  <course>121.98</course>
  <speed>1.42</speed>
  <fix>3d</fix>
</trkpt>
<trkpt lat="40.0713767" lon="-105.2295227">
  <ele>1583.08</ele>
  <time>2026-08-28T17:53:20Z</time>
  <course>126.78</course>
  <speed>1.4805404418657397</speed>
  <fix>3d</fix>
</trkpt>
<trkpt lat="40.0713787" lon="-105.2295255">
  <ele>1583.0</ele>
  <time>2026-08-28T17:53:20Z</time>
  <course>121.98</course>
  <speed>1.42</speed>
  <fix>3d</fix>
</trkpt>
<trkpt lat="40.0713759" lon="-105.2295213">
  <ele>1583.09</ele>
  <time>2026-08-28T17:53:20Z</time>
  <course>128.23</course>
  <speed>1.5044600360262148</speed>
  <fix>3d</fix>
</trkpt>
<trkpt lat="40.0713772" lon="-105.2295228">
  <ele>1583.0</ele>
  <time>2026-08-28T17:53:20Z</time>
  <course>125.85</course>
  <speed>1.47</speed>
  <fix>3d</fix>
</trkpt>
<trkpt lat="40.0713751" lon="-105.2295199">
  <ele>1583.09</ele>
  <time>2026-08-28T17:53:20Z</time>
  <course>129.44</course>
  <speed>1.516443206981389</speed>
  <fix>3d</fix>
</trkpt>
<trkpt lat="40.0713772" lon="-105.2295228">
  <ele>1583.0</ele>
  <time>2026-08-28T17:53:20Z</time>
  <course>125.85</course>
  <speed>1.47</speed>
  <fix>3d</fix>
</trkpt>
<trkpt lat="40.0713742" lon="-105.2295185">
  <ele>1583.09</ele>
  <time>2026-08-28T17:53:20Z</time>
  <course>130.45</course>
  <speed>1.5289865924853627</speed>
  <fix>3d</fix>
</trkpt>
<trkpt lat="40.0713756" lon="-105.2295199">
  <ele>1583.0</ele>
  <time>2026-08-28T17:53:20Z</time>
  <course>128.54</course>
  <speed>1.51</speed>
  <fix>3d</fix>
</trkpt>
<trkpt lat="40.0713733" lon="-105.2295171">
  <ele>1583.09</ele>
  <time>2026-08-28T17:53:20Z</time>
  <course>131.3</course>
  <speed>1.5425303886795876</speed>
  <fix>3d</fix>
</trkpt>
<trkpt lat="40.0713756" lon="-105.2295199">
  <ele>1583.0</ele>
  <time>2026-08-28T17:53:20Z</time>
  <course>128.54</course>
  <speed>1.51</speed>
  <fix>3d</fix>
</trkpt>
<trkpt lat="40.0713723" lon="-105.2295158">
  <ele>1583.08</ele>
  <time>2026-08-28T17:53:20Z</time>
  <course>131.99</course>
  <speed>1.5420765220960988</speed>
  <fix>3d</fix>
</trkpt>
<trkpt lat="40.0713739" lon="-105.2295172">
  <ele>1583.0</ele>
  <time>2026-08-28T17:53:20Z</time>
  <course>130.42</course>
  <speed>1.52</speed>
  <fix>3d</fix>
</trkpt>
<trkpt lat="40.0713714" lon="-105.2295144">
  <ele>1583.09</ele>
  <time>2026-08-28T17:53:20Z</time>
  <course>132.57</course>
  <speed>1.5417522498767433</speed>
  <fix>3d</fix>
</trkpt>
<trkpt lat="40.0713739" lon="-105.2295172">
  <ele>1583.0</ele>
  <time>2026-08-28T17:53:20Z</time>
  <course>130.42</course>
  <speed>1.52</speed>
  <fix>3d</fix>
</trkpt>
<trkpt lat="40.0713703" lon="-105.2295128">
  <ele>1583.09</ele>
  <time>2026-08-28T17:53:20Z</time>
  <course>133.14</course>
  <speed>1.5344380078712856</speed>
  <fix>3d</fix>
</trkpt>
<trkpt lat="40.0713721" lon="-105.2295145">
  <ele>1583.0</ele>
  <time>2026-08-28T17:53:20Z</time>
  <course>131.72</course>
  <speed>1.53</speed>
  <fix>3d</fix>
</trkpt>
<trkpt lat="40.0713694" lon="-105.2295115">
  <ele>1583.09</ele>
  <time>2026-08-28T17:53:20Z</time>
  <course>133.53</course>
  <speed>1.5344380078712856</speed>
  <fix>3d</fix>
</trkpt>
<trkpt lat="40.0713721" lon="-105.2295145">
  <ele>1583.0</ele>
  <time>2026-08-28T17:53:20Z</time>
  <course>131.72</course>
  <speed>1.53</speed>
  <fix>3d</fix>
</trkpt>
<trkpt lat="40.0713684" lon="-105.2295102">
  <ele>1583.09</ele>
  <time>2026-08-28T17:53:20Z</time>
  <course>133.85</course>
  <speed>1.5274161188098023</speed>
  <fix>3d</fix>
</trkpt>
<trkpt lat="40.0713702" lon="-105.2295119">
  <ele>1583.0</ele>
  <time>2026-08-28T17:53:20Z</time>
  <course>132.62</course>
  <speed>1.52</speed>
  <fix>3d</fix>
</trkpt>
<trkpt lat="40.0713675" lon="-105.2295089">
  <ele>1583.09</ele>
  <time>2026-08-28T17:53:20Z</time>
  <course>134.12</course>
  <speed>1.5132745950421558</speed>
  <fix>3d</fix>
</trkpt>
<trkpt lat="40.0713702" lon="-105.2295119">
  <ele>1583.0</ele>
  <time>2026-08-28T17:53:20Z</time>
  <course>132.62</course>
  <speed>1.52</speed>
  <fix>3d</fix>
</trkpt>
<trkpt lat="40.0713665" lon="-105.2295076">
  <ele>1583.1</ele>
  <time>2026-08-28T17:53:20Z</time>
  <course>134.34</course>
  <speed>1.506286825275983</speed>
  <fix>3d</fix>
</trkpt>
<trkpt lat="40.0713684" lon="-105.2295092">
  <ele>1583.0</ele>
  <time>2026-08-28T17:53:20Z</time>
  <course>133.25</course>
  <speed>1.51</speed>
  <fix>3d</fix>
</trkpt>
<trkpt lat="40.0713656" lon="-105.2295063">
  <ele>1583.1</ele>
  <time>2026-08-28T17:53:20Z</time>
  <course>134.53</course>
  <speed>1.499333185119305</speed>
  <fix>3d</fix>
</trkpt>
<trkpt lat="40.0713684" lon="-105.2295092">
  <ele>1583.0</ele>
  <time>2026-08-28T17:53:20Z</time>
  <course>133.25</course>
  <speed>1.51</speed>
  <fix>3d</fix>
</trkpt>
<trkpt lat="40.0713647" lon="-105.2295051">
  <ele>1583.1</ele>
  <time>2026-08-28T17:53:20Z</time>
  <course>134.68</course>
  <speed>1.4851935900750448</speed>
  <fix>3d</fix>
</trkpt>
<trkpt lat="40.0713665" lon="-105.2295067">
  <ele>1583.0</ele>
  <time>2026-08-28T17:53:20Z</time>
  <course>133.68</course>
  <speed>1.49</speed>
  <fix>3d</fix>
</trkpt>
<trkpt lat="40.0713638" lon="-105.2295038">
  <ele>1583.1</ele>
  <time>2026-08-28T17:53:20Z</time>
  <course>134.81</course>
  <speed>1.4710540438746633</speed>
  <fix>3d</fix>
</trkpt>
<trkpt lat="40.0713665" lon="-105.2295067">
  <ele>1583.0</ele>
  <time>2026-08-28T17:53:20Z</time>
  <course>133.68</course>
  <speed>1.49</speed>
  <fix>3d</fix>
</trkpt>
<trkpt lat="40.0713629" lon="-105.2295026">
  <ele>1583.11</ele>
  <time>2026-08-28T17:53:20Z</time>
  <course>134.91</course>
  <speed>1.4710540438746633</speed>
  <fix>3d</fix>
</trkpt>
<trkpt lat="40.0713647" lon="-105.2295041">
  <ele>1583.0</ele>
  <time>2026-08-28T17:53:20Z</time>
  <course>133.98</course>
  <speed>1.47</speed>
  <fix>3d</fix>
</trkpt>
<trkpt lat="40.071362" lon="-105.2295014">
  <ele>1583.11</ele>
  <time>2026-08-28T17:53:20Z</time>
  <course>134.99</course>
  <speed>1.4569145479402694</speed>
  <fix>3d</fix>
</trkpt>
<trkpt lat="40.0713647" lon="-105.2295041">
  <ele>1583.0</ele>
  <time>2026-08-28T17:53:20Z</time>
  <course>133.98</course>
  <speed>1.47</speed>
  <fix>3d</fix>
</trkpt>
<trkpt lat="40.0713611" lon="-105.2295002">
  <ele>1583.11</ele>
  <time>2026-08-28T17:53:20Z</time>
  <course>135.06</course>
  <speed>1.4427751037497145</speed>
  <fix>3d</fix>
</trkpt>
<trkpt lat="40.0713628" lon="-105.2295017">
  <ele>1583.0</ele>
  <time>2026-08-28T17:53:20Z</time>
  <course>134.18</course>
  <speed>1.45</speed>
  <fix>3d</fix>
</trkpt>
<trkpt lat="40.0713604" lon="-105.2294992">
  <ele>1583.12</ele>
  <time>2026-08-28T17:53:20Z</time>
  <course>135.11</course>
  <speed>1.4358621103713267</speed>
  <fix>3d</fix>
</trkpt>
<trkpt lat="40.0713628" lon="-105.2295017">
  <ele>1583.0</ele>
  <time>2026-08-28T17:53:20Z</time>
  <course>134.18</course>
  <speed>1.45</speed>
  <fix>3d</fix>
</trkpt>
<trkpt lat="40.0713595" lon="-105.229498">
  <ele>1583.12</ele>
  <time>2026-08-28T17:53:20Z</time>
  <course>135.16</course>
  <speed>1.4286357128393508</speed>
  <fix>3d</fix>
</trkpt>
<trkpt lat="40.0713611" lon="-105.2294993">
  <ele>1583.0</ele>
  <time>2026-08-28T17:53:20Z</time>
  <course>134.32</course>
  <speed>1.43</speed>
  <fix>3d</fix>
</trkpt>
<trkpt lat="40.0713586" lon="-105.2294968">
  <ele>1583.12</ele>
  <time>2026-08-28T17:53:20Z</time>
  <course>135.34</course>
  <speed>1.421724305201258</speed>
  <fix>3d</fix>
</trkpt>
<trkpt lat="40.0713611" lon="-105.2294993">
  <ele>1583.0</ele>
  <time>2026-08-28T17:53:20Z</time>
  <course>134.32</course>
  <speed>1.43</speed>
  <fix>3d</fix>
</trkpt>
<trkpt lat="40.0713578" lon="-105.2294957">
  <ele>1583.12</ele>
  <time>2026-08-28T17:53:20Z</time>
  <course>136.59</course>
  <speed>1.4159802258506295</speed>
  <fix>3d</fix>
</trkpt>
<trkpt lat="40.0713593" lon="-105.2294969">
  <ele>1583.0</ele>
  <time>2026-08-28T17:53:20Z</time>
  <course>135.1</course>
  <speed>1.42</speed>
  <fix>3d</fix>
</trkpt>
<trkpt lat="40.0713568" lon="-105.2294945">
  <ele>1583.12</ele>
  <time>2026-08-28T17:53:20Z</time>
  <course>138.95</course>
  <speed>1.4122676800097071</speed>
  <fix>3d</fix>
</trkpt>
<trkpt lat="40.0713593" lon="-105.2294969">
  <ele>1583.0</ele>
  <time>2026-08-28T17:53:20Z</time>
  <course>135.1</course>
  <speed>1.42</speed>
  <fix>3d</fix>
</trkpt>
<trkpt lat="40.0713559" lon="-105.2294935">
  <ele>1583.12</ele>
  <time>2026-08-28T17:53:20Z</time>
  <course>142.39</course>
  <speed>1.4080127840328722</speed>
  <fix>3d</fix>
</trkpt>
<trkpt lat="40.0713574" lon="-105.2294946">
  <ele>1583.0</ele>
  <time>2026-08-28T17:53:20Z</time>
  <course>138.72</course>
  <speed>1.4</speed>
  <fix>3d</fix>
</trkpt>
<trkpt lat="40.0713549" lon="-105.2294925">
  <ele>1583.12</ele>
  <time>2026-08-28T17:53:20Z</time>
  <course>146.89</course>
  <speed>1.4013208055259867</speed>
  <fix>3d</fix>
</trkpt>
<trkpt lat="40.0713574" lon="-105.2294946">
  <ele>1583.0</ele>
  <time>2026-08-28T17:53:20Z</time>
  <course>138.72</course>
  <speed>1.4</speed>
  <fix>3d</fix>
</trkpt>
<trkpt lat="40.0713538" lon="-105.2294917">
  <ele>1583.12</ele>
  <time>2026-08-28T17:53:20Z</time>
  <course>152.49</course>
  <speed>1.395313584826006</speed>
  <fix>3d</fix>
</trkpt>
<trkpt lat="40.0713554" lon="-105.2294925">
  <ele>1583.0</ele>
  <time>2026-08-28T17:53:20Z</time>
  <course>146.67</course>
  <speed>1.39</speed>
  <fix>3d</fix>
</trkpt>
<trkpt lat="40.0713527" lon="-105.229491">
  <ele>1583.12</ele>
  <time>2026-08-28T17:53:20Z</time>
  <course>159.08</course>
  <speed>1.3917614738165447</speed>
  <fix>3d</fix>
</trkpt>
<trkpt lat="40.0713554" lon="-105.2294925">
  <ele>1583.0</ele>
  <time>2026-08-28T17:53:20Z</time>
  <course>146.67</course>
  <speed>1.39</speed>
  <fix>3d</fix>
</trkpt>
<trkpt lat="40.0713515" lon="-105.2294905">
  <ele>1583.13</ele>
  <time>2026-08-28T17:53:20Z</time>
  <course>166.68</course>
  <speed>1.3905754204644925</speed>
  <fix>3d</fix>
</trkpt>
<trkpt lat="40.0713532" lon="-105.229491">
  <ele>1583.0</ele>
  <time>2026-08-28T17:53:20Z</time>
  <course>158.8</course>
  <speed>1.38</speed>
  <fix>3d</fix>
</trkpt>
<trkpt lat="40.07135" lon="-105.2294903">
  <ele>1583.13</ele>
  <time>2026-08-28T17:53:20Z</time>
  <course>176.98</course>
  <speed>1.3905754204644925</speed>
  <fix>3d</fix>
</trkpt>
<trkpt lat="40.0713532" lon="-105.229491">
  <ele>1583.0</ele>
  <time>2026-08-28T17:53:20Z</time>
  <course>158.8</course>
  <speed>1.38</speed>
  <fix>3d</fix>
</trkpt>
<trkpt lat="40.0713488" lon="-105.2294903">
  <ele>1583.14</ele>
  <time>2026-08-28T17:53:20Z</time>
  <course>185.16</course>
  <speed>1.3970325694127537</speed>
  <fix>3d</fix>
</trkpt>
<trkpt lat="40.0713508" lon="-105.2294903">
  <ele>1583.0</ele>
  <time>2026-08-28T17:53:20Z</time>
  <course>174.37</course>
  <speed>1.37</speed>
  <fix>3d</fix>
</trkpt>
<trkpt lat="40.0713475" lon="-105.2294905">
  <ele>1583.14</ele>
  <time>2026-08-28T17:53:20Z</time>
  <course>192.3</course>
  <speed>1.3971399357258383</speed>
  <fix>3d</fix>
</trkpt>
<trkpt lat="40.0713508" lon="-105.2294903">
  <ele>1583.0</ele>
  <time>2026-08-28T17:53:20Z</time>
  <course>174.37</course>
  <speed>1.37</speed>
  <fix>3d</fix>
</trkpt>
<trkpt lat="40.0713463" lon="-105.229491">
  <ele>1583.14</ele>
  <time>2026-08-28T17:53:20Z</time>
  <course>198.45</course>
  <speed>1.3884163640637488</speed>
  <fix>3d</fix>
</trkpt>
<trkpt lat="40.0713483" lon="-105.2294904">
  <ele>1583.0</ele>
  <time>2026-08-28T17:53:20Z</time>
  <course>189.68</course>
  <speed>1.37</speed>
  <fix>3d</fix>
</trkpt>
<trkpt lat="40.0713452" lon="-105.2294916">
  <ele>1583.14</ele>
  <time>2026-08-28T17:53:20Z</time>
  <course>203.58</course>
  <speed>1.3961733416735902</speed>
  <fix>3d</fix>
</trkpt>
<trkpt lat="40.0713483" lon="-105.2294904">
  <ele>1583.0</ele>
  <time>2026-08-28T17:53:20Z</time>
  <course>189.68</course>
  <speed>1.37</speed>
  <fix>3d</fix>
</trkpt>
<trkpt lat="40.0713441" lon="-105.2294924">
  <ele>1583.14</ele>
  <time>2026-08-28T17:53:20Z</time>
  <course>207.66</course>
  <speed>1.4006427096158394</speed>
  <fix>3d</fix>
</trkpt>
<trkpt lat="40.0713459" lon="-105.2294913">
  <ele>1583.0</ele>
  <time>2026-08-28T17:53:20Z</time>
  <course>201.35</course>
  <speed>1.38</speed>
  <fix>3d</fix>
</trkpt>
<trkpt lat="40.071343" lon="-105.2294932">
  <ele>1583.14</ele>
  <time>2026-08-28T17:53:20Z</time>
  <course>210.72</course>
  <speed>1.3960659010233005</speed>
  <fix>3d</fix>
</trkpt>
<trkpt lat="40.0713459" lon="-105.2294913">
  <ele>1583.0</ele>
  <time>2026-08-28T17:53:20Z</time>
  <course>201.35</course>
  <speed>1.38</speed>
  <fix>3d</fix>
</trkpt>
<trkpt lat="40.071342" lon="-105.2294941">
  <ele>1583.14</ele>
  <time>2026-08-28T17:53:20Z</time>
  <course>213.26</course>
  <speed>1.4034600101178514</speed>
  <fix>3d</fix>
</trkpt>
<trkpt lat="40.0713437" lon="-105.2294927">
  <ele>1583.0</ele>
  <time>2026-08-28T17:53:20Z</time>
  <course>209.1</course>
  <speed>1.38</speed>
  <fix>3d</fix>
</trkpt>
<trkpt lat="40.071341" lon="-105.229495">
  <ele>1583.13</ele>
  <time>2026-08-28T17:53:20Z</time>
  <course>215.38</course>
  <speed>1.402069898400219</speed>
  <fix>3d</fix>
</trkpt>
<trkpt lat="40.0713437" lon="-105.2294927">
  <ele>1583.0</ele>
  <time>2026-08-28T17:53:20Z</time>
  <course>209.1</course>
  <speed>1.38</speed>
  <fix>3d</fix>
</trkpt>
<trkpt lat="40.07134" lon="-105.229496">
  <ele>1583.13</ele>
  <time>2026-08-28T17:53:20Z</time>
  <course>217.16</course>
  <speed>1.3962807740565648</speed>
  <fix>3d</fix>
</trkpt>
<trkpt lat="40.0713415" lon="-105.2294943">
  <ele>1583.0</ele>
  <time>2026-08-28T17:53:20Z</time>
  <course>214.04</course>
  <speed>1.38</speed>
  <fix>3d</fix>
</trkpt>
<trkpt lat="40.071339" lon="-105.229497">
  <ele>1583.12</ele>
  <time>2026-08-28T17:53:20Z</time>
  <course>218.65</course>
  <speed>1.3994641831786907</speed>
  <fix>3d</fix>
</trkpt>
<trkpt lat="40.0713415" lon="-105.2294943">
  <ele>1583.0</ele>
  <time>2026-08-28T17:53:20Z</time>
  <course>214.04</course>
  <speed>1.38</speed>
  <fix>3d</fix>
</trkpt>
<trkpt lat="40.0713383" lon="-105.2294978">
  <ele>1583.12</ele>
  <time>2026-08-28T17:53:20Z</time>
  <course>219.66</course>
  <speed>1.3970325694127537</speed>
  <fix>3d</fix>
</trkpt>
<trkpt lat="40.0713396" lon="-105.2294962">
  <ele>1583.0</ele>
  <time>2026-08-28T17:53:20Z</time>
  <course>217.46</course>
  <speed>1.38</speed>
  <fix>3d</fix>
</trkpt>
<trkpt lat="40.0713373" lon="-105.2294988">
  <ele>1583.12</ele>
  <time>2026-08-28T17:53:20Z</time>
  <course>220.72</course>
  <speed>1.4026403673073151</speed>
  <fix>3d</fix>
</trkpt>
<trkpt lat="40.0713396" lon="-105.2294962">
  <ele>1583.0</ele>
  <time>2026-08-28T17:53:20Z</time>
  <course>217.46</course>
  <speed>1.38</speed>
  <fix>3d</fix>
</trkpt>
<trkpt lat="40.0713364" lon="-105.2294999">
  <ele>1583.12</ele>
  <time>2026-08-28T17:53:20Z</time>
  <course>221.62</course>
  <speed>1.3944532978913278</speed>
  <fix>3d</fix>
</trkpt>
<trkpt lat="40.0713376" lon="-105.2294983">
  <ele>1583.0</ele>
  <time>2026-08-28T17:53:20Z</time>
  <course>219.85</course>
  <speed>1.39</speed>
  <fix>3d</fix>
</trkpt>
<trkpt lat="40.0713355" lon="-105.229501">
  <ele>1583.12</ele>
  <time>2026-08-28T17:53:20Z</time>
  <course>222.35</course>
  <speed>1.3938794782907167</speed>
  <fix>3d</fix>
</trkpt>
<trkpt lat="40.0713376" lon="-105.2294983">
  <ele>1583.0</ele>
  <time>2026-08-28T17:53:20Z</time>
  <course>219.85</course>
  <speed>1.39</speed>
  <fix>3d</fix>
</trkpt>
<trkpt lat="40.0713345" lon="-105.2295021">
  <ele>1583.12</ele>
  <time>2026-08-28T17:53:20Z</time>
  <course>222.96</course>
  <speed>1.3934489585198304</speed>
  <fix>3d</fix>
</trkpt>
<trkpt lat="40.0713357" lon="-105.2295004">
  <ele>1583.0</ele>
  <time>2026-08-28T17:53:20Z</time>
  <course>221.5</course>
  <speed>1.39</speed>
  <fix>3d</fix>
</trkpt>
<trkpt lat="40.0713336" lon="-105.2295032">
  <ele>1583.12</ele>
  <time>2026-08-28T17:53:20Z</time>
  <course>223.47</course>
  <speed>1.4003570973148243</speed>
  <fix>3d</fix>
</trkpt>
<trkpt lat="40.0713357" lon="-105.2295004">
  <ele>1583.0</ele>
  <time>2026-08-28T17:53:20Z</time>
  <course>221.5</course>
  <speed>1.39</speed>
  <fix>3d</fix>
</trkpt>
<trkpt lat="40.0713327" lon="-105.2295043">
  <ele>1583.13</ele>
  <time>2026-08-28T17:53:20Z</time>
  <course>223.89</course>
  <speed>1.400142849854971</speed>
  <fix>3d</fix>
</trkpt>
<trkpt lat="40.0713339" lon="-105.2295026">
  <ele>1583.0</ele>
  <time>2026-08-28T17:53:20Z</time>
  <course>222.64</course>
  <speed>1.39</speed>
  <fix>3d</fix>
</trkpt>
<trkpt lat="40.0713318" lon="-105.2295055">
  <ele>1583.13</ele>
  <time>2026-08-28T17:53:20Z</time>
  <course>224.24</course>
  <speed>1.4071602609511116</speed>
  <fix>3d</fix>
</trkpt>
<trkpt lat="40.0713339" lon="-105.2295026">
  <ele>1583.0</ele>
  <time>2026-08-28T17:53:20Z</time>
  <course>222.64</course>
  <speed>1.39</speed>
  <fix>3d</fix>
</trkpt>
<trkpt lat="40.0713309" lon="-105.2295066">
  <ele>1583.13</ele>
  <time>2026-08-28T17:53:20Z</time>
  <course>224.53</course>
  <speed>1.4000714267493641</speed>
  <fix>3d</fix>
</trkpt>
<trkpt lat="40.071332" lon="-105.2295049">
  <ele>1583.0</ele>
  <time>2026-08-28T17:53:20Z</time>
  <course>223.42</course>
  <speed>1.39</speed>
  <fix>3d</fix>
</trkpt>
<trkpt lat="40.0713298" lon="-105.229508">
  <ele>1583.13</ele>
  <time>2026-08-28T17:53:20Z</time>
  <course>224.81</course>
  <speed>1.4071602609511116</speed>
  <fix>3d</fix>
</trkpt>
<trkpt lat="40.071332" lon="-105.2295049">
  <ele>1583.0</ele>
  <time>2026-08-28T17:53:20Z</time>
  <course>223.42</course>
  <speed>1.39</speed>
  <fix>3d</fix>
</trkpt>
<trkpt lat="40.0713289" lon="-105.2295091">
  <ele>1583.13</ele>
  <time>2026-08-28T17:53:20Z</time>
  <course>225.0</course>
  <speed>1.4071602609511116</speed>
  <fix>3d</fix>
</trkpt>
<trkpt lat="40.0713302" lon="-105.2295071">
  <ele>1583.0</ele>
  <time>2026-08-28T17:53:20Z</time>
  <course>223.96</course>
  <speed>1.4</speed>
  <fix>3d</fix>
</trkpt>
<trkpt lat="40.071328" lon="-105.2295103">
  <ele>1583.14</ele>
  <time>2026-08-28T17:53:20Z</time>
  <course>225.15</course>
  <speed>1.400142849854971</speed>
  <fix>3d</fix>
</trkpt>
<trkpt lat="40.0713302" lon="-105.2295071">
  <ele>1583.0</ele>
  <time>2026-08-28T17:53:20Z</time>
  <course>223.96</course>
  <speed>1.4</speed>
  <fix>3d</fix>
</trkpt>
<trkpt lat="40.0713271" lon="-105.2295115">
  <ele>1583.14</ele>
  <time>2026-08-28T17:53:20Z</time>
  <course>225.28</course>
  <speed>1.400142849854971</speed>
  <fix>3d</fix>
</trkpt>
<trkpt lat="40.0713284" lon="-105.2295094">
  <ele>1583.0</ele>
  <time>2026-08-28T17:53:20Z</time>
  <course>224.32</course>
  <speed>1.4</speed>
  <fix>3d</fix>
</trkpt>
<trkpt lat="40.0713262" lon="-105.2295126">
  <ele>1583.14</ele>
  <time>2026-08-28T17:53:20Z</time>
  <course>225.38</course>
  <speed>1.4073023839957068</speed>
  <fix>3d</fix>
</trkpt>
<trkpt lat="40.0713284" lon="-105.2295094">
  <ele>1583.0</ele>
  <time>2026-08-28T17:53:20Z</time>
  <course>224.32</course>
  <speed>1.4</speed>
  <fix>3d</fix>
</trkpt>
<trkpt lat="40.0713253" lon="-105.2295138">
  <ele>1583.14</ele>
  <time>2026-08-28T17:53:20Z</time>
  <course>225.46</course>
  <speed>1.4073023839957068</speed>
  <fix>3d</fix>
</trkpt>
<trkpt lat="40.0713265" lon="-105.2295117">
  <ele>1583.0</ele>
  <time>2026-08-28T17:53:20Z</time>
  <course>224.56</course>
  <speed>1.4</speed>
  <fix>3d</fix>
</trkpt>
<trkpt lat="40.0713244" lon="-105.2295149">
  <ele>1583.14</ele>
  <time>2026-08-28T17:53:20Z</time>
  <course>225.52</course>
  <speed>1.4073023839957068</speed>
  <fix>3d</fix>
</trkpt>
<trkpt lat="40.0713265" lon="-105.2295117">
  <ele>1583.0</ele>
  <time>2026-08-28T17:53:20Z</time>
  <course>224.56</course>
  <speed>1.4</speed>
  <fix>3d</fix>
</trkpt>
<trkpt lat="40.0713235" lon="-105.2295161">
  <ele>1583.13</ele>
  <time>2026-08-28T17:53:20Z</time>
  <course>225.57</course>
  <speed>1.4073023839957068</speed>
  <fix>3d</fix>
</trkpt>
<trkpt lat="40.0713248" lon="-105.229514">
  <ele>1583.0</ele>
  <time>2026-08-28T17:53:20Z</time>
  <course>224.71</course>
  <speed>1.4</speed>
  <fix>3d</fix>
</trkpt>
<trkpt lat="40.0713226" lon="-105.2295172">
  <ele>1583.13</ele>
  <time>2026-08-28T17:53:20Z</time>
  <course>225.61</course>
  <speed>1.4073023839957068</speed>
  <fix>3d</fix>
</trkpt>
<trkpt lat="40.0713248" lon="-105.229514">
  <ele>1583.0</ele>
  <time>2026-08-28T17:53:20Z</time>
  <course>224.71</course>
  <speed>1.4</speed>
  <fix>3d</fix>
</trkpt>
<trkpt lat="40.0713218" lon="-105.2295184">
  <ele>1583.13</ele>
  <time>2026-08-28T17:53:20Z</time>
  <course>226.39</course>
  <speed>1.3934489585198304</speed>
  <fix>3d</fix>
</trkpt>
<trkpt lat="40.0713229" lon="-105.2295164">
  <ele>1583.0</ele>
  <time>2026-08-28T17:53:20Z</time>
  <course>225.07</course>
  <speed>1.4</speed>
  <fix>3d</fix>
</trkpt>
<trkpt lat="40.0713209" lon="-105.2295195">
  <ele>1583.14</ele>
  <time>2026-08-28T17:53:20Z</time>
  <course>228.32</course>
  <speed>1.3744089638822936</speed>
  <fix>3d</fix>
</trkpt>
<trkpt lat="40.0713229" lon="-105.2295164">
  <ele>1583.0</ele>
  <time>2026-08-28T17:53:20Z</time>
  <course>225.07</course>
  <speed>1.4</speed>
  <fix>3d</fix>
</trkpt>
<trkpt lat="40.0713201" lon="-105.2295207">
  <ele>1583.14</ele>
  <time>2026-08-28T17:53:20Z</time>
  <course>231.35</course>
  <speed>1.330601367803295</speed>
  <fix>3d</fix>
</trkpt>
<trkpt lat="40.0713212" lon="-105.2295187">
  <ele>1583.0</ele>
  <time>2026-08-28T17:53:20Z</time>
  <course>227.57</course>
  <speed>1.37</speed>
  <fix>3d</fix>
</trkpt>
<trkpt lat="40.0713195" lon="-105.2295217">
  <ele>1583.14</ele>
  <time>2026-08-28T17:53:20Z</time>
  <course>234.53</course>
  <speed>1.290348790056394</speed>
  <fix>3d</fix>
</trkpt>
<trkpt lat="40.0713212" lon="-105.2295187">
  <ele>1583.0</ele>
  <time>2026-08-28T17:53:20Z</time>
  <course>227.57</course>
  <speed>1.37</speed>
  <fix>3d</fix>
</trkpt>
<trkpt lat="40.0713189" lon="-105.2295229">
  <ele>1583.14</ele>
  <time>2026-08-28T17:53:20Z</time>
  <course>239.44</course>
  <speed>1.2280065146407002</speed>
  <fix>3d</fix>
</trkpt>
<trkpt lat="40.0713198" lon="-105.2295211">
  <ele>1583.0</ele>
  <time>2026-08-28T17:53:20Z</time>
  <course>234.09</course>
  <speed>1.28</speed>
  <fix>3d</fix>
</trkpt>
<trkpt lat="40.0713184" lon="-105.2295241">
  <ele>1583.14</ele>
  <time>2026-08-28T17:53:20Z</time>
  <course>245.37</course>
  <speed>1.1503912377969505</speed>
  <fix>3d</fix>
</trkpt>
<trkpt lat="40.0713198" lon="-105.2295211">
  <ele>1583.0</ele>
  <time>2026-08-28T17:53:20Z</time>
  <course>234.09</course>
  <speed>1.28</speed>
  <fix>3d</fix>
</trkpt>
<trkpt lat="40.0713181" lon="-105.2295253">
  <ele>1583.14</ele>
  <time>2026-08-28T17:53:20Z</time>
  <course>252.12</course>
  <speed>1.0594810050208545</speed>
  <fix>3d</fix>
</trkpt>
<trkpt lat="40.0713186" lon="-105.2295236">
  <ele>1583.0</ele>
  <time>2026-08-28T17:53:20Z</time>
  <course>244.61</course>
  <speed>1.15</speed>
  <fix>3d</fix>
</trkpt>
<trkpt lat="40.0713179" lon="-105.2295264">
  <ele>1583.14</ele>
  <time>2026-08-28T17:53:20Z</time>
  <course>258.7</course>
  <speed>0.966902270139025</speed>
  <fix>3d</fix>
</trkpt>
<trkpt lat="40.0713186" lon="-105.2295236">
  <ele>1583.0</ele>
  <time>2026-08-28T17:53:20Z</time>
  <course>244.61</course>
  <speed>1.15</speed>
  <fix>3d</fix>
</trkpt>
<trkpt lat="40.0713178" lon="-105.2295275">
  <ele>1583.15</ele>
  <time>2026-08-28T17:53:20Z</time>
  <course>264.66</course>
  <speed>0.8628441342444185</speed>
  <fix>3d</fix>
</trkpt>
<trkpt lat="40.071318" lon="-105.2295259">
  <ele>1583.0</ele>
  <time>2026-08-28T17:53:20Z</time>
  <course>257.07</course>
  <speed>0.97</speed>
  <fix>3d</fix>
</trkpt>
<trkpt lat="40.0713178" lon="-105.2295284">
  <ele>1583.15</ele>
  <time>2026-08-28T17:53:20Z</time>
  <course>269.95</course>
  <speed>0.75</speed>
  <fix>3d</fix>
</trkpt>
<trkpt lat="40.071318" lon="-105.2295259">
  <ele>1583.0</ele>
  <time>2026-08-28T17:53:20Z</time>
  <course>257.07</course>
  <speed>0.97</speed>
  <fix>3d</fix>
</trkpt>
<trkpt lat="40.0713178" lon="-105.2295292">
  <ele>1583.15</ele>
  <time>2026-08-28T17:53:20Z</time>
  <course>274.55</course>
  <speed>0.6328506932918696</speed>
  <fix>3d</fix>
</trkpt>
<trkpt lat="40.0713177" lon="-105.2295279">
  <ele>1583.0</ele>
  <time>2026-08-28T17:53:20Z</time>
  <course>268.16</course>
  <speed>0.76</speed>
  <fix>3d</fix>
</trkpt>
<trkpt lat="40.0713179" lon="-105.2295299">
  <ele>1583.15</ele>
  <time>2026-08-28T17:53:20Z</time>
  <course>278.37</course>
  <speed>0.5162363799656123</speed>
  <fix>3d</fix>
</trkpt>
<trkpt lat="40.0713177" lon="-105.2295279">
  <ele>1583.0</ele>
  <time>2026-08-28T17:53:20Z</time>
  <course>268.16</course>
  <speed>0.76</speed>
  <fix>3d</fix>
</trkpt>
<trkpt lat="40.071318" lon="-105.2295305">
  <ele>1583.15</ele>
  <time>2026-08-28T17:53:20Z</time>
  <course>281.92</course>
  <speed>0.3590264614203248</speed>
  <fix>3d</fix>
</trkpt>
<trkpt lat="40.0713177" lon="-105.2295295">
  <ele>1583.0</ele>
  <time>2026-08-28T17:53:20Z</time>
  <course>276.44</course>
  <speed>0.53</speed>
  <fix>3d</fix>
</trkpt>
<trkpt lat="40.071318" lon="-105.2295308">
  <ele>1583.15</ele>
  <time>2026-08-28T17:53:20Z</time>
  <course>284.0</course>
  <speed>0.24041630560342614</speed>
  <fix>3d</fix>
</trkpt>
<trkpt lat="40.0713177" lon="-105.2295295">
  <ele>1583.0</ele>
  <time>2026-08-28T17:53:20Z</time>
  <course>276.44</course>
  <speed>0.53</speed>
  <fix>3d</fix>
</trkpt>
<trkpt lat="40.071318" lon="-105.2295309">
  <ele>1583.15</ele>
  <time>2026-08-28T17:53:20Z</time>
  <course>285.27</course>
  <speed>0.10770329614269007</speed>
  <fix>3d</fix>
</trkpt>
<trkpt lat="40.0713178" lon="-105.2295305">
  <ele>1583.0</ele>
  <time>2026-08-28T17:53:20Z</time>
  <course>281.68</course>
  <speed>0.28</speed>
  <fix>3d</fix>
</trkpt>
<trkpt lat="40.071318" lon="-105.229531">
  <ele>1583.14</ele>
  <time>2026-08-28T17:53:20Z</time>
  <course>285.87</course>
  <speed>0.03605551275463989</speed>
  <fix>3d</fix>
</trkpt>
<trkpt lat="40.0713178" lon="-105.2295305">
  <ele>1583.0</ele>
  <time>2026-08-28T17:53:20Z</time>
  <course>281.68</course>
  <speed>0.28</speed>
  <fix>3d</fix>
</trkpt>
<trkpt lat="40.071318" lon="-105.229531">
  <ele>1583.14</ele>
  <time>2026-08-28T17:53:20Z</time>
  <course>286.28</course>
  <speed>0.0282842712474619</speed>
  <fix>3d</fix>
</trkpt>
<trkpt lat="40.0713179" lon="-105.229531">
  <ele>1583.0</ele>
  <time>2026-08-28T17:53:20Z</time>
  <course>284.62</course>
  <speed>0.11</speed>
  <fix>3d</fix>
</trkpt>
<trkpt lat="40.071318" lon="-105.2295311">
  <ele>1583.13</ele>
  <time>2026-08-28T17:53:20Z</time>
  <course>286.65</course>
  <speed>0.0282842712474619</speed>
  <fix>3d</fix>
</trkpt>
<trkpt lat="40.0713179" lon="-105.229531">
  <ele>1583.0</ele>
  <time>2026-08-28T17:53:20Z</time>
  <course>284.62</course>
  <speed>0.11</speed>
  <fix>3d</fix>
</trkpt>
<trkpt lat="40.071318" lon="-105.2295311">
  <ele>1583.13</ele>
  <time>2026-08-28T17:53:20Z</time>
  <course>287.01</course>
  <speed>0.0282842712474619</speed>
  <fix>3d</fix>
</trkpt>
<trkpt lat="40.071318" lon="-105.2295311">
  <ele>1583.0</ele>
  <time>2026-08-28T17:53:20Z</time>
  <course>285.79</course>
  <speed>0.05</speed>
  <fix>3d</fix>
</trkpt>
<trkpt lat="40.071318" lon="-105.2295311">
  <ele>1583.13</ele>
  <time>2026-08-28T17:53:20Z</time>
  <course>287.35</course>
  <speed>0.0282842712474619</speed>
  <fix>3d</fix>
</trkpt>
<trkpt lat="40.071318" lon="-105.2295311">
  <ele>1583.0</ele>
  <time>2026-08-28T17:53:20Z</time>
  <course>285.79</course>
  <speed>0.05</speed>
  <fix>3d</fix>
</trkpt>
<trkpt lat="40.0713181" lon="-105.2295312">
  <ele>1583.13</ele>
  <time>2026-08-28T17:53:20Z</time>
  <course>287.68</course>
  <speed>0.022360679774997897</speed>
  <fix>3d</fix>
</trkpt>
<trkpt lat="40.071318" lon="-105.2295312">
  <ele>1583.0</ele>
  <time>2026-08-28T17:53:20Z</time>
  <course>286.5</course>
  <speed>0.05</speed>
  <fix>3d</fix>
</trkpt>
<trkpt lat="40.0713181" lon="-105.2295312">
  <ele>1583.13</ele>
  <time>2026-08-28T17:53:20Z</time>
  <course>287.98</course>
  <speed>0.01414213562373095</speed>
  <fix>3d</fix>
</trkpt>
<trkpt lat="40.071318" lon="-105.2295312">
  <ele>1583.0</ele>
  <time>2026-08-28T17:53:20Z</time>
  <course>286.5</course>
  <speed>0.05</speed>
  <fix>3d</fix>
</trkpt>
<trkpt lat="40.0713181" lon="-105.2295312">
  <ele>1583.13</ele>
  <time>2026-08-28T17:53:20Z</time>
  <course>288.28</course>
  <speed>0.01414213562373095</speed>
  <fix>3d</fix>
</trkpt>
<trkpt lat="40.071318" lon="-105.2295313">
  <ele>1583.0</ele>
  <time>2026-08-28T17:53:20Z</time>
  <course>287.14</course>
  <speed>0.04</speed>
  <fix>3d</fix>
</trkpt>
<trkpt lat="40.0713181" lon="-105.2295313">
  <ele>1583.14</ele>
  <time>2026-08-28T17:53:20Z</time>
  <course>288.5</course>
  <speed>0.01414213562373095</speed>
  <fix>3d</fix>
</trkpt>
<trkpt lat="40.071318" lon="-105.2295313">
  <ele>1583.0</ele>
  <time>2026-08-28T17:53:20Z</time>
  <course>287.14</course>
  <speed>0.04</speed>
  <fix>3d</fix>
</trkpt>
<trkpt lat="40.0713181" lon="-105.2295313">
  <ele>1583.14</ele>
  <time>2026-08-28T17:53:20Z</time>
  <course>288.77</course>
  <speed>0.01414213562373095</speed>
  <fix>3d</fix>
</trkpt>
<trkpt lat="40.0713181" lon="-105.2295314">
  <ele>1583.0</ele>
  <time>2026-08-28T17:53:20Z</time>
  <course>287.73</course>
  <speed>0.04</speed>
  <fix>3d</fix>
</trkpt>
<trkpt lat="40.0713181" lon="-105.2295313">
  <ele>1583.14</ele>
  <time>2026-08-28T17:53:20Z</time>
  <course>289.03</course>
  <speed>0.01</speed>
  <fix>3d</fix>
</trkpt>
<trkpt lat="40.0713181" lon="-105.2295314">
  <ele>1583.0</ele>
  <time>2026-08-28T17:53:20Z</time>
  <course>287.73</course>
  <speed>0.04</speed>
  <fix>3d</fix>
</trkpt>
<trkpt lat="40.0713181" lon="-105.2295313">
  <ele>1583.14</ele>
  <time>2026-08-28T17:53:20Z</time>
  <course>289.27</course>
  <speed>0.01</speed>
  <fix>3d</fix>
</trkpt>
<trkpt lat="40.0713181" lon="-105.2295315">
  <ele>1583.0</ele>
  <time>2026-08-28T17:53:20Z</time>
  <course>288.26</course>
  <speed>0.03</speed>
  <fix>3d</fix>
</trkpt>
<trkpt lat="40.0713181" lon="-105.2295314">
  <ele>1583.13</ele>
  <time>2026-08-28T17:53:20Z</time>
  <course>289.5</course>
  <speed>0.01</speed>
  <fix>3d</fix>
</trkpt>
<trkpt lat="40.0713181" lon="-105.2295315">
  <ele>1583.0</ele>
  <time>2026-08-28T17:53:20Z</time>
  <course>288.26</course>
  <speed>0.03</speed>
  <fix>3d</fix>
</trkpt>
<trkpt lat="40.0713181" lon="-105.2295314">
  <ele>1583.13</ele>
  <time>2026-08-28T17:53:20Z</time>
  <course>289.72</course>
  <speed>0.01</speed>
  <fix>3d</fix>
</trkpt>
<trkpt lat="40.0713181" lon="-105.2295316">
  <ele>1583.0</ele>
  <time>2026-08-28T17:53:20Z</time>
  <course>288.73</course>
  <speed>0.03</speed>
  <fix>3d</fix>
</trkpt>
<trkpt lat="40.0713181" lon="-105.2295314">
  <ele>1583.13</ele>
  <time>2026-08-28T17:53:20Z</time>
  <course>289.93</course>
  <speed>0.01</speed>
  <fix>3d</fix>
</trkpt>
<trkpt lat="40.0713181" lon="-105.2295316">
  <ele>1583.0</ele>
  <time>2026-08-28T17:53:20Z</time>
  <course>288.73</course>
  <speed>0.03</speed>
  <fix>3d</fix>
</trkpt>
<trkpt lat="40.0713181" lon="-105.2295314">
  <ele>1583.13</ele>
  <time>2026-08-28T17:53:20Z</time>
  <course>290.13</course>
  <speed>0.01</speed>
  <fix>3d</fix>
</trkpt>
<trkpt lat="40.0713181" lon="-105.2295317">
  <ele>1583.0</ele>
  <time>2026-08-28T17:53:20Z</time>
  <course>289.17</course>
  <speed>0.03</speed>
  <fix>3d</fix>
</trkpt>
<trkpt lat="40.0713182" lon="-105.2295315">
  <ele>1583.12</ele>
  <time>2026-08-28T17:53:21Z</time>
  <course>290.32</course>
  <speed>0.01</speed>
  <fix>3d</fix>
</trkpt>
<trkpt lat="40.0713181" lon="-105.2295317">
  <ele>1583.0</ele>
  <time>2026-08-28T17:53:21Z</time>
  <course>289.17</course>
  <speed>0.03</speed>
  <fix>3d</fix>
</trkpt>
<trkpt lat="40.0713182" lon="-105.2295315">
  <ele>1583.12</ele>
  <time>2026-08-28T17:53:21Z</time>
  <course>290.5</course>
  <speed>0.01</speed>
  <fix>3d</fix>
</trkpt>
<trkpt lat="40.0713181" lon="-105.2295317">
  <ele>1583.0</ele>
  <time>2026-08-28T17:53:21Z</time>
  <course>289.56</course>
  <speed>0.02</speed>
  <fix>3d</fix>
</trkpt>
<trkpt lat="40.0713182" lon="-105.2295316">
  <ele>1583.12</ele>
  <time>2026-08-28T17:53:21Z</time>
  <course>290.71</course>
  <speed>0.01</speed>
  <fix>3d</fix>
</trkpt>
<trkpt lat="40.0713181" lon="-105.2295317">
  <ele>1583.0</ele>
  <time>2026-08-28T17:53:21Z</time>
  <course>289.56</course>
  <speed>0.02</speed>
  <fix>3d</fix>
</trkpt>
<trkpt lat="40.0713182" lon="-105.2295316">
  <ele>1583.12</ele>
  <time>2026-08-28T17:53:21Z</time>
  <course>290.87</course>
  <speed>0.01</speed>
  <fix>3d</fix>
</trkpt>
<trkpt lat="40.0713182" lon="-105.2295318">
  <ele>1583.0</ele>
  <time>2026-08-28T17:53:21Z</time>
  <course>289.92</course>
  <speed>0.02</speed>
  <fix>3d</fix>
</trkpt>
<trkpt lat="40.0713182" lon="-105.2295316">
  <ele>1583.12</ele>
  <time>2026-08-28T17:53:21Z</time>
  <course>291.02</course>
  <speed>0.01</speed>
  <fix>3d</fix>
</trkpt>
<trkpt lat="40.0713182" lon="-105.2295318">
  <ele>1583.0</ele>
  <time>2026-08-28T17:53:21Z</time>
  <course>289.92</course>
  <speed>0.02</speed>
  <fix>3d</fix>
</trkpt>
<trkpt lat="40.0713182" lon="-105.2295316">
  <ele>1583.12</ele>
  <time>2026-08-28T17:53:21Z</time>
  <course>291.17</course>
  <speed>0.01</speed>
  <fix>3d</fix>
</trkpt>
<trkpt lat="40.0713182" lon="-105.2295319">
  <ele>1583.0</ele>
  <time>2026-08-28T17:53:21Z</time>
  <course>290.24</course>
  <speed>0.02</speed>
  <fix>3d</fix>
</trkpt>
<trkpt lat="40.0713182" lon="-105.2295316">
  <ele>1583.11</ele>
  <time>2026-08-28T17:53:21Z</time>
  <course>291.31</course>
  <speed>0.01</speed>
  <fix>3d</fix>
</trkpt>
<trkpt lat="40.0713182" lon="-105.2295319">
  <ele>1583.0</ele>
  <time>2026-08-28T17:53:21Z</time>
  <course>290.24</course>
  <speed>0.02</speed>
  <fix>3d</fix>
</trkpt>
<trkpt lat="40.0713182" lon="-105.2295317">
  <ele>1583.11</ele>
  <time>2026-08-28T17:53:21Z</time>
  <course>291.44</course>
  <speed>0.01</speed>
  <fix>3d</fix>
</trkpt>
<trkpt lat="40.0713182" lon="-105.2295319">
  <ele>1583.0</ele>
  <time>2026-08-28T17:53:21Z</time>
  <course>290.53</course>
  <speed>0.02</speed>
  <fix>3d</fix>
</trkpt>
<trkpt lat="40.0713182" lon="-105.2295317">
  <ele>1583.1</ele>
  <time>2026-08-28T17:53:21Z</time>
  <course>291.57</course>
  <speed>0.01</speed>
  <fix>3d</fix>
</trkpt>
<trkpt lat="40.0713182" lon="-105.2295319">
  <ele>1583.0</ele>
  <time>2026-08-28T17:53:21Z</time>
  <course>290.53</course>
  <speed>0.02</speed>
  <fix>3d</fix>
</trkpt>
<trkpt lat="40.0713182" lon="-105.2295317">
  <ele>1583.1</ele>
  <time>2026-08-28T17:53:21Z</time>
  <course>291.69</course>
  <speed>0.01</speed>
  <fix>3d</fix>
</trkpt>
<trkpt lat="40.0713182" lon="-105.2295319">
  <ele>1583.0</ele>
  <time>2026-08-28T17:53:21Z</time>
  <course>290.8</course>
  <speed>0.01</speed>
  <fix>3d</fix>
</trkpt>
<trkpt lat="40.0713183" lon="-105.2295317">
  <ele>1583.09</ele>
  <time>2026-08-28T17:53:21Z</time>
  <course>291.8</course>
  <speed>0.01</speed>
  <fix>3d</fix>
</trkpt>
<trkpt lat="40.0713182" lon="-105.2295319">
  <ele>1583.0</ele>
  <time>2026-08-28T17:53:21Z</time>
  <course>290.8</course>
  <speed>0.01</speed>
  <fix>3d</fix>
</trkpt>
<trkpt lat="40.0713183" lon="-105.2295317">
  <ele>1583.09</ele>
  <time>2026-08-28T17:53:21Z</time>
  <course>291.91</course>
  <speed>0.02</speed>
  <fix>3d</fix>
</trkpt>
<trkpt lat="40.0713182" lon="-105.2295319">
  <ele>1583.0</ele>
  <time>2026-08-28T17:53:21Z</time>
  <course>291.04</course>
  <speed>0.01</speed>
  <fix>3d</fix>
</trkpt>
<trkpt lat="40.0713183" lon="-105.2295318">
  <ele>1583.09</ele>
  <time>2026-08-28T17:53:21Z</time>
  <course>292.01</course>
  <speed>0.02</speed>
  <fix>3d</fix>
</trkpt>
<trkpt lat="40.0713182" lon="-105.2295319">
  <ele>1583.0</ele>
  <time>2026-08-28T17:53:21Z</time>
  <course>291.04</course>
  <speed>0.01</speed>
  <fix>3d</fix>
</trkpt>
<trkpt lat="40.0713183" lon="-105.2295318">
  <ele>1583.09</ele>
  <time>2026-08-28T17:53:21Z</time>
  <course>292.09</course>
  <speed>0.02</speed>
  <fix>3d</fix>
</trkpt>
<trkpt lat="40.0713182" lon="-105.229532">
  <ele>1583.0</ele>
  <time>2026-08-28T17:53:21Z</time>
  <course>291.26</course>
  <speed>0.01</speed>
  <fix>3d</fix>
</trkpt>
<trkpt lat="40.0713183" lon="-105.2295318">
  <ele>1583.08</ele>
  <time>2026-08-28T17:53:21Z</time>
  <course>292.19</course>
  <speed>0.02</speed>
  <fix>3d</fix>
</trkpt>
<trkpt lat="40.0713182" lon="-105.229532">
  <ele>1583.0</ele>
  <time>2026-08-28T17:53:21Z</time>
  <course>291.26</course>
  <speed>0.01</speed>
  <fix>3d</fix>
</trkpt>
<trkpt lat="40.0713183" lon="-105.2295318">
  <ele>1583.08</ele>
  <time>2026-08-28T17:53:21Z</time>
  <course>292.28</course>
  <speed>0.02</speed>
  <fix>3d</fix>
</trkpt>
<trkpt lat="40.0713182" lon="-105.2295321">
  <ele>1583.0</ele>
  <time>2026-08-28T17:53:21Z</time>
  <course>291.46</course>
  <speed>0.01</speed>
  <fix>3d</fix>
</trkpt>
<trkpt lat="40.0713183" lon="-105.2295318">
  <ele>1583.08</ele>
  <time>2026-08-28T17:53:21Z</time>
  <course>292.36</course>
  <speed>0.02</speed>
  <fix>3d</fix>
</trkpt>
<trkpt lat="40.0713182" lon="-105.2295321">
  <ele>1583.0</ele>
  <time>2026-08-28T17:53:21Z</time>
  <course>291.46</course>
  <speed>0.01</speed>
  <fix>3d</fix>
</trkpt>
<trkpt lat="40.0713183" lon="-105.2295318">
  <ele>1583.09</ele>
  <time>2026-08-28T17:53:21Z</time>
  <course>292.44</course>
  <speed>0.02</speed>
  <fix>3d</fix>
</trkpt>
<trkpt lat="40.0713182" lon="-105.2295321">
  <ele>1583.0</ele>
  <time>2026-08-28T17:53:21Z</time>
  <course>291.64</course>
  <speed>0.01</speed>
  <fix>3d</fix>
</trkpt>
<trkpt lat="40.0713183" lon="-105.2295319">
  <ele>1583.08</ele>
  <time>2026-08-28T17:53:21Z</time>
  <course>292.52</course>
  <speed>0.02</speed>
  <fix>3d</fix>
</trkpt>
<trkpt lat="40.0713182" lon="-105.2295321">
  <ele>1583.0</ele>
  <time>2026-08-28T17:53:21Z</time>
  <course>291.64</course>
  <speed>0.01</speed>
  <fix>3d</fix>
</trkpt>
<trkpt lat="40.0713183" lon="-105.2295319">
  <ele>1583.08</ele>
  <time>2026-08-28T17:53:21Z</time>
  <course>292.59</course>
  <speed>0.02</speed>
  <fix>3d</fix>
</trkpt>
<trkpt lat="40.0713183" lon="-105.2295321">
  <ele>1583.0</ele>
  <time>2026-08-28T17:53:21Z</time>
  <course>291.8</course>
  <speed>0.01</speed>
  <fix>3d</fix>
</trkpt>
<trkpt lat="40.0713183" lon="-105.2295319">
  <ele>1583.08</ele>
  <time>2026-08-28T17:53:21Z</time>
  <course>292.66</course>
  <speed>0.02</speed>
  <fix>3d</fix>
</trkpt>
<trkpt lat="40.0713183" lon="-105.2295321">
  <ele>1583.0</ele>
  <time>2026-08-28T17:53:21Z</time>
  <course>291.8</course>
  <speed>0.01</speed>
  <fix>3d</fix>
</trkpt>
<trkpt lat="40.0713183" lon="-105.2295319">
  <ele>1583.08</ele>
  <time>2026-08-28T17:53:21Z</time>
  <course>292.73</course>
  <speed>0.02</speed>
  <fix>3d</fix>
</trkpt>
<trkpt lat="40.0713183" lon="-105.2295322">
  <ele>1583.0</ele>
  <time>2026-08-28T17:53:21Z</time>
  <course>291.95</course>
  <speed>0.01</speed>
  <fix>3d</fix>
</trkpt>
<trkpt lat="40.0713183" lon="-105.229532">
  <ele>1583.08</ele>
  <time>2026-08-28T17:53:21Z</time>
  <course>292.79</course>
  <speed>0.02</speed>
  <fix>3d</fix>
</trkpt>
<trkpt lat="40.0713183" lon="-105.2295322">
  <ele>1583.0</ele>
  <time>2026-08-28T17:53:21Z</time>
  <course>291.95</course>
  <speed>0.01</speed>
  <fix>3d</fix>
</trkpt>
<trkpt lat="40.0713184" lon="-105.229532">
  <ele>1583.08</ele>
  <time>2026-08-28T17:53:21Z</time>
  <course>292.86</course>
  <speed>0.02</speed>
  <fix>3d</fix>
</trkpt>
<trkpt lat="40.0713183" lon="-105.2295322">
  <ele>1583.0</ele>
  <time>2026-08-28T17:53:21Z</time>
  <course>292.09</course>
  <speed>0.0</speed>
  <fix>3d</fix>
</trkpt>
<trkpt lat="40.0713184" lon="-105.229532">
  <ele>1583.08</ele>
  <time>2026-08-28T17:53:21Z</time>
  <course>292.92</course>
  <speed>0.02</speed>
  <fix>3d</fix>
</trkpt>
<trkpt lat="40.0713183" lon="-105.2295322">
  <ele>1583.0</ele>
  <time>2026-08-28T17:53:21Z</time>
  <course>292.09</course>
  <speed>0.0</speed>
  <fix>3d</fix>
</trkpt>
<trkpt lat="40.0713184" lon="-105.229532">
  <ele>1583.08</ele>
  <time>2026-08-28T17:53:21Z</time>
  <course>292.97</course>
  <speed>0.02</speed>
  <fix>3d</fix>
</trkpt>
<trkpt lat="40.0713183" lon="-105.2295322">
  <ele>1583.0</ele>
  <time>2026-08-28T17:53:21Z</time>
  <course>292.21</course>
  <speed>0.0</speed>
  <fix>3d</fix>
</trkpt>
<trkpt lat="40.0713184" lon="-105.229532">
  <ele>1583.08</ele>
  <time>2026-08-28T17:53:21Z</time>
  <course>293.04</course>
  <speed>0.02</speed>
  <fix>3d</fix>
</trkpt>
<trkpt lat="40.0713183" lon="-105.2295322">
  <ele>1583.0</ele>
  <time>2026-08-28T17:53:21Z</time>
  <course>292.21</course>
  <speed>0.0</speed>
  <fix>3d</fix>
</trkpt>
<trkpt lat="40.0713184" lon="-105.229532">
  <ele>1583.08</ele>
  <time>2026-08-28T17:53:21Z</time>
  <course>293.19</course>
  <speed>0.03605551275463989</speed>
  <fix>3d</fix>
</trkpt>
<trkpt lat="40.0713183" lon="-105.2295322">
  <ele>1583.0</ele>
  <time>2026-08-28T17:53:21Z</time>
  <course>292.38</course>
  <speed>0.01</speed>
  <fix>3d</fix>
</trkpt>
<trkpt lat="40.0713184" lon="-105.2295321">
  <ele>1583.08</ele>
  <time>2026-08-28T17:53:21Z</time>
  <course>293.54</course>
  <speed>0.07071067811865475</speed>
  <fix>3d</fix>
</trkpt>
<trkpt lat="40.0713183" lon="-105.2295322">
  <ele>1583.0</ele>
  <time>2026-08-28T17:53:21Z</time>
  <course>292.38</course>
  <speed>0.01</speed>
  <fix>3d</fix>
</trkpt>
<trkpt lat="40.0713185" lon="-105.2295322">
  <ele>1583.08</ele>
  <time>2026-08-28T17:53:21Z</time>
  <course>294.16</course>
  <speed>0.12206555615733702</speed>
  <fix>3d</fix>
</trkpt>
<trkpt lat="40.0713183" lon="-105.2295323">
  <ele>1583.0</ele>
  <time>2026-08-28T17:53:21Z</time>
  <course>293.07</course>
  <speed>0.07</speed>
  <fix>3d</fix>
</trkpt>
<trkpt lat="40.0713185" lon="-105.2295324">
  <ele>1583.08</ele>
  <time>2026-08-28T17:53:21Z</time>
  <course>295.16</course>
  <speed>0.18867962264113206</speed>
  <fix>3d</fix>
</trkpt>
<trkpt lat="40.0713183" lon="-105.2295323">
  <ele>1583.0</ele>
  <time>2026-08-28T17:53:21Z</time>
  <course>293.07</course>
  <speed>0.07</speed>
  <fix>3d</fix>
</trkpt>
<trkpt lat="40.0713186" lon="-105.2295326">
  <ele>1583.08</ele>
  <time>2026-08-28T17:53:21Z</time>
  <course>296.61</course>
  <speed>0.2692582403567252</speed>
  <fix>3d</fix>
</trkpt>
<trkpt lat="40.0713183" lon="-105.2295326">
  <ele>1583.0</ele>
  <time>2026-08-28T17:53:21Z</time>
  <course>294.81</course>
  <speed>0.18</speed>
  <fix>3d</fix>
</trkpt>
<trkpt lat="40.0713188" lon="-105.229533">
  <ele>1583.09</ele>
  <time>2026-08-28T17:53:21Z</time>
  <course>298.57</course>
  <speed>0.35510561809129404</speed>
  <fix>3d</fix>
</trkpt>
<trkpt lat="40.0713183" lon="-105.2295326">
  <ele>1583.0</ele>
  <time>2026-08-28T17:53:21Z</time>
  <course>294.81</course>
  <speed>0.18</speed>
  <fix>3d</fix>
</trkpt>
<trkpt lat="40.071319" lon="-105.2295334">
  <ele>1583.09</ele>
  <time>2026-08-28T17:53:21Z</time>
  <course>301.13</course>
  <speed>0.4522167621838005</speed>
  <fix>3d</fix>
</trkpt>
<trkpt lat="40.0713186" lon="-105.2295331">
  <ele>1583.0</ele>
  <time>2026-08-28T17:53:21Z</time>
  <course>298.25</course>
  <speed>0.34</speed>
  <fix>3d</fix>
</trkpt>
<trkpt lat="40.0713191" lon="-105.2295338">
  <ele>1583.09</ele>
  <time>2026-08-28T17:53:21Z</time>
  <course>303.66</course>
  <speed>0.5360037313302959</speed>
  <fix>3d</fix>
</trkpt>
<trkpt lat="40.0713186" lon="-105.2295331">
  <ele>1583.0</ele>
  <time>2026-08-28T17:53:21Z</time>
  <course>298.25</course>
  <speed>0.34</speed>
  <fix>3d</fix>
</trkpt>
<trkpt lat="40.0713195" lon="-105.2295344">
  <ele>1583.09</ele>
  <time>2026-08-28T17:53:21Z</time>
  <course>307.41</course>
  <speed>0.6529931086925803</speed>
  <fix>3d</fix>
</trkpt>
<trkpt lat="40.071319" lon="-105.229534">
  <ele>1583.0</ele>
  <time>2026-08-28T17:53:21Z</time>
  <course>303.92</course>
  <speed>0.53</speed>
  <fix>3d</fix>
</trkpt>
<trkpt lat="40.0713199" lon="-105.2295351">
  <ele>1583.09</ele>
  <time>2026-08-28T17:53:21Z</time>
  <course>311.86</course>
  <speed>0.7638062581571324</speed>
  <fix>3d</fix>
</trkpt>
<trkpt lat="40.071319" lon="-105.229534">
  <ele>1583.0</ele>
  <time>2026-08-28T17:53:21Z</time>
  <course>303.92</course>
  <speed>0.53</speed>
  <fix>3d</fix>
</trkpt>
<trkpt lat="40.0713204" lon="-105.2295358">
  <ele>1583.09</ele>
  <time>2026-08-28T17:53:21Z</time>
  <course>316.94</course>
  <speed>0.8645229898620395</speed>
  <fix>3d</fix>
</trkpt>
<trkpt lat="40.0713197" lon="-105.2295352">
  <ele>1583.0</ele>
  <time>2026-08-28T17:53:21Z</time>
  <course>312.12</course>
  <speed>0.74</speed>
  <fix>3d</fix>
</trkpt>
<trkpt lat="40.071321" lon="-105.2295365">
  <ele>1583.09</ele>
  <time>2026-08-28T17:53:21Z</time>
  <course>322.65</course>
  <speed>0.9602083107326242</speed>
  <fix>3d</fix>
</trkpt>
<trkpt lat="40.0713197" lon="-105.2295352">
  <ele>1583.0</ele>
  <time>2026-08-28T17:53:21Z</time>
  <course>312.12</course>
  <speed>0.74</speed>
  <fix>3d</fix>
</trkpt>
<trkpt lat="40.0713218" lon="-105.2295371">
  <ele>1583.09</ele>
  <time>2026-08-28T17:53:21Z</time>
  <course>328.89</course>
  <speed>1.0394229168149025</speed>
  <fix>3d</fix>
</trkpt>
<trkpt lat="40.0713208" lon="-105.2295365">
  <ele>1583.0</ele>
  <time>2026-08-28T17:53:21Z</time>
  <course>322.75</course>
  <speed>0.93</speed>
  <fix>3d</fix>
</trkpt>
<trkpt lat="40.0713227" lon="-105.2295377">
  <ele>1583.08</ele>
  <time>2026-08-28T17:53:21Z</time>
  <course>335.57</course>
  <speed>1.1108555261599051</speed>
  <fix>3d</fix>
</trkpt>
<trkpt lat="40.0713208" lon="-105.2295365">
  <ele>1583.0</ele>
  <time>2026-08-28T17:53:21Z</time>
  <course>322.75</course>
  <speed>0.93</speed>
  <fix>3d</fix>
</trkpt>
<trkpt lat="40.0713236" lon="-105.2295382">
  <ele>1583.08</ele>
  <time>2026-08-28T17:53:21Z</time>
  <course>342.68</course>
  <speed>1.158015543937127</speed>
  <fix>3d</fix>
</trkpt>
<trkpt lat="40.0713224" lon="-105.2295377">
  <ele>1583.0</ele>
  <time>2026-08-28T17:53:21Z</time>
  <course>335.46</course>
  <speed>1.06</speed>
  <fix>3d</fix>
</trkpt>
<trkpt lat="40.0713247" lon="-105.2295385">
  <ele>1583.08</ele>
  <time>2026-08-28T17:53:21Z</time>
  <course>350.04</course>
  <speed>1.2050726119201283</speed>
  <fix>3d</fix>
</trkpt>
<trkpt lat="40.0713224" lon="-105.2295377">
  <ele>1583.0</ele>
  <time>2026-08-28T17:53:21Z</time>
  <course>335.46</course>
  <speed>1.06</speed>
  <fix>3d</fix>
</trkpt>
<trkpt lat="40.0713258" lon="-105.2295387">
  <ele>1583.08</ele>
  <time>2026-08-28T17:53:21Z</time>
  <course>357.63</course>
  <speed>1.240644993541666</speed>
  <fix>3d</fix>
</trkpt>
<trkpt lat="40.0713243" lon="-105.2295385">
  <ele>1583.0</ele>
  <time>2026-08-28T17:53:21Z</time>
  <course>349.68</course>
  <speed>1.16</speed>
  <fix>3d</fix>
</trkpt>
<trkpt lat="40.0713271" lon="-105.2295386">
  <ele>1583.08</ele>
  <time>2026-08-28T17:53:21Z</time>
  <course>6.96</course>
  <speed>1.2589678312014172</speed>
  <fix>3d</fix>
</trkpt>
<trkpt lat="40.0713243" lon="-105.2295385">
  <ele>1583.0</ele>
  <time>2026-08-28T17:53:21Z</time>
  <course>349.68</course>
  <speed>1.16</speed>
  <fix>3d</fix>
</trkpt>
<trkpt lat="40.0713282" lon="-105.2295383">
  <ele>1583.08</ele>
  <time>2026-08-28T17:53:21Z</time>
  <course>14.86</course>
  <speed>1.2709445306542688</speed>
  <fix>3d</fix>
</trkpt>
<trkpt lat="40.0713263" lon="-105.2295387">
  <ele>1583.0</ele>
  <time>2026-08-28T17:53:21Z</time>
  <course>4.87</course>
  <speed>1.21</speed>
  <fix>3d</fix>
</trkpt>
<trkpt lat="40.0713293" lon="-105.2295378">
  <ele>1583.08</ele>
  <time>2026-08-28T17:53:21Z</time>
  <course>22.83</course>
  <speed>1.2776932339180638</speed>
  <fix>3d</fix>
</trkpt>
<trkpt lat="40.0713263" lon="-105.2295387">
  <ele>1583.0</ele>
  <time>2026-08-28T17:53:21Z</time>
  <course>4.87</course>
  <speed>1.21</speed>
  <fix>3d</fix>
</trkpt>
<trkpt lat="40.0713303" lon="-105.2295372">
  <ele>1583.08</ele>
  <time>2026-08-28T17:53:21Z</time>
  <course>30.82</course>
  <speed>1.2726350615946427</speed>
  <fix>3d</fix>
</trkpt>
<trkpt lat="40.0713285" lon="-105.229538">
  <ele>1583.0</ele>
  <time>2026-08-28T17:53:21Z</time>
  <course>20.58</course>
  <speed>1.23</speed>
  <fix>3d</fix>
</trkpt>
<trkpt lat="40.0713312" lon="-105.2295363">
  <ele>1583.08</ele>
  <time>2026-08-28T17:53:21Z</time>
  <course>38.79</course>
  <speed>1.2603570922560003</speed>
  <fix>3d</fix>
</trkpt>
<trkpt lat="40.0713285" lon="-105.229538">
  <ele>1583.0</ele>
  <time>2026-08-28T17:53:21Z</time>
  <course>20.58</course>
  <speed>1.23</speed>
  <fix>3d</fix>
</trkpt>
<trkpt lat="40.071332" lon="-105.2295353">
  <ele>1583.08</ele>
  <time>2026-08-28T17:53:21Z</time>
  <course>46.73</course>
  <speed>1.2517587627015039</speed>
  <fix>3d</fix>
</trkpt>
<trkpt lat="40.0713305" lon="-105.2295367">
  <ele>1583.0</ele>
  <time>2026-08-28T17:53:21Z</time>
  <course>36.48</course>
  <speed>1.23</speed>
  <fix>3d</fix>
</trkpt>
<trkpt lat="40.0713327" lon="-105.2295342">
  <ele>1583.08</ele>
  <time>2026-08-28T17:53:21Z</time>
  <course>54.5</course>
  <speed>1.2381033882515629</speed>
  <fix>3d</fix>
</trkpt>
<trkpt lat="40.0713305" lon="-105.2295367">
  <ele>1583.0</ele>
  <time>2026-08-28T17:53:21Z</time>
  <course>36.48</course>
  <speed>1.23</speed>
  <fix>3d</fix>
</trkpt>
<trkpt lat="40.0713333" lon="-105.229533">
  <ele>1583.08</ele>
  <time>2026-08-28T17:53:21Z</time>
  <course>61.39</course>
  <speed>1.2131364309095658</speed>
  <fix>3d</fix>
</trkpt>
<trkpt lat="40.0713321" lon="-105.2295347">
  <ele>1583.0</ele>
  <time>2026-08-28T17:53:21Z</time>
  <course>51.91</course>
  <speed>1.22</speed>
  <fix>3d</fix>
</trkpt>
<trkpt lat="40.0713337" lon="-105.2295317">
  <ele>1583.08</ele>
  <time>2026-08-28T17:53:21Z</time>
  <course>67.3</course>
  <speed>1.1870130580579137</speed>
  <fix>3d</fix>
</trkpt>
<trkpt lat="40.0713321" lon="-105.2295347">
  <ele>1583.0</ele>
  <time>2026-08-28T17:53:21Z</time>
  <course>51.91</course>
  <speed>1.22</speed>
  <fix>3d</fix>
</trkpt>
<trkpt lat="40.0713341" lon="-105.2295304">
  <ele>1583.08</ele>
  <time>2026-08-28T17:53:21Z</time>
  <course>72.21</course>
  <speed>1.1700427342623003</speed>
  <fix>3d</fix>
</trkpt>
<trkpt lat="40.0713332" lon="-105.2295322">
  <ele>1583.0</ele>
  <time>2026-08-28T17:53:21Z</time>
  <course>64.98</course>
  <speed>1.19</speed>
  <fix>3d</fix>
</trkpt>
<trkpt lat="40.0713343" lon="-105.2295291">
  <ele>1583.08</ele>
  <time>2026-08-28T17:53:21Z</time>
  <course>76.08</course>
  <speed>1.1447707194019245</speed>
  <fix>3d</fix>
</trkpt>
<trkpt lat="40.0713332" lon="-105.2295322">
  <ele>1583.0</ele>
  <time>2026-08-28T17:53:21Z</time>
  <course>64.98</course>
  <speed>1.19</speed>
  <fix>3d</fix>
</trkpt>
<trkpt lat="40.0713345" lon="-105.229528">
  <ele>1583.08</ele>
  <time>2026-08-28T17:53:21Z</time>
  <course>78.43</course>
  <speed>1.135649593844862</speed>
  <fix>3d</fix>
</trkpt>
<trkpt lat="40.0713339" lon="-105.2295297">
  <ele>1583.0</ele>
  <time>2026-08-28T17:53:21Z</time>
  <course>74.14</course>
  <speed>1.16</speed>
  <fix>3d</fix>
</trkpt>
<trkpt lat="40.0713346" lon="-105.2295267">
  <ele>1583.08</ele>
  <time>2026-08-28T17:53:21Z</time>
  <course>80.54</course>
  <speed>1.116288493177279</speed>
  <fix>3d</fix>
</trkpt>
<trkpt lat="40.0713339" lon="-105.2295297">
  <ele>1583.0</ele>
  <time>2026-08-28T17:53:21Z</time>
  <course>74.14</course>
  <speed>1.16</speed>
  <fix>3d</fix>
</trkpt>
<trkpt lat="40.0713348" lon="-105.2295255">
  <ele>1583.09</ele>
  <time>2026-08-28T17:53:21Z</time>
  <course>82.32</course>
  <speed>1.0903669107231748</speed>
  <fix>3d</fix>
</trkpt>
<trkpt lat="40.0713344" lon="-105.229527">
  <ele>1583.0</ele>
  <time>2026-08-28T17:53:21Z</time>
  <course>79.65</course>
  <speed>1.13</speed>
  <fix>3d</fix>
</trkpt>
<trkpt lat="40.0713349" lon="-105.2295242">
  <ele>1583.09</ele>
  <time>2026-08-28T17:53:21Z</time>
  <course>83.79</course>
  <speed>1.0767079455451232</speed>
  <fix>3d</fix>
</trkpt>
<trkpt lat="40.0713344" lon="-105.229527">
  <ele>1583.0</ele>
  <time>2026-08-28T17:53:21Z</time>
  <course>79.65</course>
  <speed>1.13</speed>
  <fix>3d</fix>
</trkpt>
<trkpt lat="40.0713349" lon="-105.2295229">
  <ele>1583.09</ele>
  <time>2026-08-28T17:53:21Z</time>
  <course>85.03</course>
  <speed>1.0547511554864493</speed>
  <fix>3d</fix>
</trkpt>
<trkpt lat="40.0713346" lon="-105.2295245">
  <ele>1583.0</ele>
  <time>2026-08-28T17:53:21Z</time>
  <course>82.96</course>
  <speed>1.1</speed>
  <fix>3d</fix>
</trkpt>
<trkpt lat="40.071335" lon="-105.2295217">
  <ele>1583.09</ele>
  <time>2026-08-28T17:53:21Z</time>
  <course>86.05</course>
  <speed>1.043072384832424</speed>
  <fix>3d</fix>
</trkpt>
<trkpt lat="40.0713346" lon="-105.2295245">
  <ele>1583.0</ele>
  <time>2026-08-28T17:53:21Z</time>
  <course>82.96</course>
  <speed>1.1</speed>
  <fix>3d</fix>
</trkpt>
<trkpt lat="40.071335" lon="-105.2295204">
  <ele>1583.1</ele>
  <time>2026-08-28T17:53:21Z</time>
  <course>86.9</course>
  <speed>1.031746092796091</speed>
  <fix>3d</fix>
</trkpt>
<trkpt lat="40.0713348" lon="-105.2295219">
  <ele>1583.0</ele>
  <time>2026-08-28T17:53:21Z</time>
  <course>85.26</course>
  <speed>1.07</speed>
  <fix>3d</fix>
</trkpt>
<trkpt lat="40.0713351" lon="-105.2295192">
  <ele>1583.1</ele>
  <time>2026-08-28T17:53:21Z</time>
  <course>87.61</course>
  <speed>1.011236866416568</speed>
  <fix>3d</fix>
</trkpt>
<trkpt lat="40.0713348" lon="-105.2295219">
  <ele>1583.0</ele>
  <time>2026-08-28T17:53:21Z</time>
  <course>85.26</course>
  <speed>1.07</speed>
  <fix>3d</fix>
</trkpt>
<trkpt lat="40.0713351" lon="-105.229518">
  <ele>1583.1</ele>
  <time>2026-08-28T17:53:21Z</time>
  <course>88.19</course>
  <speed>1.0007996802557444</speed>
  <fix>3d</fix>
</trkpt>
<trkpt lat="40.071335" lon="-105.2295195">
  <ele>1583.0</ele>
  <time>2026-08-28T17:53:21Z</time>
  <course>86.85</course>
  <speed>1.04</speed>
  <fix>3d</fix>
</trkpt>
<trkpt lat="40.0713351" lon="-105.2295168">
  <ele>1583.1</ele>
  <time>2026-08-28T17:53:21Z</time>
  <course>88.67</course>
  <speed>0.9904544411531506</speed>
  <fix>3d</fix>
</trkpt>
<trkpt lat="40.071335" lon="-105.2295195">
  <ele>1583.0</ele>
  <time>2026-08-28T17:53:21Z</time>
  <course>86.85</course>
  <speed>1.04</speed>
  <fix>3d</fix>
</trkpt>
<trkpt lat="40.0713351" lon="-105.2295154">
  <ele>1583.1</ele>
  <time>2026-08-28T17:53:21Z</time>
  <course>89.13</course>
  <speed>0.9802040603874276</speed>
  <fix>3d</fix>
</trkpt>
<trkpt lat="40.0713351" lon="-105.229517">
  <ele>1583.0</ele>
  <time>2026-08-28T17:53:21Z</time>
  <course>87.93</course>
  <speed>1.02</speed>
  <fix>3d</fix>
</trkpt>
<trkpt lat="40.0713351" lon="-105.2295142">
  <ele>1583.1</ele>
  <time>2026-08-28T17:53:21Z</time>
  <course>89.45</course>
  <speed>0.9800510190801294</speed>
  <fix>3d</fix>
</trkpt>
<trkpt lat="40.0713351" lon="-105.229517">
  <ele>1583.0</ele>
  <time>2026-08-28T17:53:21Z</time>
  <course>87.93</course>
  <speed>1.02</speed>
  <fix>3d</fix>
</trkpt>
<trkpt lat="40.0713352" lon="-105.229513">
  <ele>1583.1</ele>
  <time>2026-08-28T17:53:21Z</time>
  <course>89.7</course>
  <speed>0.970051545022222</speed>
  <fix>3d</fix>
</trkpt>
<trkpt lat="40.0713352" lon="-105.2295146">
  <ele>1583.0</ele>
  <time>2026-08-28T17:53:21Z</time>
  <course>88.67</course>
  <speed>1.01</speed>
  <fix>3d</fix>
</trkpt>
<trkpt lat="40.0713352" lon="-105.2295119">
  <ele>1583.1</ele>
  <time>2026-08-28T17:53:21Z</time>
  <course>89.91</course>
  <speed>0.970051545022222</speed>
  <fix>3d</fix>
</trkpt>
<trkpt lat="40.0713352" lon="-105.2295146">
  <ele>1583.0</ele>
  <time>2026-08-28T17:53:21Z</time>
  <course>88.67</course>
  <speed>1.01</speed>
  <fix>3d</fix>
</trkpt>
<trkpt lat="40.0713352" lon="-105.2295107">
  <ele>1583.1</ele>
  <time>2026-08-28T17:53:21Z</time>
  <course>90.08</course>
  <speed>0.96</speed>
  <fix>3d</fix>
</trkpt>
<trkpt lat="40.0713352" lon="-105.2295123">
  <ele>1583.0</ele>
  <time>2026-08-28T17:53:21Z</time>
  <course>89.16</course>
  <speed>1.0</speed>
  <fix>3d</fix>
</trkpt>
<trkpt lat="40.0713352" lon="-105.2295095">
  <ele>1583.1</ele>
  <time>2026-08-28T17:53:21Z</time>
  <course>90.21</course>
  <speed>0.96</speed>
  <fix>3d</fix>
</trkpt>
<trkpt lat="40.0713352" lon="-105.2295123">
  <ele>1583.0</ele>
  <time>2026-08-28T17:53:21Z</time>
  <course>89.16</course>
  <speed>1.0</speed>
  <fix>3d</fix>
</trkpt>
<trkpt lat="40.0713352" lon="-105.2295084">
  <ele>1583.09</ele>
  <time>2026-08-28T17:53:21Z</time>
  <course>90.33</course>
  <speed>0.96</speed>
  <fix>3d</fix>
</trkpt>
<trkpt lat="40.0713352" lon="-105.2295099">
  <ele>1583.0</ele>
  <time>2026-08-28T17:53:21Z</time>
  <course>89.49</course>
  <speed>0.99</speed>
  <fix>3d</fix>
</trkpt>
<trkpt lat="40.0713352" lon="-105.2295072">
  <ele>1583.09</ele>
  <time>2026-08-28T17:53:21Z</time>
  <course>90.41</course>
  <speed>0.96</speed>
  <fix>3d</fix>
</trkpt>
<trkpt lat="40.0713352" lon="-105.2295099">
  <ele>1583.0</ele>
  <time>2026-08-28T17:53:21Z</time>
  <course>89.49</course>
  <speed>0.99</speed>
  <fix>3d</fix>
</trkpt>
<trkpt lat="40.0713352" lon="-105.2295061">
  <ele>1583.09</ele>
  <time>2026-08-28T17:53:21Z</time>
  <course>90.49</course>
  <speed>0.96</speed>
  <fix>3d</fix>
</trkpt>
<trkpt lat="40.0713353" lon="-105.2295075">
  <ele>1583.0</ele>
  <time>2026-08-28T17:53:21Z</time>
  <course>89.71</course>
  <speed>0.99</speed>
  <fix>3d</fix>
</trkpt>
<trkpt lat="40.0713352" lon="-105.2295049">
  <ele>1583.09</ele>
  <time>2026-08-28T17:53:21Z</time>
  <course>90.54</course>
  <speed>0.96</speed>
  <fix>3d</fix>
</trkpt>
<trkpt lat="40.0713353" lon="-105.2295075">
  <ele>1583.0</ele>
  <time>2026-08-28T17:53:21Z</time>
  <course>89.71</course>
  <speed>0.99</speed>
  <fix>3d</fix>
</trkpt>
<trkpt lat="40.0713352" lon="-105.2295038">
  <ele>1583.09</ele>
  <time>2026-08-28T17:53:21Z</time>
  <course>90.59</course>
  <speed>0.96</speed>
  <fix>3d</fix>
</trkpt>
<trkpt lat="40.0713353" lon="-105.2295052">
  <ele>1583.0</ele>
  <time>2026-08-28T17:53:21Z</time>
  <course>89.85</course>
  <speed>1.0</speed>
  <fix>3d</fix>
</trkpt>
<trkpt lat="40.0713352" lon="-105.2295028">
  <ele>1583.09</ele>
  <time>2026-08-28T17:53:21Z</time>
  <course>90.62</course>
  <speed>0.96</speed>
  <fix>3d</fix>
</trkpt>
<trkpt lat="40.0713353" lon="-105.2295052">
  <ele>1583.0</ele>
  <time>2026-08-28T17:53:21Z</time>
  <course>89.85</course>
  <speed>1.0</speed>
  <fix>3d</fix>
</trkpt>
<trkpt lat="40.0713352" lon="-105.2295017">
  <ele>1583.09</ele>
  <time>2026-08-28T17:53:21Z</time>
  <course>90.64</course>
  <speed>0.97</speed>
  <fix>3d</fix>
</trkpt>
<trkpt lat="40.0713353" lon="-105.2295029">
  <ele>1583.0</ele>
  <time>2026-08-28T17:53:21Z</time>
  <course>89.94</course>
  <speed>1.0</speed>
  <fix>3d</fix>
</trkpt>
<trkpt lat="40.0713352" lon="-105.2295005">
  <ele>1583.09</ele>
  <time>2026-08-28T17:53:21Z</time>
  <course>90.66</course>
  <speed>0.97</speed>
  <fix>3d</fix>
</trkpt>
<trkpt lat="40.0713353" lon="-105.2295029">
  <ele>1583.0</ele>
  <time>2026-08-28T17:53:21Z</time>
  <course>89.94</course>
  <speed>1.0</speed>
  <fix>3d</fix>
</trkpt>
<trkpt lat="40.0713352" lon="-105.2294993">
  <ele>1583.1</ele>
  <time>2026-08-28T17:53:21Z</time>
  <course>90.67</course>
  <speed>0.97</speed>
  <fix>3d</fix>
</trkpt>
<trkpt lat="40.0713353" lon="-105.2295005">
  <ele>1583.0</ele>
  <time>2026-08-28T17:53:21Z</time>
  <course>89.99</course>
  <speed>1.0</speed>
  <fix>3d</fix>
</trkpt>
<trkpt lat="40.0713352" lon="-105.2294981">
  <ele>1583.1</ele>
  <time>2026-08-28T17:53:21Z</time>
  <course>90.69</course>
  <speed>0.98</speed>
  <fix>3d</fix>
</trkpt>
<trkpt lat="40.0713353" lon="-105.2295005">
  <ele>1583.0</ele>
  <time>2026-08-28T17:53:21Z</time>
  <course>89.99</course>
  <speed>1.0</speed>
  <fix>3d</fix>
</trkpt>
<trkpt lat="40.0713352" lon="-105.229497">
  <ele>1583.1</ele>
  <time>2026-08-28T17:53:21Z</time>
  <course>90.69</course>
  <speed>0.98</speed>
  <fix>3d</fix>
</trkpt>
<trkpt lat="40.0713353" lon="-105.2294982">
  <ele>1583.0</ele>
  <time>2026-08-28T17:53:21Z</time>
  <course>90.02</course>
  <speed>1.01</speed>
  <fix>3d</fix>
</trkpt>
<trkpt lat="40.0713352" lon="-105.2294957">
  <ele>1583.1</ele>
  <time>2026-08-28T17:53:21Z</time>
  <course>90.69</course>
  <speed>0.98</speed>
  <fix>3d</fix>
</trkpt>
<trkpt lat="40.0713353" lon="-105.2294982">
  <ele>1583.0</ele>
  <time>2026-08-28T17:53:21Z</time>
  <course>90.02</course>
  <speed>1.01</speed>
  <fix>3d</fix>
</trkpt>
<trkpt lat="40.0713353" lon="-105.2294945">
  <ele>1583.1</ele>
  <time>2026-08-28T17:53:21Z</time>
  <course>90.68</course>
  <speed>0.99</speed>
  <fix>3d</fix>
</trkpt>
<trkpt lat="40.0713353" lon="-105.2294958">
  <ele>1583.0</ele>
  <time>2026-08-28T17:53:21Z</time>
  <course>90.02</course>
  <speed>1.02</speed>
  <fix>3d</fix>
</trkpt>
<trkpt lat="40.0713353" lon="-105.2294933">
  <ele>1583.09</ele>
  <time>2026-08-28T17:53:21Z</time>
  <course>90.68</course>
  <speed>0.99</speed>
  <fix>3d</fix>
</trkpt>
<trkpt lat="40.0713353" lon="-105.2294958">
  <ele>1583.0</ele>
  <time>2026-08-28T17:53:21Z</time>
  <course>90.02</course>
  <speed>1.02</speed>
  <fix>3d</fix>
</trkpt>
<trkpt lat="40.0713353" lon="-105.2294919">
  <ele>1583.09</ele>
  <time>2026-08-28T17:53:21Z</time>
  <course>90.68</course>
  <speed>0.99</speed>
  <fix>3d</fix>
</trkpt>
<trkpt lat="40.0713353" lon="-105.2294934">
  <ele>1583.0</ele>
  <time>2026-08-28T17:53:21Z</time>
  <course>90.02</course>
  <speed>1.02</speed>
  <fix>3d</fix>
</trkpt>
<trkpt lat="40.0713353" lon="-105.2294907">
  <ele>1583.09</ele>
  <time>2026-08-28T17:53:21Z</time>
  <course>90.68</course>
  <speed>0.99</speed>
  <fix>3d</fix>
</trkpt>
<trkpt lat="40.0713353" lon="-105.2294934">
  <ele>1583.0</ele>
  <time>2026-08-28T17:53:21Z</time>
  <course>90.02</course>
  <speed>1.02</speed>
  <fix>3d</fix>
</trkpt>
<trkpt lat="40.0713353" lon="-105.2294895">
  <ele>1583.09</ele>
  <time>2026-08-28T17:53:21Z</time>
  <course>90.68</course>
  <speed>0.99</speed>
  <fix>3d</fix>
</trkpt>
<trkpt lat="40.0713353" lon="-105.2294909">
  <ele>1583.0</ele>
  <time>2026-08-28T17:53:21Z</time>
  <course>90.02</course>
  <speed>1.02</speed>
  <fix>3d</fix>
</trkpt>
<trkpt lat="40.0713353" lon="-105.2294882">
  <ele>1583.09</ele>
  <time>2026-08-28T17:53:21Z</time>
  <course>90.68</course>
  <speed>1.0</speed>
  <fix>3d</fix>
</trkpt>
<trkpt lat="40.0713353" lon="-105.2294909">
  <ele>1583.0</ele>
  <time>2026-08-28T17:53:21Z</time>
  <course>90.02</course>
  <speed>1.02</speed>
  <fix>3d</fix>
</trkpt>
<trkpt lat="40.0713353" lon="-105.229487">
  <ele>1583.08</ele>
  <time>2026-08-28T17:53:21Z</time>
  <course>90.68</course>
  <speed>1.0</speed>
  <fix>3d</fix>
</trkpt>
<trkpt lat="40.0713353" lon="-105.2294885">
  <ele>1583.0</ele>
  <time>2026-08-28T17:53:21Z</time>
  <course>90.02</course>
  <speed>1.02</speed>
  <fix>3d</fix>
</trkpt>
<trkpt lat="40.0713353" lon="-105.2294858">
  <ele>1583.08</ele>
  <time>2026-08-28T17:53:21Z</time>
  <course>90.68</course>
  <speed>1.0</speed>
  <fix>3d</fix>
</trkpt>
<trkpt lat="40.0713353" lon="-105.2294885">
  <ele>1583.0</ele>
  <time>2026-08-28T17:53:21Z</time>
  <course>90.02</course>
  <speed>1.02</speed>
  <fix>3d</fix>
</trkpt>
<trkpt lat="40.0713353" lon="-105.2294846">
  <ele>1583.08</ele>
  <time>2026-08-28T17:53:21Z</time>
  <course>90.67</course>
  <speed>1.0</speed>
  <fix>3d</fix>
</trkpt>
<trkpt lat="40.0713353" lon="-105.229486">
  <ele>1583.0</ele>
  <time>2026-08-28T17:53:21Z</time>
  <course>90.02</course>
  <speed>1.03</speed>
  <fix>3d</fix>
</trkpt>
<trkpt lat="40.0713353" lon="-105.2294834">
  <ele>1583.08</ele>
  <time>2026-08-28T17:53:21Z</time>
  <course>90.66</course>
  <speed>1.0</speed>
  <fix>3d</fix>
</trkpt>
<trkpt lat="40.0713353" lon="-105.229486">
  <ele>1583.0</ele>
  <time>2026-08-28T17:53:21Z</time>
  <course>90.02</course>
  <speed>1.03</speed>
  <fix>3d</fix>
</trkpt>
<trkpt lat="40.0713353" lon="-105.2294822">
  <ele>1583.08</ele>
  <time>2026-08-28T17:53:21Z</time>
  <course>90.65</course>
  <speed>1.0</speed>
  <fix>3d</fix>
</trkpt>
<trkpt lat="40.0713353" lon="-105.2294836">
  <ele>1583.0</ele>
  <time>2026-08-28T17:53:21Z</time>
  <course>90.01</course>
  <speed>1.03</speed>
  <fix>3d</fix>
</trkpt>
<trkpt lat="40.0713353" lon="-105.2294809">
  <ele>1583.08</ele>
  <time>2026-08-28T17:53:21Z</time>
  <course>90.64</course>
  <speed>1.0</speed>
  <fix>3d</fix>
</trkpt>
<trkpt lat="40.0713353" lon="-105.2294836">
  <ele>1583.0</ele>
  <time>2026-08-28T17:53:21Z</time>
  <course>90.01</course>
  <speed>1.03</speed>
  <fix>3d</fix>
</trkpt>
<trkpt lat="40.0713353" lon="-105.2294797">
  <ele>1583.08</ele>
  <time>2026-08-28T17:53:21Z</time>
  <course>90.63</course>
  <speed>1.0</speed>
  <fix>3d</fix>
</trkpt>
<trkpt lat="40.0713353" lon="-105.2294812">
  <ele>1583.0</ele>
  <time>2026-08-28T17:53:21Z</time>
  <course>89.99</course>
  <speed>1.03</speed>
  <fix>3d</fix>
</trkpt>
<trkpt lat="40.0713353" lon="-105.2294788">
  <ele>1583.08</ele>
  <time>2026-08-28T17:53:21Z</time>
  <course>90.61</course>
  <speed>1.0</speed>
  <fix>3d</fix>
</trkpt>
<trkpt lat="40.0713353" lon="-105.2294812">
  <ele>1583.0</ele>
  <time>2026-08-28T17:53:21Z</time>
  <course>89.99</course>
  <speed>1.03</speed>
  <fix>3d</fix>
</trkpt>
<trkpt lat="40.0713353" lon="-105.2294776">
  <ele>1583.08</ele>
  <time>2026-08-28T17:53:21Z</time>
  <course>90.6</course>
  <speed>1.0</speed>
  <fix>3d</fix>
</trkpt>
<trkpt lat="40.0713353" lon="-105.2294788">
  <ele>1583.0</ele>
  <time>2026-08-28T17:53:21Z</time>
  <course>89.96</course>
  <speed>1.03</speed>
  <fix>3d</fix>
</trkpt>
<trkpt lat="40.0713353" lon="-105.2294763">
  <ele>1583.08</ele>
  <time>2026-08-28T17:53:21Z</time>
  <course>90.59</course>
  <speed>1.0</speed>
  <fix>3d</fix>
</trkpt>
<trkpt lat="40.0713353" lon="-105.2294788">
  <ele>1583.0</ele>
  <time>2026-08-28T17:53:21Z</time>
  <course>89.96</course>
  <speed>1.03</speed>
  <fix>3d</fix>
</trkpt>
<trkpt lat="40.0713353" lon="-105.2294751">
  <ele>1583.08</ele>
  <time>2026-08-28T17:53:21Z</time>
  <course>90.58</course>
  <speed>1.0</speed>
  <fix>3d</fix>
</trkpt>
<trkpt lat="40.0713353" lon="-105.2294764">
  <ele>1583.0</ele>
  <time>2026-08-28T17:53:21Z</time>
  <course>89.94</course>
  <speed>1.02</speed>
  <fix>3d</fix>
</trkpt>
<trkpt lat="40.0713353" lon="-105.2294739">
  <ele>1583.08</ele>
  <time>2026-08-28T17:53:21Z</time>
  <course>90.57</course>
  <speed>1.0</speed>
  <fix>3d</fix>
</trkpt>
<trkpt lat="40.0713353" lon="-105.2294764">
  <ele>1583.0</ele>
  <time>2026-08-28T17:53:21Z</time>
  <course>89.94</course>
  <speed>1.02</speed>
  <fix>3d</fix>
</trkpt>
<trkpt lat="40.0713353" lon="-105.2294727">
  <ele>1583.08</ele>
  <time>2026-08-28T17:53:21Z</time>
  <course>90.56</course>
  <speed>1.0</speed>
  <fix>3d</fix>
</trkpt>
<trkpt lat="40.0713353" lon="-105.229474">
  <ele>1583.0</ele>
  <time>2026-08-28T17:53:21Z</time>
  <course>89.92</course>
  <speed>1.02</speed>
  <fix>3d</fix>
</trkpt>
<trkpt lat="40.0713353" lon="-105.2294715">
  <ele>1583.08</ele>
  <time>2026-08-28T17:53:21Z</time>
  <course>90.55</course>
  <speed>1.0</speed>
  <fix>3d</fix>
</trkpt>
<trkpt lat="40.0713353" lon="-105.229474">
  <ele>1583.0</ele>
  <time>2026-08-28T17:53:21Z</time>
  <course>89.92</course>
  <speed>1.02</speed>
  <fix>3d</fix>
</trkpt>
<trkpt lat="40.0713353" lon="-105.2294703">
  <ele>1583.08</ele>
  <time>2026-08-28T17:53:21Z</time>
  <course>90.53</course>
  <speed>1.0</speed>
  <fix>3d</fix>
</trkpt>
<trkpt lat="40.0713353" lon="-105.2294716">
  <ele>1583.0</ele>
  <time>2026-08-28T17:53:21Z</time>
  <course>89.9</course>
  <speed>1.02</speed>
  <fix>3d</fix>
</trkpt>
<trkpt lat="40.0713353" lon="-105.2294691">
  <ele>1583.08</ele>
  <time>2026-08-28T17:53:21Z</time>
  <course>90.53</course>
  <speed>1.0</speed>
  <fix>3d</fix>
</trkpt>
<trkpt lat="40.0713353" lon="-105.2294716">
  <ele>1583.0</ele>
  <time>2026-08-28T17:53:21Z</time>
  <course>89.9</course>
  <speed>1.02</speed>
  <fix>3d</fix>
</trkpt>
<trkpt lat="40.0713353" lon="-105.2294678">
  <ele>1583.08</ele>
  <time>2026-08-28T17:53:21Z</time>
  <course>90.51</course>
  <speed>1.0</speed>
  <fix>3d</fix>
</trkpt>
<trkpt lat="40.0713353" lon="-105.2294692">
  <ele>1583.0</ele>
  <time>2026-08-28T17:53:21Z</time>
  <course>89.87</course>
  <speed>1.02</speed>
  <fix>3d</fix>
</trkpt>
<trkpt lat="40.0713353" lon="-105.2294664">
  <ele>1583.08</ele>
  <time>2026-08-28T17:53:21Z</time>
  <course>90.5</course>
  <speed>1.0</speed>
  <fix>3d</fix>
</trkpt>
<trkpt lat="40.0713353" lon="-105.2294692">
  <ele>1583.0</ele>
  <time>2026-08-28T17:53:21Z</time>
  <course>89.87</course>
  <speed>1.02</speed>
  <fix>3d</fix>
</trkpt>
<trkpt lat="40.0713353" lon="-105.2294652">
  <ele>1583.09</ele>
  <time>2026-08-28T17:53:21Z</time>
  <course>90.49</course>
  <speed>1.0</speed>
  <fix>3d</fix>
</trkpt>
<trkpt lat="40.0713353" lon="-105.2294668">
  <ele>1583.0</ele>
  <time>2026-08-28T17:53:21Z</time>
  <course>89.86</course>
  <speed>1.01</speed>
  <fix>3d</fix>
</trkpt>
<trkpt lat="40.0713353" lon="-105.229464">
  <ele>1583.09</ele>
  <time>2026-08-28T17:53:21Z</time>
  <course>90.48</course>
  <speed>1.0</speed>
  <fix>3d</fix>
</trkpt>
<trkpt lat="40.0713353" lon="-105.2294668">
  <ele>1583.0</ele>
  <time>2026-08-28T17:53:21Z</time>
  <course>89.86</course>
  <speed>1.01</speed>
  <fix>3d</fix>
</trkpt>
<trkpt lat="40.0713353" lon="-105.2294628">
  <ele>1583.09</ele>
  <time>2026-08-28T17:53:21Z</time>
  <course>90.47</course>
  <speed>1.0</speed>
  <fix>3d</fix>
</trkpt>
<trkpt lat="40.0713353" lon="-105.2294644">
  <ele>1583.0</ele>
  <time>2026-08-28T17:53:21Z</time>
  <course>89.84</course>
  <speed>1.01</speed>
  <fix>3d</fix>
</trkpt>
<trkpt lat="40.0713353" lon="-105.2294616">
  <ele>1583.1</ele>
  <time>2026-08-28T17:53:21Z</time>
  <course>90.46</course>
  <speed>1.0</speed>
  <fix>3d</fix>
</trkpt>
<trkpt lat="40.0713353" lon="-105.2294644">
  <ele>1583.0</ele>
  <time>2026-08-28T17:53:21Z</time>
  <course>89.84</course>
  <speed>1.01</speed>
  <fix>3d</fix>
</trkpt>
<trkpt lat="40.0713353" lon="-105.2294604">
  <ele>1583.1</ele>
  <time>2026-08-28T17:53:21Z</time>
  <course>90.45</course>
  <speed>1.0</speed>
  <fix>3d</fix>
</trkpt>
<trkpt lat="40.0713353" lon="-105.229462">
  <ele>1583.0</ele>
  <time>2026-08-28T17:53:21Z</time>
  <course>89.82</course>
  <speed>1.01</speed>
  <fix>3d</fix>
</trkpt>
<trkpt lat="40.0713353" lon="-105.2294592">
  <ele>1583.1</ele>
  <time>2026-08-28T17:53:21Z</time>
  <course>90.44</course>
  <speed>1.0</speed>
  <fix>3d</fix>
</trkpt>
<trkpt lat="40.0713353" lon="-105.229462">
  <ele>1583.0</ele>
  <time>2026-08-28T17:53:21Z</time>
  <course>89.82</course>
  <speed>1.01</speed>
  <fix>3d</fix>
</trkpt>
<trkpt lat="40.0713353" lon="-105.229458">
  <ele>1583.1</ele>
  <time>2026-08-28T17:53:21Z</time>
  <course>90.44</course>
  <speed>1.0</speed>
  <fix>3d</fix>
</trkpt>
<trkpt lat="40.0713353" lon="-105.2294596">
  <ele>1583.0</ele>
  <time>2026-08-28T17:53:21Z</time>
  <course>89.8</course>
  <speed>1.01</speed>
  <fix>3d</fix>
</trkpt>
<trkpt lat="40.0713353" lon="-105.2294568">
  <ele>1583.1</ele>
  <time>2026-08-28T17:53:21Z</time>
  <course>90.43</course>
  <speed>1.0</speed>
  <fix>3d</fix>
</trkpt>
<trkpt lat="40.0713353" lon="-105.2294596">
  <ele>1583.0</ele>
  <time>2026-08-28T17:53:21Z</time>
  <course>89.8</course>
  <speed>1.01</speed>
  <fix>3d</fix>
</trkpt>
<trkpt lat="40.0713353" lon="-105.2294556">
  <ele>1583.11</ele>
  <time>2026-08-28T17:53:21Z</time>
  <course>90.42</course>
  <speed>1.0000499987500624</speed>
  <fix>3d</fix>
</trkpt>
<trkpt lat="40.0713353" lon="-105.2294572">
  <ele>1583.0</ele>
  <time>2026-08-28T17:53:21Z</time>
  <course>89.78</course>
  <speed>1.01</speed>
  <fix>3d</fix>
</trkpt>
<trkpt lat="40.0713353" lon="-105.2294544">
  <ele>1583.11</ele>
  <time>2026-08-28T17:53:21Z</time>
  <course>90.41</course>
  <speed>1.0000499987500624</speed>
  <fix>3d</fix>
</trkpt>
<trkpt lat="40.0713353" lon="-105.2294572">
  <ele>1583.0</ele>
  <time>2026-08-28T17:53:21Z</time>
  <course>89.78</course>
  <speed>1.01</speed>
  <fix>3d</fix>
</trkpt>
<trkpt lat="40.0713353" lon="-105.2294535">
  <ele>1583.11</ele>
  <time>2026-08-28T17:53:21Z</time>
  <course>90.41</course>
  <speed>1.0000499987500624</speed>
  <fix>3d</fix>
</trkpt>
<trkpt lat="40.0713353" lon="-105.2294548">
  <ele>1583.0</ele>
  <time>2026-08-28T17:53:21Z</time>
  <course>89.76</course>
  <speed>1.01</speed>
  <fix>3d</fix>
</trkpt>
<trkpt lat="40.0713353" lon="-105.2294523">
  <ele>1583.11</ele>
  <time>2026-08-28T17:53:21Z</time>
  <course>90.4</course>
  <speed>1.0000499987500624</speed>
  <fix>3d</fix>
</trkpt>
<trkpt lat="40.0713353" lon="-105.2294548">
  <ele>1583.0</ele>
  <time>2026-08-28T17:53:21Z</time>
  <course>89.76</course>
  <speed>1.01</speed>
  <fix>3d</fix>
</trkpt>
<trkpt lat="40.0713353" lon="-105.2294511">
  <ele>1583.11</ele>
  <time>2026-08-28T17:53:21Z</time>
  <course>90.39</course>
  <speed>1.0000499987500624</speed>
  <fix>3d</fix>
</trkpt>
<trkpt lat="40.0713353" lon="-105.2294524">
  <ele>1583.0</ele>
  <time>2026-08-28T17:53:21Z</time>
  <course>89.75</course>
  <speed>1.01</speed>
  <fix>3d</fix>
</trkpt>
<trkpt lat="40.0713353" lon="-105.2294499">
  <ele>1583.11</ele>
  <time>2026-08-28T17:53:21Z</time>
  <course>91.1</course>
  <speed>1.010198000393982</speed>
  <fix>3d</fix>
</trkpt>
<trkpt lat="40.0713353" lon="-105.2294524">
  <ele>1583.0</ele>
  <time>2026-08-28T17:53:21Z</time>
  <course>89.75</course>
  <speed>1.01</speed>
  <fix>3d</fix>
</trkpt>
<trkpt lat="40.0713353" lon="-105.2294487">
  <ele>1583.12</ele>
  <time>2026-08-28T17:53:21Z</time>
  <course>92.99</course>
  <speed>1.031746092796091</speed>
  <fix>3d</fix>
</trkpt>
<trkpt lat="40.0713353" lon="-105.22945">
  <ele>1583.0</ele>
  <time>2026-08-28T17:53:21Z</time>
  <course>91.08</course>
  <speed>1.02</speed>
  <fix>3d</fix>
</trkpt>
<trkpt lat="40.0713352" lon="-105.2294474">
  <ele>1583.12</ele>
  <time>2026-08-28T17:53:21Z</time>
  <course>95.96</course>
  <speed>1.066770828247567</speed>
  <fix>3d</fix>
</trkpt>
<trkpt lat="40.0713353" lon="-105.22945">
  <ele>1583.0</ele>
  <time>2026-08-28T17:53:21Z</time>
  <course>91.08</course>
  <speed>1.02</speed>
  <fix>3d</fix>
</trkpt>
<trkpt lat="40.071335" lon="-105.2294461">
  <ele>1583.12</ele>
  <time>2026-08-28T17:53:21Z</time>
  <course>100.0</course>
  <speed>1.118033988749895</speed>
  <fix>3d</fix>
</trkpt>
<trkpt lat="40.0713352" lon="-105.2294476">
  <ele>1583.0</ele>
  <time>2026-08-28T17:53:21Z</time>
  <course>96.04</course>
  <speed>1.08</speed>
  <fix>3d</fix>
</trkpt>
<trkpt lat="40.0713348" lon="-105.2294448">
  <ele>1583.12</ele>
  <time>2026-08-28T17:53:21Z</time>
  <course>105.09</course>
  <speed>1.1840608092492548</speed>
  <fix>3d</fix>
</trkpt>
<trkpt lat="40.0713352" lon="-105.2294476">
  <ele>1583.0</ele>
  <time>2026-08-28T17:53:21Z</time>
  <course>96.04</course>
  <speed>1.08</speed>
  <fix>3d</fix>
</trkpt>
<trkpt lat="40.0713345" lon="-105.2294434">
  <ele>1583.12</ele>
  <time>2026-08-28T17:53:21Z</time>
  <course>110.23</course>
  <speed>1.240644993541666</speed>
  <fix>3d</fix>
</trkpt>
<trkpt lat="40.0713349" lon="-105.229445">
  <ele>1583.0</ele>
  <time>2026-08-28T17:53:21Z</time>
  <course>104.74</course>
  <speed>1.18</speed>
  <fix>3d</fix>
</trkpt>
<trkpt lat="40.071334" lon="-105.229442">
  <ele>1583.11</ele>
  <time>2026-08-28T17:53:21Z</time>
  <course>114.39</course>
  <speed>1.2928263611173776</speed>
  <fix>3d</fix>
</trkpt>
<trkpt lat="40.0713349" lon="-105.229445">
  <ele>1583.0</ele>
  <time>2026-08-28T17:53:21Z</time>
  <course>104.74</course>
  <speed>1.18</speed>
  <fix>3d</fix>
</trkpt>
<trkpt lat="40.0713333" lon="-105.2294403">
  <ele>1583.11</ele>
  <time>2026-08-28T17:53:21Z</time>
  <course>118.51</course>
  <speed>1.3520355024924455</speed>
  <fix>3d</fix>
</trkpt>
<trkpt lat="40.0713341" lon="-105.2294422">
  <ele>1583.0</ele>
  <time>2026-08-28T17:53:21Z</time>
  <course>113.56</course>
  <speed>1.29</speed>
  <fix>3d</fix>
</trkpt>
<trkpt lat="40.0713327" lon="-105.2294389">
  <ele>1583.1</ele>
  <time>2026-08-28T17:53:21Z</time>
  <course>121.33</course>
  <speed>1.392838827718412</speed>
  <fix>3d</fix>
</trkpt>
<trkpt lat="40.0713341" lon="-105.2294422">
  <ele>1583.0</ele>
  <time>2026-08-28T17:53:21Z</time>
  <course>113.56</course>
  <speed>1.29</speed>
  <fix>3d</fix>
</trkpt>
<trkpt lat="40.071332" lon="-105.2294374">
  <ele>1583.1</ele>
  <time>2026-08-28T17:53:21Z</time>
  <course>123.69</course>
  <speed>1.4256226709757387</speed>
  <fix>3d</fix>
</trkpt>
<trkpt lat="40.071333" lon="-105.2294395">
  <ele>1583.0</ele>
  <time>2026-08-28T17:53:21Z</time>
  <course>120.0</course>
  <speed>1.37</speed>
  <fix>3d</fix>
</trkpt>
<trkpt lat="40.0713313" lon="-105.229436">
  <ele>1583.1</ele>
  <time>2026-08-28T17:53:21Z</time>
  <course>125.65</course>
  <speed>1.4601369798755184</speed>
  <fix>3d</fix>
</trkpt>
<trkpt lat="40.071333" lon="-105.2294395">
  <ele>1583.0</ele>
  <time>2026-08-28T17:53:21Z</time>
  <course>120.0</course>
  <speed>1.37</speed>
  <fix>3d</fix>
</trkpt>
<trkpt lat="40.0713305" lon="-105.2294346">
  <ele>1583.1</ele>
  <time>2026-08-28T17:53:21Z</time>
  <course>127.29</course>
  <speed>1.4822280526288794</speed>
  <fix>3d</fix>
</trkpt>
<trkpt lat="40.0713317" lon="-105.2294366">
  <ele>1583.0</ele>
  <time>2026-08-28T17:53:21Z</time>
  <course>124.52</course>
  <speed>1.44</speed>
  <fix>3d</fix>
</trkpt>
<trkpt lat="40.0713296" lon="-105.2294332">
  <ele>1583.1</ele>
  <time>2026-08-28T17:53:21Z</time>
  <course>128.65</course>
  <speed>1.4993665329064805</speed>
  <fix>3d</fix>
</trkpt>
<trkpt lat="40.0713317" lon="-105.2294366">
  <ele>1583.0</ele>
  <time>2026-08-28T17:53:21Z</time>
  <course>124.52</course>
  <speed>1.44</speed>
  <fix>3d</fix>
</trkpt>
<trkpt lat="40.0713288" lon="-105.2294319">
  <ele>1583.1</ele>
  <time>2026-08-28T17:53:21Z</time>
  <course>129.79</course>
  <speed>1.5185519418182574</speed>
  <fix>3d</fix>
</trkpt>
<trkpt lat="40.0713302" lon="-105.2294339">
  <ele>1583.0</ele>
  <time>2026-08-28T17:53:21Z</time>
  <course>127.68</course>
  <speed>1.48</speed>
  <fix>3d</fix>
</trkpt>
<trkpt lat="40.0713279" lon="-105.2294305">
  <ele>1583.1</ele>
  <time>2026-08-28T17:53:21Z</time>
  <course>130.74</course>
  <speed>1.5305554547287727</speed>
  <fix>3d</fix>
</trkpt>
<trkpt lat="40.0713302" lon="-105.2294339">
  <ele>1583.0</ele>
  <time>2026-08-28T17:53:21Z</time>
  <course>127.68</course>
  <speed>1.48</speed>
  <fix>3d</fix>
</trkpt>
<trkpt lat="40.071327" lon="-105.2294292">
  <ele>1583.1</ele>
  <time>2026-08-28T17:53:21Z</time>
  <course>131.54</course>
  <speed>1.5363918770938616</speed>
  <fix>3d</fix>
</trkpt>
<trkpt lat="40.0713284" lon="-105.2294311">
  <ele>1583.0</ele>
  <time>2026-08-28T17:53:21Z</time>
  <course>129.87</course>
  <speed>1.51</speed>
  <fix>3d</fix>
</trkpt>
<trkpt lat="40.0713261" lon="-105.2294278">
  <ele>1583.1</ele>
  <time>2026-08-28T17:53:21Z</time>
  <course>132.2</course>
  <speed>1.5357408635573906</speed>
  <fix>3d</fix>
</trkpt>
<trkpt lat="40.0713284" lon="-105.2294311">
  <ele>1583.0</ele>
  <time>2026-08-28T17:53:21Z</time>
  <course>129.87</course>
  <speed>1.51</speed>
  <fix>3d</fix>
</trkpt>
<trkpt lat="40.0713252" lon="-105.2294265">
  <ele>1583.1</ele>
  <time>2026-08-28T17:53:21Z</time>
  <course>132.76</course>
  <speed>1.5352198539622917</speed>
  <fix>3d</fix>
</trkpt>
<trkpt lat="40.0713267" lon="-105.2294284">
  <ele>1583.0</ele>
  <time>2026-08-28T17:53:21Z</time>
  <course>131.4</course>
  <speed>1.52</speed>
  <fix>3d</fix>
</trkpt>
<trkpt lat="40.0713244" lon="-105.2294255">
  <ele>1583.1</ele>
  <time>2026-08-28T17:53:21Z</time>
  <course>133.13</course>
  <speed>1.5279397893896212</speed>
  <fix>3d</fix>
</trkpt>
<trkpt lat="40.0713267" lon="-105.2294284">
  <ele>1583.0</ele>
  <time>2026-08-28T17:53:21Z</time>
  <course>131.4</course>
  <speed>1.52</speed>
  <fix>3d</fix>
</trkpt>
<trkpt lat="40.0713235" lon="-105.2294242">
  <ele>1583.11</ele>
  <time>2026-08-28T17:53:21Z</time>
  <course>133.53</course>
  <speed>1.5276125163142649</speed>
  <fix>3d</fix>
</trkpt>
<trkpt lat="40.0713248" lon="-105.2294258">
  <ele>1583.0</ele>
  <time>2026-08-28T17:53:21Z</time>
  <course>132.47</course>
  <speed>1.52</speed>
  <fix>3d</fix>
</trkpt>
<trkpt lat="40.0713226" lon="-105.2294229">
  <ele>1583.1</ele>
  <time>2026-08-28T17:53:21Z</time>
  <course>133.85</course>
  <speed>1.5204275714416653</speed>
  <fix>3d</fix>
</trkpt>
<trkpt lat="40.0713248" lon="-105.2294258">
  <ele>1583.0</ele>
  <time>2026-08-28T17:53:21Z</time>
  <course>132.47</course>
  <speed>1.52</speed>
  <fix>3d</fix>
</trkpt>
<trkpt lat="40.0713216" lon="-105.2294216">
  <ele>1583.1</ele>
  <time>2026-08-28T17:53:21Z</time>
  <course>134.12</course>
  <speed>1.5132745950421558</speed>
  <fix>3d</fix>
</trkpt>
<trkpt lat="40.071323" lon="-105.2294231">
  <ele>1583.0</ele>
  <time>2026-08-28T17:53:21Z</time>
  <course>133.21</course>
  <speed>1.51</speed>
  <fix>3d</fix>
</trkpt>
<trkpt lat="40.0713207" lon="-105.2294203">
  <ele>1583.1</ele>
  <time>2026-08-28T17:53:21Z</time>
  <course>134.35</course>
  <speed>1.5132745950421558</speed>
  <fix>3d</fix>
</trkpt>
<trkpt lat="40.071323" lon="-105.2294231">
  <ele>1583.0</ele>
  <time>2026-08-28T17:53:21Z</time>
  <course>133.21</course>
  <speed>1.51</speed>
  <fix>3d</fix>
</trkpt>
<trkpt lat="40.0713198" lon="-105.229419">
  <ele>1583.1</ele>
  <time>2026-08-28T17:53:21Z</time>
  <course>134.54</course>
  <speed>1.5061540425866142</speed>
  <fix>3d</fix>
</trkpt>
<trkpt lat="40.0713211" lon="-105.2294206">
  <ele>1583.0</ele>
  <time>2026-08-28T17:53:21Z</time>
  <course>133.72</course>
  <speed>1.49</speed>
  <fix>3d</fix>
</trkpt>
<trkpt lat="40.0713188" lon="-105.2294177">
  <ele>1583.1</ele>
  <time>2026-08-28T17:53:21Z</time>
  <course>134.69</course>
  <speed>1.4920120642943877</speed>
  <fix>3d</fix>
</trkpt>
<trkpt lat="40.0713211" lon="-105.2294206">
  <ele>1583.0</ele>
  <time>2026-08-28T17:53:21Z</time>
  <course>133.72</course>
  <speed>1.49</speed>
  <fix>3d</fix>
</trkpt>
<trkpt lat="40.0713179" lon="-105.2294165">
  <ele>1583.1</ele>
  <time>2026-08-28T17:53:21Z</time>
  <course>134.82</course>
  <speed>1.4849242404917498</speed>
  <fix>3d</fix>
</trkpt>
<trkpt lat="40.0713193" lon="-105.2294181">
  <ele>1583.0</ele>
  <time>2026-08-28T17:53:21Z</time>
  <course>134.07</course>
  <speed>1.48</speed>
  <fix>3d</fix>
</trkpt>
<trkpt lat="40.071317" lon="-105.2294152">
  <ele>1583.1</ele>
  <time>2026-08-28T17:53:21Z</time>
  <course>134.93</course>
  <speed>1.4707821048680187</speed>
  <fix>3d</fix>
</trkpt>
<trkpt lat="40.0713193" lon="-105.2294181">
  <ele>1583.0</ele>
  <time>2026-08-28T17:53:21Z</time>
  <course>134.07</course>
  <speed>1.48</speed>
  <fix>3d</fix>
</trkpt>
<trkpt lat="40.0713161" lon="-105.229414">
  <ele>1583.11</ele>
  <time>2026-08-28T17:53:21Z</time>
  <course>135.01</course>
  <speed>1.456639969244288</speed>
  <fix>3d</fix>
</trkpt>
<trkpt lat="40.0713174" lon="-105.2294156">
  <ele>1583.0</ele>
  <time>2026-08-28T17:53:21Z</time>
  <course>134.31</course>
  <speed>1.46</speed>
  <fix>3d</fix>
</trkpt>
<trkpt lat="40.071315" lon="-105.2294125">
  <ele>1583.1</ele>
  <time>2026-08-28T17:53:21Z</time>
  <course>135.1</course>
  <speed>1.4495861478366852</speed>
  <fix>3d</fix>
</trkpt>
<trkpt lat="40.0713174" lon="-105.2294156">
  <ele>1583.0</ele>
  <time>2026-08-28T17:53:21Z</time>
  <course>134.31</course>
  <speed>1.46</speed>
  <fix>3d</fix>
</trkpt>
<trkpt lat="40.0713141" lon="-105.2294113">
  <ele>1583.1</ele>
  <time>2026-08-28T17:53:21Z</time>
  <course>135.15</course>
  <speed>1.442497833620557</speed>
  <fix>3d</fix>
</trkpt>
<trkpt lat="40.0713155" lon="-105.2294132">
  <ele>1583.0</ele>
  <time>2026-08-28T17:53:21Z</time>
  <course>134.47</course>
  <speed>1.44</speed>
  <fix>3d</fix>
</trkpt>
<trkpt lat="40.0713131" lon="-105.2294101">
  <ele>1583.1</ele>
  <time>2026-08-28T17:53:21Z</time>
  <course>135.2</course>
  <speed>1.4354441821262156</speed>
  <fix>3d</fix>
</trkpt>
<trkpt lat="40.0713155" lon="-105.2294132">
  <ele>1583.0</ele>
  <time>2026-08-28T17:53:21Z</time>
  <course>134.47</course>
  <speed>1.44</speed>
  <fix>3d</fix>
</trkpt>
<trkpt lat="40.0713122" lon="-105.229409">
  <ele>1583.1</ele>
  <time>2026-08-28T17:53:21Z</time>
  <course>135.97</course>
  <speed>1.421442928857856</speed>
  <fix>3d</fix>
</trkpt>
<trkpt lat="40.0713138" lon="-105.2294108">
  <ele>1583.0</ele>
  <time>2026-08-28T17:53:21Z</time>
  <course>134.83</course>
  <speed>1.42</speed>
  <fix>3d</fix>
</trkpt>
<trkpt lat="40.0713113" lon="-105.2294078">
  <ele>1583.1</ele>
  <time>2026-08-28T17:53:21Z</time>
  <course>137.9</course>
  <speed>1.4159802258506295</speed>
  <fix>3d</fix>
</trkpt>
<trkpt lat="40.0713138" lon="-105.2294108">
  <ele>1583.0</ele>
  <time>2026-08-28T17:53:21Z</time>
  <course>134.83</course>
  <speed>1.42</speed>
  <fix>3d</fix>
</trkpt>
<trkpt lat="40.0713104" lon="-105.2294067">
  <ele>1583.1</ele>
  <time>2026-08-28T17:53:21Z</time>
  <course>140.89</course>
  <speed>1.4071957930579526</speed>
  <fix>3d</fix>
</trkpt>
<trkpt lat="40.0713119" lon="-105.2294085">
  <ele>1583.0</ele>
  <time>2026-08-28T17:53:21Z</time>
  <course>137.38</course>
  <speed>1.41</speed>
  <fix>3d</fix>
</trkpt>
<trkpt lat="40.0713094" lon="-105.2294057">
  <ele>1583.1</ele>
  <time>2026-08-28T17:53:21Z</time>
  <course>144.96</course>
  <speed>1.4066271716414411</speed>
  <fix>3d</fix>
</trkpt>
<trkpt lat="40.0713119" lon="-105.2294085">
  <ele>1583.0</ele>
  <time>2026-08-28T17:53:21Z</time>
  <course>137.38</course>
  <speed>1.41</speed>
  <fix>3d</fix>
</trkpt>
<trkpt lat="40.0713083" lon="-105.2294048">
  <ele>1583.1</ele>
  <time>2026-08-28T17:53:21Z</time>
  <course>150.09</course>
  <speed>1.397891269019161</speed>
  <fix>3d</fix>
</trkpt>
<trkpt lat="40.07131" lon="-105.2294063">
  <ele>1583.0</ele>
  <time>2026-08-28T17:53:21Z</time>
  <course>144.03</course>
  <speed>1.39</speed>
  <fix>3d</fix>
</trkpt>
<trkpt lat="40.0713072" lon="-105.2294041">
  <ele>1583.1</ele>
  <time>2026-08-28T17:53:21Z</time>
  <course>156.27</course>
  <speed>1.387984149765407</speed>
  <fix>3d</fix>
</trkpt>
<trkpt lat="40.07131" lon="-105.2294063">
  <ele>1583.0</ele>
  <time>2026-08-28T17:53:21Z</time>
  <course>144.03</course>
  <speed>1.39</speed>
  <fix>3d</fix>
</trkpt>
<trkpt lat="40.0713061" lon="-105.2294036">
  <ele>1583.09</ele>
  <time>2026-08-28T17:53:21Z</time>
  <course>163.46</course>
  <speed>1.3888484438555562</speed>
  <fix>3d</fix>
</trkpt>
<trkpt lat="40.0713078" lon="-105.2294046">
  <ele>1583.0</ele>
  <time>2026-08-28T17:53:21Z</time>
  <course>154.93</course>
  <speed>1.38</speed>
  <fix>3d</fix>
</trkpt>
<trkpt lat="40.0713049" lon="-105.2294033">
  <ele>1583.09</ele>
  <time>2026-08-28T17:53:21Z</time>
  <course>171.67</course>
  <speed>1.38452157801892</speed>
  <fix>3d</fix>
</trkpt>
<trkpt lat="40.0713078" lon="-105.2294046">
  <ele>1583.0</ele>
  <time>2026-08-28T17:53:21Z</time>
  <course>154.93</course>
  <speed>1.38</speed>
  <fix>3d</fix>
</trkpt>
<trkpt lat="40.0713039" lon="-105.2294032">
  <ele>1583.09</ele>
  <time>2026-08-28T17:53:21Z</time>
  <course>178.76</course>
  <speed>1.3803260484392808</speed>
  <fix>3d</fix>
</trkpt>
<trkpt lat="40.0713055" lon="-105.2294036">
  <ele>1583.0</ele>
  <time>2026-08-28T17:53:21Z</time>
  <course>169.82</course>
  <speed>1.37</speed>
  <fix>3d</fix>
</trkpt>
<trkpt lat="40.0713027" lon="-105.2294033">
  <ele>1583.09</ele>
  <time>2026-08-28T17:53:21Z</time>
  <course>186.79</course>
  <speed>1.3793114224133722</speed>
  <fix>3d</fix>
</trkpt>
<trkpt lat="40.0713055" lon="-105.2294036">
  <ele>1583.0</ele>
  <time>2026-08-28T17:53:21Z</time>
  <course>169.82</course>
  <speed>1.37</speed>
  <fix>3d</fix>
</trkpt>
<trkpt lat="40.0713014" lon="-105.2294036">
  <ele>1583.08</ele>
  <time>2026-08-28T17:53:21Z</time>
  <course>193.81</course>
  <speed>1.377679207943562</speed>
  <fix>3d</fix>
</trkpt>
<trkpt lat="40.0713031" lon="-105.2294035">
  <ele>1583.0</ele>
  <time>2026-08-28T17:53:21Z</time>
  <course>185.73</course>
  <speed>1.37</speed>
  <fix>3d</fix>
</trkpt>
<trkpt lat="40.0713003" lon="-105.2294041">
  <ele>1583.08</ele>
  <time>2026-08-28T17:53:21Z</time>
  <course>199.78</course>
  <speed>1.3695619737711764</speed>
  <fix>3d</fix>
</trkpt>
<trkpt lat="40.0713031" lon="-105.2294035">
  <ele>1583.0</ele>
  <time>2026-08-28T17:53:21Z</time>
  <course>185.73</course>
  <speed>1.37</speed>
  <fix>3d</fix>
</trkpt>
<trkpt lat="40.0712991" lon="-105.2294047">
  <ele>1583.08</ele>
  <time>2026-08-28T17:53:21Z</time>
  <course>204.75</course>
  <speed>1.3780058055030102</speed>
  <fix>3d</fix>
</trkpt>
<trkpt lat="40.0713006" lon="-105.2294041">
  <ele>1583.0</ele>
  <time>2026-08-28T17:53:21Z</time>
  <course>198.73</course>
  <speed>1.38</speed>
  <fix>3d</fix>
</trkpt>
<trkpt lat="40.071298" lon="-105.2294055">
  <ele>1583.07</ele>
  <time>2026-08-28T17:53:21Z</time>
  <course>208.65</course>
  <speed>1.3782960494755836</speed>
  <fix>3d</fix>
</trkpt>
<trkpt lat="40.0713006" lon="-105.2294041">
  <ele>1583.0</ele>
  <time>2026-08-28T17:53:21Z</time>
  <course>198.73</course>
  <speed>1.38</speed>
  <fix>3d</fix>
</trkpt>
<trkpt lat="40.0712969" lon="-105.2294063">
  <ele>1583.07</ele>
  <time>2026-08-28T17:53:21Z</time>
  <course>211.56</course>
  <speed>1.3875518008348373</speed>
  <fix>3d</fix>
</trkpt>
<trkpt lat="40.0712983" lon="-105.2294054">
  <ele>1583.0</ele>
  <time>2026-08-28T17:53:21Z</time>
  <course>207.62</course>
  <speed>1.39</speed>
  <fix>3d</fix>
</trkpt>
<trkpt lat="40.0712959" lon="-105.2294073">
  <ele>1583.07</ele>
  <time>2026-08-28T17:53:21Z</time>
  <course>214.01</course>
  <speed>1.3895682782792647</speed>
  <fix>3d</fix>
</trkpt>
<trkpt lat="40.0712983" lon="-105.2294054">
  <ele>1583.0</ele>
  <time>2026-08-28T17:53:21Z</time>
  <course>207.62</course>
  <speed>1.39</speed>
  <fix>3d</fix>
</trkpt>
<trkpt lat="40.0712949" lon="-105.2294082">
  <ele>1583.08</ele>
  <time>2026-08-28T17:53:21Z</time>
  <course>216.04</course>
  <speed>1.3880922159568507</speed>
  <fix>3d</fix>
</trkpt>
<trkpt lat="40.0712962" lon="-105.2294072">
  <ele>1583.0</ele>
  <time>2026-08-28T17:53:21Z</time>
  <course>213.25</course>
  <speed>1.39</speed>
  <fix>3d</fix>
</trkpt>
<trkpt lat="40.0712938" lon="-105.2294092">
  <ele>1583.08</ele>
  <time>2026-08-28T17:53:21Z</time>
  <course>217.72</course>
  <speed>1.3962807740565648</speed>
  <fix>3d</fix>
</trkpt>
<trkpt lat="40.0712962" lon="-105.2294072">
  <ele>1583.0</ele>
  <time>2026-08-28T17:53:21Z</time>
  <course>213.25</course>
  <speed>1.39</speed>
  <fix>3d</fix>
</trkpt>
<trkpt lat="40.0712927" lon="-105.2294105">
  <ele>1583.08</ele>
  <time>2026-08-28T17:53:21Z</time>
  <course>219.37</course>
  <speed>1.3994641831786907</speed>
  <fix>3d</fix>
</trkpt>
<trkpt lat="40.0712941" lon="-105.2294091">
  <ele>1583.0</ele>
  <time>2026-08-28T17:53:21Z</time>
  <course>217.02</course>
  <speed>1.4</speed>
  <fix>3d</fix>
</trkpt>
<trkpt lat="40.0712917" lon="-105.2294116">
  <ele>1583.08</ele>
  <time>2026-08-28T17:53:21Z</time>
  <course>220.49</course>
  <speed>1.3970325694127537</speed>
  <fix>3d</fix>
</trkpt>
<trkpt lat="40.0712941" lon="-105.2294091">
  <ele>1583.0</ele>
  <time>2026-08-28T17:53:21Z</time>
  <course>217.02</course>
  <speed>1.4</speed>
  <fix>3d</fix>
</trkpt>
<trkpt lat="40.0712907" lon="-105.2294127">
  <ele>1583.09</ele>
  <time>2026-08-28T17:53:21Z</time>
  <course>221.42</course>
  <speed>1.4026403673073151</speed>
  <fix>3d</fix>
</trkpt>
<trkpt lat="40.0712922" lon="-105.2294111">
  <ele>1583.0</ele>
  <time>2026-08-28T17:53:21Z</time>
  <course>219.62</course>
  <speed>1.4</speed>
  <fix>3d</fix>
</trkpt>
<trkpt lat="40.0712898" lon="-105.2294138">
  <ele>1583.09</ele>
  <time>2026-08-28T17:53:21Z</time>
  <course>222.19</course>
  <speed>1.4018559127100045</speed>
  <fix>3d</fix>
</trkpt>
<trkpt lat="40.0712922" lon="-105.2294111">
  <ele>1583.0</ele>
  <time>2026-08-28T17:53:21Z</time>
  <course>219.62</course>
  <speed>1.4</speed>
  <fix>3d</fix>
</trkpt>
<trkpt lat="40.0712888" lon="-105.2294149">
  <ele>1583.09</ele>
  <time>2026-08-28T17:53:21Z</time>
  <course>222.83</course>
  <speed>1.4012137595670404</speed>
  <fix>3d</fix>
</trkpt>
<trkpt lat="40.0712903" lon="-105.2294133">
  <ele>1583.0</ele>
  <time>2026-08-28T17:53:21Z</time>
  <course>221.43</course>
  <speed>1.41</speed>
  <fix>3d</fix>
</trkpt>
<trkpt lat="40.0712879" lon="-105.229416">
  <ele>1583.1</ele>
  <time>2026-08-28T17:53:21Z</time>
  <course>223.36</course>
  <speed>1.4007141035914503</speed>
  <fix>3d</fix>
</trkpt>
<trkpt lat="40.0712903" lon="-105.2294133">
  <ele>1583.0</ele>
  <time>2026-08-28T17:53:21Z</time>
  <course>221.43</course>
  <speed>1.41</speed>
  <fix>3d</fix>
</trkpt>
<trkpt lat="40.071287" lon="-105.2294172">
  <ele>1583.1</ele>
  <time>2026-08-28T17:53:21Z</time>
  <course>223.8</course>
  <speed>1.4003570973148243</speed>
  <fix>3d</fix>
</trkpt>
<trkpt lat="40.0712884" lon="-105.2294154">
  <ele>1583.0</ele>
  <time>2026-08-28T17:53:21Z</time>
  <course>222.67</course>
  <speed>1.41</speed>
  <fix>3d</fix>
</trkpt>
<trkpt lat="40.0712861" lon="-105.2294183">
  <ele>1583.1</ele>
  <time>2026-08-28T17:53:21Z</time>
  <course>224.17</course>
  <speed>1.4073023839957068</speed>
  <fix>3d</fix>
</trkpt>
<trkpt lat="40.0712884" lon="-105.2294154">
  <ele>1583.0</ele>
  <time>2026-08-28T17:53:21Z</time>
  <course>222.67</course>
  <speed>1.41</speed>
  <fix>3d</fix>
</trkpt>
<trkpt lat="40.0712852" lon="-105.2294195">
  <ele>1583.11</ele>
  <time>2026-08-28T17:53:21Z</time>
  <course>224.47</course>
  <speed>1.4073023839957068</speed>
  <fix>3d</fix>
</trkpt>
<trkpt lat="40.0712865" lon="-105.2294177">
  <ele>1583.0</ele>
  <time>2026-08-28T17:53:21Z</time>
  <course>223.52</course>
  <speed>1.41</speed>
  <fix>3d</fix>
</trkpt>
<trkpt lat="40.0712843" lon="-105.2294206">
  <ele>1583.11</ele>
  <time>2026-08-28T17:53:21Z</time>
  <course>224.71</course>
  <speed>1.4071602609511116</speed>
  <fix>3d</fix>
</trkpt>
<trkpt lat="40.0712865" lon="-105.2294177">
  <ele>1583.0</ele>
  <time>2026-08-28T17:53:21Z</time>
  <course>223.52</course>
  <speed>1.41</speed>
  <fix>3d</fix>
</trkpt>
<trkpt lat="40.0712834" lon="-105.2294218">
  <ele>1583.11</ele>
  <time>2026-08-28T17:53:21Z</time>
  <course>224.92</course>
  <speed>1.4071602609511116</speed>
  <fix>3d</fix>
</trkpt>
<trkpt lat="40.0712846" lon="-105.2294201">
  <ele>1583.0</ele>
  <time>2026-08-28T17:53:21Z</time>
  <course>224.1</course>
  <speed>1.41</speed>
  <fix>3d</fix>
</trkpt>
<trkpt lat="40.0712827" lon="-105.2294227">
  <ele>1583.11</ele>
  <time>2026-08-28T17:53:21Z</time>
  <course>225.05</course>
  <speed>1.4071602609511116</speed>
  <fix>3d</fix>
</trkpt>
<trkpt lat="40.0712846" lon="-105.2294201">
  <ele>1583.0</ele>
  <time>2026-08-28T17:53:21Z</time>
  <course>224.1</course>
  <speed>1.41</speed>
  <fix>3d</fix>
</trkpt>
<trkpt lat="40.0712818" lon="-105.2294239">
  <ele>1583.11</ele>
  <time>2026-08-28T17:53:21Z</time>
  <course>225.19</course>
  <speed>1.4071602609511116</speed>
  <fix>3d</fix>
</trkpt>
<trkpt lat="40.0712829" lon="-105.2294224">
  <ele>1583.0</ele>
  <time>2026-08-28T17:53:21Z</time>
  <course>224.5</course>
  <speed>1.42</speed>
  <fix>3d</fix>
</trkpt>
<trkpt lat="40.0712809" lon="-105.229425">
  <ele>1583.11</ele>
  <time>2026-08-28T17:53:21Z</time>
  <course>225.31</course>
  <speed>1.4071602609511116</speed>
  <fix>3d</fix>
</trkpt>
<trkpt lat="40.0712829" lon="-105.2294224">
  <ele>1583.0</ele>
  <time>2026-08-28T17:53:21Z</time>
  <course>224.5</course>
  <speed>1.42</speed>
  <fix>3d</fix>
</trkpt>
<trkpt lat="40.07128" lon="-105.2294262">
  <ele>1583.11</ele>
  <time>2026-08-28T17:53:21Z</time>
  <course>225.4</course>
  <speed>1.4142135623730951</speed>
  <fix>3d</fix>
</trkpt>
<trkpt lat="40.071281" lon="-105.2294247">
  <ele>1583.0</ele>
  <time>2026-08-28T17:53:21Z</time>
  <course>224.76</course>
  <speed>1.42</speed>
  <fix>3d</fix>
</trkpt>
<trkpt lat="40.0712791" lon="-105.2294274">
  <ele>1583.11</ele>
  <time>2026-08-28T17:53:21Z</time>
  <course>225.47</course>
  <speed>1.4142135623730951</speed>
  <fix>3d</fix>
</trkpt>
<trkpt lat="40.071281" lon="-105.2294247">
  <ele>1583.0</ele>
  <time>2026-08-28T17:53:21Z</time>
  <course>224.76</course>
  <speed>1.42</speed>
  <fix>3d</fix>
</trkpt>
<trkpt lat="40.0712781" lon="-105.2294286">
  <ele>1583.11</ele>
  <time>2026-08-28T17:53:21Z</time>
  <course>225.53</course>
  <speed>1.4142135623730951</speed>
  <fix>3d</fix>
</trkpt>
<trkpt lat="40.0712793" lon="-105.2294271">
  <ele>1583.0</ele>
  <time>2026-08-28T17:53:21Z</time>
  <course>224.93</course>
  <speed>1.42</speed>
  <fix>3d</fix>
</trkpt>
<trkpt lat="40.0712772" lon="-105.2294297">
  <ele>1583.11</ele>
  <time>2026-08-28T17:53:21Z</time>
  <course>225.57</course>
  <speed>1.4142135623730951</speed>
  <fix>3d</fix>
</trkpt>
<trkpt lat="40.0712793" lon="-105.2294271">
  <ele>1583.0</ele>
  <time>2026-08-28T17:53:21Z</time>
  <course>224.93</course>
  <speed>1.42</speed>
  <fix>3d</fix>
</trkpt>
<trkpt lat="40.0712763" lon="-105.2294309">
  <ele>1583.11</ele>
  <time>2026-08-28T17:53:21Z</time>
  <course>225.61</course>
  <speed>1.4142135623730951</speed>
  <fix>3d</fix>
</trkpt>
<trkpt lat="40.0712774" lon="-105.2294295">
  <ele>1583.0</ele>
  <time>2026-08-28T17:53:21Z</time>
  <course>225.04</course>
  <speed>1.42</speed>
  <fix>3d</fix>
</trkpt>
<trkpt lat="40.0712754" lon="-105.2294321">
  <ele>1583.11</ele>
  <time>2026-08-28T17:53:21Z</time>
  <course>226.38</course>
  <speed>1.4073023839957068</speed>
  <fix>3d</fix>
</trkpt>
<trkpt lat="40.0712774" lon="-105.2294295">
  <ele>1583.0</ele>
  <time>2026-08-28T17:53:21Z</time>
  <course>225.04</course>
  <speed>1.42</speed>
  <fix>3d</fix>
</trkpt>
<trkpt lat="40.0712744" lon="-105.2294336">
  <ele>1583.11</ele>
  <time>2026-08-28T17:53:21Z</time>
  <course>228.83</course>
  <speed>1.3810503249338888</speed>
  <fix>3d</fix>
</trkpt>
<trkpt lat="40.0712757" lon="-105.2294319">
  <ele>1583.0</ele>
  <time>2026-08-28T17:53:21Z</time>
  <course>226.43</course>
  <speed>1.4</speed>
  <fix>3d</fix>
</trkpt>
<trkpt lat="40.0712736" lon="-105.2294348">
  <ele>1583.11</ele>
  <time>2026-08-28T17:53:21Z</time>
  <course>232.06</course>
  <speed>1.330601367803295</speed>
  <fix>3d</fix>
</trkpt>
<trkpt lat="40.0712757" lon="-105.2294319">
  <ele>1583.0</ele>
  <time>2026-08-28T17:53:21Z</time>
  <course>226.43</course>
  <speed>1.4</speed>
  <fix>3d</fix>
</trkpt>
<trkpt lat="40.0712729" lon="-105.2294361">
  <ele>1583.1</ele>
  <time>2026-08-28T17:53:21Z</time>
  <course>236.35</course>
  <speed>1.2731457104353767</speed>
  <fix>3d</fix>
</trkpt>
<trkpt lat="40.071274" lon="-105.2294343">
  <ele>1583.0</ele>
  <time>2026-08-28T17:53:21Z</time>
  <course>231.23</course>
  <speed>1.34</speed>
  <fix>3d</fix>
</trkpt>
<trkpt lat="40.0712723" lon="-105.2294373">
  <ele>1583.1</ele>
  <time>2026-08-28T17:53:21Z</time>
  <course>241.68</course>
  <speed>1.2083045973594573</speed>
  <fix>3d</fix>
</trkpt>
<trkpt lat="40.071274" lon="-105.2294343">
  <ele>1583.0</ele>
  <time>2026-08-28T17:53:21Z</time>
  <course>231.23</course>
  <speed>1.34</speed>
  <fix>3d</fix>
</trkpt>
<trkpt lat="40.0712718" lon="-105.2294386">
  <ele>1583.1</ele>
  <time>2026-08-28T17:53:21Z</time>
  <course>248.02</course>
  <speed>1.1253888216967503</speed>
  <fix>3d</fix>
</trkpt>
<trkpt lat="40.0712727" lon="-105.2294367">
  <ele>1583.0</ele>
  <time>2026-08-28T17:53:21Z</time>
  <course>240.22</course>
  <speed>1.22</speed>
  <fix>3d</fix>
</trkpt>
<trkpt lat="40.0712715" lon="-105.2294398">
  <ele>1583.1</ele>
  <time>2026-08-28T17:53:21Z</time>
  <course>254.93</course>
  <speed>1.0288342918079665</speed>
  <fix>3d</fix>
</trkpt>
<trkpt lat="40.0712727" lon="-105.2294367">
  <ele>1583.0</ele>
  <time>2026-08-28T17:53:21Z</time>
  <course>240.22</course>
  <speed>1.22</speed>
  <fix>3d</fix>
</trkpt>
<trkpt lat="40.0712714" lon="-105.2294409">
  <ele>1583.1</ele>
  <time>2026-08-28T17:53:21Z</time>
  <course>261.32</course>
  <speed>0.932148056909416</speed>
  <fix>3d</fix>
</trkpt>
<trkpt lat="40.0712719" lon="-105.2294392">
  <ele>1583.0</ele>
  <time>2026-08-28T17:53:21Z</time>
  <course>252.35</course>
  <speed>1.05</speed>
  <fix>3d</fix>
</trkpt>
<trkpt lat="40.0712713" lon="-105.229442">
  <ele>1583.09</ele>
  <time>2026-08-28T17:53:21Z</time>
  <course>267.06</course>
  <speed>0.8215229759416348</speed>
  <fix>3d</fix>
</trkpt>
<trkpt lat="40.0712719" lon="-105.2294392">
  <ele>1583.0</ele>
  <time>2026-08-28T17:53:21Z</time>
  <course>252.35</course>
  <speed>1.05</speed>
  <fix>3d</fix>
</trkpt>
<trkpt lat="40.0712713" lon="-105.2294429">
  <ele>1583.09</ele>
  <time>2026-08-28T17:53:21Z</time>
  <course>272.1</course>
  <speed>0.7100704190430693</speed>
  <fix>3d</fix>
</trkpt>
<trkpt lat="40.0712715" lon="-105.2294414">
  <ele>1583.0</ele>
  <time>2026-08-28T17:53:21Z</time>
  <course>264.5</course>
  <speed>0.86</speed>
  <fix>3d</fix>
</trkpt>
<trkpt lat="40.0712714" lon="-105.2294436">
  <ele>1583.09</ele>
  <time>2026-08-28T17:53:21Z</time>
  <course>276.41</course>
  <speed>0.58309518948453</speed>
  <fix>3d</fix>
</trkpt>
<trkpt lat="40.0712715" lon="-105.2294414">
  <ele>1583.0</ele>
  <time>2026-08-28T17:53:21Z</time>
  <course>264.5</course>
  <speed>0.86</speed>
  <fix>3d</fix>
</trkpt>
<trkpt lat="40.0712715" lon="-105.2294442">
  <ele>1583.09</ele>
  <time>2026-08-28T17:53:21Z</time>
  <course>279.95</course>
  <speed>0.46529560496527367</speed>
  <fix>3d</fix>
</trkpt>
<trkpt lat="40.0712715" lon="-105.2294431">
  <ele>1583.0</ele>
  <time>2026-08-28T17:53:21Z</time>
  <course>274.03</course>
  <speed>0.63</speed>
  <fix>3d</fix>
</trkpt>
<trkpt lat="40.0712716" lon="-105.2294447">
  <ele>1583.09</ele>
  <time>2026-08-28T17:53:21Z</time>
  <course>282.73</course>
  <speed>0.33734255586865997</speed>
  <fix>3d</fix>
</trkpt>
<trkpt lat="40.0712715" lon="-105.2294431">
  <ele>1583.0</ele>
  <time>2026-08-28T17:53:21Z</time>
  <course>274.03</course>
  <speed>0.63</speed>
  <fix>3d</fix>
</trkpt>
<trkpt lat="40.0712716" lon="-105.2294449">
  <ele>1583.09</ele>
  <time>2026-08-28T17:53:21Z</time>
  <course>284.35</course>
  <speed>0.22561028345356957</speed>
  <fix>3d</fix>
</trkpt>
<trkpt lat="40.0712715" lon="-105.2294443">
  <ele>1583.0</ele>
  <time>2026-08-28T17:53:21Z</time>
  <course>280.57</course>
  <speed>0.39</speed>
  <fix>3d</fix>
</trkpt>
<trkpt lat="40.0712717" lon="-105.2294451">
  <ele>1583.09</ele>
  <time>2026-08-28T17:53:21Z</time>
  <course>285.65</course>
  <speed>0.1019803902718557</speed>
  <fix>3d</fix>
</trkpt>
<trkpt lat="40.0712715" lon="-105.2294443">
  <ele>1583.0</ele>
  <time>2026-08-28T17:53:21Z</time>
  <course>280.57</course>
  <speed>0.39</speed>
  <fix>3d</fix>
</trkpt>
<trkpt lat="40.0712717" lon="-105.2294451">
  <ele>1583.09</ele>
  <time>2026-08-28T17:53:21Z</time>
  <course>286.28</course>
  <speed>0.03</speed>
  <fix>3d</fix>
</trkpt>
<trkpt lat="40.0712716" lon="-105.229445">
  <ele>1583.0</ele>
  <time>2026-08-28T17:53:21Z</time>
  <course>284.29</course>
  <speed>0.16</speed>
  <fix>3d</fix>
</trkpt>
<trkpt lat="40.0712717" lon="-105.2294452">
  <ele>1583.09</ele>
  <time>2026-08-28T17:53:21Z</time>
  <course>286.7</course>
  <speed>0.03</speed>
  <fix>3d</fix>
</trkpt>
<trkpt lat="40.0712716" lon="-105.229445">
  <ele>1583.0</ele>
  <time>2026-08-28T17:53:21Z</time>
  <course>284.29</course>
  <speed>0.16</speed>
  <fix>3d</fix>
</trkpt>
<trkpt lat="40.0712717" lon="-105.2294452">
  <ele>1583.09</ele>
  <time>2026-08-28T17:53:21Z</time>
  <course>287.11</course>
  <speed>0.02</speed>
  <fix>3d</fix>
</trkpt>
<trkpt lat="40.0712716" lon="-105.2294452">
  <ele>1583.0</ele>
  <time>2026-08-28T17:53:21Z</time>
  <course>286.21</course>
  <speed>0.06</speed>
  <fix>3d</fix>
</trkpt>
<trkpt lat="40.0712717" lon="-105.2294452">
  <ele>1583.09</ele>
  <time>2026-08-28T17:53:21Z</time>
  <course>287.49</course>
  <speed>0.02</speed>
  <fix>3d</fix>
</trkpt>
<trkpt lat="40.0712716" lon="-105.2294452">
  <ele>1583.0</ele>
  <time>2026-08-28T17:53:21Z</time>
  <course>286.21</course>
  <speed>0.06</speed>
  <fix>3d</fix>
</trkpt>
<trkpt lat="40.0712717" lon="-105.2294453">
  <ele>1583.09</ele>
  <time>2026-08-28T17:53:21Z</time>
  <course>287.85</course>
  <speed>0.02</speed>
  <fix>3d</fix>
</trkpt>
<trkpt lat="40.0712716" lon="-105.2294454">
  <ele>1583.0</ele>
  <time>2026-08-28T17:53:21Z</time>
  <course>287.01</course>
  <speed>0.05</speed>
  <fix>3d</fix>
</trkpt>
<trkpt lat="40.0712717" lon="-105.2294453">
  <ele>1583.09</ele>
  <time>2026-08-28T17:53:21Z</time>
  <course>288.2</course>
  <speed>0.01</speed>
  <fix>3d</fix>
</trkpt>
<trkpt lat="40.0712716" lon="-105.2294454">
  <ele>1583.0</ele>
  <time>2026-08-28T17:53:21Z</time>
  <course>287.01</course>
  <speed>0.05</speed>
  <fix>3d</fix>
</trkpt>
<trkpt lat="40.0712717" lon="-105.2294453">
  <ele>1583.09</ele>
  <time>2026-08-28T17:53:21Z</time>
  <course>288.53</course>
  <speed>0.01</speed>
  <fix>3d</fix>
</trkpt>
<trkpt lat="40.0712717" lon="-105.2294455">
  <ele>1583.0</ele>
  <time>2026-08-28T17:53:21Z</time>
  <course>287.73</course>
  <speed>0.05</speed>
  <fix>3d</fix>
</trkpt>
<trkpt lat="40.0712717" lon="-105.2294454">
  <ele>1583.08</ele>
  <time>2026-08-28T17:53:21Z</time>
  <course>288.9</course>
  <speed>0.01</speed>
  <fix>3d</fix>
</trkpt>
<trkpt lat="40.0712717" lon="-105.2294455">
  <ele>1583.0</ele>
  <time>2026-08-28T17:53:21Z</time>
  <course>287.73</course>
  <speed>0.05</speed>
  <fix>3d</fix>
</trkpt>
<trkpt lat="40.0712717" lon="-105.2294454">
  <ele>1583.08</ele>
  <time>2026-08-28T17:53:21Z</time>
  <course>289.19</course>
  <speed>0.01</speed>
  <fix>3d</fix>
</trkpt>
<trkpt lat="40.0712718" lon="-105.2294456">
  <ele>1583.0</ele>
  <time>2026-08-28T17:53:21Z</time>
  <course>288.38</course>
  <speed>0.04</speed>
  <fix>3d</fix>
</trkpt>
<trkpt lat="40.0712717" lon="-105.2294455">
  <ele>1583.08</ele>
  <time>2026-08-28T17:53:21Z</time>
  <course>289.47</course>
  <speed>0.01</speed>
  <fix>3d</fix>
</trkpt>
<trkpt lat="40.0712718" lon="-105.2294456">
  <ele>1583.0</ele>
  <time>2026-08-28T17:53:21Z</time>
  <course>288.38</course>
  <speed>0.04</speed>
  <fix>3d</fix>
</trkpt>
<trkpt lat="40.0712717" lon="-105.2294455">
  <ele>1583.08</ele>
  <time>2026-08-28T17:53:21Z</time>
  <course>289.74</course>
  <speed>0.01</speed>
  <fix>3d</fix>
</trkpt>
<trkpt lat="40.0712718" lon="-105.2294457">
  <ele>1583.0</ele>
  <time>2026-08-28T17:53:21Z</time>
  <course>288.97</course>
  <speed>0.04</speed>
  <fix>3d</fix>
</trkpt>
<trkpt lat="40.0712717" lon="-105.2294455">
  <ele>1583.08</ele>
  <time>2026-08-28T17:53:21Z</time>
  <course>289.99</course>
  <speed>0.01</speed>
  <fix>3d</fix>
</trkpt>
<trkpt lat="40.0712718" lon="-105.2294457">
  <ele>1583.0</ele>
  <time>2026-08-28T17:53:21Z</time>
  <course>288.97</course>
  <speed>0.04</speed>
  <fix>3d</fix>
</trkpt>
<trkpt lat="40.0712717" lon="-105.2294456">
  <ele>1583.08</ele>
  <time>2026-08-28T17:53:21Z</time>
  <course>290.23</course>
  <speed>0.0</speed>
  <fix>3d</fix>
</trkpt>
<trkpt lat="40.0712718" lon="-105.2294458">
  <ele>1583.0</ele>
  <time>2026-08-28T17:53:21Z</time>
  <course>289.51</course>
  <speed>0.03</speed>
  <fix>3d</fix>
</trkpt>
<trkpt lat="40.0712717" lon="-105.2294456">
  <ele>1583.08</ele>
  <time>2026-08-28T17:53:21Z</time>
  <course>290.45</course>
  <speed>0.0</speed>
  <fix>3d</fix>
</trkpt>
<trkpt lat="40.0712718" lon="-105.2294458">
  <ele>1583.0</ele>
  <time>2026-08-28T17:53:21Z</time>
  <course>289.51</course>
  <speed>0.03</speed>
  <fix>3d</fix>
</trkpt>
<trkpt lat="40.0712717" lon="-105.2294456">
  <ele>1583.08</ele>
  <time>2026-08-28T17:53:21Z</time>
  <course>290.67</course>
  <speed>0.0</speed>
  <fix>3d</fix>
</trkpt>
<trkpt lat="40.0712718" lon="-105.2294459">
  <ele>1583.0</ele>
  <time>2026-08-28T17:53:21Z</time>
  <course>289.99</course>
  <speed>0.03</speed>
  <fix>3d</fix>
</trkpt>
<trkpt lat="40.0712717" lon="-105.2294457">
  <ele>1583.08</ele>
  <time>2026-08-28T17:53:21Z</time>
  <course>290.88</course>
  <speed>0.0</speed>
  <fix>3d</fix>
</trkpt>
<trkpt lat="40.0712718" lon="-105.2294459">
  <ele>1583.0</ele>
  <time>2026-08-28T17:53:21Z</time>
  <course>289.99</course>
  <speed>0.03</speed>
  <fix>3d</fix>
</trkpt>
<trkpt lat="40.0712717" lon="-105.2294457">
  <ele>1583.08</ele>
  <time>2026-08-28T17:53:21Z</time>
  <course>291.07</course>
  <speed>0.0</speed>
  <fix>3d</fix>
</trkpt>
<trkpt lat="40.0712719" lon="-105.229446">
  <ele>1583.0</ele>
  <time>2026-08-28T17:53:21Z</time>
  <course>290.43</course>
  <speed>0.03</speed>
  <fix>3d</fix>
</trkpt>
<trkpt lat="40.0712717" lon="-105.2294458">
  <ele>1583.08</ele>
  <time>2026-08-28T17:53:21Z</time>
  <course>291.26</course>
  <speed>0.0</speed>
  <fix>3d</fix>
</trkpt>
<trkpt lat="40.0712719" lon="-105.229446">
  <ele>1583.0</ele>
  <time>2026-08-28T17:53:21Z</time>
  <course>290.43</course>
  <speed>0.03</speed>
  <fix>3d</fix>
</trkpt>
<trkpt lat="40.0712717" lon="-105.2294458">
  <ele>1583.08</ele>
  <time>2026-08-28T17:53:21Z</time>
  <course>291.4</course>
  <speed>0.0</speed>
  <fix>3d</fix>
</trkpt>
<trkpt lat="40.0712719" lon="-105.229446">
  <ele>1583.0</ele>
  <time>2026-08-28T17:53:21Z</time>
  <course>290.83</course>
  <speed>0.02</speed>
  <fix>3d</fix>
</trkpt>
<trkpt lat="40.0712717" lon="-105.2294458">
  <ele>1583.09</ele>
  <time>2026-08-28T17:53:21Z</time>
  <course>291.57</course>
  <speed>0.0</speed>
  <fix>3d</fix>
</trkpt>
<trkpt lat="40.0712719" lon="-105.229446">
  <ele>1583.0</ele>
  <time>2026-08-28T17:53:21Z</time>
  <course>290.83</course>
  <speed>0.02</speed>
  <fix>3d</fix>
</trkpt>
<trkpt lat="40.0712717" lon="-105.2294459">
  <ele>1583.09</ele>
  <time>2026-08-28T17:53:21Z</time>
  <course>291.73</course>
  <speed>0.0</speed>
  <fix>3d</fix>
</trkpt>
<trkpt lat="40.0712719" lon="-105.2294461">
  <ele>1583.0</ele>
  <time>2026-08-28T17:53:21Z</time>
  <course>291.18</course>
  <speed>0.02</speed>
  <fix>3d</fix>
</trkpt>
<trkpt lat="40.0712717" lon="-105.2294459">
  <ele>1583.09</ele>
  <time>2026-08-28T17:53:21Z</time>
  <course>291.88</course>
  <speed>0.0</speed>
  <fix>3d</fix>
</trkpt>
<trkpt lat="40.0712719" lon="-105.2294461">
  <ele>1583.0</ele>
  <time>2026-08-28T17:53:21Z</time>
  <course>291.18</course>
  <speed>0.02</speed>
  <fix>3d</fix>
</trkpt>
<trkpt lat="40.0712717" lon="-105.2294459">
  <ele>1583.1</ele>
  <time>2026-08-28T17:53:21Z</time>
  <course>292.03</course>
  <speed>0.0</speed>
  <fix>3d</fix>
</trkpt>
<trkpt lat="40.0712719" lon="-105.2294462">
  <ele>1583.0</ele>
  <time>2026-08-28T17:53:21Z</time>
  <course>291.51</course>
  <speed>0.02</speed>
  <fix>3d</fix>
</trkpt>
<trkpt lat="40.0712717" lon="-105.229446">
  <ele>1583.1</ele>
  <time>2026-08-28T17:53:21Z</time>
  <course>292.17</course>
  <speed>0.01</speed>
  <fix>3d</fix>
</trkpt>
<trkpt lat="40.0712719" lon="-105.2294462">
  <ele>1583.0</ele>
  <time>2026-08-28T17:53:21Z</time>
  <course>291.51</course>
  <speed>0.02</speed>
  <fix>3d</fix>
</trkpt>
<trkpt lat="40.0712717" lon="-105.229446">
  <ele>1583.1</ele>
  <time>2026-08-28T17:53:21Z</time>
  <course>292.3</course>
  <speed>0.01</speed>
  <fix>3d</fix>
</trkpt>
<trkpt lat="40.0712719" lon="-105.2294462">
  <ele>1583.0</ele>
  <time>2026-08-28T17:53:21Z</time>
  <course>291.8</course>
  <speed>0.02</speed>
  <fix>3d</fix>
</trkpt>
<trkpt lat="40.0712718" lon="-105.229446">
  <ele>1583.1</ele>
  <time>2026-08-28T17:53:21Z</time>
  <course>292.43</course>
  <speed>0.01</speed>
  <fix>3d</fix>
</trkpt>
<trkpt lat="40.0712719" lon="-105.2294462">
  <ele>1583.0</ele>
  <time>2026-08-28T17:53:21Z</time>
  <course>291.8</course>
  <speed>0.02</speed>
  <fix>3d</fix>
</trkpt>
<trkpt lat="40.0712718" lon="-105.2294461">
  <ele>1583.1</ele>
  <time>2026-08-28T17:53:21Z</time>
  <course>292.55</course>
  <speed>0.01</speed>
  <fix>3d</fix>
</trkpt>
<trkpt lat="40.071272" lon="-105.2294462">
  <ele>1583.0</ele>
  <time>2026-08-28T17:53:21Z</time>
  <course>292.07</course>
  <speed>0.01</speed>
  <fix>3d</fix>
</trkpt>
<trkpt lat="40.0712718" lon="-105.2294461">
  <ele>1583.1</ele>
  <time>2026-08-28T17:53:21Z</time>
  <course>292.66</course>
  <speed>0.01</speed>
  <fix>3d</fix>
</trkpt>
<trkpt lat="40.071272" lon="-105.2294462">
  <ele>1583.0</ele>
  <time>2026-08-28T17:53:21Z</time>
  <course>292.07</course>
  <speed>0.01</speed>
  <fix>3d</fix>
</trkpt>
<trkpt lat="40.0712718" lon="-105.2294461">
  <ele>1583.09</ele>
  <time>2026-08-28T17:53:21Z</time>
  <course>292.79</course>
  <speed>0.01</speed>
  <fix>3d</fix>
</trkpt>
<trkpt lat="40.071272" lon="-105.2294462">
  <ele>1583.0</ele>
  <time>2026-08-28T17:53:21Z</time>
  <course>292.31</course>
  <speed>0.01</speed>
  <fix>3d</fix>
</trkpt>
<trkpt lat="40.0712718" lon="-105.2294462">
  <ele>1583.09</ele>
  <time>2026-08-28T17:53:21Z</time>
  <course>292.89</course>
  <speed>0.01</speed>
  <fix>3d</fix>
</trkpt>
<trkpt lat="40.071272" lon="-105.2294462">
  <ele>1583.0</ele>
  <time>2026-08-28T17:53:21Z</time>
  <course>292.31</course>
  <speed>0.01</speed>
  <fix>3d</fix>
</trkpt>
<trkpt lat="40.0712718" lon="-105.2294462">
  <ele>1583.09</ele>
  <time>2026-08-28T17:53:21Z</time>
  <course>292.99</course>
  <speed>0.01</speed>
  <fix>3d</fix>
</trkpt>
<trkpt lat="40.071272" lon="-105.2294463">
  <ele>1583.0</ele>
  <time>2026-08-28T17:53:21Z</time>
  <course>292.53</course>
  <speed>0.01</speed>
  <fix>3d</fix>
</trkpt>
<trkpt lat="40.0712718" lon="-105.2294462">
  <ele>1583.09</ele>
  <time>2026-08-28T17:53:21Z</time>
  <course>293.08</course>
  <speed>0.01</speed>
  <fix>3d</fix>
</trkpt>
<trkpt lat="40.071272" lon="-105.2294463">
  <ele>1583.0</ele>
  <time>2026-08-28T17:53:21Z</time>
  <course>292.53</course>
  <speed>0.01</speed>
  <fix>3d</fix>
</trkpt>
<trkpt lat="40.0712718" lon="-105.2294462">
  <ele>1583.09</ele>
  <time>2026-08-28T17:53:21Z</time>
  <course>293.16</course>
  <speed>0.01</speed>
  <fix>3d</fix>
</trkpt>
<trkpt lat="40.071272" lon="-105.2294464">
  <ele>1583.0</ele>
  <time>2026-08-28T17:53:21Z</time>
  <course>292.73</course>
  <speed>0.01</speed>
  <fix>3d</fix>
</trkpt>
<trkpt lat="40.0712718" lon="-105.2294463">
  <ele>1583.09</ele>
  <time>2026-08-28T17:53:21Z</time>
  <course>293.25</course>
  <speed>0.01</speed>
  <fix>3d</fix>
</trkpt>
<trkpt lat="40.071272" lon="-105.2294464">
  <ele>1583.0</ele>
  <time>2026-08-28T17:53:21Z</time>
  <course>292.73</course>
  <speed>0.01</speed>
  <fix>3d</fix>
</trkpt>
<trkpt lat="40.0712718" lon="-105.2294463">
  <ele>1583.09</ele>
  <time>2026-08-28T17:53:21Z</time>
  <course>293.32</course>
  <speed>0.01</speed>
  <fix>3d</fix>
</trkpt>
<trkpt lat="40.071272" lon="-105.2294464">
  <ele>1583.0</ele>
  <time>2026-08-28T17:53:21Z</time>
  <course>292.91</course>
  <speed>0.01</speed>
  <fix>3d</fix>
</trkpt>
<trkpt lat="40.0712719" lon="-105.2294463">
  <ele>1583.09</ele>
  <time>2026-08-28T17:53:21Z</time>
  <course>293.4</course>
  <speed>0.01</speed>
  <fix>3d</fix>
</trkpt>
<trkpt lat="40.071272" lon="-105.2294464">
  <ele>1583.0</ele>
  <time>2026-08-28T17:53:21Z</time>
  <course>292.91</course>
  <speed>0.01</speed>
  <fix>3d</fix>
</trkpt>
<trkpt lat="40.0712719" lon="-105.2294463">
  <ele>1583.09</ele>
  <time>2026-08-28T17:53:21Z</time>
  <course>293.47</course>
  <speed>0.01</speed>
  <fix>3d</fix>
</trkpt>
<trkpt lat="40.071272" lon="-105.2294464">
  <ele>1583.0</ele>
  <time>2026-08-28T17:53:21Z</time>
  <course>293.07</course>
  <speed>0.01</speed>
  <fix>3d</fix>
</trkpt>
<trkpt lat="40.0712719" lon="-105.2294464">
  <ele>1583.09</ele>
  <time>2026-08-28T17:53:21Z</time>
  <course>293.54</course>
  <speed>0.01</speed>
  <fix>3d</fix>
</trkpt>
<trkpt lat="40.071272" lon="-105.2294464">
  <ele>1583.0</ele>
  <time>2026-08-28T17:53:21Z</time>
  <course>293.07</course>
  <speed>0.01</speed>
  <fix>3d</fix>
</trkpt>
<trkpt lat="40.0712719" lon="-105.2294464">
  <ele>1583.09</ele>
  <time>2026-08-28T17:53:21Z</time>
  <course>293.6</course>
  <speed>0.01</speed>
  <fix>3d</fix>
</trkpt>
<trkpt lat="40.071272" lon="-105.2294465">
  <ele>1583.0</ele>
  <time>2026-08-28T17:53:21Z</time>
  <course>293.22</course>
  <speed>0.01</speed>
  <fix>3d</fix>
</trkpt>
<trkpt lat="40.0712719" lon="-105.2294464">
  <ele>1583.09</ele>
  <time>2026-08-28T17:53:21Z</time>
  <course>293.65</course>
  <speed>0.01</speed>
  <fix>3d</fix>
</trkpt>
<trkpt lat="40.071272" lon="-105.2294465">
  <ele>1583.0</ele>
  <time>2026-08-28T17:53:21Z</time>
  <course>293.22</course>
  <speed>0.01</speed>
  <fix>3d</fix>
</trkpt>
<trkpt lat="40.0712719" lon="-105.2294464">
  <ele>1583.09</ele>
  <time>2026-08-28T17:53:21Z</time>
  <course>293.71</course>
  <speed>0.01</speed>
  <fix>3d</fix>
</trkpt>
<trkpt lat="40.071272" lon="-105.2294465">
  <ele>1583.0</ele>
  <time>2026-08-28T17:53:21Z</time>
  <course>293.35</course>
  <speed>0.0</speed>
  <fix>3d</fix>
</trkpt>
<trkpt lat="40.0712719" lon="-105.2294465">
  <ele>1583.1</ele>
  <time>2026-08-28T17:53:21Z</time>
  <course>293.76</course>
  <speed>0.01</speed>
  <fix>3d</fix>
</trkpt>
<trkpt lat="40.071272" lon="-105.2294465">
  <ele>1583.0</ele>
  <time>2026-08-28T17:53:21Z</time>
  <course>293.35</course>
  <speed>0.0</speed>
  <fix>3d</fix>
</trkpt>
<trkpt lat="40.0712719" lon="-105.2294465">
  <ele>1583.1</ele>
  <time>2026-08-28T17:53:21Z</time>
  <course>293.82</course>
  <speed>0.02</speed>
  <fix>3d</fix>
</trkpt>
<trkpt lat="40.071272" lon="-105.2294465">
  <ele>1583.0</ele>
  <time>2026-08-28T17:53:21Z</time>
  <course>293.49</course>
  <speed>0.01</speed>
  <fix>3d</fix>
</trkpt>
<trkpt lat="40.0712719" lon="-105.2294465">
  <ele>1583.1</ele>
  <time>2026-08-28T17:53:21Z</time>
  <course>293.97</course>
  <speed>0.0412310562561766</speed>
  <fix>3d</fix>
</trkpt>
<trkpt lat="40.071272" lon="-105.2294465">
  <ele>1583.0</ele>
  <time>2026-08-28T17:53:21Z</time>
  <course>293.49</course>
  <speed>0.01</speed>
  <fix>3d</fix>
</trkpt>
<trkpt lat="40.0712719" lon="-105.2294466">
  <ele>1583.1</ele>
  <time>2026-08-28T17:53:21Z</time>
  <course>294.29</course>
  <speed>0.07280109889280519</speed>
  <fix>3d</fix>
</trkpt>
<trkpt lat="40.071272" lon="-105.2294465">
  <ele>1583.0</ele>
  <time>2026-08-28T17:53:21Z</time>
  <course>293.92</course>
  <speed>0.04</speed>
  <fix>3d</fix>
</trkpt>
<trkpt lat="40.071272" lon="-105.2294467">
  <ele>1583.1</ele>
  <time>2026-08-28T17:53:21Z</time>
  <course>294.89</course>
  <speed>0.1264911064067352</speed>
  <fix>3d</fix>
</trkpt>
<trkpt lat="40.071272" lon="-105.2294465">
  <ele>1583.0</ele>
  <time>2026-08-28T17:53:21Z</time>
  <course>293.92</course>
  <speed>0.04</speed>
  <fix>3d</fix>
</trkpt>
<trkpt lat="40.071272" lon="-105.2294469">
  <ele>1583.1</ele>
  <time>2026-08-28T17:53:21Z</time>
  <course>295.85</course>
  <speed>0.19697715603592209</speed>
  <fix>3d</fix>
</trkpt>
<trkpt lat="40.0712721" lon="-105.2294467">
  <ele>1583.0</ele>
  <time>2026-08-28T17:53:21Z</time>
  <course>295.13</course>
  <speed>0.12</speed>
  <fix>3d</fix>
</trkpt>
<trkpt lat="40.0712721" lon="-105.2294471">
  <ele>1583.11</ele>
  <time>2026-08-28T17:53:21Z</time>
  <course>297.26</course>
  <speed>0.2683281572999748</speed>
  <fix>3d</fix>
</trkpt>
<trkpt lat="40.0712721" lon="-105.2294467">
  <ele>1583.0</ele>
  <time>2026-08-28T17:53:21Z</time>
  <course>295.13</course>
  <speed>0.12</speed>
  <fix>3d</fix>
</trkpt>
<trkpt lat="40.0712723" lon="-105.2294475">
  <ele>1583.11</ele>
  <time>2026-08-28T17:53:21Z</time>
  <course>299.18</course>
  <speed>0.36235341863986875</speed>
  <fix>3d</fix>
</trkpt>
<trkpt lat="40.0712722" lon="-105.2294471">
  <ele>1583.0</ele>
  <time>2026-08-28T17:53:21Z</time>
  <course>297.74</course>
  <speed>0.26</speed>
  <fix>3d</fix>
</trkpt>
<trkpt lat="40.0712725" lon="-105.229448">
  <ele>1583.11</ele>
  <time>2026-08-28T17:53:21Z</time>
  <course>302.25</course>
  <speed>0.4802082881417188</speed>
  <fix>3d</fix>
</trkpt>
<trkpt lat="40.0712722" lon="-105.2294471">
  <ele>1583.0</ele>
  <time>2026-08-28T17:53:21Z</time>
  <course>297.74</course>
  <speed>0.26</speed>
  <fix>3d</fix>
</trkpt>
<trkpt lat="40.0712728" lon="-105.2294485">
  <ele>1583.1</ele>
  <time>2026-08-28T17:53:21Z</time>
  <course>305.52</course>
  <speed>0.5824946351684279</speed>
  <fix>3d</fix>
</trkpt>
<trkpt lat="40.0712726" lon="-105.2294478">
  <ele>1583.0</ele>
  <time>2026-08-28T17:53:21Z</time>
  <course>302.35</course>
  <speed>0.44</speed>
  <fix>3d</fix>
</trkpt>
<trkpt lat="40.0712732" lon="-105.2294491">
  <ele>1583.1</ele>
  <time>2026-08-28T17:53:21Z</time>
  <course>309.49</course>
  <speed>0.6965629906907199</speed>
  <fix>3d</fix>
</trkpt>
<trkpt lat="40.0712726" lon="-105.2294478">
  <ele>1583.0</ele>
  <time>2026-08-28T17:53:21Z</time>
  <course>302.35</course>
  <speed>0.44</speed>
  <fix>3d</fix>
</trkpt>
<trkpt lat="40.0712736" lon="-105.2294498">
  <ele>1583.1</ele>
  <time>2026-08-28T17:53:21Z</time>
  <course>314.15</course>
  <speed>0.7993122043357026</speed>
  <fix>3d</fix>
</trkpt>
<trkpt lat="40.0712731" lon="-105.2294489">
  <ele>1583.0</ele>
  <time>2026-08-28T17:53:21Z</time>
  <course>309.42</course>
  <speed>0.65</speed>
  <fix>3d</fix>
</trkpt>
<trkpt lat="40.0712742" lon="-105.2294505">
  <ele>1583.1</ele>
  <time>2026-08-28T17:53:21Z</time>
  <course>319.46</course>
  <speed>0.9002777349240623</speed>
  <fix>3d</fix>
</trkpt>
<trkpt lat="40.0712731" lon="-105.2294489">
  <ele>1583.0</ele>
  <time>2026-08-28T17:53:21Z</time>
  <course>309.42</course>
  <speed>0.65</speed>
  <fix>3d</fix>
</trkpt>
<trkpt lat="40.0712749" lon="-105.2294512">
  <ele>1583.1</ele>
  <time>2026-08-28T17:53:21Z</time>
  <course>325.34</course>
  <speed>0.9822932352408826</speed>
  <fix>3d</fix>
</trkpt>
<trkpt lat="40.071274" lon="-105.2294502">
  <ele>1583.0</ele>
  <time>2026-08-28T17:53:21Z</time>
  <course>319.0</course>
  <speed>0.85</speed>
  <fix>3d</fix>
</trkpt>
<trkpt lat="40.0712757" lon="-105.2294518">
  <ele>1583.1</ele>
  <time>2026-08-28T17:53:21Z</time>
  <course>331.71</course>
  <speed>1.0519030373565805</speed>
  <fix>3d</fix>
</trkpt>
<trkpt lat="40.071274" lon="-105.2294502">
  <ele>1583.0</ele>
  <time>2026-08-28T17:53:21Z</time>
  <course>319.0</course>
  <speed>0.85</speed>
  <fix>3d</fix>
</trkpt>
<trkpt lat="40.0712766" lon="-105.2294524">
  <ele>1583.1</ele>
  <time>2026-08-28T17:53:21Z</time>
  <course>338.5</course>
  <speed>1.1123398761170078</speed>
  <fix>3d</fix>
</trkpt>
<trkpt lat="40.0712755" lon="-105.2294514">
  <ele>1583.0</ele>
  <time>2026-08-28T17:53:21Z</time>
  <course>330.86</course>
  <speed>1.01</speed>
  <fix>3d</fix>
</trkpt>
<trkpt lat="40.0712775" lon="-105.2294528">
  <ele>1583.1</ele>
  <time>2026-08-28T17:53:21Z</time>
  <course>345.65</course>
  <speed>1.1594826432508596</speed>
  <fix>3d</fix>
</trkpt>
<trkpt lat="40.0712755" lon="-105.2294514">
  <ele>1583.0</ele>
  <time>2026-08-28T17:53:21Z</time>
  <course>330.86</course>
  <speed>1.01</speed>
  <fix>3d</fix>
</trkpt>
<trkpt lat="40.0712786" lon="-105.229453">
  <ele>1583.1</ele>
  <time>2026-08-28T17:53:21Z</time>
  <course>353.09</course>
  <speed>1.200708124399931</speed>
  <fix>3d</fix>
</trkpt>
<trkpt lat="40.0712773" lon="-105.2294523">
  <ele>1583.0</ele>
  <time>2026-08-28T17:53:21Z</time>
  <course>344.47</course>
  <speed>1.12</speed>
  <fix>3d</fix>
</trkpt>
<trkpt lat="40.0712797" lon="-105.2294531">
  <ele>1583.1</ele>
  <time>2026-08-28T17:53:21Z</time>
  <course>0.74</course>
  <speed>1.23</speed>
  <fix>3d</fix>
</trkpt>
<trkpt lat="40.0712773" lon="-105.2294523">
  <ele>1583.0</ele>
  <time>2026-08-28T17:53:21Z</time>
  <course>344.47</course>
  <speed>1.12</speed>
  <fix>3d</fix>
</trkpt>
<trkpt lat="40.0712806" lon="-105.229453">
  <ele>1583.1</ele>
  <time>2026-08-28T17:53:21Z</time>
  <course>7.06</course>
  <speed>1.2368508398347797</speed>
  <fix>3d</fix>
</trkpt>
<trkpt lat="40.0712793" lon="-105.2294527">
  <ele>1583.0</ele>
  <time>2026-08-28T17:53:21Z</time>
  <course>359.31</course>
  <speed>1.19</speed>
  <fix>3d</fix>
</trkpt>
<trkpt lat="40.0712817" lon="-105.2294528">
  <ele>1583.1</ele>
  <time>2026-08-28T17:53:21Z</time>
  <course>15.01</course>
  <speed>1.2563439019631528</speed>
  <fix>3d</fix>
</trkpt>
<trkpt lat="40.0712793" lon="-105.2294527">
  <ele>1583.0</ele>
  <time>2026-08-28T17:53:21Z</time>
  <course>359.31</course>
  <speed>1.19</speed>
  <fix>3d</fix>
</trkpt>
<trkpt lat="40.0712828" lon="-105.2294523">
  <ele>1583.1</ele>
  <time>2026-08-28T17:53:21Z</time>
  <course>23.03</course>
  <speed>1.2608727136392475</speed>
  <fix>3d</fix>
</trkpt>
<trkpt lat="40.0712815" lon="-105.2294524">
  <ele>1583.0</ele>
  <time>2026-08-28T17:53:21Z</time>
  <course>14.91</course>
  <speed>1.24</speed>
  <fix>3d</fix>
</trkpt>
<trkpt lat="40.0712838" lon="-105.2294516">
  <ele>1583.1</ele>
  <time>2026-08-28T17:53:21Z</time>
  <course>31.04</course>
  <speed>1.2589678312014172</speed>
  <fix>3d</fix>
</trkpt>
<trkpt lat="40.0712815" lon="-105.2294524">
  <ele>1583.0</ele>
  <time>2026-08-28T17:53:21Z</time>
  <course>14.91</course>
  <speed>1.24</speed>
  <fix>3d</fix>
</trkpt>
<trkpt lat="40.0712848" lon="-105.2294507">
  <ele>1583.1</ele>
  <time>2026-08-28T17:53:21Z</time>
  <course>39.12</course>
  <speed>1.2525174649480941</speed>
  <fix>3d</fix>
</trkpt>
<trkpt lat="40.0712835" lon="-105.2294513">
  <ele>1583.0</ele>
  <time>2026-08-28T17:53:21Z</time>
  <course>30.9</course>
  <speed>1.25</speed>
  <fix>3d</fix>
</trkpt>
<trkpt lat="40.0712856" lon="-105.2294496">
  <ele>1583.1</ele>
  <time>2026-08-28T17:53:21Z</time>
  <course>47.18</course>
  <speed>1.2379418403139946</speed>
  <fix>3d</fix>
</trkpt>
<trkpt lat="40.0712835" lon="-105.2294513">
  <ele>1583.0</ele>
  <time>2026-08-28T17:53:21Z</time>
  <course>30.9</course>
  <speed>1.25</speed>
  <fix>3d</fix>
</trkpt>
<trkpt lat="40.0712863" lon="-105.2294484">
  <ele>1583.1</ele>
  <time>2026-08-28T17:53:21Z</time>
  <course>55.08</course>
  <speed>1.2264175471673584</speed>
  <fix>3d</fix>
</trkpt>
<trkpt lat="40.0712853" lon="-105.2294495">
  <ele>1583.0</ele>
  <time>2026-08-28T17:53:21Z</time>
  <course>46.89</course>
  <speed>1.24</speed>
  <fix>3d</fix>
</trkpt>
<trkpt lat="40.0712868" lon="-105.2294471">
  <ele>1583.11</ele>
  <time>2026-08-28T17:53:21Z</time>
  <course>62.11</course>
  <speed>1.212353083882744</speed>
  <fix>3d</fix>
</trkpt>
<trkpt lat="40.0712853" lon="-105.2294495">
  <ele>1583.0</ele>
  <time>2026-08-28T17:53:21Z</time>
  <course>46.89</course>
  <speed>1.24</speed>
  <fix>3d</fix>
</trkpt>
<trkpt lat="40.0712873" lon="-105.2294458">
  <ele>1583.11</ele>
  <time>2026-08-28T17:53:21Z</time>
  <course>68.07</course>
  <speed>1.1977478866606277</speed>
  <fix>3d</fix>
</trkpt>
<trkpt lat="40.0712865" lon="-105.2294472">
  <ele>1583.0</ele>
  <time>2026-08-28T17:53:21Z</time>
  <course>61.31</course>
  <speed>1.23</speed>
  <fix>3d</fix>
</trkpt>
<trkpt lat="40.0712876" lon="-105.2294444">
  <ele>1583.11</ele>
  <time>2026-08-28T17:53:21Z</time>
  <course>73.0</course>
  <speed>1.1800423721205946</speed>
  <fix>3d</fix>
</trkpt>
<trkpt lat="40.0712865" lon="-105.2294472">
  <ele>1583.0</ele>
  <time>2026-08-28T17:53:21Z</time>
  <course>61.31</course>
  <speed>1.23</speed>
  <fix>3d</fix>
</trkpt>
<trkpt lat="40.0712879" lon="-105.2294427">
  <ele>1583.11</ele>
  <time>2026-08-28T17:53:21Z</time>
  <course>77.51</course>
  <speed>1.1552056094046634</speed>
  <fix>3d</fix>
</trkpt>
<trkpt lat="40.0712874" lon="-105.2294445">
  <ele>1583.0</ele>
  <time>2026-08-28T17:53:21Z</time>
  <course>72.18</course>
  <speed>1.2</speed>
  <fix>3d</fix>
</trkpt>
<trkpt lat="40.0712881" lon="-105.2294414">
  <ele>1583.11</ele>
  <time>2026-08-28T17:53:21Z</time>
  <course>80.06</course>
  <speed>1.136001760562016</speed>
  <fix>3d</fix>
</trkpt>
<trkpt lat="40.0712874" lon="-105.2294445">
  <ele>1583.0</ele>
  <time>2026-08-28T17:53:21Z</time>
  <course>72.18</course>
  <speed>1.2</speed>
  <fix>3d</fix>
</trkpt>
<trkpt lat="40.0712882" lon="-105.22944">
  <ele>1583.11</ele>
  <time>2026-08-28T17:53:21Z</time>
  <course>81.89</course>
  <speed>1.120089282155668</speed>
  <fix>3d</fix>
</trkpt>
<trkpt lat="40.0712879" lon="-105.2294418">
  <ele>1583.0</ele>
  <time>2026-08-28T17:53:21Z</time>
  <course>78.94</course>
  <speed>1.17</speed>
  <fix>3d</fix>
</trkpt>
<trkpt lat="40.0712884" lon="-105.2294387">
  <ele>1583.11</ele>
  <time>2026-08-28T17:53:21Z</time>
  <course>83.45</course>
  <speed>1.1065260954898444</speed>
  <fix>3d</fix>
</trkpt>
<trkpt lat="40.0712879" lon="-105.2294418">
  <ele>1583.0</ele>
  <time>2026-08-28T17:53:21Z</time>
  <course>78.94</course>
  <speed>1.17</speed>
  <fix>3d</fix>
</trkpt>
<trkpt lat="40.0712884" lon="-105.2294374">
  <ele>1583.11</ele>
  <time>2026-08-28T17:53:21Z</time>
  <course>84.74</course>
  <speed>1.0837435120913066</speed>
  <fix>3d</fix>
</trkpt>
<trkpt lat="40.0712883" lon="-105.2294391">
  <ele>1583.0</ele>
  <time>2026-08-28T17:53:21Z</time>
  <course>82.77</course>
  <speed>1.13</speed>
  <fix>3d</fix>
</trkpt>
<trkpt lat="40.0712885" lon="-105.2294361">
  <ele>1583.11</ele>
  <time>2026-08-28T17:53:21Z</time>
  <course>85.81</course>
  <speed>1.0623088063270492</speed>
  <fix>3d</fix>
</trkpt>
<trkpt lat="40.0712883" lon="-105.2294391">
  <ele>1583.0</ele>
  <time>2026-08-28T17:53:21Z</time>
  <course>82.77</course>
  <speed>1.13</speed>
  <fix>3d</fix>
</trkpt>
<trkpt lat="40.0712886" lon="-105.2294348">
  <ele>1583.11</ele>
  <time>2026-08-28T17:53:21Z</time>
  <course>86.69</course>
  <speed>1.0511898020814319</speed>
  <fix>3d</fix>
</trkpt>
<trkpt lat="40.0712884" lon="-105.2294364">
  <ele>1583.0</ele>
  <time>2026-08-28T17:53:21Z</time>
  <course>85.29</course>
  <speed>1.1</speed>
  <fix>3d</fix>
</trkpt>
<trkpt lat="40.0712886" lon="-105.2294336">
  <ele>1583.11</ele>
  <time>2026-08-28T17:53:21Z</time>
  <course>87.43</course>
  <speed>1.0407689465006151</speed>
  <fix>3d</fix>
</trkpt>
<trkpt lat="40.0712884" lon="-105.2294364">
  <ele>1583.0</ele>
  <time>2026-08-28T17:53:21Z</time>
  <course>85.29</course>
  <speed>1.1</speed>
  <fix>3d</fix>
</trkpt>
<trkpt lat="40.0712886" lon="-105.2294323">
  <ele>1583.11</ele>
  <time>2026-08-28T17:53:21Z</time>
  <course>88.03</course>
  <speed>1.0204410811016968</speed>
  <fix>3d</fix>
</trkpt>
<trkpt lat="40.0712886" lon="-105.2294339">
  <ele>1583.0</ele>
  <time>2026-08-28T17:53:21Z</time>
  <course>87.01</course>
  <speed>1.07</speed>
  <fix>3d</fix>
</trkpt>
<trkpt lat="40.0712886" lon="-105.2294311">
  <ele>1583.11</ele>
  <time>2026-08-28T17:53:21Z</time>
  <course>88.53</course>
  <speed>1.010198000393982</speed>
  <fix>3d</fix>
</trkpt>
<trkpt lat="40.0712886" lon="-105.2294339">
  <ele>1583.0</ele>
  <time>2026-08-28T17:53:21Z</time>
  <course>87.01</course>
  <speed>1.07</speed>
  <fix>3d</fix>
</trkpt>
<trkpt lat="40.0712887" lon="-105.2294299">
  <ele>1583.11</ele>
  <time>2026-08-28T17:53:21Z</time>
  <course>88.94</course>
  <speed>1.0000499987500624</speed>
  <fix>3d</fix>
</trkpt>
<trkpt lat="40.0712887" lon="-105.2294314">
  <ele>1583.0</ele>
  <time>2026-08-28T17:53:21Z</time>
  <course>88.19</course>
  <speed>1.05</speed>
  <fix>3d</fix>
</trkpt>
<trkpt lat="40.0712887" lon="-105.2294289">
  <ele>1583.11</ele>
  <time>2026-08-28T17:53:21Z</time>
  <course>89.23</course>
  <speed>0.9900505037623081</speed>
  <fix>3d</fix>
</trkpt>
<trkpt lat="40.0712887" lon="-105.2294314">
  <ele>1583.0</ele>
  <time>2026-08-28T17:53:21Z</time>
  <course>88.19</course>
  <speed>1.05</speed>
  <fix>3d</fix>
</trkpt>
<trkpt lat="40.0712887" lon="-105.2294278">
  <ele>1583.11</ele>
  <time>2026-08-28T17:53:21Z</time>
  <course>89.52</course>
  <speed>0.98</speed>
  <fix>3d</fix>
</trkpt>
<trkpt lat="40.0712888" lon="-105.229429">
  <ele>1583.0</ele>
  <time>2026-08-28T17:53:21Z</time>
  <course>89.0</course>
  <speed>1.03</speed>
  <fix>3d</fix>
</trkpt>
<trkpt lat="40.0712887" lon="-105.2294266">
  <ele>1583.11</ele>
  <time>2026-08-28T17:53:21Z</time>
  <course>89.75</course>
  <speed>0.98</speed>
  <fix>3d</fix>
</trkpt>
<trkpt lat="40.0712888" lon="-105.229429">
  <ele>1583.0</ele>
  <time>2026-08-28T17:53:21Z</time>
  <course>89.0</course>
  <speed>1.03</speed>
  <fix>3d</fix>
</trkpt>
<trkpt lat="40.0712887" lon="-105.2294254">
  <ele>1583.11</ele>
  <time>2026-08-28T17:53:21Z</time>
  <course>89.94</course>
  <speed>0.97</speed>
  <fix>3d</fix>
</trkpt>
<trkpt lat="40.0712888" lon="-105.2294266">
  <ele>1583.0</ele>
  <time>2026-08-28T17:53:21Z</time>
  <course>89.54</course>
  <speed>1.01</speed>
  <fix>3d</fix>
</trkpt>
<trkpt lat="40.0712887" lon="-105.2294242">
  <ele>1583.12</ele>
  <time>2026-08-28T17:53:21Z</time>
  <course>90.1</course>
  <speed>0.97</speed>
  <fix>3d</fix>
</trkpt>
<trkpt lat="40.0712888" lon="-105.2294266">
  <ele>1583.0</ele>
  <time>2026-08-28T17:53:21Z</time>
  <course>89.54</course>
  <speed>1.01</speed>
  <fix>3d</fix>
</trkpt>
<trkpt lat="40.0712887" lon="-105.229423">
  <ele>1583.12</ele>
  <time>2026-08-28T17:53:21Z</time>
  <course>90.22</course>
  <speed>0.96</speed>
  <fix>3d</fix>
</trkpt>
<trkpt lat="40.0712888" lon="-105.2294242">
  <ele>1583.0</ele>
  <time>2026-08-28T17:53:21Z</time>
  <course>89.91</course>
  <speed>1.0</speed>
  <fix>3d</fix>
</trkpt>
<trkpt lat="40.0712887" lon="-105.2294218">
  <ele>1583.12</ele>
  <time>2026-08-28T17:53:21Z</time>
  <course>90.32</course>
  <speed>0.96</speed>
  <fix>3d</fix>
</trkpt>
<trkpt lat="40.0712888" lon="-105.2294242">
  <ele>1583.0</ele>
  <time>2026-08-28T17:53:21Z</time>
  <course>89.91</course>
  <speed>1.0</speed>
  <fix>3d</fix>
</trkpt>
<trkpt lat="40.0712887" lon="-105.2294207">
  <ele>1583.12</ele>
  <time>2026-08-28T17:53:21Z</time>
  <course>90.41</course>
  <speed>0.96</speed>
  <fix>3d</fix>
</trkpt>
<trkpt lat="40.0712888" lon="-105.2294218">
  <ele>1583.0</ele>
  <time>2026-08-28T17:53:21Z</time>
  <course>90.15</course>
  <speed>1.0</speed>
  <fix>3d</fix>
</trkpt>
<trkpt lat="40.0712887" lon="-105.2294195">
  <ele>1583.12</ele>
  <time>2026-08-28T17:53:21Z</time>
  <course>90.48</course>
  <speed>0.96</speed>
  <fix>3d</fix>
</trkpt>
<trkpt lat="40.0712888" lon="-105.2294218">
  <ele>1583.0</ele>
  <time>2026-08-28T17:53:21Z</time>
  <course>90.15</course>
  <speed>1.0</speed>
  <fix>3d</fix>
</trkpt>
<trkpt lat="40.0712887" lon="-105.2294183">
  <ele>1583.12</ele>
  <time>2026-08-28T17:53:21Z</time>
  <course>90.53</course>
  <speed>0.96</speed>
  <fix>3d</fix>
</trkpt>
<trkpt lat="40.0712888" lon="-105.2294195">
  <ele>1583.0</ele>
  <time>2026-08-28T17:53:21Z</time>
  <course>90.31</course>
  <speed>1.0</speed>
  <fix>3d</fix>
</trkpt>
<trkpt lat="40.0712887" lon="-105.2294169">
  <ele>1583.12</ele>
  <time>2026-08-28T17:53:21Z</time>
  <course>90.57</course>
  <speed>0.97</speed>
  <fix>3d</fix>
</trkpt>
<trkpt lat="40.0712888" lon="-105.2294195">
  <ele>1583.0</ele>
  <time>2026-08-28T17:53:21Z</time>
  <course>90.31</course>
  <speed>1.0</speed>
  <fix>3d</fix>
</trkpt>
<trkpt lat="40.0712887" lon="-105.2294157">
  <ele>1583.12</ele>
  <time>2026-08-28T17:53:21Z</time>
  <course>90.6</course>
  <speed>0.97</speed>
  <fix>3d</fix>
</trkpt>
<trkpt lat="40.0712888" lon="-105.2294172">
  <ele>1583.0</ele>
  <time>2026-08-28T17:53:21Z</time>
  <course>90.41</course>
  <speed>1.0</speed>
  <fix>3d</fix>
</trkpt>
<trkpt lat="40.0712887" lon="-105.2294145">
  <ele>1583.12</ele>
  <time>2026-08-28T17:53:21Z</time>
  <course>90.63</course>
  <speed>0.97</speed>
  <fix>3d</fix>
</trkpt>
<trkpt lat="40.0712888" lon="-105.2294172">
  <ele>1583.0</ele>
  <time>2026-08-28T17:53:21Z</time>
  <course>90.41</course>
  <speed>1.0</speed>
  <fix>3d</fix>
</trkpt>
<trkpt lat="40.0712887" lon="-105.2294133">
  <ele>1583.12</ele>
  <time>2026-08-28T17:53:21Z</time>
  <course>90.64</course>
  <speed>0.97</speed>
  <fix>3d</fix>
</trkpt>
<trkpt lat="40.0712888" lon="-105.2294148">
  <ele>1583.0</ele>
  <time>2026-08-28T17:53:21Z</time>
  <course>90.47</course>
  <speed>1.0</speed>
  <fix>3d</fix>
</trkpt>
<trkpt lat="40.0712887" lon="-105.2294121">
  <ele>1583.13</ele>
  <time>2026-08-28T17:53:21Z</time>
  <course>90.65</course>
  <speed>0.98</speed>
  <fix>3d</fix>
</trkpt>
<trkpt lat="40.0712888" lon="-105.2294148">
  <ele>1583.0</ele>
  <time>2026-08-28T17:53:21Z</time>
  <course>90.47</course>
  <speed>1.0</speed>
  <fix>3d</fix>
</trkpt>
<trkpt lat="40.0712887" lon="-105.229411">
  <ele>1583.13</ele>
  <time>2026-08-28T17:53:21Z</time>
  <course>90.66</course>
  <speed>0.98</speed>
  <fix>3d</fix>
</trkpt>
<trkpt lat="40.0712888" lon="-105.2294125">
  <ele>1583.0</ele>
  <time>2026-08-28T17:53:21Z</time>
  <course>90.51</course>
  <speed>1.0</speed>
  <fix>3d</fix>
</trkpt>
<trkpt lat="40.0712887" lon="-105.2294098">
  <ele>1583.12</ele>
  <time>2026-08-28T17:53:21Z</time>
  <course>90.66</course>
  <speed>0.98</speed>
  <fix>3d</fix>
</trkpt>
<trkpt lat="40.0712888" lon="-105.2294125">
  <ele>1583.0</ele>
  <time>2026-08-28T17:53:21Z</time>
  <course>90.51</course>
  <speed>1.0</speed>
  <fix>3d</fix>
</trkpt>
<trkpt lat="40.0712887" lon="-105.2294086">
  <ele>1583.12</ele>
  <time>2026-08-28T17:53:21Z</time>
  <course>90.66</course>
  <speed>0.98</speed>
  <fix>3d</fix>
</trkpt>
<trkpt lat="40.0712888" lon="-105.2294101">
  <ele>1583.0</ele>
  <time>2026-08-28T17:53:21Z</time>
  <course>90.52</course>
  <speed>1.01</speed>
  <fix>3d</fix>
</trkpt>
<trkpt lat="40.0712887" lon="-105.2294074">
  <ele>1583.12</ele>
  <time>2026-08-28T17:53:21Z</time>
  <course>90.66</course>
  <speed>0.98</speed>
  <fix>3d</fix>
</trkpt>
<trkpt lat="40.0712888" lon="-105.2294101">
  <ele>1583.0</ele>
  <time>2026-08-28T17:53:21Z</time>
  <course>90.52</course>
  <speed>1.01</speed>
  <fix>3d</fix>
</trkpt>
<trkpt lat="40.0712887" lon="-105.2294062">
  <ele>1583.12</ele>
  <time>2026-08-28T17:53:21Z</time>
  <course>90.65</course>
  <speed>0.98</speed>
  <fix>3d</fix>
</trkpt>
<trkpt lat="40.0712888" lon="-105.2294077">
  <ele>1583.0</ele>
  <time>2026-08-28T17:53:21Z</time>
  <course>90.52</course>
  <speed>1.01</speed>
  <fix>3d</fix>
</trkpt>
<trkpt lat="40.0712887" lon="-105.229405">
  <ele>1583.12</ele>
  <time>2026-08-28T17:53:21Z</time>
  <course>90.65</course>
  <speed>0.99</speed>
  <fix>3d</fix>
</trkpt>
<trkpt lat="40.0712888" lon="-105.2294077">
  <ele>1583.0</ele>
  <time>2026-08-28T17:53:21Z</time>
  <course>90.52</course>
  <speed>1.01</speed>
  <fix>3d</fix>
</trkpt>
<trkpt lat="40.0712887" lon="-105.2294041">
  <ele>1583.12</ele>
  <time>2026-08-28T17:53:21Z</time>
  <course>90.65</course>
  <speed>0.99</speed>
  <fix>3d</fix>
</trkpt>
<trkpt lat="40.0712888" lon="-105.2294053">
  <ele>1583.0</ele>
  <time>2026-08-28T17:53:21Z</time>
  <course>90.52</course>
  <speed>1.01</speed>
  <fix>3d</fix>
</trkpt>
<trkpt lat="40.0712887" lon="-105.2294029">
  <ele>1583.12</ele>
  <time>2026-08-28T17:53:21Z</time>
  <course>90.65</course>
  <speed>0.99</speed>
  <fix>3d</fix>
</trkpt>
<trkpt lat="40.0712888" lon="-105.2294053">
  <ele>1583.0</ele>
  <time>2026-08-28T17:53:21Z</time>
  <course>90.52</course>
  <speed>1.01</speed>
  <fix>3d</fix>
</trkpt>
<trkpt lat="40.0712887" lon="-105.2294017">
  <ele>1583.12</ele>
  <time>2026-08-28T17:53:22Z</time>
  <course>90.65</course>
  <speed>0.99</speed>
  <fix>3d</fix>
</trkpt>
<trkpt lat="40.0712888" lon="-105.2294029">
  <ele>1583.0</ele>
  <time>2026-08-28T17:53:22Z</time>
  <course>90.52</course>
  <speed>1.01</speed>
  <fix>3d</fix>
</trkpt>
<trkpt lat="40.0712887" lon="-105.2294005">
  <ele>1583.12</ele>
  <time>2026-08-28T17:53:22Z</time>
  <course>90.64</course>
  <speed>0.99</speed>
  <fix>3d</fix>
</trkpt>
<trkpt lat="40.0712888" lon="-105.2294029">
  <ele>1583.0</ele>
  <time>2026-08-28T17:53:22Z</time>
  <course>90.52</course>
  <speed>1.01</speed>
  <fix>3d</fix>
</trkpt>
<trkpt lat="40.0712887" lon="-105.2293993">
  <ele>1583.12</ele>
  <time>2026-08-28T17:53:22Z</time>
  <course>90.64</course>
  <speed>1.0</speed>
  <fix>3d</fix>
</trkpt>
<trkpt lat="40.0712888" lon="-105.2294005">
  <ele>1583.0</ele>
  <time>2026-08-28T17:53:22Z</time>
  <course>90.52</course>
  <speed>1.02</speed>
  <fix>3d</fix>
</trkpt>
<trkpt lat="40.0712887" lon="-105.2293981">
  <ele>1583.12</ele>
  <time>2026-08-28T17:53:22Z</time>
  <course>90.64</course>
  <speed>1.0</speed>
  <fix>3d</fix>
</trkpt>
<trkpt lat="40.0712888" lon="-105.2294005">
  <ele>1583.0</ele>
  <time>2026-08-28T17:53:22Z</time>
  <course>90.52</course>
  <speed>1.02</speed>
  <fix>3d</fix>
</trkpt>
<trkpt lat="40.0712887" lon="-105.2293968">
  <ele>1583.12</ele>
  <time>2026-08-28T17:53:22Z</time>
  <course>90.63</course>
  <speed>1.0</speed>
  <fix>3d</fix>
</trkpt>
<trkpt lat="40.0712887" lon="-105.2293981">
  <ele>1583.0</ele>
  <time>2026-08-28T17:53:22Z</time>
  <course>90.52</course>
  <speed>1.02</speed>
  <fix>3d</fix>
</trkpt>
<trkpt lat="40.0712887" lon="-105.2293956">
  <ele>1583.12</ele>
  <time>2026-08-28T17:53:22Z</time>
  <course>90.63</course>
  <speed>1.0</speed>
  <fix>3d</fix>
</trkpt>
<trkpt lat="40.0712887" lon="-105.2293981">
  <ele>1583.0</ele>
  <time>2026-08-28T17:53:22Z</time>
  <course>90.52</course>
  <speed>1.02</speed>
  <fix>3d</fix>
</trkpt>
<trkpt lat="40.0712887" lon="-105.2293944">
  <ele>1583.12</ele>
  <time>2026-08-28T17:53:22Z</time>
  <course>90.62</course>
  <speed>1.0</speed>
  <fix>3d</fix>
</trkpt>
<trkpt lat="40.0712886" lon="-105.2293957">
  <ele>1583.0</ele>
  <time>2026-08-28T17:53:22Z</time>
  <course>90.51</course>
  <speed>1.02</speed>
  <fix>3d</fix>
</trkpt>
<trkpt lat="40.0712887" lon="-105.2293929">
  <ele>1583.12</ele>
  <time>2026-08-28T17:53:22Z</time>
  <course>90.6</course>
  <speed>1.0</speed>
  <fix>3d</fix>
</trkpt>
<trkpt lat="40.0712886" lon="-105.2293957">
  <ele>1583.0</ele>
  <time>2026-08-28T17:53:22Z</time>
  <course>90.51</course>
  <speed>1.02</speed>
  <fix>3d</fix>
</trkpt>
<trkpt lat="40.0712887" lon="-105.2293917">
  <ele>1583.12</ele>
  <time>2026-08-28T17:53:22Z</time>
  <course>90.59</course>
  <speed>1.0</speed>
  <fix>3d</fix>
</trkpt>
<trkpt lat="40.0712886" lon="-105.2293933">
  <ele>1583.0</ele>
  <time>2026-08-28T17:53:22Z</time>
  <course>90.5</course>
  <speed>1.02</speed>
  <fix>3d</fix>
</trkpt>
<trkpt lat="40.0712887" lon="-105.2293905">
  <ele>1583.12</ele>
  <time>2026-08-28T17:53:22Z</time>
  <course>90.58</course>
  <speed>1.0</speed>
  <fix>3d</fix>
</trkpt>
<trkpt lat="40.0712886" lon="-105.2293933">
  <ele>1583.0</ele>
  <time>2026-08-28T17:53:22Z</time>
  <course>90.5</course>
  <speed>1.02</speed>
  <fix>3d</fix>
</trkpt>
<trkpt lat="40.0712887" lon="-105.2293893">
  <ele>1583.13</ele>
  <time>2026-08-28T17:53:22Z</time>
  <course>90.57</course>
  <speed>1.0</speed>
  <fix>3d</fix>
</trkpt>
<trkpt lat="40.0712886" lon="-105.2293909">
  <ele>1583.0</ele>
  <time>2026-08-28T17:53:22Z</time>
  <course>90.48</course>
  <speed>1.01</speed>
  <fix>3d</fix>
</trkpt>
<trkpt lat="40.0712887" lon="-105.2293881">
  <ele>1583.13</ele>
  <time>2026-08-28T17:53:22Z</time>
  <course>90.56</course>
  <speed>1.01</speed>
  <fix>3d</fix>
</trkpt>
<trkpt lat="40.0712886" lon="-105.2293909">
  <ele>1583.0</ele>
  <time>2026-08-28T17:53:22Z</time>
  <course>90.48</course>
  <speed>1.01</speed>
  <fix>3d</fix>
</trkpt>
<trkpt lat="40.0712887" lon="-105.2293869">
  <ele>1583.13</ele>
  <time>2026-08-28T17:53:22Z</time>
  <course>90.55</course>
  <speed>1.01</speed>
  <fix>3d</fix>
</trkpt>
<trkpt lat="40.0712886" lon="-105.2293885">
  <ele>1583.0</ele>
  <time>2026-08-28T17:53:22Z</time>
  <course>90.46</course>
  <speed>1.01</speed>
  <fix>3d</fix>
</trkpt>
<trkpt lat="40.0712887" lon="-105.2293857">
  <ele>1583.13</ele>
  <time>2026-08-28T17:53:22Z</time>
  <course>90.54</course>
  <speed>1.01</speed>
  <fix>3d</fix>
</trkpt>
<trkpt lat="40.0712886" lon="-105.2293885">
  <ele>1583.0</ele>
  <time>2026-08-28T17:53:22Z</time>
  <course>90.46</course>
  <speed>1.01</speed>
  <fix>3d</fix>
</trkpt>
<trkpt lat="40.0712887" lon="-105.2293845">
  <ele>1583.12</ele>
  <time>2026-08-28T17:53:22Z</time>
  <course>90.53</course>
  <speed>1.01</speed>
  <fix>3d</fix>
</trkpt>
<trkpt lat="40.0712886" lon="-105.2293861">
  <ele>1583.0</ele>
  <time>2026-08-28T17:53:22Z</time>
  <course>90.44</course>
  <speed>1.01</speed>
  <fix>3d</fix>
</trkpt>
<trkpt lat="40.0712887" lon="-105.2293833">
  <ele>1583.12</ele>
  <time>2026-08-28T17:53:22Z</time>
  <course>90.52</course>
  <speed>1.0</speed>
  <fix>3d</fix>
</trkpt>
<trkpt lat="40.0712886" lon="-105.2293861">
  <ele>1583.0</ele>
  <time>2026-08-28T17:53:22Z</time>
  <course>90.44</course>
  <speed>1.01</speed>
  <fix>3d</fix>
</trkpt>
<trkpt lat="40.0712887" lon="-105.2293821">
  <ele>1583.12</ele>
  <time>2026-08-28T17:53:22Z</time>
  <course>90.51</course>
  <speed>1.0</speed>
  <fix>3d</fix>
</trkpt>
<trkpt lat="40.0712886" lon="-105.2293837">
  <ele>1583.0</ele>
  <time>2026-08-28T17:53:22Z</time>
  <course>90.42</course>
  <speed>1.01</speed>
  <fix>3d</fix>
</trkpt>
<trkpt lat="40.0712887" lon="-105.2293809">
  <ele>1583.12</ele>
  <time>2026-08-28T17:53:22Z</time>
  <course>90.5</course>
  <speed>1.0</speed>
  <fix>3d</fix>
</trkpt>
<trkpt lat="40.0712886" lon="-105.2293837">
  <ele>1583.0</ele>
  <time>2026-08-28T17:53:22Z</time>
  <course>90.42</course>
  <speed>1.01</speed>
  <fix>3d</fix>
</trkpt>
<trkpt lat="40.0712887" lon="-105.2293797">
  <ele>1583.12</ele>
  <time>2026-08-28T17:53:22Z</time>
  <course>90.49</course>
  <speed>1.0</speed>
  <fix>3d</fix>
</trkpt>
<trkpt lat="40.0712886" lon="-105.2293814">
  <ele>1583.0</ele>
  <time>2026-08-28T17:53:22Z</time>
  <course>90.4</course>
  <speed>1.0</speed>
  <fix>3d</fix>
</trkpt>
<trkpt lat="40.0712887" lon="-105.2293788">
  <ele>1583.12</ele>
  <time>2026-08-28T17:53:22Z</time>
  <course>90.48</course>
  <speed>1.0</speed>
  <fix>3d</fix>
</trkpt>
<trkpt lat="40.0712886" lon="-105.2293814">
  <ele>1583.0</ele>
  <time>2026-08-28T17:53:22Z</time>
  <course>90.4</course>
  <speed>1.0</speed>
  <fix>3d</fix>
</trkpt>
<trkpt lat="40.0712887" lon="-105.2293776">
  <ele>1583.12</ele>
  <time>2026-08-28T17:53:22Z</time>
  <course>90.47</course>
  <speed>1.0</speed>
  <fix>3d</fix>
</trkpt>
<trkpt lat="40.0712885" lon="-105.229379">
  <ele>1583.0</ele>
  <time>2026-08-28T17:53:22Z</time>
  <course>90.39</course>
  <speed>1.0</speed>
  <fix>3d</fix>
</trkpt>
<trkpt lat="40.0712887" lon="-105.2293764">
  <ele>1583.12</ele>
  <time>2026-08-28T17:53:22Z</time>
  <course>90.46</course>
  <speed>1.0</speed>
  <fix>3d</fix>
</trkpt>
<trkpt lat="40.0712885" lon="-105.229379">
  <ele>1583.0</ele>
  <time>2026-08-28T17:53:22Z</time>
  <course>90.39</course>
  <speed>1.0</speed>
  <fix>3d</fix>
</trkpt>
<trkpt lat="40.0712887" lon="-105.2293752">
  <ele>1583.12</ele>
  <time>2026-08-28T17:53:22Z</time>
  <course>90.45</course>
  <speed>1.0</speed>
  <fix>3d</fix>
</trkpt>
<trkpt lat="40.0712885" lon="-105.2293766">
  <ele>1583.0</ele>
  <time>2026-08-28T17:53:22Z</time>
  <course>90.37</course>
  <speed>1.0</speed>
  <fix>3d</fix>
</trkpt>
<trkpt lat="40.0712887" lon="-105.229374">
  <ele>1583.12</ele>
  <time>2026-08-28T17:53:22Z</time>
  <course>90.44</course>
  <speed>1.0</speed>
  <fix>3d</fix>
</trkpt>
<trkpt lat="40.0712885" lon="-105.2293766">
  <ele>1583.0</ele>
  <time>2026-08-28T17:53:22Z</time>
  <course>90.37</course>
  <speed>1.0</speed>
  <fix>3d</fix>
</trkpt>
<trkpt lat="40.0712887" lon="-105.2293729">
  <ele>1583.12</ele>
  <time>2026-08-28T17:53:22Z</time>
  <course>90.43</course>
  <speed>1.0</speed>
  <fix>3d</fix>
</trkpt>
<trkpt lat="40.0712885" lon="-105.2293743">
  <ele>1583.0</ele>
  <time>2026-08-28T17:53:22Z</time>
  <course>90.36</course>
  <speed>1.0</speed>
  <fix>3d</fix>
</trkpt>
<trkpt lat="40.0712886" lon="-105.2293717">
  <ele>1583.12</ele>
  <time>2026-08-28T17:53:22Z</time>
  <course>90.43</course>
  <speed>1.0</speed>
  <fix>3d</fix>
</trkpt>
<trkpt lat="40.0712885" lon="-105.2293743">
  <ele>1583.0</ele>
  <time>2026-08-28T17:53:22Z</time>
  <course>90.36</course>
  <speed>1.0</speed>
  <fix>3d</fix>
</trkpt>
<trkpt lat="40.0712886" lon="-105.2293705">
  <ele>1583.12</ele>
  <time>2026-08-28T17:53:22Z</time>
  <course>90.42</course>
  <speed>1.0</speed>
  <fix>3d</fix>
</trkpt>
<trkpt lat="40.0712885" lon="-105.229372">
  <ele>1583.0</ele>
  <time>2026-08-28T17:53:22Z</time>
  <course>90.34</course>
  <speed>0.99</speed>
  <fix>3d</fix>
</trkpt>
<trkpt lat="40.0712886" lon="-105.2293693">
  <ele>1583.12</ele>
  <time>2026-08-28T17:53:22Z</time>
  <course>90.41</course>
  <speed>1.0</speed>
  <fix>3d</fix>
</trkpt>
<trkpt lat="40.0712885" lon="-105.229372">
  <ele>1583.0</ele>
  <time>2026-08-28T17:53:22Z</time>
  <course>90.34</course>
  <speed>0.99</speed>
  <fix>3d</fix>
</trkpt>
<trkpt lat="40.0712886" lon="-105.2293679">
  <ele>1583.12</ele>
  <time>2026-08-28T17:53:22Z</time>
  <course>90.4</course>
  <speed>1.0</speed>
  <fix>3d</fix>
</trkpt>
<trkpt lat="40.0712885" lon="-105.2293696">
  <ele>1583.0</ele>
  <time>2026-08-28T17:53:22Z</time>
  <course>90.33</course>
  <speed>0.99</speed>
  <fix>3d</fix>
</trkpt>
<trkpt lat="40.0712886" lon="-105.2293667">
  <ele>1583.12</ele>
  <time>2026-08-28T17:53:22Z</time>
  <course>90.39</course>
  <speed>1.0</speed>
  <fix>3d</fix>
</trkpt>
<trkpt lat="40.0712885" lon="-105.2293696">
  <ele>1583.0</ele>
  <time>2026-08-28T17:53:22Z</time>
  <course>90.33</course>
  <speed>0.99</speed>
  <fix>3d</fix>
</trkpt>
<trkpt lat="40.0712886" lon="-105.2293655">
  <ele>1583.12</ele>
  <time>2026-08-28T17:53:22Z</time>
  <course>90.38</course>
  <speed>1.0</speed>
  <fix>3d</fix>
</trkpt>
<trkpt lat="40.0712885" lon="-105.2293673">
  <ele>1583.0</ele>
  <time>2026-08-28T17:53:22Z</time>
  <course>90.32</course>
  <speed>0.99</speed>
  <fix>3d</fix>
</trkpt>
<trkpt lat="40.0712886" lon="-105.2293643">
  <ele>1583.12</ele>
  <time>2026-08-28T17:53:22Z</time>
  <course>90.38</course>
  <speed>1.0</speed>
  <fix>3d</fix>
</trkpt>
<trkpt lat="40.0712885" lon="-105.2293673">
  <ele>1583.0</ele>
  <time>2026-08-28T17:53:22Z</time>
  <course>90.32</course>
  <speed>0.99</speed>
  <fix>3d</fix>
</trkpt>
<trkpt lat="40.0712886" lon="-105.2293632">
  <ele>1583.12</ele>
  <time>2026-08-28T17:53:22Z</time>
  <course>90.66</course>
  <speed>1.0</speed>
  <fix>3d</fix>
</trkpt>
<trkpt lat="40.0712885" lon="-105.229365">
  <ele>1583.0</ele>
  <time>2026-08-28T17:53:22Z</time>
  <course>90.38</course>
  <speed>0.99</speed>
  <fix>3d</fix>
</trkpt>
<trkpt lat="40.0712886" lon="-105.229362">
  <ele>1583.12</ele>
  <time>2026-08-28T17:53:22Z</time>
  <course>92.08</course>
  <speed>1.0204410811016968</speed>
  <fix>3d</fix>
</trkpt>
<trkpt lat="40.0712885" lon="-105.229365">
  <ele>1583.0</ele>
  <time>2026-08-28T17:53:22Z</time>
  <course>90.38</course>
  <speed>0.99</speed>
  <fix>3d</fix>
</trkpt>
<trkpt lat="40.0712885" lon="-105.2293608">
  <ele>1583.12</ele>
  <time>2026-08-28T17:53:22Z</time>
  <course>94.59</course>
  <speed>1.0523307464861036</speed>
  <fix>3d</fix>
</trkpt>
<trkpt lat="40.0712885" lon="-105.2293626">
  <ele>1583.0</ele>
  <time>2026-08-28T17:53:22Z</time>
  <course>92.24</course>
  <speed>1.01</speed>
  <fix>3d</fix>
</trkpt>
<trkpt lat="40.0712884" lon="-105.2293595">
  <ele>1583.12</ele>
  <time>2026-08-28T17:53:22Z</time>
  <course>98.17</course>
  <speed>1.1002726934719411</speed>
  <fix>3d</fix>
</trkpt>
<trkpt lat="40.0712885" lon="-105.2293626">
  <ele>1583.0</ele>
  <time>2026-08-28T17:53:22Z</time>
  <course>92.24</course>
  <speed>1.01</speed>
  <fix>3d</fix>
</trkpt>
<trkpt lat="40.0712882" lon="-105.2293582">
  <ele>1583.12</ele>
  <time>2026-08-28T17:53:22Z</time>
  <course>102.8</course>
  <speed>1.1573245007343447</speed>
  <fix>3d</fix>
</trkpt>
<trkpt lat="40.0712883" lon="-105.2293602">
  <ele>1583.0</ele>
  <time>2026-08-28T17:53:22Z</time>
  <course>98.06</course>
  <speed>1.08</speed>
  <fix>3d</fix>
</trkpt>
<trkpt lat="40.0712879" lon="-105.2293569">
  <ele>1583.12</ele>
  <time>2026-08-28T17:53:22Z</time>
  <course>108.14</course>
  <speed>1.208056290079233</speed>
  <fix>3d</fix>
</trkpt>
<trkpt lat="40.0712883" lon="-105.2293602">
  <ele>1583.0</ele>
  <time>2026-08-28T17:53:22Z</time>
  <course>98.06</course>
  <speed>1.08</speed>
  <fix>3d</fix>
</trkpt>
<trkpt lat="40.0712875" lon="-105.2293556">
  <ele>1583.12</ele>
  <time>2026-08-28T17:53:22Z</time>
  <course>112.64</course>
  <speed>1.2646343345014794</speed>
  <fix>3d</fix>
</trkpt>
<trkpt lat="40.0712879" lon="-105.2293576">
  <ele>1583.0</ele>
  <time>2026-08-28T17:53:22Z</time>
  <course>107.03</course>
  <speed>1.19</speed>
  <fix>3d</fix>
</trkpt>
<trkpt lat="40.0712871" lon="-105.2293545">
  <ele>1583.12</ele>
  <time>2026-08-28T17:53:22Z</time>
  <course>115.73</course>
  <speed>1.3061393493804556</speed>
  <fix>3d</fix>
</trkpt>
<trkpt lat="40.0712879" lon="-105.2293576">
  <ele>1583.0</ele>
  <time>2026-08-28T17:53:22Z</time>
  <course>107.03</course>
  <speed>1.19</speed>
  <fix>3d</fix>
</trkpt>
<trkpt lat="40.0712866" lon="-105.2293531">
  <ele>1583.12</ele>
  <time>2026-08-28T17:53:22Z</time>
  <course>119.01</course>
  <speed>1.3471822445385777</speed>
  <fix>3d</fix>
</trkpt>
<trkpt lat="40.0712871" lon="-105.2293549">
  <ele>1583.0</ele>
  <time>2026-08-28T17:53:22Z</time>
  <course>115.51</course>
  <speed>1.29</speed>
  <fix>3d</fix>
</trkpt>
<trkpt lat="40.0712859" lon="-105.2293517">
  <ele>1583.12</ele>
  <time>2026-08-28T17:53:22Z</time>
  <course>121.75</course>
  <speed>1.3875518008348373</speed>
  <fix>3d</fix>
</trkpt>
<trkpt lat="40.0712871" lon="-105.2293549">
  <ele>1583.0</ele>
  <time>2026-08-28T17:53:22Z</time>
  <course>115.51</course>
  <speed>1.29</speed>
  <fix>3d</fix>
</trkpt>
<trkpt lat="40.0712852" lon="-105.2293503">
  <ele>1583.12</ele>
  <time>2026-08-28T17:53:22Z</time>
  <course>124.03</course>
  <speed>1.4200352108310554</speed>
  <fix>3d</fix>
</trkpt>
<trkpt lat="40.0712859" lon="-105.2293521">
  <ele>1583.0</ele>
  <time>2026-08-28T17:53:22Z</time>
  <course>121.55</course>
  <speed>1.38</speed>
  <fix>3d</fix>
</trkpt>
<trkpt lat="40.0712844" lon="-105.2293489">
  <ele>1583.12</ele>
  <time>2026-08-28T17:53:22Z</time>
  <course>125.94</course>
  <speed>1.454269576110289</speed>
  <fix>3d</fix>
</trkpt>
<trkpt lat="40.0712859" lon="-105.2293521">
  <ele>1583.0</ele>
  <time>2026-08-28T17:53:22Z</time>
  <course>121.55</course>
  <speed>1.38</speed>
  <fix>3d</fix>
</trkpt>
<trkpt lat="40.0712836" lon="-105.2293475">
  <ele>1583.12</ele>
  <time>2026-08-28T17:53:22Z</time>
  <course>127.54</course>
  <speed>1.4761097520171051</speed>
  <fix>3d</fix>
</trkpt>
<trkpt lat="40.0712845" lon="-105.2293493">
  <ele>1583.0</ele>
  <time>2026-08-28T17:53:22Z</time>
  <course>125.78</course>
  <speed>1.44</speed>
  <fix>3d</fix>
</trkpt>
<trkpt lat="40.0712828" lon="-105.2293462">
  <ele>1583.11</ele>
  <time>2026-08-28T17:53:22Z</time>
  <course>128.87</course>
  <speed>1.5008331019803633</speed>
  <fix>3d</fix>
</trkpt>
<trkpt lat="40.0712845" lon="-105.2293493">
  <ele>1583.0</ele>
  <time>2026-08-28T17:53:22Z</time>
  <course>125.78</course>
  <speed>1.44</speed>
  <fix>3d</fix>
</trkpt>
<trkpt lat="40.0712819" lon="-105.2293448">
  <ele>1583.11</ele>
  <time>2026-08-28T17:53:22Z</time>
  <course>129.98</course>
  <speed>1.5121177202850313</speed>
  <fix>3d</fix>
</trkpt>
<trkpt lat="40.0712829" lon="-105.2293466">
  <ele>1583.0</ele>
  <time>2026-08-28T17:53:22Z</time>
  <course>128.74</course>
  <speed>1.49</speed>
  <fix>3d</fix>
</trkpt>
<trkpt lat="40.071281" lon="-105.2293434">
  <ele>1583.11</ele>
  <time>2026-08-28T17:53:22Z</time>
  <course>130.91</course>
  <speed>1.5315351775261317</speed>
  <fix>3d</fix>
</trkpt>
<trkpt lat="40.0712829" lon="-105.2293466">
  <ele>1583.0</ele>
  <time>2026-08-28T17:53:22Z</time>
  <course>128.74</course>
  <speed>1.49</speed>
  <fix>3d</fix>
</trkpt>
<trkpt lat="40.0712801" lon="-105.229342">
  <ele>1583.11</ele>
  <time>2026-08-28T17:53:22Z</time>
  <course>131.68</course>
  <speed>1.537172729396407</speed>
  <fix>3d</fix>
</trkpt>
<trkpt lat="40.0712812" lon="-105.2293439">
  <ele>1583.0</ele>
  <time>2026-08-28T17:53:22Z</time>
  <course>130.8</course>
  <speed>1.51</speed>
  <fix>3d</fix>
</trkpt>
<trkpt lat="40.0712789" lon="-105.2293404">
  <ele>1583.12</ele>
  <time>2026-08-28T17:53:22Z</time>
  <course>132.44</course>
  <speed>1.5431137352768267</speed>
  <fix>3d</fix>
</trkpt>
<trkpt lat="40.0712812" lon="-105.2293439">
  <ele>1583.0</ele>
  <time>2026-08-28T17:53:22Z</time>
  <course>130.8</course>
  <speed>1.51</speed>
  <fix>3d</fix>
</trkpt>
<trkpt lat="40.071278" lon="-105.2293391">
  <ele>1583.12</ele>
  <time>2026-08-28T17:53:22Z</time>
  <course>132.96</course>
  <speed>1.5425303886795876</speed>
  <fix>3d</fix>
</trkpt>
<trkpt lat="40.0712793" lon="-105.2293412">
  <ele>1583.0</ele>
  <time>2026-08-28T17:53:22Z</time>
  <course>132.23</course>
  <speed>1.52</speed>
  <fix>3d</fix>
</trkpt>
<trkpt lat="40.071277" lon="-105.2293378">
  <ele>1583.12</ele>
  <time>2026-08-28T17:53:22Z</time>
  <course>133.39</course>
  <speed>1.5352198539622917</speed>
  <fix>3d</fix>
</trkpt>
<trkpt lat="40.0712793" lon="-105.2293412">
  <ele>1583.0</ele>
  <time>2026-08-28T17:53:22Z</time>
  <course>132.23</course>
  <speed>1.52</speed>
  <fix>3d</fix>
</trkpt>
<trkpt lat="40.0712761" lon="-105.2293365">
  <ele>1583.12</ele>
  <time>2026-08-28T17:53:22Z</time>
  <course>133.74</course>
  <speed>1.5348289807011073</speed>
  <fix>3d</fix>
</trkpt>
<trkpt lat="40.0712775" lon="-105.2293386">
  <ele>1583.0</ele>
  <time>2026-08-28T17:53:22Z</time>
  <course>133.23</course>
  <speed>1.52</speed>
  <fix>3d</fix>
</trkpt>
<trkpt lat="40.0712751" lon="-105.2293352">
  <ele>1583.13</ele>
  <time>2026-08-28T17:53:22Z</time>
  <course>134.03</course>
  <speed>1.5276125163142649</speed>
  <fix>3d</fix>
</trkpt>
<trkpt lat="40.0712775" lon="-105.2293386">
  <ele>1583.0</ele>
  <time>2026-08-28T17:53:22Z</time>
  <course>133.23</course>
  <speed>1.52</speed>
  <fix>3d</fix>
</trkpt>
<trkpt lat="40.0712741" lon="-105.2293339">
  <ele>1583.13</ele>
  <time>2026-08-28T17:53:22Z</time>
  <course>134.28</course>
  <speed>1.5204275714416653</speed>
  <fix>3d</fix>
</trkpt>
<trkpt lat="40.0712756" lon="-105.2293359">
  <ele>1583.0</ele>
  <time>2026-08-28T17:53:22Z</time>
  <course>133.91</course>
  <speed>1.51</speed>
  <fix>3d</fix>
</trkpt>
<trkpt lat="40.0712732" lon="-105.2293326">
  <ele>1583.13</ele>
  <time>2026-08-28T17:53:22Z</time>
  <course>134.48</course>
  <speed>1.506286825275983</speed>
  <fix>3d</fix>
</trkpt>
<trkpt lat="40.0712756" lon="-105.2293359">
  <ele>1583.0</ele>
  <time>2026-08-28T17:53:22Z</time>
  <course>133.91</course>
  <speed>1.51</speed>
  <fix>3d</fix>
</trkpt>
<trkpt lat="40.0712723" lon="-105.2293314">
  <ele>1583.13</ele>
  <time>2026-08-28T17:53:22Z</time>
  <course>134.65</course>
  <speed>1.4991330828182001</speed>
  <fix>3d</fix>
</trkpt>
<trkpt lat="40.0712737" lon="-105.2293334">
  <ele>1583.0</ele>
  <time>2026-08-28T17:53:22Z</time>
  <course>134.38</course>
  <speed>1.49</speed>
  <fix>3d</fix>
</trkpt>
<trkpt lat="40.0712713" lon="-105.2293302">
  <ele>1583.13</ele>
  <time>2026-08-28T17:53:22Z</time>
  <course>134.79</course>
  <speed>1.4849915824677256</speed>
  <fix>3d</fix>
</trkpt>
<trkpt lat="40.0712737" lon="-105.2293334">
  <ele>1583.0</ele>
  <time>2026-08-28T17:53:22Z</time>
  <course>134.38</course>
  <speed>1.49</speed>
  <fix>3d</fix>
</trkpt>
<trkpt lat="40.0712704" lon="-105.2293289">
  <ele>1583.13</ele>
  <time>2026-08-28T17:53:22Z</time>
  <course>134.9</course>
  <speed>1.4778700890132392</speed>
  <fix>3d</fix>
</trkpt>
<trkpt lat="40.0712718" lon="-105.229331">
  <ele>1583.0</ele>
  <time>2026-08-28T17:53:22Z</time>
  <course>134.71</course>
  <speed>1.47</speed>
  <fix>3d</fix>
</trkpt>
<trkpt lat="40.0712695" lon="-105.2293277">
  <ele>1583.13</ele>
  <time>2026-08-28T17:53:22Z</time>
  <course>135.0</course>
  <speed>1.4637281168304446</speed>
  <fix>3d</fix>
</trkpt>
<trkpt lat="40.0712718" lon="-105.229331">
  <ele>1583.0</ele>
  <time>2026-08-28T17:53:22Z</time>
  <course>134.71</course>
  <speed>1.47</speed>
  <fix>3d</fix>
</trkpt>
<trkpt lat="40.0712687" lon="-105.2293268">
  <ele>1583.13</ele>
  <time>2026-08-28T17:53:22Z</time>
  <course>135.06</course>
  <speed>1.456639969244288</speed>
  <fix>3d</fix>
</trkpt>
<trkpt lat="40.07127" lon="-105.2293285">
  <ele>1583.0</ele>
  <time>2026-08-28T17:53:22Z</time>
  <course>134.93</course>
  <speed>1.45</speed>
  <fix>3d</fix>
</trkpt>
<trkpt lat="40.0712678" lon="-105.2293256">
  <ele>1583.12</ele>
  <time>2026-08-28T17:53:22Z</time>
  <course>135.13</course>
  <speed>1.4495861478366852</speed>
  <fix>3d</fix>
</trkpt>
<trkpt lat="40.07127" lon="-105.2293285">
  <ele>1583.0</ele>
  <time>2026-08-28T17:53:22Z</time>
  <course>134.93</course>
  <speed>1.45</speed>
  <fix>3d</fix>
</trkpt>
<trkpt lat="40.0712669" lon="-105.2293244">
  <ele>1583.12</ele>
  <time>2026-08-28T17:53:22Z</time>
  <course>135.18</course>
  <speed>1.4354441821262156</speed>
  <fix>3d</fix>
</trkpt>
<trkpt lat="40.0712681" lon="-105.2293261">
  <ele>1583.0</ele>
  <time>2026-08-28T17:53:22Z</time>
  <course>135.08</course>
  <speed>1.43</speed>
  <fix>3d</fix>
</trkpt>
<trkpt lat="40.071266" lon="-105.2293232">
  <ele>1583.12</ele>
  <time>2026-08-28T17:53:22Z</time>
  <course>135.22</course>
  <speed>1.428355697996826</speed>
  <fix>3d</fix>
</trkpt>
<trkpt lat="40.0712681" lon="-105.2293261">
  <ele>1583.0</ele>
  <time>2026-08-28T17:53:22Z</time>
  <course>135.08</course>
  <speed>1.43</speed>
  <fix>3d</fix>
</trkpt>
<trkpt lat="40.0712651" lon="-105.2293221">
  <ele>1583.12</ele>
  <time>2026-08-28T17:53:22Z</time>
  <course>135.99</course>
  <speed>1.4284257068535278</speed>
  <fix>3d</fix>
</trkpt>
<trkpt lat="40.0712663" lon="-105.2293237">
  <ele>1583.0</ele>
  <time>2026-08-28T17:53:22Z</time>
  <course>135.55</course>
  <speed>1.42</speed>
  <fix>3d</fix>
</trkpt>
<trkpt lat="40.0712642" lon="-105.2293209">
  <ele>1583.12</ele>
  <time>2026-08-28T17:53:22Z</time>
  <course>137.91</course>
  <speed>1.422708684165525</speed>
  <fix>3d</fix>
</trkpt>
<trkpt lat="40.0712663" lon="-105.2293237">
  <ele>1583.0</ele>
  <time>2026-08-28T17:53:22Z</time>
  <course>135.55</course>
  <speed>1.42</speed>
  <fix>3d</fix>
</trkpt>
<trkpt lat="40.0712632" lon="-105.2293199">
  <ele>1583.12</ele>
  <time>2026-08-28T17:53:22Z</time>
  <course>140.89</course>
  <speed>1.4135416513141734</speed>
  <fix>3d</fix>
</trkpt>
<trkpt lat="40.0712645" lon="-105.2293215">
  <ele>1583.0</ele>
  <time>2026-08-28T17:53:22Z</time>
  <course>138.41</course>
  <speed>1.4</speed>
  <fix>3d</fix>
</trkpt>
<trkpt lat="40.0712622" lon="-105.2293189">
  <ele>1583.12</ele>
  <time>2026-08-28T17:53:22Z</time>
  <course>144.98</course>
  <speed>1.3984634424967999</speed>
  <fix>3d</fix>
</trkpt>
<trkpt lat="40.0712645" lon="-105.2293215">
  <ele>1583.0</ele>
  <time>2026-08-28T17:53:22Z</time>
  <course>138.41</course>
  <speed>1.4</speed>
  <fix>3d</fix>
</trkpt>
<trkpt lat="40.0712611" lon="-105.229318">
  <ele>1583.12</ele>
  <time>2026-08-28T17:53:22Z</time>
  <course>150.11</course>
  <speed>1.397891269019161</speed>
  <fix>3d</fix>
</trkpt>
<trkpt lat="40.0712625" lon="-105.2293194">
  <ele>1583.0</ele>
  <time>2026-08-28T17:53:22Z</time>
  <course>145.46</course>
  <speed>1.39</speed>
  <fix>3d</fix>
</trkpt>
<trkpt lat="40.07126" lon="-105.2293173">
  <ele>1583.12</ele>
  <time>2026-08-28T17:53:22Z</time>
  <course>156.27</course>
  <speed>1.3920488497175665</speed>
  <fix>3d</fix>
</trkpt>
<trkpt lat="40.0712625" lon="-105.2293194">
  <ele>1583.0</ele>
  <time>2026-08-28T17:53:22Z</time>
  <course>145.46</course>
  <speed>1.39</speed>
  <fix>3d</fix>
</trkpt>
<trkpt lat="40.0712586" lon="-105.2293166">
  <ele>1583.12</ele>
  <time>2026-08-28T17:53:22Z</time>
  <course>165.02</course>
  <speed>1.3901438774457844</speed>
  <fix>3d</fix>
</trkpt>
<trkpt lat="40.0712603" lon="-105.2293178">
  <ele>1583.0</ele>
  <time>2026-08-28T17:53:22Z</time>
  <course>156.74</course>
  <speed>1.37</speed>
  <fix>3d</fix>
</trkpt>
<trkpt lat="40.0712574" lon="-105.2293164">
  <ele>1583.12</ele>
  <time>2026-08-28T17:53:22Z</time>
  <course>173.4</course>
  <speed>1.3793114224133722</speed>
  <fix>3d</fix>
</trkpt>
<trkpt lat="40.0712603" lon="-105.2293178">
  <ele>1583.0</ele>
  <time>2026-08-28T17:53:22Z</time>
  <course>156.74</course>
  <speed>1.37</speed>
  <fix>3d</fix>
</trkpt>
<trkpt lat="40.0712561" lon="-105.2293164">
  <ele>1583.12</ele>
  <time>2026-08-28T17:53:22Z</time>
  <course>182.0</course>
  <speed>1.3805795884337855</speed>
  <fix>3d</fix>
</trkpt>
<trkpt lat="40.071258" lon="-105.229317">
  <ele>1583.0</ele>
  <time>2026-08-28T17:53:22Z</time>
  <course>171.88</course>
  <speed>1.36</speed>
  <fix>3d</fix>
</trkpt>
<trkpt lat="40.0712549" lon="-105.2293166">
  <ele>1583.12</ele>
  <time>2026-08-28T17:53:22Z</time>
  <course>189.61</course>
  <speed>1.377679207943562</speed>
  <fix>3d</fix>
</trkpt>
<trkpt lat="40.071258" lon="-105.229317">
  <ele>1583.0</ele>
  <time>2026-08-28T17:53:22Z</time>
  <course>171.88</course>
  <speed>1.36</speed>
  <fix>3d</fix>
</trkpt>
<trkpt lat="40.0712536" lon="-105.229317">
  <ele>1583.12</ele>
  <time>2026-08-28T17:53:22Z</time>
  <course>196.23</course>
  <speed>1.373608386695422</speed>
  <fix>3d</fix>
</trkpt>
<trkpt lat="40.0712555" lon="-105.2293169">
  <ele>1583.0</ele>
  <time>2026-08-28T17:53:22Z</time>
  <course>187.67</course>
  <speed>1.37</speed>
  <fix>3d</fix>
</trkpt>
<trkpt lat="40.0712525" lon="-105.2293176">
  <ele>1583.12</ele>
  <time>2026-08-28T17:53:22Z</time>
  <course>201.83</course>
  <speed>1.3778606605894514</speed>
  <fix>3d</fix>
</trkpt>
<trkpt lat="40.0712555" lon="-105.2293169">
  <ele>1583.0</ele>
  <time>2026-08-28T17:53:22Z</time>
  <course>187.67</course>
  <speed>1.37</speed>
  <fix>3d</fix>
</trkpt>
<trkpt lat="40.0712514" lon="-105.2293183">
  <ele>1583.12</ele>
  <time>2026-08-28T17:53:22Z</time>
  <course>206.4</course>
  <speed>1.372953021774598</speed>
  <fix>3d</fix>
</trkpt>
<trkpt lat="40.0712531" lon="-105.2293177">
  <ele>1583.0</ele>
  <time>2026-08-28T17:53:22Z</time>
  <course>200.3</course>
  <speed>1.38</speed>
  <fix>3d</fix>
</trkpt>
<trkpt lat="40.0712503" lon="-105.2293191">
  <ele>1583.12</ele>
  <time>2026-08-28T17:53:22Z</time>
  <course>209.89</course>
  <speed>1.3842326394071194</speed>
  <fix>3d</fix>
</trkpt>
<trkpt lat="40.0712531" lon="-105.2293177">
  <ele>1583.0</ele>
  <time>2026-08-28T17:53:22Z</time>
  <course>200.3</course>
  <speed>1.38</speed>
  <fix>3d</fix>
</trkpt>
<trkpt lat="40.0712492" lon="-105.2293199">
  <ele>1583.12</ele>
  <time>2026-08-28T17:53:22Z</time>
  <course>212.57</course>
  <speed>1.3813399291991817</speed>
  <fix>3d</fix>
</trkpt>
<trkpt lat="40.0712508" lon="-105.2293191">
  <ele>1583.0</ele>
  <time>2026-08-28T17:53:22Z</time>
  <course>208.82</course>
  <speed>1.39</speed>
  <fix>3d</fix>
</trkpt>
<trkpt lat="40.0712482" lon="-105.2293209">
  <ele>1583.12</ele>
  <time>2026-08-28T17:53:22Z</time>
  <course>214.84</course>
  <speed>1.3869751259485514</speed>
  <fix>3d</fix>
</trkpt>
<trkpt lat="40.0712508" lon="-105.2293191">
  <ele>1583.0</ele>
  <time>2026-08-28T17:53:22Z</time>
  <course>208.82</course>
  <speed>1.39</speed>
  <fix>3d</fix>
</trkpt>
<trkpt lat="40.0712472" lon="-105.2293219">
  <ele>1583.11</ele>
  <time>2026-08-28T17:53:22Z</time>
  <course>216.72</course>
  <speed>1.386001443000692</speed>
  <fix>3d</fix>
</trkpt>
<trkpt lat="40.0712487" lon="-105.2293208">
  <ele>1583.0</ele>
  <time>2026-08-28T17:53:22Z</time>
  <course>214.21</course>
  <speed>1.39</speed>
  <fix>3d</fix>
</trkpt>
<trkpt lat="40.0712464" lon="-105.2293227">
  <ele>1583.11</ele>
  <time>2026-08-28T17:53:22Z</time>
  <course>218.01</course>
  <speed>1.3884163640637488</speed>
  <fix>3d</fix>
</trkpt>
<trkpt lat="40.0712487" lon="-105.2293208">
  <ele>1583.0</ele>
  <time>2026-08-28T17:53:22Z</time>
  <course>214.21</course>
  <speed>1.39</speed>
  <fix>3d</fix>
</trkpt>
<trkpt lat="40.0712454" lon="-105.2293237">
  <ele>1583.11</ele>
  <time>2026-08-28T17:53:22Z</time>
  <course>219.37</course>
  <speed>1.3994641831786907</speed>
  <fix>3d</fix>
</trkpt>
<trkpt lat="40.0712467" lon="-105.2293227">
  <ele>1583.0</ele>
  <time>2026-08-28T17:53:22Z</time>
  <course>217.86</course>
  <speed>1.4</speed>
  <fix>3d</fix>
</trkpt>
<trkpt lat="40.0712445" lon="-105.2293248">
  <ele>1583.11</ele>
  <time>2026-08-28T17:53:22Z</time>
  <course>220.5</course>
  <speed>1.3970325694127537</speed>
  <fix>3d</fix>
</trkpt>
<trkpt lat="40.0712467" lon="-105.2293227">
  <ele>1583.0</ele>
  <time>2026-08-28T17:53:22Z</time>
  <course>217.86</course>
  <speed>1.4</speed>
  <fix>3d</fix>
</trkpt>
<trkpt lat="40.0712435" lon="-105.2293259">
  <ele>1583.11</ele>
  <time>2026-08-28T17:53:22Z</time>
  <course>221.43</course>
  <speed>1.4026403673073151</speed>
  <fix>3d</fix>
</trkpt>
<trkpt lat="40.0712447" lon="-105.2293248">
  <ele>1583.0</ele>
  <time>2026-08-28T17:53:22Z</time>
  <course>220.38</course>
  <speed>1.41</speed>
  <fix>3d</fix>
</trkpt>
<trkpt lat="40.0712426" lon="-105.2293271">
  <ele>1583.11</ele>
  <time>2026-08-28T17:53:22Z</time>
  <course>222.21</course>
  <speed>1.4018559127100045</speed>
  <fix>3d</fix>
</trkpt>
<trkpt lat="40.0712447" lon="-105.2293248">
  <ele>1583.0</ele>
  <time>2026-08-28T17:53:22Z</time>
  <course>220.38</course>
  <speed>1.41</speed>
  <fix>3d</fix>
</trkpt>
<trkpt lat="40.0712417" lon="-105.2293282">
  <ele>1583.1</ele>
  <time>2026-08-28T17:53:22Z</time>
  <course>222.85</course>
  <speed>1.4080127840328722</speed>
  <fix>3d</fix>
</trkpt>
<trkpt lat="40.0712428" lon="-105.2293269">
  <ele>1583.0</ele>
  <time>2026-08-28T17:53:22Z</time>
  <course>222.13</course>
  <speed>1.41</speed>
  <fix>3d</fix>
</trkpt>
<trkpt lat="40.0712407" lon="-105.2293294">
  <ele>1583.11</ele>
  <time>2026-08-28T17:53:22Z</time>
  <course>223.38</course>
  <speed>1.4075865870347015</speed>
  <fix>3d</fix>
</trkpt>
<trkpt lat="40.0712428" lon="-105.2293269">
  <ele>1583.0</ele>
  <time>2026-08-28T17:53:22Z</time>
  <course>222.13</course>
  <speed>1.41</speed>
  <fix>3d</fix>
</trkpt>
<trkpt lat="40.0712398" lon="-105.2293306">
  <ele>1583.11</ele>
  <time>2026-08-28T17:53:22Z</time>
  <course>223.83</course>
  <speed>1.4073023839957068</speed>
  <fix>3d</fix>
</trkpt>
<trkpt lat="40.071241" lon="-105.2293292">
  <ele>1583.0</ele>
  <time>2026-08-28T17:53:22Z</time>
  <course>223.33</course>
  <speed>1.41</speed>
  <fix>3d</fix>
</trkpt>
<trkpt lat="40.0712389" lon="-105.2293317">
  <ele>1583.11</ele>
  <time>2026-08-28T17:53:22Z</time>
  <course>224.19</course>
  <speed>1.4073023839957068</speed>
  <fix>3d</fix>
</trkpt>
<trkpt lat="40.071241" lon="-105.2293292">
  <ele>1583.0</ele>
  <time>2026-08-28T17:53:22Z</time>
  <course>223.33</course>
  <speed>1.41</speed>
  <fix>3d</fix>
</trkpt>
<trkpt lat="40.071238" lon="-105.2293329">
  <ele>1583.11</ele>
  <time>2026-08-28T17:53:22Z</time>
  <course>224.49</course>
  <speed>1.4142842712835353</speed>
  <fix>3d</fix>
</trkpt>
<trkpt lat="40.0712391" lon="-105.2293315">
  <ele>1583.0</ele>
  <time>2026-08-28T17:53:22Z</time>
  <course>224.15</course>
  <speed>1.41</speed>
  <fix>3d</fix>
</trkpt>
<trkpt lat="40.0712369" lon="-105.2293343">
  <ele>1583.11</ele>
  <time>2026-08-28T17:53:22Z</time>
  <course>224.77</course>
  <speed>1.4071602609511116</speed>
  <fix>3d</fix>
</trkpt>
<trkpt lat="40.0712391" lon="-105.2293315">
  <ele>1583.0</ele>
  <time>2026-08-28T17:53:22Z</time>
  <course>224.15</course>
  <speed>1.41</speed>
  <fix>3d</fix>
</trkpt>
<trkpt lat="40.071236" lon="-105.2293355">
  <ele>1583.12</ele>
  <time>2026-08-28T17:53:22Z</time>
  <course>224.97</course>
  <speed>1.4142135623730951</speed>
  <fix>3d</fix>
</trkpt>
<trkpt lat="40.0712372" lon="-105.2293339">
  <ele>1583.0</ele>
  <time>2026-08-28T17:53:22Z</time>
  <course>224.71</course>
  <speed>1.42</speed>
  <fix>3d</fix>
</trkpt>
<trkpt lat="40.071235" lon="-105.2293367">
  <ele>1583.12</ele>
  <time>2026-08-28T17:53:22Z</time>
  <course>225.13</course>
  <speed>1.4142135623730951</speed>
  <fix>3d</fix>
</trkpt>
<trkpt lat="40.0712372" lon="-105.2293339">
  <ele>1583.0</ele>
  <time>2026-08-28T17:53:22Z</time>
  <course>224.71</course>
  <speed>1.42</speed>
  <fix>3d</fix>
</trkpt>
<trkpt lat="40.0712341" lon="-105.2293379">
  <ele>1583.12</ele>
  <time>2026-08-28T17:53:22Z</time>
  <course>225.26</course>
  <speed>1.4142135623730951</speed>
  <fix>3d</fix>
</trkpt>
<trkpt lat="40.0712355" lon="-105.2293363">
  <ele>1583.0</ele>
  <time>2026-08-28T17:53:22Z</time>
  <course>225.09</course>
  <speed>1.42</speed>
  <fix>3d</fix>
</trkpt>
<trkpt lat="40.0712332" lon="-105.2293391">
  <ele>1583.12</ele>
  <time>2026-08-28T17:53:22Z</time>
  <course>225.36</course>
  <speed>1.4213022197970424</speed>
  <fix>3d</fix>
</trkpt>
<trkpt lat="40.0712355" lon="-105.2293363">
  <ele>1583.0</ele>
  <time>2026-08-28T17:53:22Z</time>
  <course>225.09</course>
  <speed>1.42</speed>
  <fix>3d</fix>
</trkpt>
<trkpt lat="40.0712323" lon="-105.2293403">
  <ele>1583.12</ele>
  <time>2026-08-28T17:53:22Z</time>
  <course>225.44</course>
  <speed>1.4213022197970424</speed>
  <fix>3d</fix>
</trkpt>
<trkpt lat="40.0712336" lon="-105.2293387">
  <ele>1583.0</ele>
  <time>2026-08-28T17:53:22Z</time>
  <course>225.34</course>
  <speed>1.42</speed>
  <fix>3d</fix>
</trkpt>
<trkpt lat="40.0712314" lon="-105.2293415">
  <ele>1583.12</ele>
  <time>2026-08-28T17:53:22Z</time>
  <course>225.51</course>
  <speed>1.4142842712835353</speed>
  <fix>3d</fix>
</trkpt>
<trkpt lat="40.0712336" lon="-105.2293387">
  <ele>1583.0</ele>
  <time>2026-08-28T17:53:22Z</time>
  <course>225.34</course>
  <speed>1.42</speed>
  <fix>3d</fix>
</trkpt>
<trkpt lat="40.0712305" lon="-105.2293427">
  <ele>1583.13</ele>
  <time>2026-08-28T17:53:22Z</time>
  <course>225.57</course>
  <speed>1.4142842712835353</speed>
  <fix>3d</fix>
</trkpt>
<trkpt lat="40.0712319" lon="-105.229341">
  <ele>1583.0</ele>
  <time>2026-08-28T17:53:22Z</time>
  <course>225.51</course>
  <speed>1.42</speed>
  <fix>3d</fix>
</trkpt>
<trkpt lat="40.0712296" lon="-105.2293439">
  <ele>1583.13</ele>
  <time>2026-08-28T17:53:22Z</time>
  <course>225.6</course>
  <speed>1.4142842712835353</speed>
  <fix>3d</fix>
</trkpt>
<trkpt lat="40.0712319" lon="-105.229341">
  <ele>1583.0</ele>
  <time>2026-08-28T17:53:22Z</time>
  <course>225.51</course>
  <speed>1.42</speed>
  <fix>3d</fix>
</trkpt>
<trkpt lat="40.0712288" lon="-105.2293451">
  <ele>1583.13</ele>
  <time>2026-08-28T17:53:22Z</time>
  <course>225.64</course>
  <speed>1.4071602609511116</speed>
  <fix>3d</fix>
</trkpt>
<trkpt lat="40.07123" lon="-105.2293433">
  <ele>1583.0</ele>
  <time>2026-08-28T17:53:22Z</time>
  <course>225.61</course>
  <speed>1.41</speed>
  <fix>3d</fix>
</trkpt>
<trkpt lat="40.0712279" lon="-105.2293463">
  <ele>1583.12</ele>
  <time>2026-08-28T17:53:22Z</time>
  <course>226.41</course>
  <speed>1.4003570973148243</speed>
  <fix>3d</fix>
</trkpt>
<trkpt lat="40.07123" lon="-105.2293433">
  <ele>1583.0</ele>
  <time>2026-08-28T17:53:22Z</time>
  <course>225.61</course>
  <speed>1.41</speed>
  <fix>3d</fix>
</trkpt>
<trkpt lat="40.0712272" lon="-105.2293472">
  <ele>1583.12</ele>
  <time>2026-08-28T17:53:22Z</time>
  <course>227.88</course>
  <speed>1.3803260484392808</speed>
  <fix>3d</fix>
</trkpt>
<trkpt lat="40.0712283" lon="-105.2293457">
  <ele>1583.0</ele>
  <time>2026-08-28T17:53:22Z</time>
  <course>226.77</course>
  <speed>1.4</speed>
  <fix>3d</fix>
</trkpt>
<trkpt lat="40.0712264" lon="-105.2293485">
  <ele>1583.12</ele>
  <time>2026-08-28T17:53:22Z</time>
  <course>230.66</course>
  <speed>1.3495184326269871</speed>
  <fix>3d</fix>
</trkpt>
<trkpt lat="40.0712283" lon="-105.2293457">
  <ele>1583.0</ele>
  <time>2026-08-28T17:53:22Z</time>
  <course>226.77</course>
  <speed>1.4</speed>
  <fix>3d</fix>
</trkpt>
<trkpt lat="40.0712257" lon="-105.2293497">
  <ele>1583.12</ele>
  <time>2026-08-28T17:53:22Z</time>
  <course>234.51</course>
  <speed>1.2961867149450343</speed>
  <fix>3d</fix>
</trkpt>
<trkpt lat="40.0712267" lon="-105.2293482">
  <ele>1583.0</ele>
  <time>2026-08-28T17:53:22Z</time>
  <course>231.13</course>
  <speed>1.34</speed>
  <fix>3d</fix>
</trkpt>
<trkpt lat="40.071225" lon="-105.2293509">
  <ele>1583.12</ele>
  <time>2026-08-28T17:53:22Z</time>
  <course>239.38</course>
  <speed>1.233085560697229</speed>
  <fix>3d</fix>
</trkpt>
<trkpt lat="40.0712267" lon="-105.2293482">
  <ele>1583.0</ele>
  <time>2026-08-28T17:53:22Z</time>
  <course>231.13</course>
  <speed>1.34</speed>
  <fix>3d</fix>
</trkpt>
<trkpt lat="40.0712245" lon="-105.2293522">
  <ele>1583.12</ele>
  <time>2026-08-28T17:53:22Z</time>
  <course>245.3</course>
  <speed>1.1587061750072793</speed>
  <fix>3d</fix>
</trkpt>
<trkpt lat="40.0712253" lon="-105.2293507">
  <ele>1583.0</ele>
  <time>2026-08-28T17:53:22Z</time>
  <course>239.69</course>
  <speed>1.23</speed>
  <fix>3d</fix>
</trkpt>
<trkpt lat="40.0712242" lon="-105.2293534">
  <ele>1583.12</ele>
  <time>2026-08-28T17:53:22Z</time>
  <course>252.12</course>
  <speed>1.0625441167311596</speed>
  <fix>3d</fix>
</trkpt>
<trkpt lat="40.0712253" lon="-105.2293507">
  <ele>1583.0</ele>
  <time>2026-08-28T17:53:22Z</time>
  <course>239.69</course>
  <speed>1.23</speed>
  <fix>3d</fix>
</trkpt>
<trkpt lat="40.071224" lon="-105.2293546">
  <ele>1583.12</ele>
  <time>2026-08-28T17:53:22Z</time>
  <course>258.71</course>
  <speed>0.9688137075826292</speed>
  <fix>3d</fix>
</trkpt>
<trkpt lat="40.0712245" lon="-105.2293531">
  <ele>1583.0</ele>
  <time>2026-08-28T17:53:22Z</time>
  <course>251.57</course>
  <speed>1.06</speed>
  <fix>3d</fix>
</trkpt>
<trkpt lat="40.0712239" lon="-105.2293557">
  <ele>1583.12</ele>
  <time>2026-08-28T17:53:22Z</time>
  <course>264.72</course>
  <speed>0.8637129152675673</speed>
  <fix>3d</fix>
</trkpt>
<trkpt lat="40.0712245" lon="-105.2293531">
  <ele>1583.0</ele>
  <time>2026-08-28T17:53:22Z</time>
  <course>251.57</course>
  <speed>1.06</speed>
  <fix>3d</fix>
</trkpt>
<trkpt lat="40.0712239" lon="-105.2293566">
  <ele>1583.12</ele>
  <time>2026-08-28T17:53:22Z</time>
  <course>270.0</course>
  <speed>0.75</speed>
  <fix>3d</fix>
</trkpt>
<trkpt lat="40.0712241" lon="-105.2293554">
  <ele>1583.0</ele>
  <time>2026-08-28T17:53:22Z</time>
  <course>263.77</course>
  <speed>0.87</speed>
  <fix>3d</fix>
</trkpt>
<trkpt lat="40.0712239" lon="-105.2293575">
  <ele>1583.12</ele>
  <time>2026-08-28T17:53:22Z</time>
  <course>274.56</course>
  <speed>0.6319810123729984</speed>
  <fix>3d</fix>
</trkpt>
<trkpt lat="40.0712241" lon="-105.2293554">
  <ele>1583.0</ele>
  <time>2026-08-28T17:53:22Z</time>
  <course>263.77</course>
  <speed>0.87</speed>
  <fix>3d</fix>
</trkpt>
<trkpt lat="40.071224" lon="-105.2293583">
  <ele>1583.12</ele>
  <time>2026-08-28T17:53:22Z</time>
  <course>279.04</course>
  <speed>0.4850773134253961</speed>
  <fix>3d</fix>
</trkpt>
<trkpt lat="40.0712241" lon="-105.2293572">
  <ele>1583.0</ele>
  <time>2026-08-28T17:53:22Z</time>
  <course>273.51</course>
  <speed>0.65</speed>
  <fix>3d</fix>
</trkpt>
<trkpt lat="40.0712241" lon="-105.2293587">
  <ele>1583.12</ele>
  <time>2026-08-28T17:53:22Z</time>
  <course>281.91</course>
  <speed>0.356931365951495</speed>
  <fix>3d</fix>
</trkpt>
<trkpt lat="40.0712241" lon="-105.2293572">
  <ele>1583.0</ele>
  <time>2026-08-28T17:53:22Z</time>
  <course>273.51</course>
  <speed>0.65</speed>
  <fix>3d</fix>
</trkpt>
<trkpt lat="40.0712242" lon="-105.2293591">
  <ele>1583.12</ele>
  <time>2026-08-28T17:53:22Z</time>
  <course>283.98</course>
  <speed>0.2353720459187964</speed>
  <fix>3d</fix>
</trkpt>
<trkpt lat="40.0712241" lon="-105.2293584">
  <ele>1583.0</ele>
  <time>2026-08-28T17:53:22Z</time>
  <course>280.27</course>
  <speed>0.41</speed>
  <fix>3d</fix>
</trkpt>
<trkpt lat="40.0712243" lon="-105.2293593">
  <ele>1583.12</ele>
  <time>2026-08-28T17:53:22Z</time>
  <course>285.24</course>
  <speed>0.1044030650891055</speed>
  <fix>3d</fix>
</trkpt>
<trkpt lat="40.0712241" lon="-105.2293584">
  <ele>1583.0</ele>
  <time>2026-08-28T17:53:22Z</time>
  <course>280.27</course>
  <speed>0.41</speed>
  <fix>3d</fix>
</trkpt>
<trkpt lat="40.0712243" lon="-105.2293593">
  <ele>1583.12</ele>
  <time>2026-08-28T17:53:22Z</time>
  <course>285.83</course>
  <speed>0.0316227766016838</speed>
  <fix>3d</fix>
</trkpt>
<trkpt lat="40.0712242" lon="-105.2293591">
  <ele>1583.0</ele>
  <time>2026-08-28T17:53:22Z</time>
  <course>284.12</course>
  <speed>0.17</speed>
  <fix>3d</fix>
</trkpt>
<trkpt lat="40.0712243" lon="-105.2293593">
  <ele>1583.12</ele>
  <time>2026-08-28T17:53:22Z</time>
  <course>286.22</course>
  <speed>0.03</speed>
  <fix>3d</fix>
</trkpt>
<trkpt lat="40.0712242" lon="-105.2293591">
  <ele>1583.0</ele>
  <time>2026-08-28T17:53:22Z</time>
  <course>284.12</course>
  <speed>0.17</speed>
  <fix>3d</fix>
</trkpt>
<trkpt lat="40.0712243" lon="-105.2293594">
  <ele>1583.12</ele>
  <time>2026-08-28T17:53:22Z</time>
  <course>286.59</course>
  <speed>0.02</speed>
  <fix>3d</fix>
</trkpt>
<trkpt lat="40.0712243" lon="-105.2293593">
  <ele>1583.0</ele>
  <time>2026-08-28T17:53:22Z</time>
  <course>286.16</course>
  <speed>0.06</speed>
  <fix>3d</fix>
</trkpt>
<trkpt lat="40.0712243" lon="-105.2293594">
  <ele>1583.12</ele>
  <time>2026-08-28T17:53:22Z</time>
  <course>286.94</course>
  <speed>0.02</speed>
  <fix>3d</fix>
</trkpt>
<trkpt lat="40.0712243" lon="-105.2293593">
  <ele>1583.0</ele>
  <time>2026-08-28T17:53:22Z</time>
  <course>286.16</course>
  <speed>0.06</speed>
  <fix>3d</fix>
</trkpt>
<trkpt lat="40.0712243" lon="-105.2293594">
  <ele>1583.12</ele>
  <time>2026-08-28T17:53:22Z</time>
  <course>287.27</course>
  <speed>0.02</speed>
  <fix>3d</fix>
</trkpt>
<trkpt lat="40.0712243" lon="-105.2293594">
  <ele>1583.0</ele>
  <time>2026-08-28T17:53:22Z</time>
  <course>286.92</course>
  <speed>0.05</speed>
  <fix>3d</fix>
</trkpt>
<trkpt lat="40.0712243" lon="-105.2293595">
  <ele>1583.12</ele>
  <time>2026-08-28T17:53:22Z</time>
  <course>287.59</course>
  <speed>0.01</speed>
  <fix>3d</fix>
</trkpt>
<trkpt lat="40.0712243" lon="-105.2293594">
  <ele>1583.0</ele>
  <time>2026-08-28T17:53:22Z</time>
  <course>286.92</course>
  <speed>0.05</speed>
  <fix>3d</fix>
</trkpt>
<trkpt lat="40.0712243" lon="-105.2293595">
  <ele>1583.12</ele>
  <time>2026-08-28T17:53:22Z</time>
  <course>287.89</course>
  <speed>0.01</speed>
  <fix>3d</fix>
</trkpt>
<trkpt lat="40.0712244" lon="-105.2293596">
  <ele>1583.0</ele>
  <time>2026-08-28T17:53:22Z</time>
  <course>287.59</course>
  <speed>0.04</speed>
  <fix>3d</fix>
</trkpt>
<trkpt lat="40.0712243" lon="-105.2293595">
  <ele>1583.12</ele>
  <time>2026-08-28T17:53:22Z</time>
  <course>288.12</course>
  <speed>0.01</speed>
  <fix>3d</fix>
</trkpt>
<trkpt lat="40.0712244" lon="-105.2293596">
  <ele>1583.0</ele>
  <time>2026-08-28T17:53:22Z</time>
  <course>287.59</course>
  <speed>0.04</speed>
  <fix>3d</fix>
</trkpt>
<trkpt lat="40.0712243" lon="-105.2293595">
  <ele>1583.11</ele>
  <time>2026-08-28T17:53:22Z</time>
  <course>288.39</course>
  <speed>0.01</speed>
  <fix>3d</fix>
</trkpt>
<trkpt lat="40.0712244" lon="-105.2293597">
  <ele>1583.0</ele>
  <time>2026-08-28T17:53:22Z</time>
  <course>288.19</course>
  <speed>0.04</speed>
  <fix>3d</fix>
</trkpt>
<trkpt lat="40.0712243" lon="-105.2293596">
  <ele>1583.11</ele>
  <time>2026-08-28T17:53:22Z</time>
  <course>288.65</course>
  <speed>0.01</speed>
  <fix>3d</fix>
</trkpt>
<trkpt lat="40.0712244" lon="-105.2293597">
  <ele>1583.0</ele>
  <time>2026-08-28T17:53:22Z</time>
  <course>288.19</course>
  <speed>0.04</speed>
  <fix>3d</fix>
</trkpt>
<trkpt lat="40.0712243" lon="-105.2293596">
  <ele>1583.11</ele>
  <time>2026-08-28T17:53:22Z</time>
  <course>288.9</course>
  <speed>0.01</speed>
  <fix>3d</fix>
</trkpt>
<trkpt lat="40.0712244" lon="-105.2293598">
  <ele>1583.0</ele>
  <time>2026-08-28T17:53:22Z</time>
  <course>288.73</course>
  <speed>0.04</speed>
  <fix>3d</fix>
</trkpt>
<trkpt lat="40.0712243" lon="-105.2293597">
  <ele>1583.11</ele>
  <time>2026-08-28T17:53:22Z</time>
  <course>289.13</course>
  <speed>0.01</speed>
  <fix>3d</fix>
</trkpt>
<trkpt lat="40.0712244" lon="-105.2293598">
  <ele>1583.0</ele>
  <time>2026-08-28T17:53:22Z</time>
  <course>288.73</course>
  <speed>0.04</speed>
  <fix>3d</fix>
</trkpt>
<trkpt lat="40.0712243" lon="-105.2293597">
  <ele>1583.11</ele>
  <time>2026-08-28T17:53:22Z</time>
  <course>289.35</course>
  <speed>0.01</speed>
  <fix>3d</fix>
</trkpt>
<trkpt lat="40.0712244" lon="-105.2293598">
  <ele>1583.0</ele>
  <time>2026-08-28T17:53:22Z</time>
  <course>289.22</course>
  <speed>0.03</speed>
  <fix>3d</fix>
</trkpt>
<trkpt lat="40.0712243" lon="-105.2293597">
  <ele>1583.12</ele>
  <time>2026-08-28T17:53:22Z</time>
  <course>289.57</course>
  <speed>0.01</speed>
  <fix>3d</fix>
</trkpt>
<trkpt lat="40.0712244" lon="-105.2293598">
  <ele>1583.0</ele>
  <time>2026-08-28T17:53:22Z</time>
  <course>289.22</course>
  <speed>0.03</speed>
  <fix>3d</fix>
</trkpt>
<trkpt lat="40.0712243" lon="-105.2293597">
  <ele>1583.12</ele>
  <time>2026-08-28T17:53:22Z</time>
  <course>289.77</course>
  <speed>0.01</speed>
  <fix>3d</fix>
</trkpt>
<trkpt lat="40.0712245" lon="-105.2293599">
  <ele>1583.0</ele>
  <time>2026-08-28T17:53:22Z</time>
  <course>289.66</course>
  <speed>0.03</speed>
  <fix>3d</fix>
</trkpt>
<trkpt lat="40.0712243" lon="-105.2293598">
  <ele>1583.12</ele>
  <time>2026-08-28T17:53:22Z</time>
  <course>289.96</course>
  <speed>0.01</speed>
  <fix>3d</fix>
</trkpt>
<trkpt lat="40.0712245" lon="-105.2293599">
  <ele>1583.0</ele>
  <time>2026-08-28T17:53:22Z</time>
  <course>289.66</course>
  <speed>0.03</speed>
  <fix>3d</fix>
</trkpt>
<trkpt lat="40.0712243" lon="-105.2293598">
  <ele>1583.12</ele>
  <time>2026-08-28T17:53:22Z</time>
  <course>290.18</course>
  <speed>0.01</speed>
  <fix>3d</fix>
</trkpt>
<trkpt lat="40.0712245" lon="-105.22936">
  <ele>1583.0</ele>
  <time>2026-08-28T17:53:22Z</time>
  <course>290.06</course>
  <speed>0.03</speed>
  <fix>3d</fix>
</trkpt>
<trkpt lat="40.0712243" lon="-105.2293598">
  <ele>1583.12</ele>
  <time>2026-08-28T17:53:22Z</time>
  <course>290.35</course>
  <speed>0.01</speed>
  <fix>3d</fix>
</trkpt>
<trkpt lat="40.0712245" lon="-105.22936">
  <ele>1583.0</ele>
  <time>2026-08-28T17:53:22Z</time>
  <course>290.06</course>
  <speed>0.03</speed>
  <fix>3d</fix>
</trkpt>
<trkpt lat="40.0712243" lon="-105.2293599">
  <ele>1583.12</ele>
  <time>2026-08-28T17:53:22Z</time>
  <course>290.51</course>
  <speed>0.01</speed>
  <fix>3d</fix>
</trkpt>
<trkpt lat="40.0712245" lon="-105.22936">
  <ele>1583.0</ele>
  <time>2026-08-28T17:53:22Z</time>
  <course>290.43</course>
  <speed>0.02</speed>
  <fix>3d</fix>
</trkpt>
<trkpt lat="40.0712243" lon="-105.2293599">
  <ele>1583.12</ele>
  <time>2026-08-28T17:53:22Z</time>
  <course>290.67</course>
  <speed>0.01</speed>
  <fix>3d</fix>
</trkpt>
<trkpt lat="40.0712245" lon="-105.22936">
  <ele>1583.0</ele>
  <time>2026-08-28T17:53:22Z</time>
  <course>290.43</course>
  <speed>0.02</speed>
  <fix>3d</fix>
</trkpt>
<trkpt lat="40.0712243" lon="-105.2293599">
  <ele>1583.12</ele>
  <time>2026-08-28T17:53:22Z</time>
  <course>290.81</course>
  <speed>0.01</speed>
  <fix>3d</fix>
</trkpt>
<trkpt lat="40.0712245" lon="-105.2293601">
  <ele>1583.0</ele>
  <time>2026-08-28T17:53:22Z</time>
  <course>290.76</course>
  <speed>0.02</speed>
  <fix>3d</fix>
</trkpt>
<trkpt lat="40.0712244" lon="-105.22936">
  <ele>1583.12</ele>
  <time>2026-08-28T17:53:22Z</time>
  <course>290.95</course>
  <speed>0.01414213562373095</speed>
  <fix>3d</fix>
</trkpt>
<trkpt lat="40.0712245" lon="-105.2293601">
  <ele>1583.0</ele>
  <time>2026-08-28T17:53:22Z</time>
  <course>290.76</course>
  <speed>0.02</speed>
  <fix>3d</fix>
</trkpt>
<trkpt lat="40.0712244" lon="-105.22936">
  <ele>1583.12</ele>
  <time>2026-08-28T17:53:22Z</time>
  <course>291.09</course>
  <speed>0.01414213562373095</speed>
  <fix>3d</fix>
</trkpt>
<trkpt lat="40.0712245" lon="-105.2293602">
  <ele>1583.0</ele>
  <time>2026-08-28T17:53:22Z</time>
  <course>291.05</course>
  <speed>0.02</speed>
  <fix>3d</fix>
</trkpt>
<trkpt lat="40.0712244" lon="-105.22936">
  <ele>1583.12</ele>
  <time>2026-08-28T17:53:22Z</time>
  <course>291.21</course>
  <speed>0.01414213562373095</speed>
  <fix>3d</fix>
</trkpt>
<trkpt lat="40.0712245" lon="-105.2293602">
  <ele>1583.0</ele>
  <time>2026-08-28T17:53:22Z</time>
  <course>291.05</course>
  <speed>0.02</speed>
  <fix>3d</fix>
</trkpt>
<trkpt lat="40.0712244" lon="-105.2293601">
  <ele>1583.12</ele>
  <time>2026-08-28T17:53:22Z</time>
  <course>291.33</course>
  <speed>0.01414213562373095</speed>
  <fix>3d</fix>
</trkpt>
<trkpt lat="40.0712245" lon="-105.2293602">
  <ele>1583.0</ele>
  <time>2026-08-28T17:53:22Z</time>
  <course>291.32</course>
  <speed>0.02</speed>
  <fix>3d</fix>
</trkpt>
<trkpt lat="40.0712244" lon="-105.2293601">
  <ele>1583.12</ele>
  <time>2026-08-28T17:53:22Z</time>
  <course>291.45</course>
  <speed>0.01414213562373095</speed>
  <fix>3d</fix>
</trkpt>
<trkpt lat="40.0712245" lon="-105.2293602">
  <ele>1583.0</ele>
  <time>2026-08-28T17:53:22Z</time>
  <course>291.32</course>
  <speed>0.02</speed>
  <fix>3d</fix>
</trkpt>
<trkpt lat="40.0712244" lon="-105.2293601">
  <ele>1583.12</ele>
  <time>2026-08-28T17:53:22Z</time>
  <course>291.56</course>
  <speed>0.01414213562373095</speed>
  <fix>3d</fix>
</trkpt>
<trkpt lat="40.0712246" lon="-105.2293603">
  <ele>1583.0</ele>
  <time>2026-08-28T17:53:22Z</time>
  <course>291.56</course>
  <speed>0.01</speed>
  <fix>3d</fix>
</trkpt>
<trkpt lat="40.0712244" lon="-105.2293601">
  <ele>1583.12</ele>
  <time>2026-08-28T17:53:22Z</time>
  <course>291.64</course>
  <speed>0.01414213562373095</speed>
  <fix>3d</fix>
</trkpt>
<trkpt lat="40.0712246" lon="-105.2293603">
  <ele>1583.0</ele>
  <time>2026-08-28T17:53:22Z</time>
  <course>291.56</course>
  <speed>0.01</speed>
  <fix>3d</fix>
</trkpt>
<trkpt lat="40.0712244" lon="-105.2293602">
  <ele>1583.12</ele>
  <time>2026-08-28T17:53:22Z</time>
  <course>291.74</course>
  <speed>0.01414213562373095</speed>
  <fix>3d</fix>
</trkpt>
<trkpt lat="40.0712246" lon="-105.2293603">
  <ele>1583.0</ele>
  <time>2026-08-28T17:53:22Z</time>
  <course>291.78</course>
  <speed>0.01</speed>
  <fix>3d</fix>
</trkpt>
<trkpt lat="40.0712244" lon="-105.2293602">
  <ele>1583.12</ele>
  <time>2026-08-28T17:53:22Z</time>
  <course>291.83</course>
  <speed>0.01414213562373095</speed>
  <fix>3d</fix>
</trkpt>
<trkpt lat="40.0712246" lon="-105.2293603">
  <ele>1583.0</ele>
  <time>2026-08-28T17:53:22Z</time>
  <course>291.78</course>
  <speed>0.01</speed>
  <fix>3d</fix>
</trkpt>
<trkpt lat="40.0712244" lon="-105.2293602">
  <ele>1583.12</ele>
  <time>2026-08-28T17:53:22Z</time>
  <course>291.92</course>
  <speed>0.01414213562373095</speed>
  <fix>3d</fix>
</trkpt>
<trkpt lat="40.0712246" lon="-105.2293603">
  <ele>1583.0</ele>
  <time>2026-08-28T17:53:22Z</time>
  <course>291.97</course>
  <speed>0.01</speed>
  <fix>3d</fix>
</trkpt>
<trkpt lat="40.0712244" lon="-105.2293603">
  <ele>1583.12</ele>
  <time>2026-08-28T17:53:22Z</time>
  <course>292.0</course>
  <speed>0.01414213562373095</speed>
  <fix>3d</fix>
</trkpt>
<trkpt lat="40.0712246" lon="-105.2293603">
  <ele>1583.0</ele>
  <time>2026-08-28T17:53:22Z</time>
  <course>291.97</course>
  <speed>0.01</speed>
  <fix>3d</fix>
</trkpt>
<trkpt lat="40.0712244" lon="-105.2293603">
  <ele>1583.12</ele>
  <time>2026-08-28T17:53:22Z</time>
  <course>292.08</course>
  <speed>0.01414213562373095</speed>
  <fix>3d</fix>
</trkpt>
<trkpt lat="40.0712246" lon="-105.2293603">
  <ele>1583.0</ele>
  <time>2026-08-28T17:53:22Z</time>
  <course>292.15</course>
  <speed>0.01</speed>
  <fix>3d</fix>
</trkpt>
<trkpt lat="40.0712244" lon="-105.2293603">
  <ele>1583.12</ele>
  <time>2026-08-28T17:53:22Z</time>
  <course>292.16</course>
  <speed>0.01414213562373095</speed>
  <fix>3d</fix>
</trkpt>
<trkpt lat="40.0712246" lon="-105.2293603">
  <ele>1583.0</ele>
  <time>2026-08-28T17:53:22Z</time>
  <course>292.15</course>
  <speed>0.01</speed>
  <fix>3d</fix>
</trkpt>
<trkpt lat="40.0712244" lon="-105.2293603">
  <ele>1583.12</ele>
  <time>2026-08-28T17:53:22Z</time>
  <course>292.23</course>
  <speed>0.01414213562373095</speed>
  <fix>3d</fix>
</trkpt>
<trkpt lat="40.0712246" lon="-105.2293604">
  <ele>1583.0</ele>
  <time>2026-08-28T17:53:22Z</time>
  <course>292.31</course>
  <speed>0.01</speed>
  <fix>3d</fix>
</trkpt>
<trkpt lat="40.0712244" lon="-105.2293604">
  <ele>1583.12</ele>
  <time>2026-08-28T17:53:22Z</time>
  <course>292.3</course>
  <speed>0.022360679774997897</speed>
  <fix>3d</fix>
</trkpt>
<trkpt lat="40.0712246" lon="-105.2293604">
  <ele>1583.0</ele>
  <time>2026-08-28T17:53:22Z</time>
  <course>292.31</course>
  <speed>0.01</speed>
  <fix>3d</fix>
</trkpt>
<trkpt lat="40.0712244" lon="-105.2293604">
  <ele>1583.12</ele>
  <time>2026-08-28T17:53:22Z</time>
  <course>292.37</course>
  <speed>0.022360679774997897</speed>
  <fix>3d</fix>
</trkpt>
<trkpt lat="40.0712246" lon="-105.2293605">
  <ele>1583.0</ele>
  <time>2026-08-28T17:53:22Z</time>
  <course>292.45</course>
  <speed>0.01</speed>
  <fix>3d</fix>
</trkpt>
<trkpt lat="40.0712244" lon="-105.2293604">
  <ele>1583.12</ele>
  <time>2026-08-28T17:53:22Z</time>
  <course>292.44</course>
  <speed>0.022360679774997897</speed>
  <fix>3d</fix>
</trkpt>
<trkpt lat="40.0712246" lon="-105.2293605">
  <ele>1583.0</ele>
  <time>2026-08-28T17:53:22Z</time>
  <course>292.45</course>
  <speed>0.01</speed>
  <fix>3d</fix>
</trkpt>
<trkpt lat="40.0712244" lon="-105.2293604">
  <ele>1583.12</ele>
  <time>2026-08-28T17:53:22Z</time>
  <course>292.5</course>
  <speed>0.022360679774997897</speed>
  <fix>3d</fix>
</trkpt>
<trkpt lat="40.0712246" lon="-105.2293605">
  <ele>1583.0</ele>
  <time>2026-08-28T17:53:22Z</time>
  <course>292.58</course>
  <speed>0.01</speed>
  <fix>3d</fix>
</trkpt>
<trkpt lat="40.0712244" lon="-105.2293605">
  <ele>1583.12</ele>
  <time>2026-08-28T17:53:22Z</time>
  <course>292.56</course>
  <speed>0.022360679774997897</speed>
  <fix>3d</fix>
</trkpt>
<trkpt lat="40.0712246" lon="-105.2293605">
  <ele>1583.0</ele>
  <time>2026-08-28T17:53:22Z</time>
  <course>292.58</course>
  <speed>0.01</speed>
  <fix>3d</fix>
</trkpt>
<trkpt lat="40.0712244" lon="-105.2293605">
  <ele>1583.13</ele>
  <time>2026-08-28T17:53:22Z</time>
  <course>292.61</course>
  <speed>0.022360679774997897</speed>
  <fix>3d</fix>
</trkpt>
<trkpt lat="40.0712246" lon="-105.2293605">
  <ele>1583.0</ele>
  <time>2026-08-28T17:53:22Z</time>
  <course>292.69</course>
  <speed>0.0</speed>
  <fix>3d</fix>
</trkpt>
<trkpt lat="40.0712245" lon="-105.2293605">
  <ele>1583.13</ele>
  <time>2026-08-28T17:53:22Z</time>
  <course>292.66</course>
  <speed>0.022360679774997897</speed>
  <fix>3d</fix>
</trkpt>
<trkpt lat="40.0712246" lon="-105.2293605">
  <ele>1583.0</ele>
  <time>2026-08-28T17:53:22Z</time>
  <course>292.69</course>
  <speed>0.0</speed>
  <fix>3d</fix>
</trkpt>
<trkpt lat="40.0712245" lon="-105.2293606">
  <ele>1583.13</ele>
  <time>2026-08-28T17:53:22Z</time>
  <course>292.72</course>
  <speed>0.03</speed>
  <fix>3d</fix>
</trkpt>
<trkpt lat="40.0712246" lon="-105.2293605">
  <ele>1583.0</ele>
  <time>2026-08-28T17:53:22Z</time>
  <course>292.82</course>
  <speed>0.0</speed>
  <fix>3d</fix>
</trkpt>
<trkpt lat="40.0712245" lon="-105.2293606">
  <ele>1583.12</ele>
  <time>2026-08-28T17:53:22Z</time>
  <course>292.85</course>
  <speed>0.05</speed>
  <fix>3d</fix>
</trkpt>
<trkpt lat="40.0712246" lon="-105.2293605">
  <ele>1583.0</ele>
  <time>2026-08-28T17:53:22Z</time>
  <course>292.82</course>
  <speed>0.0</speed>
  <fix>3d</fix>
</trkpt>
<trkpt lat="40.0712245" lon="-105.2293607">
  <ele>1583.12</ele>
  <time>2026-08-28T17:53:22Z</time>
  <course>293.17</course>
  <speed>0.08062257748298549</speed>
  <fix>3d</fix>
</trkpt>
<trkpt lat="40.0712246" lon="-105.2293605">
  <ele>1583.0</ele>
  <time>2026-08-28T17:53:22Z</time>
  <course>293.26</course>
  <speed>0.03</speed>
  <fix>3d</fix>
</trkpt>
<trkpt lat="40.0712245" lon="-105.2293608">
  <ele>1583.12</ele>
  <time>2026-08-28T17:53:22Z</time>
  <course>293.76</course>
  <speed>0.13341664064126335</speed>
  <fix>3d</fix>
</trkpt>
<trkpt lat="40.0712246" lon="-105.2293605">
  <ele>1583.0</ele>
  <time>2026-08-28T17:53:22Z</time>
  <course>293.26</course>
  <speed>0.03</speed>
  <fix>3d</fix>
</trkpt>
<trkpt lat="40.0712246" lon="-105.229361">
  <ele>1583.12</ele>
  <time>2026-08-28T17:53:22Z</time>
  <course>294.72</course>
  <speed>0.19924858845171275</speed>
  <fix>3d</fix>
</trkpt>
<trkpt lat="40.0712246" lon="-105.2293607">
  <ele>1583.0</ele>
  <time>2026-08-28T17:53:22Z</time>
  <course>294.37</course>
  <speed>0.11</speed>
  <fix>3d</fix>
</trkpt>
<trkpt lat="40.0712247" lon="-105.2293612">
  <ele>1583.11</ele>
  <time>2026-08-28T17:53:22Z</time>
  <course>296.11</course>
  <speed>0.2692582403567252</speed>
  <fix>3d</fix>
</trkpt>
<trkpt lat="40.0712246" lon="-105.2293607">
  <ele>1583.0</ele>
  <time>2026-08-28T17:53:22Z</time>
  <course>294.37</course>
  <speed>0.11</speed>
  <fix>3d</fix>
</trkpt>
<trkpt lat="40.0712248" lon="-105.2293615">
  <ele>1583.11</ele>
  <time>2026-08-28T17:53:22Z</time>
  <course>297.61</course>
  <speed>0.340147027033899</speed>
  <fix>3d</fix>
</trkpt>
<trkpt lat="40.0712247" lon="-105.2293611">
  <ele>1583.0</ele>
  <time>2026-08-28T17:53:22Z</time>
  <course>296.81</course>
  <speed>0.24</speed>
  <fix>3d</fix>
</trkpt>
<trkpt lat="40.0712249" lon="-105.2293619">
  <ele>1583.11</ele>
  <time>2026-08-28T17:53:22Z</time>
  <course>299.98</course>
  <speed>0.4382921400162225</speed>
  <fix>3d</fix>
</trkpt>
<trkpt lat="40.0712247" lon="-105.2293611">
  <ele>1583.0</ele>
  <time>2026-08-28T17:53:22Z</time>
  <course>296.81</course>
  <speed>0.24</speed>
  <fix>3d</fix>
</trkpt>
<trkpt lat="40.0712251" lon="-105.2293624">
  <ele>1583.11</ele>
  <time>2026-08-28T17:53:22Z</time>
  <course>302.98</course>
  <speed>0.5333854141237835</speed>
  <fix>3d</fix>
</trkpt>
<trkpt lat="40.071225" lon="-105.2293617">
  <ele>1583.0</ele>
  <time>2026-08-28T17:53:22Z</time>
  <course>301.18</course>
  <speed>0.42</speed>
  <fix>3d</fix>
</trkpt>
<trkpt lat="40.0712255" lon="-105.229363">
  <ele>1583.11</ele>
  <time>2026-08-28T17:53:22Z</time>
  <course>306.62</course>
  <speed>0.6463745044476924</speed>
  <fix>3d</fix>
</trkpt>
<trkpt lat="40.071225" lon="-105.2293617">
  <ele>1583.0</ele>
  <time>2026-08-28T17:53:22Z</time>
  <course>301.18</course>
  <speed>0.42</speed>
  <fix>3d</fix>
</trkpt>
<trkpt lat="40.0712259" lon="-105.2293636">
  <ele>1583.11</ele>
  <time>2026-08-28T17:53:22Z</time>
  <course>311.0</course>
  <speed>0.7605918747922567</speed>
  <fix>3d</fix>
</trkpt>
<trkpt lat="40.0712256" lon="-105.2293627">
  <ele>1583.0</ele>
  <time>2026-08-28T17:53:22Z</time>
  <course>307.99</course>
  <speed>0.63</speed>
  <fix>3d</fix>
</trkpt>
<trkpt lat="40.0712264" lon="-105.2293643">
  <ele>1583.11</ele>
  <time>2026-08-28T17:53:22Z</time>
  <course>316.05</course>
  <speed>0.8556284240252892</speed>
  <fix>3d</fix>
</trkpt>
<trkpt lat="40.0712256" lon="-105.2293627">
  <ele>1583.0</ele>
  <time>2026-08-28T17:53:22Z</time>
  <course>307.99</course>
  <speed>0.63</speed>
  <fix>3d</fix>
</trkpt>
<trkpt lat="40.071227" lon="-105.2293651">
  <ele>1583.11</ele>
  <time>2026-08-28T17:53:22Z</time>
  <course>321.71</course>
  <speed>0.9513148795220223</speed>
  <fix>3d</fix>
</trkpt>
<trkpt lat="40.0712265" lon="-105.2293641">
  <ele>1583.0</ele>
  <time>2026-08-28T17:53:22Z</time>
  <course>317.29</course>
  <speed>0.83</speed>
  <fix>3d</fix>
</trkpt>
<trkpt lat="40.0712278" lon="-105.2293657">
  <ele>1583.11</ele>
  <time>2026-08-28T17:53:22Z</time>
  <course>327.89</course>
  <speed>1.0178899744078433</speed>
  <fix>3d</fix>
</trkpt>
<trkpt lat="40.0712265" lon="-105.2293641">
  <ele>1583.0</ele>
  <time>2026-08-28T17:53:22Z</time>
  <course>317.29</course>
  <speed>0.83</speed>
  <fix>3d</fix>
</trkpt>
<trkpt lat="40.0712286" lon="-105.2293664">
  <ele>1583.11</ele>
  <time>2026-08-28T17:53:22Z</time>
  <course>334.58</course>
  <speed>1.0867382389517726</speed>
  <fix>3d</fix>
</trkpt>
<trkpt lat="40.0712278" lon="-105.2293654">
  <ele>1583.0</ele>
  <time>2026-08-28T17:53:22Z</time>
  <course>328.92</course>
  <speed>0.99</speed>
  <fix>3d</fix>
</trkpt>
<trkpt lat="40.0712296" lon="-105.2293668">
  <ele>1583.11</ele>
  <time>2026-08-28T17:53:22Z</time>
  <course>341.62</course>
  <speed>1.1354734695271396</speed>
  <fix>3d</fix>
</trkpt>
<trkpt lat="40.0712278" lon="-105.2293654">
  <ele>1583.0</ele>
  <time>2026-08-28T17:53:22Z</time>
  <course>328.92</course>
  <speed>0.99</speed>
  <fix>3d</fix>
</trkpt>
<trkpt lat="40.0712308" lon="-105.2293672">
  <ele>1583.11</ele>
  <time>2026-08-28T17:53:22Z</time>
  <course>350.46</course>
  <speed>1.190504094911059</speed>
  <fix>3d</fix>
</trkpt>
<trkpt lat="40.0712296" lon="-105.2293664">
  <ele>1583.0</ele>
  <time>2026-08-28T17:53:22Z</time>
  <course>342.38</course>
  <speed>1.11</speed>
  <fix>3d</fix>
</trkpt>
<trkpt lat="40.071232" lon="-105.2293674">
  <ele>1583.11</ele>
  <time>2026-08-28T17:53:22Z</time>
  <course>358.11</course>
  <speed>1.2214745187681977</speed>
  <fix>3d</fix>
</trkpt>
<trkpt lat="40.0712296" lon="-105.2293664">
  <ele>1583.0</ele>
  <time>2026-08-28T17:53:22Z</time>
  <course>342.38</course>
  <speed>1.11</speed>
  <fix>3d</fix>
</trkpt>
<trkpt lat="40.0712331" lon="-105.2293673">
  <ele>1583.11</ele>
  <time>2026-08-28T17:53:22Z</time>
  <course>5.94</course>
  <speed>1.244025723206719</speed>
  <fix>3d</fix>
</trkpt>
<trkpt lat="40.0712316" lon="-105.2293669">
  <ele>1583.0</ele>
  <time>2026-08-28T17:53:22Z</time>
  <course>357.15</course>
  <speed>1.19</speed>
  <fix>3d</fix>
</trkpt>
<trkpt lat="40.0712342" lon="-105.229367">
  <ele>1583.11</ele>
  <time>2026-08-28T17:53:22Z</time>
  <course>13.91</course>
  <speed>1.2495199078045935</speed>
  <fix>3d</fix>
</trkpt>
<trkpt lat="40.0712316" lon="-105.2293669">
  <ele>1583.0</ele>
  <time>2026-08-28T17:53:22Z</time>
  <course>357.15</course>
  <speed>1.19</speed>
  <fix>3d</fix>
</trkpt>
<trkpt lat="40.0712353" lon="-105.2293665">
  <ele>1583.11</ele>
  <time>2026-08-28T17:53:22Z</time>
  <course>21.96</course>
  <speed>1.2628935030318273</speed>
  <fix>3d</fix>
</trkpt>
<trkpt lat="40.0712338" lon="-105.2293666">
  <ele>1583.0</ele>
  <time>2026-08-28T17:53:22Z</time>
  <course>12.78</course>
  <speed>1.24</speed>
  <fix>3d</fix>
</trkpt>
<trkpt lat="40.0712364" lon="-105.2293659">
  <ele>1583.11</ele>
  <time>2026-08-28T17:53:22Z</time>
  <course>30.06</course>
  <speed>1.2578155667664477</speed>
  <fix>3d</fix>
</trkpt>
<trkpt lat="40.0712338" lon="-105.2293666">
  <ele>1583.0</ele>
  <time>2026-08-28T17:53:22Z</time>
  <course>12.78</course>
  <speed>1.24</speed>
  <fix>3d</fix>
</trkpt>
<trkpt lat="40.0712373" lon="-105.229365">
  <ele>1583.11</ele>
  <time>2026-08-28T17:53:22Z</time>
  <course>38.17</course>
  <speed>1.2480785231707179</speed>
  <fix>3d</fix>
</trkpt>
<trkpt lat="40.0712359" lon="-105.2293656">
  <ele>1583.0</ele>
  <time>2026-08-28T17:53:22Z</time>
  <course>28.83</course>
  <speed>1.25</speed>
  <fix>3d</fix>
</trkpt>
<trkpt lat="40.0712381" lon="-105.229364">
  <ele>1583.11</ele>
  <time>2026-08-28T17:53:22Z</time>
  <course>46.26</course>
  <speed>1.2445882853377659</speed>
  <fix>3d</fix>
</trkpt>
<trkpt lat="40.0712359" lon="-105.2293656">
  <ele>1583.0</ele>
  <time>2026-08-28T17:53:22Z</time>
  <course>28.83</course>
  <speed>1.25</speed>
  <fix>3d</fix>
</trkpt>
<trkpt lat="40.0712389" lon="-105.2293628">
  <ele>1583.11</ele>
  <time>2026-08-28T17:53:22Z</time>
  <course>54.26</course>
  <speed>1.22413234578619</speed>
  <fix>3d</fix>
</trkpt>
<trkpt lat="40.0712377" lon="-105.2293639">
  <ele>1583.0</ele>
  <time>2026-08-28T17:53:22Z</time>
  <course>44.95</course>
  <speed>1.25</speed>
  <fix>3d</fix>
</trkpt>
<trkpt lat="40.0712394" lon="-105.2293616">
  <ele>1583.11</ele>
  <time>2026-08-28T17:53:22Z</time>
  <course>61.43</course>
  <speed>1.2083045973594573</speed>
  <fix>3d</fix>
</trkpt>
<trkpt lat="40.0712377" lon="-105.2293639">
  <ele>1583.0</ele>
  <time>2026-08-28T17:53:22Z</time>
  <course>44.95</course>
  <speed>1.25</speed>
  <fix>3d</fix>
</trkpt>
<trkpt lat="40.0712399" lon="-105.2293602">
  <ele>1583.11</ele>
  <time>2026-08-28T17:53:22Z</time>
  <course>67.59</course>
  <speed>1.1977478866606277</speed>
  <fix>3d</fix>
</trkpt>
<trkpt lat="40.0712391" lon="-105.2293616">
  <ele>1583.0</ele>
  <time>2026-08-28T17:53:22Z</time>
  <course>59.85</course>
  <speed>1.24</speed>
  <fix>3d</fix>
</trkpt>
<trkpt lat="40.0712402" lon="-105.2293591">
  <ele>1583.11</ele>
  <time>2026-08-28T17:53:22Z</time>
  <course>71.81</course>
  <speed>1.1859595271340417</speed>
  <fix>3d</fix>
</trkpt>
<trkpt lat="40.0712391" lon="-105.2293616">
  <ele>1583.0</ele>
  <time>2026-08-28T17:53:22Z</time>
  <course>59.85</course>
  <speed>1.24</speed>
  <fix>3d</fix>
</trkpt>
<trkpt lat="40.0712404" lon="-105.2293577">
  <ele>1583.11</ele>
  <time>2026-08-28T17:53:22Z</time>
  <course>76.09</course>
  <speed>1.161808934377766</speed>
  <fix>3d</fix>
</trkpt>
<trkpt lat="40.07124" lon="-105.2293589">
  <ele>1583.0</ele>
  <time>2026-08-28T17:53:22Z</time>
  <course>71.51</course>
  <speed>1.21</speed>
  <fix>3d</fix>
</trkpt>
<trkpt lat="40.0712406" lon="-105.2293563">
  <ele>1583.11</ele>
  <time>2026-08-28T17:53:22Z</time>
  <course>79.27</course>
  <speed>1.1475626344561765</speed>
  <fix>3d</fix>
</trkpt>
<trkpt lat="40.07124" lon="-105.2293589">
  <ele>1583.0</ele>
  <time>2026-08-28T17:53:22Z</time>
  <course>71.51</course>
  <speed>1.21</speed>
  <fix>3d</fix>
</trkpt>
<trkpt lat="40.0712408" lon="-105.229355">
  <ele>1583.11</ele>
  <time>2026-08-28T17:53:22Z</time>
  <course>81.36</course>
  <speed>1.131370849898476</speed>
  <fix>3d</fix>
</trkpt>
<trkpt lat="40.0712405" lon="-105.2293562">
  <ele>1583.0</ele>
  <time>2026-08-28T17:53:22Z</time>
  <course>78.97</course>
  <speed>1.18</speed>
  <fix>3d</fix>
</trkpt>
<trkpt lat="40.0712409" lon="-105.2293536">
  <ele>1583.11</ele>
  <time>2026-08-28T17:53:22Z</time>
  <course>82.99</course>
  <speed>1.1164676439557037</speed>
  <fix>3d</fix>
</trkpt>
<trkpt lat="40.0712405" lon="-105.2293562">
  <ele>1583.0</ele>
  <time>2026-08-28T17:53:22Z</time>
  <course>78.97</course>
  <speed>1.18</speed>
  <fix>3d</fix>
</trkpt>
<trkpt lat="40.071241" lon="-105.2293522">
  <ele>1583.11</ele>
  <time>2026-08-28T17:53:22Z</time>
  <course>84.36</course>
  <speed>1.0937092849564731</speed>
  <fix>3d</fix>
</trkpt>
<trkpt lat="40.0712408" lon="-105.2293535">
  <ele>1583.0</ele>
  <time>2026-08-28T17:53:22Z</time>
  <course>83.13</course>
  <speed>1.15</speed>
  <fix>3d</fix>
</trkpt>
<trkpt lat="40.071241" lon="-105.2293509">
  <ele>1583.11</ele>
  <time>2026-08-28T17:53:22Z</time>
  <course>85.49</course>
  <speed>1.082266141020775</speed>
  <fix>3d</fix>
</trkpt>
<trkpt lat="40.0712408" lon="-105.2293535">
  <ele>1583.0</ele>
  <time>2026-08-28T17:53:22Z</time>
  <course>83.13</course>
  <speed>1.15</speed>
  <fix>3d</fix>
</trkpt>
<trkpt lat="40.0712411" lon="-105.2293496">
  <ele>1583.11</ele>
  <time>2026-08-28T17:53:22Z</time>
  <course>86.44</course>
  <speed>1.061178590059185</speed>
  <fix>3d</fix>
</trkpt>
<trkpt lat="40.071241" lon="-105.2293508">
  <ele>1583.0</ele>
  <time>2026-08-28T17:53:22Z</time>
  <course>85.68</course>
  <speed>1.11</speed>
  <fix>3d</fix>
</trkpt>
<trkpt lat="40.0712411" lon="-105.2293483">
  <ele>1583.11</ele>
  <time>2026-08-28T17:53:22Z</time>
  <course>87.21</course>
  <speed>1.0504284840006957</speed>
  <fix>3d</fix>
</trkpt>
<trkpt lat="40.071241" lon="-105.2293508">
  <ele>1583.0</ele>
  <time>2026-08-28T17:53:22Z</time>
  <course>85.68</course>
  <speed>1.11</speed>
  <fix>3d</fix>
</trkpt>
<trkpt lat="40.0712412" lon="-105.229347">
  <ele>1583.11</ele>
  <time>2026-08-28T17:53:22Z</time>
  <course>87.85</course>
  <speed>1.030194156457898</speed>
  <fix>3d</fix>
</trkpt>
<trkpt lat="40.0712411" lon="-105.2293483">
  <ele>1583.0</ele>
  <time>2026-08-28T17:53:22Z</time>
  <course>87.44</course>
  <speed>1.08</speed>
  <fix>3d</fix>
</trkpt>
<trkpt lat="40.0712412" lon="-105.2293455">
  <ele>1583.11</ele>
  <time>2026-08-28T17:53:22Z</time>
  <course>88.47</course>
  <speed>1.0200490184299968</speed>
  <fix>3d</fix>
</trkpt>
<trkpt lat="40.0712411" lon="-105.2293483">
  <ele>1583.0</ele>
  <time>2026-08-28T17:53:22Z</time>
  <course>87.44</course>
  <speed>1.08</speed>
  <fix>3d</fix>
</trkpt>
<trkpt lat="40.0712412" lon="-105.2293443">
  <ele>1583.11</ele>
  <time>2026-08-28T17:53:22Z</time>
  <course>88.9</course>
  <speed>1.01</speed>
  <fix>3d</fix>
</trkpt>
<trkpt lat="40.0712412" lon="-105.2293457">
  <ele>1583.0</ele>
  <time>2026-08-28T17:53:22Z</time>
  <course>88.64</course>
  <speed>1.05</speed>
  <fix>3d</fix>
</trkpt>
<trkpt lat="40.0712412" lon="-105.229343">
  <ele>1583.11</ele>
  <time>2026-08-28T17:53:22Z</time>
  <course>89.24</course>
  <speed>1.0</speed>
  <fix>3d</fix>
</trkpt>
<trkpt lat="40.0712412" lon="-105.2293457">
  <ele>1583.0</ele>
  <time>2026-08-28T17:53:22Z</time>
  <course>88.64</course>
  <speed>1.05</speed>
  <fix>3d</fix>
</trkpt>
<trkpt lat="40.0712412" lon="-105.2293418">
  <ele>1583.11</ele>
  <time>2026-08-28T17:53:22Z</time>
  <course>89.52</course>
  <speed>0.99</speed>
  <fix>3d</fix>
</trkpt>
<trkpt lat="40.0712412" lon="-105.2293433">
  <ele>1583.0</ele>
  <time>2026-08-28T17:53:22Z</time>
  <course>89.46</course>
  <speed>1.03</speed>
  <fix>3d</fix>
</trkpt>
<trkpt lat="40.0712412" lon="-105.2293406">
  <ele>1583.11</ele>
  <time>2026-08-28T17:53:22Z</time>
  <course>89.75</course>
  <speed>0.98</speed>
  <fix>3d</fix>
</trkpt>
<trkpt lat="40.0712412" lon="-105.2293433">
  <ele>1583.0</ele>
  <time>2026-08-28T17:53:22Z</time>
  <course>89.46</course>
  <speed>1.03</speed>
  <fix>3d</fix>
</trkpt>
<trkpt lat="40.0712412" lon="-105.2293394">
  <ele>1583.1</ele>
  <time>2026-08-28T17:53:22Z</time>
  <course>89.94</course>
  <speed>0.9800510190801294</speed>
  <fix>3d</fix>
</trkpt>
<trkpt lat="40.0712412" lon="-105.2293409">
  <ele>1583.0</ele>
  <time>2026-08-28T17:53:22Z</time>
  <course>90.02</course>
  <speed>1.01</speed>
  <fix>3d</fix>
</trkpt>
<trkpt lat="40.0712412" lon="-105.2293382">
  <ele>1583.1</ele>
  <time>2026-08-28T17:53:22Z</time>
  <course>90.09</course>
  <speed>0.970051545022222</speed>
  <fix>3d</fix>
</trkpt>
<trkpt lat="40.0712412" lon="-105.2293409">
  <ele>1583.0</ele>
  <time>2026-08-28T17:53:22Z</time>
  <course>90.02</course>
  <speed>1.01</speed>
  <fix>3d</fix>
</trkpt>
<trkpt lat="40.0712412" lon="-105.2293371">
  <ele>1583.1</ele>
  <time>2026-08-28T17:53:22Z</time>
  <course>90.22</course>
  <speed>0.970051545022222</speed>
  <fix>3d</fix>
</trkpt>
<trkpt lat="40.0712412" lon="-105.2293385">
  <ele>1583.0</ele>
  <time>2026-08-28T17:53:22Z</time>
  <course>90.38</course>
  <speed>1.0</speed>
  <fix>3d</fix>
</trkpt>
<trkpt lat="40.0712412" lon="-105.2293359">
  <ele>1583.1</ele>
  <time>2026-08-28T17:53:22Z</time>
  <course>90.32</course>
  <speed>0.9600520819205591</speed>
  <fix>3d</fix>
</trkpt>
<trkpt lat="40.0712412" lon="-105.2293385">
  <ele>1583.0</ele>
  <time>2026-08-28T17:53:22Z</time>
  <course>90.38</course>
  <speed>1.0</speed>
  <fix>3d</fix>
</trkpt>
<trkpt lat="40.0712412" lon="-105.2293347">
  <ele>1583.1</ele>
  <time>2026-08-28T17:53:22Z</time>
  <course>90.4</course>
  <speed>0.9600520819205591</speed>
  <fix>3d</fix>
</trkpt>
<trkpt lat="40.0712412" lon="-105.2293361">
  <ele>1583.0</ele>
  <time>2026-08-28T17:53:22Z</time>
  <course>90.63</course>
  <speed>0.99</speed>
  <fix>3d</fix>
</trkpt>
<trkpt lat="40.0712412" lon="-105.2293336">
  <ele>1583.11</ele>
  <time>2026-08-28T17:53:22Z</time>
  <course>90.46</course>
  <speed>0.9600520819205591</speed>
  <fix>3d</fix>
</trkpt>
<trkpt lat="40.0712412" lon="-105.2293361">
  <ele>1583.0</ele>
  <time>2026-08-28T17:53:22Z</time>
  <course>90.63</course>
  <speed>0.99</speed>
  <fix>3d</fix>
</trkpt>
<trkpt lat="40.0712412" lon="-105.2293326">
  <ele>1583.11</ele>
  <time>2026-08-28T17:53:22Z</time>
  <course>90.5</course>
  <speed>0.9600520819205591</speed>
  <fix>3d</fix>
</trkpt>
<trkpt lat="40.0712412" lon="-105.2293338">
  <ele>1583.0</ele>
  <time>2026-08-28T17:53:22Z</time>
  <course>90.79</course>
  <speed>0.99</speed>
  <fix>3d</fix>
</trkpt>
<trkpt lat="40.0712412" lon="-105.2293315">
  <ele>1583.11</ele>
  <time>2026-08-28T17:53:22Z</time>
  <course>90.55</course>
  <speed>0.9600520819205591</speed>
  <fix>3d</fix>
</trkpt>
<trkpt lat="40.0712412" lon="-105.2293338">
  <ele>1583.0</ele>
  <time>2026-08-28T17:53:22Z</time>
  <course>90.79</course>
  <speed>0.99</speed>
  <fix>3d</fix>
</trkpt>
<trkpt lat="40.0712412" lon="-105.2293303">
  <ele>1583.11</ele>
  <time>2026-08-28T17:53:22Z</time>
  <course>90.58</course>
  <speed>0.9600520819205591</speed>
  <fix>3d</fix>
</trkpt>
<trkpt lat="40.0712412" lon="-105.2293315">
  <ele>1583.0</ele>
  <time>2026-08-28T17:53:22Z</time>
  <course>90.9</course>
  <speed>0.99</speed>
  <fix>3d</fix>
</trkpt>
<trkpt lat="40.0712412" lon="-105.2293291">
  <ele>1583.11</ele>
  <time>2026-08-28T17:53:22Z</time>
  <course>90.6</course>
  <speed>0.970051545022222</speed>
  <fix>3d</fix>
</trkpt>
<trkpt lat="40.0712412" lon="-105.2293315">
  <ele>1583.0</ele>
  <time>2026-08-28T17:53:22Z</time>
  <course>90.9</course>
  <speed>0.99</speed>
  <fix>3d</fix>
</trkpt>
<trkpt lat="40.0712412" lon="-105.2293279">
  <ele>1583.11</ele>
  <time>2026-08-28T17:53:22Z</time>
  <course>90.62</course>
  <speed>0.970051545022222</speed>
  <fix>3d</fix>
</trkpt>
<trkpt lat="40.0712412" lon="-105.2293291">
  <ele>1583.0</ele>
  <time>2026-08-28T17:53:22Z</time>
  <course>90.96</course>
  <speed>0.99</speed>
  <fix>3d</fix>
</trkpt>
<trkpt lat="40.0712411" lon="-105.2293268">
  <ele>1583.11</ele>
  <time>2026-08-28T17:53:22Z</time>
  <course>90.63</course>
  <speed>0.970051545022222</speed>
  <fix>3d</fix>
</trkpt>
<trkpt lat="40.0712412" lon="-105.2293291">
  <ele>1583.0</ele>
  <time>2026-08-28T17:53:22Z</time>
  <course>90.96</course>
  <speed>0.99</speed>
  <fix>3d</fix>
</trkpt>
<trkpt lat="40.0712411" lon="-105.2293256">
  <ele>1583.11</ele>
  <time>2026-08-28T17:53:22Z</time>
  <course>90.64</course>
  <speed>0.9800510190801294</speed>
  <fix>3d</fix>
</trkpt>
<trkpt lat="40.0712412" lon="-105.2293268">
  <ele>1583.0</ele>
  <time>2026-08-28T17:53:22Z</time>
  <course>91.0</course>
  <speed>1.0</speed>
  <fix>3d</fix>
</trkpt>
<trkpt lat="40.0712411" lon="-105.2293244">
  <ele>1583.11</ele>
  <time>2026-08-28T17:53:22Z</time>
  <course>90.64</course>
  <speed>0.9800510190801294</speed>
  <fix>3d</fix>
</trkpt>
<trkpt lat="40.0712412" lon="-105.2293268">
  <ele>1583.0</ele>
  <time>2026-08-28T17:53:22Z</time>
  <course>91.0</course>
  <speed>1.0</speed>
  <fix>3d</fix>
</trkpt>
<trkpt lat="40.0712411" lon="-105.2293232">
  <ele>1583.11</ele>
  <time>2026-08-28T17:53:22Z</time>
  <course>90.64</course>
  <speed>0.9800510190801294</speed>
  <fix>3d</fix>
</trkpt>
<trkpt lat="40.0712411" lon="-105.2293244">
  <ele>1583.0</ele>
  <time>2026-08-28T17:53:22Z</time>
  <course>91.02</course>
  <speed>1.0</speed>
  <fix>3d</fix>
</trkpt>
<trkpt lat="40.0712411" lon="-105.229322">
  <ele>1583.11</ele>
  <time>2026-08-28T17:53:22Z</time>
  <course>90.64</course>
  <speed>0.9800510190801294</speed>
  <fix>3d</fix>
</trkpt>
<trkpt lat="40.0712411" lon="-105.2293244">
  <ele>1583.0</ele>
  <time>2026-08-28T17:53:22Z</time>
  <course>91.02</course>
  <speed>1.0</speed>
  <fix>3d</fix>
</trkpt>
<trkpt lat="40.0712411" lon="-105.2293205">
  <ele>1583.11</ele>
  <time>2026-08-28T17:53:22Z</time>
  <course>90.64</course>
  <speed>0.99</speed>
  <fix>3d</fix>
</trkpt>
<trkpt lat="40.0712411" lon="-105.229322">
  <ele>1583.0</ele>
  <time>2026-08-28T17:53:22Z</time>
  <course>91.02</course>
  <speed>1.0</speed>
  <fix>3d</fix>
</trkpt>
<trkpt lat="40.0712411" lon="-105.2293193">
  <ele>1583.11</ele>
  <time>2026-08-28T17:53:22Z</time>
  <course>90.63</course>
  <speed>0.99</speed>
  <fix>3d</fix>
</trkpt>
<trkpt lat="40.0712411" lon="-105.229322">
  <ele>1583.0</ele>
  <time>2026-08-28T17:53:22Z</time>
  <course>91.02</course>
  <speed>1.0</speed>
  <fix>3d</fix>
</trkpt>
<trkpt lat="40.0712411" lon="-105.2293181">
  <ele>1583.11</ele>
  <time>2026-08-28T17:53:22Z</time>
  <course>90.63</course>
  <speed>0.99</speed>
  <fix>3d</fix>
</trkpt>
<trkpt lat="40.0712411" lon="-105.2293197">
  <ele>1583.0</ele>
  <time>2026-08-28T17:53:22Z</time>
  <course>91.02</course>
  <speed>1.01</speed>
  <fix>3d</fix>
</trkpt>
<trkpt lat="40.0712411" lon="-105.2293169">
  <ele>1583.11</ele>
  <time>2026-08-28T17:53:22Z</time>
  <course>90.63</course>
  <speed>1.0</speed>
  <fix>3d</fix>
</trkpt>
<trkpt lat="40.0712411" lon="-105.2293197">
  <ele>1583.0</ele>
  <time>2026-08-28T17:53:22Z</time>
  <course>91.02</course>
  <speed>1.01</speed>
  <fix>3d</fix>
</trkpt>
<trkpt lat="40.0712411" lon="-105.2293157">
  <ele>1583.1</ele>
  <time>2026-08-28T17:53:22Z</time>
  <course>90.63</course>
  <speed>1.0</speed>
  <fix>3d</fix>
</trkpt>
<trkpt lat="40.0712411" lon="-105.2293174">
  <ele>1583.0</ele>
  <time>2026-08-28T17:53:22Z</time>
  <course>91.02</course>
  <speed>1.01</speed>
  <fix>3d</fix>
</trkpt>
<trkpt lat="40.0712411" lon="-105.2293145">
  <ele>1583.1</ele>
  <time>2026-08-28T17:53:22Z</time>
  <course>90.63</course>
  <speed>1.0</speed>
  <fix>3d</fix>
</trkpt>
<trkpt lat="40.0712411" lon="-105.2293174">
  <ele>1583.0</ele>
  <time>2026-08-28T17:53:22Z</time>
  <course>91.02</course>
  <speed>1.01</speed>
  <fix>3d</fix>
</trkpt>
<trkpt lat="40.0712411" lon="-105.2293133">
  <ele>1583.1</ele>
  <time>2026-08-28T17:53:22Z</time>
  <course>90.62</course>
  <speed>1.0</speed>
  <fix>3d</fix>
</trkpt>
<trkpt lat="40.0712411" lon="-105.229315">
  <ele>1583.0</ele>
  <time>2026-08-28T17:53:22Z</time>
  <course>91.02</course>
  <speed>1.01</speed>
  <fix>3d</fix>
</trkpt>
<trkpt lat="40.0712411" lon="-105.2293122">
  <ele>1583.1</ele>
  <time>2026-08-28T17:53:22Z</time>
  <course>90.62</course>
  <speed>1.0</speed>
  <fix>3d</fix>
</trkpt>
<trkpt lat="40.0712411" lon="-105.229315">
  <ele>1583.0</ele>
  <time>2026-08-28T17:53:22Z</time>
  <course>91.02</course>
  <speed>1.01</speed>
  <fix>3d</fix>
</trkpt>
<trkpt lat="40.0712411" lon="-105.229311">
  <ele>1583.1</ele>
  <time>2026-08-28T17:53:22Z</time>
  <course>90.62</course>
  <speed>1.0</speed>
  <fix>3d</fix>
</trkpt>
<trkpt lat="40.071241" lon="-105.2293126">
  <ele>1583.0</ele>
  <time>2026-08-28T17:53:22Z</time>
  <course>91.02</course>
  <speed>1.01</speed>
  <fix>3d</fix>
</trkpt>
<trkpt lat="40.0712411" lon="-105.2293098">
  <ele>1583.11</ele>
  <time>2026-08-28T17:53:22Z</time>
  <course>90.61</course>
  <speed>1.0</speed>
  <fix>3d</fix>
</trkpt>
<trkpt lat="40.071241" lon="-105.2293126">
  <ele>1583.0</ele>
  <time>2026-08-28T17:53:22Z</time>
  <course>91.02</course>
  <speed>1.01</speed>
  <fix>3d</fix>
</trkpt>
<trkpt lat="40.0712411" lon="-105.2293086">
  <ele>1583.11</ele>
  <time>2026-08-28T17:53:22Z</time>
  <course>90.61</course>
  <speed>1.0</speed>
  <fix>3d</fix>
</trkpt>
<trkpt lat="40.071241" lon="-105.2293102">
  <ele>1583.0</ele>
  <time>2026-08-28T17:53:22Z</time>
  <course>91.02</course>
  <speed>1.01</speed>
  <fix>3d</fix>
</trkpt>
<trkpt lat="40.0712411" lon="-105.2293077">
  <ele>1583.11</ele>
  <time>2026-08-28T17:53:22Z</time>
  <course>90.6</course>
  <speed>1.0</speed>
  <fix>3d</fix>
</trkpt>
<trkpt lat="40.071241" lon="-105.2293102">
  <ele>1583.0</ele>
  <time>2026-08-28T17:53:22Z</time>
  <course>91.02</course>
  <speed>1.01</speed>
  <fix>3d</fix>
</trkpt>
<trkpt lat="40.071241" lon="-105.2293065">
  <ele>1583.11</ele>
  <time>2026-08-28T17:53:22Z</time>
  <course>90.59</course>
  <speed>1.0</speed>
  <fix>3d</fix>
</trkpt>
<trkpt lat="40.071241" lon="-105.2293078">
  <ele>1583.0</ele>
  <time>2026-08-28T17:53:22Z</time>
  <course>91.0</course>
  <speed>1.0</speed>
  <fix>3d</fix>
</trkpt>
<trkpt lat="40.071241" lon="-105.2293053">
  <ele>1583.11</ele>
  <time>2026-08-28T17:53:22Z</time>
  <course>90.58</course>
  <speed>1.0</speed>
  <fix>3d</fix>
</trkpt>
<trkpt lat="40.071241" lon="-105.2293078">
  <ele>1583.0</ele>
  <time>2026-08-28T17:53:22Z</time>
  <course>91.0</course>
  <speed>1.0</speed>
  <fix>3d</fix>
</trkpt>
<trkpt lat="40.071241" lon="-105.2293041">
  <ele>1583.12</ele>
  <time>2026-08-28T17:53:22Z</time>
  <course>90.57</course>
  <speed>1.0</speed>
  <fix>3d</fix>
</trkpt>
<trkpt lat="40.0712409" lon="-105.2293055">
  <ele>1583.0</ele>
  <time>2026-08-28T17:53:22Z</time>
  <course>90.99</course>
  <speed>1.0</speed>
  <fix>3d</fix>
</trkpt>
<trkpt lat="40.071241" lon="-105.2293029">
  <ele>1583.12</ele>
  <time>2026-08-28T17:53:22Z</time>
  <course>90.56</course>
  <speed>1.0</speed>
  <fix>3d</fix>
</trkpt>
<trkpt lat="40.0712409" lon="-105.2293055">
  <ele>1583.0</ele>
  <time>2026-08-28T17:53:22Z</time>
  <course>90.99</course>
  <speed>1.0</speed>
  <fix>3d</fix>
</trkpt>
<trkpt lat="40.071241" lon="-105.2293017">
  <ele>1583.12</ele>
  <time>2026-08-28T17:53:22Z</time>
  <course>90.55</course>
  <speed>1.0</speed>
  <fix>3d</fix>
</trkpt>
<trkpt lat="40.0712409" lon="-105.2293031">
  <ele>1583.0</ele>
  <time>2026-08-28T17:53:22Z</time>
  <course>90.97</course>
  <speed>1.0</speed>
  <fix>3d</fix>
</trkpt>
<trkpt lat="40.071241" lon="-105.2293005">
  <ele>1583.12</ele>
  <time>2026-08-28T17:53:22Z</time>
  <course>90.54</course>
  <speed>1.0</speed>
  <fix>3d</fix>
</trkpt>
<trkpt lat="40.0712409" lon="-105.2293031">
  <ele>1583.0</ele>
  <time>2026-08-28T17:53:22Z</time>
  <course>90.97</course>
  <speed>1.0</speed>
  <fix>3d</fix>
</trkpt>
<trkpt lat="40.071241" lon="-105.2292993">
  <ele>1583.12</ele>
  <time>2026-08-28T17:53:22Z</time>
  <course>90.52</course>
  <speed>1.0</speed>
  <fix>3d</fix>
</trkpt>
<trkpt lat="40.0712409" lon="-105.2293007">
  <ele>1583.0</ele>
  <time>2026-08-28T17:53:22Z</time>
  <course>90.95</course>
  <speed>1.0</speed>
  <fix>3d</fix>
</trkpt>
<trkpt lat="40.071241" lon="-105.2292981">
  <ele>1583.11</ele>
  <time>2026-08-28T17:53:22Z</time>
  <course>90.52</course>
  <speed>1.0</speed>
  <fix>3d</fix>
</trkpt>
<trkpt lat="40.0712409" lon="-105.2293007">
  <ele>1583.0</ele>
  <time>2026-08-28T17:53:22Z</time>
  <course>90.95</course>
  <speed>1.0</speed>
  <fix>3d</fix>
</trkpt>
<trkpt lat="40.071241" lon="-105.2292967">
  <ele>1583.11</ele>
  <time>2026-08-28T17:53:22Z</time>
  <course>90.5</course>
  <speed>1.0</speed>
  <fix>3d</fix>
</trkpt>
<trkpt lat="40.0712408" lon="-105.2292983">
  <ele>1583.0</ele>
  <time>2026-08-28T17:53:22Z</time>
  <course>90.93</course>
  <speed>1.0</speed>
  <fix>3d</fix>
</trkpt>
<trkpt lat="40.071241" lon="-105.2292955">
  <ele>1583.11</ele>
  <time>2026-08-28T17:53:22Z</time>
  <course>90.49</course>
  <speed>1.0</speed>
  <fix>3d</fix>
</trkpt>
<trkpt lat="40.0712408" lon="-105.2292983">
  <ele>1583.0</ele>
  <time>2026-08-28T17:53:22Z</time>
  <course>90.93</course>
  <speed>1.0</speed>
  <fix>3d</fix>
</trkpt>
<trkpt lat="40.071241" lon="-105.2292943">
  <ele>1583.1</ele>
  <time>2026-08-28T17:53:22Z</time>
  <course>90.48</course>
  <speed>1.0</speed>
  <fix>3d</fix>
</trkpt>
<trkpt lat="40.0712408" lon="-105.229296">
  <ele>1583.0</ele>
  <time>2026-08-28T17:53:22Z</time>
  <course>90.92</course>
  <speed>1.0</speed>
  <fix>3d</fix>
</trkpt>
<trkpt lat="40.0712409" lon="-105.2292931">
  <ele>1583.1</ele>
  <time>2026-08-28T17:53:22Z</time>
  <course>90.47</course>
  <speed>1.0</speed>
  <fix>3d</fix>
</trkpt>
<trkpt lat="40.0712408" lon="-105.229296">
  <ele>1583.0</ele>
  <time>2026-08-28T17:53:22Z</time>
  <course>90.92</course>
  <speed>1.0</speed>
  <fix>3d</fix>
</trkpt>
<trkpt lat="40.0712409" lon="-105.2292919">
  <ele>1583.1</ele>
  <time>2026-08-28T17:53:22Z</time>
  <course>90.47</course>
  <speed>1.0</speed>
  <fix>3d</fix>
</trkpt>
<trkpt lat="40.0712408" lon="-105.2292937">
  <ele>1583.0</ele>
  <time>2026-08-28T17:53:22Z</time>
  <course>90.9</course>
  <speed>1.0</speed>
  <fix>3d</fix>
</trkpt>
<trkpt lat="40.0712409" lon="-105.2292907">
  <ele>1583.09</ele>
  <time>2026-08-28T17:53:22Z</time>
  <course>90.46</course>
  <speed>1.0</speed>
  <fix>3d</fix>
</trkpt>
<trkpt lat="40.0712408" lon="-105.2292937">
  <ele>1583.0</ele>
  <time>2026-08-28T17:53:22Z</time>
  <course>90.9</course>
  <speed>1.0</speed>
  <fix>3d</fix>
</trkpt>
<trkpt lat="40.0712409" lon="-105.2292895">
  <ele>1583.09</ele>
  <time>2026-08-28T17:53:22Z</time>
  <course>90.45</course>
  <speed>1.0</speed>
  <fix>3d</fix>
</trkpt>
<trkpt lat="40.0712408" lon="-105.2292913">
  <ele>1583.0</ele>
  <time>2026-08-28T17:53:22Z</time>
  <course>90.88</course>
  <speed>0.99</speed>
  <fix>3d</fix>
</trkpt>
<trkpt lat="40.0712409" lon="-105.2292883">
  <ele>1583.09</ele>
  <time>2026-08-28T17:53:22Z</time>
  <course>90.44</course>
  <speed>1.0</speed>
  <fix>3d</fix>
</trkpt>
<trkpt lat="40.0712408" lon="-105.2292913">
  <ele>1583.0</ele>
  <time>2026-08-28T17:53:22Z</time>
  <course>90.88</course>
  <speed>0.99</speed>
  <fix>3d</fix>
</trkpt>
<trkpt lat="40.0712409" lon="-105.2292872">
  <ele>1583.09</ele>
  <time>2026-08-28T17:53:22Z</time>
  <course>90.43</course>
  <speed>1.0</speed>
  <fix>3d</fix>
</trkpt>
<trkpt lat="40.0712407" lon="-105.229289">
  <ele>1583.0</ele>
  <time>2026-08-28T17:53:22Z</time>
  <course>90.87</course>
  <speed>0.99</speed>
  <fix>3d</fix>
</trkpt>
<trkpt lat="40.0712409" lon="-105.229286">
  <ele>1583.09</ele>
  <time>2026-08-28T17:53:22Z</time>
  <course>90.43</course>
  <speed>1.0</speed>
  <fix>3d</fix>
</trkpt>
<trkpt lat="40.0712407" lon="-105.229289">
  <ele>1583.0</ele>
  <time>2026-08-28T17:53:22Z</time>
  <course>90.87</course>
  <speed>0.99</speed>
  <fix>3d</fix>
</trkpt>
<trkpt lat="40.0712409" lon="-105.2292849">
  <ele>1583.1</ele>
  <time>2026-08-28T17:53:22Z</time>
  <course>90.42</course>
  <speed>1.0</speed>
  <fix>3d</fix>
</trkpt>
<trkpt lat="40.0712407" lon="-105.2292866">
  <ele>1583.0</ele>
  <time>2026-08-28T17:53:22Z</time>
  <course>90.86</course>
  <speed>0.99</speed>
  <fix>3d</fix>
</trkpt>
<trkpt lat="40.0712409" lon="-105.2292837">
  <ele>1583.1</ele>
  <time>2026-08-28T17:53:22Z</time>
  <course>90.41</course>
  <speed>0.99</speed>
  <fix>3d</fix>
</trkpt>
<trkpt lat="40.0712407" lon="-105.2292866">
  <ele>1583.0</ele>
  <time>2026-08-28T17:53:22Z</time>
  <course>90.86</course>
  <speed>0.99</speed>
  <fix>3d</fix>
</trkpt>
<trkpt lat="40.0712408" lon="-105.2292828">
  <ele>1583.1</ele>
  <time>2026-08-28T17:53:22Z</time>
  <course>90.4</course>
  <speed>0.99</speed>
  <fix>3d</fix>
</trkpt>
<trkpt lat="40.0712407" lon="-105.2292843">
  <ele>1583.0</ele>
  <time>2026-08-28T17:53:22Z</time>
  <course>90.85</course>
  <speed>0.98</speed>
  <fix>3d</fix>
</trkpt>
<trkpt lat="40.0712408" lon="-105.2292816">
  <ele>1583.1</ele>
  <time>2026-08-28T17:53:22Z</time>
  <course>90.39</course>
  <speed>0.99</speed>
  <fix>3d</fix>
</trkpt>
<trkpt lat="40.0712407" lon="-105.2292843">
  <ele>1583.0</ele>
  <time>2026-08-28T17:53:22Z</time>
  <course>90.85</course>
  <speed>0.98</speed>
  <fix>3d</fix>
</trkpt>
<trkpt lat="40.0712408" lon="-105.2292804">
  <ele>1583.1</ele>
  <time>2026-08-28T17:53:22Z</time>
  <course>90.39</course>
  <speed>0.99</speed>
  <fix>3d</fix>
</trkpt>
<trkpt lat="40.0712406" lon="-105.229282">
  <ele>1583.0</ele>
  <time>2026-08-28T17:53:22Z</time>
  <course>90.83</course>
  <speed>0.98</speed>
  <fix>3d</fix>
</trkpt>
<trkpt lat="40.0712408" lon="-105.2292793">
  <ele>1583.1</ele>
  <time>2026-08-28T17:53:22Z</time>
  <course>90.66</course>
  <speed>1.0</speed>
  <fix>3d</fix>
</trkpt>
<trkpt lat="40.0712406" lon="-105.229282">
  <ele>1583.0</ele>
  <time>2026-08-28T17:53:22Z</time>
  <course>90.83</course>
  <speed>0.98</speed>
  <fix>3d</fix>
</trkpt>
<trkpt lat="40.0712408" lon="-105.2292781">
  <ele>1583.1</ele>
  <time>2026-08-28T17:53:22Z</time>
  <course>92.07</course>
  <speed>1.020196059588548</speed>
  <fix>3d</fix>
</trkpt>
<trkpt lat="40.0712405" lon="-105.2292796">
  <ele>1583.0</ele>
  <time>2026-08-28T17:53:22Z</time>
  <course>91.69</course>
  <speed>0.99</speed>
  <fix>3d</fix>
</trkpt>
<trkpt lat="40.0712407" lon="-105.2292769">
  <ele>1583.1</ele>
  <time>2026-08-28T17:53:22Z</time>
  <course>94.57</course>
  <speed>1.0523307464861036</speed>
  <fix>3d</fix>
</trkpt>
<trkpt lat="40.0712405" lon="-105.2292796">
  <ele>1583.0</ele>
  <time>2026-08-28T17:53:22Z</time>
  <course>91.69</course>
  <speed>0.99</speed>
  <fix>3d</fix>
</trkpt>
<trkpt lat="40.0712406" lon="-105.2292756">
  <ele>1583.1</ele>
  <time>2026-08-28T17:53:22Z</time>
  <course>98.13</course>
  <speed>1.0989540481748998</speed>
  <fix>3d</fix>
</trkpt>
<trkpt lat="40.0712405" lon="-105.2292772">
  <ele>1583.0</ele>
  <time>2026-08-28T17:53:22Z</time>
  <course>95.69</course>
  <speed>1.04</speed>
  <fix>3d</fix>
</trkpt>
<trkpt lat="40.0712404" lon="-105.2292743">
  <ele>1583.1</ele>
  <time>2026-08-28T17:53:22Z</time>
  <course>102.78</course>
  <speed>1.1552056094046634</speed>
  <fix>3d</fix>
</trkpt>
<trkpt lat="40.0712405" lon="-105.2292772">
  <ele>1583.0</ele>
  <time>2026-08-28T17:53:22Z</time>
  <course>95.69</course>
  <speed>1.04</speed>
  <fix>3d</fix>
</trkpt>
<trkpt lat="40.0712401" lon="-105.2292729">
  <ele>1583.1</ele>
  <time>2026-08-28T17:53:22Z</time>
  <course>108.09</course>
  <speed>1.2175795661885922</speed>
  <fix>3d</fix>
</trkpt>
<trkpt lat="40.0712402" lon="-105.2292747">
  <ele>1583.0</ele>
  <time>2026-08-28T17:53:22Z</time>
  <course>103.83</course>
  <speed>1.14</speed>
  <fix>3d</fix>
</trkpt>
<trkpt lat="40.0712396" lon="-105.2292713">
  <ele>1583.1</ele>
  <time>2026-08-28T17:53:22Z</time>
  <course>113.38</course>
  <speed>1.2815615474880635</speed>
  <fix>3d</fix>
</trkpt>
<trkpt lat="40.0712402" lon="-105.2292747">
  <ele>1583.0</ele>
  <time>2026-08-28T17:53:22Z</time>
  <course>103.83</course>
  <speed>1.14</speed>
  <fix>3d</fix>
</trkpt>
<trkpt lat="40.071239" lon="-105.2292699">
  <ele>1583.1</ele>
  <time>2026-08-28T17:53:22Z</time>
  <course>117.02</course>
  <speed>1.3282319074619462</speed>
  <fix>3d</fix>
</trkpt>
<trkpt lat="40.0712395" lon="-105.2292721">
  <ele>1583.0</ele>
  <time>2026-08-28T17:53:22Z</time>
  <course>112.83</course>
  <speed>1.25</speed>
  <fix>3d</fix>
</trkpt>
<trkpt lat="40.0712384" lon="-105.2292685">
  <ele>1583.1</ele>
  <time>2026-08-28T17:53:22Z</time>
  <course>120.08</course>
  <speed>1.3705838172107534</speed>
  <fix>3d</fix>
</trkpt>
<trkpt lat="40.0712395" lon="-105.2292721">
  <ele>1583.0</ele>
  <time>2026-08-28T17:53:22Z</time>
  <course>112.83</course>
  <speed>1.25</speed>
  <fix>3d</fix>
</trkpt>
<trkpt lat="40.0712377" lon="-105.2292671">
  <ele>1583.1</ele>
  <time>2026-08-28T17:53:22Z</time>
  <course>122.63</course>
  <speed>1.4066271716414411</speed>
  <fix>3d</fix>
</trkpt>
<trkpt lat="40.0712385" lon="-105.2292693">
  <ele>1583.0</ele>
  <time>2026-08-28T17:53:22Z</time>
  <course>119.78</course>
  <speed>1.34</speed>
  <fix>3d</fix>
</trkpt>
<trkpt lat="40.071237" lon="-105.2292657">
  <ele>1583.1</ele>
  <time>2026-08-28T17:53:22Z</time>
  <course>124.77</course>
  <speed>1.4451643505151932</speed>
  <fix>3d</fix>
</trkpt>
<trkpt lat="40.0712385" lon="-105.2292693">
  <ele>1583.0</ele>
  <time>2026-08-28T17:53:22Z</time>
  <course>119.78</course>
  <speed>1.34</speed>
  <fix>3d</fix>
</trkpt>
<trkpt lat="40.0712362" lon="-105.2292643">
  <ele>1583.1</ele>
  <time>2026-08-28T17:53:22Z</time>
  <course>126.55</course>
  <speed>1.4660491124106312</speed>
  <fix>3d</fix>
</trkpt>
<trkpt lat="40.0712371" lon="-105.2292666">
  <ele>1583.0</ele>
  <time>2026-08-28T17:53:22Z</time>
  <course>124.69</course>
  <speed>1.41</speed>
  <fix>3d</fix>
</trkpt>
<trkpt lat="40.0712354" lon="-105.229263">
  <ele>1583.1</ele>
  <time>2026-08-28T17:53:22Z</time>
  <course>128.05</course>
  <speed>1.4901342221424216</speed>
  <fix>3d</fix>
</trkpt>
<trkpt lat="40.0712371" lon="-105.2292666">
  <ele>1583.0</ele>
  <time>2026-08-28T17:53:22Z</time>
  <course>124.69</course>
  <speed>1.41</speed>
  <fix>3d</fix>
</trkpt>
<trkpt lat="40.0712345" lon="-105.2292616">
  <ele>1583.1</ele>
  <time>2026-08-28T17:53:22Z</time>
  <course>129.29</course>
  <speed>1.5071164520368026</speed>
  <fix>3d</fix>
</trkpt>
<trkpt lat="40.0712355" lon="-105.2292639">
  <ele>1583.0</ele>
  <time>2026-08-28T17:53:22Z</time>
  <course>128.12</course>
  <speed>1.46</speed>
  <fix>3d</fix>
</trkpt>
<trkpt lat="40.0712336" lon="-105.2292603">
  <ele>1583.1</ele>
  <time>2026-08-28T17:53:22Z</time>
  <course>130.33</course>
  <speed>1.5185519418182574</speed>
  <fix>3d</fix>
</trkpt>
<trkpt lat="40.0712355" lon="-105.2292639">
  <ele>1583.0</ele>
  <time>2026-08-28T17:53:22Z</time>
  <course>128.12</course>
  <speed>1.46</speed>
  <fix>3d</fix>
</trkpt>
<trkpt lat="40.0712327" lon="-105.2292589">
  <ele>1583.1</ele>
  <time>2026-08-28T17:53:22Z</time>
  <course>131.2</course>
  <speed>1.523975065412817</speed>
  <fix>3d</fix>
</trkpt>
<trkpt lat="40.0712338" lon="-105.2292612">
  <ele>1583.0</ele>
  <time>2026-08-28T17:53:22Z</time>
  <course>130.51</course>
  <speed>1.5</speed>
  <fix>3d</fix>
</trkpt>
<trkpt lat="40.0712318" lon="-105.2292576">
  <ele>1583.1</ele>
  <time>2026-08-28T17:53:22Z</time>
  <course>131.93</course>
  <speed>1.5297058540778354</speed>
  <fix>3d</fix>
</trkpt>
<trkpt lat="40.0712338" lon="-105.2292612">
  <ele>1583.0</ele>
  <time>2026-08-28T17:53:22Z</time>
  <course>130.51</course>
  <speed>1.5</speed>
  <fix>3d</fix>
</trkpt>
<trkpt lat="40.071231" lon="-105.2292566">
  <ele>1583.1</ele>
  <time>2026-08-28T17:53:22Z</time>
  <course>132.42</course>
  <speed>1.5363918770938616</speed>
  <fix>3d</fix>
</trkpt>
<trkpt lat="40.0712321" lon="-105.2292586">
  <ele>1583.0</ele>
  <time>2026-08-28T17:53:22Z</time>
  <course>132.18</course>
  <speed>1.51</speed>
  <fix>3d</fix>
</trkpt>
<trkpt lat="40.0712301" lon="-105.2292553">
  <ele>1583.1</ele>
  <time>2026-08-28T17:53:22Z</time>
  <course>132.94</course>
  <speed>1.5357408635573906</speed>
  <fix>3d</fix>
</trkpt>
<trkpt lat="40.0712321" lon="-105.2292586">
  <ele>1583.0</ele>
  <time>2026-08-28T17:53:22Z</time>
  <course>132.18</course>
  <speed>1.51</speed>
  <fix>3d</fix>
</trkpt>
<trkpt lat="40.0712291" lon="-105.229254">
  <ele>1583.1</ele>
  <time>2026-08-28T17:53:22Z</time>
  <course>133.37</course>
  <speed>1.5352198539622917</speed>
  <fix>3d</fix>
</trkpt>
<trkpt lat="40.0712302" lon="-105.2292559">
  <ele>1583.0</ele>
  <time>2026-08-28T17:53:22Z</time>
  <course>133.34</course>
  <speed>1.52</speed>
  <fix>3d</fix>
</trkpt>
<trkpt lat="40.0712282" lon="-105.2292527">
  <ele>1583.1</ele>
  <time>2026-08-28T17:53:22Z</time>
  <course>133.73</course>
  <speed>1.5279397893896212</speed>
  <fix>3d</fix>
</trkpt>
<trkpt lat="40.0712302" lon="-105.2292559">
  <ele>1583.0</ele>
  <time>2026-08-28T17:53:22Z</time>
  <course>133.34</course>
  <speed>1.52</speed>
  <fix>3d</fix>
</trkpt>
<trkpt lat="40.0712272" lon="-105.2292515">
  <ele>1583.1</ele>
  <time>2026-08-28T17:53:22Z</time>
  <course>134.04</course>
  <speed>1.5276125163142649</speed>
  <fix>3d</fix>
</trkpt>
<trkpt lat="40.0712283" lon="-105.2292534">
  <ele>1583.0</ele>
  <time>2026-08-28T17:53:22Z</time>
  <course>134.14</course>
  <speed>1.51</speed>
  <fix>3d</fix>
</trkpt>
<trkpt lat="40.0712262" lon="-105.2292502">
  <ele>1583.1</ele>
  <time>2026-08-28T17:53:22Z</time>
  <course>134.29</course>
  <speed>1.5204275714416653</speed>
  <fix>3d</fix>
</trkpt>
<trkpt lat="40.0712283" lon="-105.2292534">
  <ele>1583.0</ele>
  <time>2026-08-28T17:53:22Z</time>
  <course>134.14</course>
  <speed>1.51</speed>
  <fix>3d</fix>
</trkpt>
<trkpt lat="40.0712253" lon="-105.2292489">
  <ele>1583.1</ele>
  <time>2026-08-28T17:53:22Z</time>
  <course>134.49</course>
  <speed>1.506286825275983</speed>
  <fix>3d</fix>
</trkpt>
<trkpt lat="40.0712264" lon="-105.2292508">
  <ele>1583.0</ele>
  <time>2026-08-28T17:53:22Z</time>
  <course>134.7</course>
  <speed>1.5</speed>
  <fix>3d</fix>
</trkpt>
<trkpt lat="40.0712243" lon="-105.2292477">
  <ele>1583.1</ele>
  <time>2026-08-28T17:53:22Z</time>
  <course>134.66</course>
  <speed>1.4991330828182001</speed>
  <fix>3d</fix>
</trkpt>
<trkpt lat="40.0712264" lon="-105.2292508">
  <ele>1583.0</ele>
  <time>2026-08-28T17:53:22Z</time>
  <course>134.7</course>
  <speed>1.5</speed>
  <fix>3d</fix>
</trkpt>
<trkpt lat="40.0712233" lon="-105.2292465">
  <ele>1583.1</ele>
  <time>2026-08-28T17:53:22Z</time>
  <course>134.81</course>
  <speed>1.4920120642943877</speed>
  <fix>3d</fix>
</trkpt>
<trkpt lat="40.0712245" lon="-105.2292483">
  <ele>1583.0</ele>
  <time>2026-08-28T17:53:22Z</time>
  <course>135.08</course>
  <speed>1.48</speed>
  <fix>3d</fix>
</trkpt>
<trkpt lat="40.0712224" lon="-105.2292453">
  <ele>1583.1</ele>
  <time>2026-08-28T17:53:22Z</time>
  <course>134.92</course>
  <speed>1.4778700890132392</speed>
  <fix>3d</fix>
</trkpt>
<trkpt lat="40.0712245" lon="-105.2292483">
  <ele>1583.0</ele>
  <time>2026-08-28T17:53:22Z</time>
  <course>135.08</course>
  <speed>1.48</speed>
  <fix>3d</fix>
</trkpt>
<trkpt lat="40.0712213" lon="-105.2292438">
  <ele>1583.1</ele>
  <time>2026-08-28T17:53:22Z</time>
  <course>135.03</course>
  <speed>1.4707821048680187</speed>
  <fix>3d</fix>
</trkpt>
<trkpt lat="40.0712226" lon="-105.2292459">
  <ele>1583.0</ele>
  <time>2026-08-28T17:53:22Z</time>
  <course>135.34</course>
  <speed>1.46</speed>
  <fix>3d</fix>
</trkpt>
<trkpt lat="40.0712203" lon="-105.2292426">
  <ele>1583.1</ele>
  <time>2026-08-28T17:53:22Z</time>
  <course>135.11</course>
  <speed>1.456639969244288</speed>
  <fix>3d</fix>
</trkpt>
<trkpt lat="40.0712226" lon="-105.2292459">
  <ele>1583.0</ele>
  <time>2026-08-28T17:53:22Z</time>
  <course>135.34</course>
  <speed>1.46</speed>
  <fix>3d</fix>
</trkpt>
<trkpt lat="40.0712194" lon="-105.2292414">
  <ele>1583.1</ele>
  <time>2026-08-28T17:53:22Z</time>
  <course>135.17</course>
  <speed>1.442497833620557</speed>
  <fix>3d</fix>
</trkpt>
<trkpt lat="40.0712208" lon="-105.2292435">
  <ele>1583.0</ele>
  <time>2026-08-28T17:53:22Z</time>
  <course>135.52</course>
  <speed>1.44</speed>
  <fix>3d</fix>
</trkpt>
<trkpt lat="40.0712185" lon="-105.2292403">
  <ele>1583.1</ele>
  <time>2026-08-28T17:53:22Z</time>
  <course>135.22</course>
  <speed>1.4354441821262156</speed>
  <fix>3d</fix>
</trkpt>
<trkpt lat="40.0712208" lon="-105.2292435">
  <ele>1583.0</ele>
  <time>2026-08-28T17:53:22Z</time>
  <course>135.52</course>
  <speed>1.44</speed>
  <fix>3d</fix>
</trkpt>
<trkpt lat="40.0712175" lon="-105.2292391">
  <ele>1583.1</ele>
  <time>2026-08-28T17:53:22Z</time>
  <course>135.26</course>
  <speed>1.428355697996826</speed>
  <fix>3d</fix>
</trkpt>
<trkpt lat="40.071219" lon="-105.2292411">
  <ele>1583.0</ele>
  <time>2026-08-28T17:53:22Z</time>
  <course>135.64</course>
  <speed>1.42</speed>
  <fix>3d</fix>
</trkpt>
<trkpt lat="40.0712166" lon="-105.229238">
  <ele>1583.1</ele>
  <time>2026-08-28T17:53:22Z</time>
  <course>135.79</course>
  <speed>1.421442928857856</speed>
  <fix>3d</fix>
</trkpt>
<trkpt lat="40.071219" lon="-105.2292411">
  <ele>1583.0</ele>
  <time>2026-08-28T17:53:22Z</time>
  <course>135.64</course>
  <speed>1.42</speed>
  <fix>3d</fix>
</trkpt>
<trkpt lat="40.0712157" lon="-105.2292368">
  <ele>1583.1</ele>
  <time>2026-08-28T17:53:22Z</time>
  <course>137.48</course>
  <speed>1.4153444810363305</speed>
  <fix>3d</fix>
</trkpt>
<trkpt lat="40.0712171" lon="-105.2292388">
  <ele>1583.0</ele>
  <time>2026-08-28T17:53:22Z</time>
  <course>136.6</course>
  <speed>1.4</speed>
  <fix>3d</fix>
</trkpt>
<trkpt lat="40.0712148" lon="-105.2292358">
  <ele>1583.1</ele>
  <time>2026-08-28T17:53:22Z</time>
  <course>140.24</course>
  <speed>1.405844941663198</speed>
  <fix>3d</fix>
</trkpt>
<trkpt lat="40.0712171" lon="-105.2292388">
  <ele>1583.0</ele>
  <time>2026-08-28T17:53:22Z</time>
  <course>136.6</course>
  <speed>1.4</speed>
  <fix>3d</fix>
</trkpt>
<trkpt lat="40.0712138" lon="-105.2292348">
  <ele>1583.1</ele>
  <time>2026-08-28T17:53:22Z</time>
  <course>144.09</course>
  <speed>1.3961733416735902</speed>
  <fix>3d</fix>
</trkpt>
<trkpt lat="40.0712152" lon="-105.2292366">
  <ele>1583.0</ele>
  <time>2026-08-28T17:53:22Z</time>
  <course>140.6</course>
  <speed>1.39</speed>
  <fix>3d</fix>
</trkpt>
<trkpt lat="40.0712127" lon="-105.2292339">
  <ele>1583.1</ele>
  <time>2026-08-28T17:53:22Z</time>
  <course>148.98</course>
  <speed>1.3908630414242804</speed>
  <fix>3d</fix>
</trkpt>
<trkpt lat="40.0712152" lon="-105.2292366">
  <ele>1583.0</ele>
  <time>2026-08-28T17:53:22Z</time>
  <course>140.6</course>
  <speed>1.39</speed>
  <fix>3d</fix>
</trkpt>
<trkpt lat="40.0712116" lon="-105.2292332">
  <ele>1583.1</ele>
  <time>2026-08-28T17:53:22Z</time>
  <course>154.94</course>
  <speed>1.391294361377203</speed>
  <fix>3d</fix>
</trkpt>
<trkpt lat="40.0712132" lon="-105.2292347">
  <ele>1583.0</ele>
  <time>2026-08-28T17:53:22Z</time>
  <course>148.93</course>
  <speed>1.38</speed>
  <fix>3d</fix>
</trkpt>
<trkpt lat="40.0712107" lon="-105.2292327">
  <ele>1583.1</ele>
  <time>2026-08-28T17:53:22Z</time>
  <course>160.49</course>
  <speed>1.3884163640637488</speed>
  <fix>3d</fix>
</trkpt>
<trkpt lat="40.0712132" lon="-105.2292347">
  <ele>1583.0</ele>
  <time>2026-08-28T17:53:22Z</time>
  <course>148.93</course>
  <speed>1.38</speed>
  <fix>3d</fix>
</trkpt>
<trkpt lat="40.0712095" lon="-105.2292324">
  <ele>1583.1</ele>
  <time>2026-08-28T17:53:22Z</time>
  <course>168.27</course>
  <speed>1.3787313008704778</speed>
  <fix>3d</fix>
</trkpt>
<trkpt lat="40.071211" lon="-105.2292334">
  <ele>1583.0</ele>
  <time>2026-08-28T17:53:22Z</time>
  <course>161.45</course>
  <speed>1.37</speed>
  <fix>3d</fix>
</trkpt>
<trkpt lat="40.0712083" lon="-105.2292322">
  <ele>1583.1</ele>
  <time>2026-08-28T17:53:22Z</time>
  <course>176.93</course>
  <speed>1.381774221788784</speed>
  <fix>3d</fix>
</trkpt>
<trkpt lat="40.071211" lon="-105.2292334">
  <ele>1583.0</ele>
  <time>2026-08-28T17:53:22Z</time>
  <course>161.45</course>
  <speed>1.37</speed>
  <fix>3d</fix>
</trkpt>
<trkpt lat="40.071207" lon="-105.2292323">
  <ele>1583.1</ele>
  <time>2026-08-28T17:53:22Z</time>
  <course>185.11</course>
  <speed>1.375245432641025</speed>
  <fix>3d</fix>
</trkpt>
<trkpt lat="40.0712086" lon="-105.2292328">
  <ele>1583.0</ele>
  <time>2026-08-28T17:53:22Z</time>
  <course>177.2</course>
  <speed>1.36</speed>
  <fix>3d</fix>
</trkpt>
<trkpt lat="40.0712058" lon="-105.2292326">
  <ele>1583.1</ele>
  <time>2026-08-28T17:53:22Z</time>
  <course>192.31</course>
  <speed>1.3710215169719258</speed>
  <fix>3d</fix>
</trkpt>
<trkpt lat="40.0712086" lon="-105.2292328">
  <ele>1583.0</ele>
  <time>2026-08-28T17:53:22Z</time>
  <course>177.2</course>
  <speed>1.36</speed>
  <fix>3d</fix>
</trkpt>
<trkpt lat="40.0712046" lon="-105.2292332">
  <ele>1583.1</ele>
  <time>2026-08-28T17:53:22Z</time>
  <course>198.54</course>
  <speed>1.3819189556555045</speed>
  <fix>3d</fix>
</trkpt>
<trkpt lat="40.0712062" lon="-105.229233">
  <ele>1583.0</ele>
  <time>2026-08-28T17:53:22Z</time>
  <course>192.36</course>
  <speed>1.37</speed>
  <fix>3d</fix>
</trkpt>
<trkpt lat="40.0712034" lon="-105.2292337">
  <ele>1583.1</ele>
  <time>2026-08-28T17:53:22Z</time>
  <course>203.72</course>
  <speed>1.3788400922514545</speed>
  <fix>3d</fix>
</trkpt>
<trkpt lat="40.0712062" lon="-105.229233">
  <ele>1583.0</ele>
  <time>2026-08-28T17:53:22Z</time>
  <course>192.36</course>
  <speed>1.37</speed>
  <fix>3d</fix>
</trkpt>
<trkpt lat="40.0712023" lon="-105.2292345">
  <ele>1583.09</ele>
  <time>2026-08-28T17:53:22Z</time>
  <course>207.88</course>
  <speed>1.3870832707519762</speed>
  <fix>3d</fix>
</trkpt>
<trkpt lat="40.0712038" lon="-105.229234">
  <ele>1583.0</ele>
  <time>2026-08-28T17:53:22Z</time>
  <course>203.72</course>
  <speed>1.38</speed>
  <fix>3d</fix>
</trkpt>
<trkpt lat="40.0712012" lon="-105.2292354">
  <ele>1583.09</ele>
  <time>2026-08-28T17:53:22Z</time>
  <course>210.96</course>
  <speed>1.3823168956501979</speed>
  <fix>3d</fix>
</trkpt>
<trkpt lat="40.0712038" lon="-105.229234">
  <ele>1583.0</ele>
  <time>2026-08-28T17:53:22Z</time>
  <course>203.72</course>
  <speed>1.38</speed>
  <fix>3d</fix>
</trkpt>
<trkpt lat="40.0712002" lon="-105.2292363">
  <ele>1583.09</ele>
  <time>2026-08-28T17:53:22Z</time>
  <course>213.48</course>
  <speed>1.3895682782792647</speed>
  <fix>3d</fix>
</trkpt>
<trkpt lat="40.0712015" lon="-105.2292355">
  <ele>1583.0</ele>
  <time>2026-08-28T17:53:22Z</time>
  <course>211.16</course>
  <speed>1.39</speed>
  <fix>3d</fix>
</trkpt>
<trkpt lat="40.0711989" lon="-105.2292375">
  <ele>1583.08</ele>
  <time>2026-08-28T17:53:22Z</time>
  <course>215.98</course>
  <speed>1.3940229553346675</speed>
  <fix>3d</fix>
</trkpt>
<trkpt lat="40.0712015" lon="-105.2292355">
  <ele>1583.0</ele>
  <time>2026-08-28T17:53:22Z</time>
  <course>211.16</course>
  <speed>1.39</speed>
  <fix>3d</fix>
</trkpt>
<trkpt lat="40.0711979" lon="-105.2292386">
  <ele>1583.08</ele>
  <time>2026-08-28T17:53:22Z</time>
  <course>217.67</course>
  <speed>1.4024621207005914</speed>
  <fix>3d</fix>
</trkpt>
<trkpt lat="40.0711995" lon="-105.2292373">
  <ele>1583.0</ele>
  <time>2026-08-28T17:53:22Z</time>
  <course>215.9</course>
  <speed>1.39</speed>
  <fix>3d</fix>
</trkpt>
<trkpt lat="40.071197" lon="-105.2292397">
  <ele>1583.08</ele>
  <time>2026-08-28T17:53:22Z</time>
  <course>219.08</course>
  <speed>1.3994641831786907</speed>
  <fix>3d</fix>
</trkpt>
<trkpt lat="40.0711995" lon="-105.2292373">
  <ele>1583.0</ele>
  <time>2026-08-28T17:53:22Z</time>
  <course>215.9</course>
  <speed>1.39</speed>
  <fix>3d</fix>
</trkpt>
<trkpt lat="40.071196" lon="-105.2292408">
  <ele>1583.08</ele>
  <time>2026-08-28T17:53:22Z</time>
  <course>220.25</course>
  <speed>1.40356688476182</speed>
  <fix>3d</fix>
</trkpt>
<trkpt lat="40.0711975" lon="-105.2292393">
  <ele>1583.0</ele>
  <time>2026-08-28T17:53:22Z</time>
  <course>219.17</course>
  <speed>1.4</speed>
  <fix>3d</fix>
</trkpt>
<trkpt lat="40.0711951" lon="-105.2292419">
  <ele>1583.08</ele>
  <time>2026-08-28T17:53:22Z</time>
  <course>221.22</course>
  <speed>1.4018559127100045</speed>
  <fix>3d</fix>
</trkpt>
<trkpt lat="40.0711975" lon="-105.2292393">
  <ele>1583.0</ele>
  <time>2026-08-28T17:53:22Z</time>
  <course>219.17</course>
  <speed>1.4</speed>
  <fix>3d</fix>
</trkpt>
<trkpt lat="40.0711941" lon="-105.229243">
  <ele>1583.09</ele>
  <time>2026-08-28T17:53:22Z</time>
  <course>222.03</course>
  <speed>1.4012137595670404</speed>
  <fix>3d</fix>
</trkpt>
<trkpt lat="40.0711956" lon="-105.2292415">
  <ele>1583.0</ele>
  <time>2026-08-28T17:53:22Z</time>
  <course>221.44</course>
  <speed>1.4</speed>
  <fix>3d</fix>
</trkpt>
<trkpt lat="40.0711932" lon="-105.2292442">
  <ele>1583.09</ele>
  <time>2026-08-28T17:53:22Z</time>
  <course>222.71</course>
  <speed>1.4075865870347015</speed>
  <fix>3d</fix>
</trkpt>
<trkpt lat="40.0711956" lon="-105.2292415">
  <ele>1583.0</ele>
  <time>2026-08-28T17:53:22Z</time>
  <course>221.44</course>
  <speed>1.4</speed>
  <fix>3d</fix>
</trkpt>
<trkpt lat="40.0711923" lon="-105.2292453">
  <ele>1583.09</ele>
  <time>2026-08-28T17:53:22Z</time>
  <course>223.27</course>
  <speed>1.4073023839957068</speed>
  <fix>3d</fix>
</trkpt>
<trkpt lat="40.0711937" lon="-105.2292437">
  <ele>1583.0</ele>
  <time>2026-08-28T17:53:22Z</time>
  <course>223.01</course>
  <speed>1.4</speed>
  <fix>3d</fix>
</trkpt>
<trkpt lat="40.0711914" lon="-105.2292465">
  <ele>1583.09</ele>
  <time>2026-08-28T17:53:23Z</time>
  <course>223.73</course>
  <speed>1.4073023839957068</speed>
  <fix>3d</fix>
</trkpt>
<trkpt lat="40.0711937" lon="-105.2292437">
  <ele>1583.0</ele>
  <time>2026-08-28T17:53:23Z</time>
  <course>223.01</course>
  <speed>1.4</speed>
  <fix>3d</fix>
</trkpt>
<trkpt lat="40.0711905" lon="-105.2292476">
  <ele>1583.09</ele>
  <time>2026-08-28T17:53:23Z</time>
  <course>224.11</course>
  <speed>1.4071602609511116</speed>
  <fix>3d</fix>
</trkpt>
<trkpt lat="40.0711919" lon="-105.229246">
  <ele>1583.0</ele>
  <time>2026-08-28T17:53:23Z</time>
  <course>224.08</course>
  <speed>1.41</speed>
  <fix>3d</fix>
</trkpt>
<trkpt lat="40.0711896" lon="-105.2292488">
  <ele>1583.08</ele>
  <time>2026-08-28T17:53:23Z</time>
  <course>224.43</course>
  <speed>1.4071602609511116</speed>
  <fix>3d</fix>
</trkpt>
<trkpt lat="40.0711919" lon="-105.229246">
  <ele>1583.0</ele>
  <time>2026-08-28T17:53:23Z</time>
  <course>224.08</course>
  <speed>1.41</speed>
  <fix>3d</fix>
</trkpt>
<trkpt lat="40.0711889" lon="-105.2292498">
  <ele>1583.08</ele>
  <time>2026-08-28T17:53:23Z</time>
  <course>224.65</course>
  <speed>1.4071602609511116</speed>
  <fix>3d</fix>
</trkpt>
<trkpt lat="40.07119" lon="-105.2292483">
  <ele>1583.0</ele>
  <time>2026-08-28T17:53:23Z</time>
  <course>224.83</course>
  <speed>1.41</speed>
  <fix>3d</fix>
</trkpt>
<trkpt lat="40.071188" lon="-105.2292509">
  <ele>1583.08</ele>
  <time>2026-08-28T17:53:23Z</time>
  <course>224.87</course>
  <speed>1.4142842712835353</speed>
  <fix>3d</fix>
</trkpt>
<trkpt lat="40.07119" lon="-105.2292483">
  <ele>1583.0</ele>
  <time>2026-08-28T17:53:23Z</time>
  <course>224.83</course>
  <speed>1.41</speed>
  <fix>3d</fix>
</trkpt>
<trkpt lat="40.0711871" lon="-105.2292521">
  <ele>1583.08</ele>
  <time>2026-08-28T17:53:23Z</time>
  <course>225.05</course>
  <speed>1.4142842712835353</speed>
  <fix>3d</fix>
</trkpt>
<trkpt lat="40.0711883" lon="-105.2292507">
  <ele>1583.0</ele>
  <time>2026-08-28T17:53:23Z</time>
  <course>225.33</course>
  <speed>1.41</speed>
  <fix>3d</fix>
</trkpt>
<trkpt lat="40.0711862" lon="-105.2292533">
  <ele>1583.08</ele>
  <time>2026-08-28T17:53:23Z</time>
  <course>225.2</course>
  <speed>1.4142842712835353</speed>
  <fix>3d</fix>
</trkpt>
<trkpt lat="40.0711883" lon="-105.2292507">
  <ele>1583.0</ele>
  <time>2026-08-28T17:53:23Z</time>
  <course>225.33</course>
  <speed>1.41</speed>
  <fix>3d</fix>
</trkpt>
<trkpt lat="40.0711854" lon="-105.2292545">
  <ele>1583.08</ele>
  <time>2026-08-28T17:53:23Z</time>
  <course>225.32</course>
  <speed>1.4073023839957068</speed>
  <fix>3d</fix>
</trkpt>
<trkpt lat="40.0711864" lon="-105.229253">
  <ele>1583.0</ele>
  <time>2026-08-28T17:53:23Z</time>
  <course>225.67</course>
  <speed>1.41</speed>
  <fix>3d</fix>
</trkpt>
<trkpt lat="40.0711845" lon="-105.2292557">
  <ele>1583.08</ele>
  <time>2026-08-28T17:53:23Z</time>
  <course>225.42</course>
  <speed>1.4073023839957068</speed>
  <fix>3d</fix>
</trkpt>
<trkpt lat="40.0711864" lon="-105.229253">
  <ele>1583.0</ele>
  <time>2026-08-28T17:53:23Z</time>
  <course>225.67</course>
  <speed>1.41</speed>
  <fix>3d</fix>
</trkpt>
<trkpt lat="40.0711836" lon="-105.2292569">
  <ele>1583.08</ele>
  <time>2026-08-28T17:53:23Z</time>
  <course>225.5</course>
  <speed>1.4073023839957068</speed>
  <fix>3d</fix>
</trkpt>
<trkpt lat="40.0711847" lon="-105.2292554">
  <ele>1583.0</ele>
  <time>2026-08-28T17:53:23Z</time>
  <course>225.9</course>
  <speed>1.41</speed>
  <fix>3d</fix>
</trkpt>
<trkpt lat="40.0711827" lon="-105.2292581">
  <ele>1583.08</ele>
  <time>2026-08-28T17:53:23Z</time>
  <course>225.56</course>
  <speed>1.4073023839957068</speed>
  <fix>3d</fix>
</trkpt>
<trkpt lat="40.0711847" lon="-105.2292554">
  <ele>1583.0</ele>
  <time>2026-08-28T17:53:23Z</time>
  <course>225.9</course>
  <speed>1.41</speed>
  <fix>3d</fix>
</trkpt>
<trkpt lat="40.0711818" lon="-105.2292593">
  <ele>1583.09</ele>
  <time>2026-08-28T17:53:23Z</time>
  <course>225.6</course>
  <speed>1.4073023839957068</speed>
  <fix>3d</fix>
</trkpt>
<trkpt lat="40.071183" lon="-105.2292578">
  <ele>1583.0</ele>
  <time>2026-08-28T17:53:23Z</time>
  <course>226.04</course>
  <speed>1.41</speed>
  <fix>3d</fix>
</trkpt>
<trkpt lat="40.0711809" lon="-105.2292606">
  <ele>1583.09</ele>
  <time>2026-08-28T17:53:23Z</time>
  <course>225.64</course>
  <speed>1.4073023839957068</speed>
  <fix>3d</fix>
</trkpt>
<trkpt lat="40.071183" lon="-105.2292578">
  <ele>1583.0</ele>
  <time>2026-08-28T17:53:23Z</time>
  <course>226.04</course>
  <speed>1.41</speed>
  <fix>3d</fix>
</trkpt>
<trkpt lat="40.0711799" lon="-105.229262">
  <ele>1583.1</ele>
  <time>2026-08-28T17:53:23Z</time>
  <course>226.72</course>
  <speed>1.3938794782907167</speed>
  <fix>3d</fix>
</trkpt>
<trkpt lat="40.0711812" lon="-105.2292602">
  <ele>1583.0</ele>
  <time>2026-08-28T17:53:23Z</time>
  <course>226.51</course>
  <speed>1.41</speed>
  <fix>3d</fix>
</trkpt>
<trkpt lat="40.071179" lon="-105.2292632">
  <ele>1583.1</ele>
  <time>2026-08-28T17:53:23Z</time>
  <course>228.86</course>
  <speed>1.3753544997563356</speed>
  <fix>3d</fix>
</trkpt>
<trkpt lat="40.0711812" lon="-105.2292602">
  <ele>1583.0</ele>
  <time>2026-08-28T17:53:23Z</time>
  <course>226.51</course>
  <speed>1.41</speed>
  <fix>3d</fix>
</trkpt>
<trkpt lat="40.0711783" lon="-105.2292645">
  <ele>1583.1</ele>
  <time>2026-08-28T17:53:23Z</time>
  <course>232.07</course>
  <speed>1.3261221663180205</speed>
  <fix>3d</fix>
</trkpt>
<trkpt lat="40.0711795" lon="-105.2292626">
  <ele>1583.0</ele>
  <time>2026-08-28T17:53:23Z</time>
  <course>229.33</course>
  <speed>1.37</speed>
  <fix>3d</fix>
</trkpt>
<trkpt lat="40.0711776" lon="-105.2292657">
  <ele>1583.1</ele>
  <time>2026-08-28T17:53:23Z</time>
  <course>236.34</course>
  <speed>1.2702755606560334</speed>
  <fix>3d</fix>
</trkpt>
<trkpt lat="40.0711795" lon="-105.2292626">
  <ele>1583.0</ele>
  <time>2026-08-28T17:53:23Z</time>
  <course>229.33</course>
  <speed>1.37</speed>
  <fix>3d</fix>
</trkpt>
<trkpt lat="40.071177" lon="-105.229267">
  <ele>1583.1</ele>
  <time>2026-08-28T17:53:23Z</time>
  <course>241.65</course>
  <speed>1.1988327656516566</speed>
  <fix>3d</fix>
</trkpt>
<trkpt lat="40.071178" lon="-105.2292651">
  <ele>1583.0</ele>
  <time>2026-08-28T17:53:23Z</time>
  <course>236.26</course>
  <speed>1.27</speed>
  <fix>3d</fix>
</trkpt>
<trkpt lat="40.0711766" lon="-105.2292682">
  <ele>1583.11</ele>
  <time>2026-08-28T17:53:23Z</time>
  <course>247.94</course>
  <speed>1.1272089424769483</speed>
  <fix>3d</fix>
</trkpt>
<trkpt lat="40.071178" lon="-105.2292651">
  <ele>1583.0</ele>
  <time>2026-08-28T17:53:23Z</time>
  <course>236.26</course>
  <speed>1.27</speed>
  <fix>3d</fix>
</trkpt>
<trkpt lat="40.0711763" lon="-105.2292694">
  <ele>1583.11</ele>
  <time>2026-08-28T17:53:23Z</time>
  <course>254.79</course>
  <speed>1.0332473082471592</speed>
  <fix>3d</fix>
</trkpt>
<trkpt lat="40.071177" lon="-105.2292676">
  <ele>1583.0</ele>
  <time>2026-08-28T17:53:23Z</time>
  <course>247.1</course>
  <speed>1.13</speed>
  <fix>3d</fix>
</trkpt>
<trkpt lat="40.0711762" lon="-105.2292705">
  <ele>1583.1</ele>
  <time>2026-08-28T17:53:23Z</time>
  <course>261.11</course>
  <speed>0.9291393867445293</speed>
  <fix>3d</fix>
</trkpt>
<trkpt lat="40.071177" lon="-105.2292676">
  <ele>1583.0</ele>
  <time>2026-08-28T17:53:23Z</time>
  <course>247.1</course>
  <speed>1.13</speed>
  <fix>3d</fix>
</trkpt>
<trkpt lat="40.0711761" lon="-105.2292716">
  <ele>1583.1</ele>
  <time>2026-08-28T17:53:23Z</time>
  <course>266.77</course>
  <speed>0.8209750300709517</speed>
  <fix>3d</fix>
</trkpt>
<trkpt lat="40.0711764" lon="-105.2292699">
  <ele>1583.0</ele>
  <time>2026-08-28T17:53:23Z</time>
  <course>259.52</course>
  <speed>0.95</speed>
  <fix>3d</fix>
</trkpt>
<trkpt lat="40.0711761" lon="-105.2292725">
  <ele>1583.1</ele>
  <time>2026-08-28T17:53:23Z</time>
  <course>271.73</course>
  <speed>0.7102816342831905</speed>
  <fix>3d</fix>
</trkpt>
<trkpt lat="40.0711764" lon="-105.2292699">
  <ele>1583.0</ele>
  <time>2026-08-28T17:53:23Z</time>
  <course>259.52</course>
  <speed>0.95</speed>
  <fix>3d</fix>
</trkpt>
<trkpt lat="40.0711762" lon="-105.2292732">
  <ele>1583.1</ele>
  <time>2026-08-28T17:53:23Z</time>
  <course>275.96</course>
  <speed>0.5930430001273095</speed>
  <fix>3d</fix>
</trkpt>
<trkpt lat="40.0711763" lon="-105.2292719">
  <ele>1583.0</ele>
  <time>2026-08-28T17:53:23Z</time>
  <course>270.28</course>
  <speed>0.73</speed>
  <fix>3d</fix>
</trkpt>
<trkpt lat="40.0711762" lon="-105.2292737">
  <ele>1583.1</ele>
  <time>2026-08-28T17:53:23Z</time>
  <course>278.81</course>
  <speed>0.48662100242385753</speed>
  <fix>3d</fix>
</trkpt>
<trkpt lat="40.0711763" lon="-105.2292719">
  <ele>1583.0</ele>
  <time>2026-08-28T17:53:23Z</time>
  <course>270.28</course>
  <speed>0.73</speed>
  <fix>3d</fix>
</trkpt>
<trkpt lat="40.0711763" lon="-105.2292742">
  <ele>1583.1</ele>
  <time>2026-08-28T17:53:23Z</time>
  <course>281.63</course>
  <speed>0.3590264614203248</speed>
  <fix>3d</fix>
</trkpt>
<trkpt lat="40.0711764" lon="-105.2292733">
  <ele>1583.0</ele>
  <time>2026-08-28T17:53:23Z</time>
  <course>278.17</course>
  <speed>0.5</speed>
  <fix>3d</fix>
</trkpt>
<trkpt lat="40.0711764" lon="-105.2292745">
  <ele>1583.1</ele>
  <time>2026-08-28T17:53:23Z</time>
  <course>283.64</course>
  <speed>0.22803508501982758</speed>
  <fix>3d</fix>
</trkpt>
<trkpt lat="40.0711764" lon="-105.2292733">
  <ele>1583.0</ele>
  <time>2026-08-28T17:53:23Z</time>
  <course>278.17</course>
  <speed>0.5</speed>
  <fix>3d</fix>
</trkpt>
<trkpt lat="40.0711764" lon="-105.2292746">
  <ele>1583.11</ele>
  <time>2026-08-28T17:53:23Z</time>
  <course>284.84</course>
  <speed>0.1044030650891055</speed>
  <fix>3d</fix>
</trkpt>
<trkpt lat="40.0711765" lon="-105.2292742">
  <ele>1583.0</ele>
  <time>2026-08-28T17:53:23Z</time>
  <course>282.98</course>
  <speed>0.25</speed>
  <fix>3d</fix>
</trkpt>
<trkpt lat="40.0711764" lon="-105.2292747">
  <ele>1583.11</ele>
  <time>2026-08-28T17:53:23Z</time>
  <course>285.38</course>
  <speed>0.0316227766016838</speed>
  <fix>3d</fix>
</trkpt>
<trkpt lat="40.0711765" lon="-105.2292742">
  <ele>1583.0</ele>
  <time>2026-08-28T17:53:23Z</time>
  <course>282.98</course>
  <speed>0.25</speed>
  <fix>3d</fix>
</trkpt>
<trkpt lat="40.0711765" lon="-105.2292747">
  <ele>1583.11</ele>
  <time>2026-08-28T17:53:23Z</time>
  <course>285.71</course>
  <speed>0.022360679774997897</speed>
  <fix>3d</fix>
</trkpt>
<trkpt lat="40.0711765" lon="-105.2292746">
  <ele>1583.0</ele>
  <time>2026-08-28T17:53:23Z</time>
  <course>285.63</course>
  <speed>0.08</speed>
  <fix>3d</fix>
</trkpt>
<trkpt lat="40.0711765" lon="-105.2292747">
  <ele>1583.11</ele>
  <time>2026-08-28T17:53:23Z</time>
  <course>286.03</course>
  <speed>0.022360679774997897</speed>
  <fix>3d</fix>
</trkpt>
<trkpt lat="40.0711765" lon="-105.2292746">
  <ele>1583.0</ele>
  <time>2026-08-28T17:53:23Z</time>
  <course>285.63</course>
  <speed>0.08</speed>
  <fix>3d</fix>
</trkpt>
<trkpt lat="40.0711765" lon="-105.2292747">
  <ele>1583.12</ele>
  <time>2026-08-28T17:53:23Z</time>
  <course>286.34</course>
  <speed>0.022360679774997897</speed>
  <fix>3d</fix>
</trkpt>
<trkpt lat="40.0711765" lon="-105.2292747">
  <ele>1583.0</ele>
  <time>2026-08-28T17:53:23Z</time>
  <course>286.54</course>
  <speed>0.04</speed>
  <fix>3d</fix>
</trkpt>
<trkpt lat="40.0711765" lon="-105.2292747">
  <ele>1583.12</ele>
  <time>2026-08-28T17:53:23Z</time>
  <course>286.62</course>
  <speed>0.01</speed>
  <fix>3d</fix>
</trkpt>
<trkpt lat="40.0711765" lon="-105.2292747">
  <ele>1583.0</ele>
  <time>2026-08-28T17:53:23Z</time>
  <course>286.54</course>
  <speed>0.04</speed>
  <fix>3d</fix>
</trkpt>
<trkpt lat="40.0711765" lon="-105.2292748">
  <ele>1583.12</ele>
  <time>2026-08-28T17:53:23Z</time>
  <course>286.9</course>
  <speed>0.01</speed>
  <fix>3d</fix>
</trkpt>
<trkpt lat="40.0711766" lon="-105.2292748">
  <ele>1583.0</ele>
  <time>2026-08-28T17:53:23Z</time>
  <course>287.14</course>
  <speed>0.04</speed>
  <fix>3d</fix>
</trkpt>
<trkpt lat="40.0711765" lon="-105.2292748">
  <ele>1583.12</ele>
  <time>2026-08-28T17:53:23Z</time>
  <course>287.21</course>
  <speed>0.01</speed>
  <fix>3d</fix>
</trkpt>
<trkpt lat="40.0711766" lon="-105.2292748">
  <ele>1583.0</ele>
  <time>2026-08-28T17:53:23Z</time>
  <course>287.14</course>
  <speed>0.04</speed>
  <fix>3d</fix>
</trkpt>
<trkpt lat="40.0711765" lon="-105.2292748">
  <ele>1583.12</ele>
  <time>2026-08-28T17:53:23Z</time>
  <course>287.45</course>
  <speed>0.01</speed>
  <fix>3d</fix>
</trkpt>
<trkpt lat="40.0711766" lon="-105.2292749">
  <ele>1583.0</ele>
  <time>2026-08-28T17:53:23Z</time>
  <course>287.68</course>
  <speed>0.04</speed>
  <fix>3d</fix>
</trkpt>
<trkpt lat="40.0711765" lon="-105.2292748">
  <ele>1583.12</ele>
  <time>2026-08-28T17:53:23Z</time>
  <course>287.68</course>
  <speed>0.01</speed>
  <fix>3d</fix>
</trkpt>
<trkpt lat="40.0711766" lon="-105.2292749">
  <ele>1583.0</ele>
  <time>2026-08-28T17:53:23Z</time>
  <course>287.68</course>
  <speed>0.04</speed>
  <fix>3d</fix>
</trkpt>
<trkpt lat="40.0711765" lon="-105.2292749">
  <ele>1583.12</ele>
  <time>2026-08-28T17:53:23Z</time>
  <course>287.9</course>
  <speed>0.01</speed>
  <fix>3d</fix>
</trkpt>
<trkpt lat="40.0711766" lon="-105.229275">
  <ele>1583.0</ele>
  <time>2026-08-28T17:53:23Z</time>
  <course>288.16</course>
  <speed>0.03</speed>
  <fix>3d</fix>
</trkpt>
<trkpt lat="40.0711765" lon="-105.2292749">
  <ele>1583.12</ele>
  <time>2026-08-28T17:53:23Z</time>
  <course>288.11</course>
  <speed>0.01</speed>
  <fix>3d</fix>
</trkpt>
<trkpt lat="40.0711766" lon="-105.229275">
  <ele>1583.0</ele>
  <time>2026-08-28T17:53:23Z</time>
  <course>288.16</course>
  <speed>0.03</speed>
  <fix>3d</fix>
</trkpt>
<trkpt lat="40.0711765" lon="-105.2292749">
  <ele>1583.12</ele>
  <time>2026-08-28T17:53:23Z</time>
  <course>288.31</course>
  <speed>0.0</speed>
  <fix>3d</fix>
</trkpt>
<trkpt lat="40.0711766" lon="-105.2292751">
  <ele>1583.0</ele>
  <time>2026-08-28T17:53:23Z</time>
  <course>288.6</course>
  <speed>0.03</speed>
  <fix>3d</fix>
</trkpt>
<trkpt lat="40.0711766" lon="-105.229275">
  <ele>1583.12</ele>
  <time>2026-08-28T17:53:23Z</time>
  <course>288.5</course>
  <speed>0.0</speed>
  <fix>3d</fix>
</trkpt>
<trkpt lat="40.0711766" lon="-105.2292751">
  <ele>1583.0</ele>
  <time>2026-08-28T17:53:23Z</time>
  <course>288.6</course>
  <speed>0.03</speed>
  <fix>3d</fix>
</trkpt>
<trkpt lat="40.0711766" lon="-105.229275">
  <ele>1583.12</ele>
  <time>2026-08-28T17:53:23Z</time>
  <course>288.68</course>
  <speed>0.0</speed>
  <fix>3d</fix>
</trkpt>
<trkpt lat="40.0711766" lon="-105.2292751">
  <ele>1583.0</ele>
  <time>2026-08-28T17:53:23Z</time>
  <course>289.0</course>
  <speed>0.02</speed>
  <fix>3d</fix>
</trkpt>
<trkpt lat="40.0711765" lon="-105.229275">
  <ele>1583.12</ele>
  <time>2026-08-28T17:53:23Z</time>
  <course>288.85</course>
  <speed>0.0</speed>
  <fix>3d</fix>
</trkpt>
<trkpt lat="40.0711766" lon="-105.2292751">
  <ele>1583.0</ele>
  <time>2026-08-28T17:53:23Z</time>
  <course>289.0</course>
  <speed>0.02</speed>
  <fix>3d</fix>
</trkpt>
<trkpt lat="40.0711765" lon="-105.229275">
  <ele>1583.12</ele>
  <time>2026-08-28T17:53:23Z</time>
  <course>289.01</course>
  <speed>0.0</speed>
  <fix>3d</fix>
</trkpt>
<trkpt lat="40.0711766" lon="-105.2292752">
  <ele>1583.0</ele>
  <time>2026-08-28T17:53:23Z</time>
  <course>289.36</course>
  <speed>0.02</speed>
  <fix>3d</fix>
</trkpt>
<trkpt lat="40.0711766" lon="-105.2292751">
  <ele>1583.12</ele>
  <time>2026-08-28T17:53:23Z</time>
  <course>289.16</course>
  <speed>0.0</speed>
  <fix>3d</fix>
</trkpt>
<trkpt lat="40.0711766" lon="-105.2292752">
  <ele>1583.0</ele>
  <time>2026-08-28T17:53:23Z</time>
  <course>289.36</course>
  <speed>0.02</speed>
  <fix>3d</fix>
</trkpt>
<trkpt lat="40.0711766" lon="-105.2292751">
  <ele>1583.12</ele>
  <time>2026-08-28T17:53:23Z</time>
  <course>289.28</course>
  <speed>0.0</speed>
  <fix>3d</fix>
</trkpt>
<trkpt lat="40.0711766" lon="-105.2292753">
  <ele>1583.0</ele>
  <time>2026-08-28T17:53:23Z</time>
  <course>289.69</course>
  <speed>0.02</speed>
  <fix>3d</fix>
</trkpt>
<trkpt lat="40.0711766" lon="-105.2292751">
  <ele>1583.12</ele>
  <time>2026-08-28T17:53:23Z</time>
  <course>289.42</course>
  <speed>0.01</speed>
  <fix>3d</fix>
</trkpt>
<trkpt lat="40.0711766" lon="-105.2292753">
  <ele>1583.0</ele>
  <time>2026-08-28T17:53:23Z</time>
  <course>289.69</course>
  <speed>0.02</speed>
  <fix>3d</fix>
</trkpt>
<trkpt lat="40.0711766" lon="-105.2292751">
  <ele>1583.12</ele>
  <time>2026-08-28T17:53:23Z</time>
  <course>289.56</course>
  <speed>0.01</speed>
  <fix>3d</fix>
</trkpt>
<trkpt lat="40.0711766" lon="-105.2292753">
  <ele>1583.0</ele>
  <time>2026-08-28T17:53:23Z</time>
  <course>289.98</course>
  <speed>0.02</speed>
  <fix>3d</fix>
</trkpt>
<trkpt lat="40.0711766" lon="-105.2292752">
  <ele>1583.12</ele>
  <time>2026-08-28T17:53:23Z</time>
  <course>289.68</course>
  <speed>0.01</speed>
  <fix>3d</fix>
</trkpt>
<trkpt lat="40.0711766" lon="-105.2292753">
  <ele>1583.0</ele>
  <time>2026-08-28T17:53:23Z</time>
  <course>289.98</course>
  <speed>0.02</speed>
  <fix>3d</fix>
</trkpt>
<trkpt lat="40.0711766" lon="-105.2292752">
  <ele>1583.12</ele>
  <time>2026-08-28T17:53:23Z</time>
  <course>289.8</course>
  <speed>0.01</speed>
  <fix>3d</fix>
</trkpt>
<trkpt lat="40.0711766" lon="-105.2292753">
  <ele>1583.0</ele>
  <time>2026-08-28T17:53:23Z</time>
  <course>290.25</course>
  <speed>0.01</speed>
  <fix>3d</fix>
</trkpt>
<trkpt lat="40.0711766" lon="-105.2292752">
  <ele>1583.12</ele>
  <time>2026-08-28T17:53:23Z</time>
  <course>289.92</course>
  <speed>0.01</speed>
  <fix>3d</fix>
</trkpt>
<trkpt lat="40.0711766" lon="-105.2292753">
  <ele>1583.0</ele>
  <time>2026-08-28T17:53:23Z</time>
  <course>290.25</course>
  <speed>0.01</speed>
  <fix>3d</fix>
</trkpt>
<trkpt lat="40.0711766" lon="-105.2292752">
  <ele>1583.13</ele>
  <time>2026-08-28T17:53:23Z</time>
  <course>290.03</course>
  <speed>0.01414213562373095</speed>
  <fix>3d</fix>
</trkpt>
<trkpt lat="40.0711766" lon="-105.2292754">
  <ele>1583.0</ele>
  <time>2026-08-28T17:53:23Z</time>
  <course>290.5</course>
  <speed>0.01</speed>
  <fix>3d</fix>
</trkpt>
<trkpt lat="40.0711766" lon="-105.2292753">
  <ele>1583.13</ele>
  <time>2026-08-28T17:53:23Z</time>
  <course>290.16</course>
  <speed>0.01414213562373095</speed>
  <fix>3d</fix>
</trkpt>
<trkpt lat="40.0711766" lon="-105.2292754">
  <ele>1583.0</ele>
  <time>2026-08-28T17:53:23Z</time>
  <course>290.5</course>
  <speed>0.01</speed>
  <fix>3d</fix>
</trkpt>
<trkpt lat="40.0711766" lon="-105.2292753">
  <ele>1583.14</ele>
  <time>2026-08-28T17:53:23Z</time>
  <course>290.32</course>
  <speed>0.022360679774997897</speed>
  <fix>3d</fix>
</trkpt>
<trkpt lat="40.0711766" lon="-105.2292755">
  <ele>1583.0</ele>
  <time>2026-08-28T17:53:23Z</time>
  <course>290.8</course>
  <speed>0.02</speed>
  <fix>3d</fix>
</trkpt>
<trkpt lat="40.0711766" lon="-105.2292754">
  <ele>1583.14</ele>
  <time>2026-08-28T17:53:23Z</time>
  <course>290.58</course>
  <speed>0.04</speed>
  <fix>3d</fix>
</trkpt>
<trkpt lat="40.0711766" lon="-105.2292755">
  <ele>1583.0</ele>
  <time>2026-08-28T17:53:23Z</time>
  <course>290.8</course>
  <speed>0.02</speed>
  <fix>3d</fix>
</trkpt>
<trkpt lat="40.0711766" lon="-105.2292755">
  <ele>1583.15</ele>
  <time>2026-08-28T17:53:23Z</time>
  <course>290.83</course>
  <speed>0.06</speed>
  <fix>3d</fix>
</trkpt>
<trkpt lat="40.0711767" lon="-105.2292755">
  <ele>1583.0</ele>
  <time>2026-08-28T17:53:23Z</time>
  <course>291.23</course>
  <speed>0.04</speed>
  <fix>3d</fix>
</trkpt>
<trkpt lat="40.0711766" lon="-105.2292756">
  <ele>1583.15</ele>
  <time>2026-08-28T17:53:23Z</time>
  <course>291.07</course>
  <speed>0.08</speed>
  <fix>3d</fix>
</trkpt>
<trkpt lat="40.0711767" lon="-105.2292755">
  <ele>1583.0</ele>
  <time>2026-08-28T17:53:23Z</time>
  <course>291.23</course>
  <speed>0.04</speed>
  <fix>3d</fix>
</trkpt>
<trkpt lat="40.0711766" lon="-105.2292757">
  <ele>1583.15</ele>
  <time>2026-08-28T17:53:23Z</time>
  <course>291.27</course>
  <speed>0.1118033988749895</speed>
  <fix>3d</fix>
</trkpt>
<trkpt lat="40.0711767" lon="-105.2292756">
  <ele>1583.0</ele>
  <time>2026-08-28T17:53:23Z</time>
  <course>291.68</course>
  <speed>0.08</speed>
  <fix>3d</fix>
</trkpt>
<trkpt lat="40.0711766" lon="-105.2292759">
  <ele>1583.15</ele>
  <time>2026-08-28T17:53:23Z</time>
  <course>291.4</course>
  <speed>0.14317821063276354</speed>
  <fix>3d</fix>
</trkpt>
<trkpt lat="40.0711767" lon="-105.2292756">
  <ele>1583.0</ele>
  <time>2026-08-28T17:53:23Z</time>
  <course>291.68</course>
  <speed>0.08</speed>
  <fix>3d</fix>
</trkpt>
<trkpt lat="40.0711766" lon="-105.2292761">
  <ele>1583.16</ele>
  <time>2026-08-28T17:53:23Z</time>
  <course>291.57</course>
  <speed>0.18439088914585774</speed>
  <fix>3d</fix>
</trkpt>
<trkpt lat="40.0711768" lon="-105.2292759">
  <ele>1583.0</ele>
  <time>2026-08-28T17:53:23Z</time>
  <course>292.04</course>
  <speed>0.14</speed>
  <fix>3d</fix>
</trkpt>
<trkpt lat="40.0711767" lon="-105.2292763">
  <ele>1583.16</ele>
  <time>2026-08-28T17:53:23Z</time>
  <course>291.79</course>
  <speed>0.23769728648009425</speed>
  <fix>3d</fix>
</trkpt>
<trkpt lat="40.0711768" lon="-105.2292759">
  <ele>1583.0</ele>
  <time>2026-08-28T17:53:23Z</time>
  <course>292.04</course>
  <speed>0.14</speed>
  <fix>3d</fix>
</trkpt>
<trkpt lat="40.0711768" lon="-105.2292766">
  <ele>1583.16</ele>
  <time>2026-08-28T17:53:23Z</time>
  <course>292.06</course>
  <speed>0.2816025568065745</speed>
  <fix>3d</fix>
</trkpt>
<trkpt lat="40.071177" lon="-105.2292763">
  <ele>1583.0</ele>
  <time>2026-08-28T17:53:23Z</time>
  <course>292.44</course>
  <speed>0.23</speed>
  <fix>3d</fix>
</trkpt>
<trkpt lat="40.0711769" lon="-105.229277">
  <ele>1583.16</ele>
  <time>2026-08-28T17:53:23Z</time>
  <course>292.38</course>
  <speed>0.34481879299133333</speed>
  <fix>3d</fix>
</trkpt>
<trkpt lat="40.071177" lon="-105.2292763">
  <ele>1583.0</ele>
  <time>2026-08-28T17:53:23Z</time>
  <course>292.44</course>
  <speed>0.23</speed>
  <fix>3d</fix>
</trkpt>
<trkpt lat="40.0711771" lon="-105.2292774">
  <ele>1583.16</ele>
  <time>2026-08-28T17:53:23Z</time>
  <course>292.76</course>
  <speed>0.4016217125604641</speed>
  <fix>3d</fix>
</trkpt>
<trkpt lat="40.0711771" lon="-105.2292769">
  <ele>1583.0</ele>
  <time>2026-08-28T17:53:23Z</time>
  <course>293.03</course>
  <speed>0.33</speed>
  <fix>3d</fix>
</trkpt>
<trkpt lat="40.0711772" lon="-105.2292779">
  <ele>1583.16</ele>
  <time>2026-08-28T17:53:23Z</time>
  <course>293.17</course>
  <speed>0.468187996428785</speed>
  <fix>3d</fix>
</trkpt>
<trkpt lat="40.0711771" lon="-105.2292769">
  <ele>1583.0</ele>
  <time>2026-08-28T17:53:23Z</time>
  <course>293.03</course>
  <speed>0.33</speed>
  <fix>3d</fix>
</trkpt>
<trkpt lat="40.0711774" lon="-105.2292785">
  <ele>1583.16</ele>
  <time>2026-08-28T17:53:23Z</time>
  <course>293.62</course>
  <speed>0.5348831648126533</speed>
  <fix>3d</fix>
</trkpt>
<trkpt lat="40.0711775" lon="-105.2292777">
  <ele>1583.0</ele>
  <time>2026-08-28T17:53:23Z</time>
  <course>293.8</course>
  <speed>0.45</speed>
  <fix>3d</fix>
</trkpt>
<trkpt lat="40.0711776" lon="-105.229279">
  <ele>1583.16</ele>
  <time>2026-08-28T17:53:23Z</time>
  <course>294.0</course>
  <speed>0.6016643582596529</speed>
  <fix>3d</fix>
</trkpt>
<trkpt lat="40.0711775" lon="-105.2292777">
  <ele>1583.0</ele>
  <time>2026-08-28T17:53:23Z</time>
  <course>293.8</course>
  <speed>0.45</speed>
  <fix>3d</fix>
</trkpt>
<trkpt lat="40.0711778" lon="-105.2292797">
  <ele>1583.16</ele>
  <time>2026-08-28T17:53:23Z</time>
  <course>294.47</course>
  <speed>0.6685057965343307</speed>
  <fix>3d</fix>
</trkpt>
<trkpt lat="40.0711778" lon="-105.2292789">
  <ele>1583.0</ele>
  <time>2026-08-28T17:53:23Z</time>
  <course>294.7</course>
  <speed>0.59</speed>
  <fix>3d</fix>
</trkpt>
<trkpt lat="40.0711781" lon="-105.2292804">
  <ele>1583.16</ele>
  <time>2026-08-28T17:53:23Z</time>
  <course>294.95</course>
  <speed>0.7484650960465692</speed>
  <fix>3d</fix>
</trkpt>
<trkpt lat="40.0711778" lon="-105.2292789">
  <ele>1583.0</ele>
  <time>2026-08-28T17:53:23Z</time>
  <course>294.7</course>
  <speed>0.59</speed>
  <fix>3d</fix>
</trkpt>
<trkpt lat="40.0711784" lon="-105.2292813">
  <ele>1583.16</ele>
  <time>2026-08-28T17:53:23Z</time>
  <course>295.4</course>
  <speed>0.8285529554590945</speed>
  <fix>3d</fix>
</trkpt>
<trkpt lat="40.0711783" lon="-105.2292803">
  <ele>1583.0</ele>
  <time>2026-08-28T17:53:23Z</time>
  <course>295.63</course>
  <speed>0.74</speed>
  <fix>3d</fix>
</trkpt>
<trkpt lat="40.0711788" lon="-105.2292823">
  <ele>1583.15</ele>
  <time>2026-08-28T17:53:23Z</time>
  <course>295.82</course>
  <speed>0.9219544457292888</speed>
  <fix>3d</fix>
</trkpt>
<trkpt lat="40.0711783" lon="-105.2292803">
  <ele>1583.0</ele>
  <time>2026-08-28T17:53:23Z</time>
  <course>295.63</course>
  <speed>0.74</speed>
  <fix>3d</fix>
</trkpt>
<trkpt lat="40.0711792" lon="-105.2292833">
  <ele>1583.15</ele>
  <time>2026-08-28T17:53:23Z</time>
  <course>296.18</course>
  <speed>1.0022474744293448</speed>
  <fix>3d</fix>
</trkpt>
<trkpt lat="40.071179" lon="-105.2292821">
  <ele>1583.0</ele>
  <time>2026-08-28T17:53:23Z</time>
  <course>296.47</course>
  <speed>0.9</speed>
  <fix>3d</fix>
</trkpt>
<trkpt lat="40.0711796" lon="-105.2292844">
  <ele>1583.15</ele>
  <time>2026-08-28T17:53:23Z</time>
  <course>296.49</course>
  <speed>1.0916501271011696</speed>
  <fix>3d</fix>
</trkpt>
<trkpt lat="40.071179" lon="-105.2292821">
  <ele>1583.0</ele>
  <time>2026-08-28T17:53:23Z</time>
  <course>296.47</course>
  <speed>0.9</speed>
  <fix>3d</fix>
</trkpt>
<trkpt lat="40.0711801" lon="-105.2292857">
  <ele>1583.15</ele>
  <time>2026-08-28T17:53:23Z</time>
  <course>296.73</course>
  <speed>1.1853269591129698</speed>
  <fix>3d</fix>
</trkpt>
<trkpt lat="40.0711798" lon="-105.2292842">
  <ele>1583.0</ele>
  <time>2026-08-28T17:53:23Z</time>
  <course>297.12</course>
  <speed>1.07</speed>
  <fix>3d</fix>
</trkpt>
<trkpt lat="40.0711806" lon="-105.229287">
  <ele>1583.15</ele>
  <time>2026-08-28T17:53:23Z</time>
  <course>296.93</course>
  <speed>1.2657408897558773</speed>
  <fix>3d</fix>
</trkpt>
<trkpt lat="40.0711798" lon="-105.2292842">
  <ele>1583.0</ele>
  <time>2026-08-28T17:53:23Z</time>
  <course>297.12</course>
  <speed>1.07</speed>
  <fix>3d</fix>
</trkpt>
<trkpt lat="40.0711813" lon="-105.2292887">
  <ele>1583.15</ele>
  <time>2026-08-28T17:53:23Z</time>
  <course>297.11</course>
  <speed>1.3819189556555045</speed>
  <fix>3d</fix>
</trkpt>
<trkpt lat="40.0711807" lon="-105.2292866">
  <ele>1583.0</ele>
  <time>2026-08-28T17:53:23Z</time>
  <course>297.56</course>
  <speed>1.24</speed>
  <fix>3d</fix>
</trkpt>
<trkpt lat="40.0711819" lon="-105.2292902">
  <ele>1583.15</ele>
  <time>2026-08-28T17:53:23Z</time>
  <course>297.23</course>
  <speed>1.4713599151805108</speed>
  <fix>3d</fix>
</trkpt>
<trkpt lat="40.0711807" lon="-105.2292866">
  <ele>1583.0</ele>
  <time>2026-08-28T17:53:23Z</time>
  <course>297.56</course>
  <speed>1.24</speed>
  <fix>3d</fix>
</trkpt>
<trkpt lat="40.0711825" lon="-105.2292918">
  <ele>1583.15</ele>
  <time>2026-08-28T17:53:23Z</time>
  <course>297.32</course>
  <speed>1.5652475842498526</speed>
  <fix>3d</fix>
</trkpt>
<trkpt lat="40.0711819" lon="-105.2292894">
  <ele>1583.0</ele>
  <time>2026-08-28T17:53:23Z</time>
  <course>297.84</course>
  <speed>1.42</speed>
  <fix>3d</fix>
</trkpt>
<trkpt lat="40.0711832" lon="-105.2292935">
  <ele>1583.15</ele>
  <time>2026-08-28T17:53:23Z</time>
  <course>297.39</course>
  <speed>1.663640586184408</speed>
  <fix>3d</fix>
</trkpt>
<trkpt lat="40.0711819" lon="-105.2292894">
  <ele>1583.0</ele>
  <time>2026-08-28T17:53:23Z</time>
  <course>297.84</course>
  <speed>1.42</speed>
  <fix>3d</fix>
</trkpt>
<trkpt lat="40.0711839" lon="-105.2292953">
  <ele>1583.15</ele>
  <time>2026-08-28T17:53:23Z</time>
  <course>297.44</course>
  <speed>1.7575551200460255</speed>
  <fix>3d</fix>
</trkpt>
<trkpt lat="40.0711832" lon="-105.2292925">
  <ele>1583.0</ele>
  <time>2026-08-28T17:53:23Z</time>
  <course>298.01</course>
  <speed>1.6</speed>
  <fix>3d</fix>
</trkpt>
<trkpt lat="40.0711847" lon="-105.2292972">
  <ele>1583.14</ele>
  <time>2026-08-28T17:53:23Z</time>
  <course>297.48</course>
  <speed>1.8469975636150686</speed>
  <fix>3d</fix>
</trkpt>
<trkpt lat="40.0711832" lon="-105.2292925">
  <ele>1583.0</ele>
  <time>2026-08-28T17:53:23Z</time>
  <course>298.01</course>
  <speed>1.6</speed>
  <fix>3d</fix>
</trkpt>
<trkpt lat="40.0711855" lon="-105.2292991">
  <ele>1583.14</ele>
  <time>2026-08-28T17:53:23Z</time>
  <course>297.5</course>
  <speed>1.9498717906570164</speed>
  <fix>3d</fix>
</trkpt>
<trkpt lat="40.0711846" lon="-105.229296">
  <ele>1583.0</ele>
  <time>2026-08-28T17:53:23Z</time>
  <course>298.1</course>
  <speed>1.79</speed>
  <fix>3d</fix>
</trkpt>
<trkpt lat="40.0711863" lon="-105.2293012">
  <ele>1583.13</ele>
  <time>2026-08-28T17:53:23Z</time>
  <course>297.5</course>
  <speed>2.0438444167793204</speed>
  <fix>3d</fix>
</trkpt>
<trkpt lat="40.0711846" lon="-105.229296">
  <ele>1583.0</ele>
  <time>2026-08-28T17:53:23Z</time>
  <course>298.1</course>
  <speed>1.79</speed>
  <fix>3d</fix>
</trkpt>
<trkpt lat="40.0711872" lon="-105.2293033">
  <ele>1583.13</ele>
  <time>2026-08-28T17:53:23Z</time>
  <course>297.51</course>
  <speed>2.133283853592859</speed>
  <fix>3d</fix>
</trkpt>
<trkpt lat="40.0711862" lon="-105.2292999">
  <ele>1583.0</ele>
  <time>2026-08-28T17:53:23Z</time>
  <course>298.13</course>
  <speed>1.97</speed>
  <fix>3d</fix>
</trkpt>
<trkpt lat="40.0711881" lon="-105.2293056">
  <ele>1583.12</ele>
  <time>2026-08-28T17:53:23Z</time>
  <course>297.51</course>
  <speed>2.2361797781037196</speed>
  <fix>3d</fix>
</trkpt>
<trkpt lat="40.0711862" lon="-105.2292999">
  <ele>1583.0</ele>
  <time>2026-08-28T17:53:23Z</time>
  <course>298.13</course>
  <speed>1.97</speed>
  <fix>3d</fix>
</trkpt>
<trkpt lat="40.0711891" lon="-105.2293079">
  <ele>1583.12</ele>
  <time>2026-08-28T17:53:23Z</time>
  <course>297.51</course>
  <speed>2.325618197383225</speed>
  <fix>3d</fix>
</trkpt>
<trkpt lat="40.0711879" lon="-105.2293042">
  <ele>1583.0</ele>
  <time>2026-08-28T17:53:23Z</time>
  <course>298.13</course>
  <speed>2.17</speed>
  <fix>3d</fix>
</trkpt>
<trkpt lat="40.0711899" lon="-105.2293099">
  <ele>1583.12</ele>
  <time>2026-08-28T17:53:23Z</time>
  <course>297.51</course>
  <speed>2.4061587645041214</speed>
  <fix>3d</fix>
</trkpt>
<trkpt lat="40.0711879" lon="-105.2293042">
  <ele>1583.0</ele>
  <time>2026-08-28T17:53:23Z</time>
  <course>298.13</course>
  <speed>2.17</speed>
  <fix>3d</fix>
</trkpt>
<trkpt lat="40.0711909" lon="-105.2293124">
  <ele>1583.12</ele>
  <time>2026-08-28T17:53:23Z</time>
  <course>297.51</course>
  <speed>2.5090635703385438</speed>
  <fix>3d</fix>
</trkpt>
<trkpt lat="40.0711898" lon="-105.2293089">
  <ele>1583.0</ele>
  <time>2026-08-28T17:53:23Z</time>
  <course>298.13</course>
  <speed>2.36</speed>
  <fix>3d</fix>
</trkpt>
<trkpt lat="40.071192" lon="-105.229315">
  <ele>1583.13</ele>
  <time>2026-08-28T17:53:23Z</time>
  <course>297.48</course>
  <speed>2.607393334347543</speed>
  <fix>3d</fix>
</trkpt>
<trkpt lat="40.0711898" lon="-105.2293089">
  <ele>1583.0</ele>
  <time>2026-08-28T17:53:23Z</time>
  <course>298.13</course>
  <speed>2.36</speed>
  <fix>3d</fix>
</trkpt>
<trkpt lat="40.0711931" lon="-105.2293178">
  <ele>1583.13</ele>
  <time>2026-08-28T17:53:23Z</time>
  <course>297.45</course>
  <speed>2.7102951868754075</speed>
  <fix>3d</fix>
</trkpt>
<trkpt lat="40.0711919" lon="-105.229314">
  <ele>1583.0</ele>
  <time>2026-08-28T17:53:23Z</time>
  <course>298.1</course>
  <speed>2.55</speed>
  <fix>3d</fix>
</trkpt>
<trkpt lat="40.0711943" lon="-105.2293206">
  <ele>1583.13</ele>
  <time>2026-08-28T17:53:23Z</time>
  <course>297.42</course>
  <speed>2.8086295590554484</speed>
  <fix>3d</fix>
</trkpt>
<trkpt lat="40.0711919" lon="-105.229314">
  <ele>1583.0</ele>
  <time>2026-08-28T17:53:23Z</time>
  <course>298.1</course>
  <speed>2.55</speed>
  <fix>3d</fix>
</trkpt>
<trkpt lat="40.0711955" lon="-105.2293236">
  <ele>1583.13</ele>
  <time>2026-08-28T17:53:23Z</time>
  <course>297.38</course>
  <speed>2.911528808031959</speed>
  <fix>3d</fix>
</trkpt>
<trkpt lat="40.0711942" lon="-105.2293195">
  <ele>1583.0</ele>
  <time>2026-08-28T17:53:23Z</time>
  <course>298.02</course>
  <speed>2.75</speed>
  <fix>3d</fix>
</trkpt>
<trkpt lat="40.0711967" lon="-105.2293267">
  <ele>1583.13</ele>
  <time>2026-08-28T17:53:23Z</time>
  <course>297.35</course>
  <speed>3.0098671067008924</speed>
  <fix>3d</fix>
</trkpt>
<trkpt lat="40.0711942" lon="-105.2293195">
  <ele>1583.0</ele>
  <time>2026-08-28T17:53:23Z</time>
  <course>298.02</course>
  <speed>2.75</speed>
  <fix>3d</fix>
</trkpt>
<trkpt lat="40.071198" lon="-105.2293298">
  <ele>1583.13</ele>
  <time>2026-08-28T17:53:23Z</time>
  <course>297.31</course>
  <speed>3.1127640450249356</speed>
  <fix>3d</fix>
</trkpt>
<trkpt lat="40.0711966" lon="-105.2293255">
  <ele>1583.0</ele>
  <time>2026-08-28T17:53:23Z</time>
  <course>297.95</course>
  <speed>2.95</speed>
  <fix>3d</fix>
</trkpt>
<trkpt lat="40.0711994" lon="-105.2293332">
  <ele>1583.13</ele>
  <time>2026-08-28T17:53:23Z</time>
  <course>297.27</course>
  <speed>3.2156647835245513</speed>
  <fix>3d</fix>
</trkpt>
<trkpt lat="40.0711966" lon="-105.2293255">
  <ele>1583.0</ele>
  <time>2026-08-28T17:53:23Z</time>
  <course>297.95</course>
  <speed>2.95</speed>
  <fix>3d</fix>
</trkpt>
<trkpt lat="40.0712007" lon="-105.2293366">
  <ele>1583.13</ele>
  <time>2026-08-28T17:53:23Z</time>
  <course>297.23</course>
  <speed>3.3140006035002467</speed>
  <fix>3d</fix>
</trkpt>
<trkpt lat="40.0711991" lon="-105.2293318">
  <ele>1583.0</ele>
  <time>2026-08-28T17:53:23Z</time>
  <course>297.86</course>
  <speed>3.14</speed>
  <fix>3d</fix>
</trkpt>
<trkpt lat="40.0712024" lon="-105.2293408">
  <ele>1583.14</ele>
  <time>2026-08-28T17:53:23Z</time>
  <course>297.18</course>
  <speed>3.430364412128834</speed>
  <fix>3d</fix>
</trkpt>
<trkpt lat="40.0711991" lon="-105.2293318">
  <ele>1583.0</ele>
  <time>2026-08-28T17:53:23Z</time>
  <course>297.86</course>
  <speed>3.14</speed>
  <fix>3d</fix>
</trkpt>
<trkpt lat="40.0712039" lon="-105.2293444">
  <ele>1583.14</ele>
  <time>2026-08-28T17:53:23Z</time>
  <course>297.14</course>
  <speed>3.5286966432381233</speed>
  <fix>3d</fix>
</trkpt>
<trkpt lat="40.0712019" lon="-105.2293385">
  <ele>1583.0</ele>
  <time>2026-08-28T17:53:23Z</time>
  <course>297.78</course>
  <speed>3.34</speed>
  <fix>3d</fix>
</trkpt>
<trkpt lat="40.0712054" lon="-105.2293481">
  <ele>1583.14</ele>
  <time>2026-08-28T17:53:23Z</time>
  <course>297.09</course>
  <speed>3.6270373585062505</speed>
  <fix>3d</fix>
</trkpt>
<trkpt lat="40.0712019" lon="-105.2293385">
  <ele>1583.0</ele>
  <time>2026-08-28T17:53:23Z</time>
  <course>297.78</course>
  <speed>3.34</speed>
  <fix>3d</fix>
</trkpt>
<trkpt lat="40.0712069" lon="-105.2293519">
  <ele>1583.14</ele>
  <time>2026-08-28T17:53:23Z</time>
  <course>297.05</course>
  <speed>3.7299329752691266</speed>
  <fix>3d</fix>
</trkpt>
<trkpt lat="40.0712048" lon="-105.2293456">
  <ele>1583.0</ele>
  <time>2026-08-28T17:53:23Z</time>
  <course>297.68</course>
  <speed>3.54</speed>
  <fix>3d</fix>
</trkpt>
<trkpt lat="40.0712085" lon="-105.2293558">
  <ele>1583.14</ele>
  <time>2026-08-28T17:53:23Z</time>
  <course>297.0</course>
  <speed>3.8282763745581376</speed>
  <fix>3d</fix>
</trkpt>
<trkpt lat="40.0712048" lon="-105.2293456">
  <ele>1583.0</ele>
  <time>2026-08-28T17:53:23Z</time>
  <course>297.68</course>
  <speed>3.54</speed>
  <fix>3d</fix>
</trkpt>
<trkpt lat="40.0712101" lon="-105.2293599">
  <ele>1583.15</ele>
  <time>2026-08-28T17:53:23Z</time>
  <course>296.95</course>
  <speed>3.931170309208188</speed>
  <fix>3d</fix>
</trkpt>
<trkpt lat="40.0712078" lon="-105.2293532">
  <ele>1583.0</ele>
  <time>2026-08-28T17:53:23Z</time>
  <course>297.58</course>
  <speed>3.73</speed>
  <fix>3d</fix>
</trkpt>
<trkpt lat="40.0712117" lon="-105.2293639">
  <ele>1583.15</ele>
  <time>2026-08-28T17:53:23Z</time>
  <course>296.9</course>
  <speed>4.029516099980245</speed>
  <fix>3d</fix>
</trkpt>
<trkpt lat="40.0712078" lon="-105.2293532">
  <ele>1583.0</ele>
  <time>2026-08-28T17:53:23Z</time>
  <course>297.58</course>
  <speed>3.73</speed>
  <fix>3d</fix>
</trkpt>
<trkpt lat="40.0712134" lon="-105.2293681">
  <ele>1583.15</ele>
  <time>2026-08-28T17:53:23Z</time>
  <course>296.84</course>
  <speed>4.12786869946223</speed>
  <fix>3d</fix>
</trkpt>
<trkpt lat="40.071211" lon="-105.2293612">
  <ele>1583.0</ele>
  <time>2026-08-28T17:53:23Z</time>
  <course>297.48</course>
  <speed>3.93</speed>
  <fix>3d</fix>
</trkpt>
<trkpt lat="40.0712151" lon="-105.2293724">
  <ele>1583.15</ele>
  <time>2026-08-28T17:53:23Z</time>
  <course>296.79</course>
  <speed>4.2262276322981</speed>
  <fix>3d</fix>
</trkpt>
<trkpt lat="40.071211" lon="-105.2293612">
  <ele>1583.0</ele>
  <time>2026-08-28T17:53:23Z</time>
  <course>297.48</course>
  <speed>3.93</speed>
  <fix>3d</fix>
</trkpt>
<trkpt lat="40.0712168" lon="-105.2293768">
  <ele>1583.16</ele>
  <time>2026-08-28T17:53:23Z</time>
  <course>296.73</course>
  <speed>4.324592466348708</speed>
  <fix>3d</fix>
</trkpt>
<trkpt lat="40.0712144" lon="-105.2293696">
  <ele>1583.0</ele>
  <time>2026-08-28T17:53:23Z</time>
  <course>297.37</course>
  <speed>4.13</speed>
  <fix>3d</fix>
</trkpt>
<trkpt lat="40.0712186" lon="-105.2293813">
  <ele>1583.16</ele>
  <time>2026-08-28T17:53:23Z</time>
  <course>296.67</course>
  <speed>4.418551798949515</speed>
  <fix>3d</fix>
</trkpt>
<trkpt lat="40.0712144" lon="-105.2293696">
  <ele>1583.0</ele>
  <time>2026-08-28T17:53:23Z</time>
  <course>297.37</course>
  <speed>4.13</speed>
  <fix>3d</fix>
</trkpt>
<trkpt lat="40.0712201" lon="-105.229385">
  <ele>1583.16</ele>
  <time>2026-08-28T17:53:23Z</time>
  <course>296.64</course>
  <speed>4.503476434933351</speed>
  <fix>3d</fix>
</trkpt>
<trkpt lat="40.0712179" lon="-105.2293785">
  <ele>1583.0</ele>
  <time>2026-08-28T17:53:23Z</time>
  <course>297.26</course>
  <speed>4.33</speed>
  <fix>3d</fix>
</trkpt>
<trkpt lat="40.0712219" lon="-105.2293897">
  <ele>1583.16</ele>
  <time>2026-08-28T17:53:23Z</time>
  <course>296.59</course>
  <speed>4.601847455098876</speed>
  <fix>3d</fix>
</trkpt>
<trkpt lat="40.0712179" lon="-105.2293785">
  <ele>1583.0</ele>
  <time>2026-08-28T17:53:23Z</time>
  <course>297.26</course>
  <speed>4.33</speed>
  <fix>3d</fix>
</trkpt>
<trkpt lat="40.0712238" lon="-105.2293945">
  <ele>1583.16</ele>
  <time>2026-08-28T17:53:23Z</time>
  <course>296.57</course>
  <speed>4.704721033175081</speed>
  <fix>3d</fix>
</trkpt>
<trkpt lat="40.0712215" lon="-105.2293877">
  <ele>1583.0</ele>
  <time>2026-08-28T17:53:23Z</time>
  <course>297.17</course>
  <speed>4.53</speed>
  <fix>3d</fix>
</trkpt>
<trkpt lat="40.0712258" lon="-105.2293994">
  <ele>1583.16</ele>
  <time>2026-08-28T17:53:23Z</time>
  <course>296.53</course>
  <speed>4.794163117792301</speed>
  <fix>3d</fix>
</trkpt>
<trkpt lat="40.0712215" lon="-105.2293877">
  <ele>1583.0</ele>
  <time>2026-08-28T17:53:23Z</time>
  <course>297.17</course>
  <speed>4.53</speed>
  <fix>3d</fix>
</trkpt>
<trkpt lat="40.0712277" lon="-105.2294044">
  <ele>1583.16</ele>
  <time>2026-08-28T17:53:23Z</time>
  <course>296.48</course>
  <speed>4.892535130175357</speed>
  <fix>3d</fix>
</trkpt>
<trkpt lat="40.0712252" lon="-105.2293974">
  <ele>1583.0</ele>
  <time>2026-08-28T17:53:23Z</time>
  <course>297.09</course>
  <speed>4.72</speed>
  <fix>3d</fix>
</trkpt>
<trkpt lat="40.0712298" lon="-105.2294096">
  <ele>1583.16</ele>
  <time>2026-08-28T17:53:23Z</time>
  <course>296.46</course>
  <speed>4.973047355495421</speed>
  <fix>3d</fix>
</trkpt>
<trkpt lat="40.0712252" lon="-105.2293974">
  <ele>1583.0</ele>
  <time>2026-08-28T17:53:23Z</time>
  <course>297.09</course>
  <speed>4.72</speed>
  <fix>3d</fix>
</trkpt>
<trkpt lat="40.0712318" lon="-105.2294148">
  <ele>1583.16</ele>
  <time>2026-08-28T17:53:23Z</time>
  <course>296.43</course>
  <speed>5.049059318328514</speed>
  <fix>3d</fix>
</trkpt>
<trkpt lat="40.0712292" lon="-105.2294074">
  <ele>1583.0</ele>
  <time>2026-08-28T17:53:23Z</time>
  <course>297.02</course>
  <speed>4.9</speed>
  <fix>3d</fix>
</trkpt>
<trkpt lat="40.0712339" lon="-105.2294201">
  <ele>1583.15</ele>
  <time>2026-08-28T17:53:23Z</time>
  <course>296.39</course>
  <speed>5.125075609198365</speed>
  <fix>3d</fix>
</trkpt>
<trkpt lat="40.0712292" lon="-105.2294074">
  <ele>1583.0</ele>
  <time>2026-08-28T17:53:23Z</time>
  <course>297.02</course>
  <speed>4.9</speed>
  <fix>3d</fix>
</trkpt>
<trkpt lat="40.071236" lon="-105.2294255">
  <ele>1583.15</ele>
  <time>2026-08-28T17:53:23Z</time>
  <course>296.33</course>
  <speed>5.178735366863227</speed>
  <fix>3d</fix>
</trkpt>
<trkpt lat="40.0712333" lon="-105.2294178">
  <ele>1583.0</ele>
  <time>2026-08-28T17:53:23Z</time>
  <course>296.95</course>
  <speed>5.04</speed>
  <fix>3d</fix>
</trkpt>
<trkpt lat="40.0712381" lon="-105.229431">
  <ele>1583.15</ele>
  <time>2026-08-28T17:53:23Z</time>
  <course>296.31</course>
  <speed>5.232399067349507</speed>
  <fix>3d</fix>
</trkpt>
<trkpt lat="40.0712333" lon="-105.2294178">
  <ele>1583.0</ele>
  <time>2026-08-28T17:53:23Z</time>
  <course>296.95</course>
  <speed>5.04</speed>
  <fix>3d</fix>
</trkpt>
<trkpt lat="40.0712407" lon="-105.2294375">
  <ele>1583.15</ele>
  <time>2026-08-28T17:53:23Z</time>
  <course>296.26</course>
  <speed>5.268178053179295</speed>
  <fix>3d</fix>
</trkpt>
<trkpt lat="40.0712374" lon="-105.2294286">
  <ele>1583.0</ele>
  <time>2026-08-28T17:53:23Z</time>
  <course>296.86</course>
  <speed>5.14</speed>
  <fix>3d</fix>
</trkpt>
<trkpt lat="40.0712428" lon="-105.229443">
  <ele>1583.15</ele>
  <time>2026-08-28T17:53:23Z</time>
  <course>296.19</course>
  <speed>5.295016524997822</speed>
  <fix>3d</fix>
</trkpt>
<trkpt lat="40.0712374" lon="-105.2294286">
  <ele>1583.0</ele>
  <time>2026-08-28T17:53:23Z</time>
  <course>296.86</course>
  <speed>5.14</speed>
  <fix>3d</fix>
</trkpt>
<trkpt lat="40.0712449" lon="-105.2294486">
  <ele>1583.14</ele>
  <time>2026-08-28T17:53:23Z</time>
  <course>296.15</course>
  <speed>5.308427262381957</speed>
  <fix>3d</fix>
</trkpt>
<trkpt lat="40.0712416" lon="-105.2294394">
  <ele>1583.0</ele>
  <time>2026-08-28T17:53:23Z</time>
  <course>296.78</course>
  <speed>5.2</speed>
  <fix>3d</fix>
</trkpt>
<trkpt lat="40.0712471" lon="-105.2294541">
  <ele>1583.14</ele>
  <time>2026-08-28T17:53:23Z</time>
  <course>296.07</course>
  <speed>5.303970211077735</speed>
  <fix>3d</fix>
</trkpt>
<trkpt lat="40.0712416" lon="-105.2294394">
  <ele>1583.0</ele>
  <time>2026-08-28T17:53:23Z</time>
  <course>296.78</course>
  <speed>5.2</speed>
  <fix>3d</fix>
</trkpt>
<trkpt lat="40.0712492" lon="-105.2294596">
  <ele>1583.14</ele>
  <time>2026-08-28T17:53:23Z</time>
  <course>296.03</course>
  <speed>5.295016524997822</speed>
  <fix>3d</fix>
</trkpt>
<trkpt lat="40.0712458" lon="-105.2294503">
  <ele>1583.0</ele>
  <time>2026-08-28T17:53:23Z</time>
  <course>296.67</course>
  <speed>5.22</speed>
  <fix>3d</fix>
</trkpt>
<trkpt lat="40.0712513" lon="-105.229465">
  <ele>1583.14</ele>
  <time>2026-08-28T17:53:23Z</time>
  <course>295.96</course>
  <speed>5.2771678010084155</speed>
  <fix>3d</fix>
</trkpt>
<trkpt lat="40.0712458" lon="-105.2294503">
  <ele>1583.0</ele>
  <time>2026-08-28T17:53:23Z</time>
  <course>296.67</course>
  <speed>5.22</speed>
  <fix>3d</fix>
</trkpt>
<trkpt lat="40.0712533" lon="-105.2294705">
  <ele>1583.14</ele>
  <time>2026-08-28T17:53:23Z</time>
  <course>295.91</course>
  <speed>5.25480732282355</speed>
  <fix>3d</fix>
</trkpt>
<trkpt lat="40.0712501" lon="-105.2294613">
  <ele>1583.0</ele>
  <time>2026-08-28T17:53:23Z</time>
  <course>296.56</course>
  <speed>5.2</speed>
  <fix>3d</fix>
</trkpt>
<trkpt lat="40.0712554" lon="-105.2294758">
  <ele>1583.14</ele>
  <time>2026-08-28T17:53:23Z</time>
  <course>295.85</course>
  <speed>5.219051637989415</speed>
  <fix>3d</fix>
</trkpt>
<trkpt lat="40.0712501" lon="-105.2294613">
  <ele>1583.0</ele>
  <time>2026-08-28T17:53:23Z</time>
  <course>296.56</course>
  <speed>5.2</speed>
  <fix>3d</fix>
</trkpt>
<trkpt lat="40.0712574" lon="-105.2294812">
  <ele>1583.14</ele>
  <time>2026-08-28T17:53:23Z</time>
  <course>295.79</course>
  <speed>5.1966912550198705</speed>
  <fix>3d</fix>
</trkpt>
<trkpt lat="40.0712542" lon="-105.2294723">
  <ele>1583.0</ele>
  <time>2026-08-28T17:53:23Z</time>
  <course>296.45</course>
  <speed>5.16</speed>
  <fix>3d</fix>
</trkpt>
<trkpt lat="40.0712595" lon="-105.2294865">
  <ele>1583.14</ele>
  <time>2026-08-28T17:53:23Z</time>
  <course>295.75</course>
  <speed>5.160939836890176</speed>
  <fix>3d</fix>
</trkpt>
<trkpt lat="40.0712542" lon="-105.2294723">
  <ele>1583.0</ele>
  <time>2026-08-28T17:53:23Z</time>
  <course>296.45</course>
  <speed>5.16</speed>
  <fix>3d</fix>
</trkpt>
<trkpt lat="40.0712615" lon="-105.2294918">
  <ele>1583.14</ele>
  <time>2026-08-28T17:53:23Z</time>
  <course>295.67</course>
  <speed>5.125192679304847</speed>
  <fix>3d</fix>
</trkpt>
<trkpt lat="40.0712583" lon="-105.2294831">
  <ele>1583.0</ele>
  <time>2026-08-28T17:53:23Z</time>
  <course>296.34</course>
  <speed>5.11</speed>
  <fix>3d</fix>
</trkpt>
<trkpt lat="40.0712631" lon="-105.229496">
  <ele>1583.14</ele>
  <time>2026-08-28T17:53:23Z</time>
  <course>295.64</course>
  <speed>5.102832546733236</speed>
  <fix>3d</fix>
</trkpt>
<trkpt lat="40.0712583" lon="-105.2294831">
  <ele>1583.0</ele>
  <time>2026-08-28T17:53:23Z</time>
  <course>296.34</course>
  <speed>5.11</speed>
  <fix>3d</fix>
</trkpt>
<trkpt lat="40.0712651" lon="-105.2295013">
  <ele>1583.14</ele>
  <time>2026-08-28T17:53:23Z</time>
  <course>295.58</course>
  <speed>5.0670898946042</speed>
  <fix>3d</fix>
</trkpt>
<trkpt lat="40.0712623" lon="-105.2294938">
  <ele>1583.0</ele>
  <time>2026-08-28T17:53:23Z</time>
  <course>296.23</course>
  <speed>5.05</speed>
  <fix>3d</fix>
</trkpt>
<trkpt lat="40.071267" lon="-105.2295065">
  <ele>1583.14</ele>
  <time>2026-08-28T17:53:23Z</time>
  <course>295.53</course>
  <speed>5.031351707046527</speed>
  <fix>3d</fix>
</trkpt>
<trkpt lat="40.0712623" lon="-105.2294938">
  <ele>1583.0</ele>
  <time>2026-08-28T17:53:23Z</time>
  <course>296.23</course>
  <speed>5.05</speed>
  <fix>3d</fix>
</trkpt>
<trkpt lat="40.071269" lon="-105.2295117">
  <ele>1583.14</ele>
  <time>2026-08-28T17:53:23Z</time>
  <course>295.48</course>
  <speed>5.008991914547278</speed>
  <fix>3d</fix>
</trkpt>
<trkpt lat="40.0712663" lon="-105.2295043">
  <ele>1583.0</ele>
  <time>2026-08-28T17:53:23Z</time>
  <course>296.14</course>
  <speed>4.99</speed>
  <fix>3d</fix>
</trkpt>
<trkpt lat="40.0712709" lon="-105.2295169">
  <ele>1583.14</ele>
  <time>2026-08-28T17:53:23Z</time>
  <course>295.45</course>
  <speed>4.973258489159798</speed>
  <fix>3d</fix>
</trkpt>
<trkpt lat="40.0712663" lon="-105.2295043">
  <ele>1583.0</ele>
  <time>2026-08-28T17:53:23Z</time>
  <course>296.14</course>
  <speed>4.99</speed>
  <fix>3d</fix>
</trkpt>
<trkpt lat="40.0712729" lon="-105.2295221">
  <ele>1583.14</ele>
  <time>2026-08-28T17:53:23Z</time>
  <course>295.41</course>
  <speed>4.950898908279182</speed>
  <fix>3d</fix>
</trkpt>
<trkpt lat="40.0712702" lon="-105.2295148">
  <ele>1583.0</ele>
  <time>2026-08-28T17:53:23Z</time>
  <course>296.06</course>
  <speed>4.94</speed>
  <fix>3d</fix>
</trkpt>
<trkpt lat="40.0712748" lon="-105.2295273">
  <ele>1583.14</ele>
  <time>2026-08-28T17:53:23Z</time>
  <course>295.37</course>
  <speed>4.9375297467458354</speed>
  <fix>3d</fix>
</trkpt>
<trkpt lat="40.0712702" lon="-105.2295148">
  <ele>1583.0</ele>
  <time>2026-08-28T17:53:23Z</time>
  <course>296.06</course>
  <speed>4.94</speed>
  <fix>3d</fix>
</trkpt>
<trkpt lat="40.0712768" lon="-105.2295325">
  <ele>1583.13</ele>
  <time>2026-08-28T17:53:23Z</time>
  <course>295.32</course>
  <speed>4.915170393791043</speed>
  <fix>3d</fix>
</trkpt>
<trkpt lat="40.0712741" lon="-105.2295252">
  <ele>1583.0</ele>
  <time>2026-08-28T17:53:23Z</time>
  <course>295.98</course>
  <speed>4.9</speed>
  <fix>3d</fix>
</trkpt>
<trkpt lat="40.0712787" lon="-105.2295377">
  <ele>1583.13</ele>
  <time>2026-08-28T17:53:23Z</time>
  <course>295.31</course>
  <speed>4.901805789706483</speed>
  <fix>3d</fix>
</trkpt>
<trkpt lat="40.0712741" lon="-105.2295252">
  <ele>1583.0</ele>
  <time>2026-08-28T17:53:23Z</time>
  <course>295.98</course>
  <speed>4.9</speed>
  <fix>3d</fix>
</trkpt>
<trkpt lat="40.0712806" lon="-105.2295428">
  <ele>1583.13</ele>
  <time>2026-08-28T17:53:23Z</time>
  <course>295.28</course>
  <speed>4.888445560707411</speed>
  <fix>3d</fix>
</trkpt>
<trkpt lat="40.071278" lon="-105.2295355">
  <ele>1583.0</ele>
  <time>2026-08-28T17:53:23Z</time>
  <course>295.92</course>
  <speed>4.87</speed>
  <fix>3d</fix>
</trkpt>
<trkpt lat="40.0712829" lon="-105.229549">
  <ele>1583.13</ele>
  <time>2026-08-28T17:53:23Z</time>
  <course>295.23</course>
  <speed>4.8660867234359895</speed>
  <fix>3d</fix>
</trkpt>
<trkpt lat="40.071278" lon="-105.2295355">
  <ele>1583.0</ele>
  <time>2026-08-28T17:53:23Z</time>
  <course>295.92</course>
  <speed>4.87</speed>
  <fix>3d</fix>
</trkpt>
<trkpt lat="40.0712848" lon="-105.2295541">
  <ele>1583.13</ele>
  <time>2026-08-28T17:53:23Z</time>
  <course>295.19</course>
  <speed>4.8660867234359895</speed>
  <fix>3d</fix>
</trkpt>
<trkpt lat="40.0712817" lon="-105.2295458">
  <ele>1583.0</ele>
  <time>2026-08-28T17:53:23Z</time>
  <course>295.87</course>
  <speed>4.84</speed>
  <fix>3d</fix>
</trkpt>
<trkpt lat="40.0712867" lon="-105.2295592">
  <ele>1583.13</ele>
  <time>2026-08-28T17:53:23Z</time>
  <course>295.19</course>
  <speed>4.852731189752839</speed>
  <fix>3d</fix>
</trkpt>
<trkpt lat="40.0712817" lon="-105.2295458">
  <ele>1583.0</ele>
  <time>2026-08-28T17:53:23Z</time>
  <course>295.87</course>
  <speed>4.84</speed>
  <fix>3d</fix>
</trkpt>
<trkpt lat="40.0712886" lon="-105.2295643">
  <ele>1583.13</ele>
  <time>2026-08-28T17:53:23Z</time>
  <course>295.15</course>
  <speed>4.852731189752839</speed>
  <fix>3d</fix>
</trkpt>
<trkpt lat="40.0712855" lon="-105.229556">
  <ele>1583.0</ele>
  <time>2026-08-28T17:53:23Z</time>
  <course>295.81</course>
  <speed>4.83</speed>
  <fix>3d</fix>
</trkpt>
<trkpt lat="40.0712905" lon="-105.2295694">
  <ele>1583.13</ele>
  <time>2026-08-28T17:53:23Z</time>
  <course>295.13</course>
  <speed>4.852731189752839</speed>
  <fix>3d</fix>
</trkpt>
<trkpt lat="40.0712855" lon="-105.229556">
  <ele>1583.0</ele>
  <time>2026-08-28T17:53:23Z</time>
  <course>295.81</course>
  <speed>4.83</speed>
  <fix>3d</fix>
</trkpt>
<trkpt lat="40.0712924" lon="-105.2295745">
  <ele>1583.13</ele>
  <time>2026-08-28T17:53:23Z</time>
  <course>295.11</course>
  <speed>4.852731189752839</speed>
  <fix>3d</fix>
</trkpt>
<trkpt lat="40.0712894" lon="-105.2295662">
  <ele>1583.0</ele>
  <time>2026-08-28T17:53:23Z</time>
  <course>295.77</course>
  <speed>4.83</speed>
  <fix>3d</fix>
</trkpt>
<trkpt lat="40.0712942" lon="-105.2295796">
  <ele>1583.13</ele>
  <time>2026-08-28T17:53:23Z</time>
  <course>295.08</course>
  <speed>4.852731189752839</speed>
  <fix>3d</fix>
</trkpt>
<trkpt lat="40.0712894" lon="-105.2295662">
  <ele>1583.0</ele>
  <time>2026-08-28T17:53:23Z</time>
  <course>295.77</course>
  <speed>4.83</speed>
  <fix>3d</fix>
</trkpt>
<trkpt lat="40.0712961" lon="-105.2295847">
  <ele>1583.13</ele>
  <time>2026-08-28T17:53:23Z</time>
  <course>295.08</course>
  <speed>4.8617383722286</speed>
  <fix>3d</fix>
</trkpt>
<trkpt lat="40.0712932" lon="-105.2295764">
  <ele>1583.0</ele>
  <time>2026-08-28T17:53:23Z</time>
  <course>295.75</course>
  <speed>4.83</speed>
  <fix>3d</fix>
</trkpt>
<trkpt lat="40.071298" lon="-105.2295897">
  <ele>1583.13</ele>
  <time>2026-08-28T17:53:23Z</time>
  <course>295.05</course>
  <speed>4.8617383722286</speed>
  <fix>3d</fix>
</trkpt>
<trkpt lat="40.0712932" lon="-105.2295764">
  <ele>1583.0</ele>
  <time>2026-08-28T17:53:23Z</time>
  <course>295.75</course>
  <speed>4.83</speed>
  <fix>3d</fix>
</trkpt>
<trkpt lat="40.0712998" lon="-105.2295948">
  <ele>1583.13</ele>
  <time>2026-08-28T17:53:23Z</time>
  <course>295.02</course>
  <speed>4.870749428989342</speed>
  <fix>3d</fix>
</trkpt>
<trkpt lat="40.071297" lon="-105.2295867">
  <ele>1583.0</ele>
  <time>2026-08-28T17:53:23Z</time>
  <course>295.71</course>
  <speed>4.84</speed>
  <fix>3d</fix>
</trkpt>
<trkpt lat="40.0713017" lon="-105.2295998">
  <ele>1583.13</ele>
  <time>2026-08-28T17:53:23Z</time>
  <course>295.02</course>
  <speed>4.870749428989342</speed>
  <fix>3d</fix>
</trkpt>
<trkpt lat="40.071297" lon="-105.2295867">
  <ele>1583.0</ele>
  <time>2026-08-28T17:53:23Z</time>
  <course>295.71</course>
  <speed>4.84</speed>
  <fix>3d</fix>
</trkpt>
<trkpt lat="40.0713032" lon="-105.229604">
  <ele>1583.13</ele>
  <time>2026-08-28T17:53:23Z</time>
  <course>294.99</course>
  <speed>4.879764338572099</speed>
  <fix>3d</fix>
</trkpt>
<trkpt lat="40.0713007" lon="-105.2295969">
  <ele>1583.0</ele>
  <time>2026-08-28T17:53:23Z</time>
  <course>295.67</course>
  <speed>4.86</speed>
  <fix>3d</fix>
</trkpt>
<trkpt lat="40.0713051" lon="-105.2296091">
  <ele>1583.12</ele>
  <time>2026-08-28T17:53:23Z</time>
  <course>294.98</course>
  <speed>4.879764338572099</speed>
  <fix>3d</fix>
</trkpt>
<trkpt lat="40.0713007" lon="-105.2295969">
  <ele>1583.0</ele>
  <time>2026-08-28T17:53:23Z</time>
  <course>295.67</course>
  <speed>4.86</speed>
  <fix>3d</fix>
</trkpt>
<trkpt lat="40.071307" lon="-105.2296142">
  <ele>1583.12</ele>
  <time>2026-08-28T17:53:23Z</time>
  <course>294.95</course>
  <speed>4.893107397145499</speed>
  <fix>3d</fix>
</trkpt>
<trkpt lat="40.0713044" lon="-105.2296073">
  <ele>1583.0</ele>
  <time>2026-08-28T17:53:23Z</time>
  <course>295.64</course>
  <speed>4.88</speed>
  <fix>3d</fix>
</trkpt>
<trkpt lat="40.0713089" lon="-105.2296194">
  <ele>1583.12</ele>
  <time>2026-08-28T17:53:23Z</time>
  <course>294.95</course>
  <speed>4.902121989506178</speed>
  <fix>3d</fix>
</trkpt>
<trkpt lat="40.0713044" lon="-105.2296073">
  <ele>1583.0</ele>
  <time>2026-08-28T17:53:23Z</time>
  <course>295.64</course>
  <speed>4.88</speed>
  <fix>3d</fix>
</trkpt>
<trkpt lat="40.0713108" lon="-105.2296246">
  <ele>1583.12</ele>
  <time>2026-08-28T17:53:23Z</time>
  <course>294.94</course>
  <speed>4.911140397097196</speed>
  <fix>3d</fix>
</trkpt>
<trkpt lat="40.0713083" lon="-105.2296176">
  <ele>1583.0</ele>
  <time>2026-08-28T17:53:23Z</time>
  <course>295.62</course>
  <speed>4.9</speed>
  <fix>3d</fix>
</trkpt>
<trkpt lat="40.0713127" lon="-105.2296298">
  <ele>1583.11</ele>
  <time>2026-08-28T17:53:23Z</time>
  <course>294.93</course>
  <speed>4.924479667944625</speed>
  <fix>3d</fix>
</trkpt>
<trkpt lat="40.0713083" lon="-105.2296176">
  <ele>1583.0</ele>
  <time>2026-08-28T17:53:23Z</time>
  <course>295.62</course>
  <speed>4.9</speed>
  <fix>3d</fix>
</trkpt>
<trkpt lat="40.0713146" lon="-105.229635">
  <ele>1583.11</ele>
  <time>2026-08-28T17:53:23Z</time>
  <course>294.92</course>
  <speed>4.9334977450081</speed>
  <fix>3d</fix>
</trkpt>
<trkpt lat="40.0713121" lon="-105.229628">
  <ele>1583.0</ele>
  <time>2026-08-28T17:53:23Z</time>
  <course>295.61</course>
  <speed>4.92</speed>
  <fix>3d</fix>
</trkpt>
<trkpt lat="40.0713166" lon="-105.2296403">
  <ele>1583.11</ele>
  <time>2026-08-28T17:53:23Z</time>
  <course>294.89</course>
  <speed>4.942519600365789</speed>
  <fix>3d</fix>
</trkpt>
<trkpt lat="40.0713121" lon="-105.229628">
  <ele>1583.0</ele>
  <time>2026-08-28T17:53:23Z</time>
  <course>295.61</course>
  <speed>4.92</speed>
  <fix>3d</fix>
</trkpt>
<trkpt lat="40.0713185" lon="-105.2296456">
  <ele>1583.11</ele>
  <time>2026-08-28T17:53:23Z</time>
  <course>294.86</course>
  <speed>4.951545213365218</speed>
  <fix>3d</fix>
</trkpt>
<trkpt lat="40.0713159" lon="-105.2296384">
  <ele>1583.0</ele>
  <time>2026-08-28T17:53:23Z</time>
  <course>295.57</course>
  <speed>4.93</speed>
  <fix>3d</fix>
</trkpt>
<trkpt lat="40.0713204" lon="-105.2296508">
  <ele>1583.11</ele>
  <time>2026-08-28T17:53:23Z</time>
  <course>294.84</course>
  <speed>4.951545213365218</speed>
  <fix>3d</fix>
</trkpt>
<trkpt lat="40.0713159" lon="-105.2296384">
  <ele>1583.0</ele>
  <time>2026-08-28T17:53:23Z</time>
  <course>295.57</course>
  <speed>4.93</speed>
  <fix>3d</fix>
</trkpt>
<trkpt lat="40.0713227" lon="-105.2296571">
  <ele>1583.11</ele>
  <time>2026-08-28T17:53:23Z</time>
  <course>294.79</course>
  <speed>4.938218302181466</speed>
  <fix>3d</fix>
</trkpt>
<trkpt lat="40.0713198" lon="-105.2296489">
  <ele>1583.0</ele>
  <time>2026-08-28T17:53:23Z</time>
  <course>295.51</course>
  <speed>4.93</speed>
  <fix>3d</fix>
</trkpt>
<trkpt lat="40.0713246" lon="-105.2296623">
  <ele>1583.11</ele>
  <time>2026-08-28T17:53:23Z</time>
  <course>294.76</course>
  <speed>4.915862081059639</speed>
  <fix>3d</fix>
</trkpt>
<trkpt lat="40.0713198" lon="-105.2296489">
  <ele>1583.0</ele>
  <time>2026-08-28T17:53:23Z</time>
  <course>295.51</course>
  <speed>4.93</speed>
  <fix>3d</fix>
</trkpt>
<trkpt lat="40.0713265" lon="-105.2296676">
  <ele>1583.12</ele>
  <time>2026-08-28T17:53:23Z</time>
  <course>294.71</course>
  <speed>4.889222842129411</speed>
  <fix>3d</fix>
</trkpt>
<trkpt lat="40.0713236" lon="-105.2296594">
  <ele>1583.0</ele>
  <time>2026-08-28T17:53:23Z</time>
  <course>295.45</course>
  <speed>4.9</speed>
  <fix>3d</fix>
</trkpt>
<trkpt lat="40.0713284" lon="-105.2296727">
  <ele>1583.12</ele>
  <time>2026-08-28T17:53:23Z</time>
  <course>294.66</course>
  <speed>4.844512359360847</speed>
  <fix>3d</fix>
</trkpt>
<trkpt lat="40.0713236" lon="-105.2296594">
  <ele>1583.0</ele>
  <time>2026-08-28T17:53:23Z</time>
  <course>295.45</course>
  <speed>4.9</speed>
  <fix>3d</fix>
</trkpt>
<trkpt lat="40.0713302" lon="-105.2296778">
  <ele>1583.12</ele>
  <time>2026-08-28T17:53:23Z</time>
  <course>294.59</course>
  <speed>4.799802079252852</speed>
  <fix>3d</fix>
</trkpt>
<trkpt lat="40.0713273" lon="-105.2296697">
  <ele>1583.0</ele>
  <time>2026-08-28T17:53:23Z</time>
  <course>295.36</course>
  <speed>4.84</speed>
  <fix>3d</fix>
</trkpt>
<trkpt lat="40.0713321" lon="-105.2296829">
  <ele>1583.12</ele>
  <time>2026-08-28T17:53:23Z</time>
  <course>294.52</course>
  <speed>4.728477556254233</speed>
  <fix>3d</fix>
</trkpt>
<trkpt lat="40.0713273" lon="-105.2296697">
  <ele>1583.0</ele>
  <time>2026-08-28T17:53:23Z</time>
  <course>295.36</course>
  <speed>4.84</speed>
  <fix>3d</fix>
</trkpt>
<trkpt lat="40.0713338" lon="-105.2296878">
  <ele>1583.12</ele>
  <time>2026-08-28T17:53:23Z</time>
  <course>294.46</course>
  <speed>4.652364989980902</speed>
  <fix>3d</fix>
</trkpt>
<trkpt lat="40.071331" lon="-105.2296798">
  <ele>1583.0</ele>
  <time>2026-08-28T17:53:23Z</time>
  <course>295.24</course>
  <speed>4.73</speed>
  <fix>3d</fix>
</trkpt>
<trkpt lat="40.0713356" lon="-105.2296926">
  <ele>1583.12</ele>
  <time>2026-08-28T17:53:23Z</time>
  <course>294.39</course>
  <speed>4.572001749780942</speed>
  <fix>3d</fix>
</trkpt>
<trkpt lat="40.071331" lon="-105.2296798">
  <ele>1583.0</ele>
  <time>2026-08-28T17:53:23Z</time>
  <course>295.24</course>
  <speed>4.73</speed>
  <fix>3d</fix>
</trkpt>
<trkpt lat="40.0713373" lon="-105.2296974">
  <ele>1583.11</ele>
  <time>2026-08-28T17:53:23Z</time>
  <course>294.33</course>
  <speed>4.4692952464566496</speed>
  <fix>3d</fix>
</trkpt>
<trkpt lat="40.0713346" lon="-105.2296897">
  <ele>1583.0</ele>
  <time>2026-08-28T17:53:23Z</time>
  <course>295.12</course>
  <speed>4.57</speed>
  <fix>3d</fix>
</trkpt>
<trkpt lat="40.0713389" lon="-105.229702">
  <ele>1583.11</ele>
  <time>2026-08-28T17:53:23Z</time>
  <course>294.26</course>
  <speed>4.357533706123224</speed>
  <fix>3d</fix>
</trkpt>
<trkpt lat="40.0713346" lon="-105.2296897">
  <ele>1583.0</ele>
  <time>2026-08-28T17:53:23Z</time>
  <course>295.12</course>
  <speed>4.57</speed>
  <fix>3d</fix>
</trkpt>
<trkpt lat="40.0713405" lon="-105.2297065">
  <ele>1583.11</ele>
  <time>2026-08-28T17:53:23Z</time>
  <course>294.2</course>
  <speed>4.245774369888254</speed>
  <fix>3d</fix>
</trkpt>
<trkpt lat="40.071338" lon="-105.2296993">
  <ele>1583.0</ele>
  <time>2026-08-28T17:53:23Z</time>
  <course>295.0</course>
  <speed>4.38</speed>
  <fix>3d</fix>
</trkpt>
<trkpt lat="40.0713418" lon="-105.22971">
  <ele>1583.11</ele>
  <time>2026-08-28T17:53:23Z</time>
  <course>294.16</course>
  <speed>4.156368607330202</speed>
  <fix>3d</fix>
</trkpt>
<trkpt lat="40.071338" lon="-105.2296993">
  <ele>1583.0</ele>
  <time>2026-08-28T17:53:23Z</time>
  <course>295.0</course>
  <speed>4.38</speed>
  <fix>3d</fix>
</trkpt>
<trkpt lat="40.0713433" lon="-105.2297143">
  <ele>1583.11</ele>
  <time>2026-08-28T17:53:23Z</time>
  <course>294.1</course>
  <speed>4.035542094935946</speed>
  <fix>3d</fix>
</trkpt>
<trkpt lat="40.0713412" lon="-105.2297084">
  <ele>1583.0</ele>
  <time>2026-08-28T17:53:23Z</time>
  <course>294.88</course>
  <speed>4.16</speed>
  <fix>3d</fix>
</trkpt>
<trkpt lat="40.0713448" lon="-105.2297185">
  <ele>1583.11</ele>
  <time>2026-08-28T17:53:23Z</time>
  <course>294.04</course>
  <speed>3.9105114754978025</speed>
  <fix>3d</fix>
</trkpt>
<trkpt lat="40.0713412" lon="-105.2297084">
  <ele>1583.0</ele>
  <time>2026-08-28T17:53:23Z</time>
  <course>294.88</course>
  <speed>4.16</speed>
  <fix>3d</fix>
</trkpt>
<trkpt lat="40.0713462" lon="-105.2297225">
  <ele>1583.11</ele>
  <time>2026-08-28T17:53:23Z</time>
  <course>293.99</course>
  <speed>3.7896833640820176</speed>
  <fix>3d</fix>
</trkpt>
<trkpt lat="40.0713442" lon="-105.229717">
  <ele>1583.0</ele>
  <time>2026-08-28T17:53:23Z</time>
  <course>294.77</course>
  <speed>3.92</speed>
  <fix>3d</fix>
</trkpt>
<trkpt lat="40.0713476" lon="-105.2297265">
  <ele>1583.1</ele>
  <time>2026-08-28T17:53:23Z</time>
  <course>293.93</course>
  <speed>3.6555847685425107</speed>
  <fix>3d</fix>
</trkpt>
<trkpt lat="40.0713442" lon="-105.229717">
  <ele>1583.0</ele>
  <time>2026-08-28T17:53:23Z</time>
  <course>294.77</course>
  <speed>3.92</speed>
  <fix>3d</fix>
</trkpt>
<trkpt lat="40.0713489" lon="-105.2297303">
  <ele>1583.1</ele>
  <time>2026-08-28T17:53:23Z</time>
  <course>293.88</course>
  <speed>3.521491161425796</speed>
  <fix>3d</fix>
</trkpt>
<trkpt lat="40.0713471" lon="-105.2297251">
  <ele>1583.0</ele>
  <time>2026-08-28T17:53:23Z</time>
  <course>294.67</course>
  <speed>3.67</speed>
  <fix>3d</fix>
</trkpt>
<trkpt lat="40.0713502" lon="-105.229734">
  <ele>1583.1</ele>
  <time>2026-08-28T17:53:23Z</time>
  <course>293.84</course>
  <speed>3.4006617003165722</speed>
  <fix>3d</fix>
</trkpt>
<trkpt lat="40.0713471" lon="-105.2297251">
  <ele>1583.0</ele>
  <time>2026-08-28T17:53:23Z</time>
  <course>294.67</course>
  <speed>3.67</speed>
  <fix>3d</fix>
</trkpt>
<trkpt lat="40.0713515" lon="-105.2297376">
  <ele>1583.1</ele>
  <time>2026-08-28T17:53:23Z</time>
  <course>293.79</course>
  <speed>3.266573127912492</speed>
  <fix>3d</fix>
</trkpt>
<trkpt lat="40.0713498" lon="-105.2297327">
  <ele>1583.0</ele>
  <time>2026-08-28T17:53:23Z</time>
  <course>294.57</course>
  <speed>3.41</speed>
  <fix>3d</fix>
</trkpt>
<trkpt lat="40.0713527" lon="-105.229741">
  <ele>1583.1</ele>
  <time>2026-08-28T17:53:23Z</time>
  <course>293.74</course>
  <speed>3.1366542684841754</speed>
  <fix>3d</fix>
</trkpt>
<trkpt lat="40.0713498" lon="-105.2297327">
  <ele>1583.0</ele>
  <time>2026-08-28T17:53:23Z</time>
  <course>294.57</course>
  <speed>3.41</speed>
  <fix>3d</fix>
</trkpt>
<trkpt lat="40.0713541" lon="-105.2297449">
  <ele>1583.1</ele>
  <time>2026-08-28T17:53:23Z</time>
  <course>293.68</course>
  <speed>2.9893143026453406</speed>
  <fix>3d</fix>
</trkpt>
<trkpt lat="40.0713523" lon="-105.2297397">
  <ele>1583.0</ele>
  <time>2026-08-28T17:53:23Z</time>
  <course>294.48</course>
  <speed>3.16</speed>
  <fix>3d</fix>
</trkpt>
<trkpt lat="40.0713551" lon="-105.229748">
  <ele>1583.1</ele>
  <time>2026-08-28T17:53:23Z</time>
  <course>293.59</course>
  <speed>2.859388046418324</speed>
  <fix>3d</fix>
</trkpt>
<trkpt lat="40.0713523" lon="-105.2297397">
  <ele>1583.0</ele>
  <time>2026-08-28T17:53:23Z</time>
  <course>294.48</course>
  <speed>3.16</speed>
  <fix>3d</fix>
</trkpt>
<trkpt lat="40.0713562" lon="-105.229751">
  <ele>1583.1</ele>
  <time>2026-08-28T17:53:23Z</time>
  <course>293.52</course>
  <speed>2.7344103569142653</speed>
  <fix>3d</fix>
</trkpt>
<trkpt lat="40.0713545" lon="-105.2297461">
  <ele>1583.0</ele>
  <time>2026-08-28T17:53:23Z</time>
  <course>294.36</course>
  <speed>2.91</speed>
  <fix>3d</fix>
</trkpt>
<trkpt lat="40.0713572" lon="-105.2297539">
  <ele>1583.1</ele>
  <time>2026-08-28T17:53:23Z</time>
  <course>293.44</course>
  <speed>2.6135799203391503</speed>
  <fix>3d</fix>
</trkpt>
<trkpt lat="40.0713545" lon="-105.2297461">
  <ele>1583.0</ele>
  <time>2026-08-28T17:53:23Z</time>
  <course>294.36</course>
  <speed>2.91</speed>
  <fix>3d</fix>
</trkpt>
<trkpt lat="40.0713581" lon="-105.2297566">
  <ele>1583.1</ele>
  <time>2026-08-28T17:53:23Z</time>
  <course>293.37</course>
  <speed>2.4927494860093744</speed>
  <fix>3d</fix>
</trkpt>
<trkpt lat="40.0713566" lon="-105.2297521">
  <ele>1583.0</ele>
  <time>2026-08-28T17:53:23Z</time>
  <course>294.2</course>
  <speed>2.66</speed>
  <fix>3d</fix>
</trkpt>
<trkpt lat="40.071359" lon="-105.2297592">
  <ele>1583.1</ele>
  <time>2026-08-28T17:53:23Z</time>
  <course>293.3</course>
  <speed>2.381029189237293</speed>
  <fix>3d</fix>
</trkpt>
<trkpt lat="40.0713566" lon="-105.2297521">
  <ele>1583.0</ele>
  <time>2026-08-28T17:53:23Z</time>
  <course>294.2</course>
  <speed>2.66</speed>
  <fix>3d</fix>
</trkpt>
<trkpt lat="40.0713599" lon="-105.2297616">
  <ele>1583.1</ele>
  <time>2026-08-28T17:53:23Z</time>
  <course>293.22</course>
  <speed>2.2601991062736047</speed>
  <fix>3d</fix>
</trkpt>
<trkpt lat="40.0713585" lon="-105.2297576">
  <ele>1583.0</ele>
  <time>2026-08-28T17:53:23Z</time>
  <course>294.06</course>
  <speed>2.43</speed>
  <fix>3d</fix>
</trkpt>
<trkpt lat="40.0713607" lon="-105.229764">
  <ele>1583.1</ele>
  <time>2026-08-28T17:53:23Z</time>
  <course>293.24</course>
  <speed>2.1484878403193255</speed>
  <fix>3d</fix>
</trkpt>
<trkpt lat="40.0713585" lon="-105.2297576">
  <ele>1583.0</ele>
  <time>2026-08-28T17:53:23Z</time>
  <course>294.06</course>
  <speed>2.43</speed>
  <fix>3d</fix>
</trkpt>
<trkpt lat="40.0713614" lon="-105.2297662">
  <ele>1583.1</ele>
  <time>2026-08-28T17:53:23Z</time>
  <course>293.23</course>
  <speed>2.0408821622033937</speed>
  <fix>3d</fix>
</trkpt>
<trkpt lat="40.0713602" lon="-105.2297626">
  <ele>1583.0</ele>
  <time>2026-08-28T17:53:23Z</time>
  <course>293.98</course>
  <speed>2.2</speed>
  <fix>3d</fix>
</trkpt>
<trkpt lat="40.0713621" lon="-105.2297683">
  <ele>1583.1</ele>
  <time>2026-08-28T17:53:23Z</time>
  <course>293.23</course>
  <speed>1.9423954283306992</speed>
  <fix>3d</fix>
</trkpt>
<trkpt lat="40.0713602" lon="-105.2297626">
  <ele>1583.0</ele>
  <time>2026-08-28T17:53:23Z</time>
  <course>293.98</course>
  <speed>2.2</speed>
  <fix>3d</fix>
</trkpt>
<trkpt lat="40.0713628" lon="-105.2297703">
  <ele>1583.1</ele>
  <time>2026-08-28T17:53:23Z</time>
  <course>293.23</course>
  <speed>1.8439088914585775</speed>
  <fix>3d</fix>
</trkpt>
<trkpt lat="40.0713617" lon="-105.2297671">
  <ele>1583.0</ele>
  <time>2026-08-28T17:53:23Z</time>
  <course>293.98</course>
  <speed>1.99</speed>
  <fix>3d</fix>
</trkpt>
<trkpt lat="40.0713635" lon="-105.2297722">
  <ele>1583.1</ele>
  <time>2026-08-28T17:53:23Z</time>
  <course>293.23</course>
  <speed>1.7454225849346627</speed>
  <fix>3d</fix>
</trkpt>
<trkpt lat="40.0713617" lon="-105.2297671">
  <ele>1583.0</ele>
  <time>2026-08-28T17:53:23Z</time>
  <course>293.98</course>
  <speed>1.99</speed>
  <fix>3d</fix>
</trkpt>
<trkpt lat="40.071364" lon="-105.2297737">
  <ele>1583.1</ele>
  <time>2026-08-28T17:53:23Z</time>
  <course>293.23</course>
  <speed>1.6783920876839238</speed>
  <fix>3d</fix>
</trkpt>
<trkpt lat="40.071363" lon="-105.2297711">
  <ele>1583.0</ele>
  <time>2026-08-28T17:53:23Z</time>
  <course>293.98</course>
  <speed>1.8</speed>
  <fix>3d</fix>
</trkpt>
<trkpt lat="40.0713646" lon="-105.2297754">
  <ele>1583.1</ele>
  <time>2026-08-28T17:53:23Z</time>
  <course>293.23</course>
  <speed>1.5890248582070703</speed>
  <fix>3d</fix>
</trkpt>
<trkpt lat="40.071363" lon="-105.2297711">
  <ele>1583.0</ele>
  <time>2026-08-28T17:53:23Z</time>
  <course>293.98</course>
  <speed>1.8</speed>
  <fix>3d</fix>
</trkpt>
<trkpt lat="40.0713651" lon="-105.2297771">
  <ele>1583.1</ele>
  <time>2026-08-28T17:53:23Z</time>
  <course>293.23</course>
  <speed>1.5128780519261955</speed>
  <fix>3d</fix>
</trkpt>
<trkpt lat="40.0713643" lon="-105.2297748">
  <ele>1583.0</ele>
  <time>2026-08-28T17:53:23Z</time>
  <course>293.98</course>
  <speed>1.63</speed>
  <fix>3d</fix>
</trkpt>
<trkpt lat="40.0713657" lon="-105.2297786">
  <ele>1583.1</ele>
  <time>2026-08-28T17:53:23Z</time>
  <course>293.23</course>
  <speed>1.4367324037551321</speed>
  <fix>3d</fix>
</trkpt>
<trkpt lat="40.0713643" lon="-105.2297748">
  <ele>1583.0</ele>
  <time>2026-08-28T17:53:23Z</time>
  <course>293.98</course>
  <speed>1.63</speed>
  <fix>3d</fix>
</trkpt>
<trkpt lat="40.0713662" lon="-105.2297801">
  <ele>1583.1</ele>
  <time>2026-08-28T17:53:23Z</time>
  <course>293.23</course>
  <speed>1.3697079980784226</speed>
  <fix>3d</fix>
</trkpt>
<trkpt lat="40.0713654" lon="-105.2297782">
  <ele>1583.0</ele>
  <time>2026-08-28T17:53:23Z</time>
  <course>293.98</course>
  <speed>1.47</speed>
  <fix>3d</fix>
</trkpt>
<trkpt lat="40.0713666" lon="-105.2297816">
  <ele>1583.1</ele>
  <time>2026-08-28T17:53:23Z</time>
  <course>293.23</course>
  <speed>1.293560976529518</speed>
  <fix>3d</fix>
</trkpt>
<trkpt lat="40.0713654" lon="-105.2297782">
  <ele>1583.0</ele>
  <time>2026-08-28T17:53:23Z</time>
  <course>293.98</course>
  <speed>1.47</speed>
  <fix>3d</fix>
</trkpt>
<trkpt lat="40.0713671" lon="-105.2297829">
  <ele>1583.1</ele>
  <time>2026-08-28T17:53:23Z</time>
  <course>293.23</course>
  <speed>1.2265398485169572</speed>
  <fix>3d</fix>
</trkpt>
<trkpt lat="40.0713664" lon="-105.2297812">
  <ele>1583.0</ele>
  <time>2026-08-28T17:53:23Z</time>
  <course>293.98</course>
  <speed>1.33</speed>
  <fix>3d</fix>
</trkpt>
<trkpt lat="40.0713675" lon="-105.2297843">
  <ele>1583.1</ele>
  <time>2026-08-28T17:53:23Z</time>
  <course>293.23</course>
  <speed>1.172731853408954</speed>
  <fix>3d</fix>
</trkpt>
<trkpt lat="40.0713664" lon="-105.2297812">
  <ele>1583.0</ele>
  <time>2026-08-28T17:53:23Z</time>
  <course>293.98</course>
  <speed>1.33</speed>
  <fix>3d</fix>
</trkpt>
<trkpt lat="40.071368" lon="-105.2297855">
  <ele>1583.11</ele>
  <time>2026-08-28T17:53:23Z</time>
  <course>293.23</course>
  <speed>1.114854250563723</speed>
  <fix>3d</fix>
</trkpt>
<trkpt lat="40.0713674" lon="-105.229784">
  <ele>1583.0</ele>
  <time>2026-08-28T17:53:23Z</time>
  <course>293.98</course>
  <speed>1.21</speed>
  <fix>3d</fix>
</trkpt>
<trkpt lat="40.0713684" lon="-105.2297869">
  <ele>1583.11</ele>
  <time>2026-08-28T17:53:23Z</time>
  <course>293.22</course>
  <speed>1.047854951794379</speed>
  <fix>3d</fix>
</trkpt>
<trkpt lat="40.0713674" lon="-105.229784">
  <ele>1583.0</ele>
  <time>2026-08-28T17:53:23Z</time>
  <course>293.98</course>
  <speed>1.21</speed>
  <fix>3d</fix>
</trkpt>
<trkpt lat="40.0713688" lon="-105.229788">
  <ele>1583.11</ele>
  <time>2026-08-28T17:53:23Z</time>
  <course>293.22</course>
  <speed>0.9940321926376429</speed>
  <fix>3d</fix>
</trkpt>
<trkpt lat="40.0713683" lon="-105.2297864">
  <ele>1583.0</ele>
  <time>2026-08-28T17:53:23Z</time>
  <course>293.98</course>
  <speed>1.09</speed>
  <fix>3d</fix>
</trkpt>
<trkpt lat="40.0713692" lon="-105.2297891">
  <ele>1583.11</ele>
  <time>2026-08-28T17:53:23Z</time>
  <course>293.22</course>
  <speed>0.9402127418834527</speed>
  <fix>3d</fix>
</trkpt>
<trkpt lat="40.0713683" lon="-105.2297864">
  <ele>1583.0</ele>
  <time>2026-08-28T17:53:23Z</time>
  <course>293.98</course>
  <speed>1.09</speed>
  <fix>3d</fix>
</trkpt>
<trkpt lat="40.0713695" lon="-105.2297901">
  <ele>1583.1</ele>
  <time>2026-08-28T17:53:23Z</time>
  <course>293.22</course>
  <speed>0.8955445270895244</speed>
  <fix>3d</fix>
</trkpt>
<trkpt lat="40.071369" lon="-105.2297886">
  <ele>1583.0</ele>
  <time>2026-08-28T17:53:23Z</time>
  <course>293.98</course>
  <speed>0.99</speed>
  <fix>3d</fix>
</trkpt>
<trkpt lat="40.0713698" lon="-105.2297911">
  <ele>1583.1</ele>
  <time>2026-08-28T17:53:23Z</time>
  <course>293.22</course>
  <speed>0.850881895447306</speed>
  <fix>3d</fix>
</trkpt>
<trkpt lat="40.071369" lon="-105.2297886">
  <ele>1583.0</ele>
  <time>2026-08-28T17:53:23Z</time>
  <course>293.98</course>
  <speed>0.99</speed>
  <fix>3d</fix>
</trkpt>
<trkpt lat="40.0713701" lon="-105.229792">
  <ele>1583.1</ele>
  <time>2026-08-28T17:53:23Z</time>
  <course>293.21</course>
  <speed>0.8062257748298549</speed>
  <fix>3d</fix>
</trkpt>
<trkpt lat="40.0713697" lon="-105.2297907">
  <ele>1583.0</ele>
  <time>2026-08-28T17:53:23Z</time>
  <course>293.98</course>
  <speed>0.89</speed>
  <fix>3d</fix>
</trkpt>
<trkpt lat="40.0713704" lon="-105.2297928">
  <ele>1583.09</ele>
  <time>2026-08-28T17:53:23Z</time>
  <course>293.21</course>
  <speed>0.7747257579298626</speed>
  <fix>3d</fix>
</trkpt>
<trkpt lat="40.0713697" lon="-105.2297907">
  <ele>1583.0</ele>
  <time>2026-08-28T17:53:23Z</time>
  <course>293.98</course>
  <speed>0.89</speed>
  <fix>3d</fix>
</trkpt>
<trkpt lat="40.0713707" lon="-105.2297937">
  <ele>1583.09</ele>
  <time>2026-08-28T17:53:23Z</time>
  <course>293.21</course>
  <speed>0.7300684899377592</speed>
  <fix>3d</fix>
</trkpt>
<trkpt lat="40.0713703" lon="-105.2297925">
  <ele>1583.0</ele>
  <time>2026-08-28T17:53:23Z</time>
  <course>293.98</course>
  <speed>0.81</speed>
  <fix>3d</fix>
</trkpt>
<trkpt lat="40.0713709" lon="-105.2297944">
  <ele>1583.08</ele>
  <time>2026-08-28T17:53:23Z</time>
  <course>293.2</course>
  <speed>0.6946221994724903</speed>
  <fix>3d</fix>
</trkpt>
<trkpt lat="40.0713703" lon="-105.2297925">
  <ele>1583.0</ele>
  <time>2026-08-28T17:53:23Z</time>
  <course>293.98</course>
  <speed>0.81</speed>
  <fix>3d</fix>
</trkpt>
<trkpt lat="40.0713712" lon="-105.2297952">
  <ele>1583.07</ele>
  <time>2026-08-28T17:53:23Z</time>
  <course>293.2</course>
  <speed>0.6630987860040162</speed>
  <fix>3d</fix>
</trkpt>
<trkpt lat="40.0713709" lon="-105.2297941">
  <ele>1583.0</ele>
  <time>2026-08-28T17:53:23Z</time>
  <course>293.98</course>
  <speed>0.73</speed>
  <fix>3d</fix>
</trkpt>
<trkpt lat="40.0713714" lon="-105.2297959">
  <ele>1583.07</ele>
  <time>2026-08-28T17:53:23Z</time>
  <course>293.2</course>
  <speed>0.6276941930590086</speed>
  <fix>3d</fix>
</trkpt>
<trkpt lat="40.0713709" lon="-105.2297941">
  <ele>1583.0</ele>
  <time>2026-08-28T17:53:23Z</time>
  <course>293.98</course>
  <speed>0.73</speed>
  <fix>3d</fix>
</trkpt>
<trkpt lat="40.0713716" lon="-105.2297964">
  <ele>1583.06</ele>
  <time>2026-08-28T17:53:23Z</time>
  <course>293.2</course>
  <speed>0.6053924347066124</speed>
  <fix>3d</fix>
</trkpt>
<trkpt lat="40.0713714" lon="-105.2297957">
  <ele>1583.0</ele>
  <time>2026-08-28T17:53:23Z</time>
  <course>293.98</course>
  <speed>0.66</speed>
  <fix>3d</fix>
</trkpt>
<trkpt lat="40.0713718" lon="-105.2297971">
  <ele>1583.05</ele>
  <time>2026-08-28T17:53:23Z</time>
  <course>293.19</course>
  <speed>0.5738466694161429</speed>
  <fix>3d</fix>
</trkpt>
<trkpt lat="40.0713714" lon="-105.2297957">
  <ele>1583.0</ele>
  <time>2026-08-28T17:53:23Z</time>
  <course>293.98</course>
  <speed>0.66</speed>
  <fix>3d</fix>
</trkpt>
<trkpt lat="40.071372" lon="-105.2297977">
  <ele>1583.05</ele>
  <time>2026-08-28T17:53:23Z</time>
  <course>293.19</course>
  <speed>0.551543289325507</speed>
  <fix>3d</fix>
</trkpt>
<trkpt lat="40.0713719" lon="-105.229797">
  <ele>1583.0</ele>
  <time>2026-08-28T17:53:23Z</time>
  <course>293.98</course>
  <speed>0.6</speed>
  <fix>3d</fix>
</trkpt>
<trkpt lat="40.0713722" lon="-105.2297983">
  <ele>1583.05</ele>
  <time>2026-08-28T17:53:23Z</time>
  <course>293.19</course>
  <speed>0.52</speed>
  <fix>3d</fix>
</trkpt>
<trkpt lat="40.0713719" lon="-105.229797">
  <ele>1583.0</ele>
  <time>2026-08-28T17:53:23Z</time>
  <course>293.98</course>
  <speed>0.6</speed>
  <fix>3d</fix>
</trkpt>
<trkpt lat="40.0713724" lon="-105.2297989">
  <ele>1583.05</ele>
  <time>2026-08-28T17:53:23Z</time>
  <course>293.19</course>
  <speed>0.49769468552517215</speed>
  <fix>3d</fix>
</trkpt>
<trkpt lat="40.0713722" lon="-105.2297983">
  <ele>1583.0</ele>
  <time>2026-08-28T17:53:23Z</time>
  <course>293.98</course>
  <speed>0.54</speed>
  <fix>3d</fix>
</trkpt>
<trkpt lat="40.071373" lon="-105.2298009">
  <ele>1583.05</ele>
  <time>2026-08-28T17:53:23Z</time>
  <course>293.17</course>
  <speed>0.4085339643163099</speed>
  <fix>3d</fix>
</trkpt>
<trkpt lat="40.071373" lon="-105.2298003">
  <ele>1583.0</ele>
  <time>2026-08-28T17:53:23Z</time>
  <course>293.99</course>
  <speed>0.44</speed>
  <fix>3d</fix>
</trkpt>
<trkpt lat="40.0713733" lon="-105.2298018">
  <ele>1583.06</ele>
  <time>2026-08-28T17:53:23Z</time>
  <course>293.17</course>
  <speed>0.37336309405188944</speed>
  <fix>3d</fix>
</trkpt>
<trkpt lat="40.0713733" lon="-105.2298012">
  <ele>1583.0</ele>
  <time>2026-08-28T17:53:23Z</time>
  <course>293.99</course>
  <speed>0.4</speed>
  <fix>3d</fix>
</trkpt>
<trkpt lat="40.0713734" lon="-105.2298019">
  <ele>1583.06</ele>
  <time>2026-08-28T17:53:23Z</time>
  <course>293.17</course>
  <speed>0.37336309405188944</speed>
  <fix>3d</fix>
</trkpt>
<trkpt lat="40.0713733" lon="-105.2298012">
  <ele>1583.0</ele>
  <time>2026-08-28T17:53:23Z</time>
  <course>293.99</course>
  <speed>0.4</speed>
  <fix>3d</fix>
</trkpt>
<trkpt lat="40.0713735" lon="-105.2298023">
  <ele>1583.06</ele>
  <time>2026-08-28T17:53:23Z</time>
  <course>293.17</course>
  <speed>0.35114099732158877</speed>
  <fix>3d</fix>
</trkpt>
<trkpt lat="40.0713733" lon="-105.2298012">
  <ele>1583.0</ele>
  <time>2026-08-28T17:53:23Z</time>
  <course>293.99</course>
  <speed>0.4</speed>
  <fix>3d</fix>
</trkpt>
<trkpt lat="40.0713736" lon="-105.2298026">
  <ele>1583.06</ele>
  <time>2026-08-28T17:53:23Z</time>
  <course>293.16</course>
  <speed>0.33837848631377265</speed>
  <fix>3d</fix>
</trkpt>
<trkpt lat="40.0713736" lon="-105.2298021">
  <ele>1583.0</ele>
  <time>2026-08-28T17:53:23Z</time>
  <course>293.99</course>
  <speed>0.36</speed>
  <fix>3d</fix>
</trkpt>
<trkpt lat="40.0713737" lon="-105.229803">
  <ele>1583.05</ele>
  <time>2026-08-28T17:53:23Z</time>
  <course>293.16</course>
  <speed>0.3195309061734092</speed>
  <fix>3d</fix>
</trkpt>
<trkpt lat="40.0713736" lon="-105.2298021">
  <ele>1583.0</ele>
  <time>2026-08-28T17:53:23Z</time>
  <course>293.99</course>
  <speed>0.36</speed>
  <fix>3d</fix>
</trkpt>
<trkpt lat="40.0713739" lon="-105.2298037">
  <ele>1583.05</ele>
  <time>2026-08-28T17:53:23Z</time>
  <course>293.16</course>
  <speed>0.29410882339705485</speed>
  <fix>3d</fix>
</trkpt>
<trkpt lat="40.0713738" lon="-105.2298028">
  <ele>1583.0</ele>
  <time>2026-08-28T17:53:23Z</time>
  <course>293.99</course>
  <speed>0.32</speed>
  <fix>3d</fix>
</trkpt>
<trkpt lat="40.071374" lon="-105.229804">
  <ele>1583.05</ele>
  <time>2026-08-28T17:53:23Z</time>
  <course>293.16</course>
  <speed>0.2751363298439521</speed>
  <fix>3d</fix>
</trkpt>
<trkpt lat="40.0713741" lon="-105.2298035">
  <ele>1583.0</ele>
  <time>2026-08-28T17:53:23Z</time>
  <course>293.99</course>
  <speed>0.29</speed>
  <fix>3d</fix>
</trkpt>
<trkpt lat="40.0713741" lon="-105.2298043">
  <ele>1583.04</ele>
  <time>2026-08-28T17:53:23Z</time>
  <course>293.15</course>
  <speed>0.26248809496813374</speed>
  <fix>3d</fix>
</trkpt>
<trkpt lat="40.0713741" lon="-105.2298035">
  <ele>1583.0</ele>
  <time>2026-08-28T17:53:23Z</time>
  <course>293.99</course>
  <speed>0.29</speed>
  <fix>3d</fix>
</trkpt>
<trkpt lat="40.0713742" lon="-105.2298046">
  <ele>1583.03</ele>
  <time>2026-08-28T17:53:23Z</time>
  <course>293.15</course>
  <speed>0.2529822128134704</speed>
  <fix>3d</fix>
</trkpt>
<trkpt lat="40.0713743" lon="-105.2298041">
  <ele>1583.0</ele>
  <time>2026-08-28T17:53:23Z</time>
  <course>293.99</course>
  <speed>0.27</speed>
  <fix>3d</fix>
</trkpt>
<trkpt lat="40.0713743" lon="-105.2298048">
  <ele>1583.03</ele>
  <time>2026-08-28T17:53:23Z</time>
  <course>293.15</course>
  <speed>0.24041630560342614</speed>
  <fix>3d</fix>
</trkpt>
<trkpt lat="40.0713743" lon="-105.2298041">
  <ele>1583.0</ele>
  <time>2026-08-28T17:53:23Z</time>
  <course>293.99</course>
  <speed>0.27</speed>
  <fix>3d</fix>
</trkpt>
<trkpt lat="40.0713744" lon="-105.2298051">
  <ele>1583.03</ele>
  <time>2026-08-28T17:53:24Z</time>
  <course>293.15</course>
  <speed>0.2308679276123039</speed>
  <fix>3d</fix>
</trkpt>
<trkpt lat="40.0713745" lon="-105.2298046">
  <ele>1583.0</ele>
  <time>2026-08-28T17:53:24Z</time>
  <course>293.99</course>
  <speed>0.24</speed>
  <fix>3d</fix>
</trkpt>
<trkpt lat="40.0713745" lon="-105.2298053">
  <ele>1583.02</ele>
  <time>2026-08-28T17:53:24Z</time>
  <course>293.15</course>
  <speed>0.2308679276123039</speed>
  <fix>3d</fix>
</trkpt>
<trkpt lat="40.0713745" lon="-105.2298046">
  <ele>1583.0</ele>
  <time>2026-08-28T17:53:24Z</time>
  <course>293.99</course>
  <speed>0.24</speed>
  <fix>3d</fix>
</trkpt>
<trkpt lat="40.0713746" lon="-105.2298055">
  <ele>1583.02</ele>
  <time>2026-08-28T17:53:24Z</time>
  <course>293.15</course>
  <speed>0.21840329667841554</speed>
  <fix>3d</fix>
</trkpt>
<trkpt lat="40.0713746" lon="-105.2298051">
  <ele>1583.0</ele>
  <time>2026-08-28T17:53:24Z</time>
  <course>293.99</course>
  <speed>0.22</speed>
  <fix>3d</fix>
</trkpt>
<trkpt lat="40.0713746" lon="-105.2298058">
  <ele>1583.01</ele>
  <time>2026-08-28T17:53:24Z</time>
  <course>293.15</course>
  <speed>0.208806130178211</speed>
  <fix>3d</fix>
</trkpt>
<trkpt lat="40.0713746" lon="-105.2298051">
  <ele>1583.0</ele>
  <time>2026-08-28T17:53:24Z</time>
  <course>293.99</course>
  <speed>0.22</speed>
  <fix>3d</fix>
</trkpt>
<trkpt lat="40.0713747" lon="-105.229806">
  <ele>1583.01</ele>
  <time>2026-08-28T17:53:24Z</time>
  <course>293.15</course>
  <speed>0.196468827043885</speed>
  <fix>3d</fix>
</trkpt>
<trkpt lat="40.0713748" lon="-105.2298056">
  <ele>1583.0</ele>
  <time>2026-08-28T17:53:24Z</time>
  <course>293.99</course>
  <speed>0.2</speed>
  <fix>3d</fix>
</trkpt>
<trkpt lat="40.0713748" lon="-105.2298062">
  <ele>1583.0</ele>
  <time>2026-08-28T17:53:24Z</time>
  <course>293.15</course>
  <speed>0.18681541692269404</speed>
  <fix>3d</fix>
</trkpt>
<trkpt lat="40.0713748" lon="-105.2298056">
  <ele>1583.0</ele>
  <time>2026-08-28T17:53:24Z</time>
  <course>293.99</course>
  <speed>0.2</speed>
  <fix>3d</fix>
</trkpt>
<trkpt lat="40.0713748" lon="-105.2298064">
  <ele>1583.0</ele>
  <time>2026-08-28T17:53:24Z</time>
  <course>293.15</course>
  <speed>0.18681541692269404</speed>
  <fix>3d</fix>
</trkpt>
<trkpt lat="40.0713749" lon="-105.229806">
  <ele>1583.0</ele>
  <time>2026-08-28T17:53:24Z</time>
  <course>293.99</course>
  <speed>0.18</speed>
  <fix>3d</fix>
</trkpt>
<trkpt lat="40.0713749" lon="-105.2298066">
  <ele>1583.0</ele>
  <time>2026-08-28T17:53:24Z</time>
  <course>293.14</course>
  <speed>0.17464249196572978</speed>
  <fix>3d</fix>
</trkpt>
<trkpt lat="40.0713749" lon="-105.229806">
  <ele>1583.0</ele>
  <time>2026-08-28T17:53:24Z</time>
  <course>293.99</course>
  <speed>0.18</speed>
  <fix>3d</fix>
</trkpt>
<trkpt lat="40.0713749" lon="-105.2298067">
  <ele>1583.0</ele>
  <time>2026-08-28T17:53:24Z</time>
  <course>293.14</course>
  <speed>0.1649242250247064</speed>
  <fix>3d</fix>
</trkpt>
<trkpt lat="40.071375" lon="-105.2298064">
  <ele>1583.0</ele>
  <time>2026-08-28T17:53:24Z</time>
  <course>293.99</course>
  <speed>0.16</speed>
  <fix>3d</fix>
</trkpt>
<trkpt lat="40.071375" lon="-105.2298069">
  <ele>1582.99</ele>
  <time>2026-08-28T17:53:24Z</time>
  <course>293.14</course>
  <speed>0.1649242250247064</speed>
  <fix>3d</fix>
</trkpt>
<trkpt lat="40.071375" lon="-105.2298064">
  <ele>1583.0</ele>
  <time>2026-08-28T17:53:24Z</time>
  <course>293.99</course>
  <speed>0.16</speed>
  <fix>3d</fix>
</trkpt>
<trkpt lat="40.071375" lon="-105.2298071">
  <ele>1582.99</ele>
  <time>2026-08-28T17:53:24Z</time>
  <course>293.14</course>
  <speed>0.15297058540778355</speed>
  <fix>3d</fix>
</trkpt>
<trkpt lat="40.0713751" lon="-105.2298067">
  <ele>1583.0</ele>
  <time>2026-08-28T17:53:24Z</time>
  <course>293.99</course>
  <speed>0.14</speed>
  <fix>3d</fix>
</trkpt>
<trkpt lat="40.0713751" lon="-105.2298073">
  <ele>1582.99</ele>
  <time>2026-08-28T17:53:24Z</time>
  <course>293.14</course>
  <speed>0.14317821063276354</speed>
  <fix>3d</fix>
</trkpt>
<trkpt lat="40.0713751" lon="-105.2298067">
  <ele>1583.0</ele>
  <time>2026-08-28T17:53:24Z</time>
  <course>293.99</course>
  <speed>0.14</speed>
  <fix>3d</fix>
</trkpt>
<trkpt lat="40.0713751" lon="-105.2298074">
  <ele>1582.99</ele>
  <time>2026-08-28T17:53:24Z</time>
  <course>293.14</course>
  <speed>0.14317821063276354</speed>
  <fix>3d</fix>
</trkpt>
<trkpt lat="40.0713752" lon="-105.229807">
  <ele>1583.0</ele>
  <time>2026-08-28T17:53:24Z</time>
  <course>293.99</course>
  <speed>0.13</speed>
  <fix>3d</fix>
</trkpt>
<trkpt lat="40.0713752" lon="-105.2298076">
  <ele>1583.0</ele>
  <time>2026-08-28T17:53:24Z</time>
  <course>293.14</course>
  <speed>0.13341664064126335</speed>
  <fix>3d</fix>
</trkpt>
<trkpt lat="40.0713752" lon="-105.229807">
  <ele>1583.0</ele>
  <time>2026-08-28T17:53:24Z</time>
  <course>293.99</course>
  <speed>0.13</speed>
  <fix>3d</fix>
</trkpt>
<trkpt lat="40.0713752" lon="-105.2298077">
  <ele>1583.0</ele>
  <time>2026-08-28T17:53:24Z</time>
  <course>293.14</course>
  <speed>0.13152946437965907</speed>
  <fix>3d</fix>
</trkpt>
<trkpt lat="40.0713753" lon="-105.2298073">
  <ele>1583.0</ele>
  <time>2026-08-28T17:53:24Z</time>
  <course>293.99</course>
  <speed>0.12</speed>
  <fix>3d</fix>
</trkpt>
<trkpt lat="40.0713753" lon="-105.2298078">
  <ele>1583.01</ele>
  <time>2026-08-28T17:53:24Z</time>
  <course>293.14</course>
  <speed>0.13152946437965907</speed>
  <fix>3d</fix>
</trkpt>
<trkpt lat="40.0713753" lon="-105.2298073">
  <ele>1583.0</ele>
  <time>2026-08-28T17:53:24Z</time>
  <course>293.99</course>
  <speed>0.12</speed>
  <fix>3d</fix>
</trkpt>
<trkpt lat="40.0713753" lon="-105.2298079">
  <ele>1583.01</ele>
  <time>2026-08-28T17:53:24Z</time>
  <course>293.14</course>
  <speed>0.12165525060596438</speed>
  <fix>3d</fix>
</trkpt>
<trkpt lat="40.0713754" lon="-105.2298075">
  <ele>1583.0</ele>
  <time>2026-08-28T17:53:24Z</time>
  <course>293.99</course>
  <speed>0.1</speed>
  <fix>3d</fix>
</trkpt>
<trkpt lat="40.0713753" lon="-105.229808">
  <ele>1583.02</ele>
  <time>2026-08-28T17:53:24Z</time>
  <course>293.14</course>
  <speed>0.12165525060596438</speed>
  <fix>3d</fix>
</trkpt>
<trkpt lat="40.0713754" lon="-105.2298075">
  <ele>1583.0</ele>
  <time>2026-08-28T17:53:24Z</time>
  <course>293.99</course>
  <speed>0.1</speed>
  <fix>3d</fix>
</trkpt>
<trkpt lat="40.0713754" lon="-105.2298082">
  <ele>1583.02</ele>
  <time>2026-08-28T17:53:24Z</time>
  <course>293.14</course>
  <speed>0.1118033988749895</speed>
  <fix>3d</fix>
</trkpt>
<trkpt lat="40.0713755" lon="-105.2298078">
  <ele>1583.0</ele>
  <time>2026-08-28T17:53:24Z</time>
  <course>293.99</course>
  <speed>0.09</speed>
  <fix>3d</fix>
</trkpt>
<trkpt lat="40.0713754" lon="-105.2298083">
  <ele>1583.02</ele>
  <time>2026-08-28T17:53:24Z</time>
  <course>293.14</course>
  <speed>0.11045361017187261</speed>
  <fix>3d</fix>
</trkpt>
<trkpt lat="40.0713755" lon="-105.2298078">
  <ele>1583.0</ele>
  <time>2026-08-28T17:53:24Z</time>
  <course>293.99</course>
  <speed>0.09</speed>
  <fix>3d</fix>
</trkpt>
<trkpt lat="40.0713754" lon="-105.2298084">
  <ele>1583.03</ele>
  <time>2026-08-28T17:53:24Z</time>
  <course>293.14</course>
  <speed>0.11045361017187261</speed>
  <fix>3d</fix>
</trkpt>
<trkpt lat="40.0713756" lon="-105.2298079">
  <ele>1583.0</ele>
  <time>2026-08-28T17:53:24Z</time>
  <course>293.99</course>
  <speed>0.08</speed>
  <fix>3d</fix>
</trkpt>
<trkpt lat="40.0713755" lon="-105.2298085">
  <ele>1583.03</ele>
  <time>2026-08-28T17:53:24Z</time>
  <course>293.14</course>
  <speed>0.1004987562112089</speed>
  <fix>3d</fix>
</trkpt>
<trkpt lat="40.0713756" lon="-105.2298079">
  <ele>1583.0</ele>
  <time>2026-08-28T17:53:24Z</time>
  <course>293.99</course>
  <speed>0.08</speed>
  <fix>3d</fix>
</trkpt>
<trkpt lat="40.0713755" lon="-105.2298085">
  <ele>1583.03</ele>
  <time>2026-08-28T17:53:24Z</time>
  <course>293.14</course>
  <speed>0.1004987562112089</speed>
  <fix>3d</fix>
</trkpt>
<trkpt lat="40.0713757" lon="-105.2298082">
  <ele>1583.0</ele>
  <time>2026-08-28T17:53:24Z</time>
  <course>293.99</course>
  <speed>0.08</speed>
  <fix>3d</fix>
</trkpt>
<trkpt lat="40.0713755" lon="-105.2298086">
  <ele>1583.02</ele>
  <time>2026-08-28T17:53:24Z</time>
  <course>293.14</course>
  <speed>0.1004987562112089</speed>
  <fix>3d</fix>
</trkpt>
<trkpt lat="40.0713757" lon="-105.2298082">
  <ele>1583.0</ele>
  <time>2026-08-28T17:53:24Z</time>
  <course>293.99</course>
  <speed>0.08</speed>
  <fix>3d</fix>
</trkpt>
<trkpt lat="40.0713755" lon="-105.2298087">
  <ele>1583.02</ele>
  <time>2026-08-28T17:53:24Z</time>
  <course>293.14</course>
  <speed>0.09055385138137417</speed>
  <fix>3d</fix>
</trkpt>
<trkpt lat="40.0713757" lon="-105.2298083">
  <ele>1583.0</ele>
  <time>2026-08-28T17:53:24Z</time>
  <course>294.0</course>
  <speed>0.07</speed>
  <fix>3d</fix>
</trkpt>
<trkpt lat="40.0713756" lon="-105.2298088">
  <ele>1583.02</ele>
  <time>2026-08-28T17:53:24Z</time>
  <course>293.14</course>
  <speed>0.09055385138137417</speed>
  <fix>3d</fix>
</trkpt>
<trkpt lat="40.0713757" lon="-105.2298083">
  <ele>1583.0</ele>
  <time>2026-08-28T17:53:24Z</time>
  <course>294.0</course>
  <speed>0.07</speed>
  <fix>3d</fix>
</trkpt>
<trkpt lat="40.0713756" lon="-105.2298088">
  <ele>1583.02</ele>
  <time>2026-08-28T17:53:24Z</time>
  <course>293.14</course>
  <speed>0.09055385138137417</speed>
  <fix>3d</fix>
</trkpt>
<trkpt lat="40.0713758" lon="-105.2298084">
  <ele>1583.0</ele>
  <time>2026-08-28T17:53:24Z</time>
  <course>294.0</course>
  <speed>0.06</speed>
  <fix>3d</fix>
</trkpt>
<trkpt lat="40.0713756" lon="-105.2298089">
  <ele>1583.01</ele>
  <time>2026-08-28T17:53:24Z</time>
  <course>293.14</course>
  <speed>0.09055385138137417</speed>
  <fix>3d</fix>
</trkpt>
<trkpt lat="40.0713758" lon="-105.2298084">
  <ele>1583.0</ele>
  <time>2026-08-28T17:53:24Z</time>
  <course>294.0</course>
  <speed>0.06</speed>
  <fix>3d</fix>
</trkpt>
<trkpt lat="40.0713757" lon="-105.229809">
  <ele>1583.01</ele>
  <time>2026-08-28T17:53:24Z</time>
  <course>293.14</course>
  <speed>0.08062257748298549</speed>
  <fix>3d</fix>
</trkpt>
<trkpt lat="40.0713758" lon="-105.2298086">
  <ele>1583.0</ele>
  <time>2026-08-28T17:53:24Z</time>
  <course>294.0</course>
  <speed>0.06</speed>
  <fix>3d</fix>
</trkpt>
<trkpt lat="40.0713757" lon="-105.229809">
  <ele>1583.01</ele>
  <time>2026-08-28T17:53:24Z</time>
  <course>293.15</course>
  <speed>0.08062257748298549</speed>
  <fix>3d</fix>
</trkpt>
<trkpt lat="40.0713758" lon="-105.2298086">
  <ele>1583.0</ele>
  <time>2026-08-28T17:53:24Z</time>
  <course>294.0</course>
  <speed>0.06</speed>
  <fix>3d</fix>
</trkpt>
<trkpt lat="40.0713757" lon="-105.2298091">
  <ele>1583.01</ele>
  <time>2026-08-28T17:53:24Z</time>
  <course>293.15</course>
  <speed>0.08</speed>
  <fix>3d</fix>
</trkpt>
<trkpt lat="40.0713759" lon="-105.2298087">
  <ele>1583.0</ele>
  <time>2026-08-28T17:53:24Z</time>
  <course>294.0</course>
  <speed>0.05</speed>
  <fix>3d</fix>
</trkpt>
<trkpt lat="40.0713757" lon="-105.2298091">
  <ele>1583.01</ele>
  <time>2026-08-28T17:53:24Z</time>
  <course>293.15</course>
  <speed>0.08</speed>
  <fix>3d</fix>
</trkpt>
<trkpt lat="40.0713759" lon="-105.2298087">
  <ele>1583.0</ele>
  <time>2026-08-28T17:53:24Z</time>
  <course>294.0</course>
  <speed>0.05</speed>
  <fix>3d</fix>
</trkpt>
<trkpt lat="40.0713758" lon="-105.2298092">
  <ele>1583.0</ele>
  <time>2026-08-28T17:53:24Z</time>
  <course>293.15</course>
  <speed>0.07</speed>
  <fix>3d</fix>
</trkpt>
<trkpt lat="40.0713759" lon="-105.2298088">
  <ele>1583.0</ele>
  <time>2026-08-28T17:53:24Z</time>
  <course>294.0</course>
  <speed>0.04</speed>
  <fix>3d</fix>
</trkpt>
<trkpt lat="40.0713758" lon="-105.2298093">
  <ele>1583.0</ele>
  <time>2026-08-28T17:53:24Z</time>
  <course>293.15</course>
  <speed>0.07</speed>
  <fix>3d</fix>
</trkpt>
<trkpt lat="40.0713759" lon="-105.2298088">
  <ele>1583.0</ele>
  <time>2026-08-28T17:53:24Z</time>
  <course>294.0</course>
  <speed>0.04</speed>
  <fix>3d</fix>
</trkpt>
<trkpt lat="40.0713758" lon="-105.2298093">
  <ele>1582.99</ele>
  <time>2026-08-28T17:53:24Z</time>
  <course>293.14</course>
  <speed>0.07</speed>
  <fix>3d</fix>
</trkpt>
<trkpt lat="40.0713759" lon="-105.2298089">
  <ele>1583.0</ele>
  <time>2026-08-28T17:53:24Z</time>
  <course>294.0</course>
  <speed>0.04</speed>
  <fix>3d</fix>
</trkpt>
<trkpt lat="40.0713758" lon="-105.2298093">
  <ele>1582.98</ele>
  <time>2026-08-28T17:53:24Z</time>
  <course>293.14</course>
  <speed>0.07</speed>
  <fix>3d</fix>
</trkpt>
<trkpt lat="40.0713759" lon="-105.2298089">
  <ele>1583.0</ele>
  <time>2026-08-28T17:53:24Z</time>
  <course>294.0</course>
  <speed>0.04</speed>
  <fix>3d</fix>
</trkpt>
<trkpt lat="40.0713758" lon="-105.2298094">
  <ele>1582.97</ele>
  <time>2026-08-28T17:53:24Z</time>
  <course>293.14</course>
  <speed>0.07</speed>
  <fix>3d</fix>
</trkpt>
<trkpt lat="40.071376" lon="-105.229809">
  <ele>1583.0</ele>
  <time>2026-08-28T17:53:24Z</time>
  <course>294.01</course>
  <speed>0.04</speed>
  <fix>3d</fix>
</trkpt>
<trkpt lat="40.0713759" lon="-105.2298094">
  <ele>1582.97</ele>
  <time>2026-08-28T17:53:24Z</time>
  <course>293.14</course>
  <speed>0.06</speed>
  <fix>3d</fix>
</trkpt>
<trkpt lat="40.071376" lon="-105.229809">
  <ele>1583.0</ele>
  <time>2026-08-28T17:53:24Z</time>
  <course>294.01</course>
  <speed>0.04</speed>
  <fix>3d</fix>
</trkpt>
<trkpt lat="40.0713759" lon="-105.2298095">
  <ele>1582.96</ele>
  <time>2026-08-28T17:53:24Z</time>
  <course>293.14</course>
  <speed>0.06</speed>
  <fix>3d</fix>
</trkpt>
<trkpt lat="40.071376" lon="-105.2298091">
  <ele>1583.0</ele>
  <time>2026-08-28T17:53:24Z</time>
  <course>294.01</course>
  <speed>0.03</speed>
  <fix>3d</fix>
</trkpt>
<trkpt lat="40.0713759" lon="-105.2298095">
  <ele>1582.96</ele>
  <time>2026-08-28T17:53:24Z</time>
  <course>293.14</course>
  <speed>0.06</speed>
  <fix>3d</fix>
</trkpt>
<trkpt lat="40.071376" lon="-105.2298091">
  <ele>1583.0</ele>
  <time>2026-08-28T17:53:24Z</time>
  <course>294.01</course>
  <speed>0.03</speed>
  <fix>3d</fix>
</trkpt>
<trkpt lat="40.0713759" lon="-105.2298095">
  <ele>1582.95</ele>
  <time>2026-08-28T17:53:24Z</time>
  <course>293.14</course>
  <speed>0.06</speed>
  <fix>3d</fix>
</trkpt>
<trkpt lat="40.071376" lon="-105.2298092">
  <ele>1583.0</ele>
  <time>2026-08-28T17:53:24Z</time>
  <course>294.01</course>
  <speed>0.03</speed>
  <fix>3d</fix>
</trkpt>
<trkpt lat="40.0713759" lon="-105.2298096">
  <ele>1582.95</ele>
  <time>2026-08-28T17:53:24Z</time>
  <course>293.14</course>
  <speed>0.06</speed>
  <fix>3d</fix>
</trkpt>
<trkpt lat="40.071376" lon="-105.2298092">
  <ele>1583.0</ele>
  <time>2026-08-28T17:53:24Z</time>
  <course>294.01</course>
  <speed>0.03</speed>
  <fix>3d</fix>
</trkpt>
<trkpt lat="40.0713759" lon="-105.2298096">
  <ele>1582.95</ele>
  <time>2026-08-28T17:53:24Z</time>
  <course>293.14</course>
  <speed>0.06</speed>
  <fix>3d</fix>
</trkpt>
<trkpt lat="40.071376" lon="-105.2298093">
  <ele>1583.0</ele>
  <time>2026-08-28T17:53:24Z</time>
  <course>294.01</course>
  <speed>0.02</speed>
  <fix>3d</fix>
</trkpt>
<trkpt lat="40.0713759" lon="-105.2298096">
  <ele>1582.94</ele>
  <time>2026-08-28T17:53:24Z</time>
  <course>293.14</course>
  <speed>0.06</speed>
  <fix>3d</fix>
</trkpt>
<trkpt lat="40.071376" lon="-105.2298093">
  <ele>1583.0</ele>
  <time>2026-08-28T17:53:24Z</time>
  <course>294.01</course>
  <speed>0.02</speed>
  <fix>3d</fix>
</trkpt>
<trkpt lat="40.0713759" lon="-105.2298097">
  <ele>1582.94</ele>
  <time>2026-08-28T17:53:24Z</time>
  <course>293.14</course>
  <speed>0.05</speed>
  <fix>3d</fix>
</trkpt>
<trkpt lat="40.071376" lon="-105.2298093">
  <ele>1583.0</ele>
  <time>2026-08-28T17:53:24Z</time>
  <course>294.02</course>
  <speed>0.02</speed>
  <fix>3d</fix>
</trkpt>
<trkpt lat="40.071376" lon="-105.2298097">
  <ele>1582.94</ele>
  <time>2026-08-28T17:53:24Z</time>
  <course>293.14</course>
  <speed>0.05</speed>
  <fix>3d</fix>
</trkpt>
<trkpt lat="40.071376" lon="-105.2298093">
  <ele>1583.0</ele>
  <time>2026-08-28T17:53:24Z</time>
  <course>294.02</course>
  <speed>0.02</speed>
  <fix>3d</fix>
</trkpt>
<trkpt lat="40.071376" lon="-105.2298097">
  <ele>1582.94</ele>
  <time>2026-08-28T17:53:24Z</time>
  <course>293.14</course>
  <speed>0.05</speed>
  <fix>3d</fix>
</trkpt>
<trkpt lat="40.071376" lon="-105.2298093">
  <ele>1583.0</ele>
  <time>2026-08-28T17:53:24Z</time>
  <course>294.02</course>
  <speed>0.02</speed>
  <fix>3d</fix>
</trkpt>
<trkpt lat="40.071376" lon="-105.2298097">
  <ele>1582.93</ele>
  <time>2026-08-28T17:53:24Z</time>
  <course>293.14</course>
  <speed>0.05</speed>
  <fix>3d</fix>
</trkpt>
<trkpt lat="40.071376" lon="-105.2298093">
  <ele>1583.0</ele>
  <time>2026-08-28T17:53:24Z</time>
  <course>294.02</course>
  <speed>0.02</speed>
  <fix>3d</fix>
</trkpt>
<trkpt lat="40.071376" lon="-105.2298098">
  <ele>1582.93</ele>
  <time>2026-08-28T17:53:24Z</time>
  <course>293.13</course>
  <speed>0.05</speed>
  <fix>3d</fix>
</trkpt>
<trkpt lat="40.071376" lon="-105.2298094">
  <ele>1583.0</ele>
  <time>2026-08-28T17:53:24Z</time>
  <course>294.03</course>
  <speed>0.02</speed>
  <fix>3d</fix>
</trkpt>
<trkpt lat="40.071376" lon="-105.2298098">
  <ele>1582.93</ele>
  <time>2026-08-28T17:53:24Z</time>
  <course>293.13</course>
  <speed>0.05</speed>
  <fix>3d</fix>
</trkpt>
<trkpt lat="40.071376" lon="-105.2298094">
  <ele>1583.0</ele>
  <time>2026-08-28T17:53:24Z</time>
  <course>294.03</course>
  <speed>0.02</speed>
  <fix>3d</fix>
</trkpt>
<trkpt lat="40.071376" lon="-105.2298098">
  <ele>1582.93</ele>
  <time>2026-08-28T17:53:24Z</time>
  <course>293.13</course>
  <speed>0.05</speed>
  <fix>3d</fix>
</trkpt>
<trkpt lat="40.071376" lon="-105.2298095">
  <ele>1583.0</ele>
  <time>2026-08-28T17:53:24Z</time>
  <course>294.03</course>
  <speed>0.02</speed>
  <fix>3d</fix>
</trkpt>
<trkpt lat="40.071376" lon="-105.2298098">
  <ele>1582.93</ele>
  <time>2026-08-28T17:53:24Z</time>
  <course>293.13</course>
  <speed>0.05</speed>
  <fix>3d</fix>
</trkpt>
<trkpt lat="40.071376" lon="-105.2298095">
  <ele>1583.0</ele>
  <time>2026-08-28T17:53:24Z</time>
  <course>294.03</course>
  <speed>0.02</speed>
  <fix>3d</fix>
</trkpt>
<trkpt lat="40.071376" lon="-105.2298098">
  <ele>1582.93</ele>
  <time>2026-08-28T17:53:24Z</time>
  <course>293.13</course>
  <speed>0.05</speed>
  <fix>3d</fix>
</trkpt>
<trkpt lat="40.071376" lon="-105.2298095">
  <ele>1583.0</ele>
  <time>2026-08-28T17:53:24Z</time>
  <course>294.04</course>
  <speed>0.01</speed>
  <fix>3d</fix>
</trkpt>
<trkpt lat="40.071376" lon="-105.2298099">
  <ele>1582.93</ele>
  <time>2026-08-28T17:53:24Z</time>
  <course>293.13</course>
  <speed>0.04</speed>
  <fix>3d</fix>
</trkpt>
<trkpt lat="40.071376" lon="-105.2298095">
  <ele>1583.0</ele>
  <time>2026-08-28T17:53:24Z</time>
  <course>294.04</course>
  <speed>0.01</speed>
  <fix>3d</fix>
</trkpt>
<trkpt lat="40.071376" lon="-105.2298099">
  <ele>1582.93</ele>
  <time>2026-08-28T17:53:24Z</time>
  <course>293.13</course>
  <speed>0.04</speed>
  <fix>3d</fix>
</trkpt>
<trkpt lat="40.0713761" lon="-105.2298096">
  <ele>1583.0</ele>
  <time>2026-08-28T17:53:24Z</time>
  <course>294.04</course>
  <speed>0.01</speed>
  <fix>3d</fix>
</trkpt>
<trkpt lat="40.071376" lon="-105.2298099">
  <ele>1582.92</ele>
  <time>2026-08-28T17:53:24Z</time>
  <course>293.12</course>
  <speed>0.04</speed>
  <fix>3d</fix>
</trkpt>
<trkpt lat="40.0713761" lon="-105.2298096">
  <ele>1583.0</ele>
  <time>2026-08-28T17:53:24Z</time>
  <course>294.04</course>
  <speed>0.01</speed>
  <fix>3d</fix>
</trkpt>
<trkpt lat="40.071376" lon="-105.2298099">
  <ele>1582.92</ele>
  <time>2026-08-28T17:53:24Z</time>
  <course>293.12</course>
  <speed>0.04</speed>
  <fix>3d</fix>
</trkpt>
<trkpt lat="40.0713761" lon="-105.2298096">
  <ele>1583.0</ele>
  <time>2026-08-28T17:53:24Z</time>
  <course>294.05</course>
  <speed>0.01</speed>
  <fix>3d</fix>
</trkpt>
<trkpt lat="40.071376" lon="-105.2298099">
  <ele>1582.92</ele>
  <time>2026-08-28T17:53:24Z</time>
  <course>293.12</course>
  <speed>0.04</speed>
  <fix>3d</fix>
</trkpt>
<trkpt lat="40.0713761" lon="-105.2298096">
  <ele>1583.0</ele>
  <time>2026-08-28T17:53:24Z</time>
  <course>294.05</course>
  <speed>0.01</speed>
  <fix>3d</fix>
</trkpt>
<trkpt lat="40.071376" lon="-105.2298099">
  <ele>1582.92</ele>
  <time>2026-08-28T17:53:24Z</time>
  <course>293.12</course>
  <speed>0.04</speed>
  <fix>3d</fix>
</trkpt>
<trkpt lat="40.0713761" lon="-105.2298096">
  <ele>1583.0</ele>
  <time>2026-08-28T17:53:24Z</time>
  <course>294.05</course>
  <speed>0.01</speed>
  <fix>3d</fix>
</trkpt>
<trkpt lat="40.071376" lon="-105.22981">
  <ele>1582.92</ele>
  <time>2026-08-28T17:53:24Z</time>
  <course>293.12</course>
  <speed>0.04</speed>
  <fix>3d</fix>
</trkpt>
<trkpt lat="40.0713761" lon="-105.2298096">
  <ele>1583.0</ele>
  <time>2026-08-28T17:53:24Z</time>
  <course>294.05</course>
  <speed>0.01</speed>
  <fix>3d</fix>
</trkpt>
<trkpt lat="40.071376" lon="-105.22981">
  <ele>1582.92</ele>
  <time>2026-08-28T17:53:24Z</time>
  <course>293.12</course>
  <speed>0.04</speed>
  <fix>3d</fix>
</trkpt>
<trkpt lat="40.0713761" lon="-105.2298096">
  <ele>1583.0</ele>
  <time>2026-08-28T17:53:24Z</time>
  <course>294.06</course>
  <speed>0.01</speed>
  <fix>3d</fix>
</trkpt>
<trkpt lat="40.071376" lon="-105.22981">
  <ele>1582.91</ele>
  <time>2026-08-28T17:53:24Z</time>
  <course>293.12</course>
  <speed>0.04</speed>
  <fix>3d</fix>
</trkpt>
<trkpt lat="40.0713761" lon="-105.2298096">
  <ele>1583.0</ele>
  <time>2026-08-28T17:53:24Z</time>
  <course>294.06</course>
  <speed>0.01</speed>
  <fix>3d</fix>
</trkpt>
<trkpt lat="40.071376" lon="-105.22981">
  <ele>1582.91</ele>
  <time>2026-08-28T17:53:24Z</time>
  <course>293.11</course>
  <speed>0.04</speed>
  <fix>3d</fix>
</trkpt>
<trkpt lat="40.0713761" lon="-105.2298096">
  <ele>1583.0</ele>
  <time>2026-08-28T17:53:24Z</time>
  <course>294.07</course>
  <speed>0.01</speed>
  <fix>3d</fix>
</trkpt>
<trkpt lat="40.071376" lon="-105.22981">
  <ele>1582.9</ele>
  <time>2026-08-28T17:53:24Z</time>
  <course>293.11</course>
  <speed>0.04</speed>
  <fix>3d</fix>
</trkpt>
<trkpt lat="40.0713761" lon="-105.2298096">
  <ele>1583.0</ele>
  <time>2026-08-28T17:53:24Z</time>
  <course>294.07</course>
  <speed>0.01</speed>
  <fix>3d</fix>
</trkpt>
<trkpt lat="40.071376" lon="-105.22981">
  <ele>1582.9</ele>
  <time>2026-08-28T17:53:24Z</time>
  <course>293.11</course>
  <speed>0.04</speed>
  <fix>3d</fix>
</trkpt>
<trkpt lat="40.0713761" lon="-105.2298096">
  <ele>1583.0</ele>
  <time>2026-08-28T17:53:24Z</time>
  <course>294.08</course>
  <speed>0.0</speed>
  <fix>3d</fix>
</trkpt>
<trkpt lat="40.071376" lon="-105.22981">
  <ele>1582.9</ele>
  <time>2026-08-28T17:53:24Z</time>
  <course>293.11</course>
  <speed>0.03</speed>
  <fix>3d</fix>
</trkpt>
<trkpt lat="40.0713761" lon="-105.2298096">
  <ele>1583.0</ele>
  <time>2026-08-28T17:53:24Z</time>
  <course>294.08</course>
  <speed>0.0</speed>
  <fix>3d</fix>
</trkpt>
<trkpt lat="40.071376" lon="-105.22981">
  <ele>1582.89</ele>
  <time>2026-08-28T17:53:24Z</time>
  <course>293.11</course>
  <speed>0.03</speed>
  <fix>3d</fix>
</trkpt>
<trkpt lat="40.0713761" lon="-105.2298097">
  <ele>1583.0</ele>
  <time>2026-08-28T17:53:24Z</time>
  <course>294.09</course>
  <speed>0.0</speed>
  <fix>3d</fix>
</trkpt>
<trkpt lat="40.071376" lon="-105.22981">
  <ele>1582.89</ele>
  <time>2026-08-28T17:53:24Z</time>
  <course>293.11</course>
  <speed>0.03</speed>
  <fix>3d</fix>
</trkpt>
<trkpt lat="40.0713761" lon="-105.2298097">
  <ele>1583.0</ele>
  <time>2026-08-28T17:53:24Z</time>
  <course>294.09</course>
  <speed>0.0</speed>
  <fix>3d</fix>
</trkpt>
<trkpt lat="40.071376" lon="-105.22981">
  <ele>1582.89</ele>
  <time>2026-08-28T17:53:24Z</time>
  <course>293.11</course>
  <speed>0.03</speed>
  <fix>3d</fix>
</trkpt>
<trkpt lat="40.0713761" lon="-105.2298098">
  <ele>1583.0</ele>
  <time>2026-08-28T17:53:24Z</time>
  <course>294.1</course>
  <speed>0.0</speed>
  <fix>3d</fix>
</trkpt>
<trkpt lat="40.071376" lon="-105.22981">
  <ele>1582.89</ele>
  <time>2026-08-28T17:53:24Z</time>
  <course>293.1</course>
  <speed>0.03</speed>
  <fix>3d</fix>
</trkpt>
<trkpt lat="40.0713761" lon="-105.2298098">
  <ele>1583.0</ele>
  <time>2026-08-28T17:53:24Z</time>
  <course>294.1</course>
  <speed>0.0</speed>
  <fix>3d</fix>
</trkpt>
<trkpt lat="40.071376" lon="-105.22981">
  <ele>1582.89</ele>
  <time>2026-08-28T17:53:24Z</time>
  <course>293.1</course>
  <speed>0.03</speed>
  <fix>3d</fix>
</trkpt>
<trkpt lat="40.0713761" lon="-105.2298098">
  <ele>1583.0</ele>
  <time>2026-08-28T17:53:24Z</time>
  <course>294.11</course>
  <speed>0.0</speed>
  <fix>3d</fix>
</trkpt>
<trkpt lat="40.071376" lon="-105.22981">
  <ele>1582.89</ele>
  <time>2026-08-28T17:53:24Z</time>
  <course>293.1</course>
  <speed>0.03</speed>
  <fix>3d</fix>
</trkpt>
<trkpt lat="40.0713761" lon="-105.2298098">
  <ele>1583.0</ele>
  <time>2026-08-28T17:53:24Z</time>
  <course>294.11</course>
  <speed>0.0</speed>
  <fix>3d</fix>
</trkpt>
<trkpt lat="40.071376" lon="-105.22981">
  <ele>1582.9</ele>
  <time>2026-08-28T17:53:24Z</time>
  <course>293.1</course>
  <speed>0.03</speed>
  <fix>3d</fix>
</trkpt>
<trkpt lat="40.0713761" lon="-105.2298098">
  <ele>1583.0</ele>
  <time>2026-08-28T17:53:24Z</time>
  <course>294.13</course>
  <speed>0.0</speed>
  <fix>3d</fix>
</trkpt>
<trkpt lat="40.071376" lon="-105.22981">
  <ele>1582.9</ele>
  <time>2026-08-28T17:53:24Z</time>
  <course>293.09</course>
  <speed>0.03</speed>
  <fix>3d</fix>
</trkpt>
<trkpt lat="40.0713761" lon="-105.2298098">
  <ele>1583.0</ele>
  <time>2026-08-28T17:53:24Z</time>
  <course>294.13</course>
  <speed>0.0</speed>
  <fix>3d</fix>
</trkpt>
<trkpt lat="40.071376" lon="-105.2298101">
  <ele>1582.91</ele>
  <time>2026-08-28T17:53:24Z</time>
  <course>293.09</course>
  <speed>0.03</speed>
  <fix>3d</fix>
</trkpt>
<trkpt lat="40.0713761" lon="-105.2298098">
  <ele>1583.0</ele>
  <time>2026-08-28T17:53:24Z</time>
  <course>294.14</course>
  <speed>0.0</speed>
  <fix>3d</fix>
</trkpt>
<trkpt lat="40.071376" lon="-105.2298101">
  <ele>1582.92</ele>
  <time>2026-08-28T17:53:24Z</time>
  <course>293.09</course>
  <speed>0.03</speed>
  <fix>3d</fix>
</trkpt>
<trkpt lat="40.0713761" lon="-105.2298098">
  <ele>1583.0</ele>
  <time>2026-08-28T17:53:24Z</time>
  <course>294.14</course>
  <speed>0.0</speed>
  <fix>3d</fix>
</trkpt>
<trkpt lat="40.071376" lon="-105.2298101">
  <ele>1582.93</ele>
  <time>2026-08-28T17:53:24Z</time>
  <course>293.09</course>
  <speed>0.03</speed>
  <fix>3d</fix>
</trkpt>
<trkpt lat="40.0713761" lon="-105.2298098">
  <ele>1583.0</ele>
  <time>2026-08-28T17:53:24Z</time>
  <course>294.16</course>
  <speed>0.0</speed>
  <fix>3d</fix>
</trkpt>
<trkpt lat="40.071376" lon="-105.2298101">
  <ele>1582.94</ele>
  <time>2026-08-28T17:53:24Z</time>
  <course>293.09</course>
  <speed>0.03</speed>
  <fix>3d</fix>
</trkpt>
<trkpt lat="40.0713761" lon="-105.2298098">
  <ele>1583.0</ele>
  <time>2026-08-28T17:53:24Z</time>
  <course>294.16</course>
  <speed>0.0</speed>
  <fix>3d</fix>
</trkpt>
<trkpt lat="40.071376" lon="-105.2298101">
  <ele>1582.95</ele>
  <time>2026-08-28T17:53:24Z</time>
  <course>293.08</course>
  <speed>0.03</speed>
  <fix>3d</fix>
</trkpt>
<trkpt lat="40.0713761" lon="-105.2298098">
  <ele>1583.0</ele>
  <time>2026-08-28T17:53:24Z</time>
  <course>294.17</course>
  <speed>0.0</speed>
  <fix>3d</fix>
</trkpt>
<trkpt lat="40.071376" lon="-105.2298101">
  <ele>1582.95</ele>
  <time>2026-08-28T17:53:24Z</time>
  <course>293.08</course>
  <speed>0.03</speed>
  <fix>3d</fix>
</trkpt>
<trkpt lat="40.0713761" lon="-105.2298098">
  <ele>1583.0</ele>
  <time>2026-08-28T17:53:24Z</time>
  <course>294.17</course>
  <speed>0.0</speed>
  <fix>3d</fix>
</trkpt>
<trkpt lat="40.071376" lon="-105.2298101">
  <ele>1582.96</ele>
  <time>2026-08-28T17:53:24Z</time>
  <course>293.08</course>
  <speed>0.03</speed>
  <fix>3d</fix>
</trkpt>
<trkpt lat="40.0713761" lon="-105.2298098">
  <ele>1583.0</ele>
  <time>2026-08-28T17:53:24Z</time>
  <course>294.19</course>
  <speed>0.0</speed>
  <fix>3d</fix>
</trkpt>
<trkpt lat="40.071376" lon="-105.2298101">
  <ele>1582.96</ele>
  <time>2026-08-28T17:53:24Z</time>
  <course>293.08</course>
  <speed>0.03</speed>
  <fix>3d</fix>
</trkpt>
<trkpt lat="40.0713761" lon="-105.2298098">
  <ele>1583.0</ele>
  <time>2026-08-28T17:53:24Z</time>
  <course>294.19</course>
  <speed>0.0</speed>
  <fix>3d</fix>
</trkpt>
<trkpt lat="40.071376" lon="-105.2298101">
  <ele>1582.96</ele>
  <time>2026-08-28T17:53:24Z</time>
  <course>293.08</course>
  <speed>0.03</speed>
  <fix>3d</fix>
</trkpt>
<trkpt lat="40.0713761" lon="-105.2298098">
  <ele>1583.0</ele>
  <time>2026-08-28T17:53:24Z</time>
  <course>294.22</course>
  <speed>0.0</speed>
  <fix>3d</fix>
</trkpt>
<trkpt lat="40.071376" lon="-105.2298101">
  <ele>1582.96</ele>
  <time>2026-08-28T17:53:24Z</time>
  <course>293.07</course>
  <speed>0.03</speed>
  <fix>3d</fix>
</trkpt>
<trkpt lat="40.0713761" lon="-105.2298098">
  <ele>1583.0</ele>
  <time>2026-08-28T17:53:24Z</time>
  <course>294.22</course>
  <speed>0.0</speed>
  <fix>3d</fix>
</trkpt>
<trkpt lat="40.071376" lon="-105.2298101">
  <ele>1582.96</ele>
  <time>2026-08-28T17:53:24Z</time>
  <course>293.07</course>
  <speed>0.03</speed>
  <fix>3d</fix>
</trkpt>
<trkpt lat="40.0713761" lon="-105.2298098">
  <ele>1583.0</ele>
  <time>2026-08-28T17:53:24Z</time>
  <course>294.24</course>
  <speed>0.0</speed>
  <fix>3d</fix>
</trkpt>
<trkpt lat="40.071376" lon="-105.2298101">
  <ele>1582.96</ele>
  <time>2026-08-28T17:53:24Z</time>
  <course>293.07</course>
  <speed>0.02</speed>
  <fix>3d</fix>
</trkpt>
<trkpt lat="40.0713761" lon="-105.2298098">
  <ele>1583.0</ele>
  <time>2026-08-28T17:53:24Z</time>
  <course>294.24</course>
  <speed>0.0</speed>
  <fix>3d</fix>
</trkpt>
<trkpt lat="40.071376" lon="-105.2298101">
  <ele>1582.96</ele>
  <time>2026-08-28T17:53:24Z</time>
  <course>293.07</course>
  <speed>0.02</speed>
  <fix>3d</fix>
</trkpt>
<trkpt lat="40.0713762" lon="-105.2298098">
  <ele>1583.0</ele>
  <time>2026-08-28T17:53:24Z</time>
  <course>294.27</course>
  <speed>0.0</speed>
  <fix>3d</fix>
</trkpt>
<trkpt lat="40.071376" lon="-105.2298101">
  <ele>1582.96</ele>
  <time>2026-08-28T17:53:24Z</time>
  <course>293.07</course>
  <speed>0.02</speed>
  <fix>3d</fix>
</trkpt>
<trkpt lat="40.0713762" lon="-105.2298098">
  <ele>1583.0</ele>
  <time>2026-08-28T17:53:24Z</time>
  <course>294.27</course>
  <speed>0.0</speed>
  <fix>3d</fix>
</trkpt>
<trkpt lat="40.071376" lon="-105.2298101">
  <ele>1582.96</ele>
  <time>2026-08-28T17:53:24Z</time>
  <course>293.07</course>
  <speed>0.02</speed>
  <fix>3d</fix>
</trkpt>
<trkpt lat="40.0713763" lon="-105.2298098">
  <ele>1583.0</ele>
  <time>2026-08-28T17:53:24Z</time>
  <course>294.3</course>
  <speed>0.0</speed>
  <fix>3d</fix>
</trkpt>
<trkpt lat="40.071376" lon="-105.2298101">
  <ele>1582.96</ele>
  <time>2026-08-28T17:53:24Z</time>
  <course>293.06</course>
  <speed>0.02</speed>
  <fix>3d</fix>
</trkpt>
<trkpt lat="40.0713763" lon="-105.2298098">
  <ele>1583.0</ele>
  <time>2026-08-28T17:53:24Z</time>
  <course>294.3</course>
  <speed>0.0</speed>
  <fix>3d</fix>
</trkpt>
<trkpt lat="40.071376" lon="-105.2298101">
  <ele>1582.96</ele>
  <time>2026-08-28T17:53:24Z</time>
  <course>293.06</course>
  <speed>0.02</speed>
  <fix>3d</fix>
</trkpt>
<trkpt lat="40.0713763" lon="-105.2298098">
  <ele>1583.0</ele>
  <time>2026-08-28T17:53:24Z</time>
  <course>294.33</course>
  <speed>0.0</speed>
  <fix>3d</fix>
</trkpt>
<trkpt lat="40.071376" lon="-105.2298101">
  <ele>1582.96</ele>
  <time>2026-08-28T17:53:24Z</time>
  <course>293.06</course>
  <speed>0.02</speed>
  <fix>3d</fix>
</trkpt>
<trkpt lat="40.0713763" lon="-105.2298098">
  <ele>1583.0</ele>
  <time>2026-08-28T17:53:24Z</time>
  <course>294.33</course>
  <speed>0.0</speed>
  <fix>3d</fix>
</trkpt>
<trkpt lat="40.0713761" lon="-105.2298101">
  <ele>1582.96</ele>
  <time>2026-08-28T17:53:24Z</time>
  <course>293.06</course>
  <speed>0.02</speed>
  <fix>3d</fix>
</trkpt>
<trkpt lat="40.0713763" lon="-105.2298098">
  <ele>1583.0</ele>
  <time>2026-08-28T17:53:24Z</time>
  <course>294.37</course>
  <speed>0.0</speed>
  <fix>3d</fix>
</trkpt>
<trkpt lat="40.0713761" lon="-105.2298101">
  <ele>1582.95</ele>
  <time>2026-08-28T17:53:24Z</time>
  <course>293.06</course>
  <speed>0.02</speed>
  <fix>3d</fix>
</trkpt>
<trkpt lat="40.0713763" lon="-105.2298098">
  <ele>1583.0</ele>
  <time>2026-08-28T17:53:24Z</time>
  <course>294.37</course>
  <speed>0.0</speed>
  <fix>3d</fix>
</trkpt>
<trkpt lat="40.0713761" lon="-105.2298101">
  <ele>1582.95</ele>
  <time>2026-08-28T17:53:24Z</time>
  <course>293.05</course>
  <speed>0.02</speed>
  <fix>3d</fix>
</trkpt>
<trkpt lat="40.0713763" lon="-105.2298098">
  <ele>1583.0</ele>
  <time>2026-08-28T17:53:24Z</time>
  <course>294.41</course>
  <speed>0.0</speed>
  <fix>3d</fix>
</trkpt>
<trkpt lat="40.0713761" lon="-105.2298101">
  <ele>1582.95</ele>
  <time>2026-08-28T17:53:24Z</time>
  <course>293.05</course>
  <speed>0.02</speed>
  <fix>3d</fix>
</trkpt>
<trkpt lat="40.0713763" lon="-105.2298098">
  <ele>1583.0</ele>
  <time>2026-08-28T17:53:24Z</time>
  <course>294.41</course>
  <speed>0.0</speed>
  <fix>3d</fix>
</trkpt>
<trkpt lat="40.0713761" lon="-105.2298101">
  <ele>1582.95</ele>
  <time>2026-08-28T17:53:24Z</time>
  <course>293.05</course>
  <speed>0.02</speed>
  <fix>3d</fix>
</trkpt>
<trkpt lat="40.0713763" lon="-105.2298098">
  <ele>1583.0</ele>
  <time>2026-08-28T17:53:24Z</time>
  <course>294.45</course>
  <speed>0.0</speed>
  <fix>3d</fix>
</trkpt>
<trkpt lat="40.0713761" lon="-105.22981">
  <ele>1582.95</ele>
  <time>2026-08-28T17:53:24Z</time>
  <course>293.05</course>
  <speed>0.02</speed>
  <fix>3d</fix>
</trkpt>
<trkpt lat="40.0713763" lon="-105.2298098">
  <ele>1583.0</ele>
  <time>2026-08-28T17:53:24Z</time>
  <course>294.45</course>
  <speed>0.0</speed>
  <fix>3d</fix>
</trkpt>
<trkpt lat="40.0713761" lon="-105.2298101">
  <ele>1582.94</ele>
  <time>2026-08-28T17:53:24Z</time>
  <course>293.05</course>
  <speed>0.02</speed>
  <fix>3d</fix>
</trkpt>
<trkpt lat="40.0713763" lon="-105.2298098">
  <ele>1583.0</ele>
  <time>2026-08-28T17:53:24Z</time>
  <course>294.5</course>
  <speed>0.0</speed>
  <fix>3d</fix>
</trkpt>
<trkpt lat="40.0713761" lon="-105.22981">
  <ele>1582.94</ele>
  <time>2026-08-28T17:53:24Z</time>
  <course>293.04</course>
  <speed>0.02</speed>
  <fix>3d</fix>
</trkpt>
<trkpt lat="40.0713763" lon="-105.2298098">
  <ele>1583.0</ele>
  <time>2026-08-28T17:53:24Z</time>
  <course>294.5</course>
  <speed>0.0</speed>
  <fix>3d</fix>
</trkpt>
<trkpt lat="40.0713761" lon="-105.22981">
  <ele>1582.94</ele>
  <time>2026-08-28T17:53:24Z</time>
  <course>293.04</course>
  <speed>0.02</speed>
  <fix>3d</fix>
</trkpt>
<trkpt lat="40.0713763" lon="-105.2298098">
  <ele>1583.0</ele>
  <time>2026-08-28T17:53:24Z</time>
  <course>294.56</course>
  <speed>0.0</speed>
  <fix>3d</fix>
</trkpt>
<trkpt lat="40.0713762" lon="-105.22981">
  <ele>1582.94</ele>
  <time>2026-08-28T17:53:24Z</time>
  <course>293.04</course>
  <speed>0.02</speed>
  <fix>3d</fix>
</trkpt>
<trkpt lat="40.0713763" lon="-105.2298098">
  <ele>1583.0</ele>
  <time>2026-08-28T17:53:24Z</time>
  <course>294.56</course>
  <speed>0.0</speed>
  <fix>3d</fix>
</trkpt>
<trkpt lat="40.0713762" lon="-105.22981">
  <ele>1582.95</ele>
  <time>2026-08-28T17:53:24Z</time>
  <course>293.04</course>
  <speed>0.02</speed>
  <fix>3d</fix>
</trkpt>
<trkpt lat="40.0713763" lon="-105.2298098">
  <ele>1583.0</ele>
  <time>2026-08-28T17:53:24Z</time>
  <course>294.62</course>
  <speed>0.0</speed>
  <fix>3d</fix>
</trkpt>
<trkpt lat="40.0713762" lon="-105.22981">
  <ele>1582.95</ele>
  <time>2026-08-28T17:53:24Z</time>
  <course>293.04</course>
  <speed>0.02</speed>
  <fix>3d</fix>
</trkpt>
<trkpt lat="40.0713763" lon="-105.2298098">
  <ele>1583.0</ele>
  <time>2026-08-28T17:53:24Z</time>
  <course>294.62</course>
  <speed>0.0</speed>
  <fix>3d</fix>
</trkpt>
<trkpt lat="40.0713762" lon="-105.22981">
  <ele>1582.95</ele>
  <time>2026-08-28T17:53:24Z</time>
  <course>293.03</course>
  <speed>0.02</speed>
  <fix>3d</fix>
</trkpt>
<trkpt lat="40.0713763" lon="-105.2298098">
  <ele>1583.0</ele>
  <time>2026-08-28T17:53:24Z</time>
  <course>294.69</course>
  <speed>0.0</speed>
  <fix>3d</fix>
</trkpt>
<trkpt lat="40.0713762" lon="-105.22981">
  <ele>1582.95</ele>
  <time>2026-08-28T17:53:24Z</time>
  <course>293.03</course>
  <speed>0.02</speed>
  <fix>3d</fix>
</trkpt>
<trkpt lat="40.0713763" lon="-105.2298098">
  <ele>1583.0</ele>
  <time>2026-08-28T17:53:24Z</time>
  <course>294.69</course>
  <speed>0.0</speed>
  <fix>3d</fix>
</trkpt>
<trkpt lat="40.0713762" lon="-105.22981">
  <ele>1582.95</ele>
  <time>2026-08-28T17:53:24Z</time>
  <course>293.03</course>
  <speed>0.02</speed>
  <fix>3d</fix>
</trkpt>
<trkpt lat="40.0713763" lon="-105.2298098">
  <ele>1583.0</ele>
  <time>2026-08-28T17:53:24Z</time>
  <course>294.76</course>
  <speed>0.0</speed>
  <fix>3d</fix>
</trkpt>
<trkpt lat="40.0713762" lon="-105.22981">
  <ele>1582.95</ele>
  <time>2026-08-28T17:53:24Z</time>
  <course>293.03</course>
  <speed>0.02</speed>
  <fix>3d</fix>
</trkpt>
<trkpt lat="40.0713763" lon="-105.2298098">
  <ele>1583.0</ele>
  <time>2026-08-28T17:53:24Z</time>
  <course>294.76</course>
  <speed>0.0</speed>
  <fix>3d</fix>
</trkpt>
<trkpt lat="40.0713762" lon="-105.22981">
  <ele>1582.95</ele>
  <time>2026-08-28T17:53:24Z</time>
  <course>293.02</course>
  <speed>0.02</speed>
  <fix>3d</fix>
</trkpt>
<trkpt lat="40.0713763" lon="-105.2298098">
  <ele>1583.0</ele>
  <time>2026-08-28T17:53:24Z</time>
  <course>294.84</course>
  <speed>0.0</speed>
  <fix>3d</fix>
</trkpt>
<trkpt lat="40.0713762" lon="-105.22981">
  <ele>1582.95</ele>
  <time>2026-08-28T17:53:24Z</time>
  <course>293.02</course>
  <speed>0.02</speed>
  <fix>3d</fix>
</trkpt>
<trkpt lat="40.0713763" lon="-105.2298098">
  <ele>1583.0</ele>
  <time>2026-08-28T17:53:24Z</time>
  <course>294.84</course>
  <speed>0.0</speed>
  <fix>3d</fix>
</trkpt>
<trkpt lat="40.0713762" lon="-105.22981">
  <ele>1582.96</ele>
  <time>2026-08-28T17:53:24Z</time>
  <course>293.02</course>
  <speed>0.02</speed>
  <fix>3d</fix>
</trkpt>
<trkpt lat="40.0713763" lon="-105.2298098">
  <ele>1583.0</ele>
  <time>2026-08-28T17:53:24Z</time>
  <course>294.93</course>
  <speed>0.0</speed>
  <fix>3d</fix>
</trkpt>
<trkpt lat="40.0713762" lon="-105.22981">
  <ele>1582.95</ele>
  <time>2026-08-28T17:53:24Z</time>
  <course>293.02</course>
  <speed>0.02</speed>
  <fix>3d</fix>
</trkpt>
<trkpt lat="40.0713763" lon="-105.2298098">
  <ele>1583.0</ele>
  <time>2026-08-28T17:53:24Z</time>
  <course>294.93</course>
  <speed>0.0</speed>
  <fix>3d</fix>
</trkpt>
<trkpt lat="40.0713762" lon="-105.22981">
  <ele>1582.95</ele>
  <time>2026-08-28T17:53:24Z</time>
  <course>293.02</course>
  <speed>0.02</speed>
  <fix>3d</fix>
</trkpt>
<trkpt lat="40.0713763" lon="-105.2298098">
  <ele>1583.0</ele>
  <time>2026-08-28T17:53:24Z</time>
  <course>295.03</course>
  <speed>0.0</speed>
  <fix>3d</fix>
</trkpt>
<trkpt lat="40.0713762" lon="-105.22981">
  <ele>1582.95</ele>
  <time>2026-08-28T17:53:24Z</time>
  <course>293.01</course>
  <speed>0.02</speed>
  <fix>3d</fix>
</trkpt>
<trkpt lat="40.0713763" lon="-105.2298098">
  <ele>1583.0</ele>
  <time>2026-08-28T17:53:24Z</time>
  <course>295.03</course>
  <speed>0.0</speed>
  <fix>3d</fix>
</trkpt>
<trkpt lat="40.0713762" lon="-105.22981">
  <ele>1582.94</ele>
  <time>2026-08-28T17:53:24Z</time>
  <course>293.01</course>
  <speed>0.02</speed>
  <fix>3d</fix>
</trkpt>
<trkpt lat="40.0713763" lon="-105.2298098">
  <ele>1583.0</ele>
  <time>2026-08-28T17:53:24Z</time>
  <course>295.14</course>
  <speed>0.0</speed>
  <fix>3d</fix>
</trkpt>
<trkpt lat="40.0713762" lon="-105.22981">
  <ele>1582.94</ele>
  <time>2026-08-28T17:53:24Z</time>
  <course>293.01</course>
  <speed>0.02</speed>
  <fix>3d</fix>
</trkpt>
<trkpt lat="40.0713763" lon="-105.2298098">
  <ele>1583.0</ele>
  <time>2026-08-28T17:53:24Z</time>
  <course>295.14</course>
  <speed>0.0</speed>
  <fix>3d</fix>
</trkpt>
<trkpt lat="40.0713762" lon="-105.22981">
  <ele>1582.94</ele>
  <time>2026-08-28T17:53:24Z</time>
  <course>293.01</course>
  <speed>0.02</speed>
  <fix>3d</fix>
</trkpt>
<trkpt lat="40.0713763" lon="-105.2298098">
  <ele>1583.0</ele>
  <time>2026-08-28T17:53:24Z</time>
  <course>295.27</course>
  <speed>0.0</speed>
  <fix>3d</fix>
</trkpt>
<trkpt lat="40.0713762" lon="-105.22981">
  <ele>1582.93</ele>
  <time>2026-08-28T17:53:24Z</time>
  <course>293.01</course>
  <speed>0.02</speed>
  <fix>3d</fix>
</trkpt>
<trkpt lat="40.0713763" lon="-105.2298098">
  <ele>1583.0</ele>
  <time>2026-08-28T17:53:24Z</time>
  <course>295.27</course>
  <speed>0.0</speed>
  <fix>3d</fix>
</trkpt>
<trkpt lat="40.0713762" lon="-105.22981">
  <ele>1582.93</ele>
  <time>2026-08-28T17:53:24Z</time>
  <course>293.0</course>
  <speed>0.02</speed>
  <fix>3d</fix>
</trkpt>
<trkpt lat="40.0713763" lon="-105.2298098">
  <ele>1583.0</ele>
  <time>2026-08-28T17:53:24Z</time>
  <course>295.4</course>
  <speed>0.0</speed>
  <fix>3d</fix>
</trkpt>
<trkpt lat="40.0713762" lon="-105.22981">
  <ele>1582.92</ele>
  <time>2026-08-28T17:53:24Z</time>
  <course>293.0</course>
  <speed>0.02</speed>
  <fix>3d</fix>
</trkpt>
<trkpt lat="40.0713763" lon="-105.2298098">
  <ele>1583.0</ele>
  <time>2026-08-28T17:53:24Z</time>
  <course>295.4</course>
  <speed>0.0</speed>
  <fix>3d</fix>
</trkpt>
<trkpt lat="40.0713762" lon="-105.22981">
  <ele>1582.92</ele>
  <time>2026-08-28T17:53:24Z</time>
  <course>293.0</course>
  <speed>0.04</speed>
  <fix>3d</fix>
</trkpt>
<trkpt lat="40.0713763" lon="-105.2298098">
  <ele>1583.0</ele>
  <time>2026-08-28T17:53:24Z</time>
  <course>295.55</course>
  <speed>0.0</speed>
  <fix>3d</fix>
</trkpt>
<trkpt lat="40.0713762" lon="-105.22981">
  <ele>1582.92</ele>
  <time>2026-08-28T17:53:24Z</time>
  <course>293.0</course>
  <speed>0.30463092423455634</speed>
  <fix>3d</fix>
</trkpt>
<trkpt lat="40.0713763" lon="-105.2298098">
  <ele>1583.0</ele>
  <time>2026-08-28T17:53:24Z</time>
  <course>295.55</course>
  <speed>0.0</speed>
  <fix>3d</fix>
</trkpt>
<trkpt lat="40.0713758" lon="-105.2298097">
  <ele>1582.92</ele>
  <time>2026-08-28T17:53:24Z</time>
  <course>293.0</course>
  <speed>0.56859475903318</speed>
  <fix>3d</fix>
</trkpt>
<trkpt lat="40.0713763" lon="-105.2298098">
  <ele>1583.0</ele>
  <time>2026-08-28T17:53:24Z</time>
  <course>295.71</course>
  <speed>0.0</speed>
  <fix>3d</fix>
</trkpt>
<trkpt lat="40.0713753" lon="-105.2298094">
  <ele>1582.92</ele>
  <time>2026-08-28T17:53:24Z</time>
  <course>292.99</course>
  <speed>0.832586331859946</speed>
  <fix>3d</fix>
</trkpt>
<trkpt lat="40.0713763" lon="-105.2298098">
  <ele>1583.0</ele>
  <time>2026-08-28T17:53:24Z</time>
  <course>295.71</course>
  <speed>0.0</speed>
  <fix>3d</fix>
</trkpt>
<trkpt lat="40.0713745" lon="-105.2298089">
  <ele>1582.92</ele>
  <time>2026-08-28T17:53:24Z</time>
  <course>292.99</course>
  <speed>1.100727032465361</speed>
  <fix>3d</fix>
</trkpt>
<trkpt lat="40.0713763" lon="-105.2298098">
  <ele>1583.0</ele>
  <time>2026-08-28T17:53:24Z</time>
  <course>295.9</course>
  <speed>0.0</speed>
  <fix>3d</fix>
</trkpt>
<trkpt lat="40.0713737" lon="-105.2298084">
  <ele>1582.91</ele>
  <time>2026-08-28T17:53:24Z</time>
  <course>292.99</course>
  <speed>1.360588108135596</speed>
  <fix>3d</fix>
</trkpt>
<trkpt lat="40.0713763" lon="-105.2298098">
  <ele>1583.0</ele>
  <time>2026-08-28T17:53:24Z</time>
  <course>295.9</course>
  <speed>0.0</speed>
  <fix>3d</fix>
</trkpt>
<trkpt lat="40.0713729" lon="-105.2298079">
  <ele>1582.9</ele>
  <time>2026-08-28T17:53:24Z</time>
  <course>292.98</course>
  <speed>1.6072958657322554</speed>
  <fix>3d</fix>
</trkpt>
<trkpt lat="40.0713763" lon="-105.2298098">
  <ele>1583.0</ele>
  <time>2026-08-28T17:53:24Z</time>
  <course>296.1</course>
  <speed>0.0</speed>
  <fix>3d</fix>
</trkpt>
<trkpt lat="40.0713718" lon="-105.2298073">
  <ele>1582.89</ele>
  <time>2026-08-28T17:53:24Z</time>
  <course>292.98</course>
  <speed>1.8947559209565754</speed>
  <fix>3d</fix>
</trkpt>
<trkpt lat="40.0713763" lon="-105.2298098">
  <ele>1583.0</ele>
  <time>2026-08-28T17:53:24Z</time>
  <course>296.1</course>
  <speed>0.0</speed>
  <fix>3d</fix>
</trkpt>
<trkpt lat="40.0713705" lon="-105.2298066">
  <ele>1582.87</ele>
  <time>2026-08-28T17:53:24Z</time>
  <course>292.97</course>
  <speed>2.182338195605805</speed>
  <fix>3d</fix>
</trkpt>
<trkpt lat="40.0713763" lon="-105.2298098">
  <ele>1583.0</ele>
  <time>2026-08-28T17:53:24Z</time>
  <course>296.32</course>
  <speed>0.0</speed>
  <fix>3d</fix>
</trkpt>
<trkpt lat="40.0713693" lon="-105.2298059">
  <ele>1582.84</ele>
  <time>2026-08-28T17:53:24Z</time>
  <course>292.96</course>
  <speed>2.4423349483639627</speed>
  <fix>3d</fix>
</trkpt>
<trkpt lat="40.0713763" lon="-105.2298098">
  <ele>1583.0</ele>
  <time>2026-08-28T17:53:24Z</time>
  <course>296.32</course>
  <speed>0.0</speed>
  <fix>3d</fix>
</trkpt>
<trkpt lat="40.0713677" lon="-105.229805">
  <ele>1582.81</ele>
  <time>2026-08-28T17:53:24Z</time>
  <course>292.96</course>
  <speed>2.716928412748485</speed>
  <fix>3d</fix>
</trkpt>
<trkpt lat="40.0713763" lon="-105.2298098">
  <ele>1583.0</ele>
  <time>2026-08-28T17:53:24Z</time>
  <course>296.56</course>
  <speed>0.0</speed>
  <fix>3d</fix>
</trkpt>
<trkpt lat="40.0713664" lon="-105.2298044">
  <ele>1582.78</ele>
  <time>2026-08-28T17:53:24Z</time>
  <course>292.95</course>
  <speed>2.9508134471701193</speed>
  <fix>3d</fix>
</trkpt>
<trkpt lat="40.0713763" lon="-105.2298098">
  <ele>1583.0</ele>
  <time>2026-08-28T17:53:24Z</time>
  <course>296.56</course>
  <speed>0.0</speed>
  <fix>3d</fix>
</trkpt>
<trkpt lat="40.0713647" lon="-105.2298034">
  <ele>1582.74</ele>
  <time>2026-08-28T17:53:24Z</time>
  <course>292.94</course>
  <speed>3.1977648443874047</speed>
  <fix>3d</fix>
</trkpt>
<trkpt lat="40.0713763" lon="-105.2298098">
  <ele>1583.0</ele>
  <time>2026-08-28T17:53:24Z</time>
  <course>296.83</course>
  <speed>0.0</speed>
  <fix>3d</fix>
</trkpt>
<trkpt lat="40.0713633" lon="-105.2298028">
  <ele>1582.71</ele>
  <time>2026-08-28T17:53:24Z</time>
  <course>292.93</course>
  <speed>3.4001323503652032</speed>
  <fix>3d</fix>
</trkpt>
<trkpt lat="40.0713763" lon="-105.2298098">
  <ele>1583.0</ele>
  <time>2026-08-28T17:53:24Z</time>
  <course>296.83</course>
  <speed>0.0</speed>
  <fix>3d</fix>
</trkpt>
<trkpt lat="40.0713615" lon="-105.2298018">
  <ele>1582.67</ele>
  <time>2026-08-28T17:53:24Z</time>
  <course>292.92</course>
  <speed>3.6340748478808194</speed>
  <fix>3d</fix>
</trkpt>
<trkpt lat="40.0713763" lon="-105.2298098">
  <ele>1583.0</ele>
  <time>2026-08-28T17:53:24Z</time>
  <course>297.13</course>
  <speed>0.0</speed>
  <fix>3d</fix>
</trkpt>
<trkpt lat="40.0713603" lon="-105.2298012">
  <ele>1582.64</ele>
  <time>2026-08-28T17:53:24Z</time>
  <course>292.9</course>
  <speed>3.795629065122144</speed>
  <fix>3d</fix>
</trkpt>
<trkpt lat="40.0713763" lon="-105.2298098">
  <ele>1583.0</ele>
  <time>2026-08-28T17:53:24Z</time>
  <course>297.13</course>
  <speed>0.0</speed>
  <fix>3d</fix>
</trkpt>
<trkpt lat="39.655741" lon="-104.1383097">
  <ele>1566.58</ele>
  <time>2026-08-28T17:53:26Z</time>
  <course>0.0</course>
  <speed>0.0</speed>
  <fix>3d</fix>
</trkpt>
<trkpt lat="40.0713749" lon="-105.229789">
  <ele>1583.0</ele>
  <time>2026-08-28T17:53:26Z</time>
  <course>0.0</course>
  <speed>0.0</speed>
  <fix>3d</fix>
</trkpt>
<trkpt lat="40.0713749" lon="-105.229789">
  <ele>1583.0</ele>
  <time>2026-08-28T17:53:26Z</time>
  <course>201.09</course>
  <speed>0.0</speed>
  <fix>3d</fix>
</trkpt>
<trkpt lat="40.0713749" lon="-105.229789">
  <ele>1583.0</ele>
  <time>2026-08-28T17:53:26Z</time>
  <course>0.0</course>
  <speed>0.0</speed>
  <fix>3d</fix>
</trkpt>
<trkpt lat="40.0713749" lon="-105.229789">
  <ele>1583.0</ele>
  <time>2026-08-28T17:53:26Z</time>
  <course>201.2</course>
  <speed>0.0</speed>
  <fix>3d</fix>
</trkpt>
<trkpt lat="40.0713749" lon="-105.229789">
  <ele>1583.0</ele>
  <time>2026-08-28T17:53:26Z</time>
  <course>0.0</course>
  <speed>0.0</speed>
  <fix>3d</fix>
</trkpt>
<trkpt lat="40.0713749" lon="-105.229789">
  <ele>1583.0</ele>
  <time>2026-08-28T17:53:26Z</time>
  <course>201.42</course>
  <speed>0.0</speed>
  <fix>3d</fix>
</trkpt>
<trkpt lat="40.0713749" lon="-105.229789">
  <ele>1583.0</ele>
  <time>2026-08-28T17:53:26Z</time>
  <course>0.0</course>
  <speed>0.0</speed>
  <fix>3d</fix>
</trkpt>
<trkpt lat="40.0713749" lon="-105.229789">
  <ele>1583.0</ele>
  <time>2026-08-28T17:53:26Z</time>
  <course>201.73</course>
  <speed>0.01</speed>
  <fix>3d</fix>
</trkpt>
<trkpt lat="40.0713749" lon="-105.229789">
  <ele>1583.0</ele>
  <time>2026-08-28T17:53:26Z</time>
  <course>0.0</course>
  <speed>0.0</speed>
  <fix>3d</fix>
</trkpt>
<trkpt lat="40.0713749" lon="-105.229789">
  <ele>1583.0</ele>
  <time>2026-08-28T17:53:26Z</time>
  <course>202.08</course>
  <speed>0.01</speed>
  <fix>3d</fix>
</trkpt>
<trkpt lat="40.0713749" lon="-105.229789">
  <ele>1583.0</ele>
  <time>2026-08-28T17:53:26Z</time>
  <course>0.0</course>
  <speed>0.0</speed>
  <fix>3d</fix>
</trkpt>
<trkpt lat="40.0713749" lon="-105.229789">
  <ele>1583.0</ele>
  <time>2026-08-28T17:53:26Z</time>
  <course>202.46</course>
  <speed>0.01</speed>
  <fix>3d</fix>
</trkpt>
<trkpt lat="40.0713749" lon="-105.229789">
  <ele>1583.0</ele>
  <time>2026-08-28T17:53:26Z</time>
  <course>0.0</course>
  <speed>0.0</speed>
  <fix>3d</fix>
</trkpt>
<trkpt lat="40.0713749" lon="-105.229789">
  <ele>1583.0</ele>
  <time>2026-08-28T17:53:26Z</time>
  <course>202.83</course>
  <speed>0.01</speed>
  <fix>3d</fix>
</trkpt>
<trkpt lat="40.0713749" lon="-105.229789">
  <ele>1583.0</ele>
  <time>2026-08-28T17:53:26Z</time>
  <course>0.0</course>
  <speed>0.0</speed>
  <fix>3d</fix>
</trkpt>
<trkpt lat="40.0713749" lon="-105.229789">
  <ele>1583.0</ele>
  <time>2026-08-28T17:53:26Z</time>
  <course>203.19</course>
  <speed>0.01</speed>
  <fix>3d</fix>
</trkpt>
<trkpt lat="40.0713749" lon="-105.229789">
  <ele>1583.0</ele>
  <time>2026-08-28T17:53:26Z</time>
  <course>0.0</course>
  <speed>0.0</speed>
  <fix>3d</fix>
</trkpt>
<trkpt lat="40.0713749" lon="-105.229789">
  <ele>1583.0</ele>
  <time>2026-08-28T17:53:26Z</time>
  <course>203.54</course>
  <speed>0.01</speed>
  <fix>3d</fix>
</trkpt>
<trkpt lat="40.0713749" lon="-105.229789">
  <ele>1583.0</ele>
  <time>2026-08-28T17:53:26Z</time>
  <course>0.0</course>
  <speed>0.0</speed>
  <fix>3d</fix>
</trkpt>
<trkpt lat="40.0713749" lon="-105.229789">
  <ele>1583.0</ele>
  <time>2026-08-28T17:53:26Z</time>
  <course>203.87</course>
  <speed>0.02</speed>
  <fix>3d</fix>
</trkpt>
<trkpt lat="40.0713749" lon="-105.229789">
  <ele>1583.0</ele>
  <time>2026-08-28T17:53:26Z</time>
  <course>0.0</course>
  <speed>0.0</speed>
  <fix>3d</fix>
</trkpt>
<trkpt lat="40.0713749" lon="-105.229789">
  <ele>1583.0</ele>
  <time>2026-08-28T17:53:26Z</time>
  <course>204.18</course>
  <speed>0.02</speed>
  <fix>3d</fix>
</trkpt>
<trkpt lat="40.0713749" lon="-105.229789">
  <ele>1583.0</ele>
  <time>2026-08-28T17:53:26Z</time>
  <course>0.0</course>
  <speed>0.0</speed>
  <fix>3d</fix>
</trkpt>
<trkpt lat="40.0713749" lon="-105.229789">
  <ele>1583.0</ele>
  <time>2026-08-28T17:53:26Z</time>
  <course>204.49</course>
  <speed>0.02</speed>
  <fix>3d</fix>
</trkpt>
<trkpt lat="40.0713749" lon="-105.229789">
  <ele>1583.0</ele>
  <time>2026-08-28T17:53:26Z</time>
  <course>0.0</course>
  <speed>0.0</speed>
  <fix>3d</fix>
</trkpt>
<trkpt lat="40.0713749" lon="-105.229789">
  <ele>1583.0</ele>
  <time>2026-08-28T17:53:26Z</time>
  <course>204.79</course>
  <speed>0.02</speed>
  <fix>3d</fix>
</trkpt>
<trkpt lat="40.0713749" lon="-105.229789">
  <ele>1583.0</ele>
  <time>2026-08-28T17:53:26Z</time>
  <course>0.0</course>
  <speed>0.0</speed>
  <fix>3d</fix>
</trkpt>
<trkpt lat="40.0713749" lon="-105.229789">
  <ele>1583.0</ele>
  <time>2026-08-28T17:53:26Z</time>
  <course>205.08</course>
  <speed>0.02</speed>
  <fix>3d</fix>
</trkpt>
<trkpt lat="40.0713749" lon="-105.229789">
  <ele>1583.0</ele>
  <time>2026-08-28T17:53:26Z</time>
  <course>0.0</course>
  <speed>0.0</speed>
  <fix>3d</fix>
</trkpt>
<trkpt lat="40.0713749" lon="-105.229789">
  <ele>1583.0</ele>
  <time>2026-08-28T17:53:26Z</time>
  <course>205.36</course>
  <speed>0.02</speed>
  <fix>3d</fix>
</trkpt>
<trkpt lat="40.0713749" lon="-105.229789">
  <ele>1583.0</ele>
  <time>2026-08-28T17:53:26Z</time>
  <course>0.0</course>
  <speed>0.0</speed>
  <fix>3d</fix>
</trkpt>
<trkpt lat="40.0713749" lon="-105.229789">
  <ele>1583.0</ele>
  <time>2026-08-28T17:53:26Z</time>
  <course>205.63</course>
  <speed>0.02</speed>
  <fix>3d</fix>
</trkpt>
<trkpt lat="40.0713749" lon="-105.229789">
  <ele>1583.0</ele>
  <time>2026-08-28T17:53:26Z</time>
  <course>0.0</course>
  <speed>0.0</speed>
  <fix>3d</fix>
</trkpt>
<trkpt lat="40.0713749" lon="-105.229789">
  <ele>1583.0</ele>
  <time>2026-08-28T17:53:26Z</time>
  <course>205.9</course>
  <speed>0.02</speed>
  <fix>3d</fix>
</trkpt>
<trkpt lat="40.0713749" lon="-105.229789">
  <ele>1583.0</ele>
  <time>2026-08-28T17:53:26Z</time>
  <course>0.0</course>
  <speed>0.0</speed>
  <fix>3d</fix>
</trkpt>
<trkpt lat="40.0713749" lon="-105.229789">
  <ele>1583.0</ele>
  <time>2026-08-28T17:53:26Z</time>
  <course>206.15</course>
  <speed>0.02</speed>
  <fix>3d</fix>
</trkpt>
<trkpt lat="40.0713749" lon="-105.229789">
  <ele>1583.0</ele>
  <time>2026-08-28T17:53:26Z</time>
  <course>0.0</course>
  <speed>0.0</speed>
  <fix>3d</fix>
</trkpt>
<trkpt lat="40.0713749" lon="-105.229789">
  <ele>1583.0</ele>
  <time>2026-08-28T17:53:26Z</time>
  <course>206.4</course>
  <speed>0.02</speed>
  <fix>3d</fix>
</trkpt>
<trkpt lat="40.0713749" lon="-105.229789">
  <ele>1583.0</ele>
  <time>2026-08-28T17:53:26Z</time>
  <course>0.0</course>
  <speed>0.0</speed>
  <fix>3d</fix>
</trkpt>
<trkpt lat="40.0713749" lon="-105.229789">
  <ele>1583.0</ele>
  <time>2026-08-28T17:53:26Z</time>
  <course>206.64</course>
  <speed>0.01</speed>
  <fix>3d</fix>
</trkpt>
<trkpt lat="40.0713749" lon="-105.229789">
  <ele>1583.0</ele>
  <time>2026-08-28T17:53:26Z</time>
  <course>0.0</course>
  <speed>0.0</speed>
  <fix>3d</fix>
</trkpt>
<trkpt lat="40.0713749" lon="-105.229789">
  <ele>1583.0</ele>
  <time>2026-08-28T17:53:26Z</time>
  <course>206.87</course>
  <speed>0.01414213562373095</speed>
  <fix>3d</fix>
</trkpt>
<trkpt lat="40.0713749" lon="-105.229789">
  <ele>1583.0</ele>
  <time>2026-08-28T17:53:26Z</time>
  <course>0.0</course>
  <speed>0.0</speed>
  <fix>3d</fix>
</trkpt>
<trkpt lat="40.0713749" lon="-105.229789">
  <ele>1583.0</ele>
  <time>2026-08-28T17:53:26Z</time>
  <course>207.09</course>
  <speed>0.01414213562373095</speed>
  <fix>3d</fix>
</trkpt>
<trkpt lat="40.0713749" lon="-105.229789">
  <ele>1583.0</ele>
  <time>2026-08-28T17:53:26Z</time>
  <course>0.0</course>
  <speed>0.0</speed>
  <fix>3d</fix>
</trkpt>
<trkpt lat="40.0713749" lon="-105.229789">
  <ele>1583.0</ele>
  <time>2026-08-28T17:53:26Z</time>
  <course>207.3</course>
  <speed>0.01414213562373095</speed>
  <fix>3d</fix>
</trkpt>
<trkpt lat="40.0713749" lon="-105.229789">
  <ele>1583.0</ele>
  <time>2026-08-28T17:53:26Z</time>
  <course>0.0</course>
  <speed>0.0</speed>
  <fix>3d</fix>
</trkpt>
<trkpt lat="40.0713749" lon="-105.229789">
  <ele>1583.0</ele>
  <time>2026-08-28T17:53:26Z</time>
  <course>207.5</course>
  <speed>0.01414213562373095</speed>
  <fix>3d</fix>
</trkpt>
<trkpt lat="40.0713749" lon="-105.229789">
  <ele>1583.0</ele>
  <time>2026-08-28T17:53:26Z</time>
  <course>0.0</course>
  <speed>0.0</speed>
  <fix>3d</fix>
</trkpt>
<trkpt lat="40.0713749" lon="-105.229789">
  <ele>1583.0</ele>
  <time>2026-08-28T17:53:26Z</time>
  <course>207.7</course>
  <speed>0.01414213562373095</speed>
  <fix>3d</fix>
</trkpt>
<trkpt lat="40.0713749" lon="-105.229789">
  <ele>1583.0</ele>
  <time>2026-08-28T17:53:26Z</time>
  <course>0.0</course>
  <speed>0.0</speed>
  <fix>3d</fix>
</trkpt>
<trkpt lat="40.0713749" lon="-105.229789">
  <ele>1583.0</ele>
  <time>2026-08-28T17:53:26Z</time>
  <course>207.89</course>
  <speed>0.01414213562373095</speed>
  <fix>3d</fix>
</trkpt>
<trkpt lat="40.0713749" lon="-105.229789">
  <ele>1583.0</ele>
  <time>2026-08-28T17:53:26Z</time>
  <course>0.0</course>
  <speed>0.0</speed>
  <fix>3d</fix>
</trkpt>
<trkpt lat="40.0713749" lon="-105.229789">
  <ele>1583.0</ele>
  <time>2026-08-28T17:53:26Z</time>
  <course>208.07</course>
  <speed>0.01414213562373095</speed>
  <fix>3d</fix>
</trkpt>
<trkpt lat="40.0713749" lon="-105.229789">
  <ele>1583.0</ele>
  <time>2026-08-28T17:53:26Z</time>
  <course>0.0</course>
  <speed>0.0</speed>
  <fix>3d</fix>
</trkpt>
<trkpt lat="40.0713749" lon="-105.229789">
  <ele>1583.0</ele>
  <time>2026-08-28T17:53:26Z</time>
  <course>208.24</course>
  <speed>0.01</speed>
  <fix>3d</fix>
</trkpt>
<trkpt lat="40.0713749" lon="-105.229789">
  <ele>1583.0</ele>
  <time>2026-08-28T17:53:26Z</time>
  <course>0.0</course>
  <speed>0.0</speed>
  <fix>3d</fix>
</trkpt>
<trkpt lat="40.0713749" lon="-105.229789">
  <ele>1583.0</ele>
  <time>2026-08-28T17:53:26Z</time>
  <course>208.41</course>
  <speed>0.01</speed>
  <fix>3d</fix>
</trkpt>
<trkpt lat="40.0713749" lon="-105.229789">
  <ele>1583.0</ele>
  <time>2026-08-28T17:53:26Z</time>
  <course>0.0</course>
  <speed>0.0</speed>
  <fix>3d</fix>
</trkpt>
<trkpt lat="40.0713749" lon="-105.229789">
  <ele>1583.0</ele>
  <time>2026-08-28T17:53:26Z</time>
  <course>208.57</course>
  <speed>0.01</speed>
  <fix>3d</fix>
</trkpt>
<trkpt lat="40.0713749" lon="-105.229789">
  <ele>1583.0</ele>
  <time>2026-08-28T17:53:26Z</time>
  <course>0.0</course>
  <speed>0.0</speed>
  <fix>3d</fix>
</trkpt>
<trkpt lat="40.0713749" lon="-105.229789">
  <ele>1583.0</ele>
  <time>2026-08-28T17:53:26Z</time>
  <course>208.73</course>
  <speed>0.01</speed>
  <fix>3d</fix>
</trkpt>
<trkpt lat="40.0713749" lon="-105.229789">
  <ele>1583.0</ele>
  <time>2026-08-28T17:53:26Z</time>
  <course>0.0</course>
  <speed>0.0</speed>
  <fix>3d</fix>
</trkpt>
<trkpt lat="40.0713749" lon="-105.229789">
  <ele>1583.0</ele>
  <time>2026-08-28T17:53:26Z</time>
  <course>208.87</course>
  <speed>0.01</speed>
  <fix>3d</fix>
</trkpt>
<trkpt lat="40.0713749" lon="-105.229789">
  <ele>1583.0</ele>
  <time>2026-08-28T17:53:26Z</time>
  <course>0.0</course>
  <speed>0.0</speed>
  <fix>3d</fix>
</trkpt>
<trkpt lat="40.0713749" lon="-105.229789">
  <ele>1583.0</ele>
  <time>2026-08-28T17:53:26Z</time>
  <course>209.01</course>
  <speed>0.01</speed>
  <fix>3d</fix>
</trkpt>
<trkpt lat="40.0713749" lon="-105.229789">
  <ele>1583.0</ele>
  <time>2026-08-28T17:53:26Z</time>
  <course>0.0</course>
  <speed>0.0</speed>
  <fix>3d</fix>
</trkpt>
<trkpt lat="40.0713749" lon="-105.229789">
  <ele>1583.0</ele>
  <time>2026-08-28T17:53:26Z</time>
  <course>209.15</course>
  <speed>0.01</speed>
  <fix>3d</fix>
</trkpt>
<trkpt lat="40.0713749" lon="-105.229789">
  <ele>1583.0</ele>
  <time>2026-08-28T17:53:26Z</time>
  <course>0.0</course>
  <speed>0.0</speed>
  <fix>3d</fix>
</trkpt>
<trkpt lat="40.0713749" lon="-105.229789">
  <ele>1583.0</ele>
  <time>2026-08-28T17:53:26Z</time>
  <course>209.28</course>
  <speed>0.01</speed>
  <fix>3d</fix>
</trkpt>
<trkpt lat="40.0713749" lon="-105.229789">
  <ele>1583.0</ele>
  <time>2026-08-28T17:53:26Z</time>
  <course>0.0</course>
  <speed>0.0</speed>
  <fix>3d</fix>
</trkpt>
<trkpt lat="40.0713749" lon="-105.229789">
  <ele>1583.0</ele>
  <time>2026-08-28T17:53:26Z</time>
  <course>209.41</course>
  <speed>0.01</speed>
  <fix>3d</fix>
</trkpt>
<trkpt lat="40.0713749" lon="-105.229789">
  <ele>1583.0</ele>
  <time>2026-08-28T17:53:26Z</time>
  <course>0.0</course>
  <speed>0.0</speed>
  <fix>3d</fix>
</trkpt>
<trkpt lat="40.0713749" lon="-105.229789">
  <ele>1583.0</ele>
  <time>2026-08-28T17:53:26Z</time>
  <course>209.53</course>
  <speed>0.01</speed>
  <fix>3d</fix>
</trkpt>
<trkpt lat="40.0713749" lon="-105.229789">
  <ele>1583.0</ele>
  <time>2026-08-28T17:53:26Z</time>
  <course>0.0</course>
  <speed>0.0</speed>
  <fix>3d</fix>
</trkpt>
<trkpt lat="40.0713749" lon="-105.229789">
  <ele>1583.0</ele>
  <time>2026-08-28T17:53:26Z</time>
  <course>209.64</course>
  <speed>0.01</speed>
  <fix>3d</fix>
</trkpt>
<trkpt lat="40.0713749" lon="-105.229789">
  <ele>1583.0</ele>
  <time>2026-08-28T17:53:26Z</time>
  <course>0.0</course>
  <speed>0.0</speed>
  <fix>3d</fix>
</trkpt>
<trkpt lat="40.0713749" lon="-105.229789">
  <ele>1583.0</ele>
  <time>2026-08-28T17:53:26Z</time>
  <course>209.75</course>
  <speed>0.01</speed>
  <fix>3d</fix>
</trkpt>
<trkpt lat="40.0713749" lon="-105.229789">
  <ele>1583.0</ele>
  <time>2026-08-28T17:53:26Z</time>
  <course>0.0</course>
  <speed>0.0</speed>
  <fix>3d</fix>
</trkpt>
<trkpt lat="40.0713749" lon="-105.229789">
  <ele>1583.0</ele>
  <time>2026-08-28T17:53:26Z</time>
  <course>209.85</course>
  <speed>0.01</speed>
  <fix>3d</fix>
</trkpt>
<trkpt lat="40.0713749" lon="-105.229789">
  <ele>1583.0</ele>
  <time>2026-08-28T17:53:26Z</time>
  <course>0.0</course>
  <speed>0.0</speed>
  <fix>3d</fix>
</trkpt>
<trkpt lat="40.0713749" lon="-105.229789">
  <ele>1583.0</ele>
  <time>2026-08-28T17:53:26Z</time>
  <course>209.95</course>
  <speed>0.01</speed>
  <fix>3d</fix>
</trkpt>
<trkpt lat="40.0713749" lon="-105.229789">
  <ele>1583.0</ele>
  <time>2026-08-28T17:53:26Z</time>
  <course>0.0</course>
  <speed>0.0</speed>
  <fix>3d</fix>
</trkpt>
<trkpt lat="40.0713749" lon="-105.229789">
  <ele>1583.0</ele>
  <time>2026-08-28T17:53:26Z</time>
  <course>210.05</course>
  <speed>0.01</speed>
  <fix>3d</fix>
</trkpt>
<trkpt lat="40.0713749" lon="-105.229789">
  <ele>1583.0</ele>
  <time>2026-08-28T17:53:26Z</time>
  <course>0.0</course>
  <speed>0.0</speed>
  <fix>3d</fix>
</trkpt>
<trkpt lat="40.0713749" lon="-105.229789">
  <ele>1583.0</ele>
  <time>2026-08-28T17:53:26Z</time>
  <course>210.14</course>
  <speed>0.01</speed>
  <fix>3d</fix>
</trkpt>
<trkpt lat="40.0713749" lon="-105.229789">
  <ele>1583.0</ele>
  <time>2026-08-28T17:53:26Z</time>
  <course>0.0</course>
  <speed>0.0</speed>
  <fix>3d</fix>
</trkpt>
<trkpt lat="40.0713749" lon="-105.229789">
  <ele>1583.0</ele>
  <time>2026-08-28T17:53:26Z</time>
  <course>210.22</course>
  <speed>0.01</speed>
  <fix>3d</fix>
</trkpt>
<trkpt lat="40.0713749" lon="-105.229789">
  <ele>1583.0</ele>
  <time>2026-08-28T17:53:26Z</time>
  <course>0.0</course>
  <speed>0.0</speed>
  <fix>3d</fix>
</trkpt>
<trkpt lat="40.0713749" lon="-105.229789">
  <ele>1583.0</ele>
  <time>2026-08-28T17:53:26Z</time>
  <course>210.3</course>
  <speed>0.01</speed>
  <fix>3d</fix>
</trkpt>
<trkpt lat="40.0713749" lon="-105.229789">
  <ele>1583.0</ele>
  <time>2026-08-28T17:53:26Z</time>
  <course>0.0</course>
  <speed>0.0</speed>
  <fix>3d</fix>
</trkpt>
<trkpt lat="40.0713749" lon="-105.229789">
  <ele>1583.0</ele>
  <time>2026-08-28T17:53:26Z</time>
  <course>210.38</course>
  <speed>0.01</speed>
  <fix>3d</fix>
</trkpt>
<trkpt lat="40.0713749" lon="-105.229789">
  <ele>1583.0</ele>
  <time>2026-08-28T17:53:26Z</time>
  <course>0.0</course>
  <speed>0.0</speed>
  <fix>3d</fix>
</trkpt>
<trkpt lat="40.0713749" lon="-105.229789">
  <ele>1583.0</ele>
  <time>2026-08-28T17:53:26Z</time>
  <course>210.39</course>
  <speed>0.17888543819998318</speed>
  <fix>3d</fix>
</trkpt>
<trkpt lat="40.0713749" lon="-105.229789">
  <ele>1583.0</ele>
  <time>2026-08-28T17:53:26Z</time>
  <course>0.0</course>
  <speed>0.0</speed>
  <fix>3d</fix>
</trkpt>
<trkpt lat="40.0713749" lon="-105.229789">
  <ele>1583.0</ele>
  <time>2026-08-28T17:53:26Z</time>
  <course>210.38</course>
  <speed>0.425440947723653</speed>
  <fix>3d</fix>
</trkpt>
<trkpt lat="40.0713749" lon="-105.229789">
  <ele>1583.0</ele>
  <time>2026-08-28T17:53:26Z</time>
  <course>0.0</course>
  <speed>0.0</speed>
  <fix>3d</fix>
</trkpt>
<trkpt lat="40.0713749" lon="-105.229789">
  <ele>1583.0</ele>
  <time>2026-08-28T17:53:26Z</time>
  <course>245.68</course>
  <speed>0.6760177512462228</speed>
  <fix>3d</fix>
</trkpt>
<trkpt lat="40.0713749" lon="-105.229789">
  <ele>1583.0</ele>
  <time>2026-08-28T17:53:26Z</time>
  <course>0.0</course>
  <speed>0.0</speed>
  <fix>3d</fix>
</trkpt>
<trkpt lat="40.0713749" lon="-105.229789">
  <ele>1583.0</ele>
  <time>2026-08-28T17:53:26Z</time>
  <course>283.44</course>
  <speed>0.9570788891204319</speed>
  <fix>3d</fix>
</trkpt>
<trkpt lat="40.0713749" lon="-105.229789">
  <ele>1583.0</ele>
  <time>2026-08-28T17:53:26Z</time>
  <course>0.0</course>
  <speed>0.0</speed>
  <fix>3d</fix>
</trkpt>
<trkpt lat="40.0713749" lon="-105.229789">
  <ele>1583.0</ele>
  <time>2026-08-28T17:53:26Z</time>
  <course>303.28</course>
  <speed>1.2408464852672147</speed>
  <fix>3d</fix>
</trkpt>
<trkpt lat="40.0713749" lon="-105.229789">
  <ele>1583.0</ele>
  <time>2026-08-28T17:53:26Z</time>
  <course>0.0</course>
  <speed>0.0</speed>
  <fix>3d</fix>
</trkpt>
<trkpt lat="40.0713749" lon="-105.229789">
  <ele>1583.0</ele>
  <time>2026-08-28T17:53:26Z</time>
  <course>313.83</course>
  <speed>1.496963593411677</speed>
  <fix>3d</fix>
</trkpt>
<trkpt lat="40.0713749" lon="-105.229789">
  <ele>1583.0</ele>
  <time>2026-08-28T17:53:26Z</time>
  <course>0.0</course>
  <speed>0.0</speed>
  <fix>3d</fix>
</trkpt>
<trkpt lat="40.0713749" lon="-105.229789">
  <ele>1583.0</ele>
  <time>2026-08-28T17:53:26Z</time>
  <course>319.48</course>
  <speed>1.76459627110566</speed>
  <fix>3d</fix>
</trkpt>
<trkpt lat="40.0713749" lon="-105.229789">
  <ele>1583.0</ele>
  <time>2026-08-28T17:53:26Z</time>
  <course>0.0</course>
  <speed>0.0</speed>
  <fix>3d</fix>
</trkpt>
<trkpt lat="40.0713749" lon="-105.229789">
  <ele>1583.0</ele>
  <time>2026-08-28T17:53:26Z</time>
  <course>322.48</course>
  <speed>2.008606482116395</speed>
  <fix>3d</fix>
</trkpt>
<trkpt lat="40.0713749" lon="-105.229789">
  <ele>1583.0</ele>
  <time>2026-08-28T17:53:26Z</time>
  <course>0.0</course>
  <speed>0.0</speed>
  <fix>3d</fix>
</trkpt>
<trkpt lat="40.0713749" lon="-105.229789">
  <ele>1583.0</ele>
  <time>2026-08-28T17:53:26Z</time>
  <course>324.11</course>
  <speed>2.247220505424423</speed>
  <fix>3d</fix>
</trkpt>
<trkpt lat="40.0713749" lon="-105.229789">
  <ele>1583.0</ele>
  <time>2026-08-28T17:53:26Z</time>
  <course>0.0</course>
  <speed>0.0</speed>
  <fix>3d</fix>
</trkpt>
<trkpt lat="40.0713749" lon="-105.229789">
  <ele>1583.0</ele>
  <time>2026-08-28T17:53:26Z</time>
  <course>324.99</course>
  <speed>2.471639132235934</speed>
  <fix>3d</fix>
</trkpt>
<trkpt lat="40.0713749" lon="-105.229789">
  <ele>1583.0</ele>
  <time>2026-08-28T17:53:26Z</time>
  <course>0.0</course>
  <speed>0.0</speed>
  <fix>3d</fix>
</trkpt>
<trkpt lat="40.0713749" lon="-105.229789">
  <ele>1583.0</ele>
  <time>2026-08-28T17:53:26Z</time>
  <course>325.47</course>
  <speed>2.6970354094820483</speed>
  <fix>3d</fix>
</trkpt>
<trkpt lat="40.0713749" lon="-105.229789">
  <ele>1583.0</ele>
  <time>2026-08-28T17:53:26Z</time>
  <course>0.0</course>
  <speed>0.0</speed>
  <fix>3d</fix>
</trkpt>
<trkpt lat="40.0713749" lon="-105.229789">
  <ele>1583.0</ele>
  <time>2026-08-28T17:53:26Z</time>
  <course>325.72</course>
  <speed>2.903687310989253</speed>
  <fix>3d</fix>
</trkpt>
<trkpt lat="40.0713749" lon="-105.229789">
  <ele>1583.0</ele>
  <time>2026-08-28T17:53:26Z</time>
  <course>0.0</course>
  <speed>0.0</speed>
  <fix>3d</fix>
</trkpt>
<trkpt lat="40.0713749" lon="-105.229789">
  <ele>1583.0</ele>
  <time>2026-08-28T17:53:26Z</time>
  <course>325.86</course>
  <speed>3.1010482098800076</speed>
  <fix>3d</fix>
</trkpt>
<trkpt lat="40.0713749" lon="-105.229789">
  <ele>1583.0</ele>
  <time>2026-08-28T17:53:26Z</time>
  <course>0.0</course>
  <speed>0.0</speed>
  <fix>3d</fix>
</trkpt>
<trkpt lat="40.0713749" lon="-105.229789">
  <ele>1582.66</ele>
  <time>2026-08-28T17:53:26Z</time>
  <course>7.09</course>
  <speed>0.0</speed>
  <fix>3d</fix>
</trkpt>
<trkpt lat="40.0713749" lon="-105.229789">
  <ele>1583.0</ele>
  <time>2026-08-28T17:53:26Z</time>
  <course>0.0</course>
  <speed>0.0</speed>
  <fix>3d</fix>
</trkpt>
<trkpt lat="40.0713749" lon="-105.229789">
  <ele>1582.92</ele>
  <time>2026-08-28T17:53:26Z</time>
  <course>9.21</course>
  <speed>0.0</speed>
  <fix>3d</fix>
</trkpt>
<trkpt lat="40.0713749" lon="-105.229789">
  <ele>1583.0</ele>
  <time>2026-08-28T17:53:26Z</time>
  <course>0.0</course>
  <speed>0.0</speed>
  <fix>3d</fix>
</trkpt>
<trkpt lat="40.0713749" lon="-105.229789">
  <ele>1582.82</ele>
  <time>2026-08-28T17:53:26Z</time>
  <course>10.67</course>
  <speed>0.0</speed>
  <fix>3d</fix>
</trkpt>
<trkpt lat="40.0713749" lon="-105.229789">
  <ele>1583.0</ele>
  <time>2026-08-28T17:53:26Z</time>
  <course>0.0</course>
  <speed>0.0</speed>
  <fix>3d</fix>
</trkpt>
<trkpt lat="40.0713749" lon="-105.229789">
  <ele>1582.61</ele>
  <time>2026-08-28T17:53:26Z</time>
  <course>11.26</course>
  <speed>0.0</speed>
  <fix>3d</fix>
</trkpt>
<trkpt lat="40.0713749" lon="-105.229789">
  <ele>1583.0</ele>
  <time>2026-08-28T17:53:26Z</time>
  <course>0.0</course>
  <speed>0.0</speed>
  <fix>3d</fix>
</trkpt>
<trkpt lat="40.0713749" lon="-105.229789">
  <ele>1582.87</ele>
  <time>2026-08-28T17:53:26Z</time>
  <course>10.88</course>
  <speed>0.0</speed>
  <fix>3d</fix>
</trkpt>
<trkpt lat="40.0713749" lon="-105.229789">
  <ele>1583.0</ele>
  <time>2026-08-28T17:53:26Z</time>
  <course>0.0</course>
  <speed>0.0</speed>
  <fix>3d</fix>
</trkpt>
<trkpt lat="40.0713749" lon="-105.229789">
  <ele>1582.73</ele>
  <time>2026-08-28T17:53:26Z</time>
  <course>9.95</course>
  <speed>0.0</speed>
  <fix>3d</fix>
</trkpt>
<trkpt lat="40.0713749" lon="-105.229789">
  <ele>1583.0</ele>
  <time>2026-08-28T17:53:26Z</time>
  <course>0.0</course>
  <speed>0.0</speed>
  <fix>3d</fix>
</trkpt>
<trkpt lat="40.0713749" lon="-105.229789">
  <ele>1582.83</ele>
  <time>2026-08-28T17:53:26Z</time>
  <course>8.75</course>
  <speed>0.0</speed>
  <fix>3d</fix>
</trkpt>
<trkpt lat="40.0713749" lon="-105.229789">
  <ele>1583.0</ele>
  <time>2026-08-28T17:53:26Z</time>
  <course>0.0</course>
  <speed>0.0</speed>
  <fix>3d</fix>
</trkpt>
<trkpt lat="40.0713749" lon="-105.229789">
  <ele>1583.12</ele>
  <time>2026-08-28T17:53:26Z</time>
  <course>7.53</course>
  <speed>0.0</speed>
  <fix>3d</fix>
</trkpt>
<trkpt lat="40.0713749" lon="-105.229789">
  <ele>1583.0</ele>
  <time>2026-08-28T17:53:26Z</time>
  <course>0.0</course>
  <speed>0.0</speed>
  <fix>3d</fix>
</trkpt>
<trkpt lat="40.0713749" lon="-105.229789">
  <ele>1582.79</ele>
  <time>2026-08-28T17:53:26Z</time>
  <course>6.38</course>
  <speed>0.0</speed>
  <fix>3d</fix>
</trkpt>
<trkpt lat="40.0713749" lon="-105.229789">
  <ele>1583.0</ele>
  <time>2026-08-28T17:53:26Z</time>
  <course>0.0</course>
  <speed>0.0</speed>
  <fix>3d</fix>
</trkpt>
<trkpt lat="40.0713749" lon="-105.229789">
  <ele>1583.15</ele>
  <time>2026-08-28T17:53:26Z</time>
  <course>5.37</course>
  <speed>0.0</speed>
  <fix>3d</fix>
</trkpt>
<trkpt lat="40.0713749" lon="-105.229789">
  <ele>1583.0</ele>
  <time>2026-08-28T17:53:26Z</time>
  <course>0.0</course>
  <speed>0.0</speed>
  <fix>3d</fix>
</trkpt>
<trkpt lat="40.0713749" lon="-105.229789">
  <ele>1582.83</ele>
  <time>2026-08-28T17:53:26Z</time>
  <course>4.52</course>
  <speed>0.0</speed>
  <fix>3d</fix>
</trkpt>
<trkpt lat="40.0713749" lon="-105.229789">
  <ele>1583.0</ele>
  <time>2026-08-28T17:53:26Z</time>
  <course>0.0</course>
  <speed>0.0</speed>
  <fix>3d</fix>
</trkpt>
<trkpt lat="40.0713749" lon="-105.229789">
  <ele>1582.82</ele>
  <time>2026-08-28T17:53:26Z</time>
  <course>3.85</course>
  <speed>0.0</speed>
  <fix>3d</fix>
</trkpt>
<trkpt lat="40.0713749" lon="-105.229789">
  <ele>1583.0</ele>
  <time>2026-08-28T17:53:26Z</time>
  <course>0.0</course>
  <speed>0.0</speed>
  <fix>3d</fix>
</trkpt>
<trkpt lat="40.0713749" lon="-105.229789">
  <ele>1583.06</ele>
  <time>2026-08-28T17:53:26Z</time>
  <course>3.38</course>
  <speed>0.0</speed>
  <fix>3d</fix>
</trkpt>
<trkpt lat="40.0713749" lon="-105.229789">
  <ele>1583.0</ele>
  <time>2026-08-28T17:53:26Z</time>
  <course>0.0</course>
  <speed>0.0</speed>
  <fix>3d</fix>
</trkpt>
<trkpt lat="40.0713749" lon="-105.229789">
  <ele>1582.9</ele>
  <time>2026-08-28T17:53:26Z</time>
  <course>3.1</course>
  <speed>0.0</speed>
  <fix>3d</fix>
</trkpt>
<trkpt lat="40.0713749" lon="-105.229789">
  <ele>1583.0</ele>
  <time>2026-08-28T17:53:26Z</time>
  <course>0.0</course>
  <speed>0.0</speed>
  <fix>3d</fix>
</trkpt>
<trkpt lat="40.0713749" lon="-105.229789">
  <ele>1582.92</ele>
  <time>2026-08-28T17:53:26Z</time>
  <course>3.01</course>
  <speed>0.0</speed>
  <fix>3d</fix>
</trkpt>
<trkpt lat="40.0713749" lon="-105.229789">
  <ele>1583.0</ele>
  <time>2026-08-28T17:53:26Z</time>
  <course>0.0</course>
  <speed>0.0</speed>
  <fix>3d</fix>
</trkpt>
<trkpt lat="40.0713749" lon="-105.229789">
  <ele>1583.09</ele>
  <time>2026-08-28T17:53:26Z</time>
  <course>3.07</course>
  <speed>0.0</speed>
  <fix>3d</fix>
</trkpt>
<trkpt lat="40.0713749" lon="-105.229789">
  <ele>1583.0</ele>
  <time>2026-08-28T17:53:26Z</time>
  <course>0.0</course>
  <speed>0.0</speed>
  <fix>3d</fix>
</trkpt>
<trkpt lat="40.0713749" lon="-105.229789">
  <ele>1582.78</ele>
  <time>2026-08-28T17:53:26Z</time>
  <course>3.26</course>
  <speed>0.0</speed>
  <fix>3d</fix>
</trkpt>
<trkpt lat="40.0713749" lon="-105.229789">
  <ele>1583.0</ele>
  <time>2026-08-28T17:53:26Z</time>
  <course>0.0</course>
  <speed>0.0</speed>
  <fix>3d</fix>
</trkpt>
<trkpt lat="40.0713749" lon="-105.229789">
  <ele>1583.35</ele>
  <time>2026-08-28T17:53:26Z</time>
  <course>3.54</course>
  <speed>0.0</speed>
  <fix>3d</fix>
</trkpt>
<trkpt lat="40.0713749" lon="-105.229789">
  <ele>1583.0</ele>
  <time>2026-08-28T17:53:26Z</time>
  <course>0.0</course>
  <speed>0.0</speed>
  <fix>3d</fix>
</trkpt>
<trkpt lat="40.0713749" lon="-105.229789">
  <ele>1582.99</ele>
  <time>2026-08-28T17:53:26Z</time>
  <course>3.89</course>
  <speed>0.0</speed>
  <fix>3d</fix>
</trkpt>
<trkpt lat="40.0713749" lon="-105.229789">
  <ele>1583.0</ele>
  <time>2026-08-28T17:53:26Z</time>
  <course>0.0</course>
  <speed>0.0</speed>
  <fix>3d</fix>
</trkpt>
<trkpt lat="40.0713749" lon="-105.229789">
  <ele>1583.37</ele>
  <time>2026-08-28T17:53:26Z</time>
  <course>4.25</course>
  <speed>0.0</speed>
  <fix>3d</fix>
</trkpt>
<trkpt lat="40.0713749" lon="-105.229789">
  <ele>1583.0</ele>
  <time>2026-08-28T17:53:26Z</time>
  <course>0.0</course>
  <speed>0.0</speed>
  <fix>3d</fix>
</trkpt>
<trkpt lat="40.0713749" lon="-105.229789">
  <ele>1583.23</ele>
  <time>2026-08-28T17:53:26Z</time>
  <course>4.62</course>
  <speed>0.0</speed>
  <fix>3d</fix>
</trkpt>
<trkpt lat="40.0713749" lon="-105.229789">
  <ele>1583.0</ele>
  <time>2026-08-28T17:53:26Z</time>
  <course>0.0</course>
  <speed>0.0</speed>
  <fix>3d</fix>
</trkpt>
<trkpt lat="40.0713749" lon="-105.229789">
  <ele>1583.22</ele>
  <time>2026-08-28T17:53:26Z</time>
  <course>4.95</course>
  <speed>0.0</speed>
  <fix>3d</fix>
</trkpt>
<trkpt lat="40.0713749" lon="-105.229789">
  <ele>1583.0</ele>
  <time>2026-08-28T17:53:26Z</time>
  <course>0.0</course>
  <speed>0.0</speed>
  <fix>3d</fix>
</trkpt>
<trkpt lat="40.0713749" lon="-105.229789">
  <ele>1583.1</ele>
  <time>2026-08-28T17:53:26Z</time>
  <course>5.25</course>
  <speed>0.0</speed>
  <fix>3d</fix>
</trkpt>
<trkpt lat="40.0713749" lon="-105.229789">
  <ele>1583.0</ele>
  <time>2026-08-28T17:53:26Z</time>
  <course>0.0</course>
  <speed>0.0</speed>
  <fix>3d</fix>
</trkpt>
<trkpt lat="40.0713749" lon="-105.229789">
  <ele>1583.07</ele>
  <time>2026-08-28T17:53:26Z</time>
  <course>5.51</course>
  <speed>0.0</speed>
  <fix>3d</fix>
</trkpt>
<trkpt lat="40.0713749" lon="-105.229789">
  <ele>1583.0</ele>
  <time>2026-08-28T17:53:26Z</time>
  <course>0.0</course>
  <speed>0.0</speed>
  <fix>3d</fix>
</trkpt>
<trkpt lat="40.0713749" lon="-105.229789">
  <ele>1583.16</ele>
  <time>2026-08-28T17:53:26Z</time>
  <course>5.71</course>
  <speed>0.0</speed>
  <fix>3d</fix>
</trkpt>
<trkpt lat="40.0713749" lon="-105.229789">
  <ele>1583.0</ele>
  <time>2026-08-28T17:53:26Z</time>
  <course>0.0</course>
  <speed>0.0</speed>
  <fix>3d</fix>
</trkpt>
<trkpt lat="40.0713749" lon="-105.229789">
  <ele>1583.08</ele>
  <time>2026-08-28T17:53:26Z</time>
  <course>5.86</course>
  <speed>0.0</speed>
  <fix>3d</fix>
</trkpt>
<trkpt lat="40.0713749" lon="-105.229789">
  <ele>1583.0</ele>
  <time>2026-08-28T17:53:26Z</time>
  <course>0.0</course>
  <speed>0.0</speed>
  <fix>3d</fix>
</trkpt>
<trkpt lat="40.0713749" lon="-105.229789">
  <ele>1583.04</ele>
  <time>2026-08-28T17:53:26Z</time>
  <course>5.97</course>
  <speed>0.0</speed>
  <fix>3d</fix>
</trkpt>
<trkpt lat="40.0713749" lon="-105.229789">
  <ele>1583.0</ele>
  <time>2026-08-28T17:53:26Z</time>
  <course>0.0</course>
  <speed>0.0</speed>
  <fix>3d</fix>
</trkpt>
<trkpt lat="40.0713749" lon="-105.229789">
  <ele>1582.78</ele>
  <time>2026-08-28T17:53:26Z</time>
  <course>6.04</course>
  <speed>0.0</speed>
  <fix>3d</fix>
</trkpt>
<trkpt lat="40.0713749" lon="-105.229789">
  <ele>1583.0</ele>
  <time>2026-08-28T17:53:26Z</time>
  <course>0.0</course>
  <speed>0.0</speed>
  <fix>3d</fix>
</trkpt>
<trkpt lat="40.0713749" lon="-105.229789">
  <ele>1583.08</ele>
  <time>2026-08-28T17:53:26Z</time>
  <course>6.08</course>
  <speed>0.0</speed>
  <fix>3d</fix>
</trkpt>
<trkpt lat="40.0713749" lon="-105.229789">
  <ele>1583.0</ele>
  <time>2026-08-28T17:53:26Z</time>
  <course>0.0</course>
  <speed>0.0</speed>
  <fix>3d</fix>
</trkpt>
<trkpt lat="40.0713749" lon="-105.229789">
  <ele>1582.92</ele>
  <time>2026-08-28T17:53:26Z</time>
  <course>6.08</course>
  <speed>0.0</speed>
  <fix>3d</fix>
</trkpt>
<trkpt lat="40.0713749" lon="-105.229789">
  <ele>1583.0</ele>
  <time>2026-08-28T17:53:26Z</time>
  <course>0.0</course>
  <speed>0.0</speed>
  <fix>3d</fix>
</trkpt>
<trkpt lat="40.0713749" lon="-105.229789">
  <ele>1582.73</ele>
  <time>2026-08-28T17:53:26Z</time>
  <course>6.07</course>
  <speed>0.0</speed>
  <fix>3d</fix>
</trkpt>
<trkpt lat="40.0713749" lon="-105.229789">
  <ele>1583.0</ele>
  <time>2026-08-28T17:53:26Z</time>
  <course>0.0</course>
  <speed>0.0</speed>
  <fix>3d</fix>
</trkpt>
<trkpt lat="40.0713749" lon="-105.229789">
  <ele>1583.12</ele>
  <time>2026-08-28T17:53:26Z</time>
  <course>6.05</course>
  <speed>0.0</speed>
  <fix>3d</fix>
</trkpt>
<trkpt lat="40.0713749" lon="-105.229789">
  <ele>1583.0</ele>
  <time>2026-08-28T17:53:26Z</time>
  <course>0.0</course>
  <speed>0.0</speed>
  <fix>3d</fix>
</trkpt>
<trkpt lat="40.0713749" lon="-105.229789">
  <ele>1583.11</ele>
  <time>2026-08-28T17:53:26Z</time>
  <course>6.02</course>
  <speed>0.0</speed>
  <fix>3d</fix>
</trkpt>
<trkpt lat="40.0713749" lon="-105.229789">
  <ele>1583.0</ele>
  <time>2026-08-28T17:53:26Z</time>
  <course>0.0</course>
  <speed>0.0</speed>
  <fix>3d</fix>
</trkpt>
<trkpt lat="40.0713749" lon="-105.229789">
  <ele>1582.93</ele>
  <time>2026-08-28T17:53:26Z</time>
  <course>5.98</course>
  <speed>0.0</speed>
  <fix>3d</fix>
</trkpt>
<trkpt lat="40.0713749" lon="-105.229789">
  <ele>1583.0</ele>
  <time>2026-08-28T17:53:26Z</time>
  <course>0.0</course>
  <speed>0.0</speed>
  <fix>3d</fix>
</trkpt>
<trkpt lat="40.0713749" lon="-105.229789">
  <ele>1583.03</ele>
  <time>2026-08-28T17:53:26Z</time>
  <course>5.95</course>
  <speed>0.0</speed>
  <fix>3d</fix>
</trkpt>
<trkpt lat="40.0713749" lon="-105.229789">
  <ele>1583.0</ele>
  <time>2026-08-28T17:53:26Z</time>
  <course>0.0</course>
  <speed>0.0</speed>
  <fix>3d</fix>
</trkpt>
<trkpt lat="40.0713749" lon="-105.229789">
  <ele>1582.73</ele>
  <time>2026-08-28T17:53:26Z</time>
  <course>5.92</course>
  <speed>0.0</speed>
  <fix>3d</fix>
</trkpt>
<trkpt lat="40.0713749" lon="-105.229789">
  <ele>1583.0</ele>
  <time>2026-08-28T17:53:26Z</time>
  <course>0.0</course>
  <speed>0.0</speed>
  <fix>3d</fix>
</trkpt>
<trkpt lat="40.0713749" lon="-105.229789">
  <ele>1583.08</ele>
  <time>2026-08-28T17:53:26Z</time>
  <course>5.89</course>
  <speed>0.0</speed>
  <fix>3d</fix>
</trkpt>
<trkpt lat="40.0713749" lon="-105.229789">
  <ele>1583.0</ele>
  <time>2026-08-28T17:53:26Z</time>
  <course>0.0</course>
  <speed>0.0</speed>
  <fix>3d</fix>
</trkpt>
<trkpt lat="40.0713749" lon="-105.229789">
  <ele>1582.78</ele>
  <time>2026-08-28T17:53:26Z</time>
  <course>5.87</course>
  <speed>0.0</speed>
  <fix>3d</fix>
</trkpt>
<trkpt lat="40.0713749" lon="-105.229789">
  <ele>1583.0</ele>
  <time>2026-08-28T17:53:26Z</time>
  <course>0.0</course>
  <speed>0.0</speed>
  <fix>3d</fix>
</trkpt>
<trkpt lat="40.0713749" lon="-105.229789">
  <ele>1582.86</ele>
  <time>2026-08-28T17:53:26Z</time>
  <course>5.86</course>
  <speed>0.0</speed>
  <fix>3d</fix>
</trkpt>
<trkpt lat="40.0713749" lon="-105.229789">
  <ele>1583.0</ele>
  <time>2026-08-28T17:53:26Z</time>
  <course>0.0</course>
  <speed>0.0</speed>
  <fix>3d</fix>
</trkpt>
<trkpt lat="40.0713749" lon="-105.229789">
  <ele>1582.8</ele>
  <time>2026-08-28T17:53:26Z</time>
  <course>5.85</course>
  <speed>0.0</speed>
  <fix>3d</fix>
</trkpt>
<trkpt lat="40.0713749" lon="-105.229789">
  <ele>1583.0</ele>
  <time>2026-08-28T17:53:26Z</time>
  <course>0.0</course>
  <speed>0.0</speed>
  <fix>3d</fix>
</trkpt>
<trkpt lat="40.0713749" lon="-105.229789">
  <ele>1582.89</ele>
  <time>2026-08-28T17:53:26Z</time>
  <course>5.85</course>
  <speed>0.0</speed>
  <fix>3d</fix>
</trkpt>
<trkpt lat="40.0713749" lon="-105.229789">
  <ele>1583.0</ele>
  <time>2026-08-28T17:53:26Z</time>
  <course>0.0</course>
  <speed>0.0</speed>
  <fix>3d</fix>
</trkpt>
<trkpt lat="40.0713749" lon="-105.229789">
  <ele>1583.0</ele>
  <time>2026-08-28T17:53:26Z</time>
  <course>5.85</course>
  <speed>0.0</speed>
  <fix>3d</fix>
</trkpt>
<trkpt lat="40.0713749" lon="-105.229789">
  <ele>1583.0</ele>
  <time>2026-08-28T17:53:26Z</time>
  <course>0.0</course>
  <speed>0.0</speed>
  <fix>3d</fix>
</trkpt>
<trkpt lat="40.0713749" lon="-105.229789">
  <ele>1583.0</ele>
  <time>2026-08-28T17:53:26Z</time>
  <course>333.59</course>
  <speed>1.0331021246711285</speed>
  <fix>3d</fix>
</trkpt>
<trkpt lat="40.0713749" lon="-105.229789">
  <ele>1583.0</ele>
  <time>2026-08-28T17:53:26Z</time>
  <course>0.0</course>
  <speed>0.0</speed>
  <fix>3d</fix>
</trkpt>
<trkpt lat="40.0713749" lon="-105.229789">
  <ele>1583.0</ele>
  <time>2026-08-28T17:53:26Z</time>
  <course>334.08</course>
  <speed>1.2</speed>
  <fix>3d</fix>
</trkpt>
<trkpt lat="40.0713749" lon="-105.229789">
  <ele>1583.0</ele>
  <time>2026-08-28T17:53:26Z</time>
  <course>0.0</course>
  <speed>0.0</speed>
  <fix>3d</fix>
</trkpt>
<trkpt lat="40.0713749" lon="-105.229789">
  <ele>1583.0</ele>
  <time>2026-08-28T17:53:26Z</time>
  <course>334.57</course>
  <speed>1.3862178760930766</speed>
  <fix>3d</fix>
</trkpt>
<trkpt lat="40.0713749" lon="-105.229789">
  <ele>1583.0</ele>
  <time>2026-08-28T17:53:26Z</time>
  <course>0.0</course>
  <speed>0.0</speed>
  <fix>3d</fix>
</trkpt>
<trkpt lat="40.0713749" lon="-105.229789">
  <ele>1583.0</ele>
  <time>2026-08-28T17:53:26Z</time>
  <course>335.07</course>
  <speed>1.5738487856207788</speed>
  <fix>3d</fix>
</trkpt>
<trkpt lat="40.0713749" lon="-105.229789">
  <ele>1583.0</ele>
  <time>2026-08-28T17:53:26Z</time>
  <course>0.0</course>
  <speed>0.0</speed>
  <fix>3d</fix>
</trkpt>
<trkpt lat="40.0713749" lon="-105.229789">
  <ele>1583.0</ele>
  <time>2026-08-28T17:53:26Z</time>
  <course>335.56</course>
  <speed>1.7640011337864836</speed>
  <fix>3d</fix>
</trkpt>
<trkpt lat="40.0713749" lon="-105.229789">
  <ele>1583.0</ele>
  <time>2026-08-28T17:53:26Z</time>
  <course>0.0</course>
  <speed>0.0</speed>
  <fix>3d</fix>
</trkpt>
<trkpt lat="40.0713749" lon="-105.229789">
  <ele>1583.0</ele>
  <time>2026-08-28T17:53:26Z</time>
  <course>336.05</course>
  <speed>1.9442736432920136</speed>
  <fix>3d</fix>
</trkpt>
<trkpt lat="40.0713749" lon="-105.229789">
  <ele>1583.0</ele>
  <time>2026-08-28T17:53:26Z</time>
  <course>0.0</course>
  <speed>0.0</speed>
  <fix>3d</fix>
</trkpt>
<trkpt lat="40.0713749" lon="-105.229789">
  <ele>1583.0</ele>
  <time>2026-08-28T17:53:26Z</time>
  <course>336.54</course>
  <speed>2.128497122384712</speed>
  <fix>3d</fix>
</trkpt>
<trkpt lat="40.0713749" lon="-105.229789">
  <ele>1583.0</ele>
  <time>2026-08-28T17:53:26Z</time>
  <course>0.0</course>
  <speed>0.0</speed>
  <fix>3d</fix>
</trkpt>
<trkpt lat="40.0713749" lon="-105.229789">
  <ele>1583.0</ele>
  <time>2026-08-28T17:53:26Z</time>
  <course>337.02</course>
  <speed>2.293403584195333</speed>
  <fix>3d</fix>
</trkpt>
<trkpt lat="40.0713749" lon="-105.229789">
  <ele>1583.0</ele>
  <time>2026-08-28T17:53:26Z</time>
  <course>0.0</course>
  <speed>0.0</speed>
  <fix>3d</fix>
</trkpt>
<trkpt lat="40.0713749" lon="-105.229789">
  <ele>1583.0</ele>
  <time>2026-08-28T17:53:26Z</time>
  <course>337.49</course>
  <speed>2.4565219315121127</speed>
  <fix>3d</fix>
</trkpt>
<trkpt lat="40.0713749" lon="-105.229789">
  <ele>1583.0</ele>
  <time>2026-08-28T17:53:26Z</time>
  <course>0.0</course>
  <speed>0.0</speed>
  <fix>3d</fix>
</trkpt>
<trkpt lat="40.0713749" lon="-105.229789">
  <ele>1583.0</ele>
  <time>2026-08-28T17:53:26Z</time>
  <course>337.96</course>
  <speed>2.6028445977430152</speed>
  <fix>3d</fix>
</trkpt>
<trkpt lat="40.0713749" lon="-105.229789">
  <ele>1583.0</ele>
  <time>2026-08-28T17:53:26Z</time>
  <course>0.0</course>
  <speed>0.0</speed>
  <fix>3d</fix>
</trkpt>
<trkpt lat="40.0713749" lon="-105.229789">
  <ele>1583.0</ele>
  <time>2026-08-28T17:53:26Z</time>
  <course>338.42</course>
  <speed>2.7370787347096903</speed>
  <fix>3d</fix>
</trkpt>
<trkpt lat="40.0713749" lon="-105.229789">
  <ele>1583.0</ele>
  <time>2026-08-28T17:53:26Z</time>
  <course>0.0</course>
  <speed>0.0</speed>
  <fix>3d</fix>
</trkpt>
<trkpt lat="40.0713749" lon="-105.229789">
  <ele>1583.0</ele>
  <time>2026-08-28T17:53:26Z</time>
  <course>338.86</course>
  <speed>2.8496491012052694</speed>
  <fix>3d</fix>
</trkpt>
<trkpt lat="40.0713749" lon="-105.229789">
  <ele>1583.0</ele>
  <time>2026-08-28T17:53:26Z</time>
  <course>0.0</course>
  <speed>0.0</speed>
  <fix>3d</fix>
</trkpt>
<trkpt lat="40.0713749" lon="-105.229789">
  <ele>1583.25</ele>
  <time>2026-08-28T17:53:26Z</time>
  <course>5.92</course>
  <speed>0.0</speed>
  <fix>3d</fix>
</trkpt>
<trkpt lat="40.0713749" lon="-105.229789">
  <ele>1583.0</ele>
  <time>2026-08-28T17:53:26Z</time>
  <course>0.0</course>
  <speed>0.0</speed>
  <fix>3d</fix>
</trkpt>
<trkpt lat="40.0713749" lon="-105.229789">
  <ele>1583.13</ele>
  <time>2026-08-28T17:53:26Z</time>
  <course>5.92</course>
  <speed>0.0</speed>
  <fix>3d</fix>
</trkpt>
<trkpt lat="40.0713749" lon="-105.229789">
  <ele>1583.0</ele>
  <time>2026-08-28T17:53:26Z</time>
  <course>0.0</course>
  <speed>0.0</speed>
  <fix>3d</fix>
</trkpt>
<trkpt lat="40.0713749" lon="-105.229789">
  <ele>1583.22</ele>
  <time>2026-08-28T17:53:26Z</time>
  <course>5.93</course>
  <speed>0.0</speed>
  <fix>3d</fix>
</trkpt>
<trkpt lat="40.0713749" lon="-105.229789">
  <ele>1583.0</ele>
  <time>2026-08-28T17:53:26Z</time>
  <course>0.0</course>
  <speed>0.0</speed>
  <fix>3d</fix>
</trkpt>
<trkpt lat="40.0713749" lon="-105.229789">
  <ele>1582.87</ele>
  <time>2026-08-28T17:53:26Z</time>
  <course>5.93</course>
  <speed>0.0</speed>
  <fix>3d</fix>
</trkpt>
<trkpt lat="40.0713749" lon="-105.229789">
  <ele>1583.0</ele>
  <time>2026-08-28T17:53:26Z</time>
  <course>0.0</course>
  <speed>0.0</speed>
  <fix>3d</fix>
</trkpt>
<trkpt lat="40.0713749" lon="-105.229789">
  <ele>1582.66</ele>
  <time>2026-08-28T17:53:26Z</time>
  <course>5.94</course>
  <speed>0.0</speed>
  <fix>3d</fix>
</trkpt>
<trkpt lat="40.0713749" lon="-105.229789">
  <ele>1583.0</ele>
  <time>2026-08-28T17:53:26Z</time>
  <course>0.0</course>
  <speed>0.0</speed>
  <fix>3d</fix>
</trkpt>
<trkpt lat="40.0713749" lon="-105.229789">
  <ele>1582.83</ele>
  <time>2026-08-28T17:53:26Z</time>
  <course>5.94</course>
  <speed>0.0</speed>
  <fix>3d</fix>
</trkpt>
<trkpt lat="40.0713749" lon="-105.229789">
  <ele>1583.0</ele>
  <time>2026-08-28T17:53:26Z</time>
  <course>0.0</course>
  <speed>0.0</speed>
  <fix>3d</fix>
</trkpt>
<trkpt lat="40.0713749" lon="-105.229789">
  <ele>1582.87</ele>
  <time>2026-08-28T17:53:26Z</time>
  <course>5.94</course>
  <speed>0.0</speed>
  <fix>3d</fix>
</trkpt>
<trkpt lat="40.0713749" lon="-105.229789">
  <ele>1583.0</ele>
  <time>2026-08-28T17:53:26Z</time>
  <course>0.0</course>
  <speed>0.0</speed>
  <fix>3d</fix>
</trkpt>
<trkpt lat="40.0713749" lon="-105.229789">
  <ele>1582.78</ele>
  <time>2026-08-28T17:53:26Z</time>
  <course>5.95</course>
  <speed>0.0</speed>
  <fix>3d</fix>
</trkpt>
<trkpt lat="40.0713749" lon="-105.229789">
  <ele>1583.0</ele>
  <time>2026-08-28T17:53:26Z</time>
  <course>0.0</course>
  <speed>0.0</speed>
  <fix>3d</fix>
</trkpt>
<trkpt lat="40.0713749" lon="-105.229789">
  <ele>1582.85</ele>
  <time>2026-08-28T17:53:26Z</time>
  <course>5.95</course>
  <speed>0.0</speed>
  <fix>3d</fix>
</trkpt>
<trkpt lat="40.0713749" lon="-105.229789">
  <ele>1583.0</ele>
  <time>2026-08-28T17:53:26Z</time>
  <course>0.0</course>
  <speed>0.0</speed>
  <fix>3d</fix>
</trkpt>
<trkpt lat="40.0713749" lon="-105.229789">
  <ele>1583.02</ele>
  <time>2026-08-28T17:53:26Z</time>
  <course>5.95</course>
  <speed>0.0</speed>
  <fix>3d</fix>
</trkpt>
<trkpt lat="40.0713749" lon="-105.229789">
  <ele>1583.0</ele>
  <time>2026-08-28T17:53:26Z</time>
  <course>0.0</course>
  <speed>0.0</speed>
  <fix>3d</fix>
</trkpt>
<trkpt lat="40.0713749" lon="-105.229789">
  <ele>1582.76</ele>
  <time>2026-08-28T17:53:26Z</time>
  <course>5.95</course>
  <speed>0.0</speed>
  <fix>3d</fix>
</trkpt>
<trkpt lat="40.0713749" lon="-105.229789">
  <ele>1583.0</ele>
  <time>2026-08-28T17:53:26Z</time>
  <course>0.0</course>
  <speed>0.0</speed>
  <fix>3d</fix>
</trkpt>
<trkpt lat="40.0713749" lon="-105.229789">
  <ele>1582.77</ele>
  <time>2026-08-28T17:53:26Z</time>
  <course>5.96</course>
  <speed>0.0</speed>
  <fix>3d</fix>
</trkpt>
<trkpt lat="40.0713749" lon="-105.229789">
  <ele>1583.0</ele>
  <time>2026-08-28T17:53:26Z</time>
  <course>0.0</course>
  <speed>0.0</speed>
  <fix>3d</fix>
</trkpt>
<trkpt lat="40.0713749" lon="-105.229789">
  <ele>1582.84</ele>
  <time>2026-08-28T17:53:26Z</time>
  <course>5.96</course>
  <speed>0.0</speed>
  <fix>3d</fix>
</trkpt>
<trkpt lat="40.0713749" lon="-105.229789">
  <ele>1583.0</ele>
  <time>2026-08-28T17:53:26Z</time>
  <course>0.0</course>
  <speed>0.0</speed>
  <fix>3d</fix>
</trkpt>
<trkpt lat="40.0713749" lon="-105.229789">
  <ele>1583.07</ele>
  <time>2026-08-28T17:53:26Z</time>
  <course>5.96</course>
  <speed>0.0</speed>
  <fix>3d</fix>
</trkpt>
<trkpt lat="40.0713749" lon="-105.229789">
  <ele>1583.0</ele>
  <time>2026-08-28T17:53:26Z</time>
  <course>0.0</course>
  <speed>0.0</speed>
  <fix>3d</fix>
</trkpt>
<trkpt lat="40.0713749" lon="-105.229789">
  <ele>1582.88</ele>
  <time>2026-08-28T17:53:26Z</time>
  <course>5.96</course>
  <speed>0.0</speed>
  <fix>3d</fix>
</trkpt>
<trkpt lat="40.0713749" lon="-105.229789">
  <ele>1583.0</ele>
  <time>2026-08-28T17:53:26Z</time>
  <course>0.0</course>
  <speed>0.0</speed>
  <fix>3d</fix>
</trkpt>
<trkpt lat="40.0713749" lon="-105.229789">
  <ele>1583.05</ele>
  <time>2026-08-28T17:53:26Z</time>
  <course>5.97</course>
  <speed>0.0</speed>
  <fix>3d</fix>
</trkpt>
<trkpt lat="40.0713749" lon="-105.229789">
  <ele>1583.0</ele>
  <time>2026-08-28T17:53:26Z</time>
  <course>0.0</course>
  <speed>0.0</speed>
  <fix>3d</fix>
</trkpt>
<trkpt lat="40.0713749" lon="-105.229789">
  <ele>1583.16</ele>
  <time>2026-08-28T17:53:26Z</time>
  <course>5.97</course>
  <speed>0.0</speed>
  <fix>3d</fix>
</trkpt>
<trkpt lat="40.0713749" lon="-105.229789">
  <ele>1583.0</ele>
  <time>2026-08-28T17:53:26Z</time>
  <course>0.0</course>
  <speed>0.0</speed>
  <fix>3d</fix>
</trkpt>
<trkpt lat="40.0713749" lon="-105.229789">
  <ele>1582.82</ele>
  <time>2026-08-28T17:53:26Z</time>
  <course>5.97</course>
  <speed>0.0</speed>
  <fix>3d</fix>
</trkpt>
<trkpt lat="40.0713749" lon="-105.229789">
  <ele>1583.0</ele>
  <time>2026-08-28T17:53:26Z</time>
  <course>0.0</course>
  <speed>0.0</speed>
  <fix>3d</fix>
</trkpt>
<trkpt lat="40.0713749" lon="-105.229789">
  <ele>1583.11</ele>
  <time>2026-08-28T17:53:26Z</time>
  <course>5.97</course>
  <speed>0.0</speed>
  <fix>3d</fix>
</trkpt>
<trkpt lat="40.0713749" lon="-105.229789">
  <ele>1583.0</ele>
  <time>2026-08-28T17:53:26Z</time>
  <course>0.0</course>
  <speed>0.0</speed>
  <fix>3d</fix>
</trkpt>
<trkpt lat="40.0713749" lon="-105.229789">
  <ele>1583.02</ele>
  <time>2026-08-28T17:53:26Z</time>
  <course>5.97</course>
  <speed>0.0</speed>
  <fix>3d</fix>
</trkpt>
<trkpt lat="40.0713749" lon="-105.229789">
  <ele>1583.0</ele>
  <time>2026-08-28T17:53:26Z</time>
  <course>0.0</course>
  <speed>0.0</speed>
  <fix>3d</fix>
</trkpt>
<trkpt lat="40.0713749" lon="-105.229789">
  <ele>1583.01</ele>
  <time>2026-08-28T17:53:26Z</time>
  <course>5.98</course>
  <speed>0.0</speed>
  <fix>3d</fix>
</trkpt>
<trkpt lat="40.0713749" lon="-105.229789">
  <ele>1583.0</ele>
  <time>2026-08-28T17:53:26Z</time>
  <course>0.0</course>
  <speed>0.0</speed>
  <fix>3d</fix>
</trkpt>
<trkpt lat="40.0713749" lon="-105.229789">
  <ele>1583.2</ele>
  <time>2026-08-28T17:53:26Z</time>
  <course>5.98</course>
  <speed>0.0</speed>
  <fix>3d</fix>
</trkpt>
<trkpt lat="40.0713749" lon="-105.229789">
  <ele>1583.0</ele>
  <time>2026-08-28T17:53:26Z</time>
  <course>0.0</course>
  <speed>0.0</speed>
  <fix>3d</fix>
</trkpt>
<trkpt lat="40.0713749" lon="-105.229789">
  <ele>1583.15</ele>
  <time>2026-08-28T17:53:26Z</time>
  <course>5.98</course>
  <speed>0.0</speed>
  <fix>3d</fix>
</trkpt>
<trkpt lat="40.0713749" lon="-105.229789">
  <ele>1583.0</ele>
  <time>2026-08-28T17:53:26Z</time>
  <course>0.0</course>
  <speed>0.0</speed>
  <fix>3d</fix>
</trkpt>
<trkpt lat="40.0713749" lon="-105.229789">
  <ele>1582.72</ele>
  <time>2026-08-28T17:53:26Z</time>
  <course>5.98</course>
  <speed>0.0</speed>
  <fix>3d</fix>
</trkpt>
<trkpt lat="40.0713749" lon="-105.229789">
  <ele>1583.0</ele>
  <time>2026-08-28T17:53:26Z</time>
  <course>0.0</course>
  <speed>0.0</speed>
  <fix>3d</fix>
</trkpt>
<trkpt lat="40.0713749" lon="-105.229789">
  <ele>1582.77</ele>
  <time>2026-08-28T17:53:26Z</time>
  <course>5.98</course>
  <speed>0.0</speed>
  <fix>3d</fix>
</trkpt>
<trkpt lat="40.0713749" lon="-105.229789">
  <ele>1583.0</ele>
  <time>2026-08-28T17:53:26Z</time>
  <course>0.0</course>
  <speed>0.0</speed>
  <fix>3d</fix>
</trkpt>
<trkpt lat="40.0713749" lon="-105.229789">
  <ele>1583.0</ele>
  <time>2026-08-28T17:53:26Z</time>
  <course>5.98</course>
  <speed>0.0</speed>
  <fix>3d</fix>
</trkpt>
<trkpt lat="40.0713749" lon="-105.229789">
  <ele>1583.0</ele>
  <time>2026-08-28T17:53:26Z</time>
  <course>0.0</course>
  <speed>0.0</speed>
  <fix>3d</fix>
</trkpt>
<trkpt lat="40.0713749" lon="-105.229789">
  <ele>1582.83</ele>
  <time>2026-08-28T17:53:26Z</time>
  <course>5.99</course>
  <speed>0.0</speed>
  <fix>3d</fix>
</trkpt>
<trkpt lat="40.0713749" lon="-105.229789">
  <ele>1583.0</ele>
  <time>2026-08-28T17:53:26Z</time>
  <course>0.0</course>
  <speed>0.0</speed>
  <fix>3d</fix>
</trkpt>
<trkpt lat="40.0713749" lon="-105.229789">
  <ele>1582.71</ele>
  <time>2026-08-28T17:53:26Z</time>
  <course>5.99</course>
  <speed>0.0</speed>
  <fix>3d</fix>
</trkpt>
<trkpt lat="40.0713749" lon="-105.229789">
  <ele>1583.0</ele>
  <time>2026-08-28T17:53:26Z</time>
  <course>0.0</course>
  <speed>0.0</speed>
  <fix>3d</fix>
</trkpt>
<trkpt lat="40.0713749" lon="-105.229789">
  <ele>1582.76</ele>
  <time>2026-08-28T17:53:26Z</time>
  <course>5.99</course>
  <speed>0.0</speed>
  <fix>3d</fix>
</trkpt>
<trkpt lat="40.0713749" lon="-105.229789">
  <ele>1583.0</ele>
  <time>2026-08-28T17:53:26Z</time>
  <course>0.0</course>
  <speed>0.0</speed>
  <fix>3d</fix>
</trkpt>
<trkpt lat="40.0713749" lon="-105.229789">
  <ele>1582.71</ele>
  <time>2026-08-28T17:53:26Z</time>
  <course>5.99</course>
  <speed>0.0</speed>
  <fix>3d</fix>
</trkpt>
<trkpt lat="40.0713749" lon="-105.229789">
  <ele>1583.0</ele>
  <time>2026-08-28T17:53:26Z</time>
  <course>0.0</course>
  <speed>0.0</speed>
  <fix>3d</fix>
</trkpt>
<trkpt lat="40.0713749" lon="-105.229789">
  <ele>1582.79</ele>
  <time>2026-08-28T17:53:26Z</time>
  <course>5.99</course>
  <speed>0.0</speed>
  <fix>3d</fix>
</trkpt>
<trkpt lat="40.0713749" lon="-105.229789">
  <ele>1583.0</ele>
  <time>2026-08-28T17:53:26Z</time>
  <course>0.0</course>
  <speed>0.0</speed>
  <fix>3d</fix>
</trkpt>
<trkpt lat="40.0713749" lon="-105.229789">
  <ele>1582.98</ele>
  <time>2026-08-28T17:53:26Z</time>
  <course>5.99</course>
  <speed>0.0</speed>
  <fix>3d</fix>
</trkpt>
<trkpt lat="40.0713749" lon="-105.229789">
  <ele>1583.0</ele>
  <time>2026-08-28T17:53:26Z</time>
  <course>0.0</course>
  <speed>0.0</speed>
  <fix>3d</fix>
</trkpt>
<trkpt lat="40.0713749" lon="-105.229789">
  <ele>1582.94</ele>
  <time>2026-08-28T17:53:26Z</time>
  <course>5.99</course>
  <speed>0.0</speed>
  <fix>3d</fix>
</trkpt>
<trkpt lat="40.0713749" lon="-105.229789">
  <ele>1583.0</ele>
  <time>2026-08-28T17:53:26Z</time>
  <course>0.0</course>
  <speed>0.0</speed>
  <fix>3d</fix>
</trkpt>
<trkpt lat="40.0713749" lon="-105.229789">
  <ele>1582.79</ele>
  <time>2026-08-28T17:53:26Z</time>
  <course>5.99</course>
  <speed>0.0</speed>
  <fix>3d</fix>
</trkpt>
<trkpt lat="40.0713749" lon="-105.229789">
  <ele>1583.0</ele>
  <time>2026-08-28T17:53:26Z</time>
  <course>0.0</course>
  <speed>0.0</speed>
  <fix>3d</fix>
</trkpt>
<trkpt lat="40.0713749" lon="-105.229789">
  <ele>1582.98</ele>
  <time>2026-08-28T17:53:26Z</time>
  <course>6.0</course>
  <speed>0.0</speed>
  <fix>3d</fix>
</trkpt>
<trkpt lat="40.0713749" lon="-105.229789">
  <ele>1583.0</ele>
  <time>2026-08-28T17:53:26Z</time>
  <course>0.0</course>
  <speed>0.0</speed>
  <fix>3d</fix>
</trkpt>
<trkpt lat="40.0713749" lon="-105.229789">
  <ele>1582.78</ele>
  <time>2026-08-28T17:53:26Z</time>
  <course>6.0</course>
  <speed>0.0</speed>
  <fix>3d</fix>
</trkpt>
<trkpt lat="40.0713749" lon="-105.229789">
  <ele>1583.0</ele>
  <time>2026-08-28T17:53:26Z</time>
  <course>0.0</course>
  <speed>0.0</speed>
  <fix>3d</fix>
</trkpt>
<trkpt lat="40.0713749" lon="-105.229789">
  <ele>1582.92</ele>
  <time>2026-08-28T17:53:26Z</time>
  <course>6.0</course>
  <speed>0.0</speed>
  <fix>3d</fix>
</trkpt>
<trkpt lat="40.0713749" lon="-105.229789">
  <ele>1583.0</ele>
  <time>2026-08-28T17:53:26Z</time>
  <course>0.0</course>
  <speed>0.0</speed>
  <fix>3d</fix>
</trkpt>
<trkpt lat="40.0713749" lon="-105.229789">
  <ele>1582.88</ele>
  <time>2026-08-28T17:53:26Z</time>
  <course>6.0</course>
  <speed>0.0</speed>
  <fix>3d</fix>
</trkpt>
<trkpt lat="40.0713749" lon="-105.229789">
  <ele>1583.0</ele>
  <time>2026-08-28T17:53:26Z</time>
  <course>0.0</course>
  <speed>0.0</speed>
  <fix>3d</fix>
</trkpt>
<trkpt lat="40.0713749" lon="-105.229789">
  <ele>1582.94</ele>
  <time>2026-08-28T17:53:26Z</time>
  <course>6.0</course>
  <speed>0.0</speed>
  <fix>3d</fix>
</trkpt>
<trkpt lat="40.0713749" lon="-105.229789">
  <ele>1583.0</ele>
  <time>2026-08-28T17:53:26Z</time>
  <course>0.0</course>
  <speed>0.0</speed>
  <fix>3d</fix>
</trkpt>
<trkpt lat="40.0713749" lon="-105.229789">
  <ele>1582.73</ele>
  <time>2026-08-28T17:53:26Z</time>
  <course>6.0</course>
  <speed>0.0</speed>
  <fix>3d</fix>
</trkpt>
<trkpt lat="40.0713749" lon="-105.229789">
  <ele>1583.0</ele>
  <time>2026-08-28T17:53:26Z</time>
  <course>0.0</course>
  <speed>0.0</speed>
  <fix>3d</fix>
</trkpt>
<trkpt lat="40.0713749" lon="-105.229789">
  <ele>1583.09</ele>
  <time>2026-08-28T17:53:26Z</time>
  <course>6.0</course>
  <speed>0.0</speed>
  <fix>3d</fix>
</trkpt>
<trkpt lat="40.0713749" lon="-105.229789">
  <ele>1583.0</ele>
  <time>2026-08-28T17:53:26Z</time>
  <course>0.0</course>
  <speed>0.0</speed>
  <fix>3d</fix>
</trkpt>
<trkpt lat="40.0713749" lon="-105.229789">
  <ele>1582.97</ele>
  <time>2026-08-28T17:53:26Z</time>
  <course>6.0</course>
  <speed>0.0</speed>
  <fix>3d</fix>
</trkpt>
<trkpt lat="40.0713749" lon="-105.229789">
  <ele>1583.0</ele>
  <time>2026-08-28T17:53:26Z</time>
  <course>0.0</course>
  <speed>0.0</speed>
  <fix>3d</fix>
</trkpt>
<trkpt lat="40.0713749" lon="-105.229789">
  <ele>1582.88</ele>
  <time>2026-08-28T17:53:26Z</time>
  <course>6.0</course>
  <speed>0.0</speed>
  <fix>3d</fix>
</trkpt>
<trkpt lat="40.0713749" lon="-105.229789">
  <ele>1583.0</ele>
  <time>2026-08-28T17:53:26Z</time>
  <course>0.0</course>
  <speed>0.0</speed>
  <fix>3d</fix>
</trkpt>
<trkpt lat="40.0713749" lon="-105.229789">
  <ele>1583.08</ele>
  <time>2026-08-28T17:53:26Z</time>
  <course>6.0</course>
  <speed>0.0</speed>
  <fix>3d</fix>
</trkpt>
<trkpt lat="40.0713749" lon="-105.229789">
  <ele>1583.0</ele>
  <time>2026-08-28T17:53:26Z</time>
  <course>0.0</course>
  <speed>0.0</speed>
  <fix>3d</fix>
</trkpt>
<trkpt lat="40.0713749" lon="-105.229789">
  <ele>1582.93</ele>
  <time>2026-08-28T17:53:26Z</time>
  <course>6.0</course>
  <speed>0.0</speed>
  <fix>3d</fix>
</trkpt>
<trkpt lat="40.0713749" lon="-105.229789">
  <ele>1583.0</ele>
  <time>2026-08-28T17:53:26Z</time>
  <course>0.0</course>
  <speed>0.0</speed>
  <fix>3d</fix>
</trkpt>
<trkpt lat="40.0713749" lon="-105.229789">
  <ele>1582.93</ele>
  <time>2026-08-28T17:53:26Z</time>
  <course>6.0</course>
  <speed>0.0</speed>
  <fix>3d</fix>
</trkpt>
<trkpt lat="40.0713749" lon="-105.229789">
  <ele>1583.0</ele>
  <time>2026-08-28T17:53:26Z</time>
  <course>0.0</course>
  <speed>0.0</speed>
  <fix>3d</fix>
</trkpt>
<trkpt lat="40.0713749" lon="-105.229789">
  <ele>1583.11</ele>
  <time>2026-08-28T17:53:26Z</time>
  <course>6.0</course>
  <speed>0.0</speed>
  <fix>3d</fix>
</trkpt>
<trkpt lat="40.0713749" lon="-105.229789">
  <ele>1583.0</ele>
  <time>2026-08-28T17:53:26Z</time>
  <course>0.0</course>
  <speed>0.0</speed>
  <fix>3d</fix>
</trkpt>
<trkpt lat="40.0713749" lon="-105.229789">
  <ele>1583.11</ele>
  <time>2026-08-28T17:53:26Z</time>
  <course>6.0</course>
  <speed>0.0</speed>
  <fix>3d</fix>
</trkpt>
<trkpt lat="40.0713749" lon="-105.229789">
  <ele>1583.0</ele>
  <time>2026-08-28T17:53:26Z</time>
  <course>0.0</course>
  <speed>0.0</speed>
  <fix>3d</fix>
</trkpt>
<trkpt lat="40.0713749" lon="-105.229789">
  <ele>1582.93</ele>
  <time>2026-08-28T17:53:26Z</time>
  <course>6.0</course>
  <speed>0.0</speed>
  <fix>3d</fix>
</trkpt>
<trkpt lat="40.0713749" lon="-105.229789">
  <ele>1583.0</ele>
  <time>2026-08-28T17:53:26Z</time>
  <course>0.0</course>
  <speed>0.0</speed>
  <fix>3d</fix>
</trkpt>
<trkpt lat="40.0713749" lon="-105.229789">
  <ele>1583.02</ele>
  <time>2026-08-28T17:53:26Z</time>
  <course>6.0</course>
  <speed>0.0</speed>
  <fix>3d</fix>
</trkpt>
<trkpt lat="40.0713749" lon="-105.229789">
  <ele>1583.0</ele>
  <time>2026-08-28T17:53:26Z</time>
  <course>0.0</course>
  <speed>0.0</speed>
  <fix>3d</fix>
</trkpt>
<trkpt lat="40.0713749" lon="-105.229789">
  <ele>1582.91</ele>
  <time>2026-08-28T17:53:26Z</time>
  <course>6.0</course>
  <speed>0.0</speed>
  <fix>3d</fix>
</trkpt>
<trkpt lat="40.0713749" lon="-105.229789">
  <ele>1583.0</ele>
  <time>2026-08-28T17:53:26Z</time>
  <course>0.0</course>
  <speed>0.0</speed>
  <fix>3d</fix>
</trkpt>
<trkpt lat="40.0713749" lon="-105.229789">
  <ele>1582.91</ele>
  <time>2026-08-28T17:53:26Z</time>
  <course>6.0</course>
  <speed>0.0</speed>
  <fix>3d</fix>
</trkpt>
<trkpt lat="40.0713749" lon="-105.229789">
  <ele>1583.0</ele>
  <time>2026-08-28T17:53:26Z</time>
  <course>0.0</course>
  <speed>0.0</speed>
  <fix>3d</fix>
</trkpt>
<trkpt lat="40.0713749" lon="-105.229789">
  <ele>1582.96</ele>
  <time>2026-08-28T17:53:26Z</time>
  <course>6.0</course>
  <speed>0.0</speed>
  <fix>3d</fix>
</trkpt>
<trkpt lat="40.0713749" lon="-105.229789">
  <ele>1583.0</ele>
  <time>2026-08-28T17:53:26Z</time>
  <course>0.0</course>
  <speed>0.0</speed>
  <fix>3d</fix>
</trkpt>
<trkpt lat="40.0713749" lon="-105.229789">
  <ele>1583.13</ele>
  <time>2026-08-28T17:53:26Z</time>
  <course>6.0</course>
  <speed>0.0</speed>
  <fix>3d</fix>
</trkpt>
<trkpt lat="40.0713749" lon="-105.229789">
  <ele>1583.0</ele>
  <time>2026-08-28T17:53:26Z</time>
  <course>0.0</course>
  <speed>0.0</speed>
  <fix>3d</fix>
</trkpt>
<trkpt lat="40.0713749" lon="-105.229789">
  <ele>1582.98</ele>
  <time>2026-08-28T17:53:26Z</time>
  <course>6.0</course>
  <speed>0.0</speed>
  <fix>3d</fix>
</trkpt>
<trkpt lat="40.0713749" lon="-105.229789">
  <ele>1583.0</ele>
  <time>2026-08-28T17:53:26Z</time>
  <course>0.0</course>
  <speed>0.0</speed>
  <fix>3d</fix>
</trkpt>
<trkpt lat="40.0713749" lon="-105.229789">
  <ele>1583.15</ele>
  <time>2026-08-28T17:53:26Z</time>
  <course>5.99</course>
  <speed>0.0</speed>
  <fix>3d</fix>
</trkpt>
<trkpt lat="40.0713749" lon="-105.229789">
  <ele>1583.0</ele>
  <time>2026-08-28T17:53:26Z</time>
  <course>0.0</course>
  <speed>0.0</speed>
  <fix>3d</fix>
</trkpt>
<trkpt lat="40.0713749" lon="-105.229789">
  <ele>1583.28</ele>
  <time>2026-08-28T17:53:26Z</time>
  <course>5.99</course>
  <speed>0.0</speed>
  <fix>3d</fix>
</trkpt>
<trkpt lat="40.0713749" lon="-105.229789">
  <ele>1583.0</ele>
  <time>2026-08-28T17:53:26Z</time>
  <course>0.0</course>
  <speed>0.0</speed>
  <fix>3d</fix>
</trkpt>
<trkpt lat="40.0713749" lon="-105.229789">
  <ele>1583.02</ele>
  <time>2026-08-28T17:53:26Z</time>
  <course>5.99</course>
  <speed>0.0</speed>
  <fix>3d</fix>
</trkpt>
<trkpt lat="40.0713749" lon="-105.229789">
  <ele>1583.0</ele>
  <time>2026-08-28T17:53:26Z</time>
  <course>0.0</course>
  <speed>0.0</speed>
  <fix>3d</fix>
</trkpt>
<trkpt lat="40.0713749" lon="-105.229789">
  <ele>1583.11</ele>
  <time>2026-08-28T17:53:26Z</time>
  <course>5.99</course>
  <speed>0.0</speed>
  <fix>3d</fix>
</trkpt>
<trkpt lat="40.0713749" lon="-105.229789">
  <ele>1583.0</ele>
  <time>2026-08-28T17:53:26Z</time>
  <course>0.0</course>
  <speed>0.0</speed>
  <fix>3d</fix>
</trkpt>
<trkpt lat="40.0713749" lon="-105.229789">
  <ele>1582.91</ele>
  <time>2026-08-28T17:53:26Z</time>
  <course>5.99</course>
  <speed>0.0</speed>
  <fix>3d</fix>
</trkpt>
<trkpt lat="40.0713749" lon="-105.229789">
  <ele>1583.0</ele>
  <time>2026-08-28T17:53:26Z</time>
  <course>0.0</course>
  <speed>0.0</speed>
  <fix>3d</fix>
</trkpt>
<trkpt lat="40.0713749" lon="-105.229789">
  <ele>1583.11</ele>
  <time>2026-08-28T17:53:26Z</time>
  <course>5.99</course>
  <speed>0.0</speed>
  <fix>3d</fix>
</trkpt>
<trkpt lat="40.0713749" lon="-105.229789">
  <ele>1583.0</ele>
  <time>2026-08-28T17:53:26Z</time>
  <course>0.0</course>
  <speed>0.0</speed>
  <fix>3d</fix>
</trkpt>
<trkpt lat="40.0713749" lon="-105.229789">
  <ele>1583.12</ele>
  <time>2026-08-28T17:53:26Z</time>
  <course>5.99</course>
  <speed>0.0</speed>
  <fix>3d</fix>
</trkpt>
<trkpt lat="40.0713749" lon="-105.229789">
  <ele>1583.0</ele>
  <time>2026-08-28T17:53:26Z</time>
  <course>0.0</course>
  <speed>0.0</speed>
  <fix>3d</fix>
</trkpt>
<trkpt lat="40.0713749" lon="-105.229789">
  <ele>1582.93</ele>
  <time>2026-08-28T17:53:26Z</time>
  <course>5.99</course>
  <speed>0.0</speed>
  <fix>3d</fix>
</trkpt>
<trkpt lat="40.0713749" lon="-105.229789">
  <ele>1583.0</ele>
  <time>2026-08-28T17:53:26Z</time>
  <course>0.0</course>
  <speed>0.0</speed>
  <fix>3d</fix>
</trkpt>
<trkpt lat="40.0713749" lon="-105.229789">
  <ele>1583.08</ele>
  <time>2026-08-28T17:53:26Z</time>
  <course>5.99</course>
  <speed>0.0</speed>
  <fix>3d</fix>
</trkpt>
<trkpt lat="40.0713749" lon="-105.229789">
  <ele>1583.0</ele>
  <time>2026-08-28T17:53:26Z</time>
  <course>0.0</course>
  <speed>0.0</speed>
  <fix>3d</fix>
</trkpt>
<trkpt lat="40.0713749" lon="-105.229789">
  <ele>1583.33</ele>
  <time>2026-08-28T17:53:26Z</time>
  <course>5.99</course>
  <speed>0.0</speed>
  <fix>3d</fix>
</trkpt>
<trkpt lat="40.0713749" lon="-105.229789">
  <ele>1583.0</ele>
  <time>2026-08-28T17:53:26Z</time>
  <course>0.0</course>
  <speed>0.0</speed>
  <fix>3d</fix>
</trkpt>
<trkpt lat="40.0713749" lon="-105.229789">
  <ele>1582.98</ele>
  <time>2026-08-28T17:53:26Z</time>
  <course>5.99</course>
  <speed>0.0</speed>
  <fix>3d</fix>
</trkpt>
<trkpt lat="40.0713749" lon="-105.229789">
  <ele>1583.0</ele>
  <time>2026-08-28T17:53:26Z</time>
  <course>0.0</course>
  <speed>0.0</speed>
  <fix>3d</fix>
</trkpt>
<trkpt lat="40.0713749" lon="-105.229789">
  <ele>1583.08</ele>
  <time>2026-08-28T17:53:26Z</time>
  <course>5.99</course>
  <speed>0.0</speed>
  <fix>3d</fix>
</trkpt>
<trkpt lat="40.0713749" lon="-105.229789">
  <ele>1583.0</ele>
  <time>2026-08-28T17:53:26Z</time>
  <course>0.0</course>
  <speed>0.0</speed>
  <fix>3d</fix>
</trkpt>
<trkpt lat="40.0713749" lon="-105.229789">
  <ele>1583.09</ele>
  <time>2026-08-28T17:53:26Z</time>
  <course>5.99</course>
  <speed>0.0</speed>
  <fix>3d</fix>
</trkpt>
<trkpt lat="40.0713749" lon="-105.229789">
  <ele>1583.0</ele>
  <time>2026-08-28T17:53:26Z</time>
  <course>0.0</course>
  <speed>0.0</speed>
  <fix>3d</fix>
</trkpt>
<trkpt lat="40.0713749" lon="-105.229789">
  <ele>1583.16</ele>
  <time>2026-08-28T17:53:26Z</time>
  <course>5.99</course>
  <speed>0.0</speed>
  <fix>3d</fix>
</trkpt>
<trkpt lat="40.0713749" lon="-105.229789">
  <ele>1583.0</ele>
  <time>2026-08-28T17:53:26Z</time>
  <course>0.0</course>
  <speed>0.0</speed>
  <fix>3d</fix>
</trkpt>
<trkpt lat="40.0713749" lon="-105.229789">
  <ele>1583.15</ele>
  <time>2026-08-28T17:53:26Z</time>
  <course>5.99</course>
  <speed>0.0</speed>
  <fix>3d</fix>
</trkpt>
<trkpt lat="40.0713749" lon="-105.229789">
  <ele>1583.0</ele>
  <time>2026-08-28T17:53:26Z</time>
  <course>0.0</course>
  <speed>0.0</speed>
  <fix>3d</fix>
</trkpt>
<trkpt lat="40.0713749" lon="-105.229789">
  <ele>1583.06</ele>
  <time>2026-08-28T17:53:26Z</time>
  <course>5.99</course>
  <speed>0.0</speed>
  <fix>3d</fix>
</trkpt>
<trkpt lat="40.0713749" lon="-105.229789">
  <ele>1583.0</ele>
  <time>2026-08-28T17:53:26Z</time>
  <course>0.0</course>
  <speed>0.0</speed>
  <fix>3d</fix>
</trkpt>
<trkpt lat="40.0713749" lon="-105.229789">
  <ele>1583.25</ele>
  <time>2026-08-28T17:53:26Z</time>
  <course>5.99</course>
  <speed>0.0</speed>
  <fix>3d</fix>
</trkpt>
<trkpt lat="40.0713749" lon="-105.229789">
  <ele>1583.0</ele>
  <time>2026-08-28T17:53:26Z</time>
  <course>0.0</course>
  <speed>0.0</speed>
  <fix>3d</fix>
</trkpt>
<trkpt lat="40.0713749" lon="-105.229789">
  <ele>1583.14</ele>
  <time>2026-08-28T17:53:26Z</time>
  <course>5.99</course>
  <speed>0.0</speed>
  <fix>3d</fix>
</trkpt>
<trkpt lat="40.0713749" lon="-105.229789">
  <ele>1583.0</ele>
  <time>2026-08-28T17:53:26Z</time>
  <course>0.0</course>
  <speed>0.0</speed>
  <fix>3d</fix>
</trkpt>
<trkpt lat="40.0713749" lon="-105.229789">
  <ele>1582.94</ele>
  <time>2026-08-28T17:53:26Z</time>
  <course>5.99</course>
  <speed>0.0</speed>
  <fix>3d</fix>
</trkpt>
<trkpt lat="40.0713749" lon="-105.229789">
  <ele>1583.0</ele>
  <time>2026-08-28T17:53:26Z</time>
  <course>0.0</course>
  <speed>0.0</speed>
  <fix>3d</fix>
</trkpt>
<trkpt lat="40.0713749" lon="-105.229789">
  <ele>1583.13</ele>
  <time>2026-08-28T17:53:28Z</time>
  <course>5.99</course>
  <speed>0.0</speed>
  <fix>3d</fix>
</trkpt>
<trkpt lat="40.0713749" lon="-105.229789">
  <ele>1583.0</ele>
  <time>2026-08-28T17:53:28Z</time>
  <course>0.0</course>
  <speed>0.0</speed>
  <fix>3d</fix>
</trkpt>
<trkpt lat="40.0713749" lon="-105.229789">
  <ele>1582.82</ele>
  <time>2026-08-28T17:53:28Z</time>
  <course>5.99</course>
  <speed>0.0</speed>
  <fix>3d</fix>
</trkpt>
<trkpt lat="40.0713749" lon="-105.229789">
  <ele>1583.0</ele>
  <time>2026-08-28T17:53:28Z</time>
  <course>0.0</course>
  <speed>0.0</speed>
  <fix>3d</fix>
</trkpt>
<trkpt lat="40.0713749" lon="-105.229789">
  <ele>1582.89</ele>
  <time>2026-08-28T17:53:28Z</time>
  <course>5.99</course>
  <speed>0.0</speed>
  <fix>3d</fix>
</trkpt>
<trkpt lat="40.0713749" lon="-105.229789">
  <ele>1583.0</ele>
  <time>2026-08-28T17:53:28Z</time>
  <course>0.0</course>
  <speed>0.0</speed>
  <fix>3d</fix>
</trkpt>
<trkpt lat="40.0713749" lon="-105.229789">
  <ele>1582.9</ele>
  <time>2026-08-28T17:53:28Z</time>
  <course>5.99</course>
  <speed>0.0</speed>
  <fix>3d</fix>
</trkpt>
<trkpt lat="40.0713749" lon="-105.229789">
  <ele>1583.0</ele>
  <time>2026-08-28T17:53:28Z</time>
  <course>0.0</course>
  <speed>0.0</speed>
  <fix>3d</fix>
</trkpt>
<trkpt lat="40.0713749" lon="-105.229789">
  <ele>1582.91</ele>
  <time>2026-08-28T17:53:28Z</time>
  <course>5.99</course>
  <speed>0.0</speed>
  <fix>3d</fix>
</trkpt>
<trkpt lat="40.0713749" lon="-105.229789">
  <ele>1583.0</ele>
  <time>2026-08-28T17:53:28Z</time>
  <course>0.0</course>
  <speed>0.0</speed>
  <fix>3d</fix>
</trkpt>
<trkpt lat="40.0713749" lon="-105.229789">
  <ele>1582.92</ele>
  <time>2026-08-28T17:53:28Z</time>
  <course>5.99</course>
  <speed>0.0</speed>
  <fix>3d</fix>
</trkpt>
<trkpt lat="40.0713749" lon="-105.229789">
  <ele>1583.0</ele>
  <time>2026-08-28T17:53:28Z</time>
  <course>0.0</course>
  <speed>0.0</speed>
  <fix>3d</fix>
</trkpt>
<trkpt lat="40.0713749" lon="-105.229789">
  <ele>1582.84</ele>
  <time>2026-08-28T17:53:28Z</time>
  <course>5.99</course>
  <speed>0.0</speed>
  <fix>3d</fix>
</trkpt>
<trkpt lat="40.0713749" lon="-105.229789">
  <ele>1583.0</ele>
  <time>2026-08-28T17:53:28Z</time>
  <course>0.0</course>
  <speed>0.0</speed>
  <fix>3d</fix>
</trkpt>
<trkpt lat="40.0713749" lon="-105.229789">
  <ele>1583.21</ele>
  <time>2026-08-28T17:53:28Z</time>
  <course>5.99</course>
  <speed>0.0</speed>
  <fix>3d</fix>
</trkpt>
<trkpt lat="40.0713749" lon="-105.229789">
  <ele>1583.0</ele>
  <time>2026-08-28T17:53:28Z</time>
  <course>0.0</course>
  <speed>0.0</speed>
  <fix>3d</fix>
</trkpt>
<trkpt lat="40.0713749" lon="-105.229789">
  <ele>1582.94</ele>
  <time>2026-08-28T17:53:28Z</time>
  <course>5.99</course>
  <speed>0.0</speed>
  <fix>3d</fix>
</trkpt>
<trkpt lat="40.0713749" lon="-105.229789">
  <ele>1583.0</ele>
  <time>2026-08-28T17:53:28Z</time>
  <course>0.0</course>
  <speed>0.0</speed>
  <fix>3d</fix>
</trkpt>
<trkpt lat="40.0713749" lon="-105.229789">
  <ele>1582.9</ele>
  <time>2026-08-28T17:53:28Z</time>
  <course>5.99</course>
  <speed>0.0</speed>
  <fix>3d</fix>
</trkpt>
<trkpt lat="40.0713749" lon="-105.229789">
  <ele>1583.0</ele>
  <time>2026-08-28T17:53:28Z</time>
  <course>0.0</course>
  <speed>0.0</speed>
  <fix>3d</fix>
</trkpt>
<trkpt lat="40.0713749" lon="-105.229789">
  <ele>1583.15</ele>
  <time>2026-08-28T17:53:28Z</time>
  <course>5.99</course>
  <speed>0.0</speed>
  <fix>3d</fix>
</trkpt>
<trkpt lat="40.0713749" lon="-105.229789">
  <ele>1583.0</ele>
  <time>2026-08-28T17:53:28Z</time>
  <course>0.0</course>
  <speed>0.0</speed>
  <fix>3d</fix>
</trkpt>
<trkpt lat="40.0713749" lon="-105.229789">
  <ele>1583.07</ele>
  <time>2026-08-28T17:53:28Z</time>
  <course>5.99</course>
  <speed>0.0</speed>
  <fix>3d</fix>
</trkpt>
<trkpt lat="40.0713749" lon="-105.229789">
  <ele>1583.0</ele>
  <time>2026-08-28T17:53:28Z</time>
  <course>0.0</course>
  <speed>0.0</speed>
  <fix>3d</fix>
</trkpt>
<trkpt lat="40.0713749" lon="-105.229789">
  <ele>1582.88</ele>
  <time>2026-08-28T17:53:28Z</time>
  <course>5.99</course>
  <speed>0.0</speed>
  <fix>3d</fix>
</trkpt>
<trkpt lat="40.0713749" lon="-105.229789">
  <ele>1583.0</ele>
  <time>2026-08-28T17:53:28Z</time>
  <course>0.0</course>
  <speed>0.0</speed>
  <fix>3d</fix>
</trkpt>
<trkpt lat="40.0713749" lon="-105.229789">
  <ele>1583.14</ele>
  <time>2026-08-28T17:53:28Z</time>
  <course>5.99</course>
  <speed>0.0</speed>
  <fix>3d</fix>
</trkpt>
<trkpt lat="40.0713749" lon="-105.229789">
  <ele>1583.0</ele>
  <time>2026-08-28T17:53:28Z</time>
  <course>0.0</course>
  <speed>0.0</speed>
  <fix>3d</fix>
</trkpt>
<trkpt lat="40.0713749" lon="-105.229789">
  <ele>1583.03</ele>
  <time>2026-08-28T17:53:28Z</time>
  <course>8.27</course>
  <speed>0.0</speed>
  <fix>3d</fix>
</trkpt>
<trkpt lat="40.0713749" lon="-105.229789">
  <ele>1583.0</ele>
  <time>2026-08-28T17:53:28Z</time>
  <course>0.0</course>
  <speed>0.0</speed>
  <fix>3d</fix>
</trkpt>
<trkpt lat="40.0713749" lon="-105.229789">
  <ele>1583.15</ele>
  <time>2026-08-28T17:53:28Z</time>
  <course>7.71</course>
  <speed>0.0</speed>
  <fix>3d</fix>
</trkpt>
<trkpt lat="40.0713749" lon="-105.229789">
  <ele>1583.0</ele>
  <time>2026-08-28T17:53:28Z</time>
  <course>0.0</course>
  <speed>0.0</speed>
  <fix>3d</fix>
</trkpt>
<trkpt lat="40.0713749" lon="-105.229789">
  <ele>1583.08</ele>
  <time>2026-08-28T17:53:28Z</time>
  <course>7.46</course>
  <speed>0.0</speed>
  <fix>3d</fix>
</trkpt>
<trkpt lat="40.0713749" lon="-105.229789">
  <ele>1583.0</ele>
  <time>2026-08-28T17:53:28Z</time>
  <course>0.0</course>
  <speed>0.0</speed>
  <fix>3d</fix>
</trkpt>
<trkpt lat="40.0713749" lon="-105.229789">
  <ele>1583.24</ele>
  <time>2026-08-28T17:53:28Z</time>
  <course>7.53</course>
  <speed>0.0</speed>
  <fix>3d</fix>
</trkpt>
<trkpt lat="40.0713749" lon="-105.229789">
  <ele>1583.0</ele>
  <time>2026-08-28T17:53:28Z</time>
  <course>0.0</course>
  <speed>0.0</speed>
  <fix>3d</fix>
</trkpt>
<trkpt lat="40.0713749" lon="-105.229789">
  <ele>1582.91</ele>
  <time>2026-08-28T17:53:28Z</time>
  <course>7.57</course>
  <speed>0.0</speed>
  <fix>3d</fix>
</trkpt>
<trkpt lat="40.0713749" lon="-105.229789">
  <ele>1583.0</ele>
  <time>2026-08-28T17:53:28Z</time>
  <course>0.0</course>
  <speed>0.0</speed>
  <fix>3d</fix>
</trkpt>
<trkpt lat="40.0713749" lon="-105.229789">
  <ele>1583.32</ele>
  <time>2026-08-28T17:53:28Z</time>
  <course>7.59</course>
  <speed>0.0</speed>
  <fix>3d</fix>
</trkpt>
<trkpt lat="40.0713749" lon="-105.229789">
  <ele>1583.0</ele>
  <time>2026-08-28T17:53:28Z</time>
  <course>0.0</course>
  <speed>0.0</speed>
  <fix>3d</fix>
</trkpt>
<trkpt lat="40.0713749" lon="-105.229789">
  <ele>1582.98</ele>
  <time>2026-08-28T17:53:28Z</time>
  <course>7.59</course>
  <speed>0.0</speed>
  <fix>3d</fix>
</trkpt>
<trkpt lat="40.0713749" lon="-105.229789">
  <ele>1583.0</ele>
  <time>2026-08-28T17:53:28Z</time>
  <course>0.0</course>
  <speed>0.0</speed>
  <fix>3d</fix>
</trkpt>
<trkpt lat="40.0713749" lon="-105.229789">
  <ele>1582.97</ele>
  <time>2026-08-28T17:53:28Z</time>
  <course>7.58</course>
  <speed>0.0</speed>
  <fix>3d</fix>
</trkpt>
<trkpt lat="40.0713749" lon="-105.229789">
  <ele>1583.0</ele>
  <time>2026-08-28T17:53:28Z</time>
  <course>0.0</course>
  <speed>0.0</speed>
  <fix>3d</fix>
</trkpt>
<trkpt lat="40.0713749" lon="-105.229789">
  <ele>1583.28</ele>
  <time>2026-08-28T17:53:28Z</time>
  <course>7.57</course>
  <speed>0.0</speed>
  <fix>3d</fix>
</trkpt>
<trkpt lat="40.0713749" lon="-105.229789">
  <ele>1583.0</ele>
  <time>2026-08-28T17:53:28Z</time>
  <course>0.0</course>
  <speed>0.0</speed>
  <fix>3d</fix>
</trkpt>
<trkpt lat="40.0713749" lon="-105.229789">
  <ele>1583.36</ele>
  <time>2026-08-28T17:53:28Z</time>
  <course>7.56</course>
  <speed>0.0</speed>
  <fix>3d</fix>
</trkpt>
<trkpt lat="40.0713749" lon="-105.229789">
  <ele>1583.0</ele>
  <time>2026-08-28T17:53:28Z</time>
  <course>0.0</course>
  <speed>0.0</speed>
  <fix>3d</fix>
</trkpt>
<trkpt lat="40.0713749" lon="-105.229789">
  <ele>1583.03</ele>
  <time>2026-08-28T17:53:28Z</time>
  <course>7.55</course>
  <speed>0.0</speed>
  <fix>3d</fix>
</trkpt>
<trkpt lat="40.0713749" lon="-105.229789">
  <ele>1583.0</ele>
  <time>2026-08-28T17:53:28Z</time>
  <course>0.0</course>
  <speed>0.0</speed>
  <fix>3d</fix>
</trkpt>
<trkpt lat="40.0713749" lon="-105.229789">
  <ele>1583.25</ele>
  <time>2026-08-28T17:53:28Z</time>
  <course>7.53</course>
  <speed>0.0</speed>
  <fix>3d</fix>
</trkpt>
<trkpt lat="40.0713749" lon="-105.229789">
  <ele>1583.0</ele>
  <time>2026-08-28T17:53:28Z</time>
  <course>0.0</course>
  <speed>0.0</speed>
  <fix>3d</fix>
</trkpt>
<trkpt lat="40.0713749" lon="-105.229789">
  <ele>1583.15</ele>
  <time>2026-08-28T17:53:28Z</time>
  <course>7.52</course>
  <speed>0.0</speed>
  <fix>3d</fix>
</trkpt>
<trkpt lat="40.0713749" lon="-105.229789">
  <ele>1583.0</ele>
  <time>2026-08-28T17:53:28Z</time>
  <course>0.0</course>
  <speed>0.0</speed>
  <fix>3d</fix>
</trkpt>
<trkpt lat="40.0713749" lon="-105.229789">
  <ele>1583.3</ele>
  <time>2026-08-28T17:53:28Z</time>
  <course>7.51</course>
  <speed>0.0</speed>
  <fix>3d</fix>
</trkpt>
<trkpt lat="40.0713749" lon="-105.229789">
  <ele>1583.0</ele>
  <time>2026-08-28T17:53:28Z</time>
  <course>0.0</course>
  <speed>0.0</speed>
  <fix>3d</fix>
</trkpt>
<trkpt lat="40.0713749" lon="-105.229789">
  <ele>1583.25</ele>
  <time>2026-08-28T17:53:28Z</time>
  <course>7.49</course>
  <speed>0.0</speed>
  <fix>3d</fix>
</trkpt>
<trkpt lat="40.0713749" lon="-105.229789">
  <ele>1583.0</ele>
  <time>2026-08-28T17:53:28Z</time>
  <course>0.0</course>
  <speed>0.0</speed>
  <fix>3d</fix>
</trkpt>
<trkpt lat="40.0713749" lon="-105.229789">
  <ele>1582.75</ele>
  <time>2026-08-28T17:53:28Z</time>
  <course>7.48</course>
  <speed>0.0</speed>
  <fix>3d</fix>
</trkpt>
<trkpt lat="40.0713749" lon="-105.229789">
  <ele>1583.0</ele>
  <time>2026-08-28T17:53:28Z</time>
  <course>0.0</course>
  <speed>0.0</speed>
  <fix>3d</fix>
</trkpt>
<trkpt lat="40.0713749" lon="-105.229789">
  <ele>1582.73</ele>
  <time>2026-08-28T17:53:28Z</time>
  <course>7.47</course>
  <speed>0.0</speed>
  <fix>3d</fix>
</trkpt>
<trkpt lat="40.0713749" lon="-105.229789">
  <ele>1583.0</ele>
  <time>2026-08-28T17:53:28Z</time>
  <course>0.0</course>
  <speed>0.0</speed>
  <fix>3d</fix>
</trkpt>
<trkpt lat="40.0713749" lon="-105.229789">
  <ele>1583.05</ele>
  <time>2026-08-28T17:53:28Z</time>
  <course>7.45</course>
  <speed>0.0</speed>
  <fix>3d</fix>
</trkpt>
<trkpt lat="40.0713749" lon="-105.229789">
  <ele>1583.0</ele>
  <time>2026-08-28T17:53:28Z</time>
  <course>0.0</course>
  <speed>0.0</speed>
  <fix>3d</fix>
</trkpt>
<trkpt lat="40.0713749" lon="-105.229789">
  <ele>1582.7</ele>
  <time>2026-08-28T17:53:28Z</time>
  <course>7.44</course>
  <speed>0.0</speed>
  <fix>3d</fix>
</trkpt>
<trkpt lat="40.0713749" lon="-105.229789">
  <ele>1583.0</ele>
  <time>2026-08-28T17:53:28Z</time>
  <course>0.0</course>
  <speed>0.0</speed>
  <fix>3d</fix>
</trkpt>
<trkpt lat="40.0713749" lon="-105.229789">
  <ele>1582.97</ele>
  <time>2026-08-28T17:53:28Z</time>
  <course>7.42</course>
  <speed>0.0</speed>
  <fix>3d</fix>
</trkpt>
<trkpt lat="40.0713749" lon="-105.229789">
  <ele>1583.0</ele>
  <time>2026-08-28T17:53:28Z</time>
  <course>0.0</course>
  <speed>0.0</speed>
  <fix>3d</fix>
</trkpt>
<trkpt lat="40.0713749" lon="-105.229789">
  <ele>1582.76</ele>
  <time>2026-08-28T17:53:28Z</time>
  <course>7.41</course>
  <speed>0.0</speed>
  <fix>3d</fix>
</trkpt>
<trkpt lat="40.0713749" lon="-105.229789">
  <ele>1583.0</ele>
  <time>2026-08-28T17:53:28Z</time>
  <course>0.0</course>
  <speed>0.0</speed>
  <fix>3d</fix>
</trkpt>
<trkpt lat="40.0713749" lon="-105.229789">
  <ele>1582.83</ele>
  <time>2026-08-28T17:53:28Z</time>
  <course>7.39</course>
  <speed>0.0</speed>
  <fix>3d</fix>
</trkpt>
<trkpt lat="40.0713749" lon="-105.229789">
  <ele>1583.0</ele>
  <time>2026-08-28T17:53:28Z</time>
  <course>0.0</course>
  <speed>0.0</speed>
  <fix>3d</fix>
</trkpt>
<trkpt lat="40.0713749" lon="-105.229789">
  <ele>1583.04</ele>
  <time>2026-08-28T17:53:28Z</time>
  <course>7.38</course>
  <speed>0.0</speed>
  <fix>3d</fix>
</trkpt>
<trkpt lat="40.0713749" lon="-105.229789">
  <ele>1583.0</ele>
  <time>2026-08-28T17:53:28Z</time>
  <course>0.0</course>
  <speed>0.0</speed>
  <fix>3d</fix>
</trkpt>
<trkpt lat="40.0713749" lon="-105.229789">
  <ele>1582.95</ele>
  <time>2026-08-28T17:53:28Z</time>
  <course>7.37</course>
  <speed>0.0</speed>
  <fix>3d</fix>
</trkpt>
<trkpt lat="40.0713749" lon="-105.229789">
  <ele>1583.0</ele>
  <time>2026-08-28T17:53:28Z</time>
  <course>0.0</course>
  <speed>0.0</speed>
  <fix>3d</fix>
</trkpt>
<trkpt lat="40.0713749" lon="-105.229789">
  <ele>1582.84</ele>
  <time>2026-08-28T17:53:28Z</time>
  <course>7.35</course>
  <speed>0.0</speed>
  <fix>3d</fix>
</trkpt>
<trkpt lat="40.0713749" lon="-105.229789">
  <ele>1583.0</ele>
  <time>2026-08-28T17:53:28Z</time>
  <course>0.0</course>
  <speed>0.0</speed>
  <fix>3d</fix>
</trkpt>
<trkpt lat="40.0713749" lon="-105.229789">
  <ele>1583.22</ele>
  <time>2026-08-28T17:53:28Z</time>
  <course>7.34</course>
  <speed>0.0</speed>
  <fix>3d</fix>
</trkpt>
<trkpt lat="40.0713749" lon="-105.229789">
  <ele>1583.0</ele>
  <time>2026-08-28T17:53:28Z</time>
  <course>0.0</course>
  <speed>0.0</speed>
  <fix>3d</fix>
</trkpt>
<trkpt lat="40.0713749" lon="-105.229789">
  <ele>1583.2</ele>
  <time>2026-08-28T17:53:28Z</time>
  <course>7.32</course>
  <speed>0.0</speed>
  <fix>3d</fix>
</trkpt>
<trkpt lat="40.0713749" lon="-105.229789">
  <ele>1583.0</ele>
  <time>2026-08-28T17:53:28Z</time>
  <course>0.0</course>
  <speed>0.0</speed>
  <fix>3d</fix>
</trkpt>
<trkpt lat="40.0713749" lon="-105.229789">
  <ele>1583.16</ele>
  <time>2026-08-28T17:53:28Z</time>
  <course>7.31</course>
  <speed>0.0</speed>
  <fix>3d</fix>
</trkpt>
<trkpt lat="40.0713749" lon="-105.229789">
  <ele>1583.0</ele>
  <time>2026-08-28T17:53:28Z</time>
  <course>0.0</course>
  <speed>0.0</speed>
  <fix>3d</fix>
</trkpt>
<trkpt lat="40.0713749" lon="-105.229789">
  <ele>1582.9</ele>
  <time>2026-08-28T17:53:28Z</time>
  <course>7.29</course>
  <speed>0.0</speed>
  <fix>3d</fix>
</trkpt>
<trkpt lat="40.0713749" lon="-105.229789">
  <ele>1583.0</ele>
  <time>2026-08-28T17:53:28Z</time>
  <course>0.0</course>
  <speed>0.0</speed>
  <fix>3d</fix>
</trkpt>
<trkpt lat="40.0713749" lon="-105.229789">
  <ele>1582.98</ele>
  <time>2026-08-28T17:53:28Z</time>
  <course>7.28</course>
  <speed>0.0</speed>
  <fix>3d</fix>
</trkpt>
<trkpt lat="40.0713749" lon="-105.229789">
  <ele>1583.0</ele>
  <time>2026-08-28T17:53:28Z</time>
  <course>0.0</course>
  <speed>0.0</speed>
  <fix>3d</fix>
</trkpt>
<trkpt lat="40.0713749" lon="-105.229789">
  <ele>1583.16</ele>
  <time>2026-08-28T17:53:28Z</time>
  <course>7.26</course>
  <speed>0.0</speed>
  <fix>3d</fix>
</trkpt>
<trkpt lat="40.0713749" lon="-105.229789">
  <ele>1583.0</ele>
  <time>2026-08-28T17:53:28Z</time>
  <course>0.0</course>
  <speed>0.0</speed>
  <fix>3d</fix>
</trkpt>
<trkpt lat="40.0713749" lon="-105.229789">
  <ele>1582.87</ele>
  <time>2026-08-28T17:53:28Z</time>
  <course>7.25</course>
  <speed>0.0</speed>
  <fix>3d</fix>
</trkpt>
<trkpt lat="40.0713749" lon="-105.229789">
  <ele>1583.0</ele>
  <time>2026-08-28T17:53:28Z</time>
  <course>0.0</course>
  <speed>0.0</speed>
  <fix>3d</fix>
</trkpt>
<trkpt lat="40.0713749" lon="-105.229789">
  <ele>1582.93</ele>
  <time>2026-08-28T17:53:28Z</time>
  <course>7.24</course>
  <speed>0.0</speed>
  <fix>3d</fix>
</trkpt>
<trkpt lat="40.0713749" lon="-105.229789">
  <ele>1583.0</ele>
  <time>2026-08-28T17:53:28Z</time>
  <course>0.0</course>
  <speed>0.0</speed>
  <fix>3d</fix>
</trkpt>
<trkpt lat="40.0713749" lon="-105.229789">
  <ele>1583.04</ele>
  <time>2026-08-28T17:53:28Z</time>
  <course>7.22</course>
  <speed>0.0</speed>
  <fix>3d</fix>
</trkpt>
<trkpt lat="40.0713749" lon="-105.229789">
  <ele>1583.0</ele>
  <time>2026-08-28T17:53:28Z</time>
  <course>0.0</course>
  <speed>0.0</speed>
  <fix>3d</fix>
</trkpt>
<trkpt lat="40.0713749" lon="-105.229789">
  <ele>1583.24</ele>
  <time>2026-08-28T17:53:28Z</time>
  <course>7.21</course>
  <speed>0.0</speed>
  <fix>3d</fix>
</trkpt>
<trkpt lat="40.0713749" lon="-105.229789">
  <ele>1583.0</ele>
  <time>2026-08-28T17:53:28Z</time>
  <course>0.0</course>
  <speed>0.0</speed>
  <fix>3d</fix>
</trkpt>
<trkpt lat="40.0713749" lon="-105.229789">
  <ele>1582.98</ele>
  <time>2026-08-28T17:53:28Z</time>
  <course>7.19</course>
  <speed>0.0</speed>
  <fix>3d</fix>
</trkpt>
<trkpt lat="40.0713749" lon="-105.229789">
  <ele>1583.0</ele>
  <time>2026-08-28T17:53:28Z</time>
  <course>0.0</course>
  <speed>0.0</speed>
  <fix>3d</fix>
</trkpt>
<trkpt lat="40.0713749" lon="-105.229789">
  <ele>1582.85</ele>
  <time>2026-08-28T17:53:28Z</time>
  <course>7.18</course>
  <speed>0.0</speed>
  <fix>3d</fix>
</trkpt>
<trkpt lat="40.0713749" lon="-105.229789">
  <ele>1583.0</ele>
  <time>2026-08-28T17:53:28Z</time>
  <course>0.0</course>
  <speed>0.0</speed>
  <fix>3d</fix>
</trkpt>
<trkpt lat="40.0713749" lon="-105.229789">
  <ele>1582.66</ele>
  <time>2026-08-28T17:53:28Z</time>
  <course>7.16</course>
  <speed>0.0</speed>
  <fix>3d</fix>
</trkpt>
<trkpt lat="40.0713749" lon="-105.229789">
  <ele>1583.0</ele>
  <time>2026-08-28T17:53:28Z</time>
  <course>0.0</course>
  <speed>0.0</speed>
  <fix>3d</fix>
</trkpt>
<trkpt lat="40.0713749" lon="-105.229789">
  <ele>1582.73</ele>
  <time>2026-08-28T17:53:28Z</time>
  <course>7.15</course>
  <speed>0.0</speed>
  <fix>3d</fix>
</trkpt>
<trkpt lat="40.0713749" lon="-105.229789">
  <ele>1583.0</ele>
  <time>2026-08-28T17:53:28Z</time>
  <course>0.0</course>
  <speed>0.0</speed>
  <fix>3d</fix>
</trkpt>
<trkpt lat="40.0713749" lon="-105.229789">
  <ele>1582.83</ele>
  <time>2026-08-28T17:53:28Z</time>
  <course>7.14</course>
  <speed>0.0</speed>
  <fix>3d</fix>
</trkpt>
<trkpt lat="40.0713749" lon="-105.229789">
  <ele>1583.0</ele>
  <time>2026-08-28T17:53:28Z</time>
  <course>0.0</course>
  <speed>0.0</speed>
  <fix>3d</fix>
</trkpt>
<trkpt lat="40.0713749" lon="-105.229789">
  <ele>1582.7</ele>
  <time>2026-08-28T17:53:28Z</time>
  <course>7.12</course>
  <speed>0.0</speed>
  <fix>3d</fix>
</trkpt>
<trkpt lat="40.0713749" lon="-105.229789">
  <ele>1583.0</ele>
  <time>2026-08-28T17:53:28Z</time>
  <course>0.0</course>
  <speed>0.0</speed>
  <fix>3d</fix>
</trkpt>
<trkpt lat="40.0713749" lon="-105.229789">
  <ele>1582.66</ele>
  <time>2026-08-28T17:53:28Z</time>
  <course>7.11</course>
  <speed>0.0</speed>
  <fix>3d</fix>
</trkpt>
<trkpt lat="40.0713749" lon="-105.229789">
  <ele>1583.0</ele>
  <time>2026-08-28T17:53:28Z</time>
  <course>0.0</course>
  <speed>0.0</speed>
  <fix>3d</fix>
</trkpt>
<trkpt lat="40.0713749" lon="-105.229789">
  <ele>1582.78</ele>
  <time>2026-08-28T17:53:28Z</time>
  <course>7.09</course>
  <speed>0.0</speed>
  <fix>3d</fix>
</trkpt>
<trkpt lat="40.0713749" lon="-105.229789">
  <ele>1583.0</ele>
  <time>2026-08-28T17:53:28Z</time>
  <course>0.0</course>
  <speed>0.0</speed>
  <fix>3d</fix>
</trkpt>
<trkpt lat="40.0713749" lon="-105.229789">
  <ele>1583.0</ele>
  <time>2026-08-28T17:53:28Z</time>
  <course>7.08</course>
  <speed>0.0</speed>
  <fix>3d</fix>
</trkpt>
<trkpt lat="40.0713749" lon="-105.229789">
  <ele>1583.0</ele>
  <time>2026-08-28T17:53:28Z</time>
  <course>0.0</course>
  <speed>0.0</speed>
  <fix>3d</fix>
</trkpt>
<trkpt lat="40.0713749" lon="-105.229789">
  <ele>1583.01</ele>
  <time>2026-08-28T17:53:28Z</time>
  <course>7.07</course>
  <speed>0.0</speed>
  <fix>3d</fix>
</trkpt>
<trkpt lat="40.0713749" lon="-105.229789">
  <ele>1583.0</ele>
  <time>2026-08-28T17:53:28Z</time>
  <course>0.0</course>
  <speed>0.0</speed>
  <fix>3d</fix>
</trkpt>
<trkpt lat="40.0713749" lon="-105.229789">
  <ele>1582.87</ele>
  <time>2026-08-28T17:53:28Z</time>
  <course>7.05</course>
  <speed>0.0</speed>
  <fix>3d</fix>
</trkpt>
<trkpt lat="40.0713749" lon="-105.229789">
  <ele>1583.0</ele>
  <time>2026-08-28T17:53:28Z</time>
  <course>0.0</course>
  <speed>0.0</speed>
  <fix>3d</fix>
</trkpt>
<trkpt lat="40.0713749" lon="-105.229789">
  <ele>1582.98</ele>
  <time>2026-08-28T17:53:28Z</time>
  <course>7.04</course>
  <speed>0.0</speed>
  <fix>3d</fix>
</trkpt>
<trkpt lat="40.0713749" lon="-105.229789">
  <ele>1583.0</ele>
  <time>2026-08-28T17:53:28Z</time>
  <course>0.0</course>
  <speed>0.0</speed>
  <fix>3d</fix>
</trkpt>
<trkpt lat="40.0713749" lon="-105.229789">
  <ele>1582.69</ele>
  <time>2026-08-28T17:53:28Z</time>
  <course>7.02</course>
  <speed>0.0</speed>
  <fix>3d</fix>
</trkpt>
<trkpt lat="40.0713749" lon="-105.229789">
  <ele>1583.0</ele>
  <time>2026-08-28T17:53:28Z</time>
  <course>0.0</course>
  <speed>0.0</speed>
  <fix>3d</fix>
</trkpt>
<trkpt lat="40.0713749" lon="-105.229789">
  <ele>1582.94</ele>
  <time>2026-08-28T17:53:28Z</time>
  <course>7.01</course>
  <speed>0.0</speed>
  <fix>3d</fix>
</trkpt>
<trkpt lat="40.0713749" lon="-105.229789">
  <ele>1583.0</ele>
  <time>2026-08-28T17:53:28Z</time>
  <course>0.0</course>
  <speed>0.0</speed>
  <fix>3d</fix>
</trkpt>
<trkpt lat="40.0713749" lon="-105.229789">
  <ele>1583.0</ele>
  <time>2026-08-28T17:53:28Z</time>
  <course>7.0</course>
  <speed>0.0</speed>
  <fix>3d</fix>
</trkpt>
<trkpt lat="40.0713749" lon="-105.229789">
  <ele>1583.0</ele>
  <time>2026-08-28T17:53:28Z</time>
  <course>0.0</course>
  <speed>0.0</speed>
  <fix>3d</fix>
</trkpt>
<trkpt lat="40.0713749" lon="-105.229789">
  <ele>1582.8</ele>
  <time>2026-08-28T17:53:28Z</time>
  <course>6.98</course>
  <speed>0.0</speed>
  <fix>3d</fix>
</trkpt>
<trkpt lat="40.0713749" lon="-105.229789">
  <ele>1583.0</ele>
  <time>2026-08-28T17:53:28Z</time>
  <course>0.0</course>
  <speed>0.0</speed>
  <fix>3d</fix>
</trkpt>
<trkpt lat="40.0713749" lon="-105.229789">
  <ele>1582.98</ele>
  <time>2026-08-28T17:53:28Z</time>
  <course>6.97</course>
  <speed>0.0</speed>
  <fix>3d</fix>
</trkpt>
<trkpt lat="40.0713749" lon="-105.229789">
  <ele>1583.0</ele>
  <time>2026-08-28T17:53:28Z</time>
  <course>0.0</course>
  <speed>0.0</speed>
  <fix>3d</fix>
</trkpt>
<trkpt lat="40.0713758" lon="-105.2297911">
  <ele>1579.53</ele>
  <time>2026-08-28T17:53:28Z</time>
  <course>15.17</course>
  <speed>0.0670820393249937</speed>
  <fix>3d</fix>
</trkpt>
<trkpt lat="40.0713749" lon="-105.229789">
  <ele>1583.0</ele>
  <time>2026-08-28T17:53:28Z</time>
  <course>0.0</course>
  <speed>0.0</speed>
  <fix>3d</fix>
</trkpt>
<trkpt lat="40.0713768" lon="-105.2297937">
  <ele>1579.48</ele>
  <time>2026-08-28T17:53:28Z</time>
  <course>15.14</course>
  <speed>0.24083189157584592</speed>
  <fix>3d</fix>
</trkpt>
<trkpt lat="40.0713749" lon="-105.229789">
  <ele>1583.0</ele>
  <time>2026-08-28T17:53:28Z</time>
  <course>0.0</course>
  <speed>0.0</speed>
  <fix>3d</fix>
</trkpt>
<trkpt lat="40.0713773" lon="-105.2297953">
  <ele>1579.58</ele>
  <time>2026-08-28T17:53:28Z</time>
  <course>15.25</course>
  <speed>0.4</speed>
  <fix>3d</fix>
</trkpt>
<trkpt lat="40.0713749" lon="-105.229789">
  <ele>1583.0</ele>
  <time>2026-08-28T17:53:28Z</time>
  <course>0.0</course>
  <speed>0.0</speed>
  <fix>3d</fix>
</trkpt>
<trkpt lat="40.0713773" lon="-105.2297962">
  <ele>1579.65</ele>
  <time>2026-08-28T17:53:28Z</time>
  <course>15.43</course>
  <speed>0.5508175741568164</speed>
  <fix>3d</fix>
</trkpt>
<trkpt lat="40.0713749" lon="-105.229789">
  <ele>1583.0</ele>
  <time>2026-08-28T17:53:28Z</time>
  <course>0.0</course>
  <speed>0.0</speed>
  <fix>3d</fix>
</trkpt>
<trkpt lat="40.0713771" lon="-105.2297966">
  <ele>1579.82</ele>
  <time>2026-08-28T17:53:28Z</time>
  <course>15.7</course>
  <speed>0.6627216610312356</speed>
  <fix>3d</fix>
</trkpt>
<trkpt lat="40.0713749" lon="-105.229789">
  <ele>1583.0</ele>
  <time>2026-08-28T17:53:28Z</time>
  <course>0.0</course>
  <speed>0.0</speed>
  <fix>3d</fix>
</trkpt>
<trkpt lat="40.0713766" lon="-105.2297967">
  <ele>1579.92</ele>
  <time>2026-08-28T17:53:28Z</time>
  <course>15.97</course>
  <speed>0.7877182237323191</speed>
  <fix>3d</fix>
</trkpt>
<trkpt lat="40.0713749" lon="-105.229789">
  <ele>1583.0</ele>
  <time>2026-08-28T17:53:28Z</time>
  <course>0.0</course>
  <speed>0.0</speed>
  <fix>3d</fix>
</trkpt>
<trkpt lat="40.0713762" lon="-105.2297966">
  <ele>1580.12</ele>
  <time>2026-08-28T17:53:28Z</time>
  <course>16.29</course>
  <speed>0.8713208364316786</speed>
  <fix>3d</fix>
</trkpt>
<trkpt lat="40.0713749" lon="-105.229789">
  <ele>1583.0</ele>
  <time>2026-08-28T17:53:28Z</time>
  <course>0.0</course>
  <speed>0.0</speed>
  <fix>3d</fix>
</trkpt>
<trkpt lat="40.0713756" lon="-105.2297962">
  <ele>1580.21</ele>
  <time>2026-08-28T17:53:28Z</time>
  <course>16.53</course>
  <speed>0.9982484660644363</speed>
  <fix>3d</fix>
</trkpt>
<trkpt lat="40.0713749" lon="-105.229789">
  <ele>1583.0</ele>
  <time>2026-08-28T17:53:28Z</time>
  <course>0.0</course>
  <speed>0.0</speed>
  <fix>3d</fix>
</trkpt>
<trkpt lat="40.0713751" lon="-105.2297958">
  <ele>1580.37</ele>
  <time>2026-08-28T17:53:28Z</time>
  <course>16.8</course>
  <speed>1.0748953437428224</speed>
  <fix>3d</fix>
</trkpt>
<trkpt lat="40.0713749" lon="-105.229789">
  <ele>1583.0</ele>
  <time>2026-08-28T17:53:28Z</time>
  <course>0.0</course>
  <speed>0.0</speed>
  <fix>3d</fix>
</trkpt>
<trkpt lat="40.0713745" lon="-105.2297953">
  <ele>1580.43</ele>
  <time>2026-08-28T17:53:28Z</time>
  <course>16.98</course>
  <speed>1.1835962149314267</speed>
  <fix>3d</fix>
</trkpt>
<trkpt lat="40.0713749" lon="-105.229789">
  <ele>1583.0</ele>
  <time>2026-08-28T17:53:28Z</time>
  <course>0.0</course>
  <speed>0.0</speed>
  <fix>3d</fix>
</trkpt>
<trkpt lat="40.071374" lon="-105.2297948">
  <ele>1580.55</ele>
  <time>2026-08-28T17:53:28Z</time>
  <course>17.19</course>
  <speed>1.2587692401707313</speed>
  <fix>3d</fix>
</trkpt>
<trkpt lat="40.0713749" lon="-105.229789">
  <ele>1583.0</ele>
  <time>2026-08-28T17:53:28Z</time>
  <course>0.0</course>
  <speed>0.0</speed>
  <fix>3d</fix>
</trkpt>
<trkpt lat="40.0713733" lon="-105.2297941">
  <ele>1580.57</ele>
  <time>2026-08-28T17:53:28Z</time>
  <course>16.25</course>
  <speed>1.3697079980784226</speed>
  <fix>3d</fix>
</trkpt>
<trkpt lat="40.0713749" lon="-105.229789">
  <ele>1583.0</ele>
  <time>2026-08-28T17:53:28Z</time>
  <course>0.0</course>
  <speed>0.0</speed>
  <fix>3d</fix>
</trkpt>
<trkpt lat="40.0713728" lon="-105.2297936">
  <ele>1580.65</ele>
  <time>2026-08-28T17:53:28Z</time>
  <course>14.63</course>
  <speed>1.3461797799699713</speed>
  <fix>3d</fix>
</trkpt>
<trkpt lat="40.0713749" lon="-105.229789">
  <ele>1583.0</ele>
  <time>2026-08-28T17:53:28Z</time>
  <course>0.0</course>
  <speed>0.0</speed>
  <fix>3d</fix>
</trkpt>
<trkpt lat="40.0713721" lon="-105.2297931">
  <ele>1580.64</ele>
  <time>2026-08-28T17:53:28Z</time>
  <course>13.94</course>
  <speed>1.3472935834479431</speed>
  <fix>3d</fix>
</trkpt>
<trkpt lat="40.0713749" lon="-105.229789">
  <ele>1583.0</ele>
  <time>2026-08-28T17:53:28Z</time>
  <course>0.0</course>
  <speed>0.0</speed>
  <fix>3d</fix>
</trkpt>
<trkpt lat="40.0713718" lon="-105.2297931">
  <ele>1580.69</ele>
  <time>2026-08-28T17:53:28Z</time>
  <course>13.86</course>
  <speed>1.3018832512940628</speed>
  <fix>3d</fix>
</trkpt>
<trkpt lat="40.0713749" lon="-105.229789">
  <ele>1583.0</ele>
  <time>2026-08-28T17:53:28Z</time>
  <course>0.0</course>
  <speed>0.0</speed>
  <fix>3d</fix>
</trkpt>
<trkpt lat="40.0713712" lon="-105.2297932">
  <ele>1580.66</ele>
  <time>2026-08-28T17:53:28Z</time>
  <course>14.17</course>
  <speed>1.324424403278647</speed>
  <fix>3d</fix>
</trkpt>
<trkpt lat="40.0713749" lon="-105.229789">
  <ele>1583.0</ele>
  <time>2026-08-28T17:53:28Z</time>
  <course>0.0</course>
  <speed>0.0</speed>
  <fix>3d</fix>
</trkpt>
<trkpt lat="40.0713711" lon="-105.2297936">
  <ele>1580.71</ele>
  <time>2026-08-28T17:53:28Z</time>
  <course>14.64</course>
  <speed>1.339328189802634</speed>
  <fix>3d</fix>
</trkpt>
<trkpt lat="40.0713749" lon="-105.229789">
  <ele>1583.0</ele>
  <time>2026-08-28T17:53:28Z</time>
  <course>0.0</course>
  <speed>0.0</speed>
  <fix>3d</fix>
</trkpt>
<trkpt lat="40.0713707" lon="-105.2297942">
  <ele>1580.68</ele>
  <time>2026-08-28T17:53:28Z</time>
  <course>15.12</course>
  <speed>1.4119844191774922</speed>
  <fix>3d</fix>
</trkpt>
<trkpt lat="40.0713749" lon="-105.229789">
  <ele>1583.0</ele>
  <time>2026-08-28T17:53:28Z</time>
  <course>0.0</course>
  <speed>0.0</speed>
  <fix>3d</fix>
</trkpt>
<trkpt lat="40.0713707" lon="-105.2297949">
  <ele>1580.72</ele>
  <time>2026-08-28T17:53:28Z</time>
  <course>15.53</course>
  <speed>1.467548977036201</speed>
  <fix>3d</fix>
</trkpt>
<trkpt lat="40.0713749" lon="-105.229789">
  <ele>1583.0</ele>
  <time>2026-08-28T17:53:28Z</time>
  <course>0.0</course>
  <speed>0.0</speed>
  <fix>3d</fix>
</trkpt>
<trkpt lat="40.0713705" lon="-105.2297958">
  <ele>1580.7</ele>
  <time>2026-08-28T17:53:28Z</time>
  <course>15.81</course>
  <speed>1.5713688300332294</speed>
  <fix>3d</fix>
</trkpt>
<trkpt lat="40.0713749" lon="-105.229789">
  <ele>1583.0</ele>
  <time>2026-08-28T17:53:28Z</time>
  <course>0.0</course>
  <speed>0.0</speed>
  <fix>3d</fix>
</trkpt>
<trkpt lat="40.0713705" lon="-105.2297967">
  <ele>1580.72</ele>
  <time>2026-08-28T17:53:28Z</time>
  <course>16.02</course>
  <speed>1.6440194646049662</speed>
  <fix>3d</fix>
</trkpt>
<trkpt lat="40.0713749" lon="-105.229789">
  <ele>1583.0</ele>
  <time>2026-08-28T17:53:28Z</time>
  <course>0.0</course>
  <speed>0.0</speed>
  <fix>3d</fix>
</trkpt>
<trkpt lat="40.0713705" lon="-105.2297977">
  <ele>1580.7</ele>
  <time>2026-08-28T17:53:28Z</time>
  <course>16.17</course>
  <speed>1.7459095051004219</speed>
  <fix>3d</fix>
</trkpt>
<trkpt lat="40.0713749" lon="-105.229789">
  <ele>1583.0</ele>
  <time>2026-08-28T17:53:28Z</time>
  <course>0.0</course>
  <speed>0.0</speed>
  <fix>3d</fix>
</trkpt>
<trkpt lat="40.0713707" lon="-105.2297985">
  <ele>1580.73</ele>
  <time>2026-08-28T17:53:28Z</time>
  <course>16.31</course>
  <speed>1.8112150617748295</speed>
  <fix>3d</fix>
</trkpt>
<trkpt lat="40.0713749" lon="-105.229789">
  <ele>1583.0</ele>
  <time>2026-08-28T17:53:28Z</time>
  <course>0.0</course>
  <speed>0.0</speed>
  <fix>3d</fix>
</trkpt>
<trkpt lat="40.0713708" lon="-105.2297995">
  <ele>1580.73</ele>
  <time>2026-08-28T17:53:28Z</time>
  <course>16.45</course>
  <speed>1.8961540021844216</speed>
  <fix>3d</fix>
</trkpt>
<trkpt lat="40.0713749" lon="-105.229789">
  <ele>1583.0</ele>
  <time>2026-08-28T17:53:28Z</time>
  <course>0.0</course>
  <speed>0.0</speed>
  <fix>3d</fix>
</trkpt>
<trkpt lat="40.0713712" lon="-105.2298003">
  <ele>1580.76</ele>
  <time>2026-08-28T17:53:28Z</time>
  <course>16.63</course>
  <speed>1.94164878389476</speed>
  <fix>3d</fix>
</trkpt>
<trkpt lat="40.0713749" lon="-105.229789">
  <ele>1583.0</ele>
  <time>2026-08-28T17:53:28Z</time>
  <course>0.0</course>
  <speed>0.0</speed>
  <fix>3d</fix>
</trkpt>
<trkpt lat="40.0713713" lon="-105.2298013">
  <ele>1580.76</ele>
  <time>2026-08-28T17:53:28Z</time>
  <course>16.8</course>
  <speed>2.0110942295178513</speed>
  <fix>3d</fix>
</trkpt>
<trkpt lat="40.0713749" lon="-105.229789">
  <ele>1583.0</ele>
  <time>2026-08-28T17:53:28Z</time>
  <course>0.0</course>
  <speed>0.0</speed>
  <fix>3d</fix>
</trkpt>
<trkpt lat="40.0713718" lon="-105.229802">
  <ele>1580.8</ele>
  <time>2026-08-28T17:53:28Z</time>
  <course>17.02</course>
  <speed>2.0415925156602626</speed>
  <fix>3d</fix>
</trkpt>
<trkpt lat="40.0713749" lon="-105.229789">
  <ele>1583.0</ele>
  <time>2026-08-28T17:53:28Z</time>
  <course>0.0</course>
  <speed>0.0</speed>
  <fix>3d</fix>
</trkpt>
<trkpt lat="40.0713722" lon="-105.2298029">
  <ele>1580.81</ele>
  <time>2026-08-28T17:53:28Z</time>
  <course>17.23</course>
  <speed>2.102974084481309</speed>
  <fix>3d</fix>
</trkpt>
<trkpt lat="40.0713749" lon="-105.229789">
  <ele>1583.0</ele>
  <time>2026-08-28T17:53:28Z</time>
  <course>0.0</course>
  <speed>0.0</speed>
  <fix>3d</fix>
</trkpt>
<trkpt lat="40.0713728" lon="-105.2298032">
  <ele>1580.88</ele>
  <time>2026-08-28T17:53:28Z</time>
  <course>17.5</course>
  <speed>2.1077001684300356</speed>
  <fix>3d</fix>
</trkpt>
<trkpt lat="40.0713749" lon="-105.229789">
  <ele>1583.0</ele>
  <time>2026-08-28T17:53:28Z</time>
  <course>0.0</course>
  <speed>0.0</speed>
  <fix>3d</fix>
</trkpt>
<trkpt lat="40.0713733" lon="-105.229804">
  <ele>1580.88</ele>
  <time>2026-08-28T17:53:28Z</time>
  <course>17.74</course>
  <speed>2.1514878572745886</speed>
  <fix>3d</fix>
</trkpt>
<trkpt lat="40.0713749" lon="-105.229789">
  <ele>1583.0</ele>
  <time>2026-08-28T17:53:28Z</time>
  <course>0.0</course>
  <speed>0.0</speed>
  <fix>3d</fix>
</trkpt>
<trkpt lat="40.0713739" lon="-105.2298043">
  <ele>1580.95</ele>
  <time>2026-08-28T17:53:28Z</time>
  <course>18.02</course>
  <speed>2.1402102700435766</speed>
  <fix>3d</fix>
</trkpt>
<trkpt lat="40.0713749" lon="-105.229789">
  <ele>1583.0</ele>
  <time>2026-08-28T17:53:28Z</time>
  <course>0.0</course>
  <speed>0.0</speed>
  <fix>3d</fix>
</trkpt>
<trkpt lat="40.0713744" lon="-105.229805">
  <ele>1580.96</ele>
  <time>2026-08-28T17:53:28Z</time>
  <course>18.26</course>
  <speed>2.183300254202339</speed>
  <fix>3d</fix>
</trkpt>
<trkpt lat="40.0713749" lon="-105.229789">
  <ele>1583.0</ele>
  <time>2026-08-28T17:53:28Z</time>
  <course>0.0</course>
  <speed>0.0</speed>
  <fix>3d</fix>
</trkpt>
<trkpt lat="40.0713751" lon="-105.229805">
  <ele>1581.02</ele>
  <time>2026-08-28T17:53:28Z</time>
  <course>18.55</course>
  <speed>2.1622673285234644</speed>
  <fix>3d</fix>
</trkpt>
<trkpt lat="40.0713749" lon="-105.229789">
  <ele>1583.0</ele>
  <time>2026-08-28T17:53:28Z</time>
  <course>0.0</course>
  <speed>0.0</speed>
  <fix>3d</fix>
</trkpt>
<trkpt lat="40.0713757" lon="-105.2298056">
  <ele>1581.04</ele>
  <time>2026-08-28T17:53:28Z</time>
  <course>18.79</course>
  <speed>2.194948746554233</speed>
  <fix>3d</fix>
</trkpt>
<trkpt lat="40.0713749" lon="-105.229789">
  <ele>1583.0</ele>
  <time>2026-08-28T17:53:28Z</time>
  <course>0.0</course>
  <speed>0.0</speed>
  <fix>3d</fix>
</trkpt>
<trkpt lat="40.0713763" lon="-105.2298056">
  <ele>1581.1</ele>
  <time>2026-08-28T17:53:28Z</time>
  <course>19.09</course>
  <speed>2.171013588165675</speed>
  <fix>3d</fix>
</trkpt>
<trkpt lat="40.0713749" lon="-105.229789">
  <ele>1583.0</ele>
  <time>2026-08-28T17:53:28Z</time>
  <course>0.0</course>
  <speed>0.0</speed>
  <fix>3d</fix>
</trkpt>
<trkpt lat="40.0713769" lon="-105.229806">
  <ele>1581.11</ele>
  <time>2026-08-28T17:53:28Z</time>
  <course>19.33</course>
  <speed>2.1902054698132774</speed>
  <fix>3d</fix>
</trkpt>
<trkpt lat="40.0713749" lon="-105.229789">
  <ele>1583.0</ele>
  <time>2026-08-28T17:53:28Z</time>
  <course>0.0</course>
  <speed>0.0</speed>
  <fix>3d</fix>
</trkpt>
<trkpt lat="40.0713775" lon="-105.2298058">
  <ele>1581.17</ele>
  <time>2026-08-28T17:53:28Z</time>
  <course>19.62</course>
  <speed>2.155203006679417</speed>
  <fix>3d</fix>
</trkpt>
<trkpt lat="40.0713749" lon="-105.229789">
  <ele>1583.0</ele>
  <time>2026-08-28T17:53:28Z</time>
  <course>0.0</course>
  <speed>0.0</speed>
  <fix>3d</fix>
</trkpt>
<trkpt lat="40.0713781" lon="-105.2298061">
  <ele>1581.17</ele>
  <time>2026-08-28T17:53:28Z</time>
  <course>19.86</course>
  <speed>2.166217902243447</speed>
  <fix>3d</fix>
</trkpt>
<trkpt lat="40.0713749" lon="-105.229789">
  <ele>1583.0</ele>
  <time>2026-08-28T17:53:28Z</time>
  <course>0.0</course>
  <speed>0.0</speed>
  <fix>3d</fix>
</trkpt>
<trkpt lat="40.0713786" lon="-105.2298057">
  <ele>1581.22</ele>
  <time>2026-08-28T17:53:28Z</time>
  <course>20.14</course>
  <speed>2.1231344752511556</speed>
  <fix>3d</fix>
</trkpt>
<trkpt lat="40.0713749" lon="-105.229789">
  <ele>1583.0</ele>
  <time>2026-08-28T17:53:28Z</time>
  <course>0.0</course>
  <speed>0.0</speed>
  <fix>3d</fix>
</trkpt>
<trkpt lat="40.0713792" lon="-105.229806">
  <ele>1581.23</ele>
  <time>2026-08-28T17:53:28Z</time>
  <course>20.38</course>
  <speed>2.130023474049054</speed>
  <fix>3d</fix>
</trkpt>
<trkpt lat="40.0713749" lon="-105.229789">
  <ele>1583.0</ele>
  <time>2026-08-28T17:53:28Z</time>
  <course>0.0</course>
  <speed>0.0</speed>
  <fix>3d</fix>
</trkpt>
<trkpt lat="40.0713797" lon="-105.2298057">
  <ele>1581.26</ele>
  <time>2026-08-28T17:53:28Z</time>
  <course>20.62</course>
  <speed>2.0988091861815357</speed>
  <fix>3d</fix>
</trkpt>
<trkpt lat="40.0713749" lon="-105.229789">
  <ele>1583.0</ele>
  <time>2026-08-28T17:53:28Z</time>
  <course>0.0</course>
  <speed>0.0</speed>
  <fix>3d</fix>
</trkpt>
<trkpt lat="40.0713802" lon="-105.2298057">
  <ele>1581.27</ele>
  <time>2026-08-28T17:53:28Z</time>
  <course>20.85</course>
  <speed>2.088492279133442</speed>
  <fix>3d</fix>
</trkpt>
<trkpt lat="40.0713749" lon="-105.229789">
  <ele>1583.0</ele>
  <time>2026-08-28T17:53:28Z</time>
  <course>0.0</course>
  <speed>0.0</speed>
  <fix>3d</fix>
</trkpt>
<trkpt lat="40.0713806" lon="-105.2298052">
  <ele>1581.3</ele>
  <time>2026-08-28T17:53:28Z</time>
  <course>21.1</course>
  <speed>2.0359273071502333</speed>
  <fix>3d</fix>
</trkpt>
<trkpt lat="40.0713749" lon="-105.229789">
  <ele>1583.0</ele>
  <time>2026-08-28T17:53:28Z</time>
  <course>0.0</course>
  <speed>0.0</speed>
  <fix>3d</fix>
</trkpt>
<trkpt lat="40.0713811" lon="-105.2298051">
  <ele>1581.32</ele>
  <time>2026-08-28T17:53:28Z</time>
  <course>21.34</course>
  <speed>2.0255616505058542</speed>
  <fix>3d</fix>
</trkpt>
<trkpt lat="40.0713749" lon="-105.229789">
  <ele>1583.0</ele>
  <time>2026-08-28T17:53:28Z</time>
  <course>0.0</course>
  <speed>0.0</speed>
  <fix>3d</fix>
</trkpt>
<trkpt lat="40.0713814" lon="-105.2298046">
  <ele>1581.35</ele>
  <time>2026-08-28T17:53:28Z</time>
  <course>21.59</course>
  <speed>1.9726631744927972</speed>
  <fix>3d</fix>
</trkpt>
<trkpt lat="40.0713749" lon="-105.229789">
  <ele>1583.0</ele>
  <time>2026-08-28T17:53:28Z</time>
  <course>0.0</course>
  <speed>0.0</speed>
  <fix>3d</fix>
</trkpt>
<trkpt lat="40.0713818" lon="-105.2298044">
  <ele>1581.36</ele>
  <time>2026-08-28T17:53:28Z</time>
  <course>21.81</course>
  <speed>1.9525624189766637</speed>
  <fix>3d</fix>
</trkpt>
<trkpt lat="40.0713749" lon="-105.229789">
  <ele>1583.0</ele>
  <time>2026-08-28T17:53:28Z</time>
  <course>0.0</course>
  <speed>0.0</speed>
  <fix>3d</fix>
</trkpt>
<trkpt lat="40.0713821" lon="-105.2298037">
  <ele>1581.39</ele>
  <time>2026-08-28T17:53:28Z</time>
  <course>22.04</course>
  <speed>1.8961276328348786</speed>
  <fix>3d</fix>
</trkpt>
<trkpt lat="40.0713749" lon="-105.229789">
  <ele>1583.0</ele>
  <time>2026-08-28T17:53:28Z</time>
  <course>0.0</course>
  <speed>0.0</speed>
  <fix>3d</fix>
</trkpt>
<trkpt lat="40.0713825" lon="-105.2298035">
  <ele>1581.39</ele>
  <time>2026-08-28T17:53:28Z</time>
  <course>22.25</course>
  <speed>1.8742731924668825</speed>
  <fix>3d</fix>
</trkpt>
<trkpt lat="40.0713749" lon="-105.229789">
  <ele>1583.0</ele>
  <time>2026-08-28T17:53:28Z</time>
  <course>0.0</course>
  <speed>0.0</speed>
  <fix>3d</fix>
</trkpt>
<trkpt lat="40.0713826" lon="-105.2298026">
  <ele>1581.43</ele>
  <time>2026-08-28T17:53:28Z</time>
  <course>22.49</course>
  <speed>1.8104419349981926</speed>
  <fix>3d</fix>
</trkpt>
<trkpt lat="40.0713749" lon="-105.229789">
  <ele>1583.0</ele>
  <time>2026-08-28T17:53:28Z</time>
  <course>0.0</course>
  <speed>0.0</speed>
  <fix>3d</fix>
</trkpt>
<trkpt lat="40.0713829" lon="-105.2298024">
  <ele>1581.43</ele>
  <time>2026-08-28T17:53:28Z</time>
  <course>22.68</course>
  <speed>1.7921216476567656</speed>
  <fix>3d</fix>
</trkpt>
<trkpt lat="40.0713749" lon="-105.229789">
  <ele>1583.0</ele>
  <time>2026-08-28T17:53:28Z</time>
  <course>0.0</course>
  <speed>0.0</speed>
  <fix>3d</fix>
</trkpt>
<trkpt lat="40.071383" lon="-105.2298016">
  <ele>1581.45</ele>
  <time>2026-08-28T17:53:28Z</time>
  <course>22.89</course>
  <speed>1.7258621034138273</speed>
  <fix>3d</fix>
</trkpt>
<trkpt lat="40.0713749" lon="-105.229789">
  <ele>1583.0</ele>
  <time>2026-08-28T17:53:28Z</time>
  <course>0.0</course>
  <speed>0.0</speed>
  <fix>3d</fix>
</trkpt>
<trkpt lat="40.0713833" lon="-105.2298013">
  <ele>1581.45</ele>
  <time>2026-08-28T17:53:28Z</time>
  <course>23.05</course>
  <speed>1.7041420128616043</speed>
  <fix>3d</fix>
</trkpt>
<trkpt lat="40.0713749" lon="-105.229789">
  <ele>1583.0</ele>
  <time>2026-08-28T17:53:28Z</time>
  <course>0.0</course>
  <speed>0.0</speed>
  <fix>3d</fix>
</trkpt>
<trkpt lat="40.0713834" lon="-105.2298005">
  <ele>1581.47</ele>
  <time>2026-08-28T17:53:28Z</time>
  <course>23.24</course>
  <speed>1.6420109622045769</speed>
  <fix>3d</fix>
</trkpt>
<trkpt lat="40.0713749" lon="-105.229789">
  <ele>1583.0</ele>
  <time>2026-08-28T17:53:28Z</time>
  <course>0.0</course>
  <speed>0.0</speed>
  <fix>3d</fix>
</trkpt>
<trkpt lat="40.0713837" lon="-105.2298002">
  <ele>1581.47</ele>
  <time>2026-08-28T17:53:28Z</time>
  <course>23.39</course>
  <speed>1.623730273167314</speed>
  <fix>3d</fix>
</trkpt>
<trkpt lat="40.0713749" lon="-105.229789">
  <ele>1583.0</ele>
  <time>2026-08-28T17:53:28Z</time>
  <course>0.0</course>
  <speed>0.0</speed>
  <fix>3d</fix>
</trkpt>
<trkpt lat="40.0713837" lon="-105.2297995">
  <ele>1581.49</ele>
  <time>2026-08-28T17:53:28Z</time>
  <course>23.57</course>
  <speed>1.5726728839781017</speed>
  <fix>3d</fix>
</trkpt>
<trkpt lat="40.0713749" lon="-105.229789">
  <ele>1583.0</ele>
  <time>2026-08-28T17:53:28Z</time>
  <course>0.0</course>
  <speed>0.0</speed>
  <fix>3d</fix>
</trkpt>
<trkpt lat="40.0713839" lon="-105.2297992">
  <ele>1581.49</ele>
  <time>2026-08-28T17:53:28Z</time>
  <course>23.71</course>
  <speed>1.55</speed>
  <fix>3d</fix>
</trkpt>
<trkpt lat="40.0713749" lon="-105.229789">
  <ele>1583.0</ele>
  <time>2026-08-28T17:53:28Z</time>
  <course>0.0</course>
  <speed>0.0</speed>
  <fix>3d</fix>
</trkpt>
<trkpt lat="40.0713839" lon="-105.2297984">
  <ele>1581.51</ele>
  <time>2026-08-28T17:53:28Z</time>
  <course>23.87</course>
  <speed>1.495125412799876</speed>
  <fix>3d</fix>
</trkpt>
<trkpt lat="40.0713749" lon="-105.229789">
  <ele>1583.0</ele>
  <time>2026-08-28T17:53:28Z</time>
  <course>0.0</course>
  <speed>0.0</speed>
  <fix>3d</fix>
</trkpt>
<trkpt lat="40.0713841" lon="-105.2297981">
  <ele>1581.51</ele>
  <time>2026-08-28T17:53:28Z</time>
  <course>24.0</course>
  <speed>1.4756693396557372</speed>
  <fix>3d</fix>
</trkpt>
<trkpt lat="40.0713749" lon="-105.229789">
  <ele>1583.0</ele>
  <time>2026-08-28T17:53:28Z</time>
  <course>0.0</course>
  <speed>0.0</speed>
  <fix>3d</fix>
</trkpt>
<trkpt lat="40.071384" lon="-105.2297974">
  <ele>1581.53</ele>
  <time>2026-08-28T17:53:28Z</time>
  <course>24.14</course>
  <speed>1.430314650697531</speed>
  <fix>3d</fix>
</trkpt>
<trkpt lat="40.0713749" lon="-105.229789">
  <ele>1583.0</ele>
  <time>2026-08-28T17:53:28Z</time>
  <course>0.0</course>
  <speed>0.0</speed>
  <fix>3d</fix>
</trkpt>
<trkpt lat="40.0713843" lon="-105.2297972">
  <ele>1581.53</ele>
  <time>2026-08-28T17:53:28Z</time>
  <course>24.25</course>
  <speed>1.4142135623730951</speed>
  <fix>3d</fix>
</trkpt>
<trkpt lat="40.0713749" lon="-105.229789">
  <ele>1583.0</ele>
  <time>2026-08-28T17:53:28Z</time>
  <course>0.0</course>
  <speed>0.0</speed>
  <fix>3d</fix>
</trkpt>
<trkpt lat="40.0713841" lon="-105.2297964">
  <ele>1581.55</ele>
  <time>2026-08-28T17:53:28Z</time>
  <course>24.38</course>
  <speed>1.3640014662748718</speed>
  <fix>3d</fix>
</trkpt>
<trkpt lat="40.0713749" lon="-105.229789">
  <ele>1583.0</ele>
  <time>2026-08-28T17:53:28Z</time>
  <course>0.0</course>
  <speed>0.0</speed>
  <fix>3d</fix>
</trkpt>
<trkpt lat="40.0713843" lon="-105.2297961">
  <ele>1581.55</ele>
  <time>2026-08-28T17:53:28Z</time>
  <course>24.48</course>
  <speed>1.3514806694880988</speed>
  <fix>3d</fix>
</trkpt>
<trkpt lat="40.0713749" lon="-105.229789">
  <ele>1583.0</ele>
  <time>2026-08-28T17:53:28Z</time>
  <course>0.0</course>
  <speed>0.0</speed>
  <fix>3d</fix>
</trkpt>
<trkpt lat="40.0713843" lon="-105.2297955">
  <ele>1581.56</ele>
  <time>2026-08-28T17:53:28Z</time>
  <course>24.57</course>
  <speed>1.3184839779079607</speed>
  <fix>3d</fix>
</trkpt>
<trkpt lat="40.0713749" lon="-105.229789">
  <ele>1583.0</ele>
  <time>2026-08-28T17:53:28Z</time>
  <course>0.0</course>
  <speed>0.0</speed>
  <fix>3d</fix>
</trkpt>
<trkpt lat="40.0713844" lon="-105.2297952">
  <ele>1581.56</ele>
  <time>2026-08-28T17:53:28Z</time>
  <course>24.66</course>
  <speed>1.3038404810405297</speed>
  <fix>3d</fix>
</trkpt>
<trkpt lat="40.0713749" lon="-105.229789">
  <ele>1583.0</ele>
  <time>2026-08-28T17:53:28Z</time>
  <course>0.0</course>
  <speed>0.0</speed>
  <fix>3d</fix>
</trkpt>
<trkpt lat="40.0713843" lon="-105.2297946">
  <ele>1581.57</ele>
  <time>2026-08-28T17:53:28Z</time>
  <course>24.74</course>
  <speed>1.274401820463232</speed>
  <fix>3d</fix>
</trkpt>
<trkpt lat="40.0713749" lon="-105.229789">
  <ele>1583.0</ele>
  <time>2026-08-28T17:53:28Z</time>
  <course>0.0</course>
  <speed>0.0</speed>
  <fix>3d</fix>
</trkpt>
<trkpt lat="40.0713844" lon="-105.2297942">
  <ele>1581.56</ele>
  <time>2026-08-28T17:53:28Z</time>
  <course>24.81</course>
  <speed>1.2596031120952345</speed>
  <fix>3d</fix>
</trkpt>
<trkpt lat="40.0713749" lon="-105.229789">
  <ele>1583.0</ele>
  <time>2026-08-28T17:53:28Z</time>
  <course>0.0</course>
  <speed>0.0</speed>
  <fix>3d</fix>
</trkpt>
<trkpt lat="40.0713843" lon="-105.2297936">
  <ele>1581.56</ele>
  <time>2026-08-28T17:53:28Z</time>
  <course>24.88</course>
  <speed>1.2248265183282079</speed>
  <fix>3d</fix>
</trkpt>
<trkpt lat="40.0713749" lon="-105.229789">
  <ele>1583.0</ele>
  <time>2026-08-28T17:53:28Z</time>
  <course>0.0</course>
  <speed>0.0</speed>
  <fix>3d</fix>
</trkpt>
<trkpt lat="40.0713844" lon="-105.2297932">
  <ele>1581.54</ele>
  <time>2026-08-28T17:53:28Z</time>
  <course>24.94</course>
  <speed>1.2159769734661918</speed>
  <fix>3d</fix>
</trkpt>
<trkpt lat="40.0713749" lon="-105.229789">
  <ele>1583.0</ele>
  <time>2026-08-28T17:53:28Z</time>
  <course>0.0</course>
  <speed>0.0</speed>
  <fix>3d</fix>
</trkpt>
<trkpt lat="40.0713842" lon="-105.2297926">
  <ele>1581.54</ele>
  <time>2026-08-28T17:53:28Z</time>
  <course>25.0</course>
  <speed>1.175457357797381</speed>
  <fix>3d</fix>
</trkpt>
<trkpt lat="40.0713749" lon="-105.229789">
  <ele>1583.0</ele>
  <time>2026-08-28T17:53:28Z</time>
  <course>0.0</course>
  <speed>0.0</speed>
  <fix>3d</fix>
</trkpt>
<trkpt lat="40.0713843" lon="-105.2297923">
  <ele>1581.53</ele>
  <time>2026-08-28T17:53:28Z</time>
  <course>25.05</course>
  <speed>1.1696580696938743</speed>
  <fix>3d</fix>
</trkpt>
<trkpt lat="40.0713749" lon="-105.229789">
  <ele>1583.0</ele>
  <time>2026-08-28T17:53:28Z</time>
  <course>0.0</course>
  <speed>0.0</speed>
  <fix>3d</fix>
</trkpt>
<trkpt lat="40.071384" lon="-105.2297917">
  <ele>1581.54</ele>
  <time>2026-08-28T17:53:28Z</time>
  <course>25.09</course>
  <speed>1.1443775600735975</speed>
  <fix>3d</fix>
</trkpt>
<trkpt lat="40.0713749" lon="-105.229789">
  <ele>1583.0</ele>
  <time>2026-08-28T17:53:28Z</time>
  <course>0.0</course>
  <speed>0.0</speed>
  <fix>3d</fix>
</trkpt>
<trkpt lat="40.0713841" lon="-105.2297914">
  <ele>1581.52</ele>
  <time>2026-08-28T17:53:28Z</time>
  <course>25.13</course>
  <speed>1.1415778554264269</speed>
  <fix>3d</fix>
</trkpt>
<trkpt lat="40.0713749" lon="-105.229789">
  <ele>1583.0</ele>
  <time>2026-08-28T17:53:28Z</time>
  <course>0.0</course>
  <speed>0.0</speed>
  <fix>3d</fix>
</trkpt>
<trkpt lat="40.0713839" lon="-105.2297909">
  <ele>1581.52</ele>
  <time>2026-08-28T17:53:28Z</time>
  <course>25.16</course>
  <speed>1.1201785571952356</speed>
  <fix>3d</fix>
</trkpt>
<trkpt lat="40.0713749" lon="-105.229789">
  <ele>1583.0</ele>
  <time>2026-08-28T17:53:28Z</time>
  <course>0.0</course>
  <speed>0.0</speed>
  <fix>3d</fix>
</trkpt>
<trkpt lat="40.071384" lon="-105.2297905">
  <ele>1581.5</ele>
  <time>2026-08-28T17:53:28Z</time>
  <course>25.18</course>
  <speed>1.120044641967453</speed>
  <fix>3d</fix>
</trkpt>
<trkpt lat="40.0713749" lon="-105.229789">
  <ele>1583.0</ele>
  <time>2026-08-28T17:53:28Z</time>
  <course>0.0</course>
  <speed>0.0</speed>
  <fix>3d</fix>
</trkpt>
<trkpt lat="40.0713838" lon="-105.2297901">
  <ele>1581.5</ele>
  <time>2026-08-28T17:53:28Z</time>
  <course>25.2</course>
  <speed>1.091146186356347</speed>
  <fix>3d</fix>
</trkpt>
<trkpt lat="40.0713749" lon="-105.229789">
  <ele>1583.0</ele>
  <time>2026-08-28T17:53:28Z</time>
  <course>0.0</course>
  <speed>0.0</speed>
  <fix>3d</fix>
</trkpt>
<trkpt lat="40.0713839" lon="-105.2297898">
  <ele>1581.48</ele>
  <time>2026-08-28T17:53:28Z</time>
  <course>25.21</course>
  <speed>1.092931836849856</speed>
  <fix>3d</fix>
</trkpt>
<trkpt lat="40.0713749" lon="-105.229789">
  <ele>1583.0</ele>
  <time>2026-08-28T17:53:28Z</time>
  <course>0.0</course>
  <speed>0.0</speed>
  <fix>3d</fix>
</trkpt>
<trkpt lat="40.0713837" lon="-105.2297894">
  <ele>1581.48</ele>
  <time>2026-08-28T17:53:28Z</time>
  <course>25.22</course>
  <speed>1.0767079455451232</speed>
  <fix>3d</fix>
</trkpt>
<trkpt lat="40.0713749" lon="-105.229789">
  <ele>1583.0</ele>
  <time>2026-08-28T17:53:28Z</time>
  <course>0.0</course>
  <speed>0.0</speed>
  <fix>3d</fix>
</trkpt>
<trkpt lat="40.0713837" lon="-105.229789">
  <ele>1581.45</ele>
  <time>2026-08-28T17:53:28Z</time>
  <course>25.22</course>
  <speed>1.0705606008068858</speed>
  <fix>3d</fix>
</trkpt>
<trkpt lat="40.0713749" lon="-105.229789">
  <ele>1583.0</ele>
  <time>2026-08-28T17:53:28Z</time>
  <course>0.0</course>
  <speed>0.0</speed>
  <fix>3d</fix>
</trkpt>
<trkpt lat="40.0713835" lon="-105.2297887">
  <ele>1581.44</ele>
  <time>2026-08-28T17:53:28Z</time>
  <course>25.22</course>
  <speed>1.0572133181151286</speed>
  <fix>3d</fix>
</trkpt>
<trkpt lat="40.0713749" lon="-105.229789">
  <ele>1583.0</ele>
  <time>2026-08-28T17:53:28Z</time>
  <course>0.0</course>
  <speed>0.0</speed>
  <fix>3d</fix>
</trkpt>
<trkpt lat="40.0713836" lon="-105.2297884">
  <ele>1581.41</ele>
  <time>2026-08-28T17:53:28Z</time>
  <course>25.22</course>
  <speed>1.0532331175955303</speed>
  <fix>3d</fix>
</trkpt>
<trkpt lat="40.0713749" lon="-105.229789">
  <ele>1583.0</ele>
  <time>2026-08-28T17:53:28Z</time>
  <course>0.0</course>
  <speed>0.0</speed>
  <fix>3d</fix>
</trkpt>
<trkpt lat="40.0713833" lon="-105.229788">
  <ele>1581.4</ele>
  <time>2026-08-28T17:53:28Z</time>
  <course>25.21</course>
  <speed>1.0404806581575652</speed>
  <fix>3d</fix>
</trkpt>
<trkpt lat="40.0713749" lon="-105.229789">
  <ele>1583.0</ele>
  <time>2026-08-28T17:53:28Z</time>
  <course>0.0</course>
  <speed>0.0</speed>
  <fix>3d</fix>
</trkpt>
<trkpt lat="40.0713834" lon="-105.2297878">
  <ele>1581.38</ele>
  <time>2026-08-28T17:53:28Z</time>
  <course>25.2</course>
  <speed>1.0384603988597736</speed>
  <fix>3d</fix>
</trkpt>
<trkpt lat="40.0713749" lon="-105.229789">
  <ele>1583.0</ele>
  <time>2026-08-28T17:53:28Z</time>
  <course>0.0</course>
  <speed>0.0</speed>
  <fix>3d</fix>
</trkpt>
<trkpt lat="40.0713832" lon="-105.2297875">
  <ele>1581.36</ele>
  <time>2026-08-28T17:53:28Z</time>
  <course>25.18</course>
  <speed>1.0248902380255165</speed>
  <fix>3d</fix>
</trkpt>
<trkpt lat="40.0713749" lon="-105.229789">
  <ele>1583.0</ele>
  <time>2026-08-28T17:53:28Z</time>
  <course>0.0</course>
  <speed>0.0</speed>
  <fix>3d</fix>
</trkpt>
<trkpt lat="40.0713832" lon="-105.2297872">
  <ele>1581.33</ele>
  <time>2026-08-28T17:53:28Z</time>
  <course>25.17</course>
  <speed>1.0245974819410792</speed>
  <fix>3d</fix>
</trkpt>
<trkpt lat="40.0713749" lon="-105.229789">
  <ele>1583.0</ele>
  <time>2026-08-28T17:53:28Z</time>
  <course>0.0</course>
  <speed>0.0</speed>
  <fix>3d</fix>
</trkpt>
<trkpt lat="40.071383" lon="-105.2297869">
  <ele>1581.33</ele>
  <time>2026-08-28T17:53:28Z</time>
  <course>25.15</course>
  <speed>1.0159232254457027</speed>
  <fix>3d</fix>
</trkpt>
<trkpt lat="40.0713749" lon="-105.229789">
  <ele>1583.0</ele>
  <time>2026-08-28T17:53:28Z</time>
  <course>0.0</course>
  <speed>0.0</speed>
  <fix>3d</fix>
</trkpt>
<trkpt lat="40.071383" lon="-105.2297866">
  <ele>1581.31</ele>
  <time>2026-08-28T17:53:28Z</time>
  <course>25.13</course>
  <speed>1.0046392387319938</speed>
  <fix>3d</fix>
</trkpt>
<trkpt lat="40.0713749" lon="-105.229789">
  <ele>1583.0</ele>
  <time>2026-08-28T17:53:28Z</time>
  <course>0.0</course>
  <speed>0.0</speed>
  <fix>3d</fix>
</trkpt>
<trkpt lat="40.0713828" lon="-105.2297864">
  <ele>1581.31</ele>
  <time>2026-08-28T17:53:28Z</time>
  <course>25.11</course>
  <speed>0.9940321926376429</speed>
  <fix>3d</fix>
</trkpt>
<trkpt lat="40.0713749" lon="-105.229789">
  <ele>1583.0</ele>
  <time>2026-08-28T17:53:28Z</time>
  <course>0.0</course>
  <speed>0.0</speed>
  <fix>3d</fix>
</trkpt>
<trkpt lat="40.0713827" lon="-105.2297861">
  <ele>1581.3</ele>
  <time>2026-08-28T17:53:28Z</time>
  <course>25.09</course>
  <speed>0.9884331034521254</speed>
  <fix>3d</fix>
</trkpt>
<trkpt lat="40.0713749" lon="-105.229789">
  <ele>1583.0</ele>
  <time>2026-08-28T17:53:28Z</time>
  <course>0.0</course>
  <speed>0.0</speed>
  <fix>3d</fix>
</trkpt>
<trkpt lat="40.0713825" lon="-105.2297859">
  <ele>1581.29</ele>
  <time>2026-08-28T17:53:28Z</time>
  <course>25.07</course>
  <speed>0.9749358953285082</speed>
  <fix>3d</fix>
</trkpt>
<trkpt lat="40.0713749" lon="-105.229789">
  <ele>1583.0</ele>
  <time>2026-08-28T17:53:28Z</time>
  <course>0.0</course>
  <speed>0.0</speed>
  <fix>3d</fix>
</trkpt>
<trkpt lat="40.0713824" lon="-105.2297857">
  <ele>1581.28</ele>
  <time>2026-08-28T17:53:28Z</time>
  <course>25.05</course>
  <speed>0.9712878049270464</speed>
  <fix>3d</fix>
</trkpt>
<trkpt lat="40.0713749" lon="-105.229789">
  <ele>1583.0</ele>
  <time>2026-08-28T17:53:28Z</time>
  <course>0.0</course>
  <speed>0.0</speed>
  <fix>3d</fix>
</trkpt>
<trkpt lat="40.0713821" lon="-105.2297855">
  <ele>1581.29</ele>
  <time>2026-08-28T17:53:28Z</time>
  <course>25.02</course>
  <speed>0.9501578816175763</speed>
  <fix>3d</fix>
</trkpt>
<trkpt lat="40.0713749" lon="-105.229789">
  <ele>1583.0</ele>
  <time>2026-08-28T17:53:28Z</time>
  <course>0.0</course>
  <speed>0.0</speed>
  <fix>3d</fix>
</trkpt>
<trkpt lat="40.071382" lon="-105.2297853">
  <ele>1581.28</ele>
  <time>2026-08-28T17:53:28Z</time>
  <course>25.0</course>
  <speed>0.951892851112981</speed>
  <fix>3d</fix>
</trkpt>
<trkpt lat="40.0713749" lon="-105.229789">
  <ele>1583.0</ele>
  <time>2026-08-28T17:53:28Z</time>
  <course>0.0</course>
  <speed>0.0</speed>
  <fix>3d</fix>
</trkpt>
<trkpt lat="40.0713818" lon="-105.2297851">
  <ele>1581.28</ele>
  <time>2026-08-28T17:53:28Z</time>
  <course>24.98</course>
  <speed>0.9235799911215054</speed>
  <fix>3d</fix>
</trkpt>
<trkpt lat="40.0713749" lon="-105.229789">
  <ele>1583.0</ele>
  <time>2026-08-28T17:53:28Z</time>
  <course>0.0</course>
  <speed>0.0</speed>
  <fix>3d</fix>
</trkpt>
<trkpt lat="40.0713818" lon="-105.2297849">
  <ele>1581.27</ele>
  <time>2026-08-28T17:53:28Z</time>
  <course>24.96</course>
  <speed>0.9265527507918802</speed>
  <fix>3d</fix>
</trkpt>
<trkpt lat="40.0713749" lon="-105.229789">
  <ele>1583.0</ele>
  <time>2026-08-28T17:53:28Z</time>
  <course>0.0</course>
  <speed>0.0</speed>
  <fix>3d</fix>
</trkpt>
<trkpt lat="40.0713815" lon="-105.2297848">
  <ele>1581.27</ele>
  <time>2026-08-28T17:53:29Z</time>
  <course>24.93</course>
  <speed>0.9080198235721508</speed>
  <fix>3d</fix>
</trkpt>
<trkpt lat="40.0713749" lon="-105.229789">
  <ele>1583.0</ele>
  <time>2026-08-28T17:53:29Z</time>
  <course>0.0</course>
  <speed>0.0</speed>
  <fix>3d</fix>
</trkpt>
<trkpt lat="40.0713814" lon="-105.2297845">
  <ele>1581.25</ele>
  <time>2026-08-28T17:53:29Z</time>
  <course>24.91</course>
  <speed>0.9121403400793103</speed>
  <fix>3d</fix>
</trkpt>
<trkpt lat="40.0713749" lon="-105.229789">
  <ele>1583.0</ele>
  <time>2026-08-28T17:53:29Z</time>
  <course>0.0</course>
  <speed>0.0</speed>
  <fix>3d</fix>
</trkpt>
<trkpt lat="40.071381" lon="-105.2297844">
  <ele>1581.25</ele>
  <time>2026-08-28T17:53:29Z</time>
  <course>24.88</course>
  <speed>0.8937561188601733</speed>
  <fix>3d</fix>
</trkpt>
<trkpt lat="40.0713749" lon="-105.229789">
  <ele>1583.0</ele>
  <time>2026-08-28T17:53:29Z</time>
  <course>0.0</course>
  <speed>0.0</speed>
  <fix>3d</fix>
</trkpt>
<trkpt lat="40.071381" lon="-105.2297842">
  <ele>1581.23</ele>
  <time>2026-08-28T17:53:29Z</time>
  <course>24.85</course>
  <speed>0.899388681271896</speed>
  <fix>3d</fix>
</trkpt>
<trkpt lat="40.0713749" lon="-105.229789">
  <ele>1583.0</ele>
  <time>2026-08-28T17:53:29Z</time>
  <course>0.0</course>
  <speed>0.0</speed>
  <fix>3d</fix>
</trkpt>
<trkpt lat="40.0713807" lon="-105.2297841">
  <ele>1581.23</ele>
  <time>2026-08-28T17:53:29Z</time>
  <course>24.82</course>
  <speed>0.87692645073575</speed>
  <fix>3d</fix>
</trkpt>
<trkpt lat="40.0713749" lon="-105.229789">
  <ele>1583.0</ele>
  <time>2026-08-28T17:53:29Z</time>
  <course>0.0</course>
  <speed>0.0</speed>
  <fix>3d</fix>
</trkpt>
<trkpt lat="40.0713806" lon="-105.2297839">
  <ele>1581.22</ele>
  <time>2026-08-28T17:53:29Z</time>
  <course>24.79</course>
  <speed>0.883911760301898</speed>
  <fix>3d</fix>
</trkpt>
<trkpt lat="40.0713749" lon="-105.229789">
  <ele>1583.0</ele>
  <time>2026-08-28T17:53:29Z</time>
  <course>0.0</course>
  <speed>0.0</speed>
  <fix>3d</fix>
</trkpt>
<trkpt lat="40.0713803" lon="-105.2297838">
  <ele>1581.23</ele>
  <time>2026-08-28T17:53:29Z</time>
  <course>24.75</course>
  <speed>0.8637129152675673</speed>
  <fix>3d</fix>
</trkpt>
<trkpt lat="40.0713749" lon="-105.229789">
  <ele>1583.0</ele>
  <time>2026-08-28T17:53:29Z</time>
  <course>0.0</course>
  <speed>0.0</speed>
  <fix>3d</fix>
</trkpt>
<trkpt lat="40.0713802" lon="-105.2297835">
  <ele>1581.22</ele>
  <time>2026-08-28T17:53:29Z</time>
  <course>24.72</course>
  <speed>0.873212459828649</speed>
  <fix>3d</fix>
</trkpt>
<trkpt lat="40.0713749" lon="-105.229789">
  <ele>1583.0</ele>
  <time>2026-08-28T17:53:29Z</time>
  <course>0.0</course>
  <speed>0.0</speed>
  <fix>3d</fix>
</trkpt>
<trkpt lat="40.0713799" lon="-105.2297834">
  <ele>1581.24</ele>
  <time>2026-08-28T17:53:29Z</time>
  <course>24.68</course>
  <speed>0.8621484790916237</speed>
  <fix>3d</fix>
</trkpt>
<trkpt lat="40.0713749" lon="-105.229789">
  <ele>1583.0</ele>
  <time>2026-08-28T17:53:29Z</time>
  <course>0.0</course>
  <speed>0.0</speed>
  <fix>3d</fix>
</trkpt>
<trkpt lat="40.0713798" lon="-105.2297832">
  <ele>1581.25</ele>
  <time>2026-08-28T17:53:29Z</time>
  <course>24.64</course>
  <speed>0.866083136886985</speed>
  <fix>3d</fix>
</trkpt>
<trkpt lat="40.0713749" lon="-105.229789">
  <ele>1583.0</ele>
  <time>2026-08-28T17:53:29Z</time>
  <course>0.0</course>
  <speed>0.0</speed>
  <fix>3d</fix>
</trkpt>
<trkpt lat="40.0713796" lon="-105.229783">
  <ele>1581.27</ele>
  <time>2026-08-28T17:53:29Z</time>
  <course>24.59</course>
  <speed>0.8653323061113575</speed>
  <fix>3d</fix>
</trkpt>
<trkpt lat="40.0713749" lon="-105.229789">
  <ele>1583.0</ele>
  <time>2026-08-28T17:53:29Z</time>
  <course>0.0</course>
  <speed>0.0</speed>
  <fix>3d</fix>
</trkpt>
<trkpt lat="40.0713795" lon="-105.2297828">
  <ele>1581.3</ele>
  <time>2026-08-28T17:53:29Z</time>
  <course>24.55</course>
  <speed>0.866083136886985</speed>
  <fix>3d</fix>
</trkpt>
<trkpt lat="40.0713749" lon="-105.229789">
  <ele>1583.0</ele>
  <time>2026-08-28T17:53:29Z</time>
  <course>0.0</course>
  <speed>0.0</speed>
  <fix>3d</fix>
</trkpt>
<trkpt lat="40.0713791" lon="-105.2297826">
  <ele>1581.35</ele>
  <time>2026-08-28T17:53:29Z</time>
  <course>24.5</course>
  <speed>0.8683317338436964</speed>
  <fix>3d</fix>
</trkpt>
<trkpt lat="40.0713749" lon="-105.229789">
  <ele>1583.0</ele>
  <time>2026-08-28T17:53:29Z</time>
  <course>0.0</course>
  <speed>0.0</speed>
  <fix>3d</fix>
</trkpt>
<trkpt lat="40.0713789" lon="-105.2297824">
  <ele>1581.39</ele>
  <time>2026-08-28T17:53:29Z</time>
  <course>24.42</course>
  <speed>0.8635392289873113</speed>
  <fix>3d</fix>
</trkpt>
<trkpt lat="40.0713749" lon="-105.229789">
  <ele>1583.0</ele>
  <time>2026-08-28T17:53:29Z</time>
  <course>0.0</course>
  <speed>0.0</speed>
  <fix>3d</fix>
</trkpt>
<trkpt lat="40.0713786" lon="-105.2297823">
  <ele>1581.44</ele>
  <time>2026-08-28T17:53:29Z</time>
  <course>355.39</course>
  <speed>0.7960527620704547</speed>
  <fix>3d</fix>
</trkpt>
<trkpt lat="40.0713749" lon="-105.229789">
  <ele>1583.0</ele>
  <time>2026-08-28T17:53:29Z</time>
  <course>0.0</course>
  <speed>0.0</speed>
  <fix>3d</fix>
</trkpt>
<trkpt lat="40.0713785" lon="-105.2297822">
  <ele>1581.48</ele>
  <time>2026-08-28T17:53:29Z</time>
  <course>339.58</course>
  <speed>0.7021395872616784</speed>
  <fix>3d</fix>
</trkpt>
<trkpt lat="40.0713749" lon="-105.229789">
  <ele>1583.0</ele>
  <time>2026-08-28T17:53:29Z</time>
  <course>0.0</course>
  <speed>0.0</speed>
  <fix>3d</fix>
</trkpt>
<trkpt lat="40.071378" lon="-105.2297823">
  <ele>1581.53</ele>
  <time>2026-08-28T17:53:29Z</time>
  <course>327.64</course>
  <speed>0.64</speed>
  <fix>3d</fix>
</trkpt>
<trkpt lat="40.0713749" lon="-105.229789">
  <ele>1583.0</ele>
  <time>2026-08-28T17:53:29Z</time>
  <course>0.0</course>
  <speed>0.0</speed>
  <fix>3d</fix>
</trkpt>
<trkpt lat="40.0713774" lon="-105.2297823">
  <ele>1581.56</ele>
  <time>2026-08-28T17:53:29Z</time>
  <course>317.81</course>
  <speed>0.648459713474939</speed>
  <fix>3d</fix>
</trkpt>
<trkpt lat="40.0713749" lon="-105.229789">
  <ele>1583.0</ele>
  <time>2026-08-28T17:53:29Z</time>
  <course>0.0</course>
  <speed>0.0</speed>
  <fix>3d</fix>
</trkpt>
<trkpt lat="40.0713766" lon="-105.2297825">
  <ele>1581.6</ele>
  <time>2026-08-28T17:53:29Z</time>
  <course>310.36</course>
  <speed>0.7402702209328699</speed>
  <fix>3d</fix>
</trkpt>
<trkpt lat="40.0713749" lon="-105.229789">
  <ele>1583.0</ele>
  <time>2026-08-28T17:53:29Z</time>
  <course>0.0</course>
  <speed>0.0</speed>
  <fix>3d</fix>
</trkpt>
<trkpt lat="40.0713758" lon="-105.2297824">
  <ele>1581.62</ele>
  <time>2026-08-28T17:53:29Z</time>
  <course>305.16</course>
  <speed>0.8886506625215557</speed>
  <fix>3d</fix>
</trkpt>
<trkpt lat="40.0713749" lon="-105.229789">
  <ele>1583.0</ele>
  <time>2026-08-28T17:53:29Z</time>
  <course>0.0</course>
  <speed>0.0</speed>
  <fix>3d</fix>
</trkpt>
<trkpt lat="40.0713748" lon="-105.2297826">
  <ele>1581.66</ele>
  <time>2026-08-28T17:53:29Z</time>
  <course>301.86</course>
  <speed>1.0617438485811914</speed>
  <fix>3d</fix>
</trkpt>
<trkpt lat="40.0713749" lon="-105.229789">
  <ele>1583.0</ele>
  <time>2026-08-28T17:53:29Z</time>
  <course>0.0</course>
  <speed>0.0</speed>
  <fix>3d</fix>
</trkpt>
<trkpt lat="40.0713737" lon="-105.2297827">
  <ele>1581.68</ele>
  <time>2026-08-28T17:53:29Z</time>
  <course>299.83</course>
  <speed>1.248879497789919</speed>
  <fix>3d</fix>
</trkpt>
<trkpt lat="40.0713749" lon="-105.229789">
  <ele>1583.0</ele>
  <time>2026-08-28T17:53:29Z</time>
  <course>0.0</course>
  <speed>0.0</speed>
  <fix>3d</fix>
</trkpt>
<trkpt lat="40.0713726" lon="-105.2297829">
  <ele>1581.71</ele>
  <time>2026-08-28T17:53:29Z</time>
  <course>298.56</course>
  <speed>1.4233762678926467</speed>
  <fix>3d</fix>
</trkpt>
<trkpt lat="40.0713749" lon="-105.229789">
  <ele>1583.0</ele>
  <time>2026-08-28T17:53:29Z</time>
  <course>0.0</course>
  <speed>0.0</speed>
  <fix>3d</fix>
</trkpt>
<trkpt lat="40.0713714" lon="-105.2297829">
  <ele>1581.72</ele>
  <time>2026-08-28T17:53:29Z</time>
  <course>297.76</course>
  <speed>1.604400199451496</speed>
  <fix>3d</fix>
</trkpt>
<trkpt lat="40.0713749" lon="-105.229789">
  <ele>1583.0</ele>
  <time>2026-08-28T17:53:29Z</time>
  <course>0.0</course>
  <speed>0.0</speed>
  <fix>3d</fix>
</trkpt>
<trkpt lat="40.0713703" lon="-105.2297831">
  <ele>1581.74</ele>
  <time>2026-08-28T17:53:29Z</time>
  <course>297.14</course>
  <speed>1.7705366418123065</speed>
  <fix>3d</fix>
</trkpt>
<trkpt lat="40.0713749" lon="-105.229789">
  <ele>1583.0</ele>
  <time>2026-08-28T17:53:29Z</time>
  <course>0.0</course>
  <speed>0.0</speed>
  <fix>3d</fix>
</trkpt>
<trkpt lat="40.0713691" lon="-105.2297832">
  <ele>1581.75</ele>
  <time>2026-08-28T17:53:29Z</time>
  <course>296.68</course>
  <speed>1.9298186443290468</speed>
  <fix>3d</fix>
</trkpt>
<trkpt lat="40.0713749" lon="-105.229789">
  <ele>1583.0</ele>
  <time>2026-08-28T17:53:29Z</time>
  <course>0.0</course>
  <speed>0.0</speed>
  <fix>3d</fix>
</trkpt>
<trkpt lat="40.0713681" lon="-105.2297835">
  <ele>1581.77</ele>
  <time>2026-08-28T17:53:29Z</time>
  <course>296.16</course>
  <speed>2.0599514557387026</speed>
  <fix>3d</fix>
</trkpt>
<trkpt lat="40.0713749" lon="-105.229789">
  <ele>1583.0</ele>
  <time>2026-08-28T17:53:29Z</time>
  <course>0.0</course>
  <speed>0.0</speed>
  <fix>3d</fix>
</trkpt>
<trkpt lat="40.0713668" lon="-105.2297836">
  <ele>1581.77</ele>
  <time>2026-08-28T17:53:29Z</time>
  <course>295.7</course>
  <speed>2.2132555207205518</speed>
  <fix>3d</fix>
</trkpt>
<trkpt lat="40.0713749" lon="-105.229789">
  <ele>1583.0</ele>
  <time>2026-08-28T17:53:29Z</time>
  <course>0.0</course>
  <speed>0.0</speed>
  <fix>3d</fix>
</trkpt>
<trkpt lat="40.0713659" lon="-105.2297839">
  <ele>1581.8</ele>
  <time>2026-08-28T17:53:29Z</time>
  <course>295.09</course>
  <speed>2.3070543990118657</speed>
  <fix>3d</fix>
</trkpt>
<trkpt lat="40.0713749" lon="-105.229789">
  <ele>1583.0</ele>
  <time>2026-08-28T17:53:29Z</time>
  <course>0.0</course>
  <speed>0.0</speed>
  <fix>3d</fix>
</trkpt>
<trkpt lat="40.0713646" lon="-105.229784">
  <ele>1581.8</ele>
  <time>2026-08-28T17:53:29Z</time>
  <course>294.52</course>
  <speed>2.4328789530101984</speed>
  <fix>3d</fix>
</trkpt>
<trkpt lat="40.0713749" lon="-105.229789">
  <ele>1583.0</ele>
  <time>2026-08-28T17:53:29Z</time>
  <course>0.0</course>
  <speed>0.0</speed>
  <fix>3d</fix>
</trkpt>
<trkpt lat="40.0713637" lon="-105.2297843">
  <ele>1581.82</ele>
  <time>2026-08-28T17:53:29Z</time>
  <course>293.82</course>
  <speed>2.5187695408671273</speed>
  <fix>3d</fix>
</trkpt>
<trkpt lat="40.0713749" lon="-105.229789">
  <ele>1583.0</ele>
  <time>2026-08-28T17:53:29Z</time>
  <course>0.0</course>
  <speed>0.0</speed>
  <fix>3d</fix>
</trkpt>
<trkpt lat="40.0713626" lon="-105.2297845">
  <ele>1581.82</ele>
  <time>2026-08-28T17:53:29Z</time>
  <course>293.06</course>
  <speed>2.615530538915575</speed>
  <fix>3d</fix>
</trkpt>
<trkpt lat="40.0713749" lon="-105.229789">
  <ele>1583.0</ele>
  <time>2026-08-28T17:53:29Z</time>
  <course>0.0</course>
  <speed>0.0</speed>
  <fix>3d</fix>
</trkpt>
<trkpt lat="40.0713619" lon="-105.2297848">
  <ele>1581.84</ele>
  <time>2026-08-28T17:53:29Z</time>
  <course>292.13</course>
  <speed>2.6726952688250862</speed>
  <fix>3d</fix>
</trkpt>
<trkpt lat="40.0713749" lon="-105.229789">
  <ele>1583.0</ele>
  <time>2026-08-28T17:53:29Z</time>
  <course>0.0</course>
  <speed>0.0</speed>
  <fix>3d</fix>
</trkpt>
<trkpt lat="40.0713609" lon="-105.2297851">
  <ele>1581.84</ele>
  <time>2026-08-28T17:53:29Z</time>
  <course>291.14</course>
  <speed>2.7511633902769206</speed>
  <fix>3d</fix>
</trkpt>
<trkpt lat="40.0713749" lon="-105.229789">
  <ele>1583.0</ele>
  <time>2026-08-28T17:53:29Z</time>
  <course>0.0</course>
  <speed>0.0</speed>
  <fix>3d</fix>
</trkpt>
<trkpt lat="40.0713603" lon="-105.2297854">
  <ele>1581.85</ele>
  <time>2026-08-28T17:53:29Z</time>
  <course>289.95</course>
  <speed>2.780071941515183</speed>
  <fix>3d</fix>
</trkpt>
<trkpt lat="40.0713749" lon="-105.229789">
  <ele>1583.0</ele>
  <time>2026-08-28T17:53:29Z</time>
  <course>0.0</course>
  <speed>0.0</speed>
  <fix>3d</fix>
</trkpt>
<trkpt lat="40.0713594" lon="-105.2297858">
  <ele>1581.85</ele>
  <time>2026-08-28T17:53:29Z</time>
  <course>288.72</course>
  <speed>2.830017667789373</speed>
  <fix>3d</fix>
</trkpt>
<trkpt lat="40.0713749" lon="-105.229789">
  <ele>1583.0</ele>
  <time>2026-08-28T17:53:29Z</time>
  <course>0.0</course>
  <speed>0.0</speed>
  <fix>3d</fix>
</trkpt>
<trkpt lat="40.071359" lon="-105.2297862">
  <ele>1581.87</ele>
  <time>2026-08-28T17:53:29Z</time>
  <course>287.29</course>
  <speed>2.8408625450732385</speed>
  <fix>3d</fix>
</trkpt>
<trkpt lat="40.0713749" lon="-105.229789">
  <ele>1583.0</ele>
  <time>2026-08-28T17:53:29Z</time>
  <course>0.0</course>
  <speed>0.0</speed>
  <fix>3d</fix>
</trkpt>
<trkpt lat="40.0713582" lon="-105.2297866">
  <ele>1581.88</ele>
  <time>2026-08-28T17:53:29Z</time>
  <course>285.83</course>
  <speed>2.872507615307573</speed>
  <fix>3d</fix>
</trkpt>
<trkpt lat="40.0713749" lon="-105.229789">
  <ele>1583.0</ele>
  <time>2026-08-28T17:53:29Z</time>
  <course>0.0</course>
  <speed>0.0</speed>
  <fix>3d</fix>
</trkpt>
<trkpt lat="40.0713581" lon="-105.2297871">
  <ele>1581.9</ele>
  <time>2026-08-28T17:53:29Z</time>
  <course>283.97</course>
  <speed>2.8456985082752526</speed>
  <fix>3d</fix>
</trkpt>
<trkpt lat="40.0713749" lon="-105.229789">
  <ele>1583.0</ele>
  <time>2026-08-28T17:53:29Z</time>
  <course>0.0</course>
  <speed>0.0</speed>
  <fix>3d</fix>
</trkpt>
<trkpt lat="40.0713574" lon="-105.2297876">
  <ele>1581.91</ele>
  <time>2026-08-28T17:53:29Z</time>
  <course>282.26</course>
  <speed>2.8692333470807148</speed>
  <fix>3d</fix>
</trkpt>
<trkpt lat="40.0713749" lon="-105.229789">
  <ele>1583.0</ele>
  <time>2026-08-28T17:53:29Z</time>
  <course>0.0</course>
  <speed>0.0</speed>
  <fix>3d</fix>
</trkpt>
<trkpt lat="40.0713574" lon="-105.2297882">
  <ele>1581.93</ele>
  <time>2026-08-28T17:53:29Z</time>
  <course>280.17</course>
  <speed>2.834872131155125</speed>
  <fix>3d</fix>
</trkpt>
<trkpt lat="40.0713749" lon="-105.229789">
  <ele>1583.0</ele>
  <time>2026-08-28T17:53:29Z</time>
  <course>0.0</course>
  <speed>0.0</speed>
  <fix>3d</fix>
</trkpt>
<trkpt lat="40.0713568" lon="-105.2297887">
  <ele>1581.94</ele>
  <time>2026-08-28T17:53:29Z</time>
  <course>278.27</course>
  <speed>2.850350855596553</speed>
  <fix>3d</fix>
</trkpt>
<trkpt lat="40.0713749" lon="-105.229789">
  <ele>1583.0</ele>
  <time>2026-08-28T17:53:29Z</time>
  <course>0.0</course>
  <speed>0.0</speed>
  <fix>3d</fix>
</trkpt>
<trkpt lat="40.0713569" lon="-105.2297892">
  <ele>1581.97</ele>
  <time>2026-08-28T17:53:29Z</time>
  <course>275.94</course>
  <speed>2.798731855680354</speed>
  <fix>3d</fix>
</trkpt>
<trkpt lat="40.0713749" lon="-105.229789">
  <ele>1583.0</ele>
  <time>2026-08-28T17:53:29Z</time>
  <course>0.0</course>
  <speed>0.0</speed>
  <fix>3d</fix>
</trkpt>
<trkpt lat="40.0713563" lon="-105.2297898">
  <ele>1581.97</ele>
  <time>2026-08-28T17:53:29Z</time>
  <course>273.8</course>
  <speed>2.8079351844371336</speed>
  <fix>3d</fix>
</trkpt>
<trkpt lat="40.0713749" lon="-105.229789">
  <ele>1583.0</ele>
  <time>2026-08-28T17:53:29Z</time>
  <course>0.0</course>
  <speed>0.0</speed>
  <fix>3d</fix>
</trkpt>
<trkpt lat="40.0713565" lon="-105.2297904">
  <ele>1582.0</ele>
  <time>2026-08-28T17:53:29Z</time>
  <course>271.21</course>
  <speed>2.7477445296096943</speed>
  <fix>3d</fix>
</trkpt>
<trkpt lat="40.0713749" lon="-105.229789">
  <ele>1583.0</ele>
  <time>2026-08-28T17:53:29Z</time>
  <course>0.0</course>
  <speed>0.0</speed>
  <fix>3d</fix>
</trkpt>
<trkpt lat="40.0713561" lon="-105.229791">
  <ele>1582.0</ele>
  <time>2026-08-28T17:53:29Z</time>
  <course>268.84</course>
  <speed>2.7399452549275503</speed>
  <fix>3d</fix>
</trkpt>
<trkpt lat="40.0713749" lon="-105.229789">
  <ele>1583.0</ele>
  <time>2026-08-28T17:53:29Z</time>
  <course>0.0</course>
  <speed>0.0</speed>
  <fix>3d</fix>
</trkpt>
<trkpt lat="40.0713564" lon="-105.2297915">
  <ele>1582.03</ele>
  <time>2026-08-28T17:53:29Z</time>
  <course>266.01</course>
  <speed>2.6729010456805167</speed>
  <fix>3d</fix>
</trkpt>
<trkpt lat="40.0713749" lon="-105.229789">
  <ele>1583.0</ele>
  <time>2026-08-28T17:53:29Z</time>
  <course>0.0</course>
  <speed>0.0</speed>
  <fix>3d</fix>
</trkpt>
<trkpt lat="40.0713561" lon="-105.2297922">
  <ele>1582.03</ele>
  <time>2026-08-28T17:53:29Z</time>
  <course>263.43</course>
  <speed>2.6558990944687637</speed>
  <fix>3d</fix>
</trkpt>
<trkpt lat="40.0713749" lon="-105.229789">
  <ele>1583.0</ele>
  <time>2026-08-28T17:53:29Z</time>
  <course>0.0</course>
  <speed>0.0</speed>
  <fix>3d</fix>
</trkpt>
<trkpt lat="40.0713565" lon="-105.2297927">
  <ele>1582.06</ele>
  <time>2026-08-28T17:53:29Z</time>
  <course>260.45</course>
  <speed>2.5824019826510356</speed>
  <fix>3d</fix>
</trkpt>
<trkpt lat="40.0713749" lon="-105.229789">
  <ele>1583.0</ele>
  <time>2026-08-28T17:53:29Z</time>
  <course>0.0</course>
  <speed>0.0</speed>
  <fix>3d</fix>
</trkpt>
<trkpt lat="40.0713563" lon="-105.2297933">
  <ele>1582.06</ele>
  <time>2026-08-28T17:53:29Z</time>
  <course>257.77</course>
  <speed>2.561640099623677</speed>
  <fix>3d</fix>
</trkpt>
<trkpt lat="40.0713749" lon="-105.229789">
  <ele>1583.0</ele>
  <time>2026-08-28T17:53:29Z</time>
  <course>0.0</course>
  <speed>0.0</speed>
  <fix>3d</fix>
</trkpt>
<trkpt lat="40.0713568" lon="-105.2297939">
  <ele>1582.09</ele>
  <time>2026-08-28T17:53:29Z</time>
  <course>254.72</course>
  <speed>2.479516081819192</speed>
  <fix>3d</fix>
</trkpt>
<trkpt lat="40.0713749" lon="-105.229789">
  <ele>1583.0</ele>
  <time>2026-08-28T17:53:29Z</time>
  <course>0.0</course>
  <speed>0.0</speed>
  <fix>3d</fix>
</trkpt>
<trkpt lat="40.0713567" lon="-105.2297945">
  <ele>1582.08</ele>
  <time>2026-08-28T17:53:29Z</time>
  <course>252.01</course>
  <speed>2.449693858423946</speed>
  <fix>3d</fix>
</trkpt>
<trkpt lat="40.0713749" lon="-105.229789">
  <ele>1583.0</ele>
  <time>2026-08-28T17:53:29Z</time>
  <course>0.0</course>
  <speed>0.0</speed>
  <fix>3d</fix>
</trkpt>
<trkpt lat="40.0713571" lon="-105.229795">
  <ele>1582.1</ele>
  <time>2026-08-28T17:53:29Z</time>
  <course>249.21</course>
  <speed>2.3807771840304586</speed>
  <fix>3d</fix>
</trkpt>
<trkpt lat="40.0713749" lon="-105.229789">
  <ele>1583.0</ele>
  <time>2026-08-28T17:53:29Z</time>
  <course>0.0</course>
  <speed>0.0</speed>
  <fix>3d</fix>
</trkpt>
<trkpt lat="40.0713571" lon="-105.2297957">
  <ele>1582.09</ele>
  <time>2026-08-28T17:53:29Z</time>
  <course>246.52</course>
  <speed>2.345463706817908</speed>
  <fix>3d</fix>
</trkpt>
<trkpt lat="40.0713749" lon="-105.229789">
  <ele>1583.0</ele>
  <time>2026-08-28T17:53:29Z</time>
  <course>0.0</course>
  <speed>0.0</speed>
  <fix>3d</fix>
</trkpt>
<trkpt lat="40.0713576" lon="-105.2297961">
  <ele>1582.1</ele>
  <time>2026-08-28T17:53:29Z</time>
  <course>243.74</course>
  <speed>2.271915491386068</speed>
  <fix>3d</fix>
</trkpt>
<trkpt lat="40.0713749" lon="-105.229789">
  <ele>1583.0</ele>
  <time>2026-08-28T17:53:29Z</time>
  <course>0.0</course>
  <speed>0.0</speed>
  <fix>3d</fix>
</trkpt>
<trkpt lat="40.0713578" lon="-105.2297967">
  <ele>1582.1</ele>
  <time>2026-08-28T17:53:29Z</time>
  <course>241.11</course>
  <speed>2.2188285197373863</speed>
  <fix>3d</fix>
</trkpt>
<trkpt lat="40.0713749" lon="-105.229789">
  <ele>1583.0</ele>
  <time>2026-08-28T17:53:29Z</time>
  <course>0.0</course>
  <speed>0.0</speed>
  <fix>3d</fix>
</trkpt>
<trkpt lat="40.0713584" lon="-105.2297971">
  <ele>1582.1</ele>
  <time>2026-08-28T17:53:29Z</time>
  <course>238.48</course>
  <speed>2.145809870421888</speed>
  <fix>3d</fix>
</trkpt>
<trkpt lat="40.0713749" lon="-105.229789">
  <ele>1583.0</ele>
  <time>2026-08-28T17:53:29Z</time>
  <course>0.0</course>
  <speed>0.0</speed>
  <fix>3d</fix>
</trkpt>
<trkpt lat="40.0713586" lon="-105.2297977">
  <ele>1582.1</ele>
  <time>2026-08-28T17:53:29Z</time>
  <course>236.04</course>
  <speed>2.0977368757782755</speed>
  <fix>3d</fix>
</trkpt>
<trkpt lat="40.0713749" lon="-105.229789">
  <ele>1583.0</ele>
  <time>2026-08-28T17:53:29Z</time>
  <course>0.0</course>
  <speed>0.0</speed>
  <fix>3d</fix>
</trkpt>
<trkpt lat="40.0713595" lon="-105.229798">
  <ele>1582.11</ele>
  <time>2026-08-28T17:53:29Z</time>
  <course>233.54</course>
  <speed>2.0137527157027004</speed>
  <fix>3d</fix>
</trkpt>
<trkpt lat="40.0713749" lon="-105.229789">
  <ele>1583.0</ele>
  <time>2026-08-28T17:53:29Z</time>
  <course>0.0</course>
  <speed>0.0</speed>
  <fix>3d</fix>
</trkpt>
<trkpt lat="40.0713597" lon="-105.2297986">
  <ele>1582.1</ele>
  <time>2026-08-28T17:53:29Z</time>
  <course>231.38</course>
  <speed>1.966036622242831</speed>
  <fix>3d</fix>
</trkpt>
<trkpt lat="40.0713749" lon="-105.229789">
  <ele>1583.0</ele>
  <time>2026-08-28T17:53:29Z</time>
  <course>0.0</course>
  <speed>0.0</speed>
  <fix>3d</fix>
</trkpt>
<trkpt lat="40.0713606" lon="-105.2297988">
  <ele>1582.11</ele>
  <time>2026-08-28T17:53:29Z</time>
  <course>229.23</course>
  <speed>1.8835339126227593</speed>
  <fix>3d</fix>
</trkpt>
<trkpt lat="40.0713749" lon="-105.229789">
  <ele>1583.0</ele>
  <time>2026-08-28T17:53:29Z</time>
  <course>0.0</course>
  <speed>0.0</speed>
  <fix>3d</fix>
</trkpt>
<trkpt lat="40.0713609" lon="-105.2297994">
  <ele>1582.11</ele>
  <time>2026-08-28T17:53:29Z</time>
  <course>227.35</course>
  <speed>1.8485940603604676</speed>
  <fix>3d</fix>
</trkpt>
<trkpt lat="40.0713749" lon="-105.229789">
  <ele>1583.0</ele>
  <time>2026-08-28T17:53:29Z</time>
  <course>0.0</course>
  <speed>0.0</speed>
  <fix>3d</fix>
</trkpt>
<trkpt lat="40.0713617" lon="-105.2297996">
  <ele>1582.11</ele>
  <time>2026-08-28T17:53:29Z</time>
  <course>225.5</course>
  <speed>1.7749647883831385</speed>
  <fix>3d</fix>
</trkpt>
<trkpt lat="40.0713749" lon="-105.229789">
  <ele>1583.0</ele>
  <time>2026-08-28T17:53:29Z</time>
  <course>0.0</course>
  <speed>0.0</speed>
  <fix>3d</fix>
</trkpt>
<trkpt lat="40.071362" lon="-105.2298002">
  <ele>1582.1</ele>
  <time>2026-08-28T17:53:29Z</time>
  <course>223.86</course>
  <speed>1.7477127910500627</speed>
  <fix>3d</fix>
</trkpt>
<trkpt lat="40.0713749" lon="-105.229789">
  <ele>1583.0</ele>
  <time>2026-08-28T17:53:29Z</time>
  <course>0.0</course>
  <speed>0.0</speed>
  <fix>3d</fix>
</trkpt>
<trkpt lat="40.0713628" lon="-105.2298004">
  <ele>1582.1</ele>
  <time>2026-08-28T17:53:29Z</time>
  <course>222.26</course>
  <speed>1.676007159889241</speed>
  <fix>3d</fix>
</trkpt>
<trkpt lat="40.0713749" lon="-105.229789">
  <ele>1583.0</ele>
  <time>2026-08-28T17:53:29Z</time>
  <course>0.0</course>
  <speed>0.0</speed>
  <fix>3d</fix>
</trkpt>
<trkpt lat="40.0713632" lon="-105.2298009">
  <ele>1582.09</ele>
  <time>2026-08-28T17:53:29Z</time>
  <course>220.84</course>
  <speed>1.6560193235587561</speed>
  <fix>3d</fix>
</trkpt>
<trkpt lat="40.0713749" lon="-105.229789">
  <ele>1583.0</ele>
  <time>2026-08-28T17:53:29Z</time>
  <course>0.0</course>
  <speed>0.0</speed>
  <fix>3d</fix>
</trkpt>
<trkpt lat="40.071364" lon="-105.229801">
  <ele>1582.1</ele>
  <time>2026-08-28T17:53:29Z</time>
  <course>219.48</course>
  <speed>1.5864425612041553</speed>
  <fix>3d</fix>
</trkpt>
<trkpt lat="40.0713749" lon="-105.229789">
  <ele>1583.0</ele>
  <time>2026-08-28T17:53:29Z</time>
  <course>0.0</course>
  <speed>0.0</speed>
  <fix>3d</fix>
</trkpt>
<trkpt lat="40.0713643" lon="-105.2298015">
  <ele>1582.08</ele>
  <time>2026-08-28T17:53:29Z</time>
  <course>218.25</course>
  <speed>1.5692354826475217</speed>
  <fix>3d</fix>
</trkpt>
<trkpt lat="40.0713749" lon="-105.229789">
  <ele>1583.0</ele>
  <time>2026-08-28T17:53:29Z</time>
  <course>0.0</course>
  <speed>0.0</speed>
  <fix>3d</fix>
</trkpt>
<trkpt lat="40.0713652" lon="-105.2298016">
  <ele>1582.08</ele>
  <time>2026-08-28T17:53:29Z</time>
  <course>217.1</course>
  <speed>1.5161134522191932</speed>
  <fix>3d</fix>
</trkpt>
<trkpt lat="40.0713749" lon="-105.229789">
  <ele>1583.0</ele>
  <time>2026-08-28T17:53:29Z</time>
  <course>0.0</course>
  <speed>0.0</speed>
  <fix>3d</fix>
</trkpt>
<trkpt lat="40.0713656" lon="-105.2298021">
  <ele>1582.07</ele>
  <time>2026-08-28T17:53:29Z</time>
  <course>216.04</course>
  <speed>1.5088074761214565</speed>
  <fix>3d</fix>
</trkpt>
<trkpt lat="40.0713749" lon="-105.229789">
  <ele>1583.0</ele>
  <time>2026-08-28T17:53:29Z</time>
  <course>0.0</course>
  <speed>0.0</speed>
  <fix>3d</fix>
</trkpt>
<trkpt lat="40.0713664" lon="-105.2298021">
  <ele>1582.06</ele>
  <time>2026-08-28T17:53:29Z</time>
  <course>215.07</course>
  <speed>1.4712239802287073</speed>
  <fix>3d</fix>
</trkpt>
<trkpt lat="40.0713749" lon="-105.229789">
  <ele>1583.0</ele>
  <time>2026-08-28T17:53:29Z</time>
  <course>0.0</course>
  <speed>0.0</speed>
  <fix>3d</fix>
</trkpt>
<trkpt lat="40.0713669" lon="-105.2298025">
  <ele>1582.05</ele>
  <time>2026-08-28T17:53:29Z</time>
  <course>214.17</course>
  <speed>1.4645477117526762</speed>
  <fix>3d</fix>
</trkpt>
<trkpt lat="40.0713749" lon="-105.229789">
  <ele>1583.0</ele>
  <time>2026-08-28T17:53:29Z</time>
  <course>0.0</course>
  <speed>0.0</speed>
  <fix>3d</fix>
</trkpt>
<trkpt lat="40.0713676" lon="-105.2298026">
  <ele>1582.04</ele>
  <time>2026-08-28T17:53:29Z</time>
  <course>213.36</course>
  <speed>1.4383671297690308</speed>
  <fix>3d</fix>
</trkpt>
<trkpt lat="40.0713749" lon="-105.229789">
  <ele>1583.0</ele>
  <time>2026-08-28T17:53:29Z</time>
  <course>0.0</course>
  <speed>0.0</speed>
  <fix>3d</fix>
</trkpt>
<trkpt lat="40.0713682" lon="-105.2298029">
  <ele>1582.02</ele>
  <time>2026-08-28T17:53:29Z</time>
  <course>212.6</course>
  <speed>1.4319916200872127</speed>
  <fix>3d</fix>
</trkpt>
<trkpt lat="40.0713749" lon="-105.229789">
  <ele>1583.0</ele>
  <time>2026-08-28T17:53:29Z</time>
  <course>0.0</course>
  <speed>0.0</speed>
  <fix>3d</fix>
</trkpt>
<trkpt lat="40.0713689" lon="-105.2298029">
  <ele>1582.01</ele>
  <time>2026-08-28T17:53:29Z</time>
  <course>211.93</course>
  <speed>1.4190489773083945</speed>
  <fix>3d</fix>
</trkpt>
<trkpt lat="40.0713749" lon="-105.229789">
  <ele>1583.0</ele>
  <time>2026-08-28T17:53:29Z</time>
  <course>0.0</course>
  <speed>0.0</speed>
  <fix>3d</fix>
</trkpt>
<trkpt lat="40.0713694" lon="-105.2298032">
  <ele>1581.99</ele>
  <time>2026-08-28T17:53:29Z</time>
  <course>33.03</course>
  <speed>1.4558159224297555</speed>
  <fix>3d</fix>
</trkpt>
<trkpt lat="40.0713749" lon="-105.229789">
  <ele>1583.0</ele>
  <time>2026-08-28T17:53:29Z</time>
  <course>0.0</course>
  <speed>0.0</speed>
  <fix>3d</fix>
</trkpt>
<trkpt lat="40.0713701" lon="-105.2298032">
  <ele>1581.97</ele>
  <time>2026-08-28T17:53:29Z</time>
  <course>32.8</course>
  <speed>1.3805795884337855</speed>
  <fix>3d</fix>
</trkpt>
<trkpt lat="40.0713749" lon="-105.229789">
  <ele>1583.0</ele>
  <time>2026-08-28T17:53:29Z</time>
  <course>0.0</course>
  <speed>0.0</speed>
  <fix>3d</fix>
</trkpt>
<trkpt lat="40.0713709" lon="-105.2298033">
  <ele>1581.92</ele>
  <time>2026-08-28T17:53:29Z</time>
  <course>32.69</course>
  <speed>1.2816005617976296</speed>
  <fix>3d</fix>
</trkpt>
<trkpt lat="40.0713749" lon="-105.229789">
  <ele>1583.0</ele>
  <time>2026-08-28T17:53:29Z</time>
  <course>0.0</course>
  <speed>0.0</speed>
  <fix>3d</fix>
</trkpt>
<trkpt lat="40.071372" lon="-105.2298028">
  <ele>1581.88</ele>
  <time>2026-08-28T17:53:29Z</time>
  <course>32.71</course>
  <speed>1.2485191228010886</speed>
  <fix>3d</fix>
</trkpt>
<trkpt lat="40.0713749" lon="-105.229789">
  <ele>1583.0</ele>
  <time>2026-08-28T17:53:29Z</time>
  <course>0.0</course>
  <speed>0.0</speed>
  <fix>3d</fix>
</trkpt>
<trkpt lat="40.0713732" lon="-105.2298025">
  <ele>1581.82</ele>
  <time>2026-08-28T17:53:29Z</time>
  <course>33.13</course>
  <speed>1.3682105101189657</speed>
  <fix>3d</fix>
</trkpt>
<trkpt lat="40.0713749" lon="-105.229789">
  <ele>1583.0</ele>
  <time>2026-08-28T17:53:29Z</time>
  <course>0.0</course>
  <speed>0.0</speed>
  <fix>3d</fix>
</trkpt>
<trkpt lat="40.0713747" lon="-105.2298015">
  <ele>1581.79</ele>
  <time>2026-08-28T17:53:29Z</time>
  <course>34.13</course>
  <speed>1.553479964466874</speed>
  <fix>3d</fix>
</trkpt>
<trkpt lat="40.0713749" lon="-105.229789">
  <ele>1583.0</ele>
  <time>2026-08-28T17:53:29Z</time>
  <course>0.0</course>
  <speed>0.0</speed>
  <fix>3d</fix>
</trkpt>
<trkpt lat="40.0713762" lon="-105.2298009">
  <ele>1581.75</ele>
  <time>2026-08-28T17:53:29Z</time>
  <course>35.52</course>
  <speed>1.8044666802132978</speed>
  <fix>3d</fix>
</trkpt>
<trkpt lat="40.0713749" lon="-105.229789">
  <ele>1583.0</ele>
  <time>2026-08-28T17:53:29Z</time>
  <course>0.0</course>
  <speed>0.0</speed>
  <fix>3d</fix>
</trkpt>
<trkpt lat="40.0713779" lon="-105.2297997">
  <ele>1581.73</ele>
  <time>2026-08-28T17:53:29Z</time>
  <course>37.15</course>
  <speed>2.07171426601257</speed>
  <fix>3d</fix>
</trkpt>
<trkpt lat="40.0713749" lon="-105.229789">
  <ele>1583.0</ele>
  <time>2026-08-28T17:53:29Z</time>
  <course>0.0</course>
  <speed>0.0</speed>
  <fix>3d</fix>
</trkpt>
<trkpt lat="40.0713797" lon="-105.2297987">
  <ele>1581.7</ele>
  <time>2026-08-28T17:53:29Z</time>
  <course>38.65</course>
  <speed>2.3701898658124416</speed>
  <fix>3d</fix>
</trkpt>
<trkpt lat="40.0713749" lon="-105.229789">
  <ele>1583.0</ele>
  <time>2026-08-28T17:53:29Z</time>
  <course>0.0</course>
  <speed>0.0</speed>
  <fix>3d</fix>
</trkpt>
<trkpt lat="40.0713814" lon="-105.2297974">
  <ele>1581.69</ele>
  <time>2026-08-28T17:53:29Z</time>
  <course>40.14</course>
  <speed>2.6348624252510797</speed>
  <fix>3d</fix>
</trkpt>
<trkpt lat="40.0713749" lon="-105.229789">
  <ele>1583.0</ele>
  <time>2026-08-28T17:53:29Z</time>
  <course>0.0</course>
  <speed>0.0</speed>
  <fix>3d</fix>
</trkpt>
<trkpt lat="40.0713834" lon="-105.2297962">
  <ele>1581.67</ele>
  <time>2026-08-28T17:53:29Z</time>
  <course>41.44</course>
  <speed>2.9309725348423177</speed>
  <fix>3d</fix>
</trkpt>
<trkpt lat="40.0713749" lon="-105.229789">
  <ele>1583.0</ele>
  <time>2026-08-28T17:53:29Z</time>
  <course>0.0</course>
  <speed>0.0</speed>
  <fix>3d</fix>
</trkpt>
<trkpt lat="40.0713851" lon="-105.2297947">
  <ele>1581.67</ele>
  <time>2026-08-28T17:53:29Z</time>
  <course>42.81</course>
  <speed>3.176239915371633</speed>
  <fix>3d</fix>
</trkpt>
<trkpt lat="40.0713749" lon="-105.229789">
  <ele>1583.0</ele>
  <time>2026-08-28T17:53:29Z</time>
  <course>0.0</course>
  <speed>0.0</speed>
  <fix>3d</fix>
</trkpt>
<trkpt lat="40.0713871" lon="-105.2297933">
  <ele>1581.67</ele>
  <time>2026-08-28T17:53:29Z</time>
  <course>44.05</course>
  <speed>3.446055716322648</speed>
  <fix>3d</fix>
</trkpt>
<trkpt lat="40.0713749" lon="-105.229789">
  <ele>1583.0</ele>
  <time>2026-08-28T17:53:29Z</time>
  <course>0.0</course>
  <speed>0.0</speed>
  <fix>3d</fix>
</trkpt>
<trkpt lat="40.0713886" lon="-105.2297917">
  <ele>1581.69</ele>
  <time>2026-08-28T17:53:29Z</time>
  <course>45.47</course>
  <speed>3.652615501253862</speed>
  <fix>3d</fix>
</trkpt>
<trkpt lat="40.0713749" lon="-105.229789">
  <ele>1583.0</ele>
  <time>2026-08-28T17:53:29Z</time>
  <course>0.0</course>
  <speed>0.0</speed>
  <fix>3d</fix>
</trkpt>
<trkpt lat="40.0713906" lon="-105.2297902">
  <ele>1581.7</ele>
  <time>2026-08-28T17:53:29Z</time>
  <course>46.78</course>
  <speed>3.90242232465939</speed>
  <fix>3d</fix>
</trkpt>
<trkpt lat="40.0713749" lon="-105.229789">
  <ele>1583.0</ele>
  <time>2026-08-28T17:53:29Z</time>
  <course>0.0</course>
  <speed>0.0</speed>
  <fix>3d</fix>
</trkpt>
<trkpt lat="40.0713919" lon="-105.2297887">
  <ele>1581.74</ele>
  <time>2026-08-28T17:53:29Z</time>
  <course>48.32</course>
  <speed>4.07332787779231</speed>
  <fix>3d</fix>
</trkpt>
<trkpt lat="40.0713749" lon="-105.229789">
  <ele>1583.0</ele>
  <time>2026-08-28T17:53:29Z</time>
  <course>0.0</course>
  <speed>0.0</speed>
  <fix>3d</fix>
</trkpt>
<trkpt lat="40.0713938" lon="-105.229787">
  <ele>1581.78</ele>
  <time>2026-08-28T17:53:29Z</time>
  <course>49.74</course>
  <speed>4.275698773300102</speed>
  <fix>3d</fix>
</trkpt>
<trkpt lat="40.0713749" lon="-105.229789">
  <ele>1583.0</ele>
  <time>2026-08-28T17:53:29Z</time>
  <course>0.0</course>
  <speed>0.0</speed>
  <fix>3d</fix>
</trkpt>
<trkpt lat="40.0713951" lon="-105.2297855">
  <ele>1581.83</ele>
  <time>2026-08-28T17:53:29Z</time>
  <course>51.3</course>
  <speed>4.424160937398186</speed>
  <fix>3d</fix>
</trkpt>
<trkpt lat="40.0713749" lon="-105.229789">
  <ele>1583.0</ele>
  <time>2026-08-28T17:53:29Z</time>
  <course>0.0</course>
  <speed>0.0</speed>
  <fix>3d</fix>
</trkpt>
<trkpt lat="40.0713967" lon="-105.2297838">
  <ele>1581.89</ele>
  <time>2026-08-28T17:53:29Z</time>
  <course>52.87</course>
  <speed>4.5903921401117795</speed>
  <fix>3d</fix>
</trkpt>
<trkpt lat="40.0713749" lon="-105.229789">
  <ele>1583.0</ele>
  <time>2026-08-28T17:53:29Z</time>
  <course>0.0</course>
  <speed>0.0</speed>
  <fix>3d</fix>
</trkpt>
<trkpt lat="40.0713977" lon="-105.2297824">
  <ele>1581.97</ele>
  <time>2026-08-28T17:53:29Z</time>
  <course>54.63</course>
  <speed>4.686331187613611</speed>
  <fix>3d</fix>
</trkpt>
<trkpt lat="40.0713749" lon="-105.229789">
  <ele>1583.0</ele>
  <time>2026-08-28T17:53:29Z</time>
  <course>0.0</course>
  <speed>0.0</speed>
  <fix>3d</fix>
</trkpt>
<trkpt lat="40.0713991" lon="-105.2297807">
  <ele>1582.04</ele>
  <time>2026-08-28T17:53:29Z</time>
  <course>56.4</course>
  <speed>4.8158592172114005</speed>
  <fix>3d</fix>
</trkpt>
<trkpt lat="40.0713749" lon="-105.229789">
  <ele>1583.0</ele>
  <time>2026-08-28T17:53:29Z</time>
  <course>0.0</course>
  <speed>0.0</speed>
  <fix>3d</fix>
</trkpt>
<trkpt lat="40.0713999" lon="-105.2297793">
  <ele>1582.13</ele>
  <time>2026-08-28T17:53:29Z</time>
  <course>58.37</course>
  <speed>4.8754486972995625</speed>
  <fix>3d</fix>
</trkpt>
<trkpt lat="40.0713749" lon="-105.229789">
  <ele>1583.0</ele>
  <time>2026-08-28T17:53:29Z</time>
  <course>0.0</course>
  <speed>0.0</speed>
  <fix>3d</fix>
</trkpt>
<trkpt lat="40.0714011" lon="-105.2297777">
  <ele>1582.23</ele>
  <time>2026-08-28T17:53:29Z</time>
  <course>60.32</course>
  <speed>4.973017192811624</speed>
  <fix>3d</fix>
</trkpt>
<trkpt lat="40.0713749" lon="-105.229789">
  <ele>1583.0</ele>
  <time>2026-08-28T17:53:29Z</time>
  <course>0.0</course>
  <speed>0.0</speed>
  <fix>3d</fix>
</trkpt>
<trkpt lat="40.0714015" lon="-105.2297764">
  <ele>1582.33</ele>
  <time>2026-08-28T17:53:29Z</time>
  <course>62.47</course>
  <speed>4.991873395830467</speed>
  <fix>3d</fix>
</trkpt>
<trkpt lat="40.0713749" lon="-105.229789">
  <ele>1583.0</ele>
  <time>2026-08-28T17:53:29Z</time>
  <course>0.0</course>
  <speed>0.0</speed>
  <fix>3d</fix>
</trkpt>
<trkpt lat="40.0714025" lon="-105.2297748">
  <ele>1582.44</ele>
  <time>2026-08-28T17:53:29Z</time>
  <course>64.59</course>
  <speed>5.061472117872428</speed>
  <fix>3d</fix>
</trkpt>
<trkpt lat="40.0713749" lon="-105.229789">
  <ele>1583.0</ele>
  <time>2026-08-28T17:53:29Z</time>
  <course>0.0</course>
  <speed>0.0</speed>
  <fix>3d</fix>
</trkpt>
<trkpt lat="40.0714024" lon="-105.2297738">
  <ele>1582.56</ele>
  <time>2026-08-28T17:53:29Z</time>
  <course>67.12</course>
  <speed>5.025892955485622</speed>
  <fix>3d</fix>
</trkpt>
<trkpt lat="40.0713749" lon="-105.229789">
  <ele>1583.0</ele>
  <time>2026-08-28T17:53:29Z</time>
  <course>0.0</course>
  <speed>0.0</speed>
  <fix>3d</fix>
</trkpt>
<trkpt lat="40.0714033" lon="-105.2297722">
  <ele>1582.69</ele>
  <time>2026-08-28T17:53:29Z</time>
  <course>69.41</course>
  <speed>5.076376660571987</speed>
  <fix>3d</fix>
</trkpt>
<trkpt lat="40.0713749" lon="-105.229789">
  <ele>1583.0</ele>
  <time>2026-08-28T17:53:29Z</time>
  <course>0.0</course>
  <speed>0.0</speed>
  <fix>3d</fix>
</trkpt>
<trkpt lat="40.0714031" lon="-105.2297713">
  <ele>1582.82</ele>
  <time>2026-08-28T17:53:29Z</time>
  <course>72.1</course>
  <speed>5.022270402915399</speed>
  <fix>3d</fix>
</trkpt>
<trkpt lat="40.0713749" lon="-105.229789">
  <ele>1583.0</ele>
  <time>2026-08-28T17:53:29Z</time>
  <course>0.0</course>
  <speed>0.0</speed>
  <fix>3d</fix>
</trkpt>
<trkpt lat="40.0714038" lon="-105.2297698">
  <ele>1582.96</ele>
  <time>2026-08-28T17:53:29Z</time>
  <course>74.52</course>
  <speed>5.0482868381263755</speed>
  <fix>3d</fix>
</trkpt>
<trkpt lat="40.0713749" lon="-105.229789">
  <ele>1583.0</ele>
  <time>2026-08-28T17:53:29Z</time>
  <course>0.0</course>
  <speed>0.0</speed>
  <fix>3d</fix>
</trkpt>
<trkpt lat="40.0714034" lon="-105.2297691">
  <ele>1583.11</ele>
  <time>2026-08-28T17:53:29Z</time>
  <course>77.38</course>
  <speed>4.978483704904536</speed>
  <fix>3d</fix>
</trkpt>
<trkpt lat="40.0713749" lon="-105.229789">
  <ele>1583.0</ele>
  <time>2026-08-28T17:53:29Z</time>
  <course>0.0</course>
  <speed>0.0</speed>
  <fix>3d</fix>
</trkpt>
<trkpt lat="40.0714041" lon="-105.2297676">
  <ele>1583.25</ele>
  <time>2026-08-28T17:53:29Z</time>
  <course>79.96</course>
  <speed>4.993245437588663</speed>
  <fix>3d</fix>
</trkpt>
<trkpt lat="40.0713749" lon="-105.229789">
  <ele>1583.0</ele>
  <time>2026-08-28T17:53:29Z</time>
  <course>0.0</course>
  <speed>0.0</speed>
  <fix>3d</fix>
</trkpt>
<trkpt lat="40.0714035" lon="-105.229767">
  <ele>1583.41</ele>
  <time>2026-08-28T17:53:29Z</time>
  <course>83.04</course>
  <speed>4.890654352947057</speed>
  <fix>3d</fix>
</trkpt>
<trkpt lat="40.0713749" lon="-105.229789">
  <ele>1583.0</ele>
  <time>2026-08-28T17:53:29Z</time>
  <course>0.0</course>
  <speed>0.0</speed>
  <fix>3d</fix>
</trkpt>
<trkpt lat="40.071404" lon="-105.2297657">
  <ele>1583.56</ele>
  <time>2026-08-28T17:53:29Z</time>
  <course>85.8</course>
  <speed>4.8860004093327705</speed>
  <fix>3d</fix>
</trkpt>
<trkpt lat="40.0713749" lon="-105.229789">
  <ele>1583.0</ele>
  <time>2026-08-28T17:53:29Z</time>
  <course>0.0</course>
  <speed>0.0</speed>
  <fix>3d</fix>
</trkpt>
<trkpt lat="40.0714032" lon="-105.2297653">
  <ele>1583.71</ele>
  <time>2026-08-28T17:53:29Z</time>
  <course>89.12</course>
  <speed>4.774704179318338</speed>
  <fix>3d</fix>
</trkpt>
<trkpt lat="40.0713749" lon="-105.229789">
  <ele>1583.0</ele>
  <time>2026-08-28T17:53:29Z</time>
  <course>0.0</course>
  <speed>0.0</speed>
  <fix>3d</fix>
</trkpt>
<trkpt lat="40.0714035" lon="-105.2297641">
  <ele>1583.87</ele>
  <time>2026-08-28T17:53:29Z</time>
  <course>92.08</course>
  <speed>4.758623750623703</speed>
  <fix>3d</fix>
</trkpt>
<trkpt lat="40.0713749" lon="-105.229789">
  <ele>1583.0</ele>
  <time>2026-08-28T17:53:29Z</time>
  <course>0.0</course>
  <speed>0.0</speed>
  <fix>3d</fix>
</trkpt>
<trkpt lat="40.0714027" lon="-105.2297638">
  <ele>1584.03</ele>
  <time>2026-08-28T17:53:29Z</time>
  <course>95.57</course>
  <speed>4.62213154291394</speed>
  <fix>3d</fix>
</trkpt>
<trkpt lat="40.0713749" lon="-105.229789">
  <ele>1583.0</ele>
  <time>2026-08-28T17:53:29Z</time>
  <course>0.0</course>
  <speed>0.0</speed>
  <fix>3d</fix>
</trkpt>
<trkpt lat="40.0714029" lon="-105.2297627">
  <ele>1584.19</ele>
  <time>2026-08-28T17:53:29Z</time>
  <course>98.63</course>
  <speed>4.5880823881007196</speed>
  <fix>3d</fix>
</trkpt>
<trkpt lat="40.0713749" lon="-105.229789">
  <ele>1583.0</ele>
  <time>2026-08-28T17:53:29Z</time>
  <course>0.0</course>
  <speed>0.0</speed>
  <fix>3d</fix>
</trkpt>
<trkpt lat="40.0714019" lon="-105.2297627">
  <ele>1584.34</ele>
  <time>2026-08-28T17:53:29Z</time>
  <course>102.23</course>
  <speed>4.440461687707709</speed>
  <fix>3d</fix>
</trkpt>
<trkpt lat="40.0713749" lon="-105.229789">
  <ele>1583.0</ele>
  <time>2026-08-28T17:53:29Z</time>
  <course>0.0</course>
  <speed>0.0</speed>
  <fix>3d</fix>
</trkpt>
<trkpt lat="40.0714019" lon="-105.2297617">
  <ele>1584.5</ele>
  <time>2026-08-28T17:53:29Z</time>
  <course>105.35</course>
  <speed>4.401477024817919</speed>
  <fix>3d</fix>
</trkpt>
<trkpt lat="40.0713749" lon="-105.229789">
  <ele>1583.0</ele>
  <time>2026-08-28T17:53:29Z</time>
  <course>0.0</course>
  <speed>0.0</speed>
  <fix>3d</fix>
</trkpt>
<trkpt lat="40.0714012" lon="-105.2297616">
  <ele>1584.66</ele>
  <time>2026-08-28T17:53:29Z</time>
  <course>108.64</course>
  <speed>4.2789835241561756</speed>
  <fix>3d</fix>
</trkpt>
<trkpt lat="40.0713749" lon="-105.229789">
  <ele>1583.0</ele>
  <time>2026-08-28T17:53:29Z</time>
  <course>0.0</course>
  <speed>0.0</speed>
  <fix>3d</fix>
</trkpt>
<trkpt lat="40.071401" lon="-105.2297608">
  <ele>1584.83</ele>
  <time>2026-08-28T17:53:29Z</time>
  <course>111.79</course>
  <speed>4.207338826384203</speed>
  <fix>3d</fix>
</trkpt>
<trkpt lat="40.0713749" lon="-105.229789">
  <ele>1583.0</ele>
  <time>2026-08-28T17:53:29Z</time>
  <course>0.0</course>
  <speed>0.0</speed>
  <fix>3d</fix>
</trkpt>
<trkpt lat="40.0714001" lon="-105.2297609">
  <ele>1584.98</ele>
  <time>2026-08-28T17:53:29Z</time>
  <course>115.17</course>
  <speed>4.066362010446193</speed>
  <fix>3d</fix>
</trkpt>
<trkpt lat="40.0713749" lon="-105.229789">
  <ele>1583.0</ele>
  <time>2026-08-28T17:53:29Z</time>
  <course>0.0</course>
  <speed>0.0</speed>
  <fix>3d</fix>
</trkpt>
<trkpt lat="40.0713998" lon="-105.2297604">
  <ele>1585.14</ele>
  <time>2026-08-28T17:53:29Z</time>
  <course>118.35</course>
  <speed>3.9832775449370836</speed>
  <fix>3d</fix>
</trkpt>
<trkpt lat="40.0713749" lon="-105.229789">
  <ele>1583.0</ele>
  <time>2026-08-28T17:53:29Z</time>
  <course>0.0</course>
  <speed>0.0</speed>
  <fix>3d</fix>
</trkpt>
<trkpt lat="40.0713988" lon="-105.2297606">
  <ele>1585.29</ele>
  <time>2026-08-28T17:53:29Z</time>
  <course>121.67</course>
  <speed>3.8450617680344226</speed>
  <fix>3d</fix>
</trkpt>
<trkpt lat="40.0713749" lon="-105.229789">
  <ele>1583.0</ele>
  <time>2026-08-28T17:53:29Z</time>
  <course>0.0</course>
  <speed>0.0</speed>
  <fix>3d</fix>
</trkpt>
<trkpt lat="40.0713983" lon="-105.2297602">
  <ele>1585.45</ele>
  <time>2026-08-28T17:53:29Z</time>
  <course>124.7</course>
  <speed>3.7507465923466494</speed>
  <fix>3d</fix>
</trkpt>
<trkpt lat="40.0713749" lon="-105.229789">
  <ele>1583.0</ele>
  <time>2026-08-28T17:53:29Z</time>
  <course>0.0</course>
  <speed>0.0</speed>
  <fix>3d</fix>
</trkpt>
<trkpt lat="40.071397" lon="-105.2297608">
  <ele>1585.59</ele>
  <time>2026-08-28T17:53:29Z</time>
  <course>128.09</course>
  <speed>3.5876594041240875</speed>
  <fix>3d</fix>
</trkpt>
<trkpt lat="40.0713749" lon="-105.229789">
  <ele>1583.0</ele>
  <time>2026-08-28T17:53:29Z</time>
  <course>0.0</course>
  <speed>0.0</speed>
  <fix>3d</fix>
</trkpt>
<trkpt lat="40.0713966" lon="-105.2297604">
  <ele>1585.75</ele>
  <time>2026-08-28T17:53:29Z</time>
  <course>130.83</course>
  <speed>3.503055808861743</speed>
  <fix>3d</fix>
</trkpt>
<trkpt lat="40.0713749" lon="-105.229789">
  <ele>1583.0</ele>
  <time>2026-08-28T17:53:29Z</time>
  <course>0.0</course>
  <speed>0.0</speed>
  <fix>3d</fix>
</trkpt>
<trkpt lat="40.0713953" lon="-105.2297611">
  <ele>1585.88</ele>
  <time>2026-08-28T17:53:29Z</time>
  <course>133.8</course>
  <speed>3.33600059952033</speed>
  <fix>3d</fix>
</trkpt>
<trkpt lat="40.0713749" lon="-105.229789">
  <ele>1583.0</ele>
  <time>2026-08-28T17:53:29Z</time>
  <course>0.0</course>
  <speed>0.0</speed>
  <fix>3d</fix>
</trkpt>
<trkpt lat="40.0713949" lon="-105.2297608">
  <ele>1586.04</ele>
  <time>2026-08-28T17:53:29Z</time>
  <course>136.17</course>
  <speed>3.2549347151671104</speed>
  <fix>3d</fix>
</trkpt>
<trkpt lat="40.0713749" lon="-105.229789">
  <ele>1583.0</ele>
  <time>2026-08-28T17:53:29Z</time>
  <course>0.0</course>
  <speed>0.0</speed>
  <fix>3d</fix>
</trkpt>
<trkpt lat="40.0713937" lon="-105.2297615">
  <ele>1586.17</ele>
  <time>2026-08-28T17:53:29Z</time>
  <course>138.76</course>
  <speed>3.0980316331503137</speed>
  <fix>3d</fix>
</trkpt>
<trkpt lat="40.0713749" lon="-105.229789">
  <ele>1583.0</ele>
  <time>2026-08-28T17:53:29Z</time>
  <course>0.0</course>
  <speed>0.0</speed>
  <fix>3d</fix>
</trkpt>
<trkpt lat="40.0713932" lon="-105.2297612">
  <ele>1586.32</ele>
  <time>2026-08-28T17:53:29Z</time>
  <course>140.83</course>
  <speed>3.026450065671</speed>
  <fix>3d</fix>
</trkpt>
<trkpt lat="40.0713749" lon="-105.229789">
  <ele>1583.0</ele>
  <time>2026-08-28T17:53:29Z</time>
  <course>0.0</course>
  <speed>0.0</speed>
  <fix>3d</fix>
</trkpt>
<trkpt lat="40.0713921" lon="-105.2297619">
  <ele>1586.44</ele>
  <time>2026-08-28T17:53:29Z</time>
  <course>143.13</course>
  <speed>2.8743347056318966</speed>
  <fix>3d</fix>
</trkpt>
<trkpt lat="40.0713749" lon="-105.229789">
  <ele>1583.0</ele>
  <time>2026-08-28T17:53:29Z</time>
  <course>0.0</course>
  <speed>0.0</speed>
  <fix>3d</fix>
</trkpt>
<trkpt lat="40.0713916" lon="-105.2297617">
  <ele>1586.58</ele>
  <time>2026-08-28T17:53:29Z</time>
  <course>144.97</course>
  <speed>2.7983030572116383</speed>
  <fix>3d</fix>
</trkpt>
<trkpt lat="40.0713749" lon="-105.229789">
  <ele>1583.0</ele>
  <time>2026-08-28T17:53:29Z</time>
  <course>0.0</course>
  <speed>0.0</speed>
  <fix>3d</fix>
</trkpt>
<trkpt lat="40.0713905" lon="-105.2297625">
  <ele>1586.7</ele>
  <time>2026-08-28T17:53:29Z</time>
  <course>147.01</course>
  <speed>2.656689669494727</speed>
  <fix>3d</fix>
</trkpt>
<trkpt lat="40.0713749" lon="-105.229789">
  <ele>1583.0</ele>
  <time>2026-08-28T17:53:29Z</time>
  <course>0.0</course>
  <speed>0.0</speed>
  <fix>3d</fix>
</trkpt>
<trkpt lat="40.0713899" lon="-105.2297623">
  <ele>1586.84</ele>
  <time>2026-08-28T17:53:29Z</time>
  <course>148.64</course>
  <speed>2.5808913189051568</speed>
  <fix>3d</fix>
</trkpt>
<trkpt lat="40.0713749" lon="-105.229789">
  <ele>1583.0</ele>
  <time>2026-08-28T17:53:29Z</time>
  <course>0.0</course>
  <speed>0.0</speed>
  <fix>3d</fix>
</trkpt>
<trkpt lat="40.0713888" lon="-105.2297632">
  <ele>1586.94</ele>
  <time>2026-08-28T17:53:29Z</time>
  <course>150.45</course>
  <speed>2.4462420158275426</speed>
  <fix>3d</fix>
</trkpt>
<trkpt lat="40.0713749" lon="-105.229789">
  <ele>1583.0</ele>
  <time>2026-08-28T17:53:29Z</time>
  <course>0.0</course>
  <speed>0.0</speed>
  <fix>3d</fix>
</trkpt>
<trkpt lat="40.0713882" lon="-105.2297631">
  <ele>1587.07</ele>
  <time>2026-08-28T17:53:29Z</time>
  <course>151.88</course>
  <speed>2.380756182392477</speed>
  <fix>3d</fix>
</trkpt>
<trkpt lat="40.0713749" lon="-105.229789">
  <ele>1583.0</ele>
  <time>2026-08-28T17:53:29Z</time>
  <course>0.0</course>
  <speed>0.0</speed>
  <fix>3d</fix>
</trkpt>
<trkpt lat="40.0713871" lon="-105.229764">
  <ele>1587.15</ele>
  <time>2026-08-28T17:53:29Z</time>
  <course>153.45</course>
  <speed>2.248399430706208</speed>
  <fix>3d</fix>
</trkpt>
<trkpt lat="40.0713749" lon="-105.229789">
  <ele>1583.0</ele>
  <time>2026-08-28T17:53:29Z</time>
  <course>0.0</course>
  <speed>0.0</speed>
  <fix>3d</fix>
</trkpt>
<trkpt lat="40.0713865" lon="-105.2297639">
  <ele>1587.27</ele>
  <time>2026-08-28T17:53:29Z</time>
  <course>154.69</course>
  <speed>2.18961183774659</speed>
  <fix>3d</fix>
</trkpt>
<trkpt lat="40.0713749" lon="-105.229789">
  <ele>1583.0</ele>
  <time>2026-08-28T17:53:29Z</time>
  <course>0.0</course>
  <speed>0.0</speed>
  <fix>3d</fix>
</trkpt>
<trkpt lat="40.0713855" lon="-105.2297646">
  <ele>1587.36</ele>
  <time>2026-08-28T17:53:29Z</time>
  <course>155.92</course>
  <speed>2.0883007446246817</speed>
  <fix>3d</fix>
</trkpt>
<trkpt lat="40.0713749" lon="-105.229789">
  <ele>1583.0</ele>
  <time>2026-08-28T17:53:29Z</time>
  <course>0.0</course>
  <speed>0.0</speed>
  <fix>3d</fix>
</trkpt>
<trkpt lat="40.0713849" lon="-105.2297647">
  <ele>1587.46</ele>
  <time>2026-08-28T17:53:29Z</time>
  <course>157.03</course>
  <speed>2.037670238286853</speed>
  <fix>3d</fix>
</trkpt>
<trkpt lat="40.0713749" lon="-105.229789">
  <ele>1583.0</ele>
  <time>2026-08-28T17:53:29Z</time>
  <course>0.0</course>
  <speed>0.0</speed>
  <fix>3d</fix>
</trkpt>
<trkpt lat="40.0713839" lon="-105.2297654">
  <ele>1587.54</ele>
  <time>2026-08-28T17:53:29Z</time>
  <course>158.17</course>
  <speed>1.938891435846783</speed>
  <fix>3d</fix>
</trkpt>
<trkpt lat="40.0713749" lon="-105.229789">
  <ele>1583.0</ele>
  <time>2026-08-28T17:53:29Z</time>
  <course>0.0</course>
  <speed>0.0</speed>
  <fix>3d</fix>
</trkpt>
<trkpt lat="40.0713832" lon="-105.2297656">
  <ele>1587.63</ele>
  <time>2026-08-28T17:53:29Z</time>
  <course>159.19</course>
  <speed>1.886796226411321</speed>
  <fix>3d</fix>
</trkpt>
<trkpt lat="40.0713749" lon="-105.229789">
  <ele>1583.0</ele>
  <time>2026-08-28T17:53:29Z</time>
  <course>0.0</course>
  <speed>0.0</speed>
  <fix>3d</fix>
</trkpt>
<trkpt lat="40.0713822" lon="-105.2297664">
  <ele>1587.69</ele>
  <time>2026-08-28T17:53:29Z</time>
  <course>160.21</course>
  <speed>1.8104419349981926</speed>
  <fix>3d</fix>
</trkpt>
<trkpt lat="40.0713749" lon="-105.229789">
  <ele>1583.0</ele>
  <time>2026-08-28T17:53:29Z</time>
  <course>0.0</course>
  <speed>0.0</speed>
  <fix>3d</fix>
</trkpt>
<trkpt lat="40.0713815" lon="-105.2297667">
  <ele>1587.78</ele>
  <time>2026-08-28T17:53:29Z</time>
  <course>161.11</course>
  <speed>1.770706073858674</speed>
  <fix>3d</fix>
</trkpt>
<trkpt lat="40.0713749" lon="-105.229789">
  <ele>1583.0</ele>
  <time>2026-08-28T17:53:29Z</time>
  <course>0.0</course>
  <speed>0.0</speed>
  <fix>3d</fix>
</trkpt>
<trkpt lat="40.0713806" lon="-105.2297675">
  <ele>1587.84</ele>
  <time>2026-08-28T17:53:29Z</time>
  <course>162.0</course>
  <speed>1.7075128110793196</speed>
  <fix>3d</fix>
</trkpt>
<trkpt lat="40.0713749" lon="-105.229789">
  <ele>1583.0</ele>
  <time>2026-08-28T17:53:29Z</time>
  <course>0.0</course>
  <speed>0.0</speed>
  <fix>3d</fix>
</trkpt>
<trkpt lat="40.0713798" lon="-105.2297677">
  <ele>1587.92</ele>
  <time>2026-08-28T17:53:29Z</time>
  <course>162.77</course>
  <speed>1.670359242797788</speed>
  <fix>3d</fix>
</trkpt>
<trkpt lat="40.0713749" lon="-105.229789">
  <ele>1583.0</ele>
  <time>2026-08-28T17:53:29Z</time>
  <course>0.0</course>
  <speed>0.0</speed>
  <fix>3d</fix>
</trkpt>
<trkpt lat="40.0713788" lon="-105.2297687">
  <ele>1587.95</ele>
  <time>2026-08-28T17:53:29Z</time>
  <course>163.63</course>
  <speed>1.613009609394811</speed>
  <fix>3d</fix>
</trkpt>
<trkpt lat="40.0713749" lon="-105.229789">
  <ele>1583.0</ele>
  <time>2026-08-28T17:53:29Z</time>
  <course>0.0</course>
  <speed>0.0</speed>
  <fix>3d</fix>
</trkpt>
<trkpt lat="40.0713781" lon="-105.229769">
  <ele>1588.02</ele>
  <time>2026-08-28T17:53:29Z</time>
  <course>164.28</course>
  <speed>1.6101242188104619</speed>
  <fix>3d</fix>
</trkpt>
<trkpt lat="40.0713749" lon="-105.229789">
  <ele>1583.0</ele>
  <time>2026-08-28T17:53:29Z</time>
  <course>0.0</course>
  <speed>0.0</speed>
  <fix>3d</fix>
</trkpt>
<trkpt lat="40.0713772" lon="-105.22977">
  <ele>1588.05</ele>
  <time>2026-08-28T17:53:29Z</time>
  <course>164.99</course>
  <speed>1.5766420012165097</speed>
  <fix>3d</fix>
</trkpt>
<trkpt lat="40.0713749" lon="-105.229789">
  <ele>1583.0</ele>
  <time>2026-08-28T17:53:29Z</time>
  <course>0.0</course>
  <speed>0.0</speed>
  <fix>3d</fix>
</trkpt>
<trkpt lat="40.0713765" lon="-105.2297701">
  <ele>1588.12</ele>
  <time>2026-08-28T17:53:29Z</time>
  <course>165.53</course>
  <speed>1.5840454538932902</speed>
  <fix>3d</fix>
</trkpt>
<trkpt lat="40.0713749" lon="-105.229789">
  <ele>1583.0</ele>
  <time>2026-08-28T17:53:29Z</time>
  <course>0.0</course>
  <speed>0.0</speed>
  <fix>3d</fix>
</trkpt>
<trkpt lat="40.0713756" lon="-105.2297709">
  <ele>1588.15</ele>
  <time>2026-08-28T17:53:29Z</time>
  <course>166.12</course>
  <speed>1.5618578680533002</speed>
  <fix>3d</fix>
</trkpt>
<trkpt lat="40.0713749" lon="-105.229789">
  <ele>1583.0</ele>
  <time>2026-08-28T17:53:29Z</time>
  <course>0.0</course>
  <speed>0.0</speed>
  <fix>3d</fix>
</trkpt>
<trkpt lat="40.0713749" lon="-105.229771">
  <ele>1588.22</ele>
  <time>2026-08-28T17:53:29Z</time>
  <course>166.57</course>
  <speed>1.5815182578775373</speed>
  <fix>3d</fix>
</trkpt>
<trkpt lat="40.0713749" lon="-105.229789">
  <ele>1583.0</ele>
  <time>2026-08-28T17:53:29Z</time>
  <course>0.0</course>
  <speed>0.0</speed>
  <fix>3d</fix>
</trkpt>
<trkpt lat="40.0713741" lon="-105.2297719">
  <ele>1588.24</ele>
  <time>2026-08-28T17:53:29Z</time>
  <course>167.09</course>
  <speed>1.574102919125684</speed>
  <fix>3d</fix>
</trkpt>
<trkpt lat="40.0713749" lon="-105.229789">
  <ele>1583.0</ele>
  <time>2026-08-28T17:53:29Z</time>
  <course>0.0</course>
  <speed>0.0</speed>
  <fix>3d</fix>
</trkpt>
<trkpt lat="40.0713734" lon="-105.229772">
  <ele>1588.31</ele>
  <time>2026-08-28T17:53:29Z</time>
  <course>167.49</course>
  <speed>1.6070469812671937</speed>
  <fix>3d</fix>
</trkpt>
<trkpt lat="40.0713749" lon="-105.229789">
  <ele>1583.0</ele>
  <time>2026-08-28T17:53:29Z</time>
  <course>0.0</course>
  <speed>0.0</speed>
  <fix>3d</fix>
</trkpt>
<trkpt lat="40.0713727" lon="-105.2297729">
  <ele>1588.32</ele>
  <time>2026-08-28T17:53:29Z</time>
  <course>167.94</course>
  <speed>1.6137533888422977</speed>
  <fix>3d</fix>
</trkpt>
<trkpt lat="40.0713749" lon="-105.229789">
  <ele>1583.0</ele>
  <time>2026-08-28T17:53:29Z</time>
  <course>0.0</course>
  <speed>0.0</speed>
  <fix>3d</fix>
</trkpt>
<trkpt lat="40.0713719" lon="-105.229773">
  <ele>1588.39</ele>
  <time>2026-08-28T17:53:29Z</time>
  <course>168.29</course>
  <speed>1.6546903033498443</speed>
  <fix>3d</fix>
</trkpt>
<trkpt lat="40.0713749" lon="-105.229789">
  <ele>1583.0</ele>
  <time>2026-08-28T17:53:29Z</time>
  <course>0.0</course>
  <speed>0.0</speed>
  <fix>3d</fix>
</trkpt>
<trkpt lat="40.0713713" lon="-105.2297738">
  <ele>1588.4</ele>
  <time>2026-08-28T17:53:29Z</time>
  <course>168.69</course>
  <speed>1.6650825805346714</speed>
  <fix>3d</fix>
</trkpt>
<trkpt lat="40.0713749" lon="-105.229789">
  <ele>1583.0</ele>
  <time>2026-08-28T17:53:29Z</time>
  <course>0.0</course>
  <speed>0.0</speed>
  <fix>3d</fix>
</trkpt>
<trkpt lat="40.0713705" lon="-105.2297739">
  <ele>1588.46</ele>
  <time>2026-08-28T17:53:29Z</time>
  <course>168.99</course>
  <speed>1.7132717239247253</speed>
  <fix>3d</fix>
</trkpt>
<trkpt lat="40.0713749" lon="-105.229789">
  <ele>1583.0</ele>
  <time>2026-08-28T17:53:29Z</time>
  <course>0.0</course>
  <speed>0.0</speed>
  <fix>3d</fix>
</trkpt>
<trkpt lat="40.0713699" lon="-105.2297747">
  <ele>1588.47</ele>
  <time>2026-08-28T17:53:29Z</time>
  <course>169.34</course>
  <speed>1.7300289014926888</speed>
  <fix>3d</fix>
</trkpt>
<trkpt lat="40.0713749" lon="-105.229789">
  <ele>1583.0</ele>
  <time>2026-08-28T17:53:29Z</time>
  <course>0.0</course>
  <speed>0.0</speed>
  <fix>3d</fix>
</trkpt>
<trkpt lat="40.0713692" lon="-105.2297748">
  <ele>1588.53</ele>
  <time>2026-08-28T17:53:29Z</time>
  <course>169.6</course>
  <speed>1.7835358140502813</speed>
  <fix>3d</fix>
</trkpt>
<trkpt lat="40.0713749" lon="-105.229789">
  <ele>1583.0</ele>
  <time>2026-08-28T17:53:29Z</time>
  <course>0.0</course>
  <speed>0.0</speed>
  <fix>3d</fix>
</trkpt>
<trkpt lat="40.0713686" lon="-105.2297754">
  <ele>1588.55</ele>
  <time>2026-08-28T17:53:29Z</time>
  <course>169.87</course>
  <speed>1.806239186818844</speed>
  <fix>3d</fix>
</trkpt>
<trkpt lat="40.0713749" lon="-105.229789">
  <ele>1583.0</ele>
  <time>2026-08-28T17:53:29Z</time>
  <course>0.0</course>
  <speed>0.0</speed>
  <fix>3d</fix>
</trkpt>
<trkpt lat="40.0713679" lon="-105.2297755">
  <ele>1588.6</ele>
  <time>2026-08-28T17:53:29Z</time>
  <course>170.1</course>
  <speed>1.855693940282179</speed>
  <fix>3d</fix>
</trkpt>
<trkpt lat="40.0713749" lon="-105.229789">
  <ele>1583.0</ele>
  <time>2026-08-28T17:53:29Z</time>
  <course>0.0</course>
  <speed>0.0</speed>
  <fix>3d</fix>
</trkpt>
<trkpt lat="40.0713674" lon="-105.2297761">
  <ele>1588.61</ele>
  <time>2026-08-28T17:53:29Z</time>
  <course>170.35</course>
  <speed>1.8794946129212502</speed>
  <fix>3d</fix>
</trkpt>
<trkpt lat="40.0713749" lon="-105.229789">
  <ele>1583.0</ele>
  <time>2026-08-28T17:53:29Z</time>
  <course>0.0</course>
  <speed>0.0</speed>
  <fix>3d</fix>
</trkpt>
<trkpt lat="40.0713667" lon="-105.2297763">
  <ele>1588.65</ele>
  <time>2026-08-28T17:53:29Z</time>
  <course>170.57</course>
  <speed>1.9185932346383379</speed>
  <fix>3d</fix>
</trkpt>
<trkpt lat="40.0713749" lon="-105.229789">
  <ele>1583.0</ele>
  <time>2026-08-28T17:53:29Z</time>
  <course>0.0</course>
  <speed>0.0</speed>
  <fix>3d</fix>
</trkpt>
<trkpt lat="40.0713662" lon="-105.2297769">
  <ele>1588.65</ele>
  <time>2026-08-28T17:53:29Z</time>
  <course>170.8</course>
  <speed>1.9278226059469268</speed>
  <fix>3d</fix>
</trkpt>
<trkpt lat="40.0713749" lon="-105.229789">
  <ele>1583.0</ele>
  <time>2026-08-28T17:53:29Z</time>
  <course>0.0</course>
  <speed>0.0</speed>
  <fix>3d</fix>
</trkpt>
<trkpt lat="40.0713656" lon="-105.2297772">
  <ele>1588.68</ele>
  <time>2026-08-28T17:53:29Z</time>
  <course>170.99</course>
  <speed>1.9606376513777348</speed>
  <fix>3d</fix>
</trkpt>
<trkpt lat="40.0713749" lon="-105.229789">
  <ele>1583.0</ele>
  <time>2026-08-28T17:53:29Z</time>
  <course>0.0</course>
  <speed>0.0</speed>
  <fix>3d</fix>
</trkpt>
<trkpt lat="40.0713653" lon="-105.2297779">
  <ele>1588.64</ele>
  <time>2026-08-28T17:53:29Z</time>
  <course>171.22</course>
  <speed>1.9630843079195555</speed>
  <fix>3d</fix>
</trkpt>
<trkpt lat="40.0713749" lon="-105.229789">
  <ele>1583.0</ele>
  <time>2026-08-28T17:53:29Z</time>
  <course>0.0</course>
  <speed>0.0</speed>
  <fix>3d</fix>
</trkpt>
<trkpt lat="40.0713647" lon="-105.2297781">
  <ele>1588.64</ele>
  <time>2026-08-28T17:53:29Z</time>
  <course>171.39</course>
  <speed>1.9888187448835049</speed>
  <fix>3d</fix>
</trkpt>
<trkpt lat="40.0713749" lon="-105.229789">
  <ele>1583.0</ele>
  <time>2026-08-28T17:53:29Z</time>
  <course>0.0</course>
  <speed>0.0</speed>
  <fix>3d</fix>
</trkpt>
<trkpt lat="40.0713645" lon="-105.2297787">
  <ele>1588.57</ele>
  <time>2026-08-28T17:53:29Z</time>
  <course>171.59</course>
  <speed>1.9744872752185565</speed>
  <fix>3d</fix>
</trkpt>
<trkpt lat="40.0713749" lon="-105.229789">
  <ele>1583.0</ele>
  <time>2026-08-28T17:53:29Z</time>
  <course>0.0</course>
  <speed>0.0</speed>
  <fix>3d</fix>
</trkpt>
<trkpt lat="40.0713639" lon="-105.2297789">
  <ele>1588.53</ele>
  <time>2026-08-28T17:53:29Z</time>
  <course>171.73</course>
  <speed>1.9958206332233366</speed>
  <fix>3d</fix>
</trkpt>
<trkpt lat="40.0713749" lon="-105.229789">
  <ele>1583.0</ele>
  <time>2026-08-28T17:53:29Z</time>
  <course>0.0</course>
  <speed>0.0</speed>
  <fix>3d</fix>
</trkpt>
<trkpt lat="40.0713638" lon="-105.2297795">
  <ele>1588.43</ele>
  <time>2026-08-28T17:53:29Z</time>
  <course>171.9</course>
  <speed>1.960612149304395</speed>
  <fix>3d</fix>
</trkpt>
<trkpt lat="40.0713749" lon="-105.229789">
  <ele>1583.0</ele>
  <time>2026-08-28T17:53:29Z</time>
  <course>0.0</course>
  <speed>0.0</speed>
  <fix>3d</fix>
</trkpt>
<trkpt lat="40.0713633" lon="-105.2297797">
  <ele>1588.36</ele>
  <time>2026-08-28T17:53:29Z</time>
  <course>172.02</course>
  <speed>1.9764867821465442</speed>
  <fix>3d</fix>
</trkpt>
<trkpt lat="40.0713749" lon="-105.229789">
  <ele>1583.0</ele>
  <time>2026-08-28T17:53:29Z</time>
  <course>0.0</course>
  <speed>0.0</speed>
  <fix>3d</fix>
</trkpt>
<trkpt lat="40.0713633" lon="-105.2297802">
  <ele>1588.22</ele>
  <time>2026-08-28T17:53:29Z</time>
  <course>172.17</course>
  <speed>1.9424726510301247</speed>
  <fix>3d</fix>
</trkpt>
<trkpt lat="40.0713749" lon="-105.229789">
  <ele>1583.0</ele>
  <time>2026-08-28T17:53:29Z</time>
  <course>0.0</course>
  <speed>0.0</speed>
  <fix>3d</fix>
</trkpt>
<trkpt lat="40.0713629" lon="-105.2297804">
  <ele>1588.11</ele>
  <time>2026-08-28T17:53:29Z</time>
  <course>172.28</course>
  <speed>1.9492049661336284</speed>
  <fix>3d</fix>
</trkpt>
<trkpt lat="40.0713749" lon="-105.229789">
  <ele>1583.0</ele>
  <time>2026-08-28T17:53:29Z</time>
  <course>0.0</course>
  <speed>0.0</speed>
  <fix>3d</fix>
</trkpt>
<trkpt lat="40.0713629" lon="-105.229781">
  <ele>1587.94</ele>
  <time>2026-08-28T17:53:29Z</time>
  <course>172.43</course>
  <speed>1.9093716243832681</speed>
  <fix>3d</fix>
</trkpt>
<trkpt lat="40.0713749" lon="-105.229789">
  <ele>1583.0</ele>
  <time>2026-08-28T17:53:29Z</time>
  <course>0.0</course>
  <speed>0.0</speed>
  <fix>3d</fix>
</trkpt>
<trkpt lat="40.0713626" lon="-105.2297811">
  <ele>1587.79</ele>
  <time>2026-08-28T17:53:29Z</time>
  <course>172.54</course>
  <speed>1.9234604232996322</speed>
  <fix>3d</fix>
</trkpt>
<trkpt lat="40.0713749" lon="-105.229789">
  <ele>1583.0</ele>
  <time>2026-08-28T17:53:29Z</time>
  <course>0.0</course>
  <speed>0.0</speed>
  <fix>3d</fix>
</trkpt>
<trkpt lat="40.0713627" lon="-105.2297817">
  <ele>1587.59</ele>
  <time>2026-08-28T17:53:29Z</time>
  <course>172.67</course>
  <speed>1.8869287214942698</speed>
  <fix>3d</fix>
</trkpt>
<trkpt lat="40.0713749" lon="-105.229789">
  <ele>1583.0</ele>
  <time>2026-08-28T17:53:29Z</time>
  <course>0.0</course>
  <speed>0.0</speed>
  <fix>3d</fix>
</trkpt>
<trkpt lat="40.0713624" lon="-105.2297818">
  <ele>1587.42</ele>
  <time>2026-08-28T17:53:29Z</time>
  <course>172.77</course>
  <speed>1.8918773744616748</speed>
  <fix>3d</fix>
</trkpt>
<trkpt lat="40.0713749" lon="-105.229789">
  <ele>1583.0</ele>
  <time>2026-08-28T17:53:29Z</time>
  <course>0.0</course>
  <speed>0.0</speed>
  <fix>3d</fix>
</trkpt>
<trkpt lat="40.0713626" lon="-105.2297824">
  <ele>1587.2</ele>
  <time>2026-08-28T17:53:29Z</time>
  <course>172.89</course>
  <speed>1.8656098198712399</speed>
  <fix>3d</fix>
</trkpt>
<trkpt lat="40.0713749" lon="-105.229789">
  <ele>1583.0</ele>
  <time>2026-08-28T17:53:29Z</time>
  <course>0.0</course>
  <speed>0.0</speed>
  <fix>3d</fix>
</trkpt>
<trkpt lat="40.0713623" lon="-105.2297825">
  <ele>1587.01</ele>
  <time>2026-08-28T17:53:29Z</time>
  <course>172.98</course>
  <speed>1.873205808233575</speed>
  <fix>3d</fix>
</trkpt>
<trkpt lat="40.0713749" lon="-105.229789">
  <ele>1583.0</ele>
  <time>2026-08-28T17:53:29Z</time>
  <course>0.0</course>
  <speed>0.0</speed>
  <fix>3d</fix>
</trkpt>
<trkpt lat="40.0713624" lon="-105.2297829">
  <ele>1586.8</ele>
  <time>2026-08-28T17:53:29Z</time>
  <course>173.07</course>
  <speed>1.8572291188757515</speed>
  <fix>3d</fix>
</trkpt>
<trkpt lat="40.0713749" lon="-105.229789">
  <ele>1583.0</ele>
  <time>2026-08-28T17:53:29Z</time>
  <course>0.0</course>
  <speed>0.0</speed>
  <fix>3d</fix>
</trkpt>
<trkpt lat="40.0713622" lon="-105.2297831">
  <ele>1586.6</ele>
  <time>2026-08-28T17:53:29Z</time>
  <course>173.14</course>
  <speed>1.8650737250843463</speed>
  <fix>3d</fix>
</trkpt>
<trkpt lat="40.0713749" lon="-105.229789">
  <ele>1583.0</ele>
  <time>2026-08-28T17:53:29Z</time>
  <course>0.0</course>
  <speed>0.0</speed>
  <fix>3d</fix>
</trkpt>
<trkpt lat="40.0713623" lon="-105.2297835">
  <ele>1586.38</ele>
  <time>2026-08-28T17:53:29Z</time>
  <course>173.23</course>
  <speed>1.84967564724197</speed>
  <fix>3d</fix>
</trkpt>
<trkpt lat="40.0713749" lon="-105.229789">
  <ele>1583.0</ele>
  <time>2026-08-28T17:53:29Z</time>
  <course>0.0</course>
  <speed>0.0</speed>
  <fix>3d</fix>
</trkpt>
<trkpt lat="40.0713621" lon="-105.2297837">
  <ele>1586.18</ele>
  <time>2026-08-28T17:53:29Z</time>
  <course>173.31</course>
  <speed>1.85776747737708</speed>
  <fix>3d</fix>
</trkpt>
<trkpt lat="40.0713749" lon="-105.229789">
  <ele>1583.0</ele>
  <time>2026-08-28T17:53:29Z</time>
  <course>0.0</course>
  <speed>0.0</speed>
  <fix>3d</fix>
</trkpt>
<trkpt lat="40.0713622" lon="-105.229784">
  <ele>1585.97</ele>
  <time>2026-08-28T17:53:29Z</time>
  <course>173.39</course>
  <speed>1.8445595680270128</speed>
  <fix>3d</fix>
</trkpt>
<trkpt lat="40.0713749" lon="-105.229789">
  <ele>1583.0</ele>
  <time>2026-08-28T17:53:29Z</time>
  <course>0.0</course>
  <speed>0.0</speed>
  <fix>3d</fix>
</trkpt>
<trkpt lat="40.071362" lon="-105.2297842">
  <ele>1585.77</ele>
  <time>2026-08-28T17:53:30Z</time>
  <course>173.46</course>
  <speed>1.8627130750601393</speed>
  <fix>3d</fix>
</trkpt>
<trkpt lat="40.0713749" lon="-105.229789">
  <ele>1583.0</ele>
  <time>2026-08-28T17:53:30Z</time>
  <course>0.0</course>
  <speed>0.0</speed>
  <fix>3d</fix>
</trkpt>
<trkpt lat="40.0713622" lon="-105.2297846">
  <ele>1585.57</ele>
  <time>2026-08-28T17:53:30Z</time>
  <course>173.54</course>
  <speed>1.8399184764548673</speed>
  <fix>3d</fix>
</trkpt>
<trkpt lat="40.0713749" lon="-105.229789">
  <ele>1583.0</ele>
  <time>2026-08-28T17:53:30Z</time>
  <course>0.0</course>
  <speed>0.0</speed>
  <fix>3d</fix>
</trkpt>
<trkpt lat="40.0713619" lon="-105.2297848">
  <ele>1585.38</ele>
  <time>2026-08-28T17:53:30Z</time>
  <course>173.59</course>
  <speed>1.8582787734890587</speed>
  <fix>3d</fix>
</trkpt>
<trkpt lat="40.0713749" lon="-105.229789">
  <ele>1583.0</ele>
  <time>2026-08-28T17:53:30Z</time>
  <course>0.0</course>
  <speed>0.0</speed>
  <fix>3d</fix>
</trkpt>
<trkpt lat="40.0713621" lon="-105.2297851">
  <ele>1585.2</ele>
  <time>2026-08-28T17:53:30Z</time>
  <course>173.66</course>
  <speed>1.8357559750685821</speed>
  <fix>3d</fix>
</trkpt>
<trkpt lat="40.0713749" lon="-105.229789">
  <ele>1583.0</ele>
  <time>2026-08-28T17:53:30Z</time>
  <course>0.0</course>
  <speed>0.0</speed>
  <fix>3d</fix>
</trkpt>
<trkpt lat="40.0713618" lon="-105.2297852">
  <ele>1585.03</ele>
  <time>2026-08-28T17:53:30Z</time>
  <course>173.7</course>
  <speed>1.865502613238588</speed>
  <fix>3d</fix>
</trkpt>
<trkpt lat="40.0713749" lon="-105.229789">
  <ele>1583.0</ele>
  <time>2026-08-28T17:53:30Z</time>
  <course>0.0</course>
  <speed>0.0</speed>
  <fix>3d</fix>
</trkpt>
<trkpt lat="40.071362" lon="-105.2297855">
  <ele>1584.86</ele>
  <time>2026-08-28T17:53:30Z</time>
  <course>173.75</course>
  <speed>1.8431766057543157</speed>
  <fix>3d</fix>
</trkpt>
<trkpt lat="40.0713749" lon="-105.229789">
  <ele>1583.0</ele>
  <time>2026-08-28T17:53:30Z</time>
  <course>0.0</course>
  <speed>0.0</speed>
  <fix>3d</fix>
</trkpt>
<trkpt lat="40.0713617" lon="-105.2297856">
  <ele>1584.71</ele>
  <time>2026-08-28T17:53:30Z</time>
  <course>173.77</course>
  <speed>1.8729655629509048</speed>
  <fix>3d</fix>
</trkpt>
<trkpt lat="40.0713749" lon="-105.229789">
  <ele>1583.0</ele>
  <time>2026-08-28T17:53:30Z</time>
  <course>0.0</course>
  <speed>0.0</speed>
  <fix>3d</fix>
</trkpt>
<trkpt lat="40.0713618" lon="-105.2297859">
  <ele>1584.57</ele>
  <time>2026-08-28T17:53:30Z</time>
  <course>173.81</course>
  <speed>1.8618807695446022</speed>
  <fix>3d</fix>
</trkpt>
<trkpt lat="40.0713749" lon="-105.229789">
  <ele>1583.0</ele>
  <time>2026-08-28T17:53:30Z</time>
  <course>0.0</course>
  <speed>0.0</speed>
  <fix>3d</fix>
</trkpt>
<trkpt lat="40.0713615" lon="-105.2297859">
  <ele>1584.42</ele>
  <time>2026-08-28T17:53:30Z</time>
  <course>173.82</course>
  <speed>1.8806647760831805</speed>
  <fix>3d</fix>
</trkpt>
<trkpt lat="40.0713749" lon="-105.229789">
  <ele>1583.0</ele>
  <time>2026-08-28T17:53:30Z</time>
  <course>0.0</course>
  <speed>0.0</speed>
  <fix>3d</fix>
</trkpt>
<trkpt lat="40.0713616" lon="-105.2297862">
  <ele>1584.29</ele>
  <time>2026-08-28T17:53:30Z</time>
  <course>173.85</course>
  <speed>1.8696791168540126</speed>
  <fix>3d</fix>
</trkpt>
<trkpt lat="40.0713749" lon="-105.229789">
  <ele>1583.0</ele>
  <time>2026-08-28T17:53:30Z</time>
  <course>0.0</course>
  <speed>0.0</speed>
  <fix>3d</fix>
</trkpt>
<trkpt lat="40.0713613" lon="-105.2297862">
  <ele>1584.16</ele>
  <time>2026-08-28T17:53:30Z</time>
  <course>173.86</course>
  <speed>1.8895766721676048</speed>
  <fix>3d</fix>
</trkpt>
<trkpt lat="40.0713749" lon="-105.229789">
  <ele>1583.0</ele>
  <time>2026-08-28T17:53:30Z</time>
  <course>0.0</course>
  <speed>0.0</speed>
  <fix>3d</fix>
</trkpt>
<trkpt lat="40.0713614" lon="-105.2297864">
  <ele>1584.04</ele>
  <time>2026-08-28T17:53:30Z</time>
  <course>173.88</course>
  <speed>1.878643127366132</speed>
  <fix>3d</fix>
</trkpt>
<trkpt lat="40.0713749" lon="-105.229789">
  <ele>1583.0</ele>
  <time>2026-08-28T17:53:30Z</time>
  <course>0.0</course>
  <speed>0.0</speed>
  <fix>3d</fix>
</trkpt>
<trkpt lat="40.0713611" lon="-105.2297865">
  <ele>1583.93</ele>
  <time>2026-08-28T17:53:30Z</time>
  <course>173.88</course>
  <speed>1.8985520798756088</speed>
  <fix>3d</fix>
</trkpt>
<trkpt lat="40.0713749" lon="-105.229789">
  <ele>1583.0</ele>
  <time>2026-08-28T17:53:30Z</time>
  <course>0.0</course>
  <speed>0.0</speed>
  <fix>3d</fix>
</trkpt>
<trkpt lat="40.0713612" lon="-105.2297866">
  <ele>1583.83</ele>
  <time>2026-08-28T17:53:30Z</time>
  <course>122.77</course>
  <speed>1.9067249408344142</speed>
  <fix>3d</fix>
</trkpt>
<trkpt lat="40.0713749" lon="-105.229789">
  <ele>1583.0</ele>
  <time>2026-08-28T17:53:30Z</time>
  <course>0.0</course>
  <speed>0.0</speed>
  <fix>3d</fix>
</trkpt>
<trkpt lat="40.0713608" lon="-105.2297867">
  <ele>1583.73</ele>
  <time>2026-08-28T17:53:30Z</time>
  <course>79.09</course>
  <speed>2.0541178155110775</speed>
  <fix>3d</fix>
</trkpt>
<trkpt lat="40.0713749" lon="-105.229789">
  <ele>1583.0</ele>
  <time>2026-08-28T17:53:30Z</time>
  <course>0.0</course>
  <speed>0.0</speed>
  <fix>3d</fix>
</trkpt>
<trkpt lat="40.0713606" lon="-105.2297869">
  <ele>1583.65</ele>
  <time>2026-08-28T17:53:30Z</time>
  <course>57.04</course>
  <speed>2.241807306616695</speed>
  <fix>3d</fix>
</trkpt>
<trkpt lat="40.0713749" lon="-105.229789">
  <ele>1583.0</ele>
  <time>2026-08-28T17:53:30Z</time>
  <course>0.0</course>
  <speed>0.0</speed>
  <fix>3d</fix>
</trkpt>
<trkpt lat="40.0713599" lon="-105.229787">
  <ele>1583.57</ele>
  <time>2026-08-28T17:53:30Z</time>
  <course>44.42</course>
  <speed>2.501279672487665</speed>
  <fix>3d</fix>
</trkpt>
<trkpt lat="40.0713749" lon="-105.229789">
  <ele>1583.0</ele>
  <time>2026-08-28T17:53:30Z</time>
  <course>0.0</course>
  <speed>0.0</speed>
  <fix>3d</fix>
</trkpt>
<trkpt lat="40.0713594" lon="-105.2297872">
  <ele>1583.51</ele>
  <time>2026-08-28T17:53:30Z</time>
  <course>37.3</course>
  <speed>2.7218376145538143</speed>
  <fix>3d</fix>
</trkpt>
<trkpt lat="40.0713749" lon="-105.229789">
  <ele>1583.0</ele>
  <time>2026-08-28T17:53:30Z</time>
  <course>0.0</course>
  <speed>0.0</speed>
  <fix>3d</fix>
</trkpt>
<trkpt lat="40.0713584" lon="-105.2297872">
  <ele>1583.46</ele>
  <time>2026-08-28T17:53:30Z</time>
  <course>33.34</course>
  <speed>2.98328677803526</speed>
  <fix>3d</fix>
</trkpt>
<trkpt lat="40.0713749" lon="-105.229789">
  <ele>1583.0</ele>
  <time>2026-08-28T17:53:30Z</time>
  <course>0.0</course>
  <speed>0.0</speed>
  <fix>3d</fix>
</trkpt>
<trkpt lat="40.0713577" lon="-105.2297873">
  <ele>1583.41</ele>
  <time>2026-08-28T17:53:30Z</time>
  <course>31.14</course>
  <speed>3.1850902655968794</speed>
  <fix>3d</fix>
</trkpt>
<trkpt lat="40.0713749" lon="-105.229789">
  <ele>1583.0</ele>
  <time>2026-08-28T17:53:30Z</time>
  <course>0.0</course>
  <speed>0.0</speed>
  <fix>3d</fix>
</trkpt>
<trkpt lat="40.0713564" lon="-105.2297872">
  <ele>1583.37</ele>
  <time>2026-08-28T17:53:30Z</time>
  <course>29.92</course>
  <speed>3.4191519416369904</speed>
  <fix>3d</fix>
</trkpt>
<trkpt lat="40.0713749" lon="-105.229789">
  <ele>1583.0</ele>
  <time>2026-08-28T17:53:30Z</time>
  <course>0.0</course>
  <speed>0.0</speed>
  <fix>3d</fix>
</trkpt>
<trkpt lat="40.0713556" lon="-105.2297871">
  <ele>1583.34</ele>
  <time>2026-08-28T17:53:30Z</time>
  <course>29.22</course>
  <speed>3.603359543537114</speed>
  <fix>3d</fix>
</trkpt>
<trkpt lat="40.0713749" lon="-105.229789">
  <ele>1583.0</ele>
  <time>2026-08-28T17:53:30Z</time>
  <course>0.0</course>
  <speed>0.0</speed>
  <fix>3d</fix>
</trkpt>
<trkpt lat="40.0713542" lon="-105.2297869">
  <ele>1583.31</ele>
  <time>2026-08-28T17:53:30Z</time>
  <course>28.8</course>
  <speed>3.809002494092121</speed>
  <fix>3d</fix>
</trkpt>
<trkpt lat="40.0713749" lon="-105.229789">
  <ele>1583.0</ele>
  <time>2026-08-28T17:53:30Z</time>
  <course>0.0</course>
  <speed>0.0</speed>
  <fix>3d</fix>
</trkpt>
<trkpt lat="40.0713536" lon="-105.2297868">
  <ele>1583.29</ele>
  <time>2026-08-28T17:53:30Z</time>
  <course>28.52</course>
  <speed>3.944616584663204</speed>
  <fix>3d</fix>
</trkpt>
<trkpt lat="40.0713749" lon="-105.229789">
  <ele>1583.0</ele>
  <time>2026-08-28T17:53:30Z</time>
  <course>0.0</course>
  <speed>0.0</speed>
  <fix>3d</fix>
</trkpt>
<trkpt lat="40.071352" lon="-105.2297865">
  <ele>1583.28</ele>
  <time>2026-08-28T17:53:30Z</time>
  <course>28.32</course>
  <speed>4.141521459560484</speed>
  <fix>3d</fix>
</trkpt>
<trkpt lat="40.0713749" lon="-105.229789">
  <ele>1583.0</ele>
  <time>2026-08-28T17:53:30Z</time>
  <course>0.0</course>
  <speed>0.0</speed>
  <fix>3d</fix>
</trkpt>
<trkpt lat="40.0713514" lon="-105.2297862">
  <ele>1583.28</ele>
  <time>2026-08-28T17:53:30Z</time>
  <course>28.16</course>
  <speed>4.248411467831241</speed>
  <fix>3d</fix>
</trkpt>
<trkpt lat="40.0713749" lon="-105.229789">
  <ele>1583.0</ele>
  <time>2026-08-28T17:53:30Z</time>
  <course>0.0</course>
  <speed>0.0</speed>
  <fix>3d</fix>
</trkpt>
<trkpt lat="40.0713497" lon="-105.2297858">
  <ele>1583.29</ele>
  <time>2026-08-28T17:53:30Z</time>
  <course>28.02</course>
  <speed>4.4265110414411035</speed>
  <fix>3d</fix>
</trkpt>
<trkpt lat="40.0713749" lon="-105.229789">
  <ele>1583.0</ele>
  <time>2026-08-28T17:53:30Z</time>
  <course>0.0</course>
  <speed>0.0</speed>
  <fix>3d</fix>
</trkpt>
<trkpt lat="40.0713491" lon="-105.2297855">
  <ele>1583.3</ele>
  <time>2026-08-28T17:53:30Z</time>
  <course>27.89</course>
  <speed>4.503176656539248</speed>
  <fix>3d</fix>
</trkpt>
<trkpt lat="40.0713749" lon="-105.229789">
  <ele>1583.0</ele>
  <time>2026-08-28T17:53:30Z</time>
  <course>0.0</course>
  <speed>0.0</speed>
  <fix>3d</fix>
</trkpt>
<trkpt lat="40.0713475" lon="-105.2297849">
  <ele>1583.32</ele>
  <time>2026-08-28T17:53:30Z</time>
  <course>27.78</course>
  <speed>4.6623599174666905</speed>
  <fix>3d</fix>
</trkpt>
<trkpt lat="40.0713749" lon="-105.229789">
  <ele>1583.0</ele>
  <time>2026-08-28T17:53:30Z</time>
  <course>0.0</course>
  <speed>0.0</speed>
  <fix>3d</fix>
</trkpt>
<trkpt lat="40.0713469" lon="-105.2297846">
  <ele>1583.35</ele>
  <time>2026-08-28T17:53:30Z</time>
  <course>27.67</course>
  <speed>4.710169848317574</speed>
  <fix>3d</fix>
</trkpt>
<trkpt lat="40.0713749" lon="-105.229789">
  <ele>1583.0</ele>
  <time>2026-08-28T17:53:30Z</time>
  <course>0.0</course>
  <speed>0.0</speed>
  <fix>3d</fix>
</trkpt>
<trkpt lat="40.0713453" lon="-105.229784">
  <ele>1583.39</ele>
  <time>2026-08-28T17:53:30Z</time>
  <course>27.57</course>
  <speed>4.838853169915367</speed>
  <fix>3d</fix>
</trkpt>
<trkpt lat="40.0713749" lon="-105.229789">
  <ele>1583.0</ele>
  <time>2026-08-28T17:53:30Z</time>
  <course>0.0</course>
  <speed>0.0</speed>
  <fix>3d</fix>
</trkpt>
<trkpt lat="40.0713449" lon="-105.2297837">
  <ele>1583.45</ele>
  <time>2026-08-28T17:53:30Z</time>
  <course>27.48</course>
  <speed>4.865850388164437</speed>
  <fix>3d</fix>
</trkpt>
<trkpt lat="40.0713749" lon="-105.229789">
  <ele>1583.0</ele>
  <time>2026-08-28T17:53:30Z</time>
  <course>0.0</course>
  <speed>0.0</speed>
  <fix>3d</fix>
</trkpt>
<trkpt lat="40.0713434" lon="-105.2297831">
  <ele>1583.51</ele>
  <time>2026-08-28T17:53:30Z</time>
  <course>27.39</course>
  <speed>4.965662090799172</speed>
  <fix>3d</fix>
</trkpt>
<trkpt lat="40.0713749" lon="-105.229789">
  <ele>1583.0</ele>
  <time>2026-08-28T17:53:30Z</time>
  <course>0.0</course>
  <speed>0.0</speed>
  <fix>3d</fix>
</trkpt>
<trkpt lat="40.0713432" lon="-105.2297828">
  <ele>1583.59</ele>
  <time>2026-08-28T17:53:30Z</time>
  <course>27.31</course>
  <speed>4.963839239943211</speed>
  <fix>3d</fix>
</trkpt>
<trkpt lat="40.0713749" lon="-105.229789">
  <ele>1583.0</ele>
  <time>2026-08-28T17:53:30Z</time>
  <course>0.0</course>
  <speed>0.0</speed>
  <fix>3d</fix>
</trkpt>
<trkpt lat="40.0713418" lon="-105.2297821">
  <ele>1583.67</ele>
  <time>2026-08-28T17:53:30Z</time>
  <course>27.23</course>
  <speed>5.052444952693696</speed>
  <fix>3d</fix>
</trkpt>
<trkpt lat="40.0713749" lon="-105.229789">
  <ele>1583.0</ele>
  <time>2026-08-28T17:53:30Z</time>
  <course>0.0</course>
  <speed>0.0</speed>
  <fix>3d</fix>
</trkpt>
<trkpt lat="40.0713417" lon="-105.2297819">
  <ele>1583.76</ele>
  <time>2026-08-28T17:53:30Z</time>
  <course>27.15</course>
  <speed>5.0295327814817945</speed>
  <fix>3d</fix>
</trkpt>
<trkpt lat="40.0713749" lon="-105.229789">
  <ele>1583.0</ele>
  <time>2026-08-28T17:53:30Z</time>
  <course>0.0</course>
  <speed>0.0</speed>
  <fix>3d</fix>
</trkpt>
<trkpt lat="40.0713404" lon="-105.2297812">
  <ele>1583.85</ele>
  <time>2026-08-28T17:53:30Z</time>
  <course>27.08</course>
  <speed>5.089322155258007</speed>
  <fix>3d</fix>
</trkpt>
<trkpt lat="40.0713749" lon="-105.229789">
  <ele>1583.0</ele>
  <time>2026-08-28T17:53:30Z</time>
  <course>0.0</course>
  <speed>0.0</speed>
  <fix>3d</fix>
</trkpt>
<trkpt lat="40.0713393" lon="-105.2297806">
  <ele>1583.97</ele>
  <time>2026-08-28T17:53:30Z</time>
  <course>27.01</course>
  <speed>5.149388313188276</speed>
  <fix>3d</fix>
</trkpt>
<trkpt lat="40.0713749" lon="-105.229789">
  <ele>1583.0</ele>
  <time>2026-08-28T17:53:30Z</time>
  <course>0.0</course>
  <speed>0.0</speed>
  <fix>3d</fix>
</trkpt>
<trkpt lat="40.0713374" lon="-105.2297798">
  <ele>1584.08</ele>
  <time>2026-08-28T17:53:30Z</time>
  <course>26.94</course>
  <speed>5.26066535715778</speed>
  <fix>3d</fix>
</trkpt>
<trkpt lat="40.0713749" lon="-105.229789">
  <ele>1583.0</ele>
  <time>2026-08-28T17:53:30Z</time>
  <course>0.0</course>
  <speed>0.0</speed>
  <fix>3d</fix>
</trkpt>
<trkpt lat="40.071336" lon="-105.229779">
  <ele>1584.21</ele>
  <time>2026-08-28T17:53:30Z</time>
  <course>26.87</course>
  <speed>5.330938003766317</speed>
  <fix>3d</fix>
</trkpt>
<trkpt lat="40.0713749" lon="-105.229789">
  <ele>1583.0</ele>
  <time>2026-08-28T17:53:30Z</time>
  <course>0.0</course>
  <speed>0.0</speed>
  <fix>3d</fix>
</trkpt>
<trkpt lat="40.0713338" lon="-105.2297781">
  <ele>1584.34</ele>
  <time>2026-08-28T17:53:30Z</time>
  <course>26.81</course>
  <speed>5.454841885884503</speed>
  <fix>3d</fix>
</trkpt>
<trkpt lat="40.0713749" lon="-105.229789">
  <ele>1583.0</ele>
  <time>2026-08-28T17:53:30Z</time>
  <course>0.0</course>
  <speed>0.0</speed>
  <fix>3d</fix>
</trkpt>
<trkpt lat="40.0713307" lon="-105.2297768">
  <ele>1584.47</ele>
  <time>2026-08-28T17:53:30Z</time>
  <course>26.74</course>
  <speed>5.620266897577018</speed>
  <fix>3d</fix>
</trkpt>
<trkpt lat="40.0713749" lon="-105.229789">
  <ele>1583.0</ele>
  <time>2026-08-28T17:53:30Z</time>
  <course>0.0</course>
  <speed>0.0</speed>
  <fix>3d</fix>
</trkpt>
<trkpt lat="40.0713268" lon="-105.2297752">
  <ele>1584.6</ele>
  <time>2026-08-28T17:53:30Z</time>
  <course>26.67</course>
  <speed>5.814894668005604</speed>
  <fix>3d</fix>
</trkpt>
<trkpt lat="40.0713749" lon="-105.229789">
  <ele>1583.0</ele>
  <time>2026-08-28T17:53:30Z</time>
  <course>0.0</course>
  <speed>0.0</speed>
  <fix>3d</fix>
</trkpt>
<trkpt lat="40.0713222" lon="-105.2297735">
  <ele>1584.72</ele>
  <time>2026-08-28T17:53:30Z</time>
  <course>26.6</course>
  <speed>6.031624988342694</speed>
  <fix>3d</fix>
</trkpt>
<trkpt lat="40.0713749" lon="-105.229789">
  <ele>1583.0</ele>
  <time>2026-08-28T17:53:30Z</time>
  <course>0.0</course>
  <speed>0.0</speed>
  <fix>3d</fix>
</trkpt>
<trkpt lat="40.0713172" lon="-105.2297715">
  <ele>1584.84</ele>
  <time>2026-08-28T17:53:30Z</time>
  <course>26.53</course>
  <speed>6.270510346056372</speed>
  <fix>3d</fix>
</trkpt>
<trkpt lat="40.0713749" lon="-105.229789">
  <ele>1583.0</ele>
  <time>2026-08-28T17:53:30Z</time>
  <course>0.0</course>
  <speed>0.0</speed>
  <fix>3d</fix>
</trkpt>
<trkpt lat="40.0713117" lon="-105.2297694">
  <ele>1584.96</ele>
  <time>2026-08-28T17:53:30Z</time>
  <course>26.46</course>
  <speed>6.519202405202649</speed>
  <fix>3d</fix>
</trkpt>
<trkpt lat="40.0713749" lon="-105.229789">
  <ele>1583.0</ele>
  <time>2026-08-28T17:53:30Z</time>
  <course>0.0</course>
  <speed>0.0</speed>
  <fix>3d</fix>
</trkpt>
<trkpt lat="40.0713058" lon="-105.2297671">
  <ele>1585.08</ele>
  <time>2026-08-28T17:53:30Z</time>
  <course>26.39</course>
  <speed>6.780479334088409</speed>
  <fix>3d</fix>
</trkpt>
<trkpt lat="40.0713749" lon="-105.229789">
  <ele>1583.0</ele>
  <time>2026-08-28T17:53:30Z</time>
  <course>0.0</course>
  <speed>0.0</speed>
  <fix>3d</fix>
</trkpt>
<trkpt lat="40.0712996" lon="-105.2297646">
  <ele>1585.2</ele>
  <time>2026-08-28T17:53:30Z</time>
  <course>26.32</course>
  <speed>7.039069540784492</speed>
  <fix>3d</fix>
</trkpt>
<trkpt lat="40.0713749" lon="-105.229789">
  <ele>1583.0</ele>
  <time>2026-08-28T17:53:30Z</time>
  <course>0.0</course>
  <speed>0.0</speed>
  <fix>3d</fix>
</trkpt>
<trkpt lat="40.0712931" lon="-105.229762">
  <ele>1585.32</ele>
  <time>2026-08-28T17:53:30Z</time>
  <course>26.25</course>
  <speed>7.31024623388296</speed>
  <fix>3d</fix>
</trkpt>
<trkpt lat="40.0713749" lon="-105.229789">
  <ele>1583.0</ele>
  <time>2026-08-28T17:53:30Z</time>
  <course>0.0</course>
  <speed>0.0</speed>
  <fix>3d</fix>
</trkpt>
<trkpt lat="40.0712862" lon="-105.2297592">
  <ele>1585.43</ele>
  <time>2026-08-28T17:53:30Z</time>
  <course>26.18</course>
  <speed>7.584536900826575</speed>
  <fix>3d</fix>
</trkpt>
<trkpt lat="40.0713749" lon="-105.229789">
  <ele>1583.0</ele>
  <time>2026-08-28T17:53:30Z</time>
  <course>0.0</course>
  <speed>0.0</speed>
  <fix>3d</fix>
</trkpt>
<trkpt lat="40.0712791" lon="-105.2297563">
  <ele>1585.55</ele>
  <time>2026-08-28T17:53:30Z</time>
  <course>26.11</course>
  <speed>7.8464832887096625</speed>
  <fix>3d</fix>
</trkpt>
<trkpt lat="40.0713749" lon="-105.229789">
  <ele>1583.0</ele>
  <time>2026-08-28T17:53:30Z</time>
  <course>0.0</course>
  <speed>0.0</speed>
  <fix>3d</fix>
</trkpt>
<trkpt lat="40.0712718" lon="-105.2297533">
  <ele>1585.66</ele>
  <time>2026-08-28T17:53:30Z</time>
  <course>26.04</course>
  <speed>8.121145239435137</speed>
  <fix>3d</fix>
</trkpt>
<trkpt lat="40.0713749" lon="-105.229789">
  <ele>1583.0</ele>
  <time>2026-08-28T17:53:30Z</time>
  <course>0.0</course>
  <speed>0.0</speed>
  <fix>3d</fix>
</trkpt>
<trkpt lat="40.0712642" lon="-105.2297501">
  <ele>1585.78</ele>
  <time>2026-08-28T17:53:30Z</time>
  <course>25.97</course>
  <speed>8.395981181493918</speed>
  <fix>3d</fix>
</trkpt>
<trkpt lat="40.0713749" lon="-105.229789">
  <ele>1583.0</ele>
  <time>2026-08-28T17:53:30Z</time>
  <course>0.0</course>
  <speed>0.0</speed>
  <fix>3d</fix>
</trkpt>
<trkpt lat="40.0712563" lon="-105.2297467">
  <ele>1585.89</ele>
  <time>2026-08-28T17:53:30Z</time>
  <course>25.9</course>
  <speed>8.667831331999949</speed>
  <fix>3d</fix>
</trkpt>
<trkpt lat="40.0713749" lon="-105.229789">
  <ele>1583.0</ele>
  <time>2026-08-28T17:53:30Z</time>
  <course>0.0</course>
  <speed>0.0</speed>
  <fix>3d</fix>
</trkpt>
<trkpt lat="40.0712483" lon="-105.2297432">
  <ele>1586.01</ele>
  <time>2026-08-28T17:53:30Z</time>
  <course>25.83</course>
  <speed>8.946110886860279</speed>
  <fix>3d</fix>
</trkpt>
<trkpt lat="40.0713749" lon="-105.229789">
  <ele>1583.0</ele>
  <time>2026-08-28T17:53:30Z</time>
  <course>0.0</course>
  <speed>0.0</speed>
  <fix>3d</fix>
</trkpt>
<trkpt lat="40.07124" lon="-105.2297396">
  <ele>1586.13</ele>
  <time>2026-08-28T17:53:30Z</time>
  <course>25.76</course>
  <speed>9.221377337469711</speed>
  <fix>3d</fix>
</trkpt>
<trkpt lat="40.0713749" lon="-105.229789">
  <ele>1583.0</ele>
  <time>2026-08-28T17:53:30Z</time>
  <course>0.0</course>
  <speed>0.0</speed>
  <fix>3d</fix>
</trkpt>
<trkpt lat="40.0712315" lon="-105.2297358">
  <ele>1586.24</ele>
  <time>2026-08-28T17:53:30Z</time>
  <course>25.7</course>
  <speed>9.496762606277994</speed>
  <fix>3d</fix>
</trkpt>
<trkpt lat="40.0713749" lon="-105.229789">
  <ele>1583.0</ele>
  <time>2026-08-28T17:53:30Z</time>
  <course>0.0</course>
  <speed>0.0</speed>
  <fix>3d</fix>
</trkpt>
<trkpt lat="40.0712227" lon="-105.2297319">
  <ele>1586.35</ele>
  <time>2026-08-28T17:53:30Z</time>
  <course>25.63</course>
  <speed>9.78498850280367</speed>
  <fix>3d</fix>
</trkpt>
<trkpt lat="40.0713749" lon="-105.229789">
  <ele>1583.0</ele>
  <time>2026-08-28T17:53:30Z</time>
  <course>0.0</course>
  <speed>0.0</speed>
  <fix>3d</fix>
</trkpt>
<trkpt lat="40.0712137" lon="-105.2297278">
  <ele>1586.46</ele>
  <time>2026-08-28T17:53:30Z</time>
  <course>25.56</course>
  <speed>10.063925675401226</speed>
  <fix>3d</fix>
</trkpt>
<trkpt lat="40.0713749" lon="-105.229789">
  <ele>1583.0</ele>
  <time>2026-08-28T17:53:30Z</time>
  <course>0.0</course>
  <speed>0.0</speed>
  <fix>3d</fix>
</trkpt>
<trkpt lat="40.0712045" lon="-105.2297236">
  <ele>1586.56</ele>
  <time>2026-08-28T17:53:30Z</time>
  <course>25.49</course>
  <speed>10.343016967983761</speed>
  <fix>3d</fix>
</trkpt>
<trkpt lat="40.0713749" lon="-105.229789">
  <ele>1583.0</ele>
  <time>2026-08-28T17:53:30Z</time>
  <course>0.0</course>
  <speed>0.0</speed>
  <fix>3d</fix>
</trkpt>
<trkpt lat="40.071195" lon="-105.2297192">
  <ele>1586.66</ele>
  <time>2026-08-28T17:53:30Z</time>
  <course>25.42</course>
  <speed>10.622250232413094</speed>
  <fix>3d</fix>
</trkpt>
<trkpt lat="40.0713749" lon="-105.229789">
  <ele>1583.0</ele>
  <time>2026-08-28T17:53:30Z</time>
  <course>0.0</course>
  <speed>0.0</speed>
  <fix>3d</fix>
</trkpt>
<trkpt lat="40.0711853" lon="-105.2297146">
  <ele>1586.76</ele>
  <time>2026-08-28T17:53:30Z</time>
  <course>25.35</course>
  <speed>10.914439976471538</speed>
  <fix>3d</fix>
</trkpt>
<trkpt lat="40.0713749" lon="-105.229789">
  <ele>1583.0</ele>
  <time>2026-08-28T17:53:30Z</time>
  <course>0.0</course>
  <speed>0.0</speed>
  <fix>3d</fix>
</trkpt>
<trkpt lat="40.0711753" lon="-105.2297098">
  <ele>1586.85</ele>
  <time>2026-08-28T17:53:30Z</time>
  <course>25.28</course>
  <speed>11.19741488023017</speed>
  <fix>3d</fix>
</trkpt>
<trkpt lat="40.0713749" lon="-105.229789">
  <ele>1583.0</ele>
  <time>2026-08-28T17:53:30Z</time>
  <course>0.0</course>
  <speed>0.0</speed>
  <fix>3d</fix>
</trkpt>
<trkpt lat="40.071165" lon="-105.2297049">
  <ele>1586.94</ele>
  <time>2026-08-28T17:53:30Z</time>
  <course>25.21</course>
  <speed>11.489930374027512</speed>
  <fix>3d</fix>
</trkpt>
<trkpt lat="40.0713749" lon="-105.229789">
  <ele>1583.0</ele>
  <time>2026-08-28T17:53:30Z</time>
  <course>0.0</course>
  <speed>0.0</speed>
  <fix>3d</fix>
</trkpt>
<trkpt lat="40.0711546" lon="-105.2296998">
  <ele>1587.02</ele>
  <time>2026-08-28T17:53:30Z</time>
  <course>25.14</course>
  <speed>11.77323235139781</speed>
  <fix>3d</fix>
</trkpt>
<trkpt lat="40.0713749" lon="-105.229789">
  <ele>1583.0</ele>
  <time>2026-08-28T17:53:30Z</time>
  <course>0.0</course>
  <speed>0.0</speed>
  <fix>3d</fix>
</trkpt>
<trkpt lat="40.0711438" lon="-105.2296945">
  <ele>1587.1</ele>
  <time>2026-08-28T17:53:30Z</time>
  <course>25.07</course>
  <speed>12.066026686527756</speed>
  <fix>3d</fix>
</trkpt>
<trkpt lat="40.0713749" lon="-105.229789">
  <ele>1583.0</ele>
  <time>2026-08-28T17:53:30Z</time>
  <course>0.0</course>
  <speed>0.0</speed>
  <fix>3d</fix>
</trkpt>
<trkpt lat="40.071133" lon="-105.2296891">
  <ele>1587.18</ele>
  <time>2026-08-28T17:53:30Z</time>
  <course>25.0</course>
  <speed>12.34961132991642</speed>
  <fix>3d</fix>
</trkpt>
<trkpt lat="40.0713749" lon="-105.229789">
  <ele>1583.0</ele>
  <time>2026-08-28T17:53:30Z</time>
  <course>0.0</course>
  <speed>0.0</speed>
  <fix>3d</fix>
</trkpt>
<trkpt lat="40.0711217" lon="-105.2296834">
  <ele>1587.26</ele>
  <time>2026-08-28T17:53:30Z</time>
  <course>24.93</course>
  <speed>12.646280085463868</speed>
  <fix>3d</fix>
</trkpt>
<trkpt lat="40.0713749" lon="-105.229789">
  <ele>1583.0</ele>
  <time>2026-08-28T17:53:30Z</time>
  <course>0.0</course>
  <speed>0.0</speed>
  <fix>3d</fix>
</trkpt>
<trkpt lat="40.0711103" lon="-105.2296776">
  <ele>1587.34</ele>
  <time>2026-08-28T17:53:30Z</time>
  <course>24.86</course>
  <speed>12.943110136284865</speed>
  <fix>3d</fix>
</trkpt>
<trkpt lat="40.0713749" lon="-105.229789">
  <ele>1583.0</ele>
  <time>2026-08-28T17:53:30Z</time>
  <course>0.0</course>
  <speed>0.0</speed>
  <fix>3d</fix>
</trkpt>
<trkpt lat="40.0710985" lon="-105.2296716">
  <ele>1587.41</ele>
  <time>2026-08-28T17:53:30Z</time>
  <course>24.79</course>
  <speed>13.24009063413087</speed>
  <fix>3d</fix>
</trkpt>
<trkpt lat="40.0713749" lon="-105.229789">
  <ele>1583.0</ele>
  <time>2026-08-28T17:53:30Z</time>
  <course>0.0</course>
  <speed>0.0</speed>
  <fix>3d</fix>
</trkpt>
<trkpt lat="40.0710864" lon="-105.2296653">
  <ele>1587.48</ele>
  <time>2026-08-28T17:53:30Z</time>
  <course>24.72</course>
  <speed>13.540945314120428</speed>
  <fix>3d</fix>
</trkpt>
<trkpt lat="40.0713749" lon="-105.229789">
  <ele>1583.0</ele>
  <time>2026-08-28T17:53:30Z</time>
  <course>0.0</course>
  <speed>0.0</speed>
  <fix>3d</fix>
</trkpt>
<trkpt lat="40.071074" lon="-105.2296588">
  <ele>1587.54</ele>
  <time>2026-08-28T17:53:30Z</time>
  <course>24.64</course>
  <speed>13.851256260715127</speed>
  <fix>3d</fix>
</trkpt>
<trkpt lat="40.0713749" lon="-105.229789">
  <ele>1583.0</ele>
  <time>2026-08-28T17:53:30Z</time>
  <course>0.0</course>
  <speed>0.0</speed>
  <fix>3d</fix>
</trkpt>
<trkpt lat="40.0710614" lon="-105.2296521">
  <ele>1587.59</ele>
  <time>2026-08-28T17:53:30Z</time>
  <course>24.57</course>
  <speed>14.152473282080416</speed>
  <fix>3d</fix>
</trkpt>
<trkpt lat="40.0713749" lon="-105.229789">
  <ele>1583.0</ele>
  <time>2026-08-28T17:53:30Z</time>
  <course>0.0</course>
  <speed>0.0</speed>
  <fix>3d</fix>
</trkpt>
<trkpt lat="40.0710486" lon="-105.2296452">
  <ele>1587.64</ele>
  <time>2026-08-28T17:53:30Z</time>
  <course>24.5</course>
  <speed>14.463097870096849</speed>
  <fix>3d</fix>
</trkpt>
<trkpt lat="40.0713749" lon="-105.229789">
  <ele>1583.0</ele>
  <time>2026-08-28T17:53:30Z</time>
  <course>0.0</course>
  <speed>0.0</speed>
  <fix>3d</fix>
</trkpt>
<trkpt lat="40.0710354" lon="-105.2296381">
  <ele>1587.69</ele>
  <time>2026-08-28T17:53:30Z</time>
  <course>24.42</course>
  <speed>14.76849687679826</speed>
  <fix>3d</fix>
</trkpt>
<trkpt lat="40.0713749" lon="-105.229789">
  <ele>1583.0</ele>
  <time>2026-08-28T17:53:30Z</time>
  <course>0.0</course>
  <speed>0.0</speed>
  <fix>3d</fix>
</trkpt>
<trkpt lat="40.071022" lon="-105.2296308">
  <ele>1587.73</ele>
  <time>2026-08-28T17:53:30Z</time>
  <course>24.35</course>
  <speed>15.083318600361128</speed>
  <fix>3d</fix>
</trkpt>
<trkpt lat="40.0713749" lon="-105.229789">
  <ele>1583.0</ele>
  <time>2026-08-28T17:53:30Z</time>
  <course>0.0</course>
  <speed>0.0</speed>
  <fix>3d</fix>
</trkpt>
<trkpt lat="40.0710083" lon="-105.2296232">
  <ele>1587.77</ele>
  <time>2026-08-28T17:53:30Z</time>
  <course>24.27</course>
  <speed>15.398314842865112</speed>
  <fix>3d</fix>
</trkpt>
<trkpt lat="40.0713749" lon="-105.229789">
  <ele>1583.0</ele>
  <time>2026-08-28T17:53:30Z</time>
  <course>0.0</course>
  <speed>0.0</speed>
  <fix>3d</fix>
</trkpt>
<trkpt lat="40.0709943" lon="-105.2296154">
  <ele>1587.81</ele>
  <time>2026-08-28T17:53:30Z</time>
  <course>24.2</course>
  <speed>15.713475108963006</speed>
  <fix>3d</fix>
</trkpt>
<trkpt lat="40.0713749" lon="-105.229789">
  <ele>1583.0</ele>
  <time>2026-08-28T17:53:30Z</time>
  <course>0.0</course>
  <speed>0.0</speed>
  <fix>3d</fix>
</trkpt>
<trkpt lat="40.07098" lon="-105.2296074">
  <ele>1587.85</ele>
  <time>2026-08-28T17:53:30Z</time>
  <course>24.12</course>
  <speed>16.032778923193572</speed>
  <fix>3d</fix>
</trkpt>
<trkpt lat="40.0713749" lon="-105.229789">
  <ele>1583.0</ele>
  <time>2026-08-28T17:53:30Z</time>
  <course>0.0</course>
  <speed>0.0</speed>
  <fix>3d</fix>
</trkpt>
<trkpt lat="40.0709655" lon="-105.2295991">
  <ele>1587.89</ele>
  <time>2026-08-28T17:53:30Z</time>
  <course>24.04</course>
  <speed>16.352287301781363</speed>
  <fix>3d</fix>
</trkpt>
<trkpt lat="40.0713749" lon="-105.229789">
  <ele>1583.0</ele>
  <time>2026-08-28T17:53:30Z</time>
  <course>0.0</course>
  <speed>0.0</speed>
  <fix>3d</fix>
</trkpt>
<trkpt lat="40.0709506" lon="-105.2295906">
  <ele>1587.93</ele>
  <time>2026-08-28T17:53:30Z</time>
  <course>23.97</course>
  <speed>16.671988483681243</speed>
  <fix>3d</fix>
</trkpt>
<trkpt lat="40.0713749" lon="-105.229789">
  <ele>1583.0</ele>
  <time>2026-08-28T17:53:30Z</time>
  <course>0.0</course>
  <speed>0.0</speed>
  <fix>3d</fix>
</trkpt>
<trkpt lat="40.0709355" lon="-105.2295819">
  <ele>1587.96</ele>
  <time>2026-08-28T17:53:30Z</time>
  <course>23.89</course>
  <speed>16.99187158614377</speed>
  <fix>3d</fix>
</trkpt>
<trkpt lat="40.0713749" lon="-105.229789">
  <ele>1583.0</ele>
  <time>2026-08-28T17:53:30Z</time>
  <course>0.0</course>
  <speed>0.0</speed>
  <fix>3d</fix>
</trkpt>
<trkpt lat="40.0709201" lon="-105.2295728">
  <ele>1588.0</ele>
  <time>2026-08-28T17:53:30Z</time>
  <course>23.81</course>
  <speed>17.316041695491496</speed>
  <fix>3d</fix>
</trkpt>
<trkpt lat="40.0713749" lon="-105.229789">
  <ele>1583.0</ele>
  <time>2026-08-28T17:53:30Z</time>
  <course>0.0</course>
  <speed>0.0</speed>
  <fix>3d</fix>
</trkpt>
<trkpt lat="40.0709044" lon="-105.2295636">
  <ele>1588.02</ele>
  <time>2026-08-28T17:53:30Z</time>
  <course>23.73</course>
  <speed>17.634738444331973</speed>
  <fix>3d</fix>
</trkpt>
<trkpt lat="40.0713749" lon="-105.229789">
  <ele>1583.0</ele>
  <time>2026-08-28T17:53:30Z</time>
  <course>0.0</course>
  <speed>0.0</speed>
  <fix>3d</fix>
</trkpt>
<trkpt lat="40.0708883" lon="-105.2295541">
  <ele>1588.03</ele>
  <time>2026-08-28T17:53:30Z</time>
  <course>23.65</course>
  <speed>17.957561081616845</speed>
  <fix>3d</fix>
</trkpt>
<trkpt lat="40.0713749" lon="-105.229789">
  <ele>1583.0</ele>
  <time>2026-08-28T17:53:30Z</time>
  <course>0.0</course>
  <speed>0.0</speed>
  <fix>3d</fix>
</trkpt>
<trkpt lat="40.0708719" lon="-105.2295446">
  <ele>1588.03</ele>
  <time>2026-08-28T17:53:30Z</time>
  <course>23.57</course>
  <speed>18.27630433101835</speed>
  <fix>3d</fix>
</trkpt>
<trkpt lat="40.0713749" lon="-105.229789">
  <ele>1583.0</ele>
  <time>2026-08-28T17:53:30Z</time>
  <course>0.0</course>
  <speed>0.0</speed>
  <fix>3d</fix>
</trkpt>
<trkpt lat="40.0708553" lon="-105.2295348">
  <ele>1588.0</ele>
  <time>2026-08-28T17:53:30Z</time>
  <course>23.49</course>
  <speed>18.59915320653067</speed>
  <fix>3d</fix>
</trkpt>
<trkpt lat="40.0713749" lon="-105.229789">
  <ele>1583.0</ele>
  <time>2026-08-28T17:53:30Z</time>
  <course>0.0</course>
  <speed>0.0</speed>
  <fix>3d</fix>
</trkpt>
<trkpt lat="40.0708384" lon="-105.2295249">
  <ele>1587.96</ele>
  <time>2026-08-28T17:53:30Z</time>
  <course>23.41</course>
  <speed>18.935218509433685</speed>
  <fix>3d</fix>
</trkpt>
<trkpt lat="40.0713749" lon="-105.229789">
  <ele>1583.0</ele>
  <time>2026-08-28T17:53:30Z</time>
  <course>0.0</course>
  <speed>0.0</speed>
  <fix>3d</fix>
</trkpt>
<trkpt lat="40.0708211" lon="-105.2295147">
  <ele>1587.9</ele>
  <time>2026-08-28T17:53:30Z</time>
  <course>23.33</course>
  <speed>19.258081420536158</speed>
  <fix>3d</fix>
</trkpt>
<trkpt lat="40.0713749" lon="-105.229789">
  <ele>1583.0</ele>
  <time>2026-08-28T17:53:30Z</time>
  <course>0.0</course>
  <speed>0.0</speed>
  <fix>3d</fix>
</trkpt>
<trkpt lat="40.0708036" lon="-105.2295044">
  <ele>1587.84</ele>
  <time>2026-08-28T17:53:30Z</time>
  <course>23.25</course>
  <speed>19.585019785540172</speed>
  <fix>3d</fix>
</trkpt>
<trkpt lat="40.0713749" lon="-105.229789">
  <ele>1583.0</ele>
  <time>2026-08-28T17:53:30Z</time>
  <course>0.0</course>
  <speed>0.0</speed>
  <fix>3d</fix>
</trkpt>
<trkpt lat="40.0707857" lon="-105.2294939">
  <ele>1587.76</ele>
  <time>2026-08-28T17:53:30Z</time>
  <course>23.16</course>
  <speed>19.92109434744989</speed>
  <fix>3d</fix>
</trkpt>
<trkpt lat="40.0713749" lon="-105.229789">
  <ele>1583.0</ele>
  <time>2026-08-28T17:53:30Z</time>
  <course>0.0</course>
  <speed>0.0</speed>
  <fix>3d</fix>
</trkpt>
<trkpt lat="40.0707674" lon="-105.2294831">
  <ele>1587.68</ele>
  <time>2026-08-28T17:53:30Z</time>
  <course>23.08</course>
  <speed>20.252101125562255</speed>
  <fix>3d</fix>
</trkpt>
<trkpt lat="40.0713749" lon="-105.229789">
  <ele>1583.0</ele>
  <time>2026-08-28T17:53:30Z</time>
  <course>0.0</course>
  <speed>0.0</speed>
  <fix>3d</fix>
</trkpt>
<trkpt lat="40.0707489" lon="-105.2294722">
  <ele>1587.58</ele>
  <time>2026-08-28T17:53:30Z</time>
  <course>23.0</course>
  <speed>20.58817621840264</speed>
  <fix>3d</fix>
</trkpt>
<trkpt lat="40.0713749" lon="-105.229789">
  <ele>1583.0</ele>
  <time>2026-08-28T17:53:30Z</time>
  <course>0.0</course>
  <speed>0.0</speed>
  <fix>3d</fix>
</trkpt>
<trkpt lat="40.0707301" lon="-105.2294611">
  <ele>1587.47</ele>
  <time>2026-08-28T17:53:30Z</time>
  <course>22.91</course>
  <speed>20.919182584412805</speed>
  <fix>3d</fix>
</trkpt>
<trkpt lat="40.0713749" lon="-105.229789">
  <ele>1583.0</ele>
  <time>2026-08-28T17:53:30Z</time>
  <course>0.0</course>
  <speed>0.0</speed>
  <fix>3d</fix>
</trkpt>
<trkpt lat="40.0707111" lon="-105.2294499">
  <ele>1587.35</ele>
  <time>2026-08-28T17:53:30Z</time>
  <course>22.83</course>
  <speed>21.259325012803206</speed>
  <fix>3d</fix>
</trkpt>
<trkpt lat="40.0713749" lon="-105.229789">
  <ele>1583.0</ele>
  <time>2026-08-28T17:53:30Z</time>
  <course>0.0</course>
  <speed>0.0</speed>
  <fix>3d</fix>
</trkpt>
<trkpt lat="40.0706918" lon="-105.2294384">
  <ele>1587.22</ele>
  <time>2026-08-28T17:53:30Z</time>
  <course>22.75</course>
  <speed>21.594406683213133</speed>
  <fix>3d</fix>
</trkpt>
<trkpt lat="40.0713749" lon="-105.229789">
  <ele>1583.0</ele>
  <time>2026-08-28T17:53:30Z</time>
  <course>0.0</course>
  <speed>0.0</speed>
  <fix>3d</fix>
</trkpt>
<trkpt lat="40.0706722" lon="-105.2294268">
  <ele>1587.09</ele>
  <time>2026-08-28T17:53:30Z</time>
  <course>22.66</course>
  <speed>21.92541903818488</speed>
  <fix>3d</fix>
</trkpt>
<trkpt lat="40.0713749" lon="-105.229789">
  <ele>1583.0</ele>
  <time>2026-08-28T17:53:30Z</time>
  <course>0.0</course>
  <speed>0.0</speed>
  <fix>3d</fix>
</trkpt>
<trkpt lat="40.0706523" lon="-105.2294149">
  <ele>1586.94</ele>
  <time>2026-08-28T17:53:30Z</time>
  <course>22.58</course>
  <speed>22.269643014651134</speed>
  <fix>3d</fix>
</trkpt>
<trkpt lat="40.0713749" lon="-105.229789">
  <ele>1583.0</ele>
  <time>2026-08-28T17:53:30Z</time>
  <course>0.0</course>
  <speed>0.0</speed>
  <fix>3d</fix>
</trkpt>
<trkpt lat="40.0706322" lon="-105.229403">
  <ele>1586.8</ele>
  <time>2026-08-28T17:53:30Z</time>
  <course>22.5</course>
  <speed>22.60474507708503</speed>
  <fix>3d</fix>
</trkpt>
<trkpt lat="40.0713749" lon="-105.229789">
  <ele>1583.0</ele>
  <time>2026-08-28T17:53:30Z</time>
  <course>0.0</course>
  <speed>0.0</speed>
  <fix>3d</fix>
</trkpt>
<trkpt lat="40.0706118" lon="-105.2293908">
  <ele>1586.64</ele>
  <time>2026-08-28T17:53:30Z</time>
  <course>22.41</course>
  <speed>22.939856146018005</speed>
  <fix>3d</fix>
</trkpt>
<trkpt lat="40.0713749" lon="-105.229789">
  <ele>1583.0</ele>
  <time>2026-08-28T17:53:30Z</time>
  <course>0.0</course>
  <speed>0.0</speed>
  <fix>3d</fix>
</trkpt>
<trkpt lat="40.0705912" lon="-105.2293784">
  <ele>1586.48</ele>
  <time>2026-08-28T17:53:30Z</time>
  <course>22.33</course>
  <speed>23.27497583242569</speed>
  <fix>3d</fix>
</trkpt>
<trkpt lat="40.0713749" lon="-105.229789">
  <ele>1583.0</ele>
  <time>2026-08-28T17:53:30Z</time>
  <course>0.0</course>
  <speed>0.0</speed>
  <fix>3d</fix>
</trkpt>
<trkpt lat="40.0705703" lon="-105.2293659">
  <ele>1586.31</ele>
  <time>2026-08-28T17:53:30Z</time>
  <course>22.25</course>
  <speed>23.610103769361118</speed>
  <fix>3d</fix>
</trkpt>
<trkpt lat="40.0713749" lon="-105.229789">
  <ele>1583.0</ele>
  <time>2026-08-28T17:53:30Z</time>
  <course>0.0</course>
  <speed>0.0</speed>
  <fix>3d</fix>
</trkpt>
<trkpt lat="40.0705491" lon="-105.2293531">
  <ele>1586.14</ele>
  <time>2026-08-28T17:53:30Z</time>
  <course>22.16</course>
  <speed>23.94935072188806</speed>
  <fix>3d</fix>
</trkpt>
<trkpt lat="40.0713749" lon="-105.229789">
  <ele>1583.0</ele>
  <time>2026-08-28T17:53:30Z</time>
  <course>0.0</course>
  <speed>0.0</speed>
  <fix>3d</fix>
</trkpt>
<trkpt lat="40.0705277" lon="-105.2293402">
  <ele>1585.96</ele>
  <time>2026-08-28T17:53:30Z</time>
  <course>22.08</course>
  <speed>24.27538671164684</speed>
  <fix>3d</fix>
</trkpt>
<trkpt lat="40.0713749" lon="-105.229789">
  <ele>1583.0</ele>
  <time>2026-08-28T17:53:30Z</time>
  <course>0.0</course>
  <speed>0.0</speed>
  <fix>3d</fix>
</trkpt>
<trkpt lat="40.0705061" lon="-105.2293271">
  <ele>1585.78</ele>
  <time>2026-08-28T17:53:30Z</time>
  <course>22.0</course>
  <speed>24.614670422331475</speed>
  <fix>3d</fix>
</trkpt>
<trkpt lat="40.0713749" lon="-105.229789">
  <ele>1583.0</ele>
  <time>2026-08-28T17:53:30Z</time>
  <course>0.0</course>
  <speed>0.0</speed>
  <fix>3d</fix>
</trkpt>
<trkpt lat="40.070484" lon="-105.2293138">
  <ele>1585.59</ele>
  <time>2026-08-28T17:53:30Z</time>
  <course>21.91</course>
  <speed>24.953973631467992</speed>
  <fix>3d</fix>
</trkpt>
<trkpt lat="40.0713749" lon="-105.229789">
  <ele>1583.0</ele>
  <time>2026-08-28T17:53:30Z</time>
  <course>0.0</course>
  <speed>0.0</speed>
  <fix>3d</fix>
</trkpt>
<trkpt lat="40.0704619" lon="-105.2293004">
  <ele>1585.41</ele>
  <time>2026-08-28T17:53:30Z</time>
  <course>21.83</course>
  <speed>25.284194667815704</speed>
  <fix>3d</fix>
</trkpt>
<trkpt lat="40.0713749" lon="-105.229789">
  <ele>1583.0</ele>
  <time>2026-08-28T17:53:30Z</time>
  <course>0.0</course>
  <speed>0.0</speed>
  <fix>3d</fix>
</trkpt>
<trkpt lat="40.0704397" lon="-105.2292868">
  <ele>1585.22</ele>
  <time>2026-08-28T17:53:30Z</time>
  <course>21.75</course>
  <speed>25.614441239269695</speed>
  <fix>3d</fix>
</trkpt>
<trkpt lat="40.0713749" lon="-105.229789">
  <ele>1583.0</ele>
  <time>2026-08-28T17:53:30Z</time>
  <course>0.0</course>
  <speed>0.0</speed>
  <fix>3d</fix>
</trkpt>
<trkpt lat="40.0704173" lon="-105.2292732">
  <ele>1585.03</ele>
  <time>2026-08-28T17:53:30Z</time>
  <course>21.67</course>
  <speed>25.944712370731725</speed>
  <fix>3d</fix>
</trkpt>
<trkpt lat="40.0713749" lon="-105.229789">
  <ele>1583.0</ele>
  <time>2026-08-28T17:53:30Z</time>
  <course>0.0</course>
  <speed>0.0</speed>
  <fix>3d</fix>
</trkpt>
<trkpt lat="40.0713749" lon="-105.229789">
  <ele>1583.0</ele>
  <time>2026-08-28T17:53:30Z</time>
  <course>21.59</course>
  <speed>0.05830951894845301</speed>
  <fix>3d</fix>
</trkpt>
<trkpt lat="40.0713749" lon="-105.229789">
  <ele>1583.0</ele>
  <time>2026-08-28T17:53:30Z</time>
  <course>0.0</course>
  <speed>0.0</speed>
  <fix>3d</fix>
</trkpt>
<trkpt lat="40.0713749" lon="-105.229789">
  <ele>1583.0</ele>
  <time>2026-08-28T17:53:30Z</time>
  <course>21.51</course>
  <speed>0.4341658669218482</speed>
  <fix>3d</fix>
</trkpt>
<trkpt lat="40.0713749" lon="-105.229789">
  <ele>1583.0</ele>
  <time>2026-08-28T17:53:30Z</time>
  <course>0.0</course>
  <speed>0.0</speed>
  <fix>3d</fix>
</trkpt>
<trkpt lat="40.0713735" lon="-105.229788">
  <ele>1584.48</ele>
  <time>2026-08-28T17:53:30Z</time>
  <course>21.43</course>
  <speed>0.7925906888173744</speed>
  <fix>3d</fix>
</trkpt>
<trkpt lat="40.0713749" lon="-105.229789">
  <ele>1583.0</ele>
  <time>2026-08-28T17:53:30Z</time>
  <course>0.0</course>
  <speed>0.0</speed>
  <fix>3d</fix>
</trkpt>
<trkpt lat="40.0713721" lon="-105.2297869">
  <ele>1584.31</ele>
  <time>2026-08-28T17:53:30Z</time>
  <course>21.35</course>
  <speed>1.1374093370462546</speed>
  <fix>3d</fix>
</trkpt>
<trkpt lat="40.0713749" lon="-105.229789">
  <ele>1583.0</ele>
  <time>2026-08-28T17:53:30Z</time>
  <course>0.0</course>
  <speed>0.0</speed>
  <fix>3d</fix>
</trkpt>
<trkpt lat="40.071371" lon="-105.2297861">
  <ele>1584.16</ele>
  <time>2026-08-28T17:53:30Z</time>
  <course>21.28</course>
  <speed>1.3705838172107534</speed>
  <fix>3d</fix>
</trkpt>
<trkpt lat="40.0713749" lon="-105.229789">
  <ele>1583.0</ele>
  <time>2026-08-28T17:53:30Z</time>
  <course>0.0</course>
  <speed>0.0</speed>
  <fix>3d</fix>
</trkpt>
<trkpt lat="40.0713698" lon="-105.2297852">
  <ele>1584.01</ele>
  <time>2026-08-28T17:53:30Z</time>
  <course>21.21</course>
  <speed>1.6260996279441184</speed>
  <fix>3d</fix>
</trkpt>
<trkpt lat="40.0713749" lon="-105.229789">
  <ele>1583.0</ele>
  <time>2026-08-28T17:53:30Z</time>
  <course>0.0</course>
  <speed>0.0</speed>
  <fix>3d</fix>
</trkpt>
<trkpt lat="40.0713689" lon="-105.2297845">
  <ele>1583.88</ele>
  <time>2026-08-28T17:53:30Z</time>
  <course>21.15</course>
  <speed>1.7923448328934921</speed>
  <fix>3d</fix>
</trkpt>
<trkpt lat="40.0713749" lon="-105.229789">
  <ele>1583.0</ele>
  <time>2026-08-28T17:53:30Z</time>
  <course>0.0</course>
  <speed>0.0</speed>
  <fix>3d</fix>
</trkpt>
<trkpt lat="40.0713678" lon="-105.2297837">
  <ele>1583.75</ele>
  <time>2026-08-28T17:53:30Z</time>
  <course>21.09</course>
  <speed>1.989572818471342</speed>
  <fix>3d</fix>
</trkpt>
<trkpt lat="40.0713749" lon="-105.229789">
  <ele>1583.0</ele>
  <time>2026-08-28T17:53:30Z</time>
  <course>0.0</course>
  <speed>0.0</speed>
  <fix>3d</fix>
</trkpt>
<trkpt lat="40.071367" lon="-105.2297831">
  <ele>1583.64</ele>
  <time>2026-08-28T17:53:30Z</time>
  <course>21.03</course>
  <speed>2.119858485842864</speed>
  <fix>3d</fix>
</trkpt>
<trkpt lat="40.0713749" lon="-105.229789">
  <ele>1583.0</ele>
  <time>2026-08-28T17:53:30Z</time>
  <course>0.0</course>
  <speed>0.0</speed>
  <fix>3d</fix>
</trkpt>
<trkpt lat="40.0713661" lon="-105.2297824">
  <ele>1583.52</ele>
  <time>2026-08-28T17:53:30Z</time>
  <course>20.97</course>
  <speed>2.286153975566825</speed>
  <fix>3d</fix>
</trkpt>
<trkpt lat="40.0713749" lon="-105.229789">
  <ele>1583.0</ele>
  <time>2026-08-28T17:53:30Z</time>
  <course>0.0</course>
  <speed>0.0</speed>
  <fix>3d</fix>
</trkpt>
<trkpt lat="40.0713654" lon="-105.2297818">
  <ele>1583.42</ele>
  <time>2026-08-28T17:53:30Z</time>
  <course>20.92</course>
  <speed>2.4078621222985337</speed>
  <fix>3d</fix>
</trkpt>
<trkpt lat="40.0713749" lon="-105.229789">
  <ele>1583.0</ele>
  <time>2026-08-28T17:53:30Z</time>
  <course>0.0</course>
  <speed>0.0</speed>
  <fix>3d</fix>
</trkpt>
<trkpt lat="40.0713645" lon="-105.2297811">
  <ele>1583.31</ele>
  <time>2026-08-28T17:53:30Z</time>
  <course>20.88</course>
  <speed>2.5519012520080007</speed>
  <fix>3d</fix>
</trkpt>
<trkpt lat="40.0713749" lon="-105.229789">
  <ele>1583.0</ele>
  <time>2026-08-28T17:53:30Z</time>
  <course>0.0</course>
  <speed>0.0</speed>
  <fix>3d</fix>
</trkpt>
<trkpt lat="40.071364" lon="-105.2297807">
  <ele>1583.23</ele>
  <time>2026-08-28T17:53:30Z</time>
  <course>20.84</course>
  <speed>2.6462237244798485</speed>
  <fix>3d</fix>
</trkpt>
<trkpt lat="40.0713749" lon="-105.229789">
  <ele>1583.0</ele>
  <time>2026-08-28T17:53:30Z</time>
  <course>0.0</course>
  <speed>0.0</speed>
  <fix>3d</fix>
</trkpt>
<trkpt lat="40.0713632" lon="-105.22978">
  <ele>1583.14</ele>
  <time>2026-08-28T17:53:30Z</time>
  <course>20.81</course>
  <speed>2.7679956647364894</speed>
  <fix>3d</fix>
</trkpt>
<trkpt lat="40.0713749" lon="-105.229789">
  <ele>1583.0</ele>
  <time>2026-08-28T17:53:30Z</time>
  <course>0.0</course>
  <speed>0.0</speed>
  <fix>3d</fix>
</trkpt>
<trkpt lat="40.0713627" lon="-105.2297796">
  <ele>1583.08</ele>
  <time>2026-08-28T17:53:30Z</time>
  <course>20.78</course>
  <speed>2.8400352110493277</speed>
  <fix>3d</fix>
</trkpt>
<trkpt lat="40.0713749" lon="-105.229789">
  <ele>1583.0</ele>
  <time>2026-08-28T17:53:30Z</time>
  <course>0.0</course>
  <speed>0.0</speed>
  <fix>3d</fix>
</trkpt>
<trkpt lat="40.0713619" lon="-105.229779">
  <ele>1583.0</ele>
  <time>2026-08-28T17:53:30Z</time>
  <course>20.76</course>
  <speed>2.948101083748656</speed>
  <fix>3d</fix>
</trkpt>
<trkpt lat="40.0713749" lon="-105.229789">
  <ele>1583.0</ele>
  <time>2026-08-28T17:53:30Z</time>
  <course>0.0</course>
  <speed>0.0</speed>
  <fix>3d</fix>
</trkpt>
<trkpt lat="40.0713614" lon="-105.2297786">
  <ele>1582.95</ele>
  <time>2026-08-28T17:53:30Z</time>
  <course>20.75</course>
  <speed>3.0116108646370634</speed>
  <fix>3d</fix>
</trkpt>
<trkpt lat="40.0713749" lon="-105.229789">
  <ele>1583.0</ele>
  <time>2026-08-28T17:53:30Z</time>
  <course>0.0</course>
  <speed>0.0</speed>
  <fix>3d</fix>
</trkpt>
<trkpt lat="40.0713607" lon="-105.229778">
  <ele>1582.89</ele>
  <time>2026-08-28T17:53:30Z</time>
  <course>20.74</course>
  <speed>3.105945910668761</speed>
  <fix>3d</fix>
</trkpt>
<trkpt lat="40.0713749" lon="-105.229789">
  <ele>1583.0</ele>
  <time>2026-08-28T17:53:30Z</time>
  <course>0.0</course>
  <speed>0.0</speed>
  <fix>3d</fix>
</trkpt>
<trkpt lat="40.0713605" lon="-105.2297778">
  <ele>1582.86</ele>
  <time>2026-08-28T17:53:30Z</time>
  <course>20.74</course>
  <speed>3.1196954979613</speed>
  <fix>3d</fix>
</trkpt>
<trkpt lat="40.0713749" lon="-105.229789">
  <ele>1583.0</ele>
  <time>2026-08-28T17:53:30Z</time>
  <course>0.0</course>
  <speed>0.0</speed>
  <fix>3d</fix>
</trkpt>
<trkpt lat="40.0713597" lon="-105.2297772">
  <ele>1582.8</ele>
  <time>2026-08-28T17:53:30Z</time>
  <course>20.74</course>
  <speed>3.2055108797194873</speed>
  <fix>3d</fix>
</trkpt>
<trkpt lat="40.0713749" lon="-105.229789">
  <ele>1583.0</ele>
  <time>2026-08-28T17:53:30Z</time>
  <course>0.0</course>
  <speed>0.0</speed>
  <fix>3d</fix>
</trkpt>
<trkpt lat="40.0713595" lon="-105.2297771">
  <ele>1582.78</ele>
  <time>2026-08-28T17:53:30Z</time>
  <course>20.76</course>
  <speed>3.2192701036104445</speed>
  <fix>3d</fix>
</trkpt>
<trkpt lat="40.0713749" lon="-105.229789">
  <ele>1583.0</ele>
  <time>2026-08-28T17:53:30Z</time>
  <course>0.0</course>
  <speed>0.0</speed>
  <fix>3d</fix>
</trkpt>
<trkpt lat="40.0713587" lon="-105.2297765">
  <ele>1582.73</ele>
  <time>2026-08-28T17:53:30Z</time>
  <course>20.76</course>
  <speed>3.2913371143047625</speed>
  <fix>3d</fix>
</trkpt>
<trkpt lat="40.0713749" lon="-105.229789">
  <ele>1583.0</ele>
  <time>2026-08-28T17:53:30Z</time>
  <course>0.0</course>
  <speed>0.0</speed>
  <fix>3d</fix>
</trkpt>
<trkpt lat="40.0713586" lon="-105.2297764">
  <ele>1582.72</ele>
  <time>2026-08-28T17:53:30Z</time>
  <course>20.78</course>
  <speed>3.2775753233144775</speed>
  <fix>3d</fix>
</trkpt>
<trkpt lat="40.0713749" lon="-105.229789">
  <ele>1583.0</ele>
  <time>2026-08-28T17:53:30Z</time>
  <course>0.0</course>
  <speed>0.0</speed>
  <fix>3d</fix>
</trkpt>
<trkpt lat="40.0713579" lon="-105.2297758">
  <ele>1582.68</ele>
  <time>2026-08-28T17:53:30Z</time>
  <course>20.79</course>
  <speed>3.341137530841854</speed>
  <fix>3d</fix>
</trkpt>
<trkpt lat="40.0713749" lon="-105.229789">
  <ele>1583.0</ele>
  <time>2026-08-28T17:53:30Z</time>
  <course>0.0</course>
  <speed>0.0</speed>
  <fix>3d</fix>
</trkpt>
<trkpt lat="40.0713578" lon="-105.2297758">
  <ele>1582.68</ele>
  <time>2026-08-28T17:53:30Z</time>
  <course>20.83</course>
  <speed>3.3051021164254517</speed>
  <fix>3d</fix>
</trkpt>
<trkpt lat="40.0713749" lon="-105.229789">
  <ele>1583.0</ele>
  <time>2026-08-28T17:53:30Z</time>
  <course>0.0</course>
  <speed>0.0</speed>
  <fix>3d</fix>
</trkpt>
<trkpt lat="40.0713572" lon="-105.2297753">
  <ele>1582.65</ele>
  <time>2026-08-28T17:53:30Z</time>
  <course>20.84</course>
  <speed>3.341137530841854</speed>
  <fix>3d</fix>
</trkpt>
<trkpt lat="40.0713749" lon="-105.229789">
  <ele>1583.0</ele>
  <time>2026-08-28T17:53:30Z</time>
  <course>0.0</course>
  <speed>0.0</speed>
  <fix>3d</fix>
</trkpt>
<trkpt lat="40.0713572" lon="-105.2297754">
  <ele>1582.66</ele>
  <time>2026-08-28T17:53:30Z</time>
  <course>20.88</course>
  <speed>3.2828341414089137</speed>
  <fix>3d</fix>
</trkpt>
<trkpt lat="40.0713749" lon="-105.229789">
  <ele>1583.0</ele>
  <time>2026-08-28T17:53:30Z</time>
  <course>0.0</course>
  <speed>0.0</speed>
  <fix>3d</fix>
</trkpt>
<trkpt lat="40.0713567" lon="-105.229775">
  <ele>1582.63</ele>
  <time>2026-08-28T17:53:30Z</time>
  <course>20.91</course>
  <speed>3.3103776219639958</speed>
  <fix>3d</fix>
</trkpt>
<trkpt lat="40.0713749" lon="-105.229789">
  <ele>1583.0</ele>
  <time>2026-08-28T17:53:30Z</time>
  <course>0.0</course>
  <speed>0.0</speed>
  <fix>3d</fix>
</trkpt>
<trkpt lat="40.0713569" lon="-105.2297752">
  <ele>1582.64</ele>
  <time>2026-08-28T17:53:30Z</time>
  <course>20.95</course>
  <speed>3.22981423614424</speed>
  <fix>3d</fix>
</trkpt>
<trkpt lat="40.0713749" lon="-105.229789">
  <ele>1583.0</ele>
  <time>2026-08-28T17:53:30Z</time>
  <course>0.0</course>
  <speed>0.0</speed>
  <fix>3d</fix>
</trkpt>
<trkpt lat="40.0713564" lon="-105.2297748">
  <ele>1582.62</ele>
  <time>2026-08-28T17:53:30Z</time>
  <course>20.98</course>
  <speed>3.22981423614424</speed>
  <fix>3d</fix>
</trkpt>
<trkpt lat="40.0713749" lon="-105.229789">
  <ele>1583.0</ele>
  <time>2026-08-28T17:53:30Z</time>
  <course>0.0</course>
  <speed>0.0</speed>
  <fix>3d</fix>
</trkpt>
<trkpt lat="40.0713567" lon="-105.2297751">
  <ele>1582.63</ele>
  <time>2026-08-28T17:53:30Z</time>
  <course>21.02</course>
  <speed>3.135474445757771</speed>
  <fix>3d</fix>
</trkpt>
<trkpt lat="40.0713749" lon="-105.229789">
  <ele>1583.0</ele>
  <time>2026-08-28T17:53:30Z</time>
  <course>0.0</course>
  <speed>0.0</speed>
  <fix>3d</fix>
</trkpt>
<trkpt lat="40.0713563" lon="-105.2297749">
  <ele>1582.61</ele>
  <time>2026-08-28T17:53:30Z</time>
  <course>21.05</course>
  <speed>3.1185252925060585</speed>
  <fix>3d</fix>
</trkpt>
<trkpt lat="40.0713749" lon="-105.229789">
  <ele>1583.0</ele>
  <time>2026-08-28T17:53:30Z</time>
  <course>0.0</course>
  <speed>0.0</speed>
  <fix>3d</fix>
</trkpt>
<trkpt lat="40.0713566" lon="-105.2297751">
  <ele>1582.62</ele>
  <time>2026-08-28T17:53:30Z</time>
  <course>21.08</course>
  <speed>3.037976300105055</speed>
  <fix>3d</fix>
</trkpt>
<trkpt lat="40.0713749" lon="-105.229789">
  <ele>1583.0</ele>
  <time>2026-08-28T17:53:30Z</time>
  <course>0.0</course>
  <speed>0.0</speed>
  <fix>3d</fix>
</trkpt>
<trkpt lat="40.0713564" lon="-105.229775">
  <ele>1582.61</ele>
  <time>2026-08-28T17:53:30Z</time>
  <course>21.11</course>
  <speed>2.993476240092779</speed>
  <fix>3d</fix>
</trkpt>
<trkpt lat="40.0713749" lon="-105.229789">
  <ele>1583.0</ele>
  <time>2026-08-28T17:53:30Z</time>
  <course>0.0</course>
  <speed>0.0</speed>
  <fix>3d</fix>
</trkpt>
<trkpt lat="40.0713568" lon="-105.2297753">
  <ele>1582.63</ele>
  <time>2026-08-28T17:53:30Z</time>
  <course>21.15</course>
  <speed>2.8822560607968195</speed>
  <fix>3d</fix>
</trkpt>
<trkpt lat="40.0713749" lon="-105.229789">
  <ele>1583.0</ele>
  <time>2026-08-28T17:53:30Z</time>
  <course>0.0</course>
  <speed>0.0</speed>
  <fix>3d</fix>
</trkpt>
<trkpt lat="40.0713568" lon="-105.2297753">
  <ele>1582.63</ele>
  <time>2026-08-28T17:53:30Z</time>
  <course>21.18</course>
  <speed>2.8293638861058503</speed>
  <fix>3d</fix>
</trkpt>
<trkpt lat="40.0713749" lon="-105.229789">
  <ele>1583.0</ele>
  <time>2026-08-28T17:53:30Z</time>
  <course>0.0</course>
  <speed>0.0</speed>
  <fix>3d</fix>
</trkpt>
<trkpt lat="40.0713573" lon="-105.2297757">
  <ele>1582.65</ele>
  <time>2026-08-28T17:53:30Z</time>
  <course>21.22</course>
  <speed>2.704403816000857</speed>
  <fix>3d</fix>
</trkpt>
<trkpt lat="40.0713749" lon="-105.229789">
  <ele>1583.0</ele>
  <time>2026-08-28T17:53:30Z</time>
  <course>0.0</course>
  <speed>0.0</speed>
  <fix>3d</fix>
</trkpt>
<trkpt lat="40.0713574" lon="-105.2297758">
  <ele>1582.65</ele>
  <time>2026-08-28T17:53:30Z</time>
  <course>21.25</course>
  <speed>2.6348624252510797</speed>
  <fix>3d</fix>
</trkpt>
<trkpt lat="40.0713749" lon="-105.229789">
  <ele>1583.0</ele>
  <time>2026-08-28T17:53:30Z</time>
  <course>0.0</course>
  <speed>0.0</speed>
  <fix>3d</fix>
</trkpt>
<trkpt lat="40.0713583" lon="-105.2297764">
  <ele>1582.67</ele>
  <time>2026-08-28T17:53:30Z</time>
  <course>21.29</course>
  <speed>2.4878303800701524</speed>
  <fix>3d</fix>
</trkpt>
<trkpt lat="40.0713749" lon="-105.229789">
  <ele>1583.0</ele>
  <time>2026-08-28T17:53:30Z</time>
  <course>0.0</course>
  <speed>0.0</speed>
  <fix>3d</fix>
</trkpt>
<trkpt lat="40.0713584" lon="-105.2297764">
  <ele>1582.67</ele>
  <time>2026-08-28T17:53:30Z</time>
  <course>21.32</course>
  <speed>2.4129857024027306</speed>
  <fix>3d</fix>
</trkpt>
<trkpt lat="40.0713749" lon="-105.229789">
  <ele>1583.0</ele>
  <time>2026-08-28T17:53:30Z</time>
  <course>0.0</course>
  <speed>0.0</speed>
  <fix>3d</fix>
</trkpt>
<trkpt lat="40.0713593" lon="-105.229777">
  <ele>1582.69</ele>
  <time>2026-08-28T17:53:31Z</time>
  <course>21.35</course>
  <speed>2.2717834403833477</speed>
  <fix>3d</fix>
</trkpt>
<trkpt lat="40.0713749" lon="-105.229789">
  <ele>1583.0</ele>
  <time>2026-08-28T17:53:31Z</time>
  <course>0.0</course>
  <speed>0.0</speed>
  <fix>3d</fix>
</trkpt>
<trkpt lat="40.0713595" lon="-105.2297771">
  <ele>1582.69</ele>
  <time>2026-08-28T17:53:31Z</time>
  <course>21.36</course>
  <speed>2.1971800108320663</speed>
  <fix>3d</fix>
</trkpt>
<trkpt lat="40.0713749" lon="-105.229789">
  <ele>1583.0</ele>
  <time>2026-08-28T17:53:31Z</time>
  <course>0.0</course>
  <speed>0.0</speed>
  <fix>3d</fix>
</trkpt>
<trkpt lat="40.0713603" lon="-105.2297777">
  <ele>1582.71</ele>
  <time>2026-08-28T17:53:31Z</time>
  <course>21.39</course>
  <speed>2.056428943581567</speed>
  <fix>3d</fix>
</trkpt>
<trkpt lat="40.0713749" lon="-105.229789">
  <ele>1583.0</ele>
  <time>2026-08-28T17:53:31Z</time>
  <course>0.0</course>
  <speed>0.0</speed>
  <fix>3d</fix>
</trkpt>
<trkpt lat="40.0713606" lon="-105.2297777">
  <ele>1582.7</ele>
  <time>2026-08-28T17:53:31Z</time>
  <course>21.39</course>
  <speed>1.9880643852752857</speed>
  <fix>3d</fix>
</trkpt>
<trkpt lat="40.0713749" lon="-105.229789">
  <ele>1583.0</ele>
  <time>2026-08-28T17:53:31Z</time>
  <course>0.0</course>
  <speed>0.0</speed>
  <fix>3d</fix>
</trkpt>
<trkpt lat="40.0713614" lon="-105.2297783">
  <ele>1582.72</ele>
  <time>2026-08-28T17:53:31Z</time>
  <course>21.41</course>
  <speed>1.8480530295421722</speed>
  <fix>3d</fix>
</trkpt>
<trkpt lat="40.0713749" lon="-105.229789">
  <ele>1583.0</ele>
  <time>2026-08-28T17:53:31Z</time>
  <course>0.0</course>
  <speed>0.0</speed>
  <fix>3d</fix>
</trkpt>
<trkpt lat="40.0713617" lon="-105.2297784">
  <ele>1582.71</ele>
  <time>2026-08-28T17:53:31Z</time>
  <course>21.41</course>
  <speed>1.7804493814764857</speed>
  <fix>3d</fix>
</trkpt>
<trkpt lat="40.0713749" lon="-105.229789">
  <ele>1583.0</ele>
  <time>2026-08-28T17:53:31Z</time>
  <course>0.0</course>
  <speed>0.0</speed>
  <fix>3d</fix>
</trkpt>
<trkpt lat="40.0713626" lon="-105.2297789">
  <ele>1582.73</ele>
  <time>2026-08-28T17:53:31Z</time>
  <course>21.42</course>
  <speed>1.6492422502470643</speed>
  <fix>3d</fix>
</trkpt>
<trkpt lat="40.0713749" lon="-105.229789">
  <ele>1583.0</ele>
  <time>2026-08-28T17:53:31Z</time>
  <course>0.0</course>
  <speed>0.0</speed>
  <fix>3d</fix>
</trkpt>
<trkpt lat="40.0713629" lon="-105.229779">
  <ele>1582.72</ele>
  <time>2026-08-28T17:53:31Z</time>
  <course>21.41</course>
  <speed>1.5749285698088025</speed>
  <fix>3d</fix>
</trkpt>
<trkpt lat="40.0713749" lon="-105.229789">
  <ele>1583.0</ele>
  <time>2026-08-28T17:53:31Z</time>
  <course>0.0</course>
  <speed>0.0</speed>
  <fix>3d</fix>
</trkpt>
<trkpt lat="40.0713638" lon="-105.2297795">
  <ele>1582.73</ele>
  <time>2026-08-28T17:53:31Z</time>
  <course>21.41</course>
  <speed>1.4516542288024377</speed>
  <fix>3d</fix>
</trkpt>
<trkpt lat="40.0713749" lon="-105.229789">
  <ele>1583.0</ele>
  <time>2026-08-28T17:53:31Z</time>
  <course>0.0</course>
  <speed>0.0</speed>
  <fix>3d</fix>
</trkpt>
<trkpt lat="40.0713641" lon="-105.2297796">
  <ele>1582.72</ele>
  <time>2026-08-28T17:53:31Z</time>
  <course>21.4</course>
  <speed>1.3793114224133722</speed>
  <fix>3d</fix>
</trkpt>
<trkpt lat="40.0713749" lon="-105.229789">
  <ele>1583.0</ele>
  <time>2026-08-28T17:53:31Z</time>
  <course>0.0</course>
  <speed>0.0</speed>
  <fix>3d</fix>
</trkpt>
<trkpt lat="40.0713649" lon="-105.2297801">
  <ele>1582.73</ele>
  <time>2026-08-28T17:53:31Z</time>
  <course>21.39</course>
  <speed>1.2657408897558773</speed>
  <fix>3d</fix>
</trkpt>
<trkpt lat="40.0713749" lon="-105.229789">
  <ele>1583.0</ele>
  <time>2026-08-28T17:53:31Z</time>
  <course>0.0</course>
  <speed>0.0</speed>
  <fix>3d</fix>
</trkpt>
<trkpt lat="40.0713653" lon="-105.2297802">
  <ele>1582.71</ele>
  <time>2026-08-28T17:53:31Z</time>
  <course>21.37</course>
  <speed>1.1960351165413163</speed>
  <fix>3d</fix>
</trkpt>
<trkpt lat="40.0713749" lon="-105.229789">
  <ele>1583.0</ele>
  <time>2026-08-28T17:53:31Z</time>
  <course>0.0</course>
  <speed>0.0</speed>
  <fix>3d</fix>
</trkpt>
<trkpt lat="40.0713661" lon="-105.2297806">
  <ele>1582.7</ele>
  <time>2026-08-28T17:53:31Z</time>
  <course>21.35</course>
  <speed>1.1063453348751464</speed>
  <fix>3d</fix>
</trkpt>
<trkpt lat="40.0713749" lon="-105.229789">
  <ele>1583.0</ele>
  <time>2026-08-28T17:53:31Z</time>
  <course>0.0</course>
  <speed>0.0</speed>
  <fix>3d</fix>
</trkpt>
<trkpt lat="40.0713665" lon="-105.2297807">
  <ele>1582.68</ele>
  <time>2026-08-28T17:53:31Z</time>
  <course>21.32</course>
  <speed>1.0401922899156675</speed>
  <fix>3d</fix>
</trkpt>
<trkpt lat="40.0713749" lon="-105.229789">
  <ele>1583.0</ele>
  <time>2026-08-28T17:53:31Z</time>
  <course>0.0</course>
  <speed>0.0</speed>
  <fix>3d</fix>
</trkpt>
<trkpt lat="40.0713672" lon="-105.229781">
  <ele>1582.67</ele>
  <time>2026-08-28T17:53:31Z</time>
  <course>21.29</course>
  <speed>0.9486832980505138</speed>
  <fix>3d</fix>
</trkpt>
<trkpt lat="40.0713749" lon="-105.229789">
  <ele>1583.0</ele>
  <time>2026-08-28T17:53:31Z</time>
  <course>0.0</course>
  <speed>0.0</speed>
  <fix>3d</fix>
</trkpt>
<trkpt lat="40.0713677" lon="-105.2297812">
  <ele>1582.65</ele>
  <time>2026-08-28T17:53:31Z</time>
  <course>21.26</course>
  <speed>0.8935882720806042</speed>
  <fix>3d</fix>
</trkpt>
<trkpt lat="40.0713749" lon="-105.229789">
  <ele>1583.0</ele>
  <time>2026-08-28T17:53:31Z</time>
  <course>0.0</course>
  <speed>0.0</speed>
  <fix>3d</fix>
</trkpt>
<trkpt lat="40.0713685" lon="-105.2297816">
  <ele>1582.64</ele>
  <time>2026-08-28T17:53:31Z</time>
  <course>21.23</course>
  <speed>0.8141252974819048</speed>
  <fix>3d</fix>
</trkpt>
<trkpt lat="40.0713749" lon="-105.229789">
  <ele>1583.0</ele>
  <time>2026-08-28T17:53:31Z</time>
  <course>0.0</course>
  <speed>0.0</speed>
  <fix>3d</fix>
</trkpt>
<trkpt lat="40.071369" lon="-105.2297817">
  <ele>1582.61</ele>
  <time>2026-08-28T17:53:31Z</time>
  <course>21.19</course>
  <speed>0.7615773105863909</speed>
  <fix>3d</fix>
</trkpt>
<trkpt lat="40.0713749" lon="-105.229789">
  <ele>1583.0</ele>
  <time>2026-08-28T17:53:31Z</time>
  <course>0.0</course>
  <speed>0.0</speed>
  <fix>3d</fix>
</trkpt>
<trkpt lat="40.0713696" lon="-105.229782">
  <ele>1582.6</ele>
  <time>2026-08-28T17:53:31Z</time>
  <course>21.15</course>
  <speed>0.7051950084905593</speed>
  <fix>3d</fix>
</trkpt>
<trkpt lat="40.0713749" lon="-105.229789">
  <ele>1583.0</ele>
  <time>2026-08-28T17:53:31Z</time>
  <course>0.0</course>
  <speed>0.0</speed>
  <fix>3d</fix>
</trkpt>
<trkpt lat="40.0713701" lon="-105.2297821">
  <ele>1582.57</ele>
  <time>2026-08-28T17:53:31Z</time>
  <course>21.1</course>
  <speed>0.6670832032063168</speed>
  <fix>3d</fix>
</trkpt>
<trkpt lat="40.0713749" lon="-105.229789">
  <ele>1583.0</ele>
  <time>2026-08-28T17:53:31Z</time>
  <course>0.0</course>
  <speed>0.0</speed>
  <fix>3d</fix>
</trkpt>
<trkpt lat="40.0713709" lon="-105.2297825">
  <ele>1582.57</ele>
  <time>2026-08-28T17:53:31Z</time>
  <course>21.06</course>
  <speed>0.6239390995922599</speed>
  <fix>3d</fix>
</trkpt>
<trkpt lat="40.0713749" lon="-105.229789">
  <ele>1583.0</ele>
  <time>2026-08-28T17:53:31Z</time>
  <course>0.0</course>
  <speed>0.0</speed>
  <fix>3d</fix>
</trkpt>
<trkpt lat="40.0713713" lon="-105.2297826">
  <ele>1582.55</ele>
  <time>2026-08-28T17:53:31Z</time>
  <course>21.01</course>
  <speed>0.6</speed>
  <fix>3d</fix>
</trkpt>
<trkpt lat="40.0713749" lon="-105.229789">
  <ele>1583.0</ele>
  <time>2026-08-28T17:53:31Z</time>
  <course>0.0</course>
  <speed>0.0</speed>
  <fix>3d</fix>
</trkpt>
<trkpt lat="40.071372" lon="-105.229783">
  <ele>1582.54</ele>
  <time>2026-08-28T17:53:31Z</time>
  <course>20.95</course>
  <speed>0.5731491952362839</speed>
  <fix>3d</fix>
</trkpt>
<trkpt lat="40.0713749" lon="-105.229789">
  <ele>1583.0</ele>
  <time>2026-08-28T17:53:31Z</time>
  <course>0.0</course>
  <speed>0.0</speed>
  <fix>3d</fix>
</trkpt>
<trkpt lat="40.0713724" lon="-105.229783">
  <ele>1582.51</ele>
  <time>2026-08-28T17:53:31Z</time>
  <course>20.89</course>
  <speed>0.5727128425310541</speed>
  <fix>3d</fix>
</trkpt>
<trkpt lat="40.0713749" lon="-105.229789">
  <ele>1583.0</ele>
  <time>2026-08-28T17:53:31Z</time>
  <course>0.0</course>
  <speed>0.0</speed>
  <fix>3d</fix>
</trkpt>
<trkpt lat="40.071373" lon="-105.2297834">
  <ele>1582.51</ele>
  <time>2026-08-28T17:53:31Z</time>
  <course>20.83</course>
  <speed>0.5630275304103699</speed>
  <fix>3d</fix>
</trkpt>
<trkpt lat="40.0713749" lon="-105.229789">
  <ele>1583.0</ele>
  <time>2026-08-28T17:53:31Z</time>
  <course>0.0</course>
  <speed>0.0</speed>
  <fix>3d</fix>
</trkpt>
<trkpt lat="40.0713735" lon="-105.2297834">
  <ele>1582.48</ele>
  <time>2026-08-28T17:53:31Z</time>
  <course>20.77</course>
  <speed>0.5769748694700663</speed>
  <fix>3d</fix>
</trkpt>
<trkpt lat="40.0713749" lon="-105.229789">
  <ele>1583.0</ele>
  <time>2026-08-28T17:53:31Z</time>
  <course>0.0</course>
  <speed>0.0</speed>
  <fix>3d</fix>
</trkpt>
<trkpt lat="40.071374" lon="-105.2297837">
  <ele>1582.47</ele>
  <time>2026-08-28T17:53:31Z</time>
  <course>20.7</course>
  <speed>0.5798275605729689</speed>
  <fix>3d</fix>
</trkpt>
<trkpt lat="40.0713749" lon="-105.229789">
  <ele>1583.0</ele>
  <time>2026-08-28T17:53:31Z</time>
  <course>0.0</course>
  <speed>0.0</speed>
  <fix>3d</fix>
</trkpt>
<trkpt lat="40.0713744" lon="-105.2297837">
  <ele>1582.45</ele>
  <time>2026-08-28T17:53:31Z</time>
  <course>20.63</course>
  <speed>0.6080296045424105</speed>
  <fix>3d</fix>
</trkpt>
<trkpt lat="40.0713749" lon="-105.229789">
  <ele>1583.0</ele>
  <time>2026-08-28T17:53:31Z</time>
  <course>0.0</course>
  <speed>0.0</speed>
  <fix>3d</fix>
</trkpt>
<trkpt lat="40.0713749" lon="-105.229784">
  <ele>1582.44</ele>
  <time>2026-08-28T17:53:31Z</time>
  <course>20.55</course>
  <speed>0.6161980201201558</speed>
  <fix>3d</fix>
</trkpt>
<trkpt lat="40.0713749" lon="-105.229789">
  <ele>1583.0</ele>
  <time>2026-08-28T17:53:31Z</time>
  <course>0.0</course>
  <speed>0.0</speed>
  <fix>3d</fix>
</trkpt>
<trkpt lat="40.0713753" lon="-105.229784">
  <ele>1582.42</ele>
  <time>2026-08-28T17:53:31Z</time>
  <course>20.48</course>
  <speed>0.6435060217278468</speed>
  <fix>3d</fix>
</trkpt>
<trkpt lat="40.0713749" lon="-105.229789">
  <ele>1583.0</ele>
  <time>2026-08-28T17:53:31Z</time>
  <course>0.0</course>
  <speed>0.0</speed>
  <fix>3d</fix>
</trkpt>
<trkpt lat="40.0713758" lon="-105.2297843">
  <ele>1582.42</ele>
  <time>2026-08-28T17:53:31Z</time>
  <course>20.4</course>
  <speed>0.6670832032063168</speed>
  <fix>3d</fix>
</trkpt>
<trkpt lat="40.0713749" lon="-105.229789">
  <ele>1583.0</ele>
  <time>2026-08-28T17:53:31Z</time>
  <course>0.0</course>
  <speed>0.0</speed>
  <fix>3d</fix>
</trkpt>
<trkpt lat="40.0713762" lon="-105.2297843">
  <ele>1582.4</ele>
  <time>2026-08-28T17:53:31Z</time>
  <course>20.32</course>
  <speed>0.7060453243241541</speed>
  <fix>3d</fix>
</trkpt>
<trkpt lat="40.0713749" lon="-105.229789">
  <ele>1583.0</ele>
  <time>2026-08-28T17:53:31Z</time>
  <course>0.0</course>
  <speed>0.0</speed>
  <fix>3d</fix>
</trkpt>
<trkpt lat="40.0713766" lon="-105.2297846">
  <ele>1582.39</ele>
  <time>2026-08-28T17:53:31Z</time>
  <course>20.24</course>
  <speed>0.7349829930005184</speed>
  <fix>3d</fix>
</trkpt>
<trkpt lat="40.0713749" lon="-105.229789">
  <ele>1583.0</ele>
  <time>2026-08-28T17:53:31Z</time>
  <course>0.0</course>
  <speed>0.0</speed>
  <fix>3d</fix>
</trkpt>
<trkpt lat="40.071377" lon="-105.2297846">
  <ele>1582.36</ele>
  <time>2026-08-28T17:53:31Z</time>
  <course>20.15</course>
  <speed>0.7632168761236874</speed>
  <fix>3d</fix>
</trkpt>
<trkpt lat="40.0713749" lon="-105.229789">
  <ele>1583.0</ele>
  <time>2026-08-28T17:53:31Z</time>
  <course>0.0</course>
  <speed>0.0</speed>
  <fix>3d</fix>
</trkpt>
<trkpt lat="40.0713774" lon="-105.2297847">
  <ele>1582.35</ele>
  <time>2026-08-28T17:53:31Z</time>
  <course>20.07</course>
  <speed>0.7877182237323191</speed>
  <fix>3d</fix>
</trkpt>
<trkpt lat="40.0713749" lon="-105.229789">
  <ele>1583.0</ele>
  <time>2026-08-28T17:53:31Z</time>
  <course>0.0</course>
  <speed>0.0</speed>
  <fix>3d</fix>
</trkpt>
<trkpt lat="40.0713777" lon="-105.2297847">
  <ele>1582.33</ele>
  <time>2026-08-28T17:53:31Z</time>
  <course>19.98</course>
  <speed>0.8229823813423954</speed>
  <fix>3d</fix>
</trkpt>
<trkpt lat="40.0713749" lon="-105.229789">
  <ele>1583.0</ele>
  <time>2026-08-28T17:53:31Z</time>
  <course>0.0</course>
  <speed>0.0</speed>
  <fix>3d</fix>
</trkpt>
<trkpt lat="40.0713781" lon="-105.2297849">
  <ele>1582.32</ele>
  <time>2026-08-28T17:53:31Z</time>
  <course>19.89</course>
  <speed>0.85</speed>
  <fix>3d</fix>
</trkpt>
<trkpt lat="40.0713749" lon="-105.229789">
  <ele>1583.0</ele>
  <time>2026-08-28T17:53:31Z</time>
  <course>0.0</course>
  <speed>0.0</speed>
  <fix>3d</fix>
</trkpt>
<trkpt lat="40.0713784" lon="-105.229785">
  <ele>1582.3</ele>
  <time>2026-08-28T17:53:31Z</time>
  <course>19.8</course>
  <speed>0.8823831367382311</speed>
  <fix>3d</fix>
</trkpt>
<trkpt lat="40.0713749" lon="-105.229789">
  <ele>1583.0</ele>
  <time>2026-08-28T17:53:31Z</time>
  <course>0.0</course>
  <speed>0.0</speed>
  <fix>3d</fix>
</trkpt>
<trkpt lat="40.0713787" lon="-105.2297851">
  <ele>1582.29</ele>
  <time>2026-08-28T17:53:31Z</time>
  <course>19.7</course>
  <speed>0.9062008607367353</speed>
  <fix>3d</fix>
</trkpt>
<trkpt lat="40.0713749" lon="-105.229789">
  <ele>1583.0</ele>
  <time>2026-08-28T17:53:31Z</time>
  <course>0.0</course>
  <speed>0.0</speed>
  <fix>3d</fix>
</trkpt>
<trkpt lat="40.0713791" lon="-105.2297852">
  <ele>1582.27</ele>
  <time>2026-08-28T17:53:31Z</time>
  <course>19.61</course>
  <speed>0.9398404119849285</speed>
  <fix>3d</fix>
</trkpt>
<trkpt lat="40.0713749" lon="-105.229789">
  <ele>1583.0</ele>
  <time>2026-08-28T17:53:31Z</time>
  <course>0.0</course>
  <speed>0.0</speed>
  <fix>3d</fix>
</trkpt>
<trkpt lat="40.0713794" lon="-105.2297854">
  <ele>1582.27</ele>
  <time>2026-08-28T17:53:31Z</time>
  <course>19.51</course>
  <speed>0.9551963149007642</speed>
  <fix>3d</fix>
</trkpt>
<trkpt lat="40.0713749" lon="-105.229789">
  <ele>1583.0</ele>
  <time>2026-08-28T17:53:31Z</time>
  <course>0.0</course>
  <speed>0.0</speed>
  <fix>3d</fix>
</trkpt>
<trkpt lat="40.0713797" lon="-105.2297854">
  <ele>1582.25</ele>
  <time>2026-08-28T17:53:31Z</time>
  <course>19.41</course>
  <speed>0.9897979591815695</speed>
  <fix>3d</fix>
</trkpt>
<trkpt lat="40.0713749" lon="-105.229789">
  <ele>1583.0</ele>
  <time>2026-08-28T17:53:31Z</time>
  <course>0.0</course>
  <speed>0.0</speed>
  <fix>3d</fix>
</trkpt>
<trkpt lat="40.0713799" lon="-105.2297856">
  <ele>1582.24</ele>
  <time>2026-08-28T17:53:31Z</time>
  <course>19.31</course>
  <speed>1.0057832768544126</speed>
  <fix>3d</fix>
</trkpt>
<trkpt lat="40.0713749" lon="-105.229789">
  <ele>1583.0</ele>
  <time>2026-08-28T17:53:31Z</time>
  <course>0.0</course>
  <speed>0.0</speed>
  <fix>3d</fix>
</trkpt>
<trkpt lat="40.0713803" lon="-105.2297856">
  <ele>1582.21</ele>
  <time>2026-08-28T17:53:31Z</time>
  <course>19.21</course>
  <speed>1.0316006979447037</speed>
  <fix>3d</fix>
</trkpt>
<trkpt lat="40.0713749" lon="-105.229789">
  <ele>1583.0</ele>
  <time>2026-08-28T17:53:31Z</time>
  <course>0.0</course>
  <speed>0.0</speed>
  <fix>3d</fix>
</trkpt>
<trkpt lat="40.0713805" lon="-105.2297858">
  <ele>1582.2</ele>
  <time>2026-08-28T17:53:31Z</time>
  <course>19.11</course>
  <speed>1.0480935072788113</speed>
  <fix>3d</fix>
</trkpt>
<trkpt lat="40.0713749" lon="-105.229789">
  <ele>1583.0</ele>
  <time>2026-08-28T17:53:31Z</time>
  <course>0.0</course>
  <speed>0.0</speed>
  <fix>3d</fix>
</trkpt>
<trkpt lat="40.0713808" lon="-105.2297858">
  <ele>1582.18</ele>
  <time>2026-08-28T17:53:31Z</time>
  <course>19.0</course>
  <speed>1.0770329614269007</speed>
  <fix>3d</fix>
</trkpt>
<trkpt lat="40.0713749" lon="-105.229789">
  <ele>1583.0</ele>
  <time>2026-08-28T17:53:31Z</time>
  <course>0.0</course>
  <speed>0.0</speed>
  <fix>3d</fix>
</trkpt>
<trkpt lat="40.071381" lon="-105.229786">
  <ele>1582.16</ele>
  <time>2026-08-28T17:53:31Z</time>
  <course>18.9</course>
  <speed>1.0914210919713803</speed>
  <fix>3d</fix>
</trkpt>
<trkpt lat="40.0713749" lon="-105.229789">
  <ele>1583.0</ele>
  <time>2026-08-28T17:53:31Z</time>
  <course>0.0</course>
  <speed>0.0</speed>
  <fix>3d</fix>
</trkpt>
<trkpt lat="40.0713813" lon="-105.2297859">
  <ele>1582.14</ele>
  <time>2026-08-28T17:53:31Z</time>
  <course>18.79</course>
  <speed>1.1205802068571442</speed>
  <fix>3d</fix>
</trkpt>
<trkpt lat="40.0713749" lon="-105.229789">
  <ele>1583.0</ele>
  <time>2026-08-28T17:53:31Z</time>
  <course>0.0</course>
  <speed>0.0</speed>
  <fix>3d</fix>
</trkpt>
<trkpt lat="40.0713815" lon="-105.2297861">
  <ele>1582.13</ele>
  <time>2026-08-28T17:53:31Z</time>
  <course>18.68</course>
  <speed>1.1280514172678477</speed>
  <fix>3d</fix>
</trkpt>
<trkpt lat="40.0713749" lon="-105.229789">
  <ele>1583.0</ele>
  <time>2026-08-28T17:53:31Z</time>
  <course>0.0</course>
  <speed>0.0</speed>
  <fix>3d</fix>
</trkpt>
<trkpt lat="40.0713818" lon="-105.2297861">
  <ele>1582.11</ele>
  <time>2026-08-28T17:53:31Z</time>
  <course>18.57</course>
  <speed>1.1573245007343447</speed>
  <fix>3d</fix>
</trkpt>
<trkpt lat="40.0713749" lon="-105.229789">
  <ele>1583.0</ele>
  <time>2026-08-28T17:53:31Z</time>
  <course>0.0</course>
  <speed>0.0</speed>
  <fix>3d</fix>
</trkpt>
<trkpt lat="40.0713819" lon="-105.2297862">
  <ele>1582.1</ele>
  <time>2026-08-28T17:53:31Z</time>
  <course>18.46</course>
  <speed>1.1649892703368558</speed>
  <fix>3d</fix>
</trkpt>
<trkpt lat="40.0713749" lon="-105.229789">
  <ele>1583.0</ele>
  <time>2026-08-28T17:53:31Z</time>
  <course>0.0</course>
  <speed>0.0</speed>
  <fix>3d</fix>
</trkpt>
<trkpt lat="40.0713823" lon="-105.2297862">
  <ele>1582.09</ele>
  <time>2026-08-28T17:53:31Z</time>
  <course>18.35</course>
  <speed>1.1943617542436629</speed>
  <fix>3d</fix>
</trkpt>
<trkpt lat="40.0713749" lon="-105.229789">
  <ele>1583.0</ele>
  <time>2026-08-28T17:53:31Z</time>
  <course>0.0</course>
  <speed>0.0</speed>
  <fix>3d</fix>
</trkpt>
<trkpt lat="40.0713823" lon="-105.2297864">
  <ele>1582.09</ele>
  <time>2026-08-28T17:53:31Z</time>
  <course>18.24</course>
  <speed>1.2003332870498926</speed>
  <fix>3d</fix>
</trkpt>
<trkpt lat="40.0713749" lon="-105.229789">
  <ele>1583.0</ele>
  <time>2026-08-28T17:53:31Z</time>
  <course>0.0</course>
  <speed>0.0</speed>
  <fix>3d</fix>
</trkpt>
<trkpt lat="40.0713827" lon="-105.2297863">
  <ele>1582.08</ele>
  <time>2026-08-28T17:53:31Z</time>
  <course>18.13</course>
  <speed>1.22</speed>
  <fix>3d</fix>
</trkpt>
<trkpt lat="40.0713749" lon="-105.229789">
  <ele>1583.0</ele>
  <time>2026-08-28T17:53:31Z</time>
  <course>0.0</course>
  <speed>0.0</speed>
  <fix>3d</fix>
</trkpt>
<trkpt lat="40.0713828" lon="-105.2297864">
  <ele>1582.08</ele>
  <time>2026-08-28T17:53:31Z</time>
  <course>18.02</course>
  <speed>1.2298373876248843</speed>
  <fix>3d</fix>
</trkpt>
<trkpt lat="40.0713749" lon="-105.229789">
  <ele>1583.0</ele>
  <time>2026-08-28T17:53:31Z</time>
  <course>0.0</course>
  <speed>0.0</speed>
  <fix>3d</fix>
</trkpt>
<trkpt lat="40.0713831" lon="-105.2297864">
  <ele>1582.07</ele>
  <time>2026-08-28T17:53:31Z</time>
  <course>17.9</course>
  <speed>1.2477980605851253</speed>
  <fix>3d</fix>
</trkpt>
<trkpt lat="40.0713749" lon="-105.229789">
  <ele>1583.0</ele>
  <time>2026-08-28T17:53:31Z</time>
  <course>0.0</course>
  <speed>0.0</speed>
  <fix>3d</fix>
</trkpt>
<trkpt lat="40.0713832" lon="-105.2297865">
  <ele>1582.07</ele>
  <time>2026-08-28T17:53:31Z</time>
  <course>17.79</course>
  <speed>1.257656550891379</speed>
  <fix>3d</fix>
</trkpt>
<trkpt lat="40.0713749" lon="-105.229789">
  <ele>1583.0</ele>
  <time>2026-08-28T17:53:31Z</time>
  <course>0.0</course>
  <speed>0.0</speed>
  <fix>3d</fix>
</trkpt>
<trkpt lat="40.0713834" lon="-105.2297865">
  <ele>1582.06</ele>
  <time>2026-08-28T17:53:31Z</time>
  <course>17.67</course>
  <speed>1.2757742747053649</speed>
  <fix>3d</fix>
</trkpt>
<trkpt lat="40.0713749" lon="-105.229789">
  <ele>1583.0</ele>
  <time>2026-08-28T17:53:31Z</time>
  <course>0.0</course>
  <speed>0.0</speed>
  <fix>3d</fix>
</trkpt>
<trkpt lat="40.0713835" lon="-105.2297866">
  <ele>1582.06</ele>
  <time>2026-08-28T17:53:31Z</time>
  <course>17.56</course>
  <speed>1.2757742747053649</speed>
  <fix>3d</fix>
</trkpt>
<trkpt lat="40.0713749" lon="-105.229789">
  <ele>1583.0</ele>
  <time>2026-08-28T17:53:31Z</time>
  <course>0.0</course>
  <speed>0.0</speed>
  <fix>3d</fix>
</trkpt>
<trkpt lat="40.0713837" lon="-105.2297867">
  <ele>1582.06</ele>
  <time>2026-08-28T17:53:31Z</time>
  <course>17.44</course>
  <speed>1.2841339493993607</speed>
  <fix>3d</fix>
</trkpt>
<trkpt lat="40.0713749" lon="-105.229789">
  <ele>1583.0</ele>
  <time>2026-08-28T17:53:31Z</time>
  <course>0.0</course>
  <speed>0.0</speed>
  <fix>3d</fix>
</trkpt>
<trkpt lat="40.0713838" lon="-105.2297868">
  <ele>1582.06</ele>
  <time>2026-08-28T17:53:31Z</time>
  <course>17.32</course>
  <speed>1.2940247292845684</speed>
  <fix>3d</fix>
</trkpt>
<trkpt lat="40.0713749" lon="-105.229789">
  <ele>1583.0</ele>
  <time>2026-08-28T17:53:31Z</time>
  <course>0.0</course>
  <speed>0.0</speed>
  <fix>3d</fix>
</trkpt>
<trkpt lat="40.071384" lon="-105.2297868">
  <ele>1582.06</ele>
  <time>2026-08-28T17:53:31Z</time>
  <course>17.2</course>
  <speed>1.3024976007655444</speed>
  <fix>3d</fix>
</trkpt>
<trkpt lat="40.0713749" lon="-105.229789">
  <ele>1583.0</ele>
  <time>2026-08-28T17:53:31Z</time>
  <course>0.0</course>
  <speed>0.0</speed>
  <fix>3d</fix>
</trkpt>
<trkpt lat="40.0713839" lon="-105.2297869">
  <ele>1582.07</ele>
  <time>2026-08-28T17:53:31Z</time>
  <course>17.08</course>
  <speed>1.291239714383042</speed>
  <fix>3d</fix>
</trkpt>
<trkpt lat="40.0713749" lon="-105.229789">
  <ele>1583.0</ele>
  <time>2026-08-28T17:53:31Z</time>
  <course>0.0</course>
  <speed>0.0</speed>
  <fix>3d</fix>
</trkpt>
<trkpt lat="40.0713841" lon="-105.2297869">
  <ele>1582.07</ele>
  <time>2026-08-28T17:53:31Z</time>
  <course>16.96</course>
  <speed>1.3110682667199294</speed>
  <fix>3d</fix>
</trkpt>
<trkpt lat="40.0713749" lon="-105.229789">
  <ele>1583.0</ele>
  <time>2026-08-28T17:53:31Z</time>
  <course>0.0</course>
  <speed>0.0</speed>
  <fix>3d</fix>
</trkpt>
<trkpt lat="40.0713841" lon="-105.229787">
  <ele>1582.07</ele>
  <time>2026-08-28T17:53:31Z</time>
  <course>16.84</course>
  <speed>1.3011533345459327</speed>
  <fix>3d</fix>
</trkpt>
<trkpt lat="40.0713749" lon="-105.229789">
  <ele>1583.0</ele>
  <time>2026-08-28T17:53:31Z</time>
  <course>0.0</course>
  <speed>0.0</speed>
  <fix>3d</fix>
</trkpt>
<trkpt lat="40.0713843" lon="-105.229787">
  <ele>1582.07</ele>
  <time>2026-08-28T17:53:31Z</time>
  <course>16.72</course>
  <speed>1.3209844813622906</speed>
  <fix>3d</fix>
</trkpt>
<trkpt lat="40.0713749" lon="-105.229789">
  <ele>1583.0</ele>
  <time>2026-08-28T17:53:31Z</time>
  <course>0.0</course>
  <speed>0.0</speed>
  <fix>3d</fix>
</trkpt>
<trkpt lat="40.0713842" lon="-105.2297871">
  <ele>1582.08</ele>
  <time>2026-08-28T17:53:31Z</time>
  <course>16.6</course>
  <speed>1.3098091464026353</speed>
  <fix>3d</fix>
</trkpt>
<trkpt lat="40.0713749" lon="-105.229789">
  <ele>1583.0</ele>
  <time>2026-08-28T17:53:31Z</time>
  <course>0.0</course>
  <speed>0.0</speed>
  <fix>3d</fix>
</trkpt>
<trkpt lat="40.0713845" lon="-105.2297871">
  <ele>1582.07</ele>
  <time>2026-08-28T17:53:31Z</time>
  <course>16.48</course>
  <speed>1.3197348218486926</speed>
  <fix>3d</fix>
</trkpt>
<trkpt lat="40.0713749" lon="-105.229789">
  <ele>1583.0</ele>
  <time>2026-08-28T17:53:31Z</time>
  <course>0.0</course>
  <speed>0.0</speed>
  <fix>3d</fix>
</trkpt>
<trkpt lat="40.0713844" lon="-105.2297872">
  <ele>1582.07</ele>
  <time>2026-08-28T17:53:31Z</time>
  <course>16.35</course>
  <speed>1.3086252328302401</speed>
  <fix>3d</fix>
</trkpt>
<trkpt lat="40.0713749" lon="-105.229789">
  <ele>1583.0</ele>
  <time>2026-08-28T17:53:31Z</time>
  <course>0.0</course>
  <speed>0.0</speed>
  <fix>3d</fix>
</trkpt>
<trkpt lat="40.0713847" lon="-105.2297872">
  <ele>1582.07</ele>
  <time>2026-08-28T17:53:31Z</time>
  <course>16.23</course>
  <speed>1.3284953895290719</speed>
  <fix>3d</fix>
</trkpt>
<trkpt lat="40.0713749" lon="-105.229789">
  <ele>1583.0</ele>
  <time>2026-08-28T17:53:31Z</time>
  <course>0.0</course>
  <speed>0.0</speed>
  <fix>3d</fix>
</trkpt>
<trkpt lat="40.0713846" lon="-105.2297873">
  <ele>1582.07</ele>
  <time>2026-08-28T17:53:31Z</time>
  <course>16.11</course>
  <speed>1.3185598204101323</speed>
  <fix>3d</fix>
</trkpt>
<trkpt lat="40.0713749" lon="-105.229789">
  <ele>1583.0</ele>
  <time>2026-08-28T17:53:31Z</time>
  <course>0.0</course>
  <speed>0.0</speed>
  <fix>3d</fix>
</trkpt>
<trkpt lat="40.0713848" lon="-105.2297872">
  <ele>1582.06</ele>
  <time>2026-08-28T17:53:31Z</time>
  <course>15.98</course>
  <speed>1.3284953895290719</speed>
  <fix>3d</fix>
</trkpt>
<trkpt lat="40.0713749" lon="-105.229789">
  <ele>1583.0</ele>
  <time>2026-08-28T17:53:31Z</time>
  <course>0.0</course>
  <speed>0.0</speed>
  <fix>3d</fix>
</trkpt>
<trkpt lat="40.0713847" lon="-105.2297873">
  <ele>1582.06</ele>
  <time>2026-08-28T17:53:31Z</time>
  <course>15.86</course>
  <speed>1.317459676802292</speed>
  <fix>3d</fix>
</trkpt>
<trkpt lat="40.0713749" lon="-105.229789">
  <ele>1583.0</ele>
  <time>2026-08-28T17:53:31Z</time>
  <course>0.0</course>
  <speed>0.0</speed>
  <fix>3d</fix>
</trkpt>
<trkpt lat="40.0713849" lon="-105.2297873">
  <ele>1582.06</ele>
  <time>2026-08-28T17:53:31Z</time>
  <course>15.74</course>
  <speed>1.3274034804836095</speed>
  <fix>3d</fix>
</trkpt>
<trkpt lat="40.0713749" lon="-105.229789">
  <ele>1583.0</ele>
  <time>2026-08-28T17:53:31Z</time>
  <course>0.0</course>
  <speed>0.0</speed>
  <fix>3d</fix>
</trkpt>
<trkpt lat="40.0713848" lon="-105.2297874">
  <ele>1582.06</ele>
  <time>2026-08-28T17:53:31Z</time>
  <course>15.61</course>
  <speed>1.317459676802292</speed>
  <fix>3d</fix>
</trkpt>
<trkpt lat="40.0713749" lon="-105.229789">
  <ele>1583.0</ele>
  <time>2026-08-28T17:53:31Z</time>
  <course>0.0</course>
  <speed>0.0</speed>
  <fix>3d</fix>
</trkpt>
<trkpt lat="40.071385" lon="-105.2297874">
  <ele>1582.05</ele>
  <time>2026-08-28T17:53:31Z</time>
  <course>15.49</course>
  <speed>1.3274034804836095</speed>
  <fix>3d</fix>
</trkpt>
<trkpt lat="40.0713749" lon="-105.229789">
  <ele>1583.0</ele>
  <time>2026-08-28T17:53:31Z</time>
  <course>0.0</course>
  <speed>0.0</speed>
  <fix>3d</fix>
</trkpt>
<trkpt lat="40.071385" lon="-105.2297874">
  <ele>1582.05</ele>
  <time>2026-08-28T17:53:31Z</time>
  <course>15.36</course>
  <speed>1.3164345787011218</speed>
  <fix>3d</fix>
</trkpt>
<trkpt lat="40.0713749" lon="-105.229789">
  <ele>1583.0</ele>
  <time>2026-08-28T17:53:31Z</time>
  <course>0.0</course>
  <speed>0.0</speed>
  <fix>3d</fix>
</trkpt>
<trkpt lat="40.0713851" lon="-105.2297874">
  <ele>1582.05</ele>
  <time>2026-08-28T17:53:31Z</time>
  <course>15.24</course>
  <speed>1.3164345787011218</speed>
  <fix>3d</fix>
</trkpt>
<trkpt lat="40.0713749" lon="-105.229789">
  <ele>1583.0</ele>
  <time>2026-08-28T17:53:31Z</time>
  <course>0.0</course>
  <speed>0.0</speed>
  <fix>3d</fix>
</trkpt>
<trkpt lat="40.071385" lon="-105.2297875">
  <ele>1582.05</ele>
  <time>2026-08-28T17:53:31Z</time>
  <course>15.12</course>
  <speed>1.3064838307457156</speed>
  <fix>3d</fix>
</trkpt>
<trkpt lat="40.0713749" lon="-105.229789">
  <ele>1583.0</ele>
  <time>2026-08-28T17:53:31Z</time>
  <course>0.0</course>
  <speed>0.0</speed>
  <fix>3d</fix>
</trkpt>
<trkpt lat="40.0713852" lon="-105.2297875">
  <ele>1582.04</ele>
  <time>2026-08-28T17:53:31Z</time>
  <course>14.99</course>
  <speed>1.3164345787011218</speed>
  <fix>3d</fix>
</trkpt>
<trkpt lat="40.0713749" lon="-105.229789">
  <ele>1583.0</ele>
  <time>2026-08-28T17:53:31Z</time>
  <course>0.0</course>
  <speed>0.0</speed>
  <fix>3d</fix>
</trkpt>
<trkpt lat="40.0713851" lon="-105.2297875">
  <ele>1582.05</ele>
  <time>2026-08-28T17:53:31Z</time>
  <course>14.86</course>
  <speed>1.2955693729013509</speed>
  <fix>3d</fix>
</trkpt>
<trkpt lat="40.0713749" lon="-105.229789">
  <ele>1583.0</ele>
  <time>2026-08-28T17:53:31Z</time>
  <course>0.0</course>
  <speed>0.0</speed>
  <fix>3d</fix>
</trkpt>
<trkpt lat="40.0713852" lon="-105.2297875">
  <ele>1582.04</ele>
  <time>2026-08-28T17:53:31Z</time>
  <course>14.74</course>
  <speed>1.305526713629407</speed>
  <fix>3d</fix>
</trkpt>
<trkpt lat="40.0713749" lon="-105.229789">
  <ele>1583.0</ele>
  <time>2026-08-28T17:53:31Z</time>
  <course>0.0</course>
  <speed>0.0</speed>
  <fix>3d</fix>
</trkpt>
<trkpt lat="40.0713849" lon="-105.2297876">
  <ele>1582.05</ele>
  <time>2026-08-28T17:53:31Z</time>
  <course>14.61</course>
  <speed>1.2756566936288147</speed>
  <fix>3d</fix>
</trkpt>
<trkpt lat="40.0713749" lon="-105.229789">
  <ele>1583.0</ele>
  <time>2026-08-28T17:53:31Z</time>
  <course>0.0</course>
  <speed>0.0</speed>
  <fix>3d</fix>
</trkpt>
<trkpt lat="40.0713851" lon="-105.2297876">
  <ele>1582.06</ele>
  <time>2026-08-28T17:53:31Z</time>
  <course>14.48</course>
  <speed>1.2856126943990558</speed>
  <fix>3d</fix>
</trkpt>
<trkpt lat="40.0713749" lon="-105.229789">
  <ele>1583.0</ele>
  <time>2026-08-28T17:53:31Z</time>
  <course>0.0</course>
  <speed>0.0</speed>
  <fix>3d</fix>
</trkpt>
<trkpt lat="40.0713849" lon="-105.2297876">
  <ele>1582.07</ele>
  <time>2026-08-28T17:53:31Z</time>
  <course>14.35</course>
  <speed>1.264792473095883</speed>
  <fix>3d</fix>
</trkpt>
<trkpt lat="40.0713749" lon="-105.229789">
  <ele>1583.0</ele>
  <time>2026-08-28T17:53:31Z</time>
  <course>0.0</course>
  <speed>0.0</speed>
  <fix>3d</fix>
</trkpt>
<trkpt lat="40.071385" lon="-105.2297876">
  <ele>1582.07</ele>
  <time>2026-08-28T17:53:31Z</time>
  <course>14.23</course>
  <speed>1.264792473095883</speed>
  <fix>3d</fix>
</trkpt>
<trkpt lat="40.0713749" lon="-105.229789">
  <ele>1583.0</ele>
  <time>2026-08-28T17:53:31Z</time>
  <course>0.0</course>
  <speed>0.0</speed>
  <fix>3d</fix>
</trkpt>
<trkpt lat="40.0713848" lon="-105.2297877">
  <ele>1582.08</ele>
  <time>2026-08-28T17:53:31Z</time>
  <course>14.1</course>
  <speed>1.244869471069156</speed>
  <fix>3d</fix>
</trkpt>
<trkpt lat="40.0713749" lon="-105.229789">
  <ele>1583.0</ele>
  <time>2026-08-28T17:53:31Z</time>
  <course>0.0</course>
  <speed>0.0</speed>
  <fix>3d</fix>
</trkpt>
<trkpt lat="40.071385" lon="-105.2297877">
  <ele>1582.09</ele>
  <time>2026-08-28T17:53:31Z</time>
  <course>13.98</course>
  <speed>1.2548306658669128</speed>
  <fix>3d</fix>
</trkpt>
<trkpt lat="40.0713749" lon="-105.229789">
  <ele>1583.0</ele>
  <time>2026-08-28T17:53:31Z</time>
  <course>0.0</course>
  <speed>0.0</speed>
  <fix>3d</fix>
</trkpt>
<trkpt lat="40.0713848" lon="-105.2297877">
  <ele>1582.11</ele>
  <time>2026-08-28T17:53:31Z</time>
  <course>13.85</course>
  <speed>1.2349089035228469</speed>
  <fix>3d</fix>
</trkpt>
<trkpt lat="40.0713749" lon="-105.229789">
  <ele>1583.0</ele>
  <time>2026-08-28T17:53:31Z</time>
  <course>0.0</course>
  <speed>0.0</speed>
  <fix>3d</fix>
</trkpt>
<trkpt lat="40.0713849" lon="-105.2297877">
  <ele>1582.12</ele>
  <time>2026-08-28T17:53:31Z</time>
  <course>13.72</course>
  <speed>1.244869471069156</speed>
  <fix>3d</fix>
</trkpt>
<trkpt lat="40.0713749" lon="-105.229789">
  <ele>1583.0</ele>
  <time>2026-08-28T17:53:31Z</time>
  <course>0.0</course>
  <speed>0.0</speed>
  <fix>3d</fix>
</trkpt>
<trkpt lat="40.0713847" lon="-105.2297878">
  <ele>1582.13</ele>
  <time>2026-08-28T17:53:31Z</time>
  <course>13.6</course>
  <speed>1.2240914998479484</speed>
  <fix>3d</fix>
</trkpt>
<trkpt lat="40.0713749" lon="-105.229789">
  <ele>1583.0</ele>
  <time>2026-08-28T17:53:31Z</time>
  <course>0.0</course>
  <speed>0.0</speed>
  <fix>3d</fix>
</trkpt>
<trkpt lat="40.0713849" lon="-105.2297878">
  <ele>1582.14</ele>
  <time>2026-08-28T17:53:31Z</time>
  <course>13.47</course>
  <speed>1.2240914998479484</speed>
  <fix>3d</fix>
</trkpt>
<trkpt lat="40.0713749" lon="-105.229789">
  <ele>1583.0</ele>
  <time>2026-08-28T17:53:31Z</time>
  <course>0.0</course>
  <speed>0.0</speed>
  <fix>3d</fix>
</trkpt>
<trkpt lat="40.0713846" lon="-105.2297878">
  <ele>1582.15</ele>
  <time>2026-08-28T17:53:31Z</time>
  <course>13.34</course>
  <speed>1.2041594578792294</speed>
  <fix>3d</fix>
</trkpt>
<trkpt lat="40.0713749" lon="-105.229789">
  <ele>1583.0</ele>
  <time>2026-08-28T17:53:31Z</time>
  <course>0.0</course>
  <speed>0.0</speed>
  <fix>3d</fix>
</trkpt>
<trkpt lat="40.0713848" lon="-105.2297878">
  <ele>1582.15</ele>
  <time>2026-08-28T17:53:31Z</time>
  <course>13.22</course>
  <speed>1.2141251994749143</speed>
  <fix>3d</fix>
</trkpt>
<trkpt lat="40.0713749" lon="-105.229789">
  <ele>1583.0</ele>
  <time>2026-08-28T17:53:31Z</time>
  <course>0.0</course>
  <speed>0.0</speed>
  <fix>3d</fix>
</trkpt>
<trkpt lat="40.0713846" lon="-105.2297878">
  <ele>1582.15</ele>
  <time>2026-08-28T17:53:31Z</time>
  <course>13.09</course>
  <speed>1.184229707446997</speed>
  <fix>3d</fix>
</trkpt>
<trkpt lat="40.0713749" lon="-105.229789">
  <ele>1583.0</ele>
  <time>2026-08-28T17:53:31Z</time>
  <course>0.0</course>
  <speed>0.0</speed>
  <fix>3d</fix>
</trkpt>
<trkpt lat="40.0713847" lon="-105.2297878">
  <ele>1582.15</ele>
  <time>2026-08-28T17:53:31Z</time>
  <course>12.97</course>
  <speed>1.194194289050153</speed>
  <fix>3d</fix>
</trkpt>
<trkpt lat="40.0713749" lon="-105.229789">
  <ele>1583.0</ele>
  <time>2026-08-28T17:53:31Z</time>
  <course>0.0</course>
  <speed>0.0</speed>
  <fix>3d</fix>
</trkpt>
<trkpt lat="40.0713846" lon="-105.2297878">
  <ele>1582.16</ele>
  <time>2026-08-28T17:53:31Z</time>
  <course>12.84</course>
  <speed>1.1742657280190034</speed>
  <fix>3d</fix>
</trkpt>
<trkpt lat="40.0713749" lon="-105.229789">
  <ele>1583.0</ele>
  <time>2026-08-28T17:53:31Z</time>
  <course>0.0</course>
  <speed>0.0</speed>
  <fix>3d</fix>
</trkpt>
<trkpt lat="40.0713847" lon="-105.2297878">
  <ele>1582.16</ele>
  <time>2026-08-28T17:53:31Z</time>
  <course>12.72</course>
  <speed>1.1742657280190034</speed>
  <fix>3d</fix>
</trkpt>
<trkpt lat="40.0713749" lon="-105.229789">
  <ele>1583.0</ele>
  <time>2026-08-28T17:53:31Z</time>
  <course>0.0</course>
  <speed>0.0</speed>
  <fix>3d</fix>
</trkpt>
<trkpt lat="40.0713845" lon="-105.2297879">
  <ele>1582.16</ele>
  <time>2026-08-28T17:53:31Z</time>
  <course>12.59</course>
  <speed>1.1643023662262306</speed>
  <fix>3d</fix>
</trkpt>
<trkpt lat="40.0713749" lon="-105.229789">
  <ele>1583.0</ele>
  <time>2026-08-28T17:53:31Z</time>
  <course>0.0</course>
  <speed>0.0</speed>
  <fix>3d</fix>
</trkpt>
<trkpt lat="40.0713846" lon="-105.2297878">
  <ele>1582.17</ele>
  <time>2026-08-28T17:53:31Z</time>
  <course>12.47</course>
  <speed>1.1643023662262306</speed>
  <fix>3d</fix>
</trkpt>
<trkpt lat="40.0713749" lon="-105.229789">
  <ele>1583.0</ele>
  <time>2026-08-28T17:53:31Z</time>
  <course>0.0</course>
  <speed>0.0</speed>
  <fix>3d</fix>
</trkpt>
<trkpt lat="40.0713844" lon="-105.2297879">
  <ele>1582.17</ele>
  <time>2026-08-28T17:53:31Z</time>
  <course>12.34</course>
  <speed>1.143547113152755</speed>
  <fix>3d</fix>
</trkpt>
<trkpt lat="40.0713749" lon="-105.229789">
  <ele>1583.0</ele>
  <time>2026-08-28T17:53:31Z</time>
  <course>0.0</course>
  <speed>0.0</speed>
  <fix>3d</fix>
</trkpt>
<trkpt lat="40.0713845" lon="-105.2297879">
  <ele>1582.17</ele>
  <time>2026-08-28T17:53:31Z</time>
  <course>12.22</course>
  <speed>1.143547113152755</speed>
  <fix>3d</fix>
</trkpt>
<trkpt lat="40.0713749" lon="-105.229789">
  <ele>1583.0</ele>
  <time>2026-08-28T17:53:31Z</time>
  <course>0.0</course>
  <speed>0.0</speed>
  <fix>3d</fix>
</trkpt>
<trkpt lat="40.0713842" lon="-105.2297879">
  <ele>1582.17</ele>
  <time>2026-08-28T17:53:31Z</time>
  <course>12.09</course>
  <speed>1.113642671596235</speed>
  <fix>3d</fix>
</trkpt>
<trkpt lat="40.0713749" lon="-105.229789">
  <ele>1583.0</ele>
  <time>2026-08-28T17:53:31Z</time>
  <course>0.0</course>
  <speed>0.0</speed>
  <fix>3d</fix>
</trkpt>
<trkpt lat="40.0713842" lon="-105.2297879">
  <ele>1582.17</ele>
  <time>2026-08-28T17:53:31Z</time>
  <course>11.97</course>
  <speed>1.113642671596235</speed>
  <fix>3d</fix>
</trkpt>
<trkpt lat="40.0713749" lon="-105.229789">
  <ele>1583.0</ele>
  <time>2026-08-28T17:53:31Z</time>
  <course>0.0</course>
  <speed>0.0</speed>
  <fix>3d</fix>
</trkpt>
<trkpt lat="40.071384" lon="-105.2297879">
  <ele>1582.18</ele>
  <time>2026-08-28T17:53:31Z</time>
  <course>11.85</course>
  <speed>1.0937092849564731</speed>
  <fix>3d</fix>
</trkpt>
<trkpt lat="40.0713749" lon="-105.229789">
  <ele>1583.0</ele>
  <time>2026-08-28T17:53:31Z</time>
  <course>0.0</course>
  <speed>0.0</speed>
  <fix>3d</fix>
</trkpt>
<trkpt lat="40.0713841" lon="-105.2297879">
  <ele>1582.18</ele>
  <time>2026-08-28T17:53:31Z</time>
  <course>11.72</course>
  <speed>1.0937092849564731</speed>
  <fix>3d</fix>
</trkpt>
<trkpt lat="40.0713749" lon="-105.229789">
  <ele>1583.0</ele>
  <time>2026-08-28T17:53:31Z</time>
  <course>0.0</course>
  <speed>0.0</speed>
  <fix>3d</fix>
</trkpt>
<trkpt lat="40.0713838" lon="-105.229788">
  <ele>1582.18</ele>
  <time>2026-08-28T17:53:31Z</time>
  <course>11.6</course>
  <speed>1.0737783756436894</speed>
  <fix>3d</fix>
</trkpt>
<trkpt lat="40.0713749" lon="-105.229789">
  <ele>1583.0</ele>
  <time>2026-08-28T17:53:31Z</time>
  <course>0.0</course>
  <speed>0.0</speed>
  <fix>3d</fix>
</trkpt>
<trkpt lat="40.0713839" lon="-105.229788">
  <ele>1582.18</ele>
  <time>2026-08-28T17:53:31Z</time>
  <course>11.48</course>
  <speed>1.0737783756436894</speed>
  <fix>3d</fix>
</trkpt>
<trkpt lat="40.0713749" lon="-105.229789">
  <ele>1583.0</ele>
  <time>2026-08-28T17:53:31Z</time>
  <course>0.0</course>
  <speed>0.0</speed>
  <fix>3d</fix>
</trkpt>
<trkpt lat="40.0713837" lon="-105.229788">
  <ele>1582.19</ele>
  <time>2026-08-28T17:53:31Z</time>
  <course>11.35</course>
  <speed>1.0530432089900206</speed>
  <fix>3d</fix>
</trkpt>
<trkpt lat="40.0713749" lon="-105.229789">
  <ele>1583.0</ele>
  <time>2026-08-28T17:53:31Z</time>
  <course>0.0</course>
  <speed>0.0</speed>
  <fix>3d</fix>
</trkpt>
<trkpt lat="40.0713838" lon="-105.229788">
  <ele>1582.19</ele>
  <time>2026-08-28T17:53:31Z</time>
  <course>11.23</course>
  <speed>1.0630145812734648</speed>
  <fix>3d</fix>
</trkpt>
<trkpt lat="40.0713749" lon="-105.229789">
  <ele>1583.0</ele>
  <time>2026-08-28T17:53:31Z</time>
  <course>0.0</course>
  <speed>0.0</speed>
  <fix>3d</fix>
</trkpt>
<trkpt lat="40.0713836" lon="-105.229788">
  <ele>1582.2</ele>
  <time>2026-08-28T17:53:31Z</time>
  <course>11.11</course>
  <speed>1.043072384832424</speed>
  <fix>3d</fix>
</trkpt>
<trkpt lat="40.0713749" lon="-105.229789">
  <ele>1583.0</ele>
  <time>2026-08-28T17:53:31Z</time>
  <course>0.0</course>
  <speed>0.0</speed>
  <fix>3d</fix>
</trkpt>
<trkpt lat="40.0713837" lon="-105.229788">
  <ele>1582.21</ele>
  <time>2026-08-28T17:53:31Z</time>
  <course>10.98</course>
  <speed>1.043072384832424</speed>
  <fix>3d</fix>
</trkpt>
<trkpt lat="40.0713749" lon="-105.229789">
  <ele>1583.0</ele>
  <time>2026-08-28T17:53:31Z</time>
  <course>0.0</course>
  <speed>0.0</speed>
  <fix>3d</fix>
</trkpt>
<trkpt lat="40.0713834" lon="-105.229788">
  <ele>1582.22</ele>
  <time>2026-08-28T17:53:31Z</time>
  <course>10.86</course>
  <speed>1.0231324449942931</speed>
  <fix>3d</fix>
</trkpt>
<trkpt lat="40.0713749" lon="-105.229789">
  <ele>1583.0</ele>
  <time>2026-08-28T17:53:31Z</time>
  <course>0.0</course>
  <speed>0.0</speed>
  <fix>3d</fix>
</trkpt>
<trkpt lat="40.0713836" lon="-105.229788">
  <ele>1582.23</ele>
  <time>2026-08-28T17:53:31Z</time>
  <course>10.74</course>
  <speed>1.0231324449942931</speed>
  <fix>3d</fix>
</trkpt>
<trkpt lat="40.0713749" lon="-105.229789">
  <ele>1583.0</ele>
  <time>2026-08-28T17:53:31Z</time>
  <course>0.0</course>
  <speed>0.0</speed>
  <fix>3d</fix>
</trkpt>
<trkpt lat="40.0713833" lon="-105.229788">
  <ele>1582.25</ele>
  <time>2026-08-28T17:53:31Z</time>
  <course>10.61</course>
  <speed>1.0031948963187562</speed>
  <fix>3d</fix>
</trkpt>
<trkpt lat="40.0713749" lon="-105.229789">
  <ele>1583.0</ele>
  <time>2026-08-28T17:53:31Z</time>
  <course>0.0</course>
  <speed>0.0</speed>
  <fix>3d</fix>
</trkpt>
<trkpt lat="40.0713834" lon="-105.229788">
  <ele>1582.26</ele>
  <time>2026-08-28T17:53:31Z</time>
  <course>10.49</course>
  <speed>1.0131633629380803</speed>
  <fix>3d</fix>
</trkpt>
<trkpt lat="40.0713749" lon="-105.229789">
  <ele>1583.0</ele>
  <time>2026-08-28T17:53:31Z</time>
  <course>0.0</course>
  <speed>0.0</speed>
  <fix>3d</fix>
</trkpt>
<trkpt lat="40.0713833" lon="-105.229788">
  <ele>1582.28</ele>
  <time>2026-08-28T17:53:31Z</time>
  <course>10.37</course>
  <speed>0.9932270636667125</speed>
  <fix>3d</fix>
</trkpt>
<trkpt lat="40.0713749" lon="-105.229789">
  <ele>1583.0</ele>
  <time>2026-08-28T17:53:31Z</time>
  <course>0.0</course>
  <speed>0.0</speed>
  <fix>3d</fix>
</trkpt>
<trkpt lat="40.0713833" lon="-105.229788">
  <ele>1582.29</ele>
  <time>2026-08-28T17:53:31Z</time>
  <course>10.25</course>
  <speed>0.9932270636667125</speed>
  <fix>3d</fix>
</trkpt>
<trkpt lat="40.0713749" lon="-105.229789">
  <ele>1583.0</ele>
  <time>2026-08-28T17:53:31Z</time>
  <course>0.0</course>
  <speed>0.0</speed>
  <fix>3d</fix>
</trkpt>
<trkpt lat="40.0713832" lon="-105.2297881">
  <ele>1582.31</ele>
  <time>2026-08-28T17:53:31Z</time>
  <course>10.13</course>
  <speed>0.9824968193332739</speed>
  <fix>3d</fix>
</trkpt>
<trkpt lat="40.0713749" lon="-105.229789">
  <ele>1583.0</ele>
  <time>2026-08-28T17:53:31Z</time>
  <course>0.0</course>
  <speed>0.0</speed>
  <fix>3d</fix>
</trkpt>
<trkpt lat="40.0713832" lon="-105.2297881">
  <ele>1582.32</ele>
  <time>2026-08-28T17:53:31Z</time>
  <course>10.0</course>
  <speed>0.9725224933131367</speed>
  <fix>3d</fix>
</trkpt>
<trkpt lat="40.0713749" lon="-105.229789">
  <ele>1583.0</ele>
  <time>2026-08-28T17:53:31Z</time>
  <course>0.0</course>
  <speed>0.0</speed>
  <fix>3d</fix>
</trkpt>
<trkpt lat="40.071383" lon="-105.2297881">
  <ele>1582.34</ele>
  <time>2026-08-28T17:53:31Z</time>
  <course>9.88</course>
  <speed>0.9625487000666512</speed>
  <fix>3d</fix>
</trkpt>
<trkpt lat="40.0713749" lon="-105.229789">
  <ele>1583.0</ele>
  <time>2026-08-28T17:53:31Z</time>
  <course>0.0</course>
  <speed>0.0</speed>
  <fix>3d</fix>
</trkpt>
<trkpt lat="40.0713831" lon="-105.2297881">
  <ele>1582.35</ele>
  <time>2026-08-28T17:53:31Z</time>
  <course>9.76</course>
  <speed>0.9625487000666512</speed>
  <fix>3d</fix>
</trkpt>
<trkpt lat="40.0713749" lon="-105.229789">
  <ele>1583.0</ele>
  <time>2026-08-28T17:53:31Z</time>
  <course>0.0</course>
  <speed>0.0</speed>
  <fix>3d</fix>
</trkpt>
<trkpt lat="40.0713829" lon="-105.2297881">
  <ele>1582.37</ele>
  <time>2026-08-28T17:53:31Z</time>
  <course>9.64</course>
  <speed>0.9426027795418386</speed>
  <fix>3d</fix>
</trkpt>
<trkpt lat="40.0713749" lon="-105.229789">
  <ele>1583.0</ele>
  <time>2026-08-28T17:53:31Z</time>
  <course>0.0</course>
  <speed>0.0</speed>
  <fix>3d</fix>
</trkpt>
<trkpt lat="40.0713829" lon="-105.2297881">
  <ele>1582.38</ele>
  <time>2026-08-28T17:53:31Z</time>
  <course>9.52</course>
  <speed>0.9426027795418386</speed>
  <fix>3d</fix>
</trkpt>
<trkpt lat="40.0713749" lon="-105.229789">
  <ele>1583.0</ele>
  <time>2026-08-28T17:53:31Z</time>
  <course>0.0</course>
  <speed>0.0</speed>
  <fix>3d</fix>
</trkpt>
<trkpt lat="40.0713827" lon="-105.2297881">
  <ele>1582.4</ele>
  <time>2026-08-28T17:53:31Z</time>
  <course>9.4</course>
  <speed>0.9226592003551474</speed>
  <fix>3d</fix>
</trkpt>
<trkpt lat="40.0713749" lon="-105.229789">
  <ele>1583.0</ele>
  <time>2026-08-28T17:53:31Z</time>
  <course>0.0</course>
  <speed>0.0</speed>
  <fix>3d</fix>
</trkpt>
<trkpt lat="40.0713827" lon="-105.2297881">
  <ele>1582.41</ele>
  <time>2026-08-28T17:53:31Z</time>
  <course>9.28</course>
  <speed>0.9226592003551474</speed>
  <fix>3d</fix>
</trkpt>
<trkpt lat="40.0713749" lon="-105.229789">
  <ele>1583.0</ele>
  <time>2026-08-28T17:53:31Z</time>
  <course>0.0</course>
  <speed>0.0</speed>
  <fix>3d</fix>
</trkpt>
<trkpt lat="40.0713825" lon="-105.2297882">
  <ele>1582.42</ele>
  <time>2026-08-28T17:53:31Z</time>
  <course>9.16</course>
  <speed>0.9027181176868004</speed>
  <fix>3d</fix>
</trkpt>
<trkpt lat="40.0713749" lon="-105.229789">
  <ele>1583.0</ele>
  <time>2026-08-28T17:53:31Z</time>
  <course>0.0</course>
  <speed>0.0</speed>
  <fix>3d</fix>
</trkpt>
<trkpt lat="40.0713826" lon="-105.2297881">
  <ele>1582.43</ele>
  <time>2026-08-28T17:53:31Z</time>
  <course>9.04</course>
  <speed>0.9019977827023744</speed>
  <fix>3d</fix>
</trkpt>
<trkpt lat="40.0713749" lon="-105.229789">
  <ele>1583.0</ele>
  <time>2026-08-28T17:53:31Z</time>
  <course>0.0</course>
  <speed>0.0</speed>
  <fix>3d</fix>
</trkpt>
<trkpt lat="40.0713823" lon="-105.2297882">
  <ele>1582.44</ele>
  <time>2026-08-28T17:53:31Z</time>
  <course>8.92</course>
  <speed>0.8820430828479978</speed>
  <fix>3d</fix>
</trkpt>
<trkpt lat="40.0713749" lon="-105.229789">
  <ele>1583.0</ele>
  <time>2026-08-28T17:53:31Z</time>
  <course>0.0</course>
  <speed>0.0</speed>
  <fix>3d</fix>
</trkpt>
<trkpt lat="40.0713824" lon="-105.2297882">
  <ele>1582.45</ele>
  <time>2026-08-28T17:53:31Z</time>
  <course>8.8</course>
  <speed>0.8920201791439475</speed>
  <fix>3d</fix>
</trkpt>
<trkpt lat="40.0713749" lon="-105.229789">
  <ele>1583.0</ele>
  <time>2026-08-28T17:53:31Z</time>
  <course>0.0</course>
  <speed>0.0</speed>
  <fix>3d</fix>
</trkpt>
<trkpt lat="40.0713822" lon="-105.2297882">
  <ele>1582.47</ele>
  <time>2026-08-28T17:53:31Z</time>
  <course>8.68</course>
  <speed>0.872066511224918</speed>
  <fix>3d</fix>
</trkpt>
<trkpt lat="40.0713749" lon="-105.229789">
  <ele>1583.0</ele>
  <time>2026-08-28T17:53:31Z</time>
  <course>0.0</course>
  <speed>0.0</speed>
  <fix>3d</fix>
</trkpt>
<trkpt lat="40.0713823" lon="-105.2297882">
  <ele>1582.48</ele>
  <time>2026-08-28T17:53:31Z</time>
  <course>8.56</course>
  <speed>0.872066511224918</speed>
  <fix>3d</fix>
</trkpt>
<trkpt lat="40.0713749" lon="-105.229789">
  <ele>1583.0</ele>
  <time>2026-08-28T17:53:31Z</time>
  <course>0.0</course>
  <speed>0.0</speed>
  <fix>3d</fix>
</trkpt>
<trkpt lat="40.0713821" lon="-105.2297882">
  <ele>1582.49</ele>
  <time>2026-08-28T17:53:31Z</time>
  <course>8.44</course>
  <speed>0.8620904824900922</speed>
  <fix>3d</fix>
</trkpt>
<trkpt lat="40.0713749" lon="-105.229789">
  <ele>1583.0</ele>
  <time>2026-08-28T17:53:31Z</time>
  <course>0.0</course>
  <speed>0.0</speed>
  <fix>3d</fix>
</trkpt>
<trkpt lat="40.0713822" lon="-105.2297882">
  <ele>1582.49</ele>
  <time>2026-08-28T17:53:31Z</time>
  <course>8.32</course>
  <speed>0.8620904824900922</speed>
  <fix>3d</fix>
</trkpt>
<trkpt lat="40.0713749" lon="-105.229789">
  <ele>1583.0</ele>
  <time>2026-08-28T17:53:31Z</time>
  <course>0.0</course>
  <speed>0.0</speed>
  <fix>3d</fix>
</trkpt>
<trkpt lat="40.071382" lon="-105.2297882">
  <ele>1582.49</ele>
  <time>2026-08-28T17:53:31Z</time>
  <course>8.2</course>
  <speed>0.8421401308570919</speed>
  <fix>3d</fix>
</trkpt>
<trkpt lat="40.0713749" lon="-105.229789">
  <ele>1583.0</ele>
  <time>2026-08-28T17:53:31Z</time>
  <course>0.0</course>
  <speed>0.0</speed>
  <fix>3d</fix>
</trkpt>
<trkpt lat="40.0713821" lon="-105.2297882">
  <ele>1582.49</ele>
  <time>2026-08-28T17:53:31Z</time>
  <course>8.09</course>
  <speed>0.8521150157109073</speed>
  <fix>3d</fix>
</trkpt>
<trkpt lat="40.0713749" lon="-105.229789">
  <ele>1583.0</ele>
  <time>2026-08-28T17:53:31Z</time>
  <course>0.0</course>
  <speed>0.0</speed>
  <fix>3d</fix>
</trkpt>
<trkpt lat="40.0713819" lon="-105.2297883">
  <ele>1582.5</ele>
  <time>2026-08-28T17:53:31Z</time>
  <course>7.97</course>
  <speed>0.8315046602394962</speed>
  <fix>3d</fix>
</trkpt>
<trkpt lat="40.0713749" lon="-105.229789">
  <ele>1583.0</ele>
  <time>2026-08-28T17:53:31Z</time>
  <course>0.0</course>
  <speed>0.0</speed>
  <fix>3d</fix>
</trkpt>
<trkpt lat="40.071382" lon="-105.2297883">
  <ele>1582.5</ele>
  <time>2026-08-28T17:53:31Z</time>
  <course>7.86</course>
  <speed>0.8315046602394962</speed>
  <fix>3d</fix>
</trkpt>
<trkpt lat="40.0713749" lon="-105.229789">
  <ele>1583.0</ele>
  <time>2026-08-28T17:53:31Z</time>
  <course>0.0</course>
  <speed>0.0</speed>
  <fix>3d</fix>
</trkpt>
<trkpt lat="40.0713819" lon="-105.2297883">
  <ele>1582.5</ele>
  <time>2026-08-28T17:53:31Z</time>
  <course>7.74</course>
  <speed>0.8215229759416348</speed>
  <fix>3d</fix>
</trkpt>
<trkpt lat="40.0713749" lon="-105.229789">
  <ele>1583.0</ele>
  <time>2026-08-28T17:53:31Z</time>
  <course>0.0</course>
  <speed>0.0</speed>
  <fix>3d</fix>
</trkpt>
<trkpt lat="40.0713819" lon="-105.2297883">
  <ele>1582.5</ele>
  <time>2026-08-28T17:53:31Z</time>
  <course>7.63</course>
  <speed>0.8215229759416348</speed>
  <fix>3d</fix>
</trkpt>
<trkpt lat="40.0713749" lon="-105.229789">
  <ele>1583.0</ele>
  <time>2026-08-28T17:53:31Z</time>
  <course>0.0</course>
  <speed>0.0</speed>
  <fix>3d</fix>
</trkpt>
<trkpt lat="40.0713818" lon="-105.2297883">
  <ele>1582.5</ele>
  <time>2026-08-28T17:53:31Z</time>
  <course>7.51</course>
  <speed>0.8115417426109393</speed>
  <fix>3d</fix>
</trkpt>
<trkpt lat="40.0713749" lon="-105.229789">
  <ele>1583.0</ele>
  <time>2026-08-28T17:53:31Z</time>
  <course>0.0</course>
  <speed>0.0</speed>
  <fix>3d</fix>
</trkpt>
<trkpt lat="40.0713818" lon="-105.2297883">
  <ele>1582.51</ele>
  <time>2026-08-28T17:53:31Z</time>
  <course>7.39</course>
  <speed>0.8115417426109393</speed>
  <fix>3d</fix>
</trkpt>
<trkpt lat="40.0713749" lon="-105.229789">
  <ele>1583.0</ele>
  <time>2026-08-28T17:53:31Z</time>
  <course>0.0</course>
  <speed>0.0</speed>
  <fix>3d</fix>
</trkpt>
<trkpt lat="40.0713817" lon="-105.2297883">
  <ele>1582.52</ele>
  <time>2026-08-28T17:53:31Z</time>
  <course>7.27</course>
  <speed>0.8015609770940699</speed>
  <fix>3d</fix>
</trkpt>
<trkpt lat="40.0713749" lon="-105.229789">
  <ele>1583.0</ele>
  <time>2026-08-28T17:53:31Z</time>
  <course>0.0</course>
  <speed>0.0</speed>
  <fix>3d</fix>
</trkpt>
<trkpt lat="40.0713817" lon="-105.2297883">
  <ele>1582.53</ele>
  <time>2026-08-28T17:53:31Z</time>
  <course>7.15</course>
  <speed>0.8015609770940699</speed>
  <fix>3d</fix>
</trkpt>
<trkpt lat="40.0713749" lon="-105.229789">
  <ele>1583.0</ele>
  <time>2026-08-28T17:53:31Z</time>
  <course>0.0</course>
  <speed>0.0</speed>
  <fix>3d</fix>
</trkpt>
<trkpt lat="40.0713815" lon="-105.2297883">
  <ele>1582.55</ele>
  <time>2026-08-28T17:53:31Z</time>
  <course>7.03</course>
  <speed>0.7810249675906654</speed>
  <fix>3d</fix>
</trkpt>
<trkpt lat="40.0713749" lon="-105.229789">
  <ele>1583.0</ele>
  <time>2026-08-28T17:53:31Z</time>
  <course>0.0</course>
  <speed>0.0</speed>
  <fix>3d</fix>
</trkpt>
<trkpt lat="40.0713816" lon="-105.2297883">
  <ele>1582.56</ele>
  <time>2026-08-28T17:53:31Z</time>
  <course>6.91</course>
  <speed>0.7810249675906654</speed>
  <fix>3d</fix>
</trkpt>
<trkpt lat="40.0713749" lon="-105.229789">
  <ele>1583.0</ele>
  <time>2026-08-28T17:53:31Z</time>
  <course>0.0</course>
  <speed>0.0</speed>
  <fix>3d</fix>
</trkpt>
<trkpt lat="40.0713813" lon="-105.2297884">
  <ele>1582.58</ele>
  <time>2026-08-28T17:53:31Z</time>
  <course>6.79</course>
  <speed>0.7710382610480494</speed>
  <fix>3d</fix>
</trkpt>
<trkpt lat="40.0713749" lon="-105.229789">
  <ele>1583.0</ele>
  <time>2026-08-28T17:53:31Z</time>
  <course>0.0</course>
  <speed>0.0</speed>
  <fix>3d</fix>
</trkpt>
<trkpt lat="40.0713814" lon="-105.2297884">
  <ele>1582.59</ele>
  <time>2026-08-28T17:53:31Z</time>
  <course>6.67</course>
  <speed>0.7710382610480494</speed>
  <fix>3d</fix>
</trkpt>
<trkpt lat="40.0713749" lon="-105.229789">
  <ele>1583.0</ele>
  <time>2026-08-28T17:53:31Z</time>
  <course>0.0</course>
  <speed>0.0</speed>
  <fix>3d</fix>
</trkpt>
<trkpt lat="40.0713812" lon="-105.2297884">
  <ele>1582.61</ele>
  <time>2026-08-28T17:53:31Z</time>
  <course>6.55</course>
  <speed>0.7510659092250159</speed>
  <fix>3d</fix>
</trkpt>
<trkpt lat="40.0713749" lon="-105.229789">
  <ele>1583.0</ele>
  <time>2026-08-28T17:53:31Z</time>
  <course>0.0</course>
  <speed>0.0</speed>
  <fix>3d</fix>
</trkpt>
<trkpt lat="40.0713813" lon="-105.2297884">
  <ele>1582.62</ele>
  <time>2026-08-28T17:53:31Z</time>
  <course>6.43</course>
  <speed>0.7610519036176179</speed>
  <fix>3d</fix>
</trkpt>
<trkpt lat="40.0713749" lon="-105.229789">
  <ele>1583.0</ele>
  <time>2026-08-28T17:53:31Z</time>
  <course>0.0</course>
  <speed>0.0</speed>
  <fix>3d</fix>
</trkpt>
<trkpt lat="40.0713811" lon="-105.2297884">
  <ele>1582.63</ele>
  <time>2026-08-28T17:53:31Z</time>
  <course>6.32</course>
  <speed>0.7410802925459562</speed>
  <fix>3d</fix>
</trkpt>
<trkpt lat="40.0713749" lon="-105.229789">
  <ele>1583.0</ele>
  <time>2026-08-28T17:53:31Z</time>
  <course>0.0</course>
  <speed>0.0</speed>
  <fix>3d</fix>
</trkpt>
<trkpt lat="40.0713812" lon="-105.2297884">
  <ele>1582.64</ele>
  <time>2026-08-28T17:53:31Z</time>
  <course>6.2</course>
  <speed>0.7505997601918082</speed>
  <fix>3d</fix>
</trkpt>
<trkpt lat="40.0713749" lon="-105.229789">
  <ele>1583.0</ele>
  <time>2026-08-28T17:53:31Z</time>
  <course>0.0</course>
  <speed>0.0</speed>
  <fix>3d</fix>
</trkpt>
<trkpt lat="40.0713811" lon="-105.2297885">
  <ele>1582.65</ele>
  <time>2026-08-28T17:53:31Z</time>
  <course>6.09</course>
  <speed>0.7306161783043131</speed>
  <fix>3d</fix>
</trkpt>
<trkpt lat="40.0713749" lon="-105.229789">
  <ele>1583.0</ele>
  <time>2026-08-28T17:53:31Z</time>
  <course>0.0</course>
  <speed>0.0</speed>
  <fix>3d</fix>
</trkpt>
<trkpt lat="40.0713811" lon="-105.2297885">
  <ele>1582.66</ele>
  <time>2026-08-28T17:53:31Z</time>
  <course>5.97</course>
  <speed>0.740607858451421</speed>
  <fix>3d</fix>
</trkpt>
<trkpt lat="40.0713749" lon="-105.229789">
  <ele>1583.0</ele>
  <time>2026-08-28T17:53:31Z</time>
  <course>0.0</course>
  <speed>0.0</speed>
  <fix>3d</fix>
</trkpt>
<trkpt lat="40.071381" lon="-105.2297885">
  <ele>1582.67</ele>
  <time>2026-08-28T17:53:31Z</time>
  <course>5.85</course>
  <speed>0.7206247289678588</speed>
  <fix>3d</fix>
</trkpt>
<trkpt lat="40.0713749" lon="-105.229789">
  <ele>1583.0</ele>
  <time>2026-08-28T17:53:31Z</time>
  <course>0.0</course>
  <speed>0.0</speed>
  <fix>3d</fix>
</trkpt>
<trkpt lat="40.0713811" lon="-105.2297885">
  <ele>1582.68</ele>
  <time>2026-08-28T17:53:31Z</time>
  <course>5.74</course>
  <speed>0.7306161783043131</speed>
  <fix>3d</fix>
</trkpt>
<trkpt lat="40.0713749" lon="-105.229789">
  <ele>1583.0</ele>
  <time>2026-08-28T17:53:31Z</time>
  <course>0.0</course>
  <speed>0.0</speed>
  <fix>3d</fix>
</trkpt>
<trkpt lat="40.0713809" lon="-105.2297885">
  <ele>1582.69</ele>
  <time>2026-08-28T17:53:31Z</time>
  <course>5.62</course>
  <speed>0.7106335201775947</speed>
  <fix>3d</fix>
</trkpt>
<trkpt lat="40.0713749" lon="-105.229789">
  <ele>1583.0</ele>
  <time>2026-08-28T17:53:31Z</time>
  <course>0.0</course>
  <speed>0.0</speed>
  <fix>3d</fix>
</trkpt>
<trkpt lat="40.071381" lon="-105.2297885">
  <ele>1582.69</ele>
  <time>2026-08-28T17:53:31Z</time>
  <course>5.5</course>
  <speed>0.7206247289678588</speed>
  <fix>3d</fix>
</trkpt>
<trkpt lat="40.0713749" lon="-105.229789">
  <ele>1583.0</ele>
  <time>2026-08-28T17:53:31Z</time>
  <course>0.0</course>
  <speed>0.0</speed>
  <fix>3d</fix>
</trkpt>
<trkpt lat="40.0713809" lon="-105.2297885">
  <ele>1582.71</ele>
  <time>2026-08-28T17:53:31Z</time>
  <course>5.39</course>
  <speed>0.7106335201775947</speed>
  <fix>3d</fix>
</trkpt>
<trkpt lat="40.0713749" lon="-105.229789">
  <ele>1583.0</ele>
  <time>2026-08-28T17:53:31Z</time>
  <course>0.0</course>
  <speed>0.0</speed>
  <fix>3d</fix>
</trkpt>
<trkpt lat="40.0713809" lon="-105.2297885">
  <ele>1582.71</ele>
  <time>2026-08-28T17:53:31Z</time>
  <course>5.27</course>
  <speed>0.7102816342831905</speed>
  <fix>3d</fix>
</trkpt>
<trkpt lat="40.0713749" lon="-105.229789">
  <ele>1583.0</ele>
  <time>2026-08-28T17:53:31Z</time>
  <course>0.0</course>
  <speed>0.0</speed>
  <fix>3d</fix>
</trkpt>
<trkpt lat="40.0713808" lon="-105.2297885">
  <ele>1582.73</ele>
  <time>2026-08-28T17:53:31Z</time>
  <course>5.15</course>
  <speed>0.7002856560004639</speed>
  <fix>3d</fix>
</trkpt>
<trkpt lat="40.0713749" lon="-105.229789">
  <ele>1583.0</ele>
  <time>2026-08-28T17:53:31Z</time>
  <course>0.0</course>
  <speed>0.0</speed>
  <fix>3d</fix>
</trkpt>
<trkpt lat="40.0713809" lon="-105.2297885">
  <ele>1582.74</ele>
  <time>2026-08-28T17:53:31Z</time>
  <course>5.04</course>
  <speed>0.7002856560004639</speed>
  <fix>3d</fix>
</trkpt>
<trkpt lat="40.0713749" lon="-105.229789">
  <ele>1583.0</ele>
  <time>2026-08-28T17:53:31Z</time>
  <course>0.0</course>
  <speed>0.0</speed>
  <fix>3d</fix>
</trkpt>
<trkpt lat="40.0713807" lon="-105.2297886">
  <ele>1582.74</ele>
  <time>2026-08-28T17:53:31Z</time>
  <course>4.92</course>
  <speed>0.6902897942168927</speed>
  <fix>3d</fix>
</trkpt>
<trkpt lat="40.0713749" lon="-105.229789">
  <ele>1583.0</ele>
  <time>2026-08-28T17:53:31Z</time>
  <course>0.0</course>
  <speed>0.0</speed>
  <fix>3d</fix>
</trkpt>
<trkpt lat="40.0713808" lon="-105.2297886">
  <ele>1582.75</ele>
  <time>2026-08-28T17:53:31Z</time>
  <course>4.81</course>
  <speed>0.6902897942168927</speed>
  <fix>3d</fix>
</trkpt>
<trkpt lat="40.0713749" lon="-105.229789">
  <ele>1583.0</ele>
  <time>2026-08-28T17:53:31Z</time>
  <course>0.0</course>
  <speed>0.0</speed>
  <fix>3d</fix>
</trkpt>
<trkpt lat="40.0713807" lon="-105.2297886">
  <ele>1582.76</ele>
  <time>2026-08-28T17:53:31Z</time>
  <course>4.69</course>
  <speed>0.680294054067798</speed>
  <fix>3d</fix>
</trkpt>
<trkpt lat="40.0713749" lon="-105.229789">
  <ele>1583.0</ele>
  <time>2026-08-28T17:53:31Z</time>
  <course>0.0</course>
  <speed>0.0</speed>
  <fix>3d</fix>
</trkpt>
<trkpt lat="40.0713807" lon="-105.2297886">
  <ele>1582.76</ele>
  <time>2026-08-28T17:53:31Z</time>
  <course>4.58</course>
  <speed>0.680294054067798</speed>
  <fix>3d</fix>
</trkpt>
<trkpt lat="40.0713749" lon="-105.229789">
  <ele>1583.0</ele>
  <time>2026-08-28T17:53:31Z</time>
  <course>0.0</course>
  <speed>0.0</speed>
  <fix>3d</fix>
</trkpt>
<trkpt lat="40.0713805" lon="-105.2297886">
  <ele>1582.77</ele>
  <time>2026-08-28T17:53:31Z</time>
  <course>4.47</course>
  <speed>0.6702984409947557</speed>
  <fix>3d</fix>
</trkpt>
<trkpt lat="40.0713749" lon="-105.229789">
  <ele>1583.0</ele>
  <time>2026-08-28T17:53:31Z</time>
  <course>0.0</course>
  <speed>0.0</speed>
  <fix>3d</fix>
</trkpt>
<trkpt lat="40.0713806" lon="-105.2297886">
  <ele>1582.77</ele>
  <time>2026-08-28T17:53:31Z</time>
  <course>4.36</course>
  <speed>0.6700746227100381</speed>
  <fix>3d</fix>
</trkpt>
<trkpt lat="40.0713749" lon="-105.229789">
  <ele>1583.0</ele>
  <time>2026-08-28T17:53:31Z</time>
  <course>0.0</course>
  <speed>0.0</speed>
  <fix>3d</fix>
</trkpt>
<trkpt lat="40.0713804" lon="-105.2297887">
  <ele>1582.78</ele>
  <time>2026-08-28T17:53:31Z</time>
  <course>4.24</course>
  <speed>0.66007575322837</speed>
  <fix>3d</fix>
</trkpt>
<trkpt lat="40.0713749" lon="-105.229789">
  <ele>1583.0</ele>
  <time>2026-08-28T17:53:31Z</time>
  <course>0.0</course>
  <speed>0.0</speed>
  <fix>3d</fix>
</trkpt>
<trkpt lat="40.0713805" lon="-105.2297887">
  <ele>1582.78</ele>
  <time>2026-08-28T17:53:31Z</time>
  <course>4.13</course>
  <speed>0.66007575322837</speed>
  <fix>3d</fix>
</trkpt>
<trkpt lat="40.0713749" lon="-105.229789">
  <ele>1583.0</ele>
  <time>2026-08-28T17:53:31Z</time>
  <course>0.0</course>
  <speed>0.0</speed>
  <fix>3d</fix>
</trkpt>
<trkpt lat="40.0713803" lon="-105.2297887">
  <ele>1582.79</ele>
  <time>2026-08-28T17:53:31Z</time>
  <course>4.02</course>
  <speed>0.6500769185258002</speed>
  <fix>3d</fix>
</trkpt>
<trkpt lat="40.0713749" lon="-105.229789">
  <ele>1583.0</ele>
  <time>2026-08-28T17:53:31Z</time>
  <course>0.0</course>
  <speed>0.0</speed>
  <fix>3d</fix>
</trkpt>
<trkpt lat="40.0713804" lon="-105.2297887">
  <ele>1582.79</ele>
  <time>2026-08-28T17:53:31Z</time>
  <course>3.9</course>
  <speed>0.6500769185258002</speed>
  <fix>3d</fix>
</trkpt>
<trkpt lat="40.0713749" lon="-105.229789">
  <ele>1583.0</ele>
  <time>2026-08-28T17:53:31Z</time>
  <course>0.0</course>
  <speed>0.0</speed>
  <fix>3d</fix>
</trkpt>
<trkpt lat="40.0713802" lon="-105.2297887">
  <ele>1582.8</ele>
  <time>2026-08-28T17:53:31Z</time>
  <course>3.79</course>
  <speed>0.6400781202322103</speed>
  <fix>3d</fix>
</trkpt>
<trkpt lat="40.0713749" lon="-105.229789">
  <ele>1583.0</ele>
  <time>2026-08-28T17:53:31Z</time>
  <course>0.0</course>
  <speed>0.0</speed>
  <fix>3d</fix>
</trkpt>
<trkpt lat="40.0713803" lon="-105.2297887">
  <ele>1582.8</ele>
  <time>2026-08-28T17:53:31Z</time>
  <course>3.67</course>
  <speed>0.6400781202322103</speed>
  <fix>3d</fix>
</trkpt>
<trkpt lat="40.0713749" lon="-105.229789">
  <ele>1583.0</ele>
  <time>2026-08-28T17:53:31Z</time>
  <course>0.0</course>
  <speed>0.0</speed>
  <fix>3d</fix>
</trkpt>
<trkpt lat="40.0713802" lon="-105.2297887">
  <ele>1582.81</ele>
  <time>2026-08-28T17:53:31Z</time>
  <course>3.56</course>
  <speed>0.6300793600809346</speed>
  <fix>3d</fix>
</trkpt>
<trkpt lat="40.0713749" lon="-105.229789">
  <ele>1583.0</ele>
  <time>2026-08-28T17:53:31Z</time>
  <course>0.0</course>
  <speed>0.0</speed>
  <fix>3d</fix>
</trkpt>
<trkpt lat="40.0713803" lon="-105.2297887">
  <ele>1582.81</ele>
  <time>2026-08-28T17:53:31Z</time>
  <course>3.45</course>
  <speed>0.6400781202322103</speed>
  <fix>3d</fix>
</trkpt>
<trkpt lat="40.0713749" lon="-105.229789">
  <ele>1583.0</ele>
  <time>2026-08-28T17:53:31Z</time>
  <course>0.0</course>
  <speed>0.0</speed>
  <fix>3d</fix>
</trkpt>
<trkpt lat="40.0713801" lon="-105.2297888">
  <ele>1582.82</ele>
  <time>2026-08-28T17:53:31Z</time>
  <course>3.33</course>
  <speed>0.62</speed>
  <fix>3d</fix>
</trkpt>
<trkpt lat="40.0713749" lon="-105.229789">
  <ele>1583.0</ele>
  <time>2026-08-28T17:53:31Z</time>
  <course>0.0</course>
  <speed>0.0</speed>
  <fix>3d</fix>
</trkpt>
<trkpt lat="40.0713802" lon="-105.2297888">
  <ele>1582.82</ele>
  <time>2026-08-28T17:53:31Z</time>
  <course>3.22</course>
  <speed>0.63</speed>
  <fix>3d</fix>
</trkpt>
<trkpt lat="40.0713749" lon="-105.229789">
  <ele>1583.0</ele>
  <time>2026-08-28T17:53:31Z</time>
  <course>0.0</course>
  <speed>0.0</speed>
  <fix>3d</fix>
</trkpt>
<trkpt lat="40.0713801" lon="-105.2297888">
  <ele>1582.82</ele>
  <time>2026-08-28T17:53:31Z</time>
  <course>3.11</course>
  <speed>0.62</speed>
  <fix>3d</fix>
</trkpt>
<trkpt lat="40.0713749" lon="-105.229789">
  <ele>1583.0</ele>
  <time>2026-08-28T17:53:31Z</time>
  <course>0.0</course>
  <speed>0.0</speed>
  <fix>3d</fix>
</trkpt>
<trkpt lat="40.0713801" lon="-105.2297888">
  <ele>1582.83</ele>
  <time>2026-08-28T17:53:31Z</time>
  <course>3.0</course>
  <speed>0.62</speed>
  <fix>3d</fix>
</trkpt>
<trkpt lat="40.0713749" lon="-105.229789">
  <ele>1583.0</ele>
  <time>2026-08-28T17:53:31Z</time>
  <course>0.0</course>
  <speed>0.0</speed>
  <fix>3d</fix>
</trkpt>
<trkpt lat="40.0713801" lon="-105.2297888">
  <ele>1582.83</ele>
  <time>2026-08-28T17:53:31Z</time>
  <course>2.89</course>
  <speed>0.61</speed>
  <fix>3d</fix>
</trkpt>
<trkpt lat="40.0713749" lon="-105.229789">
  <ele>1583.0</ele>
  <time>2026-08-28T17:53:31Z</time>
  <course>0.0</course>
  <speed>0.0</speed>
  <fix>3d</fix>
</trkpt>
<trkpt lat="40.0713801" lon="-105.2297888">
  <ele>1582.83</ele>
  <time>2026-08-28T17:53:31Z</time>
  <course>2.78</course>
  <speed>0.62</speed>
  <fix>3d</fix>
</trkpt>
<trkpt lat="40.0713749" lon="-105.229789">
  <ele>1583.0</ele>
  <time>2026-08-28T17:53:31Z</time>
  <course>0.0</course>
  <speed>0.0</speed>
  <fix>3d</fix>
</trkpt>
<trkpt lat="40.07138" lon="-105.2297888">
  <ele>1582.82</ele>
  <time>2026-08-28T17:53:31Z</time>
  <course>2.67</course>
  <speed>0.61</speed>
  <fix>3d</fix>
</trkpt>
<trkpt lat="40.0713749" lon="-105.229789">
  <ele>1583.0</ele>
  <time>2026-08-28T17:53:31Z</time>
  <course>0.0</course>
  <speed>0.0</speed>
  <fix>3d</fix>
</trkpt>
<trkpt lat="40.0713801" lon="-105.2297888">
  <ele>1582.82</ele>
  <time>2026-08-28T17:53:31Z</time>
  <course>2.56</course>
  <speed>0.61</speed>
  <fix>3d</fix>
</trkpt>
<trkpt lat="40.0713749" lon="-105.229789">
  <ele>1583.0</ele>
  <time>2026-08-28T17:53:31Z</time>
  <course>0.0</course>
  <speed>0.0</speed>
  <fix>3d</fix>
</trkpt>
<trkpt lat="40.07138" lon="-105.2297888">
  <ele>1582.81</ele>
  <time>2026-08-28T17:53:31Z</time>
  <course>2.46</course>
  <speed>0.6</speed>
  <fix>3d</fix>
</trkpt>
<trkpt lat="40.0713749" lon="-105.229789">
  <ele>1583.0</ele>
  <time>2026-08-28T17:53:31Z</time>
  <course>0.0</course>
  <speed>0.0</speed>
  <fix>3d</fix>
</trkpt>
<trkpt lat="40.07138" lon="-105.2297889">
  <ele>1582.81</ele>
  <time>2026-08-28T17:53:31Z</time>
  <course>2.35</course>
  <speed>0.6</speed>
  <fix>3d</fix>
</trkpt>
<trkpt lat="40.0713749" lon="-105.229789">
  <ele>1583.0</ele>
  <time>2026-08-28T17:53:31Z</time>
  <course>0.0</course>
  <speed>0.0</speed>
  <fix>3d</fix>
</trkpt>
<trkpt lat="40.0713798" lon="-105.2297889">
  <ele>1582.8</ele>
  <time>2026-08-28T17:53:31Z</time>
  <course>2.24</course>
  <speed>0.59</speed>
  <fix>3d</fix>
</trkpt>
<trkpt lat="40.0713749" lon="-105.229789">
  <ele>1583.0</ele>
  <time>2026-08-28T17:53:31Z</time>
  <course>0.0</course>
  <speed>0.0</speed>
  <fix>3d</fix>
</trkpt>
<trkpt lat="40.0713799" lon="-105.2297889">
  <ele>1582.8</ele>
  <time>2026-08-28T17:53:31Z</time>
  <course>2.13</course>
  <speed>0.59</speed>
  <fix>3d</fix>
</trkpt>
<trkpt lat="40.0713749" lon="-105.229789">
  <ele>1583.0</ele>
  <time>2026-08-28T17:53:31Z</time>
  <course>0.0</course>
  <speed>0.0</speed>
  <fix>3d</fix>
</trkpt>
<trkpt lat="40.0713797" lon="-105.2297889">
  <ele>1582.8</ele>
  <time>2026-08-28T17:53:31Z</time>
  <course>2.02</course>
  <speed>0.58</speed>
  <fix>3d</fix>
</trkpt>
<trkpt lat="40.0713749" lon="-105.229789">
  <ele>1583.0</ele>
  <time>2026-08-28T17:53:31Z</time>
  <course>0.0</course>
  <speed>0.0</speed>
  <fix>3d</fix>
</trkpt>
<trkpt lat="40.0713798" lon="-105.2297889">
  <ele>1582.79</ele>
  <time>2026-08-28T17:53:31Z</time>
  <course>1.91</course>
  <speed>0.58</speed>
  <fix>3d</fix>
</trkpt>
<trkpt lat="40.0713749" lon="-105.229789">
  <ele>1583.0</ele>
  <time>2026-08-28T17:53:31Z</time>
  <course>0.0</course>
  <speed>0.0</speed>
  <fix>3d</fix>
</trkpt>
<trkpt lat="40.0713797" lon="-105.2297889">
  <ele>1582.79</ele>
  <time>2026-08-28T17:53:31Z</time>
  <course>1.8</course>
  <speed>0.57</speed>
  <fix>3d</fix>
</trkpt>
<trkpt lat="40.0713749" lon="-105.229789">
  <ele>1583.0</ele>
  <time>2026-08-28T17:53:31Z</time>
  <course>0.0</course>
  <speed>0.0</speed>
  <fix>3d</fix>
</trkpt>
<trkpt lat="40.0713797" lon="-105.2297889">
  <ele>1582.79</ele>
  <time>2026-08-28T17:53:31Z</time>
  <course>1.69</course>
  <speed>0.5503635162326805</speed>
  <fix>3d</fix>
</trkpt>
<trkpt lat="40.0713749" lon="-105.229789">
  <ele>1583.0</ele>
  <time>2026-08-28T17:53:31Z</time>
  <course>0.0</course>
  <speed>0.0</speed>
  <fix>3d</fix>
</trkpt>
<trkpt lat="40.0713796" lon="-105.2297889">
  <ele>1582.8</ele>
  <time>2026-08-28T17:53:31Z</time>
  <course>1.57</course>
  <speed>0.51478150704935</speed>
  <fix>3d</fix>
</trkpt>
<trkpt lat="40.0713749" lon="-105.229789">
  <ele>1583.0</ele>
  <time>2026-08-28T17:53:31Z</time>
  <course>0.0</course>
  <speed>0.0</speed>
  <fix>3d</fix>
</trkpt>
<trkpt lat="40.0713796" lon="-105.2297888">
  <ele>1582.81</ele>
  <time>2026-08-28T17:53:31Z</time>
  <course>1.46</course>
  <speed>0.5021951811795887</speed>
  <fix>3d</fix>
</trkpt>
<trkpt lat="40.0713749" lon="-105.229789">
  <ele>1583.0</ele>
  <time>2026-08-28T17:53:31Z</time>
  <course>0.0</course>
  <speed>0.0</speed>
  <fix>3d</fix>
</trkpt>
<trkpt lat="40.0713795" lon="-105.2297887">
  <ele>1582.81</ele>
  <time>2026-08-28T17:53:31Z</time>
  <course>1.35</course>
  <speed>0.4775981574503821</speed>
  <fix>3d</fix>
</trkpt>
<trkpt lat="40.0713749" lon="-105.229789">
  <ele>1583.0</ele>
  <time>2026-08-28T17:53:31Z</time>
  <course>0.0</course>
  <speed>0.0</speed>
  <fix>3d</fix>
</trkpt>
<trkpt lat="40.0713794" lon="-105.2297885">
  <ele>1582.82</ele>
  <time>2026-08-28T17:53:31Z</time>
  <course>1.25</course>
  <speed>0.4695742752749558</speed>
  <fix>3d</fix>
</trkpt>
<trkpt lat="40.0713749" lon="-105.229789">
  <ele>1583.0</ele>
  <time>2026-08-28T17:53:31Z</time>
  <course>0.0</course>
  <speed>0.0</speed>
  <fix>3d</fix>
</trkpt>
<trkpt lat="40.0713792" lon="-105.2297883">
  <ele>1582.83</ele>
  <time>2026-08-28T17:53:31Z</time>
  <course>1.16</course>
  <speed>0.45486261662176636</speed>
  <fix>3d</fix>
</trkpt>
<trkpt lat="40.0713749" lon="-105.229789">
  <ele>1583.0</ele>
  <time>2026-08-28T17:53:31Z</time>
  <course>0.0</course>
  <speed>0.0</speed>
  <fix>3d</fix>
</trkpt>
<trkpt lat="40.0713792" lon="-105.229788">
  <ele>1582.84</ele>
  <time>2026-08-28T17:53:31Z</time>
  <course>1.07</course>
  <speed>0.4622769732530488</speed>
  <fix>3d</fix>
</trkpt>
<trkpt lat="40.0713749" lon="-105.229789">
  <ele>1583.0</ele>
  <time>2026-08-28T17:53:31Z</time>
  <course>0.0</course>
  <speed>0.0</speed>
  <fix>3d</fix>
</trkpt>
<trkpt lat="40.0713789" lon="-105.2297878">
  <ele>1582.85</ele>
  <time>2026-08-28T17:53:31Z</time>
  <course>0.98</course>
  <speed>0.4596737973824482</speed>
  <fix>3d</fix>
</trkpt>
<trkpt lat="40.0713749" lon="-105.229789">
  <ele>1583.0</ele>
  <time>2026-08-28T17:53:31Z</time>
  <course>0.0</course>
  <speed>0.0</speed>
  <fix>3d</fix>
</trkpt>
<trkpt lat="40.0713788" lon="-105.2297874">
  <ele>1582.86</ele>
  <time>2026-08-28T17:53:31Z</time>
  <course>0.9</course>
  <speed>0.47634021455258213</speed>
  <fix>3d</fix>
</trkpt>
<trkpt lat="40.0713749" lon="-105.229789">
  <ele>1583.0</ele>
  <time>2026-08-28T17:53:31Z</time>
  <course>0.0</course>
  <speed>0.0</speed>
  <fix>3d</fix>
</trkpt>
<trkpt lat="40.0713786" lon="-105.2297872">
  <ele>1582.87</ele>
  <time>2026-08-28T17:53:31Z</time>
  <course>0.82</course>
  <speed>0.4909175083453431</speed>
  <fix>3d</fix>
</trkpt>
<trkpt lat="40.0713749" lon="-105.229789">
  <ele>1583.0</ele>
  <time>2026-08-28T17:53:31Z</time>
  <course>0.0</course>
  <speed>0.0</speed>
  <fix>3d</fix>
</trkpt>
<trkpt lat="40.0713785" lon="-105.2297868">
  <ele>1582.87</ele>
  <time>2026-08-28T17:53:31Z</time>
  <course>0.74</course>
  <speed>0.51478150704935</speed>
  <fix>3d</fix>
</trkpt>
<trkpt lat="40.0713749" lon="-105.229789">
  <ele>1583.0</ele>
  <time>2026-08-28T17:53:31Z</time>
  <course>0.0</course>
  <speed>0.0</speed>
  <fix>3d</fix>
</trkpt>
<trkpt lat="40.0713783" lon="-105.2297865">
  <ele>1582.88</ele>
  <time>2026-08-28T17:53:31Z</time>
  <course>0.67</course>
  <speed>0.5280151512977634</speed>
  <fix>3d</fix>
</trkpt>
<trkpt lat="40.0713749" lon="-105.229789">
  <ele>1583.0</ele>
  <time>2026-08-28T17:53:31Z</time>
  <course>0.0</course>
  <speed>0.0</speed>
  <fix>3d</fix>
</trkpt>
<trkpt lat="51.3371392" lon="14.4968418">
  <ele>53.58</ele>
  <time>2026-08-28T17:53:32Z</time>
  <course>0.0</course>
  <speed>0.0</speed>
  <fix>3d</fix>
</trkpt>
<trkpt lat="51.8752066" lon="14.648784">
  <ele>54.15</ele>
  <time>2026-08-28T17:53:32Z</time>
  <course>0.0</course>
  <speed>0.0</speed>
  <fix>3d</fix>
</trkpt>
<trkpt lat="51.8752066" lon="14.648784">
  <ele>54.15</ele>
  <time>2026-08-28T17:53:32Z</time>
  <course>225.95</course>
  <speed>0.0</speed>
  <fix>3d</fix>
</trkpt>
<trkpt lat="51.8752066" lon="14.648784">
  <ele>54.15</ele>
  <time>2026-08-28T17:53:32Z</time>
  <course>0.0</course>
  <speed>0.0</speed>
  <fix>3d</fix>
</trkpt>
<trkpt lat="51.8752066" lon="14.648784">
  <ele>54.15</ele>
  <time>2026-08-28T17:53:32Z</time>
  <course>226.01</course>
  <speed>0.0</speed>
  <fix>3d</fix>
</trkpt>
<trkpt lat="51.8752066" lon="14.648784">
  <ele>54.15</ele>
  <time>2026-08-28T17:53:32Z</time>
  <course>0.0</course>
  <speed>0.0</speed>
  <fix>3d</fix>
</trkpt>
<trkpt lat="51.8752066" lon="14.648784">
  <ele>54.15</ele>
  <time>2026-08-28T17:53:32Z</time>
  <course>226.14</course>
  <speed>0.0</speed>
  <fix>3d</fix>
</trkpt>
<trkpt lat="51.8752066" lon="14.648784">
  <ele>54.15</ele>
  <time>2026-08-28T17:53:32Z</time>
  <course>0.0</course>
  <speed>0.0</speed>
  <fix>3d</fix>
</trkpt>
<trkpt lat="51.8752066" lon="14.648784">
  <ele>54.15</ele>
  <time>2026-08-28T17:53:32Z</time>
  <course>226.33</course>
  <speed>0.0</speed>
  <fix>3d</fix>
</trkpt>
<trkpt lat="51.8752066" lon="14.648784">
  <ele>54.15</ele>
  <time>2026-08-28T17:53:32Z</time>
  <course>0.0</course>
  <speed>0.0</speed>
  <fix>3d</fix>
</trkpt>
<trkpt lat="51.8752066" lon="14.648784">
  <ele>54.15</ele>
  <time>2026-08-28T17:53:32Z</time>
  <course>226.55</course>
  <speed>0.0</speed>
  <fix>3d</fix>
</trkpt>
<trkpt lat="51.8752066" lon="14.648784">
  <ele>54.15</ele>
  <time>2026-08-28T17:53:32Z</time>
  <course>0.0</course>
  <speed>0.0</speed>
  <fix>3d</fix>
</trkpt>
<trkpt lat="51.8752066" lon="14.648784">
  <ele>54.15</ele>
  <time>2026-08-28T17:53:32Z</time>
  <course>226.78</course>
  <speed>0.0</speed>
  <fix>3d</fix>
</trkpt>
<trkpt lat="51.8752066" lon="14.648784">
  <ele>54.15</ele>
  <time>2026-08-28T17:53:32Z</time>
  <course>0.0</course>
  <speed>0.0</speed>
  <fix>3d</fix>
</trkpt>
<trkpt lat="51.8752066" lon="14.648784">
  <ele>54.15</ele>
  <time>2026-08-28T17:53:32Z</time>
  <course>227.01</course>
  <speed>0.0</speed>
  <fix>3d</fix>
</trkpt>
<trkpt lat="51.8752066" lon="14.648784">
  <ele>54.15</ele>
  <time>2026-08-28T17:53:32Z</time>
  <course>0.0</course>
  <speed>0.0</speed>
  <fix>3d</fix>
</trkpt>
<trkpt lat="51.8752066" lon="14.648784">
  <ele>54.15</ele>
  <time>2026-08-28T17:53:32Z</time>
  <course>227.23</course>
  <speed>0.0</speed>
  <fix>3d</fix>
</trkpt>
<trkpt lat="51.8752066" lon="14.648784">
  <ele>54.15</ele>
  <time>2026-08-28T17:53:32Z</time>
  <course>0.0</course>
  <speed>0.0</speed>
  <fix>3d</fix>
</trkpt>
<trkpt lat="51.8752066" lon="14.648784">
  <ele>54.15</ele>
  <time>2026-08-28T17:53:32Z</time>
  <course>227.44</course>
  <speed>0.0</speed>
  <fix>3d</fix>
</trkpt>
<trkpt lat="51.8752066" lon="14.648784">
  <ele>54.15</ele>
  <time>2026-08-28T17:53:32Z</time>
  <course>0.0</course>
  <speed>0.0</speed>
  <fix>3d</fix>
</trkpt>
<trkpt lat="51.8752066" lon="14.648784">
  <ele>54.15</ele>
  <time>2026-08-28T17:53:32Z</time>
  <course>227.64</course>
  <speed>0.0</speed>
  <fix>3d</fix>
</trkpt>
<trkpt lat="51.8752066" lon="14.648784">
  <ele>54.15</ele>
  <time>2026-08-28T17:53:32Z</time>
  <course>0.0</course>
  <speed>0.0</speed>
  <fix>3d</fix>
</trkpt>
<trkpt lat="51.8752066" lon="14.648784">
  <ele>54.15</ele>
  <time>2026-08-28T17:53:32Z</time>
  <course>227.83</course>
  <speed>0.0</speed>
  <fix>3d</fix>
</trkpt>
<trkpt lat="51.8752066" lon="14.648784">
  <ele>54.15</ele>
  <time>2026-08-28T17:53:32Z</time>
  <course>0.0</course>
  <speed>0.0</speed>
  <fix>3d</fix>
</trkpt>
<trkpt lat="51.8752066" lon="14.648784">
  <ele>54.15</ele>
  <time>2026-08-28T17:53:32Z</time>
  <course>228.02</course>
  <speed>0.0</speed>
  <fix>3d</fix>
</trkpt>
<trkpt lat="51.8752066" lon="14.648784">
  <ele>54.15</ele>
  <time>2026-08-28T17:53:32Z</time>
  <course>0.0</course>
  <speed>0.0</speed>
  <fix>3d</fix>
</trkpt>
<trkpt lat="51.8752066" lon="14.648784">
  <ele>54.15</ele>
  <time>2026-08-28T17:53:32Z</time>
  <course>228.2</course>
  <speed>0.0</speed>
  <fix>3d</fix>
</trkpt>
<trkpt lat="51.8752066" lon="14.648784">
  <ele>54.15</ele>
  <time>2026-08-28T17:53:32Z</time>
  <course>0.0</course>
  <speed>0.0</speed>
  <fix>3d</fix>
</trkpt>
<trkpt lat="51.8752066" lon="14.648784">
  <ele>54.15</ele>
  <time>2026-08-28T17:53:32Z</time>
  <course>228.38</course>
  <speed>0.0</speed>
  <fix>3d</fix>
</trkpt>
<trkpt lat="51.8752066" lon="14.648784">
  <ele>54.15</ele>
  <time>2026-08-28T17:53:32Z</time>
  <course>0.0</course>
  <speed>0.0</speed>
  <fix>3d</fix>
</trkpt>
<trkpt lat="51.8752066" lon="14.648784">
  <ele>54.15</ele>
  <time>2026-08-28T17:53:32Z</time>
  <course>228.55</course>
  <speed>0.0</speed>
  <fix>3d</fix>
</trkpt>
<trkpt lat="51.8752066" lon="14.648784">
  <ele>54.15</ele>
  <time>2026-08-28T17:53:32Z</time>
  <course>0.0</course>
  <speed>0.0</speed>
  <fix>3d</fix>
</trkpt>
<trkpt lat="51.8752066" lon="14.648784">
  <ele>54.15</ele>
  <time>2026-08-28T17:53:32Z</time>
  <course>228.71</course>
  <speed>0.0</speed>
  <fix>3d</fix>
</trkpt>
<trkpt lat="51.8752066" lon="14.648784">
  <ele>54.15</ele>
  <time>2026-08-28T17:53:32Z</time>
  <course>0.0</course>
  <speed>0.0</speed>
  <fix>3d</fix>
</trkpt>
<trkpt lat="51.8752066" lon="14.648784">
  <ele>54.15</ele>
  <time>2026-08-28T17:53:32Z</time>
  <course>228.87</course>
  <speed>0.0</speed>
  <fix>3d</fix>
</trkpt>
<trkpt lat="51.8752066" lon="14.648784">
  <ele>54.15</ele>
  <time>2026-08-28T17:53:32Z</time>
  <course>0.0</course>
  <speed>0.0</speed>
  <fix>3d</fix>
</trkpt>
<trkpt lat="51.8752066" lon="14.648784">
  <ele>54.15</ele>
  <time>2026-08-28T17:53:32Z</time>
  <course>229.03</course>
  <speed>0.0</speed>
  <fix>3d</fix>
</trkpt>
<trkpt lat="51.8752066" lon="14.648784">
  <ele>54.15</ele>
  <time>2026-08-28T17:53:32Z</time>
  <course>0.0</course>
  <speed>0.0</speed>
  <fix>3d</fix>
</trkpt>
<trkpt lat="51.8752066" lon="14.648784">
  <ele>54.15</ele>
  <time>2026-08-28T17:53:32Z</time>
  <course>229.18</course>
  <speed>0.0</speed>
  <fix>3d</fix>
</trkpt>
<trkpt lat="51.8752066" lon="14.648784">
  <ele>54.15</ele>
  <time>2026-08-28T17:53:32Z</time>
  <course>0.0</course>
  <speed>0.0</speed>
  <fix>3d</fix>
</trkpt>
<trkpt lat="51.8752066" lon="14.648784">
  <ele>54.15</ele>
  <time>2026-08-28T17:53:32Z</time>
  <course>229.33</course>
  <speed>0.0</speed>
  <fix>3d</fix>
</trkpt>
<trkpt lat="51.8752066" lon="14.648784">
  <ele>54.15</ele>
  <time>2026-08-28T17:53:32Z</time>
  <course>0.0</course>
  <speed>0.0</speed>
  <fix>3d</fix>
</trkpt>
<trkpt lat="51.8752066" lon="14.648784">
  <ele>54.15</ele>
  <time>2026-08-28T17:53:32Z</time>
  <course>229.47</course>
  <speed>0.0</speed>
  <fix>3d</fix>
</trkpt>
<trkpt lat="51.8752066" lon="14.648784">
  <ele>54.15</ele>
  <time>2026-08-28T17:53:32Z</time>
  <course>0.0</course>
  <speed>0.0</speed>
  <fix>3d</fix>
</trkpt>
<trkpt lat="51.8752066" lon="14.648784">
  <ele>54.15</ele>
  <time>2026-08-28T17:53:32Z</time>
  <course>229.6</course>
  <speed>0.0</speed>
  <fix>3d</fix>
</trkpt>
<trkpt lat="51.8752066" lon="14.648784">
  <ele>54.15</ele>
  <time>2026-08-28T17:53:32Z</time>
  <course>0.0</course>
  <speed>0.0</speed>
  <fix>3d</fix>
</trkpt>
<trkpt lat="51.8752066" lon="14.648784">
  <ele>54.15</ele>
  <time>2026-08-28T17:53:32Z</time>
  <course>229.73</course>
  <speed>0.0</speed>
  <fix>3d</fix>
</trkpt>
<trkpt lat="51.8752066" lon="14.648784">
  <ele>54.15</ele>
  <time>2026-08-28T17:53:32Z</time>
  <course>0.0</course>
  <speed>0.0</speed>
  <fix>3d</fix>
</trkpt>
<trkpt lat="51.8752066" lon="14.648784">
  <ele>54.15</ele>
  <time>2026-08-28T17:53:32Z</time>
  <course>229.86</course>
  <speed>0.0</speed>
  <fix>3d</fix>
</trkpt>
<trkpt lat="51.8752066" lon="14.648784">
  <ele>54.15</ele>
  <time>2026-08-28T17:53:32Z</time>
  <course>0.0</course>
  <speed>0.0</speed>
  <fix>3d</fix>
</trkpt>
<trkpt lat="51.8752066" lon="14.648784">
  <ele>54.15</ele>
  <time>2026-08-28T17:53:32Z</time>
  <course>229.98</course>
  <speed>0.0</speed>
  <fix>3d</fix>
</trkpt>
<trkpt lat="51.8752066" lon="14.648784">
  <ele>54.15</ele>
  <time>2026-08-28T17:53:32Z</time>
  <course>0.0</course>
  <speed>0.0</speed>
  <fix>3d</fix>
</trkpt>
<trkpt lat="51.8752066" lon="14.648784">
  <ele>54.15</ele>
  <time>2026-08-28T17:53:32Z</time>
  <course>230.1</course>
  <speed>0.0</speed>
  <fix>3d</fix>
</trkpt>
<trkpt lat="51.8752066" lon="14.648784">
  <ele>54.15</ele>
  <time>2026-08-28T17:53:32Z</time>
  <course>0.0</course>
  <speed>0.0</speed>
  <fix>3d</fix>
</trkpt>
<trkpt lat="51.8752066" lon="14.648784">
  <ele>54.15</ele>
  <time>2026-08-28T17:53:32Z</time>
  <course>230.21</course>
  <speed>0.0</speed>
  <fix>3d</fix>
</trkpt>
<trkpt lat="51.8752066" lon="14.648784">
  <ele>54.15</ele>
  <time>2026-08-28T17:53:32Z</time>
  <course>0.0</course>
  <speed>0.0</speed>
  <fix>3d</fix>
</trkpt>
<trkpt lat="51.8752066" lon="14.648784">
  <ele>54.15</ele>
  <time>2026-08-28T17:53:32Z</time>
  <course>230.32</course>
  <speed>0.0</speed>
  <fix>3d</fix>
</trkpt>
<trkpt lat="51.8752066" lon="14.648784">
  <ele>54.15</ele>
  <time>2026-08-28T17:53:32Z</time>
  <course>0.0</course>
  <speed>0.0</speed>
  <fix>3d</fix>
</trkpt>
<trkpt lat="51.8752066" lon="14.648784">
  <ele>54.15</ele>
  <time>2026-08-28T17:53:32Z</time>
  <course>230.42</course>
  <speed>0.0</speed>
  <fix>3d</fix>
</trkpt>
<trkpt lat="51.8752066" lon="14.648784">
  <ele>54.15</ele>
  <time>2026-08-28T17:53:32Z</time>
  <course>0.0</course>
  <speed>0.0</speed>
  <fix>3d</fix>
</trkpt>
<trkpt lat="51.8752066" lon="14.648784">
  <ele>54.15</ele>
  <time>2026-08-28T17:53:32Z</time>
  <course>230.52</course>
  <speed>0.0</speed>
  <fix>3d</fix>
</trkpt>
<trkpt lat="51.8752066" lon="14.648784">
  <ele>54.15</ele>
  <time>2026-08-28T17:53:32Z</time>
  <course>0.0</course>
  <speed>0.0</speed>
  <fix>3d</fix>
</trkpt>
<trkpt lat="51.8752066" lon="14.648784">
  <ele>54.15</ele>
  <time>2026-08-28T17:53:32Z</time>
  <course>230.62</course>
  <speed>0.0</speed>
  <fix>3d</fix>
</trkpt>
<trkpt lat="51.8752066" lon="14.648784">
  <ele>54.15</ele>
  <time>2026-08-28T17:53:32Z</time>
  <course>0.0</course>
  <speed>0.0</speed>
  <fix>3d</fix>
</trkpt>
<trkpt lat="51.8752066" lon="14.648784">
  <ele>54.15</ele>
  <time>2026-08-28T17:53:32Z</time>
  <course>230.71</course>
  <speed>0.0</speed>
  <fix>3d</fix>
</trkpt>
<trkpt lat="51.8752066" lon="14.648784">
  <ele>54.15</ele>
  <time>2026-08-28T17:53:32Z</time>
  <course>0.0</course>
  <speed>0.0</speed>
  <fix>3d</fix>
</trkpt>
<trkpt lat="51.8752066" lon="14.648784">
  <ele>54.15</ele>
  <time>2026-08-28T17:53:32Z</time>
  <course>230.8</course>
  <speed>0.0</speed>
  <fix>3d</fix>
</trkpt>
<trkpt lat="51.8752066" lon="14.648784">
  <ele>54.15</ele>
  <time>2026-08-28T17:53:32Z</time>
  <course>0.0</course>
  <speed>0.0</speed>
  <fix>3d</fix>
</trkpt>
<trkpt lat="51.8752066" lon="14.648784">
  <ele>54.15</ele>
  <time>2026-08-28T17:53:32Z</time>
  <course>230.89</course>
  <speed>0.0</speed>
  <fix>3d</fix>
</trkpt>
<trkpt lat="51.8752066" lon="14.648784">
  <ele>54.15</ele>
  <time>2026-08-28T17:53:32Z</time>
  <course>0.0</course>
  <speed>0.0</speed>
  <fix>3d</fix>
</trkpt>
<trkpt lat="51.8752066" lon="14.648784">
  <ele>54.15</ele>
  <time>2026-08-28T17:53:32Z</time>
  <course>230.97</course>
  <speed>0.0</speed>
  <fix>3d</fix>
</trkpt>
<trkpt lat="51.8752066" lon="14.648784">
  <ele>54.15</ele>
  <time>2026-08-28T17:53:32Z</time>
  <course>0.0</course>
  <speed>0.0</speed>
  <fix>3d</fix>
</trkpt>
<trkpt lat="51.8752066" lon="14.648784">
  <ele>54.15</ele>
  <time>2026-08-28T17:53:32Z</time>
  <course>231.05</course>
  <speed>0.0</speed>
  <fix>3d</fix>
</trkpt>
<trkpt lat="51.8752066" lon="14.648784">
  <ele>54.15</ele>
  <time>2026-08-28T17:53:32Z</time>
  <course>0.0</course>
  <speed>0.0</speed>
  <fix>3d</fix>
</trkpt>
<trkpt lat="51.8752066" lon="14.648784">
  <ele>54.15</ele>
  <time>2026-08-28T17:53:32Z</time>
  <course>231.12</course>
  <speed>0.0</speed>
  <fix>3d</fix>
</trkpt>
<trkpt lat="51.8752066" lon="14.648784">
  <ele>54.15</ele>
  <time>2026-08-28T17:53:32Z</time>
  <course>0.0</course>
  <speed>0.0</speed>
  <fix>3d</fix>
</trkpt>
<trkpt lat="51.8752066" lon="14.648784">
  <ele>54.15</ele>
  <time>2026-08-28T17:53:32Z</time>
  <course>231.19</course>
  <speed>0.0</speed>
  <fix>3d</fix>
</trkpt>
<trkpt lat="51.8752066" lon="14.648784">
  <ele>54.15</ele>
  <time>2026-08-28T17:53:32Z</time>
  <course>0.0</course>
  <speed>0.0</speed>
  <fix>3d</fix>
</trkpt>
<trkpt lat="51.8752066" lon="14.648784">
  <ele>54.15</ele>
  <time>2026-08-28T17:53:32Z</time>
  <course>231.26</course>
  <speed>0.0</speed>
  <fix>3d</fix>
</trkpt>
<trkpt lat="51.8752066" lon="14.648784">
  <ele>54.15</ele>
  <time>2026-08-28T17:53:32Z</time>
  <course>0.0</course>
  <speed>0.0</speed>
  <fix>3d</fix>
</trkpt>
<trkpt lat="51.8752066" lon="14.648784">
  <ele>54.15</ele>
  <time>2026-08-28T17:53:32Z</time>
  <course>231.33</course>
  <speed>0.0</speed>
  <fix>3d</fix>
</trkpt>
<trkpt lat="51.8752066" lon="14.648784">
  <ele>54.15</ele>
  <time>2026-08-28T17:53:32Z</time>
  <course>0.0</course>
  <speed>0.0</speed>
  <fix>3d</fix>
</trkpt>
<trkpt lat="51.8752066" lon="14.648784">
  <ele>54.15</ele>
  <time>2026-08-28T17:53:32Z</time>
  <course>231.39</course>
  <speed>0.0</speed>
  <fix>3d</fix>
</trkpt>
<trkpt lat="51.8752066" lon="14.648784">
  <ele>54.15</ele>
  <time>2026-08-28T17:53:32Z</time>
  <course>0.0</course>
  <speed>0.0</speed>
  <fix>3d</fix>
</trkpt>
<trkpt lat="51.8752066" lon="14.648784">
  <ele>54.15</ele>
  <time>2026-08-28T17:53:32Z</time>
  <course>231.45</course>
  <speed>0.0</speed>
  <fix>3d</fix>
</trkpt>
<trkpt lat="51.8752066" lon="14.648784">
  <ele>54.15</ele>
  <time>2026-08-28T17:53:32Z</time>
  <course>0.0</course>
  <speed>0.0</speed>
  <fix>3d</fix>
</trkpt>
<trkpt lat="51.8752066" lon="14.648784">
  <ele>54.15</ele>
  <time>2026-08-28T17:53:32Z</time>
  <course>231.51</course>
  <speed>0.0</speed>
  <fix>3d</fix>
</trkpt>
<trkpt lat="51.8752066" lon="14.648784">
  <ele>54.15</ele>
  <time>2026-08-28T17:53:32Z</time>
  <course>0.0</course>
  <speed>0.0</speed>
  <fix>3d</fix>
</trkpt>
<trkpt lat="51.8752066" lon="14.648784">
  <ele>54.15</ele>
  <time>2026-08-28T17:53:32Z</time>
  <course>231.57</course>
  <speed>0.0</speed>
  <fix>3d</fix>
</trkpt>
<trkpt lat="51.8752066" lon="14.648784">
  <ele>54.15</ele>
  <time>2026-08-28T17:53:32Z</time>
  <course>0.0</course>
  <speed>0.0</speed>
  <fix>3d</fix>
</trkpt>
<trkpt lat="51.8752066" lon="14.648784">
  <ele>54.15</ele>
  <time>2026-08-28T17:53:32Z</time>
  <course>231.62</course>
  <speed>0.0</speed>
  <fix>3d</fix>
</trkpt>
<trkpt lat="51.8752066" lon="14.648784">
  <ele>54.15</ele>
  <time>2026-08-28T17:53:32Z</time>
  <course>0.0</course>
  <speed>0.0</speed>
  <fix>3d</fix>
</trkpt>
<trkpt lat="51.8752066" lon="14.648784">
  <ele>54.15</ele>
  <time>2026-08-28T17:53:32Z</time>
  <course>231.67</course>
  <speed>0.0</speed>
  <fix>3d</fix>
</trkpt>
<trkpt lat="51.8752066" lon="14.648784">
  <ele>54.15</ele>
  <time>2026-08-28T17:53:32Z</time>
  <course>0.0</course>
  <speed>0.0</speed>
  <fix>3d</fix>
</trkpt>
<trkpt lat="51.8752066" lon="14.648784">
  <ele>54.15</ele>
  <time>2026-08-28T17:53:32Z</time>
  <course>231.72</course>
  <speed>0.0</speed>
  <fix>3d</fix>
</trkpt>
<trkpt lat="51.8752066" lon="14.648784">
  <ele>54.15</ele>
  <time>2026-08-28T17:53:32Z</time>
  <course>0.0</course>
  <speed>0.0</speed>
  <fix>3d</fix>
</trkpt>
<trkpt lat="51.8752066" lon="14.648784">
  <ele>54.15</ele>
  <time>2026-08-28T17:53:32Z</time>
  <course>231.76</course>
  <speed>0.0</speed>
  <fix>3d</fix>
</trkpt>
<trkpt lat="51.8752066" lon="14.648784">
  <ele>54.15</ele>
  <time>2026-08-28T17:53:32Z</time>
  <course>0.0</course>
  <speed>0.0</speed>
  <fix>3d</fix>
</trkpt>
<trkpt lat="51.8752066" lon="14.648784">
  <ele>54.15</ele>
  <time>2026-08-28T17:53:32Z</time>
  <course>231.81</course>
  <speed>0.0</speed>
  <fix>3d</fix>
</trkpt>
<trkpt lat="51.8752066" lon="14.648784">
  <ele>54.15</ele>
  <time>2026-08-28T17:53:32Z</time>
  <course>0.0</course>
  <speed>0.0</speed>
  <fix>3d</fix>
</trkpt>
<trkpt lat="51.8752066" lon="14.648784">
  <ele>54.15</ele>
  <time>2026-08-28T17:53:32Z</time>
  <course>231.85</course>
  <speed>0.0</speed>
  <fix>3d</fix>
</trkpt>
<trkpt lat="51.8752066" lon="14.648784">
  <ele>54.15</ele>
  <time>2026-08-28T17:53:32Z</time>
  <course>0.0</course>
  <speed>0.0</speed>
  <fix>3d</fix>
</trkpt>
<trkpt lat="51.8752066" lon="14.648784">
  <ele>54.15</ele>
  <time>2026-08-28T17:53:32Z</time>
  <course>231.89</course>
  <speed>0.0</speed>
  <fix>3d</fix>
</trkpt>
<trkpt lat="51.8752066" lon="14.648784">
  <ele>54.15</ele>
  <time>2026-08-28T17:53:32Z</time>
  <course>0.0</course>
  <speed>0.0</speed>
  <fix>3d</fix>
</trkpt>
<trkpt lat="51.8752066" lon="14.648784">
  <ele>54.15</ele>
  <time>2026-08-28T17:53:32Z</time>
  <course>231.93</course>
  <speed>0.0</speed>
  <fix>3d</fix>
</trkpt>
<trkpt lat="51.8752066" lon="14.648784">
  <ele>54.15</ele>
  <time>2026-08-28T17:53:32Z</time>
  <course>0.0</course>
  <speed>0.0</speed>
  <fix>3d</fix>
</trkpt>
<trkpt lat="51.8752066" lon="14.648784">
  <ele>54.15</ele>
  <time>2026-08-28T17:53:32Z</time>
  <course>231.97</course>
  <speed>0.0</speed>
  <fix>3d</fix>
</trkpt>
<trkpt lat="51.8752066" lon="14.648784">
  <ele>54.15</ele>
  <time>2026-08-28T17:53:32Z</time>
  <course>0.0</course>
  <speed>0.0</speed>
  <fix>3d</fix>
</trkpt>
<trkpt lat="51.8752066" lon="14.648784">
  <ele>54.15</ele>
  <time>2026-08-28T17:53:32Z</time>
  <course>232.0</course>
  <speed>0.0</speed>
  <fix>3d</fix>
</trkpt>
<trkpt lat="51.8752066" lon="14.648784">
  <ele>54.15</ele>
  <time>2026-08-28T17:53:32Z</time>
  <course>0.0</course>
  <speed>0.0</speed>
  <fix>3d</fix>
</trkpt>
<trkpt lat="51.8752066" lon="14.648784">
  <ele>54.15</ele>
  <time>2026-08-28T17:53:32Z</time>
  <course>232.03</course>
  <speed>0.0</speed>
  <fix>3d</fix>
</trkpt>
<trkpt lat="51.8752066" lon="14.648784">
  <ele>54.15</ele>
  <time>2026-08-28T17:53:32Z</time>
  <course>0.0</course>
  <speed>0.0</speed>
  <fix>3d</fix>
</trkpt>
<trkpt lat="51.8752066" lon="14.648784">
  <ele>54.15</ele>
  <time>2026-08-28T17:53:32Z</time>
  <course>232.07</course>
  <speed>0.0</speed>
  <fix>3d</fix>
</trkpt>
<trkpt lat="51.8752066" lon="14.648784">
  <ele>54.15</ele>
  <time>2026-08-28T17:53:32Z</time>
  <course>0.0</course>
  <speed>0.0</speed>
  <fix>3d</fix>
</trkpt>
<trkpt lat="51.8752066" lon="14.648784">
  <ele>54.15</ele>
  <time>2026-08-28T17:53:32Z</time>
  <course>232.1</course>
  <speed>0.0</speed>
  <fix>3d</fix>
</trkpt>
<trkpt lat="51.8752066" lon="14.648784">
  <ele>54.15</ele>
  <time>2026-08-28T17:53:32Z</time>
  <course>0.0</course>
  <speed>0.0</speed>
  <fix>3d</fix>
</trkpt>
<trkpt lat="51.8752066" lon="14.648784">
  <ele>54.15</ele>
  <time>2026-08-28T17:53:32Z</time>
  <course>232.13</course>
  <speed>0.0</speed>
  <fix>3d</fix>
</trkpt>
<trkpt lat="51.8752066" lon="14.648784">
  <ele>54.15</ele>
  <time>2026-08-28T17:53:32Z</time>
  <course>0.0</course>
  <speed>0.0</speed>
  <fix>3d</fix>
</trkpt>
<trkpt lat="51.8752066" lon="14.648784">
  <ele>54.15</ele>
  <time>2026-08-28T17:53:32Z</time>
  <course>232.15</course>
  <speed>0.0</speed>
  <fix>3d</fix>
</trkpt>
<trkpt lat="51.8752066" lon="14.648784">
  <ele>54.15</ele>
  <time>2026-08-28T17:53:32Z</time>
  <course>0.0</course>
  <speed>0.0</speed>
  <fix>3d</fix>
</trkpt>
<trkpt lat="51.8752066" lon="14.648784">
  <ele>54.15</ele>
  <time>2026-08-28T17:53:32Z</time>
  <course>232.18</course>
  <speed>0.0</speed>
  <fix>3d</fix>
</trkpt>
<trkpt lat="51.8752066" lon="14.648784">
  <ele>54.15</ele>
  <time>2026-08-28T17:53:32Z</time>
  <course>0.0</course>
  <speed>0.0</speed>
  <fix>3d</fix>
</trkpt>
<trkpt lat="51.8752066" lon="14.648784">
  <ele>54.15</ele>
  <time>2026-08-28T17:53:32Z</time>
  <course>232.2</course>
  <speed>0.0</speed>
  <fix>3d</fix>
</trkpt>
<trkpt lat="51.8752066" lon="14.648784">
  <ele>54.15</ele>
  <time>2026-08-28T17:53:32Z</time>
  <course>0.0</course>
  <speed>0.0</speed>
  <fix>3d</fix>
</trkpt>
<trkpt lat="51.8752066" lon="14.648784">
  <ele>54.15</ele>
  <time>2026-08-28T17:53:32Z</time>
  <course>232.23</course>
  <speed>0.0</speed>
  <fix>3d</fix>
</trkpt>
<trkpt lat="51.8752066" lon="14.648784">
  <ele>54.15</ele>
  <time>2026-08-28T17:53:32Z</time>
  <course>0.0</course>
  <speed>0.0</speed>
  <fix>3d</fix>
</trkpt>
<trkpt lat="51.8752066" lon="14.648784">
  <ele>54.15</ele>
  <time>2026-08-28T17:53:32Z</time>
  <course>232.25</course>
  <speed>0.0</speed>
  <fix>3d</fix>
</trkpt>
<trkpt lat="51.8752066" lon="14.648784">
  <ele>54.15</ele>
  <time>2026-08-28T17:53:32Z</time>
  <course>0.0</course>
  <speed>0.0</speed>
  <fix>3d</fix>
</trkpt>
<trkpt lat="51.8752066" lon="14.648784">
  <ele>54.15</ele>
  <time>2026-08-28T17:53:32Z</time>
  <course>232.27</course>
  <speed>0.0</speed>
  <fix>3d</fix>
</trkpt>
<trkpt lat="51.8752066" lon="14.648784">
  <ele>54.15</ele>
  <time>2026-08-28T17:53:32Z</time>
  <course>0.0</course>
  <speed>0.0</speed>
  <fix>3d</fix>
</trkpt>
<trkpt lat="51.8752066" lon="14.648784">
  <ele>54.15</ele>
  <time>2026-08-28T17:53:32Z</time>
  <course>232.29</course>
  <speed>0.0</speed>
  <fix>3d</fix>
</trkpt>
<trkpt lat="51.8752066" lon="14.648784">
  <ele>54.15</ele>
  <time>2026-08-28T17:53:32Z</time>
  <course>0.0</course>
  <speed>0.0</speed>
  <fix>3d</fix>
</trkpt>
<trkpt lat="51.8752066" lon="14.648784">
  <ele>54.15</ele>
  <time>2026-08-28T17:53:32Z</time>
  <course>232.31</course>
  <speed>0.0</speed>
  <fix>3d</fix>
</trkpt>
<trkpt lat="51.8752066" lon="14.648784">
  <ele>54.15</ele>
  <time>2026-08-28T17:53:32Z</time>
  <course>0.0</course>
  <speed>0.0</speed>
  <fix>3d</fix>
</trkpt>
<trkpt lat="51.8752066" lon="14.648784">
  <ele>54.15</ele>
  <time>2026-08-28T17:53:32Z</time>
  <course>232.33</course>
  <speed>0.0</speed>
  <fix>3d</fix>
</trkpt>
<trkpt lat="51.8752066" lon="14.648784">
  <ele>54.15</ele>
  <time>2026-08-28T17:53:32Z</time>
  <course>0.0</course>
  <speed>0.0</speed>
  <fix>3d</fix>
</trkpt>
<trkpt lat="51.8752066" lon="14.648784">
  <ele>54.15</ele>
  <time>2026-08-28T17:53:32Z</time>
  <course>232.35</course>
  <speed>0.0</speed>
  <fix>3d</fix>
</trkpt>
<trkpt lat="51.8752066" lon="14.648784">
  <ele>54.15</ele>
  <time>2026-08-28T17:53:32Z</time>
  <course>0.0</course>
  <speed>0.0</speed>
  <fix>3d</fix>
</trkpt>
<trkpt lat="51.8752066" lon="14.648784">
  <ele>54.15</ele>
  <time>2026-08-28T17:53:32Z</time>
  <course>232.36</course>
  <speed>0.0</speed>
  <fix>3d</fix>
</trkpt>
<trkpt lat="51.8752066" lon="14.648784">
  <ele>54.15</ele>
  <time>2026-08-28T17:53:32Z</time>
  <course>0.0</course>
  <speed>0.0</speed>
  <fix>3d</fix>
</trkpt>
<trkpt lat="51.8752066" lon="14.648784">
  <ele>54.15</ele>
  <time>2026-08-28T17:53:32Z</time>
  <course>232.38</course>
  <speed>0.0</speed>
  <fix>3d</fix>
</trkpt>
<trkpt lat="51.8752066" lon="14.648784">
  <ele>54.15</ele>
  <time>2026-08-28T17:53:32Z</time>
  <course>0.0</course>
  <speed>0.0</speed>
  <fix>3d</fix>
</trkpt>
<trkpt lat="51.8752066" lon="14.648784">
  <ele>54.15</ele>
  <time>2026-08-28T17:53:32Z</time>
  <course>232.39</course>
  <speed>0.0</speed>
  <fix>3d</fix>
</trkpt>
<trkpt lat="51.8752066" lon="14.648784">
  <ele>54.15</ele>
  <time>2026-08-28T17:53:32Z</time>
  <course>0.0</course>
  <speed>0.0</speed>
  <fix>3d</fix>
</trkpt>
<trkpt lat="51.8752066" lon="14.648784">
  <ele>54.15</ele>
  <time>2026-08-28T17:53:32Z</time>
  <course>232.41</course>
  <speed>0.0</speed>
  <fix>3d</fix>
</trkpt>
<trkpt lat="51.8752066" lon="14.648784">
  <ele>54.15</ele>
  <time>2026-08-28T17:53:32Z</time>
  <course>0.0</course>
  <speed>0.0</speed>
  <fix>3d</fix>
</trkpt>
<trkpt lat="51.8752066" lon="14.648784">
  <ele>54.15</ele>
  <time>2026-08-28T17:53:32Z</time>
  <course>232.42</course>
  <speed>0.0</speed>
  <fix>3d</fix>
</trkpt>
<trkpt lat="51.8752066" lon="14.648784">
  <ele>54.15</ele>
  <time>2026-08-28T17:53:32Z</time>
  <course>0.0</course>
  <speed>0.0</speed>
  <fix>3d</fix>
</trkpt>
<trkpt lat="51.8752066" lon="14.648784">
  <ele>54.15</ele>
  <time>2026-08-28T17:53:32Z</time>
  <course>232.43</course>
  <speed>0.0</speed>
  <fix>3d</fix>
</trkpt>
<trkpt lat="51.8752066" lon="14.648784">
  <ele>54.15</ele>
  <time>2026-08-28T17:53:32Z</time>
  <course>0.0</course>
  <speed>0.0</speed>
  <fix>3d</fix>
</trkpt>
<trkpt lat="51.8752066" lon="14.648784">
  <ele>54.15</ele>
  <time>2026-08-28T17:53:32Z</time>
  <course>232.45</course>
  <speed>0.0</speed>
  <fix>3d</fix>
</trkpt>
<trkpt lat="51.8752066" lon="14.648784">
  <ele>54.15</ele>
  <time>2026-08-28T17:53:32Z</time>
  <course>0.0</course>
  <speed>0.0</speed>
  <fix>3d</fix>
</trkpt>
<trkpt lat="51.8752066" lon="14.648784">
  <ele>54.15</ele>
  <time>2026-08-28T17:53:32Z</time>
  <course>232.46</course>
  <speed>0.0</speed>
  <fix>3d</fix>
</trkpt>
<trkpt lat="51.8752066" lon="14.648784">
  <ele>54.15</ele>
  <time>2026-08-28T17:53:32Z</time>
  <course>0.0</course>
  <speed>0.0</speed>
  <fix>3d</fix>
</trkpt>
<trkpt lat="51.8752066" lon="14.648784">
  <ele>54.15</ele>
  <time>2026-08-28T17:53:32Z</time>
  <course>232.47</course>
  <speed>0.0</speed>
  <fix>3d</fix>
</trkpt>
<trkpt lat="51.8752066" lon="14.648784">
  <ele>54.15</ele>
  <time>2026-08-28T17:53:32Z</time>
  <course>0.0</course>
  <speed>0.0</speed>
  <fix>3d</fix>
</trkpt>
<trkpt lat="51.8752066" lon="14.648784">
  <ele>54.15</ele>
  <time>2026-08-28T17:53:32Z</time>
  <course>232.48</course>
  <speed>0.0</speed>
  <fix>3d</fix>
</trkpt>
<trkpt lat="51.8752066" lon="14.648784">
  <ele>54.15</ele>
  <time>2026-08-28T17:53:32Z</time>
  <course>0.0</course>
  <speed>0.0</speed>
  <fix>3d</fix>
</trkpt>
<trkpt lat="51.8752066" lon="14.648784">
  <ele>54.15</ele>
  <time>2026-08-28T17:53:32Z</time>
  <course>232.49</course>
  <speed>0.0</speed>
  <fix>3d</fix>
</trkpt>
<trkpt lat="51.8752066" lon="14.648784">
  <ele>54.15</ele>
  <time>2026-08-28T17:53:32Z</time>
  <course>0.0</course>
  <speed>0.0</speed>
  <fix>3d</fix>
</trkpt>
<trkpt lat="51.8752066" lon="14.648784">
  <ele>54.15</ele>
  <time>2026-08-28T17:53:32Z</time>
  <course>232.5</course>
  <speed>0.0</speed>
  <fix>3d</fix>
</trkpt>
<trkpt lat="51.8752066" lon="14.648784">
  <ele>54.15</ele>
  <time>2026-08-28T17:53:32Z</time>
  <course>0.0</course>
  <speed>0.0</speed>
  <fix>3d</fix>
</trkpt>
<trkpt lat="51.8752066" lon="14.648784">
  <ele>54.15</ele>
  <time>2026-08-28T17:53:32Z</time>
  <course>232.5</course>
  <speed>0.0</speed>
  <fix>3d</fix>
</trkpt>
<trkpt lat="51.8752066" lon="14.648784">
  <ele>54.15</ele>
  <time>2026-08-28T17:53:32Z</time>
  <course>0.0</course>
  <speed>0.0</speed>
  <fix>3d</fix>
</trkpt>
<trkpt lat="51.8752066" lon="14.648784">
  <ele>54.15</ele>
  <time>2026-08-28T17:53:32Z</time>
  <course>232.51</course>
  <speed>0.0</speed>
  <fix>3d</fix>
</trkpt>
<trkpt lat="51.8752066" lon="14.648784">
  <ele>54.15</ele>
  <time>2026-08-28T17:53:32Z</time>
  <course>0.0</course>
  <speed>0.0</speed>
  <fix>3d</fix>
</trkpt>
<trkpt lat="51.8752066" lon="14.648784">
  <ele>54.15</ele>
  <time>2026-08-28T17:53:32Z</time>
  <course>232.52</course>
  <speed>0.0</speed>
  <fix>3d</fix>
</trkpt>
<trkpt lat="51.8752066" lon="14.648784">
  <ele>54.15</ele>
  <time>2026-08-28T17:53:32Z</time>
  <course>0.0</course>
  <speed>0.0</speed>
  <fix>3d</fix>
</trkpt>
<trkpt lat="51.8752066" lon="14.648784">
  <ele>54.15</ele>
  <time>2026-08-28T17:53:32Z</time>
  <course>232.52</course>
  <speed>0.0</speed>
  <fix>3d</fix>
</trkpt>
<trkpt lat="51.8752066" lon="14.648784">
  <ele>54.15</ele>
  <time>2026-08-28T17:53:32Z</time>
  <course>0.0</course>
  <speed>0.0</speed>
  <fix>3d</fix>
</trkpt>
<trkpt lat="51.8752066" lon="14.648784">
  <ele>54.15</ele>
  <time>2026-08-28T17:53:32Z</time>
  <course>232.53</course>
  <speed>0.0</speed>
  <fix>3d</fix>
</trkpt>
<trkpt lat="51.8752066" lon="14.648784">
  <ele>54.15</ele>
  <time>2026-08-28T17:53:32Z</time>
  <course>0.0</course>
  <speed>0.0</speed>
  <fix>3d</fix>
</trkpt>
<trkpt lat="51.8752066" lon="14.648784">
  <ele>54.15</ele>
  <time>2026-08-28T17:53:32Z</time>
  <course>232.54</course>
  <speed>0.0</speed>
  <fix>3d</fix>
</trkpt>
<trkpt lat="51.8752066" lon="14.648784">
  <ele>54.15</ele>
  <time>2026-08-28T17:53:32Z</time>
  <course>0.0</course>
  <speed>0.0</speed>
  <fix>3d</fix>
</trkpt>
<trkpt lat="51.8752066" lon="14.648784">
  <ele>54.15</ele>
  <time>2026-08-28T17:53:32Z</time>
  <course>232.54</course>
  <speed>0.0</speed>
  <fix>3d</fix>
</trkpt>
<trkpt lat="51.8752066" lon="14.648784">
  <ele>54.15</ele>
  <time>2026-08-28T17:53:32Z</time>
  <course>0.0</course>
  <speed>0.0</speed>
  <fix>3d</fix>
</trkpt>
<trkpt lat="51.8752066" lon="14.648784">
  <ele>54.15</ele>
  <time>2026-08-28T17:53:32Z</time>
  <course>232.55</course>
  <speed>0.0</speed>
  <fix>3d</fix>
</trkpt>
<trkpt lat="51.8752066" lon="14.648784">
  <ele>54.15</ele>
  <time>2026-08-28T17:53:32Z</time>
  <course>0.0</course>
  <speed>0.0</speed>
  <fix>3d</fix>
</trkpt>
<trkpt lat="51.8752066" lon="14.648784">
  <ele>54.15</ele>
  <time>2026-08-28T17:53:32Z</time>
  <course>232.55</course>
  <speed>0.0</speed>
  <fix>3d</fix>
</trkpt>
<trkpt lat="51.8752066" lon="14.648784">
  <ele>54.15</ele>
  <time>2026-08-28T17:53:32Z</time>
  <course>0.0</course>
  <speed>0.0</speed>
  <fix>3d</fix>
</trkpt>
<trkpt lat="51.8752066" lon="14.648784">
  <ele>54.15</ele>
  <time>2026-08-28T17:53:32Z</time>
  <course>232.56</course>
  <speed>0.0</speed>
  <fix>3d</fix>
</trkpt>
<trkpt lat="51.8752066" lon="14.648784">
  <ele>54.15</ele>
  <time>2026-08-28T17:53:32Z</time>
  <course>0.0</course>
  <speed>0.0</speed>
  <fix>3d</fix>
</trkpt>
<trkpt lat="51.8752066" lon="14.648784">
  <ele>54.15</ele>
  <time>2026-08-28T17:53:32Z</time>
  <course>232.56</course>
  <speed>0.0</speed>
  <fix>3d</fix>
</trkpt>
<trkpt lat="51.8752066" lon="14.648784">
  <ele>54.15</ele>
  <time>2026-08-28T17:53:32Z</time>
  <course>0.0</course>
  <speed>0.0</speed>
  <fix>3d</fix>
</trkpt>
<trkpt lat="51.8752066" lon="14.648784">
  <ele>54.15</ele>
  <time>2026-08-28T17:53:32Z</time>
  <course>232.56</course>
  <speed>0.0</speed>
  <fix>3d</fix>
</trkpt>
<trkpt lat="51.8752066" lon="14.648784">
  <ele>54.15</ele>
  <time>2026-08-28T17:53:32Z</time>
  <course>0.0</course>
  <speed>0.0</speed>
  <fix>3d</fix>
</trkpt>
<trkpt lat="51.8752066" lon="14.648784">
  <ele>54.15</ele>
  <time>2026-08-28T17:53:32Z</time>
  <course>232.57</course>
  <speed>0.0</speed>
  <fix>3d</fix>
</trkpt>
<trkpt lat="51.8752066" lon="14.648784">
  <ele>54.15</ele>
  <time>2026-08-28T17:53:32Z</time>
  <course>0.0</course>
  <speed>0.0</speed>
  <fix>3d</fix>
</trkpt>
<trkpt lat="51.8752066" lon="14.648784">
  <ele>54.15</ele>
  <time>2026-08-28T17:53:32Z</time>
  <course>232.57</course>
  <speed>0.0</speed>
  <fix>3d</fix>
</trkpt>
<trkpt lat="51.8752066" lon="14.648784">
  <ele>54.15</ele>
  <time>2026-08-28T17:53:32Z</time>
  <course>0.0</course>
  <speed>0.0</speed>
  <fix>3d</fix>
</trkpt>
<trkpt lat="51.8752066" lon="14.648784">
  <ele>54.15</ele>
  <time>2026-08-28T17:53:32Z</time>
  <course>232.57</course>
  <speed>0.0</speed>
  <fix>3d</fix>
</trkpt>
<trkpt lat="51.8752066" lon="14.648784">
  <ele>54.15</ele>
  <time>2026-08-28T17:53:32Z</time>
  <course>0.0</course>
  <speed>0.0</speed>
  <fix>3d</fix>
</trkpt>
<trkpt lat="51.8752066" lon="14.648784">
  <ele>54.15</ele>
  <time>2026-08-28T17:53:32Z</time>
  <course>232.57</course>
  <speed>0.0</speed>
  <fix>3d</fix>
</trkpt>
<trkpt lat="51.8752066" lon="14.648784">
  <ele>54.15</ele>
  <time>2026-08-28T17:53:32Z</time>
  <course>0.0</course>
  <speed>0.0</speed>
  <fix>3d</fix>
</trkpt>
<trkpt lat="51.8752066" lon="14.648784">
  <ele>54.15</ele>
  <time>2026-08-28T17:53:32Z</time>
  <course>232.58</course>
  <speed>0.0</speed>
  <fix>3d</fix>
</trkpt>
<trkpt lat="51.8752066" lon="14.648784">
  <ele>54.15</ele>
  <time>2026-08-28T17:53:32Z</time>
  <course>0.0</course>
  <speed>0.0</speed>
  <fix>3d</fix>
</trkpt>
<trkpt lat="51.8752066" lon="14.648784">
  <ele>54.15</ele>
  <time>2026-08-28T17:53:32Z</time>
  <course>232.58</course>
  <speed>0.0</speed>
  <fix>3d</fix>
</trkpt>
<trkpt lat="51.8752066" lon="14.648784">
  <ele>54.15</ele>
  <time>2026-08-28T17:53:32Z</time>
  <course>0.0</course>
  <speed>0.0</speed>
  <fix>3d</fix>
</trkpt>
<trkpt lat="51.8752066" lon="14.648784">
  <ele>54.15</ele>
  <time>2026-08-28T17:53:32Z</time>
  <course>232.58</course>
  <speed>0.0</speed>
  <fix>3d</fix>
</trkpt>
<trkpt lat="51.8752066" lon="14.648784">
  <ele>54.15</ele>
  <time>2026-08-28T17:53:32Z</time>
  <course>0.0</course>
  <speed>0.0</speed>
  <fix>3d</fix>
</trkpt>
<trkpt lat="51.8752066" lon="14.648784">
  <ele>54.15</ele>
  <time>2026-08-28T17:53:32Z</time>
  <course>232.58</course>
  <speed>0.0</speed>
  <fix>3d</fix>
</trkpt>
<trkpt lat="51.8752066" lon="14.648784">
  <ele>54.15</ele>
  <time>2026-08-28T17:53:32Z</time>
  <course>0.0</course>
  <speed>0.0</speed>
  <fix>3d</fix>
</trkpt>
<trkpt lat="51.8752066" lon="14.648784">
  <ele>54.15</ele>
  <time>2026-08-28T17:53:33Z</time>
  <course>232.58</course>
  <speed>0.0</speed>
  <fix>3d</fix>
</trkpt>
<trkpt lat="51.8752066" lon="14.648784">
  <ele>54.15</ele>
  <time>2026-08-28T17:53:33Z</time>
  <course>0.0</course>
  <speed>0.0</speed>
  <fix>3d</fix>
</trkpt>
<trkpt lat="51.8752066" lon="14.648784">
  <ele>54.15</ele>
  <time>2026-08-28T17:53:33Z</time>
  <course>232.58</course>
  <speed>0.0</speed>
  <fix>3d</fix>
</trkpt>
<trkpt lat="51.8752066" lon="14.648784">
  <ele>54.15</ele>
  <time>2026-08-28T17:53:33Z</time>
  <course>0.0</course>
  <speed>0.0</speed>
  <fix>3d</fix>
</trkpt>
<trkpt lat="51.8752066" lon="14.648784">
  <ele>54.15</ele>
  <time>2026-08-28T17:53:33Z</time>
  <course>232.58</course>
  <speed>0.0</speed>
  <fix>3d</fix>
</trkpt>
<trkpt lat="51.8752066" lon="14.648784">
  <ele>54.15</ele>
  <time>2026-08-28T17:53:33Z</time>
  <course>0.0</course>
  <speed>0.0</speed>
  <fix>3d</fix>
</trkpt>
<trkpt lat="51.8752066" lon="14.648784">
  <ele>54.15</ele>
  <time>2026-08-28T17:53:33Z</time>
  <course>232.58</course>
  <speed>0.0</speed>
  <fix>3d</fix>
</trkpt>
<trkpt lat="51.8752066" lon="14.648784">
  <ele>54.15</ele>
  <time>2026-08-28T17:53:33Z</time>
  <course>0.0</course>
  <speed>0.0</speed>
  <fix>3d</fix>
</trkpt>
<trkpt lat="51.8752066" lon="14.648784">
  <ele>54.15</ele>
  <time>2026-08-28T17:53:33Z</time>
  <course>232.58</course>
  <speed>0.0</speed>
  <fix>3d</fix>
</trkpt>
<trkpt lat="51.8752066" lon="14.648784">
  <ele>54.15</ele>
  <time>2026-08-28T17:53:33Z</time>
  <course>0.0</course>
  <speed>0.0</speed>
  <fix>3d</fix>
</trkpt>
<trkpt lat="51.8752066" lon="14.648784">
  <ele>54.15</ele>
  <time>2026-08-28T17:53:33Z</time>
  <course>232.59</course>
  <speed>0.0</speed>
  <fix>3d</fix>
</trkpt>
<trkpt lat="51.8752066" lon="14.648784">
  <ele>54.15</ele>
  <time>2026-08-28T17:53:33Z</time>
  <course>0.0</course>
  <speed>0.0</speed>
  <fix>3d</fix>
</trkpt>
<trkpt lat="51.8752066" lon="14.648784">
  <ele>54.15</ele>
  <time>2026-08-28T17:53:33Z</time>
  <course>232.59</course>
  <speed>0.0</speed>
  <fix>3d</fix>
</trkpt>
<trkpt lat="51.8752066" lon="14.648784">
  <ele>54.15</ele>
  <time>2026-08-28T17:53:33Z</time>
  <course>0.0</course>
  <speed>0.0</speed>
  <fix>3d</fix>
</trkpt>
<trkpt lat="51.8752066" lon="14.648784">
  <ele>54.15</ele>
  <time>2026-08-28T17:53:33Z</time>
  <course>232.59</course>
  <speed>0.0</speed>
  <fix>3d</fix>
</trkpt>
<trkpt lat="51.8752066" lon="14.648784">
  <ele>54.15</ele>
  <time>2026-08-28T17:53:33Z</time>
  <course>0.0</course>
  <speed>0.0</speed>
  <fix>3d</fix>
</trkpt>
<trkpt lat="51.8752066" lon="14.648784">
  <ele>54.15</ele>
  <time>2026-08-28T17:53:33Z</time>
  <course>232.59</course>
  <speed>0.0</speed>
  <fix>3d</fix>
</trkpt>
<trkpt lat="51.8752066" lon="14.648784">
  <ele>54.15</ele>
  <time>2026-08-28T17:53:33Z</time>
  <course>0.0</course>
  <speed>0.0</speed>
  <fix>3d</fix>
</trkpt>
<trkpt lat="51.8752066" lon="14.648784">
  <ele>54.15</ele>
  <time>2026-08-28T17:53:33Z</time>
  <course>232.59</course>
  <speed>0.0</speed>
  <fix>3d</fix>
</trkpt>
<trkpt lat="51.8752066" lon="14.648784">
  <ele>54.15</ele>
  <time>2026-08-28T17:53:33Z</time>
  <course>0.0</course>
  <speed>0.0</speed>
  <fix>3d</fix>
</trkpt>
<trkpt lat="51.8752066" lon="14.648784">
  <ele>54.15</ele>
  <time>2026-08-28T17:53:33Z</time>
  <course>232.59</course>
  <speed>0.01</speed>
  <fix>3d</fix>
</trkpt>
<trkpt lat="51.8752066" lon="14.648784">
  <ele>54.15</ele>
  <time>2026-08-28T17:53:33Z</time>
  <course>0.0</course>
  <speed>0.0</speed>
  <fix>3d</fix>
</trkpt>
<trkpt lat="51.8752066" lon="14.648784">
  <ele>54.15</ele>
  <time>2026-08-28T17:53:33Z</time>
  <course>232.58</course>
  <speed>0.01</speed>
  <fix>3d</fix>
</trkpt>
<trkpt lat="51.8752066" lon="14.648784">
  <ele>54.15</ele>
  <time>2026-08-28T17:53:33Z</time>
  <course>0.0</course>
  <speed>0.0</speed>
  <fix>3d</fix>
</trkpt>
<trkpt lat="51.8752066" lon="14.648784">
  <ele>54.15</ele>
  <time>2026-08-28T17:53:33Z</time>
  <course>232.58</course>
  <speed>0.01</speed>
  <fix>3d</fix>
</trkpt>
<trkpt lat="51.8752066" lon="14.648784">
  <ele>54.15</ele>
  <time>2026-08-28T17:53:33Z</time>
  <course>0.0</course>
  <speed>0.0</speed>
  <fix>3d</fix>
</trkpt>
<trkpt lat="51.8752066" lon="14.648784">
  <ele>54.15</ele>
  <time>2026-08-28T17:53:33Z</time>
  <course>232.58</course>
  <speed>0.01</speed>
  <fix>3d</fix>
</trkpt>
<trkpt lat="51.8752066" lon="14.648784">
  <ele>54.15</ele>
  <time>2026-08-28T17:53:33Z</time>
  <course>0.0</course>
  <speed>0.0</speed>
  <fix>3d</fix>
</trkpt>
<trkpt lat="51.8752066" lon="14.648784">
  <ele>54.15</ele>
  <time>2026-08-28T17:53:33Z</time>
  <course>232.58</course>
  <speed>0.01</speed>
  <fix>3d</fix>
</trkpt>
<trkpt lat="51.8752066" lon="14.648784">
  <ele>54.15</ele>
  <time>2026-08-28T17:53:33Z</time>
  <course>0.0</course>
  <speed>0.0</speed>
  <fix>3d</fix>
</trkpt>
<trkpt lat="51.8752066" lon="14.648784">
  <ele>54.15</ele>
  <time>2026-08-28T17:53:33Z</time>
  <course>232.58</course>
  <speed>0.01</speed>
  <fix>3d</fix>
</trkpt>
<trkpt lat="51.8752066" lon="14.648784">
  <ele>54.15</ele>
  <time>2026-08-28T17:53:33Z</time>
  <course>0.0</course>
  <speed>0.0</speed>
  <fix>3d</fix>
</trkpt>
<trkpt lat="51.8752066" lon="14.648784">
  <ele>54.15</ele>
  <time>2026-08-28T17:53:33Z</time>
  <course>232.58</course>
  <speed>0.01</speed>
  <fix>3d</fix>
</trkpt>
<trkpt lat="51.8752066" lon="14.648784">
  <ele>54.15</ele>
  <time>2026-08-28T17:53:33Z</time>
  <course>0.0</course>
  <speed>0.0</speed>
  <fix>3d</fix>
</trkpt>
<trkpt lat="51.8752066" lon="14.648784">
  <ele>54.15</ele>
  <time>2026-08-28T17:53:33Z</time>
  <course>232.58</course>
  <speed>0.01</speed>
  <fix>3d</fix>
</trkpt>
<trkpt lat="51.8752066" lon="14.648784">
  <ele>54.15</ele>
  <time>2026-08-28T17:53:33Z</time>
  <course>0.0</course>
  <speed>0.0</speed>
  <fix>3d</fix>
</trkpt>
<trkpt lat="51.8752066" lon="14.648784">
  <ele>54.15</ele>
  <time>2026-08-28T17:53:33Z</time>
  <course>232.58</course>
  <speed>0.01</speed>
  <fix>3d</fix>
</trkpt>
<trkpt lat="51.8752066" lon="14.648784">
  <ele>54.15</ele>
  <time>2026-08-28T17:53:33Z</time>
  <course>0.0</course>
  <speed>0.0</speed>
  <fix>3d</fix>
</trkpt>
<trkpt lat="51.8752066" lon="14.648784">
  <ele>54.15</ele>
  <time>2026-08-28T17:53:33Z</time>
  <course>232.58</course>
  <speed>0.01</speed>
  <fix>3d</fix>
</trkpt>
<trkpt lat="51.8752066" lon="14.648784">
  <ele>54.15</ele>
  <time>2026-08-28T17:53:33Z</time>
  <course>0.0</course>
  <speed>0.0</speed>
  <fix>3d</fix>
</trkpt>
<trkpt lat="51.8752066" lon="14.648784">
  <ele>54.15</ele>
  <time>2026-08-28T17:53:33Z</time>
  <course>232.58</course>
  <speed>0.01</speed>
  <fix>3d</fix>
</trkpt>
<trkpt lat="51.8752066" lon="14.648784">
  <ele>54.15</ele>
  <time>2026-08-28T17:53:33Z</time>
  <course>0.0</course>
  <speed>0.0</speed>
  <fix>3d</fix>
</trkpt>
<trkpt lat="51.8752066" lon="14.648784">
  <ele>54.15</ele>
  <time>2026-08-28T17:53:34Z</time>
  <course>232.57</course>
  <speed>0.01</speed>
  <fix>3d</fix>
</trkpt>
<trkpt lat="51.8752066" lon="14.648784">
  <ele>54.15</ele>
  <time>2026-08-28T17:53:34Z</time>
  <course>0.0</course>
  <speed>0.0</speed>
  <fix>3d</fix>
</trkpt>
<trkpt lat="51.8752066" lon="14.648784">
  <ele>54.15</ele>
  <time>2026-08-28T17:53:34Z</time>
  <course>232.57</course>
  <speed>0.01</speed>
  <fix>3d</fix>
</trkpt>
<trkpt lat="51.8752066" lon="14.648784">
  <ele>54.15</ele>
  <time>2026-08-28T17:53:34Z</time>
  <course>0.0</course>
  <speed>0.0</speed>
  <fix>3d</fix>
</trkpt>
<trkpt lat="51.8752066" lon="14.648784">
  <ele>54.15</ele>
  <time>2026-08-28T17:53:34Z</time>
  <course>232.57</course>
  <speed>0.01</speed>
  <fix>3d</fix>
</trkpt>
<trkpt lat="51.8752066" lon="14.648784">
  <ele>54.15</ele>
  <time>2026-08-28T17:53:34Z</time>
  <course>0.0</course>
  <speed>0.0</speed>
  <fix>3d</fix>
</trkpt>
<trkpt lat="51.8752066" lon="14.648784">
  <ele>54.15</ele>
  <time>2026-08-28T17:53:34Z</time>
  <course>232.57</course>
  <speed>0.01</speed>
  <fix>3d</fix>
</trkpt>
<trkpt lat="51.8752066" lon="14.648784">
  <ele>54.15</ele>
  <time>2026-08-28T17:53:34Z</time>
  <course>0.0</course>
  <speed>0.0</speed>
  <fix>3d</fix>
</trkpt>
<trkpt lat="51.8752066" lon="14.648784">
  <ele>54.15</ele>
  <time>2026-08-28T17:53:34Z</time>
  <course>232.57</course>
  <speed>0.01</speed>
  <fix>3d</fix>
</trkpt>
<trkpt lat="51.8752066" lon="14.648784">
  <ele>54.15</ele>
  <time>2026-08-28T17:53:34Z</time>
  <course>0.0</course>
  <speed>0.0</speed>
  <fix>3d</fix>
</trkpt>
<trkpt lat="51.8752066" lon="14.648784">
  <ele>54.15</ele>
  <time>2026-08-28T17:53:34Z</time>
  <course>232.56</course>
  <speed>0.01</speed>
  <fix>3d</fix>
</trkpt>
<trkpt lat="51.8752066" lon="14.648784">
  <ele>54.15</ele>
  <time>2026-08-28T17:53:34Z</time>
  <course>0.0</course>
  <speed>0.0</speed>
  <fix>3d</fix>
</trkpt>
<trkpt lat="51.8752066" lon="14.648784">
  <ele>54.15</ele>
  <time>2026-08-28T17:53:34Z</time>
  <course>232.56</course>
  <speed>0.01</speed>
  <fix>3d</fix>
</trkpt>
<trkpt lat="51.8752066" lon="14.648784">
  <ele>54.15</ele>
  <time>2026-08-28T17:53:34Z</time>
  <course>0.0</course>
  <speed>0.0</speed>
  <fix>3d</fix>
</trkpt>
<trkpt lat="51.8752066" lon="14.648784">
  <ele>54.15</ele>
  <time>2026-08-28T17:53:34Z</time>
  <course>232.56</course>
  <speed>0.01</speed>
  <fix>3d</fix>
</trkpt>
<trkpt lat="51.8752066" lon="14.648784">
  <ele>54.15</ele>
  <time>2026-08-28T17:53:34Z</time>
  <course>0.0</course>
  <speed>0.0</speed>
  <fix>3d</fix>
</trkpt>
<trkpt lat="51.8752066" lon="14.648784">
  <ele>54.15</ele>
  <time>2026-08-28T17:53:34Z</time>
  <course>232.56</course>
  <speed>0.01</speed>
  <fix>3d</fix>
</trkpt>
<trkpt lat="51.8752066" lon="14.648784">
  <ele>54.15</ele>
  <time>2026-08-28T17:53:34Z</time>
  <course>0.0</course>
  <speed>0.0</speed>
  <fix>3d</fix>
</trkpt>
<trkpt lat="51.8752066" lon="14.648784">
  <ele>54.15</ele>
  <time>2026-08-28T17:53:34Z</time>
  <course>232.56</course>
  <speed>0.01</speed>
  <fix>3d</fix>
</trkpt>
<trkpt lat="51.8752066" lon="14.648784">
  <ele>54.15</ele>
  <time>2026-08-28T17:53:34Z</time>
  <course>0.0</course>
  <speed>0.0</speed>
  <fix>3d</fix>
</trkpt>
<trkpt lat="51.8752066" lon="14.648784">
  <ele>54.15</ele>
  <time>2026-08-28T17:53:34Z</time>
  <course>232.55</course>
  <speed>0.01</speed>
  <fix>3d</fix>
</trkpt>
<trkpt lat="51.8752066" lon="14.648784">
  <ele>54.15</ele>
  <time>2026-08-28T17:53:34Z</time>
  <course>0.0</course>
  <speed>0.0</speed>
  <fix>3d</fix>
</trkpt>
<trkpt lat="51.8752066" lon="14.648784">
  <ele>54.15</ele>
  <time>2026-08-28T17:53:34Z</time>
  <course>232.55</course>
  <speed>0.01</speed>
  <fix>3d</fix>
</trkpt>
<trkpt lat="51.8752066" lon="14.648784">
  <ele>54.15</ele>
  <time>2026-08-28T17:53:34Z</time>
  <course>0.0</course>
  <speed>0.0</speed>
  <fix>3d</fix>
</trkpt>
<trkpt lat="51.8752066" lon="14.648784">
  <ele>54.15</ele>
  <time>2026-08-28T17:53:34Z</time>
  <course>232.55</course>
  <speed>0.01</speed>
  <fix>3d</fix>
</trkpt>
<trkpt lat="51.8752066" lon="14.648784">
  <ele>54.15</ele>
  <time>2026-08-28T17:53:34Z</time>
  <course>0.0</course>
  <speed>0.0</speed>
  <fix>3d</fix>
</trkpt>
<trkpt lat="51.8752066" lon="14.648784">
  <ele>54.15</ele>
  <time>2026-08-28T17:53:34Z</time>
  <course>232.55</course>
  <speed>0.01</speed>
  <fix>3d</fix>
</trkpt>
<trkpt lat="51.8752066" lon="14.648784">
  <ele>54.15</ele>
  <time>2026-08-28T17:53:34Z</time>
  <course>0.0</course>
  <speed>0.0</speed>
  <fix>3d</fix>
</trkpt>
<trkpt lat="51.8752066" lon="14.648784">
  <ele>54.15</ele>
  <time>2026-08-28T17:53:34Z</time>
  <course>232.54</course>
  <speed>0.01</speed>
  <fix>3d</fix>
</trkpt>
<trkpt lat="51.8752066" lon="14.648784">
  <ele>54.15</ele>
  <time>2026-08-28T17:53:34Z</time>
  <course>0.0</course>
  <speed>0.0</speed>
  <fix>3d</fix>
</trkpt>
<trkpt lat="51.8752066" lon="14.648784">
  <ele>54.15</ele>
  <time>2026-08-28T17:53:34Z</time>
  <course>232.54</course>
  <speed>0.01</speed>
  <fix>3d</fix>
</trkpt>
<trkpt lat="51.8752066" lon="14.648784">
  <ele>54.15</ele>
  <time>2026-08-28T17:53:34Z</time>
  <course>0.0</course>
  <speed>0.0</speed>
  <fix>3d</fix>
</trkpt>
<trkpt lat="51.8752066" lon="14.648784">
  <ele>54.15</ele>
  <time>2026-08-28T17:53:34Z</time>
  <course>232.54</course>
  <speed>0.01</speed>
  <fix>3d</fix>
</trkpt>
<trkpt lat="51.8752066" lon="14.648784">
  <ele>54.15</ele>
  <time>2026-08-28T17:53:34Z</time>
  <course>0.0</course>
  <speed>0.0</speed>
  <fix>3d</fix>
</trkpt>
<trkpt lat="51.8752066" lon="14.648784">
  <ele>54.15</ele>
  <time>2026-08-28T17:53:34Z</time>
  <course>232.53</course>
  <speed>0.01</speed>
  <fix>3d</fix>
</trkpt>
<trkpt lat="51.8752066" lon="14.648784">
  <ele>54.15</ele>
  <time>2026-08-28T17:53:34Z</time>
  <course>0.0</course>
  <speed>0.0</speed>
  <fix>3d</fix>
</trkpt>
<trkpt lat="51.8752066" lon="14.648784">
  <ele>54.15</ele>
  <time>2026-08-28T17:53:34Z</time>
  <course>232.53</course>
  <speed>0.01</speed>
  <fix>3d</fix>
</trkpt>
<trkpt lat="51.8752066" lon="14.648784">
  <ele>54.15</ele>
  <time>2026-08-28T17:53:34Z</time>
  <course>0.0</course>
  <speed>0.0</speed>
  <fix>3d</fix>
</trkpt>
<trkpt lat="51.8752066" lon="14.648784">
  <ele>54.15</ele>
  <time>2026-08-28T17:53:34Z</time>
  <course>232.53</course>
  <speed>0.01</speed>
  <fix>3d</fix>
</trkpt>
<trkpt lat="51.8752066" lon="14.648784">
  <ele>54.15</ele>
  <time>2026-08-28T17:53:34Z</time>
  <course>0.0</course>
  <speed>0.0</speed>
  <fix>3d</fix>
</trkpt>
<trkpt lat="51.8752066" lon="14.648784">
  <ele>54.15</ele>
  <time>2026-08-28T17:53:35Z</time>
  <course>232.53</course>
  <speed>0.01</speed>
  <fix>3d</fix>
</trkpt>
<trkpt lat="51.8752066" lon="14.648784">
  <ele>54.15</ele>
  <time>2026-08-28T17:53:35Z</time>
  <course>0.0</course>
  <speed>0.0</speed>
  <fix>3d</fix>
</trkpt>
<trkpt lat="51.8752066" lon="14.648784">
  <ele>54.15</ele>
  <time>2026-08-28T17:53:35Z</time>
  <course>232.52</course>
  <speed>0.01</speed>
  <fix>3d</fix>
</trkpt>
<trkpt lat="51.8752066" lon="14.648784">
  <ele>54.15</ele>
  <time>2026-08-28T17:53:35Z</time>
  <course>0.0</course>
  <speed>0.0</speed>
  <fix>3d</fix>
</trkpt>
<trkpt lat="51.8752066" lon="14.648784">
  <ele>54.15</ele>
  <time>2026-08-28T17:53:35Z</time>
  <course>232.52</course>
  <speed>0.01</speed>
  <fix>3d</fix>
</trkpt>
<trkpt lat="51.8752066" lon="14.648784">
  <ele>54.15</ele>
  <time>2026-08-28T17:53:35Z</time>
  <course>0.0</course>
  <speed>0.0</speed>
  <fix>3d</fix>
</trkpt>
<trkpt lat="51.8752066" lon="14.648784">
  <ele>54.15</ele>
  <time>2026-08-28T17:53:35Z</time>
  <course>232.52</course>
  <speed>0.01</speed>
  <fix>3d</fix>
</trkpt>
<trkpt lat="51.8752066" lon="14.648784">
  <ele>54.15</ele>
  <time>2026-08-28T17:53:35Z</time>
  <course>0.0</course>
  <speed>0.0</speed>
  <fix>3d</fix>
</trkpt>
<trkpt lat="51.8752066" lon="14.648784">
  <ele>54.15</ele>
  <time>2026-08-28T17:53:35Z</time>
  <course>232.52</course>
  <speed>0.01</speed>
  <fix>3d</fix>
</trkpt>
<trkpt lat="51.8752066" lon="14.648784">
  <ele>54.15</ele>
  <time>2026-08-28T17:53:35Z</time>
  <course>0.0</course>
  <speed>0.0</speed>
  <fix>3d</fix>
</trkpt>
<trkpt lat="51.8752066" lon="14.648784">
  <ele>54.15</ele>
  <time>2026-08-28T17:53:35Z</time>
  <course>232.51</course>
  <speed>0.01</speed>
  <fix>3d</fix>
</trkpt>
<trkpt lat="51.8752066" lon="14.648784">
  <ele>54.15</ele>
  <time>2026-08-28T17:53:35Z</time>
  <course>0.0</course>
  <speed>0.0</speed>
  <fix>3d</fix>
</trkpt>
<trkpt lat="51.8752066" lon="14.648784">
  <ele>54.15</ele>
  <time>2026-08-28T17:53:35Z</time>
  <course>232.51</course>
  <speed>0.01</speed>
  <fix>3d</fix>
</trkpt>
<trkpt lat="51.8752066" lon="14.648784">
  <ele>54.15</ele>
  <time>2026-08-28T17:53:35Z</time>
  <course>0.0</course>
  <speed>0.0</speed>
  <fix>3d</fix>
</trkpt>
<trkpt lat="51.8752066" lon="14.648784">
  <ele>54.15</ele>
  <time>2026-08-28T17:53:35Z</time>
  <course>232.51</course>
  <speed>0.01</speed>
  <fix>3d</fix>
</trkpt>
<trkpt lat="51.8752066" lon="14.648784">
  <ele>54.15</ele>
  <time>2026-08-28T17:53:35Z</time>
  <course>0.0</course>
  <speed>0.0</speed>
  <fix>3d</fix>
</trkpt>
<trkpt lat="51.8752066" lon="14.648784">
  <ele>54.15</ele>
  <time>2026-08-28T17:53:35Z</time>
  <course>232.5</course>
  <speed>0.01</speed>
  <fix>3d</fix>
</trkpt>
<trkpt lat="51.8752066" lon="14.648784">
  <ele>54.15</ele>
  <time>2026-08-28T17:53:35Z</time>
  <course>0.0</course>
  <speed>0.0</speed>
  <fix>3d</fix>
</trkpt>
<trkpt lat="51.8752066" lon="14.648784">
  <ele>54.15</ele>
  <time>2026-08-28T17:53:35Z</time>
  <course>232.5</course>
  <speed>0.01</speed>
  <fix>3d</fix>
</trkpt>
<trkpt lat="51.8752066" lon="14.648784">
  <ele>54.15</ele>
  <time>2026-08-28T17:53:35Z</time>
  <course>0.0</course>
  <speed>0.0</speed>
  <fix>3d</fix>
</trkpt>
<trkpt lat="51.8752066" lon="14.648784">
  <ele>54.15</ele>
  <time>2026-08-28T17:53:35Z</time>
  <course>232.5</course>
  <speed>0.01</speed>
  <fix>3d</fix>
</trkpt>
<trkpt lat="51.8752066" lon="14.648784">
  <ele>54.15</ele>
  <time>2026-08-28T17:53:35Z</time>
  <course>0.0</course>
  <speed>0.0</speed>
  <fix>3d</fix>
</trkpt>
<trkpt lat="51.8752066" lon="14.648784">
  <ele>54.15</ele>
  <time>2026-08-28T17:53:35Z</time>
  <course>232.49</course>
  <speed>0.01</speed>
  <fix>3d</fix>
</trkpt>
<trkpt lat="51.8752066" lon="14.648784">
  <ele>54.15</ele>
  <time>2026-08-28T17:53:35Z</time>
  <course>0.0</course>
  <speed>0.0</speed>
  <fix>3d</fix>
</trkpt>
<trkpt lat="51.8752066" lon="14.648784">
  <ele>54.15</ele>
  <time>2026-08-28T17:53:35Z</time>
  <course>232.49</course>
  <speed>0.01</speed>
  <fix>3d</fix>
</trkpt>
<trkpt lat="51.8752066" lon="14.648784">
  <ele>54.15</ele>
  <time>2026-08-28T17:53:35Z</time>
  <course>0.0</course>
  <speed>0.0</speed>
  <fix>3d</fix>
</trkpt>
<trkpt lat="51.8752066" lon="14.648784">
  <ele>54.15</ele>
  <time>2026-08-28T17:53:35Z</time>
  <course>232.49</course>
  <speed>0.01</speed>
  <fix>3d</fix>
</trkpt>
<trkpt lat="51.8752066" lon="14.648784">
  <ele>54.15</ele>
  <time>2026-08-28T17:53:35Z</time>
  <course>0.0</course>
  <speed>0.0</speed>
  <fix>3d</fix>
</trkpt>
<trkpt lat="51.8752066" lon="14.648784">
  <ele>54.15</ele>
  <time>2026-08-28T17:53:35Z</time>
  <course>232.49</course>
  <speed>0.01</speed>
  <fix>3d</fix>
</trkpt>
<trkpt lat="51.8752066" lon="14.648784">
  <ele>54.15</ele>
  <time>2026-08-28T17:53:35Z</time>
  <course>0.0</course>
  <speed>0.0</speed>
  <fix>3d</fix>
</trkpt>
<trkpt lat="51.8752066" lon="14.648784">
  <ele>54.15</ele>
  <time>2026-08-28T17:53:35Z</time>
  <course>232.48</course>
  <speed>0.01</speed>
  <fix>3d</fix>
</trkpt>
<trkpt lat="51.8752066" lon="14.648784">
  <ele>54.15</ele>
  <time>2026-08-28T17:53:35Z</time>
  <course>0.0</course>
  <speed>0.0</speed>
  <fix>3d</fix>
</trkpt>
<trkpt lat="51.8752066" lon="14.648784">
  <ele>54.15</ele>
  <time>2026-08-28T17:53:35Z</time>
  <course>232.48</course>
  <speed>0.01</speed>
  <fix>3d</fix>
</trkpt>
<trkpt lat="51.8752066" lon="14.648784">
  <ele>54.15</ele>
  <time>2026-08-28T17:53:35Z</time>
  <course>0.0</course>
  <speed>0.0</speed>
  <fix>3d</fix>
</trkpt>
<trkpt lat="51.8752066" lon="14.648784">
  <ele>54.15</ele>
  <time>2026-08-28T17:53:35Z</time>
  <course>232.48</course>
  <speed>0.01</speed>
  <fix>3d</fix>
</trkpt>
<trkpt lat="51.8752066" lon="14.648784">
  <ele>54.15</ele>
  <time>2026-08-28T17:53:35Z</time>
  <course>0.0</course>
  <speed>0.0</speed>
  <fix>3d</fix>
</trkpt>
<trkpt lat="51.8752066" lon="14.648784">
  <ele>54.15</ele>
  <time>2026-08-28T17:53:35Z</time>
  <course>232.47</course>
  <speed>0.01</speed>
  <fix>3d</fix>
</trkpt>
<trkpt lat="51.8752066" lon="14.648784">
  <ele>54.15</ele>
  <time>2026-08-28T17:53:35Z</time>
  <course>0.0</course>
  <speed>0.0</speed>
  <fix>3d</fix>
</trkpt>
<trkpt lat="51.8752066" lon="14.648784">
  <ele>54.15</ele>
  <time>2026-08-28T17:53:35Z</time>
  <course>232.47</course>
  <speed>0.01</speed>
  <fix>3d</fix>
</trkpt>
<trkpt lat="51.8752066" lon="14.648784">
  <ele>54.15</ele>
  <time>2026-08-28T17:53:35Z</time>
  <course>0.0</course>
  <speed>0.0</speed>
  <fix>3d</fix>
</trkpt>
<trkpt lat="51.8752066" lon="14.648784">
  <ele>54.15</ele>
  <time>2026-08-28T17:53:35Z</time>
  <course>232.47</course>
  <speed>0.01</speed>
  <fix>3d</fix>
</trkpt>
<trkpt lat="51.8752066" lon="14.648784">
  <ele>54.15</ele>
  <time>2026-08-28T17:53:35Z</time>
  <course>0.0</course>
  <speed>0.0</speed>
  <fix>3d</fix>
</trkpt>
<trkpt lat="51.8752066" lon="14.648784">
  <ele>54.15</ele>
  <time>2026-08-28T17:53:35Z</time>
  <course>232.46</course>
  <speed>0.01</speed>
  <fix>3d</fix>
</trkpt>
<trkpt lat="51.8752066" lon="14.648784">
  <ele>54.15</ele>
  <time>2026-08-28T17:53:35Z</time>
  <course>0.0</course>
  <speed>0.0</speed>
  <fix>3d</fix>
</trkpt>
<trkpt lat="51.8752066" lon="14.648784">
  <ele>54.15</ele>
  <time>2026-08-28T17:53:36Z</time>
  <course>232.46</course>
  <speed>0.02</speed>
  <fix>3d</fix>
</trkpt>
<trkpt lat="51.8752066" lon="14.648784">
  <ele>54.15</ele>
  <time>2026-08-28T17:53:36Z</time>
  <course>0.0</course>
  <speed>0.0</speed>
  <fix>3d</fix>
</trkpt>
<trkpt lat="51.8752066" lon="14.648784">
  <ele>54.15</ele>
  <time>2026-08-28T17:53:36Z</time>
  <course>232.46</course>
  <speed>0.02</speed>
  <fix>3d</fix>
</trkpt>
<trkpt lat="51.8752066" lon="14.648784">
  <ele>54.15</ele>
  <time>2026-08-28T17:53:36Z</time>
  <course>0.0</course>
  <speed>0.0</speed>
  <fix>3d</fix>
</trkpt>
<trkpt lat="51.8752066" lon="14.648784">
  <ele>54.15</ele>
  <time>2026-08-28T17:53:36Z</time>
  <course>232.45</course>
  <speed>0.02</speed>
  <fix>3d</fix>
</trkpt>
<trkpt lat="51.8752066" lon="14.648784">
  <ele>54.15</ele>
  <time>2026-08-28T17:53:36Z</time>
  <course>0.0</course>
  <speed>0.0</speed>
  <fix>3d</fix>
</trkpt>
<trkpt lat="51.8752066" lon="14.648784">
  <ele>54.15</ele>
  <time>2026-08-28T17:53:36Z</time>
  <course>232.45</course>
  <speed>0.02</speed>
  <fix>3d</fix>
</trkpt>
<trkpt lat="51.8752066" lon="14.648784">
  <ele>54.15</ele>
  <time>2026-08-28T17:53:36Z</time>
  <course>0.0</course>
  <speed>0.0</speed>
  <fix>3d</fix>
</trkpt>
<trkpt lat="51.8752066" lon="14.648784">
  <ele>54.15</ele>
  <time>2026-08-28T17:53:36Z</time>
  <course>232.45</course>
  <speed>0.02</speed>
  <fix>3d</fix>
</trkpt>
<trkpt lat="51.8752066" lon="14.648784">
  <ele>54.15</ele>
  <time>2026-08-28T17:53:36Z</time>
  <course>0.0</course>
  <speed>0.0</speed>
  <fix>3d</fix>
</trkpt>
<trkpt lat="51.8752066" lon="14.648784">
  <ele>54.15</ele>
  <time>2026-08-28T17:53:36Z</time>
  <course>232.44</course>
  <speed>0.02</speed>
  <fix>3d</fix>
</trkpt>
<trkpt lat="51.8752066" lon="14.648784">
  <ele>54.15</ele>
  <time>2026-08-28T17:53:36Z</time>
  <course>0.0</course>
  <speed>0.0</speed>
  <fix>3d</fix>
</trkpt>
<trkpt lat="51.8752066" lon="14.648784">
  <ele>54.15</ele>
  <time>2026-08-28T17:53:36Z</time>
  <course>232.44</course>
  <speed>0.02</speed>
  <fix>3d</fix>
</trkpt>
<trkpt lat="51.8752066" lon="14.648784">
  <ele>54.15</ele>
  <time>2026-08-28T17:53:36Z</time>
  <course>0.0</course>
  <speed>0.0</speed>
  <fix>3d</fix>
</trkpt>
<trkpt lat="51.8752066" lon="14.648784">
  <ele>54.15</ele>
  <time>2026-08-28T17:53:36Z</time>
  <course>232.44</course>
  <speed>0.02</speed>
  <fix>3d</fix>
</trkpt>
<trkpt lat="51.8752066" lon="14.648784">
  <ele>54.15</ele>
  <time>2026-08-28T17:53:36Z</time>
  <course>0.0</course>
  <speed>0.0</speed>
  <fix>3d</fix>
</trkpt>
<trkpt lat="51.8752066" lon="14.648784">
  <ele>54.15</ele>
  <time>2026-08-28T17:53:36Z</time>
  <course>232.44</course>
  <speed>0.02</speed>
  <fix>3d</fix>
</trkpt>
<trkpt lat="51.8752066" lon="14.648784">
  <ele>54.15</ele>
  <time>2026-08-28T17:53:36Z</time>
  <course>0.0</course>
  <speed>0.0</speed>
  <fix>3d</fix>
</trkpt>
<trkpt lat="51.8752066" lon="14.648784">
  <ele>54.15</ele>
  <time>2026-08-28T17:53:36Z</time>
  <course>232.43</course>
  <speed>0.02</speed>
  <fix>3d</fix>
</trkpt>
<trkpt lat="51.8752066" lon="14.648784">
  <ele>54.15</ele>
  <time>2026-08-28T17:53:36Z</time>
  <course>0.0</course>
  <speed>0.0</speed>
  <fix>3d</fix>
</trkpt>
<trkpt lat="51.8752066" lon="14.648784">
  <ele>54.15</ele>
  <time>2026-08-28T17:53:36Z</time>
  <course>232.43</course>
  <speed>0.02</speed>
  <fix>3d</fix>
</trkpt>
<trkpt lat="51.8752066" lon="14.648784">
  <ele>54.15</ele>
  <time>2026-08-28T17:53:36Z</time>
  <course>0.0</course>
  <speed>0.0</speed>
  <fix>3d</fix>
</trkpt>
<trkpt lat="51.8752066" lon="14.648784">
  <ele>54.15</ele>
  <time>2026-08-28T17:53:36Z</time>
  <course>232.43</course>
  <speed>0.02</speed>
  <fix>3d</fix>
</trkpt>
<trkpt lat="51.8752066" lon="14.648784">
  <ele>54.15</ele>
  <time>2026-08-28T17:53:36Z</time>
  <course>0.0</course>
  <speed>0.0</speed>
  <fix>3d</fix>
</trkpt>
<trkpt lat="51.8752066" lon="14.648784">
  <ele>54.15</ele>
  <time>2026-08-28T17:53:36Z</time>
  <course>232.42</course>
  <speed>0.02</speed>
  <fix>3d</fix>
</trkpt>
<trkpt lat="51.8752066" lon="14.648784">
  <ele>54.15</ele>
  <time>2026-08-28T17:53:36Z</time>
  <course>0.0</course>
  <speed>0.0</speed>
  <fix>3d</fix>
</trkpt>
<trkpt lat="51.8752066" lon="14.648784">
  <ele>54.15</ele>
  <time>2026-08-28T17:53:36Z</time>
  <course>232.42</course>
  <speed>0.02</speed>
  <fix>3d</fix>
</trkpt>
<trkpt lat="51.8752066" lon="14.648784">
  <ele>54.15</ele>
  <time>2026-08-28T17:53:36Z</time>
  <course>0.0</course>
  <speed>0.0</speed>
  <fix>3d</fix>
</trkpt>
<trkpt lat="51.8752066" lon="14.648784">
  <ele>54.15</ele>
  <time>2026-08-28T17:53:36Z</time>
  <course>232.42</course>
  <speed>0.02</speed>
  <fix>3d</fix>
</trkpt>
<trkpt lat="51.8752066" lon="14.648784">
  <ele>54.15</ele>
  <time>2026-08-28T17:53:36Z</time>
  <course>0.0</course>
  <speed>0.0</speed>
  <fix>3d</fix>
</trkpt>
<trkpt lat="51.8752066" lon="14.648784">
  <ele>54.15</ele>
  <time>2026-08-28T17:53:36Z</time>
  <course>232.41</course>
  <speed>0.02</speed>
  <fix>3d</fix>
</trkpt>
<trkpt lat="51.8752066" lon="14.648784">
  <ele>54.15</ele>
  <time>2026-08-28T17:53:36Z</time>
  <course>0.0</course>
  <speed>0.0</speed>
  <fix>3d</fix>
</trkpt>
<trkpt lat="51.8752066" lon="14.648784">
  <ele>54.15</ele>
  <time>2026-08-28T17:53:36Z</time>
  <course>232.41</course>
  <speed>0.02</speed>
  <fix>3d</fix>
</trkpt>
<trkpt lat="51.8752066" lon="14.648784">
  <ele>54.15</ele>
  <time>2026-08-28T17:53:36Z</time>
  <course>0.0</course>
  <speed>0.0</speed>
  <fix>3d</fix>
</trkpt>
<trkpt lat="51.8752066" lon="14.648784">
  <ele>54.15</ele>
  <time>2026-08-28T17:53:36Z</time>
  <course>232.41</course>
  <speed>0.02</speed>
  <fix>3d</fix>
</trkpt>
<trkpt lat="51.8752066" lon="14.648784">
  <ele>54.15</ele>
  <time>2026-08-28T17:53:36Z</time>
  <course>0.0</course>
  <speed>0.0</speed>
  <fix>3d</fix>
</trkpt>
<trkpt lat="51.8752066" lon="14.648784">
  <ele>54.15</ele>
  <time>2026-08-28T17:53:36Z</time>
  <course>232.4</course>
  <speed>0.02</speed>
  <fix>3d</fix>
</trkpt>
<trkpt lat="51.8752066" lon="14.648784">
  <ele>54.15</ele>
  <time>2026-08-28T17:53:36Z</time>
  <course>0.0</course>
  <speed>0.0</speed>
  <fix>3d</fix>
</trkpt>
<trkpt lat="51.8752066" lon="14.648784">
  <ele>54.15</ele>
  <time>2026-08-28T17:53:36Z</time>
  <course>232.4</course>
  <speed>0.02</speed>
  <fix>3d</fix>
</trkpt>
<trkpt lat="51.8752066" lon="14.648784">
  <ele>54.15</ele>
  <time>2026-08-28T17:53:36Z</time>
  <course>0.0</course>
  <speed>0.0</speed>
  <fix>3d</fix>
</trkpt>
<trkpt lat="51.8752066" lon="14.648784">
  <ele>54.15</ele>
  <time>2026-08-28T17:53:36Z</time>
  <course>232.4</course>
  <speed>0.02</speed>
  <fix>3d</fix>
</trkpt>
<trkpt lat="51.8752066" lon="14.648784">
  <ele>54.15</ele>
  <time>2026-08-28T17:53:36Z</time>
  <course>0.0</course>
  <speed>0.0</speed>
  <fix>3d</fix>
</trkpt>
<trkpt lat="51.8752066" lon="14.648784">
  <ele>54.15</ele>
  <time>2026-08-28T17:53:36Z</time>
  <course>232.39</course>
  <speed>0.02</speed>
  <fix>3d</fix>
</trkpt>
<trkpt lat="51.8752066" lon="14.648784">
  <ele>54.15</ele>
  <time>2026-08-28T17:53:36Z</time>
  <course>0.0</course>
  <speed>0.0</speed>
  <fix>3d</fix>
</trkpt>
<trkpt lat="51.8752066" lon="14.648784">
  <ele>54.15</ele>
  <time>2026-08-28T17:53:36Z</time>
  <course>232.39</course>
  <speed>0.02</speed>
  <fix>3d</fix>
</trkpt>
<trkpt lat="51.8752066" lon="14.648784">
  <ele>54.15</ele>
  <time>2026-08-28T17:53:36Z</time>
  <course>0.0</course>
  <speed>0.0</speed>
  <fix>3d</fix>
</trkpt>
<trkpt lat="51.8752066" lon="14.648784">
  <ele>54.15</ele>
  <time>2026-08-28T17:53:37Z</time>
  <course>232.39</course>
  <speed>0.02</speed>
  <fix>3d</fix>
</trkpt>
<trkpt lat="51.8752066" lon="14.648784">
  <ele>54.15</ele>
  <time>2026-08-28T17:53:37Z</time>
  <course>0.0</course>
  <speed>0.0</speed>
  <fix>3d</fix>
</trkpt>
<trkpt lat="51.8752066" lon="14.648784">
  <ele>54.15</ele>
  <time>2026-08-28T17:53:37Z</time>
  <course>232.38</course>
  <speed>0.02</speed>
  <fix>3d</fix>
</trkpt>
<trkpt lat="51.8752066" lon="14.648784">
  <ele>54.15</ele>
  <time>2026-08-28T17:53:37Z</time>
  <course>0.0</course>
  <speed>0.0</speed>
  <fix>3d</fix>
</trkpt>
<trkpt lat="51.8752066" lon="14.648784">
  <ele>54.15</ele>
  <time>2026-08-28T17:53:37Z</time>
  <course>232.38</course>
  <speed>0.02</speed>
  <fix>3d</fix>
</trkpt>
<trkpt lat="51.8752066" lon="14.648784">
  <ele>54.15</ele>
  <time>2026-08-28T17:53:37Z</time>
  <course>0.0</course>
  <speed>0.0</speed>
  <fix>3d</fix>
</trkpt>
<trkpt lat="51.8752066" lon="14.648784">
  <ele>54.15</ele>
  <time>2026-08-28T17:53:37Z</time>
  <course>232.38</course>
  <speed>0.02</speed>
  <fix>3d</fix>
</trkpt>
<trkpt lat="51.8752066" lon="14.648784">
  <ele>54.15</ele>
  <time>2026-08-28T17:53:37Z</time>
  <course>0.0</course>
  <speed>0.0</speed>
  <fix>3d</fix>
</trkpt>
<trkpt lat="51.8752066" lon="14.648784">
  <ele>54.15</ele>
  <time>2026-08-28T17:53:37Z</time>
  <course>232.38</course>
  <speed>0.02</speed>
  <fix>3d</fix>
</trkpt>
<trkpt lat="51.8752066" lon="14.648784">
  <ele>54.15</ele>
  <time>2026-08-28T17:53:37Z</time>
  <course>0.0</course>
  <speed>0.0</speed>
  <fix>3d</fix>
</trkpt>
<trkpt lat="51.8752066" lon="14.648784">
  <ele>54.15</ele>
  <time>2026-08-28T17:53:37Z</time>
  <course>232.37</course>
  <speed>0.02</speed>
  <fix>3d</fix>
</trkpt>
<trkpt lat="51.8752066" lon="14.648784">
  <ele>54.15</ele>
  <time>2026-08-28T17:53:37Z</time>
  <course>0.0</course>
  <speed>0.0</speed>
  <fix>3d</fix>
</trkpt>
<trkpt lat="51.8752066" lon="14.648784">
  <ele>54.15</ele>
  <time>2026-08-28T17:53:37Z</time>
  <course>232.37</course>
  <speed>0.02</speed>
  <fix>3d</fix>
</trkpt>
<trkpt lat="51.8752066" lon="14.648784">
  <ele>54.15</ele>
  <time>2026-08-28T17:53:37Z</time>
  <course>0.0</course>
  <speed>0.0</speed>
  <fix>3d</fix>
</trkpt>
<trkpt lat="51.8752066" lon="14.648784">
  <ele>54.15</ele>
  <time>2026-08-28T17:53:37Z</time>
  <course>232.37</course>
  <speed>0.02</speed>
  <fix>3d</fix>
</trkpt>
<trkpt lat="51.8752066" lon="14.648784">
  <ele>54.15</ele>
  <time>2026-08-28T17:53:37Z</time>
  <course>0.0</course>
  <speed>0.0</speed>
  <fix>3d</fix>
</trkpt>
<trkpt lat="51.8752066" lon="14.648784">
  <ele>54.15</ele>
  <time>2026-08-28T17:53:37Z</time>
  <course>232.36</course>
  <speed>0.02</speed>
  <fix>3d</fix>
</trkpt>
<trkpt lat="51.8752066" lon="14.648784">
  <ele>54.15</ele>
  <time>2026-08-28T17:53:37Z</time>
  <course>0.0</course>
  <speed>0.0</speed>
  <fix>3d</fix>
</trkpt>
<trkpt lat="51.8752066" lon="14.648784">
  <ele>54.15</ele>
  <time>2026-08-28T17:53:37Z</time>
  <course>232.36</course>
  <speed>0.02</speed>
  <fix>3d</fix>
</trkpt>
<trkpt lat="51.8752066" lon="14.648784">
  <ele>54.15</ele>
  <time>2026-08-28T17:53:37Z</time>
  <course>0.0</course>
  <speed>0.0</speed>
  <fix>3d</fix>
</trkpt>
<trkpt lat="51.8752066" lon="14.648784">
  <ele>54.15</ele>
  <time>2026-08-28T17:53:37Z</time>
  <course>232.36</course>
  <speed>0.02</speed>
  <fix>3d</fix>
</trkpt>
<trkpt lat="51.8752066" lon="14.648784">
  <ele>54.15</ele>
  <time>2026-08-28T17:53:37Z</time>
  <course>0.0</course>
  <speed>0.0</speed>
  <fix>3d</fix>
</trkpt>
<trkpt lat="51.8752066" lon="14.648784">
  <ele>54.15</ele>
  <time>2026-08-28T17:53:37Z</time>
  <course>232.36</course>
  <speed>0.02</speed>
  <fix>3d</fix>
</trkpt>
<trkpt lat="51.8752066" lon="14.648784">
  <ele>54.15</ele>
  <time>2026-08-28T17:53:37Z</time>
  <course>0.0</course>
  <speed>0.0</speed>
  <fix>3d</fix>
</trkpt>
<trkpt lat="51.8752066" lon="14.648784">
  <ele>54.15</ele>
  <time>2026-08-28T17:53:37Z</time>
  <course>232.35</course>
  <speed>0.02</speed>
  <fix>3d</fix>
</trkpt>
<trkpt lat="51.8752066" lon="14.648784">
  <ele>54.15</ele>
  <time>2026-08-28T17:53:37Z</time>
  <course>0.0</course>
  <speed>0.0</speed>
  <fix>3d</fix>
</trkpt>
<trkpt lat="51.8752066" lon="14.648784">
  <ele>54.15</ele>
  <time>2026-08-28T17:53:37Z</time>
  <course>232.35</course>
  <speed>0.02</speed>
  <fix>3d</fix>
</trkpt>
<trkpt lat="51.8752066" lon="14.648784">
  <ele>54.15</ele>
  <time>2026-08-28T17:53:37Z</time>
  <course>0.0</course>
  <speed>0.0</speed>
  <fix>3d</fix>
</trkpt>
<trkpt lat="51.8752066" lon="14.648784">
  <ele>54.15</ele>
  <time>2026-08-28T17:53:37Z</time>
  <course>232.35</course>
  <speed>0.02</speed>
  <fix>3d</fix>
</trkpt>
<trkpt lat="51.8752066" lon="14.648784">
  <ele>54.15</ele>
  <time>2026-08-28T17:53:37Z</time>
  <course>0.0</course>
  <speed>0.0</speed>
  <fix>3d</fix>
</trkpt>
<trkpt lat="51.8752066" lon="14.648784">
  <ele>54.15</ele>
  <time>2026-08-28T17:53:37Z</time>
  <course>232.34</course>
  <speed>0.02</speed>
  <fix>3d</fix>
</trkpt>
<trkpt lat="51.8752066" lon="14.648784">
  <ele>54.15</ele>
  <time>2026-08-28T17:53:37Z</time>
  <course>0.0</course>
  <speed>0.0</speed>
  <fix>3d</fix>
</trkpt>
<trkpt lat="51.8752066" lon="14.648784">
  <ele>54.15</ele>
  <time>2026-08-28T17:53:37Z</time>
  <course>232.34</course>
  <speed>0.02</speed>
  <fix>3d</fix>
</trkpt>
<trkpt lat="51.8752066" lon="14.648784">
  <ele>54.15</ele>
  <time>2026-08-28T17:53:37Z</time>
  <course>0.0</course>
  <speed>0.0</speed>
  <fix>3d</fix>
</trkpt>
<trkpt lat="51.8752066" lon="14.648784">
  <ele>54.15</ele>
  <time>2026-08-28T17:53:37Z</time>
  <course>232.34</course>
  <speed>0.02</speed>
  <fix>3d</fix>
</trkpt>
<trkpt lat="51.8752066" lon="14.648784">
  <ele>54.15</ele>
  <time>2026-08-28T17:53:37Z</time>
  <course>0.0</course>
  <speed>0.0</speed>
  <fix>3d</fix>
</trkpt>
<trkpt lat="51.8752066" lon="14.648784">
  <ele>54.15</ele>
  <time>2026-08-28T17:53:37Z</time>
  <course>232.33</course>
  <speed>0.02</speed>
  <fix>3d</fix>
</trkpt>
<trkpt lat="51.8752066" lon="14.648784">
  <ele>54.15</ele>
  <time>2026-08-28T17:53:37Z</time>
  <course>0.0</course>
  <speed>0.0</speed>
  <fix>3d</fix>
</trkpt>
<trkpt lat="51.8752066" lon="14.648784">
  <ele>54.15</ele>
  <time>2026-08-28T17:53:37Z</time>
  <course>232.33</course>
  <speed>0.02</speed>
  <fix>3d</fix>
</trkpt>
<trkpt lat="51.8752066" lon="14.648784">
  <ele>54.15</ele>
  <time>2026-08-28T17:53:37Z</time>
  <course>0.0</course>
  <speed>0.0</speed>
  <fix>3d</fix>
</trkpt>
<trkpt lat="51.8752066" lon="14.648784">
  <ele>54.15</ele>
  <time>2026-08-28T17:53:37Z</time>
  <course>232.33</course>
  <speed>0.02</speed>
  <fix>3d</fix>
</trkpt>
<trkpt lat="51.8752066" lon="14.648784">
  <ele>54.15</ele>
  <time>2026-08-28T17:53:37Z</time>
  <course>0.0</course>
  <speed>0.0</speed>
  <fix>3d</fix>
</trkpt>
<trkpt lat="51.8752066" lon="14.648784">
  <ele>54.15</ele>
  <time>2026-08-28T17:53:38Z</time>
  <course>232.32</course>
  <speed>0.02</speed>
  <fix>3d</fix>
</trkpt>
<trkpt lat="51.8752066" lon="14.648784">
  <ele>54.15</ele>
  <time>2026-08-28T17:53:38Z</time>
  <course>0.0</course>
  <speed>0.0</speed>
  <fix>3d</fix>
</trkpt>
<trkpt lat="51.8752066" lon="14.648784">
  <ele>54.15</ele>
  <time>2026-08-28T17:53:38Z</time>
  <course>232.32</course>
  <speed>0.02</speed>
  <fix>3d</fix>
</trkpt>
<trkpt lat="51.8752066" lon="14.648784">
  <ele>54.15</ele>
  <time>2026-08-28T17:53:38Z</time>
  <course>0.0</course>
  <speed>0.0</speed>
  <fix>3d</fix>
</trkpt>
<trkpt lat="51.8752066" lon="14.648784">
  <ele>54.15</ele>
  <time>2026-08-28T17:53:38Z</time>
  <course>232.32</course>
  <speed>0.02</speed>
  <fix>3d</fix>
</trkpt>
<trkpt lat="51.8752066" lon="14.648784">
  <ele>54.15</ele>
  <time>2026-08-28T17:53:38Z</time>
  <course>0.0</course>
  <speed>0.0</speed>
  <fix>3d</fix>
</trkpt>
<trkpt lat="51.8752066" lon="14.648784">
  <ele>54.15</ele>
  <time>2026-08-28T17:53:38Z</time>
  <course>232.32</course>
  <speed>0.02</speed>
  <fix>3d</fix>
</trkpt>
<trkpt lat="51.8752066" lon="14.648784">
  <ele>54.15</ele>
  <time>2026-08-28T17:53:38Z</time>
  <course>0.0</course>
  <speed>0.0</speed>
  <fix>3d</fix>
</trkpt>
<trkpt lat="51.8752066" lon="14.648784">
  <ele>54.15</ele>
  <time>2026-08-28T17:53:38Z</time>
  <course>232.31</course>
  <speed>0.02</speed>
  <fix>3d</fix>
</trkpt>
<trkpt lat="51.8752066" lon="14.648784">
  <ele>54.15</ele>
  <time>2026-08-28T17:53:38Z</time>
  <course>0.0</course>
  <speed>0.0</speed>
  <fix>3d</fix>
</trkpt>
<trkpt lat="51.8752066" lon="14.648784">
  <ele>54.15</ele>
  <time>2026-08-28T17:53:38Z</time>
  <course>232.31</course>
  <speed>0.02</speed>
  <fix>3d</fix>
</trkpt>
<trkpt lat="51.8752066" lon="14.648784">
  <ele>54.15</ele>
  <time>2026-08-28T17:53:38Z</time>
  <course>0.0</course>
  <speed>0.0</speed>
  <fix>3d</fix>
</trkpt>
<trkpt lat="51.8752066" lon="14.648784">
  <ele>54.15</ele>
  <time>2026-08-28T17:53:38Z</time>
  <course>232.31</course>
  <speed>0.02</speed>
  <fix>3d</fix>
</trkpt>
<trkpt lat="51.8752066" lon="14.648784">
  <ele>54.15</ele>
  <time>2026-08-28T17:53:38Z</time>
  <course>0.0</course>
  <speed>0.0</speed>
  <fix>3d</fix>
</trkpt>
<trkpt lat="51.8752066" lon="14.648784">
  <ele>54.15</ele>
  <time>2026-08-28T17:53:38Z</time>
  <course>232.3</course>
  <speed>0.02</speed>
  <fix>3d</fix>
</trkpt>
<trkpt lat="51.8752066" lon="14.648784">
  <ele>54.15</ele>
  <time>2026-08-28T17:53:38Z</time>
  <course>0.0</course>
  <speed>0.0</speed>
  <fix>3d</fix>
</trkpt>
<trkpt lat="51.8752066" lon="14.648784">
  <ele>54.15</ele>
  <time>2026-08-28T17:53:38Z</time>
  <course>232.3</course>
  <speed>0.02</speed>
  <fix>3d</fix>
</trkpt>
<trkpt lat="51.8752066" lon="14.648784">
  <ele>54.15</ele>
  <time>2026-08-28T17:53:38Z</time>
  <course>0.0</course>
  <speed>0.0</speed>
  <fix>3d</fix>
</trkpt>
<trkpt lat="51.8752066" lon="14.648784">
  <ele>54.15</ele>
  <time>2026-08-28T17:53:38Z</time>
  <course>232.3</course>
  <speed>0.03</speed>
  <fix>3d</fix>
</trkpt>
<trkpt lat="51.8752066" lon="14.648784">
  <ele>54.15</ele>
  <time>2026-08-28T17:53:38Z</time>
  <course>0.0</course>
  <speed>0.0</speed>
  <fix>3d</fix>
</trkpt>
<trkpt lat="51.8752066" lon="14.648784">
  <ele>54.15</ele>
  <time>2026-08-28T17:53:38Z</time>
  <course>232.3</course>
  <speed>0.03</speed>
  <fix>3d</fix>
</trkpt>
<trkpt lat="51.8752066" lon="14.648784">
  <ele>54.15</ele>
  <time>2026-08-28T17:53:38Z</time>
  <course>0.0</course>
  <speed>0.0</speed>
  <fix>3d</fix>
</trkpt>
<trkpt lat="51.8752066" lon="14.648784">
  <ele>54.15</ele>
  <time>2026-08-28T17:53:38Z</time>
  <course>232.29</course>
  <speed>0.03</speed>
  <fix>3d</fix>
</trkpt>
<trkpt lat="51.8752066" lon="14.648784">
  <ele>54.15</ele>
  <time>2026-08-28T17:53:38Z</time>
  <course>0.0</course>
  <speed>0.0</speed>
  <fix>3d</fix>
</trkpt>
<trkpt lat="51.8752066" lon="14.648784">
  <ele>54.15</ele>
  <time>2026-08-28T17:53:38Z</time>
  <course>232.29</course>
  <speed>0.03</speed>
  <fix>3d</fix>
</trkpt>
<trkpt lat="51.8752066" lon="14.648784">
  <ele>54.15</ele>
  <time>2026-08-28T17:53:38Z</time>
  <course>0.0</course>
  <speed>0.0</speed>
  <fix>3d</fix>
</trkpt>
<trkpt lat="51.8752066" lon="14.648784">
  <ele>54.15</ele>
  <time>2026-08-28T17:53:38Z</time>
  <course>232.29</course>
  <speed>0.03</speed>
  <fix>3d</fix>
</trkpt>
<trkpt lat="51.8752066" lon="14.648784">
  <ele>54.15</ele>
  <time>2026-08-28T17:53:38Z</time>
  <course>0.0</course>
  <speed>0.0</speed>
  <fix>3d</fix>
</trkpt>
<trkpt lat="51.8752066" lon="14.648784">
  <ele>54.15</ele>
  <time>2026-08-28T17:53:38Z</time>
  <course>232.28</course>
  <speed>0.03</speed>
  <fix>3d</fix>
</trkpt>
<trkpt lat="51.8752066" lon="14.648784">
  <ele>54.15</ele>
  <time>2026-08-28T17:53:38Z</time>
  <course>0.0</course>
  <speed>0.0</speed>
  <fix>3d</fix>
</trkpt>
<trkpt lat="51.8752066" lon="14.648784">
  <ele>54.15</ele>
  <time>2026-08-28T17:53:38Z</time>
  <course>232.28</course>
  <speed>0.03</speed>
  <fix>3d</fix>
</trkpt>
<trkpt lat="51.8752066" lon="14.648784">
  <ele>54.15</ele>
  <time>2026-08-28T17:53:38Z</time>
  <course>0.0</course>
  <speed>0.0</speed>
  <fix>3d</fix>
</trkpt>
<trkpt lat="51.8752066" lon="14.648784">
  <ele>54.15</ele>
  <time>2026-08-28T17:53:38Z</time>
  <course>232.28</course>
  <speed>0.03</speed>
  <fix>3d</fix>
</trkpt>
<trkpt lat="51.8752066" lon="14.648784">
  <ele>54.15</ele>
  <time>2026-08-28T17:53:38Z</time>
  <course>0.0</course>
  <speed>0.0</speed>
  <fix>3d</fix>
</trkpt>
<trkpt lat="51.8752066" lon="14.648784">
  <ele>54.15</ele>
  <time>2026-08-28T17:53:38Z</time>
  <course>232.28</course>
  <speed>0.03</speed>
  <fix>3d</fix>
</trkpt>
<trkpt lat="51.8752066" lon="14.648784">
  <ele>54.15</ele>
  <time>2026-08-28T17:53:38Z</time>
  <course>0.0</course>
  <speed>0.0</speed>
  <fix>3d</fix>
</trkpt>
<trkpt lat="51.8752066" lon="14.648784">
  <ele>54.15</ele>
  <time>2026-08-28T17:53:38Z</time>
  <course>232.27</course>
  <speed>0.03</speed>
  <fix>3d</fix>
</trkpt>
<trkpt lat="51.8752066" lon="14.648784">
  <ele>54.15</ele>
  <time>2026-08-28T17:53:38Z</time>
  <course>0.0</course>
  <speed>0.0</speed>
  <fix>3d</fix>
</trkpt>
<trkpt lat="51.8752066" lon="14.648784">
  <ele>54.15</ele>
  <time>2026-08-28T17:53:38Z</time>
  <course>232.27</course>
  <speed>0.03</speed>
  <fix>3d</fix>
</trkpt>
<trkpt lat="51.8752066" lon="14.648784">
  <ele>54.15</ele>
  <time>2026-08-28T17:53:38Z</time>
  <course>0.0</course>
  <speed>0.0</speed>
  <fix>3d</fix>
</trkpt>
<trkpt lat="51.8752066" lon="14.648784">
  <ele>54.15</ele>
  <time>2026-08-28T17:53:38Z</time>
  <course>232.27</course>
  <speed>0.03</speed>
  <fix>3d</fix>
</trkpt>
<trkpt lat="51.8752066" lon="14.648784">
  <ele>54.15</ele>
  <time>2026-08-28T17:53:38Z</time>
  <course>0.0</course>
  <speed>0.0</speed>
  <fix>3d</fix>
</trkpt>
<trkpt lat="51.8752066" lon="14.648784">
  <ele>54.15</ele>
  <time>2026-08-28T17:53:38Z</time>
  <course>232.27</course>
  <speed>0.03</speed>
  <fix>3d</fix>
</trkpt>
<trkpt lat="51.8752066" lon="14.648784">
  <ele>54.15</ele>
  <time>2026-08-28T17:53:38Z</time>
  <course>0.0</course>
  <speed>0.0</speed>
  <fix>3d</fix>
</trkpt>
<trkpt lat="51.8752066" lon="14.648784">
  <ele>54.15</ele>
  <time>2026-08-28T17:53:39Z</time>
  <course>232.26</course>
  <speed>0.03</speed>
  <fix>3d</fix>
</trkpt>
<trkpt lat="51.8752066" lon="14.648784">
  <ele>54.15</ele>
  <time>2026-08-28T17:53:39Z</time>
  <course>0.0</course>
  <speed>0.0</speed>
  <fix>3d</fix>
</trkpt>
<trkpt lat="51.8752066" lon="14.648784">
  <ele>54.15</ele>
  <time>2026-08-28T17:53:39Z</time>
  <course>232.26</course>
  <speed>0.03</speed>
  <fix>3d</fix>
</trkpt>
<trkpt lat="51.8752066" lon="14.648784">
  <ele>54.15</ele>
  <time>2026-08-28T17:53:39Z</time>
  <course>0.0</course>
  <speed>0.0</speed>
  <fix>3d</fix>
</trkpt>
<trkpt lat="51.8752066" lon="14.648784">
  <ele>54.15</ele>
  <time>2026-08-28T17:53:39Z</time>
  <course>232.26</course>
  <speed>0.03</speed>
  <fix>3d</fix>
</trkpt>
<trkpt lat="51.8752066" lon="14.648784">
  <ele>54.15</ele>
  <time>2026-08-28T17:53:39Z</time>
  <course>0.0</course>
  <speed>0.0</speed>
  <fix>3d</fix>
</trkpt>
<trkpt lat="51.8752066" lon="14.648784">
  <ele>54.15</ele>
  <time>2026-08-28T17:53:39Z</time>
  <course>232.25</course>
  <speed>0.03</speed>
  <fix>3d</fix>
</trkpt>
<trkpt lat="51.8752066" lon="14.648784">
  <ele>54.15</ele>
  <time>2026-08-28T17:53:39Z</time>
  <course>0.0</course>
  <speed>0.0</speed>
  <fix>3d</fix>
</trkpt>
<trkpt lat="51.8752066" lon="14.648784">
  <ele>54.15</ele>
  <time>2026-08-28T17:53:39Z</time>
  <course>232.25</course>
  <speed>0.03</speed>
  <fix>3d</fix>
</trkpt>
<trkpt lat="51.8752066" lon="14.648784">
  <ele>54.15</ele>
  <time>2026-08-28T17:53:39Z</time>
  <course>0.0</course>
  <speed>0.0</speed>
  <fix>3d</fix>
</trkpt>
<trkpt lat="51.8752066" lon="14.648784">
  <ele>54.15</ele>
  <time>2026-08-28T17:53:39Z</time>
  <course>232.25</course>
  <speed>0.03</speed>
  <fix>3d</fix>
</trkpt>
<trkpt lat="51.8752066" lon="14.648784">
  <ele>54.15</ele>
  <time>2026-08-28T17:53:39Z</time>
  <course>0.0</course>
  <speed>0.0</speed>
  <fix>3d</fix>
</trkpt>
<trkpt lat="51.8752066" lon="14.648784">
  <ele>54.15</ele>
  <time>2026-08-28T17:53:39Z</time>
  <course>232.25</course>
  <speed>0.03</speed>
  <fix>3d</fix>
</trkpt>
<trkpt lat="51.8752066" lon="14.648784">
  <ele>54.15</ele>
  <time>2026-08-28T17:53:39Z</time>
  <course>0.0</course>
  <speed>0.0</speed>
  <fix>3d</fix>
</trkpt>
<trkpt lat="51.8752066" lon="14.648784">
  <ele>54.15</ele>
  <time>2026-08-28T17:53:39Z</time>
  <course>232.24</course>
  <speed>0.03</speed>
  <fix>3d</fix>
</trkpt>
<trkpt lat="51.8752066" lon="14.648784">
  <ele>54.15</ele>
  <time>2026-08-28T17:53:39Z</time>
  <course>0.0</course>
  <speed>0.0</speed>
  <fix>3d</fix>
</trkpt>
<trkpt lat="51.8752066" lon="14.648784">
  <ele>54.15</ele>
  <time>2026-08-28T17:53:39Z</time>
  <course>232.24</course>
  <speed>0.03</speed>
  <fix>3d</fix>
</trkpt>
<trkpt lat="51.8752066" lon="14.648784">
  <ele>54.15</ele>
  <time>2026-08-28T17:53:39Z</time>
  <course>0.0</course>
  <speed>0.0</speed>
  <fix>3d</fix>
</trkpt>
<trkpt lat="51.8752066" lon="14.648784">
  <ele>54.15</ele>
  <time>2026-08-28T17:53:39Z</time>
  <course>232.24</course>
  <speed>0.03</speed>
  <fix>3d</fix>
</trkpt>
<trkpt lat="51.8752066" lon="14.648784">
  <ele>54.15</ele>
  <time>2026-08-28T17:53:39Z</time>
  <course>0.0</course>
  <speed>0.0</speed>
  <fix>3d</fix>
</trkpt>
<trkpt lat="51.8752066" lon="14.648784">
  <ele>54.15</ele>
  <time>2026-08-28T17:53:39Z</time>
  <course>232.24</course>
  <speed>0.03</speed>
  <fix>3d</fix>
</trkpt>
<trkpt lat="51.8752066" lon="14.648784">
  <ele>54.15</ele>
  <time>2026-08-28T17:53:39Z</time>
  <course>0.0</course>
  <speed>0.0</speed>
  <fix>3d</fix>
</trkpt>
<trkpt lat="51.8752066" lon="14.648784">
  <ele>54.15</ele>
  <time>2026-08-28T17:53:39Z</time>
  <course>232.23</course>
  <speed>0.03</speed>
  <fix>3d</fix>
</trkpt>
<trkpt lat="51.8752066" lon="14.648784">
  <ele>54.15</ele>
  <time>2026-08-28T17:53:39Z</time>
  <course>0.0</course>
  <speed>0.0</speed>
  <fix>3d</fix>
</trkpt>
<trkpt lat="51.8752066" lon="14.648784">
  <ele>54.15</ele>
  <time>2026-08-28T17:53:39Z</time>
  <course>232.23</course>
  <speed>0.03</speed>
  <fix>3d</fix>
</trkpt>
<trkpt lat="51.8752066" lon="14.648784">
  <ele>54.15</ele>
  <time>2026-08-28T17:53:39Z</time>
  <course>0.0</course>
  <speed>0.0</speed>
  <fix>3d</fix>
</trkpt>
<trkpt lat="51.8752066" lon="14.648784">
  <ele>54.15</ele>
  <time>2026-08-28T17:53:39Z</time>
  <course>232.23</course>
  <speed>0.03</speed>
  <fix>3d</fix>
</trkpt>
<trkpt lat="51.8752066" lon="14.648784">
  <ele>54.15</ele>
  <time>2026-08-28T17:53:39Z</time>
  <course>0.0</course>
  <speed>0.0</speed>
  <fix>3d</fix>
</trkpt>
<trkpt lat="51.8752066" lon="14.648784">
  <ele>54.15</ele>
  <time>2026-08-28T17:53:39Z</time>
  <course>232.23</course>
  <speed>0.03</speed>
  <fix>3d</fix>
</trkpt>
<trkpt lat="51.8752066" lon="14.648784">
  <ele>54.15</ele>
  <time>2026-08-28T17:53:39Z</time>
  <course>0.0</course>
  <speed>0.0</speed>
  <fix>3d</fix>
</trkpt>
<trkpt lat="51.8752066" lon="14.648784">
  <ele>54.15</ele>
  <time>2026-08-28T17:53:39Z</time>
  <course>232.22</course>
  <speed>0.03</speed>
  <fix>3d</fix>
</trkpt>
<trkpt lat="51.8752066" lon="14.648784">
  <ele>54.15</ele>
  <time>2026-08-28T17:53:39Z</time>
  <course>0.0</course>
  <speed>0.0</speed>
  <fix>3d</fix>
</trkpt>
<trkpt lat="51.8752066" lon="14.648784">
  <ele>54.15</ele>
  <time>2026-08-28T17:53:39Z</time>
  <course>232.22</course>
  <speed>0.03</speed>
  <fix>3d</fix>
</trkpt>
<trkpt lat="51.8752066" lon="14.648784">
  <ele>54.15</ele>
  <time>2026-08-28T17:53:39Z</time>
  <course>0.0</course>
  <speed>0.0</speed>
  <fix>3d</fix>
</trkpt>
<trkpt lat="51.8752066" lon="14.648784">
  <ele>54.15</ele>
  <time>2026-08-28T17:53:39Z</time>
  <course>232.22</course>
  <speed>0.03</speed>
  <fix>3d</fix>
</trkpt>
<trkpt lat="51.8752066" lon="14.648784">
  <ele>54.15</ele>
  <time>2026-08-28T17:53:39Z</time>
  <course>0.0</course>
  <speed>0.0</speed>
  <fix>3d</fix>
</trkpt>
<trkpt lat="51.8752066" lon="14.648784">
  <ele>54.15</ele>
  <time>2026-08-28T17:53:39Z</time>
  <course>232.22</course>
  <speed>0.03</speed>
  <fix>3d</fix>
</trkpt>
<trkpt lat="51.8752066" lon="14.648784">
  <ele>54.15</ele>
  <time>2026-08-28T17:53:39Z</time>
  <course>0.0</course>
  <speed>0.0</speed>
  <fix>3d</fix>
</trkpt>
<trkpt lat="51.8752066" lon="14.648784">
  <ele>54.15</ele>
  <time>2026-08-28T17:53:39Z</time>
  <course>232.21</course>
  <speed>0.03</speed>
  <fix>3d</fix>
</trkpt>
<trkpt lat="51.8752066" lon="14.648784">
  <ele>54.15</ele>
  <time>2026-08-28T17:53:39Z</time>
  <course>0.0</course>
  <speed>0.0</speed>
  <fix>3d</fix>
</trkpt>
<trkpt lat="51.8752066" lon="14.648784">
  <ele>54.15</ele>
  <time>2026-08-28T17:53:39Z</time>
  <course>232.21</course>
  <speed>0.03</speed>
  <fix>3d</fix>
</trkpt>
<trkpt lat="51.8752066" lon="14.648784">
  <ele>54.15</ele>
  <time>2026-08-28T17:53:39Z</time>
  <course>0.0</course>
  <speed>0.0</speed>
  <fix>3d</fix>
</trkpt>
<trkpt lat="51.8752066" lon="14.648784">
  <ele>54.15</ele>
  <time>2026-08-28T17:53:39Z</time>
  <course>232.21</course>
  <speed>0.03</speed>
  <fix>3d</fix>
</trkpt>
<trkpt lat="51.8752066" lon="14.648784">
  <ele>54.15</ele>
  <time>2026-08-28T17:53:39Z</time>
  <course>0.0</course>
  <speed>0.0</speed>
  <fix>3d</fix>
</trkpt>
<trkpt lat="51.8752066" lon="14.648784">
  <ele>54.15</ele>
  <time>2026-08-28T17:53:40Z</time>
  <course>232.21</course>
  <speed>0.03</speed>
  <fix>3d</fix>
</trkpt>
<trkpt lat="51.8752066" lon="14.648784">
  <ele>54.15</ele>
  <time>2026-08-28T17:53:40Z</time>
  <course>0.0</course>
  <speed>0.0</speed>
  <fix>3d</fix>
</trkpt>
<trkpt lat="51.8752066" lon="14.648784">
  <ele>54.15</ele>
  <time>2026-08-28T17:53:40Z</time>
  <course>232.2</course>
  <speed>0.03</speed>
  <fix>3d</fix>
</trkpt>
<trkpt lat="51.8752066" lon="14.648784">
  <ele>54.15</ele>
  <time>2026-08-28T17:53:40Z</time>
  <course>0.0</course>
  <speed>0.0</speed>
  <fix>3d</fix>
</trkpt>
<trkpt lat="51.8752066" lon="14.648784">
  <ele>54.15</ele>
  <time>2026-08-28T17:53:40Z</time>
  <course>232.2</course>
  <speed>0.03</speed>
  <fix>3d</fix>
</trkpt>
<trkpt lat="51.8752066" lon="14.648784">
  <ele>54.15</ele>
  <time>2026-08-28T17:53:40Z</time>
  <course>0.0</course>
  <speed>0.0</speed>
  <fix>3d</fix>
</trkpt>
<trkpt lat="51.8752066" lon="14.648784">
  <ele>54.15</ele>
  <time>2026-08-28T17:53:40Z</time>
  <course>232.2</course>
  <speed>0.03</speed>
  <fix>3d</fix>
</trkpt>
<trkpt lat="51.8752066" lon="14.648784">
  <ele>54.15</ele>
  <time>2026-08-28T17:53:40Z</time>
  <course>0.0</course>
  <speed>0.0</speed>
  <fix>3d</fix>
</trkpt>
<trkpt lat="51.8752066" lon="14.648784">
  <ele>54.15</ele>
  <time>2026-08-28T17:53:40Z</time>
  <course>232.2</course>
  <speed>0.03</speed>
  <fix>3d</fix>
</trkpt>
<trkpt lat="51.8752066" lon="14.648784">
  <ele>54.15</ele>
  <time>2026-08-28T17:53:40Z</time>
  <course>0.0</course>
  <speed>0.0</speed>
  <fix>3d</fix>
</trkpt>
<trkpt lat="51.8752066" lon="14.648784">
  <ele>54.15</ele>
  <time>2026-08-28T17:53:40Z</time>
  <course>232.19</course>
  <speed>0.03</speed>
  <fix>3d</fix>
</trkpt>
<trkpt lat="51.8752066" lon="14.648784">
  <ele>54.15</ele>
  <time>2026-08-28T17:53:40Z</time>
  <course>0.0</course>
  <speed>0.0</speed>
  <fix>3d</fix>
</trkpt>
<trkpt lat="51.8752066" lon="14.648784">
  <ele>54.15</ele>
  <time>2026-08-28T17:53:40Z</time>
  <course>232.19</course>
  <speed>0.03</speed>
  <fix>3d</fix>
</trkpt>
<trkpt lat="51.8752066" lon="14.648784">
  <ele>54.15</ele>
  <time>2026-08-28T17:53:40Z</time>
  <course>0.0</course>
  <speed>0.0</speed>
  <fix>3d</fix>
</trkpt>
<trkpt lat="51.8752066" lon="14.648784">
  <ele>54.15</ele>
  <time>2026-08-28T17:53:40Z</time>
  <course>232.19</course>
  <speed>0.03</speed>
  <fix>3d</fix>
</trkpt>
<trkpt lat="51.8752066" lon="14.648784">
  <ele>54.15</ele>
  <time>2026-08-28T17:53:40Z</time>
  <course>0.0</course>
  <speed>0.0</speed>
  <fix>3d</fix>
</trkpt>
<trkpt lat="51.8752066" lon="14.648784">
  <ele>54.15</ele>
  <time>2026-08-28T17:53:40Z</time>
  <course>232.19</course>
  <speed>0.03</speed>
  <fix>3d</fix>
</trkpt>
<trkpt lat="51.8752066" lon="14.648784">
  <ele>54.15</ele>
  <time>2026-08-28T17:53:40Z</time>
  <course>0.0</course>
  <speed>0.0</speed>
  <fix>3d</fix>
</trkpt>
<trkpt lat="51.8752066" lon="14.648784">
  <ele>54.15</ele>
  <time>2026-08-28T17:53:40Z</time>
  <course>232.18</course>
  <speed>0.03</speed>
  <fix>3d</fix>
</trkpt>
<trkpt lat="51.8752066" lon="14.648784">
  <ele>54.15</ele>
  <time>2026-08-28T17:53:40Z</time>
  <course>0.0</course>
  <speed>0.0</speed>
  <fix>3d</fix>
</trkpt>
<trkpt lat="51.8752066" lon="14.648784">
  <ele>54.15</ele>
  <time>2026-08-28T17:53:40Z</time>
  <course>232.18</course>
  <speed>0.03</speed>
  <fix>3d</fix>
</trkpt>
<trkpt lat="51.8752066" lon="14.648784">
  <ele>54.15</ele>
  <time>2026-08-28T17:53:40Z</time>
  <course>0.0</course>
  <speed>0.0</speed>
  <fix>3d</fix>
</trkpt>
<trkpt lat="51.8752066" lon="14.648784">
  <ele>54.15</ele>
  <time>2026-08-28T17:53:40Z</time>
  <course>232.18</course>
  <speed>0.03</speed>
  <fix>3d</fix>
</trkpt>
<trkpt lat="51.8752066" lon="14.648784">
  <ele>54.15</ele>
  <time>2026-08-28T17:53:40Z</time>
  <course>0.0</course>
  <speed>0.0</speed>
  <fix>3d</fix>
</trkpt>
<trkpt lat="51.8752066" lon="14.648784">
  <ele>54.15</ele>
  <time>2026-08-28T17:53:40Z</time>
  <course>232.18</course>
  <speed>0.03</speed>
  <fix>3d</fix>
</trkpt>
<trkpt lat="51.8752066" lon="14.648784">
  <ele>54.15</ele>
  <time>2026-08-28T17:53:40Z</time>
  <course>0.0</course>
  <speed>0.0</speed>
  <fix>3d</fix>
</trkpt>
<trkpt lat="51.8752066" lon="14.648784">
  <ele>54.15</ele>
  <time>2026-08-28T17:53:40Z</time>
  <course>232.18</course>
  <speed>0.03</speed>
  <fix>3d</fix>
</trkpt>
<trkpt lat="51.8752066" lon="14.648784">
  <ele>54.15</ele>
  <time>2026-08-28T17:53:40Z</time>
  <course>0.0</course>
  <speed>0.0</speed>
  <fix>3d</fix>
</trkpt>
<trkpt lat="51.8752066" lon="14.648784">
  <ele>54.15</ele>
  <time>2026-08-28T17:53:40Z</time>
  <course>232.17</course>
  <speed>0.03</speed>
  <fix>3d</fix>
</trkpt>
<trkpt lat="51.8752066" lon="14.648784">
  <ele>54.15</ele>
  <time>2026-08-28T17:53:40Z</time>
  <course>0.0</course>
  <speed>0.0</speed>
  <fix>3d</fix>
</trkpt>
<trkpt lat="51.8752066" lon="14.648784">
  <ele>54.15</ele>
  <time>2026-08-28T17:53:40Z</time>
  <course>232.17</course>
  <speed>0.03</speed>
  <fix>3d</fix>
</trkpt>
<trkpt lat="51.8752066" lon="14.648784">
  <ele>54.15</ele>
  <time>2026-08-28T17:53:40Z</time>
  <course>0.0</course>
  <speed>0.0</speed>
  <fix>3d</fix>
</trkpt>
<trkpt lat="51.8752066" lon="14.648784">
  <ele>54.15</ele>
  <time>2026-08-28T17:53:40Z</time>
  <course>232.17</course>
  <speed>0.03</speed>
  <fix>3d</fix>
</trkpt>
<trkpt lat="51.8752066" lon="14.648784">
  <ele>54.15</ele>
  <time>2026-08-28T17:53:40Z</time>
  <course>0.0</course>
  <speed>0.0</speed>
  <fix>3d</fix>
</trkpt>
<trkpt lat="51.8752066" lon="14.648784">
  <ele>54.15</ele>
  <time>2026-08-28T17:53:40Z</time>
  <course>232.17</course>
  <speed>0.03</speed>
  <fix>3d</fix>
</trkpt>
<trkpt lat="51.8752066" lon="14.648784">
  <ele>54.15</ele>
  <time>2026-08-28T17:53:40Z</time>
  <course>0.0</course>
  <speed>0.0</speed>
  <fix>3d</fix>
</trkpt>
<trkpt lat="51.8752066" lon="14.648784">
  <ele>54.15</ele>
  <time>2026-08-28T17:53:40Z</time>
  <course>232.16</course>
  <speed>0.03</speed>
  <fix>3d</fix>
</trkpt>
<trkpt lat="51.8752066" lon="14.648784">
  <ele>54.15</ele>
  <time>2026-08-28T17:53:40Z</time>
  <course>0.0</course>
  <speed>0.0</speed>
  <fix>3d</fix>
</trkpt>
<trkpt lat="51.8752066" lon="14.648784">
  <ele>54.15</ele>
  <time>2026-08-28T17:53:40Z</time>
  <course>232.16</course>
  <speed>0.03</speed>
  <fix>3d</fix>
</trkpt>
<trkpt lat="51.8752066" lon="14.648784">
  <ele>54.15</ele>
  <time>2026-08-28T17:53:40Z</time>
  <course>0.0</course>
  <speed>0.0</speed>
  <fix>3d</fix>
</trkpt>
<trkpt lat="51.8752066" lon="14.648784">
  <ele>54.15</ele>
  <time>2026-08-28T17:53:40Z</time>
  <course>232.16</course>
  <speed>0.03</speed>
  <fix>3d</fix>
</trkpt>
<trkpt lat="51.8752066" lon="14.648784">
  <ele>54.15</ele>
  <time>2026-08-28T17:53:40Z</time>
  <course>0.0</course>
  <speed>0.0</speed>
  <fix>3d</fix>
</trkpt>
<trkpt lat="51.8752066" lon="14.648784">
  <ele>54.15</ele>
  <time>2026-08-28T17:53:40Z</time>
  <course>232.16</course>
  <speed>0.03</speed>
  <fix>3d</fix>
</trkpt>
<trkpt lat="51.8752066" lon="14.648784">
  <ele>54.15</ele>
  <time>2026-08-28T17:53:40Z</time>
  <course>0.0</course>
  <speed>0.0</speed>
  <fix>3d</fix>
</trkpt>
<trkpt lat="51.8752066" lon="14.648784">
  <ele>54.15</ele>
  <time>2026-08-28T17:53:41Z</time>
  <course>232.15</course>
  <speed>0.03</speed>
  <fix>3d</fix>
</trkpt>
<trkpt lat="51.8752066" lon="14.648784">
  <ele>54.15</ele>
  <time>2026-08-28T17:53:41Z</time>
  <course>0.0</course>
  <speed>0.0</speed>
  <fix>3d</fix>
</trkpt>
<trkpt lat="51.8752066" lon="14.648784">
  <ele>54.15</ele>
  <time>2026-08-28T17:53:41Z</time>
  <course>232.15</course>
  <speed>0.03</speed>
  <fix>3d</fix>
</trkpt>
<trkpt lat="51.8752066" lon="14.648784">
  <ele>54.15</ele>
  <time>2026-08-28T17:53:41Z</time>
  <course>0.0</course>
  <speed>0.0</speed>
  <fix>3d</fix>
</trkpt>
<trkpt lat="51.8752066" lon="14.648784">
  <ele>54.15</ele>
  <time>2026-08-28T17:53:41Z</time>
  <course>232.15</course>
  <speed>0.03</speed>
  <fix>3d</fix>
</trkpt>
<trkpt lat="51.8752066" lon="14.648784">
  <ele>54.15</ele>
  <time>2026-08-28T17:53:41Z</time>
  <course>0.0</course>
  <speed>0.0</speed>
  <fix>3d</fix>
</trkpt>
<trkpt lat="51.8752066" lon="14.648784">
  <ele>54.15</ele>
  <time>2026-08-28T17:53:41Z</time>
  <course>232.15</course>
  <speed>0.03</speed>
  <fix>3d</fix>
</trkpt>
<trkpt lat="51.8752066" lon="14.648784">
  <ele>54.15</ele>
  <time>2026-08-28T17:53:41Z</time>
  <course>0.0</course>
  <speed>0.0</speed>
  <fix>3d</fix>
</trkpt>
<trkpt lat="51.8752066" lon="14.648784">
  <ele>54.15</ele>
  <time>2026-08-28T17:53:41Z</time>
  <course>232.15</course>
  <speed>0.03</speed>
  <fix>3d</fix>
</trkpt>
<trkpt lat="51.8752066" lon="14.648784">
  <ele>54.15</ele>
  <time>2026-08-28T17:53:41Z</time>
  <course>0.0</course>
  <speed>0.0</speed>
  <fix>3d</fix>
</trkpt>
<trkpt lat="51.8752066" lon="14.648784">
  <ele>54.15</ele>
  <time>2026-08-28T17:53:41Z</time>
  <course>232.14</course>
  <speed>0.03</speed>
  <fix>3d</fix>
</trkpt>
<trkpt lat="51.8752066" lon="14.648784">
  <ele>54.15</ele>
  <time>2026-08-28T17:53:41Z</time>
  <course>0.0</course>
  <speed>0.0</speed>
  <fix>3d</fix>
</trkpt>
<trkpt lat="51.8752066" lon="14.648784">
  <ele>54.15</ele>
  <time>2026-08-28T17:53:41Z</time>
  <course>232.14</course>
  <speed>0.03</speed>
  <fix>3d</fix>
</trkpt>
<trkpt lat="51.8752066" lon="14.648784">
  <ele>54.15</ele>
  <time>2026-08-28T17:53:41Z</time>
  <course>0.0</course>
  <speed>0.0</speed>
  <fix>3d</fix>
</trkpt>
<trkpt lat="51.8752066" lon="14.648784">
  <ele>54.15</ele>
  <time>2026-08-28T17:53:41Z</time>
  <course>232.14</course>
  <speed>0.03</speed>
  <fix>3d</fix>
</trkpt>
<trkpt lat="51.8752066" lon="14.648784">
  <ele>54.15</ele>
  <time>2026-08-28T17:53:41Z</time>
  <course>0.0</course>
  <speed>0.0</speed>
  <fix>3d</fix>
</trkpt>
<trkpt lat="51.8752066" lon="14.648784">
  <ele>54.15</ele>
  <time>2026-08-28T17:53:41Z</time>
  <course>232.14</course>
  <speed>0.03</speed>
  <fix>3d</fix>
</trkpt>
<trkpt lat="51.8752066" lon="14.648784">
  <ele>54.15</ele>
  <time>2026-08-28T17:53:41Z</time>
  <course>0.0</course>
  <speed>0.0</speed>
  <fix>3d</fix>
</trkpt>
<trkpt lat="51.8752066" lon="14.648784">
  <ele>54.15</ele>
  <time>2026-08-28T17:53:41Z</time>
  <course>232.13</course>
  <speed>0.03</speed>
  <fix>3d</fix>
</trkpt>
<trkpt lat="51.8752066" lon="14.648784">
  <ele>54.15</ele>
  <time>2026-08-28T17:53:41Z</time>
  <course>0.0</course>
  <speed>0.0</speed>
  <fix>3d</fix>
</trkpt>
<trkpt lat="51.8752066" lon="14.648784">
  <ele>54.15</ele>
  <time>2026-08-28T17:53:41Z</time>
  <course>232.13</course>
  <speed>0.03</speed>
  <fix>3d</fix>
</trkpt>
<trkpt lat="51.8752066" lon="14.648784">
  <ele>54.15</ele>
  <time>2026-08-28T17:53:41Z</time>
  <course>0.0</course>
  <speed>0.0</speed>
  <fix>3d</fix>
</trkpt>
<trkpt lat="51.8752066" lon="14.648784">
  <ele>54.15</ele>
  <time>2026-08-28T17:53:41Z</time>
  <course>232.13</course>
  <speed>0.03</speed>
  <fix>3d</fix>
</trkpt>
<trkpt lat="51.8752066" lon="14.648784">
  <ele>54.15</ele>
  <time>2026-08-28T17:53:41Z</time>
  <course>0.0</course>
  <speed>0.0</speed>
  <fix>3d</fix>
</trkpt>
<trkpt lat="51.8752066" lon="14.648784">
  <ele>54.15</ele>
  <time>2026-08-28T17:53:41Z</time>
  <course>232.13</course>
  <speed>0.03</speed>
  <fix>3d</fix>
</trkpt>
<trkpt lat="51.8752066" lon="14.648784">
  <ele>54.15</ele>
  <time>2026-08-28T17:53:41Z</time>
  <course>0.0</course>
  <speed>0.0</speed>
  <fix>3d</fix>
</trkpt>
<trkpt lat="51.8752066" lon="14.648784">
  <ele>54.15</ele>
  <time>2026-08-28T17:53:41Z</time>
  <course>232.13</course>
  <speed>0.03</speed>
  <fix>3d</fix>
</trkpt>
<trkpt lat="51.8752066" lon="14.648784">
  <ele>54.15</ele>
  <time>2026-08-28T17:53:41Z</time>
  <course>0.0</course>
  <speed>0.0</speed>
  <fix>3d</fix>
</trkpt>
<trkpt lat="51.8752066" lon="14.648784">
  <ele>54.15</ele>
  <time>2026-08-28T17:53:41Z</time>
  <course>232.12</course>
  <speed>0.03</speed>
  <fix>3d</fix>
</trkpt>
<trkpt lat="51.8752066" lon="14.648784">
  <ele>54.15</ele>
  <time>2026-08-28T17:53:41Z</time>
  <course>0.0</course>
  <speed>0.0</speed>
  <fix>3d</fix>
</trkpt>
<trkpt lat="51.8752066" lon="14.648784">
  <ele>54.15</ele>
  <time>2026-08-28T17:53:41Z</time>
  <course>232.12</course>
  <speed>0.03</speed>
  <fix>3d</fix>
</trkpt>
<trkpt lat="51.8752066" lon="14.648784">
  <ele>54.15</ele>
  <time>2026-08-28T17:53:41Z</time>
  <course>0.0</course>
  <speed>0.0</speed>
  <fix>3d</fix>
</trkpt>
<trkpt lat="51.8752066" lon="14.648784">
  <ele>54.15</ele>
  <time>2026-08-28T17:53:41Z</time>
  <course>232.12</course>
  <speed>0.03</speed>
  <fix>3d</fix>
</trkpt>
<trkpt lat="51.8752066" lon="14.648784">
  <ele>54.15</ele>
  <time>2026-08-28T17:53:41Z</time>
  <course>0.0</course>
  <speed>0.0</speed>
  <fix>3d</fix>
</trkpt>
<trkpt lat="51.8752066" lon="14.648784">
  <ele>54.15</ele>
  <time>2026-08-28T17:53:41Z</time>
  <course>232.12</course>
  <speed>0.03</speed>
  <fix>3d</fix>
</trkpt>
<trkpt lat="51.8752066" lon="14.648784">
  <ele>54.15</ele>
  <time>2026-08-28T17:53:41Z</time>
  <course>0.0</course>
  <speed>0.0</speed>
  <fix>3d</fix>
</trkpt>
<trkpt lat="51.8752066" lon="14.648784">
  <ele>54.15</ele>
  <time>2026-08-28T17:53:41Z</time>
  <course>232.12</course>
  <speed>0.03</speed>
  <fix>3d</fix>
</trkpt>
<trkpt lat="51.8752066" lon="14.648784">
  <ele>54.15</ele>
  <time>2026-08-28T17:53:41Z</time>
  <course>0.0</course>
  <speed>0.0</speed>
  <fix>3d</fix>
</trkpt>
<trkpt lat="51.8752066" lon="14.648784">
  <ele>54.15</ele>
  <time>2026-08-28T17:53:41Z</time>
  <course>232.11</course>
  <speed>0.03</speed>
  <fix>3d</fix>
</trkpt>
<trkpt lat="51.8752066" lon="14.648784">
  <ele>54.15</ele>
  <time>2026-08-28T17:53:41Z</time>
  <course>0.0</course>
  <speed>0.0</speed>
  <fix>3d</fix>
</trkpt>
<trkpt lat="51.8752066" lon="14.648784">
  <ele>54.15</ele>
  <time>2026-08-28T17:53:41Z</time>
  <course>232.11</course>
  <speed>0.03</speed>
  <fix>3d</fix>
</trkpt>
<trkpt lat="51.8752066" lon="14.648784">
  <ele>54.15</ele>
  <time>2026-08-28T17:53:41Z</time>
  <course>0.0</course>
  <speed>0.0</speed>
  <fix>3d</fix>
</trkpt>
<trkpt lat="51.8752066" lon="14.648784">
  <ele>54.15</ele>
  <time>2026-08-28T17:53:41Z</time>
  <course>232.11</course>
  <speed>0.04</speed>
  <fix>3d</fix>
</trkpt>
<trkpt lat="51.8752066" lon="14.648784">
  <ele>54.15</ele>
  <time>2026-08-28T17:53:41Z</time>
  <course>0.0</course>
  <speed>0.0</speed>
  <fix>3d</fix>
</trkpt>
<trkpt lat="51.8752066" lon="14.648784">
  <ele>54.15</ele>
  <time>2026-08-28T17:53:42Z</time>
  <course>232.11</course>
  <speed>0.04</speed>
  <fix>3d</fix>
</trkpt>
<trkpt lat="51.8752066" lon="14.648784">
  <ele>54.15</ele>
  <time>2026-08-28T17:53:42Z</time>
  <course>0.0</course>
  <speed>0.0</speed>
  <fix>3d</fix>
</trkpt>
<trkpt lat="51.8752066" lon="14.648784">
  <ele>54.15</ele>
  <time>2026-08-28T17:53:42Z</time>
  <course>232.1</course>
  <speed>0.04</speed>
  <fix>3d</fix>
</trkpt>
<trkpt lat="51.8752066" lon="14.648784">
  <ele>54.15</ele>
  <time>2026-08-28T17:53:42Z</time>
  <course>0.0</course>
  <speed>0.0</speed>
  <fix>3d</fix>
</trkpt>
<trkpt lat="51.8752066" lon="14.648784">
  <ele>54.15</ele>
  <time>2026-08-28T17:53:42Z</time>
  <course>232.1</course>
  <speed>0.04</speed>
  <fix>3d</fix>
</trkpt>
<trkpt lat="51.8752066" lon="14.648784">
  <ele>54.15</ele>
  <time>2026-08-28T17:53:42Z</time>
  <course>0.0</course>
  <speed>0.0</speed>
  <fix>3d</fix>
</trkpt>
<trkpt lat="51.8752066" lon="14.648784">
  <ele>54.15</ele>
  <time>2026-08-28T17:53:42Z</time>
  <course>232.1</course>
  <speed>0.04</speed>
  <fix>3d</fix>
</trkpt>
<trkpt lat="51.8752066" lon="14.648784">
  <ele>54.15</ele>
  <time>2026-08-28T17:53:42Z</time>
  <course>0.0</course>
  <speed>0.0</speed>
  <fix>3d</fix>
</trkpt>
<trkpt lat="51.8752066" lon="14.648784">
  <ele>54.15</ele>
  <time>2026-08-28T17:53:42Z</time>
  <course>232.1</course>
  <speed>0.04</speed>
  <fix>3d</fix>
</trkpt>
<trkpt lat="51.8752066" lon="14.648784">
  <ele>54.15</ele>
  <time>2026-08-28T17:53:42Z</time>
  <course>0.0</course>
  <speed>0.0</speed>
  <fix>3d</fix>
</trkpt>
<trkpt lat="51.8752066" lon="14.648784">
  <ele>54.15</ele>
  <time>2026-08-28T17:53:42Z</time>
  <course>232.1</course>
  <speed>0.04</speed>
  <fix>3d</fix>
</trkpt>
<trkpt lat="51.8752066" lon="14.648784">
  <ele>54.15</ele>
  <time>2026-08-28T17:53:42Z</time>
  <course>0.0</course>
  <speed>0.0</speed>
  <fix>3d</fix>
</trkpt>
<trkpt lat="51.8752066" lon="14.648784">
  <ele>54.15</ele>
  <time>2026-08-28T17:53:42Z</time>
  <course>232.09</course>
  <speed>0.04</speed>
  <fix>3d</fix>
</trkpt>
<trkpt lat="51.8752066" lon="14.648784">
  <ele>54.15</ele>
  <time>2026-08-28T17:53:42Z</time>
  <course>0.0</course>
  <speed>0.0</speed>
  <fix>3d</fix>
</trkpt>
<trkpt lat="51.8752066" lon="14.648784">
  <ele>54.15</ele>
  <time>2026-08-28T17:53:42Z</time>
  <course>232.09</course>
  <speed>0.04</speed>
  <fix>3d</fix>
</trkpt>
<trkpt lat="51.8752066" lon="14.648784">
  <ele>54.15</ele>
  <time>2026-08-28T17:53:42Z</time>
  <course>0.0</course>
  <speed>0.0</speed>
  <fix>3d</fix>
</trkpt>
<trkpt lat="51.8752066" lon="14.648784">
  <ele>54.15</ele>
  <time>2026-08-28T17:53:42Z</time>
  <course>232.09</course>
  <speed>0.04</speed>
  <fix>3d</fix>
</trkpt>
<trkpt lat="51.8752066" lon="14.648784">
  <ele>54.15</ele>
  <time>2026-08-28T17:53:42Z</time>
  <course>0.0</course>
  <speed>0.0</speed>
  <fix>3d</fix>
</trkpt>
<trkpt lat="51.8752066" lon="14.648784">
  <ele>54.15</ele>
  <time>2026-08-28T17:53:42Z</time>
  <course>232.09</course>
  <speed>0.04</speed>
  <fix>3d</fix>
</trkpt>
<trkpt lat="51.8752066" lon="14.648784">
  <ele>54.15</ele>
  <time>2026-08-28T17:53:42Z</time>
  <course>0.0</course>
  <speed>0.0</speed>
  <fix>3d</fix>
</trkpt>
<trkpt lat="51.8752066" lon="14.648784">
  <ele>54.15</ele>
  <time>2026-08-28T17:53:42Z</time>
  <course>232.09</course>
  <speed>0.04</speed>
  <fix>3d</fix>
</trkpt>
<trkpt lat="51.8752066" lon="14.648784">
  <ele>54.15</ele>
  <time>2026-08-28T17:53:42Z</time>
  <course>0.0</course>
  <speed>0.0</speed>
  <fix>3d</fix>
</trkpt>
<trkpt lat="51.8752066" lon="14.648784">
  <ele>54.15</ele>
  <time>2026-08-28T17:53:42Z</time>
  <course>232.09</course>
  <speed>0.04</speed>
  <fix>3d</fix>
</trkpt>
<trkpt lat="51.8752066" lon="14.648784">
  <ele>54.15</ele>
  <time>2026-08-28T17:53:42Z</time>
  <course>0.0</course>
  <speed>0.0</speed>
  <fix>3d</fix>
</trkpt>
<trkpt lat="51.8752066" lon="14.648784">
  <ele>54.15</ele>
  <time>2026-08-28T17:53:42Z</time>
  <course>232.08</course>
  <speed>0.04</speed>
  <fix>3d</fix>
</trkpt>
<trkpt lat="51.8752066" lon="14.648784">
  <ele>54.15</ele>
  <time>2026-08-28T17:53:42Z</time>
  <course>0.0</course>
  <speed>0.0</speed>
  <fix>3d</fix>
</trkpt>
<trkpt lat="51.8752066" lon="14.648784">
  <ele>54.15</ele>
  <time>2026-08-28T17:53:42Z</time>
  <course>232.08</course>
  <speed>0.04</speed>
  <fix>3d</fix>
</trkpt>
<trkpt lat="51.8752066" lon="14.648784">
  <ele>54.15</ele>
  <time>2026-08-28T17:53:42Z</time>
  <course>0.0</course>
  <speed>0.0</speed>
  <fix>3d</fix>
</trkpt>
<trkpt lat="51.8752066" lon="14.648784">
  <ele>54.15</ele>
  <time>2026-08-28T17:53:42Z</time>
  <course>232.08</course>
  <speed>0.04</speed>
  <fix>3d</fix>
</trkpt>
<trkpt lat="51.8752066" lon="14.648784">
  <ele>54.15</ele>
  <time>2026-08-28T17:53:42Z</time>
  <course>0.0</course>
  <speed>0.0</speed>
  <fix>3d</fix>
</trkpt>
<trkpt lat="51.8752066" lon="14.648784">
  <ele>54.15</ele>
  <time>2026-08-28T17:53:42Z</time>
  <course>232.08</course>
  <speed>0.04</speed>
  <fix>3d</fix>
</trkpt>
<trkpt lat="51.8752066" lon="14.648784">
  <ele>54.15</ele>
  <time>2026-08-28T17:53:42Z</time>
  <course>0.0</course>
  <speed>0.0</speed>
  <fix>3d</fix>
</trkpt>
<trkpt lat="51.8752066" lon="14.648784">
  <ele>54.15</ele>
  <time>2026-08-28T17:53:42Z</time>
  <course>232.08</course>
  <speed>0.04</speed>
  <fix>3d</fix>
</trkpt>
<trkpt lat="51.8752066" lon="14.648784">
  <ele>54.15</ele>
  <time>2026-08-28T17:53:42Z</time>
  <course>0.0</course>
  <speed>0.0</speed>
  <fix>3d</fix>
</trkpt>
<trkpt lat="51.8752066" lon="14.648784">
  <ele>54.15</ele>
  <time>2026-08-28T17:53:42Z</time>
  <course>232.07</course>
  <speed>0.04</speed>
  <fix>3d</fix>
</trkpt>
<trkpt lat="51.8752066" lon="14.648784">
  <ele>54.15</ele>
  <time>2026-08-28T17:53:42Z</time>
  <course>0.0</course>
  <speed>0.0</speed>
  <fix>3d</fix>
</trkpt>
<trkpt lat="51.8752066" lon="14.648784">
  <ele>54.15</ele>
  <time>2026-08-28T17:53:42Z</time>
  <course>232.07</course>
  <speed>0.04</speed>
  <fix>3d</fix>
</trkpt>
<trkpt lat="51.8752066" lon="14.648784">
  <ele>54.15</ele>
  <time>2026-08-28T17:53:42Z</time>
  <course>0.0</course>
  <speed>0.0</speed>
  <fix>3d</fix>
</trkpt>
<trkpt lat="51.8752066" lon="14.648784">
  <ele>54.15</ele>
  <time>2026-08-28T17:53:42Z</time>
  <course>232.07</course>
  <speed>0.04</speed>
  <fix>3d</fix>
</trkpt>
<trkpt lat="51.8752066" lon="14.648784">
  <ele>54.15</ele>
  <time>2026-08-28T17:53:42Z</time>
  <course>0.0</course>
  <speed>0.0</speed>
  <fix>3d</fix>
</trkpt>
<trkpt lat="51.8752066" lon="14.648784">
  <ele>54.15</ele>
  <time>2026-08-28T17:53:42Z</time>
  <course>232.07</course>
  <speed>0.04</speed>
  <fix>3d</fix>
</trkpt>
<trkpt lat="51.8752066" lon="14.648784">
  <ele>54.15</ele>
  <time>2026-08-28T17:53:42Z</time>
  <course>0.0</course>
  <speed>0.0</speed>
  <fix>3d</fix>
</trkpt>
<trkpt lat="51.8752066" lon="14.648784">
  <ele>54.15</ele>
  <time>2026-08-28T17:53:42Z</time>
  <course>232.07</course>
  <speed>0.04</speed>
  <fix>3d</fix>
</trkpt>
<trkpt lat="51.8752066" lon="14.648784">
  <ele>54.15</ele>
  <time>2026-08-28T17:53:42Z</time>
  <course>0.0</course>
  <speed>0.0</speed>
  <fix>3d</fix>
</trkpt>
<trkpt lat="51.8752066" lon="14.648784">
  <ele>54.15</ele>
  <time>2026-08-28T17:53:43Z</time>
  <course>232.06</course>
  <speed>0.04</speed>
  <fix>3d</fix>
</trkpt>
<trkpt lat="51.8752066" lon="14.648784">
  <ele>54.15</ele>
  <time>2026-08-28T17:53:43Z</time>
  <course>0.0</course>
  <speed>0.0</speed>
  <fix>3d</fix>
</trkpt>
<trkpt lat="51.8752066" lon="14.648784">
  <ele>54.15</ele>
  <time>2026-08-28T17:53:43Z</time>
  <course>232.06</course>
  <speed>0.04</speed>
  <fix>3d</fix>
</trkpt>
<trkpt lat="51.8752066" lon="14.648784">
  <ele>54.15</ele>
  <time>2026-08-28T17:53:43Z</time>
  <course>0.0</course>
  <speed>0.0</speed>
  <fix>3d</fix>
</trkpt>
<trkpt lat="51.8752066" lon="14.648784">
  <ele>54.15</ele>
  <time>2026-08-28T17:53:43Z</time>
  <course>232.06</course>
  <speed>0.04</speed>
  <fix>3d</fix>
</trkpt>
<trkpt lat="51.8752066" lon="14.648784">
  <ele>54.15</ele>
  <time>2026-08-28T17:53:43Z</time>
  <course>0.0</course>
  <speed>0.0</speed>
  <fix>3d</fix>
</trkpt>
<trkpt lat="51.8752066" lon="14.648784">
  <ele>54.06</ele>
  <time>2026-08-28T17:53:43Z</time>
  <course>232.06</course>
  <speed>0.0</speed>
  <fix>3d</fix>
</trkpt>
<trkpt lat="51.8752066" lon="14.648784">
  <ele>54.15</ele>
  <time>2026-08-28T17:53:43Z</time>
  <course>0.0</course>
  <speed>0.0</speed>
  <fix>3d</fix>
</trkpt>
<trkpt lat="51.8752066" lon="14.648784">
  <ele>54.06</ele>
  <time>2026-08-28T17:53:43Z</time>
  <course>232.06</course>
  <speed>0.0</speed>
  <fix>3d</fix>
</trkpt>
<trkpt lat="51.8752066" lon="14.648784">
  <ele>54.15</ele>
  <time>2026-08-28T17:53:43Z</time>
  <course>0.0</course>
  <speed>0.0</speed>
  <fix>3d</fix>
</trkpt>
<trkpt lat="51.8752066" lon="14.648784">
  <ele>54.06</ele>
  <time>2026-08-28T17:53:43Z</time>
  <course>232.06</course>
  <speed>0.0</speed>
  <fix>3d</fix>
</trkpt>
<trkpt lat="51.8752066" lon="14.648784">
  <ele>54.15</ele>
  <time>2026-08-28T17:53:43Z</time>
  <course>0.0</course>
  <speed>0.0</speed>
  <fix>3d</fix>
</trkpt>
<trkpt lat="51.8752066" lon="14.648784">
  <ele>54.05</ele>
  <time>2026-08-28T17:53:43Z</time>
  <course>232.05</course>
  <speed>0.0</speed>
  <fix>3d</fix>
</trkpt>
<trkpt lat="51.8752066" lon="14.648784">
  <ele>54.15</ele>
  <time>2026-08-28T17:53:43Z</time>
  <course>0.0</course>
  <speed>0.0</speed>
  <fix>3d</fix>
</trkpt>
<trkpt lat="51.8752066" lon="14.648784">
  <ele>54.04</ele>
  <time>2026-08-28T17:53:43Z</time>
  <course>232.05</course>
  <speed>0.0</speed>
  <fix>3d</fix>
</trkpt>
<trkpt lat="51.8752066" lon="14.648784">
  <ele>54.15</ele>
  <time>2026-08-28T17:53:43Z</time>
  <course>0.0</course>
  <speed>0.0</speed>
  <fix>3d</fix>
</trkpt>
<trkpt lat="51.8752066" lon="14.648784">
  <ele>54.04</ele>
  <time>2026-08-28T17:53:43Z</time>
  <course>232.05</course>
  <speed>0.0</speed>
  <fix>3d</fix>
</trkpt>
<trkpt lat="51.8752066" lon="14.648784">
  <ele>54.15</ele>
  <time>2026-08-28T17:53:43Z</time>
  <course>0.0</course>
  <speed>0.0</speed>
  <fix>3d</fix>
</trkpt>
<trkpt lat="51.8752066" lon="14.648784">
  <ele>54.04</ele>
  <time>2026-08-28T17:53:43Z</time>
  <course>232.05</course>
  <speed>0.0</speed>
  <fix>3d</fix>
</trkpt>
<trkpt lat="51.8752066" lon="14.648784">
  <ele>54.15</ele>
  <time>2026-08-28T17:53:43Z</time>
  <course>0.0</course>
  <speed>0.0</speed>
  <fix>3d</fix>
</trkpt>
<trkpt lat="51.8752066" lon="14.648784">
  <ele>54.04</ele>
  <time>2026-08-28T17:53:43Z</time>
  <course>232.05</course>
  <speed>0.0</speed>
  <fix>3d</fix>
</trkpt>
<trkpt lat="51.8752066" lon="14.648784">
  <ele>54.15</ele>
  <time>2026-08-28T17:53:43Z</time>
  <course>0.0</course>
  <speed>0.0</speed>
  <fix>3d</fix>
</trkpt>
<trkpt lat="51.8752066" lon="14.648784">
  <ele>54.04</ele>
  <time>2026-08-28T17:53:43Z</time>
  <course>232.05</course>
  <speed>0.01</speed>
  <fix>3d</fix>
</trkpt>
<trkpt lat="51.8752066" lon="14.648784">
  <ele>54.15</ele>
  <time>2026-08-28T17:53:43Z</time>
  <course>0.0</course>
  <speed>0.0</speed>
  <fix>3d</fix>
</trkpt>
<trkpt lat="51.8752066" lon="14.648784">
  <ele>54.05</ele>
  <time>2026-08-28T17:53:43Z</time>
  <course>232.04</course>
  <speed>0.01</speed>
  <fix>3d</fix>
</trkpt>
<trkpt lat="51.8752066" lon="14.648784">
  <ele>54.15</ele>
  <time>2026-08-28T17:53:43Z</time>
  <course>0.0</course>
  <speed>0.0</speed>
  <fix>3d</fix>
</trkpt>
<trkpt lat="51.8752066" lon="14.648784">
  <ele>54.05</ele>
  <time>2026-08-28T17:53:43Z</time>
  <course>232.04</course>
  <speed>0.01</speed>
  <fix>3d</fix>
</trkpt>
<trkpt lat="51.8752066" lon="14.648784">
  <ele>54.15</ele>
  <time>2026-08-28T17:53:43Z</time>
  <course>0.0</course>
  <speed>0.0</speed>
  <fix>3d</fix>
</trkpt>
<trkpt lat="51.8752066" lon="14.648784">
  <ele>54.05</ele>
  <time>2026-08-28T17:53:43Z</time>
  <course>232.04</course>
  <speed>0.01</speed>
  <fix>3d</fix>
</trkpt>
<trkpt lat="51.8752066" lon="14.648784">
  <ele>54.15</ele>
  <time>2026-08-28T17:53:43Z</time>
  <course>0.0</course>
  <speed>0.0</speed>
  <fix>3d</fix>
</trkpt>
<trkpt lat="51.8752066" lon="14.648784">
  <ele>54.06</ele>
  <time>2026-08-28T17:53:43Z</time>
  <course>232.04</course>
  <speed>0.01</speed>
  <fix>3d</fix>
</trkpt>
<trkpt lat="51.8752066" lon="14.648784">
  <ele>54.15</ele>
  <time>2026-08-28T17:53:43Z</time>
  <course>0.0</course>
  <speed>0.0</speed>
  <fix>3d</fix>
</trkpt>
<trkpt lat="51.8752066" lon="14.648784">
  <ele>54.06</ele>
  <time>2026-08-28T17:53:43Z</time>
  <course>232.04</course>
  <speed>0.01</speed>
  <fix>3d</fix>
</trkpt>
<trkpt lat="51.8752066" lon="14.648784">
  <ele>54.15</ele>
  <time>2026-08-28T17:53:43Z</time>
  <course>0.0</course>
  <speed>0.0</speed>
  <fix>3d</fix>
</trkpt>
<trkpt lat="51.8752066" lon="14.648784">
  <ele>54.06</ele>
  <time>2026-08-28T17:53:43Z</time>
  <course>232.04</course>
  <speed>0.01</speed>
  <fix>3d</fix>
</trkpt>
<trkpt lat="51.8752066" lon="14.648784">
  <ele>54.15</ele>
  <time>2026-08-28T17:53:43Z</time>
  <course>0.0</course>
  <speed>0.0</speed>
  <fix>3d</fix>
</trkpt>
<trkpt lat="51.8752066" lon="14.648784">
  <ele>54.06</ele>
  <time>2026-08-28T17:53:43Z</time>
  <course>232.03</course>
  <speed>0.01</speed>
  <fix>3d</fix>
</trkpt>
<trkpt lat="51.8752066" lon="14.648784">
  <ele>54.15</ele>
  <time>2026-08-28T17:53:43Z</time>
  <course>0.0</course>
  <speed>0.0</speed>
  <fix>3d</fix>
</trkpt>
<trkpt lat="51.8752066" lon="14.648784">
  <ele>54.07</ele>
  <time>2026-08-28T17:53:43Z</time>
  <course>232.03</course>
  <speed>0.01</speed>
  <fix>3d</fix>
</trkpt>
<trkpt lat="51.8752066" lon="14.648784">
  <ele>54.15</ele>
  <time>2026-08-28T17:53:43Z</time>
  <course>0.0</course>
  <speed>0.0</speed>
  <fix>3d</fix>
</trkpt>
<trkpt lat="51.8752066" lon="14.648784">
  <ele>54.07</ele>
  <time>2026-08-28T17:53:43Z</time>
  <course>232.03</course>
  <speed>0.02</speed>
  <fix>3d</fix>
</trkpt>
<trkpt lat="51.8752066" lon="14.648784">
  <ele>54.15</ele>
  <time>2026-08-28T17:53:43Z</time>
  <course>0.0</course>
  <speed>0.0</speed>
  <fix>3d</fix>
</trkpt>
<trkpt lat="51.8752066" lon="14.648784">
  <ele>54.07</ele>
  <time>2026-08-28T17:53:43Z</time>
  <course>232.03</course>
  <speed>0.02</speed>
  <fix>3d</fix>
</trkpt>
<trkpt lat="51.8752066" lon="14.648784">
  <ele>54.15</ele>
  <time>2026-08-28T17:53:43Z</time>
  <course>0.0</course>
  <speed>0.0</speed>
  <fix>3d</fix>
</trkpt>
<trkpt lat="51.8752066" lon="14.648784">
  <ele>54.07</ele>
  <time>2026-08-28T17:53:44Z</time>
  <course>232.03</course>
  <speed>0.02</speed>
  <fix>3d</fix>
</trkpt>
<trkpt lat="51.8752066" lon="14.648784">
  <ele>54.15</ele>
  <time>2026-08-28T17:53:44Z</time>
  <course>0.0</course>
  <speed>0.0</speed>
  <fix>3d</fix>
</trkpt>
<trkpt lat="51.8752066" lon="14.648784">
  <ele>54.08</ele>
  <time>2026-08-28T17:53:44Z</time>
  <course>232.03</course>
  <speed>0.02</speed>
  <fix>3d</fix>
</trkpt>
<trkpt lat="51.8752066" lon="14.648784">
  <ele>54.15</ele>
  <time>2026-08-28T17:53:44Z</time>
  <course>0.0</course>
  <speed>0.0</speed>
  <fix>3d</fix>
</trkpt>
<trkpt lat="51.8752066" lon="14.648784">
  <ele>54.08</ele>
  <time>2026-08-28T17:53:44Z</time>
  <course>232.02</course>
  <speed>0.02</speed>
  <fix>3d</fix>
</trkpt>
<trkpt lat="51.8752066" lon="14.648784">
  <ele>54.15</ele>
  <time>2026-08-28T17:53:44Z</time>
  <course>0.0</course>
  <speed>0.0</speed>
  <fix>3d</fix>
</trkpt>
<trkpt lat="51.8752066" lon="14.648784">
  <ele>54.08</ele>
  <time>2026-08-28T17:53:44Z</time>
  <course>232.02</course>
  <speed>0.02</speed>
  <fix>3d</fix>
</trkpt>
<trkpt lat="51.8752066" lon="14.648784">
  <ele>54.15</ele>
  <time>2026-08-28T17:53:44Z</time>
  <course>0.0</course>
  <speed>0.0</speed>
  <fix>3d</fix>
</trkpt>
<trkpt lat="51.8752067" lon="14.648784">
  <ele>54.08</ele>
  <time>2026-08-28T17:53:44Z</time>
  <course>232.02</course>
  <speed>0.02</speed>
  <fix>3d</fix>
</trkpt>
<trkpt lat="51.8752066" lon="14.648784">
  <ele>54.15</ele>
  <time>2026-08-28T17:53:44Z</time>
  <course>0.0</course>
  <speed>0.0</speed>
  <fix>3d</fix>
</trkpt>
<trkpt lat="51.8752067" lon="14.648784">
  <ele>54.09</ele>
  <time>2026-08-28T17:53:44Z</time>
  <course>232.02</course>
  <speed>0.02</speed>
  <fix>3d</fix>
</trkpt>
<trkpt lat="51.8752066" lon="14.648784">
  <ele>54.15</ele>
  <time>2026-08-28T17:53:44Z</time>
  <course>0.0</course>
  <speed>0.0</speed>
  <fix>3d</fix>
</trkpt>
<trkpt lat="51.8752067" lon="14.648784">
  <ele>54.09</ele>
  <time>2026-08-28T17:53:44Z</time>
  <course>232.02</course>
  <speed>0.02</speed>
  <fix>3d</fix>
</trkpt>
<trkpt lat="51.8752066" lon="14.648784">
  <ele>54.15</ele>
  <time>2026-08-28T17:53:44Z</time>
  <course>0.0</course>
  <speed>0.0</speed>
  <fix>3d</fix>
</trkpt>
<trkpt lat="51.8752067" lon="14.648784">
  <ele>54.09</ele>
  <time>2026-08-28T17:53:44Z</time>
  <course>232.02</course>
  <speed>0.02</speed>
  <fix>3d</fix>
</trkpt>
<trkpt lat="51.8752066" lon="14.648784">
  <ele>54.15</ele>
  <time>2026-08-28T17:53:44Z</time>
  <course>0.0</course>
  <speed>0.0</speed>
  <fix>3d</fix>
</trkpt>
<trkpt lat="51.8752067" lon="14.648784">
  <ele>54.09</ele>
  <time>2026-08-28T17:53:44Z</time>
  <course>232.02</course>
  <speed>0.03</speed>
  <fix>3d</fix>
</trkpt>
<trkpt lat="51.8752066" lon="14.648784">
  <ele>54.15</ele>
  <time>2026-08-28T17:53:44Z</time>
  <course>0.0</course>
  <speed>0.0</speed>
  <fix>3d</fix>
</trkpt>
<trkpt lat="51.8752067" lon="14.648784">
  <ele>54.09</ele>
  <time>2026-08-28T17:53:44Z</time>
  <course>232.01</course>
  <speed>0.03</speed>
  <fix>3d</fix>
</trkpt>
<trkpt lat="51.8752066" lon="14.648784">
  <ele>54.15</ele>
  <time>2026-08-28T17:53:44Z</time>
  <course>0.0</course>
  <speed>0.0</speed>
  <fix>3d</fix>
</trkpt>
<trkpt lat="51.8752067" lon="14.648784">
  <ele>54.09</ele>
  <time>2026-08-28T17:53:44Z</time>
  <course>232.01</course>
  <speed>0.03</speed>
  <fix>3d</fix>
</trkpt>
<trkpt lat="51.8752066" lon="14.648784">
  <ele>54.15</ele>
  <time>2026-08-28T17:53:44Z</time>
  <course>0.0</course>
  <speed>0.0</speed>
  <fix>3d</fix>
</trkpt>
<trkpt lat="51.8752067" lon="14.648784">
  <ele>54.09</ele>
  <time>2026-08-28T17:53:44Z</time>
  <course>232.01</course>
  <speed>0.03</speed>
  <fix>3d</fix>
</trkpt>
<trkpt lat="51.8752066" lon="14.648784">
  <ele>54.15</ele>
  <time>2026-08-28T17:53:44Z</time>
  <course>0.0</course>
  <speed>0.0</speed>
  <fix>3d</fix>
</trkpt>
<trkpt lat="51.8752067" lon="14.648784">
  <ele>54.09</ele>
  <time>2026-08-28T17:53:44Z</time>
  <course>232.01</course>
  <speed>0.03</speed>
  <fix>3d</fix>
</trkpt>
<trkpt lat="51.8752066" lon="14.648784">
  <ele>54.15</ele>
  <time>2026-08-28T17:53:44Z</time>
  <course>0.0</course>
  <speed>0.0</speed>
  <fix>3d</fix>
</trkpt>
<trkpt lat="51.8752067" lon="14.648784">
  <ele>54.09</ele>
  <time>2026-08-28T17:53:44Z</time>
  <course>232.01</course>
  <speed>0.03</speed>
  <fix>3d</fix>
</trkpt>
<trkpt lat="51.8752066" lon="14.648784">
  <ele>54.15</ele>
  <time>2026-08-28T17:53:44Z</time>
  <course>0.0</course>
  <speed>0.0</speed>
  <fix>3d</fix>
</trkpt>
<trkpt lat="51.8752067" lon="14.648784">
  <ele>54.09</ele>
  <time>2026-08-28T17:53:44Z</time>
  <course>232.01</course>
  <speed>0.03</speed>
  <fix>3d</fix>
</trkpt>
<trkpt lat="51.8752066" lon="14.648784">
  <ele>54.15</ele>
  <time>2026-08-28T17:53:44Z</time>
  <course>0.0</course>
  <speed>0.0</speed>
  <fix>3d</fix>
</trkpt>
<trkpt lat="51.8752067" lon="14.648784">
  <ele>54.09</ele>
  <time>2026-08-28T17:53:44Z</time>
  <course>232.0</course>
  <speed>0.03</speed>
  <fix>3d</fix>
</trkpt>
<trkpt lat="51.8752066" lon="14.648784">
  <ele>54.15</ele>
  <time>2026-08-28T17:53:44Z</time>
  <course>0.0</course>
  <speed>0.0</speed>
  <fix>3d</fix>
</trkpt>
<trkpt lat="51.8752068" lon="14.648784">
  <ele>54.09</ele>
  <time>2026-08-28T17:53:44Z</time>
  <course>232.0</course>
  <speed>0.03</speed>
  <fix>3d</fix>
</trkpt>
<trkpt lat="51.8752066" lon="14.648784">
  <ele>54.15</ele>
  <time>2026-08-28T17:53:44Z</time>
  <course>0.0</course>
  <speed>0.0</speed>
  <fix>3d</fix>
</trkpt>
<trkpt lat="51.8752068" lon="14.648784">
  <ele>54.09</ele>
  <time>2026-08-28T17:53:44Z</time>
  <course>232.0</course>
  <speed>0.03</speed>
  <fix>3d</fix>
</trkpt>
<trkpt lat="51.8752066" lon="14.648784">
  <ele>54.15</ele>
  <time>2026-08-28T17:53:44Z</time>
  <course>0.0</course>
  <speed>0.0</speed>
  <fix>3d</fix>
</trkpt>
<trkpt lat="51.8752068" lon="14.648784">
  <ele>54.09</ele>
  <time>2026-08-28T17:53:44Z</time>
  <course>232.0</course>
  <speed>0.03</speed>
  <fix>3d</fix>
</trkpt>
<trkpt lat="51.8752066" lon="14.648784">
  <ele>54.15</ele>
  <time>2026-08-28T17:53:44Z</time>
  <course>0.0</course>
  <speed>0.0</speed>
  <fix>3d</fix>
</trkpt>
<trkpt lat="51.8752068" lon="14.648784">
  <ele>54.09</ele>
  <time>2026-08-28T17:53:44Z</time>
  <course>232.0</course>
  <speed>0.03</speed>
  <fix>3d</fix>
</trkpt>
<trkpt lat="51.8752066" lon="14.648784">
  <ele>54.15</ele>
  <time>2026-08-28T17:53:44Z</time>
  <course>0.0</course>
  <speed>0.0</speed>
  <fix>3d</fix>
</trkpt>
<trkpt lat="51.8752068" lon="14.648784">
  <ele>54.1</ele>
  <time>2026-08-28T17:53:44Z</time>
  <course>232.0</course>
  <speed>0.03</speed>
  <fix>3d</fix>
</trkpt>
<trkpt lat="51.8752066" lon="14.648784">
  <ele>54.15</ele>
  <time>2026-08-28T17:53:44Z</time>
  <course>0.0</course>
  <speed>0.0</speed>
  <fix>3d</fix>
</trkpt>
<trkpt lat="51.8752068" lon="14.648784">
  <ele>54.1</ele>
  <time>2026-08-28T17:53:44Z</time>
  <course>232.0</course>
  <speed>0.03</speed>
  <fix>3d</fix>
</trkpt>
<trkpt lat="51.8752066" lon="14.648784">
  <ele>54.15</ele>
  <time>2026-08-28T17:53:44Z</time>
  <course>0.0</course>
  <speed>0.0</speed>
  <fix>3d</fix>
</trkpt>
<trkpt lat="51.8752068" lon="14.648784">
  <ele>54.11</ele>
  <time>2026-08-28T17:53:45Z</time>
  <course>232.0</course>
  <speed>0.03</speed>
  <fix>3d</fix>
</trkpt>
<trkpt lat="51.8752066" lon="14.648784">
  <ele>54.15</ele>
  <time>2026-08-28T17:53:45Z</time>
  <course>0.0</course>
  <speed>0.0</speed>
  <fix>3d</fix>
</trkpt>
<trkpt lat="51.8752068" lon="14.648784">
  <ele>54.11</ele>
  <time>2026-08-28T17:53:45Z</time>
  <course>231.99</course>
  <speed>0.03</speed>
  <fix>3d</fix>
</trkpt>
<trkpt lat="51.8752066" lon="14.648784">
  <ele>54.15</ele>
  <time>2026-08-28T17:53:45Z</time>
  <course>0.0</course>
  <speed>0.0</speed>
  <fix>3d</fix>
</trkpt>
<trkpt lat="51.8752068" lon="14.648784">
  <ele>54.12</ele>
  <time>2026-08-28T17:53:45Z</time>
  <course>231.99</course>
  <speed>0.03</speed>
  <fix>3d</fix>
</trkpt>
<trkpt lat="51.8752066" lon="14.648784">
  <ele>54.15</ele>
  <time>2026-08-28T17:53:45Z</time>
  <course>0.0</course>
  <speed>0.0</speed>
  <fix>3d</fix>
</trkpt>
<trkpt lat="51.8752068" lon="14.648784">
  <ele>54.13</ele>
  <time>2026-08-28T17:53:45Z</time>
  <course>231.99</course>
  <speed>0.03</speed>
  <fix>3d</fix>
</trkpt>
<trkpt lat="51.8752066" lon="14.648784">
  <ele>54.15</ele>
  <time>2026-08-28T17:53:45Z</time>
  <course>0.0</course>
  <speed>0.0</speed>
  <fix>3d</fix>
</trkpt>
<trkpt lat="51.8752068" lon="14.648784">
  <ele>54.14</ele>
  <time>2026-08-28T17:53:45Z</time>
  <course>231.99</course>
  <speed>0.03</speed>
  <fix>3d</fix>
</trkpt>
<trkpt lat="51.8752066" lon="14.648784">
  <ele>54.15</ele>
  <time>2026-08-28T17:53:45Z</time>
  <course>0.0</course>
  <speed>0.0</speed>
  <fix>3d</fix>
</trkpt>
<trkpt lat="51.8752068" lon="14.648784">
  <ele>54.15</ele>
  <time>2026-08-28T17:53:45Z</time>
  <course>231.99</course>
  <speed>0.03</speed>
  <fix>3d</fix>
</trkpt>
<trkpt lat="51.8752066" lon="14.648784">
  <ele>54.15</ele>
  <time>2026-08-28T17:53:45Z</time>
  <course>0.0</course>
  <speed>0.0</speed>
  <fix>3d</fix>
</trkpt>
<trkpt lat="51.8752068" lon="14.648784">
  <ele>54.16</ele>
  <time>2026-08-28T17:53:45Z</time>
  <course>231.99</course>
  <speed>0.03</speed>
  <fix>3d</fix>
</trkpt>
<trkpt lat="51.8752066" lon="14.648784">
  <ele>54.15</ele>
  <time>2026-08-28T17:53:45Z</time>
  <course>0.0</course>
  <speed>0.0</speed>
  <fix>3d</fix>
</trkpt>
<trkpt lat="51.8752068" lon="14.648784">
  <ele>54.16</ele>
  <time>2026-08-28T17:53:45Z</time>
  <course>231.99</course>
  <speed>0.03</speed>
  <fix>3d</fix>
</trkpt>
<trkpt lat="51.8752066" lon="14.648784">
  <ele>54.15</ele>
  <time>2026-08-28T17:53:45Z</time>
  <course>0.0</course>
  <speed>0.0</speed>
  <fix>3d</fix>
</trkpt>
<trkpt lat="51.8752068" lon="14.648784">
  <ele>54.16</ele>
  <time>2026-08-28T17:53:45Z</time>
  <course>231.98</course>
  <speed>0.03</speed>
  <fix>3d</fix>
</trkpt>
<trkpt lat="51.8752066" lon="14.648784">
  <ele>54.15</ele>
  <time>2026-08-28T17:53:45Z</time>
  <course>0.0</course>
  <speed>0.0</speed>
  <fix>3d</fix>
</trkpt>
<trkpt lat="51.8752068" lon="14.648784">
  <ele>54.16</ele>
  <time>2026-08-28T17:53:45Z</time>
  <course>231.98</course>
  <speed>0.03</speed>
  <fix>3d</fix>
</trkpt>
<trkpt lat="51.8752066" lon="14.648784">
  <ele>54.15</ele>
  <time>2026-08-28T17:53:45Z</time>
  <course>0.0</course>
  <speed>0.0</speed>
  <fix>3d</fix>
</trkpt>
<trkpt lat="51.8752068" lon="14.648784">
  <ele>54.15</ele>
  <time>2026-08-28T17:53:45Z</time>
  <course>231.98</course>
  <speed>0.03</speed>
  <fix>3d</fix>
</trkpt>
<trkpt lat="51.8752066" lon="14.648784">
  <ele>54.15</ele>
  <time>2026-08-28T17:53:45Z</time>
  <course>0.0</course>
  <speed>0.0</speed>
  <fix>3d</fix>
</trkpt>
<trkpt lat="51.8752068" lon="14.648784">
  <ele>54.15</ele>
  <time>2026-08-28T17:53:45Z</time>
  <course>231.98</course>
  <speed>0.02</speed>
  <fix>3d</fix>
</trkpt>
<trkpt lat="51.8752066" lon="14.648784">
  <ele>54.15</ele>
  <time>2026-08-28T17:53:45Z</time>
  <course>0.0</course>
  <speed>0.0</speed>
  <fix>3d</fix>
</trkpt>
<trkpt lat="51.8752068" lon="14.648784">
  <ele>54.14</ele>
  <time>2026-08-28T17:53:45Z</time>
  <course>231.98</course>
  <speed>0.02</speed>
  <fix>3d</fix>
</trkpt>
<trkpt lat="51.8752066" lon="14.648784">
  <ele>54.15</ele>
  <time>2026-08-28T17:53:45Z</time>
  <course>0.0</course>
  <speed>0.0</speed>
  <fix>3d</fix>
</trkpt>
<trkpt lat="51.8752068" lon="14.648784">
  <ele>54.14</ele>
  <time>2026-08-28T17:53:45Z</time>
  <course>231.98</course>
  <speed>0.02</speed>
  <fix>3d</fix>
</trkpt>
<trkpt lat="51.8752066" lon="14.648784">
  <ele>54.15</ele>
  <time>2026-08-28T17:53:45Z</time>
  <course>0.0</course>
  <speed>0.0</speed>
  <fix>3d</fix>
</trkpt>
<trkpt lat="51.8752068" lon="14.648784">
  <ele>54.14</ele>
  <time>2026-08-28T17:53:45Z</time>
  <course>231.98</course>
  <speed>0.02</speed>
  <fix>3d</fix>
</trkpt>
<trkpt lat="51.8752066" lon="14.648784">
  <ele>54.15</ele>
  <time>2026-08-28T17:53:45Z</time>
  <course>0.0</course>
  <speed>0.0</speed>
  <fix>3d</fix>
</trkpt>
<trkpt lat="51.8752068" lon="14.648784">
  <ele>54.13</ele>
  <time>2026-08-28T17:53:45Z</time>
  <course>231.97</course>
  <speed>0.02</speed>
  <fix>3d</fix>
</trkpt>
<trkpt lat="51.8752066" lon="14.648784">
  <ele>54.15</ele>
  <time>2026-08-28T17:53:45Z</time>
  <course>0.0</course>
  <speed>0.0</speed>
  <fix>3d</fix>
</trkpt>
<trkpt lat="51.8752068" lon="14.648784">
  <ele>54.13</ele>
  <time>2026-08-28T17:53:45Z</time>
  <course>231.97</course>
  <speed>0.02</speed>
  <fix>3d</fix>
</trkpt>
<trkpt lat="51.8752066" lon="14.648784">
  <ele>54.15</ele>
  <time>2026-08-28T17:53:45Z</time>
  <course>0.0</course>
  <speed>0.0</speed>
  <fix>3d</fix>
</trkpt>
<trkpt lat="51.8752068" lon="14.648784">
  <ele>54.14</ele>
  <time>2026-08-28T17:53:45Z</time>
  <course>231.97</course>
  <speed>0.02</speed>
  <fix>3d</fix>
</trkpt>
<trkpt lat="51.8752066" lon="14.648784">
  <ele>54.15</ele>
  <time>2026-08-28T17:53:45Z</time>
  <course>0.0</course>
  <speed>0.0</speed>
  <fix>3d</fix>
</trkpt>
<trkpt lat="51.8752068" lon="14.648784">
  <ele>54.14</ele>
  <time>2026-08-28T17:53:45Z</time>
  <course>231.97</course>
  <speed>0.02</speed>
  <fix>3d</fix>
</trkpt>
<trkpt lat="51.8752066" lon="14.648784">
  <ele>54.15</ele>
  <time>2026-08-28T17:53:45Z</time>
  <course>0.0</course>
  <speed>0.0</speed>
  <fix>3d</fix>
</trkpt>
<trkpt lat="51.8752068" lon="14.648784">
  <ele>54.14</ele>
  <time>2026-08-28T17:53:45Z</time>
  <course>231.97</course>
  <speed>0.02</speed>
  <fix>3d</fix>
</trkpt>
<trkpt lat="51.8752066" lon="14.648784">
  <ele>54.15</ele>
  <time>2026-08-28T17:53:45Z</time>
  <course>0.0</course>
  <speed>0.0</speed>
  <fix>3d</fix>
</trkpt>
<trkpt lat="51.8752068" lon="14.648784">
  <ele>54.14</ele>
  <time>2026-08-28T17:53:45Z</time>
  <course>231.97</course>
  <speed>0.02</speed>
  <fix>3d</fix>
</trkpt>
<trkpt lat="51.8752066" lon="14.648784">
  <ele>54.15</ele>
  <time>2026-08-28T17:53:45Z</time>
  <course>0.0</course>
  <speed>0.0</speed>
  <fix>3d</fix>
</trkpt>
<trkpt lat="51.8752067" lon="14.648784">
  <ele>54.14</ele>
  <time>2026-08-28T17:53:45Z</time>
  <course>231.97</course>
  <speed>0.02</speed>
  <fix>3d</fix>
</trkpt>
<trkpt lat="51.8752066" lon="14.648784">
  <ele>54.15</ele>
  <time>2026-08-28T17:53:45Z</time>
  <course>0.0</course>
  <speed>0.0</speed>
  <fix>3d</fix>
</trkpt>
<trkpt lat="51.8752067" lon="14.648784">
  <ele>54.14</ele>
  <time>2026-08-28T17:53:46Z</time>
  <course>231.97</course>
  <speed>0.02</speed>
  <fix>3d</fix>
</trkpt>
<trkpt lat="51.8752066" lon="14.648784">
  <ele>54.15</ele>
  <time>2026-08-28T17:53:46Z</time>
  <course>0.0</course>
  <speed>0.0</speed>
  <fix>3d</fix>
</trkpt>
<trkpt lat="51.8752067" lon="14.648784">
  <ele>54.14</ele>
  <time>2026-08-28T17:53:46Z</time>
  <course>231.96</course>
  <speed>0.02</speed>
  <fix>3d</fix>
</trkpt>
<trkpt lat="51.8752066" lon="14.648784">
  <ele>54.15</ele>
  <time>2026-08-28T17:53:46Z</time>
  <course>0.0</course>
  <speed>0.0</speed>
  <fix>3d</fix>
</trkpt>
<trkpt lat="51.8752067" lon="14.648784">
  <ele>54.15</ele>
  <time>2026-08-28T17:53:46Z</time>
  <course>231.96</course>
  <speed>0.02</speed>
  <fix>3d</fix>
</trkpt>
<trkpt lat="51.8752066" lon="14.648784">
  <ele>54.15</ele>
  <time>2026-08-28T17:53:46Z</time>
  <course>0.0</course>
  <speed>0.0</speed>
  <fix>3d</fix>
</trkpt>
<trkpt lat="51.8752067" lon="14.648784">
  <ele>54.15</ele>
  <time>2026-08-28T17:53:46Z</time>
  <course>231.96</course>
  <speed>0.02</speed>
  <fix>3d</fix>
</trkpt>
<trkpt lat="51.8752066" lon="14.648784">
  <ele>54.15</ele>
  <time>2026-08-28T17:53:46Z</time>
  <course>0.0</course>
  <speed>0.0</speed>
  <fix>3d</fix>
</trkpt>
<trkpt lat="51.8752067" lon="14.648784">
  <ele>54.15</ele>
  <time>2026-08-28T17:53:46Z</time>
  <course>231.96</course>
  <speed>0.02</speed>
  <fix>3d</fix>
</trkpt>
<trkpt lat="51.8752066" lon="14.648784">
  <ele>54.15</ele>
  <time>2026-08-28T17:53:46Z</time>
  <course>0.0</course>
  <speed>0.0</speed>
  <fix>3d</fix>
</trkpt>
<trkpt lat="51.8752067" lon="14.648784">
  <ele>54.16</ele>
  <time>2026-08-28T17:53:46Z</time>
  <course>231.96</course>
  <speed>0.02</speed>
  <fix>3d</fix>
</trkpt>
<trkpt lat="51.8752066" lon="14.648784">
  <ele>54.15</ele>
  <time>2026-08-28T17:53:46Z</time>
  <course>0.0</course>
  <speed>0.0</speed>
  <fix>3d</fix>
</trkpt>
<trkpt lat="51.8752067" lon="14.648784">
  <ele>54.16</ele>
  <time>2026-08-28T17:53:46Z</time>
  <course>231.96</course>
  <speed>0.02</speed>
  <fix>3d</fix>
</trkpt>
<trkpt lat="51.8752066" lon="14.648784">
  <ele>54.15</ele>
  <time>2026-08-28T17:53:46Z</time>
  <course>0.0</course>
  <speed>0.0</speed>
  <fix>3d</fix>
</trkpt>
<trkpt lat="51.8752067" lon="14.648784">
  <ele>54.16</ele>
  <time>2026-08-28T17:53:46Z</time>
  <course>231.96</course>
  <speed>0.02</speed>
  <fix>3d</fix>
</trkpt>
<trkpt lat="51.8752066" lon="14.648784">
  <ele>54.15</ele>
  <time>2026-08-28T17:53:46Z</time>
  <course>0.0</course>
  <speed>0.0</speed>
  <fix>3d</fix>
</trkpt>
<trkpt lat="51.8752067" lon="14.648784">
  <ele>54.16</ele>
  <time>2026-08-28T17:53:46Z</time>
  <course>231.96</course>
  <speed>0.02</speed>
  <fix>3d</fix>
</trkpt>
<trkpt lat="51.8752066" lon="14.648784">
  <ele>54.15</ele>
  <time>2026-08-28T17:53:46Z</time>
  <course>0.0</course>
  <speed>0.0</speed>
  <fix>3d</fix>
</trkpt>
<trkpt lat="51.8752067" lon="14.648784">
  <ele>54.16</ele>
  <time>2026-08-28T17:53:46Z</time>
  <course>231.95</course>
  <speed>0.02</speed>
  <fix>3d</fix>
</trkpt>
<trkpt lat="51.8752066" lon="14.648784">
  <ele>54.15</ele>
  <time>2026-08-28T17:53:46Z</time>
  <course>0.0</course>
  <speed>0.0</speed>
  <fix>3d</fix>
</trkpt>
<trkpt lat="51.8752067" lon="14.648784">
  <ele>54.16</ele>
  <time>2026-08-28T17:53:46Z</time>
  <course>231.95</course>
  <speed>0.02</speed>
  <fix>3d</fix>
</trkpt>
<trkpt lat="51.8752066" lon="14.648784">
  <ele>54.15</ele>
  <time>2026-08-28T17:53:46Z</time>
  <course>0.0</course>
  <speed>0.0</speed>
  <fix>3d</fix>
</trkpt>
<trkpt lat="51.8752067" lon="14.648784">
  <ele>54.16</ele>
  <time>2026-08-28T17:53:46Z</time>
  <course>231.95</course>
  <speed>0.02</speed>
  <fix>3d</fix>
</trkpt>
<trkpt lat="51.8752066" lon="14.648784">
  <ele>54.15</ele>
  <time>2026-08-28T17:53:46Z</time>
  <course>0.0</course>
  <speed>0.0</speed>
  <fix>3d</fix>
</trkpt>
<trkpt lat="51.8752067" lon="14.648784">
  <ele>54.16</ele>
  <time>2026-08-28T17:53:46Z</time>
  <course>231.95</course>
  <speed>0.02</speed>
  <fix>3d</fix>
</trkpt>
<trkpt lat="51.8752066" lon="14.648784">
  <ele>54.15</ele>
  <time>2026-08-28T17:53:46Z</time>
  <course>0.0</course>
  <speed>0.0</speed>
  <fix>3d</fix>
</trkpt>
<trkpt lat="51.8752067" lon="14.648784">
  <ele>54.16</ele>
  <time>2026-08-28T17:53:46Z</time>
  <course>231.95</course>
  <speed>0.02</speed>
  <fix>3d</fix>
</trkpt>
<trkpt lat="51.8752066" lon="14.648784">
  <ele>54.15</ele>
  <time>2026-08-28T17:53:46Z</time>
  <course>0.0</course>
  <speed>0.0</speed>
  <fix>3d</fix>
</trkpt>
<trkpt lat="51.8752067" lon="14.648784">
  <ele>54.16</ele>
  <time>2026-08-28T17:53:46Z</time>
  <course>231.95</course>
  <speed>0.02</speed>
  <fix>3d</fix>
</trkpt>
<trkpt lat="51.8752066" lon="14.648784">
  <ele>54.15</ele>
  <time>2026-08-28T17:53:46Z</time>
  <course>0.0</course>
  <speed>0.0</speed>
  <fix>3d</fix>
</trkpt>
<trkpt lat="51.8752067" lon="14.648784">
  <ele>54.16</ele>
  <time>2026-08-28T17:53:46Z</time>
  <course>231.95</course>
  <speed>0.02</speed>
  <fix>3d</fix>
</trkpt>
<trkpt lat="51.8752066" lon="14.648784">
  <ele>54.15</ele>
  <time>2026-08-28T17:53:46Z</time>
  <course>0.0</course>
  <speed>0.0</speed>
  <fix>3d</fix>
</trkpt>
<trkpt lat="51.8752067" lon="14.648784">
  <ele>54.16</ele>
  <time>2026-08-28T17:53:46Z</time>
  <course>231.95</course>
  <speed>0.02</speed>
  <fix>3d</fix>
</trkpt>
<trkpt lat="51.8752066" lon="14.648784">
  <ele>54.15</ele>
  <time>2026-08-28T17:53:46Z</time>
  <course>0.0</course>
  <speed>0.0</speed>
  <fix>3d</fix>
</trkpt>
<trkpt lat="51.8752067" lon="14.648784">
  <ele>54.16</ele>
  <time>2026-08-28T17:53:46Z</time>
  <course>231.94</course>
  <speed>0.02</speed>
  <fix>3d</fix>
</trkpt>
<trkpt lat="51.8752066" lon="14.648784">
  <ele>54.15</ele>
  <time>2026-08-28T17:53:46Z</time>
  <course>0.0</course>
  <speed>0.0</speed>
  <fix>3d</fix>
</trkpt>
<trkpt lat="51.8752067" lon="14.648784">
  <ele>54.16</ele>
  <time>2026-08-28T17:53:46Z</time>
  <course>231.94</course>
  <speed>0.02</speed>
  <fix>3d</fix>
</trkpt>
<trkpt lat="51.8752066" lon="14.648784">
  <ele>54.15</ele>
  <time>2026-08-28T17:53:46Z</time>
  <course>0.0</course>
  <speed>0.0</speed>
  <fix>3d</fix>
</trkpt>
<trkpt lat="51.8752067" lon="14.648784">
  <ele>54.17</ele>
  <time>2026-08-28T17:53:46Z</time>
  <course>231.94</course>
  <speed>0.02</speed>
  <fix>3d</fix>
</trkpt>
<trkpt lat="51.8752066" lon="14.648784">
  <ele>54.15</ele>
  <time>2026-08-28T17:53:46Z</time>
  <course>0.0</course>
  <speed>0.0</speed>
  <fix>3d</fix>
</trkpt>
<trkpt lat="51.8752067" lon="14.648784">
  <ele>54.17</ele>
  <time>2026-08-28T17:53:46Z</time>
  <course>231.94</course>
  <speed>0.02</speed>
  <fix>3d</fix>
</trkpt>
<trkpt lat="51.8752066" lon="14.648784">
  <ele>54.15</ele>
  <time>2026-08-28T17:53:46Z</time>
  <course>0.0</course>
  <speed>0.0</speed>
  <fix>3d</fix>
</trkpt>
<trkpt lat="51.8752067" lon="14.648784">
  <ele>54.17</ele>
  <time>2026-08-28T17:53:46Z</time>
  <course>231.94</course>
  <speed>0.02</speed>
  <fix>3d</fix>
</trkpt>
<trkpt lat="51.8752066" lon="14.648784">
  <ele>54.15</ele>
  <time>2026-08-28T17:53:46Z</time>
  <course>0.0</course>
  <speed>0.0</speed>
  <fix>3d</fix>
</trkpt>
<trkpt lat="51.8752067" lon="14.648784">
  <ele>54.17</ele>
  <time>2026-08-28T17:53:47Z</time>
  <course>231.94</course>
  <speed>0.02</speed>
  <fix>3d</fix>
</trkpt>
<trkpt lat="51.8752066" lon="14.648784">
  <ele>54.15</ele>
  <time>2026-08-28T17:53:47Z</time>
  <course>0.0</course>
  <speed>0.0</speed>
  <fix>3d</fix>
</trkpt>
<trkpt lat="51.8752067" lon="14.648784">
  <ele>54.17</ele>
  <time>2026-08-28T17:53:47Z</time>
  <course>231.94</course>
  <speed>0.02</speed>
  <fix>3d</fix>
</trkpt>
<trkpt lat="51.8752066" lon="14.648784">
  <ele>54.15</ele>
  <time>2026-08-28T17:53:47Z</time>
  <course>0.0</course>
  <speed>0.0</speed>
  <fix>3d</fix>
</trkpt>
<trkpt lat="51.8752067" lon="14.648784">
  <ele>54.17</ele>
  <time>2026-08-28T17:53:47Z</time>
  <course>231.94</course>
  <speed>0.02</speed>
  <fix>3d</fix>
</trkpt>
<trkpt lat="51.8752066" lon="14.648784">
  <ele>54.15</ele>
  <time>2026-08-28T17:53:47Z</time>
  <course>0.0</course>
  <speed>0.0</speed>
  <fix>3d</fix>
</trkpt>
<trkpt lat="51.8752067" lon="14.648784">
  <ele>54.17</ele>
  <time>2026-08-28T17:53:47Z</time>
  <course>231.94</course>
  <speed>0.02</speed>
  <fix>3d</fix>
</trkpt>
<trkpt lat="51.8752066" lon="14.648784">
  <ele>54.15</ele>
  <time>2026-08-28T17:53:47Z</time>
  <course>0.0</course>
  <speed>0.0</speed>
  <fix>3d</fix>
</trkpt>
<trkpt lat="51.8752067" lon="14.648784">
  <ele>54.18</ele>
  <time>2026-08-28T17:53:47Z</time>
  <course>231.93</course>
  <speed>0.02</speed>
  <fix>3d</fix>
</trkpt>
<trkpt lat="51.8752066" lon="14.648784">
  <ele>54.15</ele>
  <time>2026-08-28T17:53:47Z</time>
  <course>0.0</course>
  <speed>0.0</speed>
  <fix>3d</fix>
</trkpt>
<trkpt lat="51.8752067" lon="14.648784">
  <ele>54.18</ele>
  <time>2026-08-28T17:53:47Z</time>
  <course>231.93</course>
  <speed>0.02</speed>
  <fix>3d</fix>
</trkpt>
<trkpt lat="51.8752066" lon="14.648784">
  <ele>54.15</ele>
  <time>2026-08-28T17:53:47Z</time>
  <course>0.0</course>
  <speed>0.0</speed>
  <fix>3d</fix>
</trkpt>
<trkpt lat="51.8752067" lon="14.648784">
  <ele>54.18</ele>
  <time>2026-08-28T17:53:47Z</time>
  <course>231.93</course>
  <speed>0.02</speed>
  <fix>3d</fix>
</trkpt>
<trkpt lat="51.8752066" lon="14.648784">
  <ele>54.15</ele>
  <time>2026-08-28T17:53:47Z</time>
  <course>0.0</course>
  <speed>0.0</speed>
  <fix>3d</fix>
</trkpt>
<trkpt lat="51.8752067" lon="14.648784">
  <ele>54.18</ele>
  <time>2026-08-28T17:53:47Z</time>
  <course>231.93</course>
  <speed>0.02</speed>
  <fix>3d</fix>
</trkpt>
<trkpt lat="51.8752066" lon="14.648784">
  <ele>54.15</ele>
  <time>2026-08-28T17:53:47Z</time>
  <course>0.0</course>
  <speed>0.0</speed>
  <fix>3d</fix>
</trkpt>
<trkpt lat="51.8752067" lon="14.648784">
  <ele>54.19</ele>
  <time>2026-08-28T17:53:47Z</time>
  <course>231.93</course>
  <speed>0.02</speed>
  <fix>3d</fix>
</trkpt>
<trkpt lat="51.8752066" lon="14.648784">
  <ele>54.15</ele>
  <time>2026-08-28T17:53:47Z</time>
  <course>0.0</course>
  <speed>0.0</speed>
  <fix>3d</fix>
</trkpt>
<trkpt lat="51.8752067" lon="14.648784">
  <ele>54.19</ele>
  <time>2026-08-28T17:53:47Z</time>
  <course>231.93</course>
  <speed>0.02</speed>
  <fix>3d</fix>
</trkpt>
<trkpt lat="51.8752066" lon="14.648784">
  <ele>54.15</ele>
  <time>2026-08-28T17:53:47Z</time>
  <course>0.0</course>
  <speed>0.0</speed>
  <fix>3d</fix>
</trkpt>
<trkpt lat="51.8752067" lon="14.648784">
  <ele>54.2</ele>
  <time>2026-08-28T17:53:47Z</time>
  <course>231.93</course>
  <speed>0.02</speed>
  <fix>3d</fix>
</trkpt>
<trkpt lat="51.8752066" lon="14.648784">
  <ele>54.15</ele>
  <time>2026-08-28T17:53:47Z</time>
  <course>0.0</course>
  <speed>0.0</speed>
  <fix>3d</fix>
</trkpt>
<trkpt lat="51.8752067" lon="14.648784">
  <ele>54.2</ele>
  <time>2026-08-28T17:53:47Z</time>
  <course>231.93</course>
  <speed>0.02</speed>
  <fix>3d</fix>
</trkpt>
<trkpt lat="51.8752066" lon="14.648784">
  <ele>54.15</ele>
  <time>2026-08-28T17:53:47Z</time>
  <course>0.0</course>
  <speed>0.0</speed>
  <fix>3d</fix>
</trkpt>
<trkpt lat="51.8752067" lon="14.648784">
  <ele>54.2</ele>
  <time>2026-08-28T17:53:47Z</time>
  <course>231.93</course>
  <speed>0.02</speed>
  <fix>3d</fix>
</trkpt>
<trkpt lat="51.8752066" lon="14.648784">
  <ele>54.15</ele>
  <time>2026-08-28T17:53:47Z</time>
  <course>0.0</course>
  <speed>0.0</speed>
  <fix>3d</fix>
</trkpt>
<trkpt lat="51.8752067" lon="14.648784">
  <ele>54.2</ele>
  <time>2026-08-28T17:53:47Z</time>
  <course>231.93</course>
  <speed>0.02</speed>
  <fix>3d</fix>
</trkpt>
<trkpt lat="51.8752066" lon="14.648784">
  <ele>54.15</ele>
  <time>2026-08-28T17:53:47Z</time>
  <course>0.0</course>
  <speed>0.0</speed>
  <fix>3d</fix>
</trkpt>
<trkpt lat="51.8752067" lon="14.648784">
  <ele>54.2</ele>
  <time>2026-08-28T17:53:47Z</time>
  <course>231.92</course>
  <speed>0.02</speed>
  <fix>3d</fix>
</trkpt>
<trkpt lat="51.8752066" lon="14.648784">
  <ele>54.15</ele>
  <time>2026-08-28T17:53:47Z</time>
  <course>0.0</course>
  <speed>0.0</speed>
  <fix>3d</fix>
</trkpt>
<trkpt lat="51.8752067" lon="14.648784">
  <ele>54.21</ele>
  <time>2026-08-28T17:53:47Z</time>
  <course>231.92</course>
  <speed>0.02</speed>
  <fix>3d</fix>
</trkpt>
<trkpt lat="51.8752066" lon="14.648784">
  <ele>54.15</ele>
  <time>2026-08-28T17:53:47Z</time>
  <course>0.0</course>
  <speed>0.0</speed>
  <fix>3d</fix>
</trkpt>
<trkpt lat="51.8752067" lon="14.648784">
  <ele>54.21</ele>
  <time>2026-08-28T17:53:47Z</time>
  <course>231.92</course>
  <speed>0.02</speed>
  <fix>3d</fix>
</trkpt>
<trkpt lat="51.8752066" lon="14.648784">
  <ele>54.15</ele>
  <time>2026-08-28T17:53:47Z</time>
  <course>0.0</course>
  <speed>0.0</speed>
  <fix>3d</fix>
</trkpt>
<trkpt lat="51.8752067" lon="14.648784">
  <ele>54.21</ele>
  <time>2026-08-28T17:53:47Z</time>
  <course>231.92</course>
  <speed>0.02</speed>
  <fix>3d</fix>
</trkpt>
<trkpt lat="51.8752066" lon="14.648784">
  <ele>54.15</ele>
  <time>2026-08-28T17:53:47Z</time>
  <course>0.0</course>
  <speed>0.0</speed>
  <fix>3d</fix>
</trkpt>
<trkpt lat="51.8752067" lon="14.648784">
  <ele>54.21</ele>
  <time>2026-08-28T17:53:47Z</time>
  <course>231.92</course>
  <speed>0.02</speed>
  <fix>3d</fix>
</trkpt>
<trkpt lat="51.8752066" lon="14.648784">
  <ele>54.15</ele>
  <time>2026-08-28T17:53:47Z</time>
  <course>0.0</course>
  <speed>0.0</speed>
  <fix>3d</fix>
</trkpt>
<trkpt lat="51.8752067" lon="14.648784">
  <ele>54.21</ele>
  <time>2026-08-28T17:53:47Z</time>
  <course>231.92</course>
  <speed>0.02</speed>
  <fix>3d</fix>
</trkpt>
<trkpt lat="51.8752066" lon="14.648784">
  <ele>54.15</ele>
  <time>2026-08-28T17:53:47Z</time>
  <course>0.0</course>
  <speed>0.0</speed>
  <fix>3d</fix>
</trkpt>
<trkpt lat="51.8752067" lon="14.648784">
  <ele>54.21</ele>
  <time>2026-08-28T17:53:47Z</time>
  <course>231.92</course>
  <speed>0.02</speed>
  <fix>3d</fix>
</trkpt>
<trkpt lat="51.8752066" lon="14.648784">
  <ele>54.15</ele>
  <time>2026-08-28T17:53:47Z</time>
  <course>0.0</course>
  <speed>0.0</speed>
  <fix>3d</fix>
</trkpt>
<trkpt lat="51.8752067" lon="14.648784">
  <ele>54.21</ele>
  <time>2026-08-28T17:53:47Z</time>
  <course>231.92</course>
  <speed>0.02</speed>
  <fix>3d</fix>
</trkpt>
<trkpt lat="51.8752066" lon="14.648784">
  <ele>54.15</ele>
  <time>2026-08-28T17:53:47Z</time>
  <course>0.0</course>
  <speed>0.0</speed>
  <fix>3d</fix>
</trkpt>
<trkpt lat="51.8752067" lon="14.648784">
  <ele>54.21</ele>
  <time>2026-08-28T17:53:48Z</time>
  <course>231.92</course>
  <speed>0.02</speed>
  <fix>3d</fix>
</trkpt>
<trkpt lat="51.8752066" lon="14.648784">
  <ele>54.15</ele>
  <time>2026-08-28T17:53:48Z</time>
  <course>0.0</course>
  <speed>0.0</speed>
  <fix>3d</fix>
</trkpt>
<trkpt lat="51.8752067" lon="14.648784">
  <ele>54.21</ele>
  <time>2026-08-28T17:53:48Z</time>
  <course>231.92</course>
  <speed>0.02</speed>
  <fix>3d</fix>
</trkpt>
<trkpt lat="51.8752066" lon="14.648784">
  <ele>54.15</ele>
  <time>2026-08-28T17:53:48Z</time>
  <course>0.0</course>
  <speed>0.0</speed>
  <fix>3d</fix>
</trkpt>
<trkpt lat="51.8752067" lon="14.648784">
  <ele>54.21</ele>
  <time>2026-08-28T17:53:48Z</time>
  <course>231.92</course>
  <speed>0.02</speed>
  <fix>3d</fix>
</trkpt>
<trkpt lat="51.8752066" lon="14.648784">
  <ele>54.15</ele>
  <time>2026-08-28T17:53:48Z</time>
  <course>0.0</course>
  <speed>0.0</speed>
  <fix>3d</fix>
</trkpt>
<trkpt lat="51.8752067" lon="14.648784">
  <ele>54.2</ele>
  <time>2026-08-28T17:53:48Z</time>
  <course>231.91</course>
  <speed>0.02</speed>
  <fix>3d</fix>
</trkpt>
<trkpt lat="51.8752066" lon="14.648784">
  <ele>54.15</ele>
  <time>2026-08-28T17:53:48Z</time>
  <course>0.0</course>
  <speed>0.0</speed>
  <fix>3d</fix>
</trkpt>
<trkpt lat="51.8752067" lon="14.648784">
  <ele>54.2</ele>
  <time>2026-08-28T17:53:48Z</time>
  <course>231.91</course>
  <speed>0.02</speed>
  <fix>3d</fix>
</trkpt>
<trkpt lat="51.8752066" lon="14.648784">
  <ele>54.15</ele>
  <time>2026-08-28T17:53:48Z</time>
  <course>0.0</course>
  <speed>0.0</speed>
  <fix>3d</fix>
</trkpt>
<trkpt lat="51.8752067" lon="14.648784">
  <ele>54.19</ele>
  <time>2026-08-28T17:53:48Z</time>
  <course>231.91</course>
  <speed>0.02</speed>
  <fix>3d</fix>
</trkpt>
<trkpt lat="51.8752066" lon="14.648784">
  <ele>54.15</ele>
  <time>2026-08-28T17:53:48Z</time>
  <course>0.0</course>
  <speed>0.0</speed>
  <fix>3d</fix>
</trkpt>
<trkpt lat="51.8752067" lon="14.648784">
  <ele>54.19</ele>
  <time>2026-08-28T17:53:48Z</time>
  <course>231.91</course>
  <speed>0.02</speed>
  <fix>3d</fix>
</trkpt>
<trkpt lat="51.8752066" lon="14.648784">
  <ele>54.15</ele>
  <time>2026-08-28T17:53:48Z</time>
  <course>0.0</course>
  <speed>0.0</speed>
  <fix>3d</fix>
</trkpt>
<trkpt lat="51.8752067" lon="14.648784">
  <ele>54.19</ele>
  <time>2026-08-28T17:53:48Z</time>
  <course>231.91</course>
  <speed>0.02</speed>
  <fix>3d</fix>
</trkpt>
<trkpt lat="51.8752066" lon="14.648784">
  <ele>54.15</ele>
  <time>2026-08-28T17:53:48Z</time>
  <course>0.0</course>
  <speed>0.0</speed>
  <fix>3d</fix>
</trkpt>
<trkpt lat="51.8752067" lon="14.648784">
  <ele>54.18</ele>
  <time>2026-08-28T17:53:48Z</time>
  <course>231.91</course>
  <speed>0.02</speed>
  <fix>3d</fix>
</trkpt>
<trkpt lat="51.8752066" lon="14.648784">
  <ele>54.15</ele>
  <time>2026-08-28T17:53:48Z</time>
  <course>0.0</course>
  <speed>0.0</speed>
  <fix>3d</fix>
</trkpt>
<trkpt lat="51.8752067" lon="14.648784">
  <ele>54.18</ele>
  <time>2026-08-28T17:53:48Z</time>
  <course>231.91</course>
  <speed>0.02</speed>
  <fix>3d</fix>
</trkpt>
<trkpt lat="51.8752066" lon="14.648784">
  <ele>54.15</ele>
  <time>2026-08-28T17:53:48Z</time>
  <course>0.0</course>
  <speed>0.0</speed>
  <fix>3d</fix>
</trkpt>
<trkpt lat="51.8752067" lon="14.648784">
  <ele>54.18</ele>
  <time>2026-08-28T17:53:48Z</time>
  <course>231.91</course>
  <speed>0.02</speed>
  <fix>3d</fix>
</trkpt>
<trkpt lat="51.8752066" lon="14.648784">
  <ele>54.15</ele>
  <time>2026-08-28T17:53:48Z</time>
  <course>0.0</course>
  <speed>0.0</speed>
  <fix>3d</fix>
</trkpt>
<trkpt lat="51.8752067" lon="14.648784">
  <ele>54.17</ele>
  <time>2026-08-28T17:53:48Z</time>
  <course>231.91</course>
  <speed>0.02</speed>
  <fix>3d</fix>
</trkpt>
<trkpt lat="51.8752066" lon="14.648784">
  <ele>54.15</ele>
  <time>2026-08-28T17:53:48Z</time>
  <course>0.0</course>
  <speed>0.0</speed>
  <fix>3d</fix>
</trkpt>
<trkpt lat="51.8752067" lon="14.648784">
  <ele>54.17</ele>
  <time>2026-08-28T17:53:48Z</time>
  <course>231.91</course>
  <speed>0.02</speed>
  <fix>3d</fix>
</trkpt>
<trkpt lat="51.8752066" lon="14.648784">
  <ele>54.15</ele>
  <time>2026-08-28T17:53:48Z</time>
  <course>0.0</course>
  <speed>0.0</speed>
  <fix>3d</fix>
</trkpt>
<trkpt lat="51.8752067" lon="14.648784">
  <ele>54.17</ele>
  <time>2026-08-28T17:53:48Z</time>
  <course>231.91</course>
  <speed>0.02</speed>
  <fix>3d</fix>
</trkpt>
<trkpt lat="51.8752066" lon="14.648784">
  <ele>54.15</ele>
  <time>2026-08-28T17:53:48Z</time>
  <course>0.0</course>
  <speed>0.0</speed>
  <fix>3d</fix>
</trkpt>
<trkpt lat="51.8752067" lon="14.648784">
  <ele>54.17</ele>
  <time>2026-08-28T17:53:48Z</time>
  <course>231.9</course>
  <speed>0.02</speed>
  <fix>3d</fix>
</trkpt>
<trkpt lat="51.8752066" lon="14.648784">
  <ele>54.15</ele>
  <time>2026-08-28T17:53:48Z</time>
  <course>0.0</course>
  <speed>0.0</speed>
  <fix>3d</fix>
</trkpt>
<trkpt lat="51.8752067" lon="14.648784">
  <ele>54.17</ele>
  <time>2026-08-28T17:53:48Z</time>
  <course>231.9</course>
  <speed>0.02</speed>
  <fix>3d</fix>
</trkpt>
<trkpt lat="51.8752066" lon="14.648784">
  <ele>54.15</ele>
  <time>2026-08-28T17:53:48Z</time>
  <course>0.0</course>
  <speed>0.0</speed>
  <fix>3d</fix>
</trkpt>
<trkpt lat="51.8752067" lon="14.648784">
  <ele>54.16</ele>
  <time>2026-08-28T17:53:48Z</time>
  <course>231.9</course>
  <speed>0.02</speed>
  <fix>3d</fix>
</trkpt>
<trkpt lat="51.8752066" lon="14.648784">
  <ele>54.15</ele>
  <time>2026-08-28T17:53:48Z</time>
  <course>0.0</course>
  <speed>0.0</speed>
  <fix>3d</fix>
</trkpt>
<trkpt lat="51.8752067" lon="14.648784">
  <ele>54.16</ele>
  <time>2026-08-28T17:53:48Z</time>
  <course>231.9</course>
  <speed>0.02</speed>
  <fix>3d</fix>
</trkpt>
<trkpt lat="51.8752066" lon="14.648784">
  <ele>54.15</ele>
  <time>2026-08-28T17:53:48Z</time>
  <course>0.0</course>
  <speed>0.0</speed>
  <fix>3d</fix>
</trkpt>
<trkpt lat="51.8752067" lon="14.648784">
  <ele>54.16</ele>
  <time>2026-08-28T17:53:48Z</time>
  <course>231.9</course>
  <speed>0.02</speed>
  <fix>3d</fix>
</trkpt>
<trkpt lat="51.8752066" lon="14.648784">
  <ele>54.15</ele>
  <time>2026-08-28T17:53:48Z</time>
  <course>0.0</course>
  <speed>0.0</speed>
  <fix>3d</fix>
</trkpt>
<trkpt lat="51.8752067" lon="14.648784">
  <ele>54.16</ele>
  <time>2026-08-28T17:53:48Z</time>
  <course>231.9</course>
  <speed>0.02</speed>
  <fix>3d</fix>
</trkpt>
<trkpt lat="51.8752066" lon="14.648784">
  <ele>54.15</ele>
  <time>2026-08-28T17:53:48Z</time>
  <course>0.0</course>
  <speed>0.0</speed>
  <fix>3d</fix>
</trkpt>
<trkpt lat="51.8752067" lon="14.648784">
  <ele>54.16</ele>
  <time>2026-08-28T17:53:48Z</time>
  <course>231.9</course>
  <speed>0.02</speed>
  <fix>3d</fix>
</trkpt>
<trkpt lat="51.8752066" lon="14.648784">
  <ele>54.15</ele>
  <time>2026-08-28T17:53:48Z</time>
  <course>0.0</course>
  <speed>0.0</speed>
  <fix>3d</fix>
</trkpt>
<trkpt lat="51.8752067" lon="14.648784">
  <ele>54.16</ele>
  <time>2026-08-28T17:53:48Z</time>
  <course>231.9</course>
  <speed>0.02</speed>
  <fix>3d</fix>
</trkpt>
<trkpt lat="51.8752066" lon="14.648784">
  <ele>54.15</ele>
  <time>2026-08-28T17:53:48Z</time>
  <course>0.0</course>
  <speed>0.0</speed>
  <fix>3d</fix>
</trkpt>
<trkpt lat="51.8752067" lon="14.648784">
  <ele>54.16</ele>
  <time>2026-08-28T17:53:48Z</time>
  <course>231.9</course>
  <speed>0.02</speed>
  <fix>3d</fix>
</trkpt>
<trkpt lat="51.8752066" lon="14.648784">
  <ele>54.15</ele>
  <time>2026-08-28T17:53:48Z</time>
  <course>0.0</course>
  <speed>0.0</speed>
  <fix>3d</fix>
</trkpt>
<trkpt lat="51.8752067" lon="14.648784">
  <ele>54.15</ele>
  <time>2026-08-28T17:53:48Z</time>
  <course>231.9</course>
  <speed>0.02</speed>
  <fix>3d</fix>
</trkpt>
<trkpt lat="51.8752066" lon="14.648784">
  <ele>54.15</ele>
  <time>2026-08-28T17:53:48Z</time>
  <course>0.0</course>
  <speed>0.0</speed>
  <fix>3d</fix>
</trkpt>
<trkpt lat="39.655741" lon="-104.1383097">
  <ele>1566.58</ele>
  <time>2026-08-28T17:53:51Z</time>
  <course>0.0</course>
  <speed>0.0</speed>
  <fix>3d</fix>
</trkpt>
<trkpt lat="40.0713749" lon="-105.229789">
  <ele>1583.0</ele>
  <time>2026-08-28T17:53:51Z</time>
  <course>0.0</course>
  <speed>0.0</speed>
  <fix>3d</fix>
</trkpt>
<trkpt lat="40.0713749" lon="-105.229789">
  <ele>1583.0</ele>
  <time>2026-08-28T17:53:51Z</time>
  <course>238.36</course>
  <speed>0.0</speed>
  <fix>3d</fix>
</trkpt>
<trkpt lat="40.0713749" lon="-105.229789">
  <ele>1583.0</ele>
  <time>2026-08-28T17:53:51Z</time>
  <course>0.0</course>
  <speed>0.0</speed>
  <fix>3d</fix>
</trkpt>
<trkpt lat="40.0713749" lon="-105.229789">
  <ele>1583.0</ele>
  <time>2026-08-28T17:53:51Z</time>
  <course>238.45</course>
  <speed>0.0</speed>
  <fix>3d</fix>
</trkpt>
<trkpt lat="40.0713749" lon="-105.229789">
  <ele>1583.0</ele>
  <time>2026-08-28T17:53:51Z</time>
  <course>0.0</course>
  <speed>0.0</speed>
  <fix>3d</fix>
</trkpt>
<trkpt lat="40.0713749" lon="-105.229789">
  <ele>1583.0</ele>
  <time>2026-08-28T17:53:51Z</time>
  <course>238.65</course>
  <speed>0.0</speed>
  <fix>3d</fix>
</trkpt>
<trkpt lat="40.0713749" lon="-105.229789">
  <ele>1583.0</ele>
  <time>2026-08-28T17:53:51Z</time>
  <course>0.0</course>
  <speed>0.0</speed>
  <fix>3d</fix>
</trkpt>
<trkpt lat="40.0713749" lon="-105.229789">
  <ele>1583.0</ele>
  <time>2026-08-28T17:53:51Z</time>
  <course>238.93</course>
  <speed>0.0</speed>
  <fix>3d</fix>
</trkpt>
<trkpt lat="40.0713749" lon="-105.229789">
  <ele>1583.0</ele>
  <time>2026-08-28T17:53:51Z</time>
  <course>0.0</course>
  <speed>0.0</speed>
  <fix>3d</fix>
</trkpt>
<trkpt lat="40.0713749" lon="-105.229789">
  <ele>1583.0</ele>
  <time>2026-08-28T17:53:51Z</time>
  <course>239.26</course>
  <speed>0.0</speed>
  <fix>3d</fix>
</trkpt>
<trkpt lat="40.0713749" lon="-105.229789">
  <ele>1583.0</ele>
  <time>2026-08-28T17:53:51Z</time>
  <course>0.0</course>
  <speed>0.0</speed>
  <fix>3d</fix>
</trkpt>
<trkpt lat="40.0713749" lon="-105.229789">
  <ele>1583.0</ele>
  <time>2026-08-28T17:53:51Z</time>
  <course>239.61</course>
  <speed>0.0</speed>
  <fix>3d</fix>
</trkpt>
<trkpt lat="40.0713749" lon="-105.229789">
  <ele>1583.0</ele>
  <time>2026-08-28T17:53:51Z</time>
  <course>0.0</course>
  <speed>0.0</speed>
  <fix>3d</fix>
</trkpt>
<trkpt lat="40.0713749" lon="-105.229789">
  <ele>1583.0</ele>
  <time>2026-08-28T17:53:51Z</time>
  <course>239.96</course>
  <speed>0.0</speed>
  <fix>3d</fix>
</trkpt>
<trkpt lat="40.0713749" lon="-105.229789">
  <ele>1583.0</ele>
  <time>2026-08-28T17:53:51Z</time>
  <course>0.0</course>
  <speed>0.0</speed>
  <fix>3d</fix>
</trkpt>
<trkpt lat="40.0713749" lon="-105.229789">
  <ele>1583.0</ele>
  <time>2026-08-28T17:53:51Z</time>
  <course>240.3</course>
  <speed>0.0</speed>
  <fix>3d</fix>
</trkpt>
<trkpt lat="40.0713749" lon="-105.229789">
  <ele>1583.0</ele>
  <time>2026-08-28T17:53:51Z</time>
  <course>0.0</course>
  <speed>0.0</speed>
  <fix>3d</fix>
</trkpt>
<trkpt lat="40.0713749" lon="-105.229789">
  <ele>1583.0</ele>
  <time>2026-08-28T17:53:51Z</time>
  <course>240.62</course>
  <speed>0.0</speed>
  <fix>3d</fix>
</trkpt>
<trkpt lat="40.0713749" lon="-105.229789">
  <ele>1583.0</ele>
  <time>2026-08-28T17:53:51Z</time>
  <course>0.0</course>
  <speed>0.0</speed>
  <fix>3d</fix>
</trkpt>
<trkpt lat="40.0713749" lon="-105.229789">
  <ele>1583.0</ele>
  <time>2026-08-28T17:53:51Z</time>
  <course>240.92</course>
  <speed>0.0</speed>
  <fix>3d</fix>
</trkpt>
<trkpt lat="40.0713749" lon="-105.229789">
  <ele>1583.0</ele>
  <time>2026-08-28T17:53:51Z</time>
  <course>0.0</course>
  <speed>0.0</speed>
  <fix>3d</fix>
</trkpt>
<trkpt lat="40.0713749" lon="-105.229789">
  <ele>1583.0</ele>
  <time>2026-08-28T17:53:51Z</time>
  <course>241.21</course>
  <speed>0.0</speed>
  <fix>3d</fix>
</trkpt>
<trkpt lat="40.0713749" lon="-105.229789">
  <ele>1583.0</ele>
  <time>2026-08-28T17:53:51Z</time>
  <course>0.0</course>
  <speed>0.0</speed>
  <fix>3d</fix>
</trkpt>
<trkpt lat="40.0713749" lon="-105.229789">
  <ele>1583.0</ele>
  <time>2026-08-28T17:53:51Z</time>
  <course>241.49</course>
  <speed>0.0</speed>
  <fix>3d</fix>
</trkpt>
<trkpt lat="40.0713749" lon="-105.229789">
  <ele>1583.0</ele>
  <time>2026-08-28T17:53:51Z</time>
  <course>0.0</course>
  <speed>0.0</speed>
  <fix>3d</fix>
</trkpt>
<trkpt lat="40.0713749" lon="-105.229789">
  <ele>1583.0</ele>
  <time>2026-08-28T17:53:51Z</time>
  <course>241.77</course>
  <speed>0.0</speed>
  <fix>3d</fix>
</trkpt>
<trkpt lat="40.0713749" lon="-105.229789">
  <ele>1583.0</ele>
  <time>2026-08-28T17:53:51Z</time>
  <course>0.0</course>
  <speed>0.0</speed>
  <fix>3d</fix>
</trkpt>
<trkpt lat="40.0713749" lon="-105.229789">
  <ele>1583.0</ele>
  <time>2026-08-28T17:53:51Z</time>
  <course>242.04</course>
  <speed>0.0</speed>
  <fix>3d</fix>
</trkpt>
<trkpt lat="40.0713749" lon="-105.229789">
  <ele>1583.0</ele>
  <time>2026-08-28T17:53:51Z</time>
  <course>0.0</course>
  <speed>0.0</speed>
  <fix>3d</fix>
</trkpt>
<trkpt lat="40.0713749" lon="-105.229789">
  <ele>1583.0</ele>
  <time>2026-08-28T17:53:51Z</time>
  <course>242.29</course>
  <speed>0.0</speed>
  <fix>3d</fix>
</trkpt>
<trkpt lat="40.0713749" lon="-105.229789">
  <ele>1583.0</ele>
  <time>2026-08-28T17:53:51Z</time>
  <course>0.0</course>
  <speed>0.0</speed>
  <fix>3d</fix>
</trkpt>
<trkpt lat="39.655741" lon="-104.1383097">
  <ele>1566.58</ele>
  <time>2026-08-28T17:53:53Z</time>
  <course>0.0</course>
  <speed>0.0</speed>
  <fix>3d</fix>
</trkpt>
<trkpt lat="40.0713749" lon="-105.229789">
  <ele>1583.0</ele>
  <time>2026-08-28T17:53:53Z</time>
  <course>0.0</course>
  <speed>0.0</speed>
  <fix>3d</fix>
</trkpt>
<trkpt lat="40.0713749" lon="-105.229789">
  <ele>1583.0</ele>
  <time>2026-08-28T17:53:53Z</time>
  <course>238.36</course>
  <speed>0.0</speed>
  <fix>3d</fix>
</trkpt>
<trkpt lat="40.0713749" lon="-105.229789">
  <ele>1583.0</ele>
  <time>2026-08-28T17:53:53Z</time>
  <course>0.0</course>
  <speed>0.0</speed>
  <fix>3d</fix>
</trkpt>
<trkpt lat="40.0713749" lon="-105.229789">
  <ele>1583.0</ele>
  <time>2026-08-28T17:53:53Z</time>
  <course>238.44</course>
  <speed>0.0</speed>
  <fix>3d</fix>
</trkpt>
<trkpt lat="40.0713749" lon="-105.229789">
  <ele>1583.0</ele>
  <time>2026-08-28T17:53:53Z</time>
  <course>0.0</course>
  <speed>0.0</speed>
  <fix>3d</fix>
</trkpt>
<trkpt lat="40.0713749" lon="-105.229789">
  <ele>1583.0</ele>
  <time>2026-08-28T17:53:53Z</time>
  <course>238.64</course>
  <speed>0.0</speed>
  <fix>3d</fix>
</trkpt>
<trkpt lat="40.0713749" lon="-105.229789">
  <ele>1583.0</ele>
  <time>2026-08-28T17:53:53Z</time>
  <course>0.0</course>
  <speed>0.0</speed>
  <fix>3d</fix>
</trkpt>
<trkpt lat="40.0713749" lon="-105.229789">
  <ele>1583.0</ele>
  <time>2026-08-28T17:53:53Z</time>
  <course>238.93</course>
  <speed>0.0</speed>
  <fix>3d</fix>
</trkpt>
<trkpt lat="40.0713749" lon="-105.229789">
  <ele>1583.0</ele>
  <time>2026-08-28T17:53:53Z</time>
  <course>0.0</course>
  <speed>0.0</speed>
  <fix>3d</fix>
</trkpt>
<trkpt lat="40.0713749" lon="-105.229789">
  <ele>1583.0</ele>
  <time>2026-08-28T17:53:53Z</time>
  <course>239.26</course>
  <speed>0.0</speed>
  <fix>3d</fix>
</trkpt>
<trkpt lat="40.0713749" lon="-105.229789">
  <ele>1583.0</ele>
  <time>2026-08-28T17:53:53Z</time>
  <course>0.0</course>
  <speed>0.0</speed>
  <fix>3d</fix>
</trkpt>
<trkpt lat="40.0713749" lon="-105.229789">
  <ele>1583.0</ele>
  <time>2026-08-28T17:53:53Z</time>
  <course>239.61</course>
  <speed>0.0</speed>
  <fix>3d</fix>
</trkpt>
<trkpt lat="40.0713749" lon="-105.229789">
  <ele>1583.0</ele>
  <time>2026-08-28T17:53:53Z</time>
  <course>0.0</course>
  <speed>0.0</speed>
  <fix>3d</fix>
</trkpt>
<trkpt lat="40.0713749" lon="-105.229789">
  <ele>1583.0</ele>
  <time>2026-08-28T17:53:53Z</time>
  <course>239.96</course>
  <speed>0.0</speed>
  <fix>3d</fix>
</trkpt>
<trkpt lat="40.0713749" lon="-105.229789">
  <ele>1583.0</ele>
  <time>2026-08-28T17:53:53Z</time>
  <course>0.0</course>
  <speed>0.0</speed>
  <fix>3d</fix>
</trkpt>
<trkpt lat="40.0713749" lon="-105.229789">
  <ele>1583.0</ele>
  <time>2026-08-28T17:53:53Z</time>
  <course>240.29</course>
  <speed>0.0</speed>
  <fix>3d</fix>
</trkpt>
<trkpt lat="40.0713749" lon="-105.229789">
  <ele>1583.0</ele>
  <time>2026-08-28T17:53:53Z</time>
  <course>0.0</course>
  <speed>0.0</speed>
  <fix>3d</fix>
</trkpt>
<trkpt lat="40.0713749" lon="-105.229789">
  <ele>1583.0</ele>
  <time>2026-08-28T17:53:53Z</time>
  <course>240.61</course>
  <speed>0.0</speed>
  <fix>3d</fix>
</trkpt>
<trkpt lat="40.0713749" lon="-105.229789">
  <ele>1583.0</ele>
  <time>2026-08-28T17:53:53Z</time>
  <course>0.0</course>
  <speed>0.0</speed>
  <fix>3d</fix>
</trkpt>
<trkpt lat="40.0713749" lon="-105.229789">
  <ele>1583.0</ele>
  <time>2026-08-28T17:53:53Z</time>
  <course>240.92</course>
  <speed>0.0</speed>
  <fix>3d</fix>
</trkpt>
<trkpt lat="40.0713749" lon="-105.229789">
  <ele>1583.0</ele>
  <time>2026-08-28T17:53:53Z</time>
  <course>0.0</course>
  <speed>0.0</speed>
  <fix>3d</fix>
</trkpt>
<trkpt lat="40.0713749" lon="-105.229789">
  <ele>1583.0</ele>
  <time>2026-08-28T17:53:53Z</time>
  <course>241.21</course>
  <speed>0.0</speed>
  <fix>3d</fix>
</trkpt>
<trkpt lat="40.0713749" lon="-105.229789">
  <ele>1583.0</ele>
  <time>2026-08-28T17:53:53Z</time>
  <course>0.0</course>
  <speed>0.0</speed>
  <fix>3d</fix>
</trkpt>
<trkpt lat="40.0713749" lon="-105.229789">
  <ele>1583.0</ele>
  <time>2026-08-28T17:53:53Z</time>
  <course>241.49</course>
  <speed>0.0</speed>
  <fix>3d</fix>
</trkpt>
<trkpt lat="40.0713749" lon="-105.229789">
  <ele>1583.0</ele>
  <time>2026-08-28T17:53:53Z</time>
  <course>0.0</course>
  <speed>0.0</speed>
  <fix>3d</fix>
</trkpt>
<trkpt lat="40.0713749" lon="-105.229789">
  <ele>1583.0</ele>
  <time>2026-08-28T17:53:53Z</time>
  <course>241.77</course>
  <speed>0.0</speed>
  <fix>3d</fix>
</trkpt>
<trkpt lat="40.0713749" lon="-105.229789">
  <ele>1583.0</ele>
  <time>2026-08-28T17:53:53Z</time>
  <course>0.0</course>
  <speed>0.0</speed>
  <fix>3d</fix>
</trkpt>
<trkpt lat="40.0713749" lon="-105.229789">
  <ele>1583.0</ele>
  <time>2026-08-28T17:53:53Z</time>
  <course>242.03</course>
  <speed>0.0</speed>
  <fix>3d</fix>
</trkpt>
<trkpt lat="40.0713749" lon="-105.229789">
  <ele>1583.0</ele>
  <time>2026-08-28T17:53:53Z</time>
  <course>0.0</course>
  <speed>0.0</speed>
  <fix>3d</fix>
</trkpt>
<trkpt lat="40.0713749" lon="-105.229789">
  <ele>1583.0</ele>
  <time>2026-08-28T17:53:53Z</time>
  <course>242.29</course>
  <speed>0.0</speed>
  <fix>3d</fix>
</trkpt>
<trkpt lat="40.0713749" lon="-105.229789">
  <ele>1583.0</ele>
  <time>2026-08-28T17:53:53Z</time>
  <course>0.0</course>
  <speed>0.0</speed>
  <fix>3d</fix>
</trkpt>
<trkpt lat="40.0713749" lon="-105.229789">
  <ele>1583.0</ele>
  <time>2026-08-28T17:53:53Z</time>
  <course>242.54</course>
  <speed>0.0</speed>
  <fix>3d</fix>
</trkpt>
<trkpt lat="40.0713749" lon="-105.229789">
  <ele>1583.0</ele>
  <time>2026-08-28T17:53:53Z</time>
  <course>0.0</course>
  <speed>0.0</speed>
  <fix>3d</fix>
</trkpt>
<trkpt lat="40.0713749" lon="-105.229789">
  <ele>1583.0</ele>
  <time>2026-08-28T17:53:54Z</time>
  <course>242.79</course>
  <speed>0.0</speed>
  <fix>3d</fix>
</trkpt>
<trkpt lat="40.0713749" lon="-105.229789">
  <ele>1583.0</ele>
  <time>2026-08-28T17:53:54Z</time>
  <course>0.0</course>
  <speed>0.0</speed>
  <fix>3d</fix>
</trkpt>
<trkpt lat="40.0713749" lon="-105.229789">
  <ele>1583.0</ele>
  <time>2026-08-28T17:53:54Z</time>
  <course>243.02</course>
  <speed>0.0</speed>
  <fix>3d</fix>
</trkpt>
<trkpt lat="40.0713749" lon="-105.229789">
  <ele>1583.0</ele>
  <time>2026-08-28T17:53:54Z</time>
  <course>0.0</course>
  <speed>0.0</speed>
  <fix>3d</fix>
</trkpt>
<trkpt lat="40.0713749" lon="-105.229789">
  <ele>1583.0</ele>
  <time>2026-08-28T17:53:54Z</time>
  <course>243.25</course>
  <speed>0.0</speed>
  <fix>3d</fix>
</trkpt>
<trkpt lat="40.0713749" lon="-105.229789">
  <ele>1583.0</ele>
  <time>2026-08-28T17:53:54Z</time>
  <course>0.0</course>
  <speed>0.0</speed>
  <fix>3d</fix>
</trkpt>
<trkpt lat="40.0713749" lon="-105.229789">
  <ele>1583.0</ele>
  <time>2026-08-28T17:53:54Z</time>
  <course>243.47</course>
  <speed>0.0</speed>
  <fix>3d</fix>
</trkpt>
<trkpt lat="40.0713749" lon="-105.229789">
  <ele>1583.0</ele>
  <time>2026-08-28T17:53:54Z</time>
  <course>0.0</course>
  <speed>0.0</speed>
  <fix>3d</fix>
</trkpt>
<trkpt lat="40.0713749" lon="-105.229789">
  <ele>1583.0</ele>
  <time>2026-08-28T17:53:54Z</time>
  <course>243.68</course>
  <speed>0.0</speed>
  <fix>3d</fix>
</trkpt>
<trkpt lat="40.0713749" lon="-105.229789">
  <ele>1583.0</ele>
  <time>2026-08-28T17:53:54Z</time>
  <course>0.0</course>
  <speed>0.0</speed>
  <fix>3d</fix>
</trkpt>
<trkpt lat="40.0713749" lon="-105.229789">
  <ele>1583.0</ele>
  <time>2026-08-28T17:53:54Z</time>
  <course>243.89</course>
  <speed>0.0</speed>
  <fix>3d</fix>
</trkpt>
<trkpt lat="40.0713749" lon="-105.229789">
  <ele>1583.0</ele>
  <time>2026-08-28T17:53:54Z</time>
  <course>0.0</course>
  <speed>0.0</speed>
  <fix>3d</fix>
</trkpt>
<trkpt lat="40.0713749" lon="-105.229789">
  <ele>1583.0</ele>
  <time>2026-08-28T17:53:54Z</time>
  <course>244.09</course>
  <speed>0.0</speed>
  <fix>3d</fix>
</trkpt>
<trkpt lat="40.0713749" lon="-105.229789">
  <ele>1583.0</ele>
  <time>2026-08-28T17:53:54Z</time>
  <course>0.0</course>
  <speed>0.0</speed>
  <fix>3d</fix>
</trkpt>
<trkpt lat="40.0713749" lon="-105.229789">
  <ele>1583.0</ele>
  <time>2026-08-28T17:53:54Z</time>
  <course>244.28</course>
  <speed>0.0</speed>
  <fix>3d</fix>
</trkpt>
<trkpt lat="40.0713749" lon="-105.229789">
  <ele>1583.0</ele>
  <time>2026-08-28T17:53:54Z</time>
  <course>0.0</course>
  <speed>0.0</speed>
  <fix>3d</fix>
</trkpt>
<trkpt lat="40.0713749" lon="-105.229789">
  <ele>1583.0</ele>
  <time>2026-08-28T17:53:54Z</time>
  <course>244.46</course>
  <speed>0.0</speed>
  <fix>3d</fix>
</trkpt>
<trkpt lat="40.0713749" lon="-105.229789">
  <ele>1583.0</ele>
  <time>2026-08-28T17:53:54Z</time>
  <course>0.0</course>
  <speed>0.0</speed>
  <fix>3d</fix>
</trkpt>
<trkpt lat="40.0713749" lon="-105.229789">
  <ele>1583.0</ele>
  <time>2026-08-28T17:53:54Z</time>
  <course>244.64</course>
  <speed>0.0</speed>
  <fix>3d</fix>
</trkpt>
<trkpt lat="40.0713749" lon="-105.229789">
  <ele>1583.0</ele>
  <time>2026-08-28T17:53:54Z</time>
  <course>0.0</course>
  <speed>0.0</speed>
  <fix>3d</fix>
</trkpt>
<trkpt lat="40.0713749" lon="-105.229789">
  <ele>1583.0</ele>
  <time>2026-08-28T17:53:54Z</time>
  <course>244.81</course>
  <speed>0.0</speed>
  <fix>3d</fix>
</trkpt>
<trkpt lat="40.0713749" lon="-105.229789">
  <ele>1583.0</ele>
  <time>2026-08-28T17:53:54Z</time>
  <course>0.0</course>
  <speed>0.0</speed>
  <fix>3d</fix>
</trkpt>
<trkpt lat="40.0713749" lon="-105.229789">
  <ele>1583.0</ele>
  <time>2026-08-28T17:53:54Z</time>
  <course>244.97</course>
  <speed>0.0</speed>
  <fix>3d</fix>
</trkpt>
<trkpt lat="40.0713749" lon="-105.229789">
  <ele>1583.0</ele>
  <time>2026-08-28T17:53:54Z</time>
  <course>0.0</course>
  <speed>0.0</speed>
  <fix>3d</fix>
</trkpt>
<trkpt lat="40.0713749" lon="-105.229789">
  <ele>1583.0</ele>
  <time>2026-08-28T17:53:54Z</time>
  <course>245.13</course>
  <speed>0.0</speed>
  <fix>3d</fix>
</trkpt>
<trkpt lat="40.0713749" lon="-105.229789">
  <ele>1583.0</ele>
  <time>2026-08-28T17:53:54Z</time>
  <course>0.0</course>
  <speed>0.0</speed>
  <fix>3d</fix>
</trkpt>
<trkpt lat="40.0713749" lon="-105.229789">
  <ele>1583.0</ele>
  <time>2026-08-28T17:53:54Z</time>
  <course>245.29</course>
  <speed>0.0</speed>
  <fix>3d</fix>
</trkpt>
<trkpt lat="40.0713749" lon="-105.229789">
  <ele>1583.0</ele>
  <time>2026-08-28T17:53:54Z</time>
  <course>0.0</course>
  <speed>0.0</speed>
  <fix>3d</fix>
</trkpt>
<trkpt lat="40.0713749" lon="-105.229789">
  <ele>1583.0</ele>
  <time>2026-08-28T17:53:54Z</time>
  <course>245.43</course>
  <speed>0.0</speed>
  <fix>3d</fix>
</trkpt>
<trkpt lat="40.0713749" lon="-105.229789">
  <ele>1583.0</ele>
  <time>2026-08-28T17:53:54Z</time>
  <course>0.0</course>
  <speed>0.0</speed>
  <fix>3d</fix>
</trkpt>
<trkpt lat="40.0713749" lon="-105.229789">
  <ele>1583.0</ele>
  <time>2026-08-28T17:53:54Z</time>
  <course>245.57</course>
  <speed>0.0</speed>
  <fix>3d</fix>
</trkpt>
<trkpt lat="40.0713749" lon="-105.229789">
  <ele>1583.0</ele>
  <time>2026-08-28T17:53:54Z</time>
  <course>0.0</course>
  <speed>0.0</speed>
  <fix>3d</fix>
</trkpt>
<trkpt lat="40.0713749" lon="-105.229789">
  <ele>1583.0</ele>
  <time>2026-08-28T17:53:54Z</time>
  <course>245.71</course>
  <speed>0.0</speed>
  <fix>3d</fix>
</trkpt>
<trkpt lat="40.0713749" lon="-105.229789">
  <ele>1583.0</ele>
  <time>2026-08-28T17:53:54Z</time>
  <course>0.0</course>
  <speed>0.0</speed>
  <fix>3d</fix>
</trkpt>
<trkpt lat="40.0713749" lon="-105.229789">
  <ele>1583.0</ele>
  <time>2026-08-28T17:53:54Z</time>
  <course>245.84</course>
  <speed>0.0</speed>
  <fix>3d</fix>
</trkpt>
<trkpt lat="40.0713749" lon="-105.229789">
  <ele>1583.0</ele>
  <time>2026-08-28T17:53:54Z</time>
  <course>0.0</course>
  <speed>0.0</speed>
  <fix>3d</fix>
</trkpt>
<trkpt lat="40.0713749" lon="-105.229789">
  <ele>1583.0</ele>
  <time>2026-08-28T17:53:54Z</time>
  <course>245.96</course>
  <speed>0.0</speed>
  <fix>3d</fix>
</trkpt>
<trkpt lat="40.0713749" lon="-105.229789">
  <ele>1583.0</ele>
  <time>2026-08-28T17:53:54Z</time>
  <course>0.0</course>
  <speed>0.0</speed>
  <fix>3d</fix>
</trkpt>
<trkpt lat="40.0713749" lon="-105.229789">
  <ele>1583.0</ele>
  <time>2026-08-28T17:53:54Z</time>
  <course>246.08</course>
  <speed>0.0</speed>
  <fix>3d</fix>
</trkpt>
<trkpt lat="40.0713749" lon="-105.229789">
  <ele>1583.0</ele>
  <time>2026-08-28T17:53:54Z</time>
  <course>0.0</course>
  <speed>0.0</speed>
  <fix>3d</fix>
</trkpt>
<trkpt lat="40.0713749" lon="-105.229789">
  <ele>1583.0</ele>
  <time>2026-08-28T17:53:54Z</time>
  <course>246.19</course>
  <speed>0.0</speed>
  <fix>3d</fix>
</trkpt>
<trkpt lat="40.0713749" lon="-105.229789">
  <ele>1583.0</ele>
  <time>2026-08-28T17:53:54Z</time>
  <course>0.0</course>
  <speed>0.0</speed>
  <fix>3d</fix>
</trkpt>
<trkpt lat="40.0713749" lon="-105.229789">
  <ele>1583.0</ele>
  <time>2026-08-28T17:53:54Z</time>
  <course>246.3</course>
  <speed>0.0</speed>
  <fix>3d</fix>
</trkpt>
<trkpt lat="40.0713749" lon="-105.229789">
  <ele>1583.0</ele>
  <time>2026-08-28T17:53:54Z</time>
  <course>0.0</course>
  <speed>0.0</speed>
  <fix>3d</fix>
</trkpt>
<trkpt lat="40.0713749" lon="-105.229789">
  <ele>1583.0</ele>
  <time>2026-08-28T17:53:54Z</time>
  <course>246.41</course>
  <speed>0.0</speed>
  <fix>3d</fix>
</trkpt>
<trkpt lat="40.0713749" lon="-105.229789">
  <ele>1583.0</ele>
  <time>2026-08-28T17:53:54Z</time>
  <course>0.0</course>
  <speed>0.0</speed>
  <fix>3d</fix>
</trkpt>
<trkpt lat="40.0713749" lon="-105.229789">
  <ele>1583.0</ele>
  <time>2026-08-28T17:53:54Z</time>
  <course>246.51</course>
  <speed>0.0</speed>
  <fix>3d</fix>
</trkpt>
<trkpt lat="40.0713749" lon="-105.229789">
  <ele>1583.0</ele>
  <time>2026-08-28T17:53:54Z</time>
  <course>0.0</course>
  <speed>0.0</speed>
  <fix>3d</fix>
</trkpt>
<trkpt lat="40.0713749" lon="-105.229789">
  <ele>1583.0</ele>
  <time>2026-08-28T17:53:54Z</time>
  <course>246.6</course>
  <speed>0.0</speed>
  <fix>3d</fix>
</trkpt>
<trkpt lat="40.0713749" lon="-105.229789">
  <ele>1583.0</ele>
  <time>2026-08-28T17:53:54Z</time>
  <course>0.0</course>
  <speed>0.0</speed>
  <fix>3d</fix>
</trkpt>
<trkpt lat="40.0713749" lon="-105.229789">
  <ele>1583.0</ele>
  <time>2026-08-28T17:53:54Z</time>
  <course>246.7</course>
  <speed>0.0</speed>
  <fix>3d</fix>
</trkpt>
<trkpt lat="40.0713749" lon="-105.229789">
  <ele>1583.0</ele>
  <time>2026-08-28T17:53:54Z</time>
  <course>0.0</course>
  <speed>0.0</speed>
  <fix>3d</fix>
</trkpt>
<trkpt lat="40.0713749" lon="-105.229789">
  <ele>1583.0</ele>
  <time>2026-08-28T17:53:54Z</time>
  <course>246.78</course>
  <speed>0.0</speed>
  <fix>3d</fix>
</trkpt>
<trkpt lat="40.0713749" lon="-105.229789">
  <ele>1583.0</ele>
  <time>2026-08-28T17:53:54Z</time>
  <course>0.0</course>
  <speed>0.0</speed>
  <fix>3d</fix>
</trkpt>
<trkpt lat="40.0713749" lon="-105.229789">
  <ele>1583.0</ele>
  <time>2026-08-28T17:53:54Z</time>
  <course>246.87</course>
  <speed>0.0</speed>
  <fix>3d</fix>
</trkpt>
<trkpt lat="40.0713749" lon="-105.229789">
  <ele>1583.0</ele>
  <time>2026-08-28T17:53:54Z</time>
  <course>0.0</course>
  <speed>0.0</speed>
  <fix>3d</fix>
</trkpt>
<trkpt lat="40.0713749" lon="-105.229789">
  <ele>1583.0</ele>
  <time>2026-08-28T17:53:54Z</time>
  <course>246.95</course>
  <speed>0.0</speed>
  <fix>3d</fix>
</trkpt>
<trkpt lat="40.0713749" lon="-105.229789">
  <ele>1583.0</ele>
  <time>2026-08-28T17:53:54Z</time>
  <course>0.0</course>
  <speed>0.0</speed>
  <fix>3d</fix>
</trkpt>
<trkpt lat="40.0713749" lon="-105.229789">
  <ele>1583.0</ele>
  <time>2026-08-28T17:53:54Z</time>
  <course>247.02</course>
  <speed>0.0</speed>
  <fix>3d</fix>
</trkpt>
<trkpt lat="40.0713749" lon="-105.229789">
  <ele>1583.0</ele>
  <time>2026-08-28T17:53:54Z</time>
  <course>0.0</course>
  <speed>0.0</speed>
  <fix>3d</fix>
</trkpt>
<trkpt lat="40.0713749" lon="-105.229789">
  <ele>1583.0</ele>
  <time>2026-08-28T17:53:54Z</time>
  <course>247.1</course>
  <speed>0.0</speed>
  <fix>3d</fix>
</trkpt>
<trkpt lat="40.0713749" lon="-105.229789">
  <ele>1583.0</ele>
  <time>2026-08-28T17:53:54Z</time>
  <course>0.0</course>
  <speed>0.0</speed>
  <fix>3d</fix>
</trkpt>
<trkpt lat="40.0713749" lon="-105.229789">
  <ele>1583.0</ele>
  <time>2026-08-28T17:53:54Z</time>
  <course>247.17</course>
  <speed>0.0</speed>
  <fix>3d</fix>
</trkpt>
<trkpt lat="40.0713749" lon="-105.229789">
  <ele>1583.0</ele>
  <time>2026-08-28T17:53:54Z</time>
  <course>0.0</course>
  <speed>0.0</speed>
  <fix>3d</fix>
</trkpt>
<trkpt lat="40.0713749" lon="-105.229789">
  <ele>1583.0</ele>
  <time>2026-08-28T17:53:54Z</time>
  <course>247.24</course>
  <speed>0.0</speed>
  <fix>3d</fix>
</trkpt>
<trkpt lat="40.0713749" lon="-105.229789">
  <ele>1583.0</ele>
  <time>2026-08-28T17:53:54Z</time>
  <course>0.0</course>
  <speed>0.0</speed>
  <fix>3d</fix>
</trkpt>
<trkpt lat="40.0713749" lon="-105.229789">
  <ele>1583.0</ele>
  <time>2026-08-28T17:53:54Z</time>
  <course>247.3</course>
  <speed>0.0</speed>
  <fix>3d</fix>
</trkpt>
<trkpt lat="40.0713749" lon="-105.229789">
  <ele>1583.0</ele>
  <time>2026-08-28T17:53:54Z</time>
  <course>0.0</course>
  <speed>0.0</speed>
  <fix>3d</fix>
</trkpt>
<trkpt lat="40.0713749" lon="-105.229789">
  <ele>1583.0</ele>
  <time>2026-08-28T17:53:54Z</time>
  <course>247.36</course>
  <speed>0.0</speed>
  <fix>3d</fix>
</trkpt>
<trkpt lat="40.0713749" lon="-105.229789">
  <ele>1583.0</ele>
  <time>2026-08-28T17:53:54Z</time>
  <course>0.0</course>
  <speed>0.0</speed>
  <fix>3d</fix>
</trkpt>
<trkpt lat="40.0713749" lon="-105.229789">
  <ele>1583.0</ele>
  <time>2026-08-28T17:53:54Z</time>
  <course>247.42</course>
  <speed>0.0</speed>
  <fix>3d</fix>
</trkpt>
<trkpt lat="40.0713749" lon="-105.229789">
  <ele>1583.0</ele>
  <time>2026-08-28T17:53:54Z</time>
  <course>0.0</course>
  <speed>0.0</speed>
  <fix>3d</fix>
</trkpt>
<trkpt lat="40.0713749" lon="-105.229789">
  <ele>1583.0</ele>
  <time>2026-08-28T17:53:54Z</time>
  <course>247.47</course>
  <speed>0.0</speed>
  <fix>3d</fix>
</trkpt>
<trkpt lat="40.0713749" lon="-105.229789">
  <ele>1583.0</ele>
  <time>2026-08-28T17:53:54Z</time>
  <course>0.0</course>
  <speed>0.0</speed>
  <fix>3d</fix>
</trkpt>
<trkpt lat="40.0713749" lon="-105.229789">
  <ele>1583.0</ele>
  <time>2026-08-28T17:53:54Z</time>
  <course>247.53</course>
  <speed>0.0</speed>
  <fix>3d</fix>
</trkpt>
<trkpt lat="40.0713749" lon="-105.229789">
  <ele>1583.0</ele>
  <time>2026-08-28T17:53:54Z</time>
  <course>0.0</course>
  <speed>0.0</speed>
  <fix>3d</fix>
</trkpt>
<trkpt lat="40.0713749" lon="-105.229789">
  <ele>1583.0</ele>
  <time>2026-08-28T17:53:54Z</time>
  <course>247.58</course>
  <speed>0.0</speed>
  <fix>3d</fix>
</trkpt>
<trkpt lat="40.0713749" lon="-105.229789">
  <ele>1583.0</ele>
  <time>2026-08-28T17:53:54Z</time>
  <course>0.0</course>
  <speed>0.0</speed>
  <fix>3d</fix>
</trkpt>
<trkpt lat="40.0713749" lon="-105.229789">
  <ele>1583.0</ele>
  <time>2026-08-28T17:53:54Z</time>
  <course>247.63</course>
  <speed>0.0</speed>
  <fix>3d</fix>
</trkpt>
<trkpt lat="40.0713749" lon="-105.229789">
  <ele>1583.0</ele>
  <time>2026-08-28T17:53:54Z</time>
  <course>0.0</course>
  <speed>0.0</speed>
  <fix>3d</fix>
</trkpt>
<trkpt lat="40.0713749" lon="-105.229789">
  <ele>1583.0</ele>
  <time>2026-08-28T17:53:54Z</time>
  <course>247.67</course>
  <speed>0.0</speed>
  <fix>3d</fix>
</trkpt>
<trkpt lat="40.0713749" lon="-105.229789">
  <ele>1583.0</ele>
  <time>2026-08-28T17:53:54Z</time>
  <course>0.0</course>
  <speed>0.0</speed>
  <fix>3d</fix>
</trkpt>
<trkpt lat="40.0713749" lon="-105.229789">
  <ele>1583.0</ele>
  <time>2026-08-28T17:53:54Z</time>
  <course>247.72</course>
  <speed>0.0</speed>
  <fix>3d</fix>
</trkpt>
<trkpt lat="40.0713749" lon="-105.229789">
  <ele>1583.0</ele>
  <time>2026-08-28T17:53:54Z</time>
  <course>0.0</course>
  <speed>0.0</speed>
  <fix>3d</fix>
</trkpt>
<trkpt lat="40.0713749" lon="-105.229789">
  <ele>1583.0</ele>
  <time>2026-08-28T17:53:54Z</time>
  <course>247.76</course>
  <speed>0.0</speed>
  <fix>3d</fix>
</trkpt>
<trkpt lat="40.0713749" lon="-105.229789">
  <ele>1583.0</ele>
  <time>2026-08-28T17:53:54Z</time>
  <course>0.0</course>
  <speed>0.0</speed>
  <fix>3d</fix>
</trkpt>
<trkpt lat="40.0713749" lon="-105.229789">
  <ele>1583.0</ele>
  <time>2026-08-28T17:53:54Z</time>
  <course>247.8</course>
  <speed>0.0</speed>
  <fix>3d</fix>
</trkpt>
<trkpt lat="40.0713749" lon="-105.229789">
  <ele>1583.0</ele>
  <time>2026-08-28T17:53:54Z</time>
  <course>0.0</course>
  <speed>0.0</speed>
  <fix>3d</fix>
</trkpt>
<trkpt lat="40.0713749" lon="-105.229789">
  <ele>1583.0</ele>
  <time>2026-08-28T17:53:54Z</time>
  <course>247.83</course>
  <speed>0.0</speed>
  <fix>3d</fix>
</trkpt>
<trkpt lat="40.0713749" lon="-105.229789">
  <ele>1583.0</ele>
  <time>2026-08-28T17:53:54Z</time>
  <course>0.0</course>
  <speed>0.0</speed>
  <fix>3d</fix>
</trkpt>
<trkpt lat="40.0713749" lon="-105.229789">
  <ele>1583.0</ele>
  <time>2026-08-28T17:53:54Z</time>
  <course>247.87</course>
  <speed>0.0</speed>
  <fix>3d</fix>
</trkpt>
<trkpt lat="40.0713749" lon="-105.229789">
  <ele>1583.0</ele>
  <time>2026-08-28T17:53:54Z</time>
  <course>0.0</course>
  <speed>0.0</speed>
  <fix>3d</fix>
</trkpt>
<trkpt lat="40.0713749" lon="-105.229789">
  <ele>1583.0</ele>
  <time>2026-08-28T17:53:54Z</time>
  <course>247.9</course>
  <speed>0.0</speed>
  <fix>3d</fix>
</trkpt>
<trkpt lat="40.0713749" lon="-105.229789">
  <ele>1583.0</ele>
  <time>2026-08-28T17:53:54Z</time>
  <course>0.0</course>
  <speed>0.0</speed>
  <fix>3d</fix>
</trkpt>
<trkpt lat="40.0713749" lon="-105.229789">
  <ele>1583.0</ele>
  <time>2026-08-28T17:53:54Z</time>
  <course>247.94</course>
  <speed>0.0</speed>
  <fix>3d</fix>
</trkpt>
<trkpt lat="40.0713749" lon="-105.229789">
  <ele>1583.0</ele>
  <time>2026-08-28T17:53:54Z</time>
  <course>0.0</course>
  <speed>0.0</speed>
  <fix>3d</fix>
</trkpt>
<trkpt lat="40.0713749" lon="-105.229789">
  <ele>1583.0</ele>
  <time>2026-08-28T17:53:54Z</time>
  <course>247.97</course>
  <speed>0.0</speed>
  <fix>3d</fix>
</trkpt>
<trkpt lat="40.0713749" lon="-105.229789">
  <ele>1583.0</ele>
  <time>2026-08-28T17:53:54Z</time>
  <course>0.0</course>
  <speed>0.0</speed>
  <fix>3d</fix>
</trkpt>
<trkpt lat="40.0713749" lon="-105.229789">
  <ele>1583.0</ele>
  <time>2026-08-28T17:53:54Z</time>
  <course>248.0</course>
  <speed>0.0</speed>
  <fix>3d</fix>
</trkpt>
<trkpt lat="40.0713749" lon="-105.229789">
  <ele>1583.0</ele>
  <time>2026-08-28T17:53:54Z</time>
  <course>0.0</course>
  <speed>0.0</speed>
  <fix>3d</fix>
</trkpt>
<trkpt lat="40.0713749" lon="-105.229789">
  <ele>1583.0</ele>
  <time>2026-08-28T17:53:54Z</time>
  <course>248.02</course>
  <speed>0.0</speed>
  <fix>3d</fix>
</trkpt>
<trkpt lat="40.0713749" lon="-105.229789">
  <ele>1583.0</ele>
  <time>2026-08-28T17:53:54Z</time>
  <course>0.0</course>
  <speed>0.0</speed>
  <fix>3d</fix>
</trkpt>
<trkpt lat="40.0713749" lon="-105.229789">
  <ele>1583.0</ele>
  <time>2026-08-28T17:53:54Z</time>
  <course>248.05</course>
  <speed>0.0</speed>
  <fix>3d</fix>
</trkpt>
<trkpt lat="40.0713749" lon="-105.229789">
  <ele>1583.0</ele>
  <time>2026-08-28T17:53:54Z</time>
  <course>0.0</course>
  <speed>0.0</speed>
  <fix>3d</fix>
</trkpt>
<trkpt lat="40.0713749" lon="-105.229789">
  <ele>1583.0</ele>
  <time>2026-08-28T17:53:54Z</time>
  <course>248.08</course>
  <speed>0.0</speed>
  <fix>3d</fix>
</trkpt>
<trkpt lat="40.0713749" lon="-105.229789">
  <ele>1583.0</ele>
  <time>2026-08-28T17:53:54Z</time>
  <course>0.0</course>
  <speed>0.0</speed>
  <fix>3d</fix>
</trkpt>
<trkpt lat="40.0713749" lon="-105.229789">
  <ele>1583.0</ele>
  <time>2026-08-28T17:53:54Z</time>
  <course>248.1</course>
  <speed>0.0</speed>
  <fix>3d</fix>
</trkpt>
<trkpt lat="40.0713749" lon="-105.229789">
  <ele>1583.0</ele>
  <time>2026-08-28T17:53:54Z</time>
  <course>0.0</course>
  <speed>0.0</speed>
  <fix>3d</fix>
</trkpt>
<trkpt lat="40.0713749" lon="-105.229789">
  <ele>1583.0</ele>
  <time>2026-08-28T17:53:54Z</time>
  <course>248.12</course>
  <speed>0.0</speed>
  <fix>3d</fix>
</trkpt>
<trkpt lat="40.0713749" lon="-105.229789">
  <ele>1583.0</ele>
  <time>2026-08-28T17:53:54Z</time>
  <course>0.0</course>
  <speed>0.0</speed>
  <fix>3d</fix>
</trkpt>
<trkpt lat="40.0713749" lon="-105.229789">
  <ele>1583.0</ele>
  <time>2026-08-28T17:53:54Z</time>
  <course>248.14</course>
  <speed>0.0</speed>
  <fix>3d</fix>
</trkpt>
<trkpt lat="40.0713749" lon="-105.229789">
  <ele>1583.0</ele>
  <time>2026-08-28T17:53:54Z</time>
  <course>0.0</course>
  <speed>0.0</speed>
  <fix>3d</fix>
</trkpt>
<trkpt lat="40.0713749" lon="-105.229789">
  <ele>1583.0</ele>
  <time>2026-08-28T17:53:54Z</time>
  <course>248.16</course>
  <speed>0.0</speed>
  <fix>3d</fix>
</trkpt>
<trkpt lat="40.0713749" lon="-105.229789">
  <ele>1583.0</ele>
  <time>2026-08-28T17:53:54Z</time>
  <course>0.0</course>
  <speed>0.0</speed>
  <fix>3d</fix>
</trkpt>
<trkpt lat="40.0713749" lon="-105.229789">
  <ele>1583.0</ele>
  <time>2026-08-28T17:53:54Z</time>
  <course>248.18</course>
  <speed>0.0</speed>
  <fix>3d</fix>
</trkpt>
<trkpt lat="40.0713749" lon="-105.229789">
  <ele>1583.0</ele>
  <time>2026-08-28T17:53:54Z</time>
  <course>0.0</course>
  <speed>0.0</speed>
  <fix>3d</fix>
</trkpt>
<trkpt lat="40.0713749" lon="-105.229789">
  <ele>1583.0</ele>
  <time>2026-08-28T17:53:54Z</time>
  <course>248.2</course>
  <speed>0.0</speed>
  <fix>3d</fix>
</trkpt>
<trkpt lat="40.0713749" lon="-105.229789">
  <ele>1583.0</ele>
  <time>2026-08-28T17:53:54Z</time>
  <course>0.0</course>
  <speed>0.0</speed>
  <fix>3d</fix>
</trkpt>
<trkpt lat="40.0713749" lon="-105.229789">
  <ele>1583.0</ele>
  <time>2026-08-28T17:53:54Z</time>
  <course>248.22</course>
  <speed>0.0</speed>
  <fix>3d</fix>
</trkpt>
<trkpt lat="40.0713749" lon="-105.229789">
  <ele>1583.0</ele>
  <time>2026-08-28T17:53:54Z</time>
  <course>0.0</course>
  <speed>0.0</speed>
  <fix>3d</fix>
</trkpt>
<trkpt lat="40.0713749" lon="-105.229789">
  <ele>1583.0</ele>
  <time>2026-08-28T17:53:54Z</time>
  <course>248.23</course>
  <speed>0.0</speed>
  <fix>3d</fix>
</trkpt>
<trkpt lat="40.0713749" lon="-105.229789">
  <ele>1583.0</ele>
  <time>2026-08-28T17:53:54Z</time>
  <course>0.0</course>
  <speed>0.0</speed>
  <fix>3d</fix>
</trkpt>
<trkpt lat="40.0713749" lon="-105.229789">
  <ele>1583.0</ele>
  <time>2026-08-28T17:53:54Z</time>
  <course>248.25</course>
  <speed>0.0</speed>
  <fix>3d</fix>
</trkpt>
<trkpt lat="40.0713749" lon="-105.229789">
  <ele>1583.0</ele>
  <time>2026-08-28T17:53:54Z</time>
  <course>0.0</course>
  <speed>0.0</speed>
  <fix>3d</fix>
</trkpt>
<trkpt lat="40.0713749" lon="-105.229789">
  <ele>1583.0</ele>
  <time>2026-08-28T17:53:54Z</time>
  <course>248.26</course>
  <speed>0.0</speed>
  <fix>3d</fix>
</trkpt>
<trkpt lat="40.0713749" lon="-105.229789">
  <ele>1583.0</ele>
  <time>2026-08-28T17:53:54Z</time>
  <course>0.0</course>
  <speed>0.0</speed>
  <fix>3d</fix>
</trkpt>
<trkpt lat="40.0713749" lon="-105.229789">
  <ele>1583.0</ele>
  <time>2026-08-28T17:53:54Z</time>
  <course>248.28</course>
  <speed>0.0</speed>
  <fix>3d</fix>
</trkpt>
<trkpt lat="40.0713749" lon="-105.229789">
  <ele>1583.0</ele>
  <time>2026-08-28T17:53:54Z</time>
  <course>0.0</course>
  <speed>0.0</speed>
  <fix>3d</fix>
</trkpt>
<trkpt lat="40.0713749" lon="-105.229789">
  <ele>1583.0</ele>
  <time>2026-08-28T17:53:54Z</time>
  <course>248.29</course>
  <speed>0.0</speed>
  <fix>3d</fix>
</trkpt>
<trkpt lat="40.0713749" lon="-105.229789">
  <ele>1583.0</ele>
  <time>2026-08-28T17:53:54Z</time>
  <course>0.0</course>
  <speed>0.0</speed>
  <fix>3d</fix>
</trkpt>
<trkpt lat="40.0713749" lon="-105.229789">
  <ele>1583.0</ele>
  <time>2026-08-28T17:53:54Z</time>
  <course>248.3</course>
  <speed>0.0</speed>
  <fix>3d</fix>
</trkpt>
<trkpt lat="40.0713749" lon="-105.229789">
  <ele>1583.0</ele>
  <time>2026-08-28T17:53:54Z</time>
  <course>0.0</course>
  <speed>0.0</speed>
  <fix>3d</fix>
</trkpt>
<trkpt lat="40.0713749" lon="-105.229789">
  <ele>1583.0</ele>
  <time>2026-08-28T17:53:54Z</time>
  <course>248.31</course>
  <speed>0.0</speed>
  <fix>3d</fix>
</trkpt>
<trkpt lat="40.0713749" lon="-105.229789">
  <ele>1583.0</ele>
  <time>2026-08-28T17:53:54Z</time>
  <course>0.0</course>
  <speed>0.0</speed>
  <fix>3d</fix>
</trkpt>
<trkpt lat="40.0713749" lon="-105.229789">
  <ele>1583.0</ele>
  <time>2026-08-28T17:53:54Z</time>
  <course>248.32</course>
  <speed>0.0</speed>
  <fix>3d</fix>
</trkpt>
<trkpt lat="40.0713749" lon="-105.229789">
  <ele>1583.0</ele>
  <time>2026-08-28T17:53:54Z</time>
  <course>0.0</course>
  <speed>0.0</speed>
  <fix>3d</fix>
</trkpt>
<trkpt lat="40.0713749" lon="-105.229789">
  <ele>1583.0</ele>
  <time>2026-08-28T17:53:54Z</time>
  <course>248.33</course>
  <speed>0.0</speed>
  <fix>3d</fix>
</trkpt>
<trkpt lat="40.0713749" lon="-105.229789">
  <ele>1583.0</ele>
  <time>2026-08-28T17:53:54Z</time>
  <course>0.0</course>
  <speed>0.0</speed>
  <fix>3d</fix>
</trkpt>
<trkpt lat="40.0713749" lon="-105.229789">
  <ele>1583.0</ele>
  <time>2026-08-28T17:53:54Z</time>
  <course>248.34</course>
  <speed>0.0</speed>
  <fix>3d</fix>
</trkpt>
<trkpt lat="40.0713749" lon="-105.229789">
  <ele>1583.0</ele>
  <time>2026-08-28T17:53:54Z</time>
  <course>0.0</course>
  <speed>0.0</speed>
  <fix>3d</fix>
</trkpt>
<trkpt lat="40.0713749" lon="-105.229789">
  <ele>1583.0</ele>
  <time>2026-08-28T17:53:54Z</time>
  <course>248.35</course>
  <speed>0.0</speed>
  <fix>3d</fix>
</trkpt>
<trkpt lat="40.0713749" lon="-105.229789">
  <ele>1583.0</ele>
  <time>2026-08-28T17:53:54Z</time>
  <course>0.0</course>
  <speed>0.0</speed>
  <fix>3d</fix>
</trkpt>
<trkpt lat="40.0713749" lon="-105.229789">
  <ele>1583.0</ele>
  <time>2026-08-28T17:53:54Z</time>
  <course>248.35</course>
  <speed>0.0</speed>
  <fix>3d</fix>
</trkpt>
<trkpt lat="40.0713749" lon="-105.229789">
  <ele>1583.0</ele>
  <time>2026-08-28T17:53:54Z</time>
  <course>0.0</course>
  <speed>0.0</speed>
  <fix>3d</fix>
</trkpt>
<trkpt lat="40.0713749" lon="-105.229789">
  <ele>1583.0</ele>
  <time>2026-08-28T17:53:54Z</time>
  <course>248.36</course>
  <speed>0.0</speed>
  <fix>3d</fix>
</trkpt>
<trkpt lat="40.0713749" lon="-105.229789">
  <ele>1583.0</ele>
  <time>2026-08-28T17:53:54Z</time>
  <course>0.0</course>
  <speed>0.0</speed>
  <fix>3d</fix>
</trkpt>
<trkpt lat="40.0713749" lon="-105.229789">
  <ele>1583.0</ele>
  <time>2026-08-28T17:53:54Z</time>
  <course>248.37</course>
  <speed>0.0</speed>
  <fix>3d</fix>
</trkpt>
<trkpt lat="40.0713749" lon="-105.229789">
  <ele>1583.0</ele>
  <time>2026-08-28T17:53:54Z</time>
  <course>0.0</course>
  <speed>0.0</speed>
  <fix>3d</fix>
</trkpt>
<trkpt lat="40.0713749" lon="-105.229789">
  <ele>1583.0</ele>
  <time>2026-08-28T17:53:54Z</time>
  <course>248.37</course>
  <speed>0.0</speed>
  <fix>3d</fix>
</trkpt>
<trkpt lat="40.0713749" lon="-105.229789">
  <ele>1583.0</ele>
  <time>2026-08-28T17:53:54Z</time>
  <course>0.0</course>
  <speed>0.0</speed>
  <fix>3d</fix>
</trkpt>
<trkpt lat="40.0713749" lon="-105.229789">
  <ele>1583.0</ele>
  <time>2026-08-28T17:53:54Z</time>
  <course>248.38</course>
  <speed>0.0</speed>
  <fix>3d</fix>
</trkpt>
<trkpt lat="40.0713749" lon="-105.229789">
  <ele>1583.0</ele>
  <time>2026-08-28T17:53:54Z</time>
  <course>0.0</course>
  <speed>0.0</speed>
  <fix>3d</fix>
</trkpt>
<trkpt lat="40.0713749" lon="-105.229789">
  <ele>1583.0</ele>
  <time>2026-08-28T17:53:54Z</time>
  <course>248.38</course>
  <speed>0.0</speed>
  <fix>3d</fix>
</trkpt>
<trkpt lat="40.0713749" lon="-105.229789">
  <ele>1583.0</ele>
  <time>2026-08-28T17:53:54Z</time>
  <course>0.0</course>
  <speed>0.0</speed>
  <fix>3d</fix>
</trkpt>
<trkpt lat="40.0713749" lon="-105.229789">
  <ele>1583.0</ele>
  <time>2026-08-28T17:53:54Z</time>
  <course>248.39</course>
  <speed>0.0</speed>
  <fix>3d</fix>
</trkpt>
<trkpt lat="40.0713749" lon="-105.229789">
  <ele>1583.0</ele>
  <time>2026-08-28T17:53:54Z</time>
  <course>0.0</course>
  <speed>0.0</speed>
  <fix>3d</fix>
</trkpt>
<trkpt lat="40.0713749" lon="-105.229789">
  <ele>1583.0</ele>
  <time>2026-08-28T17:53:54Z</time>
  <course>248.39</course>
  <speed>0.0</speed>
  <fix>3d</fix>
</trkpt>
<trkpt lat="40.0713749" lon="-105.229789">
  <ele>1583.0</ele>
  <time>2026-08-28T17:53:54Z</time>
  <course>0.0</course>
  <speed>0.0</speed>
  <fix>3d</fix>
</trkpt>
<trkpt lat="40.0713749" lon="-105.229789">
  <ele>1583.0</ele>
  <time>2026-08-28T17:53:54Z</time>
  <course>248.4</course>
  <speed>0.0</speed>
  <fix>3d</fix>
</trkpt>
<trkpt lat="40.0713749" lon="-105.229789">
  <ele>1583.0</ele>
  <time>2026-08-28T17:53:54Z</time>
  <course>0.0</course>
  <speed>0.0</speed>
  <fix>3d</fix>
</trkpt>
<trkpt lat="40.0713749" lon="-105.229789">
  <ele>1583.0</ele>
  <time>2026-08-28T17:53:54Z</time>
  <course>248.4</course>
  <speed>0.0</speed>
  <fix>3d</fix>
</trkpt>
<trkpt lat="40.0713749" lon="-105.229789">
  <ele>1583.0</ele>
  <time>2026-08-28T17:53:54Z</time>
  <course>0.0</course>
  <speed>0.0</speed>
  <fix>3d</fix>
</trkpt>
<trkpt lat="40.0713749" lon="-105.229789">
  <ele>1583.0</ele>
  <time>2026-08-28T17:53:54Z</time>
  <course>248.4</course>
  <speed>0.0</speed>
  <fix>3d</fix>
</trkpt>
<trkpt lat="40.0713749" lon="-105.229789">
  <ele>1583.0</ele>
  <time>2026-08-28T17:53:54Z</time>
  <course>0.0</course>
  <speed>0.0</speed>
  <fix>3d</fix>
</trkpt>
<trkpt lat="40.0713749" lon="-105.229789">
  <ele>1583.0</ele>
  <time>2026-08-28T17:53:54Z</time>
  <course>248.4</course>
  <speed>0.0</speed>
  <fix>3d</fix>
</trkpt>
<trkpt lat="40.0713749" lon="-105.229789">
  <ele>1583.0</ele>
  <time>2026-08-28T17:53:54Z</time>
  <course>0.0</course>
  <speed>0.0</speed>
  <fix>3d</fix>
</trkpt>
<trkpt lat="40.0713749" lon="-105.229789">
  <ele>1583.0</ele>
  <time>2026-08-28T17:53:54Z</time>
  <course>248.41</course>
  <speed>0.0</speed>
  <fix>3d</fix>
</trkpt>
<trkpt lat="40.0713749" lon="-105.229789">
  <ele>1583.0</ele>
  <time>2026-08-28T17:53:54Z</time>
  <course>0.0</course>
  <speed>0.0</speed>
  <fix>3d</fix>
</trkpt>
<trkpt lat="40.0713749" lon="-105.229789">
  <ele>1583.0</ele>
  <time>2026-08-28T17:53:54Z</time>
  <course>248.41</course>
  <speed>0.0</speed>
  <fix>3d</fix>
</trkpt>
<trkpt lat="40.0713749" lon="-105.229789">
  <ele>1583.0</ele>
  <time>2026-08-28T17:53:54Z</time>
  <course>0.0</course>
  <speed>0.0</speed>
  <fix>3d</fix>
</trkpt>
<trkpt lat="40.0713749" lon="-105.229789">
  <ele>1583.0</ele>
  <time>2026-08-28T17:53:54Z</time>
  <course>248.41</course>
  <speed>0.0</speed>
  <fix>3d</fix>
</trkpt>
<trkpt lat="40.0713749" lon="-105.229789">
  <ele>1583.0</ele>
  <time>2026-08-28T17:53:54Z</time>
  <course>0.0</course>
  <speed>0.0</speed>
  <fix>3d</fix>
</trkpt>
<trkpt lat="40.0713749" lon="-105.229789">
  <ele>1583.0</ele>
  <time>2026-08-28T17:53:54Z</time>
  <course>248.41</course>
  <speed>0.0</speed>
  <fix>3d</fix>
</trkpt>
<trkpt lat="40.0713749" lon="-105.229789">
  <ele>1583.0</ele>
  <time>2026-08-28T17:53:54Z</time>
  <course>0.0</course>
  <speed>0.0</speed>
  <fix>3d</fix>
</trkpt>
<trkpt lat="40.0713749" lon="-105.229789">
  <ele>1583.0</ele>
  <time>2026-08-28T17:53:54Z</time>
  <course>248.41</course>
  <speed>0.0</speed>
  <fix>3d</fix>
</trkpt>
<trkpt lat="40.0713749" lon="-105.229789">
  <ele>1583.0</ele>
  <time>2026-08-28T17:53:54Z</time>
  <course>0.0</course>
  <speed>0.0</speed>
  <fix>3d</fix>
</trkpt>
<trkpt lat="40.0713749" lon="-105.229789">
  <ele>1583.0</ele>
  <time>2026-08-28T17:53:54Z</time>
  <course>248.41</course>
  <speed>0.0</speed>
  <fix>3d</fix>
</trkpt>
<trkpt lat="40.0713749" lon="-105.229789">
  <ele>1583.0</ele>
  <time>2026-08-28T17:53:54Z</time>
  <course>0.0</course>
  <speed>0.0</speed>
  <fix>3d</fix>
</trkpt>
<trkpt lat="40.0713749" lon="-105.229789">
  <ele>1583.0</ele>
  <time>2026-08-28T17:53:54Z</time>
  <course>248.41</course>
  <speed>0.0</speed>
  <fix>3d</fix>
</trkpt>
<trkpt lat="40.0713749" lon="-105.229789">
  <ele>1583.0</ele>
  <time>2026-08-28T17:53:54Z</time>
  <course>0.0</course>
  <speed>0.0</speed>
  <fix>3d</fix>
</trkpt>
<trkpt lat="40.0713749" lon="-105.229789">
  <ele>1583.0</ele>
  <time>2026-08-28T17:53:54Z</time>
  <course>248.41</course>
  <speed>0.0</speed>
  <fix>3d</fix>
</trkpt>
<trkpt lat="40.0713749" lon="-105.229789">
  <ele>1583.0</ele>
  <time>2026-08-28T17:53:54Z</time>
  <course>0.0</course>
  <speed>0.0</speed>
  <fix>3d</fix>
</trkpt>
<trkpt lat="40.0713749" lon="-105.229789">
  <ele>1583.0</ele>
  <time>2026-08-28T17:53:54Z</time>
  <course>248.41</course>
  <speed>0.0</speed>
  <fix>3d</fix>
</trkpt>
<trkpt lat="40.0713749" lon="-105.229789">
  <ele>1583.0</ele>
  <time>2026-08-28T17:53:54Z</time>
  <course>0.0</course>
  <speed>0.0</speed>
  <fix>3d</fix>
</trkpt>
<trkpt lat="40.0713749" lon="-105.229789">
  <ele>1583.0</ele>
  <time>2026-08-28T17:53:54Z</time>
  <course>248.41</course>
  <speed>0.0</speed>
  <fix>3d</fix>
</trkpt>
<trkpt lat="40.0713749" lon="-105.229789">
  <ele>1583.0</ele>
  <time>2026-08-28T17:53:54Z</time>
  <course>0.0</course>
  <speed>0.0</speed>
  <fix>3d</fix>
</trkpt>
<trkpt lat="40.0713749" lon="-105.229789">
  <ele>1583.0</ele>
  <time>2026-08-28T17:53:54Z</time>
  <course>248.41</course>
  <speed>0.0</speed>
  <fix>3d</fix>
</trkpt>
<trkpt lat="40.0713749" lon="-105.229789">
  <ele>1583.0</ele>
  <time>2026-08-28T17:53:54Z</time>
  <course>0.0</course>
  <speed>0.0</speed>
  <fix>3d</fix>
</trkpt>
<trkpt lat="40.0713749" lon="-105.229789">
  <ele>1583.0</ele>
  <time>2026-08-28T17:53:54Z</time>
  <course>248.41</course>
  <speed>0.0</speed>
  <fix>3d</fix>
</trkpt>
<trkpt lat="40.0713749" lon="-105.229789">
  <ele>1583.0</ele>
  <time>2026-08-28T17:53:54Z</time>
  <course>0.0</course>
  <speed>0.0</speed>
  <fix>3d</fix>
</trkpt>
<trkpt lat="40.0713749" lon="-105.229789">
  <ele>1583.0</ele>
  <time>2026-08-28T17:53:54Z</time>
  <course>248.41</course>
  <speed>0.0</speed>
  <fix>3d</fix>
</trkpt>
<trkpt lat="40.0713749" lon="-105.229789">
  <ele>1583.0</ele>
  <time>2026-08-28T17:53:54Z</time>
  <course>0.0</course>
  <speed>0.0</speed>
  <fix>3d</fix>
</trkpt>
<trkpt lat="40.0713749" lon="-105.229789">
  <ele>1583.0</ele>
  <time>2026-08-28T17:53:54Z</time>
  <course>248.41</course>
  <speed>0.0</speed>
  <fix>3d</fix>
</trkpt>
<trkpt lat="40.0713749" lon="-105.229789">
  <ele>1583.0</ele>
  <time>2026-08-28T17:53:54Z</time>
  <course>0.0</course>
  <speed>0.0</speed>
  <fix>3d</fix>
</trkpt>
<trkpt lat="40.0713749" lon="-105.229789">
  <ele>1583.0</ele>
  <time>2026-08-28T17:53:54Z</time>
  <course>248.41</course>
  <speed>0.0</speed>
  <fix>3d</fix>
</trkpt>
<trkpt lat="40.0713749" lon="-105.229789">
  <ele>1583.0</ele>
  <time>2026-08-28T17:53:54Z</time>
  <course>0.0</course>
  <speed>0.0</speed>
  <fix>3d</fix>
</trkpt>
<trkpt lat="40.0713749" lon="-105.229789">
  <ele>1583.0</ele>
  <time>2026-08-28T17:53:54Z</time>
  <course>248.41</course>
  <speed>0.0</speed>
  <fix>3d</fix>
</trkpt>
<trkpt lat="40.0713749" lon="-105.229789">
  <ele>1583.0</ele>
  <time>2026-08-28T17:53:54Z</time>
  <course>0.0</course>
  <speed>0.0</speed>
  <fix>3d</fix>
</trkpt>
<trkpt lat="40.0713749" lon="-105.229789">
  <ele>1583.0</ele>
  <time>2026-08-28T17:53:54Z</time>
  <course>248.4</course>
  <speed>0.0</speed>
  <fix>3d</fix>
</trkpt>
<trkpt lat="40.0713749" lon="-105.229789">
  <ele>1583.0</ele>
  <time>2026-08-28T17:53:54Z</time>
  <course>0.0</course>
  <speed>0.0</speed>
  <fix>3d</fix>
</trkpt>
<trkpt lat="40.0713749" lon="-105.229789">
  <ele>1583.0</ele>
  <time>2026-08-28T17:53:54Z</time>
  <course>248.4</course>
  <speed>0.01</speed>
  <fix>3d</fix>
</trkpt>
<trkpt lat="40.0713749" lon="-105.229789">
  <ele>1583.0</ele>
  <time>2026-08-28T17:53:54Z</time>
  <course>0.0</course>
  <speed>0.0</speed>
  <fix>3d</fix>
</trkpt>
<trkpt lat="40.0713749" lon="-105.229789">
  <ele>1583.0</ele>
  <time>2026-08-28T17:53:54Z</time>
  <course>248.4</course>
  <speed>0.01</speed>
  <fix>3d</fix>
</trkpt>
<trkpt lat="40.0713749" lon="-105.229789">
  <ele>1583.0</ele>
  <time>2026-08-28T17:53:54Z</time>
  <course>0.0</course>
  <speed>0.0</speed>
  <fix>3d</fix>
</trkpt>
<trkpt lat="40.0713749" lon="-105.229789">
  <ele>1583.0</ele>
  <time>2026-08-28T17:53:54Z</time>
  <course>248.4</course>
  <speed>0.01</speed>
  <fix>3d</fix>
</trkpt>
<trkpt lat="40.0713749" lon="-105.229789">
  <ele>1583.0</ele>
  <time>2026-08-28T17:53:54Z</time>
  <course>0.0</course>
  <speed>0.0</speed>
  <fix>3d</fix>
</trkpt>
<trkpt lat="40.0713749" lon="-105.229789">
  <ele>1583.0</ele>
  <time>2026-08-28T17:53:54Z</time>
  <course>248.4</course>
  <speed>0.01</speed>
  <fix>3d</fix>
</trkpt>
<trkpt lat="40.0713749" lon="-105.229789">
  <ele>1583.0</ele>
  <time>2026-08-28T17:53:54Z</time>
  <course>0.0</course>
  <speed>0.0</speed>
  <fix>3d</fix>
</trkpt>
<trkpt lat="40.0713749" lon="-105.229789">
  <ele>1583.0</ele>
  <time>2026-08-28T17:53:54Z</time>
  <course>248.39</course>
  <speed>0.01</speed>
  <fix>3d</fix>
</trkpt>
<trkpt lat="40.0713749" lon="-105.229789">
  <ele>1583.0</ele>
  <time>2026-08-28T17:53:54Z</time>
  <course>0.0</course>
  <speed>0.0</speed>
  <fix>3d</fix>
</trkpt>
<trkpt lat="40.0713749" lon="-105.229789">
  <ele>1583.0</ele>
  <time>2026-08-28T17:53:54Z</time>
  <course>248.39</course>
  <speed>0.01</speed>
  <fix>3d</fix>
</trkpt>
<trkpt lat="40.0713749" lon="-105.229789">
  <ele>1583.0</ele>
  <time>2026-08-28T17:53:54Z</time>
  <course>0.0</course>
  <speed>0.0</speed>
  <fix>3d</fix>
</trkpt>
<trkpt lat="40.0713749" lon="-105.229789">
  <ele>1583.0</ele>
  <time>2026-08-28T17:53:54Z</time>
  <course>248.39</course>
  <speed>0.01</speed>
  <fix>3d</fix>
</trkpt>
<trkpt lat="40.0713749" lon="-105.229789">
  <ele>1583.0</ele>
  <time>2026-08-28T17:53:54Z</time>
  <course>0.0</course>
  <speed>0.0</speed>
  <fix>3d</fix>
</trkpt>
<trkpt lat="40.0713749" lon="-105.229789">
  <ele>1583.0</ele>
  <time>2026-08-28T17:53:54Z</time>
  <course>248.38</course>
  <speed>0.01</speed>
  <fix>3d</fix>
</trkpt>
<trkpt lat="40.0713749" lon="-105.229789">
  <ele>1583.0</ele>
  <time>2026-08-28T17:53:54Z</time>
  <course>0.0</course>
  <speed>0.0</speed>
  <fix>3d</fix>
</trkpt>
<trkpt lat="40.0713749" lon="-105.229789">
  <ele>1583.0</ele>
  <time>2026-08-28T17:53:54Z</time>
  <course>248.38</course>
  <speed>0.01</speed>
  <fix>3d</fix>
</trkpt>
<trkpt lat="40.0713749" lon="-105.229789">
  <ele>1583.0</ele>
  <time>2026-08-28T17:53:54Z</time>
  <course>0.0</course>
  <speed>0.0</speed>
  <fix>3d</fix>
</trkpt>
<trkpt lat="40.0713749" lon="-105.229789">
  <ele>1583.0</ele>
  <time>2026-08-28T17:53:54Z</time>
  <course>248.38</course>
  <speed>0.01</speed>
  <fix>3d</fix>
</trkpt>
<trkpt lat="40.0713749" lon="-105.229789">
  <ele>1583.0</ele>
  <time>2026-08-28T17:53:54Z</time>
  <course>0.0</course>
  <speed>0.0</speed>
  <fix>3d</fix>
</trkpt>
<trkpt lat="40.0713749" lon="-105.229789">
  <ele>1583.0</ele>
  <time>2026-08-28T17:53:54Z</time>
  <course>248.37</course>
  <speed>0.01</speed>
  <fix>3d</fix>
</trkpt>
<trkpt lat="40.0713749" lon="-105.229789">
  <ele>1583.0</ele>
  <time>2026-08-28T17:53:54Z</time>
  <course>0.0</course>
  <speed>0.0</speed>
  <fix>3d</fix>
</trkpt>
<trkpt lat="40.0713749" lon="-105.229789">
  <ele>1583.0</ele>
  <time>2026-08-28T17:53:54Z</time>
  <course>248.37</course>
  <speed>0.01</speed>
  <fix>3d</fix>
</trkpt>
<trkpt lat="40.0713749" lon="-105.229789">
  <ele>1583.0</ele>
  <time>2026-08-28T17:53:54Z</time>
  <course>0.0</course>
  <speed>0.0</speed>
  <fix>3d</fix>
</trkpt>
<trkpt lat="40.0713749" lon="-105.229789">
  <ele>1583.0</ele>
  <time>2026-08-28T17:53:54Z</time>
  <course>248.37</course>
  <speed>0.01</speed>
  <fix>3d</fix>
</trkpt>
<trkpt lat="40.0713749" lon="-105.229789">
  <ele>1583.0</ele>
  <time>2026-08-28T17:53:54Z</time>
  <course>0.0</course>
  <speed>0.0</speed>
  <fix>3d</fix>
</trkpt>
<trkpt lat="40.0713749" lon="-105.229789">
  <ele>1583.0</ele>
  <time>2026-08-28T17:53:54Z</time>
  <course>248.36</course>
  <speed>0.01</speed>
  <fix>3d</fix>
</trkpt>
<trkpt lat="40.0713749" lon="-105.229789">
  <ele>1583.0</ele>
  <time>2026-08-28T17:53:54Z</time>
  <course>0.0</course>
  <speed>0.0</speed>
  <fix>3d</fix>
</trkpt>
<trkpt lat="40.0713749" lon="-105.229789">
  <ele>1583.0</ele>
  <time>2026-08-28T17:53:54Z</time>
  <course>248.36</course>
  <speed>0.01</speed>
  <fix>3d</fix>
</trkpt>
<trkpt lat="40.0713749" lon="-105.229789">
  <ele>1583.0</ele>
  <time>2026-08-28T17:53:54Z</time>
  <course>0.0</course>
  <speed>0.0</speed>
  <fix>3d</fix>
</trkpt>
<trkpt lat="40.0713749" lon="-105.229789">
  <ele>1583.0</ele>
  <time>2026-08-28T17:53:54Z</time>
  <course>248.36</course>
  <speed>0.01</speed>
  <fix>3d</fix>
</trkpt>
<trkpt lat="40.0713749" lon="-105.229789">
  <ele>1583.0</ele>
  <time>2026-08-28T17:53:54Z</time>
  <course>0.0</course>
  <speed>0.0</speed>
  <fix>3d</fix>
</trkpt>
<trkpt lat="40.0713749" lon="-105.229789">
  <ele>1583.0</ele>
  <time>2026-08-28T17:53:54Z</time>
  <course>248.35</course>
  <speed>0.01</speed>
  <fix>3d</fix>
</trkpt>
<trkpt lat="40.0713749" lon="-105.229789">
  <ele>1583.0</ele>
  <time>2026-08-28T17:53:54Z</time>
  <course>0.0</course>
  <speed>0.0</speed>
  <fix>3d</fix>
</trkpt>
<trkpt lat="40.0713749" lon="-105.229789">
  <ele>1583.0</ele>
  <time>2026-08-28T17:53:54Z</time>
  <course>248.35</course>
  <speed>0.01</speed>
  <fix>3d</fix>
</trkpt>
<trkpt lat="40.0713749" lon="-105.229789">
  <ele>1583.0</ele>
  <time>2026-08-28T17:53:54Z</time>
  <course>0.0</course>
  <speed>0.0</speed>
  <fix>3d</fix>
</trkpt>
<trkpt lat="40.0713749" lon="-105.229789">
  <ele>1583.0</ele>
  <time>2026-08-28T17:53:54Z</time>
  <course>248.35</course>
  <speed>0.01</speed>
  <fix>3d</fix>
</trkpt>
<trkpt lat="40.0713749" lon="-105.229789">
  <ele>1583.0</ele>
  <time>2026-08-28T17:53:54Z</time>
  <course>0.0</course>
  <speed>0.0</speed>
  <fix>3d</fix>
</trkpt>
<trkpt lat="40.0713749" lon="-105.229789">
  <ele>1583.0</ele>
  <time>2026-08-28T17:53:54Z</time>
  <course>248.34</course>
  <speed>0.01</speed>
  <fix>3d</fix>
</trkpt>
<trkpt lat="40.0713749" lon="-105.229789">
  <ele>1583.0</ele>
  <time>2026-08-28T17:53:54Z</time>
  <course>0.0</course>
  <speed>0.0</speed>
  <fix>3d</fix>
</trkpt>
<trkpt lat="40.0713749" lon="-105.229789">
  <ele>1583.0</ele>
  <time>2026-08-28T17:53:54Z</time>
  <course>248.34</course>
  <speed>0.01</speed>
  <fix>3d</fix>
</trkpt>
<trkpt lat="40.0713749" lon="-105.229789">
  <ele>1583.0</ele>
  <time>2026-08-28T17:53:54Z</time>
  <course>0.0</course>
  <speed>0.0</speed>
  <fix>3d</fix>
</trkpt>
<trkpt lat="40.0713749" lon="-105.229789">
  <ele>1583.0</ele>
  <time>2026-08-28T17:53:54Z</time>
  <course>248.33</course>
  <speed>0.01</speed>
  <fix>3d</fix>
</trkpt>
<trkpt lat="40.0713749" lon="-105.229789">
  <ele>1583.0</ele>
  <time>2026-08-28T17:53:54Z</time>
  <course>0.0</course>
  <speed>0.0</speed>
  <fix>3d</fix>
</trkpt>
<trkpt lat="40.0713749" lon="-105.229789">
  <ele>1583.0</ele>
  <time>2026-08-28T17:53:54Z</time>
  <course>248.33</course>
  <speed>0.01</speed>
  <fix>3d</fix>
</trkpt>
<trkpt lat="40.0713749" lon="-105.229789">
  <ele>1583.0</ele>
  <time>2026-08-28T17:53:54Z</time>
  <course>0.0</course>
  <speed>0.0</speed>
  <fix>3d</fix>
</trkpt>
<trkpt lat="40.0713749" lon="-105.229789">
  <ele>1583.0</ele>
  <time>2026-08-28T17:53:54Z</time>
  <course>248.32</course>
  <speed>0.01</speed>
  <fix>3d</fix>
</trkpt>
<trkpt lat="40.0713749" lon="-105.229789">
  <ele>1583.0</ele>
  <time>2026-08-28T17:53:54Z</time>
  <course>0.0</course>
  <speed>0.0</speed>
  <fix>3d</fix>
</trkpt>
<trkpt lat="40.0713749" lon="-105.229789">
  <ele>1583.0</ele>
  <time>2026-08-28T17:53:54Z</time>
  <course>248.32</course>
  <speed>0.01</speed>
  <fix>3d</fix>
</trkpt>
<trkpt lat="40.0713749" lon="-105.229789">
  <ele>1583.0</ele>
  <time>2026-08-28T17:53:54Z</time>
  <course>0.0</course>
  <speed>0.0</speed>
  <fix>3d</fix>
</trkpt>
<trkpt lat="40.0713749" lon="-105.229789">
  <ele>1583.0</ele>
  <time>2026-08-28T17:53:54Z</time>
  <course>248.32</course>
  <speed>0.01</speed>
  <fix>3d</fix>
</trkpt>
<trkpt lat="40.0713749" lon="-105.229789">
  <ele>1583.0</ele>
  <time>2026-08-28T17:53:54Z</time>
  <course>0.0</course>
  <speed>0.0</speed>
  <fix>3d</fix>
</trkpt>
<trkpt lat="40.0713749" lon="-105.229789">
  <ele>1583.0</ele>
  <time>2026-08-28T17:53:54Z</time>
  <course>248.31</course>
  <speed>0.01</speed>
  <fix>3d</fix>
</trkpt>
<trkpt lat="40.0713749" lon="-105.229789">
  <ele>1583.0</ele>
  <time>2026-08-28T17:53:54Z</time>
  <course>0.0</course>
  <speed>0.0</speed>
  <fix>3d</fix>
</trkpt>
<trkpt lat="40.0713749" lon="-105.229789">
  <ele>1583.0</ele>
  <time>2026-08-28T17:53:54Z</time>
  <course>248.31</course>
  <speed>0.01</speed>
  <fix>3d</fix>
</trkpt>
<trkpt lat="40.0713749" lon="-105.229789">
  <ele>1583.0</ele>
  <time>2026-08-28T17:53:54Z</time>
  <course>0.0</course>
  <speed>0.0</speed>
  <fix>3d</fix>
</trkpt>
<trkpt lat="40.0713749" lon="-105.229789">
  <ele>1583.0</ele>
  <time>2026-08-28T17:53:54Z</time>
  <course>248.3</course>
  <speed>0.01</speed>
  <fix>3d</fix>
</trkpt>
<trkpt lat="40.0713749" lon="-105.229789">
  <ele>1583.0</ele>
  <time>2026-08-28T17:53:54Z</time>
  <course>0.0</course>
  <speed>0.0</speed>
  <fix>3d</fix>
</trkpt>
<trkpt lat="40.0713749" lon="-105.229789">
  <ele>1583.0</ele>
  <time>2026-08-28T17:53:54Z</time>
  <course>248.3</course>
  <speed>0.01</speed>
  <fix>3d</fix>
</trkpt>
<trkpt lat="40.0713749" lon="-105.229789">
  <ele>1583.0</ele>
  <time>2026-08-28T17:53:54Z</time>
  <course>0.0</course>
  <speed>0.0</speed>
  <fix>3d</fix>
</trkpt>
<trkpt lat="40.0713749" lon="-105.229789">
  <ele>1583.0</ele>
  <time>2026-08-28T17:53:54Z</time>
  <course>248.29</course>
  <speed>0.01</speed>
  <fix>3d</fix>
</trkpt>
<trkpt lat="40.0713749" lon="-105.229789">
  <ele>1583.0</ele>
  <time>2026-08-28T17:53:54Z</time>
  <course>0.0</course>
  <speed>0.0</speed>
  <fix>3d</fix>
</trkpt>
<trkpt lat="40.0713749" lon="-105.229789">
  <ele>1583.0</ele>
  <time>2026-08-28T17:53:54Z</time>
  <course>248.29</course>
  <speed>0.01</speed>
  <fix>3d</fix>
</trkpt>
<trkpt lat="40.0713749" lon="-105.229789">
  <ele>1583.0</ele>
  <time>2026-08-28T17:53:54Z</time>
  <course>0.0</course>
  <speed>0.0</speed>
  <fix>3d</fix>
</trkpt>
<trkpt lat="40.0713749" lon="-105.229789">
  <ele>1583.0</ele>
  <time>2026-08-28T17:53:54Z</time>
  <course>248.28</course>
  <speed>0.01</speed>
  <fix>3d</fix>
</trkpt>
<trkpt lat="40.0713749" lon="-105.229789">
  <ele>1583.0</ele>
  <time>2026-08-28T17:53:54Z</time>
  <course>0.0</course>
  <speed>0.0</speed>
  <fix>3d</fix>
</trkpt>
<trkpt lat="40.0713749" lon="-105.229789">
  <ele>1583.0</ele>
  <time>2026-08-28T17:53:54Z</time>
  <course>248.28</course>
  <speed>0.01</speed>
  <fix>3d</fix>
</trkpt>
<trkpt lat="40.0713749" lon="-105.229789">
  <ele>1583.0</ele>
  <time>2026-08-28T17:53:54Z</time>
  <course>0.0</course>
  <speed>0.0</speed>
  <fix>3d</fix>
</trkpt>
<trkpt lat="40.0713749" lon="-105.229789">
  <ele>1583.0</ele>
  <time>2026-08-28T17:53:54Z</time>
  <course>248.27</course>
  <speed>0.01</speed>
  <fix>3d</fix>
</trkpt>
<trkpt lat="40.0713749" lon="-105.229789">
  <ele>1583.0</ele>
  <time>2026-08-28T17:53:54Z</time>
  <course>0.0</course>
  <speed>0.0</speed>
  <fix>3d</fix>
</trkpt>
<trkpt lat="40.0713749" lon="-105.229789">
  <ele>1583.0</ele>
  <time>2026-08-28T17:53:54Z</time>
  <course>248.27</course>
  <speed>0.01</speed>
  <fix>3d</fix>
</trkpt>
<trkpt lat="40.0713749" lon="-105.229789">
  <ele>1583.0</ele>
  <time>2026-08-28T17:53:54Z</time>
  <course>0.0</course>
  <speed>0.0</speed>
  <fix>3d</fix>
</trkpt>
<trkpt lat="40.0713749" lon="-105.229789">
  <ele>1583.0</ele>
  <time>2026-08-28T17:53:54Z</time>
  <course>248.26</course>
  <speed>0.01</speed>
  <fix>3d</fix>
</trkpt>
<trkpt lat="40.0713749" lon="-105.229789">
  <ele>1583.0</ele>
  <time>2026-08-28T17:53:54Z</time>
  <course>0.0</course>
  <speed>0.0</speed>
  <fix>3d</fix>
</trkpt>
<trkpt lat="40.0713749" lon="-105.229789">
  <ele>1583.0</ele>
  <time>2026-08-28T17:53:54Z</time>
  <course>248.26</course>
  <speed>0.01</speed>
  <fix>3d</fix>
</trkpt>
<trkpt lat="40.0713749" lon="-105.229789">
  <ele>1583.0</ele>
  <time>2026-08-28T17:53:54Z</time>
  <course>0.0</course>
  <speed>0.0</speed>
  <fix>3d</fix>
</trkpt>
<trkpt lat="40.0713749" lon="-105.229789">
  <ele>1583.0</ele>
  <time>2026-08-28T17:53:54Z</time>
  <course>248.26</course>
  <speed>0.01</speed>
  <fix>3d</fix>
</trkpt>
<trkpt lat="40.0713749" lon="-105.229789">
  <ele>1583.0</ele>
  <time>2026-08-28T17:53:54Z</time>
  <course>0.0</course>
  <speed>0.0</speed>
  <fix>3d</fix>
</trkpt>
<trkpt lat="40.0713749" lon="-105.229789">
  <ele>1583.0</ele>
  <time>2026-08-28T17:53:54Z</time>
  <course>248.25</course>
  <speed>0.01</speed>
  <fix>3d</fix>
</trkpt>
<trkpt lat="40.0713749" lon="-105.229789">
  <ele>1583.0</ele>
  <time>2026-08-28T17:53:54Z</time>
  <course>0.0</course>
  <speed>0.0</speed>
  <fix>3d</fix>
</trkpt>
<trkpt lat="40.0713749" lon="-105.229789">
  <ele>1583.0</ele>
  <time>2026-08-28T17:53:54Z</time>
  <course>248.25</course>
  <speed>0.01</speed>
  <fix>3d</fix>
</trkpt>
<trkpt lat="40.0713749" lon="-105.229789">
  <ele>1583.0</ele>
  <time>2026-08-28T17:53:54Z</time>
  <course>0.0</course>
  <speed>0.0</speed>
  <fix>3d</fix>
</trkpt>
<trkpt lat="40.0713749" lon="-105.229789">
  <ele>1583.0</ele>
  <time>2026-08-28T17:53:54Z</time>
  <course>248.24</course>
  <speed>0.01</speed>
  <fix>3d</fix>
</trkpt>
<trkpt lat="40.0713749" lon="-105.229789">
  <ele>1583.0</ele>
  <time>2026-08-28T17:53:54Z</time>
  <course>0.0</course>
  <speed>0.0</speed>
  <fix>3d</fix>
</trkpt>
<trkpt lat="40.0713749" lon="-105.229789">
  <ele>1583.0</ele>
  <time>2026-08-28T17:53:54Z</time>
  <course>248.24</course>
  <speed>0.01</speed>
  <fix>3d</fix>
</trkpt>
<trkpt lat="40.0713749" lon="-105.229789">
  <ele>1583.0</ele>
  <time>2026-08-28T17:53:54Z</time>
  <course>0.0</course>
  <speed>0.0</speed>
  <fix>3d</fix>
</trkpt>
<trkpt lat="40.0713749" lon="-105.229789">
  <ele>1583.0</ele>
  <time>2026-08-28T17:53:54Z</time>
  <course>248.23</course>
  <speed>0.01</speed>
  <fix>3d</fix>
</trkpt>
<trkpt lat="40.0713749" lon="-105.229789">
  <ele>1583.0</ele>
  <time>2026-08-28T17:53:54Z</time>
  <course>0.0</course>
  <speed>0.0</speed>
  <fix>3d</fix>
</trkpt>
<trkpt lat="40.0713749" lon="-105.229789">
  <ele>1583.0</ele>
  <time>2026-08-28T17:53:54Z</time>
  <course>248.23</course>
  <speed>0.01</speed>
  <fix>3d</fix>
</trkpt>
<trkpt lat="40.0713749" lon="-105.229789">
  <ele>1583.0</ele>
  <time>2026-08-28T17:53:54Z</time>
  <course>0.0</course>
  <speed>0.0</speed>
  <fix>3d</fix>
</trkpt>
<trkpt lat="40.0713749" lon="-105.229789">
  <ele>1583.0</ele>
  <time>2026-08-28T17:53:54Z</time>
  <course>248.22</course>
  <speed>0.01</speed>
  <fix>3d</fix>
</trkpt>
<trkpt lat="40.0713749" lon="-105.229789">
  <ele>1583.0</ele>
  <time>2026-08-28T17:53:54Z</time>
  <course>0.0</course>
  <speed>0.0</speed>
  <fix>3d</fix>
</trkpt>
<trkpt lat="40.0713749" lon="-105.229789">
  <ele>1583.0</ele>
  <time>2026-08-28T17:53:54Z</time>
  <course>248.22</course>
  <speed>0.01</speed>
  <fix>3d</fix>
</trkpt>
<trkpt lat="40.0713749" lon="-105.229789">
  <ele>1583.0</ele>
  <time>2026-08-28T17:53:54Z</time>
  <course>0.0</course>
  <speed>0.0</speed>
  <fix>3d</fix>
</trkpt>
<trkpt lat="40.0713749" lon="-105.229789">
  <ele>1583.0</ele>
  <time>2026-08-28T17:53:54Z</time>
  <course>248.21</course>
  <speed>0.01</speed>
  <fix>3d</fix>
</trkpt>
<trkpt lat="40.0713749" lon="-105.229789">
  <ele>1583.0</ele>
  <time>2026-08-28T17:53:54Z</time>
  <course>0.0</course>
  <speed>0.0</speed>
  <fix>3d</fix>
</trkpt>
<trkpt lat="40.0713749" lon="-105.229789">
  <ele>1583.0</ele>
  <time>2026-08-28T17:53:54Z</time>
  <course>248.21</course>
  <speed>0.01</speed>
  <fix>3d</fix>
</trkpt>
<trkpt lat="40.0713749" lon="-105.229789">
  <ele>1583.0</ele>
  <time>2026-08-28T17:53:54Z</time>
  <course>0.0</course>
  <speed>0.0</speed>
  <fix>3d</fix>
</trkpt>
<trkpt lat="40.0713749" lon="-105.229789">
  <ele>1583.0</ele>
  <time>2026-08-28T17:53:54Z</time>
  <course>248.2</course>
  <speed>0.01</speed>
  <fix>3d</fix>
</trkpt>
<trkpt lat="40.0713749" lon="-105.229789">
  <ele>1583.0</ele>
  <time>2026-08-28T17:53:54Z</time>
  <course>0.0</course>
  <speed>0.0</speed>
  <fix>3d</fix>
</trkpt>
<trkpt lat="40.0713749" lon="-105.229789">
  <ele>1583.0</ele>
  <time>2026-08-28T17:53:54Z</time>
  <course>248.2</course>
  <speed>0.01</speed>
  <fix>3d</fix>
</trkpt>
<trkpt lat="40.0713749" lon="-105.229789">
  <ele>1583.0</ele>
  <time>2026-08-28T17:53:54Z</time>
  <course>0.0</course>
  <speed>0.0</speed>
  <fix>3d</fix>
</trkpt>
<trkpt lat="40.0713749" lon="-105.229789">
  <ele>1583.0</ele>
  <time>2026-08-28T17:53:54Z</time>
  <course>248.19</course>
  <speed>0.01</speed>
  <fix>3d</fix>
</trkpt>
<trkpt lat="40.0713749" lon="-105.229789">
  <ele>1583.0</ele>
  <time>2026-08-28T17:53:54Z</time>
  <course>0.0</course>
  <speed>0.0</speed>
  <fix>3d</fix>
</trkpt>
<trkpt lat="40.0713749" lon="-105.229789">
  <ele>1583.0</ele>
  <time>2026-08-28T17:53:54Z</time>
  <course>248.19</course>
  <speed>0.01</speed>
  <fix>3d</fix>
</trkpt>
<trkpt lat="40.0713749" lon="-105.229789">
  <ele>1583.0</ele>
  <time>2026-08-28T17:53:54Z</time>
  <course>0.0</course>
  <speed>0.0</speed>
  <fix>3d</fix>
</trkpt>
<trkpt lat="40.0713749" lon="-105.229789">
  <ele>1583.0</ele>
  <time>2026-08-28T17:53:54Z</time>
  <course>248.18</course>
  <speed>0.01</speed>
  <fix>3d</fix>
</trkpt>
<trkpt lat="40.0713749" lon="-105.229789">
  <ele>1583.0</ele>
  <time>2026-08-28T17:53:54Z</time>
  <course>0.0</course>
  <speed>0.0</speed>
  <fix>3d</fix>
</trkpt>
<trkpt lat="40.0713749" lon="-105.229789">
  <ele>1583.0</ele>
  <time>2026-08-28T17:53:54Z</time>
  <course>248.18</course>
  <speed>0.01</speed>
  <fix>3d</fix>
</trkpt>
<trkpt lat="40.0713749" lon="-105.229789">
  <ele>1583.0</ele>
  <time>2026-08-28T17:53:54Z</time>
  <course>0.0</course>
  <speed>0.0</speed>
  <fix>3d</fix>
</trkpt>
<trkpt lat="40.0713749" lon="-105.229789">
  <ele>1583.0</ele>
  <time>2026-08-28T17:53:54Z</time>
  <course>248.17</course>
  <speed>0.022360679774997897</speed>
  <fix>3d</fix>
</trkpt>
<trkpt lat="40.0713749" lon="-105.229789">
  <ele>1583.0</ele>
  <time>2026-08-28T17:53:54Z</time>
  <course>0.0</course>
  <speed>0.0</speed>
  <fix>3d</fix>
</trkpt>
<trkpt lat="40.0713749" lon="-105.229789">
  <ele>1583.0</ele>
  <time>2026-08-28T17:53:54Z</time>
  <course>248.17</course>
  <speed>0.022360679774997897</speed>
  <fix>3d</fix>
</trkpt>
<trkpt lat="40.0713749" lon="-105.229789">
  <ele>1583.0</ele>
  <time>2026-08-28T17:53:54Z</time>
  <course>0.0</course>
  <speed>0.0</speed>
  <fix>3d</fix>
</trkpt>
<trkpt lat="40.0713749" lon="-105.229789">
  <ele>1583.0</ele>
  <time>2026-08-28T17:53:54Z</time>
  <course>248.16</course>
  <speed>0.022360679774997897</speed>
  <fix>3d</fix>
</trkpt>
<trkpt lat="40.0713749" lon="-105.229789">
  <ele>1583.0</ele>
  <time>2026-08-28T17:53:54Z</time>
  <course>0.0</course>
  <speed>0.0</speed>
  <fix>3d</fix>
</trkpt>
<trkpt lat="40.0713749" lon="-105.229789">
  <ele>1583.0</ele>
  <time>2026-08-28T17:53:54Z</time>
  <course>248.16</course>
  <speed>0.022360679774997897</speed>
  <fix>3d</fix>
</trkpt>
<trkpt lat="40.0713749" lon="-105.229789">
  <ele>1583.0</ele>
  <time>2026-08-28T17:53:54Z</time>
  <course>0.0</course>
  <speed>0.0</speed>
  <fix>3d</fix>
</trkpt>
<trkpt lat="40.0713749" lon="-105.229789">
  <ele>1583.0</ele>
  <time>2026-08-28T17:53:54Z</time>
  <course>248.15</course>
  <speed>0.022360679774997897</speed>
  <fix>3d</fix>
</trkpt>
<trkpt lat="40.0713749" lon="-105.229789">
  <ele>1583.0</ele>
  <time>2026-08-28T17:53:54Z</time>
  <course>0.0</course>
  <speed>0.0</speed>
  <fix>3d</fix>
</trkpt>
<trkpt lat="40.0713749" lon="-105.229789">
  <ele>1583.0</ele>
  <time>2026-08-28T17:53:54Z</time>
  <course>248.15</course>
  <speed>0.022360679774997897</speed>
  <fix>3d</fix>
</trkpt>
<trkpt lat="40.0713749" lon="-105.229789">
  <ele>1583.0</ele>
  <time>2026-08-28T17:53:54Z</time>
  <course>0.0</course>
  <speed>0.0</speed>
  <fix>3d</fix>
</trkpt>
<trkpt lat="40.0713749" lon="-105.229789">
  <ele>1583.0</ele>
  <time>2026-08-28T17:53:54Z</time>
  <course>248.14</course>
  <speed>0.022360679774997897</speed>
  <fix>3d</fix>
</trkpt>
<trkpt lat="40.0713749" lon="-105.229789">
  <ele>1583.0</ele>
  <time>2026-08-28T17:53:54Z</time>
  <course>0.0</course>
  <speed>0.0</speed>
  <fix>3d</fix>
</trkpt>
<trkpt lat="40.0713749" lon="-105.229789">
  <ele>1583.0</ele>
  <time>2026-08-28T17:53:54Z</time>
  <course>248.14</course>
  <speed>0.022360679774997897</speed>
  <fix>3d</fix>
</trkpt>
<trkpt lat="40.0713749" lon="-105.229789">
  <ele>1583.0</ele>
  <time>2026-08-28T17:53:54Z</time>
  <course>0.0</course>
  <speed>0.0</speed>
  <fix>3d</fix>
</trkpt>
<trkpt lat="40.0713749" lon="-105.229789">
  <ele>1583.0</ele>
  <time>2026-08-28T17:53:54Z</time>
  <course>248.13</course>
  <speed>0.022360679774997897</speed>
  <fix>3d</fix>
</trkpt>
<trkpt lat="40.0713749" lon="-105.229789">
  <ele>1583.0</ele>
  <time>2026-08-28T17:53:54Z</time>
  <course>0.0</course>
  <speed>0.0</speed>
  <fix>3d</fix>
</trkpt>
<trkpt lat="40.0713749" lon="-105.229789">
  <ele>1583.0</ele>
  <time>2026-08-28T17:53:54Z</time>
  <course>248.13</course>
  <speed>0.022360679774997897</speed>
  <fix>3d</fix>
</trkpt>
<trkpt lat="40.0713749" lon="-105.229789">
  <ele>1583.0</ele>
  <time>2026-08-28T17:53:54Z</time>
  <course>0.0</course>
  <speed>0.0</speed>
  <fix>3d</fix>
</trkpt>
<trkpt lat="40.0713749" lon="-105.229789">
  <ele>1583.0</ele>
  <time>2026-08-28T17:53:54Z</time>
  <course>248.12</course>
  <speed>0.022360679774997897</speed>
  <fix>3d</fix>
</trkpt>
<trkpt lat="40.0713749" lon="-105.229789">
  <ele>1583.0</ele>
  <time>2026-08-28T17:53:54Z</time>
  <course>0.0</course>
  <speed>0.0</speed>
  <fix>3d</fix>
</trkpt>
<trkpt lat="40.0713749" lon="-105.229789">
  <ele>1583.0</ele>
  <time>2026-08-28T17:53:54Z</time>
  <course>248.12</course>
  <speed>0.022360679774997897</speed>
  <fix>3d</fix>
</trkpt>
<trkpt lat="40.0713749" lon="-105.229789">
  <ele>1583.0</ele>
  <time>2026-08-28T17:53:54Z</time>
  <course>0.0</course>
  <speed>0.0</speed>
  <fix>3d</fix>
</trkpt>
<trkpt lat="40.0713749" lon="-105.229789">
  <ele>1583.0</ele>
  <time>2026-08-28T17:53:54Z</time>
  <course>248.11</course>
  <speed>0.022360679774997897</speed>
  <fix>3d</fix>
</trkpt>
<trkpt lat="40.0713749" lon="-105.229789">
  <ele>1583.0</ele>
  <time>2026-08-28T17:53:54Z</time>
  <course>0.0</course>
  <speed>0.0</speed>
  <fix>3d</fix>
</trkpt>
<trkpt lat="40.0713749" lon="-105.229789">
  <ele>1583.0</ele>
  <time>2026-08-28T17:53:54Z</time>
  <course>248.11</course>
  <speed>0.022360679774997897</speed>
  <fix>3d</fix>
</trkpt>
<trkpt lat="40.0713749" lon="-105.229789">
  <ele>1583.0</ele>
  <time>2026-08-28T17:53:54Z</time>
  <course>0.0</course>
  <speed>0.0</speed>
  <fix>3d</fix>
</trkpt>
<trkpt lat="40.0713749" lon="-105.229789">
  <ele>1583.0</ele>
  <time>2026-08-28T17:53:54Z</time>
  <course>248.1</course>
  <speed>0.022360679774997897</speed>
  <fix>3d</fix>
</trkpt>
<trkpt lat="40.0713749" lon="-105.229789">
  <ele>1583.0</ele>
  <time>2026-08-28T17:53:54Z</time>
  <course>0.0</course>
  <speed>0.0</speed>
  <fix>3d</fix>
</trkpt>
<trkpt lat="40.0713749" lon="-105.229789">
  <ele>1583.0</ele>
  <time>2026-08-28T17:53:54Z</time>
  <course>248.1</course>
  <speed>0.022360679774997897</speed>
  <fix>3d</fix>
</trkpt>
<trkpt lat="40.0713749" lon="-105.229789">
  <ele>1583.0</ele>
  <time>2026-08-28T17:53:54Z</time>
  <course>0.0</course>
  <speed>0.0</speed>
  <fix>3d</fix>
</trkpt>
<trkpt lat="40.0713749" lon="-105.229789">
  <ele>1583.0</ele>
  <time>2026-08-28T17:53:54Z</time>
  <course>248.09</course>
  <speed>0.022360679774997897</speed>
  <fix>3d</fix>
</trkpt>
<trkpt lat="40.0713749" lon="-105.229789">
  <ele>1583.0</ele>
  <time>2026-08-28T17:53:54Z</time>
  <course>0.0</course>
  <speed>0.0</speed>
  <fix>3d</fix>
</trkpt>
<trkpt lat="40.0713749" lon="-105.229789">
  <ele>1583.0</ele>
  <time>2026-08-28T17:53:54Z</time>
  <course>248.09</course>
  <speed>0.022360679774997897</speed>
  <fix>3d</fix>
</trkpt>
<trkpt lat="40.0713749" lon="-105.229789">
  <ele>1583.0</ele>
  <time>2026-08-28T17:53:54Z</time>
  <course>0.0</course>
  <speed>0.0</speed>
  <fix>3d</fix>
</trkpt>
<trkpt lat="40.0713749" lon="-105.229789">
  <ele>1583.0</ele>
  <time>2026-08-28T17:53:54Z</time>
  <course>248.08</course>
  <speed>0.022360679774997897</speed>
  <fix>3d</fix>
</trkpt>
<trkpt lat="40.0713749" lon="-105.229789">
  <ele>1583.0</ele>
  <time>2026-08-28T17:53:54Z</time>
  <course>0.0</course>
  <speed>0.0</speed>
  <fix>3d</fix>
</trkpt>
<trkpt lat="40.0713749" lon="-105.229789">
  <ele>1583.0</ele>
  <time>2026-08-28T17:53:54Z</time>
  <course>248.08</course>
  <speed>0.022360679774997897</speed>
  <fix>3d</fix>
</trkpt>
<trkpt lat="40.0713749" lon="-105.229789">
  <ele>1583.0</ele>
  <time>2026-08-28T17:53:54Z</time>
  <course>0.0</course>
  <speed>0.0</speed>
  <fix>3d</fix>
</trkpt>
<trkpt lat="40.0713749" lon="-105.229789">
  <ele>1583.0</ele>
  <time>2026-08-28T17:53:54Z</time>
  <course>248.07</course>
  <speed>0.022360679774997897</speed>
  <fix>3d</fix>
</trkpt>
<trkpt lat="40.0713749" lon="-105.229789">
  <ele>1583.0</ele>
  <time>2026-08-28T17:53:54Z</time>
  <course>0.0</course>
  <speed>0.0</speed>
  <fix>3d</fix>
</trkpt>
<trkpt lat="40.0713749" lon="-105.229789">
  <ele>1583.0</ele>
  <time>2026-08-28T17:53:54Z</time>
  <course>248.07</course>
  <speed>0.022360679774997897</speed>
  <fix>3d</fix>
</trkpt>
<trkpt lat="40.0713749" lon="-105.229789">
  <ele>1583.0</ele>
  <time>2026-08-28T17:53:54Z</time>
  <course>0.0</course>
  <speed>0.0</speed>
  <fix>3d</fix>
</trkpt>
<trkpt lat="40.0713749" lon="-105.229789">
  <ele>1583.0</ele>
  <time>2026-08-28T17:53:54Z</time>
  <course>248.06</course>
  <speed>0.022360679774997897</speed>
  <fix>3d</fix>
</trkpt>
<trkpt lat="40.0713749" lon="-105.229789">
  <ele>1583.0</ele>
  <time>2026-08-28T17:53:54Z</time>
  <course>0.0</course>
  <speed>0.0</speed>
  <fix>3d</fix>
</trkpt>
<trkpt lat="40.0713749" lon="-105.229789">
  <ele>1583.0</ele>
  <time>2026-08-28T17:53:54Z</time>
  <course>248.06</course>
  <speed>0.022360679774997897</speed>
  <fix>3d</fix>
</trkpt>
<trkpt lat="40.0713749" lon="-105.229789">
  <ele>1583.0</ele>
  <time>2026-08-28T17:53:54Z</time>
  <course>0.0</course>
  <speed>0.0</speed>
  <fix>3d</fix>
</trkpt>
<trkpt lat="40.0713749" lon="-105.229789">
  <ele>1583.0</ele>
  <time>2026-08-28T17:53:54Z</time>
  <course>248.05</course>
  <speed>0.022360679774997897</speed>
  <fix>3d</fix>
</trkpt>
<trkpt lat="40.0713749" lon="-105.229789">
  <ele>1583.0</ele>
  <time>2026-08-28T17:53:54Z</time>
  <course>0.0</course>
  <speed>0.0</speed>
  <fix>3d</fix>
</trkpt>
<trkpt lat="40.0713749" lon="-105.229789">
  <ele>1583.0</ele>
  <time>2026-08-28T17:53:54Z</time>
  <course>248.05</course>
  <speed>0.022360679774997897</speed>
  <fix>3d</fix>
</trkpt>
<trkpt lat="40.0713749" lon="-105.229789">
  <ele>1583.0</ele>
  <time>2026-08-28T17:53:54Z</time>
  <course>0.0</course>
  <speed>0.0</speed>
  <fix>3d</fix>
</trkpt>
<trkpt lat="40.0713749" lon="-105.229789">
  <ele>1583.0</ele>
  <time>2026-08-28T17:53:54Z</time>
  <course>248.05</course>
  <speed>0.022360679774997897</speed>
  <fix>3d</fix>
</trkpt>
<trkpt lat="40.0713749" lon="-105.229789">
  <ele>1583.0</ele>
  <time>2026-08-28T17:53:54Z</time>
  <course>0.0</course>
  <speed>0.0</speed>
  <fix>3d</fix>
</trkpt>
<trkpt lat="40.0713749" lon="-105.229789">
  <ele>1583.0</ele>
  <time>2026-08-28T17:53:54Z</time>
  <course>248.04</course>
  <speed>0.022360679774997897</speed>
  <fix>3d</fix>
</trkpt>
<trkpt lat="40.0713749" lon="-105.229789">
  <ele>1583.0</ele>
  <time>2026-08-28T17:53:54Z</time>
  <course>0.0</course>
  <speed>0.0</speed>
  <fix>3d</fix>
</trkpt>
<trkpt lat="40.0713749" lon="-105.229789">
  <ele>1583.0</ele>
  <time>2026-08-28T17:53:54Z</time>
  <course>248.04</course>
  <speed>0.022360679774997897</speed>
  <fix>3d</fix>
</trkpt>
<trkpt lat="40.0713749" lon="-105.229789">
  <ele>1583.0</ele>
  <time>2026-08-28T17:53:54Z</time>
  <course>0.0</course>
  <speed>0.0</speed>
  <fix>3d</fix>
</trkpt>
<trkpt lat="40.0713749" lon="-105.229789">
  <ele>1583.0</ele>
  <time>2026-08-28T17:53:54Z</time>
  <course>248.03</course>
  <speed>0.022360679774997897</speed>
  <fix>3d</fix>
</trkpt>
<trkpt lat="40.0713749" lon="-105.229789">
  <ele>1583.0</ele>
  <time>2026-08-28T17:53:54Z</time>
  <course>0.0</course>
  <speed>0.0</speed>
  <fix>3d</fix>
</trkpt>
<trkpt lat="40.0713749" lon="-105.229789">
  <ele>1583.0</ele>
  <time>2026-08-28T17:53:54Z</time>
  <course>248.03</course>
  <speed>0.022360679774997897</speed>
  <fix>3d</fix>
</trkpt>
<trkpt lat="40.0713749" lon="-105.229789">
  <ele>1583.0</ele>
  <time>2026-08-28T17:53:54Z</time>
  <course>0.0</course>
  <speed>0.0</speed>
  <fix>3d</fix>
</trkpt>
<trkpt lat="40.0713749" lon="-105.229789">
  <ele>1583.0</ele>
  <time>2026-08-28T17:53:54Z</time>
  <course>248.02</course>
  <speed>0.022360679774997897</speed>
  <fix>3d</fix>
</trkpt>
<trkpt lat="40.0713749" lon="-105.229789">
  <ele>1583.0</ele>
  <time>2026-08-28T17:53:54Z</time>
  <course>0.0</course>
  <speed>0.0</speed>
  <fix>3d</fix>
</trkpt>
<trkpt lat="40.0713749" lon="-105.229789">
  <ele>1583.0</ele>
  <time>2026-08-28T17:53:54Z</time>
  <course>248.02</course>
  <speed>0.022360679774997897</speed>
  <fix>3d</fix>
</trkpt>
<trkpt lat="40.0713749" lon="-105.229789">
  <ele>1583.0</ele>
  <time>2026-08-28T17:53:54Z</time>
  <course>0.0</course>
  <speed>0.0</speed>
  <fix>3d</fix>
</trkpt>
<trkpt lat="40.0713749" lon="-105.229789">
  <ele>1583.0</ele>
  <time>2026-08-28T17:53:54Z</time>
  <course>248.01</course>
  <speed>0.022360679774997897</speed>
  <fix>3d</fix>
</trkpt>
<trkpt lat="40.0713749" lon="-105.229789">
  <ele>1583.0</ele>
  <time>2026-08-28T17:53:54Z</time>
  <course>0.0</course>
  <speed>0.0</speed>
  <fix>3d</fix>
</trkpt>
<trkpt lat="40.0713749" lon="-105.229789">
  <ele>1583.0</ele>
  <time>2026-08-28T17:53:54Z</time>
  <course>248.01</course>
  <speed>0.022360679774997897</speed>
  <fix>3d</fix>
</trkpt>
<trkpt lat="40.0713749" lon="-105.229789">
  <ele>1583.0</ele>
  <time>2026-08-28T17:53:54Z</time>
  <course>0.0</course>
  <speed>0.0</speed>
  <fix>3d</fix>
</trkpt>
<trkpt lat="40.0713749" lon="-105.229789">
  <ele>1583.0</ele>
  <time>2026-08-28T17:53:54Z</time>
  <course>248.0</course>
  <speed>0.022360679774997897</speed>
  <fix>3d</fix>
</trkpt>
<trkpt lat="40.0713749" lon="-105.229789">
  <ele>1583.0</ele>
  <time>2026-08-28T17:53:54Z</time>
  <course>0.0</course>
  <speed>0.0</speed>
  <fix>3d</fix>
</trkpt>
<trkpt lat="40.0713749" lon="-105.229789">
  <ele>1583.0</ele>
  <time>2026-08-28T17:53:54Z</time>
  <course>248.0</course>
  <speed>0.022360679774997897</speed>
  <fix>3d</fix>
</trkpt>
<trkpt lat="40.0713749" lon="-105.229789">
  <ele>1583.0</ele>
  <time>2026-08-28T17:53:54Z</time>
  <course>0.0</course>
  <speed>0.0</speed>
  <fix>3d</fix>
</trkpt>
<trkpt lat="40.0713749" lon="-105.229789">
  <ele>1583.0</ele>
  <time>2026-08-28T17:53:54Z</time>
  <course>247.99</course>
  <speed>0.022360679774997897</speed>
  <fix>3d</fix>
</trkpt>
<trkpt lat="40.0713749" lon="-105.229789">
  <ele>1583.0</ele>
  <time>2026-08-28T17:53:54Z</time>
  <course>0.0</course>
  <speed>0.0</speed>
  <fix>3d</fix>
</trkpt>
<trkpt lat="40.0713749" lon="-105.229789">
  <ele>1583.0</ele>
  <time>2026-08-28T17:53:54Z</time>
  <course>247.99</course>
  <speed>0.022360679774997897</speed>
  <fix>3d</fix>
</trkpt>
<trkpt lat="40.0713749" lon="-105.229789">
  <ele>1583.0</ele>
  <time>2026-08-28T17:53:54Z</time>
  <course>0.0</course>
  <speed>0.0</speed>
  <fix>3d</fix>
</trkpt>
<trkpt lat="40.0713749" lon="-105.229789">
  <ele>1583.0</ele>
  <time>2026-08-28T17:53:54Z</time>
  <course>247.99</course>
  <speed>0.022360679774997897</speed>
  <fix>3d</fix>
</trkpt>
<trkpt lat="40.0713749" lon="-105.229789">
  <ele>1583.0</ele>
  <time>2026-08-28T17:53:54Z</time>
  <course>0.0</course>
  <speed>0.0</speed>
  <fix>3d</fix>
</trkpt>
<trkpt lat="40.0713749" lon="-105.229789">
  <ele>1583.0</ele>
  <time>2026-08-28T17:53:54Z</time>
  <course>247.98</course>
  <speed>0.022360679774997897</speed>
  <fix>3d</fix>
</trkpt>
<trkpt lat="40.0713749" lon="-105.229789">
  <ele>1583.0</ele>
  <time>2026-08-28T17:53:54Z</time>
  <course>0.0</course>
  <speed>0.0</speed>
  <fix>3d</fix>
</trkpt>
<trkpt lat="40.0713749" lon="-105.229789">
  <ele>1583.0</ele>
  <time>2026-08-28T17:53:54Z</time>
  <course>247.98</course>
  <speed>0.022360679774997897</speed>
  <fix>3d</fix>
</trkpt>
<trkpt lat="40.0713749" lon="-105.229789">
  <ele>1583.0</ele>
  <time>2026-08-28T17:53:54Z</time>
  <course>0.0</course>
  <speed>0.0</speed>
  <fix>3d</fix>
</trkpt>
<trkpt lat="40.0713749" lon="-105.229789">
  <ele>1583.0</ele>
  <time>2026-08-28T17:53:54Z</time>
  <course>247.97</course>
  <speed>0.022360679774997897</speed>
  <fix>3d</fix>
</trkpt>
<trkpt lat="40.0713749" lon="-105.229789">
  <ele>1583.0</ele>
  <time>2026-08-28T17:53:54Z</time>
  <course>0.0</course>
  <speed>0.0</speed>
  <fix>3d</fix>
</trkpt>
<trkpt lat="40.0713749" lon="-105.229789">
  <ele>1583.0</ele>
  <time>2026-08-28T17:53:54Z</time>
  <course>247.97</course>
  <speed>0.022360679774997897</speed>
  <fix>3d</fix>
</trkpt>
<trkpt lat="40.0713749" lon="-105.229789">
  <ele>1583.0</ele>
  <time>2026-08-28T17:53:54Z</time>
  <course>0.0</course>
  <speed>0.0</speed>
  <fix>3d</fix>
</trkpt>
<trkpt lat="40.0713749" lon="-105.229789">
  <ele>1583.0</ele>
  <time>2026-08-28T17:53:54Z</time>
  <course>247.96</course>
  <speed>0.022360679774997897</speed>
  <fix>3d</fix>
</trkpt>
<trkpt lat="40.0713749" lon="-105.229789">
  <ele>1583.0</ele>
  <time>2026-08-28T17:53:54Z</time>
  <course>0.0</course>
  <speed>0.0</speed>
  <fix>3d</fix>
</trkpt>
<trkpt lat="40.0713749" lon="-105.229789">
  <ele>1583.0</ele>
  <time>2026-08-28T17:53:54Z</time>
  <course>247.96</course>
  <speed>0.022360679774997897</speed>
  <fix>3d</fix>
</trkpt>
<trkpt lat="40.0713749" lon="-105.229789">
  <ele>1583.0</ele>
  <time>2026-08-28T17:53:54Z</time>
  <course>0.0</course>
  <speed>0.0</speed>
  <fix>3d</fix>
</trkpt>
<trkpt lat="40.0713749" lon="-105.229789">
  <ele>1583.0</ele>
  <time>2026-08-28T17:53:54Z</time>
  <course>247.95</course>
  <speed>0.022360679774997897</speed>
  <fix>3d</fix>
</trkpt>
<trkpt lat="40.0713749" lon="-105.229789">
  <ele>1583.0</ele>
  <time>2026-08-28T17:53:54Z</time>
  <course>0.0</course>
  <speed>0.0</speed>
  <fix>3d</fix>
</trkpt>
<trkpt lat="40.0713749" lon="-105.229789">
  <ele>1583.0</ele>
  <time>2026-08-28T17:53:54Z</time>
  <course>247.95</course>
  <speed>0.022360679774997897</speed>
  <fix>3d</fix>
</trkpt>
<trkpt lat="40.0713749" lon="-105.229789">
  <ele>1583.0</ele>
  <time>2026-08-28T17:53:54Z</time>
  <course>0.0</course>
  <speed>0.0</speed>
  <fix>3d</fix>
</trkpt>
<trkpt lat="40.0713749" lon="-105.229789">
  <ele>1583.0</ele>
  <time>2026-08-28T17:53:54Z</time>
  <course>247.95</course>
  <speed>0.022360679774997897</speed>
  <fix>3d</fix>
</trkpt>
<trkpt lat="40.0713749" lon="-105.229789">
  <ele>1583.0</ele>
  <time>2026-08-28T17:53:54Z</time>
  <course>0.0</course>
  <speed>0.0</speed>
  <fix>3d</fix>
</trkpt>
<trkpt lat="40.0713749" lon="-105.229789">
  <ele>1583.0</ele>
  <time>2026-08-28T17:53:54Z</time>
  <course>247.94</course>
  <speed>0.022360679774997897</speed>
  <fix>3d</fix>
</trkpt>
<trkpt lat="40.0713749" lon="-105.229789">
  <ele>1583.0</ele>
  <time>2026-08-28T17:53:54Z</time>
  <course>0.0</course>
  <speed>0.0</speed>
  <fix>3d</fix>
</trkpt>
<trkpt lat="40.0713749" lon="-105.229789">
  <ele>1583.0</ele>
  <time>2026-08-28T17:53:54Z</time>
  <course>247.94</course>
  <speed>0.022360679774997897</speed>
  <fix>3d</fix>
</trkpt>
<trkpt lat="40.0713749" lon="-105.229789">
  <ele>1583.0</ele>
  <time>2026-08-28T17:53:54Z</time>
  <course>0.0</course>
  <speed>0.0</speed>
  <fix>3d</fix>
</trkpt>
<trkpt lat="40.0713749" lon="-105.229789">
  <ele>1583.0</ele>
  <time>2026-08-28T17:53:54Z</time>
  <course>247.93</course>
  <speed>0.022360679774997897</speed>
  <fix>3d</fix>
</trkpt>
<trkpt lat="40.0713749" lon="-105.229789">
  <ele>1583.0</ele>
  <time>2026-08-28T17:53:54Z</time>
  <course>0.0</course>
  <speed>0.0</speed>
  <fix>3d</fix>
</trkpt>
<trkpt lat="40.0713749" lon="-105.229789">
  <ele>1583.0</ele>
  <time>2026-08-28T17:53:54Z</time>
  <course>247.93</course>
  <speed>0.022360679774997897</speed>
  <fix>3d</fix>
</trkpt>
<trkpt lat="40.0713749" lon="-105.229789">
  <ele>1583.0</ele>
  <time>2026-08-28T17:53:54Z</time>
  <course>0.0</course>
  <speed>0.0</speed>
  <fix>3d</fix>
</trkpt>
<trkpt lat="40.0713749" lon="-105.229789">
  <ele>1583.0</ele>
  <time>2026-08-28T17:53:54Z</time>
  <course>247.92</course>
  <speed>0.022360679774997897</speed>
  <fix>3d</fix>
</trkpt>
<trkpt lat="40.0713749" lon="-105.229789">
  <ele>1583.0</ele>
  <time>2026-08-28T17:53:54Z</time>
  <course>0.0</course>
  <speed>0.0</speed>
  <fix>3d</fix>
</trkpt>
<trkpt lat="40.0713749" lon="-105.229789">
  <ele>1583.0</ele>
  <time>2026-08-28T17:53:54Z</time>
  <course>247.92</course>
  <speed>0.022360679774997897</speed>
  <fix>3d</fix>
</trkpt>
<trkpt lat="40.0713749" lon="-105.229789">
  <ele>1583.0</ele>
  <time>2026-08-28T17:53:54Z</time>
  <course>0.0</course>
  <speed>0.0</speed>
  <fix>3d</fix>
</trkpt>
<trkpt lat="40.0713749" lon="-105.229789">
  <ele>1583.0</ele>
  <time>2026-08-28T17:53:54Z</time>
  <course>247.92</course>
  <speed>0.022360679774997897</speed>
  <fix>3d</fix>
</trkpt>
<trkpt lat="40.0713749" lon="-105.229789">
  <ele>1583.0</ele>
  <time>2026-08-28T17:53:54Z</time>
  <course>0.0</course>
  <speed>0.0</speed>
  <fix>3d</fix>
</trkpt>
<trkpt lat="40.0713749" lon="-105.229789">
  <ele>1583.0</ele>
  <time>2026-08-28T17:53:54Z</time>
  <course>247.91</course>
  <speed>0.022360679774997897</speed>
  <fix>3d</fix>
</trkpt>
<trkpt lat="40.0713749" lon="-105.229789">
  <ele>1583.0</ele>
  <time>2026-08-28T17:53:54Z</time>
  <course>0.0</course>
  <speed>0.0</speed>
  <fix>3d</fix>
</trkpt>
<trkpt lat="40.0713749" lon="-105.229789">
  <ele>1583.0</ele>
  <time>2026-08-28T17:53:54Z</time>
  <course>247.91</course>
  <speed>0.022360679774997897</speed>
  <fix>3d</fix>
</trkpt>
<trkpt lat="40.0713749" lon="-105.229789">
  <ele>1583.0</ele>
  <time>2026-08-28T17:53:54Z</time>
  <course>0.0</course>
  <speed>0.0</speed>
  <fix>3d</fix>
</trkpt>
<trkpt lat="40.0713749" lon="-105.229789">
  <ele>1583.0</ele>
  <time>2026-08-28T17:53:54Z</time>
  <course>247.9</course>
  <speed>0.022360679774997897</speed>
  <fix>3d</fix>
</trkpt>
<trkpt lat="40.0713749" lon="-105.229789">
  <ele>1583.0</ele>
  <time>2026-08-28T17:53:54Z</time>
  <course>0.0</course>
  <speed>0.0</speed>
  <fix>3d</fix>
</trkpt>
<trkpt lat="40.0713749" lon="-105.229789">
  <ele>1583.0</ele>
  <time>2026-08-28T17:53:54Z</time>
  <course>247.9</course>
  <speed>0.022360679774997897</speed>
  <fix>3d</fix>
</trkpt>
<trkpt lat="40.0713749" lon="-105.229789">
  <ele>1583.0</ele>
  <time>2026-08-28T17:53:54Z</time>
  <course>0.0</course>
  <speed>0.0</speed>
  <fix>3d</fix>
</trkpt>
<trkpt lat="40.0713749" lon="-105.229789">
  <ele>1583.0</ele>
  <time>2026-08-28T17:53:54Z</time>
  <course>247.89</course>
  <speed>0.022360679774997897</speed>
  <fix>3d</fix>
</trkpt>
<trkpt lat="40.0713749" lon="-105.229789">
  <ele>1583.0</ele>
  <time>2026-08-28T17:53:54Z</time>
  <course>0.0</course>
  <speed>0.0</speed>
  <fix>3d</fix>
</trkpt>
<trkpt lat="40.0713749" lon="-105.229789">
  <ele>1583.0</ele>
  <time>2026-08-28T17:53:54Z</time>
  <course>247.89</course>
  <speed>0.022360679774997897</speed>
  <fix>3d</fix>
</trkpt>
<trkpt lat="40.0713749" lon="-105.229789">
  <ele>1583.0</ele>
  <time>2026-08-28T17:53:54Z</time>
  <course>0.0</course>
  <speed>0.0</speed>
  <fix>3d</fix>
</trkpt>
<trkpt lat="40.0713749" lon="-105.229789">
  <ele>1583.0</ele>
  <time>2026-08-28T17:53:54Z</time>
  <course>247.89</course>
  <speed>0.022360679774997897</speed>
  <fix>3d</fix>
</trkpt>
<trkpt lat="40.0713749" lon="-105.229789">
  <ele>1583.0</ele>
  <time>2026-08-28T17:53:54Z</time>
  <course>0.0</course>
  <speed>0.0</speed>
  <fix>3d</fix>
</trkpt>
<trkpt lat="40.0713749" lon="-105.229789">
  <ele>1583.0</ele>
  <time>2026-08-28T17:53:54Z</time>
  <course>247.88</course>
  <speed>0.0316227766016838</speed>
  <fix>3d</fix>
</trkpt>
<trkpt lat="40.0713749" lon="-105.229789">
  <ele>1583.0</ele>
  <time>2026-08-28T17:53:54Z</time>
  <course>0.0</course>
  <speed>0.0</speed>
  <fix>3d</fix>
</trkpt>
<trkpt lat="40.0713749" lon="-105.229789">
  <ele>1583.0</ele>
  <time>2026-08-28T17:53:54Z</time>
  <course>247.88</course>
  <speed>0.0316227766016838</speed>
  <fix>3d</fix>
</trkpt>
<trkpt lat="40.0713749" lon="-105.229789">
  <ele>1583.0</ele>
  <time>2026-08-28T17:53:54Z</time>
  <course>0.0</course>
  <speed>0.0</speed>
  <fix>3d</fix>
</trkpt>
<trkpt lat="40.0713749" lon="-105.229789">
  <ele>1583.0</ele>
  <time>2026-08-28T17:53:54Z</time>
  <course>247.87</course>
  <speed>0.0316227766016838</speed>
  <fix>3d</fix>
</trkpt>
<trkpt lat="40.0713749" lon="-105.229789">
  <ele>1583.0</ele>
  <time>2026-08-28T17:53:54Z</time>
  <course>0.0</course>
  <speed>0.0</speed>
  <fix>3d</fix>
</trkpt>
<trkpt lat="40.0713749" lon="-105.229789">
  <ele>1583.0</ele>
  <time>2026-08-28T17:53:54Z</time>
  <course>247.87</course>
  <speed>0.0316227766016838</speed>
  <fix>3d</fix>
</trkpt>
<trkpt lat="40.0713749" lon="-105.229789">
  <ele>1583.0</ele>
  <time>2026-08-28T17:53:54Z</time>
  <course>0.0</course>
  <speed>0.0</speed>
  <fix>3d</fix>
</trkpt>
<trkpt lat="40.0713749" lon="-105.229789">
  <ele>1583.0</ele>
  <time>2026-08-28T17:53:54Z</time>
  <course>247.87</course>
  <speed>0.0316227766016838</speed>
  <fix>3d</fix>
</trkpt>
<trkpt lat="40.0713749" lon="-105.229789">
  <ele>1583.0</ele>
  <time>2026-08-28T17:53:54Z</time>
  <course>0.0</course>
  <speed>0.0</speed>
  <fix>3d</fix>
</trkpt>
<trkpt lat="40.0713749" lon="-105.229789">
  <ele>1583.0</ele>
  <time>2026-08-28T17:53:54Z</time>
  <course>247.86</course>
  <speed>0.0316227766016838</speed>
  <fix>3d</fix>
</trkpt>
<trkpt lat="40.0713749" lon="-105.229789">
  <ele>1583.0</ele>
  <time>2026-08-28T17:53:54Z</time>
  <course>0.0</course>
  <speed>0.0</speed>
  <fix>3d</fix>
</trkpt>
<trkpt lat="40.0713749" lon="-105.229789">
  <ele>1583.0</ele>
  <time>2026-08-28T17:53:54Z</time>
  <course>247.86</course>
  <speed>0.0316227766016838</speed>
  <fix>3d</fix>
</trkpt>
<trkpt lat="40.0713749" lon="-105.229789">
  <ele>1583.0</ele>
  <time>2026-08-28T17:53:54Z</time>
  <course>0.0</course>
  <speed>0.0</speed>
  <fix>3d</fix>
</trkpt>
<trkpt lat="40.0713749" lon="-105.229789">
  <ele>1583.0</ele>
  <time>2026-08-28T17:53:54Z</time>
  <course>247.85</course>
  <speed>0.0316227766016838</speed>
  <fix>3d</fix>
</trkpt>
<trkpt lat="40.0713749" lon="-105.229789">
  <ele>1583.0</ele>
  <time>2026-08-28T17:53:54Z</time>
  <course>0.0</course>
  <speed>0.0</speed>
  <fix>3d</fix>
</trkpt>
<trkpt lat="40.0713749" lon="-105.229789">
  <ele>1583.0</ele>
  <time>2026-08-28T17:53:54Z</time>
  <course>247.85</course>
  <speed>0.0316227766016838</speed>
  <fix>3d</fix>
</trkpt>
<trkpt lat="40.0713749" lon="-105.229789">
  <ele>1583.0</ele>
  <time>2026-08-28T17:53:54Z</time>
  <course>0.0</course>
  <speed>0.0</speed>
  <fix>3d</fix>
</trkpt>
<trkpt lat="40.0713749" lon="-105.229789">
  <ele>1583.0</ele>
  <time>2026-08-28T17:53:54Z</time>
  <course>247.85</course>
  <speed>0.0316227766016838</speed>
  <fix>3d</fix>
</trkpt>
<trkpt lat="40.0713749" lon="-105.229789">
  <ele>1583.0</ele>
  <time>2026-08-28T17:53:54Z</time>
  <course>0.0</course>
  <speed>0.0</speed>
  <fix>3d</fix>
</trkpt>
<trkpt lat="40.0713749" lon="-105.229789">
  <ele>1583.0</ele>
  <time>2026-08-28T17:53:54Z</time>
  <course>247.84</course>
  <speed>0.0316227766016838</speed>
  <fix>3d</fix>
</trkpt>
<trkpt lat="40.0713749" lon="-105.229789">
  <ele>1583.0</ele>
  <time>2026-08-28T17:53:54Z</time>
  <course>0.0</course>
  <speed>0.0</speed>
  <fix>3d</fix>
</trkpt>
<trkpt lat="40.0713749" lon="-105.229789">
  <ele>1583.0</ele>
  <time>2026-08-28T17:53:54Z</time>
  <course>247.84</course>
  <speed>0.0316227766016838</speed>
  <fix>3d</fix>
</trkpt>
<trkpt lat="40.0713749" lon="-105.229789">
  <ele>1583.0</ele>
  <time>2026-08-28T17:53:54Z</time>
  <course>0.0</course>
  <speed>0.0</speed>
  <fix>3d</fix>
</trkpt>
<trkpt lat="40.0713749" lon="-105.229789">
  <ele>1583.0</ele>
  <time>2026-08-28T17:53:54Z</time>
  <course>247.83</course>
  <speed>0.0316227766016838</speed>
  <fix>3d</fix>
</trkpt>
<trkpt lat="40.0713749" lon="-105.229789">
  <ele>1583.0</ele>
  <time>2026-08-28T17:53:54Z</time>
  <course>0.0</course>
  <speed>0.0</speed>
  <fix>3d</fix>
</trkpt>
<trkpt lat="40.0713749" lon="-105.229789">
  <ele>1583.0</ele>
  <time>2026-08-28T17:53:54Z</time>
  <course>247.83</course>
  <speed>0.0316227766016838</speed>
  <fix>3d</fix>
</trkpt>
<trkpt lat="40.0713749" lon="-105.229789">
  <ele>1583.0</ele>
  <time>2026-08-28T17:53:54Z</time>
  <course>0.0</course>
  <speed>0.0</speed>
  <fix>3d</fix>
</trkpt>
<trkpt lat="40.0713749" lon="-105.229789">
  <ele>1583.0</ele>
  <time>2026-08-28T17:53:54Z</time>
  <course>247.83</course>
  <speed>0.0316227766016838</speed>
  <fix>3d</fix>
</trkpt>
<trkpt lat="40.0713749" lon="-105.229789">
  <ele>1583.0</ele>
  <time>2026-08-28T17:53:54Z</time>
  <course>0.0</course>
  <speed>0.0</speed>
  <fix>3d</fix>
</trkpt>
<trkpt lat="40.0713749" lon="-105.229789">
  <ele>1583.0</ele>
  <time>2026-08-28T17:53:54Z</time>
  <course>247.82</course>
  <speed>0.0316227766016838</speed>
  <fix>3d</fix>
</trkpt>
<trkpt lat="40.0713749" lon="-105.229789">
  <ele>1583.0</ele>
  <time>2026-08-28T17:53:54Z</time>
  <course>0.0</course>
  <speed>0.0</speed>
  <fix>3d</fix>
</trkpt>
<trkpt lat="40.0713749" lon="-105.229789">
  <ele>1583.0</ele>
  <time>2026-08-28T17:53:54Z</time>
  <course>247.82</course>
  <speed>0.0316227766016838</speed>
  <fix>3d</fix>
</trkpt>
<trkpt lat="40.0713749" lon="-105.229789">
  <ele>1583.0</ele>
  <time>2026-08-28T17:53:54Z</time>
  <course>0.0</course>
  <speed>0.0</speed>
  <fix>3d</fix>
</trkpt>
<trkpt lat="40.0713749" lon="-105.229789">
  <ele>1583.0</ele>
  <time>2026-08-28T17:53:54Z</time>
  <course>247.82</course>
  <speed>0.0316227766016838</speed>
  <fix>3d</fix>
</trkpt>
<trkpt lat="40.0713749" lon="-105.229789">
  <ele>1583.0</ele>
  <time>2026-08-28T17:53:54Z</time>
  <course>0.0</course>
  <speed>0.0</speed>
  <fix>3d</fix>
</trkpt>
<trkpt lat="40.0713749" lon="-105.229789">
  <ele>1583.0</ele>
  <time>2026-08-28T17:53:54Z</time>
  <course>247.81</course>
  <speed>0.0316227766016838</speed>
  <fix>3d</fix>
</trkpt>
<trkpt lat="40.0713749" lon="-105.229789">
  <ele>1583.0</ele>
  <time>2026-08-28T17:53:54Z</time>
  <course>0.0</course>
  <speed>0.0</speed>
  <fix>3d</fix>
</trkpt>
<trkpt lat="40.0713749" lon="-105.229789">
  <ele>1583.0</ele>
  <time>2026-08-28T17:53:54Z</time>
  <course>247.81</course>
  <speed>0.0316227766016838</speed>
  <fix>3d</fix>
</trkpt>
<trkpt lat="40.0713749" lon="-105.229789">
  <ele>1583.0</ele>
  <time>2026-08-28T17:53:54Z</time>
  <course>0.0</course>
  <speed>0.0</speed>
  <fix>3d</fix>
</trkpt>
<trkpt lat="40.0713749" lon="-105.229789">
  <ele>1583.0</ele>
  <time>2026-08-28T17:53:54Z</time>
  <course>247.8</course>
  <speed>0.0316227766016838</speed>
  <fix>3d</fix>
</trkpt>
<trkpt lat="40.0713749" lon="-105.229789">
  <ele>1583.0</ele>
  <time>2026-08-28T17:53:54Z</time>
  <course>0.0</course>
  <speed>0.0</speed>
  <fix>3d</fix>
</trkpt>
<trkpt lat="40.0713749" lon="-105.229789">
  <ele>1583.0</ele>
  <time>2026-08-28T17:53:54Z</time>
  <course>247.8</course>
  <speed>0.0316227766016838</speed>
  <fix>3d</fix>
</trkpt>
<trkpt lat="40.0713749" lon="-105.229789">
  <ele>1583.0</ele>
  <time>2026-08-28T17:53:54Z</time>
  <course>0.0</course>
  <speed>0.0</speed>
  <fix>3d</fix>
</trkpt>
<trkpt lat="40.0713749" lon="-105.229789">
  <ele>1583.0</ele>
  <time>2026-08-28T17:53:54Z</time>
  <course>247.8</course>
  <speed>0.0316227766016838</speed>
  <fix>3d</fix>
</trkpt>
<trkpt lat="40.0713749" lon="-105.229789">
  <ele>1583.0</ele>
  <time>2026-08-28T17:53:54Z</time>
  <course>0.0</course>
  <speed>0.0</speed>
  <fix>3d</fix>
</trkpt>
<trkpt lat="40.0713749" lon="-105.229789">
  <ele>1583.0</ele>
  <time>2026-08-28T17:53:54Z</time>
  <course>247.79</course>
  <speed>0.0316227766016838</speed>
  <fix>3d</fix>
</trkpt>
<trkpt lat="40.0713749" lon="-105.229789">
  <ele>1583.0</ele>
  <time>2026-08-28T17:53:54Z</time>
  <course>0.0</course>
  <speed>0.0</speed>
  <fix>3d</fix>
</trkpt>
<trkpt lat="40.0713749" lon="-105.229789">
  <ele>1583.0</ele>
  <time>2026-08-28T17:53:54Z</time>
  <course>247.79</course>
  <speed>0.0316227766016838</speed>
  <fix>3d</fix>
</trkpt>
<trkpt lat="40.0713749" lon="-105.229789">
  <ele>1583.0</ele>
  <time>2026-08-28T17:53:54Z</time>
  <course>0.0</course>
  <speed>0.0</speed>
  <fix>3d</fix>
</trkpt>
<trkpt lat="40.0713749" lon="-105.229789">
  <ele>1583.0</ele>
  <time>2026-08-28T17:53:54Z</time>
  <course>247.79</course>
  <speed>0.0316227766016838</speed>
  <fix>3d</fix>
</trkpt>
<trkpt lat="40.0713749" lon="-105.229789">
  <ele>1583.0</ele>
  <time>2026-08-28T17:53:54Z</time>
  <course>0.0</course>
  <speed>0.0</speed>
  <fix>3d</fix>
</trkpt>
<trkpt lat="40.0713749" lon="-105.229789">
  <ele>1583.0</ele>
  <time>2026-08-28T17:53:54Z</time>
  <course>247.78</course>
  <speed>0.0316227766016838</speed>
  <fix>3d</fix>
</trkpt>
<trkpt lat="40.0713749" lon="-105.229789">
  <ele>1583.0</ele>
  <time>2026-08-28T17:53:54Z</time>
  <course>0.0</course>
  <speed>0.0</speed>
  <fix>3d</fix>
</trkpt>
<trkpt lat="40.0713749" lon="-105.229789">
  <ele>1583.0</ele>
  <time>2026-08-28T17:53:54Z</time>
  <course>247.78</course>
  <speed>0.0316227766016838</speed>
  <fix>3d</fix>
</trkpt>
<trkpt lat="40.0713749" lon="-105.229789">
  <ele>1583.0</ele>
  <time>2026-08-28T17:53:54Z</time>
  <course>0.0</course>
  <speed>0.0</speed>
  <fix>3d</fix>
</trkpt>
<trkpt lat="40.0713749" lon="-105.229789">
  <ele>1583.0</ele>
  <time>2026-08-28T17:53:54Z</time>
  <course>247.78</course>
  <speed>0.0316227766016838</speed>
  <fix>3d</fix>
</trkpt>
<trkpt lat="40.0713749" lon="-105.229789">
  <ele>1583.0</ele>
  <time>2026-08-28T17:53:54Z</time>
  <course>0.0</course>
  <speed>0.0</speed>
  <fix>3d</fix>
</trkpt>
<trkpt lat="40.0713749" lon="-105.229789">
  <ele>1583.0</ele>
  <time>2026-08-28T17:53:54Z</time>
  <course>247.77</course>
  <speed>0.0316227766016838</speed>
  <fix>3d</fix>
</trkpt>
<trkpt lat="40.0713749" lon="-105.229789">
  <ele>1583.0</ele>
  <time>2026-08-28T17:53:54Z</time>
  <course>0.0</course>
  <speed>0.0</speed>
  <fix>3d</fix>
</trkpt>
<trkpt lat="40.0713749" lon="-105.229789">
  <ele>1583.0</ele>
  <time>2026-08-28T17:53:54Z</time>
  <course>247.77</course>
  <speed>0.0316227766016838</speed>
  <fix>3d</fix>
</trkpt>
<trkpt lat="40.0713749" lon="-105.229789">
  <ele>1583.0</ele>
  <time>2026-08-28T17:53:54Z</time>
  <course>0.0</course>
  <speed>0.0</speed>
  <fix>3d</fix>
</trkpt>
<trkpt lat="40.0713749" lon="-105.229789">
  <ele>1583.0</ele>
  <time>2026-08-28T17:53:54Z</time>
  <course>247.76</course>
  <speed>0.0316227766016838</speed>
  <fix>3d</fix>
</trkpt>
<trkpt lat="40.0713749" lon="-105.229789">
  <ele>1583.0</ele>
  <time>2026-08-28T17:53:54Z</time>
  <course>0.0</course>
  <speed>0.0</speed>
  <fix>3d</fix>
</trkpt>
<trkpt lat="40.0713749" lon="-105.229789">
  <ele>1583.0</ele>
  <time>2026-08-28T17:53:54Z</time>
  <course>247.76</course>
  <speed>0.0316227766016838</speed>
  <fix>3d</fix>
</trkpt>
<trkpt lat="40.0713749" lon="-105.229789">
  <ele>1583.0</ele>
  <time>2026-08-28T17:53:54Z</time>
  <course>0.0</course>
  <speed>0.0</speed>
  <fix>3d</fix>
</trkpt>
<trkpt lat="40.0713749" lon="-105.229789">
  <ele>1583.0</ele>
  <time>2026-08-28T17:53:54Z</time>
  <course>247.76</course>
  <speed>0.0316227766016838</speed>
  <fix>3d</fix>
</trkpt>
<trkpt lat="40.0713749" lon="-105.229789">
  <ele>1583.0</ele>
  <time>2026-08-28T17:53:54Z</time>
  <course>0.0</course>
  <speed>0.0</speed>
  <fix>3d</fix>
</trkpt>
<trkpt lat="40.0713749" lon="-105.229789">
  <ele>1583.0</ele>
  <time>2026-08-28T17:53:54Z</time>
  <course>247.75</course>
  <speed>0.0316227766016838</speed>
  <fix>3d</fix>
</trkpt>
<trkpt lat="40.0713749" lon="-105.229789">
  <ele>1583.0</ele>
  <time>2026-08-28T17:53:54Z</time>
  <course>0.0</course>
  <speed>0.0</speed>
  <fix>3d</fix>
</trkpt>
<trkpt lat="40.0713749" lon="-105.229789">
  <ele>1583.0</ele>
  <time>2026-08-28T17:53:54Z</time>
  <course>247.75</course>
  <speed>0.0316227766016838</speed>
  <fix>3d</fix>
</trkpt>
<trkpt lat="40.0713749" lon="-105.229789">
  <ele>1583.0</ele>
  <time>2026-08-28T17:53:54Z</time>
  <course>0.0</course>
  <speed>0.0</speed>
  <fix>3d</fix>
</trkpt>
<trkpt lat="40.0713749" lon="-105.229789">
  <ele>1583.0</ele>
  <time>2026-08-28T17:53:54Z</time>
  <course>247.75</course>
  <speed>0.0316227766016838</speed>
  <fix>3d</fix>
</trkpt>
<trkpt lat="40.0713749" lon="-105.229789">
  <ele>1583.0</ele>
  <time>2026-08-28T17:53:54Z</time>
  <course>0.0</course>
  <speed>0.0</speed>
  <fix>3d</fix>
</trkpt>
<trkpt lat="40.0713749" lon="-105.229789">
  <ele>1583.0</ele>
  <time>2026-08-28T17:53:54Z</time>
  <course>247.74</course>
  <speed>0.0316227766016838</speed>
  <fix>3d</fix>
</trkpt>
<trkpt lat="40.0713749" lon="-105.229789">
  <ele>1583.0</ele>
  <time>2026-08-28T17:53:54Z</time>
  <course>0.0</course>
  <speed>0.0</speed>
  <fix>3d</fix>
</trkpt>
<trkpt lat="40.0713749" lon="-105.229789">
  <ele>1583.0</ele>
  <time>2026-08-28T17:53:54Z</time>
  <course>247.74</course>
  <speed>0.0316227766016838</speed>
  <fix>3d</fix>
</trkpt>
<trkpt lat="40.0713749" lon="-105.229789">
  <ele>1583.0</ele>
  <time>2026-08-28T17:53:54Z</time>
  <course>0.0</course>
  <speed>0.0</speed>
  <fix>3d</fix>
</trkpt>
<trkpt lat="40.0713749" lon="-105.229789">
  <ele>1583.0</ele>
  <time>2026-08-28T17:53:54Z</time>
  <course>247.74</course>
  <speed>0.0316227766016838</speed>
  <fix>3d</fix>
</trkpt>
<trkpt lat="40.0713749" lon="-105.229789">
  <ele>1583.0</ele>
  <time>2026-08-28T17:53:54Z</time>
  <course>0.0</course>
  <speed>0.0</speed>
  <fix>3d</fix>
</trkpt>
<trkpt lat="40.0713749" lon="-105.229789">
  <ele>1583.0</ele>
  <time>2026-08-28T17:53:54Z</time>
  <course>247.73</course>
  <speed>0.0316227766016838</speed>
  <fix>3d</fix>
</trkpt>
<trkpt lat="40.0713749" lon="-105.229789">
  <ele>1583.0</ele>
  <time>2026-08-28T17:53:54Z</time>
  <course>0.0</course>
  <speed>0.0</speed>
  <fix>3d</fix>
</trkpt>
<trkpt lat="40.0713749" lon="-105.229789">
  <ele>1583.0</ele>
  <time>2026-08-28T17:53:54Z</time>
  <course>247.73</course>
  <speed>0.0316227766016838</speed>
  <fix>3d</fix>
</trkpt>
<trkpt lat="40.0713749" lon="-105.229789">
  <ele>1583.0</ele>
  <time>2026-08-28T17:53:54Z</time>
  <course>0.0</course>
  <speed>0.0</speed>
  <fix>3d</fix>
</trkpt>
<trkpt lat="40.0713749" lon="-105.229789">
  <ele>1583.0</ele>
  <time>2026-08-28T17:53:54Z</time>
  <course>247.73</course>
  <speed>0.0316227766016838</speed>
  <fix>3d</fix>
</trkpt>
<trkpt lat="40.0713749" lon="-105.229789">
  <ele>1583.0</ele>
  <time>2026-08-28T17:53:54Z</time>
  <course>0.0</course>
  <speed>0.0</speed>
  <fix>3d</fix>
</trkpt>
<trkpt lat="40.0713749" lon="-105.229789">
  <ele>1583.0</ele>
  <time>2026-08-28T17:53:54Z</time>
  <course>247.72</course>
  <speed>0.0316227766016838</speed>
  <fix>3d</fix>
</trkpt>
<trkpt lat="40.0713749" lon="-105.229789">
  <ele>1583.0</ele>
  <time>2026-08-28T17:53:54Z</time>
  <course>0.0</course>
  <speed>0.0</speed>
  <fix>3d</fix>
</trkpt>
<trkpt lat="40.0713749" lon="-105.229789">
  <ele>1583.0</ele>
  <time>2026-08-28T17:53:54Z</time>
  <course>247.72</course>
  <speed>0.0316227766016838</speed>
  <fix>3d</fix>
</trkpt>
<trkpt lat="40.0713749" lon="-105.229789">
  <ele>1583.0</ele>
  <time>2026-08-28T17:53:54Z</time>
  <course>0.0</course>
  <speed>0.0</speed>
  <fix>3d</fix>
</trkpt>
<trkpt lat="40.0713749" lon="-105.229789">
  <ele>1583.0</ele>
  <time>2026-08-28T17:53:54Z</time>
  <course>247.72</course>
  <speed>0.0316227766016838</speed>
  <fix>3d</fix>
</trkpt>
<trkpt lat="40.0713749" lon="-105.229789">
  <ele>1583.0</ele>
  <time>2026-08-28T17:53:54Z</time>
  <course>0.0</course>
  <speed>0.0</speed>
  <fix>3d</fix>
</trkpt>
<trkpt lat="40.0713749" lon="-105.229789">
  <ele>1583.0</ele>
  <time>2026-08-28T17:53:54Z</time>
  <course>247.71</course>
  <speed>0.0316227766016838</speed>
  <fix>3d</fix>
</trkpt>
<trkpt lat="40.0713749" lon="-105.229789">
  <ele>1583.0</ele>
  <time>2026-08-28T17:53:54Z</time>
  <course>0.0</course>
  <speed>0.0</speed>
  <fix>3d</fix>
</trkpt>
<trkpt lat="40.0713749" lon="-105.229789">
  <ele>1583.0</ele>
  <time>2026-08-28T17:53:54Z</time>
  <course>247.71</course>
  <speed>0.0316227766016838</speed>
  <fix>3d</fix>
</trkpt>
<trkpt lat="40.0713749" lon="-105.229789">
  <ele>1583.0</ele>
  <time>2026-08-28T17:53:54Z</time>
  <course>0.0</course>
  <speed>0.0</speed>
  <fix>3d</fix>
</trkpt>
<trkpt lat="40.0713749" lon="-105.229789">
  <ele>1583.0</ele>
  <time>2026-08-28T17:53:54Z</time>
  <course>247.71</course>
  <speed>0.0316227766016838</speed>
  <fix>3d</fix>
</trkpt>
<trkpt lat="40.0713749" lon="-105.229789">
  <ele>1583.0</ele>
  <time>2026-08-28T17:53:54Z</time>
  <course>0.0</course>
  <speed>0.0</speed>
  <fix>3d</fix>
</trkpt>
<trkpt lat="40.0713749" lon="-105.229789">
  <ele>1583.0</ele>
  <time>2026-08-28T17:53:54Z</time>
  <course>247.7</course>
  <speed>0.0316227766016838</speed>
  <fix>3d</fix>
</trkpt>
<trkpt lat="40.0713749" lon="-105.229789">
  <ele>1583.0</ele>
  <time>2026-08-28T17:53:54Z</time>
  <course>0.0</course>
  <speed>0.0</speed>
  <fix>3d</fix>
</trkpt>
<trkpt lat="40.0713749" lon="-105.229789">
  <ele>1583.0</ele>
  <time>2026-08-28T17:53:54Z</time>
  <course>247.7</course>
  <speed>0.0316227766016838</speed>
  <fix>3d</fix>
</trkpt>
<trkpt lat="40.0713749" lon="-105.229789">
  <ele>1583.0</ele>
  <time>2026-08-28T17:53:54Z</time>
  <course>0.0</course>
  <speed>0.0</speed>
  <fix>3d</fix>
</trkpt>
<trkpt lat="40.0713749" lon="-105.229789">
  <ele>1583.0</ele>
  <time>2026-08-28T17:53:54Z</time>
  <course>247.7</course>
  <speed>0.0316227766016838</speed>
  <fix>3d</fix>
</trkpt>
<trkpt lat="40.0713749" lon="-105.229789">
  <ele>1583.0</ele>
  <time>2026-08-28T17:53:54Z</time>
  <course>0.0</course>
  <speed>0.0</speed>
  <fix>3d</fix>
</trkpt>
<trkpt lat="40.0713749" lon="-105.229789">
  <ele>1583.0</ele>
  <time>2026-08-28T17:53:54Z</time>
  <course>247.69</course>
  <speed>0.0316227766016838</speed>
  <fix>3d</fix>
</trkpt>
<trkpt lat="40.0713749" lon="-105.229789">
  <ele>1583.0</ele>
  <time>2026-08-28T17:53:54Z</time>
  <course>0.0</course>
  <speed>0.0</speed>
  <fix>3d</fix>
</trkpt>
<trkpt lat="40.0713749" lon="-105.229789">
  <ele>1583.0</ele>
  <time>2026-08-28T17:53:54Z</time>
  <course>247.69</course>
  <speed>0.0316227766016838</speed>
  <fix>3d</fix>
</trkpt>
<trkpt lat="40.0713749" lon="-105.229789">
  <ele>1583.0</ele>
  <time>2026-08-28T17:53:54Z</time>
  <course>0.0</course>
  <speed>0.0</speed>
  <fix>3d</fix>
</trkpt>
<trkpt lat="40.0713749" lon="-105.229789">
  <ele>1583.0</ele>
  <time>2026-08-28T17:53:54Z</time>
  <course>247.69</course>
  <speed>0.0316227766016838</speed>
  <fix>3d</fix>
</trkpt>
<trkpt lat="40.0713749" lon="-105.229789">
  <ele>1583.0</ele>
  <time>2026-08-28T17:53:54Z</time>
  <course>0.0</course>
  <speed>0.0</speed>
  <fix>3d</fix>
</trkpt>
<trkpt lat="40.0713749" lon="-105.229789">
  <ele>1583.0</ele>
  <time>2026-08-28T17:53:54Z</time>
  <course>247.68</course>
  <speed>0.0316227766016838</speed>
  <fix>3d</fix>
</trkpt>
<trkpt lat="40.0713749" lon="-105.229789">
  <ele>1583.0</ele>
  <time>2026-08-28T17:53:54Z</time>
  <course>0.0</course>
  <speed>0.0</speed>
  <fix>3d</fix>
</trkpt>
<trkpt lat="40.0713749" lon="-105.229789">
  <ele>1583.0</ele>
  <time>2026-08-28T17:53:54Z</time>
  <course>247.68</course>
  <speed>0.0316227766016838</speed>
  <fix>3d</fix>
</trkpt>
<trkpt lat="40.0713749" lon="-105.229789">
  <ele>1583.0</ele>
  <time>2026-08-28T17:53:54Z</time>
  <course>0.0</course>
  <speed>0.0</speed>
  <fix>3d</fix>
</trkpt>
<trkpt lat="40.0713749" lon="-105.229789">
  <ele>1583.0</ele>
  <time>2026-08-28T17:53:54Z</time>
  <course>247.68</course>
  <speed>0.0316227766016838</speed>
  <fix>3d</fix>
</trkpt>
<trkpt lat="40.0713749" lon="-105.229789">
  <ele>1583.0</ele>
  <time>2026-08-28T17:53:54Z</time>
  <course>0.0</course>
  <speed>0.0</speed>
  <fix>3d</fix>
</trkpt>
<trkpt lat="40.0713749" lon="-105.229789">
  <ele>1583.0</ele>
  <time>2026-08-28T17:53:54Z</time>
  <course>247.67</course>
  <speed>0.0316227766016838</speed>
  <fix>3d</fix>
</trkpt>
<trkpt lat="40.0713749" lon="-105.229789">
  <ele>1583.0</ele>
  <time>2026-08-28T17:53:54Z</time>
  <course>0.0</course>
  <speed>0.0</speed>
  <fix>3d</fix>
</trkpt>
<trkpt lat="40.0713749" lon="-105.229789">
  <ele>1583.0</ele>
  <time>2026-08-28T17:53:54Z</time>
  <course>247.67</course>
  <speed>0.0316227766016838</speed>
  <fix>3d</fix>
</trkpt>
<trkpt lat="40.0713749" lon="-105.229789">
  <ele>1583.0</ele>
  <time>2026-08-28T17:53:54Z</time>
  <course>0.0</course>
  <speed>0.0</speed>
  <fix>3d</fix>
</trkpt>
<trkpt lat="40.0713749" lon="-105.229789">
  <ele>1583.0</ele>
  <time>2026-08-28T17:53:54Z</time>
  <course>247.67</course>
  <speed>0.0316227766016838</speed>
  <fix>3d</fix>
</trkpt>
<trkpt lat="40.0713749" lon="-105.229789">
  <ele>1583.0</ele>
  <time>2026-08-28T17:53:54Z</time>
  <course>0.0</course>
  <speed>0.0</speed>
  <fix>3d</fix>
</trkpt>
<trkpt lat="40.0713749" lon="-105.229789">
  <ele>1583.0</ele>
  <time>2026-08-28T17:53:54Z</time>
  <course>247.66</course>
  <speed>0.0316227766016838</speed>
  <fix>3d</fix>
</trkpt>
<trkpt lat="40.0713749" lon="-105.229789">
  <ele>1583.0</ele>
  <time>2026-08-28T17:53:54Z</time>
  <course>0.0</course>
  <speed>0.0</speed>
  <fix>3d</fix>
</trkpt>
<trkpt lat="40.0713749" lon="-105.229789">
  <ele>1583.0</ele>
  <time>2026-08-28T17:53:54Z</time>
  <course>247.66</course>
  <speed>0.0316227766016838</speed>
  <fix>3d</fix>
</trkpt>
<trkpt lat="40.0713749" lon="-105.229789">
  <ele>1583.0</ele>
  <time>2026-08-28T17:53:54Z</time>
  <course>0.0</course>
  <speed>0.0</speed>
  <fix>3d</fix>
</trkpt>
<trkpt lat="40.0713749" lon="-105.229789">
  <ele>1583.0</ele>
  <time>2026-08-28T17:53:54Z</time>
  <course>247.66</course>
  <speed>0.0316227766016838</speed>
  <fix>3d</fix>
</trkpt>
<trkpt lat="40.0713749" lon="-105.229789">
  <ele>1583.0</ele>
  <time>2026-08-28T17:53:54Z</time>
  <course>0.0</course>
  <speed>0.0</speed>
  <fix>3d</fix>
</trkpt>
<trkpt lat="40.0713749" lon="-105.229789">
  <ele>1583.0</ele>
  <time>2026-08-28T17:53:54Z</time>
  <course>247.65</course>
  <speed>0.0316227766016838</speed>
  <fix>3d</fix>
</trkpt>
<trkpt lat="40.0713749" lon="-105.229789">
  <ele>1583.0</ele>
  <time>2026-08-28T17:53:54Z</time>
  <course>0.0</course>
  <speed>0.0</speed>
  <fix>3d</fix>
</trkpt>
<trkpt lat="40.0713749" lon="-105.229789">
  <ele>1583.0</ele>
  <time>2026-08-28T17:53:54Z</time>
  <course>247.65</course>
  <speed>0.0316227766016838</speed>
  <fix>3d</fix>
</trkpt>
<trkpt lat="40.0713749" lon="-105.229789">
  <ele>1583.0</ele>
  <time>2026-08-28T17:53:54Z</time>
  <course>0.0</course>
  <speed>0.0</speed>
  <fix>3d</fix>
</trkpt>
<trkpt lat="40.0713749" lon="-105.229789">
  <ele>1583.0</ele>
  <time>2026-08-28T17:53:54Z</time>
  <course>247.65</course>
  <speed>0.0316227766016838</speed>
  <fix>3d</fix>
</trkpt>
<trkpt lat="40.0713749" lon="-105.229789">
  <ele>1583.0</ele>
  <time>2026-08-28T17:53:54Z</time>
  <course>0.0</course>
  <speed>0.0</speed>
  <fix>3d</fix>
</trkpt>
<trkpt lat="40.0713749" lon="-105.229789">
  <ele>1583.0</ele>
  <time>2026-08-28T17:53:54Z</time>
  <course>247.64</course>
  <speed>0.0316227766016838</speed>
  <fix>3d</fix>
</trkpt>
<trkpt lat="40.0713749" lon="-105.229789">
  <ele>1583.0</ele>
  <time>2026-08-28T17:53:54Z</time>
  <course>0.0</course>
  <speed>0.0</speed>
  <fix>3d</fix>
</trkpt>
<trkpt lat="40.0713749" lon="-105.229789">
  <ele>1583.0</ele>
  <time>2026-08-28T17:53:54Z</time>
  <course>247.64</course>
  <speed>0.0316227766016838</speed>
  <fix>3d</fix>
</trkpt>
<trkpt lat="40.0713749" lon="-105.229789">
  <ele>1583.0</ele>
  <time>2026-08-28T17:53:54Z</time>
  <course>0.0</course>
  <speed>0.0</speed>
  <fix>3d</fix>
</trkpt>
<trkpt lat="40.0713749" lon="-105.229789">
  <ele>1583.0</ele>
  <time>2026-08-28T17:53:54Z</time>
  <course>247.64</course>
  <speed>0.0316227766016838</speed>
  <fix>3d</fix>
</trkpt>
<trkpt lat="40.0713749" lon="-105.229789">
  <ele>1583.0</ele>
  <time>2026-08-28T17:53:54Z</time>
  <course>0.0</course>
  <speed>0.0</speed>
  <fix>3d</fix>
</trkpt>
<trkpt lat="40.0713749" lon="-105.229789">
  <ele>1583.0</ele>
  <time>2026-08-28T17:53:54Z</time>
  <course>247.64</course>
  <speed>0.0316227766016838</speed>
  <fix>3d</fix>
</trkpt>
<trkpt lat="40.0713749" lon="-105.229789">
  <ele>1583.0</ele>
  <time>2026-08-28T17:53:54Z</time>
  <course>0.0</course>
  <speed>0.0</speed>
  <fix>3d</fix>
</trkpt>
<trkpt lat="39.655741" lon="-104.1383097">
  <ele>1566.58</ele>
  <time>2026-08-28T17:53:55Z</time>
  <course>0.0</course>
  <speed>0.0</speed>
  <fix>3d</fix>
</trkpt>
<trkpt lat="40.0713749" lon="-105.229789">
  <ele>1583.0</ele>
  <time>2026-08-28T17:53:55Z</time>
  <course>0.0</course>
  <speed>0.0</speed>
  <fix>3d</fix>
</trkpt>
<trkpt lat="40.0713749" lon="-105.229789">
  <ele>1583.0</ele>
  <time>2026-08-28T17:53:55Z</time>
  <course>238.36</course>
  <speed>0.0</speed>
  <fix>3d</fix>
</trkpt>
<trkpt lat="40.0713749" lon="-105.229789">
  <ele>1583.0</ele>
  <time>2026-08-28T17:53:55Z</time>
  <course>0.0</course>
  <speed>0.0</speed>
  <fix>3d</fix>
</trkpt>
<trkpt lat="40.0713749" lon="-105.229789">
  <ele>1583.0</ele>
  <time>2026-08-28T17:53:55Z</time>
  <course>238.44</course>
  <speed>0.0</speed>
  <fix>3d</fix>
</trkpt>
<trkpt lat="40.0713749" lon="-105.229789">
  <ele>1583.0</ele>
  <time>2026-08-28T17:53:55Z</time>
  <course>0.0</course>
  <speed>0.0</speed>
  <fix>3d</fix>
</trkpt>
<trkpt lat="40.0713749" lon="-105.229789">
  <ele>1583.0</ele>
  <time>2026-08-28T17:53:55Z</time>
  <course>238.64</course>
  <speed>0.0</speed>
  <fix>3d</fix>
</trkpt>
<trkpt lat="40.0713749" lon="-105.229789">
  <ele>1583.0</ele>
  <time>2026-08-28T17:53:55Z</time>
  <course>0.0</course>
  <speed>0.0</speed>
  <fix>3d</fix>
</trkpt>
<trkpt lat="40.0713749" lon="-105.229789">
  <ele>1583.0</ele>
  <time>2026-08-28T17:53:55Z</time>
  <course>238.93</course>
  <speed>0.0</speed>
  <fix>3d</fix>
</trkpt>
<trkpt lat="40.0713749" lon="-105.229789">
  <ele>1583.0</ele>
  <time>2026-08-28T17:53:55Z</time>
  <course>0.0</course>
  <speed>0.0</speed>
  <fix>3d</fix>
</trkpt>
<trkpt lat="40.0713749" lon="-105.229789">
  <ele>1583.0</ele>
  <time>2026-08-28T17:53:55Z</time>
  <course>239.26</course>
  <speed>0.0</speed>
  <fix>3d</fix>
</trkpt>
<trkpt lat="40.0713749" lon="-105.229789">
  <ele>1583.0</ele>
  <time>2026-08-28T17:53:55Z</time>
  <course>0.0</course>
  <speed>0.0</speed>
  <fix>3d</fix>
</trkpt>
<trkpt lat="40.0713749" lon="-105.229789">
  <ele>1583.0</ele>
  <time>2026-08-28T17:53:55Z</time>
  <course>239.61</course>
  <speed>0.0</speed>
  <fix>3d</fix>
</trkpt>
<trkpt lat="40.0713749" lon="-105.229789">
  <ele>1583.0</ele>
  <time>2026-08-28T17:53:55Z</time>
  <course>0.0</course>
  <speed>0.0</speed>
  <fix>3d</fix>
</trkpt>
<trkpt lat="40.0713749" lon="-105.229789">
  <ele>1583.0</ele>
  <time>2026-08-28T17:53:55Z</time>
  <course>239.96</course>
  <speed>0.0</speed>
  <fix>3d</fix>
</trkpt>
<trkpt lat="40.0713749" lon="-105.229789">
  <ele>1583.0</ele>
  <time>2026-08-28T17:53:55Z</time>
  <course>0.0</course>
  <speed>0.0</speed>
  <fix>3d</fix>
</trkpt>
<trkpt lat="40.0713749" lon="-105.229789">
  <ele>1583.0</ele>
  <time>2026-08-28T17:53:55Z</time>
  <course>240.29</course>
  <speed>0.0</speed>
  <fix>3d</fix>
</trkpt>
<trkpt lat="40.0713749" lon="-105.229789">
  <ele>1583.0</ele>
  <time>2026-08-28T17:53:55Z</time>
  <course>0.0</course>
  <speed>0.0</speed>
  <fix>3d</fix>
</trkpt>
<trkpt lat="40.0713749" lon="-105.229789">
  <ele>1583.0</ele>
  <time>2026-08-28T17:53:55Z</time>
  <course>240.61</course>
  <speed>0.0</speed>
  <fix>3d</fix>
</trkpt>
<trkpt lat="40.0713749" lon="-105.229789">
  <ele>1583.0</ele>
  <time>2026-08-28T17:53:55Z</time>
  <course>0.0</course>
  <speed>0.0</speed>
  <fix>3d</fix>
</trkpt>
<trkpt lat="40.0713749" lon="-105.229789">
  <ele>1583.0</ele>
  <time>2026-08-28T17:53:55Z</time>
  <course>240.92</course>
  <speed>0.0</speed>
  <fix>3d</fix>
</trkpt>
<trkpt lat="40.0713749" lon="-105.229789">
  <ele>1583.0</ele>
  <time>2026-08-28T17:53:55Z</time>
  <course>0.0</course>
  <speed>0.0</speed>
  <fix>3d</fix>
</trkpt>
<trkpt lat="40.0713749" lon="-105.229789">
  <ele>1583.0</ele>
  <time>2026-08-28T17:53:55Z</time>
  <course>241.21</course>
  <speed>0.0</speed>
  <fix>3d</fix>
</trkpt>
<trkpt lat="40.0713749" lon="-105.229789">
  <ele>1583.0</ele>
  <time>2026-08-28T17:53:55Z</time>
  <course>0.0</course>
  <speed>0.0</speed>
  <fix>3d</fix>
</trkpt>
<trkpt lat="40.0713749" lon="-105.229789">
  <ele>1583.0</ele>
  <time>2026-08-28T17:53:55Z</time>
  <course>241.49</course>
  <speed>0.0</speed>
  <fix>3d</fix>
</trkpt>
<trkpt lat="40.0713749" lon="-105.229789">
  <ele>1583.0</ele>
  <time>2026-08-28T17:53:55Z</time>
  <course>0.0</course>
  <speed>0.0</speed>
  <fix>3d</fix>
</trkpt>
<trkpt lat="40.0713749" lon="-105.229789">
  <ele>1583.0</ele>
  <time>2026-08-28T17:53:55Z</time>
  <course>241.77</course>
  <speed>0.0</speed>
  <fix>3d</fix>
</trkpt>
<trkpt lat="40.0713749" lon="-105.229789">
  <ele>1583.0</ele>
  <time>2026-08-28T17:53:55Z</time>
  <course>0.0</course>
  <speed>0.0</speed>
  <fix>3d</fix>
</trkpt>
<trkpt lat="40.0713749" lon="-105.229789">
  <ele>1583.0</ele>
  <time>2026-08-28T17:53:55Z</time>
  <course>242.03</course>
  <speed>0.0</speed>
  <fix>3d</fix>
</trkpt>
<trkpt lat="40.0713749" lon="-105.229789">
  <ele>1583.0</ele>
  <time>2026-08-28T17:53:55Z</time>
  <course>0.0</course>
  <speed>0.0</speed>
  <fix>3d</fix>
</trkpt>
<trkpt lat="40.0713749" lon="-105.229789">
  <ele>1583.0</ele>
  <time>2026-08-28T17:53:55Z</time>
  <course>242.29</course>
  <speed>0.0</speed>
  <fix>3d</fix>
</trkpt>
<trkpt lat="40.0713749" lon="-105.229789">
  <ele>1583.0</ele>
  <time>2026-08-28T17:53:55Z</time>
  <course>0.0</course>
  <speed>0.0</speed>
  <fix>3d</fix>
</trkpt>
<trkpt lat="40.0713749" lon="-105.229789">
  <ele>1583.0</ele>
  <time>2026-08-28T17:53:55Z</time>
  <course>242.54</course>
  <speed>0.0</speed>
  <fix>3d</fix>
</trkpt>
<trkpt lat="40.0713749" lon="-105.229789">
  <ele>1583.0</ele>
  <time>2026-08-28T17:53:55Z</time>
  <course>0.0</course>
  <speed>0.0</speed>
  <fix>3d</fix>
</trkpt>
<trkpt lat="40.0713749" lon="-105.229789">
  <ele>1583.0</ele>
  <time>2026-08-28T17:53:55Z</time>
  <course>242.79</course>
  <speed>0.0</speed>
  <fix>3d</fix>
</trkpt>
<trkpt lat="40.0713749" lon="-105.229789">
  <ele>1583.0</ele>
  <time>2026-08-28T17:53:55Z</time>
  <course>0.0</course>
  <speed>0.0</speed>
  <fix>3d</fix>
</trkpt>
<trkpt lat="40.0713749" lon="-105.229789">
  <ele>1583.0</ele>
  <time>2026-08-28T17:53:55Z</time>
  <course>243.02</course>
  <speed>0.0</speed>
  <fix>3d</fix>
</trkpt>
<trkpt lat="40.0713749" lon="-105.229789">
  <ele>1583.0</ele>
  <time>2026-08-28T17:53:55Z</time>
  <course>0.0</course>
  <speed>0.0</speed>
  <fix>3d</fix>
</trkpt>
<trkpt lat="40.0713749" lon="-105.229789">
  <ele>1583.0</ele>
  <time>2026-08-28T17:53:55Z</time>
  <course>243.25</course>
  <speed>0.0</speed>
  <fix>3d</fix>
</trkpt>
<trkpt lat="40.0713749" lon="-105.229789">
  <ele>1583.0</ele>
  <time>2026-08-28T17:53:55Z</time>
  <course>0.0</course>
  <speed>0.0</speed>
  <fix>3d</fix>
</trkpt>
<trkpt lat="40.0713749" lon="-105.229789">
  <ele>1583.0</ele>
  <time>2026-08-28T17:53:55Z</time>
  <course>243.47</course>
  <speed>0.0</speed>
  <fix>3d</fix>
</trkpt>
<trkpt lat="40.0713749" lon="-105.229789">
  <ele>1583.0</ele>
  <time>2026-08-28T17:53:55Z</time>
  <course>0.0</course>
  <speed>0.0</speed>
  <fix>3d</fix>
</trkpt>
<trkpt lat="40.0713749" lon="-105.229789">
  <ele>1583.0</ele>
  <time>2026-08-28T17:53:55Z</time>
  <course>243.68</course>
  <speed>0.0</speed>
  <fix>3d</fix>
</trkpt>
<trkpt lat="40.0713749" lon="-105.229789">
  <ele>1583.0</ele>
  <time>2026-08-28T17:53:55Z</time>
  <course>0.0</course>
  <speed>0.0</speed>
  <fix>3d</fix>
</trkpt>
<trkpt lat="40.0713749" lon="-105.229789">
  <ele>1583.0</ele>
  <time>2026-08-28T17:53:55Z</time>
  <course>243.89</course>
  <speed>0.0</speed>
  <fix>3d</fix>
</trkpt>
<trkpt lat="40.0713749" lon="-105.229789">
  <ele>1583.0</ele>
  <time>2026-08-28T17:53:55Z</time>
  <course>0.0</course>
  <speed>0.0</speed>
  <fix>3d</fix>
</trkpt>
<trkpt lat="40.0713749" lon="-105.229789">
  <ele>1583.0</ele>
  <time>2026-08-28T17:53:55Z</time>
  <course>244.09</course>
  <speed>0.0</speed>
  <fix>3d</fix>
</trkpt>
<trkpt lat="40.0713749" lon="-105.229789">
  <ele>1583.0</ele>
  <time>2026-08-28T17:53:55Z</time>
  <course>0.0</course>
  <speed>0.0</speed>
  <fix>3d</fix>
</trkpt>
<trkpt lat="40.0713749" lon="-105.229789">
  <ele>1583.0</ele>
  <time>2026-08-28T17:53:55Z</time>
  <course>244.28</course>
  <speed>0.0</speed>
  <fix>3d</fix>
</trkpt>
<trkpt lat="40.0713749" lon="-105.229789">
  <ele>1583.0</ele>
  <time>2026-08-28T17:53:55Z</time>
  <course>0.0</course>
  <speed>0.0</speed>
  <fix>3d</fix>
</trkpt>
<trkpt lat="40.0713749" lon="-105.229789">
  <ele>1583.0</ele>
  <time>2026-08-28T17:53:55Z</time>
  <course>244.46</course>
  <speed>0.0</speed>
  <fix>3d</fix>
</trkpt>
<trkpt lat="40.0713749" lon="-105.229789">
  <ele>1583.0</ele>
  <time>2026-08-28T17:53:55Z</time>
  <course>0.0</course>
  <speed>0.0</speed>
  <fix>3d</fix>
</trkpt>
<trkpt lat="40.0713749" lon="-105.229789">
  <ele>1583.0</ele>
  <time>2026-08-28T17:53:55Z</time>
  <course>244.64</course>
  <speed>0.0</speed>
  <fix>3d</fix>
</trkpt>
<trkpt lat="40.0713749" lon="-105.229789">
  <ele>1583.0</ele>
  <time>2026-08-28T17:53:55Z</time>
  <course>0.0</course>
  <speed>0.0</speed>
  <fix>3d</fix>
</trkpt>
<trkpt lat="40.0713749" lon="-105.229789">
  <ele>1583.0</ele>
  <time>2026-08-28T17:53:55Z</time>
  <course>244.81</course>
  <speed>0.0</speed>
  <fix>3d</fix>
</trkpt>
<trkpt lat="40.0713749" lon="-105.229789">
  <ele>1583.0</ele>
  <time>2026-08-28T17:53:55Z</time>
  <course>0.0</course>
  <speed>0.0</speed>
  <fix>3d</fix>
</trkpt>
<trkpt lat="40.0713749" lon="-105.229789">
  <ele>1583.0</ele>
  <time>2026-08-28T17:53:55Z</time>
  <course>244.97</course>
  <speed>0.0</speed>
  <fix>3d</fix>
</trkpt>
<trkpt lat="40.0713749" lon="-105.229789">
  <ele>1583.0</ele>
  <time>2026-08-28T17:53:55Z</time>
  <course>0.0</course>
  <speed>0.0</speed>
  <fix>3d</fix>
</trkpt>
<trkpt lat="40.0713749" lon="-105.229789">
  <ele>1583.0</ele>
  <time>2026-08-28T17:53:55Z</time>
  <course>245.13</course>
  <speed>0.0</speed>
  <fix>3d</fix>
</trkpt>
<trkpt lat="40.0713749" lon="-105.229789">
  <ele>1583.0</ele>
  <time>2026-08-28T17:53:55Z</time>
  <course>0.0</course>
  <speed>0.0</speed>
  <fix>3d</fix>
</trkpt>
<trkpt lat="40.0713749" lon="-105.229789">
  <ele>1583.0</ele>
  <time>2026-08-28T17:53:55Z</time>
  <course>245.29</course>
  <speed>0.0</speed>
  <fix>3d</fix>
</trkpt>
<trkpt lat="40.0713749" lon="-105.229789">
  <ele>1583.0</ele>
  <time>2026-08-28T17:53:55Z</time>
  <course>0.0</course>
  <speed>0.0</speed>
  <fix>3d</fix>
</trkpt>
<trkpt lat="40.0713749" lon="-105.229789">
  <ele>1583.0</ele>
  <time>2026-08-28T17:53:55Z</time>
  <course>245.43</course>
  <speed>0.0</speed>
  <fix>3d</fix>
</trkpt>
<trkpt lat="40.0713749" lon="-105.229789">
  <ele>1583.0</ele>
  <time>2026-08-28T17:53:55Z</time>
  <course>0.0</course>
  <speed>0.0</speed>
  <fix>3d</fix>
</trkpt>
<trkpt lat="40.0713749" lon="-105.229789">
  <ele>1583.0</ele>
  <time>2026-08-28T17:53:55Z</time>
  <course>245.57</course>
  <speed>0.0</speed>
  <fix>3d</fix>
</trkpt>
<trkpt lat="40.0713749" lon="-105.229789">
  <ele>1583.0</ele>
  <time>2026-08-28T17:53:55Z</time>
  <course>0.0</course>
  <speed>0.0</speed>
  <fix>3d</fix>
</trkpt>
<trkpt lat="40.0713749" lon="-105.229789">
  <ele>1583.0</ele>
  <time>2026-08-28T17:53:55Z</time>
  <course>245.71</course>
  <speed>0.0</speed>
  <fix>3d</fix>
</trkpt>
<trkpt lat="40.0713749" lon="-105.229789">
  <ele>1583.0</ele>
  <time>2026-08-28T17:53:55Z</time>
  <course>0.0</course>
  <speed>0.0</speed>
  <fix>3d</fix>
</trkpt>
<trkpt lat="40.0713749" lon="-105.229789">
  <ele>1583.0</ele>
  <time>2026-08-28T17:53:55Z</time>
  <course>245.84</course>
  <speed>0.0</speed>
  <fix>3d</fix>
</trkpt>
<trkpt lat="40.0713749" lon="-105.229789">
  <ele>1583.0</ele>
  <time>2026-08-28T17:53:55Z</time>
  <course>0.0</course>
  <speed>0.0</speed>
  <fix>3d</fix>
</trkpt>
<trkpt lat="40.0713749" lon="-105.229789">
  <ele>1583.0</ele>
  <time>2026-08-28T17:53:55Z</time>
  <course>245.96</course>
  <speed>0.0</speed>
  <fix>3d</fix>
</trkpt>
<trkpt lat="40.0713749" lon="-105.229789">
  <ele>1583.0</ele>
  <time>2026-08-28T17:53:55Z</time>
  <course>0.0</course>
  <speed>0.0</speed>
  <fix>3d</fix>
</trkpt>
<trkpt lat="40.0713749" lon="-105.229789">
  <ele>1583.0</ele>
  <time>2026-08-28T17:53:55Z</time>
  <course>246.08</course>
  <speed>0.0</speed>
  <fix>3d</fix>
</trkpt>
<trkpt lat="40.0713749" lon="-105.229789">
  <ele>1583.0</ele>
  <time>2026-08-28T17:53:55Z</time>
  <course>0.0</course>
  <speed>0.0</speed>
  <fix>3d</fix>
</trkpt>
<trkpt lat="40.0713749" lon="-105.229789">
  <ele>1583.0</ele>
  <time>2026-08-28T17:53:55Z</time>
  <course>246.19</course>
  <speed>0.0</speed>
  <fix>3d</fix>
</trkpt>
<trkpt lat="40.0713749" lon="-105.229789">
  <ele>1583.0</ele>
  <time>2026-08-28T17:53:55Z</time>
  <course>0.0</course>
  <speed>0.0</speed>
  <fix>3d</fix>
</trkpt>
<trkpt lat="40.0713749" lon="-105.229789">
  <ele>1583.0</ele>
  <time>2026-08-28T17:53:55Z</time>
  <course>246.3</course>
  <speed>0.0</speed>
  <fix>3d</fix>
</trkpt>
<trkpt lat="40.0713749" lon="-105.229789">
  <ele>1583.0</ele>
  <time>2026-08-28T17:53:55Z</time>
  <course>0.0</course>
  <speed>0.0</speed>
  <fix>3d</fix>
</trkpt>
<trkpt lat="40.0713749" lon="-105.229789">
  <ele>1583.0</ele>
  <time>2026-08-28T17:53:55Z</time>
  <course>246.41</course>
  <speed>0.0</speed>
  <fix>3d</fix>
</trkpt>
<trkpt lat="40.0713749" lon="-105.229789">
  <ele>1583.0</ele>
  <time>2026-08-28T17:53:55Z</time>
  <course>0.0</course>
  <speed>0.0</speed>
  <fix>3d</fix>
</trkpt>
<trkpt lat="40.0713749" lon="-105.229789">
  <ele>1583.0</ele>
  <time>2026-08-28T17:53:55Z</time>
  <course>246.51</course>
  <speed>0.0</speed>
  <fix>3d</fix>
</trkpt>
<trkpt lat="40.0713749" lon="-105.229789">
  <ele>1583.0</ele>
  <time>2026-08-28T17:53:55Z</time>
  <course>0.0</course>
  <speed>0.0</speed>
  <fix>3d</fix>
</trkpt>
<trkpt lat="40.0713749" lon="-105.229789">
  <ele>1583.0</ele>
  <time>2026-08-28T17:53:55Z</time>
  <course>246.6</course>
  <speed>0.0</speed>
  <fix>3d</fix>
</trkpt>
<trkpt lat="40.0713749" lon="-105.229789">
  <ele>1583.0</ele>
  <time>2026-08-28T17:53:55Z</time>
  <course>0.0</course>
  <speed>0.0</speed>
  <fix>3d</fix>
</trkpt>
<trkpt lat="40.0713749" lon="-105.229789">
  <ele>1583.0</ele>
  <time>2026-08-28T17:53:55Z</time>
  <course>246.7</course>
  <speed>0.0</speed>
  <fix>3d</fix>
</trkpt>
<trkpt lat="40.0713749" lon="-105.229789">
  <ele>1583.0</ele>
  <time>2026-08-28T17:53:55Z</time>
  <course>0.0</course>
  <speed>0.0</speed>
  <fix>3d</fix>
</trkpt>
<trkpt lat="40.0713749" lon="-105.229789">
  <ele>1583.0</ele>
  <time>2026-08-28T17:53:55Z</time>
  <course>246.78</course>
  <speed>0.0</speed>
  <fix>3d</fix>
</trkpt>
<trkpt lat="40.0713749" lon="-105.229789">
  <ele>1583.0</ele>
  <time>2026-08-28T17:53:55Z</time>
  <course>0.0</course>
  <speed>0.0</speed>
  <fix>3d</fix>
</trkpt>
<trkpt lat="40.0713749" lon="-105.229789">
  <ele>1583.0</ele>
  <time>2026-08-28T17:53:55Z</time>
  <course>246.87</course>
  <speed>0.0</speed>
  <fix>3d</fix>
</trkpt>
<trkpt lat="40.0713749" lon="-105.229789">
  <ele>1583.0</ele>
  <time>2026-08-28T17:53:55Z</time>
  <course>0.0</course>
  <speed>0.0</speed>
  <fix>3d</fix>
</trkpt>
<trkpt lat="40.0713749" lon="-105.229789">
  <ele>1583.0</ele>
  <time>2026-08-28T17:53:55Z</time>
  <course>246.95</course>
  <speed>0.0</speed>
  <fix>3d</fix>
</trkpt>
<trkpt lat="40.0713749" lon="-105.229789">
  <ele>1583.0</ele>
  <time>2026-08-28T17:53:55Z</time>
  <course>0.0</course>
  <speed>0.0</speed>
  <fix>3d</fix>
</trkpt>
<trkpt lat="40.0713749" lon="-105.229789">
  <ele>1583.0</ele>
  <time>2026-08-28T17:53:55Z</time>
  <course>247.02</course>
  <speed>0.0</speed>
  <fix>3d</fix>
</trkpt>
<trkpt lat="40.0713749" lon="-105.229789">
  <ele>1583.0</ele>
  <time>2026-08-28T17:53:55Z</time>
  <course>0.0</course>
  <speed>0.0</speed>
  <fix>3d</fix>
</trkpt>
<trkpt lat="40.0713749" lon="-105.229789">
  <ele>1583.0</ele>
  <time>2026-08-28T17:53:55Z</time>
  <course>247.1</course>
  <speed>0.0</speed>
  <fix>3d</fix>
</trkpt>
<trkpt lat="40.0713749" lon="-105.229789">
  <ele>1583.0</ele>
  <time>2026-08-28T17:53:55Z</time>
  <course>0.0</course>
  <speed>0.0</speed>
  <fix>3d</fix>
</trkpt>
<trkpt lat="40.0713749" lon="-105.229789">
  <ele>1583.0</ele>
  <time>2026-08-28T17:53:55Z</time>
  <course>247.17</course>
  <speed>0.0</speed>
  <fix>3d</fix>
</trkpt>
<trkpt lat="40.0713749" lon="-105.229789">
  <ele>1583.0</ele>
  <time>2026-08-28T17:53:55Z</time>
  <course>0.0</course>
  <speed>0.0</speed>
  <fix>3d</fix>
</trkpt>
<trkpt lat="40.0713749" lon="-105.229789">
  <ele>1583.0</ele>
  <time>2026-08-28T17:53:55Z</time>
  <course>247.24</course>
  <speed>0.0</speed>
  <fix>3d</fix>
</trkpt>
<trkpt lat="40.0713749" lon="-105.229789">
  <ele>1583.0</ele>
  <time>2026-08-28T17:53:55Z</time>
  <course>0.0</course>
  <speed>0.0</speed>
  <fix>3d</fix>
</trkpt>
<trkpt lat="40.0713749" lon="-105.229789">
  <ele>1583.0</ele>
  <time>2026-08-28T17:53:55Z</time>
  <course>247.3</course>
  <speed>0.0</speed>
  <fix>3d</fix>
</trkpt>
<trkpt lat="40.0713749" lon="-105.229789">
  <ele>1583.0</ele>
  <time>2026-08-28T17:53:55Z</time>
  <course>0.0</course>
  <speed>0.0</speed>
  <fix>3d</fix>
</trkpt>
<trkpt lat="40.0713749" lon="-105.229789">
  <ele>1583.0</ele>
  <time>2026-08-28T17:53:55Z</time>
  <course>247.36</course>
  <speed>0.0</speed>
  <fix>3d</fix>
</trkpt>
<trkpt lat="40.0713749" lon="-105.229789">
  <ele>1583.0</ele>
  <time>2026-08-28T17:53:55Z</time>
  <course>0.0</course>
  <speed>0.0</speed>
  <fix>3d</fix>
</trkpt>
<trkpt lat="40.0713749" lon="-105.229789">
  <ele>1583.0</ele>
  <time>2026-08-28T17:53:55Z</time>
  <course>247.42</course>
  <speed>0.0</speed>
  <fix>3d</fix>
</trkpt>
<trkpt lat="40.0713749" lon="-105.229789">
  <ele>1583.0</ele>
  <time>2026-08-28T17:53:55Z</time>
  <course>0.0</course>
  <speed>0.0</speed>
  <fix>3d</fix>
</trkpt>
<trkpt lat="40.0713749" lon="-105.229789">
  <ele>1583.0</ele>
  <time>2026-08-28T17:53:55Z</time>
  <course>247.47</course>
  <speed>0.0</speed>
  <fix>3d</fix>
</trkpt>
<trkpt lat="40.0713749" lon="-105.229789">
  <ele>1583.0</ele>
  <time>2026-08-28T17:53:55Z</time>
  <course>0.0</course>
  <speed>0.0</speed>
  <fix>3d</fix>
</trkpt>
<trkpt lat="40.0713749" lon="-105.229789">
  <ele>1583.0</ele>
  <time>2026-08-28T17:53:55Z</time>
  <course>247.53</course>
  <speed>0.0</speed>
  <fix>3d</fix>
</trkpt>
<trkpt lat="40.0713749" lon="-105.229789">
  <ele>1583.0</ele>
  <time>2026-08-28T17:53:55Z</time>
  <course>0.0</course>
  <speed>0.0</speed>
  <fix>3d</fix>
</trkpt>
<trkpt lat="40.0713749" lon="-105.229789">
  <ele>1583.0</ele>
  <time>2026-08-28T17:53:55Z</time>
  <course>247.58</course>
  <speed>0.0</speed>
  <fix>3d</fix>
</trkpt>
<trkpt lat="40.0713749" lon="-105.229789">
  <ele>1583.0</ele>
  <time>2026-08-28T17:53:55Z</time>
  <course>0.0</course>
  <speed>0.0</speed>
  <fix>3d</fix>
</trkpt>
<trkpt lat="40.0713749" lon="-105.229789">
  <ele>1583.0</ele>
  <time>2026-08-28T17:53:55Z</time>
  <course>247.63</course>
  <speed>0.0</speed>
  <fix>3d</fix>
</trkpt>
<trkpt lat="40.0713749" lon="-105.229789">
  <ele>1583.0</ele>
  <time>2026-08-28T17:53:55Z</time>
  <course>0.0</course>
  <speed>0.0</speed>
  <fix>3d</fix>
</trkpt>
<trkpt lat="40.0713749" lon="-105.229789">
  <ele>1583.0</ele>
  <time>2026-08-28T17:53:55Z</time>
  <course>247.67</course>
  <speed>0.0</speed>
  <fix>3d</fix>
</trkpt>
<trkpt lat="40.0713749" lon="-105.229789">
  <ele>1583.0</ele>
  <time>2026-08-28T17:53:55Z</time>
  <course>0.0</course>
  <speed>0.0</speed>
  <fix>3d</fix>
</trkpt>
<trkpt lat="40.0713749" lon="-105.229789">
  <ele>1583.0</ele>
  <time>2026-08-28T17:53:55Z</time>
  <course>247.72</course>
  <speed>0.0</speed>
  <fix>3d</fix>
</trkpt>
<trkpt lat="40.0713749" lon="-105.229789">
  <ele>1583.0</ele>
  <time>2026-08-28T17:53:55Z</time>
  <course>0.0</course>
  <speed>0.0</speed>
  <fix>3d</fix>
</trkpt>
<trkpt lat="40.0713749" lon="-105.229789">
  <ele>1583.0</ele>
  <time>2026-08-28T17:53:55Z</time>
  <course>247.76</course>
  <speed>0.0</speed>
  <fix>3d</fix>
</trkpt>
<trkpt lat="40.0713749" lon="-105.229789">
  <ele>1583.0</ele>
  <time>2026-08-28T17:53:55Z</time>
  <course>0.0</course>
  <speed>0.0</speed>
  <fix>3d</fix>
</trkpt>
<trkpt lat="40.0713749" lon="-105.229789">
  <ele>1583.0</ele>
  <time>2026-08-28T17:53:55Z</time>
  <course>247.8</course>
  <speed>0.0</speed>
  <fix>3d</fix>
</trkpt>
<trkpt lat="40.0713749" lon="-105.229789">
  <ele>1583.0</ele>
  <time>2026-08-28T17:53:55Z</time>
  <course>0.0</course>
  <speed>0.0</speed>
  <fix>3d</fix>
</trkpt>
<trkpt lat="40.0713749" lon="-105.229789">
  <ele>1583.0</ele>
  <time>2026-08-28T17:53:55Z</time>
  <course>247.83</course>
  <speed>0.0</speed>
  <fix>3d</fix>
</trkpt>
<trkpt lat="40.0713749" lon="-105.229789">
  <ele>1583.0</ele>
  <time>2026-08-28T17:53:55Z</time>
  <course>0.0</course>
  <speed>0.0</speed>
  <fix>3d</fix>
</trkpt>
<trkpt lat="40.0713749" lon="-105.229789">
  <ele>1583.0</ele>
  <time>2026-08-28T17:53:55Z</time>
  <course>247.87</course>
  <speed>0.0</speed>
  <fix>3d</fix>
</trkpt>
<trkpt lat="40.0713749" lon="-105.229789">
  <ele>1583.0</ele>
  <time>2026-08-28T17:53:55Z</time>
  <course>0.0</course>
  <speed>0.0</speed>
  <fix>3d</fix>
</trkpt>
<trkpt lat="40.0713749" lon="-105.229789">
  <ele>1583.0</ele>
  <time>2026-08-28T17:53:55Z</time>
  <course>247.9</course>
  <speed>0.0</speed>
  <fix>3d</fix>
</trkpt>
<trkpt lat="40.0713749" lon="-105.229789">
  <ele>1583.0</ele>
  <time>2026-08-28T17:53:55Z</time>
  <course>0.0</course>
  <speed>0.0</speed>
  <fix>3d</fix>
</trkpt>
<trkpt lat="40.0713749" lon="-105.229789">
  <ele>1583.0</ele>
  <time>2026-08-28T17:53:55Z</time>
  <course>247.94</course>
  <speed>0.0</speed>
  <fix>3d</fix>
</trkpt>
<trkpt lat="40.0713749" lon="-105.229789">
  <ele>1583.0</ele>
  <time>2026-08-28T17:53:55Z</time>
  <course>0.0</course>
  <speed>0.0</speed>
  <fix>3d</fix>
</trkpt>
<trkpt lat="40.0713749" lon="-105.229789">
  <ele>1583.0</ele>
  <time>2026-08-28T17:53:55Z</time>
  <course>247.97</course>
  <speed>0.0</speed>
  <fix>3d</fix>
</trkpt>
<trkpt lat="40.0713749" lon="-105.229789">
  <ele>1583.0</ele>
  <time>2026-08-28T17:53:55Z</time>
  <course>0.0</course>
  <speed>0.0</speed>
  <fix>3d</fix>
</trkpt>
<trkpt lat="40.0713749" lon="-105.229789">
  <ele>1583.0</ele>
  <time>2026-08-28T17:53:55Z</time>
  <course>248.0</course>
  <speed>0.0</speed>
  <fix>3d</fix>
</trkpt>
<trkpt lat="40.0713749" lon="-105.229789">
  <ele>1583.0</ele>
  <time>2026-08-28T17:53:55Z</time>
  <course>0.0</course>
  <speed>0.0</speed>
  <fix>3d</fix>
</trkpt>
<trkpt lat="40.0713749" lon="-105.229789">
  <ele>1583.0</ele>
  <time>2026-08-28T17:53:55Z</time>
  <course>248.02</course>
  <speed>0.0</speed>
  <fix>3d</fix>
</trkpt>
<trkpt lat="40.0713749" lon="-105.229789">
  <ele>1583.0</ele>
  <time>2026-08-28T17:53:55Z</time>
  <course>0.0</course>
  <speed>0.0</speed>
  <fix>3d</fix>
</trkpt>
<trkpt lat="40.0713749" lon="-105.229789">
  <ele>1583.0</ele>
  <time>2026-08-28T17:53:55Z</time>
  <course>248.05</course>
  <speed>0.0</speed>
  <fix>3d</fix>
</trkpt>
<trkpt lat="40.0713749" lon="-105.229789">
  <ele>1583.0</ele>
  <time>2026-08-28T17:53:55Z</time>
  <course>0.0</course>
  <speed>0.0</speed>
  <fix>3d</fix>
</trkpt>
<trkpt lat="40.0713749" lon="-105.229789">
  <ele>1583.0</ele>
  <time>2026-08-28T17:53:55Z</time>
  <course>248.08</course>
  <speed>0.0</speed>
  <fix>3d</fix>
</trkpt>
<trkpt lat="40.0713749" lon="-105.229789">
  <ele>1583.0</ele>
  <time>2026-08-28T17:53:55Z</time>
  <course>0.0</course>
  <speed>0.0</speed>
  <fix>3d</fix>
</trkpt>
<trkpt lat="40.0713749" lon="-105.229789">
  <ele>1583.0</ele>
  <time>2026-08-28T17:53:55Z</time>
  <course>248.1</course>
  <speed>0.0</speed>
  <fix>3d</fix>
</trkpt>
<trkpt lat="40.0713749" lon="-105.229789">
  <ele>1583.0</ele>
  <time>2026-08-28T17:53:55Z</time>
  <course>0.0</course>
  <speed>0.0</speed>
  <fix>3d</fix>
</trkpt>
<trkpt lat="40.0713749" lon="-105.229789">
  <ele>1583.0</ele>
  <time>2026-08-28T17:53:55Z</time>
  <course>248.12</course>
  <speed>0.0</speed>
  <fix>3d</fix>
</trkpt>
<trkpt lat="40.0713749" lon="-105.229789">
  <ele>1583.0</ele>
  <time>2026-08-28T17:53:55Z</time>
  <course>0.0</course>
  <speed>0.0</speed>
  <fix>3d</fix>
</trkpt>
<trkpt lat="40.0713749" lon="-105.229789">
  <ele>1583.0</ele>
  <time>2026-08-28T17:53:55Z</time>
  <course>248.14</course>
  <speed>0.0</speed>
  <fix>3d</fix>
</trkpt>
<trkpt lat="40.0713749" lon="-105.229789">
  <ele>1583.0</ele>
  <time>2026-08-28T17:53:55Z</time>
  <course>0.0</course>
  <speed>0.0</speed>
  <fix>3d</fix>
</trkpt>
<trkpt lat="40.0713749" lon="-105.229789">
  <ele>1583.0</ele>
  <time>2026-08-28T17:53:55Z</time>
  <course>248.16</course>
  <speed>0.0</speed>
  <fix>3d</fix>
</trkpt>
<trkpt lat="40.0713749" lon="-105.229789">
  <ele>1583.0</ele>
  <time>2026-08-28T17:53:55Z</time>
  <course>0.0</course>
  <speed>0.0</speed>
  <fix>3d</fix>
</trkpt>
<trkpt lat="40.0713749" lon="-105.229789">
  <ele>1583.0</ele>
  <time>2026-08-28T17:53:55Z</time>
  <course>248.18</course>
  <speed>0.0</speed>
  <fix>3d</fix>
</trkpt>
<trkpt lat="40.0713749" lon="-105.229789">
  <ele>1583.0</ele>
  <time>2026-08-28T17:53:55Z</time>
  <course>0.0</course>
  <speed>0.0</speed>
  <fix>3d</fix>
</trkpt>
<trkpt lat="40.0713749" lon="-105.229789">
  <ele>1583.0</ele>
  <time>2026-08-28T17:53:55Z</time>
  <course>248.2</course>
  <speed>0.0</speed>
  <fix>3d</fix>
</trkpt>
<trkpt lat="40.0713749" lon="-105.229789">
  <ele>1583.0</ele>
  <time>2026-08-28T17:53:55Z</time>
  <course>0.0</course>
  <speed>0.0</speed>
  <fix>3d</fix>
</trkpt>
<trkpt lat="40.0713749" lon="-105.229789">
  <ele>1583.0</ele>
  <time>2026-08-28T17:53:55Z</time>
  <course>248.22</course>
  <speed>0.0</speed>
  <fix>3d</fix>
</trkpt>
<trkpt lat="40.0713749" lon="-105.229789">
  <ele>1583.0</ele>
  <time>2026-08-28T17:53:55Z</time>
  <course>0.0</course>
  <speed>0.0</speed>
  <fix>3d</fix>
</trkpt>
<trkpt lat="40.0713749" lon="-105.229789">
  <ele>1583.0</ele>
  <time>2026-08-28T17:53:55Z</time>
  <course>248.23</course>
  <speed>0.0</speed>
  <fix>3d</fix>
</trkpt>
<trkpt lat="40.0713749" lon="-105.229789">
  <ele>1583.0</ele>
  <time>2026-08-28T17:53:55Z</time>
  <course>0.0</course>
  <speed>0.0</speed>
  <fix>3d</fix>
</trkpt>
<trkpt lat="40.0713749" lon="-105.229789">
  <ele>1583.0</ele>
  <time>2026-08-28T17:53:55Z</time>
  <course>248.25</course>
  <speed>0.0</speed>
  <fix>3d</fix>
</trkpt>
<trkpt lat="40.0713749" lon="-105.229789">
  <ele>1583.0</ele>
  <time>2026-08-28T17:53:55Z</time>
  <course>0.0</course>
  <speed>0.0</speed>
  <fix>3d</fix>
</trkpt>
<trkpt lat="40.0713749" lon="-105.229789">
  <ele>1583.0</ele>
  <time>2026-08-28T17:53:55Z</time>
  <course>248.26</course>
  <speed>0.0</speed>
  <fix>3d</fix>
</trkpt>
<trkpt lat="40.0713749" lon="-105.229789">
  <ele>1583.0</ele>
  <time>2026-08-28T17:53:55Z</time>
  <course>0.0</course>
  <speed>0.0</speed>
  <fix>3d</fix>
</trkpt>
<trkpt lat="40.0713749" lon="-105.229789">
  <ele>1583.0</ele>
  <time>2026-08-28T17:53:55Z</time>
  <course>248.28</course>
  <speed>0.0</speed>
  <fix>3d</fix>
</trkpt>
<trkpt lat="40.0713749" lon="-105.229789">
  <ele>1583.0</ele>
  <time>2026-08-28T17:53:55Z</time>
  <course>0.0</course>
  <speed>0.0</speed>
  <fix>3d</fix>
</trkpt>
<trkpt lat="40.0713749" lon="-105.229789">
  <ele>1583.0</ele>
  <time>2026-08-28T17:53:55Z</time>
  <course>248.29</course>
  <speed>0.0</speed>
  <fix>3d</fix>
</trkpt>
<trkpt lat="40.0713749" lon="-105.229789">
  <ele>1583.0</ele>
  <time>2026-08-28T17:53:55Z</time>
  <course>0.0</course>
  <speed>0.0</speed>
  <fix>3d</fix>
</trkpt>
<trkpt lat="40.0713749" lon="-105.229789">
  <ele>1583.0</ele>
  <time>2026-08-28T17:53:55Z</time>
  <course>248.3</course>
  <speed>0.0</speed>
  <fix>3d</fix>
</trkpt>
<trkpt lat="40.0713749" lon="-105.229789">
  <ele>1583.0</ele>
  <time>2026-08-28T17:53:55Z</time>
  <course>0.0</course>
  <speed>0.0</speed>
  <fix>3d</fix>
</trkpt>
<trkpt lat="40.0713749" lon="-105.229789">
  <ele>1583.0</ele>
  <time>2026-08-28T17:53:55Z</time>
  <course>248.31</course>
  <speed>0.0</speed>
  <fix>3d</fix>
</trkpt>
<trkpt lat="40.0713749" lon="-105.229789">
  <ele>1583.0</ele>
  <time>2026-08-28T17:53:55Z</time>
  <course>0.0</course>
  <speed>0.0</speed>
  <fix>3d</fix>
</trkpt>
<trkpt lat="40.0713749" lon="-105.229789">
  <ele>1583.0</ele>
  <time>2026-08-28T17:53:55Z</time>
  <course>248.32</course>
  <speed>0.0</speed>
  <fix>3d</fix>
</trkpt>
<trkpt lat="40.0713749" lon="-105.229789">
  <ele>1583.0</ele>
  <time>2026-08-28T17:53:55Z</time>
  <course>0.0</course>
  <speed>0.0</speed>
  <fix>3d</fix>
</trkpt>
<trkpt lat="40.0713749" lon="-105.229789">
  <ele>1583.0</ele>
  <time>2026-08-28T17:53:55Z</time>
  <course>248.33</course>
  <speed>0.0</speed>
  <fix>3d</fix>
</trkpt>
<trkpt lat="40.0713749" lon="-105.229789">
  <ele>1583.0</ele>
  <time>2026-08-28T17:53:55Z</time>
  <course>0.0</course>
  <speed>0.0</speed>
  <fix>3d</fix>
</trkpt>
<trkpt lat="40.0713749" lon="-105.229789">
  <ele>1583.0</ele>
  <time>2026-08-28T17:53:55Z</time>
  <course>248.34</course>
  <speed>0.0</speed>
  <fix>3d</fix>
</trkpt>
<trkpt lat="40.0713749" lon="-105.229789">
  <ele>1583.0</ele>
  <time>2026-08-28T17:53:55Z</time>
  <course>0.0</course>
  <speed>0.0</speed>
  <fix>3d</fix>
</trkpt>
<trkpt lat="40.0713749" lon="-105.229789">
  <ele>1583.0</ele>
  <time>2026-08-28T17:53:55Z</time>
  <course>248.35</course>
  <speed>0.0</speed>
  <fix>3d</fix>
</trkpt>
<trkpt lat="40.0713749" lon="-105.229789">
  <ele>1583.0</ele>
  <time>2026-08-28T17:53:55Z</time>
  <course>0.0</course>
  <speed>0.0</speed>
  <fix>3d</fix>
</trkpt>
<trkpt lat="40.0713749" lon="-105.229789">
  <ele>1583.0</ele>
  <time>2026-08-28T17:53:55Z</time>
  <course>248.35</course>
  <speed>0.0</speed>
  <fix>3d</fix>
</trkpt>
<trkpt lat="40.0713749" lon="-105.229789">
  <ele>1583.0</ele>
  <time>2026-08-28T17:53:55Z</time>
  <course>0.0</course>
  <speed>0.0</speed>
  <fix>3d</fix>
</trkpt>
<trkpt lat="40.0713749" lon="-105.229789">
  <ele>1583.0</ele>
  <time>2026-08-28T17:53:55Z</time>
  <course>248.36</course>
  <speed>0.0</speed>
  <fix>3d</fix>
</trkpt>
<trkpt lat="40.0713749" lon="-105.229789">
  <ele>1583.0</ele>
  <time>2026-08-28T17:53:55Z</time>
  <course>0.0</course>
  <speed>0.0</speed>
  <fix>3d</fix>
</trkpt>
<trkpt lat="40.0713749" lon="-105.229789">
  <ele>1583.0</ele>
  <time>2026-08-28T17:53:55Z</time>
  <course>248.37</course>
  <speed>0.0</speed>
  <fix>3d</fix>
</trkpt>
<trkpt lat="40.0713749" lon="-105.229789">
  <ele>1583.0</ele>
  <time>2026-08-28T17:53:55Z</time>
  <course>0.0</course>
  <speed>0.0</speed>
  <fix>3d</fix>
</trkpt>
<trkpt lat="40.0713749" lon="-105.229789">
  <ele>1583.0</ele>
  <time>2026-08-28T17:53:55Z</time>
  <course>248.37</course>
  <speed>0.0</speed>
  <fix>3d</fix>
</trkpt>
<trkpt lat="40.0713749" lon="-105.229789">
  <ele>1583.0</ele>
  <time>2026-08-28T17:53:55Z</time>
  <course>0.0</course>
  <speed>0.0</speed>
  <fix>3d</fix>
</trkpt>
<trkpt lat="40.0713749" lon="-105.229789">
  <ele>1583.0</ele>
  <time>2026-08-28T17:53:55Z</time>
  <course>248.38</course>
  <speed>0.0</speed>
  <fix>3d</fix>
</trkpt>
<trkpt lat="40.0713749" lon="-105.229789">
  <ele>1583.0</ele>
  <time>2026-08-28T17:53:55Z</time>
  <course>0.0</course>
  <speed>0.0</speed>
  <fix>3d</fix>
</trkpt>
<trkpt lat="40.0713749" lon="-105.229789">
  <ele>1583.0</ele>
  <time>2026-08-28T17:53:55Z</time>
  <course>248.38</course>
  <speed>0.0</speed>
  <fix>3d</fix>
</trkpt>
<trkpt lat="40.0713749" lon="-105.229789">
  <ele>1583.0</ele>
  <time>2026-08-28T17:53:55Z</time>
  <course>0.0</course>
  <speed>0.0</speed>
  <fix>3d</fix>
</trkpt>
<trkpt lat="40.0713749" lon="-105.229789">
  <ele>1583.0</ele>
  <time>2026-08-28T17:53:55Z</time>
  <course>248.39</course>
  <speed>0.0</speed>
  <fix>3d</fix>
</trkpt>
<trkpt lat="40.0713749" lon="-105.229789">
  <ele>1583.0</ele>
  <time>2026-08-28T17:53:55Z</time>
  <course>0.0</course>
  <speed>0.0</speed>
  <fix>3d</fix>
</trkpt>
<trkpt lat="40.0713749" lon="-105.229789">
  <ele>1583.0</ele>
  <time>2026-08-28T17:53:55Z</time>
  <course>248.39</course>
  <speed>0.0</speed>
  <fix>3d</fix>
</trkpt>
<trkpt lat="40.0713749" lon="-105.229789">
  <ele>1583.0</ele>
  <time>2026-08-28T17:53:55Z</time>
  <course>0.0</course>
  <speed>0.0</speed>
  <fix>3d</fix>
</trkpt>
<trkpt lat="40.0713749" lon="-105.229789">
  <ele>1583.0</ele>
  <time>2026-08-28T17:53:55Z</time>
  <course>248.4</course>
  <speed>0.0</speed>
  <fix>3d</fix>
</trkpt>
<trkpt lat="40.0713749" lon="-105.229789">
  <ele>1583.0</ele>
  <time>2026-08-28T17:53:55Z</time>
  <course>0.0</course>
  <speed>0.0</speed>
  <fix>3d</fix>
</trkpt>
<trkpt lat="40.0713749" lon="-105.229789">
  <ele>1583.0</ele>
  <time>2026-08-28T17:53:55Z</time>
  <course>248.4</course>
  <speed>0.0</speed>
  <fix>3d</fix>
</trkpt>
<trkpt lat="40.0713749" lon="-105.229789">
  <ele>1583.0</ele>
  <time>2026-08-28T17:53:55Z</time>
  <course>0.0</course>
  <speed>0.0</speed>
  <fix>3d</fix>
</trkpt>
<trkpt lat="40.0713749" lon="-105.229789">
  <ele>1583.0</ele>
  <time>2026-08-28T17:53:55Z</time>
  <course>248.4</course>
  <speed>0.0</speed>
  <fix>3d</fix>
</trkpt>
<trkpt lat="40.0713749" lon="-105.229789">
  <ele>1583.0</ele>
  <time>2026-08-28T17:53:55Z</time>
  <course>0.0</course>
  <speed>0.0</speed>
  <fix>3d</fix>
</trkpt>
<trkpt lat="40.0713749" lon="-105.229789">
  <ele>1583.0</ele>
  <time>2026-08-28T17:53:55Z</time>
  <course>248.4</course>
  <speed>0.0</speed>
  <fix>3d</fix>
</trkpt>
<trkpt lat="40.0713749" lon="-105.229789">
  <ele>1583.0</ele>
  <time>2026-08-28T17:53:55Z</time>
  <course>0.0</course>
  <speed>0.0</speed>
  <fix>3d</fix>
</trkpt>
<trkpt lat="40.0713749" lon="-105.229789">
  <ele>1583.0</ele>
  <time>2026-08-28T17:53:55Z</time>
  <course>248.41</course>
  <speed>0.0</speed>
  <fix>3d</fix>
</trkpt>
<trkpt lat="40.0713749" lon="-105.229789">
  <ele>1583.0</ele>
  <time>2026-08-28T17:53:55Z</time>
  <course>0.0</course>
  <speed>0.0</speed>
  <fix>3d</fix>
</trkpt>
<trkpt lat="40.0713749" lon="-105.229789">
  <ele>1583.0</ele>
  <time>2026-08-28T17:53:55Z</time>
  <course>248.41</course>
  <speed>0.0</speed>
  <fix>3d</fix>
</trkpt>
<trkpt lat="40.0713749" lon="-105.229789">
  <ele>1583.0</ele>
  <time>2026-08-28T17:53:55Z</time>
  <course>0.0</course>
  <speed>0.0</speed>
  <fix>3d</fix>
</trkpt>
<trkpt lat="40.0713749" lon="-105.229789">
  <ele>1583.0</ele>
  <time>2026-08-28T17:53:55Z</time>
  <course>248.41</course>
  <speed>0.0</speed>
  <fix>3d</fix>
</trkpt>
<trkpt lat="40.0713749" lon="-105.229789">
  <ele>1583.0</ele>
  <time>2026-08-28T17:53:55Z</time>
  <course>0.0</course>
  <speed>0.0</speed>
  <fix>3d</fix>
</trkpt>
<trkpt lat="40.0713749" lon="-105.229789">
  <ele>1583.0</ele>
  <time>2026-08-28T17:53:55Z</time>
  <course>248.41</course>
  <speed>0.0</speed>
  <fix>3d</fix>
</trkpt>
<trkpt lat="40.0713749" lon="-105.229789">
  <ele>1583.0</ele>
  <time>2026-08-28T17:53:55Z</time>
  <course>0.0</course>
  <speed>0.0</speed>
  <fix>3d</fix>
</trkpt>
<trkpt lat="40.0713749" lon="-105.229789">
  <ele>1583.0</ele>
  <time>2026-08-28T17:53:55Z</time>
  <course>248.41</course>
  <speed>0.0</speed>
  <fix>3d</fix>
</trkpt>
<trkpt lat="40.0713749" lon="-105.229789">
  <ele>1583.0</ele>
  <time>2026-08-28T17:53:55Z</time>
  <course>0.0</course>
  <speed>0.0</speed>
  <fix>3d</fix>
</trkpt>
<trkpt lat="40.0713749" lon="-105.229789">
  <ele>1583.0</ele>
  <time>2026-08-28T17:53:55Z</time>
  <course>248.41</course>
  <speed>0.0</speed>
  <fix>3d</fix>
</trkpt>
<trkpt lat="40.0713749" lon="-105.229789">
  <ele>1583.0</ele>
  <time>2026-08-28T17:53:55Z</time>
  <course>0.0</course>
  <speed>0.0</speed>
  <fix>3d</fix>
</trkpt>
<trkpt lat="40.0713749" lon="-105.229789">
  <ele>1583.0</ele>
  <time>2026-08-28T17:53:55Z</time>
  <course>248.41</course>
  <speed>0.0</speed>
  <fix>3d</fix>
</trkpt>
<trkpt lat="40.0713749" lon="-105.229789">
  <ele>1583.0</ele>
  <time>2026-08-28T17:53:55Z</time>
  <course>0.0</course>
  <speed>0.0</speed>
  <fix>3d</fix>
</trkpt>
<trkpt lat="40.0713749" lon="-105.229789">
  <ele>1583.0</ele>
  <time>2026-08-28T17:53:55Z</time>
  <course>248.41</course>
  <speed>0.0</speed>
  <fix>3d</fix>
</trkpt>
<trkpt lat="40.0713749" lon="-105.229789">
  <ele>1583.0</ele>
  <time>2026-08-28T17:53:55Z</time>
  <course>0.0</course>
  <speed>0.0</speed>
  <fix>3d</fix>
</trkpt>
<trkpt lat="40.0713749" lon="-105.229789">
  <ele>1583.0</ele>
  <time>2026-08-28T17:53:55Z</time>
  <course>248.41</course>
  <speed>0.0</speed>
  <fix>3d</fix>
</trkpt>
<trkpt lat="40.0713749" lon="-105.229789">
  <ele>1583.0</ele>
  <time>2026-08-28T17:53:55Z</time>
  <course>0.0</course>
  <speed>0.0</speed>
  <fix>3d</fix>
</trkpt>
<trkpt lat="40.0713749" lon="-105.229789">
  <ele>1583.0</ele>
  <time>2026-08-28T17:53:55Z</time>
  <course>248.41</course>
  <speed>0.0</speed>
  <fix>3d</fix>
</trkpt>
<trkpt lat="40.0713749" lon="-105.229789">
  <ele>1583.0</ele>
  <time>2026-08-28T17:53:55Z</time>
  <course>0.0</course>
  <speed>0.0</speed>
  <fix>3d</fix>
</trkpt>
<trkpt lat="40.0713749" lon="-105.229789">
  <ele>1583.0</ele>
  <time>2026-08-28T17:53:55Z</time>
  <course>248.41</course>
  <speed>0.0</speed>
  <fix>3d</fix>
</trkpt>
<trkpt lat="40.0713749" lon="-105.229789">
  <ele>1583.0</ele>
  <time>2026-08-28T17:53:55Z</time>
  <course>0.0</course>
  <speed>0.0</speed>
  <fix>3d</fix>
</trkpt>
<trkpt lat="40.0713749" lon="-105.229789">
  <ele>1583.0</ele>
  <time>2026-08-28T17:53:55Z</time>
  <course>248.41</course>
  <speed>0.0</speed>
  <fix>3d</fix>
</trkpt>
<trkpt lat="40.0713749" lon="-105.229789">
  <ele>1583.0</ele>
  <time>2026-08-28T17:53:55Z</time>
  <course>0.0</course>
  <speed>0.0</speed>
  <fix>3d</fix>
</trkpt>
<trkpt lat="40.0713749" lon="-105.229789">
  <ele>1583.0</ele>
  <time>2026-08-28T17:53:55Z</time>
  <course>248.41</course>
  <speed>0.0</speed>
  <fix>3d</fix>
</trkpt>
<trkpt lat="40.0713749" lon="-105.229789">
  <ele>1583.0</ele>
  <time>2026-08-28T17:53:55Z</time>
  <course>0.0</course>
  <speed>0.0</speed>
  <fix>3d</fix>
</trkpt>
<trkpt lat="40.0713749" lon="-105.229789">
  <ele>1583.0</ele>
  <time>2026-08-28T17:53:55Z</time>
  <course>248.41</course>
  <speed>0.0</speed>
  <fix>3d</fix>
</trkpt>
<trkpt lat="40.0713749" lon="-105.229789">
  <ele>1583.0</ele>
  <time>2026-08-28T17:53:55Z</time>
  <course>0.0</course>
  <speed>0.0</speed>
  <fix>3d</fix>
</trkpt>
<trkpt lat="40.0713749" lon="-105.229789">
  <ele>1583.0</ele>
  <time>2026-08-28T17:53:55Z</time>
  <course>248.41</course>
  <speed>0.0</speed>
  <fix>3d</fix>
</trkpt>
<trkpt lat="40.0713749" lon="-105.229789">
  <ele>1583.0</ele>
  <time>2026-08-28T17:53:55Z</time>
  <course>0.0</course>
  <speed>0.0</speed>
  <fix>3d</fix>
</trkpt>
<trkpt lat="40.0713749" lon="-105.229789">
  <ele>1583.0</ele>
  <time>2026-08-28T17:53:55Z</time>
  <course>248.41</course>
  <speed>0.0</speed>
  <fix>3d</fix>
</trkpt>
<trkpt lat="40.0713749" lon="-105.229789">
  <ele>1583.0</ele>
  <time>2026-08-28T17:53:55Z</time>
  <course>0.0</course>
  <speed>0.0</speed>
  <fix>3d</fix>
</trkpt>
<trkpt lat="40.0713749" lon="-105.229789">
  <ele>1583.0</ele>
  <time>2026-08-28T17:53:55Z</time>
  <course>248.4</course>
  <speed>0.0</speed>
  <fix>3d</fix>
</trkpt>
<trkpt lat="40.0713749" lon="-105.229789">
  <ele>1583.0</ele>
  <time>2026-08-28T17:53:55Z</time>
  <course>0.0</course>
  <speed>0.0</speed>
  <fix>3d</fix>
</trkpt>
<trkpt lat="40.0713749" lon="-105.229789">
  <ele>1583.0</ele>
  <time>2026-08-28T17:53:55Z</time>
  <course>248.4</course>
  <speed>0.01</speed>
  <fix>3d</fix>
</trkpt>
<trkpt lat="40.0713749" lon="-105.229789">
  <ele>1583.0</ele>
  <time>2026-08-28T17:53:55Z</time>
  <course>0.0</course>
  <speed>0.0</speed>
  <fix>3d</fix>
</trkpt>
<trkpt lat="40.0713749" lon="-105.229789">
  <ele>1583.0</ele>
  <time>2026-08-28T17:53:55Z</time>
  <course>248.4</course>
  <speed>0.01</speed>
  <fix>3d</fix>
</trkpt>
<trkpt lat="40.0713749" lon="-105.229789">
  <ele>1583.0</ele>
  <time>2026-08-28T17:53:55Z</time>
  <course>0.0</course>
  <speed>0.0</speed>
  <fix>3d</fix>
</trkpt>
<trkpt lat="40.0713749" lon="-105.229789">
  <ele>1583.0</ele>
  <time>2026-08-28T17:53:55Z</time>
  <course>248.4</course>
  <speed>0.01</speed>
  <fix>3d</fix>
</trkpt>
<trkpt lat="40.0713749" lon="-105.229789">
  <ele>1583.0</ele>
  <time>2026-08-28T17:53:55Z</time>
  <course>0.0</course>
  <speed>0.0</speed>
  <fix>3d</fix>
</trkpt>
<trkpt lat="40.0713749" lon="-105.229789">
  <ele>1583.0</ele>
  <time>2026-08-28T17:53:55Z</time>
  <course>248.4</course>
  <speed>0.01</speed>
  <fix>3d</fix>
</trkpt>
<trkpt lat="40.0713749" lon="-105.229789">
  <ele>1583.0</ele>
  <time>2026-08-28T17:53:55Z</time>
  <course>0.0</course>
  <speed>0.0</speed>
  <fix>3d</fix>
</trkpt>
<trkpt lat="40.0713749" lon="-105.229789">
  <ele>1583.0</ele>
  <time>2026-08-28T17:53:55Z</time>
  <course>248.39</course>
  <speed>0.01</speed>
  <fix>3d</fix>
</trkpt>
<trkpt lat="40.0713749" lon="-105.229789">
  <ele>1583.0</ele>
  <time>2026-08-28T17:53:55Z</time>
  <course>0.0</course>
  <speed>0.0</speed>
  <fix>3d</fix>
</trkpt>
<trkpt lat="40.0713749" lon="-105.229789">
  <ele>1583.0</ele>
  <time>2026-08-28T17:53:55Z</time>
  <course>248.39</course>
  <speed>0.01</speed>
  <fix>3d</fix>
</trkpt>
<trkpt lat="40.0713749" lon="-105.229789">
  <ele>1583.0</ele>
  <time>2026-08-28T17:53:55Z</time>
  <course>0.0</course>
  <speed>0.0</speed>
  <fix>3d</fix>
</trkpt>
<trkpt lat="40.0713749" lon="-105.229789">
  <ele>1583.0</ele>
  <time>2026-08-28T17:53:55Z</time>
  <course>248.39</course>
  <speed>0.01</speed>
  <fix>3d</fix>
</trkpt>
<trkpt lat="40.0713749" lon="-105.229789">
  <ele>1583.0</ele>
  <time>2026-08-28T17:53:55Z</time>
  <course>0.0</course>
  <speed>0.0</speed>
  <fix>3d</fix>
</trkpt>
<trkpt lat="40.0713749" lon="-105.229789">
  <ele>1583.0</ele>
  <time>2026-08-28T17:53:55Z</time>
  <course>248.38</course>
  <speed>0.01</speed>
  <fix>3d</fix>
</trkpt>
<trkpt lat="40.0713749" lon="-105.229789">
  <ele>1583.0</ele>
  <time>2026-08-28T17:53:55Z</time>
  <course>0.0</course>
  <speed>0.0</speed>
  <fix>3d</fix>
</trkpt>
<trkpt lat="40.0713749" lon="-105.229789">
  <ele>1583.0</ele>
  <time>2026-08-28T17:53:55Z</time>
  <course>248.38</course>
  <speed>0.01</speed>
  <fix>3d</fix>
</trkpt>
<trkpt lat="40.0713749" lon="-105.229789">
  <ele>1583.0</ele>
  <time>2026-08-28T17:53:55Z</time>
  <course>0.0</course>
  <speed>0.0</speed>
  <fix>3d</fix>
</trkpt>
<trkpt lat="40.0713749" lon="-105.229789">
  <ele>1583.0</ele>
  <time>2026-08-28T17:53:55Z</time>
  <course>248.38</course>
  <speed>0.01</speed>
  <fix>3d</fix>
</trkpt>
<trkpt lat="40.0713749" lon="-105.229789">
  <ele>1583.0</ele>
  <time>2026-08-28T17:53:55Z</time>
  <course>0.0</course>
  <speed>0.0</speed>
  <fix>3d</fix>
</trkpt>
<trkpt lat="40.0713749" lon="-105.229789">
  <ele>1583.0</ele>
  <time>2026-08-28T17:53:55Z</time>
  <course>248.37</course>
  <speed>0.01</speed>
  <fix>3d</fix>
</trkpt>
<trkpt lat="40.0713749" lon="-105.229789">
  <ele>1583.0</ele>
  <time>2026-08-28T17:53:55Z</time>
  <course>0.0</course>
  <speed>0.0</speed>
  <fix>3d</fix>
</trkpt>
<trkpt lat="40.0713749" lon="-105.229789">
  <ele>1583.0</ele>
  <time>2026-08-28T17:53:55Z</time>
  <course>248.37</course>
  <speed>0.01</speed>
  <fix>3d</fix>
</trkpt>
<trkpt lat="40.0713749" lon="-105.229789">
  <ele>1583.0</ele>
  <time>2026-08-28T17:53:55Z</time>
  <course>0.0</course>
  <speed>0.0</speed>
  <fix>3d</fix>
</trkpt>
<trkpt lat="40.0713749" lon="-105.229789">
  <ele>1583.0</ele>
  <time>2026-08-28T17:53:55Z</time>
  <course>248.37</course>
  <speed>0.01</speed>
  <fix>3d</fix>
</trkpt>
<trkpt lat="40.0713749" lon="-105.229789">
  <ele>1583.0</ele>
  <time>2026-08-28T17:53:55Z</time>
  <course>0.0</course>
  <speed>0.0</speed>
  <fix>3d</fix>
</trkpt>
<trkpt lat="40.0713749" lon="-105.229789">
  <ele>1583.0</ele>
  <time>2026-08-28T17:53:55Z</time>
  <course>248.36</course>
  <speed>0.01</speed>
  <fix>3d</fix>
</trkpt>
<trkpt lat="40.0713749" lon="-105.229789">
  <ele>1583.0</ele>
  <time>2026-08-28T17:53:55Z</time>
  <course>0.0</course>
  <speed>0.0</speed>
  <fix>3d</fix>
</trkpt>
<trkpt lat="40.0713749" lon="-105.229789">
  <ele>1583.0</ele>
  <time>2026-08-28T17:53:55Z</time>
  <course>248.36</course>
  <speed>0.01</speed>
  <fix>3d</fix>
</trkpt>
<trkpt lat="40.0713749" lon="-105.229789">
  <ele>1583.0</ele>
  <time>2026-08-28T17:53:55Z</time>
  <course>0.0</course>
  <speed>0.0</speed>
  <fix>3d</fix>
</trkpt>
<trkpt lat="40.0713749" lon="-105.229789">
  <ele>1583.0</ele>
  <time>2026-08-28T17:53:55Z</time>
  <course>248.36</course>
  <speed>0.01</speed>
  <fix>3d</fix>
</trkpt>
<trkpt lat="40.0713749" lon="-105.229789">
  <ele>1583.0</ele>
  <time>2026-08-28T17:53:55Z</time>
  <course>0.0</course>
  <speed>0.0</speed>
  <fix>3d</fix>
</trkpt>
<trkpt lat="40.0713749" lon="-105.229789">
  <ele>1583.0</ele>
  <time>2026-08-28T17:53:55Z</time>
  <course>248.35</course>
  <speed>0.01</speed>
  <fix>3d</fix>
</trkpt>
<trkpt lat="40.0713749" lon="-105.229789">
  <ele>1583.0</ele>
  <time>2026-08-28T17:53:55Z</time>
  <course>0.0</course>
  <speed>0.0</speed>
  <fix>3d</fix>
</trkpt>
<trkpt lat="40.0713749" lon="-105.229789">
  <ele>1583.0</ele>
  <time>2026-08-28T17:53:55Z</time>
  <course>248.35</course>
  <speed>0.01</speed>
  <fix>3d</fix>
</trkpt>
<trkpt lat="40.0713749" lon="-105.229789">
  <ele>1583.0</ele>
  <time>2026-08-28T17:53:55Z</time>
  <course>0.0</course>
  <speed>0.0</speed>
  <fix>3d</fix>
</trkpt>
<trkpt lat="40.0713749" lon="-105.229789">
  <ele>1583.0</ele>
  <time>2026-08-28T17:53:55Z</time>
  <course>248.35</course>
  <speed>0.01</speed>
  <fix>3d</fix>
</trkpt>
<trkpt lat="40.0713749" lon="-105.229789">
  <ele>1583.0</ele>
  <time>2026-08-28T17:53:55Z</time>
  <course>0.0</course>
  <speed>0.0</speed>
  <fix>3d</fix>
</trkpt>
<trkpt lat="40.0713749" lon="-105.229789">
  <ele>1583.0</ele>
  <time>2026-08-28T17:53:55Z</time>
  <course>248.34</course>
  <speed>0.01</speed>
  <fix>3d</fix>
</trkpt>
<trkpt lat="40.0713749" lon="-105.229789">
  <ele>1583.0</ele>
  <time>2026-08-28T17:53:55Z</time>
  <course>0.0</course>
  <speed>0.0</speed>
  <fix>3d</fix>
</trkpt>
<trkpt lat="40.0713749" lon="-105.229789">
  <ele>1583.0</ele>
  <time>2026-08-28T17:53:55Z</time>
  <course>248.34</course>
  <speed>0.01</speed>
  <fix>3d</fix>
</trkpt>
<trkpt lat="40.0713749" lon="-105.229789">
  <ele>1583.0</ele>
  <time>2026-08-28T17:53:55Z</time>
  <course>0.0</course>
  <speed>0.0</speed>
  <fix>3d</fix>
</trkpt>
<trkpt lat="40.0713749" lon="-105.229789">
  <ele>1583.0</ele>
  <time>2026-08-28T17:53:55Z</time>
  <course>248.33</course>
  <speed>0.01</speed>
  <fix>3d</fix>
</trkpt>
<trkpt lat="40.0713749" lon="-105.229789">
  <ele>1583.0</ele>
  <time>2026-08-28T17:53:55Z</time>
  <course>0.0</course>
  <speed>0.0</speed>
  <fix>3d</fix>
</trkpt>
<trkpt lat="40.0713749" lon="-105.229789">
  <ele>1583.0</ele>
  <time>2026-08-28T17:53:55Z</time>
  <course>248.33</course>
  <speed>0.01</speed>
  <fix>3d</fix>
</trkpt>
<trkpt lat="40.0713749" lon="-105.229789">
  <ele>1583.0</ele>
  <time>2026-08-28T17:53:55Z</time>
  <course>0.0</course>
  <speed>0.0</speed>
  <fix>3d</fix>
</trkpt>
<trkpt lat="40.0713749" lon="-105.229789">
  <ele>1583.0</ele>
  <time>2026-08-28T17:53:55Z</time>
  <course>248.32</course>
  <speed>0.01</speed>
  <fix>3d</fix>
</trkpt>
<trkpt lat="40.0713749" lon="-105.229789">
  <ele>1583.0</ele>
  <time>2026-08-28T17:53:55Z</time>
  <course>0.0</course>
  <speed>0.0</speed>
  <fix>3d</fix>
</trkpt>
<trkpt lat="40.0713749" lon="-105.229789">
  <ele>1583.0</ele>
  <time>2026-08-28T17:53:55Z</time>
  <course>248.32</course>
  <speed>0.01</speed>
  <fix>3d</fix>
</trkpt>
<trkpt lat="40.0713749" lon="-105.229789">
  <ele>1583.0</ele>
  <time>2026-08-28T17:53:55Z</time>
  <course>0.0</course>
  <speed>0.0</speed>
  <fix>3d</fix>
</trkpt>
<trkpt lat="40.0713749" lon="-105.229789">
  <ele>1583.0</ele>
  <time>2026-08-28T17:53:55Z</time>
  <course>248.32</course>
  <speed>0.01</speed>
  <fix>3d</fix>
</trkpt>
<trkpt lat="40.0713749" lon="-105.229789">
  <ele>1583.0</ele>
  <time>2026-08-28T17:53:55Z</time>
  <course>0.0</course>
  <speed>0.0</speed>
  <fix>3d</fix>
</trkpt>
<trkpt lat="40.0713749" lon="-105.229789">
  <ele>1583.0</ele>
  <time>2026-08-28T17:53:55Z</time>
  <course>248.31</course>
  <speed>0.01</speed>
  <fix>3d</fix>
</trkpt>
<trkpt lat="40.0713749" lon="-105.229789">
  <ele>1583.0</ele>
  <time>2026-08-28T17:53:55Z</time>
  <course>0.0</course>
  <speed>0.0</speed>
  <fix>3d</fix>
</trkpt>
<trkpt lat="40.0713749" lon="-105.229789">
  <ele>1583.0</ele>
  <time>2026-08-28T17:53:55Z</time>
  <course>248.31</course>
  <speed>0.01</speed>
  <fix>3d</fix>
</trkpt>
<trkpt lat="40.0713749" lon="-105.229789">
  <ele>1583.0</ele>
  <time>2026-08-28T17:53:55Z</time>
  <course>0.0</course>
  <speed>0.0</speed>
  <fix>3d</fix>
</trkpt>
<trkpt lat="40.0713749" lon="-105.229789">
  <ele>1583.0</ele>
  <time>2026-08-28T17:53:55Z</time>
  <course>248.3</course>
  <speed>0.01</speed>
  <fix>3d</fix>
</trkpt>
<trkpt lat="40.0713749" lon="-105.229789">
  <ele>1583.0</ele>
  <time>2026-08-28T17:53:55Z</time>
  <course>0.0</course>
  <speed>0.0</speed>
  <fix>3d</fix>
</trkpt>
<trkpt lat="40.0713749" lon="-105.229789">
  <ele>1583.0</ele>
  <time>2026-08-28T17:53:55Z</time>
  <course>248.3</course>
  <speed>0.01</speed>
  <fix>3d</fix>
</trkpt>
<trkpt lat="40.0713749" lon="-105.229789">
  <ele>1583.0</ele>
  <time>2026-08-28T17:53:55Z</time>
  <course>0.0</course>
  <speed>0.0</speed>
  <fix>3d</fix>
</trkpt>
<trkpt lat="40.0713749" lon="-105.229789">
  <ele>1583.0</ele>
  <time>2026-08-28T17:53:55Z</time>
  <course>248.29</course>
  <speed>0.01</speed>
  <fix>3d</fix>
</trkpt>
<trkpt lat="40.0713749" lon="-105.229789">
  <ele>1583.0</ele>
  <time>2026-08-28T17:53:55Z</time>
  <course>0.0</course>
  <speed>0.0</speed>
  <fix>3d</fix>
</trkpt>
<trkpt lat="40.0713749" lon="-105.229789">
  <ele>1583.0</ele>
  <time>2026-08-28T17:53:55Z</time>
  <course>248.29</course>
  <speed>0.01</speed>
  <fix>3d</fix>
</trkpt>
<trkpt lat="40.0713749" lon="-105.229789">
  <ele>1583.0</ele>
  <time>2026-08-28T17:53:55Z</time>
  <course>0.0</course>
  <speed>0.0</speed>
  <fix>3d</fix>
</trkpt>
<trkpt lat="40.0713749" lon="-105.229789">
  <ele>1583.0</ele>
  <time>2026-08-28T17:53:55Z</time>
  <course>248.28</course>
  <speed>0.01</speed>
  <fix>3d</fix>
</trkpt>
<trkpt lat="40.0713749" lon="-105.229789">
  <ele>1583.0</ele>
  <time>2026-08-28T17:53:55Z</time>
  <course>0.0</course>
  <speed>0.0</speed>
  <fix>3d</fix>
</trkpt>
<trkpt lat="40.0713749" lon="-105.229789">
  <ele>1583.0</ele>
  <time>2026-08-28T17:53:55Z</time>
  <course>248.28</course>
  <speed>0.01</speed>
  <fix>3d</fix>
</trkpt>
<trkpt lat="40.0713749" lon="-105.229789">
  <ele>1583.0</ele>
  <time>2026-08-28T17:53:55Z</time>
  <course>0.0</course>
  <speed>0.0</speed>
  <fix>3d</fix>
</trkpt>
<trkpt lat="40.0713749" lon="-105.229789">
  <ele>1583.0</ele>
  <time>2026-08-28T17:53:55Z</time>
  <course>248.27</course>
  <speed>0.01</speed>
  <fix>3d</fix>
</trkpt>
<trkpt lat="40.0713749" lon="-105.229789">
  <ele>1583.0</ele>
  <time>2026-08-28T17:53:55Z</time>
  <course>0.0</course>
  <speed>0.0</speed>
  <fix>3d</fix>
</trkpt>
<trkpt lat="40.0713749" lon="-105.229789">
  <ele>1583.0</ele>
  <time>2026-08-28T17:53:55Z</time>
  <course>248.27</course>
  <speed>0.01</speed>
  <fix>3d</fix>
</trkpt>
<trkpt lat="40.0713749" lon="-105.229789">
  <ele>1583.0</ele>
  <time>2026-08-28T17:53:55Z</time>
  <course>0.0</course>
  <speed>0.0</speed>
  <fix>3d</fix>
</trkpt>
<trkpt lat="40.0713749" lon="-105.229789">
  <ele>1583.0</ele>
  <time>2026-08-28T17:53:55Z</time>
  <course>248.26</course>
  <speed>0.01</speed>
  <fix>3d</fix>
</trkpt>
<trkpt lat="40.0713749" lon="-105.229789">
  <ele>1583.0</ele>
  <time>2026-08-28T17:53:55Z</time>
  <course>0.0</course>
  <speed>0.0</speed>
  <fix>3d</fix>
</trkpt>
<trkpt lat="40.0713749" lon="-105.229789">
  <ele>1583.0</ele>
  <time>2026-08-28T17:53:55Z</time>
  <course>248.26</course>
  <speed>0.01</speed>
  <fix>3d</fix>
</trkpt>
<trkpt lat="40.0713749" lon="-105.229789">
  <ele>1583.0</ele>
  <time>2026-08-28T17:53:55Z</time>
  <course>0.0</course>
  <speed>0.0</speed>
  <fix>3d</fix>
</trkpt>
<trkpt lat="40.0713749" lon="-105.229789">
  <ele>1583.0</ele>
  <time>2026-08-28T17:53:55Z</time>
  <course>248.26</course>
  <speed>0.01</speed>
  <fix>3d</fix>
</trkpt>
<trkpt lat="40.0713749" lon="-105.229789">
  <ele>1583.0</ele>
  <time>2026-08-28T17:53:55Z</time>
  <course>0.0</course>
  <speed>0.0</speed>
  <fix>3d</fix>
</trkpt>
<trkpt lat="40.0713749" lon="-105.229789">
  <ele>1583.0</ele>
  <time>2026-08-28T17:53:55Z</time>
  <course>248.25</course>
  <speed>0.01</speed>
  <fix>3d</fix>
</trkpt>
<trkpt lat="40.0713749" lon="-105.229789">
  <ele>1583.0</ele>
  <time>2026-08-28T17:53:55Z</time>
  <course>0.0</course>
  <speed>0.0</speed>
  <fix>3d</fix>
</trkpt>
<trkpt lat="40.0713749" lon="-105.229789">
  <ele>1583.0</ele>
  <time>2026-08-28T17:53:55Z</time>
  <course>248.25</course>
  <speed>0.01</speed>
  <fix>3d</fix>
</trkpt>
<trkpt lat="40.0713749" lon="-105.229789">
  <ele>1583.0</ele>
  <time>2026-08-28T17:53:55Z</time>
  <course>0.0</course>
  <speed>0.0</speed>
  <fix>3d</fix>
</trkpt>
<trkpt lat="40.0713749" lon="-105.229789">
  <ele>1583.0</ele>
  <time>2026-08-28T17:53:55Z</time>
  <course>248.24</course>
  <speed>0.01</speed>
  <fix>3d</fix>
</trkpt>
<trkpt lat="40.0713749" lon="-105.229789">
  <ele>1583.0</ele>
  <time>2026-08-28T17:53:55Z</time>
  <course>0.0</course>
  <speed>0.0</speed>
  <fix>3d</fix>
</trkpt>
<trkpt lat="40.0713749" lon="-105.229789">
  <ele>1583.0</ele>
  <time>2026-08-28T17:53:55Z</time>
  <course>248.24</course>
  <speed>0.01</speed>
  <fix>3d</fix>
</trkpt>
<trkpt lat="40.0713749" lon="-105.229789">
  <ele>1583.0</ele>
  <time>2026-08-28T17:53:55Z</time>
  <course>0.0</course>
  <speed>0.0</speed>
  <fix>3d</fix>
</trkpt>
<trkpt lat="40.0713749" lon="-105.229789">
  <ele>1583.0</ele>
  <time>2026-08-28T17:53:55Z</time>
  <course>248.23</course>
  <speed>0.01</speed>
  <fix>3d</fix>
</trkpt>
<trkpt lat="40.0713749" lon="-105.229789">
  <ele>1583.0</ele>
  <time>2026-08-28T17:53:55Z</time>
  <course>0.0</course>
  <speed>0.0</speed>
  <fix>3d</fix>
</trkpt>
<trkpt lat="40.0713749" lon="-105.229789">
  <ele>1583.0</ele>
  <time>2026-08-28T17:53:55Z</time>
  <course>248.23</course>
  <speed>0.01</speed>
  <fix>3d</fix>
</trkpt>
<trkpt lat="40.0713749" lon="-105.229789">
  <ele>1583.0</ele>
  <time>2026-08-28T17:53:55Z</time>
  <course>0.0</course>
  <speed>0.0</speed>
  <fix>3d</fix>
</trkpt>
<trkpt lat="40.0713749" lon="-105.229789">
  <ele>1583.0</ele>
  <time>2026-08-28T17:53:55Z</time>
  <course>248.22</course>
  <speed>0.01</speed>
  <fix>3d</fix>
</trkpt>
<trkpt lat="40.0713749" lon="-105.229789">
  <ele>1583.0</ele>
  <time>2026-08-28T17:53:55Z</time>
  <course>0.0</course>
  <speed>0.0</speed>
  <fix>3d</fix>
</trkpt>
<trkpt lat="40.0713749" lon="-105.229789">
  <ele>1583.0</ele>
  <time>2026-08-28T17:53:55Z</time>
  <course>248.22</course>
  <speed>0.01</speed>
  <fix>3d</fix>
</trkpt>
<trkpt lat="40.0713749" lon="-105.229789">
  <ele>1583.0</ele>
  <time>2026-08-28T17:53:55Z</time>
  <course>0.0</course>
  <speed>0.0</speed>
  <fix>3d</fix>
</trkpt>
<trkpt lat="40.0713749" lon="-105.229789">
  <ele>1583.0</ele>
  <time>2026-08-28T17:53:55Z</time>
  <course>248.21</course>
  <speed>0.01</speed>
  <fix>3d</fix>
</trkpt>
<trkpt lat="40.0713749" lon="-105.229789">
  <ele>1583.0</ele>
  <time>2026-08-28T17:53:55Z</time>
  <course>0.0</course>
  <speed>0.0</speed>
  <fix>3d</fix>
</trkpt>
<trkpt lat="40.0713749" lon="-105.229789">
  <ele>1583.0</ele>
  <time>2026-08-28T17:53:55Z</time>
  <course>248.21</course>
  <speed>0.01</speed>
  <fix>3d</fix>
</trkpt>
<trkpt lat="40.0713749" lon="-105.229789">
  <ele>1583.0</ele>
  <time>2026-08-28T17:53:55Z</time>
  <course>0.0</course>
  <speed>0.0</speed>
  <fix>3d</fix>
</trkpt>
<trkpt lat="40.0713749" lon="-105.229789">
  <ele>1583.0</ele>
  <time>2026-08-28T17:53:55Z</time>
  <course>248.2</course>
  <speed>0.01</speed>
  <fix>3d</fix>
</trkpt>
<trkpt lat="40.0713749" lon="-105.229789">
  <ele>1583.0</ele>
  <time>2026-08-28T17:53:55Z</time>
  <course>0.0</course>
  <speed>0.0</speed>
  <fix>3d</fix>
</trkpt>
<trkpt lat="40.0713749" lon="-105.229789">
  <ele>1583.0</ele>
  <time>2026-08-28T17:53:55Z</time>
  <course>248.2</course>
  <speed>0.01</speed>
  <fix>3d</fix>
</trkpt>
<trkpt lat="40.0713749" lon="-105.229789">
  <ele>1583.0</ele>
  <time>2026-08-28T17:53:55Z</time>
  <course>0.0</course>
  <speed>0.0</speed>
  <fix>3d</fix>
</trkpt>
<trkpt lat="40.0713749" lon="-105.229789">
  <ele>1583.0</ele>
  <time>2026-08-28T17:53:55Z</time>
  <course>248.19</course>
  <speed>0.01</speed>
  <fix>3d</fix>
</trkpt>
<trkpt lat="40.0713749" lon="-105.229789">
  <ele>1583.0</ele>
  <time>2026-08-28T17:53:55Z</time>
  <course>0.0</course>
  <speed>0.0</speed>
  <fix>3d</fix>
</trkpt>
<trkpt lat="40.0713749" lon="-105.229789">
  <ele>1583.0</ele>
  <time>2026-08-28T17:53:55Z</time>
  <course>248.19</course>
  <speed>0.01</speed>
  <fix>3d</fix>
</trkpt>
<trkpt lat="40.0713749" lon="-105.229789">
  <ele>1583.0</ele>
  <time>2026-08-28T17:53:55Z</time>
  <course>0.0</course>
  <speed>0.0</speed>
  <fix>3d</fix>
</trkpt>
<trkpt lat="40.0713749" lon="-105.229789">
  <ele>1583.0</ele>
  <time>2026-08-28T17:53:55Z</time>
  <course>248.18</course>
  <speed>0.01</speed>
  <fix>3d</fix>
</trkpt>
<trkpt lat="40.0713749" lon="-105.229789">
  <ele>1583.0</ele>
  <time>2026-08-28T17:53:55Z</time>
  <course>0.0</course>
  <speed>0.0</speed>
  <fix>3d</fix>
</trkpt>
<trkpt lat="40.0713749" lon="-105.229789">
  <ele>1583.0</ele>
  <time>2026-08-28T17:53:55Z</time>
  <course>248.18</course>
  <speed>0.01</speed>
  <fix>3d</fix>
</trkpt>
<trkpt lat="40.0713749" lon="-105.229789">
  <ele>1583.0</ele>
  <time>2026-08-28T17:53:55Z</time>
  <course>0.0</course>
  <speed>0.0</speed>
  <fix>3d</fix>
</trkpt>
<trkpt lat="40.0713749" lon="-105.229789">
  <ele>1583.0</ele>
  <time>2026-08-28T17:53:55Z</time>
  <course>248.17</course>
  <speed>0.022360679774997897</speed>
  <fix>3d</fix>
</trkpt>
<trkpt lat="40.0713749" lon="-105.229789">
  <ele>1583.0</ele>
  <time>2026-08-28T17:53:55Z</time>
  <course>0.0</course>
  <speed>0.0</speed>
  <fix>3d</fix>
</trkpt>
<trkpt lat="40.0713749" lon="-105.229789">
  <ele>1583.0</ele>
  <time>2026-08-28T17:53:55Z</time>
  <course>248.17</course>
  <speed>0.022360679774997897</speed>
  <fix>3d</fix>
</trkpt>
<trkpt lat="40.0713749" lon="-105.229789">
  <ele>1583.0</ele>
  <time>2026-08-28T17:53:55Z</time>
  <course>0.0</course>
  <speed>0.0</speed>
  <fix>3d</fix>
</trkpt>
<trkpt lat="40.0713749" lon="-105.229789">
  <ele>1583.0</ele>
  <time>2026-08-28T17:53:55Z</time>
  <course>248.16</course>
  <speed>0.022360679774997897</speed>
  <fix>3d</fix>
</trkpt>
<trkpt lat="40.0713749" lon="-105.229789">
  <ele>1583.0</ele>
  <time>2026-08-28T17:53:55Z</time>
  <course>0.0</course>
  <speed>0.0</speed>
  <fix>3d</fix>
</trkpt>
<trkpt lat="40.0713749" lon="-105.229789">
  <ele>1583.0</ele>
  <time>2026-08-28T17:53:55Z</time>
  <course>248.16</course>
  <speed>0.022360679774997897</speed>
  <fix>3d</fix>
</trkpt>
<trkpt lat="40.0713749" lon="-105.229789">
  <ele>1583.0</ele>
  <time>2026-08-28T17:53:55Z</time>
  <course>0.0</course>
  <speed>0.0</speed>
  <fix>3d</fix>
</trkpt>
<trkpt lat="40.0713749" lon="-105.229789">
  <ele>1583.0</ele>
  <time>2026-08-28T17:53:55Z</time>
  <course>248.15</course>
  <speed>0.022360679774997897</speed>
  <fix>3d</fix>
</trkpt>
<trkpt lat="40.0713749" lon="-105.229789">
  <ele>1583.0</ele>
  <time>2026-08-28T17:53:55Z</time>
  <course>0.0</course>
  <speed>0.0</speed>
  <fix>3d</fix>
</trkpt>
<trkpt lat="40.0713749" lon="-105.229789">
  <ele>1583.0</ele>
  <time>2026-08-28T17:53:55Z</time>
  <course>248.15</course>
  <speed>0.022360679774997897</speed>
  <fix>3d</fix>
</trkpt>
<trkpt lat="40.0713749" lon="-105.229789">
  <ele>1583.0</ele>
  <time>2026-08-28T17:53:55Z</time>
  <course>0.0</course>
  <speed>0.0</speed>
  <fix>3d</fix>
</trkpt>
<trkpt lat="40.0713749" lon="-105.229789">
  <ele>1583.0</ele>
  <time>2026-08-28T17:53:55Z</time>
  <course>248.14</course>
  <speed>0.022360679774997897</speed>
  <fix>3d</fix>
</trkpt>
<trkpt lat="40.0713749" lon="-105.229789">
  <ele>1583.0</ele>
  <time>2026-08-28T17:53:55Z</time>
  <course>0.0</course>
  <speed>0.0</speed>
  <fix>3d</fix>
</trkpt>
<trkpt lat="40.0713749" lon="-105.229789">
  <ele>1583.0</ele>
  <time>2026-08-28T17:53:55Z</time>
  <course>248.14</course>
  <speed>0.022360679774997897</speed>
  <fix>3d</fix>
</trkpt>
<trkpt lat="40.0713749" lon="-105.229789">
  <ele>1583.0</ele>
  <time>2026-08-28T17:53:55Z</time>
  <course>0.0</course>
  <speed>0.0</speed>
  <fix>3d</fix>
</trkpt>
<trkpt lat="40.0713749" lon="-105.229789">
  <ele>1583.0</ele>
  <time>2026-08-28T17:53:55Z</time>
  <course>248.13</course>
  <speed>0.022360679774997897</speed>
  <fix>3d</fix>
</trkpt>
<trkpt lat="40.0713749" lon="-105.229789">
  <ele>1583.0</ele>
  <time>2026-08-28T17:53:55Z</time>
  <course>0.0</course>
  <speed>0.0</speed>
  <fix>3d</fix>
</trkpt>
<trkpt lat="40.0713749" lon="-105.229789">
  <ele>1583.0</ele>
  <time>2026-08-28T17:53:55Z</time>
  <course>248.13</course>
  <speed>0.022360679774997897</speed>
  <fix>3d</fix>
</trkpt>
<trkpt lat="40.0713749" lon="-105.229789">
  <ele>1583.0</ele>
  <time>2026-08-28T17:53:55Z</time>
  <course>0.0</course>
  <speed>0.0</speed>
  <fix>3d</fix>
</trkpt>
<trkpt lat="40.0713749" lon="-105.229789">
  <ele>1583.0</ele>
  <time>2026-08-28T17:53:55Z</time>
  <course>248.12</course>
  <speed>0.022360679774997897</speed>
  <fix>3d</fix>
</trkpt>
<trkpt lat="40.0713749" lon="-105.229789">
  <ele>1583.0</ele>
  <time>2026-08-28T17:53:55Z</time>
  <course>0.0</course>
  <speed>0.0</speed>
  <fix>3d</fix>
</trkpt>
<trkpt lat="40.0713749" lon="-105.229789">
  <ele>1583.0</ele>
  <time>2026-08-28T17:53:55Z</time>
  <course>248.12</course>
  <speed>0.022360679774997897</speed>
  <fix>3d</fix>
</trkpt>
<trkpt lat="40.0713749" lon="-105.229789">
  <ele>1583.0</ele>
  <time>2026-08-28T17:53:55Z</time>
  <course>0.0</course>
  <speed>0.0</speed>
  <fix>3d</fix>
</trkpt>
<trkpt lat="40.0713749" lon="-105.229789">
  <ele>1583.0</ele>
  <time>2026-08-28T17:53:55Z</time>
  <course>248.11</course>
  <speed>0.022360679774997897</speed>
  <fix>3d</fix>
</trkpt>
<trkpt lat="40.0713749" lon="-105.229789">
  <ele>1583.0</ele>
  <time>2026-08-28T17:53:55Z</time>
  <course>0.0</course>
  <speed>0.0</speed>
  <fix>3d</fix>
</trkpt>
<trkpt lat="40.0713749" lon="-105.229789">
  <ele>1583.0</ele>
  <time>2026-08-28T17:53:55Z</time>
  <course>248.11</course>
  <speed>0.022360679774997897</speed>
  <fix>3d</fix>
</trkpt>
<trkpt lat="40.0713749" lon="-105.229789">
  <ele>1583.0</ele>
  <time>2026-08-28T17:53:55Z</time>
  <course>0.0</course>
  <speed>0.0</speed>
  <fix>3d</fix>
</trkpt>
<trkpt lat="40.0713749" lon="-105.229789">
  <ele>1583.0</ele>
  <time>2026-08-28T17:53:55Z</time>
  <course>248.1</course>
  <speed>0.022360679774997897</speed>
  <fix>3d</fix>
</trkpt>
<trkpt lat="40.0713749" lon="-105.229789">
  <ele>1583.0</ele>
  <time>2026-08-28T17:53:55Z</time>
  <course>0.0</course>
  <speed>0.0</speed>
  <fix>3d</fix>
</trkpt>
<trkpt lat="40.0713749" lon="-105.229789">
  <ele>1583.0</ele>
  <time>2026-08-28T17:53:55Z</time>
  <course>248.1</course>
  <speed>0.022360679774997897</speed>
  <fix>3d</fix>
</trkpt>
<trkpt lat="40.0713749" lon="-105.229789">
  <ele>1583.0</ele>
  <time>2026-08-28T17:53:55Z</time>
  <course>0.0</course>
  <speed>0.0</speed>
  <fix>3d</fix>
</trkpt>
<trkpt lat="40.0713749" lon="-105.229789">
  <ele>1583.0</ele>
  <time>2026-08-28T17:53:55Z</time>
  <course>248.09</course>
  <speed>0.022360679774997897</speed>
  <fix>3d</fix>
</trkpt>
<trkpt lat="40.0713749" lon="-105.229789">
  <ele>1583.0</ele>
  <time>2026-08-28T17:53:55Z</time>
  <course>0.0</course>
  <speed>0.0</speed>
  <fix>3d</fix>
</trkpt>
<trkpt lat="40.0713749" lon="-105.229789">
  <ele>1583.0</ele>
  <time>2026-08-28T17:53:55Z</time>
  <course>248.09</course>
  <speed>0.022360679774997897</speed>
  <fix>3d</fix>
</trkpt>
<trkpt lat="40.0713749" lon="-105.229789">
  <ele>1583.0</ele>
  <time>2026-08-28T17:53:55Z</time>
  <course>0.0</course>
  <speed>0.0</speed>
  <fix>3d</fix>
</trkpt>
<trkpt lat="40.0713749" lon="-105.229789">
  <ele>1583.0</ele>
  <time>2026-08-28T17:53:55Z</time>
  <course>248.08</course>
  <speed>0.022360679774997897</speed>
  <fix>3d</fix>
</trkpt>
<trkpt lat="40.0713749" lon="-105.229789">
  <ele>1583.0</ele>
  <time>2026-08-28T17:53:55Z</time>
  <course>0.0</course>
  <speed>0.0</speed>
  <fix>3d</fix>
</trkpt>
<trkpt lat="40.0713749" lon="-105.229789">
  <ele>1583.0</ele>
  <time>2026-08-28T17:53:55Z</time>
  <course>248.08</course>
  <speed>0.022360679774997897</speed>
  <fix>3d</fix>
</trkpt>
<trkpt lat="40.0713749" lon="-105.229789">
  <ele>1583.0</ele>
  <time>2026-08-28T17:53:55Z</time>
  <course>0.0</course>
  <speed>0.0</speed>
  <fix>3d</fix>
</trkpt>
<trkpt lat="40.0713749" lon="-105.229789">
  <ele>1583.0</ele>
  <time>2026-08-28T17:53:55Z</time>
  <course>248.07</course>
  <speed>0.022360679774997897</speed>
  <fix>3d</fix>
</trkpt>
<trkpt lat="40.0713749" lon="-105.229789">
  <ele>1583.0</ele>
  <time>2026-08-28T17:53:55Z</time>
  <course>0.0</course>
  <speed>0.0</speed>
  <fix>3d</fix>
</trkpt>
<trkpt lat="40.0713749" lon="-105.229789">
  <ele>1583.0</ele>
  <time>2026-08-28T17:53:55Z</time>
  <course>248.07</course>
  <speed>0.022360679774997897</speed>
  <fix>3d</fix>
</trkpt>
<trkpt lat="40.0713749" lon="-105.229789">
  <ele>1583.0</ele>
  <time>2026-08-28T17:53:55Z</time>
  <course>0.0</course>
  <speed>0.0</speed>
  <fix>3d</fix>
</trkpt>
<trkpt lat="40.0713749" lon="-105.229789">
  <ele>1583.0</ele>
  <time>2026-08-28T17:53:55Z</time>
  <course>248.06</course>
  <speed>0.022360679774997897</speed>
  <fix>3d</fix>
</trkpt>
<trkpt lat="40.0713749" lon="-105.229789">
  <ele>1583.0</ele>
  <time>2026-08-28T17:53:55Z</time>
  <course>0.0</course>
  <speed>0.0</speed>
  <fix>3d</fix>
</trkpt>
<trkpt lat="40.0713749" lon="-105.229789">
  <ele>1583.0</ele>
  <time>2026-08-28T17:53:55Z</time>
  <course>248.06</course>
  <speed>0.022360679774997897</speed>
  <fix>3d</fix>
</trkpt>
<trkpt lat="40.0713749" lon="-105.229789">
  <ele>1583.0</ele>
  <time>2026-08-28T17:53:55Z</time>
  <course>0.0</course>
  <speed>0.0</speed>
  <fix>3d</fix>
</trkpt>
<trkpt lat="40.0713749" lon="-105.229789">
  <ele>1583.0</ele>
  <time>2026-08-28T17:53:55Z</time>
  <course>248.05</course>
  <speed>0.022360679774997897</speed>
  <fix>3d</fix>
</trkpt>
<trkpt lat="40.0713749" lon="-105.229789">
  <ele>1583.0</ele>
  <time>2026-08-28T17:53:55Z</time>
  <course>0.0</course>
  <speed>0.0</speed>
  <fix>3d</fix>
</trkpt>
<trkpt lat="40.0713749" lon="-105.229789">
  <ele>1583.0</ele>
  <time>2026-08-28T17:53:55Z</time>
  <course>248.05</course>
  <speed>0.022360679774997897</speed>
  <fix>3d</fix>
</trkpt>
<trkpt lat="40.0713749" lon="-105.229789">
  <ele>1583.0</ele>
  <time>2026-08-28T17:53:55Z</time>
  <course>0.0</course>
  <speed>0.0</speed>
  <fix>3d</fix>
</trkpt>
<trkpt lat="40.0713749" lon="-105.229789">
  <ele>1583.0</ele>
  <time>2026-08-28T17:53:55Z</time>
  <course>248.05</course>
  <speed>0.022360679774997897</speed>
  <fix>3d</fix>
</trkpt>
<trkpt lat="40.0713749" lon="-105.229789">
  <ele>1583.0</ele>
  <time>2026-08-28T17:53:55Z</time>
  <course>0.0</course>
  <speed>0.0</speed>
  <fix>3d</fix>
</trkpt>
<trkpt lat="40.0713749" lon="-105.229789">
  <ele>1583.0</ele>
  <time>2026-08-28T17:53:55Z</time>
  <course>248.04</course>
  <speed>0.022360679774997897</speed>
  <fix>3d</fix>
</trkpt>
<trkpt lat="40.0713749" lon="-105.229789">
  <ele>1583.0</ele>
  <time>2026-08-28T17:53:55Z</time>
  <course>0.0</course>
  <speed>0.0</speed>
  <fix>3d</fix>
</trkpt>
<trkpt lat="40.0713749" lon="-105.229789">
  <ele>1583.0</ele>
  <time>2026-08-28T17:53:55Z</time>
  <course>248.04</course>
  <speed>0.022360679774997897</speed>
  <fix>3d</fix>
</trkpt>
<trkpt lat="40.0713749" lon="-105.229789">
  <ele>1583.0</ele>
  <time>2026-08-28T17:53:55Z</time>
  <course>0.0</course>
  <speed>0.0</speed>
  <fix>3d</fix>
</trkpt>
<trkpt lat="40.0713749" lon="-105.229789">
  <ele>1583.0</ele>
  <time>2026-08-28T17:53:55Z</time>
  <course>248.03</course>
  <speed>0.022360679774997897</speed>
  <fix>3d</fix>
</trkpt>
<trkpt lat="40.0713749" lon="-105.229789">
  <ele>1583.0</ele>
  <time>2026-08-28T17:53:55Z</time>
  <course>0.0</course>
  <speed>0.0</speed>
  <fix>3d</fix>
</trkpt>
<trkpt lat="40.0713749" lon="-105.229789">
  <ele>1583.0</ele>
  <time>2026-08-28T17:53:55Z</time>
  <course>248.03</course>
  <speed>0.022360679774997897</speed>
  <fix>3d</fix>
</trkpt>
<trkpt lat="40.0713749" lon="-105.229789">
  <ele>1583.0</ele>
  <time>2026-08-28T17:53:55Z</time>
  <course>0.0</course>
  <speed>0.0</speed>
  <fix>3d</fix>
</trkpt>
<trkpt lat="40.0713749" lon="-105.229789">
  <ele>1583.0</ele>
  <time>2026-08-28T17:53:55Z</time>
  <course>248.02</course>
  <speed>0.022360679774997897</speed>
  <fix>3d</fix>
</trkpt>
<trkpt lat="40.0713749" lon="-105.229789">
  <ele>1583.0</ele>
  <time>2026-08-28T17:53:55Z</time>
  <course>0.0</course>
  <speed>0.0</speed>
  <fix>3d</fix>
</trkpt>
<trkpt lat="40.0713749" lon="-105.229789">
  <ele>1583.0</ele>
  <time>2026-08-28T17:53:55Z</time>
  <course>248.02</course>
  <speed>0.022360679774997897</speed>
  <fix>3d</fix>
</trkpt>
<trkpt lat="40.0713749" lon="-105.229789">
  <ele>1583.0</ele>
  <time>2026-08-28T17:53:55Z</time>
  <course>0.0</course>
  <speed>0.0</speed>
  <fix>3d</fix>
</trkpt>
<trkpt lat="40.0713749" lon="-105.229789">
  <ele>1583.0</ele>
  <time>2026-08-28T17:53:55Z</time>
  <course>248.01</course>
  <speed>0.022360679774997897</speed>
  <fix>3d</fix>
</trkpt>
<trkpt lat="40.0713749" lon="-105.229789">
  <ele>1583.0</ele>
  <time>2026-08-28T17:53:55Z</time>
  <course>0.0</course>
  <speed>0.0</speed>
  <fix>3d</fix>
</trkpt>
<trkpt lat="40.0713749" lon="-105.229789">
  <ele>1583.0</ele>
  <time>2026-08-28T17:53:55Z</time>
  <course>248.01</course>
  <speed>0.022360679774997897</speed>
  <fix>3d</fix>
</trkpt>
<trkpt lat="40.0713749" lon="-105.229789">
  <ele>1583.0</ele>
  <time>2026-08-28T17:53:55Z</time>
  <course>0.0</course>
  <speed>0.0</speed>
  <fix>3d</fix>
</trkpt>
<trkpt lat="40.0713749" lon="-105.229789">
  <ele>1583.0</ele>
  <time>2026-08-28T17:53:55Z</time>
  <course>248.0</course>
  <speed>0.022360679774997897</speed>
  <fix>3d</fix>
</trkpt>
<trkpt lat="40.0713749" lon="-105.229789">
  <ele>1583.0</ele>
  <time>2026-08-28T17:53:55Z</time>
  <course>0.0</course>
  <speed>0.0</speed>
  <fix>3d</fix>
</trkpt>
<trkpt lat="40.0713749" lon="-105.229789">
  <ele>1583.0</ele>
  <time>2026-08-28T17:53:55Z</time>
  <course>248.0</course>
  <speed>0.022360679774997897</speed>
  <fix>3d</fix>
</trkpt>
<trkpt lat="40.0713749" lon="-105.229789">
  <ele>1583.0</ele>
  <time>2026-08-28T17:53:55Z</time>
  <course>0.0</course>
  <speed>0.0</speed>
  <fix>3d</fix>
</trkpt>
<trkpt lat="40.0713749" lon="-105.229789">
  <ele>1583.0</ele>
  <time>2026-08-28T17:53:55Z</time>
  <course>247.99</course>
  <speed>0.022360679774997897</speed>
  <fix>3d</fix>
</trkpt>
<trkpt lat="40.0713749" lon="-105.229789">
  <ele>1583.0</ele>
  <time>2026-08-28T17:53:55Z</time>
  <course>0.0</course>
  <speed>0.0</speed>
  <fix>3d</fix>
</trkpt>
<trkpt lat="40.0713749" lon="-105.229789">
  <ele>1583.0</ele>
  <time>2026-08-28T17:53:55Z</time>
  <course>247.99</course>
  <speed>0.022360679774997897</speed>
  <fix>3d</fix>
</trkpt>
<trkpt lat="40.0713749" lon="-105.229789">
  <ele>1583.0</ele>
  <time>2026-08-28T17:53:55Z</time>
  <course>0.0</course>
  <speed>0.0</speed>
  <fix>3d</fix>
</trkpt>
<trkpt lat="40.0713749" lon="-105.229789">
  <ele>1583.0</ele>
  <time>2026-08-28T17:53:55Z</time>
  <course>247.99</course>
  <speed>0.022360679774997897</speed>
  <fix>3d</fix>
</trkpt>
<trkpt lat="40.0713749" lon="-105.229789">
  <ele>1583.0</ele>
  <time>2026-08-28T17:53:55Z</time>
  <course>0.0</course>
  <speed>0.0</speed>
  <fix>3d</fix>
</trkpt>
<trkpt lat="40.0713749" lon="-105.229789">
  <ele>1583.0</ele>
  <time>2026-08-28T17:53:55Z</time>
  <course>247.98</course>
  <speed>0.022360679774997897</speed>
  <fix>3d</fix>
</trkpt>
<trkpt lat="40.0713749" lon="-105.229789">
  <ele>1583.0</ele>
  <time>2026-08-28T17:53:55Z</time>
  <course>0.0</course>
  <speed>0.0</speed>
  <fix>3d</fix>
</trkpt>
<trkpt lat="40.0713749" lon="-105.229789">
  <ele>1583.0</ele>
  <time>2026-08-28T17:53:56Z</time>
  <course>247.98</course>
  <speed>0.022360679774997897</speed>
  <fix>3d</fix>
</trkpt>
<trkpt lat="40.0713749" lon="-105.229789">
  <ele>1583.0</ele>
  <time>2026-08-28T17:53:56Z</time>
  <course>0.0</course>
  <speed>0.0</speed>
  <fix>3d</fix>
</trkpt>
<trkpt lat="40.0713749" lon="-105.229789">
  <ele>1583.0</ele>
  <time>2026-08-28T17:53:56Z</time>
  <course>247.97</course>
  <speed>0.022360679774997897</speed>
  <fix>3d</fix>
</trkpt>
<trkpt lat="40.0713749" lon="-105.229789">
  <ele>1583.0</ele>
  <time>2026-08-28T17:53:56Z</time>
  <course>0.0</course>
  <speed>0.0</speed>
  <fix>3d</fix>
</trkpt>
<trkpt lat="40.0713749" lon="-105.229789">
  <ele>1583.0</ele>
  <time>2026-08-28T17:53:56Z</time>
  <course>247.97</course>
  <speed>0.022360679774997897</speed>
  <fix>3d</fix>
</trkpt>
<trkpt lat="40.0713749" lon="-105.229789">
  <ele>1583.0</ele>
  <time>2026-08-28T17:53:56Z</time>
  <course>0.0</course>
  <speed>0.0</speed>
  <fix>3d</fix>
</trkpt>
<trkpt lat="40.0713749" lon="-105.229789">
  <ele>1583.0</ele>
  <time>2026-08-28T17:53:56Z</time>
  <course>247.96</course>
  <speed>0.022360679774997897</speed>
  <fix>3d</fix>
</trkpt>
<trkpt lat="40.0713749" lon="-105.229789">
  <ele>1583.0</ele>
  <time>2026-08-28T17:53:56Z</time>
  <course>0.0</course>
  <speed>0.0</speed>
  <fix>3d</fix>
</trkpt>
<trkpt lat="40.0713749" lon="-105.229789">
  <ele>1583.0</ele>
  <time>2026-08-28T17:53:56Z</time>
  <course>247.96</course>
  <speed>0.022360679774997897</speed>
  <fix>3d</fix>
</trkpt>
<trkpt lat="40.0713749" lon="-105.229789">
  <ele>1583.0</ele>
  <time>2026-08-28T17:53:56Z</time>
  <course>0.0</course>
  <speed>0.0</speed>
  <fix>3d</fix>
</trkpt>
<trkpt lat="40.0713749" lon="-105.229789">
  <ele>1583.0</ele>
  <time>2026-08-28T17:53:56Z</time>
  <course>247.95</course>
  <speed>0.022360679774997897</speed>
  <fix>3d</fix>
</trkpt>
<trkpt lat="40.0713749" lon="-105.229789">
  <ele>1583.0</ele>
  <time>2026-08-28T17:53:56Z</time>
  <course>0.0</course>
  <speed>0.0</speed>
  <fix>3d</fix>
</trkpt>
<trkpt lat="40.0713749" lon="-105.229789">
  <ele>1583.0</ele>
  <time>2026-08-28T17:53:56Z</time>
  <course>247.95</course>
  <speed>0.022360679774997897</speed>
  <fix>3d</fix>
</trkpt>
<trkpt lat="40.0713749" lon="-105.229789">
  <ele>1583.0</ele>
  <time>2026-08-28T17:53:56Z</time>
  <course>0.0</course>
  <speed>0.0</speed>
  <fix>3d</fix>
</trkpt>
<trkpt lat="40.0713749" lon="-105.229789">
  <ele>1583.0</ele>
  <time>2026-08-28T17:53:56Z</time>
  <course>247.95</course>
  <speed>0.022360679774997897</speed>
  <fix>3d</fix>
</trkpt>
<trkpt lat="40.0713749" lon="-105.229789">
  <ele>1583.0</ele>
  <time>2026-08-28T17:53:56Z</time>
  <course>0.0</course>
  <speed>0.0</speed>
  <fix>3d</fix>
</trkpt>
<trkpt lat="40.0713749" lon="-105.229789">
  <ele>1583.0</ele>
  <time>2026-08-28T17:53:56Z</time>
  <course>247.94</course>
  <speed>0.022360679774997897</speed>
  <fix>3d</fix>
</trkpt>
<trkpt lat="40.0713749" lon="-105.229789">
  <ele>1583.0</ele>
  <time>2026-08-28T17:53:56Z</time>
  <course>0.0</course>
  <speed>0.0</speed>
  <fix>3d</fix>
</trkpt>
<trkpt lat="40.0713749" lon="-105.229789">
  <ele>1583.0</ele>
  <time>2026-08-28T17:53:56Z</time>
  <course>247.94</course>
  <speed>0.022360679774997897</speed>
  <fix>3d</fix>
</trkpt>
<trkpt lat="40.0713749" lon="-105.229789">
  <ele>1583.0</ele>
  <time>2026-08-28T17:53:56Z</time>
  <course>0.0</course>
  <speed>0.0</speed>
  <fix>3d</fix>
</trkpt>
<trkpt lat="40.0713749" lon="-105.229789">
  <ele>1583.0</ele>
  <time>2026-08-28T17:53:56Z</time>
  <course>247.93</course>
  <speed>0.022360679774997897</speed>
  <fix>3d</fix>
</trkpt>
<trkpt lat="40.0713749" lon="-105.229789">
  <ele>1583.0</ele>
  <time>2026-08-28T17:53:56Z</time>
  <course>0.0</course>
  <speed>0.0</speed>
  <fix>3d</fix>
</trkpt>
<trkpt lat="40.0713749" lon="-105.229789">
  <ele>1583.0</ele>
  <time>2026-08-28T17:53:56Z</time>
  <course>247.93</course>
  <speed>0.022360679774997897</speed>
  <fix>3d</fix>
</trkpt>
<trkpt lat="40.0713749" lon="-105.229789">
  <ele>1583.0</ele>
  <time>2026-08-28T17:53:56Z</time>
  <course>0.0</course>
  <speed>0.0</speed>
  <fix>3d</fix>
</trkpt>
<trkpt lat="40.0713749" lon="-105.229789">
  <ele>1583.0</ele>
  <time>2026-08-28T17:53:56Z</time>
  <course>247.92</course>
  <speed>0.022360679774997897</speed>
  <fix>3d</fix>
</trkpt>
<trkpt lat="40.0713749" lon="-105.229789">
  <ele>1583.0</ele>
  <time>2026-08-28T17:53:56Z</time>
  <course>0.0</course>
  <speed>0.0</speed>
  <fix>3d</fix>
</trkpt>
<trkpt lat="40.0713749" lon="-105.229789">
  <ele>1583.0</ele>
  <time>2026-08-28T17:53:56Z</time>
  <course>247.92</course>
  <speed>0.022360679774997897</speed>
  <fix>3d</fix>
</trkpt>
<trkpt lat="40.0713749" lon="-105.229789">
  <ele>1583.0</ele>
  <time>2026-08-28T17:53:56Z</time>
  <course>0.0</course>
  <speed>0.0</speed>
  <fix>3d</fix>
</trkpt>
<trkpt lat="40.0713749" lon="-105.229789">
  <ele>1583.0</ele>
  <time>2026-08-28T17:53:56Z</time>
  <course>247.92</course>
  <speed>0.022360679774997897</speed>
  <fix>3d</fix>
</trkpt>
<trkpt lat="40.0713749" lon="-105.229789">
  <ele>1583.0</ele>
  <time>2026-08-28T17:53:56Z</time>
  <course>0.0</course>
  <speed>0.0</speed>
  <fix>3d</fix>
</trkpt>
<trkpt lat="40.0713749" lon="-105.229789">
  <ele>1583.0</ele>
  <time>2026-08-28T17:53:56Z</time>
  <course>247.91</course>
  <speed>0.022360679774997897</speed>
  <fix>3d</fix>
</trkpt>
<trkpt lat="40.0713749" lon="-105.229789">
  <ele>1583.0</ele>
  <time>2026-08-28T17:53:56Z</time>
  <course>0.0</course>
  <speed>0.0</speed>
  <fix>3d</fix>
</trkpt>
<trkpt lat="40.0713749" lon="-105.229789">
  <ele>1583.0</ele>
  <time>2026-08-28T17:53:56Z</time>
  <course>247.91</course>
  <speed>0.022360679774997897</speed>
  <fix>3d</fix>
</trkpt>
<trkpt lat="40.0713749" lon="-105.229789">
  <ele>1583.0</ele>
  <time>2026-08-28T17:53:56Z</time>
  <course>0.0</course>
  <speed>0.0</speed>
  <fix>3d</fix>
</trkpt>
<trkpt lat="40.0713749" lon="-105.229789">
  <ele>1583.0</ele>
  <time>2026-08-28T17:53:56Z</time>
  <course>247.9</course>
  <speed>0.022360679774997897</speed>
  <fix>3d</fix>
</trkpt>
<trkpt lat="40.0713749" lon="-105.229789">
  <ele>1583.0</ele>
  <time>2026-08-28T17:53:56Z</time>
  <course>0.0</course>
  <speed>0.0</speed>
  <fix>3d</fix>
</trkpt>
<trkpt lat="40.0713749" lon="-105.229789">
  <ele>1583.0</ele>
  <time>2026-08-28T17:53:56Z</time>
  <course>247.9</course>
  <speed>0.022360679774997897</speed>
  <fix>3d</fix>
</trkpt>
<trkpt lat="40.0713749" lon="-105.229789">
  <ele>1583.0</ele>
  <time>2026-08-28T17:53:56Z</time>
  <course>0.0</course>
  <speed>0.0</speed>
  <fix>3d</fix>
</trkpt>
<trkpt lat="40.0713749" lon="-105.229789">
  <ele>1583.0</ele>
  <time>2026-08-28T17:53:56Z</time>
  <course>247.89</course>
  <speed>0.022360679774997897</speed>
  <fix>3d</fix>
</trkpt>
<trkpt lat="40.0713749" lon="-105.229789">
  <ele>1583.0</ele>
  <time>2026-08-28T17:53:56Z</time>
  <course>0.0</course>
  <speed>0.0</speed>
  <fix>3d</fix>
</trkpt>
<trkpt lat="40.0713749" lon="-105.229789">
  <ele>1583.0</ele>
  <time>2026-08-28T17:53:56Z</time>
  <course>247.89</course>
  <speed>0.022360679774997897</speed>
  <fix>3d</fix>
</trkpt>
<trkpt lat="40.0713749" lon="-105.229789">
  <ele>1583.0</ele>
  <time>2026-08-28T17:53:56Z</time>
  <course>0.0</course>
  <speed>0.0</speed>
  <fix>3d</fix>
</trkpt>
<trkpt lat="40.0713749" lon="-105.229789">
  <ele>1583.0</ele>
  <time>2026-08-28T17:53:56Z</time>
  <course>247.89</course>
  <speed>0.022360679774997897</speed>
  <fix>3d</fix>
</trkpt>
<trkpt lat="40.0713749" lon="-105.229789">
  <ele>1583.0</ele>
  <time>2026-08-28T17:53:56Z</time>
  <course>0.0</course>
  <speed>0.0</speed>
  <fix>3d</fix>
</trkpt>
<trkpt lat="40.0713749" lon="-105.229789">
  <ele>1583.0</ele>
  <time>2026-08-28T17:53:56Z</time>
  <course>247.88</course>
  <speed>0.0316227766016838</speed>
  <fix>3d</fix>
</trkpt>
<trkpt lat="40.0713749" lon="-105.229789">
  <ele>1583.0</ele>
  <time>2026-08-28T17:53:56Z</time>
  <course>0.0</course>
  <speed>0.0</speed>
  <fix>3d</fix>
</trkpt>
<trkpt lat="40.0713749" lon="-105.229789">
  <ele>1583.0</ele>
  <time>2026-08-28T17:53:56Z</time>
  <course>247.88</course>
  <speed>0.0316227766016838</speed>
  <fix>3d</fix>
</trkpt>
<trkpt lat="40.0713749" lon="-105.229789">
  <ele>1583.0</ele>
  <time>2026-08-28T17:53:56Z</time>
  <course>0.0</course>
  <speed>0.0</speed>
  <fix>3d</fix>
</trkpt>
<trkpt lat="40.0713749" lon="-105.229789">
  <ele>1583.0</ele>
  <time>2026-08-28T17:53:56Z</time>
  <course>247.87</course>
  <speed>0.0316227766016838</speed>
  <fix>3d</fix>
</trkpt>
<trkpt lat="40.0713749" lon="-105.229789">
  <ele>1583.0</ele>
  <time>2026-08-28T17:53:56Z</time>
  <course>0.0</course>
  <speed>0.0</speed>
  <fix>3d</fix>
</trkpt>
<trkpt lat="40.0713749" lon="-105.229789">
  <ele>1583.0</ele>
  <time>2026-08-28T17:53:56Z</time>
  <course>247.87</course>
  <speed>0.0316227766016838</speed>
  <fix>3d</fix>
</trkpt>
<trkpt lat="40.0713749" lon="-105.229789">
  <ele>1583.0</ele>
  <time>2026-08-28T17:53:56Z</time>
  <course>0.0</course>
  <speed>0.0</speed>
  <fix>3d</fix>
</trkpt>
<trkpt lat="40.0713749" lon="-105.229789">
  <ele>1583.0</ele>
  <time>2026-08-28T17:53:56Z</time>
  <course>247.87</course>
  <speed>0.0316227766016838</speed>
  <fix>3d</fix>
</trkpt>
<trkpt lat="40.0713749" lon="-105.229789">
  <ele>1583.0</ele>
  <time>2026-08-28T17:53:56Z</time>
  <course>0.0</course>
  <speed>0.0</speed>
  <fix>3d</fix>
</trkpt>
<trkpt lat="40.0713749" lon="-105.229789">
  <ele>1583.0</ele>
  <time>2026-08-28T17:53:56Z</time>
  <course>247.86</course>
  <speed>0.0316227766016838</speed>
  <fix>3d</fix>
</trkpt>
<trkpt lat="40.0713749" lon="-105.229789">
  <ele>1583.0</ele>
  <time>2026-08-28T17:53:56Z</time>
  <course>0.0</course>
  <speed>0.0</speed>
  <fix>3d</fix>
</trkpt>
<trkpt lat="40.0713749" lon="-105.229789">
  <ele>1583.0</ele>
  <time>2026-08-28T17:53:56Z</time>
  <course>247.86</course>
  <speed>0.0316227766016838</speed>
  <fix>3d</fix>
</trkpt>
<trkpt lat="40.0713749" lon="-105.229789">
  <ele>1583.0</ele>
  <time>2026-08-28T17:53:56Z</time>
  <course>0.0</course>
  <speed>0.0</speed>
  <fix>3d</fix>
</trkpt>
<trkpt lat="40.0713749" lon="-105.229789">
  <ele>1583.0</ele>
  <time>2026-08-28T17:53:56Z</time>
  <course>247.85</course>
  <speed>0.0316227766016838</speed>
  <fix>3d</fix>
</trkpt>
<trkpt lat="40.0713749" lon="-105.229789">
  <ele>1583.0</ele>
  <time>2026-08-28T17:53:56Z</time>
  <course>0.0</course>
  <speed>0.0</speed>
  <fix>3d</fix>
</trkpt>
<trkpt lat="40.0713749" lon="-105.229789">
  <ele>1583.0</ele>
  <time>2026-08-28T17:53:56Z</time>
  <course>247.85</course>
  <speed>0.0316227766016838</speed>
  <fix>3d</fix>
</trkpt>
<trkpt lat="40.0713749" lon="-105.229789">
  <ele>1583.0</ele>
  <time>2026-08-28T17:53:56Z</time>
  <course>0.0</course>
  <speed>0.0</speed>
  <fix>3d</fix>
</trkpt>
<trkpt lat="40.0713749" lon="-105.229789">
  <ele>1583.0</ele>
  <time>2026-08-28T17:53:56Z</time>
  <course>247.85</course>
  <speed>0.0316227766016838</speed>
  <fix>3d</fix>
</trkpt>
<trkpt lat="40.0713749" lon="-105.229789">
  <ele>1583.0</ele>
  <time>2026-08-28T17:53:56Z</time>
  <course>0.0</course>
  <speed>0.0</speed>
  <fix>3d</fix>
</trkpt>
<trkpt lat="40.0713749" lon="-105.229789">
  <ele>1583.0</ele>
  <time>2026-08-28T17:53:56Z</time>
  <course>247.84</course>
  <speed>0.0316227766016838</speed>
  <fix>3d</fix>
</trkpt>
<trkpt lat="40.0713749" lon="-105.229789">
  <ele>1583.0</ele>
  <time>2026-08-28T17:53:56Z</time>
  <course>0.0</course>
  <speed>0.0</speed>
  <fix>3d</fix>
</trkpt>
<trkpt lat="40.0713749" lon="-105.229789">
  <ele>1583.0</ele>
  <time>2026-08-28T17:53:56Z</time>
  <course>247.84</course>
  <speed>0.0316227766016838</speed>
  <fix>3d</fix>
</trkpt>
<trkpt lat="40.0713749" lon="-105.229789">
  <ele>1583.0</ele>
  <time>2026-08-28T17:53:56Z</time>
  <course>0.0</course>
  <speed>0.0</speed>
  <fix>3d</fix>
</trkpt>
<trkpt lat="40.0713749" lon="-105.229789">
  <ele>1583.0</ele>
  <time>2026-08-28T17:53:56Z</time>
  <course>247.83</course>
  <speed>0.0316227766016838</speed>
  <fix>3d</fix>
</trkpt>
<trkpt lat="40.0713749" lon="-105.229789">
  <ele>1583.0</ele>
  <time>2026-08-28T17:53:56Z</time>
  <course>0.0</course>
  <speed>0.0</speed>
  <fix>3d</fix>
</trkpt>
<trkpt lat="40.0713749" lon="-105.229789">
  <ele>1583.0</ele>
  <time>2026-08-28T17:53:56Z</time>
  <course>247.83</course>
  <speed>0.0316227766016838</speed>
  <fix>3d</fix>
</trkpt>
<trkpt lat="40.0713749" lon="-105.229789">
  <ele>1583.0</ele>
  <time>2026-08-28T17:53:56Z</time>
  <course>0.0</course>
  <speed>0.0</speed>
  <fix>3d</fix>
</trkpt>
<trkpt lat="40.0713749" lon="-105.229789">
  <ele>1583.0</ele>
  <time>2026-08-28T17:53:56Z</time>
  <course>247.83</course>
  <speed>0.0316227766016838</speed>
  <fix>3d</fix>
</trkpt>
<trkpt lat="40.0713749" lon="-105.229789">
  <ele>1583.0</ele>
  <time>2026-08-28T17:53:56Z</time>
  <course>0.0</course>
  <speed>0.0</speed>
  <fix>3d</fix>
</trkpt>
<trkpt lat="40.0713749" lon="-105.229789">
  <ele>1583.0</ele>
  <time>2026-08-28T17:53:56Z</time>
  <course>247.82</course>
  <speed>0.0316227766016838</speed>
  <fix>3d</fix>
</trkpt>
<trkpt lat="40.0713749" lon="-105.229789">
  <ele>1583.0</ele>
  <time>2026-08-28T17:53:56Z</time>
  <course>0.0</course>
  <speed>0.0</speed>
  <fix>3d</fix>
</trkpt>
<trkpt lat="40.0713749" lon="-105.229789">
  <ele>1583.0</ele>
  <time>2026-08-28T17:53:56Z</time>
  <course>247.82</course>
  <speed>0.0316227766016838</speed>
  <fix>3d</fix>
</trkpt>
<trkpt lat="40.0713749" lon="-105.229789">
  <ele>1583.0</ele>
  <time>2026-08-28T17:53:56Z</time>
  <course>0.0</course>
  <speed>0.0</speed>
  <fix>3d</fix>
</trkpt>
<trkpt lat="40.0713749" lon="-105.229789">
  <ele>1583.0</ele>
  <time>2026-08-28T17:53:56Z</time>
  <course>247.82</course>
  <speed>0.0316227766016838</speed>
  <fix>3d</fix>
</trkpt>
<trkpt lat="40.0713749" lon="-105.229789">
  <ele>1583.0</ele>
  <time>2026-08-28T17:53:56Z</time>
  <course>0.0</course>
  <speed>0.0</speed>
  <fix>3d</fix>
</trkpt>
<trkpt lat="40.0713749" lon="-105.229789">
  <ele>1583.0</ele>
  <time>2026-08-28T17:53:56Z</time>
  <course>247.81</course>
  <speed>0.0316227766016838</speed>
  <fix>3d</fix>
</trkpt>
<trkpt lat="40.0713749" lon="-105.229789">
  <ele>1583.0</ele>
  <time>2026-08-28T17:53:56Z</time>
  <course>0.0</course>
  <speed>0.0</speed>
  <fix>3d</fix>
</trkpt>
<trkpt lat="40.0713749" lon="-105.229789">
  <ele>1583.0</ele>
  <time>2026-08-28T17:53:56Z</time>
  <course>247.81</course>
  <speed>0.0316227766016838</speed>
  <fix>3d</fix>
</trkpt>
<trkpt lat="40.0713749" lon="-105.229789">
  <ele>1583.0</ele>
  <time>2026-08-28T17:53:56Z</time>
  <course>0.0</course>
  <speed>0.0</speed>
  <fix>3d</fix>
</trkpt>
<trkpt lat="40.0713749" lon="-105.229789">
  <ele>1583.0</ele>
  <time>2026-08-28T17:53:56Z</time>
  <course>247.8</course>
  <speed>0.0316227766016838</speed>
  <fix>3d</fix>
</trkpt>
<trkpt lat="40.0713749" lon="-105.229789">
  <ele>1583.0</ele>
  <time>2026-08-28T17:53:56Z</time>
  <course>0.0</course>
  <speed>0.0</speed>
  <fix>3d</fix>
</trkpt>
<trkpt lat="40.0713749" lon="-105.229789">
  <ele>1583.0</ele>
  <time>2026-08-28T17:53:56Z</time>
  <course>247.8</course>
  <speed>0.0316227766016838</speed>
  <fix>3d</fix>
</trkpt>
<trkpt lat="40.0713749" lon="-105.229789">
  <ele>1583.0</ele>
  <time>2026-08-28T17:53:56Z</time>
  <course>0.0</course>
  <speed>0.0</speed>
  <fix>3d</fix>
</trkpt>
<trkpt lat="40.0713749" lon="-105.229789">
  <ele>1583.0</ele>
  <time>2026-08-28T17:53:56Z</time>
  <course>247.8</course>
  <speed>0.0316227766016838</speed>
  <fix>3d</fix>
</trkpt>
<trkpt lat="40.0713749" lon="-105.229789">
  <ele>1583.0</ele>
  <time>2026-08-28T17:53:56Z</time>
  <course>0.0</course>
  <speed>0.0</speed>
  <fix>3d</fix>
</trkpt>
<trkpt lat="40.0713749" lon="-105.229789">
  <ele>1583.0</ele>
  <time>2026-08-28T17:53:56Z</time>
  <course>247.79</course>
  <speed>0.0316227766016838</speed>
  <fix>3d</fix>
</trkpt>
<trkpt lat="40.0713749" lon="-105.229789">
  <ele>1583.0</ele>
  <time>2026-08-28T17:53:56Z</time>
  <course>0.0</course>
  <speed>0.0</speed>
  <fix>3d</fix>
</trkpt>
<trkpt lat="40.0713749" lon="-105.229789">
  <ele>1583.0</ele>
  <time>2026-08-28T17:53:56Z</time>
  <course>247.79</course>
  <speed>0.0316227766016838</speed>
  <fix>3d</fix>
</trkpt>
<trkpt lat="40.0713749" lon="-105.229789">
  <ele>1583.0</ele>
  <time>2026-08-28T17:53:56Z</time>
  <course>0.0</course>
  <speed>0.0</speed>
  <fix>3d</fix>
</trkpt>
<trkpt lat="40.0713749" lon="-105.229789">
  <ele>1583.0</ele>
  <time>2026-08-28T17:53:56Z</time>
  <course>247.79</course>
  <speed>0.0316227766016838</speed>
  <fix>3d</fix>
</trkpt>
<trkpt lat="40.0713749" lon="-105.229789">
  <ele>1583.0</ele>
  <time>2026-08-28T17:53:56Z</time>
  <course>0.0</course>
  <speed>0.0</speed>
  <fix>3d</fix>
</trkpt>
<trkpt lat="40.0713749" lon="-105.229789">
  <ele>1583.0</ele>
  <time>2026-08-28T17:53:56Z</time>
  <course>247.78</course>
  <speed>0.0316227766016838</speed>
  <fix>3d</fix>
</trkpt>
<trkpt lat="40.0713749" lon="-105.229789">
  <ele>1583.0</ele>
  <time>2026-08-28T17:53:56Z</time>
  <course>0.0</course>
  <speed>0.0</speed>
  <fix>3d</fix>
</trkpt>
<trkpt lat="40.0713749" lon="-105.229789">
  <ele>1583.0</ele>
  <time>2026-08-28T17:53:56Z</time>
  <course>247.78</course>
  <speed>0.0316227766016838</speed>
  <fix>3d</fix>
</trkpt>
<trkpt lat="40.0713749" lon="-105.229789">
  <ele>1583.0</ele>
  <time>2026-08-28T17:53:56Z</time>
  <course>0.0</course>
  <speed>0.0</speed>
  <fix>3d</fix>
</trkpt>
<trkpt lat="40.0713749" lon="-105.229789">
  <ele>1583.0</ele>
  <time>2026-08-28T17:53:56Z</time>
  <course>247.78</course>
  <speed>0.0316227766016838</speed>
  <fix>3d</fix>
</trkpt>
<trkpt lat="40.0713749" lon="-105.229789">
  <ele>1583.0</ele>
  <time>2026-08-28T17:53:56Z</time>
  <course>0.0</course>
  <speed>0.0</speed>
  <fix>3d</fix>
</trkpt>
<trkpt lat="40.0713749" lon="-105.229789">
  <ele>1583.0</ele>
  <time>2026-08-28T17:53:56Z</time>
  <course>247.77</course>
  <speed>0.0316227766016838</speed>
  <fix>3d</fix>
</trkpt>
<trkpt lat="40.0713749" lon="-105.229789">
  <ele>1583.0</ele>
  <time>2026-08-28T17:53:56Z</time>
  <course>0.0</course>
  <speed>0.0</speed>
  <fix>3d</fix>
</trkpt>
<trkpt lat="40.0713749" lon="-105.229789">
  <ele>1583.0</ele>
  <time>2026-08-28T17:53:56Z</time>
  <course>247.77</course>
  <speed>0.0316227766016838</speed>
  <fix>3d</fix>
</trkpt>
<trkpt lat="40.0713749" lon="-105.229789">
  <ele>1583.0</ele>
  <time>2026-08-28T17:53:56Z</time>
  <course>0.0</course>
  <speed>0.0</speed>
  <fix>3d</fix>
</trkpt>
<trkpt lat="40.0713749" lon="-105.229789">
  <ele>1583.0</ele>
  <time>2026-08-28T17:53:56Z</time>
  <course>247.76</course>
  <speed>0.0316227766016838</speed>
  <fix>3d</fix>
</trkpt>
<trkpt lat="40.0713749" lon="-105.229789">
  <ele>1583.0</ele>
  <time>2026-08-28T17:53:56Z</time>
  <course>0.0</course>
  <speed>0.0</speed>
  <fix>3d</fix>
</trkpt>
<trkpt lat="40.0713749" lon="-105.229789">
  <ele>1583.0</ele>
  <time>2026-08-28T17:53:56Z</time>
  <course>247.76</course>
  <speed>0.0316227766016838</speed>
  <fix>3d</fix>
</trkpt>
<trkpt lat="40.0713749" lon="-105.229789">
  <ele>1583.0</ele>
  <time>2026-08-28T17:53:56Z</time>
  <course>0.0</course>
  <speed>0.0</speed>
  <fix>3d</fix>
</trkpt>
<trkpt lat="40.0713749" lon="-105.229789">
  <ele>1583.0</ele>
  <time>2026-08-28T17:53:56Z</time>
  <course>247.76</course>
  <speed>0.0316227766016838</speed>
  <fix>3d</fix>
</trkpt>
<trkpt lat="40.0713749" lon="-105.229789">
  <ele>1583.0</ele>
  <time>2026-08-28T17:53:56Z</time>
  <course>0.0</course>
  <speed>0.0</speed>
  <fix>3d</fix>
</trkpt>
<trkpt lat="40.0713749" lon="-105.229789">
  <ele>1583.0</ele>
  <time>2026-08-28T17:53:56Z</time>
  <course>247.75</course>
  <speed>0.0316227766016838</speed>
  <fix>3d</fix>
</trkpt>
<trkpt lat="40.0713749" lon="-105.229789">
  <ele>1583.0</ele>
  <time>2026-08-28T17:53:56Z</time>
  <course>0.0</course>
  <speed>0.0</speed>
  <fix>3d</fix>
</trkpt>
<trkpt lat="40.0713749" lon="-105.229789">
  <ele>1583.0</ele>
  <time>2026-08-28T17:53:56Z</time>
  <course>247.75</course>
  <speed>0.0316227766016838</speed>
  <fix>3d</fix>
</trkpt>
<trkpt lat="40.0713749" lon="-105.229789">
  <ele>1583.0</ele>
  <time>2026-08-28T17:53:56Z</time>
  <course>0.0</course>
  <speed>0.0</speed>
  <fix>3d</fix>
</trkpt>
<trkpt lat="40.0713749" lon="-105.229789">
  <ele>1583.0</ele>
  <time>2026-08-28T17:53:56Z</time>
  <course>247.75</course>
  <speed>0.0316227766016838</speed>
  <fix>3d</fix>
</trkpt>
<trkpt lat="40.0713749" lon="-105.229789">
  <ele>1583.0</ele>
  <time>2026-08-28T17:53:56Z</time>
  <course>0.0</course>
  <speed>0.0</speed>
  <fix>3d</fix>
</trkpt>
<trkpt lat="40.0713749" lon="-105.229789">
  <ele>1583.0</ele>
  <time>2026-08-28T17:53:56Z</time>
  <course>247.74</course>
  <speed>0.0316227766016838</speed>
  <fix>3d</fix>
</trkpt>
<trkpt lat="40.0713749" lon="-105.229789">
  <ele>1583.0</ele>
  <time>2026-08-28T17:53:56Z</time>
  <course>0.0</course>
  <speed>0.0</speed>
  <fix>3d</fix>
</trkpt>
<trkpt lat="40.0713749" lon="-105.229789">
  <ele>1583.0</ele>
  <time>2026-08-28T17:53:56Z</time>
  <course>247.74</course>
  <speed>0.0316227766016838</speed>
  <fix>3d</fix>
</trkpt>
<trkpt lat="40.0713749" lon="-105.229789">
  <ele>1583.0</ele>
  <time>2026-08-28T17:53:56Z</time>
  <course>0.0</course>
  <speed>0.0</speed>
  <fix>3d</fix>
</trkpt>
<trkpt lat="40.0713749" lon="-105.229789">
  <ele>1583.0</ele>
  <time>2026-08-28T17:53:56Z</time>
  <course>247.74</course>
  <speed>0.0316227766016838</speed>
  <fix>3d</fix>
</trkpt>
<trkpt lat="40.0713749" lon="-105.229789">
  <ele>1583.0</ele>
  <time>2026-08-28T17:53:56Z</time>
  <course>0.0</course>
  <speed>0.0</speed>
  <fix>3d</fix>
</trkpt>
<trkpt lat="40.0713749" lon="-105.229789">
  <ele>1583.0</ele>
  <time>2026-08-28T17:53:56Z</time>
  <course>247.73</course>
  <speed>0.0316227766016838</speed>
  <fix>3d</fix>
</trkpt>
<trkpt lat="40.0713749" lon="-105.229789">
  <ele>1583.0</ele>
  <time>2026-08-28T17:53:56Z</time>
  <course>0.0</course>
  <speed>0.0</speed>
  <fix>3d</fix>
</trkpt>
<trkpt lat="40.0713749" lon="-105.229789">
  <ele>1583.0</ele>
  <time>2026-08-28T17:53:56Z</time>
  <course>247.73</course>
  <speed>0.0316227766016838</speed>
  <fix>3d</fix>
</trkpt>
<trkpt lat="40.0713749" lon="-105.229789">
  <ele>1583.0</ele>
  <time>2026-08-28T17:53:56Z</time>
  <course>0.0</course>
  <speed>0.0</speed>
  <fix>3d</fix>
</trkpt>
<trkpt lat="40.0713749" lon="-105.229789">
  <ele>1583.0</ele>
  <time>2026-08-28T17:53:56Z</time>
  <course>247.73</course>
  <speed>0.0316227766016838</speed>
  <fix>3d</fix>
</trkpt>
<trkpt lat="40.0713749" lon="-105.229789">
  <ele>1583.0</ele>
  <time>2026-08-28T17:53:56Z</time>
  <course>0.0</course>
  <speed>0.0</speed>
  <fix>3d</fix>
</trkpt>
<trkpt lat="40.0713749" lon="-105.229789">
  <ele>1583.0</ele>
  <time>2026-08-28T17:53:56Z</time>
  <course>247.72</course>
  <speed>0.0316227766016838</speed>
  <fix>3d</fix>
</trkpt>
<trkpt lat="40.0713749" lon="-105.229789">
  <ele>1583.0</ele>
  <time>2026-08-28T17:53:56Z</time>
  <course>0.0</course>
  <speed>0.0</speed>
  <fix>3d</fix>
</trkpt>
<trkpt lat="40.0713749" lon="-105.229789">
  <ele>1583.0</ele>
  <time>2026-08-28T17:53:56Z</time>
  <course>247.72</course>
  <speed>0.0316227766016838</speed>
  <fix>3d</fix>
</trkpt>
<trkpt lat="40.0713749" lon="-105.229789">
  <ele>1583.0</ele>
  <time>2026-08-28T17:53:56Z</time>
  <course>0.0</course>
  <speed>0.0</speed>
  <fix>3d</fix>
</trkpt>
<trkpt lat="40.0713749" lon="-105.229789">
  <ele>1583.0</ele>
  <time>2026-08-28T17:53:56Z</time>
  <course>247.72</course>
  <speed>0.0316227766016838</speed>
  <fix>3d</fix>
</trkpt>
<trkpt lat="40.0713749" lon="-105.229789">
  <ele>1583.0</ele>
  <time>2026-08-28T17:53:56Z</time>
  <course>0.0</course>
  <speed>0.0</speed>
  <fix>3d</fix>
</trkpt>
<trkpt lat="40.0713749" lon="-105.229789">
  <ele>1583.0</ele>
  <time>2026-08-28T17:53:56Z</time>
  <course>247.71</course>
  <speed>0.0316227766016838</speed>
  <fix>3d</fix>
</trkpt>
<trkpt lat="40.0713749" lon="-105.229789">
  <ele>1583.0</ele>
  <time>2026-08-28T17:53:56Z</time>
  <course>0.0</course>
  <speed>0.0</speed>
  <fix>3d</fix>
</trkpt>
<trkpt lat="40.0713749" lon="-105.229789">
  <ele>1583.0</ele>
  <time>2026-08-28T17:53:56Z</time>
  <course>247.71</course>
  <speed>0.0316227766016838</speed>
  <fix>3d</fix>
</trkpt>
<trkpt lat="40.0713749" lon="-105.229789">
  <ele>1583.0</ele>
  <time>2026-08-28T17:53:56Z</time>
  <course>0.0</course>
  <speed>0.0</speed>
  <fix>3d</fix>
</trkpt>
<trkpt lat="40.0713749" lon="-105.229789">
  <ele>1583.0</ele>
  <time>2026-08-28T17:53:56Z</time>
  <course>247.71</course>
  <speed>0.0316227766016838</speed>
  <fix>3d</fix>
</trkpt>
<trkpt lat="40.0713749" lon="-105.229789">
  <ele>1583.0</ele>
  <time>2026-08-28T17:53:56Z</time>
  <course>0.0</course>
  <speed>0.0</speed>
  <fix>3d</fix>
</trkpt>
<trkpt lat="40.0713749" lon="-105.229789">
  <ele>1583.0</ele>
  <time>2026-08-28T17:53:56Z</time>
  <course>247.7</course>
  <speed>0.0316227766016838</speed>
  <fix>3d</fix>
</trkpt>
<trkpt lat="40.0713749" lon="-105.229789">
  <ele>1583.0</ele>
  <time>2026-08-28T17:53:56Z</time>
  <course>0.0</course>
  <speed>0.0</speed>
  <fix>3d</fix>
</trkpt>
<trkpt lat="40.0713749" lon="-105.229789">
  <ele>1583.0</ele>
  <time>2026-08-28T17:53:56Z</time>
  <course>247.7</course>
  <speed>0.0316227766016838</speed>
  <fix>3d</fix>
</trkpt>
<trkpt lat="40.0713749" lon="-105.229789">
  <ele>1583.0</ele>
  <time>2026-08-28T17:53:56Z</time>
  <course>0.0</course>
  <speed>0.0</speed>
  <fix>3d</fix>
</trkpt>
<trkpt lat="40.0713749" lon="-105.229789">
  <ele>1583.0</ele>
  <time>2026-08-28T17:53:56Z</time>
  <course>247.7</course>
  <speed>0.0316227766016838</speed>
  <fix>3d</fix>
</trkpt>
<trkpt lat="40.0713749" lon="-105.229789">
  <ele>1583.0</ele>
  <time>2026-08-28T17:53:56Z</time>
  <course>0.0</course>
  <speed>0.0</speed>
  <fix>3d</fix>
</trkpt>
<trkpt lat="40.0713749" lon="-105.229789">
  <ele>1583.0</ele>
  <time>2026-08-28T17:53:56Z</time>
  <course>247.69</course>
  <speed>0.0316227766016838</speed>
  <fix>3d</fix>
</trkpt>
<trkpt lat="40.0713749" lon="-105.229789">
  <ele>1583.0</ele>
  <time>2026-08-28T17:53:56Z</time>
  <course>0.0</course>
  <speed>0.0</speed>
  <fix>3d</fix>
</trkpt>
<trkpt lat="40.0713749" lon="-105.229789">
  <ele>1583.0</ele>
  <time>2026-08-28T17:53:56Z</time>
  <course>247.69</course>
  <speed>0.0316227766016838</speed>
  <fix>3d</fix>
</trkpt>
<trkpt lat="40.0713749" lon="-105.229789">
  <ele>1583.0</ele>
  <time>2026-08-28T17:53:56Z</time>
  <course>0.0</course>
  <speed>0.0</speed>
  <fix>3d</fix>
</trkpt>
<trkpt lat="40.0713749" lon="-105.229789">
  <ele>1583.0</ele>
  <time>2026-08-28T17:53:56Z</time>
  <course>247.69</course>
  <speed>0.0316227766016838</speed>
  <fix>3d</fix>
</trkpt>
<trkpt lat="40.0713749" lon="-105.229789">
  <ele>1583.0</ele>
  <time>2026-08-28T17:53:56Z</time>
  <course>0.0</course>
  <speed>0.0</speed>
  <fix>3d</fix>
</trkpt>
<trkpt lat="40.0713749" lon="-105.229789">
  <ele>1583.0</ele>
  <time>2026-08-28T17:53:56Z</time>
  <course>247.68</course>
  <speed>0.0316227766016838</speed>
  <fix>3d</fix>
</trkpt>
<trkpt lat="40.0713749" lon="-105.229789">
  <ele>1583.0</ele>
  <time>2026-08-28T17:53:56Z</time>
  <course>0.0</course>
  <speed>0.0</speed>
  <fix>3d</fix>
</trkpt>
<trkpt lat="40.0713749" lon="-105.229789">
  <ele>1583.0</ele>
  <time>2026-08-28T17:53:56Z</time>
  <course>247.68</course>
  <speed>0.0316227766016838</speed>
  <fix>3d</fix>
</trkpt>
<trkpt lat="40.0713749" lon="-105.229789">
  <ele>1583.0</ele>
  <time>2026-08-28T17:53:56Z</time>
  <course>0.0</course>
  <speed>0.0</speed>
  <fix>3d</fix>
</trkpt>
<trkpt lat="40.0713749" lon="-105.229789">
  <ele>1583.0</ele>
  <time>2026-08-28T17:53:56Z</time>
  <course>247.68</course>
  <speed>0.0316227766016838</speed>
  <fix>3d</fix>
</trkpt>
<trkpt lat="40.0713749" lon="-105.229789">
  <ele>1583.0</ele>
  <time>2026-08-28T17:53:56Z</time>
  <course>0.0</course>
  <speed>0.0</speed>
  <fix>3d</fix>
</trkpt>
<trkpt lat="40.0713749" lon="-105.229789">
  <ele>1583.0</ele>
  <time>2026-08-28T17:53:56Z</time>
  <course>247.67</course>
  <speed>0.0316227766016838</speed>
  <fix>3d</fix>
</trkpt>
<trkpt lat="40.0713749" lon="-105.229789">
  <ele>1583.0</ele>
  <time>2026-08-28T17:53:56Z</time>
  <course>0.0</course>
  <speed>0.0</speed>
  <fix>3d</fix>
</trkpt>
<trkpt lat="40.0713749" lon="-105.229789">
  <ele>1583.0</ele>
  <time>2026-08-28T17:53:56Z</time>
  <course>247.67</course>
  <speed>0.0316227766016838</speed>
  <fix>3d</fix>
</trkpt>
<trkpt lat="40.0713749" lon="-105.229789">
  <ele>1583.0</ele>
  <time>2026-08-28T17:53:56Z</time>
  <course>0.0</course>
  <speed>0.0</speed>
  <fix>3d</fix>
</trkpt>
<trkpt lat="40.0713749" lon="-105.229789">
  <ele>1583.0</ele>
  <time>2026-08-28T17:53:56Z</time>
  <course>247.67</course>
  <speed>0.0316227766016838</speed>
  <fix>3d</fix>
</trkpt>
<trkpt lat="40.0713749" lon="-105.229789">
  <ele>1583.0</ele>
  <time>2026-08-28T17:53:56Z</time>
  <course>0.0</course>
  <speed>0.0</speed>
  <fix>3d</fix>
</trkpt>
<trkpt lat="40.0713749" lon="-105.229789">
  <ele>1583.0</ele>
  <time>2026-08-28T17:53:56Z</time>
  <course>247.66</course>
  <speed>0.0316227766016838</speed>
  <fix>3d</fix>
</trkpt>
<trkpt lat="40.0713749" lon="-105.229789">
  <ele>1583.0</ele>
  <time>2026-08-28T17:53:56Z</time>
  <course>0.0</course>
  <speed>0.0</speed>
  <fix>3d</fix>
</trkpt>
<trkpt lat="40.0713749" lon="-105.229789">
  <ele>1583.0</ele>
  <time>2026-08-28T17:53:56Z</time>
  <course>247.66</course>
  <speed>0.0316227766016838</speed>
  <fix>3d</fix>
</trkpt>
<trkpt lat="40.0713749" lon="-105.229789">
  <ele>1583.0</ele>
  <time>2026-08-28T17:53:56Z</time>
  <course>0.0</course>
  <speed>0.0</speed>
  <fix>3d</fix>
</trkpt>
<trkpt lat="40.0713749" lon="-105.229789">
  <ele>1583.0</ele>
  <time>2026-08-28T17:53:56Z</time>
  <course>247.66</course>
  <speed>0.0316227766016838</speed>
  <fix>3d</fix>
</trkpt>
<trkpt lat="40.0713749" lon="-105.229789">
  <ele>1583.0</ele>
  <time>2026-08-28T17:53:56Z</time>
  <course>0.0</course>
  <speed>0.0</speed>
  <fix>3d</fix>
</trkpt>
<trkpt lat="40.0713749" lon="-105.229789">
  <ele>1583.0</ele>
  <time>2026-08-28T17:53:56Z</time>
  <course>247.65</course>
  <speed>0.0316227766016838</speed>
  <fix>3d</fix>
</trkpt>
<trkpt lat="40.0713749" lon="-105.229789">
  <ele>1583.0</ele>
  <time>2026-08-28T17:53:56Z</time>
  <course>0.0</course>
  <speed>0.0</speed>
  <fix>3d</fix>
</trkpt>
<trkpt lat="40.0713749" lon="-105.229789">
  <ele>1583.0</ele>
  <time>2026-08-28T17:53:56Z</time>
  <course>247.65</course>
  <speed>0.0316227766016838</speed>
  <fix>3d</fix>
</trkpt>
<trkpt lat="40.0713749" lon="-105.229789">
  <ele>1583.0</ele>
  <time>2026-08-28T17:53:56Z</time>
  <course>0.0</course>
  <speed>0.0</speed>
  <fix>3d</fix>
</trkpt>
<trkpt lat="40.0713749" lon="-105.229789">
  <ele>1583.0</ele>
  <time>2026-08-28T17:53:56Z</time>
  <course>247.65</course>
  <speed>0.0316227766016838</speed>
  <fix>3d</fix>
</trkpt>
<trkpt lat="40.0713749" lon="-105.229789">
  <ele>1583.0</ele>
  <time>2026-08-28T17:53:56Z</time>
  <course>0.0</course>
  <speed>0.0</speed>
  <fix>3d</fix>
</trkpt>
<trkpt lat="40.0713749" lon="-105.229789">
  <ele>1583.0</ele>
  <time>2026-08-28T17:53:56Z</time>
  <course>247.64</course>
  <speed>0.0316227766016838</speed>
  <fix>3d</fix>
</trkpt>
<trkpt lat="40.0713749" lon="-105.229789">
  <ele>1583.0</ele>
  <time>2026-08-28T17:53:56Z</time>
  <course>0.0</course>
  <speed>0.0</speed>
  <fix>3d</fix>
</trkpt>
<trkpt lat="40.0713749" lon="-105.229789">
  <ele>1583.0</ele>
  <time>2026-08-28T17:53:56Z</time>
  <course>247.64</course>
  <speed>0.0316227766016838</speed>
  <fix>3d</fix>
</trkpt>
<trkpt lat="40.0713749" lon="-105.229789">
  <ele>1583.0</ele>
  <time>2026-08-28T17:53:56Z</time>
  <course>0.0</course>
  <speed>0.0</speed>
  <fix>3d</fix>
</trkpt>
<trkpt lat="40.0713749" lon="-105.229789">
  <ele>1583.0</ele>
  <time>2026-08-28T17:53:56Z</time>
  <course>247.64</course>
  <speed>0.0316227766016838</speed>
  <fix>3d</fix>
</trkpt>
<trkpt lat="40.0713749" lon="-105.229789">
  <ele>1583.0</ele>
  <time>2026-08-28T17:53:56Z</time>
  <course>0.0</course>
  <speed>0.0</speed>
  <fix>3d</fix>
</trkpt>
<trkpt lat="40.0713749" lon="-105.229789">
  <ele>1583.0</ele>
  <time>2026-08-28T17:53:56Z</time>
  <course>247.64</course>
  <speed>0.0316227766016838</speed>
  <fix>3d</fix>
</trkpt>
<trkpt lat="40.0713749" lon="-105.229789">
  <ele>1583.0</ele>
  <time>2026-08-28T17:53:56Z</time>
  <course>0.0</course>
  <speed>0.0</speed>
  <fix>3d</fix>
</trkpt>
<trkpt lat="40.0713749" lon="-105.229789">
  <ele>1583.0</ele>
  <time>2026-08-28T17:53:56Z</time>
  <course>247.63</course>
  <speed>0.0316227766016838</speed>
  <fix>3d</fix>
</trkpt>
<trkpt lat="40.0713749" lon="-105.229789">
  <ele>1583.0</ele>
  <time>2026-08-28T17:53:56Z</time>
  <course>0.0</course>
  <speed>0.0</speed>
  <fix>3d</fix>
</trkpt>
<trkpt lat="40.0713749" lon="-105.229789">
  <ele>1583.0</ele>
  <time>2026-08-28T17:53:56Z</time>
  <course>247.63</course>
  <speed>0.0316227766016838</speed>
  <fix>3d</fix>
</trkpt>
<trkpt lat="40.0713749" lon="-105.229789">
  <ele>1583.0</ele>
  <time>2026-08-28T17:53:56Z</time>
  <course>0.0</course>
  <speed>0.0</speed>
  <fix>3d</fix>
</trkpt>
<trkpt lat="40.0713749" lon="-105.229789">
  <ele>1583.0</ele>
  <time>2026-08-28T17:53:56Z</time>
  <course>247.63</course>
  <speed>0.0316227766016838</speed>
  <fix>3d</fix>
</trkpt>
<trkpt lat="40.0713749" lon="-105.229789">
  <ele>1583.0</ele>
  <time>2026-08-28T17:53:56Z</time>
  <course>0.0</course>
  <speed>0.0</speed>
  <fix>3d</fix>
</trkpt>
<trkpt lat="40.0713749" lon="-105.229789">
  <ele>1583.0</ele>
  <time>2026-08-28T17:53:56Z</time>
  <course>247.62</course>
  <speed>0.0316227766016838</speed>
  <fix>3d</fix>
</trkpt>
<trkpt lat="40.0713749" lon="-105.229789">
  <ele>1583.0</ele>
  <time>2026-08-28T17:53:56Z</time>
  <course>0.0</course>
  <speed>0.0</speed>
  <fix>3d</fix>
</trkpt>
<trkpt lat="40.0713749" lon="-105.229789">
  <ele>1583.0</ele>
  <time>2026-08-28T17:53:56Z</time>
  <course>247.62</course>
  <speed>0.0316227766016838</speed>
  <fix>3d</fix>
</trkpt>
<trkpt lat="40.0713749" lon="-105.229789">
  <ele>1583.0</ele>
  <time>2026-08-28T17:53:56Z</time>
  <course>0.0</course>
  <speed>0.0</speed>
  <fix>3d</fix>
</trkpt>
<trkpt lat="40.0713749" lon="-105.229789">
  <ele>1583.0</ele>
  <time>2026-08-28T17:53:56Z</time>
  <course>247.62</course>
  <speed>0.0316227766016838</speed>
  <fix>3d</fix>
</trkpt>
<trkpt lat="40.0713749" lon="-105.229789">
  <ele>1583.0</ele>
  <time>2026-08-28T17:53:56Z</time>
  <course>0.0</course>
  <speed>0.0</speed>
  <fix>3d</fix>
</trkpt>
<trkpt lat="40.0713749" lon="-105.229789">
  <ele>1583.0</ele>
  <time>2026-08-28T17:53:56Z</time>
  <course>247.62</course>
  <speed>0.0316227766016838</speed>
  <fix>3d</fix>
</trkpt>
<trkpt lat="40.0713749" lon="-105.229789">
  <ele>1583.0</ele>
  <time>2026-08-28T17:53:56Z</time>
  <course>0.0</course>
  <speed>0.0</speed>
  <fix>3d</fix>
</trkpt>
<trkpt lat="40.0713749" lon="-105.229789">
  <ele>1583.0</ele>
  <time>2026-08-28T17:53:56Z</time>
  <course>247.61</course>
  <speed>0.0316227766016838</speed>
  <fix>3d</fix>
</trkpt>
<trkpt lat="40.0713749" lon="-105.229789">
  <ele>1583.0</ele>
  <time>2026-08-28T17:53:56Z</time>
  <course>0.0</course>
  <speed>0.0</speed>
  <fix>3d</fix>
</trkpt>
<trkpt lat="40.0713749" lon="-105.229789">
  <ele>1583.0</ele>
  <time>2026-08-28T17:53:56Z</time>
  <course>247.61</course>
  <speed>0.0316227766016838</speed>
  <fix>3d</fix>
</trkpt>
<trkpt lat="40.0713749" lon="-105.229789">
  <ele>1583.0</ele>
  <time>2026-08-28T17:53:56Z</time>
  <course>0.0</course>
  <speed>0.0</speed>
  <fix>3d</fix>
</trkpt>
<trkpt lat="40.0713749" lon="-105.229789">
  <ele>1583.0</ele>
  <time>2026-08-28T17:53:56Z</time>
  <course>247.61</course>
  <speed>0.0316227766016838</speed>
  <fix>3d</fix>
</trkpt>
<trkpt lat="40.0713749" lon="-105.229789">
  <ele>1583.0</ele>
  <time>2026-08-28T17:53:56Z</time>
  <course>0.0</course>
  <speed>0.0</speed>
  <fix>3d</fix>
</trkpt>
<trkpt lat="40.0713749" lon="-105.229789">
  <ele>1583.0</ele>
  <time>2026-08-28T17:53:56Z</time>
  <course>247.6</course>
  <speed>0.0316227766016838</speed>
  <fix>3d</fix>
</trkpt>
<trkpt lat="40.0713749" lon="-105.229789">
  <ele>1583.0</ele>
  <time>2026-08-28T17:53:56Z</time>
  <course>0.0</course>
  <speed>0.0</speed>
  <fix>3d</fix>
</trkpt>
<trkpt lat="40.0713749" lon="-105.229789">
  <ele>1583.0</ele>
  <time>2026-08-28T17:53:56Z</time>
  <course>247.6</course>
  <speed>0.0316227766016838</speed>
  <fix>3d</fix>
</trkpt>
<trkpt lat="40.0713749" lon="-105.229789">
  <ele>1583.0</ele>
  <time>2026-08-28T17:53:56Z</time>
  <course>0.0</course>
  <speed>0.0</speed>
  <fix>3d</fix>
</trkpt>
<trkpt lat="40.0713749" lon="-105.229789">
  <ele>1583.0</ele>
  <time>2026-08-28T17:53:56Z</time>
  <course>247.6</course>
  <speed>0.0316227766016838</speed>
  <fix>3d</fix>
</trkpt>
<trkpt lat="40.0713749" lon="-105.229789">
  <ele>1583.0</ele>
  <time>2026-08-28T17:53:56Z</time>
  <course>0.0</course>
  <speed>0.0</speed>
  <fix>3d</fix>
</trkpt>
<trkpt lat="40.0713749" lon="-105.229789">
  <ele>1583.0</ele>
  <time>2026-08-28T17:53:56Z</time>
  <course>247.6</course>
  <speed>0.0316227766016838</speed>
  <fix>3d</fix>
</trkpt>
<trkpt lat="40.0713749" lon="-105.229789">
  <ele>1583.0</ele>
  <time>2026-08-28T17:53:56Z</time>
  <course>0.0</course>
  <speed>0.0</speed>
  <fix>3d</fix>
</trkpt>
<trkpt lat="40.0713749" lon="-105.229789">
  <ele>1583.0</ele>
  <time>2026-08-28T17:53:56Z</time>
  <course>247.59</course>
  <speed>0.0316227766016838</speed>
  <fix>3d</fix>
</trkpt>
<trkpt lat="40.0713749" lon="-105.229789">
  <ele>1583.0</ele>
  <time>2026-08-28T17:53:56Z</time>
  <course>0.0</course>
  <speed>0.0</speed>
  <fix>3d</fix>
</trkpt>
<trkpt lat="40.0713749" lon="-105.229789">
  <ele>1582.92</ele>
  <time>2026-08-28T17:53:56Z</time>
  <course>247.59</course>
  <speed>0.0</speed>
  <fix>3d</fix>
</trkpt>
<trkpt lat="40.0713749" lon="-105.229789">
  <ele>1583.0</ele>
  <time>2026-08-28T17:53:56Z</time>
  <course>0.0</course>
  <speed>0.0</speed>
  <fix>3d</fix>
</trkpt>
<trkpt lat="40.0713749" lon="-105.229789">
  <ele>1582.92</ele>
  <time>2026-08-28T17:53:56Z</time>
  <course>247.59</course>
  <speed>0.0</speed>
  <fix>3d</fix>
</trkpt>
<trkpt lat="40.0713749" lon="-105.229789">
  <ele>1583.0</ele>
  <time>2026-08-28T17:53:56Z</time>
  <course>0.0</course>
  <speed>0.0</speed>
  <fix>3d</fix>
</trkpt>
<trkpt lat="40.0713749" lon="-105.229789">
  <ele>1582.91</ele>
  <time>2026-08-28T17:53:56Z</time>
  <course>247.58</course>
  <speed>0.0</speed>
  <fix>3d</fix>
</trkpt>
<trkpt lat="40.0713749" lon="-105.229789">
  <ele>1583.0</ele>
  <time>2026-08-28T17:53:56Z</time>
  <course>0.0</course>
  <speed>0.0</speed>
  <fix>3d</fix>
</trkpt>
<trkpt lat="40.0713749" lon="-105.229789">
  <ele>1582.91</ele>
  <time>2026-08-28T17:53:56Z</time>
  <course>247.58</course>
  <speed>0.0</speed>
  <fix>3d</fix>
</trkpt>
<trkpt lat="40.0713749" lon="-105.229789">
  <ele>1583.0</ele>
  <time>2026-08-28T17:53:56Z</time>
  <course>0.0</course>
  <speed>0.0</speed>
  <fix>3d</fix>
</trkpt>
<trkpt lat="40.0713749" lon="-105.229789">
  <ele>1582.9</ele>
  <time>2026-08-28T17:53:56Z</time>
  <course>247.58</course>
  <speed>0.0</speed>
  <fix>3d</fix>
</trkpt>
<trkpt lat="40.0713749" lon="-105.229789">
  <ele>1583.0</ele>
  <time>2026-08-28T17:53:56Z</time>
  <course>0.0</course>
  <speed>0.0</speed>
  <fix>3d</fix>
</trkpt>
<trkpt lat="40.0713749" lon="-105.229789">
  <ele>1582.9</ele>
  <time>2026-08-28T17:53:56Z</time>
  <course>247.58</course>
  <speed>0.0</speed>
  <fix>3d</fix>
</trkpt>
<trkpt lat="40.0713749" lon="-105.229789">
  <ele>1583.0</ele>
  <time>2026-08-28T17:53:56Z</time>
  <course>0.0</course>
  <speed>0.0</speed>
  <fix>3d</fix>
</trkpt>
<trkpt lat="40.0713749" lon="-105.229789">
  <ele>1582.9</ele>
  <time>2026-08-28T17:53:56Z</time>
  <course>247.57</course>
  <speed>0.0</speed>
  <fix>3d</fix>
</trkpt>
<trkpt lat="40.0713749" lon="-105.229789">
  <ele>1583.0</ele>
  <time>2026-08-28T17:53:56Z</time>
  <course>0.0</course>
  <speed>0.0</speed>
  <fix>3d</fix>
</trkpt>
<trkpt lat="40.0713749" lon="-105.229789">
  <ele>1582.9</ele>
  <time>2026-08-28T17:53:56Z</time>
  <course>247.57</course>
  <speed>0.0</speed>
  <fix>3d</fix>
</trkpt>
<trkpt lat="40.0713749" lon="-105.229789">
  <ele>1583.0</ele>
  <time>2026-08-28T17:53:56Z</time>
  <course>0.0</course>
  <speed>0.0</speed>
  <fix>3d</fix>
</trkpt>
<trkpt lat="40.0713749" lon="-105.229789">
  <ele>1582.9</ele>
  <time>2026-08-28T17:53:56Z</time>
  <course>247.57</course>
  <speed>0.0</speed>
  <fix>3d</fix>
</trkpt>
<trkpt lat="40.0713749" lon="-105.229789">
  <ele>1583.0</ele>
  <time>2026-08-28T17:53:56Z</time>
  <course>0.0</course>
  <speed>0.0</speed>
  <fix>3d</fix>
</trkpt>
<trkpt lat="40.0713749" lon="-105.229789">
  <ele>1582.9</ele>
  <time>2026-08-28T17:53:56Z</time>
  <course>247.57</course>
  <speed>0.01</speed>
  <fix>3d</fix>
</trkpt>
<trkpt lat="40.0713749" lon="-105.229789">
  <ele>1583.0</ele>
  <time>2026-08-28T17:53:56Z</time>
  <course>0.0</course>
  <speed>0.0</speed>
  <fix>3d</fix>
</trkpt>
<trkpt lat="40.0713749" lon="-105.229789">
  <ele>1582.9</ele>
  <time>2026-08-28T17:53:56Z</time>
  <course>247.56</course>
  <speed>0.01</speed>
  <fix>3d</fix>
</trkpt>
<trkpt lat="40.0713749" lon="-105.229789">
  <ele>1583.0</ele>
  <time>2026-08-28T17:53:56Z</time>
  <course>0.0</course>
  <speed>0.0</speed>
  <fix>3d</fix>
</trkpt>
<trkpt lat="40.0713749" lon="-105.229789">
  <ele>1582.91</ele>
  <time>2026-08-28T17:53:56Z</time>
  <course>247.56</course>
  <speed>0.01</speed>
  <fix>3d</fix>
</trkpt>
<trkpt lat="40.0713749" lon="-105.229789">
  <ele>1583.0</ele>
  <time>2026-08-28T17:53:56Z</time>
  <course>0.0</course>
  <speed>0.0</speed>
  <fix>3d</fix>
</trkpt>
<trkpt lat="40.0713749" lon="-105.229789">
  <ele>1582.91</ele>
  <time>2026-08-28T17:53:56Z</time>
  <course>247.56</course>
  <speed>0.01</speed>
  <fix>3d</fix>
</trkpt>
<trkpt lat="40.0713749" lon="-105.229789">
  <ele>1583.0</ele>
  <time>2026-08-28T17:53:56Z</time>
  <course>0.0</course>
  <speed>0.0</speed>
  <fix>3d</fix>
</trkpt>
<trkpt lat="40.0713749" lon="-105.229789">
  <ele>1582.92</ele>
  <time>2026-08-28T17:53:56Z</time>
  <course>247.56</course>
  <speed>0.01</speed>
  <fix>3d</fix>
</trkpt>
<trkpt lat="40.0713749" lon="-105.229789">
  <ele>1583.0</ele>
  <time>2026-08-28T17:53:56Z</time>
  <course>0.0</course>
  <speed>0.0</speed>
  <fix>3d</fix>
</trkpt>
<trkpt lat="40.0713749" lon="-105.229789">
  <ele>1582.92</ele>
  <time>2026-08-28T17:53:56Z</time>
  <course>247.55</course>
  <speed>0.01</speed>
  <fix>3d</fix>
</trkpt>
<trkpt lat="40.0713749" lon="-105.229789">
  <ele>1583.0</ele>
  <time>2026-08-28T17:53:56Z</time>
  <course>0.0</course>
  <speed>0.0</speed>
  <fix>3d</fix>
</trkpt>
<trkpt lat="40.0713749" lon="-105.229789">
  <ele>1582.92</ele>
  <time>2026-08-28T17:53:56Z</time>
  <course>247.55</course>
  <speed>0.01</speed>
  <fix>3d</fix>
</trkpt>
<trkpt lat="40.0713749" lon="-105.229789">
  <ele>1583.0</ele>
  <time>2026-08-28T17:53:56Z</time>
  <course>0.0</course>
  <speed>0.0</speed>
  <fix>3d</fix>
</trkpt>
<trkpt lat="40.0713749" lon="-105.229789">
  <ele>1582.93</ele>
  <time>2026-08-28T17:53:56Z</time>
  <course>247.55</course>
  <speed>0.01</speed>
  <fix>3d</fix>
</trkpt>
<trkpt lat="40.0713749" lon="-105.229789">
  <ele>1583.0</ele>
  <time>2026-08-28T17:53:56Z</time>
  <course>0.0</course>
  <speed>0.0</speed>
  <fix>3d</fix>
</trkpt>
<trkpt lat="40.0713749" lon="-105.229789">
  <ele>1582.93</ele>
  <time>2026-08-28T17:53:56Z</time>
  <course>247.55</course>
  <speed>0.01</speed>
  <fix>3d</fix>
</trkpt>
<trkpt lat="40.0713749" lon="-105.229789">
  <ele>1583.0</ele>
  <time>2026-08-28T17:53:56Z</time>
  <course>0.0</course>
  <speed>0.0</speed>
  <fix>3d</fix>
</trkpt>
<trkpt lat="40.0713749" lon="-105.229789">
  <ele>1582.93</ele>
  <time>2026-08-28T17:53:56Z</time>
  <course>247.54</course>
  <speed>0.01</speed>
  <fix>3d</fix>
</trkpt>
<trkpt lat="40.0713749" lon="-105.229789">
  <ele>1583.0</ele>
  <time>2026-08-28T17:53:56Z</time>
  <course>0.0</course>
  <speed>0.0</speed>
  <fix>3d</fix>
</trkpt>
<trkpt lat="40.0713749" lon="-105.229789">
  <ele>1582.93</ele>
  <time>2026-08-28T17:53:56Z</time>
  <course>247.54</course>
  <speed>0.01</speed>
  <fix>3d</fix>
</trkpt>
<trkpt lat="40.0713749" lon="-105.229789">
  <ele>1583.0</ele>
  <time>2026-08-28T17:53:56Z</time>
  <course>0.0</course>
  <speed>0.0</speed>
  <fix>3d</fix>
</trkpt>
<trkpt lat="40.0713749" lon="-105.229789">
  <ele>1582.94</ele>
  <time>2026-08-28T17:53:56Z</time>
  <course>247.54</course>
  <speed>0.01</speed>
  <fix>3d</fix>
</trkpt>
<trkpt lat="40.0713749" lon="-105.229789">
  <ele>1583.0</ele>
  <time>2026-08-28T17:53:56Z</time>
  <course>0.0</course>
  <speed>0.0</speed>
  <fix>3d</fix>
</trkpt>
<trkpt lat="40.0713749" lon="-105.229789">
  <ele>1582.94</ele>
  <time>2026-08-28T17:53:56Z</time>
  <course>247.54</course>
  <speed>0.01</speed>
  <fix>3d</fix>
</trkpt>
<trkpt lat="40.0713749" lon="-105.229789">
  <ele>1583.0</ele>
  <time>2026-08-28T17:53:56Z</time>
  <course>0.0</course>
  <speed>0.0</speed>
  <fix>3d</fix>
</trkpt>
<trkpt lat="40.0713749" lon="-105.229789">
  <ele>1582.94</ele>
  <time>2026-08-28T17:53:56Z</time>
  <course>247.53</course>
  <speed>0.01</speed>
  <fix>3d</fix>
</trkpt>
<trkpt lat="40.0713749" lon="-105.229789">
  <ele>1583.0</ele>
  <time>2026-08-28T17:53:56Z</time>
  <course>0.0</course>
  <speed>0.0</speed>
  <fix>3d</fix>
</trkpt>
<trkpt lat="40.0713749" lon="-105.229789">
  <ele>1582.95</ele>
  <time>2026-08-28T17:53:56Z</time>
  <course>247.53</course>
  <speed>0.01</speed>
  <fix>3d</fix>
</trkpt>
<trkpt lat="40.0713749" lon="-105.229789">
  <ele>1583.0</ele>
  <time>2026-08-28T17:53:56Z</time>
  <course>0.0</course>
  <speed>0.0</speed>
  <fix>3d</fix>
</trkpt>
<trkpt lat="40.0713749" lon="-105.229789">
  <ele>1582.95</ele>
  <time>2026-08-28T17:53:56Z</time>
  <course>247.53</course>
  <speed>0.01</speed>
  <fix>3d</fix>
</trkpt>
<trkpt lat="40.0713749" lon="-105.229789">
  <ele>1583.0</ele>
  <time>2026-08-28T17:53:56Z</time>
  <course>0.0</course>
  <speed>0.0</speed>
  <fix>3d</fix>
</trkpt>
<trkpt lat="40.0713749" lon="-105.229789">
  <ele>1582.95</ele>
  <time>2026-08-28T17:53:56Z</time>
  <course>247.53</course>
  <speed>0.01</speed>
  <fix>3d</fix>
</trkpt>
<trkpt lat="40.0713749" lon="-105.229789">
  <ele>1583.0</ele>
  <time>2026-08-28T17:53:56Z</time>
  <course>0.0</course>
  <speed>0.0</speed>
  <fix>3d</fix>
</trkpt>
<trkpt lat="40.0713749" lon="-105.229789">
  <ele>1582.96</ele>
  <time>2026-08-28T17:53:56Z</time>
  <course>247.53</course>
  <speed>0.01</speed>
  <fix>3d</fix>
</trkpt>
<trkpt lat="40.0713749" lon="-105.229789">
  <ele>1583.0</ele>
  <time>2026-08-28T17:53:56Z</time>
  <course>0.0</course>
  <speed>0.0</speed>
  <fix>3d</fix>
</trkpt>
<trkpt lat="40.0713749" lon="-105.229789">
  <ele>1582.96</ele>
  <time>2026-08-28T17:53:56Z</time>
  <course>247.52</course>
  <speed>0.01</speed>
  <fix>3d</fix>
</trkpt>
<trkpt lat="40.0713749" lon="-105.229789">
  <ele>1583.0</ele>
  <time>2026-08-28T17:53:56Z</time>
  <course>0.0</course>
  <speed>0.0</speed>
  <fix>3d</fix>
</trkpt>
<trkpt lat="40.0713749" lon="-105.229789">
  <ele>1582.96</ele>
  <time>2026-08-28T17:53:56Z</time>
  <course>247.52</course>
  <speed>0.01</speed>
  <fix>3d</fix>
</trkpt>
<trkpt lat="40.0713749" lon="-105.229789">
  <ele>1583.0</ele>
  <time>2026-08-28T17:53:56Z</time>
  <course>0.0</course>
  <speed>0.0</speed>
  <fix>3d</fix>
</trkpt>
<trkpt lat="40.0713749" lon="-105.229789">
  <ele>1582.96</ele>
  <time>2026-08-28T17:53:56Z</time>
  <course>247.52</course>
  <speed>0.01</speed>
  <fix>3d</fix>
</trkpt>
<trkpt lat="40.0713749" lon="-105.229789">
  <ele>1583.0</ele>
  <time>2026-08-28T17:53:56Z</time>
  <course>0.0</course>
  <speed>0.0</speed>
  <fix>3d</fix>
</trkpt>
<trkpt lat="40.0713749" lon="-105.229789">
  <ele>1582.96</ele>
  <time>2026-08-28T17:53:56Z</time>
  <course>247.52</course>
  <speed>0.01</speed>
  <fix>3d</fix>
</trkpt>
<trkpt lat="40.0713749" lon="-105.229789">
  <ele>1583.0</ele>
  <time>2026-08-28T17:53:56Z</time>
  <course>0.0</course>
  <speed>0.0</speed>
  <fix>3d</fix>
</trkpt>
<trkpt lat="40.0713749" lon="-105.229789">
  <ele>1582.96</ele>
  <time>2026-08-28T17:53:56Z</time>
  <course>247.51</course>
  <speed>0.01</speed>
  <fix>3d</fix>
</trkpt>
<trkpt lat="40.0713749" lon="-105.229789">
  <ele>1583.0</ele>
  <time>2026-08-28T17:53:56Z</time>
  <course>0.0</course>
  <speed>0.0</speed>
  <fix>3d</fix>
</trkpt>
<trkpt lat="40.0713749" lon="-105.229789">
  <ele>1582.95</ele>
  <time>2026-08-28T17:53:56Z</time>
  <course>247.51</course>
  <speed>0.01</speed>
  <fix>3d</fix>
</trkpt>
<trkpt lat="40.0713749" lon="-105.229789">
  <ele>1583.0</ele>
  <time>2026-08-28T17:53:56Z</time>
  <course>0.0</course>
  <speed>0.0</speed>
  <fix>3d</fix>
</trkpt>
<trkpt lat="40.0713749" lon="-105.229789">
  <ele>1582.95</ele>
  <time>2026-08-28T17:53:56Z</time>
  <course>247.51</course>
  <speed>0.01</speed>
  <fix>3d</fix>
</trkpt>
<trkpt lat="40.0713749" lon="-105.229789">
  <ele>1583.0</ele>
  <time>2026-08-28T17:53:56Z</time>
  <course>0.0</course>
  <speed>0.0</speed>
  <fix>3d</fix>
</trkpt>
<trkpt lat="40.0713749" lon="-105.229789">
  <ele>1582.95</ele>
  <time>2026-08-28T17:53:56Z</time>
  <course>247.51</course>
  <speed>0.01</speed>
  <fix>3d</fix>
</trkpt>
<trkpt lat="40.0713749" lon="-105.229789">
  <ele>1583.0</ele>
  <time>2026-08-28T17:53:56Z</time>
  <course>0.0</course>
  <speed>0.0</speed>
  <fix>3d</fix>
</trkpt>
<trkpt lat="40.0713749" lon="-105.229789">
  <ele>1582.95</ele>
  <time>2026-08-28T17:53:56Z</time>
  <course>247.51</course>
  <speed>0.01</speed>
  <fix>3d</fix>
</trkpt>
<trkpt lat="40.0713749" lon="-105.229789">
  <ele>1583.0</ele>
  <time>2026-08-28T17:53:56Z</time>
  <course>0.0</course>
  <speed>0.0</speed>
  <fix>3d</fix>
</trkpt>
<trkpt lat="40.0713749" lon="-105.229789">
  <ele>1582.95</ele>
  <time>2026-08-28T17:53:56Z</time>
  <course>247.5</course>
  <speed>0.01</speed>
  <fix>3d</fix>
</trkpt>
<trkpt lat="40.0713749" lon="-105.229789">
  <ele>1583.0</ele>
  <time>2026-08-28T17:53:56Z</time>
  <course>0.0</course>
  <speed>0.0</speed>
  <fix>3d</fix>
</trkpt>
<trkpt lat="40.0713749" lon="-105.229789">
  <ele>1582.95</ele>
  <time>2026-08-28T17:53:56Z</time>
  <course>247.5</course>
  <speed>0.01</speed>
  <fix>3d</fix>
</trkpt>
<trkpt lat="40.0713749" lon="-105.229789">
  <ele>1583.0</ele>
  <time>2026-08-28T17:53:56Z</time>
  <course>0.0</course>
  <speed>0.0</speed>
  <fix>3d</fix>
</trkpt>
<trkpt lat="40.0713749" lon="-105.229789">
  <ele>1582.95</ele>
  <time>2026-08-28T17:53:56Z</time>
  <course>247.5</course>
  <speed>0.01</speed>
  <fix>3d</fix>
</trkpt>
<trkpt lat="40.0713749" lon="-105.229789">
  <ele>1583.0</ele>
  <time>2026-08-28T17:53:56Z</time>
  <course>0.0</course>
  <speed>0.0</speed>
  <fix>3d</fix>
</trkpt>
<trkpt lat="40.0713749" lon="-105.229789">
  <ele>1582.95</ele>
  <time>2026-08-28T17:53:56Z</time>
  <course>247.5</course>
  <speed>0.01</speed>
  <fix>3d</fix>
</trkpt>
<trkpt lat="40.0713749" lon="-105.229789">
  <ele>1583.0</ele>
  <time>2026-08-28T17:53:56Z</time>
  <course>0.0</course>
  <speed>0.0</speed>
  <fix>3d</fix>
</trkpt>
<trkpt lat="40.0713749" lon="-105.229789">
  <ele>1582.95</ele>
  <time>2026-08-28T17:53:56Z</time>
  <course>247.5</course>
  <speed>0.01</speed>
  <fix>3d</fix>
</trkpt>
<trkpt lat="40.0713749" lon="-105.229789">
  <ele>1583.0</ele>
  <time>2026-08-28T17:53:56Z</time>
  <course>0.0</course>
  <speed>0.0</speed>
  <fix>3d</fix>
</trkpt>
<trkpt lat="40.0713749" lon="-105.229789">
  <ele>1582.95</ele>
  <time>2026-08-28T17:53:56Z</time>
  <course>247.49</course>
  <speed>0.01</speed>
  <fix>3d</fix>
</trkpt>
<trkpt lat="40.0713749" lon="-105.229789">
  <ele>1583.0</ele>
  <time>2026-08-28T17:53:56Z</time>
  <course>0.0</course>
  <speed>0.0</speed>
  <fix>3d</fix>
</trkpt>
<trkpt lat="40.0713749" lon="-105.229789">
  <ele>1582.95</ele>
  <time>2026-08-28T17:53:56Z</time>
  <course>247.49</course>
  <speed>0.01</speed>
  <fix>3d</fix>
</trkpt>
<trkpt lat="40.0713749" lon="-105.229789">
  <ele>1583.0</ele>
  <time>2026-08-28T17:53:56Z</time>
  <course>0.0</course>
  <speed>0.0</speed>
  <fix>3d</fix>
</trkpt>
<trkpt lat="40.0713749" lon="-105.229789">
  <ele>1582.95</ele>
  <time>2026-08-28T17:53:56Z</time>
  <course>247.49</course>
  <speed>0.01</speed>
  <fix>3d</fix>
</trkpt>
<trkpt lat="40.0713749" lon="-105.229789">
  <ele>1583.0</ele>
  <time>2026-08-28T17:53:56Z</time>
  <course>0.0</course>
  <speed>0.0</speed>
  <fix>3d</fix>
</trkpt>
<trkpt lat="40.0713749" lon="-105.229789">
  <ele>1582.96</ele>
  <time>2026-08-28T17:53:56Z</time>
  <course>247.49</course>
  <speed>0.0</speed>
  <fix>3d</fix>
</trkpt>
<trkpt lat="40.0713749" lon="-105.229789">
  <ele>1583.0</ele>
  <time>2026-08-28T17:53:56Z</time>
  <course>0.0</course>
  <speed>0.0</speed>
  <fix>3d</fix>
</trkpt>
<trkpt lat="40.0713749" lon="-105.229789">
  <ele>1582.97</ele>
  <time>2026-08-28T17:53:56Z</time>
  <course>247.49</course>
  <speed>0.0</speed>
  <fix>3d</fix>
</trkpt>
<trkpt lat="40.0713749" lon="-105.229789">
  <ele>1583.0</ele>
  <time>2026-08-28T17:53:56Z</time>
  <course>0.0</course>
  <speed>0.0</speed>
  <fix>3d</fix>
</trkpt>
<trkpt lat="40.0713749" lon="-105.229789">
  <ele>1582.97</ele>
  <time>2026-08-28T17:53:56Z</time>
  <course>247.48</course>
  <speed>0.0</speed>
  <fix>3d</fix>
</trkpt>
<trkpt lat="40.0713749" lon="-105.229789">
  <ele>1583.0</ele>
  <time>2026-08-28T17:53:56Z</time>
  <course>0.0</course>
  <speed>0.0</speed>
  <fix>3d</fix>
</trkpt>
<trkpt lat="40.0713749" lon="-105.229789">
  <ele>1582.98</ele>
  <time>2026-08-28T17:53:56Z</time>
  <course>247.48</course>
  <speed>0.0</speed>
  <fix>3d</fix>
</trkpt>
<trkpt lat="40.0713749" lon="-105.229789">
  <ele>1583.0</ele>
  <time>2026-08-28T17:53:56Z</time>
  <course>0.0</course>
  <speed>0.0</speed>
  <fix>3d</fix>
</trkpt>
<trkpt lat="40.0713749" lon="-105.229789">
  <ele>1582.98</ele>
  <time>2026-08-28T17:53:56Z</time>
  <course>247.48</course>
  <speed>0.0</speed>
  <fix>3d</fix>
</trkpt>
<trkpt lat="40.0713749" lon="-105.229789">
  <ele>1583.0</ele>
  <time>2026-08-28T17:53:56Z</time>
  <course>0.0</course>
  <speed>0.0</speed>
  <fix>3d</fix>
</trkpt>
<trkpt lat="40.0713749" lon="-105.229789">
  <ele>1582.98</ele>
  <time>2026-08-28T17:53:56Z</time>
  <course>247.48</course>
  <speed>0.01</speed>
  <fix>3d</fix>
</trkpt>
<trkpt lat="40.0713749" lon="-105.229789">
  <ele>1583.0</ele>
  <time>2026-08-28T17:53:56Z</time>
  <course>0.0</course>
  <speed>0.0</speed>
  <fix>3d</fix>
</trkpt>
<trkpt lat="40.0713749" lon="-105.229789">
  <ele>1582.98</ele>
  <time>2026-08-28T17:53:56Z</time>
  <course>247.48</course>
  <speed>0.01</speed>
  <fix>3d</fix>
</trkpt>
<trkpt lat="40.0713749" lon="-105.229789">
  <ele>1583.0</ele>
  <time>2026-08-28T17:53:56Z</time>
  <course>0.0</course>
  <speed>0.0</speed>
  <fix>3d</fix>
</trkpt>
<trkpt lat="40.0713749" lon="-105.229789">
  <ele>1582.98</ele>
  <time>2026-08-28T17:53:56Z</time>
  <course>247.47</course>
  <speed>0.01</speed>
  <fix>3d</fix>
</trkpt>
<trkpt lat="40.0713749" lon="-105.229789">
  <ele>1583.0</ele>
  <time>2026-08-28T17:53:56Z</time>
  <course>0.0</course>
  <speed>0.0</speed>
  <fix>3d</fix>
</trkpt>
<trkpt lat="40.0713749" lon="-105.229789">
  <ele>1582.98</ele>
  <time>2026-08-28T17:53:56Z</time>
  <course>247.47</course>
  <speed>0.01</speed>
  <fix>3d</fix>
</trkpt>
<trkpt lat="40.0713749" lon="-105.229789">
  <ele>1583.0</ele>
  <time>2026-08-28T17:53:56Z</time>
  <course>0.0</course>
  <speed>0.0</speed>
  <fix>3d</fix>
</trkpt>
<trkpt lat="40.0713749" lon="-105.229789">
  <ele>1582.98</ele>
  <time>2026-08-28T17:53:56Z</time>
  <course>247.47</course>
  <speed>0.01</speed>
  <fix>3d</fix>
</trkpt>
<trkpt lat="40.0713749" lon="-105.229789">
  <ele>1583.0</ele>
  <time>2026-08-28T17:53:56Z</time>
  <course>0.0</course>
  <speed>0.0</speed>
  <fix>3d</fix>
</trkpt>
<trkpt lat="40.0713749" lon="-105.229789">
  <ele>1582.98</ele>
  <time>2026-08-28T17:53:56Z</time>
  <course>247.47</course>
  <speed>0.01</speed>
  <fix>3d</fix>
</trkpt>
<trkpt lat="40.0713749" lon="-105.229789">
  <ele>1583.0</ele>
  <time>2026-08-28T17:53:56Z</time>
  <course>0.0</course>
  <speed>0.0</speed>
  <fix>3d</fix>
</trkpt>
<trkpt lat="40.0713749" lon="-105.229789">
  <ele>1582.98</ele>
  <time>2026-08-28T17:53:56Z</time>
  <course>247.47</course>
  <speed>0.01</speed>
  <fix>3d</fix>
</trkpt>
<trkpt lat="40.0713749" lon="-105.229789">
  <ele>1583.0</ele>
  <time>2026-08-28T17:53:56Z</time>
  <course>0.0</course>
  <speed>0.0</speed>
  <fix>3d</fix>
</trkpt>
<trkpt lat="40.0713749" lon="-105.229789">
  <ele>1582.98</ele>
  <time>2026-08-28T17:53:56Z</time>
  <course>247.47</course>
  <speed>0.01</speed>
  <fix>3d</fix>
</trkpt>
<trkpt lat="40.0713749" lon="-105.229789">
  <ele>1583.0</ele>
  <time>2026-08-28T17:53:56Z</time>
  <course>0.0</course>
  <speed>0.0</speed>
  <fix>3d</fix>
</trkpt>
<trkpt lat="40.0713749" lon="-105.229789">
  <ele>1582.98</ele>
  <time>2026-08-28T17:53:56Z</time>
  <course>247.46</course>
  <speed>0.01</speed>
  <fix>3d</fix>
</trkpt>
<trkpt lat="40.0713749" lon="-105.229789">
  <ele>1583.0</ele>
  <time>2026-08-28T17:53:56Z</time>
  <course>0.0</course>
  <speed>0.0</speed>
  <fix>3d</fix>
</trkpt>
<trkpt lat="40.0713749" lon="-105.229789">
  <ele>1582.98</ele>
  <time>2026-08-28T17:53:56Z</time>
  <course>247.46</course>
  <speed>0.01</speed>
  <fix>3d</fix>
</trkpt>
<trkpt lat="40.0713749" lon="-105.229789">
  <ele>1583.0</ele>
  <time>2026-08-28T17:53:56Z</time>
  <course>0.0</course>
  <speed>0.0</speed>
  <fix>3d</fix>
</trkpt>
<trkpt lat="40.0713749" lon="-105.229789">
  <ele>1582.98</ele>
  <time>2026-08-28T17:53:56Z</time>
  <course>247.46</course>
  <speed>0.01</speed>
  <fix>3d</fix>
</trkpt>
<trkpt lat="40.0713749" lon="-105.229789">
  <ele>1583.0</ele>
  <time>2026-08-28T17:53:56Z</time>
  <course>0.0</course>
  <speed>0.0</speed>
  <fix>3d</fix>
</trkpt>
<trkpt lat="40.0713749" lon="-105.229789">
  <ele>1582.98</ele>
  <time>2026-08-28T17:53:56Z</time>
  <course>247.46</course>
  <speed>0.01</speed>
  <fix>3d</fix>
</trkpt>
<trkpt lat="40.0713749" lon="-105.229789">
  <ele>1583.0</ele>
  <time>2026-08-28T17:53:56Z</time>
  <course>0.0</course>
  <speed>0.0</speed>
  <fix>3d</fix>
</trkpt>
<trkpt lat="40.0713749" lon="-105.229789">
  <ele>1582.98</ele>
  <time>2026-08-28T17:53:56Z</time>
  <course>247.46</course>
  <speed>0.01</speed>
  <fix>3d</fix>
</trkpt>
<trkpt lat="40.0713749" lon="-105.229789">
  <ele>1583.0</ele>
  <time>2026-08-28T17:53:56Z</time>
  <course>0.0</course>
  <speed>0.0</speed>
  <fix>3d</fix>
</trkpt>
<trkpt lat="40.0713749" lon="-105.229789">
  <ele>1582.98</ele>
  <time>2026-08-28T17:53:56Z</time>
  <course>247.46</course>
  <speed>0.01</speed>
  <fix>3d</fix>
</trkpt>
<trkpt lat="40.0713749" lon="-105.229789">
  <ele>1583.0</ele>
  <time>2026-08-28T17:53:56Z</time>
  <course>0.0</course>
  <speed>0.0</speed>
  <fix>3d</fix>
</trkpt>
<trkpt lat="40.0713749" lon="-105.229789">
  <ele>1582.98</ele>
  <time>2026-08-28T17:53:56Z</time>
  <course>247.45</course>
  <speed>0.01</speed>
  <fix>3d</fix>
</trkpt>
<trkpt lat="40.0713749" lon="-105.229789">
  <ele>1583.0</ele>
  <time>2026-08-28T17:53:56Z</time>
  <course>0.0</course>
  <speed>0.0</speed>
  <fix>3d</fix>
</trkpt>
<trkpt lat="40.0713749" lon="-105.229789">
  <ele>1582.98</ele>
  <time>2026-08-28T17:53:56Z</time>
  <course>247.45</course>
  <speed>0.01</speed>
  <fix>3d</fix>
</trkpt>
<trkpt lat="40.0713749" lon="-105.229789">
  <ele>1583.0</ele>
  <time>2026-08-28T17:53:56Z</time>
  <course>0.0</course>
  <speed>0.0</speed>
  <fix>3d</fix>
</trkpt>
<trkpt lat="40.0713749" lon="-105.229789">
  <ele>1582.98</ele>
  <time>2026-08-28T17:53:56Z</time>
  <course>247.45</course>
  <speed>0.01</speed>
  <fix>3d</fix>
</trkpt>
<trkpt lat="40.0713749" lon="-105.229789">
  <ele>1583.0</ele>
  <time>2026-08-28T17:53:56Z</time>
  <course>0.0</course>
  <speed>0.0</speed>
  <fix>3d</fix>
</trkpt>
<trkpt lat="40.0713749" lon="-105.229789">
  <ele>1582.98</ele>
  <time>2026-08-28T17:53:56Z</time>
  <course>247.45</course>
  <speed>0.01</speed>
  <fix>3d</fix>
</trkpt>
<trkpt lat="40.0713749" lon="-105.229789">
  <ele>1583.0</ele>
  <time>2026-08-28T17:53:56Z</time>
  <course>0.0</course>
  <speed>0.0</speed>
  <fix>3d</fix>
</trkpt>
<trkpt lat="40.0713749" lon="-105.229789">
  <ele>1582.98</ele>
  <time>2026-08-28T17:53:56Z</time>
  <course>247.45</course>
  <speed>0.01</speed>
  <fix>3d</fix>
</trkpt>
<trkpt lat="40.0713749" lon="-105.229789">
  <ele>1583.0</ele>
  <time>2026-08-28T17:53:56Z</time>
  <course>0.0</course>
  <speed>0.0</speed>
  <fix>3d</fix>
</trkpt>
<trkpt lat="40.0713749" lon="-105.229789">
  <ele>1582.99</ele>
  <time>2026-08-28T17:53:56Z</time>
  <course>247.45</course>
  <speed>0.01</speed>
  <fix>3d</fix>
</trkpt>
<trkpt lat="40.0713749" lon="-105.229789">
  <ele>1583.0</ele>
  <time>2026-08-28T17:53:56Z</time>
  <course>0.0</course>
  <speed>0.0</speed>
  <fix>3d</fix>
</trkpt>
<trkpt lat="40.0713749" lon="-105.229789">
  <ele>1582.99</ele>
  <time>2026-08-28T17:53:56Z</time>
  <course>247.44</course>
  <speed>0.01</speed>
  <fix>3d</fix>
</trkpt>
<trkpt lat="40.0713749" lon="-105.229789">
  <ele>1583.0</ele>
  <time>2026-08-28T17:53:56Z</time>
  <course>0.0</course>
  <speed>0.0</speed>
  <fix>3d</fix>
</trkpt>
<trkpt lat="40.0713749" lon="-105.229789">
  <ele>1582.99</ele>
  <time>2026-08-28T17:53:56Z</time>
  <course>247.44</course>
  <speed>0.01</speed>
  <fix>3d</fix>
</trkpt>
<trkpt lat="40.0713749" lon="-105.229789">
  <ele>1583.0</ele>
  <time>2026-08-28T17:53:56Z</time>
  <course>0.0</course>
  <speed>0.0</speed>
  <fix>3d</fix>
</trkpt>
<trkpt lat="40.0713749" lon="-105.229789">
  <ele>1582.99</ele>
  <time>2026-08-28T17:53:56Z</time>
  <course>247.44</course>
  <speed>0.01</speed>
  <fix>3d</fix>
</trkpt>
<trkpt lat="40.0713749" lon="-105.229789">
  <ele>1583.0</ele>
  <time>2026-08-28T17:53:56Z</time>
  <course>0.0</course>
  <speed>0.0</speed>
  <fix>3d</fix>
</trkpt>
<trkpt lat="40.0713749" lon="-105.229789">
  <ele>1583.0</ele>
  <time>2026-08-28T17:53:56Z</time>
  <course>247.44</course>
  <speed>0.01</speed>
  <fix>3d</fix>
</trkpt>
<trkpt lat="40.0713749" lon="-105.229789">
  <ele>1583.0</ele>
  <time>2026-08-28T17:53:56Z</time>
  <course>0.0</course>
  <speed>0.0</speed>
  <fix>3d</fix>
</trkpt>
<trkpt lat="40.071375" lon="-105.229789">
  <ele>1583.0</ele>
  <time>2026-08-28T17:53:56Z</time>
  <course>247.44</course>
  <speed>0.01</speed>
  <fix>3d</fix>
</trkpt>
<trkpt lat="40.0713749" lon="-105.229789">
  <ele>1583.0</ele>
  <time>2026-08-28T17:53:56Z</time>
  <course>0.0</course>
  <speed>0.0</speed>
  <fix>3d</fix>
</trkpt>
<trkpt lat="40.071375" lon="-105.229789">
  <ele>1583.0</ele>
  <time>2026-08-28T17:53:56Z</time>
  <course>247.44</course>
  <speed>0.01</speed>
  <fix>3d</fix>
</trkpt>
<trkpt lat="40.0713749" lon="-105.229789">
  <ele>1583.0</ele>
  <time>2026-08-28T17:53:56Z</time>
  <course>0.0</course>
  <speed>0.0</speed>
  <fix>3d</fix>
</trkpt>
<trkpt lat="40.071375" lon="-105.229789">
  <ele>1583.0</ele>
  <time>2026-08-28T17:53:56Z</time>
  <course>247.44</course>
  <speed>0.01</speed>
  <fix>3d</fix>
</trkpt>
<trkpt lat="40.0713749" lon="-105.229789">
  <ele>1583.0</ele>
  <time>2026-08-28T17:53:56Z</time>
  <course>0.0</course>
  <speed>0.0</speed>
  <fix>3d</fix>
</trkpt>
<trkpt lat="40.071375" lon="-105.229789">
  <ele>1583.0</ele>
  <time>2026-08-28T17:53:56Z</time>
  <course>247.43</course>
  <speed>0.01</speed>
  <fix>3d</fix>
</trkpt>
<trkpt lat="40.0713749" lon="-105.229789">
  <ele>1583.0</ele>
  <time>2026-08-28T17:53:56Z</time>
  <course>0.0</course>
  <speed>0.0</speed>
  <fix>3d</fix>
</trkpt>
<trkpt lat="40.071375" lon="-105.229789">
  <ele>1583.0</ele>
  <time>2026-08-28T17:53:56Z</time>
  <course>247.43</course>
  <speed>0.01</speed>
  <fix>3d</fix>
</trkpt>
<trkpt lat="40.0713749" lon="-105.229789">
  <ele>1583.0</ele>
  <time>2026-08-28T17:53:56Z</time>
  <course>0.0</course>
  <speed>0.0</speed>
  <fix>3d</fix>
</trkpt>
<trkpt lat="40.071375" lon="-105.229789">
  <ele>1583.01</ele>
  <time>2026-08-28T17:53:56Z</time>
  <course>247.43</course>
  <speed>0.02</speed>
  <fix>3d</fix>
</trkpt>
<trkpt lat="40.0713749" lon="-105.229789">
  <ele>1583.0</ele>
  <time>2026-08-28T17:53:56Z</time>
  <course>0.0</course>
  <speed>0.0</speed>
  <fix>3d</fix>
</trkpt>
<trkpt lat="40.071375" lon="-105.229789">
  <ele>1583.01</ele>
  <time>2026-08-28T17:53:56Z</time>
  <course>247.43</course>
  <speed>0.02</speed>
  <fix>3d</fix>
</trkpt>
<trkpt lat="40.0713749" lon="-105.229789">
  <ele>1583.0</ele>
  <time>2026-08-28T17:53:56Z</time>
  <course>0.0</course>
  <speed>0.0</speed>
  <fix>3d</fix>
</trkpt>
<trkpt lat="40.071375" lon="-105.229789">
  <ele>1583.0</ele>
  <time>2026-08-28T17:53:56Z</time>
  <course>247.43</course>
  <speed>0.02</speed>
  <fix>3d</fix>
</trkpt>
<trkpt lat="40.0713749" lon="-105.229789">
  <ele>1583.0</ele>
  <time>2026-08-28T17:53:56Z</time>
  <course>0.0</course>
  <speed>0.0</speed>
  <fix>3d</fix>
</trkpt>
<trkpt lat="40.071375" lon="-105.229789">
  <ele>1583.01</ele>
  <time>2026-08-28T17:53:56Z</time>
  <course>247.43</course>
  <speed>0.02</speed>
  <fix>3d</fix>
</trkpt>
<trkpt lat="40.0713749" lon="-105.229789">
  <ele>1583.0</ele>
  <time>2026-08-28T17:53:56Z</time>
  <course>0.0</course>
  <speed>0.0</speed>
  <fix>3d</fix>
</trkpt>
<trkpt lat="40.071375" lon="-105.229789">
  <ele>1583.01</ele>
  <time>2026-08-28T17:53:56Z</time>
  <course>247.43</course>
  <speed>0.02</speed>
  <fix>3d</fix>
</trkpt>
<trkpt lat="40.0713749" lon="-105.229789">
  <ele>1583.0</ele>
  <time>2026-08-28T17:53:56Z</time>
  <course>0.0</course>
  <speed>0.0</speed>
  <fix>3d</fix>
</trkpt>
<trkpt lat="40.071375" lon="-105.229789">
  <ele>1583.01</ele>
  <time>2026-08-28T17:53:56Z</time>
  <course>247.42</course>
  <speed>0.02</speed>
  <fix>3d</fix>
</trkpt>
<trkpt lat="40.0713749" lon="-105.229789">
  <ele>1583.0</ele>
  <time>2026-08-28T17:53:56Z</time>
  <course>0.0</course>
  <speed>0.0</speed>
  <fix>3d</fix>
</trkpt>
<trkpt lat="40.071375" lon="-105.229789">
  <ele>1583.01</ele>
  <time>2026-08-28T17:53:56Z</time>
  <course>247.42</course>
  <speed>0.02</speed>
  <fix>3d</fix>
</trkpt>
<trkpt lat="40.0713749" lon="-105.229789">
  <ele>1583.0</ele>
  <time>2026-08-28T17:53:56Z</time>
  <course>0.0</course>
  <speed>0.0</speed>
  <fix>3d</fix>
</trkpt>
<trkpt lat="40.071375" lon="-105.229789">
  <ele>1583.01</ele>
  <time>2026-08-28T17:53:56Z</time>
  <course>247.42</course>
  <speed>0.02</speed>
  <fix>3d</fix>
</trkpt>
<trkpt lat="40.0713749" lon="-105.229789">
  <ele>1583.0</ele>
  <time>2026-08-28T17:53:56Z</time>
  <course>0.0</course>
  <speed>0.0</speed>
  <fix>3d</fix>
</trkpt>
<trkpt lat="40.071375" lon="-105.229789">
  <ele>1583.01</ele>
  <time>2026-08-28T17:53:56Z</time>
  <course>247.42</course>
  <speed>0.02</speed>
  <fix>3d</fix>
</trkpt>
<trkpt lat="40.0713749" lon="-105.229789">
  <ele>1583.0</ele>
  <time>2026-08-28T17:53:56Z</time>
  <course>0.0</course>
  <speed>0.0</speed>
  <fix>3d</fix>
</trkpt>
<trkpt lat="40.071375" lon="-105.229789">
  <ele>1583.0</ele>
  <time>2026-08-28T17:53:56Z</time>
  <course>247.42</course>
  <speed>0.02</speed>
  <fix>3d</fix>
</trkpt>
<trkpt lat="40.0713749" lon="-105.229789">
  <ele>1583.0</ele>
  <time>2026-08-28T17:53:56Z</time>
  <course>0.0</course>
  <speed>0.0</speed>
  <fix>3d</fix>
</trkpt>
<trkpt lat="40.071375" lon="-105.229789">
  <ele>1583.0</ele>
  <time>2026-08-28T17:53:56Z</time>
  <course>247.42</course>
  <speed>0.02</speed>
  <fix>3d</fix>
</trkpt>
<trkpt lat="40.0713749" lon="-105.229789">
  <ele>1583.0</ele>
  <time>2026-08-28T17:53:56Z</time>
  <course>0.0</course>
  <speed>0.0</speed>
  <fix>3d</fix>
</trkpt>
<trkpt lat="40.071375" lon="-105.229789">
  <ele>1583.0</ele>
  <time>2026-08-28T17:53:56Z</time>
  <course>247.42</course>
  <speed>0.022360679774997897</speed>
  <fix>3d</fix>
</trkpt>
<trkpt lat="40.0713749" lon="-105.229789">
  <ele>1583.0</ele>
  <time>2026-08-28T17:53:56Z</time>
  <course>0.0</course>
  <speed>0.0</speed>
  <fix>3d</fix>
</trkpt>
<trkpt lat="40.071375" lon="-105.229789">
  <ele>1583.0</ele>
  <time>2026-08-28T17:53:56Z</time>
  <course>247.42</course>
  <speed>0.022360679774997897</speed>
  <fix>3d</fix>
</trkpt>
<trkpt lat="40.0713749" lon="-105.229789">
  <ele>1583.0</ele>
  <time>2026-08-28T17:53:56Z</time>
  <course>0.0</course>
  <speed>0.0</speed>
  <fix>3d</fix>
</trkpt>
<trkpt lat="40.071375" lon="-105.229789">
  <ele>1583.0</ele>
  <time>2026-08-28T17:53:56Z</time>
  <course>247.41</course>
  <speed>0.022360679774997897</speed>
  <fix>3d</fix>
</trkpt>
<trkpt lat="40.0713749" lon="-105.229789">
  <ele>1583.0</ele>
  <time>2026-08-28T17:53:56Z</time>
  <course>0.0</course>
  <speed>0.0</speed>
  <fix>3d</fix>
</trkpt>
<trkpt lat="40.071375" lon="-105.229789">
  <ele>1583.0</ele>
  <time>2026-08-28T17:53:56Z</time>
  <course>247.41</course>
  <speed>0.022360679774997897</speed>
  <fix>3d</fix>
</trkpt>
<trkpt lat="40.0713749" lon="-105.229789">
  <ele>1583.0</ele>
  <time>2026-08-28T17:53:56Z</time>
  <course>0.0</course>
  <speed>0.0</speed>
  <fix>3d</fix>
</trkpt>
<trkpt lat="40.071375" lon="-105.229789">
  <ele>1583.01</ele>
  <time>2026-08-28T17:53:56Z</time>
  <course>247.41</course>
  <speed>0.022360679774997897</speed>
  <fix>3d</fix>
</trkpt>
<trkpt lat="40.0713749" lon="-105.229789">
  <ele>1583.0</ele>
  <time>2026-08-28T17:53:56Z</time>
  <course>0.0</course>
  <speed>0.0</speed>
  <fix>3d</fix>
</trkpt>
<trkpt lat="40.071375" lon="-105.229789">
  <ele>1583.01</ele>
  <time>2026-08-28T17:53:56Z</time>
  <course>247.41</course>
  <speed>0.022360679774997897</speed>
  <fix>3d</fix>
</trkpt>
<trkpt lat="40.0713749" lon="-105.229789">
  <ele>1583.0</ele>
  <time>2026-08-28T17:53:56Z</time>
  <course>0.0</course>
  <speed>0.0</speed>
  <fix>3d</fix>
</trkpt>
<trkpt lat="40.071375" lon="-105.229789">
  <ele>1583.01</ele>
  <time>2026-08-28T17:53:56Z</time>
  <course>247.41</course>
  <speed>0.022360679774997897</speed>
  <fix>3d</fix>
</trkpt>
<trkpt lat="40.0713749" lon="-105.229789">
  <ele>1583.0</ele>
  <time>2026-08-28T17:53:56Z</time>
  <course>0.0</course>
  <speed>0.0</speed>
  <fix>3d</fix>
</trkpt>
<trkpt lat="40.071375" lon="-105.229789">
  <ele>1583.01</ele>
  <time>2026-08-28T17:53:56Z</time>
  <course>247.41</course>
  <speed>0.022360679774997897</speed>
  <fix>3d</fix>
</trkpt>
<trkpt lat="40.0713749" lon="-105.229789">
  <ele>1583.0</ele>
  <time>2026-08-28T17:53:56Z</time>
  <course>0.0</course>
  <speed>0.0</speed>
  <fix>3d</fix>
</trkpt>
<trkpt lat="40.071375" lon="-105.2297889">
  <ele>1583.01</ele>
  <time>2026-08-28T17:53:56Z</time>
  <course>247.41</course>
  <speed>0.022360679774997897</speed>
  <fix>3d</fix>
</trkpt>
<trkpt lat="40.0713749" lon="-105.229789">
  <ele>1583.0</ele>
  <time>2026-08-28T17:53:56Z</time>
  <course>0.0</course>
  <speed>0.0</speed>
  <fix>3d</fix>
</trkpt>
<trkpt lat="40.071375" lon="-105.2297889">
  <ele>1583.01</ele>
  <time>2026-08-28T17:53:56Z</time>
  <course>247.41</course>
  <speed>0.022360679774997897</speed>
  <fix>3d</fix>
</trkpt>
<trkpt lat="40.0713749" lon="-105.229789">
  <ele>1583.0</ele>
  <time>2026-08-28T17:53:56Z</time>
  <course>0.0</course>
  <speed>0.0</speed>
  <fix>3d</fix>
</trkpt>
<trkpt lat="40.071375" lon="-105.2297889">
  <ele>1583.01</ele>
  <time>2026-08-28T17:53:56Z</time>
  <course>247.41</course>
  <speed>0.022360679774997897</speed>
  <fix>3d</fix>
</trkpt>
<trkpt lat="40.0713749" lon="-105.229789">
  <ele>1583.0</ele>
  <time>2026-08-28T17:53:56Z</time>
  <course>0.0</course>
  <speed>0.0</speed>
  <fix>3d</fix>
</trkpt>
<trkpt lat="40.071375" lon="-105.2297889">
  <ele>1583.02</ele>
  <time>2026-08-28T17:53:56Z</time>
  <course>247.4</course>
  <speed>0.022360679774997897</speed>
  <fix>3d</fix>
</trkpt>
<trkpt lat="40.0713749" lon="-105.229789">
  <ele>1583.0</ele>
  <time>2026-08-28T17:53:56Z</time>
  <course>0.0</course>
  <speed>0.0</speed>
  <fix>3d</fix>
</trkpt>
<trkpt lat="40.0713751" lon="-105.2297889">
  <ele>1583.02</ele>
  <time>2026-08-28T17:53:56Z</time>
  <course>247.4</course>
  <speed>0.022360679774997897</speed>
  <fix>3d</fix>
</trkpt>
<trkpt lat="40.0713749" lon="-105.229789">
  <ele>1583.0</ele>
  <time>2026-08-28T17:53:56Z</time>
  <course>0.0</course>
  <speed>0.0</speed>
  <fix>3d</fix>
</trkpt>
<trkpt lat="40.0713751" lon="-105.2297889">
  <ele>1583.02</ele>
  <time>2026-08-28T17:53:56Z</time>
  <course>247.4</course>
  <speed>0.022360679774997897</speed>
  <fix>3d</fix>
</trkpt>
<trkpt lat="40.0713749" lon="-105.229789">
  <ele>1583.0</ele>
  <time>2026-08-28T17:53:56Z</time>
  <course>0.0</course>
  <speed>0.0</speed>
  <fix>3d</fix>
</trkpt>
<trkpt lat="40.0713751" lon="-105.2297889">
  <ele>1583.02</ele>
  <time>2026-08-28T17:53:56Z</time>
  <course>247.4</course>
  <speed>0.022360679774997897</speed>
  <fix>3d</fix>
</trkpt>
<trkpt lat="40.0713749" lon="-105.229789">
  <ele>1583.0</ele>
  <time>2026-08-28T17:53:56Z</time>
  <course>0.0</course>
  <speed>0.0</speed>
  <fix>3d</fix>
</trkpt>
<trkpt lat="40.0713751" lon="-105.2297889">
  <ele>1583.02</ele>
  <time>2026-08-28T17:53:56Z</time>
  <course>247.4</course>
  <speed>0.022360679774997897</speed>
  <fix>3d</fix>
</trkpt>
<trkpt lat="40.0713749" lon="-105.229789">
  <ele>1583.0</ele>
  <time>2026-08-28T17:53:56Z</time>
  <course>0.0</course>
  <speed>0.0</speed>
  <fix>3d</fix>
</trkpt>
<trkpt lat="40.0713751" lon="-105.2297889">
  <ele>1583.02</ele>
  <time>2026-08-28T17:53:56Z</time>
  <course>247.4</course>
  <speed>0.022360679774997897</speed>
  <fix>3d</fix>
</trkpt>
<trkpt lat="40.0713749" lon="-105.229789">
  <ele>1583.0</ele>
  <time>2026-08-28T17:53:56Z</time>
  <course>0.0</course>
  <speed>0.0</speed>
  <fix>3d</fix>
</trkpt>
<trkpt lat="40.0713751" lon="-105.2297889">
  <ele>1583.02</ele>
  <time>2026-08-28T17:53:56Z</time>
  <course>247.4</course>
  <speed>0.022360679774997897</speed>
  <fix>3d</fix>
</trkpt>
<trkpt lat="40.0713749" lon="-105.229789">
  <ele>1583.0</ele>
  <time>2026-08-28T17:53:56Z</time>
  <course>0.0</course>
  <speed>0.0</speed>
  <fix>3d</fix>
</trkpt>
<trkpt lat="40.0713751" lon="-105.2297889">
  <ele>1583.02</ele>
  <time>2026-08-28T17:53:56Z</time>
  <course>247.4</course>
  <speed>0.022360679774997897</speed>
  <fix>3d</fix>
</trkpt>
<trkpt lat="40.0713749" lon="-105.229789">
  <ele>1583.0</ele>
  <time>2026-08-28T17:53:56Z</time>
  <course>0.0</course>
  <speed>0.0</speed>
  <fix>3d</fix>
</trkpt>
<trkpt lat="40.0713751" lon="-105.2297889">
  <ele>1583.02</ele>
  <time>2026-08-28T17:53:56Z</time>
  <course>247.39</course>
  <speed>0.022360679774997897</speed>
  <fix>3d</fix>
</trkpt>
<trkpt lat="40.0713749" lon="-105.229789">
  <ele>1583.0</ele>
  <time>2026-08-28T17:53:56Z</time>
  <course>0.0</course>
  <speed>0.0</speed>
  <fix>3d</fix>
</trkpt>
<trkpt lat="40.0713751" lon="-105.2297889">
  <ele>1583.02</ele>
  <time>2026-08-28T17:53:56Z</time>
  <course>247.39</course>
  <speed>0.022360679774997897</speed>
  <fix>3d</fix>
</trkpt>
<trkpt lat="40.0713749" lon="-105.229789">
  <ele>1583.0</ele>
  <time>2026-08-28T17:53:56Z</time>
  <course>0.0</course>
  <speed>0.0</speed>
  <fix>3d</fix>
</trkpt>
<trkpt lat="40.0713751" lon="-105.2297889">
  <ele>1583.02</ele>
  <time>2026-08-28T17:53:56Z</time>
  <course>247.39</course>
  <speed>0.022360679774997897</speed>
  <fix>3d</fix>
</trkpt>
<trkpt lat="40.0713749" lon="-105.229789">
  <ele>1583.0</ele>
  <time>2026-08-28T17:53:56Z</time>
  <course>0.0</course>
  <speed>0.0</speed>
  <fix>3d</fix>
</trkpt>
<trkpt lat="40.0713751" lon="-105.2297889">
  <ele>1583.02</ele>
  <time>2026-08-28T17:53:56Z</time>
  <course>247.39</course>
  <speed>0.022360679774997897</speed>
  <fix>3d</fix>
</trkpt>
<trkpt lat="40.0713749" lon="-105.229789">
  <ele>1583.0</ele>
  <time>2026-08-28T17:53:56Z</time>
  <course>0.0</course>
  <speed>0.0</speed>
  <fix>3d</fix>
</trkpt>
<trkpt lat="40.0713751" lon="-105.2297889">
  <ele>1583.03</ele>
  <time>2026-08-28T17:53:56Z</time>
  <course>247.39</course>
  <speed>0.022360679774997897</speed>
  <fix>3d</fix>
</trkpt>
<trkpt lat="40.0713749" lon="-105.229789">
  <ele>1583.0</ele>
  <time>2026-08-28T17:53:56Z</time>
  <course>0.0</course>
  <speed>0.0</speed>
  <fix>3d</fix>
</trkpt>
<trkpt lat="40.0713751" lon="-105.2297889">
  <ele>1583.03</ele>
  <time>2026-08-28T17:53:56Z</time>
  <course>247.39</course>
  <speed>0.022360679774997897</speed>
  <fix>3d</fix>
</trkpt>
<trkpt lat="40.0713749" lon="-105.229789">
  <ele>1583.0</ele>
  <time>2026-08-28T17:53:56Z</time>
  <course>0.0</course>
  <speed>0.0</speed>
  <fix>3d</fix>
</trkpt>
<trkpt lat="40.0713751" lon="-105.2297889">
  <ele>1583.03</ele>
  <time>2026-08-28T17:53:56Z</time>
  <course>247.39</course>
  <speed>0.022360679774997897</speed>
  <fix>3d</fix>
</trkpt>
<trkpt lat="40.0713749" lon="-105.229789">
  <ele>1583.0</ele>
  <time>2026-08-28T17:53:56Z</time>
  <course>0.0</course>
  <speed>0.0</speed>
  <fix>3d</fix>
</trkpt>
<trkpt lat="40.0713751" lon="-105.2297889">
  <ele>1583.03</ele>
  <time>2026-08-28T17:53:56Z</time>
  <course>247.39</course>
  <speed>0.022360679774997897</speed>
  <fix>3d</fix>
</trkpt>
<trkpt lat="40.0713749" lon="-105.229789">
  <ele>1583.0</ele>
  <time>2026-08-28T17:53:56Z</time>
  <course>0.0</course>
  <speed>0.0</speed>
  <fix>3d</fix>
</trkpt>
<trkpt lat="40.0713751" lon="-105.2297889">
  <ele>1583.03</ele>
  <time>2026-08-28T17:53:56Z</time>
  <course>247.39</course>
  <speed>0.022360679774997897</speed>
  <fix>3d</fix>
</trkpt>
<trkpt lat="40.0713749" lon="-105.229789">
  <ele>1583.0</ele>
  <time>2026-08-28T17:53:56Z</time>
  <course>0.0</course>
  <speed>0.0</speed>
  <fix>3d</fix>
</trkpt>
<trkpt lat="40.0713751" lon="-105.2297889">
  <ele>1583.03</ele>
  <time>2026-08-28T17:53:56Z</time>
  <course>247.38</course>
  <speed>0.022360679774997897</speed>
  <fix>3d</fix>
</trkpt>
<trkpt lat="40.0713749" lon="-105.229789">
  <ele>1583.0</ele>
  <time>2026-08-28T17:53:56Z</time>
  <course>0.0</course>
  <speed>0.0</speed>
  <fix>3d</fix>
</trkpt>
<trkpt lat="40.0713751" lon="-105.2297889">
  <ele>1583.03</ele>
  <time>2026-08-28T17:53:56Z</time>
  <course>247.38</course>
  <speed>0.022360679774997897</speed>
  <fix>3d</fix>
</trkpt>
<trkpt lat="40.0713749" lon="-105.229789">
  <ele>1583.0</ele>
  <time>2026-08-28T17:53:56Z</time>
  <course>0.0</course>
  <speed>0.0</speed>
  <fix>3d</fix>
</trkpt>
<trkpt lat="40.0713751" lon="-105.2297889">
  <ele>1583.03</ele>
  <time>2026-08-28T17:53:56Z</time>
  <course>247.38</course>
  <speed>0.022360679774997897</speed>
  <fix>3d</fix>
</trkpt>
<trkpt lat="40.0713749" lon="-105.229789">
  <ele>1583.0</ele>
  <time>2026-08-28T17:53:56Z</time>
  <course>0.0</course>
  <speed>0.0</speed>
  <fix>3d</fix>
</trkpt>
<trkpt lat="40.0713751" lon="-105.2297889">
  <ele>1583.03</ele>
  <time>2026-08-28T17:53:56Z</time>
  <course>247.38</course>
  <speed>0.022360679774997897</speed>
  <fix>3d</fix>
</trkpt>
<trkpt lat="40.0713749" lon="-105.229789">
  <ele>1583.0</ele>
  <time>2026-08-28T17:53:56Z</time>
  <course>0.0</course>
  <speed>0.0</speed>
  <fix>3d</fix>
</trkpt>
<trkpt lat="40.0713751" lon="-105.2297889">
  <ele>1583.03</ele>
  <time>2026-08-28T17:53:56Z</time>
  <course>247.38</course>
  <speed>0.022360679774997897</speed>
  <fix>3d</fix>
</trkpt>
<trkpt lat="40.0713749" lon="-105.229789">
  <ele>1583.0</ele>
  <time>2026-08-28T17:53:56Z</time>
  <course>0.0</course>
  <speed>0.0</speed>
  <fix>3d</fix>
</trkpt>
<trkpt lat="40.0713751" lon="-105.2297889">
  <ele>1583.03</ele>
  <time>2026-08-28T17:53:56Z</time>
  <course>247.38</course>
  <speed>0.022360679774997897</speed>
  <fix>3d</fix>
</trkpt>
<trkpt lat="40.0713749" lon="-105.229789">
  <ele>1583.0</ele>
  <time>2026-08-28T17:53:56Z</time>
  <course>0.0</course>
  <speed>0.0</speed>
  <fix>3d</fix>
</trkpt>
<trkpt lat="40.0713751" lon="-105.2297889">
  <ele>1583.04</ele>
  <time>2026-08-28T17:53:56Z</time>
  <course>247.38</course>
  <speed>0.022360679774997897</speed>
  <fix>3d</fix>
</trkpt>
<trkpt lat="40.0713749" lon="-105.229789">
  <ele>1583.0</ele>
  <time>2026-08-28T17:53:56Z</time>
  <course>0.0</course>
  <speed>0.0</speed>
  <fix>3d</fix>
</trkpt>
<trkpt lat="40.0713751" lon="-105.2297889">
  <ele>1583.04</ele>
  <time>2026-08-28T17:53:56Z</time>
  <course>247.38</course>
  <speed>0.022360679774997897</speed>
  <fix>3d</fix>
</trkpt>
<trkpt lat="40.0713749" lon="-105.229789">
  <ele>1583.0</ele>
  <time>2026-08-28T17:53:56Z</time>
  <course>0.0</course>
  <speed>0.0</speed>
  <fix>3d</fix>
</trkpt>
<trkpt lat="40.0713751" lon="-105.2297889">
  <ele>1583.04</ele>
  <time>2026-08-28T17:53:56Z</time>
  <course>247.37</course>
  <speed>0.022360679774997897</speed>
  <fix>3d</fix>
</trkpt>
<trkpt lat="40.0713749" lon="-105.229789">
  <ele>1583.0</ele>
  <time>2026-08-28T17:53:56Z</time>
  <course>0.0</course>
  <speed>0.0</speed>
  <fix>3d</fix>
</trkpt>
<trkpt lat="40.0713751" lon="-105.2297889">
  <ele>1583.05</ele>
  <time>2026-08-28T17:53:56Z</time>
  <course>247.37</course>
  <speed>0.022360679774997897</speed>
  <fix>3d</fix>
</trkpt>
<trkpt lat="40.0713749" lon="-105.229789">
  <ele>1583.0</ele>
  <time>2026-08-28T17:53:56Z</time>
  <course>0.0</course>
  <speed>0.0</speed>
  <fix>3d</fix>
</trkpt>
<trkpt lat="40.0713751" lon="-105.2297889">
  <ele>1583.05</ele>
  <time>2026-08-28T17:53:56Z</time>
  <course>247.37</course>
  <speed>0.022360679774997897</speed>
  <fix>3d</fix>
</trkpt>
<trkpt lat="40.0713749" lon="-105.229789">
  <ele>1583.0</ele>
  <time>2026-08-28T17:53:56Z</time>
  <course>0.0</course>
  <speed>0.0</speed>
  <fix>3d</fix>
</trkpt>
<trkpt lat="40.0713751" lon="-105.2297889">
  <ele>1583.05</ele>
  <time>2026-08-28T17:53:56Z</time>
  <course>247.37</course>
  <speed>0.022360679774997897</speed>
  <fix>3d</fix>
</trkpt>
<trkpt lat="40.0713749" lon="-105.229789">
  <ele>1583.0</ele>
  <time>2026-08-28T17:53:56Z</time>
  <course>0.0</course>
  <speed>0.0</speed>
  <fix>3d</fix>
</trkpt>
<trkpt lat="40.0713751" lon="-105.2297889">
  <ele>1583.05</ele>
  <time>2026-08-28T17:53:56Z</time>
  <course>247.37</course>
  <speed>0.022360679774997897</speed>
  <fix>3d</fix>
</trkpt>
<trkpt lat="40.0713749" lon="-105.229789">
  <ele>1583.0</ele>
  <time>2026-08-28T17:53:56Z</time>
  <course>0.0</course>
  <speed>0.0</speed>
  <fix>3d</fix>
</trkpt>
<trkpt lat="40.0713751" lon="-105.2297889">
  <ele>1583.05</ele>
  <time>2026-08-28T17:53:56Z</time>
  <course>247.37</course>
  <speed>0.022360679774997897</speed>
  <fix>3d</fix>
</trkpt>
<trkpt lat="40.0713749" lon="-105.229789">
  <ele>1583.0</ele>
  <time>2026-08-28T17:53:56Z</time>
  <course>0.0</course>
  <speed>0.0</speed>
  <fix>3d</fix>
</trkpt>
<trkpt lat="40.0713751" lon="-105.2297889">
  <ele>1583.06</ele>
  <time>2026-08-28T17:53:56Z</time>
  <course>247.37</course>
  <speed>0.022360679774997897</speed>
  <fix>3d</fix>
</trkpt>
<trkpt lat="40.0713749" lon="-105.229789">
  <ele>1583.0</ele>
  <time>2026-08-28T17:53:56Z</time>
  <course>0.0</course>
  <speed>0.0</speed>
  <fix>3d</fix>
</trkpt>
<trkpt lat="40.0713751" lon="-105.2297889">
  <ele>1583.06</ele>
  <time>2026-08-28T17:53:56Z</time>
  <course>247.37</course>
  <speed>0.022360679774997897</speed>
  <fix>3d</fix>
</trkpt>
<trkpt lat="40.0713749" lon="-105.229789">
  <ele>1583.0</ele>
  <time>2026-08-28T17:53:56Z</time>
  <course>0.0</course>
  <speed>0.0</speed>
  <fix>3d</fix>
</trkpt>
<trkpt lat="40.0713751" lon="-105.2297889">
  <ele>1583.06</ele>
  <time>2026-08-28T17:53:56Z</time>
  <course>247.37</course>
  <speed>0.022360679774997897</speed>
  <fix>3d</fix>
</trkpt>
<trkpt lat="40.0713749" lon="-105.229789">
  <ele>1583.0</ele>
  <time>2026-08-28T17:53:56Z</time>
  <course>0.0</course>
  <speed>0.0</speed>
  <fix>3d</fix>
</trkpt>
<trkpt lat="40.0713751" lon="-105.2297889">
  <ele>1583.06</ele>
  <time>2026-08-28T17:53:56Z</time>
  <course>247.36</course>
  <speed>0.022360679774997897</speed>
  <fix>3d</fix>
</trkpt>
<trkpt lat="40.0713749" lon="-105.229789">
  <ele>1583.0</ele>
  <time>2026-08-28T17:53:56Z</time>
  <course>0.0</course>
  <speed>0.0</speed>
  <fix>3d</fix>
</trkpt>
<trkpt lat="40.0713751" lon="-105.2297889">
  <ele>1583.06</ele>
  <time>2026-08-28T17:53:56Z</time>
  <course>247.36</course>
  <speed>0.022360679774997897</speed>
  <fix>3d</fix>
</trkpt>
<trkpt lat="40.0713749" lon="-105.229789">
  <ele>1583.0</ele>
  <time>2026-08-28T17:53:56Z</time>
  <course>0.0</course>
  <speed>0.0</speed>
  <fix>3d</fix>
</trkpt>
<trkpt lat="40.0713751" lon="-105.2297889">
  <ele>1583.06</ele>
  <time>2026-08-28T17:53:56Z</time>
  <course>247.36</course>
  <speed>0.022360679774997897</speed>
  <fix>3d</fix>
</trkpt>
<trkpt lat="40.0713749" lon="-105.229789">
  <ele>1583.0</ele>
  <time>2026-08-28T17:53:56Z</time>
  <course>0.0</course>
  <speed>0.0</speed>
  <fix>3d</fix>
</trkpt>
<trkpt lat="40.0713751" lon="-105.2297889">
  <ele>1583.06</ele>
  <time>2026-08-28T17:53:56Z</time>
  <course>247.36</course>
  <speed>0.022360679774997897</speed>
  <fix>3d</fix>
</trkpt>
<trkpt lat="40.0713749" lon="-105.229789">
  <ele>1583.0</ele>
  <time>2026-08-28T17:53:56Z</time>
  <course>0.0</course>
  <speed>0.0</speed>
  <fix>3d</fix>
</trkpt>
<trkpt lat="40.0713751" lon="-105.2297889">
  <ele>1583.06</ele>
  <time>2026-08-28T17:53:56Z</time>
  <course>247.36</course>
  <speed>0.022360679774997897</speed>
  <fix>3d</fix>
</trkpt>
<trkpt lat="40.0713749" lon="-105.229789">
  <ele>1583.0</ele>
  <time>2026-08-28T17:53:56Z</time>
  <course>0.0</course>
  <speed>0.0</speed>
  <fix>3d</fix>
</trkpt>
<trkpt lat="40.0713751" lon="-105.2297889">
  <ele>1583.06</ele>
  <time>2026-08-28T17:53:56Z</time>
  <course>247.36</course>
  <speed>0.022360679774997897</speed>
  <fix>3d</fix>
</trkpt>
<trkpt lat="40.0713749" lon="-105.229789">
  <ele>1583.0</ele>
  <time>2026-08-28T17:53:56Z</time>
  <course>0.0</course>
  <speed>0.0</speed>
  <fix>3d</fix>
</trkpt>
<trkpt lat="40.0713751" lon="-105.2297889">
  <ele>1583.05</ele>
  <time>2026-08-28T17:53:56Z</time>
  <course>247.36</course>
  <speed>0.022360679774997897</speed>
  <fix>3d</fix>
</trkpt>
<trkpt lat="40.0713749" lon="-105.229789">
  <ele>1583.0</ele>
  <time>2026-08-28T17:53:56Z</time>
  <course>0.0</course>
  <speed>0.0</speed>
  <fix>3d</fix>
</trkpt>
<trkpt lat="40.0713751" lon="-105.2297889">
  <ele>1583.05</ele>
  <time>2026-08-28T17:53:56Z</time>
  <course>247.36</course>
  <speed>0.022360679774997897</speed>
  <fix>3d</fix>
</trkpt>
<trkpt lat="40.0713749" lon="-105.229789">
  <ele>1583.0</ele>
  <time>2026-08-28T17:53:56Z</time>
  <course>0.0</course>
  <speed>0.0</speed>
  <fix>3d</fix>
</trkpt>
<trkpt lat="40.0713751" lon="-105.2297889">
  <ele>1583.05</ele>
  <time>2026-08-28T17:53:56Z</time>
  <course>247.35</course>
  <speed>0.022360679774997897</speed>
  <fix>3d</fix>
</trkpt>
<trkpt lat="40.0713749" lon="-105.229789">
  <ele>1583.0</ele>
  <time>2026-08-28T17:53:56Z</time>
  <course>0.0</course>
  <speed>0.0</speed>
  <fix>3d</fix>
</trkpt>
<trkpt lat="40.0713751" lon="-105.2297889">
  <ele>1583.05</ele>
  <time>2026-08-28T17:53:56Z</time>
  <course>247.35</course>
  <speed>0.022360679774997897</speed>
  <fix>3d</fix>
</trkpt>
<trkpt lat="40.0713749" lon="-105.229789">
  <ele>1583.0</ele>
  <time>2026-08-28T17:53:56Z</time>
  <course>0.0</course>
  <speed>0.0</speed>
  <fix>3d</fix>
</trkpt>
<trkpt lat="40.0713751" lon="-105.2297889">
  <ele>1583.05</ele>
  <time>2026-08-28T17:53:56Z</time>
  <course>247.35</course>
  <speed>0.022360679774997897</speed>
  <fix>3d</fix>
</trkpt>
<trkpt lat="40.0713749" lon="-105.229789">
  <ele>1583.0</ele>
  <time>2026-08-28T17:53:56Z</time>
  <course>0.0</course>
  <speed>0.0</speed>
  <fix>3d</fix>
</trkpt>
<trkpt lat="40.0713751" lon="-105.2297889">
  <ele>1583.05</ele>
  <time>2026-08-28T17:53:56Z</time>
  <course>247.35</course>
  <speed>0.022360679774997897</speed>
  <fix>3d</fix>
</trkpt>
<trkpt lat="40.0713749" lon="-105.229789">
  <ele>1583.0</ele>
  <time>2026-08-28T17:53:56Z</time>
  <course>0.0</course>
  <speed>0.0</speed>
  <fix>3d</fix>
</trkpt>
<trkpt lat="40.0713751" lon="-105.2297889">
  <ele>1583.05</ele>
  <time>2026-08-28T17:53:56Z</time>
  <course>247.35</course>
  <speed>0.022360679774997897</speed>
  <fix>3d</fix>
</trkpt>
<trkpt lat="40.0713749" lon="-105.229789">
  <ele>1583.0</ele>
  <time>2026-08-28T17:53:56Z</time>
  <course>0.0</course>
  <speed>0.0</speed>
  <fix>3d</fix>
</trkpt>
<trkpt lat="40.0713751" lon="-105.2297889">
  <ele>1583.05</ele>
  <time>2026-08-28T17:53:56Z</time>
  <course>247.35</course>
  <speed>0.022360679774997897</speed>
  <fix>3d</fix>
</trkpt>
<trkpt lat="40.0713749" lon="-105.229789">
  <ele>1583.0</ele>
  <time>2026-08-28T17:53:56Z</time>
  <course>0.0</course>
  <speed>0.0</speed>
  <fix>3d</fix>
</trkpt>
<trkpt lat="40.0713751" lon="-105.2297889">
  <ele>1583.05</ele>
  <time>2026-08-28T17:53:56Z</time>
  <course>247.35</course>
  <speed>0.022360679774997897</speed>
  <fix>3d</fix>
</trkpt>
<trkpt lat="40.0713749" lon="-105.229789">
  <ele>1583.0</ele>
  <time>2026-08-28T17:53:56Z</time>
  <course>0.0</course>
  <speed>0.0</speed>
  <fix>3d</fix>
</trkpt>
<trkpt lat="40.0713751" lon="-105.2297889">
  <ele>1583.05</ele>
  <time>2026-08-28T17:53:56Z</time>
  <course>247.35</course>
  <speed>0.022360679774997897</speed>
  <fix>3d</fix>
</trkpt>
<trkpt lat="40.0713749" lon="-105.229789">
  <ele>1583.0</ele>
  <time>2026-08-28T17:53:56Z</time>
  <course>0.0</course>
  <speed>0.0</speed>
  <fix>3d</fix>
</trkpt>
<trkpt lat="40.0713751" lon="-105.2297889">
  <ele>1583.05</ele>
  <time>2026-08-28T17:53:56Z</time>
  <course>247.35</course>
  <speed>0.022360679774997897</speed>
  <fix>3d</fix>
</trkpt>
<trkpt lat="40.0713749" lon="-105.229789">
  <ele>1583.0</ele>
  <time>2026-08-28T17:53:56Z</time>
  <course>0.0</course>
  <speed>0.0</speed>
  <fix>3d</fix>
</trkpt>
<trkpt lat="40.0713751" lon="-105.2297889">
  <ele>1583.05</ele>
  <time>2026-08-28T17:53:56Z</time>
  <course>247.34</course>
  <speed>0.022360679774997897</speed>
  <fix>3d</fix>
</trkpt>
<trkpt lat="40.0713749" lon="-105.229789">
  <ele>1583.0</ele>
  <time>2026-08-28T17:53:56Z</time>
  <course>0.0</course>
  <speed>0.0</speed>
  <fix>3d</fix>
</trkpt>
<trkpt lat="40.0713751" lon="-105.2297889">
  <ele>1583.05</ele>
  <time>2026-08-28T17:53:56Z</time>
  <course>247.34</course>
  <speed>0.022360679774997897</speed>
  <fix>3d</fix>
</trkpt>
<trkpt lat="40.0713749" lon="-105.229789">
  <ele>1583.0</ele>
  <time>2026-08-28T17:53:56Z</time>
  <course>0.0</course>
  <speed>0.0</speed>
  <fix>3d</fix>
</trkpt>
<trkpt lat="40.0713751" lon="-105.2297889">
  <ele>1583.04</ele>
  <time>2026-08-28T17:53:56Z</time>
  <course>247.34</course>
  <speed>0.022360679774997897</speed>
  <fix>3d</fix>
</trkpt>
<trkpt lat="40.0713749" lon="-105.229789">
  <ele>1583.0</ele>
  <time>2026-08-28T17:53:56Z</time>
  <course>0.0</course>
  <speed>0.0</speed>
  <fix>3d</fix>
</trkpt>
<trkpt lat="40.0713751" lon="-105.2297889">
  <ele>1583.04</ele>
  <time>2026-08-28T17:53:56Z</time>
  <course>247.34</course>
  <speed>0.022360679774997897</speed>
  <fix>3d</fix>
</trkpt>
<trkpt lat="40.0713749" lon="-105.229789">
  <ele>1583.0</ele>
  <time>2026-08-28T17:53:56Z</time>
  <course>0.0</course>
  <speed>0.0</speed>
  <fix>3d</fix>
</trkpt>
<trkpt lat="40.0713751" lon="-105.2297889">
  <ele>1583.04</ele>
  <time>2026-08-28T17:53:56Z</time>
  <course>247.34</course>
  <speed>0.022360679774997897</speed>
  <fix>3d</fix>
</trkpt>
<trkpt lat="40.0713749" lon="-105.229789">
  <ele>1583.0</ele>
  <time>2026-08-28T17:53:56Z</time>
  <course>0.0</course>
  <speed>0.0</speed>
  <fix>3d</fix>
</trkpt>
<trkpt lat="40.0713751" lon="-105.2297889">
  <ele>1583.04</ele>
  <time>2026-08-28T17:53:56Z</time>
  <course>247.34</course>
  <speed>0.022360679774997897</speed>
  <fix>3d</fix>
</trkpt>
<trkpt lat="40.0713749" lon="-105.229789">
  <ele>1583.0</ele>
  <time>2026-08-28T17:53:56Z</time>
  <course>0.0</course>
  <speed>0.0</speed>
  <fix>3d</fix>
</trkpt>
<trkpt lat="40.0713751" lon="-105.2297889">
  <ele>1583.04</ele>
  <time>2026-08-28T17:53:56Z</time>
  <course>247.34</course>
  <speed>0.022360679774997897</speed>
  <fix>3d</fix>
</trkpt>
<trkpt lat="40.0713749" lon="-105.229789">
  <ele>1583.0</ele>
  <time>2026-08-28T17:53:56Z</time>
  <course>0.0</course>
  <speed>0.0</speed>
  <fix>3d</fix>
</trkpt>
<trkpt lat="40.0713751" lon="-105.2297889">
  <ele>1583.03</ele>
  <time>2026-08-28T17:53:56Z</time>
  <course>247.34</course>
  <speed>0.022360679774997897</speed>
  <fix>3d</fix>
</trkpt>
<trkpt lat="40.0713749" lon="-105.229789">
  <ele>1583.0</ele>
  <time>2026-08-28T17:53:56Z</time>
  <course>0.0</course>
  <speed>0.0</speed>
  <fix>3d</fix>
</trkpt>
<trkpt lat="40.0713751" lon="-105.2297889">
  <ele>1583.03</ele>
  <time>2026-08-28T17:53:56Z</time>
  <course>247.33</course>
  <speed>0.022360679774997897</speed>
  <fix>3d</fix>
</trkpt>
<trkpt lat="40.0713749" lon="-105.229789">
  <ele>1583.0</ele>
  <time>2026-08-28T17:53:56Z</time>
  <course>0.0</course>
  <speed>0.0</speed>
  <fix>3d</fix>
</trkpt>
<trkpt lat="40.0713751" lon="-105.2297889">
  <ele>1583.03</ele>
  <time>2026-08-28T17:53:56Z</time>
  <course>247.33</course>
  <speed>0.022360679774997897</speed>
  <fix>3d</fix>
</trkpt>
<trkpt lat="40.0713749" lon="-105.229789">
  <ele>1583.0</ele>
  <time>2026-08-28T17:53:56Z</time>
  <course>0.0</course>
  <speed>0.0</speed>
  <fix>3d</fix>
</trkpt>
<trkpt lat="40.0713751" lon="-105.2297889">
  <ele>1583.03</ele>
  <time>2026-08-28T17:53:56Z</time>
  <course>247.33</course>
  <speed>0.022360679774997897</speed>
  <fix>3d</fix>
</trkpt>
<trkpt lat="40.0713749" lon="-105.229789">
  <ele>1583.0</ele>
  <time>2026-08-28T17:53:56Z</time>
  <course>0.0</course>
  <speed>0.0</speed>
  <fix>3d</fix>
</trkpt>
<trkpt lat="40.0713751" lon="-105.2297889">
  <ele>1583.02</ele>
  <time>2026-08-28T17:53:56Z</time>
  <course>247.33</course>
  <speed>0.022360679774997897</speed>
  <fix>3d</fix>
</trkpt>
<trkpt lat="40.0713749" lon="-105.229789">
  <ele>1583.0</ele>
  <time>2026-08-28T17:53:56Z</time>
  <course>0.0</course>
  <speed>0.0</speed>
  <fix>3d</fix>
</trkpt>
<trkpt lat="40.0713751" lon="-105.2297889">
  <ele>1583.02</ele>
  <time>2026-08-28T17:53:56Z</time>
  <course>247.33</course>
  <speed>0.022360679774997897</speed>
  <fix>3d</fix>
</trkpt>
<trkpt lat="40.0713749" lon="-105.229789">
  <ele>1583.0</ele>
  <time>2026-08-28T17:53:56Z</time>
  <course>0.0</course>
  <speed>0.0</speed>
  <fix>3d</fix>
</trkpt>
<trkpt lat="40.0713751" lon="-105.2297889">
  <ele>1583.02</ele>
  <time>2026-08-28T17:53:56Z</time>
  <course>247.33</course>
  <speed>0.022360679774997897</speed>
  <fix>3d</fix>
</trkpt>
<trkpt lat="40.0713749" lon="-105.229789">
  <ele>1583.0</ele>
  <time>2026-08-28T17:53:56Z</time>
  <course>0.0</course>
  <speed>0.0</speed>
  <fix>3d</fix>
</trkpt>
<trkpt lat="40.0713751" lon="-105.2297889">
  <ele>1583.01</ele>
  <time>2026-08-28T17:53:56Z</time>
  <course>247.33</course>
  <speed>0.022360679774997897</speed>
  <fix>3d</fix>
</trkpt>
<trkpt lat="40.0713749" lon="-105.229789">
  <ele>1583.0</ele>
  <time>2026-08-28T17:53:56Z</time>
  <course>0.0</course>
  <speed>0.0</speed>
  <fix>3d</fix>
</trkpt>
<trkpt lat="40.0713751" lon="-105.2297889">
  <ele>1583.01</ele>
  <time>2026-08-28T17:53:56Z</time>
  <course>247.33</course>
  <speed>0.022360679774997897</speed>
  <fix>3d</fix>
</trkpt>
<trkpt lat="40.0713749" lon="-105.229789">
  <ele>1583.0</ele>
  <time>2026-08-28T17:53:56Z</time>
  <course>0.0</course>
  <speed>0.0</speed>
  <fix>3d</fix>
</trkpt>
<trkpt lat="40.0713751" lon="-105.2297889">
  <ele>1583.01</ele>
  <time>2026-08-28T17:53:56Z</time>
  <course>247.33</course>
  <speed>0.022360679774997897</speed>
  <fix>3d</fix>
</trkpt>
<trkpt lat="40.0713749" lon="-105.229789">
  <ele>1583.0</ele>
  <time>2026-08-28T17:53:56Z</time>
  <course>0.0</course>
  <speed>0.0</speed>
  <fix>3d</fix>
</trkpt>
<trkpt lat="40.0713751" lon="-105.2297889">
  <ele>1583.01</ele>
  <time>2026-08-28T17:53:56Z</time>
  <course>247.32</course>
  <speed>0.022360679774997897</speed>
  <fix>3d</fix>
</trkpt>
<trkpt lat="40.0713749" lon="-105.229789">
  <ele>1583.0</ele>
  <time>2026-08-28T17:53:56Z</time>
  <course>0.0</course>
  <speed>0.0</speed>
  <fix>3d</fix>
</trkpt>
<trkpt lat="40.0713751" lon="-105.2297889">
  <ele>1583.0</ele>
  <time>2026-08-28T17:53:56Z</time>
  <course>247.32</course>
  <speed>0.022360679774997897</speed>
  <fix>3d</fix>
</trkpt>
<trkpt lat="40.0713749" lon="-105.229789">
  <ele>1583.0</ele>
  <time>2026-08-28T17:53:56Z</time>
  <course>0.0</course>
  <speed>0.0</speed>
  <fix>3d</fix>
</trkpt>
<trkpt lat="40.0713751" lon="-105.2297889">
  <ele>1583.0</ele>
  <time>2026-08-28T17:53:56Z</time>
  <course>247.32</course>
  <speed>0.022360679774997897</speed>
  <fix>3d</fix>
</trkpt>
<trkpt lat="40.0713749" lon="-105.229789">
  <ele>1583.0</ele>
  <time>2026-08-28T17:53:56Z</time>
  <course>0.0</course>
  <speed>0.0</speed>
  <fix>3d</fix>
</trkpt>
<trkpt lat="40.0713751" lon="-105.2297889">
  <ele>1582.99</ele>
  <time>2026-08-28T17:53:56Z</time>
  <course>247.32</course>
  <speed>0.022360679774997897</speed>
  <fix>3d</fix>
</trkpt>
<trkpt lat="40.0713749" lon="-105.229789">
  <ele>1583.0</ele>
  <time>2026-08-28T17:53:56Z</time>
  <course>0.0</course>
  <speed>0.0</speed>
  <fix>3d</fix>
</trkpt>
<trkpt lat="40.0713751" lon="-105.2297889">
  <ele>1582.99</ele>
  <time>2026-08-28T17:53:56Z</time>
  <course>247.32</course>
  <speed>0.022360679774997897</speed>
  <fix>3d</fix>
</trkpt>
<trkpt lat="40.0713749" lon="-105.229789">
  <ele>1583.0</ele>
  <time>2026-08-28T17:53:56Z</time>
  <course>0.0</course>
  <speed>0.0</speed>
  <fix>3d</fix>
</trkpt>
<trkpt lat="40.0713751" lon="-105.2297889">
  <ele>1582.99</ele>
  <time>2026-08-28T17:53:56Z</time>
  <course>247.32</course>
  <speed>0.022360679774997897</speed>
  <fix>3d</fix>
</trkpt>
<trkpt lat="40.0713749" lon="-105.229789">
  <ele>1583.0</ele>
  <time>2026-08-28T17:53:56Z</time>
  <course>0.0</course>
  <speed>0.0</speed>
  <fix>3d</fix>
</trkpt>
<trkpt lat="40.0713751" lon="-105.2297889">
  <ele>1582.99</ele>
  <time>2026-08-28T17:53:56Z</time>
  <course>247.32</course>
  <speed>0.022360679774997897</speed>
  <fix>3d</fix>
</trkpt>
<trkpt lat="40.0713749" lon="-105.229789">
  <ele>1583.0</ele>
  <time>2026-08-28T17:53:56Z</time>
  <course>0.0</course>
  <speed>0.0</speed>
  <fix>3d</fix>
</trkpt>
<trkpt lat="40.0713751" lon="-105.2297889">
  <ele>1582.99</ele>
  <time>2026-08-28T17:53:56Z</time>
  <course>247.32</course>
  <speed>0.022360679774997897</speed>
  <fix>3d</fix>
</trkpt>
<trkpt lat="40.0713749" lon="-105.229789">
  <ele>1583.0</ele>
  <time>2026-08-28T17:53:56Z</time>
  <course>0.0</course>
  <speed>0.0</speed>
  <fix>3d</fix>
</trkpt>
<trkpt lat="40.0713751" lon="-105.2297889">
  <ele>1583.0</ele>
  <time>2026-08-28T17:53:56Z</time>
  <course>247.31</course>
  <speed>0.022360679774997897</speed>
  <fix>3d</fix>
</trkpt>
<trkpt lat="40.0713749" lon="-105.229789">
  <ele>1583.0</ele>
  <time>2026-08-28T17:53:56Z</time>
  <course>0.0</course>
  <speed>0.0</speed>
  <fix>3d</fix>
</trkpt>
<trkpt lat="40.0713751" lon="-105.2297889">
  <ele>1583.0</ele>
  <time>2026-08-28T17:53:56Z</time>
  <course>247.31</course>
  <speed>0.022360679774997897</speed>
  <fix>3d</fix>
</trkpt>
<trkpt lat="40.0713749" lon="-105.229789">
  <ele>1583.0</ele>
  <time>2026-08-28T17:53:56Z</time>
  <course>0.0</course>
  <speed>0.0</speed>
  <fix>3d</fix>
</trkpt>
<trkpt lat="40.0713751" lon="-105.2297889">
  <ele>1583.0</ele>
  <time>2026-08-28T17:53:56Z</time>
  <course>247.31</course>
  <speed>0.022360679774997897</speed>
  <fix>3d</fix>
</trkpt>
<trkpt lat="40.0713749" lon="-105.229789">
  <ele>1583.0</ele>
  <time>2026-08-28T17:53:56Z</time>
  <course>0.0</course>
  <speed>0.0</speed>
  <fix>3d</fix>
</trkpt>
<trkpt lat="40.0713751" lon="-105.2297889">
  <ele>1583.0</ele>
  <time>2026-08-28T17:53:56Z</time>
  <course>247.31</course>
  <speed>0.022360679774997897</speed>
  <fix>3d</fix>
</trkpt>
<trkpt lat="40.0713749" lon="-105.229789">
  <ele>1583.0</ele>
  <time>2026-08-28T17:53:56Z</time>
  <course>0.0</course>
  <speed>0.0</speed>
  <fix>3d</fix>
</trkpt>
<trkpt lat="40.0713751" lon="-105.2297889">
  <ele>1583.0</ele>
  <time>2026-08-28T17:53:56Z</time>
  <course>247.31</course>
  <speed>0.022360679774997897</speed>
  <fix>3d</fix>
</trkpt>
<trkpt lat="40.0713749" lon="-105.229789">
  <ele>1583.0</ele>
  <time>2026-08-28T17:53:56Z</time>
  <course>0.0</course>
  <speed>0.0</speed>
  <fix>3d</fix>
</trkpt>
<trkpt lat="40.0713751" lon="-105.2297889">
  <ele>1583.0</ele>
  <time>2026-08-28T17:53:56Z</time>
  <course>247.31</course>
  <speed>0.022360679774997897</speed>
  <fix>3d</fix>
</trkpt>
<trkpt lat="40.0713749" lon="-105.229789">
  <ele>1583.0</ele>
  <time>2026-08-28T17:53:56Z</time>
  <course>0.0</course>
  <speed>0.0</speed>
  <fix>3d</fix>
</trkpt>
<trkpt lat="40.0713751" lon="-105.2297889">
  <ele>1583.0</ele>
  <time>2026-08-28T17:53:56Z</time>
  <course>247.31</course>
  <speed>0.022360679774997897</speed>
  <fix>3d</fix>
</trkpt>
<trkpt lat="40.0713749" lon="-105.229789">
  <ele>1583.0</ele>
  <time>2026-08-28T17:53:56Z</time>
  <course>0.0</course>
  <speed>0.0</speed>
  <fix>3d</fix>
</trkpt>
<trkpt lat="40.0713751" lon="-105.2297889">
  <ele>1583.0</ele>
  <time>2026-08-28T17:53:56Z</time>
  <course>247.31</course>
  <speed>0.022360679774997897</speed>
  <fix>3d</fix>
</trkpt>
<trkpt lat="40.0713749" lon="-105.229789">
  <ele>1583.0</ele>
  <time>2026-08-28T17:53:56Z</time>
  <course>0.0</course>
  <speed>0.0</speed>
  <fix>3d</fix>
</trkpt>
<trkpt lat="40.0713751" lon="-105.2297889">
  <ele>1582.99</ele>
  <time>2026-08-28T17:53:56Z</time>
  <course>247.31</course>
  <speed>0.022360679774997897</speed>
  <fix>3d</fix>
</trkpt>
<trkpt lat="40.0713749" lon="-105.229789">
  <ele>1583.0</ele>
  <time>2026-08-28T17:53:56Z</time>
  <course>0.0</course>
  <speed>0.0</speed>
  <fix>3d</fix>
</trkpt>
<trkpt lat="40.0713751" lon="-105.2297889">
  <ele>1583.0</ele>
  <time>2026-08-28T17:53:56Z</time>
  <course>247.3</course>
  <speed>0.022360679774997897</speed>
  <fix>3d</fix>
</trkpt>
<trkpt lat="40.0713749" lon="-105.229789">
  <ele>1583.0</ele>
  <time>2026-08-28T17:53:56Z</time>
  <course>0.0</course>
  <speed>0.0</speed>
  <fix>3d</fix>
</trkpt>
<trkpt lat="40.0713751" lon="-105.2297889">
  <ele>1583.0</ele>
  <time>2026-08-28T17:53:56Z</time>
  <course>247.3</course>
  <speed>0.022360679774997897</speed>
  <fix>3d</fix>
</trkpt>
<trkpt lat="40.0713749" lon="-105.229789">
  <ele>1583.0</ele>
  <time>2026-08-28T17:53:56Z</time>
  <course>0.0</course>
  <speed>0.0</speed>
  <fix>3d</fix>
</trkpt>
<trkpt lat="40.0713751" lon="-105.2297889">
  <ele>1583.0</ele>
  <time>2026-08-28T17:53:56Z</time>
  <course>247.3</course>
  <speed>0.022360679774997897</speed>
  <fix>3d</fix>
</trkpt>
<trkpt lat="40.0713749" lon="-105.229789">
  <ele>1583.0</ele>
  <time>2026-08-28T17:53:56Z</time>
  <course>0.0</course>
  <speed>0.0</speed>
  <fix>3d</fix>
</trkpt>
<trkpt lat="40.0713751" lon="-105.2297889">
  <ele>1583.0</ele>
  <time>2026-08-28T17:53:56Z</time>
  <course>247.3</course>
  <speed>0.022360679774997897</speed>
  <fix>3d</fix>
</trkpt>
<trkpt lat="40.0713749" lon="-105.229789">
  <ele>1583.0</ele>
  <time>2026-08-28T17:53:56Z</time>
  <course>0.0</course>
  <speed>0.0</speed>
  <fix>3d</fix>
</trkpt>
<trkpt lat="40.0713751" lon="-105.2297889">
  <ele>1583.0</ele>
  <time>2026-08-28T17:53:56Z</time>
  <course>247.3</course>
  <speed>0.022360679774997897</speed>
  <fix>3d</fix>
</trkpt>
<trkpt lat="40.0713749" lon="-105.229789">
  <ele>1583.0</ele>
  <time>2026-08-28T17:53:56Z</time>
  <course>0.0</course>
  <speed>0.0</speed>
  <fix>3d</fix>
</trkpt>
<trkpt lat="40.071375" lon="-105.2297889">
  <ele>1583.0</ele>
  <time>2026-08-28T17:53:56Z</time>
  <course>247.3</course>
  <speed>0.022360679774997897</speed>
  <fix>3d</fix>
</trkpt>
<trkpt lat="40.0713749" lon="-105.229789">
  <ele>1583.0</ele>
  <time>2026-08-28T17:53:56Z</time>
  <course>0.0</course>
  <speed>0.0</speed>
  <fix>3d</fix>
</trkpt>
<trkpt lat="40.0713751" lon="-105.2297889">
  <ele>1583.0</ele>
  <time>2026-08-28T17:53:56Z</time>
  <course>247.3</course>
  <speed>0.022360679774997897</speed>
  <fix>3d</fix>
</trkpt>
<trkpt lat="40.0713749" lon="-105.229789">
  <ele>1583.0</ele>
  <time>2026-08-28T17:53:56Z</time>
  <course>0.0</course>
  <speed>0.0</speed>
  <fix>3d</fix>
</trkpt>
<trkpt lat="40.071375" lon="-105.2297889">
  <ele>1583.0</ele>
  <time>2026-08-28T17:53:56Z</time>
  <course>247.3</course>
  <speed>0.022360679774997897</speed>
  <fix>3d</fix>
</trkpt>
<trkpt lat="40.0713749" lon="-105.229789">
  <ele>1583.0</ele>
  <time>2026-08-28T17:53:56Z</time>
  <course>0.0</course>
  <speed>0.0</speed>
  <fix>3d</fix>
</trkpt>
<trkpt lat="40.0713751" lon="-105.2297889">
  <ele>1583.0</ele>
  <time>2026-08-28T17:53:56Z</time>
  <course>247.3</course>
  <speed>0.022360679774997897</speed>
  <fix>3d</fix>
</trkpt>
<trkpt lat="40.0713749" lon="-105.229789">
  <ele>1583.0</ele>
  <time>2026-08-28T17:53:56Z</time>
  <course>0.0</course>
  <speed>0.0</speed>
  <fix>3d</fix>
</trkpt>
<trkpt lat="40.071375" lon="-105.2297889">
  <ele>1583.01</ele>
  <time>2026-08-28T17:53:56Z</time>
  <course>247.29</course>
  <speed>0.022360679774997897</speed>
  <fix>3d</fix>
</trkpt>
<trkpt lat="40.0713749" lon="-105.229789">
  <ele>1583.0</ele>
  <time>2026-08-28T17:53:56Z</time>
  <course>0.0</course>
  <speed>0.0</speed>
  <fix>3d</fix>
</trkpt>
<trkpt lat="40.071375" lon="-105.2297889">
  <ele>1583.01</ele>
  <time>2026-08-28T17:53:56Z</time>
  <course>247.29</course>
  <speed>0.022360679774997897</speed>
  <fix>3d</fix>
</trkpt>
<trkpt lat="40.0713749" lon="-105.229789">
  <ele>1583.0</ele>
  <time>2026-08-28T17:53:56Z</time>
  <course>0.0</course>
  <speed>0.0</speed>
  <fix>3d</fix>
</trkpt>
<trkpt lat="40.071375" lon="-105.2297889">
  <ele>1583.01</ele>
  <time>2026-08-28T17:53:56Z</time>
  <course>247.29</course>
  <speed>0.022360679774997897</speed>
  <fix>3d</fix>
</trkpt>
<trkpt lat="40.0713749" lon="-105.229789">
  <ele>1583.0</ele>
  <time>2026-08-28T17:53:56Z</time>
  <course>0.0</course>
  <speed>0.0</speed>
  <fix>3d</fix>
</trkpt>
<trkpt lat="40.071375" lon="-105.2297889">
  <ele>1583.01</ele>
  <time>2026-08-28T17:53:56Z</time>
  <course>247.29</course>
  <speed>0.022360679774997897</speed>
  <fix>3d</fix>
</trkpt>
<trkpt lat="40.0713749" lon="-105.229789">
  <ele>1583.0</ele>
  <time>2026-08-28T17:53:56Z</time>
  <course>0.0</course>
  <speed>0.0</speed>
  <fix>3d</fix>
</trkpt>
<trkpt lat="40.071375" lon="-105.2297889">
  <ele>1583.01</ele>
  <time>2026-08-28T17:53:56Z</time>
  <course>247.29</course>
  <speed>0.02</speed>
  <fix>3d</fix>
</trkpt>
<trkpt lat="40.0713749" lon="-105.229789">
  <ele>1583.0</ele>
  <time>2026-08-28T17:53:56Z</time>
  <course>0.0</course>
  <speed>0.0</speed>
  <fix>3d</fix>
</trkpt>
<trkpt lat="40.071375" lon="-105.2297889">
  <ele>1583.01</ele>
  <time>2026-08-28T17:53:57Z</time>
  <course>247.29</course>
  <speed>0.022360679774997897</speed>
  <fix>3d</fix>
</trkpt>
<trkpt lat="40.0713749" lon="-105.229789">
  <ele>1583.0</ele>
  <time>2026-08-28T17:53:57Z</time>
  <course>0.0</course>
  <speed>0.0</speed>
  <fix>3d</fix>
</trkpt>
<trkpt lat="40.071375" lon="-105.2297889">
  <ele>1583.02</ele>
  <time>2026-08-28T17:53:57Z</time>
  <course>247.29</course>
  <speed>0.022360679774997897</speed>
  <fix>3d</fix>
</trkpt>
<trkpt lat="40.0713749" lon="-105.229789">
  <ele>1583.0</ele>
  <time>2026-08-28T17:53:57Z</time>
  <course>0.0</course>
  <speed>0.0</speed>
  <fix>3d</fix>
</trkpt>
<trkpt lat="40.071375" lon="-105.2297889">
  <ele>1583.02</ele>
  <time>2026-08-28T17:53:57Z</time>
  <course>247.29</course>
  <speed>0.022360679774997897</speed>
  <fix>3d</fix>
</trkpt>
<trkpt lat="40.0713749" lon="-105.229789">
  <ele>1583.0</ele>
  <time>2026-08-28T17:53:57Z</time>
  <course>0.0</course>
  <speed>0.0</speed>
  <fix>3d</fix>
</trkpt>
<trkpt lat="40.071375" lon="-105.2297889">
  <ele>1583.03</ele>
  <time>2026-08-28T17:53:57Z</time>
  <course>247.29</course>
  <speed>0.02</speed>
  <fix>3d</fix>
</trkpt>
<trkpt lat="40.0713749" lon="-105.229789">
  <ele>1583.0</ele>
  <time>2026-08-28T17:53:57Z</time>
  <course>0.0</course>
  <speed>0.0</speed>
  <fix>3d</fix>
</trkpt>
<trkpt lat="40.071375" lon="-105.2297889">
  <ele>1583.03</ele>
  <time>2026-08-28T17:53:57Z</time>
  <course>247.28</course>
  <speed>0.022360679774997897</speed>
  <fix>3d</fix>
</trkpt>
<trkpt lat="40.0713749" lon="-105.229789">
  <ele>1583.0</ele>
  <time>2026-08-28T17:53:57Z</time>
  <course>0.0</course>
  <speed>0.0</speed>
  <fix>3d</fix>
</trkpt>
<trkpt lat="40.071375" lon="-105.2297889">
  <ele>1583.03</ele>
  <time>2026-08-28T17:53:57Z</time>
  <course>247.28</course>
  <speed>0.022360679774997897</speed>
  <fix>3d</fix>
</trkpt>
<trkpt lat="40.0713749" lon="-105.229789">
  <ele>1583.0</ele>
  <time>2026-08-28T17:53:57Z</time>
  <course>0.0</course>
  <speed>0.0</speed>
  <fix>3d</fix>
</trkpt>
<trkpt lat="40.0713751" lon="-105.2297889">
  <ele>1583.03</ele>
  <time>2026-08-28T17:53:57Z</time>
  <course>247.28</course>
  <speed>0.022360679774997897</speed>
  <fix>3d</fix>
</trkpt>
<trkpt lat="40.0713749" lon="-105.229789">
  <ele>1583.0</ele>
  <time>2026-08-28T17:53:57Z</time>
  <course>0.0</course>
  <speed>0.0</speed>
  <fix>3d</fix>
</trkpt>
<trkpt lat="40.071375" lon="-105.2297889">
  <ele>1583.03</ele>
  <time>2026-08-28T17:53:57Z</time>
  <course>247.28</course>
  <speed>0.022360679774997897</speed>
  <fix>3d</fix>
</trkpt>
<trkpt lat="40.0713749" lon="-105.229789">
  <ele>1583.0</ele>
  <time>2026-08-28T17:53:57Z</time>
  <course>0.0</course>
  <speed>0.0</speed>
  <fix>3d</fix>
</trkpt>
<trkpt lat="40.0713751" lon="-105.2297889">
  <ele>1583.03</ele>
  <time>2026-08-28T17:53:57Z</time>
  <course>247.28</course>
  <speed>0.022360679774997897</speed>
  <fix>3d</fix>
</trkpt>
<trkpt lat="40.0713749" lon="-105.229789">
  <ele>1583.0</ele>
  <time>2026-08-28T17:53:57Z</time>
  <course>0.0</course>
  <speed>0.0</speed>
  <fix>3d</fix>
</trkpt>
<trkpt lat="40.071375" lon="-105.2297889">
  <ele>1583.03</ele>
  <time>2026-08-28T17:53:57Z</time>
  <course>247.28</course>
  <speed>0.022360679774997897</speed>
  <fix>3d</fix>
</trkpt>
<trkpt lat="40.0713749" lon="-105.229789">
  <ele>1583.0</ele>
  <time>2026-08-28T17:53:57Z</time>
  <course>0.0</course>
  <speed>0.0</speed>
  <fix>3d</fix>
</trkpt>
<trkpt lat="40.0713751" lon="-105.2297889">
  <ele>1583.03</ele>
  <time>2026-08-28T17:53:57Z</time>
  <course>247.28</course>
  <speed>0.022360679774997897</speed>
  <fix>3d</fix>
</trkpt>
<trkpt lat="40.0713749" lon="-105.229789">
  <ele>1583.0</ele>
  <time>2026-08-28T17:53:57Z</time>
  <course>0.0</course>
  <speed>0.0</speed>
  <fix>3d</fix>
</trkpt>
<trkpt lat="40.071375" lon="-105.2297889">
  <ele>1583.02</ele>
  <time>2026-08-28T17:53:57Z</time>
  <course>247.28</course>
  <speed>0.022360679774997897</speed>
  <fix>3d</fix>
</trkpt>
<trkpt lat="40.0713749" lon="-105.229789">
  <ele>1583.0</ele>
  <time>2026-08-28T17:53:57Z</time>
  <course>0.0</course>
  <speed>0.0</speed>
  <fix>3d</fix>
</trkpt>
<trkpt lat="40.071375" lon="-105.2297889">
  <ele>1583.02</ele>
  <time>2026-08-28T17:53:57Z</time>
  <course>247.28</course>
  <speed>0.022360679774997897</speed>
  <fix>3d</fix>
</trkpt>
<trkpt lat="40.0713749" lon="-105.229789">
  <ele>1583.0</ele>
  <time>2026-08-28T17:53:57Z</time>
  <course>0.0</course>
  <speed>0.0</speed>
  <fix>3d</fix>
</trkpt>
<trkpt lat="40.071375" lon="-105.2297889">
  <ele>1583.02</ele>
  <time>2026-08-28T17:53:57Z</time>
  <course>247.28</course>
  <speed>0.022360679774997897</speed>
  <fix>3d</fix>
</trkpt>
<trkpt lat="40.0713749" lon="-105.229789">
  <ele>1583.0</ele>
  <time>2026-08-28T17:53:57Z</time>
  <course>0.0</course>
  <speed>0.0</speed>
  <fix>3d</fix>
</trkpt>
<trkpt lat="40.071375" lon="-105.2297889">
  <ele>1583.01</ele>
  <time>2026-08-28T17:53:57Z</time>
  <course>247.27</course>
  <speed>0.022360679774997897</speed>
  <fix>3d</fix>
</trkpt>
<trkpt lat="40.0713749" lon="-105.229789">
  <ele>1583.0</ele>
  <time>2026-08-28T17:53:57Z</time>
  <course>0.0</course>
  <speed>0.0</speed>
  <fix>3d</fix>
</trkpt>
<trkpt lat="40.071375" lon="-105.2297889">
  <ele>1583.01</ele>
  <time>2026-08-28T17:53:57Z</time>
  <course>247.27</course>
  <speed>0.022360679774997897</speed>
  <fix>3d</fix>
</trkpt>
<trkpt lat="40.0713749" lon="-105.229789">
  <ele>1583.0</ele>
  <time>2026-08-28T17:53:57Z</time>
  <course>0.0</course>
  <speed>0.0</speed>
  <fix>3d</fix>
</trkpt>
<trkpt lat="40.071375" lon="-105.2297889">
  <ele>1583.01</ele>
  <time>2026-08-28T17:53:57Z</time>
  <course>247.27</course>
  <speed>0.022360679774997897</speed>
  <fix>3d</fix>
</trkpt>
<trkpt lat="40.0713749" lon="-105.229789">
  <ele>1583.0</ele>
  <time>2026-08-28T17:53:57Z</time>
  <course>0.0</course>
  <speed>0.0</speed>
  <fix>3d</fix>
</trkpt>
<trkpt lat="40.071375" lon="-105.2297889">
  <ele>1583.01</ele>
  <time>2026-08-28T17:53:57Z</time>
  <course>247.27</course>
  <speed>0.022360679774997897</speed>
  <fix>3d</fix>
</trkpt>
<trkpt lat="40.0713749" lon="-105.229789">
  <ele>1583.0</ele>
  <time>2026-08-28T17:53:57Z</time>
  <course>0.0</course>
  <speed>0.0</speed>
  <fix>3d</fix>
</trkpt>
<trkpt lat="40.071375" lon="-105.2297889">
  <ele>1583.01</ele>
  <time>2026-08-28T17:53:57Z</time>
  <course>247.27</course>
  <speed>0.022360679774997897</speed>
  <fix>3d</fix>
</trkpt>
<trkpt lat="40.0713749" lon="-105.229789">
  <ele>1583.0</ele>
  <time>2026-08-28T17:53:57Z</time>
  <course>0.0</course>
  <speed>0.0</speed>
  <fix>3d</fix>
</trkpt>
<trkpt lat="40.071375" lon="-105.2297889">
  <ele>1583.02</ele>
  <time>2026-08-28T17:53:57Z</time>
  <course>247.27</course>
  <speed>0.022360679774997897</speed>
  <fix>3d</fix>
</trkpt>
<trkpt lat="40.0713749" lon="-105.229789">
  <ele>1583.0</ele>
  <time>2026-08-28T17:53:57Z</time>
  <course>0.0</course>
  <speed>0.0</speed>
  <fix>3d</fix>
</trkpt>
<trkpt lat="40.071375" lon="-105.2297889">
  <ele>1583.01</ele>
  <time>2026-08-28T17:53:57Z</time>
  <course>247.27</course>
  <speed>0.022360679774997897</speed>
  <fix>3d</fix>
</trkpt>
<trkpt lat="40.0713749" lon="-105.229789">
  <ele>1583.0</ele>
  <time>2026-08-28T17:53:57Z</time>
  <course>0.0</course>
  <speed>0.0</speed>
  <fix>3d</fix>
</trkpt>
<trkpt lat="40.071375" lon="-105.2297889">
  <ele>1583.01</ele>
  <time>2026-08-28T17:53:57Z</time>
  <course>247.27</course>
  <speed>0.022360679774997897</speed>
  <fix>3d</fix>
</trkpt>
<trkpt lat="40.0713749" lon="-105.229789">
  <ele>1583.0</ele>
  <time>2026-08-28T17:53:57Z</time>
  <course>0.0</course>
  <speed>0.0</speed>
  <fix>3d</fix>
</trkpt>
<trkpt lat="40.071375" lon="-105.2297889">
  <ele>1583.01</ele>
  <time>2026-08-28T17:53:57Z</time>
  <course>247.27</course>
  <speed>0.022360679774997897</speed>
  <fix>3d</fix>
</trkpt>
<trkpt lat="40.0713749" lon="-105.229789">
  <ele>1583.0</ele>
  <time>2026-08-28T17:53:57Z</time>
  <course>0.0</course>
  <speed>0.0</speed>
  <fix>3d</fix>
</trkpt>
<trkpt lat="40.071375" lon="-105.2297889">
  <ele>1583.01</ele>
  <time>2026-08-28T17:53:57Z</time>
  <course>247.27</course>
  <speed>0.022360679774997897</speed>
  <fix>3d</fix>
</trkpt>
<trkpt lat="40.0713749" lon="-105.229789">
  <ele>1583.0</ele>
  <time>2026-08-28T17:53:57Z</time>
  <course>0.0</course>
  <speed>0.0</speed>
  <fix>3d</fix>
</trkpt>
<trkpt lat="40.071375" lon="-105.2297889">
  <ele>1583.01</ele>
  <time>2026-08-28T17:53:57Z</time>
  <course>247.26</course>
  <speed>0.022360679774997897</speed>
  <fix>3d</fix>
</trkpt>
<trkpt lat="40.0713749" lon="-105.229789">
  <ele>1583.0</ele>
  <time>2026-08-28T17:53:57Z</time>
  <course>0.0</course>
  <speed>0.0</speed>
  <fix>3d</fix>
</trkpt>
<trkpt lat="40.071375" lon="-105.2297889">
  <ele>1583.01</ele>
  <time>2026-08-28T17:53:57Z</time>
  <course>247.26</course>
  <speed>0.022360679774997897</speed>
  <fix>3d</fix>
</trkpt>
<trkpt lat="40.0713749" lon="-105.229789">
  <ele>1583.0</ele>
  <time>2026-08-28T17:53:57Z</time>
  <course>0.0</course>
  <speed>0.0</speed>
  <fix>3d</fix>
</trkpt>
<trkpt lat="40.071375" lon="-105.2297889">
  <ele>1583.0</ele>
  <time>2026-08-28T17:53:57Z</time>
  <course>247.26</course>
  <speed>0.022360679774997897</speed>
  <fix>3d</fix>
</trkpt>
<trkpt lat="40.0713749" lon="-105.229789">
  <ele>1583.0</ele>
  <time>2026-08-28T17:53:57Z</time>
  <course>0.0</course>
  <speed>0.0</speed>
  <fix>3d</fix>
</trkpt>
<trkpt lat="40.071375" lon="-105.2297889">
  <ele>1583.0</ele>
  <time>2026-08-28T17:53:57Z</time>
  <course>247.26</course>
  <speed>0.022360679774997897</speed>
  <fix>3d</fix>
</trkpt>
<trkpt lat="40.0713749" lon="-105.229789">
  <ele>1583.0</ele>
  <time>2026-08-28T17:53:57Z</time>
  <course>0.0</course>
  <speed>0.0</speed>
  <fix>3d</fix>
</trkpt>
<trkpt lat="40.071375" lon="-105.2297889">
  <ele>1583.0</ele>
  <time>2026-08-28T17:53:57Z</time>
  <course>247.26</course>
  <speed>0.022360679774997897</speed>
  <fix>3d</fix>
</trkpt>
<trkpt lat="40.0713749" lon="-105.229789">
  <ele>1583.0</ele>
  <time>2026-08-28T17:53:57Z</time>
  <course>0.0</course>
  <speed>0.0</speed>
  <fix>3d</fix>
</trkpt>
<trkpt lat="40.071375" lon="-105.2297889">
  <ele>1583.0</ele>
  <time>2026-08-28T17:53:57Z</time>
  <course>247.26</course>
  <speed>0.022360679774997897</speed>
  <fix>3d</fix>
</trkpt>
<trkpt lat="40.0713749" lon="-105.229789">
  <ele>1583.0</ele>
  <time>2026-08-28T17:53:57Z</time>
  <course>0.0</course>
  <speed>0.0</speed>
  <fix>3d</fix>
</trkpt>
<trkpt lat="40.071375" lon="-105.2297889">
  <ele>1583.0</ele>
  <time>2026-08-28T17:53:57Z</time>
  <course>247.26</course>
  <speed>0.022360679774997897</speed>
  <fix>3d</fix>
</trkpt>
<trkpt lat="40.0713749" lon="-105.229789">
  <ele>1583.0</ele>
  <time>2026-08-28T17:53:57Z</time>
  <course>0.0</course>
  <speed>0.0</speed>
  <fix>3d</fix>
</trkpt>
<trkpt lat="40.071375" lon="-105.2297889">
  <ele>1582.99</ele>
  <time>2026-08-28T17:53:57Z</time>
  <course>247.26</course>
  <speed>0.022360679774997897</speed>
  <fix>3d</fix>
</trkpt>
<trkpt lat="40.0713749" lon="-105.229789">
  <ele>1583.0</ele>
  <time>2026-08-28T17:53:57Z</time>
  <course>0.0</course>
  <speed>0.0</speed>
  <fix>3d</fix>
</trkpt>
<trkpt lat="40.071375" lon="-105.2297889">
  <ele>1582.99</ele>
  <time>2026-08-28T17:53:57Z</time>
  <course>247.26</course>
  <speed>0.022360679774997897</speed>
  <fix>3d</fix>
</trkpt>
<trkpt lat="40.0713749" lon="-105.229789">
  <ele>1583.0</ele>
  <time>2026-08-28T17:53:57Z</time>
  <course>0.0</course>
  <speed>0.0</speed>
  <fix>3d</fix>
</trkpt>
<trkpt lat="40.071375" lon="-105.2297889">
  <ele>1582.99</ele>
  <time>2026-08-28T17:53:57Z</time>
  <course>247.26</course>
  <speed>0.022360679774997897</speed>
  <fix>3d</fix>
</trkpt>
<trkpt lat="40.0713749" lon="-105.229789">
  <ele>1583.0</ele>
  <time>2026-08-28T17:53:57Z</time>
  <course>0.0</course>
  <speed>0.0</speed>
  <fix>3d</fix>
</trkpt>
<trkpt lat="40.071375" lon="-105.2297889">
  <ele>1582.98</ele>
  <time>2026-08-28T17:53:57Z</time>
  <course>247.25</course>
  <speed>0.022360679774997897</speed>
  <fix>3d</fix>
</trkpt>
<trkpt lat="40.0713749" lon="-105.229789">
  <ele>1583.0</ele>
  <time>2026-08-28T17:53:57Z</time>
  <course>0.0</course>
  <speed>0.0</speed>
  <fix>3d</fix>
</trkpt>
<trkpt lat="40.071375" lon="-105.2297889">
  <ele>1582.98</ele>
  <time>2026-08-28T17:53:57Z</time>
  <course>247.25</course>
  <speed>0.022360679774997897</speed>
  <fix>3d</fix>
</trkpt>
<trkpt lat="40.0713749" lon="-105.229789">
  <ele>1583.0</ele>
  <time>2026-08-28T17:53:57Z</time>
  <course>0.0</course>
  <speed>0.0</speed>
  <fix>3d</fix>
</trkpt>
<trkpt lat="40.071375" lon="-105.2297889">
  <ele>1582.98</ele>
  <time>2026-08-28T17:53:57Z</time>
  <course>247.25</course>
  <speed>0.022360679774997897</speed>
  <fix>3d</fix>
</trkpt>
<trkpt lat="40.0713749" lon="-105.229789">
  <ele>1583.0</ele>
  <time>2026-08-28T17:53:57Z</time>
  <course>0.0</course>
  <speed>0.0</speed>
  <fix>3d</fix>
</trkpt>
<trkpt lat="40.071375" lon="-105.2297889">
  <ele>1582.98</ele>
  <time>2026-08-28T17:53:57Z</time>
  <course>247.25</course>
  <speed>0.022360679774997897</speed>
  <fix>3d</fix>
</trkpt>
<trkpt lat="40.0713749" lon="-105.229789">
  <ele>1583.0</ele>
  <time>2026-08-28T17:53:57Z</time>
  <course>0.0</course>
  <speed>0.0</speed>
  <fix>3d</fix>
</trkpt>
<trkpt lat="40.071375" lon="-105.2297889">
  <ele>1582.98</ele>
  <time>2026-08-28T17:53:57Z</time>
  <course>247.25</course>
  <speed>0.022360679774997897</speed>
  <fix>3d</fix>
</trkpt>
<trkpt lat="40.0713749" lon="-105.229789">
  <ele>1583.0</ele>
  <time>2026-08-28T17:53:57Z</time>
  <course>0.0</course>
  <speed>0.0</speed>
  <fix>3d</fix>
</trkpt>
<trkpt lat="40.071375" lon="-105.2297889">
  <ele>1582.98</ele>
  <time>2026-08-28T17:53:57Z</time>
  <course>247.25</course>
  <speed>0.022360679774997897</speed>
  <fix>3d</fix>
</trkpt>
<trkpt lat="40.0713749" lon="-105.229789">
  <ele>1583.0</ele>
  <time>2026-08-28T17:53:57Z</time>
  <course>0.0</course>
  <speed>0.0</speed>
  <fix>3d</fix>
</trkpt>
<trkpt lat="40.071375" lon="-105.2297889">
  <ele>1582.98</ele>
  <time>2026-08-28T17:53:57Z</time>
  <course>247.25</course>
  <speed>0.022360679774997897</speed>
  <fix>3d</fix>
</trkpt>
<trkpt lat="40.0713749" lon="-105.229789">
  <ele>1583.0</ele>
  <time>2026-08-28T17:53:57Z</time>
  <course>0.0</course>
  <speed>0.0</speed>
  <fix>3d</fix>
</trkpt>
<trkpt lat="40.071375" lon="-105.2297889">
  <ele>1582.97</ele>
  <time>2026-08-28T17:53:57Z</time>
  <course>247.25</course>
  <speed>0.022360679774997897</speed>
  <fix>3d</fix>
</trkpt>
<trkpt lat="40.0713749" lon="-105.229789">
  <ele>1583.0</ele>
  <time>2026-08-28T17:53:57Z</time>
  <course>0.0</course>
  <speed>0.0</speed>
  <fix>3d</fix>
</trkpt>
<trkpt lat="40.071375" lon="-105.2297889">
  <ele>1582.98</ele>
  <time>2026-08-28T17:53:57Z</time>
  <course>247.25</course>
  <speed>0.022360679774997897</speed>
  <fix>3d</fix>
</trkpt>
<trkpt lat="40.0713749" lon="-105.229789">
  <ele>1583.0</ele>
  <time>2026-08-28T17:53:57Z</time>
  <course>0.0</course>
  <speed>0.0</speed>
  <fix>3d</fix>
</trkpt>
<trkpt lat="40.071375" lon="-105.2297889">
  <ele>1582.98</ele>
  <time>2026-08-28T17:53:57Z</time>
  <course>247.25</course>
  <speed>0.022360679774997897</speed>
  <fix>3d</fix>
</trkpt>
<trkpt lat="40.0713749" lon="-105.229789">
  <ele>1583.0</ele>
  <time>2026-08-28T17:53:57Z</time>
  <course>0.0</course>
  <speed>0.0</speed>
  <fix>3d</fix>
</trkpt>
<trkpt lat="40.071375" lon="-105.2297889">
  <ele>1582.98</ele>
  <time>2026-08-28T17:53:57Z</time>
  <course>247.25</course>
  <speed>0.022360679774997897</speed>
  <fix>3d</fix>
</trkpt>
<trkpt lat="40.0713749" lon="-105.229789">
  <ele>1583.0</ele>
  <time>2026-08-28T17:53:57Z</time>
  <course>0.0</course>
  <speed>0.0</speed>
  <fix>3d</fix>
</trkpt>
<trkpt lat="40.071375" lon="-105.2297889">
  <ele>1582.98</ele>
  <time>2026-08-28T17:53:57Z</time>
  <course>247.24</course>
  <speed>0.022360679774997897</speed>
  <fix>3d</fix>
</trkpt>
<trkpt lat="40.0713749" lon="-105.229789">
  <ele>1583.0</ele>
  <time>2026-08-28T17:53:57Z</time>
  <course>0.0</course>
  <speed>0.0</speed>
  <fix>3d</fix>
</trkpt>
<trkpt lat="40.071375" lon="-105.2297889">
  <ele>1582.98</ele>
  <time>2026-08-28T17:53:57Z</time>
  <course>247.24</course>
  <speed>0.022360679774997897</speed>
  <fix>3d</fix>
</trkpt>
<trkpt lat="40.0713749" lon="-105.229789">
  <ele>1583.0</ele>
  <time>2026-08-28T17:53:57Z</time>
  <course>0.0</course>
  <speed>0.0</speed>
  <fix>3d</fix>
</trkpt>
<trkpt lat="40.071375" lon="-105.2297889">
  <ele>1582.99</ele>
  <time>2026-08-28T17:53:57Z</time>
  <course>247.24</course>
  <speed>0.022360679774997897</speed>
  <fix>3d</fix>
</trkpt>
<trkpt lat="40.0713749" lon="-105.229789">
  <ele>1583.0</ele>
  <time>2026-08-28T17:53:57Z</time>
  <course>0.0</course>
  <speed>0.0</speed>
  <fix>3d</fix>
</trkpt>
<trkpt lat="40.071375" lon="-105.2297889">
  <ele>1582.99</ele>
  <time>2026-08-28T17:53:57Z</time>
  <course>247.24</course>
  <speed>0.022360679774997897</speed>
  <fix>3d</fix>
</trkpt>
<trkpt lat="40.0713749" lon="-105.229789">
  <ele>1583.0</ele>
  <time>2026-08-28T17:53:57Z</time>
  <course>0.0</course>
  <speed>0.0</speed>
  <fix>3d</fix>
</trkpt>
<trkpt lat="40.071375" lon="-105.2297889">
  <ele>1582.99</ele>
  <time>2026-08-28T17:53:57Z</time>
  <course>247.24</course>
  <speed>0.022360679774997897</speed>
  <fix>3d</fix>
</trkpt>
<trkpt lat="40.0713749" lon="-105.229789">
  <ele>1583.0</ele>
  <time>2026-08-28T17:53:57Z</time>
  <course>0.0</course>
  <speed>0.0</speed>
  <fix>3d</fix>
</trkpt>
<trkpt lat="40.071375" lon="-105.2297889">
  <ele>1583.0</ele>
  <time>2026-08-28T17:53:57Z</time>
  <course>247.24</course>
  <speed>0.022360679774997897</speed>
  <fix>3d</fix>
</trkpt>
<trkpt lat="40.0713749" lon="-105.229789">
  <ele>1583.0</ele>
  <time>2026-08-28T17:53:57Z</time>
  <course>0.0</course>
  <speed>0.0</speed>
  <fix>3d</fix>
</trkpt>
<trkpt lat="40.071375" lon="-105.2297889">
  <ele>1583.0</ele>
  <time>2026-08-28T17:53:57Z</time>
  <course>247.24</course>
  <speed>0.022360679774997897</speed>
  <fix>3d</fix>
</trkpt>
<trkpt lat="40.0713749" lon="-105.229789">
  <ele>1583.0</ele>
  <time>2026-08-28T17:53:57Z</time>
  <course>0.0</course>
  <speed>0.0</speed>
  <fix>3d</fix>
</trkpt>
<trkpt lat="40.071375" lon="-105.2297889">
  <ele>1583.0</ele>
  <time>2026-08-28T17:53:57Z</time>
  <course>247.24</course>
  <speed>0.022360679774997897</speed>
  <fix>3d</fix>
</trkpt>
<trkpt lat="40.0713749" lon="-105.229789">
  <ele>1583.0</ele>
  <time>2026-08-28T17:53:57Z</time>
  <course>0.0</course>
  <speed>0.0</speed>
  <fix>3d</fix>
</trkpt>
<trkpt lat="40.071375" lon="-105.2297889">
  <ele>1583.0</ele>
  <time>2026-08-28T17:53:57Z</time>
  <course>247.24</course>
  <speed>0.022360679774997897</speed>
  <fix>3d</fix>
</trkpt>
<trkpt lat="40.0713749" lon="-105.229789">
  <ele>1583.0</ele>
  <time>2026-08-28T17:53:57Z</time>
  <course>0.0</course>
  <speed>0.0</speed>
  <fix>3d</fix>
</trkpt>
<trkpt lat="40.071375" lon="-105.2297889">
  <ele>1583.0</ele>
  <time>2026-08-28T17:53:57Z</time>
  <course>247.24</course>
  <speed>0.022360679774997897</speed>
  <fix>3d</fix>
</trkpt>
<trkpt lat="40.0713749" lon="-105.229789">
  <ele>1583.0</ele>
  <time>2026-08-28T17:53:57Z</time>
  <course>0.0</course>
  <speed>0.0</speed>
  <fix>3d</fix>
</trkpt>
<trkpt lat="40.071375" lon="-105.2297889">
  <ele>1583.0</ele>
  <time>2026-08-28T17:53:57Z</time>
  <course>247.24</course>
  <speed>0.022360679774997897</speed>
  <fix>3d</fix>
</trkpt>
<trkpt lat="40.0713749" lon="-105.229789">
  <ele>1583.0</ele>
  <time>2026-08-28T17:53:57Z</time>
  <course>0.0</course>
  <speed>0.0</speed>
  <fix>3d</fix>
</trkpt>
<trkpt lat="40.071375" lon="-105.2297889">
  <ele>1583.0</ele>
  <time>2026-08-28T17:53:57Z</time>
  <course>247.23</course>
  <speed>0.022360679774997897</speed>
  <fix>3d</fix>
</trkpt>
<trkpt lat="40.0713749" lon="-105.229789">
  <ele>1583.0</ele>
  <time>2026-08-28T17:53:57Z</time>
  <course>0.0</course>
  <speed>0.0</speed>
  <fix>3d</fix>
</trkpt>
<trkpt lat="40.071375" lon="-105.2297889">
  <ele>1583.0</ele>
  <time>2026-08-28T17:53:57Z</time>
  <course>247.23</course>
  <speed>0.022360679774997897</speed>
  <fix>3d</fix>
</trkpt>
<trkpt lat="40.0713749" lon="-105.229789">
  <ele>1583.0</ele>
  <time>2026-08-28T17:53:57Z</time>
  <course>0.0</course>
  <speed>0.0</speed>
  <fix>3d</fix>
</trkpt>
<trkpt lat="40.071375" lon="-105.2297889">
  <ele>1583.0</ele>
  <time>2026-08-28T17:53:57Z</time>
  <course>247.23</course>
  <speed>0.022360679774997897</speed>
  <fix>3d</fix>
</trkpt>
<trkpt lat="40.0713749" lon="-105.229789">
  <ele>1583.0</ele>
  <time>2026-08-28T17:53:57Z</time>
  <course>0.0</course>
  <speed>0.0</speed>
  <fix>3d</fix>
</trkpt>
<trkpt lat="40.071375" lon="-105.2297889">
  <ele>1583.01</ele>
  <time>2026-08-28T17:53:57Z</time>
  <course>247.23</course>
  <speed>0.022360679774997897</speed>
  <fix>3d</fix>
</trkpt>
<trkpt lat="40.0713749" lon="-105.229789">
  <ele>1583.0</ele>
  <time>2026-08-28T17:53:57Z</time>
  <course>0.0</course>
  <speed>0.0</speed>
  <fix>3d</fix>
</trkpt>
<trkpt lat="40.071375" lon="-105.2297889">
  <ele>1583.01</ele>
  <time>2026-08-28T17:53:57Z</time>
  <course>247.23</course>
  <speed>0.022360679774997897</speed>
  <fix>3d</fix>
</trkpt>
<trkpt lat="40.0713749" lon="-105.229789">
  <ele>1583.0</ele>
  <time>2026-08-28T17:53:57Z</time>
  <course>0.0</course>
  <speed>0.0</speed>
  <fix>3d</fix>
</trkpt>
<trkpt lat="40.071375" lon="-105.2297889">
  <ele>1583.01</ele>
  <time>2026-08-28T17:53:57Z</time>
  <course>247.23</course>
  <speed>0.022360679774997897</speed>
  <fix>3d</fix>
</trkpt>
<trkpt lat="40.0713749" lon="-105.229789">
  <ele>1583.0</ele>
  <time>2026-08-28T17:53:57Z</time>
  <course>0.0</course>
  <speed>0.0</speed>
  <fix>3d</fix>
</trkpt>
<trkpt lat="40.071375" lon="-105.2297889">
  <ele>1583.01</ele>
  <time>2026-08-28T17:53:57Z</time>
  <course>247.23</course>
  <speed>0.022360679774997897</speed>
  <fix>3d</fix>
</trkpt>
<trkpt lat="40.0713749" lon="-105.229789">
  <ele>1583.0</ele>
  <time>2026-08-28T17:53:57Z</time>
  <course>0.0</course>
  <speed>0.0</speed>
  <fix>3d</fix>
</trkpt>
<trkpt lat="40.071375" lon="-105.2297889">
  <ele>1583.01</ele>
  <time>2026-08-28T17:53:57Z</time>
  <course>247.23</course>
  <speed>0.022360679774997897</speed>
  <fix>3d</fix>
</trkpt>
<trkpt lat="40.0713749" lon="-105.229789">
  <ele>1583.0</ele>
  <time>2026-08-28T17:53:57Z</time>
  <course>0.0</course>
  <speed>0.0</speed>
  <fix>3d</fix>
</trkpt>
<trkpt lat="40.071375" lon="-105.2297889">
  <ele>1583.01</ele>
  <time>2026-08-28T17:53:57Z</time>
  <course>247.23</course>
  <speed>0.022360679774997897</speed>
  <fix>3d</fix>
</trkpt>
<trkpt lat="40.0713749" lon="-105.229789">
  <ele>1583.0</ele>
  <time>2026-08-28T17:53:57Z</time>
  <course>0.0</course>
  <speed>0.0</speed>
  <fix>3d</fix>
</trkpt>
<trkpt lat="40.071375" lon="-105.2297889">
  <ele>1583.01</ele>
  <time>2026-08-28T17:53:57Z</time>
  <course>247.23</course>
  <speed>0.022360679774997897</speed>
  <fix>3d</fix>
</trkpt>
<trkpt lat="40.0713749" lon="-105.229789">
  <ele>1583.0</ele>
  <time>2026-08-28T17:53:57Z</time>
  <course>0.0</course>
  <speed>0.0</speed>
  <fix>3d</fix>
</trkpt>
<trkpt lat="40.071375" lon="-105.2297889">
  <ele>1583.02</ele>
  <time>2026-08-28T17:53:57Z</time>
  <course>247.23</course>
  <speed>0.022360679774997897</speed>
  <fix>3d</fix>
</trkpt>
<trkpt lat="40.0713749" lon="-105.229789">
  <ele>1583.0</ele>
  <time>2026-08-28T17:53:57Z</time>
  <course>0.0</course>
  <speed>0.0</speed>
  <fix>3d</fix>
</trkpt>
<trkpt lat="40.071375" lon="-105.2297889">
  <ele>1583.02</ele>
  <time>2026-08-28T17:53:57Z</time>
  <course>247.23</course>
  <speed>0.022360679774997897</speed>
  <fix>3d</fix>
</trkpt>
<trkpt lat="40.0713749" lon="-105.229789">
  <ele>1583.0</ele>
  <time>2026-08-28T17:53:57Z</time>
  <course>0.0</course>
  <speed>0.0</speed>
  <fix>3d</fix>
</trkpt>
<trkpt lat="40.071375" lon="-105.2297889">
  <ele>1583.02</ele>
  <time>2026-08-28T17:53:57Z</time>
  <course>247.22</course>
  <speed>0.022360679774997897</speed>
  <fix>3d</fix>
</trkpt>
<trkpt lat="40.0713749" lon="-105.229789">
  <ele>1583.0</ele>
  <time>2026-08-28T17:53:57Z</time>
  <course>0.0</course>
  <speed>0.0</speed>
  <fix>3d</fix>
</trkpt>
<trkpt lat="40.071375" lon="-105.2297889">
  <ele>1583.02</ele>
  <time>2026-08-28T17:53:57Z</time>
  <course>247.22</course>
  <speed>0.022360679774997897</speed>
  <fix>3d</fix>
</trkpt>
<trkpt lat="40.0713749" lon="-105.229789">
  <ele>1583.0</ele>
  <time>2026-08-28T17:53:57Z</time>
  <course>0.0</course>
  <speed>0.0</speed>
  <fix>3d</fix>
</trkpt>
<trkpt lat="40.0713751" lon="-105.2297889">
  <ele>1583.02</ele>
  <time>2026-08-28T17:53:57Z</time>
  <course>247.22</course>
  <speed>0.022360679774997897</speed>
  <fix>3d</fix>
</trkpt>
<trkpt lat="40.0713749" lon="-105.229789">
  <ele>1583.0</ele>
  <time>2026-08-28T17:53:57Z</time>
  <course>0.0</course>
  <speed>0.0</speed>
  <fix>3d</fix>
</trkpt>
<trkpt lat="40.071375" lon="-105.2297889">
  <ele>1583.02</ele>
  <time>2026-08-28T17:53:57Z</time>
  <course>247.22</course>
  <speed>0.022360679774997897</speed>
  <fix>3d</fix>
</trkpt>
<trkpt lat="40.0713749" lon="-105.229789">
  <ele>1583.0</ele>
  <time>2026-08-28T17:53:57Z</time>
  <course>0.0</course>
  <speed>0.0</speed>
  <fix>3d</fix>
</trkpt>
<trkpt lat="40.0713751" lon="-105.2297889">
  <ele>1583.02</ele>
  <time>2026-08-28T17:53:57Z</time>
  <course>247.22</course>
  <speed>0.022360679774997897</speed>
  <fix>3d</fix>
</trkpt>
<trkpt lat="40.0713749" lon="-105.229789">
  <ele>1583.0</ele>
  <time>2026-08-28T17:53:57Z</time>
  <course>0.0</course>
  <speed>0.0</speed>
  <fix>3d</fix>
</trkpt>
<trkpt lat="40.071375" lon="-105.2297889">
  <ele>1583.02</ele>
  <time>2026-08-28T17:53:57Z</time>
  <course>247.22</course>
  <speed>0.022360679774997897</speed>
  <fix>3d</fix>
</trkpt>
<trkpt lat="40.0713749" lon="-105.229789">
  <ele>1583.0</ele>
  <time>2026-08-28T17:53:57Z</time>
  <course>0.0</course>
  <speed>0.0</speed>
  <fix>3d</fix>
</trkpt>
<trkpt lat="40.071375" lon="-105.2297889">
  <ele>1583.01</ele>
  <time>2026-08-28T17:53:57Z</time>
  <course>247.22</course>
  <speed>0.022360679774997897</speed>
  <fix>3d</fix>
</trkpt>
<trkpt lat="40.0713749" lon="-105.229789">
  <ele>1583.0</ele>
  <time>2026-08-28T17:53:57Z</time>
  <course>0.0</course>
  <speed>0.0</speed>
  <fix>3d</fix>
</trkpt>
<trkpt lat="40.071375" lon="-105.2297889">
  <ele>1583.01</ele>
  <time>2026-08-28T17:53:57Z</time>
  <course>247.22</course>
  <speed>0.022360679774997897</speed>
  <fix>3d</fix>
</trkpt>
<trkpt lat="40.0713749" lon="-105.229789">
  <ele>1583.0</ele>
  <time>2026-08-28T17:53:57Z</time>
  <course>0.0</course>
  <speed>0.0</speed>
  <fix>3d</fix>
</trkpt>
<trkpt lat="40.071375" lon="-105.2297889">
  <ele>1583.01</ele>
  <time>2026-08-28T17:53:57Z</time>
  <course>247.22</course>
  <speed>0.022360679774997897</speed>
  <fix>3d</fix>
</trkpt>
<trkpt lat="40.0713749" lon="-105.229789">
  <ele>1583.0</ele>
  <time>2026-08-28T17:53:57Z</time>
  <course>0.0</course>
  <speed>0.0</speed>
  <fix>3d</fix>
</trkpt>
<trkpt lat="40.071375" lon="-105.2297889">
  <ele>1583.01</ele>
  <time>2026-08-28T17:53:57Z</time>
  <course>247.22</course>
  <speed>0.022360679774997897</speed>
  <fix>3d</fix>
</trkpt>
<trkpt lat="40.0713749" lon="-105.229789">
  <ele>1583.0</ele>
  <time>2026-08-28T17:53:57Z</time>
  <course>0.0</course>
  <speed>0.0</speed>
  <fix>3d</fix>
</trkpt>
<trkpt lat="40.071375" lon="-105.2297889">
  <ele>1583.0</ele>
  <time>2026-08-28T17:53:57Z</time>
  <course>247.22</course>
  <speed>0.022360679774997897</speed>
  <fix>3d</fix>
</trkpt>
<trkpt lat="40.0713749" lon="-105.229789">
  <ele>1583.0</ele>
  <time>2026-08-28T17:53:57Z</time>
  <course>0.0</course>
  <speed>0.0</speed>
  <fix>3d</fix>
</trkpt>
<trkpt lat="40.071375" lon="-105.2297889">
  <ele>1583.0</ele>
  <time>2026-08-28T17:53:57Z</time>
  <course>247.22</course>
  <speed>0.022360679774997897</speed>
  <fix>3d</fix>
</trkpt>
<trkpt lat="40.0713749" lon="-105.229789">
  <ele>1583.0</ele>
  <time>2026-08-28T17:53:57Z</time>
  <course>0.0</course>
  <speed>0.0</speed>
  <fix>3d</fix>
</trkpt>
<trkpt lat="40.071375" lon="-105.2297889">
  <ele>1583.0</ele>
  <time>2026-08-28T17:53:57Z</time>
  <course>247.21</course>
  <speed>0.022360679774997897</speed>
  <fix>3d</fix>
</trkpt>
<trkpt lat="40.0713749" lon="-105.229789">
  <ele>1583.0</ele>
  <time>2026-08-28T17:53:57Z</time>
  <course>0.0</course>
  <speed>0.0</speed>
  <fix>3d</fix>
</trkpt>
<trkpt lat="40.071375" lon="-105.2297889">
  <ele>1583.0</ele>
  <time>2026-08-28T17:53:57Z</time>
  <course>247.21</course>
  <speed>0.022360679774997897</speed>
  <fix>3d</fix>
</trkpt>
<trkpt lat="40.0713749" lon="-105.229789">
  <ele>1583.0</ele>
  <time>2026-08-28T17:53:57Z</time>
  <course>0.0</course>
  <speed>0.0</speed>
  <fix>3d</fix>
</trkpt>
<trkpt lat="40.071375" lon="-105.2297889">
  <ele>1582.99</ele>
  <time>2026-08-28T17:53:57Z</time>
  <course>247.21</course>
  <speed>0.022360679774997897</speed>
  <fix>3d</fix>
</trkpt>
<trkpt lat="40.0713749" lon="-105.229789">
  <ele>1583.0</ele>
  <time>2026-08-28T17:53:57Z</time>
  <course>0.0</course>
  <speed>0.0</speed>
  <fix>3d</fix>
</trkpt>
<trkpt lat="40.071375" lon="-105.2297889">
  <ele>1582.99</ele>
  <time>2026-08-28T17:53:57Z</time>
  <course>247.21</course>
  <speed>0.022360679774997897</speed>
  <fix>3d</fix>
</trkpt>
<trkpt lat="40.0713749" lon="-105.229789">
  <ele>1583.0</ele>
  <time>2026-08-28T17:53:57Z</time>
  <course>0.0</course>
  <speed>0.0</speed>
  <fix>3d</fix>
</trkpt>
<trkpt lat="40.071375" lon="-105.2297889">
  <ele>1582.99</ele>
  <time>2026-08-28T17:53:57Z</time>
  <course>247.21</course>
  <speed>0.022360679774997897</speed>
  <fix>3d</fix>
</trkpt>
<trkpt lat="40.0713749" lon="-105.229789">
  <ele>1583.0</ele>
  <time>2026-08-28T17:53:57Z</time>
  <course>0.0</course>
  <speed>0.0</speed>
  <fix>3d</fix>
</trkpt>
<trkpt lat="40.071375" lon="-105.2297889">
  <ele>1582.99</ele>
  <time>2026-08-28T17:53:57Z</time>
  <course>247.21</course>
  <speed>0.022360679774997897</speed>
  <fix>3d</fix>
</trkpt>
<trkpt lat="40.0713749" lon="-105.229789">
  <ele>1583.0</ele>
  <time>2026-08-28T17:53:57Z</time>
  <course>0.0</course>
  <speed>0.0</speed>
  <fix>3d</fix>
</trkpt>
<trkpt lat="40.071375" lon="-105.2297889">
  <ele>1582.99</ele>
  <time>2026-08-28T17:53:57Z</time>
  <course>247.21</course>
  <speed>0.022360679774997897</speed>
  <fix>3d</fix>
</trkpt>
<trkpt lat="40.0713749" lon="-105.229789">
  <ele>1583.0</ele>
  <time>2026-08-28T17:53:57Z</time>
  <course>0.0</course>
  <speed>0.0</speed>
  <fix>3d</fix>
</trkpt>
<trkpt lat="40.071375" lon="-105.2297889">
  <ele>1582.99</ele>
  <time>2026-08-28T17:53:57Z</time>
  <course>247.21</course>
  <speed>0.022360679774997897</speed>
  <fix>3d</fix>
</trkpt>
<trkpt lat="40.0713749" lon="-105.229789">
  <ele>1583.0</ele>
  <time>2026-08-28T17:53:57Z</time>
  <course>0.0</course>
  <speed>0.0</speed>
  <fix>3d</fix>
</trkpt>
<trkpt lat="40.0713751" lon="-105.2297889">
  <ele>1582.99</ele>
  <time>2026-08-28T17:53:57Z</time>
  <course>247.21</course>
  <speed>0.022360679774997897</speed>
  <fix>3d</fix>
</trkpt>
<trkpt lat="40.0713749" lon="-105.229789">
  <ele>1583.0</ele>
  <time>2026-08-28T17:53:57Z</time>
  <course>0.0</course>
  <speed>0.0</speed>
  <fix>3d</fix>
</trkpt>
<trkpt lat="40.071375" lon="-105.2297889">
  <ele>1582.99</ele>
  <time>2026-08-28T17:53:57Z</time>
  <course>247.21</course>
  <speed>0.022360679774997897</speed>
  <fix>3d</fix>
</trkpt>
<trkpt lat="40.0713749" lon="-105.229789">
  <ele>1583.0</ele>
  <time>2026-08-28T17:53:57Z</time>
  <course>0.0</course>
  <speed>0.0</speed>
  <fix>3d</fix>
</trkpt>
<trkpt lat="40.0713751" lon="-105.2297889">
  <ele>1582.99</ele>
  <time>2026-08-28T17:53:57Z</time>
  <course>247.21</course>
  <speed>0.022360679774997897</speed>
  <fix>3d</fix>
</trkpt>
<trkpt lat="40.0713749" lon="-105.229789">
  <ele>1583.0</ele>
  <time>2026-08-28T17:53:57Z</time>
  <course>0.0</course>
  <speed>0.0</speed>
  <fix>3d</fix>
</trkpt>
<trkpt lat="40.071375" lon="-105.2297889">
  <ele>1582.99</ele>
  <time>2026-08-28T17:53:57Z</time>
  <course>247.21</course>
  <speed>0.022360679774997897</speed>
  <fix>3d</fix>
</trkpt>
<trkpt lat="40.0713749" lon="-105.229789">
  <ele>1583.0</ele>
  <time>2026-08-28T17:53:57Z</time>
  <course>0.0</course>
  <speed>0.0</speed>
  <fix>3d</fix>
</trkpt>
<trkpt lat="40.0713751" lon="-105.2297889">
  <ele>1582.99</ele>
  <time>2026-08-28T17:53:57Z</time>
  <course>247.21</course>
  <speed>0.022360679774997897</speed>
  <fix>3d</fix>
</trkpt>
<trkpt lat="40.0713749" lon="-105.229789">
  <ele>1583.0</ele>
  <time>2026-08-28T17:53:57Z</time>
  <course>0.0</course>
  <speed>0.0</speed>
  <fix>3d</fix>
</trkpt>
<trkpt lat="40.071375" lon="-105.2297889">
  <ele>1582.99</ele>
  <time>2026-08-28T17:53:57Z</time>
  <course>247.21</course>
  <speed>0.022360679774997897</speed>
  <fix>3d</fix>
</trkpt>
<trkpt lat="40.0713749" lon="-105.229789">
  <ele>1583.0</ele>
  <time>2026-08-28T17:53:57Z</time>
  <course>0.0</course>
  <speed>0.0</speed>
  <fix>3d</fix>
</trkpt>
<trkpt lat="40.0713751" lon="-105.2297889">
  <ele>1582.99</ele>
  <time>2026-08-28T17:53:57Z</time>
  <course>247.2</course>
  <speed>0.022360679774997897</speed>
  <fix>3d</fix>
</trkpt>
<trkpt lat="40.0713749" lon="-105.229789">
  <ele>1583.0</ele>
  <time>2026-08-28T17:53:57Z</time>
  <course>0.0</course>
  <speed>0.0</speed>
  <fix>3d</fix>
</trkpt>
<trkpt lat="40.071375" lon="-105.2297889">
  <ele>1583.0</ele>
  <time>2026-08-28T17:53:57Z</time>
  <course>247.2</course>
  <speed>0.022360679774997897</speed>
  <fix>3d</fix>
</trkpt>
<trkpt lat="40.0713749" lon="-105.229789">
  <ele>1583.0</ele>
  <time>2026-08-28T17:53:57Z</time>
  <course>0.0</course>
  <speed>0.0</speed>
  <fix>3d</fix>
</trkpt>
<trkpt lat="40.071375" lon="-105.2297889">
  <ele>1583.0</ele>
  <time>2026-08-28T17:53:57Z</time>
  <course>247.2</course>
  <speed>0.022360679774997897</speed>
  <fix>3d</fix>
</trkpt>
<trkpt lat="40.0713749" lon="-105.229789">
  <ele>1583.0</ele>
  <time>2026-08-28T17:53:57Z</time>
  <course>0.0</course>
  <speed>0.0</speed>
  <fix>3d</fix>
</trkpt>
<trkpt lat="40.071375" lon="-105.2297889">
  <ele>1582.99</ele>
  <time>2026-08-28T17:53:57Z</time>
  <course>247.2</course>
  <speed>0.022360679774997897</speed>
  <fix>3d</fix>
</trkpt>
<trkpt lat="40.0713749" lon="-105.229789">
  <ele>1583.0</ele>
  <time>2026-08-28T17:53:57Z</time>
  <course>0.0</course>
  <speed>0.0</speed>
  <fix>3d</fix>
</trkpt>
<trkpt lat="40.071375" lon="-105.2297889">
  <ele>1582.99</ele>
  <time>2026-08-28T17:53:57Z</time>
  <course>247.2</course>
  <speed>0.022360679774997897</speed>
  <fix>3d</fix>
</trkpt>
<trkpt lat="40.0713749" lon="-105.229789">
  <ele>1583.0</ele>
  <time>2026-08-28T17:53:57Z</time>
  <course>0.0</course>
  <speed>0.0</speed>
  <fix>3d</fix>
</trkpt>
<trkpt lat="40.071375" lon="-105.2297889">
  <ele>1582.99</ele>
  <time>2026-08-28T17:53:57Z</time>
  <course>247.2</course>
  <speed>0.022360679774997897</speed>
  <fix>3d</fix>
</trkpt>
<trkpt lat="40.0713749" lon="-105.229789">
  <ele>1583.0</ele>
  <time>2026-08-28T17:53:57Z</time>
  <course>0.0</course>
  <speed>0.0</speed>
  <fix>3d</fix>
</trkpt>
<trkpt lat="40.071375" lon="-105.2297889">
  <ele>1582.99</ele>
  <time>2026-08-28T17:53:57Z</time>
  <course>247.2</course>
  <speed>0.022360679774997897</speed>
  <fix>3d</fix>
</trkpt>
<trkpt lat="40.0713749" lon="-105.229789">
  <ele>1583.0</ele>
  <time>2026-08-28T17:53:57Z</time>
  <course>0.0</course>
  <speed>0.0</speed>
  <fix>3d</fix>
</trkpt>
<trkpt lat="40.071375" lon="-105.2297889">
  <ele>1582.99</ele>
  <time>2026-08-28T17:53:57Z</time>
  <course>247.2</course>
  <speed>0.022360679774997897</speed>
  <fix>3d</fix>
</trkpt>
<trkpt lat="40.0713749" lon="-105.229789">
  <ele>1583.0</ele>
  <time>2026-08-28T17:53:57Z</time>
  <course>0.0</course>
  <speed>0.0</speed>
  <fix>3d</fix>
</trkpt>
<trkpt lat="40.071375" lon="-105.2297889">
  <ele>1582.99</ele>
  <time>2026-08-28T17:53:57Z</time>
  <course>247.2</course>
  <speed>0.022360679774997897</speed>
  <fix>3d</fix>
</trkpt>
<trkpt lat="40.0713749" lon="-105.229789">
  <ele>1583.0</ele>
  <time>2026-08-28T17:53:57Z</time>
  <course>0.0</course>
  <speed>0.0</speed>
  <fix>3d</fix>
</trkpt>
<trkpt lat="40.071375" lon="-105.2297889">
  <ele>1582.99</ele>
  <time>2026-08-28T17:53:57Z</time>
  <course>247.2</course>
  <speed>0.022360679774997897</speed>
  <fix>3d</fix>
</trkpt>
<trkpt lat="40.0713749" lon="-105.229789">
  <ele>1583.0</ele>
  <time>2026-08-28T17:53:57Z</time>
  <course>0.0</course>
  <speed>0.0</speed>
  <fix>3d</fix>
</trkpt>
<trkpt lat="40.071375" lon="-105.2297889">
  <ele>1582.99</ele>
  <time>2026-08-28T17:53:57Z</time>
  <course>247.2</course>
  <speed>0.022360679774997897</speed>
  <fix>3d</fix>
</trkpt>
<trkpt lat="40.0713749" lon="-105.229789">
  <ele>1583.0</ele>
  <time>2026-08-28T17:53:57Z</time>
  <course>0.0</course>
  <speed>0.0</speed>
  <fix>3d</fix>
</trkpt>
<trkpt lat="40.071375" lon="-105.2297889">
  <ele>1582.99</ele>
  <time>2026-08-28T17:53:57Z</time>
  <course>247.2</course>
  <speed>0.022360679774997897</speed>
  <fix>3d</fix>
</trkpt>
<trkpt lat="40.0713749" lon="-105.229789">
  <ele>1583.0</ele>
  <time>2026-08-28T17:53:57Z</time>
  <course>0.0</course>
  <speed>0.0</speed>
  <fix>3d</fix>
</trkpt>
<trkpt lat="40.071375" lon="-105.2297889">
  <ele>1582.99</ele>
  <time>2026-08-28T17:53:57Z</time>
  <course>247.2</course>
  <speed>0.022360679774997897</speed>
  <fix>3d</fix>
</trkpt>
<trkpt lat="40.0713749" lon="-105.229789">
  <ele>1583.0</ele>
  <time>2026-08-28T17:53:57Z</time>
  <course>0.0</course>
  <speed>0.0</speed>
  <fix>3d</fix>
</trkpt>
<trkpt lat="40.071375" lon="-105.2297889">
  <ele>1582.99</ele>
  <time>2026-08-28T17:53:57Z</time>
  <course>247.2</course>
  <speed>0.022360679774997897</speed>
  <fix>3d</fix>
</trkpt>
<trkpt lat="40.0713749" lon="-105.229789">
  <ele>1583.0</ele>
  <time>2026-08-28T17:53:57Z</time>
  <course>0.0</course>
  <speed>0.0</speed>
  <fix>3d</fix>
</trkpt>
<trkpt lat="40.0713751" lon="-105.2297889">
  <ele>1582.99</ele>
  <time>2026-08-28T17:53:57Z</time>
  <course>247.2</course>
  <speed>0.022360679774997897</speed>
  <fix>3d</fix>
</trkpt>
<trkpt lat="40.0713749" lon="-105.229789">
  <ele>1583.0</ele>
  <time>2026-08-28T17:53:57Z</time>
  <course>0.0</course>
  <speed>0.0</speed>
  <fix>3d</fix>
</trkpt>
<trkpt lat="40.071375" lon="-105.2297889">
  <ele>1583.0</ele>
  <time>2026-08-28T17:53:57Z</time>
  <course>247.19</course>
  <speed>0.022360679774997897</speed>
  <fix>3d</fix>
</trkpt>
<trkpt lat="40.0713749" lon="-105.229789">
  <ele>1583.0</ele>
  <time>2026-08-28T17:53:57Z</time>
  <course>0.0</course>
  <speed>0.0</speed>
  <fix>3d</fix>
</trkpt>
<trkpt lat="40.0713751" lon="-105.2297889">
  <ele>1583.0</ele>
  <time>2026-08-28T17:53:57Z</time>
  <course>247.19</course>
  <speed>0.022360679774997897</speed>
  <fix>3d</fix>
</trkpt>
<trkpt lat="40.0713749" lon="-105.229789">
  <ele>1583.0</ele>
  <time>2026-08-28T17:53:57Z</time>
  <course>0.0</course>
  <speed>0.0</speed>
  <fix>3d</fix>
</trkpt>
<trkpt lat="40.071375" lon="-105.2297889">
  <ele>1583.0</ele>
  <time>2026-08-28T17:53:57Z</time>
  <course>247.19</course>
  <speed>0.022360679774997897</speed>
  <fix>3d</fix>
</trkpt>
<trkpt lat="40.0713749" lon="-105.229789">
  <ele>1583.0</ele>
  <time>2026-08-28T17:53:57Z</time>
  <course>0.0</course>
  <speed>0.0</speed>
  <fix>3d</fix>
</trkpt>
<trkpt lat="40.0713751" lon="-105.2297889">
  <ele>1583.01</ele>
  <time>2026-08-28T17:53:57Z</time>
  <course>247.19</course>
  <speed>0.022360679774997897</speed>
  <fix>3d</fix>
</trkpt>
<trkpt lat="40.0713749" lon="-105.229789">
  <ele>1583.0</ele>
  <time>2026-08-28T17:53:57Z</time>
  <course>0.0</course>
  <speed>0.0</speed>
  <fix>3d</fix>
</trkpt>
<trkpt lat="40.071375" lon="-105.2297889">
  <ele>1583.01</ele>
  <time>2026-08-28T17:53:57Z</time>
  <course>247.19</course>
  <speed>0.022360679774997897</speed>
  <fix>3d</fix>
</trkpt>
<trkpt lat="40.0713749" lon="-105.229789">
  <ele>1583.0</ele>
  <time>2026-08-28T17:53:57Z</time>
  <course>0.0</course>
  <speed>0.0</speed>
  <fix>3d</fix>
</trkpt>
<trkpt lat="40.0713751" lon="-105.2297889">
  <ele>1583.01</ele>
  <time>2026-08-28T17:53:57Z</time>
  <course>247.19</course>
  <speed>0.022360679774997897</speed>
  <fix>3d</fix>
</trkpt>
<trkpt lat="40.0713749" lon="-105.229789">
  <ele>1583.0</ele>
  <time>2026-08-28T17:53:57Z</time>
  <course>0.0</course>
  <speed>0.0</speed>
  <fix>3d</fix>
</trkpt>
<trkpt lat="40.071375" lon="-105.2297889">
  <ele>1583.01</ele>
  <time>2026-08-28T17:53:57Z</time>
  <course>247.19</course>
  <speed>0.022360679774997897</speed>
  <fix>3d</fix>
</trkpt>
<trkpt lat="40.0713749" lon="-105.229789">
  <ele>1583.0</ele>
  <time>2026-08-28T17:53:57Z</time>
  <course>0.0</course>
  <speed>0.0</speed>
  <fix>3d</fix>
</trkpt>
<trkpt lat="40.071375" lon="-105.2297889">
  <ele>1583.01</ele>
  <time>2026-08-28T17:53:57Z</time>
  <course>247.19</course>
  <speed>0.022360679774997897</speed>
  <fix>3d</fix>
</trkpt>
<trkpt lat="40.0713749" lon="-105.229789">
  <ele>1583.0</ele>
  <time>2026-08-28T17:53:57Z</time>
  <course>0.0</course>
  <speed>0.0</speed>
  <fix>3d</fix>
</trkpt>
<trkpt lat="40.071375" lon="-105.2297889">
  <ele>1583.01</ele>
  <time>2026-08-28T17:53:57Z</time>
  <course>247.19</course>
  <speed>0.022360679774997897</speed>
  <fix>3d</fix>
</trkpt>
<trkpt lat="40.0713749" lon="-105.229789">
  <ele>1583.0</ele>
  <time>2026-08-28T17:53:57Z</time>
  <course>0.0</course>
  <speed>0.0</speed>
  <fix>3d</fix>
</trkpt>
<trkpt lat="40.071375" lon="-105.2297889">
  <ele>1583.02</ele>
  <time>2026-08-28T17:53:57Z</time>
  <course>247.19</course>
  <speed>0.022360679774997897</speed>
  <fix>3d</fix>
</trkpt>
<trkpt lat="40.0713749" lon="-105.229789">
  <ele>1583.0</ele>
  <time>2026-08-28T17:53:57Z</time>
  <course>0.0</course>
  <speed>0.0</speed>
  <fix>3d</fix>
</trkpt>
<trkpt lat="40.071375" lon="-105.2297889">
  <ele>1583.02</ele>
  <time>2026-08-28T17:53:57Z</time>
  <course>247.19</course>
  <speed>0.022360679774997897</speed>
  <fix>3d</fix>
</trkpt>
<trkpt lat="40.0713749" lon="-105.229789">
  <ele>1583.0</ele>
  <time>2026-08-28T17:53:57Z</time>
  <course>0.0</course>
  <speed>0.0</speed>
  <fix>3d</fix>
</trkpt>
<trkpt lat="40.071375" lon="-105.2297889">
  <ele>1583.02</ele>
  <time>2026-08-28T17:53:57Z</time>
  <course>247.19</course>
  <speed>0.022360679774997897</speed>
  <fix>3d</fix>
</trkpt>
<trkpt lat="40.0713749" lon="-105.229789">
  <ele>1583.0</ele>
  <time>2026-08-28T17:53:57Z</time>
  <course>0.0</course>
  <speed>0.0</speed>
  <fix>3d</fix>
</trkpt>
<trkpt lat="40.071375" lon="-105.2297889">
  <ele>1583.01</ele>
  <time>2026-08-28T17:53:57Z</time>
  <course>247.19</course>
  <speed>0.022360679774997897</speed>
  <fix>3d</fix>
</trkpt>
<trkpt lat="40.0713749" lon="-105.229789">
  <ele>1583.0</ele>
  <time>2026-08-28T17:53:57Z</time>
  <course>0.0</course>
  <speed>0.0</speed>
  <fix>3d</fix>
</trkpt>
<trkpt lat="40.071375" lon="-105.2297889">
  <ele>1583.01</ele>
  <time>2026-08-28T17:53:57Z</time>
  <course>247.19</course>
  <speed>0.022360679774997897</speed>
  <fix>3d</fix>
</trkpt>
<trkpt lat="40.0713749" lon="-105.229789">
  <ele>1583.0</ele>
  <time>2026-08-28T17:53:57Z</time>
  <course>0.0</course>
  <speed>0.0</speed>
  <fix>3d</fix>
</trkpt>
<trkpt lat="40.071375" lon="-105.2297889">
  <ele>1583.01</ele>
  <time>2026-08-28T17:53:57Z</time>
  <course>247.19</course>
  <speed>0.022360679774997897</speed>
  <fix>3d</fix>
</trkpt>
<trkpt lat="40.0713749" lon="-105.229789">
  <ele>1583.0</ele>
  <time>2026-08-28T17:53:57Z</time>
  <course>0.0</course>
  <speed>0.0</speed>
  <fix>3d</fix>
</trkpt>
<trkpt lat="40.071375" lon="-105.2297889">
  <ele>1583.01</ele>
  <time>2026-08-28T17:53:57Z</time>
  <course>247.18</course>
  <speed>0.022360679774997897</speed>
  <fix>3d</fix>
</trkpt>
<trkpt lat="40.0713749" lon="-105.229789">
  <ele>1583.0</ele>
  <time>2026-08-28T17:53:57Z</time>
  <course>0.0</course>
  <speed>0.0</speed>
  <fix>3d</fix>
</trkpt>
<trkpt lat="40.071375" lon="-105.2297889">
  <ele>1583.01</ele>
  <time>2026-08-28T17:53:57Z</time>
  <course>247.18</course>
  <speed>0.022360679774997897</speed>
  <fix>3d</fix>
</trkpt>
<trkpt lat="40.0713749" lon="-105.229789">
  <ele>1583.0</ele>
  <time>2026-08-28T17:53:57Z</time>
  <course>0.0</course>
  <speed>0.0</speed>
  <fix>3d</fix>
</trkpt>
<trkpt lat="40.071375" lon="-105.2297889">
  <ele>1583.01</ele>
  <time>2026-08-28T17:53:57Z</time>
  <course>247.18</course>
  <speed>0.022360679774997897</speed>
  <fix>3d</fix>
</trkpt>
<trkpt lat="40.0713749" lon="-105.229789">
  <ele>1583.0</ele>
  <time>2026-08-28T17:53:57Z</time>
  <course>0.0</course>
  <speed>0.0</speed>
  <fix>3d</fix>
</trkpt>
<trkpt lat="40.071375" lon="-105.2297889">
  <ele>1583.01</ele>
  <time>2026-08-28T17:53:57Z</time>
  <course>247.18</course>
  <speed>0.022360679774997897</speed>
  <fix>3d</fix>
</trkpt>
<trkpt lat="40.0713749" lon="-105.229789">
  <ele>1583.0</ele>
  <time>2026-08-28T17:53:57Z</time>
  <course>0.0</course>
  <speed>0.0</speed>
  <fix>3d</fix>
</trkpt>
<trkpt lat="40.071375" lon="-105.2297889">
  <ele>1583.01</ele>
  <time>2026-08-28T17:53:57Z</time>
  <course>247.18</course>
  <speed>0.022360679774997897</speed>
  <fix>3d</fix>
</trkpt>
<trkpt lat="40.0713749" lon="-105.229789">
  <ele>1583.0</ele>
  <time>2026-08-28T17:53:57Z</time>
  <course>0.0</course>
  <speed>0.0</speed>
  <fix>3d</fix>
</trkpt>
<trkpt lat="40.071375" lon="-105.2297889">
  <ele>1583.01</ele>
  <time>2026-08-28T17:53:57Z</time>
  <course>247.18</course>
  <speed>0.022360679774997897</speed>
  <fix>3d</fix>
</trkpt>
<trkpt lat="40.0713749" lon="-105.229789">
  <ele>1583.0</ele>
  <time>2026-08-28T17:53:57Z</time>
  <course>0.0</course>
  <speed>0.0</speed>
  <fix>3d</fix>
</trkpt>
<trkpt lat="40.0713751" lon="-105.2297889">
  <ele>1583.01</ele>
  <time>2026-08-28T17:53:57Z</time>
  <course>247.18</course>
  <speed>0.022360679774997897</speed>
  <fix>3d</fix>
</trkpt>
<trkpt lat="40.0713749" lon="-105.229789">
  <ele>1583.0</ele>
  <time>2026-08-28T17:53:57Z</time>
  <course>0.0</course>
  <speed>0.0</speed>
  <fix>3d</fix>
</trkpt>
<trkpt lat="40.071375" lon="-105.2297889">
  <ele>1583.01</ele>
  <time>2026-08-28T17:53:57Z</time>
  <course>247.18</course>
  <speed>0.022360679774997897</speed>
  <fix>3d</fix>
</trkpt>
<trkpt lat="40.0713749" lon="-105.229789">
  <ele>1583.0</ele>
  <time>2026-08-28T17:53:57Z</time>
  <course>0.0</course>
  <speed>0.0</speed>
  <fix>3d</fix>
</trkpt>
<trkpt lat="40.0713751" lon="-105.2297889">
  <ele>1583.01</ele>
  <time>2026-08-28T17:53:57Z</time>
  <course>247.18</course>
  <speed>0.022360679774997897</speed>
  <fix>3d</fix>
</trkpt>
<trkpt lat="40.0713749" lon="-105.229789">
  <ele>1583.0</ele>
  <time>2026-08-28T17:53:57Z</time>
  <course>0.0</course>
  <speed>0.0</speed>
  <fix>3d</fix>
</trkpt>
<trkpt lat="40.071375" lon="-105.2297889">
  <ele>1583.0</ele>
  <time>2026-08-28T17:53:57Z</time>
  <course>247.18</course>
  <speed>0.022360679774997897</speed>
  <fix>3d</fix>
</trkpt>
<trkpt lat="40.0713749" lon="-105.229789">
  <ele>1583.0</ele>
  <time>2026-08-28T17:53:57Z</time>
  <course>0.0</course>
  <speed>0.0</speed>
  <fix>3d</fix>
</trkpt>
<trkpt lat="40.0713751" lon="-105.2297889">
  <ele>1583.0</ele>
  <time>2026-08-28T17:53:57Z</time>
  <course>247.18</course>
  <speed>0.022360679774997897</speed>
  <fix>3d</fix>
</trkpt>
<trkpt lat="40.0713749" lon="-105.229789">
  <ele>1583.0</ele>
  <time>2026-08-28T17:53:57Z</time>
  <course>0.0</course>
  <speed>0.0</speed>
  <fix>3d</fix>
</trkpt>
<trkpt lat="40.071375" lon="-105.2297889">
  <ele>1583.0</ele>
  <time>2026-08-28T17:53:57Z</time>
  <course>247.18</course>
  <speed>0.022360679774997897</speed>
  <fix>3d</fix>
</trkpt>
<trkpt lat="40.0713749" lon="-105.229789">
  <ele>1583.0</ele>
  <time>2026-08-28T17:53:57Z</time>
  <course>0.0</course>
  <speed>0.0</speed>
  <fix>3d</fix>
</trkpt>
<trkpt lat="40.0713751" lon="-105.2297889">
  <ele>1583.0</ele>
  <time>2026-08-28T17:53:57Z</time>
  <course>247.18</course>
  <speed>0.022360679774997897</speed>
  <fix>3d</fix>
</trkpt>
<trkpt lat="40.0713749" lon="-105.229789">
  <ele>1583.0</ele>
  <time>2026-08-28T17:53:57Z</time>
  <course>0.0</course>
  <speed>0.0</speed>
  <fix>3d</fix>
</trkpt>
<trkpt lat="40.071375" lon="-105.2297889">
  <ele>1583.01</ele>
  <time>2026-08-28T17:53:57Z</time>
  <course>247.18</course>
  <speed>0.022360679774997897</speed>
  <fix>3d</fix>
</trkpt>
<trkpt lat="40.0713749" lon="-105.229789">
  <ele>1583.0</ele>
  <time>2026-08-28T17:53:57Z</time>
  <course>0.0</course>
  <speed>0.0</speed>
  <fix>3d</fix>
</trkpt>
<trkpt lat="40.071375" lon="-105.2297889">
  <ele>1583.0</ele>
  <time>2026-08-28T17:53:57Z</time>
  <course>247.17</course>
  <speed>0.022360679774997897</speed>
  <fix>3d</fix>
</trkpt>
<trkpt lat="40.0713749" lon="-105.229789">
  <ele>1583.0</ele>
  <time>2026-08-28T17:53:57Z</time>
  <course>0.0</course>
  <speed>0.0</speed>
  <fix>3d</fix>
</trkpt>
<trkpt lat="40.071375" lon="-105.2297889">
  <ele>1583.0</ele>
  <time>2026-08-28T17:53:57Z</time>
  <course>247.17</course>
  <speed>0.022360679774997897</speed>
  <fix>3d</fix>
</trkpt>
<trkpt lat="40.0713749" lon="-105.229789">
  <ele>1583.0</ele>
  <time>2026-08-28T17:53:57Z</time>
  <course>0.0</course>
  <speed>0.0</speed>
  <fix>3d</fix>
</trkpt>
<trkpt lat="40.071375" lon="-105.2297889">
  <ele>1583.0</ele>
  <time>2026-08-28T17:53:57Z</time>
  <course>247.17</course>
  <speed>0.022360679774997897</speed>
  <fix>3d</fix>
</trkpt>
<trkpt lat="40.0713749" lon="-105.229789">
  <ele>1583.0</ele>
  <time>2026-08-28T17:53:57Z</time>
  <course>0.0</course>
  <speed>0.0</speed>
  <fix>3d</fix>
</trkpt>
<trkpt lat="40.071375" lon="-105.2297889">
  <ele>1582.99</ele>
  <time>2026-08-28T17:53:57Z</time>
  <course>247.17</course>
  <speed>0.022360679774997897</speed>
  <fix>3d</fix>
</trkpt>
<trkpt lat="40.0713749" lon="-105.229789">
  <ele>1583.0</ele>
  <time>2026-08-28T17:53:57Z</time>
  <course>0.0</course>
  <speed>0.0</speed>
  <fix>3d</fix>
</trkpt>
<trkpt lat="40.071375" lon="-105.2297889">
  <ele>1582.99</ele>
  <time>2026-08-28T17:53:57Z</time>
  <course>247.17</course>
  <speed>0.022360679774997897</speed>
  <fix>3d</fix>
</trkpt>
<trkpt lat="40.0713749" lon="-105.229789">
  <ele>1583.0</ele>
  <time>2026-08-28T17:53:57Z</time>
  <course>0.0</course>
  <speed>0.0</speed>
  <fix>3d</fix>
</trkpt>
<trkpt lat="40.071375" lon="-105.2297889">
  <ele>1582.99</ele>
  <time>2026-08-28T17:53:57Z</time>
  <course>247.17</course>
  <speed>0.022360679774997897</speed>
  <fix>3d</fix>
</trkpt>
<trkpt lat="40.0713749" lon="-105.229789">
  <ele>1583.0</ele>
  <time>2026-08-28T17:53:57Z</time>
  <course>0.0</course>
  <speed>0.0</speed>
  <fix>3d</fix>
</trkpt>
<trkpt lat="40.071375" lon="-105.2297889">
  <ele>1582.99</ele>
  <time>2026-08-28T17:53:57Z</time>
  <course>247.17</course>
  <speed>0.022360679774997897</speed>
  <fix>3d</fix>
</trkpt>
<trkpt lat="40.0713749" lon="-105.229789">
  <ele>1583.0</ele>
  <time>2026-08-28T17:53:57Z</time>
  <course>0.0</course>
  <speed>0.0</speed>
  <fix>3d</fix>
</trkpt>
<trkpt lat="40.071375" lon="-105.2297889">
  <ele>1582.99</ele>
  <time>2026-08-28T17:53:57Z</time>
  <course>247.17</course>
  <speed>0.022360679774997897</speed>
  <fix>3d</fix>
</trkpt>
<trkpt lat="40.0713749" lon="-105.229789">
  <ele>1583.0</ele>
  <time>2026-08-28T17:53:57Z</time>
  <course>0.0</course>
  <speed>0.0</speed>
  <fix>3d</fix>
</trkpt>
<trkpt lat="40.071375" lon="-105.2297889">
  <ele>1583.0</ele>
  <time>2026-08-28T17:53:57Z</time>
  <course>247.17</course>
  <speed>0.022360679774997897</speed>
  <fix>3d</fix>
</trkpt>
<trkpt lat="40.0713749" lon="-105.229789">
  <ele>1583.0</ele>
  <time>2026-08-28T17:53:57Z</time>
  <course>0.0</course>
  <speed>0.0</speed>
  <fix>3d</fix>
</trkpt>
<trkpt lat="40.071375" lon="-105.2297889">
  <ele>1583.0</ele>
  <time>2026-08-28T17:53:57Z</time>
  <course>247.17</course>
  <speed>0.022360679774997897</speed>
  <fix>3d</fix>
</trkpt>
<trkpt lat="40.0713749" lon="-105.229789">
  <ele>1583.0</ele>
  <time>2026-08-28T17:53:57Z</time>
  <course>0.0</course>
  <speed>0.0</speed>
  <fix>3d</fix>
</trkpt>
<trkpt lat="40.071375" lon="-105.2297889">
  <ele>1583.0</ele>
  <time>2026-08-28T17:53:57Z</time>
  <course>247.17</course>
  <speed>0.022360679774997897</speed>
  <fix>3d</fix>
</trkpt>
<trkpt lat="40.0713749" lon="-105.229789">
  <ele>1583.0</ele>
  <time>2026-08-28T17:53:57Z</time>
  <course>0.0</course>
  <speed>0.0</speed>
  <fix>3d</fix>
</trkpt>
<trkpt lat="40.071375" lon="-105.2297889">
  <ele>1583.0</ele>
  <time>2026-08-28T17:53:57Z</time>
  <course>247.17</course>
  <speed>0.022360679774997897</speed>
  <fix>3d</fix>
</trkpt>
<trkpt lat="40.0713749" lon="-105.229789">
  <ele>1583.0</ele>
  <time>2026-08-28T17:53:57Z</time>
  <course>0.0</course>
  <speed>0.0</speed>
  <fix>3d</fix>
</trkpt>
<trkpt lat="40.071375" lon="-105.2297889">
  <ele>1583.0</ele>
  <time>2026-08-28T17:53:57Z</time>
  <course>247.17</course>
  <speed>0.022360679774997897</speed>
  <fix>3d</fix>
</trkpt>
<trkpt lat="40.0713749" lon="-105.229789">
  <ele>1583.0</ele>
  <time>2026-08-28T17:53:57Z</time>
  <course>0.0</course>
  <speed>0.0</speed>
  <fix>3d</fix>
</trkpt>
<trkpt lat="40.071375" lon="-105.2297889">
  <ele>1583.0</ele>
  <time>2026-08-28T17:53:57Z</time>
  <course>247.17</course>
  <speed>0.022360679774997897</speed>
  <fix>3d</fix>
</trkpt>
<trkpt lat="40.0713749" lon="-105.229789">
  <ele>1583.0</ele>
  <time>2026-08-28T17:53:57Z</time>
  <course>0.0</course>
  <speed>0.0</speed>
  <fix>3d</fix>
</trkpt>
<trkpt lat="40.071375" lon="-105.2297889">
  <ele>1583.0</ele>
  <time>2026-08-28T17:53:57Z</time>
  <course>247.17</course>
  <speed>0.022360679774997897</speed>
  <fix>3d</fix>
</trkpt>
<trkpt lat="40.0713749" lon="-105.229789">
  <ele>1583.0</ele>
  <time>2026-08-28T17:53:57Z</time>
  <course>0.0</course>
  <speed>0.0</speed>
  <fix>3d</fix>
</trkpt>
<trkpt lat="40.071375" lon="-105.2297889">
  <ele>1583.0</ele>
  <time>2026-08-28T17:53:57Z</time>
  <course>247.17</course>
  <speed>0.022360679774997897</speed>
  <fix>3d</fix>
</trkpt>
<trkpt lat="40.0713749" lon="-105.229789">
  <ele>1583.0</ele>
  <time>2026-08-28T17:53:57Z</time>
  <course>0.0</course>
  <speed>0.0</speed>
  <fix>3d</fix>
</trkpt>
<trkpt lat="40.071375" lon="-105.2297889">
  <ele>1583.0</ele>
  <time>2026-08-28T17:53:57Z</time>
  <course>247.17</course>
  <speed>0.022360679774997897</speed>
  <fix>3d</fix>
</trkpt>
<trkpt lat="40.0713749" lon="-105.229789">
  <ele>1583.0</ele>
  <time>2026-08-28T17:53:57Z</time>
  <course>0.0</course>
  <speed>0.0</speed>
  <fix>3d</fix>
</trkpt>
<trkpt lat="40.071375" lon="-105.2297889">
  <ele>1583.0</ele>
  <time>2026-08-28T17:53:57Z</time>
  <course>247.16</course>
  <speed>0.022360679774997897</speed>
  <fix>3d</fix>
</trkpt>
<trkpt lat="40.0713749" lon="-105.229789">
  <ele>1583.0</ele>
  <time>2026-08-28T17:53:57Z</time>
  <course>0.0</course>
  <speed>0.0</speed>
  <fix>3d</fix>
</trkpt>
<trkpt lat="40.071375" lon="-105.2297889">
  <ele>1583.0</ele>
  <time>2026-08-28T17:53:57Z</time>
  <course>247.16</course>
  <speed>0.022360679774997897</speed>
  <fix>3d</fix>
</trkpt>
<trkpt lat="40.0713749" lon="-105.229789">
  <ele>1583.0</ele>
  <time>2026-08-28T17:53:57Z</time>
  <course>0.0</course>
  <speed>0.0</speed>
  <fix>3d</fix>
</trkpt>
<trkpt lat="40.071375" lon="-105.2297889">
  <ele>1583.0</ele>
  <time>2026-08-28T17:53:57Z</time>
  <course>247.16</course>
  <speed>0.022360679774997897</speed>
  <fix>3d</fix>
</trkpt>
<trkpt lat="40.0713749" lon="-105.229789">
  <ele>1583.0</ele>
  <time>2026-08-28T17:53:57Z</time>
  <course>0.0</course>
  <speed>0.0</speed>
  <fix>3d</fix>
</trkpt>
<trkpt lat="40.071375" lon="-105.2297889">
  <ele>1583.0</ele>
  <time>2026-08-28T17:53:57Z</time>
  <course>247.16</course>
  <speed>0.022360679774997897</speed>
  <fix>3d</fix>
</trkpt>
<trkpt lat="40.0713749" lon="-105.229789">
  <ele>1583.0</ele>
  <time>2026-08-28T17:53:57Z</time>
  <course>0.0</course>
  <speed>0.0</speed>
  <fix>3d</fix>
</trkpt>
<trkpt lat="40.071375" lon="-105.2297889">
  <ele>1583.0</ele>
  <time>2026-08-28T17:53:57Z</time>
  <course>247.16</course>
  <speed>0.022360679774997897</speed>
  <fix>3d</fix>
</trkpt>
<trkpt lat="40.0713749" lon="-105.229789">
  <ele>1583.0</ele>
  <time>2026-08-28T17:53:57Z</time>
  <course>0.0</course>
  <speed>0.0</speed>
  <fix>3d</fix>
</trkpt>
<trkpt lat="40.071375" lon="-105.2297889">
  <ele>1583.0</ele>
  <time>2026-08-28T17:53:57Z</time>
  <course>247.16</course>
  <speed>0.022360679774997897</speed>
  <fix>3d</fix>
</trkpt>
<trkpt lat="40.0713749" lon="-105.229789">
  <ele>1583.0</ele>
  <time>2026-08-28T17:53:57Z</time>
  <course>0.0</course>
  <speed>0.0</speed>
  <fix>3d</fix>
</trkpt>
<trkpt lat="40.071375" lon="-105.2297889">
  <ele>1583.0</ele>
  <time>2026-08-28T17:53:57Z</time>
  <course>247.16</course>
  <speed>0.022360679774997897</speed>
  <fix>3d</fix>
</trkpt>
<trkpt lat="40.0713749" lon="-105.229789">
  <ele>1583.0</ele>
  <time>2026-08-28T17:53:57Z</time>
  <course>0.0</course>
  <speed>0.0</speed>
  <fix>3d</fix>
</trkpt>
<trkpt lat="40.071375" lon="-105.2297889">
  <ele>1583.0</ele>
  <time>2026-08-28T17:53:57Z</time>
  <course>247.16</course>
  <speed>0.022360679774997897</speed>
  <fix>3d</fix>
</trkpt>
<trkpt lat="40.0713749" lon="-105.229789">
  <ele>1583.0</ele>
  <time>2026-08-28T17:53:57Z</time>
  <course>0.0</course>
  <speed>0.0</speed>
  <fix>3d</fix>
</trkpt>
<trkpt lat="40.071375" lon="-105.2297889">
  <ele>1583.0</ele>
  <time>2026-08-28T17:53:57Z</time>
  <course>247.16</course>
  <speed>0.022360679774997897</speed>
  <fix>3d</fix>
</trkpt>
<trkpt lat="40.0713749" lon="-105.229789">
  <ele>1583.0</ele>
  <time>2026-08-28T17:53:57Z</time>
  <course>0.0</course>
  <speed>0.0</speed>
  <fix>3d</fix>
</trkpt>
<trkpt lat="40.071375" lon="-105.2297889">
  <ele>1583.01</ele>
  <time>2026-08-28T17:53:57Z</time>
  <course>247.16</course>
  <speed>0.022360679774997897</speed>
  <fix>3d</fix>
</trkpt>
<trkpt lat="40.0713749" lon="-105.229789">
  <ele>1583.0</ele>
  <time>2026-08-28T17:53:57Z</time>
  <course>0.0</course>
  <speed>0.0</speed>
  <fix>3d</fix>
</trkpt>
<trkpt lat="40.071375" lon="-105.2297889">
  <ele>1583.01</ele>
  <time>2026-08-28T17:53:57Z</time>
  <course>247.16</course>
  <speed>0.022360679774997897</speed>
  <fix>3d</fix>
</trkpt>
<trkpt lat="40.0713749" lon="-105.229789">
  <ele>1583.0</ele>
  <time>2026-08-28T17:53:57Z</time>
  <course>0.0</course>
  <speed>0.0</speed>
  <fix>3d</fix>
</trkpt>
<trkpt lat="40.071375" lon="-105.2297889">
  <ele>1583.01</ele>
  <time>2026-08-28T17:53:57Z</time>
  <course>247.16</course>
  <speed>0.022360679774997897</speed>
  <fix>3d</fix>
</trkpt>
<trkpt lat="40.0713749" lon="-105.229789">
  <ele>1583.0</ele>
  <time>2026-08-28T17:53:57Z</time>
  <course>0.0</course>
  <speed>0.0</speed>
  <fix>3d</fix>
</trkpt>
<trkpt lat="40.071375" lon="-105.2297889">
  <ele>1583.02</ele>
  <time>2026-08-28T17:53:57Z</time>
  <course>247.16</course>
  <speed>0.022360679774997897</speed>
  <fix>3d</fix>
</trkpt>
<trkpt lat="40.0713749" lon="-105.229789">
  <ele>1583.0</ele>
  <time>2026-08-28T17:53:57Z</time>
  <course>0.0</course>
  <speed>0.0</speed>
  <fix>3d</fix>
</trkpt>
<trkpt lat="40.071375" lon="-105.2297889">
  <ele>1583.02</ele>
  <time>2026-08-28T17:53:57Z</time>
  <course>247.16</course>
  <speed>0.022360679774997897</speed>
  <fix>3d</fix>
</trkpt>
<trkpt lat="40.0713749" lon="-105.229789">
  <ele>1583.0</ele>
  <time>2026-08-28T17:53:57Z</time>
  <course>0.0</course>
  <speed>0.0</speed>
  <fix>3d</fix>
</trkpt>
<trkpt lat="40.071375" lon="-105.2297889">
  <ele>1583.02</ele>
  <time>2026-08-28T17:53:57Z</time>
  <course>247.16</course>
  <speed>0.022360679774997897</speed>
  <fix>3d</fix>
</trkpt>
<trkpt lat="40.0713749" lon="-105.229789">
  <ele>1583.0</ele>
  <time>2026-08-28T17:53:57Z</time>
  <course>0.0</course>
  <speed>0.0</speed>
  <fix>3d</fix>
</trkpt>
<trkpt lat="40.071375" lon="-105.2297889">
  <ele>1583.03</ele>
  <time>2026-08-28T17:53:57Z</time>
  <course>247.16</course>
  <speed>0.022360679774997897</speed>
  <fix>3d</fix>
</trkpt>
<trkpt lat="40.0713749" lon="-105.229789">
  <ele>1583.0</ele>
  <time>2026-08-28T17:53:57Z</time>
  <course>0.0</course>
  <speed>0.0</speed>
  <fix>3d</fix>
</trkpt>
<trkpt lat="40.071375" lon="-105.2297889">
  <ele>1583.02</ele>
  <time>2026-08-28T17:53:57Z</time>
  <course>247.16</course>
  <speed>0.022360679774997897</speed>
  <fix>3d</fix>
</trkpt>
<trkpt lat="40.0713749" lon="-105.229789">
  <ele>1583.0</ele>
  <time>2026-08-28T17:53:57Z</time>
  <course>0.0</course>
  <speed>0.0</speed>
  <fix>3d</fix>
</trkpt>
<trkpt lat="40.071375" lon="-105.2297889">
  <ele>1583.02</ele>
  <time>2026-08-28T17:53:57Z</time>
  <course>247.16</course>
  <speed>0.022360679774997897</speed>
  <fix>3d</fix>
</trkpt>
<trkpt lat="40.0713749" lon="-105.229789">
  <ele>1583.0</ele>
  <time>2026-08-28T17:53:57Z</time>
  <course>0.0</course>
  <speed>0.0</speed>
  <fix>3d</fix>
</trkpt>
<trkpt lat="40.071375" lon="-105.2297889">
  <ele>1583.02</ele>
  <time>2026-08-28T17:53:57Z</time>
  <course>247.16</course>
  <speed>0.022360679774997897</speed>
  <fix>3d</fix>
</trkpt>
<trkpt lat="40.0713749" lon="-105.229789">
  <ele>1583.0</ele>
  <time>2026-08-28T17:53:57Z</time>
  <course>0.0</course>
  <speed>0.0</speed>
  <fix>3d</fix>
</trkpt>
<trkpt lat="40.071375" lon="-105.2297889">
  <ele>1583.02</ele>
  <time>2026-08-28T17:53:57Z</time>
  <course>247.15</course>
  <speed>0.022360679774997897</speed>
  <fix>3d</fix>
</trkpt>
<trkpt lat="40.0713749" lon="-105.229789">
  <ele>1583.0</ele>
  <time>2026-08-28T17:53:57Z</time>
  <course>0.0</course>
  <speed>0.0</speed>
  <fix>3d</fix>
</trkpt>
<trkpt lat="40.071375" lon="-105.2297889">
  <ele>1583.02</ele>
  <time>2026-08-28T17:53:57Z</time>
  <course>247.15</course>
  <speed>0.022360679774997897</speed>
  <fix>3d</fix>
</trkpt>
<trkpt lat="40.0713749" lon="-105.229789">
  <ele>1583.0</ele>
  <time>2026-08-28T17:53:57Z</time>
  <course>0.0</course>
  <speed>0.0</speed>
  <fix>3d</fix>
</trkpt>
<trkpt lat="40.071375" lon="-105.2297889">
  <ele>1583.01</ele>
  <time>2026-08-28T17:53:57Z</time>
  <course>247.15</course>
  <speed>0.022360679774997897</speed>
  <fix>3d</fix>
</trkpt>
<trkpt lat="40.0713749" lon="-105.229789">
  <ele>1583.0</ele>
  <time>2026-08-28T17:53:57Z</time>
  <course>0.0</course>
  <speed>0.0</speed>
  <fix>3d</fix>
</trkpt>
<trkpt lat="40.071375" lon="-105.2297889">
  <ele>1583.01</ele>
  <time>2026-08-28T17:53:57Z</time>
  <course>247.15</course>
  <speed>0.02</speed>
  <fix>3d</fix>
</trkpt>
<trkpt lat="40.0713749" lon="-105.229789">
  <ele>1583.0</ele>
  <time>2026-08-28T17:53:57Z</time>
  <course>0.0</course>
  <speed>0.0</speed>
  <fix>3d</fix>
</trkpt>
<trkpt lat="40.071375" lon="-105.2297889">
  <ele>1583.0</ele>
  <time>2026-08-28T17:53:57Z</time>
  <course>247.15</course>
  <speed>0.022360679774997897</speed>
  <fix>3d</fix>
</trkpt>
<trkpt lat="40.0713749" lon="-105.229789">
  <ele>1583.0</ele>
  <time>2026-08-28T17:53:57Z</time>
  <course>0.0</course>
  <speed>0.0</speed>
  <fix>3d</fix>
</trkpt>
<trkpt lat="40.071375" lon="-105.2297889">
  <ele>1583.0</ele>
  <time>2026-08-28T17:53:57Z</time>
  <course>247.15</course>
  <speed>0.022360679774997897</speed>
  <fix>3d</fix>
</trkpt>
<trkpt lat="40.0713749" lon="-105.229789">
  <ele>1583.0</ele>
  <time>2026-08-28T17:53:57Z</time>
  <course>0.0</course>
  <speed>0.0</speed>
  <fix>3d</fix>
</trkpt>
<trkpt lat="40.071375" lon="-105.2297889">
  <ele>1583.0</ele>
  <time>2026-08-28T17:53:57Z</time>
  <course>247.15</course>
  <speed>0.022360679774997897</speed>
  <fix>3d</fix>
</trkpt>
<trkpt lat="40.0713749" lon="-105.229789">
  <ele>1583.0</ele>
  <time>2026-08-28T17:53:57Z</time>
  <course>0.0</course>
  <speed>0.0</speed>
  <fix>3d</fix>
</trkpt>
<trkpt lat="40.071375" lon="-105.2297889">
  <ele>1583.0</ele>
  <time>2026-08-28T17:53:57Z</time>
  <course>247.15</course>
  <speed>0.022360679774997897</speed>
  <fix>3d</fix>
</trkpt>
<trkpt lat="40.0713749" lon="-105.229789">
  <ele>1583.0</ele>
  <time>2026-08-28T17:53:57Z</time>
  <course>0.0</course>
  <speed>0.0</speed>
  <fix>3d</fix>
</trkpt>
<trkpt lat="40.071375" lon="-105.2297889">
  <ele>1583.0</ele>
  <time>2026-08-28T17:53:57Z</time>
  <course>247.15</course>
  <speed>0.022360679774997897</speed>
  <fix>3d</fix>
</trkpt>
<trkpt lat="40.0713749" lon="-105.229789">
  <ele>1583.0</ele>
  <time>2026-08-28T17:53:57Z</time>
  <course>0.0</course>
  <speed>0.0</speed>
  <fix>3d</fix>
</trkpt>
<trkpt lat="40.071375" lon="-105.2297889">
  <ele>1583.01</ele>
  <time>2026-08-28T17:53:57Z</time>
  <course>247.15</course>
  <speed>0.022360679774997897</speed>
  <fix>3d</fix>
</trkpt>
<trkpt lat="40.0713749" lon="-105.229789">
  <ele>1583.0</ele>
  <time>2026-08-28T17:53:57Z</time>
  <course>0.0</course>
  <speed>0.0</speed>
  <fix>3d</fix>
</trkpt>
<trkpt lat="40.071375" lon="-105.2297889">
  <ele>1583.01</ele>
  <time>2026-08-28T17:53:57Z</time>
  <course>247.15</course>
  <speed>0.022360679774997897</speed>
  <fix>3d</fix>
</trkpt>
<trkpt lat="40.0713749" lon="-105.229789">
  <ele>1583.0</ele>
  <time>2026-08-28T17:53:57Z</time>
  <course>0.0</course>
  <speed>0.0</speed>
  <fix>3d</fix>
</trkpt>
<trkpt lat="40.071375" lon="-105.2297889">
  <ele>1583.01</ele>
  <time>2026-08-28T17:53:57Z</time>
  <course>247.15</course>
  <speed>0.022360679774997897</speed>
  <fix>3d</fix>
</trkpt>
<trkpt lat="40.0713749" lon="-105.229789">
  <ele>1583.0</ele>
  <time>2026-08-28T17:53:57Z</time>
  <course>0.0</course>
  <speed>0.0</speed>
  <fix>3d</fix>
</trkpt>
<trkpt lat="40.071375" lon="-105.2297889">
  <ele>1583.02</ele>
  <time>2026-08-28T17:53:57Z</time>
  <course>247.15</course>
  <speed>0.022360679774997897</speed>
  <fix>3d</fix>
</trkpt>
<trkpt lat="40.0713749" lon="-105.229789">
  <ele>1583.0</ele>
  <time>2026-08-28T17:53:57Z</time>
  <course>0.0</course>
  <speed>0.0</speed>
  <fix>3d</fix>
</trkpt>
<trkpt lat="40.071375" lon="-105.2297889">
  <ele>1583.02</ele>
  <time>2026-08-28T17:53:57Z</time>
  <course>247.15</course>
  <speed>0.022360679774997897</speed>
  <fix>3d</fix>
</trkpt>
<trkpt lat="40.0713749" lon="-105.229789">
  <ele>1583.0</ele>
  <time>2026-08-28T17:53:57Z</time>
  <course>0.0</course>
  <speed>0.0</speed>
  <fix>3d</fix>
</trkpt>
<trkpt lat="40.071375" lon="-105.2297889">
  <ele>1583.02</ele>
  <time>2026-08-28T17:53:57Z</time>
  <course>247.15</course>
  <speed>0.022360679774997897</speed>
  <fix>3d</fix>
</trkpt>
<trkpt lat="40.0713749" lon="-105.229789">
  <ele>1583.0</ele>
  <time>2026-08-28T17:53:57Z</time>
  <course>0.0</course>
  <speed>0.0</speed>
  <fix>3d</fix>
</trkpt>
<trkpt lat="40.071375" lon="-105.2297889">
  <ele>1583.02</ele>
  <time>2026-08-28T17:53:57Z</time>
  <course>247.15</course>
  <speed>0.022360679774997897</speed>
  <fix>3d</fix>
</trkpt>
<trkpt lat="40.0713749" lon="-105.229789">
  <ele>1583.0</ele>
  <time>2026-08-28T17:53:57Z</time>
  <course>0.0</course>
  <speed>0.0</speed>
  <fix>3d</fix>
</trkpt>
<trkpt lat="40.071375" lon="-105.2297889">
  <ele>1583.02</ele>
  <time>2026-08-28T17:53:57Z</time>
  <course>247.15</course>
  <speed>0.022360679774997897</speed>
  <fix>3d</fix>
</trkpt>
<trkpt lat="40.0713749" lon="-105.229789">
  <ele>1583.0</ele>
  <time>2026-08-28T17:53:57Z</time>
  <course>0.0</course>
  <speed>0.0</speed>
  <fix>3d</fix>
</trkpt>
<trkpt lat="40.071375" lon="-105.2297889">
  <ele>1583.02</ele>
  <time>2026-08-28T17:53:57Z</time>
  <course>247.15</course>
  <speed>0.022360679774997897</speed>
  <fix>3d</fix>
</trkpt>
<trkpt lat="40.0713749" lon="-105.229789">
  <ele>1583.0</ele>
  <time>2026-08-28T17:53:57Z</time>
  <course>0.0</course>
  <speed>0.0</speed>
  <fix>3d</fix>
</trkpt>
<trkpt lat="40.071375" lon="-105.2297889">
  <ele>1583.02</ele>
  <time>2026-08-28T17:53:57Z</time>
  <course>247.15</course>
  <speed>0.022360679774997897</speed>
  <fix>3d</fix>
</trkpt>
<trkpt lat="40.0713749" lon="-105.229789">
  <ele>1583.0</ele>
  <time>2026-08-28T17:53:57Z</time>
  <course>0.0</course>
  <speed>0.0</speed>
  <fix>3d</fix>
</trkpt>
<trkpt lat="40.071375" lon="-105.2297889">
  <ele>1583.03</ele>
  <time>2026-08-28T17:53:57Z</time>
  <course>247.15</course>
  <speed>0.022360679774997897</speed>
  <fix>3d</fix>
</trkpt>
<trkpt lat="40.0713749" lon="-105.229789">
  <ele>1583.0</ele>
  <time>2026-08-28T17:53:57Z</time>
  <course>0.0</course>
  <speed>0.0</speed>
  <fix>3d</fix>
</trkpt>
<trkpt lat="40.071375" lon="-105.2297889">
  <ele>1583.03</ele>
  <time>2026-08-28T17:53:57Z</time>
  <course>247.14</course>
  <speed>0.022360679774997897</speed>
  <fix>3d</fix>
</trkpt>
<trkpt lat="40.0713749" lon="-105.229789">
  <ele>1583.0</ele>
  <time>2026-08-28T17:53:57Z</time>
  <course>0.0</course>
  <speed>0.0</speed>
  <fix>3d</fix>
</trkpt>
<trkpt lat="40.071375" lon="-105.2297889">
  <ele>1583.03</ele>
  <time>2026-08-28T17:53:57Z</time>
  <course>247.14</course>
  <speed>0.022360679774997897</speed>
  <fix>3d</fix>
</trkpt>
<trkpt lat="40.0713749" lon="-105.229789">
  <ele>1583.0</ele>
  <time>2026-08-28T17:53:57Z</time>
  <course>0.0</course>
  <speed>0.0</speed>
  <fix>3d</fix>
</trkpt>
<trkpt lat="40.071375" lon="-105.2297889">
  <ele>1583.03</ele>
  <time>2026-08-28T17:53:57Z</time>
  <course>247.14</course>
  <speed>0.022360679774997897</speed>
  <fix>3d</fix>
</trkpt>
<trkpt lat="40.0713749" lon="-105.229789">
  <ele>1583.0</ele>
  <time>2026-08-28T17:53:57Z</time>
  <course>0.0</course>
  <speed>0.0</speed>
  <fix>3d</fix>
</trkpt>
<trkpt lat="40.071375" lon="-105.2297889">
  <ele>1583.03</ele>
  <time>2026-08-28T17:53:57Z</time>
  <course>247.14</course>
  <speed>0.022360679774997897</speed>
  <fix>3d</fix>
</trkpt>
<trkpt lat="40.0713749" lon="-105.229789">
  <ele>1583.0</ele>
  <time>2026-08-28T17:53:57Z</time>
  <course>0.0</course>
  <speed>0.0</speed>
  <fix>3d</fix>
</trkpt>
<trkpt lat="40.071375" lon="-105.2297889">
  <ele>1583.04</ele>
  <time>2026-08-28T17:53:57Z</time>
  <course>247.14</course>
  <speed>0.022360679774997897</speed>
  <fix>3d</fix>
</trkpt>
<trkpt lat="40.0713749" lon="-105.229789">
  <ele>1583.0</ele>
  <time>2026-08-28T17:53:57Z</time>
  <course>0.0</course>
  <speed>0.0</speed>
  <fix>3d</fix>
</trkpt>
<trkpt lat="40.071375" lon="-105.2297889">
  <ele>1583.04</ele>
  <time>2026-08-28T17:53:57Z</time>
  <course>247.14</course>
  <speed>0.022360679774997897</speed>
  <fix>3d</fix>
</trkpt>
<trkpt lat="40.0713749" lon="-105.229789">
  <ele>1583.0</ele>
  <time>2026-08-28T17:53:57Z</time>
  <course>0.0</course>
  <speed>0.0</speed>
  <fix>3d</fix>
</trkpt>
<trkpt lat="40.071375" lon="-105.2297889">
  <ele>1583.05</ele>
  <time>2026-08-28T17:53:57Z</time>
  <course>247.14</course>
  <speed>0.022360679774997897</speed>
  <fix>3d</fix>
</trkpt>
<trkpt lat="40.0713749" lon="-105.229789">
  <ele>1583.0</ele>
  <time>2026-08-28T17:53:57Z</time>
  <course>0.0</course>
  <speed>0.0</speed>
  <fix>3d</fix>
</trkpt>
<trkpt lat="40.071375" lon="-105.2297889">
  <ele>1583.05</ele>
  <time>2026-08-28T17:53:57Z</time>
  <course>247.14</course>
  <speed>0.02</speed>
  <fix>3d</fix>
</trkpt>
<trkpt lat="40.0713749" lon="-105.229789">
  <ele>1583.0</ele>
  <time>2026-08-28T17:53:57Z</time>
  <course>0.0</course>
  <speed>0.0</speed>
  <fix>3d</fix>
</trkpt>
<trkpt lat="40.071375" lon="-105.2297889">
  <ele>1583.05</ele>
  <time>2026-08-28T17:53:57Z</time>
  <course>247.14</course>
  <speed>0.022360679774997897</speed>
  <fix>3d</fix>
</trkpt>
<trkpt lat="40.0713749" lon="-105.229789">
  <ele>1583.0</ele>
  <time>2026-08-28T17:53:57Z</time>
  <course>0.0</course>
  <speed>0.0</speed>
  <fix>3d</fix>
</trkpt>
<trkpt lat="40.071375" lon="-105.2297889">
  <ele>1583.05</ele>
  <time>2026-08-28T17:53:57Z</time>
  <course>247.14</course>
  <speed>0.02</speed>
  <fix>3d</fix>
</trkpt>
<trkpt lat="40.0713749" lon="-105.229789">
  <ele>1583.0</ele>
  <time>2026-08-28T17:53:57Z</time>
  <course>0.0</course>
  <speed>0.0</speed>
  <fix>3d</fix>
</trkpt>
<trkpt lat="40.071375" lon="-105.2297889">
  <ele>1583.05</ele>
  <time>2026-08-28T17:53:57Z</time>
  <course>247.14</course>
  <speed>0.022360679774997897</speed>
  <fix>3d</fix>
</trkpt>
<trkpt lat="40.0713749" lon="-105.229789">
  <ele>1583.0</ele>
  <time>2026-08-28T17:53:57Z</time>
  <course>0.0</course>
  <speed>0.0</speed>
  <fix>3d</fix>
</trkpt>
<trkpt lat="40.071375" lon="-105.2297889">
  <ele>1583.05</ele>
  <time>2026-08-28T17:53:57Z</time>
  <course>247.14</course>
  <speed>0.02</speed>
  <fix>3d</fix>
</trkpt>
<trkpt lat="40.0713749" lon="-105.229789">
  <ele>1583.0</ele>
  <time>2026-08-28T17:53:57Z</time>
  <course>0.0</course>
  <speed>0.0</speed>
  <fix>3d</fix>
</trkpt>
<trkpt lat="40.071375" lon="-105.2297889">
  <ele>1583.05</ele>
  <time>2026-08-28T17:53:57Z</time>
  <course>247.14</course>
  <speed>0.02</speed>
  <fix>3d</fix>
</trkpt>
<trkpt lat="40.0713749" lon="-105.229789">
  <ele>1583.0</ele>
  <time>2026-08-28T17:53:57Z</time>
  <course>0.0</course>
  <speed>0.0</speed>
  <fix>3d</fix>
</trkpt>
<trkpt lat="40.071375" lon="-105.2297889">
  <ele>1583.05</ele>
  <time>2026-08-28T17:53:57Z</time>
  <course>247.14</course>
  <speed>0.02</speed>
  <fix>3d</fix>
</trkpt>
<trkpt lat="40.0713749" lon="-105.229789">
  <ele>1583.0</ele>
  <time>2026-08-28T17:53:57Z</time>
  <course>0.0</course>
  <speed>0.0</speed>
  <fix>3d</fix>
</trkpt>
<trkpt lat="40.071375" lon="-105.2297889">
  <ele>1583.05</ele>
  <time>2026-08-28T17:53:57Z</time>
  <course>247.14</course>
  <speed>0.02</speed>
  <fix>3d</fix>
</trkpt>
<trkpt lat="40.0713749" lon="-105.229789">
  <ele>1583.0</ele>
  <time>2026-08-28T17:53:57Z</time>
  <course>0.0</course>
  <speed>0.0</speed>
  <fix>3d</fix>
</trkpt>
<trkpt lat="40.071375" lon="-105.2297889">
  <ele>1583.05</ele>
  <time>2026-08-28T17:53:57Z</time>
  <course>247.14</course>
  <speed>0.02</speed>
  <fix>3d</fix>
</trkpt>
<trkpt lat="40.0713749" lon="-105.229789">
  <ele>1583.0</ele>
  <time>2026-08-28T17:53:57Z</time>
  <course>0.0</course>
  <speed>0.0</speed>
  <fix>3d</fix>
</trkpt>
<trkpt lat="40.071375" lon="-105.2297889">
  <ele>1583.05</ele>
  <time>2026-08-28T17:53:57Z</time>
  <course>247.14</course>
  <speed>0.02</speed>
  <fix>3d</fix>
</trkpt>
<trkpt lat="40.0713749" lon="-105.229789">
  <ele>1583.0</ele>
  <time>2026-08-28T17:53:57Z</time>
  <course>0.0</course>
  <speed>0.0</speed>
  <fix>3d</fix>
</trkpt>
<trkpt lat="40.071375" lon="-105.2297889">
  <ele>1583.05</ele>
  <time>2026-08-28T17:53:57Z</time>
  <course>247.14</course>
  <speed>0.02</speed>
  <fix>3d</fix>
</trkpt>
<trkpt lat="40.0713749" lon="-105.229789">
  <ele>1583.0</ele>
  <time>2026-08-28T17:53:57Z</time>
  <course>0.0</course>
  <speed>0.0</speed>
  <fix>3d</fix>
</trkpt>
<trkpt lat="40.071375" lon="-105.2297889">
  <ele>1583.05</ele>
  <time>2026-08-28T17:53:57Z</time>
  <course>247.14</course>
  <speed>0.022360679774997897</speed>
  <fix>3d</fix>
</trkpt>
<trkpt lat="40.0713749" lon="-105.229789">
  <ele>1583.0</ele>
  <time>2026-08-28T17:53:57Z</time>
  <course>0.0</course>
  <speed>0.0</speed>
  <fix>3d</fix>
</trkpt>
<trkpt lat="40.071375" lon="-105.2297889">
  <ele>1583.05</ele>
  <time>2026-08-28T17:53:57Z</time>
  <course>247.14</course>
  <speed>0.02</speed>
  <fix>3d</fix>
</trkpt>
<trkpt lat="40.0713749" lon="-105.229789">
  <ele>1583.0</ele>
  <time>2026-08-28T17:53:57Z</time>
  <course>0.0</course>
  <speed>0.0</speed>
  <fix>3d</fix>
</trkpt>
<trkpt lat="40.071375" lon="-105.2297889">
  <ele>1583.05</ele>
  <time>2026-08-28T17:53:57Z</time>
  <course>247.13</course>
  <speed>0.022360679774997897</speed>
  <fix>3d</fix>
</trkpt>
<trkpt lat="40.0713749" lon="-105.229789">
  <ele>1583.0</ele>
  <time>2026-08-28T17:53:57Z</time>
  <course>0.0</course>
  <speed>0.0</speed>
  <fix>3d</fix>
</trkpt>
<trkpt lat="40.071375" lon="-105.2297889">
  <ele>1583.04</ele>
  <time>2026-08-28T17:53:57Z</time>
  <course>247.13</course>
  <speed>0.02</speed>
  <fix>3d</fix>
</trkpt>
<trkpt lat="40.0713749" lon="-105.229789">
  <ele>1583.0</ele>
  <time>2026-08-28T17:53:57Z</time>
  <course>0.0</course>
  <speed>0.0</speed>
  <fix>3d</fix>
</trkpt>
<trkpt lat="40.0713751" lon="-105.2297889">
  <ele>1583.04</ele>
  <time>2026-08-28T17:53:57Z</time>
  <course>247.13</course>
  <speed>0.022360679774997897</speed>
  <fix>3d</fix>
</trkpt>
<trkpt lat="40.0713749" lon="-105.229789">
  <ele>1583.0</ele>
  <time>2026-08-28T17:53:57Z</time>
  <course>0.0</course>
  <speed>0.0</speed>
  <fix>3d</fix>
</trkpt>
<trkpt lat="40.071375" lon="-105.2297889">
  <ele>1583.04</ele>
  <time>2026-08-28T17:53:57Z</time>
  <course>247.13</course>
  <speed>0.02</speed>
  <fix>3d</fix>
</trkpt>
<trkpt lat="40.0713749" lon="-105.229789">
  <ele>1583.0</ele>
  <time>2026-08-28T17:53:57Z</time>
  <course>0.0</course>
  <speed>0.0</speed>
  <fix>3d</fix>
</trkpt>
<trkpt lat="40.0713751" lon="-105.2297889">
  <ele>1583.04</ele>
  <time>2026-08-28T17:53:57Z</time>
  <course>247.13</course>
  <speed>0.02</speed>
  <fix>3d</fix>
</trkpt>
<trkpt lat="40.0713749" lon="-105.229789">
  <ele>1583.0</ele>
  <time>2026-08-28T17:53:57Z</time>
  <course>0.0</course>
  <speed>0.0</speed>
  <fix>3d</fix>
</trkpt>
<trkpt lat="40.071375" lon="-105.2297889">
  <ele>1583.04</ele>
  <time>2026-08-28T17:53:57Z</time>
  <course>247.13</course>
  <speed>0.02</speed>
  <fix>3d</fix>
</trkpt>
<trkpt lat="40.0713749" lon="-105.229789">
  <ele>1583.0</ele>
  <time>2026-08-28T17:53:57Z</time>
  <course>0.0</course>
  <speed>0.0</speed>
  <fix>3d</fix>
</trkpt>
<trkpt lat="40.071375" lon="-105.2297889">
  <ele>1583.04</ele>
  <time>2026-08-28T17:53:57Z</time>
  <course>247.13</course>
  <speed>0.02</speed>
  <fix>3d</fix>
</trkpt>
<trkpt lat="40.0713749" lon="-105.229789">
  <ele>1583.0</ele>
  <time>2026-08-28T17:53:57Z</time>
  <course>0.0</course>
  <speed>0.0</speed>
  <fix>3d</fix>
</trkpt>
<trkpt lat="40.071375" lon="-105.2297889">
  <ele>1583.04</ele>
  <time>2026-08-28T17:53:57Z</time>
  <course>247.13</course>
  <speed>0.02</speed>
  <fix>3d</fix>
</trkpt>
<trkpt lat="40.0713749" lon="-105.229789">
  <ele>1583.0</ele>
  <time>2026-08-28T17:53:57Z</time>
  <course>0.0</course>
  <speed>0.0</speed>
  <fix>3d</fix>
</trkpt>
<trkpt lat="40.071375" lon="-105.2297889">
  <ele>1583.04</ele>
  <time>2026-08-28T17:53:57Z</time>
  <course>247.13</course>
  <speed>0.02</speed>
  <fix>3d</fix>
</trkpt>
<trkpt lat="40.0713749" lon="-105.229789">
  <ele>1583.0</ele>
  <time>2026-08-28T17:53:57Z</time>
  <course>0.0</course>
  <speed>0.0</speed>
  <fix>3d</fix>
</trkpt>
<trkpt lat="40.071375" lon="-105.2297889">
  <ele>1583.04</ele>
  <time>2026-08-28T17:53:57Z</time>
  <course>247.13</course>
  <speed>0.02</speed>
  <fix>3d</fix>
</trkpt>
<trkpt lat="40.0713749" lon="-105.229789">
  <ele>1583.0</ele>
  <time>2026-08-28T17:53:57Z</time>
  <course>0.0</course>
  <speed>0.0</speed>
  <fix>3d</fix>
</trkpt>
<trkpt lat="40.071375" lon="-105.2297889">
  <ele>1583.04</ele>
  <time>2026-08-28T17:53:57Z</time>
  <course>247.13</course>
  <speed>0.02</speed>
  <fix>3d</fix>
</trkpt>
<trkpt lat="40.0713749" lon="-105.229789">
  <ele>1583.0</ele>
  <time>2026-08-28T17:53:57Z</time>
  <course>0.0</course>
  <speed>0.0</speed>
  <fix>3d</fix>
</trkpt>
<trkpt lat="40.071375" lon="-105.2297889">
  <ele>1583.04</ele>
  <time>2026-08-28T17:53:57Z</time>
  <course>247.13</course>
  <speed>0.02</speed>
  <fix>3d</fix>
</trkpt>
<trkpt lat="40.0713749" lon="-105.229789">
  <ele>1583.0</ele>
  <time>2026-08-28T17:53:57Z</time>
  <course>0.0</course>
  <speed>0.0</speed>
  <fix>3d</fix>
</trkpt>
<trkpt lat="40.071375" lon="-105.2297889">
  <ele>1583.04</ele>
  <time>2026-08-28T17:53:57Z</time>
  <course>247.13</course>
  <speed>0.02</speed>
  <fix>3d</fix>
</trkpt>
<trkpt lat="40.0713749" lon="-105.229789">
  <ele>1583.0</ele>
  <time>2026-08-28T17:53:57Z</time>
  <course>0.0</course>
  <speed>0.0</speed>
  <fix>3d</fix>
</trkpt>
<trkpt lat="40.071375" lon="-105.2297889">
  <ele>1583.05</ele>
  <time>2026-08-28T17:53:57Z</time>
  <course>247.13</course>
  <speed>0.02</speed>
  <fix>3d</fix>
</trkpt>
<trkpt lat="40.0713749" lon="-105.229789">
  <ele>1583.0</ele>
  <time>2026-08-28T17:53:57Z</time>
  <course>0.0</course>
  <speed>0.0</speed>
  <fix>3d</fix>
</trkpt>
<trkpt lat="40.071375" lon="-105.2297889">
  <ele>1583.05</ele>
  <time>2026-08-28T17:53:57Z</time>
  <course>247.13</course>
  <speed>0.02</speed>
  <fix>3d</fix>
</trkpt>
<trkpt lat="40.0713749" lon="-105.229789">
  <ele>1583.0</ele>
  <time>2026-08-28T17:53:57Z</time>
  <course>0.0</course>
  <speed>0.0</speed>
  <fix>3d</fix>
</trkpt>
<trkpt lat="40.071375" lon="-105.2297889">
  <ele>1583.05</ele>
  <time>2026-08-28T17:53:57Z</time>
  <course>247.13</course>
  <speed>0.02</speed>
  <fix>3d</fix>
</trkpt>
<trkpt lat="40.0713749" lon="-105.229789">
  <ele>1583.0</ele>
  <time>2026-08-28T17:53:57Z</time>
  <course>0.0</course>
  <speed>0.0</speed>
  <fix>3d</fix>
</trkpt>
<trkpt lat="40.071375" lon="-105.2297889">
  <ele>1583.05</ele>
  <time>2026-08-28T17:53:57Z</time>
  <course>247.13</course>
  <speed>0.02</speed>
  <fix>3d</fix>
</trkpt>
<trkpt lat="40.0713749" lon="-105.229789">
  <ele>1583.0</ele>
  <time>2026-08-28T17:53:57Z</time>
  <course>0.0</course>
  <speed>0.0</speed>
  <fix>3d</fix>
</trkpt>
<trkpt lat="40.071375" lon="-105.2297889">
  <ele>1583.04</ele>
  <time>2026-08-28T17:53:57Z</time>
  <course>247.13</course>
  <speed>0.02</speed>
  <fix>3d</fix>
</trkpt>
<trkpt lat="40.0713749" lon="-105.229789">
  <ele>1583.0</ele>
  <time>2026-08-28T17:53:57Z</time>
  <course>0.0</course>
  <speed>0.0</speed>
  <fix>3d</fix>
</trkpt>
<trkpt lat="40.071375" lon="-105.2297889">
  <ele>1583.04</ele>
  <time>2026-08-28T17:53:57Z</time>
  <course>247.13</course>
  <speed>0.02</speed>
  <fix>3d</fix>
</trkpt>
<trkpt lat="40.0713749" lon="-105.229789">
  <ele>1583.0</ele>
  <time>2026-08-28T17:53:57Z</time>
  <course>0.0</course>
  <speed>0.0</speed>
  <fix>3d</fix>
</trkpt>
<trkpt lat="40.071375" lon="-105.2297889">
  <ele>1583.04</ele>
  <time>2026-08-28T17:53:57Z</time>
  <course>247.13</course>
  <speed>0.02</speed>
  <fix>3d</fix>
</trkpt>
<trkpt lat="40.0713749" lon="-105.229789">
  <ele>1583.0</ele>
  <time>2026-08-28T17:53:57Z</time>
  <course>0.0</course>
  <speed>0.0</speed>
  <fix>3d</fix>
</trkpt>
<trkpt lat="40.0713751" lon="-105.2297889">
  <ele>1583.04</ele>
  <time>2026-08-28T17:53:57Z</time>
  <course>247.13</course>
  <speed>0.02</speed>
  <fix>3d</fix>
</trkpt>
<trkpt lat="40.0713749" lon="-105.229789">
  <ele>1583.0</ele>
  <time>2026-08-28T17:53:57Z</time>
  <course>0.0</course>
  <speed>0.0</speed>
  <fix>3d</fix>
</trkpt>
<trkpt lat="40.071375" lon="-105.2297889">
  <ele>1583.03</ele>
  <time>2026-08-28T17:53:57Z</time>
  <course>247.13</course>
  <speed>0.02</speed>
  <fix>3d</fix>
</trkpt>
<trkpt lat="40.0713749" lon="-105.229789">
  <ele>1583.0</ele>
  <time>2026-08-28T17:53:57Z</time>
  <course>0.0</course>
  <speed>0.0</speed>
  <fix>3d</fix>
</trkpt>
<trkpt lat="40.0713751" lon="-105.2297889">
  <ele>1583.03</ele>
  <time>2026-08-28T17:53:57Z</time>
  <course>247.13</course>
  <speed>0.022360679774997897</speed>
  <fix>3d</fix>
</trkpt>
<trkpt lat="40.0713749" lon="-105.229789">
  <ele>1583.0</ele>
  <time>2026-08-28T17:53:57Z</time>
  <course>0.0</course>
  <speed>0.0</speed>
  <fix>3d</fix>
</trkpt>
<trkpt lat="40.071375" lon="-105.2297889">
  <ele>1583.02</ele>
  <time>2026-08-28T17:53:57Z</time>
  <course>247.13</course>
  <speed>0.022360679774997897</speed>
  <fix>3d</fix>
</trkpt>
<trkpt lat="40.0713749" lon="-105.229789">
  <ele>1583.0</ele>
  <time>2026-08-28T17:53:57Z</time>
  <course>0.0</course>
  <speed>0.0</speed>
  <fix>3d</fix>
</trkpt>
<trkpt lat="40.0713751" lon="-105.2297889">
  <ele>1583.02</ele>
  <time>2026-08-28T17:53:57Z</time>
  <course>247.12</course>
  <speed>0.022360679774997897</speed>
  <fix>3d</fix>
</trkpt>
<trkpt lat="40.0713749" lon="-105.229789">
  <ele>1583.0</ele>
  <time>2026-08-28T17:53:57Z</time>
  <course>0.0</course>
  <speed>0.0</speed>
  <fix>3d</fix>
</trkpt>
<trkpt lat="40.071375" lon="-105.2297889">
  <ele>1583.02</ele>
  <time>2026-08-28T17:53:57Z</time>
  <course>247.12</course>
  <speed>0.022360679774997897</speed>
  <fix>3d</fix>
</trkpt>
<trkpt lat="40.0713749" lon="-105.229789">
  <ele>1583.0</ele>
  <time>2026-08-28T17:53:57Z</time>
  <course>0.0</course>
  <speed>0.0</speed>
  <fix>3d</fix>
</trkpt>
<trkpt lat="40.0713751" lon="-105.2297889">
  <ele>1583.02</ele>
  <time>2026-08-28T17:53:57Z</time>
  <course>247.12</course>
  <speed>0.022360679774997897</speed>
  <fix>3d</fix>
</trkpt>
<trkpt lat="40.0713749" lon="-105.229789">
  <ele>1583.0</ele>
  <time>2026-08-28T17:53:57Z</time>
  <course>0.0</course>
  <speed>0.0</speed>
  <fix>3d</fix>
</trkpt>
<trkpt lat="40.071375" lon="-105.2297889">
  <ele>1583.02</ele>
  <time>2026-08-28T17:53:57Z</time>
  <course>247.12</course>
  <speed>0.022360679774997897</speed>
  <fix>3d</fix>
</trkpt>
<trkpt lat="40.0713749" lon="-105.229789">
  <ele>1583.0</ele>
  <time>2026-08-28T17:53:57Z</time>
  <course>0.0</course>
  <speed>0.0</speed>
  <fix>3d</fix>
</trkpt>
<trkpt lat="40.071375" lon="-105.2297889">
  <ele>1583.02</ele>
  <time>2026-08-28T17:53:57Z</time>
  <course>247.12</course>
  <speed>0.022360679774997897</speed>
  <fix>3d</fix>
</trkpt>
<trkpt lat="40.0713749" lon="-105.229789">
  <ele>1583.0</ele>
  <time>2026-08-28T17:53:57Z</time>
  <course>0.0</course>
  <speed>0.0</speed>
  <fix>3d</fix>
</trkpt>
<trkpt lat="40.071375" lon="-105.2297889">
  <ele>1583.02</ele>
  <time>2026-08-28T17:53:57Z</time>
  <course>247.12</course>
  <speed>0.022360679774997897</speed>
  <fix>3d</fix>
</trkpt>
<trkpt lat="40.0713749" lon="-105.229789">
  <ele>1583.0</ele>
  <time>2026-08-28T17:53:57Z</time>
  <course>0.0</course>
  <speed>0.0</speed>
  <fix>3d</fix>
</trkpt>
<trkpt lat="40.071375" lon="-105.2297889">
  <ele>1583.01</ele>
  <time>2026-08-28T17:53:57Z</time>
  <course>247.12</course>
  <speed>0.022360679774997897</speed>
  <fix>3d</fix>
</trkpt>
<trkpt lat="40.0713749" lon="-105.229789">
  <ele>1583.0</ele>
  <time>2026-08-28T17:53:57Z</time>
  <course>0.0</course>
  <speed>0.0</speed>
  <fix>3d</fix>
</trkpt>
<trkpt lat="40.071375" lon="-105.2297889">
  <ele>1583.01</ele>
  <time>2026-08-28T17:53:57Z</time>
  <course>247.12</course>
  <speed>0.02</speed>
  <fix>3d</fix>
</trkpt>
<trkpt lat="40.0713749" lon="-105.229789">
  <ele>1583.0</ele>
  <time>2026-08-28T17:53:57Z</time>
  <course>0.0</course>
  <speed>0.0</speed>
  <fix>3d</fix>
</trkpt>
<trkpt lat="40.071375" lon="-105.2297889">
  <ele>1583.01</ele>
  <time>2026-08-28T17:53:57Z</time>
  <course>247.12</course>
  <speed>0.022360679774997897</speed>
  <fix>3d</fix>
</trkpt>
<trkpt lat="40.0713749" lon="-105.229789">
  <ele>1583.0</ele>
  <time>2026-08-28T17:53:57Z</time>
  <course>0.0</course>
  <speed>0.0</speed>
  <fix>3d</fix>
</trkpt>
<trkpt lat="40.071375" lon="-105.2297889">
  <ele>1583.01</ele>
  <time>2026-08-28T17:53:57Z</time>
  <course>247.12</course>
  <speed>0.02</speed>
  <fix>3d</fix>
</trkpt>
<trkpt lat="40.0713749" lon="-105.229789">
  <ele>1583.0</ele>
  <time>2026-08-28T17:53:57Z</time>
  <course>0.0</course>
  <speed>0.0</speed>
  <fix>3d</fix>
</trkpt>
<trkpt lat="40.071375" lon="-105.2297889">
  <ele>1583.01</ele>
  <time>2026-08-28T17:53:57Z</time>
  <course>247.12</course>
  <speed>0.022360679774997897</speed>
  <fix>3d</fix>
</trkpt>
<trkpt lat="40.0713749" lon="-105.229789">
  <ele>1583.0</ele>
  <time>2026-08-28T17:53:57Z</time>
  <course>0.0</course>
  <speed>0.0</speed>
  <fix>3d</fix>
</trkpt>
<trkpt lat="40.071375" lon="-105.2297889">
  <ele>1583.0</ele>
  <time>2026-08-28T17:53:57Z</time>
  <course>247.12</course>
  <speed>0.022360679774997897</speed>
  <fix>3d</fix>
</trkpt>
<trkpt lat="40.0713749" lon="-105.229789">
  <ele>1583.0</ele>
  <time>2026-08-28T17:53:57Z</time>
  <course>0.0</course>
  <speed>0.0</speed>
  <fix>3d</fix>
</trkpt>
<trkpt lat="40.071375" lon="-105.2297889">
  <ele>1583.0</ele>
  <time>2026-08-28T17:53:57Z</time>
  <course>247.12</course>
  <speed>0.022360679774997897</speed>
  <fix>3d</fix>
</trkpt>
<trkpt lat="40.0713749" lon="-105.229789">
  <ele>1583.0</ele>
  <time>2026-08-28T17:53:57Z</time>
  <course>0.0</course>
  <speed>0.0</speed>
  <fix>3d</fix>
</trkpt>
<trkpt lat="40.071375" lon="-105.2297889">
  <ele>1583.0</ele>
  <time>2026-08-28T17:53:57Z</time>
  <course>247.12</course>
  <speed>0.022360679774997897</speed>
  <fix>3d</fix>
</trkpt>
<trkpt lat="40.0713749" lon="-105.229789">
  <ele>1583.0</ele>
  <time>2026-08-28T17:53:57Z</time>
  <course>0.0</course>
  <speed>0.0</speed>
  <fix>3d</fix>
</trkpt>
<trkpt lat="40.071375" lon="-105.2297889">
  <ele>1582.99</ele>
  <time>2026-08-28T17:53:57Z</time>
  <course>247.12</course>
  <speed>0.022360679774997897</speed>
  <fix>3d</fix>
</trkpt>
<trkpt lat="40.0713749" lon="-105.229789">
  <ele>1583.0</ele>
  <time>2026-08-28T17:53:57Z</time>
  <course>0.0</course>
  <speed>0.0</speed>
  <fix>3d</fix>
</trkpt>
<trkpt lat="40.071375" lon="-105.2297889">
  <ele>1582.99</ele>
  <time>2026-08-28T17:53:57Z</time>
  <course>247.12</course>
  <speed>0.022360679774997897</speed>
  <fix>3d</fix>
</trkpt>
<trkpt lat="40.0713749" lon="-105.229789">
  <ele>1583.0</ele>
  <time>2026-08-28T17:53:57Z</time>
  <course>0.0</course>
  <speed>0.0</speed>
  <fix>3d</fix>
</trkpt>
<trkpt lat="40.071375" lon="-105.2297889">
  <ele>1582.99</ele>
  <time>2026-08-28T17:53:57Z</time>
  <course>247.12</course>
  <speed>0.022360679774997897</speed>
  <fix>3d</fix>
</trkpt>
<trkpt lat="40.0713749" lon="-105.229789">
  <ele>1583.0</ele>
  <time>2026-08-28T17:53:57Z</time>
  <course>0.0</course>
  <speed>0.0</speed>
  <fix>3d</fix>
</trkpt>
<trkpt lat="40.071375" lon="-105.2297889">
  <ele>1582.99</ele>
  <time>2026-08-28T17:53:57Z</time>
  <course>247.12</course>
  <speed>0.022360679774997897</speed>
  <fix>3d</fix>
</trkpt>
<trkpt lat="40.0713749" lon="-105.229789">
  <ele>1583.0</ele>
  <time>2026-08-28T17:53:57Z</time>
  <course>0.0</course>
  <speed>0.0</speed>
  <fix>3d</fix>
</trkpt>
<trkpt lat="40.0713751" lon="-105.2297889">
  <ele>1582.99</ele>
  <time>2026-08-28T17:53:57Z</time>
  <course>247.12</course>
  <speed>0.022360679774997897</speed>
  <fix>3d</fix>
</trkpt>
<trkpt lat="40.0713749" lon="-105.229789">
  <ele>1583.0</ele>
  <time>2026-08-28T17:53:57Z</time>
  <course>0.0</course>
  <speed>0.0</speed>
  <fix>3d</fix>
</trkpt>
<trkpt lat="40.071375" lon="-105.2297889">
  <ele>1582.99</ele>
  <time>2026-08-28T17:53:57Z</time>
  <course>247.12</course>
  <speed>0.022360679774997897</speed>
  <fix>3d</fix>
</trkpt>
<trkpt lat="40.0713749" lon="-105.229789">
  <ele>1583.0</ele>
  <time>2026-08-28T17:53:57Z</time>
  <course>0.0</course>
  <speed>0.0</speed>
  <fix>3d</fix>
</trkpt>
<trkpt lat="40.0713751" lon="-105.2297889">
  <ele>1582.99</ele>
  <time>2026-08-28T17:53:57Z</time>
  <course>247.12</course>
  <speed>0.022360679774997897</speed>
  <fix>3d</fix>
</trkpt>
<trkpt lat="40.0713749" lon="-105.229789">
  <ele>1583.0</ele>
  <time>2026-08-28T17:53:57Z</time>
  <course>0.0</course>
  <speed>0.0</speed>
  <fix>3d</fix>
</trkpt>
<trkpt lat="40.071375" lon="-105.2297889">
  <ele>1582.98</ele>
  <time>2026-08-28T17:53:57Z</time>
  <course>247.12</course>
  <speed>0.022360679774997897</speed>
  <fix>3d</fix>
</trkpt>
<trkpt lat="40.0713749" lon="-105.229789">
  <ele>1583.0</ele>
  <time>2026-08-28T17:53:57Z</time>
  <course>0.0</course>
  <speed>0.0</speed>
  <fix>3d</fix>
</trkpt>
<trkpt lat="40.0713751" lon="-105.2297889">
  <ele>1582.98</ele>
  <time>2026-08-28T17:53:57Z</time>
  <course>247.12</course>
  <speed>0.022360679774997897</speed>
  <fix>3d</fix>
</trkpt>
<trkpt lat="40.0713749" lon="-105.229789">
  <ele>1583.0</ele>
  <time>2026-08-28T17:53:57Z</time>
  <course>0.0</course>
  <speed>0.0</speed>
  <fix>3d</fix>
</trkpt>
<trkpt lat="40.071375" lon="-105.2297889">
  <ele>1582.98</ele>
  <time>2026-08-28T17:53:57Z</time>
  <course>247.12</course>
  <speed>0.022360679774997897</speed>
  <fix>3d</fix>
</trkpt>
<trkpt lat="40.0713749" lon="-105.229789">
  <ele>1583.0</ele>
  <time>2026-08-28T17:53:57Z</time>
  <course>0.0</course>
  <speed>0.0</speed>
  <fix>3d</fix>
</trkpt>
<trkpt lat="40.071375" lon="-105.2297889">
  <ele>1582.98</ele>
  <time>2026-08-28T17:53:57Z</time>
  <course>247.12</course>
  <speed>0.022360679774997897</speed>
  <fix>3d</fix>
</trkpt>
<trkpt lat="40.0713749" lon="-105.229789">
  <ele>1583.0</ele>
  <time>2026-08-28T17:53:57Z</time>
  <course>0.0</course>
  <speed>0.0</speed>
  <fix>3d</fix>
</trkpt>
<trkpt lat="40.071375" lon="-105.2297889">
  <ele>1582.98</ele>
  <time>2026-08-28T17:53:57Z</time>
  <course>247.12</course>
  <speed>0.022360679774997897</speed>
  <fix>3d</fix>
</trkpt>
<trkpt lat="40.0713749" lon="-105.229789">
  <ele>1583.0</ele>
  <time>2026-08-28T17:53:57Z</time>
  <course>0.0</course>
  <speed>0.0</speed>
  <fix>3d</fix>
</trkpt>
<trkpt lat="40.071375" lon="-105.2297889">
  <ele>1582.98</ele>
  <time>2026-08-28T17:53:57Z</time>
  <course>247.12</course>
  <speed>0.022360679774997897</speed>
  <fix>3d</fix>
</trkpt>
<trkpt lat="40.0713749" lon="-105.229789">
  <ele>1583.0</ele>
  <time>2026-08-28T17:53:57Z</time>
  <course>0.0</course>
  <speed>0.0</speed>
  <fix>3d</fix>
</trkpt>
<trkpt lat="40.071375" lon="-105.2297889">
  <ele>1582.98</ele>
  <time>2026-08-28T17:53:57Z</time>
  <course>247.12</course>
  <speed>0.022360679774997897</speed>
  <fix>3d</fix>
</trkpt>
<trkpt lat="40.0713749" lon="-105.229789">
  <ele>1583.0</ele>
  <time>2026-08-28T17:53:57Z</time>
  <course>0.0</course>
  <speed>0.0</speed>
  <fix>3d</fix>
</trkpt>
<trkpt lat="40.071375" lon="-105.2297889">
  <ele>1582.98</ele>
  <time>2026-08-28T17:53:57Z</time>
  <course>247.12</course>
  <speed>0.022360679774997897</speed>
  <fix>3d</fix>
</trkpt>
<trkpt lat="40.0713749" lon="-105.229789">
  <ele>1583.0</ele>
  <time>2026-08-28T17:53:57Z</time>
  <course>0.0</course>
  <speed>0.0</speed>
  <fix>3d</fix>
</trkpt>
<trkpt lat="40.071375" lon="-105.2297889">
  <ele>1582.98</ele>
  <time>2026-08-28T17:53:57Z</time>
  <course>247.12</course>
  <speed>0.022360679774997897</speed>
  <fix>3d</fix>
</trkpt>
<trkpt lat="40.0713749" lon="-105.229789">
  <ele>1583.0</ele>
  <time>2026-08-28T17:53:57Z</time>
  <course>0.0</course>
  <speed>0.0</speed>
  <fix>3d</fix>
</trkpt>
<trkpt lat="40.071375" lon="-105.2297889">
  <ele>1582.98</ele>
  <time>2026-08-28T17:53:57Z</time>
  <course>247.11</course>
  <speed>0.022360679774997897</speed>
  <fix>3d</fix>
</trkpt>
<trkpt lat="40.0713749" lon="-105.229789">
  <ele>1583.0</ele>
  <time>2026-08-28T17:53:57Z</time>
  <course>0.0</course>
  <speed>0.0</speed>
  <fix>3d</fix>
</trkpt>
<trkpt lat="40.071375" lon="-105.2297889">
  <ele>1582.98</ele>
  <time>2026-08-28T17:53:57Z</time>
  <course>247.11</course>
  <speed>0.02</speed>
  <fix>3d</fix>
</trkpt>
<trkpt lat="40.0713749" lon="-105.229789">
  <ele>1583.0</ele>
  <time>2026-08-28T17:53:57Z</time>
  <course>0.0</course>
  <speed>0.0</speed>
  <fix>3d</fix>
</trkpt>
<trkpt lat="40.071375" lon="-105.2297889">
  <ele>1582.98</ele>
  <time>2026-08-28T17:53:57Z</time>
  <course>247.11</course>
  <speed>0.022360679774997897</speed>
  <fix>3d</fix>
</trkpt>
<trkpt lat="40.0713749" lon="-105.229789">
  <ele>1583.0</ele>
  <time>2026-08-28T17:53:57Z</time>
  <course>0.0</course>
  <speed>0.0</speed>
  <fix>3d</fix>
</trkpt>
<trkpt lat="40.071375" lon="-105.2297889">
  <ele>1582.98</ele>
  <time>2026-08-28T17:53:57Z</time>
  <course>247.11</course>
  <speed>0.022360679774997897</speed>
  <fix>3d</fix>
</trkpt>
<trkpt lat="40.0713749" lon="-105.229789">
  <ele>1583.0</ele>
  <time>2026-08-28T17:53:57Z</time>
  <course>0.0</course>
  <speed>0.0</speed>
  <fix>3d</fix>
</trkpt>
<trkpt lat="40.071375" lon="-105.2297889">
  <ele>1582.98</ele>
  <time>2026-08-28T17:53:57Z</time>
  <course>247.11</course>
  <speed>0.022360679774997897</speed>
  <fix>3d</fix>
</trkpt>
<trkpt lat="40.0713749" lon="-105.229789">
  <ele>1583.0</ele>
  <time>2026-08-28T17:53:57Z</time>
  <course>0.0</course>
  <speed>0.0</speed>
  <fix>3d</fix>
</trkpt>
<trkpt lat="40.071375" lon="-105.2297889">
  <ele>1582.98</ele>
  <time>2026-08-28T17:53:57Z</time>
  <course>247.11</course>
  <speed>0.022360679774997897</speed>
  <fix>3d</fix>
</trkpt>
<trkpt lat="40.0713749" lon="-105.229789">
  <ele>1583.0</ele>
  <time>2026-08-28T17:53:57Z</time>
  <course>0.0</course>
  <speed>0.0</speed>
  <fix>3d</fix>
</trkpt>
<trkpt lat="40.071375" lon="-105.2297889">
  <ele>1582.98</ele>
  <time>2026-08-28T17:53:57Z</time>
  <course>247.11</course>
  <speed>0.022360679774997897</speed>
  <fix>3d</fix>
</trkpt>
<trkpt lat="40.0713749" lon="-105.229789">
  <ele>1583.0</ele>
  <time>2026-08-28T17:53:57Z</time>
  <course>0.0</course>
  <speed>0.0</speed>
  <fix>3d</fix>
</trkpt>
<trkpt lat="40.071375" lon="-105.2297889">
  <ele>1582.98</ele>
  <time>2026-08-28T17:53:57Z</time>
  <course>247.11</course>
  <speed>0.022360679774997897</speed>
  <fix>3d</fix>
</trkpt>
<trkpt lat="40.0713749" lon="-105.229789">
  <ele>1583.0</ele>
  <time>2026-08-28T17:53:57Z</time>
  <course>0.0</course>
  <speed>0.0</speed>
  <fix>3d</fix>
</trkpt>
<trkpt lat="40.0713751" lon="-105.2297889">
  <ele>1582.98</ele>
  <time>2026-08-28T17:53:57Z</time>
  <course>247.11</course>
  <speed>0.022360679774997897</speed>
  <fix>3d</fix>
</trkpt>
<trkpt lat="40.0713749" lon="-105.229789">
  <ele>1583.0</ele>
  <time>2026-08-28T17:53:57Z</time>
  <course>0.0</course>
  <speed>0.0</speed>
  <fix>3d</fix>
</trkpt>
<trkpt lat="40.071375" lon="-105.2297889">
  <ele>1582.98</ele>
  <time>2026-08-28T17:53:57Z</time>
  <course>247.11</course>
  <speed>0.022360679774997897</speed>
  <fix>3d</fix>
</trkpt>
<trkpt lat="40.0713749" lon="-105.229789">
  <ele>1583.0</ele>
  <time>2026-08-28T17:53:57Z</time>
  <course>0.0</course>
  <speed>0.0</speed>
  <fix>3d</fix>
</trkpt>
<trkpt lat="40.0713751" lon="-105.2297889">
  <ele>1582.98</ele>
  <time>2026-08-28T17:53:57Z</time>
  <course>247.11</course>
  <speed>0.022360679774997897</speed>
  <fix>3d</fix>
</trkpt>
<trkpt lat="40.0713749" lon="-105.229789">
  <ele>1583.0</ele>
  <time>2026-08-28T17:53:57Z</time>
  <course>0.0</course>
  <speed>0.0</speed>
  <fix>3d</fix>
</trkpt>
<trkpt lat="40.071375" lon="-105.2297889">
  <ele>1582.98</ele>
  <time>2026-08-28T17:53:57Z</time>
  <course>247.11</course>
  <speed>0.022360679774997897</speed>
  <fix>3d</fix>
</trkpt>
<trkpt lat="40.0713749" lon="-105.229789">
  <ele>1583.0</ele>
  <time>2026-08-28T17:53:57Z</time>
  <course>0.0</course>
  <speed>0.0</speed>
  <fix>3d</fix>
</trkpt>
<trkpt lat="40.0713751" lon="-105.2297889">
  <ele>1582.97</ele>
  <time>2026-08-28T17:53:57Z</time>
  <course>247.11</course>
  <speed>0.022360679774997897</speed>
  <fix>3d</fix>
</trkpt>
<trkpt lat="40.0713749" lon="-105.229789">
  <ele>1583.0</ele>
  <time>2026-08-28T17:53:57Z</time>
  <course>0.0</course>
  <speed>0.0</speed>
  <fix>3d</fix>
</trkpt>
<trkpt lat="40.071375" lon="-105.2297889">
  <ele>1582.97</ele>
  <time>2026-08-28T17:53:57Z</time>
  <course>247.11</course>
  <speed>0.022360679774997897</speed>
  <fix>3d</fix>
</trkpt>
<trkpt lat="40.0713749" lon="-105.229789">
  <ele>1583.0</ele>
  <time>2026-08-28T17:53:57Z</time>
  <course>0.0</course>
  <speed>0.0</speed>
  <fix>3d</fix>
</trkpt>
<trkpt lat="40.0713751" lon="-105.2297889">
  <ele>1582.97</ele>
  <time>2026-08-28T17:53:57Z</time>
  <course>247.11</course>
  <speed>0.022360679774997897</speed>
  <fix>3d</fix>
</trkpt>
<trkpt lat="40.0713749" lon="-105.229789">
  <ele>1583.0</ele>
  <time>2026-08-28T17:53:57Z</time>
  <course>0.0</course>
  <speed>0.0</speed>
  <fix>3d</fix>
</trkpt>
<trkpt lat="40.071375" lon="-105.2297889">
  <ele>1582.97</ele>
  <time>2026-08-28T17:53:57Z</time>
  <course>247.11</course>
  <speed>0.022360679774997897</speed>
  <fix>3d</fix>
</trkpt>
<trkpt lat="40.0713749" lon="-105.229789">
  <ele>1583.0</ele>
  <time>2026-08-28T17:53:57Z</time>
  <course>0.0</course>
  <speed>0.0</speed>
  <fix>3d</fix>
</trkpt>
<trkpt lat="40.071375" lon="-105.2297889">
  <ele>1582.97</ele>
  <time>2026-08-28T17:53:57Z</time>
  <course>247.11</course>
  <speed>0.022360679774997897</speed>
  <fix>3d</fix>
</trkpt>
<trkpt lat="40.0713749" lon="-105.229789">
  <ele>1583.0</ele>
  <time>2026-08-28T17:53:57Z</time>
  <course>0.0</course>
  <speed>0.0</speed>
  <fix>3d</fix>
</trkpt>
<trkpt lat="40.071375" lon="-105.2297889">
  <ele>1582.97</ele>
  <time>2026-08-28T17:53:57Z</time>
  <course>247.11</course>
  <speed>0.022360679774997897</speed>
  <fix>3d</fix>
</trkpt>
<trkpt lat="40.0713749" lon="-105.229789">
  <ele>1583.0</ele>
  <time>2026-08-28T17:53:57Z</time>
  <course>0.0</course>
  <speed>0.0</speed>
  <fix>3d</fix>
</trkpt>
<trkpt lat="40.071375" lon="-105.2297889">
  <ele>1582.97</ele>
  <time>2026-08-28T17:53:57Z</time>
  <course>247.11</course>
  <speed>0.022360679774997897</speed>
  <fix>3d</fix>
</trkpt>
<trkpt lat="40.0713749" lon="-105.229789">
  <ele>1583.0</ele>
  <time>2026-08-28T17:53:57Z</time>
  <course>0.0</course>
  <speed>0.0</speed>
  <fix>3d</fix>
</trkpt>
<trkpt lat="40.071375" lon="-105.2297889">
  <ele>1582.97</ele>
  <time>2026-08-28T17:53:57Z</time>
  <course>247.11</course>
  <speed>0.022360679774997897</speed>
  <fix>3d</fix>
</trkpt>
<trkpt lat="40.0713749" lon="-105.229789">
  <ele>1583.0</ele>
  <time>2026-08-28T17:53:57Z</time>
  <course>0.0</course>
  <speed>0.0</speed>
  <fix>3d</fix>
</trkpt>
<trkpt lat="40.071375" lon="-105.2297889">
  <ele>1582.97</ele>
  <time>2026-08-28T17:53:57Z</time>
  <course>247.11</course>
  <speed>0.022360679774997897</speed>
  <fix>3d</fix>
</trkpt>
<trkpt lat="40.0713749" lon="-105.229789">
  <ele>1583.0</ele>
  <time>2026-08-28T17:53:57Z</time>
  <course>0.0</course>
  <speed>0.0</speed>
  <fix>3d</fix>
</trkpt>
<trkpt lat="40.071375" lon="-105.2297889">
  <ele>1582.98</ele>
  <time>2026-08-28T17:53:57Z</time>
  <course>247.11</course>
  <speed>0.022360679774997897</speed>
  <fix>3d</fix>
</trkpt>
<trkpt lat="40.0713749" lon="-105.229789">
  <ele>1583.0</ele>
  <time>2026-08-28T17:53:57Z</time>
  <course>0.0</course>
  <speed>0.0</speed>
  <fix>3d</fix>
</trkpt>
<trkpt lat="40.071375" lon="-105.2297889">
  <ele>1582.98</ele>
  <time>2026-08-28T17:53:57Z</time>
  <course>247.11</course>
  <speed>0.022360679774997897</speed>
  <fix>3d</fix>
</trkpt>
<trkpt lat="40.0713749" lon="-105.229789">
  <ele>1583.0</ele>
  <time>2026-08-28T17:53:57Z</time>
  <course>0.0</course>
  <speed>0.0</speed>
  <fix>3d</fix>
</trkpt>
<trkpt lat="40.071375" lon="-105.2297889">
  <ele>1582.98</ele>
  <time>2026-08-28T17:53:57Z</time>
  <course>247.11</course>
  <speed>0.022360679774997897</speed>
  <fix>3d</fix>
</trkpt>
<trkpt lat="40.0713749" lon="-105.229789">
  <ele>1583.0</ele>
  <time>2026-08-28T17:53:57Z</time>
  <course>0.0</course>
  <speed>0.0</speed>
  <fix>3d</fix>
</trkpt>
<trkpt lat="40.071375" lon="-105.2297889">
  <ele>1582.99</ele>
  <time>2026-08-28T17:53:57Z</time>
  <course>247.11</course>
  <speed>0.022360679774997897</speed>
  <fix>3d</fix>
</trkpt>
<trkpt lat="40.0713749" lon="-105.229789">
  <ele>1583.0</ele>
  <time>2026-08-28T17:53:57Z</time>
  <course>0.0</course>
  <speed>0.0</speed>
  <fix>3d</fix>
</trkpt>
<trkpt lat="40.071375" lon="-105.2297889">
  <ele>1582.99</ele>
  <time>2026-08-28T17:53:57Z</time>
  <course>247.11</course>
  <speed>0.022360679774997897</speed>
  <fix>3d</fix>
</trkpt>
<trkpt lat="40.0713749" lon="-105.229789">
  <ele>1583.0</ele>
  <time>2026-08-28T17:53:57Z</time>
  <course>0.0</course>
  <speed>0.0</speed>
  <fix>3d</fix>
</trkpt>
<trkpt lat="40.071375" lon="-105.2297889">
  <ele>1582.99</ele>
  <time>2026-08-28T17:53:57Z</time>
  <course>247.11</course>
  <speed>0.022360679774997897</speed>
  <fix>3d</fix>
</trkpt>
<trkpt lat="40.0713749" lon="-105.229789">
  <ele>1583.0</ele>
  <time>2026-08-28T17:53:57Z</time>
  <course>0.0</course>
  <speed>0.0</speed>
  <fix>3d</fix>
</trkpt>
<trkpt lat="40.071375" lon="-105.2297889">
  <ele>1583.0</ele>
  <time>2026-08-28T17:53:57Z</time>
  <course>247.11</course>
  <speed>0.022360679774997897</speed>
  <fix>3d</fix>
</trkpt>
<trkpt lat="40.0713749" lon="-105.229789">
  <ele>1583.0</ele>
  <time>2026-08-28T17:53:57Z</time>
  <course>0.0</course>
  <speed>0.0</speed>
  <fix>3d</fix>
</trkpt>
<trkpt lat="40.0713751" lon="-105.2297889">
  <ele>1583.0</ele>
  <time>2026-08-28T17:53:57Z</time>
  <course>247.11</course>
  <speed>0.022360679774997897</speed>
  <fix>3d</fix>
</trkpt>
<trkpt lat="40.0713749" lon="-105.229789">
  <ele>1583.0</ele>
  <time>2026-08-28T17:53:57Z</time>
  <course>0.0</course>
  <speed>0.0</speed>
  <fix>3d</fix>
</trkpt>
<trkpt lat="40.071375" lon="-105.2297889">
  <ele>1583.0</ele>
  <time>2026-08-28T17:53:57Z</time>
  <course>247.11</course>
  <speed>0.022360679774997897</speed>
  <fix>3d</fix>
</trkpt>
<trkpt lat="40.0713749" lon="-105.229789">
  <ele>1583.0</ele>
  <time>2026-08-28T17:53:57Z</time>
  <course>0.0</course>
  <speed>0.0</speed>
  <fix>3d</fix>
</trkpt>
<trkpt lat="40.0713751" lon="-105.2297889">
  <ele>1583.0</ele>
  <time>2026-08-28T17:53:57Z</time>
  <course>247.11</course>
  <speed>0.022360679774997897</speed>
  <fix>3d</fix>
</trkpt>
<trkpt lat="40.0713749" lon="-105.229789">
  <ele>1583.0</ele>
  <time>2026-08-28T17:53:57Z</time>
  <course>0.0</course>
  <speed>0.0</speed>
  <fix>3d</fix>
</trkpt>
<trkpt lat="40.071375" lon="-105.2297889">
  <ele>1583.0</ele>
  <time>2026-08-28T17:53:57Z</time>
  <course>247.11</course>
  <speed>0.022360679774997897</speed>
  <fix>3d</fix>
</trkpt>
<trkpt lat="40.0713749" lon="-105.229789">
  <ele>1583.0</ele>
  <time>2026-08-28T17:53:57Z</time>
  <course>0.0</course>
  <speed>0.0</speed>
  <fix>3d</fix>
</trkpt>
<trkpt lat="40.0713751" lon="-105.2297889">
  <ele>1583.0</ele>
  <time>2026-08-28T17:53:57Z</time>
  <course>247.11</course>
  <speed>0.022360679774997897</speed>
  <fix>3d</fix>
</trkpt>
<trkpt lat="40.0713749" lon="-105.229789">
  <ele>1583.0</ele>
  <time>2026-08-28T17:53:57Z</time>
  <course>0.0</course>
  <speed>0.0</speed>
  <fix>3d</fix>
</trkpt>
<trkpt lat="40.071375" lon="-105.2297889">
  <ele>1583.0</ele>
  <time>2026-08-28T17:53:57Z</time>
  <course>247.11</course>
  <speed>0.022360679774997897</speed>
  <fix>3d</fix>
</trkpt>
<trkpt lat="40.0713749" lon="-105.229789">
  <ele>1583.0</ele>
  <time>2026-08-28T17:53:57Z</time>
  <course>0.0</course>
  <speed>0.0</speed>
  <fix>3d</fix>
</trkpt>
<trkpt lat="40.0713751" lon="-105.2297889">
  <ele>1583.0</ele>
  <time>2026-08-28T17:53:57Z</time>
  <course>247.11</course>
  <speed>0.022360679774997897</speed>
  <fix>3d</fix>
</trkpt>
<trkpt lat="40.0713749" lon="-105.229789">
  <ele>1583.0</ele>
  <time>2026-08-28T17:53:57Z</time>
  <course>0.0</course>
  <speed>0.0</speed>
  <fix>3d</fix>
</trkpt>
<trkpt lat="40.071375" lon="-105.2297889">
  <ele>1582.99</ele>
  <time>2026-08-28T17:53:57Z</time>
  <course>247.11</course>
  <speed>0.022360679774997897</speed>
  <fix>3d</fix>
</trkpt>
<trkpt lat="40.0713749" lon="-105.229789">
  <ele>1583.0</ele>
  <time>2026-08-28T17:53:57Z</time>
  <course>0.0</course>
  <speed>0.0</speed>
  <fix>3d</fix>
</trkpt>
<trkpt lat="40.071375" lon="-105.2297889">
  <ele>1582.99</ele>
  <time>2026-08-28T17:53:57Z</time>
  <course>247.11</course>
  <speed>0.022360679774997897</speed>
  <fix>3d</fix>
</trkpt>
<trkpt lat="40.0713749" lon="-105.229789">
  <ele>1583.0</ele>
  <time>2026-08-28T17:53:57Z</time>
  <course>0.0</course>
  <speed>0.0</speed>
  <fix>3d</fix>
</trkpt>
<trkpt lat="40.071375" lon="-105.2297889">
  <ele>1582.99</ele>
  <time>2026-08-28T17:53:57Z</time>
  <course>247.11</course>
  <speed>0.022360679774997897</speed>
  <fix>3d</fix>
</trkpt>
<trkpt lat="40.0713749" lon="-105.229789">
  <ele>1583.0</ele>
  <time>2026-08-28T17:53:57Z</time>
  <course>0.0</course>
  <speed>0.0</speed>
  <fix>3d</fix>
</trkpt>
<trkpt lat="40.071375" lon="-105.2297889">
  <ele>1582.99</ele>
  <time>2026-08-28T17:53:57Z</time>
  <course>247.11</course>
  <speed>0.022360679774997897</speed>
  <fix>3d</fix>
</trkpt>
<trkpt lat="40.0713749" lon="-105.229789">
  <ele>1583.0</ele>
  <time>2026-08-28T17:53:57Z</time>
  <course>0.0</course>
  <speed>0.0</speed>
  <fix>3d</fix>
</trkpt>
<trkpt lat="40.071375" lon="-105.2297889">
  <ele>1582.99</ele>
  <time>2026-08-28T17:53:57Z</time>
  <course>247.11</course>
  <speed>0.022360679774997897</speed>
  <fix>3d</fix>
</trkpt>
<trkpt lat="40.0713749" lon="-105.229789">
  <ele>1583.0</ele>
  <time>2026-08-28T17:53:57Z</time>
  <course>0.0</course>
  <speed>0.0</speed>
  <fix>3d</fix>
</trkpt>
<trkpt lat="40.071375" lon="-105.2297889">
  <ele>1583.0</ele>
  <time>2026-08-28T17:53:58Z</time>
  <course>247.11</course>
  <speed>0.022360679774997897</speed>
  <fix>3d</fix>
</trkpt>
<trkpt lat="40.0713749" lon="-105.229789">
  <ele>1583.0</ele>
  <time>2026-08-28T17:53:58Z</time>
  <course>0.0</course>
  <speed>0.0</speed>
  <fix>3d</fix>
</trkpt>
<trkpt lat="40.071375" lon="-105.2297889">
  <ele>1583.0</ele>
  <time>2026-08-28T17:53:58Z</time>
  <course>247.1</course>
  <speed>0.022360679774997897</speed>
  <fix>3d</fix>
</trkpt>
<trkpt lat="40.0713749" lon="-105.229789">
  <ele>1583.0</ele>
  <time>2026-08-28T17:53:58Z</time>
  <course>0.0</course>
  <speed>0.0</speed>
  <fix>3d</fix>
</trkpt>
<trkpt lat="40.071375" lon="-105.2297889">
  <ele>1583.0</ele>
  <time>2026-08-28T17:53:58Z</time>
  <course>247.1</course>
  <speed>0.022360679774997897</speed>
  <fix>3d</fix>
</trkpt>
<trkpt lat="40.0713749" lon="-105.229789">
  <ele>1583.0</ele>
  <time>2026-08-28T17:53:58Z</time>
  <course>0.0</course>
  <speed>0.0</speed>
  <fix>3d</fix>
</trkpt>
<trkpt lat="40.071375" lon="-105.2297889">
  <ele>1583.0</ele>
  <time>2026-08-28T17:53:58Z</time>
  <course>247.1</course>
  <speed>0.022360679774997897</speed>
  <fix>3d</fix>
</trkpt>
<trkpt lat="40.0713749" lon="-105.229789">
  <ele>1583.0</ele>
  <time>2026-08-28T17:53:58Z</time>
  <course>0.0</course>
  <speed>0.0</speed>
  <fix>3d</fix>
</trkpt>
<trkpt lat="40.071375" lon="-105.2297889">
  <ele>1583.0</ele>
  <time>2026-08-28T17:53:58Z</time>
  <course>247.1</course>
  <speed>0.022360679774997897</speed>
  <fix>3d</fix>
</trkpt>
<trkpt lat="40.0713749" lon="-105.229789">
  <ele>1583.0</ele>
  <time>2026-08-28T17:53:58Z</time>
  <course>0.0</course>
  <speed>0.0</speed>
  <fix>3d</fix>
</trkpt>
<trkpt lat="40.071375" lon="-105.2297889">
  <ele>1583.0</ele>
  <time>2026-08-28T17:53:58Z</time>
  <course>247.1</course>
  <speed>0.022360679774997897</speed>
  <fix>3d</fix>
</trkpt>
<trkpt lat="40.0713749" lon="-105.229789">
  <ele>1583.0</ele>
  <time>2026-08-28T17:53:58Z</time>
  <course>0.0</course>
  <speed>0.0</speed>
  <fix>3d</fix>
</trkpt>
<trkpt lat="40.071375" lon="-105.2297889">
  <ele>1583.0</ele>
  <time>2026-08-28T17:53:58Z</time>
  <course>247.1</course>
  <speed>0.022360679774997897</speed>
  <fix>3d</fix>
</trkpt>
<trkpt lat="40.0713749" lon="-105.229789">
  <ele>1583.0</ele>
  <time>2026-08-28T17:53:58Z</time>
  <course>0.0</course>
  <speed>0.0</speed>
  <fix>3d</fix>
</trkpt>
<trkpt lat="40.071375" lon="-105.2297889">
  <ele>1583.0</ele>
  <time>2026-08-28T17:53:58Z</time>
  <course>247.1</course>
  <speed>0.022360679774997897</speed>
  <fix>3d</fix>
</trkpt>
<trkpt lat="40.0713749" lon="-105.229789">
  <ele>1583.0</ele>
  <time>2026-08-28T17:53:58Z</time>
  <course>0.0</course>
  <speed>0.0</speed>
  <fix>3d</fix>
</trkpt>
<trkpt lat="40.071375" lon="-105.2297889">
  <ele>1583.0</ele>
  <time>2026-08-28T17:53:58Z</time>
  <course>247.1</course>
  <speed>0.022360679774997897</speed>
  <fix>3d</fix>
</trkpt>
<trkpt lat="40.0713749" lon="-105.229789">
  <ele>1583.0</ele>
  <time>2026-08-28T17:53:58Z</time>
  <course>0.0</course>
  <speed>0.0</speed>
  <fix>3d</fix>
</trkpt>
<trkpt lat="40.071375" lon="-105.2297889">
  <ele>1583.0</ele>
  <time>2026-08-28T17:53:58Z</time>
  <course>247.1</course>
  <speed>0.022360679774997897</speed>
  <fix>3d</fix>
</trkpt>
<trkpt lat="40.0713749" lon="-105.229789">
  <ele>1583.0</ele>
  <time>2026-08-28T17:53:58Z</time>
  <course>0.0</course>
  <speed>0.0</speed>
  <fix>3d</fix>
</trkpt>
<trkpt lat="40.0713751" lon="-105.2297889">
  <ele>1583.0</ele>
  <time>2026-08-28T17:53:58Z</time>
  <course>247.1</course>
  <speed>0.022360679774997897</speed>
  <fix>3d</fix>
</trkpt>
<trkpt lat="40.0713749" lon="-105.229789">
  <ele>1583.0</ele>
  <time>2026-08-28T17:53:58Z</time>
  <course>0.0</course>
  <speed>0.0</speed>
  <fix>3d</fix>
</trkpt>
<trkpt lat="40.071375" lon="-105.2297889">
  <ele>1583.01</ele>
  <time>2026-08-28T17:53:58Z</time>
  <course>247.1</course>
  <speed>0.022360679774997897</speed>
  <fix>3d</fix>
</trkpt>
<trkpt lat="40.0713749" lon="-105.229789">
  <ele>1583.0</ele>
  <time>2026-08-28T17:53:58Z</time>
  <course>0.0</course>
  <speed>0.0</speed>
  <fix>3d</fix>
</trkpt>
<trkpt lat="40.0713751" lon="-105.2297889">
  <ele>1583.01</ele>
  <time>2026-08-28T17:53:58Z</time>
  <course>247.1</course>
  <speed>0.022360679774997897</speed>
  <fix>3d</fix>
</trkpt>
<trkpt lat="40.0713749" lon="-105.229789">
  <ele>1583.0</ele>
  <time>2026-08-28T17:53:58Z</time>
  <course>0.0</course>
  <speed>0.0</speed>
  <fix>3d</fix>
</trkpt>
<trkpt lat="40.071375" lon="-105.2297889">
  <ele>1583.0</ele>
  <time>2026-08-28T17:53:58Z</time>
  <course>247.1</course>
  <speed>0.022360679774997897</speed>
  <fix>3d</fix>
</trkpt>
<trkpt lat="40.0713749" lon="-105.229789">
  <ele>1583.0</ele>
  <time>2026-08-28T17:53:58Z</time>
  <course>0.0</course>
  <speed>0.0</speed>
  <fix>3d</fix>
</trkpt>
<trkpt lat="40.0713751" lon="-105.2297889">
  <ele>1583.0</ele>
  <time>2026-08-28T17:53:58Z</time>
  <course>247.1</course>
  <speed>0.022360679774997897</speed>
  <fix>3d</fix>
</trkpt>
<trkpt lat="40.0713749" lon="-105.229789">
  <ele>1583.0</ele>
  <time>2026-08-28T17:53:58Z</time>
  <course>0.0</course>
  <speed>0.0</speed>
  <fix>3d</fix>
</trkpt>
<trkpt lat="40.071375" lon="-105.2297889">
  <ele>1583.0</ele>
  <time>2026-08-28T17:53:58Z</time>
  <course>247.1</course>
  <speed>0.022360679774997897</speed>
  <fix>3d</fix>
</trkpt>
<trkpt lat="40.0713749" lon="-105.229789">
  <ele>1583.0</ele>
  <time>2026-08-28T17:53:58Z</time>
  <course>0.0</course>
  <speed>0.0</speed>
  <fix>3d</fix>
</trkpt>
<trkpt lat="40.0713751" lon="-105.2297889">
  <ele>1583.0</ele>
  <time>2026-08-28T17:53:58Z</time>
  <course>247.1</course>
  <speed>0.022360679774997897</speed>
  <fix>3d</fix>
</trkpt>
<trkpt lat="40.0713749" lon="-105.229789">
  <ele>1583.0</ele>
  <time>2026-08-28T17:53:58Z</time>
  <course>0.0</course>
  <speed>0.0</speed>
  <fix>3d</fix>
</trkpt>
<trkpt lat="40.071375" lon="-105.2297889">
  <ele>1583.0</ele>
  <time>2026-08-28T17:53:58Z</time>
  <course>247.1</course>
  <speed>0.022360679774997897</speed>
  <fix>3d</fix>
</trkpt>
<trkpt lat="40.0713749" lon="-105.229789">
  <ele>1583.0</ele>
  <time>2026-08-28T17:53:58Z</time>
  <course>0.0</course>
  <speed>0.0</speed>
  <fix>3d</fix>
</trkpt>
<trkpt lat="40.071375" lon="-105.2297889">
  <ele>1583.0</ele>
  <time>2026-08-28T17:53:58Z</time>
  <course>247.1</course>
  <speed>0.022360679774997897</speed>
  <fix>3d</fix>
</trkpt>
<trkpt lat="40.0713749" lon="-105.229789">
  <ele>1583.0</ele>
  <time>2026-08-28T17:53:58Z</time>
  <course>0.0</course>
  <speed>0.0</speed>
  <fix>3d</fix>
</trkpt>
<trkpt lat="40.071375" lon="-105.2297889">
  <ele>1583.0</ele>
  <time>2026-08-28T17:53:58Z</time>
  <course>247.1</course>
  <speed>0.022360679774997897</speed>
  <fix>3d</fix>
</trkpt>
<trkpt lat="40.0713749" lon="-105.229789">
  <ele>1583.0</ele>
  <time>2026-08-28T17:53:58Z</time>
  <course>0.0</course>
  <speed>0.0</speed>
  <fix>3d</fix>
</trkpt>
<trkpt lat="40.071375" lon="-105.2297889">
  <ele>1582.99</ele>
  <time>2026-08-28T17:53:58Z</time>
  <course>247.1</course>
  <speed>0.022360679774997897</speed>
  <fix>3d</fix>
</trkpt>
<trkpt lat="40.0713749" lon="-105.229789">
  <ele>1583.0</ele>
  <time>2026-08-28T17:53:58Z</time>
  <course>0.0</course>
  <speed>0.0</speed>
  <fix>3d</fix>
</trkpt>
<trkpt lat="40.071375" lon="-105.2297889">
  <ele>1582.99</ele>
  <time>2026-08-28T17:53:58Z</time>
  <course>247.1</course>
  <speed>0.022360679774997897</speed>
  <fix>3d</fix>
</trkpt>
<trkpt lat="40.0713749" lon="-105.229789">
  <ele>1583.0</ele>
  <time>2026-08-28T17:53:58Z</time>
  <course>0.0</course>
  <speed>0.0</speed>
  <fix>3d</fix>
</trkpt>
<trkpt lat="40.0713751" lon="-105.2297889">
  <ele>1582.99</ele>
  <time>2026-08-28T17:53:58Z</time>
  <course>247.1</course>
  <speed>0.022360679774997897</speed>
  <fix>3d</fix>
</trkpt>
<trkpt lat="40.0713749" lon="-105.229789">
  <ele>1583.0</ele>
  <time>2026-08-28T17:53:58Z</time>
  <course>0.0</course>
  <speed>0.0</speed>
  <fix>3d</fix>
</trkpt>
<trkpt lat="40.071375" lon="-105.2297889">
  <ele>1582.99</ele>
  <time>2026-08-28T17:53:58Z</time>
  <course>247.1</course>
  <speed>0.022360679774997897</speed>
  <fix>3d</fix>
</trkpt>
<trkpt lat="40.0713749" lon="-105.229789">
  <ele>1583.0</ele>
  <time>2026-08-28T17:53:58Z</time>
  <course>0.0</course>
  <speed>0.0</speed>
  <fix>3d</fix>
</trkpt>
<trkpt lat="40.0713751" lon="-105.2297889">
  <ele>1582.98</ele>
  <time>2026-08-28T17:53:58Z</time>
  <course>247.1</course>
  <speed>0.022360679774997897</speed>
  <fix>3d</fix>
</trkpt>
<trkpt lat="40.0713749" lon="-105.229789">
  <ele>1583.0</ele>
  <time>2026-08-28T17:53:58Z</time>
  <course>0.0</course>
  <speed>0.0</speed>
  <fix>3d</fix>
</trkpt>
<trkpt lat="40.071375" lon="-105.2297889">
  <ele>1582.98</ele>
  <time>2026-08-28T17:53:58Z</time>
  <course>247.1</course>
  <speed>0.022360679774997897</speed>
  <fix>3d</fix>
</trkpt>
<trkpt lat="40.0713749" lon="-105.229789">
  <ele>1583.0</ele>
  <time>2026-08-28T17:53:58Z</time>
  <course>0.0</course>
  <speed>0.0</speed>
  <fix>3d</fix>
</trkpt>
<trkpt lat="40.0713751" lon="-105.2297889">
  <ele>1582.99</ele>
  <time>2026-08-28T17:53:58Z</time>
  <course>247.1</course>
  <speed>0.022360679774997897</speed>
  <fix>3d</fix>
</trkpt>
<trkpt lat="40.0713749" lon="-105.229789">
  <ele>1583.0</ele>
  <time>2026-08-28T17:53:58Z</time>
  <course>0.0</course>
  <speed>0.0</speed>
  <fix>3d</fix>
</trkpt>
<trkpt lat="40.071375" lon="-105.2297889">
  <ele>1582.99</ele>
  <time>2026-08-28T17:53:58Z</time>
  <course>247.1</course>
  <speed>0.022360679774997897</speed>
  <fix>3d</fix>
</trkpt>
<trkpt lat="40.0713749" lon="-105.229789">
  <ele>1583.0</ele>
  <time>2026-08-28T17:53:58Z</time>
  <course>0.0</course>
  <speed>0.0</speed>
  <fix>3d</fix>
</trkpt>
<trkpt lat="40.0713751" lon="-105.2297889">
  <ele>1582.99</ele>
  <time>2026-08-28T17:53:58Z</time>
  <course>247.1</course>
  <speed>0.022360679774997897</speed>
  <fix>3d</fix>
</trkpt>
<trkpt lat="40.0713749" lon="-105.229789">
  <ele>1583.0</ele>
  <time>2026-08-28T17:53:58Z</time>
  <course>0.0</course>
  <speed>0.0</speed>
  <fix>3d</fix>
</trkpt>
<trkpt lat="40.0713751" lon="-105.2297889">
  <ele>1582.99</ele>
  <time>2026-08-28T17:53:58Z</time>
  <course>247.1</course>
  <speed>0.022360679774997897</speed>
  <fix>3d</fix>
</trkpt>
<trkpt lat="40.0713749" lon="-105.229789">
  <ele>1583.0</ele>
  <time>2026-08-28T17:53:58Z</time>
  <course>0.0</course>
  <speed>0.0</speed>
  <fix>3d</fix>
</trkpt>
<trkpt lat="40.0713751" lon="-105.2297889">
  <ele>1582.99</ele>
  <time>2026-08-28T17:53:58Z</time>
  <course>247.1</course>
  <speed>0.022360679774997897</speed>
  <fix>3d</fix>
</trkpt>
<trkpt lat="40.0713749" lon="-105.229789">
  <ele>1583.0</ele>
  <time>2026-08-28T17:53:58Z</time>
  <course>0.0</course>
  <speed>0.0</speed>
  <fix>3d</fix>
</trkpt>
<trkpt lat="40.0713751" lon="-105.2297889">
  <ele>1582.99</ele>
  <time>2026-08-28T17:53:58Z</time>
  <course>247.1</course>
  <speed>0.022360679774997897</speed>
  <fix>3d</fix>
</trkpt>
<trkpt lat="40.0713749" lon="-105.229789">
  <ele>1583.0</ele>
  <time>2026-08-28T17:53:58Z</time>
  <course>0.0</course>
  <speed>0.0</speed>
  <fix>3d</fix>
</trkpt>
<trkpt lat="40.0713751" lon="-105.2297889">
  <ele>1582.99</ele>
  <time>2026-08-28T17:53:58Z</time>
  <course>247.1</course>
  <speed>0.022360679774997897</speed>
  <fix>3d</fix>
</trkpt>
<trkpt lat="40.0713749" lon="-105.229789">
  <ele>1583.0</ele>
  <time>2026-08-28T17:53:58Z</time>
  <course>0.0</course>
  <speed>0.0</speed>
  <fix>3d</fix>
</trkpt>
<trkpt lat="40.0713751" lon="-105.2297889">
  <ele>1582.99</ele>
  <time>2026-08-28T17:53:58Z</time>
  <course>247.1</course>
  <speed>0.022360679774997897</speed>
  <fix>3d</fix>
</trkpt>
<trkpt lat="40.0713749" lon="-105.229789">
  <ele>1583.0</ele>
  <time>2026-08-28T17:53:58Z</time>
  <course>0.0</course>
  <speed>0.0</speed>
  <fix>3d</fix>
</trkpt>
<trkpt lat="40.0713751" lon="-105.2297889">
  <ele>1582.99</ele>
  <time>2026-08-28T17:53:58Z</time>
  <course>247.1</course>
  <speed>0.022360679774997897</speed>
  <fix>3d</fix>
</trkpt>
<trkpt lat="40.0713749" lon="-105.229789">
  <ele>1583.0</ele>
  <time>2026-08-28T17:53:58Z</time>
  <course>0.0</course>
  <speed>0.0</speed>
  <fix>3d</fix>
</trkpt>
<trkpt lat="40.0713751" lon="-105.2297889">
  <ele>1582.98</ele>
  <time>2026-08-28T17:53:58Z</time>
  <course>247.1</course>
  <speed>0.022360679774997897</speed>
  <fix>3d</fix>
</trkpt>
<trkpt lat="40.0713749" lon="-105.229789">
  <ele>1583.0</ele>
  <time>2026-08-28T17:53:58Z</time>
  <course>0.0</course>
  <speed>0.0</speed>
  <fix>3d</fix>
</trkpt>
<trkpt lat="40.0713751" lon="-105.2297889">
  <ele>1582.98</ele>
  <time>2026-08-28T17:53:58Z</time>
  <course>247.1</course>
  <speed>0.022360679774997897</speed>
  <fix>3d</fix>
</trkpt>
<trkpt lat="40.0713749" lon="-105.229789">
  <ele>1583.0</ele>
  <time>2026-08-28T17:53:58Z</time>
  <course>0.0</course>
  <speed>0.0</speed>
  <fix>3d</fix>
</trkpt>
<trkpt lat="40.071375" lon="-105.2297889">
  <ele>1582.99</ele>
  <time>2026-08-28T17:53:58Z</time>
  <course>247.1</course>
  <speed>0.022360679774997897</speed>
  <fix>3d</fix>
</trkpt>
<trkpt lat="40.0713749" lon="-105.229789">
  <ele>1583.0</ele>
  <time>2026-08-28T17:53:58Z</time>
  <course>0.0</course>
  <speed>0.0</speed>
  <fix>3d</fix>
</trkpt>
<trkpt lat="40.0713751" lon="-105.2297889">
  <ele>1582.99</ele>
  <time>2026-08-28T17:53:58Z</time>
  <course>247.1</course>
  <speed>0.022360679774997897</speed>
  <fix>3d</fix>
</trkpt>
<trkpt lat="40.0713749" lon="-105.229789">
  <ele>1583.0</ele>
  <time>2026-08-28T17:53:58Z</time>
  <course>0.0</course>
  <speed>0.0</speed>
  <fix>3d</fix>
</trkpt>
<trkpt lat="40.071375" lon="-105.2297889">
  <ele>1582.99</ele>
  <time>2026-08-28T17:53:58Z</time>
  <course>247.1</course>
  <speed>0.022360679774997897</speed>
  <fix>3d</fix>
</trkpt>
<trkpt lat="40.0713749" lon="-105.229789">
  <ele>1583.0</ele>
  <time>2026-08-28T17:53:58Z</time>
  <course>0.0</course>
  <speed>0.0</speed>
  <fix>3d</fix>
</trkpt>
<trkpt lat="40.0713751" lon="-105.2297889">
  <ele>1582.99</ele>
  <time>2026-08-28T17:53:58Z</time>
  <course>247.1</course>
  <speed>0.022360679774997897</speed>
  <fix>3d</fix>
</trkpt>
<trkpt lat="40.0713749" lon="-105.229789">
  <ele>1583.0</ele>
  <time>2026-08-28T17:53:58Z</time>
  <course>0.0</course>
  <speed>0.0</speed>
  <fix>3d</fix>
</trkpt>
<trkpt lat="40.071375" lon="-105.2297889">
  <ele>1582.99</ele>
  <time>2026-08-28T17:53:58Z</time>
  <course>247.1</course>
  <speed>0.022360679774997897</speed>
  <fix>3d</fix>
</trkpt>
<trkpt lat="40.0713749" lon="-105.229789">
  <ele>1583.0</ele>
  <time>2026-08-28T17:53:58Z</time>
  <course>0.0</course>
  <speed>0.0</speed>
  <fix>3d</fix>
</trkpt>
<trkpt lat="40.0713751" lon="-105.2297889">
  <ele>1582.99</ele>
  <time>2026-08-28T17:53:58Z</time>
  <course>247.1</course>
  <speed>0.022360679774997897</speed>
  <fix>3d</fix>
</trkpt>
<trkpt lat="40.0713749" lon="-105.229789">
  <ele>1583.0</ele>
  <time>2026-08-28T17:53:58Z</time>
  <course>0.0</course>
  <speed>0.0</speed>
  <fix>3d</fix>
</trkpt>
<trkpt lat="40.071375" lon="-105.2297889">
  <ele>1582.99</ele>
  <time>2026-08-28T17:53:58Z</time>
  <course>247.1</course>
  <speed>0.022360679774997897</speed>
  <fix>3d</fix>
</trkpt>
<trkpt lat="40.0713749" lon="-105.229789">
  <ele>1583.0</ele>
  <time>2026-08-28T17:53:58Z</time>
  <course>0.0</course>
  <speed>0.0</speed>
  <fix>3d</fix>
</trkpt>
<trkpt lat="40.0713751" lon="-105.2297889">
  <ele>1582.99</ele>
  <time>2026-08-28T17:53:58Z</time>
  <course>247.1</course>
  <speed>0.022360679774997897</speed>
  <fix>3d</fix>
</trkpt>
<trkpt lat="40.0713749" lon="-105.229789">
  <ele>1583.0</ele>
  <time>2026-08-28T17:53:58Z</time>
  <course>0.0</course>
  <speed>0.0</speed>
  <fix>3d</fix>
</trkpt>
<trkpt lat="40.071375" lon="-105.2297889">
  <ele>1582.99</ele>
  <time>2026-08-28T17:53:58Z</time>
  <course>247.1</course>
  <speed>0.022360679774997897</speed>
  <fix>3d</fix>
</trkpt>
<trkpt lat="40.0713749" lon="-105.229789">
  <ele>1583.0</ele>
  <time>2026-08-28T17:53:58Z</time>
  <course>0.0</course>
  <speed>0.0</speed>
  <fix>3d</fix>
</trkpt>
<trkpt lat="40.0713751" lon="-105.2297889">
  <ele>1582.98</ele>
  <time>2026-08-28T17:53:58Z</time>
  <course>247.1</course>
  <speed>0.022360679774997897</speed>
  <fix>3d</fix>
</trkpt>
<trkpt lat="40.0713749" lon="-105.229789">
  <ele>1583.0</ele>
  <time>2026-08-28T17:53:58Z</time>
  <course>0.0</course>
  <speed>0.0</speed>
  <fix>3d</fix>
</trkpt>
<trkpt lat="40.071375" lon="-105.2297889">
  <ele>1582.98</ele>
  <time>2026-08-28T17:53:58Z</time>
  <course>247.1</course>
  <speed>0.022360679774997897</speed>
  <fix>3d</fix>
</trkpt>
<trkpt lat="40.0713749" lon="-105.229789">
  <ele>1583.0</ele>
  <time>2026-08-28T17:53:58Z</time>
  <course>0.0</course>
  <speed>0.0</speed>
  <fix>3d</fix>
</trkpt>
<trkpt lat="40.0713751" lon="-105.2297889">
  <ele>1582.98</ele>
  <time>2026-08-28T17:53:58Z</time>
  <course>247.1</course>
  <speed>0.022360679774997897</speed>
  <fix>3d</fix>
</trkpt>
<trkpt lat="40.0713749" lon="-105.229789">
  <ele>1583.0</ele>
  <time>2026-08-28T17:53:58Z</time>
  <course>0.0</course>
  <speed>0.0</speed>
  <fix>3d</fix>
</trkpt>
<trkpt lat="40.071375" lon="-105.2297889">
  <ele>1582.98</ele>
  <time>2026-08-28T17:53:58Z</time>
  <course>247.1</course>
  <speed>0.022360679774997897</speed>
  <fix>3d</fix>
</trkpt>
<trkpt lat="40.0713749" lon="-105.229789">
  <ele>1583.0</ele>
  <time>2026-08-28T17:53:58Z</time>
  <course>0.0</course>
  <speed>0.0</speed>
  <fix>3d</fix>
</trkpt>
<trkpt lat="40.0713751" lon="-105.2297889">
  <ele>1582.98</ele>
  <time>2026-08-28T17:53:58Z</time>
  <course>247.1</course>
  <speed>0.022360679774997897</speed>
  <fix>3d</fix>
</trkpt>
<trkpt lat="40.0713749" lon="-105.229789">
  <ele>1583.0</ele>
  <time>2026-08-28T17:53:58Z</time>
  <course>0.0</course>
  <speed>0.0</speed>
  <fix>3d</fix>
</trkpt>
<trkpt lat="40.0713751" lon="-105.2297889">
  <ele>1582.98</ele>
  <time>2026-08-28T17:53:58Z</time>
  <course>247.1</course>
  <speed>0.022360679774997897</speed>
  <fix>3d</fix>
</trkpt>
<trkpt lat="40.0713749" lon="-105.229789">
  <ele>1583.0</ele>
  <time>2026-08-28T17:53:58Z</time>
  <course>0.0</course>
  <speed>0.0</speed>
  <fix>3d</fix>
</trkpt>
<trkpt lat="40.0713751" lon="-105.2297889">
  <ele>1582.99</ele>
  <time>2026-08-28T17:53:58Z</time>
  <course>247.1</course>
  <speed>0.022360679774997897</speed>
  <fix>3d</fix>
</trkpt>
<trkpt lat="40.0713749" lon="-105.229789">
  <ele>1583.0</ele>
  <time>2026-08-28T17:53:58Z</time>
  <course>0.0</course>
  <speed>0.0</speed>
  <fix>3d</fix>
</trkpt>
<trkpt lat="40.0713751" lon="-105.2297889">
  <ele>1582.99</ele>
  <time>2026-08-28T17:53:58Z</time>
  <course>247.1</course>
  <speed>0.022360679774997897</speed>
  <fix>3d</fix>
</trkpt>
<trkpt lat="40.0713749" lon="-105.229789">
  <ele>1583.0</ele>
  <time>2026-08-28T17:53:58Z</time>
  <course>0.0</course>
  <speed>0.0</speed>
  <fix>3d</fix>
</trkpt>
<trkpt lat="40.0713751" lon="-105.2297889">
  <ele>1582.99</ele>
  <time>2026-08-28T17:53:58Z</time>
  <course>247.1</course>
  <speed>0.022360679774997897</speed>
  <fix>3d</fix>
</trkpt>
<trkpt lat="40.0713749" lon="-105.229789">
  <ele>1583.0</ele>
  <time>2026-08-28T17:53:58Z</time>
  <course>0.0</course>
  <speed>0.0</speed>
  <fix>3d</fix>
</trkpt>
<trkpt lat="40.0713751" lon="-105.2297889">
  <ele>1583.0</ele>
  <time>2026-08-28T17:53:58Z</time>
  <course>247.1</course>
  <speed>0.022360679774997897</speed>
  <fix>3d</fix>
</trkpt>
<trkpt lat="40.0713749" lon="-105.229789">
  <ele>1583.0</ele>
  <time>2026-08-28T17:53:58Z</time>
  <course>0.0</course>
  <speed>0.0</speed>
  <fix>3d</fix>
</trkpt>
<trkpt lat="40.0713751" lon="-105.2297889">
  <ele>1583.0</ele>
  <time>2026-08-28T17:53:58Z</time>
  <course>247.09</course>
  <speed>0.022360679774997897</speed>
  <fix>3d</fix>
</trkpt>
<trkpt lat="40.0713749" lon="-105.229789">
  <ele>1583.0</ele>
  <time>2026-08-28T17:53:58Z</time>
  <course>0.0</course>
  <speed>0.0</speed>
  <fix>3d</fix>
</trkpt>
<trkpt lat="40.0713751" lon="-105.2297889">
  <ele>1583.0</ele>
  <time>2026-08-28T17:53:58Z</time>
  <course>247.09</course>
  <speed>0.022360679774997897</speed>
  <fix>3d</fix>
</trkpt>
<trkpt lat="40.0713749" lon="-105.229789">
  <ele>1583.0</ele>
  <time>2026-08-28T17:53:58Z</time>
  <course>0.0</course>
  <speed>0.0</speed>
  <fix>3d</fix>
</trkpt>
<trkpt lat="40.0713751" lon="-105.2297889">
  <ele>1583.0</ele>
  <time>2026-08-28T17:53:58Z</time>
  <course>247.09</course>
  <speed>0.022360679774997897</speed>
  <fix>3d</fix>
</trkpt>
<trkpt lat="40.0713749" lon="-105.229789">
  <ele>1583.0</ele>
  <time>2026-08-28T17:53:58Z</time>
  <course>0.0</course>
  <speed>0.0</speed>
  <fix>3d</fix>
</trkpt>
<trkpt lat="40.071375" lon="-105.2297889">
  <ele>1583.0</ele>
  <time>2026-08-28T17:53:58Z</time>
  <course>247.09</course>
  <speed>0.022360679774997897</speed>
  <fix>3d</fix>
</trkpt>
<trkpt lat="40.0713749" lon="-105.229789">
  <ele>1583.0</ele>
  <time>2026-08-28T17:53:58Z</time>
  <course>0.0</course>
  <speed>0.0</speed>
  <fix>3d</fix>
</trkpt>
<trkpt lat="40.0713751" lon="-105.2297889">
  <ele>1582.99</ele>
  <time>2026-08-28T17:53:58Z</time>
  <course>247.09</course>
  <speed>0.022360679774997897</speed>
  <fix>3d</fix>
</trkpt>
<trkpt lat="40.0713749" lon="-105.229789">
  <ele>1583.0</ele>
  <time>2026-08-28T17:53:58Z</time>
  <course>0.0</course>
  <speed>0.0</speed>
  <fix>3d</fix>
</trkpt>
<trkpt lat="40.071375" lon="-105.2297889">
  <ele>1582.99</ele>
  <time>2026-08-28T17:53:58Z</time>
  <course>247.09</course>
  <speed>0.022360679774997897</speed>
  <fix>3d</fix>
</trkpt>
<trkpt lat="40.0713749" lon="-105.229789">
  <ele>1583.0</ele>
  <time>2026-08-28T17:53:58Z</time>
  <course>0.0</course>
  <speed>0.0</speed>
  <fix>3d</fix>
</trkpt>
<trkpt lat="40.0713751" lon="-105.2297889">
  <ele>1582.99</ele>
  <time>2026-08-28T17:53:58Z</time>
  <course>247.09</course>
  <speed>0.022360679774997897</speed>
  <fix>3d</fix>
</trkpt>
<trkpt lat="40.0713749" lon="-105.229789">
  <ele>1583.0</ele>
  <time>2026-08-28T17:53:58Z</time>
  <course>0.0</course>
  <speed>0.0</speed>
  <fix>3d</fix>
</trkpt>
<trkpt lat="40.071375" lon="-105.2297889">
  <ele>1582.98</ele>
  <time>2026-08-28T17:53:58Z</time>
  <course>247.09</course>
  <speed>0.022360679774997897</speed>
  <fix>3d</fix>
</trkpt>
<trkpt lat="40.0713749" lon="-105.229789">
  <ele>1583.0</ele>
  <time>2026-08-28T17:53:58Z</time>
  <course>0.0</course>
  <speed>0.0</speed>
  <fix>3d</fix>
</trkpt>
<trkpt lat="40.0713751" lon="-105.2297889">
  <ele>1582.98</ele>
  <time>2026-08-28T17:53:58Z</time>
  <course>247.09</course>
  <speed>0.022360679774997897</speed>
  <fix>3d</fix>
</trkpt>
<trkpt lat="40.0713749" lon="-105.229789">
  <ele>1583.0</ele>
  <time>2026-08-28T17:53:58Z</time>
  <course>0.0</course>
  <speed>0.0</speed>
  <fix>3d</fix>
</trkpt>
<trkpt lat="40.071375" lon="-105.2297889">
  <ele>1582.98</ele>
  <time>2026-08-28T17:53:58Z</time>
  <course>247.09</course>
  <speed>0.022360679774997897</speed>
  <fix>3d</fix>
</trkpt>
<trkpt lat="40.0713749" lon="-105.229789">
  <ele>1583.0</ele>
  <time>2026-08-28T17:53:58Z</time>
  <course>0.0</course>
  <speed>0.0</speed>
  <fix>3d</fix>
</trkpt>
<trkpt lat="40.0713751" lon="-105.2297889">
  <ele>1582.98</ele>
  <time>2026-08-28T17:53:58Z</time>
  <course>247.09</course>
  <speed>0.022360679774997897</speed>
  <fix>3d</fix>
</trkpt>
<trkpt lat="40.0713749" lon="-105.229789">
  <ele>1583.0</ele>
  <time>2026-08-28T17:53:58Z</time>
  <course>0.0</course>
  <speed>0.0</speed>
  <fix>3d</fix>
</trkpt>
<trkpt lat="40.071375" lon="-105.2297889">
  <ele>1582.97</ele>
  <time>2026-08-28T17:53:58Z</time>
  <course>247.09</course>
  <speed>0.022360679774997897</speed>
  <fix>3d</fix>
</trkpt>
<trkpt lat="40.0713749" lon="-105.229789">
  <ele>1583.0</ele>
  <time>2026-08-28T17:53:58Z</time>
  <course>0.0</course>
  <speed>0.0</speed>
  <fix>3d</fix>
</trkpt>
<trkpt lat="40.0713751" lon="-105.2297889">
  <ele>1582.97</ele>
  <time>2026-08-28T17:53:58Z</time>
  <course>247.09</course>
  <speed>0.022360679774997897</speed>
  <fix>3d</fix>
</trkpt>
<trkpt lat="40.0713749" lon="-105.229789">
  <ele>1583.0</ele>
  <time>2026-08-28T17:53:58Z</time>
  <course>0.0</course>
  <speed>0.0</speed>
  <fix>3d</fix>
</trkpt>
<trkpt lat="40.0713751" lon="-105.2297889">
  <ele>1582.97</ele>
  <time>2026-08-28T17:53:58Z</time>
  <course>247.09</course>
  <speed>0.022360679774997897</speed>
  <fix>3d</fix>
</trkpt>
<trkpt lat="40.0713749" lon="-105.229789">
  <ele>1583.0</ele>
  <time>2026-08-28T17:53:58Z</time>
  <course>0.0</course>
  <speed>0.0</speed>
  <fix>3d</fix>
</trkpt>
<trkpt lat="40.0713751" lon="-105.2297889">
  <ele>1582.97</ele>
  <time>2026-08-28T17:53:58Z</time>
  <course>247.09</course>
  <speed>0.022360679774997897</speed>
  <fix>3d</fix>
</trkpt>
<trkpt lat="40.0713749" lon="-105.229789">
  <ele>1583.0</ele>
  <time>2026-08-28T17:53:58Z</time>
  <course>0.0</course>
  <speed>0.0</speed>
  <fix>3d</fix>
</trkpt>
<trkpt lat="40.0713751" lon="-105.2297889">
  <ele>1582.97</ele>
  <time>2026-08-28T17:53:58Z</time>
  <course>247.09</course>
  <speed>0.022360679774997897</speed>
  <fix>3d</fix>
</trkpt>
<trkpt lat="40.0713749" lon="-105.229789">
  <ele>1583.0</ele>
  <time>2026-08-28T17:53:58Z</time>
  <course>0.0</course>
  <speed>0.0</speed>
  <fix>3d</fix>
</trkpt>
<trkpt lat="40.0713751" lon="-105.2297889">
  <ele>1582.97</ele>
  <time>2026-08-28T17:53:58Z</time>
  <course>247.09</course>
  <speed>0.022360679774997897</speed>
  <fix>3d</fix>
</trkpt>
<trkpt lat="40.0713749" lon="-105.229789">
  <ele>1583.0</ele>
  <time>2026-08-28T17:53:58Z</time>
  <course>0.0</course>
  <speed>0.0</speed>
  <fix>3d</fix>
</trkpt>
<trkpt lat="40.0713751" lon="-105.2297889">
  <ele>1582.97</ele>
  <time>2026-08-28T17:53:58Z</time>
  <course>247.09</course>
  <speed>0.022360679774997897</speed>
  <fix>3d</fix>
</trkpt>
<trkpt lat="40.0713749" lon="-105.229789">
  <ele>1583.0</ele>
  <time>2026-08-28T17:53:58Z</time>
  <course>0.0</course>
  <speed>0.0</speed>
  <fix>3d</fix>
</trkpt>
<trkpt lat="40.0713751" lon="-105.2297889">
  <ele>1582.98</ele>
  <time>2026-08-28T17:53:58Z</time>
  <course>247.09</course>
  <speed>0.022360679774997897</speed>
  <fix>3d</fix>
</trkpt>
<trkpt lat="40.0713749" lon="-105.229789">
  <ele>1583.0</ele>
  <time>2026-08-28T17:53:58Z</time>
  <course>0.0</course>
  <speed>0.0</speed>
  <fix>3d</fix>
</trkpt>
<trkpt lat="40.0713751" lon="-105.2297889">
  <ele>1582.98</ele>
  <time>2026-08-28T17:53:58Z</time>
  <course>247.09</course>
  <speed>0.02</speed>
  <fix>3d</fix>
</trkpt>
<trkpt lat="40.0713749" lon="-105.229789">
  <ele>1583.0</ele>
  <time>2026-08-28T17:53:58Z</time>
  <course>0.0</course>
  <speed>0.0</speed>
  <fix>3d</fix>
</trkpt>
<trkpt lat="40.0713751" lon="-105.2297889">
  <ele>1582.98</ele>
  <time>2026-08-28T17:53:58Z</time>
  <course>247.09</course>
  <speed>0.022360679774997897</speed>
  <fix>3d</fix>
</trkpt>
<trkpt lat="40.0713749" lon="-105.229789">
  <ele>1583.0</ele>
  <time>2026-08-28T17:53:58Z</time>
  <course>0.0</course>
  <speed>0.0</speed>
  <fix>3d</fix>
</trkpt>
<trkpt lat="40.0713751" lon="-105.2297889">
  <ele>1582.99</ele>
  <time>2026-08-28T17:53:58Z</time>
  <course>247.09</course>
  <speed>0.02</speed>
  <fix>3d</fix>
</trkpt>
<trkpt lat="40.0713749" lon="-105.229789">
  <ele>1583.0</ele>
  <time>2026-08-28T17:53:58Z</time>
  <course>0.0</course>
  <speed>0.0</speed>
  <fix>3d</fix>
</trkpt>
<trkpt lat="40.0713751" lon="-105.2297889">
  <ele>1582.99</ele>
  <time>2026-08-28T17:53:58Z</time>
  <course>247.09</course>
  <speed>0.022360679774997897</speed>
  <fix>3d</fix>
</trkpt>
<trkpt lat="40.0713749" lon="-105.229789">
  <ele>1583.0</ele>
  <time>2026-08-28T17:53:58Z</time>
  <course>0.0</course>
  <speed>0.0</speed>
  <fix>3d</fix>
</trkpt>
<trkpt lat="40.071375" lon="-105.2297889">
  <ele>1583.0</ele>
  <time>2026-08-28T17:53:58Z</time>
  <course>247.09</course>
  <speed>0.02</speed>
  <fix>3d</fix>
</trkpt>
<trkpt lat="40.0713749" lon="-105.229789">
  <ele>1583.0</ele>
  <time>2026-08-28T17:53:58Z</time>
  <course>0.0</course>
  <speed>0.0</speed>
  <fix>3d</fix>
</trkpt>
<trkpt lat="40.0713751" lon="-105.2297889">
  <ele>1583.0</ele>
  <time>2026-08-28T17:53:58Z</time>
  <course>247.09</course>
  <speed>0.02</speed>
  <fix>3d</fix>
</trkpt>
<trkpt lat="40.0713749" lon="-105.229789">
  <ele>1583.0</ele>
  <time>2026-08-28T17:53:58Z</time>
  <course>0.0</course>
  <speed>0.0</speed>
  <fix>3d</fix>
</trkpt>
<trkpt lat="40.071375" lon="-105.2297889">
  <ele>1583.01</ele>
  <time>2026-08-28T17:53:58Z</time>
  <course>247.09</course>
  <speed>0.02</speed>
  <fix>3d</fix>
</trkpt>
<trkpt lat="40.0713749" lon="-105.229789">
  <ele>1583.0</ele>
  <time>2026-08-28T17:53:58Z</time>
  <course>0.0</course>
  <speed>0.0</speed>
  <fix>3d</fix>
</trkpt>
<trkpt lat="40.0713751" lon="-105.2297889">
  <ele>1583.01</ele>
  <time>2026-08-28T17:53:58Z</time>
  <course>247.09</course>
  <speed>0.022360679774997897</speed>
  <fix>3d</fix>
</trkpt>
<trkpt lat="40.0713749" lon="-105.229789">
  <ele>1583.0</ele>
  <time>2026-08-28T17:53:58Z</time>
  <course>0.0</course>
  <speed>0.0</speed>
  <fix>3d</fix>
</trkpt>
<trkpt lat="40.071375" lon="-105.2297889">
  <ele>1583.01</ele>
  <time>2026-08-28T17:53:58Z</time>
  <course>247.09</course>
  <speed>0.02</speed>
  <fix>3d</fix>
</trkpt>
<trkpt lat="40.0713749" lon="-105.229789">
  <ele>1583.0</ele>
  <time>2026-08-28T17:53:58Z</time>
  <course>0.0</course>
  <speed>0.0</speed>
  <fix>3d</fix>
</trkpt>
<trkpt lat="40.0713751" lon="-105.2297889">
  <ele>1583.0</ele>
  <time>2026-08-28T17:53:58Z</time>
  <course>247.09</course>
  <speed>0.022360679774997897</speed>
  <fix>3d</fix>
</trkpt>
<trkpt lat="40.0713749" lon="-105.229789">
  <ele>1583.0</ele>
  <time>2026-08-28T17:53:58Z</time>
  <course>0.0</course>
  <speed>0.0</speed>
  <fix>3d</fix>
</trkpt>
<trkpt lat="40.071375" lon="-105.2297889">
  <ele>1583.01</ele>
  <time>2026-08-28T17:53:58Z</time>
  <course>247.09</course>
  <speed>0.02</speed>
  <fix>3d</fix>
</trkpt>
<trkpt lat="40.0713749" lon="-105.229789">
  <ele>1583.0</ele>
  <time>2026-08-28T17:53:58Z</time>
  <course>0.0</course>
  <speed>0.0</speed>
  <fix>3d</fix>
</trkpt>
<trkpt lat="40.0713751" lon="-105.2297889">
  <ele>1583.01</ele>
  <time>2026-08-28T17:53:58Z</time>
  <course>247.09</course>
  <speed>0.022360679774997897</speed>
  <fix>3d</fix>
</trkpt>
<trkpt lat="40.0713749" lon="-105.229789">
  <ele>1583.0</ele>
  <time>2026-08-28T17:53:58Z</time>
  <course>0.0</course>
  <speed>0.0</speed>
  <fix>3d</fix>
</trkpt>
<trkpt lat="40.0713751" lon="-105.2297889">
  <ele>1583.01</ele>
  <time>2026-08-28T17:53:58Z</time>
  <course>247.09</course>
  <speed>0.022360679774997897</speed>
  <fix>3d</fix>
</trkpt>
<trkpt lat="40.0713749" lon="-105.229789">
  <ele>1583.0</ele>
  <time>2026-08-28T17:53:58Z</time>
  <course>0.0</course>
  <speed>0.0</speed>
  <fix>3d</fix>
</trkpt>
<trkpt lat="40.0713751" lon="-105.2297889">
  <ele>1583.02</ele>
  <time>2026-08-28T17:53:58Z</time>
  <course>247.09</course>
  <speed>0.022360679774997897</speed>
  <fix>3d</fix>
</trkpt>
<trkpt lat="40.0713749" lon="-105.229789">
  <ele>1583.0</ele>
  <time>2026-08-28T17:53:58Z</time>
  <course>0.0</course>
  <speed>0.0</speed>
  <fix>3d</fix>
</trkpt>
<trkpt lat="40.0713751" lon="-105.2297889">
  <ele>1583.02</ele>
  <time>2026-08-28T17:53:58Z</time>
  <course>247.09</course>
  <speed>0.022360679774997897</speed>
  <fix>3d</fix>
</trkpt>
<trkpt lat="40.0713749" lon="-105.229789">
  <ele>1583.0</ele>
  <time>2026-08-28T17:53:58Z</time>
  <course>0.0</course>
  <speed>0.0</speed>
  <fix>3d</fix>
</trkpt>
<trkpt lat="40.0713751" lon="-105.2297889">
  <ele>1583.02</ele>
  <time>2026-08-28T17:53:58Z</time>
  <course>247.09</course>
  <speed>0.022360679774997897</speed>
  <fix>3d</fix>
</trkpt>
<trkpt lat="40.0713749" lon="-105.229789">
  <ele>1583.0</ele>
  <time>2026-08-28T17:53:58Z</time>
  <course>0.0</course>
  <speed>0.0</speed>
  <fix>3d</fix>
</trkpt>
<trkpt lat="40.0713751" lon="-105.2297889">
  <ele>1583.02</ele>
  <time>2026-08-28T17:53:58Z</time>
  <course>247.09</course>
  <speed>0.022360679774997897</speed>
  <fix>3d</fix>
</trkpt>
<trkpt lat="40.0713749" lon="-105.229789">
  <ele>1583.0</ele>
  <time>2026-08-28T17:53:58Z</time>
  <course>0.0</course>
  <speed>0.0</speed>
  <fix>3d</fix>
</trkpt>
<trkpt lat="40.0713751" lon="-105.2297889">
  <ele>1583.02</ele>
  <time>2026-08-28T17:53:58Z</time>
  <course>247.09</course>
  <speed>0.022360679774997897</speed>
  <fix>3d</fix>
</trkpt>
<trkpt lat="40.0713749" lon="-105.229789">
  <ele>1583.0</ele>
  <time>2026-08-28T17:53:58Z</time>
  <course>0.0</course>
  <speed>0.0</speed>
  <fix>3d</fix>
</trkpt>
<trkpt lat="40.0713751" lon="-105.2297889">
  <ele>1583.02</ele>
  <time>2026-08-28T17:53:58Z</time>
  <course>247.09</course>
  <speed>0.022360679774997897</speed>
  <fix>3d</fix>
</trkpt>
<trkpt lat="40.0713749" lon="-105.229789">
  <ele>1583.0</ele>
  <time>2026-08-28T17:53:58Z</time>
  <course>0.0</course>
  <speed>0.0</speed>
  <fix>3d</fix>
</trkpt>
<trkpt lat="40.0713751" lon="-105.2297889">
  <ele>1583.02</ele>
  <time>2026-08-28T17:53:58Z</time>
  <course>247.09</course>
  <speed>0.022360679774997897</speed>
  <fix>3d</fix>
</trkpt>
<trkpt lat="40.0713749" lon="-105.229789">
  <ele>1583.0</ele>
  <time>2026-08-28T17:53:58Z</time>
  <course>0.0</course>
  <speed>0.0</speed>
  <fix>3d</fix>
</trkpt>
<trkpt lat="40.0713751" lon="-105.2297889">
  <ele>1583.01</ele>
  <time>2026-08-28T17:53:58Z</time>
  <course>247.09</course>
  <speed>0.022360679774997897</speed>
  <fix>3d</fix>
</trkpt>
<trkpt lat="40.0713749" lon="-105.229789">
  <ele>1583.0</ele>
  <time>2026-08-28T17:53:58Z</time>
  <course>0.0</course>
  <speed>0.0</speed>
  <fix>3d</fix>
</trkpt>
<trkpt lat="40.0713751" lon="-105.2297889">
  <ele>1583.01</ele>
  <time>2026-08-28T17:53:58Z</time>
  <course>247.09</course>
  <speed>0.022360679774997897</speed>
  <fix>3d</fix>
</trkpt>
<trkpt lat="40.0713749" lon="-105.229789">
  <ele>1583.0</ele>
  <time>2026-08-28T17:53:58Z</time>
  <course>0.0</course>
  <speed>0.0</speed>
  <fix>3d</fix>
</trkpt>
<trkpt lat="40.0713751" lon="-105.2297889">
  <ele>1583.01</ele>
  <time>2026-08-28T17:53:58Z</time>
  <course>247.09</course>
  <speed>0.022360679774997897</speed>
  <fix>3d</fix>
</trkpt>
<trkpt lat="40.0713749" lon="-105.229789">
  <ele>1583.0</ele>
  <time>2026-08-28T17:53:58Z</time>
  <course>0.0</course>
  <speed>0.0</speed>
  <fix>3d</fix>
</trkpt>
<trkpt lat="40.0713751" lon="-105.2297889">
  <ele>1583.0</ele>
  <time>2026-08-28T17:53:58Z</time>
  <course>247.09</course>
  <speed>0.022360679774997897</speed>
  <fix>3d</fix>
</trkpt>
<trkpt lat="40.0713749" lon="-105.229789">
  <ele>1583.0</ele>
  <time>2026-08-28T17:53:58Z</time>
  <course>0.0</course>
  <speed>0.0</speed>
  <fix>3d</fix>
</trkpt>
<trkpt lat="40.0713751" lon="-105.2297889">
  <ele>1583.0</ele>
  <time>2026-08-28T17:53:58Z</time>
  <course>247.09</course>
  <speed>0.02</speed>
  <fix>3d</fix>
</trkpt>
<trkpt lat="40.0713749" lon="-105.229789">
  <ele>1583.0</ele>
  <time>2026-08-28T17:53:58Z</time>
  <course>0.0</course>
  <speed>0.0</speed>
  <fix>3d</fix>
</trkpt>
<trkpt lat="40.0713751" lon="-105.2297889">
  <ele>1583.0</ele>
  <time>2026-08-28T17:53:58Z</time>
  <course>247.09</course>
  <speed>0.022360679774997897</speed>
  <fix>3d</fix>
</trkpt>
<trkpt lat="40.0713749" lon="-105.229789">
  <ele>1583.0</ele>
  <time>2026-08-28T17:53:58Z</time>
  <course>0.0</course>
  <speed>0.0</speed>
  <fix>3d</fix>
</trkpt>
<trkpt lat="40.071375" lon="-105.2297889">
  <ele>1582.99</ele>
  <time>2026-08-28T17:53:58Z</time>
  <course>247.09</course>
  <speed>0.02</speed>
  <fix>3d</fix>
</trkpt>
<trkpt lat="40.0713749" lon="-105.229789">
  <ele>1583.0</ele>
  <time>2026-08-28T17:53:58Z</time>
  <course>0.0</course>
  <speed>0.0</speed>
  <fix>3d</fix>
</trkpt>
<trkpt lat="40.0713751" lon="-105.2297889">
  <ele>1582.99</ele>
  <time>2026-08-28T17:53:58Z</time>
  <course>247.09</course>
  <speed>0.022360679774997897</speed>
  <fix>3d</fix>
</trkpt>
<trkpt lat="40.0713749" lon="-105.229789">
  <ele>1583.0</ele>
  <time>2026-08-28T17:53:58Z</time>
  <course>0.0</course>
  <speed>0.0</speed>
  <fix>3d</fix>
</trkpt>
<trkpt lat="40.071375" lon="-105.2297889">
  <ele>1582.99</ele>
  <time>2026-08-28T17:53:58Z</time>
  <course>247.09</course>
  <speed>0.02</speed>
  <fix>3d</fix>
</trkpt>
<trkpt lat="40.0713749" lon="-105.229789">
  <ele>1583.0</ele>
  <time>2026-08-28T17:53:58Z</time>
  <course>0.0</course>
  <speed>0.0</speed>
  <fix>3d</fix>
</trkpt>
<trkpt lat="40.0713751" lon="-105.2297889">
  <ele>1582.99</ele>
  <time>2026-08-28T17:53:58Z</time>
  <course>247.09</course>
  <speed>0.022360679774997897</speed>
  <fix>3d</fix>
</trkpt>
<trkpt lat="40.0713749" lon="-105.229789">
  <ele>1583.0</ele>
  <time>2026-08-28T17:53:58Z</time>
  <course>0.0</course>
  <speed>0.0</speed>
  <fix>3d</fix>
</trkpt>
<trkpt lat="40.0713751" lon="-105.2297889">
  <ele>1582.99</ele>
  <time>2026-08-28T17:53:58Z</time>
  <course>247.09</course>
  <speed>0.02</speed>
  <fix>3d</fix>
</trkpt>
<trkpt lat="40.0713749" lon="-105.229789">
  <ele>1583.0</ele>
  <time>2026-08-28T17:53:58Z</time>
  <course>0.0</course>
  <speed>0.0</speed>
  <fix>3d</fix>
</trkpt>
<trkpt lat="40.0713751" lon="-105.2297889">
  <ele>1583.0</ele>
  <time>2026-08-28T17:53:58Z</time>
  <course>247.09</course>
  <speed>0.022360679774997897</speed>
  <fix>3d</fix>
</trkpt>
<trkpt lat="40.0713749" lon="-105.229789">
  <ele>1583.0</ele>
  <time>2026-08-28T17:53:58Z</time>
  <course>0.0</course>
  <speed>0.0</speed>
  <fix>3d</fix>
</trkpt>
<trkpt lat="40.0713751" lon="-105.2297889">
  <ele>1583.0</ele>
  <time>2026-08-28T17:53:58Z</time>
  <course>247.09</course>
  <speed>0.02</speed>
  <fix>3d</fix>
</trkpt>
<trkpt lat="40.0713749" lon="-105.229789">
  <ele>1583.0</ele>
  <time>2026-08-28T17:53:58Z</time>
  <course>0.0</course>
  <speed>0.0</speed>
  <fix>3d</fix>
</trkpt>
<trkpt lat="40.0713751" lon="-105.2297889">
  <ele>1583.0</ele>
  <time>2026-08-28T17:53:58Z</time>
  <course>247.09</course>
  <speed>0.022360679774997897</speed>
  <fix>3d</fix>
</trkpt>
<trkpt lat="40.0713749" lon="-105.229789">
  <ele>1583.0</ele>
  <time>2026-08-28T17:53:58Z</time>
  <course>0.0</course>
  <speed>0.0</speed>
  <fix>3d</fix>
</trkpt>
<trkpt lat="40.0713751" lon="-105.2297889">
  <ele>1583.01</ele>
  <time>2026-08-28T17:53:58Z</time>
  <course>247.09</course>
  <speed>0.02</speed>
  <fix>3d</fix>
</trkpt>
<trkpt lat="40.0713749" lon="-105.229789">
  <ele>1583.0</ele>
  <time>2026-08-28T17:53:58Z</time>
  <course>0.0</course>
  <speed>0.0</speed>
  <fix>3d</fix>
</trkpt>
<trkpt lat="40.0713751" lon="-105.2297889">
  <ele>1583.01</ele>
  <time>2026-08-28T17:53:58Z</time>
  <course>247.09</course>
  <speed>0.022360679774997897</speed>
  <fix>3d</fix>
</trkpt>
<trkpt lat="40.0713749" lon="-105.229789">
  <ele>1583.0</ele>
  <time>2026-08-28T17:53:58Z</time>
  <course>0.0</course>
  <speed>0.0</speed>
  <fix>3d</fix>
</trkpt>
<trkpt lat="40.0713751" lon="-105.2297889">
  <ele>1583.01</ele>
  <time>2026-08-28T17:53:58Z</time>
  <course>247.09</course>
  <speed>0.022360679774997897</speed>
  <fix>3d</fix>
</trkpt>
<trkpt lat="40.0713749" lon="-105.229789">
  <ele>1583.0</ele>
  <time>2026-08-28T17:53:58Z</time>
  <course>0.0</course>
  <speed>0.0</speed>
  <fix>3d</fix>
</trkpt>
<trkpt lat="40.0713751" lon="-105.2297889">
  <ele>1583.01</ele>
  <time>2026-08-28T17:53:58Z</time>
  <course>247.09</course>
  <speed>0.022360679774997897</speed>
  <fix>3d</fix>
</trkpt>
<trkpt lat="40.0713749" lon="-105.229789">
  <ele>1583.0</ele>
  <time>2026-08-28T17:53:58Z</time>
  <course>0.0</course>
  <speed>0.0</speed>
  <fix>3d</fix>
</trkpt>
<trkpt lat="40.0713751" lon="-105.2297889">
  <ele>1583.01</ele>
  <time>2026-08-28T17:53:58Z</time>
  <course>247.09</course>
  <speed>0.022360679774997897</speed>
  <fix>3d</fix>
</trkpt>
<trkpt lat="40.0713749" lon="-105.229789">
  <ele>1583.0</ele>
  <time>2026-08-28T17:53:58Z</time>
  <course>0.0</course>
  <speed>0.0</speed>
  <fix>3d</fix>
</trkpt>
<trkpt lat="40.0713751" lon="-105.2297889">
  <ele>1583.01</ele>
  <time>2026-08-28T17:53:58Z</time>
  <course>247.09</course>
  <speed>0.022360679774997897</speed>
  <fix>3d</fix>
</trkpt>
<trkpt lat="40.0713749" lon="-105.229789">
  <ele>1583.0</ele>
  <time>2026-08-28T17:53:58Z</time>
  <course>0.0</course>
  <speed>0.0</speed>
  <fix>3d</fix>
</trkpt>
<trkpt lat="40.0713751" lon="-105.2297889">
  <ele>1583.01</ele>
  <time>2026-08-28T17:53:58Z</time>
  <course>247.09</course>
  <speed>0.022360679774997897</speed>
  <fix>3d</fix>
</trkpt>
<trkpt lat="40.0713749" lon="-105.229789">
  <ele>1583.0</ele>
  <time>2026-08-28T17:53:58Z</time>
  <course>0.0</course>
  <speed>0.0</speed>
  <fix>3d</fix>
</trkpt>
<trkpt lat="40.0713751" lon="-105.2297889">
  <ele>1583.01</ele>
  <time>2026-08-28T17:53:58Z</time>
  <course>247.09</course>
  <speed>0.022360679774997897</speed>
  <fix>3d</fix>
</trkpt>
<trkpt lat="40.0713749" lon="-105.229789">
  <ele>1583.0</ele>
  <time>2026-08-28T17:53:58Z</time>
  <course>0.0</course>
  <speed>0.0</speed>
  <fix>3d</fix>
</trkpt>
<trkpt lat="40.0713751" lon="-105.2297889">
  <ele>1583.01</ele>
  <time>2026-08-28T17:53:58Z</time>
  <course>247.09</course>
  <speed>0.022360679774997897</speed>
  <fix>3d</fix>
</trkpt>
<trkpt lat="40.0713749" lon="-105.229789">
  <ele>1583.0</ele>
  <time>2026-08-28T17:53:58Z</time>
  <course>0.0</course>
  <speed>0.0</speed>
  <fix>3d</fix>
</trkpt>
<trkpt lat="40.0713751" lon="-105.2297889">
  <ele>1583.0</ele>
  <time>2026-08-28T17:53:58Z</time>
  <course>247.09</course>
  <speed>0.022360679774997897</speed>
  <fix>3d</fix>
</trkpt>
<trkpt lat="40.0713749" lon="-105.229789">
  <ele>1583.0</ele>
  <time>2026-08-28T17:53:58Z</time>
  <course>0.0</course>
  <speed>0.0</speed>
  <fix>3d</fix>
</trkpt>
<trkpt lat="40.0713751" lon="-105.2297889">
  <ele>1583.0</ele>
  <time>2026-08-28T17:53:58Z</time>
  <course>247.09</course>
  <speed>0.022360679774997897</speed>
  <fix>3d</fix>
</trkpt>
<trkpt lat="40.0713749" lon="-105.229789">
  <ele>1583.0</ele>
  <time>2026-08-28T17:53:58Z</time>
  <course>0.0</course>
  <speed>0.0</speed>
  <fix>3d</fix>
</trkpt>
<trkpt lat="40.0713751" lon="-105.2297889">
  <ele>1583.01</ele>
  <time>2026-08-28T17:53:58Z</time>
  <course>247.09</course>
  <speed>0.022360679774997897</speed>
  <fix>3d</fix>
</trkpt>
<trkpt lat="40.0713749" lon="-105.229789">
  <ele>1583.0</ele>
  <time>2026-08-28T17:53:58Z</time>
  <course>0.0</course>
  <speed>0.0</speed>
  <fix>3d</fix>
</trkpt>
<trkpt lat="40.0713751" lon="-105.2297889">
  <ele>1583.01</ele>
  <time>2026-08-28T17:53:58Z</time>
  <course>247.09</course>
  <speed>0.022360679774997897</speed>
  <fix>3d</fix>
</trkpt>
<trkpt lat="40.0713749" lon="-105.229789">
  <ele>1583.0</ele>
  <time>2026-08-28T17:53:58Z</time>
  <course>0.0</course>
  <speed>0.0</speed>
  <fix>3d</fix>
</trkpt>
<trkpt lat="40.0713751" lon="-105.2297889">
  <ele>1583.01</ele>
  <time>2026-08-28T17:53:58Z</time>
  <course>247.09</course>
  <speed>0.022360679774997897</speed>
  <fix>3d</fix>
</trkpt>
<trkpt lat="40.0713749" lon="-105.229789">
  <ele>1583.0</ele>
  <time>2026-08-28T17:53:58Z</time>
  <course>0.0</course>
  <speed>0.0</speed>
  <fix>3d</fix>
</trkpt>
<trkpt lat="40.071375" lon="-105.2297889">
  <ele>1583.01</ele>
  <time>2026-08-28T17:53:58Z</time>
  <course>247.09</course>
  <speed>0.022360679774997897</speed>
  <fix>3d</fix>
</trkpt>
<trkpt lat="40.0713749" lon="-105.229789">
  <ele>1583.0</ele>
  <time>2026-08-28T17:53:58Z</time>
  <course>0.0</course>
  <speed>0.0</speed>
  <fix>3d</fix>
</trkpt>
<trkpt lat="40.0713751" lon="-105.2297889">
  <ele>1583.01</ele>
  <time>2026-08-28T17:53:58Z</time>
  <course>247.09</course>
  <speed>0.022360679774997897</speed>
  <fix>3d</fix>
</trkpt>
<trkpt lat="40.0713749" lon="-105.229789">
  <ele>1583.0</ele>
  <time>2026-08-28T17:53:58Z</time>
  <course>0.0</course>
  <speed>0.0</speed>
  <fix>3d</fix>
</trkpt>
<trkpt lat="40.071375" lon="-105.2297889">
  <ele>1583.0</ele>
  <time>2026-08-28T17:53:58Z</time>
  <course>247.09</course>
  <speed>0.022360679774997897</speed>
  <fix>3d</fix>
</trkpt>
<trkpt lat="40.0713749" lon="-105.229789">
  <ele>1583.0</ele>
  <time>2026-08-28T17:53:58Z</time>
  <course>0.0</course>
  <speed>0.0</speed>
  <fix>3d</fix>
</trkpt>
<trkpt lat="40.0713751" lon="-105.2297889">
  <ele>1583.01</ele>
  <time>2026-08-28T17:53:58Z</time>
  <course>247.09</course>
  <speed>0.022360679774997897</speed>
  <fix>3d</fix>
</trkpt>
<trkpt lat="40.0713749" lon="-105.229789">
  <ele>1583.0</ele>
  <time>2026-08-28T17:53:58Z</time>
  <course>0.0</course>
  <speed>0.0</speed>
  <fix>3d</fix>
</trkpt>
<trkpt lat="40.071375" lon="-105.2297889">
  <ele>1583.0</ele>
  <time>2026-08-28T17:53:58Z</time>
  <course>247.09</course>
  <speed>0.022360679774997897</speed>
  <fix>3d</fix>
</trkpt>
<trkpt lat="40.0713749" lon="-105.229789">
  <ele>1583.0</ele>
  <time>2026-08-28T17:53:58Z</time>
  <course>0.0</course>
  <speed>0.0</speed>
  <fix>3d</fix>
</trkpt>
<trkpt lat="40.0713751" lon="-105.2297889">
  <ele>1583.0</ele>
  <time>2026-08-28T17:53:58Z</time>
  <course>247.09</course>
  <speed>0.022360679774997897</speed>
  <fix>3d</fix>
</trkpt>
<trkpt lat="40.0713749" lon="-105.229789">
  <ele>1583.0</ele>
  <time>2026-08-28T17:53:58Z</time>
  <course>0.0</course>
  <speed>0.0</speed>
  <fix>3d</fix>
</trkpt>
<trkpt lat="40.0713751" lon="-105.2297889">
  <ele>1583.0</ele>
  <time>2026-08-28T17:53:58Z</time>
  <course>247.09</course>
  <speed>0.022360679774997897</speed>
  <fix>3d</fix>
</trkpt>
<trkpt lat="40.0713749" lon="-105.229789">
  <ele>1583.0</ele>
  <time>2026-08-28T17:53:58Z</time>
  <course>0.0</course>
  <speed>0.0</speed>
  <fix>3d</fix>
</trkpt>
<trkpt lat="40.0713751" lon="-105.2297889">
  <ele>1583.0</ele>
  <time>2026-08-28T17:53:58Z</time>
  <course>247.09</course>
  <speed>0.022360679774997897</speed>
  <fix>3d</fix>
</trkpt>
<trkpt lat="40.0713749" lon="-105.229789">
  <ele>1583.0</ele>
  <time>2026-08-28T17:53:58Z</time>
  <course>0.0</course>
  <speed>0.0</speed>
  <fix>3d</fix>
</trkpt>
<trkpt lat="40.0713751" lon="-105.2297889">
  <ele>1583.0</ele>
  <time>2026-08-28T17:53:58Z</time>
  <course>247.09</course>
  <speed>0.022360679774997897</speed>
  <fix>3d</fix>
</trkpt>
<trkpt lat="40.0713749" lon="-105.229789">
  <ele>1583.0</ele>
  <time>2026-08-28T17:53:58Z</time>
  <course>0.0</course>
  <speed>0.0</speed>
  <fix>3d</fix>
</trkpt>
<trkpt lat="40.0713751" lon="-105.2297889">
  <ele>1582.99</ele>
  <time>2026-08-28T17:53:58Z</time>
  <course>247.09</course>
  <speed>0.022360679774997897</speed>
  <fix>3d</fix>
</trkpt>
<trkpt lat="40.0713749" lon="-105.229789">
  <ele>1583.0</ele>
  <time>2026-08-28T17:53:58Z</time>
  <course>0.0</course>
  <speed>0.0</speed>
  <fix>3d</fix>
</trkpt>
<trkpt lat="40.0713751" lon="-105.2297889">
  <ele>1582.99</ele>
  <time>2026-08-28T17:53:58Z</time>
  <course>247.09</course>
  <speed>0.022360679774997897</speed>
  <fix>3d</fix>
</trkpt>
<trkpt lat="40.0713749" lon="-105.229789">
  <ele>1583.0</ele>
  <time>2026-08-28T17:53:58Z</time>
  <course>0.0</course>
  <speed>0.0</speed>
  <fix>3d</fix>
</trkpt>
<trkpt lat="40.0713751" lon="-105.2297889">
  <ele>1582.99</ele>
  <time>2026-08-28T17:53:58Z</time>
  <course>247.09</course>
  <speed>0.022360679774997897</speed>
  <fix>3d</fix>
</trkpt>
<trkpt lat="40.0713749" lon="-105.229789">
  <ele>1583.0</ele>
  <time>2026-08-28T17:53:58Z</time>
  <course>0.0</course>
  <speed>0.0</speed>
  <fix>3d</fix>
</trkpt>
<trkpt lat="40.0713751" lon="-105.2297889">
  <ele>1582.99</ele>
  <time>2026-08-28T17:53:58Z</time>
  <course>247.09</course>
  <speed>0.022360679774997897</speed>
  <fix>3d</fix>
</trkpt>
<trkpt lat="40.0713749" lon="-105.229789">
  <ele>1583.0</ele>
  <time>2026-08-28T17:53:58Z</time>
  <course>0.0</course>
  <speed>0.0</speed>
  <fix>3d</fix>
</trkpt>
<trkpt lat="40.0713751" lon="-105.2297889">
  <ele>1582.99</ele>
  <time>2026-08-28T17:53:58Z</time>
  <course>247.09</course>
  <speed>0.022360679774997897</speed>
  <fix>3d</fix>
</trkpt>
<trkpt lat="40.0713749" lon="-105.229789">
  <ele>1583.0</ele>
  <time>2026-08-28T17:53:58Z</time>
  <course>0.0</course>
  <speed>0.0</speed>
  <fix>3d</fix>
</trkpt>
<trkpt lat="40.0713751" lon="-105.2297889">
  <ele>1583.0</ele>
  <time>2026-08-28T17:53:58Z</time>
  <course>247.09</course>
  <speed>0.022360679774997897</speed>
  <fix>3d</fix>
</trkpt>
<trkpt lat="40.0713749" lon="-105.229789">
  <ele>1583.0</ele>
  <time>2026-08-28T17:53:58Z</time>
  <course>0.0</course>
  <speed>0.0</speed>
  <fix>3d</fix>
</trkpt>
<trkpt lat="40.0713751" lon="-105.2297889">
  <ele>1583.0</ele>
  <time>2026-08-28T17:53:58Z</time>
  <course>247.09</course>
  <speed>0.022360679774997897</speed>
  <fix>3d</fix>
</trkpt>
<trkpt lat="40.0713749" lon="-105.229789">
  <ele>1583.0</ele>
  <time>2026-08-28T17:53:58Z</time>
  <course>0.0</course>
  <speed>0.0</speed>
  <fix>3d</fix>
</trkpt>
<trkpt lat="40.0713751" lon="-105.2297889">
  <ele>1583.0</ele>
  <time>2026-08-28T17:53:58Z</time>
  <course>247.09</course>
  <speed>0.022360679774997897</speed>
  <fix>3d</fix>
</trkpt>
<trkpt lat="40.0713749" lon="-105.229789">
  <ele>1583.0</ele>
  <time>2026-08-28T17:53:58Z</time>
  <course>0.0</course>
  <speed>0.0</speed>
  <fix>3d</fix>
</trkpt>
<trkpt lat="40.0713751" lon="-105.2297889">
  <ele>1583.0</ele>
  <time>2026-08-28T17:53:58Z</time>
  <course>247.09</course>
  <speed>0.022360679774997897</speed>
  <fix>3d</fix>
</trkpt>
<trkpt lat="40.0713749" lon="-105.229789">
  <ele>1583.0</ele>
  <time>2026-08-28T17:53:58Z</time>
  <course>0.0</course>
  <speed>0.0</speed>
  <fix>3d</fix>
</trkpt>
<trkpt lat="40.0713751" lon="-105.2297889">
  <ele>1583.0</ele>
  <time>2026-08-28T17:53:58Z</time>
  <course>247.09</course>
  <speed>0.022360679774997897</speed>
  <fix>3d</fix>
</trkpt>
<trkpt lat="40.0713749" lon="-105.229789">
  <ele>1583.0</ele>
  <time>2026-08-28T17:53:58Z</time>
  <course>0.0</course>
  <speed>0.0</speed>
  <fix>3d</fix>
</trkpt>
<trkpt lat="40.0713751" lon="-105.2297889">
  <ele>1583.0</ele>
  <time>2026-08-28T17:53:58Z</time>
  <course>247.09</course>
  <speed>0.022360679774997897</speed>
  <fix>3d</fix>
</trkpt>
<trkpt lat="40.0713749" lon="-105.229789">
  <ele>1583.0</ele>
  <time>2026-08-28T17:53:58Z</time>
  <course>0.0</course>
  <speed>0.0</speed>
  <fix>3d</fix>
</trkpt>
<trkpt lat="40.0713751" lon="-105.2297889">
  <ele>1583.0</ele>
  <time>2026-08-28T17:53:58Z</time>
  <course>247.09</course>
  <speed>0.022360679774997897</speed>
  <fix>3d</fix>
</trkpt>
<trkpt lat="40.0713749" lon="-105.229789">
  <ele>1583.0</ele>
  <time>2026-08-28T17:53:58Z</time>
  <course>0.0</course>
  <speed>0.0</speed>
  <fix>3d</fix>
</trkpt>
<trkpt lat="40.0713751" lon="-105.2297889">
  <ele>1583.01</ele>
  <time>2026-08-28T17:53:58Z</time>
  <course>247.09</course>
  <speed>0.022360679774997897</speed>
  <fix>3d</fix>
</trkpt>
<trkpt lat="40.0713749" lon="-105.229789">
  <ele>1583.0</ele>
  <time>2026-08-28T17:53:58Z</time>
  <course>0.0</course>
  <speed>0.0</speed>
  <fix>3d</fix>
</trkpt>
<trkpt lat="40.0713751" lon="-105.2297889">
  <ele>1583.01</ele>
  <time>2026-08-28T17:53:58Z</time>
  <course>247.09</course>
  <speed>0.022360679774997897</speed>
  <fix>3d</fix>
</trkpt>
<trkpt lat="40.0713749" lon="-105.229789">
  <ele>1583.0</ele>
  <time>2026-08-28T17:53:58Z</time>
  <course>0.0</course>
  <speed>0.0</speed>
  <fix>3d</fix>
</trkpt>
<trkpt lat="40.0713751" lon="-105.2297889">
  <ele>1583.01</ele>
  <time>2026-08-28T17:53:58Z</time>
  <course>247.09</course>
  <speed>0.022360679774997897</speed>
  <fix>3d</fix>
</trkpt>
<trkpt lat="40.0713749" lon="-105.229789">
  <ele>1583.0</ele>
  <time>2026-08-28T17:53:58Z</time>
  <course>0.0</course>
  <speed>0.0</speed>
  <fix>3d</fix>
</trkpt>
<trkpt lat="40.0713751" lon="-105.2297889">
  <ele>1583.01</ele>
  <time>2026-08-28T17:53:58Z</time>
  <course>247.09</course>
  <speed>0.022360679774997897</speed>
  <fix>3d</fix>
</trkpt>
<trkpt lat="40.0713749" lon="-105.229789">
  <ele>1583.0</ele>
  <time>2026-08-28T17:53:58Z</time>
  <course>0.0</course>
  <speed>0.0</speed>
  <fix>3d</fix>
</trkpt>
<trkpt lat="40.0713751" lon="-105.2297889">
  <ele>1583.01</ele>
  <time>2026-08-28T17:53:58Z</time>
  <course>247.09</course>
  <speed>0.022360679774997897</speed>
  <fix>3d</fix>
</trkpt>
<trkpt lat="40.0713749" lon="-105.229789">
  <ele>1583.0</ele>
  <time>2026-08-28T17:53:58Z</time>
  <course>0.0</course>
  <speed>0.0</speed>
  <fix>3d</fix>
</trkpt>
<trkpt lat="40.0713751" lon="-105.2297889">
  <ele>1583.01</ele>
  <time>2026-08-28T17:53:58Z</time>
  <course>247.09</course>
  <speed>0.022360679774997897</speed>
  <fix>3d</fix>
</trkpt>
<trkpt lat="40.0713749" lon="-105.229789">
  <ele>1583.0</ele>
  <time>2026-08-28T17:53:58Z</time>
  <course>0.0</course>
  <speed>0.0</speed>
  <fix>3d</fix>
</trkpt>
<trkpt lat="40.0713751" lon="-105.2297889">
  <ele>1583.01</ele>
  <time>2026-08-28T17:53:58Z</time>
  <course>247.09</course>
  <speed>0.022360679774997897</speed>
  <fix>3d</fix>
</trkpt>
<trkpt lat="40.0713749" lon="-105.229789">
  <ele>1583.0</ele>
  <time>2026-08-28T17:53:58Z</time>
  <course>0.0</course>
  <speed>0.0</speed>
  <fix>3d</fix>
</trkpt>
<trkpt lat="40.0713751" lon="-105.2297889">
  <ele>1583.01</ele>
  <time>2026-08-28T17:53:58Z</time>
  <course>247.09</course>
  <speed>0.022360679774997897</speed>
  <fix>3d</fix>
</trkpt>
<trkpt lat="40.0713749" lon="-105.229789">
  <ele>1583.0</ele>
  <time>2026-08-28T17:53:58Z</time>
  <course>0.0</course>
  <speed>0.0</speed>
  <fix>3d</fix>
</trkpt>
<trkpt lat="40.0713751" lon="-105.2297889">
  <ele>1583.01</ele>
  <time>2026-08-28T17:53:58Z</time>
  <course>247.09</course>
  <speed>0.022360679774997897</speed>
  <fix>3d</fix>
</trkpt>
<trkpt lat="40.0713749" lon="-105.229789">
  <ele>1583.0</ele>
  <time>2026-08-28T17:53:58Z</time>
  <course>0.0</course>
  <speed>0.0</speed>
  <fix>3d</fix>
</trkpt>
<trkpt lat="40.0713751" lon="-105.2297889">
  <ele>1583.01</ele>
  <time>2026-08-28T17:53:58Z</time>
  <course>247.09</course>
  <speed>0.022360679774997897</speed>
  <fix>3d</fix>
</trkpt>
<trkpt lat="40.0713749" lon="-105.229789">
  <ele>1583.0</ele>
  <time>2026-08-28T17:53:58Z</time>
  <course>0.0</course>
  <speed>0.0</speed>
  <fix>3d</fix>
</trkpt>
<trkpt lat="40.0713751" lon="-105.2297889">
  <ele>1583.01</ele>
  <time>2026-08-28T17:53:58Z</time>
  <course>247.09</course>
  <speed>0.022360679774997897</speed>
  <fix>3d</fix>
</trkpt>
<trkpt lat="40.0713749" lon="-105.229789">
  <ele>1583.0</ele>
  <time>2026-08-28T17:53:58Z</time>
  <course>0.0</course>
  <speed>0.0</speed>
  <fix>3d</fix>
</trkpt>
<trkpt lat="40.0713751" lon="-105.2297889">
  <ele>1583.01</ele>
  <time>2026-08-28T17:53:58Z</time>
  <course>247.09</course>
  <speed>0.022360679774997897</speed>
  <fix>3d</fix>
</trkpt>
<trkpt lat="40.0713749" lon="-105.229789">
  <ele>1583.0</ele>
  <time>2026-08-28T17:53:58Z</time>
  <course>0.0</course>
  <speed>0.0</speed>
  <fix>3d</fix>
</trkpt>
<trkpt lat="40.0713751" lon="-105.2297889">
  <ele>1583.01</ele>
  <time>2026-08-28T17:53:58Z</time>
  <course>247.09</course>
  <speed>0.022360679774997897</speed>
  <fix>3d</fix>
</trkpt>
<trkpt lat="40.0713749" lon="-105.229789">
  <ele>1583.0</ele>
  <time>2026-08-28T17:53:58Z</time>
  <course>0.0</course>
  <speed>0.0</speed>
  <fix>3d</fix>
</trkpt>
<trkpt lat="40.0713751" lon="-105.2297889">
  <ele>1583.01</ele>
  <time>2026-08-28T17:53:58Z</time>
  <course>247.09</course>
  <speed>0.022360679774997897</speed>
  <fix>3d</fix>
</trkpt>
<trkpt lat="40.0713749" lon="-105.229789">
  <ele>1583.0</ele>
  <time>2026-08-28T17:53:58Z</time>
  <course>0.0</course>
  <speed>0.0</speed>
  <fix>3d</fix>
</trkpt>
<trkpt lat="40.0713751" lon="-105.2297889">
  <ele>1583.02</ele>
  <time>2026-08-28T17:53:58Z</time>
  <course>247.09</course>
  <speed>0.022360679774997897</speed>
  <fix>3d</fix>
</trkpt>
<trkpt lat="40.0713749" lon="-105.229789">
  <ele>1583.0</ele>
  <time>2026-08-28T17:53:58Z</time>
  <course>0.0</course>
  <speed>0.0</speed>
  <fix>3d</fix>
</trkpt>
<trkpt lat="40.0713751" lon="-105.2297889">
  <ele>1583.02</ele>
  <time>2026-08-28T17:53:58Z</time>
  <course>247.09</course>
  <speed>0.022360679774997897</speed>
  <fix>3d</fix>
</trkpt>
<trkpt lat="40.0713749" lon="-105.229789">
  <ele>1583.0</ele>
  <time>2026-08-28T17:53:58Z</time>
  <course>0.0</course>
  <speed>0.0</speed>
  <fix>3d</fix>
</trkpt>
<trkpt lat="40.0713751" lon="-105.2297889">
  <ele>1583.02</ele>
  <time>2026-08-28T17:53:58Z</time>
  <course>247.09</course>
  <speed>0.022360679774997897</speed>
  <fix>3d</fix>
</trkpt>
<trkpt lat="40.0713749" lon="-105.229789">
  <ele>1583.0</ele>
  <time>2026-08-28T17:53:58Z</time>
  <course>0.0</course>
  <speed>0.0</speed>
  <fix>3d</fix>
</trkpt>
<trkpt lat="40.0713751" lon="-105.2297889">
  <ele>1583.01</ele>
  <time>2026-08-28T17:53:58Z</time>
  <course>247.09</course>
  <speed>0.022360679774997897</speed>
  <fix>3d</fix>
</trkpt>
<trkpt lat="40.0713749" lon="-105.229789">
  <ele>1583.0</ele>
  <time>2026-08-28T17:53:58Z</time>
  <course>0.0</course>
  <speed>0.0</speed>
  <fix>3d</fix>
</trkpt>
<trkpt lat="40.0713751" lon="-105.2297889">
  <ele>1583.01</ele>
  <time>2026-08-28T17:53:58Z</time>
  <course>247.09</course>
  <speed>0.022360679774997897</speed>
  <fix>3d</fix>
</trkpt>
<trkpt lat="40.0713749" lon="-105.229789">
  <ele>1583.0</ele>
  <time>2026-08-28T17:53:58Z</time>
  <course>0.0</course>
  <speed>0.0</speed>
  <fix>3d</fix>
</trkpt>
<trkpt lat="40.0713751" lon="-105.2297889">
  <ele>1583.01</ele>
  <time>2026-08-28T17:53:58Z</time>
  <course>247.09</course>
  <speed>0.022360679774997897</speed>
  <fix>3d</fix>
</trkpt>
<trkpt lat="40.0713749" lon="-105.229789">
  <ele>1583.0</ele>
  <time>2026-08-28T17:53:58Z</time>
  <course>0.0</course>
  <speed>0.0</speed>
  <fix>3d</fix>
</trkpt>
<trkpt lat="40.0713751" lon="-105.2297889">
  <ele>1583.01</ele>
  <time>2026-08-28T17:53:58Z</time>
  <course>247.09</course>
  <speed>0.022360679774997897</speed>
  <fix>3d</fix>
</trkpt>
<trkpt lat="40.0713749" lon="-105.229789">
  <ele>1583.0</ele>
  <time>2026-08-28T17:53:58Z</time>
  <course>0.0</course>
  <speed>0.0</speed>
  <fix>3d</fix>
</trkpt>
<trkpt lat="40.0713751" lon="-105.2297889">
  <ele>1583.0</ele>
  <time>2026-08-28T17:53:58Z</time>
  <course>247.09</course>
  <speed>0.022360679774997897</speed>
  <fix>3d</fix>
</trkpt>
<trkpt lat="40.0713749" lon="-105.229789">
  <ele>1583.0</ele>
  <time>2026-08-28T17:53:58Z</time>
  <course>0.0</course>
  <speed>0.0</speed>
  <fix>3d</fix>
</trkpt>
<trkpt lat="40.0713751" lon="-105.2297889">
  <ele>1583.0</ele>
  <time>2026-08-28T17:53:58Z</time>
  <course>247.09</course>
  <speed>0.022360679774997897</speed>
  <fix>3d</fix>
</trkpt>
<trkpt lat="40.0713749" lon="-105.229789">
  <ele>1583.0</ele>
  <time>2026-08-28T17:53:58Z</time>
  <course>0.0</course>
  <speed>0.0</speed>
  <fix>3d</fix>
</trkpt>
<trkpt lat="40.0713751" lon="-105.2297889">
  <ele>1583.0</ele>
  <time>2026-08-28T17:53:58Z</time>
  <course>247.09</course>
  <speed>0.022360679774997897</speed>
  <fix>3d</fix>
</trkpt>
<trkpt lat="40.0713749" lon="-105.229789">
  <ele>1583.0</ele>
  <time>2026-08-28T17:53:58Z</time>
  <course>0.0</course>
  <speed>0.0</speed>
  <fix>3d</fix>
</trkpt>
<trkpt lat="40.0713751" lon="-105.2297889">
  <ele>1583.0</ele>
  <time>2026-08-28T17:53:58Z</time>
  <course>247.09</course>
  <speed>0.022360679774997897</speed>
  <fix>3d</fix>
</trkpt>
<trkpt lat="40.0713749" lon="-105.229789">
  <ele>1583.0</ele>
  <time>2026-08-28T17:53:58Z</time>
  <course>0.0</course>
  <speed>0.0</speed>
  <fix>3d</fix>
</trkpt>
<trkpt lat="40.0713751" lon="-105.2297889">
  <ele>1583.0</ele>
  <time>2026-08-28T17:53:58Z</time>
  <course>247.09</course>
  <speed>0.022360679774997897</speed>
  <fix>3d</fix>
</trkpt>
<trkpt lat="40.0713749" lon="-105.229789">
  <ele>1583.0</ele>
  <time>2026-08-28T17:53:58Z</time>
  <course>0.0</course>
  <speed>0.0</speed>
  <fix>3d</fix>
</trkpt>
<trkpt lat="40.0713751" lon="-105.2297889">
  <ele>1583.0</ele>
  <time>2026-08-28T17:53:58Z</time>
  <course>247.08</course>
  <speed>0.022360679774997897</speed>
  <fix>3d</fix>
</trkpt>
<trkpt lat="40.0713749" lon="-105.229789">
  <ele>1583.0</ele>
  <time>2026-08-28T17:53:58Z</time>
  <course>0.0</course>
  <speed>0.0</speed>
  <fix>3d</fix>
</trkpt>
<trkpt lat="40.0713751" lon="-105.2297889">
  <ele>1583.01</ele>
  <time>2026-08-28T17:53:58Z</time>
  <course>247.08</course>
  <speed>0.022360679774997897</speed>
  <fix>3d</fix>
</trkpt>
<trkpt lat="40.0713749" lon="-105.229789">
  <ele>1583.0</ele>
  <time>2026-08-28T17:53:58Z</time>
  <course>0.0</course>
  <speed>0.0</speed>
  <fix>3d</fix>
</trkpt>
<trkpt lat="40.0713751" lon="-105.2297889">
  <ele>1583.01</ele>
  <time>2026-08-28T17:53:58Z</time>
  <course>247.08</course>
  <speed>0.022360679774997897</speed>
  <fix>3d</fix>
</trkpt>
<trkpt lat="40.0713749" lon="-105.229789">
  <ele>1583.0</ele>
  <time>2026-08-28T17:53:58Z</time>
  <course>0.0</course>
  <speed>0.0</speed>
  <fix>3d</fix>
</trkpt>
<trkpt lat="40.0713751" lon="-105.2297889">
  <ele>1583.01</ele>
  <time>2026-08-28T17:53:58Z</time>
  <course>247.08</course>
  <speed>0.022360679774997897</speed>
  <fix>3d</fix>
</trkpt>
<trkpt lat="40.0713749" lon="-105.229789">
  <ele>1583.0</ele>
  <time>2026-08-28T17:53:58Z</time>
  <course>0.0</course>
  <speed>0.0</speed>
  <fix>3d</fix>
</trkpt>
<trkpt lat="40.0713751" lon="-105.2297889">
  <ele>1583.01</ele>
  <time>2026-08-28T17:53:58Z</time>
  <course>247.08</course>
  <speed>0.022360679774997897</speed>
  <fix>3d</fix>
</trkpt>
<trkpt lat="40.0713749" lon="-105.229789">
  <ele>1583.0</ele>
  <time>2026-08-28T17:53:58Z</time>
  <course>0.0</course>
  <speed>0.0</speed>
  <fix>3d</fix>
</trkpt>
<trkpt lat="40.0713751" lon="-105.2297889">
  <ele>1583.01</ele>
  <time>2026-08-28T17:53:58Z</time>
  <course>247.08</course>
  <speed>0.022360679774997897</speed>
  <fix>3d</fix>
</trkpt>
<trkpt lat="40.0713749" lon="-105.229789">
  <ele>1583.0</ele>
  <time>2026-08-28T17:53:58Z</time>
  <course>0.0</course>
  <speed>0.0</speed>
  <fix>3d</fix>
</trkpt>
<trkpt lat="40.0713751" lon="-105.2297889">
  <ele>1583.01</ele>
  <time>2026-08-28T17:53:58Z</time>
  <course>247.08</course>
  <speed>0.022360679774997897</speed>
  <fix>3d</fix>
</trkpt>
<trkpt lat="40.0713749" lon="-105.229789">
  <ele>1583.0</ele>
  <time>2026-08-28T17:53:58Z</time>
  <course>0.0</course>
  <speed>0.0</speed>
  <fix>3d</fix>
</trkpt>
<trkpt lat="40.0713751" lon="-105.2297889">
  <ele>1583.02</ele>
  <time>2026-08-28T17:53:58Z</time>
  <course>247.08</course>
  <speed>0.022360679774997897</speed>
  <fix>3d</fix>
</trkpt>
<trkpt lat="40.0713749" lon="-105.229789">
  <ele>1583.0</ele>
  <time>2026-08-28T17:53:58Z</time>
  <course>0.0</course>
  <speed>0.0</speed>
  <fix>3d</fix>
</trkpt>
<trkpt lat="40.0713751" lon="-105.2297889">
  <ele>1583.02</ele>
  <time>2026-08-28T17:53:58Z</time>
  <course>247.08</course>
  <speed>0.022360679774997897</speed>
  <fix>3d</fix>
</trkpt>
<trkpt lat="40.0713749" lon="-105.229789">
  <ele>1583.0</ele>
  <time>2026-08-28T17:53:58Z</time>
  <course>0.0</course>
  <speed>0.0</speed>
  <fix>3d</fix>
</trkpt>
<trkpt lat="40.0713751" lon="-105.2297889">
  <ele>1583.02</ele>
  <time>2026-08-28T17:53:58Z</time>
  <course>247.08</course>
  <speed>0.022360679774997897</speed>
  <fix>3d</fix>
</trkpt>
<trkpt lat="40.0713749" lon="-105.229789">
  <ele>1583.0</ele>
  <time>2026-08-28T17:53:58Z</time>
  <course>0.0</course>
  <speed>0.0</speed>
  <fix>3d</fix>
</trkpt>
<trkpt lat="40.0713751" lon="-105.2297889">
  <ele>1583.02</ele>
  <time>2026-08-28T17:53:58Z</time>
  <course>247.08</course>
  <speed>0.022360679774997897</speed>
  <fix>3d</fix>
</trkpt>
<trkpt lat="40.0713749" lon="-105.229789">
  <ele>1583.0</ele>
  <time>2026-08-28T17:53:58Z</time>
  <course>0.0</course>
  <speed>0.0</speed>
  <fix>3d</fix>
</trkpt>
<trkpt lat="40.0713751" lon="-105.2297889">
  <ele>1583.02</ele>
  <time>2026-08-28T17:53:58Z</time>
  <course>247.08</course>
  <speed>0.022360679774997897</speed>
  <fix>3d</fix>
</trkpt>
<trkpt lat="40.0713749" lon="-105.229789">
  <ele>1583.0</ele>
  <time>2026-08-28T17:53:58Z</time>
  <course>0.0</course>
  <speed>0.0</speed>
  <fix>3d</fix>
</trkpt>
<trkpt lat="40.0713751" lon="-105.2297889">
  <ele>1583.02</ele>
  <time>2026-08-28T17:53:58Z</time>
  <course>247.08</course>
  <speed>0.022360679774997897</speed>
  <fix>3d</fix>
</trkpt>
<trkpt lat="40.0713749" lon="-105.229789">
  <ele>1583.0</ele>
  <time>2026-08-28T17:53:58Z</time>
  <course>0.0</course>
  <speed>0.0</speed>
  <fix>3d</fix>
</trkpt>
<trkpt lat="40.0713751" lon="-105.2297889">
  <ele>1583.02</ele>
  <time>2026-08-28T17:53:58Z</time>
  <course>247.08</course>
  <speed>0.022360679774997897</speed>
  <fix>3d</fix>
</trkpt>
<trkpt lat="40.0713749" lon="-105.229789">
  <ele>1583.0</ele>
  <time>2026-08-28T17:53:58Z</time>
  <course>0.0</course>
  <speed>0.0</speed>
  <fix>3d</fix>
</trkpt>
<trkpt lat="40.0713751" lon="-105.2297889">
  <ele>1583.02</ele>
  <time>2026-08-28T17:53:58Z</time>
  <course>247.08</course>
  <speed>0.022360679774997897</speed>
  <fix>3d</fix>
</trkpt>
<trkpt lat="40.0713749" lon="-105.229789">
  <ele>1583.0</ele>
  <time>2026-08-28T17:53:58Z</time>
  <course>0.0</course>
  <speed>0.0</speed>
  <fix>3d</fix>
</trkpt>
<trkpt lat="40.071375" lon="-105.2297889">
  <ele>1583.02</ele>
  <time>2026-08-28T17:53:58Z</time>
  <course>247.08</course>
  <speed>0.022360679774997897</speed>
  <fix>3d</fix>
</trkpt>
<trkpt lat="40.0713749" lon="-105.229789">
  <ele>1583.0</ele>
  <time>2026-08-28T17:53:58Z</time>
  <course>0.0</course>
  <speed>0.0</speed>
  <fix>3d</fix>
</trkpt>
<trkpt lat="40.0713751" lon="-105.2297889">
  <ele>1583.02</ele>
  <time>2026-08-28T17:53:58Z</time>
  <course>247.08</course>
  <speed>0.022360679774997897</speed>
  <fix>3d</fix>
</trkpt>
<trkpt lat="40.0713749" lon="-105.229789">
  <ele>1583.0</ele>
  <time>2026-08-28T17:53:58Z</time>
  <course>0.0</course>
  <speed>0.0</speed>
  <fix>3d</fix>
</trkpt>
<trkpt lat="40.071375" lon="-105.2297889">
  <ele>1583.02</ele>
  <time>2026-08-28T17:53:58Z</time>
  <course>247.08</course>
  <speed>0.022360679774997897</speed>
  <fix>3d</fix>
</trkpt>
<trkpt lat="40.0713749" lon="-105.229789">
  <ele>1583.0</ele>
  <time>2026-08-28T17:53:58Z</time>
  <course>0.0</course>
  <speed>0.0</speed>
  <fix>3d</fix>
</trkpt>
<trkpt lat="40.0713751" lon="-105.2297889">
  <ele>1583.01</ele>
  <time>2026-08-28T17:53:58Z</time>
  <course>247.08</course>
  <speed>0.022360679774997897</speed>
  <fix>3d</fix>
</trkpt>
<trkpt lat="40.0713749" lon="-105.229789">
  <ele>1583.0</ele>
  <time>2026-08-28T17:53:58Z</time>
  <course>0.0</course>
  <speed>0.0</speed>
  <fix>3d</fix>
</trkpt>
<trkpt lat="40.071375" lon="-105.2297889">
  <ele>1583.01</ele>
  <time>2026-08-28T17:53:58Z</time>
  <course>247.08</course>
  <speed>0.022360679774997897</speed>
  <fix>3d</fix>
</trkpt>
<trkpt lat="40.0713749" lon="-105.229789">
  <ele>1583.0</ele>
  <time>2026-08-28T17:53:58Z</time>
  <course>0.0</course>
  <speed>0.0</speed>
  <fix>3d</fix>
</trkpt>
<trkpt lat="40.0713751" lon="-105.2297889">
  <ele>1583.01</ele>
  <time>2026-08-28T17:53:58Z</time>
  <course>247.08</course>
  <speed>0.022360679774997897</speed>
  <fix>3d</fix>
</trkpt>
<trkpt lat="40.0713749" lon="-105.229789">
  <ele>1583.0</ele>
  <time>2026-08-28T17:53:58Z</time>
  <course>0.0</course>
  <speed>0.0</speed>
  <fix>3d</fix>
</trkpt>
<trkpt lat="40.071375" lon="-105.2297889">
  <ele>1583.01</ele>
  <time>2026-08-28T17:53:58Z</time>
  <course>247.08</course>
  <speed>0.022360679774997897</speed>
  <fix>3d</fix>
</trkpt>
<trkpt lat="40.0713749" lon="-105.229789">
  <ele>1583.0</ele>
  <time>2026-08-28T17:53:58Z</time>
  <course>0.0</course>
  <speed>0.0</speed>
  <fix>3d</fix>
</trkpt>
<trkpt lat="40.0713751" lon="-105.2297889">
  <ele>1583.01</ele>
  <time>2026-08-28T17:53:58Z</time>
  <course>247.08</course>
  <speed>0.022360679774997897</speed>
  <fix>3d</fix>
</trkpt>
<trkpt lat="40.0713749" lon="-105.229789">
  <ele>1583.0</ele>
  <time>2026-08-28T17:53:58Z</time>
  <course>0.0</course>
  <speed>0.0</speed>
  <fix>3d</fix>
</trkpt>
<trkpt lat="40.071375" lon="-105.2297889">
  <ele>1583.0</ele>
  <time>2026-08-28T17:53:58Z</time>
  <course>247.08</course>
  <speed>0.022360679774997897</speed>
  <fix>3d</fix>
</trkpt>
<trkpt lat="40.0713749" lon="-105.229789">
  <ele>1583.0</ele>
  <time>2026-08-28T17:53:58Z</time>
  <course>0.0</course>
  <speed>0.0</speed>
  <fix>3d</fix>
</trkpt>
<trkpt lat="40.0713751" lon="-105.2297889">
  <ele>1583.0</ele>
  <time>2026-08-28T17:53:58Z</time>
  <course>247.08</course>
  <speed>0.022360679774997897</speed>
  <fix>3d</fix>
</trkpt>
<trkpt lat="40.0713749" lon="-105.229789">
  <ele>1583.0</ele>
  <time>2026-08-28T17:53:58Z</time>
  <course>0.0</course>
  <speed>0.0</speed>
  <fix>3d</fix>
</trkpt>
<trkpt lat="40.0713751" lon="-105.2297889">
  <ele>1583.0</ele>
  <time>2026-08-28T17:53:58Z</time>
  <course>247.08</course>
  <speed>0.022360679774997897</speed>
  <fix>3d</fix>
</trkpt>
<trkpt lat="40.0713749" lon="-105.229789">
  <ele>1583.0</ele>
  <time>2026-08-28T17:53:58Z</time>
  <course>0.0</course>
  <speed>0.0</speed>
  <fix>3d</fix>
</trkpt>
<trkpt lat="40.0713751" lon="-105.2297889">
  <ele>1583.0</ele>
  <time>2026-08-28T17:53:58Z</time>
  <course>247.08</course>
  <speed>0.022360679774997897</speed>
  <fix>3d</fix>
</trkpt>
<trkpt lat="40.0713749" lon="-105.229789">
  <ele>1583.0</ele>
  <time>2026-08-28T17:53:58Z</time>
  <course>0.0</course>
  <speed>0.0</speed>
  <fix>3d</fix>
</trkpt>
<trkpt lat="40.0713751" lon="-105.2297889">
  <ele>1583.0</ele>
  <time>2026-08-28T17:53:58Z</time>
  <course>247.08</course>
  <speed>0.022360679774997897</speed>
  <fix>3d</fix>
</trkpt>
<trkpt lat="40.0713749" lon="-105.229789">
  <ele>1583.0</ele>
  <time>2026-08-28T17:53:58Z</time>
  <course>0.0</course>
  <speed>0.0</speed>
  <fix>3d</fix>
</trkpt>
<trkpt lat="40.0713751" lon="-105.2297889">
  <ele>1583.0</ele>
  <time>2026-08-28T17:53:58Z</time>
  <course>247.08</course>
  <speed>0.022360679774997897</speed>
  <fix>3d</fix>
</trkpt>
<trkpt lat="40.0713749" lon="-105.229789">
  <ele>1583.0</ele>
  <time>2026-08-28T17:53:58Z</time>
  <course>0.0</course>
  <speed>0.0</speed>
  <fix>3d</fix>
</trkpt>
<trkpt lat="40.0713751" lon="-105.2297889">
  <ele>1583.0</ele>
  <time>2026-08-28T17:53:58Z</time>
  <course>247.08</course>
  <speed>0.022360679774997897</speed>
  <fix>3d</fix>
</trkpt>
<trkpt lat="40.0713749" lon="-105.229789">
  <ele>1583.0</ele>
  <time>2026-08-28T17:53:58Z</time>
  <course>0.0</course>
  <speed>0.0</speed>
  <fix>3d</fix>
</trkpt>
<trkpt lat="40.0713751" lon="-105.2297889">
  <ele>1582.99</ele>
  <time>2026-08-28T17:53:58Z</time>
  <course>247.08</course>
  <speed>0.022360679774997897</speed>
  <fix>3d</fix>
</trkpt>
<trkpt lat="40.0713749" lon="-105.229789">
  <ele>1583.0</ele>
  <time>2026-08-28T17:53:58Z</time>
  <course>0.0</course>
  <speed>0.0</speed>
  <fix>3d</fix>
</trkpt>
<trkpt lat="40.0713751" lon="-105.2297889">
  <ele>1582.99</ele>
  <time>2026-08-28T17:53:58Z</time>
  <course>247.08</course>
  <speed>0.022360679774997897</speed>
  <fix>3d</fix>
</trkpt>
<trkpt lat="40.0713749" lon="-105.229789">
  <ele>1583.0</ele>
  <time>2026-08-28T17:53:58Z</time>
  <course>0.0</course>
  <speed>0.0</speed>
  <fix>3d</fix>
</trkpt>
<trkpt lat="40.0713751" lon="-105.2297889">
  <ele>1582.99</ele>
  <time>2026-08-28T17:53:58Z</time>
  <course>247.08</course>
  <speed>0.022360679774997897</speed>
  <fix>3d</fix>
</trkpt>
<trkpt lat="40.0713749" lon="-105.229789">
  <ele>1583.0</ele>
  <time>2026-08-28T17:53:58Z</time>
  <course>0.0</course>
  <speed>0.0</speed>
  <fix>3d</fix>
</trkpt>
<trkpt lat="40.071375" lon="-105.2297889">
  <ele>1582.99</ele>
  <time>2026-08-28T17:53:58Z</time>
  <course>247.08</course>
  <speed>0.022360679774997897</speed>
  <fix>3d</fix>
</trkpt>
<trkpt lat="40.0713749" lon="-105.229789">
  <ele>1583.0</ele>
  <time>2026-08-28T17:53:58Z</time>
  <course>0.0</course>
  <speed>0.0</speed>
  <fix>3d</fix>
</trkpt>
<trkpt lat="40.0713751" lon="-105.2297889">
  <ele>1583.0</ele>
  <time>2026-08-28T17:53:58Z</time>
  <course>247.08</course>
  <speed>0.022360679774997897</speed>
  <fix>3d</fix>
</trkpt>
<trkpt lat="40.0713749" lon="-105.229789">
  <ele>1583.0</ele>
  <time>2026-08-28T17:53:58Z</time>
  <course>0.0</course>
  <speed>0.0</speed>
  <fix>3d</fix>
</trkpt>
<trkpt lat="40.071375" lon="-105.2297889">
  <ele>1583.0</ele>
  <time>2026-08-28T17:53:58Z</time>
  <course>247.08</course>
  <speed>0.022360679774997897</speed>
  <fix>3d</fix>
</trkpt>
<trkpt lat="40.0713749" lon="-105.229789">
  <ele>1583.0</ele>
  <time>2026-08-28T17:53:58Z</time>
  <course>0.0</course>
  <speed>0.0</speed>
  <fix>3d</fix>
</trkpt>
<trkpt lat="40.0713751" lon="-105.2297889">
  <ele>1583.0</ele>
  <time>2026-08-28T17:53:58Z</time>
  <course>247.08</course>
  <speed>0.022360679774997897</speed>
  <fix>3d</fix>
</trkpt>
<trkpt lat="40.0713749" lon="-105.229789">
  <ele>1583.0</ele>
  <time>2026-08-28T17:53:58Z</time>
  <course>0.0</course>
  <speed>0.0</speed>
  <fix>3d</fix>
</trkpt>
<trkpt lat="40.071375" lon="-105.2297889">
  <ele>1583.0</ele>
  <time>2026-08-28T17:53:58Z</time>
  <course>247.08</course>
  <speed>0.022360679774997897</speed>
  <fix>3d</fix>
</trkpt>
<trkpt lat="40.0713749" lon="-105.229789">
  <ele>1583.0</ele>
  <time>2026-08-28T17:53:58Z</time>
  <course>0.0</course>
  <speed>0.0</speed>
  <fix>3d</fix>
</trkpt>
<trkpt lat="40.0713751" lon="-105.2297889">
  <ele>1583.0</ele>
  <time>2026-08-28T17:53:58Z</time>
  <course>247.08</course>
  <speed>0.022360679774997897</speed>
  <fix>3d</fix>
</trkpt>
<trkpt lat="40.0713749" lon="-105.229789">
  <ele>1583.0</ele>
  <time>2026-08-28T17:53:58Z</time>
  <course>0.0</course>
  <speed>0.0</speed>
  <fix>3d</fix>
</trkpt>
<trkpt lat="40.071375" lon="-105.2297889">
  <ele>1583.0</ele>
  <time>2026-08-28T17:53:58Z</time>
  <course>247.08</course>
  <speed>0.022360679774997897</speed>
  <fix>3d</fix>
</trkpt>
<trkpt lat="40.0713749" lon="-105.229789">
  <ele>1583.0</ele>
  <time>2026-08-28T17:53:58Z</time>
  <course>0.0</course>
  <speed>0.0</speed>
  <fix>3d</fix>
</trkpt>
<trkpt lat="40.0713751" lon="-105.2297889">
  <ele>1583.0</ele>
  <time>2026-08-28T17:53:58Z</time>
  <course>247.08</course>
  <speed>0.022360679774997897</speed>
  <fix>3d</fix>
</trkpt>
<trkpt lat="40.0713749" lon="-105.229789">
  <ele>1583.0</ele>
  <time>2026-08-28T17:53:58Z</time>
  <course>0.0</course>
  <speed>0.0</speed>
  <fix>3d</fix>
</trkpt>
<trkpt lat="40.071375" lon="-105.2297889">
  <ele>1583.0</ele>
  <time>2026-08-28T17:53:58Z</time>
  <course>247.08</course>
  <speed>0.022360679774997897</speed>
  <fix>3d</fix>
</trkpt>
<trkpt lat="40.0713749" lon="-105.229789">
  <ele>1583.0</ele>
  <time>2026-08-28T17:53:58Z</time>
  <course>0.0</course>
  <speed>0.0</speed>
  <fix>3d</fix>
</trkpt>
<trkpt lat="40.0713751" lon="-105.2297889">
  <ele>1583.0</ele>
  <time>2026-08-28T17:53:58Z</time>
  <course>247.08</course>
  <speed>0.022360679774997897</speed>
  <fix>3d</fix>
</trkpt>
<trkpt lat="40.0713749" lon="-105.229789">
  <ele>1583.0</ele>
  <time>2026-08-28T17:53:58Z</time>
  <course>0.0</course>
  <speed>0.0</speed>
  <fix>3d</fix>
</trkpt>
<trkpt lat="40.071375" lon="-105.2297889">
  <ele>1583.0</ele>
  <time>2026-08-28T17:53:58Z</time>
  <course>247.08</course>
  <speed>0.022360679774997897</speed>
  <fix>3d</fix>
</trkpt>
<trkpt lat="40.0713749" lon="-105.229789">
  <ele>1583.0</ele>
  <time>2026-08-28T17:53:58Z</time>
  <course>0.0</course>
  <speed>0.0</speed>
  <fix>3d</fix>
</trkpt>
<trkpt lat="40.0713751" lon="-105.2297889">
  <ele>1582.99</ele>
  <time>2026-08-28T17:53:58Z</time>
  <course>247.08</course>
  <speed>0.022360679774997897</speed>
  <fix>3d</fix>
</trkpt>
<trkpt lat="40.0713749" lon="-105.229789">
  <ele>1583.0</ele>
  <time>2026-08-28T17:53:58Z</time>
  <course>0.0</course>
  <speed>0.0</speed>
  <fix>3d</fix>
</trkpt>
<trkpt lat="40.071375" lon="-105.2297889">
  <ele>1582.99</ele>
  <time>2026-08-28T17:53:58Z</time>
  <course>247.08</course>
  <speed>0.022360679774997897</speed>
  <fix>3d</fix>
</trkpt>
<trkpt lat="40.0713749" lon="-105.229789">
  <ele>1583.0</ele>
  <time>2026-08-28T17:53:58Z</time>
  <course>0.0</course>
  <speed>0.0</speed>
  <fix>3d</fix>
</trkpt>
<trkpt lat="40.0713751" lon="-105.2297889">
  <ele>1582.99</ele>
  <time>2026-08-28T17:53:58Z</time>
  <course>247.08</course>
  <speed>0.022360679774997897</speed>
  <fix>3d</fix>
</trkpt>
<trkpt lat="40.0713749" lon="-105.229789">
  <ele>1583.0</ele>
  <time>2026-08-28T17:53:58Z</time>
  <course>0.0</course>
  <speed>0.0</speed>
  <fix>3d</fix>
</trkpt>
<trkpt lat="40.0713751" lon="-105.2297889">
  <ele>1582.99</ele>
  <time>2026-08-28T17:53:58Z</time>
  <course>247.08</course>
  <speed>0.022360679774997897</speed>
  <fix>3d</fix>
</trkpt>
<trkpt lat="40.0713749" lon="-105.229789">
  <ele>1583.0</ele>
  <time>2026-08-28T17:53:58Z</time>
  <course>0.0</course>
  <speed>0.0</speed>
  <fix>3d</fix>
</trkpt>
<trkpt lat="40.0713751" lon="-105.2297889">
  <ele>1582.98</ele>
  <time>2026-08-28T17:53:58Z</time>
  <course>247.08</course>
  <speed>0.022360679774997897</speed>
  <fix>3d</fix>
</trkpt>
<trkpt lat="40.0713749" lon="-105.229789">
  <ele>1583.0</ele>
  <time>2026-08-28T17:53:58Z</time>
  <course>0.0</course>
  <speed>0.0</speed>
  <fix>3d</fix>
</trkpt>
<trkpt lat="40.0713751" lon="-105.2297889">
  <ele>1582.98</ele>
  <time>2026-08-28T17:53:58Z</time>
  <course>247.08</course>
  <speed>0.022360679774997897</speed>
  <fix>3d</fix>
</trkpt>
<trkpt lat="40.0713749" lon="-105.229789">
  <ele>1583.0</ele>
  <time>2026-08-28T17:53:58Z</time>
  <course>0.0</course>
  <speed>0.0</speed>
  <fix>3d</fix>
</trkpt>
<trkpt lat="40.0713751" lon="-105.2297889">
  <ele>1582.99</ele>
  <time>2026-08-28T17:53:58Z</time>
  <course>247.08</course>
  <speed>0.022360679774997897</speed>
  <fix>3d</fix>
</trkpt>
<trkpt lat="40.0713749" lon="-105.229789">
  <ele>1583.0</ele>
  <time>2026-08-28T17:53:58Z</time>
  <course>0.0</course>
  <speed>0.0</speed>
  <fix>3d</fix>
</trkpt>
<trkpt lat="40.0713751" lon="-105.2297889">
  <ele>1582.99</ele>
  <time>2026-08-28T17:53:58Z</time>
  <course>247.08</course>
  <speed>0.022360679774997897</speed>
  <fix>3d</fix>
</trkpt>
<trkpt lat="40.0713749" lon="-105.229789">
  <ele>1583.0</ele>
  <time>2026-08-28T17:53:58Z</time>
  <course>0.0</course>
  <speed>0.0</speed>
  <fix>3d</fix>
</trkpt>
<trkpt lat="40.0713751" lon="-105.2297889">
  <ele>1582.99</ele>
  <time>2026-08-28T17:53:58Z</time>
  <course>247.08</course>
  <speed>0.022360679774997897</speed>
  <fix>3d</fix>
</trkpt>
<trkpt lat="40.0713749" lon="-105.229789">
  <ele>1583.0</ele>
  <time>2026-08-28T17:53:58Z</time>
  <course>0.0</course>
  <speed>0.0</speed>
  <fix>3d</fix>
</trkpt>
<trkpt lat="40.0713751" lon="-105.2297889">
  <ele>1583.0</ele>
  <time>2026-08-28T17:53:58Z</time>
  <course>247.08</course>
  <speed>0.022360679774997897</speed>
  <fix>3d</fix>
</trkpt>
<trkpt lat="40.0713749" lon="-105.229789">
  <ele>1583.0</ele>
  <time>2026-08-28T17:53:58Z</time>
  <course>0.0</course>
  <speed>0.0</speed>
  <fix>3d</fix>
</trkpt>
<trkpt lat="40.0713751" lon="-105.2297889">
  <ele>1583.0</ele>
  <time>2026-08-28T17:53:58Z</time>
  <course>247.08</course>
  <speed>0.022360679774997897</speed>
  <fix>3d</fix>
</trkpt>
<trkpt lat="40.0713749" lon="-105.229789">
  <ele>1583.0</ele>
  <time>2026-08-28T17:53:58Z</time>
  <course>0.0</course>
  <speed>0.0</speed>
  <fix>3d</fix>
</trkpt>
<trkpt lat="40.0713751" lon="-105.2297889">
  <ele>1583.0</ele>
  <time>2026-08-28T17:53:58Z</time>
  <course>247.08</course>
  <speed>0.022360679774997897</speed>
  <fix>3d</fix>
</trkpt>
<trkpt lat="40.0713749" lon="-105.229789">
  <ele>1583.0</ele>
  <time>2026-08-28T17:53:58Z</time>
  <course>0.0</course>
  <speed>0.0</speed>
  <fix>3d</fix>
</trkpt>
<trkpt lat="40.0713751" lon="-105.2297889">
  <ele>1583.0</ele>
  <time>2026-08-28T17:53:58Z</time>
  <course>247.08</course>
  <speed>0.022360679774997897</speed>
  <fix>3d</fix>
</trkpt>
<trkpt lat="40.0713749" lon="-105.229789">
  <ele>1583.0</ele>
  <time>2026-08-28T17:53:58Z</time>
  <course>0.0</course>
  <speed>0.0</speed>
  <fix>3d</fix>
</trkpt>
<trkpt lat="40.0713751" lon="-105.2297889">
  <ele>1583.0</ele>
  <time>2026-08-28T17:53:58Z</time>
  <course>247.08</course>
  <speed>0.022360679774997897</speed>
  <fix>3d</fix>
</trkpt>
<trkpt lat="40.0713749" lon="-105.229789">
  <ele>1583.0</ele>
  <time>2026-08-28T17:53:58Z</time>
  <course>0.0</course>
  <speed>0.0</speed>
  <fix>3d</fix>
</trkpt>
<trkpt lat="40.0713751" lon="-105.2297889">
  <ele>1582.99</ele>
  <time>2026-08-28T17:53:58Z</time>
  <course>247.08</course>
  <speed>0.022360679774997897</speed>
  <fix>3d</fix>
</trkpt>
<trkpt lat="40.0713749" lon="-105.229789">
  <ele>1583.0</ele>
  <time>2026-08-28T17:53:58Z</time>
  <course>0.0</course>
  <speed>0.0</speed>
  <fix>3d</fix>
</trkpt>
<trkpt lat="40.0713751" lon="-105.2297889">
  <ele>1582.99</ele>
  <time>2026-08-28T17:53:58Z</time>
  <course>247.08</course>
  <speed>0.022360679774997897</speed>
  <fix>3d</fix>
</trkpt>
<trkpt lat="40.0713749" lon="-105.229789">
  <ele>1583.0</ele>
  <time>2026-08-28T17:53:58Z</time>
  <course>0.0</course>
  <speed>0.0</speed>
  <fix>3d</fix>
</trkpt>
<trkpt lat="40.0713751" lon="-105.2297889">
  <ele>1583.0</ele>
  <time>2026-08-28T17:53:58Z</time>
  <course>247.08</course>
  <speed>0.022360679774997897</speed>
  <fix>3d</fix>
</trkpt>
<trkpt lat="40.0713749" lon="-105.229789">
  <ele>1583.0</ele>
  <time>2026-08-28T17:53:58Z</time>
  <course>0.0</course>
  <speed>0.0</speed>
  <fix>3d</fix>
</trkpt>
<trkpt lat="40.0713751" lon="-105.2297889">
  <ele>1583.0</ele>
  <time>2026-08-28T17:53:58Z</time>
  <course>247.08</course>
  <speed>0.022360679774997897</speed>
  <fix>3d</fix>
</trkpt>
<trkpt lat="40.0713749" lon="-105.229789">
  <ele>1583.0</ele>
  <time>2026-08-28T17:53:58Z</time>
  <course>0.0</course>
  <speed>0.0</speed>
  <fix>3d</fix>
</trkpt>
<trkpt lat="40.0713751" lon="-105.2297889">
  <ele>1583.0</ele>
  <time>2026-08-28T17:53:58Z</time>
  <course>247.08</course>
  <speed>0.022360679774997897</speed>
  <fix>3d</fix>
</trkpt>
<trkpt lat="40.0713749" lon="-105.229789">
  <ele>1583.0</ele>
  <time>2026-08-28T17:53:58Z</time>
  <course>0.0</course>
  <speed>0.0</speed>
  <fix>3d</fix>
</trkpt>
<trkpt lat="40.0713751" lon="-105.2297889">
  <ele>1583.0</ele>
  <time>2026-08-28T17:53:58Z</time>
  <course>247.08</course>
  <speed>0.022360679774997897</speed>
  <fix>3d</fix>
</trkpt>
<trkpt lat="40.0713749" lon="-105.229789">
  <ele>1583.0</ele>
  <time>2026-08-28T17:53:58Z</time>
  <course>0.0</course>
  <speed>0.0</speed>
  <fix>3d</fix>
</trkpt>
<trkpt lat="40.0713751" lon="-105.2297889">
  <ele>1583.01</ele>
  <time>2026-08-28T17:53:58Z</time>
  <course>247.08</course>
  <speed>0.022360679774997897</speed>
  <fix>3d</fix>
</trkpt>
<trkpt lat="40.0713749" lon="-105.229789">
  <ele>1583.0</ele>
  <time>2026-08-28T17:53:58Z</time>
  <course>0.0</course>
  <speed>0.0</speed>
  <fix>3d</fix>
</trkpt>
<trkpt lat="40.0713751" lon="-105.2297889">
  <ele>1583.01</ele>
  <time>2026-08-28T17:53:58Z</time>
  <course>247.08</course>
  <speed>0.022360679774997897</speed>
  <fix>3d</fix>
</trkpt>
<trkpt lat="40.0713749" lon="-105.229789">
  <ele>1583.0</ele>
  <time>2026-08-28T17:53:58Z</time>
  <course>0.0</course>
  <speed>0.0</speed>
  <fix>3d</fix>
</trkpt>
<trkpt lat="40.0713751" lon="-105.2297889">
  <ele>1583.01</ele>
  <time>2026-08-28T17:53:58Z</time>
  <course>247.08</course>
  <speed>0.022360679774997897</speed>
  <fix>3d</fix>
</trkpt>
<trkpt lat="40.0713749" lon="-105.229789">
  <ele>1583.0</ele>
  <time>2026-08-28T17:53:58Z</time>
  <course>0.0</course>
  <speed>0.0</speed>
  <fix>3d</fix>
</trkpt>
<trkpt lat="40.0713751" lon="-105.2297889">
  <ele>1583.01</ele>
  <time>2026-08-28T17:53:58Z</time>
  <course>247.08</course>
  <speed>0.022360679774997897</speed>
  <fix>3d</fix>
</trkpt>
<trkpt lat="40.0713749" lon="-105.229789">
  <ele>1583.0</ele>
  <time>2026-08-28T17:53:58Z</time>
  <course>0.0</course>
  <speed>0.0</speed>
  <fix>3d</fix>
</trkpt>
<trkpt lat="40.0713751" lon="-105.2297889">
  <ele>1583.01</ele>
  <time>2026-08-28T17:53:58Z</time>
  <course>247.08</course>
  <speed>0.022360679774997897</speed>
  <fix>3d</fix>
</trkpt>
<trkpt lat="40.0713749" lon="-105.229789">
  <ele>1583.0</ele>
  <time>2026-08-28T17:53:58Z</time>
  <course>0.0</course>
  <speed>0.0</speed>
  <fix>3d</fix>
</trkpt>
<trkpt lat="40.0713751" lon="-105.2297889">
  <ele>1583.01</ele>
  <time>2026-08-28T17:53:58Z</time>
  <course>247.08</course>
  <speed>0.022360679774997897</speed>
  <fix>3d</fix>
</trkpt>
<trkpt lat="40.0713749" lon="-105.229789">
  <ele>1583.0</ele>
  <time>2026-08-28T17:53:58Z</time>
  <course>0.0</course>
  <speed>0.0</speed>
  <fix>3d</fix>
</trkpt>
<trkpt lat="40.0713751" lon="-105.2297889">
  <ele>1583.02</ele>
  <time>2026-08-28T17:53:58Z</time>
  <course>247.08</course>
  <speed>0.022360679774997897</speed>
  <fix>3d</fix>
</trkpt>
<trkpt lat="40.0713749" lon="-105.229789">
  <ele>1583.0</ele>
  <time>2026-08-28T17:53:58Z</time>
  <course>0.0</course>
  <speed>0.0</speed>
  <fix>3d</fix>
</trkpt>
<trkpt lat="40.0713751" lon="-105.2297889">
  <ele>1583.02</ele>
  <time>2026-08-28T17:53:58Z</time>
  <course>247.08</course>
  <speed>0.022360679774997897</speed>
  <fix>3d</fix>
</trkpt>
<trkpt lat="40.0713749" lon="-105.229789">
  <ele>1583.0</ele>
  <time>2026-08-28T17:53:58Z</time>
  <course>0.0</course>
  <speed>0.0</speed>
  <fix>3d</fix>
</trkpt>
<trkpt lat="40.0713751" lon="-105.2297889">
  <ele>1583.02</ele>
  <time>2026-08-28T17:53:58Z</time>
  <course>247.08</course>
  <speed>0.022360679774997897</speed>
  <fix>3d</fix>
</trkpt>
<trkpt lat="40.0713749" lon="-105.229789">
  <ele>1583.0</ele>
  <time>2026-08-28T17:53:58Z</time>
  <course>0.0</course>
  <speed>0.0</speed>
  <fix>3d</fix>
</trkpt>
<trkpt lat="40.0713751" lon="-105.2297889">
  <ele>1583.02</ele>
  <time>2026-08-28T17:53:58Z</time>
  <course>247.08</course>
  <speed>0.022360679774997897</speed>
  <fix>3d</fix>
</trkpt>
<trkpt lat="40.0713749" lon="-105.229789">
  <ele>1583.0</ele>
  <time>2026-08-28T17:53:58Z</time>
  <course>0.0</course>
  <speed>0.0</speed>
  <fix>3d</fix>
</trkpt>
<trkpt lat="40.0713751" lon="-105.2297889">
  <ele>1583.02</ele>
  <time>2026-08-28T17:53:58Z</time>
  <course>247.08</course>
  <speed>0.022360679774997897</speed>
  <fix>3d</fix>
</trkpt>
<trkpt lat="40.0713749" lon="-105.229789">
  <ele>1583.0</ele>
  <time>2026-08-28T17:53:58Z</time>
  <course>0.0</course>
  <speed>0.0</speed>
  <fix>3d</fix>
</trkpt>
<trkpt lat="40.0713751" lon="-105.2297889">
  <ele>1583.03</ele>
  <time>2026-08-28T17:53:58Z</time>
  <course>247.08</course>
  <speed>0.022360679774997897</speed>
  <fix>3d</fix>
</trkpt>
<trkpt lat="40.0713749" lon="-105.229789">
  <ele>1583.0</ele>
  <time>2026-08-28T17:53:58Z</time>
  <course>0.0</course>
  <speed>0.0</speed>
  <fix>3d</fix>
</trkpt>
<trkpt lat="40.0713751" lon="-105.2297889">
  <ele>1583.03</ele>
  <time>2026-08-28T17:53:58Z</time>
  <course>247.08</course>
  <speed>0.022360679774997897</speed>
  <fix>3d</fix>
</trkpt>
<trkpt lat="40.0713749" lon="-105.229789">
  <ele>1583.0</ele>
  <time>2026-08-28T17:53:58Z</time>
  <course>0.0</course>
  <speed>0.0</speed>
  <fix>3d</fix>
</trkpt>
<trkpt lat="40.0713751" lon="-105.2297889">
  <ele>1583.03</ele>
  <time>2026-08-28T17:53:58Z</time>
  <course>247.08</course>
  <speed>0.022360679774997897</speed>
  <fix>3d</fix>
</trkpt>
<trkpt lat="40.0713749" lon="-105.229789">
  <ele>1583.0</ele>
  <time>2026-08-28T17:53:58Z</time>
  <course>0.0</course>
  <speed>0.0</speed>
  <fix>3d</fix>
</trkpt>
<trkpt lat="40.0713751" lon="-105.2297889">
  <ele>1583.03</ele>
  <time>2026-08-28T17:53:58Z</time>
  <course>247.08</course>
  <speed>0.022360679774997897</speed>
  <fix>3d</fix>
</trkpt>
<trkpt lat="40.0713749" lon="-105.229789">
  <ele>1583.0</ele>
  <time>2026-08-28T17:53:58Z</time>
  <course>0.0</course>
  <speed>0.0</speed>
  <fix>3d</fix>
</trkpt>
<trkpt lat="40.0713751" lon="-105.2297889">
  <ele>1583.03</ele>
  <time>2026-08-28T17:53:58Z</time>
  <course>247.08</course>
  <speed>0.022360679774997897</speed>
  <fix>3d</fix>
</trkpt>
<trkpt lat="40.0713749" lon="-105.229789">
  <ele>1583.0</ele>
  <time>2026-08-28T17:53:58Z</time>
  <course>0.0</course>
  <speed>0.0</speed>
  <fix>3d</fix>
</trkpt>
<trkpt lat="40.0713751" lon="-105.2297889">
  <ele>1583.03</ele>
  <time>2026-08-28T17:53:58Z</time>
  <course>247.08</course>
  <speed>0.022360679774997897</speed>
  <fix>3d</fix>
</trkpt>
<trkpt lat="40.0713749" lon="-105.229789">
  <ele>1583.0</ele>
  <time>2026-08-28T17:53:58Z</time>
  <course>0.0</course>
  <speed>0.0</speed>
  <fix>3d</fix>
</trkpt>
<trkpt lat="40.0713751" lon="-105.2297889">
  <ele>1583.03</ele>
  <time>2026-08-28T17:53:58Z</time>
  <course>247.08</course>
  <speed>0.022360679774997897</speed>
  <fix>3d</fix>
</trkpt>
<trkpt lat="40.0713749" lon="-105.229789">
  <ele>1583.0</ele>
  <time>2026-08-28T17:53:58Z</time>
  <course>0.0</course>
  <speed>0.0</speed>
  <fix>3d</fix>
</trkpt>
<trkpt lat="40.0713751" lon="-105.2297889">
  <ele>1583.03</ele>
  <time>2026-08-28T17:53:58Z</time>
  <course>247.08</course>
  <speed>0.022360679774997897</speed>
  <fix>3d</fix>
</trkpt>
<trkpt lat="40.0713749" lon="-105.229789">
  <ele>1583.0</ele>
  <time>2026-08-28T17:53:58Z</time>
  <course>0.0</course>
  <speed>0.0</speed>
  <fix>3d</fix>
</trkpt>
<trkpt lat="40.0713751" lon="-105.2297889">
  <ele>1583.03</ele>
  <time>2026-08-28T17:53:58Z</time>
  <course>247.08</course>
  <speed>0.022360679774997897</speed>
  <fix>3d</fix>
</trkpt>
<trkpt lat="40.0713749" lon="-105.229789">
  <ele>1583.0</ele>
  <time>2026-08-28T17:53:58Z</time>
  <course>0.0</course>
  <speed>0.0</speed>
  <fix>3d</fix>
</trkpt>
<trkpt lat="40.0713751" lon="-105.2297889">
  <ele>1583.03</ele>
  <time>2026-08-28T17:53:58Z</time>
  <course>247.08</course>
  <speed>0.022360679774997897</speed>
  <fix>3d</fix>
</trkpt>
<trkpt lat="40.0713749" lon="-105.229789">
  <ele>1583.0</ele>
  <time>2026-08-28T17:53:58Z</time>
  <course>0.0</course>
  <speed>0.0</speed>
  <fix>3d</fix>
</trkpt>
<trkpt lat="40.0713751" lon="-105.2297889">
  <ele>1583.03</ele>
  <time>2026-08-28T17:53:58Z</time>
  <course>247.08</course>
  <speed>0.022360679774997897</speed>
  <fix>3d</fix>
</trkpt>
<trkpt lat="40.0713749" lon="-105.229789">
  <ele>1583.0</ele>
  <time>2026-08-28T17:53:58Z</time>
  <course>0.0</course>
  <speed>0.0</speed>
  <fix>3d</fix>
</trkpt>
<trkpt lat="40.0713751" lon="-105.2297889">
  <ele>1583.03</ele>
  <time>2026-08-28T17:53:58Z</time>
  <course>247.08</course>
  <speed>0.022360679774997897</speed>
  <fix>3d</fix>
</trkpt>
<trkpt lat="40.0713749" lon="-105.229789">
  <ele>1583.0</ele>
  <time>2026-08-28T17:53:58Z</time>
  <course>0.0</course>
  <speed>0.0</speed>
  <fix>3d</fix>
</trkpt>
<trkpt lat="40.0713751" lon="-105.2297889">
  <ele>1583.03</ele>
  <time>2026-08-28T17:53:58Z</time>
  <course>247.08</course>
  <speed>0.022360679774997897</speed>
  <fix>3d</fix>
</trkpt>
<trkpt lat="40.0713749" lon="-105.229789">
  <ele>1583.0</ele>
  <time>2026-08-28T17:53:58Z</time>
  <course>0.0</course>
  <speed>0.0</speed>
  <fix>3d</fix>
</trkpt>
<trkpt lat="40.0713751" lon="-105.2297889">
  <ele>1583.03</ele>
  <time>2026-08-28T17:53:58Z</time>
  <course>247.08</course>
  <speed>0.022360679774997897</speed>
  <fix>3d</fix>
</trkpt>
<trkpt lat="40.0713749" lon="-105.229789">
  <ele>1583.0</ele>
  <time>2026-08-28T17:53:58Z</time>
  <course>0.0</course>
  <speed>0.0</speed>
  <fix>3d</fix>
</trkpt>
<trkpt lat="40.0713751" lon="-105.2297889">
  <ele>1583.03</ele>
  <time>2026-08-28T17:53:58Z</time>
  <course>247.08</course>
  <speed>0.022360679774997897</speed>
  <fix>3d</fix>
</trkpt>
<trkpt lat="40.0713749" lon="-105.229789">
  <ele>1583.0</ele>
  <time>2026-08-28T17:53:58Z</time>
  <course>0.0</course>
  <speed>0.0</speed>
  <fix>3d</fix>
</trkpt>
<trkpt lat="40.0713751" lon="-105.2297889">
  <ele>1583.03</ele>
  <time>2026-08-28T17:53:58Z</time>
  <course>247.08</course>
  <speed>0.022360679774997897</speed>
  <fix>3d</fix>
</trkpt>
<trkpt lat="40.0713749" lon="-105.229789">
  <ele>1583.0</ele>
  <time>2026-08-28T17:53:58Z</time>
  <course>0.0</course>
  <speed>0.0</speed>
  <fix>3d</fix>
</trkpt>
<trkpt lat="40.0713751" lon="-105.2297889">
  <ele>1583.03</ele>
  <time>2026-08-28T17:53:58Z</time>
  <course>247.08</course>
  <speed>0.022360679774997897</speed>
  <fix>3d</fix>
</trkpt>
<trkpt lat="40.0713749" lon="-105.229789">
  <ele>1583.0</ele>
  <time>2026-08-28T17:53:58Z</time>
  <course>0.0</course>
  <speed>0.0</speed>
  <fix>3d</fix>
</trkpt>
<trkpt lat="40.0713751" lon="-105.2297889">
  <ele>1583.03</ele>
  <time>2026-08-28T17:53:58Z</time>
  <course>247.08</course>
  <speed>0.022360679774997897</speed>
  <fix>3d</fix>
</trkpt>
<trkpt lat="40.0713749" lon="-105.229789">
  <ele>1583.0</ele>
  <time>2026-08-28T17:53:58Z</time>
  <course>0.0</course>
  <speed>0.0</speed>
  <fix>3d</fix>
</trkpt>
<trkpt lat="40.0713751" lon="-105.2297889">
  <ele>1583.03</ele>
  <time>2026-08-28T17:53:58Z</time>
  <course>247.08</course>
  <speed>0.022360679774997897</speed>
  <fix>3d</fix>
</trkpt>
<trkpt lat="40.0713749" lon="-105.229789">
  <ele>1583.0</ele>
  <time>2026-08-28T17:53:58Z</time>
  <course>0.0</course>
  <speed>0.0</speed>
  <fix>3d</fix>
</trkpt>
<trkpt lat="40.0713751" lon="-105.2297889">
  <ele>1583.03</ele>
  <time>2026-08-28T17:53:58Z</time>
  <course>247.08</course>
  <speed>0.022360679774997897</speed>
  <fix>3d</fix>
</trkpt>
<trkpt lat="40.0713749" lon="-105.229789">
  <ele>1583.0</ele>
  <time>2026-08-28T17:53:58Z</time>
  <course>0.0</course>
  <speed>0.0</speed>
  <fix>3d</fix>
</trkpt>
<trkpt lat="40.0713751" lon="-105.2297889">
  <ele>1583.03</ele>
  <time>2026-08-28T17:53:58Z</time>
  <course>247.08</course>
  <speed>0.022360679774997897</speed>
  <fix>3d</fix>
</trkpt>
<trkpt lat="40.0713749" lon="-105.229789">
  <ele>1583.0</ele>
  <time>2026-08-28T17:53:58Z</time>
  <course>0.0</course>
  <speed>0.0</speed>
  <fix>3d</fix>
</trkpt>
<trkpt lat="40.0713751" lon="-105.2297889">
  <ele>1583.03</ele>
  <time>2026-08-28T17:53:58Z</time>
  <course>247.08</course>
  <speed>0.022360679774997897</speed>
  <fix>3d</fix>
</trkpt>
<trkpt lat="40.0713749" lon="-105.229789">
  <ele>1583.0</ele>
  <time>2026-08-28T17:53:58Z</time>
  <course>0.0</course>
  <speed>0.0</speed>
  <fix>3d</fix>
</trkpt>
<trkpt lat="40.071375" lon="-105.2297889">
  <ele>1583.03</ele>
  <time>2026-08-28T17:53:58Z</time>
  <course>247.08</course>
  <speed>0.022360679774997897</speed>
  <fix>3d</fix>
</trkpt>
<trkpt lat="40.0713749" lon="-105.229789">
  <ele>1583.0</ele>
  <time>2026-08-28T17:53:58Z</time>
  <course>0.0</course>
  <speed>0.0</speed>
  <fix>3d</fix>
</trkpt>
<trkpt lat="40.0713751" lon="-105.2297889">
  <ele>1583.02</ele>
  <time>2026-08-28T17:53:58Z</time>
  <course>247.08</course>
  <speed>0.022360679774997897</speed>
  <fix>3d</fix>
</trkpt>
<trkpt lat="40.0713749" lon="-105.229789">
  <ele>1583.0</ele>
  <time>2026-08-28T17:53:58Z</time>
  <course>0.0</course>
  <speed>0.0</speed>
  <fix>3d</fix>
</trkpt>
<trkpt lat="40.071375" lon="-105.2297889">
  <ele>1583.02</ele>
  <time>2026-08-28T17:53:58Z</time>
  <course>247.08</course>
  <speed>0.022360679774997897</speed>
  <fix>3d</fix>
</trkpt>
<trkpt lat="40.0713749" lon="-105.229789">
  <ele>1583.0</ele>
  <time>2026-08-28T17:53:58Z</time>
  <course>0.0</course>
  <speed>0.0</speed>
  <fix>3d</fix>
</trkpt>
<trkpt lat="40.0713751" lon="-105.2297889">
  <ele>1583.01</ele>
  <time>2026-08-28T17:53:58Z</time>
  <course>247.08</course>
  <speed>0.022360679774997897</speed>
  <fix>3d</fix>
</trkpt>
<trkpt lat="40.0713749" lon="-105.229789">
  <ele>1583.0</ele>
  <time>2026-08-28T17:53:58Z</time>
  <course>0.0</course>
  <speed>0.0</speed>
  <fix>3d</fix>
</trkpt>
<trkpt lat="40.071375" lon="-105.2297889">
  <ele>1583.01</ele>
  <time>2026-08-28T17:53:58Z</time>
  <course>247.08</course>
  <speed>0.022360679774997897</speed>
  <fix>3d</fix>
</trkpt>
<trkpt lat="40.0713749" lon="-105.229789">
  <ele>1583.0</ele>
  <time>2026-08-28T17:53:58Z</time>
  <course>0.0</course>
  <speed>0.0</speed>
  <fix>3d</fix>
</trkpt>
<trkpt lat="40.0713751" lon="-105.2297889">
  <ele>1583.01</ele>
  <time>2026-08-28T17:53:58Z</time>
  <course>247.08</course>
  <speed>0.022360679774997897</speed>
  <fix>3d</fix>
</trkpt>
<trkpt lat="40.0713749" lon="-105.229789">
  <ele>1583.0</ele>
  <time>2026-08-28T17:53:58Z</time>
  <course>0.0</course>
  <speed>0.0</speed>
  <fix>3d</fix>
</trkpt>
<trkpt lat="40.071375" lon="-105.2297889">
  <ele>1583.0</ele>
  <time>2026-08-28T17:53:58Z</time>
  <course>247.08</course>
  <speed>0.022360679774997897</speed>
  <fix>3d</fix>
</trkpt>
<trkpt lat="40.0713749" lon="-105.229789">
  <ele>1583.0</ele>
  <time>2026-08-28T17:53:58Z</time>
  <course>0.0</course>
  <speed>0.0</speed>
  <fix>3d</fix>
</trkpt>
<trkpt lat="40.0713751" lon="-105.2297889">
  <ele>1583.0</ele>
  <time>2026-08-28T17:53:58Z</time>
  <course>247.08</course>
  <speed>0.022360679774997897</speed>
  <fix>3d</fix>
</trkpt>
<trkpt lat="40.0713749" lon="-105.229789">
  <ele>1583.0</ele>
  <time>2026-08-28T17:53:58Z</time>
  <course>0.0</course>
  <speed>0.0</speed>
  <fix>3d</fix>
</trkpt>
<trkpt lat="40.071375" lon="-105.2297889">
  <ele>1583.0</ele>
  <time>2026-08-28T17:53:58Z</time>
  <course>247.08</course>
  <speed>0.022360679774997897</speed>
  <fix>3d</fix>
</trkpt>
<trkpt lat="40.0713749" lon="-105.229789">
  <ele>1583.0</ele>
  <time>2026-08-28T17:53:58Z</time>
  <course>0.0</course>
  <speed>0.0</speed>
  <fix>3d</fix>
</trkpt>
<trkpt lat="40.0713751" lon="-105.2297889">
  <ele>1583.01</ele>
  <time>2026-08-28T17:53:58Z</time>
  <course>247.08</course>
  <speed>0.022360679774997897</speed>
  <fix>3d</fix>
</trkpt>
<trkpt lat="40.0713749" lon="-105.229789">
  <ele>1583.0</ele>
  <time>2026-08-28T17:53:58Z</time>
  <course>0.0</course>
  <speed>0.0</speed>
  <fix>3d</fix>
</trkpt>
<trkpt lat="40.071375" lon="-105.2297889">
  <ele>1583.01</ele>
  <time>2026-08-28T17:53:58Z</time>
  <course>247.08</course>
  <speed>0.022360679774997897</speed>
  <fix>3d</fix>
</trkpt>
<trkpt lat="40.0713749" lon="-105.229789">
  <ele>1583.0</ele>
  <time>2026-08-28T17:53:58Z</time>
  <course>0.0</course>
  <speed>0.0</speed>
  <fix>3d</fix>
</trkpt>
<trkpt lat="40.0713751" lon="-105.2297889">
  <ele>1583.0</ele>
  <time>2026-08-28T17:53:58Z</time>
  <course>247.08</course>
  <speed>0.022360679774997897</speed>
  <fix>3d</fix>
</trkpt>
<trkpt lat="40.0713749" lon="-105.229789">
  <ele>1583.0</ele>
  <time>2026-08-28T17:53:58Z</time>
  <course>0.0</course>
  <speed>0.0</speed>
  <fix>3d</fix>
</trkpt>
<trkpt lat="40.0713751" lon="-105.2297889">
  <ele>1583.0</ele>
  <time>2026-08-28T17:53:58Z</time>
  <course>247.08</course>
  <speed>0.022360679774997897</speed>
  <fix>3d</fix>
</trkpt>
<trkpt lat="40.0713749" lon="-105.229789">
  <ele>1583.0</ele>
  <time>2026-08-28T17:53:58Z</time>
  <course>0.0</course>
  <speed>0.0</speed>
  <fix>3d</fix>
</trkpt>
<trkpt lat="40.0713751" lon="-105.2297889">
  <ele>1583.0</ele>
  <time>2026-08-28T17:53:58Z</time>
  <course>247.08</course>
  <speed>0.022360679774997897</speed>
  <fix>3d</fix>
</trkpt>
<trkpt lat="40.0713749" lon="-105.229789">
  <ele>1583.0</ele>
  <time>2026-08-28T17:53:58Z</time>
  <course>0.0</course>
  <speed>0.0</speed>
  <fix>3d</fix>
</trkpt>
<trkpt lat="40.0713751" lon="-105.2297889">
  <ele>1583.0</ele>
  <time>2026-08-28T17:53:58Z</time>
  <course>247.08</course>
  <speed>0.022360679774997897</speed>
  <fix>3d</fix>
</trkpt>
<trkpt lat="40.0713749" lon="-105.229789">
  <ele>1583.0</ele>
  <time>2026-08-28T17:53:58Z</time>
  <course>0.0</course>
  <speed>0.0</speed>
  <fix>3d</fix>
</trkpt>
<trkpt lat="40.0713751" lon="-105.2297889">
  <ele>1583.0</ele>
  <time>2026-08-28T17:53:58Z</time>
  <course>247.08</course>
  <speed>0.022360679774997897</speed>
  <fix>3d</fix>
</trkpt>
<trkpt lat="40.0713749" lon="-105.229789">
  <ele>1583.0</ele>
  <time>2026-08-28T17:53:58Z</time>
  <course>0.0</course>
  <speed>0.0</speed>
  <fix>3d</fix>
</trkpt>
<trkpt lat="40.0713751" lon="-105.2297889">
  <ele>1583.01</ele>
  <time>2026-08-28T17:53:58Z</time>
  <course>247.08</course>
  <speed>0.022360679774997897</speed>
  <fix>3d</fix>
</trkpt>
<trkpt lat="40.0713749" lon="-105.229789">
  <ele>1583.0</ele>
  <time>2026-08-28T17:53:58Z</time>
  <course>0.0</course>
  <speed>0.0</speed>
  <fix>3d</fix>
</trkpt>
<trkpt lat="40.0713751" lon="-105.2297889">
  <ele>1583.01</ele>
  <time>2026-08-28T17:53:58Z</time>
  <course>247.08</course>
  <speed>0.022360679774997897</speed>
  <fix>3d</fix>
</trkpt>
<trkpt lat="40.0713749" lon="-105.229789">
  <ele>1583.0</ele>
  <time>2026-08-28T17:53:58Z</time>
  <course>0.0</course>
  <speed>0.0</speed>
  <fix>3d</fix>
</trkpt>
<trkpt lat="40.0713751" lon="-105.2297889">
  <ele>1583.01</ele>
  <time>2026-08-28T17:53:58Z</time>
  <course>247.08</course>
  <speed>0.022360679774997897</speed>
  <fix>3d</fix>
</trkpt>
<trkpt lat="40.0713749" lon="-105.229789">
  <ele>1583.0</ele>
  <time>2026-08-28T17:53:58Z</time>
  <course>0.0</course>
  <speed>0.0</speed>
  <fix>3d</fix>
</trkpt>
<trkpt lat="40.0713751" lon="-105.2297889">
  <ele>1583.02</ele>
  <time>2026-08-28T17:53:58Z</time>
  <course>247.08</course>
  <speed>0.022360679774997897</speed>
  <fix>3d</fix>
</trkpt>
<trkpt lat="40.0713749" lon="-105.229789">
  <ele>1583.0</ele>
  <time>2026-08-28T17:53:58Z</time>
  <course>0.0</course>
  <speed>0.0</speed>
  <fix>3d</fix>
</trkpt>
<trkpt lat="40.071375" lon="-105.2297889">
  <ele>1583.01</ele>
  <time>2026-08-28T17:53:58Z</time>
  <course>247.08</course>
  <speed>0.022360679774997897</speed>
  <fix>3d</fix>
</trkpt>
<trkpt lat="40.0713749" lon="-105.229789">
  <ele>1583.0</ele>
  <time>2026-08-28T17:53:58Z</time>
  <course>0.0</course>
  <speed>0.0</speed>
  <fix>3d</fix>
</trkpt>
<trkpt lat="40.0713751" lon="-105.2297889">
  <ele>1583.01</ele>
  <time>2026-08-28T17:53:58Z</time>
  <course>247.08</course>
  <speed>0.022360679774997897</speed>
  <fix>3d</fix>
</trkpt>
<trkpt lat="40.0713749" lon="-105.229789">
  <ele>1583.0</ele>
  <time>2026-08-28T17:53:58Z</time>
  <course>0.0</course>
  <speed>0.0</speed>
  <fix>3d</fix>
</trkpt>
<trkpt lat="40.071375" lon="-105.2297889">
  <ele>1583.01</ele>
  <time>2026-08-28T17:53:58Z</time>
  <course>247.08</course>
  <speed>0.022360679774997897</speed>
  <fix>3d</fix>
</trkpt>
<trkpt lat="40.0713749" lon="-105.229789">
  <ele>1583.0</ele>
  <time>2026-08-28T17:53:58Z</time>
  <course>0.0</course>
  <speed>0.0</speed>
  <fix>3d</fix>
</trkpt>
<trkpt lat="40.0713751" lon="-105.2297889">
  <ele>1583.01</ele>
  <time>2026-08-28T17:53:58Z</time>
  <course>247.08</course>
  <speed>0.022360679774997897</speed>
  <fix>3d</fix>
</trkpt>
<trkpt lat="40.0713749" lon="-105.229789">
  <ele>1583.0</ele>
  <time>2026-08-28T17:53:58Z</time>
  <course>0.0</course>
  <speed>0.0</speed>
  <fix>3d</fix>
</trkpt>
<trkpt lat="40.071375" lon="-105.2297889">
  <ele>1583.01</ele>
  <time>2026-08-28T17:53:58Z</time>
  <course>247.08</course>
  <speed>0.022360679774997897</speed>
  <fix>3d</fix>
</trkpt>
<trkpt lat="40.0713749" lon="-105.229789">
  <ele>1583.0</ele>
  <time>2026-08-28T17:53:58Z</time>
  <course>0.0</course>
  <speed>0.0</speed>
  <fix>3d</fix>
</trkpt>
<trkpt lat="40.0713751" lon="-105.2297889">
  <ele>1583.01</ele>
  <time>2026-08-28T17:53:58Z</time>
  <course>247.08</course>
  <speed>0.022360679774997897</speed>
  <fix>3d</fix>
</trkpt>
<trkpt lat="40.0713749" lon="-105.229789">
  <ele>1583.0</ele>
  <time>2026-08-28T17:53:58Z</time>
  <course>0.0</course>
  <speed>0.0</speed>
  <fix>3d</fix>
</trkpt>
<trkpt lat="40.071375" lon="-105.2297889">
  <ele>1583.01</ele>
  <time>2026-08-28T17:53:58Z</time>
  <course>247.08</course>
  <speed>0.022360679774997897</speed>
  <fix>3d</fix>
</trkpt>
<trkpt lat="40.0713749" lon="-105.229789">
  <ele>1583.0</ele>
  <time>2026-08-28T17:53:58Z</time>
  <course>0.0</course>
  <speed>0.0</speed>
  <fix>3d</fix>
</trkpt>
<trkpt lat="40.0713751" lon="-105.2297889">
  <ele>1583.01</ele>
  <time>2026-08-28T17:53:58Z</time>
  <course>247.08</course>
  <speed>0.022360679774997897</speed>
  <fix>3d</fix>
</trkpt>
<trkpt lat="40.0713749" lon="-105.229789">
  <ele>1583.0</ele>
  <time>2026-08-28T17:53:58Z</time>
  <course>0.0</course>
  <speed>0.0</speed>
  <fix>3d</fix>
</trkpt>
<trkpt lat="40.071375" lon="-105.2297889">
  <ele>1583.01</ele>
  <time>2026-08-28T17:53:58Z</time>
  <course>247.08</course>
  <speed>0.022360679774997897</speed>
  <fix>3d</fix>
</trkpt>
<trkpt lat="40.0713749" lon="-105.229789">
  <ele>1583.0</ele>
  <time>2026-08-28T17:53:58Z</time>
  <course>0.0</course>
  <speed>0.0</speed>
  <fix>3d</fix>
</trkpt>
<trkpt lat="40.0713751" lon="-105.2297889">
  <ele>1583.02</ele>
  <time>2026-08-28T17:53:58Z</time>
  <course>247.08</course>
  <speed>0.022360679774997897</speed>
  <fix>3d</fix>
</trkpt>
<trkpt lat="40.0713749" lon="-105.229789">
  <ele>1583.0</ele>
  <time>2026-08-28T17:53:58Z</time>
  <course>0.0</course>
  <speed>0.0</speed>
  <fix>3d</fix>
</trkpt>
<trkpt lat="40.071375" lon="-105.2297889">
  <ele>1583.02</ele>
  <time>2026-08-28T17:53:58Z</time>
  <course>247.08</course>
  <speed>0.022360679774997897</speed>
  <fix>3d</fix>
</trkpt>
<trkpt lat="40.0713749" lon="-105.229789">
  <ele>1583.0</ele>
  <time>2026-08-28T17:53:58Z</time>
  <course>0.0</course>
  <speed>0.0</speed>
  <fix>3d</fix>
</trkpt>
<trkpt lat="40.0713751" lon="-105.2297889">
  <ele>1583.02</ele>
  <time>2026-08-28T17:53:58Z</time>
  <course>247.08</course>
  <speed>0.022360679774997897</speed>
  <fix>3d</fix>
</trkpt>
<trkpt lat="40.0713749" lon="-105.229789">
  <ele>1583.0</ele>
  <time>2026-08-28T17:53:58Z</time>
  <course>0.0</course>
  <speed>0.0</speed>
  <fix>3d</fix>
</trkpt>
<trkpt lat="40.071375" lon="-105.2297889">
  <ele>1583.02</ele>
  <time>2026-08-28T17:53:58Z</time>
  <course>247.08</course>
  <speed>0.022360679774997897</speed>
  <fix>3d</fix>
</trkpt>
<trkpt lat="40.0713749" lon="-105.229789">
  <ele>1583.0</ele>
  <time>2026-08-28T17:53:58Z</time>
  <course>0.0</course>
  <speed>0.0</speed>
  <fix>3d</fix>
</trkpt>
<trkpt lat="40.0713751" lon="-105.2297889">
  <ele>1583.02</ele>
  <time>2026-08-28T17:53:58Z</time>
  <course>247.08</course>
  <speed>0.022360679774997897</speed>
  <fix>3d</fix>
</trkpt>
<trkpt lat="40.0713749" lon="-105.229789">
  <ele>1583.0</ele>
  <time>2026-08-28T17:53:58Z</time>
  <course>0.0</course>
  <speed>0.0</speed>
  <fix>3d</fix>
</trkpt>
<trkpt lat="40.071375" lon="-105.2297889">
  <ele>1583.02</ele>
  <time>2026-08-28T17:53:58Z</time>
  <course>247.08</course>
  <speed>0.022360679774997897</speed>
  <fix>3d</fix>
</trkpt>
<trkpt lat="40.0713749" lon="-105.229789">
  <ele>1583.0</ele>
  <time>2026-08-28T17:53:58Z</time>
  <course>0.0</course>
  <speed>0.0</speed>
  <fix>3d</fix>
</trkpt>
<trkpt lat="40.0713751" lon="-105.2297889">
  <ele>1583.02</ele>
  <time>2026-08-28T17:53:58Z</time>
  <course>247.08</course>
  <speed>0.022360679774997897</speed>
  <fix>3d</fix>
</trkpt>
<trkpt lat="40.0713749" lon="-105.229789">
  <ele>1583.0</ele>
  <time>2026-08-28T17:53:58Z</time>
  <course>0.0</course>
  <speed>0.0</speed>
  <fix>3d</fix>
</trkpt>
<trkpt lat="40.0713751" lon="-105.2297889">
  <ele>1583.02</ele>
  <time>2026-08-28T17:53:58Z</time>
  <course>247.08</course>
  <speed>0.022360679774997897</speed>
  <fix>3d</fix>
</trkpt>
<trkpt lat="40.0713749" lon="-105.229789">
  <ele>1583.0</ele>
  <time>2026-08-28T17:53:58Z</time>
  <course>0.0</course>
  <speed>0.0</speed>
  <fix>3d</fix>
</trkpt>
<trkpt lat="40.0713751" lon="-105.2297889">
  <ele>1583.02</ele>
  <time>2026-08-28T17:53:58Z</time>
  <course>247.08</course>
  <speed>0.022360679774997897</speed>
  <fix>3d</fix>
</trkpt>
<trkpt lat="40.0713749" lon="-105.229789">
  <ele>1583.0</ele>
  <time>2026-08-28T17:53:58Z</time>
  <course>0.0</course>
  <speed>0.0</speed>
  <fix>3d</fix>
</trkpt>
<trkpt lat="40.0713751" lon="-105.2297889">
  <ele>1583.02</ele>
  <time>2026-08-28T17:53:58Z</time>
  <course>247.08</course>
  <speed>0.022360679774997897</speed>
  <fix>3d</fix>
</trkpt>
<trkpt lat="40.0713749" lon="-105.229789">
  <ele>1583.0</ele>
  <time>2026-08-28T17:53:58Z</time>
  <course>0.0</course>
  <speed>0.0</speed>
  <fix>3d</fix>
</trkpt>
<trkpt lat="40.0713751" lon="-105.2297889">
  <ele>1583.02</ele>
  <time>2026-08-28T17:53:58Z</time>
  <course>247.08</course>
  <speed>0.022360679774997897</speed>
  <fix>3d</fix>
</trkpt>
<trkpt lat="40.0713749" lon="-105.229789">
  <ele>1583.0</ele>
  <time>2026-08-28T17:53:58Z</time>
  <course>0.0</course>
  <speed>0.0</speed>
  <fix>3d</fix>
</trkpt>
<trkpt lat="40.071375" lon="-105.2297889">
  <ele>1583.02</ele>
  <time>2026-08-28T17:53:58Z</time>
  <course>247.08</course>
  <speed>0.022360679774997897</speed>
  <fix>3d</fix>
</trkpt>
<trkpt lat="40.0713749" lon="-105.229789">
  <ele>1583.0</ele>
  <time>2026-08-28T17:53:58Z</time>
  <course>0.0</course>
  <speed>0.0</speed>
  <fix>3d</fix>
</trkpt>
<trkpt lat="40.0713751" lon="-105.2297889">
  <ele>1583.02</ele>
  <time>2026-08-28T17:53:59Z</time>
  <course>247.08</course>
  <speed>0.022360679774997897</speed>
  <fix>3d</fix>
</trkpt>
<trkpt lat="40.0713749" lon="-105.229789">
  <ele>1583.0</ele>
  <time>2026-08-28T17:53:59Z</time>
  <course>0.0</course>
  <speed>0.0</speed>
  <fix>3d</fix>
</trkpt>
<trkpt lat="40.071375" lon="-105.2297889">
  <ele>1583.02</ele>
  <time>2026-08-28T17:53:59Z</time>
  <course>247.08</course>
  <speed>0.022360679774997897</speed>
  <fix>3d</fix>
</trkpt>
<trkpt lat="40.0713749" lon="-105.229789">
  <ele>1583.0</ele>
  <time>2026-08-28T17:53:59Z</time>
  <course>0.0</course>
  <speed>0.0</speed>
  <fix>3d</fix>
</trkpt>
<trkpt lat="40.071375" lon="-105.2297889">
  <ele>1583.02</ele>
  <time>2026-08-28T17:53:59Z</time>
  <course>247.08</course>
  <speed>0.022360679774997897</speed>
  <fix>3d</fix>
</trkpt>
<trkpt lat="40.0713749" lon="-105.229789">
  <ele>1583.0</ele>
  <time>2026-08-28T17:53:59Z</time>
  <course>0.0</course>
  <speed>0.0</speed>
  <fix>3d</fix>
</trkpt>
<trkpt lat="40.071375" lon="-105.2297889">
  <ele>1583.02</ele>
  <time>2026-08-28T17:53:59Z</time>
  <course>247.08</course>
  <speed>0.022360679774997897</speed>
  <fix>3d</fix>
</trkpt>
<trkpt lat="40.0713749" lon="-105.229789">
  <ele>1583.0</ele>
  <time>2026-08-28T17:53:59Z</time>
  <course>0.0</course>
  <speed>0.0</speed>
  <fix>3d</fix>
</trkpt>
<trkpt lat="40.071375" lon="-105.2297889">
  <ele>1583.02</ele>
  <time>2026-08-28T17:53:59Z</time>
  <course>247.08</course>
  <speed>0.022360679774997897</speed>
  <fix>3d</fix>
</trkpt>
<trkpt lat="40.0713749" lon="-105.229789">
  <ele>1583.0</ele>
  <time>2026-08-28T17:53:59Z</time>
  <course>0.0</course>
  <speed>0.0</speed>
  <fix>3d</fix>
</trkpt>
<trkpt lat="40.071375" lon="-105.2297889">
  <ele>1583.02</ele>
  <time>2026-08-28T17:53:59Z</time>
  <course>247.08</course>
  <speed>0.022360679774997897</speed>
  <fix>3d</fix>
</trkpt>
<trkpt lat="40.0713749" lon="-105.229789">
  <ele>1583.0</ele>
  <time>2026-08-28T17:53:59Z</time>
  <course>0.0</course>
  <speed>0.0</speed>
  <fix>3d</fix>
</trkpt>
<trkpt lat="40.0713751" lon="-105.2297889">
  <ele>1583.02</ele>
  <time>2026-08-28T17:53:59Z</time>
  <course>247.08</course>
  <speed>0.022360679774997897</speed>
  <fix>3d</fix>
</trkpt>
<trkpt lat="40.0713749" lon="-105.229789">
  <ele>1583.0</ele>
  <time>2026-08-28T17:53:59Z</time>
  <course>0.0</course>
  <speed>0.0</speed>
  <fix>3d</fix>
</trkpt>
<trkpt lat="40.071375" lon="-105.2297889">
  <ele>1583.02</ele>
  <time>2026-08-28T17:53:59Z</time>
  <course>247.08</course>
  <speed>0.022360679774997897</speed>
  <fix>3d</fix>
</trkpt>
<trkpt lat="40.0713749" lon="-105.229789">
  <ele>1583.0</ele>
  <time>2026-08-28T17:53:59Z</time>
  <course>0.0</course>
  <speed>0.0</speed>
  <fix>3d</fix>
</trkpt>
<trkpt lat="40.0713751" lon="-105.2297889">
  <ele>1583.02</ele>
  <time>2026-08-28T17:53:59Z</time>
  <course>247.08</course>
  <speed>0.022360679774997897</speed>
  <fix>3d</fix>
</trkpt>
<trkpt lat="40.0713749" lon="-105.229789">
  <ele>1583.0</ele>
  <time>2026-08-28T17:53:59Z</time>
  <course>0.0</course>
  <speed>0.0</speed>
  <fix>3d</fix>
</trkpt>
<trkpt lat="40.071375" lon="-105.2297889">
  <ele>1583.02</ele>
  <time>2026-08-28T17:53:59Z</time>
  <course>247.08</course>
  <speed>0.022360679774997897</speed>
  <fix>3d</fix>
</trkpt>
<trkpt lat="40.0713749" lon="-105.229789">
  <ele>1583.0</ele>
  <time>2026-08-28T17:53:59Z</time>
  <course>0.0</course>
  <speed>0.0</speed>
  <fix>3d</fix>
</trkpt>
<trkpt lat="40.0713751" lon="-105.2297889">
  <ele>1583.02</ele>
  <time>2026-08-28T17:53:59Z</time>
  <course>247.08</course>
  <speed>0.022360679774997897</speed>
  <fix>3d</fix>
</trkpt>
<trkpt lat="40.0713749" lon="-105.229789">
  <ele>1583.0</ele>
  <time>2026-08-28T17:53:59Z</time>
  <course>0.0</course>
  <speed>0.0</speed>
  <fix>3d</fix>
</trkpt>
<trkpt lat="40.071375" lon="-105.2297889">
  <ele>1583.02</ele>
  <time>2026-08-28T17:53:59Z</time>
  <course>247.08</course>
  <speed>0.022360679774997897</speed>
  <fix>3d</fix>
</trkpt>
<trkpt lat="40.0713749" lon="-105.229789">
  <ele>1583.0</ele>
  <time>2026-08-28T17:53:59Z</time>
  <course>0.0</course>
  <speed>0.0</speed>
  <fix>3d</fix>
</trkpt>
<trkpt lat="40.0713751" lon="-105.2297889">
  <ele>1583.02</ele>
  <time>2026-08-28T17:53:59Z</time>
  <course>247.08</course>
  <speed>0.022360679774997897</speed>
  <fix>3d</fix>
</trkpt>
<trkpt lat="40.0713749" lon="-105.229789">
  <ele>1583.0</ele>
  <time>2026-08-28T17:53:59Z</time>
  <course>0.0</course>
  <speed>0.0</speed>
  <fix>3d</fix>
</trkpt>
<trkpt lat="40.071375" lon="-105.2297889">
  <ele>1583.02</ele>
  <time>2026-08-28T17:53:59Z</time>
  <course>247.08</course>
  <speed>0.022360679774997897</speed>
  <fix>3d</fix>
</trkpt>
<trkpt lat="40.0713749" lon="-105.229789">
  <ele>1583.0</ele>
  <time>2026-08-28T17:53:59Z</time>
  <course>0.0</course>
  <speed>0.0</speed>
  <fix>3d</fix>
</trkpt>
<trkpt lat="40.0713751" lon="-105.2297889">
  <ele>1583.02</ele>
  <time>2026-08-28T17:53:59Z</time>
  <course>247.08</course>
  <speed>0.022360679774997897</speed>
  <fix>3d</fix>
</trkpt>
<trkpt lat="40.0713749" lon="-105.229789">
  <ele>1583.0</ele>
  <time>2026-08-28T17:53:59Z</time>
  <course>0.0</course>
  <speed>0.0</speed>
  <fix>3d</fix>
</trkpt>
<trkpt lat="40.071375" lon="-105.2297889">
  <ele>1583.02</ele>
  <time>2026-08-28T17:53:59Z</time>
  <course>247.08</course>
  <speed>0.022360679774997897</speed>
  <fix>3d</fix>
</trkpt>
<trkpt lat="40.0713749" lon="-105.229789">
  <ele>1583.0</ele>
  <time>2026-08-28T17:53:59Z</time>
  <course>0.0</course>
  <speed>0.0</speed>
  <fix>3d</fix>
</trkpt>
<trkpt lat="40.0713751" lon="-105.2297889">
  <ele>1583.02</ele>
  <time>2026-08-28T17:53:59Z</time>
  <course>247.08</course>
  <speed>0.022360679774997897</speed>
  <fix>3d</fix>
</trkpt>
<trkpt lat="40.0713749" lon="-105.229789">
  <ele>1583.0</ele>
  <time>2026-08-28T17:53:59Z</time>
  <course>0.0</course>
  <speed>0.0</speed>
  <fix>3d</fix>
</trkpt>
<trkpt lat="40.0713751" lon="-105.2297889">
  <ele>1583.02</ele>
  <time>2026-08-28T17:53:59Z</time>
  <course>247.08</course>
  <speed>0.022360679774997897</speed>
  <fix>3d</fix>
</trkpt>
<trkpt lat="40.0713749" lon="-105.229789">
  <ele>1583.0</ele>
  <time>2026-08-28T17:53:59Z</time>
  <course>0.0</course>
  <speed>0.0</speed>
  <fix>3d</fix>
</trkpt>
<trkpt lat="40.0713751" lon="-105.2297889">
  <ele>1583.02</ele>
  <time>2026-08-28T17:53:59Z</time>
  <course>247.08</course>
  <speed>0.022360679774997897</speed>
  <fix>3d</fix>
</trkpt>
<trkpt lat="40.0713749" lon="-105.229789">
  <ele>1583.0</ele>
  <time>2026-08-28T17:53:59Z</time>
  <course>0.0</course>
  <speed>0.0</speed>
  <fix>3d</fix>
</trkpt>
<trkpt lat="40.071375" lon="-105.2297889">
  <ele>1583.02</ele>
  <time>2026-08-28T17:53:59Z</time>
  <course>247.08</course>
  <speed>0.02</speed>
  <fix>3d</fix>
</trkpt>
<trkpt lat="40.0713749" lon="-105.229789">
  <ele>1583.0</ele>
  <time>2026-08-28T17:53:59Z</time>
  <course>0.0</course>
  <speed>0.0</speed>
  <fix>3d</fix>
</trkpt>
<trkpt lat="40.0713751" lon="-105.2297889">
  <ele>1583.02</ele>
  <time>2026-08-28T17:53:59Z</time>
  <course>247.08</course>
  <speed>0.022360679774997897</speed>
  <fix>3d</fix>
</trkpt>
<trkpt lat="40.0713749" lon="-105.229789">
  <ele>1583.0</ele>
  <time>2026-08-28T17:53:59Z</time>
  <course>0.0</course>
  <speed>0.0</speed>
  <fix>3d</fix>
</trkpt>
<trkpt lat="40.071375" lon="-105.2297889">
  <ele>1583.02</ele>
  <time>2026-08-28T17:53:59Z</time>
  <course>247.08</course>
  <speed>0.02</speed>
  <fix>3d</fix>
</trkpt>
<trkpt lat="40.0713749" lon="-105.229789">
  <ele>1583.0</ele>
  <time>2026-08-28T17:53:59Z</time>
  <course>0.0</course>
  <speed>0.0</speed>
  <fix>3d</fix>
</trkpt>
<trkpt lat="40.0713751" lon="-105.2297889">
  <ele>1583.02</ele>
  <time>2026-08-28T17:53:59Z</time>
  <course>247.08</course>
  <speed>0.02</speed>
  <fix>3d</fix>
</trkpt>
<trkpt lat="40.0713749" lon="-105.229789">
  <ele>1583.0</ele>
  <time>2026-08-28T17:53:59Z</time>
  <course>0.0</course>
  <speed>0.0</speed>
  <fix>3d</fix>
</trkpt>
<trkpt lat="40.071375" lon="-105.2297889">
  <ele>1583.01</ele>
  <time>2026-08-28T17:53:59Z</time>
  <course>247.08</course>
  <speed>0.02</speed>
  <fix>3d</fix>
</trkpt>
<trkpt lat="40.0713749" lon="-105.229789">
  <ele>1583.0</ele>
  <time>2026-08-28T17:53:59Z</time>
  <course>0.0</course>
  <speed>0.0</speed>
  <fix>3d</fix>
</trkpt>
<trkpt lat="40.0713751" lon="-105.2297889">
  <ele>1583.01</ele>
  <time>2026-08-28T17:53:59Z</time>
  <course>247.08</course>
  <speed>0.02</speed>
  <fix>3d</fix>
</trkpt>
<trkpt lat="40.0713749" lon="-105.229789">
  <ele>1583.0</ele>
  <time>2026-08-28T17:53:59Z</time>
  <course>0.0</course>
  <speed>0.0</speed>
  <fix>3d</fix>
</trkpt>
<trkpt lat="40.071375" lon="-105.2297889">
  <ele>1583.01</ele>
  <time>2026-08-28T17:53:59Z</time>
  <course>247.08</course>
  <speed>0.02</speed>
  <fix>3d</fix>
</trkpt>
<trkpt lat="40.0713749" lon="-105.229789">
  <ele>1583.0</ele>
  <time>2026-08-28T17:53:59Z</time>
  <course>0.0</course>
  <speed>0.0</speed>
  <fix>3d</fix>
</trkpt>
<trkpt lat="40.0713751" lon="-105.2297889">
  <ele>1583.01</ele>
  <time>2026-08-28T17:53:59Z</time>
  <course>247.08</course>
  <speed>0.02</speed>
  <fix>3d</fix>
</trkpt>
<trkpt lat="40.0713749" lon="-105.229789">
  <ele>1583.0</ele>
  <time>2026-08-28T17:53:59Z</time>
  <course>0.0</course>
  <speed>0.0</speed>
  <fix>3d</fix>
</trkpt>
<trkpt lat="40.071375" lon="-105.2297889">
  <ele>1583.01</ele>
  <time>2026-08-28T17:53:59Z</time>
  <course>247.08</course>
  <speed>0.02</speed>
  <fix>3d</fix>
</trkpt>
<trkpt lat="40.0713749" lon="-105.229789">
  <ele>1583.0</ele>
  <time>2026-08-28T17:53:59Z</time>
  <course>0.0</course>
  <speed>0.0</speed>
  <fix>3d</fix>
</trkpt>
<trkpt lat="40.0713751" lon="-105.2297889">
  <ele>1583.01</ele>
  <time>2026-08-28T17:53:59Z</time>
  <course>247.08</course>
  <speed>0.02</speed>
  <fix>3d</fix>
</trkpt>
<trkpt lat="40.0713749" lon="-105.229789">
  <ele>1583.0</ele>
  <time>2026-08-28T17:53:59Z</time>
  <course>0.0</course>
  <speed>0.0</speed>
  <fix>3d</fix>
</trkpt>
<trkpt lat="40.071375" lon="-105.2297889">
  <ele>1583.01</ele>
  <time>2026-08-28T17:53:59Z</time>
  <course>247.08</course>
  <speed>0.02</speed>
  <fix>3d</fix>
</trkpt>
<trkpt lat="40.0713749" lon="-105.229789">
  <ele>1583.0</ele>
  <time>2026-08-28T17:53:59Z</time>
  <course>0.0</course>
  <speed>0.0</speed>
  <fix>3d</fix>
</trkpt>
<trkpt lat="40.0713751" lon="-105.2297889">
  <ele>1583.02</ele>
  <time>2026-08-28T17:53:59Z</time>
  <course>247.08</course>
  <speed>0.02</speed>
  <fix>3d</fix>
</trkpt>
<trkpt lat="40.0713749" lon="-105.229789">
  <ele>1583.0</ele>
  <time>2026-08-28T17:53:59Z</time>
  <course>0.0</course>
  <speed>0.0</speed>
  <fix>3d</fix>
</trkpt>
<trkpt lat="40.071375" lon="-105.2297889">
  <ele>1583.01</ele>
  <time>2026-08-28T17:53:59Z</time>
  <course>247.08</course>
  <speed>0.02</speed>
  <fix>3d</fix>
</trkpt>
<trkpt lat="40.0713749" lon="-105.229789">
  <ele>1583.0</ele>
  <time>2026-08-28T17:53:59Z</time>
  <course>0.0</course>
  <speed>0.0</speed>
  <fix>3d</fix>
</trkpt>
<trkpt lat="40.0713751" lon="-105.2297889">
  <ele>1583.01</ele>
  <time>2026-08-28T17:53:59Z</time>
  <course>247.08</course>
  <speed>0.02</speed>
  <fix>3d</fix>
</trkpt>
<trkpt lat="40.0713749" lon="-105.229789">
  <ele>1583.0</ele>
  <time>2026-08-28T17:53:59Z</time>
  <course>0.0</course>
  <speed>0.0</speed>
  <fix>3d</fix>
</trkpt>
<trkpt lat="40.0713751" lon="-105.2297889">
  <ele>1583.01</ele>
  <time>2026-08-28T17:53:59Z</time>
  <course>247.08</course>
  <speed>0.02</speed>
  <fix>3d</fix>
</trkpt>
<trkpt lat="40.0713749" lon="-105.229789">
  <ele>1583.0</ele>
  <time>2026-08-28T17:53:59Z</time>
  <course>0.0</course>
  <speed>0.0</speed>
  <fix>3d</fix>
</trkpt>
<trkpt lat="40.0713751" lon="-105.2297889">
  <ele>1583.01</ele>
  <time>2026-08-28T17:53:59Z</time>
  <course>247.08</course>
  <speed>0.022360679774997897</speed>
  <fix>3d</fix>
</trkpt>
<trkpt lat="40.0713749" lon="-105.229789">
  <ele>1583.0</ele>
  <time>2026-08-28T17:53:59Z</time>
  <course>0.0</course>
  <speed>0.0</speed>
  <fix>3d</fix>
</trkpt>
<trkpt lat="40.0713751" lon="-105.2297889">
  <ele>1583.01</ele>
  <time>2026-08-28T17:53:59Z</time>
  <course>247.08</course>
  <speed>0.02</speed>
  <fix>3d</fix>
</trkpt>
<trkpt lat="40.0713749" lon="-105.229789">
  <ele>1583.0</ele>
  <time>2026-08-28T17:53:59Z</time>
  <course>0.0</course>
  <speed>0.0</speed>
  <fix>3d</fix>
</trkpt>
<trkpt lat="40.0713751" lon="-105.2297889">
  <ele>1583.01</ele>
  <time>2026-08-28T17:53:59Z</time>
  <course>247.08</course>
  <speed>0.022360679774997897</speed>
  <fix>3d</fix>
</trkpt>
<trkpt lat="40.0713749" lon="-105.229789">
  <ele>1583.0</ele>
  <time>2026-08-28T17:53:59Z</time>
  <course>0.0</course>
  <speed>0.0</speed>
  <fix>3d</fix>
</trkpt>
<trkpt lat="40.0713751" lon="-105.2297889">
  <ele>1583.01</ele>
  <time>2026-08-28T17:53:59Z</time>
  <course>247.08</course>
  <speed>0.02</speed>
  <fix>3d</fix>
</trkpt>
<trkpt lat="40.0713749" lon="-105.229789">
  <ele>1583.0</ele>
  <time>2026-08-28T17:53:59Z</time>
  <course>0.0</course>
  <speed>0.0</speed>
  <fix>3d</fix>
</trkpt>
<trkpt lat="40.0713751" lon="-105.2297889">
  <ele>1583.01</ele>
  <time>2026-08-28T17:53:59Z</time>
  <course>247.08</course>
  <speed>0.022360679774997897</speed>
  <fix>3d</fix>
</trkpt>
<trkpt lat="40.0713749" lon="-105.229789">
  <ele>1583.0</ele>
  <time>2026-08-28T17:53:59Z</time>
  <course>0.0</course>
  <speed>0.0</speed>
  <fix>3d</fix>
</trkpt>
<trkpt lat="40.0713751" lon="-105.2297889">
  <ele>1583.01</ele>
  <time>2026-08-28T17:53:59Z</time>
  <course>247.08</course>
  <speed>0.02</speed>
  <fix>3d</fix>
</trkpt>
<trkpt lat="40.0713749" lon="-105.229789">
  <ele>1583.0</ele>
  <time>2026-08-28T17:53:59Z</time>
  <course>0.0</course>
  <speed>0.0</speed>
  <fix>3d</fix>
</trkpt>
<trkpt lat="40.0713751" lon="-105.2297889">
  <ele>1583.01</ele>
  <time>2026-08-28T17:53:59Z</time>
  <course>247.08</course>
  <speed>0.022360679774997897</speed>
  <fix>3d</fix>
</trkpt>
<trkpt lat="40.0713749" lon="-105.229789">
  <ele>1583.0</ele>
  <time>2026-08-28T17:53:59Z</time>
  <course>0.0</course>
  <speed>0.0</speed>
  <fix>3d</fix>
</trkpt>
<trkpt lat="40.071375" lon="-105.2297889">
  <ele>1583.0</ele>
  <time>2026-08-28T17:53:59Z</time>
  <course>247.08</course>
  <speed>0.02</speed>
  <fix>3d</fix>
</trkpt>
<trkpt lat="40.0713749" lon="-105.229789">
  <ele>1583.0</ele>
  <time>2026-08-28T17:53:59Z</time>
  <course>0.0</course>
  <speed>0.0</speed>
  <fix>3d</fix>
</trkpt>
<trkpt lat="40.0713751" lon="-105.2297889">
  <ele>1583.0</ele>
  <time>2026-08-28T17:53:59Z</time>
  <course>247.08</course>
  <speed>0.022360679774997897</speed>
  <fix>3d</fix>
</trkpt>
<trkpt lat="40.0713749" lon="-105.229789">
  <ele>1583.0</ele>
  <time>2026-08-28T17:53:59Z</time>
  <course>0.0</course>
  <speed>0.0</speed>
  <fix>3d</fix>
</trkpt>
<trkpt lat="40.071375" lon="-105.2297889">
  <ele>1583.0</ele>
  <time>2026-08-28T17:53:59Z</time>
  <course>247.08</course>
  <speed>0.02</speed>
  <fix>3d</fix>
</trkpt>
<trkpt lat="40.0713749" lon="-105.229789">
  <ele>1583.0</ele>
  <time>2026-08-28T17:53:59Z</time>
  <course>0.0</course>
  <speed>0.0</speed>
  <fix>3d</fix>
</trkpt>
<trkpt lat="40.0713751" lon="-105.2297889">
  <ele>1583.01</ele>
  <time>2026-08-28T17:53:59Z</time>
  <course>247.08</course>
  <speed>0.022360679774997897</speed>
  <fix>3d</fix>
</trkpt>
<trkpt lat="40.0713749" lon="-105.229789">
  <ele>1583.0</ele>
  <time>2026-08-28T17:53:59Z</time>
  <course>0.0</course>
  <speed>0.0</speed>
  <fix>3d</fix>
</trkpt>
<trkpt lat="40.071375" lon="-105.2297889">
  <ele>1583.01</ele>
  <time>2026-08-28T17:53:59Z</time>
  <course>247.08</course>
  <speed>0.02</speed>
  <fix>3d</fix>
</trkpt>
<trkpt lat="40.0713749" lon="-105.229789">
  <ele>1583.0</ele>
  <time>2026-08-28T17:53:59Z</time>
  <course>0.0</course>
  <speed>0.0</speed>
  <fix>3d</fix>
</trkpt>
<trkpt lat="40.0713751" lon="-105.2297889">
  <ele>1583.01</ele>
  <time>2026-08-28T17:53:59Z</time>
  <course>247.08</course>
  <speed>0.022360679774997897</speed>
  <fix>3d</fix>
</trkpt>
<trkpt lat="40.0713749" lon="-105.229789">
  <ele>1583.0</ele>
  <time>2026-08-28T17:53:59Z</time>
  <course>0.0</course>
  <speed>0.0</speed>
  <fix>3d</fix>
</trkpt>
<trkpt lat="40.071375" lon="-105.2297889">
  <ele>1583.01</ele>
  <time>2026-08-28T17:53:59Z</time>
  <course>247.08</course>
  <speed>0.02</speed>
  <fix>3d</fix>
</trkpt>
<trkpt lat="40.0713749" lon="-105.229789">
  <ele>1583.0</ele>
  <time>2026-08-28T17:53:59Z</time>
  <course>0.0</course>
  <speed>0.0</speed>
  <fix>3d</fix>
</trkpt>
<trkpt lat="40.0713751" lon="-105.2297889">
  <ele>1583.01</ele>
  <time>2026-08-28T17:53:59Z</time>
  <course>247.08</course>
  <speed>0.022360679774997897</speed>
  <fix>3d</fix>
</trkpt>
<trkpt lat="40.0713749" lon="-105.229789">
  <ele>1583.0</ele>
  <time>2026-08-28T17:53:59Z</time>
  <course>0.0</course>
  <speed>0.0</speed>
  <fix>3d</fix>
</trkpt>
<trkpt lat="40.071375" lon="-105.2297889">
  <ele>1583.01</ele>
  <time>2026-08-28T17:53:59Z</time>
  <course>247.08</course>
  <speed>0.02</speed>
  <fix>3d</fix>
</trkpt>
<trkpt lat="40.0713749" lon="-105.229789">
  <ele>1583.0</ele>
  <time>2026-08-28T17:53:59Z</time>
  <course>0.0</course>
  <speed>0.0</speed>
  <fix>3d</fix>
</trkpt>
<trkpt lat="40.0713751" lon="-105.2297889">
  <ele>1583.02</ele>
  <time>2026-08-28T17:53:59Z</time>
  <course>247.08</course>
  <speed>0.022360679774997897</speed>
  <fix>3d</fix>
</trkpt>
<trkpt lat="40.0713749" lon="-105.229789">
  <ele>1583.0</ele>
  <time>2026-08-28T17:53:59Z</time>
  <course>0.0</course>
  <speed>0.0</speed>
  <fix>3d</fix>
</trkpt>
<trkpt lat="40.071375" lon="-105.2297889">
  <ele>1583.02</ele>
  <time>2026-08-28T17:53:59Z</time>
  <course>247.08</course>
  <speed>0.022360679774997897</speed>
  <fix>3d</fix>
</trkpt>
<trkpt lat="40.0713749" lon="-105.229789">
  <ele>1583.0</ele>
  <time>2026-08-28T17:53:59Z</time>
  <course>0.0</course>
  <speed>0.0</speed>
  <fix>3d</fix>
</trkpt>
<trkpt lat="40.0713751" lon="-105.2297889">
  <ele>1583.01</ele>
  <time>2026-08-28T17:53:59Z</time>
  <course>247.08</course>
  <speed>0.022360679774997897</speed>
  <fix>3d</fix>
</trkpt>
<trkpt lat="40.0713749" lon="-105.229789">
  <ele>1583.0</ele>
  <time>2026-08-28T17:53:59Z</time>
  <course>0.0</course>
  <speed>0.0</speed>
  <fix>3d</fix>
</trkpt>
<trkpt lat="40.071375" lon="-105.2297889">
  <ele>1583.02</ele>
  <time>2026-08-28T17:53:59Z</time>
  <course>247.08</course>
  <speed>0.022360679774997897</speed>
  <fix>3d</fix>
</trkpt>
<trkpt lat="40.0713749" lon="-105.229789">
  <ele>1583.0</ele>
  <time>2026-08-28T17:53:59Z</time>
  <course>0.0</course>
  <speed>0.0</speed>
  <fix>3d</fix>
</trkpt>
<trkpt lat="40.0713751" lon="-105.2297889">
  <ele>1583.02</ele>
  <time>2026-08-28T17:53:59Z</time>
  <course>247.08</course>
  <speed>0.022360679774997897</speed>
  <fix>3d</fix>
</trkpt>
<trkpt lat="40.0713749" lon="-105.229789">
  <ele>1583.0</ele>
  <time>2026-08-28T17:53:59Z</time>
  <course>0.0</course>
  <speed>0.0</speed>
  <fix>3d</fix>
</trkpt>
<trkpt lat="40.0713751" lon="-105.2297889">
  <ele>1583.02</ele>
  <time>2026-08-28T17:53:59Z</time>
  <course>247.08</course>
  <speed>0.022360679774997897</speed>
  <fix>3d</fix>
</trkpt>
<trkpt lat="40.0713749" lon="-105.229789">
  <ele>1583.0</ele>
  <time>2026-08-28T17:53:59Z</time>
  <course>0.0</course>
  <speed>0.0</speed>
  <fix>3d</fix>
</trkpt>
<trkpt lat="40.0713751" lon="-105.2297889">
  <ele>1583.02</ele>
  <time>2026-08-28T17:53:59Z</time>
  <course>247.08</course>
  <speed>0.022360679774997897</speed>
  <fix>3d</fix>
</trkpt>
<trkpt lat="40.0713749" lon="-105.229789">
  <ele>1583.0</ele>
  <time>2026-08-28T17:53:59Z</time>
  <course>0.0</course>
  <speed>0.0</speed>
  <fix>3d</fix>
</trkpt>
<trkpt lat="40.0713751" lon="-105.2297889">
  <ele>1583.03</ele>
  <time>2026-08-28T17:53:59Z</time>
  <course>247.08</course>
  <speed>0.022360679774997897</speed>
  <fix>3d</fix>
</trkpt>
<trkpt lat="40.0713749" lon="-105.229789">
  <ele>1583.0</ele>
  <time>2026-08-28T17:53:59Z</time>
  <course>0.0</course>
  <speed>0.0</speed>
  <fix>3d</fix>
</trkpt>
<trkpt lat="40.0713751" lon="-105.2297889">
  <ele>1583.03</ele>
  <time>2026-08-28T17:53:59Z</time>
  <course>247.08</course>
  <speed>0.022360679774997897</speed>
  <fix>3d</fix>
</trkpt>
<trkpt lat="40.0713749" lon="-105.229789">
  <ele>1583.0</ele>
  <time>2026-08-28T17:53:59Z</time>
  <course>0.0</course>
  <speed>0.0</speed>
  <fix>3d</fix>
</trkpt>
<trkpt lat="40.0713751" lon="-105.2297889">
  <ele>1583.03</ele>
  <time>2026-08-28T17:53:59Z</time>
  <course>247.08</course>
  <speed>0.022360679774997897</speed>
  <fix>3d</fix>
</trkpt>
<trkpt lat="40.0713749" lon="-105.229789">
  <ele>1583.0</ele>
  <time>2026-08-28T17:53:59Z</time>
  <course>0.0</course>
  <speed>0.0</speed>
  <fix>3d</fix>
</trkpt>
<trkpt lat="40.0713751" lon="-105.2297889">
  <ele>1583.03</ele>
  <time>2026-08-28T17:53:59Z</time>
  <course>247.08</course>
  <speed>0.022360679774997897</speed>
  <fix>3d</fix>
</trkpt>
<trkpt lat="40.0713749" lon="-105.229789">
  <ele>1583.0</ele>
  <time>2026-08-28T17:53:59Z</time>
  <course>0.0</course>
  <speed>0.0</speed>
  <fix>3d</fix>
</trkpt>
<trkpt lat="40.071375" lon="-105.2297889">
  <ele>1583.03</ele>
  <time>2026-08-28T17:53:59Z</time>
  <course>247.08</course>
  <speed>0.022360679774997897</speed>
  <fix>3d</fix>
</trkpt>
<trkpt lat="40.0713749" lon="-105.229789">
  <ele>1583.0</ele>
  <time>2026-08-28T17:53:59Z</time>
  <course>0.0</course>
  <speed>0.0</speed>
  <fix>3d</fix>
</trkpt>
<trkpt lat="40.0713751" lon="-105.2297889">
  <ele>1583.03</ele>
  <time>2026-08-28T17:53:59Z</time>
  <course>247.08</course>
  <speed>0.022360679774997897</speed>
  <fix>3d</fix>
</trkpt>
<trkpt lat="40.0713749" lon="-105.229789">
  <ele>1583.0</ele>
  <time>2026-08-28T17:53:59Z</time>
  <course>0.0</course>
  <speed>0.0</speed>
  <fix>3d</fix>
</trkpt>
<trkpt lat="40.071375" lon="-105.2297889">
  <ele>1583.03</ele>
  <time>2026-08-28T17:53:59Z</time>
  <course>247.08</course>
  <speed>0.022360679774997897</speed>
  <fix>3d</fix>
</trkpt>
<trkpt lat="40.0713749" lon="-105.229789">
  <ele>1583.0</ele>
  <time>2026-08-28T17:53:59Z</time>
  <course>0.0</course>
  <speed>0.0</speed>
  <fix>3d</fix>
</trkpt>
<trkpt lat="40.0713751" lon="-105.2297889">
  <ele>1583.03</ele>
  <time>2026-08-28T17:53:59Z</time>
  <course>247.08</course>
  <speed>0.022360679774997897</speed>
  <fix>3d</fix>
</trkpt>
<trkpt lat="40.0713749" lon="-105.229789">
  <ele>1583.0</ele>
  <time>2026-08-28T17:53:59Z</time>
  <course>0.0</course>
  <speed>0.0</speed>
  <fix>3d</fix>
</trkpt>
<trkpt lat="40.071375" lon="-105.2297889">
  <ele>1583.03</ele>
  <time>2026-08-28T17:53:59Z</time>
  <course>247.08</course>
  <speed>0.022360679774997897</speed>
  <fix>3d</fix>
</trkpt>
<trkpt lat="40.0713749" lon="-105.229789">
  <ele>1583.0</ele>
  <time>2026-08-28T17:53:59Z</time>
  <course>0.0</course>
  <speed>0.0</speed>
  <fix>3d</fix>
</trkpt>
<trkpt lat="40.0713751" lon="-105.2297889">
  <ele>1583.03</ele>
  <time>2026-08-28T17:53:59Z</time>
  <course>247.08</course>
  <speed>0.022360679774997897</speed>
  <fix>3d</fix>
</trkpt>
<trkpt lat="40.0713749" lon="-105.229789">
  <ele>1583.0</ele>
  <time>2026-08-28T17:53:59Z</time>
  <course>0.0</course>
  <speed>0.0</speed>
  <fix>3d</fix>
</trkpt>
<trkpt lat="40.071375" lon="-105.2297889">
  <ele>1583.03</ele>
  <time>2026-08-28T17:53:59Z</time>
  <course>247.08</course>
  <speed>0.022360679774997897</speed>
  <fix>3d</fix>
</trkpt>
<trkpt lat="40.0713749" lon="-105.229789">
  <ele>1583.0</ele>
  <time>2026-08-28T17:53:59Z</time>
  <course>0.0</course>
  <speed>0.0</speed>
  <fix>3d</fix>
</trkpt>
<trkpt lat="40.0713751" lon="-105.2297889">
  <ele>1583.03</ele>
  <time>2026-08-28T17:53:59Z</time>
  <course>247.08</course>
  <speed>0.022360679774997897</speed>
  <fix>3d</fix>
</trkpt>
<trkpt lat="40.0713749" lon="-105.229789">
  <ele>1583.0</ele>
  <time>2026-08-28T17:53:59Z</time>
  <course>0.0</course>
  <speed>0.0</speed>
  <fix>3d</fix>
</trkpt>
<trkpt lat="40.071375" lon="-105.2297889">
  <ele>1583.03</ele>
  <time>2026-08-28T17:53:59Z</time>
  <course>247.08</course>
  <speed>0.022360679774997897</speed>
  <fix>3d</fix>
</trkpt>
<trkpt lat="40.0713749" lon="-105.229789">
  <ele>1583.0</ele>
  <time>2026-08-28T17:53:59Z</time>
  <course>0.0</course>
  <speed>0.0</speed>
  <fix>3d</fix>
</trkpt>
<trkpt lat="40.0713751" lon="-105.2297889">
  <ele>1583.03</ele>
  <time>2026-08-28T17:53:59Z</time>
  <course>247.08</course>
  <speed>0.022360679774997897</speed>
  <fix>3d</fix>
</trkpt>
<trkpt lat="40.0713749" lon="-105.229789">
  <ele>1583.0</ele>
  <time>2026-08-28T17:53:59Z</time>
  <course>0.0</course>
  <speed>0.0</speed>
  <fix>3d</fix>
</trkpt>
<trkpt lat="40.071375" lon="-105.2297889">
  <ele>1583.03</ele>
  <time>2026-08-28T17:53:59Z</time>
  <course>247.08</course>
  <speed>0.022360679774997897</speed>
  <fix>3d</fix>
</trkpt>
<trkpt lat="40.0713749" lon="-105.229789">
  <ele>1583.0</ele>
  <time>2026-08-28T17:53:59Z</time>
  <course>0.0</course>
  <speed>0.0</speed>
  <fix>3d</fix>
</trkpt>
<trkpt lat="40.0713751" lon="-105.2297889">
  <ele>1583.03</ele>
  <time>2026-08-28T17:53:59Z</time>
  <course>247.08</course>
  <speed>0.022360679774997897</speed>
  <fix>3d</fix>
</trkpt>
<trkpt lat="40.0713749" lon="-105.229789">
  <ele>1583.0</ele>
  <time>2026-08-28T17:53:59Z</time>
  <course>0.0</course>
  <speed>0.0</speed>
  <fix>3d</fix>
</trkpt>
<trkpt lat="40.071375" lon="-105.2297889">
  <ele>1583.03</ele>
  <time>2026-08-28T17:53:59Z</time>
  <course>247.08</course>
  <speed>0.022360679774997897</speed>
  <fix>3d</fix>
</trkpt>
<trkpt lat="40.0713749" lon="-105.229789">
  <ele>1583.0</ele>
  <time>2026-08-28T17:53:59Z</time>
  <course>0.0</course>
  <speed>0.0</speed>
  <fix>3d</fix>
</trkpt>
<trkpt lat="40.0713751" lon="-105.2297889">
  <ele>1583.03</ele>
  <time>2026-08-28T17:53:59Z</time>
  <course>247.08</course>
  <speed>0.022360679774997897</speed>
  <fix>3d</fix>
</trkpt>
<trkpt lat="40.0713749" lon="-105.229789">
  <ele>1583.0</ele>
  <time>2026-08-28T17:53:59Z</time>
  <course>0.0</course>
  <speed>0.0</speed>
  <fix>3d</fix>
</trkpt>
<trkpt lat="40.0713751" lon="-105.2297889">
  <ele>1583.03</ele>
  <time>2026-08-28T17:53:59Z</time>
  <course>247.08</course>
  <speed>0.022360679774997897</speed>
  <fix>3d</fix>
</trkpt>
<trkpt lat="40.0713749" lon="-105.229789">
  <ele>1583.0</ele>
  <time>2026-08-28T17:53:59Z</time>
  <course>0.0</course>
  <speed>0.0</speed>
  <fix>3d</fix>
</trkpt>
<trkpt lat="40.0713751" lon="-105.2297889">
  <ele>1583.03</ele>
  <time>2026-08-28T17:53:59Z</time>
  <course>247.08</course>
  <speed>0.022360679774997897</speed>
  <fix>3d</fix>
</trkpt>
<trkpt lat="40.0713749" lon="-105.229789">
  <ele>1583.0</ele>
  <time>2026-08-28T17:53:59Z</time>
  <course>0.0</course>
  <speed>0.0</speed>
  <fix>3d</fix>
</trkpt>
<trkpt lat="40.0713751" lon="-105.2297889">
  <ele>1583.03</ele>
  <time>2026-08-28T17:53:59Z</time>
  <course>247.08</course>
  <speed>0.022360679774997897</speed>
  <fix>3d</fix>
</trkpt>
<trkpt lat="40.0713749" lon="-105.229789">
  <ele>1583.0</ele>
  <time>2026-08-28T17:53:59Z</time>
  <course>0.0</course>
  <speed>0.0</speed>
  <fix>3d</fix>
</trkpt>
<trkpt lat="40.0713751" lon="-105.2297889">
  <ele>1583.04</ele>
  <time>2026-08-28T17:53:59Z</time>
  <course>247.08</course>
  <speed>0.022360679774997897</speed>
  <fix>3d</fix>
</trkpt>
<trkpt lat="40.0713749" lon="-105.229789">
  <ele>1583.0</ele>
  <time>2026-08-28T17:53:59Z</time>
  <course>0.0</course>
  <speed>0.0</speed>
  <fix>3d</fix>
</trkpt>
<trkpt lat="40.0713751" lon="-105.2297889">
  <ele>1583.04</ele>
  <time>2026-08-28T17:53:59Z</time>
  <course>247.08</course>
  <speed>0.022360679774997897</speed>
  <fix>3d</fix>
</trkpt>
<trkpt lat="40.0713749" lon="-105.229789">
  <ele>1583.0</ele>
  <time>2026-08-28T17:53:59Z</time>
  <course>0.0</course>
  <speed>0.0</speed>
  <fix>3d</fix>
</trkpt>
<trkpt lat="40.0713751" lon="-105.2297889">
  <ele>1583.04</ele>
  <time>2026-08-28T17:53:59Z</time>
  <course>247.08</course>
  <speed>0.022360679774997897</speed>
  <fix>3d</fix>
</trkpt>
<trkpt lat="40.0713749" lon="-105.229789">
  <ele>1583.0</ele>
  <time>2026-08-28T17:53:59Z</time>
  <course>0.0</course>
  <speed>0.0</speed>
  <fix>3d</fix>
</trkpt>
<trkpt lat="40.0713751" lon="-105.2297889">
  <ele>1583.04</ele>
  <time>2026-08-28T17:53:59Z</time>
  <course>247.08</course>
  <speed>0.022360679774997897</speed>
  <fix>3d</fix>
</trkpt>
<trkpt lat="40.0713749" lon="-105.229789">
  <ele>1583.0</ele>
  <time>2026-08-28T17:53:59Z</time>
  <course>0.0</course>
  <speed>0.0</speed>
  <fix>3d</fix>
</trkpt>
<trkpt lat="40.0713751" lon="-105.2297889">
  <ele>1583.04</ele>
  <time>2026-08-28T17:53:59Z</time>
  <course>247.08</course>
  <speed>0.022360679774997897</speed>
  <fix>3d</fix>
</trkpt>
<trkpt lat="40.0713749" lon="-105.229789">
  <ele>1583.0</ele>
  <time>2026-08-28T17:53:59Z</time>
  <course>0.0</course>
  <speed>0.0</speed>
  <fix>3d</fix>
</trkpt>
<trkpt lat="40.071375" lon="-105.2297889">
  <ele>1583.04</ele>
  <time>2026-08-28T17:53:59Z</time>
  <course>247.08</course>
  <speed>0.022360679774997897</speed>
  <fix>3d</fix>
</trkpt>
<trkpt lat="40.0713749" lon="-105.229789">
  <ele>1583.0</ele>
  <time>2026-08-28T17:53:59Z</time>
  <course>0.0</course>
  <speed>0.0</speed>
  <fix>3d</fix>
</trkpt>
<trkpt lat="40.0713751" lon="-105.2297889">
  <ele>1583.04</ele>
  <time>2026-08-28T17:53:59Z</time>
  <course>247.08</course>
  <speed>0.022360679774997897</speed>
  <fix>3d</fix>
</trkpt>
<trkpt lat="40.0713749" lon="-105.229789">
  <ele>1583.0</ele>
  <time>2026-08-28T17:53:59Z</time>
  <course>0.0</course>
  <speed>0.0</speed>
  <fix>3d</fix>
</trkpt>
<trkpt lat="40.071375" lon="-105.2297889">
  <ele>1583.03</ele>
  <time>2026-08-28T17:53:59Z</time>
  <course>247.08</course>
  <speed>0.022360679774997897</speed>
  <fix>3d</fix>
</trkpt>
<trkpt lat="40.0713749" lon="-105.229789">
  <ele>1583.0</ele>
  <time>2026-08-28T17:53:59Z</time>
  <course>0.0</course>
  <speed>0.0</speed>
  <fix>3d</fix>
</trkpt>
<trkpt lat="40.0713751" lon="-105.2297889">
  <ele>1583.03</ele>
  <time>2026-08-28T17:53:59Z</time>
  <course>247.08</course>
  <speed>0.022360679774997897</speed>
  <fix>3d</fix>
</trkpt>
<trkpt lat="40.0713749" lon="-105.229789">
  <ele>1583.0</ele>
  <time>2026-08-28T17:53:59Z</time>
  <course>0.0</course>
  <speed>0.0</speed>
  <fix>3d</fix>
</trkpt>
<trkpt lat="40.071375" lon="-105.2297889">
  <ele>1583.03</ele>
  <time>2026-08-28T17:53:59Z</time>
  <course>247.08</course>
  <speed>0.022360679774997897</speed>
  <fix>3d</fix>
</trkpt>
<trkpt lat="40.0713749" lon="-105.229789">
  <ele>1583.0</ele>
  <time>2026-08-28T17:53:59Z</time>
  <course>0.0</course>
  <speed>0.0</speed>
  <fix>3d</fix>
</trkpt>
<trkpt lat="40.0713751" lon="-105.2297889">
  <ele>1583.03</ele>
  <time>2026-08-28T17:53:59Z</time>
  <course>247.08</course>
  <speed>0.022360679774997897</speed>
  <fix>3d</fix>
</trkpt>
<trkpt lat="40.0713749" lon="-105.229789">
  <ele>1583.0</ele>
  <time>2026-08-28T17:53:59Z</time>
  <course>0.0</course>
  <speed>0.0</speed>
  <fix>3d</fix>
</trkpt>
<trkpt lat="40.071375" lon="-105.2297889">
  <ele>1583.02</ele>
  <time>2026-08-28T17:53:59Z</time>
  <course>247.08</course>
  <speed>0.022360679774997897</speed>
  <fix>3d</fix>
</trkpt>
<trkpt lat="40.0713749" lon="-105.229789">
  <ele>1583.0</ele>
  <time>2026-08-28T17:53:59Z</time>
  <course>0.0</course>
  <speed>0.0</speed>
  <fix>3d</fix>
</trkpt>
<trkpt lat="40.0713751" lon="-105.2297889">
  <ele>1583.02</ele>
  <time>2026-08-28T17:53:59Z</time>
  <course>247.08</course>
  <speed>0.022360679774997897</speed>
  <fix>3d</fix>
</trkpt>
<trkpt lat="40.0713749" lon="-105.229789">
  <ele>1583.0</ele>
  <time>2026-08-28T17:53:59Z</time>
  <course>0.0</course>
  <speed>0.0</speed>
  <fix>3d</fix>
</trkpt>
<trkpt lat="40.071375" lon="-105.2297889">
  <ele>1583.02</ele>
  <time>2026-08-28T17:53:59Z</time>
  <course>247.08</course>
  <speed>0.022360679774997897</speed>
  <fix>3d</fix>
</trkpt>
<trkpt lat="40.0713749" lon="-105.229789">
  <ele>1583.0</ele>
  <time>2026-08-28T17:53:59Z</time>
  <course>0.0</course>
  <speed>0.0</speed>
  <fix>3d</fix>
</trkpt>
<trkpt lat="40.0713751" lon="-105.2297889">
  <ele>1583.02</ele>
  <time>2026-08-28T17:53:59Z</time>
  <course>247.08</course>
  <speed>0.022360679774997897</speed>
  <fix>3d</fix>
</trkpt>
<trkpt lat="40.0713749" lon="-105.229789">
  <ele>1583.0</ele>
  <time>2026-08-28T17:53:59Z</time>
  <course>0.0</course>
  <speed>0.0</speed>
  <fix>3d</fix>
</trkpt>
<trkpt lat="40.071375" lon="-105.2297889">
  <ele>1583.01</ele>
  <time>2026-08-28T17:53:59Z</time>
  <course>247.07</course>
  <speed>0.022360679774997897</speed>
  <fix>3d</fix>
</trkpt>
<trkpt lat="40.0713749" lon="-105.229789">
  <ele>1583.0</ele>
  <time>2026-08-28T17:53:59Z</time>
  <course>0.0</course>
  <speed>0.0</speed>
  <fix>3d</fix>
</trkpt>
<trkpt lat="40.0713751" lon="-105.2297889">
  <ele>1583.01</ele>
  <time>2026-08-28T17:53:59Z</time>
  <course>247.07</course>
  <speed>0.022360679774997897</speed>
  <fix>3d</fix>
</trkpt>
<trkpt lat="40.0713749" lon="-105.229789">
  <ele>1583.0</ele>
  <time>2026-08-28T17:53:59Z</time>
  <course>0.0</course>
  <speed>0.0</speed>
  <fix>3d</fix>
</trkpt>
<trkpt lat="40.071375" lon="-105.2297889">
  <ele>1583.02</ele>
  <time>2026-08-28T17:53:59Z</time>
  <course>247.07</course>
  <speed>0.022360679774997897</speed>
  <fix>3d</fix>
</trkpt>
<trkpt lat="40.0713749" lon="-105.229789">
  <ele>1583.0</ele>
  <time>2026-08-28T17:53:59Z</time>
  <course>0.0</course>
  <speed>0.0</speed>
  <fix>3d</fix>
</trkpt>
<trkpt lat="40.0713751" lon="-105.2297889">
  <ele>1583.02</ele>
  <time>2026-08-28T17:53:59Z</time>
  <course>247.07</course>
  <speed>0.022360679774997897</speed>
  <fix>3d</fix>
</trkpt>
<trkpt lat="40.0713749" lon="-105.229789">
  <ele>1583.0</ele>
  <time>2026-08-28T17:53:59Z</time>
  <course>0.0</course>
  <speed>0.0</speed>
  <fix>3d</fix>
</trkpt>
<trkpt lat="40.0713751" lon="-105.2297889">
  <ele>1583.02</ele>
  <time>2026-08-28T17:53:59Z</time>
  <course>247.07</course>
  <speed>0.022360679774997897</speed>
  <fix>3d</fix>
</trkpt>
<trkpt lat="40.0713749" lon="-105.229789">
  <ele>1583.0</ele>
  <time>2026-08-28T17:53:59Z</time>
  <course>0.0</course>
  <speed>0.0</speed>
  <fix>3d</fix>
</trkpt>
<trkpt lat="40.0713751" lon="-105.2297889">
  <ele>1583.02</ele>
  <time>2026-08-28T17:53:59Z</time>
  <course>247.07</course>
  <speed>0.022360679774997897</speed>
  <fix>3d</fix>
</trkpt>
<trkpt lat="40.0713749" lon="-105.229789">
  <ele>1583.0</ele>
  <time>2026-08-28T17:53:59Z</time>
  <course>0.0</course>
  <speed>0.0</speed>
  <fix>3d</fix>
</trkpt>
<trkpt lat="40.0713751" lon="-105.2297889">
  <ele>1583.02</ele>
  <time>2026-08-28T17:53:59Z</time>
  <course>247.07</course>
  <speed>0.022360679774997897</speed>
  <fix>3d</fix>
</trkpt>
<trkpt lat="40.0713749" lon="-105.229789">
  <ele>1583.0</ele>
  <time>2026-08-28T17:53:59Z</time>
  <course>0.0</course>
  <speed>0.0</speed>
  <fix>3d</fix>
</trkpt>
<trkpt lat="40.0713751" lon="-105.2297889">
  <ele>1583.02</ele>
  <time>2026-08-28T17:53:59Z</time>
  <course>247.07</course>
  <speed>0.022360679774997897</speed>
  <fix>3d</fix>
</trkpt>
<trkpt lat="40.0713749" lon="-105.229789">
  <ele>1583.0</ele>
  <time>2026-08-28T17:53:59Z</time>
  <course>0.0</course>
  <speed>0.0</speed>
  <fix>3d</fix>
</trkpt>
<trkpt lat="40.0713751" lon="-105.2297889">
  <ele>1583.02</ele>
  <time>2026-08-28T17:53:59Z</time>
  <course>247.07</course>
  <speed>0.022360679774997897</speed>
  <fix>3d</fix>
</trkpt>
<trkpt lat="40.0713749" lon="-105.229789">
  <ele>1583.0</ele>
  <time>2026-08-28T17:53:59Z</time>
  <course>0.0</course>
  <speed>0.0</speed>
  <fix>3d</fix>
</trkpt>
<trkpt lat="40.0713751" lon="-105.2297889">
  <ele>1583.02</ele>
  <time>2026-08-28T17:53:59Z</time>
  <course>247.07</course>
  <speed>0.022360679774997897</speed>
  <fix>3d</fix>
</trkpt>
<trkpt lat="40.0713749" lon="-105.229789">
  <ele>1583.0</ele>
  <time>2026-08-28T17:53:59Z</time>
  <course>0.0</course>
  <speed>0.0</speed>
  <fix>3d</fix>
</trkpt>
<trkpt lat="40.071375" lon="-105.2297889">
  <ele>1583.02</ele>
  <time>2026-08-28T17:53:59Z</time>
  <course>247.07</course>
  <speed>0.022360679774997897</speed>
  <fix>3d</fix>
</trkpt>
<trkpt lat="40.0713749" lon="-105.229789">
  <ele>1583.0</ele>
  <time>2026-08-28T17:53:59Z</time>
  <course>0.0</course>
  <speed>0.0</speed>
  <fix>3d</fix>
</trkpt>
<trkpt lat="40.0713751" lon="-105.2297889">
  <ele>1583.02</ele>
  <time>2026-08-28T17:53:59Z</time>
  <course>247.07</course>
  <speed>0.022360679774997897</speed>
  <fix>3d</fix>
</trkpt>
<trkpt lat="40.0713749" lon="-105.229789">
  <ele>1583.0</ele>
  <time>2026-08-28T17:53:59Z</time>
  <course>0.0</course>
  <speed>0.0</speed>
  <fix>3d</fix>
</trkpt>
<trkpt lat="40.071375" lon="-105.2297889">
  <ele>1583.01</ele>
  <time>2026-08-28T17:53:59Z</time>
  <course>247.07</course>
  <speed>0.022360679774997897</speed>
  <fix>3d</fix>
</trkpt>
<trkpt lat="40.0713749" lon="-105.229789">
  <ele>1583.0</ele>
  <time>2026-08-28T17:53:59Z</time>
  <course>0.0</course>
  <speed>0.0</speed>
  <fix>3d</fix>
</trkpt>
<trkpt lat="40.0713751" lon="-105.2297889">
  <ele>1583.01</ele>
  <time>2026-08-28T17:53:59Z</time>
  <course>247.07</course>
  <speed>0.022360679774997897</speed>
  <fix>3d</fix>
</trkpt>
<trkpt lat="40.0713749" lon="-105.229789">
  <ele>1583.0</ele>
  <time>2026-08-28T17:53:59Z</time>
  <course>0.0</course>
  <speed>0.0</speed>
  <fix>3d</fix>
</trkpt>
<trkpt lat="40.071375" lon="-105.2297889">
  <ele>1583.01</ele>
  <time>2026-08-28T17:53:59Z</time>
  <course>247.07</course>
  <speed>0.022360679774997897</speed>
  <fix>3d</fix>
</trkpt>
<trkpt lat="40.0713749" lon="-105.229789">
  <ele>1583.0</ele>
  <time>2026-08-28T17:53:59Z</time>
  <course>0.0</course>
  <speed>0.0</speed>
  <fix>3d</fix>
</trkpt>
<trkpt lat="40.0713751" lon="-105.2297889">
  <ele>1583.01</ele>
  <time>2026-08-28T17:53:59Z</time>
  <course>247.07</course>
  <speed>0.022360679774997897</speed>
  <fix>3d</fix>
</trkpt>
<trkpt lat="40.0713749" lon="-105.229789">
  <ele>1583.0</ele>
  <time>2026-08-28T17:53:59Z</time>
  <course>0.0</course>
  <speed>0.0</speed>
  <fix>3d</fix>
</trkpt>
<trkpt lat="40.071375" lon="-105.2297889">
  <ele>1583.01</ele>
  <time>2026-08-28T17:53:59Z</time>
  <course>247.07</course>
  <speed>0.022360679774997897</speed>
  <fix>3d</fix>
</trkpt>
<trkpt lat="40.0713749" lon="-105.229789">
  <ele>1583.0</ele>
  <time>2026-08-28T17:53:59Z</time>
  <course>0.0</course>
  <speed>0.0</speed>
  <fix>3d</fix>
</trkpt>
<trkpt lat="40.0713751" lon="-105.2297889">
  <ele>1583.01</ele>
  <time>2026-08-28T17:53:59Z</time>
  <course>247.07</course>
  <speed>0.022360679774997897</speed>
  <fix>3d</fix>
</trkpt>
<trkpt lat="40.0713749" lon="-105.229789">
  <ele>1583.0</ele>
  <time>2026-08-28T17:53:59Z</time>
  <course>0.0</course>
  <speed>0.0</speed>
  <fix>3d</fix>
</trkpt>
<trkpt lat="40.071375" lon="-105.2297889">
  <ele>1583.0</ele>
  <time>2026-08-28T17:53:59Z</time>
  <course>247.07</course>
  <speed>0.022360679774997897</speed>
  <fix>3d</fix>
</trkpt>
<trkpt lat="40.0713749" lon="-105.229789">
  <ele>1583.0</ele>
  <time>2026-08-28T17:53:59Z</time>
  <course>0.0</course>
  <speed>0.0</speed>
  <fix>3d</fix>
</trkpt>
<trkpt lat="40.0713751" lon="-105.2297889">
  <ele>1583.0</ele>
  <time>2026-08-28T17:53:59Z</time>
  <course>247.07</course>
  <speed>0.022360679774997897</speed>
  <fix>3d</fix>
</trkpt>
<trkpt lat="40.0713749" lon="-105.229789">
  <ele>1583.0</ele>
  <time>2026-08-28T17:53:59Z</time>
  <course>0.0</course>
  <speed>0.0</speed>
  <fix>3d</fix>
</trkpt>
<trkpt lat="40.071375" lon="-105.2297889">
  <ele>1583.0</ele>
  <time>2026-08-28T17:53:59Z</time>
  <course>247.07</course>
  <speed>0.022360679774997897</speed>
  <fix>3d</fix>
</trkpt>
<trkpt lat="40.0713749" lon="-105.229789">
  <ele>1583.0</ele>
  <time>2026-08-28T17:53:59Z</time>
  <course>0.0</course>
  <speed>0.0</speed>
  <fix>3d</fix>
</trkpt>
<trkpt lat="40.0713751" lon="-105.2297889">
  <ele>1583.0</ele>
  <time>2026-08-28T17:53:59Z</time>
  <course>247.07</course>
  <speed>0.022360679774997897</speed>
  <fix>3d</fix>
</trkpt>
<trkpt lat="40.0713749" lon="-105.229789">
  <ele>1583.0</ele>
  <time>2026-08-28T17:53:59Z</time>
  <course>0.0</course>
  <speed>0.0</speed>
  <fix>3d</fix>
</trkpt>
<trkpt lat="40.071375" lon="-105.2297889">
  <ele>1583.0</ele>
  <time>2026-08-28T17:53:59Z</time>
  <course>247.07</course>
  <speed>0.022360679774997897</speed>
  <fix>3d</fix>
</trkpt>
<trkpt lat="40.0713749" lon="-105.229789">
  <ele>1583.0</ele>
  <time>2026-08-28T17:53:59Z</time>
  <course>0.0</course>
  <speed>0.0</speed>
  <fix>3d</fix>
</trkpt>
<trkpt lat="40.0713751" lon="-105.2297889">
  <ele>1583.0</ele>
  <time>2026-08-28T17:53:59Z</time>
  <course>247.07</course>
  <speed>0.022360679774997897</speed>
  <fix>3d</fix>
</trkpt>
<trkpt lat="40.0713749" lon="-105.229789">
  <ele>1583.0</ele>
  <time>2026-08-28T17:53:59Z</time>
  <course>0.0</course>
  <speed>0.0</speed>
  <fix>3d</fix>
</trkpt>
<trkpt lat="40.0713751" lon="-105.2297889">
  <ele>1583.0</ele>
  <time>2026-08-28T17:53:59Z</time>
  <course>247.07</course>
  <speed>0.022360679774997897</speed>
  <fix>3d</fix>
</trkpt>
<trkpt lat="40.0713749" lon="-105.229789">
  <ele>1583.0</ele>
  <time>2026-08-28T17:53:59Z</time>
  <course>0.0</course>
  <speed>0.0</speed>
  <fix>3d</fix>
</trkpt>
<trkpt lat="40.0713751" lon="-105.2297889">
  <ele>1583.0</ele>
  <time>2026-08-28T17:53:59Z</time>
  <course>247.07</course>
  <speed>0.022360679774997897</speed>
  <fix>3d</fix>
</trkpt>
<trkpt lat="40.0713749" lon="-105.229789">
  <ele>1583.0</ele>
  <time>2026-08-28T17:53:59Z</time>
  <course>0.0</course>
  <speed>0.0</speed>
  <fix>3d</fix>
</trkpt>
<trkpt lat="40.0713751" lon="-105.2297889">
  <ele>1583.0</ele>
  <time>2026-08-28T17:53:59Z</time>
  <course>247.07</course>
  <speed>0.022360679774997897</speed>
  <fix>3d</fix>
</trkpt>
<trkpt lat="40.0713749" lon="-105.229789">
  <ele>1583.0</ele>
  <time>2026-08-28T17:53:59Z</time>
  <course>0.0</course>
  <speed>0.0</speed>
  <fix>3d</fix>
</trkpt>
<trkpt lat="40.0713751" lon="-105.2297889">
  <ele>1583.0</ele>
  <time>2026-08-28T17:53:59Z</time>
  <course>247.07</course>
  <speed>0.022360679774997897</speed>
  <fix>3d</fix>
</trkpt>
<trkpt lat="40.0713749" lon="-105.229789">
  <ele>1583.0</ele>
  <time>2026-08-28T17:53:59Z</time>
  <course>0.0</course>
  <speed>0.0</speed>
  <fix>3d</fix>
</trkpt>
<trkpt lat="40.0713751" lon="-105.2297889">
  <ele>1583.0</ele>
  <time>2026-08-28T17:53:59Z</time>
  <course>247.07</course>
  <speed>0.022360679774997897</speed>
  <fix>3d</fix>
</trkpt>
<trkpt lat="40.0713749" lon="-105.229789">
  <ele>1583.0</ele>
  <time>2026-08-28T17:53:59Z</time>
  <course>0.0</course>
  <speed>0.0</speed>
  <fix>3d</fix>
</trkpt>
<trkpt lat="40.0713751" lon="-105.2297889">
  <ele>1582.99</ele>
  <time>2026-08-28T17:53:59Z</time>
  <course>247.07</course>
  <speed>0.022360679774997897</speed>
  <fix>3d</fix>
</trkpt>
<trkpt lat="40.0713749" lon="-105.229789">
  <ele>1583.0</ele>
  <time>2026-08-28T17:53:59Z</time>
  <course>0.0</course>
  <speed>0.0</speed>
  <fix>3d</fix>
</trkpt>
<trkpt lat="40.0713751" lon="-105.2297889">
  <ele>1582.99</ele>
  <time>2026-08-28T17:53:59Z</time>
  <course>247.07</course>
  <speed>0.022360679774997897</speed>
  <fix>3d</fix>
</trkpt>
<trkpt lat="40.0713749" lon="-105.229789">
  <ele>1583.0</ele>
  <time>2026-08-28T17:53:59Z</time>
  <course>0.0</course>
  <speed>0.0</speed>
  <fix>3d</fix>
</trkpt>
<trkpt lat="40.0713751" lon="-105.2297889">
  <ele>1582.99</ele>
  <time>2026-08-28T17:53:59Z</time>
  <course>247.07</course>
  <speed>0.022360679774997897</speed>
  <fix>3d</fix>
</trkpt>
<trkpt lat="40.0713749" lon="-105.229789">
  <ele>1583.0</ele>
  <time>2026-08-28T17:53:59Z</time>
  <course>0.0</course>
  <speed>0.0</speed>
  <fix>3d</fix>
</trkpt>
<trkpt lat="40.071375" lon="-105.2297889">
  <ele>1582.99</ele>
  <time>2026-08-28T17:53:59Z</time>
  <course>247.07</course>
  <speed>0.022360679774997897</speed>
  <fix>3d</fix>
</trkpt>
<trkpt lat="40.0713749" lon="-105.229789">
  <ele>1583.0</ele>
  <time>2026-08-28T17:53:59Z</time>
  <course>0.0</course>
  <speed>0.0</speed>
  <fix>3d</fix>
</trkpt>
<trkpt lat="40.0713751" lon="-105.2297889">
  <ele>1582.99</ele>
  <time>2026-08-28T17:53:59Z</time>
  <course>247.07</course>
  <speed>0.022360679774997897</speed>
  <fix>3d</fix>
</trkpt>
<trkpt lat="40.0713749" lon="-105.229789">
  <ele>1583.0</ele>
  <time>2026-08-28T17:53:59Z</time>
  <course>0.0</course>
  <speed>0.0</speed>
  <fix>3d</fix>
</trkpt>
<trkpt lat="40.071375" lon="-105.2297889">
  <ele>1582.99</ele>
  <time>2026-08-28T17:53:59Z</time>
  <course>247.07</course>
  <speed>0.022360679774997897</speed>
  <fix>3d</fix>
</trkpt>
<trkpt lat="40.0713749" lon="-105.229789">
  <ele>1583.0</ele>
  <time>2026-08-28T17:53:59Z</time>
  <course>0.0</course>
  <speed>0.0</speed>
  <fix>3d</fix>
</trkpt>
<trkpt lat="40.0713751" lon="-105.2297889">
  <ele>1582.99</ele>
  <time>2026-08-28T17:53:59Z</time>
  <course>247.07</course>
  <speed>0.022360679774997897</speed>
  <fix>3d</fix>
</trkpt>
<trkpt lat="40.0713749" lon="-105.229789">
  <ele>1583.0</ele>
  <time>2026-08-28T17:53:59Z</time>
  <course>0.0</course>
  <speed>0.0</speed>
  <fix>3d</fix>
</trkpt>
<trkpt lat="40.071375" lon="-105.2297889">
  <ele>1582.99</ele>
  <time>2026-08-28T17:53:59Z</time>
  <course>247.07</course>
  <speed>0.022360679774997897</speed>
  <fix>3d</fix>
</trkpt>
<trkpt lat="40.0713749" lon="-105.229789">
  <ele>1583.0</ele>
  <time>2026-08-28T17:53:59Z</time>
  <course>0.0</course>
  <speed>0.0</speed>
  <fix>3d</fix>
</trkpt>
<trkpt lat="40.0713751" lon="-105.2297889">
  <ele>1582.99</ele>
  <time>2026-08-28T17:53:59Z</time>
  <course>247.07</course>
  <speed>0.022360679774997897</speed>
  <fix>3d</fix>
</trkpt>
<trkpt lat="40.0713749" lon="-105.229789">
  <ele>1583.0</ele>
  <time>2026-08-28T17:53:59Z</time>
  <course>0.0</course>
  <speed>0.0</speed>
  <fix>3d</fix>
</trkpt>
<trkpt lat="40.071375" lon="-105.2297889">
  <ele>1582.99</ele>
  <time>2026-08-28T17:53:59Z</time>
  <course>247.07</course>
  <speed>0.022360679774997897</speed>
  <fix>3d</fix>
</trkpt>
<trkpt lat="40.0713749" lon="-105.229789">
  <ele>1583.0</ele>
  <time>2026-08-28T17:53:59Z</time>
  <course>0.0</course>
  <speed>0.0</speed>
  <fix>3d</fix>
</trkpt>
<trkpt lat="40.0713751" lon="-105.2297889">
  <ele>1582.99</ele>
  <time>2026-08-28T17:53:59Z</time>
  <course>247.07</course>
  <speed>0.022360679774997897</speed>
  <fix>3d</fix>
</trkpt>
<trkpt lat="40.0713749" lon="-105.229789">
  <ele>1583.0</ele>
  <time>2026-08-28T17:53:59Z</time>
  <course>0.0</course>
  <speed>0.0</speed>
  <fix>3d</fix>
</trkpt>
<trkpt lat="40.071375" lon="-105.2297889">
  <ele>1582.99</ele>
  <time>2026-08-28T17:53:59Z</time>
  <course>247.07</course>
  <speed>0.022360679774997897</speed>
  <fix>3d</fix>
</trkpt>
<trkpt lat="40.0713749" lon="-105.229789">
  <ele>1583.0</ele>
  <time>2026-08-28T17:53:59Z</time>
  <course>0.0</course>
  <speed>0.0</speed>
  <fix>3d</fix>
</trkpt>
<trkpt lat="40.0713751" lon="-105.2297889">
  <ele>1582.99</ele>
  <time>2026-08-28T17:53:59Z</time>
  <course>247.07</course>
  <speed>0.022360679774997897</speed>
  <fix>3d</fix>
</trkpt>
<trkpt lat="40.0713749" lon="-105.229789">
  <ele>1583.0</ele>
  <time>2026-08-28T17:53:59Z</time>
  <course>0.0</course>
  <speed>0.0</speed>
  <fix>3d</fix>
</trkpt>
<trkpt lat="40.071375" lon="-105.2297889">
  <ele>1582.99</ele>
  <time>2026-08-28T17:53:59Z</time>
  <course>247.07</course>
  <speed>0.022360679774997897</speed>
  <fix>3d</fix>
</trkpt>
<trkpt lat="40.0713749" lon="-105.229789">
  <ele>1583.0</ele>
  <time>2026-08-28T17:53:59Z</time>
  <course>0.0</course>
  <speed>0.0</speed>
  <fix>3d</fix>
</trkpt>
<trkpt lat="40.0713751" lon="-105.2297889">
  <ele>1582.99</ele>
  <time>2026-08-28T17:53:59Z</time>
  <course>247.07</course>
  <speed>0.022360679774997897</speed>
  <fix>3d</fix>
</trkpt>
<trkpt lat="40.0713749" lon="-105.229789">
  <ele>1583.0</ele>
  <time>2026-08-28T17:53:59Z</time>
  <course>0.0</course>
  <speed>0.0</speed>
  <fix>3d</fix>
</trkpt>
<trkpt lat="40.0713751" lon="-105.2297889">
  <ele>1582.99</ele>
  <time>2026-08-28T17:53:59Z</time>
  <course>247.07</course>
  <speed>0.022360679774997897</speed>
  <fix>3d</fix>
</trkpt>
<trkpt lat="40.0713749" lon="-105.229789">
  <ele>1583.0</ele>
  <time>2026-08-28T17:53:59Z</time>
  <course>0.0</course>
  <speed>0.0</speed>
  <fix>3d</fix>
</trkpt>
<trkpt lat="40.0713751" lon="-105.2297889">
  <ele>1582.98</ele>
  <time>2026-08-28T17:53:59Z</time>
  <course>247.07</course>
  <speed>0.022360679774997897</speed>
  <fix>3d</fix>
</trkpt>
<trkpt lat="40.0713749" lon="-105.229789">
  <ele>1583.0</ele>
  <time>2026-08-28T17:53:59Z</time>
  <course>0.0</course>
  <speed>0.0</speed>
  <fix>3d</fix>
</trkpt>
<trkpt lat="40.0713751" lon="-105.2297889">
  <ele>1582.98</ele>
  <time>2026-08-28T17:53:59Z</time>
  <course>247.07</course>
  <speed>0.022360679774997897</speed>
  <fix>3d</fix>
</trkpt>
<trkpt lat="40.0713749" lon="-105.229789">
  <ele>1583.0</ele>
  <time>2026-08-28T17:53:59Z</time>
  <course>0.0</course>
  <speed>0.0</speed>
  <fix>3d</fix>
</trkpt>
<trkpt lat="40.0713751" lon="-105.2297889">
  <ele>1582.98</ele>
  <time>2026-08-28T17:53:59Z</time>
  <course>247.07</course>
  <speed>0.022360679774997897</speed>
  <fix>3d</fix>
</trkpt>
<trkpt lat="40.0713749" lon="-105.229789">
  <ele>1583.0</ele>
  <time>2026-08-28T17:53:59Z</time>
  <course>0.0</course>
  <speed>0.0</speed>
  <fix>3d</fix>
</trkpt>
<trkpt lat="40.0713751" lon="-105.2297889">
  <ele>1582.98</ele>
  <time>2026-08-28T17:53:59Z</time>
  <course>247.07</course>
  <speed>0.022360679774997897</speed>
  <fix>3d</fix>
</trkpt>
<trkpt lat="40.0713749" lon="-105.229789">
  <ele>1583.0</ele>
  <time>2026-08-28T17:53:59Z</time>
  <course>0.0</course>
  <speed>0.0</speed>
  <fix>3d</fix>
</trkpt>
<trkpt lat="40.0713751" lon="-105.2297889">
  <ele>1582.98</ele>
  <time>2026-08-28T17:53:59Z</time>
  <course>247.07</course>
  <speed>0.022360679774997897</speed>
  <fix>3d</fix>
</trkpt>
<trkpt lat="40.0713749" lon="-105.229789">
  <ele>1583.0</ele>
  <time>2026-08-28T17:53:59Z</time>
  <course>0.0</course>
  <speed>0.0</speed>
  <fix>3d</fix>
</trkpt>
<trkpt lat="40.0713751" lon="-105.2297889">
  <ele>1582.98</ele>
  <time>2026-08-28T17:53:59Z</time>
  <course>247.07</course>
  <speed>0.022360679774997897</speed>
  <fix>3d</fix>
</trkpt>
<trkpt lat="40.0713749" lon="-105.229789">
  <ele>1583.0</ele>
  <time>2026-08-28T17:53:59Z</time>
  <course>0.0</course>
  <speed>0.0</speed>
  <fix>3d</fix>
</trkpt>
<trkpt lat="40.0713751" lon="-105.2297889">
  <ele>1582.97</ele>
  <time>2026-08-28T17:53:59Z</time>
  <course>247.07</course>
  <speed>0.022360679774997897</speed>
  <fix>3d</fix>
</trkpt>
<trkpt lat="40.0713749" lon="-105.229789">
  <ele>1583.0</ele>
  <time>2026-08-28T17:53:59Z</time>
  <course>0.0</course>
  <speed>0.0</speed>
  <fix>3d</fix>
</trkpt>
<trkpt lat="40.0713751" lon="-105.2297889">
  <ele>1582.97</ele>
  <time>2026-08-28T17:53:59Z</time>
  <course>247.07</course>
  <speed>0.022360679774997897</speed>
  <fix>3d</fix>
</trkpt>
<trkpt lat="40.0713749" lon="-105.229789">
  <ele>1583.0</ele>
  <time>2026-08-28T17:53:59Z</time>
  <course>0.0</course>
  <speed>0.0</speed>
  <fix>3d</fix>
</trkpt>
<trkpt lat="40.0713751" lon="-105.2297889">
  <ele>1582.97</ele>
  <time>2026-08-28T17:53:59Z</time>
  <course>247.07</course>
  <speed>0.022360679774997897</speed>
  <fix>3d</fix>
</trkpt>
<trkpt lat="40.0713749" lon="-105.229789">
  <ele>1583.0</ele>
  <time>2026-08-28T17:53:59Z</time>
  <course>0.0</course>
  <speed>0.0</speed>
  <fix>3d</fix>
</trkpt>
<trkpt lat="40.0713751" lon="-105.2297889">
  <ele>1582.97</ele>
  <time>2026-08-28T17:53:59Z</time>
  <course>247.07</course>
  <speed>0.022360679774997897</speed>
  <fix>3d</fix>
</trkpt>
<trkpt lat="40.0713749" lon="-105.229789">
  <ele>1583.0</ele>
  <time>2026-08-28T17:53:59Z</time>
  <course>0.0</course>
  <speed>0.0</speed>
  <fix>3d</fix>
</trkpt>
<trkpt lat="40.0713751" lon="-105.2297889">
  <ele>1582.97</ele>
  <time>2026-08-28T17:53:59Z</time>
  <course>247.07</course>
  <speed>0.022360679774997897</speed>
  <fix>3d</fix>
</trkpt>
<trkpt lat="40.0713749" lon="-105.229789">
  <ele>1583.0</ele>
  <time>2026-08-28T17:53:59Z</time>
  <course>0.0</course>
  <speed>0.0</speed>
  <fix>3d</fix>
</trkpt>
<trkpt lat="40.0713751" lon="-105.2297889">
  <ele>1582.97</ele>
  <time>2026-08-28T17:53:59Z</time>
  <course>247.07</course>
  <speed>0.022360679774997897</speed>
  <fix>3d</fix>
</trkpt>
<trkpt lat="40.0713749" lon="-105.229789">
  <ele>1583.0</ele>
  <time>2026-08-28T17:53:59Z</time>
  <course>0.0</course>
  <speed>0.0</speed>
  <fix>3d</fix>
</trkpt>
<trkpt lat="40.0713751" lon="-105.2297889">
  <ele>1582.97</ele>
  <time>2026-08-28T17:53:59Z</time>
  <course>247.07</course>
  <speed>0.022360679774997897</speed>
  <fix>3d</fix>
</trkpt>
<trkpt lat="40.0713749" lon="-105.229789">
  <ele>1583.0</ele>
  <time>2026-08-28T17:53:59Z</time>
  <course>0.0</course>
  <speed>0.0</speed>
  <fix>3d</fix>
</trkpt>
<trkpt lat="40.0713751" lon="-105.2297889">
  <ele>1582.97</ele>
  <time>2026-08-28T17:53:59Z</time>
  <course>247.07</course>
  <speed>0.022360679774997897</speed>
  <fix>3d</fix>
</trkpt>
<trkpt lat="40.0713749" lon="-105.229789">
  <ele>1583.0</ele>
  <time>2026-08-28T17:53:59Z</time>
  <course>0.0</course>
  <speed>0.0</speed>
  <fix>3d</fix>
</trkpt>
<trkpt lat="40.0713751" lon="-105.2297889">
  <ele>1582.98</ele>
  <time>2026-08-28T17:53:59Z</time>
  <course>247.07</course>
  <speed>0.022360679774997897</speed>
  <fix>3d</fix>
</trkpt>
<trkpt lat="40.0713749" lon="-105.229789">
  <ele>1583.0</ele>
  <time>2026-08-28T17:53:59Z</time>
  <course>0.0</course>
  <speed>0.0</speed>
  <fix>3d</fix>
</trkpt>
<trkpt lat="40.0713751" lon="-105.2297889">
  <ele>1582.98</ele>
  <time>2026-08-28T17:53:59Z</time>
  <course>247.07</course>
  <speed>0.022360679774997897</speed>
  <fix>3d</fix>
</trkpt>
<trkpt lat="40.0713749" lon="-105.229789">
  <ele>1583.0</ele>
  <time>2026-08-28T17:53:59Z</time>
  <course>0.0</course>
  <speed>0.0</speed>
  <fix>3d</fix>
</trkpt>
<trkpt lat="40.0713751" lon="-105.2297889">
  <ele>1582.98</ele>
  <time>2026-08-28T17:53:59Z</time>
  <course>247.07</course>
  <speed>0.022360679774997897</speed>
  <fix>3d</fix>
</trkpt>
<trkpt lat="40.0713749" lon="-105.229789">
  <ele>1583.0</ele>
  <time>2026-08-28T17:53:59Z</time>
  <course>0.0</course>
  <speed>0.0</speed>
  <fix>3d</fix>
</trkpt>
<trkpt lat="40.0713751" lon="-105.2297889">
  <ele>1582.98</ele>
  <time>2026-08-28T17:53:59Z</time>
  <course>247.07</course>
  <speed>0.022360679774997897</speed>
  <fix>3d</fix>
</trkpt>
<trkpt lat="40.0713749" lon="-105.229789">
  <ele>1583.0</ele>
  <time>2026-08-28T17:53:59Z</time>
  <course>0.0</course>
  <speed>0.0</speed>
  <fix>3d</fix>
</trkpt>
<trkpt lat="40.0713751" lon="-105.2297889">
  <ele>1582.98</ele>
  <time>2026-08-28T17:53:59Z</time>
  <course>247.07</course>
  <speed>0.022360679774997897</speed>
  <fix>3d</fix>
</trkpt>
<trkpt lat="40.0713749" lon="-105.229789">
  <ele>1583.0</ele>
  <time>2026-08-28T17:53:59Z</time>
  <course>0.0</course>
  <speed>0.0</speed>
  <fix>3d</fix>
</trkpt>
<trkpt lat="40.0713751" lon="-105.2297889">
  <ele>1582.98</ele>
  <time>2026-08-28T17:53:59Z</time>
  <course>247.07</course>
  <speed>0.022360679774997897</speed>
  <fix>3d</fix>
</trkpt>
<trkpt lat="40.0713749" lon="-105.229789">
  <ele>1583.0</ele>
  <time>2026-08-28T17:53:59Z</time>
  <course>0.0</course>
  <speed>0.0</speed>
  <fix>3d</fix>
</trkpt>
<trkpt lat="40.0713751" lon="-105.2297889">
  <ele>1582.98</ele>
  <time>2026-08-28T17:53:59Z</time>
  <course>247.07</course>
  <speed>0.022360679774997897</speed>
  <fix>3d</fix>
</trkpt>
<trkpt lat="40.0713749" lon="-105.229789">
  <ele>1583.0</ele>
  <time>2026-08-28T17:53:59Z</time>
  <course>0.0</course>
  <speed>0.0</speed>
  <fix>3d</fix>
</trkpt>
<trkpt lat="40.0713751" lon="-105.2297889">
  <ele>1582.98</ele>
  <time>2026-08-28T17:53:59Z</time>
  <course>247.07</course>
  <speed>0.022360679774997897</speed>
  <fix>3d</fix>
</trkpt>
<trkpt lat="40.0713749" lon="-105.229789">
  <ele>1583.0</ele>
  <time>2026-08-28T17:53:59Z</time>
  <course>0.0</course>
  <speed>0.0</speed>
  <fix>3d</fix>
</trkpt>
<trkpt lat="40.0713751" lon="-105.2297889">
  <ele>1582.98</ele>
  <time>2026-08-28T17:53:59Z</time>
  <course>247.07</course>
  <speed>0.022360679774997897</speed>
  <fix>3d</fix>
</trkpt>
<trkpt lat="40.0713749" lon="-105.229789">
  <ele>1583.0</ele>
  <time>2026-08-28T17:53:59Z</time>
  <course>0.0</course>
  <speed>0.0</speed>
  <fix>3d</fix>
</trkpt>
<trkpt lat="40.0713751" lon="-105.2297889">
  <ele>1582.99</ele>
  <time>2026-08-28T17:53:59Z</time>
  <course>247.07</course>
  <speed>0.022360679774997897</speed>
  <fix>3d</fix>
</trkpt>
<trkpt lat="40.0713749" lon="-105.229789">
  <ele>1583.0</ele>
  <time>2026-08-28T17:53:59Z</time>
  <course>0.0</course>
  <speed>0.0</speed>
  <fix>3d</fix>
</trkpt>
<trkpt lat="40.0713751" lon="-105.2297889">
  <ele>1582.99</ele>
  <time>2026-08-28T17:53:59Z</time>
  <course>247.07</course>
  <speed>0.022360679774997897</speed>
  <fix>3d</fix>
</trkpt>
<trkpt lat="40.0713749" lon="-105.229789">
  <ele>1583.0</ele>
  <time>2026-08-28T17:53:59Z</time>
  <course>0.0</course>
  <speed>0.0</speed>
  <fix>3d</fix>
</trkpt>
<trkpt lat="40.0713751" lon="-105.2297889">
  <ele>1582.99</ele>
  <time>2026-08-28T17:53:59Z</time>
  <course>247.07</course>
  <speed>0.022360679774997897</speed>
  <fix>3d</fix>
</trkpt>
<trkpt lat="40.0713749" lon="-105.229789">
  <ele>1583.0</ele>
  <time>2026-08-28T17:53:59Z</time>
  <course>0.0</course>
  <speed>0.0</speed>
  <fix>3d</fix>
</trkpt>
<trkpt lat="40.0713751" lon="-105.2297889">
  <ele>1583.0</ele>
  <time>2026-08-28T17:53:59Z</time>
  <course>247.07</course>
  <speed>0.022360679774997897</speed>
  <fix>3d</fix>
</trkpt>
<trkpt lat="40.0713749" lon="-105.229789">
  <ele>1583.0</ele>
  <time>2026-08-28T17:53:59Z</time>
  <course>0.0</course>
  <speed>0.0</speed>
  <fix>3d</fix>
</trkpt>
<trkpt lat="40.0713751" lon="-105.2297889">
  <ele>1583.0</ele>
  <time>2026-08-28T17:53:59Z</time>
  <course>247.07</course>
  <speed>0.022360679774997897</speed>
  <fix>3d</fix>
</trkpt>
<trkpt lat="40.0713749" lon="-105.229789">
  <ele>1583.0</ele>
  <time>2026-08-28T17:53:59Z</time>
  <course>0.0</course>
  <speed>0.0</speed>
  <fix>3d</fix>
</trkpt>
<trkpt lat="40.0713751" lon="-105.2297889">
  <ele>1583.0</ele>
  <time>2026-08-28T17:53:59Z</time>
  <course>247.07</course>
  <speed>0.022360679774997897</speed>
  <fix>3d</fix>
</trkpt>
<trkpt lat="40.0713749" lon="-105.229789">
  <ele>1583.0</ele>
  <time>2026-08-28T17:53:59Z</time>
  <course>0.0</course>
  <speed>0.0</speed>
  <fix>3d</fix>
</trkpt>
<trkpt lat="40.0713751" lon="-105.2297889">
  <ele>1582.99</ele>
  <time>2026-08-28T17:53:59Z</time>
  <course>247.07</course>
  <speed>0.022360679774997897</speed>
  <fix>3d</fix>
</trkpt>
<trkpt lat="40.0713749" lon="-105.229789">
  <ele>1583.0</ele>
  <time>2026-08-28T17:53:59Z</time>
  <course>0.0</course>
  <speed>0.0</speed>
  <fix>3d</fix>
</trkpt>
<trkpt lat="40.0713751" lon="-105.2297889">
  <ele>1582.99</ele>
  <time>2026-08-28T17:53:59Z</time>
  <course>247.07</course>
  <speed>0.022360679774997897</speed>
  <fix>3d</fix>
</trkpt>
<trkpt lat="40.0713749" lon="-105.229789">
  <ele>1583.0</ele>
  <time>2026-08-28T17:53:59Z</time>
  <course>0.0</course>
  <speed>0.0</speed>
  <fix>3d</fix>
</trkpt>
<trkpt lat="40.0713751" lon="-105.2297889">
  <ele>1582.99</ele>
  <time>2026-08-28T17:53:59Z</time>
  <course>247.07</course>
  <speed>0.022360679774997897</speed>
  <fix>3d</fix>
</trkpt>
<trkpt lat="40.0713749" lon="-105.229789">
  <ele>1583.0</ele>
  <time>2026-08-28T17:53:59Z</time>
  <course>0.0</course>
  <speed>0.0</speed>
  <fix>3d</fix>
</trkpt>
<trkpt lat="40.0713751" lon="-105.2297889">
  <ele>1582.99</ele>
  <time>2026-08-28T17:53:59Z</time>
  <course>247.07</course>
  <speed>0.022360679774997897</speed>
  <fix>3d</fix>
</trkpt>
<trkpt lat="40.0713749" lon="-105.229789">
  <ele>1583.0</ele>
  <time>2026-08-28T17:53:59Z</time>
  <course>0.0</course>
  <speed>0.0</speed>
  <fix>3d</fix>
</trkpt>
<trkpt lat="40.0713751" lon="-105.2297889">
  <ele>1582.99</ele>
  <time>2026-08-28T17:53:59Z</time>
  <course>247.07</course>
  <speed>0.022360679774997897</speed>
  <fix>3d</fix>
</trkpt>
<trkpt lat="40.0713749" lon="-105.229789">
  <ele>1583.0</ele>
  <time>2026-08-28T17:53:59Z</time>
  <course>0.0</course>
  <speed>0.0</speed>
  <fix>3d</fix>
</trkpt>
<trkpt lat="40.0713751" lon="-105.2297889">
  <ele>1582.99</ele>
  <time>2026-08-28T17:53:59Z</time>
  <course>247.07</course>
  <speed>0.022360679774997897</speed>
  <fix>3d</fix>
</trkpt>
<trkpt lat="40.0713749" lon="-105.229789">
  <ele>1583.0</ele>
  <time>2026-08-28T17:53:59Z</time>
  <course>0.0</course>
  <speed>0.0</speed>
  <fix>3d</fix>
</trkpt>
<trkpt lat="40.0713751" lon="-105.2297889">
  <ele>1582.99</ele>
  <time>2026-08-28T17:53:59Z</time>
  <course>247.07</course>
  <speed>0.022360679774997897</speed>
  <fix>3d</fix>
</trkpt>
<trkpt lat="40.0713749" lon="-105.229789">
  <ele>1583.0</ele>
  <time>2026-08-28T17:53:59Z</time>
  <course>0.0</course>
  <speed>0.0</speed>
  <fix>3d</fix>
</trkpt>
<trkpt lat="40.0713751" lon="-105.2297889">
  <ele>1582.98</ele>
  <time>2026-08-28T17:53:59Z</time>
  <course>247.07</course>
  <speed>0.022360679774997897</speed>
  <fix>3d</fix>
</trkpt>
<trkpt lat="40.0713749" lon="-105.229789">
  <ele>1583.0</ele>
  <time>2026-08-28T17:53:59Z</time>
  <course>0.0</course>
  <speed>0.0</speed>
  <fix>3d</fix>
</trkpt>
<trkpt lat="40.0713751" lon="-105.2297889">
  <ele>1582.98</ele>
  <time>2026-08-28T17:53:59Z</time>
  <course>247.07</course>
  <speed>0.022360679774997897</speed>
  <fix>3d</fix>
</trkpt>
<trkpt lat="40.0713749" lon="-105.229789">
  <ele>1583.0</ele>
  <time>2026-08-28T17:53:59Z</time>
  <course>0.0</course>
  <speed>0.0</speed>
  <fix>3d</fix>
</trkpt>
<trkpt lat="40.0713751" lon="-105.2297889">
  <ele>1582.98</ele>
  <time>2026-08-28T17:53:59Z</time>
  <course>247.07</course>
  <speed>0.022360679774997897</speed>
  <fix>3d</fix>
</trkpt>
<trkpt lat="40.0713749" lon="-105.229789">
  <ele>1583.0</ele>
  <time>2026-08-28T17:53:59Z</time>
  <course>0.0</course>
  <speed>0.0</speed>
  <fix>3d</fix>
</trkpt>
<trkpt lat="40.0713751" lon="-105.2297889">
  <ele>1582.98</ele>
  <time>2026-08-28T17:53:59Z</time>
  <course>247.07</course>
  <speed>0.022360679774997897</speed>
  <fix>3d</fix>
</trkpt>
<trkpt lat="40.0713749" lon="-105.229789">
  <ele>1583.0</ele>
  <time>2026-08-28T17:53:59Z</time>
  <course>0.0</course>
  <speed>0.0</speed>
  <fix>3d</fix>
</trkpt>
<trkpt lat="40.0713751" lon="-105.2297889">
  <ele>1582.98</ele>
  <time>2026-08-28T17:53:59Z</time>
  <course>247.07</course>
  <speed>0.022360679774997897</speed>
  <fix>3d</fix>
</trkpt>
<trkpt lat="40.0713749" lon="-105.229789">
  <ele>1583.0</ele>
  <time>2026-08-28T17:53:59Z</time>
  <course>0.0</course>
  <speed>0.0</speed>
  <fix>3d</fix>
</trkpt>
<trkpt lat="40.0713751" lon="-105.2297889">
  <ele>1582.98</ele>
  <time>2026-08-28T17:53:59Z</time>
  <course>247.07</course>
  <speed>0.022360679774997897</speed>
  <fix>3d</fix>
</trkpt>
<trkpt lat="40.0713749" lon="-105.229789">
  <ele>1583.0</ele>
  <time>2026-08-28T17:53:59Z</time>
  <course>0.0</course>
  <speed>0.0</speed>
  <fix>3d</fix>
</trkpt>
<trkpt lat="40.0713751" lon="-105.2297889">
  <ele>1582.98</ele>
  <time>2026-08-28T17:53:59Z</time>
  <course>247.07</course>
  <speed>0.022360679774997897</speed>
  <fix>3d</fix>
</trkpt>
<trkpt lat="40.0713749" lon="-105.229789">
  <ele>1583.0</ele>
  <time>2026-08-28T17:53:59Z</time>
  <course>0.0</course>
  <speed>0.0</speed>
  <fix>3d</fix>
</trkpt>
<trkpt lat="40.0713751" lon="-105.2297889">
  <ele>1582.99</ele>
  <time>2026-08-28T17:53:59Z</time>
  <course>247.07</course>
  <speed>0.022360679774997897</speed>
  <fix>3d</fix>
</trkpt>
<trkpt lat="40.0713749" lon="-105.229789">
  <ele>1583.0</ele>
  <time>2026-08-28T17:53:59Z</time>
  <course>0.0</course>
  <speed>0.0</speed>
  <fix>3d</fix>
</trkpt>
<trkpt lat="40.0713751" lon="-105.2297889">
  <ele>1582.99</ele>
  <time>2026-08-28T17:53:59Z</time>
  <course>247.07</course>
  <speed>0.022360679774997897</speed>
  <fix>3d</fix>
</trkpt>
<trkpt lat="40.0713749" lon="-105.229789">
  <ele>1583.0</ele>
  <time>2026-08-28T17:53:59Z</time>
  <course>0.0</course>
  <speed>0.0</speed>
  <fix>3d</fix>
</trkpt>
<trkpt lat="40.0713751" lon="-105.2297889">
  <ele>1583.0</ele>
  <time>2026-08-28T17:53:59Z</time>
  <course>247.07</course>
  <speed>0.022360679774997897</speed>
  <fix>3d</fix>
</trkpt>
<trkpt lat="40.0713749" lon="-105.229789">
  <ele>1583.0</ele>
  <time>2026-08-28T17:53:59Z</time>
  <course>0.0</course>
  <speed>0.0</speed>
  <fix>3d</fix>
</trkpt>
<trkpt lat="40.0713751" lon="-105.2297889">
  <ele>1583.0</ele>
  <time>2026-08-28T17:53:59Z</time>
  <course>247.07</course>
  <speed>0.022360679774997897</speed>
  <fix>3d</fix>
</trkpt>
<trkpt lat="40.0713749" lon="-105.229789">
  <ele>1583.0</ele>
  <time>2026-08-28T17:53:59Z</time>
  <course>0.0</course>
  <speed>0.0</speed>
  <fix>3d</fix>
</trkpt>
<trkpt lat="40.0713751" lon="-105.2297889">
  <ele>1583.0</ele>
  <time>2026-08-28T17:53:59Z</time>
  <course>247.07</course>
  <speed>0.022360679774997897</speed>
  <fix>3d</fix>
</trkpt>
<trkpt lat="40.0713749" lon="-105.229789">
  <ele>1583.0</ele>
  <time>2026-08-28T17:53:59Z</time>
  <course>0.0</course>
  <speed>0.0</speed>
  <fix>3d</fix>
</trkpt>
<trkpt lat="40.0713751" lon="-105.2297889">
  <ele>1583.0</ele>
  <time>2026-08-28T17:53:59Z</time>
  <course>247.07</course>
  <speed>0.022360679774997897</speed>
  <fix>3d</fix>
</trkpt>
<trkpt lat="40.0713749" lon="-105.229789">
  <ele>1583.0</ele>
  <time>2026-08-28T17:53:59Z</time>
  <course>0.0</course>
  <speed>0.0</speed>
  <fix>3d</fix>
</trkpt>
<trkpt lat="40.0713751" lon="-105.2297889">
  <ele>1583.0</ele>
  <time>2026-08-28T17:53:59Z</time>
  <course>247.07</course>
  <speed>0.022360679774997897</speed>
  <fix>3d</fix>
</trkpt>
<trkpt lat="40.0713749" lon="-105.229789">
  <ele>1583.0</ele>
  <time>2026-08-28T17:53:59Z</time>
  <course>0.0</course>
  <speed>0.0</speed>
  <fix>3d</fix>
</trkpt>
<trkpt lat="40.0713751" lon="-105.2297889">
  <ele>1583.0</ele>
  <time>2026-08-28T17:53:59Z</time>
  <course>247.07</course>
  <speed>0.022360679774997897</speed>
  <fix>3d</fix>
</trkpt>
<trkpt lat="40.0713749" lon="-105.229789">
  <ele>1583.0</ele>
  <time>2026-08-28T17:53:59Z</time>
  <course>0.0</course>
  <speed>0.0</speed>
  <fix>3d</fix>
</trkpt>
<trkpt lat="40.0713751" lon="-105.2297889">
  <ele>1583.0</ele>
  <time>2026-08-28T17:53:59Z</time>
  <course>247.07</course>
  <speed>0.02</speed>
  <fix>3d</fix>
</trkpt>
<trkpt lat="40.0713749" lon="-105.229789">
  <ele>1583.0</ele>
  <time>2026-08-28T17:53:59Z</time>
  <course>0.0</course>
  <speed>0.0</speed>
  <fix>3d</fix>
</trkpt>
<trkpt lat="40.0713751" lon="-105.2297889">
  <ele>1583.0</ele>
  <time>2026-08-28T17:53:59Z</time>
  <course>247.07</course>
  <speed>0.02</speed>
  <fix>3d</fix>
</trkpt>
<trkpt lat="40.0713749" lon="-105.229789">
  <ele>1583.0</ele>
  <time>2026-08-28T17:53:59Z</time>
  <course>0.0</course>
  <speed>0.0</speed>
  <fix>3d</fix>
</trkpt>
<trkpt lat="40.0713751" lon="-105.2297889">
  <ele>1583.0</ele>
  <time>2026-08-28T17:53:59Z</time>
  <course>247.07</course>
  <speed>0.02</speed>
  <fix>3d</fix>
</trkpt>
<trkpt lat="40.0713749" lon="-105.229789">
  <ele>1583.0</ele>
  <time>2026-08-28T17:53:59Z</time>
  <course>0.0</course>
  <speed>0.0</speed>
  <fix>3d</fix>
</trkpt>
<trkpt lat="40.0713751" lon="-105.2297889">
  <ele>1583.0</ele>
  <time>2026-08-28T17:53:59Z</time>
  <course>247.07</course>
  <speed>0.02</speed>
  <fix>3d</fix>
</trkpt>
<trkpt lat="40.0713749" lon="-105.229789">
  <ele>1583.0</ele>
  <time>2026-08-28T17:53:59Z</time>
  <course>0.0</course>
  <speed>0.0</speed>
  <fix>3d</fix>
</trkpt>
<trkpt lat="40.0713751" lon="-105.2297889">
  <ele>1583.0</ele>
  <time>2026-08-28T17:53:59Z</time>
  <course>247.07</course>
  <speed>0.02</speed>
  <fix>3d</fix>
</trkpt>
<trkpt lat="40.0713749" lon="-105.229789">
  <ele>1583.0</ele>
  <time>2026-08-28T17:53:59Z</time>
  <course>0.0</course>
  <speed>0.0</speed>
  <fix>3d</fix>
</trkpt>
<trkpt lat="40.0713751" lon="-105.2297889">
  <ele>1582.99</ele>
  <time>2026-08-28T17:53:59Z</time>
  <course>247.07</course>
  <speed>0.02</speed>
  <fix>3d</fix>
</trkpt>
<trkpt lat="40.0713749" lon="-105.229789">
  <ele>1583.0</ele>
  <time>2026-08-28T17:53:59Z</time>
  <course>0.0</course>
  <speed>0.0</speed>
  <fix>3d</fix>
</trkpt>
<trkpt lat="40.0713751" lon="-105.2297889">
  <ele>1582.99</ele>
  <time>2026-08-28T17:53:59Z</time>
  <course>247.07</course>
  <speed>0.02</speed>
  <fix>3d</fix>
</trkpt>
<trkpt lat="40.0713749" lon="-105.229789">
  <ele>1583.0</ele>
  <time>2026-08-28T17:53:59Z</time>
  <course>0.0</course>
  <speed>0.0</speed>
  <fix>3d</fix>
</trkpt>
<trkpt lat="40.0713751" lon="-105.2297889">
  <ele>1582.99</ele>
  <time>2026-08-28T17:53:59Z</time>
  <course>247.07</course>
  <speed>0.022360679774997897</speed>
  <fix>3d</fix>
</trkpt>
<trkpt lat="40.0713749" lon="-105.229789">
  <ele>1583.0</ele>
  <time>2026-08-28T17:53:59Z</time>
  <course>0.0</course>
  <speed>0.0</speed>
  <fix>3d</fix>
</trkpt>
<trkpt lat="40.0713751" lon="-105.2297889">
  <ele>1583.0</ele>
  <time>2026-08-28T17:53:59Z</time>
  <course>247.07</course>
  <speed>0.02</speed>
  <fix>3d</fix>
</trkpt>
<trkpt lat="40.0713749" lon="-105.229789">
  <ele>1583.0</ele>
  <time>2026-08-28T17:53:59Z</time>
  <course>0.0</course>
  <speed>0.0</speed>
  <fix>3d</fix>
</trkpt>
<trkpt lat="40.0713751" lon="-105.2297889">
  <ele>1583.0</ele>
  <time>2026-08-28T17:53:59Z</time>
  <course>247.07</course>
  <speed>0.022360679774997897</speed>
  <fix>3d</fix>
</trkpt>
<trkpt lat="40.0713749" lon="-105.229789">
  <ele>1583.0</ele>
  <time>2026-08-28T17:53:59Z</time>
  <course>0.0</course>
  <speed>0.0</speed>
  <fix>3d</fix>
</trkpt>
<trkpt lat="40.0713751" lon="-105.2297889">
  <ele>1582.99</ele>
  <time>2026-08-28T17:53:59Z</time>
  <course>247.07</course>
  <speed>0.02</speed>
  <fix>3d</fix>
</trkpt>
<trkpt lat="40.0713749" lon="-105.229789">
  <ele>1583.0</ele>
  <time>2026-08-28T17:53:59Z</time>
  <course>0.0</course>
  <speed>0.0</speed>
  <fix>3d</fix>
</trkpt>
<trkpt lat="40.0713751" lon="-105.2297889">
  <ele>1582.99</ele>
  <time>2026-08-28T17:53:59Z</time>
  <course>247.07</course>
  <speed>0.022360679774997897</speed>
  <fix>3d</fix>
</trkpt>
<trkpt lat="40.0713749" lon="-105.229789">
  <ele>1583.0</ele>
  <time>2026-08-28T17:53:59Z</time>
  <course>0.0</course>
  <speed>0.0</speed>
  <fix>3d</fix>
</trkpt>
<trkpt lat="40.0713751" lon="-105.2297889">
  <ele>1582.99</ele>
  <time>2026-08-28T17:53:59Z</time>
  <course>247.07</course>
  <speed>0.022360679774997897</speed>
  <fix>3d</fix>
</trkpt>
<trkpt lat="40.0713749" lon="-105.229789">
  <ele>1583.0</ele>
  <time>2026-08-28T17:53:59Z</time>
  <course>0.0</course>
  <speed>0.0</speed>
  <fix>3d</fix>
</trkpt>
<trkpt lat="40.0713751" lon="-105.2297889">
  <ele>1582.99</ele>
  <time>2026-08-28T17:53:59Z</time>
  <course>247.07</course>
  <speed>0.022360679774997897</speed>
  <fix>3d</fix>
</trkpt>
<trkpt lat="40.0713749" lon="-105.229789">
  <ele>1583.0</ele>
  <time>2026-08-28T17:53:59Z</time>
  <course>0.0</course>
  <speed>0.0</speed>
  <fix>3d</fix>
</trkpt>
<trkpt lat="40.0713751" lon="-105.2297889">
  <ele>1582.99</ele>
  <time>2026-08-28T17:53:59Z</time>
  <course>247.07</course>
  <speed>0.022360679774997897</speed>
  <fix>3d</fix>
</trkpt>
<trkpt lat="40.0713749" lon="-105.229789">
  <ele>1583.0</ele>
  <time>2026-08-28T17:53:59Z</time>
  <course>0.0</course>
  <speed>0.0</speed>
  <fix>3d</fix>
</trkpt>
<trkpt lat="40.0713751" lon="-105.2297889">
  <ele>1582.99</ele>
  <time>2026-08-28T17:53:59Z</time>
  <course>247.07</course>
  <speed>0.022360679774997897</speed>
  <fix>3d</fix>
</trkpt>
<trkpt lat="40.0713749" lon="-105.229789">
  <ele>1583.0</ele>
  <time>2026-08-28T17:53:59Z</time>
  <course>0.0</course>
  <speed>0.0</speed>
  <fix>3d</fix>
</trkpt>
<trkpt lat="40.0713751" lon="-105.2297889">
  <ele>1583.0</ele>
  <time>2026-08-28T17:53:59Z</time>
  <course>247.07</course>
  <speed>0.022360679774997897</speed>
  <fix>3d</fix>
</trkpt>
<trkpt lat="40.0713749" lon="-105.229789">
  <ele>1583.0</ele>
  <time>2026-08-28T17:53:59Z</time>
  <course>0.0</course>
  <speed>0.0</speed>
  <fix>3d</fix>
</trkpt>
<trkpt lat="40.0713751" lon="-105.2297889">
  <ele>1583.0</ele>
  <time>2026-08-28T17:53:59Z</time>
  <course>247.07</course>
  <speed>0.022360679774997897</speed>
  <fix>3d</fix>
</trkpt>
<trkpt lat="40.0713749" lon="-105.229789">
  <ele>1583.0</ele>
  <time>2026-08-28T17:53:59Z</time>
  <course>0.0</course>
  <speed>0.0</speed>
  <fix>3d</fix>
</trkpt>
<trkpt lat="40.0713751" lon="-105.2297889">
  <ele>1583.0</ele>
  <time>2026-08-28T17:53:59Z</time>
  <course>247.07</course>
  <speed>0.022360679774997897</speed>
  <fix>3d</fix>
</trkpt>
<trkpt lat="40.0713749" lon="-105.229789">
  <ele>1583.0</ele>
  <time>2026-08-28T17:53:59Z</time>
  <course>0.0</course>
  <speed>0.0</speed>
  <fix>3d</fix>
</trkpt>
<trkpt lat="40.0713751" lon="-105.2297889">
  <ele>1583.0</ele>
  <time>2026-08-28T17:53:59Z</time>
  <course>247.07</course>
  <speed>0.022360679774997897</speed>
  <fix>3d</fix>
</trkpt>
<trkpt lat="40.0713749" lon="-105.229789">
  <ele>1583.0</ele>
  <time>2026-08-28T17:53:59Z</time>
  <course>0.0</course>
  <speed>0.0</speed>
  <fix>3d</fix>
</trkpt>
<trkpt lat="40.0713751" lon="-105.2297889">
  <ele>1583.01</ele>
  <time>2026-08-28T17:53:59Z</time>
  <course>247.07</course>
  <speed>0.022360679774997897</speed>
  <fix>3d</fix>
</trkpt>
<trkpt lat="40.0713749" lon="-105.229789">
  <ele>1583.0</ele>
  <time>2026-08-28T17:53:59Z</time>
  <course>0.0</course>
  <speed>0.0</speed>
  <fix>3d</fix>
</trkpt>
<trkpt lat="40.0713751" lon="-105.2297889">
  <ele>1583.01</ele>
  <time>2026-08-28T17:53:59Z</time>
  <course>247.07</course>
  <speed>0.022360679774997897</speed>
  <fix>3d</fix>
</trkpt>
<trkpt lat="40.0713749" lon="-105.229789">
  <ele>1583.0</ele>
  <time>2026-08-28T17:53:59Z</time>
  <course>0.0</course>
  <speed>0.0</speed>
  <fix>3d</fix>
</trkpt>
<trkpt lat="40.0713751" lon="-105.2297889">
  <ele>1583.0</ele>
  <time>2026-08-28T17:53:59Z</time>
  <course>247.07</course>
  <speed>0.022360679774997897</speed>
  <fix>3d</fix>
</trkpt>
<trkpt lat="40.0713749" lon="-105.229789">
  <ele>1583.0</ele>
  <time>2026-08-28T17:53:59Z</time>
  <course>0.0</course>
  <speed>0.0</speed>
  <fix>3d</fix>
</trkpt>
<trkpt lat="40.0713751" lon="-105.2297889">
  <ele>1583.01</ele>
  <time>2026-08-28T17:53:59Z</time>
  <course>247.07</course>
  <speed>0.022360679774997897</speed>
  <fix>3d</fix>
</trkpt>
<trkpt lat="40.0713749" lon="-105.229789">
  <ele>1583.0</ele>
  <time>2026-08-28T17:53:59Z</time>
  <course>0.0</course>
  <speed>0.0</speed>
  <fix>3d</fix>
</trkpt>
<trkpt lat="40.0713751" lon="-105.2297889">
  <ele>1583.01</ele>
  <time>2026-08-28T17:53:59Z</time>
  <course>247.07</course>
  <speed>0.022360679774997897</speed>
  <fix>3d</fix>
</trkpt>
<trkpt lat="40.0713749" lon="-105.229789">
  <ele>1583.0</ele>
  <time>2026-08-28T17:53:59Z</time>
  <course>0.0</course>
  <speed>0.0</speed>
  <fix>3d</fix>
</trkpt>
<trkpt lat="40.0713751" lon="-105.2297889">
  <ele>1583.01</ele>
  <time>2026-08-28T17:53:59Z</time>
  <course>247.07</course>
  <speed>0.022360679774997897</speed>
  <fix>3d</fix>
</trkpt>
<trkpt lat="40.0713749" lon="-105.229789">
  <ele>1583.0</ele>
  <time>2026-08-28T17:53:59Z</time>
  <course>0.0</course>
  <speed>0.0</speed>
  <fix>3d</fix>
</trkpt>
<trkpt lat="40.0713751" lon="-105.2297889">
  <ele>1583.01</ele>
  <time>2026-08-28T17:53:59Z</time>
  <course>247.07</course>
  <speed>0.022360679774997897</speed>
  <fix>3d</fix>
</trkpt>
<trkpt lat="40.0713749" lon="-105.229789">
  <ele>1583.0</ele>
  <time>2026-08-28T17:53:59Z</time>
  <course>0.0</course>
  <speed>0.0</speed>
  <fix>3d</fix>
</trkpt>
<trkpt lat="40.0713751" lon="-105.2297889">
  <ele>1583.01</ele>
  <time>2026-08-28T17:53:59Z</time>
  <course>247.07</course>
  <speed>0.022360679774997897</speed>
  <fix>3d</fix>
</trkpt>
<trkpt lat="40.0713749" lon="-105.229789">
  <ele>1583.0</ele>
  <time>2026-08-28T17:53:59Z</time>
  <course>0.0</course>
  <speed>0.0</speed>
  <fix>3d</fix>
</trkpt>
<trkpt lat="40.0713751" lon="-105.2297889">
  <ele>1583.01</ele>
  <time>2026-08-28T17:53:59Z</time>
  <course>247.07</course>
  <speed>0.022360679774997897</speed>
  <fix>3d</fix>
</trkpt>
<trkpt lat="40.0713749" lon="-105.229789">
  <ele>1583.0</ele>
  <time>2026-08-28T17:53:59Z</time>
  <course>0.0</course>
  <speed>0.0</speed>
  <fix>3d</fix>
</trkpt>
<trkpt lat="40.0713751" lon="-105.2297889">
  <ele>1583.01</ele>
  <time>2026-08-28T17:53:59Z</time>
  <course>247.07</course>
  <speed>0.022360679774997897</speed>
  <fix>3d</fix>
</trkpt>
<trkpt lat="40.0713749" lon="-105.229789">
  <ele>1583.0</ele>
  <time>2026-08-28T17:53:59Z</time>
  <course>0.0</course>
  <speed>0.0</speed>
  <fix>3d</fix>
</trkpt>
<trkpt lat="40.0713751" lon="-105.2297889">
  <ele>1583.01</ele>
  <time>2026-08-28T17:53:59Z</time>
  <course>247.07</course>
  <speed>0.022360679774997897</speed>
  <fix>3d</fix>
</trkpt>
<trkpt lat="40.0713749" lon="-105.229789">
  <ele>1583.0</ele>
  <time>2026-08-28T17:53:59Z</time>
  <course>0.0</course>
  <speed>0.0</speed>
  <fix>3d</fix>
</trkpt>
<trkpt lat="40.0713751" lon="-105.2297889">
  <ele>1583.01</ele>
  <time>2026-08-28T17:53:59Z</time>
  <course>247.07</course>
  <speed>0.022360679774997897</speed>
  <fix>3d</fix>
</trkpt>
<trkpt lat="40.0713749" lon="-105.229789">
  <ele>1583.0</ele>
  <time>2026-08-28T17:53:59Z</time>
  <course>0.0</course>
  <speed>0.0</speed>
  <fix>3d</fix>
</trkpt>
<trkpt lat="40.0713751" lon="-105.2297889">
  <ele>1583.01</ele>
  <time>2026-08-28T17:53:59Z</time>
  <course>247.07</course>
  <speed>0.022360679774997897</speed>
  <fix>3d</fix>
</trkpt>
<trkpt lat="40.0713749" lon="-105.229789">
  <ele>1583.0</ele>
  <time>2026-08-28T17:53:59Z</time>
  <course>0.0</course>
  <speed>0.0</speed>
  <fix>3d</fix>
</trkpt>
<trkpt lat="40.0713751" lon="-105.2297889">
  <ele>1583.01</ele>
  <time>2026-08-28T17:53:59Z</time>
  <course>247.07</course>
  <speed>0.022360679774997897</speed>
  <fix>3d</fix>
</trkpt>
<trkpt lat="40.0713749" lon="-105.229789">
  <ele>1583.0</ele>
  <time>2026-08-28T17:53:59Z</time>
  <course>0.0</course>
  <speed>0.0</speed>
  <fix>3d</fix>
</trkpt>
<trkpt lat="40.0713751" lon="-105.2297889">
  <ele>1583.01</ele>
  <time>2026-08-28T17:53:59Z</time>
  <course>247.07</course>
  <speed>0.022360679774997897</speed>
  <fix>3d</fix>
</trkpt>
<trkpt lat="40.0713749" lon="-105.229789">
  <ele>1583.0</ele>
  <time>2026-08-28T17:53:59Z</time>
  <course>0.0</course>
  <speed>0.0</speed>
  <fix>3d</fix>
</trkpt>
<trkpt lat="40.0713751" lon="-105.2297889">
  <ele>1583.02</ele>
  <time>2026-08-28T17:53:59Z</time>
  <course>247.07</course>
  <speed>0.022360679774997897</speed>
  <fix>3d</fix>
</trkpt>
<trkpt lat="40.0713749" lon="-105.229789">
  <ele>1583.0</ele>
  <time>2026-08-28T17:53:59Z</time>
  <course>0.0</course>
  <speed>0.0</speed>
  <fix>3d</fix>
</trkpt>
<trkpt lat="40.0713751" lon="-105.2297889">
  <ele>1583.02</ele>
  <time>2026-08-28T17:53:59Z</time>
  <course>247.07</course>
  <speed>0.02</speed>
  <fix>3d</fix>
</trkpt>
<trkpt lat="40.0713749" lon="-105.229789">
  <ele>1583.0</ele>
  <time>2026-08-28T17:53:59Z</time>
  <course>0.0</course>
  <speed>0.0</speed>
  <fix>3d</fix>
</trkpt>
<trkpt lat="40.0713751" lon="-105.2297889">
  <ele>1583.02</ele>
  <time>2026-08-28T17:53:59Z</time>
  <course>247.07</course>
  <speed>0.022360679774997897</speed>
  <fix>3d</fix>
</trkpt>
<trkpt lat="40.0713749" lon="-105.229789">
  <ele>1583.0</ele>
  <time>2026-08-28T17:53:59Z</time>
  <course>0.0</course>
  <speed>0.0</speed>
  <fix>3d</fix>
</trkpt>
<trkpt lat="40.0713751" lon="-105.2297889">
  <ele>1583.03</ele>
  <time>2026-08-28T17:53:59Z</time>
  <course>247.07</course>
  <speed>0.02</speed>
  <fix>3d</fix>
</trkpt>
<trkpt lat="40.0713749" lon="-105.229789">
  <ele>1583.0</ele>
  <time>2026-08-28T17:53:59Z</time>
  <course>0.0</course>
  <speed>0.0</speed>
  <fix>3d</fix>
</trkpt>
<trkpt lat="40.0713751" lon="-105.2297889">
  <ele>1583.03</ele>
  <time>2026-08-28T17:53:59Z</time>
  <course>247.07</course>
  <speed>0.022360679774997897</speed>
  <fix>3d</fix>
</trkpt>
<trkpt lat="40.0713749" lon="-105.229789">
  <ele>1583.0</ele>
  <time>2026-08-28T17:53:59Z</time>
  <course>0.0</course>
  <speed>0.0</speed>
  <fix>3d</fix>
</trkpt>
<trkpt lat="40.0713751" lon="-105.2297889">
  <ele>1583.03</ele>
  <time>2026-08-28T17:53:59Z</time>
  <course>247.07</course>
  <speed>0.02</speed>
  <fix>3d</fix>
</trkpt>
<trkpt lat="40.0713749" lon="-105.229789">
  <ele>1583.0</ele>
  <time>2026-08-28T17:53:59Z</time>
  <course>0.0</course>
  <speed>0.0</speed>
  <fix>3d</fix>
</trkpt>
<trkpt lat="40.0713751" lon="-105.2297889">
  <ele>1583.03</ele>
  <time>2026-08-28T17:53:59Z</time>
  <course>247.07</course>
  <speed>0.022360679774997897</speed>
  <fix>3d</fix>
</trkpt>
<trkpt lat="40.0713749" lon="-105.229789">
  <ele>1583.0</ele>
  <time>2026-08-28T17:53:59Z</time>
  <course>0.0</course>
  <speed>0.0</speed>
  <fix>3d</fix>
</trkpt>
<trkpt lat="40.071375" lon="-105.2297889">
  <ele>1583.03</ele>
  <time>2026-08-28T17:53:59Z</time>
  <course>247.07</course>
  <speed>0.022360679774997897</speed>
  <fix>3d</fix>
</trkpt>
<trkpt lat="40.0713749" lon="-105.229789">
  <ele>1583.0</ele>
  <time>2026-08-28T17:53:59Z</time>
  <course>0.0</course>
  <speed>0.0</speed>
  <fix>3d</fix>
</trkpt>
<trkpt lat="40.0713751" lon="-105.2297889">
  <ele>1583.03</ele>
  <time>2026-08-28T17:53:59Z</time>
  <course>247.07</course>
  <speed>0.022360679774997897</speed>
  <fix>3d</fix>
</trkpt>
<trkpt lat="40.0713749" lon="-105.229789">
  <ele>1583.0</ele>
  <time>2026-08-28T17:53:59Z</time>
  <course>0.0</course>
  <speed>0.0</speed>
  <fix>3d</fix>
</trkpt>
<trkpt lat="40.071375" lon="-105.2297889">
  <ele>1583.03</ele>
  <time>2026-08-28T17:53:59Z</time>
  <course>247.06</course>
  <speed>0.022360679774997897</speed>
  <fix>3d</fix>
</trkpt>
<trkpt lat="40.0713749" lon="-105.229789">
  <ele>1583.0</ele>
  <time>2026-08-28T17:53:59Z</time>
  <course>0.0</course>
  <speed>0.0</speed>
  <fix>3d</fix>
</trkpt>
<trkpt lat="40.0713751" lon="-105.2297889">
  <ele>1583.02</ele>
  <time>2026-08-28T17:53:59Z</time>
  <course>247.07</course>
  <speed>0.022360679774997897</speed>
  <fix>3d</fix>
</trkpt>
<trkpt lat="40.0713749" lon="-105.229789">
  <ele>1583.0</ele>
  <time>2026-08-28T17:53:59Z</time>
  <course>0.0</course>
  <speed>0.0</speed>
  <fix>3d</fix>
</trkpt>
<trkpt lat="40.071375" lon="-105.2297889">
  <ele>1583.02</ele>
  <time>2026-08-28T17:53:59Z</time>
  <course>247.06</course>
  <speed>0.022360679774997897</speed>
  <fix>3d</fix>
</trkpt>
<trkpt lat="40.0713749" lon="-105.229789">
  <ele>1583.0</ele>
  <time>2026-08-28T17:53:59Z</time>
  <course>0.0</course>
  <speed>0.0</speed>
  <fix>3d</fix>
</trkpt>
<trkpt lat="40.0713751" lon="-105.2297889">
  <ele>1583.03</ele>
  <time>2026-08-28T17:53:59Z</time>
  <course>247.06</course>
  <speed>0.022360679774997897</speed>
  <fix>3d</fix>
</trkpt>
<trkpt lat="40.0713749" lon="-105.229789">
  <ele>1583.0</ele>
  <time>2026-08-28T17:53:59Z</time>
  <course>0.0</course>
  <speed>0.0</speed>
  <fix>3d</fix>
</trkpt>
<trkpt lat="40.071375" lon="-105.2297889">
  <ele>1583.03</ele>
  <time>2026-08-28T17:53:59Z</time>
  <course>247.06</course>
  <speed>0.022360679774997897</speed>
  <fix>3d</fix>
</trkpt>
<trkpt lat="40.0713749" lon="-105.229789">
  <ele>1583.0</ele>
  <time>2026-08-28T17:53:59Z</time>
  <course>0.0</course>
  <speed>0.0</speed>
  <fix>3d</fix>
</trkpt>
<trkpt lat="40.0713751" lon="-105.2297889">
  <ele>1583.03</ele>
  <time>2026-08-28T17:53:59Z</time>
  <course>247.06</course>
  <speed>0.022360679774997897</speed>
  <fix>3d</fix>
</trkpt>
<trkpt lat="40.0713749" lon="-105.229789">
  <ele>1583.0</ele>
  <time>2026-08-28T17:53:59Z</time>
  <course>0.0</course>
  <speed>0.0</speed>
  <fix>3d</fix>
</trkpt>
<trkpt lat="40.071375" lon="-105.2297889">
  <ele>1583.04</ele>
  <time>2026-08-28T17:53:59Z</time>
  <course>247.06</course>
  <speed>0.022360679774997897</speed>
  <fix>3d</fix>
</trkpt>
<trkpt lat="40.0713749" lon="-105.229789">
  <ele>1583.0</ele>
  <time>2026-08-28T17:53:59Z</time>
  <course>0.0</course>
  <speed>0.0</speed>
  <fix>3d</fix>
</trkpt>
<trkpt lat="40.0713751" lon="-105.2297889">
  <ele>1583.04</ele>
  <time>2026-08-28T17:53:59Z</time>
  <course>247.06</course>
  <speed>0.022360679774997897</speed>
  <fix>3d</fix>
</trkpt>
<trkpt lat="40.0713749" lon="-105.229789">
  <ele>1583.0</ele>
  <time>2026-08-28T17:53:59Z</time>
  <course>0.0</course>
  <speed>0.0</speed>
  <fix>3d</fix>
</trkpt>
<trkpt lat="40.071375" lon="-105.2297889">
  <ele>1583.04</ele>
  <time>2026-08-28T17:53:59Z</time>
  <course>247.06</course>
  <speed>0.022360679774997897</speed>
  <fix>3d</fix>
</trkpt>
<trkpt lat="40.0713749" lon="-105.229789">
  <ele>1583.0</ele>
  <time>2026-08-28T17:53:59Z</time>
  <course>0.0</course>
  <speed>0.0</speed>
  <fix>3d</fix>
</trkpt>
<trkpt lat="40.0713751" lon="-105.2297889">
  <ele>1583.04</ele>
  <time>2026-08-28T17:53:59Z</time>
  <course>247.06</course>
  <speed>0.022360679774997897</speed>
  <fix>3d</fix>
</trkpt>
<trkpt lat="40.0713749" lon="-105.229789">
  <ele>1583.0</ele>
  <time>2026-08-28T17:53:59Z</time>
  <course>0.0</course>
  <speed>0.0</speed>
  <fix>3d</fix>
</trkpt>
<trkpt lat="40.0713751" lon="-105.2297889">
  <ele>1583.04</ele>
  <time>2026-08-28T17:53:59Z</time>
  <course>247.06</course>
  <speed>0.022360679774997897</speed>
  <fix>3d</fix>
</trkpt>
<trkpt lat="40.0713749" lon="-105.229789">
  <ele>1583.0</ele>
  <time>2026-08-28T17:53:59Z</time>
  <course>0.0</course>
  <speed>0.0</speed>
  <fix>3d</fix>
</trkpt>
<trkpt lat="40.0713751" lon="-105.2297889">
  <ele>1583.05</ele>
  <time>2026-08-28T17:53:59Z</time>
  <course>247.06</course>
  <speed>0.022360679774997897</speed>
  <fix>3d</fix>
</trkpt>
<trkpt lat="40.0713749" lon="-105.229789">
  <ele>1583.0</ele>
  <time>2026-08-28T17:53:59Z</time>
  <course>0.0</course>
  <speed>0.0</speed>
  <fix>3d</fix>
</trkpt>
<trkpt lat="40.0713751" lon="-105.2297889">
  <ele>1583.05</ele>
  <time>2026-08-28T17:53:59Z</time>
  <course>247.06</course>
  <speed>0.022360679774997897</speed>
  <fix>3d</fix>
</trkpt>
<trkpt lat="40.0713749" lon="-105.229789">
  <ele>1583.0</ele>
  <time>2026-08-28T17:53:59Z</time>
  <course>0.0</course>
  <speed>0.0</speed>
  <fix>3d</fix>
</trkpt>
<trkpt lat="40.0713751" lon="-105.2297889">
  <ele>1583.05</ele>
  <time>2026-08-28T17:53:59Z</time>
  <course>247.06</course>
  <speed>0.022360679774997897</speed>
  <fix>3d</fix>
</trkpt>
<trkpt lat="40.0713749" lon="-105.229789">
  <ele>1583.0</ele>
  <time>2026-08-28T17:53:59Z</time>
  <course>0.0</course>
  <speed>0.0</speed>
  <fix>3d</fix>
</trkpt>
<trkpt lat="40.0713751" lon="-105.2297889">
  <ele>1583.05</ele>
  <time>2026-08-28T17:53:59Z</time>
  <course>247.06</course>
  <speed>0.022360679774997897</speed>
  <fix>3d</fix>
</trkpt>
<trkpt lat="40.0713749" lon="-105.229789">
  <ele>1583.0</ele>
  <time>2026-08-28T17:53:59Z</time>
  <course>0.0</course>
  <speed>0.0</speed>
  <fix>3d</fix>
</trkpt>
<trkpt lat="40.0713751" lon="-105.2297889">
  <ele>1583.05</ele>
  <time>2026-08-28T17:53:59Z</time>
  <course>247.06</course>
  <speed>0.022360679774997897</speed>
  <fix>3d</fix>
</trkpt>
<trkpt lat="40.0713749" lon="-105.229789">
  <ele>1583.0</ele>
  <time>2026-08-28T17:53:59Z</time>
  <course>0.0</course>
  <speed>0.0</speed>
  <fix>3d</fix>
</trkpt>
<trkpt lat="40.0713751" lon="-105.2297889">
  <ele>1583.05</ele>
  <time>2026-08-28T17:53:59Z</time>
  <course>247.06</course>
  <speed>0.022360679774997897</speed>
  <fix>3d</fix>
</trkpt>
<trkpt lat="40.0713749" lon="-105.229789">
  <ele>1583.0</ele>
  <time>2026-08-28T17:53:59Z</time>
  <course>0.0</course>
  <speed>0.0</speed>
  <fix>3d</fix>
</trkpt>
<trkpt lat="40.0713751" lon="-105.2297889">
  <ele>1583.05</ele>
  <time>2026-08-28T17:53:59Z</time>
  <course>247.06</course>
  <speed>0.022360679774997897</speed>
  <fix>3d</fix>
</trkpt>
<trkpt lat="40.0713749" lon="-105.229789">
  <ele>1583.0</ele>
  <time>2026-08-28T17:53:59Z</time>
  <course>0.0</course>
  <speed>0.0</speed>
  <fix>3d</fix>
</trkpt>
<trkpt lat="40.071375" lon="-105.2297889">
  <ele>1583.05</ele>
  <time>2026-08-28T17:53:59Z</time>
  <course>247.06</course>
  <speed>0.022360679774997897</speed>
  <fix>3d</fix>
</trkpt>
<trkpt lat="40.0713749" lon="-105.229789">
  <ele>1583.0</ele>
  <time>2026-08-28T17:53:59Z</time>
  <course>0.0</course>
  <speed>0.0</speed>
  <fix>3d</fix>
</trkpt>
<trkpt lat="40.0713751" lon="-105.2297889">
  <ele>1583.05</ele>
  <time>2026-08-28T17:53:59Z</time>
  <course>247.06</course>
  <speed>0.022360679774997897</speed>
  <fix>3d</fix>
</trkpt>
<trkpt lat="40.0713749" lon="-105.229789">
  <ele>1583.0</ele>
  <time>2026-08-28T17:53:59Z</time>
  <course>0.0</course>
  <speed>0.0</speed>
  <fix>3d</fix>
</trkpt>
<trkpt lat="40.071375" lon="-105.2297889">
  <ele>1583.05</ele>
  <time>2026-08-28T17:53:59Z</time>
  <course>247.06</course>
  <speed>0.022360679774997897</speed>
  <fix>3d</fix>
</trkpt>
<trkpt lat="40.0713749" lon="-105.229789">
  <ele>1583.0</ele>
  <time>2026-08-28T17:53:59Z</time>
  <course>0.0</course>
  <speed>0.0</speed>
  <fix>3d</fix>
</trkpt>
<trkpt lat="40.0713751" lon="-105.2297889">
  <ele>1583.05</ele>
  <time>2026-08-28T17:53:59Z</time>
  <course>247.06</course>
  <speed>0.022360679774997897</speed>
  <fix>3d</fix>
</trkpt>
<trkpt lat="40.0713749" lon="-105.229789">
  <ele>1583.0</ele>
  <time>2026-08-28T17:53:59Z</time>
  <course>0.0</course>
  <speed>0.0</speed>
  <fix>3d</fix>
</trkpt>
<trkpt lat="40.071375" lon="-105.2297889">
  <ele>1583.05</ele>
  <time>2026-08-28T17:53:59Z</time>
  <course>247.06</course>
  <speed>0.022360679774997897</speed>
  <fix>3d</fix>
</trkpt>
<trkpt lat="40.0713749" lon="-105.229789">
  <ele>1583.0</ele>
  <time>2026-08-28T17:53:59Z</time>
  <course>0.0</course>
  <speed>0.0</speed>
  <fix>3d</fix>
</trkpt>
<trkpt lat="40.0713751" lon="-105.2297889">
  <ele>1583.05</ele>
  <time>2026-08-28T17:53:59Z</time>
  <course>247.06</course>
  <speed>0.022360679774997897</speed>
  <fix>3d</fix>
</trkpt>
<trkpt lat="40.0713749" lon="-105.229789">
  <ele>1583.0</ele>
  <time>2026-08-28T17:53:59Z</time>
  <course>0.0</course>
  <speed>0.0</speed>
  <fix>3d</fix>
</trkpt>
<trkpt lat="40.071375" lon="-105.2297889">
  <ele>1583.05</ele>
  <time>2026-08-28T17:53:59Z</time>
  <course>247.06</course>
  <speed>0.022360679774997897</speed>
  <fix>3d</fix>
</trkpt>
<trkpt lat="40.0713749" lon="-105.229789">
  <ele>1583.0</ele>
  <time>2026-08-28T17:53:59Z</time>
  <course>0.0</course>
  <speed>0.0</speed>
  <fix>3d</fix>
</trkpt>
<trkpt lat="40.0713751" lon="-105.2297889">
  <ele>1583.04</ele>
  <time>2026-08-28T17:53:59Z</time>
  <course>247.06</course>
  <speed>0.022360679774997897</speed>
  <fix>3d</fix>
</trkpt>
<trkpt lat="40.0713749" lon="-105.229789">
  <ele>1583.0</ele>
  <time>2026-08-28T17:53:59Z</time>
  <course>0.0</course>
  <speed>0.0</speed>
  <fix>3d</fix>
</trkpt>
<trkpt lat="40.071375" lon="-105.2297889">
  <ele>1583.04</ele>
  <time>2026-08-28T17:53:59Z</time>
  <course>247.06</course>
  <speed>0.022360679774997897</speed>
  <fix>3d</fix>
</trkpt>
<trkpt lat="40.0713749" lon="-105.229789">
  <ele>1583.0</ele>
  <time>2026-08-28T17:53:59Z</time>
  <course>0.0</course>
  <speed>0.0</speed>
  <fix>3d</fix>
</trkpt>
<trkpt lat="40.0713751" lon="-105.2297889">
  <ele>1583.04</ele>
  <time>2026-08-28T17:53:59Z</time>
  <course>247.06</course>
  <speed>0.022360679774997897</speed>
  <fix>3d</fix>
</trkpt>
<trkpt lat="40.0713749" lon="-105.229789">
  <ele>1583.0</ele>
  <time>2026-08-28T17:53:59Z</time>
  <course>0.0</course>
  <speed>0.0</speed>
  <fix>3d</fix>
</trkpt>
<trkpt lat="40.071375" lon="-105.2297889">
  <ele>1583.04</ele>
  <time>2026-08-28T17:53:59Z</time>
  <course>247.06</course>
  <speed>0.022360679774997897</speed>
  <fix>3d</fix>
</trkpt>
<trkpt lat="40.0713749" lon="-105.229789">
  <ele>1583.0</ele>
  <time>2026-08-28T17:53:59Z</time>
  <course>0.0</course>
  <speed>0.0</speed>
  <fix>3d</fix>
</trkpt>
<trkpt lat="40.0713751" lon="-105.2297889">
  <ele>1583.04</ele>
  <time>2026-08-28T17:53:59Z</time>
  <course>247.06</course>
  <speed>0.022360679774997897</speed>
  <fix>3d</fix>
</trkpt>
<trkpt lat="40.0713749" lon="-105.229789">
  <ele>1583.0</ele>
  <time>2026-08-28T17:53:59Z</time>
  <course>0.0</course>
  <speed>0.0</speed>
  <fix>3d</fix>
</trkpt>
<trkpt lat="40.0713751" lon="-105.2297889">
  <ele>1583.04</ele>
  <time>2026-08-28T17:53:59Z</time>
  <course>247.06</course>
  <speed>0.022360679774997897</speed>
  <fix>3d</fix>
</trkpt>
<trkpt lat="40.0713749" lon="-105.229789">
  <ele>1583.0</ele>
  <time>2026-08-28T17:53:59Z</time>
  <course>0.0</course>
  <speed>0.0</speed>
  <fix>3d</fix>
</trkpt>
<trkpt lat="40.0713751" lon="-105.2297889">
  <ele>1583.04</ele>
  <time>2026-08-28T17:53:59Z</time>
  <course>247.06</course>
  <speed>0.022360679774997897</speed>
  <fix>3d</fix>
</trkpt>
<trkpt lat="40.0713749" lon="-105.229789">
  <ele>1583.0</ele>
  <time>2026-08-28T17:53:59Z</time>
  <course>0.0</course>
  <speed>0.0</speed>
  <fix>3d</fix>
</trkpt>
<trkpt lat="40.0713751" lon="-105.2297889">
  <ele>1583.04</ele>
  <time>2026-08-28T17:53:59Z</time>
  <course>247.06</course>
  <speed>0.022360679774997897</speed>
  <fix>3d</fix>
</trkpt>
<trkpt lat="40.0713749" lon="-105.229789">
  <ele>1583.0</ele>
  <time>2026-08-28T17:53:59Z</time>
  <course>0.0</course>
  <speed>0.0</speed>
  <fix>3d</fix>
</trkpt>
<trkpt lat="40.0713751" lon="-105.2297889">
  <ele>1583.04</ele>
  <time>2026-08-28T17:53:59Z</time>
  <course>247.06</course>
  <speed>0.022360679774997897</speed>
  <fix>3d</fix>
</trkpt>
<trkpt lat="40.0713749" lon="-105.229789">
  <ele>1583.0</ele>
  <time>2026-08-28T17:53:59Z</time>
  <course>0.0</course>
  <speed>0.0</speed>
  <fix>3d</fix>
</trkpt>
<trkpt lat="40.0713751" lon="-105.2297889">
  <ele>1583.04</ele>
  <time>2026-08-28T17:53:59Z</time>
  <course>247.06</course>
  <speed>0.022360679774997897</speed>
  <fix>3d</fix>
</trkpt>
<trkpt lat="40.0713749" lon="-105.229789">
  <ele>1583.0</ele>
  <time>2026-08-28T17:53:59Z</time>
  <course>0.0</course>
  <speed>0.0</speed>
  <fix>3d</fix>
</trkpt>
<trkpt lat="40.0713751" lon="-105.2297889">
  <ele>1583.04</ele>
  <time>2026-08-28T17:53:59Z</time>
  <course>247.06</course>
  <speed>0.022360679774997897</speed>
  <fix>3d</fix>
</trkpt>
<trkpt lat="40.0713749" lon="-105.229789">
  <ele>1583.0</ele>
  <time>2026-08-28T17:53:59Z</time>
  <course>0.0</course>
  <speed>0.0</speed>
  <fix>3d</fix>
</trkpt>
<trkpt lat="40.0713751" lon="-105.2297889">
  <ele>1583.04</ele>
  <time>2026-08-28T17:53:59Z</time>
  <course>247.06</course>
  <speed>0.022360679774997897</speed>
  <fix>3d</fix>
</trkpt>
<trkpt lat="40.0713749" lon="-105.229789">
  <ele>1583.0</ele>
  <time>2026-08-28T17:53:59Z</time>
  <course>0.0</course>
  <speed>0.0</speed>
  <fix>3d</fix>
</trkpt>
<trkpt lat="40.0713751" lon="-105.2297889">
  <ele>1583.04</ele>
  <time>2026-08-28T17:53:59Z</time>
  <course>247.06</course>
  <speed>0.022360679774997897</speed>
  <fix>3d</fix>
</trkpt>
<trkpt lat="40.0713749" lon="-105.229789">
  <ele>1583.0</ele>
  <time>2026-08-28T17:53:59Z</time>
  <course>0.0</course>
  <speed>0.0</speed>
  <fix>3d</fix>
</trkpt>
<trkpt lat="40.071375" lon="-105.2297889">
  <ele>1583.04</ele>
  <time>2026-08-28T17:53:59Z</time>
  <course>247.06</course>
  <speed>0.022360679774997897</speed>
  <fix>3d</fix>
</trkpt>
<trkpt lat="40.0713749" lon="-105.229789">
  <ele>1583.0</ele>
  <time>2026-08-28T17:53:59Z</time>
  <course>0.0</course>
  <speed>0.0</speed>
  <fix>3d</fix>
</trkpt>
<trkpt lat="40.0713751" lon="-105.2297889">
  <ele>1583.03</ele>
  <time>2026-08-28T17:53:59Z</time>
  <course>247.06</course>
  <speed>0.022360679774997897</speed>
  <fix>3d</fix>
</trkpt>
<trkpt lat="40.0713749" lon="-105.229789">
  <ele>1583.0</ele>
  <time>2026-08-28T17:53:59Z</time>
  <course>0.0</course>
  <speed>0.0</speed>
  <fix>3d</fix>
</trkpt>
<trkpt lat="40.071375" lon="-105.2297889">
  <ele>1583.03</ele>
  <time>2026-08-28T17:53:59Z</time>
  <course>247.06</course>
  <speed>0.022360679774997897</speed>
  <fix>3d</fix>
</trkpt>
<trkpt lat="40.0713749" lon="-105.229789">
  <ele>1583.0</ele>
  <time>2026-08-28T17:53:59Z</time>
  <course>0.0</course>
  <speed>0.0</speed>
  <fix>3d</fix>
</trkpt>
<trkpt lat="40.0713751" lon="-105.2297889">
  <ele>1583.03</ele>
  <time>2026-08-28T17:53:59Z</time>
  <course>247.06</course>
  <speed>0.022360679774997897</speed>
  <fix>3d</fix>
</trkpt>
<trkpt lat="40.0713749" lon="-105.229789">
  <ele>1583.0</ele>
  <time>2026-08-28T17:53:59Z</time>
  <course>0.0</course>
  <speed>0.0</speed>
  <fix>3d</fix>
</trkpt>
<trkpt lat="40.071375" lon="-105.2297889">
  <ele>1583.02</ele>
  <time>2026-08-28T17:53:59Z</time>
  <course>247.06</course>
  <speed>0.022360679774997897</speed>
  <fix>3d</fix>
</trkpt>
<trkpt lat="40.0713749" lon="-105.229789">
  <ele>1583.0</ele>
  <time>2026-08-28T17:53:59Z</time>
  <course>0.0</course>
  <speed>0.0</speed>
  <fix>3d</fix>
</trkpt>
<trkpt lat="40.0713751" lon="-105.2297889">
  <ele>1583.02</ele>
  <time>2026-08-28T17:53:59Z</time>
  <course>247.06</course>
  <speed>0.022360679774997897</speed>
  <fix>3d</fix>
</trkpt>
<trkpt lat="40.0713749" lon="-105.229789">
  <ele>1583.0</ele>
  <time>2026-08-28T17:53:59Z</time>
  <course>0.0</course>
  <speed>0.0</speed>
  <fix>3d</fix>
</trkpt>
<trkpt lat="40.0713751" lon="-105.2297889">
  <ele>1583.02</ele>
  <time>2026-08-28T17:53:59Z</time>
  <course>247.06</course>
  <speed>0.022360679774997897</speed>
  <fix>3d</fix>
</trkpt>
<trkpt lat="40.0713749" lon="-105.229789">
  <ele>1583.0</ele>
  <time>2026-08-28T17:53:59Z</time>
  <course>0.0</course>
  <speed>0.0</speed>
  <fix>3d</fix>
</trkpt>
<trkpt lat="40.0713751" lon="-105.2297889">
  <ele>1583.02</ele>
  <time>2026-08-28T17:53:59Z</time>
  <course>247.06</course>
  <speed>0.022360679774997897</speed>
  <fix>3d</fix>
</trkpt>
<trkpt lat="40.0713749" lon="-105.229789">
  <ele>1583.0</ele>
  <time>2026-08-28T17:53:59Z</time>
  <course>0.0</course>
  <speed>0.0</speed>
  <fix>3d</fix>
</trkpt>
<trkpt lat="40.0713751" lon="-105.2297889">
  <ele>1583.02</ele>
  <time>2026-08-28T17:53:59Z</time>
  <course>247.06</course>
  <speed>0.022360679774997897</speed>
  <fix>3d</fix>
</trkpt>
<trkpt lat="40.0713749" lon="-105.229789">
  <ele>1583.0</ele>
  <time>2026-08-28T17:53:59Z</time>
  <course>0.0</course>
  <speed>0.0</speed>
  <fix>3d</fix>
</trkpt>
<trkpt lat="40.0713751" lon="-105.2297889">
  <ele>1583.02</ele>
  <time>2026-08-28T17:53:59Z</time>
  <course>247.06</course>
  <speed>0.022360679774997897</speed>
  <fix>3d</fix>
</trkpt>
<trkpt lat="40.0713749" lon="-105.229789">
  <ele>1583.0</ele>
  <time>2026-08-28T17:53:59Z</time>
  <course>0.0</course>
  <speed>0.0</speed>
  <fix>3d</fix>
</trkpt>
<trkpt lat="40.0713751" lon="-105.2297889">
  <ele>1583.02</ele>
  <time>2026-08-28T17:53:59Z</time>
  <course>247.06</course>
  <speed>0.022360679774997897</speed>
  <fix>3d</fix>
</trkpt>
<trkpt lat="40.0713749" lon="-105.229789">
  <ele>1583.0</ele>
  <time>2026-08-28T17:53:59Z</time>
  <course>0.0</course>
  <speed>0.0</speed>
  <fix>3d</fix>
</trkpt>
<trkpt lat="40.0713751" lon="-105.2297889">
  <ele>1583.02</ele>
  <time>2026-08-28T17:53:59Z</time>
  <course>247.06</course>
  <speed>0.022360679774997897</speed>
  <fix>3d</fix>
</trkpt>
<trkpt lat="40.0713749" lon="-105.229789">
  <ele>1583.0</ele>
  <time>2026-08-28T17:53:59Z</time>
  <course>0.0</course>
  <speed>0.0</speed>
  <fix>3d</fix>
</trkpt>
<trkpt lat="40.0713751" lon="-105.2297889">
  <ele>1583.02</ele>
  <time>2026-08-28T17:53:59Z</time>
  <course>247.06</course>
  <speed>0.022360679774997897</speed>
  <fix>3d</fix>
</trkpt>
<trkpt lat="40.0713749" lon="-105.229789">
  <ele>1583.0</ele>
  <time>2026-08-28T17:53:59Z</time>
  <course>0.0</course>
  <speed>0.0</speed>
  <fix>3d</fix>
</trkpt>
<trkpt lat="40.0713751" lon="-105.2297889">
  <ele>1583.02</ele>
  <time>2026-08-28T17:53:59Z</time>
  <course>247.06</course>
  <speed>0.022360679774997897</speed>
  <fix>3d</fix>
</trkpt>
<trkpt lat="40.0713749" lon="-105.229789">
  <ele>1583.0</ele>
  <time>2026-08-28T17:53:59Z</time>
  <course>0.0</course>
  <speed>0.0</speed>
  <fix>3d</fix>
</trkpt>
<trkpt lat="40.0713751" lon="-105.2297889">
  <ele>1583.02</ele>
  <time>2026-08-28T17:53:59Z</time>
  <course>247.06</course>
  <speed>0.022360679774997897</speed>
  <fix>3d</fix>
</trkpt>
<trkpt lat="40.0713749" lon="-105.229789">
  <ele>1583.0</ele>
  <time>2026-08-28T17:53:59Z</time>
  <course>0.0</course>
  <speed>0.0</speed>
  <fix>3d</fix>
</trkpt>
<trkpt lat="40.0713751" lon="-105.2297889">
  <ele>1583.02</ele>
  <time>2026-08-28T17:53:59Z</time>
  <course>247.06</course>
  <speed>0.022360679774997897</speed>
  <fix>3d</fix>
</trkpt>
<trkpt lat="40.0713749" lon="-105.229789">
  <ele>1583.0</ele>
  <time>2026-08-28T17:53:59Z</time>
  <course>0.0</course>
  <speed>0.0</speed>
  <fix>3d</fix>
</trkpt>
<trkpt lat="40.0713751" lon="-105.2297889">
  <ele>1583.02</ele>
  <time>2026-08-28T17:53:59Z</time>
  <course>247.06</course>
  <speed>0.022360679774997897</speed>
  <fix>3d</fix>
</trkpt>
<trkpt lat="40.0713749" lon="-105.229789">
  <ele>1583.0</ele>
  <time>2026-08-28T17:53:59Z</time>
  <course>0.0</course>
  <speed>0.0</speed>
  <fix>3d</fix>
</trkpt>
<trkpt lat="40.0713751" lon="-105.2297889">
  <ele>1583.02</ele>
  <time>2026-08-28T17:53:59Z</time>
  <course>247.06</course>
  <speed>0.022360679774997897</speed>
  <fix>3d</fix>
</trkpt>
<trkpt lat="40.0713749" lon="-105.229789">
  <ele>1583.0</ele>
  <time>2026-08-28T17:53:59Z</time>
  <course>0.0</course>
  <speed>0.0</speed>
  <fix>3d</fix>
</trkpt>
<trkpt lat="40.0713751" lon="-105.2297889">
  <ele>1583.01</ele>
  <time>2026-08-28T17:53:59Z</time>
  <course>247.06</course>
  <speed>0.022360679774997897</speed>
  <fix>3d</fix>
</trkpt>
<trkpt lat="40.0713749" lon="-105.229789">
  <ele>1583.0</ele>
  <time>2026-08-28T17:53:59Z</time>
  <course>0.0</course>
  <speed>0.0</speed>
  <fix>3d</fix>
</trkpt>
<trkpt lat="40.0713751" lon="-105.2297889">
  <ele>1583.01</ele>
  <time>2026-08-28T17:53:59Z</time>
  <course>247.06</course>
  <speed>0.022360679774997897</speed>
  <fix>3d</fix>
</trkpt>
<trkpt lat="40.0713749" lon="-105.229789">
  <ele>1583.0</ele>
  <time>2026-08-28T17:53:59Z</time>
  <course>0.0</course>
  <speed>0.0</speed>
  <fix>3d</fix>
</trkpt>
<trkpt lat="40.0713751" lon="-105.2297889">
  <ele>1583.01</ele>
  <time>2026-08-28T17:53:59Z</time>
  <course>247.06</course>
  <speed>0.022360679774997897</speed>
  <fix>3d</fix>
</trkpt>
<trkpt lat="40.0713749" lon="-105.229789">
  <ele>1583.0</ele>
  <time>2026-08-28T17:53:59Z</time>
  <course>0.0</course>
  <speed>0.0</speed>
  <fix>3d</fix>
</trkpt>
<trkpt lat="40.0713751" lon="-105.2297889">
  <ele>1583.01</ele>
  <time>2026-08-28T17:53:59Z</time>
  <course>247.06</course>
  <speed>0.022360679774997897</speed>
  <fix>3d</fix>
</trkpt>
<trkpt lat="40.0713749" lon="-105.229789">
  <ele>1583.0</ele>
  <time>2026-08-28T17:53:59Z</time>
  <course>0.0</course>
  <speed>0.0</speed>
  <fix>3d</fix>
</trkpt>
<trkpt lat="40.071375" lon="-105.2297889">
  <ele>1583.01</ele>
  <time>2026-08-28T17:53:59Z</time>
  <course>247.06</course>
  <speed>0.022360679774997897</speed>
  <fix>3d</fix>
</trkpt>
<trkpt lat="40.0713749" lon="-105.229789">
  <ele>1583.0</ele>
  <time>2026-08-28T17:53:59Z</time>
  <course>0.0</course>
  <speed>0.0</speed>
  <fix>3d</fix>
</trkpt>
<trkpt lat="40.0713751" lon="-105.2297889">
  <ele>1583.01</ele>
  <time>2026-08-28T17:53:59Z</time>
  <course>247.06</course>
  <speed>0.022360679774997897</speed>
  <fix>3d</fix>
</trkpt>
<trkpt lat="40.0713749" lon="-105.229789">
  <ele>1583.0</ele>
  <time>2026-08-28T17:53:59Z</time>
  <course>0.0</course>
  <speed>0.0</speed>
  <fix>3d</fix>
</trkpt>
<trkpt lat="40.071375" lon="-105.2297889">
  <ele>1583.02</ele>
  <time>2026-08-28T17:53:59Z</time>
  <course>247.06</course>
  <speed>0.022360679774997897</speed>
  <fix>3d</fix>
</trkpt>
<trkpt lat="40.0713749" lon="-105.229789">
  <ele>1583.0</ele>
  <time>2026-08-28T17:53:59Z</time>
  <course>0.0</course>
  <speed>0.0</speed>
  <fix>3d</fix>
</trkpt>
<trkpt lat="40.0713751" lon="-105.2297889">
  <ele>1583.02</ele>
  <time>2026-08-28T17:53:59Z</time>
  <course>247.06</course>
  <speed>0.022360679774997897</speed>
  <fix>3d</fix>
</trkpt>
<trkpt lat="40.0713749" lon="-105.229789">
  <ele>1583.0</ele>
  <time>2026-08-28T17:53:59Z</time>
  <course>0.0</course>
  <speed>0.0</speed>
  <fix>3d</fix>
</trkpt>
<trkpt lat="40.071375" lon="-105.2297889">
  <ele>1583.02</ele>
  <time>2026-08-28T17:53:59Z</time>
  <course>247.06</course>
  <speed>0.022360679774997897</speed>
  <fix>3d</fix>
</trkpt>
<trkpt lat="40.0713749" lon="-105.229789">
  <ele>1583.0</ele>
  <time>2026-08-28T17:53:59Z</time>
  <course>0.0</course>
  <speed>0.0</speed>
  <fix>3d</fix>
</trkpt>
<trkpt lat="40.0713751" lon="-105.2297889">
  <ele>1583.02</ele>
  <time>2026-08-28T17:53:59Z</time>
  <course>247.06</course>
  <speed>0.022360679774997897</speed>
  <fix>3d</fix>
</trkpt>
<trkpt lat="40.0713749" lon="-105.229789">
  <ele>1583.0</ele>
  <time>2026-08-28T17:53:59Z</time>
  <course>0.0</course>
  <speed>0.0</speed>
  <fix>3d</fix>
</trkpt>
<trkpt lat="40.071375" lon="-105.2297889">
  <ele>1583.02</ele>
  <time>2026-08-28T17:53:59Z</time>
  <course>247.06</course>
  <speed>0.022360679774997897</speed>
  <fix>3d</fix>
</trkpt>
<trkpt lat="40.0713749" lon="-105.229789">
  <ele>1583.0</ele>
  <time>2026-08-28T17:53:59Z</time>
  <course>0.0</course>
  <speed>0.0</speed>
  <fix>3d</fix>
</trkpt>
<trkpt lat="40.0713751" lon="-105.2297889">
  <ele>1583.02</ele>
  <time>2026-08-28T17:53:59Z</time>
  <course>247.06</course>
  <speed>0.022360679774997897</speed>
  <fix>3d</fix>
</trkpt>
<trkpt lat="40.0713749" lon="-105.229789">
  <ele>1583.0</ele>
  <time>2026-08-28T17:53:59Z</time>
  <course>0.0</course>
  <speed>0.0</speed>
  <fix>3d</fix>
</trkpt>
<trkpt lat="40.071375" lon="-105.2297889">
  <ele>1583.02</ele>
  <time>2026-08-28T17:53:59Z</time>
  <course>247.06</course>
  <speed>0.022360679774997897</speed>
  <fix>3d</fix>
</trkpt>
<trkpt lat="40.0713749" lon="-105.229789">
  <ele>1583.0</ele>
  <time>2026-08-28T17:53:59Z</time>
  <course>0.0</course>
  <speed>0.0</speed>
  <fix>3d</fix>
</trkpt>
<trkpt lat="40.0713751" lon="-105.2297889">
  <ele>1583.02</ele>
  <time>2026-08-28T17:53:59Z</time>
  <course>247.06</course>
  <speed>0.022360679774997897</speed>
  <fix>3d</fix>
</trkpt>
<trkpt lat="40.0713749" lon="-105.229789">
  <ele>1583.0</ele>
  <time>2026-08-28T17:53:59Z</time>
  <course>0.0</course>
  <speed>0.0</speed>
  <fix>3d</fix>
</trkpt>
<trkpt lat="40.0713751" lon="-105.2297889">
  <ele>1583.02</ele>
  <time>2026-08-28T17:53:59Z</time>
  <course>247.06</course>
  <speed>0.022360679774997897</speed>
  <fix>3d</fix>
</trkpt>
<trkpt lat="40.0713749" lon="-105.229789">
  <ele>1583.0</ele>
  <time>2026-08-28T17:53:59Z</time>
  <course>0.0</course>
  <speed>0.0</speed>
  <fix>3d</fix>
</trkpt>
<trkpt lat="40.0713751" lon="-105.2297889">
  <ele>1583.02</ele>
  <time>2026-08-28T17:53:59Z</time>
  <course>247.06</course>
  <speed>0.022360679774997897</speed>
  <fix>3d</fix>
</trkpt>
<trkpt lat="40.0713749" lon="-105.229789">
  <ele>1583.0</ele>
  <time>2026-08-28T17:53:59Z</time>
  <course>0.0</course>
  <speed>0.0</speed>
  <fix>3d</fix>
</trkpt>
<trkpt lat="40.0713751" lon="-105.2297889">
  <ele>1583.02</ele>
  <time>2026-08-28T17:53:59Z</time>
  <course>247.06</course>
  <speed>0.022360679774997897</speed>
  <fix>3d</fix>
</trkpt>
<trkpt lat="40.0713749" lon="-105.229789">
  <ele>1583.0</ele>
  <time>2026-08-28T17:53:59Z</time>
  <course>0.0</course>
  <speed>0.0</speed>
  <fix>3d</fix>
</trkpt>
<trkpt lat="40.0713751" lon="-105.2297889">
  <ele>1583.02</ele>
  <time>2026-08-28T17:53:59Z</time>
  <course>247.06</course>
  <speed>0.022360679774997897</speed>
  <fix>3d</fix>
</trkpt>
<trkpt lat="40.0713749" lon="-105.229789">
  <ele>1583.0</ele>
  <time>2026-08-28T17:53:59Z</time>
  <course>0.0</course>
  <speed>0.0</speed>
  <fix>3d</fix>
</trkpt>
<trkpt lat="40.0713751" lon="-105.2297889">
  <ele>1583.02</ele>
  <time>2026-08-28T17:54:00Z</time>
  <course>247.06</course>
  <speed>0.022360679774997897</speed>
  <fix>3d</fix>
</trkpt>
<trkpt lat="40.0713749" lon="-105.229789">
  <ele>1583.0</ele>
  <time>2026-08-28T17:54:00Z</time>
  <course>0.0</course>
  <speed>0.0</speed>
  <fix>3d</fix>
</trkpt>
<trkpt lat="40.0713751" lon="-105.2297889">
  <ele>1583.02</ele>
  <time>2026-08-28T17:54:00Z</time>
  <course>247.06</course>
  <speed>0.022360679774997897</speed>
  <fix>3d</fix>
</trkpt>
<trkpt lat="40.0713749" lon="-105.229789">
  <ele>1583.0</ele>
  <time>2026-08-28T17:54:00Z</time>
  <course>0.0</course>
  <speed>0.0</speed>
  <fix>3d</fix>
</trkpt>
<trkpt lat="40.0713751" lon="-105.2297889">
  <ele>1583.02</ele>
  <time>2026-08-28T17:54:00Z</time>
  <course>247.06</course>
  <speed>0.022360679774997897</speed>
  <fix>3d</fix>
</trkpt>
<trkpt lat="40.0713749" lon="-105.229789">
  <ele>1583.0</ele>
  <time>2026-08-28T17:54:00Z</time>
  <course>0.0</course>
  <speed>0.0</speed>
  <fix>3d</fix>
</trkpt>
<trkpt lat="40.0713751" lon="-105.2297889">
  <ele>1583.02</ele>
  <time>2026-08-28T17:54:00Z</time>
  <course>247.06</course>
  <speed>0.022360679774997897</speed>
  <fix>3d</fix>
</trkpt>
<trkpt lat="40.0713749" lon="-105.229789">
  <ele>1583.0</ele>
  <time>2026-08-28T17:54:00Z</time>
  <course>0.0</course>
  <speed>0.0</speed>
  <fix>3d</fix>
</trkpt>
<trkpt lat="40.0713751" lon="-105.2297889">
  <ele>1583.02</ele>
  <time>2026-08-28T17:54:00Z</time>
  <course>247.06</course>
  <speed>0.022360679774997897</speed>
  <fix>3d</fix>
</trkpt>
<trkpt lat="40.0713749" lon="-105.229789">
  <ele>1583.0</ele>
  <time>2026-08-28T17:54:00Z</time>
  <course>0.0</course>
  <speed>0.0</speed>
  <fix>3d</fix>
</trkpt>
<trkpt lat="40.0713751" lon="-105.2297889">
  <ele>1583.02</ele>
  <time>2026-08-28T17:54:00Z</time>
  <course>247.06</course>
  <speed>0.022360679774997897</speed>
  <fix>3d</fix>
</trkpt>
<trkpt lat="40.0713749" lon="-105.229789">
  <ele>1583.0</ele>
  <time>2026-08-28T17:54:00Z</time>
  <course>0.0</course>
  <speed>0.0</speed>
  <fix>3d</fix>
</trkpt>
<trkpt lat="40.071375" lon="-105.2297889">
  <ele>1583.02</ele>
  <time>2026-08-28T17:54:00Z</time>
  <course>247.06</course>
  <speed>0.022360679774997897</speed>
  <fix>3d</fix>
</trkpt>
<trkpt lat="40.0713749" lon="-105.229789">
  <ele>1583.0</ele>
  <time>2026-08-28T17:54:00Z</time>
  <course>0.0</course>
  <speed>0.0</speed>
  <fix>3d</fix>
</trkpt>
<trkpt lat="40.0713751" lon="-105.2297889">
  <ele>1583.02</ele>
  <time>2026-08-28T17:54:00Z</time>
  <course>247.06</course>
  <speed>0.022360679774997897</speed>
  <fix>3d</fix>
</trkpt>
<trkpt lat="40.0713749" lon="-105.229789">
  <ele>1583.0</ele>
  <time>2026-08-28T17:54:00Z</time>
  <course>0.0</course>
  <speed>0.0</speed>
  <fix>3d</fix>
</trkpt>
<trkpt lat="40.071375" lon="-105.2297889">
  <ele>1583.02</ele>
  <time>2026-08-28T17:54:00Z</time>
  <course>247.06</course>
  <speed>0.022360679774997897</speed>
  <fix>3d</fix>
</trkpt>
<trkpt lat="40.0713749" lon="-105.229789">
  <ele>1583.0</ele>
  <time>2026-08-28T17:54:00Z</time>
  <course>0.0</course>
  <speed>0.0</speed>
  <fix>3d</fix>
</trkpt>
<trkpt lat="40.0713751" lon="-105.2297889">
  <ele>1583.02</ele>
  <time>2026-08-28T17:54:00Z</time>
  <course>247.06</course>
  <speed>0.022360679774997897</speed>
  <fix>3d</fix>
</trkpt>
<trkpt lat="40.0713749" lon="-105.229789">
  <ele>1583.0</ele>
  <time>2026-08-28T17:54:00Z</time>
  <course>0.0</course>
  <speed>0.0</speed>
  <fix>3d</fix>
</trkpt>
<trkpt lat="40.071375" lon="-105.2297889">
  <ele>1583.02</ele>
  <time>2026-08-28T17:54:00Z</time>
  <course>247.06</course>
  <speed>0.022360679774997897</speed>
  <fix>3d</fix>
</trkpt>
<trkpt lat="40.0713749" lon="-105.229789">
  <ele>1583.0</ele>
  <time>2026-08-28T17:54:00Z</time>
  <course>0.0</course>
  <speed>0.0</speed>
  <fix>3d</fix>
</trkpt>
<trkpt lat="40.0713751" lon="-105.2297889">
  <ele>1583.02</ele>
  <time>2026-08-28T17:54:00Z</time>
  <course>247.06</course>
  <speed>0.022360679774997897</speed>
  <fix>3d</fix>
</trkpt>
<trkpt lat="40.0713749" lon="-105.229789">
  <ele>1583.0</ele>
  <time>2026-08-28T17:54:00Z</time>
  <course>0.0</course>
  <speed>0.0</speed>
  <fix>3d</fix>
</trkpt>
<trkpt lat="40.071375" lon="-105.2297889">
  <ele>1583.02</ele>
  <time>2026-08-28T17:54:00Z</time>
  <course>247.06</course>
  <speed>0.022360679774997897</speed>
  <fix>3d</fix>
</trkpt>
<trkpt lat="40.0713749" lon="-105.229789">
  <ele>1583.0</ele>
  <time>2026-08-28T17:54:00Z</time>
  <course>0.0</course>
  <speed>0.0</speed>
  <fix>3d</fix>
</trkpt>
<trkpt lat="40.0713751" lon="-105.2297889">
  <ele>1583.02</ele>
  <time>2026-08-28T17:54:00Z</time>
  <course>247.06</course>
  <speed>0.022360679774997897</speed>
  <fix>3d</fix>
</trkpt>
<trkpt lat="40.0713749" lon="-105.229789">
  <ele>1583.0</ele>
  <time>2026-08-28T17:54:00Z</time>
  <course>0.0</course>
  <speed>0.0</speed>
  <fix>3d</fix>
</trkpt>
<trkpt lat="40.071375" lon="-105.2297889">
  <ele>1583.02</ele>
  <time>2026-08-28T17:54:00Z</time>
  <course>247.06</course>
  <speed>0.022360679774997897</speed>
  <fix>3d</fix>
</trkpt>
<trkpt lat="40.0713749" lon="-105.229789">
  <ele>1583.0</ele>
  <time>2026-08-28T17:54:00Z</time>
  <course>0.0</course>
  <speed>0.0</speed>
  <fix>3d</fix>
</trkpt>
<trkpt lat="40.0713751" lon="-105.2297889">
  <ele>1583.02</ele>
  <time>2026-08-28T17:54:00Z</time>
  <course>247.06</course>
  <speed>0.022360679774997897</speed>
  <fix>3d</fix>
</trkpt>
<trkpt lat="40.0713749" lon="-105.229789">
  <ele>1583.0</ele>
  <time>2026-08-28T17:54:00Z</time>
  <course>0.0</course>
  <speed>0.0</speed>
  <fix>3d</fix>
</trkpt>
<trkpt lat="40.071375" lon="-105.2297889">
  <ele>1583.02</ele>
  <time>2026-08-28T17:54:00Z</time>
  <course>247.06</course>
  <speed>0.022360679774997897</speed>
  <fix>3d</fix>
</trkpt>
<trkpt lat="40.0713749" lon="-105.229789">
  <ele>1583.0</ele>
  <time>2026-08-28T17:54:00Z</time>
  <course>0.0</course>
  <speed>0.0</speed>
  <fix>3d</fix>
</trkpt>
<trkpt lat="40.0713751" lon="-105.2297889">
  <ele>1583.02</ele>
  <time>2026-08-28T17:54:00Z</time>
  <course>247.06</course>
  <speed>0.022360679774997897</speed>
  <fix>3d</fix>
</trkpt>
<trkpt lat="40.0713749" lon="-105.229789">
  <ele>1583.0</ele>
  <time>2026-08-28T17:54:00Z</time>
  <course>0.0</course>
  <speed>0.0</speed>
  <fix>3d</fix>
</trkpt>
<trkpt lat="40.0713751" lon="-105.2297889">
  <ele>1583.01</ele>
  <time>2026-08-28T17:54:00Z</time>
  <course>247.06</course>
  <speed>0.022360679774997897</speed>
  <fix>3d</fix>
</trkpt>
<trkpt lat="40.0713749" lon="-105.229789">
  <ele>1583.0</ele>
  <time>2026-08-28T17:54:00Z</time>
  <course>0.0</course>
  <speed>0.0</speed>
  <fix>3d</fix>
</trkpt>
<trkpt lat="40.0713751" lon="-105.2297889">
  <ele>1583.01</ele>
  <time>2026-08-28T17:54:00Z</time>
  <course>247.06</course>
  <speed>0.022360679774997897</speed>
  <fix>3d</fix>
</trkpt>
<trkpt lat="40.0713749" lon="-105.229789">
  <ele>1583.0</ele>
  <time>2026-08-28T17:54:00Z</time>
  <course>0.0</course>
  <speed>0.0</speed>
  <fix>3d</fix>
</trkpt>
<trkpt lat="40.0713751" lon="-105.2297889">
  <ele>1583.01</ele>
  <time>2026-08-28T17:54:00Z</time>
  <course>247.06</course>
  <speed>0.022360679774997897</speed>
  <fix>3d</fix>
</trkpt>
<trkpt lat="40.0713749" lon="-105.229789">
  <ele>1583.0</ele>
  <time>2026-08-28T17:54:00Z</time>
  <course>0.0</course>
  <speed>0.0</speed>
  <fix>3d</fix>
</trkpt>
<trkpt lat="40.0713751" lon="-105.2297889">
  <ele>1583.01</ele>
  <time>2026-08-28T17:54:00Z</time>
  <course>247.06</course>
  <speed>0.022360679774997897</speed>
  <fix>3d</fix>
</trkpt>
<trkpt lat="40.0713749" lon="-105.229789">
  <ele>1583.0</ele>
  <time>2026-08-28T17:54:00Z</time>
  <course>0.0</course>
  <speed>0.0</speed>
  <fix>3d</fix>
</trkpt>
<trkpt lat="40.0713751" lon="-105.2297889">
  <ele>1583.0</ele>
  <time>2026-08-28T17:54:00Z</time>
  <course>247.06</course>
  <speed>0.022360679774997897</speed>
  <fix>3d</fix>
</trkpt>
<trkpt lat="40.0713749" lon="-105.229789">
  <ele>1583.0</ele>
  <time>2026-08-28T17:54:00Z</time>
  <course>0.0</course>
  <speed>0.0</speed>
  <fix>3d</fix>
</trkpt>
<trkpt lat="40.0713751" lon="-105.2297889">
  <ele>1583.0</ele>
  <time>2026-08-28T17:54:00Z</time>
  <course>247.06</course>
  <speed>0.022360679774997897</speed>
  <fix>3d</fix>
</trkpt>
<trkpt lat="40.0713749" lon="-105.229789">
  <ele>1583.0</ele>
  <time>2026-08-28T17:54:00Z</time>
  <course>0.0</course>
  <speed>0.0</speed>
  <fix>3d</fix>
</trkpt>
<trkpt lat="40.0713751" lon="-105.2297889">
  <ele>1583.0</ele>
  <time>2026-08-28T17:54:00Z</time>
  <course>247.06</course>
  <speed>0.022360679774997897</speed>
  <fix>3d</fix>
</trkpt>
<trkpt lat="40.0713749" lon="-105.229789">
  <ele>1583.0</ele>
  <time>2026-08-28T17:54:00Z</time>
  <course>0.0</course>
  <speed>0.0</speed>
  <fix>3d</fix>
</trkpt>
<trkpt lat="40.0713751" lon="-105.2297889">
  <ele>1583.0</ele>
  <time>2026-08-28T17:54:00Z</time>
  <course>247.06</course>
  <speed>0.022360679774997897</speed>
  <fix>3d</fix>
</trkpt>
<trkpt lat="40.0713749" lon="-105.229789">
  <ele>1583.0</ele>
  <time>2026-08-28T17:54:00Z</time>
  <course>0.0</course>
  <speed>0.0</speed>
  <fix>3d</fix>
</trkpt>
<trkpt lat="40.071375" lon="-105.2297889">
  <ele>1583.0</ele>
  <time>2026-08-28T17:54:00Z</time>
  <course>247.06</course>
  <speed>0.022360679774997897</speed>
  <fix>3d</fix>
</trkpt>
<trkpt lat="40.0713749" lon="-105.229789">
  <ele>1583.0</ele>
  <time>2026-08-28T17:54:00Z</time>
  <course>0.0</course>
  <speed>0.0</speed>
  <fix>3d</fix>
</trkpt>
<trkpt lat="40.0713751" lon="-105.2297889">
  <ele>1583.0</ele>
  <time>2026-08-28T17:54:00Z</time>
  <course>247.06</course>
  <speed>0.022360679774997897</speed>
  <fix>3d</fix>
</trkpt>
<trkpt lat="40.0713749" lon="-105.229789">
  <ele>1583.0</ele>
  <time>2026-08-28T17:54:00Z</time>
  <course>0.0</course>
  <speed>0.0</speed>
  <fix>3d</fix>
</trkpt>
<trkpt lat="40.071375" lon="-105.2297889">
  <ele>1583.0</ele>
  <time>2026-08-28T17:54:00Z</time>
  <course>247.06</course>
  <speed>0.022360679774997897</speed>
  <fix>3d</fix>
</trkpt>
<trkpt lat="40.0713749" lon="-105.229789">
  <ele>1583.0</ele>
  <time>2026-08-28T17:54:00Z</time>
  <course>0.0</course>
  <speed>0.0</speed>
  <fix>3d</fix>
</trkpt>
<trkpt lat="40.0713751" lon="-105.2297889">
  <ele>1582.99</ele>
  <time>2026-08-28T17:54:00Z</time>
  <course>247.06</course>
  <speed>0.022360679774997897</speed>
  <fix>3d</fix>
</trkpt>
<trkpt lat="40.0713749" lon="-105.229789">
  <ele>1583.0</ele>
  <time>2026-08-28T17:54:00Z</time>
  <course>0.0</course>
  <speed>0.0</speed>
  <fix>3d</fix>
</trkpt>
<trkpt lat="40.071375" lon="-105.2297889">
  <ele>1582.99</ele>
  <time>2026-08-28T17:54:00Z</time>
  <course>247.06</course>
  <speed>0.022360679774997897</speed>
  <fix>3d</fix>
</trkpt>
<trkpt lat="40.0713749" lon="-105.229789">
  <ele>1583.0</ele>
  <time>2026-08-28T17:54:00Z</time>
  <course>0.0</course>
  <speed>0.0</speed>
  <fix>3d</fix>
</trkpt>
<trkpt lat="40.0713751" lon="-105.2297889">
  <ele>1582.99</ele>
  <time>2026-08-28T17:54:00Z</time>
  <course>247.06</course>
  <speed>0.022360679774997897</speed>
  <fix>3d</fix>
</trkpt>
<trkpt lat="40.0713749" lon="-105.229789">
  <ele>1583.0</ele>
  <time>2026-08-28T17:54:00Z</time>
  <course>0.0</course>
  <speed>0.0</speed>
  <fix>3d</fix>
</trkpt>
<trkpt lat="40.071375" lon="-105.2297889">
  <ele>1582.99</ele>
  <time>2026-08-28T17:54:00Z</time>
  <course>247.06</course>
  <speed>0.022360679774997897</speed>
  <fix>3d</fix>
</trkpt>
<trkpt lat="40.0713749" lon="-105.229789">
  <ele>1583.0</ele>
  <time>2026-08-28T17:54:00Z</time>
  <course>0.0</course>
  <speed>0.0</speed>
  <fix>3d</fix>
</trkpt>
<trkpt lat="40.0713751" lon="-105.2297889">
  <ele>1582.99</ele>
  <time>2026-08-28T17:54:00Z</time>
  <course>247.06</course>
  <speed>0.022360679774997897</speed>
  <fix>3d</fix>
</trkpt>
<trkpt lat="40.0713749" lon="-105.229789">
  <ele>1583.0</ele>
  <time>2026-08-28T17:54:00Z</time>
  <course>0.0</course>
  <speed>0.0</speed>
  <fix>3d</fix>
</trkpt>
<trkpt lat="40.071375" lon="-105.2297889">
  <ele>1582.99</ele>
  <time>2026-08-28T17:54:00Z</time>
  <course>247.06</course>
  <speed>0.022360679774997897</speed>
  <fix>3d</fix>
</trkpt>
<trkpt lat="40.0713749" lon="-105.229789">
  <ele>1583.0</ele>
  <time>2026-08-28T17:54:00Z</time>
  <course>0.0</course>
  <speed>0.0</speed>
  <fix>3d</fix>
</trkpt>
<trkpt lat="40.0713751" lon="-105.2297889">
  <ele>1582.99</ele>
  <time>2026-08-28T17:54:00Z</time>
  <course>247.06</course>
  <speed>0.022360679774997897</speed>
  <fix>3d</fix>
</trkpt>
<trkpt lat="40.0713749" lon="-105.229789">
  <ele>1583.0</ele>
  <time>2026-08-28T17:54:00Z</time>
  <course>0.0</course>
  <speed>0.0</speed>
  <fix>3d</fix>
</trkpt>
<trkpt lat="40.071375" lon="-105.2297889">
  <ele>1582.99</ele>
  <time>2026-08-28T17:54:00Z</time>
  <course>247.06</course>
  <speed>0.022360679774997897</speed>
  <fix>3d</fix>
</trkpt>
<trkpt lat="40.0713749" lon="-105.229789">
  <ele>1583.0</ele>
  <time>2026-08-28T17:54:00Z</time>
  <course>0.0</course>
  <speed>0.0</speed>
  <fix>3d</fix>
</trkpt>
<trkpt lat="40.0713751" lon="-105.2297889">
  <ele>1582.99</ele>
  <time>2026-08-28T17:54:00Z</time>
  <course>247.06</course>
  <speed>0.022360679774997897</speed>
  <fix>3d</fix>
</trkpt>
<trkpt lat="40.0713749" lon="-105.229789">
  <ele>1583.0</ele>
  <time>2026-08-28T17:54:00Z</time>
  <course>0.0</course>
  <speed>0.0</speed>
  <fix>3d</fix>
</trkpt>
<trkpt lat="40.071375" lon="-105.2297889">
  <ele>1582.99</ele>
  <time>2026-08-28T17:54:00Z</time>
  <course>247.06</course>
  <speed>0.022360679774997897</speed>
  <fix>3d</fix>
</trkpt>
<trkpt lat="40.0713749" lon="-105.229789">
  <ele>1583.0</ele>
  <time>2026-08-28T17:54:00Z</time>
  <course>0.0</course>
  <speed>0.0</speed>
  <fix>3d</fix>
</trkpt>
<trkpt lat="40.0713751" lon="-105.2297889">
  <ele>1582.99</ele>
  <time>2026-08-28T17:54:00Z</time>
  <course>247.06</course>
  <speed>0.022360679774997897</speed>
  <fix>3d</fix>
</trkpt>
<trkpt lat="40.0713749" lon="-105.229789">
  <ele>1583.0</ele>
  <time>2026-08-28T17:54:00Z</time>
  <course>0.0</course>
  <speed>0.0</speed>
  <fix>3d</fix>
</trkpt>
<trkpt lat="40.0713751" lon="-105.2297889">
  <ele>1582.99</ele>
  <time>2026-08-28T17:54:00Z</time>
  <course>247.06</course>
  <speed>0.022360679774997897</speed>
  <fix>3d</fix>
</trkpt>
<trkpt lat="40.0713749" lon="-105.229789">
  <ele>1583.0</ele>
  <time>2026-08-28T17:54:00Z</time>
  <course>0.0</course>
  <speed>0.0</speed>
  <fix>3d</fix>
</trkpt>
<trkpt lat="40.0713751" lon="-105.2297889">
  <ele>1582.99</ele>
  <time>2026-08-28T17:54:00Z</time>
  <course>247.06</course>
  <speed>0.022360679774997897</speed>
  <fix>3d</fix>
</trkpt>
<trkpt lat="40.0713749" lon="-105.229789">
  <ele>1583.0</ele>
  <time>2026-08-28T17:54:00Z</time>
  <course>0.0</course>
  <speed>0.0</speed>
  <fix>3d</fix>
</trkpt>
<trkpt lat="40.0713751" lon="-105.2297889">
  <ele>1582.99</ele>
  <time>2026-08-28T17:54:00Z</time>
  <course>247.06</course>
  <speed>0.022360679774997897</speed>
  <fix>3d</fix>
</trkpt>
<trkpt lat="40.0713749" lon="-105.229789">
  <ele>1583.0</ele>
  <time>2026-08-28T17:54:00Z</time>
  <course>0.0</course>
  <speed>0.0</speed>
  <fix>3d</fix>
</trkpt>
<trkpt lat="40.0713751" lon="-105.2297889">
  <ele>1582.99</ele>
  <time>2026-08-28T17:54:00Z</time>
  <course>247.06</course>
  <speed>0.022360679774997897</speed>
  <fix>3d</fix>
</trkpt>
<trkpt lat="40.0713749" lon="-105.229789">
  <ele>1583.0</ele>
  <time>2026-08-28T17:54:00Z</time>
  <course>0.0</course>
  <speed>0.0</speed>
  <fix>3d</fix>
</trkpt>
<trkpt lat="40.0713751" lon="-105.2297889">
  <ele>1583.0</ele>
  <time>2026-08-28T17:54:00Z</time>
  <course>247.05</course>
  <speed>0.022360679774997897</speed>
  <fix>3d</fix>
</trkpt>
<trkpt lat="40.0713749" lon="-105.229789">
  <ele>1583.0</ele>
  <time>2026-08-28T17:54:00Z</time>
  <course>0.0</course>
  <speed>0.0</speed>
  <fix>3d</fix>
</trkpt>
<trkpt lat="40.0713751" lon="-105.2297889">
  <ele>1583.0</ele>
  <time>2026-08-28T17:54:00Z</time>
  <course>247.05</course>
  <speed>0.022360679774997897</speed>
  <fix>3d</fix>
</trkpt>
<trkpt lat="40.0713749" lon="-105.229789">
  <ele>1583.0</ele>
  <time>2026-08-28T17:54:00Z</time>
  <course>0.0</course>
  <speed>0.0</speed>
  <fix>3d</fix>
</trkpt>
<trkpt lat="40.071375" lon="-105.2297889">
  <ele>1583.0</ele>
  <time>2026-08-28T17:54:00Z</time>
  <course>247.05</course>
  <speed>0.022360679774997897</speed>
  <fix>3d</fix>
</trkpt>
<trkpt lat="40.0713749" lon="-105.229789">
  <ele>1583.0</ele>
  <time>2026-08-28T17:54:00Z</time>
  <course>0.0</course>
  <speed>0.0</speed>
  <fix>3d</fix>
</trkpt>
<trkpt lat="40.0713751" lon="-105.2297889">
  <ele>1583.01</ele>
  <time>2026-08-28T17:54:00Z</time>
  <course>247.05</course>
  <speed>0.022360679774997897</speed>
  <fix>3d</fix>
</trkpt>
<trkpt lat="40.0713749" lon="-105.229789">
  <ele>1583.0</ele>
  <time>2026-08-28T17:54:00Z</time>
  <course>0.0</course>
  <speed>0.0</speed>
  <fix>3d</fix>
</trkpt>
<trkpt lat="40.071375" lon="-105.2297889">
  <ele>1583.01</ele>
  <time>2026-08-28T17:54:00Z</time>
  <course>247.05</course>
  <speed>0.022360679774997897</speed>
  <fix>3d</fix>
</trkpt>
<trkpt lat="40.0713749" lon="-105.229789">
  <ele>1583.0</ele>
  <time>2026-08-28T17:54:00Z</time>
  <course>0.0</course>
  <speed>0.0</speed>
  <fix>3d</fix>
</trkpt>
<trkpt lat="40.0713751" lon="-105.2297889">
  <ele>1583.02</ele>
  <time>2026-08-28T17:54:00Z</time>
  <course>247.05</course>
  <speed>0.022360679774997897</speed>
  <fix>3d</fix>
</trkpt>
<trkpt lat="40.0713749" lon="-105.229789">
  <ele>1583.0</ele>
  <time>2026-08-28T17:54:00Z</time>
  <course>0.0</course>
  <speed>0.0</speed>
  <fix>3d</fix>
</trkpt>
<trkpt lat="40.071375" lon="-105.2297889">
  <ele>1583.02</ele>
  <time>2026-08-28T17:54:00Z</time>
  <course>247.05</course>
  <speed>0.022360679774997897</speed>
  <fix>3d</fix>
</trkpt>
<trkpt lat="40.0713749" lon="-105.229789">
  <ele>1583.0</ele>
  <time>2026-08-28T17:54:00Z</time>
  <course>0.0</course>
  <speed>0.0</speed>
  <fix>3d</fix>
</trkpt>
<trkpt lat="40.0713751" lon="-105.2297889">
  <ele>1583.02</ele>
  <time>2026-08-28T17:54:00Z</time>
  <course>247.05</course>
  <speed>0.022360679774997897</speed>
  <fix>3d</fix>
</trkpt>
<trkpt lat="40.0713749" lon="-105.229789">
  <ele>1583.0</ele>
  <time>2026-08-28T17:54:00Z</time>
  <course>0.0</course>
  <speed>0.0</speed>
  <fix>3d</fix>
</trkpt>
<trkpt lat="40.071375" lon="-105.2297889">
  <ele>1583.02</ele>
  <time>2026-08-28T17:54:00Z</time>
  <course>247.05</course>
  <speed>0.022360679774997897</speed>
  <fix>3d</fix>
</trkpt>
<trkpt lat="40.0713749" lon="-105.229789">
  <ele>1583.0</ele>
  <time>2026-08-28T17:54:00Z</time>
  <course>0.0</course>
  <speed>0.0</speed>
  <fix>3d</fix>
</trkpt>
<trkpt lat="40.0713751" lon="-105.2297889">
  <ele>1583.02</ele>
  <time>2026-08-28T17:54:00Z</time>
  <course>247.05</course>
  <speed>0.022360679774997897</speed>
  <fix>3d</fix>
</trkpt>
<trkpt lat="40.0713749" lon="-105.229789">
  <ele>1583.0</ele>
  <time>2026-08-28T17:54:00Z</time>
  <course>0.0</course>
  <speed>0.0</speed>
  <fix>3d</fix>
</trkpt>
<trkpt lat="40.071375" lon="-105.2297889">
  <ele>1583.01</ele>
  <time>2026-08-28T17:54:00Z</time>
  <course>247.05</course>
  <speed>0.022360679774997897</speed>
  <fix>3d</fix>
</trkpt>
<trkpt lat="40.0713749" lon="-105.229789">
  <ele>1583.0</ele>
  <time>2026-08-28T17:54:00Z</time>
  <course>0.0</course>
  <speed>0.0</speed>
  <fix>3d</fix>
</trkpt>
<trkpt lat="40.0713751" lon="-105.2297889">
  <ele>1583.01</ele>
  <time>2026-08-28T17:54:00Z</time>
  <course>247.05</course>
  <speed>0.022360679774997897</speed>
  <fix>3d</fix>
</trkpt>
<trkpt lat="40.0713749" lon="-105.229789">
  <ele>1583.0</ele>
  <time>2026-08-28T17:54:00Z</time>
  <course>0.0</course>
  <speed>0.0</speed>
  <fix>3d</fix>
</trkpt>
<trkpt lat="40.071375" lon="-105.2297889">
  <ele>1583.0</ele>
  <time>2026-08-28T17:54:00Z</time>
  <course>247.05</course>
  <speed>0.022360679774997897</speed>
  <fix>3d</fix>
</trkpt>
<trkpt lat="40.0713749" lon="-105.229789">
  <ele>1583.0</ele>
  <time>2026-08-28T17:54:00Z</time>
  <course>0.0</course>
  <speed>0.0</speed>
  <fix>3d</fix>
</trkpt>
<trkpt lat="40.0713751" lon="-105.2297889">
  <ele>1583.0</ele>
  <time>2026-08-28T17:54:00Z</time>
  <course>247.05</course>
  <speed>0.022360679774997897</speed>
  <fix>3d</fix>
</trkpt>
<trkpt lat="40.0713749" lon="-105.229789">
  <ele>1583.0</ele>
  <time>2026-08-28T17:54:00Z</time>
  <course>0.0</course>
  <speed>0.0</speed>
  <fix>3d</fix>
</trkpt>
<trkpt lat="40.071375" lon="-105.2297889">
  <ele>1583.0</ele>
  <time>2026-08-28T17:54:00Z</time>
  <course>247.05</course>
  <speed>0.022360679774997897</speed>
  <fix>3d</fix>
</trkpt>
<trkpt lat="40.0713749" lon="-105.229789">
  <ele>1583.0</ele>
  <time>2026-08-28T17:54:00Z</time>
  <course>0.0</course>
  <speed>0.0</speed>
  <fix>3d</fix>
</trkpt>
<trkpt lat="40.0713751" lon="-105.2297889">
  <ele>1583.0</ele>
  <time>2026-08-28T17:54:00Z</time>
  <course>247.05</course>
  <speed>0.022360679774997897</speed>
  <fix>3d</fix>
</trkpt>
<trkpt lat="40.0713749" lon="-105.229789">
  <ele>1583.0</ele>
  <time>2026-08-28T17:54:00Z</time>
  <course>0.0</course>
  <speed>0.0</speed>
  <fix>3d</fix>
</trkpt>
<trkpt lat="40.0713751" lon="-105.2297889">
  <ele>1582.99</ele>
  <time>2026-08-28T17:54:00Z</time>
  <course>247.05</course>
  <speed>0.022360679774997897</speed>
  <fix>3d</fix>
</trkpt>
<trkpt lat="40.0713749" lon="-105.229789">
  <ele>1583.0</ele>
  <time>2026-08-28T17:54:00Z</time>
  <course>0.0</course>
  <speed>0.0</speed>
  <fix>3d</fix>
</trkpt>
<trkpt lat="40.0713751" lon="-105.2297889">
  <ele>1582.99</ele>
  <time>2026-08-28T17:54:00Z</time>
  <course>247.05</course>
  <speed>0.022360679774997897</speed>
  <fix>3d</fix>
</trkpt>
<trkpt lat="40.0713749" lon="-105.229789">
  <ele>1583.0</ele>
  <time>2026-08-28T17:54:00Z</time>
  <course>0.0</course>
  <speed>0.0</speed>
  <fix>3d</fix>
</trkpt>
<trkpt lat="40.0713751" lon="-105.2297889">
  <ele>1582.99</ele>
  <time>2026-08-28T17:54:00Z</time>
  <course>247.05</course>
  <speed>0.022360679774997897</speed>
  <fix>3d</fix>
</trkpt>
<trkpt lat="40.0713749" lon="-105.229789">
  <ele>1583.0</ele>
  <time>2026-08-28T17:54:00Z</time>
  <course>0.0</course>
  <speed>0.0</speed>
  <fix>3d</fix>
</trkpt>
<trkpt lat="40.0713751" lon="-105.2297889">
  <ele>1582.99</ele>
  <time>2026-08-28T17:54:00Z</time>
  <course>247.05</course>
  <speed>0.022360679774997897</speed>
  <fix>3d</fix>
</trkpt>
<trkpt lat="40.0713749" lon="-105.229789">
  <ele>1583.0</ele>
  <time>2026-08-28T17:54:00Z</time>
  <course>0.0</course>
  <speed>0.0</speed>
  <fix>3d</fix>
</trkpt>
<trkpt lat="40.0713751" lon="-105.2297889">
  <ele>1582.99</ele>
  <time>2026-08-28T17:54:00Z</time>
  <course>247.05</course>
  <speed>0.022360679774997897</speed>
  <fix>3d</fix>
</trkpt>
<trkpt lat="40.0713749" lon="-105.229789">
  <ele>1583.0</ele>
  <time>2026-08-28T17:54:00Z</time>
  <course>0.0</course>
  <speed>0.0</speed>
  <fix>3d</fix>
</trkpt>
<trkpt lat="40.0713751" lon="-105.2297889">
  <ele>1582.99</ele>
  <time>2026-08-28T17:54:00Z</time>
  <course>247.05</course>
  <speed>0.022360679774997897</speed>
  <fix>3d</fix>
</trkpt>
<trkpt lat="40.0713749" lon="-105.229789">
  <ele>1583.0</ele>
  <time>2026-08-28T17:54:00Z</time>
  <course>0.0</course>
  <speed>0.0</speed>
  <fix>3d</fix>
</trkpt>
<trkpt lat="40.0713751" lon="-105.2297889">
  <ele>1582.99</ele>
  <time>2026-08-28T17:54:00Z</time>
  <course>247.05</course>
  <speed>0.022360679774997897</speed>
  <fix>3d</fix>
</trkpt>
<trkpt lat="40.0713749" lon="-105.229789">
  <ele>1583.0</ele>
  <time>2026-08-28T17:54:00Z</time>
  <course>0.0</course>
  <speed>0.0</speed>
  <fix>3d</fix>
</trkpt>
<trkpt lat="40.0713751" lon="-105.2297889">
  <ele>1582.99</ele>
  <time>2026-08-28T17:54:00Z</time>
  <course>247.05</course>
  <speed>0.022360679774997897</speed>
  <fix>3d</fix>
</trkpt>
<trkpt lat="40.0713749" lon="-105.229789">
  <ele>1583.0</ele>
  <time>2026-08-28T17:54:00Z</time>
  <course>0.0</course>
  <speed>0.0</speed>
  <fix>3d</fix>
</trkpt>
<trkpt lat="40.071375" lon="-105.2297889">
  <ele>1582.99</ele>
  <time>2026-08-28T17:54:00Z</time>
  <course>247.05</course>
  <speed>0.022360679774997897</speed>
  <fix>3d</fix>
</trkpt>
<trkpt lat="40.0713749" lon="-105.229789">
  <ele>1583.0</ele>
  <time>2026-08-28T17:54:00Z</time>
  <course>0.0</course>
  <speed>0.0</speed>
  <fix>3d</fix>
</trkpt>
<trkpt lat="40.0713751" lon="-105.2297889">
  <ele>1582.99</ele>
  <time>2026-08-28T17:54:00Z</time>
  <course>247.05</course>
  <speed>0.022360679774997897</speed>
  <fix>3d</fix>
</trkpt>
<trkpt lat="40.0713749" lon="-105.229789">
  <ele>1583.0</ele>
  <time>2026-08-28T17:54:00Z</time>
  <course>0.0</course>
  <speed>0.0</speed>
  <fix>3d</fix>
</trkpt>
<trkpt lat="40.071375" lon="-105.2297889">
  <ele>1582.99</ele>
  <time>2026-08-28T17:54:00Z</time>
  <course>247.05</course>
  <speed>0.022360679774997897</speed>
  <fix>3d</fix>
</trkpt>
<trkpt lat="40.0713749" lon="-105.229789">
  <ele>1583.0</ele>
  <time>2026-08-28T17:54:00Z</time>
  <course>0.0</course>
  <speed>0.0</speed>
  <fix>3d</fix>
</trkpt>
<trkpt lat="40.0713751" lon="-105.2297889">
  <ele>1582.99</ele>
  <time>2026-08-28T17:54:00Z</time>
  <course>247.05</course>
  <speed>0.022360679774997897</speed>
  <fix>3d</fix>
</trkpt>
<trkpt lat="40.0713749" lon="-105.229789">
  <ele>1583.0</ele>
  <time>2026-08-28T17:54:00Z</time>
  <course>0.0</course>
  <speed>0.0</speed>
  <fix>3d</fix>
</trkpt>
<trkpt lat="40.071375" lon="-105.2297889">
  <ele>1582.99</ele>
  <time>2026-08-28T17:54:00Z</time>
  <course>247.05</course>
  <speed>0.022360679774997897</speed>
  <fix>3d</fix>
</trkpt>
<trkpt lat="40.0713749" lon="-105.229789">
  <ele>1583.0</ele>
  <time>2026-08-28T17:54:00Z</time>
  <course>0.0</course>
  <speed>0.0</speed>
  <fix>3d</fix>
</trkpt>
<trkpt lat="40.0713751" lon="-105.2297889">
  <ele>1582.99</ele>
  <time>2026-08-28T17:54:00Z</time>
  <course>247.05</course>
  <speed>0.022360679774997897</speed>
  <fix>3d</fix>
</trkpt>
<trkpt lat="40.0713749" lon="-105.229789">
  <ele>1583.0</ele>
  <time>2026-08-28T17:54:00Z</time>
  <course>0.0</course>
  <speed>0.0</speed>
  <fix>3d</fix>
</trkpt>
<trkpt lat="40.071375" lon="-105.2297889">
  <ele>1582.99</ele>
  <time>2026-08-28T17:54:00Z</time>
  <course>247.05</course>
  <speed>0.022360679774997897</speed>
  <fix>3d</fix>
</trkpt>
<trkpt lat="40.0713749" lon="-105.229789">
  <ele>1583.0</ele>
  <time>2026-08-28T17:54:00Z</time>
  <course>0.0</course>
  <speed>0.0</speed>
  <fix>3d</fix>
</trkpt>
<trkpt lat="40.0713751" lon="-105.2297889">
  <ele>1582.99</ele>
  <time>2026-08-28T17:54:00Z</time>
  <course>247.05</course>
  <speed>0.022360679774997897</speed>
  <fix>3d</fix>
</trkpt>
<trkpt lat="40.0713749" lon="-105.229789">
  <ele>1583.0</ele>
  <time>2026-08-28T17:54:00Z</time>
  <course>0.0</course>
  <speed>0.0</speed>
  <fix>3d</fix>
</trkpt>
<trkpt lat="40.071375" lon="-105.2297889">
  <ele>1582.99</ele>
  <time>2026-08-28T17:54:00Z</time>
  <course>247.05</course>
  <speed>0.02</speed>
  <fix>3d</fix>
</trkpt>
<trkpt lat="40.0713749" lon="-105.229789">
  <ele>1583.0</ele>
  <time>2026-08-28T17:54:00Z</time>
  <course>0.0</course>
  <speed>0.0</speed>
  <fix>3d</fix>
</trkpt>
<trkpt lat="40.0713751" lon="-105.2297889">
  <ele>1582.99</ele>
  <time>2026-08-28T17:54:00Z</time>
  <course>247.05</course>
  <speed>0.02</speed>
  <fix>3d</fix>
</trkpt>
<trkpt lat="40.0713749" lon="-105.229789">
  <ele>1583.0</ele>
  <time>2026-08-28T17:54:00Z</time>
  <course>0.0</course>
  <speed>0.0</speed>
  <fix>3d</fix>
</trkpt>
<trkpt lat="40.071375" lon="-105.2297889">
  <ele>1582.99</ele>
  <time>2026-08-28T17:54:00Z</time>
  <course>247.05</course>
  <speed>0.02</speed>
  <fix>3d</fix>
</trkpt>
<trkpt lat="40.0713749" lon="-105.229789">
  <ele>1583.0</ele>
  <time>2026-08-28T17:54:00Z</time>
  <course>0.0</course>
  <speed>0.0</speed>
  <fix>3d</fix>
</trkpt>
<trkpt lat="40.0713751" lon="-105.2297889">
  <ele>1582.99</ele>
  <time>2026-08-28T17:54:00Z</time>
  <course>247.05</course>
  <speed>0.02</speed>
  <fix>3d</fix>
</trkpt>
<trkpt lat="40.0713749" lon="-105.229789">
  <ele>1583.0</ele>
  <time>2026-08-28T17:54:00Z</time>
  <course>0.0</course>
  <speed>0.0</speed>
  <fix>3d</fix>
</trkpt>
<trkpt lat="40.0713751" lon="-105.2297889">
  <ele>1583.0</ele>
  <time>2026-08-28T17:54:00Z</time>
  <course>247.05</course>
  <speed>0.02</speed>
  <fix>3d</fix>
</trkpt>
<trkpt lat="40.0713749" lon="-105.229789">
  <ele>1583.0</ele>
  <time>2026-08-28T17:54:00Z</time>
  <course>0.0</course>
  <speed>0.0</speed>
  <fix>3d</fix>
</trkpt>
<trkpt lat="40.0713751" lon="-105.2297889">
  <ele>1583.0</ele>
  <time>2026-08-28T17:54:00Z</time>
  <course>247.05</course>
  <speed>0.022360679774997897</speed>
  <fix>3d</fix>
</trkpt>
<trkpt lat="40.0713749" lon="-105.229789">
  <ele>1583.0</ele>
  <time>2026-08-28T17:54:00Z</time>
  <course>0.0</course>
  <speed>0.0</speed>
  <fix>3d</fix>
</trkpt>
<trkpt lat="40.0713751" lon="-105.2297889">
  <ele>1583.0</ele>
  <time>2026-08-28T17:54:00Z</time>
  <course>247.05</course>
  <speed>0.02</speed>
  <fix>3d</fix>
</trkpt>
<trkpt lat="40.0713749" lon="-105.229789">
  <ele>1583.0</ele>
  <time>2026-08-28T17:54:00Z</time>
  <course>0.0</course>
  <speed>0.0</speed>
  <fix>3d</fix>
</trkpt>
<trkpt lat="40.0713751" lon="-105.2297889">
  <ele>1583.0</ele>
  <time>2026-08-28T17:54:00Z</time>
  <course>247.05</course>
  <speed>0.022360679774997897</speed>
  <fix>3d</fix>
</trkpt>
<trkpt lat="40.0713749" lon="-105.229789">
  <ele>1583.0</ele>
  <time>2026-08-28T17:54:00Z</time>
  <course>0.0</course>
  <speed>0.0</speed>
  <fix>3d</fix>
</trkpt>
<trkpt lat="40.0713751" lon="-105.2297889">
  <ele>1583.0</ele>
  <time>2026-08-28T17:54:00Z</time>
  <course>247.05</course>
  <speed>0.02</speed>
  <fix>3d</fix>
</trkpt>
<trkpt lat="40.0713749" lon="-105.229789">
  <ele>1583.0</ele>
  <time>2026-08-28T17:54:00Z</time>
  <course>0.0</course>
  <speed>0.0</speed>
  <fix>3d</fix>
</trkpt>
<trkpt lat="40.0713751" lon="-105.2297889">
  <ele>1583.0</ele>
  <time>2026-08-28T17:54:00Z</time>
  <course>247.05</course>
  <speed>0.022360679774997897</speed>
  <fix>3d</fix>
</trkpt>
<trkpt lat="40.0713749" lon="-105.229789">
  <ele>1583.0</ele>
  <time>2026-08-28T17:54:00Z</time>
  <course>0.0</course>
  <speed>0.0</speed>
  <fix>3d</fix>
</trkpt>
<trkpt lat="40.0713751" lon="-105.2297889">
  <ele>1583.0</ele>
  <time>2026-08-28T17:54:00Z</time>
  <course>247.05</course>
  <speed>0.02</speed>
  <fix>3d</fix>
</trkpt>
<trkpt lat="40.0713749" lon="-105.229789">
  <ele>1583.0</ele>
  <time>2026-08-28T17:54:00Z</time>
  <course>0.0</course>
  <speed>0.0</speed>
  <fix>3d</fix>
</trkpt>
<trkpt lat="40.0713751" lon="-105.2297889">
  <ele>1583.01</ele>
  <time>2026-08-28T17:54:00Z</time>
  <course>247.05</course>
  <speed>0.02</speed>
  <fix>3d</fix>
</trkpt>
<trkpt lat="40.0713749" lon="-105.229789">
  <ele>1583.0</ele>
  <time>2026-08-28T17:54:00Z</time>
  <course>0.0</course>
  <speed>0.0</speed>
  <fix>3d</fix>
</trkpt>
<trkpt lat="40.071375" lon="-105.2297889">
  <ele>1583.01</ele>
  <time>2026-08-28T17:54:00Z</time>
  <course>247.05</course>
  <speed>0.02</speed>
  <fix>3d</fix>
</trkpt>
<trkpt lat="40.0713749" lon="-105.229789">
  <ele>1583.0</ele>
  <time>2026-08-28T17:54:00Z</time>
  <course>0.0</course>
  <speed>0.0</speed>
  <fix>3d</fix>
</trkpt>
<trkpt lat="40.0713751" lon="-105.2297889">
  <ele>1583.01</ele>
  <time>2026-08-28T17:54:00Z</time>
  <course>247.05</course>
  <speed>0.02</speed>
  <fix>3d</fix>
</trkpt>
<trkpt lat="40.0713749" lon="-105.229789">
  <ele>1583.0</ele>
  <time>2026-08-28T17:54:00Z</time>
  <course>0.0</course>
  <speed>0.0</speed>
  <fix>3d</fix>
</trkpt>
<trkpt lat="40.071375" lon="-105.2297889">
  <ele>1583.01</ele>
  <time>2026-08-28T17:54:00Z</time>
  <course>247.05</course>
  <speed>0.02</speed>
  <fix>3d</fix>
</trkpt>
<trkpt lat="40.0713749" lon="-105.229789">
  <ele>1583.0</ele>
  <time>2026-08-28T17:54:00Z</time>
  <course>0.0</course>
  <speed>0.0</speed>
  <fix>3d</fix>
</trkpt>
<trkpt lat="40.0713751" lon="-105.2297889">
  <ele>1583.01</ele>
  <time>2026-08-28T17:54:00Z</time>
  <course>247.05</course>
  <speed>0.02</speed>
  <fix>3d</fix>
</trkpt>
<trkpt lat="40.0713749" lon="-105.229789">
  <ele>1583.0</ele>
  <time>2026-08-28T17:54:00Z</time>
  <course>0.0</course>
  <speed>0.0</speed>
  <fix>3d</fix>
</trkpt>
<trkpt lat="40.071375" lon="-105.2297889">
  <ele>1583.01</ele>
  <time>2026-08-28T17:54:00Z</time>
  <course>247.05</course>
  <speed>0.02</speed>
  <fix>3d</fix>
</trkpt>
<trkpt lat="40.0713749" lon="-105.229789">
  <ele>1583.0</ele>
  <time>2026-08-28T17:54:00Z</time>
  <course>0.0</course>
  <speed>0.0</speed>
  <fix>3d</fix>
</trkpt>
<trkpt lat="40.0713751" lon="-105.2297889">
  <ele>1583.01</ele>
  <time>2026-08-28T17:54:00Z</time>
  <course>247.05</course>
  <speed>0.02</speed>
  <fix>3d</fix>
</trkpt>
<trkpt lat="40.0713749" lon="-105.229789">
  <ele>1583.0</ele>
  <time>2026-08-28T17:54:00Z</time>
  <course>0.0</course>
  <speed>0.0</speed>
  <fix>3d</fix>
</trkpt>
<trkpt lat="40.071375" lon="-105.2297889">
  <ele>1583.01</ele>
  <time>2026-08-28T17:54:00Z</time>
  <course>247.05</course>
  <speed>0.02</speed>
  <fix>3d</fix>
</trkpt>
<trkpt lat="40.0713749" lon="-105.229789">
  <ele>1583.0</ele>
  <time>2026-08-28T17:54:00Z</time>
  <course>0.0</course>
  <speed>0.0</speed>
  <fix>3d</fix>
</trkpt>
<trkpt lat="40.0713751" lon="-105.2297889">
  <ele>1583.01</ele>
  <time>2026-08-28T17:54:00Z</time>
  <course>247.05</course>
  <speed>0.02</speed>
  <fix>3d</fix>
</trkpt>
<trkpt lat="40.0713749" lon="-105.229789">
  <ele>1583.0</ele>
  <time>2026-08-28T17:54:00Z</time>
  <course>0.0</course>
  <speed>0.0</speed>
  <fix>3d</fix>
</trkpt>
<trkpt lat="40.071375" lon="-105.2297889">
  <ele>1583.01</ele>
  <time>2026-08-28T17:54:00Z</time>
  <course>247.05</course>
  <speed>0.02</speed>
  <fix>3d</fix>
</trkpt>
<trkpt lat="40.0713749" lon="-105.229789">
  <ele>1583.0</ele>
  <time>2026-08-28T17:54:00Z</time>
  <course>0.0</course>
  <speed>0.0</speed>
  <fix>3d</fix>
</trkpt>
<trkpt lat="40.0713751" lon="-105.2297889">
  <ele>1583.01</ele>
  <time>2026-08-28T17:54:00Z</time>
  <course>247.05</course>
  <speed>0.022360679774997897</speed>
  <fix>3d</fix>
</trkpt>
<trkpt lat="40.0713749" lon="-105.229789">
  <ele>1583.0</ele>
  <time>2026-08-28T17:54:00Z</time>
  <course>0.0</course>
  <speed>0.0</speed>
  <fix>3d</fix>
</trkpt>
<trkpt lat="40.071375" lon="-105.2297889">
  <ele>1583.01</ele>
  <time>2026-08-28T17:54:00Z</time>
  <course>247.05</course>
  <speed>0.02</speed>
  <fix>3d</fix>
</trkpt>
<trkpt lat="40.0713749" lon="-105.229789">
  <ele>1583.0</ele>
  <time>2026-08-28T17:54:00Z</time>
  <course>0.0</course>
  <speed>0.0</speed>
  <fix>3d</fix>
</trkpt>
<trkpt lat="40.0713751" lon="-105.2297889">
  <ele>1583.01</ele>
  <time>2026-08-28T17:54:00Z</time>
  <course>247.05</course>
  <speed>0.022360679774997897</speed>
  <fix>3d</fix>
</trkpt>
<trkpt lat="40.0713749" lon="-105.229789">
  <ele>1583.0</ele>
  <time>2026-08-28T17:54:00Z</time>
  <course>0.0</course>
  <speed>0.0</speed>
  <fix>3d</fix>
</trkpt>
<trkpt lat="40.071375" lon="-105.2297889">
  <ele>1583.01</ele>
  <time>2026-08-28T17:54:00Z</time>
  <course>247.05</course>
  <speed>0.02</speed>
  <fix>3d</fix>
</trkpt>
<trkpt lat="40.0713749" lon="-105.229789">
  <ele>1583.0</ele>
  <time>2026-08-28T17:54:00Z</time>
  <course>0.0</course>
  <speed>0.0</speed>
  <fix>3d</fix>
</trkpt>
<trkpt lat="40.0713751" lon="-105.2297889">
  <ele>1583.01</ele>
  <time>2026-08-28T17:54:00Z</time>
  <course>247.05</course>
  <speed>0.022360679774997897</speed>
  <fix>3d</fix>
</trkpt>
<trkpt lat="40.0713749" lon="-105.229789">
  <ele>1583.0</ele>
  <time>2026-08-28T17:54:00Z</time>
  <course>0.0</course>
  <speed>0.0</speed>
  <fix>3d</fix>
</trkpt>
<trkpt lat="40.0713751" lon="-105.2297889">
  <ele>1583.01</ele>
  <time>2026-08-28T17:54:00Z</time>
  <course>247.05</course>
  <speed>0.022360679774997897</speed>
  <fix>3d</fix>
</trkpt>
<trkpt lat="40.0713749" lon="-105.229789">
  <ele>1583.0</ele>
  <time>2026-08-28T17:54:00Z</time>
  <course>0.0</course>
  <speed>0.0</speed>
  <fix>3d</fix>
</trkpt>
<trkpt lat="40.0713751" lon="-105.2297889">
  <ele>1583.01</ele>
  <time>2026-08-28T17:54:00Z</time>
  <course>247.05</course>
  <speed>0.022360679774997897</speed>
  <fix>3d</fix>
</trkpt>
<trkpt lat="40.0713749" lon="-105.229789">
  <ele>1583.0</ele>
  <time>2026-08-28T17:54:00Z</time>
  <course>0.0</course>
  <speed>0.0</speed>
  <fix>3d</fix>
</trkpt>
<trkpt lat="40.0713751" lon="-105.2297889">
  <ele>1583.01</ele>
  <time>2026-08-28T17:54:00Z</time>
  <course>247.05</course>
  <speed>0.022360679774997897</speed>
  <fix>3d</fix>
</trkpt>
<trkpt lat="40.0713749" lon="-105.229789">
  <ele>1583.0</ele>
  <time>2026-08-28T17:54:00Z</time>
  <course>0.0</course>
  <speed>0.0</speed>
  <fix>3d</fix>
</trkpt>
<trkpt lat="40.0713751" lon="-105.2297889">
  <ele>1583.01</ele>
  <time>2026-08-28T17:54:00Z</time>
  <course>247.05</course>
  <speed>0.022360679774997897</speed>
  <fix>3d</fix>
</trkpt>
<trkpt lat="40.0713749" lon="-105.229789">
  <ele>1583.0</ele>
  <time>2026-08-28T17:54:00Z</time>
  <course>0.0</course>
  <speed>0.0</speed>
  <fix>3d</fix>
</trkpt>
<trkpt lat="40.0713751" lon="-105.2297889">
  <ele>1583.0</ele>
  <time>2026-08-28T17:54:00Z</time>
  <course>247.05</course>
  <speed>0.022360679774997897</speed>
  <fix>3d</fix>
</trkpt>
<trkpt lat="40.0713749" lon="-105.229789">
  <ele>1583.0</ele>
  <time>2026-08-28T17:54:00Z</time>
  <course>0.0</course>
  <speed>0.0</speed>
  <fix>3d</fix>
</trkpt>
<trkpt lat="40.0713751" lon="-105.2297889">
  <ele>1583.0</ele>
  <time>2026-08-28T17:54:00Z</time>
  <course>247.05</course>
  <speed>0.022360679774997897</speed>
  <fix>3d</fix>
</trkpt>
<trkpt lat="40.0713749" lon="-105.229789">
  <ele>1583.0</ele>
  <time>2026-08-28T17:54:00Z</time>
  <course>0.0</course>
  <speed>0.0</speed>
  <fix>3d</fix>
</trkpt>
<trkpt lat="40.071375" lon="-105.2297889">
  <ele>1583.0</ele>
  <time>2026-08-28T17:54:00Z</time>
  <course>247.05</course>
  <speed>0.022360679774997897</speed>
  <fix>3d</fix>
</trkpt>
<trkpt lat="40.0713749" lon="-105.229789">
  <ele>1583.0</ele>
  <time>2026-08-28T17:54:00Z</time>
  <course>0.0</course>
  <speed>0.0</speed>
  <fix>3d</fix>
</trkpt>
<trkpt lat="40.0713751" lon="-105.2297889">
  <ele>1582.99</ele>
  <time>2026-08-28T17:54:00Z</time>
  <course>247.05</course>
  <speed>0.022360679774997897</speed>
  <fix>3d</fix>
</trkpt>
<trkpt lat="40.0713749" lon="-105.229789">
  <ele>1583.0</ele>
  <time>2026-08-28T17:54:00Z</time>
  <course>0.0</course>
  <speed>0.0</speed>
  <fix>3d</fix>
</trkpt>
<trkpt lat="40.071375" lon="-105.2297889">
  <ele>1582.99</ele>
  <time>2026-08-28T17:54:00Z</time>
  <course>247.05</course>
  <speed>0.022360679774997897</speed>
  <fix>3d</fix>
</trkpt>
<trkpt lat="40.0713749" lon="-105.229789">
  <ele>1583.0</ele>
  <time>2026-08-28T17:54:00Z</time>
  <course>0.0</course>
  <speed>0.0</speed>
  <fix>3d</fix>
</trkpt>
<trkpt lat="40.0713751" lon="-105.2297889">
  <ele>1582.99</ele>
  <time>2026-08-28T17:54:00Z</time>
  <course>247.05</course>
  <speed>0.022360679774997897</speed>
  <fix>3d</fix>
</trkpt>
<trkpt lat="40.0713749" lon="-105.229789">
  <ele>1583.0</ele>
  <time>2026-08-28T17:54:00Z</time>
  <course>0.0</course>
  <speed>0.0</speed>
  <fix>3d</fix>
</trkpt>
<trkpt lat="40.071375" lon="-105.2297889">
  <ele>1582.99</ele>
  <time>2026-08-28T17:54:00Z</time>
  <course>247.05</course>
  <speed>0.022360679774997897</speed>
  <fix>3d</fix>
</trkpt>
<trkpt lat="40.0713749" lon="-105.229789">
  <ele>1583.0</ele>
  <time>2026-08-28T17:54:00Z</time>
  <course>0.0</course>
  <speed>0.0</speed>
  <fix>3d</fix>
</trkpt>
<trkpt lat="40.0713751" lon="-105.2297889">
  <ele>1582.99</ele>
  <time>2026-08-28T17:54:00Z</time>
  <course>247.05</course>
  <speed>0.022360679774997897</speed>
  <fix>3d</fix>
</trkpt>
<trkpt lat="40.0713749" lon="-105.229789">
  <ele>1583.0</ele>
  <time>2026-08-28T17:54:00Z</time>
  <course>0.0</course>
  <speed>0.0</speed>
  <fix>3d</fix>
</trkpt>
<trkpt lat="40.071375" lon="-105.2297889">
  <ele>1582.99</ele>
  <time>2026-08-28T17:54:00Z</time>
  <course>247.05</course>
  <speed>0.022360679774997897</speed>
  <fix>3d</fix>
</trkpt>
<trkpt lat="40.0713749" lon="-105.229789">
  <ele>1583.0</ele>
  <time>2026-08-28T17:54:00Z</time>
  <course>0.0</course>
  <speed>0.0</speed>
  <fix>3d</fix>
</trkpt>
<trkpt lat="40.0713751" lon="-105.2297889">
  <ele>1582.99</ele>
  <time>2026-08-28T17:54:00Z</time>
  <course>247.05</course>
  <speed>0.022360679774997897</speed>
  <fix>3d</fix>
</trkpt>
<trkpt lat="40.0713749" lon="-105.229789">
  <ele>1583.0</ele>
  <time>2026-08-28T17:54:00Z</time>
  <course>0.0</course>
  <speed>0.0</speed>
  <fix>3d</fix>
</trkpt>
<trkpt lat="40.071375" lon="-105.2297889">
  <ele>1582.99</ele>
  <time>2026-08-28T17:54:00Z</time>
  <course>247.05</course>
  <speed>0.022360679774997897</speed>
  <fix>3d</fix>
</trkpt>
<trkpt lat="40.0713749" lon="-105.229789">
  <ele>1583.0</ele>
  <time>2026-08-28T17:54:00Z</time>
  <course>0.0</course>
  <speed>0.0</speed>
  <fix>3d</fix>
</trkpt>
<trkpt lat="40.0713751" lon="-105.2297889">
  <ele>1582.99</ele>
  <time>2026-08-28T17:54:00Z</time>
  <course>247.05</course>
  <speed>0.022360679774997897</speed>
  <fix>3d</fix>
</trkpt>
<trkpt lat="40.0713749" lon="-105.229789">
  <ele>1583.0</ele>
  <time>2026-08-28T17:54:00Z</time>
  <course>0.0</course>
  <speed>0.0</speed>
  <fix>3d</fix>
</trkpt>
<trkpt lat="40.071375" lon="-105.2297889">
  <ele>1582.99</ele>
  <time>2026-08-28T17:54:00Z</time>
  <course>247.05</course>
  <speed>0.022360679774997897</speed>
  <fix>3d</fix>
</trkpt>
<trkpt lat="40.0713749" lon="-105.229789">
  <ele>1583.0</ele>
  <time>2026-08-28T17:54:00Z</time>
  <course>0.0</course>
  <speed>0.0</speed>
  <fix>3d</fix>
</trkpt>
<trkpt lat="40.0713751" lon="-105.2297889">
  <ele>1582.99</ele>
  <time>2026-08-28T17:54:00Z</time>
  <course>247.05</course>
  <speed>0.022360679774997897</speed>
  <fix>3d</fix>
</trkpt>
<trkpt lat="40.0713749" lon="-105.229789">
  <ele>1583.0</ele>
  <time>2026-08-28T17:54:00Z</time>
  <course>0.0</course>
  <speed>0.0</speed>
  <fix>3d</fix>
</trkpt>
<trkpt lat="40.071375" lon="-105.2297889">
  <ele>1582.99</ele>
  <time>2026-08-28T17:54:00Z</time>
  <course>247.05</course>
  <speed>0.022360679774997897</speed>
  <fix>3d</fix>
</trkpt>
<trkpt lat="40.0713749" lon="-105.229789">
  <ele>1583.0</ele>
  <time>2026-08-28T17:54:00Z</time>
  <course>0.0</course>
  <speed>0.0</speed>
  <fix>3d</fix>
</trkpt>
<trkpt lat="40.0713751" lon="-105.2297889">
  <ele>1582.99</ele>
  <time>2026-08-28T17:54:00Z</time>
  <course>247.05</course>
  <speed>0.022360679774997897</speed>
  <fix>3d</fix>
</trkpt>
<trkpt lat="40.0713749" lon="-105.229789">
  <ele>1583.0</ele>
  <time>2026-08-28T17:54:00Z</time>
  <course>0.0</course>
  <speed>0.0</speed>
  <fix>3d</fix>
</trkpt>
<trkpt lat="40.0713751" lon="-105.2297889">
  <ele>1582.99</ele>
  <time>2026-08-28T17:54:00Z</time>
  <course>247.05</course>
  <speed>0.022360679774997897</speed>
  <fix>3d</fix>
</trkpt>
<trkpt lat="40.0713749" lon="-105.229789">
  <ele>1583.0</ele>
  <time>2026-08-28T17:54:00Z</time>
  <course>0.0</course>
  <speed>0.0</speed>
  <fix>3d</fix>
</trkpt>
<trkpt lat="40.0713751" lon="-105.2297889">
  <ele>1582.99</ele>
  <time>2026-08-28T17:54:00Z</time>
  <course>247.05</course>
  <speed>0.022360679774997897</speed>
  <fix>3d</fix>
</trkpt>
<trkpt lat="40.0713749" lon="-105.229789">
  <ele>1583.0</ele>
  <time>2026-08-28T17:54:00Z</time>
  <course>0.0</course>
  <speed>0.0</speed>
  <fix>3d</fix>
</trkpt>
<trkpt lat="40.0713751" lon="-105.2297889">
  <ele>1583.0</ele>
  <time>2026-08-28T17:54:00Z</time>
  <course>247.05</course>
  <speed>0.022360679774997897</speed>
  <fix>3d</fix>
</trkpt>
<trkpt lat="40.0713749" lon="-105.229789">
  <ele>1583.0</ele>
  <time>2026-08-28T17:54:00Z</time>
  <course>0.0</course>
  <speed>0.0</speed>
  <fix>3d</fix>
</trkpt>
<trkpt lat="40.0713751" lon="-105.2297889">
  <ele>1583.0</ele>
  <time>2026-08-28T17:54:00Z</time>
  <course>247.05</course>
  <speed>0.022360679774997897</speed>
  <fix>3d</fix>
</trkpt>
<trkpt lat="40.0713749" lon="-105.229789">
  <ele>1583.0</ele>
  <time>2026-08-28T17:54:00Z</time>
  <course>0.0</course>
  <speed>0.0</speed>
  <fix>3d</fix>
</trkpt>
<trkpt lat="40.0713751" lon="-105.2297889">
  <ele>1583.01</ele>
  <time>2026-08-28T17:54:00Z</time>
  <course>247.05</course>
  <speed>0.022360679774997897</speed>
  <fix>3d</fix>
</trkpt>
<trkpt lat="40.0713749" lon="-105.229789">
  <ele>1583.0</ele>
  <time>2026-08-28T17:54:00Z</time>
  <course>0.0</course>
  <speed>0.0</speed>
  <fix>3d</fix>
</trkpt>
<trkpt lat="40.0713751" lon="-105.2297889">
  <ele>1583.01</ele>
  <time>2026-08-28T17:54:00Z</time>
  <course>247.05</course>
  <speed>0.022360679774997897</speed>
  <fix>3d</fix>
</trkpt>
<trkpt lat="40.0713749" lon="-105.229789">
  <ele>1583.0</ele>
  <time>2026-08-28T17:54:00Z</time>
  <course>0.0</course>
  <speed>0.0</speed>
  <fix>3d</fix>
</trkpt>
<trkpt lat="40.0713751" lon="-105.2297889">
  <ele>1583.01</ele>
  <time>2026-08-28T17:54:00Z</time>
  <course>247.05</course>
  <speed>0.022360679774997897</speed>
  <fix>3d</fix>
</trkpt>
<trkpt lat="40.0713749" lon="-105.229789">
  <ele>1583.0</ele>
  <time>2026-08-28T17:54:00Z</time>
  <course>0.0</course>
  <speed>0.0</speed>
  <fix>3d</fix>
</trkpt>
<trkpt lat="40.0713751" lon="-105.2297889">
  <ele>1583.01</ele>
  <time>2026-08-28T17:54:00Z</time>
  <course>247.05</course>
  <speed>0.022360679774997897</speed>
  <fix>3d</fix>
</trkpt>
<trkpt lat="40.0713749" lon="-105.229789">
  <ele>1583.0</ele>
  <time>2026-08-28T17:54:00Z</time>
  <course>0.0</course>
  <speed>0.0</speed>
  <fix>3d</fix>
</trkpt>
<trkpt lat="40.071375" lon="-105.2297889">
  <ele>1583.01</ele>
  <time>2026-08-28T17:54:00Z</time>
  <course>247.05</course>
  <speed>0.022360679774997897</speed>
  <fix>3d</fix>
</trkpt>
<trkpt lat="40.0713749" lon="-105.229789">
  <ele>1583.0</ele>
  <time>2026-08-28T17:54:00Z</time>
  <course>0.0</course>
  <speed>0.0</speed>
  <fix>3d</fix>
</trkpt>
<trkpt lat="40.0713751" lon="-105.2297889">
  <ele>1583.01</ele>
  <time>2026-08-28T17:54:00Z</time>
  <course>247.04</course>
  <speed>0.022360679774997897</speed>
  <fix>3d</fix>
</trkpt>
<trkpt lat="40.0713749" lon="-105.229789">
  <ele>1583.0</ele>
  <time>2026-08-28T17:54:00Z</time>
  <course>0.0</course>
  <speed>0.0</speed>
  <fix>3d</fix>
</trkpt>
<trkpt lat="40.071375" lon="-105.2297889">
  <ele>1583.01</ele>
  <time>2026-08-28T17:54:00Z</time>
  <course>247.04</course>
  <speed>0.022360679774997897</speed>
  <fix>3d</fix>
</trkpt>
<trkpt lat="40.0713749" lon="-105.229789">
  <ele>1583.0</ele>
  <time>2026-08-28T17:54:00Z</time>
  <course>0.0</course>
  <speed>0.0</speed>
  <fix>3d</fix>
</trkpt>
<trkpt lat="40.0713751" lon="-105.2297889">
  <ele>1583.01</ele>
  <time>2026-08-28T17:54:00Z</time>
  <course>247.04</course>
  <speed>0.022360679774997897</speed>
  <fix>3d</fix>
</trkpt>
<trkpt lat="40.0713749" lon="-105.229789">
  <ele>1583.0</ele>
  <time>2026-08-28T17:54:00Z</time>
  <course>0.0</course>
  <speed>0.0</speed>
  <fix>3d</fix>
</trkpt>
<trkpt lat="40.071375" lon="-105.2297889">
  <ele>1583.01</ele>
  <time>2026-08-28T17:54:00Z</time>
  <course>247.04</course>
  <speed>0.022360679774997897</speed>
  <fix>3d</fix>
</trkpt>
<trkpt lat="40.0713749" lon="-105.229789">
  <ele>1583.0</ele>
  <time>2026-08-28T17:54:00Z</time>
  <course>0.0</course>
  <speed>0.0</speed>
  <fix>3d</fix>
</trkpt>
<trkpt lat="40.0713751" lon="-105.2297889">
  <ele>1583.02</ele>
  <time>2026-08-28T17:54:00Z</time>
  <course>247.04</course>
  <speed>0.022360679774997897</speed>
  <fix>3d</fix>
</trkpt>
<trkpt lat="40.0713749" lon="-105.229789">
  <ele>1583.0</ele>
  <time>2026-08-28T17:54:00Z</time>
  <course>0.0</course>
  <speed>0.0</speed>
  <fix>3d</fix>
</trkpt>
<trkpt lat="40.071375" lon="-105.2297889">
  <ele>1583.02</ele>
  <time>2026-08-28T17:54:00Z</time>
  <course>247.04</course>
  <speed>0.022360679774997897</speed>
  <fix>3d</fix>
</trkpt>
<trkpt lat="40.0713749" lon="-105.229789">
  <ele>1583.0</ele>
  <time>2026-08-28T17:54:00Z</time>
  <course>0.0</course>
  <speed>0.0</speed>
  <fix>3d</fix>
</trkpt>
<trkpt lat="40.0713751" lon="-105.2297889">
  <ele>1583.02</ele>
  <time>2026-08-28T17:54:00Z</time>
  <course>247.04</course>
  <speed>0.022360679774997897</speed>
  <fix>3d</fix>
</trkpt>
<trkpt lat="40.0713749" lon="-105.229789">
  <ele>1583.0</ele>
  <time>2026-08-28T17:54:00Z</time>
  <course>0.0</course>
  <speed>0.0</speed>
  <fix>3d</fix>
</trkpt>
<trkpt lat="40.071375" lon="-105.2297889">
  <ele>1583.02</ele>
  <time>2026-08-28T17:54:00Z</time>
  <course>247.04</course>
  <speed>0.022360679774997897</speed>
  <fix>3d</fix>
</trkpt>
<trkpt lat="40.0713749" lon="-105.229789">
  <ele>1583.0</ele>
  <time>2026-08-28T17:54:00Z</time>
  <course>0.0</course>
  <speed>0.0</speed>
  <fix>3d</fix>
</trkpt>
<trkpt lat="40.0713751" lon="-105.2297889">
  <ele>1583.02</ele>
  <time>2026-08-28T17:54:00Z</time>
  <course>247.04</course>
  <speed>0.022360679774997897</speed>
  <fix>3d</fix>
</trkpt>
<trkpt lat="40.0713749" lon="-105.229789">
  <ele>1583.0</ele>
  <time>2026-08-28T17:54:00Z</time>
  <course>0.0</course>
  <speed>0.0</speed>
  <fix>3d</fix>
</trkpt>
<trkpt lat="40.071375" lon="-105.2297889">
  <ele>1583.02</ele>
  <time>2026-08-28T17:54:00Z</time>
  <course>247.04</course>
  <speed>0.022360679774997897</speed>
  <fix>3d</fix>
</trkpt>
<trkpt lat="40.0713749" lon="-105.229789">
  <ele>1583.0</ele>
  <time>2026-08-28T17:54:00Z</time>
  <course>0.0</course>
  <speed>0.0</speed>
  <fix>3d</fix>
</trkpt>
<trkpt lat="40.0713751" lon="-105.2297889">
  <ele>1583.03</ele>
  <time>2026-08-28T17:54:00Z</time>
  <course>247.04</course>
  <speed>0.022360679774997897</speed>
  <fix>3d</fix>
</trkpt>
<trkpt lat="40.0713749" lon="-105.229789">
  <ele>1583.0</ele>
  <time>2026-08-28T17:54:00Z</time>
  <course>0.0</course>
  <speed>0.0</speed>
  <fix>3d</fix>
</trkpt>
<trkpt lat="40.0713751" lon="-105.2297889">
  <ele>1583.03</ele>
  <time>2026-08-28T17:54:00Z</time>
  <course>247.04</course>
  <speed>0.022360679774997897</speed>
  <fix>3d</fix>
</trkpt>
<trkpt lat="40.0713749" lon="-105.229789">
  <ele>1583.0</ele>
  <time>2026-08-28T17:54:00Z</time>
  <course>0.0</course>
  <speed>0.0</speed>
  <fix>3d</fix>
</trkpt>
<trkpt lat="40.0713751" lon="-105.2297889">
  <ele>1583.03</ele>
  <time>2026-08-28T17:54:00Z</time>
  <course>247.04</course>
  <speed>0.022360679774997897</speed>
  <fix>3d</fix>
</trkpt>
<trkpt lat="40.0713749" lon="-105.229789">
  <ele>1583.0</ele>
  <time>2026-08-28T17:54:00Z</time>
  <course>0.0</course>
  <speed>0.0</speed>
  <fix>3d</fix>
</trkpt>
<trkpt lat="40.0713751" lon="-105.2297889">
  <ele>1583.04</ele>
  <time>2026-08-28T17:54:00Z</time>
  <course>247.04</course>
  <speed>0.022360679774997897</speed>
  <fix>3d</fix>
</trkpt>
<trkpt lat="40.0713749" lon="-105.229789">
  <ele>1583.0</ele>
  <time>2026-08-28T17:54:00Z</time>
  <course>0.0</course>
  <speed>0.0</speed>
  <fix>3d</fix>
</trkpt>
<trkpt lat="40.0713751" lon="-105.2297889">
  <ele>1583.04</ele>
  <time>2026-08-28T17:54:00Z</time>
  <course>247.04</course>
  <speed>0.022360679774997897</speed>
  <fix>3d</fix>
</trkpt>
<trkpt lat="40.0713749" lon="-105.229789">
  <ele>1583.0</ele>
  <time>2026-08-28T17:54:00Z</time>
  <course>0.0</course>
  <speed>0.0</speed>
  <fix>3d</fix>
</trkpt>
<trkpt lat="40.0713751" lon="-105.2297889">
  <ele>1583.04</ele>
  <time>2026-08-28T17:54:00Z</time>
  <course>247.04</course>
  <speed>0.022360679774997897</speed>
  <fix>3d</fix>
</trkpt>
<trkpt lat="40.0713749" lon="-105.229789">
  <ele>1583.0</ele>
  <time>2026-08-28T17:54:00Z</time>
  <course>0.0</course>
  <speed>0.0</speed>
  <fix>3d</fix>
</trkpt>
<trkpt lat="40.0713751" lon="-105.2297889">
  <ele>1583.04</ele>
  <time>2026-08-28T17:54:00Z</time>
  <course>247.04</course>
  <speed>0.022360679774997897</speed>
  <fix>3d</fix>
</trkpt>
<trkpt lat="40.0713749" lon="-105.229789">
  <ele>1583.0</ele>
  <time>2026-08-28T17:54:00Z</time>
  <course>0.0</course>
  <speed>0.0</speed>
  <fix>3d</fix>
</trkpt>
<trkpt lat="40.0713751" lon="-105.2297889">
  <ele>1583.04</ele>
  <time>2026-08-28T17:54:00Z</time>
  <course>247.04</course>
  <speed>0.022360679774997897</speed>
  <fix>3d</fix>
</trkpt>
<trkpt lat="40.0713749" lon="-105.229789">
  <ele>1583.0</ele>
  <time>2026-08-28T17:54:00Z</time>
  <course>0.0</course>
  <speed>0.0</speed>
  <fix>3d</fix>
</trkpt>
<trkpt lat="40.0713751" lon="-105.2297889">
  <ele>1583.04</ele>
  <time>2026-08-28T17:54:00Z</time>
  <course>247.04</course>
  <speed>0.022360679774997897</speed>
  <fix>3d</fix>
</trkpt>
<trkpt lat="40.0713749" lon="-105.229789">
  <ele>1583.0</ele>
  <time>2026-08-28T17:54:00Z</time>
  <course>0.0</course>
  <speed>0.0</speed>
  <fix>3d</fix>
</trkpt>
<trkpt lat="40.0713751" lon="-105.2297889">
  <ele>1583.04</ele>
  <time>2026-08-28T17:54:00Z</time>
  <course>247.04</course>
  <speed>0.022360679774997897</speed>
  <fix>3d</fix>
</trkpt>
<trkpt lat="40.0713749" lon="-105.229789">
  <ele>1583.0</ele>
  <time>2026-08-28T17:54:00Z</time>
  <course>0.0</course>
  <speed>0.0</speed>
  <fix>3d</fix>
</trkpt>
<trkpt lat="40.0713751" lon="-105.2297889">
  <ele>1583.04</ele>
  <time>2026-08-28T17:54:00Z</time>
  <course>247.04</course>
  <speed>0.022360679774997897</speed>
  <fix>3d</fix>
</trkpt>
<trkpt lat="40.0713749" lon="-105.229789">
  <ele>1583.0</ele>
  <time>2026-08-28T17:54:00Z</time>
  <course>0.0</course>
  <speed>0.0</speed>
  <fix>3d</fix>
</trkpt>
<trkpt lat="40.0713751" lon="-105.2297889">
  <ele>1583.04</ele>
  <time>2026-08-28T17:54:00Z</time>
  <course>247.04</course>
  <speed>0.022360679774997897</speed>
  <fix>3d</fix>
</trkpt>
<trkpt lat="40.0713749" lon="-105.229789">
  <ele>1583.0</ele>
  <time>2026-08-28T17:54:00Z</time>
  <course>0.0</course>
  <speed>0.0</speed>
  <fix>3d</fix>
</trkpt>
<trkpt lat="40.0713751" lon="-105.2297889">
  <ele>1583.04</ele>
  <time>2026-08-28T17:54:00Z</time>
  <course>247.04</course>
  <speed>0.022360679774997897</speed>
  <fix>3d</fix>
</trkpt>
<trkpt lat="40.0713749" lon="-105.229789">
  <ele>1583.0</ele>
  <time>2026-08-28T17:54:00Z</time>
  <course>0.0</course>
  <speed>0.0</speed>
  <fix>3d</fix>
</trkpt>
<trkpt lat="40.071375" lon="-105.2297889">
  <ele>1583.04</ele>
  <time>2026-08-28T17:54:00Z</time>
  <course>247.04</course>
  <speed>0.022360679774997897</speed>
  <fix>3d</fix>
</trkpt>
<trkpt lat="40.0713749" lon="-105.229789">
  <ele>1583.0</ele>
  <time>2026-08-28T17:54:00Z</time>
  <course>0.0</course>
  <speed>0.0</speed>
  <fix>3d</fix>
</trkpt>
<trkpt lat="40.0713751" lon="-105.2297889">
  <ele>1583.03</ele>
  <time>2026-08-28T17:54:00Z</time>
  <course>247.04</course>
  <speed>0.022360679774997897</speed>
  <fix>3d</fix>
</trkpt>
<trkpt lat="40.0713749" lon="-105.229789">
  <ele>1583.0</ele>
  <time>2026-08-28T17:54:00Z</time>
  <course>0.0</course>
  <speed>0.0</speed>
  <fix>3d</fix>
</trkpt>
<trkpt lat="40.071375" lon="-105.2297889">
  <ele>1583.03</ele>
  <time>2026-08-28T17:54:00Z</time>
  <course>247.04</course>
  <speed>0.022360679774997897</speed>
  <fix>3d</fix>
</trkpt>
<trkpt lat="40.0713749" lon="-105.229789">
  <ele>1583.0</ele>
  <time>2026-08-28T17:54:00Z</time>
  <course>0.0</course>
  <speed>0.0</speed>
  <fix>3d</fix>
</trkpt>
<trkpt lat="40.0713751" lon="-105.2297889">
  <ele>1583.02</ele>
  <time>2026-08-28T17:54:00Z</time>
  <course>247.04</course>
  <speed>0.022360679774997897</speed>
  <fix>3d</fix>
</trkpt>
<trkpt lat="40.0713749" lon="-105.229789">
  <ele>1583.0</ele>
  <time>2026-08-28T17:54:00Z</time>
  <course>0.0</course>
  <speed>0.0</speed>
  <fix>3d</fix>
</trkpt>
<trkpt lat="40.0713751" lon="-105.2297889">
  <ele>1583.02</ele>
  <time>2026-08-28T17:54:00Z</time>
  <course>247.04</course>
  <speed>0.022360679774997897</speed>
  <fix>3d</fix>
</trkpt>
<trkpt lat="40.0713749" lon="-105.229789">
  <ele>1583.0</ele>
  <time>2026-08-28T17:54:00Z</time>
  <course>0.0</course>
  <speed>0.0</speed>
  <fix>3d</fix>
</trkpt>
<trkpt lat="40.0713751" lon="-105.2297889">
  <ele>1583.02</ele>
  <time>2026-08-28T17:54:00Z</time>
  <course>247.04</course>
  <speed>0.022360679774997897</speed>
  <fix>3d</fix>
</trkpt>
<trkpt lat="40.0713749" lon="-105.229789">
  <ele>1583.0</ele>
  <time>2026-08-28T17:54:00Z</time>
  <course>0.0</course>
  <speed>0.0</speed>
  <fix>3d</fix>
</trkpt>
<trkpt lat="40.0713751" lon="-105.2297889">
  <ele>1583.02</ele>
  <time>2026-08-28T17:54:00Z</time>
  <course>247.04</course>
  <speed>0.022360679774997897</speed>
  <fix>3d</fix>
</trkpt>
<trkpt lat="40.0713749" lon="-105.229789">
  <ele>1583.0</ele>
  <time>2026-08-28T17:54:00Z</time>
  <course>0.0</course>
  <speed>0.0</speed>
  <fix>3d</fix>
</trkpt>
<trkpt lat="40.0713751" lon="-105.2297889">
  <ele>1583.02</ele>
  <time>2026-08-28T17:54:00Z</time>
  <course>247.04</course>
  <speed>0.022360679774997897</speed>
  <fix>3d</fix>
</trkpt>
<trkpt lat="40.0713749" lon="-105.229789">
  <ele>1583.0</ele>
  <time>2026-08-28T17:54:00Z</time>
  <course>0.0</course>
  <speed>0.0</speed>
  <fix>3d</fix>
</trkpt>
<trkpt lat="40.0713751" lon="-105.2297889">
  <ele>1583.02</ele>
  <time>2026-08-28T17:54:00Z</time>
  <course>247.04</course>
  <speed>0.022360679774997897</speed>
  <fix>3d</fix>
</trkpt>
<trkpt lat="40.0713749" lon="-105.229789">
  <ele>1583.0</ele>
  <time>2026-08-28T17:54:00Z</time>
  <course>0.0</course>
  <speed>0.0</speed>
  <fix>3d</fix>
</trkpt>
<trkpt lat="40.0713751" lon="-105.2297889">
  <ele>1583.02</ele>
  <time>2026-08-28T17:54:00Z</time>
  <course>247.04</course>
  <speed>0.022360679774997897</speed>
  <fix>3d</fix>
</trkpt>
<trkpt lat="40.0713749" lon="-105.229789">
  <ele>1583.0</ele>
  <time>2026-08-28T17:54:00Z</time>
  <course>0.0</course>
  <speed>0.0</speed>
  <fix>3d</fix>
</trkpt>
<trkpt lat="40.0713751" lon="-105.2297889">
  <ele>1583.03</ele>
  <time>2026-08-28T17:54:00Z</time>
  <course>247.04</course>
  <speed>0.022360679774997897</speed>
  <fix>3d</fix>
</trkpt>
<trkpt lat="40.0713749" lon="-105.229789">
  <ele>1583.0</ele>
  <time>2026-08-28T17:54:00Z</time>
  <course>0.0</course>
  <speed>0.0</speed>
  <fix>3d</fix>
</trkpt>
<trkpt lat="40.0713751" lon="-105.2297889">
  <ele>1583.03</ele>
  <time>2026-08-28T17:54:00Z</time>
  <course>247.04</course>
  <speed>0.022360679774997897</speed>
  <fix>3d</fix>
</trkpt>
<trkpt lat="40.0713749" lon="-105.229789">
  <ele>1583.0</ele>
  <time>2026-08-28T17:54:00Z</time>
  <course>0.0</course>
  <speed>0.0</speed>
  <fix>3d</fix>
</trkpt>
<trkpt lat="40.0713751" lon="-105.2297889">
  <ele>1583.03</ele>
  <time>2026-08-28T17:54:00Z</time>
  <course>247.04</course>
  <speed>0.022360679774997897</speed>
  <fix>3d</fix>
</trkpt>
<trkpt lat="40.0713749" lon="-105.229789">
  <ele>1583.0</ele>
  <time>2026-08-28T17:54:00Z</time>
  <course>0.0</course>
  <speed>0.0</speed>
  <fix>3d</fix>
</trkpt>
<trkpt lat="40.0713751" lon="-105.2297889">
  <ele>1583.04</ele>
  <time>2026-08-28T17:54:00Z</time>
  <course>247.04</course>
  <speed>0.022360679774997897</speed>
  <fix>3d</fix>
</trkpt>
<trkpt lat="40.0713749" lon="-105.229789">
  <ele>1583.0</ele>
  <time>2026-08-28T17:54:00Z</time>
  <course>0.0</course>
  <speed>0.0</speed>
  <fix>3d</fix>
</trkpt>
<trkpt lat="40.0713751" lon="-105.2297889">
  <ele>1583.04</ele>
  <time>2026-08-28T17:54:00Z</time>
  <course>247.04</course>
  <speed>0.022360679774997897</speed>
  <fix>3d</fix>
</trkpt>
<trkpt lat="40.0713749" lon="-105.229789">
  <ele>1583.0</ele>
  <time>2026-08-28T17:54:00Z</time>
  <course>0.0</course>
  <speed>0.0</speed>
  <fix>3d</fix>
</trkpt>
<trkpt lat="40.0713751" lon="-105.2297889">
  <ele>1583.05</ele>
  <time>2026-08-28T17:54:00Z</time>
  <course>247.04</course>
  <speed>0.022360679774997897</speed>
  <fix>3d</fix>
</trkpt>
<trkpt lat="40.0713749" lon="-105.229789">
  <ele>1583.0</ele>
  <time>2026-08-28T17:54:00Z</time>
  <course>0.0</course>
  <speed>0.0</speed>
  <fix>3d</fix>
</trkpt>
<trkpt lat="40.0713751" lon="-105.2297889">
  <ele>1583.05</ele>
  <time>2026-08-28T17:54:00Z</time>
  <course>247.04</course>
  <speed>0.022360679774997897</speed>
  <fix>3d</fix>
</trkpt>
<trkpt lat="40.0713749" lon="-105.229789">
  <ele>1583.0</ele>
  <time>2026-08-28T17:54:00Z</time>
  <course>0.0</course>
  <speed>0.0</speed>
  <fix>3d</fix>
</trkpt>
<trkpt lat="40.0713751" lon="-105.2297889">
  <ele>1583.04</ele>
  <time>2026-08-28T17:54:00Z</time>
  <course>247.04</course>
  <speed>0.022360679774997897</speed>
  <fix>3d</fix>
</trkpt>
<trkpt lat="40.0713749" lon="-105.229789">
  <ele>1583.0</ele>
  <time>2026-08-28T17:54:00Z</time>
  <course>0.0</course>
  <speed>0.0</speed>
  <fix>3d</fix>
</trkpt>
<trkpt lat="40.0713751" lon="-105.2297889">
  <ele>1583.04</ele>
  <time>2026-08-28T17:54:00Z</time>
  <course>247.04</course>
  <speed>0.022360679774997897</speed>
  <fix>3d</fix>
</trkpt>
<trkpt lat="40.0713749" lon="-105.229789">
  <ele>1583.0</ele>
  <time>2026-08-28T17:54:00Z</time>
  <course>0.0</course>
  <speed>0.0</speed>
  <fix>3d</fix>
</trkpt>
<trkpt lat="40.0713751" lon="-105.2297889">
  <ele>1583.05</ele>
  <time>2026-08-28T17:54:00Z</time>
  <course>247.04</course>
  <speed>0.022360679774997897</speed>
  <fix>3d</fix>
</trkpt>
<trkpt lat="40.0713749" lon="-105.229789">
  <ele>1583.0</ele>
  <time>2026-08-28T17:54:00Z</time>
  <course>0.0</course>
  <speed>0.0</speed>
  <fix>3d</fix>
</trkpt>
<trkpt lat="40.0713751" lon="-105.2297889">
  <ele>1583.05</ele>
  <time>2026-08-28T17:54:00Z</time>
  <course>247.04</course>
  <speed>0.022360679774997897</speed>
  <fix>3d</fix>
</trkpt>
<trkpt lat="40.0713749" lon="-105.229789">
  <ele>1583.0</ele>
  <time>2026-08-28T17:54:00Z</time>
  <course>0.0</course>
  <speed>0.0</speed>
  <fix>3d</fix>
</trkpt>
<trkpt lat="40.0713751" lon="-105.2297889">
  <ele>1583.05</ele>
  <time>2026-08-28T17:54:00Z</time>
  <course>247.04</course>
  <speed>0.022360679774997897</speed>
  <fix>3d</fix>
</trkpt>
<trkpt lat="40.0713749" lon="-105.229789">
  <ele>1583.0</ele>
  <time>2026-08-28T17:54:00Z</time>
  <course>0.0</course>
  <speed>0.0</speed>
  <fix>3d</fix>
</trkpt>
<trkpt lat="40.0713751" lon="-105.2297889">
  <ele>1583.05</ele>
  <time>2026-08-28T17:54:00Z</time>
  <course>247.04</course>
  <speed>0.022360679774997897</speed>
  <fix>3d</fix>
</trkpt>
<trkpt lat="40.0713749" lon="-105.229789">
  <ele>1583.0</ele>
  <time>2026-08-28T17:54:00Z</time>
  <course>0.0</course>
  <speed>0.0</speed>
  <fix>3d</fix>
</trkpt>
<trkpt lat="40.0713751" lon="-105.2297889">
  <ele>1583.05</ele>
  <time>2026-08-28T17:54:00Z</time>
  <course>247.04</course>
  <speed>0.022360679774997897</speed>
  <fix>3d</fix>
</trkpt>
<trkpt lat="40.0713749" lon="-105.229789">
  <ele>1583.0</ele>
  <time>2026-08-28T17:54:00Z</time>
  <course>0.0</course>
  <speed>0.0</speed>
  <fix>3d</fix>
</trkpt>
<trkpt lat="40.0713751" lon="-105.2297889">
  <ele>1583.05</ele>
  <time>2026-08-28T17:54:00Z</time>
  <course>247.04</course>
  <speed>0.022360679774997897</speed>
  <fix>3d</fix>
</trkpt>
<trkpt lat="40.0713749" lon="-105.229789">
  <ele>1583.0</ele>
  <time>2026-08-28T17:54:00Z</time>
  <course>0.0</course>
  <speed>0.0</speed>
  <fix>3d</fix>
</trkpt>
<trkpt lat="40.0713751" lon="-105.2297889">
  <ele>1583.04</ele>
  <time>2026-08-28T17:54:00Z</time>
  <course>247.04</course>
  <speed>0.022360679774997897</speed>
  <fix>3d</fix>
</trkpt>
<trkpt lat="40.0713749" lon="-105.229789">
  <ele>1583.0</ele>
  <time>2026-08-28T17:54:00Z</time>
  <course>0.0</course>
  <speed>0.0</speed>
  <fix>3d</fix>
</trkpt>
<trkpt lat="40.0713751" lon="-105.2297889">
  <ele>1583.04</ele>
  <time>2026-08-28T17:54:00Z</time>
  <course>247.04</course>
  <speed>0.022360679774997897</speed>
  <fix>3d</fix>
</trkpt>
<trkpt lat="40.0713749" lon="-105.229789">
  <ele>1583.0</ele>
  <time>2026-08-28T17:54:00Z</time>
  <course>0.0</course>
  <speed>0.0</speed>
  <fix>3d</fix>
</trkpt>
<trkpt lat="40.0713751" lon="-105.2297889">
  <ele>1583.04</ele>
  <time>2026-08-28T17:54:00Z</time>
  <course>247.04</course>
  <speed>0.022360679774997897</speed>
  <fix>3d</fix>
</trkpt>
<trkpt lat="40.0713749" lon="-105.229789">
  <ele>1583.0</ele>
  <time>2026-08-28T17:54:00Z</time>
  <course>0.0</course>
  <speed>0.0</speed>
  <fix>3d</fix>
</trkpt>
<trkpt lat="40.0713751" lon="-105.2297889">
  <ele>1583.04</ele>
  <time>2026-08-28T17:54:00Z</time>
  <course>247.04</course>
  <speed>0.022360679774997897</speed>
  <fix>3d</fix>
</trkpt>
<trkpt lat="40.0713749" lon="-105.229789">
  <ele>1583.0</ele>
  <time>2026-08-28T17:54:00Z</time>
  <course>0.0</course>
  <speed>0.0</speed>
  <fix>3d</fix>
</trkpt>
<trkpt lat="40.0713751" lon="-105.2297889">
  <ele>1583.04</ele>
  <time>2026-08-28T17:54:00Z</time>
  <course>247.04</course>
  <speed>0.022360679774997897</speed>
  <fix>3d</fix>
</trkpt>
<trkpt lat="40.0713749" lon="-105.229789">
  <ele>1583.0</ele>
  <time>2026-08-28T17:54:00Z</time>
  <course>0.0</course>
  <speed>0.0</speed>
  <fix>3d</fix>
</trkpt>
<trkpt lat="40.0713751" lon="-105.2297889">
  <ele>1583.04</ele>
  <time>2026-08-28T17:54:00Z</time>
  <course>247.04</course>
  <speed>0.022360679774997897</speed>
  <fix>3d</fix>
</trkpt>
<trkpt lat="40.0713749" lon="-105.229789">
  <ele>1583.0</ele>
  <time>2026-08-28T17:54:00Z</time>
  <course>0.0</course>
  <speed>0.0</speed>
  <fix>3d</fix>
</trkpt>
<trkpt lat="40.0713751" lon="-105.2297889">
  <ele>1583.04</ele>
  <time>2026-08-28T17:54:00Z</time>
  <course>247.04</course>
  <speed>0.022360679774997897</speed>
  <fix>3d</fix>
</trkpt>
<trkpt lat="40.0713749" lon="-105.229789">
  <ele>1583.0</ele>
  <time>2026-08-28T17:54:00Z</time>
  <course>0.0</course>
  <speed>0.0</speed>
  <fix>3d</fix>
</trkpt>
<trkpt lat="40.0713751" lon="-105.2297889">
  <ele>1583.04</ele>
  <time>2026-08-28T17:54:00Z</time>
  <course>247.04</course>
  <speed>0.022360679774997897</speed>
  <fix>3d</fix>
</trkpt>
<trkpt lat="40.0713749" lon="-105.229789">
  <ele>1583.0</ele>
  <time>2026-08-28T17:54:00Z</time>
  <course>0.0</course>
  <speed>0.0</speed>
  <fix>3d</fix>
</trkpt>
<trkpt lat="40.0713751" lon="-105.2297889">
  <ele>1583.04</ele>
  <time>2026-08-28T17:54:00Z</time>
  <course>247.04</course>
  <speed>0.022360679774997897</speed>
  <fix>3d</fix>
</trkpt>
<trkpt lat="40.0713749" lon="-105.229789">
  <ele>1583.0</ele>
  <time>2026-08-28T17:54:00Z</time>
  <course>0.0</course>
  <speed>0.0</speed>
  <fix>3d</fix>
</trkpt>
<trkpt lat="40.0713751" lon="-105.2297889">
  <ele>1583.04</ele>
  <time>2026-08-28T17:54:00Z</time>
  <course>247.04</course>
  <speed>0.022360679774997897</speed>
  <fix>3d</fix>
</trkpt>
<trkpt lat="40.0713749" lon="-105.229789">
  <ele>1583.0</ele>
  <time>2026-08-28T17:54:00Z</time>
  <course>0.0</course>
  <speed>0.0</speed>
  <fix>3d</fix>
</trkpt>
<trkpt lat="40.0713751" lon="-105.2297889">
  <ele>1583.04</ele>
  <time>2026-08-28T17:54:00Z</time>
  <course>247.04</course>
  <speed>0.022360679774997897</speed>
  <fix>3d</fix>
</trkpt>
<trkpt lat="40.0713749" lon="-105.229789">
  <ele>1583.0</ele>
  <time>2026-08-28T17:54:00Z</time>
  <course>0.0</course>
  <speed>0.0</speed>
  <fix>3d</fix>
</trkpt>
<trkpt lat="40.0713751" lon="-105.2297889">
  <ele>1583.04</ele>
  <time>2026-08-28T17:54:00Z</time>
  <course>247.04</course>
  <speed>0.022360679774997897</speed>
  <fix>3d</fix>
</trkpt>
<trkpt lat="40.0713749" lon="-105.229789">
  <ele>1583.0</ele>
  <time>2026-08-28T17:54:00Z</time>
  <course>0.0</course>
  <speed>0.0</speed>
  <fix>3d</fix>
</trkpt>
<trkpt lat="40.0713751" lon="-105.2297889">
  <ele>1583.05</ele>
  <time>2026-08-28T17:54:00Z</time>
  <course>247.04</course>
  <speed>0.022360679774997897</speed>
  <fix>3d</fix>
</trkpt>
<trkpt lat="40.0713749" lon="-105.229789">
  <ele>1583.0</ele>
  <time>2026-08-28T17:54:00Z</time>
  <course>0.0</course>
  <speed>0.0</speed>
  <fix>3d</fix>
</trkpt>
<trkpt lat="40.0713751" lon="-105.2297889">
  <ele>1583.04</ele>
  <time>2026-08-28T17:54:00Z</time>
  <course>247.04</course>
  <speed>0.022360679774997897</speed>
  <fix>3d</fix>
</trkpt>
<trkpt lat="40.0713749" lon="-105.229789">
  <ele>1583.0</ele>
  <time>2026-08-28T17:54:00Z</time>
  <course>0.0</course>
  <speed>0.0</speed>
  <fix>3d</fix>
</trkpt>
<trkpt lat="40.0713751" lon="-105.2297889">
  <ele>1583.04</ele>
  <time>2026-08-28T17:54:00Z</time>
  <course>247.04</course>
  <speed>0.022360679774997897</speed>
  <fix>3d</fix>
</trkpt>
<trkpt lat="40.0713749" lon="-105.229789">
  <ele>1583.0</ele>
  <time>2026-08-28T17:54:00Z</time>
  <course>0.0</course>
  <speed>0.0</speed>
  <fix>3d</fix>
</trkpt>
<trkpt lat="40.071375" lon="-105.2297889">
  <ele>1583.04</ele>
  <time>2026-08-28T17:54:00Z</time>
  <course>247.04</course>
  <speed>0.022360679774997897</speed>
  <fix>3d</fix>
</trkpt>
<trkpt lat="40.0713749" lon="-105.229789">
  <ele>1583.0</ele>
  <time>2026-08-28T17:54:00Z</time>
  <course>0.0</course>
  <speed>0.0</speed>
  <fix>3d</fix>
</trkpt>
<trkpt lat="40.0713751" lon="-105.2297889">
  <ele>1583.04</ele>
  <time>2026-08-28T17:54:00Z</time>
  <course>247.04</course>
  <speed>0.022360679774997897</speed>
  <fix>3d</fix>
</trkpt>
<trkpt lat="40.0713749" lon="-105.229789">
  <ele>1583.0</ele>
  <time>2026-08-28T17:54:00Z</time>
  <course>0.0</course>
  <speed>0.0</speed>
  <fix>3d</fix>
</trkpt>
<trkpt lat="40.071375" lon="-105.2297889">
  <ele>1583.04</ele>
  <time>2026-08-28T17:54:00Z</time>
  <course>247.04</course>
  <speed>0.022360679774997897</speed>
  <fix>3d</fix>
</trkpt>
<trkpt lat="40.0713749" lon="-105.229789">
  <ele>1583.0</ele>
  <time>2026-08-28T17:54:00Z</time>
  <course>0.0</course>
  <speed>0.0</speed>
  <fix>3d</fix>
</trkpt>
<trkpt lat="40.0713751" lon="-105.2297889">
  <ele>1583.04</ele>
  <time>2026-08-28T17:54:00Z</time>
  <course>247.04</course>
  <speed>0.022360679774997897</speed>
  <fix>3d</fix>
</trkpt>
<trkpt lat="40.0713749" lon="-105.229789">
  <ele>1583.0</ele>
  <time>2026-08-28T17:54:00Z</time>
  <course>0.0</course>
  <speed>0.0</speed>
  <fix>3d</fix>
</trkpt>
<trkpt lat="40.071375" lon="-105.2297889">
  <ele>1583.04</ele>
  <time>2026-08-28T17:54:00Z</time>
  <course>247.04</course>
  <speed>0.022360679774997897</speed>
  <fix>3d</fix>
</trkpt>
<trkpt lat="40.0713749" lon="-105.229789">
  <ele>1583.0</ele>
  <time>2026-08-28T17:54:00Z</time>
  <course>0.0</course>
  <speed>0.0</speed>
  <fix>3d</fix>
</trkpt>
<trkpt lat="40.0713751" lon="-105.2297889">
  <ele>1583.04</ele>
  <time>2026-08-28T17:54:00Z</time>
  <course>247.04</course>
  <speed>0.022360679774997897</speed>
  <fix>3d</fix>
</trkpt>
<trkpt lat="40.0713749" lon="-105.229789">
  <ele>1583.0</ele>
  <time>2026-08-28T17:54:00Z</time>
  <course>0.0</course>
  <speed>0.0</speed>
  <fix>3d</fix>
</trkpt>
<trkpt lat="40.071375" lon="-105.2297889">
  <ele>1583.03</ele>
  <time>2026-08-28T17:54:00Z</time>
  <course>247.04</course>
  <speed>0.022360679774997897</speed>
  <fix>3d</fix>
</trkpt>
<trkpt lat="40.0713749" lon="-105.229789">
  <ele>1583.0</ele>
  <time>2026-08-28T17:54:00Z</time>
  <course>0.0</course>
  <speed>0.0</speed>
  <fix>3d</fix>
</trkpt>
<trkpt lat="40.0713751" lon="-105.2297889">
  <ele>1583.03</ele>
  <time>2026-08-28T17:54:00Z</time>
  <course>247.04</course>
  <speed>0.022360679774997897</speed>
  <fix>3d</fix>
</trkpt>
<trkpt lat="40.0713749" lon="-105.229789">
  <ele>1583.0</ele>
  <time>2026-08-28T17:54:00Z</time>
  <course>0.0</course>
  <speed>0.0</speed>
  <fix>3d</fix>
</trkpt>
<trkpt lat="40.0713751" lon="-105.2297889">
  <ele>1583.03</ele>
  <time>2026-08-28T17:54:00Z</time>
  <course>247.04</course>
  <speed>0.022360679774997897</speed>
  <fix>3d</fix>
</trkpt>
<trkpt lat="40.0713749" lon="-105.229789">
  <ele>1583.0</ele>
  <time>2026-08-28T17:54:00Z</time>
  <course>0.0</course>
  <speed>0.0</speed>
  <fix>3d</fix>
</trkpt>
<trkpt lat="40.0713751" lon="-105.2297889">
  <ele>1583.03</ele>
  <time>2026-08-28T17:54:00Z</time>
  <course>247.04</course>
  <speed>0.022360679774997897</speed>
  <fix>3d</fix>
</trkpt>
<trkpt lat="40.0713749" lon="-105.229789">
  <ele>1583.0</ele>
  <time>2026-08-28T17:54:00Z</time>
  <course>0.0</course>
  <speed>0.0</speed>
  <fix>3d</fix>
</trkpt>
<trkpt lat="40.0713751" lon="-105.2297889">
  <ele>1583.03</ele>
  <time>2026-08-28T17:54:00Z</time>
  <course>247.04</course>
  <speed>0.022360679774997897</speed>
  <fix>3d</fix>
</trkpt>
<trkpt lat="40.0713749" lon="-105.229789">
  <ele>1583.0</ele>
  <time>2026-08-28T17:54:00Z</time>
  <course>0.0</course>
  <speed>0.0</speed>
  <fix>3d</fix>
</trkpt>
<trkpt lat="40.0713751" lon="-105.2297889">
  <ele>1583.02</ele>
  <time>2026-08-28T17:54:00Z</time>
  <course>247.04</course>
  <speed>0.022360679774997897</speed>
  <fix>3d</fix>
</trkpt>
<trkpt lat="40.0713749" lon="-105.229789">
  <ele>1583.0</ele>
  <time>2026-08-28T17:54:00Z</time>
  <course>0.0</course>
  <speed>0.0</speed>
  <fix>3d</fix>
</trkpt>
<trkpt lat="40.0713751" lon="-105.2297889">
  <ele>1583.02</ele>
  <time>2026-08-28T17:54:00Z</time>
  <course>247.04</course>
  <speed>0.022360679774997897</speed>
  <fix>3d</fix>
</trkpt>
<trkpt lat="40.0713749" lon="-105.229789">
  <ele>1583.0</ele>
  <time>2026-08-28T17:54:00Z</time>
  <course>0.0</course>
  <speed>0.0</speed>
  <fix>3d</fix>
</trkpt>
<trkpt lat="40.0713751" lon="-105.2297889">
  <ele>1583.02</ele>
  <time>2026-08-28T17:54:00Z</time>
  <course>247.04</course>
  <speed>0.022360679774997897</speed>
  <fix>3d</fix>
</trkpt>
<trkpt lat="40.0713749" lon="-105.229789">
  <ele>1583.0</ele>
  <time>2026-08-28T17:54:00Z</time>
  <course>0.0</course>
  <speed>0.0</speed>
  <fix>3d</fix>
</trkpt>
<trkpt lat="40.0713751" lon="-105.2297889">
  <ele>1583.02</ele>
  <time>2026-08-28T17:54:00Z</time>
  <course>247.04</course>
  <speed>0.022360679774997897</speed>
  <fix>3d</fix>
</trkpt>
<trkpt lat="40.0713749" lon="-105.229789">
  <ele>1583.0</ele>
  <time>2026-08-28T17:54:00Z</time>
  <course>0.0</course>
  <speed>0.0</speed>
  <fix>3d</fix>
</trkpt>
<trkpt lat="40.0713751" lon="-105.2297889">
  <ele>1583.01</ele>
  <time>2026-08-28T17:54:00Z</time>
  <course>247.04</course>
  <speed>0.022360679774997897</speed>
  <fix>3d</fix>
</trkpt>
<trkpt lat="40.0713749" lon="-105.229789">
  <ele>1583.0</ele>
  <time>2026-08-28T17:54:00Z</time>
  <course>0.0</course>
  <speed>0.0</speed>
  <fix>3d</fix>
</trkpt>
<trkpt lat="40.0713751" lon="-105.2297889">
  <ele>1583.02</ele>
  <time>2026-08-28T17:54:00Z</time>
  <course>247.04</course>
  <speed>0.022360679774997897</speed>
  <fix>3d</fix>
</trkpt>
<trkpt lat="40.0713749" lon="-105.229789">
  <ele>1583.0</ele>
  <time>2026-08-28T17:54:00Z</time>
  <course>0.0</course>
  <speed>0.0</speed>
  <fix>3d</fix>
</trkpt>
<trkpt lat="40.0713751" lon="-105.2297889">
  <ele>1583.01</ele>
  <time>2026-08-28T17:54:00Z</time>
  <course>247.04</course>
  <speed>0.022360679774997897</speed>
  <fix>3d</fix>
</trkpt>
<trkpt lat="40.0713749" lon="-105.229789">
  <ele>1583.0</ele>
  <time>2026-08-28T17:54:00Z</time>
  <course>0.0</course>
  <speed>0.0</speed>
  <fix>3d</fix>
</trkpt>
<trkpt lat="40.0713751" lon="-105.2297889">
  <ele>1583.01</ele>
  <time>2026-08-28T17:54:00Z</time>
  <course>247.04</course>
  <speed>0.022360679774997897</speed>
  <fix>3d</fix>
</trkpt>
<trkpt lat="40.0713749" lon="-105.229789">
  <ele>1583.0</ele>
  <time>2026-08-28T17:54:00Z</time>
  <course>0.0</course>
  <speed>0.0</speed>
  <fix>3d</fix>
</trkpt>
<trkpt lat="40.0713751" lon="-105.2297889">
  <ele>1583.01</ele>
  <time>2026-08-28T17:54:00Z</time>
  <course>247.04</course>
  <speed>0.022360679774997897</speed>
  <fix>3d</fix>
</trkpt>
<trkpt lat="40.0713749" lon="-105.229789">
  <ele>1583.0</ele>
  <time>2026-08-28T17:54:00Z</time>
  <course>0.0</course>
  <speed>0.0</speed>
  <fix>3d</fix>
</trkpt>
<trkpt lat="40.0713751" lon="-105.2297889">
  <ele>1583.01</ele>
  <time>2026-08-28T17:54:00Z</time>
  <course>247.04</course>
  <speed>0.022360679774997897</speed>
  <fix>3d</fix>
</trkpt>
<trkpt lat="40.0713749" lon="-105.229789">
  <ele>1583.0</ele>
  <time>2026-08-28T17:54:00Z</time>
  <course>0.0</course>
  <speed>0.0</speed>
  <fix>3d</fix>
</trkpt>
<trkpt lat="40.0713751" lon="-105.2297889">
  <ele>1583.01</ele>
  <time>2026-08-28T17:54:00Z</time>
  <course>247.04</course>
  <speed>0.022360679774997897</speed>
  <fix>3d</fix>
</trkpt>
<trkpt lat="40.0713749" lon="-105.229789">
  <ele>1583.0</ele>
  <time>2026-08-28T17:54:00Z</time>
  <course>0.0</course>
  <speed>0.0</speed>
  <fix>3d</fix>
</trkpt>
<trkpt lat="40.0713751" lon="-105.2297889">
  <ele>1583.0</ele>
  <time>2026-08-28T17:54:00Z</time>
  <course>247.04</course>
  <speed>0.022360679774997897</speed>
  <fix>3d</fix>
</trkpt>
<trkpt lat="40.0713749" lon="-105.229789">
  <ele>1583.0</ele>
  <time>2026-08-28T17:54:00Z</time>
  <course>0.0</course>
  <speed>0.0</speed>
  <fix>3d</fix>
</trkpt>
<trkpt lat="40.0713751" lon="-105.2297889">
  <ele>1583.0</ele>
  <time>2026-08-28T17:54:00Z</time>
  <course>247.04</course>
  <speed>0.022360679774997897</speed>
  <fix>3d</fix>
</trkpt>
<trkpt lat="40.0713749" lon="-105.229789">
  <ele>1583.0</ele>
  <time>2026-08-28T17:54:00Z</time>
  <course>0.0</course>
  <speed>0.0</speed>
  <fix>3d</fix>
</trkpt>
<trkpt lat="40.0713751" lon="-105.2297889">
  <ele>1583.0</ele>
  <time>2026-08-28T17:54:00Z</time>
  <course>247.04</course>
  <speed>0.022360679774997897</speed>
  <fix>3d</fix>
</trkpt>
<trkpt lat="40.0713749" lon="-105.229789">
  <ele>1583.0</ele>
  <time>2026-08-28T17:54:00Z</time>
  <course>0.0</course>
  <speed>0.0</speed>
  <fix>3d</fix>
</trkpt>
<trkpt lat="40.0713751" lon="-105.2297889">
  <ele>1583.0</ele>
  <time>2026-08-28T17:54:00Z</time>
  <course>247.04</course>
  <speed>0.022360679774997897</speed>
  <fix>3d</fix>
</trkpt>
<trkpt lat="40.0713749" lon="-105.229789">
  <ele>1583.0</ele>
  <time>2026-08-28T17:54:00Z</time>
  <course>0.0</course>
  <speed>0.0</speed>
  <fix>3d</fix>
</trkpt>
<trkpt lat="40.0713751" lon="-105.2297889">
  <ele>1583.0</ele>
  <time>2026-08-28T17:54:00Z</time>
  <course>247.04</course>
  <speed>0.022360679774997897</speed>
  <fix>3d</fix>
</trkpt>
<trkpt lat="40.0713749" lon="-105.229789">
  <ele>1583.0</ele>
  <time>2026-08-28T17:54:00Z</time>
  <course>0.0</course>
  <speed>0.0</speed>
  <fix>3d</fix>
</trkpt>
<trkpt lat="40.0713751" lon="-105.2297889">
  <ele>1583.01</ele>
  <time>2026-08-28T17:54:00Z</time>
  <course>247.04</course>
  <speed>0.022360679774997897</speed>
  <fix>3d</fix>
</trkpt>
<trkpt lat="40.0713749" lon="-105.229789">
  <ele>1583.0</ele>
  <time>2026-08-28T17:54:00Z</time>
  <course>0.0</course>
  <speed>0.0</speed>
  <fix>3d</fix>
</trkpt>
<trkpt lat="40.0713751" lon="-105.2297889">
  <ele>1583.01</ele>
  <time>2026-08-28T17:54:00Z</time>
  <course>247.04</course>
  <speed>0.022360679774997897</speed>
  <fix>3d</fix>
</trkpt>
<trkpt lat="40.0713749" lon="-105.229789">
  <ele>1583.0</ele>
  <time>2026-08-28T17:54:00Z</time>
  <course>0.0</course>
  <speed>0.0</speed>
  <fix>3d</fix>
</trkpt>
<trkpt lat="40.0713751" lon="-105.2297889">
  <ele>1583.01</ele>
  <time>2026-08-28T17:54:00Z</time>
  <course>247.04</course>
  <speed>0.022360679774997897</speed>
  <fix>3d</fix>
</trkpt>
<trkpt lat="40.0713749" lon="-105.229789">
  <ele>1583.0</ele>
  <time>2026-08-28T17:54:00Z</time>
  <course>0.0</course>
  <speed>0.0</speed>
  <fix>3d</fix>
</trkpt>
<trkpt lat="40.0713751" lon="-105.2297889">
  <ele>1583.01</ele>
  <time>2026-08-28T17:54:00Z</time>
  <course>247.04</course>
  <speed>0.022360679774997897</speed>
  <fix>3d</fix>
</trkpt>
<trkpt lat="40.0713749" lon="-105.229789">
  <ele>1583.0</ele>
  <time>2026-08-28T17:54:00Z</time>
  <course>0.0</course>
  <speed>0.0</speed>
  <fix>3d</fix>
</trkpt>
<trkpt lat="40.0713751" lon="-105.2297889">
  <ele>1583.01</ele>
  <time>2026-08-28T17:54:00Z</time>
  <course>247.04</course>
  <speed>0.022360679774997897</speed>
  <fix>3d</fix>
</trkpt>
<trkpt lat="40.0713749" lon="-105.229789">
  <ele>1583.0</ele>
  <time>2026-08-28T17:54:00Z</time>
  <course>0.0</course>
  <speed>0.0</speed>
  <fix>3d</fix>
</trkpt>
<trkpt lat="40.0713751" lon="-105.2297889">
  <ele>1583.0</ele>
  <time>2026-08-28T17:54:00Z</time>
  <course>247.03</course>
  <speed>0.022360679774997897</speed>
  <fix>3d</fix>
</trkpt>
<trkpt lat="40.0713749" lon="-105.229789">
  <ele>1583.0</ele>
  <time>2026-08-28T17:54:00Z</time>
  <course>0.0</course>
  <speed>0.0</speed>
  <fix>3d</fix>
</trkpt>
<trkpt lat="40.0713751" lon="-105.2297889">
  <ele>1583.0</ele>
  <time>2026-08-28T17:54:00Z</time>
  <course>247.03</course>
  <speed>0.022360679774997897</speed>
  <fix>3d</fix>
</trkpt>
<trkpt lat="40.0713749" lon="-105.229789">
  <ele>1583.0</ele>
  <time>2026-08-28T17:54:00Z</time>
  <course>0.0</course>
  <speed>0.0</speed>
  <fix>3d</fix>
</trkpt>
<trkpt lat="40.0713751" lon="-105.2297889">
  <ele>1583.0</ele>
  <time>2026-08-28T17:54:00Z</time>
  <course>247.03</course>
  <speed>0.022360679774997897</speed>
  <fix>3d</fix>
</trkpt>
<trkpt lat="40.0713749" lon="-105.229789">
  <ele>1583.0</ele>
  <time>2026-08-28T17:54:00Z</time>
  <course>0.0</course>
  <speed>0.0</speed>
  <fix>3d</fix>
</trkpt>
<trkpt lat="40.0713751" lon="-105.2297889">
  <ele>1583.0</ele>
  <time>2026-08-28T17:54:00Z</time>
  <course>247.03</course>
  <speed>0.022360679774997897</speed>
  <fix>3d</fix>
</trkpt>
<trkpt lat="40.0713749" lon="-105.229789">
  <ele>1583.0</ele>
  <time>2026-08-28T17:54:00Z</time>
  <course>0.0</course>
  <speed>0.0</speed>
  <fix>3d</fix>
</trkpt>
<trkpt lat="40.0713751" lon="-105.2297889">
  <ele>1583.0</ele>
  <time>2026-08-28T17:54:00Z</time>
  <course>247.03</course>
  <speed>0.022360679774997897</speed>
  <fix>3d</fix>
</trkpt>
<trkpt lat="40.0713749" lon="-105.229789">
  <ele>1583.0</ele>
  <time>2026-08-28T17:54:00Z</time>
  <course>0.0</course>
  <speed>0.0</speed>
  <fix>3d</fix>
</trkpt>
<trkpt lat="40.0713751" lon="-105.2297889">
  <ele>1583.0</ele>
  <time>2026-08-28T17:54:00Z</time>
  <course>247.03</course>
  <speed>0.022360679774997897</speed>
  <fix>3d</fix>
</trkpt>
<trkpt lat="40.0713749" lon="-105.229789">
  <ele>1583.0</ele>
  <time>2026-08-28T17:54:00Z</time>
  <course>0.0</course>
  <speed>0.0</speed>
  <fix>3d</fix>
</trkpt>
<trkpt lat="40.0713751" lon="-105.2297889">
  <ele>1583.0</ele>
  <time>2026-08-28T17:54:00Z</time>
  <course>247.03</course>
  <speed>0.022360679774997897</speed>
  <fix>3d</fix>
</trkpt>
<trkpt lat="40.0713749" lon="-105.229789">
  <ele>1583.0</ele>
  <time>2026-08-28T17:54:00Z</time>
  <course>0.0</course>
  <speed>0.0</speed>
  <fix>3d</fix>
</trkpt>
<trkpt lat="40.0713751" lon="-105.2297889">
  <ele>1583.0</ele>
  <time>2026-08-28T17:54:00Z</time>
  <course>247.03</course>
  <speed>0.022360679774997897</speed>
  <fix>3d</fix>
</trkpt>
<trkpt lat="40.0713749" lon="-105.229789">
  <ele>1583.0</ele>
  <time>2026-08-28T17:54:00Z</time>
  <course>0.0</course>
  <speed>0.0</speed>
  <fix>3d</fix>
</trkpt>
<trkpt lat="40.0713751" lon="-105.2297889">
  <ele>1583.0</ele>
  <time>2026-08-28T17:54:00Z</time>
  <course>247.03</course>
  <speed>0.022360679774997897</speed>
  <fix>3d</fix>
</trkpt>
<trkpt lat="40.0713749" lon="-105.229789">
  <ele>1583.0</ele>
  <time>2026-08-28T17:54:00Z</time>
  <course>0.0</course>
  <speed>0.0</speed>
  <fix>3d</fix>
</trkpt>
<trkpt lat="40.0713751" lon="-105.2297889">
  <ele>1583.0</ele>
  <time>2026-08-28T17:54:00Z</time>
  <course>247.03</course>
  <speed>0.022360679774997897</speed>
  <fix>3d</fix>
</trkpt>
<trkpt lat="40.0713749" lon="-105.229789">
  <ele>1583.0</ele>
  <time>2026-08-28T17:54:00Z</time>
  <course>0.0</course>
  <speed>0.0</speed>
  <fix>3d</fix>
</trkpt>
<trkpt lat="40.0713751" lon="-105.2297889">
  <ele>1583.0</ele>
  <time>2026-08-28T17:54:00Z</time>
  <course>247.03</course>
  <speed>0.022360679774997897</speed>
  <fix>3d</fix>
</trkpt>
<trkpt lat="40.0713749" lon="-105.229789">
  <ele>1583.0</ele>
  <time>2026-08-28T17:54:00Z</time>
  <course>0.0</course>
  <speed>0.0</speed>
  <fix>3d</fix>
</trkpt>
<trkpt lat="40.0713751" lon="-105.2297889">
  <ele>1583.0</ele>
  <time>2026-08-28T17:54:00Z</time>
  <course>247.03</course>
  <speed>0.022360679774997897</speed>
  <fix>3d</fix>
</trkpt>
<trkpt lat="40.0713749" lon="-105.229789">
  <ele>1583.0</ele>
  <time>2026-08-28T17:54:00Z</time>
  <course>0.0</course>
  <speed>0.0</speed>
  <fix>3d</fix>
</trkpt>
<trkpt lat="40.0713751" lon="-105.2297889">
  <ele>1583.0</ele>
  <time>2026-08-28T17:54:00Z</time>
  <course>247.03</course>
  <speed>0.022360679774997897</speed>
  <fix>3d</fix>
</trkpt>
<trkpt lat="40.0713749" lon="-105.229789">
  <ele>1583.0</ele>
  <time>2026-08-28T17:54:00Z</time>
  <course>0.0</course>
  <speed>0.0</speed>
  <fix>3d</fix>
</trkpt>
<trkpt lat="40.0713751" lon="-105.2297889">
  <ele>1583.0</ele>
  <time>2026-08-28T17:54:00Z</time>
  <course>247.03</course>
  <speed>0.022360679774997897</speed>
  <fix>3d</fix>
</trkpt>
<trkpt lat="40.0713749" lon="-105.229789">
  <ele>1583.0</ele>
  <time>2026-08-28T17:54:00Z</time>
  <course>0.0</course>
  <speed>0.0</speed>
  <fix>3d</fix>
</trkpt>
<trkpt lat="40.0713751" lon="-105.2297889">
  <ele>1583.01</ele>
  <time>2026-08-28T17:54:00Z</time>
  <course>247.03</course>
  <speed>0.022360679774997897</speed>
  <fix>3d</fix>
</trkpt>
<trkpt lat="40.0713749" lon="-105.229789">
  <ele>1583.0</ele>
  <time>2026-08-28T17:54:00Z</time>
  <course>0.0</course>
  <speed>0.0</speed>
  <fix>3d</fix>
</trkpt>
<trkpt lat="40.0713751" lon="-105.2297889">
  <ele>1583.01</ele>
  <time>2026-08-28T17:54:00Z</time>
  <course>247.03</course>
  <speed>0.022360679774997897</speed>
  <fix>3d</fix>
</trkpt>
<trkpt lat="40.0713749" lon="-105.229789">
  <ele>1583.0</ele>
  <time>2026-08-28T17:54:00Z</time>
  <course>0.0</course>
  <speed>0.0</speed>
  <fix>3d</fix>
</trkpt>
<trkpt lat="40.0713751" lon="-105.2297889">
  <ele>1583.01</ele>
  <time>2026-08-28T17:54:00Z</time>
  <course>247.03</course>
  <speed>0.022360679774997897</speed>
  <fix>3d</fix>
</trkpt>
<trkpt lat="40.0713749" lon="-105.229789">
  <ele>1583.0</ele>
  <time>2026-08-28T17:54:00Z</time>
  <course>0.0</course>
  <speed>0.0</speed>
  <fix>3d</fix>
</trkpt>
<trkpt lat="40.0713751" lon="-105.2297889">
  <ele>1583.01</ele>
  <time>2026-08-28T17:54:00Z</time>
  <course>247.03</course>
  <speed>0.022360679774997897</speed>
  <fix>3d</fix>
</trkpt>
<trkpt lat="40.0713749" lon="-105.229789">
  <ele>1583.0</ele>
  <time>2026-08-28T17:54:00Z</time>
  <course>0.0</course>
  <speed>0.0</speed>
  <fix>3d</fix>
</trkpt>
<trkpt lat="40.0713751" lon="-105.2297889">
  <ele>1583.01</ele>
  <time>2026-08-28T17:54:00Z</time>
  <course>247.03</course>
  <speed>0.022360679774997897</speed>
  <fix>3d</fix>
</trkpt>
<trkpt lat="40.0713749" lon="-105.229789">
  <ele>1583.0</ele>
  <time>2026-08-28T17:54:00Z</time>
  <course>0.0</course>
  <speed>0.0</speed>
  <fix>3d</fix>
</trkpt>
<trkpt lat="40.0713751" lon="-105.2297889">
  <ele>1583.01</ele>
  <time>2026-08-28T17:54:00Z</time>
  <course>247.03</course>
  <speed>0.022360679774997897</speed>
  <fix>3d</fix>
</trkpt>
<trkpt lat="40.0713749" lon="-105.229789">
  <ele>1583.0</ele>
  <time>2026-08-28T17:54:00Z</time>
  <course>0.0</course>
  <speed>0.0</speed>
  <fix>3d</fix>
</trkpt>
<trkpt lat="40.0713751" lon="-105.2297889">
  <ele>1583.01</ele>
  <time>2026-08-28T17:54:00Z</time>
  <course>247.03</course>
  <speed>0.022360679774997897</speed>
  <fix>3d</fix>
</trkpt>
<trkpt lat="40.0713749" lon="-105.229789">
  <ele>1583.0</ele>
  <time>2026-08-28T17:54:00Z</time>
  <course>0.0</course>
  <speed>0.0</speed>
  <fix>3d</fix>
</trkpt>
<trkpt lat="40.0713751" lon="-105.2297889">
  <ele>1583.0</ele>
  <time>2026-08-28T17:54:00Z</time>
  <course>247.03</course>
  <speed>0.022360679774997897</speed>
  <fix>3d</fix>
</trkpt>
<trkpt lat="40.0713749" lon="-105.229789">
  <ele>1583.0</ele>
  <time>2026-08-28T17:54:00Z</time>
  <course>0.0</course>
  <speed>0.0</speed>
  <fix>3d</fix>
</trkpt>
<trkpt lat="40.0713751" lon="-105.2297889">
  <ele>1583.0</ele>
  <time>2026-08-28T17:54:00Z</time>
  <course>247.03</course>
  <speed>0.022360679774997897</speed>
  <fix>3d</fix>
</trkpt>
<trkpt lat="40.0713749" lon="-105.229789">
  <ele>1583.0</ele>
  <time>2026-08-28T17:54:00Z</time>
  <course>0.0</course>
  <speed>0.0</speed>
  <fix>3d</fix>
</trkpt>
<trkpt lat="40.0713751" lon="-105.2297889">
  <ele>1583.0</ele>
  <time>2026-08-28T17:54:00Z</time>
  <course>247.03</course>
  <speed>0.022360679774997897</speed>
  <fix>3d</fix>
</trkpt>
<trkpt lat="40.0713749" lon="-105.229789">
  <ele>1583.0</ele>
  <time>2026-08-28T17:54:00Z</time>
  <course>0.0</course>
  <speed>0.0</speed>
  <fix>3d</fix>
</trkpt>
<trkpt lat="40.0713751" lon="-105.2297889">
  <ele>1583.0</ele>
  <time>2026-08-28T17:54:00Z</time>
  <course>247.03</course>
  <speed>0.022360679774997897</speed>
  <fix>3d</fix>
</trkpt>
<trkpt lat="40.0713749" lon="-105.229789">
  <ele>1583.0</ele>
  <time>2026-08-28T17:54:00Z</time>
  <course>0.0</course>
  <speed>0.0</speed>
  <fix>3d</fix>
</trkpt>
<trkpt lat="40.0713751" lon="-105.2297889">
  <ele>1583.0</ele>
  <time>2026-08-28T17:54:00Z</time>
  <course>247.03</course>
  <speed>0.022360679774997897</speed>
  <fix>3d</fix>
</trkpt>
<trkpt lat="40.0713749" lon="-105.229789">
  <ele>1583.0</ele>
  <time>2026-08-28T17:54:00Z</time>
  <course>0.0</course>
  <speed>0.0</speed>
  <fix>3d</fix>
</trkpt>
<trkpt lat="40.0713751" lon="-105.2297889">
  <ele>1583.0</ele>
  <time>2026-08-28T17:54:00Z</time>
  <course>247.03</course>
  <speed>0.022360679774997897</speed>
  <fix>3d</fix>
</trkpt>
<trkpt lat="40.0713749" lon="-105.229789">
  <ele>1583.0</ele>
  <time>2026-08-28T17:54:00Z</time>
  <course>0.0</course>
  <speed>0.0</speed>
  <fix>3d</fix>
</trkpt>
<trkpt lat="40.0713751" lon="-105.2297889">
  <ele>1583.01</ele>
  <time>2026-08-28T17:54:00Z</time>
  <course>247.03</course>
  <speed>0.022360679774997897</speed>
  <fix>3d</fix>
</trkpt>
<trkpt lat="40.0713749" lon="-105.229789">
  <ele>1583.0</ele>
  <time>2026-08-28T17:54:00Z</time>
  <course>0.0</course>
  <speed>0.0</speed>
  <fix>3d</fix>
</trkpt>
<trkpt lat="40.0713751" lon="-105.2297889">
  <ele>1583.01</ele>
  <time>2026-08-28T17:54:00Z</time>
  <course>247.03</course>
  <speed>0.022360679774997897</speed>
  <fix>3d</fix>
</trkpt>
<trkpt lat="40.0713749" lon="-105.229789">
  <ele>1583.0</ele>
  <time>2026-08-28T17:54:00Z</time>
  <course>0.0</course>
  <speed>0.0</speed>
  <fix>3d</fix>
</trkpt>
<trkpt lat="40.0713751" lon="-105.2297889">
  <ele>1583.01</ele>
  <time>2026-08-28T17:54:00Z</time>
  <course>247.03</course>
  <speed>0.022360679774997897</speed>
  <fix>3d</fix>
</trkpt>
<trkpt lat="40.0713749" lon="-105.229789">
  <ele>1583.0</ele>
  <time>2026-08-28T17:54:00Z</time>
  <course>0.0</course>
  <speed>0.0</speed>
  <fix>3d</fix>
</trkpt>
<trkpt lat="40.071375" lon="-105.2297889">
  <ele>1583.01</ele>
  <time>2026-08-28T17:54:00Z</time>
  <course>247.03</course>
  <speed>0.022360679774997897</speed>
  <fix>3d</fix>
</trkpt>
<trkpt lat="40.0713749" lon="-105.229789">
  <ele>1583.0</ele>
  <time>2026-08-28T17:54:00Z</time>
  <course>0.0</course>
  <speed>0.0</speed>
  <fix>3d</fix>
</trkpt>
<trkpt lat="40.0713751" lon="-105.2297889">
  <ele>1583.01</ele>
  <time>2026-08-28T17:54:00Z</time>
  <course>247.03</course>
  <speed>0.022360679774997897</speed>
  <fix>3d</fix>
</trkpt>
<trkpt lat="40.0713749" lon="-105.229789">
  <ele>1583.0</ele>
  <time>2026-08-28T17:54:00Z</time>
  <course>0.0</course>
  <speed>0.0</speed>
  <fix>3d</fix>
</trkpt>
<trkpt lat="40.071375" lon="-105.2297889">
  <ele>1583.0</ele>
  <time>2026-08-28T17:54:00Z</time>
  <course>247.03</course>
  <speed>0.022360679774997897</speed>
  <fix>3d</fix>
</trkpt>
<trkpt lat="40.0713749" lon="-105.229789">
  <ele>1583.0</ele>
  <time>2026-08-28T17:54:00Z</time>
  <course>0.0</course>
  <speed>0.0</speed>
  <fix>3d</fix>
</trkpt>
<trkpt lat="40.0713751" lon="-105.2297889">
  <ele>1583.0</ele>
  <time>2026-08-28T17:54:00Z</time>
  <course>247.03</course>
  <speed>0.022360679774997897</speed>
  <fix>3d</fix>
</trkpt>
<trkpt lat="40.0713749" lon="-105.229789">
  <ele>1583.0</ele>
  <time>2026-08-28T17:54:00Z</time>
  <course>0.0</course>
  <speed>0.0</speed>
  <fix>3d</fix>
</trkpt>
<trkpt lat="40.071375" lon="-105.2297889">
  <ele>1583.0</ele>
  <time>2026-08-28T17:54:00Z</time>
  <course>247.03</course>
  <speed>0.022360679774997897</speed>
  <fix>3d</fix>
</trkpt>
<trkpt lat="40.0713749" lon="-105.229789">
  <ele>1583.0</ele>
  <time>2026-08-28T17:54:00Z</time>
  <course>0.0</course>
  <speed>0.0</speed>
  <fix>3d</fix>
</trkpt>
<trkpt lat="40.0713751" lon="-105.2297889">
  <ele>1583.0</ele>
  <time>2026-08-28T17:54:00Z</time>
  <course>247.03</course>
  <speed>0.022360679774997897</speed>
  <fix>3d</fix>
</trkpt>
<trkpt lat="40.0713749" lon="-105.229789">
  <ele>1583.0</ele>
  <time>2026-08-28T17:54:00Z</time>
  <course>0.0</course>
  <speed>0.0</speed>
  <fix>3d</fix>
</trkpt>
<trkpt lat="40.071375" lon="-105.2297889">
  <ele>1583.0</ele>
  <time>2026-08-28T17:54:00Z</time>
  <course>247.03</course>
  <speed>0.022360679774997897</speed>
  <fix>3d</fix>
</trkpt>
<trkpt lat="40.0713749" lon="-105.229789">
  <ele>1583.0</ele>
  <time>2026-08-28T17:54:00Z</time>
  <course>0.0</course>
  <speed>0.0</speed>
  <fix>3d</fix>
</trkpt>
<trkpt lat="40.0713751" lon="-105.2297889">
  <ele>1583.0</ele>
  <time>2026-08-28T17:54:00Z</time>
  <course>247.03</course>
  <speed>0.022360679774997897</speed>
  <fix>3d</fix>
</trkpt>
<trkpt lat="40.0713749" lon="-105.229789">
  <ele>1583.0</ele>
  <time>2026-08-28T17:54:00Z</time>
  <course>0.0</course>
  <speed>0.0</speed>
  <fix>3d</fix>
</trkpt>
<trkpt lat="40.071375" lon="-105.2297889">
  <ele>1583.0</ele>
  <time>2026-08-28T17:54:00Z</time>
  <course>247.03</course>
  <speed>0.022360679774997897</speed>
  <fix>3d</fix>
</trkpt>
<trkpt lat="40.0713749" lon="-105.229789">
  <ele>1583.0</ele>
  <time>2026-08-28T17:54:00Z</time>
  <course>0.0</course>
  <speed>0.0</speed>
  <fix>3d</fix>
</trkpt>
<trkpt lat="40.0713751" lon="-105.2297889">
  <ele>1583.0</ele>
  <time>2026-08-28T17:54:00Z</time>
  <course>247.03</course>
  <speed>0.022360679774997897</speed>
  <fix>3d</fix>
</trkpt>
<trkpt lat="40.0713749" lon="-105.229789">
  <ele>1583.0</ele>
  <time>2026-08-28T17:54:00Z</time>
  <course>0.0</course>
  <speed>0.0</speed>
  <fix>3d</fix>
</trkpt>
<trkpt lat="40.071375" lon="-105.2297889">
  <ele>1583.0</ele>
  <time>2026-08-28T17:54:00Z</time>
  <course>247.03</course>
  <speed>0.022360679774997897</speed>
  <fix>3d</fix>
</trkpt>
<trkpt lat="40.0713749" lon="-105.229789">
  <ele>1583.0</ele>
  <time>2026-08-28T17:54:00Z</time>
  <course>0.0</course>
  <speed>0.0</speed>
  <fix>3d</fix>
</trkpt>
<trkpt lat="40.0713751" lon="-105.2297889">
  <ele>1583.0</ele>
  <time>2026-08-28T17:54:00Z</time>
  <course>247.03</course>
  <speed>0.022360679774997897</speed>
  <fix>3d</fix>
</trkpt>
<trkpt lat="40.0713749" lon="-105.229789">
  <ele>1583.0</ele>
  <time>2026-08-28T17:54:00Z</time>
  <course>0.0</course>
  <speed>0.0</speed>
  <fix>3d</fix>
</trkpt>
<trkpt lat="40.0713751" lon="-105.2297889">
  <ele>1583.0</ele>
  <time>2026-08-28T17:54:00Z</time>
  <course>247.03</course>
  <speed>0.022360679774997897</speed>
  <fix>3d</fix>
</trkpt>
<trkpt lat="40.0713749" lon="-105.229789">
  <ele>1583.0</ele>
  <time>2026-08-28T17:54:00Z</time>
  <course>0.0</course>
  <speed>0.0</speed>
  <fix>3d</fix>
</trkpt>
<trkpt lat="40.0713751" lon="-105.2297889">
  <ele>1583.0</ele>
  <time>2026-08-28T17:54:00Z</time>
  <course>247.03</course>
  <speed>0.022360679774997897</speed>
  <fix>3d</fix>
</trkpt>
<trkpt lat="40.0713749" lon="-105.229789">
  <ele>1583.0</ele>
  <time>2026-08-28T17:54:00Z</time>
  <course>0.0</course>
  <speed>0.0</speed>
  <fix>3d</fix>
</trkpt>
<trkpt lat="40.0713751" lon="-105.2297889">
  <ele>1583.0</ele>
  <time>2026-08-28T17:54:00Z</time>
  <course>247.03</course>
  <speed>0.022360679774997897</speed>
  <fix>3d</fix>
</trkpt>
<trkpt lat="40.0713749" lon="-105.229789">
  <ele>1583.0</ele>
  <time>2026-08-28T17:54:00Z</time>
  <course>0.0</course>
  <speed>0.0</speed>
  <fix>3d</fix>
</trkpt>
<trkpt lat="40.0713751" lon="-105.2297889">
  <ele>1583.0</ele>
  <time>2026-08-28T17:54:00Z</time>
  <course>247.03</course>
  <speed>0.022360679774997897</speed>
  <fix>3d</fix>
</trkpt>
<trkpt lat="40.0713749" lon="-105.229789">
  <ele>1583.0</ele>
  <time>2026-08-28T17:54:00Z</time>
  <course>0.0</course>
  <speed>0.0</speed>
  <fix>3d</fix>
</trkpt>
<trkpt lat="40.0713751" lon="-105.2297889">
  <ele>1583.0</ele>
  <time>2026-08-28T17:54:00Z</time>
  <course>247.03</course>
  <speed>0.022360679774997897</speed>
  <fix>3d</fix>
</trkpt>
<trkpt lat="40.0713749" lon="-105.229789">
  <ele>1583.0</ele>
  <time>2026-08-28T17:54:00Z</time>
  <course>0.0</course>
  <speed>0.0</speed>
  <fix>3d</fix>
</trkpt>
<trkpt lat="40.0713751" lon="-105.2297889">
  <ele>1583.0</ele>
  <time>2026-08-28T17:54:00Z</time>
  <course>247.03</course>
  <speed>0.022360679774997897</speed>
  <fix>3d</fix>
</trkpt>
<trkpt lat="40.0713749" lon="-105.229789">
  <ele>1583.0</ele>
  <time>2026-08-28T17:54:00Z</time>
  <course>0.0</course>
  <speed>0.0</speed>
  <fix>3d</fix>
</trkpt>
<trkpt lat="40.0713751" lon="-105.2297889">
  <ele>1582.99</ele>
  <time>2026-08-28T17:54:00Z</time>
  <course>247.03</course>
  <speed>0.022360679774997897</speed>
  <fix>3d</fix>
</trkpt>
<trkpt lat="40.0713749" lon="-105.229789">
  <ele>1583.0</ele>
  <time>2026-08-28T17:54:00Z</time>
  <course>0.0</course>
  <speed>0.0</speed>
  <fix>3d</fix>
</trkpt>
<trkpt lat="40.0713751" lon="-105.2297889">
  <ele>1583.0</ele>
  <time>2026-08-28T17:54:00Z</time>
  <course>247.03</course>
  <speed>0.022360679774997897</speed>
  <fix>3d</fix>
</trkpt>
<trkpt lat="40.0713749" lon="-105.229789">
  <ele>1583.0</ele>
  <time>2026-08-28T17:54:00Z</time>
  <course>0.0</course>
  <speed>0.0</speed>
  <fix>3d</fix>
</trkpt>
<trkpt lat="40.0713751" lon="-105.2297889">
  <ele>1583.0</ele>
  <time>2026-08-28T17:54:00Z</time>
  <course>247.03</course>
  <speed>0.022360679774997897</speed>
  <fix>3d</fix>
</trkpt>
<trkpt lat="40.0713749" lon="-105.229789">
  <ele>1583.0</ele>
  <time>2026-08-28T17:54:00Z</time>
  <course>0.0</course>
  <speed>0.0</speed>
  <fix>3d</fix>
</trkpt>
<trkpt lat="40.0713751" lon="-105.2297889">
  <ele>1583.0</ele>
  <time>2026-08-28T17:54:00Z</time>
  <course>247.03</course>
  <speed>0.022360679774997897</speed>
  <fix>3d</fix>
</trkpt>
<trkpt lat="40.0713749" lon="-105.229789">
  <ele>1583.0</ele>
  <time>2026-08-28T17:54:00Z</time>
  <course>0.0</course>
  <speed>0.0</speed>
  <fix>3d</fix>
</trkpt>
<trkpt lat="40.071375" lon="-105.2297889">
  <ele>1583.0</ele>
  <time>2026-08-28T17:54:00Z</time>
  <course>247.03</course>
  <speed>0.022360679774997897</speed>
  <fix>3d</fix>
</trkpt>
<trkpt lat="40.0713749" lon="-105.229789">
  <ele>1583.0</ele>
  <time>2026-08-28T17:54:00Z</time>
  <course>0.0</course>
  <speed>0.0</speed>
  <fix>3d</fix>
</trkpt>
<trkpt lat="40.0713751" lon="-105.2297889">
  <ele>1583.01</ele>
  <time>2026-08-28T17:54:00Z</time>
  <course>247.03</course>
  <speed>0.022360679774997897</speed>
  <fix>3d</fix>
</trkpt>
<trkpt lat="40.0713749" lon="-105.229789">
  <ele>1583.0</ele>
  <time>2026-08-28T17:54:00Z</time>
  <course>0.0</course>
  <speed>0.0</speed>
  <fix>3d</fix>
</trkpt>
<trkpt lat="40.071375" lon="-105.2297889">
  <ele>1583.01</ele>
  <time>2026-08-28T17:54:00Z</time>
  <course>247.03</course>
  <speed>0.022360679774997897</speed>
  <fix>3d</fix>
</trkpt>
<trkpt lat="40.0713749" lon="-105.229789">
  <ele>1583.0</ele>
  <time>2026-08-28T17:54:00Z</time>
  <course>0.0</course>
  <speed>0.0</speed>
  <fix>3d</fix>
</trkpt>
<trkpt lat="40.0713751" lon="-105.2297889">
  <ele>1583.01</ele>
  <time>2026-08-28T17:54:00Z</time>
  <course>247.03</course>
  <speed>0.022360679774997897</speed>
  <fix>3d</fix>
</trkpt>
<trkpt lat="40.0713749" lon="-105.229789">
  <ele>1583.0</ele>
  <time>2026-08-28T17:54:00Z</time>
  <course>0.0</course>
  <speed>0.0</speed>
  <fix>3d</fix>
</trkpt>
<trkpt lat="40.071375" lon="-105.2297889">
  <ele>1583.01</ele>
  <time>2026-08-28T17:54:00Z</time>
  <course>247.03</course>
  <speed>0.022360679774997897</speed>
  <fix>3d</fix>
</trkpt>
<trkpt lat="40.0713749" lon="-105.229789">
  <ele>1583.0</ele>
  <time>2026-08-28T17:54:00Z</time>
  <course>0.0</course>
  <speed>0.0</speed>
  <fix>3d</fix>
</trkpt>
<trkpt lat="40.0713751" lon="-105.2297889">
  <ele>1583.01</ele>
  <time>2026-08-28T17:54:00Z</time>
  <course>247.03</course>
  <speed>0.022360679774997897</speed>
  <fix>3d</fix>
</trkpt>
<trkpt lat="40.0713749" lon="-105.229789">
  <ele>1583.0</ele>
  <time>2026-08-28T17:54:00Z</time>
  <course>0.0</course>
  <speed>0.0</speed>
  <fix>3d</fix>
</trkpt>
<trkpt lat="40.071375" lon="-105.2297889">
  <ele>1583.01</ele>
  <time>2026-08-28T17:54:00Z</time>
  <course>247.03</course>
  <speed>0.022360679774997897</speed>
  <fix>3d</fix>
</trkpt>
<trkpt lat="40.0713749" lon="-105.229789">
  <ele>1583.0</ele>
  <time>2026-08-28T17:54:00Z</time>
  <course>0.0</course>
  <speed>0.0</speed>
  <fix>3d</fix>
</trkpt>
<trkpt lat="40.0713751" lon="-105.2297889">
  <ele>1583.01</ele>
  <time>2026-08-28T17:54:00Z</time>
  <course>247.03</course>
  <speed>0.022360679774997897</speed>
  <fix>3d</fix>
</trkpt>
<trkpt lat="40.0713749" lon="-105.229789">
  <ele>1583.0</ele>
  <time>2026-08-28T17:54:00Z</time>
  <course>0.0</course>
  <speed>0.0</speed>
  <fix>3d</fix>
</trkpt>
<trkpt lat="40.071375" lon="-105.2297889">
  <ele>1583.01</ele>
  <time>2026-08-28T17:54:00Z</time>
  <course>247.03</course>
  <speed>0.02</speed>
  <fix>3d</fix>
</trkpt>
<trkpt lat="40.0713749" lon="-105.229789">
  <ele>1583.0</ele>
  <time>2026-08-28T17:54:00Z</time>
  <course>0.0</course>
  <speed>0.0</speed>
  <fix>3d</fix>
</trkpt>
<trkpt lat="40.0713751" lon="-105.2297889">
  <ele>1583.01</ele>
  <time>2026-08-28T17:54:00Z</time>
  <course>247.03</course>
  <speed>0.022360679774997897</speed>
  <fix>3d</fix>
</trkpt>
<trkpt lat="40.0713749" lon="-105.229789">
  <ele>1583.0</ele>
  <time>2026-08-28T17:54:00Z</time>
  <course>0.0</course>
  <speed>0.0</speed>
  <fix>3d</fix>
</trkpt>
<trkpt lat="40.0713751" lon="-105.2297889">
  <ele>1583.01</ele>
  <time>2026-08-28T17:54:00Z</time>
  <course>247.03</course>
  <speed>0.02</speed>
  <fix>3d</fix>
</trkpt>
<trkpt lat="40.0713749" lon="-105.229789">
  <ele>1583.0</ele>
  <time>2026-08-28T17:54:00Z</time>
  <course>0.0</course>
  <speed>0.0</speed>
  <fix>3d</fix>
</trkpt>
<trkpt lat="40.0713751" lon="-105.2297889">
  <ele>1583.01</ele>
  <time>2026-08-28T17:54:00Z</time>
  <course>247.03</course>
  <speed>0.022360679774997897</speed>
  <fix>3d</fix>
</trkpt>
<trkpt lat="40.0713749" lon="-105.229789">
  <ele>1583.0</ele>
  <time>2026-08-28T17:54:00Z</time>
  <course>0.0</course>
  <speed>0.0</speed>
  <fix>3d</fix>
</trkpt>
<trkpt lat="40.0713751" lon="-105.2297889">
  <ele>1583.01</ele>
  <time>2026-08-28T17:54:00Z</time>
  <course>247.03</course>
  <speed>0.02</speed>
  <fix>3d</fix>
</trkpt>
<trkpt lat="40.0713749" lon="-105.229789">
  <ele>1583.0</ele>
  <time>2026-08-28T17:54:00Z</time>
  <course>0.0</course>
  <speed>0.0</speed>
  <fix>3d</fix>
</trkpt>
<trkpt lat="40.0713751" lon="-105.2297889">
  <ele>1583.01</ele>
  <time>2026-08-28T17:54:00Z</time>
  <course>247.03</course>
  <speed>0.022360679774997897</speed>
  <fix>3d</fix>
</trkpt>
<trkpt lat="40.0713749" lon="-105.229789">
  <ele>1583.0</ele>
  <time>2026-08-28T17:54:00Z</time>
  <course>0.0</course>
  <speed>0.0</speed>
  <fix>3d</fix>
</trkpt>
<trkpt lat="40.0713751" lon="-105.2297889">
  <ele>1583.01</ele>
  <time>2026-08-28T17:54:00Z</time>
  <course>247.03</course>
  <speed>0.022360679774997897</speed>
  <fix>3d</fix>
</trkpt>
<trkpt lat="40.0713749" lon="-105.229789">
  <ele>1583.0</ele>
  <time>2026-08-28T17:54:00Z</time>
  <course>0.0</course>
  <speed>0.0</speed>
  <fix>3d</fix>
</trkpt>
<trkpt lat="40.0713751" lon="-105.2297889">
  <ele>1583.01</ele>
  <time>2026-08-28T17:54:00Z</time>
  <course>247.03</course>
  <speed>0.022360679774997897</speed>
  <fix>3d</fix>
</trkpt>
<trkpt lat="40.0713749" lon="-105.229789">
  <ele>1583.0</ele>
  <time>2026-08-28T17:54:00Z</time>
  <course>0.0</course>
  <speed>0.0</speed>
  <fix>3d</fix>
</trkpt>
<trkpt lat="40.0713751" lon="-105.2297889">
  <ele>1583.01</ele>
  <time>2026-08-28T17:54:00Z</time>
  <course>247.03</course>
  <speed>0.022360679774997897</speed>
  <fix>3d</fix>
</trkpt>
<trkpt lat="40.0713749" lon="-105.229789">
  <ele>1583.0</ele>
  <time>2026-08-28T17:54:00Z</time>
  <course>0.0</course>
  <speed>0.0</speed>
  <fix>3d</fix>
</trkpt>
<trkpt lat="40.0713751" lon="-105.2297889">
  <ele>1583.0</ele>
  <time>2026-08-28T17:54:00Z</time>
  <course>247.03</course>
  <speed>0.022360679774997897</speed>
  <fix>3d</fix>
</trkpt>
<trkpt lat="40.0713749" lon="-105.229789">
  <ele>1583.0</ele>
  <time>2026-08-28T17:54:00Z</time>
  <course>0.0</course>
  <speed>0.0</speed>
  <fix>3d</fix>
</trkpt>
<trkpt lat="40.0713751" lon="-105.2297889">
  <ele>1583.0</ele>
  <time>2026-08-28T17:54:00Z</time>
  <course>247.02</course>
  <speed>0.02</speed>
  <fix>3d</fix>
</trkpt>
<trkpt lat="40.0713749" lon="-105.229789">
  <ele>1583.0</ele>
  <time>2026-08-28T17:54:00Z</time>
  <course>0.0</course>
  <speed>0.0</speed>
  <fix>3d</fix>
</trkpt>
<trkpt lat="40.0713751" lon="-105.2297889">
  <ele>1583.0</ele>
  <time>2026-08-28T17:54:00Z</time>
  <course>247.02</course>
  <speed>0.022360679774997897</speed>
  <fix>3d</fix>
</trkpt>
<trkpt lat="40.0713749" lon="-105.229789">
  <ele>1583.0</ele>
  <time>2026-08-28T17:54:00Z</time>
  <course>0.0</course>
  <speed>0.0</speed>
  <fix>3d</fix>
</trkpt>
<trkpt lat="40.0713751" lon="-105.2297889">
  <ele>1583.0</ele>
  <time>2026-08-28T17:54:00Z</time>
  <course>247.02</course>
  <speed>0.02</speed>
  <fix>3d</fix>
</trkpt>
<trkpt lat="40.0713749" lon="-105.229789">
  <ele>1583.0</ele>
  <time>2026-08-28T17:54:00Z</time>
  <course>0.0</course>
  <speed>0.0</speed>
  <fix>3d</fix>
</trkpt>
<trkpt lat="40.0713751" lon="-105.2297889">
  <ele>1583.0</ele>
  <time>2026-08-28T17:54:00Z</time>
  <course>247.02</course>
  <speed>0.022360679774997897</speed>
  <fix>3d</fix>
</trkpt>
<trkpt lat="40.0713749" lon="-105.229789">
  <ele>1583.0</ele>
  <time>2026-08-28T17:54:00Z</time>
  <course>0.0</course>
  <speed>0.0</speed>
  <fix>3d</fix>
</trkpt>
<trkpt lat="40.071375" lon="-105.2297889">
  <ele>1583.01</ele>
  <time>2026-08-28T17:54:00Z</time>
  <course>247.02</course>
  <speed>0.02</speed>
  <fix>3d</fix>
</trkpt>
<trkpt lat="40.0713749" lon="-105.229789">
  <ele>1583.0</ele>
  <time>2026-08-28T17:54:00Z</time>
  <course>0.0</course>
  <speed>0.0</speed>
  <fix>3d</fix>
</trkpt>
<trkpt lat="40.0713751" lon="-105.2297889">
  <ele>1583.01</ele>
  <time>2026-08-28T17:54:00Z</time>
  <course>247.02</course>
  <speed>0.022360679774997897</speed>
  <fix>3d</fix>
</trkpt>
<trkpt lat="40.0713749" lon="-105.229789">
  <ele>1583.0</ele>
  <time>2026-08-28T17:54:00Z</time>
  <course>0.0</course>
  <speed>0.0</speed>
  <fix>3d</fix>
</trkpt>
<trkpt lat="40.071375" lon="-105.2297889">
  <ele>1583.01</ele>
  <time>2026-08-28T17:54:00Z</time>
  <course>247.02</course>
  <speed>0.02</speed>
  <fix>3d</fix>
</trkpt>
<trkpt lat="40.0713749" lon="-105.229789">
  <ele>1583.0</ele>
  <time>2026-08-28T17:54:00Z</time>
  <course>0.0</course>
  <speed>0.0</speed>
  <fix>3d</fix>
</trkpt>
<trkpt lat="40.0713751" lon="-105.2297889">
  <ele>1583.01</ele>
  <time>2026-08-28T17:54:00Z</time>
  <course>247.02</course>
  <speed>0.022360679774997897</speed>
  <fix>3d</fix>
</trkpt>
<trkpt lat="40.0713749" lon="-105.229789">
  <ele>1583.0</ele>
  <time>2026-08-28T17:54:00Z</time>
  <course>0.0</course>
  <speed>0.0</speed>
  <fix>3d</fix>
</trkpt>
<trkpt lat="40.0713751" lon="-105.2297889">
  <ele>1583.01</ele>
  <time>2026-08-28T17:54:00Z</time>
  <course>247.02</course>
  <speed>0.022360679774997897</speed>
  <fix>3d</fix>
</trkpt>
<trkpt lat="40.0713749" lon="-105.229789">
  <ele>1583.0</ele>
  <time>2026-08-28T17:54:00Z</time>
  <course>0.0</course>
  <speed>0.0</speed>
  <fix>3d</fix>
</trkpt>
<trkpt lat="40.0713751" lon="-105.2297889">
  <ele>1583.01</ele>
  <time>2026-08-28T17:54:00Z</time>
  <course>247.02</course>
  <speed>0.022360679774997897</speed>
  <fix>3d</fix>
</trkpt>
<trkpt lat="40.0713749" lon="-105.229789">
  <ele>1583.0</ele>
  <time>2026-08-28T17:54:00Z</time>
  <course>0.0</course>
  <speed>0.0</speed>
  <fix>3d</fix>
</trkpt>
<trkpt lat="40.0713751" lon="-105.2297889">
  <ele>1583.01</ele>
  <time>2026-08-28T17:54:00Z</time>
  <course>247.02</course>
  <speed>0.022360679774997897</speed>
  <fix>3d</fix>
</trkpt>
<trkpt lat="40.0713749" lon="-105.229789">
  <ele>1583.0</ele>
  <time>2026-08-28T17:54:00Z</time>
  <course>0.0</course>
  <speed>0.0</speed>
  <fix>3d</fix>
</trkpt>
<trkpt lat="40.0713751" lon="-105.2297889">
  <ele>1583.01</ele>
  <time>2026-08-28T17:54:00Z</time>
  <course>247.02</course>
  <speed>0.022360679774997897</speed>
  <fix>3d</fix>
</trkpt>
<trkpt lat="40.0713749" lon="-105.229789">
  <ele>1583.0</ele>
  <time>2026-08-28T17:54:00Z</time>
  <course>0.0</course>
  <speed>0.0</speed>
  <fix>3d</fix>
</trkpt>
<trkpt lat="40.0713751" lon="-105.2297889">
  <ele>1583.01</ele>
  <time>2026-08-28T17:54:00Z</time>
  <course>247.02</course>
  <speed>0.022360679774997897</speed>
  <fix>3d</fix>
</trkpt>
<trkpt lat="40.0713749" lon="-105.229789">
  <ele>1583.0</ele>
  <time>2026-08-28T17:54:01Z</time>
  <course>0.0</course>
  <speed>0.0</speed>
  <fix>3d</fix>
</trkpt>
<trkpt lat="40.0713751" lon="-105.2297889">
  <ele>1583.01</ele>
  <time>2026-08-28T17:54:01Z</time>
  <course>247.02</course>
  <speed>0.022360679774997897</speed>
  <fix>3d</fix>
</trkpt>
<trkpt lat="40.0713749" lon="-105.229789">
  <ele>1583.0</ele>
  <time>2026-08-28T17:54:01Z</time>
  <course>0.0</course>
  <speed>0.0</speed>
  <fix>3d</fix>
</trkpt>
<trkpt lat="40.0713751" lon="-105.2297889">
  <ele>1583.01</ele>
  <time>2026-08-28T17:54:01Z</time>
  <course>247.02</course>
  <speed>0.02</speed>
  <fix>3d</fix>
</trkpt>
<trkpt lat="40.0713749" lon="-105.229789">
  <ele>1583.0</ele>
  <time>2026-08-28T17:54:01Z</time>
  <course>0.0</course>
  <speed>0.0</speed>
  <fix>3d</fix>
</trkpt>
<trkpt lat="40.0713751" lon="-105.2297889">
  <ele>1583.01</ele>
  <time>2026-08-28T17:54:01Z</time>
  <course>247.02</course>
  <speed>0.022360679774997897</speed>
  <fix>3d</fix>
</trkpt>
<trkpt lat="40.0713749" lon="-105.229789">
  <ele>1583.0</ele>
  <time>2026-08-28T17:54:01Z</time>
  <course>0.0</course>
  <speed>0.0</speed>
  <fix>3d</fix>
</trkpt>
<trkpt lat="40.0713751" lon="-105.2297889">
  <ele>1583.01</ele>
  <time>2026-08-28T17:54:01Z</time>
  <course>247.02</course>
  <speed>0.02</speed>
  <fix>3d</fix>
</trkpt>
<trkpt lat="40.0713749" lon="-105.229789">
  <ele>1583.0</ele>
  <time>2026-08-28T17:54:01Z</time>
  <course>0.0</course>
  <speed>0.0</speed>
  <fix>3d</fix>
</trkpt>
<trkpt lat="40.0713751" lon="-105.2297889">
  <ele>1583.0</ele>
  <time>2026-08-28T17:54:01Z</time>
  <course>247.02</course>
  <speed>0.022360679774997897</speed>
  <fix>3d</fix>
</trkpt>
<trkpt lat="40.0713749" lon="-105.229789">
  <ele>1583.0</ele>
  <time>2026-08-28T17:54:01Z</time>
  <course>0.0</course>
  <speed>0.0</speed>
  <fix>3d</fix>
</trkpt>
<trkpt lat="40.0713751" lon="-105.2297889">
  <ele>1583.0</ele>
  <time>2026-08-28T17:54:01Z</time>
  <course>247.02</course>
  <speed>0.02</speed>
  <fix>3d</fix>
</trkpt>
<trkpt lat="40.0713749" lon="-105.229789">
  <ele>1583.0</ele>
  <time>2026-08-28T17:54:01Z</time>
  <course>0.0</course>
  <speed>0.0</speed>
  <fix>3d</fix>
</trkpt>
<trkpt lat="40.0713751" lon="-105.2297889">
  <ele>1583.0</ele>
  <time>2026-08-28T17:54:01Z</time>
  <course>247.02</course>
  <speed>0.022360679774997897</speed>
  <fix>3d</fix>
</trkpt>
<trkpt lat="40.0713749" lon="-105.229789">
  <ele>1583.0</ele>
  <time>2026-08-28T17:54:01Z</time>
  <course>0.0</course>
  <speed>0.0</speed>
  <fix>3d</fix>
</trkpt>
<trkpt lat="40.0713751" lon="-105.2297889">
  <ele>1583.0</ele>
  <time>2026-08-28T17:54:01Z</time>
  <course>247.02</course>
  <speed>0.02</speed>
  <fix>3d</fix>
</trkpt>
<trkpt lat="40.0713749" lon="-105.229789">
  <ele>1583.0</ele>
  <time>2026-08-28T17:54:01Z</time>
  <course>0.0</course>
  <speed>0.0</speed>
  <fix>3d</fix>
</trkpt>
<trkpt lat="40.0713751" lon="-105.2297889">
  <ele>1582.99</ele>
  <time>2026-08-28T17:54:01Z</time>
  <course>247.02</course>
  <speed>0.02</speed>
  <fix>3d</fix>
</trkpt>
<trkpt lat="40.0713749" lon="-105.229789">
  <ele>1583.0</ele>
  <time>2026-08-28T17:54:01Z</time>
  <course>0.0</course>
  <speed>0.0</speed>
  <fix>3d</fix>
</trkpt>
<trkpt lat="40.0713751" lon="-105.2297889">
  <ele>1582.99</ele>
  <time>2026-08-28T17:54:01Z</time>
  <course>247.02</course>
  <speed>0.02</speed>
  <fix>3d</fix>
</trkpt>
<trkpt lat="40.0713749" lon="-105.229789">
  <ele>1583.0</ele>
  <time>2026-08-28T17:54:01Z</time>
  <course>0.0</course>
  <speed>0.0</speed>
  <fix>3d</fix>
</trkpt>
<trkpt lat="40.0713751" lon="-105.2297889">
  <ele>1582.99</ele>
  <time>2026-08-28T17:54:01Z</time>
  <course>247.02</course>
  <speed>0.02</speed>
  <fix>3d</fix>
</trkpt>
<trkpt lat="40.0713749" lon="-105.229789">
  <ele>1583.0</ele>
  <time>2026-08-28T17:54:01Z</time>
  <course>0.0</course>
  <speed>0.0</speed>
  <fix>3d</fix>
</trkpt>
<trkpt lat="40.0713751" lon="-105.2297889">
  <ele>1582.99</ele>
  <time>2026-08-28T17:54:01Z</time>
  <course>247.02</course>
  <speed>0.02</speed>
  <fix>3d</fix>
</trkpt>
<trkpt lat="40.0713749" lon="-105.229789">
  <ele>1583.0</ele>
  <time>2026-08-28T17:54:01Z</time>
  <course>0.0</course>
  <speed>0.0</speed>
  <fix>3d</fix>
</trkpt>
<trkpt lat="40.0713751" lon="-105.2297889">
  <ele>1582.99</ele>
  <time>2026-08-28T17:54:01Z</time>
  <course>247.02</course>
  <speed>0.02</speed>
  <fix>3d</fix>
</trkpt>
<trkpt lat="40.0713749" lon="-105.229789">
  <ele>1583.0</ele>
  <time>2026-08-28T17:54:01Z</time>
  <course>0.0</course>
  <speed>0.0</speed>
  <fix>3d</fix>
</trkpt>
<trkpt lat="40.0713751" lon="-105.2297889">
  <ele>1582.99</ele>
  <time>2026-08-28T17:54:01Z</time>
  <course>247.02</course>
  <speed>0.02</speed>
  <fix>3d</fix>
</trkpt>
<trkpt lat="40.0713749" lon="-105.229789">
  <ele>1583.0</ele>
  <time>2026-08-28T17:54:01Z</time>
  <course>0.0</course>
  <speed>0.0</speed>
  <fix>3d</fix>
</trkpt>
<trkpt lat="40.0713751" lon="-105.2297889">
  <ele>1582.99</ele>
  <time>2026-08-28T17:54:01Z</time>
  <course>247.02</course>
  <speed>0.02</speed>
  <fix>3d</fix>
</trkpt>
<trkpt lat="40.0713749" lon="-105.229789">
  <ele>1583.0</ele>
  <time>2026-08-28T17:54:01Z</time>
  <course>0.0</course>
  <speed>0.0</speed>
  <fix>3d</fix>
</trkpt>
<trkpt lat="40.0713751" lon="-105.2297889">
  <ele>1582.99</ele>
  <time>2026-08-28T17:54:01Z</time>
  <course>247.02</course>
  <speed>0.02</speed>
  <fix>3d</fix>
</trkpt>
<trkpt lat="40.0713749" lon="-105.229789">
  <ele>1583.0</ele>
  <time>2026-08-28T17:54:01Z</time>
  <course>0.0</course>
  <speed>0.0</speed>
  <fix>3d</fix>
</trkpt>
<trkpt lat="40.0713751" lon="-105.2297889">
  <ele>1582.99</ele>
  <time>2026-08-28T17:54:01Z</time>
  <course>247.02</course>
  <speed>0.02</speed>
  <fix>3d</fix>
</trkpt>
<trkpt lat="40.0713749" lon="-105.229789">
  <ele>1583.0</ele>
  <time>2026-08-28T17:54:01Z</time>
  <course>0.0</course>
  <speed>0.0</speed>
  <fix>3d</fix>
</trkpt>
<trkpt lat="40.0713751" lon="-105.2297889">
  <ele>1582.99</ele>
  <time>2026-08-28T17:54:01Z</time>
  <course>247.02</course>
  <speed>0.02</speed>
  <fix>3d</fix>
</trkpt>
<trkpt lat="40.0713749" lon="-105.229789">
  <ele>1583.0</ele>
  <time>2026-08-28T17:54:01Z</time>
  <course>0.0</course>
  <speed>0.0</speed>
  <fix>3d</fix>
</trkpt>
<trkpt lat="40.0713751" lon="-105.2297889">
  <ele>1582.99</ele>
  <time>2026-08-28T17:54:01Z</time>
  <course>247.02</course>
  <speed>0.02</speed>
  <fix>3d</fix>
</trkpt>
<trkpt lat="40.0713749" lon="-105.229789">
  <ele>1583.0</ele>
  <time>2026-08-28T17:54:01Z</time>
  <course>0.0</course>
  <speed>0.0</speed>
  <fix>3d</fix>
</trkpt>
<trkpt lat="40.0713751" lon="-105.2297889">
  <ele>1582.99</ele>
  <time>2026-08-28T17:54:01Z</time>
  <course>247.02</course>
  <speed>0.02</speed>
  <fix>3d</fix>
</trkpt>
<trkpt lat="40.0713749" lon="-105.229789">
  <ele>1583.0</ele>
  <time>2026-08-28T17:54:01Z</time>
  <course>0.0</course>
  <speed>0.0</speed>
  <fix>3d</fix>
</trkpt>
<trkpt lat="40.0713751" lon="-105.2297889">
  <ele>1582.99</ele>
  <time>2026-08-28T17:54:01Z</time>
  <course>247.02</course>
  <speed>0.022360679774997897</speed>
  <fix>3d</fix>
</trkpt>
<trkpt lat="40.0713749" lon="-105.229789">
  <ele>1583.0</ele>
  <time>2026-08-28T17:54:01Z</time>
  <course>0.0</course>
  <speed>0.0</speed>
  <fix>3d</fix>
</trkpt>
<trkpt lat="40.0713751" lon="-105.2297889">
  <ele>1583.0</ele>
  <time>2026-08-28T17:54:01Z</time>
  <course>247.02</course>
  <speed>0.02</speed>
  <fix>3d</fix>
</trkpt>
<trkpt lat="40.0713749" lon="-105.229789">
  <ele>1583.0</ele>
  <time>2026-08-28T17:54:01Z</time>
  <course>0.0</course>
  <speed>0.0</speed>
  <fix>3d</fix>
</trkpt>
<trkpt lat="40.0713751" lon="-105.2297889">
  <ele>1583.0</ele>
  <time>2026-08-28T17:54:01Z</time>
  <course>247.02</course>
  <speed>0.022360679774997897</speed>
  <fix>3d</fix>
</trkpt>
<trkpt lat="40.0713749" lon="-105.229789">
  <ele>1583.0</ele>
  <time>2026-08-28T17:54:01Z</time>
  <course>0.0</course>
  <speed>0.0</speed>
  <fix>3d</fix>
</trkpt>
<trkpt lat="40.0713751" lon="-105.2297889">
  <ele>1582.99</ele>
  <time>2026-08-28T17:54:01Z</time>
  <course>247.02</course>
  <speed>0.022360679774997897</speed>
  <fix>3d</fix>
</trkpt>
<trkpt lat="40.0713749" lon="-105.229789">
  <ele>1583.0</ele>
  <time>2026-08-28T17:54:01Z</time>
  <course>0.0</course>
  <speed>0.0</speed>
  <fix>3d</fix>
</trkpt>
<trkpt lat="40.0713751" lon="-105.2297889">
  <ele>1582.99</ele>
  <time>2026-08-28T17:54:01Z</time>
  <course>247.02</course>
  <speed>0.022360679774997897</speed>
  <fix>3d</fix>
</trkpt>
<trkpt lat="40.0713749" lon="-105.229789">
  <ele>1583.0</ele>
  <time>2026-08-28T17:54:01Z</time>
  <course>0.0</course>
  <speed>0.0</speed>
  <fix>3d</fix>
</trkpt>
<trkpt lat="40.0713751" lon="-105.2297889">
  <ele>1582.99</ele>
  <time>2026-08-28T17:54:01Z</time>
  <course>247.02</course>
  <speed>0.022360679774997897</speed>
  <fix>3d</fix>
</trkpt>
<trkpt lat="40.0713749" lon="-105.229789">
  <ele>1583.0</ele>
  <time>2026-08-28T17:54:01Z</time>
  <course>0.0</course>
  <speed>0.0</speed>
  <fix>3d</fix>
</trkpt>
<trkpt lat="40.0713751" lon="-105.2297889">
  <ele>1582.99</ele>
  <time>2026-08-28T17:54:01Z</time>
  <course>247.02</course>
  <speed>0.022360679774997897</speed>
  <fix>3d</fix>
</trkpt>
<trkpt lat="40.0713749" lon="-105.229789">
  <ele>1583.0</ele>
  <time>2026-08-28T17:54:01Z</time>
  <course>0.0</course>
  <speed>0.0</speed>
  <fix>3d</fix>
</trkpt>
<trkpt lat="40.0713751" lon="-105.2297889">
  <ele>1582.99</ele>
  <time>2026-08-28T17:54:01Z</time>
  <course>247.02</course>
  <speed>0.022360679774997897</speed>
  <fix>3d</fix>
</trkpt>
<trkpt lat="40.0713749" lon="-105.229789">
  <ele>1583.0</ele>
  <time>2026-08-28T17:54:01Z</time>
  <course>0.0</course>
  <speed>0.0</speed>
  <fix>3d</fix>
</trkpt>
<trkpt lat="40.0713751" lon="-105.2297889">
  <ele>1582.99</ele>
  <time>2026-08-28T17:54:01Z</time>
  <course>247.02</course>
  <speed>0.022360679774997897</speed>
  <fix>3d</fix>
</trkpt>
<trkpt lat="40.0713749" lon="-105.229789">
  <ele>1583.0</ele>
  <time>2026-08-28T17:54:01Z</time>
  <course>0.0</course>
  <speed>0.0</speed>
  <fix>3d</fix>
</trkpt>
<trkpt lat="40.0713751" lon="-105.2297889">
  <ele>1582.99</ele>
  <time>2026-08-28T17:54:01Z</time>
  <course>247.02</course>
  <speed>0.022360679774997897</speed>
  <fix>3d</fix>
</trkpt>
<trkpt lat="40.0713749" lon="-105.229789">
  <ele>1583.0</ele>
  <time>2026-08-28T17:54:01Z</time>
  <course>0.0</course>
  <speed>0.0</speed>
  <fix>3d</fix>
</trkpt>
<trkpt lat="40.0713751" lon="-105.2297889">
  <ele>1583.0</ele>
  <time>2026-08-28T17:54:01Z</time>
  <course>247.02</course>
  <speed>0.022360679774997897</speed>
  <fix>3d</fix>
</trkpt>
<trkpt lat="40.0713749" lon="-105.229789">
  <ele>1583.0</ele>
  <time>2026-08-28T17:54:01Z</time>
  <course>0.0</course>
  <speed>0.0</speed>
  <fix>3d</fix>
</trkpt>
<trkpt lat="40.0713751" lon="-105.2297889">
  <ele>1583.0</ele>
  <time>2026-08-28T17:54:01Z</time>
  <course>247.02</course>
  <speed>0.022360679774997897</speed>
  <fix>3d</fix>
</trkpt>
<trkpt lat="40.0713749" lon="-105.229789">
  <ele>1583.0</ele>
  <time>2026-08-28T17:54:01Z</time>
  <course>0.0</course>
  <speed>0.0</speed>
  <fix>3d</fix>
</trkpt>
<trkpt lat="40.0713751" lon="-105.2297889">
  <ele>1583.0</ele>
  <time>2026-08-28T17:54:01Z</time>
  <course>247.02</course>
  <speed>0.022360679774997897</speed>
  <fix>3d</fix>
</trkpt>
<trkpt lat="40.0713749" lon="-105.229789">
  <ele>1583.0</ele>
  <time>2026-08-28T17:54:01Z</time>
  <course>0.0</course>
  <speed>0.0</speed>
  <fix>3d</fix>
</trkpt>
<trkpt lat="40.0713751" lon="-105.2297889">
  <ele>1583.0</ele>
  <time>2026-08-28T17:54:01Z</time>
  <course>247.02</course>
  <speed>0.022360679774997897</speed>
  <fix>3d</fix>
</trkpt>
<trkpt lat="40.0713749" lon="-105.229789">
  <ele>1583.0</ele>
  <time>2026-08-28T17:54:01Z</time>
  <course>0.0</course>
  <speed>0.0</speed>
  <fix>3d</fix>
</trkpt>
<trkpt lat="40.0713751" lon="-105.2297889">
  <ele>1583.01</ele>
  <time>2026-08-28T17:54:01Z</time>
  <course>247.02</course>
  <speed>0.022360679774997897</speed>
  <fix>3d</fix>
</trkpt>
<trkpt lat="40.0713749" lon="-105.229789">
  <ele>1583.0</ele>
  <time>2026-08-28T17:54:01Z</time>
  <course>0.0</course>
  <speed>0.0</speed>
  <fix>3d</fix>
</trkpt>
<trkpt lat="40.0713751" lon="-105.2297889">
  <ele>1583.01</ele>
  <time>2026-08-28T17:54:01Z</time>
  <course>247.02</course>
  <speed>0.022360679774997897</speed>
  <fix>3d</fix>
</trkpt>
<trkpt lat="40.0713749" lon="-105.229789">
  <ele>1583.0</ele>
  <time>2026-08-28T17:54:01Z</time>
  <course>0.0</course>
  <speed>0.0</speed>
  <fix>3d</fix>
</trkpt>
<trkpt lat="40.0713751" lon="-105.2297889">
  <ele>1583.01</ele>
  <time>2026-08-28T17:54:01Z</time>
  <course>247.02</course>
  <speed>0.022360679774997897</speed>
  <fix>3d</fix>
</trkpt>
<trkpt lat="40.0713749" lon="-105.229789">
  <ele>1583.0</ele>
  <time>2026-08-28T17:54:01Z</time>
  <course>0.0</course>
  <speed>0.0</speed>
  <fix>3d</fix>
</trkpt>
<trkpt lat="40.0713751" lon="-105.2297889">
  <ele>1583.01</ele>
  <time>2026-08-28T17:54:01Z</time>
  <course>247.02</course>
  <speed>0.022360679774997897</speed>
  <fix>3d</fix>
</trkpt>
<trkpt lat="40.0713749" lon="-105.229789">
  <ele>1583.0</ele>
  <time>2026-08-28T17:54:01Z</time>
  <course>0.0</course>
  <speed>0.0</speed>
  <fix>3d</fix>
</trkpt>
<trkpt lat="40.0713751" lon="-105.2297889">
  <ele>1583.01</ele>
  <time>2026-08-28T17:54:01Z</time>
  <course>247.02</course>
  <speed>0.022360679774997897</speed>
  <fix>3d</fix>
</trkpt>
<trkpt lat="40.0713749" lon="-105.229789">
  <ele>1583.0</ele>
  <time>2026-08-28T17:54:01Z</time>
  <course>0.0</course>
  <speed>0.0</speed>
  <fix>3d</fix>
</trkpt>
<trkpt lat="40.0713751" lon="-105.2297889">
  <ele>1583.01</ele>
  <time>2026-08-28T17:54:01Z</time>
  <course>247.02</course>
  <speed>0.022360679774997897</speed>
  <fix>3d</fix>
</trkpt>
<trkpt lat="40.0713749" lon="-105.229789">
  <ele>1583.0</ele>
  <time>2026-08-28T17:54:01Z</time>
  <course>0.0</course>
  <speed>0.0</speed>
  <fix>3d</fix>
</trkpt>
<trkpt lat="40.0713751" lon="-105.2297889">
  <ele>1583.01</ele>
  <time>2026-08-28T17:54:01Z</time>
  <course>247.02</course>
  <speed>0.022360679774997897</speed>
  <fix>3d</fix>
</trkpt>
<trkpt lat="40.0713749" lon="-105.229789">
  <ele>1583.0</ele>
  <time>2026-08-28T17:54:01Z</time>
  <course>0.0</course>
  <speed>0.0</speed>
  <fix>3d</fix>
</trkpt>
<trkpt lat="40.0713751" lon="-105.2297889">
  <ele>1583.01</ele>
  <time>2026-08-28T17:54:01Z</time>
  <course>247.02</course>
  <speed>0.022360679774997897</speed>
  <fix>3d</fix>
</trkpt>
<trkpt lat="40.0713749" lon="-105.229789">
  <ele>1583.0</ele>
  <time>2026-08-28T17:54:01Z</time>
  <course>0.0</course>
  <speed>0.0</speed>
  <fix>3d</fix>
</trkpt>
<trkpt lat="40.0713751" lon="-105.2297889">
  <ele>1583.01</ele>
  <time>2026-08-28T17:54:01Z</time>
  <course>247.02</course>
  <speed>0.022360679774997897</speed>
  <fix>3d</fix>
</trkpt>
<trkpt lat="40.0713749" lon="-105.229789">
  <ele>1583.0</ele>
  <time>2026-08-28T17:54:01Z</time>
  <course>0.0</course>
  <speed>0.0</speed>
  <fix>3d</fix>
</trkpt>
<trkpt lat="40.0713751" lon="-105.2297889">
  <ele>1583.01</ele>
  <time>2026-08-28T17:54:01Z</time>
  <course>247.02</course>
  <speed>0.022360679774997897</speed>
  <fix>3d</fix>
</trkpt>
<trkpt lat="40.0713749" lon="-105.229789">
  <ele>1583.0</ele>
  <time>2026-08-28T17:54:01Z</time>
  <course>0.0</course>
  <speed>0.0</speed>
  <fix>3d</fix>
</trkpt>
<trkpt lat="40.0713751" lon="-105.2297889">
  <ele>1583.01</ele>
  <time>2026-08-28T17:54:01Z</time>
  <course>247.02</course>
  <speed>0.022360679774997897</speed>
  <fix>3d</fix>
</trkpt>
<trkpt lat="40.0713749" lon="-105.229789">
  <ele>1583.0</ele>
  <time>2026-08-28T17:54:01Z</time>
  <course>0.0</course>
  <speed>0.0</speed>
  <fix>3d</fix>
</trkpt>
<trkpt lat="40.0713751" lon="-105.2297889">
  <ele>1583.01</ele>
  <time>2026-08-28T17:54:01Z</time>
  <course>247.02</course>
  <speed>0.022360679774997897</speed>
  <fix>3d</fix>
</trkpt>
<trkpt lat="40.0713749" lon="-105.229789">
  <ele>1583.0</ele>
  <time>2026-08-28T17:54:01Z</time>
  <course>0.0</course>
  <speed>0.0</speed>
  <fix>3d</fix>
</trkpt>
<trkpt lat="40.0713751" lon="-105.2297889">
  <ele>1583.01</ele>
  <time>2026-08-28T17:54:01Z</time>
  <course>247.02</course>
  <speed>0.022360679774997897</speed>
  <fix>3d</fix>
</trkpt>
<trkpt lat="40.0713749" lon="-105.229789">
  <ele>1583.0</ele>
  <time>2026-08-28T17:54:01Z</time>
  <course>0.0</course>
  <speed>0.0</speed>
  <fix>3d</fix>
</trkpt>
<trkpt lat="40.0713751" lon="-105.2297889">
  <ele>1583.0</ele>
  <time>2026-08-28T17:54:01Z</time>
  <course>247.02</course>
  <speed>0.022360679774997897</speed>
  <fix>3d</fix>
</trkpt>
<trkpt lat="40.0713749" lon="-105.229789">
  <ele>1583.0</ele>
  <time>2026-08-28T17:54:01Z</time>
  <course>0.0</course>
  <speed>0.0</speed>
  <fix>3d</fix>
</trkpt>
<trkpt lat="40.0713751" lon="-105.2297889">
  <ele>1583.0</ele>
  <time>2026-08-28T17:54:01Z</time>
  <course>247.02</course>
  <speed>0.022360679774997897</speed>
  <fix>3d</fix>
</trkpt>
<trkpt lat="40.0713749" lon="-105.229789">
  <ele>1583.0</ele>
  <time>2026-08-28T17:54:01Z</time>
  <course>0.0</course>
  <speed>0.0</speed>
  <fix>3d</fix>
</trkpt>
<trkpt lat="40.0713751" lon="-105.2297889">
  <ele>1582.99</ele>
  <time>2026-08-28T17:54:01Z</time>
  <course>247.02</course>
  <speed>0.022360679774997897</speed>
  <fix>3d</fix>
</trkpt>
<trkpt lat="40.0713749" lon="-105.229789">
  <ele>1583.0</ele>
  <time>2026-08-28T17:54:01Z</time>
  <course>0.0</course>
  <speed>0.0</speed>
  <fix>3d</fix>
</trkpt>
<trkpt lat="40.0713751" lon="-105.2297889">
  <ele>1582.99</ele>
  <time>2026-08-28T17:54:01Z</time>
  <course>247.02</course>
  <speed>0.022360679774997897</speed>
  <fix>3d</fix>
</trkpt>
<trkpt lat="40.0713749" lon="-105.229789">
  <ele>1583.0</ele>
  <time>2026-08-28T17:54:01Z</time>
  <course>0.0</course>
  <speed>0.0</speed>
  <fix>3d</fix>
</trkpt>
<trkpt lat="40.0713751" lon="-105.2297889">
  <ele>1582.99</ele>
  <time>2026-08-28T17:54:01Z</time>
  <course>247.02</course>
  <speed>0.022360679774997897</speed>
  <fix>3d</fix>
</trkpt>
<trkpt lat="40.0713749" lon="-105.229789">
  <ele>1583.0</ele>
  <time>2026-08-28T17:54:01Z</time>
  <course>0.0</course>
  <speed>0.0</speed>
  <fix>3d</fix>
</trkpt>
<trkpt lat="40.0713751" lon="-105.2297889">
  <ele>1582.99</ele>
  <time>2026-08-28T17:54:01Z</time>
  <course>247.02</course>
  <speed>0.022360679774997897</speed>
  <fix>3d</fix>
</trkpt>
<trkpt lat="40.0713749" lon="-105.229789">
  <ele>1583.0</ele>
  <time>2026-08-28T17:54:01Z</time>
  <course>0.0</course>
  <speed>0.0</speed>
  <fix>3d</fix>
</trkpt>
<trkpt lat="40.0713751" lon="-105.2297889">
  <ele>1582.99</ele>
  <time>2026-08-28T17:54:01Z</time>
  <course>247.02</course>
  <speed>0.022360679774997897</speed>
  <fix>3d</fix>
</trkpt>
<trkpt lat="40.0713749" lon="-105.229789">
  <ele>1583.0</ele>
  <time>2026-08-28T17:54:01Z</time>
  <course>0.0</course>
  <speed>0.0</speed>
  <fix>3d</fix>
</trkpt>
<trkpt lat="40.0713751" lon="-105.2297889">
  <ele>1582.99</ele>
  <time>2026-08-28T17:54:01Z</time>
  <course>247.02</course>
  <speed>0.022360679774997897</speed>
  <fix>3d</fix>
</trkpt>
<trkpt lat="40.0713749" lon="-105.229789">
  <ele>1583.0</ele>
  <time>2026-08-28T17:54:01Z</time>
  <course>0.0</course>
  <speed>0.0</speed>
  <fix>3d</fix>
</trkpt>
<trkpt lat="40.0713751" lon="-105.2297889">
  <ele>1582.99</ele>
  <time>2026-08-28T17:54:01Z</time>
  <course>247.02</course>
  <speed>0.022360679774997897</speed>
  <fix>3d</fix>
</trkpt>
<trkpt lat="40.0713749" lon="-105.229789">
  <ele>1583.0</ele>
  <time>2026-08-28T17:54:01Z</time>
  <course>0.0</course>
  <speed>0.0</speed>
  <fix>3d</fix>
</trkpt>
<trkpt lat="40.0713751" lon="-105.2297889">
  <ele>1582.99</ele>
  <time>2026-08-28T17:54:01Z</time>
  <course>247.02</course>
  <speed>0.022360679774997897</speed>
  <fix>3d</fix>
</trkpt>
<trkpt lat="40.0713749" lon="-105.229789">
  <ele>1583.0</ele>
  <time>2026-08-28T17:54:01Z</time>
  <course>0.0</course>
  <speed>0.0</speed>
  <fix>3d</fix>
</trkpt>
<trkpt lat="40.0713751" lon="-105.2297889">
  <ele>1582.99</ele>
  <time>2026-08-28T17:54:01Z</time>
  <course>247.02</course>
  <speed>0.022360679774997897</speed>
  <fix>3d</fix>
</trkpt>
<trkpt lat="40.0713749" lon="-105.229789">
  <ele>1583.0</ele>
  <time>2026-08-28T17:54:01Z</time>
  <course>0.0</course>
  <speed>0.0</speed>
  <fix>3d</fix>
</trkpt>
<trkpt lat="40.0713751" lon="-105.2297889">
  <ele>1582.99</ele>
  <time>2026-08-28T17:54:01Z</time>
  <course>247.02</course>
  <speed>0.022360679774997897</speed>
  <fix>3d</fix>
</trkpt>
<trkpt lat="40.0713749" lon="-105.229789">
  <ele>1583.0</ele>
  <time>2026-08-28T17:54:01Z</time>
  <course>0.0</course>
  <speed>0.0</speed>
  <fix>3d</fix>
</trkpt>
<trkpt lat="40.0713751" lon="-105.2297889">
  <ele>1582.99</ele>
  <time>2026-08-28T17:54:01Z</time>
  <course>247.02</course>
  <speed>0.022360679774997897</speed>
  <fix>3d</fix>
</trkpt>
<trkpt lat="40.0713749" lon="-105.229789">
  <ele>1583.0</ele>
  <time>2026-08-28T17:54:01Z</time>
  <course>0.0</course>
  <speed>0.0</speed>
  <fix>3d</fix>
</trkpt>
<trkpt lat="40.0713751" lon="-105.2297889">
  <ele>1582.99</ele>
  <time>2026-08-28T17:54:01Z</time>
  <course>247.02</course>
  <speed>0.022360679774997897</speed>
  <fix>3d</fix>
</trkpt>
<trkpt lat="40.0713749" lon="-105.229789">
  <ele>1583.0</ele>
  <time>2026-08-28T17:54:01Z</time>
  <course>0.0</course>
  <speed>0.0</speed>
  <fix>3d</fix>
</trkpt>
<trkpt lat="40.0713751" lon="-105.2297889">
  <ele>1582.99</ele>
  <time>2026-08-28T17:54:01Z</time>
  <course>247.02</course>
  <speed>0.022360679774997897</speed>
  <fix>3d</fix>
</trkpt>
<trkpt lat="40.0713749" lon="-105.229789">
  <ele>1583.0</ele>
  <time>2026-08-28T17:54:01Z</time>
  <course>0.0</course>
  <speed>0.0</speed>
  <fix>3d</fix>
</trkpt>
<trkpt lat="40.0713751" lon="-105.2297889">
  <ele>1582.99</ele>
  <time>2026-08-28T17:54:01Z</time>
  <course>247.02</course>
  <speed>0.022360679774997897</speed>
  <fix>3d</fix>
</trkpt>
<trkpt lat="40.0713749" lon="-105.229789">
  <ele>1583.0</ele>
  <time>2026-08-28T17:54:01Z</time>
  <course>0.0</course>
  <speed>0.0</speed>
  <fix>3d</fix>
</trkpt>
<trkpt lat="40.0713751" lon="-105.2297889">
  <ele>1582.99</ele>
  <time>2026-08-28T17:54:01Z</time>
  <course>247.02</course>
  <speed>0.022360679774997897</speed>
  <fix>3d</fix>
</trkpt>
<trkpt lat="40.0713749" lon="-105.229789">
  <ele>1583.0</ele>
  <time>2026-08-28T17:54:01Z</time>
  <course>0.0</course>
  <speed>0.0</speed>
  <fix>3d</fix>
</trkpt>
<trkpt lat="40.0713751" lon="-105.2297889">
  <ele>1582.99</ele>
  <time>2026-08-28T17:54:01Z</time>
  <course>247.02</course>
  <speed>0.022360679774997897</speed>
  <fix>3d</fix>
</trkpt>
<trkpt lat="40.0713749" lon="-105.229789">
  <ele>1583.0</ele>
  <time>2026-08-28T17:54:01Z</time>
  <course>0.0</course>
  <speed>0.0</speed>
  <fix>3d</fix>
</trkpt>
<trkpt lat="40.0713751" lon="-105.2297889">
  <ele>1582.99</ele>
  <time>2026-08-28T17:54:01Z</time>
  <course>247.02</course>
  <speed>0.022360679774997897</speed>
  <fix>3d</fix>
</trkpt>
<trkpt lat="40.0713749" lon="-105.229789">
  <ele>1583.0</ele>
  <time>2026-08-28T17:54:01Z</time>
  <course>0.0</course>
  <speed>0.0</speed>
  <fix>3d</fix>
</trkpt>
<trkpt lat="40.0713751" lon="-105.2297889">
  <ele>1582.99</ele>
  <time>2026-08-28T17:54:01Z</time>
  <course>247.02</course>
  <speed>0.022360679774997897</speed>
  <fix>3d</fix>
</trkpt>
<trkpt lat="40.0713749" lon="-105.229789">
  <ele>1583.0</ele>
  <time>2026-08-28T17:54:01Z</time>
  <course>0.0</course>
  <speed>0.0</speed>
  <fix>3d</fix>
</trkpt>
<trkpt lat="40.0713751" lon="-105.2297889">
  <ele>1583.0</ele>
  <time>2026-08-28T17:54:01Z</time>
  <course>247.02</course>
  <speed>0.022360679774997897</speed>
  <fix>3d</fix>
</trkpt>
<trkpt lat="40.0713749" lon="-105.229789">
  <ele>1583.0</ele>
  <time>2026-08-28T17:54:01Z</time>
  <course>0.0</course>
  <speed>0.0</speed>
  <fix>3d</fix>
</trkpt>
<trkpt lat="40.0713751" lon="-105.2297889">
  <ele>1583.0</ele>
  <time>2026-08-28T17:54:01Z</time>
  <course>247.02</course>
  <speed>0.022360679774997897</speed>
  <fix>3d</fix>
</trkpt>
<trkpt lat="40.0713749" lon="-105.229789">
  <ele>1583.0</ele>
  <time>2026-08-28T17:54:01Z</time>
  <course>0.0</course>
  <speed>0.0</speed>
  <fix>3d</fix>
</trkpt>
<trkpt lat="40.0713751" lon="-105.2297889">
  <ele>1583.0</ele>
  <time>2026-08-28T17:54:01Z</time>
  <course>247.02</course>
  <speed>0.022360679774997897</speed>
  <fix>3d</fix>
</trkpt>
<trkpt lat="40.0713749" lon="-105.229789">
  <ele>1583.0</ele>
  <time>2026-08-28T17:54:01Z</time>
  <course>0.0</course>
  <speed>0.0</speed>
  <fix>3d</fix>
</trkpt>
<trkpt lat="40.0713751" lon="-105.2297889">
  <ele>1583.0</ele>
  <time>2026-08-28T17:54:01Z</time>
  <course>247.02</course>
  <speed>0.022360679774997897</speed>
  <fix>3d</fix>
</trkpt>
<trkpt lat="40.0713749" lon="-105.229789">
  <ele>1583.0</ele>
  <time>2026-08-28T17:54:01Z</time>
  <course>0.0</course>
  <speed>0.0</speed>
  <fix>3d</fix>
</trkpt>
<trkpt lat="40.0713751" lon="-105.2297889">
  <ele>1583.0</ele>
  <time>2026-08-28T17:54:01Z</time>
  <course>247.02</course>
  <speed>0.022360679774997897</speed>
  <fix>3d</fix>
</trkpt>
<trkpt lat="40.0713749" lon="-105.229789">
  <ele>1583.0</ele>
  <time>2026-08-28T17:54:01Z</time>
  <course>0.0</course>
  <speed>0.0</speed>
  <fix>3d</fix>
</trkpt>
<trkpt lat="40.0713751" lon="-105.2297889">
  <ele>1583.0</ele>
  <time>2026-08-28T17:54:01Z</time>
  <course>247.02</course>
  <speed>0.022360679774997897</speed>
  <fix>3d</fix>
</trkpt>
<trkpt lat="40.0713749" lon="-105.229789">
  <ele>1583.0</ele>
  <time>2026-08-28T17:54:01Z</time>
  <course>0.0</course>
  <speed>0.0</speed>
  <fix>3d</fix>
</trkpt>
<trkpt lat="40.0713751" lon="-105.2297889">
  <ele>1583.01</ele>
  <time>2026-08-28T17:54:01Z</time>
  <course>247.01</course>
  <speed>0.022360679774997897</speed>
  <fix>3d</fix>
</trkpt>
<trkpt lat="40.0713749" lon="-105.229789">
  <ele>1583.0</ele>
  <time>2026-08-28T17:54:01Z</time>
  <course>0.0</course>
  <speed>0.0</speed>
  <fix>3d</fix>
</trkpt>
<trkpt lat="40.0713751" lon="-105.2297889">
  <ele>1583.01</ele>
  <time>2026-08-28T17:54:01Z</time>
  <course>247.01</course>
  <speed>0.022360679774997897</speed>
  <fix>3d</fix>
</trkpt>
<trkpt lat="40.0713749" lon="-105.229789">
  <ele>1583.0</ele>
  <time>2026-08-28T17:54:01Z</time>
  <course>0.0</course>
  <speed>0.0</speed>
  <fix>3d</fix>
</trkpt>
<trkpt lat="40.0713751" lon="-105.2297889">
  <ele>1583.01</ele>
  <time>2026-08-28T17:54:01Z</time>
  <course>247.01</course>
  <speed>0.022360679774997897</speed>
  <fix>3d</fix>
</trkpt>
<trkpt lat="40.0713749" lon="-105.229789">
  <ele>1583.0</ele>
  <time>2026-08-28T17:54:01Z</time>
  <course>0.0</course>
  <speed>0.0</speed>
  <fix>3d</fix>
</trkpt>
<trkpt lat="40.0713751" lon="-105.2297889">
  <ele>1583.01</ele>
  <time>2026-08-28T17:54:01Z</time>
  <course>247.01</course>
  <speed>0.022360679774997897</speed>
  <fix>3d</fix>
</trkpt>
<trkpt lat="40.0713749" lon="-105.229789">
  <ele>1583.0</ele>
  <time>2026-08-28T17:54:01Z</time>
  <course>0.0</course>
  <speed>0.0</speed>
  <fix>3d</fix>
</trkpt>
<trkpt lat="40.0713751" lon="-105.2297889">
  <ele>1583.01</ele>
  <time>2026-08-28T17:54:01Z</time>
  <course>247.01</course>
  <speed>0.022360679774997897</speed>
  <fix>3d</fix>
</trkpt>
<trkpt lat="40.0713749" lon="-105.229789">
  <ele>1583.0</ele>
  <time>2026-08-28T17:54:01Z</time>
  <course>0.0</course>
  <speed>0.0</speed>
  <fix>3d</fix>
</trkpt>
<trkpt lat="40.0713751" lon="-105.2297889">
  <ele>1583.01</ele>
  <time>2026-08-28T17:54:01Z</time>
  <course>247.01</course>
  <speed>0.022360679774997897</speed>
  <fix>3d</fix>
</trkpt>
<trkpt lat="40.0713749" lon="-105.229789">
  <ele>1583.0</ele>
  <time>2026-08-28T17:54:01Z</time>
  <course>0.0</course>
  <speed>0.0</speed>
  <fix>3d</fix>
</trkpt>
<trkpt lat="40.0713751" lon="-105.2297889">
  <ele>1583.01</ele>
  <time>2026-08-28T17:54:01Z</time>
  <course>247.01</course>
  <speed>0.022360679774997897</speed>
  <fix>3d</fix>
</trkpt>
<trkpt lat="40.0713749" lon="-105.229789">
  <ele>1583.0</ele>
  <time>2026-08-28T17:54:01Z</time>
  <course>0.0</course>
  <speed>0.0</speed>
  <fix>3d</fix>
</trkpt>
<trkpt lat="40.0713751" lon="-105.2297889">
  <ele>1583.01</ele>
  <time>2026-08-28T17:54:01Z</time>
  <course>247.01</course>
  <speed>0.022360679774997897</speed>
  <fix>3d</fix>
</trkpt>
<trkpt lat="40.0713749" lon="-105.229789">
  <ele>1583.0</ele>
  <time>2026-08-28T17:54:01Z</time>
  <course>0.0</course>
  <speed>0.0</speed>
  <fix>3d</fix>
</trkpt>
<trkpt lat="40.0713751" lon="-105.2297889">
  <ele>1583.02</ele>
  <time>2026-08-28T17:54:01Z</time>
  <course>247.01</course>
  <speed>0.022360679774997897</speed>
  <fix>3d</fix>
</trkpt>
<trkpt lat="40.0713749" lon="-105.229789">
  <ele>1583.0</ele>
  <time>2026-08-28T17:54:01Z</time>
  <course>0.0</course>
  <speed>0.0</speed>
  <fix>3d</fix>
</trkpt>
<trkpt lat="40.0713751" lon="-105.2297889">
  <ele>1583.02</ele>
  <time>2026-08-28T17:54:01Z</time>
  <course>247.01</course>
  <speed>0.022360679774997897</speed>
  <fix>3d</fix>
</trkpt>
<trkpt lat="40.0713749" lon="-105.229789">
  <ele>1583.0</ele>
  <time>2026-08-28T17:54:01Z</time>
  <course>0.0</course>
  <speed>0.0</speed>
  <fix>3d</fix>
</trkpt>
<trkpt lat="40.0713751" lon="-105.2297889">
  <ele>1583.01</ele>
  <time>2026-08-28T17:54:01Z</time>
  <course>247.01</course>
  <speed>0.022360679774997897</speed>
  <fix>3d</fix>
</trkpt>
<trkpt lat="40.0713749" lon="-105.229789">
  <ele>1583.0</ele>
  <time>2026-08-28T17:54:01Z</time>
  <course>0.0</course>
  <speed>0.0</speed>
  <fix>3d</fix>
</trkpt>
<trkpt lat="40.0713751" lon="-105.2297889">
  <ele>1583.01</ele>
  <time>2026-08-28T17:54:01Z</time>
  <course>247.01</course>
  <speed>0.022360679774997897</speed>
  <fix>3d</fix>
</trkpt>
<trkpt lat="40.0713749" lon="-105.229789">
  <ele>1583.0</ele>
  <time>2026-08-28T17:54:01Z</time>
  <course>0.0</course>
  <speed>0.0</speed>
  <fix>3d</fix>
</trkpt>
<trkpt lat="40.0713751" lon="-105.2297889">
  <ele>1583.01</ele>
  <time>2026-08-28T17:54:01Z</time>
  <course>247.01</course>
  <speed>0.022360679774997897</speed>
  <fix>3d</fix>
</trkpt>
<trkpt lat="40.0713749" lon="-105.229789">
  <ele>1583.0</ele>
  <time>2026-08-28T17:54:01Z</time>
  <course>0.0</course>
  <speed>0.0</speed>
  <fix>3d</fix>
</trkpt>
<trkpt lat="40.0713751" lon="-105.2297889">
  <ele>1583.01</ele>
  <time>2026-08-28T17:54:01Z</time>
  <course>247.01</course>
  <speed>0.022360679774997897</speed>
  <fix>3d</fix>
</trkpt>
<trkpt lat="40.0713749" lon="-105.229789">
  <ele>1583.0</ele>
  <time>2026-08-28T17:54:01Z</time>
  <course>0.0</course>
  <speed>0.0</speed>
  <fix>3d</fix>
</trkpt>
<trkpt lat="40.0713751" lon="-105.2297889">
  <ele>1583.01</ele>
  <time>2026-08-28T17:54:01Z</time>
  <course>247.01</course>
  <speed>0.022360679774997897</speed>
  <fix>3d</fix>
</trkpt>
<trkpt lat="40.0713749" lon="-105.229789">
  <ele>1583.0</ele>
  <time>2026-08-28T17:54:01Z</time>
  <course>0.0</course>
  <speed>0.0</speed>
  <fix>3d</fix>
</trkpt>
<trkpt lat="40.0713751" lon="-105.2297889">
  <ele>1583.01</ele>
  <time>2026-08-28T17:54:01Z</time>
  <course>247.01</course>
  <speed>0.022360679774997897</speed>
  <fix>3d</fix>
</trkpt>
<trkpt lat="40.0713749" lon="-105.229789">
  <ele>1583.0</ele>
  <time>2026-08-28T17:54:01Z</time>
  <course>0.0</course>
  <speed>0.0</speed>
  <fix>3d</fix>
</trkpt>
<trkpt lat="40.0713751" lon="-105.2297889">
  <ele>1583.01</ele>
  <time>2026-08-28T17:54:01Z</time>
  <course>247.01</course>
  <speed>0.022360679774997897</speed>
  <fix>3d</fix>
</trkpt>
<trkpt lat="40.0713749" lon="-105.229789">
  <ele>1583.0</ele>
  <time>2026-08-28T17:54:01Z</time>
  <course>0.0</course>
  <speed>0.0</speed>
  <fix>3d</fix>
</trkpt>
<trkpt lat="40.0713751" lon="-105.2297889">
  <ele>1583.01</ele>
  <time>2026-08-28T17:54:01Z</time>
  <course>247.01</course>
  <speed>0.022360679774997897</speed>
  <fix>3d</fix>
</trkpt>
<trkpt lat="40.0713749" lon="-105.229789">
  <ele>1583.0</ele>
  <time>2026-08-28T17:54:01Z</time>
  <course>0.0</course>
  <speed>0.0</speed>
  <fix>3d</fix>
</trkpt>
<trkpt lat="40.0713751" lon="-105.2297889">
  <ele>1583.0</ele>
  <time>2026-08-28T17:54:01Z</time>
  <course>247.01</course>
  <speed>0.022360679774997897</speed>
  <fix>3d</fix>
</trkpt>
<trkpt lat="40.0713749" lon="-105.229789">
  <ele>1583.0</ele>
  <time>2026-08-28T17:54:01Z</time>
  <course>0.0</course>
  <speed>0.0</speed>
  <fix>3d</fix>
</trkpt>
<trkpt lat="40.0713751" lon="-105.2297889">
  <ele>1583.0</ele>
  <time>2026-08-28T17:54:01Z</time>
  <course>247.01</course>
  <speed>0.022360679774997897</speed>
  <fix>3d</fix>
</trkpt>
<trkpt lat="40.0713749" lon="-105.229789">
  <ele>1583.0</ele>
  <time>2026-08-28T17:54:01Z</time>
  <course>0.0</course>
  <speed>0.0</speed>
  <fix>3d</fix>
</trkpt>
<trkpt lat="40.0713751" lon="-105.2297889">
  <ele>1583.0</ele>
  <time>2026-08-28T17:54:01Z</time>
  <course>247.01</course>
  <speed>0.022360679774997897</speed>
  <fix>3d</fix>
</trkpt>
<trkpt lat="40.0713749" lon="-105.229789">
  <ele>1583.0</ele>
  <time>2026-08-28T17:54:01Z</time>
  <course>0.0</course>
  <speed>0.0</speed>
  <fix>3d</fix>
</trkpt>
<trkpt lat="40.0713751" lon="-105.2297889">
  <ele>1583.0</ele>
  <time>2026-08-28T17:54:01Z</time>
  <course>247.01</course>
  <speed>0.022360679774997897</speed>
  <fix>3d</fix>
</trkpt>
<trkpt lat="40.0713749" lon="-105.229789">
  <ele>1583.0</ele>
  <time>2026-08-28T17:54:01Z</time>
  <course>0.0</course>
  <speed>0.0</speed>
  <fix>3d</fix>
</trkpt>
<trkpt lat="40.0713751" lon="-105.2297889">
  <ele>1583.0</ele>
  <time>2026-08-28T17:54:01Z</time>
  <course>247.01</course>
  <speed>0.022360679774997897</speed>
  <fix>3d</fix>
</trkpt>
<trkpt lat="40.0713749" lon="-105.229789">
  <ele>1583.0</ele>
  <time>2026-08-28T17:54:01Z</time>
  <course>0.0</course>
  <speed>0.0</speed>
  <fix>3d</fix>
</trkpt>
<trkpt lat="40.0713751" lon="-105.2297889">
  <ele>1583.0</ele>
  <time>2026-08-28T17:54:01Z</time>
  <course>247.01</course>
  <speed>0.022360679774997897</speed>
  <fix>3d</fix>
</trkpt>
<trkpt lat="40.0713749" lon="-105.229789">
  <ele>1583.0</ele>
  <time>2026-08-28T17:54:01Z</time>
  <course>0.0</course>
  <speed>0.0</speed>
  <fix>3d</fix>
</trkpt>
<trkpt lat="40.0713751" lon="-105.2297889">
  <ele>1583.0</ele>
  <time>2026-08-28T17:54:01Z</time>
  <course>247.01</course>
  <speed>0.022360679774997897</speed>
  <fix>3d</fix>
</trkpt>
<trkpt lat="40.0713749" lon="-105.229789">
  <ele>1583.0</ele>
  <time>2026-08-28T17:54:01Z</time>
  <course>0.0</course>
  <speed>0.0</speed>
  <fix>3d</fix>
</trkpt>
<trkpt lat="40.0713751" lon="-105.2297889">
  <ele>1583.0</ele>
  <time>2026-08-28T17:54:01Z</time>
  <course>247.01</course>
  <speed>0.022360679774997897</speed>
  <fix>3d</fix>
</trkpt>
<trkpt lat="40.0713749" lon="-105.229789">
  <ele>1583.0</ele>
  <time>2026-08-28T17:54:01Z</time>
  <course>0.0</course>
  <speed>0.0</speed>
  <fix>3d</fix>
</trkpt>
<trkpt lat="40.0713751" lon="-105.2297889">
  <ele>1583.0</ele>
  <time>2026-08-28T17:54:01Z</time>
  <course>247.01</course>
  <speed>0.022360679774997897</speed>
  <fix>3d</fix>
</trkpt>
<trkpt lat="40.0713749" lon="-105.229789">
  <ele>1583.0</ele>
  <time>2026-08-28T17:54:01Z</time>
  <course>0.0</course>
  <speed>0.0</speed>
  <fix>3d</fix>
</trkpt>
<trkpt lat="40.0713751" lon="-105.2297889">
  <ele>1583.0</ele>
  <time>2026-08-28T17:54:01Z</time>
  <course>247.01</course>
  <speed>0.022360679774997897</speed>
  <fix>3d</fix>
</trkpt>
<trkpt lat="40.0713749" lon="-105.229789">
  <ele>1583.0</ele>
  <time>2026-08-28T17:54:01Z</time>
  <course>0.0</course>
  <speed>0.0</speed>
  <fix>3d</fix>
</trkpt>
<trkpt lat="40.0713751" lon="-105.2297889">
  <ele>1583.01</ele>
  <time>2026-08-28T17:54:01Z</time>
  <course>247.01</course>
  <speed>0.022360679774997897</speed>
  <fix>3d</fix>
</trkpt>
<trkpt lat="40.0713749" lon="-105.229789">
  <ele>1583.0</ele>
  <time>2026-08-28T17:54:01Z</time>
  <course>0.0</course>
  <speed>0.0</speed>
  <fix>3d</fix>
</trkpt>
<trkpt lat="40.0713751" lon="-105.2297889">
  <ele>1583.01</ele>
  <time>2026-08-28T17:54:01Z</time>
  <course>247.01</course>
  <speed>0.022360679774997897</speed>
  <fix>3d</fix>
</trkpt>
<trkpt lat="40.0713749" lon="-105.229789">
  <ele>1583.0</ele>
  <time>2026-08-28T17:54:01Z</time>
  <course>0.0</course>
  <speed>0.0</speed>
  <fix>3d</fix>
</trkpt>
<trkpt lat="40.0713751" lon="-105.2297889">
  <ele>1583.01</ele>
  <time>2026-08-28T17:54:01Z</time>
  <course>247.01</course>
  <speed>0.022360679774997897</speed>
  <fix>3d</fix>
</trkpt>
<trkpt lat="40.0713749" lon="-105.229789">
  <ele>1583.0</ele>
  <time>2026-08-28T17:54:01Z</time>
  <course>0.0</course>
  <speed>0.0</speed>
  <fix>3d</fix>
</trkpt>
<trkpt lat="40.0713751" lon="-105.2297889">
  <ele>1583.01</ele>
  <time>2026-08-28T17:54:01Z</time>
  <course>247.01</course>
  <speed>0.022360679774997897</speed>
  <fix>3d</fix>
</trkpt>
<trkpt lat="40.0713749" lon="-105.229789">
  <ele>1583.0</ele>
  <time>2026-08-28T17:54:01Z</time>
  <course>0.0</course>
  <speed>0.0</speed>
  <fix>3d</fix>
</trkpt>
<trkpt lat="40.0713751" lon="-105.2297889">
  <ele>1583.01</ele>
  <time>2026-08-28T17:54:01Z</time>
  <course>247.01</course>
  <speed>0.022360679774997897</speed>
  <fix>3d</fix>
</trkpt>
<trkpt lat="40.0713749" lon="-105.229789">
  <ele>1583.0</ele>
  <time>2026-08-28T17:54:01Z</time>
  <course>0.0</course>
  <speed>0.0</speed>
  <fix>3d</fix>
</trkpt>
<trkpt lat="40.0713751" lon="-105.2297889">
  <ele>1583.01</ele>
  <time>2026-08-28T17:54:01Z</time>
  <course>247.01</course>
  <speed>0.022360679774997897</speed>
  <fix>3d</fix>
</trkpt>
<trkpt lat="40.0713749" lon="-105.229789">
  <ele>1583.0</ele>
  <time>2026-08-28T17:54:01Z</time>
  <course>0.0</course>
  <speed>0.0</speed>
  <fix>3d</fix>
</trkpt>
<trkpt lat="40.0713751" lon="-105.2297889">
  <ele>1583.0</ele>
  <time>2026-08-28T17:54:01Z</time>
  <course>247.01</course>
  <speed>0.022360679774997897</speed>
  <fix>3d</fix>
</trkpt>
<trkpt lat="40.0713749" lon="-105.229789">
  <ele>1583.0</ele>
  <time>2026-08-28T17:54:01Z</time>
  <course>0.0</course>
  <speed>0.0</speed>
  <fix>3d</fix>
</trkpt>
<trkpt lat="40.0713751" lon="-105.2297889">
  <ele>1583.0</ele>
  <time>2026-08-28T17:54:01Z</time>
  <course>247.01</course>
  <speed>0.022360679774997897</speed>
  <fix>3d</fix>
</trkpt>
<trkpt lat="40.0713749" lon="-105.229789">
  <ele>1583.0</ele>
  <time>2026-08-28T17:54:01Z</time>
  <course>0.0</course>
  <speed>0.0</speed>
  <fix>3d</fix>
</trkpt>
<trkpt lat="40.0713751" lon="-105.2297889">
  <ele>1583.0</ele>
  <time>2026-08-28T17:54:01Z</time>
  <course>247.01</course>
  <speed>0.022360679774997897</speed>
  <fix>3d</fix>
</trkpt>
<trkpt lat="40.0713749" lon="-105.229789">
  <ele>1583.0</ele>
  <time>2026-08-28T17:54:01Z</time>
  <course>0.0</course>
  <speed>0.0</speed>
  <fix>3d</fix>
</trkpt>
<trkpt lat="40.0713751" lon="-105.2297889">
  <ele>1583.0</ele>
  <time>2026-08-28T17:54:01Z</time>
  <course>247.01</course>
  <speed>0.022360679774997897</speed>
  <fix>3d</fix>
</trkpt>
<trkpt lat="40.0713749" lon="-105.229789">
  <ele>1583.0</ele>
  <time>2026-08-28T17:54:01Z</time>
  <course>0.0</course>
  <speed>0.0</speed>
  <fix>3d</fix>
</trkpt>
<trkpt lat="40.0713751" lon="-105.2297889">
  <ele>1583.0</ele>
  <time>2026-08-28T17:54:01Z</time>
  <course>247.01</course>
  <speed>0.022360679774997897</speed>
  <fix>3d</fix>
</trkpt>
<trkpt lat="40.0713749" lon="-105.229789">
  <ele>1583.0</ele>
  <time>2026-08-28T17:54:01Z</time>
  <course>0.0</course>
  <speed>0.0</speed>
  <fix>3d</fix>
</trkpt>
<trkpt lat="40.0713751" lon="-105.2297889">
  <ele>1583.0</ele>
  <time>2026-08-28T17:54:01Z</time>
  <course>247.01</course>
  <speed>0.022360679774997897</speed>
  <fix>3d</fix>
</trkpt>
<trkpt lat="40.0713749" lon="-105.229789">
  <ele>1583.0</ele>
  <time>2026-08-28T17:54:01Z</time>
  <course>0.0</course>
  <speed>0.0</speed>
  <fix>3d</fix>
</trkpt>
<trkpt lat="40.0713751" lon="-105.2297889">
  <ele>1583.0</ele>
  <time>2026-08-28T17:54:01Z</time>
  <course>247.01</course>
  <speed>0.022360679774997897</speed>
  <fix>3d</fix>
</trkpt>
<trkpt lat="40.0713749" lon="-105.229789">
  <ele>1583.0</ele>
  <time>2026-08-28T17:54:01Z</time>
  <course>0.0</course>
  <speed>0.0</speed>
  <fix>3d</fix>
</trkpt>
<trkpt lat="40.0713751" lon="-105.2297889">
  <ele>1583.01</ele>
  <time>2026-08-28T17:54:01Z</time>
  <course>247.01</course>
  <speed>0.022360679774997897</speed>
  <fix>3d</fix>
</trkpt>
<trkpt lat="40.0713749" lon="-105.229789">
  <ele>1583.0</ele>
  <time>2026-08-28T17:54:01Z</time>
  <course>0.0</course>
  <speed>0.0</speed>
  <fix>3d</fix>
</trkpt>
<trkpt lat="40.071375" lon="-105.2297889">
  <ele>1583.01</ele>
  <time>2026-08-28T17:54:01Z</time>
  <course>247.01</course>
  <speed>0.022360679774997897</speed>
  <fix>3d</fix>
</trkpt>
<trkpt lat="40.0713749" lon="-105.229789">
  <ele>1583.0</ele>
  <time>2026-08-28T17:54:01Z</time>
  <course>0.0</course>
  <speed>0.0</speed>
  <fix>3d</fix>
</trkpt>
<trkpt lat="40.0713751" lon="-105.2297889">
  <ele>1583.01</ele>
  <time>2026-08-28T17:54:01Z</time>
  <course>247.01</course>
  <speed>0.022360679774997897</speed>
  <fix>3d</fix>
</trkpt>
<trkpt lat="40.0713749" lon="-105.229789">
  <ele>1583.0</ele>
  <time>2026-08-28T17:54:01Z</time>
  <course>0.0</course>
  <speed>0.0</speed>
  <fix>3d</fix>
</trkpt>
<trkpt lat="40.071375" lon="-105.2297889">
  <ele>1583.01</ele>
  <time>2026-08-28T17:54:01Z</time>
  <course>247.01</course>
  <speed>0.022360679774997897</speed>
  <fix>3d</fix>
</trkpt>
<trkpt lat="40.0713749" lon="-105.229789">
  <ele>1583.0</ele>
  <time>2026-08-28T17:54:01Z</time>
  <course>0.0</course>
  <speed>0.0</speed>
  <fix>3d</fix>
</trkpt>
<trkpt lat="40.0713751" lon="-105.2297889">
  <ele>1583.0</ele>
  <time>2026-08-28T17:54:01Z</time>
  <course>247.01</course>
  <speed>0.022360679774997897</speed>
  <fix>3d</fix>
</trkpt>
<trkpt lat="40.0713749" lon="-105.229789">
  <ele>1583.0</ele>
  <time>2026-08-28T17:54:01Z</time>
  <course>0.0</course>
  <speed>0.0</speed>
  <fix>3d</fix>
</trkpt>
<trkpt lat="40.071375" lon="-105.2297889">
  <ele>1583.0</ele>
  <time>2026-08-28T17:54:01Z</time>
  <course>247.01</course>
  <speed>0.022360679774997897</speed>
  <fix>3d</fix>
</trkpt>
<trkpt lat="40.0713749" lon="-105.229789">
  <ele>1583.0</ele>
  <time>2026-08-28T17:54:01Z</time>
  <course>0.0</course>
  <speed>0.0</speed>
  <fix>3d</fix>
</trkpt>
<trkpt lat="40.0713751" lon="-105.2297889">
  <ele>1583.01</ele>
  <time>2026-08-28T17:54:01Z</time>
  <course>247.01</course>
  <speed>0.022360679774997897</speed>
  <fix>3d</fix>
</trkpt>
<trkpt lat="40.0713749" lon="-105.229789">
  <ele>1583.0</ele>
  <time>2026-08-28T17:54:01Z</time>
  <course>0.0</course>
  <speed>0.0</speed>
  <fix>3d</fix>
</trkpt>
<trkpt lat="40.071375" lon="-105.2297889">
  <ele>1583.01</ele>
  <time>2026-08-28T17:54:01Z</time>
  <course>247.01</course>
  <speed>0.022360679774997897</speed>
  <fix>3d</fix>
</trkpt>
<trkpt lat="40.0713749" lon="-105.229789">
  <ele>1583.0</ele>
  <time>2026-08-28T17:54:01Z</time>
  <course>0.0</course>
  <speed>0.0</speed>
  <fix>3d</fix>
</trkpt>
<trkpt lat="40.0713751" lon="-105.2297889">
  <ele>1583.01</ele>
  <time>2026-08-28T17:54:01Z</time>
  <course>247.01</course>
  <speed>0.022360679774997897</speed>
  <fix>3d</fix>
</trkpt>
<trkpt lat="40.0713749" lon="-105.229789">
  <ele>1583.0</ele>
  <time>2026-08-28T17:54:01Z</time>
  <course>0.0</course>
  <speed>0.0</speed>
  <fix>3d</fix>
</trkpt>
<trkpt lat="40.071375" lon="-105.2297889">
  <ele>1583.01</ele>
  <time>2026-08-28T17:54:01Z</time>
  <course>247.01</course>
  <speed>0.02</speed>
  <fix>3d</fix>
</trkpt>
<trkpt lat="40.0713749" lon="-105.229789">
  <ele>1583.0</ele>
  <time>2026-08-28T17:54:01Z</time>
  <course>0.0</course>
  <speed>0.0</speed>
  <fix>3d</fix>
</trkpt>
<trkpt lat="40.0713751" lon="-105.2297889">
  <ele>1583.02</ele>
  <time>2026-08-28T17:54:01Z</time>
  <course>247.01</course>
  <speed>0.022360679774997897</speed>
  <fix>3d</fix>
</trkpt>
<trkpt lat="40.0713749" lon="-105.229789">
  <ele>1583.0</ele>
  <time>2026-08-28T17:54:01Z</time>
  <course>0.0</course>
  <speed>0.0</speed>
  <fix>3d</fix>
</trkpt>
<trkpt lat="40.0713751" lon="-105.2297889">
  <ele>1583.02</ele>
  <time>2026-08-28T17:54:01Z</time>
  <course>247.01</course>
  <speed>0.022360679774997897</speed>
  <fix>3d</fix>
</trkpt>
<trkpt lat="40.0713749" lon="-105.229789">
  <ele>1583.0</ele>
  <time>2026-08-28T17:54:01Z</time>
  <course>0.0</course>
  <speed>0.0</speed>
  <fix>3d</fix>
</trkpt>
<trkpt lat="40.0713751" lon="-105.2297889">
  <ele>1583.02</ele>
  <time>2026-08-28T17:54:01Z</time>
  <course>247.01</course>
  <speed>0.022360679774997897</speed>
  <fix>3d</fix>
</trkpt>
<trkpt lat="40.0713749" lon="-105.229789">
  <ele>1583.0</ele>
  <time>2026-08-28T17:54:01Z</time>
  <course>0.0</course>
  <speed>0.0</speed>
  <fix>3d</fix>
</trkpt>
<trkpt lat="40.0713751" lon="-105.2297889">
  <ele>1583.02</ele>
  <time>2026-08-28T17:54:01Z</time>
  <course>247.01</course>
  <speed>0.022360679774997897</speed>
  <fix>3d</fix>
</trkpt>
<trkpt lat="40.0713749" lon="-105.229789">
  <ele>1583.0</ele>
  <time>2026-08-28T17:54:01Z</time>
  <course>0.0</course>
  <speed>0.0</speed>
  <fix>3d</fix>
</trkpt>
<trkpt lat="40.0713751" lon="-105.2297889">
  <ele>1583.02</ele>
  <time>2026-08-28T17:54:01Z</time>
  <course>247.01</course>
  <speed>0.022360679774997897</speed>
  <fix>3d</fix>
</trkpt>
<trkpt lat="40.0713749" lon="-105.229789">
  <ele>1583.0</ele>
  <time>2026-08-28T17:54:01Z</time>
  <course>0.0</course>
  <speed>0.0</speed>
  <fix>3d</fix>
</trkpt>
<trkpt lat="40.0713751" lon="-105.2297889">
  <ele>1583.02</ele>
  <time>2026-08-28T17:54:01Z</time>
  <course>247.01</course>
  <speed>0.022360679774997897</speed>
  <fix>3d</fix>
</trkpt>
<trkpt lat="40.0713749" lon="-105.229789">
  <ele>1583.0</ele>
  <time>2026-08-28T17:54:01Z</time>
  <course>0.0</course>
  <speed>0.0</speed>
  <fix>3d</fix>
</trkpt>
<trkpt lat="40.0713751" lon="-105.2297889">
  <ele>1583.03</ele>
  <time>2026-08-28T17:54:01Z</time>
  <course>247.01</course>
  <speed>0.022360679774997897</speed>
  <fix>3d</fix>
</trkpt>
<trkpt lat="40.0713749" lon="-105.229789">
  <ele>1583.0</ele>
  <time>2026-08-28T17:54:01Z</time>
  <course>0.0</course>
  <speed>0.0</speed>
  <fix>3d</fix>
</trkpt>
<trkpt lat="40.0713751" lon="-105.2297889">
  <ele>1583.03</ele>
  <time>2026-08-28T17:54:01Z</time>
  <course>247.01</course>
  <speed>0.022360679774997897</speed>
  <fix>3d</fix>
</trkpt>
<trkpt lat="40.0713749" lon="-105.229789">
  <ele>1583.0</ele>
  <time>2026-08-28T17:54:01Z</time>
  <course>0.0</course>
  <speed>0.0</speed>
  <fix>3d</fix>
</trkpt>
<trkpt lat="40.0713751" lon="-105.2297889">
  <ele>1583.03</ele>
  <time>2026-08-28T17:54:01Z</time>
  <course>247.01</course>
  <speed>0.022360679774997897</speed>
  <fix>3d</fix>
</trkpt>
<trkpt lat="40.0713749" lon="-105.229789">
  <ele>1583.0</ele>
  <time>2026-08-28T17:54:01Z</time>
  <course>0.0</course>
  <speed>0.0</speed>
  <fix>3d</fix>
</trkpt>
<trkpt lat="40.0713751" lon="-105.2297889">
  <ele>1583.03</ele>
  <time>2026-08-28T17:54:01Z</time>
  <course>247.01</course>
  <speed>0.02</speed>
  <fix>3d</fix>
</trkpt>
<trkpt lat="40.0713749" lon="-105.229789">
  <ele>1583.0</ele>
  <time>2026-08-28T17:54:01Z</time>
  <course>0.0</course>
  <speed>0.0</speed>
  <fix>3d</fix>
</trkpt>
<trkpt lat="40.0713751" lon="-105.2297889">
  <ele>1583.03</ele>
  <time>2026-08-28T17:54:01Z</time>
  <course>247.01</course>
  <speed>0.022360679774997897</speed>
  <fix>3d</fix>
</trkpt>
<trkpt lat="40.0713749" lon="-105.229789">
  <ele>1583.0</ele>
  <time>2026-08-28T17:54:01Z</time>
  <course>0.0</course>
  <speed>0.0</speed>
  <fix>3d</fix>
</trkpt>
<trkpt lat="40.071375" lon="-105.2297889">
  <ele>1583.03</ele>
  <time>2026-08-28T17:54:01Z</time>
  <course>247.01</course>
  <speed>0.02</speed>
  <fix>3d</fix>
</trkpt>
<trkpt lat="40.0713749" lon="-105.229789">
  <ele>1583.0</ele>
  <time>2026-08-28T17:54:01Z</time>
  <course>0.0</course>
  <speed>0.0</speed>
  <fix>3d</fix>
</trkpt>
<trkpt lat="40.0713751" lon="-105.2297889">
  <ele>1583.03</ele>
  <time>2026-08-28T17:54:01Z</time>
  <course>247.01</course>
  <speed>0.022360679774997897</speed>
  <fix>3d</fix>
</trkpt>
<trkpt lat="40.0713749" lon="-105.229789">
  <ele>1583.0</ele>
  <time>2026-08-28T17:54:01Z</time>
  <course>0.0</course>
  <speed>0.0</speed>
  <fix>3d</fix>
</trkpt>
<trkpt lat="40.071375" lon="-105.2297889">
  <ele>1583.03</ele>
  <time>2026-08-28T17:54:01Z</time>
  <course>247.01</course>
  <speed>0.02</speed>
  <fix>3d</fix>
</trkpt>
<trkpt lat="40.0713749" lon="-105.229789">
  <ele>1583.0</ele>
  <time>2026-08-28T17:54:01Z</time>
  <course>0.0</course>
  <speed>0.0</speed>
  <fix>3d</fix>
</trkpt>
<trkpt lat="40.0713751" lon="-105.2297889">
  <ele>1583.03</ele>
  <time>2026-08-28T17:54:01Z</time>
  <course>247.01</course>
  <speed>0.022360679774997897</speed>
  <fix>3d</fix>
</trkpt>
<trkpt lat="40.0713749" lon="-105.229789">
  <ele>1583.0</ele>
  <time>2026-08-28T17:54:01Z</time>
  <course>0.0</course>
  <speed>0.0</speed>
  <fix>3d</fix>
</trkpt>
<trkpt lat="40.071375" lon="-105.2297889">
  <ele>1583.03</ele>
  <time>2026-08-28T17:54:01Z</time>
  <course>247.01</course>
  <speed>0.02</speed>
  <fix>3d</fix>
</trkpt>
<trkpt lat="40.0713749" lon="-105.229789">
  <ele>1583.0</ele>
  <time>2026-08-28T17:54:01Z</time>
  <course>0.0</course>
  <speed>0.0</speed>
  <fix>3d</fix>
</trkpt>
<trkpt lat="40.0713751" lon="-105.2297889">
  <ele>1583.03</ele>
  <time>2026-08-28T17:54:01Z</time>
  <course>247.01</course>
  <speed>0.02</speed>
  <fix>3d</fix>
</trkpt>
<trkpt lat="40.0713749" lon="-105.229789">
  <ele>1583.0</ele>
  <time>2026-08-28T17:54:01Z</time>
  <course>0.0</course>
  <speed>0.0</speed>
  <fix>3d</fix>
</trkpt>
<trkpt lat="40.071375" lon="-105.2297889">
  <ele>1583.03</ele>
  <time>2026-08-28T17:54:01Z</time>
  <course>247.01</course>
  <speed>0.02</speed>
  <fix>3d</fix>
</trkpt>
<trkpt lat="40.0713749" lon="-105.229789">
  <ele>1583.0</ele>
  <time>2026-08-28T17:54:01Z</time>
  <course>0.0</course>
  <speed>0.0</speed>
  <fix>3d</fix>
</trkpt>
<trkpt lat="40.0713751" lon="-105.2297889">
  <ele>1583.03</ele>
  <time>2026-08-28T17:54:01Z</time>
  <course>247.01</course>
  <speed>0.022360679774997897</speed>
  <fix>3d</fix>
</trkpt>
<trkpt lat="40.0713749" lon="-105.229789">
  <ele>1583.0</ele>
  <time>2026-08-28T17:54:01Z</time>
  <course>0.0</course>
  <speed>0.0</speed>
  <fix>3d</fix>
</trkpt>
<trkpt lat="40.071375" lon="-105.2297889">
  <ele>1583.03</ele>
  <time>2026-08-28T17:54:01Z</time>
  <course>247.01</course>
  <speed>0.02</speed>
  <fix>3d</fix>
</trkpt>
<trkpt lat="40.0713749" lon="-105.229789">
  <ele>1583.0</ele>
  <time>2026-08-28T17:54:01Z</time>
  <course>0.0</course>
  <speed>0.0</speed>
  <fix>3d</fix>
</trkpt>
<trkpt lat="40.0713751" lon="-105.2297889">
  <ele>1583.03</ele>
  <time>2026-08-28T17:54:01Z</time>
  <course>247.01</course>
  <speed>0.022360679774997897</speed>
  <fix>3d</fix>
</trkpt>
<trkpt lat="40.0713749" lon="-105.229789">
  <ele>1583.0</ele>
  <time>2026-08-28T17:54:01Z</time>
  <course>0.0</course>
  <speed>0.0</speed>
  <fix>3d</fix>
</trkpt>
<trkpt lat="40.0713751" lon="-105.2297889">
  <ele>1583.03</ele>
  <time>2026-08-28T17:54:01Z</time>
  <course>247.01</course>
  <speed>0.022360679774997897</speed>
  <fix>3d</fix>
</trkpt>
<trkpt lat="40.0713749" lon="-105.229789">
  <ele>1583.0</ele>
  <time>2026-08-28T17:54:01Z</time>
  <course>0.0</course>
  <speed>0.0</speed>
  <fix>3d</fix>
</trkpt>
<trkpt lat="40.0713751" lon="-105.2297889">
  <ele>1583.03</ele>
  <time>2026-08-28T17:54:01Z</time>
  <course>247.01</course>
  <speed>0.022360679774997897</speed>
  <fix>3d</fix>
</trkpt>
<trkpt lat="40.0713749" lon="-105.229789">
  <ele>1583.0</ele>
  <time>2026-08-28T17:54:01Z</time>
  <course>0.0</course>
  <speed>0.0</speed>
  <fix>3d</fix>
</trkpt>
<trkpt lat="40.0713751" lon="-105.2297889">
  <ele>1583.02</ele>
  <time>2026-08-28T17:54:01Z</time>
  <course>247.01</course>
  <speed>0.022360679774997897</speed>
  <fix>3d</fix>
</trkpt>
<trkpt lat="40.0713749" lon="-105.229789">
  <ele>1583.0</ele>
  <time>2026-08-28T17:54:01Z</time>
  <course>0.0</course>
  <speed>0.0</speed>
  <fix>3d</fix>
</trkpt>
<trkpt lat="40.0713751" lon="-105.2297889">
  <ele>1583.02</ele>
  <time>2026-08-28T17:54:01Z</time>
  <course>247.01</course>
  <speed>0.022360679774997897</speed>
  <fix>3d</fix>
</trkpt>
<trkpt lat="40.0713749" lon="-105.229789">
  <ele>1583.0</ele>
  <time>2026-08-28T17:54:01Z</time>
  <course>0.0</course>
  <speed>0.0</speed>
  <fix>3d</fix>
</trkpt>
<trkpt lat="40.0713751" lon="-105.2297889">
  <ele>1583.02</ele>
  <time>2026-08-28T17:54:01Z</time>
  <course>247.01</course>
  <speed>0.022360679774997897</speed>
  <fix>3d</fix>
</trkpt>
<trkpt lat="40.0713749" lon="-105.229789">
  <ele>1583.0</ele>
  <time>2026-08-28T17:54:01Z</time>
  <course>0.0</course>
  <speed>0.0</speed>
  <fix>3d</fix>
</trkpt>
<trkpt lat="40.0713751" lon="-105.2297889">
  <ele>1583.02</ele>
  <time>2026-08-28T17:54:01Z</time>
  <course>247.01</course>
  <speed>0.022360679774997897</speed>
  <fix>3d</fix>
</trkpt>
<trkpt lat="40.0713749" lon="-105.229789">
  <ele>1583.0</ele>
  <time>2026-08-28T17:54:01Z</time>
  <course>0.0</course>
  <speed>0.0</speed>
  <fix>3d</fix>
</trkpt>
<trkpt lat="40.0713751" lon="-105.2297889">
  <ele>1583.02</ele>
  <time>2026-08-28T17:54:01Z</time>
  <course>247.01</course>
  <speed>0.022360679774997897</speed>
  <fix>3d</fix>
</trkpt>
<trkpt lat="40.0713749" lon="-105.229789">
  <ele>1583.0</ele>
  <time>2026-08-28T17:54:01Z</time>
  <course>0.0</course>
  <speed>0.0</speed>
  <fix>3d</fix>
</trkpt>
<trkpt lat="40.0713751" lon="-105.2297889">
  <ele>1583.02</ele>
  <time>2026-08-28T17:54:01Z</time>
  <course>247.01</course>
  <speed>0.022360679774997897</speed>
  <fix>3d</fix>
</trkpt>
<trkpt lat="40.0713749" lon="-105.229789">
  <ele>1583.0</ele>
  <time>2026-08-28T17:54:01Z</time>
  <course>0.0</course>
  <speed>0.0</speed>
  <fix>3d</fix>
</trkpt>
<trkpt lat="40.0713751" lon="-105.2297889">
  <ele>1583.02</ele>
  <time>2026-08-28T17:54:01Z</time>
  <course>247.01</course>
  <speed>0.022360679774997897</speed>
  <fix>3d</fix>
</trkpt>
<trkpt lat="40.0713749" lon="-105.229789">
  <ele>1583.0</ele>
  <time>2026-08-28T17:54:01Z</time>
  <course>0.0</course>
  <speed>0.0</speed>
  <fix>3d</fix>
</trkpt>
<trkpt lat="40.0713751" lon="-105.2297889">
  <ele>1583.01</ele>
  <time>2026-08-28T17:54:01Z</time>
  <course>247.0</course>
  <speed>0.022360679774997897</speed>
  <fix>3d</fix>
</trkpt>
<trkpt lat="40.0713749" lon="-105.229789">
  <ele>1583.0</ele>
  <time>2026-08-28T17:54:01Z</time>
  <course>0.0</course>
  <speed>0.0</speed>
  <fix>3d</fix>
</trkpt>
<trkpt lat="40.0713751" lon="-105.2297889">
  <ele>1583.01</ele>
  <time>2026-08-28T17:54:01Z</time>
  <course>247.01</course>
  <speed>0.022360679774997897</speed>
  <fix>3d</fix>
</trkpt>
<trkpt lat="40.0713749" lon="-105.229789">
  <ele>1583.0</ele>
  <time>2026-08-28T17:54:01Z</time>
  <course>0.0</course>
  <speed>0.0</speed>
  <fix>3d</fix>
</trkpt>
<trkpt lat="40.0713751" lon="-105.2297889">
  <ele>1583.01</ele>
  <time>2026-08-28T17:54:01Z</time>
  <course>247.0</course>
  <speed>0.022360679774997897</speed>
  <fix>3d</fix>
</trkpt>
<trkpt lat="40.0713749" lon="-105.229789">
  <ele>1583.0</ele>
  <time>2026-08-28T17:54:01Z</time>
  <course>0.0</course>
  <speed>0.0</speed>
  <fix>3d</fix>
</trkpt>
<trkpt lat="40.0713751" lon="-105.2297889">
  <ele>1583.01</ele>
  <time>2026-08-28T17:54:01Z</time>
  <course>247.0</course>
  <speed>0.022360679774997897</speed>
  <fix>3d</fix>
</trkpt>
<trkpt lat="40.0713749" lon="-105.229789">
  <ele>1583.0</ele>
  <time>2026-08-28T17:54:01Z</time>
  <course>0.0</course>
  <speed>0.0</speed>
  <fix>3d</fix>
</trkpt>
<trkpt lat="40.0713751" lon="-105.2297889">
  <ele>1583.01</ele>
  <time>2026-08-28T17:54:01Z</time>
  <course>247.0</course>
  <speed>0.022360679774997897</speed>
  <fix>3d</fix>
</trkpt>
<trkpt lat="40.0713749" lon="-105.229789">
  <ele>1583.0</ele>
  <time>2026-08-28T17:54:01Z</time>
  <course>0.0</course>
  <speed>0.0</speed>
  <fix>3d</fix>
</trkpt>
<trkpt lat="40.0713751" lon="-105.2297889">
  <ele>1583.01</ele>
  <time>2026-08-28T17:54:01Z</time>
  <course>247.0</course>
  <speed>0.022360679774997897</speed>
  <fix>3d</fix>
</trkpt>
<trkpt lat="40.0713749" lon="-105.229789">
  <ele>1583.0</ele>
  <time>2026-08-28T17:54:01Z</time>
  <course>0.0</course>
  <speed>0.0</speed>
  <fix>3d</fix>
</trkpt>
<trkpt lat="40.0713751" lon="-105.2297889">
  <ele>1583.01</ele>
  <time>2026-08-28T17:54:01Z</time>
  <course>247.0</course>
  <speed>0.022360679774997897</speed>
  <fix>3d</fix>
</trkpt>
<trkpt lat="40.0713749" lon="-105.229789">
  <ele>1583.0</ele>
  <time>2026-08-28T17:54:01Z</time>
  <course>0.0</course>
  <speed>0.0</speed>
  <fix>3d</fix>
</trkpt>
<trkpt lat="40.0713751" lon="-105.2297889">
  <ele>1583.01</ele>
  <time>2026-08-28T17:54:01Z</time>
  <course>247.0</course>
  <speed>0.022360679774997897</speed>
  <fix>3d</fix>
</trkpt>
<trkpt lat="40.0713749" lon="-105.229789">
  <ele>1583.0</ele>
  <time>2026-08-28T17:54:01Z</time>
  <course>0.0</course>
  <speed>0.0</speed>
  <fix>3d</fix>
</trkpt>
<trkpt lat="40.0713751" lon="-105.2297889">
  <ele>1583.01</ele>
  <time>2026-08-28T17:54:01Z</time>
  <course>247.0</course>
  <speed>0.022360679774997897</speed>
  <fix>3d</fix>
</trkpt>
<trkpt lat="40.0713749" lon="-105.229789">
  <ele>1583.0</ele>
  <time>2026-08-28T17:54:01Z</time>
  <course>0.0</course>
  <speed>0.0</speed>
  <fix>3d</fix>
</trkpt>
<trkpt lat="40.0713751" lon="-105.2297889">
  <ele>1583.01</ele>
  <time>2026-08-28T17:54:01Z</time>
  <course>247.0</course>
  <speed>0.022360679774997897</speed>
  <fix>3d</fix>
</trkpt>
<trkpt lat="40.0713749" lon="-105.229789">
  <ele>1583.0</ele>
  <time>2026-08-28T17:54:01Z</time>
  <course>0.0</course>
  <speed>0.0</speed>
  <fix>3d</fix>
</trkpt>
<trkpt lat="40.0713751" lon="-105.2297889">
  <ele>1583.0</ele>
  <time>2026-08-28T17:54:01Z</time>
  <course>247.0</course>
  <speed>0.022360679774997897</speed>
  <fix>3d</fix>
</trkpt>
<trkpt lat="40.0713749" lon="-105.229789">
  <ele>1583.0</ele>
  <time>2026-08-28T17:54:01Z</time>
  <course>0.0</course>
  <speed>0.0</speed>
  <fix>3d</fix>
</trkpt>
<trkpt lat="40.0713751" lon="-105.2297889">
  <ele>1583.0</ele>
  <time>2026-08-28T17:54:01Z</time>
  <course>247.0</course>
  <speed>0.022360679774997897</speed>
  <fix>3d</fix>
</trkpt>
<trkpt lat="40.0713749" lon="-105.229789">
  <ele>1583.0</ele>
  <time>2026-08-28T17:54:01Z</time>
  <course>0.0</course>
  <speed>0.0</speed>
  <fix>3d</fix>
</trkpt>
<trkpt lat="40.0713751" lon="-105.2297889">
  <ele>1583.0</ele>
  <time>2026-08-28T17:54:01Z</time>
  <course>247.0</course>
  <speed>0.022360679774997897</speed>
  <fix>3d</fix>
</trkpt>
<trkpt lat="40.0713749" lon="-105.229789">
  <ele>1583.0</ele>
  <time>2026-08-28T17:54:01Z</time>
  <course>0.0</course>
  <speed>0.0</speed>
  <fix>3d</fix>
</trkpt>
<trkpt lat="40.0713751" lon="-105.2297889">
  <ele>1583.01</ele>
  <time>2026-08-28T17:54:01Z</time>
  <course>247.0</course>
  <speed>0.022360679774997897</speed>
  <fix>3d</fix>
</trkpt>
<trkpt lat="40.0713749" lon="-105.229789">
  <ele>1583.0</ele>
  <time>2026-08-28T17:54:01Z</time>
  <course>0.0</course>
  <speed>0.0</speed>
  <fix>3d</fix>
</trkpt>
<trkpt lat="40.0713751" lon="-105.2297889">
  <ele>1583.01</ele>
  <time>2026-08-28T17:54:01Z</time>
  <course>247.0</course>
  <speed>0.022360679774997897</speed>
  <fix>3d</fix>
</trkpt>
<trkpt lat="40.0713749" lon="-105.229789">
  <ele>1583.0</ele>
  <time>2026-08-28T17:54:01Z</time>
  <course>0.0</course>
  <speed>0.0</speed>
  <fix>3d</fix>
</trkpt>
<trkpt lat="40.0713751" lon="-105.2297889">
  <ele>1583.01</ele>
  <time>2026-08-28T17:54:01Z</time>
  <course>247.0</course>
  <speed>0.022360679774997897</speed>
  <fix>3d</fix>
</trkpt>
<trkpt lat="40.0713749" lon="-105.229789">
  <ele>1583.0</ele>
  <time>2026-08-28T17:54:01Z</time>
  <course>0.0</course>
  <speed>0.0</speed>
  <fix>3d</fix>
</trkpt>
<trkpt lat="40.0713751" lon="-105.2297889">
  <ele>1583.02</ele>
  <time>2026-08-28T17:54:01Z</time>
  <course>247.0</course>
  <speed>0.022360679774997897</speed>
  <fix>3d</fix>
</trkpt>
<trkpt lat="40.0713749" lon="-105.229789">
  <ele>1583.0</ele>
  <time>2026-08-28T17:54:01Z</time>
  <course>0.0</course>
  <speed>0.0</speed>
  <fix>3d</fix>
</trkpt>
<trkpt lat="40.0713751" lon="-105.2297889">
  <ele>1583.02</ele>
  <time>2026-08-28T17:54:01Z</time>
  <course>247.0</course>
  <speed>0.022360679774997897</speed>
  <fix>3d</fix>
</trkpt>
<trkpt lat="40.0713749" lon="-105.229789">
  <ele>1583.0</ele>
  <time>2026-08-28T17:54:01Z</time>
  <course>0.0</course>
  <speed>0.0</speed>
  <fix>3d</fix>
</trkpt>
<trkpt lat="40.0713751" lon="-105.2297889">
  <ele>1583.02</ele>
  <time>2026-08-28T17:54:01Z</time>
  <course>247.0</course>
  <speed>0.022360679774997897</speed>
  <fix>3d</fix>
</trkpt>
<trkpt lat="40.0713749" lon="-105.229789">
  <ele>1583.0</ele>
  <time>2026-08-28T17:54:01Z</time>
  <course>0.0</course>
  <speed>0.0</speed>
  <fix>3d</fix>
</trkpt>
<trkpt lat="40.0713751" lon="-105.2297889">
  <ele>1583.02</ele>
  <time>2026-08-28T17:54:01Z</time>
  <course>247.0</course>
  <speed>0.022360679774997897</speed>
  <fix>3d</fix>
</trkpt>
<trkpt lat="40.0713749" lon="-105.229789">
  <ele>1583.0</ele>
  <time>2026-08-28T17:54:01Z</time>
  <course>0.0</course>
  <speed>0.0</speed>
  <fix>3d</fix>
</trkpt>
<trkpt lat="40.0713751" lon="-105.2297889">
  <ele>1583.02</ele>
  <time>2026-08-28T17:54:01Z</time>
  <course>247.0</course>
  <speed>0.022360679774997897</speed>
  <fix>3d</fix>
</trkpt>
<trkpt lat="40.0713749" lon="-105.229789">
  <ele>1583.0</ele>
  <time>2026-08-28T17:54:01Z</time>
  <course>0.0</course>
  <speed>0.0</speed>
  <fix>3d</fix>
</trkpt>
<trkpt lat="40.0713751" lon="-105.2297889">
  <ele>1583.02</ele>
  <time>2026-08-28T17:54:01Z</time>
  <course>247.0</course>
  <speed>0.022360679774997897</speed>
  <fix>3d</fix>
</trkpt>
<trkpt lat="40.0713749" lon="-105.229789">
  <ele>1583.0</ele>
  <time>2026-08-28T17:54:01Z</time>
  <course>0.0</course>
  <speed>0.0</speed>
  <fix>3d</fix>
</trkpt>
<trkpt lat="40.0713751" lon="-105.2297889">
  <ele>1583.02</ele>
  <time>2026-08-28T17:54:01Z</time>
  <course>247.0</course>
  <speed>0.022360679774997897</speed>
  <fix>3d</fix>
</trkpt>
<trkpt lat="40.0713749" lon="-105.229789">
  <ele>1583.0</ele>
  <time>2026-08-28T17:54:01Z</time>
  <course>0.0</course>
  <speed>0.0</speed>
  <fix>3d</fix>
</trkpt>
<trkpt lat="40.071375" lon="-105.2297889">
  <ele>1583.02</ele>
  <time>2026-08-28T17:54:01Z</time>
  <course>247.0</course>
  <speed>0.022360679774997897</speed>
  <fix>3d</fix>
</trkpt>
<trkpt lat="40.0713749" lon="-105.229789">
  <ele>1583.0</ele>
  <time>2026-08-28T17:54:01Z</time>
  <course>0.0</course>
  <speed>0.0</speed>
  <fix>3d</fix>
</trkpt>
<trkpt lat="40.0713751" lon="-105.2297889">
  <ele>1583.02</ele>
  <time>2026-08-28T17:54:01Z</time>
  <course>247.0</course>
  <speed>0.022360679774997897</speed>
  <fix>3d</fix>
</trkpt>
<trkpt lat="40.0713749" lon="-105.229789">
  <ele>1583.0</ele>
  <time>2026-08-28T17:54:01Z</time>
  <course>0.0</course>
  <speed>0.0</speed>
  <fix>3d</fix>
</trkpt>
<trkpt lat="40.071375" lon="-105.2297889">
  <ele>1583.02</ele>
  <time>2026-08-28T17:54:01Z</time>
  <course>247.0</course>
  <speed>0.022360679774997897</speed>
  <fix>3d</fix>
</trkpt>
<trkpt lat="40.0713749" lon="-105.229789">
  <ele>1583.0</ele>
  <time>2026-08-28T17:54:01Z</time>
  <course>0.0</course>
  <speed>0.0</speed>
  <fix>3d</fix>
</trkpt>
<trkpt lat="40.0713751" lon="-105.2297889">
  <ele>1583.01</ele>
  <time>2026-08-28T17:54:01Z</time>
  <course>247.0</course>
  <speed>0.022360679774997897</speed>
  <fix>3d</fix>
</trkpt>
<trkpt lat="40.0713749" lon="-105.229789">
  <ele>1583.0</ele>
  <time>2026-08-28T17:54:01Z</time>
  <course>0.0</course>
  <speed>0.0</speed>
  <fix>3d</fix>
</trkpt>
<trkpt lat="40.071375" lon="-105.2297889">
  <ele>1583.01</ele>
  <time>2026-08-28T17:54:01Z</time>
  <course>247.0</course>
  <speed>0.022360679774997897</speed>
  <fix>3d</fix>
</trkpt>
<trkpt lat="40.0713749" lon="-105.229789">
  <ele>1583.0</ele>
  <time>2026-08-28T17:54:01Z</time>
  <course>0.0</course>
  <speed>0.0</speed>
  <fix>3d</fix>
</trkpt>
<trkpt lat="40.0713751" lon="-105.2297889">
  <ele>1583.01</ele>
  <time>2026-08-28T17:54:01Z</time>
  <course>247.0</course>
  <speed>0.022360679774997897</speed>
  <fix>3d</fix>
</trkpt>
<trkpt lat="40.0713749" lon="-105.229789">
  <ele>1583.0</ele>
  <time>2026-08-28T17:54:01Z</time>
  <course>0.0</course>
  <speed>0.0</speed>
  <fix>3d</fix>
</trkpt>
<trkpt lat="40.071375" lon="-105.2297889">
  <ele>1583.01</ele>
  <time>2026-08-28T17:54:01Z</time>
  <course>247.0</course>
  <speed>0.022360679774997897</speed>
  <fix>3d</fix>
</trkpt>
<trkpt lat="40.0713749" lon="-105.229789">
  <ele>1583.0</ele>
  <time>2026-08-28T17:54:01Z</time>
  <course>0.0</course>
  <speed>0.0</speed>
  <fix>3d</fix>
</trkpt>
<trkpt lat="40.0713751" lon="-105.2297889">
  <ele>1583.01</ele>
  <time>2026-08-28T17:54:01Z</time>
  <course>247.0</course>
  <speed>0.022360679774997897</speed>
  <fix>3d</fix>
</trkpt>
<trkpt lat="40.0713749" lon="-105.229789">
  <ele>1583.0</ele>
  <time>2026-08-28T17:54:01Z</time>
  <course>0.0</course>
  <speed>0.0</speed>
  <fix>3d</fix>
</trkpt>
<trkpt lat="40.0713751" lon="-105.2297889">
  <ele>1583.02</ele>
  <time>2026-08-28T17:54:01Z</time>
  <course>247.0</course>
  <speed>0.022360679774997897</speed>
  <fix>3d</fix>
</trkpt>
<trkpt lat="40.0713749" lon="-105.229789">
  <ele>1583.0</ele>
  <time>2026-08-28T17:54:01Z</time>
  <course>0.0</course>
  <speed>0.0</speed>
  <fix>3d</fix>
</trkpt>
<trkpt lat="40.0713751" lon="-105.2297889">
  <ele>1583.02</ele>
  <time>2026-08-28T17:54:01Z</time>
  <course>247.0</course>
  <speed>0.022360679774997897</speed>
  <fix>3d</fix>
</trkpt>
<trkpt lat="40.0713749" lon="-105.229789">
  <ele>1583.0</ele>
  <time>2026-08-28T17:54:01Z</time>
  <course>0.0</course>
  <speed>0.0</speed>
  <fix>3d</fix>
</trkpt>
<trkpt lat="40.0713751" lon="-105.2297889">
  <ele>1583.02</ele>
  <time>2026-08-28T17:54:01Z</time>
  <course>247.0</course>
  <speed>0.022360679774997897</speed>
  <fix>3d</fix>
</trkpt>
<trkpt lat="40.0713749" lon="-105.229789">
  <ele>1583.0</ele>
  <time>2026-08-28T17:54:01Z</time>
  <course>0.0</course>
  <speed>0.0</speed>
  <fix>3d</fix>
</trkpt>
<trkpt lat="40.0713751" lon="-105.2297889">
  <ele>1583.02</ele>
  <time>2026-08-28T17:54:01Z</time>
  <course>247.0</course>
  <speed>0.022360679774997897</speed>
  <fix>3d</fix>
</trkpt>
<trkpt lat="40.0713749" lon="-105.229789">
  <ele>1583.0</ele>
  <time>2026-08-28T17:54:01Z</time>
  <course>0.0</course>
  <speed>0.0</speed>
  <fix>3d</fix>
</trkpt>
<trkpt lat="40.0713751" lon="-105.2297889">
  <ele>1583.02</ele>
  <time>2026-08-28T17:54:01Z</time>
  <course>247.0</course>
  <speed>0.022360679774997897</speed>
  <fix>3d</fix>
</trkpt>
<trkpt lat="40.0713749" lon="-105.229789">
  <ele>1583.0</ele>
  <time>2026-08-28T17:54:01Z</time>
  <course>0.0</course>
  <speed>0.0</speed>
  <fix>3d</fix>
</trkpt>
<trkpt lat="40.0713751" lon="-105.2297889">
  <ele>1583.02</ele>
  <time>2026-08-28T17:54:01Z</time>
  <course>247.0</course>
  <speed>0.022360679774997897</speed>
  <fix>3d</fix>
</trkpt>
<trkpt lat="40.0713749" lon="-105.229789">
  <ele>1583.0</ele>
  <time>2026-08-28T17:54:01Z</time>
  <course>0.0</course>
  <speed>0.0</speed>
  <fix>3d</fix>
</trkpt>
<trkpt lat="40.0713751" lon="-105.2297889">
  <ele>1583.02</ele>
  <time>2026-08-28T17:54:01Z</time>
  <course>247.0</course>
  <speed>0.022360679774997897</speed>
  <fix>3d</fix>
</trkpt>
<trkpt lat="40.0713749" lon="-105.229789">
  <ele>1583.0</ele>
  <time>2026-08-28T17:54:01Z</time>
  <course>0.0</course>
  <speed>0.0</speed>
  <fix>3d</fix>
</trkpt>
<trkpt lat="40.0713751" lon="-105.2297889">
  <ele>1583.02</ele>
  <time>2026-08-28T17:54:01Z</time>
  <course>247.0</course>
  <speed>0.022360679774997897</speed>
  <fix>3d</fix>
</trkpt>
<trkpt lat="40.0713749" lon="-105.229789">
  <ele>1583.0</ele>
  <time>2026-08-28T17:54:01Z</time>
  <course>0.0</course>
  <speed>0.0</speed>
  <fix>3d</fix>
</trkpt>
<trkpt lat="40.0713751" lon="-105.2297889">
  <ele>1583.02</ele>
  <time>2026-08-28T17:54:01Z</time>
  <course>247.0</course>
  <speed>0.022360679774997897</speed>
  <fix>3d</fix>
</trkpt>
<trkpt lat="40.0713749" lon="-105.229789">
  <ele>1583.0</ele>
  <time>2026-08-28T17:54:01Z</time>
  <course>0.0</course>
  <speed>0.0</speed>
  <fix>3d</fix>
</trkpt>
<trkpt lat="40.0713751" lon="-105.2297889">
  <ele>1583.02</ele>
  <time>2026-08-28T17:54:01Z</time>
  <course>247.0</course>
  <speed>0.022360679774997897</speed>
  <fix>3d</fix>
</trkpt>
<trkpt lat="40.0713749" lon="-105.229789">
  <ele>1583.0</ele>
  <time>2026-08-28T17:54:01Z</time>
  <course>0.0</course>
  <speed>0.0</speed>
  <fix>3d</fix>
</trkpt>
<trkpt lat="40.0713751" lon="-105.2297889">
  <ele>1583.02</ele>
  <time>2026-08-28T17:54:01Z</time>
  <course>247.0</course>
  <speed>0.022360679774997897</speed>
  <fix>3d</fix>
</trkpt>
<trkpt lat="40.0713749" lon="-105.229789">
  <ele>1583.0</ele>
  <time>2026-08-28T17:54:01Z</time>
  <course>0.0</course>
  <speed>0.0</speed>
  <fix>3d</fix>
</trkpt>
<trkpt lat="40.0713751" lon="-105.2297889">
  <ele>1583.02</ele>
  <time>2026-08-28T17:54:01Z</time>
  <course>247.0</course>
  <speed>0.022360679774997897</speed>
  <fix>3d</fix>
</trkpt>
<trkpt lat="40.0713749" lon="-105.229789">
  <ele>1583.0</ele>
  <time>2026-08-28T17:54:01Z</time>
  <course>0.0</course>
  <speed>0.0</speed>
  <fix>3d</fix>
</trkpt>
<trkpt lat="40.0713751" lon="-105.2297889">
  <ele>1583.02</ele>
  <time>2026-08-28T17:54:01Z</time>
  <course>247.0</course>
  <speed>0.022360679774997897</speed>
  <fix>3d</fix>
</trkpt>
<trkpt lat="40.0713749" lon="-105.229789">
  <ele>1583.0</ele>
  <time>2026-08-28T17:54:01Z</time>
  <course>0.0</course>
  <speed>0.0</speed>
  <fix>3d</fix>
</trkpt>
<trkpt lat="40.0713751" lon="-105.2297889">
  <ele>1583.02</ele>
  <time>2026-08-28T17:54:01Z</time>
  <course>247.0</course>
  <speed>0.022360679774997897</speed>
  <fix>3d</fix>
</trkpt>
<trkpt lat="40.0713749" lon="-105.229789">
  <ele>1583.0</ele>
  <time>2026-08-28T17:54:01Z</time>
  <course>0.0</course>
  <speed>0.0</speed>
  <fix>3d</fix>
</trkpt>
<trkpt lat="40.0713751" lon="-105.2297889">
  <ele>1583.02</ele>
  <time>2026-08-28T17:54:01Z</time>
  <course>247.0</course>
  <speed>0.022360679774997897</speed>
  <fix>3d</fix>
</trkpt>
<trkpt lat="40.0713749" lon="-105.229789">
  <ele>1583.0</ele>
  <time>2026-08-28T17:54:01Z</time>
  <course>0.0</course>
  <speed>0.0</speed>
  <fix>3d</fix>
</trkpt>
<trkpt lat="40.0713751" lon="-105.2297889">
  <ele>1583.02</ele>
  <time>2026-08-28T17:54:01Z</time>
  <course>247.0</course>
  <speed>0.022360679774997897</speed>
  <fix>3d</fix>
</trkpt>
<trkpt lat="40.0713749" lon="-105.229789">
  <ele>1583.0</ele>
  <time>2026-08-28T17:54:01Z</time>
  <course>0.0</course>
  <speed>0.0</speed>
  <fix>3d</fix>
</trkpt>
<trkpt lat="40.0713751" lon="-105.2297889">
  <ele>1583.03</ele>
  <time>2026-08-28T17:54:01Z</time>
  <course>247.0</course>
  <speed>0.022360679774997897</speed>
  <fix>3d</fix>
</trkpt>
<trkpt lat="40.0713749" lon="-105.229789">
  <ele>1583.0</ele>
  <time>2026-08-28T17:54:01Z</time>
  <course>0.0</course>
  <speed>0.0</speed>
  <fix>3d</fix>
</trkpt>
<trkpt lat="40.0713751" lon="-105.2297889">
  <ele>1583.03</ele>
  <time>2026-08-28T17:54:01Z</time>
  <course>247.0</course>
  <speed>0.022360679774997897</speed>
  <fix>3d</fix>
</trkpt>
<trkpt lat="40.0713749" lon="-105.229789">
  <ele>1583.0</ele>
  <time>2026-08-28T17:54:01Z</time>
  <course>0.0</course>
  <speed>0.0</speed>
  <fix>3d</fix>
</trkpt>
<trkpt lat="40.071375" lon="-105.2297889">
  <ele>1583.03</ele>
  <time>2026-08-28T17:54:01Z</time>
  <course>247.0</course>
  <speed>0.022360679774997897</speed>
  <fix>3d</fix>
</trkpt>
<trkpt lat="40.0713749" lon="-105.229789">
  <ele>1583.0</ele>
  <time>2026-08-28T17:54:01Z</time>
  <course>0.0</course>
  <speed>0.0</speed>
  <fix>3d</fix>
</trkpt>
<trkpt lat="40.0713751" lon="-105.2297889">
  <ele>1583.03</ele>
  <time>2026-08-28T17:54:01Z</time>
  <course>247.0</course>
  <speed>0.022360679774997897</speed>
  <fix>3d</fix>
</trkpt>
<trkpt lat="40.0713749" lon="-105.229789">
  <ele>1583.0</ele>
  <time>2026-08-28T17:54:01Z</time>
  <course>0.0</course>
  <speed>0.0</speed>
  <fix>3d</fix>
</trkpt>
<trkpt lat="40.071375" lon="-105.2297889">
  <ele>1583.03</ele>
  <time>2026-08-28T17:54:01Z</time>
  <course>247.0</course>
  <speed>0.022360679774997897</speed>
  <fix>3d</fix>
</trkpt>
<trkpt lat="40.0713749" lon="-105.229789">
  <ele>1583.0</ele>
  <time>2026-08-28T17:54:01Z</time>
  <course>0.0</course>
  <speed>0.0</speed>
  <fix>3d</fix>
</trkpt>
<trkpt lat="40.0713751" lon="-105.2297889">
  <ele>1583.04</ele>
  <time>2026-08-28T17:54:01Z</time>
  <course>247.0</course>
  <speed>0.022360679774997897</speed>
  <fix>3d</fix>
</trkpt>
<trkpt lat="40.0713749" lon="-105.229789">
  <ele>1583.0</ele>
  <time>2026-08-28T17:54:01Z</time>
  <course>0.0</course>
  <speed>0.0</speed>
  <fix>3d</fix>
</trkpt>
<trkpt lat="40.071375" lon="-105.2297889">
  <ele>1583.04</ele>
  <time>2026-08-28T17:54:01Z</time>
  <course>247.0</course>
  <speed>0.022360679774997897</speed>
  <fix>3d</fix>
</trkpt>
<trkpt lat="40.0713749" lon="-105.229789">
  <ele>1583.0</ele>
  <time>2026-08-28T17:54:01Z</time>
  <course>0.0</course>
  <speed>0.0</speed>
  <fix>3d</fix>
</trkpt>
<trkpt lat="40.0713751" lon="-105.2297889">
  <ele>1583.04</ele>
  <time>2026-08-28T17:54:01Z</time>
  <course>247.0</course>
  <speed>0.022360679774997897</speed>
  <fix>3d</fix>
</trkpt>
<trkpt lat="40.0713749" lon="-105.229789">
  <ele>1583.0</ele>
  <time>2026-08-28T17:54:01Z</time>
  <course>0.0</course>
  <speed>0.0</speed>
  <fix>3d</fix>
</trkpt>
<trkpt lat="40.0713751" lon="-105.2297889">
  <ele>1583.04</ele>
  <time>2026-08-28T17:54:01Z</time>
  <course>247.0</course>
  <speed>0.022360679774997897</speed>
  <fix>3d</fix>
</trkpt>
<trkpt lat="40.0713749" lon="-105.229789">
  <ele>1583.0</ele>
  <time>2026-08-28T17:54:01Z</time>
  <course>0.0</course>
  <speed>0.0</speed>
  <fix>3d</fix>
</trkpt>
<trkpt lat="40.0713751" lon="-105.2297889">
  <ele>1583.04</ele>
  <time>2026-08-28T17:54:01Z</time>
  <course>247.0</course>
  <speed>0.022360679774997897</speed>
  <fix>3d</fix>
</trkpt>
<trkpt lat="40.0713749" lon="-105.229789">
  <ele>1583.0</ele>
  <time>2026-08-28T17:54:01Z</time>
  <course>0.0</course>
  <speed>0.0</speed>
  <fix>3d</fix>
</trkpt>
<trkpt lat="40.0713751" lon="-105.2297889">
  <ele>1583.04</ele>
  <time>2026-08-28T17:54:01Z</time>
  <course>247.0</course>
  <speed>0.022360679774997897</speed>
  <fix>3d</fix>
</trkpt>
<trkpt lat="40.0713749" lon="-105.229789">
  <ele>1583.0</ele>
  <time>2026-08-28T17:54:01Z</time>
  <course>0.0</course>
  <speed>0.0</speed>
  <fix>3d</fix>
</trkpt>
<trkpt lat="40.0713751" lon="-105.2297889">
  <ele>1583.04</ele>
  <time>2026-08-28T17:54:01Z</time>
  <course>247.0</course>
  <speed>0.022360679774997897</speed>
  <fix>3d</fix>
</trkpt>
<trkpt lat="40.0713749" lon="-105.229789">
  <ele>1583.0</ele>
  <time>2026-08-28T17:54:01Z</time>
  <course>0.0</course>
  <speed>0.0</speed>
  <fix>3d</fix>
</trkpt>
<trkpt lat="40.0713751" lon="-105.2297889">
  <ele>1583.04</ele>
  <time>2026-08-28T17:54:01Z</time>
  <course>247.0</course>
  <speed>0.022360679774997897</speed>
  <fix>3d</fix>
</trkpt>
<trkpt lat="40.0713749" lon="-105.229789">
  <ele>1583.0</ele>
  <time>2026-08-28T17:54:01Z</time>
  <course>0.0</course>
  <speed>0.0</speed>
  <fix>3d</fix>
</trkpt>
<trkpt lat="40.0713751" lon="-105.2297889">
  <ele>1583.04</ele>
  <time>2026-08-28T17:54:01Z</time>
  <course>247.0</course>
  <speed>0.022360679774997897</speed>
  <fix>3d</fix>
</trkpt>
<trkpt lat="40.0713749" lon="-105.229789">
  <ele>1583.0</ele>
  <time>2026-08-28T17:54:01Z</time>
  <course>0.0</course>
  <speed>0.0</speed>
  <fix>3d</fix>
</trkpt>
<trkpt lat="40.0713751" lon="-105.2297889">
  <ele>1583.04</ele>
  <time>2026-08-28T17:54:01Z</time>
  <course>247.0</course>
  <speed>0.022360679774997897</speed>
  <fix>3d</fix>
</trkpt>
<trkpt lat="40.0713749" lon="-105.229789">
  <ele>1583.0</ele>
  <time>2026-08-28T17:54:01Z</time>
  <course>0.0</course>
  <speed>0.0</speed>
  <fix>3d</fix>
</trkpt>
<trkpt lat="40.0713751" lon="-105.2297889">
  <ele>1583.04</ele>
  <time>2026-08-28T17:54:01Z</time>
  <course>247.0</course>
  <speed>0.022360679774997897</speed>
  <fix>3d</fix>
</trkpt>
<trkpt lat="40.0713749" lon="-105.229789">
  <ele>1583.0</ele>
  <time>2026-08-28T17:54:01Z</time>
  <course>0.0</course>
  <speed>0.0</speed>
  <fix>3d</fix>
</trkpt>
<trkpt lat="40.071375" lon="-105.2297889">
  <ele>1583.04</ele>
  <time>2026-08-28T17:54:01Z</time>
  <course>247.0</course>
  <speed>0.022360679774997897</speed>
  <fix>3d</fix>
</trkpt>
<trkpt lat="40.0713749" lon="-105.229789">
  <ele>1583.0</ele>
  <time>2026-08-28T17:54:01Z</time>
  <course>0.0</course>
  <speed>0.0</speed>
  <fix>3d</fix>
</trkpt>
<trkpt lat="40.0713751" lon="-105.2297889">
  <ele>1583.04</ele>
  <time>2026-08-28T17:54:01Z</time>
  <course>247.0</course>
  <speed>0.022360679774997897</speed>
  <fix>3d</fix>
</trkpt>
<trkpt lat="40.0713749" lon="-105.229789">
  <ele>1583.0</ele>
  <time>2026-08-28T17:54:01Z</time>
  <course>0.0</course>
  <speed>0.0</speed>
  <fix>3d</fix>
</trkpt>
<trkpt lat="40.071375" lon="-105.2297889">
  <ele>1583.03</ele>
  <time>2026-08-28T17:54:01Z</time>
  <course>247.0</course>
  <speed>0.022360679774997897</speed>
  <fix>3d</fix>
</trkpt>
<trkpt lat="40.0713749" lon="-105.229789">
  <ele>1583.0</ele>
  <time>2026-08-28T17:54:01Z</time>
  <course>0.0</course>
  <speed>0.0</speed>
  <fix>3d</fix>
</trkpt>
<trkpt lat="40.0713751" lon="-105.2297889">
  <ele>1583.03</ele>
  <time>2026-08-28T17:54:01Z</time>
  <course>247.0</course>
  <speed>0.022360679774997897</speed>
  <fix>3d</fix>
</trkpt>
<trkpt lat="40.0713749" lon="-105.229789">
  <ele>1583.0</ele>
  <time>2026-08-28T17:54:01Z</time>
  <course>0.0</course>
  <speed>0.0</speed>
  <fix>3d</fix>
</trkpt>
<trkpt lat="40.071375" lon="-105.2297889">
  <ele>1583.03</ele>
  <time>2026-08-28T17:54:01Z</time>
  <course>247.0</course>
  <speed>0.022360679774997897</speed>
  <fix>3d</fix>
</trkpt>
<trkpt lat="40.0713749" lon="-105.229789">
  <ele>1583.0</ele>
  <time>2026-08-28T17:54:01Z</time>
  <course>0.0</course>
  <speed>0.0</speed>
  <fix>3d</fix>
</trkpt>
<trkpt lat="40.0713751" lon="-105.2297889">
  <ele>1583.03</ele>
  <time>2026-08-28T17:54:01Z</time>
  <course>247.0</course>
  <speed>0.022360679774997897</speed>
  <fix>3d</fix>
</trkpt>
<trkpt lat="40.0713749" lon="-105.229789">
  <ele>1583.0</ele>
  <time>2026-08-28T17:54:01Z</time>
  <course>0.0</course>
  <speed>0.0</speed>
  <fix>3d</fix>
</trkpt>
<trkpt lat="40.071375" lon="-105.2297889">
  <ele>1583.03</ele>
  <time>2026-08-28T17:54:01Z</time>
  <course>247.0</course>
  <speed>0.022360679774997897</speed>
  <fix>3d</fix>
</trkpt>
<trkpt lat="40.0713749" lon="-105.229789">
  <ele>1583.0</ele>
  <time>2026-08-28T17:54:01Z</time>
  <course>0.0</course>
  <speed>0.0</speed>
  <fix>3d</fix>
</trkpt>
<trkpt lat="40.0713751" lon="-105.2297889">
  <ele>1583.03</ele>
  <time>2026-08-28T17:54:01Z</time>
  <course>247.0</course>
  <speed>0.022360679774997897</speed>
  <fix>3d</fix>
</trkpt>
<trkpt lat="40.0713749" lon="-105.229789">
  <ele>1583.0</ele>
  <time>2026-08-28T17:54:01Z</time>
  <course>0.0</course>
  <speed>0.0</speed>
  <fix>3d</fix>
</trkpt>
<trkpt lat="40.071375" lon="-105.2297889">
  <ele>1583.03</ele>
  <time>2026-08-28T17:54:01Z</time>
  <course>247.0</course>
  <speed>0.022360679774997897</speed>
  <fix>3d</fix>
</trkpt>
<trkpt lat="40.0713749" lon="-105.229789">
  <ele>1583.0</ele>
  <time>2026-08-28T17:54:01Z</time>
  <course>0.0</course>
  <speed>0.0</speed>
  <fix>3d</fix>
</trkpt>
<trkpt lat="40.0713751" lon="-105.2297889">
  <ele>1583.03</ele>
  <time>2026-08-28T17:54:01Z</time>
  <course>247.0</course>
  <speed>0.022360679774997897</speed>
  <fix>3d</fix>
</trkpt>
<trkpt lat="40.0713749" lon="-105.229789">
  <ele>1583.0</ele>
  <time>2026-08-28T17:54:01Z</time>
  <course>0.0</course>
  <speed>0.0</speed>
  <fix>3d</fix>
</trkpt>
<trkpt lat="40.071375" lon="-105.2297889">
  <ele>1583.04</ele>
  <time>2026-08-28T17:54:01Z</time>
  <course>247.0</course>
  <speed>0.022360679774997897</speed>
  <fix>3d</fix>
</trkpt>
<trkpt lat="40.0713749" lon="-105.229789">
  <ele>1583.0</ele>
  <time>2026-08-28T17:54:01Z</time>
  <course>0.0</course>
  <speed>0.0</speed>
  <fix>3d</fix>
</trkpt>
<trkpt lat="40.0713751" lon="-105.2297889">
  <ele>1583.04</ele>
  <time>2026-08-28T17:54:01Z</time>
  <course>247.0</course>
  <speed>0.022360679774997897</speed>
  <fix>3d</fix>
</trkpt>
<trkpt lat="40.0713749" lon="-105.229789">
  <ele>1583.0</ele>
  <time>2026-08-28T17:54:01Z</time>
  <course>0.0</course>
  <speed>0.0</speed>
  <fix>3d</fix>
</trkpt>
<trkpt lat="40.0713751" lon="-105.2297889">
  <ele>1583.04</ele>
  <time>2026-08-28T17:54:01Z</time>
  <course>247.0</course>
  <speed>0.022360679774997897</speed>
  <fix>3d</fix>
</trkpt>
<trkpt lat="40.0713749" lon="-105.229789">
  <ele>1583.0</ele>
  <time>2026-08-28T17:54:01Z</time>
  <course>0.0</course>
  <speed>0.0</speed>
  <fix>3d</fix>
</trkpt>
<trkpt lat="40.0713751" lon="-105.2297889">
  <ele>1583.04</ele>
  <time>2026-08-28T17:54:01Z</time>
  <course>247.0</course>
  <speed>0.022360679774997897</speed>
  <fix>3d</fix>
</trkpt>
<trkpt lat="40.0713749" lon="-105.229789">
  <ele>1583.0</ele>
  <time>2026-08-28T17:54:01Z</time>
  <course>0.0</course>
  <speed>0.0</speed>
  <fix>3d</fix>
</trkpt>
<trkpt lat="40.0713751" lon="-105.2297889">
  <ele>1583.05</ele>
  <time>2026-08-28T17:54:01Z</time>
  <course>247.0</course>
  <speed>0.022360679774997897</speed>
  <fix>3d</fix>
</trkpt>
<trkpt lat="40.0713749" lon="-105.229789">
  <ele>1583.0</ele>
  <time>2026-08-28T17:54:01Z</time>
  <course>0.0</course>
  <speed>0.0</speed>
  <fix>3d</fix>
</trkpt>
<trkpt lat="40.0713751" lon="-105.2297889">
  <ele>1583.04</ele>
  <time>2026-08-28T17:54:01Z</time>
  <course>247.0</course>
  <speed>0.022360679774997897</speed>
  <fix>3d</fix>
</trkpt>
<trkpt lat="40.0713749" lon="-105.229789">
  <ele>1583.0</ele>
  <time>2026-08-28T17:54:01Z</time>
  <course>0.0</course>
  <speed>0.0</speed>
  <fix>3d</fix>
</trkpt>
<trkpt lat="40.0713751" lon="-105.2297889">
  <ele>1583.04</ele>
  <time>2026-08-28T17:54:01Z</time>
  <course>247.0</course>
  <speed>0.022360679774997897</speed>
  <fix>3d</fix>
</trkpt>
<trkpt lat="40.0713749" lon="-105.229789">
  <ele>1583.0</ele>
  <time>2026-08-28T17:54:01Z</time>
  <course>0.0</course>
  <speed>0.0</speed>
  <fix>3d</fix>
</trkpt>
<trkpt lat="40.0713751" lon="-105.2297889">
  <ele>1583.04</ele>
  <time>2026-08-28T17:54:01Z</time>
  <course>247.0</course>
  <speed>0.022360679774997897</speed>
  <fix>3d</fix>
</trkpt>
<trkpt lat="40.0713749" lon="-105.229789">
  <ele>1583.0</ele>
  <time>2026-08-28T17:54:01Z</time>
  <course>0.0</course>
  <speed>0.0</speed>
  <fix>3d</fix>
</trkpt>
<trkpt lat="40.0713751" lon="-105.2297889">
  <ele>1583.03</ele>
  <time>2026-08-28T17:54:01Z</time>
  <course>247.0</course>
  <speed>0.022360679774997897</speed>
  <fix>3d</fix>
</trkpt>
<trkpt lat="40.0713749" lon="-105.229789">
  <ele>1583.0</ele>
  <time>2026-08-28T17:54:01Z</time>
  <course>0.0</course>
  <speed>0.0</speed>
  <fix>3d</fix>
</trkpt>
<trkpt lat="40.0713751" lon="-105.2297889">
  <ele>1583.03</ele>
  <time>2026-08-28T17:54:01Z</time>
  <course>247.0</course>
  <speed>0.022360679774997897</speed>
  <fix>3d</fix>
</trkpt>
<trkpt lat="40.0713749" lon="-105.229789">
  <ele>1583.0</ele>
  <time>2026-08-28T17:54:01Z</time>
  <course>0.0</course>
  <speed>0.0</speed>
  <fix>3d</fix>
</trkpt>
<trkpt lat="40.071375" lon="-105.2297889">
  <ele>1583.03</ele>
  <time>2026-08-28T17:54:01Z</time>
  <course>247.0</course>
  <speed>0.022360679774997897</speed>
  <fix>3d</fix>
</trkpt>
<trkpt lat="40.0713749" lon="-105.229789">
  <ele>1583.0</ele>
  <time>2026-08-28T17:54:01Z</time>
  <course>0.0</course>
  <speed>0.0</speed>
  <fix>3d</fix>
</trkpt>
<trkpt lat="40.0713751" lon="-105.2297889">
  <ele>1583.02</ele>
  <time>2026-08-28T17:54:01Z</time>
  <course>247.0</course>
  <speed>0.022360679774997897</speed>
  <fix>3d</fix>
</trkpt>
<trkpt lat="40.0713749" lon="-105.229789">
  <ele>1583.0</ele>
  <time>2026-08-28T17:54:01Z</time>
  <course>0.0</course>
  <speed>0.0</speed>
  <fix>3d</fix>
</trkpt>
<trkpt lat="40.071375" lon="-105.2297889">
  <ele>1583.02</ele>
  <time>2026-08-28T17:54:01Z</time>
  <course>247.0</course>
  <speed>0.022360679774997897</speed>
  <fix>3d</fix>
</trkpt>
<trkpt lat="40.0713749" lon="-105.229789">
  <ele>1583.0</ele>
  <time>2026-08-28T17:54:01Z</time>
  <course>0.0</course>
  <speed>0.0</speed>
  <fix>3d</fix>
</trkpt>
<trkpt lat="40.0713751" lon="-105.2297889">
  <ele>1583.02</ele>
  <time>2026-08-28T17:54:01Z</time>
  <course>247.0</course>
  <speed>0.022360679774997897</speed>
  <fix>3d</fix>
</trkpt>
<trkpt lat="40.0713749" lon="-105.229789">
  <ele>1583.0</ele>
  <time>2026-08-28T17:54:01Z</time>
  <course>0.0</course>
  <speed>0.0</speed>
  <fix>3d</fix>
</trkpt>
<trkpt lat="40.071375" lon="-105.2297889">
  <ele>1583.02</ele>
  <time>2026-08-28T17:54:01Z</time>
  <course>247.0</course>
  <speed>0.022360679774997897</speed>
  <fix>3d</fix>
</trkpt>
<trkpt lat="40.0713749" lon="-105.229789">
  <ele>1583.0</ele>
  <time>2026-08-28T17:54:01Z</time>
  <course>0.0</course>
  <speed>0.0</speed>
  <fix>3d</fix>
</trkpt>
<trkpt lat="40.0713751" lon="-105.2297889">
  <ele>1583.02</ele>
  <time>2026-08-28T17:54:01Z</time>
  <course>247.0</course>
  <speed>0.022360679774997897</speed>
  <fix>3d</fix>
</trkpt>
<trkpt lat="40.0713749" lon="-105.229789">
  <ele>1583.0</ele>
  <time>2026-08-28T17:54:01Z</time>
  <course>0.0</course>
  <speed>0.0</speed>
  <fix>3d</fix>
</trkpt>
<trkpt lat="40.071375" lon="-105.2297889">
  <ele>1583.02</ele>
  <time>2026-08-28T17:54:01Z</time>
  <course>247.0</course>
  <speed>0.022360679774997897</speed>
  <fix>3d</fix>
</trkpt>
<trkpt lat="40.0713749" lon="-105.229789">
  <ele>1583.0</ele>
  <time>2026-08-28T17:54:01Z</time>
  <course>0.0</course>
  <speed>0.0</speed>
  <fix>3d</fix>
</trkpt>
<trkpt lat="40.0713751" lon="-105.2297889">
  <ele>1583.02</ele>
  <time>2026-08-28T17:54:01Z</time>
  <course>247.0</course>
  <speed>0.022360679774997897</speed>
  <fix>3d</fix>
</trkpt>
<trkpt lat="40.0713749" lon="-105.229789">
  <ele>1583.0</ele>
  <time>2026-08-28T17:54:01Z</time>
  <course>0.0</course>
  <speed>0.0</speed>
  <fix>3d</fix>
</trkpt>
<trkpt lat="40.071375" lon="-105.2297889">
  <ele>1583.01</ele>
  <time>2026-08-28T17:54:01Z</time>
  <course>247.0</course>
  <speed>0.022360679774997897</speed>
  <fix>3d</fix>
</trkpt>
<trkpt lat="40.0713749" lon="-105.229789">
  <ele>1583.0</ele>
  <time>2026-08-28T17:54:01Z</time>
  <course>0.0</course>
  <speed>0.0</speed>
  <fix>3d</fix>
</trkpt>
<trkpt lat="40.0713751" lon="-105.2297889">
  <ele>1583.01</ele>
  <time>2026-08-28T17:54:01Z</time>
  <course>247.0</course>
  <speed>0.022360679774997897</speed>
  <fix>3d</fix>
</trkpt>
<trkpt lat="40.0713749" lon="-105.229789">
  <ele>1583.0</ele>
  <time>2026-08-28T17:54:01Z</time>
  <course>0.0</course>
  <speed>0.0</speed>
  <fix>3d</fix>
</trkpt>
<trkpt lat="40.071375" lon="-105.2297889">
  <ele>1583.01</ele>
  <time>2026-08-28T17:54:01Z</time>
  <course>247.0</course>
  <speed>0.022360679774997897</speed>
  <fix>3d</fix>
</trkpt>
<trkpt lat="40.0713749" lon="-105.229789">
  <ele>1583.0</ele>
  <time>2026-08-28T17:54:01Z</time>
  <course>0.0</course>
  <speed>0.0</speed>
  <fix>3d</fix>
</trkpt>
<trkpt lat="40.0713751" lon="-105.2297889">
  <ele>1583.01</ele>
  <time>2026-08-28T17:54:01Z</time>
  <course>247.0</course>
  <speed>0.022360679774997897</speed>
  <fix>3d</fix>
</trkpt>
<trkpt lat="40.0713749" lon="-105.229789">
  <ele>1583.0</ele>
  <time>2026-08-28T17:54:01Z</time>
  <course>0.0</course>
  <speed>0.0</speed>
  <fix>3d</fix>
</trkpt>
<trkpt lat="40.071375" lon="-105.2297889">
  <ele>1583.01</ele>
  <time>2026-08-28T17:54:01Z</time>
  <course>246.99</course>
  <speed>0.022360679774997897</speed>
  <fix>3d</fix>
</trkpt>
<trkpt lat="40.0713749" lon="-105.229789">
  <ele>1583.0</ele>
  <time>2026-08-28T17:54:01Z</time>
  <course>0.0</course>
  <speed>0.0</speed>
  <fix>3d</fix>
</trkpt>
<trkpt lat="40.0713751" lon="-105.2297889">
  <ele>1583.01</ele>
  <time>2026-08-28T17:54:01Z</time>
  <course>246.99</course>
  <speed>0.022360679774997897</speed>
  <fix>3d</fix>
</trkpt>
<trkpt lat="40.0713749" lon="-105.229789">
  <ele>1583.0</ele>
  <time>2026-08-28T17:54:01Z</time>
  <course>0.0</course>
  <speed>0.0</speed>
  <fix>3d</fix>
</trkpt>
<trkpt lat="40.0713751" lon="-105.2297889">
  <ele>1583.02</ele>
  <time>2026-08-28T17:54:01Z</time>
  <course>246.99</course>
  <speed>0.022360679774997897</speed>
  <fix>3d</fix>
</trkpt>
<trkpt lat="40.0713749" lon="-105.229789">
  <ele>1583.0</ele>
  <time>2026-08-28T17:54:01Z</time>
  <course>0.0</course>
  <speed>0.0</speed>
  <fix>3d</fix>
</trkpt>
<trkpt lat="40.0713751" lon="-105.2297889">
  <ele>1583.02</ele>
  <time>2026-08-28T17:54:01Z</time>
  <course>246.99</course>
  <speed>0.022360679774997897</speed>
  <fix>3d</fix>
</trkpt>
<trkpt lat="40.0713749" lon="-105.229789">
  <ele>1583.0</ele>
  <time>2026-08-28T17:54:01Z</time>
  <course>0.0</course>
  <speed>0.0</speed>
  <fix>3d</fix>
</trkpt>
<trkpt lat="40.0713751" lon="-105.2297889">
  <ele>1583.01</ele>
  <time>2026-08-28T17:54:01Z</time>
  <course>246.99</course>
  <speed>0.022360679774997897</speed>
  <fix>3d</fix>
</trkpt>
<trkpt lat="40.0713749" lon="-105.229789">
  <ele>1583.0</ele>
  <time>2026-08-28T17:54:01Z</time>
  <course>0.0</course>
  <speed>0.0</speed>
  <fix>3d</fix>
</trkpt>
<trkpt lat="40.0713751" lon="-105.2297889">
  <ele>1583.01</ele>
  <time>2026-08-28T17:54:01Z</time>
  <course>246.99</course>
  <speed>0.022360679774997897</speed>
  <fix>3d</fix>
</trkpt>
<trkpt lat="40.0713749" lon="-105.229789">
  <ele>1583.0</ele>
  <time>2026-08-28T17:54:01Z</time>
  <course>0.0</course>
  <speed>0.0</speed>
  <fix>3d</fix>
</trkpt>
<trkpt lat="40.0713751" lon="-105.2297889">
  <ele>1583.01</ele>
  <time>2026-08-28T17:54:01Z</time>
  <course>246.99</course>
  <speed>0.022360679774997897</speed>
  <fix>3d</fix>
</trkpt>
<trkpt lat="40.0713749" lon="-105.229789">
  <ele>1583.0</ele>
  <time>2026-08-28T17:54:01Z</time>
  <course>0.0</course>
  <speed>0.0</speed>
  <fix>3d</fix>
</trkpt>
<trkpt lat="40.0713751" lon="-105.2297889">
  <ele>1583.0</ele>
  <time>2026-08-28T17:54:01Z</time>
  <course>246.99</course>
  <speed>0.022360679774997897</speed>
  <fix>3d</fix>
</trkpt>
<trkpt lat="40.0713749" lon="-105.229789">
  <ele>1583.0</ele>
  <time>2026-08-28T17:54:01Z</time>
  <course>0.0</course>
  <speed>0.0</speed>
  <fix>3d</fix>
</trkpt>
<trkpt lat="40.0713751" lon="-105.2297889">
  <ele>1583.0</ele>
  <time>2026-08-28T17:54:01Z</time>
  <course>246.99</course>
  <speed>0.022360679774997897</speed>
  <fix>3d</fix>
</trkpt>
<trkpt lat="40.0713749" lon="-105.229789">
  <ele>1583.0</ele>
  <time>2026-08-28T17:54:01Z</time>
  <course>0.0</course>
  <speed>0.0</speed>
  <fix>3d</fix>
</trkpt>
<trkpt lat="40.0713751" lon="-105.2297889">
  <ele>1583.0</ele>
  <time>2026-08-28T17:54:01Z</time>
  <course>246.99</course>
  <speed>0.022360679774997897</speed>
  <fix>3d</fix>
</trkpt>
<trkpt lat="40.0713749" lon="-105.229789">
  <ele>1583.0</ele>
  <time>2026-08-28T17:54:01Z</time>
  <course>0.0</course>
  <speed>0.0</speed>
  <fix>3d</fix>
</trkpt>
<trkpt lat="40.071375" lon="-105.2297889">
  <ele>1583.0</ele>
  <time>2026-08-28T17:54:01Z</time>
  <course>246.99</course>
  <speed>0.022360679774997897</speed>
  <fix>3d</fix>
</trkpt>
<trkpt lat="40.0713749" lon="-105.229789">
  <ele>1583.0</ele>
  <time>2026-08-28T17:54:01Z</time>
  <course>0.0</course>
  <speed>0.0</speed>
  <fix>3d</fix>
</trkpt>
<trkpt lat="40.0713751" lon="-105.2297889">
  <ele>1583.0</ele>
  <time>2026-08-28T17:54:01Z</time>
  <course>246.99</course>
  <speed>0.022360679774997897</speed>
  <fix>3d</fix>
</trkpt>
<trkpt lat="40.0713749" lon="-105.229789">
  <ele>1583.0</ele>
  <time>2026-08-28T17:54:01Z</time>
  <course>0.0</course>
  <speed>0.0</speed>
  <fix>3d</fix>
</trkpt>
<trkpt lat="40.071375" lon="-105.2297889">
  <ele>1582.99</ele>
  <time>2026-08-28T17:54:01Z</time>
  <course>246.99</course>
  <speed>0.022360679774997897</speed>
  <fix>3d</fix>
</trkpt>
<trkpt lat="40.0713749" lon="-105.229789">
  <ele>1583.0</ele>
  <time>2026-08-28T17:54:01Z</time>
  <course>0.0</course>
  <speed>0.0</speed>
  <fix>3d</fix>
</trkpt>
<trkpt lat="40.0713751" lon="-105.2297889">
  <ele>1582.99</ele>
  <time>2026-08-28T17:54:01Z</time>
  <course>246.99</course>
  <speed>0.022360679774997897</speed>
  <fix>3d</fix>
</trkpt>
<trkpt lat="40.0713749" lon="-105.229789">
  <ele>1583.0</ele>
  <time>2026-08-28T17:54:01Z</time>
  <course>0.0</course>
  <speed>0.0</speed>
  <fix>3d</fix>
</trkpt>
<trkpt lat="40.071375" lon="-105.2297889">
  <ele>1582.99</ele>
  <time>2026-08-28T17:54:01Z</time>
  <course>246.99</course>
  <speed>0.022360679774997897</speed>
  <fix>3d</fix>
</trkpt>
<trkpt lat="40.0713749" lon="-105.229789">
  <ele>1583.0</ele>
  <time>2026-08-28T17:54:01Z</time>
  <course>0.0</course>
  <speed>0.0</speed>
  <fix>3d</fix>
</trkpt>
<trkpt lat="40.0713751" lon="-105.2297889">
  <ele>1582.99</ele>
  <time>2026-08-28T17:54:01Z</time>
  <course>246.99</course>
  <speed>0.022360679774997897</speed>
  <fix>3d</fix>
</trkpt>
<trkpt lat="40.0713749" lon="-105.229789">
  <ele>1583.0</ele>
  <time>2026-08-28T17:54:01Z</time>
  <course>0.0</course>
  <speed>0.0</speed>
  <fix>3d</fix>
</trkpt>
<trkpt lat="40.0713751" lon="-105.2297889">
  <ele>1582.98</ele>
  <time>2026-08-28T17:54:01Z</time>
  <course>246.99</course>
  <speed>0.022360679774997897</speed>
  <fix>3d</fix>
</trkpt>
<trkpt lat="40.0713749" lon="-105.229789">
  <ele>1583.0</ele>
  <time>2026-08-28T17:54:01Z</time>
  <course>0.0</course>
  <speed>0.0</speed>
  <fix>3d</fix>
</trkpt>
<trkpt lat="40.0713751" lon="-105.2297889">
  <ele>1582.98</ele>
  <time>2026-08-28T17:54:01Z</time>
  <course>246.99</course>
  <speed>0.022360679774997897</speed>
  <fix>3d</fix>
</trkpt>
<trkpt lat="40.0713749" lon="-105.229789">
  <ele>1583.0</ele>
  <time>2026-08-28T17:54:01Z</time>
  <course>0.0</course>
  <speed>0.0</speed>
  <fix>3d</fix>
</trkpt>
<trkpt lat="40.0713751" lon="-105.2297889">
  <ele>1582.98</ele>
  <time>2026-08-28T17:54:01Z</time>
  <course>246.99</course>
  <speed>0.022360679774997897</speed>
  <fix>3d</fix>
</trkpt>
<trkpt lat="40.0713749" lon="-105.229789">
  <ele>1583.0</ele>
  <time>2026-08-28T17:54:01Z</time>
  <course>0.0</course>
  <speed>0.0</speed>
  <fix>3d</fix>
</trkpt>
<trkpt lat="40.0713751" lon="-105.2297889">
  <ele>1582.98</ele>
  <time>2026-08-28T17:54:01Z</time>
  <course>246.99</course>
  <speed>0.022360679774997897</speed>
  <fix>3d</fix>
</trkpt>
<trkpt lat="40.0713749" lon="-105.229789">
  <ele>1583.0</ele>
  <time>2026-08-28T17:54:01Z</time>
  <course>0.0</course>
  <speed>0.0</speed>
  <fix>3d</fix>
</trkpt>
<trkpt lat="40.0713751" lon="-105.2297889">
  <ele>1582.98</ele>
  <time>2026-08-28T17:54:01Z</time>
  <course>246.99</course>
  <speed>0.022360679774997897</speed>
  <fix>3d</fix>
</trkpt>
<trkpt lat="40.0713749" lon="-105.229789">
  <ele>1583.0</ele>
  <time>2026-08-28T17:54:01Z</time>
  <course>0.0</course>
  <speed>0.0</speed>
  <fix>3d</fix>
</trkpt>
<trkpt lat="40.0713751" lon="-105.2297889">
  <ele>1582.97</ele>
  <time>2026-08-28T17:54:01Z</time>
  <course>246.99</course>
  <speed>0.022360679774997897</speed>
  <fix>3d</fix>
</trkpt>
<trkpt lat="40.0713749" lon="-105.229789">
  <ele>1583.0</ele>
  <time>2026-08-28T17:54:01Z</time>
  <course>0.0</course>
  <speed>0.0</speed>
  <fix>3d</fix>
</trkpt>
<trkpt lat="40.0713751" lon="-105.2297889">
  <ele>1582.97</ele>
  <time>2026-08-28T17:54:01Z</time>
  <course>246.99</course>
  <speed>0.022360679774997897</speed>
  <fix>3d</fix>
</trkpt>
<trkpt lat="40.0713749" lon="-105.229789">
  <ele>1583.0</ele>
  <time>2026-08-28T17:54:01Z</time>
  <course>0.0</course>
  <speed>0.0</speed>
  <fix>3d</fix>
</trkpt>
<trkpt lat="40.0713751" lon="-105.2297889">
  <ele>1582.97</ele>
  <time>2026-08-28T17:54:01Z</time>
  <course>246.99</course>
  <speed>0.022360679774997897</speed>
  <fix>3d</fix>
</trkpt>
<trkpt lat="40.0713749" lon="-105.229789">
  <ele>1583.0</ele>
  <time>2026-08-28T17:54:01Z</time>
  <course>0.0</course>
  <speed>0.0</speed>
  <fix>3d</fix>
</trkpt>
<trkpt lat="40.0713751" lon="-105.2297889">
  <ele>1582.97</ele>
  <time>2026-08-28T17:54:01Z</time>
  <course>246.99</course>
  <speed>0.022360679774997897</speed>
  <fix>3d</fix>
</trkpt>
<trkpt lat="40.0713749" lon="-105.229789">
  <ele>1583.0</ele>
  <time>2026-08-28T17:54:01Z</time>
  <course>0.0</course>
  <speed>0.0</speed>
  <fix>3d</fix>
</trkpt>
<trkpt lat="40.0713751" lon="-105.2297889">
  <ele>1582.97</ele>
  <time>2026-08-28T17:54:01Z</time>
  <course>246.99</course>
  <speed>0.022360679774997897</speed>
  <fix>3d</fix>
</trkpt>
<trkpt lat="40.0713749" lon="-105.229789">
  <ele>1583.0</ele>
  <time>2026-08-28T17:54:01Z</time>
  <course>0.0</course>
  <speed>0.0</speed>
  <fix>3d</fix>
</trkpt>
<trkpt lat="40.0713751" lon="-105.2297889">
  <ele>1582.96</ele>
  <time>2026-08-28T17:54:01Z</time>
  <course>246.99</course>
  <speed>0.022360679774997897</speed>
  <fix>3d</fix>
</trkpt>
<trkpt lat="40.0713749" lon="-105.229789">
  <ele>1583.0</ele>
  <time>2026-08-28T17:54:01Z</time>
  <course>0.0</course>
  <speed>0.0</speed>
  <fix>3d</fix>
</trkpt>
<trkpt lat="40.0713751" lon="-105.2297889">
  <ele>1582.96</ele>
  <time>2026-08-28T17:54:01Z</time>
  <course>246.99</course>
  <speed>0.022360679774997897</speed>
  <fix>3d</fix>
</trkpt>
<trkpt lat="40.0713749" lon="-105.229789">
  <ele>1583.0</ele>
  <time>2026-08-28T17:54:01Z</time>
  <course>0.0</course>
  <speed>0.0</speed>
  <fix>3d</fix>
</trkpt>
<trkpt lat="40.0713751" lon="-105.2297889">
  <ele>1582.96</ele>
  <time>2026-08-28T17:54:01Z</time>
  <course>246.99</course>
  <speed>0.022360679774997897</speed>
  <fix>3d</fix>
</trkpt>
<trkpt lat="40.0713749" lon="-105.229789">
  <ele>1583.0</ele>
  <time>2026-08-28T17:54:01Z</time>
  <course>0.0</course>
  <speed>0.0</speed>
  <fix>3d</fix>
</trkpt>
<trkpt lat="40.0713751" lon="-105.2297889">
  <ele>1582.96</ele>
  <time>2026-08-28T17:54:01Z</time>
  <course>246.99</course>
  <speed>0.022360679774997897</speed>
  <fix>3d</fix>
</trkpt>
<trkpt lat="40.0713749" lon="-105.229789">
  <ele>1583.0</ele>
  <time>2026-08-28T17:54:01Z</time>
  <course>0.0</course>
  <speed>0.0</speed>
  <fix>3d</fix>
</trkpt>
<trkpt lat="40.0713751" lon="-105.2297889">
  <ele>1582.96</ele>
  <time>2026-08-28T17:54:01Z</time>
  <course>246.99</course>
  <speed>0.022360679774997897</speed>
  <fix>3d</fix>
</trkpt>
<trkpt lat="40.0713749" lon="-105.229789">
  <ele>1583.0</ele>
  <time>2026-08-28T17:54:01Z</time>
  <course>0.0</course>
  <speed>0.0</speed>
  <fix>3d</fix>
</trkpt>
<trkpt lat="40.0713751" lon="-105.2297889">
  <ele>1582.96</ele>
  <time>2026-08-28T17:54:01Z</time>
  <course>246.99</course>
  <speed>0.022360679774997897</speed>
  <fix>3d</fix>
</trkpt>
<trkpt lat="40.0713749" lon="-105.229789">
  <ele>1583.0</ele>
  <time>2026-08-28T17:54:01Z</time>
  <course>0.0</course>
  <speed>0.0</speed>
  <fix>3d</fix>
</trkpt>
<trkpt lat="40.071375" lon="-105.2297889">
  <ele>1582.96</ele>
  <time>2026-08-28T17:54:01Z</time>
  <course>246.99</course>
  <speed>0.022360679774997897</speed>
  <fix>3d</fix>
</trkpt>
<trkpt lat="40.0713749" lon="-105.229789">
  <ele>1583.0</ele>
  <time>2026-08-28T17:54:01Z</time>
  <course>0.0</course>
  <speed>0.0</speed>
  <fix>3d</fix>
</trkpt>
<trkpt lat="40.0713751" lon="-105.2297889">
  <ele>1582.95</ele>
  <time>2026-08-28T17:54:01Z</time>
  <course>246.99</course>
  <speed>0.022360679774997897</speed>
  <fix>3d</fix>
</trkpt>
<trkpt lat="40.0713749" lon="-105.229789">
  <ele>1583.0</ele>
  <time>2026-08-28T17:54:01Z</time>
  <course>0.0</course>
  <speed>0.0</speed>
  <fix>3d</fix>
</trkpt>
<trkpt lat="40.071375" lon="-105.2297889">
  <ele>1582.95</ele>
  <time>2026-08-28T17:54:01Z</time>
  <course>246.99</course>
  <speed>0.022360679774997897</speed>
  <fix>3d</fix>
</trkpt>
<trkpt lat="40.0713749" lon="-105.229789">
  <ele>1583.0</ele>
  <time>2026-08-28T17:54:01Z</time>
  <course>0.0</course>
  <speed>0.0</speed>
  <fix>3d</fix>
</trkpt>
<trkpt lat="40.0713751" lon="-105.2297889">
  <ele>1582.95</ele>
  <time>2026-08-28T17:54:01Z</time>
  <course>246.99</course>
  <speed>0.022360679774997897</speed>
  <fix>3d</fix>
</trkpt>
<trkpt lat="40.0713749" lon="-105.229789">
  <ele>1583.0</ele>
  <time>2026-08-28T17:54:01Z</time>
  <course>0.0</course>
  <speed>0.0</speed>
  <fix>3d</fix>
</trkpt>
<trkpt lat="40.071375" lon="-105.2297889">
  <ele>1582.94</ele>
  <time>2026-08-28T17:54:01Z</time>
  <course>246.99</course>
  <speed>0.022360679774997897</speed>
  <fix>3d</fix>
</trkpt>
<trkpt lat="40.0713749" lon="-105.229789">
  <ele>1583.0</ele>
  <time>2026-08-28T17:54:01Z</time>
  <course>0.0</course>
  <speed>0.0</speed>
  <fix>3d</fix>
</trkpt>
<trkpt lat="40.0713751" lon="-105.2297889">
  <ele>1582.94</ele>
  <time>2026-08-28T17:54:01Z</time>
  <course>246.99</course>
  <speed>0.022360679774997897</speed>
  <fix>3d</fix>
</trkpt>
<trkpt lat="40.0713749" lon="-105.229789">
  <ele>1583.0</ele>
  <time>2026-08-28T17:54:01Z</time>
  <course>0.0</course>
  <speed>0.0</speed>
  <fix>3d</fix>
</trkpt>
<trkpt lat="40.0713751" lon="-105.2297889">
  <ele>1582.94</ele>
  <time>2026-08-28T17:54:01Z</time>
  <course>246.99</course>
  <speed>0.022360679774997897</speed>
  <fix>3d</fix>
</trkpt>
<trkpt lat="40.0713749" lon="-105.229789">
  <ele>1583.0</ele>
  <time>2026-08-28T17:54:01Z</time>
  <course>0.0</course>
  <speed>0.0</speed>
  <fix>3d</fix>
</trkpt>
<trkpt lat="40.0713751" lon="-105.2297889">
  <ele>1582.94</ele>
  <time>2026-08-28T17:54:01Z</time>
  <course>246.99</course>
  <speed>0.022360679774997897</speed>
  <fix>3d</fix>
</trkpt>
<trkpt lat="40.0713749" lon="-105.229789">
  <ele>1583.0</ele>
  <time>2026-08-28T17:54:01Z</time>
  <course>0.0</course>
  <speed>0.0</speed>
  <fix>3d</fix>
</trkpt>
<trkpt lat="40.0713751" lon="-105.2297889">
  <ele>1582.94</ele>
  <time>2026-08-28T17:54:01Z</time>
  <course>246.99</course>
  <speed>0.022360679774997897</speed>
  <fix>3d</fix>
</trkpt>
<trkpt lat="40.0713749" lon="-105.229789">
  <ele>1583.0</ele>
  <time>2026-08-28T17:54:01Z</time>
  <course>0.0</course>
  <speed>0.0</speed>
  <fix>3d</fix>
</trkpt>
<trkpt lat="40.0713751" lon="-105.2297889">
  <ele>1582.94</ele>
  <time>2026-08-28T17:54:01Z</time>
  <course>246.99</course>
  <speed>0.022360679774997897</speed>
  <fix>3d</fix>
</trkpt>
<trkpt lat="40.0713749" lon="-105.229789">
  <ele>1583.0</ele>
  <time>2026-08-28T17:54:01Z</time>
  <course>0.0</course>
  <speed>0.0</speed>
  <fix>3d</fix>
</trkpt>
<trkpt lat="40.0713751" lon="-105.2297889">
  <ele>1582.95</ele>
  <time>2026-08-28T17:54:01Z</time>
  <course>246.99</course>
  <speed>0.022360679774997897</speed>
  <fix>3d</fix>
</trkpt>
<trkpt lat="40.0713749" lon="-105.229789">
  <ele>1583.0</ele>
  <time>2026-08-28T17:54:01Z</time>
  <course>0.0</course>
  <speed>0.0</speed>
  <fix>3d</fix>
</trkpt>
<trkpt lat="40.0713751" lon="-105.2297889">
  <ele>1582.95</ele>
  <time>2026-08-28T17:54:01Z</time>
  <course>246.99</course>
  <speed>0.022360679774997897</speed>
  <fix>3d</fix>
</trkpt>
<trkpt lat="40.0713749" lon="-105.229789">
  <ele>1583.0</ele>
  <time>2026-08-28T17:54:01Z</time>
  <course>0.0</course>
  <speed>0.0</speed>
  <fix>3d</fix>
</trkpt>
<trkpt lat="40.0713751" lon="-105.2297889">
  <ele>1582.95</ele>
  <time>2026-08-28T17:54:01Z</time>
  <course>246.99</course>
  <speed>0.022360679774997897</speed>
  <fix>3d</fix>
</trkpt>
<trkpt lat="40.0713749" lon="-105.229789">
  <ele>1583.0</ele>
  <time>2026-08-28T17:54:01Z</time>
  <course>0.0</course>
  <speed>0.0</speed>
  <fix>3d</fix>
</trkpt>
<trkpt lat="40.0713751" lon="-105.2297889">
  <ele>1582.95</ele>
  <time>2026-08-28T17:54:01Z</time>
  <course>246.99</course>
  <speed>0.022360679774997897</speed>
  <fix>3d</fix>
</trkpt>
<trkpt lat="40.0713749" lon="-105.229789">
  <ele>1583.0</ele>
  <time>2026-08-28T17:54:01Z</time>
  <course>0.0</course>
  <speed>0.0</speed>
  <fix>3d</fix>
</trkpt>
<trkpt lat="40.0713751" lon="-105.2297889">
  <ele>1582.96</ele>
  <time>2026-08-28T17:54:01Z</time>
  <course>246.99</course>
  <speed>0.022360679774997897</speed>
  <fix>3d</fix>
</trkpt>
<trkpt lat="40.0713749" lon="-105.229789">
  <ele>1583.0</ele>
  <time>2026-08-28T17:54:01Z</time>
  <course>0.0</course>
  <speed>0.0</speed>
  <fix>3d</fix>
</trkpt>
<trkpt lat="40.0713751" lon="-105.2297889">
  <ele>1582.96</ele>
  <time>2026-08-28T17:54:01Z</time>
  <course>246.99</course>
  <speed>0.022360679774997897</speed>
  <fix>3d</fix>
</trkpt>
<trkpt lat="40.0713749" lon="-105.229789">
  <ele>1583.0</ele>
  <time>2026-08-28T17:54:01Z</time>
  <course>0.0</course>
  <speed>0.0</speed>
  <fix>3d</fix>
</trkpt>
<trkpt lat="40.0713751" lon="-105.2297889">
  <ele>1582.96</ele>
  <time>2026-08-28T17:54:01Z</time>
  <course>246.99</course>
  <speed>0.022360679774997897</speed>
  <fix>3d</fix>
</trkpt>
<trkpt lat="40.0713749" lon="-105.229789">
  <ele>1583.0</ele>
  <time>2026-08-28T17:54:01Z</time>
  <course>0.0</course>
  <speed>0.0</speed>
  <fix>3d</fix>
</trkpt>
<trkpt lat="40.0713751" lon="-105.2297889">
  <ele>1582.96</ele>
  <time>2026-08-28T17:54:01Z</time>
  <course>246.99</course>
  <speed>0.022360679774997897</speed>
  <fix>3d</fix>
</trkpt>
<trkpt lat="40.0713749" lon="-105.229789">
  <ele>1583.0</ele>
  <time>2026-08-28T17:54:01Z</time>
  <course>0.0</course>
  <speed>0.0</speed>
  <fix>3d</fix>
</trkpt>
<trkpt lat="40.0713751" lon="-105.2297889">
  <ele>1582.96</ele>
  <time>2026-08-28T17:54:01Z</time>
  <course>246.99</course>
  <speed>0.022360679774997897</speed>
  <fix>3d</fix>
</trkpt>
<trkpt lat="40.0713749" lon="-105.229789">
  <ele>1583.0</ele>
  <time>2026-08-28T17:54:01Z</time>
  <course>0.0</course>
  <speed>0.0</speed>
  <fix>3d</fix>
</trkpt>
<trkpt lat="40.0713751" lon="-105.2297889">
  <ele>1582.96</ele>
  <time>2026-08-28T17:54:01Z</time>
  <course>246.99</course>
  <speed>0.022360679774997897</speed>
  <fix>3d</fix>
</trkpt>
<trkpt lat="40.0713749" lon="-105.229789">
  <ele>1583.0</ele>
  <time>2026-08-28T17:54:01Z</time>
  <course>0.0</course>
  <speed>0.0</speed>
  <fix>3d</fix>
</trkpt>
<trkpt lat="40.0713751" lon="-105.2297889">
  <ele>1582.96</ele>
  <time>2026-08-28T17:54:01Z</time>
  <course>246.99</course>
  <speed>0.022360679774997897</speed>
  <fix>3d</fix>
</trkpt>
<trkpt lat="40.0713749" lon="-105.229789">
  <ele>1583.0</ele>
  <time>2026-08-28T17:54:01Z</time>
  <course>0.0</course>
  <speed>0.0</speed>
  <fix>3d</fix>
</trkpt>
<trkpt lat="40.0713751" lon="-105.2297889">
  <ele>1582.96</ele>
  <time>2026-08-28T17:54:01Z</time>
  <course>246.99</course>
  <speed>0.022360679774997897</speed>
  <fix>3d</fix>
</trkpt>
<trkpt lat="40.0713749" lon="-105.229789">
  <ele>1583.0</ele>
  <time>2026-08-28T17:54:01Z</time>
  <course>0.0</course>
  <speed>0.0</speed>
  <fix>3d</fix>
</trkpt>
<trkpt lat="40.0713751" lon="-105.2297889">
  <ele>1582.96</ele>
  <time>2026-08-28T17:54:01Z</time>
  <course>246.99</course>
  <speed>0.022360679774997897</speed>
  <fix>3d</fix>
</trkpt>
<trkpt lat="40.0713749" lon="-105.229789">
  <ele>1583.0</ele>
  <time>2026-08-28T17:54:01Z</time>
  <course>0.0</course>
  <speed>0.0</speed>
  <fix>3d</fix>
</trkpt>
<trkpt lat="40.0713751" lon="-105.2297889">
  <ele>1582.96</ele>
  <time>2026-08-28T17:54:01Z</time>
  <course>246.99</course>
  <speed>0.022360679774997897</speed>
  <fix>3d</fix>
</trkpt>
<trkpt lat="40.0713749" lon="-105.229789">
  <ele>1583.0</ele>
  <time>2026-08-28T17:54:01Z</time>
  <course>0.0</course>
  <speed>0.0</speed>
  <fix>3d</fix>
</trkpt>
<trkpt lat="40.0713751" lon="-105.2297889">
  <ele>1582.96</ele>
  <time>2026-08-28T17:54:01Z</time>
  <course>246.99</course>
  <speed>0.022360679774997897</speed>
  <fix>3d</fix>
</trkpt>
<trkpt lat="40.0713749" lon="-105.229789">
  <ele>1583.0</ele>
  <time>2026-08-28T17:54:01Z</time>
  <course>0.0</course>
  <speed>0.0</speed>
  <fix>3d</fix>
</trkpt>
<trkpt lat="40.0713751" lon="-105.2297889">
  <ele>1582.97</ele>
  <time>2026-08-28T17:54:02Z</time>
  <course>246.99</course>
  <speed>0.022360679774997897</speed>
  <fix>3d</fix>
</trkpt>
<trkpt lat="40.0713749" lon="-105.229789">
  <ele>1583.0</ele>
  <time>2026-08-28T17:54:02Z</time>
  <course>0.0</course>
  <speed>0.0</speed>
  <fix>3d</fix>
</trkpt>
<trkpt lat="40.0713751" lon="-105.2297889">
  <ele>1582.97</ele>
  <time>2026-08-28T17:54:02Z</time>
  <course>246.99</course>
  <speed>0.022360679774997897</speed>
  <fix>3d</fix>
</trkpt>
<trkpt lat="40.0713749" lon="-105.229789">
  <ele>1583.0</ele>
  <time>2026-08-28T17:54:02Z</time>
  <course>0.0</course>
  <speed>0.0</speed>
  <fix>3d</fix>
</trkpt>
<trkpt lat="40.0713751" lon="-105.2297889">
  <ele>1582.97</ele>
  <time>2026-08-28T17:54:02Z</time>
  <course>246.99</course>
  <speed>0.022360679774997897</speed>
  <fix>3d</fix>
</trkpt>
<trkpt lat="40.0713749" lon="-105.229789">
  <ele>1583.0</ele>
  <time>2026-08-28T17:54:02Z</time>
  <course>0.0</course>
  <speed>0.0</speed>
  <fix>3d</fix>
</trkpt>
<trkpt lat="40.0713751" lon="-105.2297889">
  <ele>1582.97</ele>
  <time>2026-08-28T17:54:02Z</time>
  <course>246.99</course>
  <speed>0.022360679774997897</speed>
  <fix>3d</fix>
</trkpt>
<trkpt lat="40.0713749" lon="-105.229789">
  <ele>1583.0</ele>
  <time>2026-08-28T17:54:02Z</time>
  <course>0.0</course>
  <speed>0.0</speed>
  <fix>3d</fix>
</trkpt>
<trkpt lat="40.0713751" lon="-105.2297889">
  <ele>1582.98</ele>
  <time>2026-08-28T17:54:02Z</time>
  <course>246.99</course>
  <speed>0.022360679774997897</speed>
  <fix>3d</fix>
</trkpt>
<trkpt lat="40.0713749" lon="-105.229789">
  <ele>1583.0</ele>
  <time>2026-08-28T17:54:02Z</time>
  <course>0.0</course>
  <speed>0.0</speed>
  <fix>3d</fix>
</trkpt>
<trkpt lat="40.0713751" lon="-105.2297889">
  <ele>1582.98</ele>
  <time>2026-08-28T17:54:02Z</time>
  <course>246.99</course>
  <speed>0.022360679774997897</speed>
  <fix>3d</fix>
</trkpt>
<trkpt lat="40.0713749" lon="-105.229789">
  <ele>1583.0</ele>
  <time>2026-08-28T17:54:02Z</time>
  <course>0.0</course>
  <speed>0.0</speed>
  <fix>3d</fix>
</trkpt>
<trkpt lat="40.0713751" lon="-105.2297889">
  <ele>1582.98</ele>
  <time>2026-08-28T17:54:02Z</time>
  <course>246.99</course>
  <speed>0.022360679774997897</speed>
  <fix>3d</fix>
</trkpt>
<trkpt lat="40.0713749" lon="-105.229789">
  <ele>1583.0</ele>
  <time>2026-08-28T17:54:02Z</time>
  <course>0.0</course>
  <speed>0.0</speed>
  <fix>3d</fix>
</trkpt>
<trkpt lat="40.0713751" lon="-105.2297889">
  <ele>1582.98</ele>
  <time>2026-08-28T17:54:02Z</time>
  <course>246.99</course>
  <speed>0.022360679774997897</speed>
  <fix>3d</fix>
</trkpt>
<trkpt lat="40.0713749" lon="-105.229789">
  <ele>1583.0</ele>
  <time>2026-08-28T17:54:02Z</time>
  <course>0.0</course>
  <speed>0.0</speed>
  <fix>3d</fix>
</trkpt>
<trkpt lat="40.0713751" lon="-105.2297889">
  <ele>1582.99</ele>
  <time>2026-08-28T17:54:02Z</time>
  <course>246.99</course>
  <speed>0.022360679774997897</speed>
  <fix>3d</fix>
</trkpt>
<trkpt lat="40.0713749" lon="-105.229789">
  <ele>1583.0</ele>
  <time>2026-08-28T17:54:02Z</time>
  <course>0.0</course>
  <speed>0.0</speed>
  <fix>3d</fix>
</trkpt>
<trkpt lat="40.0713751" lon="-105.2297889">
  <ele>1582.99</ele>
  <time>2026-08-28T17:54:02Z</time>
  <course>246.99</course>
  <speed>0.022360679774997897</speed>
  <fix>3d</fix>
</trkpt>
<trkpt lat="40.0713749" lon="-105.229789">
  <ele>1583.0</ele>
  <time>2026-08-28T17:54:02Z</time>
  <course>0.0</course>
  <speed>0.0</speed>
  <fix>3d</fix>
</trkpt>
<trkpt lat="40.0713751" lon="-105.2297889">
  <ele>1582.99</ele>
  <time>2026-08-28T17:54:02Z</time>
  <course>246.99</course>
  <speed>0.022360679774997897</speed>
  <fix>3d</fix>
</trkpt>
<trkpt lat="40.0713749" lon="-105.229789">
  <ele>1583.0</ele>
  <time>2026-08-28T17:54:02Z</time>
  <course>0.0</course>
  <speed>0.0</speed>
  <fix>3d</fix>
</trkpt>
<trkpt lat="40.0713751" lon="-105.2297889">
  <ele>1582.99</ele>
  <time>2026-08-28T17:54:02Z</time>
  <course>246.99</course>
  <speed>0.022360679774997897</speed>
  <fix>3d</fix>
</trkpt>
<trkpt lat="40.0713749" lon="-105.229789">
  <ele>1583.0</ele>
  <time>2026-08-28T17:54:02Z</time>
  <course>0.0</course>
  <speed>0.0</speed>
  <fix>3d</fix>
</trkpt>
<trkpt lat="40.0713751" lon="-105.2297889">
  <ele>1582.99</ele>
  <time>2026-08-28T17:54:02Z</time>
  <course>246.99</course>
  <speed>0.022360679774997897</speed>
  <fix>3d</fix>
</trkpt>
<trkpt lat="40.0713749" lon="-105.229789">
  <ele>1583.0</ele>
  <time>2026-08-28T17:54:02Z</time>
  <course>0.0</course>
  <speed>0.0</speed>
  <fix>3d</fix>
</trkpt>
<trkpt lat="40.0713751" lon="-105.2297889">
  <ele>1582.99</ele>
  <time>2026-08-28T17:54:02Z</time>
  <course>246.99</course>
  <speed>0.022360679774997897</speed>
  <fix>3d</fix>
</trkpt>
<trkpt lat="40.0713749" lon="-105.229789">
  <ele>1583.0</ele>
  <time>2026-08-28T17:54:02Z</time>
  <course>0.0</course>
  <speed>0.0</speed>
  <fix>3d</fix>
</trkpt>
<trkpt lat="40.0713751" lon="-105.2297889">
  <ele>1582.99</ele>
  <time>2026-08-28T17:54:02Z</time>
  <course>246.99</course>
  <speed>0.022360679774997897</speed>
  <fix>3d</fix>
</trkpt>
<trkpt lat="40.0713749" lon="-105.229789">
  <ele>1583.0</ele>
  <time>2026-08-28T17:54:02Z</time>
  <course>0.0</course>
  <speed>0.0</speed>
  <fix>3d</fix>
</trkpt>
<trkpt lat="40.0713751" lon="-105.2297889">
  <ele>1582.98</ele>
  <time>2026-08-28T17:54:02Z</time>
  <course>246.99</course>
  <speed>0.022360679774997897</speed>
  <fix>3d</fix>
</trkpt>
<trkpt lat="40.0713749" lon="-105.229789">
  <ele>1583.0</ele>
  <time>2026-08-28T17:54:02Z</time>
  <course>0.0</course>
  <speed>0.0</speed>
  <fix>3d</fix>
</trkpt>
<trkpt lat="40.0713751" lon="-105.2297889">
  <ele>1582.98</ele>
  <time>2026-08-28T17:54:02Z</time>
  <course>246.99</course>
  <speed>0.022360679774997897</speed>
  <fix>3d</fix>
</trkpt>
<trkpt lat="40.0713749" lon="-105.229789">
  <ele>1583.0</ele>
  <time>2026-08-28T17:54:02Z</time>
  <course>0.0</course>
  <speed>0.0</speed>
  <fix>3d</fix>
</trkpt>
<trkpt lat="40.0713751" lon="-105.2297889">
  <ele>1582.98</ele>
  <time>2026-08-28T17:54:02Z</time>
  <course>246.99</course>
  <speed>0.022360679774997897</speed>
  <fix>3d</fix>
</trkpt>
<trkpt lat="40.0713749" lon="-105.229789">
  <ele>1583.0</ele>
  <time>2026-08-28T17:54:02Z</time>
  <course>0.0</course>
  <speed>0.0</speed>
  <fix>3d</fix>
</trkpt>
<trkpt lat="40.0713751" lon="-105.2297889">
  <ele>1582.98</ele>
  <time>2026-08-28T17:54:02Z</time>
  <course>246.99</course>
  <speed>0.022360679774997897</speed>
  <fix>3d</fix>
</trkpt>
<trkpt lat="40.0713749" lon="-105.229789">
  <ele>1583.0</ele>
  <time>2026-08-28T17:54:02Z</time>
  <course>0.0</course>
  <speed>0.0</speed>
  <fix>3d</fix>
</trkpt>
<trkpt lat="40.071375" lon="-105.2297889">
  <ele>1582.99</ele>
  <time>2026-08-28T17:54:02Z</time>
  <course>246.99</course>
  <speed>0.02</speed>
  <fix>3d</fix>
</trkpt>
<trkpt lat="40.0713749" lon="-105.229789">
  <ele>1583.0</ele>
  <time>2026-08-28T17:54:02Z</time>
  <course>0.0</course>
  <speed>0.0</speed>
  <fix>3d</fix>
</trkpt>
<trkpt lat="40.0713751" lon="-105.2297889">
  <ele>1582.99</ele>
  <time>2026-08-28T17:54:02Z</time>
  <course>246.99</course>
  <speed>0.022360679774997897</speed>
  <fix>3d</fix>
</trkpt>
<trkpt lat="40.0713749" lon="-105.229789">
  <ele>1583.0</ele>
  <time>2026-08-28T17:54:02Z</time>
  <course>0.0</course>
  <speed>0.0</speed>
  <fix>3d</fix>
</trkpt>
<trkpt lat="40.071375" lon="-105.2297889">
  <ele>1582.99</ele>
  <time>2026-08-28T17:54:02Z</time>
  <course>246.99</course>
  <speed>0.02</speed>
  <fix>3d</fix>
</trkpt>
<trkpt lat="40.0713749" lon="-105.229789">
  <ele>1583.0</ele>
  <time>2026-08-28T17:54:02Z</time>
  <course>0.0</course>
  <speed>0.0</speed>
  <fix>3d</fix>
</trkpt>
<trkpt lat="40.0713751" lon="-105.2297889">
  <ele>1582.99</ele>
  <time>2026-08-28T17:54:02Z</time>
  <course>246.99</course>
  <speed>0.022360679774997897</speed>
  <fix>3d</fix>
</trkpt>
<trkpt lat="40.0713749" lon="-105.229789">
  <ele>1583.0</ele>
  <time>2026-08-28T17:54:02Z</time>
  <course>0.0</course>
  <speed>0.0</speed>
  <fix>3d</fix>
</trkpt>
<trkpt lat="40.071375" lon="-105.2297889">
  <ele>1582.99</ele>
  <time>2026-08-28T17:54:02Z</time>
  <course>246.99</course>
  <speed>0.02</speed>
  <fix>3d</fix>
</trkpt>
<trkpt lat="40.0713749" lon="-105.229789">
  <ele>1583.0</ele>
  <time>2026-08-28T17:54:02Z</time>
  <course>0.0</course>
  <speed>0.0</speed>
  <fix>3d</fix>
</trkpt>
<trkpt lat="40.0713751" lon="-105.2297889">
  <ele>1582.99</ele>
  <time>2026-08-28T17:54:02Z</time>
  <course>246.99</course>
  <speed>0.022360679774997897</speed>
  <fix>3d</fix>
</trkpt>
<trkpt lat="40.0713749" lon="-105.229789">
  <ele>1583.0</ele>
  <time>2026-08-28T17:54:02Z</time>
  <course>0.0</course>
  <speed>0.0</speed>
  <fix>3d</fix>
</trkpt>
<trkpt lat="40.0713751" lon="-105.2297889">
  <ele>1582.99</ele>
  <time>2026-08-28T17:54:02Z</time>
  <course>246.99</course>
  <speed>0.02</speed>
  <fix>3d</fix>
</trkpt>
<trkpt lat="40.0713749" lon="-105.229789">
  <ele>1583.0</ele>
  <time>2026-08-28T17:54:02Z</time>
  <course>0.0</course>
  <speed>0.0</speed>
  <fix>3d</fix>
</trkpt>
<trkpt lat="40.0713751" lon="-105.2297889">
  <ele>1582.99</ele>
  <time>2026-08-28T17:54:02Z</time>
  <course>246.99</course>
  <speed>0.022360679774997897</speed>
  <fix>3d</fix>
</trkpt>
<trkpt lat="40.0713749" lon="-105.229789">
  <ele>1583.0</ele>
  <time>2026-08-28T17:54:02Z</time>
  <course>0.0</course>
  <speed>0.0</speed>
  <fix>3d</fix>
</trkpt>
<trkpt lat="40.0713751" lon="-105.2297889">
  <ele>1582.99</ele>
  <time>2026-08-28T17:54:02Z</time>
  <course>246.99</course>
  <speed>0.02</speed>
  <fix>3d</fix>
</trkpt>
<trkpt lat="40.0713749" lon="-105.229789">
  <ele>1583.0</ele>
  <time>2026-08-28T17:54:02Z</time>
  <course>0.0</course>
  <speed>0.0</speed>
  <fix>3d</fix>
</trkpt>
<trkpt lat="40.0713751" lon="-105.2297889">
  <ele>1582.99</ele>
  <time>2026-08-28T17:54:02Z</time>
  <course>246.99</course>
  <speed>0.022360679774997897</speed>
  <fix>3d</fix>
</trkpt>
<trkpt lat="40.0713749" lon="-105.229789">
  <ele>1583.0</ele>
  <time>2026-08-28T17:54:02Z</time>
  <course>0.0</course>
  <speed>0.0</speed>
  <fix>3d</fix>
</trkpt>
<trkpt lat="40.0713751" lon="-105.2297889">
  <ele>1582.99</ele>
  <time>2026-08-28T17:54:02Z</time>
  <course>246.99</course>
  <speed>0.022360679774997897</speed>
  <fix>3d</fix>
</trkpt>
<trkpt lat="40.0713749" lon="-105.229789">
  <ele>1583.0</ele>
  <time>2026-08-28T17:54:02Z</time>
  <course>0.0</course>
  <speed>0.0</speed>
  <fix>3d</fix>
</trkpt>
<trkpt lat="40.0713751" lon="-105.2297889">
  <ele>1582.99</ele>
  <time>2026-08-28T17:54:02Z</time>
  <course>246.99</course>
  <speed>0.022360679774997897</speed>
  <fix>3d</fix>
</trkpt>
<trkpt lat="40.0713749" lon="-105.229789">
  <ele>1583.0</ele>
  <time>2026-08-28T17:54:02Z</time>
  <course>0.0</course>
  <speed>0.0</speed>
  <fix>3d</fix>
</trkpt>
<trkpt lat="40.0713751" lon="-105.2297889">
  <ele>1582.99</ele>
  <time>2026-08-28T17:54:02Z</time>
  <course>246.99</course>
  <speed>0.022360679774997897</speed>
  <fix>3d</fix>
</trkpt>
<trkpt lat="40.0713749" lon="-105.229789">
  <ele>1583.0</ele>
  <time>2026-08-28T17:54:02Z</time>
  <course>0.0</course>
  <speed>0.0</speed>
  <fix>3d</fix>
</trkpt>
<trkpt lat="40.0713751" lon="-105.2297889">
  <ele>1582.99</ele>
  <time>2026-08-28T17:54:02Z</time>
  <course>246.99</course>
  <speed>0.022360679774997897</speed>
  <fix>3d</fix>
</trkpt>
<trkpt lat="40.0713749" lon="-105.229789">
  <ele>1583.0</ele>
  <time>2026-08-28T17:54:02Z</time>
  <course>0.0</course>
  <speed>0.0</speed>
  <fix>3d</fix>
</trkpt>
<trkpt lat="40.0713751" lon="-105.2297889">
  <ele>1582.99</ele>
  <time>2026-08-28T17:54:02Z</time>
  <course>246.99</course>
  <speed>0.022360679774997897</speed>
  <fix>3d</fix>
</trkpt>
<trkpt lat="40.0713749" lon="-105.229789">
  <ele>1583.0</ele>
  <time>2026-08-28T17:54:02Z</time>
  <course>0.0</course>
  <speed>0.0</speed>
  <fix>3d</fix>
</trkpt>
<trkpt lat="40.0713751" lon="-105.2297889">
  <ele>1582.99</ele>
  <time>2026-08-28T17:54:02Z</time>
  <course>246.99</course>
  <speed>0.022360679774997897</speed>
  <fix>3d</fix>
</trkpt>
<trkpt lat="40.0713749" lon="-105.229789">
  <ele>1583.0</ele>
  <time>2026-08-28T17:54:02Z</time>
  <course>0.0</course>
  <speed>0.0</speed>
  <fix>3d</fix>
</trkpt>
<trkpt lat="40.0713751" lon="-105.2297889">
  <ele>1583.0</ele>
  <time>2026-08-28T17:54:02Z</time>
  <course>246.99</course>
  <speed>0.022360679774997897</speed>
  <fix>3d</fix>
</trkpt>
<trkpt lat="40.0713749" lon="-105.229789">
  <ele>1583.0</ele>
  <time>2026-08-28T17:54:02Z</time>
  <course>0.0</course>
  <speed>0.0</speed>
  <fix>3d</fix>
</trkpt>
<trkpt lat="40.0713751" lon="-105.2297889">
  <ele>1583.0</ele>
  <time>2026-08-28T17:54:02Z</time>
  <course>246.99</course>
  <speed>0.022360679774997897</speed>
  <fix>3d</fix>
</trkpt>
<trkpt lat="40.0713749" lon="-105.229789">
  <ele>1583.0</ele>
  <time>2026-08-28T17:54:02Z</time>
  <course>0.0</course>
  <speed>0.0</speed>
  <fix>3d</fix>
</trkpt>
<trkpt lat="40.071375" lon="-105.2297889">
  <ele>1583.0</ele>
  <time>2026-08-28T17:54:02Z</time>
  <course>246.99</course>
  <speed>0.02</speed>
  <fix>3d</fix>
</trkpt>
<trkpt lat="40.0713749" lon="-105.229789">
  <ele>1583.0</ele>
  <time>2026-08-28T17:54:02Z</time>
  <course>0.0</course>
  <speed>0.0</speed>
  <fix>3d</fix>
</trkpt>
<trkpt lat="40.0713751" lon="-105.2297889">
  <ele>1583.0</ele>
  <time>2026-08-28T17:54:02Z</time>
  <course>246.99</course>
  <speed>0.022360679774997897</speed>
  <fix>3d</fix>
</trkpt>
<trkpt lat="40.0713749" lon="-105.229789">
  <ele>1583.0</ele>
  <time>2026-08-28T17:54:02Z</time>
  <course>0.0</course>
  <speed>0.0</speed>
  <fix>3d</fix>
</trkpt>
<trkpt lat="40.071375" lon="-105.2297889">
  <ele>1583.0</ele>
  <time>2026-08-28T17:54:02Z</time>
  <course>246.99</course>
  <speed>0.02</speed>
  <fix>3d</fix>
</trkpt>
<trkpt lat="40.0713749" lon="-105.229789">
  <ele>1583.0</ele>
  <time>2026-08-28T17:54:02Z</time>
  <course>0.0</course>
  <speed>0.0</speed>
  <fix>3d</fix>
</trkpt>
<trkpt lat="40.0713751" lon="-105.2297889">
  <ele>1583.0</ele>
  <time>2026-08-28T17:54:02Z</time>
  <course>246.99</course>
  <speed>0.02</speed>
  <fix>3d</fix>
</trkpt>
<trkpt lat="40.0713749" lon="-105.229789">
  <ele>1583.0</ele>
  <time>2026-08-28T17:54:02Z</time>
  <course>0.0</course>
  <speed>0.0</speed>
  <fix>3d</fix>
</trkpt>
<trkpt lat="40.071375" lon="-105.2297889">
  <ele>1583.01</ele>
  <time>2026-08-28T17:54:02Z</time>
  <course>246.99</course>
  <speed>0.02</speed>
  <fix>3d</fix>
</trkpt>
<trkpt lat="40.0713749" lon="-105.229789">
  <ele>1583.0</ele>
  <time>2026-08-28T17:54:02Z</time>
  <course>0.0</course>
  <speed>0.0</speed>
  <fix>3d</fix>
</trkpt>
<trkpt lat="40.0713751" lon="-105.2297889">
  <ele>1583.01</ele>
  <time>2026-08-28T17:54:02Z</time>
  <course>246.99</course>
  <speed>0.022360679774997897</speed>
  <fix>3d</fix>
</trkpt>
<trkpt lat="40.0713749" lon="-105.229789">
  <ele>1583.0</ele>
  <time>2026-08-28T17:54:02Z</time>
  <course>0.0</course>
  <speed>0.0</speed>
  <fix>3d</fix>
</trkpt>
<trkpt lat="40.0713751" lon="-105.2297889">
  <ele>1583.01</ele>
  <time>2026-08-28T17:54:02Z</time>
  <course>246.99</course>
  <speed>0.02</speed>
  <fix>3d</fix>
</trkpt>
<trkpt lat="40.0713749" lon="-105.229789">
  <ele>1583.0</ele>
  <time>2026-08-28T17:54:02Z</time>
  <course>0.0</course>
  <speed>0.0</speed>
  <fix>3d</fix>
</trkpt>
<trkpt lat="40.0713751" lon="-105.2297889">
  <ele>1583.01</ele>
  <time>2026-08-28T17:54:02Z</time>
  <course>246.99</course>
  <speed>0.022360679774997897</speed>
  <fix>3d</fix>
</trkpt>
<trkpt lat="40.0713749" lon="-105.229789">
  <ele>1583.0</ele>
  <time>2026-08-28T17:54:02Z</time>
  <course>0.0</course>
  <speed>0.0</speed>
  <fix>3d</fix>
</trkpt>
<trkpt lat="40.0713751" lon="-105.2297889">
  <ele>1583.01</ele>
  <time>2026-08-28T17:54:02Z</time>
  <course>246.99</course>
  <speed>0.02</speed>
  <fix>3d</fix>
</trkpt>
<trkpt lat="40.0713749" lon="-105.229789">
  <ele>1583.0</ele>
  <time>2026-08-28T17:54:02Z</time>
  <course>0.0</course>
  <speed>0.0</speed>
  <fix>3d</fix>
</trkpt>
<trkpt lat="40.0713751" lon="-105.2297889">
  <ele>1583.02</ele>
  <time>2026-08-28T17:54:02Z</time>
  <course>246.99</course>
  <speed>0.022360679774997897</speed>
  <fix>3d</fix>
</trkpt>
<trkpt lat="40.0713749" lon="-105.229789">
  <ele>1583.0</ele>
  <time>2026-08-28T17:54:02Z</time>
  <course>0.0</course>
  <speed>0.0</speed>
  <fix>3d</fix>
</trkpt>
<trkpt lat="40.0713751" lon="-105.2297889">
  <ele>1583.01</ele>
  <time>2026-08-28T17:54:02Z</time>
  <course>246.99</course>
  <speed>0.02</speed>
  <fix>3d</fix>
</trkpt>
<trkpt lat="40.0713749" lon="-105.229789">
  <ele>1583.0</ele>
  <time>2026-08-28T17:54:02Z</time>
  <course>0.0</course>
  <speed>0.0</speed>
  <fix>3d</fix>
</trkpt>
<trkpt lat="40.0713751" lon="-105.2297889">
  <ele>1583.01</ele>
  <time>2026-08-28T17:54:02Z</time>
  <course>246.99</course>
  <speed>0.022360679774997897</speed>
  <fix>3d</fix>
</trkpt>
<trkpt lat="40.0713749" lon="-105.229789">
  <ele>1583.0</ele>
  <time>2026-08-28T17:54:02Z</time>
  <course>0.0</course>
  <speed>0.0</speed>
  <fix>3d</fix>
</trkpt>
<trkpt lat="40.0713751" lon="-105.2297889">
  <ele>1583.02</ele>
  <time>2026-08-28T17:54:02Z</time>
  <course>246.99</course>
  <speed>0.02</speed>
  <fix>3d</fix>
</trkpt>
<trkpt lat="40.0713749" lon="-105.229789">
  <ele>1583.0</ele>
  <time>2026-08-28T17:54:02Z</time>
  <course>0.0</course>
  <speed>0.0</speed>
  <fix>3d</fix>
</trkpt>
<trkpt lat="40.0713751" lon="-105.2297889">
  <ele>1583.02</ele>
  <time>2026-08-28T17:54:02Z</time>
  <course>246.99</course>
  <speed>0.022360679774997897</speed>
  <fix>3d</fix>
</trkpt>
<trkpt lat="40.0713749" lon="-105.229789">
  <ele>1583.0</ele>
  <time>2026-08-28T17:54:02Z</time>
  <course>0.0</course>
  <speed>0.0</speed>
  <fix>3d</fix>
</trkpt>
<trkpt lat="40.0713751" lon="-105.2297889">
  <ele>1583.02</ele>
  <time>2026-08-28T17:54:02Z</time>
  <course>246.99</course>
  <speed>0.02</speed>
  <fix>3d</fix>
</trkpt>
<trkpt lat="40.0713749" lon="-105.229789">
  <ele>1583.0</ele>
  <time>2026-08-28T17:54:02Z</time>
  <course>0.0</course>
  <speed>0.0</speed>
  <fix>3d</fix>
</trkpt>
<trkpt lat="40.0713751" lon="-105.2297889">
  <ele>1583.02</ele>
  <time>2026-08-28T17:54:02Z</time>
  <course>246.99</course>
  <speed>0.022360679774997897</speed>
  <fix>3d</fix>
</trkpt>
<trkpt lat="40.0713749" lon="-105.229789">
  <ele>1583.0</ele>
  <time>2026-08-28T17:54:02Z</time>
  <course>0.0</course>
  <speed>0.0</speed>
  <fix>3d</fix>
</trkpt>
<trkpt lat="40.0713751" lon="-105.2297889">
  <ele>1583.03</ele>
  <time>2026-08-28T17:54:02Z</time>
  <course>246.99</course>
  <speed>0.02</speed>
  <fix>3d</fix>
</trkpt>
<trkpt lat="40.0713749" lon="-105.229789">
  <ele>1583.0</ele>
  <time>2026-08-28T17:54:02Z</time>
  <course>0.0</course>
  <speed>0.0</speed>
  <fix>3d</fix>
</trkpt>
<trkpt lat="40.0713751" lon="-105.2297889">
  <ele>1583.03</ele>
  <time>2026-08-28T17:54:02Z</time>
  <course>246.99</course>
  <speed>0.022360679774997897</speed>
  <fix>3d</fix>
</trkpt>
<trkpt lat="40.0713749" lon="-105.229789">
  <ele>1583.0</ele>
  <time>2026-08-28T17:54:02Z</time>
  <course>0.0</course>
  <speed>0.0</speed>
  <fix>3d</fix>
</trkpt>
<trkpt lat="40.0713751" lon="-105.2297889">
  <ele>1583.03</ele>
  <time>2026-08-28T17:54:02Z</time>
  <course>246.99</course>
  <speed>0.02</speed>
  <fix>3d</fix>
</trkpt>
<trkpt lat="40.0713749" lon="-105.229789">
  <ele>1583.0</ele>
  <time>2026-08-28T17:54:02Z</time>
  <course>0.0</course>
  <speed>0.0</speed>
  <fix>3d</fix>
</trkpt>
<trkpt lat="40.0713751" lon="-105.2297889">
  <ele>1583.03</ele>
  <time>2026-08-28T17:54:02Z</time>
  <course>246.99</course>
  <speed>0.02</speed>
  <fix>3d</fix>
</trkpt>
<trkpt lat="40.0713749" lon="-105.229789">
  <ele>1583.0</ele>
  <time>2026-08-28T17:54:02Z</time>
  <course>0.0</course>
  <speed>0.0</speed>
  <fix>3d</fix>
</trkpt>
<trkpt lat="40.0713751" lon="-105.2297889">
  <ele>1583.03</ele>
  <time>2026-08-28T17:54:02Z</time>
  <course>246.99</course>
  <speed>0.02</speed>
  <fix>3d</fix>
</trkpt>
<trkpt lat="40.0713749" lon="-105.229789">
  <ele>1583.0</ele>
  <time>2026-08-28T17:54:02Z</time>
  <course>0.0</course>
  <speed>0.0</speed>
  <fix>3d</fix>
</trkpt>
<trkpt lat="40.0713751" lon="-105.2297889">
  <ele>1583.03</ele>
  <time>2026-08-28T17:54:02Z</time>
  <course>246.98</course>
  <speed>0.02</speed>
  <fix>3d</fix>
</trkpt>
<trkpt lat="40.0713749" lon="-105.229789">
  <ele>1583.0</ele>
  <time>2026-08-28T17:54:02Z</time>
  <course>0.0</course>
  <speed>0.0</speed>
  <fix>3d</fix>
</trkpt>
<trkpt lat="40.071375" lon="-105.2297889">
  <ele>1583.03</ele>
  <time>2026-08-28T17:54:02Z</time>
  <course>246.98</course>
  <speed>0.02</speed>
  <fix>3d</fix>
</trkpt>
<trkpt lat="40.0713749" lon="-105.229789">
  <ele>1583.0</ele>
  <time>2026-08-28T17:54:02Z</time>
  <course>0.0</course>
  <speed>0.0</speed>
  <fix>3d</fix>
</trkpt>
<trkpt lat="40.0713751" lon="-105.2297889">
  <ele>1583.03</ele>
  <time>2026-08-28T17:54:02Z</time>
  <course>246.98</course>
  <speed>0.02</speed>
  <fix>3d</fix>
</trkpt>
<trkpt lat="40.0713749" lon="-105.229789">
  <ele>1583.0</ele>
  <time>2026-08-28T17:54:02Z</time>
  <course>0.0</course>
  <speed>0.0</speed>
  <fix>3d</fix>
</trkpt>
<trkpt lat="40.071375" lon="-105.2297889">
  <ele>1583.03</ele>
  <time>2026-08-28T17:54:02Z</time>
  <course>246.98</course>
  <speed>0.02</speed>
  <fix>3d</fix>
</trkpt>
<trkpt lat="40.0713749" lon="-105.229789">
  <ele>1583.0</ele>
  <time>2026-08-28T17:54:02Z</time>
  <course>0.0</course>
  <speed>0.0</speed>
  <fix>3d</fix>
</trkpt>
<trkpt lat="40.0713751" lon="-105.2297889">
  <ele>1583.03</ele>
  <time>2026-08-28T17:54:02Z</time>
  <course>246.98</course>
  <speed>0.02</speed>
  <fix>3d</fix>
</trkpt>
<trkpt lat="40.0713749" lon="-105.229789">
  <ele>1583.0</ele>
  <time>2026-08-28T17:54:02Z</time>
  <course>0.0</course>
  <speed>0.0</speed>
  <fix>3d</fix>
</trkpt>
<trkpt lat="40.0713751" lon="-105.2297889">
  <ele>1583.03</ele>
  <time>2026-08-28T17:54:02Z</time>
  <course>246.98</course>
  <speed>0.02</speed>
  <fix>3d</fix>
</trkpt>
<trkpt lat="40.0713749" lon="-105.229789">
  <ele>1583.0</ele>
  <time>2026-08-28T17:54:02Z</time>
  <course>0.0</course>
  <speed>0.0</speed>
  <fix>3d</fix>
</trkpt>
<trkpt lat="40.0713751" lon="-105.2297889">
  <ele>1583.03</ele>
  <time>2026-08-28T17:54:02Z</time>
  <course>246.98</course>
  <speed>0.02</speed>
  <fix>3d</fix>
</trkpt>
<trkpt lat="40.0713749" lon="-105.229789">
  <ele>1583.0</ele>
  <time>2026-08-28T17:54:02Z</time>
  <course>0.0</course>
  <speed>0.0</speed>
  <fix>3d</fix>
</trkpt>
<trkpt lat="40.0713751" lon="-105.2297889">
  <ele>1583.03</ele>
  <time>2026-08-28T17:54:02Z</time>
  <course>246.98</course>
  <speed>0.02</speed>
  <fix>3d</fix>
</trkpt>
<trkpt lat="40.0713749" lon="-105.229789">
  <ele>1583.0</ele>
  <time>2026-08-28T17:54:02Z</time>
  <course>0.0</course>
  <speed>0.0</speed>
  <fix>3d</fix>
</trkpt>
<trkpt lat="40.0713751" lon="-105.2297889">
  <ele>1583.03</ele>
  <time>2026-08-28T17:54:02Z</time>
  <course>246.98</course>
  <speed>0.02</speed>
  <fix>3d</fix>
</trkpt>
<trkpt lat="40.0713749" lon="-105.229789">
  <ele>1583.0</ele>
  <time>2026-08-28T17:54:02Z</time>
  <course>0.0</course>
  <speed>0.0</speed>
  <fix>3d</fix>
</trkpt>
<trkpt lat="40.0713751" lon="-105.2297889">
  <ele>1583.03</ele>
  <time>2026-08-28T17:54:02Z</time>
  <course>246.98</course>
  <speed>0.02</speed>
  <fix>3d</fix>
</trkpt>
<trkpt lat="40.0713749" lon="-105.229789">
  <ele>1583.0</ele>
  <time>2026-08-28T17:54:02Z</time>
  <course>0.0</course>
  <speed>0.0</speed>
  <fix>3d</fix>
</trkpt>
<trkpt lat="40.0713751" lon="-105.2297889">
  <ele>1583.03</ele>
  <time>2026-08-28T17:54:02Z</time>
  <course>246.98</course>
  <speed>0.02</speed>
  <fix>3d</fix>
</trkpt>
<trkpt lat="40.0713749" lon="-105.229789">
  <ele>1583.0</ele>
  <time>2026-08-28T17:54:02Z</time>
  <course>0.0</course>
  <speed>0.0</speed>
  <fix>3d</fix>
</trkpt>
<trkpt lat="40.0713751" lon="-105.2297889">
  <ele>1583.03</ele>
  <time>2026-08-28T17:54:02Z</time>
  <course>246.98</course>
  <speed>0.02</speed>
  <fix>3d</fix>
</trkpt>
<trkpt lat="40.0713749" lon="-105.229789">
  <ele>1583.0</ele>
  <time>2026-08-28T17:54:02Z</time>
  <course>0.0</course>
  <speed>0.0</speed>
  <fix>3d</fix>
</trkpt>
<trkpt lat="40.0713751" lon="-105.2297889">
  <ele>1583.03</ele>
  <time>2026-08-28T17:54:02Z</time>
  <course>246.98</course>
  <speed>0.022360679774997897</speed>
  <fix>3d</fix>
</trkpt>
<trkpt lat="40.0713749" lon="-105.229789">
  <ele>1583.0</ele>
  <time>2026-08-28T17:54:02Z</time>
  <course>0.0</course>
  <speed>0.0</speed>
  <fix>3d</fix>
</trkpt>
<trkpt lat="40.0713751" lon="-105.2297889">
  <ele>1583.03</ele>
  <time>2026-08-28T17:54:02Z</time>
  <course>246.98</course>
  <speed>0.02</speed>
  <fix>3d</fix>
</trkpt>
<trkpt lat="40.0713749" lon="-105.229789">
  <ele>1583.0</ele>
  <time>2026-08-28T17:54:02Z</time>
  <course>0.0</course>
  <speed>0.0</speed>
  <fix>3d</fix>
</trkpt>
<trkpt lat="40.0713751" lon="-105.2297889">
  <ele>1583.03</ele>
  <time>2026-08-28T17:54:02Z</time>
  <course>246.98</course>
  <speed>0.022360679774997897</speed>
  <fix>3d</fix>
</trkpt>
<trkpt lat="40.0713749" lon="-105.229789">
  <ele>1583.0</ele>
  <time>2026-08-28T17:54:02Z</time>
  <course>0.0</course>
  <speed>0.0</speed>
  <fix>3d</fix>
</trkpt>
<trkpt lat="40.0713751" lon="-105.2297889">
  <ele>1583.02</ele>
  <time>2026-08-28T17:54:02Z</time>
  <course>246.98</course>
  <speed>0.022360679774997897</speed>
  <fix>3d</fix>
</trkpt>
<trkpt lat="40.0713749" lon="-105.229789">
  <ele>1583.0</ele>
  <time>2026-08-28T17:54:02Z</time>
  <course>0.0</course>
  <speed>0.0</speed>
  <fix>3d</fix>
</trkpt>
<trkpt lat="40.0713751" lon="-105.2297889">
  <ele>1583.02</ele>
  <time>2026-08-28T17:54:02Z</time>
  <course>246.98</course>
  <speed>0.022360679774997897</speed>
  <fix>3d</fix>
</trkpt>
<trkpt lat="40.0713749" lon="-105.229789">
  <ele>1583.0</ele>
  <time>2026-08-28T17:54:02Z</time>
  <course>0.0</course>
  <speed>0.0</speed>
  <fix>3d</fix>
</trkpt>
<trkpt lat="40.0713751" lon="-105.2297889">
  <ele>1583.02</ele>
  <time>2026-08-28T17:54:02Z</time>
  <course>246.98</course>
  <speed>0.022360679774997897</speed>
  <fix>3d</fix>
</trkpt>
<trkpt lat="40.0713749" lon="-105.229789">
  <ele>1583.0</ele>
  <time>2026-08-28T17:54:02Z</time>
  <course>0.0</course>
  <speed>0.0</speed>
  <fix>3d</fix>
</trkpt>
<trkpt lat="40.0713751" lon="-105.2297889">
  <ele>1583.02</ele>
  <time>2026-08-28T17:54:02Z</time>
  <course>246.98</course>
  <speed>0.022360679774997897</speed>
  <fix>3d</fix>
</trkpt>
<trkpt lat="40.0713749" lon="-105.229789">
  <ele>1583.0</ele>
  <time>2026-08-28T17:54:02Z</time>
  <course>0.0</course>
  <speed>0.0</speed>
  <fix>3d</fix>
</trkpt>
<trkpt lat="40.0713751" lon="-105.2297889">
  <ele>1583.02</ele>
  <time>2026-08-28T17:54:02Z</time>
  <course>246.98</course>
  <speed>0.02</speed>
  <fix>3d</fix>
</trkpt>
<trkpt lat="40.0713749" lon="-105.229789">
  <ele>1583.0</ele>
  <time>2026-08-28T17:54:02Z</time>
  <course>0.0</course>
  <speed>0.0</speed>
  <fix>3d</fix>
</trkpt>
<trkpt lat="40.0713751" lon="-105.2297889">
  <ele>1583.02</ele>
  <time>2026-08-28T17:54:02Z</time>
  <course>246.98</course>
  <speed>0.022360679774997897</speed>
  <fix>3d</fix>
</trkpt>
<trkpt lat="40.0713749" lon="-105.229789">
  <ele>1583.0</ele>
  <time>2026-08-28T17:54:02Z</time>
  <course>0.0</course>
  <speed>0.0</speed>
  <fix>3d</fix>
</trkpt>
<trkpt lat="40.0713751" lon="-105.2297889">
  <ele>1583.02</ele>
  <time>2026-08-28T17:54:02Z</time>
  <course>246.98</course>
  <speed>0.02</speed>
  <fix>3d</fix>
</trkpt>
<trkpt lat="40.0713749" lon="-105.229789">
  <ele>1583.0</ele>
  <time>2026-08-28T17:54:02Z</time>
  <course>0.0</course>
  <speed>0.0</speed>
  <fix>3d</fix>
</trkpt>
<trkpt lat="40.0713751" lon="-105.2297889">
  <ele>1583.02</ele>
  <time>2026-08-28T17:54:02Z</time>
  <course>246.98</course>
  <speed>0.022360679774997897</speed>
  <fix>3d</fix>
</trkpt>
<trkpt lat="40.0713749" lon="-105.229789">
  <ele>1583.0</ele>
  <time>2026-08-28T17:54:02Z</time>
  <course>0.0</course>
  <speed>0.0</speed>
  <fix>3d</fix>
</trkpt>
<trkpt lat="40.0713751" lon="-105.2297889">
  <ele>1583.02</ele>
  <time>2026-08-28T17:54:02Z</time>
  <course>246.98</course>
  <speed>0.02</speed>
  <fix>3d</fix>
</trkpt>
<trkpt lat="40.0713749" lon="-105.229789">
  <ele>1583.0</ele>
  <time>2026-08-28T17:54:02Z</time>
  <course>0.0</course>
  <speed>0.0</speed>
  <fix>3d</fix>
</trkpt>
<trkpt lat="40.0713751" lon="-105.2297889">
  <ele>1583.02</ele>
  <time>2026-08-28T17:54:02Z</time>
  <course>246.98</course>
  <speed>0.022360679774997897</speed>
  <fix>3d</fix>
</trkpt>
<trkpt lat="40.0713749" lon="-105.229789">
  <ele>1583.0</ele>
  <time>2026-08-28T17:54:02Z</time>
  <course>0.0</course>
  <speed>0.0</speed>
  <fix>3d</fix>
</trkpt>
<trkpt lat="40.0713751" lon="-105.2297889">
  <ele>1583.02</ele>
  <time>2026-08-28T17:54:02Z</time>
  <course>246.98</course>
  <speed>0.02</speed>
  <fix>3d</fix>
</trkpt>
<trkpt lat="40.0713749" lon="-105.229789">
  <ele>1583.0</ele>
  <time>2026-08-28T17:54:02Z</time>
  <course>0.0</course>
  <speed>0.0</speed>
  <fix>3d</fix>
</trkpt>
<trkpt lat="40.0713751" lon="-105.2297889">
  <ele>1583.02</ele>
  <time>2026-08-28T17:54:02Z</time>
  <course>246.98</course>
  <speed>0.022360679774997897</speed>
  <fix>3d</fix>
</trkpt>
<trkpt lat="40.0713749" lon="-105.229789">
  <ele>1583.0</ele>
  <time>2026-08-28T17:54:02Z</time>
  <course>0.0</course>
  <speed>0.0</speed>
  <fix>3d</fix>
</trkpt>
<trkpt lat="40.0713751" lon="-105.2297889">
  <ele>1583.02</ele>
  <time>2026-08-28T17:54:02Z</time>
  <course>246.98</course>
  <speed>0.02</speed>
  <fix>3d</fix>
</trkpt>
<trkpt lat="40.0713749" lon="-105.229789">
  <ele>1583.0</ele>
  <time>2026-08-28T17:54:02Z</time>
  <course>0.0</course>
  <speed>0.0</speed>
  <fix>3d</fix>
</trkpt>
<trkpt lat="40.0713751" lon="-105.2297889">
  <ele>1583.02</ele>
  <time>2026-08-28T17:54:02Z</time>
  <course>246.98</course>
  <speed>0.022360679774997897</speed>
  <fix>3d</fix>
</trkpt>
<trkpt lat="40.0713749" lon="-105.229789">
  <ele>1583.0</ele>
  <time>2026-08-28T17:54:02Z</time>
  <course>0.0</course>
  <speed>0.0</speed>
  <fix>3d</fix>
</trkpt>
<trkpt lat="40.0713751" lon="-105.2297889">
  <ele>1583.02</ele>
  <time>2026-08-28T17:54:02Z</time>
  <course>246.98</course>
  <speed>0.022360679774997897</speed>
  <fix>3d</fix>
</trkpt>
<trkpt lat="40.0713749" lon="-105.229789">
  <ele>1583.0</ele>
  <time>2026-08-28T17:54:02Z</time>
  <course>0.0</course>
  <speed>0.0</speed>
  <fix>3d</fix>
</trkpt>
<trkpt lat="40.0713751" lon="-105.2297889">
  <ele>1583.02</ele>
  <time>2026-08-28T17:54:02Z</time>
  <course>246.98</course>
  <speed>0.022360679774997897</speed>
  <fix>3d</fix>
</trkpt>
<trkpt lat="40.0713749" lon="-105.229789">
  <ele>1583.0</ele>
  <time>2026-08-28T17:54:02Z</time>
  <course>0.0</course>
  <speed>0.0</speed>
  <fix>3d</fix>
</trkpt>
<trkpt lat="40.0713751" lon="-105.2297889">
  <ele>1583.02</ele>
  <time>2026-08-28T17:54:02Z</time>
  <course>246.98</course>
  <speed>0.022360679774997897</speed>
  <fix>3d</fix>
</trkpt>
<trkpt lat="40.0713749" lon="-105.229789">
  <ele>1583.0</ele>
  <time>2026-08-28T17:54:02Z</time>
  <course>0.0</course>
  <speed>0.0</speed>
  <fix>3d</fix>
</trkpt>
<trkpt lat="40.0713751" lon="-105.2297889">
  <ele>1583.02</ele>
  <time>2026-08-28T17:54:02Z</time>
  <course>246.98</course>
  <speed>0.022360679774997897</speed>
  <fix>3d</fix>
</trkpt>
<trkpt lat="40.0713749" lon="-105.229789">
  <ele>1583.0</ele>
  <time>2026-08-28T17:54:02Z</time>
  <course>0.0</course>
  <speed>0.0</speed>
  <fix>3d</fix>
</trkpt>
<trkpt lat="40.0713751" lon="-105.2297889">
  <ele>1583.02</ele>
  <time>2026-08-28T17:54:02Z</time>
  <course>246.98</course>
  <speed>0.022360679774997897</speed>
  <fix>3d</fix>
</trkpt>
<trkpt lat="40.0713749" lon="-105.229789">
  <ele>1583.0</ele>
  <time>2026-08-28T17:54:02Z</time>
  <course>0.0</course>
  <speed>0.0</speed>
  <fix>3d</fix>
</trkpt>
<trkpt lat="40.0713751" lon="-105.2297889">
  <ele>1583.01</ele>
  <time>2026-08-28T17:54:02Z</time>
  <course>246.98</course>
  <speed>0.022360679774997897</speed>
  <fix>3d</fix>
</trkpt>
<trkpt lat="40.0713749" lon="-105.229789">
  <ele>1583.0</ele>
  <time>2026-08-28T17:54:02Z</time>
  <course>0.0</course>
  <speed>0.0</speed>
  <fix>3d</fix>
</trkpt>
<trkpt lat="40.0713751" lon="-105.2297889">
  <ele>1583.02</ele>
  <time>2026-08-28T17:54:02Z</time>
  <course>246.98</course>
  <speed>0.022360679774997897</speed>
  <fix>3d</fix>
</trkpt>
<trkpt lat="40.0713749" lon="-105.229789">
  <ele>1583.0</ele>
  <time>2026-08-28T17:54:02Z</time>
  <course>0.0</course>
  <speed>0.0</speed>
  <fix>3d</fix>
</trkpt>
<trkpt lat="40.0713751" lon="-105.2297889">
  <ele>1583.02</ele>
  <time>2026-08-28T17:54:02Z</time>
  <course>246.98</course>
  <speed>0.022360679774997897</speed>
  <fix>3d</fix>
</trkpt>
<trkpt lat="40.0713749" lon="-105.229789">
  <ele>1583.0</ele>
  <time>2026-08-28T17:54:02Z</time>
  <course>0.0</course>
  <speed>0.0</speed>
  <fix>3d</fix>
</trkpt>
<trkpt lat="40.0713751" lon="-105.2297889">
  <ele>1583.02</ele>
  <time>2026-08-28T17:54:02Z</time>
  <course>246.98</course>
  <speed>0.022360679774997897</speed>
  <fix>3d</fix>
</trkpt>
<trkpt lat="40.0713749" lon="-105.229789">
  <ele>1583.0</ele>
  <time>2026-08-28T17:54:02Z</time>
  <course>0.0</course>
  <speed>0.0</speed>
  <fix>3d</fix>
</trkpt>
<trkpt lat="40.0713751" lon="-105.2297889">
  <ele>1583.01</ele>
  <time>2026-08-28T17:54:02Z</time>
  <course>246.98</course>
  <speed>0.022360679774997897</speed>
  <fix>3d</fix>
</trkpt>
<trkpt lat="40.0713749" lon="-105.229789">
  <ele>1583.0</ele>
  <time>2026-08-28T17:54:02Z</time>
  <course>0.0</course>
  <speed>0.0</speed>
  <fix>3d</fix>
</trkpt>
<trkpt lat="40.0713751" lon="-105.2297889">
  <ele>1583.01</ele>
  <time>2026-08-28T17:54:02Z</time>
  <course>246.98</course>
  <speed>0.022360679774997897</speed>
  <fix>3d</fix>
</trkpt>
<trkpt lat="40.0713749" lon="-105.229789">
  <ele>1583.0</ele>
  <time>2026-08-28T17:54:02Z</time>
  <course>0.0</course>
  <speed>0.0</speed>
  <fix>3d</fix>
</trkpt>
<trkpt lat="40.0713751" lon="-105.2297889">
  <ele>1583.01</ele>
  <time>2026-08-28T17:54:02Z</time>
  <course>246.98</course>
  <speed>0.022360679774997897</speed>
  <fix>3d</fix>
</trkpt>
<trkpt lat="40.0713749" lon="-105.229789">
  <ele>1583.0</ele>
  <time>2026-08-28T17:54:02Z</time>
  <course>0.0</course>
  <speed>0.0</speed>
  <fix>3d</fix>
</trkpt>
<trkpt lat="40.0713751" lon="-105.2297889">
  <ele>1583.01</ele>
  <time>2026-08-28T17:54:02Z</time>
  <course>246.98</course>
  <speed>0.022360679774997897</speed>
  <fix>3d</fix>
</trkpt>
<trkpt lat="40.0713749" lon="-105.229789">
  <ele>1583.0</ele>
  <time>2026-08-28T17:54:02Z</time>
  <course>0.0</course>
  <speed>0.0</speed>
  <fix>3d</fix>
</trkpt>
<trkpt lat="40.0713751" lon="-105.2297889">
  <ele>1583.01</ele>
  <time>2026-08-28T17:54:02Z</time>
  <course>246.98</course>
  <speed>0.022360679774997897</speed>
  <fix>3d</fix>
</trkpt>
<trkpt lat="40.0713749" lon="-105.229789">
  <ele>1583.0</ele>
  <time>2026-08-28T17:54:02Z</time>
  <course>0.0</course>
  <speed>0.0</speed>
  <fix>3d</fix>
</trkpt>
<trkpt lat="40.071375" lon="-105.2297889">
  <ele>1583.01</ele>
  <time>2026-08-28T17:54:02Z</time>
  <course>246.98</course>
  <speed>0.022360679774997897</speed>
  <fix>3d</fix>
</trkpt>
<trkpt lat="40.0713749" lon="-105.229789">
  <ele>1583.0</ele>
  <time>2026-08-28T17:54:02Z</time>
  <course>0.0</course>
  <speed>0.0</speed>
  <fix>3d</fix>
</trkpt>
<trkpt lat="40.0713751" lon="-105.2297889">
  <ele>1583.01</ele>
  <time>2026-08-28T17:54:02Z</time>
  <course>246.98</course>
  <speed>0.022360679774997897</speed>
  <fix>3d</fix>
</trkpt>
<trkpt lat="40.0713749" lon="-105.229789">
  <ele>1583.0</ele>
  <time>2026-08-28T17:54:02Z</time>
  <course>0.0</course>
  <speed>0.0</speed>
  <fix>3d</fix>
</trkpt>
<trkpt lat="40.071375" lon="-105.2297889">
  <ele>1583.0</ele>
  <time>2026-08-28T17:54:02Z</time>
  <course>246.98</course>
  <speed>0.022360679774997897</speed>
  <fix>3d</fix>
</trkpt>
<trkpt lat="40.0713749" lon="-105.229789">
  <ele>1583.0</ele>
  <time>2026-08-28T17:54:02Z</time>
  <course>0.0</course>
  <speed>0.0</speed>
  <fix>3d</fix>
</trkpt>
<trkpt lat="40.0713751" lon="-105.2297889">
  <ele>1583.0</ele>
  <time>2026-08-28T17:54:02Z</time>
  <course>246.98</course>
  <speed>0.022360679774997897</speed>
  <fix>3d</fix>
</trkpt>
<trkpt lat="40.0713749" lon="-105.229789">
  <ele>1583.0</ele>
  <time>2026-08-28T17:54:02Z</time>
  <course>0.0</course>
  <speed>0.0</speed>
  <fix>3d</fix>
</trkpt>
<trkpt lat="40.071375" lon="-105.2297889">
  <ele>1583.0</ele>
  <time>2026-08-28T17:54:02Z</time>
  <course>246.98</course>
  <speed>0.022360679774997897</speed>
  <fix>3d</fix>
</trkpt>
<trkpt lat="40.0713749" lon="-105.229789">
  <ele>1583.0</ele>
  <time>2026-08-28T17:54:02Z</time>
  <course>0.0</course>
  <speed>0.0</speed>
  <fix>3d</fix>
</trkpt>
<trkpt lat="40.0713751" lon="-105.2297889">
  <ele>1583.0</ele>
  <time>2026-08-28T17:54:02Z</time>
  <course>246.98</course>
  <speed>0.022360679774997897</speed>
  <fix>3d</fix>
</trkpt>
<trkpt lat="40.0713749" lon="-105.229789">
  <ele>1583.0</ele>
  <time>2026-08-28T17:54:02Z</time>
  <course>0.0</course>
  <speed>0.0</speed>
  <fix>3d</fix>
</trkpt>
<trkpt lat="40.071375" lon="-105.2297889">
  <ele>1583.0</ele>
  <time>2026-08-28T17:54:02Z</time>
  <course>246.98</course>
  <speed>0.022360679774997897</speed>
  <fix>3d</fix>
</trkpt>
<trkpt lat="40.0713749" lon="-105.229789">
  <ele>1583.0</ele>
  <time>2026-08-28T17:54:02Z</time>
  <course>0.0</course>
  <speed>0.0</speed>
  <fix>3d</fix>
</trkpt>
<trkpt lat="40.0713751" lon="-105.2297889">
  <ele>1583.01</ele>
  <time>2026-08-28T17:54:02Z</time>
  <course>246.98</course>
  <speed>0.022360679774997897</speed>
  <fix>3d</fix>
</trkpt>
<trkpt lat="40.0713749" lon="-105.229789">
  <ele>1583.0</ele>
  <time>2026-08-28T17:54:02Z</time>
  <course>0.0</course>
  <speed>0.0</speed>
  <fix>3d</fix>
</trkpt>
<trkpt lat="40.0713751" lon="-105.2297889">
  <ele>1583.01</ele>
  <time>2026-08-28T17:54:02Z</time>
  <course>246.98</course>
  <speed>0.022360679774997897</speed>
  <fix>3d</fix>
</trkpt>
<trkpt lat="40.0713749" lon="-105.229789">
  <ele>1583.0</ele>
  <time>2026-08-28T17:54:02Z</time>
  <course>0.0</course>
  <speed>0.0</speed>
  <fix>3d</fix>
</trkpt>
<trkpt lat="40.0713751" lon="-105.2297889">
  <ele>1583.02</ele>
  <time>2026-08-28T17:54:02Z</time>
  <course>246.98</course>
  <speed>0.022360679774997897</speed>
  <fix>3d</fix>
</trkpt>
<trkpt lat="40.0713749" lon="-105.229789">
  <ele>1583.0</ele>
  <time>2026-08-28T17:54:02Z</time>
  <course>0.0</course>
  <speed>0.0</speed>
  <fix>3d</fix>
</trkpt>
<trkpt lat="40.0713751" lon="-105.2297889">
  <ele>1583.02</ele>
  <time>2026-08-28T17:54:02Z</time>
  <course>246.98</course>
  <speed>0.022360679774997897</speed>
  <fix>3d</fix>
</trkpt>
<trkpt lat="40.0713749" lon="-105.229789">
  <ele>1583.0</ele>
  <time>2026-08-28T17:54:02Z</time>
  <course>0.0</course>
  <speed>0.0</speed>
  <fix>3d</fix>
</trkpt>
<trkpt lat="40.0713751" lon="-105.2297889">
  <ele>1583.02</ele>
  <time>2026-08-28T17:54:02Z</time>
  <course>246.98</course>
  <speed>0.022360679774997897</speed>
  <fix>3d</fix>
</trkpt>
<trkpt lat="40.0713749" lon="-105.229789">
  <ele>1583.0</ele>
  <time>2026-08-28T17:54:02Z</time>
  <course>0.0</course>
  <speed>0.0</speed>
  <fix>3d</fix>
</trkpt>
<trkpt lat="40.0713751" lon="-105.2297889">
  <ele>1583.03</ele>
  <time>2026-08-28T17:54:02Z</time>
  <course>246.98</course>
  <speed>0.022360679774997897</speed>
  <fix>3d</fix>
</trkpt>
<trkpt lat="40.0713749" lon="-105.229789">
  <ele>1583.0</ele>
  <time>2026-08-28T17:54:02Z</time>
  <course>0.0</course>
  <speed>0.0</speed>
  <fix>3d</fix>
</trkpt>
<trkpt lat="40.0713751" lon="-105.2297889">
  <ele>1583.03</ele>
  <time>2026-08-28T17:54:02Z</time>
  <course>246.98</course>
  <speed>0.022360679774997897</speed>
  <fix>3d</fix>
</trkpt>
<trkpt lat="40.0713749" lon="-105.229789">
  <ele>1583.0</ele>
  <time>2026-08-28T17:54:02Z</time>
  <course>0.0</course>
  <speed>0.0</speed>
  <fix>3d</fix>
</trkpt>
<trkpt lat="40.0713751" lon="-105.2297889">
  <ele>1583.03</ele>
  <time>2026-08-28T17:54:02Z</time>
  <course>246.98</course>
  <speed>0.022360679774997897</speed>
  <fix>3d</fix>
</trkpt>
<trkpt lat="40.0713749" lon="-105.229789">
  <ele>1583.0</ele>
  <time>2026-08-28T17:54:02Z</time>
  <course>0.0</course>
  <speed>0.0</speed>
  <fix>3d</fix>
</trkpt>
<trkpt lat="40.0713751" lon="-105.2297889">
  <ele>1583.03</ele>
  <time>2026-08-28T17:54:02Z</time>
  <course>246.98</course>
  <speed>0.022360679774997897</speed>
  <fix>3d</fix>
</trkpt>
<trkpt lat="40.0713749" lon="-105.229789">
  <ele>1583.0</ele>
  <time>2026-08-28T17:54:02Z</time>
  <course>0.0</course>
  <speed>0.0</speed>
  <fix>3d</fix>
</trkpt>
<trkpt lat="40.0713751" lon="-105.2297889">
  <ele>1583.03</ele>
  <time>2026-08-28T17:54:02Z</time>
  <course>246.98</course>
  <speed>0.022360679774997897</speed>
  <fix>3d</fix>
</trkpt>
<trkpt lat="40.0713749" lon="-105.229789">
  <ele>1583.0</ele>
  <time>2026-08-28T17:54:02Z</time>
  <course>0.0</course>
  <speed>0.0</speed>
  <fix>3d</fix>
</trkpt>
<trkpt lat="40.0713751" lon="-105.2297889">
  <ele>1583.04</ele>
  <time>2026-08-28T17:54:02Z</time>
  <course>246.98</course>
  <speed>0.022360679774997897</speed>
  <fix>3d</fix>
</trkpt>
<trkpt lat="40.0713749" lon="-105.229789">
  <ele>1583.0</ele>
  <time>2026-08-28T17:54:02Z</time>
  <course>0.0</course>
  <speed>0.0</speed>
  <fix>3d</fix>
</trkpt>
<trkpt lat="40.0713751" lon="-105.2297889">
  <ele>1583.04</ele>
  <time>2026-08-28T17:54:02Z</time>
  <course>246.98</course>
  <speed>0.022360679774997897</speed>
  <fix>3d</fix>
</trkpt>
<trkpt lat="40.0713749" lon="-105.229789">
  <ele>1583.0</ele>
  <time>2026-08-28T17:54:02Z</time>
  <course>0.0</course>
  <speed>0.0</speed>
  <fix>3d</fix>
</trkpt>
<trkpt lat="40.0713751" lon="-105.2297889">
  <ele>1583.04</ele>
  <time>2026-08-28T17:54:02Z</time>
  <course>246.98</course>
  <speed>0.022360679774997897</speed>
  <fix>3d</fix>
</trkpt>
<trkpt lat="40.0713749" lon="-105.229789">
  <ele>1583.0</ele>
  <time>2026-08-28T17:54:02Z</time>
  <course>0.0</course>
  <speed>0.0</speed>
  <fix>3d</fix>
</trkpt>
<trkpt lat="40.071375" lon="-105.2297889">
  <ele>1583.04</ele>
  <time>2026-08-28T17:54:02Z</time>
  <course>246.98</course>
  <speed>0.022360679774997897</speed>
  <fix>3d</fix>
</trkpt>
<trkpt lat="40.0713749" lon="-105.229789">
  <ele>1583.0</ele>
  <time>2026-08-28T17:54:02Z</time>
  <course>0.0</course>
  <speed>0.0</speed>
  <fix>3d</fix>
</trkpt>
<trkpt lat="40.0713751" lon="-105.2297889">
  <ele>1583.04</ele>
  <time>2026-08-28T17:54:02Z</time>
  <course>246.98</course>
  <speed>0.022360679774997897</speed>
  <fix>3d</fix>
</trkpt>
<trkpt lat="40.0713749" lon="-105.229789">
  <ele>1583.0</ele>
  <time>2026-08-28T17:54:02Z</time>
  <course>0.0</course>
  <speed>0.0</speed>
  <fix>3d</fix>
</trkpt>
<trkpt lat="40.071375" lon="-105.2297889">
  <ele>1583.04</ele>
  <time>2026-08-28T17:54:02Z</time>
  <course>246.98</course>
  <speed>0.022360679774997897</speed>
  <fix>3d</fix>
</trkpt>
<trkpt lat="40.0713749" lon="-105.229789">
  <ele>1583.0</ele>
  <time>2026-08-28T17:54:02Z</time>
  <course>0.0</course>
  <speed>0.0</speed>
  <fix>3d</fix>
</trkpt>
<trkpt lat="40.0713751" lon="-105.2297889">
  <ele>1583.04</ele>
  <time>2026-08-28T17:54:02Z</time>
  <course>246.98</course>
  <speed>0.022360679774997897</speed>
  <fix>3d</fix>
</trkpt>
<trkpt lat="40.0713749" lon="-105.229789">
  <ele>1583.0</ele>
  <time>2026-08-28T17:54:02Z</time>
  <course>0.0</course>
  <speed>0.0</speed>
  <fix>3d</fix>
</trkpt>
<trkpt lat="40.0713751" lon="-105.2297889">
  <ele>1583.04</ele>
  <time>2026-08-28T17:54:02Z</time>
  <course>246.98</course>
  <speed>0.022360679774997897</speed>
  <fix>3d</fix>
</trkpt>
<trkpt lat="40.0713749" lon="-105.229789">
  <ele>1583.0</ele>
  <time>2026-08-28T17:54:02Z</time>
  <course>0.0</course>
  <speed>0.0</speed>
  <fix>3d</fix>
</trkpt>
<trkpt lat="40.0713751" lon="-105.2297889">
  <ele>1583.04</ele>
  <time>2026-08-28T17:54:02Z</time>
  <course>246.98</course>
  <speed>0.022360679774997897</speed>
  <fix>3d</fix>
</trkpt>
<trkpt lat="40.0713749" lon="-105.229789">
  <ele>1583.0</ele>
  <time>2026-08-28T17:54:02Z</time>
  <course>0.0</course>
  <speed>0.0</speed>
  <fix>3d</fix>
</trkpt>
<trkpt lat="40.0713751" lon="-105.2297889">
  <ele>1583.04</ele>
  <time>2026-08-28T17:54:02Z</time>
  <course>246.98</course>
  <speed>0.022360679774997897</speed>
  <fix>3d</fix>
</trkpt>
<trkpt lat="40.0713749" lon="-105.229789">
  <ele>1583.0</ele>
  <time>2026-08-28T17:54:02Z</time>
  <course>0.0</course>
  <speed>0.0</speed>
  <fix>3d</fix>
</trkpt>
<trkpt lat="40.0713751" lon="-105.2297889">
  <ele>1583.04</ele>
  <time>2026-08-28T17:54:02Z</time>
  <course>246.98</course>
  <speed>0.022360679774997897</speed>
  <fix>3d</fix>
</trkpt>
<trkpt lat="40.0713749" lon="-105.229789">
  <ele>1583.0</ele>
  <time>2026-08-28T17:54:02Z</time>
  <course>0.0</course>
  <speed>0.0</speed>
  <fix>3d</fix>
</trkpt>
<trkpt lat="40.0713751" lon="-105.2297889">
  <ele>1583.03</ele>
  <time>2026-08-28T17:54:02Z</time>
  <course>246.98</course>
  <speed>0.022360679774997897</speed>
  <fix>3d</fix>
</trkpt>
<trkpt lat="40.0713749" lon="-105.229789">
  <ele>1583.0</ele>
  <time>2026-08-28T17:54:02Z</time>
  <course>0.0</course>
  <speed>0.0</speed>
  <fix>3d</fix>
</trkpt>
<trkpt lat="40.0713751" lon="-105.2297889">
  <ele>1583.03</ele>
  <time>2026-08-28T17:54:02Z</time>
  <course>246.98</course>
  <speed>0.022360679774997897</speed>
  <fix>3d</fix>
</trkpt>
<trkpt lat="40.0713749" lon="-105.229789">
  <ele>1583.0</ele>
  <time>2026-08-28T17:54:02Z</time>
  <course>0.0</course>
  <speed>0.0</speed>
  <fix>3d</fix>
</trkpt>
<trkpt lat="40.0713751" lon="-105.2297889">
  <ele>1583.03</ele>
  <time>2026-08-28T17:54:02Z</time>
  <course>246.98</course>
  <speed>0.022360679774997897</speed>
  <fix>3d</fix>
</trkpt>
<trkpt lat="40.0713749" lon="-105.229789">
  <ele>1583.0</ele>
  <time>2026-08-28T17:54:02Z</time>
  <course>0.0</course>
  <speed>0.0</speed>
  <fix>3d</fix>
</trkpt>
<trkpt lat="40.0713751" lon="-105.2297889">
  <ele>1583.03</ele>
  <time>2026-08-28T17:54:02Z</time>
  <course>246.98</course>
  <speed>0.022360679774997897</speed>
  <fix>3d</fix>
</trkpt>
<trkpt lat="40.0713749" lon="-105.229789">
  <ele>1583.0</ele>
  <time>2026-08-28T17:54:02Z</time>
  <course>0.0</course>
  <speed>0.0</speed>
  <fix>3d</fix>
</trkpt>
<trkpt lat="40.0713751" lon="-105.2297889">
  <ele>1583.03</ele>
  <time>2026-08-28T17:54:02Z</time>
  <course>246.98</course>
  <speed>0.022360679774997897</speed>
  <fix>3d</fix>
</trkpt>
<trkpt lat="40.0713749" lon="-105.229789">
  <ele>1583.0</ele>
  <time>2026-08-28T17:54:02Z</time>
  <course>0.0</course>
  <speed>0.0</speed>
  <fix>3d</fix>
</trkpt>
<trkpt lat="40.0713751" lon="-105.2297889">
  <ele>1583.03</ele>
  <time>2026-08-28T17:54:02Z</time>
  <course>246.98</course>
  <speed>0.022360679774997897</speed>
  <fix>3d</fix>
</trkpt>
<trkpt lat="40.0713749" lon="-105.229789">
  <ele>1583.0</ele>
  <time>2026-08-28T17:54:02Z</time>
  <course>0.0</course>
  <speed>0.0</speed>
  <fix>3d</fix>
</trkpt>
<trkpt lat="40.0713751" lon="-105.2297889">
  <ele>1583.03</ele>
  <time>2026-08-28T17:54:02Z</time>
  <course>246.98</course>
  <speed>0.022360679774997897</speed>
  <fix>3d</fix>
</trkpt>
<trkpt lat="40.0713749" lon="-105.229789">
  <ele>1583.0</ele>
  <time>2026-08-28T17:54:02Z</time>
  <course>0.0</course>
  <speed>0.0</speed>
  <fix>3d</fix>
</trkpt>
<trkpt lat="40.0713751" lon="-105.2297889">
  <ele>1583.03</ele>
  <time>2026-08-28T17:54:02Z</time>
  <course>246.98</course>
  <speed>0.022360679774997897</speed>
  <fix>3d</fix>
</trkpt>
<trkpt lat="40.0713749" lon="-105.229789">
  <ele>1583.0</ele>
  <time>2026-08-28T17:54:02Z</time>
  <course>0.0</course>
  <speed>0.0</speed>
  <fix>3d</fix>
</trkpt>
<trkpt lat="40.0713751" lon="-105.2297889">
  <ele>1583.03</ele>
  <time>2026-08-28T17:54:02Z</time>
  <course>246.98</course>
  <speed>0.022360679774997897</speed>
  <fix>3d</fix>
</trkpt>
<trkpt lat="40.0713749" lon="-105.229789">
  <ele>1583.0</ele>
  <time>2026-08-28T17:54:02Z</time>
  <course>0.0</course>
  <speed>0.0</speed>
  <fix>3d</fix>
</trkpt>
<trkpt lat="40.0713751" lon="-105.2297889">
  <ele>1583.03</ele>
  <time>2026-08-28T17:54:02Z</time>
  <course>246.98</course>
  <speed>0.022360679774997897</speed>
  <fix>3d</fix>
</trkpt>
<trkpt lat="40.0713749" lon="-105.229789">
  <ele>1583.0</ele>
  <time>2026-08-28T17:54:02Z</time>
  <course>0.0</course>
  <speed>0.0</speed>
  <fix>3d</fix>
</trkpt>
<trkpt lat="40.0713751" lon="-105.2297889">
  <ele>1583.03</ele>
  <time>2026-08-28T17:54:02Z</time>
  <course>246.98</course>
  <speed>0.022360679774997897</speed>
  <fix>3d</fix>
</trkpt>
<trkpt lat="40.0713749" lon="-105.229789">
  <ele>1583.0</ele>
  <time>2026-08-28T17:54:02Z</time>
  <course>0.0</course>
  <speed>0.0</speed>
  <fix>3d</fix>
</trkpt>
<trkpt lat="40.0713751" lon="-105.2297889">
  <ele>1583.04</ele>
  <time>2026-08-28T17:54:02Z</time>
  <course>246.98</course>
  <speed>0.022360679774997897</speed>
  <fix>3d</fix>
</trkpt>
<trkpt lat="40.0713749" lon="-105.229789">
  <ele>1583.0</ele>
  <time>2026-08-28T17:54:02Z</time>
  <course>0.0</course>
  <speed>0.0</speed>
  <fix>3d</fix>
</trkpt>
<trkpt lat="40.0713751" lon="-105.2297889">
  <ele>1583.03</ele>
  <time>2026-08-28T17:54:02Z</time>
  <course>246.98</course>
  <speed>0.022360679774997897</speed>
  <fix>3d</fix>
</trkpt>
<trkpt lat="40.0713749" lon="-105.229789">
  <ele>1583.0</ele>
  <time>2026-08-28T17:54:02Z</time>
  <course>0.0</course>
  <speed>0.0</speed>
  <fix>3d</fix>
</trkpt>
<trkpt lat="40.0713751" lon="-105.2297889">
  <ele>1583.03</ele>
  <time>2026-08-28T17:54:02Z</time>
  <course>246.98</course>
  <speed>0.022360679774997897</speed>
  <fix>3d</fix>
</trkpt>
<trkpt lat="40.0713749" lon="-105.229789">
  <ele>1583.0</ele>
  <time>2026-08-28T17:54:02Z</time>
  <course>0.0</course>
  <speed>0.0</speed>
  <fix>3d</fix>
</trkpt>
<trkpt lat="40.0713751" lon="-105.2297889">
  <ele>1583.03</ele>
  <time>2026-08-28T17:54:02Z</time>
  <course>246.98</course>
  <speed>0.022360679774997897</speed>
  <fix>3d</fix>
</trkpt>
<trkpt lat="40.0713749" lon="-105.229789">
  <ele>1583.0</ele>
  <time>2026-08-28T17:54:02Z</time>
  <course>0.0</course>
  <speed>0.0</speed>
  <fix>3d</fix>
</trkpt>
<trkpt lat="40.0713751" lon="-105.2297889">
  <ele>1583.03</ele>
  <time>2026-08-28T17:54:02Z</time>
  <course>246.98</course>
  <speed>0.022360679774997897</speed>
  <fix>3d</fix>
</trkpt>
<trkpt lat="40.0713749" lon="-105.229789">
  <ele>1583.0</ele>
  <time>2026-08-28T17:54:02Z</time>
  <course>0.0</course>
  <speed>0.0</speed>
  <fix>3d</fix>
</trkpt>
<trkpt lat="40.0713751" lon="-105.2297889">
  <ele>1583.03</ele>
  <time>2026-08-28T17:54:02Z</time>
  <course>246.98</course>
  <speed>0.022360679774997897</speed>
  <fix>3d</fix>
</trkpt>
<trkpt lat="40.0713749" lon="-105.229789">
  <ele>1583.0</ele>
  <time>2026-08-28T17:54:02Z</time>
  <course>0.0</course>
  <speed>0.0</speed>
  <fix>3d</fix>
</trkpt>
<trkpt lat="40.0713751" lon="-105.2297889">
  <ele>1583.03</ele>
  <time>2026-08-28T17:54:02Z</time>
  <course>246.98</course>
  <speed>0.022360679774997897</speed>
  <fix>3d</fix>
</trkpt>
<trkpt lat="40.0713749" lon="-105.229789">
  <ele>1583.0</ele>
  <time>2026-08-28T17:54:02Z</time>
  <course>0.0</course>
  <speed>0.0</speed>
  <fix>3d</fix>
</trkpt>
<trkpt lat="40.0713751" lon="-105.2297889">
  <ele>1583.03</ele>
  <time>2026-08-28T17:54:02Z</time>
  <course>246.98</course>
  <speed>0.022360679774997897</speed>
  <fix>3d</fix>
</trkpt>
<trkpt lat="40.0713749" lon="-105.229789">
  <ele>1583.0</ele>
  <time>2026-08-28T17:54:02Z</time>
  <course>0.0</course>
  <speed>0.0</speed>
  <fix>3d</fix>
</trkpt>
<trkpt lat="40.0713751" lon="-105.2297889">
  <ele>1583.03</ele>
  <time>2026-08-28T17:54:02Z</time>
  <course>246.98</course>
  <speed>0.022360679774997897</speed>
  <fix>3d</fix>
</trkpt>
<trkpt lat="40.0713749" lon="-105.229789">
  <ele>1583.0</ele>
  <time>2026-08-28T17:54:02Z</time>
  <course>0.0</course>
  <speed>0.0</speed>
  <fix>3d</fix>
</trkpt>
<trkpt lat="40.0713751" lon="-105.2297889">
  <ele>1583.03</ele>
  <time>2026-08-28T17:54:02Z</time>
  <course>246.98</course>
  <speed>0.022360679774997897</speed>
  <fix>3d</fix>
</trkpt>
<trkpt lat="40.0713749" lon="-105.229789">
  <ele>1583.0</ele>
  <time>2026-08-28T17:54:02Z</time>
  <course>0.0</course>
  <speed>0.0</speed>
  <fix>3d</fix>
</trkpt>
<trkpt lat="40.0713751" lon="-105.2297889">
  <ele>1583.02</ele>
  <time>2026-08-28T17:54:02Z</time>
  <course>246.98</course>
  <speed>0.022360679774997897</speed>
  <fix>3d</fix>
</trkpt>
<trkpt lat="40.0713749" lon="-105.229789">
  <ele>1583.0</ele>
  <time>2026-08-28T17:54:02Z</time>
  <course>0.0</course>
  <speed>0.0</speed>
  <fix>3d</fix>
</trkpt>
<trkpt lat="40.0713751" lon="-105.2297889">
  <ele>1583.02</ele>
  <time>2026-08-28T17:54:02Z</time>
  <course>246.98</course>
  <speed>0.022360679774997897</speed>
  <fix>3d</fix>
</trkpt>
<trkpt lat="40.0713749" lon="-105.229789">
  <ele>1583.0</ele>
  <time>2026-08-28T17:54:02Z</time>
  <course>0.0</course>
  <speed>0.0</speed>
  <fix>3d</fix>
</trkpt>
<trkpt lat="40.0713751" lon="-105.2297889">
  <ele>1583.02</ele>
  <time>2026-08-28T17:54:02Z</time>
  <course>246.98</course>
  <speed>0.022360679774997897</speed>
  <fix>3d</fix>
</trkpt>
<trkpt lat="40.0713749" lon="-105.229789">
  <ele>1583.0</ele>
  <time>2026-08-28T17:54:02Z</time>
  <course>0.0</course>
  <speed>0.0</speed>
  <fix>3d</fix>
</trkpt>
<trkpt lat="40.0713751" lon="-105.2297889">
  <ele>1583.01</ele>
  <time>2026-08-28T17:54:02Z</time>
  <course>246.98</course>
  <speed>0.022360679774997897</speed>
  <fix>3d</fix>
</trkpt>
<trkpt lat="40.0713749" lon="-105.229789">
  <ele>1583.0</ele>
  <time>2026-08-28T17:54:02Z</time>
  <course>0.0</course>
  <speed>0.0</speed>
  <fix>3d</fix>
</trkpt>
<trkpt lat="40.0713751" lon="-105.2297889">
  <ele>1583.01</ele>
  <time>2026-08-28T17:54:02Z</time>
  <course>246.98</course>
  <speed>0.022360679774997897</speed>
  <fix>3d</fix>
</trkpt>
<trkpt lat="40.0713749" lon="-105.229789">
  <ele>1583.0</ele>
  <time>2026-08-28T17:54:02Z</time>
  <course>0.0</course>
  <speed>0.0</speed>
  <fix>3d</fix>
</trkpt>
<trkpt lat="40.0713751" lon="-105.2297889">
  <ele>1583.01</ele>
  <time>2026-08-28T17:54:02Z</time>
  <course>246.98</course>
  <speed>0.022360679774997897</speed>
  <fix>3d</fix>
</trkpt>
<trkpt lat="40.0713749" lon="-105.229789">
  <ele>1583.0</ele>
  <time>2026-08-28T17:54:02Z</time>
  <course>0.0</course>
  <speed>0.0</speed>
  <fix>3d</fix>
</trkpt>
<trkpt lat="40.0713751" lon="-105.2297889">
  <ele>1583.01</ele>
  <time>2026-08-28T17:54:02Z</time>
  <course>246.98</course>
  <speed>0.022360679774997897</speed>
  <fix>3d</fix>
</trkpt>
<trkpt lat="40.0713749" lon="-105.229789">
  <ele>1583.0</ele>
  <time>2026-08-28T17:54:02Z</time>
  <course>0.0</course>
  <speed>0.0</speed>
  <fix>3d</fix>
</trkpt>
<trkpt lat="40.0713751" lon="-105.2297889">
  <ele>1583.0</ele>
  <time>2026-08-28T17:54:02Z</time>
  <course>246.98</course>
  <speed>0.022360679774997897</speed>
  <fix>3d</fix>
</trkpt>
<trkpt lat="40.0713749" lon="-105.229789">
  <ele>1583.0</ele>
  <time>2026-08-28T17:54:02Z</time>
  <course>0.0</course>
  <speed>0.0</speed>
  <fix>3d</fix>
</trkpt>
<trkpt lat="40.0713751" lon="-105.2297889">
  <ele>1583.0</ele>
  <time>2026-08-28T17:54:02Z</time>
  <course>246.98</course>
  <speed>0.022360679774997897</speed>
  <fix>3d</fix>
</trkpt>
<trkpt lat="40.0713749" lon="-105.229789">
  <ele>1583.0</ele>
  <time>2026-08-28T17:54:02Z</time>
  <course>0.0</course>
  <speed>0.0</speed>
  <fix>3d</fix>
</trkpt>
<trkpt lat="40.0713751" lon="-105.2297889">
  <ele>1583.0</ele>
  <time>2026-08-28T17:54:02Z</time>
  <course>246.98</course>
  <speed>0.022360679774997897</speed>
  <fix>3d</fix>
</trkpt>
<trkpt lat="40.0713749" lon="-105.229789">
  <ele>1583.0</ele>
  <time>2026-08-28T17:54:02Z</time>
  <course>0.0</course>
  <speed>0.0</speed>
  <fix>3d</fix>
</trkpt>
<trkpt lat="40.0713751" lon="-105.2297889">
  <ele>1583.0</ele>
  <time>2026-08-28T17:54:02Z</time>
  <course>246.98</course>
  <speed>0.022360679774997897</speed>
  <fix>3d</fix>
</trkpt>
<trkpt lat="40.0713749" lon="-105.229789">
  <ele>1583.0</ele>
  <time>2026-08-28T17:54:02Z</time>
  <course>0.0</course>
  <speed>0.0</speed>
  <fix>3d</fix>
</trkpt>
<trkpt lat="40.0713751" lon="-105.2297889">
  <ele>1583.01</ele>
  <time>2026-08-28T17:54:02Z</time>
  <course>246.98</course>
  <speed>0.022360679774997897</speed>
  <fix>3d</fix>
</trkpt>
<trkpt lat="40.0713749" lon="-105.229789">
  <ele>1583.0</ele>
  <time>2026-08-28T17:54:02Z</time>
  <course>0.0</course>
  <speed>0.0</speed>
  <fix>3d</fix>
</trkpt>
<trkpt lat="40.0713751" lon="-105.2297889">
  <ele>1583.01</ele>
  <time>2026-08-28T17:54:02Z</time>
  <course>246.98</course>
  <speed>0.022360679774997897</speed>
  <fix>3d</fix>
</trkpt>
<trkpt lat="40.0713749" lon="-105.229789">
  <ele>1583.0</ele>
  <time>2026-08-28T17:54:02Z</time>
  <course>0.0</course>
  <speed>0.0</speed>
  <fix>3d</fix>
</trkpt>
<trkpt lat="40.071375" lon="-105.2297889">
  <ele>1583.01</ele>
  <time>2026-08-28T17:54:02Z</time>
  <course>246.98</course>
  <speed>0.022360679774997897</speed>
  <fix>3d</fix>
</trkpt>
<trkpt lat="40.0713749" lon="-105.229789">
  <ele>1583.0</ele>
  <time>2026-08-28T17:54:02Z</time>
  <course>0.0</course>
  <speed>0.0</speed>
  <fix>3d</fix>
</trkpt>
<trkpt lat="40.0713751" lon="-105.2297889">
  <ele>1583.01</ele>
  <time>2026-08-28T17:54:02Z</time>
  <course>246.98</course>
  <speed>0.022360679774997897</speed>
  <fix>3d</fix>
</trkpt>
<trkpt lat="40.0713749" lon="-105.229789">
  <ele>1583.0</ele>
  <time>2026-08-28T17:54:02Z</time>
  <course>0.0</course>
  <speed>0.0</speed>
  <fix>3d</fix>
</trkpt>
<trkpt lat="40.071375" lon="-105.2297889">
  <ele>1583.01</ele>
  <time>2026-08-28T17:54:02Z</time>
  <course>246.98</course>
  <speed>0.022360679774997897</speed>
  <fix>3d</fix>
</trkpt>
<trkpt lat="40.0713749" lon="-105.229789">
  <ele>1583.0</ele>
  <time>2026-08-28T17:54:02Z</time>
  <course>0.0</course>
  <speed>0.0</speed>
  <fix>3d</fix>
</trkpt>
<trkpt lat="40.0713751" lon="-105.2297889">
  <ele>1583.01</ele>
  <time>2026-08-28T17:54:02Z</time>
  <course>246.98</course>
  <speed>0.022360679774997897</speed>
  <fix>3d</fix>
</trkpt>
<trkpt lat="40.0713749" lon="-105.229789">
  <ele>1583.0</ele>
  <time>2026-08-28T17:54:02Z</time>
  <course>0.0</course>
  <speed>0.0</speed>
  <fix>3d</fix>
</trkpt>
<trkpt lat="40.071375" lon="-105.2297889">
  <ele>1583.02</ele>
  <time>2026-08-28T17:54:02Z</time>
  <course>246.98</course>
  <speed>0.022360679774997897</speed>
  <fix>3d</fix>
</trkpt>
<trkpt lat="40.0713749" lon="-105.229789">
  <ele>1583.0</ele>
  <time>2026-08-28T17:54:02Z</time>
  <course>0.0</course>
  <speed>0.0</speed>
  <fix>3d</fix>
</trkpt>
<trkpt lat="40.0713751" lon="-105.2297889">
  <ele>1583.02</ele>
  <time>2026-08-28T17:54:02Z</time>
  <course>246.98</course>
  <speed>0.022360679774997897</speed>
  <fix>3d</fix>
</trkpt>
<trkpt lat="40.0713749" lon="-105.229789">
  <ele>1583.0</ele>
  <time>2026-08-28T17:54:02Z</time>
  <course>0.0</course>
  <speed>0.0</speed>
  <fix>3d</fix>
</trkpt>
<trkpt lat="40.071375" lon="-105.2297889">
  <ele>1583.02</ele>
  <time>2026-08-28T17:54:02Z</time>
  <course>246.98</course>
  <speed>0.022360679774997897</speed>
  <fix>3d</fix>
</trkpt>
<trkpt lat="40.0713749" lon="-105.229789">
  <ele>1583.0</ele>
  <time>2026-08-28T17:54:02Z</time>
  <course>0.0</course>
  <speed>0.0</speed>
  <fix>3d</fix>
</trkpt>
<trkpt lat="40.0713751" lon="-105.2297889">
  <ele>1583.02</ele>
  <time>2026-08-28T17:54:02Z</time>
  <course>246.98</course>
  <speed>0.022360679774997897</speed>
  <fix>3d</fix>
</trkpt>
<trkpt lat="40.0713749" lon="-105.229789">
  <ele>1583.0</ele>
  <time>2026-08-28T17:54:02Z</time>
  <course>0.0</course>
  <speed>0.0</speed>
  <fix>3d</fix>
</trkpt>
<trkpt lat="40.071375" lon="-105.2297889">
  <ele>1583.02</ele>
  <time>2026-08-28T17:54:02Z</time>
  <course>246.98</course>
  <speed>0.022360679774997897</speed>
  <fix>3d</fix>
</trkpt>
<trkpt lat="40.0713749" lon="-105.229789">
  <ele>1583.0</ele>
  <time>2026-08-28T17:54:02Z</time>
  <course>0.0</course>
  <speed>0.0</speed>
  <fix>3d</fix>
</trkpt>
<trkpt lat="40.0713751" lon="-105.2297889">
  <ele>1583.02</ele>
  <time>2026-08-28T17:54:02Z</time>
  <course>246.98</course>
  <speed>0.022360679774997897</speed>
  <fix>3d</fix>
</trkpt>
<trkpt lat="40.0713749" lon="-105.229789">
  <ele>1583.0</ele>
  <time>2026-08-28T17:54:02Z</time>
  <course>0.0</course>
  <speed>0.0</speed>
  <fix>3d</fix>
</trkpt>
<trkpt lat="40.0713751" lon="-105.2297889">
  <ele>1583.02</ele>
  <time>2026-08-28T17:54:02Z</time>
  <course>246.98</course>
  <speed>0.022360679774997897</speed>
  <fix>3d</fix>
</trkpt>
<trkpt lat="40.0713749" lon="-105.229789">
  <ele>1583.0</ele>
  <time>2026-08-28T17:54:02Z</time>
  <course>0.0</course>
  <speed>0.0</speed>
  <fix>3d</fix>
</trkpt>
<trkpt lat="40.0713751" lon="-105.2297889">
  <ele>1583.02</ele>
  <time>2026-08-28T17:54:02Z</time>
  <course>246.98</course>
  <speed>0.022360679774997897</speed>
  <fix>3d</fix>
</trkpt>
<trkpt lat="40.0713749" lon="-105.229789">
  <ele>1583.0</ele>
  <time>2026-08-28T17:54:02Z</time>
  <course>0.0</course>
  <speed>0.0</speed>
  <fix>3d</fix>
</trkpt>
<trkpt lat="40.0713751" lon="-105.2297889">
  <ele>1583.02</ele>
  <time>2026-08-28T17:54:02Z</time>
  <course>246.98</course>
  <speed>0.022360679774997897</speed>
  <fix>3d</fix>
</trkpt>
<trkpt lat="40.0713749" lon="-105.229789">
  <ele>1583.0</ele>
  <time>2026-08-28T17:54:02Z</time>
  <course>0.0</course>
  <speed>0.0</speed>
  <fix>3d</fix>
</trkpt>
<trkpt lat="40.0713751" lon="-105.2297889">
  <ele>1583.02</ele>
  <time>2026-08-28T17:54:02Z</time>
  <course>246.98</course>
  <speed>0.022360679774997897</speed>
  <fix>3d</fix>
</trkpt>
<trkpt lat="40.0713749" lon="-105.229789">
  <ele>1583.0</ele>
  <time>2026-08-28T17:54:02Z</time>
  <course>0.0</course>
  <speed>0.0</speed>
  <fix>3d</fix>
</trkpt>
<trkpt lat="40.0713751" lon="-105.2297889">
  <ele>1583.02</ele>
  <time>2026-08-28T17:54:02Z</time>
  <course>246.98</course>
  <speed>0.022360679774997897</speed>
  <fix>3d</fix>
</trkpt>
<trkpt lat="40.0713749" lon="-105.229789">
  <ele>1583.0</ele>
  <time>2026-08-28T17:54:02Z</time>
  <course>0.0</course>
  <speed>0.0</speed>
  <fix>3d</fix>
</trkpt>
<trkpt lat="40.0713751" lon="-105.2297889">
  <ele>1583.02</ele>
  <time>2026-08-28T17:54:02Z</time>
  <course>246.98</course>
  <speed>0.022360679774997897</speed>
  <fix>3d</fix>
</trkpt>
<trkpt lat="40.0713749" lon="-105.229789">
  <ele>1583.0</ele>
  <time>2026-08-28T17:54:02Z</time>
  <course>0.0</course>
  <speed>0.0</speed>
  <fix>3d</fix>
</trkpt>
<trkpt lat="40.0713751" lon="-105.2297889">
  <ele>1583.02</ele>
  <time>2026-08-28T17:54:02Z</time>
  <course>246.98</course>
  <speed>0.022360679774997897</speed>
  <fix>3d</fix>
</trkpt>
<trkpt lat="40.0713749" lon="-105.229789">
  <ele>1583.0</ele>
  <time>2026-08-28T17:54:02Z</time>
  <course>0.0</course>
  <speed>0.0</speed>
  <fix>3d</fix>
</trkpt>
<trkpt lat="40.0713751" lon="-105.2297889">
  <ele>1583.02</ele>
  <time>2026-08-28T17:54:02Z</time>
  <course>246.98</course>
  <speed>0.022360679774997897</speed>
  <fix>3d</fix>
</trkpt>
<trkpt lat="40.0713749" lon="-105.229789">
  <ele>1583.0</ele>
  <time>2026-08-28T17:54:02Z</time>
  <course>0.0</course>
  <speed>0.0</speed>
  <fix>3d</fix>
</trkpt>
<trkpt lat="40.071375" lon="-105.2297889">
  <ele>1583.02</ele>
  <time>2026-08-28T17:54:02Z</time>
  <course>246.98</course>
  <speed>0.022360679774997897</speed>
  <fix>3d</fix>
</trkpt>
<trkpt lat="40.0713749" lon="-105.229789">
  <ele>1583.0</ele>
  <time>2026-08-28T17:54:02Z</time>
  <course>0.0</course>
  <speed>0.0</speed>
  <fix>3d</fix>
</trkpt>
<trkpt lat="40.0713751" lon="-105.2297889">
  <ele>1583.02</ele>
  <time>2026-08-28T17:54:02Z</time>
  <course>246.98</course>
  <speed>0.022360679774997897</speed>
  <fix>3d</fix>
</trkpt>
<trkpt lat="40.0713749" lon="-105.229789">
  <ele>1583.0</ele>
  <time>2026-08-28T17:54:02Z</time>
  <course>0.0</course>
  <speed>0.0</speed>
  <fix>3d</fix>
</trkpt>
<trkpt lat="40.071375" lon="-105.2297889">
  <ele>1583.02</ele>
  <time>2026-08-28T17:54:02Z</time>
  <course>246.98</course>
  <speed>0.022360679774997897</speed>
  <fix>3d</fix>
</trkpt>
<trkpt lat="40.0713749" lon="-105.229789">
  <ele>1583.0</ele>
  <time>2026-08-28T17:54:02Z</time>
  <course>0.0</course>
  <speed>0.0</speed>
  <fix>3d</fix>
</trkpt>
<trkpt lat="40.0713751" lon="-105.2297889">
  <ele>1583.02</ele>
  <time>2026-08-28T17:54:02Z</time>
  <course>246.98</course>
  <speed>0.022360679774997897</speed>
  <fix>3d</fix>
</trkpt>
<trkpt lat="40.0713749" lon="-105.229789">
  <ele>1583.0</ele>
  <time>2026-08-28T17:54:02Z</time>
  <course>0.0</course>
  <speed>0.0</speed>
  <fix>3d</fix>
</trkpt>
<trkpt lat="40.071375" lon="-105.2297889">
  <ele>1583.02</ele>
  <time>2026-08-28T17:54:02Z</time>
  <course>246.98</course>
  <speed>0.022360679774997897</speed>
  <fix>3d</fix>
</trkpt>
<trkpt lat="40.0713749" lon="-105.229789">
  <ele>1583.0</ele>
  <time>2026-08-28T17:54:02Z</time>
  <course>0.0</course>
  <speed>0.0</speed>
  <fix>3d</fix>
</trkpt>
<trkpt lat="40.0713751" lon="-105.2297889">
  <ele>1583.02</ele>
  <time>2026-08-28T17:54:02Z</time>
  <course>246.98</course>
  <speed>0.022360679774997897</speed>
  <fix>3d</fix>
</trkpt>
<trkpt lat="40.0713749" lon="-105.229789">
  <ele>1583.0</ele>
  <time>2026-08-28T17:54:02Z</time>
  <course>0.0</course>
  <speed>0.0</speed>
  <fix>3d</fix>
</trkpt>
<trkpt lat="40.071375" lon="-105.2297889">
  <ele>1583.01</ele>
  <time>2026-08-28T17:54:02Z</time>
  <course>246.98</course>
  <speed>0.022360679774997897</speed>
  <fix>3d</fix>
</trkpt>
<trkpt lat="40.0713749" lon="-105.229789">
  <ele>1583.0</ele>
  <time>2026-08-28T17:54:02Z</time>
  <course>0.0</course>
  <speed>0.0</speed>
  <fix>3d</fix>
</trkpt>
<trkpt lat="40.0713751" lon="-105.2297889">
  <ele>1583.01</ele>
  <time>2026-08-28T17:54:02Z</time>
  <course>246.98</course>
  <speed>0.022360679774997897</speed>
  <fix>3d</fix>
</trkpt>
<trkpt lat="40.0713749" lon="-105.229789">
  <ele>1583.0</ele>
  <time>2026-08-28T17:54:02Z</time>
  <course>0.0</course>
  <speed>0.0</speed>
  <fix>3d</fix>
</trkpt>
<trkpt lat="40.071375" lon="-105.2297889">
  <ele>1583.01</ele>
  <time>2026-08-28T17:54:02Z</time>
  <course>246.98</course>
  <speed>0.022360679774997897</speed>
  <fix>3d</fix>
</trkpt>
<trkpt lat="40.0713749" lon="-105.229789">
  <ele>1583.0</ele>
  <time>2026-08-28T17:54:02Z</time>
  <course>0.0</course>
  <speed>0.0</speed>
  <fix>3d</fix>
</trkpt>
<trkpt lat="40.0713751" lon="-105.2297889">
  <ele>1583.01</ele>
  <time>2026-08-28T17:54:02Z</time>
  <course>246.98</course>
  <speed>0.022360679774997897</speed>
  <fix>3d</fix>
</trkpt>
<trkpt lat="40.0713749" lon="-105.229789">
  <ele>1583.0</ele>
  <time>2026-08-28T17:54:02Z</time>
  <course>0.0</course>
  <speed>0.0</speed>
  <fix>3d</fix>
</trkpt>
<trkpt lat="40.071375" lon="-105.2297889">
  <ele>1583.01</ele>
  <time>2026-08-28T17:54:02Z</time>
  <course>246.98</course>
  <speed>0.022360679774997897</speed>
  <fix>3d</fix>
</trkpt>
<trkpt lat="40.0713749" lon="-105.229789">
  <ele>1583.0</ele>
  <time>2026-08-28T17:54:02Z</time>
  <course>0.0</course>
  <speed>0.0</speed>
  <fix>3d</fix>
</trkpt>
<trkpt lat="40.0713751" lon="-105.2297889">
  <ele>1583.01</ele>
  <time>2026-08-28T17:54:02Z</time>
  <course>246.98</course>
  <speed>0.022360679774997897</speed>
  <fix>3d</fix>
</trkpt>
<trkpt lat="40.0713749" lon="-105.229789">
  <ele>1583.0</ele>
  <time>2026-08-28T17:54:02Z</time>
  <course>0.0</course>
  <speed>0.0</speed>
  <fix>3d</fix>
</trkpt>
<trkpt lat="40.071375" lon="-105.2297889">
  <ele>1583.01</ele>
  <time>2026-08-28T17:54:02Z</time>
  <course>246.98</course>
  <speed>0.022360679774997897</speed>
  <fix>3d</fix>
</trkpt>
<trkpt lat="40.0713749" lon="-105.229789">
  <ele>1583.0</ele>
  <time>2026-08-28T17:54:02Z</time>
  <course>0.0</course>
  <speed>0.0</speed>
  <fix>3d</fix>
</trkpt>
<trkpt lat="40.0713751" lon="-105.2297889">
  <ele>1583.01</ele>
  <time>2026-08-28T17:54:02Z</time>
  <course>246.98</course>
  <speed>0.022360679774997897</speed>
  <fix>3d</fix>
</trkpt>
<trkpt lat="40.0713749" lon="-105.229789">
  <ele>1583.0</ele>
  <time>2026-08-28T17:54:02Z</time>
  <course>0.0</course>
  <speed>0.0</speed>
  <fix>3d</fix>
</trkpt>
<trkpt lat="40.0713751" lon="-105.2297889">
  <ele>1583.01</ele>
  <time>2026-08-28T17:54:02Z</time>
  <course>246.98</course>
  <speed>0.022360679774997897</speed>
  <fix>3d</fix>
</trkpt>
<trkpt lat="40.0713749" lon="-105.229789">
  <ele>1583.0</ele>
  <time>2026-08-28T17:54:02Z</time>
  <course>0.0</course>
  <speed>0.0</speed>
  <fix>3d</fix>
</trkpt>
<trkpt lat="40.0713751" lon="-105.2297889">
  <ele>1583.02</ele>
  <time>2026-08-28T17:54:02Z</time>
  <course>246.98</course>
  <speed>0.022360679774997897</speed>
  <fix>3d</fix>
</trkpt>
<trkpt lat="40.0713749" lon="-105.229789">
  <ele>1583.0</ele>
  <time>2026-08-28T17:54:02Z</time>
  <course>0.0</course>
  <speed>0.0</speed>
  <fix>3d</fix>
</trkpt>
<trkpt lat="40.0713751" lon="-105.2297889">
  <ele>1583.02</ele>
  <time>2026-08-28T17:54:02Z</time>
  <course>246.98</course>
  <speed>0.022360679774997897</speed>
  <fix>3d</fix>
</trkpt>
<trkpt lat="40.0713749" lon="-105.229789">
  <ele>1583.0</ele>
  <time>2026-08-28T17:54:02Z</time>
  <course>0.0</course>
  <speed>0.0</speed>
  <fix>3d</fix>
</trkpt>
<trkpt lat="40.0713751" lon="-105.2297889">
  <ele>1583.02</ele>
  <time>2026-08-28T17:54:02Z</time>
  <course>246.98</course>
  <speed>0.022360679774997897</speed>
  <fix>3d</fix>
</trkpt>
<trkpt lat="40.0713749" lon="-105.229789">
  <ele>1583.0</ele>
  <time>2026-08-28T17:54:02Z</time>
  <course>0.0</course>
  <speed>0.0</speed>
  <fix>3d</fix>
</trkpt>
<trkpt lat="40.0713751" lon="-105.2297889">
  <ele>1583.02</ele>
  <time>2026-08-28T17:54:02Z</time>
  <course>246.98</course>
  <speed>0.022360679774997897</speed>
  <fix>3d</fix>
</trkpt>
<trkpt lat="40.0713749" lon="-105.229789">
  <ele>1583.0</ele>
  <time>2026-08-28T17:54:02Z</time>
  <course>0.0</course>
  <speed>0.0</speed>
  <fix>3d</fix>
</trkpt>
<trkpt lat="40.0713751" lon="-105.2297889">
  <ele>1583.02</ele>
  <time>2026-08-28T17:54:02Z</time>
  <course>246.98</course>
  <speed>0.022360679774997897</speed>
  <fix>3d</fix>
</trkpt>
<trkpt lat="40.0713749" lon="-105.229789">
  <ele>1583.0</ele>
  <time>2026-08-28T17:54:02Z</time>
  <course>0.0</course>
  <speed>0.0</speed>
  <fix>3d</fix>
</trkpt>
<trkpt lat="40.071375" lon="-105.2297889">
  <ele>1583.02</ele>
  <time>2026-08-28T17:54:02Z</time>
  <course>246.98</course>
  <speed>0.022360679774997897</speed>
  <fix>3d</fix>
</trkpt>
<trkpt lat="40.0713749" lon="-105.229789">
  <ele>1583.0</ele>
  <time>2026-08-28T17:54:02Z</time>
  <course>0.0</course>
  <speed>0.0</speed>
  <fix>3d</fix>
</trkpt>
<trkpt lat="40.0713751" lon="-105.2297889">
  <ele>1583.02</ele>
  <time>2026-08-28T17:54:02Z</time>
  <course>246.98</course>
  <speed>0.022360679774997897</speed>
  <fix>3d</fix>
</trkpt>
<trkpt lat="40.0713749" lon="-105.229789">
  <ele>1583.0</ele>
  <time>2026-08-28T17:54:02Z</time>
  <course>0.0</course>
  <speed>0.0</speed>
  <fix>3d</fix>
</trkpt>
<trkpt lat="40.071375" lon="-105.2297889">
  <ele>1583.02</ele>
  <time>2026-08-28T17:54:02Z</time>
  <course>246.98</course>
  <speed>0.022360679774997897</speed>
  <fix>3d</fix>
</trkpt>
<trkpt lat="40.0713749" lon="-105.229789">
  <ele>1583.0</ele>
  <time>2026-08-28T17:54:02Z</time>
  <course>0.0</course>
  <speed>0.0</speed>
  <fix>3d</fix>
</trkpt>
<trkpt lat="40.0713751" lon="-105.2297889">
  <ele>1583.02</ele>
  <time>2026-08-28T17:54:02Z</time>
  <course>246.98</course>
  <speed>0.022360679774997897</speed>
  <fix>3d</fix>
</trkpt>
<trkpt lat="40.0713749" lon="-105.229789">
  <ele>1583.0</ele>
  <time>2026-08-28T17:54:02Z</time>
  <course>0.0</course>
  <speed>0.0</speed>
  <fix>3d</fix>
</trkpt>
<trkpt lat="40.071375" lon="-105.2297889">
  <ele>1583.02</ele>
  <time>2026-08-28T17:54:02Z</time>
  <course>246.98</course>
  <speed>0.022360679774997897</speed>
  <fix>3d</fix>
</trkpt>
<trkpt lat="40.0713749" lon="-105.229789">
  <ele>1583.0</ele>
  <time>2026-08-28T17:54:02Z</time>
  <course>0.0</course>
  <speed>0.0</speed>
  <fix>3d</fix>
</trkpt>
<trkpt lat="40.0713751" lon="-105.2297889">
  <ele>1583.02</ele>
  <time>2026-08-28T17:54:02Z</time>
  <course>246.98</course>
  <speed>0.022360679774997897</speed>
  <fix>3d</fix>
</trkpt>
<trkpt lat="40.0713749" lon="-105.229789">
  <ele>1583.0</ele>
  <time>2026-08-28T17:54:02Z</time>
  <course>0.0</course>
  <speed>0.0</speed>
  <fix>3d</fix>
</trkpt>
<trkpt lat="40.071375" lon="-105.2297889">
  <ele>1583.02</ele>
  <time>2026-08-28T17:54:02Z</time>
  <course>246.98</course>
  <speed>0.02</speed>
  <fix>3d</fix>
</trkpt>
<trkpt lat="40.0713749" lon="-105.229789">
  <ele>1583.0</ele>
  <time>2026-08-28T17:54:02Z</time>
  <course>0.0</course>
  <speed>0.0</speed>
  <fix>3d</fix>
</trkpt>
<trkpt lat="40.0713751" lon="-105.2297889">
  <ele>1583.02</ele>
  <time>2026-08-28T17:54:02Z</time>
  <course>246.98</course>
  <speed>0.022360679774997897</speed>
  <fix>3d</fix>
</trkpt>
<trkpt lat="40.0713749" lon="-105.229789">
  <ele>1583.0</ele>
  <time>2026-08-28T17:54:02Z</time>
  <course>0.0</course>
  <speed>0.0</speed>
  <fix>3d</fix>
</trkpt>
<trkpt lat="40.071375" lon="-105.2297889">
  <ele>1583.02</ele>
  <time>2026-08-28T17:54:02Z</time>
  <course>246.98</course>
  <speed>0.02</speed>
  <fix>3d</fix>
</trkpt>
<trkpt lat="40.0713749" lon="-105.229789">
  <ele>1583.0</ele>
  <time>2026-08-28T17:54:02Z</time>
  <course>0.0</course>
  <speed>0.0</speed>
  <fix>3d</fix>
</trkpt>
<trkpt lat="40.0713751" lon="-105.2297889">
  <ele>1583.02</ele>
  <time>2026-08-28T17:54:02Z</time>
  <course>246.98</course>
  <speed>0.022360679774997897</speed>
  <fix>3d</fix>
</trkpt>
<trkpt lat="40.0713749" lon="-105.229789">
  <ele>1583.0</ele>
  <time>2026-08-28T17:54:02Z</time>
  <course>0.0</course>
  <speed>0.0</speed>
  <fix>3d</fix>
</trkpt>
<trkpt lat="40.071375" lon="-105.2297889">
  <ele>1583.02</ele>
  <time>2026-08-28T17:54:02Z</time>
  <course>246.98</course>
  <speed>0.02</speed>
  <fix>3d</fix>
</trkpt>
<trkpt lat="40.0713749" lon="-105.229789">
  <ele>1583.0</ele>
  <time>2026-08-28T17:54:02Z</time>
  <course>0.0</course>
  <speed>0.0</speed>
  <fix>3d</fix>
</trkpt>
<trkpt lat="40.0713751" lon="-105.2297889">
  <ele>1583.02</ele>
  <time>2026-08-28T17:54:02Z</time>
  <course>246.98</course>
  <speed>0.022360679774997897</speed>
  <fix>3d</fix>
</trkpt>
<trkpt lat="40.0713749" lon="-105.229789">
  <ele>1583.0</ele>
  <time>2026-08-28T17:54:02Z</time>
  <course>0.0</course>
  <speed>0.0</speed>
  <fix>3d</fix>
</trkpt>
<trkpt lat="40.071375" lon="-105.2297889">
  <ele>1583.02</ele>
  <time>2026-08-28T17:54:02Z</time>
  <course>246.98</course>
  <speed>0.02</speed>
  <fix>3d</fix>
</trkpt>
<trkpt lat="40.0713749" lon="-105.229789">
  <ele>1583.0</ele>
  <time>2026-08-28T17:54:02Z</time>
  <course>0.0</course>
  <speed>0.0</speed>
  <fix>3d</fix>
</trkpt>
<trkpt lat="40.0713751" lon="-105.2297889">
  <ele>1583.02</ele>
  <time>2026-08-28T17:54:02Z</time>
  <course>246.98</course>
  <speed>0.022360679774997897</speed>
  <fix>3d</fix>
</trkpt>
<trkpt lat="40.0713749" lon="-105.229789">
  <ele>1583.0</ele>
  <time>2026-08-28T17:54:02Z</time>
  <course>0.0</course>
  <speed>0.0</speed>
  <fix>3d</fix>
</trkpt>
<trkpt lat="40.071375" lon="-105.2297889">
  <ele>1583.02</ele>
  <time>2026-08-28T17:54:02Z</time>
  <course>246.98</course>
  <speed>0.02</speed>
  <fix>3d</fix>
</trkpt>
<trkpt lat="40.0713749" lon="-105.229789">
  <ele>1583.0</ele>
  <time>2026-08-28T17:54:02Z</time>
  <course>0.0</course>
  <speed>0.0</speed>
  <fix>3d</fix>
</trkpt>
<trkpt lat="40.0713751" lon="-105.2297889">
  <ele>1583.02</ele>
  <time>2026-08-28T17:54:02Z</time>
  <course>246.98</course>
  <speed>0.022360679774997897</speed>
  <fix>3d</fix>
</trkpt>
<trkpt lat="40.0713749" lon="-105.229789">
  <ele>1583.0</ele>
  <time>2026-08-28T17:54:02Z</time>
  <course>0.0</course>
  <speed>0.0</speed>
  <fix>3d</fix>
</trkpt>
<trkpt lat="40.0713751" lon="-105.2297889">
  <ele>1583.02</ele>
  <time>2026-08-28T17:54:02Z</time>
  <course>246.98</course>
  <speed>0.022360679774997897</speed>
  <fix>3d</fix>
</trkpt>
<trkpt lat="40.0713749" lon="-105.229789">
  <ele>1583.0</ele>
  <time>2026-08-28T17:54:02Z</time>
  <course>0.0</course>
  <speed>0.0</speed>
  <fix>3d</fix>
</trkpt>
<trkpt lat="40.0713751" lon="-105.2297889">
  <ele>1583.02</ele>
  <time>2026-08-28T17:54:02Z</time>
  <course>246.98</course>
  <speed>0.022360679774997897</speed>
  <fix>3d</fix>
</trkpt>
<trkpt lat="40.0713749" lon="-105.229789">
  <ele>1583.0</ele>
  <time>2026-08-28T17:54:02Z</time>
  <course>0.0</course>
  <speed>0.0</speed>
  <fix>3d</fix>
</trkpt>
<trkpt lat="40.0713751" lon="-105.2297889">
  <ele>1583.02</ele>
  <time>2026-08-28T17:54:02Z</time>
  <course>246.98</course>
  <speed>0.022360679774997897</speed>
  <fix>3d</fix>
</trkpt>
<trkpt lat="40.0713749" lon="-105.229789">
  <ele>1583.0</ele>
  <time>2026-08-28T17:54:02Z</time>
  <course>0.0</course>
  <speed>0.0</speed>
  <fix>3d</fix>
</trkpt>
<trkpt lat="40.0713751" lon="-105.2297889">
  <ele>1583.02</ele>
  <time>2026-08-28T17:54:02Z</time>
  <course>246.98</course>
  <speed>0.022360679774997897</speed>
  <fix>3d</fix>
</trkpt>
<trkpt lat="40.0713749" lon="-105.229789">
  <ele>1583.0</ele>
  <time>2026-08-28T17:54:02Z</time>
  <course>0.0</course>
  <speed>0.0</speed>
  <fix>3d</fix>
</trkpt>
<trkpt lat="40.0713751" lon="-105.2297889">
  <ele>1583.01</ele>
  <time>2026-08-28T17:54:02Z</time>
  <course>246.98</course>
  <speed>0.022360679774997897</speed>
  <fix>3d</fix>
</trkpt>
<trkpt lat="40.0713749" lon="-105.229789">
  <ele>1583.0</ele>
  <time>2026-08-28T17:54:02Z</time>
  <course>0.0</course>
  <speed>0.0</speed>
  <fix>3d</fix>
</trkpt>
<trkpt lat="40.0713751" lon="-105.2297889">
  <ele>1583.01</ele>
  <time>2026-08-28T17:54:02Z</time>
  <course>246.98</course>
  <speed>0.022360679774997897</speed>
  <fix>3d</fix>
</trkpt>
<trkpt lat="40.0713749" lon="-105.229789">
  <ele>1583.0</ele>
  <time>2026-08-28T17:54:02Z</time>
  <course>0.0</course>
  <speed>0.0</speed>
  <fix>3d</fix>
</trkpt>
<trkpt lat="40.071375" lon="-105.2297889">
  <ele>1583.01</ele>
  <time>2026-08-28T17:54:02Z</time>
  <course>246.98</course>
  <speed>0.02</speed>
  <fix>3d</fix>
</trkpt>
<trkpt lat="40.0713749" lon="-105.229789">
  <ele>1583.0</ele>
  <time>2026-08-28T17:54:02Z</time>
  <course>0.0</course>
  <speed>0.0</speed>
  <fix>3d</fix>
</trkpt>
<trkpt lat="40.0713751" lon="-105.2297889">
  <ele>1583.02</ele>
  <time>2026-08-28T17:54:02Z</time>
  <course>246.98</course>
  <speed>0.022360679774997897</speed>
  <fix>3d</fix>
</trkpt>
<trkpt lat="40.0713749" lon="-105.229789">
  <ele>1583.0</ele>
  <time>2026-08-28T17:54:02Z</time>
  <course>0.0</course>
  <speed>0.0</speed>
  <fix>3d</fix>
</trkpt>
<trkpt lat="40.071375" lon="-105.2297889">
  <ele>1583.02</ele>
  <time>2026-08-28T17:54:02Z</time>
  <course>246.98</course>
  <speed>0.02</speed>
  <fix>3d</fix>
</trkpt>
<trkpt lat="40.0713749" lon="-105.229789">
  <ele>1583.0</ele>
  <time>2026-08-28T17:54:02Z</time>
  <course>0.0</course>
  <speed>0.0</speed>
  <fix>3d</fix>
</trkpt>
<trkpt lat="40.0713751" lon="-105.2297889">
  <ele>1583.01</ele>
  <time>2026-08-28T17:54:02Z</time>
  <course>246.98</course>
  <speed>0.022360679774997897</speed>
  <fix>3d</fix>
</trkpt>
<trkpt lat="40.0713749" lon="-105.229789">
  <ele>1583.0</ele>
  <time>2026-08-28T17:54:02Z</time>
  <course>0.0</course>
  <speed>0.0</speed>
  <fix>3d</fix>
</trkpt>
<trkpt lat="40.071375" lon="-105.2297889">
  <ele>1583.02</ele>
  <time>2026-08-28T17:54:02Z</time>
  <course>246.98</course>
  <speed>0.02</speed>
  <fix>3d</fix>
</trkpt>
<trkpt lat="40.0713749" lon="-105.229789">
  <ele>1583.0</ele>
  <time>2026-08-28T17:54:02Z</time>
  <course>0.0</course>
  <speed>0.0</speed>
  <fix>3d</fix>
</trkpt>
<trkpt lat="40.0713751" lon="-105.2297889">
  <ele>1583.02</ele>
  <time>2026-08-28T17:54:02Z</time>
  <course>246.98</course>
  <speed>0.022360679774997897</speed>
  <fix>3d</fix>
</trkpt>
<trkpt lat="40.0713749" lon="-105.229789">
  <ele>1583.0</ele>
  <time>2026-08-28T17:54:02Z</time>
  <course>0.0</course>
  <speed>0.0</speed>
  <fix>3d</fix>
</trkpt>
<trkpt lat="40.071375" lon="-105.2297889">
  <ele>1583.02</ele>
  <time>2026-08-28T17:54:02Z</time>
  <course>246.98</course>
  <speed>0.022360679774997897</speed>
  <fix>3d</fix>
</trkpt>
<trkpt lat="40.0713749" lon="-105.229789">
  <ele>1583.0</ele>
  <time>2026-08-28T17:54:02Z</time>
  <course>0.0</course>
  <speed>0.0</speed>
  <fix>3d</fix>
</trkpt>
<trkpt lat="40.0713751" lon="-105.2297889">
  <ele>1583.02</ele>
  <time>2026-08-28T17:54:02Z</time>
  <course>246.98</course>
  <speed>0.022360679774997897</speed>
  <fix>3d</fix>
</trkpt>
<trkpt lat="40.0713749" lon="-105.229789">
  <ele>1583.0</ele>
  <time>2026-08-28T17:54:02Z</time>
  <course>0.0</course>
  <speed>0.0</speed>
  <fix>3d</fix>
</trkpt>
<trkpt lat="40.071375" lon="-105.2297889">
  <ele>1583.02</ele>
  <time>2026-08-28T17:54:02Z</time>
  <course>246.98</course>
  <speed>0.022360679774997897</speed>
  <fix>3d</fix>
</trkpt>
<trkpt lat="40.0713749" lon="-105.229789">
  <ele>1583.0</ele>
  <time>2026-08-28T17:54:02Z</time>
  <course>0.0</course>
  <speed>0.0</speed>
  <fix>3d</fix>
</trkpt>
<trkpt lat="40.0713751" lon="-105.2297889">
  <ele>1583.02</ele>
  <time>2026-08-28T17:54:02Z</time>
  <course>246.98</course>
  <speed>0.022360679774997897</speed>
  <fix>3d</fix>
</trkpt>
<trkpt lat="40.0713749" lon="-105.229789">
  <ele>1583.0</ele>
  <time>2026-08-28T17:54:02Z</time>
  <course>0.0</course>
  <speed>0.0</speed>
  <fix>3d</fix>
</trkpt>
<trkpt lat="40.071375" lon="-105.2297889">
  <ele>1583.02</ele>
  <time>2026-08-28T17:54:02Z</time>
  <course>246.98</course>
  <speed>0.022360679774997897</speed>
  <fix>3d</fix>
</trkpt>
<trkpt lat="40.0713749" lon="-105.229789">
  <ele>1583.0</ele>
  <time>2026-08-28T17:54:02Z</time>
  <course>0.0</course>
  <speed>0.0</speed>
  <fix>3d</fix>
</trkpt>
<trkpt lat="40.0713751" lon="-105.2297889">
  <ele>1583.01</ele>
  <time>2026-08-28T17:54:02Z</time>
  <course>246.98</course>
  <speed>0.022360679774997897</speed>
  <fix>3d</fix>
</trkpt>
<trkpt lat="40.0713749" lon="-105.229789">
  <ele>1583.0</ele>
  <time>2026-08-28T17:54:02Z</time>
  <course>0.0</course>
  <speed>0.0</speed>
  <fix>3d</fix>
</trkpt>
<trkpt lat="40.071375" lon="-105.2297889">
  <ele>1583.01</ele>
  <time>2026-08-28T17:54:02Z</time>
  <course>246.97</course>
  <speed>0.022360679774997897</speed>
  <fix>3d</fix>
</trkpt>
<trkpt lat="40.0713749" lon="-105.229789">
  <ele>1583.0</ele>
  <time>2026-08-28T17:54:02Z</time>
  <course>0.0</course>
  <speed>0.0</speed>
  <fix>3d</fix>
</trkpt>
<trkpt lat="40.0713751" lon="-105.2297889">
  <ele>1583.02</ele>
  <time>2026-08-28T17:54:02Z</time>
  <course>246.97</course>
  <speed>0.022360679774997897</speed>
  <fix>3d</fix>
</trkpt>
<trkpt lat="40.0713749" lon="-105.229789">
  <ele>1583.0</ele>
  <time>2026-08-28T17:54:02Z</time>
  <course>0.0</course>
  <speed>0.0</speed>
  <fix>3d</fix>
</trkpt>
<trkpt lat="40.0713751" lon="-105.2297889">
  <ele>1583.02</ele>
  <time>2026-08-28T17:54:02Z</time>
  <course>246.97</course>
  <speed>0.022360679774997897</speed>
  <fix>3d</fix>
</trkpt>
<trkpt lat="40.0713749" lon="-105.229789">
  <ele>1583.0</ele>
  <time>2026-08-28T17:54:02Z</time>
  <course>0.0</course>
  <speed>0.0</speed>
  <fix>3d</fix>
</trkpt>
<trkpt lat="40.0713751" lon="-105.2297889">
  <ele>1583.02</ele>
  <time>2026-08-28T17:54:02Z</time>
  <course>246.97</course>
  <speed>0.022360679774997897</speed>
  <fix>3d</fix>
</trkpt>
<trkpt lat="40.0713749" lon="-105.229789">
  <ele>1583.0</ele>
  <time>2026-08-28T17:54:02Z</time>
  <course>0.0</course>
  <speed>0.0</speed>
  <fix>3d</fix>
</trkpt>
<trkpt lat="40.0713751" lon="-105.2297889">
  <ele>1583.02</ele>
  <time>2026-08-28T17:54:02Z</time>
  <course>246.97</course>
  <speed>0.022360679774997897</speed>
  <fix>3d</fix>
</trkpt>
<trkpt lat="40.0713749" lon="-105.229789">
  <ele>1583.0</ele>
  <time>2026-08-28T17:54:02Z</time>
  <course>0.0</course>
  <speed>0.0</speed>
  <fix>3d</fix>
</trkpt>
<trkpt lat="40.0713751" lon="-105.2297889">
  <ele>1583.02</ele>
  <time>2026-08-28T17:54:02Z</time>
  <course>246.97</course>
  <speed>0.022360679774997897</speed>
  <fix>3d</fix>
</trkpt>
<trkpt lat="40.0713749" lon="-105.229789">
  <ele>1583.0</ele>
  <time>2026-08-28T17:54:02Z</time>
  <course>0.0</course>
  <speed>0.0</speed>
  <fix>3d</fix>
</trkpt>
<trkpt lat="40.0713751" lon="-105.2297889">
  <ele>1583.02</ele>
  <time>2026-08-28T17:54:02Z</time>
  <course>246.97</course>
  <speed>0.022360679774997897</speed>
  <fix>3d</fix>
</trkpt>
<trkpt lat="40.0713749" lon="-105.229789">
  <ele>1583.0</ele>
  <time>2026-08-28T17:54:02Z</time>
  <course>0.0</course>
  <speed>0.0</speed>
  <fix>3d</fix>
</trkpt>
<trkpt lat="40.0713751" lon="-105.2297889">
  <ele>1583.02</ele>
  <time>2026-08-28T17:54:02Z</time>
  <course>246.97</course>
  <speed>0.022360679774997897</speed>
  <fix>3d</fix>
</trkpt>
<trkpt lat="40.0713749" lon="-105.229789">
  <ele>1583.0</ele>
  <time>2026-08-28T17:54:02Z</time>
  <course>0.0</course>
  <speed>0.0</speed>
  <fix>3d</fix>
</trkpt>
<trkpt lat="40.071375" lon="-105.2297889">
  <ele>1583.02</ele>
  <time>2026-08-28T17:54:02Z</time>
  <course>246.97</course>
  <speed>0.022360679774997897</speed>
  <fix>3d</fix>
</trkpt>
<trkpt lat="40.0713749" lon="-105.229789">
  <ele>1583.0</ele>
  <time>2026-08-28T17:54:02Z</time>
  <course>0.0</course>
  <speed>0.0</speed>
  <fix>3d</fix>
</trkpt>
<trkpt lat="40.0713751" lon="-105.2297889">
  <ele>1583.02</ele>
  <time>2026-08-28T17:54:02Z</time>
  <course>246.97</course>
  <speed>0.022360679774997897</speed>
  <fix>3d</fix>
</trkpt>
<trkpt lat="40.0713749" lon="-105.229789">
  <ele>1583.0</ele>
  <time>2026-08-28T17:54:02Z</time>
  <course>0.0</course>
  <speed>0.0</speed>
  <fix>3d</fix>
</trkpt>
<trkpt lat="40.071375" lon="-105.2297889">
  <ele>1583.02</ele>
  <time>2026-08-28T17:54:02Z</time>
  <course>246.98</course>
  <speed>0.022360679774997897</speed>
  <fix>3d</fix>
</trkpt>
<trkpt lat="40.0713749" lon="-105.229789">
  <ele>1583.0</ele>
  <time>2026-08-28T17:54:02Z</time>
  <course>0.0</course>
  <speed>0.0</speed>
  <fix>3d</fix>
</trkpt>
<trkpt lat="40.0713751" lon="-105.2297889">
  <ele>1583.02</ele>
  <time>2026-08-28T17:54:02Z</time>
  <course>246.98</course>
  <speed>0.022360679774997897</speed>
  <fix>3d</fix>
</trkpt>
<trkpt lat="40.0713749" lon="-105.229789">
  <ele>1583.0</ele>
  <time>2026-08-28T17:54:02Z</time>
  <course>0.0</course>
  <speed>0.0</speed>
  <fix>3d</fix>
</trkpt>
<trkpt lat="40.071375" lon="-105.2297889">
  <ele>1583.02</ele>
  <time>2026-08-28T17:54:02Z</time>
  <course>246.98</course>
  <speed>0.022360679774997897</speed>
  <fix>3d</fix>
</trkpt>
<trkpt lat="40.0713749" lon="-105.229789">
  <ele>1583.0</ele>
  <time>2026-08-28T17:54:02Z</time>
  <course>0.0</course>
  <speed>0.0</speed>
  <fix>3d</fix>
</trkpt>
<trkpt lat="40.0713751" lon="-105.2297889">
  <ele>1583.02</ele>
  <time>2026-08-28T17:54:02Z</time>
  <course>246.98</course>
  <speed>0.022360679774997897</speed>
  <fix>3d</fix>
</trkpt>
<trkpt lat="40.0713749" lon="-105.229789">
  <ele>1583.0</ele>
  <time>2026-08-28T17:54:02Z</time>
  <course>0.0</course>
  <speed>0.0</speed>
  <fix>3d</fix>
</trkpt>
<trkpt lat="40.071375" lon="-105.2297889">
  <ele>1583.02</ele>
  <time>2026-08-28T17:54:02Z</time>
  <course>246.97</course>
  <speed>0.022360679774997897</speed>
  <fix>3d</fix>
</trkpt>
<trkpt lat="40.0713749" lon="-105.229789">
  <ele>1583.0</ele>
  <time>2026-08-28T17:54:02Z</time>
  <course>0.0</course>
  <speed>0.0</speed>
  <fix>3d</fix>
</trkpt>
<trkpt lat="40.0713751" lon="-105.2297889">
  <ele>1583.02</ele>
  <time>2026-08-28T17:54:02Z</time>
  <course>246.97</course>
  <speed>0.022360679774997897</speed>
  <fix>3d</fix>
</trkpt>
<trkpt lat="40.0713749" lon="-105.229789">
  <ele>1583.0</ele>
  <time>2026-08-28T17:54:02Z</time>
  <course>0.0</course>
  <speed>0.0</speed>
  <fix>3d</fix>
</trkpt>
<trkpt lat="40.071375" lon="-105.2297889">
  <ele>1583.02</ele>
  <time>2026-08-28T17:54:02Z</time>
  <course>246.97</course>
  <speed>0.022360679774997897</speed>
  <fix>3d</fix>
</trkpt>
<trkpt lat="40.0713749" lon="-105.229789">
  <ele>1583.0</ele>
  <time>2026-08-28T17:54:02Z</time>
  <course>0.0</course>
  <speed>0.0</speed>
  <fix>3d</fix>
</trkpt>
<trkpt lat="40.0713751" lon="-105.2297889">
  <ele>1583.03</ele>
  <time>2026-08-28T17:54:02Z</time>
  <course>246.97</course>
  <speed>0.022360679774997897</speed>
  <fix>3d</fix>
</trkpt>
<trkpt lat="40.0713749" lon="-105.229789">
  <ele>1583.0</ele>
  <time>2026-08-28T17:54:02Z</time>
  <course>0.0</course>
  <speed>0.0</speed>
  <fix>3d</fix>
</trkpt>
<trkpt lat="40.071375" lon="-105.2297889">
  <ele>1583.03</ele>
  <time>2026-08-28T17:54:02Z</time>
  <course>246.97</course>
  <speed>0.022360679774997897</speed>
  <fix>3d</fix>
</trkpt>
<trkpt lat="40.0713749" lon="-105.229789">
  <ele>1583.0</ele>
  <time>2026-08-28T17:54:02Z</time>
  <course>0.0</course>
  <speed>0.0</speed>
  <fix>3d</fix>
</trkpt>
<trkpt lat="40.0713751" lon="-105.2297889">
  <ele>1583.03</ele>
  <time>2026-08-28T17:54:02Z</time>
  <course>246.98</course>
  <speed>0.022360679774997897</speed>
  <fix>3d</fix>
</trkpt>
<trkpt lat="40.0713749" lon="-105.229789">
  <ele>1583.0</ele>
  <time>2026-08-28T17:54:02Z</time>
  <course>0.0</course>
  <speed>0.0</speed>
  <fix>3d</fix>
</trkpt>
<trkpt lat="40.071375" lon="-105.2297889">
  <ele>1583.03</ele>
  <time>2026-08-28T17:54:02Z</time>
  <course>246.98</course>
  <speed>0.022360679774997897</speed>
  <fix>3d</fix>
</trkpt>
<trkpt lat="40.0713749" lon="-105.229789">
  <ele>1583.0</ele>
  <time>2026-08-28T17:54:02Z</time>
  <course>0.0</course>
  <speed>0.0</speed>
  <fix>3d</fix>
</trkpt>
<trkpt lat="40.0713751" lon="-105.2297889">
  <ele>1583.03</ele>
  <time>2026-08-28T17:54:02Z</time>
  <course>246.98</course>
  <speed>0.022360679774997897</speed>
  <fix>3d</fix>
</trkpt>
<trkpt lat="40.0713749" lon="-105.229789">
  <ele>1583.0</ele>
  <time>2026-08-28T17:54:02Z</time>
  <course>0.0</course>
  <speed>0.0</speed>
  <fix>3d</fix>
</trkpt>
<trkpt lat="40.0713751" lon="-105.2297889">
  <ele>1583.03</ele>
  <time>2026-08-28T17:54:02Z</time>
  <course>246.98</course>
  <speed>0.022360679774997897</speed>
  <fix>3d</fix>
</trkpt>
<trkpt lat="40.0713749" lon="-105.229789">
  <ele>1583.0</ele>
  <time>2026-08-28T17:54:02Z</time>
  <course>0.0</course>
  <speed>0.0</speed>
  <fix>3d</fix>
</trkpt>
<trkpt lat="40.0713751" lon="-105.2297889">
  <ele>1583.03</ele>
  <time>2026-08-28T17:54:02Z</time>
  <course>246.98</course>
  <speed>0.022360679774997897</speed>
  <fix>3d</fix>
</trkpt>
<trkpt lat="40.0713749" lon="-105.229789">
  <ele>1583.0</ele>
  <time>2026-08-28T17:54:02Z</time>
  <course>0.0</course>
  <speed>0.0</speed>
  <fix>3d</fix>
</trkpt>
<trkpt lat="40.0713751" lon="-105.2297889">
  <ele>1583.02</ele>
  <time>2026-08-28T17:54:02Z</time>
  <course>246.98</course>
  <speed>0.022360679774997897</speed>
  <fix>3d</fix>
</trkpt>
<trkpt lat="40.0713749" lon="-105.229789">
  <ele>1583.0</ele>
  <time>2026-08-28T17:54:02Z</time>
  <course>0.0</course>
  <speed>0.0</speed>
  <fix>3d</fix>
</trkpt>
<trkpt lat="40.0713751" lon="-105.2297889">
  <ele>1583.01</ele>
  <time>2026-08-28T17:54:02Z</time>
  <course>246.97</course>
  <speed>0.022360679774997897</speed>
  <fix>3d</fix>
</trkpt>
<trkpt lat="40.0713749" lon="-105.229789">
  <ele>1583.0</ele>
  <time>2026-08-28T17:54:02Z</time>
  <course>0.0</course>
  <speed>0.0</speed>
  <fix>3d</fix>
</trkpt>
<trkpt lat="40.0713751" lon="-105.2297889">
  <ele>1583.01</ele>
  <time>2026-08-28T17:54:02Z</time>
  <course>246.97</course>
  <speed>0.022360679774997897</speed>
  <fix>3d</fix>
</trkpt>
<trkpt lat="40.0713749" lon="-105.229789">
  <ele>1583.0</ele>
  <time>2026-08-28T17:54:02Z</time>
  <course>0.0</course>
  <speed>0.0</speed>
  <fix>3d</fix>
</trkpt>
<trkpt lat="40.0713751" lon="-105.2297889">
  <ele>1583.0</ele>
  <time>2026-08-28T17:54:02Z</time>
  <course>246.97</course>
  <speed>0.022360679774997897</speed>
  <fix>3d</fix>
</trkpt>
<trkpt lat="40.0713749" lon="-105.229789">
  <ele>1583.0</ele>
  <time>2026-08-28T17:54:02Z</time>
  <course>0.0</course>
  <speed>0.0</speed>
  <fix>3d</fix>
</trkpt>
<trkpt lat="40.0713751" lon="-105.2297889">
  <ele>1583.0</ele>
  <time>2026-08-28T17:54:02Z</time>
  <course>246.97</course>
  <speed>0.022360679774997897</speed>
  <fix>3d</fix>
</trkpt>
<trkpt lat="40.0713749" lon="-105.229789">
  <ele>1583.0</ele>
  <time>2026-08-28T17:54:02Z</time>
  <course>0.0</course>
  <speed>0.0</speed>
  <fix>3d</fix>
</trkpt>
<trkpt lat="40.0713751" lon="-105.2297889">
  <ele>1582.99</ele>
  <time>2026-08-28T17:54:02Z</time>
  <course>246.97</course>
  <speed>0.022360679774997897</speed>
  <fix>3d</fix>
</trkpt>
<trkpt lat="40.0713749" lon="-105.229789">
  <ele>1583.0</ele>
  <time>2026-08-28T17:54:02Z</time>
  <course>0.0</course>
  <speed>0.0</speed>
  <fix>3d</fix>
</trkpt>
<trkpt lat="40.071375" lon="-105.2297889">
  <ele>1582.99</ele>
  <time>2026-08-28T17:54:02Z</time>
  <course>246.97</course>
  <speed>0.022360679774997897</speed>
  <fix>3d</fix>
</trkpt>
<trkpt lat="40.0713749" lon="-105.229789">
  <ele>1583.0</ele>
  <time>2026-08-28T17:54:02Z</time>
  <course>0.0</course>
  <speed>0.0</speed>
  <fix>3d</fix>
</trkpt>
<trkpt lat="40.0713751" lon="-105.2297889">
  <ele>1582.98</ele>
  <time>2026-08-28T17:54:02Z</time>
  <course>246.97</course>
  <speed>0.022360679774997897</speed>
  <fix>3d</fix>
</trkpt>
<trkpt lat="40.0713749" lon="-105.229789">
  <ele>1583.0</ele>
  <time>2026-08-28T17:54:02Z</time>
  <course>0.0</course>
  <speed>0.0</speed>
  <fix>3d</fix>
</trkpt>
<trkpt lat="40.071375" lon="-105.2297889">
  <ele>1582.98</ele>
  <time>2026-08-28T17:54:02Z</time>
  <course>246.97</course>
  <speed>0.022360679774997897</speed>
  <fix>3d</fix>
</trkpt>
<trkpt lat="40.0713749" lon="-105.229789">
  <ele>1583.0</ele>
  <time>2026-08-28T17:54:02Z</time>
  <course>0.0</course>
  <speed>0.0</speed>
  <fix>3d</fix>
</trkpt>
<trkpt lat="40.0713751" lon="-105.2297889">
  <ele>1582.98</ele>
  <time>2026-08-28T17:54:02Z</time>
  <course>246.97</course>
  <speed>0.022360679774997897</speed>
  <fix>3d</fix>
</trkpt>
<trkpt lat="40.0713749" lon="-105.229789">
  <ele>1583.0</ele>
  <time>2026-08-28T17:54:02Z</time>
  <course>0.0</course>
  <speed>0.0</speed>
  <fix>3d</fix>
</trkpt>
<trkpt lat="40.071375" lon="-105.2297889">
  <ele>1582.98</ele>
  <time>2026-08-28T17:54:02Z</time>
  <course>246.97</course>
  <speed>0.022360679774997897</speed>
  <fix>3d</fix>
</trkpt>
<trkpt lat="40.0713749" lon="-105.229789">
  <ele>1583.0</ele>
  <time>2026-08-28T17:54:02Z</time>
  <course>0.0</course>
  <speed>0.0</speed>
  <fix>3d</fix>
</trkpt>
<trkpt lat="40.0713751" lon="-105.2297889">
  <ele>1582.98</ele>
  <time>2026-08-28T17:54:02Z</time>
  <course>246.97</course>
  <speed>0.022360679774997897</speed>
  <fix>3d</fix>
</trkpt>
<trkpt lat="40.0713749" lon="-105.229789">
  <ele>1583.0</ele>
  <time>2026-08-28T17:54:02Z</time>
  <course>0.0</course>
  <speed>0.0</speed>
  <fix>3d</fix>
</trkpt>
<trkpt lat="40.071375" lon="-105.2297889">
  <ele>1582.98</ele>
  <time>2026-08-28T17:54:02Z</time>
  <course>246.97</course>
  <speed>0.022360679774997897</speed>
  <fix>3d</fix>
</trkpt>
<trkpt lat="40.0713749" lon="-105.229789">
  <ele>1583.0</ele>
  <time>2026-08-28T17:54:02Z</time>
  <course>0.0</course>
  <speed>0.0</speed>
  <fix>3d</fix>
</trkpt>
<trkpt lat="40.0713751" lon="-105.2297889">
  <ele>1582.98</ele>
  <time>2026-08-28T17:54:02Z</time>
  <course>246.97</course>
  <speed>0.022360679774997897</speed>
  <fix>3d</fix>
</trkpt>
<trkpt lat="40.0713749" lon="-105.229789">
  <ele>1583.0</ele>
  <time>2026-08-28T17:54:02Z</time>
  <course>0.0</course>
  <speed>0.0</speed>
  <fix>3d</fix>
</trkpt>
<trkpt lat="40.071375" lon="-105.2297889">
  <ele>1582.99</ele>
  <time>2026-08-28T17:54:02Z</time>
  <course>246.97</course>
  <speed>0.022360679774997897</speed>
  <fix>3d</fix>
</trkpt>
<trkpt lat="40.0713749" lon="-105.229789">
  <ele>1583.0</ele>
  <time>2026-08-28T17:54:02Z</time>
  <course>0.0</course>
  <speed>0.0</speed>
  <fix>3d</fix>
</trkpt>
<trkpt lat="40.0713751" lon="-105.2297889">
  <ele>1582.99</ele>
  <time>2026-08-28T17:54:02Z</time>
  <course>246.97</course>
  <speed>0.022360679774997897</speed>
  <fix>3d</fix>
</trkpt>
<trkpt lat="40.0713749" lon="-105.229789">
  <ele>1583.0</ele>
  <time>2026-08-28T17:54:02Z</time>
  <course>0.0</course>
  <speed>0.0</speed>
  <fix>3d</fix>
</trkpt>
<trkpt lat="40.071375" lon="-105.2297889">
  <ele>1582.99</ele>
  <time>2026-08-28T17:54:02Z</time>
  <course>246.97</course>
  <speed>0.022360679774997897</speed>
  <fix>3d</fix>
</trkpt>
<trkpt lat="40.0713749" lon="-105.229789">
  <ele>1583.0</ele>
  <time>2026-08-28T17:54:02Z</time>
  <course>0.0</course>
  <speed>0.0</speed>
  <fix>3d</fix>
</trkpt>
<trkpt lat="40.0713751" lon="-105.2297889">
  <ele>1583.0</ele>
  <time>2026-08-28T17:54:02Z</time>
  <course>246.97</course>
  <speed>0.022360679774997897</speed>
  <fix>3d</fix>
</trkpt>
<trkpt lat="40.0713749" lon="-105.229789">
  <ele>1583.0</ele>
  <time>2026-08-28T17:54:02Z</time>
  <course>0.0</course>
  <speed>0.0</speed>
  <fix>3d</fix>
</trkpt>
<trkpt lat="40.0713751" lon="-105.2297889">
  <ele>1583.0</ele>
  <time>2026-08-28T17:54:02Z</time>
  <course>246.97</course>
  <speed>0.022360679774997897</speed>
  <fix>3d</fix>
</trkpt>
<trkpt lat="40.0713749" lon="-105.229789">
  <ele>1583.0</ele>
  <time>2026-08-28T17:54:02Z</time>
  <course>0.0</course>
  <speed>0.0</speed>
  <fix>3d</fix>
</trkpt>
<trkpt lat="40.0713751" lon="-105.2297889">
  <ele>1583.0</ele>
  <time>2026-08-28T17:54:02Z</time>
  <course>246.97</course>
  <speed>0.022360679774997897</speed>
  <fix>3d</fix>
</trkpt>
<trkpt lat="40.0713749" lon="-105.229789">
  <ele>1583.0</ele>
  <time>2026-08-28T17:54:02Z</time>
  <course>0.0</course>
  <speed>0.0</speed>
  <fix>3d</fix>
</trkpt>
<trkpt lat="40.0713751" lon="-105.2297889">
  <ele>1583.01</ele>
  <time>2026-08-28T17:54:02Z</time>
  <course>246.97</course>
  <speed>0.022360679774997897</speed>
  <fix>3d</fix>
</trkpt>
<trkpt lat="40.0713749" lon="-105.229789">
  <ele>1583.0</ele>
  <time>2026-08-28T17:54:02Z</time>
  <course>0.0</course>
  <speed>0.0</speed>
  <fix>3d</fix>
</trkpt>
<trkpt lat="40.0713751" lon="-105.2297889">
  <ele>1583.01</ele>
  <time>2026-08-28T17:54:02Z</time>
  <course>246.97</course>
  <speed>0.022360679774997897</speed>
  <fix>3d</fix>
</trkpt>
<trkpt lat="40.0713749" lon="-105.229789">
  <ele>1583.0</ele>
  <time>2026-08-28T17:54:02Z</time>
  <course>0.0</course>
  <speed>0.0</speed>
  <fix>3d</fix>
</trkpt>
<trkpt lat="40.0713751" lon="-105.2297889">
  <ele>1583.01</ele>
  <time>2026-08-28T17:54:02Z</time>
  <course>246.97</course>
  <speed>0.022360679774997897</speed>
  <fix>3d</fix>
</trkpt>
<trkpt lat="40.0713749" lon="-105.229789">
  <ele>1583.0</ele>
  <time>2026-08-28T17:54:02Z</time>
  <course>0.0</course>
  <speed>0.0</speed>
  <fix>3d</fix>
</trkpt>
<trkpt lat="40.0713751" lon="-105.2297889">
  <ele>1583.01</ele>
  <time>2026-08-28T17:54:02Z</time>
  <course>246.97</course>
  <speed>0.022360679774997897</speed>
  <fix>3d</fix>
</trkpt>
<trkpt lat="40.0713749" lon="-105.229789">
  <ele>1583.0</ele>
  <time>2026-08-28T17:54:02Z</time>
  <course>0.0</course>
  <speed>0.0</speed>
  <fix>3d</fix>
</trkpt>
<trkpt lat="40.0713751" lon="-105.2297889">
  <ele>1583.01</ele>
  <time>2026-08-28T17:54:02Z</time>
  <course>246.97</course>
  <speed>0.022360679774997897</speed>
  <fix>3d</fix>
</trkpt>
<trkpt lat="40.0713749" lon="-105.229789">
  <ele>1583.0</ele>
  <time>2026-08-28T17:54:02Z</time>
  <course>0.0</course>
  <speed>0.0</speed>
  <fix>3d</fix>
</trkpt>
<trkpt lat="40.0713751" lon="-105.2297889">
  <ele>1583.01</ele>
  <time>2026-08-28T17:54:02Z</time>
  <course>246.97</course>
  <speed>0.022360679774997897</speed>
  <fix>3d</fix>
</trkpt>
<trkpt lat="40.0713749" lon="-105.229789">
  <ele>1583.0</ele>
  <time>2026-08-28T17:54:02Z</time>
  <course>0.0</course>
  <speed>0.0</speed>
  <fix>3d</fix>
</trkpt>
<trkpt lat="40.0713751" lon="-105.2297889">
  <ele>1583.01</ele>
  <time>2026-08-28T17:54:02Z</time>
  <course>246.97</course>
  <speed>0.022360679774997897</speed>
  <fix>3d</fix>
</trkpt>
<trkpt lat="40.0713749" lon="-105.229789">
  <ele>1583.0</ele>
  <time>2026-08-28T17:54:02Z</time>
  <course>0.0</course>
  <speed>0.0</speed>
  <fix>3d</fix>
</trkpt>
<trkpt lat="40.0713751" lon="-105.2297889">
  <ele>1583.01</ele>
  <time>2026-08-28T17:54:02Z</time>
  <course>246.97</course>
  <speed>0.022360679774997897</speed>
  <fix>3d</fix>
</trkpt>
<trkpt lat="40.0713749" lon="-105.229789">
  <ele>1583.0</ele>
  <time>2026-08-28T17:54:02Z</time>
  <course>0.0</course>
  <speed>0.0</speed>
  <fix>3d</fix>
</trkpt>
<trkpt lat="40.0713751" lon="-105.2297889">
  <ele>1583.01</ele>
  <time>2026-08-28T17:54:02Z</time>
  <course>246.97</course>
  <speed>0.022360679774997897</speed>
  <fix>3d</fix>
</trkpt>
<trkpt lat="40.0713749" lon="-105.229789">
  <ele>1583.0</ele>
  <time>2026-08-28T17:54:02Z</time>
  <course>0.0</course>
  <speed>0.0</speed>
  <fix>3d</fix>
</trkpt>
<trkpt lat="40.0713751" lon="-105.2297889">
  <ele>1583.01</ele>
  <time>2026-08-28T17:54:02Z</time>
  <course>246.97</course>
  <speed>0.022360679774997897</speed>
  <fix>3d</fix>
</trkpt>
<trkpt lat="40.0713749" lon="-105.229789">
  <ele>1583.0</ele>
  <time>2026-08-28T17:54:02Z</time>
  <course>0.0</course>
  <speed>0.0</speed>
  <fix>3d</fix>
</trkpt>
<trkpt lat="40.0713751" lon="-105.2297889">
  <ele>1583.01</ele>
  <time>2026-08-28T17:54:02Z</time>
  <course>246.97</course>
  <speed>0.022360679774997897</speed>
  <fix>3d</fix>
</trkpt>
<trkpt lat="40.0713749" lon="-105.229789">
  <ele>1583.0</ele>
  <time>2026-08-28T17:54:02Z</time>
  <course>0.0</course>
  <speed>0.0</speed>
  <fix>3d</fix>
</trkpt>
<trkpt lat="40.0713751" lon="-105.2297889">
  <ele>1583.01</ele>
  <time>2026-08-28T17:54:02Z</time>
  <course>246.97</course>
  <speed>0.022360679774997897</speed>
  <fix>3d</fix>
</trkpt>
<trkpt lat="40.0713749" lon="-105.229789">
  <ele>1583.0</ele>
  <time>2026-08-28T17:54:02Z</time>
  <course>0.0</course>
  <speed>0.0</speed>
  <fix>3d</fix>
</trkpt>
<trkpt lat="40.0713751" lon="-105.2297889">
  <ele>1583.01</ele>
  <time>2026-08-28T17:54:02Z</time>
  <course>246.97</course>
  <speed>0.022360679774997897</speed>
  <fix>3d</fix>
</trkpt>
<trkpt lat="40.0713749" lon="-105.229789">
  <ele>1583.0</ele>
  <time>2026-08-28T17:54:02Z</time>
  <course>0.0</course>
  <speed>0.0</speed>
  <fix>3d</fix>
</trkpt>
<trkpt lat="40.0713751" lon="-105.2297889">
  <ele>1583.01</ele>
  <time>2026-08-28T17:54:02Z</time>
  <course>246.97</course>
  <speed>0.022360679774997897</speed>
  <fix>3d</fix>
</trkpt>
<trkpt lat="40.0713749" lon="-105.229789">
  <ele>1583.0</ele>
  <time>2026-08-28T17:54:02Z</time>
  <course>0.0</course>
  <speed>0.0</speed>
  <fix>3d</fix>
</trkpt>
<trkpt lat="40.0713751" lon="-105.2297889">
  <ele>1583.01</ele>
  <time>2026-08-28T17:54:02Z</time>
  <course>246.97</course>
  <speed>0.022360679774997897</speed>
  <fix>3d</fix>
</trkpt>
<trkpt lat="40.0713749" lon="-105.229789">
  <ele>1583.0</ele>
  <time>2026-08-28T17:54:02Z</time>
  <course>0.0</course>
  <speed>0.0</speed>
  <fix>3d</fix>
</trkpt>
<trkpt lat="40.0713751" lon="-105.2297889">
  <ele>1583.01</ele>
  <time>2026-08-28T17:54:02Z</time>
  <course>246.97</course>
  <speed>0.022360679774997897</speed>
  <fix>3d</fix>
</trkpt>
<trkpt lat="40.0713749" lon="-105.229789">
  <ele>1583.0</ele>
  <time>2026-08-28T17:54:02Z</time>
  <course>0.0</course>
  <speed>0.0</speed>
  <fix>3d</fix>
</trkpt>
<trkpt lat="40.0713751" lon="-105.2297889">
  <ele>1583.01</ele>
  <time>2026-08-28T17:54:02Z</time>
  <course>246.97</course>
  <speed>0.022360679774997897</speed>
  <fix>3d</fix>
</trkpt>
<trkpt lat="40.0713749" lon="-105.229789">
  <ele>1583.0</ele>
  <time>2026-08-28T17:54:02Z</time>
  <course>0.0</course>
  <speed>0.0</speed>
  <fix>3d</fix>
</trkpt>
<trkpt lat="40.0713751" lon="-105.2297889">
  <ele>1583.01</ele>
  <time>2026-08-28T17:54:02Z</time>
  <course>246.97</course>
  <speed>0.022360679774997897</speed>
  <fix>3d</fix>
</trkpt>
<trkpt lat="40.0713749" lon="-105.229789">
  <ele>1583.0</ele>
  <time>2026-08-28T17:54:02Z</time>
  <course>0.0</course>
  <speed>0.0</speed>
  <fix>3d</fix>
</trkpt>
<trkpt lat="40.0713751" lon="-105.2297889">
  <ele>1583.01</ele>
  <time>2026-08-28T17:54:02Z</time>
  <course>246.97</course>
  <speed>0.022360679774997897</speed>
  <fix>3d</fix>
</trkpt>
<trkpt lat="40.0713749" lon="-105.229789">
  <ele>1583.0</ele>
  <time>2026-08-28T17:54:02Z</time>
  <course>0.0</course>
  <speed>0.0</speed>
  <fix>3d</fix>
</trkpt>
<trkpt lat="40.0713751" lon="-105.2297889">
  <ele>1583.0</ele>
  <time>2026-08-28T17:54:02Z</time>
  <course>246.97</course>
  <speed>0.022360679774997897</speed>
  <fix>3d</fix>
</trkpt>
<trkpt lat="40.0713749" lon="-105.229789">
  <ele>1583.0</ele>
  <time>2026-08-28T17:54:02Z</time>
  <course>0.0</course>
  <speed>0.0</speed>
  <fix>3d</fix>
</trkpt>
<trkpt lat="40.0713751" lon="-105.2297889">
  <ele>1583.0</ele>
  <time>2026-08-28T17:54:02Z</time>
  <course>246.97</course>
  <speed>0.022360679774997897</speed>
  <fix>3d</fix>
</trkpt>
<trkpt lat="40.0713749" lon="-105.229789">
  <ele>1583.0</ele>
  <time>2026-08-28T17:54:02Z</time>
  <course>0.0</course>
  <speed>0.0</speed>
  <fix>3d</fix>
</trkpt>
<trkpt lat="40.0713751" lon="-105.2297889">
  <ele>1583.0</ele>
  <time>2026-08-28T17:54:02Z</time>
  <course>246.97</course>
  <speed>0.022360679774997897</speed>
  <fix>3d</fix>
</trkpt>
<trkpt lat="40.0713749" lon="-105.229789">
  <ele>1583.0</ele>
  <time>2026-08-28T17:54:02Z</time>
  <course>0.0</course>
  <speed>0.0</speed>
  <fix>3d</fix>
</trkpt>
<trkpt lat="40.0713751" lon="-105.2297889">
  <ele>1583.0</ele>
  <time>2026-08-28T17:54:02Z</time>
  <course>246.97</course>
  <speed>0.022360679774997897</speed>
  <fix>3d</fix>
</trkpt>
<trkpt lat="40.0713749" lon="-105.229789">
  <ele>1583.0</ele>
  <time>2026-08-28T17:54:02Z</time>
  <course>0.0</course>
  <speed>0.0</speed>
  <fix>3d</fix>
</trkpt>
<trkpt lat="40.0713751" lon="-105.2297889">
  <ele>1583.0</ele>
  <time>2026-08-28T17:54:02Z</time>
  <course>246.97</course>
  <speed>0.022360679774997897</speed>
  <fix>3d</fix>
</trkpt>
<trkpt lat="40.0713749" lon="-105.229789">
  <ele>1583.0</ele>
  <time>2026-08-28T17:54:02Z</time>
  <course>0.0</course>
  <speed>0.0</speed>
  <fix>3d</fix>
</trkpt>
<trkpt lat="40.0713751" lon="-105.2297889">
  <ele>1583.0</ele>
  <time>2026-08-28T17:54:02Z</time>
  <course>246.97</course>
  <speed>0.022360679774997897</speed>
  <fix>3d</fix>
</trkpt>
<trkpt lat="40.0713749" lon="-105.229789">
  <ele>1583.0</ele>
  <time>2026-08-28T17:54:02Z</time>
  <course>0.0</course>
  <speed>0.0</speed>
  <fix>3d</fix>
</trkpt>
<trkpt lat="40.0713751" lon="-105.2297889">
  <ele>1583.0</ele>
  <time>2026-08-28T17:54:02Z</time>
  <course>246.97</course>
  <speed>0.022360679774997897</speed>
  <fix>3d</fix>
</trkpt>
<trkpt lat="40.0713749" lon="-105.229789">
  <ele>1583.0</ele>
  <time>2026-08-28T17:54:02Z</time>
  <course>0.0</course>
  <speed>0.0</speed>
  <fix>3d</fix>
</trkpt>
<trkpt lat="40.0713751" lon="-105.2297889">
  <ele>1583.0</ele>
  <time>2026-08-28T17:54:02Z</time>
  <course>246.97</course>
  <speed>0.022360679774997897</speed>
  <fix>3d</fix>
</trkpt>
<trkpt lat="40.0713749" lon="-105.229789">
  <ele>1583.0</ele>
  <time>2026-08-28T17:54:02Z</time>
  <course>0.0</course>
  <speed>0.0</speed>
  <fix>3d</fix>
</trkpt>
<trkpt lat="40.0713751" lon="-105.2297889">
  <ele>1583.0</ele>
  <time>2026-08-28T17:54:02Z</time>
  <course>246.97</course>
  <speed>0.022360679774997897</speed>
  <fix>3d</fix>
</trkpt>
<trkpt lat="40.0713749" lon="-105.229789">
  <ele>1583.0</ele>
  <time>2026-08-28T17:54:02Z</time>
  <course>0.0</course>
  <speed>0.0</speed>
  <fix>3d</fix>
</trkpt>
<trkpt lat="40.0713751" lon="-105.2297889">
  <ele>1583.0</ele>
  <time>2026-08-28T17:54:02Z</time>
  <course>246.97</course>
  <speed>0.022360679774997897</speed>
  <fix>3d</fix>
</trkpt>
<trkpt lat="40.0713749" lon="-105.229789">
  <ele>1583.0</ele>
  <time>2026-08-28T17:54:02Z</time>
  <course>0.0</course>
  <speed>0.0</speed>
  <fix>3d</fix>
</trkpt>
<trkpt lat="40.0713751" lon="-105.2297889">
  <ele>1583.0</ele>
  <time>2026-08-28T17:54:02Z</time>
  <course>246.97</course>
  <speed>0.022360679774997897</speed>
  <fix>3d</fix>
</trkpt>
<trkpt lat="40.0713749" lon="-105.229789">
  <ele>1583.0</ele>
  <time>2026-08-28T17:54:02Z</time>
  <course>0.0</course>
  <speed>0.0</speed>
  <fix>3d</fix>
</trkpt>
<trkpt lat="40.0713751" lon="-105.2297889">
  <ele>1582.99</ele>
  <time>2026-08-28T17:54:03Z</time>
  <course>246.97</course>
  <speed>0.022360679774997897</speed>
  <fix>3d</fix>
</trkpt>
<trkpt lat="40.0713749" lon="-105.229789">
  <ele>1583.0</ele>
  <time>2026-08-28T17:54:03Z</time>
  <course>0.0</course>
  <speed>0.0</speed>
  <fix>3d</fix>
</trkpt>
<trkpt lat="40.0713751" lon="-105.2297889">
  <ele>1582.99</ele>
  <time>2026-08-28T17:54:03Z</time>
  <course>246.97</course>
  <speed>0.022360679774997897</speed>
  <fix>3d</fix>
</trkpt>
<trkpt lat="40.0713749" lon="-105.229789">
  <ele>1583.0</ele>
  <time>2026-08-28T17:54:03Z</time>
  <course>0.0</course>
  <speed>0.0</speed>
  <fix>3d</fix>
</trkpt>
<trkpt lat="40.0713751" lon="-105.2297889">
  <ele>1582.99</ele>
  <time>2026-08-28T17:54:03Z</time>
  <course>246.97</course>
  <speed>0.022360679774997897</speed>
  <fix>3d</fix>
</trkpt>
<trkpt lat="40.0713749" lon="-105.229789">
  <ele>1583.0</ele>
  <time>2026-08-28T17:54:03Z</time>
  <course>0.0</course>
  <speed>0.0</speed>
  <fix>3d</fix>
</trkpt>
<trkpt lat="40.0713751" lon="-105.2297889">
  <ele>1582.99</ele>
  <time>2026-08-28T17:54:03Z</time>
  <course>246.97</course>
  <speed>0.022360679774997897</speed>
  <fix>3d</fix>
</trkpt>
<trkpt lat="40.0713749" lon="-105.229789">
  <ele>1583.0</ele>
  <time>2026-08-28T17:54:03Z</time>
  <course>0.0</course>
  <speed>0.0</speed>
  <fix>3d</fix>
</trkpt>
<trkpt lat="40.0713751" lon="-105.2297889">
  <ele>1582.98</ele>
  <time>2026-08-28T17:54:03Z</time>
  <course>246.97</course>
  <speed>0.022360679774997897</speed>
  <fix>3d</fix>
</trkpt>
<trkpt lat="40.0713749" lon="-105.229789">
  <ele>1583.0</ele>
  <time>2026-08-28T17:54:03Z</time>
  <course>0.0</course>
  <speed>0.0</speed>
  <fix>3d</fix>
</trkpt>
<trkpt lat="40.0713751" lon="-105.2297889">
  <ele>1582.98</ele>
  <time>2026-08-28T17:54:03Z</time>
  <course>246.97</course>
  <speed>0.022360679774997897</speed>
  <fix>3d</fix>
</trkpt>
<trkpt lat="40.0713749" lon="-105.229789">
  <ele>1583.0</ele>
  <time>2026-08-28T17:54:03Z</time>
  <course>0.0</course>
  <speed>0.0</speed>
  <fix>3d</fix>
</trkpt>
<trkpt lat="40.0713751" lon="-105.2297889">
  <ele>1582.98</ele>
  <time>2026-08-28T17:54:03Z</time>
  <course>246.97</course>
  <speed>0.022360679774997897</speed>
  <fix>3d</fix>
</trkpt>
<trkpt lat="40.0713749" lon="-105.229789">
  <ele>1583.0</ele>
  <time>2026-08-28T17:54:03Z</time>
  <course>0.0</course>
  <speed>0.0</speed>
  <fix>3d</fix>
</trkpt>
<trkpt lat="40.0713751" lon="-105.2297889">
  <ele>1582.98</ele>
  <time>2026-08-28T17:54:03Z</time>
  <course>246.97</course>
  <speed>0.022360679774997897</speed>
  <fix>3d</fix>
</trkpt>
<trkpt lat="40.0713749" lon="-105.229789">
  <ele>1583.0</ele>
  <time>2026-08-28T17:54:03Z</time>
  <course>0.0</course>
  <speed>0.0</speed>
  <fix>3d</fix>
</trkpt>
<trkpt lat="40.0713751" lon="-105.2297889">
  <ele>1582.98</ele>
  <time>2026-08-28T17:54:03Z</time>
  <course>246.97</course>
  <speed>0.022360679774997897</speed>
  <fix>3d</fix>
</trkpt>
<trkpt lat="40.0713749" lon="-105.229789">
  <ele>1583.0</ele>
  <time>2026-08-28T17:54:03Z</time>
  <course>0.0</course>
  <speed>0.0</speed>
  <fix>3d</fix>
</trkpt>
<trkpt lat="40.0713751" lon="-105.2297889">
  <ele>1582.98</ele>
  <time>2026-08-28T17:54:03Z</time>
  <course>246.97</course>
  <speed>0.022360679774997897</speed>
  <fix>3d</fix>
</trkpt>
<trkpt lat="40.0713749" lon="-105.229789">
  <ele>1583.0</ele>
  <time>2026-08-28T17:54:03Z</time>
  <course>0.0</course>
  <speed>0.0</speed>
  <fix>3d</fix>
</trkpt>
<trkpt lat="40.0713751" lon="-105.2297889">
  <ele>1582.98</ele>
  <time>2026-08-28T17:54:03Z</time>
  <course>246.97</course>
  <speed>0.022360679774997897</speed>
  <fix>3d</fix>
</trkpt>
<trkpt lat="40.0713749" lon="-105.229789">
  <ele>1583.0</ele>
  <time>2026-08-28T17:54:03Z</time>
  <course>0.0</course>
  <speed>0.0</speed>
  <fix>3d</fix>
</trkpt>
<trkpt lat="40.0713751" lon="-105.2297889">
  <ele>1582.99</ele>
  <time>2026-08-28T17:54:03Z</time>
  <course>246.97</course>
  <speed>0.022360679774997897</speed>
  <fix>3d</fix>
</trkpt>
<trkpt lat="40.0713749" lon="-105.229789">
  <ele>1583.0</ele>
  <time>2026-08-28T17:54:03Z</time>
  <course>0.0</course>
  <speed>0.0</speed>
  <fix>3d</fix>
</trkpt>
<trkpt lat="40.0713751" lon="-105.2297889">
  <ele>1582.99</ele>
  <time>2026-08-28T17:54:03Z</time>
  <course>246.97</course>
  <speed>0.022360679774997897</speed>
  <fix>3d</fix>
</trkpt>
<trkpt lat="40.0713749" lon="-105.229789">
  <ele>1583.0</ele>
  <time>2026-08-28T17:54:03Z</time>
  <course>0.0</course>
  <speed>0.0</speed>
  <fix>3d</fix>
</trkpt>
<trkpt lat="40.0713751" lon="-105.2297889">
  <ele>1582.99</ele>
  <time>2026-08-28T17:54:03Z</time>
  <course>246.97</course>
  <speed>0.022360679774997897</speed>
  <fix>3d</fix>
</trkpt>
<trkpt lat="40.0713749" lon="-105.229789">
  <ele>1583.0</ele>
  <time>2026-08-28T17:54:03Z</time>
  <course>0.0</course>
  <speed>0.0</speed>
  <fix>3d</fix>
</trkpt>
<trkpt lat="40.0713751" lon="-105.2297889">
  <ele>1582.99</ele>
  <time>2026-08-28T17:54:03Z</time>
  <course>246.97</course>
  <speed>0.022360679774997897</speed>
  <fix>3d</fix>
</trkpt>
<trkpt lat="40.0713749" lon="-105.229789">
  <ele>1583.0</ele>
  <time>2026-08-28T17:54:03Z</time>
  <course>0.0</course>
  <speed>0.0</speed>
  <fix>3d</fix>
</trkpt>
<trkpt lat="40.0713751" lon="-105.2297889">
  <ele>1582.99</ele>
  <time>2026-08-28T17:54:03Z</time>
  <course>246.97</course>
  <speed>0.022360679774997897</speed>
  <fix>3d</fix>
</trkpt>
<trkpt lat="40.0713749" lon="-105.229789">
  <ele>1583.0</ele>
  <time>2026-08-28T17:54:03Z</time>
  <course>0.0</course>
  <speed>0.0</speed>
  <fix>3d</fix>
</trkpt>
<trkpt lat="40.0713751" lon="-105.2297889">
  <ele>1582.99</ele>
  <time>2026-08-28T17:54:03Z</time>
  <course>246.97</course>
  <speed>0.022360679774997897</speed>
  <fix>3d</fix>
</trkpt>
<trkpt lat="40.0713749" lon="-105.229789">
  <ele>1583.0</ele>
  <time>2026-08-28T17:54:03Z</time>
  <course>0.0</course>
  <speed>0.0</speed>
  <fix>3d</fix>
</trkpt>
<trkpt lat="40.0713751" lon="-105.2297889">
  <ele>1582.99</ele>
  <time>2026-08-28T17:54:03Z</time>
  <course>246.97</course>
  <speed>0.022360679774997897</speed>
  <fix>3d</fix>
</trkpt>
<trkpt lat="40.0713749" lon="-105.229789">
  <ele>1583.0</ele>
  <time>2026-08-28T17:54:03Z</time>
  <course>0.0</course>
  <speed>0.0</speed>
  <fix>3d</fix>
</trkpt>
<trkpt lat="40.0713751" lon="-105.2297889">
  <ele>1582.99</ele>
  <time>2026-08-28T17:54:03Z</time>
  <course>246.97</course>
  <speed>0.022360679774997897</speed>
  <fix>3d</fix>
</trkpt>
<trkpt lat="40.0713749" lon="-105.229789">
  <ele>1583.0</ele>
  <time>2026-08-28T17:54:03Z</time>
  <course>0.0</course>
  <speed>0.0</speed>
  <fix>3d</fix>
</trkpt>
<trkpt lat="40.0713751" lon="-105.2297889">
  <ele>1582.99</ele>
  <time>2026-08-28T17:54:03Z</time>
  <course>246.97</course>
  <speed>0.022360679774997897</speed>
  <fix>3d</fix>
</trkpt>
<trkpt lat="40.0713749" lon="-105.229789">
  <ele>1583.0</ele>
  <time>2026-08-28T17:54:03Z</time>
  <course>0.0</course>
  <speed>0.0</speed>
  <fix>3d</fix>
</trkpt>
<trkpt lat="40.0713751" lon="-105.2297889">
  <ele>1582.99</ele>
  <time>2026-08-28T17:54:03Z</time>
  <course>246.97</course>
  <speed>0.022360679774997897</speed>
  <fix>3d</fix>
</trkpt>
<trkpt lat="40.0713749" lon="-105.229789">
  <ele>1583.0</ele>
  <time>2026-08-28T17:54:03Z</time>
  <course>0.0</course>
  <speed>0.0</speed>
  <fix>3d</fix>
</trkpt>
<trkpt lat="40.0713751" lon="-105.2297889">
  <ele>1582.99</ele>
  <time>2026-08-28T17:54:03Z</time>
  <course>246.97</course>
  <speed>0.022360679774997897</speed>
  <fix>3d</fix>
</trkpt>
<trkpt lat="40.0713749" lon="-105.229789">
  <ele>1583.0</ele>
  <time>2026-08-28T17:54:03Z</time>
  <course>0.0</course>
  <speed>0.0</speed>
  <fix>3d</fix>
</trkpt>
<trkpt lat="40.071375" lon="-105.2297889">
  <ele>1582.99</ele>
  <time>2026-08-28T17:54:03Z</time>
  <course>246.97</course>
  <speed>0.022360679774997897</speed>
  <fix>3d</fix>
</trkpt>
<trkpt lat="40.0713749" lon="-105.229789">
  <ele>1583.0</ele>
  <time>2026-08-28T17:54:03Z</time>
  <course>0.0</course>
  <speed>0.0</speed>
  <fix>3d</fix>
</trkpt>
<trkpt lat="40.0713751" lon="-105.2297889">
  <ele>1582.98</ele>
  <time>2026-08-28T17:54:03Z</time>
  <course>246.97</course>
  <speed>0.022360679774997897</speed>
  <fix>3d</fix>
</trkpt>
<trkpt lat="40.0713749" lon="-105.229789">
  <ele>1583.0</ele>
  <time>2026-08-28T17:54:03Z</time>
  <course>0.0</course>
  <speed>0.0</speed>
  <fix>3d</fix>
</trkpt>
<trkpt lat="40.0713751" lon="-105.2297889">
  <ele>1582.98</ele>
  <time>2026-08-28T17:54:03Z</time>
  <course>246.97</course>
  <speed>0.022360679774997897</speed>
  <fix>3d</fix>
</trkpt>
<trkpt lat="40.0713749" lon="-105.229789">
  <ele>1583.0</ele>
  <time>2026-08-28T17:54:03Z</time>
  <course>0.0</course>
  <speed>0.0</speed>
  <fix>3d</fix>
</trkpt>
<trkpt lat="40.0713751" lon="-105.2297889">
  <ele>1582.98</ele>
  <time>2026-08-28T17:54:03Z</time>
  <course>246.97</course>
  <speed>0.022360679774997897</speed>
  <fix>3d</fix>
</trkpt>
<trkpt lat="40.0713749" lon="-105.229789">
  <ele>1583.0</ele>
  <time>2026-08-28T17:54:03Z</time>
  <course>0.0</course>
  <speed>0.0</speed>
  <fix>3d</fix>
</trkpt>
<trkpt lat="40.0713751" lon="-105.2297889">
  <ele>1582.98</ele>
  <time>2026-08-28T17:54:03Z</time>
  <course>246.97</course>
  <speed>0.022360679774997897</speed>
  <fix>3d</fix>
</trkpt>
<trkpt lat="40.0713749" lon="-105.229789">
  <ele>1583.0</ele>
  <time>2026-08-28T17:54:03Z</time>
  <course>0.0</course>
  <speed>0.0</speed>
  <fix>3d</fix>
</trkpt>
<trkpt lat="40.0713751" lon="-105.2297889">
  <ele>1582.98</ele>
  <time>2026-08-28T17:54:03Z</time>
  <course>246.97</course>
  <speed>0.022360679774997897</speed>
  <fix>3d</fix>
</trkpt>
<trkpt lat="40.0713749" lon="-105.229789">
  <ele>1583.0</ele>
  <time>2026-08-28T17:54:03Z</time>
  <course>0.0</course>
  <speed>0.0</speed>
  <fix>3d</fix>
</trkpt>
<trkpt lat="40.0713751" lon="-105.2297889">
  <ele>1582.98</ele>
  <time>2026-08-28T17:54:03Z</time>
  <course>246.97</course>
  <speed>0.022360679774997897</speed>
  <fix>3d</fix>
</trkpt>
<trkpt lat="40.0713749" lon="-105.229789">
  <ele>1583.0</ele>
  <time>2026-08-28T17:54:03Z</time>
  <course>0.0</course>
  <speed>0.0</speed>
  <fix>3d</fix>
</trkpt>
<trkpt lat="40.0713751" lon="-105.2297889">
  <ele>1582.98</ele>
  <time>2026-08-28T17:54:03Z</time>
  <course>246.97</course>
  <speed>0.022360679774997897</speed>
  <fix>3d</fix>
</trkpt>
<trkpt lat="40.0713749" lon="-105.229789">
  <ele>1583.0</ele>
  <time>2026-08-28T17:54:03Z</time>
  <course>0.0</course>
  <speed>0.0</speed>
  <fix>3d</fix>
</trkpt>
<trkpt lat="40.0713751" lon="-105.2297889">
  <ele>1582.98</ele>
  <time>2026-08-28T17:54:03Z</time>
  <course>246.97</course>
  <speed>0.022360679774997897</speed>
  <fix>3d</fix>
</trkpt>
<trkpt lat="40.0713749" lon="-105.229789">
  <ele>1583.0</ele>
  <time>2026-08-28T17:54:03Z</time>
  <course>0.0</course>
  <speed>0.0</speed>
  <fix>3d</fix>
</trkpt>
<trkpt lat="40.0713751" lon="-105.2297889">
  <ele>1582.98</ele>
  <time>2026-08-28T17:54:03Z</time>
  <course>246.97</course>
  <speed>0.022360679774997897</speed>
  <fix>3d</fix>
</trkpt>
<trkpt lat="40.0713749" lon="-105.229789">
  <ele>1583.0</ele>
  <time>2026-08-28T17:54:03Z</time>
  <course>0.0</course>
  <speed>0.0</speed>
  <fix>3d</fix>
</trkpt>
<trkpt lat="40.0713751" lon="-105.2297889">
  <ele>1582.98</ele>
  <time>2026-08-28T17:54:03Z</time>
  <course>246.97</course>
  <speed>0.022360679774997897</speed>
  <fix>3d</fix>
</trkpt>
<trkpt lat="40.0713749" lon="-105.229789">
  <ele>1583.0</ele>
  <time>2026-08-28T17:54:03Z</time>
  <course>0.0</course>
  <speed>0.0</speed>
  <fix>3d</fix>
</trkpt>
<trkpt lat="40.0713751" lon="-105.2297889">
  <ele>1582.99</ele>
  <time>2026-08-28T17:54:03Z</time>
  <course>246.97</course>
  <speed>0.022360679774997897</speed>
  <fix>3d</fix>
</trkpt>
<trkpt lat="40.0713749" lon="-105.229789">
  <ele>1583.0</ele>
  <time>2026-08-28T17:54:03Z</time>
  <course>0.0</course>
  <speed>0.0</speed>
  <fix>3d</fix>
</trkpt>
<trkpt lat="40.0713751" lon="-105.2297889">
  <ele>1582.99</ele>
  <time>2026-08-28T17:54:03Z</time>
  <course>246.97</course>
  <speed>0.022360679774997897</speed>
  <fix>3d</fix>
</trkpt>
<trkpt lat="40.0713749" lon="-105.229789">
  <ele>1583.0</ele>
  <time>2026-08-28T17:54:03Z</time>
  <course>0.0</course>
  <speed>0.0</speed>
  <fix>3d</fix>
</trkpt>
<trkpt lat="40.0713751" lon="-105.2297889">
  <ele>1582.98</ele>
  <time>2026-08-28T17:54:03Z</time>
  <course>246.97</course>
  <speed>0.022360679774997897</speed>
  <fix>3d</fix>
</trkpt>
<trkpt lat="40.0713749" lon="-105.229789">
  <ele>1583.0</ele>
  <time>2026-08-28T17:54:03Z</time>
  <course>0.0</course>
  <speed>0.0</speed>
  <fix>3d</fix>
</trkpt>
<trkpt lat="40.0713751" lon="-105.2297889">
  <ele>1582.98</ele>
  <time>2026-08-28T17:54:03Z</time>
  <course>246.97</course>
  <speed>0.022360679774997897</speed>
  <fix>3d</fix>
</trkpt>
<trkpt lat="40.0713749" lon="-105.229789">
  <ele>1583.0</ele>
  <time>2026-08-28T17:54:03Z</time>
  <course>0.0</course>
  <speed>0.0</speed>
  <fix>3d</fix>
</trkpt>
<trkpt lat="40.0713751" lon="-105.2297889">
  <ele>1582.98</ele>
  <time>2026-08-28T17:54:03Z</time>
  <course>246.97</course>
  <speed>0.022360679774997897</speed>
  <fix>3d</fix>
</trkpt>
<trkpt lat="40.0713749" lon="-105.229789">
  <ele>1583.0</ele>
  <time>2026-08-28T17:54:03Z</time>
  <course>0.0</course>
  <speed>0.0</speed>
  <fix>3d</fix>
</trkpt>
<trkpt lat="40.0713751" lon="-105.2297889">
  <ele>1582.98</ele>
  <time>2026-08-28T17:54:03Z</time>
  <course>246.97</course>
  <speed>0.022360679774997897</speed>
  <fix>3d</fix>
</trkpt>
<trkpt lat="40.0713749" lon="-105.229789">
  <ele>1583.0</ele>
  <time>2026-08-28T17:54:03Z</time>
  <course>0.0</course>
  <speed>0.0</speed>
  <fix>3d</fix>
</trkpt>
<trkpt lat="40.0713751" lon="-105.2297889">
  <ele>1582.98</ele>
  <time>2026-08-28T17:54:03Z</time>
  <course>246.97</course>
  <speed>0.022360679774997897</speed>
  <fix>3d</fix>
</trkpt>
<trkpt lat="40.0713749" lon="-105.229789">
  <ele>1583.0</ele>
  <time>2026-08-28T17:54:03Z</time>
  <course>0.0</course>
  <speed>0.0</speed>
  <fix>3d</fix>
</trkpt>
<trkpt lat="40.0713751" lon="-105.2297889">
  <ele>1582.98</ele>
  <time>2026-08-28T17:54:03Z</time>
  <course>246.97</course>
  <speed>0.022360679774997897</speed>
  <fix>3d</fix>
</trkpt>
<trkpt lat="40.0713749" lon="-105.229789">
  <ele>1583.0</ele>
  <time>2026-08-28T17:54:03Z</time>
  <course>0.0</course>
  <speed>0.0</speed>
  <fix>3d</fix>
</trkpt>
<trkpt lat="40.0713751" lon="-105.2297889">
  <ele>1582.98</ele>
  <time>2026-08-28T17:54:03Z</time>
  <course>246.97</course>
  <speed>0.022360679774997897</speed>
  <fix>3d</fix>
</trkpt>
<trkpt lat="40.0713749" lon="-105.229789">
  <ele>1583.0</ele>
  <time>2026-08-28T17:54:03Z</time>
  <course>0.0</course>
  <speed>0.0</speed>
  <fix>3d</fix>
</trkpt>
<trkpt lat="40.0713751" lon="-105.2297889">
  <ele>1582.98</ele>
  <time>2026-08-28T17:54:03Z</time>
  <course>246.97</course>
  <speed>0.022360679774997897</speed>
  <fix>3d</fix>
</trkpt>
<trkpt lat="40.0713749" lon="-105.229789">
  <ele>1583.0</ele>
  <time>2026-08-28T17:54:03Z</time>
  <course>0.0</course>
  <speed>0.0</speed>
  <fix>3d</fix>
</trkpt>
<trkpt lat="40.0713751" lon="-105.2297889">
  <ele>1582.97</ele>
  <time>2026-08-28T17:54:03Z</time>
  <course>246.97</course>
  <speed>0.022360679774997897</speed>
  <fix>3d</fix>
</trkpt>
<trkpt lat="40.0713749" lon="-105.229789">
  <ele>1583.0</ele>
  <time>2026-08-28T17:54:03Z</time>
  <course>0.0</course>
  <speed>0.0</speed>
  <fix>3d</fix>
</trkpt>
<trkpt lat="40.0713751" lon="-105.2297889">
  <ele>1582.97</ele>
  <time>2026-08-28T17:54:03Z</time>
  <course>246.97</course>
  <speed>0.022360679774997897</speed>
  <fix>3d</fix>
</trkpt>
<trkpt lat="40.0713749" lon="-105.229789">
  <ele>1583.0</ele>
  <time>2026-08-28T17:54:03Z</time>
  <course>0.0</course>
  <speed>0.0</speed>
  <fix>3d</fix>
</trkpt>
<trkpt lat="40.0713751" lon="-105.2297889">
  <ele>1582.98</ele>
  <time>2026-08-28T17:54:03Z</time>
  <course>246.97</course>
  <speed>0.022360679774997897</speed>
  <fix>3d</fix>
</trkpt>
<trkpt lat="40.0713749" lon="-105.229789">
  <ele>1583.0</ele>
  <time>2026-08-28T17:54:03Z</time>
  <course>0.0</course>
  <speed>0.0</speed>
  <fix>3d</fix>
</trkpt>
<trkpt lat="40.0713751" lon="-105.2297889">
  <ele>1582.98</ele>
  <time>2026-08-28T17:54:03Z</time>
  <course>246.97</course>
  <speed>0.022360679774997897</speed>
  <fix>3d</fix>
</trkpt>
<trkpt lat="40.0713749" lon="-105.229789">
  <ele>1583.0</ele>
  <time>2026-08-28T17:54:03Z</time>
  <course>0.0</course>
  <speed>0.0</speed>
  <fix>3d</fix>
</trkpt>
<trkpt lat="40.0713751" lon="-105.2297889">
  <ele>1582.98</ele>
  <time>2026-08-28T17:54:03Z</time>
  <course>246.97</course>
  <speed>0.022360679774997897</speed>
  <fix>3d</fix>
</trkpt>
<trkpt lat="40.0713749" lon="-105.229789">
  <ele>1583.0</ele>
  <time>2026-08-28T17:54:03Z</time>
  <course>0.0</course>
  <speed>0.0</speed>
  <fix>3d</fix>
</trkpt>
<trkpt lat="40.0713751" lon="-105.2297889">
  <ele>1582.99</ele>
  <time>2026-08-28T17:54:03Z</time>
  <course>246.97</course>
  <speed>0.022360679774997897</speed>
  <fix>3d</fix>
</trkpt>
<trkpt lat="40.0713749" lon="-105.229789">
  <ele>1583.0</ele>
  <time>2026-08-28T17:54:03Z</time>
  <course>0.0</course>
  <speed>0.0</speed>
  <fix>3d</fix>
</trkpt>
<trkpt lat="40.0713751" lon="-105.2297889">
  <ele>1582.99</ele>
  <time>2026-08-28T17:54:03Z</time>
  <course>246.97</course>
  <speed>0.022360679774997897</speed>
  <fix>3d</fix>
</trkpt>
<trkpt lat="40.0713749" lon="-105.229789">
  <ele>1583.0</ele>
  <time>2026-08-28T17:54:03Z</time>
  <course>0.0</course>
  <speed>0.0</speed>
  <fix>3d</fix>
</trkpt>
<trkpt lat="40.0713751" lon="-105.2297889">
  <ele>1582.98</ele>
  <time>2026-08-28T17:54:03Z</time>
  <course>246.97</course>
  <speed>0.022360679774997897</speed>
  <fix>3d</fix>
</trkpt>
<trkpt lat="40.0713749" lon="-105.229789">
  <ele>1583.0</ele>
  <time>2026-08-28T17:54:03Z</time>
  <course>0.0</course>
  <speed>0.0</speed>
  <fix>3d</fix>
</trkpt>
<trkpt lat="40.0713751" lon="-105.2297889">
  <ele>1582.98</ele>
  <time>2026-08-28T17:54:03Z</time>
  <course>246.97</course>
  <speed>0.022360679774997897</speed>
  <fix>3d</fix>
</trkpt>
<trkpt lat="40.0713749" lon="-105.229789">
  <ele>1583.0</ele>
  <time>2026-08-28T17:54:03Z</time>
  <course>0.0</course>
  <speed>0.0</speed>
  <fix>3d</fix>
</trkpt>
<trkpt lat="40.0713751" lon="-105.2297889">
  <ele>1582.98</ele>
  <time>2026-08-28T17:54:03Z</time>
  <course>246.97</course>
  <speed>0.022360679774997897</speed>
  <fix>3d</fix>
</trkpt>
<trkpt lat="40.0713749" lon="-105.229789">
  <ele>1583.0</ele>
  <time>2026-08-28T17:54:03Z</time>
  <course>0.0</course>
  <speed>0.0</speed>
  <fix>3d</fix>
</trkpt>
<trkpt lat="40.0713751" lon="-105.2297889">
  <ele>1582.99</ele>
  <time>2026-08-28T17:54:03Z</time>
  <course>246.97</course>
  <speed>0.022360679774997897</speed>
  <fix>3d</fix>
</trkpt>
<trkpt lat="40.0713749" lon="-105.229789">
  <ele>1583.0</ele>
  <time>2026-08-28T17:54:03Z</time>
  <course>0.0</course>
  <speed>0.0</speed>
  <fix>3d</fix>
</trkpt>
<trkpt lat="40.0713751" lon="-105.2297889">
  <ele>1582.99</ele>
  <time>2026-08-28T17:54:03Z</time>
  <course>246.97</course>
  <speed>0.022360679774997897</speed>
  <fix>3d</fix>
</trkpt>
<trkpt lat="40.0713749" lon="-105.229789">
  <ele>1583.0</ele>
  <time>2026-08-28T17:54:03Z</time>
  <course>0.0</course>
  <speed>0.0</speed>
  <fix>3d</fix>
</trkpt>
<trkpt lat="40.0713751" lon="-105.2297889">
  <ele>1582.99</ele>
  <time>2026-08-28T17:54:03Z</time>
  <course>246.97</course>
  <speed>0.022360679774997897</speed>
  <fix>3d</fix>
</trkpt>
<trkpt lat="40.0713749" lon="-105.229789">
  <ele>1583.0</ele>
  <time>2026-08-28T17:54:03Z</time>
  <course>0.0</course>
  <speed>0.0</speed>
  <fix>3d</fix>
</trkpt>
<trkpt lat="40.0713751" lon="-105.2297889">
  <ele>1583.0</ele>
  <time>2026-08-28T17:54:03Z</time>
  <course>246.97</course>
  <speed>0.022360679774997897</speed>
  <fix>3d</fix>
</trkpt>
<trkpt lat="40.0713749" lon="-105.229789">
  <ele>1583.0</ele>
  <time>2026-08-28T17:54:03Z</time>
  <course>0.0</course>
  <speed>0.0</speed>
  <fix>3d</fix>
</trkpt>
<trkpt lat="40.0713751" lon="-105.2297889">
  <ele>1583.0</ele>
  <time>2026-08-28T17:54:03Z</time>
  <course>246.97</course>
  <speed>0.022360679774997897</speed>
  <fix>3d</fix>
</trkpt>
<trkpt lat="40.0713749" lon="-105.229789">
  <ele>1583.0</ele>
  <time>2026-08-28T17:54:03Z</time>
  <course>0.0</course>
  <speed>0.0</speed>
  <fix>3d</fix>
</trkpt>
<trkpt lat="40.0713751" lon="-105.2297889">
  <ele>1583.0</ele>
  <time>2026-08-28T17:54:03Z</time>
  <course>246.97</course>
  <speed>0.022360679774997897</speed>
  <fix>3d</fix>
</trkpt>
<trkpt lat="40.0713749" lon="-105.229789">
  <ele>1583.0</ele>
  <time>2026-08-28T17:54:03Z</time>
  <course>0.0</course>
  <speed>0.0</speed>
  <fix>3d</fix>
</trkpt>
<trkpt lat="40.0713751" lon="-105.2297889">
  <ele>1583.0</ele>
  <time>2026-08-28T17:54:03Z</time>
  <course>246.97</course>
  <speed>0.022360679774997897</speed>
  <fix>3d</fix>
</trkpt>
<trkpt lat="40.0713749" lon="-105.229789">
  <ele>1583.0</ele>
  <time>2026-08-28T17:54:03Z</time>
  <course>0.0</course>
  <speed>0.0</speed>
  <fix>3d</fix>
</trkpt>
<trkpt lat="40.0713751" lon="-105.2297889">
  <ele>1583.01</ele>
  <time>2026-08-28T17:54:03Z</time>
  <course>246.97</course>
  <speed>0.022360679774997897</speed>
  <fix>3d</fix>
</trkpt>
<trkpt lat="40.0713749" lon="-105.229789">
  <ele>1583.0</ele>
  <time>2026-08-28T17:54:03Z</time>
  <course>0.0</course>
  <speed>0.0</speed>
  <fix>3d</fix>
</trkpt>
<trkpt lat="40.0713751" lon="-105.2297889">
  <ele>1583.01</ele>
  <time>2026-08-28T17:54:03Z</time>
  <course>246.97</course>
  <speed>0.022360679774997897</speed>
  <fix>3d</fix>
</trkpt>
<trkpt lat="40.0713749" lon="-105.229789">
  <ele>1583.0</ele>
  <time>2026-08-28T17:54:03Z</time>
  <course>0.0</course>
  <speed>0.0</speed>
  <fix>3d</fix>
</trkpt>
<trkpt lat="40.0713751" lon="-105.2297889">
  <ele>1583.01</ele>
  <time>2026-08-28T17:54:03Z</time>
  <course>246.97</course>
  <speed>0.022360679774997897</speed>
  <fix>3d</fix>
</trkpt>
<trkpt lat="40.0713749" lon="-105.229789">
  <ele>1583.0</ele>
  <time>2026-08-28T17:54:03Z</time>
  <course>0.0</course>
  <speed>0.0</speed>
  <fix>3d</fix>
</trkpt>
<trkpt lat="40.0713751" lon="-105.2297889">
  <ele>1583.01</ele>
  <time>2026-08-28T17:54:03Z</time>
  <course>246.97</course>
  <speed>0.022360679774997897</speed>
  <fix>3d</fix>
</trkpt>
<trkpt lat="40.0713749" lon="-105.229789">
  <ele>1583.0</ele>
  <time>2026-08-28T17:54:03Z</time>
  <course>0.0</course>
  <speed>0.0</speed>
  <fix>3d</fix>
</trkpt>
<trkpt lat="40.0713751" lon="-105.2297889">
  <ele>1583.01</ele>
  <time>2026-08-28T17:54:03Z</time>
  <course>246.97</course>
  <speed>0.022360679774997897</speed>
  <fix>3d</fix>
</trkpt>
<trkpt lat="40.0713749" lon="-105.229789">
  <ele>1583.0</ele>
  <time>2026-08-28T17:54:03Z</time>
  <course>0.0</course>
  <speed>0.0</speed>
  <fix>3d</fix>
</trkpt>
<trkpt lat="40.0713751" lon="-105.2297889">
  <ele>1583.02</ele>
  <time>2026-08-28T17:54:03Z</time>
  <course>246.97</course>
  <speed>0.022360679774997897</speed>
  <fix>3d</fix>
</trkpt>
<trkpt lat="40.0713749" lon="-105.229789">
  <ele>1583.0</ele>
  <time>2026-08-28T17:54:03Z</time>
  <course>0.0</course>
  <speed>0.0</speed>
  <fix>3d</fix>
</trkpt>
<trkpt lat="40.0713751" lon="-105.2297889">
  <ele>1583.02</ele>
  <time>2026-08-28T17:54:03Z</time>
  <course>246.97</course>
  <speed>0.022360679774997897</speed>
  <fix>3d</fix>
</trkpt>
<trkpt lat="40.0713749" lon="-105.229789">
  <ele>1583.0</ele>
  <time>2026-08-28T17:54:03Z</time>
  <course>0.0</course>
  <speed>0.0</speed>
  <fix>3d</fix>
</trkpt>
<trkpt lat="40.0713751" lon="-105.2297889">
  <ele>1583.02</ele>
  <time>2026-08-28T17:54:03Z</time>
  <course>246.97</course>
  <speed>0.022360679774997897</speed>
  <fix>3d</fix>
</trkpt>
<trkpt lat="40.0713749" lon="-105.229789">
  <ele>1583.0</ele>
  <time>2026-08-28T17:54:03Z</time>
  <course>0.0</course>
  <speed>0.0</speed>
  <fix>3d</fix>
</trkpt>
<trkpt lat="40.0713751" lon="-105.2297889">
  <ele>1583.01</ele>
  <time>2026-08-28T17:54:03Z</time>
  <course>246.97</course>
  <speed>0.022360679774997897</speed>
  <fix>3d</fix>
</trkpt>
<trkpt lat="40.0713749" lon="-105.229789">
  <ele>1583.0</ele>
  <time>2026-08-28T17:54:03Z</time>
  <course>0.0</course>
  <speed>0.0</speed>
  <fix>3d</fix>
</trkpt>
<trkpt lat="40.0713751" lon="-105.2297889">
  <ele>1583.01</ele>
  <time>2026-08-28T17:54:03Z</time>
  <course>246.97</course>
  <speed>0.022360679774997897</speed>
  <fix>3d</fix>
</trkpt>
<trkpt lat="40.0713749" lon="-105.229789">
  <ele>1583.0</ele>
  <time>2026-08-28T17:54:03Z</time>
  <course>0.0</course>
  <speed>0.0</speed>
  <fix>3d</fix>
</trkpt>
<trkpt lat="40.0713751" lon="-105.2297889">
  <ele>1583.01</ele>
  <time>2026-08-28T17:54:03Z</time>
  <course>246.97</course>
  <speed>0.022360679774997897</speed>
  <fix>3d</fix>
</trkpt>
<trkpt lat="40.0713749" lon="-105.229789">
  <ele>1583.0</ele>
  <time>2026-08-28T17:54:03Z</time>
  <course>0.0</course>
  <speed>0.0</speed>
  <fix>3d</fix>
</trkpt>
<trkpt lat="40.0713751" lon="-105.2297889">
  <ele>1583.01</ele>
  <time>2026-08-28T17:54:03Z</time>
  <course>246.97</course>
  <speed>0.022360679774997897</speed>
  <fix>3d</fix>
</trkpt>
<trkpt lat="40.0713749" lon="-105.229789">
  <ele>1583.0</ele>
  <time>2026-08-28T17:54:03Z</time>
  <course>0.0</course>
  <speed>0.0</speed>
  <fix>3d</fix>
</trkpt>
<trkpt lat="40.0713751" lon="-105.2297889">
  <ele>1583.01</ele>
  <time>2026-08-28T17:54:03Z</time>
  <course>246.97</course>
  <speed>0.022360679774997897</speed>
  <fix>3d</fix>
</trkpt>
<trkpt lat="40.0713749" lon="-105.229789">
  <ele>1583.0</ele>
  <time>2026-08-28T17:54:03Z</time>
  <course>0.0</course>
  <speed>0.0</speed>
  <fix>3d</fix>
</trkpt>
<trkpt lat="40.0713751" lon="-105.2297889">
  <ele>1583.01</ele>
  <time>2026-08-28T17:54:03Z</time>
  <course>246.97</course>
  <speed>0.022360679774997897</speed>
  <fix>3d</fix>
</trkpt>
<trkpt lat="40.0713749" lon="-105.229789">
  <ele>1583.0</ele>
  <time>2026-08-28T17:54:03Z</time>
  <course>0.0</course>
  <speed>0.0</speed>
  <fix>3d</fix>
</trkpt>
<trkpt lat="40.0713751" lon="-105.2297889">
  <ele>1583.01</ele>
  <time>2026-08-28T17:54:03Z</time>
  <course>246.97</course>
  <speed>0.022360679774997897</speed>
  <fix>3d</fix>
</trkpt>
<trkpt lat="40.0713749" lon="-105.229789">
  <ele>1583.0</ele>
  <time>2026-08-28T17:54:03Z</time>
  <course>0.0</course>
  <speed>0.0</speed>
  <fix>3d</fix>
</trkpt>
<trkpt lat="40.0713751" lon="-105.2297889">
  <ele>1583.01</ele>
  <time>2026-08-28T17:54:03Z</time>
  <course>246.97</course>
  <speed>0.022360679774997897</speed>
  <fix>3d</fix>
</trkpt>
<trkpt lat="40.0713749" lon="-105.229789">
  <ele>1583.0</ele>
  <time>2026-08-28T17:54:03Z</time>
  <course>0.0</course>
  <speed>0.0</speed>
  <fix>3d</fix>
</trkpt>
<trkpt lat="40.0713751" lon="-105.2297889">
  <ele>1583.02</ele>
  <time>2026-08-28T17:54:03Z</time>
  <course>246.97</course>
  <speed>0.022360679774997897</speed>
  <fix>3d</fix>
</trkpt>
<trkpt lat="40.0713749" lon="-105.229789">
  <ele>1583.0</ele>
  <time>2026-08-28T17:54:03Z</time>
  <course>0.0</course>
  <speed>0.0</speed>
  <fix>3d</fix>
</trkpt>
<trkpt lat="40.0713751" lon="-105.2297889">
  <ele>1583.02</ele>
  <time>2026-08-28T17:54:03Z</time>
  <course>246.97</course>
  <speed>0.022360679774997897</speed>
  <fix>3d</fix>
</trkpt>
<trkpt lat="40.0713749" lon="-105.229789">
  <ele>1583.0</ele>
  <time>2026-08-28T17:54:03Z</time>
  <course>0.0</course>
  <speed>0.0</speed>
  <fix>3d</fix>
</trkpt>
<trkpt lat="40.0713751" lon="-105.2297889">
  <ele>1583.02</ele>
  <time>2026-08-28T17:54:03Z</time>
  <course>246.97</course>
  <speed>0.022360679774997897</speed>
  <fix>3d</fix>
</trkpt>
<trkpt lat="40.0713749" lon="-105.229789">
  <ele>1583.0</ele>
  <time>2026-08-28T17:54:03Z</time>
  <course>0.0</course>
  <speed>0.0</speed>
  <fix>3d</fix>
</trkpt>
<trkpt lat="40.0713751" lon="-105.2297889">
  <ele>1583.02</ele>
  <time>2026-08-28T17:54:03Z</time>
  <course>246.97</course>
  <speed>0.022360679774997897</speed>
  <fix>3d</fix>
</trkpt>
<trkpt lat="40.0713749" lon="-105.229789">
  <ele>1583.0</ele>
  <time>2026-08-28T17:54:03Z</time>
  <course>0.0</course>
  <speed>0.0</speed>
  <fix>3d</fix>
</trkpt>
<trkpt lat="40.0713751" lon="-105.2297889">
  <ele>1583.02</ele>
  <time>2026-08-28T17:54:03Z</time>
  <course>246.97</course>
  <speed>0.022360679774997897</speed>
  <fix>3d</fix>
</trkpt>
<trkpt lat="40.0713749" lon="-105.229789">
  <ele>1583.0</ele>
  <time>2026-08-28T17:54:03Z</time>
  <course>0.0</course>
  <speed>0.0</speed>
  <fix>3d</fix>
</trkpt>
<trkpt lat="40.0713751" lon="-105.2297889">
  <ele>1583.02</ele>
  <time>2026-08-28T17:54:03Z</time>
  <course>246.97</course>
  <speed>0.022360679774997897</speed>
  <fix>3d</fix>
</trkpt>
<trkpt lat="40.0713749" lon="-105.229789">
  <ele>1583.0</ele>
  <time>2026-08-28T17:54:03Z</time>
  <course>0.0</course>
  <speed>0.0</speed>
  <fix>3d</fix>
</trkpt>
<trkpt lat="40.0713751" lon="-105.2297889">
  <ele>1583.02</ele>
  <time>2026-08-28T17:54:03Z</time>
  <course>246.97</course>
  <speed>0.022360679774997897</speed>
  <fix>3d</fix>
</trkpt>
<trkpt lat="40.0713749" lon="-105.229789">
  <ele>1583.0</ele>
  <time>2026-08-28T17:54:03Z</time>
  <course>0.0</course>
  <speed>0.0</speed>
  <fix>3d</fix>
</trkpt>
<trkpt lat="40.0713751" lon="-105.2297889">
  <ele>1583.02</ele>
  <time>2026-08-28T17:54:03Z</time>
  <course>246.97</course>
  <speed>0.022360679774997897</speed>
  <fix>3d</fix>
</trkpt>
<trkpt lat="40.0713749" lon="-105.229789">
  <ele>1583.0</ele>
  <time>2026-08-28T17:54:03Z</time>
  <course>0.0</course>
  <speed>0.0</speed>
  <fix>3d</fix>
</trkpt>
<trkpt lat="40.0713751" lon="-105.2297889">
  <ele>1583.02</ele>
  <time>2026-08-28T17:54:03Z</time>
  <course>246.97</course>
  <speed>0.022360679774997897</speed>
  <fix>3d</fix>
</trkpt>
<trkpt lat="40.0713749" lon="-105.229789">
  <ele>1583.0</ele>
  <time>2026-08-28T17:54:03Z</time>
  <course>0.0</course>
  <speed>0.0</speed>
  <fix>3d</fix>
</trkpt>
<trkpt lat="40.0713751" lon="-105.2297889">
  <ele>1583.02</ele>
  <time>2026-08-28T17:54:03Z</time>
  <course>246.97</course>
  <speed>0.022360679774997897</speed>
  <fix>3d</fix>
</trkpt>
<trkpt lat="40.0713749" lon="-105.229789">
  <ele>1583.0</ele>
  <time>2026-08-28T17:54:03Z</time>
  <course>0.0</course>
  <speed>0.0</speed>
  <fix>3d</fix>
</trkpt>
<trkpt lat="40.0713751" lon="-105.2297889">
  <ele>1583.02</ele>
  <time>2026-08-28T17:54:03Z</time>
  <course>246.97</course>
  <speed>0.022360679774997897</speed>
  <fix>3d</fix>
</trkpt>
<trkpt lat="40.0713749" lon="-105.229789">
  <ele>1583.0</ele>
  <time>2026-08-28T17:54:03Z</time>
  <course>0.0</course>
  <speed>0.0</speed>
  <fix>3d</fix>
</trkpt>
<trkpt lat="40.0713751" lon="-105.2297889">
  <ele>1583.02</ele>
  <time>2026-08-28T17:54:03Z</time>
  <course>246.97</course>
  <speed>0.022360679774997897</speed>
  <fix>3d</fix>
</trkpt>
<trkpt lat="40.0713749" lon="-105.229789">
  <ele>1583.0</ele>
  <time>2026-08-28T17:54:03Z</time>
  <course>0.0</course>
  <speed>0.0</speed>
  <fix>3d</fix>
</trkpt>
<trkpt lat="40.0713751" lon="-105.2297889">
  <ele>1583.02</ele>
  <time>2026-08-28T17:54:03Z</time>
  <course>246.97</course>
  <speed>0.022360679774997897</speed>
  <fix>3d</fix>
</trkpt>
<trkpt lat="40.0713749" lon="-105.229789">
  <ele>1583.0</ele>
  <time>2026-08-28T17:54:03Z</time>
  <course>0.0</course>
  <speed>0.0</speed>
  <fix>3d</fix>
</trkpt>
<trkpt lat="40.0713751" lon="-105.2297889">
  <ele>1583.02</ele>
  <time>2026-08-28T17:54:03Z</time>
  <course>246.97</course>
  <speed>0.022360679774997897</speed>
  <fix>3d</fix>
</trkpt>
<trkpt lat="40.0713749" lon="-105.229789">
  <ele>1583.0</ele>
  <time>2026-08-28T17:54:03Z</time>
  <course>0.0</course>
  <speed>0.0</speed>
  <fix>3d</fix>
</trkpt>
<trkpt lat="40.0713751" lon="-105.2297889">
  <ele>1583.02</ele>
  <time>2026-08-28T17:54:03Z</time>
  <course>246.97</course>
  <speed>0.022360679774997897</speed>
  <fix>3d</fix>
</trkpt>
<trkpt lat="40.0713749" lon="-105.229789">
  <ele>1583.0</ele>
  <time>2026-08-28T17:54:03Z</time>
  <course>0.0</course>
  <speed>0.0</speed>
  <fix>3d</fix>
</trkpt>
<trkpt lat="40.0713751" lon="-105.2297889">
  <ele>1583.02</ele>
  <time>2026-08-28T17:54:03Z</time>
  <course>246.97</course>
  <speed>0.022360679774997897</speed>
  <fix>3d</fix>
</trkpt>
<trkpt lat="40.0713749" lon="-105.229789">
  <ele>1583.0</ele>
  <time>2026-08-28T17:54:03Z</time>
  <course>0.0</course>
  <speed>0.0</speed>
  <fix>3d</fix>
</trkpt>
<trkpt lat="40.0713751" lon="-105.2297889">
  <ele>1583.02</ele>
  <time>2026-08-28T17:54:03Z</time>
  <course>246.97</course>
  <speed>0.022360679774997897</speed>
  <fix>3d</fix>
</trkpt>
<trkpt lat="40.0713749" lon="-105.229789">
  <ele>1583.0</ele>
  <time>2026-08-28T17:54:03Z</time>
  <course>0.0</course>
  <speed>0.0</speed>
  <fix>3d</fix>
</trkpt>
<trkpt lat="40.0713751" lon="-105.2297889">
  <ele>1583.02</ele>
  <time>2026-08-28T17:54:03Z</time>
  <course>246.97</course>
  <speed>0.022360679774997897</speed>
  <fix>3d</fix>
</trkpt>
<trkpt lat="40.0713749" lon="-105.229789">
  <ele>1583.0</ele>
  <time>2026-08-28T17:54:03Z</time>
  <course>0.0</course>
  <speed>0.0</speed>
  <fix>3d</fix>
</trkpt>
<trkpt lat="40.0713751" lon="-105.2297889">
  <ele>1583.02</ele>
  <time>2026-08-28T17:54:03Z</time>
  <course>246.97</course>
  <speed>0.022360679774997897</speed>
  <fix>3d</fix>
</trkpt>
<trkpt lat="40.0713749" lon="-105.229789">
  <ele>1583.0</ele>
  <time>2026-08-28T17:54:03Z</time>
  <course>0.0</course>
  <speed>0.0</speed>
  <fix>3d</fix>
</trkpt>
<trkpt lat="40.0713751" lon="-105.2297889">
  <ele>1583.02</ele>
  <time>2026-08-28T17:54:03Z</time>
  <course>246.97</course>
  <speed>0.022360679774997897</speed>
  <fix>3d</fix>
</trkpt>
<trkpt lat="40.0713749" lon="-105.229789">
  <ele>1583.0</ele>
  <time>2026-08-28T17:54:03Z</time>
  <course>0.0</course>
  <speed>0.0</speed>
  <fix>3d</fix>
</trkpt>
<trkpt lat="40.0713751" lon="-105.2297889">
  <ele>1583.02</ele>
  <time>2026-08-28T17:54:03Z</time>
  <course>246.97</course>
  <speed>0.022360679774997897</speed>
  <fix>3d</fix>
</trkpt>
<trkpt lat="40.0713749" lon="-105.229789">
  <ele>1583.0</ele>
  <time>2026-08-28T17:54:03Z</time>
  <course>0.0</course>
  <speed>0.0</speed>
  <fix>3d</fix>
</trkpt>
<trkpt lat="40.0713751" lon="-105.2297889">
  <ele>1583.02</ele>
  <time>2026-08-28T17:54:03Z</time>
  <course>246.97</course>
  <speed>0.022360679774997897</speed>
  <fix>3d</fix>
</trkpt>
<trkpt lat="40.0713749" lon="-105.229789">
  <ele>1583.0</ele>
  <time>2026-08-28T17:54:03Z</time>
  <course>0.0</course>
  <speed>0.0</speed>
  <fix>3d</fix>
</trkpt>
<trkpt lat="40.0713751" lon="-105.2297889">
  <ele>1583.03</ele>
  <time>2026-08-28T17:54:03Z</time>
  <course>246.97</course>
  <speed>0.022360679774997897</speed>
  <fix>3d</fix>
</trkpt>
<trkpt lat="40.0713749" lon="-105.229789">
  <ele>1583.0</ele>
  <time>2026-08-28T17:54:03Z</time>
  <course>0.0</course>
  <speed>0.0</speed>
  <fix>3d</fix>
</trkpt>
<trkpt lat="40.0713751" lon="-105.2297889">
  <ele>1583.03</ele>
  <time>2026-08-28T17:54:03Z</time>
  <course>246.97</course>
  <speed>0.022360679774997897</speed>
  <fix>3d</fix>
</trkpt>
<trkpt lat="40.0713749" lon="-105.229789">
  <ele>1583.0</ele>
  <time>2026-08-28T17:54:03Z</time>
  <course>0.0</course>
  <speed>0.0</speed>
  <fix>3d</fix>
</trkpt>
<trkpt lat="40.0713751" lon="-105.2297889">
  <ele>1583.03</ele>
  <time>2026-08-28T17:54:03Z</time>
  <course>246.97</course>
  <speed>0.022360679774997897</speed>
  <fix>3d</fix>
</trkpt>
<trkpt lat="40.0713749" lon="-105.229789">
  <ele>1583.0</ele>
  <time>2026-08-28T17:54:03Z</time>
  <course>0.0</course>
  <speed>0.0</speed>
  <fix>3d</fix>
</trkpt>
<trkpt lat="40.0713751" lon="-105.2297889">
  <ele>1583.03</ele>
  <time>2026-08-28T17:54:03Z</time>
  <course>246.97</course>
  <speed>0.022360679774997897</speed>
  <fix>3d</fix>
</trkpt>
<trkpt lat="40.0713749" lon="-105.229789">
  <ele>1583.0</ele>
  <time>2026-08-28T17:54:03Z</time>
  <course>0.0</course>
  <speed>0.0</speed>
  <fix>3d</fix>
</trkpt>
<trkpt lat="40.071375" lon="-105.2297889">
  <ele>1583.03</ele>
  <time>2026-08-28T17:54:03Z</time>
  <course>246.97</course>
  <speed>0.022360679774997897</speed>
  <fix>3d</fix>
</trkpt>
<trkpt lat="40.0713749" lon="-105.229789">
  <ele>1583.0</ele>
  <time>2026-08-28T17:54:03Z</time>
  <course>0.0</course>
  <speed>0.0</speed>
  <fix>3d</fix>
</trkpt>
<trkpt lat="40.0713751" lon="-105.2297889">
  <ele>1583.03</ele>
  <time>2026-08-28T17:54:03Z</time>
  <course>246.97</course>
  <speed>0.022360679774997897</speed>
  <fix>3d</fix>
</trkpt>
<trkpt lat="40.0713749" lon="-105.229789">
  <ele>1583.0</ele>
  <time>2026-08-28T17:54:03Z</time>
  <course>0.0</course>
  <speed>0.0</speed>
  <fix>3d</fix>
</trkpt>
<trkpt lat="40.071375" lon="-105.2297889">
  <ele>1583.03</ele>
  <time>2026-08-28T17:54:03Z</time>
  <course>246.97</course>
  <speed>0.022360679774997897</speed>
  <fix>3d</fix>
</trkpt>
<trkpt lat="40.0713749" lon="-105.229789">
  <ele>1583.0</ele>
  <time>2026-08-28T17:54:03Z</time>
  <course>0.0</course>
  <speed>0.0</speed>
  <fix>3d</fix>
</trkpt>
<trkpt lat="40.0713751" lon="-105.2297889">
  <ele>1583.02</ele>
  <time>2026-08-28T17:54:03Z</time>
  <course>246.97</course>
  <speed>0.022360679774997897</speed>
  <fix>3d</fix>
</trkpt>
<trkpt lat="40.0713749" lon="-105.229789">
  <ele>1583.0</ele>
  <time>2026-08-28T17:54:03Z</time>
  <course>0.0</course>
  <speed>0.0</speed>
  <fix>3d</fix>
</trkpt>
<trkpt lat="40.071375" lon="-105.2297889">
  <ele>1583.02</ele>
  <time>2026-08-28T17:54:03Z</time>
  <course>246.97</course>
  <speed>0.022360679774997897</speed>
  <fix>3d</fix>
</trkpt>
<trkpt lat="40.0713749" lon="-105.229789">
  <ele>1583.0</ele>
  <time>2026-08-28T17:54:03Z</time>
  <course>0.0</course>
  <speed>0.0</speed>
  <fix>3d</fix>
</trkpt>
<trkpt lat="40.0713751" lon="-105.2297889">
  <ele>1583.02</ele>
  <time>2026-08-28T17:54:03Z</time>
  <course>246.97</course>
  <speed>0.022360679774997897</speed>
  <fix>3d</fix>
</trkpt>
<trkpt lat="40.0713749" lon="-105.229789">
  <ele>1583.0</ele>
  <time>2026-08-28T17:54:03Z</time>
  <course>0.0</course>
  <speed>0.0</speed>
  <fix>3d</fix>
</trkpt>
<trkpt lat="40.071375" lon="-105.2297889">
  <ele>1583.02</ele>
  <time>2026-08-28T17:54:03Z</time>
  <course>246.97</course>
  <speed>0.022360679774997897</speed>
  <fix>3d</fix>
</trkpt>
<trkpt lat="40.0713749" lon="-105.229789">
  <ele>1583.0</ele>
  <time>2026-08-28T17:54:03Z</time>
  <course>0.0</course>
  <speed>0.0</speed>
  <fix>3d</fix>
</trkpt>
<trkpt lat="40.0713751" lon="-105.2297889">
  <ele>1583.02</ele>
  <time>2026-08-28T17:54:03Z</time>
  <course>246.97</course>
  <speed>0.022360679774997897</speed>
  <fix>3d</fix>
</trkpt>
<trkpt lat="40.0713749" lon="-105.229789">
  <ele>1583.0</ele>
  <time>2026-08-28T17:54:03Z</time>
  <course>0.0</course>
  <speed>0.0</speed>
  <fix>3d</fix>
</trkpt>
<trkpt lat="40.071375" lon="-105.2297889">
  <ele>1583.02</ele>
  <time>2026-08-28T17:54:03Z</time>
  <course>246.97</course>
  <speed>0.022360679774997897</speed>
  <fix>3d</fix>
</trkpt>
<trkpt lat="40.0713749" lon="-105.229789">
  <ele>1583.0</ele>
  <time>2026-08-28T17:54:03Z</time>
  <course>0.0</course>
  <speed>0.0</speed>
  <fix>3d</fix>
</trkpt>
<trkpt lat="40.0713751" lon="-105.2297889">
  <ele>1583.02</ele>
  <time>2026-08-28T17:54:03Z</time>
  <course>246.97</course>
  <speed>0.022360679774997897</speed>
  <fix>3d</fix>
</trkpt>
<trkpt lat="40.0713749" lon="-105.229789">
  <ele>1583.0</ele>
  <time>2026-08-28T17:54:03Z</time>
  <course>0.0</course>
  <speed>0.0</speed>
  <fix>3d</fix>
</trkpt>
<trkpt lat="40.071375" lon="-105.2297889">
  <ele>1583.02</ele>
  <time>2026-08-28T17:54:03Z</time>
  <course>246.97</course>
  <speed>0.022360679774997897</speed>
  <fix>3d</fix>
</trkpt>
<trkpt lat="40.0713749" lon="-105.229789">
  <ele>1583.0</ele>
  <time>2026-08-28T17:54:03Z</time>
  <course>0.0</course>
  <speed>0.0</speed>
  <fix>3d</fix>
</trkpt>
<trkpt lat="40.0713751" lon="-105.2297889">
  <ele>1583.02</ele>
  <time>2026-08-28T17:54:03Z</time>
  <course>246.97</course>
  <speed>0.022360679774997897</speed>
  <fix>3d</fix>
</trkpt>
<trkpt lat="40.0713749" lon="-105.229789">
  <ele>1583.0</ele>
  <time>2026-08-28T17:54:03Z</time>
  <course>0.0</course>
  <speed>0.0</speed>
  <fix>3d</fix>
</trkpt>
<trkpt lat="40.0713751" lon="-105.2297889">
  <ele>1583.03</ele>
  <time>2026-08-28T17:54:03Z</time>
  <course>246.97</course>
  <speed>0.022360679774997897</speed>
  <fix>3d</fix>
</trkpt>
<trkpt lat="40.0713749" lon="-105.229789">
  <ele>1583.0</ele>
  <time>2026-08-28T17:54:03Z</time>
  <course>0.0</course>
  <speed>0.0</speed>
  <fix>3d</fix>
</trkpt>
<trkpt lat="40.0713751" lon="-105.2297889">
  <ele>1583.03</ele>
  <time>2026-08-28T17:54:03Z</time>
  <course>246.97</course>
  <speed>0.022360679774997897</speed>
  <fix>3d</fix>
</trkpt>
<trkpt lat="40.0713749" lon="-105.229789">
  <ele>1583.0</ele>
  <time>2026-08-28T17:54:03Z</time>
  <course>0.0</course>
  <speed>0.0</speed>
  <fix>3d</fix>
</trkpt>
<trkpt lat="40.0713751" lon="-105.2297889">
  <ele>1583.03</ele>
  <time>2026-08-28T17:54:03Z</time>
  <course>246.97</course>
  <speed>0.022360679774997897</speed>
  <fix>3d</fix>
</trkpt>
<trkpt lat="40.0713749" lon="-105.229789">
  <ele>1583.0</ele>
  <time>2026-08-28T17:54:03Z</time>
  <course>0.0</course>
  <speed>0.0</speed>
  <fix>3d</fix>
</trkpt>
<trkpt lat="40.0713751" lon="-105.2297889">
  <ele>1583.02</ele>
  <time>2026-08-28T17:54:03Z</time>
  <course>246.97</course>
  <speed>0.022360679774997897</speed>
  <fix>3d</fix>
</trkpt>
<trkpt lat="40.0713749" lon="-105.229789">
  <ele>1583.0</ele>
  <time>2026-08-28T17:54:03Z</time>
  <course>0.0</course>
  <speed>0.0</speed>
  <fix>3d</fix>
</trkpt>
<trkpt lat="40.0713751" lon="-105.2297889">
  <ele>1583.02</ele>
  <time>2026-08-28T17:54:03Z</time>
  <course>246.97</course>
  <speed>0.022360679774997897</speed>
  <fix>3d</fix>
</trkpt>
<trkpt lat="40.0713749" lon="-105.229789">
  <ele>1583.0</ele>
  <time>2026-08-28T17:54:03Z</time>
  <course>0.0</course>
  <speed>0.0</speed>
  <fix>3d</fix>
</trkpt>
<trkpt lat="40.0713751" lon="-105.2297889">
  <ele>1583.02</ele>
  <time>2026-08-28T17:54:03Z</time>
  <course>246.97</course>
  <speed>0.022360679774997897</speed>
  <fix>3d</fix>
</trkpt>
<trkpt lat="40.0713749" lon="-105.229789">
  <ele>1583.0</ele>
  <time>2026-08-28T17:54:03Z</time>
  <course>0.0</course>
  <speed>0.0</speed>
  <fix>3d</fix>
</trkpt>
<trkpt lat="40.0713751" lon="-105.2297889">
  <ele>1583.02</ele>
  <time>2026-08-28T17:54:03Z</time>
  <course>246.97</course>
  <speed>0.022360679774997897</speed>
  <fix>3d</fix>
</trkpt>
<trkpt lat="40.0713749" lon="-105.229789">
  <ele>1583.0</ele>
  <time>2026-08-28T17:54:03Z</time>
  <course>0.0</course>
  <speed>0.0</speed>
  <fix>3d</fix>
</trkpt>
<trkpt lat="40.0713751" lon="-105.2297889">
  <ele>1583.02</ele>
  <time>2026-08-28T17:54:03Z</time>
  <course>246.97</course>
  <speed>0.022360679774997897</speed>
  <fix>3d</fix>
</trkpt>
<trkpt lat="40.0713749" lon="-105.229789">
  <ele>1583.0</ele>
  <time>2026-08-28T17:54:03Z</time>
  <course>0.0</course>
  <speed>0.0</speed>
  <fix>3d</fix>
</trkpt>
<trkpt lat="40.071375" lon="-105.2297889">
  <ele>1583.02</ele>
  <time>2026-08-28T17:54:03Z</time>
  <course>246.97</course>
  <speed>0.022360679774997897</speed>
  <fix>3d</fix>
</trkpt>
<trkpt lat="40.0713749" lon="-105.229789">
  <ele>1583.0</ele>
  <time>2026-08-28T17:54:03Z</time>
  <course>0.0</course>
  <speed>0.0</speed>
  <fix>3d</fix>
</trkpt>
<trkpt lat="40.0713751" lon="-105.2297889">
  <ele>1583.02</ele>
  <time>2026-08-28T17:54:03Z</time>
  <course>246.97</course>
  <speed>0.022360679774997897</speed>
  <fix>3d</fix>
</trkpt>
<trkpt lat="40.0713749" lon="-105.229789">
  <ele>1583.0</ele>
  <time>2026-08-28T17:54:03Z</time>
  <course>0.0</course>
  <speed>0.0</speed>
  <fix>3d</fix>
</trkpt>
<trkpt lat="40.071375" lon="-105.2297889">
  <ele>1583.01</ele>
  <time>2026-08-28T17:54:03Z</time>
  <course>246.97</course>
  <speed>0.022360679774997897</speed>
  <fix>3d</fix>
</trkpt>
<trkpt lat="40.0713749" lon="-105.229789">
  <ele>1583.0</ele>
  <time>2026-08-28T17:54:03Z</time>
  <course>0.0</course>
  <speed>0.0</speed>
  <fix>3d</fix>
</trkpt>
<trkpt lat="40.0713751" lon="-105.2297889">
  <ele>1583.01</ele>
  <time>2026-08-28T17:54:03Z</time>
  <course>246.97</course>
  <speed>0.022360679774997897</speed>
  <fix>3d</fix>
</trkpt>
<trkpt lat="40.0713749" lon="-105.229789">
  <ele>1583.0</ele>
  <time>2026-08-28T17:54:03Z</time>
  <course>0.0</course>
  <speed>0.0</speed>
  <fix>3d</fix>
</trkpt>
<trkpt lat="40.071375" lon="-105.2297889">
  <ele>1583.01</ele>
  <time>2026-08-28T17:54:03Z</time>
  <course>246.97</course>
  <speed>0.022360679774997897</speed>
  <fix>3d</fix>
</trkpt>
<trkpt lat="40.0713749" lon="-105.229789">
  <ele>1583.0</ele>
  <time>2026-08-28T17:54:03Z</time>
  <course>0.0</course>
  <speed>0.0</speed>
  <fix>3d</fix>
</trkpt>
<trkpt lat="40.0713751" lon="-105.2297889">
  <ele>1583.01</ele>
  <time>2026-08-28T17:54:03Z</time>
  <course>246.97</course>
  <speed>0.022360679774997897</speed>
  <fix>3d</fix>
</trkpt>
<trkpt lat="40.0713749" lon="-105.229789">
  <ele>1583.0</ele>
  <time>2026-08-28T17:54:03Z</time>
  <course>0.0</course>
  <speed>0.0</speed>
  <fix>3d</fix>
</trkpt>
<trkpt lat="40.071375" lon="-105.2297889">
  <ele>1583.01</ele>
  <time>2026-08-28T17:54:03Z</time>
  <course>246.97</course>
  <speed>0.022360679774997897</speed>
  <fix>3d</fix>
</trkpt>
<trkpt lat="40.0713749" lon="-105.229789">
  <ele>1583.0</ele>
  <time>2026-08-28T17:54:03Z</time>
  <course>0.0</course>
  <speed>0.0</speed>
  <fix>3d</fix>
</trkpt>
<trkpt lat="40.0713751" lon="-105.2297889">
  <ele>1583.01</ele>
  <time>2026-08-28T17:54:03Z</time>
  <course>246.97</course>
  <speed>0.022360679774997897</speed>
  <fix>3d</fix>
</trkpt>
<trkpt lat="40.0713749" lon="-105.229789">
  <ele>1583.0</ele>
  <time>2026-08-28T17:54:03Z</time>
  <course>0.0</course>
  <speed>0.0</speed>
  <fix>3d</fix>
</trkpt>
<trkpt lat="40.071375" lon="-105.2297889">
  <ele>1583.01</ele>
  <time>2026-08-28T17:54:03Z</time>
  <course>246.97</course>
  <speed>0.022360679774997897</speed>
  <fix>3d</fix>
</trkpt>
<trkpt lat="40.0713749" lon="-105.229789">
  <ele>1583.0</ele>
  <time>2026-08-28T17:54:03Z</time>
  <course>0.0</course>
  <speed>0.0</speed>
  <fix>3d</fix>
</trkpt>
<trkpt lat="40.0713751" lon="-105.2297889">
  <ele>1583.01</ele>
  <time>2026-08-28T17:54:03Z</time>
  <course>246.97</course>
  <speed>0.022360679774997897</speed>
  <fix>3d</fix>
</trkpt>
<trkpt lat="40.0713749" lon="-105.229789">
  <ele>1583.0</ele>
  <time>2026-08-28T17:54:03Z</time>
  <course>0.0</course>
  <speed>0.0</speed>
  <fix>3d</fix>
</trkpt>
<trkpt lat="40.071375" lon="-105.2297889">
  <ele>1583.01</ele>
  <time>2026-08-28T17:54:03Z</time>
  <course>246.97</course>
  <speed>0.022360679774997897</speed>
  <fix>3d</fix>
</trkpt>
<trkpt lat="40.0713749" lon="-105.229789">
  <ele>1583.0</ele>
  <time>2026-08-28T17:54:03Z</time>
  <course>0.0</course>
  <speed>0.0</speed>
  <fix>3d</fix>
</trkpt>
<trkpt lat="40.0713751" lon="-105.2297889">
  <ele>1583.01</ele>
  <time>2026-08-28T17:54:03Z</time>
  <course>246.97</course>
  <speed>0.022360679774997897</speed>
  <fix>3d</fix>
</trkpt>
<trkpt lat="40.0713749" lon="-105.229789">
  <ele>1583.0</ele>
  <time>2026-08-28T17:54:03Z</time>
  <course>0.0</course>
  <speed>0.0</speed>
  <fix>3d</fix>
</trkpt>
<trkpt lat="40.071375" lon="-105.2297889">
  <ele>1583.01</ele>
  <time>2026-08-28T17:54:03Z</time>
  <course>246.97</course>
  <speed>0.022360679774997897</speed>
  <fix>3d</fix>
</trkpt>
<trkpt lat="40.0713749" lon="-105.229789">
  <ele>1583.0</ele>
  <time>2026-08-28T17:54:03Z</time>
  <course>0.0</course>
  <speed>0.0</speed>
  <fix>3d</fix>
</trkpt>
<trkpt lat="40.0713751" lon="-105.2297889">
  <ele>1583.01</ele>
  <time>2026-08-28T17:54:03Z</time>
  <course>246.97</course>
  <speed>0.022360679774997897</speed>
  <fix>3d</fix>
</trkpt>
<trkpt lat="40.0713749" lon="-105.229789">
  <ele>1583.0</ele>
  <time>2026-08-28T17:54:03Z</time>
  <course>0.0</course>
  <speed>0.0</speed>
  <fix>3d</fix>
</trkpt>
<trkpt lat="40.0713751" lon="-105.2297889">
  <ele>1583.01</ele>
  <time>2026-08-28T17:54:03Z</time>
  <course>246.97</course>
  <speed>0.022360679774997897</speed>
  <fix>3d</fix>
</trkpt>
<trkpt lat="40.0713749" lon="-105.229789">
  <ele>1583.0</ele>
  <time>2026-08-28T17:54:03Z</time>
  <course>0.0</course>
  <speed>0.0</speed>
  <fix>3d</fix>
</trkpt>
<trkpt lat="40.0713751" lon="-105.2297889">
  <ele>1583.01</ele>
  <time>2026-08-28T17:54:03Z</time>
  <course>246.97</course>
  <speed>0.022360679774997897</speed>
  <fix>3d</fix>
</trkpt>
<trkpt lat="40.0713749" lon="-105.229789">
  <ele>1583.0</ele>
  <time>2026-08-28T17:54:03Z</time>
  <course>0.0</course>
  <speed>0.0</speed>
  <fix>3d</fix>
</trkpt>
<trkpt lat="40.0713751" lon="-105.2297889">
  <ele>1583.01</ele>
  <time>2026-08-28T17:54:03Z</time>
  <course>246.97</course>
  <speed>0.022360679774997897</speed>
  <fix>3d</fix>
</trkpt>
<trkpt lat="40.0713749" lon="-105.229789">
  <ele>1583.0</ele>
  <time>2026-08-28T17:54:03Z</time>
  <course>0.0</course>
  <speed>0.0</speed>
  <fix>3d</fix>
</trkpt>
<trkpt lat="40.0713751" lon="-105.2297889">
  <ele>1583.01</ele>
  <time>2026-08-28T17:54:03Z</time>
  <course>246.97</course>
  <speed>0.022360679774997897</speed>
  <fix>3d</fix>
</trkpt>
<trkpt lat="40.0713749" lon="-105.229789">
  <ele>1583.0</ele>
  <time>2026-08-28T17:54:03Z</time>
  <course>0.0</course>
  <speed>0.0</speed>
  <fix>3d</fix>
</trkpt>
<trkpt lat="40.0713751" lon="-105.2297889">
  <ele>1583.01</ele>
  <time>2026-08-28T17:54:03Z</time>
  <course>246.97</course>
  <speed>0.022360679774997897</speed>
  <fix>3d</fix>
</trkpt>
<trkpt lat="40.0713749" lon="-105.229789">
  <ele>1583.0</ele>
  <time>2026-08-28T17:54:03Z</time>
  <course>0.0</course>
  <speed>0.0</speed>
  <fix>3d</fix>
</trkpt>
<trkpt lat="40.0713751" lon="-105.2297889">
  <ele>1583.01</ele>
  <time>2026-08-28T17:54:03Z</time>
  <course>246.97</course>
  <speed>0.022360679774997897</speed>
  <fix>3d</fix>
</trkpt>
<trkpt lat="40.0713749" lon="-105.229789">
  <ele>1583.0</ele>
  <time>2026-08-28T17:54:03Z</time>
  <course>0.0</course>
  <speed>0.0</speed>
  <fix>3d</fix>
</trkpt>
<trkpt lat="40.0713751" lon="-105.2297889">
  <ele>1583.01</ele>
  <time>2026-08-28T17:54:03Z</time>
  <course>246.97</course>
  <speed>0.022360679774997897</speed>
  <fix>3d</fix>
</trkpt>
<trkpt lat="40.0713749" lon="-105.229789">
  <ele>1583.0</ele>
  <time>2026-08-28T17:54:03Z</time>
  <course>0.0</course>
  <speed>0.0</speed>
  <fix>3d</fix>
</trkpt>
<trkpt lat="40.0713751" lon="-105.2297889">
  <ele>1583.01</ele>
  <time>2026-08-28T17:54:03Z</time>
  <course>246.97</course>
  <speed>0.022360679774997897</speed>
  <fix>3d</fix>
</trkpt>
<trkpt lat="40.0713749" lon="-105.229789">
  <ele>1583.0</ele>
  <time>2026-08-28T17:54:03Z</time>
  <course>0.0</course>
  <speed>0.0</speed>
  <fix>3d</fix>
</trkpt>
<trkpt lat="40.071375" lon="-105.2297889">
  <ele>1583.01</ele>
  <time>2026-08-28T17:54:03Z</time>
  <course>246.97</course>
  <speed>0.022360679774997897</speed>
  <fix>3d</fix>
</trkpt>
<trkpt lat="40.0713749" lon="-105.229789">
  <ele>1583.0</ele>
  <time>2026-08-28T17:54:03Z</time>
  <course>0.0</course>
  <speed>0.0</speed>
  <fix>3d</fix>
</trkpt>
<trkpt lat="40.0713751" lon="-105.2297889">
  <ele>1583.02</ele>
  <time>2026-08-28T17:54:03Z</time>
  <course>246.97</course>
  <speed>0.022360679774997897</speed>
  <fix>3d</fix>
</trkpt>
<trkpt lat="40.0713749" lon="-105.229789">
  <ele>1583.0</ele>
  <time>2026-08-28T17:54:03Z</time>
  <course>0.0</course>
  <speed>0.0</speed>
  <fix>3d</fix>
</trkpt>
<trkpt lat="40.071375" lon="-105.2297889">
  <ele>1583.02</ele>
  <time>2026-08-28T17:54:03Z</time>
  <course>246.97</course>
  <speed>0.022360679774997897</speed>
  <fix>3d</fix>
</trkpt>
<trkpt lat="40.0713749" lon="-105.229789">
  <ele>1583.0</ele>
  <time>2026-08-28T17:54:03Z</time>
  <course>0.0</course>
  <speed>0.0</speed>
  <fix>3d</fix>
</trkpt>
<trkpt lat="40.0713751" lon="-105.2297889">
  <ele>1583.02</ele>
  <time>2026-08-28T17:54:03Z</time>
  <course>246.97</course>
  <speed>0.022360679774997897</speed>
  <fix>3d</fix>
</trkpt>
<trkpt lat="40.0713749" lon="-105.229789">
  <ele>1583.0</ele>
  <time>2026-08-28T17:54:03Z</time>
  <course>0.0</course>
  <speed>0.0</speed>
  <fix>3d</fix>
</trkpt>
<trkpt lat="40.0713751" lon="-105.2297889">
  <ele>1583.02</ele>
  <time>2026-08-28T17:54:03Z</time>
  <course>246.97</course>
  <speed>0.022360679774997897</speed>
  <fix>3d</fix>
</trkpt>
<trkpt lat="40.0713749" lon="-105.229789">
  <ele>1583.0</ele>
  <time>2026-08-28T17:54:03Z</time>
  <course>0.0</course>
  <speed>0.0</speed>
  <fix>3d</fix>
</trkpt>
<trkpt lat="40.0713751" lon="-105.2297889">
  <ele>1583.02</ele>
  <time>2026-08-28T17:54:03Z</time>
  <course>246.97</course>
  <speed>0.022360679774997897</speed>
  <fix>3d</fix>
</trkpt>
<trkpt lat="40.0713749" lon="-105.229789">
  <ele>1583.0</ele>
  <time>2026-08-28T17:54:03Z</time>
  <course>0.0</course>
  <speed>0.0</speed>
  <fix>3d</fix>
</trkpt>
<trkpt lat="40.0713751" lon="-105.2297889">
  <ele>1583.01</ele>
  <time>2026-08-28T17:54:03Z</time>
  <course>246.97</course>
  <speed>0.022360679774997897</speed>
  <fix>3d</fix>
</trkpt>
<trkpt lat="40.0713749" lon="-105.229789">
  <ele>1583.0</ele>
  <time>2026-08-28T17:54:03Z</time>
  <course>0.0</course>
  <speed>0.0</speed>
  <fix>3d</fix>
</trkpt>
<trkpt lat="40.0713751" lon="-105.2297889">
  <ele>1583.01</ele>
  <time>2026-08-28T17:54:03Z</time>
  <course>246.97</course>
  <speed>0.022360679774997897</speed>
  <fix>3d</fix>
</trkpt>
<trkpt lat="40.0713749" lon="-105.229789">
  <ele>1583.0</ele>
  <time>2026-08-28T17:54:03Z</time>
  <course>0.0</course>
  <speed>0.0</speed>
  <fix>3d</fix>
</trkpt>
<trkpt lat="40.0713751" lon="-105.2297889">
  <ele>1583.01</ele>
  <time>2026-08-28T17:54:03Z</time>
  <course>246.97</course>
  <speed>0.022360679774997897</speed>
  <fix>3d</fix>
</trkpt>
<trkpt lat="40.0713749" lon="-105.229789">
  <ele>1583.0</ele>
  <time>2026-08-28T17:54:03Z</time>
  <course>0.0</course>
  <speed>0.0</speed>
  <fix>3d</fix>
</trkpt>
<trkpt lat="40.0713751" lon="-105.2297889">
  <ele>1583.0</ele>
  <time>2026-08-28T17:54:03Z</time>
  <course>246.97</course>
  <speed>0.022360679774997897</speed>
  <fix>3d</fix>
</trkpt>
<trkpt lat="40.0713749" lon="-105.229789">
  <ele>1583.0</ele>
  <time>2026-08-28T17:54:03Z</time>
  <course>0.0</course>
  <speed>0.0</speed>
  <fix>3d</fix>
</trkpt>
<trkpt lat="40.0713751" lon="-105.2297889">
  <ele>1583.0</ele>
  <time>2026-08-28T17:54:03Z</time>
  <course>246.97</course>
  <speed>0.022360679774997897</speed>
  <fix>3d</fix>
</trkpt>
<trkpt lat="40.0713749" lon="-105.229789">
  <ele>1583.0</ele>
  <time>2026-08-28T17:54:03Z</time>
  <course>0.0</course>
  <speed>0.0</speed>
  <fix>3d</fix>
</trkpt>
<trkpt lat="40.0713751" lon="-105.2297889">
  <ele>1583.0</ele>
  <time>2026-08-28T17:54:03Z</time>
  <course>246.97</course>
  <speed>0.022360679774997897</speed>
  <fix>3d</fix>
</trkpt>
<trkpt lat="40.0713749" lon="-105.229789">
  <ele>1583.0</ele>
  <time>2026-08-28T17:54:03Z</time>
  <course>0.0</course>
  <speed>0.0</speed>
  <fix>3d</fix>
</trkpt>
<trkpt lat="40.0713751" lon="-105.2297889">
  <ele>1583.0</ele>
  <time>2026-08-28T17:54:03Z</time>
  <course>246.97</course>
  <speed>0.022360679774997897</speed>
  <fix>3d</fix>
</trkpt>
<trkpt lat="40.0713749" lon="-105.229789">
  <ele>1583.0</ele>
  <time>2026-08-28T17:54:03Z</time>
  <course>0.0</course>
  <speed>0.0</speed>
  <fix>3d</fix>
</trkpt>
<trkpt lat="40.0713751" lon="-105.2297889">
  <ele>1582.99</ele>
  <time>2026-08-28T17:54:03Z</time>
  <course>246.97</course>
  <speed>0.022360679774997897</speed>
  <fix>3d</fix>
</trkpt>
<trkpt lat="40.0713749" lon="-105.229789">
  <ele>1583.0</ele>
  <time>2026-08-28T17:54:03Z</time>
  <course>0.0</course>
  <speed>0.0</speed>
  <fix>3d</fix>
</trkpt>
<trkpt lat="40.0713751" lon="-105.2297889">
  <ele>1582.99</ele>
  <time>2026-08-28T17:54:03Z</time>
  <course>246.97</course>
  <speed>0.022360679774997897</speed>
  <fix>3d</fix>
</trkpt>
<trkpt lat="40.0713749" lon="-105.229789">
  <ele>1583.0</ele>
  <time>2026-08-28T17:54:03Z</time>
  <course>0.0</course>
  <speed>0.0</speed>
  <fix>3d</fix>
</trkpt>
<trkpt lat="40.0713751" lon="-105.2297889">
  <ele>1582.99</ele>
  <time>2026-08-28T17:54:03Z</time>
  <course>246.97</course>
  <speed>0.022360679774997897</speed>
  <fix>3d</fix>
</trkpt>
<trkpt lat="40.0713749" lon="-105.229789">
  <ele>1583.0</ele>
  <time>2026-08-28T17:54:03Z</time>
  <course>0.0</course>
  <speed>0.0</speed>
  <fix>3d</fix>
</trkpt>
<trkpt lat="40.0713751" lon="-105.2297889">
  <ele>1582.99</ele>
  <time>2026-08-28T17:54:03Z</time>
  <course>246.97</course>
  <speed>0.022360679774997897</speed>
  <fix>3d</fix>
</trkpt>
<trkpt lat="40.0713749" lon="-105.229789">
  <ele>1583.0</ele>
  <time>2026-08-28T17:54:03Z</time>
  <course>0.0</course>
  <speed>0.0</speed>
  <fix>3d</fix>
</trkpt>
<trkpt lat="40.0713751" lon="-105.2297889">
  <ele>1582.99</ele>
  <time>2026-08-28T17:54:03Z</time>
  <course>246.97</course>
  <speed>0.022360679774997897</speed>
  <fix>3d</fix>
</trkpt>
<trkpt lat="40.0713749" lon="-105.229789">
  <ele>1583.0</ele>
  <time>2026-08-28T17:54:03Z</time>
  <course>0.0</course>
  <speed>0.0</speed>
  <fix>3d</fix>
</trkpt>
<trkpt lat="40.0713751" lon="-105.2297889">
  <ele>1582.99</ele>
  <time>2026-08-28T17:54:03Z</time>
  <course>246.97</course>
  <speed>0.022360679774997897</speed>
  <fix>3d</fix>
</trkpt>
<trkpt lat="40.0713749" lon="-105.229789">
  <ele>1583.0</ele>
  <time>2026-08-28T17:54:03Z</time>
  <course>0.0</course>
  <speed>0.0</speed>
  <fix>3d</fix>
</trkpt>
<trkpt lat="40.0713751" lon="-105.2297889">
  <ele>1582.99</ele>
  <time>2026-08-28T17:54:03Z</time>
  <course>246.97</course>
  <speed>0.022360679774997897</speed>
  <fix>3d</fix>
</trkpt>
<trkpt lat="40.0713749" lon="-105.229789">
  <ele>1583.0</ele>
  <time>2026-08-28T17:54:03Z</time>
  <course>0.0</course>
  <speed>0.0</speed>
  <fix>3d</fix>
</trkpt>
<trkpt lat="40.0713751" lon="-105.2297889">
  <ele>1582.98</ele>
  <time>2026-08-28T17:54:03Z</time>
  <course>246.97</course>
  <speed>0.022360679774997897</speed>
  <fix>3d</fix>
</trkpt>
<trkpt lat="40.0713749" lon="-105.229789">
  <ele>1583.0</ele>
  <time>2026-08-28T17:54:03Z</time>
  <course>0.0</course>
  <speed>0.0</speed>
  <fix>3d</fix>
</trkpt>
<trkpt lat="40.0713751" lon="-105.2297889">
  <ele>1582.98</ele>
  <time>2026-08-28T17:54:03Z</time>
  <course>246.97</course>
  <speed>0.022360679774997897</speed>
  <fix>3d</fix>
</trkpt>
<trkpt lat="40.0713749" lon="-105.229789">
  <ele>1583.0</ele>
  <time>2026-08-28T17:54:03Z</time>
  <course>0.0</course>
  <speed>0.0</speed>
  <fix>3d</fix>
</trkpt>
<trkpt lat="40.0713751" lon="-105.2297889">
  <ele>1582.98</ele>
  <time>2026-08-28T17:54:03Z</time>
  <course>246.97</course>
  <speed>0.022360679774997897</speed>
  <fix>3d</fix>
</trkpt>
<trkpt lat="40.0713749" lon="-105.229789">
  <ele>1583.0</ele>
  <time>2026-08-28T17:54:03Z</time>
  <course>0.0</course>
  <speed>0.0</speed>
  <fix>3d</fix>
</trkpt>
<trkpt lat="40.0713751" lon="-105.2297889">
  <ele>1582.98</ele>
  <time>2026-08-28T17:54:03Z</time>
  <course>246.97</course>
  <speed>0.022360679774997897</speed>
  <fix>3d</fix>
</trkpt>
<trkpt lat="40.0713749" lon="-105.229789">
  <ele>1583.0</ele>
  <time>2026-08-28T17:54:03Z</time>
  <course>0.0</course>
  <speed>0.0</speed>
  <fix>3d</fix>
</trkpt>
<trkpt lat="40.071375" lon="-105.2297889">
  <ele>1582.98</ele>
  <time>2026-08-28T17:54:03Z</time>
  <course>246.97</course>
  <speed>0.022360679774997897</speed>
  <fix>3d</fix>
</trkpt>
<trkpt lat="40.0713749" lon="-105.229789">
  <ele>1583.0</ele>
  <time>2026-08-28T17:54:03Z</time>
  <course>0.0</course>
  <speed>0.0</speed>
  <fix>3d</fix>
</trkpt>
<trkpt lat="40.0713751" lon="-105.2297889">
  <ele>1582.98</ele>
  <time>2026-08-28T17:54:03Z</time>
  <course>246.97</course>
  <speed>0.022360679774997897</speed>
  <fix>3d</fix>
</trkpt>
<trkpt lat="40.0713749" lon="-105.229789">
  <ele>1583.0</ele>
  <time>2026-08-28T17:54:03Z</time>
  <course>0.0</course>
  <speed>0.0</speed>
  <fix>3d</fix>
</trkpt>
<trkpt lat="40.0713751" lon="-105.2297889">
  <ele>1582.97</ele>
  <time>2026-08-28T17:54:03Z</time>
  <course>246.97</course>
  <speed>0.022360679774997897</speed>
  <fix>3d</fix>
</trkpt>
<trkpt lat="40.0713749" lon="-105.229789">
  <ele>1583.0</ele>
  <time>2026-08-28T17:54:03Z</time>
  <course>0.0</course>
  <speed>0.0</speed>
  <fix>3d</fix>
</trkpt>
<trkpt lat="40.0713751" lon="-105.2297889">
  <ele>1582.97</ele>
  <time>2026-08-28T17:54:03Z</time>
  <course>246.97</course>
  <speed>0.022360679774997897</speed>
  <fix>3d</fix>
</trkpt>
<trkpt lat="40.0713749" lon="-105.229789">
  <ele>1583.0</ele>
  <time>2026-08-28T17:54:03Z</time>
  <course>0.0</course>
  <speed>0.0</speed>
  <fix>3d</fix>
</trkpt>
<trkpt lat="40.0713751" lon="-105.2297889">
  <ele>1582.97</ele>
  <time>2026-08-28T17:54:03Z</time>
  <course>246.97</course>
  <speed>0.022360679774997897</speed>
  <fix>3d</fix>
</trkpt>
<trkpt lat="40.0713749" lon="-105.229789">
  <ele>1583.0</ele>
  <time>2026-08-28T17:54:03Z</time>
  <course>0.0</course>
  <speed>0.0</speed>
  <fix>3d</fix>
</trkpt>
<trkpt lat="40.0713751" lon="-105.2297889">
  <ele>1582.97</ele>
  <time>2026-08-28T17:54:03Z</time>
  <course>246.97</course>
  <speed>0.022360679774997897</speed>
  <fix>3d</fix>
</trkpt>
<trkpt lat="40.0713749" lon="-105.229789">
  <ele>1583.0</ele>
  <time>2026-08-28T17:54:03Z</time>
  <course>0.0</course>
  <speed>0.0</speed>
  <fix>3d</fix>
</trkpt>
<trkpt lat="40.0713751" lon="-105.2297889">
  <ele>1582.97</ele>
  <time>2026-08-28T17:54:03Z</time>
  <course>246.97</course>
  <speed>0.022360679774997897</speed>
  <fix>3d</fix>
</trkpt>
<trkpt lat="40.0713749" lon="-105.229789">
  <ele>1583.0</ele>
  <time>2026-08-28T17:54:03Z</time>
  <course>0.0</course>
  <speed>0.0</speed>
  <fix>3d</fix>
</trkpt>
<trkpt lat="40.0713751" lon="-105.2297889">
  <ele>1582.97</ele>
  <time>2026-08-28T17:54:03Z</time>
  <course>246.97</course>
  <speed>0.022360679774997897</speed>
  <fix>3d</fix>
</trkpt>
<trkpt lat="40.0713749" lon="-105.229789">
  <ele>1583.0</ele>
  <time>2026-08-28T17:54:03Z</time>
  <course>0.0</course>
  <speed>0.0</speed>
  <fix>3d</fix>
</trkpt>
<trkpt lat="40.0713751" lon="-105.2297889">
  <ele>1582.98</ele>
  <time>2026-08-28T17:54:03Z</time>
  <course>246.97</course>
  <speed>0.022360679774997897</speed>
  <fix>3d</fix>
</trkpt>
<trkpt lat="40.0713749" lon="-105.229789">
  <ele>1583.0</ele>
  <time>2026-08-28T17:54:03Z</time>
  <course>0.0</course>
  <speed>0.0</speed>
  <fix>3d</fix>
</trkpt>
<trkpt lat="40.0713751" lon="-105.2297889">
  <ele>1582.98</ele>
  <time>2026-08-28T17:54:03Z</time>
  <course>246.97</course>
  <speed>0.022360679774997897</speed>
  <fix>3d</fix>
</trkpt>
<trkpt lat="40.0713749" lon="-105.229789">
  <ele>1583.0</ele>
  <time>2026-08-28T17:54:03Z</time>
  <course>0.0</course>
  <speed>0.0</speed>
  <fix>3d</fix>
</trkpt>
<trkpt lat="40.0713751" lon="-105.2297889">
  <ele>1582.98</ele>
  <time>2026-08-28T17:54:03Z</time>
  <course>246.97</course>
  <speed>0.022360679774997897</speed>
  <fix>3d</fix>
</trkpt>
<trkpt lat="40.0713749" lon="-105.229789">
  <ele>1583.0</ele>
  <time>2026-08-28T17:54:03Z</time>
  <course>0.0</course>
  <speed>0.0</speed>
  <fix>3d</fix>
</trkpt>
<trkpt lat="40.0713751" lon="-105.2297889">
  <ele>1582.99</ele>
  <time>2026-08-28T17:54:03Z</time>
  <course>246.97</course>
  <speed>0.022360679774997897</speed>
  <fix>3d</fix>
</trkpt>
<trkpt lat="40.0713749" lon="-105.229789">
  <ele>1583.0</ele>
  <time>2026-08-28T17:54:03Z</time>
  <course>0.0</course>
  <speed>0.0</speed>
  <fix>3d</fix>
</trkpt>
<trkpt lat="40.0713751" lon="-105.2297889">
  <ele>1582.99</ele>
  <time>2026-08-28T17:54:03Z</time>
  <course>246.97</course>
  <speed>0.022360679774997897</speed>
  <fix>3d</fix>
</trkpt>
<trkpt lat="40.0713749" lon="-105.229789">
  <ele>1583.0</ele>
  <time>2026-08-28T17:54:03Z</time>
  <course>0.0</course>
  <speed>0.0</speed>
  <fix>3d</fix>
</trkpt>
<trkpt lat="40.0713751" lon="-105.2297889">
  <ele>1582.99</ele>
  <time>2026-08-28T17:54:03Z</time>
  <course>246.97</course>
  <speed>0.022360679774997897</speed>
  <fix>3d</fix>
</trkpt>
<trkpt lat="40.0713749" lon="-105.229789">
  <ele>1583.0</ele>
  <time>2026-08-28T17:54:03Z</time>
  <course>0.0</course>
  <speed>0.0</speed>
  <fix>3d</fix>
</trkpt>
<trkpt lat="40.0713751" lon="-105.2297889">
  <ele>1583.0</ele>
  <time>2026-08-28T17:54:03Z</time>
  <course>246.97</course>
  <speed>0.022360679774997897</speed>
  <fix>3d</fix>
</trkpt>
<trkpt lat="40.0713749" lon="-105.229789">
  <ele>1583.0</ele>
  <time>2026-08-28T17:54:03Z</time>
  <course>0.0</course>
  <speed>0.0</speed>
  <fix>3d</fix>
</trkpt>
<trkpt lat="40.0713751" lon="-105.2297889">
  <ele>1583.0</ele>
  <time>2026-08-28T17:54:03Z</time>
  <course>246.97</course>
  <speed>0.022360679774997897</speed>
  <fix>3d</fix>
</trkpt>
<trkpt lat="40.0713749" lon="-105.229789">
  <ele>1583.0</ele>
  <time>2026-08-28T17:54:03Z</time>
  <course>0.0</course>
  <speed>0.0</speed>
  <fix>3d</fix>
</trkpt>
<trkpt lat="40.0713751" lon="-105.2297889">
  <ele>1583.0</ele>
  <time>2026-08-28T17:54:03Z</time>
  <course>246.97</course>
  <speed>0.022360679774997897</speed>
  <fix>3d</fix>
</trkpt>
<trkpt lat="40.0713749" lon="-105.229789">
  <ele>1583.0</ele>
  <time>2026-08-28T17:54:03Z</time>
  <course>0.0</course>
  <speed>0.0</speed>
  <fix>3d</fix>
</trkpt>
<trkpt lat="40.0713751" lon="-105.2297889">
  <ele>1583.0</ele>
  <time>2026-08-28T17:54:03Z</time>
  <course>246.97</course>
  <speed>0.022360679774997897</speed>
  <fix>3d</fix>
</trkpt>
<trkpt lat="40.0713749" lon="-105.229789">
  <ele>1583.0</ele>
  <time>2026-08-28T17:54:03Z</time>
  <course>0.0</course>
  <speed>0.0</speed>
  <fix>3d</fix>
</trkpt>
<trkpt lat="40.0713751" lon="-105.2297889">
  <ele>1583.0</ele>
  <time>2026-08-28T17:54:03Z</time>
  <course>246.97</course>
  <speed>0.022360679774997897</speed>
  <fix>3d</fix>
</trkpt>
<trkpt lat="40.0713749" lon="-105.229789">
  <ele>1583.0</ele>
  <time>2026-08-28T17:54:03Z</time>
  <course>0.0</course>
  <speed>0.0</speed>
  <fix>3d</fix>
</trkpt>
<trkpt lat="40.0713751" lon="-105.2297889">
  <ele>1583.0</ele>
  <time>2026-08-28T17:54:03Z</time>
  <course>246.97</course>
  <speed>0.022360679774997897</speed>
  <fix>3d</fix>
</trkpt>
<trkpt lat="40.0713749" lon="-105.229789">
  <ele>1583.0</ele>
  <time>2026-08-28T17:54:03Z</time>
  <course>0.0</course>
  <speed>0.0</speed>
  <fix>3d</fix>
</trkpt>
<trkpt lat="40.0713751" lon="-105.2297889">
  <ele>1583.0</ele>
  <time>2026-08-28T17:54:03Z</time>
  <course>246.97</course>
  <speed>0.02</speed>
  <fix>3d</fix>
</trkpt>
<trkpt lat="40.0713749" lon="-105.229789">
  <ele>1583.0</ele>
  <time>2026-08-28T17:54:03Z</time>
  <course>0.0</course>
  <speed>0.0</speed>
  <fix>3d</fix>
</trkpt>
<trkpt lat="40.0713751" lon="-105.2297889">
  <ele>1583.0</ele>
  <time>2026-08-28T17:54:03Z</time>
  <course>246.97</course>
  <speed>0.022360679774997897</speed>
  <fix>3d</fix>
</trkpt>
<trkpt lat="40.0713749" lon="-105.229789">
  <ele>1583.0</ele>
  <time>2026-08-28T17:54:03Z</time>
  <course>0.0</course>
  <speed>0.0</speed>
  <fix>3d</fix>
</trkpt>
<trkpt lat="40.0713751" lon="-105.2297889">
  <ele>1583.0</ele>
  <time>2026-08-28T17:54:03Z</time>
  <course>246.97</course>
  <speed>0.02</speed>
  <fix>3d</fix>
</trkpt>
<trkpt lat="40.0713749" lon="-105.229789">
  <ele>1583.0</ele>
  <time>2026-08-28T17:54:03Z</time>
  <course>0.0</course>
  <speed>0.0</speed>
  <fix>3d</fix>
</trkpt>
<trkpt lat="40.0713751" lon="-105.2297889">
  <ele>1583.0</ele>
  <time>2026-08-28T17:54:03Z</time>
  <course>246.97</course>
  <speed>0.022360679774997897</speed>
  <fix>3d</fix>
</trkpt>
<trkpt lat="40.0713749" lon="-105.229789">
  <ele>1583.0</ele>
  <time>2026-08-28T17:54:03Z</time>
  <course>0.0</course>
  <speed>0.0</speed>
  <fix>3d</fix>
</trkpt>
<trkpt lat="40.0713751" lon="-105.2297889">
  <ele>1583.0</ele>
  <time>2026-08-28T17:54:03Z</time>
  <course>246.97</course>
  <speed>0.02</speed>
  <fix>3d</fix>
</trkpt>
<trkpt lat="40.0713749" lon="-105.229789">
  <ele>1583.0</ele>
  <time>2026-08-28T17:54:03Z</time>
  <course>0.0</course>
  <speed>0.0</speed>
  <fix>3d</fix>
</trkpt>
<trkpt lat="40.0713751" lon="-105.2297889">
  <ele>1583.0</ele>
  <time>2026-08-28T17:54:03Z</time>
  <course>246.97</course>
  <speed>0.02</speed>
  <fix>3d</fix>
</trkpt>
<trkpt lat="40.0713749" lon="-105.229789">
  <ele>1583.0</ele>
  <time>2026-08-28T17:54:03Z</time>
  <course>0.0</course>
  <speed>0.0</speed>
  <fix>3d</fix>
</trkpt>
<trkpt lat="40.0713751" lon="-105.2297889">
  <ele>1583.0</ele>
  <time>2026-08-28T17:54:03Z</time>
  <course>246.97</course>
  <speed>0.02</speed>
  <fix>3d</fix>
</trkpt>
<trkpt lat="40.0713749" lon="-105.229789">
  <ele>1583.0</ele>
  <time>2026-08-28T17:54:03Z</time>
  <course>0.0</course>
  <speed>0.0</speed>
  <fix>3d</fix>
</trkpt>
<trkpt lat="40.0713751" lon="-105.2297889">
  <ele>1583.0</ele>
  <time>2026-08-28T17:54:03Z</time>
  <course>246.97</course>
  <speed>0.022360679774997897</speed>
  <fix>3d</fix>
</trkpt>
<trkpt lat="40.0713749" lon="-105.229789">
  <ele>1583.0</ele>
  <time>2026-08-28T17:54:03Z</time>
  <course>0.0</course>
  <speed>0.0</speed>
  <fix>3d</fix>
</trkpt>
<trkpt lat="40.0713751" lon="-105.2297889">
  <ele>1583.0</ele>
  <time>2026-08-28T17:54:03Z</time>
  <course>246.97</course>
  <speed>0.02</speed>
  <fix>3d</fix>
</trkpt>
<trkpt lat="40.0713749" lon="-105.229789">
  <ele>1583.0</ele>
  <time>2026-08-28T17:54:03Z</time>
  <course>0.0</course>
  <speed>0.0</speed>
  <fix>3d</fix>
</trkpt>
<trkpt lat="40.0713751" lon="-105.2297889">
  <ele>1583.0</ele>
  <time>2026-08-28T17:54:03Z</time>
  <course>246.97</course>
  <speed>0.02</speed>
  <fix>3d</fix>
</trkpt>
<trkpt lat="40.0713749" lon="-105.229789">
  <ele>1583.0</ele>
  <time>2026-08-28T17:54:03Z</time>
  <course>0.0</course>
  <speed>0.0</speed>
  <fix>3d</fix>
</trkpt>
<trkpt lat="40.0713751" lon="-105.2297889">
  <ele>1583.0</ele>
  <time>2026-08-28T17:54:03Z</time>
  <course>246.97</course>
  <speed>0.02</speed>
  <fix>3d</fix>
</trkpt>
<trkpt lat="40.0713749" lon="-105.229789">
  <ele>1583.0</ele>
  <time>2026-08-28T17:54:03Z</time>
  <course>0.0</course>
  <speed>0.0</speed>
  <fix>3d</fix>
</trkpt>
<trkpt lat="40.0713751" lon="-105.2297889">
  <ele>1583.0</ele>
  <time>2026-08-28T17:54:03Z</time>
  <course>246.97</course>
  <speed>0.022360679774997897</speed>
  <fix>3d</fix>
</trkpt>
<trkpt lat="40.0713749" lon="-105.229789">
  <ele>1583.0</ele>
  <time>2026-08-28T17:54:03Z</time>
  <course>0.0</course>
  <speed>0.0</speed>
  <fix>3d</fix>
</trkpt>
<trkpt lat="40.0713751" lon="-105.2297889">
  <ele>1583.0</ele>
  <time>2026-08-28T17:54:03Z</time>
  <course>246.97</course>
  <speed>0.02</speed>
  <fix>3d</fix>
</trkpt>
<trkpt lat="40.0713749" lon="-105.229789">
  <ele>1583.0</ele>
  <time>2026-08-28T17:54:03Z</time>
  <course>0.0</course>
  <speed>0.0</speed>
  <fix>3d</fix>
</trkpt>
<trkpt lat="40.0713751" lon="-105.2297889">
  <ele>1583.0</ele>
  <time>2026-08-28T17:54:03Z</time>
  <course>246.97</course>
  <speed>0.022360679774997897</speed>
  <fix>3d</fix>
</trkpt>
<trkpt lat="40.0713749" lon="-105.229789">
  <ele>1583.0</ele>
  <time>2026-08-28T17:54:03Z</time>
  <course>0.0</course>
  <speed>0.0</speed>
  <fix>3d</fix>
</trkpt>
<trkpt lat="40.0713751" lon="-105.2297889">
  <ele>1583.0</ele>
  <time>2026-08-28T17:54:03Z</time>
  <course>246.97</course>
  <speed>0.02</speed>
  <fix>3d</fix>
</trkpt>
<trkpt lat="40.0713749" lon="-105.229789">
  <ele>1583.0</ele>
  <time>2026-08-28T17:54:03Z</time>
  <course>0.0</course>
  <speed>0.0</speed>
  <fix>3d</fix>
</trkpt>
<trkpt lat="40.0713751" lon="-105.2297889">
  <ele>1583.0</ele>
  <time>2026-08-28T17:54:03Z</time>
  <course>246.97</course>
  <speed>0.02</speed>
  <fix>3d</fix>
</trkpt>
<trkpt lat="40.0713749" lon="-105.229789">
  <ele>1583.0</ele>
  <time>2026-08-28T17:54:03Z</time>
  <course>0.0</course>
  <speed>0.0</speed>
  <fix>3d</fix>
</trkpt>
<trkpt lat="40.0713751" lon="-105.2297889">
  <ele>1583.01</ele>
  <time>2026-08-28T17:54:03Z</time>
  <course>246.97</course>
  <speed>0.02</speed>
  <fix>3d</fix>
</trkpt>
<trkpt lat="40.0713749" lon="-105.229789">
  <ele>1583.0</ele>
  <time>2026-08-28T17:54:03Z</time>
  <course>0.0</course>
  <speed>0.0</speed>
  <fix>3d</fix>
</trkpt>
<trkpt lat="40.0713751" lon="-105.2297889">
  <ele>1583.01</ele>
  <time>2026-08-28T17:54:03Z</time>
  <course>246.97</course>
  <speed>0.02</speed>
  <fix>3d</fix>
</trkpt>
<trkpt lat="40.0713749" lon="-105.229789">
  <ele>1583.0</ele>
  <time>2026-08-28T17:54:03Z</time>
  <course>0.0</course>
  <speed>0.0</speed>
  <fix>3d</fix>
</trkpt>
<trkpt lat="40.071375" lon="-105.2297889">
  <ele>1583.01</ele>
  <time>2026-08-28T17:54:03Z</time>
  <course>246.97</course>
  <speed>0.02</speed>
  <fix>3d</fix>
</trkpt>
<trkpt lat="40.0713749" lon="-105.229789">
  <ele>1583.0</ele>
  <time>2026-08-28T17:54:03Z</time>
  <course>0.0</course>
  <speed>0.0</speed>
  <fix>3d</fix>
</trkpt>
<trkpt lat="40.0713751" lon="-105.2297889">
  <ele>1583.01</ele>
  <time>2026-08-28T17:54:03Z</time>
  <course>246.97</course>
  <speed>0.02</speed>
  <fix>3d</fix>
</trkpt>
<trkpt lat="40.0713749" lon="-105.229789">
  <ele>1583.0</ele>
  <time>2026-08-28T17:54:03Z</time>
  <course>0.0</course>
  <speed>0.0</speed>
  <fix>3d</fix>
</trkpt>
<trkpt lat="40.071375" lon="-105.2297889">
  <ele>1583.02</ele>
  <time>2026-08-28T17:54:03Z</time>
  <course>246.97</course>
  <speed>0.02</speed>
  <fix>3d</fix>
</trkpt>
<trkpt lat="40.0713749" lon="-105.229789">
  <ele>1583.0</ele>
  <time>2026-08-28T17:54:03Z</time>
  <course>0.0</course>
  <speed>0.0</speed>
  <fix>3d</fix>
</trkpt>
<trkpt lat="40.0713751" lon="-105.2297889">
  <ele>1583.02</ele>
  <time>2026-08-28T17:54:03Z</time>
  <course>246.97</course>
  <speed>0.02</speed>
  <fix>3d</fix>
</trkpt>
<trkpt lat="40.0713749" lon="-105.229789">
  <ele>1583.0</ele>
  <time>2026-08-28T17:54:03Z</time>
  <course>0.0</course>
  <speed>0.0</speed>
  <fix>3d</fix>
</trkpt>
<trkpt lat="40.071375" lon="-105.2297889">
  <ele>1583.02</ele>
  <time>2026-08-28T17:54:03Z</time>
  <course>246.97</course>
  <speed>0.02</speed>
  <fix>3d</fix>
</trkpt>
<trkpt lat="40.0713749" lon="-105.229789">
  <ele>1583.0</ele>
  <time>2026-08-28T17:54:03Z</time>
  <course>0.0</course>
  <speed>0.0</speed>
  <fix>3d</fix>
</trkpt>
<trkpt lat="40.0713751" lon="-105.2297889">
  <ele>1583.02</ele>
  <time>2026-08-28T17:54:03Z</time>
  <course>246.97</course>
  <speed>0.02</speed>
  <fix>3d</fix>
</trkpt>
<trkpt lat="40.0713749" lon="-105.229789">
  <ele>1583.0</ele>
  <time>2026-08-28T17:54:03Z</time>
  <course>0.0</course>
  <speed>0.0</speed>
  <fix>3d</fix>
</trkpt>
<trkpt lat="40.071375" lon="-105.2297889">
  <ele>1583.02</ele>
  <time>2026-08-28T17:54:03Z</time>
  <course>246.97</course>
  <speed>0.02</speed>
  <fix>3d</fix>
</trkpt>
<trkpt lat="40.0713749" lon="-105.229789">
  <ele>1583.0</ele>
  <time>2026-08-28T17:54:03Z</time>
  <course>0.0</course>
  <speed>0.0</speed>
  <fix>3d</fix>
</trkpt>
<trkpt lat="40.0713751" lon="-105.2297889">
  <ele>1583.02</ele>
  <time>2026-08-28T17:54:03Z</time>
  <course>246.97</course>
  <speed>0.02</speed>
  <fix>3d</fix>
</trkpt>
<trkpt lat="40.0713749" lon="-105.229789">
  <ele>1583.0</ele>
  <time>2026-08-28T17:54:03Z</time>
  <course>0.0</course>
  <speed>0.0</speed>
  <fix>3d</fix>
</trkpt>
<trkpt lat="40.071375" lon="-105.2297889">
  <ele>1583.02</ele>
  <time>2026-08-28T17:54:03Z</time>
  <course>246.97</course>
  <speed>0.02</speed>
  <fix>3d</fix>
</trkpt>
<trkpt lat="40.0713749" lon="-105.229789">
  <ele>1583.0</ele>
  <time>2026-08-28T17:54:03Z</time>
  <course>0.0</course>
  <speed>0.0</speed>
  <fix>3d</fix>
</trkpt>
<trkpt lat="40.0713751" lon="-105.2297889">
  <ele>1583.02</ele>
  <time>2026-08-28T17:54:03Z</time>
  <course>246.97</course>
  <speed>0.02</speed>
  <fix>3d</fix>
</trkpt>
<trkpt lat="40.0713749" lon="-105.229789">
  <ele>1583.0</ele>
  <time>2026-08-28T17:54:03Z</time>
  <course>0.0</course>
  <speed>0.0</speed>
  <fix>3d</fix>
</trkpt>
<trkpt lat="40.071375" lon="-105.2297889">
  <ele>1583.02</ele>
  <time>2026-08-28T17:54:03Z</time>
  <course>246.97</course>
  <speed>0.02</speed>
  <fix>3d</fix>
</trkpt>
<trkpt lat="40.0713749" lon="-105.229789">
  <ele>1583.0</ele>
  <time>2026-08-28T17:54:03Z</time>
  <course>0.0</course>
  <speed>0.0</speed>
  <fix>3d</fix>
</trkpt>
<trkpt lat="40.0713751" lon="-105.2297889">
  <ele>1583.01</ele>
  <time>2026-08-28T17:54:03Z</time>
  <course>246.97</course>
  <speed>0.02</speed>
  <fix>3d</fix>
</trkpt>
<trkpt lat="40.0713749" lon="-105.229789">
  <ele>1583.0</ele>
  <time>2026-08-28T17:54:03Z</time>
  <course>0.0</course>
  <speed>0.0</speed>
  <fix>3d</fix>
</trkpt>
<trkpt lat="40.0713751" lon="-105.2297889">
  <ele>1583.01</ele>
  <time>2026-08-28T17:54:03Z</time>
  <course>246.97</course>
  <speed>0.02</speed>
  <fix>3d</fix>
</trkpt>
<trkpt lat="40.0713749" lon="-105.229789">
  <ele>1583.0</ele>
  <time>2026-08-28T17:54:03Z</time>
  <course>0.0</course>
  <speed>0.0</speed>
  <fix>3d</fix>
</trkpt>
<trkpt lat="40.0713751" lon="-105.2297889">
  <ele>1583.01</ele>
  <time>2026-08-28T17:54:03Z</time>
  <course>246.97</course>
  <speed>0.02</speed>
  <fix>3d</fix>
</trkpt>
<trkpt lat="40.0713749" lon="-105.229789">
  <ele>1583.0</ele>
  <time>2026-08-28T17:54:03Z</time>
  <course>0.0</course>
  <speed>0.0</speed>
  <fix>3d</fix>
</trkpt>
<trkpt lat="40.0713751" lon="-105.2297889">
  <ele>1583.01</ele>
  <time>2026-08-28T17:54:03Z</time>
  <course>246.97</course>
  <speed>0.02</speed>
  <fix>3d</fix>
</trkpt>
<trkpt lat="40.0713749" lon="-105.229789">
  <ele>1583.0</ele>
  <time>2026-08-28T17:54:03Z</time>
  <course>0.0</course>
  <speed>0.0</speed>
  <fix>3d</fix>
</trkpt>
<trkpt lat="40.0713751" lon="-105.2297889">
  <ele>1583.02</ele>
  <time>2026-08-28T17:54:03Z</time>
  <course>246.97</course>
  <speed>0.02</speed>
  <fix>3d</fix>
</trkpt>
<trkpt lat="40.0713749" lon="-105.229789">
  <ele>1583.0</ele>
  <time>2026-08-28T17:54:03Z</time>
  <course>0.0</course>
  <speed>0.0</speed>
  <fix>3d</fix>
</trkpt>
<trkpt lat="40.0713751" lon="-105.2297889">
  <ele>1583.02</ele>
  <time>2026-08-28T17:54:03Z</time>
  <course>246.97</course>
  <speed>0.02</speed>
  <fix>3d</fix>
</trkpt>
<trkpt lat="40.0713749" lon="-105.229789">
  <ele>1583.0</ele>
  <time>2026-08-28T17:54:03Z</time>
  <course>0.0</course>
  <speed>0.0</speed>
  <fix>3d</fix>
</trkpt>
<trkpt lat="40.0713751" lon="-105.2297889">
  <ele>1583.02</ele>
  <time>2026-08-28T17:54:03Z</time>
  <course>246.97</course>
  <speed>0.02</speed>
  <fix>3d</fix>
</trkpt>
<trkpt lat="40.0713749" lon="-105.229789">
  <ele>1583.0</ele>
  <time>2026-08-28T17:54:03Z</time>
  <course>0.0</course>
  <speed>0.0</speed>
  <fix>3d</fix>
</trkpt>
<trkpt lat="40.0713751" lon="-105.2297889">
  <ele>1583.02</ele>
  <time>2026-08-28T17:54:03Z</time>
  <course>246.97</course>
  <speed>0.02</speed>
  <fix>3d</fix>
</trkpt>
<trkpt lat="40.0713749" lon="-105.229789">
  <ele>1583.0</ele>
  <time>2026-08-28T17:54:03Z</time>
  <course>0.0</course>
  <speed>0.0</speed>
  <fix>3d</fix>
</trkpt>
<trkpt lat="40.0713751" lon="-105.2297889">
  <ele>1583.02</ele>
  <time>2026-08-28T17:54:03Z</time>
  <course>246.97</course>
  <speed>0.02</speed>
  <fix>3d</fix>
</trkpt>
<trkpt lat="40.0713749" lon="-105.229789">
  <ele>1583.0</ele>
  <time>2026-08-28T17:54:03Z</time>
  <course>0.0</course>
  <speed>0.0</speed>
  <fix>3d</fix>
</trkpt>
<trkpt lat="40.0713751" lon="-105.2297889">
  <ele>1583.02</ele>
  <time>2026-08-28T17:54:03Z</time>
  <course>246.97</course>
  <speed>0.02</speed>
  <fix>3d</fix>
</trkpt>
<trkpt lat="40.0713749" lon="-105.229789">
  <ele>1583.0</ele>
  <time>2026-08-28T17:54:03Z</time>
  <course>0.0</course>
  <speed>0.0</speed>
  <fix>3d</fix>
</trkpt>
<trkpt lat="40.0713751" lon="-105.2297889">
  <ele>1583.02</ele>
  <time>2026-08-28T17:54:03Z</time>
  <course>246.97</course>
  <speed>0.02</speed>
  <fix>3d</fix>
</trkpt>
<trkpt lat="40.0713749" lon="-105.229789">
  <ele>1583.0</ele>
  <time>2026-08-28T17:54:03Z</time>
  <course>0.0</course>
  <speed>0.0</speed>
  <fix>3d</fix>
</trkpt>
<trkpt lat="40.0713751" lon="-105.2297889">
  <ele>1583.02</ele>
  <time>2026-08-28T17:54:03Z</time>
  <course>246.97</course>
  <speed>0.02</speed>
  <fix>3d</fix>
</trkpt>
<trkpt lat="40.0713749" lon="-105.229789">
  <ele>1583.0</ele>
  <time>2026-08-28T17:54:03Z</time>
  <course>0.0</course>
  <speed>0.0</speed>
  <fix>3d</fix>
</trkpt>
<trkpt lat="40.0713751" lon="-105.2297889">
  <ele>1583.02</ele>
  <time>2026-08-28T17:54:03Z</time>
  <course>246.97</course>
  <speed>0.02</speed>
  <fix>3d</fix>
</trkpt>
<trkpt lat="40.0713749" lon="-105.229789">
  <ele>1583.0</ele>
  <time>2026-08-28T17:54:03Z</time>
  <course>0.0</course>
  <speed>0.0</speed>
  <fix>3d</fix>
</trkpt>
<trkpt lat="40.071375" lon="-105.2297889">
  <ele>1583.02</ele>
  <time>2026-08-28T17:54:03Z</time>
  <course>246.97</course>
  <speed>0.02</speed>
  <fix>3d</fix>
</trkpt>
<trkpt lat="40.0713749" lon="-105.229789">
  <ele>1583.0</ele>
  <time>2026-08-28T17:54:03Z</time>
  <course>0.0</course>
  <speed>0.0</speed>
  <fix>3d</fix>
</trkpt>
<trkpt lat="40.0713751" lon="-105.2297889">
  <ele>1583.02</ele>
  <time>2026-08-28T17:54:03Z</time>
  <course>246.97</course>
  <speed>0.02</speed>
  <fix>3d</fix>
</trkpt>
<trkpt lat="40.0713749" lon="-105.229789">
  <ele>1583.0</ele>
  <time>2026-08-28T17:54:03Z</time>
  <course>0.0</course>
  <speed>0.0</speed>
  <fix>3d</fix>
</trkpt>
<trkpt lat="40.0713751" lon="-105.2297889">
  <ele>1583.02</ele>
  <time>2026-08-28T17:54:03Z</time>
  <course>246.97</course>
  <speed>0.02</speed>
  <fix>3d</fix>
</trkpt>
<trkpt lat="40.0713749" lon="-105.229789">
  <ele>1583.0</ele>
  <time>2026-08-28T17:54:03Z</time>
  <course>0.0</course>
  <speed>0.0</speed>
  <fix>3d</fix>
</trkpt>
<trkpt lat="40.0713751" lon="-105.2297889">
  <ele>1583.02</ele>
  <time>2026-08-28T17:54:03Z</time>
  <course>246.97</course>
  <speed>0.02</speed>
  <fix>3d</fix>
</trkpt>
<trkpt lat="40.0713749" lon="-105.229789">
  <ele>1583.0</ele>
  <time>2026-08-28T17:54:03Z</time>
  <course>0.0</course>
  <speed>0.0</speed>
  <fix>3d</fix>
</trkpt>
<trkpt lat="40.0713751" lon="-105.2297889">
  <ele>1583.01</ele>
  <time>2026-08-28T17:54:03Z</time>
  <course>246.97</course>
  <speed>0.02</speed>
  <fix>3d</fix>
</trkpt>
<trkpt lat="40.0713749" lon="-105.229789">
  <ele>1583.0</ele>
  <time>2026-08-28T17:54:03Z</time>
  <course>0.0</course>
  <speed>0.0</speed>
  <fix>3d</fix>
</trkpt>
<trkpt lat="40.0713751" lon="-105.2297889">
  <ele>1583.01</ele>
  <time>2026-08-28T17:54:03Z</time>
  <course>246.97</course>
  <speed>0.02</speed>
  <fix>3d</fix>
</trkpt>
<trkpt lat="40.0713749" lon="-105.229789">
  <ele>1583.0</ele>
  <time>2026-08-28T17:54:03Z</time>
  <course>0.0</course>
  <speed>0.0</speed>
  <fix>3d</fix>
</trkpt>
<trkpt lat="40.0713751" lon="-105.2297889">
  <ele>1583.01</ele>
  <time>2026-08-28T17:54:03Z</time>
  <course>246.97</course>
  <speed>0.02</speed>
  <fix>3d</fix>
</trkpt>
<trkpt lat="40.0713749" lon="-105.229789">
  <ele>1583.0</ele>
  <time>2026-08-28T17:54:03Z</time>
  <course>0.0</course>
  <speed>0.0</speed>
  <fix>3d</fix>
</trkpt>
<trkpt lat="40.0713751" lon="-105.2297889">
  <ele>1583.0</ele>
  <time>2026-08-28T17:54:03Z</time>
  <course>246.97</course>
  <speed>0.02</speed>
  <fix>3d</fix>
</trkpt>
<trkpt lat="40.0713749" lon="-105.229789">
  <ele>1583.0</ele>
  <time>2026-08-28T17:54:03Z</time>
  <course>0.0</course>
  <speed>0.0</speed>
  <fix>3d</fix>
</trkpt>
<trkpt lat="40.0713751" lon="-105.2297889">
  <ele>1583.0</ele>
  <time>2026-08-28T17:54:03Z</time>
  <course>246.97</course>
  <speed>0.02</speed>
  <fix>3d</fix>
</trkpt>
<trkpt lat="40.0713749" lon="-105.229789">
  <ele>1583.0</ele>
  <time>2026-08-28T17:54:03Z</time>
  <course>0.0</course>
  <speed>0.0</speed>
  <fix>3d</fix>
</trkpt>
<trkpt lat="40.0713751" lon="-105.2297889">
  <ele>1583.0</ele>
  <time>2026-08-28T17:54:03Z</time>
  <course>246.97</course>
  <speed>0.02</speed>
  <fix>3d</fix>
</trkpt>
<trkpt lat="40.0713749" lon="-105.229789">
  <ele>1583.0</ele>
  <time>2026-08-28T17:54:03Z</time>
  <course>0.0</course>
  <speed>0.0</speed>
  <fix>3d</fix>
</trkpt>
<trkpt lat="40.0713751" lon="-105.2297889">
  <ele>1582.99</ele>
  <time>2026-08-28T17:54:03Z</time>
  <course>246.97</course>
  <speed>0.02</speed>
  <fix>3d</fix>
</trkpt>
<trkpt lat="40.0713749" lon="-105.229789">
  <ele>1583.0</ele>
  <time>2026-08-28T17:54:03Z</time>
  <course>0.0</course>
  <speed>0.0</speed>
  <fix>3d</fix>
</trkpt>
<trkpt lat="40.0713751" lon="-105.2297889">
  <ele>1582.99</ele>
  <time>2026-08-28T17:54:03Z</time>
  <course>246.97</course>
  <speed>0.022360679774997897</speed>
  <fix>3d</fix>
</trkpt>
<trkpt lat="40.0713749" lon="-105.229789">
  <ele>1583.0</ele>
  <time>2026-08-28T17:54:03Z</time>
  <course>0.0</course>
  <speed>0.0</speed>
  <fix>3d</fix>
</trkpt>
<trkpt lat="40.0713751" lon="-105.2297889">
  <ele>1582.99</ele>
  <time>2026-08-28T17:54:03Z</time>
  <course>246.97</course>
  <speed>0.022360679774997897</speed>
  <fix>3d</fix>
</trkpt>
<trkpt lat="40.0713749" lon="-105.229789">
  <ele>1583.0</ele>
  <time>2026-08-28T17:54:03Z</time>
  <course>0.0</course>
  <speed>0.0</speed>
  <fix>3d</fix>
</trkpt>
<trkpt lat="40.0713751" lon="-105.2297889">
  <ele>1582.98</ele>
  <time>2026-08-28T17:54:03Z</time>
  <course>246.97</course>
  <speed>0.022360679774997897</speed>
  <fix>3d</fix>
</trkpt>
<trkpt lat="40.0713749" lon="-105.229789">
  <ele>1583.0</ele>
  <time>2026-08-28T17:54:03Z</time>
  <course>0.0</course>
  <speed>0.0</speed>
  <fix>3d</fix>
</trkpt>
<trkpt lat="40.0713751" lon="-105.2297889">
  <ele>1582.98</ele>
  <time>2026-08-28T17:54:03Z</time>
  <course>246.97</course>
  <speed>0.022360679774997897</speed>
  <fix>3d</fix>
</trkpt>
<trkpt lat="40.0713749" lon="-105.229789">
  <ele>1583.0</ele>
  <time>2026-08-28T17:54:03Z</time>
  <course>0.0</course>
  <speed>0.0</speed>
  <fix>3d</fix>
</trkpt>
<trkpt lat="40.0713751" lon="-105.2297889">
  <ele>1582.98</ele>
  <time>2026-08-28T17:54:03Z</time>
  <course>246.97</course>
  <speed>0.022360679774997897</speed>
  <fix>3d</fix>
</trkpt>
<trkpt lat="40.0713749" lon="-105.229789">
  <ele>1583.0</ele>
  <time>2026-08-28T17:54:03Z</time>
  <course>0.0</course>
  <speed>0.0</speed>
  <fix>3d</fix>
</trkpt>
<trkpt lat="40.0713751" lon="-105.2297889">
  <ele>1582.99</ele>
  <time>2026-08-28T17:54:03Z</time>
  <course>246.97</course>
  <speed>0.022360679774997897</speed>
  <fix>3d</fix>
</trkpt>
<trkpt lat="40.0713749" lon="-105.229789">
  <ele>1583.0</ele>
  <time>2026-08-28T17:54:03Z</time>
  <course>0.0</course>
  <speed>0.0</speed>
  <fix>3d</fix>
</trkpt>
<trkpt lat="40.0713751" lon="-105.2297889">
  <ele>1582.99</ele>
  <time>2026-08-28T17:54:03Z</time>
  <course>246.97</course>
  <speed>0.022360679774997897</speed>
  <fix>3d</fix>
</trkpt>
<trkpt lat="40.0713749" lon="-105.229789">
  <ele>1583.0</ele>
  <time>2026-08-28T17:54:03Z</time>
  <course>0.0</course>
  <speed>0.0</speed>
  <fix>3d</fix>
</trkpt>
<trkpt lat="40.0713751" lon="-105.2297889">
  <ele>1582.99</ele>
  <time>2026-08-28T17:54:03Z</time>
  <course>246.97</course>
  <speed>0.022360679774997897</speed>
  <fix>3d</fix>
</trkpt>
<trkpt lat="40.0713749" lon="-105.229789">
  <ele>1583.0</ele>
  <time>2026-08-28T17:54:03Z</time>
  <course>0.0</course>
  <speed>0.0</speed>
  <fix>3d</fix>
</trkpt>
<trkpt lat="40.0713751" lon="-105.2297889">
  <ele>1582.99</ele>
  <time>2026-08-28T17:54:03Z</time>
  <course>246.97</course>
  <speed>0.022360679774997897</speed>
  <fix>3d</fix>
</trkpt>
<trkpt lat="40.0713749" lon="-105.229789">
  <ele>1583.0</ele>
  <time>2026-08-28T17:54:03Z</time>
  <course>0.0</course>
  <speed>0.0</speed>
  <fix>3d</fix>
</trkpt>
<trkpt lat="40.0713751" lon="-105.2297889">
  <ele>1582.99</ele>
  <time>2026-08-28T17:54:03Z</time>
  <course>246.97</course>
  <speed>0.022360679774997897</speed>
  <fix>3d</fix>
</trkpt>
<trkpt lat="40.0713749" lon="-105.229789">
  <ele>1583.0</ele>
  <time>2026-08-28T17:54:03Z</time>
  <course>0.0</course>
  <speed>0.0</speed>
  <fix>3d</fix>
</trkpt>
<trkpt lat="40.0713751" lon="-105.2297889">
  <ele>1582.99</ele>
  <time>2026-08-28T17:54:03Z</time>
  <course>246.97</course>
  <speed>0.022360679774997897</speed>
  <fix>3d</fix>
</trkpt>
<trkpt lat="40.0713749" lon="-105.229789">
  <ele>1583.0</ele>
  <time>2026-08-28T17:54:03Z</time>
  <course>0.0</course>
  <speed>0.0</speed>
  <fix>3d</fix>
</trkpt>
<trkpt lat="40.0713751" lon="-105.2297889">
  <ele>1582.99</ele>
  <time>2026-08-28T17:54:03Z</time>
  <course>246.97</course>
  <speed>0.022360679774997897</speed>
  <fix>3d</fix>
</trkpt>
<trkpt lat="40.0713749" lon="-105.229789">
  <ele>1583.0</ele>
  <time>2026-08-28T17:54:03Z</time>
  <course>0.0</course>
  <speed>0.0</speed>
  <fix>3d</fix>
</trkpt>
<trkpt lat="40.0713751" lon="-105.2297889">
  <ele>1582.99</ele>
  <time>2026-08-28T17:54:03Z</time>
  <course>246.97</course>
  <speed>0.022360679774997897</speed>
  <fix>3d</fix>
</trkpt>
<trkpt lat="40.0713749" lon="-105.229789">
  <ele>1583.0</ele>
  <time>2026-08-28T17:54:03Z</time>
  <course>0.0</course>
  <speed>0.0</speed>
  <fix>3d</fix>
</trkpt>
<trkpt lat="40.0713751" lon="-105.2297889">
  <ele>1582.99</ele>
  <time>2026-08-28T17:54:03Z</time>
  <course>246.97</course>
  <speed>0.022360679774997897</speed>
  <fix>3d</fix>
</trkpt>
<trkpt lat="40.0713749" lon="-105.229789">
  <ele>1583.0</ele>
  <time>2026-08-28T17:54:03Z</time>
  <course>0.0</course>
  <speed>0.0</speed>
  <fix>3d</fix>
</trkpt>
<trkpt lat="40.0713751" lon="-105.2297889">
  <ele>1582.99</ele>
  <time>2026-08-28T17:54:03Z</time>
  <course>246.97</course>
  <speed>0.022360679774997897</speed>
  <fix>3d</fix>
</trkpt>
<trkpt lat="40.0713749" lon="-105.229789">
  <ele>1583.0</ele>
  <time>2026-08-28T17:54:03Z</time>
  <course>0.0</course>
  <speed>0.0</speed>
  <fix>3d</fix>
</trkpt>
<trkpt lat="40.0713751" lon="-105.2297889">
  <ele>1582.99</ele>
  <time>2026-08-28T17:54:03Z</time>
  <course>246.97</course>
  <speed>0.022360679774997897</speed>
  <fix>3d</fix>
</trkpt>
<trkpt lat="40.0713749" lon="-105.229789">
  <ele>1583.0</ele>
  <time>2026-08-28T17:54:03Z</time>
  <course>0.0</course>
  <speed>0.0</speed>
  <fix>3d</fix>
</trkpt>
<trkpt lat="40.0713751" lon="-105.2297889">
  <ele>1582.99</ele>
  <time>2026-08-28T17:54:03Z</time>
  <course>246.97</course>
  <speed>0.022360679774997897</speed>
  <fix>3d</fix>
</trkpt>
<trkpt lat="40.0713749" lon="-105.229789">
  <ele>1583.0</ele>
  <time>2026-08-28T17:54:03Z</time>
  <course>0.0</course>
  <speed>0.0</speed>
  <fix>3d</fix>
</trkpt>
<trkpt lat="40.0713751" lon="-105.2297889">
  <ele>1582.99</ele>
  <time>2026-08-28T17:54:03Z</time>
  <course>246.97</course>
  <speed>0.022360679774997897</speed>
  <fix>3d</fix>
</trkpt>
<trkpt lat="40.0713749" lon="-105.229789">
  <ele>1583.0</ele>
  <time>2026-08-28T17:54:03Z</time>
  <course>0.0</course>
  <speed>0.0</speed>
  <fix>3d</fix>
</trkpt>
<trkpt lat="40.0713751" lon="-105.2297889">
  <ele>1582.99</ele>
  <time>2026-08-28T17:54:03Z</time>
  <course>246.97</course>
  <speed>0.022360679774997897</speed>
  <fix>3d</fix>
</trkpt>
<trkpt lat="40.0713749" lon="-105.229789">
  <ele>1583.0</ele>
  <time>2026-08-28T17:54:03Z</time>
  <course>0.0</course>
  <speed>0.0</speed>
  <fix>3d</fix>
</trkpt>
<trkpt lat="40.0713751" lon="-105.2297889">
  <ele>1582.99</ele>
  <time>2026-08-28T17:54:03Z</time>
  <course>246.96</course>
  <speed>0.022360679774997897</speed>
  <fix>3d</fix>
</trkpt>
<trkpt lat="40.0713749" lon="-105.229789">
  <ele>1583.0</ele>
  <time>2026-08-28T17:54:03Z</time>
  <course>0.0</course>
  <speed>0.0</speed>
  <fix>3d</fix>
</trkpt>
<trkpt lat="40.0713751" lon="-105.2297889">
  <ele>1582.99</ele>
  <time>2026-08-28T17:54:03Z</time>
  <course>246.96</course>
  <speed>0.022360679774997897</speed>
  <fix>3d</fix>
</trkpt>
<trkpt lat="40.0713749" lon="-105.229789">
  <ele>1583.0</ele>
  <time>2026-08-28T17:54:03Z</time>
  <course>0.0</course>
  <speed>0.0</speed>
  <fix>3d</fix>
</trkpt>
<trkpt lat="40.0713751" lon="-105.2297889">
  <ele>1582.99</ele>
  <time>2026-08-28T17:54:03Z</time>
  <course>246.96</course>
  <speed>0.022360679774997897</speed>
  <fix>3d</fix>
</trkpt>
<trkpt lat="40.0713749" lon="-105.229789">
  <ele>1583.0</ele>
  <time>2026-08-28T17:54:03Z</time>
  <course>0.0</course>
  <speed>0.0</speed>
  <fix>3d</fix>
</trkpt>
<trkpt lat="40.0713751" lon="-105.2297889">
  <ele>1582.99</ele>
  <time>2026-08-28T17:54:03Z</time>
  <course>246.96</course>
  <speed>0.022360679774997897</speed>
  <fix>3d</fix>
</trkpt>
<trkpt lat="40.0713749" lon="-105.229789">
  <ele>1583.0</ele>
  <time>2026-08-28T17:54:03Z</time>
  <course>0.0</course>
  <speed>0.0</speed>
  <fix>3d</fix>
</trkpt>
<trkpt lat="40.0713751" lon="-105.2297889">
  <ele>1582.99</ele>
  <time>2026-08-28T17:54:03Z</time>
  <course>246.96</course>
  <speed>0.022360679774997897</speed>
  <fix>3d</fix>
</trkpt>
<trkpt lat="40.0713749" lon="-105.229789">
  <ele>1583.0</ele>
  <time>2026-08-28T17:54:03Z</time>
  <course>0.0</course>
  <speed>0.0</speed>
  <fix>3d</fix>
</trkpt>
<trkpt lat="40.0713751" lon="-105.2297889">
  <ele>1582.99</ele>
  <time>2026-08-28T17:54:03Z</time>
  <course>246.96</course>
  <speed>0.022360679774997897</speed>
  <fix>3d</fix>
</trkpt>
<trkpt lat="40.0713749" lon="-105.229789">
  <ele>1583.0</ele>
  <time>2026-08-28T17:54:03Z</time>
  <course>0.0</course>
  <speed>0.0</speed>
  <fix>3d</fix>
</trkpt>
<trkpt lat="40.0713751" lon="-105.2297889">
  <ele>1582.99</ele>
  <time>2026-08-28T17:54:03Z</time>
  <course>246.96</course>
  <speed>0.022360679774997897</speed>
  <fix>3d</fix>
</trkpt>
<trkpt lat="40.0713749" lon="-105.229789">
  <ele>1583.0</ele>
  <time>2026-08-28T17:54:03Z</time>
  <course>0.0</course>
  <speed>0.0</speed>
  <fix>3d</fix>
</trkpt>
<trkpt lat="40.0713751" lon="-105.2297889">
  <ele>1582.98</ele>
  <time>2026-08-28T17:54:03Z</time>
  <course>246.96</course>
  <speed>0.022360679774997897</speed>
  <fix>3d</fix>
</trkpt>
<trkpt lat="40.0713749" lon="-105.229789">
  <ele>1583.0</ele>
  <time>2026-08-28T17:54:03Z</time>
  <course>0.0</course>
  <speed>0.0</speed>
  <fix>3d</fix>
</trkpt>
<trkpt lat="40.0713751" lon="-105.2297889">
  <ele>1582.98</ele>
  <time>2026-08-28T17:54:03Z</time>
  <course>246.96</course>
  <speed>0.022360679774997897</speed>
  <fix>3d</fix>
</trkpt>
<trkpt lat="40.0713749" lon="-105.229789">
  <ele>1583.0</ele>
  <time>2026-08-28T17:54:03Z</time>
  <course>0.0</course>
  <speed>0.0</speed>
  <fix>3d</fix>
</trkpt>
<trkpt lat="40.0713751" lon="-105.2297889">
  <ele>1582.98</ele>
  <time>2026-08-28T17:54:03Z</time>
  <course>246.96</course>
  <speed>0.022360679774997897</speed>
  <fix>3d</fix>
</trkpt>
<trkpt lat="40.0713749" lon="-105.229789">
  <ele>1583.0</ele>
  <time>2026-08-28T17:54:03Z</time>
  <course>0.0</course>
  <speed>0.0</speed>
  <fix>3d</fix>
</trkpt>
<trkpt lat="40.0713751" lon="-105.2297889">
  <ele>1582.97</ele>
  <time>2026-08-28T17:54:03Z</time>
  <course>246.96</course>
  <speed>0.022360679774997897</speed>
  <fix>3d</fix>
</trkpt>
<trkpt lat="40.0713749" lon="-105.229789">
  <ele>1583.0</ele>
  <time>2026-08-28T17:54:03Z</time>
  <course>0.0</course>
  <speed>0.0</speed>
  <fix>3d</fix>
</trkpt>
<trkpt lat="40.0713751" lon="-105.2297889">
  <ele>1582.97</ele>
  <time>2026-08-28T17:54:03Z</time>
  <course>246.96</course>
  <speed>0.022360679774997897</speed>
  <fix>3d</fix>
</trkpt>
<trkpt lat="40.0713749" lon="-105.229789">
  <ele>1583.0</ele>
  <time>2026-08-28T17:54:03Z</time>
  <course>0.0</course>
  <speed>0.0</speed>
  <fix>3d</fix>
</trkpt>
<trkpt lat="40.0713751" lon="-105.2297889">
  <ele>1582.97</ele>
  <time>2026-08-28T17:54:03Z</time>
  <course>246.96</course>
  <speed>0.022360679774997897</speed>
  <fix>3d</fix>
</trkpt>
<trkpt lat="40.0713749" lon="-105.229789">
  <ele>1583.0</ele>
  <time>2026-08-28T17:54:03Z</time>
  <course>0.0</course>
  <speed>0.0</speed>
  <fix>3d</fix>
</trkpt>
<trkpt lat="40.0713751" lon="-105.2297889">
  <ele>1582.97</ele>
  <time>2026-08-28T17:54:03Z</time>
  <course>246.96</course>
  <speed>0.022360679774997897</speed>
  <fix>3d</fix>
</trkpt>
<trkpt lat="40.0713749" lon="-105.229789">
  <ele>1583.0</ele>
  <time>2026-08-28T17:54:03Z</time>
  <course>0.0</course>
  <speed>0.0</speed>
  <fix>3d</fix>
</trkpt>
<trkpt lat="40.0713751" lon="-105.2297889">
  <ele>1582.97</ele>
  <time>2026-08-28T17:54:03Z</time>
  <course>246.96</course>
  <speed>0.022360679774997897</speed>
  <fix>3d</fix>
</trkpt>
<trkpt lat="40.0713749" lon="-105.229789">
  <ele>1583.0</ele>
  <time>2026-08-28T17:54:03Z</time>
  <course>0.0</course>
  <speed>0.0</speed>
  <fix>3d</fix>
</trkpt>
<trkpt lat="40.0713751" lon="-105.2297889">
  <ele>1582.97</ele>
  <time>2026-08-28T17:54:03Z</time>
  <course>246.96</course>
  <speed>0.022360679774997897</speed>
  <fix>3d</fix>
</trkpt>
<trkpt lat="40.0713749" lon="-105.229789">
  <ele>1583.0</ele>
  <time>2026-08-28T17:54:03Z</time>
  <course>0.0</course>
  <speed>0.0</speed>
  <fix>3d</fix>
</trkpt>
<trkpt lat="40.0713751" lon="-105.2297889">
  <ele>1582.97</ele>
  <time>2026-08-28T17:54:03Z</time>
  <course>246.96</course>
  <speed>0.022360679774997897</speed>
  <fix>3d</fix>
</trkpt>
<trkpt lat="40.0713749" lon="-105.229789">
  <ele>1583.0</ele>
  <time>2026-08-28T17:54:03Z</time>
  <course>0.0</course>
  <speed>0.0</speed>
  <fix>3d</fix>
</trkpt>
<trkpt lat="40.0713751" lon="-105.2297889">
  <ele>1582.97</ele>
  <time>2026-08-28T17:54:03Z</time>
  <course>246.96</course>
  <speed>0.022360679774997897</speed>
  <fix>3d</fix>
</trkpt>
<trkpt lat="40.0713749" lon="-105.229789">
  <ele>1583.0</ele>
  <time>2026-08-28T17:54:03Z</time>
  <course>0.0</course>
  <speed>0.0</speed>
  <fix>3d</fix>
</trkpt>
<trkpt lat="40.0713751" lon="-105.2297889">
  <ele>1582.98</ele>
  <time>2026-08-28T17:54:03Z</time>
  <course>246.96</course>
  <speed>0.022360679774997897</speed>
  <fix>3d</fix>
</trkpt>
<trkpt lat="40.0713749" lon="-105.229789">
  <ele>1583.0</ele>
  <time>2026-08-28T17:54:03Z</time>
  <course>0.0</course>
  <speed>0.0</speed>
  <fix>3d</fix>
</trkpt>
<trkpt lat="40.0713751" lon="-105.2297889">
  <ele>1582.98</ele>
  <time>2026-08-28T17:54:03Z</time>
  <course>246.96</course>
  <speed>0.022360679774997897</speed>
  <fix>3d</fix>
</trkpt>
<trkpt lat="40.0713749" lon="-105.229789">
  <ele>1583.0</ele>
  <time>2026-08-28T17:54:03Z</time>
  <course>0.0</course>
  <speed>0.0</speed>
  <fix>3d</fix>
</trkpt>
<trkpt lat="40.0713751" lon="-105.2297889">
  <ele>1582.98</ele>
  <time>2026-08-28T17:54:03Z</time>
  <course>246.96</course>
  <speed>0.022360679774997897</speed>
  <fix>3d</fix>
</trkpt>
<trkpt lat="40.0713749" lon="-105.229789">
  <ele>1583.0</ele>
  <time>2026-08-28T17:54:03Z</time>
  <course>0.0</course>
  <speed>0.0</speed>
  <fix>3d</fix>
</trkpt>
<trkpt lat="40.0713751" lon="-105.2297889">
  <ele>1582.98</ele>
  <time>2026-08-28T17:54:03Z</time>
  <course>246.96</course>
  <speed>0.022360679774997897</speed>
  <fix>3d</fix>
</trkpt>
<trkpt lat="40.0713749" lon="-105.229789">
  <ele>1583.0</ele>
  <time>2026-08-28T17:54:03Z</time>
  <course>0.0</course>
  <speed>0.0</speed>
  <fix>3d</fix>
</trkpt>
<trkpt lat="40.0713751" lon="-105.2297889">
  <ele>1582.98</ele>
  <time>2026-08-28T17:54:03Z</time>
  <course>246.96</course>
  <speed>0.022360679774997897</speed>
  <fix>3d</fix>
</trkpt>
<trkpt lat="40.0713749" lon="-105.229789">
  <ele>1583.0</ele>
  <time>2026-08-28T17:54:03Z</time>
  <course>0.0</course>
  <speed>0.0</speed>
  <fix>3d</fix>
</trkpt>
<trkpt lat="40.0713751" lon="-105.2297889">
  <ele>1582.99</ele>
  <time>2026-08-28T17:54:03Z</time>
  <course>246.96</course>
  <speed>0.022360679774997897</speed>
  <fix>3d</fix>
</trkpt>
<trkpt lat="40.0713749" lon="-105.229789">
  <ele>1583.0</ele>
  <time>2026-08-28T17:54:03Z</time>
  <course>0.0</course>
  <speed>0.0</speed>
  <fix>3d</fix>
</trkpt>
<trkpt lat="40.0713751" lon="-105.2297889">
  <ele>1582.99</ele>
  <time>2026-08-28T17:54:03Z</time>
  <course>246.96</course>
  <speed>0.022360679774997897</speed>
  <fix>3d</fix>
</trkpt>
<trkpt lat="40.0713749" lon="-105.229789">
  <ele>1583.0</ele>
  <time>2026-08-28T17:54:03Z</time>
  <course>0.0</course>
  <speed>0.0</speed>
  <fix>3d</fix>
</trkpt>
<trkpt lat="40.0713751" lon="-105.2297889">
  <ele>1582.99</ele>
  <time>2026-08-28T17:54:03Z</time>
  <course>246.96</course>
  <speed>0.022360679774997897</speed>
  <fix>3d</fix>
</trkpt>
<trkpt lat="40.0713749" lon="-105.229789">
  <ele>1583.0</ele>
  <time>2026-08-28T17:54:03Z</time>
  <course>0.0</course>
  <speed>0.0</speed>
  <fix>3d</fix>
</trkpt>
<trkpt lat="40.0713751" lon="-105.2297889">
  <ele>1582.99</ele>
  <time>2026-08-28T17:54:03Z</time>
  <course>246.96</course>
  <speed>0.022360679774997897</speed>
  <fix>3d</fix>
</trkpt>
<trkpt lat="40.0713749" lon="-105.229789">
  <ele>1583.0</ele>
  <time>2026-08-28T17:54:03Z</time>
  <course>0.0</course>
  <speed>0.0</speed>
  <fix>3d</fix>
</trkpt>
<trkpt lat="40.0713751" lon="-105.2297889">
  <ele>1582.98</ele>
  <time>2026-08-28T17:54:03Z</time>
  <course>246.96</course>
  <speed>0.022360679774997897</speed>
  <fix>3d</fix>
</trkpt>
<trkpt lat="40.0713749" lon="-105.229789">
  <ele>1583.0</ele>
  <time>2026-08-28T17:54:03Z</time>
  <course>0.0</course>
  <speed>0.0</speed>
  <fix>3d</fix>
</trkpt>
<trkpt lat="40.0713751" lon="-105.2297889">
  <ele>1582.98</ele>
  <time>2026-08-28T17:54:03Z</time>
  <course>246.96</course>
  <speed>0.022360679774997897</speed>
  <fix>3d</fix>
</trkpt>
<trkpt lat="40.0713749" lon="-105.229789">
  <ele>1583.0</ele>
  <time>2026-08-28T17:54:03Z</time>
  <course>0.0</course>
  <speed>0.0</speed>
  <fix>3d</fix>
</trkpt>
<trkpt lat="40.0713751" lon="-105.2297889">
  <ele>1582.98</ele>
  <time>2026-08-28T17:54:03Z</time>
  <course>246.96</course>
  <speed>0.022360679774997897</speed>
  <fix>3d</fix>
</trkpt>
<trkpt lat="40.0713749" lon="-105.229789">
  <ele>1583.0</ele>
  <time>2026-08-28T17:54:03Z</time>
  <course>0.0</course>
  <speed>0.0</speed>
  <fix>3d</fix>
</trkpt>
<trkpt lat="40.0713751" lon="-105.2297889">
  <ele>1582.98</ele>
  <time>2026-08-28T17:54:03Z</time>
  <course>246.96</course>
  <speed>0.022360679774997897</speed>
  <fix>3d</fix>
</trkpt>
<trkpt lat="40.0713749" lon="-105.229789">
  <ele>1583.0</ele>
  <time>2026-08-28T17:54:03Z</time>
  <course>0.0</course>
  <speed>0.0</speed>
  <fix>3d</fix>
</trkpt>
<trkpt lat="40.0713751" lon="-105.2297889">
  <ele>1582.98</ele>
  <time>2026-08-28T17:54:03Z</time>
  <course>246.96</course>
  <speed>0.022360679774997897</speed>
  <fix>3d</fix>
</trkpt>
<trkpt lat="40.0713749" lon="-105.229789">
  <ele>1583.0</ele>
  <time>2026-08-28T17:54:03Z</time>
  <course>0.0</course>
  <speed>0.0</speed>
  <fix>3d</fix>
</trkpt>
<trkpt lat="40.0713751" lon="-105.2297889">
  <ele>1582.98</ele>
  <time>2026-08-28T17:54:03Z</time>
  <course>246.96</course>
  <speed>0.022360679774997897</speed>
  <fix>3d</fix>
</trkpt>
<trkpt lat="40.0713749" lon="-105.229789">
  <ele>1583.0</ele>
  <time>2026-08-28T17:54:03Z</time>
  <course>0.0</course>
  <speed>0.0</speed>
  <fix>3d</fix>
</trkpt>
<trkpt lat="40.0713751" lon="-105.2297889">
  <ele>1582.98</ele>
  <time>2026-08-28T17:54:03Z</time>
  <course>246.96</course>
  <speed>0.022360679774997897</speed>
  <fix>3d</fix>
</trkpt>
<trkpt lat="40.0713749" lon="-105.229789">
  <ele>1583.0</ele>
  <time>2026-08-28T17:54:03Z</time>
  <course>0.0</course>
  <speed>0.0</speed>
  <fix>3d</fix>
</trkpt>
<trkpt lat="40.0713751" lon="-105.2297889">
  <ele>1582.98</ele>
  <time>2026-08-28T17:54:03Z</time>
  <course>246.96</course>
  <speed>0.022360679774997897</speed>
  <fix>3d</fix>
</trkpt>
<trkpt lat="40.0713749" lon="-105.229789">
  <ele>1583.0</ele>
  <time>2026-08-28T17:54:03Z</time>
  <course>0.0</course>
  <speed>0.0</speed>
  <fix>3d</fix>
</trkpt>
<trkpt lat="40.0713751" lon="-105.2297889">
  <ele>1582.99</ele>
  <time>2026-08-28T17:54:03Z</time>
  <course>246.96</course>
  <speed>0.022360679774997897</speed>
  <fix>3d</fix>
</trkpt>
<trkpt lat="40.0713749" lon="-105.229789">
  <ele>1583.0</ele>
  <time>2026-08-28T17:54:03Z</time>
  <course>0.0</course>
  <speed>0.0</speed>
  <fix>3d</fix>
</trkpt>
<trkpt lat="40.0713751" lon="-105.2297889">
  <ele>1582.99</ele>
  <time>2026-08-28T17:54:03Z</time>
  <course>246.96</course>
  <speed>0.022360679774997897</speed>
  <fix>3d</fix>
</trkpt>
<trkpt lat="40.0713749" lon="-105.229789">
  <ele>1583.0</ele>
  <time>2026-08-28T17:54:03Z</time>
  <course>0.0</course>
  <speed>0.0</speed>
  <fix>3d</fix>
</trkpt>
<trkpt lat="40.0713751" lon="-105.2297889">
  <ele>1582.99</ele>
  <time>2026-08-28T17:54:03Z</time>
  <course>246.96</course>
  <speed>0.022360679774997897</speed>
  <fix>3d</fix>
</trkpt>
<trkpt lat="40.0713749" lon="-105.229789">
  <ele>1583.0</ele>
  <time>2026-08-28T17:54:03Z</time>
  <course>0.0</course>
  <speed>0.0</speed>
  <fix>3d</fix>
</trkpt>
<trkpt lat="40.0713751" lon="-105.2297889">
  <ele>1582.99</ele>
  <time>2026-08-28T17:54:03Z</time>
  <course>246.96</course>
  <speed>0.022360679774997897</speed>
  <fix>3d</fix>
</trkpt>
<trkpt lat="40.0713749" lon="-105.229789">
  <ele>1583.0</ele>
  <time>2026-08-28T17:54:03Z</time>
  <course>0.0</course>
  <speed>0.0</speed>
  <fix>3d</fix>
</trkpt>
<trkpt lat="40.0713751" lon="-105.2297889">
  <ele>1583.0</ele>
  <time>2026-08-28T17:54:03Z</time>
  <course>246.96</course>
  <speed>0.022360679774997897</speed>
  <fix>3d</fix>
</trkpt>
<trkpt lat="40.0713749" lon="-105.229789">
  <ele>1583.0</ele>
  <time>2026-08-28T17:54:03Z</time>
  <course>0.0</course>
  <speed>0.0</speed>
  <fix>3d</fix>
</trkpt>
<trkpt lat="40.0713751" lon="-105.2297889">
  <ele>1583.0</ele>
  <time>2026-08-28T17:54:03Z</time>
  <course>246.96</course>
  <speed>0.022360679774997897</speed>
  <fix>3d</fix>
</trkpt>
<trkpt lat="40.0713749" lon="-105.229789">
  <ele>1583.0</ele>
  <time>2026-08-28T17:54:03Z</time>
  <course>0.0</course>
  <speed>0.0</speed>
  <fix>3d</fix>
</trkpt>
<trkpt lat="40.0713751" lon="-105.2297889">
  <ele>1582.99</ele>
  <time>2026-08-28T17:54:03Z</time>
  <course>246.96</course>
  <speed>0.022360679774997897</speed>
  <fix>3d</fix>
</trkpt>
<trkpt lat="40.0713749" lon="-105.229789">
  <ele>1583.0</ele>
  <time>2026-08-28T17:54:03Z</time>
  <course>0.0</course>
  <speed>0.0</speed>
  <fix>3d</fix>
</trkpt>
<trkpt lat="40.0713751" lon="-105.2297889">
  <ele>1582.99</ele>
  <time>2026-08-28T17:54:03Z</time>
  <course>246.96</course>
  <speed>0.022360679774997897</speed>
  <fix>3d</fix>
</trkpt>
<trkpt lat="40.0713749" lon="-105.229789">
  <ele>1583.0</ele>
  <time>2026-08-28T17:54:03Z</time>
  <course>0.0</course>
  <speed>0.0</speed>
  <fix>3d</fix>
</trkpt>
<trkpt lat="40.0713751" lon="-105.2297889">
  <ele>1582.99</ele>
  <time>2026-08-28T17:54:03Z</time>
  <course>246.96</course>
  <speed>0.022360679774997897</speed>
  <fix>3d</fix>
</trkpt>
<trkpt lat="40.0713749" lon="-105.229789">
  <ele>1583.0</ele>
  <time>2026-08-28T17:54:03Z</time>
  <course>0.0</course>
  <speed>0.0</speed>
  <fix>3d</fix>
</trkpt>
<trkpt lat="40.0713751" lon="-105.2297889">
  <ele>1582.99</ele>
  <time>2026-08-28T17:54:03Z</time>
  <course>246.96</course>
  <speed>0.022360679774997897</speed>
  <fix>3d</fix>
</trkpt>
<trkpt lat="40.0713749" lon="-105.229789">
  <ele>1583.0</ele>
  <time>2026-08-28T17:54:03Z</time>
  <course>0.0</course>
  <speed>0.0</speed>
  <fix>3d</fix>
</trkpt>
<trkpt lat="40.0713751" lon="-105.2297889">
  <ele>1583.0</ele>
  <time>2026-08-28T17:54:03Z</time>
  <course>246.96</course>
  <speed>0.022360679774997897</speed>
  <fix>3d</fix>
</trkpt>
<trkpt lat="40.0713749" lon="-105.229789">
  <ele>1583.0</ele>
  <time>2026-08-28T17:54:03Z</time>
  <course>0.0</course>
  <speed>0.0</speed>
  <fix>3d</fix>
</trkpt>
<trkpt lat="40.0713751" lon="-105.2297889">
  <ele>1583.0</ele>
  <time>2026-08-28T17:54:04Z</time>
  <course>246.96</course>
  <speed>0.022360679774997897</speed>
  <fix>3d</fix>
</trkpt>
<trkpt lat="40.0713749" lon="-105.229789">
  <ele>1583.0</ele>
  <time>2026-08-28T17:54:04Z</time>
  <course>0.0</course>
  <speed>0.0</speed>
  <fix>3d</fix>
</trkpt>
<trkpt lat="40.0713751" lon="-105.2297889">
  <ele>1583.0</ele>
  <time>2026-08-28T17:54:04Z</time>
  <course>246.96</course>
  <speed>0.022360679774997897</speed>
  <fix>3d</fix>
</trkpt>
<trkpt lat="40.0713749" lon="-105.229789">
  <ele>1583.0</ele>
  <time>2026-08-28T17:54:04Z</time>
  <course>0.0</course>
  <speed>0.0</speed>
  <fix>3d</fix>
</trkpt>
<trkpt lat="40.0713751" lon="-105.2297889">
  <ele>1583.0</ele>
  <time>2026-08-28T17:54:04Z</time>
  <course>246.96</course>
  <speed>0.022360679774997897</speed>
  <fix>3d</fix>
</trkpt>
<trkpt lat="40.0713749" lon="-105.229789">
  <ele>1583.0</ele>
  <time>2026-08-28T17:54:04Z</time>
  <course>0.0</course>
  <speed>0.0</speed>
  <fix>3d</fix>
</trkpt>
<trkpt lat="40.0713751" lon="-105.2297889">
  <ele>1583.0</ele>
  <time>2026-08-28T17:54:04Z</time>
  <course>246.96</course>
  <speed>0.022360679774997897</speed>
  <fix>3d</fix>
</trkpt>
<trkpt lat="40.0713749" lon="-105.229789">
  <ele>1583.0</ele>
  <time>2026-08-28T17:54:04Z</time>
  <course>0.0</course>
  <speed>0.0</speed>
  <fix>3d</fix>
</trkpt>
<trkpt lat="40.0713751" lon="-105.2297889">
  <ele>1583.0</ele>
  <time>2026-08-28T17:54:04Z</time>
  <course>246.96</course>
  <speed>0.022360679774997897</speed>
  <fix>3d</fix>
</trkpt>
<trkpt lat="40.0713749" lon="-105.229789">
  <ele>1583.0</ele>
  <time>2026-08-28T17:54:04Z</time>
  <course>0.0</course>
  <speed>0.0</speed>
  <fix>3d</fix>
</trkpt>
<trkpt lat="40.0713751" lon="-105.2297889">
  <ele>1583.0</ele>
  <time>2026-08-28T17:54:04Z</time>
  <course>246.96</course>
  <speed>0.022360679774997897</speed>
  <fix>3d</fix>
</trkpt>
<trkpt lat="40.0713749" lon="-105.229789">
  <ele>1583.0</ele>
  <time>2026-08-28T17:54:04Z</time>
  <course>0.0</course>
  <speed>0.0</speed>
  <fix>3d</fix>
</trkpt>
<trkpt lat="40.0713751" lon="-105.2297889">
  <ele>1583.0</ele>
  <time>2026-08-28T17:54:04Z</time>
  <course>246.96</course>
  <speed>0.022360679774997897</speed>
  <fix>3d</fix>
</trkpt>
<trkpt lat="40.0713749" lon="-105.229789">
  <ele>1583.0</ele>
  <time>2026-08-28T17:54:04Z</time>
  <course>0.0</course>
  <speed>0.0</speed>
  <fix>3d</fix>
</trkpt>
<trkpt lat="40.0713751" lon="-105.2297889">
  <ele>1583.0</ele>
  <time>2026-08-28T17:54:04Z</time>
  <course>246.96</course>
  <speed>0.022360679774997897</speed>
  <fix>3d</fix>
</trkpt>
<trkpt lat="40.0713749" lon="-105.229789">
  <ele>1583.0</ele>
  <time>2026-08-28T17:54:04Z</time>
  <course>0.0</course>
  <speed>0.0</speed>
  <fix>3d</fix>
</trkpt>
<trkpt lat="40.0713751" lon="-105.2297889">
  <ele>1583.0</ele>
  <time>2026-08-28T17:54:04Z</time>
  <course>246.96</course>
  <speed>0.022360679774997897</speed>
  <fix>3d</fix>
</trkpt>
<trkpt lat="40.0713749" lon="-105.229789">
  <ele>1583.0</ele>
  <time>2026-08-28T17:54:04Z</time>
  <course>0.0</course>
  <speed>0.0</speed>
  <fix>3d</fix>
</trkpt>
<trkpt lat="40.0713751" lon="-105.2297889">
  <ele>1583.0</ele>
  <time>2026-08-28T17:54:04Z</time>
  <course>246.96</course>
  <speed>0.022360679774997897</speed>
  <fix>3d</fix>
</trkpt>
<trkpt lat="40.0713749" lon="-105.229789">
  <ele>1583.0</ele>
  <time>2026-08-28T17:54:04Z</time>
  <course>0.0</course>
  <speed>0.0</speed>
  <fix>3d</fix>
</trkpt>
<trkpt lat="40.0713751" lon="-105.2297889">
  <ele>1583.0</ele>
  <time>2026-08-28T17:54:04Z</time>
  <course>246.96</course>
  <speed>0.022360679774997897</speed>
  <fix>3d</fix>
</trkpt>
<trkpt lat="40.0713749" lon="-105.229789">
  <ele>1583.0</ele>
  <time>2026-08-28T17:54:04Z</time>
  <course>0.0</course>
  <speed>0.0</speed>
  <fix>3d</fix>
</trkpt>
<trkpt lat="40.0713751" lon="-105.2297889">
  <ele>1583.01</ele>
  <time>2026-08-28T17:54:04Z</time>
  <course>246.96</course>
  <speed>0.022360679774997897</speed>
  <fix>3d</fix>
</trkpt>
<trkpt lat="40.0713749" lon="-105.229789">
  <ele>1583.0</ele>
  <time>2026-08-28T17:54:04Z</time>
  <course>0.0</course>
  <speed>0.0</speed>
  <fix>3d</fix>
</trkpt>
<trkpt lat="40.0713751" lon="-105.2297889">
  <ele>1583.01</ele>
  <time>2026-08-28T17:54:04Z</time>
  <course>246.96</course>
  <speed>0.022360679774997897</speed>
  <fix>3d</fix>
</trkpt>
<trkpt lat="40.0713749" lon="-105.229789">
  <ele>1583.0</ele>
  <time>2026-08-28T17:54:04Z</time>
  <course>0.0</course>
  <speed>0.0</speed>
  <fix>3d</fix>
</trkpt>
<trkpt lat="40.0713751" lon="-105.2297889">
  <ele>1583.01</ele>
  <time>2026-08-28T17:54:04Z</time>
  <course>246.96</course>
  <speed>0.022360679774997897</speed>
  <fix>3d</fix>
</trkpt>
<trkpt lat="40.0713749" lon="-105.229789">
  <ele>1583.0</ele>
  <time>2026-08-28T17:54:04Z</time>
  <course>0.0</course>
  <speed>0.0</speed>
  <fix>3d</fix>
</trkpt>
<trkpt lat="40.0713751" lon="-105.2297889">
  <ele>1583.01</ele>
  <time>2026-08-28T17:54:04Z</time>
  <course>246.96</course>
  <speed>0.022360679774997897</speed>
  <fix>3d</fix>
</trkpt>
<trkpt lat="40.0713749" lon="-105.229789">
  <ele>1583.0</ele>
  <time>2026-08-28T17:54:04Z</time>
  <course>0.0</course>
  <speed>0.0</speed>
  <fix>3d</fix>
</trkpt>
<trkpt lat="40.0713751" lon="-105.2297889">
  <ele>1583.01</ele>
  <time>2026-08-28T17:54:04Z</time>
  <course>246.96</course>
  <speed>0.022360679774997897</speed>
  <fix>3d</fix>
</trkpt>
<trkpt lat="40.0713749" lon="-105.229789">
  <ele>1583.0</ele>
  <time>2026-08-28T17:54:04Z</time>
  <course>0.0</course>
  <speed>0.0</speed>
  <fix>3d</fix>
</trkpt>
<trkpt lat="40.0713751" lon="-105.2297889">
  <ele>1583.02</ele>
  <time>2026-08-28T17:54:04Z</time>
  <course>246.96</course>
  <speed>0.022360679774997897</speed>
  <fix>3d</fix>
</trkpt>
<trkpt lat="40.0713749" lon="-105.229789">
  <ele>1583.0</ele>
  <time>2026-08-28T17:54:04Z</time>
  <course>0.0</course>
  <speed>0.0</speed>
  <fix>3d</fix>
</trkpt>
<trkpt lat="40.0713751" lon="-105.2297889">
  <ele>1583.02</ele>
  <time>2026-08-28T17:54:04Z</time>
  <course>246.96</course>
  <speed>0.022360679774997897</speed>
  <fix>3d</fix>
</trkpt>
<trkpt lat="40.0713749" lon="-105.229789">
  <ele>1583.0</ele>
  <time>2026-08-28T17:54:04Z</time>
  <course>0.0</course>
  <speed>0.0</speed>
  <fix>3d</fix>
</trkpt>
<trkpt lat="40.0713751" lon="-105.2297889">
  <ele>1583.02</ele>
  <time>2026-08-28T17:54:04Z</time>
  <course>246.96</course>
  <speed>0.022360679774997897</speed>
  <fix>3d</fix>
</trkpt>
<trkpt lat="40.0713749" lon="-105.229789">
  <ele>1583.0</ele>
  <time>2026-08-28T17:54:04Z</time>
  <course>0.0</course>
  <speed>0.0</speed>
  <fix>3d</fix>
</trkpt>
<trkpt lat="40.0713751" lon="-105.2297889">
  <ele>1583.02</ele>
  <time>2026-08-28T17:54:04Z</time>
  <course>246.96</course>
  <speed>0.022360679774997897</speed>
  <fix>3d</fix>
</trkpt>
<trkpt lat="40.0713749" lon="-105.229789">
  <ele>1583.0</ele>
  <time>2026-08-28T17:54:04Z</time>
  <course>0.0</course>
  <speed>0.0</speed>
  <fix>3d</fix>
</trkpt>
<trkpt lat="40.0713751" lon="-105.2297889">
  <ele>1583.03</ele>
  <time>2026-08-28T17:54:04Z</time>
  <course>246.96</course>
  <speed>0.022360679774997897</speed>
  <fix>3d</fix>
</trkpt>
<trkpt lat="40.0713749" lon="-105.229789">
  <ele>1583.0</ele>
  <time>2026-08-28T17:54:04Z</time>
  <course>0.0</course>
  <speed>0.0</speed>
  <fix>3d</fix>
</trkpt>
<trkpt lat="40.0713751" lon="-105.2297889">
  <ele>1583.03</ele>
  <time>2026-08-28T17:54:04Z</time>
  <course>246.96</course>
  <speed>0.022360679774997897</speed>
  <fix>3d</fix>
</trkpt>
<trkpt lat="40.0713749" lon="-105.229789">
  <ele>1583.0</ele>
  <time>2026-08-28T17:54:04Z</time>
  <course>0.0</course>
  <speed>0.0</speed>
  <fix>3d</fix>
</trkpt>
<trkpt lat="40.0713751" lon="-105.2297889">
  <ele>1583.03</ele>
  <time>2026-08-28T17:54:04Z</time>
  <course>246.96</course>
  <speed>0.022360679774997897</speed>
  <fix>3d</fix>
</trkpt>
<trkpt lat="40.0713749" lon="-105.229789">
  <ele>1583.0</ele>
  <time>2026-08-28T17:54:04Z</time>
  <course>0.0</course>
  <speed>0.0</speed>
  <fix>3d</fix>
</trkpt>
<trkpt lat="40.0713751" lon="-105.2297889">
  <ele>1583.03</ele>
  <time>2026-08-28T17:54:04Z</time>
  <course>246.96</course>
  <speed>0.022360679774997897</speed>
  <fix>3d</fix>
</trkpt>
<trkpt lat="40.0713749" lon="-105.229789">
  <ele>1583.0</ele>
  <time>2026-08-28T17:54:04Z</time>
  <course>0.0</course>
  <speed>0.0</speed>
  <fix>3d</fix>
</trkpt>
<trkpt lat="40.0713751" lon="-105.2297889">
  <ele>1583.03</ele>
  <time>2026-08-28T17:54:04Z</time>
  <course>246.96</course>
  <speed>0.022360679774997897</speed>
  <fix>3d</fix>
</trkpt>
<trkpt lat="40.0713749" lon="-105.229789">
  <ele>1583.0</ele>
  <time>2026-08-28T17:54:04Z</time>
  <course>0.0</course>
  <speed>0.0</speed>
  <fix>3d</fix>
</trkpt>
<trkpt lat="40.0713751" lon="-105.2297889">
  <ele>1583.03</ele>
  <time>2026-08-28T17:54:04Z</time>
  <course>246.96</course>
  <speed>0.022360679774997897</speed>
  <fix>3d</fix>
</trkpt>
<trkpt lat="40.0713749" lon="-105.229789">
  <ele>1583.0</ele>
  <time>2026-08-28T17:54:04Z</time>
  <course>0.0</course>
  <speed>0.0</speed>
  <fix>3d</fix>
</trkpt>
<trkpt lat="40.0713751" lon="-105.2297889">
  <ele>1583.03</ele>
  <time>2026-08-28T17:54:04Z</time>
  <course>246.96</course>
  <speed>0.022360679774997897</speed>
  <fix>3d</fix>
</trkpt>
<trkpt lat="40.0713749" lon="-105.229789">
  <ele>1583.0</ele>
  <time>2026-08-28T17:54:04Z</time>
  <course>0.0</course>
  <speed>0.0</speed>
  <fix>3d</fix>
</trkpt>
<trkpt lat="40.0713751" lon="-105.2297889">
  <ele>1583.02</ele>
  <time>2026-08-28T17:54:04Z</time>
  <course>246.96</course>
  <speed>0.022360679774997897</speed>
  <fix>3d</fix>
</trkpt>
<trkpt lat="40.0713749" lon="-105.229789">
  <ele>1583.0</ele>
  <time>2026-08-28T17:54:04Z</time>
  <course>0.0</course>
  <speed>0.0</speed>
  <fix>3d</fix>
</trkpt>
<trkpt lat="40.0713751" lon="-105.2297889">
  <ele>1583.02</ele>
  <time>2026-08-28T17:54:04Z</time>
  <course>246.96</course>
  <speed>0.022360679774997897</speed>
  <fix>3d</fix>
</trkpt>
<trkpt lat="40.0713749" lon="-105.229789">
  <ele>1583.0</ele>
  <time>2026-08-28T17:54:04Z</time>
  <course>0.0</course>
  <speed>0.0</speed>
  <fix>3d</fix>
</trkpt>
<trkpt lat="40.0713751" lon="-105.2297889">
  <ele>1583.02</ele>
  <time>2026-08-28T17:54:04Z</time>
  <course>246.96</course>
  <speed>0.022360679774997897</speed>
  <fix>3d</fix>
</trkpt>
<trkpt lat="40.0713749" lon="-105.229789">
  <ele>1583.0</ele>
  <time>2026-08-28T17:54:04Z</time>
  <course>0.0</course>
  <speed>0.0</speed>
  <fix>3d</fix>
</trkpt>
<trkpt lat="40.0713751" lon="-105.2297889">
  <ele>1583.02</ele>
  <time>2026-08-28T17:54:04Z</time>
  <course>246.96</course>
  <speed>0.022360679774997897</speed>
  <fix>3d</fix>
</trkpt>
<trkpt lat="40.0713749" lon="-105.229789">
  <ele>1583.0</ele>
  <time>2026-08-28T17:54:04Z</time>
  <course>0.0</course>
  <speed>0.0</speed>
  <fix>3d</fix>
</trkpt>
<trkpt lat="40.0713751" lon="-105.2297889">
  <ele>1583.02</ele>
  <time>2026-08-28T17:54:04Z</time>
  <course>246.96</course>
  <speed>0.022360679774997897</speed>
  <fix>3d</fix>
</trkpt>
<trkpt lat="40.0713749" lon="-105.229789">
  <ele>1583.0</ele>
  <time>2026-08-28T17:54:04Z</time>
  <course>0.0</course>
  <speed>0.0</speed>
  <fix>3d</fix>
</trkpt>
<trkpt lat="40.0713751" lon="-105.2297889">
  <ele>1583.02</ele>
  <time>2026-08-28T17:54:04Z</time>
  <course>246.96</course>
  <speed>0.022360679774997897</speed>
  <fix>3d</fix>
</trkpt>
<trkpt lat="40.0713749" lon="-105.229789">
  <ele>1583.0</ele>
  <time>2026-08-28T17:54:04Z</time>
  <course>0.0</course>
  <speed>0.0</speed>
  <fix>3d</fix>
</trkpt>
<trkpt lat="40.0713751" lon="-105.2297889">
  <ele>1583.02</ele>
  <time>2026-08-28T17:54:04Z</time>
  <course>246.96</course>
  <speed>0.022360679774997897</speed>
  <fix>3d</fix>
</trkpt>
<trkpt lat="40.0713749" lon="-105.229789">
  <ele>1583.0</ele>
  <time>2026-08-28T17:54:04Z</time>
  <course>0.0</course>
  <speed>0.0</speed>
  <fix>3d</fix>
</trkpt>
<trkpt lat="40.0713751" lon="-105.2297889">
  <ele>1583.02</ele>
  <time>2026-08-28T17:54:04Z</time>
  <course>246.96</course>
  <speed>0.022360679774997897</speed>
  <fix>3d</fix>
</trkpt>
<trkpt lat="40.0713749" lon="-105.229789">
  <ele>1583.0</ele>
  <time>2026-08-28T17:54:04Z</time>
  <course>0.0</course>
  <speed>0.0</speed>
  <fix>3d</fix>
</trkpt>
<trkpt lat="40.0713751" lon="-105.2297889">
  <ele>1583.02</ele>
  <time>2026-08-28T17:54:04Z</time>
  <course>246.96</course>
  <speed>0.022360679774997897</speed>
  <fix>3d</fix>
</trkpt>
<trkpt lat="40.0713749" lon="-105.229789">
  <ele>1583.0</ele>
  <time>2026-08-28T17:54:04Z</time>
  <course>0.0</course>
  <speed>0.0</speed>
  <fix>3d</fix>
</trkpt>
<trkpt lat="40.0713751" lon="-105.2297889">
  <ele>1583.02</ele>
  <time>2026-08-28T17:54:04Z</time>
  <course>246.96</course>
  <speed>0.022360679774997897</speed>
  <fix>3d</fix>
</trkpt>
<trkpt lat="40.0713749" lon="-105.229789">
  <ele>1583.0</ele>
  <time>2026-08-28T17:54:04Z</time>
  <course>0.0</course>
  <speed>0.0</speed>
  <fix>3d</fix>
</trkpt>
<trkpt lat="40.0713751" lon="-105.2297889">
  <ele>1583.02</ele>
  <time>2026-08-28T17:54:04Z</time>
  <course>246.96</course>
  <speed>0.022360679774997897</speed>
  <fix>3d</fix>
</trkpt>
<trkpt lat="40.0713749" lon="-105.229789">
  <ele>1583.0</ele>
  <time>2026-08-28T17:54:04Z</time>
  <course>0.0</course>
  <speed>0.0</speed>
  <fix>3d</fix>
</trkpt>
<trkpt lat="40.0713751" lon="-105.2297889">
  <ele>1583.02</ele>
  <time>2026-08-28T17:54:04Z</time>
  <course>246.96</course>
  <speed>0.022360679774997897</speed>
  <fix>3d</fix>
</trkpt>
<trkpt lat="40.0713749" lon="-105.229789">
  <ele>1583.0</ele>
  <time>2026-08-28T17:54:04Z</time>
  <course>0.0</course>
  <speed>0.0</speed>
  <fix>3d</fix>
</trkpt>
<trkpt lat="40.0713751" lon="-105.2297889">
  <ele>1583.02</ele>
  <time>2026-08-28T17:54:04Z</time>
  <course>246.96</course>
  <speed>0.022360679774997897</speed>
  <fix>3d</fix>
</trkpt>
<trkpt lat="40.0713749" lon="-105.229789">
  <ele>1583.0</ele>
  <time>2026-08-28T17:54:04Z</time>
  <course>0.0</course>
  <speed>0.0</speed>
  <fix>3d</fix>
</trkpt>
<trkpt lat="40.0713751" lon="-105.2297889">
  <ele>1583.02</ele>
  <time>2026-08-28T17:54:04Z</time>
  <course>246.96</course>
  <speed>0.022360679774997897</speed>
  <fix>3d</fix>
</trkpt>
<trkpt lat="40.0713749" lon="-105.229789">
  <ele>1583.0</ele>
  <time>2026-08-28T17:54:04Z</time>
  <course>0.0</course>
  <speed>0.0</speed>
  <fix>3d</fix>
</trkpt>
<trkpt lat="40.0713751" lon="-105.2297889">
  <ele>1583.02</ele>
  <time>2026-08-28T17:54:04Z</time>
  <course>246.96</course>
  <speed>0.022360679774997897</speed>
  <fix>3d</fix>
</trkpt>
<trkpt lat="40.0713749" lon="-105.229789">
  <ele>1583.0</ele>
  <time>2026-08-28T17:54:04Z</time>
  <course>0.0</course>
  <speed>0.0</speed>
  <fix>3d</fix>
</trkpt>
<trkpt lat="40.0713751" lon="-105.2297889">
  <ele>1583.02</ele>
  <time>2026-08-28T17:54:04Z</time>
  <course>246.96</course>
  <speed>0.022360679774997897</speed>
  <fix>3d</fix>
</trkpt>
<trkpt lat="40.0713749" lon="-105.229789">
  <ele>1583.0</ele>
  <time>2026-08-28T17:54:04Z</time>
  <course>0.0</course>
  <speed>0.0</speed>
  <fix>3d</fix>
</trkpt>
<trkpt lat="40.0713751" lon="-105.2297889">
  <ele>1583.01</ele>
  <time>2026-08-28T17:54:04Z</time>
  <course>246.96</course>
  <speed>0.022360679774997897</speed>
  <fix>3d</fix>
</trkpt>
<trkpt lat="40.0713749" lon="-105.229789">
  <ele>1583.0</ele>
  <time>2026-08-28T17:54:04Z</time>
  <course>0.0</course>
  <speed>0.0</speed>
  <fix>3d</fix>
</trkpt>
<trkpt lat="40.0713751" lon="-105.2297889">
  <ele>1583.01</ele>
  <time>2026-08-28T17:54:04Z</time>
  <course>246.96</course>
  <speed>0.022360679774997897</speed>
  <fix>3d</fix>
</trkpt>
<trkpt lat="40.0713749" lon="-105.229789">
  <ele>1583.0</ele>
  <time>2026-08-28T17:54:04Z</time>
  <course>0.0</course>
  <speed>0.0</speed>
  <fix>3d</fix>
</trkpt>
<trkpt lat="40.0713751" lon="-105.2297889">
  <ele>1583.01</ele>
  <time>2026-08-28T17:54:04Z</time>
  <course>246.96</course>
  <speed>0.022360679774997897</speed>
  <fix>3d</fix>
</trkpt>
<trkpt lat="40.0713749" lon="-105.229789">
  <ele>1583.0</ele>
  <time>2026-08-28T17:54:04Z</time>
  <course>0.0</course>
  <speed>0.0</speed>
  <fix>3d</fix>
</trkpt>
<trkpt lat="40.0713751" lon="-105.2297889">
  <ele>1583.01</ele>
  <time>2026-08-28T17:54:04Z</time>
  <course>246.96</course>
  <speed>0.022360679774997897</speed>
  <fix>3d</fix>
</trkpt>
<trkpt lat="40.0713749" lon="-105.229789">
  <ele>1583.0</ele>
  <time>2026-08-28T17:54:04Z</time>
  <course>0.0</course>
  <speed>0.0</speed>
  <fix>3d</fix>
</trkpt>
<trkpt lat="40.0713751" lon="-105.2297889">
  <ele>1583.01</ele>
  <time>2026-08-28T17:54:04Z</time>
  <course>246.96</course>
  <speed>0.022360679774997897</speed>
  <fix>3d</fix>
</trkpt>
<trkpt lat="40.0713749" lon="-105.229789">
  <ele>1583.0</ele>
  <time>2026-08-28T17:54:04Z</time>
  <course>0.0</course>
  <speed>0.0</speed>
  <fix>3d</fix>
</trkpt>
<trkpt lat="40.0713751" lon="-105.2297889">
  <ele>1583.01</ele>
  <time>2026-08-28T17:54:04Z</time>
  <course>246.96</course>
  <speed>0.022360679774997897</speed>
  <fix>3d</fix>
</trkpt>
<trkpt lat="40.0713749" lon="-105.229789">
  <ele>1583.0</ele>
  <time>2026-08-28T17:54:04Z</time>
  <course>0.0</course>
  <speed>0.0</speed>
  <fix>3d</fix>
</trkpt>
<trkpt lat="40.0713751" lon="-105.2297889">
  <ele>1583.01</ele>
  <time>2026-08-28T17:54:04Z</time>
  <course>246.96</course>
  <speed>0.022360679774997897</speed>
  <fix>3d</fix>
</trkpt>
<trkpt lat="40.0713749" lon="-105.229789">
  <ele>1583.0</ele>
  <time>2026-08-28T17:54:04Z</time>
  <course>0.0</course>
  <speed>0.0</speed>
  <fix>3d</fix>
</trkpt>
<trkpt lat="40.0713751" lon="-105.2297889">
  <ele>1583.0</ele>
  <time>2026-08-28T17:54:04Z</time>
  <course>246.96</course>
  <speed>0.022360679774997897</speed>
  <fix>3d</fix>
</trkpt>
<trkpt lat="40.0713749" lon="-105.229789">
  <ele>1583.0</ele>
  <time>2026-08-28T17:54:04Z</time>
  <course>0.0</course>
  <speed>0.0</speed>
  <fix>3d</fix>
</trkpt>
<trkpt lat="40.0713751" lon="-105.2297889">
  <ele>1583.0</ele>
  <time>2026-08-28T17:54:04Z</time>
  <course>246.96</course>
  <speed>0.022360679774997897</speed>
  <fix>3d</fix>
</trkpt>
<trkpt lat="40.0713749" lon="-105.229789">
  <ele>1583.0</ele>
  <time>2026-08-28T17:54:04Z</time>
  <course>0.0</course>
  <speed>0.0</speed>
  <fix>3d</fix>
</trkpt>
<trkpt lat="40.071375" lon="-105.2297889">
  <ele>1583.0</ele>
  <time>2026-08-28T17:54:04Z</time>
  <course>246.96</course>
  <speed>0.022360679774997897</speed>
  <fix>3d</fix>
</trkpt>
<trkpt lat="40.0713749" lon="-105.229789">
  <ele>1583.0</ele>
  <time>2026-08-28T17:54:04Z</time>
  <course>0.0</course>
  <speed>0.0</speed>
  <fix>3d</fix>
</trkpt>
<trkpt lat="40.0713751" lon="-105.2297889">
  <ele>1583.0</ele>
  <time>2026-08-28T17:54:04Z</time>
  <course>246.96</course>
  <speed>0.022360679774997897</speed>
  <fix>3d</fix>
</trkpt>
<trkpt lat="40.0713749" lon="-105.229789">
  <ele>1583.0</ele>
  <time>2026-08-28T17:54:04Z</time>
  <course>0.0</course>
  <speed>0.0</speed>
  <fix>3d</fix>
</trkpt>
<trkpt lat="40.071375" lon="-105.2297889">
  <ele>1583.0</ele>
  <time>2026-08-28T17:54:04Z</time>
  <course>246.96</course>
  <speed>0.022360679774997897</speed>
  <fix>3d</fix>
</trkpt>
<trkpt lat="40.0713749" lon="-105.229789">
  <ele>1583.0</ele>
  <time>2026-08-28T17:54:04Z</time>
  <course>0.0</course>
  <speed>0.0</speed>
  <fix>3d</fix>
</trkpt>
<trkpt lat="40.0713751" lon="-105.2297889">
  <ele>1583.01</ele>
  <time>2026-08-28T17:54:04Z</time>
  <course>246.96</course>
  <speed>0.022360679774997897</speed>
  <fix>3d</fix>
</trkpt>
<trkpt lat="40.0713749" lon="-105.229789">
  <ele>1583.0</ele>
  <time>2026-08-28T17:54:04Z</time>
  <course>0.0</course>
  <speed>0.0</speed>
  <fix>3d</fix>
</trkpt>
<trkpt lat="40.071375" lon="-105.2297889">
  <ele>1583.01</ele>
  <time>2026-08-28T17:54:04Z</time>
  <course>246.96</course>
  <speed>0.022360679774997897</speed>
  <fix>3d</fix>
</trkpt>
<trkpt lat="40.0713749" lon="-105.229789">
  <ele>1583.0</ele>
  <time>2026-08-28T17:54:04Z</time>
  <course>0.0</course>
  <speed>0.0</speed>
  <fix>3d</fix>
</trkpt>
<trkpt lat="40.0713751" lon="-105.2297889">
  <ele>1583.0</ele>
  <time>2026-08-28T17:54:04Z</time>
  <course>246.96</course>
  <speed>0.022360679774997897</speed>
  <fix>3d</fix>
</trkpt>
<trkpt lat="40.0713749" lon="-105.229789">
  <ele>1583.0</ele>
  <time>2026-08-28T17:54:04Z</time>
  <course>0.0</course>
  <speed>0.0</speed>
  <fix>3d</fix>
</trkpt>
<trkpt lat="40.0713751" lon="-105.2297889">
  <ele>1583.0</ele>
  <time>2026-08-28T17:54:04Z</time>
  <course>246.96</course>
  <speed>0.022360679774997897</speed>
  <fix>3d</fix>
</trkpt>
<trkpt lat="40.0713749" lon="-105.229789">
  <ele>1583.0</ele>
  <time>2026-08-28T17:54:04Z</time>
  <course>0.0</course>
  <speed>0.0</speed>
  <fix>3d</fix>
</trkpt>
<trkpt lat="40.0713751" lon="-105.2297889">
  <ele>1583.0</ele>
  <time>2026-08-28T17:54:04Z</time>
  <course>246.96</course>
  <speed>0.022360679774997897</speed>
  <fix>3d</fix>
</trkpt>
<trkpt lat="40.0713749" lon="-105.229789">
  <ele>1583.0</ele>
  <time>2026-08-28T17:54:04Z</time>
  <course>0.0</course>
  <speed>0.0</speed>
  <fix>3d</fix>
</trkpt>
<trkpt lat="40.0713751" lon="-105.2297889">
  <ele>1583.0</ele>
  <time>2026-08-28T17:54:04Z</time>
  <course>246.96</course>
  <speed>0.022360679774997897</speed>
  <fix>3d</fix>
</trkpt>
<trkpt lat="40.0713749" lon="-105.229789">
  <ele>1583.0</ele>
  <time>2026-08-28T17:54:04Z</time>
  <course>0.0</course>
  <speed>0.0</speed>
  <fix>3d</fix>
</trkpt>
<trkpt lat="40.0713751" lon="-105.2297889">
  <ele>1582.99</ele>
  <time>2026-08-28T17:54:04Z</time>
  <course>246.96</course>
  <speed>0.022360679774997897</speed>
  <fix>3d</fix>
</trkpt>
<trkpt lat="40.0713749" lon="-105.229789">
  <ele>1583.0</ele>
  <time>2026-08-28T17:54:04Z</time>
  <course>0.0</course>
  <speed>0.0</speed>
  <fix>3d</fix>
</trkpt>
<trkpt lat="40.0713751" lon="-105.2297889">
  <ele>1582.99</ele>
  <time>2026-08-28T17:54:04Z</time>
  <course>246.96</course>
  <speed>0.022360679774997897</speed>
  <fix>3d</fix>
</trkpt>
<trkpt lat="40.0713749" lon="-105.229789">
  <ele>1583.0</ele>
  <time>2026-08-28T17:54:04Z</time>
  <course>0.0</course>
  <speed>0.0</speed>
  <fix>3d</fix>
</trkpt>
<trkpt lat="40.0713751" lon="-105.2297889">
  <ele>1582.99</ele>
  <time>2026-08-28T17:54:04Z</time>
  <course>246.96</course>
  <speed>0.022360679774997897</speed>
  <fix>3d</fix>
</trkpt>
<trkpt lat="40.0713749" lon="-105.229789">
  <ele>1583.0</ele>
  <time>2026-08-28T17:54:04Z</time>
  <course>0.0</course>
  <speed>0.0</speed>
  <fix>3d</fix>
</trkpt>
<trkpt lat="40.0713751" lon="-105.2297889">
  <ele>1583.0</ele>
  <time>2026-08-28T17:54:04Z</time>
  <course>246.96</course>
  <speed>0.022360679774997897</speed>
  <fix>3d</fix>
</trkpt>
<trkpt lat="40.0713749" lon="-105.229789">
  <ele>1583.0</ele>
  <time>2026-08-28T17:54:04Z</time>
  <course>0.0</course>
  <speed>0.0</speed>
  <fix>3d</fix>
</trkpt>
<trkpt lat="40.0713751" lon="-105.2297889">
  <ele>1583.0</ele>
  <time>2026-08-28T17:54:04Z</time>
  <course>246.96</course>
  <speed>0.022360679774997897</speed>
  <fix>3d</fix>
</trkpt>
<trkpt lat="40.0713749" lon="-105.229789">
  <ele>1583.0</ele>
  <time>2026-08-28T17:54:04Z</time>
  <course>0.0</course>
  <speed>0.0</speed>
  <fix>3d</fix>
</trkpt>
<trkpt lat="40.0713751" lon="-105.2297889">
  <ele>1583.0</ele>
  <time>2026-08-28T17:54:04Z</time>
  <course>246.96</course>
  <speed>0.022360679774997897</speed>
  <fix>3d</fix>
</trkpt>
<trkpt lat="40.0713749" lon="-105.229789">
  <ele>1583.0</ele>
  <time>2026-08-28T17:54:04Z</time>
  <course>0.0</course>
  <speed>0.0</speed>
  <fix>3d</fix>
</trkpt>
<trkpt lat="40.0713751" lon="-105.2297889">
  <ele>1583.0</ele>
  <time>2026-08-28T17:54:04Z</time>
  <course>246.96</course>
  <speed>0.022360679774997897</speed>
  <fix>3d</fix>
</trkpt>
<trkpt lat="40.0713749" lon="-105.229789">
  <ele>1583.0</ele>
  <time>2026-08-28T17:54:04Z</time>
  <course>0.0</course>
  <speed>0.0</speed>
  <fix>3d</fix>
</trkpt>
<trkpt lat="40.071375" lon="-105.2297889">
  <ele>1583.0</ele>
  <time>2026-08-28T17:54:04Z</time>
  <course>246.96</course>
  <speed>0.022360679774997897</speed>
  <fix>3d</fix>
</trkpt>
<trkpt lat="40.0713749" lon="-105.229789">
  <ele>1583.0</ele>
  <time>2026-08-28T17:54:04Z</time>
  <course>0.0</course>
  <speed>0.0</speed>
  <fix>3d</fix>
</trkpt>
<trkpt lat="40.0713751" lon="-105.2297889">
  <ele>1583.0</ele>
  <time>2026-08-28T17:54:04Z</time>
  <course>246.96</course>
  <speed>0.022360679774997897</speed>
  <fix>3d</fix>
</trkpt>
<trkpt lat="40.0713749" lon="-105.229789">
  <ele>1583.0</ele>
  <time>2026-08-28T17:54:04Z</time>
  <course>0.0</course>
  <speed>0.0</speed>
  <fix>3d</fix>
</trkpt>
<trkpt lat="40.071375" lon="-105.2297889">
  <ele>1583.0</ele>
  <time>2026-08-28T17:54:04Z</time>
  <course>246.96</course>
  <speed>0.022360679774997897</speed>
  <fix>3d</fix>
</trkpt>
<trkpt lat="40.0713749" lon="-105.229789">
  <ele>1583.0</ele>
  <time>2026-08-28T17:54:04Z</time>
  <course>0.0</course>
  <speed>0.0</speed>
  <fix>3d</fix>
</trkpt>
<trkpt lat="40.0713751" lon="-105.2297889">
  <ele>1583.0</ele>
  <time>2026-08-28T17:54:04Z</time>
  <course>246.96</course>
  <speed>0.022360679774997897</speed>
  <fix>3d</fix>
</trkpt>
<trkpt lat="40.0713749" lon="-105.229789">
  <ele>1583.0</ele>
  <time>2026-08-28T17:54:04Z</time>
  <course>0.0</course>
  <speed>0.0</speed>
  <fix>3d</fix>
</trkpt>
<trkpt lat="40.071375" lon="-105.2297889">
  <ele>1583.0</ele>
  <time>2026-08-28T17:54:04Z</time>
  <course>246.96</course>
  <speed>0.022360679774997897</speed>
  <fix>3d</fix>
</trkpt>
<trkpt lat="40.0713749" lon="-105.229789">
  <ele>1583.0</ele>
  <time>2026-08-28T17:54:04Z</time>
  <course>0.0</course>
  <speed>0.0</speed>
  <fix>3d</fix>
</trkpt>
<trkpt lat="40.0713751" lon="-105.2297889">
  <ele>1583.0</ele>
  <time>2026-08-28T17:54:04Z</time>
  <course>246.96</course>
  <speed>0.022360679774997897</speed>
  <fix>3d</fix>
</trkpt>
<trkpt lat="40.0713749" lon="-105.229789">
  <ele>1583.0</ele>
  <time>2026-08-28T17:54:04Z</time>
  <course>0.0</course>
  <speed>0.0</speed>
  <fix>3d</fix>
</trkpt>
<trkpt lat="40.071375" lon="-105.2297889">
  <ele>1583.0</ele>
  <time>2026-08-28T17:54:04Z</time>
  <course>246.96</course>
  <speed>0.022360679774997897</speed>
  <fix>3d</fix>
</trkpt>
<trkpt lat="40.0713749" lon="-105.229789">
  <ele>1583.0</ele>
  <time>2026-08-28T17:54:04Z</time>
  <course>0.0</course>
  <speed>0.0</speed>
  <fix>3d</fix>
</trkpt>
<trkpt lat="40.0713751" lon="-105.2297889">
  <ele>1583.0</ele>
  <time>2026-08-28T17:54:04Z</time>
  <course>246.96</course>
  <speed>0.022360679774997897</speed>
  <fix>3d</fix>
</trkpt>
<trkpt lat="40.0713749" lon="-105.229789">
  <ele>1583.0</ele>
  <time>2026-08-28T17:54:04Z</time>
  <course>0.0</course>
  <speed>0.0</speed>
  <fix>3d</fix>
</trkpt>
<trkpt lat="40.0713751" lon="-105.2297889">
  <ele>1583.01</ele>
  <time>2026-08-28T17:54:04Z</time>
  <course>246.96</course>
  <speed>0.022360679774997897</speed>
  <fix>3d</fix>
</trkpt>
<trkpt lat="40.0713749" lon="-105.229789">
  <ele>1583.0</ele>
  <time>2026-08-28T17:54:04Z</time>
  <course>0.0</course>
  <speed>0.0</speed>
  <fix>3d</fix>
</trkpt>
<trkpt lat="40.0713751" lon="-105.2297889">
  <ele>1583.01</ele>
  <time>2026-08-28T17:54:04Z</time>
  <course>246.96</course>
  <speed>0.022360679774997897</speed>
  <fix>3d</fix>
</trkpt>
<trkpt lat="40.0713749" lon="-105.229789">
  <ele>1583.0</ele>
  <time>2026-08-28T17:54:04Z</time>
  <course>0.0</course>
  <speed>0.0</speed>
  <fix>3d</fix>
</trkpt>
<trkpt lat="40.0713751" lon="-105.2297889">
  <ele>1583.02</ele>
  <time>2026-08-28T17:54:04Z</time>
  <course>246.96</course>
  <speed>0.022360679774997897</speed>
  <fix>3d</fix>
</trkpt>
<trkpt lat="40.0713749" lon="-105.229789">
  <ele>1583.0</ele>
  <time>2026-08-28T17:54:04Z</time>
  <course>0.0</course>
  <speed>0.0</speed>
  <fix>3d</fix>
</trkpt>
<trkpt lat="40.0713751" lon="-105.2297889">
  <ele>1583.02</ele>
  <time>2026-08-28T17:54:04Z</time>
  <course>246.96</course>
  <speed>0.022360679774997897</speed>
  <fix>3d</fix>
</trkpt>
<trkpt lat="40.0713749" lon="-105.229789">
  <ele>1583.0</ele>
  <time>2026-08-28T17:54:04Z</time>
  <course>0.0</course>
  <speed>0.0</speed>
  <fix>3d</fix>
</trkpt>
<trkpt lat="40.0713751" lon="-105.2297889">
  <ele>1583.02</ele>
  <time>2026-08-28T17:54:04Z</time>
  <course>246.96</course>
  <speed>0.022360679774997897</speed>
  <fix>3d</fix>
</trkpt>
<trkpt lat="40.0713749" lon="-105.229789">
  <ele>1583.0</ele>
  <time>2026-08-28T17:54:04Z</time>
  <course>0.0</course>
  <speed>0.0</speed>
  <fix>3d</fix>
</trkpt>
<trkpt lat="40.0713751" lon="-105.2297889">
  <ele>1583.02</ele>
  <time>2026-08-28T17:54:04Z</time>
  <course>246.96</course>
  <speed>0.022360679774997897</speed>
  <fix>3d</fix>
</trkpt>
<trkpt lat="40.0713749" lon="-105.229789">
  <ele>1583.0</ele>
  <time>2026-08-28T17:54:04Z</time>
  <course>0.0</course>
  <speed>0.0</speed>
  <fix>3d</fix>
</trkpt>
<trkpt lat="40.0713751" lon="-105.2297889">
  <ele>1583.02</ele>
  <time>2026-08-28T17:54:04Z</time>
  <course>246.96</course>
  <speed>0.022360679774997897</speed>
  <fix>3d</fix>
</trkpt>
<trkpt lat="40.0713749" lon="-105.229789">
  <ele>1583.0</ele>
  <time>2026-08-28T17:54:04Z</time>
  <course>0.0</course>
  <speed>0.0</speed>
  <fix>3d</fix>
</trkpt>
<trkpt lat="40.0713751" lon="-105.2297889">
  <ele>1583.02</ele>
  <time>2026-08-28T17:54:04Z</time>
  <course>246.96</course>
  <speed>0.022360679774997897</speed>
  <fix>3d</fix>
</trkpt>
<trkpt lat="40.0713749" lon="-105.229789">
  <ele>1583.0</ele>
  <time>2026-08-28T17:54:04Z</time>
  <course>0.0</course>
  <speed>0.0</speed>
  <fix>3d</fix>
</trkpt>
<trkpt lat="40.0713751" lon="-105.2297889">
  <ele>1583.02</ele>
  <time>2026-08-28T17:54:04Z</time>
  <course>246.96</course>
  <speed>0.022360679774997897</speed>
  <fix>3d</fix>
</trkpt>
<trkpt lat="40.0713749" lon="-105.229789">
  <ele>1583.0</ele>
  <time>2026-08-28T17:54:04Z</time>
  <course>0.0</course>
  <speed>0.0</speed>
  <fix>3d</fix>
</trkpt>
<trkpt lat="40.0713751" lon="-105.2297889">
  <ele>1583.02</ele>
  <time>2026-08-28T17:54:04Z</time>
  <course>246.96</course>
  <speed>0.022360679774997897</speed>
  <fix>3d</fix>
</trkpt>
<trkpt lat="40.0713749" lon="-105.229789">
  <ele>1583.0</ele>
  <time>2026-08-28T17:54:04Z</time>
  <course>0.0</course>
  <speed>0.0</speed>
  <fix>3d</fix>
</trkpt>
<trkpt lat="40.0713751" lon="-105.2297889">
  <ele>1583.02</ele>
  <time>2026-08-28T17:54:04Z</time>
  <course>246.96</course>
  <speed>0.022360679774997897</speed>
  <fix>3d</fix>
</trkpt>
<trkpt lat="40.0713749" lon="-105.229789">
  <ele>1583.0</ele>
  <time>2026-08-28T17:54:04Z</time>
  <course>0.0</course>
  <speed>0.0</speed>
  <fix>3d</fix>
</trkpt>
<trkpt lat="40.0713751" lon="-105.2297889">
  <ele>1583.02</ele>
  <time>2026-08-28T17:54:04Z</time>
  <course>246.96</course>
  <speed>0.022360679774997897</speed>
  <fix>3d</fix>
</trkpt>
<trkpt lat="40.0713749" lon="-105.229789">
  <ele>1583.0</ele>
  <time>2026-08-28T17:54:04Z</time>
  <course>0.0</course>
  <speed>0.0</speed>
  <fix>3d</fix>
</trkpt>
<trkpt lat="40.071375" lon="-105.2297889">
  <ele>1583.02</ele>
  <time>2026-08-28T17:54:04Z</time>
  <course>246.96</course>
  <speed>0.022360679774997897</speed>
  <fix>3d</fix>
</trkpt>
<trkpt lat="40.0713749" lon="-105.229789">
  <ele>1583.0</ele>
  <time>2026-08-28T17:54:04Z</time>
  <course>0.0</course>
  <speed>0.0</speed>
  <fix>3d</fix>
</trkpt>
<trkpt lat="40.0713751" lon="-105.2297889">
  <ele>1583.02</ele>
  <time>2026-08-28T17:54:04Z</time>
  <course>246.96</course>
  <speed>0.022360679774997897</speed>
  <fix>3d</fix>
</trkpt>
<trkpt lat="40.0713749" lon="-105.229789">
  <ele>1583.0</ele>
  <time>2026-08-28T17:54:04Z</time>
  <course>0.0</course>
  <speed>0.0</speed>
  <fix>3d</fix>
</trkpt>
<trkpt lat="40.071375" lon="-105.2297889">
  <ele>1583.02</ele>
  <time>2026-08-28T17:54:04Z</time>
  <course>246.96</course>
  <speed>0.022360679774997897</speed>
  <fix>3d</fix>
</trkpt>
<trkpt lat="40.0713749" lon="-105.229789">
  <ele>1583.0</ele>
  <time>2026-08-28T17:54:04Z</time>
  <course>0.0</course>
  <speed>0.0</speed>
  <fix>3d</fix>
</trkpt>
<trkpt lat="40.0713751" lon="-105.2297889">
  <ele>1583.02</ele>
  <time>2026-08-28T17:54:04Z</time>
  <course>246.96</course>
  <speed>0.022360679774997897</speed>
  <fix>3d</fix>
</trkpt>
<trkpt lat="40.0713749" lon="-105.229789">
  <ele>1583.0</ele>
  <time>2026-08-28T17:54:04Z</time>
  <course>0.0</course>
  <speed>0.0</speed>
  <fix>3d</fix>
</trkpt>
<trkpt lat="40.071375" lon="-105.2297889">
  <ele>1583.02</ele>
  <time>2026-08-28T17:54:04Z</time>
  <course>246.96</course>
  <speed>0.022360679774997897</speed>
  <fix>3d</fix>
</trkpt>
<trkpt lat="40.0713749" lon="-105.229789">
  <ele>1583.0</ele>
  <time>2026-08-28T17:54:04Z</time>
  <course>0.0</course>
  <speed>0.0</speed>
  <fix>3d</fix>
</trkpt>
<trkpt lat="40.0713751" lon="-105.2297889">
  <ele>1583.02</ele>
  <time>2026-08-28T17:54:04Z</time>
  <course>246.96</course>
  <speed>0.022360679774997897</speed>
  <fix>3d</fix>
</trkpt>
<trkpt lat="40.0713749" lon="-105.229789">
  <ele>1583.0</ele>
  <time>2026-08-28T17:54:04Z</time>
  <course>0.0</course>
  <speed>0.0</speed>
  <fix>3d</fix>
</trkpt>
<trkpt lat="40.071375" lon="-105.2297889">
  <ele>1583.02</ele>
  <time>2026-08-28T17:54:04Z</time>
  <course>246.96</course>
  <speed>0.022360679774997897</speed>
  <fix>3d</fix>
</trkpt>
<trkpt lat="40.0713749" lon="-105.229789">
  <ele>1583.0</ele>
  <time>2026-08-28T17:54:04Z</time>
  <course>0.0</course>
  <speed>0.0</speed>
  <fix>3d</fix>
</trkpt>
<trkpt lat="40.0713751" lon="-105.2297889">
  <ele>1583.01</ele>
  <time>2026-08-28T17:54:04Z</time>
  <course>246.96</course>
  <speed>0.022360679774997897</speed>
  <fix>3d</fix>
</trkpt>
<trkpt lat="40.0713749" lon="-105.229789">
  <ele>1583.0</ele>
  <time>2026-08-28T17:54:04Z</time>
  <course>0.0</course>
  <speed>0.0</speed>
  <fix>3d</fix>
</trkpt>
<trkpt lat="40.0713751" lon="-105.2297889">
  <ele>1583.01</ele>
  <time>2026-08-28T17:54:04Z</time>
  <course>246.96</course>
  <speed>0.022360679774997897</speed>
  <fix>3d</fix>
</trkpt>
<trkpt lat="40.0713749" lon="-105.229789">
  <ele>1583.0</ele>
  <time>2026-08-28T17:54:04Z</time>
  <course>0.0</course>
  <speed>0.0</speed>
  <fix>3d</fix>
</trkpt>
<trkpt lat="40.0713751" lon="-105.2297889">
  <ele>1583.01</ele>
  <time>2026-08-28T17:54:04Z</time>
  <course>246.96</course>
  <speed>0.022360679774997897</speed>
  <fix>3d</fix>
</trkpt>
<trkpt lat="40.0713749" lon="-105.229789">
  <ele>1583.0</ele>
  <time>2026-08-28T17:54:04Z</time>
  <course>0.0</course>
  <speed>0.0</speed>
  <fix>3d</fix>
</trkpt>
<trkpt lat="40.0713751" lon="-105.2297889">
  <ele>1583.02</ele>
  <time>2026-08-28T17:54:04Z</time>
  <course>246.96</course>
  <speed>0.022360679774997897</speed>
  <fix>3d</fix>
</trkpt>
<trkpt lat="40.0713749" lon="-105.229789">
  <ele>1583.0</ele>
  <time>2026-08-28T17:54:04Z</time>
  <course>0.0</course>
  <speed>0.0</speed>
  <fix>3d</fix>
</trkpt>
<trkpt lat="40.0713751" lon="-105.2297889">
  <ele>1583.02</ele>
  <time>2026-08-28T17:54:04Z</time>
  <course>246.96</course>
  <speed>0.022360679774997897</speed>
  <fix>3d</fix>
</trkpt>
<trkpt lat="40.0713749" lon="-105.229789">
  <ele>1583.0</ele>
  <time>2026-08-28T17:54:04Z</time>
  <course>0.0</course>
  <speed>0.0</speed>
  <fix>3d</fix>
</trkpt>
<trkpt lat="40.0713751" lon="-105.2297889">
  <ele>1583.02</ele>
  <time>2026-08-28T17:54:04Z</time>
  <course>246.96</course>
  <speed>0.022360679774997897</speed>
  <fix>3d</fix>
</trkpt>
<trkpt lat="40.0713749" lon="-105.229789">
  <ele>1583.0</ele>
  <time>2026-08-28T17:54:04Z</time>
  <course>0.0</course>
  <speed>0.0</speed>
  <fix>3d</fix>
</trkpt>
<trkpt lat="40.0713751" lon="-105.2297889">
  <ele>1583.02</ele>
  <time>2026-08-28T17:54:04Z</time>
  <course>246.96</course>
  <speed>0.022360679774997897</speed>
  <fix>3d</fix>
</trkpt>
<trkpt lat="40.0713749" lon="-105.229789">
  <ele>1583.0</ele>
  <time>2026-08-28T17:54:04Z</time>
  <course>0.0</course>
  <speed>0.0</speed>
  <fix>3d</fix>
</trkpt>
<trkpt lat="40.0713751" lon="-105.2297889">
  <ele>1583.02</ele>
  <time>2026-08-28T17:54:04Z</time>
  <course>246.96</course>
  <speed>0.022360679774997897</speed>
  <fix>3d</fix>
</trkpt>
<trkpt lat="40.0713749" lon="-105.229789">
  <ele>1583.0</ele>
  <time>2026-08-28T17:54:04Z</time>
  <course>0.0</course>
  <speed>0.0</speed>
  <fix>3d</fix>
</trkpt>
<trkpt lat="40.0713751" lon="-105.2297889">
  <ele>1583.02</ele>
  <time>2026-08-28T17:54:04Z</time>
  <course>246.96</course>
  <speed>0.022360679774997897</speed>
  <fix>3d</fix>
</trkpt>
<trkpt lat="40.0713749" lon="-105.229789">
  <ele>1583.0</ele>
  <time>2026-08-28T17:54:04Z</time>
  <course>0.0</course>
  <speed>0.0</speed>
  <fix>3d</fix>
</trkpt>
<trkpt lat="40.0713751" lon="-105.2297889">
  <ele>1583.02</ele>
  <time>2026-08-28T17:54:04Z</time>
  <course>246.96</course>
  <speed>0.022360679774997897</speed>
  <fix>3d</fix>
</trkpt>
<trkpt lat="40.0713749" lon="-105.229789">
  <ele>1583.0</ele>
  <time>2026-08-28T17:54:04Z</time>
  <course>0.0</course>
  <speed>0.0</speed>
  <fix>3d</fix>
</trkpt>
<trkpt lat="40.0713751" lon="-105.2297889">
  <ele>1583.02</ele>
  <time>2026-08-28T17:54:04Z</time>
  <course>246.96</course>
  <speed>0.022360679774997897</speed>
  <fix>3d</fix>
</trkpt>
<trkpt lat="40.0713749" lon="-105.229789">
  <ele>1583.0</ele>
  <time>2026-08-28T17:54:04Z</time>
  <course>0.0</course>
  <speed>0.0</speed>
  <fix>3d</fix>
</trkpt>
<trkpt lat="40.0713751" lon="-105.2297889">
  <ele>1583.02</ele>
  <time>2026-08-28T17:54:04Z</time>
  <course>246.96</course>
  <speed>0.022360679774997897</speed>
  <fix>3d</fix>
</trkpt>
<trkpt lat="40.0713749" lon="-105.229789">
  <ele>1583.0</ele>
  <time>2026-08-28T17:54:04Z</time>
  <course>0.0</course>
  <speed>0.0</speed>
  <fix>3d</fix>
</trkpt>
<trkpt lat="40.0713751" lon="-105.2297889">
  <ele>1583.02</ele>
  <time>2026-08-28T17:54:04Z</time>
  <course>246.96</course>
  <speed>0.022360679774997897</speed>
  <fix>3d</fix>
</trkpt>
<trkpt lat="40.0713749" lon="-105.229789">
  <ele>1583.0</ele>
  <time>2026-08-28T17:54:04Z</time>
  <course>0.0</course>
  <speed>0.0</speed>
  <fix>3d</fix>
</trkpt>
<trkpt lat="40.0713751" lon="-105.2297889">
  <ele>1583.02</ele>
  <time>2026-08-28T17:54:04Z</time>
  <course>246.96</course>
  <speed>0.022360679774997897</speed>
  <fix>3d</fix>
</trkpt>
<trkpt lat="40.0713749" lon="-105.229789">
  <ele>1583.0</ele>
  <time>2026-08-28T17:54:04Z</time>
  <course>0.0</course>
  <speed>0.0</speed>
  <fix>3d</fix>
</trkpt>
<trkpt lat="40.0713751" lon="-105.2297889">
  <ele>1583.02</ele>
  <time>2026-08-28T17:54:04Z</time>
  <course>246.96</course>
  <speed>0.022360679774997897</speed>
  <fix>3d</fix>
</trkpt>
<trkpt lat="40.0713749" lon="-105.229789">
  <ele>1583.0</ele>
  <time>2026-08-28T17:54:04Z</time>
  <course>0.0</course>
  <speed>0.0</speed>
  <fix>3d</fix>
</trkpt>
<trkpt lat="40.0713751" lon="-105.2297889">
  <ele>1583.02</ele>
  <time>2026-08-28T17:54:04Z</time>
  <course>246.96</course>
  <speed>0.022360679774997897</speed>
  <fix>3d</fix>
</trkpt>
<trkpt lat="40.0713749" lon="-105.229789">
  <ele>1583.0</ele>
  <time>2026-08-28T17:54:04Z</time>
  <course>0.0</course>
  <speed>0.0</speed>
  <fix>3d</fix>
</trkpt>
<trkpt lat="40.0713751" lon="-105.2297889">
  <ele>1583.02</ele>
  <time>2026-08-28T17:54:04Z</time>
  <course>246.96</course>
  <speed>0.022360679774997897</speed>
  <fix>3d</fix>
</trkpt>
<trkpt lat="40.0713749" lon="-105.229789">
  <ele>1583.0</ele>
  <time>2026-08-28T17:54:04Z</time>
  <course>0.0</course>
  <speed>0.0</speed>
  <fix>3d</fix>
</trkpt>
<trkpt lat="40.0713751" lon="-105.2297889">
  <ele>1583.02</ele>
  <time>2026-08-28T17:54:04Z</time>
  <course>246.96</course>
  <speed>0.022360679774997897</speed>
  <fix>3d</fix>
</trkpt>
<trkpt lat="40.0713749" lon="-105.229789">
  <ele>1583.0</ele>
  <time>2026-08-28T17:54:04Z</time>
  <course>0.0</course>
  <speed>0.0</speed>
  <fix>3d</fix>
</trkpt>
<trkpt lat="40.0713751" lon="-105.2297889">
  <ele>1583.02</ele>
  <time>2026-08-28T17:54:04Z</time>
  <course>246.96</course>
  <speed>0.022360679774997897</speed>
  <fix>3d</fix>
</trkpt>
<trkpt lat="40.0713749" lon="-105.229789">
  <ele>1583.0</ele>
  <time>2026-08-28T17:54:04Z</time>
  <course>0.0</course>
  <speed>0.0</speed>
  <fix>3d</fix>
</trkpt>
<trkpt lat="40.0713751" lon="-105.2297889">
  <ele>1583.02</ele>
  <time>2026-08-28T17:54:04Z</time>
  <course>246.96</course>
  <speed>0.022360679774997897</speed>
  <fix>3d</fix>
</trkpt>
<trkpt lat="40.0713749" lon="-105.229789">
  <ele>1583.0</ele>
  <time>2026-08-28T17:54:04Z</time>
  <course>0.0</course>
  <speed>0.0</speed>
  <fix>3d</fix>
</trkpt>
<trkpt lat="40.0713751" lon="-105.2297889">
  <ele>1583.01</ele>
  <time>2026-08-28T17:54:04Z</time>
  <course>246.96</course>
  <speed>0.022360679774997897</speed>
  <fix>3d</fix>
</trkpt>
<trkpt lat="40.0713749" lon="-105.229789">
  <ele>1583.0</ele>
  <time>2026-08-28T17:54:04Z</time>
  <course>0.0</course>
  <speed>0.0</speed>
  <fix>3d</fix>
</trkpt>
<trkpt lat="40.0713751" lon="-105.2297889">
  <ele>1583.01</ele>
  <time>2026-08-28T17:54:04Z</time>
  <course>246.96</course>
  <speed>0.022360679774997897</speed>
  <fix>3d</fix>
</trkpt>
<trkpt lat="40.0713749" lon="-105.229789">
  <ele>1583.0</ele>
  <time>2026-08-28T17:54:04Z</time>
  <course>0.0</course>
  <speed>0.0</speed>
  <fix>3d</fix>
</trkpt>
<trkpt lat="40.0713751" lon="-105.2297889">
  <ele>1583.01</ele>
  <time>2026-08-28T17:54:04Z</time>
  <course>246.96</course>
  <speed>0.022360679774997897</speed>
  <fix>3d</fix>
</trkpt>
<trkpt lat="40.0713749" lon="-105.229789">
  <ele>1583.0</ele>
  <time>2026-08-28T17:54:04Z</time>
  <course>0.0</course>
  <speed>0.0</speed>
  <fix>3d</fix>
</trkpt>
<trkpt lat="40.0713751" lon="-105.2297889">
  <ele>1583.01</ele>
  <time>2026-08-28T17:54:04Z</time>
  <course>246.96</course>
  <speed>0.022360679774997897</speed>
  <fix>3d</fix>
</trkpt>
<trkpt lat="40.0713749" lon="-105.229789">
  <ele>1583.0</ele>
  <time>2026-08-28T17:54:04Z</time>
  <course>0.0</course>
  <speed>0.0</speed>
  <fix>3d</fix>
</trkpt>
<trkpt lat="40.0713751" lon="-105.2297889">
  <ele>1583.0</ele>
  <time>2026-08-28T17:54:04Z</time>
  <course>246.96</course>
  <speed>0.022360679774997897</speed>
  <fix>3d</fix>
</trkpt>
<trkpt lat="40.0713749" lon="-105.229789">
  <ele>1583.0</ele>
  <time>2026-08-28T17:54:04Z</time>
  <course>0.0</course>
  <speed>0.0</speed>
  <fix>3d</fix>
</trkpt>
<trkpt lat="40.0713751" lon="-105.2297889">
  <ele>1583.01</ele>
  <time>2026-08-28T17:54:04Z</time>
  <course>246.96</course>
  <speed>0.022360679774997897</speed>
  <fix>3d</fix>
</trkpt>
<trkpt lat="40.0713749" lon="-105.229789">
  <ele>1583.0</ele>
  <time>2026-08-28T17:54:04Z</time>
  <course>0.0</course>
  <speed>0.0</speed>
  <fix>3d</fix>
</trkpt>
<trkpt lat="40.0713751" lon="-105.2297889">
  <ele>1583.0</ele>
  <time>2026-08-28T17:54:04Z</time>
  <course>246.96</course>
  <speed>0.022360679774997897</speed>
  <fix>3d</fix>
</trkpt>
<trkpt lat="40.0713749" lon="-105.229789">
  <ele>1583.0</ele>
  <time>2026-08-28T17:54:04Z</time>
  <course>0.0</course>
  <speed>0.0</speed>
  <fix>3d</fix>
</trkpt>
<trkpt lat="40.0713751" lon="-105.2297889">
  <ele>1583.0</ele>
  <time>2026-08-28T17:54:04Z</time>
  <course>246.96</course>
  <speed>0.022360679774997897</speed>
  <fix>3d</fix>
</trkpt>
<trkpt lat="40.0713749" lon="-105.229789">
  <ele>1583.0</ele>
  <time>2026-08-28T17:54:04Z</time>
  <course>0.0</course>
  <speed>0.0</speed>
  <fix>3d</fix>
</trkpt>
<trkpt lat="40.0713751" lon="-105.2297889">
  <ele>1583.0</ele>
  <time>2026-08-28T17:54:04Z</time>
  <course>246.96</course>
  <speed>0.022360679774997897</speed>
  <fix>3d</fix>
</trkpt>
<trkpt lat="40.0713749" lon="-105.229789">
  <ele>1583.0</ele>
  <time>2026-08-28T17:54:04Z</time>
  <course>0.0</course>
  <speed>0.0</speed>
  <fix>3d</fix>
</trkpt>
<trkpt lat="40.0713751" lon="-105.2297889">
  <ele>1583.0</ele>
  <time>2026-08-28T17:54:04Z</time>
  <course>246.96</course>
  <speed>0.022360679774997897</speed>
  <fix>3d</fix>
</trkpt>
<trkpt lat="40.0713749" lon="-105.229789">
  <ele>1583.0</ele>
  <time>2026-08-28T17:54:04Z</time>
  <course>0.0</course>
  <speed>0.0</speed>
  <fix>3d</fix>
</trkpt>
<trkpt lat="40.0713751" lon="-105.2297889">
  <ele>1583.0</ele>
  <time>2026-08-28T17:54:04Z</time>
  <course>246.96</course>
  <speed>0.022360679774997897</speed>
  <fix>3d</fix>
</trkpt>
<trkpt lat="40.0713749" lon="-105.229789">
  <ele>1583.0</ele>
  <time>2026-08-28T17:54:04Z</time>
  <course>0.0</course>
  <speed>0.0</speed>
  <fix>3d</fix>
</trkpt>
<trkpt lat="40.0713751" lon="-105.2297889">
  <ele>1583.01</ele>
  <time>2026-08-28T17:54:04Z</time>
  <course>246.96</course>
  <speed>0.022360679774997897</speed>
  <fix>3d</fix>
</trkpt>
<trkpt lat="40.0713749" lon="-105.229789">
  <ele>1583.0</ele>
  <time>2026-08-28T17:54:04Z</time>
  <course>0.0</course>
  <speed>0.0</speed>
  <fix>3d</fix>
</trkpt>
<trkpt lat="40.0713751" lon="-105.2297889">
  <ele>1583.01</ele>
  <time>2026-08-28T17:54:04Z</time>
  <course>246.96</course>
  <speed>0.022360679774997897</speed>
  <fix>3d</fix>
</trkpt>
<trkpt lat="40.0713749" lon="-105.229789">
  <ele>1583.0</ele>
  <time>2026-08-28T17:54:04Z</time>
  <course>0.0</course>
  <speed>0.0</speed>
  <fix>3d</fix>
</trkpt>
<trkpt lat="40.0713751" lon="-105.2297889">
  <ele>1583.01</ele>
  <time>2026-08-28T17:54:04Z</time>
  <course>246.96</course>
  <speed>0.022360679774997897</speed>
  <fix>3d</fix>
</trkpt>
<trkpt lat="40.0713749" lon="-105.229789">
  <ele>1583.0</ele>
  <time>2026-08-28T17:54:04Z</time>
  <course>0.0</course>
  <speed>0.0</speed>
  <fix>3d</fix>
</trkpt>
<trkpt lat="40.0713751" lon="-105.2297889">
  <ele>1583.01</ele>
  <time>2026-08-28T17:54:04Z</time>
  <course>246.96</course>
  <speed>0.022360679774997897</speed>
  <fix>3d</fix>
</trkpt>
<trkpt lat="40.0713749" lon="-105.229789">
  <ele>1583.0</ele>
  <time>2026-08-28T17:54:04Z</time>
  <course>0.0</course>
  <speed>0.0</speed>
  <fix>3d</fix>
</trkpt>
<trkpt lat="40.0713751" lon="-105.2297889">
  <ele>1583.0</ele>
  <time>2026-08-28T17:54:04Z</time>
  <course>246.96</course>
  <speed>0.022360679774997897</speed>
  <fix>3d</fix>
</trkpt>
<trkpt lat="40.0713749" lon="-105.229789">
  <ele>1583.0</ele>
  <time>2026-08-28T17:54:04Z</time>
  <course>0.0</course>
  <speed>0.0</speed>
  <fix>3d</fix>
</trkpt>
<trkpt lat="40.0713751" lon="-105.2297889">
  <ele>1583.0</ele>
  <time>2026-08-28T17:54:04Z</time>
  <course>246.96</course>
  <speed>0.022360679774997897</speed>
  <fix>3d</fix>
</trkpt>
<trkpt lat="40.0713749" lon="-105.229789">
  <ele>1583.0</ele>
  <time>2026-08-28T17:54:04Z</time>
  <course>0.0</course>
  <speed>0.0</speed>
  <fix>3d</fix>
</trkpt>
<trkpt lat="40.0713751" lon="-105.2297889">
  <ele>1583.0</ele>
  <time>2026-08-28T17:54:04Z</time>
  <course>246.96</course>
  <speed>0.022360679774997897</speed>
  <fix>3d</fix>
</trkpt>
<trkpt lat="40.0713749" lon="-105.229789">
  <ele>1583.0</ele>
  <time>2026-08-28T17:54:04Z</time>
  <course>0.0</course>
  <speed>0.0</speed>
  <fix>3d</fix>
</trkpt>
<trkpt lat="40.0713751" lon="-105.2297889">
  <ele>1583.0</ele>
  <time>2026-08-28T17:54:04Z</time>
  <course>246.96</course>
  <speed>0.022360679774997897</speed>
  <fix>3d</fix>
</trkpt>
<trkpt lat="40.0713749" lon="-105.229789">
  <ele>1583.0</ele>
  <time>2026-08-28T17:54:04Z</time>
  <course>0.0</course>
  <speed>0.0</speed>
  <fix>3d</fix>
</trkpt>
<trkpt lat="40.071375" lon="-105.2297889">
  <ele>1583.0</ele>
  <time>2026-08-28T17:54:04Z</time>
  <course>246.96</course>
  <speed>0.022360679774997897</speed>
  <fix>3d</fix>
</trkpt>
<trkpt lat="40.0713749" lon="-105.229789">
  <ele>1583.0</ele>
  <time>2026-08-28T17:54:04Z</time>
  <course>0.0</course>
  <speed>0.0</speed>
  <fix>3d</fix>
</trkpt>
<trkpt lat="40.0713751" lon="-105.2297889">
  <ele>1583.0</ele>
  <time>2026-08-28T17:54:04Z</time>
  <course>246.96</course>
  <speed>0.022360679774997897</speed>
  <fix>3d</fix>
</trkpt>
<trkpt lat="40.0713749" lon="-105.229789">
  <ele>1583.0</ele>
  <time>2026-08-28T17:54:04Z</time>
  <course>0.0</course>
  <speed>0.0</speed>
  <fix>3d</fix>
</trkpt>
<trkpt lat="40.071375" lon="-105.2297889">
  <ele>1583.0</ele>
  <time>2026-08-28T17:54:04Z</time>
  <course>246.96</course>
  <speed>0.022360679774997897</speed>
  <fix>3d</fix>
</trkpt>
<trkpt lat="40.0713749" lon="-105.229789">
  <ele>1583.0</ele>
  <time>2026-08-28T17:54:04Z</time>
  <course>0.0</course>
  <speed>0.0</speed>
  <fix>3d</fix>
</trkpt>
<trkpt lat="40.0713751" lon="-105.2297889">
  <ele>1582.99</ele>
  <time>2026-08-28T17:54:04Z</time>
  <course>246.96</course>
  <speed>0.022360679774997897</speed>
  <fix>3d</fix>
</trkpt>
<trkpt lat="40.0713749" lon="-105.229789">
  <ele>1583.0</ele>
  <time>2026-08-28T17:54:04Z</time>
  <course>0.0</course>
  <speed>0.0</speed>
  <fix>3d</fix>
</trkpt>
<trkpt lat="40.0713751" lon="-105.2297889">
  <ele>1582.99</ele>
  <time>2026-08-28T17:54:04Z</time>
  <course>246.96</course>
  <speed>0.022360679774997897</speed>
  <fix>3d</fix>
</trkpt>
<trkpt lat="40.0713749" lon="-105.229789">
  <ele>1583.0</ele>
  <time>2026-08-28T17:54:04Z</time>
  <course>0.0</course>
  <speed>0.0</speed>
  <fix>3d</fix>
</trkpt>
<trkpt lat="40.0713751" lon="-105.2297889">
  <ele>1582.99</ele>
  <time>2026-08-28T17:54:04Z</time>
  <course>246.96</course>
  <speed>0.022360679774997897</speed>
  <fix>3d</fix>
</trkpt>
<trkpt lat="40.0713749" lon="-105.229789">
  <ele>1583.0</ele>
  <time>2026-08-28T17:54:04Z</time>
  <course>0.0</course>
  <speed>0.0</speed>
  <fix>3d</fix>
</trkpt>
<trkpt lat="40.0713751" lon="-105.2297889">
  <ele>1582.99</ele>
  <time>2026-08-28T17:54:04Z</time>
  <course>246.96</course>
  <speed>0.022360679774997897</speed>
  <fix>3d</fix>
</trkpt>
<trkpt lat="40.0713749" lon="-105.229789">
  <ele>1583.0</ele>
  <time>2026-08-28T17:54:04Z</time>
  <course>0.0</course>
  <speed>0.0</speed>
  <fix>3d</fix>
</trkpt>
<trkpt lat="40.0713751" lon="-105.2297889">
  <ele>1583.0</ele>
  <time>2026-08-28T17:54:04Z</time>
  <course>246.96</course>
  <speed>0.022360679774997897</speed>
  <fix>3d</fix>
</trkpt>
<trkpt lat="40.0713749" lon="-105.229789">
  <ele>1583.0</ele>
  <time>2026-08-28T17:54:04Z</time>
  <course>0.0</course>
  <speed>0.0</speed>
  <fix>3d</fix>
</trkpt>
<trkpt lat="40.0713751" lon="-105.2297889">
  <ele>1583.0</ele>
  <time>2026-08-28T17:54:04Z</time>
  <course>246.96</course>
  <speed>0.022360679774997897</speed>
  <fix>3d</fix>
</trkpt>
<trkpt lat="40.0713749" lon="-105.229789">
  <ele>1583.0</ele>
  <time>2026-08-28T17:54:04Z</time>
  <course>0.0</course>
  <speed>0.0</speed>
  <fix>3d</fix>
</trkpt>
<trkpt lat="40.0713751" lon="-105.2297889">
  <ele>1583.0</ele>
  <time>2026-08-28T17:54:04Z</time>
  <course>246.96</course>
  <speed>0.022360679774997897</speed>
  <fix>3d</fix>
</trkpt>
<trkpt lat="40.0713749" lon="-105.229789">
  <ele>1583.0</ele>
  <time>2026-08-28T17:54:04Z</time>
  <course>0.0</course>
  <speed>0.0</speed>
  <fix>3d</fix>
</trkpt>
<trkpt lat="40.0713751" lon="-105.2297889">
  <ele>1583.0</ele>
  <time>2026-08-28T17:54:04Z</time>
  <course>246.96</course>
  <speed>0.022360679774997897</speed>
  <fix>3d</fix>
</trkpt>
<trkpt lat="40.0713749" lon="-105.229789">
  <ele>1583.0</ele>
  <time>2026-08-28T17:54:04Z</time>
  <course>0.0</course>
  <speed>0.0</speed>
  <fix>3d</fix>
</trkpt>
<trkpt lat="40.0713751" lon="-105.2297889">
  <ele>1583.0</ele>
  <time>2026-08-28T17:54:04Z</time>
  <course>246.96</course>
  <speed>0.022360679774997897</speed>
  <fix>3d</fix>
</trkpt>
<trkpt lat="40.0713749" lon="-105.229789">
  <ele>1583.0</ele>
  <time>2026-08-28T17:54:04Z</time>
  <course>0.0</course>
  <speed>0.0</speed>
  <fix>3d</fix>
</trkpt>
<trkpt lat="40.0713751" lon="-105.2297889">
  <ele>1583.0</ele>
  <time>2026-08-28T17:54:04Z</time>
  <course>246.96</course>
  <speed>0.022360679774997897</speed>
  <fix>3d</fix>
</trkpt>
<trkpt lat="40.0713749" lon="-105.229789">
  <ele>1583.0</ele>
  <time>2026-08-28T17:54:04Z</time>
  <course>0.0</course>
  <speed>0.0</speed>
  <fix>3d</fix>
</trkpt>
<trkpt lat="40.0713751" lon="-105.2297889">
  <ele>1583.0</ele>
  <time>2026-08-28T17:54:04Z</time>
  <course>246.96</course>
  <speed>0.022360679774997897</speed>
  <fix>3d</fix>
</trkpt>
<trkpt lat="40.0713749" lon="-105.229789">
  <ele>1583.0</ele>
  <time>2026-08-28T17:54:04Z</time>
  <course>0.0</course>
  <speed>0.0</speed>
  <fix>3d</fix>
</trkpt>
<trkpt lat="40.0713751" lon="-105.2297889">
  <ele>1582.99</ele>
  <time>2026-08-28T17:54:04Z</time>
  <course>246.96</course>
  <speed>0.022360679774997897</speed>
  <fix>3d</fix>
</trkpt>
<trkpt lat="40.0713749" lon="-105.229789">
  <ele>1583.0</ele>
  <time>2026-08-28T17:54:04Z</time>
  <course>0.0</course>
  <speed>0.0</speed>
  <fix>3d</fix>
</trkpt>
<trkpt lat="40.0713751" lon="-105.2297889">
  <ele>1582.99</ele>
  <time>2026-08-28T17:54:04Z</time>
  <course>246.96</course>
  <speed>0.022360679774997897</speed>
  <fix>3d</fix>
</trkpt>
<trkpt lat="40.0713749" lon="-105.229789">
  <ele>1583.0</ele>
  <time>2026-08-28T17:54:04Z</time>
  <course>0.0</course>
  <speed>0.0</speed>
  <fix>3d</fix>
</trkpt>
<trkpt lat="40.071375" lon="-105.2297889">
  <ele>1582.99</ele>
  <time>2026-08-28T17:54:04Z</time>
  <course>246.96</course>
  <speed>0.022360679774997897</speed>
  <fix>3d</fix>
</trkpt>
<trkpt lat="40.0713749" lon="-105.229789">
  <ele>1583.0</ele>
  <time>2026-08-28T17:54:04Z</time>
  <course>0.0</course>
  <speed>0.0</speed>
  <fix>3d</fix>
</trkpt>
<trkpt lat="40.0713751" lon="-105.2297889">
  <ele>1582.99</ele>
  <time>2026-08-28T17:54:04Z</time>
  <course>246.96</course>
  <speed>0.022360679774997897</speed>
  <fix>3d</fix>
</trkpt>
<trkpt lat="40.0713749" lon="-105.229789">
  <ele>1583.0</ele>
  <time>2026-08-28T17:54:04Z</time>
  <course>0.0</course>
  <speed>0.0</speed>
  <fix>3d</fix>
</trkpt>
<trkpt lat="40.071375" lon="-105.2297889">
  <ele>1582.98</ele>
  <time>2026-08-28T17:54:04Z</time>
  <course>246.96</course>
  <speed>0.022360679774997897</speed>
  <fix>3d</fix>
</trkpt>
<trkpt lat="40.0713749" lon="-105.229789">
  <ele>1583.0</ele>
  <time>2026-08-28T17:54:04Z</time>
  <course>0.0</course>
  <speed>0.0</speed>
  <fix>3d</fix>
</trkpt>
<trkpt lat="40.0713751" lon="-105.2297889">
  <ele>1582.98</ele>
  <time>2026-08-28T17:54:04Z</time>
  <course>246.96</course>
  <speed>0.022360679774997897</speed>
  <fix>3d</fix>
</trkpt>
<trkpt lat="40.0713749" lon="-105.229789">
  <ele>1583.0</ele>
  <time>2026-08-28T17:54:04Z</time>
  <course>0.0</course>
  <speed>0.0</speed>
  <fix>3d</fix>
</trkpt>
<trkpt lat="40.071375" lon="-105.2297889">
  <ele>1582.98</ele>
  <time>2026-08-28T17:54:04Z</time>
  <course>246.96</course>
  <speed>0.022360679774997897</speed>
  <fix>3d</fix>
</trkpt>
<trkpt lat="40.0713749" lon="-105.229789">
  <ele>1583.0</ele>
  <time>2026-08-28T17:54:04Z</time>
  <course>0.0</course>
  <speed>0.0</speed>
  <fix>3d</fix>
</trkpt>
<trkpt lat="40.0713751" lon="-105.2297889">
  <ele>1582.98</ele>
  <time>2026-08-28T17:54:04Z</time>
  <course>246.96</course>
  <speed>0.022360679774997897</speed>
  <fix>3d</fix>
</trkpt>
<trkpt lat="40.0713749" lon="-105.229789">
  <ele>1583.0</ele>
  <time>2026-08-28T17:54:04Z</time>
  <course>0.0</course>
  <speed>0.0</speed>
  <fix>3d</fix>
</trkpt>
<trkpt lat="40.071375" lon="-105.2297889">
  <ele>1582.98</ele>
  <time>2026-08-28T17:54:04Z</time>
  <course>246.96</course>
  <speed>0.022360679774997897</speed>
  <fix>3d</fix>
</trkpt>
<trkpt lat="40.0713749" lon="-105.229789">
  <ele>1583.0</ele>
  <time>2026-08-28T17:54:04Z</time>
  <course>0.0</course>
  <speed>0.0</speed>
  <fix>3d</fix>
</trkpt>
<trkpt lat="40.0713751" lon="-105.2297889">
  <ele>1582.99</ele>
  <time>2026-08-28T17:54:04Z</time>
  <course>246.96</course>
  <speed>0.022360679774997897</speed>
  <fix>3d</fix>
</trkpt>
<trkpt lat="40.0713749" lon="-105.229789">
  <ele>1583.0</ele>
  <time>2026-08-28T17:54:04Z</time>
  <course>0.0</course>
  <speed>0.0</speed>
  <fix>3d</fix>
</trkpt>
<trkpt lat="40.071375" lon="-105.2297889">
  <ele>1582.99</ele>
  <time>2026-08-28T17:54:04Z</time>
  <course>246.96</course>
  <speed>0.022360679774997897</speed>
  <fix>3d</fix>
</trkpt>
<trkpt lat="40.0713749" lon="-105.229789">
  <ele>1583.0</ele>
  <time>2026-08-28T17:54:04Z</time>
  <course>0.0</course>
  <speed>0.0</speed>
  <fix>3d</fix>
</trkpt>
<trkpt lat="40.0713751" lon="-105.2297889">
  <ele>1582.99</ele>
  <time>2026-08-28T17:54:04Z</time>
  <course>246.96</course>
  <speed>0.022360679774997897</speed>
  <fix>3d</fix>
</trkpt>
<trkpt lat="40.0713749" lon="-105.229789">
  <ele>1583.0</ele>
  <time>2026-08-28T17:54:04Z</time>
  <course>0.0</course>
  <speed>0.0</speed>
  <fix>3d</fix>
</trkpt>
<trkpt lat="40.071375" lon="-105.2297889">
  <ele>1582.98</ele>
  <time>2026-08-28T17:54:04Z</time>
  <course>246.96</course>
  <speed>0.022360679774997897</speed>
  <fix>3d</fix>
</trkpt>
<trkpt lat="40.0713749" lon="-105.229789">
  <ele>1583.0</ele>
  <time>2026-08-28T17:54:04Z</time>
  <course>0.0</course>
  <speed>0.0</speed>
  <fix>3d</fix>
</trkpt>
<trkpt lat="40.0713751" lon="-105.2297889">
  <ele>1582.98</ele>
  <time>2026-08-28T17:54:04Z</time>
  <course>246.96</course>
  <speed>0.022360679774997897</speed>
  <fix>3d</fix>
</trkpt>
<trkpt lat="40.0713749" lon="-105.229789">
  <ele>1583.0</ele>
  <time>2026-08-28T17:54:04Z</time>
  <course>0.0</course>
  <speed>0.0</speed>
  <fix>3d</fix>
</trkpt>
<trkpt lat="40.071375" lon="-105.2297889">
  <ele>1582.98</ele>
  <time>2026-08-28T17:54:04Z</time>
  <course>246.96</course>
  <speed>0.022360679774997897</speed>
  <fix>3d</fix>
</trkpt>
<trkpt lat="40.0713749" lon="-105.229789">
  <ele>1583.0</ele>
  <time>2026-08-28T17:54:04Z</time>
  <course>0.0</course>
  <speed>0.0</speed>
  <fix>3d</fix>
</trkpt>
<trkpt lat="40.0713751" lon="-105.2297889">
  <ele>1582.98</ele>
  <time>2026-08-28T17:54:04Z</time>
  <course>246.96</course>
  <speed>0.022360679774997897</speed>
  <fix>3d</fix>
</trkpt>
<trkpt lat="40.0713749" lon="-105.229789">
  <ele>1583.0</ele>
  <time>2026-08-28T17:54:04Z</time>
  <course>0.0</course>
  <speed>0.0</speed>
  <fix>3d</fix>
</trkpt>
<trkpt lat="40.0713751" lon="-105.2297889">
  <ele>1582.97</ele>
  <time>2026-08-28T17:54:04Z</time>
  <course>246.96</course>
  <speed>0.022360679774997897</speed>
  <fix>3d</fix>
</trkpt>
<trkpt lat="40.0713749" lon="-105.229789">
  <ele>1583.0</ele>
  <time>2026-08-28T17:54:04Z</time>
  <course>0.0</course>
  <speed>0.0</speed>
  <fix>3d</fix>
</trkpt>
<trkpt lat="40.0713751" lon="-105.2297889">
  <ele>1582.97</ele>
  <time>2026-08-28T17:54:04Z</time>
  <course>246.96</course>
  <speed>0.022360679774997897</speed>
  <fix>3d</fix>
</trkpt>
<trkpt lat="40.0713749" lon="-105.229789">
  <ele>1583.0</ele>
  <time>2026-08-28T17:54:04Z</time>
  <course>0.0</course>
  <speed>0.0</speed>
  <fix>3d</fix>
</trkpt>
<trkpt lat="40.0713751" lon="-105.2297889">
  <ele>1582.97</ele>
  <time>2026-08-28T17:54:04Z</time>
  <course>246.96</course>
  <speed>0.022360679774997897</speed>
  <fix>3d</fix>
</trkpt>
<trkpt lat="40.0713749" lon="-105.229789">
  <ele>1583.0</ele>
  <time>2026-08-28T17:54:04Z</time>
  <course>0.0</course>
  <speed>0.0</speed>
  <fix>3d</fix>
</trkpt>
<trkpt lat="40.0713751" lon="-105.2297889">
  <ele>1582.96</ele>
  <time>2026-08-28T17:54:04Z</time>
  <course>246.96</course>
  <speed>0.022360679774997897</speed>
  <fix>3d</fix>
</trkpt>
<trkpt lat="40.0713749" lon="-105.229789">
  <ele>1583.0</ele>
  <time>2026-08-28T17:54:04Z</time>
  <course>0.0</course>
  <speed>0.0</speed>
  <fix>3d</fix>
</trkpt>
<trkpt lat="40.0713751" lon="-105.2297889">
  <ele>1582.96</ele>
  <time>2026-08-28T17:54:04Z</time>
  <course>246.96</course>
  <speed>0.022360679774997897</speed>
  <fix>3d</fix>
</trkpt>
<trkpt lat="40.0713749" lon="-105.229789">
  <ele>1583.0</ele>
  <time>2026-08-28T17:54:04Z</time>
  <course>0.0</course>
  <speed>0.0</speed>
  <fix>3d</fix>
</trkpt>
<trkpt lat="40.0713751" lon="-105.2297889">
  <ele>1582.96</ele>
  <time>2026-08-28T17:54:04Z</time>
  <course>246.96</course>
  <speed>0.022360679774997897</speed>
  <fix>3d</fix>
</trkpt>
<trkpt lat="40.0713749" lon="-105.229789">
  <ele>1583.0</ele>
  <time>2026-08-28T17:54:04Z</time>
  <course>0.0</course>
  <speed>0.0</speed>
  <fix>3d</fix>
</trkpt>
<trkpt lat="40.071375" lon="-105.2297889">
  <ele>1582.96</ele>
  <time>2026-08-28T17:54:04Z</time>
  <course>246.96</course>
  <speed>0.022360679774997897</speed>
  <fix>3d</fix>
</trkpt>
<trkpt lat="40.0713749" lon="-105.229789">
  <ele>1583.0</ele>
  <time>2026-08-28T17:54:04Z</time>
  <course>0.0</course>
  <speed>0.0</speed>
  <fix>3d</fix>
</trkpt>
<trkpt lat="40.0713751" lon="-105.2297889">
  <ele>1582.96</ele>
  <time>2026-08-28T17:54:04Z</time>
  <course>246.96</course>
  <speed>0.022360679774997897</speed>
  <fix>3d</fix>
</trkpt>
<trkpt lat="40.0713749" lon="-105.229789">
  <ele>1583.0</ele>
  <time>2026-08-28T17:54:04Z</time>
  <course>0.0</course>
  <speed>0.0</speed>
  <fix>3d</fix>
</trkpt>
<trkpt lat="40.071375" lon="-105.2297889">
  <ele>1582.97</ele>
  <time>2026-08-28T17:54:04Z</time>
  <course>246.96</course>
  <speed>0.022360679774997897</speed>
  <fix>3d</fix>
</trkpt>
<trkpt lat="40.0713749" lon="-105.229789">
  <ele>1583.0</ele>
  <time>2026-08-28T17:54:04Z</time>
  <course>0.0</course>
  <speed>0.0</speed>
  <fix>3d</fix>
</trkpt>
<trkpt lat="40.0713751" lon="-105.2297889">
  <ele>1582.97</ele>
  <time>2026-08-28T17:54:04Z</time>
  <course>246.96</course>
  <speed>0.022360679774997897</speed>
  <fix>3d</fix>
</trkpt>
<trkpt lat="40.0713749" lon="-105.229789">
  <ele>1583.0</ele>
  <time>2026-08-28T17:54:04Z</time>
  <course>0.0</course>
  <speed>0.0</speed>
  <fix>3d</fix>
</trkpt>
<trkpt lat="40.071375" lon="-105.2297889">
  <ele>1582.97</ele>
  <time>2026-08-28T17:54:04Z</time>
  <course>246.96</course>
  <speed>0.022360679774997897</speed>
  <fix>3d</fix>
</trkpt>
<trkpt lat="40.0713749" lon="-105.229789">
  <ele>1583.0</ele>
  <time>2026-08-28T17:54:04Z</time>
  <course>0.0</course>
  <speed>0.0</speed>
  <fix>3d</fix>
</trkpt>
<trkpt lat="40.0713751" lon="-105.2297889">
  <ele>1582.97</ele>
  <time>2026-08-28T17:54:04Z</time>
  <course>246.96</course>
  <speed>0.022360679774997897</speed>
  <fix>3d</fix>
</trkpt>
<trkpt lat="40.0713749" lon="-105.229789">
  <ele>1583.0</ele>
  <time>2026-08-28T17:54:04Z</time>
  <course>0.0</course>
  <speed>0.0</speed>
  <fix>3d</fix>
</trkpt>
<trkpt lat="40.071375" lon="-105.2297889">
  <ele>1582.97</ele>
  <time>2026-08-28T17:54:04Z</time>
  <course>246.96</course>
  <speed>0.022360679774997897</speed>
  <fix>3d</fix>
</trkpt>
<trkpt lat="40.0713749" lon="-105.229789">
  <ele>1583.0</ele>
  <time>2026-08-28T17:54:04Z</time>
  <course>0.0</course>
  <speed>0.0</speed>
  <fix>3d</fix>
</trkpt>
<trkpt lat="40.0713751" lon="-105.2297889">
  <ele>1582.97</ele>
  <time>2026-08-28T17:54:04Z</time>
  <course>246.96</course>
  <speed>0.022360679774997897</speed>
  <fix>3d</fix>
</trkpt>
<trkpt lat="40.0713749" lon="-105.229789">
  <ele>1583.0</ele>
  <time>2026-08-28T17:54:04Z</time>
  <course>0.0</course>
  <speed>0.0</speed>
  <fix>3d</fix>
</trkpt>
<trkpt lat="40.071375" lon="-105.2297889">
  <ele>1582.97</ele>
  <time>2026-08-28T17:54:04Z</time>
  <course>246.96</course>
  <speed>0.022360679774997897</speed>
  <fix>3d</fix>
</trkpt>
<trkpt lat="40.0713749" lon="-105.229789">
  <ele>1583.0</ele>
  <time>2026-08-28T17:54:04Z</time>
  <course>0.0</course>
  <speed>0.0</speed>
  <fix>3d</fix>
</trkpt>
<trkpt lat="40.0713751" lon="-105.2297889">
  <ele>1582.97</ele>
  <time>2026-08-28T17:54:04Z</time>
  <course>246.96</course>
  <speed>0.022360679774997897</speed>
  <fix>3d</fix>
</trkpt>
<trkpt lat="40.0713749" lon="-105.229789">
  <ele>1583.0</ele>
  <time>2026-08-28T17:54:04Z</time>
  <course>0.0</course>
  <speed>0.0</speed>
  <fix>3d</fix>
</trkpt>
<trkpt lat="40.071375" lon="-105.2297889">
  <ele>1582.97</ele>
  <time>2026-08-28T17:54:04Z</time>
  <course>246.96</course>
  <speed>0.022360679774997897</speed>
  <fix>3d</fix>
</trkpt>
<trkpt lat="40.0713749" lon="-105.229789">
  <ele>1583.0</ele>
  <time>2026-08-28T17:54:04Z</time>
  <course>0.0</course>
  <speed>0.0</speed>
  <fix>3d</fix>
</trkpt>
<trkpt lat="40.0713751" lon="-105.2297889">
  <ele>1582.97</ele>
  <time>2026-08-28T17:54:04Z</time>
  <course>246.96</course>
  <speed>0.022360679774997897</speed>
  <fix>3d</fix>
</trkpt>
<trkpt lat="40.0713749" lon="-105.229789">
  <ele>1583.0</ele>
  <time>2026-08-28T17:54:04Z</time>
  <course>0.0</course>
  <speed>0.0</speed>
  <fix>3d</fix>
</trkpt>
<trkpt lat="40.071375" lon="-105.2297889">
  <ele>1582.97</ele>
  <time>2026-08-28T17:54:04Z</time>
  <course>246.96</course>
  <speed>0.022360679774997897</speed>
  <fix>3d</fix>
</trkpt>
<trkpt lat="40.0713749" lon="-105.229789">
  <ele>1583.0</ele>
  <time>2026-08-28T17:54:04Z</time>
  <course>0.0</course>
  <speed>0.0</speed>
  <fix>3d</fix>
</trkpt>
<trkpt lat="40.0713751" lon="-105.2297889">
  <ele>1582.97</ele>
  <time>2026-08-28T17:54:04Z</time>
  <course>246.96</course>
  <speed>0.022360679774997897</speed>
  <fix>3d</fix>
</trkpt>
<trkpt lat="40.0713749" lon="-105.229789">
  <ele>1583.0</ele>
  <time>2026-08-28T17:54:04Z</time>
  <course>0.0</course>
  <speed>0.0</speed>
  <fix>3d</fix>
</trkpt>
<trkpt lat="40.071375" lon="-105.2297889">
  <ele>1582.97</ele>
  <time>2026-08-28T17:54:04Z</time>
  <course>246.96</course>
  <speed>0.022360679774997897</speed>
  <fix>3d</fix>
</trkpt>
<trkpt lat="40.0713749" lon="-105.229789">
  <ele>1583.0</ele>
  <time>2026-08-28T17:54:04Z</time>
  <course>0.0</course>
  <speed>0.0</speed>
  <fix>3d</fix>
</trkpt>
<trkpt lat="40.0713751" lon="-105.2297889">
  <ele>1582.96</ele>
  <time>2026-08-28T17:54:04Z</time>
  <course>246.96</course>
  <speed>0.022360679774997897</speed>
  <fix>3d</fix>
</trkpt>
<trkpt lat="40.0713749" lon="-105.229789">
  <ele>1583.0</ele>
  <time>2026-08-28T17:54:04Z</time>
  <course>0.0</course>
  <speed>0.0</speed>
  <fix>3d</fix>
</trkpt>
<trkpt lat="40.0713751" lon="-105.2297889">
  <ele>1582.96</ele>
  <time>2026-08-28T17:54:04Z</time>
  <course>246.96</course>
  <speed>0.022360679774997897</speed>
  <fix>3d</fix>
</trkpt>
<trkpt lat="40.0713749" lon="-105.229789">
  <ele>1583.0</ele>
  <time>2026-08-28T17:54:04Z</time>
  <course>0.0</course>
  <speed>0.0</speed>
  <fix>3d</fix>
</trkpt>
<trkpt lat="40.0713751" lon="-105.2297889">
  <ele>1582.97</ele>
  <time>2026-08-28T17:54:04Z</time>
  <course>246.96</course>
  <speed>0.022360679774997897</speed>
  <fix>3d</fix>
</trkpt>
<trkpt lat="40.0713749" lon="-105.229789">
  <ele>1583.0</ele>
  <time>2026-08-28T17:54:04Z</time>
  <course>0.0</course>
  <speed>0.0</speed>
  <fix>3d</fix>
</trkpt>
<trkpt lat="40.0713751" lon="-105.2297889">
  <ele>1582.97</ele>
  <time>2026-08-28T17:54:04Z</time>
  <course>246.96</course>
  <speed>0.022360679774997897</speed>
  <fix>3d</fix>
</trkpt>
<trkpt lat="40.0713749" lon="-105.229789">
  <ele>1583.0</ele>
  <time>2026-08-28T17:54:04Z</time>
  <course>0.0</course>
  <speed>0.0</speed>
  <fix>3d</fix>
</trkpt>
<trkpt lat="40.0713751" lon="-105.2297889">
  <ele>1582.97</ele>
  <time>2026-08-28T17:54:04Z</time>
  <course>246.96</course>
  <speed>0.022360679774997897</speed>
  <fix>3d</fix>
</trkpt>
<trkpt lat="40.0713749" lon="-105.229789">
  <ele>1583.0</ele>
  <time>2026-08-28T17:54:04Z</time>
  <course>0.0</course>
  <speed>0.0</speed>
  <fix>3d</fix>
</trkpt>
<trkpt lat="40.071375" lon="-105.2297889">
  <ele>1582.97</ele>
  <time>2026-08-28T17:54:04Z</time>
  <course>246.96</course>
  <speed>0.022360679774997897</speed>
  <fix>3d</fix>
</trkpt>
<trkpt lat="40.0713749" lon="-105.229789">
  <ele>1583.0</ele>
  <time>2026-08-28T17:54:04Z</time>
  <course>0.0</course>
  <speed>0.0</speed>
  <fix>3d</fix>
</trkpt>
<trkpt lat="40.0713751" lon="-105.2297889">
  <ele>1582.98</ele>
  <time>2026-08-28T17:54:04Z</time>
  <course>246.96</course>
  <speed>0.022360679774997897</speed>
  <fix>3d</fix>
</trkpt>
<trkpt lat="40.0713749" lon="-105.229789">
  <ele>1583.0</ele>
  <time>2026-08-28T17:54:04Z</time>
  <course>0.0</course>
  <speed>0.0</speed>
  <fix>3d</fix>
</trkpt>
<trkpt lat="40.071375" lon="-105.2297889">
  <ele>1582.98</ele>
  <time>2026-08-28T17:54:04Z</time>
  <course>246.96</course>
  <speed>0.022360679774997897</speed>
  <fix>3d</fix>
</trkpt>
<trkpt lat="40.0713749" lon="-105.229789">
  <ele>1583.0</ele>
  <time>2026-08-28T17:54:04Z</time>
  <course>0.0</course>
  <speed>0.0</speed>
  <fix>3d</fix>
</trkpt>
<trkpt lat="40.0713751" lon="-105.2297889">
  <ele>1582.99</ele>
  <time>2026-08-28T17:54:04Z</time>
  <course>246.96</course>
  <speed>0.022360679774997897</speed>
  <fix>3d</fix>
</trkpt>
<trkpt lat="40.0713749" lon="-105.229789">
  <ele>1583.0</ele>
  <time>2026-08-28T17:54:04Z</time>
  <course>0.0</course>
  <speed>0.0</speed>
  <fix>3d</fix>
</trkpt>
<trkpt lat="40.071375" lon="-105.2297889">
  <ele>1582.99</ele>
  <time>2026-08-28T17:54:04Z</time>
  <course>246.96</course>
  <speed>0.022360679774997897</speed>
  <fix>3d</fix>
</trkpt>
<trkpt lat="40.0713749" lon="-105.229789">
  <ele>1583.0</ele>
  <time>2026-08-28T17:54:04Z</time>
  <course>0.0</course>
  <speed>0.0</speed>
  <fix>3d</fix>
</trkpt>
<trkpt lat="40.0713751" lon="-105.2297889">
  <ele>1582.99</ele>
  <time>2026-08-28T17:54:04Z</time>
  <course>246.96</course>
  <speed>0.022360679774997897</speed>
  <fix>3d</fix>
</trkpt>
<trkpt lat="40.0713749" lon="-105.229789">
  <ele>1583.0</ele>
  <time>2026-08-28T17:54:04Z</time>
  <course>0.0</course>
  <speed>0.0</speed>
  <fix>3d</fix>
</trkpt>
<trkpt lat="40.071375" lon="-105.2297889">
  <ele>1582.99</ele>
  <time>2026-08-28T17:54:04Z</time>
  <course>246.96</course>
  <speed>0.022360679774997897</speed>
  <fix>3d</fix>
</trkpt>
<trkpt lat="40.0713749" lon="-105.229789">
  <ele>1583.0</ele>
  <time>2026-08-28T17:54:04Z</time>
  <course>0.0</course>
  <speed>0.0</speed>
  <fix>3d</fix>
</trkpt>
<trkpt lat="40.0713751" lon="-105.2297889">
  <ele>1582.98</ele>
  <time>2026-08-28T17:54:04Z</time>
  <course>246.96</course>
  <speed>0.022360679774997897</speed>
  <fix>3d</fix>
</trkpt>
<trkpt lat="40.0713749" lon="-105.229789">
  <ele>1583.0</ele>
  <time>2026-08-28T17:54:04Z</time>
  <course>0.0</course>
  <speed>0.0</speed>
  <fix>3d</fix>
</trkpt>
<trkpt lat="40.071375" lon="-105.2297889">
  <ele>1582.99</ele>
  <time>2026-08-28T17:54:04Z</time>
  <course>246.96</course>
  <speed>0.022360679774997897</speed>
  <fix>3d</fix>
</trkpt>
<trkpt lat="40.0713749" lon="-105.229789">
  <ele>1583.0</ele>
  <time>2026-08-28T17:54:04Z</time>
  <course>0.0</course>
  <speed>0.0</speed>
  <fix>3d</fix>
</trkpt>
<trkpt lat="40.0713751" lon="-105.2297889">
  <ele>1582.99</ele>
  <time>2026-08-28T17:54:04Z</time>
  <course>246.96</course>
  <speed>0.022360679774997897</speed>
  <fix>3d</fix>
</trkpt>
<trkpt lat="40.0713749" lon="-105.229789">
  <ele>1583.0</ele>
  <time>2026-08-28T17:54:04Z</time>
  <course>0.0</course>
  <speed>0.0</speed>
  <fix>3d</fix>
</trkpt>
<trkpt lat="40.071375" lon="-105.2297889">
  <ele>1582.99</ele>
  <time>2026-08-28T17:54:04Z</time>
  <course>246.96</course>
  <speed>0.022360679774997897</speed>
  <fix>3d</fix>
</trkpt>
<trkpt lat="40.0713749" lon="-105.229789">
  <ele>1583.0</ele>
  <time>2026-08-28T17:54:04Z</time>
  <course>0.0</course>
  <speed>0.0</speed>
  <fix>3d</fix>
</trkpt>
<trkpt lat="40.0713751" lon="-105.2297889">
  <ele>1582.99</ele>
  <time>2026-08-28T17:54:04Z</time>
  <course>246.96</course>
  <speed>0.022360679774997897</speed>
  <fix>3d</fix>
</trkpt>
<trkpt lat="40.0713749" lon="-105.229789">
  <ele>1583.0</ele>
  <time>2026-08-28T17:54:04Z</time>
  <course>0.0</course>
  <speed>0.0</speed>
  <fix>3d</fix>
</trkpt>
<trkpt lat="40.071375" lon="-105.2297889">
  <ele>1583.0</ele>
  <time>2026-08-28T17:54:04Z</time>
  <course>246.96</course>
  <speed>0.022360679774997897</speed>
  <fix>3d</fix>
</trkpt>
<trkpt lat="40.0713749" lon="-105.229789">
  <ele>1583.0</ele>
  <time>2026-08-28T17:54:04Z</time>
  <course>0.0</course>
  <speed>0.0</speed>
  <fix>3d</fix>
</trkpt>
<trkpt lat="40.0713751" lon="-105.2297889">
  <ele>1583.0</ele>
  <time>2026-08-28T17:54:04Z</time>
  <course>246.96</course>
  <speed>0.022360679774997897</speed>
  <fix>3d</fix>
</trkpt>
<trkpt lat="40.0713749" lon="-105.229789">
  <ele>1583.0</ele>
  <time>2026-08-28T17:54:04Z</time>
  <course>0.0</course>
  <speed>0.0</speed>
  <fix>3d</fix>
</trkpt>
<trkpt lat="40.0713751" lon="-105.2297889">
  <ele>1583.0</ele>
  <time>2026-08-28T17:54:04Z</time>
  <course>246.96</course>
  <speed>0.022360679774997897</speed>
  <fix>3d</fix>
</trkpt>
<trkpt lat="40.0713749" lon="-105.229789">
  <ele>1583.0</ele>
  <time>2026-08-28T17:54:04Z</time>
  <course>0.0</course>
  <speed>0.0</speed>
  <fix>3d</fix>
</trkpt>
<trkpt lat="40.0713751" lon="-105.2297889">
  <ele>1583.0</ele>
  <time>2026-08-28T17:54:04Z</time>
  <course>246.96</course>
  <speed>0.022360679774997897</speed>
  <fix>3d</fix>
</trkpt>
<trkpt lat="40.0713749" lon="-105.229789">
  <ele>1583.0</ele>
  <time>2026-08-28T17:54:04Z</time>
  <course>0.0</course>
  <speed>0.0</speed>
  <fix>3d</fix>
</trkpt>
<trkpt lat="40.0713751" lon="-105.2297889">
  <ele>1583.0</ele>
  <time>2026-08-28T17:54:04Z</time>
  <course>246.96</course>
  <speed>0.022360679774997897</speed>
  <fix>3d</fix>
</trkpt>
<trkpt lat="40.0713749" lon="-105.229789">
  <ele>1583.0</ele>
  <time>2026-08-28T17:54:04Z</time>
  <course>0.0</course>
  <speed>0.0</speed>
  <fix>3d</fix>
</trkpt>
<trkpt lat="40.0713751" lon="-105.2297889">
  <ele>1583.01</ele>
  <time>2026-08-28T17:54:04Z</time>
  <course>246.96</course>
  <speed>0.022360679774997897</speed>
  <fix>3d</fix>
</trkpt>
<trkpt lat="40.0713749" lon="-105.229789">
  <ele>1583.0</ele>
  <time>2026-08-28T17:54:04Z</time>
  <course>0.0</course>
  <speed>0.0</speed>
  <fix>3d</fix>
</trkpt>
<trkpt lat="40.0713751" lon="-105.2297889">
  <ele>1583.01</ele>
  <time>2026-08-28T17:54:04Z</time>
  <course>246.96</course>
  <speed>0.022360679774997897</speed>
  <fix>3d</fix>
</trkpt>
<trkpt lat="40.0713749" lon="-105.229789">
  <ele>1583.0</ele>
  <time>2026-08-28T17:54:04Z</time>
  <course>0.0</course>
  <speed>0.0</speed>
  <fix>3d</fix>
</trkpt>
<trkpt lat="40.0713751" lon="-105.2297889">
  <ele>1583.01</ele>
  <time>2026-08-28T17:54:04Z</time>
  <course>246.96</course>
  <speed>0.022360679774997897</speed>
  <fix>3d</fix>
</trkpt>
<trkpt lat="40.0713749" lon="-105.229789">
  <ele>1583.0</ele>
  <time>2026-08-28T17:54:04Z</time>
  <course>0.0</course>
  <speed>0.0</speed>
  <fix>3d</fix>
</trkpt>
<trkpt lat="40.0713751" lon="-105.2297889">
  <ele>1583.02</ele>
  <time>2026-08-28T17:54:04Z</time>
  <course>246.96</course>
  <speed>0.022360679774997897</speed>
  <fix>3d</fix>
</trkpt>
<trkpt lat="40.0713749" lon="-105.229789">
  <ele>1583.0</ele>
  <time>2026-08-28T17:54:04Z</time>
  <course>0.0</course>
  <speed>0.0</speed>
  <fix>3d</fix>
</trkpt>
<trkpt lat="40.0713751" lon="-105.2297889">
  <ele>1583.02</ele>
  <time>2026-08-28T17:54:04Z</time>
  <course>246.96</course>
  <speed>0.022360679774997897</speed>
  <fix>3d</fix>
</trkpt>
<trkpt lat="40.0713749" lon="-105.229789">
  <ele>1583.0</ele>
  <time>2026-08-28T17:54:04Z</time>
  <course>0.0</course>
  <speed>0.0</speed>
  <fix>3d</fix>
</trkpt>
<trkpt lat="40.0713751" lon="-105.2297889">
  <ele>1583.02</ele>
  <time>2026-08-28T17:54:04Z</time>
  <course>246.96</course>
  <speed>0.022360679774997897</speed>
  <fix>3d</fix>
</trkpt>
<trkpt lat="40.0713749" lon="-105.229789">
  <ele>1583.0</ele>
  <time>2026-08-28T17:54:04Z</time>
  <course>0.0</course>
  <speed>0.0</speed>
  <fix>3d</fix>
</trkpt>
<trkpt lat="40.0713751" lon="-105.2297889">
  <ele>1583.02</ele>
  <time>2026-08-28T17:54:04Z</time>
  <course>246.96</course>
  <speed>0.022360679774997897</speed>
  <fix>3d</fix>
</trkpt>
<trkpt lat="40.0713749" lon="-105.229789">
  <ele>1583.0</ele>
  <time>2026-08-28T17:54:04Z</time>
  <course>0.0</course>
  <speed>0.0</speed>
  <fix>3d</fix>
</trkpt>
<trkpt lat="40.071375" lon="-105.2297889">
  <ele>1583.02</ele>
  <time>2026-08-28T17:54:04Z</time>
  <course>246.96</course>
  <speed>0.022360679774997897</speed>
  <fix>3d</fix>
</trkpt>
<trkpt lat="40.0713749" lon="-105.229789">
  <ele>1583.0</ele>
  <time>2026-08-28T17:54:04Z</time>
  <course>0.0</course>
  <speed>0.0</speed>
  <fix>3d</fix>
</trkpt>
<trkpt lat="40.0713751" lon="-105.2297889">
  <ele>1583.02</ele>
  <time>2026-08-28T17:54:04Z</time>
  <course>246.96</course>
  <speed>0.022360679774997897</speed>
  <fix>3d</fix>
</trkpt>
<trkpt lat="40.0713749" lon="-105.229789">
  <ele>1583.0</ele>
  <time>2026-08-28T17:54:04Z</time>
  <course>0.0</course>
  <speed>0.0</speed>
  <fix>3d</fix>
</trkpt>
<trkpt lat="40.071375" lon="-105.2297889">
  <ele>1583.02</ele>
  <time>2026-08-28T17:54:04Z</time>
  <course>246.96</course>
  <speed>0.022360679774997897</speed>
  <fix>3d</fix>
</trkpt>
<trkpt lat="40.0713749" lon="-105.229789">
  <ele>1583.0</ele>
  <time>2026-08-28T17:54:04Z</time>
  <course>0.0</course>
  <speed>0.0</speed>
  <fix>3d</fix>
</trkpt>
<trkpt lat="40.0713751" lon="-105.2297889">
  <ele>1583.02</ele>
  <time>2026-08-28T17:54:04Z</time>
  <course>246.96</course>
  <speed>0.022360679774997897</speed>
  <fix>3d</fix>
</trkpt>
<trkpt lat="40.0713749" lon="-105.229789">
  <ele>1583.0</ele>
  <time>2026-08-28T17:54:04Z</time>
  <course>0.0</course>
  <speed>0.0</speed>
  <fix>3d</fix>
</trkpt>
<trkpt lat="40.071375" lon="-105.2297889">
  <ele>1583.02</ele>
  <time>2026-08-28T17:54:04Z</time>
  <course>246.96</course>
  <speed>0.022360679774997897</speed>
  <fix>3d</fix>
</trkpt>
<trkpt lat="40.0713749" lon="-105.229789">
  <ele>1583.0</ele>
  <time>2026-08-28T17:54:04Z</time>
  <course>0.0</course>
  <speed>0.0</speed>
  <fix>3d</fix>
</trkpt>
<trkpt lat="40.0713751" lon="-105.2297889">
  <ele>1583.03</ele>
  <time>2026-08-28T17:54:04Z</time>
  <course>246.96</course>
  <speed>0.022360679774997897</speed>
  <fix>3d</fix>
</trkpt>
<trkpt lat="40.0713749" lon="-105.229789">
  <ele>1583.0</ele>
  <time>2026-08-28T17:54:04Z</time>
  <course>0.0</course>
  <speed>0.0</speed>
  <fix>3d</fix>
</trkpt>
<trkpt lat="40.0713751" lon="-105.2297889">
  <ele>1583.03</ele>
  <time>2026-08-28T17:54:04Z</time>
  <course>246.96</course>
  <speed>0.022360679774997897</speed>
  <fix>3d</fix>
</trkpt>
<trkpt lat="40.0713749" lon="-105.229789">
  <ele>1583.0</ele>
  <time>2026-08-28T17:54:04Z</time>
  <course>0.0</course>
  <speed>0.0</speed>
  <fix>3d</fix>
</trkpt>
<trkpt lat="40.0713751" lon="-105.2297889">
  <ele>1583.04</ele>
  <time>2026-08-28T17:54:04Z</time>
  <course>246.96</course>
  <speed>0.022360679774997897</speed>
  <fix>3d</fix>
</trkpt>
<trkpt lat="40.0713749" lon="-105.229789">
  <ele>1583.0</ele>
  <time>2026-08-28T17:54:04Z</time>
  <course>0.0</course>
  <speed>0.0</speed>
  <fix>3d</fix>
</trkpt>
<trkpt lat="40.0713751" lon="-105.2297889">
  <ele>1583.04</ele>
  <time>2026-08-28T17:54:04Z</time>
  <course>246.96</course>
  <speed>0.022360679774997897</speed>
  <fix>3d</fix>
</trkpt>
<trkpt lat="40.0713749" lon="-105.229789">
  <ele>1583.0</ele>
  <time>2026-08-28T17:54:04Z</time>
  <course>0.0</course>
  <speed>0.0</speed>
  <fix>3d</fix>
</trkpt>
<trkpt lat="40.0713751" lon="-105.2297889">
  <ele>1583.04</ele>
  <time>2026-08-28T17:54:04Z</time>
  <course>246.96</course>
  <speed>0.022360679774997897</speed>
  <fix>3d</fix>
</trkpt>
<trkpt lat="40.0713749" lon="-105.229789">
  <ele>1583.0</ele>
  <time>2026-08-28T17:54:04Z</time>
  <course>0.0</course>
  <speed>0.0</speed>
  <fix>3d</fix>
</trkpt>
<trkpt lat="40.0713751" lon="-105.2297889">
  <ele>1583.04</ele>
  <time>2026-08-28T17:54:04Z</time>
  <course>246.96</course>
  <speed>0.022360679774997897</speed>
  <fix>3d</fix>
</trkpt>
<trkpt lat="40.0713749" lon="-105.229789">
  <ele>1583.0</ele>
  <time>2026-08-28T17:54:04Z</time>
  <course>0.0</course>
  <speed>0.0</speed>
  <fix>3d</fix>
</trkpt>
<trkpt lat="40.0713751" lon="-105.2297889">
  <ele>1583.04</ele>
  <time>2026-08-28T17:54:04Z</time>
  <course>246.96</course>
  <speed>0.022360679774997897</speed>
  <fix>3d</fix>
</trkpt>
<trkpt lat="40.0713749" lon="-105.229789">
  <ele>1583.0</ele>
  <time>2026-08-28T17:54:04Z</time>
  <course>0.0</course>
  <speed>0.0</speed>
  <fix>3d</fix>
</trkpt>
<trkpt lat="40.0713751" lon="-105.2297889">
  <ele>1583.04</ele>
  <time>2026-08-28T17:54:04Z</time>
  <course>246.96</course>
  <speed>0.022360679774997897</speed>
  <fix>3d</fix>
</trkpt>
<trkpt lat="40.0713749" lon="-105.229789">
  <ele>1583.0</ele>
  <time>2026-08-28T17:54:04Z</time>
  <course>0.0</course>
  <speed>0.0</speed>
  <fix>3d</fix>
</trkpt>
<trkpt lat="40.0713751" lon="-105.2297889">
  <ele>1583.04</ele>
  <time>2026-08-28T17:54:04Z</time>
  <course>246.96</course>
  <speed>0.022360679774997897</speed>
  <fix>3d</fix>
</trkpt>
<trkpt lat="40.0713749" lon="-105.229789">
  <ele>1583.0</ele>
  <time>2026-08-28T17:54:04Z</time>
  <course>0.0</course>
  <speed>0.0</speed>
  <fix>3d</fix>
</trkpt>
<trkpt lat="40.0713751" lon="-105.2297889">
  <ele>1583.03</ele>
  <time>2026-08-28T17:54:04Z</time>
  <course>246.96</course>
  <speed>0.022360679774997897</speed>
  <fix>3d</fix>
</trkpt>
<trkpt lat="40.0713749" lon="-105.229789">
  <ele>1583.0</ele>
  <time>2026-08-28T17:54:04Z</time>
  <course>0.0</course>
  <speed>0.0</speed>
  <fix>3d</fix>
</trkpt>
<trkpt lat="40.0713751" lon="-105.2297889">
  <ele>1583.03</ele>
  <time>2026-08-28T17:54:04Z</time>
  <course>246.96</course>
  <speed>0.022360679774997897</speed>
  <fix>3d</fix>
</trkpt>
<trkpt lat="40.0713749" lon="-105.229789">
  <ele>1583.0</ele>
  <time>2026-08-28T17:54:04Z</time>
  <course>0.0</course>
  <speed>0.0</speed>
  <fix>3d</fix>
</trkpt>
<trkpt lat="40.0713751" lon="-105.2297889">
  <ele>1583.03</ele>
  <time>2026-08-28T17:54:04Z</time>
  <course>246.96</course>
  <speed>0.022360679774997897</speed>
  <fix>3d</fix>
</trkpt>
<trkpt lat="40.0713749" lon="-105.229789">
  <ele>1583.0</ele>
  <time>2026-08-28T17:54:04Z</time>
  <course>0.0</course>
  <speed>0.0</speed>
  <fix>3d</fix>
</trkpt>
<trkpt lat="40.0713751" lon="-105.2297889">
  <ele>1583.02</ele>
  <time>2026-08-28T17:54:04Z</time>
  <course>246.96</course>
  <speed>0.022360679774997897</speed>
  <fix>3d</fix>
</trkpt>
<trkpt lat="40.0713749" lon="-105.229789">
  <ele>1583.0</ele>
  <time>2026-08-28T17:54:04Z</time>
  <course>0.0</course>
  <speed>0.0</speed>
  <fix>3d</fix>
</trkpt>
<trkpt lat="40.0713751" lon="-105.2297889">
  <ele>1583.02</ele>
  <time>2026-08-28T17:54:04Z</time>
  <course>246.96</course>
  <speed>0.022360679774997897</speed>
  <fix>3d</fix>
</trkpt>
<trkpt lat="40.0713749" lon="-105.229789">
  <ele>1583.0</ele>
  <time>2026-08-28T17:54:04Z</time>
  <course>0.0</course>
  <speed>0.0</speed>
  <fix>3d</fix>
</trkpt>
<trkpt lat="40.0713751" lon="-105.2297889">
  <ele>1583.02</ele>
  <time>2026-08-28T17:54:04Z</time>
  <course>246.96</course>
  <speed>0.022360679774997897</speed>
  <fix>3d</fix>
</trkpt>
<trkpt lat="40.0713749" lon="-105.229789">
  <ele>1583.0</ele>
  <time>2026-08-28T17:54:04Z</time>
  <course>0.0</course>
  <speed>0.0</speed>
  <fix>3d</fix>
</trkpt>
<trkpt lat="40.0713751" lon="-105.2297889">
  <ele>1583.02</ele>
  <time>2026-08-28T17:54:04Z</time>
  <course>246.96</course>
  <speed>0.022360679774997897</speed>
  <fix>3d</fix>
</trkpt>
<trkpt lat="40.0713749" lon="-105.229789">
  <ele>1583.0</ele>
  <time>2026-08-28T17:54:04Z</time>
  <course>0.0</course>
  <speed>0.0</speed>
  <fix>3d</fix>
</trkpt>
<trkpt lat="40.0713751" lon="-105.2297889">
  <ele>1583.02</ele>
  <time>2026-08-28T17:54:04Z</time>
  <course>246.96</course>
  <speed>0.022360679774997897</speed>
  <fix>3d</fix>
</trkpt>
<trkpt lat="40.0713749" lon="-105.229789">
  <ele>1583.0</ele>
  <time>2026-08-28T17:54:04Z</time>
  <course>0.0</course>
  <speed>0.0</speed>
  <fix>3d</fix>
</trkpt>
<trkpt lat="40.0713751" lon="-105.2297889">
  <ele>1583.02</ele>
  <time>2026-08-28T17:54:04Z</time>
  <course>246.96</course>
  <speed>0.022360679774997897</speed>
  <fix>3d</fix>
</trkpt>
<trkpt lat="40.0713749" lon="-105.229789">
  <ele>1583.0</ele>
  <time>2026-08-28T17:54:04Z</time>
  <course>0.0</course>
  <speed>0.0</speed>
  <fix>3d</fix>
</trkpt>
<trkpt lat="40.0713751" lon="-105.2297889">
  <ele>1583.03</ele>
  <time>2026-08-28T17:54:04Z</time>
  <course>246.96</course>
  <speed>0.022360679774997897</speed>
  <fix>3d</fix>
</trkpt>
<trkpt lat="40.0713749" lon="-105.229789">
  <ele>1583.0</ele>
  <time>2026-08-28T17:54:04Z</time>
  <course>0.0</course>
  <speed>0.0</speed>
  <fix>3d</fix>
</trkpt>
<trkpt lat="40.0713751" lon="-105.2297889">
  <ele>1583.03</ele>
  <time>2026-08-28T17:54:04Z</time>
  <course>246.96</course>
  <speed>0.022360679774997897</speed>
  <fix>3d</fix>
</trkpt>
<trkpt lat="40.0713749" lon="-105.229789">
  <ele>1583.0</ele>
  <time>2026-08-28T17:54:04Z</time>
  <course>0.0</course>
  <speed>0.0</speed>
  <fix>3d</fix>
</trkpt>
<trkpt lat="40.0713751" lon="-105.2297889">
  <ele>1583.03</ele>
  <time>2026-08-28T17:54:04Z</time>
  <course>246.96</course>
  <speed>0.022360679774997897</speed>
  <fix>3d</fix>
</trkpt>
<trkpt lat="40.0713749" lon="-105.229789">
  <ele>1583.0</ele>
  <time>2026-08-28T17:54:04Z</time>
  <course>0.0</course>
  <speed>0.0</speed>
  <fix>3d</fix>
</trkpt>
<trkpt lat="40.0713751" lon="-105.2297889">
  <ele>1583.03</ele>
  <time>2026-08-28T17:54:04Z</time>
  <course>246.96</course>
  <speed>0.022360679774997897</speed>
  <fix>3d</fix>
</trkpt>
<trkpt lat="40.0713749" lon="-105.229789">
  <ele>1583.0</ele>
  <time>2026-08-28T17:54:04Z</time>
  <course>0.0</course>
  <speed>0.0</speed>
  <fix>3d</fix>
</trkpt>
<trkpt lat="40.0713751" lon="-105.2297889">
  <ele>1583.03</ele>
  <time>2026-08-28T17:54:04Z</time>
  <course>246.96</course>
  <speed>0.022360679774997897</speed>
  <fix>3d</fix>
</trkpt>
<trkpt lat="40.0713749" lon="-105.229789">
  <ele>1583.0</ele>
  <time>2026-08-28T17:54:04Z</time>
  <course>0.0</course>
  <speed>0.0</speed>
  <fix>3d</fix>
</trkpt>
<trkpt lat="40.0713751" lon="-105.2297889">
  <ele>1583.04</ele>
  <time>2026-08-28T17:54:04Z</time>
  <course>246.96</course>
  <speed>0.022360679774997897</speed>
  <fix>3d</fix>
</trkpt>
<trkpt lat="40.0713749" lon="-105.229789">
  <ele>1583.0</ele>
  <time>2026-08-28T17:54:04Z</time>
  <course>0.0</course>
  <speed>0.0</speed>
  <fix>3d</fix>
</trkpt>
<trkpt lat="40.0713751" lon="-105.2297889">
  <ele>1583.04</ele>
  <time>2026-08-28T17:54:04Z</time>
  <course>246.96</course>
  <speed>0.022360679774997897</speed>
  <fix>3d</fix>
</trkpt>
<trkpt lat="40.0713749" lon="-105.229789">
  <ele>1583.0</ele>
  <time>2026-08-28T17:54:04Z</time>
  <course>0.0</course>
  <speed>0.0</speed>
  <fix>3d</fix>
</trkpt>
<trkpt lat="40.0713751" lon="-105.2297889">
  <ele>1583.04</ele>
  <time>2026-08-28T17:54:04Z</time>
  <course>246.96</course>
  <speed>0.022360679774997897</speed>
  <fix>3d</fix>
</trkpt>
<trkpt lat="40.0713749" lon="-105.229789">
  <ele>1583.0</ele>
  <time>2026-08-28T17:54:04Z</time>
  <course>0.0</course>
  <speed>0.0</speed>
  <fix>3d</fix>
</trkpt>
<trkpt lat="40.0713751" lon="-105.2297889">
  <ele>1583.04</ele>
  <time>2026-08-28T17:54:04Z</time>
  <course>246.96</course>
  <speed>0.022360679774997897</speed>
  <fix>3d</fix>
</trkpt>
<trkpt lat="40.0713749" lon="-105.229789">
  <ele>1583.0</ele>
  <time>2026-08-28T17:54:04Z</time>
  <course>0.0</course>
  <speed>0.0</speed>
  <fix>3d</fix>
</trkpt>
<trkpt lat="40.0713751" lon="-105.2297889">
  <ele>1583.04</ele>
  <time>2026-08-28T17:54:04Z</time>
  <course>246.96</course>
  <speed>0.022360679774997897</speed>
  <fix>3d</fix>
</trkpt>
<trkpt lat="40.0713749" lon="-105.229789">
  <ele>1583.0</ele>
  <time>2026-08-28T17:54:04Z</time>
  <course>0.0</course>
  <speed>0.0</speed>
  <fix>3d</fix>
</trkpt>
<trkpt lat="40.0713751" lon="-105.2297889">
  <ele>1583.03</ele>
  <time>2026-08-28T17:54:04Z</time>
  <course>246.96</course>
  <speed>0.022360679774997897</speed>
  <fix>3d</fix>
</trkpt>
<trkpt lat="40.0713749" lon="-105.229789">
  <ele>1583.0</ele>
  <time>2026-08-28T17:54:04Z</time>
  <course>0.0</course>
  <speed>0.0</speed>
  <fix>3d</fix>
</trkpt>
<trkpt lat="40.0713751" lon="-105.2297889">
  <ele>1583.03</ele>
  <time>2026-08-28T17:54:04Z</time>
  <course>246.96</course>
  <speed>0.022360679774997897</speed>
  <fix>3d</fix>
</trkpt>
<trkpt lat="40.0713749" lon="-105.229789">
  <ele>1583.0</ele>
  <time>2026-08-28T17:54:04Z</time>
  <course>0.0</course>
  <speed>0.0</speed>
  <fix>3d</fix>
</trkpt>
<trkpt lat="40.0713751" lon="-105.2297889">
  <ele>1583.03</ele>
  <time>2026-08-28T17:54:04Z</time>
  <course>246.96</course>
  <speed>0.022360679774997897</speed>
  <fix>3d</fix>
</trkpt>
<trkpt lat="40.0713749" lon="-105.229789">
  <ele>1583.0</ele>
  <time>2026-08-28T17:54:04Z</time>
  <course>0.0</course>
  <speed>0.0</speed>
  <fix>3d</fix>
</trkpt>
<trkpt lat="40.0713751" lon="-105.2297889">
  <ele>1583.03</ele>
  <time>2026-08-28T17:54:04Z</time>
  <course>246.96</course>
  <speed>0.022360679774997897</speed>
  <fix>3d</fix>
</trkpt>
<trkpt lat="40.0713749" lon="-105.229789">
  <ele>1583.0</ele>
  <time>2026-08-28T17:54:04Z</time>
  <course>0.0</course>
  <speed>0.0</speed>
  <fix>3d</fix>
</trkpt>
<trkpt lat="40.0713751" lon="-105.2297889">
  <ele>1583.03</ele>
  <time>2026-08-28T17:54:04Z</time>
  <course>246.96</course>
  <speed>0.022360679774997897</speed>
  <fix>3d</fix>
</trkpt>
<trkpt lat="40.0713749" lon="-105.229789">
  <ele>1583.0</ele>
  <time>2026-08-28T17:54:04Z</time>
  <course>0.0</course>
  <speed>0.0</speed>
  <fix>3d</fix>
</trkpt>
<trkpt lat="40.0713751" lon="-105.2297889">
  <ele>1583.03</ele>
  <time>2026-08-28T17:54:04Z</time>
  <course>246.96</course>
  <speed>0.022360679774997897</speed>
  <fix>3d</fix>
</trkpt>
<trkpt lat="40.0713749" lon="-105.229789">
  <ele>1583.0</ele>
  <time>2026-08-28T17:54:04Z</time>
  <course>0.0</course>
  <speed>0.0</speed>
  <fix>3d</fix>
</trkpt>
<trkpt lat="40.0713751" lon="-105.2297889">
  <ele>1583.04</ele>
  <time>2026-08-28T17:54:04Z</time>
  <course>246.96</course>
  <speed>0.022360679774997897</speed>
  <fix>3d</fix>
</trkpt>
<trkpt lat="40.0713749" lon="-105.229789">
  <ele>1583.0</ele>
  <time>2026-08-28T17:54:04Z</time>
  <course>0.0</course>
  <speed>0.0</speed>
  <fix>3d</fix>
</trkpt>
<trkpt lat="40.071375" lon="-105.2297889">
  <ele>1583.04</ele>
  <time>2026-08-28T17:54:04Z</time>
  <course>246.96</course>
  <speed>0.02</speed>
  <fix>3d</fix>
</trkpt>
<trkpt lat="40.0713749" lon="-105.229789">
  <ele>1583.0</ele>
  <time>2026-08-28T17:54:04Z</time>
  <course>0.0</course>
  <speed>0.0</speed>
  <fix>3d</fix>
</trkpt>
<trkpt lat="40.0713751" lon="-105.2297889">
  <ele>1583.04</ele>
  <time>2026-08-28T17:54:04Z</time>
  <course>246.96</course>
  <speed>0.02</speed>
  <fix>3d</fix>
</trkpt>
<trkpt lat="40.0713749" lon="-105.229789">
  <ele>1583.0</ele>
  <time>2026-08-28T17:54:04Z</time>
  <course>0.0</course>
  <speed>0.0</speed>
  <fix>3d</fix>
</trkpt>
<trkpt lat="40.071375" lon="-105.2297889">
  <ele>1583.04</ele>
  <time>2026-08-28T17:54:04Z</time>
  <course>246.96</course>
  <speed>0.02</speed>
  <fix>3d</fix>
</trkpt>
<trkpt lat="40.0713749" lon="-105.229789">
  <ele>1583.0</ele>
  <time>2026-08-28T17:54:04Z</time>
  <course>0.0</course>
  <speed>0.0</speed>
  <fix>3d</fix>
</trkpt>
<trkpt lat="40.071375" lon="-105.2297889">
  <ele>1583.04</ele>
  <time>2026-08-28T17:54:04Z</time>
  <course>246.96</course>
  <speed>0.02</speed>
  <fix>3d</fix>
</trkpt>
<trkpt lat="40.0713749" lon="-105.229789">
  <ele>1583.0</ele>
  <time>2026-08-28T17:54:04Z</time>
  <course>0.0</course>
  <speed>0.0</speed>
  <fix>3d</fix>
</trkpt>
<trkpt lat="40.071375" lon="-105.2297889">
  <ele>1583.05</ele>
  <time>2026-08-28T17:54:04Z</time>
  <course>246.96</course>
  <speed>0.02</speed>
  <fix>3d</fix>
</trkpt>
<trkpt lat="40.0713749" lon="-105.229789">
  <ele>1583.0</ele>
  <time>2026-08-28T17:54:04Z</time>
  <course>0.0</course>
  <speed>0.0</speed>
  <fix>3d</fix>
</trkpt>
<trkpt lat="40.071375" lon="-105.2297889">
  <ele>1583.05</ele>
  <time>2026-08-28T17:54:04Z</time>
  <course>246.96</course>
  <speed>0.02</speed>
  <fix>3d</fix>
</trkpt>
<trkpt lat="40.0713749" lon="-105.229789">
  <ele>1583.0</ele>
  <time>2026-08-28T17:54:04Z</time>
  <course>0.0</course>
  <speed>0.0</speed>
  <fix>3d</fix>
</trkpt>
<trkpt lat="40.071375" lon="-105.2297889">
  <ele>1583.05</ele>
  <time>2026-08-28T17:54:04Z</time>
  <course>246.96</course>
  <speed>0.02</speed>
  <fix>3d</fix>
</trkpt>
<trkpt lat="40.0713749" lon="-105.229789">
  <ele>1583.0</ele>
  <time>2026-08-28T17:54:04Z</time>
  <course>0.0</course>
  <speed>0.0</speed>
  <fix>3d</fix>
</trkpt>
<trkpt lat="40.071375" lon="-105.2297889">
  <ele>1583.05</ele>
  <time>2026-08-28T17:54:04Z</time>
  <course>246.96</course>
  <speed>0.02</speed>
  <fix>3d</fix>
</trkpt>
<trkpt lat="40.0713749" lon="-105.229789">
  <ele>1583.0</ele>
  <time>2026-08-28T17:54:04Z</time>
  <course>0.0</course>
  <speed>0.0</speed>
  <fix>3d</fix>
</trkpt>
<trkpt lat="40.071375" lon="-105.2297889">
  <ele>1583.05</ele>
  <time>2026-08-28T17:54:04Z</time>
  <course>246.95</course>
  <speed>0.02</speed>
  <fix>3d</fix>
</trkpt>
<trkpt lat="40.0713749" lon="-105.229789">
  <ele>1583.0</ele>
  <time>2026-08-28T17:54:04Z</time>
  <course>0.0</course>
  <speed>0.0</speed>
  <fix>3d</fix>
</trkpt>
<trkpt lat="40.071375" lon="-105.2297889">
  <ele>1583.04</ele>
  <time>2026-08-28T17:54:04Z</time>
  <course>246.95</course>
  <speed>0.02</speed>
  <fix>3d</fix>
</trkpt>
<trkpt lat="40.0713749" lon="-105.229789">
  <ele>1583.0</ele>
  <time>2026-08-28T17:54:04Z</time>
  <course>0.0</course>
  <speed>0.0</speed>
  <fix>3d</fix>
</trkpt>
<trkpt lat="40.071375" lon="-105.2297889">
  <ele>1583.04</ele>
  <time>2026-08-28T17:54:04Z</time>
  <course>246.95</course>
  <speed>0.02</speed>
  <fix>3d</fix>
</trkpt>
<trkpt lat="40.0713749" lon="-105.229789">
  <ele>1583.0</ele>
  <time>2026-08-28T17:54:04Z</time>
  <course>0.0</course>
  <speed>0.0</speed>
  <fix>3d</fix>
</trkpt>
<trkpt lat="40.071375" lon="-105.2297889">
  <ele>1583.04</ele>
  <time>2026-08-28T17:54:04Z</time>
  <course>246.95</course>
  <speed>0.02</speed>
  <fix>3d</fix>
</trkpt>
<trkpt lat="40.0713749" lon="-105.229789">
  <ele>1583.0</ele>
  <time>2026-08-28T17:54:04Z</time>
  <course>0.0</course>
  <speed>0.0</speed>
  <fix>3d</fix>
</trkpt>
<trkpt lat="40.071375" lon="-105.2297889">
  <ele>1583.03</ele>
  <time>2026-08-28T17:54:04Z</time>
  <course>246.95</course>
  <speed>0.02</speed>
  <fix>3d</fix>
</trkpt>
<trkpt lat="40.0713749" lon="-105.229789">
  <ele>1583.0</ele>
  <time>2026-08-28T17:54:04Z</time>
  <course>0.0</course>
  <speed>0.0</speed>
  <fix>3d</fix>
</trkpt>
<trkpt lat="40.071375" lon="-105.2297889">
  <ele>1583.03</ele>
  <time>2026-08-28T17:54:04Z</time>
  <course>246.95</course>
  <speed>0.02</speed>
  <fix>3d</fix>
</trkpt>
<trkpt lat="40.0713749" lon="-105.229789">
  <ele>1583.0</ele>
  <time>2026-08-28T17:54:04Z</time>
  <course>0.0</course>
  <speed>0.0</speed>
  <fix>3d</fix>
</trkpt>
<trkpt lat="40.071375" lon="-105.2297889">
  <ele>1583.03</ele>
  <time>2026-08-28T17:54:04Z</time>
  <course>246.95</course>
  <speed>0.02</speed>
  <fix>3d</fix>
</trkpt>
<trkpt lat="40.0713749" lon="-105.229789">
  <ele>1583.0</ele>
  <time>2026-08-28T17:54:04Z</time>
  <course>0.0</course>
  <speed>0.0</speed>
  <fix>3d</fix>
</trkpt>
<trkpt lat="40.071375" lon="-105.2297889">
  <ele>1583.03</ele>
  <time>2026-08-28T17:54:04Z</time>
  <course>246.95</course>
  <speed>0.02</speed>
  <fix>3d</fix>
</trkpt>
<trkpt lat="40.0713749" lon="-105.229789">
  <ele>1583.0</ele>
  <time>2026-08-28T17:54:04Z</time>
  <course>0.0</course>
  <speed>0.0</speed>
  <fix>3d</fix>
</trkpt>
<trkpt lat="40.071375" lon="-105.2297889">
  <ele>1583.03</ele>
  <time>2026-08-28T17:54:04Z</time>
  <course>246.95</course>
  <speed>0.02</speed>
  <fix>3d</fix>
</trkpt>
<trkpt lat="40.0713749" lon="-105.229789">
  <ele>1583.0</ele>
  <time>2026-08-28T17:54:04Z</time>
  <course>0.0</course>
  <speed>0.0</speed>
  <fix>3d</fix>
</trkpt>
<trkpt lat="40.071375" lon="-105.2297889">
  <ele>1583.03</ele>
  <time>2026-08-28T17:54:04Z</time>
  <course>246.95</course>
  <speed>0.02</speed>
  <fix>3d</fix>
</trkpt>
<trkpt lat="40.0713749" lon="-105.229789">
  <ele>1583.0</ele>
  <time>2026-08-28T17:54:04Z</time>
  <course>0.0</course>
  <speed>0.0</speed>
  <fix>3d</fix>
</trkpt>
<trkpt lat="40.071375" lon="-105.2297889">
  <ele>1583.03</ele>
  <time>2026-08-28T17:54:04Z</time>
  <course>246.95</course>
  <speed>0.02</speed>
  <fix>3d</fix>
</trkpt>
<trkpt lat="40.0713749" lon="-105.229789">
  <ele>1583.0</ele>
  <time>2026-08-28T17:54:04Z</time>
  <course>0.0</course>
  <speed>0.0</speed>
  <fix>3d</fix>
</trkpt>
<trkpt lat="40.071375" lon="-105.2297889">
  <ele>1583.03</ele>
  <time>2026-08-28T17:54:04Z</time>
  <course>246.95</course>
  <speed>0.02</speed>
  <fix>3d</fix>
</trkpt>
<trkpt lat="40.0713749" lon="-105.229789">
  <ele>1583.0</ele>
  <time>2026-08-28T17:54:04Z</time>
  <course>0.0</course>
  <speed>0.0</speed>
  <fix>3d</fix>
</trkpt>
<trkpt lat="40.071375" lon="-105.2297889">
  <ele>1583.03</ele>
  <time>2026-08-28T17:54:04Z</time>
  <course>246.95</course>
  <speed>0.02</speed>
  <fix>3d</fix>
</trkpt>
<trkpt lat="40.0713749" lon="-105.229789">
  <ele>1583.0</ele>
  <time>2026-08-28T17:54:04Z</time>
  <course>0.0</course>
  <speed>0.0</speed>
  <fix>3d</fix>
</trkpt>
<trkpt lat="40.071375" lon="-105.2297889">
  <ele>1583.03</ele>
  <time>2026-08-28T17:54:04Z</time>
  <course>246.95</course>
  <speed>0.02</speed>
  <fix>3d</fix>
</trkpt>
<trkpt lat="40.0713749" lon="-105.229789">
  <ele>1583.0</ele>
  <time>2026-08-28T17:54:04Z</time>
  <course>0.0</course>
  <speed>0.0</speed>
  <fix>3d</fix>
</trkpt>
<trkpt lat="40.071375" lon="-105.2297889">
  <ele>1583.03</ele>
  <time>2026-08-28T17:54:04Z</time>
  <course>246.95</course>
  <speed>0.02</speed>
  <fix>3d</fix>
</trkpt>
<trkpt lat="40.0713749" lon="-105.229789">
  <ele>1583.0</ele>
  <time>2026-08-28T17:54:04Z</time>
  <course>0.0</course>
  <speed>0.0</speed>
  <fix>3d</fix>
</trkpt>
<trkpt lat="40.071375" lon="-105.2297889">
  <ele>1583.03</ele>
  <time>2026-08-28T17:54:04Z</time>
  <course>246.94</course>
  <speed>0.02</speed>
  <fix>3d</fix>
</trkpt>
<trkpt lat="40.0713749" lon="-105.229789">
  <ele>1583.0</ele>
  <time>2026-08-28T17:54:04Z</time>
  <course>0.0</course>
  <speed>0.0</speed>
  <fix>3d</fix>
</trkpt>
<trkpt lat="40.071375" lon="-105.2297889">
  <ele>1583.02</ele>
  <time>2026-08-28T17:54:04Z</time>
  <course>246.94</course>
  <speed>0.02</speed>
  <fix>3d</fix>
</trkpt>
<trkpt lat="40.0713749" lon="-105.229789">
  <ele>1583.0</ele>
  <time>2026-08-28T17:54:04Z</time>
  <course>0.0</course>
  <speed>0.0</speed>
  <fix>3d</fix>
</trkpt>
<trkpt lat="40.071375" lon="-105.2297889">
  <ele>1583.02</ele>
  <time>2026-08-28T17:54:04Z</time>
  <course>246.94</course>
  <speed>0.02</speed>
  <fix>3d</fix>
</trkpt>
<trkpt lat="40.0713749" lon="-105.229789">
  <ele>1583.0</ele>
  <time>2026-08-28T17:54:04Z</time>
  <course>0.0</course>
  <speed>0.0</speed>
  <fix>3d</fix>
</trkpt>
<trkpt lat="40.071375" lon="-105.2297889">
  <ele>1583.02</ele>
  <time>2026-08-28T17:54:04Z</time>
  <course>246.94</course>
  <speed>0.01</speed>
  <fix>3d</fix>
</trkpt>
<trkpt lat="40.0713749" lon="-105.229789">
  <ele>1583.0</ele>
  <time>2026-08-28T17:54:04Z</time>
  <course>0.0</course>
  <speed>0.0</speed>
  <fix>3d</fix>
</trkpt>
<trkpt lat="40.071375" lon="-105.2297889">
  <ele>1583.02</ele>
  <time>2026-08-28T17:54:04Z</time>
  <course>246.94</course>
  <speed>0.01</speed>
  <fix>3d</fix>
</trkpt>
<trkpt lat="40.0713749" lon="-105.229789">
  <ele>1583.0</ele>
  <time>2026-08-28T17:54:04Z</time>
  <course>0.0</course>
  <speed>0.0</speed>
  <fix>3d</fix>
</trkpt>
<trkpt lat="40.071375" lon="-105.2297889">
  <ele>1583.02</ele>
  <time>2026-08-28T17:54:04Z</time>
  <course>246.94</course>
  <speed>0.01</speed>
  <fix>3d</fix>
</trkpt>
<trkpt lat="40.0713749" lon="-105.229789">
  <ele>1583.0</ele>
  <time>2026-08-28T17:54:04Z</time>
  <course>0.0</course>
  <speed>0.0</speed>
  <fix>3d</fix>
</trkpt>
<trkpt lat="40.071375" lon="-105.2297889">
  <ele>1583.01</ele>
  <time>2026-08-28T17:54:04Z</time>
  <course>246.94</course>
  <speed>0.01</speed>
  <fix>3d</fix>
</trkpt>
<trkpt lat="40.0713749" lon="-105.229789">
  <ele>1583.0</ele>
  <time>2026-08-28T17:54:04Z</time>
  <course>0.0</course>
  <speed>0.0</speed>
  <fix>3d</fix>
</trkpt>
<trkpt lat="40.071375" lon="-105.2297889">
  <ele>1583.01</ele>
  <time>2026-08-28T17:54:04Z</time>
  <course>246.94</course>
  <speed>0.01</speed>
  <fix>3d</fix>
</trkpt>
<trkpt lat="40.0713749" lon="-105.229789">
  <ele>1583.0</ele>
  <time>2026-08-28T17:54:04Z</time>
  <course>0.0</course>
  <speed>0.0</speed>
  <fix>3d</fix>
</trkpt>
<trkpt lat="40.071375" lon="-105.2297889">
  <ele>1583.01</ele>
  <time>2026-08-28T17:54:04Z</time>
  <course>246.94</course>
  <speed>0.01</speed>
  <fix>3d</fix>
</trkpt>
<trkpt lat="40.0713749" lon="-105.229789">
  <ele>1583.0</ele>
  <time>2026-08-28T17:54:04Z</time>
  <course>0.0</course>
  <speed>0.0</speed>
  <fix>3d</fix>
</trkpt>
<trkpt lat="40.071375" lon="-105.2297889">
  <ele>1583.01</ele>
  <time>2026-08-28T17:54:04Z</time>
  <course>246.94</course>
  <speed>0.01</speed>
  <fix>3d</fix>
</trkpt>
<trkpt lat="40.0713749" lon="-105.229789">
  <ele>1583.0</ele>
  <time>2026-08-28T17:54:04Z</time>
  <course>0.0</course>
  <speed>0.0</speed>
  <fix>3d</fix>
</trkpt>
<trkpt lat="40.071375" lon="-105.2297889">
  <ele>1583.0</ele>
  <time>2026-08-28T17:54:04Z</time>
  <course>246.94</course>
  <speed>0.01</speed>
  <fix>3d</fix>
</trkpt>
<trkpt lat="40.0713749" lon="-105.229789">
  <ele>1583.0</ele>
  <time>2026-08-28T17:54:04Z</time>
  <course>0.0</course>
  <speed>0.0</speed>
  <fix>3d</fix>
</trkpt>
<trkpt lat="40.071375" lon="-105.2297889">
  <ele>1583.0</ele>
  <time>2026-08-28T17:54:04Z</time>
  <course>246.93</course>
  <speed>0.01</speed>
  <fix>3d</fix>
</trkpt>
<trkpt lat="40.0713749" lon="-105.229789">
  <ele>1583.0</ele>
  <time>2026-08-28T17:54:04Z</time>
  <course>0.0</course>
  <speed>0.0</speed>
  <fix>3d</fix>
</trkpt>
<trkpt lat="40.071375" lon="-105.2297889">
  <ele>1583.0</ele>
  <time>2026-08-28T17:54:04Z</time>
  <course>246.93</course>
  <speed>0.01</speed>
  <fix>3d</fix>
</trkpt>
<trkpt lat="40.0713749" lon="-105.229789">
  <ele>1583.0</ele>
  <time>2026-08-28T17:54:04Z</time>
  <course>0.0</course>
  <speed>0.0</speed>
  <fix>3d</fix>
</trkpt>
<trkpt lat="40.071375" lon="-105.2297889">
  <ele>1582.99</ele>
  <time>2026-08-28T17:54:04Z</time>
  <course>246.93</course>
  <speed>0.01</speed>
  <fix>3d</fix>
</trkpt>
<trkpt lat="40.0713749" lon="-105.229789">
  <ele>1583.0</ele>
  <time>2026-08-28T17:54:04Z</time>
  <course>0.0</course>
  <speed>0.0</speed>
  <fix>3d</fix>
</trkpt>
<trkpt lat="40.071375" lon="-105.2297889">
  <ele>1582.99</ele>
  <time>2026-08-28T17:54:04Z</time>
  <course>246.93</course>
  <speed>0.01</speed>
  <fix>3d</fix>
</trkpt>
<trkpt lat="40.0713749" lon="-105.229789">
  <ele>1583.0</ele>
  <time>2026-08-28T17:54:04Z</time>
  <course>0.0</course>
  <speed>0.0</speed>
  <fix>3d</fix>
</trkpt>
<trkpt lat="40.071375" lon="-105.2297889">
  <ele>1582.98</ele>
  <time>2026-08-28T17:54:04Z</time>
  <course>246.93</course>
  <speed>0.01</speed>
  <fix>3d</fix>
</trkpt>
<trkpt lat="40.0713749" lon="-105.229789">
  <ele>1583.0</ele>
  <time>2026-08-28T17:54:04Z</time>
  <course>0.0</course>
  <speed>0.0</speed>
  <fix>3d</fix>
</trkpt>
<trkpt lat="40.071375" lon="-105.2297889">
  <ele>1582.98</ele>
  <time>2026-08-28T17:54:04Z</time>
  <course>246.93</course>
  <speed>0.01</speed>
  <fix>3d</fix>
</trkpt>
<trkpt lat="40.0713749" lon="-105.229789">
  <ele>1583.0</ele>
  <time>2026-08-28T17:54:04Z</time>
  <course>0.0</course>
  <speed>0.0</speed>
  <fix>3d</fix>
</trkpt>
<trkpt lat="40.071375" lon="-105.2297889">
  <ele>1582.98</ele>
  <time>2026-08-28T17:54:04Z</time>
  <course>246.93</course>
  <speed>0.01</speed>
  <fix>3d</fix>
</trkpt>
<trkpt lat="40.0713749" lon="-105.229789">
  <ele>1583.0</ele>
  <time>2026-08-28T17:54:04Z</time>
  <course>0.0</course>
  <speed>0.0</speed>
  <fix>3d</fix>
</trkpt>
<trkpt lat="40.071375" lon="-105.2297889">
  <ele>1582.98</ele>
  <time>2026-08-28T17:54:04Z</time>
  <course>246.93</course>
  <speed>0.01</speed>
  <fix>3d</fix>
</trkpt>
<trkpt lat="40.0713749" lon="-105.229789">
  <ele>1583.0</ele>
  <time>2026-08-28T17:54:04Z</time>
  <course>0.0</course>
  <speed>0.0</speed>
  <fix>3d</fix>
</trkpt>
<trkpt lat="40.071375" lon="-105.2297889">
  <ele>1582.98</ele>
  <time>2026-08-28T17:54:04Z</time>
  <course>246.93</course>
  <speed>0.01</speed>
  <fix>3d</fix>
</trkpt>
<trkpt lat="40.0713749" lon="-105.229789">
  <ele>1583.0</ele>
  <time>2026-08-28T17:54:04Z</time>
  <course>0.0</course>
  <speed>0.0</speed>
  <fix>3d</fix>
</trkpt>
<trkpt lat="40.071375" lon="-105.2297889">
  <ele>1582.98</ele>
  <time>2026-08-28T17:54:04Z</time>
  <course>246.93</course>
  <speed>0.01</speed>
  <fix>3d</fix>
</trkpt>
<trkpt lat="40.0713749" lon="-105.229789">
  <ele>1583.0</ele>
  <time>2026-08-28T17:54:04Z</time>
  <course>0.0</course>
  <speed>0.0</speed>
  <fix>3d</fix>
</trkpt>
<trkpt lat="40.071375" lon="-105.2297889">
  <ele>1582.98</ele>
  <time>2026-08-28T17:54:04Z</time>
  <course>246.92</course>
  <speed>0.01</speed>
  <fix>3d</fix>
</trkpt>
<trkpt lat="40.0713749" lon="-105.229789">
  <ele>1583.0</ele>
  <time>2026-08-28T17:54:04Z</time>
  <course>0.0</course>
  <speed>0.0</speed>
  <fix>3d</fix>
</trkpt>
<trkpt lat="40.071375" lon="-105.2297889">
  <ele>1582.98</ele>
  <time>2026-08-28T17:54:04Z</time>
  <course>246.92</course>
  <speed>0.01</speed>
  <fix>3d</fix>
</trkpt>
<trkpt lat="40.0713749" lon="-105.229789">
  <ele>1583.0</ele>
  <time>2026-08-28T17:54:04Z</time>
  <course>0.0</course>
  <speed>0.0</speed>
  <fix>3d</fix>
</trkpt>
<trkpt lat="40.071375" lon="-105.2297889">
  <ele>1582.98</ele>
  <time>2026-08-28T17:54:04Z</time>
  <course>246.92</course>
  <speed>0.01</speed>
  <fix>3d</fix>
</trkpt>
<trkpt lat="40.0713749" lon="-105.229789">
  <ele>1583.0</ele>
  <time>2026-08-28T17:54:04Z</time>
  <course>0.0</course>
  <speed>0.0</speed>
  <fix>3d</fix>
</trkpt>
<trkpt lat="40.071375" lon="-105.2297889">
  <ele>1582.98</ele>
  <time>2026-08-28T17:54:04Z</time>
  <course>246.92</course>
  <speed>0.01</speed>
  <fix>3d</fix>
</trkpt>
<trkpt lat="40.0713749" lon="-105.229789">
  <ele>1583.0</ele>
  <time>2026-08-28T17:54:04Z</time>
  <course>0.0</course>
  <speed>0.0</speed>
  <fix>3d</fix>
</trkpt>
<trkpt lat="40.071375" lon="-105.2297889">
  <ele>1582.98</ele>
  <time>2026-08-28T17:54:04Z</time>
  <course>246.92</course>
  <speed>0.01</speed>
  <fix>3d</fix>
</trkpt>
<trkpt lat="40.0713749" lon="-105.229789">
  <ele>1583.0</ele>
  <time>2026-08-28T17:54:04Z</time>
  <course>0.0</course>
  <speed>0.0</speed>
  <fix>3d</fix>
</trkpt>
<trkpt lat="40.071375" lon="-105.2297889">
  <ele>1582.97</ele>
  <time>2026-08-28T17:54:04Z</time>
  <course>246.92</course>
  <speed>0.01</speed>
  <fix>3d</fix>
</trkpt>
<trkpt lat="40.0713749" lon="-105.229789">
  <ele>1583.0</ele>
  <time>2026-08-28T17:54:04Z</time>
  <course>0.0</course>
  <speed>0.0</speed>
  <fix>3d</fix>
</trkpt>
<trkpt lat="40.071375" lon="-105.2297889">
  <ele>1582.97</ele>
  <time>2026-08-28T17:54:04Z</time>
  <course>246.92</course>
  <speed>0.01</speed>
  <fix>3d</fix>
</trkpt>
<trkpt lat="40.0713749" lon="-105.229789">
  <ele>1583.0</ele>
  <time>2026-08-28T17:54:04Z</time>
  <course>0.0</course>
  <speed>0.0</speed>
  <fix>3d</fix>
</trkpt>
<trkpt lat="40.071375" lon="-105.2297889">
  <ele>1582.97</ele>
  <time>2026-08-28T17:54:04Z</time>
  <course>246.92</course>
  <speed>0.01</speed>
  <fix>3d</fix>
</trkpt>
<trkpt lat="40.0713749" lon="-105.229789">
  <ele>1583.0</ele>
  <time>2026-08-28T17:54:04Z</time>
  <course>0.0</course>
  <speed>0.0</speed>
  <fix>3d</fix>
</trkpt>
<trkpt lat="40.071375" lon="-105.2297889">
  <ele>1582.97</ele>
  <time>2026-08-28T17:54:04Z</time>
  <course>246.92</course>
  <speed>0.01</speed>
  <fix>3d</fix>
</trkpt>
<trkpt lat="40.0713749" lon="-105.229789">
  <ele>1583.0</ele>
  <time>2026-08-28T17:54:04Z</time>
  <course>0.0</course>
  <speed>0.0</speed>
  <fix>3d</fix>
</trkpt>
<trkpt lat="40.071375" lon="-105.2297889">
  <ele>1582.97</ele>
  <time>2026-08-28T17:54:04Z</time>
  <course>246.91</course>
  <speed>0.01</speed>
  <fix>3d</fix>
</trkpt>
<trkpt lat="40.0713749" lon="-105.229789">
  <ele>1583.0</ele>
  <time>2026-08-28T17:54:04Z</time>
  <course>0.0</course>
  <speed>0.0</speed>
  <fix>3d</fix>
</trkpt>
<trkpt lat="40.071375" lon="-105.2297889">
  <ele>1582.97</ele>
  <time>2026-08-28T17:54:05Z</time>
  <course>246.91</course>
  <speed>0.01</speed>
  <fix>3d</fix>
</trkpt>
<trkpt lat="40.0713749" lon="-105.229789">
  <ele>1583.0</ele>
  <time>2026-08-28T17:54:05Z</time>
  <course>0.0</course>
  <speed>0.0</speed>
  <fix>3d</fix>
</trkpt>
<trkpt lat="40.071375" lon="-105.2297889">
  <ele>1582.97</ele>
  <time>2026-08-28T17:54:05Z</time>
  <course>246.91</course>
  <speed>0.01</speed>
  <fix>3d</fix>
</trkpt>
<trkpt lat="40.0713749" lon="-105.229789">
  <ele>1583.0</ele>
  <time>2026-08-28T17:54:05Z</time>
  <course>0.0</course>
  <speed>0.0</speed>
  <fix>3d</fix>
</trkpt>
<trkpt lat="40.071375" lon="-105.2297889">
  <ele>1582.98</ele>
  <time>2026-08-28T17:54:05Z</time>
  <course>246.91</course>
  <speed>0.01</speed>
  <fix>3d</fix>
</trkpt>
<trkpt lat="40.0713749" lon="-105.229789">
  <ele>1583.0</ele>
  <time>2026-08-28T17:54:05Z</time>
  <course>0.0</course>
  <speed>0.0</speed>
  <fix>3d</fix>
</trkpt>
<trkpt lat="40.071375" lon="-105.2297889">
  <ele>1582.98</ele>
  <time>2026-08-28T17:54:05Z</time>
  <course>246.91</course>
  <speed>0.01</speed>
  <fix>3d</fix>
</trkpt>
<trkpt lat="40.0713749" lon="-105.229789">
  <ele>1583.0</ele>
  <time>2026-08-28T17:54:05Z</time>
  <course>0.0</course>
  <speed>0.0</speed>
  <fix>3d</fix>
</trkpt>
<trkpt lat="40.071375" lon="-105.2297889">
  <ele>1582.98</ele>
  <time>2026-08-28T17:54:05Z</time>
  <course>246.91</course>
  <speed>0.01</speed>
  <fix>3d</fix>
</trkpt>
<trkpt lat="40.0713749" lon="-105.229789">
  <ele>1583.0</ele>
  <time>2026-08-28T17:54:05Z</time>
  <course>0.0</course>
  <speed>0.0</speed>
  <fix>3d</fix>
</trkpt>
<trkpt lat="40.071375" lon="-105.2297889">
  <ele>1582.98</ele>
  <time>2026-08-28T17:54:05Z</time>
  <course>246.91</course>
  <speed>0.01</speed>
  <fix>3d</fix>
</trkpt>
<trkpt lat="40.0713749" lon="-105.229789">
  <ele>1583.0</ele>
  <time>2026-08-28T17:54:05Z</time>
  <course>0.0</course>
  <speed>0.0</speed>
  <fix>3d</fix>
</trkpt>
<trkpt lat="40.071375" lon="-105.2297889">
  <ele>1582.98</ele>
  <time>2026-08-28T17:54:05Z</time>
  <course>246.91</course>
  <speed>0.01</speed>
  <fix>3d</fix>
</trkpt>
<trkpt lat="40.0713749" lon="-105.229789">
  <ele>1583.0</ele>
  <time>2026-08-28T17:54:05Z</time>
  <course>0.0</course>
  <speed>0.0</speed>
  <fix>3d</fix>
</trkpt>
<trkpt lat="40.071375" lon="-105.2297889">
  <ele>1582.98</ele>
  <time>2026-08-28T17:54:05Z</time>
  <course>246.9</course>
  <speed>0.01</speed>
  <fix>3d</fix>
</trkpt>
<trkpt lat="40.0713749" lon="-105.229789">
  <ele>1583.0</ele>
  <time>2026-08-28T17:54:05Z</time>
  <course>0.0</course>
  <speed>0.0</speed>
  <fix>3d</fix>
</trkpt>
<trkpt lat="40.071375" lon="-105.2297889">
  <ele>1582.99</ele>
  <time>2026-08-28T17:54:05Z</time>
  <course>246.9</course>
  <speed>0.01</speed>
  <fix>3d</fix>
</trkpt>
<trkpt lat="40.0713749" lon="-105.229789">
  <ele>1583.0</ele>
  <time>2026-08-28T17:54:05Z</time>
  <course>0.0</course>
  <speed>0.0</speed>
  <fix>3d</fix>
</trkpt>
<trkpt lat="40.071375" lon="-105.2297889">
  <ele>1582.99</ele>
  <time>2026-08-28T17:54:05Z</time>
  <course>246.9</course>
  <speed>0.01</speed>
  <fix>3d</fix>
</trkpt>
<trkpt lat="40.0713749" lon="-105.229789">
  <ele>1583.0</ele>
  <time>2026-08-28T17:54:05Z</time>
  <course>0.0</course>
  <speed>0.0</speed>
  <fix>3d</fix>
</trkpt>
<trkpt lat="40.071375" lon="-105.2297889">
  <ele>1582.99</ele>
  <time>2026-08-28T17:54:05Z</time>
  <course>246.9</course>
  <speed>0.01</speed>
  <fix>3d</fix>
</trkpt>
<trkpt lat="40.0713749" lon="-105.229789">
  <ele>1583.0</ele>
  <time>2026-08-28T17:54:05Z</time>
  <course>0.0</course>
  <speed>0.0</speed>
  <fix>3d</fix>
</trkpt>
<trkpt lat="40.071375" lon="-105.2297889">
  <ele>1582.98</ele>
  <time>2026-08-28T17:54:05Z</time>
  <course>246.9</course>
  <speed>0.01</speed>
  <fix>3d</fix>
</trkpt>
<trkpt lat="40.0713749" lon="-105.229789">
  <ele>1583.0</ele>
  <time>2026-08-28T17:54:05Z</time>
  <course>0.0</course>
  <speed>0.0</speed>
  <fix>3d</fix>
</trkpt>
<trkpt lat="40.071375" lon="-105.2297889">
  <ele>1582.98</ele>
  <time>2026-08-28T17:54:05Z</time>
  <course>246.9</course>
  <speed>0.01</speed>
  <fix>3d</fix>
</trkpt>
<trkpt lat="40.0713749" lon="-105.229789">
  <ele>1583.0</ele>
  <time>2026-08-28T17:54:05Z</time>
  <course>0.0</course>
  <speed>0.0</speed>
  <fix>3d</fix>
</trkpt>
<trkpt lat="40.071375" lon="-105.2297889">
  <ele>1582.98</ele>
  <time>2026-08-28T17:54:05Z</time>
  <course>246.9</course>
  <speed>0.01</speed>
  <fix>3d</fix>
</trkpt>
<trkpt lat="40.0713749" lon="-105.229789">
  <ele>1583.0</ele>
  <time>2026-08-28T17:54:05Z</time>
  <course>0.0</course>
  <speed>0.0</speed>
  <fix>3d</fix>
</trkpt>
<trkpt lat="40.071375" lon="-105.2297889">
  <ele>1582.98</ele>
  <time>2026-08-28T17:54:05Z</time>
  <course>246.89</course>
  <speed>0.0</speed>
  <fix>3d</fix>
</trkpt>
<trkpt lat="40.0713749" lon="-105.229789">
  <ele>1583.0</ele>
  <time>2026-08-28T17:54:05Z</time>
  <course>0.0</course>
  <speed>0.0</speed>
  <fix>3d</fix>
</trkpt>
<trkpt lat="40.071375" lon="-105.2297889">
  <ele>1582.98</ele>
  <time>2026-08-28T17:54:05Z</time>
  <course>246.89</course>
  <speed>0.0</speed>
  <fix>3d</fix>
</trkpt>
<trkpt lat="40.0713749" lon="-105.229789">
  <ele>1583.0</ele>
  <time>2026-08-28T17:54:05Z</time>
  <course>0.0</course>
  <speed>0.0</speed>
  <fix>3d</fix>
</trkpt>
<trkpt lat="40.071375" lon="-105.2297889">
  <ele>1582.98</ele>
  <time>2026-08-28T17:54:05Z</time>
  <course>246.89</course>
  <speed>0.0</speed>
  <fix>3d</fix>
</trkpt>
<trkpt lat="40.0713749" lon="-105.229789">
  <ele>1583.0</ele>
  <time>2026-08-28T17:54:05Z</time>
  <course>0.0</course>
  <speed>0.0</speed>
  <fix>3d</fix>
</trkpt>
<trkpt lat="40.071375" lon="-105.2297889">
  <ele>1582.98</ele>
  <time>2026-08-28T17:54:05Z</time>
  <course>246.89</course>
  <speed>0.0</speed>
  <fix>3d</fix>
</trkpt>
<trkpt lat="40.0713749" lon="-105.229789">
  <ele>1583.0</ele>
  <time>2026-08-28T17:54:05Z</time>
  <course>0.0</course>
  <speed>0.0</speed>
  <fix>3d</fix>
</trkpt>
<trkpt lat="40.071375" lon="-105.2297889">
  <ele>1582.98</ele>
  <time>2026-08-28T17:54:05Z</time>
  <course>246.89</course>
  <speed>0.0</speed>
  <fix>3d</fix>
</trkpt>
<trkpt lat="40.0713749" lon="-105.229789">
  <ele>1583.0</ele>
  <time>2026-08-28T17:54:05Z</time>
  <course>0.0</course>
  <speed>0.0</speed>
  <fix>3d</fix>
</trkpt>
<trkpt lat="40.071375" lon="-105.2297889">
  <ele>1582.98</ele>
  <time>2026-08-28T17:54:05Z</time>
  <course>246.89</course>
  <speed>0.0</speed>
  <fix>3d</fix>
</trkpt>
<trkpt lat="40.0713749" lon="-105.229789">
  <ele>1583.0</ele>
  <time>2026-08-28T17:54:05Z</time>
  <course>0.0</course>
  <speed>0.0</speed>
  <fix>3d</fix>
</trkpt>
<trkpt lat="40.071375" lon="-105.2297889">
  <ele>1582.98</ele>
  <time>2026-08-28T17:54:05Z</time>
  <course>246.89</course>
  <speed>0.0</speed>
  <fix>3d</fix>
</trkpt>
<trkpt lat="40.0713749" lon="-105.229789">
  <ele>1583.0</ele>
  <time>2026-08-28T17:54:05Z</time>
  <course>0.0</course>
  <speed>0.0</speed>
  <fix>3d</fix>
</trkpt>
<trkpt lat="40.071375" lon="-105.2297889">
  <ele>1582.98</ele>
  <time>2026-08-28T17:54:05Z</time>
  <course>246.89</course>
  <speed>0.0</speed>
  <fix>3d</fix>
</trkpt>
<trkpt lat="40.0713749" lon="-105.229789">
  <ele>1583.0</ele>
  <time>2026-08-28T17:54:05Z</time>
  <course>0.0</course>
  <speed>0.0</speed>
  <fix>3d</fix>
</trkpt>
<trkpt lat="40.071375" lon="-105.2297889">
  <ele>1582.97</ele>
  <time>2026-08-28T17:54:05Z</time>
  <course>246.88</course>
  <speed>0.0</speed>
  <fix>3d</fix>
</trkpt>
<trkpt lat="40.0713749" lon="-105.229789">
  <ele>1583.0</ele>
  <time>2026-08-28T17:54:05Z</time>
  <course>0.0</course>
  <speed>0.0</speed>
  <fix>3d</fix>
</trkpt>
<trkpt lat="40.071375" lon="-105.2297889">
  <ele>1582.97</ele>
  <time>2026-08-28T17:54:05Z</time>
  <course>246.88</course>
  <speed>0.0</speed>
  <fix>3d</fix>
</trkpt>
<trkpt lat="40.0713749" lon="-105.229789">
  <ele>1583.0</ele>
  <time>2026-08-28T17:54:05Z</time>
  <course>0.0</course>
  <speed>0.0</speed>
  <fix>3d</fix>
</trkpt>
<trkpt lat="40.071375" lon="-105.2297889">
  <ele>1582.97</ele>
  <time>2026-08-28T17:54:05Z</time>
  <course>246.88</course>
  <speed>0.0</speed>
  <fix>3d</fix>
</trkpt>
<trkpt lat="40.0713749" lon="-105.229789">
  <ele>1583.0</ele>
  <time>2026-08-28T17:54:05Z</time>
  <course>0.0</course>
  <speed>0.0</speed>
  <fix>3d</fix>
</trkpt>
<trkpt lat="40.071375" lon="-105.2297889">
  <ele>1582.97</ele>
  <time>2026-08-28T17:54:05Z</time>
  <course>246.88</course>
  <speed>0.0</speed>
  <fix>3d</fix>
</trkpt>
<trkpt lat="40.0713749" lon="-105.229789">
  <ele>1583.0</ele>
  <time>2026-08-28T17:54:05Z</time>
  <course>0.0</course>
  <speed>0.0</speed>
  <fix>3d</fix>
</trkpt>
<trkpt lat="40.071375" lon="-105.2297889">
  <ele>1582.97</ele>
  <time>2026-08-28T17:54:05Z</time>
  <course>246.88</course>
  <speed>0.0</speed>
  <fix>3d</fix>
</trkpt>
<trkpt lat="40.0713749" lon="-105.229789">
  <ele>1583.0</ele>
  <time>2026-08-28T17:54:05Z</time>
  <course>0.0</course>
  <speed>0.0</speed>
  <fix>3d</fix>
</trkpt>
<trkpt lat="40.071375" lon="-105.2297889">
  <ele>1582.98</ele>
  <time>2026-08-28T17:54:05Z</time>
  <course>246.88</course>
  <speed>0.0</speed>
  <fix>3d</fix>
</trkpt>
<trkpt lat="40.0713749" lon="-105.229789">
  <ele>1583.0</ele>
  <time>2026-08-28T17:54:05Z</time>
  <course>0.0</course>
  <speed>0.0</speed>
  <fix>3d</fix>
</trkpt>
<trkpt lat="40.071375" lon="-105.2297889">
  <ele>1582.98</ele>
  <time>2026-08-28T17:54:05Z</time>
  <course>246.87</course>
  <speed>0.0</speed>
  <fix>3d</fix>
</trkpt>
<trkpt lat="40.0713749" lon="-105.229789">
  <ele>1583.0</ele>
  <time>2026-08-28T17:54:05Z</time>
  <course>0.0</course>
  <speed>0.0</speed>
  <fix>3d</fix>
</trkpt>
<trkpt lat="40.071375" lon="-105.2297889">
  <ele>1582.98</ele>
  <time>2026-08-28T17:54:05Z</time>
  <course>246.87</course>
  <speed>0.0</speed>
  <fix>3d</fix>
</trkpt>
<trkpt lat="40.0713749" lon="-105.229789">
  <ele>1583.0</ele>
  <time>2026-08-28T17:54:05Z</time>
  <course>0.0</course>
  <speed>0.0</speed>
  <fix>3d</fix>
</trkpt>
<trkpt lat="40.071375" lon="-105.2297889">
  <ele>1582.99</ele>
  <time>2026-08-28T17:54:05Z</time>
  <course>246.87</course>
  <speed>0.0</speed>
  <fix>3d</fix>
</trkpt>
<trkpt lat="40.0713749" lon="-105.229789">
  <ele>1583.0</ele>
  <time>2026-08-28T17:54:05Z</time>
  <course>0.0</course>
  <speed>0.0</speed>
  <fix>3d</fix>
</trkpt>
<trkpt lat="40.071375" lon="-105.2297889">
  <ele>1582.99</ele>
  <time>2026-08-28T17:54:05Z</time>
  <course>246.87</course>
  <speed>0.0</speed>
  <fix>3d</fix>
</trkpt>
<trkpt lat="40.0713749" lon="-105.229789">
  <ele>1583.0</ele>
  <time>2026-08-28T17:54:05Z</time>
  <course>0.0</course>
  <speed>0.0</speed>
  <fix>3d</fix>
</trkpt>
<trkpt lat="40.071375" lon="-105.2297889">
  <ele>1582.99</ele>
  <time>2026-08-28T17:54:05Z</time>
  <course>246.87</course>
  <speed>0.0</speed>
  <fix>3d</fix>
</trkpt>
<trkpt lat="40.0713749" lon="-105.229789">
  <ele>1583.0</ele>
  <time>2026-08-28T17:54:05Z</time>
  <course>0.0</course>
  <speed>0.0</speed>
  <fix>3d</fix>
</trkpt>
<trkpt lat="40.071375" lon="-105.2297889">
  <ele>1582.99</ele>
  <time>2026-08-28T17:54:05Z</time>
  <course>246.87</course>
  <speed>0.0</speed>
  <fix>3d</fix>
</trkpt>
<trkpt lat="40.0713749" lon="-105.229789">
  <ele>1583.0</ele>
  <time>2026-08-28T17:54:05Z</time>
  <course>0.0</course>
  <speed>0.0</speed>
  <fix>3d</fix>
</trkpt>
<trkpt lat="40.071375" lon="-105.2297889">
  <ele>1582.99</ele>
  <time>2026-08-28T17:54:05Z</time>
  <course>246.86</course>
  <speed>0.0</speed>
  <fix>3d</fix>
</trkpt>
<trkpt lat="40.0713749" lon="-105.229789">
  <ele>1583.0</ele>
  <time>2026-08-28T17:54:05Z</time>
  <course>0.0</course>
  <speed>0.0</speed>
  <fix>3d</fix>
</trkpt>
<trkpt lat="40.071375" lon="-105.2297889">
  <ele>1582.99</ele>
  <time>2026-08-28T17:54:05Z</time>
  <course>246.86</course>
  <speed>0.0</speed>
  <fix>3d</fix>
</trkpt>
<trkpt lat="40.0713749" lon="-105.229789">
  <ele>1583.0</ele>
  <time>2026-08-28T17:54:05Z</time>
  <course>0.0</course>
  <speed>0.0</speed>
  <fix>3d</fix>
</trkpt>
<trkpt lat="40.071375" lon="-105.2297889">
  <ele>1582.99</ele>
  <time>2026-08-28T17:54:05Z</time>
  <course>246.86</course>
  <speed>0.0</speed>
  <fix>3d</fix>
</trkpt>
<trkpt lat="40.0713749" lon="-105.229789">
  <ele>1583.0</ele>
  <time>2026-08-28T17:54:05Z</time>
  <course>0.0</course>
  <speed>0.0</speed>
  <fix>3d</fix>
</trkpt>
<trkpt lat="40.071375" lon="-105.2297889">
  <ele>1582.99</ele>
  <time>2026-08-28T17:54:05Z</time>
  <course>246.86</course>
  <speed>0.0</speed>
  <fix>3d</fix>
</trkpt>
<trkpt lat="40.0713749" lon="-105.229789">
  <ele>1583.0</ele>
  <time>2026-08-28T17:54:05Z</time>
  <course>0.0</course>
  <speed>0.0</speed>
  <fix>3d</fix>
</trkpt>
<trkpt lat="40.071375" lon="-105.2297889">
  <ele>1583.0</ele>
  <time>2026-08-28T17:54:05Z</time>
  <course>246.86</course>
  <speed>0.0</speed>
  <fix>3d</fix>
</trkpt>
<trkpt lat="40.0713749" lon="-105.229789">
  <ele>1583.0</ele>
  <time>2026-08-28T17:54:05Z</time>
  <course>0.0</course>
  <speed>0.0</speed>
  <fix>3d</fix>
</trkpt>
<trkpt lat="40.071375" lon="-105.2297889">
  <ele>1582.99</ele>
  <time>2026-08-28T17:54:05Z</time>
  <course>246.86</course>
  <speed>0.0</speed>
  <fix>3d</fix>
</trkpt>
<trkpt lat="40.0713749" lon="-105.229789">
  <ele>1583.0</ele>
  <time>2026-08-28T17:54:05Z</time>
  <course>0.0</course>
  <speed>0.0</speed>
  <fix>3d</fix>
</trkpt>
<trkpt lat="40.071375" lon="-105.2297889">
  <ele>1582.99</ele>
  <time>2026-08-28T17:54:05Z</time>
  <course>246.85</course>
  <speed>0.0</speed>
  <fix>3d</fix>
</trkpt>
<trkpt lat="40.0713749" lon="-105.229789">
  <ele>1583.0</ele>
  <time>2026-08-28T17:54:05Z</time>
  <course>0.0</course>
  <speed>0.0</speed>
  <fix>3d</fix>
</trkpt>
<trkpt lat="40.071375" lon="-105.2297889">
  <ele>1582.99</ele>
  <time>2026-08-28T17:54:05Z</time>
  <course>246.85</course>
  <speed>0.0</speed>
  <fix>3d</fix>
</trkpt>
<trkpt lat="40.0713749" lon="-105.229789">
  <ele>1583.0</ele>
  <time>2026-08-28T17:54:05Z</time>
  <course>0.0</course>
  <speed>0.0</speed>
  <fix>3d</fix>
</trkpt>
<trkpt lat="40.071375" lon="-105.2297889">
  <ele>1582.99</ele>
  <time>2026-08-28T17:54:05Z</time>
  <course>246.85</course>
  <speed>0.0</speed>
  <fix>3d</fix>
</trkpt>
<trkpt lat="40.0713749" lon="-105.229789">
  <ele>1583.0</ele>
  <time>2026-08-28T17:54:05Z</time>
  <course>0.0</course>
  <speed>0.0</speed>
  <fix>3d</fix>
</trkpt>
<trkpt lat="40.071375" lon="-105.2297889">
  <ele>1582.99</ele>
  <time>2026-08-28T17:54:05Z</time>
  <course>246.85</course>
  <speed>0.0</speed>
  <fix>3d</fix>
</trkpt>
<trkpt lat="40.0713749" lon="-105.229789">
  <ele>1583.0</ele>
  <time>2026-08-28T17:54:05Z</time>
  <course>0.0</course>
  <speed>0.0</speed>
  <fix>3d</fix>
</trkpt>
<trkpt lat="40.071375" lon="-105.2297889">
  <ele>1582.99</ele>
  <time>2026-08-28T17:54:05Z</time>
  <course>246.85</course>
  <speed>0.0</speed>
  <fix>3d</fix>
</trkpt>
<trkpt lat="40.0713749" lon="-105.229789">
  <ele>1583.0</ele>
  <time>2026-08-28T17:54:05Z</time>
  <course>0.0</course>
  <speed>0.0</speed>
  <fix>3d</fix>
</trkpt>
<trkpt lat="40.071375" lon="-105.2297889">
  <ele>1582.99</ele>
  <time>2026-08-28T17:54:05Z</time>
  <course>246.85</course>
  <speed>0.0</speed>
  <fix>3d</fix>
</trkpt>
<trkpt lat="40.0713749" lon="-105.229789">
  <ele>1583.0</ele>
  <time>2026-08-28T17:54:05Z</time>
  <course>0.0</course>
  <speed>0.0</speed>
  <fix>3d</fix>
</trkpt>
<trkpt lat="40.071375" lon="-105.2297889">
  <ele>1582.99</ele>
  <time>2026-08-28T17:54:05Z</time>
  <course>246.84</course>
  <speed>0.0</speed>
  <fix>3d</fix>
</trkpt>
<trkpt lat="40.0713749" lon="-105.229789">
  <ele>1583.0</ele>
  <time>2026-08-28T17:54:05Z</time>
  <course>0.0</course>
  <speed>0.0</speed>
  <fix>3d</fix>
</trkpt>
<trkpt lat="40.071375" lon="-105.2297889">
  <ele>1582.99</ele>
  <time>2026-08-28T17:54:05Z</time>
  <course>246.84</course>
  <speed>0.0</speed>
  <fix>3d</fix>
</trkpt>
<trkpt lat="40.0713749" lon="-105.229789">
  <ele>1583.0</ele>
  <time>2026-08-28T17:54:05Z</time>
  <course>0.0</course>
  <speed>0.0</speed>
  <fix>3d</fix>
</trkpt>
<trkpt lat="40.071375" lon="-105.2297889">
  <ele>1582.99</ele>
  <time>2026-08-28T17:54:05Z</time>
  <course>246.84</course>
  <speed>0.0</speed>
  <fix>3d</fix>
</trkpt>
<trkpt lat="40.0713749" lon="-105.229789">
  <ele>1583.0</ele>
  <time>2026-08-28T17:54:05Z</time>
  <course>0.0</course>
  <speed>0.0</speed>
  <fix>3d</fix>
</trkpt>
<trkpt lat="40.071375" lon="-105.2297889">
  <ele>1582.99</ele>
  <time>2026-08-28T17:54:05Z</time>
  <course>246.84</course>
  <speed>0.0</speed>
  <fix>3d</fix>
</trkpt>
<trkpt lat="40.0713749" lon="-105.229789">
  <ele>1583.0</ele>
  <time>2026-08-28T17:54:05Z</time>
  <course>0.0</course>
  <speed>0.0</speed>
  <fix>3d</fix>
</trkpt>
<trkpt lat="40.071375" lon="-105.2297889">
  <ele>1582.99</ele>
  <time>2026-08-28T17:54:05Z</time>
  <course>246.84</course>
  <speed>0.0</speed>
  <fix>3d</fix>
</trkpt>
<trkpt lat="40.0713749" lon="-105.229789">
  <ele>1583.0</ele>
  <time>2026-08-28T17:54:05Z</time>
  <course>0.0</course>
  <speed>0.0</speed>
  <fix>3d</fix>
</trkpt>
<trkpt lat="40.071375" lon="-105.2297889">
  <ele>1582.99</ele>
  <time>2026-08-28T17:54:05Z</time>
  <course>246.83</course>
  <speed>0.0</speed>
  <fix>3d</fix>
</trkpt>
<trkpt lat="40.0713749" lon="-105.229789">
  <ele>1583.0</ele>
  <time>2026-08-28T17:54:05Z</time>
  <course>0.0</course>
  <speed>0.0</speed>
  <fix>3d</fix>
</trkpt>
<trkpt lat="40.071375" lon="-105.2297889">
  <ele>1582.99</ele>
  <time>2026-08-28T17:54:05Z</time>
  <course>246.83</course>
  <speed>0.0</speed>
  <fix>3d</fix>
</trkpt>
<trkpt lat="40.0713749" lon="-105.229789">
  <ele>1583.0</ele>
  <time>2026-08-28T17:54:05Z</time>
  <course>0.0</course>
  <speed>0.0</speed>
  <fix>3d</fix>
</trkpt>
<trkpt lat="40.071375" lon="-105.2297889">
  <ele>1582.99</ele>
  <time>2026-08-28T17:54:05Z</time>
  <course>246.83</course>
  <speed>0.0</speed>
  <fix>3d</fix>
</trkpt>
<trkpt lat="40.0713749" lon="-105.229789">
  <ele>1583.0</ele>
  <time>2026-08-28T17:54:05Z</time>
  <course>0.0</course>
  <speed>0.0</speed>
  <fix>3d</fix>
</trkpt>
<trkpt lat="40.071375" lon="-105.2297889">
  <ele>1582.99</ele>
  <time>2026-08-28T17:54:05Z</time>
  <course>246.83</course>
  <speed>0.0</speed>
  <fix>3d</fix>
</trkpt>
<trkpt lat="40.0713749" lon="-105.229789">
  <ele>1583.0</ele>
  <time>2026-08-28T17:54:05Z</time>
  <course>0.0</course>
  <speed>0.0</speed>
  <fix>3d</fix>
</trkpt>
<trkpt lat="40.071375" lon="-105.2297889">
  <ele>1582.99</ele>
  <time>2026-08-28T17:54:05Z</time>
  <course>246.83</course>
  <speed>0.0</speed>
  <fix>3d</fix>
</trkpt>
<trkpt lat="40.0713749" lon="-105.229789">
  <ele>1583.0</ele>
  <time>2026-08-28T17:54:05Z</time>
  <course>0.0</course>
  <speed>0.0</speed>
  <fix>3d</fix>
</trkpt>
<trkpt lat="40.071375" lon="-105.2297889">
  <ele>1582.99</ele>
  <time>2026-08-28T17:54:05Z</time>
  <course>246.83</course>
  <speed>0.0</speed>
  <fix>3d</fix>
</trkpt>
<trkpt lat="40.0713749" lon="-105.229789">
  <ele>1583.0</ele>
  <time>2026-08-28T17:54:05Z</time>
  <course>0.0</course>
  <speed>0.0</speed>
  <fix>3d</fix>
</trkpt>
<trkpt lat="40.071375" lon="-105.2297889">
  <ele>1582.99</ele>
  <time>2026-08-28T17:54:05Z</time>
  <course>246.82</course>
  <speed>0.0</speed>
  <fix>3d</fix>
</trkpt>
<trkpt lat="40.0713749" lon="-105.229789">
  <ele>1583.0</ele>
  <time>2026-08-28T17:54:05Z</time>
  <course>0.0</course>
  <speed>0.0</speed>
  <fix>3d</fix>
</trkpt>
<trkpt lat="40.071375" lon="-105.2297889">
  <ele>1582.99</ele>
  <time>2026-08-28T17:54:05Z</time>
  <course>246.82</course>
  <speed>0.0</speed>
  <fix>3d</fix>
</trkpt>
<trkpt lat="40.0713749" lon="-105.229789">
  <ele>1583.0</ele>
  <time>2026-08-28T17:54:05Z</time>
  <course>0.0</course>
  <speed>0.0</speed>
  <fix>3d</fix>
</trkpt>
<trkpt lat="40.071375" lon="-105.2297889">
  <ele>1582.99</ele>
  <time>2026-08-28T17:54:05Z</time>
  <course>246.82</course>
  <speed>0.0</speed>
  <fix>3d</fix>
</trkpt>
<trkpt lat="40.0713749" lon="-105.229789">
  <ele>1583.0</ele>
  <time>2026-08-28T17:54:05Z</time>
  <course>0.0</course>
  <speed>0.0</speed>
  <fix>3d</fix>
</trkpt>
<trkpt lat="40.071375" lon="-105.2297889">
  <ele>1582.99</ele>
  <time>2026-08-28T17:54:05Z</time>
  <course>246.82</course>
  <speed>0.0</speed>
  <fix>3d</fix>
</trkpt>
<trkpt lat="40.0713749" lon="-105.229789">
  <ele>1583.0</ele>
  <time>2026-08-28T17:54:05Z</time>
  <course>0.0</course>
  <speed>0.0</speed>
  <fix>3d</fix>
</trkpt>
<trkpt lat="40.071375" lon="-105.2297889">
  <ele>1582.98</ele>
  <time>2026-08-28T17:54:05Z</time>
  <course>246.82</course>
  <speed>0.0</speed>
  <fix>3d</fix>
</trkpt>
<trkpt lat="40.0713749" lon="-105.229789">
  <ele>1583.0</ele>
  <time>2026-08-28T17:54:05Z</time>
  <course>0.0</course>
  <speed>0.0</speed>
  <fix>3d</fix>
</trkpt>
<trkpt lat="40.071375" lon="-105.2297889">
  <ele>1582.98</ele>
  <time>2026-08-28T17:54:05Z</time>
  <course>246.81</course>
  <speed>0.0</speed>
  <fix>3d</fix>
</trkpt>
<trkpt lat="40.0713749" lon="-105.229789">
  <ele>1583.0</ele>
  <time>2026-08-28T17:54:05Z</time>
  <course>0.0</course>
  <speed>0.0</speed>
  <fix>3d</fix>
</trkpt>
<trkpt lat="40.071375" lon="-105.2297889">
  <ele>1582.98</ele>
  <time>2026-08-28T17:54:05Z</time>
  <course>246.81</course>
  <speed>0.0</speed>
  <fix>3d</fix>
</trkpt>
<trkpt lat="40.0713749" lon="-105.229789">
  <ele>1583.0</ele>
  <time>2026-08-28T17:54:05Z</time>
  <course>0.0</course>
  <speed>0.0</speed>
  <fix>3d</fix>
</trkpt>
<trkpt lat="40.071375" lon="-105.2297889">
  <ele>1582.97</ele>
  <time>2026-08-28T17:54:05Z</time>
  <course>246.81</course>
  <speed>0.0</speed>
  <fix>3d</fix>
</trkpt>
<trkpt lat="40.0713749" lon="-105.229789">
  <ele>1583.0</ele>
  <time>2026-08-28T17:54:05Z</time>
  <course>0.0</course>
  <speed>0.0</speed>
  <fix>3d</fix>
</trkpt>
<trkpt lat="40.071375" lon="-105.2297889">
  <ele>1582.98</ele>
  <time>2026-08-28T17:54:05Z</time>
  <course>246.81</course>
  <speed>0.0</speed>
  <fix>3d</fix>
</trkpt>
<trkpt lat="40.0713749" lon="-105.229789">
  <ele>1583.0</ele>
  <time>2026-08-28T17:54:05Z</time>
  <course>0.0</course>
  <speed>0.0</speed>
  <fix>3d</fix>
</trkpt>
<trkpt lat="40.071375" lon="-105.2297889">
  <ele>1582.98</ele>
  <time>2026-08-28T17:54:05Z</time>
  <course>246.81</course>
  <speed>0.0</speed>
  <fix>3d</fix>
</trkpt>
<trkpt lat="40.0713749" lon="-105.229789">
  <ele>1583.0</ele>
  <time>2026-08-28T17:54:05Z</time>
  <course>0.0</course>
  <speed>0.0</speed>
  <fix>3d</fix>
</trkpt>
<trkpt lat="40.071375" lon="-105.2297889">
  <ele>1582.98</ele>
  <time>2026-08-28T17:54:05Z</time>
  <course>246.8</course>
  <speed>0.0</speed>
  <fix>3d</fix>
</trkpt>
<trkpt lat="40.0713749" lon="-105.229789">
  <ele>1583.0</ele>
  <time>2026-08-28T17:54:05Z</time>
  <course>0.0</course>
  <speed>0.0</speed>
  <fix>3d</fix>
</trkpt>
<trkpt lat="40.071375" lon="-105.2297889">
  <ele>1582.98</ele>
  <time>2026-08-28T17:54:05Z</time>
  <course>246.8</course>
  <speed>0.0</speed>
  <fix>3d</fix>
</trkpt>
<trkpt lat="40.0713749" lon="-105.229789">
  <ele>1583.0</ele>
  <time>2026-08-28T17:54:05Z</time>
  <course>0.0</course>
  <speed>0.0</speed>
  <fix>3d</fix>
</trkpt>
<trkpt lat="40.0713749" lon="-105.2297889">
  <ele>1582.98</ele>
  <time>2026-08-28T17:54:05Z</time>
  <course>246.8</course>
  <speed>0.0</speed>
  <fix>3d</fix>
</trkpt>
<trkpt lat="40.0713749" lon="-105.229789">
  <ele>1583.0</ele>
  <time>2026-08-28T17:54:05Z</time>
  <course>0.0</course>
  <speed>0.0</speed>
  <fix>3d</fix>
</trkpt>
<trkpt lat="40.0713749" lon="-105.2297889">
  <ele>1582.98</ele>
  <time>2026-08-28T17:54:05Z</time>
  <course>246.8</course>
  <speed>0.0</speed>
  <fix>3d</fix>
</trkpt>
<trkpt lat="40.0713749" lon="-105.229789">
  <ele>1583.0</ele>
  <time>2026-08-28T17:54:05Z</time>
  <course>0.0</course>
  <speed>0.0</speed>
  <fix>3d</fix>
</trkpt>
<trkpt lat="40.0713749" lon="-105.2297889">
  <ele>1582.98</ele>
  <time>2026-08-28T17:54:05Z</time>
  <course>246.8</course>
  <speed>0.0</speed>
  <fix>3d</fix>
</trkpt>
<trkpt lat="40.0713749" lon="-105.229789">
  <ele>1583.0</ele>
  <time>2026-08-28T17:54:05Z</time>
  <course>0.0</course>
  <speed>0.0</speed>
  <fix>3d</fix>
</trkpt>
<trkpt lat="40.0713749" lon="-105.2297889">
  <ele>1582.97</ele>
  <time>2026-08-28T17:54:05Z</time>
  <course>246.79</course>
  <speed>0.0</speed>
  <fix>3d</fix>
</trkpt>
<trkpt lat="40.0713749" lon="-105.229789">
  <ele>1583.0</ele>
  <time>2026-08-28T17:54:05Z</time>
  <course>0.0</course>
  <speed>0.0</speed>
  <fix>3d</fix>
</trkpt>
<trkpt lat="40.0713749" lon="-105.2297889">
  <ele>1582.97</ele>
  <time>2026-08-28T17:54:05Z</time>
  <course>246.79</course>
  <speed>0.0</speed>
  <fix>3d</fix>
</trkpt>
<trkpt lat="40.0713749" lon="-105.229789">
  <ele>1583.0</ele>
  <time>2026-08-28T17:54:05Z</time>
  <course>0.0</course>
  <speed>0.0</speed>
  <fix>3d</fix>
</trkpt>
<trkpt lat="40.0713749" lon="-105.229789">
  <ele>1582.97</ele>
  <time>2026-08-28T17:54:05Z</time>
  <course>246.79</course>
  <speed>0.0</speed>
  <fix>3d</fix>
</trkpt>
<trkpt lat="40.0713749" lon="-105.229789">
  <ele>1583.0</ele>
  <time>2026-08-28T17:54:05Z</time>
  <course>0.0</course>
  <speed>0.0</speed>
  <fix>3d</fix>
</trkpt>
<trkpt lat="40.0713749" lon="-105.229789">
  <ele>1582.97</ele>
  <time>2026-08-28T17:54:05Z</time>
  <course>246.79</course>
  <speed>0.0</speed>
  <fix>3d</fix>
</trkpt>
<trkpt lat="40.0713749" lon="-105.229789">
  <ele>1583.0</ele>
  <time>2026-08-28T17:54:05Z</time>
  <course>0.0</course>
  <speed>0.0</speed>
  <fix>3d</fix>
</trkpt>
<trkpt lat="40.0713749" lon="-105.229789">
  <ele>1582.98</ele>
  <time>2026-08-28T17:54:05Z</time>
  <course>246.79</course>
  <speed>0.0</speed>
  <fix>3d</fix>
</trkpt>
<trkpt lat="40.0713749" lon="-105.229789">
  <ele>1583.0</ele>
  <time>2026-08-28T17:54:05Z</time>
  <course>0.0</course>
  <speed>0.0</speed>
  <fix>3d</fix>
</trkpt>
<trkpt lat="40.0713749" lon="-105.229789">
  <ele>1582.98</ele>
  <time>2026-08-28T17:54:05Z</time>
  <course>246.78</course>
  <speed>0.0</speed>
  <fix>3d</fix>
</trkpt>
<trkpt lat="40.0713749" lon="-105.229789">
  <ele>1583.0</ele>
  <time>2026-08-28T17:54:05Z</time>
  <course>0.0</course>
  <speed>0.0</speed>
  <fix>3d</fix>
</trkpt>
<trkpt lat="40.0713749" lon="-105.229789">
  <ele>1582.98</ele>
  <time>2026-08-28T17:54:05Z</time>
  <course>246.78</course>
  <speed>0.0</speed>
  <fix>3d</fix>
</trkpt>
<trkpt lat="40.0713749" lon="-105.229789">
  <ele>1583.0</ele>
  <time>2026-08-28T17:54:05Z</time>
  <course>0.0</course>
  <speed>0.0</speed>
  <fix>3d</fix>
</trkpt>
<trkpt lat="40.0713749" lon="-105.229789">
  <ele>1582.98</ele>
  <time>2026-08-28T17:54:05Z</time>
  <course>246.78</course>
  <speed>0.0</speed>
  <fix>3d</fix>
</trkpt>
<trkpt lat="40.0713749" lon="-105.229789">
  <ele>1583.0</ele>
  <time>2026-08-28T17:54:05Z</time>
  <course>0.0</course>
  <speed>0.0</speed>
  <fix>3d</fix>
</trkpt>
<trkpt lat="40.0713749" lon="-105.229789">
  <ele>1582.98</ele>
  <time>2026-08-28T17:54:05Z</time>
  <course>246.78</course>
  <speed>0.0</speed>
  <fix>3d</fix>
</trkpt>
<trkpt lat="40.0713749" lon="-105.229789">
  <ele>1583.0</ele>
  <time>2026-08-28T17:54:05Z</time>
  <course>0.0</course>
  <speed>0.0</speed>
  <fix>3d</fix>
</trkpt>
<trkpt lat="40.0713749" lon="-105.229789">
  <ele>1582.99</ele>
  <time>2026-08-28T17:54:05Z</time>
  <course>246.78</course>
  <speed>0.0</speed>
  <fix>3d</fix>
</trkpt>
<trkpt lat="40.0713749" lon="-105.229789">
  <ele>1583.0</ele>
  <time>2026-08-28T17:54:05Z</time>
  <course>0.0</course>
  <speed>0.0</speed>
  <fix>3d</fix>
</trkpt>
<trkpt lat="40.0713749" lon="-105.229789">
  <ele>1582.99</ele>
  <time>2026-08-28T17:54:05Z</time>
  <course>246.77</course>
  <speed>0.0</speed>
  <fix>3d</fix>
</trkpt>
<trkpt lat="40.0713749" lon="-105.229789">
  <ele>1583.0</ele>
  <time>2026-08-28T17:54:05Z</time>
  <course>0.0</course>
  <speed>0.0</speed>
  <fix>3d</fix>
</trkpt>
<trkpt lat="40.0713749" lon="-105.229789">
  <ele>1583.0</ele>
  <time>2026-08-28T17:54:05Z</time>
  <course>246.77</course>
  <speed>0.0</speed>
  <fix>3d</fix>
</trkpt>
<trkpt lat="40.0713749" lon="-105.229789">
  <ele>1583.0</ele>
  <time>2026-08-28T17:54:05Z</time>
  <course>0.0</course>
  <speed>0.0</speed>
  <fix>3d</fix>
</trkpt>
<trkpt lat="40.0713749" lon="-105.229789">
  <ele>1583.0</ele>
  <time>2026-08-28T17:54:05Z</time>
  <course>246.77</course>
  <speed>0.0</speed>
  <fix>3d</fix>
</trkpt>
<trkpt lat="40.0713749" lon="-105.229789">
  <ele>1583.0</ele>
  <time>2026-08-28T17:54:05Z</time>
  <course>0.0</course>
  <speed>0.0</speed>
  <fix>3d</fix>
</trkpt>
<trkpt lat="40.0713749" lon="-105.229789">
  <ele>1583.0</ele>
  <time>2026-08-28T17:54:05Z</time>
  <course>246.77</course>
  <speed>0.0</speed>
  <fix>3d</fix>
</trkpt>
<trkpt lat="40.0713749" lon="-105.229789">
  <ele>1583.0</ele>
  <time>2026-08-28T17:54:05Z</time>
  <course>0.0</course>
  <speed>0.0</speed>
  <fix>3d</fix>
</trkpt>
<trkpt lat="40.0713749" lon="-105.229789">
  <ele>1583.0</ele>
  <time>2026-08-28T17:54:05Z</time>
  <course>246.77</course>
  <speed>0.0</speed>
  <fix>3d</fix>
</trkpt>
<trkpt lat="40.0713749" lon="-105.229789">
  <ele>1583.0</ele>
  <time>2026-08-28T17:54:05Z</time>
  <course>0.0</course>
  <speed>0.0</speed>
  <fix>3d</fix>
</trkpt>
<trkpt lat="40.0713749" lon="-105.229789">
  <ele>1583.0</ele>
  <time>2026-08-28T17:54:05Z</time>
  <course>246.76</course>
  <speed>0.0</speed>
  <fix>3d</fix>
</trkpt>
<trkpt lat="40.0713749" lon="-105.229789">
  <ele>1583.0</ele>
  <time>2026-08-28T17:54:05Z</time>
  <course>0.0</course>
  <speed>0.0</speed>
  <fix>3d</fix>
</trkpt>
<trkpt lat="40.0713749" lon="-105.229789">
  <ele>1583.01</ele>
  <time>2026-08-28T17:54:05Z</time>
  <course>246.76</course>
  <speed>0.0</speed>
  <fix>3d</fix>
</trkpt>
<trkpt lat="40.0713749" lon="-105.229789">
  <ele>1583.0</ele>
  <time>2026-08-28T17:54:05Z</time>
  <course>0.0</course>
  <speed>0.0</speed>
  <fix>3d</fix>
</trkpt>
<trkpt lat="40.0713749" lon="-105.229789">
  <ele>1583.01</ele>
  <time>2026-08-28T17:54:05Z</time>
  <course>246.76</course>
  <speed>0.0</speed>
  <fix>3d</fix>
</trkpt>
<trkpt lat="40.0713749" lon="-105.229789">
  <ele>1583.0</ele>
  <time>2026-08-28T17:54:05Z</time>
  <course>0.0</course>
  <speed>0.0</speed>
  <fix>3d</fix>
</trkpt>
<trkpt lat="40.0713749" lon="-105.229789">
  <ele>1583.01</ele>
  <time>2026-08-28T17:54:05Z</time>
  <course>246.76</course>
  <speed>0.0</speed>
  <fix>3d</fix>
</trkpt>
<trkpt lat="40.0713749" lon="-105.229789">
  <ele>1583.0</ele>
  <time>2026-08-28T17:54:05Z</time>
  <course>0.0</course>
  <speed>0.0</speed>
  <fix>3d</fix>
</trkpt>
<trkpt lat="40.0713749" lon="-105.229789">
  <ele>1583.01</ele>
  <time>2026-08-28T17:54:05Z</time>
  <course>246.76</course>
  <speed>0.0</speed>
  <fix>3d</fix>
</trkpt>
<trkpt lat="40.0713749" lon="-105.229789">
  <ele>1583.0</ele>
  <time>2026-08-28T17:54:05Z</time>
  <course>0.0</course>
  <speed>0.0</speed>
  <fix>3d</fix>
</trkpt>
<trkpt lat="40.0713749" lon="-105.229789">
  <ele>1583.01</ele>
  <time>2026-08-28T17:54:05Z</time>
  <course>246.75</course>
  <speed>0.0</speed>
  <fix>3d</fix>
</trkpt>
<trkpt lat="40.0713749" lon="-105.229789">
  <ele>1583.0</ele>
  <time>2026-08-28T17:54:05Z</time>
  <course>0.0</course>
  <speed>0.0</speed>
  <fix>3d</fix>
</trkpt>
<trkpt lat="40.0713749" lon="-105.229789">
  <ele>1583.01</ele>
  <time>2026-08-28T17:54:05Z</time>
  <course>246.75</course>
  <speed>0.0</speed>
  <fix>3d</fix>
</trkpt>
<trkpt lat="40.0713749" lon="-105.229789">
  <ele>1583.0</ele>
  <time>2026-08-28T17:54:05Z</time>
  <course>0.0</course>
  <speed>0.0</speed>
  <fix>3d</fix>
</trkpt>
<trkpt lat="40.0713749" lon="-105.229789">
  <ele>1583.01</ele>
  <time>2026-08-28T17:54:05Z</time>
  <course>246.75</course>
  <speed>0.0</speed>
  <fix>3d</fix>
</trkpt>
<trkpt lat="40.0713749" lon="-105.229789">
  <ele>1583.0</ele>
  <time>2026-08-28T17:54:05Z</time>
  <course>0.0</course>
  <speed>0.0</speed>
  <fix>3d</fix>
</trkpt>
<trkpt lat="40.0713749" lon="-105.229789">
  <ele>1583.01</ele>
  <time>2026-08-28T17:54:05Z</time>
  <course>246.75</course>
  <speed>0.0</speed>
  <fix>3d</fix>
</trkpt>
<trkpt lat="40.0713749" lon="-105.229789">
  <ele>1583.0</ele>
  <time>2026-08-28T17:54:05Z</time>
  <course>0.0</course>
  <speed>0.0</speed>
  <fix>3d</fix>
</trkpt>
<trkpt lat="40.0713749" lon="-105.229789">
  <ele>1583.01</ele>
  <time>2026-08-28T17:54:05Z</time>
  <course>246.75</course>
  <speed>0.0</speed>
  <fix>3d</fix>
</trkpt>
<trkpt lat="40.0713749" lon="-105.229789">
  <ele>1583.0</ele>
  <time>2026-08-28T17:54:05Z</time>
  <course>0.0</course>
  <speed>0.0</speed>
  <fix>3d</fix>
</trkpt>
<trkpt lat="40.0713749" lon="-105.229789">
  <ele>1583.01</ele>
  <time>2026-08-28T17:54:05Z</time>
  <course>246.74</course>
  <speed>0.0</speed>
  <fix>3d</fix>
</trkpt>
<trkpt lat="40.0713749" lon="-105.229789">
  <ele>1583.0</ele>
  <time>2026-08-28T17:54:05Z</time>
  <course>0.0</course>
  <speed>0.0</speed>
  <fix>3d</fix>
</trkpt>
<trkpt lat="40.0713749" lon="-105.229789">
  <ele>1583.01</ele>
  <time>2026-08-28T17:54:05Z</time>
  <course>246.74</course>
  <speed>0.0</speed>
  <fix>3d</fix>
</trkpt>
<trkpt lat="40.0713749" lon="-105.229789">
  <ele>1583.0</ele>
  <time>2026-08-28T17:54:05Z</time>
  <course>0.0</course>
  <speed>0.0</speed>
  <fix>3d</fix>
</trkpt>
<trkpt lat="40.0713749" lon="-105.229789">
  <ele>1583.01</ele>
  <time>2026-08-28T17:54:05Z</time>
  <course>246.74</course>
  <speed>0.0</speed>
  <fix>3d</fix>
</trkpt>
<trkpt lat="40.0713749" lon="-105.229789">
  <ele>1583.0</ele>
  <time>2026-08-28T17:54:05Z</time>
  <course>0.0</course>
  <speed>0.0</speed>
  <fix>3d</fix>
</trkpt>
<trkpt lat="40.0713749" lon="-105.229789">
  <ele>1583.0</ele>
  <time>2026-08-28T17:54:05Z</time>
  <course>246.74</course>
  <speed>0.0</speed>
  <fix>3d</fix>
</trkpt>
<trkpt lat="40.0713749" lon="-105.229789">
  <ele>1583.0</ele>
  <time>2026-08-28T17:54:05Z</time>
  <course>0.0</course>
  <speed>0.0</speed>
  <fix>3d</fix>
</trkpt>
<trkpt lat="40.0713749" lon="-105.229789">
  <ele>1583.0</ele>
  <time>2026-08-28T17:54:05Z</time>
  <course>246.73</course>
  <speed>0.0</speed>
  <fix>3d</fix>
</trkpt>
<trkpt lat="40.0713749" lon="-105.229789">
  <ele>1583.0</ele>
  <time>2026-08-28T17:54:05Z</time>
  <course>0.0</course>
  <speed>0.0</speed>
  <fix>3d</fix>
</trkpt>
<trkpt lat="40.0713749" lon="-105.229789">
  <ele>1583.0</ele>
  <time>2026-08-28T17:54:05Z</time>
  <course>246.73</course>
  <speed>0.0</speed>
  <fix>3d</fix>
</trkpt>
<trkpt lat="40.0713749" lon="-105.229789">
  <ele>1583.0</ele>
  <time>2026-08-28T17:54:05Z</time>
  <course>0.0</course>
  <speed>0.0</speed>
  <fix>3d</fix>
</trkpt>
<trkpt lat="40.0713749" lon="-105.229789">
  <ele>1583.0</ele>
  <time>2026-08-28T17:54:05Z</time>
  <course>246.73</course>
  <speed>0.0</speed>
  <fix>3d</fix>
</trkpt>
<trkpt lat="40.0713749" lon="-105.229789">
  <ele>1583.0</ele>
  <time>2026-08-28T17:54:05Z</time>
  <course>0.0</course>
  <speed>0.0</speed>
  <fix>3d</fix>
</trkpt>
<trkpt lat="40.0713749" lon="-105.229789">
  <ele>1583.0</ele>
  <time>2026-08-28T17:54:05Z</time>
  <course>246.73</course>
  <speed>0.0</speed>
  <fix>3d</fix>
</trkpt>
<trkpt lat="40.0713749" lon="-105.229789">
  <ele>1583.0</ele>
  <time>2026-08-28T17:54:05Z</time>
  <course>0.0</course>
  <speed>0.0</speed>
  <fix>3d</fix>
</trkpt>
<trkpt lat="40.0713749" lon="-105.229789">
  <ele>1583.0</ele>
  <time>2026-08-28T17:54:05Z</time>
  <course>246.72</course>
  <speed>0.0</speed>
  <fix>3d</fix>
</trkpt>
<trkpt lat="40.0713749" lon="-105.229789">
  <ele>1583.0</ele>
  <time>2026-08-28T17:54:05Z</time>
  <course>0.0</course>
  <speed>0.0</speed>
  <fix>3d</fix>
</trkpt>
<trkpt lat="40.0713749" lon="-105.229789">
  <ele>1583.0</ele>
  <time>2026-08-28T17:54:05Z</time>
  <course>246.72</course>
  <speed>0.0</speed>
  <fix>3d</fix>
</trkpt>
<trkpt lat="40.0713749" lon="-105.229789">
  <ele>1583.0</ele>
  <time>2026-08-28T17:54:05Z</time>
  <course>0.0</course>
  <speed>0.0</speed>
  <fix>3d</fix>
</trkpt>
<trkpt lat="40.0713749" lon="-105.229789">
  <ele>1583.0</ele>
  <time>2026-08-28T17:54:05Z</time>
  <course>246.72</course>
  <speed>0.0</speed>
  <fix>3d</fix>
</trkpt>
<trkpt lat="40.0713749" lon="-105.229789">
  <ele>1583.0</ele>
  <time>2026-08-28T17:54:05Z</time>
  <course>0.0</course>
  <speed>0.0</speed>
  <fix>3d</fix>
</trkpt>
<trkpt lat="40.0713749" lon="-105.229789">
  <ele>1583.0</ele>
  <time>2026-08-28T17:54:05Z</time>
  <course>246.72</course>
  <speed>0.0</speed>
  <fix>3d</fix>
</trkpt>
<trkpt lat="40.0713749" lon="-105.229789">
  <ele>1583.0</ele>
  <time>2026-08-28T17:54:05Z</time>
  <course>0.0</course>
  <speed>0.0</speed>
  <fix>3d</fix>
</trkpt>
<trkpt lat="40.0713749" lon="-105.229789">
  <ele>1583.0</ele>
  <time>2026-08-28T17:54:05Z</time>
  <course>246.72</course>
  <speed>0.0</speed>
  <fix>3d</fix>
</trkpt>
<trkpt lat="40.0713749" lon="-105.229789">
  <ele>1583.0</ele>
  <time>2026-08-28T17:54:05Z</time>
  <course>0.0</course>
  <speed>0.0</speed>
  <fix>3d</fix>
</trkpt>
<trkpt lat="40.0713749" lon="-105.229789">
  <ele>1583.0</ele>
  <time>2026-08-28T17:54:05Z</time>
  <course>246.71</course>
  <speed>0.0</speed>
  <fix>3d</fix>
</trkpt>
<trkpt lat="40.0713749" lon="-105.229789">
  <ele>1583.0</ele>
  <time>2026-08-28T17:54:05Z</time>
  <course>0.0</course>
  <speed>0.0</speed>
  <fix>3d</fix>
</trkpt>
<trkpt lat="40.0713749" lon="-105.229789">
  <ele>1583.0</ele>
  <time>2026-08-28T17:54:05Z</time>
  <course>246.71</course>
  <speed>0.0</speed>
  <fix>3d</fix>
</trkpt>
<trkpt lat="40.0713749" lon="-105.229789">
  <ele>1583.0</ele>
  <time>2026-08-28T17:54:05Z</time>
  <course>0.0</course>
  <speed>0.0</speed>
  <fix>3d</fix>
</trkpt>
<trkpt lat="40.0713749" lon="-105.229789">
  <ele>1583.0</ele>
  <time>2026-08-28T17:54:05Z</time>
  <course>246.71</course>
  <speed>0.0</speed>
  <fix>3d</fix>
</trkpt>
<trkpt lat="40.0713749" lon="-105.229789">
  <ele>1583.0</ele>
  <time>2026-08-28T17:54:05Z</time>
  <course>0.0</course>
  <speed>0.0</speed>
  <fix>3d</fix>
</trkpt>
<trkpt lat="40.0713749" lon="-105.229789">
  <ele>1583.0</ele>
  <time>2026-08-28T17:54:05Z</time>
  <course>246.71</course>
  <speed>0.0</speed>
  <fix>3d</fix>
</trkpt>
<trkpt lat="40.0713749" lon="-105.229789">
  <ele>1583.0</ele>
  <time>2026-08-28T17:54:05Z</time>
  <course>0.0</course>
  <speed>0.0</speed>
  <fix>3d</fix>
</trkpt>
<trkpt lat="40.0713749" lon="-105.229789">
  <ele>1583.0</ele>
  <time>2026-08-28T17:54:05Z</time>
  <course>246.7</course>
  <speed>0.0</speed>
  <fix>3d</fix>
</trkpt>
<trkpt lat="40.0713749" lon="-105.229789">
  <ele>1583.0</ele>
  <time>2026-08-28T17:54:05Z</time>
  <course>0.0</course>
  <speed>0.0</speed>
  <fix>3d</fix>
</trkpt>
<trkpt lat="40.0713749" lon="-105.229789">
  <ele>1583.0</ele>
  <time>2026-08-28T17:54:05Z</time>
  <course>246.7</course>
  <speed>0.0</speed>
  <fix>3d</fix>
</trkpt>
<trkpt lat="40.0713749" lon="-105.229789">
  <ele>1583.0</ele>
  <time>2026-08-28T17:54:05Z</time>
  <course>0.0</course>
  <speed>0.0</speed>
  <fix>3d</fix>
</trkpt>
<trkpt lat="40.0713749" lon="-105.229789">
  <ele>1583.0</ele>
  <time>2026-08-28T17:54:05Z</time>
  <course>246.7</course>
  <speed>0.0</speed>
  <fix>3d</fix>
</trkpt>
<trkpt lat="40.0713749" lon="-105.229789">
  <ele>1583.0</ele>
  <time>2026-08-28T17:54:05Z</time>
  <course>0.0</course>
  <speed>0.0</speed>
  <fix>3d</fix>
</trkpt>
<trkpt lat="40.0713749" lon="-105.229789">
  <ele>1583.0</ele>
  <time>2026-08-28T17:54:05Z</time>
  <course>246.7</course>
  <speed>0.0</speed>
  <fix>3d</fix>
</trkpt>
<trkpt lat="40.0713749" lon="-105.229789">
  <ele>1583.0</ele>
  <time>2026-08-28T17:54:05Z</time>
  <course>0.0</course>
  <speed>0.0</speed>
  <fix>3d</fix>
</trkpt>
<trkpt lat="40.0713749" lon="-105.229789">
  <ele>1583.0</ele>
  <time>2026-08-28T17:54:05Z</time>
  <course>246.7</course>
  <speed>0.0</speed>
  <fix>3d</fix>
</trkpt>
<trkpt lat="40.0713749" lon="-105.229789">
  <ele>1583.0</ele>
  <time>2026-08-28T17:54:05Z</time>
  <course>0.0</course>
  <speed>0.0</speed>
  <fix>3d</fix>
</trkpt>
<trkpt lat="40.0713749" lon="-105.229789">
  <ele>1583.0</ele>
  <time>2026-08-28T17:54:05Z</time>
  <course>246.69</course>
  <speed>0.0</speed>
  <fix>3d</fix>
</trkpt>
<trkpt lat="40.0713749" lon="-105.229789">
  <ele>1583.0</ele>
  <time>2026-08-28T17:54:05Z</time>
  <course>0.0</course>
  <speed>0.0</speed>
  <fix>3d</fix>
</trkpt>
<trkpt lat="40.0713749" lon="-105.229789">
  <ele>1583.0</ele>
  <time>2026-08-28T17:54:05Z</time>
  <course>246.69</course>
  <speed>0.0</speed>
  <fix>3d</fix>
</trkpt>
<trkpt lat="40.0713749" lon="-105.229789">
  <ele>1583.0</ele>
  <time>2026-08-28T17:54:05Z</time>
  <course>0.0</course>
  <speed>0.0</speed>
  <fix>3d</fix>
</trkpt>
<trkpt lat="40.0713749" lon="-105.229789">
  <ele>1583.0</ele>
  <time>2026-08-28T17:54:05Z</time>
  <course>246.69</course>
  <speed>0.0</speed>
  <fix>3d</fix>
</trkpt>
<trkpt lat="40.0713749" lon="-105.229789">
  <ele>1583.0</ele>
  <time>2026-08-28T17:54:05Z</time>
  <course>0.0</course>
  <speed>0.0</speed>
  <fix>3d</fix>
</trkpt>
<trkpt lat="40.0713749" lon="-105.229789">
  <ele>1583.0</ele>
  <time>2026-08-28T17:54:05Z</time>
  <course>246.69</course>
  <speed>0.0</speed>
  <fix>3d</fix>
</trkpt>
<trkpt lat="40.0713749" lon="-105.229789">
  <ele>1583.0</ele>
  <time>2026-08-28T17:54:05Z</time>
  <course>0.0</course>
  <speed>0.0</speed>
  <fix>3d</fix>
</trkpt>
<trkpt lat="40.0713749" lon="-105.229789">
  <ele>1583.0</ele>
  <time>2026-08-28T17:54:05Z</time>
  <course>246.68</course>
  <speed>0.0</speed>
  <fix>3d</fix>
</trkpt>
<trkpt lat="40.0713749" lon="-105.229789">
  <ele>1583.0</ele>
  <time>2026-08-28T17:54:05Z</time>
  <course>0.0</course>
  <speed>0.0</speed>
  <fix>3d</fix>
</trkpt>
<trkpt lat="40.0713749" lon="-105.229789">
  <ele>1583.0</ele>
  <time>2026-08-28T17:54:05Z</time>
  <course>246.68</course>
  <speed>0.0</speed>
  <fix>3d</fix>
</trkpt>
<trkpt lat="40.0713749" lon="-105.229789">
  <ele>1583.0</ele>
  <time>2026-08-28T17:54:05Z</time>
  <course>0.0</course>
  <speed>0.0</speed>
  <fix>3d</fix>
</trkpt>
<trkpt lat="40.0713749" lon="-105.229789">
  <ele>1583.0</ele>
  <time>2026-08-28T17:54:05Z</time>
  <course>246.68</course>
  <speed>0.0</speed>
  <fix>3d</fix>
</trkpt>
<trkpt lat="40.0713749" lon="-105.229789">
  <ele>1583.0</ele>
  <time>2026-08-28T17:54:05Z</time>
  <course>0.0</course>
  <speed>0.0</speed>
  <fix>3d</fix>
</trkpt>
<trkpt lat="40.0713749" lon="-105.229789">
  <ele>1583.0</ele>
  <time>2026-08-28T17:54:05Z</time>
  <course>246.68</course>
  <speed>0.0</speed>
  <fix>3d</fix>
</trkpt>
<trkpt lat="40.0713749" lon="-105.229789">
  <ele>1583.0</ele>
  <time>2026-08-28T17:54:05Z</time>
  <course>0.0</course>
  <speed>0.0</speed>
  <fix>3d</fix>
</trkpt>
<trkpt lat="40.0713749" lon="-105.229789">
  <ele>1583.0</ele>
  <time>2026-08-28T17:54:05Z</time>
  <course>246.67</course>
  <speed>0.0</speed>
  <fix>3d</fix>
</trkpt>
<trkpt lat="40.0713749" lon="-105.229789">
  <ele>1583.0</ele>
  <time>2026-08-28T17:54:05Z</time>
  <course>0.0</course>
  <speed>0.0</speed>
  <fix>3d</fix>
</trkpt>
<trkpt lat="40.0713749" lon="-105.229789">
  <ele>1582.99</ele>
  <time>2026-08-28T17:54:05Z</time>
  <course>246.67</course>
  <speed>0.0</speed>
  <fix>3d</fix>
</trkpt>
<trkpt lat="40.0713749" lon="-105.229789">
  <ele>1583.0</ele>
  <time>2026-08-28T17:54:05Z</time>
  <course>0.0</course>
  <speed>0.0</speed>
  <fix>3d</fix>
</trkpt>
<trkpt lat="40.0713749" lon="-105.229789">
  <ele>1582.99</ele>
  <time>2026-08-28T17:54:05Z</time>
  <course>246.67</course>
  <speed>0.0</speed>
  <fix>3d</fix>
</trkpt>
<trkpt lat="40.0713749" lon="-105.229789">
  <ele>1583.0</ele>
  <time>2026-08-28T17:54:05Z</time>
  <course>0.0</course>
  <speed>0.0</speed>
  <fix>3d</fix>
</trkpt>
<trkpt lat="40.0713749" lon="-105.229789">
  <ele>1582.99</ele>
  <time>2026-08-28T17:54:05Z</time>
  <course>246.67</course>
  <speed>0.0</speed>
  <fix>3d</fix>
</trkpt>
<trkpt lat="40.0713749" lon="-105.229789">
  <ele>1583.0</ele>
  <time>2026-08-28T17:54:05Z</time>
  <course>0.0</course>
  <speed>0.0</speed>
  <fix>3d</fix>
</trkpt>
<trkpt lat="40.0713749" lon="-105.229789">
  <ele>1582.99</ele>
  <time>2026-08-28T17:54:05Z</time>
  <course>246.66</course>
  <speed>0.0</speed>
  <fix>3d</fix>
</trkpt>
<trkpt lat="40.0713749" lon="-105.229789">
  <ele>1583.0</ele>
  <time>2026-08-28T17:54:05Z</time>
  <course>0.0</course>
  <speed>0.0</speed>
  <fix>3d</fix>
</trkpt>
<trkpt lat="40.0713749" lon="-105.229789">
  <ele>1582.98</ele>
  <time>2026-08-28T17:54:05Z</time>
  <course>246.66</course>
  <speed>0.0</speed>
  <fix>3d</fix>
</trkpt>
<trkpt lat="40.0713749" lon="-105.229789">
  <ele>1583.0</ele>
  <time>2026-08-28T17:54:05Z</time>
  <course>0.0</course>
  <speed>0.0</speed>
  <fix>3d</fix>
</trkpt>
<trkpt lat="40.0713749" lon="-105.229789">
  <ele>1582.98</ele>
  <time>2026-08-28T17:54:05Z</time>
  <course>246.66</course>
  <speed>0.0</speed>
  <fix>3d</fix>
</trkpt>
<trkpt lat="40.0713749" lon="-105.229789">
  <ele>1583.0</ele>
  <time>2026-08-28T17:54:05Z</time>
  <course>0.0</course>
  <speed>0.0</speed>
  <fix>3d</fix>
</trkpt>
<trkpt lat="40.0713749" lon="-105.229789">
  <ele>1582.98</ele>
  <time>2026-08-28T17:54:05Z</time>
  <course>246.66</course>
  <speed>0.0</speed>
  <fix>3d</fix>
</trkpt>
<trkpt lat="40.0713749" lon="-105.229789">
  <ele>1583.0</ele>
  <time>2026-08-28T17:54:05Z</time>
  <course>0.0</course>
  <speed>0.0</speed>
  <fix>3d</fix>
</trkpt>
<trkpt lat="40.0713749" lon="-105.229789">
  <ele>1582.97</ele>
  <time>2026-08-28T17:54:05Z</time>
  <course>246.65</course>
  <speed>0.01</speed>
  <fix>3d</fix>
</trkpt>
<trkpt lat="40.0713749" lon="-105.229789">
  <ele>1583.0</ele>
  <time>2026-08-28T17:54:05Z</time>
  <course>0.0</course>
  <speed>0.0</speed>
  <fix>3d</fix>
</trkpt>
<trkpt lat="40.0713749" lon="-105.229789">
  <ele>1582.97</ele>
  <time>2026-08-28T17:54:05Z</time>
  <course>246.65</course>
  <speed>0.01</speed>
  <fix>3d</fix>
</trkpt>
<trkpt lat="40.0713749" lon="-105.229789">
  <ele>1583.0</ele>
  <time>2026-08-28T17:54:05Z</time>
  <course>0.0</course>
  <speed>0.0</speed>
  <fix>3d</fix>
</trkpt>
<trkpt lat="40.0713749" lon="-105.229789">
  <ele>1582.97</ele>
  <time>2026-08-28T17:54:05Z</time>
  <course>246.65</course>
  <speed>0.01</speed>
  <fix>3d</fix>
</trkpt>
<trkpt lat="40.0713749" lon="-105.229789">
  <ele>1583.0</ele>
  <time>2026-08-28T17:54:05Z</time>
  <course>0.0</course>
  <speed>0.0</speed>
  <fix>3d</fix>
</trkpt>
<trkpt lat="40.0713749" lon="-105.229789">
  <ele>1582.97</ele>
  <time>2026-08-28T17:54:05Z</time>
  <course>246.65</course>
  <speed>0.01</speed>
  <fix>3d</fix>
</trkpt>
<trkpt lat="40.0713749" lon="-105.229789">
  <ele>1583.0</ele>
  <time>2026-08-28T17:54:05Z</time>
  <course>0.0</course>
  <speed>0.0</speed>
  <fix>3d</fix>
</trkpt>
<trkpt lat="40.0713749" lon="-105.229789">
  <ele>1582.97</ele>
  <time>2026-08-28T17:54:05Z</time>
  <course>246.65</course>
  <speed>0.01</speed>
  <fix>3d</fix>
</trkpt>
<trkpt lat="40.0713749" lon="-105.229789">
  <ele>1583.0</ele>
  <time>2026-08-28T17:54:05Z</time>
  <course>0.0</course>
  <speed>0.0</speed>
  <fix>3d</fix>
</trkpt>
<trkpt lat="40.0713749" lon="-105.229789">
  <ele>1582.97</ele>
  <time>2026-08-28T17:54:05Z</time>
  <course>246.64</course>
  <speed>0.01</speed>
  <fix>3d</fix>
</trkpt>
<trkpt lat="40.0713749" lon="-105.229789">
  <ele>1583.0</ele>
  <time>2026-08-28T17:54:05Z</time>
  <course>0.0</course>
  <speed>0.0</speed>
  <fix>3d</fix>
</trkpt>
<trkpt lat="40.0713749" lon="-105.229789">
  <ele>1582.98</ele>
  <time>2026-08-28T17:54:05Z</time>
  <course>246.64</course>
  <speed>0.01</speed>
  <fix>3d</fix>
</trkpt>
<trkpt lat="40.0713749" lon="-105.229789">
  <ele>1583.0</ele>
  <time>2026-08-28T17:54:05Z</time>
  <course>0.0</course>
  <speed>0.0</speed>
  <fix>3d</fix>
</trkpt>
<trkpt lat="40.0713749" lon="-105.229789">
  <ele>1582.98</ele>
  <time>2026-08-28T17:54:05Z</time>
  <course>246.64</course>
  <speed>0.01</speed>
  <fix>3d</fix>
</trkpt>
<trkpt lat="40.0713749" lon="-105.229789">
  <ele>1583.0</ele>
  <time>2026-08-28T17:54:05Z</time>
  <course>0.0</course>
  <speed>0.0</speed>
  <fix>3d</fix>
</trkpt>
<trkpt lat="40.0713749" lon="-105.229789">
  <ele>1582.98</ele>
  <time>2026-08-28T17:54:05Z</time>
  <course>246.64</course>
  <speed>0.01</speed>
  <fix>3d</fix>
</trkpt>
<trkpt lat="40.0713749" lon="-105.229789">
  <ele>1583.0</ele>
  <time>2026-08-28T17:54:05Z</time>
  <course>0.0</course>
  <speed>0.0</speed>
  <fix>3d</fix>
</trkpt>
<trkpt lat="40.0713749" lon="-105.229789">
  <ele>1582.99</ele>
  <time>2026-08-28T17:54:05Z</time>
  <course>246.63</course>
  <speed>0.01</speed>
  <fix>3d</fix>
</trkpt>
<trkpt lat="40.0713749" lon="-105.229789">
  <ele>1583.0</ele>
  <time>2026-08-28T17:54:05Z</time>
  <course>0.0</course>
  <speed>0.0</speed>
  <fix>3d</fix>
</trkpt>
<trkpt lat="40.0713749" lon="-105.229789">
  <ele>1582.99</ele>
  <time>2026-08-28T17:54:05Z</time>
  <course>246.63</course>
  <speed>0.01</speed>
  <fix>3d</fix>
</trkpt>
<trkpt lat="40.0713749" lon="-105.229789">
  <ele>1583.0</ele>
  <time>2026-08-28T17:54:05Z</time>
  <course>0.0</course>
  <speed>0.0</speed>
  <fix>3d</fix>
</trkpt>
<trkpt lat="40.0713749" lon="-105.229789">
  <ele>1582.99</ele>
  <time>2026-08-28T17:54:05Z</time>
  <course>246.63</course>
  <speed>0.01</speed>
  <fix>3d</fix>
</trkpt>
<trkpt lat="40.0713749" lon="-105.229789">
  <ele>1583.0</ele>
  <time>2026-08-28T17:54:05Z</time>
  <course>0.0</course>
  <speed>0.0</speed>
  <fix>3d</fix>
</trkpt>
<trkpt lat="40.0713749" lon="-105.229789">
  <ele>1583.0</ele>
  <time>2026-08-28T17:54:05Z</time>
  <course>246.63</course>
  <speed>0.01</speed>
  <fix>3d</fix>
</trkpt>
<trkpt lat="40.0713749" lon="-105.229789">
  <ele>1583.0</ele>
  <time>2026-08-28T17:54:05Z</time>
  <course>0.0</course>
  <speed>0.0</speed>
  <fix>3d</fix>
</trkpt>
<trkpt lat="40.0713749" lon="-105.229789">
  <ele>1583.0</ele>
  <time>2026-08-28T17:54:05Z</time>
  <course>246.62</course>
  <speed>0.01</speed>
  <fix>3d</fix>
</trkpt>
<trkpt lat="40.0713749" lon="-105.229789">
  <ele>1583.0</ele>
  <time>2026-08-28T17:54:05Z</time>
  <course>0.0</course>
  <speed>0.0</speed>
  <fix>3d</fix>
</trkpt>
<trkpt lat="40.0713749" lon="-105.229789">
  <ele>1583.0</ele>
  <time>2026-08-28T17:54:05Z</time>
  <course>246.62</course>
  <speed>0.01</speed>
  <fix>3d</fix>
</trkpt>
<trkpt lat="40.0713749" lon="-105.229789">
  <ele>1583.0</ele>
  <time>2026-08-28T17:54:05Z</time>
  <course>0.0</course>
  <speed>0.0</speed>
  <fix>3d</fix>
</trkpt>
<trkpt lat="40.0713749" lon="-105.229789">
  <ele>1583.01</ele>
  <time>2026-08-28T17:54:05Z</time>
  <course>246.62</course>
  <speed>0.01</speed>
  <fix>3d</fix>
</trkpt>
<trkpt lat="40.0713749" lon="-105.229789">
  <ele>1583.0</ele>
  <time>2026-08-28T17:54:05Z</time>
  <course>0.0</course>
  <speed>0.0</speed>
  <fix>3d</fix>
</trkpt>
<trkpt lat="40.0713749" lon="-105.229789">
  <ele>1583.01</ele>
  <time>2026-08-28T17:54:05Z</time>
  <course>246.62</course>
  <speed>0.01</speed>
  <fix>3d</fix>
</trkpt>
<trkpt lat="40.0713749" lon="-105.229789">
  <ele>1583.0</ele>
  <time>2026-08-28T17:54:05Z</time>
  <course>0.0</course>
  <speed>0.0</speed>
  <fix>3d</fix>
</trkpt>
<trkpt lat="40.0713749" lon="-105.229789">
  <ele>1583.01</ele>
  <time>2026-08-28T17:54:05Z</time>
  <course>246.61</course>
  <speed>0.01</speed>
  <fix>3d</fix>
</trkpt>
<trkpt lat="40.0713749" lon="-105.229789">
  <ele>1583.0</ele>
  <time>2026-08-28T17:54:05Z</time>
  <course>0.0</course>
  <speed>0.0</speed>
  <fix>3d</fix>
</trkpt>
<trkpt lat="40.0713749" lon="-105.229789">
  <ele>1583.01</ele>
  <time>2026-08-28T17:54:05Z</time>
  <course>246.61</course>
  <speed>0.01</speed>
  <fix>3d</fix>
</trkpt>
<trkpt lat="40.0713749" lon="-105.229789">
  <ele>1583.0</ele>
  <time>2026-08-28T17:54:05Z</time>
  <course>0.0</course>
  <speed>0.0</speed>
  <fix>3d</fix>
</trkpt>
<trkpt lat="40.0713749" lon="-105.229789">
  <ele>1583.01</ele>
  <time>2026-08-28T17:54:05Z</time>
  <course>246.61</course>
  <speed>0.01</speed>
  <fix>3d</fix>
</trkpt>
<trkpt lat="40.0713749" lon="-105.229789">
  <ele>1583.0</ele>
  <time>2026-08-28T17:54:05Z</time>
  <course>0.0</course>
  <speed>0.0</speed>
  <fix>3d</fix>
</trkpt>
<trkpt lat="40.0713749" lon="-105.229789">
  <ele>1583.01</ele>
  <time>2026-08-28T17:54:05Z</time>
  <course>246.61</course>
  <speed>0.01</speed>
  <fix>3d</fix>
</trkpt>
<trkpt lat="40.0713749" lon="-105.229789">
  <ele>1583.0</ele>
  <time>2026-08-28T17:54:05Z</time>
  <course>0.0</course>
  <speed>0.0</speed>
  <fix>3d</fix>
</trkpt>
<trkpt lat="40.0713749" lon="-105.229789">
  <ele>1583.0</ele>
  <time>2026-08-28T17:54:05Z</time>
  <course>246.6</course>
  <speed>0.01</speed>
  <fix>3d</fix>
</trkpt>
<trkpt lat="40.0713749" lon="-105.229789">
  <ele>1583.0</ele>
  <time>2026-08-28T17:54:05Z</time>
  <course>0.0</course>
  <speed>0.0</speed>
  <fix>3d</fix>
</trkpt>
<trkpt lat="40.0713749" lon="-105.229789">
  <ele>1583.0</ele>
  <time>2026-08-28T17:54:05Z</time>
  <course>246.6</course>
  <speed>0.01</speed>
  <fix>3d</fix>
</trkpt>
<trkpt lat="40.0713749" lon="-105.229789">
  <ele>1583.0</ele>
  <time>2026-08-28T17:54:05Z</time>
  <course>0.0</course>
  <speed>0.0</speed>
  <fix>3d</fix>
</trkpt>
<trkpt lat="40.0713749" lon="-105.229789">
  <ele>1583.0</ele>
  <time>2026-08-28T17:54:05Z</time>
  <course>246.6</course>
  <speed>0.01</speed>
  <fix>3d</fix>
</trkpt>
<trkpt lat="40.0713749" lon="-105.229789">
  <ele>1583.0</ele>
  <time>2026-08-28T17:54:05Z</time>
  <course>0.0</course>
  <speed>0.0</speed>
  <fix>3d</fix>
</trkpt>
<trkpt lat="40.0713749" lon="-105.229789">
  <ele>1583.01</ele>
  <time>2026-08-28T17:54:05Z</time>
  <course>246.6</course>
  <speed>0.01</speed>
  <fix>3d</fix>
</trkpt>
<trkpt lat="40.0713749" lon="-105.229789">
  <ele>1583.0</ele>
  <time>2026-08-28T17:54:05Z</time>
  <course>0.0</course>
  <speed>0.0</speed>
  <fix>3d</fix>
</trkpt>
<trkpt lat="40.0713749" lon="-105.229789">
  <ele>1583.01</ele>
  <time>2026-08-28T17:54:05Z</time>
  <course>246.59</course>
  <speed>0.01</speed>
  <fix>3d</fix>
</trkpt>
<trkpt lat="40.0713749" lon="-105.229789">
  <ele>1583.0</ele>
  <time>2026-08-28T17:54:05Z</time>
  <course>0.0</course>
  <speed>0.0</speed>
  <fix>3d</fix>
</trkpt>
<trkpt lat="40.0713749" lon="-105.229789">
  <ele>1583.01</ele>
  <time>2026-08-28T17:54:05Z</time>
  <course>246.59</course>
  <speed>0.01</speed>
  <fix>3d</fix>
</trkpt>
<trkpt lat="40.0713749" lon="-105.229789">
  <ele>1583.0</ele>
  <time>2026-08-28T17:54:05Z</time>
  <course>0.0</course>
  <speed>0.0</speed>
  <fix>3d</fix>
</trkpt>
<trkpt lat="40.0713749" lon="-105.229789">
  <ele>1583.0</ele>
  <time>2026-08-28T17:54:05Z</time>
  <course>246.59</course>
  <speed>0.01</speed>
  <fix>3d</fix>
</trkpt>
<trkpt lat="40.0713749" lon="-105.229789">
  <ele>1583.0</ele>
  <time>2026-08-28T17:54:05Z</time>
  <course>0.0</course>
  <speed>0.0</speed>
  <fix>3d</fix>
</trkpt>
<trkpt lat="40.0713749" lon="-105.229789">
  <ele>1583.0</ele>
  <time>2026-08-28T17:54:05Z</time>
  <course>246.59</course>
  <speed>0.01</speed>
  <fix>3d</fix>
</trkpt>
<trkpt lat="40.0713749" lon="-105.229789">
  <ele>1583.0</ele>
  <time>2026-08-28T17:54:05Z</time>
  <course>0.0</course>
  <speed>0.0</speed>
  <fix>3d</fix>
</trkpt>
<trkpt lat="40.0713749" lon="-105.229789">
  <ele>1583.0</ele>
  <time>2026-08-28T17:54:05Z</time>
  <course>246.58</course>
  <speed>0.01</speed>
  <fix>3d</fix>
</trkpt>
<trkpt lat="40.0713749" lon="-105.229789">
  <ele>1583.0</ele>
  <time>2026-08-28T17:54:05Z</time>
  <course>0.0</course>
  <speed>0.0</speed>
  <fix>3d</fix>
</trkpt>
<trkpt lat="40.0713749" lon="-105.229789">
  <ele>1582.99</ele>
  <time>2026-08-28T17:54:05Z</time>
  <course>246.58</course>
  <speed>0.01</speed>
  <fix>3d</fix>
</trkpt>
<trkpt lat="40.0713749" lon="-105.229789">
  <ele>1583.0</ele>
  <time>2026-08-28T17:54:05Z</time>
  <course>0.0</course>
  <speed>0.0</speed>
  <fix>3d</fix>
</trkpt>
<trkpt lat="40.0713749" lon="-105.229789">
  <ele>1582.99</ele>
  <time>2026-08-28T17:54:05Z</time>
  <course>246.58</course>
  <speed>0.01</speed>
  <fix>3d</fix>
</trkpt>
<trkpt lat="40.0713749" lon="-105.229789">
  <ele>1583.0</ele>
  <time>2026-08-28T17:54:05Z</time>
  <course>0.0</course>
  <speed>0.0</speed>
  <fix>3d</fix>
</trkpt>
<trkpt lat="40.0713749" lon="-105.229789">
  <ele>1582.99</ele>
  <time>2026-08-28T17:54:05Z</time>
  <course>246.58</course>
  <speed>0.01</speed>
  <fix>3d</fix>
</trkpt>
<trkpt lat="40.0713749" lon="-105.229789">
  <ele>1583.0</ele>
  <time>2026-08-28T17:54:05Z</time>
  <course>0.0</course>
  <speed>0.0</speed>
  <fix>3d</fix>
</trkpt>
<trkpt lat="40.0713749" lon="-105.229789">
  <ele>1582.99</ele>
  <time>2026-08-28T17:54:05Z</time>
  <course>246.57</course>
  <speed>0.01</speed>
  <fix>3d</fix>
</trkpt>
<trkpt lat="40.0713749" lon="-105.229789">
  <ele>1583.0</ele>
  <time>2026-08-28T17:54:05Z</time>
  <course>0.0</course>
  <speed>0.0</speed>
  <fix>3d</fix>
</trkpt>
<trkpt lat="40.0713748" lon="-105.229789">
  <ele>1582.99</ele>
  <time>2026-08-28T17:54:05Z</time>
  <course>246.57</course>
  <speed>0.01</speed>
  <fix>3d</fix>
</trkpt>
<trkpt lat="40.0713749" lon="-105.229789">
  <ele>1583.0</ele>
  <time>2026-08-28T17:54:05Z</time>
  <course>0.0</course>
  <speed>0.0</speed>
  <fix>3d</fix>
</trkpt>
<trkpt lat="40.0713748" lon="-105.229789">
  <ele>1582.99</ele>
  <time>2026-08-28T17:54:05Z</time>
  <course>246.57</course>
  <speed>0.01</speed>
  <fix>3d</fix>
</trkpt>
<trkpt lat="40.0713749" lon="-105.229789">
  <ele>1583.0</ele>
  <time>2026-08-28T17:54:05Z</time>
  <course>0.0</course>
  <speed>0.0</speed>
  <fix>3d</fix>
</trkpt>
<trkpt lat="40.0713748" lon="-105.229789">
  <ele>1582.99</ele>
  <time>2026-08-28T17:54:05Z</time>
  <course>246.57</course>
  <speed>0.01</speed>
  <fix>3d</fix>
</trkpt>
<trkpt lat="40.0713749" lon="-105.229789">
  <ele>1583.0</ele>
  <time>2026-08-28T17:54:05Z</time>
  <course>0.0</course>
  <speed>0.0</speed>
  <fix>3d</fix>
</trkpt>
<trkpt lat="40.0713748" lon="-105.229789">
  <ele>1582.99</ele>
  <time>2026-08-28T17:54:05Z</time>
  <course>246.56</course>
  <speed>0.01</speed>
  <fix>3d</fix>
</trkpt>
<trkpt lat="40.0713749" lon="-105.229789">
  <ele>1583.0</ele>
  <time>2026-08-28T17:54:05Z</time>
  <course>0.0</course>
  <speed>0.0</speed>
  <fix>3d</fix>
</trkpt>
<trkpt lat="40.0713748" lon="-105.229789">
  <ele>1582.98</ele>
  <time>2026-08-28T17:54:05Z</time>
  <course>246.56</course>
  <speed>0.01</speed>
  <fix>3d</fix>
</trkpt>
<trkpt lat="40.0713749" lon="-105.229789">
  <ele>1583.0</ele>
  <time>2026-08-28T17:54:05Z</time>
  <course>0.0</course>
  <speed>0.0</speed>
  <fix>3d</fix>
</trkpt>
<trkpt lat="40.0713748" lon="-105.229789">
  <ele>1582.98</ele>
  <time>2026-08-28T17:54:05Z</time>
  <course>246.56</course>
  <speed>0.01</speed>
  <fix>3d</fix>
</trkpt>
<trkpt lat="40.0713749" lon="-105.229789">
  <ele>1583.0</ele>
  <time>2026-08-28T17:54:05Z</time>
  <course>0.0</course>
  <speed>0.0</speed>
  <fix>3d</fix>
</trkpt>
<trkpt lat="40.0713748" lon="-105.229789">
  <ele>1582.98</ele>
  <time>2026-08-28T17:54:05Z</time>
  <course>246.56</course>
  <speed>0.01</speed>
  <fix>3d</fix>
</trkpt>
<trkpt lat="40.0713749" lon="-105.229789">
  <ele>1583.0</ele>
  <time>2026-08-28T17:54:05Z</time>
  <course>0.0</course>
  <speed>0.0</speed>
  <fix>3d</fix>
</trkpt>
<trkpt lat="40.0713748" lon="-105.229789">
  <ele>1582.98</ele>
  <time>2026-08-28T17:54:05Z</time>
  <course>246.55</course>
  <speed>0.01</speed>
  <fix>3d</fix>
</trkpt>
<trkpt lat="40.0713749" lon="-105.229789">
  <ele>1583.0</ele>
  <time>2026-08-28T17:54:05Z</time>
  <course>0.0</course>
  <speed>0.0</speed>
  <fix>3d</fix>
</trkpt>
<trkpt lat="40.0713748" lon="-105.229789">
  <ele>1582.98</ele>
  <time>2026-08-28T17:54:05Z</time>
  <course>246.55</course>
  <speed>0.01</speed>
  <fix>3d</fix>
</trkpt>
<trkpt lat="40.0713749" lon="-105.229789">
  <ele>1583.0</ele>
  <time>2026-08-28T17:54:05Z</time>
  <course>0.0</course>
  <speed>0.0</speed>
  <fix>3d</fix>
</trkpt>
<trkpt lat="40.0713748" lon="-105.229789">
  <ele>1582.98</ele>
  <time>2026-08-28T17:54:05Z</time>
  <course>246.55</course>
  <speed>0.01</speed>
  <fix>3d</fix>
</trkpt>
<trkpt lat="40.0713749" lon="-105.229789">
  <ele>1583.0</ele>
  <time>2026-08-28T17:54:05Z</time>
  <course>0.0</course>
  <speed>0.0</speed>
  <fix>3d</fix>
</trkpt>
<trkpt lat="40.0713748" lon="-105.229789">
  <ele>1582.98</ele>
  <time>2026-08-28T17:54:05Z</time>
  <course>246.55</course>
  <speed>0.01</speed>
  <fix>3d</fix>
</trkpt>
<trkpt lat="40.0713749" lon="-105.229789">
  <ele>1583.0</ele>
  <time>2026-08-28T17:54:05Z</time>
  <course>0.0</course>
  <speed>0.0</speed>
  <fix>3d</fix>
</trkpt>
<trkpt lat="40.0713748" lon="-105.229789">
  <ele>1582.98</ele>
  <time>2026-08-28T17:54:05Z</time>
  <course>246.54</course>
  <speed>0.01</speed>
  <fix>3d</fix>
</trkpt>
<trkpt lat="40.0713749" lon="-105.229789">
  <ele>1583.0</ele>
  <time>2026-08-28T17:54:05Z</time>
  <course>0.0</course>
  <speed>0.0</speed>
  <fix>3d</fix>
</trkpt>
<trkpt lat="40.0713748" lon="-105.229789">
  <ele>1582.98</ele>
  <time>2026-08-28T17:54:05Z</time>
  <course>246.54</course>
  <speed>0.01</speed>
  <fix>3d</fix>
</trkpt>
<trkpt lat="40.0713749" lon="-105.229789">
  <ele>1583.0</ele>
  <time>2026-08-28T17:54:05Z</time>
  <course>0.0</course>
  <speed>0.0</speed>
  <fix>3d</fix>
</trkpt>
<trkpt lat="40.0713748" lon="-105.229789">
  <ele>1582.98</ele>
  <time>2026-08-28T17:54:05Z</time>
  <course>246.54</course>
  <speed>0.01</speed>
  <fix>3d</fix>
</trkpt>
<trkpt lat="40.0713749" lon="-105.229789">
  <ele>1583.0</ele>
  <time>2026-08-28T17:54:05Z</time>
  <course>0.0</course>
  <speed>0.0</speed>
  <fix>3d</fix>
</trkpt>
<trkpt lat="40.0713748" lon="-105.229789">
  <ele>1582.98</ele>
  <time>2026-08-28T17:54:05Z</time>
  <course>246.54</course>
  <speed>0.01</speed>
  <fix>3d</fix>
</trkpt>
<trkpt lat="40.0713749" lon="-105.229789">
  <ele>1583.0</ele>
  <time>2026-08-28T17:54:05Z</time>
  <course>0.0</course>
  <speed>0.0</speed>
  <fix>3d</fix>
</trkpt>
<trkpt lat="40.0713748" lon="-105.229789">
  <ele>1582.98</ele>
  <time>2026-08-28T17:54:05Z</time>
  <course>246.53</course>
  <speed>0.01</speed>
  <fix>3d</fix>
</trkpt>
<trkpt lat="40.0713749" lon="-105.229789">
  <ele>1583.0</ele>
  <time>2026-08-28T17:54:05Z</time>
  <course>0.0</course>
  <speed>0.0</speed>
  <fix>3d</fix>
</trkpt>
<trkpt lat="40.0713748" lon="-105.229789">
  <ele>1582.98</ele>
  <time>2026-08-28T17:54:05Z</time>
  <course>246.53</course>
  <speed>0.01</speed>
  <fix>3d</fix>
</trkpt>
<trkpt lat="40.0713749" lon="-105.229789">
  <ele>1583.0</ele>
  <time>2026-08-28T17:54:05Z</time>
  <course>0.0</course>
  <speed>0.0</speed>
  <fix>3d</fix>
</trkpt>
<trkpt lat="40.0713748" lon="-105.229789">
  <ele>1582.98</ele>
  <time>2026-08-28T17:54:05Z</time>
  <course>246.53</course>
  <speed>0.01</speed>
  <fix>3d</fix>
</trkpt>
<trkpt lat="40.0713749" lon="-105.229789">
  <ele>1583.0</ele>
  <time>2026-08-28T17:54:05Z</time>
  <course>0.0</course>
  <speed>0.0</speed>
  <fix>3d</fix>
</trkpt>
<trkpt lat="40.0713748" lon="-105.229789">
  <ele>1582.98</ele>
  <time>2026-08-28T17:54:05Z</time>
  <course>246.53</course>
  <speed>0.01</speed>
  <fix>3d</fix>
</trkpt>
<trkpt lat="40.0713749" lon="-105.229789">
  <ele>1583.0</ele>
  <time>2026-08-28T17:54:05Z</time>
  <course>0.0</course>
  <speed>0.0</speed>
  <fix>3d</fix>
</trkpt>
<trkpt lat="40.0713748" lon="-105.229789">
  <ele>1582.98</ele>
  <time>2026-08-28T17:54:05Z</time>
  <course>246.52</course>
  <speed>0.01</speed>
  <fix>3d</fix>
</trkpt>
<trkpt lat="40.0713749" lon="-105.229789">
  <ele>1583.0</ele>
  <time>2026-08-28T17:54:05Z</time>
  <course>0.0</course>
  <speed>0.0</speed>
  <fix>3d</fix>
</trkpt>
<trkpt lat="40.0713748" lon="-105.229789">
  <ele>1582.98</ele>
  <time>2026-08-28T17:54:05Z</time>
  <course>246.52</course>
  <speed>0.01</speed>
  <fix>3d</fix>
</trkpt>
<trkpt lat="40.0713749" lon="-105.229789">
  <ele>1583.0</ele>
  <time>2026-08-28T17:54:05Z</time>
  <course>0.0</course>
  <speed>0.0</speed>
  <fix>3d</fix>
</trkpt>
<trkpt lat="40.0713748" lon="-105.229789">
  <ele>1582.98</ele>
  <time>2026-08-28T17:54:05Z</time>
  <course>246.52</course>
  <speed>0.01</speed>
  <fix>3d</fix>
</trkpt>
<trkpt lat="40.0713749" lon="-105.229789">
  <ele>1583.0</ele>
  <time>2026-08-28T17:54:05Z</time>
  <course>0.0</course>
  <speed>0.0</speed>
  <fix>3d</fix>
</trkpt>
<trkpt lat="40.0713748" lon="-105.229789">
  <ele>1582.98</ele>
  <time>2026-08-28T17:54:05Z</time>
  <course>246.51</course>
  <speed>0.01</speed>
  <fix>3d</fix>
</trkpt>
<trkpt lat="40.0713749" lon="-105.229789">
  <ele>1583.0</ele>
  <time>2026-08-28T17:54:05Z</time>
  <course>0.0</course>
  <speed>0.0</speed>
  <fix>3d</fix>
</trkpt>
<trkpt lat="40.0713748" lon="-105.229789">
  <ele>1582.98</ele>
  <time>2026-08-28T17:54:05Z</time>
  <course>246.51</course>
  <speed>0.01</speed>
  <fix>3d</fix>
</trkpt>
<trkpt lat="40.0713749" lon="-105.229789">
  <ele>1583.0</ele>
  <time>2026-08-28T17:54:05Z</time>
  <course>0.0</course>
  <speed>0.0</speed>
  <fix>3d</fix>
</trkpt>
<trkpt lat="40.0713748" lon="-105.229789">
  <ele>1582.98</ele>
  <time>2026-08-28T17:54:05Z</time>
  <course>246.51</course>
  <speed>0.01</speed>
  <fix>3d</fix>
</trkpt>
<trkpt lat="40.0713749" lon="-105.229789">
  <ele>1583.0</ele>
  <time>2026-08-28T17:54:05Z</time>
  <course>0.0</course>
  <speed>0.0</speed>
  <fix>3d</fix>
</trkpt>
<trkpt lat="40.0713748" lon="-105.229789">
  <ele>1582.98</ele>
  <time>2026-08-28T17:54:05Z</time>
  <course>246.51</course>
  <speed>0.01</speed>
  <fix>3d</fix>
</trkpt>
<trkpt lat="40.0713749" lon="-105.229789">
  <ele>1583.0</ele>
  <time>2026-08-28T17:54:05Z</time>
  <course>0.0</course>
  <speed>0.0</speed>
  <fix>3d</fix>
</trkpt>
<trkpt lat="40.0713748" lon="-105.229789">
  <ele>1582.98</ele>
  <time>2026-08-28T17:54:05Z</time>
  <course>246.5</course>
  <speed>0.01</speed>
  <fix>3d</fix>
</trkpt>
<trkpt lat="40.0713749" lon="-105.229789">
  <ele>1583.0</ele>
  <time>2026-08-28T17:54:05Z</time>
  <course>0.0</course>
  <speed>0.0</speed>
  <fix>3d</fix>
</trkpt>
<trkpt lat="40.0713748" lon="-105.229789">
  <ele>1582.99</ele>
  <time>2026-08-28T17:54:05Z</time>
  <course>246.5</course>
  <speed>0.01</speed>
  <fix>3d</fix>
</trkpt>
<trkpt lat="40.0713749" lon="-105.229789">
  <ele>1583.0</ele>
  <time>2026-08-28T17:54:05Z</time>
  <course>0.0</course>
  <speed>0.0</speed>
  <fix>3d</fix>
</trkpt>
<trkpt lat="40.0713748" lon="-105.229789">
  <ele>1582.99</ele>
  <time>2026-08-28T17:54:05Z</time>
  <course>246.5</course>
  <speed>0.01</speed>
  <fix>3d</fix>
</trkpt>
<trkpt lat="40.0713749" lon="-105.229789">
  <ele>1583.0</ele>
  <time>2026-08-28T17:54:05Z</time>
  <course>0.0</course>
  <speed>0.0</speed>
  <fix>3d</fix>
</trkpt>
<trkpt lat="40.0713748" lon="-105.229789">
  <ele>1582.99</ele>
  <time>2026-08-28T17:54:05Z</time>
  <course>246.5</course>
  <speed>0.01</speed>
  <fix>3d</fix>
</trkpt>
<trkpt lat="40.0713749" lon="-105.229789">
  <ele>1583.0</ele>
  <time>2026-08-28T17:54:05Z</time>
  <course>0.0</course>
  <speed>0.0</speed>
  <fix>3d</fix>
</trkpt>
<trkpt lat="40.0713748" lon="-105.229789">
  <ele>1582.99</ele>
  <time>2026-08-28T17:54:05Z</time>
  <course>246.49</course>
  <speed>0.01</speed>
  <fix>3d</fix>
</trkpt>
<trkpt lat="40.0713749" lon="-105.229789">
  <ele>1583.0</ele>
  <time>2026-08-28T17:54:05Z</time>
  <course>0.0</course>
  <speed>0.0</speed>
  <fix>3d</fix>
</trkpt>
<trkpt lat="40.0713748" lon="-105.229789">
  <ele>1582.99</ele>
  <time>2026-08-28T17:54:05Z</time>
  <course>246.49</course>
  <speed>0.01</speed>
  <fix>3d</fix>
</trkpt>
<trkpt lat="40.0713749" lon="-105.229789">
  <ele>1583.0</ele>
  <time>2026-08-28T17:54:05Z</time>
  <course>0.0</course>
  <speed>0.0</speed>
  <fix>3d</fix>
</trkpt>
<trkpt lat="40.0713748" lon="-105.229789">
  <ele>1582.99</ele>
  <time>2026-08-28T17:54:05Z</time>
  <course>246.49</course>
  <speed>0.01</speed>
  <fix>3d</fix>
</trkpt>
<trkpt lat="40.0713749" lon="-105.229789">
  <ele>1583.0</ele>
  <time>2026-08-28T17:54:05Z</time>
  <course>0.0</course>
  <speed>0.0</speed>
  <fix>3d</fix>
</trkpt>
<trkpt lat="40.0713748" lon="-105.229789">
  <ele>1582.99</ele>
  <time>2026-08-28T17:54:05Z</time>
  <course>246.49</course>
  <speed>0.01</speed>
  <fix>3d</fix>
</trkpt>
<trkpt lat="40.0713749" lon="-105.229789">
  <ele>1583.0</ele>
  <time>2026-08-28T17:54:05Z</time>
  <course>0.0</course>
  <speed>0.0</speed>
  <fix>3d</fix>
</trkpt>
<trkpt lat="40.0713748" lon="-105.229789">
  <ele>1582.99</ele>
  <time>2026-08-28T17:54:05Z</time>
  <course>246.48</course>
  <speed>0.01</speed>
  <fix>3d</fix>
</trkpt>
<trkpt lat="40.0713749" lon="-105.229789">
  <ele>1583.0</ele>
  <time>2026-08-28T17:54:05Z</time>
  <course>0.0</course>
  <speed>0.0</speed>
  <fix>3d</fix>
</trkpt>
<trkpt lat="40.0713748" lon="-105.229789">
  <ele>1582.99</ele>
  <time>2026-08-28T17:54:05Z</time>
  <course>246.48</course>
  <speed>0.01</speed>
  <fix>3d</fix>
</trkpt>
<trkpt lat="40.0713749" lon="-105.229789">
  <ele>1583.0</ele>
  <time>2026-08-28T17:54:05Z</time>
  <course>0.0</course>
  <speed>0.0</speed>
  <fix>3d</fix>
</trkpt>
<trkpt lat="40.0713748" lon="-105.229789">
  <ele>1582.98</ele>
  <time>2026-08-28T17:54:05Z</time>
  <course>246.48</course>
  <speed>0.01</speed>
  <fix>3d</fix>
</trkpt>
<trkpt lat="40.0713749" lon="-105.229789">
  <ele>1583.0</ele>
  <time>2026-08-28T17:54:05Z</time>
  <course>0.0</course>
  <speed>0.0</speed>
  <fix>3d</fix>
</trkpt>
<trkpt lat="40.0713748" lon="-105.229789">
  <ele>1582.98</ele>
  <time>2026-08-28T17:54:05Z</time>
  <course>246.48</course>
  <speed>0.01</speed>
  <fix>3d</fix>
</trkpt>
<trkpt lat="40.0713749" lon="-105.229789">
  <ele>1583.0</ele>
  <time>2026-08-28T17:54:05Z</time>
  <course>0.0</course>
  <speed>0.0</speed>
  <fix>3d</fix>
</trkpt>
<trkpt lat="40.0713748" lon="-105.229789">
  <ele>1582.98</ele>
  <time>2026-08-28T17:54:05Z</time>
  <course>246.47</course>
  <speed>0.01</speed>
  <fix>3d</fix>
</trkpt>
<trkpt lat="40.0713749" lon="-105.229789">
  <ele>1583.0</ele>
  <time>2026-08-28T17:54:05Z</time>
  <course>0.0</course>
  <speed>0.0</speed>
  <fix>3d</fix>
</trkpt>
<trkpt lat="40.0713748" lon="-105.229789">
  <ele>1582.98</ele>
  <time>2026-08-28T17:54:05Z</time>
  <course>246.47</course>
  <speed>0.01</speed>
  <fix>3d</fix>
</trkpt>
<trkpt lat="40.0713749" lon="-105.229789">
  <ele>1583.0</ele>
  <time>2026-08-28T17:54:05Z</time>
  <course>0.0</course>
  <speed>0.0</speed>
  <fix>3d</fix>
</trkpt>
<trkpt lat="40.0713748" lon="-105.229789">
  <ele>1582.98</ele>
  <time>2026-08-28T17:54:05Z</time>
  <course>246.47</course>
  <speed>0.01</speed>
  <fix>3d</fix>
</trkpt>
<trkpt lat="40.0713749" lon="-105.229789">
  <ele>1583.0</ele>
  <time>2026-08-28T17:54:05Z</time>
  <course>0.0</course>
  <speed>0.0</speed>
  <fix>3d</fix>
</trkpt>
<trkpt lat="40.0713748" lon="-105.229789">
  <ele>1582.98</ele>
  <time>2026-08-28T17:54:05Z</time>
  <course>246.47</course>
  <speed>0.01</speed>
  <fix>3d</fix>
</trkpt>
<trkpt lat="40.0713749" lon="-105.229789">
  <ele>1583.0</ele>
  <time>2026-08-28T17:54:05Z</time>
  <course>0.0</course>
  <speed>0.0</speed>
  <fix>3d</fix>
</trkpt>
<trkpt lat="40.0713748" lon="-105.229789">
  <ele>1582.98</ele>
  <time>2026-08-28T17:54:05Z</time>
  <course>246.46</course>
  <speed>0.01</speed>
  <fix>3d</fix>
</trkpt>
<trkpt lat="40.0713749" lon="-105.229789">
  <ele>1583.0</ele>
  <time>2026-08-28T17:54:05Z</time>
  <course>0.0</course>
  <speed>0.0</speed>
  <fix>3d</fix>
</trkpt>
<trkpt lat="40.0713748" lon="-105.229789">
  <ele>1582.98</ele>
  <time>2026-08-28T17:54:05Z</time>
  <course>246.46</course>
  <speed>0.01</speed>
  <fix>3d</fix>
</trkpt>
<trkpt lat="40.0713749" lon="-105.229789">
  <ele>1583.0</ele>
  <time>2026-08-28T17:54:05Z</time>
  <course>0.0</course>
  <speed>0.0</speed>
  <fix>3d</fix>
</trkpt>
<trkpt lat="40.0713748" lon="-105.229789">
  <ele>1582.99</ele>
  <time>2026-08-28T17:54:05Z</time>
  <course>246.46</course>
  <speed>0.01</speed>
  <fix>3d</fix>
</trkpt>
<trkpt lat="40.0713749" lon="-105.229789">
  <ele>1583.0</ele>
  <time>2026-08-28T17:54:05Z</time>
  <course>0.0</course>
  <speed>0.0</speed>
  <fix>3d</fix>
</trkpt>
<trkpt lat="40.0713748" lon="-105.229789">
  <ele>1582.99</ele>
  <time>2026-08-28T17:54:05Z</time>
  <course>246.45</course>
  <speed>0.01</speed>
  <fix>3d</fix>
</trkpt>
<trkpt lat="40.0713749" lon="-105.229789">
  <ele>1583.0</ele>
  <time>2026-08-28T17:54:05Z</time>
  <course>0.0</course>
  <speed>0.0</speed>
  <fix>3d</fix>
</trkpt>
<trkpt lat="40.0713748" lon="-105.229789">
  <ele>1582.99</ele>
  <time>2026-08-28T17:54:05Z</time>
  <course>246.45</course>
  <speed>0.01</speed>
  <fix>3d</fix>
</trkpt>
<trkpt lat="40.0713749" lon="-105.229789">
  <ele>1583.0</ele>
  <time>2026-08-28T17:54:05Z</time>
  <course>0.0</course>
  <speed>0.0</speed>
  <fix>3d</fix>
</trkpt>
<trkpt lat="40.0713748" lon="-105.229789">
  <ele>1582.99</ele>
  <time>2026-08-28T17:54:05Z</time>
  <course>246.45</course>
  <speed>0.01</speed>
  <fix>3d</fix>
</trkpt>
<trkpt lat="40.0713749" lon="-105.229789">
  <ele>1583.0</ele>
  <time>2026-08-28T17:54:05Z</time>
  <course>0.0</course>
  <speed>0.0</speed>
  <fix>3d</fix>
</trkpt>
<trkpt lat="40.0713748" lon="-105.229789">
  <ele>1582.99</ele>
  <time>2026-08-28T17:54:05Z</time>
  <course>246.45</course>
  <speed>0.01</speed>
  <fix>3d</fix>
</trkpt>
<trkpt lat="40.0713749" lon="-105.229789">
  <ele>1583.0</ele>
  <time>2026-08-28T17:54:05Z</time>
  <course>0.0</course>
  <speed>0.0</speed>
  <fix>3d</fix>
</trkpt>
<trkpt lat="40.0713748" lon="-105.229789">
  <ele>1582.99</ele>
  <time>2026-08-28T17:54:05Z</time>
  <course>246.44</course>
  <speed>0.01</speed>
  <fix>3d</fix>
</trkpt>
<trkpt lat="40.0713749" lon="-105.229789">
  <ele>1583.0</ele>
  <time>2026-08-28T17:54:05Z</time>
  <course>0.0</course>
  <speed>0.0</speed>
  <fix>3d</fix>
</trkpt>
<trkpt lat="40.0713748" lon="-105.229789">
  <ele>1583.0</ele>
  <time>2026-08-28T17:54:05Z</time>
  <course>246.44</course>
  <speed>0.01</speed>
  <fix>3d</fix>
</trkpt>
<trkpt lat="40.0713749" lon="-105.229789">
  <ele>1583.0</ele>
  <time>2026-08-28T17:54:05Z</time>
  <course>0.0</course>
  <speed>0.0</speed>
  <fix>3d</fix>
</trkpt>
<trkpt lat="40.0713748" lon="-105.229789">
  <ele>1583.0</ele>
  <time>2026-08-28T17:54:05Z</time>
  <course>246.44</course>
  <speed>0.01</speed>
  <fix>3d</fix>
</trkpt>
<trkpt lat="40.0713749" lon="-105.229789">
  <ele>1583.0</ele>
  <time>2026-08-28T17:54:05Z</time>
  <course>0.0</course>
  <speed>0.0</speed>
  <fix>3d</fix>
</trkpt>
<trkpt lat="40.0713748" lon="-105.229789">
  <ele>1583.0</ele>
  <time>2026-08-28T17:54:05Z</time>
  <course>246.44</course>
  <speed>0.01</speed>
  <fix>3d</fix>
</trkpt>
<trkpt lat="40.0713749" lon="-105.229789">
  <ele>1583.0</ele>
  <time>2026-08-28T17:54:05Z</time>
  <course>0.0</course>
  <speed>0.0</speed>
  <fix>3d</fix>
</trkpt>
<trkpt lat="40.0713748" lon="-105.229789">
  <ele>1583.0</ele>
  <time>2026-08-28T17:54:05Z</time>
  <course>246.43</course>
  <speed>0.01</speed>
  <fix>3d</fix>
</trkpt>
<trkpt lat="40.0713749" lon="-105.229789">
  <ele>1583.0</ele>
  <time>2026-08-28T17:54:05Z</time>
  <course>0.0</course>
  <speed>0.0</speed>
  <fix>3d</fix>
</trkpt>
<trkpt lat="40.0713748" lon="-105.229789">
  <ele>1583.0</ele>
  <time>2026-08-28T17:54:05Z</time>
  <course>246.43</course>
  <speed>0.01</speed>
  <fix>3d</fix>
</trkpt>
<trkpt lat="40.0713749" lon="-105.229789">
  <ele>1583.0</ele>
  <time>2026-08-28T17:54:05Z</time>
  <course>0.0</course>
  <speed>0.0</speed>
  <fix>3d</fix>
</trkpt>
<trkpt lat="40.0713748" lon="-105.229789">
  <ele>1583.0</ele>
  <time>2026-08-28T17:54:05Z</time>
  <course>246.43</course>
  <speed>0.01</speed>
  <fix>3d</fix>
</trkpt>
<trkpt lat="40.0713749" lon="-105.229789">
  <ele>1583.0</ele>
  <time>2026-08-28T17:54:05Z</time>
  <course>0.0</course>
  <speed>0.0</speed>
  <fix>3d</fix>
</trkpt>
<trkpt lat="40.0713748" lon="-105.229789">
  <ele>1583.0</ele>
  <time>2026-08-28T17:54:05Z</time>
  <course>246.43</course>
  <speed>0.01</speed>
  <fix>3d</fix>
</trkpt>
<trkpt lat="40.0713749" lon="-105.229789">
  <ele>1583.0</ele>
  <time>2026-08-28T17:54:05Z</time>
  <course>0.0</course>
  <speed>0.0</speed>
  <fix>3d</fix>
</trkpt>
<trkpt lat="40.0713748" lon="-105.229789">
  <ele>1583.0</ele>
  <time>2026-08-28T17:54:05Z</time>
  <course>246.42</course>
  <speed>0.01</speed>
  <fix>3d</fix>
</trkpt>
<trkpt lat="40.0713749" lon="-105.229789">
  <ele>1583.0</ele>
  <time>2026-08-28T17:54:05Z</time>
  <course>0.0</course>
  <speed>0.0</speed>
  <fix>3d</fix>
</trkpt>
<trkpt lat="40.0713748" lon="-105.229789">
  <ele>1582.99</ele>
  <time>2026-08-28T17:54:05Z</time>
  <course>246.42</course>
  <speed>0.01</speed>
  <fix>3d</fix>
</trkpt>
<trkpt lat="40.0713749" lon="-105.229789">
  <ele>1583.0</ele>
  <time>2026-08-28T17:54:05Z</time>
  <course>0.0</course>
  <speed>0.0</speed>
  <fix>3d</fix>
</trkpt>
<trkpt lat="40.0713748" lon="-105.229789">
  <ele>1582.99</ele>
  <time>2026-08-28T17:54:05Z</time>
  <course>246.42</course>
  <speed>0.01</speed>
  <fix>3d</fix>
</trkpt>
<trkpt lat="40.0713749" lon="-105.229789">
  <ele>1583.0</ele>
  <time>2026-08-28T17:54:05Z</time>
  <course>0.0</course>
  <speed>0.0</speed>
  <fix>3d</fix>
</trkpt>
<trkpt lat="40.0713748" lon="-105.229789">
  <ele>1582.99</ele>
  <time>2026-08-28T17:54:05Z</time>
  <course>246.41</course>
  <speed>0.01</speed>
  <fix>3d</fix>
</trkpt>
<trkpt lat="40.0713749" lon="-105.229789">
  <ele>1583.0</ele>
  <time>2026-08-28T17:54:05Z</time>
  <course>0.0</course>
  <speed>0.0</speed>
  <fix>3d</fix>
</trkpt>
<trkpt lat="40.0713748" lon="-105.229789">
  <ele>1582.99</ele>
  <time>2026-08-28T17:54:05Z</time>
  <course>246.41</course>
  <speed>0.01</speed>
  <fix>3d</fix>
</trkpt>
<trkpt lat="40.0713749" lon="-105.229789">
  <ele>1583.0</ele>
  <time>2026-08-28T17:54:05Z</time>
  <course>0.0</course>
  <speed>0.0</speed>
  <fix>3d</fix>
</trkpt>
<trkpt lat="40.0713748" lon="-105.229789">
  <ele>1582.99</ele>
  <time>2026-08-28T17:54:05Z</time>
  <course>246.41</course>
  <speed>0.01</speed>
  <fix>3d</fix>
</trkpt>
<trkpt lat="40.0713749" lon="-105.229789">
  <ele>1583.0</ele>
  <time>2026-08-28T17:54:05Z</time>
  <course>0.0</course>
  <speed>0.0</speed>
  <fix>3d</fix>
</trkpt>
<trkpt lat="40.0713748" lon="-105.229789">
  <ele>1582.99</ele>
  <time>2026-08-28T17:54:05Z</time>
  <course>246.41</course>
  <speed>0.01</speed>
  <fix>3d</fix>
</trkpt>
<trkpt lat="40.0713749" lon="-105.229789">
  <ele>1583.0</ele>
  <time>2026-08-28T17:54:05Z</time>
  <course>0.0</course>
  <speed>0.0</speed>
  <fix>3d</fix>
</trkpt>
<trkpt lat="40.0713748" lon="-105.229789">
  <ele>1583.0</ele>
  <time>2026-08-28T17:54:05Z</time>
  <course>246.4</course>
  <speed>0.01</speed>
  <fix>3d</fix>
</trkpt>
<trkpt lat="40.0713749" lon="-105.229789">
  <ele>1583.0</ele>
  <time>2026-08-28T17:54:05Z</time>
  <course>0.0</course>
  <speed>0.0</speed>
  <fix>3d</fix>
</trkpt>
<trkpt lat="40.0713748" lon="-105.229789">
  <ele>1583.0</ele>
  <time>2026-08-28T17:54:05Z</time>
  <course>246.4</course>
  <speed>0.01</speed>
  <fix>3d</fix>
</trkpt>
<trkpt lat="40.0713749" lon="-105.229789">
  <ele>1583.0</ele>
  <time>2026-08-28T17:54:05Z</time>
  <course>0.0</course>
  <speed>0.0</speed>
  <fix>3d</fix>
</trkpt>
<trkpt lat="40.0713748" lon="-105.229789">
  <ele>1582.99</ele>
  <time>2026-08-28T17:54:05Z</time>
  <course>246.4</course>
  <speed>0.01</speed>
  <fix>3d</fix>
</trkpt>
<trkpt lat="40.0713749" lon="-105.229789">
  <ele>1583.0</ele>
  <time>2026-08-28T17:54:05Z</time>
  <course>0.0</course>
  <speed>0.0</speed>
  <fix>3d</fix>
</trkpt>
<trkpt lat="40.0713748" lon="-105.229789">
  <ele>1582.99</ele>
  <time>2026-08-28T17:54:05Z</time>
  <course>246.4</course>
  <speed>0.01</speed>
  <fix>3d</fix>
</trkpt>
<trkpt lat="40.0713749" lon="-105.229789">
  <ele>1583.0</ele>
  <time>2026-08-28T17:54:05Z</time>
  <course>0.0</course>
  <speed>0.0</speed>
  <fix>3d</fix>
</trkpt>
<trkpt lat="40.0713748" lon="-105.229789">
  <ele>1583.0</ele>
  <time>2026-08-28T17:54:05Z</time>
  <course>246.39</course>
  <speed>0.01</speed>
  <fix>3d</fix>
</trkpt>
<trkpt lat="40.0713749" lon="-105.229789">
  <ele>1583.0</ele>
  <time>2026-08-28T17:54:05Z</time>
  <course>0.0</course>
  <speed>0.0</speed>
  <fix>3d</fix>
</trkpt>
<trkpt lat="40.0713748" lon="-105.229789">
  <ele>1583.0</ele>
  <time>2026-08-28T17:54:05Z</time>
  <course>246.39</course>
  <speed>0.01</speed>
  <fix>3d</fix>
</trkpt>
<trkpt lat="40.0713749" lon="-105.229789">
  <ele>1583.0</ele>
  <time>2026-08-28T17:54:05Z</time>
  <course>0.0</course>
  <speed>0.0</speed>
  <fix>3d</fix>
</trkpt>
<trkpt lat="40.0713748" lon="-105.229789">
  <ele>1583.0</ele>
  <time>2026-08-28T17:54:05Z</time>
  <course>246.39</course>
  <speed>0.01</speed>
  <fix>3d</fix>
</trkpt>
<trkpt lat="40.0713749" lon="-105.229789">
  <ele>1583.0</ele>
  <time>2026-08-28T17:54:05Z</time>
  <course>0.0</course>
  <speed>0.0</speed>
  <fix>3d</fix>
</trkpt>
<trkpt lat="40.0713748" lon="-105.229789">
  <ele>1583.0</ele>
  <time>2026-08-28T17:54:05Z</time>
  <course>246.39</course>
  <speed>0.01</speed>
  <fix>3d</fix>
</trkpt>
<trkpt lat="40.0713749" lon="-105.229789">
  <ele>1583.0</ele>
  <time>2026-08-28T17:54:05Z</time>
  <course>0.0</course>
  <speed>0.0</speed>
  <fix>3d</fix>
</trkpt>
<trkpt lat="40.0713748" lon="-105.229789">
  <ele>1583.0</ele>
  <time>2026-08-28T17:54:05Z</time>
  <course>246.38</course>
  <speed>0.01</speed>
  <fix>3d</fix>
</trkpt>
<trkpt lat="40.0713749" lon="-105.229789">
  <ele>1583.0</ele>
  <time>2026-08-28T17:54:05Z</time>
  <course>0.0</course>
  <speed>0.0</speed>
  <fix>3d</fix>
</trkpt>
<trkpt lat="40.0713748" lon="-105.229789">
  <ele>1583.0</ele>
  <time>2026-08-28T17:54:05Z</time>
  <course>246.38</course>
  <speed>0.01</speed>
  <fix>3d</fix>
</trkpt>
<trkpt lat="40.0713749" lon="-105.229789">
  <ele>1583.0</ele>
  <time>2026-08-28T17:54:05Z</time>
  <course>0.0</course>
  <speed>0.0</speed>
  <fix>3d</fix>
</trkpt>
<trkpt lat="40.0713748" lon="-105.229789">
  <ele>1583.0</ele>
  <time>2026-08-28T17:54:05Z</time>
  <course>246.38</course>
  <speed>0.01</speed>
  <fix>3d</fix>
</trkpt>
<trkpt lat="40.0713749" lon="-105.229789">
  <ele>1583.0</ele>
  <time>2026-08-28T17:54:05Z</time>
  <course>0.0</course>
  <speed>0.0</speed>
  <fix>3d</fix>
</trkpt>
<trkpt lat="40.0713748" lon="-105.229789">
  <ele>1583.0</ele>
  <time>2026-08-28T17:54:05Z</time>
  <course>246.37</course>
  <speed>0.01</speed>
  <fix>3d</fix>
</trkpt>
<trkpt lat="40.0713749" lon="-105.229789">
  <ele>1583.0</ele>
  <time>2026-08-28T17:54:05Z</time>
  <course>0.0</course>
  <speed>0.0</speed>
  <fix>3d</fix>
</trkpt>
<trkpt lat="40.0713748" lon="-105.229789">
  <ele>1583.0</ele>
  <time>2026-08-28T17:54:05Z</time>
  <course>246.37</course>
  <speed>0.01</speed>
  <fix>3d</fix>
</trkpt>
<trkpt lat="40.0713749" lon="-105.229789">
  <ele>1583.0</ele>
  <time>2026-08-28T17:54:05Z</time>
  <course>0.0</course>
  <speed>0.0</speed>
  <fix>3d</fix>
</trkpt>
<trkpt lat="40.0713748" lon="-105.229789">
  <ele>1583.0</ele>
  <time>2026-08-28T17:54:05Z</time>
  <course>246.37</course>
  <speed>0.01</speed>
  <fix>3d</fix>
</trkpt>
<trkpt lat="40.0713749" lon="-105.229789">
  <ele>1583.0</ele>
  <time>2026-08-28T17:54:05Z</time>
  <course>0.0</course>
  <speed>0.0</speed>
  <fix>3d</fix>
</trkpt>
<trkpt lat="40.0713748" lon="-105.229789">
  <ele>1583.0</ele>
  <time>2026-08-28T17:54:05Z</time>
  <course>246.37</course>
  <speed>0.01</speed>
  <fix>3d</fix>
</trkpt>
<trkpt lat="40.0713749" lon="-105.229789">
  <ele>1583.0</ele>
  <time>2026-08-28T17:54:05Z</time>
  <course>0.0</course>
  <speed>0.0</speed>
  <fix>3d</fix>
</trkpt>
<trkpt lat="40.0713748" lon="-105.229789">
  <ele>1583.0</ele>
  <time>2026-08-28T17:54:05Z</time>
  <course>246.36</course>
  <speed>0.01</speed>
  <fix>3d</fix>
</trkpt>
<trkpt lat="40.0713749" lon="-105.229789">
  <ele>1583.0</ele>
  <time>2026-08-28T17:54:05Z</time>
  <course>0.0</course>
  <speed>0.0</speed>
  <fix>3d</fix>
</trkpt>
<trkpt lat="40.0713748" lon="-105.229789">
  <ele>1583.0</ele>
  <time>2026-08-28T17:54:05Z</time>
  <course>246.36</course>
  <speed>0.01</speed>
  <fix>3d</fix>
</trkpt>
<trkpt lat="40.0713749" lon="-105.229789">
  <ele>1583.0</ele>
  <time>2026-08-28T17:54:05Z</time>
  <course>0.0</course>
  <speed>0.0</speed>
  <fix>3d</fix>
</trkpt>
<trkpt lat="40.0713748" lon="-105.229789">
  <ele>1583.0</ele>
  <time>2026-08-28T17:54:05Z</time>
  <course>246.36</course>
  <speed>0.01</speed>
  <fix>3d</fix>
</trkpt>
<trkpt lat="40.0713749" lon="-105.229789">
  <ele>1583.0</ele>
  <time>2026-08-28T17:54:05Z</time>
  <course>0.0</course>
  <speed>0.0</speed>
  <fix>3d</fix>
</trkpt>
<trkpt lat="40.0713748" lon="-105.229789">
  <ele>1583.0</ele>
  <time>2026-08-28T17:54:05Z</time>
  <course>246.36</course>
  <speed>0.01</speed>
  <fix>3d</fix>
</trkpt>
<trkpt lat="40.0713749" lon="-105.229789">
  <ele>1583.0</ele>
  <time>2026-08-28T17:54:05Z</time>
  <course>0.0</course>
  <speed>0.0</speed>
  <fix>3d</fix>
</trkpt>
<trkpt lat="40.0713748" lon="-105.229789">
  <ele>1583.0</ele>
  <time>2026-08-28T17:54:05Z</time>
  <course>246.35</course>
  <speed>0.01</speed>
  <fix>3d</fix>
</trkpt>
<trkpt lat="40.0713749" lon="-105.229789">
  <ele>1583.0</ele>
  <time>2026-08-28T17:54:05Z</time>
  <course>0.0</course>
  <speed>0.0</speed>
  <fix>3d</fix>
</trkpt>
<trkpt lat="40.0713748" lon="-105.229789">
  <ele>1583.0</ele>
  <time>2026-08-28T17:54:05Z</time>
  <course>246.35</course>
  <speed>0.01</speed>
  <fix>3d</fix>
</trkpt>
<trkpt lat="40.0713749" lon="-105.229789">
  <ele>1583.0</ele>
  <time>2026-08-28T17:54:05Z</time>
  <course>0.0</course>
  <speed>0.0</speed>
  <fix>3d</fix>
</trkpt>
<trkpt lat="40.0713748" lon="-105.229789">
  <ele>1583.01</ele>
  <time>2026-08-28T17:54:05Z</time>
  <course>246.35</course>
  <speed>0.01</speed>
  <fix>3d</fix>
</trkpt>
<trkpt lat="40.0713749" lon="-105.229789">
  <ele>1583.0</ele>
  <time>2026-08-28T17:54:05Z</time>
  <course>0.0</course>
  <speed>0.0</speed>
  <fix>3d</fix>
</trkpt>
<trkpt lat="40.0713748" lon="-105.229789">
  <ele>1583.0</ele>
  <time>2026-08-28T17:54:05Z</time>
  <course>246.34</course>
  <speed>0.01</speed>
  <fix>3d</fix>
</trkpt>
<trkpt lat="40.0713749" lon="-105.229789">
  <ele>1583.0</ele>
  <time>2026-08-28T17:54:05Z</time>
  <course>0.0</course>
  <speed>0.0</speed>
  <fix>3d</fix>
</trkpt>
<trkpt lat="40.0713748" lon="-105.229789">
  <ele>1583.0</ele>
  <time>2026-08-28T17:54:05Z</time>
  <course>246.34</course>
  <speed>0.01</speed>
  <fix>3d</fix>
</trkpt>
<trkpt lat="40.0713749" lon="-105.229789">
  <ele>1583.0</ele>
  <time>2026-08-28T17:54:05Z</time>
  <course>0.0</course>
  <speed>0.0</speed>
  <fix>3d</fix>
</trkpt>
<trkpt lat="40.0713748" lon="-105.229789">
  <ele>1583.01</ele>
  <time>2026-08-28T17:54:05Z</time>
  <course>246.34</course>
  <speed>0.01</speed>
  <fix>3d</fix>
</trkpt>
<trkpt lat="40.0713749" lon="-105.229789">
  <ele>1583.0</ele>
  <time>2026-08-28T17:54:05Z</time>
  <course>0.0</course>
  <speed>0.0</speed>
  <fix>3d</fix>
</trkpt>
<trkpt lat="40.0713748" lon="-105.229789">
  <ele>1583.01</ele>
  <time>2026-08-28T17:54:05Z</time>
  <course>246.34</course>
  <speed>0.01</speed>
  <fix>3d</fix>
</trkpt>
<trkpt lat="40.0713749" lon="-105.229789">
  <ele>1583.0</ele>
  <time>2026-08-28T17:54:05Z</time>
  <course>0.0</course>
  <speed>0.0</speed>
  <fix>3d</fix>
</trkpt>
<trkpt lat="40.0713748" lon="-105.229789">
  <ele>1583.01</ele>
  <time>2026-08-28T17:54:05Z</time>
  <course>246.33</course>
  <speed>0.01</speed>
  <fix>3d</fix>
</trkpt>
<trkpt lat="40.0713749" lon="-105.229789">
  <ele>1583.0</ele>
  <time>2026-08-28T17:54:05Z</time>
  <course>0.0</course>
  <speed>0.0</speed>
  <fix>3d</fix>
</trkpt>
<trkpt lat="40.0713748" lon="-105.229789">
  <ele>1583.01</ele>
  <time>2026-08-28T17:54:05Z</time>
  <course>246.33</course>
  <speed>0.01</speed>
  <fix>3d</fix>
</trkpt>
<trkpt lat="40.0713749" lon="-105.229789">
  <ele>1583.0</ele>
  <time>2026-08-28T17:54:05Z</time>
  <course>0.0</course>
  <speed>0.0</speed>
  <fix>3d</fix>
</trkpt>
<trkpt lat="40.0713748" lon="-105.229789">
  <ele>1583.01</ele>
  <time>2026-08-28T17:54:05Z</time>
  <course>246.33</course>
  <speed>0.01</speed>
  <fix>3d</fix>
</trkpt>
<trkpt lat="40.0713749" lon="-105.229789">
  <ele>1583.0</ele>
  <time>2026-08-28T17:54:05Z</time>
  <course>0.0</course>
  <speed>0.0</speed>
  <fix>3d</fix>
</trkpt>
<trkpt lat="40.0713748" lon="-105.229789">
  <ele>1583.01</ele>
  <time>2026-08-28T17:54:05Z</time>
  <course>246.33</course>
  <speed>0.01</speed>
  <fix>3d</fix>
</trkpt>
<trkpt lat="40.0713749" lon="-105.229789">
  <ele>1583.0</ele>
  <time>2026-08-28T17:54:05Z</time>
  <course>0.0</course>
  <speed>0.0</speed>
  <fix>3d</fix>
</trkpt>
<trkpt lat="40.0713748" lon="-105.229789">
  <ele>1583.01</ele>
  <time>2026-08-28T17:54:05Z</time>
  <course>246.32</course>
  <speed>0.01</speed>
  <fix>3d</fix>
</trkpt>
<trkpt lat="40.0713749" lon="-105.229789">
  <ele>1583.0</ele>
  <time>2026-08-28T17:54:05Z</time>
  <course>0.0</course>
  <speed>0.0</speed>
  <fix>3d</fix>
</trkpt>
<trkpt lat="40.0713748" lon="-105.229789">
  <ele>1583.02</ele>
  <time>2026-08-28T17:54:05Z</time>
  <course>246.32</course>
  <speed>0.01</speed>
  <fix>3d</fix>
</trkpt>
<trkpt lat="40.0713749" lon="-105.229789">
  <ele>1583.0</ele>
  <time>2026-08-28T17:54:05Z</time>
  <course>0.0</course>
  <speed>0.0</speed>
  <fix>3d</fix>
</trkpt>
<trkpt lat="40.0713748" lon="-105.229789">
  <ele>1583.02</ele>
  <time>2026-08-28T17:54:05Z</time>
  <course>246.32</course>
  <speed>0.01</speed>
  <fix>3d</fix>
</trkpt>
<trkpt lat="40.0713749" lon="-105.229789">
  <ele>1583.0</ele>
  <time>2026-08-28T17:54:05Z</time>
  <course>0.0</course>
  <speed>0.0</speed>
  <fix>3d</fix>
</trkpt>
<trkpt lat="40.0713748" lon="-105.229789">
  <ele>1583.02</ele>
  <time>2026-08-28T17:54:05Z</time>
  <course>246.31</course>
  <speed>0.01</speed>
  <fix>3d</fix>
</trkpt>
<trkpt lat="40.0713749" lon="-105.229789">
  <ele>1583.0</ele>
  <time>2026-08-28T17:54:05Z</time>
  <course>0.0</course>
  <speed>0.0</speed>
  <fix>3d</fix>
</trkpt>
<trkpt lat="40.0713748" lon="-105.229789">
  <ele>1583.02</ele>
  <time>2026-08-28T17:54:05Z</time>
  <course>246.31</course>
  <speed>0.01</speed>
  <fix>3d</fix>
</trkpt>
<trkpt lat="40.0713749" lon="-105.229789">
  <ele>1583.0</ele>
  <time>2026-08-28T17:54:05Z</time>
  <course>0.0</course>
  <speed>0.0</speed>
  <fix>3d</fix>
</trkpt>
<trkpt lat="40.0713748" lon="-105.229789">
  <ele>1583.02</ele>
  <time>2026-08-28T17:54:05Z</time>
  <course>246.31</course>
  <speed>0.01</speed>
  <fix>3d</fix>
</trkpt>
<trkpt lat="40.0713749" lon="-105.229789">
  <ele>1583.0</ele>
  <time>2026-08-28T17:54:05Z</time>
  <course>0.0</course>
  <speed>0.0</speed>
  <fix>3d</fix>
</trkpt>
<trkpt lat="40.0713748" lon="-105.229789">
  <ele>1583.02</ele>
  <time>2026-08-28T17:54:05Z</time>
  <course>246.31</course>
  <speed>0.01</speed>
  <fix>3d</fix>
</trkpt>
<trkpt lat="40.0713749" lon="-105.229789">
  <ele>1583.0</ele>
  <time>2026-08-28T17:54:05Z</time>
  <course>0.0</course>
  <speed>0.0</speed>
  <fix>3d</fix>
</trkpt>
<trkpt lat="40.0713748" lon="-105.229789">
  <ele>1583.02</ele>
  <time>2026-08-28T17:54:05Z</time>
  <course>246.3</course>
  <speed>0.01</speed>
  <fix>3d</fix>
</trkpt>
<trkpt lat="40.0713749" lon="-105.229789">
  <ele>1583.0</ele>
  <time>2026-08-28T17:54:05Z</time>
  <course>0.0</course>
  <speed>0.0</speed>
  <fix>3d</fix>
</trkpt>
<trkpt lat="40.0713748" lon="-105.229789">
  <ele>1583.02</ele>
  <time>2026-08-28T17:54:05Z</time>
  <course>246.3</course>
  <speed>0.01</speed>
  <fix>3d</fix>
</trkpt>
<trkpt lat="40.0713749" lon="-105.229789">
  <ele>1583.0</ele>
  <time>2026-08-28T17:54:05Z</time>
  <course>0.0</course>
  <speed>0.0</speed>
  <fix>3d</fix>
</trkpt>
<trkpt lat="40.0713748" lon="-105.229789">
  <ele>1583.02</ele>
  <time>2026-08-28T17:54:05Z</time>
  <course>246.3</course>
  <speed>0.01</speed>
  <fix>3d</fix>
</trkpt>
<trkpt lat="40.0713749" lon="-105.229789">
  <ele>1583.0</ele>
  <time>2026-08-28T17:54:05Z</time>
  <course>0.0</course>
  <speed>0.0</speed>
  <fix>3d</fix>
</trkpt>
<trkpt lat="40.0713748" lon="-105.229789">
  <ele>1583.02</ele>
  <time>2026-08-28T17:54:05Z</time>
  <course>246.3</course>
  <speed>0.01</speed>
  <fix>3d</fix>
</trkpt>
<trkpt lat="40.0713749" lon="-105.229789">
  <ele>1583.0</ele>
  <time>2026-08-28T17:54:05Z</time>
  <course>0.0</course>
  <speed>0.0</speed>
  <fix>3d</fix>
</trkpt>
<trkpt lat="40.0713748" lon="-105.229789">
  <ele>1583.02</ele>
  <time>2026-08-28T17:54:05Z</time>
  <course>246.29</course>
  <speed>0.01</speed>
  <fix>3d</fix>
</trkpt>
<trkpt lat="40.0713749" lon="-105.229789">
  <ele>1583.0</ele>
  <time>2026-08-28T17:54:05Z</time>
  <course>0.0</course>
  <speed>0.0</speed>
  <fix>3d</fix>
</trkpt>
<trkpt lat="40.0713748" lon="-105.229789">
  <ele>1583.02</ele>
  <time>2026-08-28T17:54:05Z</time>
  <course>246.29</course>
  <speed>0.01</speed>
  <fix>3d</fix>
</trkpt>
<trkpt lat="40.0713749" lon="-105.229789">
  <ele>1583.0</ele>
  <time>2026-08-28T17:54:05Z</time>
  <course>0.0</course>
  <speed>0.0</speed>
  <fix>3d</fix>
</trkpt>
<trkpt lat="40.0713748" lon="-105.229789">
  <ele>1583.02</ele>
  <time>2026-08-28T17:54:05Z</time>
  <course>246.29</course>
  <speed>0.01</speed>
  <fix>3d</fix>
</trkpt>
<trkpt lat="40.0713749" lon="-105.229789">
  <ele>1583.0</ele>
  <time>2026-08-28T17:54:05Z</time>
  <course>0.0</course>
  <speed>0.0</speed>
  <fix>3d</fix>
</trkpt>
<trkpt lat="40.0713748" lon="-105.229789">
  <ele>1583.02</ele>
  <time>2026-08-28T17:54:05Z</time>
  <course>246.29</course>
  <speed>0.01</speed>
  <fix>3d</fix>
</trkpt>
<trkpt lat="40.0713749" lon="-105.229789">
  <ele>1583.0</ele>
  <time>2026-08-28T17:54:05Z</time>
  <course>0.0</course>
  <speed>0.0</speed>
  <fix>3d</fix>
</trkpt>
<trkpt lat="40.0713748" lon="-105.229789">
  <ele>1583.02</ele>
  <time>2026-08-28T17:54:05Z</time>
  <course>246.28</course>
  <speed>0.01</speed>
  <fix>3d</fix>
</trkpt>
<trkpt lat="40.0713749" lon="-105.229789">
  <ele>1583.0</ele>
  <time>2026-08-28T17:54:05Z</time>
  <course>0.0</course>
  <speed>0.0</speed>
  <fix>3d</fix>
</trkpt>
<trkpt lat="40.0713748" lon="-105.229789">
  <ele>1583.02</ele>
  <time>2026-08-28T17:54:05Z</time>
  <course>246.28</course>
  <speed>0.01</speed>
  <fix>3d</fix>
</trkpt>
<trkpt lat="40.0713749" lon="-105.229789">
  <ele>1583.0</ele>
  <time>2026-08-28T17:54:05Z</time>
  <course>0.0</course>
  <speed>0.0</speed>
  <fix>3d</fix>
</trkpt>
<trkpt lat="40.0713748" lon="-105.229789">
  <ele>1583.02</ele>
  <time>2026-08-28T17:54:05Z</time>
  <course>246.28</course>
  <speed>0.01</speed>
  <fix>3d</fix>
</trkpt>
<trkpt lat="40.0713749" lon="-105.229789">
  <ele>1583.0</ele>
  <time>2026-08-28T17:54:05Z</time>
  <course>0.0</course>
  <speed>0.0</speed>
  <fix>3d</fix>
</trkpt>
<trkpt lat="40.0713748" lon="-105.229789">
  <ele>1583.02</ele>
  <time>2026-08-28T17:54:05Z</time>
  <course>246.27</course>
  <speed>0.01</speed>
  <fix>3d</fix>
</trkpt>
<trkpt lat="40.0713749" lon="-105.229789">
  <ele>1583.0</ele>
  <time>2026-08-28T17:54:05Z</time>
  <course>0.0</course>
  <speed>0.0</speed>
  <fix>3d</fix>
</trkpt>
<trkpt lat="40.0713748" lon="-105.229789">
  <ele>1583.01</ele>
  <time>2026-08-28T17:54:05Z</time>
  <course>246.27</course>
  <speed>0.01</speed>
  <fix>3d</fix>
</trkpt>
<trkpt lat="40.0713749" lon="-105.229789">
  <ele>1583.0</ele>
  <time>2026-08-28T17:54:05Z</time>
  <course>0.0</course>
  <speed>0.0</speed>
  <fix>3d</fix>
</trkpt>
<trkpt lat="40.0713748" lon="-105.229789">
  <ele>1583.01</ele>
  <time>2026-08-28T17:54:05Z</time>
  <course>246.27</course>
  <speed>0.01</speed>
  <fix>3d</fix>
</trkpt>
<trkpt lat="40.0713749" lon="-105.229789">
  <ele>1583.0</ele>
  <time>2026-08-28T17:54:05Z</time>
  <course>0.0</course>
  <speed>0.0</speed>
  <fix>3d</fix>
</trkpt>
<trkpt lat="40.0713748" lon="-105.229789">
  <ele>1583.01</ele>
  <time>2026-08-28T17:54:05Z</time>
  <course>246.27</course>
  <speed>0.01</speed>
  <fix>3d</fix>
</trkpt>
<trkpt lat="40.0713749" lon="-105.229789">
  <ele>1583.0</ele>
  <time>2026-08-28T17:54:05Z</time>
  <course>0.0</course>
  <speed>0.0</speed>
  <fix>3d</fix>
</trkpt>
<trkpt lat="40.0713748" lon="-105.229789">
  <ele>1583.01</ele>
  <time>2026-08-28T17:54:05Z</time>
  <course>246.26</course>
  <speed>0.01</speed>
  <fix>3d</fix>
</trkpt>
<trkpt lat="40.0713749" lon="-105.229789">
  <ele>1583.0</ele>
  <time>2026-08-28T17:54:05Z</time>
  <course>0.0</course>
  <speed>0.0</speed>
  <fix>3d</fix>
</trkpt>
<trkpt lat="40.0713748" lon="-105.229789">
  <ele>1583.02</ele>
  <time>2026-08-28T17:54:05Z</time>
  <course>246.26</course>
  <speed>0.01</speed>
  <fix>3d</fix>
</trkpt>
<trkpt lat="40.0713749" lon="-105.229789">
  <ele>1583.0</ele>
  <time>2026-08-28T17:54:05Z</time>
  <course>0.0</course>
  <speed>0.0</speed>
  <fix>3d</fix>
</trkpt>
<trkpt lat="40.0713748" lon="-105.229789">
  <ele>1583.02</ele>
  <time>2026-08-28T17:54:05Z</time>
  <course>246.26</course>
  <speed>0.02</speed>
  <fix>3d</fix>
</trkpt>
<trkpt lat="40.0713749" lon="-105.229789">
  <ele>1583.0</ele>
  <time>2026-08-28T17:54:05Z</time>
  <course>0.0</course>
  <speed>0.0</speed>
  <fix>3d</fix>
</trkpt>
<trkpt lat="40.0713748" lon="-105.229789">
  <ele>1583.02</ele>
  <time>2026-08-28T17:54:05Z</time>
  <course>246.26</course>
  <speed>0.01</speed>
  <fix>3d</fix>
</trkpt>
<trkpt lat="40.0713749" lon="-105.229789">
  <ele>1583.0</ele>
  <time>2026-08-28T17:54:05Z</time>
  <course>0.0</course>
  <speed>0.0</speed>
  <fix>3d</fix>
</trkpt>
<trkpt lat="40.0713748" lon="-105.229789">
  <ele>1583.02</ele>
  <time>2026-08-28T17:54:05Z</time>
  <course>246.25</course>
  <speed>0.02</speed>
  <fix>3d</fix>
</trkpt>
<trkpt lat="40.0713749" lon="-105.229789">
  <ele>1583.0</ele>
  <time>2026-08-28T17:54:05Z</time>
  <course>0.0</course>
  <speed>0.0</speed>
  <fix>3d</fix>
</trkpt>
<trkpt lat="40.0713748" lon="-105.229789">
  <ele>1583.02</ele>
  <time>2026-08-28T17:54:05Z</time>
  <course>246.25</course>
  <speed>0.01</speed>
  <fix>3d</fix>
</trkpt>
<trkpt lat="40.0713749" lon="-105.229789">
  <ele>1583.0</ele>
  <time>2026-08-28T17:54:05Z</time>
  <course>0.0</course>
  <speed>0.0</speed>
  <fix>3d</fix>
</trkpt>
<trkpt lat="40.0713748" lon="-105.229789">
  <ele>1583.02</ele>
  <time>2026-08-28T17:54:05Z</time>
  <course>246.25</course>
  <speed>0.02</speed>
  <fix>3d</fix>
</trkpt>
<trkpt lat="40.0713749" lon="-105.229789">
  <ele>1583.0</ele>
  <time>2026-08-28T17:54:05Z</time>
  <course>0.0</course>
  <speed>0.0</speed>
  <fix>3d</fix>
</trkpt>
<trkpt lat="40.0713748" lon="-105.229789">
  <ele>1583.02</ele>
  <time>2026-08-28T17:54:05Z</time>
  <course>246.24</course>
  <speed>0.02</speed>
  <fix>3d</fix>
</trkpt>
<trkpt lat="40.0713749" lon="-105.229789">
  <ele>1583.0</ele>
  <time>2026-08-28T17:54:05Z</time>
  <course>0.0</course>
  <speed>0.0</speed>
  <fix>3d</fix>
</trkpt>
<trkpt lat="40.0713748" lon="-105.229789">
  <ele>1583.02</ele>
  <time>2026-08-28T17:54:05Z</time>
  <course>246.24</course>
  <speed>0.02</speed>
  <fix>3d</fix>
</trkpt>
<trkpt lat="40.0713749" lon="-105.229789">
  <ele>1583.0</ele>
  <time>2026-08-28T17:54:05Z</time>
  <course>0.0</course>
  <speed>0.0</speed>
  <fix>3d</fix>
</trkpt>
<trkpt lat="40.0713748" lon="-105.229789">
  <ele>1583.02</ele>
  <time>2026-08-28T17:54:05Z</time>
  <course>246.24</course>
  <speed>0.02</speed>
  <fix>3d</fix>
</trkpt>
<trkpt lat="40.0713749" lon="-105.229789">
  <ele>1583.0</ele>
  <time>2026-08-28T17:54:05Z</time>
  <course>0.0</course>
  <speed>0.0</speed>
  <fix>3d</fix>
</trkpt>
<trkpt lat="40.0713748" lon="-105.229789">
  <ele>1583.02</ele>
  <time>2026-08-28T17:54:05Z</time>
  <course>246.24</course>
  <speed>0.02</speed>
  <fix>3d</fix>
</trkpt>
<trkpt lat="40.0713749" lon="-105.229789">
  <ele>1583.0</ele>
  <time>2026-08-28T17:54:05Z</time>
  <course>0.0</course>
  <speed>0.0</speed>
  <fix>3d</fix>
</trkpt>
<trkpt lat="40.0713748" lon="-105.229789">
  <ele>1583.02</ele>
  <time>2026-08-28T17:54:05Z</time>
  <course>246.23</course>
  <speed>0.02</speed>
  <fix>3d</fix>
</trkpt>
<trkpt lat="40.0713749" lon="-105.229789">
  <ele>1583.0</ele>
  <time>2026-08-28T17:54:05Z</time>
  <course>0.0</course>
  <speed>0.0</speed>
  <fix>3d</fix>
</trkpt>
<trkpt lat="40.0713748" lon="-105.229789">
  <ele>1583.02</ele>
  <time>2026-08-28T17:54:05Z</time>
  <course>246.23</course>
  <speed>0.02</speed>
  <fix>3d</fix>
</trkpt>
<trkpt lat="40.0713749" lon="-105.229789">
  <ele>1583.0</ele>
  <time>2026-08-28T17:54:05Z</time>
  <course>0.0</course>
  <speed>0.0</speed>
  <fix>3d</fix>
</trkpt>
<trkpt lat="40.0713748" lon="-105.229789">
  <ele>1583.02</ele>
  <time>2026-08-28T17:54:05Z</time>
  <course>246.23</course>
  <speed>0.02</speed>
  <fix>3d</fix>
</trkpt>
<trkpt lat="40.0713749" lon="-105.229789">
  <ele>1583.0</ele>
  <time>2026-08-28T17:54:05Z</time>
  <course>0.0</course>
  <speed>0.0</speed>
  <fix>3d</fix>
</trkpt>
<trkpt lat="40.0713748" lon="-105.229789">
  <ele>1583.02</ele>
  <time>2026-08-28T17:54:05Z</time>
  <course>246.23</course>
  <speed>0.02</speed>
  <fix>3d</fix>
</trkpt>
<trkpt lat="40.0713749" lon="-105.229789">
  <ele>1583.0</ele>
  <time>2026-08-28T17:54:05Z</time>
  <course>0.0</course>
  <speed>0.0</speed>
  <fix>3d</fix>
</trkpt>
<trkpt lat="40.0713748" lon="-105.229789">
  <ele>1583.02</ele>
  <time>2026-08-28T17:54:05Z</time>
  <course>246.22</course>
  <speed>0.02</speed>
  <fix>3d</fix>
</trkpt>
<trkpt lat="40.0713749" lon="-105.229789">
  <ele>1583.0</ele>
  <time>2026-08-28T17:54:05Z</time>
  <course>0.0</course>
  <speed>0.0</speed>
  <fix>3d</fix>
</trkpt>
<trkpt lat="40.0713748" lon="-105.229789">
  <ele>1583.02</ele>
  <time>2026-08-28T17:54:05Z</time>
  <course>246.22</course>
  <speed>0.02</speed>
  <fix>3d</fix>
</trkpt>
<trkpt lat="40.0713749" lon="-105.229789">
  <ele>1583.0</ele>
  <time>2026-08-28T17:54:05Z</time>
  <course>0.0</course>
  <speed>0.0</speed>
  <fix>3d</fix>
</trkpt>
<trkpt lat="40.0713748" lon="-105.229789">
  <ele>1583.02</ele>
  <time>2026-08-28T17:54:05Z</time>
  <course>246.22</course>
  <speed>0.02</speed>
  <fix>3d</fix>
</trkpt>
<trkpt lat="40.0713749" lon="-105.229789">
  <ele>1583.0</ele>
  <time>2026-08-28T17:54:05Z</time>
  <course>0.0</course>
  <speed>0.0</speed>
  <fix>3d</fix>
</trkpt>
<trkpt lat="40.0713748" lon="-105.229789">
  <ele>1583.02</ele>
  <time>2026-08-28T17:54:05Z</time>
  <course>246.21</course>
  <speed>0.02</speed>
  <fix>3d</fix>
</trkpt>
<trkpt lat="40.0713749" lon="-105.229789">
  <ele>1583.0</ele>
  <time>2026-08-28T17:54:05Z</time>
  <course>0.0</course>
  <speed>0.0</speed>
  <fix>3d</fix>
</trkpt>
<trkpt lat="40.0713748" lon="-105.229789">
  <ele>1583.02</ele>
  <time>2026-08-28T17:54:05Z</time>
  <course>246.21</course>
  <speed>0.02</speed>
  <fix>3d</fix>
</trkpt>
<trkpt lat="40.0713749" lon="-105.229789">
  <ele>1583.0</ele>
  <time>2026-08-28T17:54:05Z</time>
  <course>0.0</course>
  <speed>0.0</speed>
  <fix>3d</fix>
</trkpt>
<trkpt lat="40.0713748" lon="-105.229789">
  <ele>1583.02</ele>
  <time>2026-08-28T17:54:05Z</time>
  <course>246.21</course>
  <speed>0.02</speed>
  <fix>3d</fix>
</trkpt>
<trkpt lat="40.0713749" lon="-105.229789">
  <ele>1583.0</ele>
  <time>2026-08-28T17:54:05Z</time>
  <course>0.0</course>
  <speed>0.0</speed>
  <fix>3d</fix>
</trkpt>
<trkpt lat="40.0713748" lon="-105.229789">
  <ele>1583.02</ele>
  <time>2026-08-28T17:54:05Z</time>
  <course>246.21</course>
  <speed>0.02</speed>
  <fix>3d</fix>
</trkpt>
<trkpt lat="40.0713749" lon="-105.229789">
  <ele>1583.0</ele>
  <time>2026-08-28T17:54:05Z</time>
  <course>0.0</course>
  <speed>0.0</speed>
  <fix>3d</fix>
</trkpt>
<trkpt lat="40.0713748" lon="-105.229789">
  <ele>1583.02</ele>
  <time>2026-08-28T17:54:06Z</time>
  <course>246.2</course>
  <speed>0.02</speed>
  <fix>3d</fix>
</trkpt>
<trkpt lat="40.0713749" lon="-105.229789">
  <ele>1583.0</ele>
  <time>2026-08-28T17:54:06Z</time>
  <course>0.0</course>
  <speed>0.0</speed>
  <fix>3d</fix>
</trkpt>
<trkpt lat="40.0713748" lon="-105.229789">
  <ele>1583.02</ele>
  <time>2026-08-28T17:54:06Z</time>
  <course>246.2</course>
  <speed>0.02</speed>
  <fix>3d</fix>
</trkpt>
<trkpt lat="40.0713749" lon="-105.229789">
  <ele>1583.0</ele>
  <time>2026-08-28T17:54:06Z</time>
  <course>0.0</course>
  <speed>0.0</speed>
  <fix>3d</fix>
</trkpt>
<trkpt lat="40.0713748" lon="-105.229789">
  <ele>1583.02</ele>
  <time>2026-08-28T17:54:06Z</time>
  <course>246.2</course>
  <speed>0.02</speed>
  <fix>3d</fix>
</trkpt>
<trkpt lat="40.0713749" lon="-105.229789">
  <ele>1583.0</ele>
  <time>2026-08-28T17:54:06Z</time>
  <course>0.0</course>
  <speed>0.0</speed>
  <fix>3d</fix>
</trkpt>
<trkpt lat="40.0713748" lon="-105.229789">
  <ele>1583.01</ele>
  <time>2026-08-28T17:54:06Z</time>
  <course>246.2</course>
  <speed>0.02</speed>
  <fix>3d</fix>
</trkpt>
<trkpt lat="40.0713749" lon="-105.229789">
  <ele>1583.0</ele>
  <time>2026-08-28T17:54:06Z</time>
  <course>0.0</course>
  <speed>0.0</speed>
  <fix>3d</fix>
</trkpt>
<trkpt lat="40.0713748" lon="-105.229789">
  <ele>1583.02</ele>
  <time>2026-08-28T17:54:06Z</time>
  <course>246.19</course>
  <speed>0.02</speed>
  <fix>3d</fix>
</trkpt>
<trkpt lat="40.0713749" lon="-105.229789">
  <ele>1583.0</ele>
  <time>2026-08-28T17:54:06Z</time>
  <course>0.0</course>
  <speed>0.0</speed>
  <fix>3d</fix>
</trkpt>
<trkpt lat="40.0713748" lon="-105.229789">
  <ele>1583.01</ele>
  <time>2026-08-28T17:54:06Z</time>
  <course>246.19</course>
  <speed>0.02</speed>
  <fix>3d</fix>
</trkpt>
<trkpt lat="40.0713749" lon="-105.229789">
  <ele>1583.0</ele>
  <time>2026-08-28T17:54:06Z</time>
  <course>0.0</course>
  <speed>0.0</speed>
  <fix>3d</fix>
</trkpt>
<trkpt lat="40.0713748" lon="-105.229789">
  <ele>1583.01</ele>
  <time>2026-08-28T17:54:06Z</time>
  <course>246.19</course>
  <speed>0.02</speed>
  <fix>3d</fix>
</trkpt>
<trkpt lat="40.0713749" lon="-105.229789">
  <ele>1583.0</ele>
  <time>2026-08-28T17:54:06Z</time>
  <course>0.0</course>
  <speed>0.0</speed>
  <fix>3d</fix>
</trkpt>
<trkpt lat="40.0713748" lon="-105.229789">
  <ele>1583.01</ele>
  <time>2026-08-28T17:54:06Z</time>
  <course>246.18</course>
  <speed>0.02</speed>
  <fix>3d</fix>
</trkpt>
<trkpt lat="40.0713749" lon="-105.229789">
  <ele>1583.0</ele>
  <time>2026-08-28T17:54:06Z</time>
  <course>0.0</course>
  <speed>0.0</speed>
  <fix>3d</fix>
</trkpt>
<trkpt lat="40.0713748" lon="-105.229789">
  <ele>1583.01</ele>
  <time>2026-08-28T17:54:06Z</time>
  <course>246.18</course>
  <speed>0.02</speed>
  <fix>3d</fix>
</trkpt>
<trkpt lat="40.0713749" lon="-105.229789">
  <ele>1583.0</ele>
  <time>2026-08-28T17:54:06Z</time>
  <course>0.0</course>
  <speed>0.0</speed>
  <fix>3d</fix>
</trkpt>
<trkpt lat="40.0713748" lon="-105.229789">
  <ele>1583.02</ele>
  <time>2026-08-28T17:54:06Z</time>
  <course>246.18</course>
  <speed>0.02</speed>
  <fix>3d</fix>
</trkpt>
<trkpt lat="40.0713749" lon="-105.229789">
  <ele>1583.0</ele>
  <time>2026-08-28T17:54:06Z</time>
  <course>0.0</course>
  <speed>0.0</speed>
  <fix>3d</fix>
</trkpt>
<trkpt lat="40.0713748" lon="-105.229789">
  <ele>1583.02</ele>
  <time>2026-08-28T17:54:06Z</time>
  <course>246.18</course>
  <speed>0.02</speed>
  <fix>3d</fix>
</trkpt>
<trkpt lat="40.0713749" lon="-105.229789">
  <ele>1583.0</ele>
  <time>2026-08-28T17:54:06Z</time>
  <course>0.0</course>
  <speed>0.0</speed>
  <fix>3d</fix>
</trkpt>
<trkpt lat="40.0713748" lon="-105.229789">
  <ele>1583.02</ele>
  <time>2026-08-28T17:54:06Z</time>
  <course>246.17</course>
  <speed>0.02</speed>
  <fix>3d</fix>
</trkpt>
<trkpt lat="40.0713749" lon="-105.229789">
  <ele>1583.0</ele>
  <time>2026-08-28T17:54:06Z</time>
  <course>0.0</course>
  <speed>0.0</speed>
  <fix>3d</fix>
</trkpt>
<trkpt lat="40.0713748" lon="-105.229789">
  <ele>1583.02</ele>
  <time>2026-08-28T17:54:06Z</time>
  <course>246.17</course>
  <speed>0.02</speed>
  <fix>3d</fix>
</trkpt>
<trkpt lat="40.0713749" lon="-105.229789">
  <ele>1583.0</ele>
  <time>2026-08-28T17:54:06Z</time>
  <course>0.0</course>
  <speed>0.0</speed>
  <fix>3d</fix>
</trkpt>
<trkpt lat="40.0713748" lon="-105.229789">
  <ele>1583.02</ele>
  <time>2026-08-28T17:54:06Z</time>
  <course>246.17</course>
  <speed>0.02</speed>
  <fix>3d</fix>
</trkpt>
<trkpt lat="40.0713749" lon="-105.229789">
  <ele>1583.0</ele>
  <time>2026-08-28T17:54:06Z</time>
  <course>0.0</course>
  <speed>0.0</speed>
  <fix>3d</fix>
</trkpt>
<trkpt lat="40.0713748" lon="-105.229789">
  <ele>1583.02</ele>
  <time>2026-08-28T17:54:06Z</time>
  <course>246.16</course>
  <speed>0.02</speed>
  <fix>3d</fix>
</trkpt>
<trkpt lat="40.0713749" lon="-105.229789">
  <ele>1583.0</ele>
  <time>2026-08-28T17:54:06Z</time>
  <course>0.0</course>
  <speed>0.0</speed>
  <fix>3d</fix>
</trkpt>
<trkpt lat="40.0713748" lon="-105.229789">
  <ele>1583.02</ele>
  <time>2026-08-28T17:54:06Z</time>
  <course>246.16</course>
  <speed>0.02</speed>
  <fix>3d</fix>
</trkpt>
<trkpt lat="40.0713749" lon="-105.229789">
  <ele>1583.0</ele>
  <time>2026-08-28T17:54:06Z</time>
  <course>0.0</course>
  <speed>0.0</speed>
  <fix>3d</fix>
</trkpt>
<trkpt lat="40.0713748" lon="-105.229789">
  <ele>1583.01</ele>
  <time>2026-08-28T17:54:06Z</time>
  <course>246.16</course>
  <speed>0.02</speed>
  <fix>3d</fix>
</trkpt>
<trkpt lat="40.0713749" lon="-105.229789">
  <ele>1583.0</ele>
  <time>2026-08-28T17:54:06Z</time>
  <course>0.0</course>
  <speed>0.0</speed>
  <fix>3d</fix>
</trkpt>
<trkpt lat="40.0713748" lon="-105.229789">
  <ele>1583.01</ele>
  <time>2026-08-28T17:54:06Z</time>
  <course>246.16</course>
  <speed>0.02</speed>
  <fix>3d</fix>
</trkpt>
<trkpt lat="40.0713749" lon="-105.229789">
  <ele>1583.0</ele>
  <time>2026-08-28T17:54:06Z</time>
  <course>0.0</course>
  <speed>0.0</speed>
  <fix>3d</fix>
</trkpt>
<trkpt lat="40.0713748" lon="-105.229789">
  <ele>1583.01</ele>
  <time>2026-08-28T17:54:06Z</time>
  <course>246.15</course>
  <speed>0.02</speed>
  <fix>3d</fix>
</trkpt>
<trkpt lat="40.0713749" lon="-105.229789">
  <ele>1583.0</ele>
  <time>2026-08-28T17:54:06Z</time>
  <course>0.0</course>
  <speed>0.0</speed>
  <fix>3d</fix>
</trkpt>
<trkpt lat="40.0713748" lon="-105.229789">
  <ele>1583.01</ele>
  <time>2026-08-28T17:54:06Z</time>
  <course>246.15</course>
  <speed>0.02</speed>
  <fix>3d</fix>
</trkpt>
<trkpt lat="40.0713749" lon="-105.229789">
  <ele>1583.0</ele>
  <time>2026-08-28T17:54:06Z</time>
  <course>0.0</course>
  <speed>0.0</speed>
  <fix>3d</fix>
</trkpt>
<trkpt lat="40.0713748" lon="-105.229789">
  <ele>1583.01</ele>
  <time>2026-08-28T17:54:06Z</time>
  <course>246.15</course>
  <speed>0.02</speed>
  <fix>3d</fix>
</trkpt>
<trkpt lat="40.0713749" lon="-105.229789">
  <ele>1583.0</ele>
  <time>2026-08-28T17:54:06Z</time>
  <course>0.0</course>
  <speed>0.0</speed>
  <fix>3d</fix>
</trkpt>
<trkpt lat="40.0713748" lon="-105.229789">
  <ele>1583.01</ele>
  <time>2026-08-28T17:54:06Z</time>
  <course>246.15</course>
  <speed>0.02</speed>
  <fix>3d</fix>
</trkpt>
<trkpt lat="40.0713749" lon="-105.229789">
  <ele>1583.0</ele>
  <time>2026-08-28T17:54:06Z</time>
  <course>0.0</course>
  <speed>0.0</speed>
  <fix>3d</fix>
</trkpt>
<trkpt lat="40.0713748" lon="-105.229789">
  <ele>1583.02</ele>
  <time>2026-08-28T17:54:06Z</time>
  <course>246.14</course>
  <speed>0.02</speed>
  <fix>3d</fix>
</trkpt>
<trkpt lat="40.0713749" lon="-105.229789">
  <ele>1583.0</ele>
  <time>2026-08-28T17:54:06Z</time>
  <course>0.0</course>
  <speed>0.0</speed>
  <fix>3d</fix>
</trkpt>
<trkpt lat="40.0713748" lon="-105.229789">
  <ele>1583.02</ele>
  <time>2026-08-28T17:54:06Z</time>
  <course>246.14</course>
  <speed>0.02</speed>
  <fix>3d</fix>
</trkpt>
<trkpt lat="40.0713749" lon="-105.229789">
  <ele>1583.0</ele>
  <time>2026-08-28T17:54:06Z</time>
  <course>0.0</course>
  <speed>0.0</speed>
  <fix>3d</fix>
</trkpt>
<trkpt lat="40.0713748" lon="-105.229789">
  <ele>1583.02</ele>
  <time>2026-08-28T17:54:06Z</time>
  <course>246.14</course>
  <speed>0.02</speed>
  <fix>3d</fix>
</trkpt>
<trkpt lat="40.0713749" lon="-105.229789">
  <ele>1583.0</ele>
  <time>2026-08-28T17:54:06Z</time>
  <course>0.0</course>
  <speed>0.0</speed>
  <fix>3d</fix>
</trkpt>
<trkpt lat="40.0713748" lon="-105.229789">
  <ele>1583.02</ele>
  <time>2026-08-28T17:54:06Z</time>
  <course>246.14</course>
  <speed>0.02</speed>
  <fix>3d</fix>
</trkpt>
<trkpt lat="40.0713749" lon="-105.229789">
  <ele>1583.0</ele>
  <time>2026-08-28T17:54:06Z</time>
  <course>0.0</course>
  <speed>0.0</speed>
  <fix>3d</fix>
</trkpt>
<trkpt lat="40.0713748" lon="-105.229789">
  <ele>1583.03</ele>
  <time>2026-08-28T17:54:06Z</time>
  <course>246.13</course>
  <speed>0.02</speed>
  <fix>3d</fix>
</trkpt>
<trkpt lat="40.0713749" lon="-105.229789">
  <ele>1583.0</ele>
  <time>2026-08-28T17:54:06Z</time>
  <course>0.0</course>
  <speed>0.0</speed>
  <fix>3d</fix>
</trkpt>
<trkpt lat="40.0713748" lon="-105.229789">
  <ele>1583.03</ele>
  <time>2026-08-28T17:54:06Z</time>
  <course>246.13</course>
  <speed>0.02</speed>
  <fix>3d</fix>
</trkpt>
<trkpt lat="40.0713749" lon="-105.229789">
  <ele>1583.0</ele>
  <time>2026-08-28T17:54:06Z</time>
  <course>0.0</course>
  <speed>0.0</speed>
  <fix>3d</fix>
</trkpt>
<trkpt lat="40.0713748" lon="-105.229789">
  <ele>1583.03</ele>
  <time>2026-08-28T17:54:06Z</time>
  <course>246.13</course>
  <speed>0.02</speed>
  <fix>3d</fix>
</trkpt>
<trkpt lat="40.0713749" lon="-105.229789">
  <ele>1583.0</ele>
  <time>2026-08-28T17:54:06Z</time>
  <course>0.0</course>
  <speed>0.0</speed>
  <fix>3d</fix>
</trkpt>
<trkpt lat="40.0713748" lon="-105.229789">
  <ele>1583.03</ele>
  <time>2026-08-28T17:54:06Z</time>
  <course>246.12</course>
  <speed>0.02</speed>
  <fix>3d</fix>
</trkpt>
<trkpt lat="40.0713749" lon="-105.229789">
  <ele>1583.0</ele>
  <time>2026-08-28T17:54:06Z</time>
  <course>0.0</course>
  <speed>0.0</speed>
  <fix>3d</fix>
</trkpt>
<trkpt lat="40.0713748" lon="-105.229789">
  <ele>1583.03</ele>
  <time>2026-08-28T17:54:06Z</time>
  <course>246.12</course>
  <speed>0.02</speed>
  <fix>3d</fix>
</trkpt>
<trkpt lat="40.0713749" lon="-105.229789">
  <ele>1583.0</ele>
  <time>2026-08-28T17:54:06Z</time>
  <course>0.0</course>
  <speed>0.0</speed>
  <fix>3d</fix>
</trkpt>
<trkpt lat="40.0713748" lon="-105.229789">
  <ele>1583.03</ele>
  <time>2026-08-28T17:54:06Z</time>
  <course>246.12</course>
  <speed>0.02</speed>
  <fix>3d</fix>
</trkpt>
<trkpt lat="40.0713749" lon="-105.229789">
  <ele>1583.0</ele>
  <time>2026-08-28T17:54:06Z</time>
  <course>0.0</course>
  <speed>0.0</speed>
  <fix>3d</fix>
</trkpt>
<trkpt lat="40.0713748" lon="-105.229789">
  <ele>1583.02</ele>
  <time>2026-08-28T17:54:06Z</time>
  <course>246.12</course>
  <speed>0.02</speed>
  <fix>3d</fix>
</trkpt>
<trkpt lat="40.0713749" lon="-105.229789">
  <ele>1583.0</ele>
  <time>2026-08-28T17:54:06Z</time>
  <course>0.0</course>
  <speed>0.0</speed>
  <fix>3d</fix>
</trkpt>
<trkpt lat="40.0713748" lon="-105.229789">
  <ele>1583.02</ele>
  <time>2026-08-28T17:54:06Z</time>
  <course>246.11</course>
  <speed>0.02</speed>
  <fix>3d</fix>
</trkpt>
<trkpt lat="40.0713749" lon="-105.229789">
  <ele>1583.0</ele>
  <time>2026-08-28T17:54:06Z</time>
  <course>0.0</course>
  <speed>0.0</speed>
  <fix>3d</fix>
</trkpt>
<trkpt lat="40.0713748" lon="-105.229789">
  <ele>1583.02</ele>
  <time>2026-08-28T17:54:06Z</time>
  <course>246.11</course>
  <speed>0.02</speed>
  <fix>3d</fix>
</trkpt>
<trkpt lat="40.0713749" lon="-105.229789">
  <ele>1583.0</ele>
  <time>2026-08-28T17:54:06Z</time>
  <course>0.0</course>
  <speed>0.0</speed>
  <fix>3d</fix>
</trkpt>
<trkpt lat="40.0713748" lon="-105.229789">
  <ele>1583.02</ele>
  <time>2026-08-28T17:54:06Z</time>
  <course>246.11</course>
  <speed>0.02</speed>
  <fix>3d</fix>
</trkpt>
<trkpt lat="40.0713749" lon="-105.229789">
  <ele>1583.0</ele>
  <time>2026-08-28T17:54:06Z</time>
  <course>0.0</course>
  <speed>0.0</speed>
  <fix>3d</fix>
</trkpt>
<trkpt lat="40.0713748" lon="-105.229789">
  <ele>1583.02</ele>
  <time>2026-08-28T17:54:06Z</time>
  <course>246.11</course>
  <speed>0.02</speed>
  <fix>3d</fix>
</trkpt>
<trkpt lat="40.0713749" lon="-105.229789">
  <ele>1583.0</ele>
  <time>2026-08-28T17:54:06Z</time>
  <course>0.0</course>
  <speed>0.0</speed>
  <fix>3d</fix>
</trkpt>
<trkpt lat="40.0713748" lon="-105.229789">
  <ele>1583.02</ele>
  <time>2026-08-28T17:54:06Z</time>
  <course>246.1</course>
  <speed>0.02</speed>
  <fix>3d</fix>
</trkpt>
<trkpt lat="40.0713749" lon="-105.229789">
  <ele>1583.0</ele>
  <time>2026-08-28T17:54:06Z</time>
  <course>0.0</course>
  <speed>0.0</speed>
  <fix>3d</fix>
</trkpt>
<trkpt lat="40.0713748" lon="-105.229789">
  <ele>1583.02</ele>
  <time>2026-08-28T17:54:06Z</time>
  <course>246.1</course>
  <speed>0.02</speed>
  <fix>3d</fix>
</trkpt>
<trkpt lat="40.0713749" lon="-105.229789">
  <ele>1583.0</ele>
  <time>2026-08-28T17:54:06Z</time>
  <course>0.0</course>
  <speed>0.0</speed>
  <fix>3d</fix>
</trkpt>
<trkpt lat="40.0713748" lon="-105.229789">
  <ele>1583.02</ele>
  <time>2026-08-28T17:54:06Z</time>
  <course>246.1</course>
  <speed>0.02</speed>
  <fix>3d</fix>
</trkpt>
<trkpt lat="40.0713749" lon="-105.229789">
  <ele>1583.0</ele>
  <time>2026-08-28T17:54:06Z</time>
  <course>0.0</course>
  <speed>0.0</speed>
  <fix>3d</fix>
</trkpt>
<trkpt lat="40.0713748" lon="-105.229789">
  <ele>1583.01</ele>
  <time>2026-08-28T17:54:06Z</time>
  <course>246.09</course>
  <speed>0.02</speed>
  <fix>3d</fix>
</trkpt>
<trkpt lat="40.0713749" lon="-105.229789">
  <ele>1583.0</ele>
  <time>2026-08-28T17:54:06Z</time>
  <course>0.0</course>
  <speed>0.0</speed>
  <fix>3d</fix>
</trkpt>
<trkpt lat="40.0713748" lon="-105.229789">
  <ele>1583.01</ele>
  <time>2026-08-28T17:54:06Z</time>
  <course>246.09</course>
  <speed>0.02</speed>
  <fix>3d</fix>
</trkpt>
<trkpt lat="40.0713749" lon="-105.229789">
  <ele>1583.0</ele>
  <time>2026-08-28T17:54:06Z</time>
  <course>0.0</course>
  <speed>0.0</speed>
  <fix>3d</fix>
</trkpt>
<trkpt lat="40.0713748" lon="-105.229789">
  <ele>1583.01</ele>
  <time>2026-08-28T17:54:06Z</time>
  <course>246.09</course>
  <speed>0.02</speed>
  <fix>3d</fix>
</trkpt>
<trkpt lat="40.0713749" lon="-105.229789">
  <ele>1583.0</ele>
  <time>2026-08-28T17:54:06Z</time>
  <course>0.0</course>
  <speed>0.0</speed>
  <fix>3d</fix>
</trkpt>
<trkpt lat="40.0713748" lon="-105.229789">
  <ele>1583.02</ele>
  <time>2026-08-28T17:54:06Z</time>
  <course>246.09</course>
  <speed>0.02</speed>
  <fix>3d</fix>
</trkpt>
<trkpt lat="40.0713749" lon="-105.229789">
  <ele>1583.0</ele>
  <time>2026-08-28T17:54:06Z</time>
  <course>0.0</course>
  <speed>0.0</speed>
  <fix>3d</fix>
</trkpt>
<trkpt lat="40.0713748" lon="-105.229789">
  <ele>1583.02</ele>
  <time>2026-08-28T17:54:06Z</time>
  <course>246.08</course>
  <speed>0.02</speed>
  <fix>3d</fix>
</trkpt>
<trkpt lat="40.0713749" lon="-105.229789">
  <ele>1583.0</ele>
  <time>2026-08-28T17:54:06Z</time>
  <course>0.0</course>
  <speed>0.0</speed>
  <fix>3d</fix>
</trkpt>
<trkpt lat="40.0713748" lon="-105.229789">
  <ele>1583.02</ele>
  <time>2026-08-28T17:54:06Z</time>
  <course>246.08</course>
  <speed>0.02</speed>
  <fix>3d</fix>
</trkpt>
<trkpt lat="40.0713749" lon="-105.229789">
  <ele>1583.0</ele>
  <time>2026-08-28T17:54:06Z</time>
  <course>0.0</course>
  <speed>0.0</speed>
  <fix>3d</fix>
</trkpt>
<trkpt lat="40.0713748" lon="-105.229789">
  <ele>1583.02</ele>
  <time>2026-08-28T17:54:06Z</time>
  <course>246.08</course>
  <speed>0.02</speed>
  <fix>3d</fix>
</trkpt>
<trkpt lat="40.0713749" lon="-105.229789">
  <ele>1583.0</ele>
  <time>2026-08-28T17:54:06Z</time>
  <course>0.0</course>
  <speed>0.0</speed>
  <fix>3d</fix>
</trkpt>
<trkpt lat="40.0713748" lon="-105.229789">
  <ele>1583.02</ele>
  <time>2026-08-28T17:54:06Z</time>
  <course>246.08</course>
  <speed>0.02</speed>
  <fix>3d</fix>
</trkpt>
<trkpt lat="40.0713749" lon="-105.229789">
  <ele>1583.0</ele>
  <time>2026-08-28T17:54:06Z</time>
  <course>0.0</course>
  <speed>0.0</speed>
  <fix>3d</fix>
</trkpt>
<trkpt lat="40.0713748" lon="-105.229789">
  <ele>1583.02</ele>
  <time>2026-08-28T17:54:06Z</time>
  <course>246.07</course>
  <speed>0.02</speed>
  <fix>3d</fix>
</trkpt>
<trkpt lat="40.0713749" lon="-105.229789">
  <ele>1583.0</ele>
  <time>2026-08-28T17:54:06Z</time>
  <course>0.0</course>
  <speed>0.0</speed>
  <fix>3d</fix>
</trkpt>
<trkpt lat="40.0713748" lon="-105.229789">
  <ele>1583.02</ele>
  <time>2026-08-28T17:54:06Z</time>
  <course>246.07</course>
  <speed>0.02</speed>
  <fix>3d</fix>
</trkpt>
<trkpt lat="40.0713749" lon="-105.229789">
  <ele>1583.0</ele>
  <time>2026-08-28T17:54:06Z</time>
  <course>0.0</course>
  <speed>0.0</speed>
  <fix>3d</fix>
</trkpt>
<trkpt lat="40.0713748" lon="-105.229789">
  <ele>1583.02</ele>
  <time>2026-08-28T17:54:06Z</time>
  <course>246.07</course>
  <speed>0.02</speed>
  <fix>3d</fix>
</trkpt>
<trkpt lat="40.0713749" lon="-105.229789">
  <ele>1583.0</ele>
  <time>2026-08-28T17:54:06Z</time>
  <course>0.0</course>
  <speed>0.0</speed>
  <fix>3d</fix>
</trkpt>
<trkpt lat="40.0713748" lon="-105.229789">
  <ele>1583.02</ele>
  <time>2026-08-28T17:54:06Z</time>
  <course>246.06</course>
  <speed>0.02</speed>
  <fix>3d</fix>
</trkpt>
<trkpt lat="40.0713749" lon="-105.229789">
  <ele>1583.0</ele>
  <time>2026-08-28T17:54:06Z</time>
  <course>0.0</course>
  <speed>0.0</speed>
  <fix>3d</fix>
</trkpt>
<trkpt lat="40.0713748" lon="-105.229789">
  <ele>1583.01</ele>
  <time>2026-08-28T17:54:06Z</time>
  <course>246.06</course>
  <speed>0.02</speed>
  <fix>3d</fix>
</trkpt>
<trkpt lat="40.0713749" lon="-105.229789">
  <ele>1583.0</ele>
  <time>2026-08-28T17:54:06Z</time>
  <course>0.0</course>
  <speed>0.0</speed>
  <fix>3d</fix>
</trkpt>
<trkpt lat="40.0713748" lon="-105.229789">
  <ele>1583.01</ele>
  <time>2026-08-28T17:54:06Z</time>
  <course>246.06</course>
  <speed>0.02</speed>
  <fix>3d</fix>
</trkpt>
<trkpt lat="40.0713749" lon="-105.229789">
  <ele>1583.0</ele>
  <time>2026-08-28T17:54:06Z</time>
  <course>0.0</course>
  <speed>0.0</speed>
  <fix>3d</fix>
</trkpt>
<trkpt lat="40.0713748" lon="-105.229789">
  <ele>1583.01</ele>
  <time>2026-08-28T17:54:06Z</time>
  <course>246.06</course>
  <speed>0.02</speed>
  <fix>3d</fix>
</trkpt>
<trkpt lat="40.0713749" lon="-105.229789">
  <ele>1583.0</ele>
  <time>2026-08-28T17:54:06Z</time>
  <course>0.0</course>
  <speed>0.0</speed>
  <fix>3d</fix>
</trkpt>
<trkpt lat="40.0713748" lon="-105.229789">
  <ele>1583.01</ele>
  <time>2026-08-28T17:54:06Z</time>
  <course>246.05</course>
  <speed>0.02</speed>
  <fix>3d</fix>
</trkpt>
<trkpt lat="40.0713749" lon="-105.229789">
  <ele>1583.0</ele>
  <time>2026-08-28T17:54:06Z</time>
  <course>0.0</course>
  <speed>0.0</speed>
  <fix>3d</fix>
</trkpt>
<trkpt lat="40.0713748" lon="-105.229789">
  <ele>1583.01</ele>
  <time>2026-08-28T17:54:06Z</time>
  <course>246.05</course>
  <speed>0.02</speed>
  <fix>3d</fix>
</trkpt>
<trkpt lat="40.0713749" lon="-105.229789">
  <ele>1583.0</ele>
  <time>2026-08-28T17:54:06Z</time>
  <course>0.0</course>
  <speed>0.0</speed>
  <fix>3d</fix>
</trkpt>
<trkpt lat="40.0713748" lon="-105.229789">
  <ele>1583.0</ele>
  <time>2026-08-28T17:54:06Z</time>
  <course>246.05</course>
  <speed>0.02</speed>
  <fix>3d</fix>
</trkpt>
<trkpt lat="40.0713749" lon="-105.229789">
  <ele>1583.0</ele>
  <time>2026-08-28T17:54:06Z</time>
  <course>0.0</course>
  <speed>0.0</speed>
  <fix>3d</fix>
</trkpt>
<trkpt lat="40.0713748" lon="-105.229789">
  <ele>1583.0</ele>
  <time>2026-08-28T17:54:06Z</time>
  <course>246.05</course>
  <speed>0.02</speed>
  <fix>3d</fix>
</trkpt>
<trkpt lat="40.0713749" lon="-105.229789">
  <ele>1583.0</ele>
  <time>2026-08-28T17:54:06Z</time>
  <course>0.0</course>
  <speed>0.0</speed>
  <fix>3d</fix>
</trkpt>
<trkpt lat="40.0713748" lon="-105.229789">
  <ele>1583.0</ele>
  <time>2026-08-28T17:54:06Z</time>
  <course>246.04</course>
  <speed>0.02</speed>
  <fix>3d</fix>
</trkpt>
<trkpt lat="40.0713749" lon="-105.229789">
  <ele>1583.0</ele>
  <time>2026-08-28T17:54:06Z</time>
  <course>0.0</course>
  <speed>0.0</speed>
  <fix>3d</fix>
</trkpt>
<trkpt lat="40.0713748" lon="-105.229789">
  <ele>1583.0</ele>
  <time>2026-08-28T17:54:06Z</time>
  <course>246.04</course>
  <speed>0.02</speed>
  <fix>3d</fix>
</trkpt>
<trkpt lat="40.0713749" lon="-105.229789">
  <ele>1583.0</ele>
  <time>2026-08-28T17:54:06Z</time>
  <course>0.0</course>
  <speed>0.0</speed>
  <fix>3d</fix>
</trkpt>
<trkpt lat="40.0713748" lon="-105.229789">
  <ele>1583.01</ele>
  <time>2026-08-28T17:54:06Z</time>
  <course>246.04</course>
  <speed>0.02</speed>
  <fix>3d</fix>
</trkpt>
<trkpt lat="40.0713749" lon="-105.229789">
  <ele>1583.0</ele>
  <time>2026-08-28T17:54:06Z</time>
  <course>0.0</course>
  <speed>0.0</speed>
  <fix>3d</fix>
</trkpt>
<trkpt lat="40.0713748" lon="-105.229789">
  <ele>1583.01</ele>
  <time>2026-08-28T17:54:06Z</time>
  <course>246.04</course>
  <speed>0.02</speed>
  <fix>3d</fix>
</trkpt>
<trkpt lat="40.0713749" lon="-105.229789">
  <ele>1583.0</ele>
  <time>2026-08-28T17:54:06Z</time>
  <course>0.0</course>
  <speed>0.0</speed>
  <fix>3d</fix>
</trkpt>
<trkpt lat="40.0713748" lon="-105.229789">
  <ele>1583.01</ele>
  <time>2026-08-28T17:54:06Z</time>
  <course>246.03</course>
  <speed>0.02</speed>
  <fix>3d</fix>
</trkpt>
<trkpt lat="40.0713749" lon="-105.229789">
  <ele>1583.0</ele>
  <time>2026-08-28T17:54:06Z</time>
  <course>0.0</course>
  <speed>0.0</speed>
  <fix>3d</fix>
</trkpt>
<trkpt lat="40.0713748" lon="-105.229789">
  <ele>1583.01</ele>
  <time>2026-08-28T17:54:06Z</time>
  <course>246.03</course>
  <speed>0.02</speed>
  <fix>3d</fix>
</trkpt>
<trkpt lat="40.0713749" lon="-105.229789">
  <ele>1583.0</ele>
  <time>2026-08-28T17:54:06Z</time>
  <course>0.0</course>
  <speed>0.0</speed>
  <fix>3d</fix>
</trkpt>
<trkpt lat="40.0713748" lon="-105.229789">
  <ele>1583.01</ele>
  <time>2026-08-28T17:54:06Z</time>
  <course>246.03</course>
  <speed>0.02</speed>
  <fix>3d</fix>
</trkpt>
<trkpt lat="40.0713749" lon="-105.229789">
  <ele>1583.0</ele>
  <time>2026-08-28T17:54:06Z</time>
  <course>0.0</course>
  <speed>0.0</speed>
  <fix>3d</fix>
</trkpt>
<trkpt lat="40.0713748" lon="-105.229789">
  <ele>1583.01</ele>
  <time>2026-08-28T17:54:06Z</time>
  <course>246.03</course>
  <speed>0.02</speed>
  <fix>3d</fix>
</trkpt>
<trkpt lat="40.0713749" lon="-105.229789">
  <ele>1583.0</ele>
  <time>2026-08-28T17:54:06Z</time>
  <course>0.0</course>
  <speed>0.0</speed>
  <fix>3d</fix>
</trkpt>
<trkpt lat="40.0713748" lon="-105.229789">
  <ele>1583.02</ele>
  <time>2026-08-28T17:54:06Z</time>
  <course>246.02</course>
  <speed>0.02</speed>
  <fix>3d</fix>
</trkpt>
<trkpt lat="40.0713749" lon="-105.229789">
  <ele>1583.0</ele>
  <time>2026-08-28T17:54:06Z</time>
  <course>0.0</course>
  <speed>0.0</speed>
  <fix>3d</fix>
</trkpt>
<trkpt lat="40.0713748" lon="-105.229789">
  <ele>1583.02</ele>
  <time>2026-08-28T17:54:06Z</time>
  <course>246.02</course>
  <speed>0.02</speed>
  <fix>3d</fix>
</trkpt>
<trkpt lat="40.0713749" lon="-105.229789">
  <ele>1583.0</ele>
  <time>2026-08-28T17:54:06Z</time>
  <course>0.0</course>
  <speed>0.0</speed>
  <fix>3d</fix>
</trkpt>
<trkpt lat="40.0713748" lon="-105.229789">
  <ele>1583.02</ele>
  <time>2026-08-28T17:54:06Z</time>
  <course>246.02</course>
  <speed>0.02</speed>
  <fix>3d</fix>
</trkpt>
<trkpt lat="40.0713749" lon="-105.229789">
  <ele>1583.0</ele>
  <time>2026-08-28T17:54:06Z</time>
  <course>0.0</course>
  <speed>0.0</speed>
  <fix>3d</fix>
</trkpt>
<trkpt lat="40.0713748" lon="-105.229789">
  <ele>1583.02</ele>
  <time>2026-08-28T17:54:06Z</time>
  <course>246.01</course>
  <speed>0.02</speed>
  <fix>3d</fix>
</trkpt>
<trkpt lat="40.0713749" lon="-105.229789">
  <ele>1583.0</ele>
  <time>2026-08-28T17:54:06Z</time>
  <course>0.0</course>
  <speed>0.0</speed>
  <fix>3d</fix>
</trkpt>
<trkpt lat="40.0713748" lon="-105.229789">
  <ele>1583.02</ele>
  <time>2026-08-28T17:54:06Z</time>
  <course>246.01</course>
  <speed>0.02</speed>
  <fix>3d</fix>
</trkpt>
<trkpt lat="40.0713749" lon="-105.229789">
  <ele>1583.0</ele>
  <time>2026-08-28T17:54:06Z</time>
  <course>0.0</course>
  <speed>0.0</speed>
  <fix>3d</fix>
</trkpt>
<trkpt lat="40.0713748" lon="-105.229789">
  <ele>1583.02</ele>
  <time>2026-08-28T17:54:06Z</time>
  <course>246.01</course>
  <speed>0.02</speed>
  <fix>3d</fix>
</trkpt>
<trkpt lat="40.0713749" lon="-105.229789">
  <ele>1583.0</ele>
  <time>2026-08-28T17:54:06Z</time>
  <course>0.0</course>
  <speed>0.0</speed>
  <fix>3d</fix>
</trkpt>
<trkpt lat="40.0713748" lon="-105.229789">
  <ele>1583.02</ele>
  <time>2026-08-28T17:54:06Z</time>
  <course>246.01</course>
  <speed>0.02</speed>
  <fix>3d</fix>
</trkpt>
<trkpt lat="40.0713749" lon="-105.229789">
  <ele>1583.0</ele>
  <time>2026-08-28T17:54:06Z</time>
  <course>0.0</course>
  <speed>0.0</speed>
  <fix>3d</fix>
</trkpt>
<trkpt lat="40.0713748" lon="-105.229789">
  <ele>1583.02</ele>
  <time>2026-08-28T17:54:06Z</time>
  <course>246.0</course>
  <speed>0.02</speed>
  <fix>3d</fix>
</trkpt>
<trkpt lat="40.0713749" lon="-105.229789">
  <ele>1583.0</ele>
  <time>2026-08-28T17:54:06Z</time>
  <course>0.0</course>
  <speed>0.0</speed>
  <fix>3d</fix>
</trkpt>
<trkpt lat="40.0713748" lon="-105.229789">
  <ele>1583.02</ele>
  <time>2026-08-28T17:54:06Z</time>
  <course>246.0</course>
  <speed>0.02</speed>
  <fix>3d</fix>
</trkpt>
<trkpt lat="40.0713749" lon="-105.229789">
  <ele>1583.0</ele>
  <time>2026-08-28T17:54:06Z</time>
  <course>0.0</course>
  <speed>0.0</speed>
  <fix>3d</fix>
</trkpt>
<trkpt lat="40.0713748" lon="-105.229789">
  <ele>1583.01</ele>
  <time>2026-08-28T17:54:06Z</time>
  <course>246.0</course>
  <speed>0.02</speed>
  <fix>3d</fix>
</trkpt>
<trkpt lat="40.0713749" lon="-105.229789">
  <ele>1583.0</ele>
  <time>2026-08-28T17:54:06Z</time>
  <course>0.0</course>
  <speed>0.0</speed>
  <fix>3d</fix>
</trkpt>
<trkpt lat="40.0713748" lon="-105.229789">
  <ele>1583.01</ele>
  <time>2026-08-28T17:54:06Z</time>
  <course>246.0</course>
  <speed>0.02</speed>
  <fix>3d</fix>
</trkpt>
<trkpt lat="40.0713749" lon="-105.229789">
  <ele>1583.0</ele>
  <time>2026-08-28T17:54:06Z</time>
  <course>0.0</course>
  <speed>0.0</speed>
  <fix>3d</fix>
</trkpt>
<trkpt lat="40.0713748" lon="-105.229789">
  <ele>1583.01</ele>
  <time>2026-08-28T17:54:06Z</time>
  <course>245.99</course>
  <speed>0.02</speed>
  <fix>3d</fix>
</trkpt>
<trkpt lat="40.0713749" lon="-105.229789">
  <ele>1583.0</ele>
  <time>2026-08-28T17:54:06Z</time>
  <course>0.0</course>
  <speed>0.0</speed>
  <fix>3d</fix>
</trkpt>
<trkpt lat="40.0713748" lon="-105.229789">
  <ele>1583.01</ele>
  <time>2026-08-28T17:54:06Z</time>
  <course>245.99</course>
  <speed>0.02</speed>
  <fix>3d</fix>
</trkpt>
<trkpt lat="40.0713749" lon="-105.229789">
  <ele>1583.0</ele>
  <time>2026-08-28T17:54:06Z</time>
  <course>0.0</course>
  <speed>0.0</speed>
  <fix>3d</fix>
</trkpt>
<trkpt lat="40.0713748" lon="-105.229789">
  <ele>1583.01</ele>
  <time>2026-08-28T17:54:06Z</time>
  <course>245.99</course>
  <speed>0.02</speed>
  <fix>3d</fix>
</trkpt>
<trkpt lat="40.0713749" lon="-105.229789">
  <ele>1583.0</ele>
  <time>2026-08-28T17:54:06Z</time>
  <course>0.0</course>
  <speed>0.0</speed>
  <fix>3d</fix>
</trkpt>
<trkpt lat="40.0713748" lon="-105.229789">
  <ele>1583.02</ele>
  <time>2026-08-28T17:54:06Z</time>
  <course>245.99</course>
  <speed>0.02</speed>
  <fix>3d</fix>
</trkpt>
<trkpt lat="40.0713749" lon="-105.229789">
  <ele>1583.0</ele>
  <time>2026-08-28T17:54:06Z</time>
  <course>0.0</course>
  <speed>0.0</speed>
  <fix>3d</fix>
</trkpt>
<trkpt lat="40.0713748" lon="-105.229789">
  <ele>1583.02</ele>
  <time>2026-08-28T17:54:06Z</time>
  <course>245.98</course>
  <speed>0.02</speed>
  <fix>3d</fix>
</trkpt>
<trkpt lat="40.0713749" lon="-105.229789">
  <ele>1583.0</ele>
  <time>2026-08-28T17:54:06Z</time>
  <course>0.0</course>
  <speed>0.0</speed>
  <fix>3d</fix>
</trkpt>
<trkpt lat="40.0713748" lon="-105.229789">
  <ele>1583.02</ele>
  <time>2026-08-28T17:54:06Z</time>
  <course>245.98</course>
  <speed>0.02</speed>
  <fix>3d</fix>
</trkpt>
<trkpt lat="40.0713749" lon="-105.229789">
  <ele>1583.0</ele>
  <time>2026-08-28T17:54:06Z</time>
  <course>0.0</course>
  <speed>0.0</speed>
  <fix>3d</fix>
</trkpt>
<trkpt lat="40.0713748" lon="-105.229789">
  <ele>1583.02</ele>
  <time>2026-08-28T17:54:06Z</time>
  <course>245.98</course>
  <speed>0.02</speed>
  <fix>3d</fix>
</trkpt>
<trkpt lat="40.0713749" lon="-105.229789">
  <ele>1583.0</ele>
  <time>2026-08-28T17:54:06Z</time>
  <course>0.0</course>
  <speed>0.0</speed>
  <fix>3d</fix>
</trkpt>
<trkpt lat="40.0713748" lon="-105.229789">
  <ele>1583.02</ele>
  <time>2026-08-28T17:54:06Z</time>
  <course>245.98</course>
  <speed>0.02</speed>
  <fix>3d</fix>
</trkpt>
<trkpt lat="40.0713749" lon="-105.229789">
  <ele>1583.0</ele>
  <time>2026-08-28T17:54:06Z</time>
  <course>0.0</course>
  <speed>0.0</speed>
  <fix>3d</fix>
</trkpt>
<trkpt lat="40.0713748" lon="-105.229789">
  <ele>1583.01</ele>
  <time>2026-08-28T17:54:06Z</time>
  <course>245.97</course>
  <speed>0.02</speed>
  <fix>3d</fix>
</trkpt>
<trkpt lat="40.0713749" lon="-105.229789">
  <ele>1583.0</ele>
  <time>2026-08-28T17:54:06Z</time>
  <course>0.0</course>
  <speed>0.0</speed>
  <fix>3d</fix>
</trkpt>
<trkpt lat="40.0713748" lon="-105.229789">
  <ele>1583.01</ele>
  <time>2026-08-28T17:54:06Z</time>
  <course>245.97</course>
  <speed>0.02</speed>
  <fix>3d</fix>
</trkpt>
<trkpt lat="40.0713749" lon="-105.229789">
  <ele>1583.0</ele>
  <time>2026-08-28T17:54:06Z</time>
  <course>0.0</course>
  <speed>0.0</speed>
  <fix>3d</fix>
</trkpt>
<trkpt lat="40.0713748" lon="-105.229789">
  <ele>1583.01</ele>
  <time>2026-08-28T17:54:06Z</time>
  <course>245.97</course>
  <speed>0.02</speed>
  <fix>3d</fix>
</trkpt>
<trkpt lat="40.0713749" lon="-105.229789">
  <ele>1583.0</ele>
  <time>2026-08-28T17:54:06Z</time>
  <course>0.0</course>
  <speed>0.0</speed>
  <fix>3d</fix>
</trkpt>
<trkpt lat="40.0713748" lon="-105.229789">
  <ele>1583.02</ele>
  <time>2026-08-28T17:54:06Z</time>
  <course>245.97</course>
  <speed>0.02</speed>
  <fix>3d</fix>
</trkpt>
<trkpt lat="40.0713749" lon="-105.229789">
  <ele>1583.0</ele>
  <time>2026-08-28T17:54:06Z</time>
  <course>0.0</course>
  <speed>0.0</speed>
  <fix>3d</fix>
</trkpt>
<trkpt lat="40.0713748" lon="-105.229789">
  <ele>1583.02</ele>
  <time>2026-08-28T17:54:06Z</time>
  <course>245.96</course>
  <speed>0.02</speed>
  <fix>3d</fix>
</trkpt>
<trkpt lat="40.0713749" lon="-105.229789">
  <ele>1583.0</ele>
  <time>2026-08-28T17:54:06Z</time>
  <course>0.0</course>
  <speed>0.0</speed>
  <fix>3d</fix>
</trkpt>
<trkpt lat="40.0713748" lon="-105.229789">
  <ele>1583.01</ele>
  <time>2026-08-28T17:54:06Z</time>
  <course>245.96</course>
  <speed>0.02</speed>
  <fix>3d</fix>
</trkpt>
<trkpt lat="40.0713749" lon="-105.229789">
  <ele>1583.0</ele>
  <time>2026-08-28T17:54:06Z</time>
  <course>0.0</course>
  <speed>0.0</speed>
  <fix>3d</fix>
</trkpt>
<trkpt lat="40.0713748" lon="-105.229789">
  <ele>1583.02</ele>
  <time>2026-08-28T17:54:06Z</time>
  <course>245.96</course>
  <speed>0.02</speed>
  <fix>3d</fix>
</trkpt>
<trkpt lat="40.0713749" lon="-105.229789">
  <ele>1583.0</ele>
  <time>2026-08-28T17:54:06Z</time>
  <course>0.0</course>
  <speed>0.0</speed>
  <fix>3d</fix>
</trkpt>
<trkpt lat="40.0713748" lon="-105.229789">
  <ele>1583.01</ele>
  <time>2026-08-28T17:54:06Z</time>
  <course>245.96</course>
  <speed>0.02</speed>
  <fix>3d</fix>
</trkpt>
<trkpt lat="40.0713749" lon="-105.229789">
  <ele>1583.0</ele>
  <time>2026-08-28T17:54:06Z</time>
  <course>0.0</course>
  <speed>0.0</speed>
  <fix>3d</fix>
</trkpt>
<trkpt lat="40.0713748" lon="-105.229789">
  <ele>1583.01</ele>
  <time>2026-08-28T17:54:06Z</time>
  <course>245.95</course>
  <speed>0.02</speed>
  <fix>3d</fix>
</trkpt>
<trkpt lat="40.0713749" lon="-105.229789">
  <ele>1583.0</ele>
  <time>2026-08-28T17:54:06Z</time>
  <course>0.0</course>
  <speed>0.0</speed>
  <fix>3d</fix>
</trkpt>
<trkpt lat="40.0713748" lon="-105.229789">
  <ele>1583.01</ele>
  <time>2026-08-28T17:54:06Z</time>
  <course>245.95</course>
  <speed>0.02</speed>
  <fix>3d</fix>
</trkpt>
<trkpt lat="40.0713749" lon="-105.229789">
  <ele>1583.0</ele>
  <time>2026-08-28T17:54:06Z</time>
  <course>0.0</course>
  <speed>0.0</speed>
  <fix>3d</fix>
</trkpt>
<trkpt lat="40.0713748" lon="-105.229789">
  <ele>1583.01</ele>
  <time>2026-08-28T17:54:06Z</time>
  <course>245.95</course>
  <speed>0.02</speed>
  <fix>3d</fix>
</trkpt>
<trkpt lat="40.0713749" lon="-105.229789">
  <ele>1583.0</ele>
  <time>2026-08-28T17:54:06Z</time>
  <course>0.0</course>
  <speed>0.0</speed>
  <fix>3d</fix>
</trkpt>
<trkpt lat="40.0713748" lon="-105.229789">
  <ele>1583.01</ele>
  <time>2026-08-28T17:54:06Z</time>
  <course>245.95</course>
  <speed>0.02</speed>
  <fix>3d</fix>
</trkpt>
<trkpt lat="40.0713749" lon="-105.229789">
  <ele>1583.0</ele>
  <time>2026-08-28T17:54:06Z</time>
  <course>0.0</course>
  <speed>0.0</speed>
  <fix>3d</fix>
</trkpt>
<trkpt lat="40.0713748" lon="-105.229789">
  <ele>1583.01</ele>
  <time>2026-08-28T17:54:06Z</time>
  <course>245.94</course>
  <speed>0.02</speed>
  <fix>3d</fix>
</trkpt>
<trkpt lat="40.0713749" lon="-105.229789">
  <ele>1583.0</ele>
  <time>2026-08-28T17:54:06Z</time>
  <course>0.0</course>
  <speed>0.0</speed>
  <fix>3d</fix>
</trkpt>
<trkpt lat="40.0713748" lon="-105.229789">
  <ele>1583.01</ele>
  <time>2026-08-28T17:54:06Z</time>
  <course>245.94</course>
  <speed>0.02</speed>
  <fix>3d</fix>
</trkpt>
<trkpt lat="40.0713749" lon="-105.229789">
  <ele>1583.0</ele>
  <time>2026-08-28T17:54:06Z</time>
  <course>0.0</course>
  <speed>0.0</speed>
  <fix>3d</fix>
</trkpt>
<trkpt lat="40.0713748" lon="-105.229789">
  <ele>1583.01</ele>
  <time>2026-08-28T17:54:06Z</time>
  <course>245.94</course>
  <speed>0.02</speed>
  <fix>3d</fix>
</trkpt>
<trkpt lat="40.0713749" lon="-105.229789">
  <ele>1583.0</ele>
  <time>2026-08-28T17:54:06Z</time>
  <course>0.0</course>
  <speed>0.0</speed>
  <fix>3d</fix>
</trkpt>
<trkpt lat="40.0713748" lon="-105.229789">
  <ele>1583.01</ele>
  <time>2026-08-28T17:54:06Z</time>
  <course>245.94</course>
  <speed>0.02</speed>
  <fix>3d</fix>
</trkpt>
<trkpt lat="40.0713749" lon="-105.229789">
  <ele>1583.0</ele>
  <time>2026-08-28T17:54:06Z</time>
  <course>0.0</course>
  <speed>0.0</speed>
  <fix>3d</fix>
</trkpt>
<trkpt lat="40.0713748" lon="-105.229789">
  <ele>1583.01</ele>
  <time>2026-08-28T17:54:06Z</time>
  <course>245.93</course>
  <speed>0.02</speed>
  <fix>3d</fix>
</trkpt>
<trkpt lat="40.0713749" lon="-105.229789">
  <ele>1583.0</ele>
  <time>2026-08-28T17:54:06Z</time>
  <course>0.0</course>
  <speed>0.0</speed>
  <fix>3d</fix>
</trkpt>
<trkpt lat="40.0713748" lon="-105.229789">
  <ele>1583.02</ele>
  <time>2026-08-28T17:54:06Z</time>
  <course>245.93</course>
  <speed>0.02</speed>
  <fix>3d</fix>
</trkpt>
<trkpt lat="40.0713749" lon="-105.229789">
  <ele>1583.0</ele>
  <time>2026-08-28T17:54:06Z</time>
  <course>0.0</course>
  <speed>0.0</speed>
  <fix>3d</fix>
</trkpt>
<trkpt lat="40.0713748" lon="-105.229789">
  <ele>1583.02</ele>
  <time>2026-08-28T17:54:06Z</time>
  <course>245.93</course>
  <speed>0.02</speed>
  <fix>3d</fix>
</trkpt>
<trkpt lat="40.0713749" lon="-105.229789">
  <ele>1583.0</ele>
  <time>2026-08-28T17:54:06Z</time>
  <course>0.0</course>
  <speed>0.0</speed>
  <fix>3d</fix>
</trkpt>
<trkpt lat="40.0713748" lon="-105.229789">
  <ele>1583.02</ele>
  <time>2026-08-28T17:54:06Z</time>
  <course>245.92</course>
  <speed>0.02</speed>
  <fix>3d</fix>
</trkpt>
<trkpt lat="40.0713749" lon="-105.229789">
  <ele>1583.0</ele>
  <time>2026-08-28T17:54:06Z</time>
  <course>0.0</course>
  <speed>0.0</speed>
  <fix>3d</fix>
</trkpt>
<trkpt lat="40.0713748" lon="-105.229789">
  <ele>1583.02</ele>
  <time>2026-08-28T17:54:06Z</time>
  <course>245.92</course>
  <speed>0.02</speed>
  <fix>3d</fix>
</trkpt>
<trkpt lat="40.0713749" lon="-105.229789">
  <ele>1583.0</ele>
  <time>2026-08-28T17:54:06Z</time>
  <course>0.0</course>
  <speed>0.0</speed>
  <fix>3d</fix>
</trkpt>
<trkpt lat="40.0713748" lon="-105.229789">
  <ele>1583.02</ele>
  <time>2026-08-28T17:54:06Z</time>
  <course>245.92</course>
  <speed>0.02</speed>
  <fix>3d</fix>
</trkpt>
<trkpt lat="40.0713749" lon="-105.229789">
  <ele>1583.0</ele>
  <time>2026-08-28T17:54:06Z</time>
  <course>0.0</course>
  <speed>0.0</speed>
  <fix>3d</fix>
</trkpt>
<trkpt lat="40.0713748" lon="-105.229789">
  <ele>1583.02</ele>
  <time>2026-08-28T17:54:06Z</time>
  <course>245.92</course>
  <speed>0.02</speed>
  <fix>3d</fix>
</trkpt>
<trkpt lat="40.0713749" lon="-105.229789">
  <ele>1583.0</ele>
  <time>2026-08-28T17:54:06Z</time>
  <course>0.0</course>
  <speed>0.0</speed>
  <fix>3d</fix>
</trkpt>
<trkpt lat="40.0713748" lon="-105.229789">
  <ele>1583.02</ele>
  <time>2026-08-28T17:54:06Z</time>
  <course>245.91</course>
  <speed>0.02</speed>
  <fix>3d</fix>
</trkpt>
<trkpt lat="40.0713749" lon="-105.229789">
  <ele>1583.0</ele>
  <time>2026-08-28T17:54:06Z</time>
  <course>0.0</course>
  <speed>0.0</speed>
  <fix>3d</fix>
</trkpt>
<trkpt lat="40.0713748" lon="-105.229789">
  <ele>1583.02</ele>
  <time>2026-08-28T17:54:06Z</time>
  <course>245.91</course>
  <speed>0.02</speed>
  <fix>3d</fix>
</trkpt>
<trkpt lat="40.0713749" lon="-105.229789">
  <ele>1583.0</ele>
  <time>2026-08-28T17:54:06Z</time>
  <course>0.0</course>
  <speed>0.0</speed>
  <fix>3d</fix>
</trkpt>
<trkpt lat="40.0713748" lon="-105.229789">
  <ele>1583.02</ele>
  <time>2026-08-28T17:54:06Z</time>
  <course>245.91</course>
  <speed>0.02</speed>
  <fix>3d</fix>
</trkpt>
<trkpt lat="40.0713749" lon="-105.229789">
  <ele>1583.0</ele>
  <time>2026-08-28T17:54:06Z</time>
  <course>0.0</course>
  <speed>0.0</speed>
  <fix>3d</fix>
</trkpt>
<trkpt lat="40.0713748" lon="-105.229789">
  <ele>1583.02</ele>
  <time>2026-08-28T17:54:06Z</time>
  <course>245.91</course>
  <speed>0.02</speed>
  <fix>3d</fix>
</trkpt>
<trkpt lat="40.0713749" lon="-105.229789">
  <ele>1583.0</ele>
  <time>2026-08-28T17:54:06Z</time>
  <course>0.0</course>
  <speed>0.0</speed>
  <fix>3d</fix>
</trkpt>
<trkpt lat="40.0713748" lon="-105.229789">
  <ele>1583.02</ele>
  <time>2026-08-28T17:54:06Z</time>
  <course>245.9</course>
  <speed>0.02</speed>
  <fix>3d</fix>
</trkpt>
<trkpt lat="40.0713749" lon="-105.229789">
  <ele>1583.0</ele>
  <time>2026-08-28T17:54:06Z</time>
  <course>0.0</course>
  <speed>0.0</speed>
  <fix>3d</fix>
</trkpt>
<trkpt lat="40.0713748" lon="-105.229789">
  <ele>1583.01</ele>
  <time>2026-08-28T17:54:06Z</time>
  <course>245.9</course>
  <speed>0.02</speed>
  <fix>3d</fix>
</trkpt>
<trkpt lat="40.0713749" lon="-105.229789">
  <ele>1583.0</ele>
  <time>2026-08-28T17:54:06Z</time>
  <course>0.0</course>
  <speed>0.0</speed>
  <fix>3d</fix>
</trkpt>
<trkpt lat="40.0713748" lon="-105.229789">
  <ele>1583.01</ele>
  <time>2026-08-28T17:54:06Z</time>
  <course>245.9</course>
  <speed>0.02</speed>
  <fix>3d</fix>
</trkpt>
<trkpt lat="40.0713749" lon="-105.229789">
  <ele>1583.0</ele>
  <time>2026-08-28T17:54:06Z</time>
  <course>0.0</course>
  <speed>0.0</speed>
  <fix>3d</fix>
</trkpt>
<trkpt lat="40.0713748" lon="-105.229789">
  <ele>1583.01</ele>
  <time>2026-08-28T17:54:06Z</time>
  <course>245.9</course>
  <speed>0.02</speed>
  <fix>3d</fix>
</trkpt>
<trkpt lat="40.0713749" lon="-105.229789">
  <ele>1583.0</ele>
  <time>2026-08-28T17:54:06Z</time>
  <course>0.0</course>
  <speed>0.0</speed>
  <fix>3d</fix>
</trkpt>
<trkpt lat="40.0713748" lon="-105.229789">
  <ele>1583.01</ele>
  <time>2026-08-28T17:54:06Z</time>
  <course>245.89</course>
  <speed>0.02</speed>
  <fix>3d</fix>
</trkpt>
<trkpt lat="40.0713749" lon="-105.229789">
  <ele>1583.0</ele>
  <time>2026-08-28T17:54:06Z</time>
  <course>0.0</course>
  <speed>0.0</speed>
  <fix>3d</fix>
</trkpt>
<trkpt lat="40.0713748" lon="-105.229789">
  <ele>1583.01</ele>
  <time>2026-08-28T17:54:06Z</time>
  <course>245.89</course>
  <speed>0.02</speed>
  <fix>3d</fix>
</trkpt>
<trkpt lat="40.0713749" lon="-105.229789">
  <ele>1583.0</ele>
  <time>2026-08-28T17:54:06Z</time>
  <course>0.0</course>
  <speed>0.0</speed>
  <fix>3d</fix>
</trkpt>
<trkpt lat="40.0713748" lon="-105.229789">
  <ele>1583.01</ele>
  <time>2026-08-28T17:54:06Z</time>
  <course>245.89</course>
  <speed>0.02</speed>
  <fix>3d</fix>
</trkpt>
<trkpt lat="40.0713749" lon="-105.229789">
  <ele>1583.0</ele>
  <time>2026-08-28T17:54:06Z</time>
  <course>0.0</course>
  <speed>0.0</speed>
  <fix>3d</fix>
</trkpt>
<trkpt lat="40.0713748" lon="-105.229789">
  <ele>1583.01</ele>
  <time>2026-08-28T17:54:06Z</time>
  <course>245.89</course>
  <speed>0.02</speed>
  <fix>3d</fix>
</trkpt>
<trkpt lat="40.0713749" lon="-105.229789">
  <ele>1583.0</ele>
  <time>2026-08-28T17:54:06Z</time>
  <course>0.0</course>
  <speed>0.0</speed>
  <fix>3d</fix>
</trkpt>
<trkpt lat="40.0713748" lon="-105.229789">
  <ele>1583.01</ele>
  <time>2026-08-28T17:54:06Z</time>
  <course>245.88</course>
  <speed>0.02</speed>
  <fix>3d</fix>
</trkpt>
<trkpt lat="40.0713749" lon="-105.229789">
  <ele>1583.0</ele>
  <time>2026-08-28T17:54:06Z</time>
  <course>0.0</course>
  <speed>0.0</speed>
  <fix>3d</fix>
</trkpt>
<trkpt lat="40.0713748" lon="-105.229789">
  <ele>1583.01</ele>
  <time>2026-08-28T17:54:06Z</time>
  <course>245.88</course>
  <speed>0.02</speed>
  <fix>3d</fix>
</trkpt>
<trkpt lat="40.0713749" lon="-105.229789">
  <ele>1583.0</ele>
  <time>2026-08-28T17:54:06Z</time>
  <course>0.0</course>
  <speed>0.0</speed>
  <fix>3d</fix>
</trkpt>
<trkpt lat="40.0713748" lon="-105.229789">
  <ele>1583.01</ele>
  <time>2026-08-28T17:54:06Z</time>
  <course>245.88</course>
  <speed>0.02</speed>
  <fix>3d</fix>
</trkpt>
<trkpt lat="40.0713749" lon="-105.229789">
  <ele>1583.0</ele>
  <time>2026-08-28T17:54:06Z</time>
  <course>0.0</course>
  <speed>0.0</speed>
  <fix>3d</fix>
</trkpt>
<trkpt lat="40.0713748" lon="-105.229789">
  <ele>1583.01</ele>
  <time>2026-08-28T17:54:06Z</time>
  <course>245.88</course>
  <speed>0.02</speed>
  <fix>3d</fix>
</trkpt>
<trkpt lat="40.0713749" lon="-105.229789">
  <ele>1583.0</ele>
  <time>2026-08-28T17:54:06Z</time>
  <course>0.0</course>
  <speed>0.0</speed>
  <fix>3d</fix>
</trkpt>
<trkpt lat="40.0713748" lon="-105.229789">
  <ele>1583.02</ele>
  <time>2026-08-28T17:54:06Z</time>
  <course>245.87</course>
  <speed>0.02</speed>
  <fix>3d</fix>
</trkpt>
<trkpt lat="40.0713749" lon="-105.229789">
  <ele>1583.0</ele>
  <time>2026-08-28T17:54:06Z</time>
  <course>0.0</course>
  <speed>0.0</speed>
  <fix>3d</fix>
</trkpt>
<trkpt lat="40.0713748" lon="-105.229789">
  <ele>1583.02</ele>
  <time>2026-08-28T17:54:06Z</time>
  <course>245.87</course>
  <speed>0.02</speed>
  <fix>3d</fix>
</trkpt>
<trkpt lat="40.0713749" lon="-105.229789">
  <ele>1583.0</ele>
  <time>2026-08-28T17:54:06Z</time>
  <course>0.0</course>
  <speed>0.0</speed>
  <fix>3d</fix>
</trkpt>
<trkpt lat="40.0713748" lon="-105.229789">
  <ele>1583.02</ele>
  <time>2026-08-28T17:54:06Z</time>
  <course>245.87</course>
  <speed>0.02</speed>
  <fix>3d</fix>
</trkpt>
<trkpt lat="40.0713749" lon="-105.229789">
  <ele>1583.0</ele>
  <time>2026-08-28T17:54:06Z</time>
  <course>0.0</course>
  <speed>0.0</speed>
  <fix>3d</fix>
</trkpt>
<trkpt lat="40.0713748" lon="-105.229789">
  <ele>1583.02</ele>
  <time>2026-08-28T17:54:06Z</time>
  <course>245.87</course>
  <speed>0.02</speed>
  <fix>3d</fix>
</trkpt>
<trkpt lat="40.0713749" lon="-105.229789">
  <ele>1583.0</ele>
  <time>2026-08-28T17:54:06Z</time>
  <course>0.0</course>
  <speed>0.0</speed>
  <fix>3d</fix>
</trkpt>
<trkpt lat="40.0713748" lon="-105.229789">
  <ele>1583.02</ele>
  <time>2026-08-28T17:54:06Z</time>
  <course>245.86</course>
  <speed>0.02</speed>
  <fix>3d</fix>
</trkpt>
<trkpt lat="40.0713749" lon="-105.229789">
  <ele>1583.0</ele>
  <time>2026-08-28T17:54:06Z</time>
  <course>0.0</course>
  <speed>0.0</speed>
  <fix>3d</fix>
</trkpt>
<trkpt lat="40.0713748" lon="-105.229789">
  <ele>1583.02</ele>
  <time>2026-08-28T17:54:06Z</time>
  <course>245.86</course>
  <speed>0.02</speed>
  <fix>3d</fix>
</trkpt>
<trkpt lat="40.0713749" lon="-105.229789">
  <ele>1583.0</ele>
  <time>2026-08-28T17:54:06Z</time>
  <course>0.0</course>
  <speed>0.0</speed>
  <fix>3d</fix>
</trkpt>
<trkpt lat="40.0713748" lon="-105.229789">
  <ele>1583.02</ele>
  <time>2026-08-28T17:54:06Z</time>
  <course>245.86</course>
  <speed>0.02</speed>
  <fix>3d</fix>
</trkpt>
<trkpt lat="40.0713749" lon="-105.229789">
  <ele>1583.0</ele>
  <time>2026-08-28T17:54:06Z</time>
  <course>66.0</course>
  <speed>0.0</speed>
  <fix>3d</fix>
</trkpt>
<trkpt lat="40.0713748" lon="-105.229789">
  <ele>1583.02</ele>
  <time>2026-08-28T17:54:06Z</time>
  <course>245.86</course>
  <speed>0.02</speed>
  <fix>3d</fix>
</trkpt>
<trkpt lat="40.0713749" lon="-105.229789">
  <ele>1583.0</ele>
  <time>2026-08-28T17:54:06Z</time>
  <course>66.0</course>
  <speed>0.0</speed>
  <fix>3d</fix>
</trkpt>
<trkpt lat="40.0713748" lon="-105.229789">
  <ele>1583.01</ele>
  <time>2026-08-28T17:54:06Z</time>
  <course>245.85</course>
  <speed>0.02</speed>
  <fix>3d</fix>
</trkpt>
<trkpt lat="40.0713749" lon="-105.229789">
  <ele>1583.0</ele>
  <time>2026-08-28T17:54:06Z</time>
  <course>66.0</course>
  <speed>0.0</speed>
  <fix>3d</fix>
</trkpt>
<trkpt lat="40.0713748" lon="-105.229789">
  <ele>1583.01</ele>
  <time>2026-08-28T17:54:06Z</time>
  <course>245.85</course>
  <speed>0.02</speed>
  <fix>3d</fix>
</trkpt>
<trkpt lat="40.0713749" lon="-105.229789">
  <ele>1583.0</ele>
  <time>2026-08-28T17:54:06Z</time>
  <course>66.0</course>
  <speed>0.0</speed>
  <fix>3d</fix>
</trkpt>
<trkpt lat="40.0713748" lon="-105.229789">
  <ele>1583.01</ele>
  <time>2026-08-28T17:54:06Z</time>
  <course>245.85</course>
  <speed>0.02</speed>
  <fix>3d</fix>
</trkpt>
<trkpt lat="40.0713749" lon="-105.229789">
  <ele>1583.0</ele>
  <time>2026-08-28T17:54:06Z</time>
  <course>66.0</course>
  <speed>0.0</speed>
  <fix>3d</fix>
</trkpt>
<trkpt lat="40.0713748" lon="-105.229789">
  <ele>1583.01</ele>
  <time>2026-08-28T17:54:06Z</time>
  <course>245.85</course>
  <speed>0.02</speed>
  <fix>3d</fix>
</trkpt>
<trkpt lat="40.0713749" lon="-105.229789">
  <ele>1583.0</ele>
  <time>2026-08-28T17:54:06Z</time>
  <course>66.0</course>
  <speed>0.0</speed>
  <fix>3d</fix>
</trkpt>
<trkpt lat="40.0713748" lon="-105.229789">
  <ele>1583.01</ele>
  <time>2026-08-28T17:54:06Z</time>
  <course>245.85</course>
  <speed>0.02</speed>
  <fix>3d</fix>
</trkpt>
<trkpt lat="40.0713749" lon="-105.229789">
  <ele>1583.0</ele>
  <time>2026-08-28T17:54:06Z</time>
  <course>66.0</course>
  <speed>0.0</speed>
  <fix>3d</fix>
</trkpt>
<trkpt lat="40.0713748" lon="-105.229789">
  <ele>1583.01</ele>
  <time>2026-08-28T17:54:06Z</time>
  <course>245.84</course>
  <speed>0.02</speed>
  <fix>3d</fix>
</trkpt>
<trkpt lat="40.0713749" lon="-105.229789">
  <ele>1583.0</ele>
  <time>2026-08-28T17:54:06Z</time>
  <course>66.0</course>
  <speed>0.0</speed>
  <fix>3d</fix>
</trkpt>
<trkpt lat="40.0713748" lon="-105.229789">
  <ele>1583.01</ele>
  <time>2026-08-28T17:54:06Z</time>
  <course>245.84</course>
  <speed>0.02</speed>
  <fix>3d</fix>
</trkpt>
<trkpt lat="40.0713749" lon="-105.229789">
  <ele>1583.0</ele>
  <time>2026-08-28T17:54:06Z</time>
  <course>66.0</course>
  <speed>0.0</speed>
  <fix>3d</fix>
</trkpt>
<trkpt lat="40.0713748" lon="-105.229789">
  <ele>1583.01</ele>
  <time>2026-08-28T17:54:06Z</time>
  <course>245.84</course>
  <speed>0.02</speed>
  <fix>3d</fix>
</trkpt>
<trkpt lat="40.0713749" lon="-105.229789">
  <ele>1583.0</ele>
  <time>2026-08-28T17:54:06Z</time>
  <course>65.99</course>
  <speed>0.0</speed>
  <fix>3d</fix>
</trkpt>
<trkpt lat="40.0713748" lon="-105.229789">
  <ele>1583.01</ele>
  <time>2026-08-28T17:54:06Z</time>
  <course>245.84</course>
  <speed>0.02</speed>
  <fix>3d</fix>
</trkpt>
<trkpt lat="40.0713749" lon="-105.229789">
  <ele>1583.0</ele>
  <time>2026-08-28T17:54:06Z</time>
  <course>65.99</course>
  <speed>0.0</speed>
  <fix>3d</fix>
</trkpt>
<trkpt lat="40.0713748" lon="-105.229789">
  <ele>1583.01</ele>
  <time>2026-08-28T17:54:06Z</time>
  <course>245.83</course>
  <speed>0.02</speed>
  <fix>3d</fix>
</trkpt>
<trkpt lat="40.0713749" lon="-105.229789">
  <ele>1583.0</ele>
  <time>2026-08-28T17:54:06Z</time>
  <course>65.99</course>
  <speed>0.0</speed>
  <fix>3d</fix>
</trkpt>
<trkpt lat="40.0713748" lon="-105.229789">
  <ele>1583.01</ele>
  <time>2026-08-28T17:54:06Z</time>
  <course>245.83</course>
  <speed>0.02</speed>
  <fix>3d</fix>
</trkpt>
<trkpt lat="40.0713749" lon="-105.229789">
  <ele>1583.0</ele>
  <time>2026-08-28T17:54:06Z</time>
  <course>65.99</course>
  <speed>0.0</speed>
  <fix>3d</fix>
</trkpt>
<trkpt lat="40.0713748" lon="-105.229789">
  <ele>1583.01</ele>
  <time>2026-08-28T17:54:06Z</time>
  <course>245.83</course>
  <speed>0.02</speed>
  <fix>3d</fix>
</trkpt>
<trkpt lat="40.0713749" lon="-105.229789">
  <ele>1583.0</ele>
  <time>2026-08-28T17:54:06Z</time>
  <course>65.99</course>
  <speed>0.0</speed>
  <fix>3d</fix>
</trkpt>
<trkpt lat="40.0713748" lon="-105.229789">
  <ele>1583.01</ele>
  <time>2026-08-28T17:54:06Z</time>
  <course>245.83</course>
  <speed>0.02</speed>
  <fix>3d</fix>
</trkpt>
<trkpt lat="40.0713749" lon="-105.229789">
  <ele>1583.0</ele>
  <time>2026-08-28T17:54:06Z</time>
  <course>65.99</course>
  <speed>0.0</speed>
  <fix>3d</fix>
</trkpt>
<trkpt lat="40.0713748" lon="-105.229789">
  <ele>1583.01</ele>
  <time>2026-08-28T17:54:06Z</time>
  <course>245.82</course>
  <speed>0.02</speed>
  <fix>3d</fix>
</trkpt>
<trkpt lat="40.0713749" lon="-105.229789">
  <ele>1583.0</ele>
  <time>2026-08-28T17:54:06Z</time>
  <course>65.99</course>
  <speed>0.0</speed>
  <fix>3d</fix>
</trkpt>
<trkpt lat="40.0713748" lon="-105.229789">
  <ele>1583.01</ele>
  <time>2026-08-28T17:54:06Z</time>
  <course>245.82</course>
  <speed>0.02</speed>
  <fix>3d</fix>
</trkpt>
<trkpt lat="40.0713749" lon="-105.229789">
  <ele>1583.0</ele>
  <time>2026-08-28T17:54:06Z</time>
  <course>65.99</course>
  <speed>0.0</speed>
  <fix>3d</fix>
</trkpt>
<trkpt lat="40.0713748" lon="-105.229789">
  <ele>1583.01</ele>
  <time>2026-08-28T17:54:06Z</time>
  <course>245.82</course>
  <speed>0.02</speed>
  <fix>3d</fix>
</trkpt>
<trkpt lat="40.0713749" lon="-105.229789">
  <ele>1583.0</ele>
  <time>2026-08-28T17:54:06Z</time>
  <course>65.99</course>
  <speed>0.0</speed>
  <fix>3d</fix>
</trkpt>
<trkpt lat="40.0713748" lon="-105.229789">
  <ele>1583.01</ele>
  <time>2026-08-28T17:54:06Z</time>
  <course>245.82</course>
  <speed>0.02</speed>
  <fix>3d</fix>
</trkpt>
<trkpt lat="40.0713749" lon="-105.229789">
  <ele>1583.0</ele>
  <time>2026-08-28T17:54:06Z</time>
  <course>65.99</course>
  <speed>0.0</speed>
  <fix>3d</fix>
</trkpt>
<trkpt lat="40.0713748" lon="-105.229789">
  <ele>1583.01</ele>
  <time>2026-08-28T17:54:06Z</time>
  <course>245.81</course>
  <speed>0.02</speed>
  <fix>3d</fix>
</trkpt>
<trkpt lat="40.0713749" lon="-105.229789">
  <ele>1583.0</ele>
  <time>2026-08-28T17:54:06Z</time>
  <course>65.99</course>
  <speed>0.0</speed>
  <fix>3d</fix>
</trkpt>
<trkpt lat="40.0713748" lon="-105.229789">
  <ele>1583.01</ele>
  <time>2026-08-28T17:54:06Z</time>
  <course>245.81</course>
  <speed>0.02</speed>
  <fix>3d</fix>
</trkpt>
<trkpt lat="40.0713749" lon="-105.229789">
  <ele>1583.0</ele>
  <time>2026-08-28T17:54:06Z</time>
  <course>65.99</course>
  <speed>0.0</speed>
  <fix>3d</fix>
</trkpt>
<trkpt lat="40.0713748" lon="-105.229789">
  <ele>1583.01</ele>
  <time>2026-08-28T17:54:06Z</time>
  <course>245.81</course>
  <speed>0.02</speed>
  <fix>3d</fix>
</trkpt>
<trkpt lat="40.0713749" lon="-105.229789">
  <ele>1583.0</ele>
  <time>2026-08-28T17:54:06Z</time>
  <course>65.99</course>
  <speed>0.0</speed>
  <fix>3d</fix>
</trkpt>
<trkpt lat="40.0713748" lon="-105.229789">
  <ele>1583.01</ele>
  <time>2026-08-28T17:54:06Z</time>
  <course>245.81</course>
  <speed>0.02</speed>
  <fix>3d</fix>
</trkpt>
<trkpt lat="40.0713749" lon="-105.229789">
  <ele>1583.0</ele>
  <time>2026-08-28T17:54:06Z</time>
  <course>65.99</course>
  <speed>0.0</speed>
  <fix>3d</fix>
</trkpt>
<trkpt lat="40.0713748" lon="-105.229789">
  <ele>1583.01</ele>
  <time>2026-08-28T17:54:06Z</time>
  <course>245.8</course>
  <speed>0.02</speed>
  <fix>3d</fix>
</trkpt>
<trkpt lat="40.0713749" lon="-105.229789">
  <ele>1583.0</ele>
  <time>2026-08-28T17:54:06Z</time>
  <course>65.99</course>
  <speed>0.0</speed>
  <fix>3d</fix>
</trkpt>
<trkpt lat="40.0713748" lon="-105.229789">
  <ele>1583.01</ele>
  <time>2026-08-28T17:54:06Z</time>
  <course>245.8</course>
  <speed>0.02</speed>
  <fix>3d</fix>
</trkpt>
<trkpt lat="40.0713749" lon="-105.229789">
  <ele>1583.0</ele>
  <time>2026-08-28T17:54:06Z</time>
  <course>65.99</course>
  <speed>0.0</speed>
  <fix>3d</fix>
</trkpt>
<trkpt lat="40.0713748" lon="-105.229789">
  <ele>1583.01</ele>
  <time>2026-08-28T17:54:06Z</time>
  <course>245.8</course>
  <speed>0.02</speed>
  <fix>3d</fix>
</trkpt>
<trkpt lat="40.0713749" lon="-105.229789">
  <ele>1583.0</ele>
  <time>2026-08-28T17:54:06Z</time>
  <course>65.99</course>
  <speed>0.0</speed>
  <fix>3d</fix>
</trkpt>
<trkpt lat="40.0713748" lon="-105.229789">
  <ele>1583.01</ele>
  <time>2026-08-28T17:54:06Z</time>
  <course>245.8</course>
  <speed>0.02</speed>
  <fix>3d</fix>
</trkpt>
<trkpt lat="40.0713749" lon="-105.229789">
  <ele>1583.0</ele>
  <time>2026-08-28T17:54:06Z</time>
  <course>65.99</course>
  <speed>0.0</speed>
  <fix>3d</fix>
</trkpt>
<trkpt lat="40.0713748" lon="-105.229789">
  <ele>1583.01</ele>
  <time>2026-08-28T17:54:06Z</time>
  <course>245.8</course>
  <speed>0.02</speed>
  <fix>3d</fix>
</trkpt>
<trkpt lat="40.0713749" lon="-105.229789">
  <ele>1583.0</ele>
  <time>2026-08-28T17:54:06Z</time>
  <course>65.99</course>
  <speed>0.0</speed>
  <fix>3d</fix>
</trkpt>
<trkpt lat="40.0713748" lon="-105.229789">
  <ele>1583.01</ele>
  <time>2026-08-28T17:54:06Z</time>
  <course>245.79</course>
  <speed>0.02</speed>
  <fix>3d</fix>
</trkpt>
<trkpt lat="40.0713749" lon="-105.229789">
  <ele>1583.0</ele>
  <time>2026-08-28T17:54:06Z</time>
  <course>65.99</course>
  <speed>0.0</speed>
  <fix>3d</fix>
</trkpt>
<trkpt lat="40.0713748" lon="-105.229789">
  <ele>1583.0</ele>
  <time>2026-08-28T17:54:06Z</time>
  <course>245.79</course>
  <speed>0.02</speed>
  <fix>3d</fix>
</trkpt>
<trkpt lat="40.0713749" lon="-105.229789">
  <ele>1583.0</ele>
  <time>2026-08-28T17:54:06Z</time>
  <course>65.99</course>
  <speed>0.0</speed>
  <fix>3d</fix>
</trkpt>
<trkpt lat="40.0713748" lon="-105.229789">
  <ele>1583.0</ele>
  <time>2026-08-28T17:54:06Z</time>
  <course>245.79</course>
  <speed>0.02</speed>
  <fix>3d</fix>
</trkpt>
<trkpt lat="40.0713749" lon="-105.229789">
  <ele>1583.0</ele>
  <time>2026-08-28T17:54:06Z</time>
  <course>65.99</course>
  <speed>0.0</speed>
  <fix>3d</fix>
</trkpt>
<trkpt lat="40.0713748" lon="-105.229789">
  <ele>1583.01</ele>
  <time>2026-08-28T17:54:06Z</time>
  <course>245.79</course>
  <speed>0.02</speed>
  <fix>3d</fix>
</trkpt>
<trkpt lat="40.0713749" lon="-105.229789">
  <ele>1583.0</ele>
  <time>2026-08-28T17:54:06Z</time>
  <course>65.99</course>
  <speed>0.0</speed>
  <fix>3d</fix>
</trkpt>
<trkpt lat="40.0713748" lon="-105.229789">
  <ele>1583.01</ele>
  <time>2026-08-28T17:54:06Z</time>
  <course>245.78</course>
  <speed>0.02</speed>
  <fix>3d</fix>
</trkpt>
<trkpt lat="40.0713749" lon="-105.229789">
  <ele>1583.0</ele>
  <time>2026-08-28T17:54:06Z</time>
  <course>65.99</course>
  <speed>0.0</speed>
  <fix>3d</fix>
</trkpt>
<trkpt lat="40.0713748" lon="-105.229789">
  <ele>1583.01</ele>
  <time>2026-08-28T17:54:06Z</time>
  <course>245.78</course>
  <speed>0.02</speed>
  <fix>3d</fix>
</trkpt>
<trkpt lat="40.0713749" lon="-105.229789">
  <ele>1583.0</ele>
  <time>2026-08-28T17:54:06Z</time>
  <course>65.99</course>
  <speed>0.0</speed>
  <fix>3d</fix>
</trkpt>
<trkpt lat="40.0713748" lon="-105.229789">
  <ele>1583.01</ele>
  <time>2026-08-28T17:54:06Z</time>
  <course>245.78</course>
  <speed>0.02</speed>
  <fix>3d</fix>
</trkpt>
<trkpt lat="40.0713749" lon="-105.229789">
  <ele>1583.0</ele>
  <time>2026-08-28T17:54:06Z</time>
  <course>65.99</course>
  <speed>0.0</speed>
  <fix>3d</fix>
</trkpt>
<trkpt lat="40.0713748" lon="-105.229789">
  <ele>1583.01</ele>
  <time>2026-08-28T17:54:06Z</time>
  <course>245.78</course>
  <speed>0.02</speed>
  <fix>3d</fix>
</trkpt>
<trkpt lat="40.0713749" lon="-105.229789">
  <ele>1583.0</ele>
  <time>2026-08-28T17:54:06Z</time>
  <course>65.99</course>
  <speed>0.0</speed>
  <fix>3d</fix>
</trkpt>
<trkpt lat="40.0713748" lon="-105.229789">
  <ele>1583.01</ele>
  <time>2026-08-28T17:54:06Z</time>
  <course>245.77</course>
  <speed>0.02</speed>
  <fix>3d</fix>
</trkpt>
<trkpt lat="40.0713749" lon="-105.229789">
  <ele>1583.0</ele>
  <time>2026-08-28T17:54:06Z</time>
  <course>65.99</course>
  <speed>0.0</speed>
  <fix>3d</fix>
</trkpt>
<trkpt lat="40.0713748" lon="-105.229789">
  <ele>1583.01</ele>
  <time>2026-08-28T17:54:06Z</time>
  <course>245.77</course>
  <speed>0.02</speed>
  <fix>3d</fix>
</trkpt>
<trkpt lat="40.0713749" lon="-105.229789">
  <ele>1583.0</ele>
  <time>2026-08-28T17:54:06Z</time>
  <course>65.99</course>
  <speed>0.0</speed>
  <fix>3d</fix>
</trkpt>
<trkpt lat="40.0713748" lon="-105.229789">
  <ele>1583.01</ele>
  <time>2026-08-28T17:54:06Z</time>
  <course>245.77</course>
  <speed>0.02</speed>
  <fix>3d</fix>
</trkpt>
<trkpt lat="40.0713749" lon="-105.229789">
  <ele>1583.0</ele>
  <time>2026-08-28T17:54:06Z</time>
  <course>65.99</course>
  <speed>0.0</speed>
  <fix>3d</fix>
</trkpt>
<trkpt lat="40.0713748" lon="-105.229789">
  <ele>1583.0</ele>
  <time>2026-08-28T17:54:06Z</time>
  <course>245.77</course>
  <speed>0.02</speed>
  <fix>3d</fix>
</trkpt>
<trkpt lat="40.0713749" lon="-105.229789">
  <ele>1583.0</ele>
  <time>2026-08-28T17:54:06Z</time>
  <course>65.99</course>
  <speed>0.0</speed>
  <fix>3d</fix>
</trkpt>
<trkpt lat="40.0713748" lon="-105.229789">
  <ele>1583.0</ele>
  <time>2026-08-28T17:54:06Z</time>
  <course>245.77</course>
  <speed>0.02</speed>
  <fix>3d</fix>
</trkpt>
<trkpt lat="40.0713749" lon="-105.229789">
  <ele>1583.0</ele>
  <time>2026-08-28T17:54:06Z</time>
  <course>65.99</course>
  <speed>0.0</speed>
  <fix>3d</fix>
</trkpt>
<trkpt lat="40.0713748" lon="-105.229789">
  <ele>1583.0</ele>
  <time>2026-08-28T17:54:06Z</time>
  <course>245.76</course>
  <speed>0.02</speed>
  <fix>3d</fix>
</trkpt>
<trkpt lat="40.0713749" lon="-105.229789">
  <ele>1583.0</ele>
  <time>2026-08-28T17:54:06Z</time>
  <course>65.99</course>
  <speed>0.0</speed>
  <fix>3d</fix>
</trkpt>
<trkpt lat="40.0713748" lon="-105.229789">
  <ele>1583.0</ele>
  <time>2026-08-28T17:54:06Z</time>
  <course>245.76</course>
  <speed>0.02</speed>
  <fix>3d</fix>
</trkpt>
<trkpt lat="40.0713749" lon="-105.229789">
  <ele>1583.0</ele>
  <time>2026-08-28T17:54:06Z</time>
  <course>65.99</course>
  <speed>0.0</speed>
  <fix>3d</fix>
</trkpt>
<trkpt lat="40.0713748" lon="-105.229789">
  <ele>1583.0</ele>
  <time>2026-08-28T17:54:06Z</time>
  <course>245.76</course>
  <speed>0.02</speed>
  <fix>3d</fix>
</trkpt>
<trkpt lat="40.0713749" lon="-105.229789">
  <ele>1583.0</ele>
  <time>2026-08-28T17:54:06Z</time>
  <course>65.99</course>
  <speed>0.0</speed>
  <fix>3d</fix>
</trkpt>
<trkpt lat="40.0713748" lon="-105.229789">
  <ele>1583.0</ele>
  <time>2026-08-28T17:54:06Z</time>
  <course>245.76</course>
  <speed>0.02</speed>
  <fix>3d</fix>
</trkpt>
<trkpt lat="40.0713749" lon="-105.229789">
  <ele>1583.0</ele>
  <time>2026-08-28T17:54:06Z</time>
  <course>65.99</course>
  <speed>0.0</speed>
  <fix>3d</fix>
</trkpt>
<trkpt lat="40.0713748" lon="-105.229789">
  <ele>1583.0</ele>
  <time>2026-08-28T17:54:06Z</time>
  <course>245.75</course>
  <speed>0.02</speed>
  <fix>3d</fix>
</trkpt>
<trkpt lat="40.0713749" lon="-105.229789">
  <ele>1583.0</ele>
  <time>2026-08-28T17:54:06Z</time>
  <course>65.99</course>
  <speed>0.0</speed>
  <fix>3d</fix>
</trkpt>
<trkpt lat="40.0713748" lon="-105.229789">
  <ele>1583.0</ele>
  <time>2026-08-28T17:54:06Z</time>
  <course>245.75</course>
  <speed>0.02</speed>
  <fix>3d</fix>
</trkpt>
<trkpt lat="40.0713749" lon="-105.229789">
  <ele>1583.0</ele>
  <time>2026-08-28T17:54:06Z</time>
  <course>65.99</course>
  <speed>0.0</speed>
  <fix>3d</fix>
</trkpt>
<trkpt lat="40.0713748" lon="-105.229789">
  <ele>1583.0</ele>
  <time>2026-08-28T17:54:06Z</time>
  <course>245.75</course>
  <speed>0.02</speed>
  <fix>3d</fix>
</trkpt>
<trkpt lat="40.0713749" lon="-105.229789">
  <ele>1583.0</ele>
  <time>2026-08-28T17:54:06Z</time>
  <course>65.99</course>
  <speed>0.0</speed>
  <fix>3d</fix>
</trkpt>
<trkpt lat="40.0713748" lon="-105.229789">
  <ele>1583.01</ele>
  <time>2026-08-28T17:54:06Z</time>
  <course>245.75</course>
  <speed>0.02</speed>
  <fix>3d</fix>
</trkpt>
<trkpt lat="40.0713749" lon="-105.229789">
  <ele>1583.0</ele>
  <time>2026-08-28T17:54:06Z</time>
  <course>65.99</course>
  <speed>0.0</speed>
  <fix>3d</fix>
</trkpt>
<trkpt lat="40.0713748" lon="-105.229789">
  <ele>1583.01</ele>
  <time>2026-08-28T17:54:06Z</time>
  <course>245.74</course>
  <speed>0.02</speed>
  <fix>3d</fix>
</trkpt>
<trkpt lat="40.0713749" lon="-105.229789">
  <ele>1583.0</ele>
  <time>2026-08-28T17:54:06Z</time>
  <course>65.99</course>
  <speed>0.0</speed>
  <fix>3d</fix>
</trkpt>
<trkpt lat="40.0713748" lon="-105.229789">
  <ele>1583.01</ele>
  <time>2026-08-28T17:54:06Z</time>
  <course>245.74</course>
  <speed>0.02</speed>
  <fix>3d</fix>
</trkpt>
<trkpt lat="40.0713749" lon="-105.229789">
  <ele>1583.0</ele>
  <time>2026-08-28T17:54:06Z</time>
  <course>65.99</course>
  <speed>0.0</speed>
  <fix>3d</fix>
</trkpt>
<trkpt lat="40.0713748" lon="-105.229789">
  <ele>1583.01</ele>
  <time>2026-08-28T17:54:06Z</time>
  <course>245.74</course>
  <speed>0.02</speed>
  <fix>3d</fix>
</trkpt>
<trkpt lat="40.0713749" lon="-105.229789">
  <ele>1583.0</ele>
  <time>2026-08-28T17:54:06Z</time>
  <course>65.99</course>
  <speed>0.0</speed>
  <fix>3d</fix>
</trkpt>
<trkpt lat="40.0713748" lon="-105.229789">
  <ele>1583.01</ele>
  <time>2026-08-28T17:54:06Z</time>
  <course>245.74</course>
  <speed>0.02</speed>
  <fix>3d</fix>
</trkpt>
<trkpt lat="40.0713749" lon="-105.229789">
  <ele>1583.0</ele>
  <time>2026-08-28T17:54:06Z</time>
  <course>65.99</course>
  <speed>0.0</speed>
  <fix>3d</fix>
</trkpt>
<trkpt lat="40.0713748" lon="-105.229789">
  <ele>1583.01</ele>
  <time>2026-08-28T17:54:06Z</time>
  <course>245.73</course>
  <speed>0.02</speed>
  <fix>3d</fix>
</trkpt>
<trkpt lat="40.0713749" lon="-105.229789">
  <ele>1583.0</ele>
  <time>2026-08-28T17:54:06Z</time>
  <course>65.99</course>
  <speed>0.0</speed>
  <fix>3d</fix>
</trkpt>
<trkpt lat="40.0713748" lon="-105.229789">
  <ele>1583.01</ele>
  <time>2026-08-28T17:54:06Z</time>
  <course>245.73</course>
  <speed>0.02</speed>
  <fix>3d</fix>
</trkpt>
<trkpt lat="40.0713749" lon="-105.229789">
  <ele>1583.0</ele>
  <time>2026-08-28T17:54:06Z</time>
  <course>65.99</course>
  <speed>0.0</speed>
  <fix>3d</fix>
</trkpt>
<trkpt lat="40.0713748" lon="-105.229789">
  <ele>1583.01</ele>
  <time>2026-08-28T17:54:06Z</time>
  <course>245.73</course>
  <speed>0.02</speed>
  <fix>3d</fix>
</trkpt>
<trkpt lat="40.0713749" lon="-105.229789">
  <ele>1583.0</ele>
  <time>2026-08-28T17:54:06Z</time>
  <course>65.99</course>
  <speed>0.0</speed>
  <fix>3d</fix>
</trkpt>
<trkpt lat="40.0713748" lon="-105.229789">
  <ele>1583.01</ele>
  <time>2026-08-28T17:54:06Z</time>
  <course>245.73</course>
  <speed>0.02</speed>
  <fix>3d</fix>
</trkpt>
<trkpt lat="40.0713749" lon="-105.229789">
  <ele>1583.0</ele>
  <time>2026-08-28T17:54:06Z</time>
  <course>65.99</course>
  <speed>0.0</speed>
  <fix>3d</fix>
</trkpt>
<trkpt lat="40.0713748" lon="-105.229789">
  <ele>1583.0</ele>
  <time>2026-08-28T17:54:06Z</time>
  <course>245.73</course>
  <speed>0.02</speed>
  <fix>3d</fix>
</trkpt>
<trkpt lat="40.0713749" lon="-105.229789">
  <ele>1583.0</ele>
  <time>2026-08-28T17:54:06Z</time>
  <course>65.99</course>
  <speed>0.0</speed>
  <fix>3d</fix>
</trkpt>
<trkpt lat="40.0713748" lon="-105.229789">
  <ele>1583.0</ele>
  <time>2026-08-28T17:54:06Z</time>
  <course>245.72</course>
  <speed>0.02</speed>
  <fix>3d</fix>
</trkpt>
<trkpt lat="40.0713749" lon="-105.229789">
  <ele>1583.0</ele>
  <time>2026-08-28T17:54:06Z</time>
  <course>65.99</course>
  <speed>0.0</speed>
  <fix>3d</fix>
</trkpt>
<trkpt lat="40.0713748" lon="-105.229789">
  <ele>1583.0</ele>
  <time>2026-08-28T17:54:06Z</time>
  <course>245.72</course>
  <speed>0.02</speed>
  <fix>3d</fix>
</trkpt>
<trkpt lat="40.0713749" lon="-105.229789">
  <ele>1583.0</ele>
  <time>2026-08-28T17:54:06Z</time>
  <course>65.99</course>
  <speed>0.0</speed>
  <fix>3d</fix>
</trkpt>
<trkpt lat="40.0713748" lon="-105.229789">
  <ele>1583.0</ele>
  <time>2026-08-28T17:54:06Z</time>
  <course>245.72</course>
  <speed>0.02</speed>
  <fix>3d</fix>
</trkpt>
<trkpt lat="40.0713749" lon="-105.229789">
  <ele>1583.0</ele>
  <time>2026-08-28T17:54:06Z</time>
  <course>65.99</course>
  <speed>0.0</speed>
  <fix>3d</fix>
</trkpt>
<trkpt lat="40.0713748" lon="-105.229789">
  <ele>1583.0</ele>
  <time>2026-08-28T17:54:06Z</time>
  <course>245.72</course>
  <speed>0.02</speed>
  <fix>3d</fix>
</trkpt>
<trkpt lat="40.0713749" lon="-105.229789">
  <ele>1583.0</ele>
  <time>2026-08-28T17:54:06Z</time>
  <course>65.99</course>
  <speed>0.0</speed>
  <fix>3d</fix>
</trkpt>
<trkpt lat="40.0713748" lon="-105.229789">
  <ele>1583.0</ele>
  <time>2026-08-28T17:54:06Z</time>
  <course>245.71</course>
  <speed>0.02</speed>
  <fix>3d</fix>
</trkpt>
<trkpt lat="40.0713749" lon="-105.229789">
  <ele>1583.0</ele>
  <time>2026-08-28T17:54:06Z</time>
  <course>65.99</course>
  <speed>0.0</speed>
  <fix>3d</fix>
</trkpt>
<trkpt lat="40.0713748" lon="-105.229789">
  <ele>1583.0</ele>
  <time>2026-08-28T17:54:06Z</time>
  <course>245.71</course>
  <speed>0.02</speed>
  <fix>3d</fix>
</trkpt>
<trkpt lat="40.0713749" lon="-105.229789">
  <ele>1583.0</ele>
  <time>2026-08-28T17:54:06Z</time>
  <course>65.99</course>
  <speed>0.0</speed>
  <fix>3d</fix>
</trkpt>
<trkpt lat="40.0713748" lon="-105.229789">
  <ele>1583.0</ele>
  <time>2026-08-28T17:54:06Z</time>
  <course>245.71</course>
  <speed>0.02</speed>
  <fix>3d</fix>
</trkpt>
<trkpt lat="40.0713749" lon="-105.229789">
  <ele>1583.0</ele>
  <time>2026-08-28T17:54:06Z</time>
  <course>65.99</course>
  <speed>0.0</speed>
  <fix>3d</fix>
</trkpt>
<trkpt lat="40.0713747" lon="-105.229789">
  <ele>1583.0</ele>
  <time>2026-08-28T17:54:06Z</time>
  <course>245.71</course>
  <speed>0.02</speed>
  <fix>3d</fix>
</trkpt>
<trkpt lat="40.0713749" lon="-105.229789">
  <ele>1583.0</ele>
  <time>2026-08-28T17:54:06Z</time>
  <course>65.99</course>
  <speed>0.0</speed>
  <fix>3d</fix>
</trkpt>
<trkpt lat="40.0713748" lon="-105.229789">
  <ele>1583.0</ele>
  <time>2026-08-28T17:54:06Z</time>
  <course>245.7</course>
  <speed>0.02</speed>
  <fix>3d</fix>
</trkpt>
<trkpt lat="40.0713749" lon="-105.229789">
  <ele>1583.0</ele>
  <time>2026-08-28T17:54:06Z</time>
  <course>65.99</course>
  <speed>0.0</speed>
  <fix>3d</fix>
</trkpt>
<trkpt lat="40.0713747" lon="-105.229789">
  <ele>1583.01</ele>
  <time>2026-08-28T17:54:06Z</time>
  <course>245.7</course>
  <speed>0.02</speed>
  <fix>3d</fix>
</trkpt>
<trkpt lat="40.0713749" lon="-105.229789">
  <ele>1583.0</ele>
  <time>2026-08-28T17:54:06Z</time>
  <course>65.99</course>
  <speed>0.0</speed>
  <fix>3d</fix>
</trkpt>
<trkpt lat="40.0713748" lon="-105.229789">
  <ele>1583.01</ele>
  <time>2026-08-28T17:54:06Z</time>
  <course>245.7</course>
  <speed>0.02</speed>
  <fix>3d</fix>
</trkpt>
<trkpt lat="40.0713749" lon="-105.229789">
  <ele>1583.0</ele>
  <time>2026-08-28T17:54:06Z</time>
  <course>65.99</course>
  <speed>0.0</speed>
  <fix>3d</fix>
</trkpt>
<trkpt lat="40.0713747" lon="-105.229789">
  <ele>1583.01</ele>
  <time>2026-08-28T17:54:06Z</time>
  <course>245.7</course>
  <speed>0.02</speed>
  <fix>3d</fix>
</trkpt>
<trkpt lat="40.0713749" lon="-105.229789">
  <ele>1583.0</ele>
  <time>2026-08-28T17:54:06Z</time>
  <course>65.99</course>
  <speed>0.0</speed>
  <fix>3d</fix>
</trkpt>
<trkpt lat="40.0713748" lon="-105.229789">
  <ele>1583.01</ele>
  <time>2026-08-28T17:54:06Z</time>
  <course>245.7</course>
  <speed>0.02</speed>
  <fix>3d</fix>
</trkpt>
<trkpt lat="40.0713749" lon="-105.229789">
  <ele>1583.0</ele>
  <time>2026-08-28T17:54:06Z</time>
  <course>65.99</course>
  <speed>0.0</speed>
  <fix>3d</fix>
</trkpt>
<trkpt lat="40.0713748" lon="-105.229789">
  <ele>1583.01</ele>
  <time>2026-08-28T17:54:06Z</time>
  <course>245.69</course>
  <speed>0.02</speed>
  <fix>3d</fix>
</trkpt>
<trkpt lat="40.0713749" lon="-105.229789">
  <ele>1583.0</ele>
  <time>2026-08-28T17:54:06Z</time>
  <course>65.99</course>
  <speed>0.0</speed>
  <fix>3d</fix>
</trkpt>
<trkpt lat="40.0713748" lon="-105.229789">
  <ele>1583.01</ele>
  <time>2026-08-28T17:54:06Z</time>
  <course>245.69</course>
  <speed>0.02</speed>
  <fix>3d</fix>
</trkpt>
<trkpt lat="40.0713749" lon="-105.229789">
  <ele>1583.0</ele>
  <time>2026-08-28T17:54:06Z</time>
  <course>65.99</course>
  <speed>0.0</speed>
  <fix>3d</fix>
</trkpt>
<trkpt lat="40.0713748" lon="-105.229789">
  <ele>1583.01</ele>
  <time>2026-08-28T17:54:06Z</time>
  <course>245.69</course>
  <speed>0.02</speed>
  <fix>3d</fix>
</trkpt>
<trkpt lat="40.0713749" lon="-105.229789">
  <ele>1583.0</ele>
  <time>2026-08-28T17:54:06Z</time>
  <course>65.99</course>
  <speed>0.0</speed>
  <fix>3d</fix>
</trkpt>
<trkpt lat="40.0713748" lon="-105.229789">
  <ele>1583.01</ele>
  <time>2026-08-28T17:54:06Z</time>
  <course>245.69</course>
  <speed>0.02</speed>
  <fix>3d</fix>
</trkpt>
<trkpt lat="40.0713749" lon="-105.229789">
  <ele>1583.0</ele>
  <time>2026-08-28T17:54:06Z</time>
  <course>65.99</course>
  <speed>0.0</speed>
  <fix>3d</fix>
</trkpt>
<trkpt lat="40.0713748" lon="-105.229789">
  <ele>1583.01</ele>
  <time>2026-08-28T17:54:06Z</time>
  <course>245.68</course>
  <speed>0.02</speed>
  <fix>3d</fix>
</trkpt>
<trkpt lat="40.0713749" lon="-105.229789">
  <ele>1583.0</ele>
  <time>2026-08-28T17:54:06Z</time>
  <course>65.99</course>
  <speed>0.0</speed>
  <fix>3d</fix>
</trkpt>
<trkpt lat="40.0713748" lon="-105.229789">
  <ele>1583.01</ele>
  <time>2026-08-28T17:54:06Z</time>
  <course>245.68</course>
  <speed>0.02</speed>
  <fix>3d</fix>
</trkpt>
<trkpt lat="40.0713749" lon="-105.229789">
  <ele>1583.0</ele>
  <time>2026-08-28T17:54:06Z</time>
  <course>65.99</course>
  <speed>0.0</speed>
  <fix>3d</fix>
</trkpt>
<trkpt lat="40.0713748" lon="-105.229789">
  <ele>1583.01</ele>
  <time>2026-08-28T17:54:06Z</time>
  <course>245.68</course>
  <speed>0.02</speed>
  <fix>3d</fix>
</trkpt>
<trkpt lat="40.0713749" lon="-105.229789">
  <ele>1583.0</ele>
  <time>2026-08-28T17:54:06Z</time>
  <course>65.99</course>
  <speed>0.0</speed>
  <fix>3d</fix>
</trkpt>
<trkpt lat="40.0713748" lon="-105.229789">
  <ele>1583.0</ele>
  <time>2026-08-28T17:54:06Z</time>
  <course>245.68</course>
  <speed>0.02</speed>
  <fix>3d</fix>
</trkpt>
<trkpt lat="40.0713749" lon="-105.229789">
  <ele>1583.0</ele>
  <time>2026-08-28T17:54:06Z</time>
  <course>65.99</course>
  <speed>0.0</speed>
  <fix>3d</fix>
</trkpt>
<trkpt lat="40.0713748" lon="-105.229789">
  <ele>1583.0</ele>
  <time>2026-08-28T17:54:06Z</time>
  <course>245.68</course>
  <speed>0.02</speed>
  <fix>3d</fix>
</trkpt>
<trkpt lat="40.0713749" lon="-105.229789">
  <ele>1583.0</ele>
  <time>2026-08-28T17:54:06Z</time>
  <course>65.99</course>
  <speed>0.0</speed>
  <fix>3d</fix>
</trkpt>
<trkpt lat="40.0713748" lon="-105.229789">
  <ele>1583.0</ele>
  <time>2026-08-28T17:54:06Z</time>
  <course>245.67</course>
  <speed>0.02</speed>
  <fix>3d</fix>
</trkpt>
<trkpt lat="40.0713749" lon="-105.229789">
  <ele>1583.0</ele>
  <time>2026-08-28T17:54:06Z</time>
  <course>65.99</course>
  <speed>0.0</speed>
  <fix>3d</fix>
</trkpt>
<trkpt lat="40.0713748" lon="-105.229789">
  <ele>1582.99</ele>
  <time>2026-08-28T17:54:06Z</time>
  <course>245.67</course>
  <speed>0.02</speed>
  <fix>3d</fix>
</trkpt>
<trkpt lat="40.0713749" lon="-105.229789">
  <ele>1583.0</ele>
  <time>2026-08-28T17:54:06Z</time>
  <course>65.99</course>
  <speed>0.0</speed>
  <fix>3d</fix>
</trkpt>
<trkpt lat="40.0713748" lon="-105.229789">
  <ele>1582.99</ele>
  <time>2026-08-28T17:54:06Z</time>
  <course>245.67</course>
  <speed>0.02</speed>
  <fix>3d</fix>
</trkpt>
<trkpt lat="40.0713749" lon="-105.229789">
  <ele>1583.0</ele>
  <time>2026-08-28T17:54:06Z</time>
  <course>65.99</course>
  <speed>0.0</speed>
  <fix>3d</fix>
</trkpt>
<trkpt lat="40.0713748" lon="-105.229789">
  <ele>1582.99</ele>
  <time>2026-08-28T17:54:06Z</time>
  <course>245.67</course>
  <speed>0.02</speed>
  <fix>3d</fix>
</trkpt>
<trkpt lat="40.0713749" lon="-105.229789">
  <ele>1583.0</ele>
  <time>2026-08-28T17:54:06Z</time>
  <course>65.99</course>
  <speed>0.0</speed>
  <fix>3d</fix>
</trkpt>
<trkpt lat="40.0713748" lon="-105.229789">
  <ele>1582.99</ele>
  <time>2026-08-28T17:54:06Z</time>
  <course>245.67</course>
  <speed>0.02</speed>
  <fix>3d</fix>
</trkpt>
<trkpt lat="40.0713749" lon="-105.229789">
  <ele>1583.0</ele>
  <time>2026-08-28T17:54:06Z</time>
  <course>65.99</course>
  <speed>0.0</speed>
  <fix>3d</fix>
</trkpt>
<trkpt lat="40.0713748" lon="-105.229789">
  <ele>1582.99</ele>
  <time>2026-08-28T17:54:06Z</time>
  <course>245.66</course>
  <speed>0.02</speed>
  <fix>3d</fix>
</trkpt>
<trkpt lat="40.0713749" lon="-105.229789">
  <ele>1583.0</ele>
  <time>2026-08-28T17:54:06Z</time>
  <course>65.99</course>
  <speed>0.0</speed>
  <fix>3d</fix>
</trkpt>
<trkpt lat="40.0713748" lon="-105.229789">
  <ele>1582.99</ele>
  <time>2026-08-28T17:54:06Z</time>
  <course>245.66</course>
  <speed>0.02</speed>
  <fix>3d</fix>
</trkpt>
<trkpt lat="40.0713749" lon="-105.229789">
  <ele>1583.0</ele>
  <time>2026-08-28T17:54:06Z</time>
  <course>65.99</course>
  <speed>0.0</speed>
  <fix>3d</fix>
</trkpt>
<trkpt lat="40.0713747" lon="-105.229789">
  <ele>1582.99</ele>
  <time>2026-08-28T17:54:06Z</time>
  <course>245.66</course>
  <speed>0.02</speed>
  <fix>3d</fix>
</trkpt>
<trkpt lat="40.0713749" lon="-105.229789">
  <ele>1583.0</ele>
  <time>2026-08-28T17:54:06Z</time>
  <course>65.99</course>
  <speed>0.0</speed>
  <fix>3d</fix>
</trkpt>
<trkpt lat="40.0713748" lon="-105.229789">
  <ele>1582.99</ele>
  <time>2026-08-28T17:54:06Z</time>
  <course>245.66</course>
  <speed>0.02</speed>
  <fix>3d</fix>
</trkpt>
<trkpt lat="40.0713749" lon="-105.229789">
  <ele>1583.0</ele>
  <time>2026-08-28T17:54:06Z</time>
  <course>65.99</course>
  <speed>0.0</speed>
  <fix>3d</fix>
</trkpt>
<trkpt lat="40.0713747" lon="-105.229789">
  <ele>1582.99</ele>
  <time>2026-08-28T17:54:06Z</time>
  <course>245.65</course>
  <speed>0.02</speed>
  <fix>3d</fix>
</trkpt>
<trkpt lat="40.0713749" lon="-105.229789">
  <ele>1583.0</ele>
  <time>2026-08-28T17:54:06Z</time>
  <course>65.99</course>
  <speed>0.0</speed>
  <fix>3d</fix>
</trkpt>
<trkpt lat="40.0713748" lon="-105.229789">
  <ele>1583.0</ele>
  <time>2026-08-28T17:54:06Z</time>
  <course>245.65</course>
  <speed>0.02</speed>
  <fix>3d</fix>
</trkpt>
<trkpt lat="40.0713749" lon="-105.229789">
  <ele>1583.0</ele>
  <time>2026-08-28T17:54:06Z</time>
  <course>65.99</course>
  <speed>0.0</speed>
  <fix>3d</fix>
</trkpt>
<trkpt lat="40.0713748" lon="-105.229789">
  <ele>1583.0</ele>
  <time>2026-08-28T17:54:06Z</time>
  <course>245.65</course>
  <speed>0.02</speed>
  <fix>3d</fix>
</trkpt>
<trkpt lat="40.0713749" lon="-105.229789">
  <ele>1583.0</ele>
  <time>2026-08-28T17:54:06Z</time>
  <course>65.99</course>
  <speed>0.0</speed>
  <fix>3d</fix>
</trkpt>
<trkpt lat="40.0713748" lon="-105.229789">
  <ele>1583.0</ele>
  <time>2026-08-28T17:54:06Z</time>
  <course>245.65</course>
  <speed>0.02</speed>
  <fix>3d</fix>
</trkpt>
<trkpt lat="40.0713749" lon="-105.229789">
  <ele>1583.0</ele>
  <time>2026-08-28T17:54:06Z</time>
  <course>65.99</course>
  <speed>0.0</speed>
  <fix>3d</fix>
</trkpt>
<trkpt lat="40.0713748" lon="-105.229789">
  <ele>1583.0</ele>
  <time>2026-08-28T17:54:06Z</time>
  <course>245.65</course>
  <speed>0.02</speed>
  <fix>3d</fix>
</trkpt>
<trkpt lat="40.0713749" lon="-105.229789">
  <ele>1583.0</ele>
  <time>2026-08-28T17:54:06Z</time>
  <course>65.99</course>
  <speed>0.0</speed>
  <fix>3d</fix>
</trkpt>
<trkpt lat="40.0713748" lon="-105.229789">
  <ele>1583.0</ele>
  <time>2026-08-28T17:54:06Z</time>
  <course>245.64</course>
  <speed>0.02</speed>
  <fix>3d</fix>
</trkpt>
<trkpt lat="40.0713749" lon="-105.229789">
  <ele>1583.0</ele>
  <time>2026-08-28T17:54:06Z</time>
  <course>65.99</course>
  <speed>0.0</speed>
  <fix>3d</fix>
</trkpt>
<trkpt lat="40.0713748" lon="-105.229789">
  <ele>1583.0</ele>
  <time>2026-08-28T17:54:06Z</time>
  <course>245.64</course>
  <speed>0.02</speed>
  <fix>3d</fix>
</trkpt>
<trkpt lat="40.0713749" lon="-105.229789">
  <ele>1583.0</ele>
  <time>2026-08-28T17:54:06Z</time>
  <course>65.99</course>
  <speed>0.0</speed>
  <fix>3d</fix>
</trkpt>
<trkpt lat="40.0713748" lon="-105.229789">
  <ele>1583.0</ele>
  <time>2026-08-28T17:54:06Z</time>
  <course>245.64</course>
  <speed>0.02</speed>
  <fix>3d</fix>
</trkpt>
<trkpt lat="40.0713749" lon="-105.229789">
  <ele>1583.0</ele>
  <time>2026-08-28T17:54:06Z</time>
  <course>65.99</course>
  <speed>0.0</speed>
  <fix>3d</fix>
</trkpt>
<trkpt lat="40.0713748" lon="-105.229789">
  <ele>1583.0</ele>
  <time>2026-08-28T17:54:06Z</time>
  <course>245.64</course>
  <speed>0.02</speed>
  <fix>3d</fix>
</trkpt>
<trkpt lat="40.0713749" lon="-105.229789">
  <ele>1583.0</ele>
  <time>2026-08-28T17:54:06Z</time>
  <course>65.99</course>
  <speed>0.0</speed>
  <fix>3d</fix>
</trkpt>
<trkpt lat="40.0713748" lon="-105.229789">
  <ele>1583.0</ele>
  <time>2026-08-28T17:54:06Z</time>
  <course>245.63</course>
  <speed>0.02</speed>
  <fix>3d</fix>
</trkpt>
<trkpt lat="40.0713749" lon="-105.229789">
  <ele>1583.0</ele>
  <time>2026-08-28T17:54:06Z</time>
  <course>65.99</course>
  <speed>0.0</speed>
  <fix>3d</fix>
</trkpt>
<trkpt lat="40.0713748" lon="-105.229789">
  <ele>1583.0</ele>
  <time>2026-08-28T17:54:06Z</time>
  <course>245.63</course>
  <speed>0.02</speed>
  <fix>3d</fix>
</trkpt>
<trkpt lat="40.0713749" lon="-105.229789">
  <ele>1583.0</ele>
  <time>2026-08-28T17:54:06Z</time>
  <course>65.99</course>
  <speed>0.0</speed>
  <fix>3d</fix>
</trkpt>
<trkpt lat="40.0713748" lon="-105.229789">
  <ele>1583.0</ele>
  <time>2026-08-28T17:54:06Z</time>
  <course>245.63</course>
  <speed>0.02</speed>
  <fix>3d</fix>
</trkpt>
<trkpt lat="40.0713749" lon="-105.229789">
  <ele>1583.0</ele>
  <time>2026-08-28T17:54:06Z</time>
  <course>65.99</course>
  <speed>0.0</speed>
  <fix>3d</fix>
</trkpt>
<trkpt lat="40.0713748" lon="-105.2297891">
  <ele>1583.0</ele>
  <time>2026-08-28T17:54:06Z</time>
  <course>245.63</course>
  <speed>0.02</speed>
  <fix>3d</fix>
</trkpt>
<trkpt lat="40.0713749" lon="-105.229789">
  <ele>1583.0</ele>
  <time>2026-08-28T17:54:06Z</time>
  <course>65.99</course>
  <speed>0.0</speed>
  <fix>3d</fix>
</trkpt>
<trkpt lat="40.0713748" lon="-105.229789">
  <ele>1583.0</ele>
  <time>2026-08-28T17:54:06Z</time>
  <course>245.63</course>
  <speed>0.02</speed>
  <fix>3d</fix>
</trkpt>
<trkpt lat="40.0713749" lon="-105.229789">
  <ele>1583.0</ele>
  <time>2026-08-28T17:54:06Z</time>
  <course>65.99</course>
  <speed>0.0</speed>
  <fix>3d</fix>
</trkpt>
<trkpt lat="40.0713748" lon="-105.2297891">
  <ele>1583.0</ele>
  <time>2026-08-28T17:54:06Z</time>
  <course>245.62</course>
  <speed>0.02</speed>
  <fix>3d</fix>
</trkpt>
<trkpt lat="40.0713749" lon="-105.229789">
  <ele>1583.0</ele>
  <time>2026-08-28T17:54:06Z</time>
  <course>65.99</course>
  <speed>0.0</speed>
  <fix>3d</fix>
</trkpt>
<trkpt lat="40.0713748" lon="-105.229789">
  <ele>1583.0</ele>
  <time>2026-08-28T17:54:06Z</time>
  <course>245.62</course>
  <speed>0.02</speed>
  <fix>3d</fix>
</trkpt>
<trkpt lat="40.0713749" lon="-105.229789">
  <ele>1583.0</ele>
  <time>2026-08-28T17:54:06Z</time>
  <course>65.99</course>
  <speed>0.0</speed>
  <fix>3d</fix>
</trkpt>
<trkpt lat="40.0713748" lon="-105.2297891">
  <ele>1583.0</ele>
  <time>2026-08-28T17:54:06Z</time>
  <course>245.62</course>
  <speed>0.02</speed>
  <fix>3d</fix>
</trkpt>
<trkpt lat="40.0713749" lon="-105.229789">
  <ele>1583.0</ele>
  <time>2026-08-28T17:54:06Z</time>
  <course>65.99</course>
  <speed>0.0</speed>
  <fix>3d</fix>
</trkpt>
<trkpt lat="40.0713748" lon="-105.229789">
  <ele>1583.0</ele>
  <time>2026-08-28T17:54:06Z</time>
  <course>245.62</course>
  <speed>0.02</speed>
  <fix>3d</fix>
</trkpt>
<trkpt lat="40.0713749" lon="-105.229789">
  <ele>1583.0</ele>
  <time>2026-08-28T17:54:06Z</time>
  <course>65.99</course>
  <speed>0.0</speed>
  <fix>3d</fix>
</trkpt>
<trkpt lat="40.0713747" lon="-105.2297891">
  <ele>1583.0</ele>
  <time>2026-08-28T17:54:06Z</time>
  <course>245.62</course>
  <speed>0.02</speed>
  <fix>3d</fix>
</trkpt>
<trkpt lat="40.0713749" lon="-105.229789">
  <ele>1583.0</ele>
  <time>2026-08-28T17:54:06Z</time>
  <course>65.99</course>
  <speed>0.0</speed>
  <fix>3d</fix>
</trkpt>
<trkpt lat="40.0713748" lon="-105.2297891">
  <ele>1583.0</ele>
  <time>2026-08-28T17:54:06Z</time>
  <course>245.61</course>
  <speed>0.02</speed>
  <fix>3d</fix>
</trkpt>
<trkpt lat="40.0713749" lon="-105.229789">
  <ele>1583.0</ele>
  <time>2026-08-28T17:54:06Z</time>
  <course>65.99</course>
  <speed>0.0</speed>
  <fix>3d</fix>
</trkpt>
<trkpt lat="40.0713747" lon="-105.2297891">
  <ele>1583.0</ele>
  <time>2026-08-28T17:54:06Z</time>
  <course>245.61</course>
  <speed>0.02</speed>
  <fix>3d</fix>
</trkpt>
<trkpt lat="40.0713749" lon="-105.229789">
  <ele>1583.0</ele>
  <time>2026-08-28T17:54:06Z</time>
  <course>65.99</course>
  <speed>0.0</speed>
  <fix>3d</fix>
</trkpt>
<trkpt lat="40.0713748" lon="-105.229789">
  <ele>1583.0</ele>
  <time>2026-08-28T17:54:06Z</time>
  <course>245.61</course>
  <speed>0.02</speed>
  <fix>3d</fix>
</trkpt>
<trkpt lat="40.0713749" lon="-105.229789">
  <ele>1583.0</ele>
  <time>2026-08-28T17:54:06Z</time>
  <course>65.99</course>
  <speed>0.0</speed>
  <fix>3d</fix>
</trkpt>
<trkpt lat="40.0713748" lon="-105.2297891">
  <ele>1583.0</ele>
  <time>2026-08-28T17:54:06Z</time>
  <course>245.61</course>
  <speed>0.02</speed>
  <fix>3d</fix>
</trkpt>
<trkpt lat="40.0713749" lon="-105.229789">
  <ele>1583.0</ele>
  <time>2026-08-28T17:54:06Z</time>
  <course>65.99</course>
  <speed>0.0</speed>
  <fix>3d</fix>
</trkpt>
<trkpt lat="40.0713748" lon="-105.229789">
  <ele>1583.0</ele>
  <time>2026-08-28T17:54:06Z</time>
  <course>245.61</course>
  <speed>0.02</speed>
  <fix>3d</fix>
</trkpt>
<trkpt lat="40.0713749" lon="-105.229789">
  <ele>1583.0</ele>
  <time>2026-08-28T17:54:06Z</time>
  <course>65.99</course>
  <speed>0.0</speed>
  <fix>3d</fix>
</trkpt>
<trkpt lat="40.0713748" lon="-105.229789">
  <ele>1583.0</ele>
  <time>2026-08-28T17:54:06Z</time>
  <course>245.6</course>
  <speed>0.02</speed>
  <fix>3d</fix>
</trkpt>
<trkpt lat="40.0713749" lon="-105.229789">
  <ele>1583.0</ele>
  <time>2026-08-28T17:54:06Z</time>
  <course>65.99</course>
  <speed>0.0</speed>
  <fix>3d</fix>
</trkpt>
<trkpt lat="40.0713748" lon="-105.229789">
  <ele>1583.0</ele>
  <time>2026-08-28T17:54:06Z</time>
  <course>245.6</course>
  <speed>0.02</speed>
  <fix>3d</fix>
</trkpt>
<trkpt lat="40.0713749" lon="-105.229789">
  <ele>1583.0</ele>
  <time>2026-08-28T17:54:06Z</time>
  <course>65.99</course>
  <speed>0.0</speed>
  <fix>3d</fix>
</trkpt>
<trkpt lat="40.0713748" lon="-105.229789">
  <ele>1583.0</ele>
  <time>2026-08-28T17:54:06Z</time>
  <course>245.6</course>
  <speed>0.02</speed>
  <fix>3d</fix>
</trkpt>
<trkpt lat="40.0713749" lon="-105.229789">
  <ele>1583.0</ele>
  <time>2026-08-28T17:54:06Z</time>
  <course>65.99</course>
  <speed>0.0</speed>
  <fix>3d</fix>
</trkpt>
<trkpt lat="40.0713748" lon="-105.229789">
  <ele>1583.0</ele>
  <time>2026-08-28T17:54:06Z</time>
  <course>245.6</course>
  <speed>0.02</speed>
  <fix>3d</fix>
</trkpt>
<trkpt lat="40.0713749" lon="-105.229789">
  <ele>1583.0</ele>
  <time>2026-08-28T17:54:06Z</time>
  <course>65.99</course>
  <speed>0.0</speed>
  <fix>3d</fix>
</trkpt>
<trkpt lat="40.0713748" lon="-105.229789">
  <ele>1583.0</ele>
  <time>2026-08-28T17:54:06Z</time>
  <course>245.6</course>
  <speed>0.02</speed>
  <fix>3d</fix>
</trkpt>
<trkpt lat="40.0713749" lon="-105.229789">
  <ele>1583.0</ele>
  <time>2026-08-28T17:54:06Z</time>
  <course>65.99</course>
  <speed>0.0</speed>
  <fix>3d</fix>
</trkpt>
<trkpt lat="40.0713748" lon="-105.229789">
  <ele>1583.0</ele>
  <time>2026-08-28T17:54:06Z</time>
  <course>245.59</course>
  <speed>0.02</speed>
  <fix>3d</fix>
</trkpt>
<trkpt lat="40.0713749" lon="-105.229789">
  <ele>1583.0</ele>
  <time>2026-08-28T17:54:06Z</time>
  <course>65.99</course>
  <speed>0.0</speed>
  <fix>3d</fix>
</trkpt>
<trkpt lat="40.0713748" lon="-105.229789">
  <ele>1583.0</ele>
  <time>2026-08-28T17:54:06Z</time>
  <course>245.59</course>
  <speed>0.02</speed>
  <fix>3d</fix>
</trkpt>
<trkpt lat="40.0713749" lon="-105.229789">
  <ele>1583.0</ele>
  <time>2026-08-28T17:54:06Z</time>
  <course>65.99</course>
  <speed>0.0</speed>
  <fix>3d</fix>
</trkpt>
<trkpt lat="40.0713748" lon="-105.229789">
  <ele>1583.0</ele>
  <time>2026-08-28T17:54:06Z</time>
  <course>245.59</course>
  <speed>0.02</speed>
  <fix>3d</fix>
</trkpt>
<trkpt lat="40.0713749" lon="-105.229789">
  <ele>1583.0</ele>
  <time>2026-08-28T17:54:06Z</time>
  <course>65.99</course>
  <speed>0.0</speed>
  <fix>3d</fix>
</trkpt>
<trkpt lat="40.0713747" lon="-105.229789">
  <ele>1583.0</ele>
  <time>2026-08-28T17:54:06Z</time>
  <course>245.59</course>
  <speed>0.02</speed>
  <fix>3d</fix>
</trkpt>
<trkpt lat="40.0713749" lon="-105.229789">
  <ele>1583.0</ele>
  <time>2026-08-28T17:54:06Z</time>
  <course>65.99</course>
  <speed>0.0</speed>
  <fix>3d</fix>
</trkpt>
<trkpt lat="40.0713748" lon="-105.229789">
  <ele>1583.0</ele>
  <time>2026-08-28T17:54:06Z</time>
  <course>245.59</course>
  <speed>0.02</speed>
  <fix>3d</fix>
</trkpt>
<trkpt lat="40.0713749" lon="-105.229789">
  <ele>1583.0</ele>
  <time>2026-08-28T17:54:06Z</time>
  <course>65.99</course>
  <speed>0.0</speed>
  <fix>3d</fix>
</trkpt>
<trkpt lat="40.0713747" lon="-105.229789">
  <ele>1583.0</ele>
  <time>2026-08-28T17:54:06Z</time>
  <course>245.58</course>
  <speed>0.02</speed>
  <fix>3d</fix>
</trkpt>
<trkpt lat="40.0713749" lon="-105.229789">
  <ele>1583.0</ele>
  <time>2026-08-28T17:54:06Z</time>
  <course>65.99</course>
  <speed>0.0</speed>
  <fix>3d</fix>
</trkpt>
<trkpt lat="40.0713748" lon="-105.229789">
  <ele>1582.99</ele>
  <time>2026-08-28T17:54:06Z</time>
  <course>245.58</course>
  <speed>0.02</speed>
  <fix>3d</fix>
</trkpt>
<trkpt lat="40.0713749" lon="-105.229789">
  <ele>1583.0</ele>
  <time>2026-08-28T17:54:06Z</time>
  <course>65.99</course>
  <speed>0.0</speed>
  <fix>3d</fix>
</trkpt>
<trkpt lat="40.0713747" lon="-105.2297891">
  <ele>1582.99</ele>
  <time>2026-08-28T17:54:06Z</time>
  <course>245.58</course>
  <speed>0.02</speed>
  <fix>3d</fix>
</trkpt>
<trkpt lat="40.0713749" lon="-105.229789">
  <ele>1583.0</ele>
  <time>2026-08-28T17:54:06Z</time>
  <course>65.99</course>
  <speed>0.0</speed>
  <fix>3d</fix>
</trkpt>
<trkpt lat="40.0713748" lon="-105.229789">
  <ele>1582.99</ele>
  <time>2026-08-28T17:54:06Z</time>
  <course>245.58</course>
  <speed>0.02</speed>
  <fix>3d</fix>
</trkpt>
<trkpt lat="40.0713749" lon="-105.229789">
  <ele>1583.0</ele>
  <time>2026-08-28T17:54:06Z</time>
  <course>65.99</course>
  <speed>0.0</speed>
  <fix>3d</fix>
</trkpt>
<trkpt lat="40.0713747" lon="-105.2297891">
  <ele>1582.99</ele>
  <time>2026-08-28T17:54:06Z</time>
  <course>245.57</course>
  <speed>0.02</speed>
  <fix>3d</fix>
</trkpt>
<trkpt lat="40.0713749" lon="-105.229789">
  <ele>1583.0</ele>
  <time>2026-08-28T17:54:06Z</time>
  <course>65.99</course>
  <speed>0.0</speed>
  <fix>3d</fix>
</trkpt>
<trkpt lat="40.0713748" lon="-105.229789">
  <ele>1582.99</ele>
  <time>2026-08-28T17:54:06Z</time>
  <course>245.57</course>
  <speed>0.02</speed>
  <fix>3d</fix>
</trkpt>
<trkpt lat="40.0713749" lon="-105.229789">
  <ele>1583.0</ele>
  <time>2026-08-28T17:54:06Z</time>
  <course>65.99</course>
  <speed>0.0</speed>
  <fix>3d</fix>
</trkpt>
<trkpt lat="40.0713747" lon="-105.2297891">
  <ele>1583.0</ele>
  <time>2026-08-28T17:54:06Z</time>
  <course>245.57</course>
  <speed>0.02</speed>
  <fix>3d</fix>
</trkpt>
<trkpt lat="40.0713749" lon="-105.229789">
  <ele>1583.0</ele>
  <time>2026-08-28T17:54:06Z</time>
  <course>65.99</course>
  <speed>0.0</speed>
  <fix>3d</fix>
</trkpt>
<trkpt lat="40.0713748" lon="-105.229789">
  <ele>1583.0</ele>
  <time>2026-08-28T17:54:06Z</time>
  <course>245.57</course>
  <speed>0.02</speed>
  <fix>3d</fix>
</trkpt>
<trkpt lat="40.0713749" lon="-105.229789">
  <ele>1583.0</ele>
  <time>2026-08-28T17:54:06Z</time>
  <course>65.99</course>
  <speed>0.0</speed>
  <fix>3d</fix>
</trkpt>
<trkpt lat="40.0713747" lon="-105.229789">
  <ele>1583.0</ele>
  <time>2026-08-28T17:54:06Z</time>
  <course>245.57</course>
  <speed>0.02</speed>
  <fix>3d</fix>
</trkpt>
<trkpt lat="40.0713749" lon="-105.229789">
  <ele>1583.0</ele>
  <time>2026-08-28T17:54:06Z</time>
  <course>65.98</course>
  <speed>0.0</speed>
  <fix>3d</fix>
</trkpt>
<trkpt lat="40.0713748" lon="-105.229789">
  <ele>1583.0</ele>
  <time>2026-08-28T17:54:06Z</time>
  <course>245.56</course>
  <speed>0.02</speed>
  <fix>3d</fix>
</trkpt>
<trkpt lat="40.0713749" lon="-105.229789">
  <ele>1583.0</ele>
  <time>2026-08-28T17:54:06Z</time>
  <course>65.98</course>
  <speed>0.0</speed>
  <fix>3d</fix>
</trkpt>
<trkpt lat="40.0713747" lon="-105.229789">
  <ele>1583.0</ele>
  <time>2026-08-28T17:54:06Z</time>
  <course>245.56</course>
  <speed>0.02</speed>
  <fix>3d</fix>
</trkpt>
<trkpt lat="40.0713749" lon="-105.229789">
  <ele>1583.0</ele>
  <time>2026-08-28T17:54:06Z</time>
  <course>65.98</course>
  <speed>0.0</speed>
  <fix>3d</fix>
</trkpt>
<trkpt lat="40.0713748" lon="-105.229789">
  <ele>1583.0</ele>
  <time>2026-08-28T17:54:06Z</time>
  <course>245.56</course>
  <speed>0.02</speed>
  <fix>3d</fix>
</trkpt>
<trkpt lat="40.0713749" lon="-105.229789">
  <ele>1583.0</ele>
  <time>2026-08-28T17:54:06Z</time>
  <course>65.98</course>
  <speed>0.0</speed>
  <fix>3d</fix>
</trkpt>
<trkpt lat="40.0713748" lon="-105.229789">
  <ele>1583.0</ele>
  <time>2026-08-28T17:54:06Z</time>
  <course>245.56</course>
  <speed>0.02</speed>
  <fix>3d</fix>
</trkpt>
<trkpt lat="40.0713749" lon="-105.229789">
  <ele>1583.0</ele>
  <time>2026-08-28T17:54:06Z</time>
  <course>65.98</course>
  <speed>0.0</speed>
  <fix>3d</fix>
</trkpt>
<trkpt lat="40.0713748" lon="-105.229789">
  <ele>1582.99</ele>
  <time>2026-08-28T17:54:06Z</time>
  <course>245.56</course>
  <speed>0.02</speed>
  <fix>3d</fix>
</trkpt>
<trkpt lat="40.0713749" lon="-105.229789">
  <ele>1583.0</ele>
  <time>2026-08-28T17:54:06Z</time>
  <course>65.98</course>
  <speed>0.0</speed>
  <fix>3d</fix>
</trkpt>
<trkpt lat="40.0713748" lon="-105.229789">
  <ele>1582.99</ele>
  <time>2026-08-28T17:54:06Z</time>
  <course>245.55</course>
  <speed>0.02</speed>
  <fix>3d</fix>
</trkpt>
<trkpt lat="40.0713749" lon="-105.229789">
  <ele>1583.0</ele>
  <time>2026-08-28T17:54:06Z</time>
  <course>65.98</course>
  <speed>0.0</speed>
  <fix>3d</fix>
</trkpt>
<trkpt lat="40.0713748" lon="-105.229789">
  <ele>1582.99</ele>
  <time>2026-08-28T17:54:06Z</time>
  <course>245.55</course>
  <speed>0.02</speed>
  <fix>3d</fix>
</trkpt>
<trkpt lat="40.0713749" lon="-105.229789">
  <ele>1583.0</ele>
  <time>2026-08-28T17:54:06Z</time>
  <course>65.98</course>
  <speed>0.0</speed>
  <fix>3d</fix>
</trkpt>
<trkpt lat="40.0713747" lon="-105.229789">
  <ele>1582.98</ele>
  <time>2026-08-28T17:54:06Z</time>
  <course>245.55</course>
  <speed>0.02</speed>
  <fix>3d</fix>
</trkpt>
<trkpt lat="40.0713749" lon="-105.229789">
  <ele>1583.0</ele>
  <time>2026-08-28T17:54:06Z</time>
  <course>65.98</course>
  <speed>0.0</speed>
  <fix>3d</fix>
</trkpt>
<trkpt lat="40.0713748" lon="-105.229789">
  <ele>1582.98</ele>
  <time>2026-08-28T17:54:06Z</time>
  <course>245.55</course>
  <speed>0.02</speed>
  <fix>3d</fix>
</trkpt>
<trkpt lat="40.0713749" lon="-105.229789">
  <ele>1583.0</ele>
  <time>2026-08-28T17:54:06Z</time>
  <course>65.98</course>
  <speed>0.0</speed>
  <fix>3d</fix>
</trkpt>
<trkpt lat="40.0713747" lon="-105.229789">
  <ele>1582.98</ele>
  <time>2026-08-28T17:54:06Z</time>
  <course>245.55</course>
  <speed>0.02</speed>
  <fix>3d</fix>
</trkpt>
<trkpt lat="40.0713749" lon="-105.229789">
  <ele>1583.0</ele>
  <time>2026-08-28T17:54:06Z</time>
  <course>65.98</course>
  <speed>0.0</speed>
  <fix>3d</fix>
</trkpt>
<trkpt lat="40.0713748" lon="-105.229789">
  <ele>1582.98</ele>
  <time>2026-08-28T17:54:06Z</time>
  <course>245.54</course>
  <speed>0.02</speed>
  <fix>3d</fix>
</trkpt>
<trkpt lat="40.0713749" lon="-105.229789">
  <ele>1583.0</ele>
  <time>2026-08-28T17:54:06Z</time>
  <course>65.98</course>
  <speed>0.0</speed>
  <fix>3d</fix>
</trkpt>
<trkpt lat="40.0713747" lon="-105.229789">
  <ele>1582.98</ele>
  <time>2026-08-28T17:54:06Z</time>
  <course>245.54</course>
  <speed>0.02</speed>
  <fix>3d</fix>
</trkpt>
<trkpt lat="40.0713749" lon="-105.229789">
  <ele>1583.0</ele>
  <time>2026-08-28T17:54:06Z</time>
  <course>65.98</course>
  <speed>0.0</speed>
  <fix>3d</fix>
</trkpt>
<trkpt lat="40.0713748" lon="-105.229789">
  <ele>1582.98</ele>
  <time>2026-08-28T17:54:06Z</time>
  <course>245.54</course>
  <speed>0.02</speed>
  <fix>3d</fix>
</trkpt>
<trkpt lat="40.0713749" lon="-105.229789">
  <ele>1583.0</ele>
  <time>2026-08-28T17:54:06Z</time>
  <course>65.98</course>
  <speed>0.0</speed>
  <fix>3d</fix>
</trkpt>
<trkpt lat="40.0713747" lon="-105.229789">
  <ele>1582.98</ele>
  <time>2026-08-28T17:54:06Z</time>
  <course>245.54</course>
  <speed>0.02</speed>
  <fix>3d</fix>
</trkpt>
<trkpt lat="40.0713749" lon="-105.229789">
  <ele>1583.0</ele>
  <time>2026-08-28T17:54:06Z</time>
  <course>65.98</course>
  <speed>0.0</speed>
  <fix>3d</fix>
</trkpt>
<trkpt lat="40.0713748" lon="-105.229789">
  <ele>1582.98</ele>
  <time>2026-08-28T17:54:06Z</time>
  <course>245.54</course>
  <speed>0.02</speed>
  <fix>3d</fix>
</trkpt>
<trkpt lat="40.0713749" lon="-105.229789">
  <ele>1583.0</ele>
  <time>2026-08-28T17:54:06Z</time>
  <course>65.97</course>
  <speed>0.0</speed>
  <fix>3d</fix>
</trkpt>
<trkpt lat="40.0713747" lon="-105.229789">
  <ele>1582.98</ele>
  <time>2026-08-28T17:54:06Z</time>
  <course>245.53</course>
  <speed>0.02</speed>
  <fix>3d</fix>
</trkpt>
<trkpt lat="40.0713749" lon="-105.229789">
  <ele>1583.0</ele>
  <time>2026-08-28T17:54:06Z</time>
  <course>65.97</course>
  <speed>0.0</speed>
  <fix>3d</fix>
</trkpt>
<trkpt lat="40.0713747" lon="-105.229789">
  <ele>1582.98</ele>
  <time>2026-08-28T17:54:06Z</time>
  <course>245.53</course>
  <speed>0.02</speed>
  <fix>3d</fix>
</trkpt>
<trkpt lat="40.0713749" lon="-105.229789">
  <ele>1583.0</ele>
  <time>2026-08-28T17:54:06Z</time>
  <course>65.97</course>
  <speed>0.0</speed>
  <fix>3d</fix>
</trkpt>
<trkpt lat="40.0713747" lon="-105.229789">
  <ele>1582.98</ele>
  <time>2026-08-28T17:54:06Z</time>
  <course>245.53</course>
  <speed>0.02</speed>
  <fix>3d</fix>
</trkpt>
<trkpt lat="40.0713749" lon="-105.229789">
  <ele>1583.0</ele>
  <time>2026-08-28T17:54:06Z</time>
  <course>65.97</course>
  <speed>0.0</speed>
  <fix>3d</fix>
</trkpt>
<trkpt lat="40.0713747" lon="-105.229789">
  <ele>1582.98</ele>
  <time>2026-08-28T17:54:06Z</time>
  <course>245.53</course>
  <speed>0.02</speed>
  <fix>3d</fix>
</trkpt>
<trkpt lat="40.0713749" lon="-105.229789">
  <ele>1583.0</ele>
  <time>2026-08-28T17:54:06Z</time>
  <course>65.97</course>
  <speed>0.0</speed>
  <fix>3d</fix>
</trkpt>
<trkpt lat="40.0713747" lon="-105.229789">
  <ele>1582.98</ele>
  <time>2026-08-28T17:54:06Z</time>
  <course>245.53</course>
  <speed>0.02</speed>
  <fix>3d</fix>
</trkpt>
<trkpt lat="40.0713749" lon="-105.229789">
  <ele>1583.0</ele>
  <time>2026-08-28T17:54:06Z</time>
  <course>65.97</course>
  <speed>0.0</speed>
  <fix>3d</fix>
</trkpt>
<trkpt lat="40.0713748" lon="-105.229789">
  <ele>1582.98</ele>
  <time>2026-08-28T17:54:06Z</time>
  <course>245.52</course>
  <speed>0.02</speed>
  <fix>3d</fix>
</trkpt>
<trkpt lat="40.0713749" lon="-105.229789">
  <ele>1583.0</ele>
  <time>2026-08-28T17:54:06Z</time>
  <course>65.97</course>
  <speed>0.0</speed>
  <fix>3d</fix>
</trkpt>
<trkpt lat="40.0713747" lon="-105.229789">
  <ele>1582.97</ele>
  <time>2026-08-28T17:54:06Z</time>
  <course>245.52</course>
  <speed>0.02</speed>
  <fix>3d</fix>
</trkpt>
<trkpt lat="40.0713749" lon="-105.229789">
  <ele>1583.0</ele>
  <time>2026-08-28T17:54:06Z</time>
  <course>65.96</course>
  <speed>0.0</speed>
  <fix>3d</fix>
</trkpt>
<trkpt lat="40.0713748" lon="-105.229789">
  <ele>1582.97</ele>
  <time>2026-08-28T17:54:06Z</time>
  <course>245.52</course>
  <speed>0.02</speed>
  <fix>3d</fix>
</trkpt>
<trkpt lat="40.0713749" lon="-105.229789">
  <ele>1583.0</ele>
  <time>2026-08-28T17:54:06Z</time>
  <course>65.96</course>
  <speed>0.0</speed>
  <fix>3d</fix>
</trkpt>
<trkpt lat="40.0713748" lon="-105.229789">
  <ele>1582.97</ele>
  <time>2026-08-28T17:54:06Z</time>
  <course>245.52</course>
  <speed>0.02</speed>
  <fix>3d</fix>
</trkpt>
<trkpt lat="40.0713749" lon="-105.229789">
  <ele>1583.0</ele>
  <time>2026-08-28T17:54:06Z</time>
  <course>65.99</course>
  <speed>0.0</speed>
  <fix>3d</fix>
</trkpt>
<trkpt lat="40.0713748" lon="-105.229789">
  <ele>1582.97</ele>
  <time>2026-08-28T17:54:06Z</time>
  <course>245.52</course>
  <speed>0.02</speed>
  <fix>3d</fix>
</trkpt>
<trkpt lat="40.0713749" lon="-105.229789">
  <ele>1583.0</ele>
  <time>2026-08-28T17:54:06Z</time>
  <course>65.99</course>
  <speed>0.0</speed>
  <fix>3d</fix>
</trkpt>
<trkpt lat="40.0713748" lon="-105.229789">
  <ele>1582.97</ele>
  <time>2026-08-28T17:54:06Z</time>
  <course>245.52</course>
  <speed>0.02</speed>
  <fix>3d</fix>
</trkpt>
<trkpt lat="40.0713749" lon="-105.229789">
  <ele>1583.0</ele>
  <time>2026-08-28T17:54:06Z</time>
  <course>65.99</course>
  <speed>0.0</speed>
  <fix>3d</fix>
</trkpt>
<trkpt lat="40.0713748" lon="-105.229789">
  <ele>1582.98</ele>
  <time>2026-08-28T17:54:06Z</time>
  <course>245.51</course>
  <speed>0.02</speed>
  <fix>3d</fix>
</trkpt>
<trkpt lat="40.0713749" lon="-105.229789">
  <ele>1583.0</ele>
  <time>2026-08-28T17:54:06Z</time>
  <course>65.99</course>
  <speed>0.0</speed>
  <fix>3d</fix>
</trkpt>
<trkpt lat="40.0713748" lon="-105.229789">
  <ele>1582.98</ele>
  <time>2026-08-28T17:54:06Z</time>
  <course>245.51</course>
  <speed>0.02</speed>
  <fix>3d</fix>
</trkpt>
<trkpt lat="40.0713749" lon="-105.229789">
  <ele>1583.0</ele>
  <time>2026-08-28T17:54:06Z</time>
  <course>65.99</course>
  <speed>0.0</speed>
  <fix>3d</fix>
</trkpt>
<trkpt lat="40.0713748" lon="-105.229789">
  <ele>1582.99</ele>
  <time>2026-08-28T17:54:06Z</time>
  <course>245.51</course>
  <speed>0.02</speed>
  <fix>3d</fix>
</trkpt>
<trkpt lat="40.0713749" lon="-105.229789">
  <ele>1583.0</ele>
  <time>2026-08-28T17:54:06Z</time>
  <course>65.99</course>
  <speed>0.0</speed>
  <fix>3d</fix>
</trkpt>
<trkpt lat="40.0713748" lon="-105.229789">
  <ele>1582.99</ele>
  <time>2026-08-28T17:54:06Z</time>
  <course>245.51</course>
  <speed>0.02</speed>
  <fix>3d</fix>
</trkpt>
<trkpt lat="40.0713749" lon="-105.229789">
  <ele>1583.0</ele>
  <time>2026-08-28T17:54:06Z</time>
  <course>65.99</course>
  <speed>0.0</speed>
  <fix>3d</fix>
</trkpt>
<trkpt lat="40.0713748" lon="-105.229789">
  <ele>1582.99</ele>
  <time>2026-08-28T17:54:06Z</time>
  <course>245.51</course>
  <speed>0.02</speed>
  <fix>3d</fix>
</trkpt>
<trkpt lat="40.0713749" lon="-105.229789">
  <ele>1583.0</ele>
  <time>2026-08-28T17:54:06Z</time>
  <course>65.99</course>
  <speed>0.0</speed>
  <fix>3d</fix>
</trkpt>
<trkpt lat="40.0713748" lon="-105.229789">
  <ele>1582.99</ele>
  <time>2026-08-28T17:54:06Z</time>
  <course>245.5</course>
  <speed>0.02</speed>
  <fix>3d</fix>
</trkpt>
<trkpt lat="40.0713749" lon="-105.229789">
  <ele>1583.0</ele>
  <time>2026-08-28T17:54:06Z</time>
  <course>65.99</course>
  <speed>0.0</speed>
  <fix>3d</fix>
</trkpt>
<trkpt lat="40.0713748" lon="-105.229789">
  <ele>1583.0</ele>
  <time>2026-08-28T17:54:06Z</time>
  <course>245.5</course>
  <speed>0.02</speed>
  <fix>3d</fix>
</trkpt>
<trkpt lat="40.0713749" lon="-105.229789">
  <ele>1583.0</ele>
  <time>2026-08-28T17:54:06Z</time>
  <course>65.99</course>
  <speed>0.0</speed>
  <fix>3d</fix>
</trkpt>
<trkpt lat="40.0713748" lon="-105.229789">
  <ele>1583.0</ele>
  <time>2026-08-28T17:54:06Z</time>
  <course>245.5</course>
  <speed>0.02</speed>
  <fix>3d</fix>
</trkpt>
<trkpt lat="40.0713749" lon="-105.229789">
  <ele>1583.0</ele>
  <time>2026-08-28T17:54:06Z</time>
  <course>65.99</course>
  <speed>0.0</speed>
  <fix>3d</fix>
</trkpt>
<trkpt lat="40.0713748" lon="-105.229789">
  <ele>1583.0</ele>
  <time>2026-08-28T17:54:06Z</time>
  <course>245.5</course>
  <speed>0.02</speed>
  <fix>3d</fix>
</trkpt>
<trkpt lat="40.0713749" lon="-105.229789">
  <ele>1583.0</ele>
  <time>2026-08-28T17:54:06Z</time>
  <course>65.99</course>
  <speed>0.0</speed>
  <fix>3d</fix>
</trkpt>
<trkpt lat="40.0713748" lon="-105.229789">
  <ele>1583.0</ele>
  <time>2026-08-28T17:54:06Z</time>
  <course>245.5</course>
  <speed>0.02</speed>
  <fix>3d</fix>
</trkpt>
<trkpt lat="40.0713749" lon="-105.229789">
  <ele>1583.0</ele>
  <time>2026-08-28T17:54:06Z</time>
  <course>65.99</course>
  <speed>0.0</speed>
  <fix>3d</fix>
</trkpt>
<trkpt lat="40.0713748" lon="-105.229789">
  <ele>1583.0</ele>
  <time>2026-08-28T17:54:06Z</time>
  <course>245.49</course>
  <speed>0.02</speed>
  <fix>3d</fix>
</trkpt>
<trkpt lat="40.0713749" lon="-105.229789">
  <ele>1583.0</ele>
  <time>2026-08-28T17:54:06Z</time>
  <course>65.99</course>
  <speed>0.0</speed>
  <fix>3d</fix>
</trkpt>
<trkpt lat="40.0713748" lon="-105.229789">
  <ele>1583.0</ele>
  <time>2026-08-28T17:54:06Z</time>
  <course>245.49</course>
  <speed>0.02</speed>
  <fix>3d</fix>
</trkpt>
<trkpt lat="40.0713749" lon="-105.229789">
  <ele>1583.0</ele>
  <time>2026-08-28T17:54:06Z</time>
  <course>65.99</course>
  <speed>0.0</speed>
  <fix>3d</fix>
</trkpt>
<trkpt lat="40.0713748" lon="-105.229789">
  <ele>1583.0</ele>
  <time>2026-08-28T17:54:06Z</time>
  <course>245.49</course>
  <speed>0.02</speed>
  <fix>3d</fix>
</trkpt>
<trkpt lat="40.0713749" lon="-105.229789">
  <ele>1583.0</ele>
  <time>2026-08-28T17:54:06Z</time>
  <course>65.99</course>
  <speed>0.0</speed>
  <fix>3d</fix>
</trkpt>
<trkpt lat="40.0713748" lon="-105.229789">
  <ele>1583.0</ele>
  <time>2026-08-28T17:54:06Z</time>
  <course>245.49</course>
  <speed>0.02</speed>
  <fix>3d</fix>
</trkpt>
<trkpt lat="40.0713749" lon="-105.229789">
  <ele>1583.0</ele>
  <time>2026-08-28T17:54:06Z</time>
  <course>65.99</course>
  <speed>0.0</speed>
  <fix>3d</fix>
</trkpt>
<trkpt lat="40.0713748" lon="-105.229789">
  <ele>1583.01</ele>
  <time>2026-08-28T17:54:06Z</time>
  <course>245.49</course>
  <speed>0.02</speed>
  <fix>3d</fix>
</trkpt>
<trkpt lat="40.0713749" lon="-105.229789">
  <ele>1583.0</ele>
  <time>2026-08-28T17:54:06Z</time>
  <course>65.99</course>
  <speed>0.0</speed>
  <fix>3d</fix>
</trkpt>
<trkpt lat="40.0713748" lon="-105.229789">
  <ele>1583.02</ele>
  <time>2026-08-28T17:54:06Z</time>
  <course>245.48</course>
  <speed>0.02</speed>
  <fix>3d</fix>
</trkpt>
<trkpt lat="40.0713749" lon="-105.229789">
  <ele>1583.0</ele>
  <time>2026-08-28T17:54:06Z</time>
  <course>65.99</course>
  <speed>0.0</speed>
  <fix>3d</fix>
</trkpt>
<trkpt lat="40.0713748" lon="-105.229789">
  <ele>1583.02</ele>
  <time>2026-08-28T17:54:06Z</time>
  <course>245.48</course>
  <speed>0.02</speed>
  <fix>3d</fix>
</trkpt>
<trkpt lat="40.0713749" lon="-105.229789">
  <ele>1583.0</ele>
  <time>2026-08-28T17:54:06Z</time>
  <course>65.99</course>
  <speed>0.0</speed>
  <fix>3d</fix>
</trkpt>
<trkpt lat="40.0713748" lon="-105.229789">
  <ele>1583.03</ele>
  <time>2026-08-28T17:54:06Z</time>
  <course>245.48</course>
  <speed>0.02</speed>
  <fix>3d</fix>
</trkpt>
<trkpt lat="40.0713749" lon="-105.229789">
  <ele>1583.0</ele>
  <time>2026-08-28T17:54:06Z</time>
  <course>65.99</course>
  <speed>0.0</speed>
  <fix>3d</fix>
</trkpt>
<trkpt lat="40.0713748" lon="-105.229789">
  <ele>1583.04</ele>
  <time>2026-08-28T17:54:06Z</time>
  <course>245.48</course>
  <speed>0.02</speed>
  <fix>3d</fix>
</trkpt>
<trkpt lat="40.0713749" lon="-105.229789">
  <ele>1583.0</ele>
  <time>2026-08-28T17:54:06Z</time>
  <course>65.99</course>
  <speed>0.0</speed>
  <fix>3d</fix>
</trkpt>
<trkpt lat="39.655741" lon="-104.1383097">
  <ele>1566.58</ele>
  <time>2026-08-28T17:54:07Z</time>
  <course>0.0</course>
  <speed>0.0</speed>
  <fix>3d</fix>
</trkpt>
<trkpt lat="40.0713749" lon="-105.229789">
  <ele>1583.0</ele>
  <time>2026-08-28T17:54:07Z</time>
  <course>0.0</course>
  <speed>0.0</speed>
  <fix>3d</fix>
</trkpt>
<trkpt lat="40.0713749" lon="-105.229789">
  <ele>1583.0</ele>
  <time>2026-08-28T17:54:07Z</time>
  <course>238.36</course>
  <speed>0.0</speed>
  <fix>3d</fix>
</trkpt>
<trkpt lat="40.0713749" lon="-105.229789">
  <ele>1583.0</ele>
  <time>2026-08-28T17:54:07Z</time>
  <course>0.0</course>
  <speed>0.0</speed>
  <fix>3d</fix>
</trkpt>
<trkpt lat="40.0713749" lon="-105.229789">
  <ele>1583.0</ele>
  <time>2026-08-28T17:54:07Z</time>
  <course>238.44</course>
  <speed>0.0</speed>
  <fix>3d</fix>
</trkpt>
<trkpt lat="40.0713749" lon="-105.229789">
  <ele>1583.0</ele>
  <time>2026-08-28T17:54:07Z</time>
  <course>0.0</course>
  <speed>0.0</speed>
  <fix>3d</fix>
</trkpt>
<trkpt lat="40.0713749" lon="-105.229789">
  <ele>1583.0</ele>
  <time>2026-08-28T17:54:07Z</time>
  <course>238.64</course>
  <speed>0.0</speed>
  <fix>3d</fix>
</trkpt>
<trkpt lat="40.0713749" lon="-105.229789">
  <ele>1583.0</ele>
  <time>2026-08-28T17:54:07Z</time>
  <course>0.0</course>
  <speed>0.0</speed>
  <fix>3d</fix>
</trkpt>
<trkpt lat="40.0713749" lon="-105.229789">
  <ele>1583.0</ele>
  <time>2026-08-28T17:54:07Z</time>
  <course>238.93</course>
  <speed>0.0</speed>
  <fix>3d</fix>
</trkpt>
<trkpt lat="40.0713749" lon="-105.229789">
  <ele>1583.0</ele>
  <time>2026-08-28T17:54:07Z</time>
  <course>0.0</course>
  <speed>0.0</speed>
  <fix>3d</fix>
</trkpt>
<trkpt lat="40.0713749" lon="-105.229789">
  <ele>1583.0</ele>
  <time>2026-08-28T17:54:07Z</time>
  <course>239.32</course>
  <speed>0.0</speed>
  <fix>3d</fix>
</trkpt>
<trkpt lat="40.0713749" lon="-105.229789">
  <ele>1583.0</ele>
  <time>2026-08-28T17:54:07Z</time>
  <course>0.0</course>
  <speed>0.0</speed>
  <fix>3d</fix>
</trkpt>
<trkpt lat="40.0713749" lon="-105.229789">
  <ele>1583.0</ele>
  <time>2026-08-28T17:54:07Z</time>
  <course>239.61</course>
  <speed>0.0</speed>
  <fix>3d</fix>
</trkpt>
<trkpt lat="40.0713749" lon="-105.229789">
  <ele>1583.0</ele>
  <time>2026-08-28T17:54:07Z</time>
  <course>0.0</course>
  <speed>0.0</speed>
  <fix>3d</fix>
</trkpt>
<trkpt lat="40.0713749" lon="-105.229789">
  <ele>1583.0</ele>
  <time>2026-08-28T17:54:07Z</time>
  <course>239.96</course>
  <speed>0.0</speed>
  <fix>3d</fix>
</trkpt>
<trkpt lat="40.0713749" lon="-105.229789">
  <ele>1583.0</ele>
  <time>2026-08-28T17:54:07Z</time>
  <course>0.0</course>
  <speed>0.0</speed>
  <fix>3d</fix>
</trkpt>
<trkpt lat="40.0713749" lon="-105.229789">
  <ele>1583.0</ele>
  <time>2026-08-28T17:54:07Z</time>
  <course>240.29</course>
  <speed>0.0</speed>
  <fix>3d</fix>
</trkpt>
<trkpt lat="40.0713749" lon="-105.229789">
  <ele>1583.0</ele>
  <time>2026-08-28T17:54:07Z</time>
  <course>0.0</course>
  <speed>0.0</speed>
  <fix>3d</fix>
</trkpt>
<trkpt lat="40.0713749" lon="-105.229789">
  <ele>1583.0</ele>
  <time>2026-08-28T17:54:07Z</time>
  <course>240.61</course>
  <speed>0.0</speed>
  <fix>3d</fix>
</trkpt>
<trkpt lat="40.0713749" lon="-105.229789">
  <ele>1583.0</ele>
  <time>2026-08-28T17:54:07Z</time>
  <course>0.0</course>
  <speed>0.0</speed>
  <fix>3d</fix>
</trkpt>
<trkpt lat="40.0713749" lon="-105.229789">
  <ele>1583.0</ele>
  <time>2026-08-28T17:54:07Z</time>
  <course>240.92</course>
  <speed>0.0</speed>
  <fix>3d</fix>
</trkpt>
<trkpt lat="40.0713749" lon="-105.229789">
  <ele>1583.0</ele>
  <time>2026-08-28T17:54:07Z</time>
  <course>0.0</course>
  <speed>0.0</speed>
  <fix>3d</fix>
</trkpt>
<trkpt lat="40.0713749" lon="-105.229789">
  <ele>1583.0</ele>
  <time>2026-08-28T17:54:07Z</time>
  <course>241.21</course>
  <speed>0.0</speed>
  <fix>3d</fix>
</trkpt>
<trkpt lat="40.0713749" lon="-105.229789">
  <ele>1583.0</ele>
  <time>2026-08-28T17:54:07Z</time>
  <course>0.0</course>
  <speed>0.0</speed>
  <fix>3d</fix>
</trkpt>
<trkpt lat="40.0713749" lon="-105.229789">
  <ele>1583.0</ele>
  <time>2026-08-28T17:54:07Z</time>
  <course>241.49</course>
  <speed>0.0</speed>
  <fix>3d</fix>
</trkpt>
<trkpt lat="40.0713749" lon="-105.229789">
  <ele>1583.0</ele>
  <time>2026-08-28T17:54:07Z</time>
  <course>0.0</course>
  <speed>0.0</speed>
  <fix>3d</fix>
</trkpt>
<trkpt lat="40.0713749" lon="-105.229789">
  <ele>1583.0</ele>
  <time>2026-08-28T17:54:07Z</time>
  <course>241.77</course>
  <speed>0.0</speed>
  <fix>3d</fix>
</trkpt>
<trkpt lat="40.0713749" lon="-105.229789">
  <ele>1583.0</ele>
  <time>2026-08-28T17:54:07Z</time>
  <course>0.0</course>
  <speed>0.0</speed>
  <fix>3d</fix>
</trkpt>
<trkpt lat="40.0713749" lon="-105.229789">
  <ele>1583.0</ele>
  <time>2026-08-28T17:54:07Z</time>
  <course>242.03</course>
  <speed>0.0</speed>
  <fix>3d</fix>
</trkpt>
<trkpt lat="40.0713749" lon="-105.229789">
  <ele>1583.0</ele>
  <time>2026-08-28T17:54:07Z</time>
  <course>0.0</course>
  <speed>0.0</speed>
  <fix>3d</fix>
</trkpt>
<trkpt lat="40.0713749" lon="-105.229789">
  <ele>1583.0</ele>
  <time>2026-08-28T17:54:07Z</time>
  <course>242.29</course>
  <speed>0.0</speed>
  <fix>3d</fix>
</trkpt>
<trkpt lat="40.0713749" lon="-105.229789">
  <ele>1583.0</ele>
  <time>2026-08-28T17:54:07Z</time>
  <course>0.0</course>
  <speed>0.0</speed>
  <fix>3d</fix>
</trkpt>
<trkpt lat="40.0713749" lon="-105.229789">
  <ele>1583.0</ele>
  <time>2026-08-28T17:54:07Z</time>
  <course>242.54</course>
  <speed>0.0</speed>
  <fix>3d</fix>
</trkpt>
<trkpt lat="40.0713749" lon="-105.229789">
  <ele>1583.0</ele>
  <time>2026-08-28T17:54:07Z</time>
  <course>0.0</course>
  <speed>0.0</speed>
  <fix>3d</fix>
</trkpt>
<trkpt lat="40.0713749" lon="-105.229789">
  <ele>1583.0</ele>
  <time>2026-08-28T17:54:07Z</time>
  <course>242.79</course>
  <speed>0.0</speed>
  <fix>3d</fix>
</trkpt>
<trkpt lat="40.0713749" lon="-105.229789">
  <ele>1583.0</ele>
  <time>2026-08-28T17:54:07Z</time>
  <course>0.0</course>
  <speed>0.0</speed>
  <fix>3d</fix>
</trkpt>
<trkpt lat="40.0713749" lon="-105.229789">
  <ele>1583.0</ele>
  <time>2026-08-28T17:54:07Z</time>
  <course>243.02</course>
  <speed>0.0</speed>
  <fix>3d</fix>
</trkpt>
<trkpt lat="40.0713749" lon="-105.229789">
  <ele>1583.0</ele>
  <time>2026-08-28T17:54:07Z</time>
  <course>0.0</course>
  <speed>0.0</speed>
  <fix>3d</fix>
</trkpt>
<trkpt lat="40.0713749" lon="-105.229789">
  <ele>1583.0</ele>
  <time>2026-08-28T17:54:07Z</time>
  <course>243.25</course>
  <speed>0.0</speed>
  <fix>3d</fix>
</trkpt>
<trkpt lat="40.0713749" lon="-105.229789">
  <ele>1583.0</ele>
  <time>2026-08-28T17:54:07Z</time>
  <course>0.0</course>
  <speed>0.0</speed>
  <fix>3d</fix>
</trkpt>
<trkpt lat="40.0713749" lon="-105.229789">
  <ele>1583.0</ele>
  <time>2026-08-28T17:54:07Z</time>
  <course>243.47</course>
  <speed>0.0</speed>
  <fix>3d</fix>
</trkpt>
<trkpt lat="40.0713749" lon="-105.229789">
  <ele>1583.0</ele>
  <time>2026-08-28T17:54:07Z</time>
  <course>0.0</course>
  <speed>0.0</speed>
  <fix>3d</fix>
</trkpt>
<trkpt lat="40.0713749" lon="-105.229789">
  <ele>1583.0</ele>
  <time>2026-08-28T17:54:07Z</time>
  <course>243.68</course>
  <speed>0.0</speed>
  <fix>3d</fix>
</trkpt>
<trkpt lat="40.0713749" lon="-105.229789">
  <ele>1583.0</ele>
  <time>2026-08-28T17:54:07Z</time>
  <course>0.0</course>
  <speed>0.0</speed>
  <fix>3d</fix>
</trkpt>
<trkpt lat="40.0713749" lon="-105.229789">
  <ele>1583.0</ele>
  <time>2026-08-28T17:54:07Z</time>
  <course>243.89</course>
  <speed>0.0</speed>
  <fix>3d</fix>
</trkpt>
<trkpt lat="40.0713749" lon="-105.229789">
  <ele>1583.0</ele>
  <time>2026-08-28T17:54:07Z</time>
  <course>0.0</course>
  <speed>0.0</speed>
  <fix>3d</fix>
</trkpt>
<trkpt lat="40.0713749" lon="-105.229789">
  <ele>1583.0</ele>
  <time>2026-08-28T17:54:07Z</time>
  <course>244.09</course>
  <speed>0.0</speed>
  <fix>3d</fix>
</trkpt>
<trkpt lat="40.0713749" lon="-105.229789">
  <ele>1583.0</ele>
  <time>2026-08-28T17:54:07Z</time>
  <course>0.0</course>
  <speed>0.0</speed>
  <fix>3d</fix>
</trkpt>
<trkpt lat="40.0713749" lon="-105.229789">
  <ele>1583.0</ele>
  <time>2026-08-28T17:54:07Z</time>
  <course>244.28</course>
  <speed>0.0</speed>
  <fix>3d</fix>
</trkpt>
<trkpt lat="40.0713749" lon="-105.229789">
  <ele>1583.0</ele>
  <time>2026-08-28T17:54:07Z</time>
  <course>0.0</course>
  <speed>0.0</speed>
  <fix>3d</fix>
</trkpt>
<trkpt lat="40.0713749" lon="-105.229789">
  <ele>1583.0</ele>
  <time>2026-08-28T17:54:07Z</time>
  <course>244.46</course>
  <speed>0.0</speed>
  <fix>3d</fix>
</trkpt>
<trkpt lat="40.0713749" lon="-105.229789">
  <ele>1583.0</ele>
  <time>2026-08-28T17:54:07Z</time>
  <course>0.0</course>
  <speed>0.0</speed>
  <fix>3d</fix>
</trkpt>
<trkpt lat="40.0713749" lon="-105.229789">
  <ele>1583.0</ele>
  <time>2026-08-28T17:54:07Z</time>
  <course>244.64</course>
  <speed>0.0</speed>
  <fix>3d</fix>
</trkpt>
<trkpt lat="40.0713749" lon="-105.229789">
  <ele>1583.0</ele>
  <time>2026-08-28T17:54:07Z</time>
  <course>0.0</course>
  <speed>0.0</speed>
  <fix>3d</fix>
</trkpt>
<trkpt lat="40.0713749" lon="-105.229789">
  <ele>1583.0</ele>
  <time>2026-08-28T17:54:07Z</time>
  <course>244.81</course>
  <speed>0.0</speed>
  <fix>3d</fix>
</trkpt>
<trkpt lat="40.0713749" lon="-105.229789">
  <ele>1583.0</ele>
  <time>2026-08-28T17:54:07Z</time>
  <course>0.0</course>
  <speed>0.0</speed>
  <fix>3d</fix>
</trkpt>
<trkpt lat="40.0713749" lon="-105.229789">
  <ele>1583.0</ele>
  <time>2026-08-28T17:54:07Z</time>
  <course>244.97</course>
  <speed>0.0</speed>
  <fix>3d</fix>
</trkpt>
<trkpt lat="40.0713749" lon="-105.229789">
  <ele>1583.0</ele>
  <time>2026-08-28T17:54:07Z</time>
  <course>0.0</course>
  <speed>0.0</speed>
  <fix>3d</fix>
</trkpt>
<trkpt lat="40.0713749" lon="-105.229789">
  <ele>1583.0</ele>
  <time>2026-08-28T17:54:07Z</time>
  <course>245.13</course>
  <speed>0.0</speed>
  <fix>3d</fix>
</trkpt>
<trkpt lat="40.0713749" lon="-105.229789">
  <ele>1583.0</ele>
  <time>2026-08-28T17:54:07Z</time>
  <course>0.0</course>
  <speed>0.0</speed>
  <fix>3d</fix>
</trkpt>
<trkpt lat="40.0713749" lon="-105.229789">
  <ele>1583.0</ele>
  <time>2026-08-28T17:54:07Z</time>
  <course>245.29</course>
  <speed>0.0</speed>
  <fix>3d</fix>
</trkpt>
<trkpt lat="40.0713749" lon="-105.229789">
  <ele>1583.0</ele>
  <time>2026-08-28T17:54:07Z</time>
  <course>0.0</course>
  <speed>0.0</speed>
  <fix>3d</fix>
</trkpt>
<trkpt lat="40.0713749" lon="-105.229789">
  <ele>1583.0</ele>
  <time>2026-08-28T17:54:07Z</time>
  <course>245.43</course>
  <speed>0.0</speed>
  <fix>3d</fix>
</trkpt>
<trkpt lat="40.0713749" lon="-105.229789">
  <ele>1583.0</ele>
  <time>2026-08-28T17:54:07Z</time>
  <course>0.0</course>
  <speed>0.0</speed>
  <fix>3d</fix>
</trkpt>
<trkpt lat="40.0713749" lon="-105.229789">
  <ele>1583.0</ele>
  <time>2026-08-28T17:54:07Z</time>
  <course>245.57</course>
  <speed>0.0</speed>
  <fix>3d</fix>
</trkpt>
<trkpt lat="40.0713749" lon="-105.229789">
  <ele>1583.0</ele>
  <time>2026-08-28T17:54:07Z</time>
  <course>0.0</course>
  <speed>0.0</speed>
  <fix>3d</fix>
</trkpt>
<trkpt lat="40.0713749" lon="-105.229789">
  <ele>1583.0</ele>
  <time>2026-08-28T17:54:07Z</time>
  <course>245.71</course>
  <speed>0.0</speed>
  <fix>3d</fix>
</trkpt>
<trkpt lat="40.0713749" lon="-105.229789">
  <ele>1583.0</ele>
  <time>2026-08-28T17:54:07Z</time>
  <course>0.0</course>
  <speed>0.0</speed>
  <fix>3d</fix>
</trkpt>
<trkpt lat="40.0713749" lon="-105.229789">
  <ele>1583.0</ele>
  <time>2026-08-28T17:54:07Z</time>
  <course>245.84</course>
  <speed>0.0</speed>
  <fix>3d</fix>
</trkpt>
<trkpt lat="40.0713749" lon="-105.229789">
  <ele>1583.0</ele>
  <time>2026-08-28T17:54:07Z</time>
  <course>0.0</course>
  <speed>0.0</speed>
  <fix>3d</fix>
</trkpt>
<trkpt lat="40.0713749" lon="-105.229789">
  <ele>1583.0</ele>
  <time>2026-08-28T17:54:07Z</time>
  <course>245.96</course>
  <speed>0.0</speed>
  <fix>3d</fix>
</trkpt>
<trkpt lat="40.0713749" lon="-105.229789">
  <ele>1583.0</ele>
  <time>2026-08-28T17:54:07Z</time>
  <course>0.0</course>
  <speed>0.0</speed>
  <fix>3d</fix>
</trkpt>
<trkpt lat="40.0713749" lon="-105.229789">
  <ele>1583.0</ele>
  <time>2026-08-28T17:54:07Z</time>
  <course>246.08</course>
  <speed>0.0</speed>
  <fix>3d</fix>
</trkpt>
<trkpt lat="40.0713749" lon="-105.229789">
  <ele>1583.0</ele>
  <time>2026-08-28T17:54:07Z</time>
  <course>0.0</course>
  <speed>0.0</speed>
  <fix>3d</fix>
</trkpt>
<trkpt lat="40.0713749" lon="-105.229789">
  <ele>1583.0</ele>
  <time>2026-08-28T17:54:07Z</time>
  <course>246.19</course>
  <speed>0.0</speed>
  <fix>3d</fix>
</trkpt>
<trkpt lat="40.0713749" lon="-105.229789">
  <ele>1583.0</ele>
  <time>2026-08-28T17:54:07Z</time>
  <course>0.0</course>
  <speed>0.0</speed>
  <fix>3d</fix>
</trkpt>
<trkpt lat="40.0713749" lon="-105.229789">
  <ele>1583.0</ele>
  <time>2026-08-28T17:54:07Z</time>
  <course>246.3</course>
  <speed>0.0</speed>
  <fix>3d</fix>
</trkpt>
<trkpt lat="40.0713749" lon="-105.229789">
  <ele>1583.0</ele>
  <time>2026-08-28T17:54:07Z</time>
  <course>0.0</course>
  <speed>0.0</speed>
  <fix>3d</fix>
</trkpt>
<trkpt lat="40.0713749" lon="-105.229789">
  <ele>1583.0</ele>
  <time>2026-08-28T17:54:07Z</time>
  <course>246.41</course>
  <speed>0.0</speed>
  <fix>3d</fix>
</trkpt>
<trkpt lat="40.0713749" lon="-105.229789">
  <ele>1583.0</ele>
  <time>2026-08-28T17:54:07Z</time>
  <course>0.0</course>
  <speed>0.0</speed>
  <fix>3d</fix>
</trkpt>
<trkpt lat="40.0713749" lon="-105.229789">
  <ele>1583.0</ele>
  <time>2026-08-28T17:54:07Z</time>
  <course>246.51</course>
  <speed>0.0</speed>
  <fix>3d</fix>
</trkpt>
<trkpt lat="40.0713749" lon="-105.229789">
  <ele>1583.0</ele>
  <time>2026-08-28T17:54:07Z</time>
  <course>0.0</course>
  <speed>0.0</speed>
  <fix>3d</fix>
</trkpt>
<trkpt lat="40.0713749" lon="-105.229789">
  <ele>1583.0</ele>
  <time>2026-08-28T17:54:07Z</time>
  <course>246.6</course>
  <speed>0.0</speed>
  <fix>3d</fix>
</trkpt>
<trkpt lat="40.0713749" lon="-105.229789">
  <ele>1583.0</ele>
  <time>2026-08-28T17:54:07Z</time>
  <course>0.0</course>
  <speed>0.0</speed>
  <fix>3d</fix>
</trkpt>
<trkpt lat="40.0713749" lon="-105.229789">
  <ele>1583.0</ele>
  <time>2026-08-28T17:54:07Z</time>
  <course>246.7</course>
  <speed>0.0</speed>
  <fix>3d</fix>
</trkpt>
<trkpt lat="40.0713749" lon="-105.229789">
  <ele>1583.0</ele>
  <time>2026-08-28T17:54:07Z</time>
  <course>0.0</course>
  <speed>0.0</speed>
  <fix>3d</fix>
</trkpt>
<trkpt lat="40.0713749" lon="-105.229789">
  <ele>1583.0</ele>
  <time>2026-08-28T17:54:07Z</time>
  <course>246.78</course>
  <speed>0.0</speed>
  <fix>3d</fix>
</trkpt>
<trkpt lat="40.0713749" lon="-105.229789">
  <ele>1583.0</ele>
  <time>2026-08-28T17:54:07Z</time>
  <course>0.0</course>
  <speed>0.0</speed>
  <fix>3d</fix>
</trkpt>
<trkpt lat="40.0713749" lon="-105.229789">
  <ele>1583.0</ele>
  <time>2026-08-28T17:54:07Z</time>
  <course>246.87</course>
  <speed>0.0</speed>
  <fix>3d</fix>
</trkpt>
<trkpt lat="40.0713749" lon="-105.229789">
  <ele>1583.0</ele>
  <time>2026-08-28T17:54:07Z</time>
  <course>0.0</course>
  <speed>0.0</speed>
  <fix>3d</fix>
</trkpt>
<trkpt lat="40.0713749" lon="-105.229789">
  <ele>1583.0</ele>
  <time>2026-08-28T17:54:07Z</time>
  <course>246.95</course>
  <speed>0.0</speed>
  <fix>3d</fix>
</trkpt>
<trkpt lat="40.0713749" lon="-105.229789">
  <ele>1583.0</ele>
  <time>2026-08-28T17:54:07Z</time>
  <course>0.0</course>
  <speed>0.0</speed>
  <fix>3d</fix>
</trkpt>
<trkpt lat="40.0713749" lon="-105.229789">
  <ele>1583.0</ele>
  <time>2026-08-28T17:54:07Z</time>
  <course>247.02</course>
  <speed>0.0</speed>
  <fix>3d</fix>
</trkpt>
<trkpt lat="40.0713749" lon="-105.229789">
  <ele>1583.0</ele>
  <time>2026-08-28T17:54:07Z</time>
  <course>0.0</course>
  <speed>0.0</speed>
  <fix>3d</fix>
</trkpt>
<trkpt lat="40.0713749" lon="-105.229789">
  <ele>1583.0</ele>
  <time>2026-08-28T17:54:07Z</time>
  <course>247.1</course>
  <speed>0.0</speed>
  <fix>3d</fix>
</trkpt>
<trkpt lat="40.0713749" lon="-105.229789">
  <ele>1583.0</ele>
  <time>2026-08-28T17:54:07Z</time>
  <course>0.0</course>
  <speed>0.0</speed>
  <fix>3d</fix>
</trkpt>
<trkpt lat="40.0713749" lon="-105.229789">
  <ele>1583.0</ele>
  <time>2026-08-28T17:54:07Z</time>
  <course>247.17</course>
  <speed>0.0</speed>
  <fix>3d</fix>
</trkpt>
<trkpt lat="40.0713749" lon="-105.229789">
  <ele>1583.0</ele>
  <time>2026-08-28T17:54:07Z</time>
  <course>0.0</course>
  <speed>0.0</speed>
  <fix>3d</fix>
</trkpt>
<trkpt lat="40.0713749" lon="-105.229789">
  <ele>1583.0</ele>
  <time>2026-08-28T17:54:07Z</time>
  <course>247.24</course>
  <speed>0.0</speed>
  <fix>3d</fix>
</trkpt>
<trkpt lat="40.0713749" lon="-105.229789">
  <ele>1583.0</ele>
  <time>2026-08-28T17:54:07Z</time>
  <course>0.0</course>
  <speed>0.0</speed>
  <fix>3d</fix>
</trkpt>
<trkpt lat="40.0713749" lon="-105.229789">
  <ele>1583.0</ele>
  <time>2026-08-28T17:54:07Z</time>
  <course>247.3</course>
  <speed>0.0</speed>
  <fix>3d</fix>
</trkpt>
<trkpt lat="40.0713749" lon="-105.229789">
  <ele>1583.0</ele>
  <time>2026-08-28T17:54:07Z</time>
  <course>0.0</course>
  <speed>0.0</speed>
  <fix>3d</fix>
</trkpt>
<trkpt lat="40.0713749" lon="-105.229789">
  <ele>1583.0</ele>
  <time>2026-08-28T17:54:07Z</time>
  <course>247.36</course>
  <speed>0.0</speed>
  <fix>3d</fix>
</trkpt>
<trkpt lat="40.0713749" lon="-105.229789">
  <ele>1583.0</ele>
  <time>2026-08-28T17:54:07Z</time>
  <course>0.0</course>
  <speed>0.0</speed>
  <fix>3d</fix>
</trkpt>
<trkpt lat="40.0713749" lon="-105.229789">
  <ele>1583.0</ele>
  <time>2026-08-28T17:54:07Z</time>
  <course>247.42</course>
  <speed>0.0</speed>
  <fix>3d</fix>
</trkpt>
<trkpt lat="40.0713749" lon="-105.229789">
  <ele>1583.0</ele>
  <time>2026-08-28T17:54:07Z</time>
  <course>0.0</course>
  <speed>0.0</speed>
  <fix>3d</fix>
</trkpt>
<trkpt lat="40.0713749" lon="-105.229789">
  <ele>1583.0</ele>
  <time>2026-08-28T17:54:07Z</time>
  <course>247.47</course>
  <speed>0.0</speed>
  <fix>3d</fix>
</trkpt>
<trkpt lat="40.0713749" lon="-105.229789">
  <ele>1583.0</ele>
  <time>2026-08-28T17:54:07Z</time>
  <course>0.0</course>
  <speed>0.0</speed>
  <fix>3d</fix>
</trkpt>
<trkpt lat="40.0713749" lon="-105.229789">
  <ele>1583.0</ele>
  <time>2026-08-28T17:54:07Z</time>
  <course>247.53</course>
  <speed>0.0</speed>
  <fix>3d</fix>
</trkpt>
<trkpt lat="40.0713749" lon="-105.229789">
  <ele>1583.0</ele>
  <time>2026-08-28T17:54:07Z</time>
  <course>0.0</course>
  <speed>0.0</speed>
  <fix>3d</fix>
</trkpt>
<trkpt lat="40.0713749" lon="-105.229789">
  <ele>1583.0</ele>
  <time>2026-08-28T17:54:07Z</time>
  <course>247.58</course>
  <speed>0.0</speed>
  <fix>3d</fix>
</trkpt>
<trkpt lat="40.0713749" lon="-105.229789">
  <ele>1583.0</ele>
  <time>2026-08-28T17:54:07Z</time>
  <course>0.0</course>
  <speed>0.0</speed>
  <fix>3d</fix>
</trkpt>
<trkpt lat="40.0713749" lon="-105.229789">
  <ele>1583.0</ele>
  <time>2026-08-28T17:54:07Z</time>
  <course>247.63</course>
  <speed>0.0</speed>
  <fix>3d</fix>
</trkpt>
<trkpt lat="40.0713749" lon="-105.229789">
  <ele>1583.0</ele>
  <time>2026-08-28T17:54:07Z</time>
  <course>0.0</course>
  <speed>0.0</speed>
  <fix>3d</fix>
</trkpt>
<trkpt lat="40.0713749" lon="-105.229789">
  <ele>1583.0</ele>
  <time>2026-08-28T17:54:07Z</time>
  <course>247.67</course>
  <speed>0.0</speed>
  <fix>3d</fix>
</trkpt>
<trkpt lat="40.0713749" lon="-105.229789">
  <ele>1583.0</ele>
  <time>2026-08-28T17:54:07Z</time>
  <course>0.0</course>
  <speed>0.0</speed>
  <fix>3d</fix>
</trkpt>
<trkpt lat="40.0713749" lon="-105.229789">
  <ele>1583.0</ele>
  <time>2026-08-28T17:54:07Z</time>
  <course>247.72</course>
  <speed>0.0</speed>
  <fix>3d</fix>
</trkpt>
<trkpt lat="40.0713749" lon="-105.229789">
  <ele>1583.0</ele>
  <time>2026-08-28T17:54:07Z</time>
  <course>0.0</course>
  <speed>0.0</speed>
  <fix>3d</fix>
</trkpt>
<trkpt lat="40.0713749" lon="-105.229789">
  <ele>1583.0</ele>
  <time>2026-08-28T17:54:07Z</time>
  <course>247.76</course>
  <speed>0.0</speed>
  <fix>3d</fix>
</trkpt>
<trkpt lat="40.0713749" lon="-105.229789">
  <ele>1583.0</ele>
  <time>2026-08-28T17:54:07Z</time>
  <course>0.0</course>
  <speed>0.0</speed>
  <fix>3d</fix>
</trkpt>
<trkpt lat="40.0713749" lon="-105.229789">
  <ele>1583.0</ele>
  <time>2026-08-28T17:54:07Z</time>
  <course>247.8</course>
  <speed>0.0</speed>
  <fix>3d</fix>
</trkpt>
<trkpt lat="40.0713749" lon="-105.229789">
  <ele>1583.0</ele>
  <time>2026-08-28T17:54:07Z</time>
  <course>0.0</course>
  <speed>0.0</speed>
  <fix>3d</fix>
</trkpt>
<trkpt lat="40.0713749" lon="-105.229789">
  <ele>1583.0</ele>
  <time>2026-08-28T17:54:07Z</time>
  <course>247.83</course>
  <speed>0.0</speed>
  <fix>3d</fix>
</trkpt>
<trkpt lat="40.0713749" lon="-105.229789">
  <ele>1583.0</ele>
  <time>2026-08-28T17:54:07Z</time>
  <course>0.0</course>
  <speed>0.0</speed>
  <fix>3d</fix>
</trkpt>
<trkpt lat="40.0713749" lon="-105.229789">
  <ele>1583.0</ele>
  <time>2026-08-28T17:54:07Z</time>
  <course>247.87</course>
  <speed>0.0</speed>
  <fix>3d</fix>
</trkpt>
<trkpt lat="40.0713749" lon="-105.229789">
  <ele>1583.0</ele>
  <time>2026-08-28T17:54:07Z</time>
  <course>0.0</course>
  <speed>0.0</speed>
  <fix>3d</fix>
</trkpt>
<trkpt lat="40.0713749" lon="-105.229789">
  <ele>1583.0</ele>
  <time>2026-08-28T17:54:07Z</time>
  <course>247.9</course>
  <speed>0.0</speed>
  <fix>3d</fix>
</trkpt>
<trkpt lat="40.0713749" lon="-105.229789">
  <ele>1583.0</ele>
  <time>2026-08-28T17:54:07Z</time>
  <course>0.0</course>
  <speed>0.0</speed>
  <fix>3d</fix>
</trkpt>
<trkpt lat="40.0713749" lon="-105.229789">
  <ele>1583.0</ele>
  <time>2026-08-28T17:54:07Z</time>
  <course>247.94</course>
  <speed>0.0</speed>
  <fix>3d</fix>
</trkpt>
<trkpt lat="40.0713749" lon="-105.229789">
  <ele>1583.0</ele>
  <time>2026-08-28T17:54:07Z</time>
  <course>0.0</course>
  <speed>0.0</speed>
  <fix>3d</fix>
</trkpt>
<trkpt lat="40.0713749" lon="-105.229789">
  <ele>1583.0</ele>
  <time>2026-08-28T17:54:07Z</time>
  <course>247.97</course>
  <speed>0.0</speed>
  <fix>3d</fix>
</trkpt>
<trkpt lat="40.0713749" lon="-105.229789">
  <ele>1583.0</ele>
  <time>2026-08-28T17:54:07Z</time>
  <course>0.0</course>
  <speed>0.0</speed>
  <fix>3d</fix>
</trkpt>
<trkpt lat="40.0713749" lon="-105.229789">
  <ele>1583.0</ele>
  <time>2026-08-28T17:54:07Z</time>
  <course>248.0</course>
  <speed>0.0</speed>
  <fix>3d</fix>
</trkpt>
<trkpt lat="40.0713749" lon="-105.229789">
  <ele>1583.0</ele>
  <time>2026-08-28T17:54:07Z</time>
  <course>0.0</course>
  <speed>0.0</speed>
  <fix>3d</fix>
</trkpt>
<trkpt lat="40.0713749" lon="-105.229789">
  <ele>1583.0</ele>
  <time>2026-08-28T17:54:07Z</time>
  <course>248.02</course>
  <speed>0.0</speed>
  <fix>3d</fix>
</trkpt>
<trkpt lat="40.0713749" lon="-105.229789">
  <ele>1583.0</ele>
  <time>2026-08-28T17:54:07Z</time>
  <course>0.0</course>
  <speed>0.0</speed>
  <fix>3d</fix>
</trkpt>
<trkpt lat="40.0713749" lon="-105.229789">
  <ele>1583.0</ele>
  <time>2026-08-28T17:54:07Z</time>
  <course>248.05</course>
  <speed>0.0</speed>
  <fix>3d</fix>
</trkpt>
<trkpt lat="40.0713749" lon="-105.229789">
  <ele>1583.0</ele>
  <time>2026-08-28T17:54:07Z</time>
  <course>0.0</course>
  <speed>0.0</speed>
  <fix>3d</fix>
</trkpt>
<trkpt lat="40.0713749" lon="-105.229789">
  <ele>1583.0</ele>
  <time>2026-08-28T17:54:07Z</time>
  <course>248.08</course>
  <speed>0.0</speed>
  <fix>3d</fix>
</trkpt>
<trkpt lat="40.0713749" lon="-105.229789">
  <ele>1583.0</ele>
  <time>2026-08-28T17:54:07Z</time>
  <course>0.0</course>
  <speed>0.0</speed>
  <fix>3d</fix>
</trkpt>
<trkpt lat="40.0713749" lon="-105.229789">
  <ele>1583.0</ele>
  <time>2026-08-28T17:54:07Z</time>
  <course>248.1</course>
  <speed>0.0</speed>
  <fix>3d</fix>
</trkpt>
<trkpt lat="40.0713749" lon="-105.229789">
  <ele>1583.0</ele>
  <time>2026-08-28T17:54:07Z</time>
  <course>0.0</course>
  <speed>0.0</speed>
  <fix>3d</fix>
</trkpt>
<trkpt lat="40.0713749" lon="-105.229789">
  <ele>1583.0</ele>
  <time>2026-08-28T17:54:07Z</time>
  <course>248.12</course>
  <speed>0.0</speed>
  <fix>3d</fix>
</trkpt>
<trkpt lat="40.0713749" lon="-105.229789">
  <ele>1583.0</ele>
  <time>2026-08-28T17:54:07Z</time>
  <course>0.0</course>
  <speed>0.0</speed>
  <fix>3d</fix>
</trkpt>
<trkpt lat="40.0713749" lon="-105.229789">
  <ele>1583.0</ele>
  <time>2026-08-28T17:54:07Z</time>
  <course>248.14</course>
  <speed>0.0</speed>
  <fix>3d</fix>
</trkpt>
<trkpt lat="40.0713749" lon="-105.229789">
  <ele>1583.0</ele>
  <time>2026-08-28T17:54:07Z</time>
  <course>0.0</course>
  <speed>0.0</speed>
  <fix>3d</fix>
</trkpt>
<trkpt lat="40.0713749" lon="-105.229789">
  <ele>1583.0</ele>
  <time>2026-08-28T17:54:07Z</time>
  <course>248.16</course>
  <speed>0.0</speed>
  <fix>3d</fix>
</trkpt>
<trkpt lat="40.0713749" lon="-105.229789">
  <ele>1583.0</ele>
  <time>2026-08-28T17:54:07Z</time>
  <course>0.0</course>
  <speed>0.0</speed>
  <fix>3d</fix>
</trkpt>
<trkpt lat="40.0713749" lon="-105.229789">
  <ele>1583.0</ele>
  <time>2026-08-28T17:54:07Z</time>
  <course>248.18</course>
  <speed>0.0</speed>
  <fix>3d</fix>
</trkpt>
<trkpt lat="40.0713749" lon="-105.229789">
  <ele>1583.0</ele>
  <time>2026-08-28T17:54:07Z</time>
  <course>0.0</course>
  <speed>0.0</speed>
  <fix>3d</fix>
</trkpt>
<trkpt lat="40.0713749" lon="-105.229789">
  <ele>1583.0</ele>
  <time>2026-08-28T17:54:07Z</time>
  <course>248.2</course>
  <speed>0.0</speed>
  <fix>3d</fix>
</trkpt>
<trkpt lat="40.0713749" lon="-105.229789">
  <ele>1583.0</ele>
  <time>2026-08-28T17:54:07Z</time>
  <course>0.0</course>
  <speed>0.0</speed>
  <fix>3d</fix>
</trkpt>
<trkpt lat="40.0713749" lon="-105.229789">
  <ele>1583.0</ele>
  <time>2026-08-28T17:54:07Z</time>
  <course>248.22</course>
  <speed>0.0</speed>
  <fix>3d</fix>
</trkpt>
<trkpt lat="40.0713749" lon="-105.229789">
  <ele>1583.0</ele>
  <time>2026-08-28T17:54:07Z</time>
  <course>0.0</course>
  <speed>0.0</speed>
  <fix>3d</fix>
</trkpt>
<trkpt lat="40.0713749" lon="-105.229789">
  <ele>1583.0</ele>
  <time>2026-08-28T17:54:07Z</time>
  <course>248.23</course>
  <speed>0.0</speed>
  <fix>3d</fix>
</trkpt>
<trkpt lat="40.0713749" lon="-105.229789">
  <ele>1583.0</ele>
  <time>2026-08-28T17:54:07Z</time>
  <course>0.0</course>
  <speed>0.0</speed>
  <fix>3d</fix>
</trkpt>
<trkpt lat="40.0713749" lon="-105.229789">
  <ele>1583.0</ele>
  <time>2026-08-28T17:54:07Z</time>
  <course>248.25</course>
  <speed>0.0</speed>
  <fix>3d</fix>
</trkpt>
<trkpt lat="40.0713749" lon="-105.229789">
  <ele>1583.0</ele>
  <time>2026-08-28T17:54:07Z</time>
  <course>0.0</course>
  <speed>0.0</speed>
  <fix>3d</fix>
</trkpt>
<trkpt lat="40.0713749" lon="-105.229789">
  <ele>1583.0</ele>
  <time>2026-08-28T17:54:07Z</time>
  <course>248.26</course>
  <speed>0.0</speed>
  <fix>3d</fix>
</trkpt>
<trkpt lat="40.0713749" lon="-105.229789">
  <ele>1583.0</ele>
  <time>2026-08-28T17:54:07Z</time>
  <course>0.0</course>
  <speed>0.0</speed>
  <fix>3d</fix>
</trkpt>
<trkpt lat="40.0713749" lon="-105.229789">
  <ele>1583.0</ele>
  <time>2026-08-28T17:54:07Z</time>
  <course>248.28</course>
  <speed>0.0</speed>
  <fix>3d</fix>
</trkpt>
<trkpt lat="40.0713749" lon="-105.229789">
  <ele>1583.0</ele>
  <time>2026-08-28T17:54:07Z</time>
  <course>0.0</course>
  <speed>0.0</speed>
  <fix>3d</fix>
</trkpt>
<trkpt lat="40.0713749" lon="-105.229789">
  <ele>1583.0</ele>
  <time>2026-08-28T17:54:07Z</time>
  <course>248.29</course>
  <speed>0.0</speed>
  <fix>3d</fix>
</trkpt>
<trkpt lat="40.0713749" lon="-105.229789">
  <ele>1583.0</ele>
  <time>2026-08-28T17:54:07Z</time>
  <course>0.0</course>
  <speed>0.0</speed>
  <fix>3d</fix>
</trkpt>
<trkpt lat="40.0713749" lon="-105.229789">
  <ele>1583.0</ele>
  <time>2026-08-28T17:54:07Z</time>
  <course>248.3</course>
  <speed>0.0</speed>
  <fix>3d</fix>
</trkpt>
<trkpt lat="40.0713749" lon="-105.229789">
  <ele>1583.0</ele>
  <time>2026-08-28T17:54:07Z</time>
  <course>0.0</course>
  <speed>0.0</speed>
  <fix>3d</fix>
</trkpt>
<trkpt lat="40.0713749" lon="-105.229789">
  <ele>1583.0</ele>
  <time>2026-08-28T17:54:07Z</time>
  <course>248.31</course>
  <speed>0.0</speed>
  <fix>3d</fix>
</trkpt>
<trkpt lat="40.0713749" lon="-105.229789">
  <ele>1583.0</ele>
  <time>2026-08-28T17:54:07Z</time>
  <course>0.0</course>
  <speed>0.0</speed>
  <fix>3d</fix>
</trkpt>
<trkpt lat="40.0713749" lon="-105.229789">
  <ele>1583.0</ele>
  <time>2026-08-28T17:54:07Z</time>
  <course>248.32</course>
  <speed>0.0</speed>
  <fix>3d</fix>
</trkpt>
<trkpt lat="40.0713749" lon="-105.229789">
  <ele>1583.0</ele>
  <time>2026-08-28T17:54:07Z</time>
  <course>0.0</course>
  <speed>0.0</speed>
  <fix>3d</fix>
</trkpt>
<trkpt lat="40.0713749" lon="-105.229789">
  <ele>1583.0</ele>
  <time>2026-08-28T17:54:07Z</time>
  <course>248.33</course>
  <speed>0.0</speed>
  <fix>3d</fix>
</trkpt>
<trkpt lat="40.0713749" lon="-105.229789">
  <ele>1583.0</ele>
  <time>2026-08-28T17:54:07Z</time>
  <course>0.0</course>
  <speed>0.0</speed>
  <fix>3d</fix>
</trkpt>
<trkpt lat="40.0713749" lon="-105.229789">
  <ele>1583.0</ele>
  <time>2026-08-28T17:54:07Z</time>
  <course>248.34</course>
  <speed>0.0</speed>
  <fix>3d</fix>
</trkpt>
<trkpt lat="40.0713749" lon="-105.229789">
  <ele>1583.0</ele>
  <time>2026-08-28T17:54:07Z</time>
  <course>0.0</course>
  <speed>0.0</speed>
  <fix>3d</fix>
</trkpt>
<trkpt lat="40.0713749" lon="-105.229789">
  <ele>1583.0</ele>
  <time>2026-08-28T17:54:07Z</time>
  <course>248.35</course>
  <speed>0.0</speed>
  <fix>3d</fix>
</trkpt>
<trkpt lat="40.0713749" lon="-105.229789">
  <ele>1583.0</ele>
  <time>2026-08-28T17:54:07Z</time>
  <course>0.0</course>
  <speed>0.0</speed>
  <fix>3d</fix>
</trkpt>
<trkpt lat="40.0713749" lon="-105.229789">
  <ele>1583.0</ele>
  <time>2026-08-28T17:54:07Z</time>
  <course>248.35</course>
  <speed>0.0</speed>
  <fix>3d</fix>
</trkpt>
<trkpt lat="40.0713749" lon="-105.229789">
  <ele>1583.0</ele>
  <time>2026-08-28T17:54:07Z</time>
  <course>0.0</course>
  <speed>0.0</speed>
  <fix>3d</fix>
</trkpt>
<trkpt lat="40.0713749" lon="-105.229789">
  <ele>1583.0</ele>
  <time>2026-08-28T17:54:07Z</time>
  <course>248.36</course>
  <speed>0.0</speed>
  <fix>3d</fix>
</trkpt>
<trkpt lat="40.0713749" lon="-105.229789">
  <ele>1583.0</ele>
  <time>2026-08-28T17:54:07Z</time>
  <course>0.0</course>
  <speed>0.0</speed>
  <fix>3d</fix>
</trkpt>
<trkpt lat="40.0713749" lon="-105.229789">
  <ele>1583.0</ele>
  <time>2026-08-28T17:54:07Z</time>
  <course>248.37</course>
  <speed>0.0</speed>
  <fix>3d</fix>
</trkpt>
<trkpt lat="40.0713749" lon="-105.229789">
  <ele>1583.0</ele>
  <time>2026-08-28T17:54:07Z</time>
  <course>0.0</course>
  <speed>0.0</speed>
  <fix>3d</fix>
</trkpt>
<trkpt lat="40.0713749" lon="-105.229789">
  <ele>1583.0</ele>
  <time>2026-08-28T17:54:07Z</time>
  <course>248.37</course>
  <speed>0.0</speed>
  <fix>3d</fix>
</trkpt>
<trkpt lat="40.0713749" lon="-105.229789">
  <ele>1583.0</ele>
  <time>2026-08-28T17:54:07Z</time>
  <course>0.0</course>
  <speed>0.0</speed>
  <fix>3d</fix>
</trkpt>
<trkpt lat="40.0713749" lon="-105.229789">
  <ele>1583.0</ele>
  <time>2026-08-28T17:54:07Z</time>
  <course>248.38</course>
  <speed>0.0</speed>
  <fix>3d</fix>
</trkpt>
<trkpt lat="40.0713749" lon="-105.229789">
  <ele>1583.0</ele>
  <time>2026-08-28T17:54:07Z</time>
  <course>0.0</course>
  <speed>0.0</speed>
  <fix>3d</fix>
</trkpt>
<trkpt lat="40.0713749" lon="-105.229789">
  <ele>1583.0</ele>
  <time>2026-08-28T17:54:07Z</time>
  <course>248.38</course>
  <speed>0.0</speed>
  <fix>3d</fix>
</trkpt>
<trkpt lat="40.0713749" lon="-105.229789">
  <ele>1583.0</ele>
  <time>2026-08-28T17:54:07Z</time>
  <course>0.0</course>
  <speed>0.0</speed>
  <fix>3d</fix>
</trkpt>
<trkpt lat="40.0713749" lon="-105.229789">
  <ele>1583.0</ele>
  <time>2026-08-28T17:54:07Z</time>
  <course>248.39</course>
  <speed>0.0</speed>
  <fix>3d</fix>
</trkpt>
<trkpt lat="40.0713749" lon="-105.229789">
  <ele>1583.0</ele>
  <time>2026-08-28T17:54:07Z</time>
  <course>0.0</course>
  <speed>0.0</speed>
  <fix>3d</fix>
</trkpt>
<trkpt lat="40.0713749" lon="-105.229789">
  <ele>1583.0</ele>
  <time>2026-08-28T17:54:07Z</time>
  <course>248.39</course>
  <speed>0.0</speed>
  <fix>3d</fix>
</trkpt>
<trkpt lat="40.0713749" lon="-105.229789">
  <ele>1583.0</ele>
  <time>2026-08-28T17:54:07Z</time>
  <course>0.0</course>
  <speed>0.0</speed>
  <fix>3d</fix>
</trkpt>
<trkpt lat="40.0713749" lon="-105.229789">
  <ele>1583.0</ele>
  <time>2026-08-28T17:54:07Z</time>
  <course>248.4</course>
  <speed>0.0</speed>
  <fix>3d</fix>
</trkpt>
<trkpt lat="40.0713749" lon="-105.229789">
  <ele>1583.0</ele>
  <time>2026-08-28T17:54:07Z</time>
  <course>0.0</course>
  <speed>0.0</speed>
  <fix>3d</fix>
</trkpt>
<trkpt lat="40.0713749" lon="-105.229789">
  <ele>1583.0</ele>
  <time>2026-08-28T17:54:07Z</time>
  <course>248.4</course>
  <speed>0.0</speed>
  <fix>3d</fix>
</trkpt>
<trkpt lat="40.0713749" lon="-105.229789">
  <ele>1583.0</ele>
  <time>2026-08-28T17:54:07Z</time>
  <course>0.0</course>
  <speed>0.0</speed>
  <fix>3d</fix>
</trkpt>
<trkpt lat="40.0713749" lon="-105.229789">
  <ele>1583.0</ele>
  <time>2026-08-28T17:54:07Z</time>
  <course>248.4</course>
  <speed>0.0</speed>
  <fix>3d</fix>
</trkpt>
<trkpt lat="40.0713749" lon="-105.229789">
  <ele>1583.0</ele>
  <time>2026-08-28T17:54:07Z</time>
  <course>0.0</course>
  <speed>0.0</speed>
  <fix>3d</fix>
</trkpt>
<trkpt lat="40.0713749" lon="-105.229789">
  <ele>1583.0</ele>
  <time>2026-08-28T17:54:07Z</time>
  <course>248.4</course>
  <speed>0.0</speed>
  <fix>3d</fix>
</trkpt>
<trkpt lat="40.0713749" lon="-105.229789">
  <ele>1583.0</ele>
  <time>2026-08-28T17:54:07Z</time>
  <course>0.0</course>
  <speed>0.0</speed>
  <fix>3d</fix>
</trkpt>
<trkpt lat="40.0713749" lon="-105.229789">
  <ele>1583.0</ele>
  <time>2026-08-28T17:54:07Z</time>
  <course>248.41</course>
  <speed>0.0</speed>
  <fix>3d</fix>
</trkpt>
<trkpt lat="40.0713749" lon="-105.229789">
  <ele>1583.0</ele>
  <time>2026-08-28T17:54:07Z</time>
  <course>0.0</course>
  <speed>0.0</speed>
  <fix>3d</fix>
</trkpt>
<trkpt lat="40.0713749" lon="-105.229789">
  <ele>1583.0</ele>
  <time>2026-08-28T17:54:07Z</time>
  <course>248.41</course>
  <speed>0.0</speed>
  <fix>3d</fix>
</trkpt>
<trkpt lat="40.0713749" lon="-105.229789">
  <ele>1583.0</ele>
  <time>2026-08-28T17:54:07Z</time>
  <course>0.0</course>
  <speed>0.0</speed>
  <fix>3d</fix>
</trkpt>
<trkpt lat="40.0713749" lon="-105.229789">
  <ele>1583.0</ele>
  <time>2026-08-28T17:54:07Z</time>
  <course>248.41</course>
  <speed>0.0</speed>
  <fix>3d</fix>
</trkpt>
<trkpt lat="40.0713749" lon="-105.229789">
  <ele>1583.0</ele>
  <time>2026-08-28T17:54:07Z</time>
  <course>0.0</course>
  <speed>0.0</speed>
  <fix>3d</fix>
</trkpt>
<trkpt lat="40.0713749" lon="-105.229789">
  <ele>1583.0</ele>
  <time>2026-08-28T17:54:07Z</time>
  <course>248.41</course>
  <speed>0.0</speed>
  <fix>3d</fix>
</trkpt>
<trkpt lat="40.0713749" lon="-105.229789">
  <ele>1583.0</ele>
  <time>2026-08-28T17:54:07Z</time>
  <course>0.0</course>
  <speed>0.0</speed>
  <fix>3d</fix>
</trkpt>
<trkpt lat="40.0713749" lon="-105.229789">
  <ele>1583.0</ele>
  <time>2026-08-28T17:54:07Z</time>
  <course>248.41</course>
  <speed>0.0</speed>
  <fix>3d</fix>
</trkpt>
<trkpt lat="40.0713749" lon="-105.229789">
  <ele>1583.0</ele>
  <time>2026-08-28T17:54:07Z</time>
  <course>0.0</course>
  <speed>0.0</speed>
  <fix>3d</fix>
</trkpt>
<trkpt lat="40.0713749" lon="-105.229789">
  <ele>1583.0</ele>
  <time>2026-08-28T17:54:07Z</time>
  <course>248.41</course>
  <speed>0.0</speed>
  <fix>3d</fix>
</trkpt>
<trkpt lat="40.0713749" lon="-105.229789">
  <ele>1583.0</ele>
  <time>2026-08-28T17:54:07Z</time>
  <course>0.0</course>
  <speed>0.0</speed>
  <fix>3d</fix>
</trkpt>
<trkpt lat="40.0713749" lon="-105.229789">
  <ele>1583.0</ele>
  <time>2026-08-28T17:54:07Z</time>
  <course>248.41</course>
  <speed>0.0</speed>
  <fix>3d</fix>
</trkpt>
<trkpt lat="40.0713749" lon="-105.229789">
  <ele>1583.0</ele>
  <time>2026-08-28T17:54:07Z</time>
  <course>0.0</course>
  <speed>0.0</speed>
  <fix>3d</fix>
</trkpt>
<trkpt lat="40.0713749" lon="-105.229789">
  <ele>1583.0</ele>
  <time>2026-08-28T17:54:07Z</time>
  <course>248.41</course>
  <speed>0.0</speed>
  <fix>3d</fix>
</trkpt>
<trkpt lat="40.0713749" lon="-105.229789">
  <ele>1583.0</ele>
  <time>2026-08-28T17:54:07Z</time>
  <course>0.0</course>
  <speed>0.0</speed>
  <fix>3d</fix>
</trkpt>
<trkpt lat="40.0713749" lon="-105.229789">
  <ele>1583.0</ele>
  <time>2026-08-28T17:54:07Z</time>
  <course>248.41</course>
  <speed>0.0</speed>
  <fix>3d</fix>
</trkpt>
<trkpt lat="40.0713749" lon="-105.229789">
  <ele>1583.0</ele>
  <time>2026-08-28T17:54:07Z</time>
  <course>0.0</course>
  <speed>0.0</speed>
  <fix>3d</fix>
</trkpt>
<trkpt lat="40.0713749" lon="-105.229789">
  <ele>1583.0</ele>
  <time>2026-08-28T17:54:07Z</time>
  <course>248.41</course>
  <speed>0.0</speed>
  <fix>3d</fix>
</trkpt>
<trkpt lat="40.0713749" lon="-105.229789">
  <ele>1583.0</ele>
  <time>2026-08-28T17:54:07Z</time>
  <course>0.0</course>
  <speed>0.0</speed>
  <fix>3d</fix>
</trkpt>
<trkpt lat="40.0713749" lon="-105.229789">
  <ele>1583.0</ele>
  <time>2026-08-28T17:54:07Z</time>
  <course>248.41</course>
  <speed>0.0</speed>
  <fix>3d</fix>
</trkpt>
<trkpt lat="40.0713749" lon="-105.229789">
  <ele>1583.0</ele>
  <time>2026-08-28T17:54:07Z</time>
  <course>0.0</course>
  <speed>0.0</speed>
  <fix>3d</fix>
</trkpt>
<trkpt lat="40.0713749" lon="-105.229789">
  <ele>1583.0</ele>
  <time>2026-08-28T17:54:07Z</time>
  <course>248.41</course>
  <speed>0.0</speed>
  <fix>3d</fix>
</trkpt>
<trkpt lat="40.0713749" lon="-105.229789">
  <ele>1583.0</ele>
  <time>2026-08-28T17:54:07Z</time>
  <course>0.0</course>
  <speed>0.0</speed>
  <fix>3d</fix>
</trkpt>
<trkpt lat="40.0713749" lon="-105.229789">
  <ele>1583.0</ele>
  <time>2026-08-28T17:54:07Z</time>
  <course>248.41</course>
  <speed>0.0</speed>
  <fix>3d</fix>
</trkpt>
<trkpt lat="40.0713749" lon="-105.229789">
  <ele>1583.0</ele>
  <time>2026-08-28T17:54:07Z</time>
  <course>0.0</course>
  <speed>0.0</speed>
  <fix>3d</fix>
</trkpt>
<trkpt lat="40.0713749" lon="-105.229789">
  <ele>1583.0</ele>
  <time>2026-08-28T17:54:07Z</time>
  <course>248.41</course>
  <speed>0.0</speed>
  <fix>3d</fix>
</trkpt>
<trkpt lat="40.0713749" lon="-105.229789">
  <ele>1583.0</ele>
  <time>2026-08-28T17:54:07Z</time>
  <course>0.0</course>
  <speed>0.0</speed>
  <fix>3d</fix>
</trkpt>
<trkpt lat="40.0713749" lon="-105.229789">
  <ele>1583.0</ele>
  <time>2026-08-28T17:54:07Z</time>
  <course>248.41</course>
  <speed>0.0</speed>
  <fix>3d</fix>
</trkpt>
<trkpt lat="40.0713749" lon="-105.229789">
  <ele>1583.0</ele>
  <time>2026-08-28T17:54:07Z</time>
  <course>0.0</course>
  <speed>0.0</speed>
  <fix>3d</fix>
</trkpt>
<trkpt lat="40.0713749" lon="-105.229789">
  <ele>1583.0</ele>
  <time>2026-08-28T17:54:07Z</time>
  <course>248.41</course>
  <speed>0.0</speed>
  <fix>3d</fix>
</trkpt>
<trkpt lat="40.0713749" lon="-105.229789">
  <ele>1583.0</ele>
  <time>2026-08-28T17:54:07Z</time>
  <course>0.0</course>
  <speed>0.0</speed>
  <fix>3d</fix>
</trkpt>
<trkpt lat="40.0713749" lon="-105.229789">
  <ele>1583.0</ele>
  <time>2026-08-28T17:54:07Z</time>
  <course>248.4</course>
  <speed>0.0</speed>
  <fix>3d</fix>
</trkpt>
<trkpt lat="40.0713749" lon="-105.229789">
  <ele>1583.0</ele>
  <time>2026-08-28T17:54:07Z</time>
  <course>0.0</course>
  <speed>0.0</speed>
  <fix>3d</fix>
</trkpt>
<trkpt lat="40.0713749" lon="-105.229789">
  <ele>1583.0</ele>
  <time>2026-08-28T17:54:07Z</time>
  <course>248.4</course>
  <speed>0.01</speed>
  <fix>3d</fix>
</trkpt>
<trkpt lat="40.0713749" lon="-105.229789">
  <ele>1583.0</ele>
  <time>2026-08-28T17:54:07Z</time>
  <course>0.0</course>
  <speed>0.0</speed>
  <fix>3d</fix>
</trkpt>
<trkpt lat="40.0713749" lon="-105.229789">
  <ele>1583.0</ele>
  <time>2026-08-28T17:54:07Z</time>
  <course>248.4</course>
  <speed>0.01</speed>
  <fix>3d</fix>
</trkpt>
<trkpt lat="40.0713749" lon="-105.229789">
  <ele>1583.0</ele>
  <time>2026-08-28T17:54:07Z</time>
  <course>0.0</course>
  <speed>0.0</speed>
  <fix>3d</fix>
</trkpt>
<trkpt lat="40.0713749" lon="-105.229789">
  <ele>1583.0</ele>
  <time>2026-08-28T17:54:07Z</time>
  <course>248.4</course>
  <speed>0.01</speed>
  <fix>3d</fix>
</trkpt>
<trkpt lat="40.0713749" lon="-105.229789">
  <ele>1583.0</ele>
  <time>2026-08-28T17:54:07Z</time>
  <course>0.0</course>
  <speed>0.0</speed>
  <fix>3d</fix>
</trkpt>
<trkpt lat="40.0713749" lon="-105.229789">
  <ele>1583.0</ele>
  <time>2026-08-28T17:54:07Z</time>
  <course>248.4</course>
  <speed>0.01</speed>
  <fix>3d</fix>
</trkpt>
<trkpt lat="40.0713749" lon="-105.229789">
  <ele>1583.0</ele>
  <time>2026-08-28T17:54:07Z</time>
  <course>0.0</course>
  <speed>0.0</speed>
  <fix>3d</fix>
</trkpt>
<trkpt lat="40.0713749" lon="-105.229789">
  <ele>1583.0</ele>
  <time>2026-08-28T17:54:07Z</time>
  <course>248.39</course>
  <speed>0.01</speed>
  <fix>3d</fix>
</trkpt>
<trkpt lat="40.0713749" lon="-105.229789">
  <ele>1583.0</ele>
  <time>2026-08-28T17:54:07Z</time>
  <course>0.0</course>
  <speed>0.0</speed>
  <fix>3d</fix>
</trkpt>
<trkpt lat="40.0713749" lon="-105.229789">
  <ele>1583.0</ele>
  <time>2026-08-28T17:54:07Z</time>
  <course>248.39</course>
  <speed>0.01</speed>
  <fix>3d</fix>
</trkpt>
<trkpt lat="40.0713749" lon="-105.229789">
  <ele>1583.0</ele>
  <time>2026-08-28T17:54:07Z</time>
  <course>0.0</course>
  <speed>0.0</speed>
  <fix>3d</fix>
</trkpt>
<trkpt lat="40.0713749" lon="-105.229789">
  <ele>1583.0</ele>
  <time>2026-08-28T17:54:07Z</time>
  <course>248.39</course>
  <speed>0.01</speed>
  <fix>3d</fix>
</trkpt>
<trkpt lat="40.0713749" lon="-105.229789">
  <ele>1583.0</ele>
  <time>2026-08-28T17:54:07Z</time>
  <course>0.0</course>
  <speed>0.0</speed>
  <fix>3d</fix>
</trkpt>
<trkpt lat="40.0713749" lon="-105.229789">
  <ele>1583.0</ele>
  <time>2026-08-28T17:54:07Z</time>
  <course>248.38</course>
  <speed>0.01</speed>
  <fix>3d</fix>
</trkpt>
<trkpt lat="40.0713749" lon="-105.229789">
  <ele>1583.0</ele>
  <time>2026-08-28T17:54:07Z</time>
  <course>0.0</course>
  <speed>0.0</speed>
  <fix>3d</fix>
</trkpt>
<trkpt lat="40.0713749" lon="-105.229789">
  <ele>1583.0</ele>
  <time>2026-08-28T17:54:07Z</time>
  <course>248.38</course>
  <speed>0.01</speed>
  <fix>3d</fix>
</trkpt>
<trkpt lat="40.0713749" lon="-105.229789">
  <ele>1583.0</ele>
  <time>2026-08-28T17:54:07Z</time>
  <course>0.0</course>
  <speed>0.0</speed>
  <fix>3d</fix>
</trkpt>
<trkpt lat="40.0713749" lon="-105.229789">
  <ele>1583.0</ele>
  <time>2026-08-28T17:54:07Z</time>
  <course>248.38</course>
  <speed>0.01</speed>
  <fix>3d</fix>
</trkpt>
<trkpt lat="40.0713749" lon="-105.229789">
  <ele>1583.0</ele>
  <time>2026-08-28T17:54:07Z</time>
  <course>0.0</course>
  <speed>0.0</speed>
  <fix>3d</fix>
</trkpt>
<trkpt lat="40.0713749" lon="-105.229789">
  <ele>1583.0</ele>
  <time>2026-08-28T17:54:07Z</time>
  <course>248.37</course>
  <speed>0.01</speed>
  <fix>3d</fix>
</trkpt>
<trkpt lat="40.0713749" lon="-105.229789">
  <ele>1583.0</ele>
  <time>2026-08-28T17:54:07Z</time>
  <course>0.0</course>
  <speed>0.0</speed>
  <fix>3d</fix>
</trkpt>
<trkpt lat="40.0713749" lon="-105.229789">
  <ele>1583.0</ele>
  <time>2026-08-28T17:54:07Z</time>
  <course>248.37</course>
  <speed>0.01</speed>
  <fix>3d</fix>
</trkpt>
<trkpt lat="40.0713749" lon="-105.229789">
  <ele>1583.0</ele>
  <time>2026-08-28T17:54:07Z</time>
  <course>0.0</course>
  <speed>0.0</speed>
  <fix>3d</fix>
</trkpt>
<trkpt lat="40.0713749" lon="-105.229789">
  <ele>1583.0</ele>
  <time>2026-08-28T17:54:07Z</time>
  <course>248.37</course>
  <speed>0.01</speed>
  <fix>3d</fix>
</trkpt>
<trkpt lat="40.0713749" lon="-105.229789">
  <ele>1583.0</ele>
  <time>2026-08-28T17:54:07Z</time>
  <course>0.0</course>
  <speed>0.0</speed>
  <fix>3d</fix>
</trkpt>
<trkpt lat="40.0713749" lon="-105.229789">
  <ele>1583.0</ele>
  <time>2026-08-28T17:54:07Z</time>
  <course>248.36</course>
  <speed>0.01</speed>
  <fix>3d</fix>
</trkpt>
<trkpt lat="40.0713749" lon="-105.229789">
  <ele>1583.0</ele>
  <time>2026-08-28T17:54:07Z</time>
  <course>0.0</course>
  <speed>0.0</speed>
  <fix>3d</fix>
</trkpt>
<trkpt lat="40.0713749" lon="-105.229789">
  <ele>1583.0</ele>
  <time>2026-08-28T17:54:07Z</time>
  <course>248.36</course>
  <speed>0.01</speed>
  <fix>3d</fix>
</trkpt>
<trkpt lat="40.0713749" lon="-105.229789">
  <ele>1583.0</ele>
  <time>2026-08-28T17:54:07Z</time>
  <course>0.0</course>
  <speed>0.0</speed>
  <fix>3d</fix>
</trkpt>
<trkpt lat="40.0713749" lon="-105.229789">
  <ele>1583.0</ele>
  <time>2026-08-28T17:54:07Z</time>
  <course>248.36</course>
  <speed>0.01</speed>
  <fix>3d</fix>
</trkpt>
<trkpt lat="40.0713749" lon="-105.229789">
  <ele>1583.0</ele>
  <time>2026-08-28T17:54:07Z</time>
  <course>0.0</course>
  <speed>0.0</speed>
  <fix>3d</fix>
</trkpt>
<trkpt lat="40.0713749" lon="-105.229789">
  <ele>1583.0</ele>
  <time>2026-08-28T17:54:07Z</time>
  <course>248.35</course>
  <speed>0.01</speed>
  <fix>3d</fix>
</trkpt>
<trkpt lat="40.0713749" lon="-105.229789">
  <ele>1583.0</ele>
  <time>2026-08-28T17:54:07Z</time>
  <course>0.0</course>
  <speed>0.0</speed>
  <fix>3d</fix>
</trkpt>
<trkpt lat="40.0713749" lon="-105.229789">
  <ele>1583.0</ele>
  <time>2026-08-28T17:54:08Z</time>
  <course>248.35</course>
  <speed>0.01</speed>
  <fix>3d</fix>
</trkpt>
<trkpt lat="40.0713749" lon="-105.229789">
  <ele>1583.0</ele>
  <time>2026-08-28T17:54:08Z</time>
  <course>0.0</course>
  <speed>0.0</speed>
  <fix>3d</fix>
</trkpt>
<trkpt lat="40.0713749" lon="-105.229789">
  <ele>1583.0</ele>
  <time>2026-08-28T17:54:08Z</time>
  <course>248.35</course>
  <speed>0.01</speed>
  <fix>3d</fix>
</trkpt>
<trkpt lat="40.0713749" lon="-105.229789">
  <ele>1583.0</ele>
  <time>2026-08-28T17:54:08Z</time>
  <course>0.0</course>
  <speed>0.0</speed>
  <fix>3d</fix>
</trkpt>
<trkpt lat="40.0713749" lon="-105.229789">
  <ele>1583.0</ele>
  <time>2026-08-28T17:54:08Z</time>
  <course>248.34</course>
  <speed>0.01</speed>
  <fix>3d</fix>
</trkpt>
<trkpt lat="40.0713749" lon="-105.229789">
  <ele>1583.0</ele>
  <time>2026-08-28T17:54:08Z</time>
  <course>0.0</course>
  <speed>0.0</speed>
  <fix>3d</fix>
</trkpt>
<trkpt lat="40.0713749" lon="-105.229789">
  <ele>1583.0</ele>
  <time>2026-08-28T17:54:08Z</time>
  <course>248.34</course>
  <speed>0.01</speed>
  <fix>3d</fix>
</trkpt>
<trkpt lat="40.0713749" lon="-105.229789">
  <ele>1583.0</ele>
  <time>2026-08-28T17:54:08Z</time>
  <course>0.0</course>
  <speed>0.0</speed>
  <fix>3d</fix>
</trkpt>
<trkpt lat="40.0713749" lon="-105.229789">
  <ele>1583.0</ele>
  <time>2026-08-28T17:54:08Z</time>
  <course>248.33</course>
  <speed>0.01</speed>
  <fix>3d</fix>
</trkpt>
<trkpt lat="40.0713749" lon="-105.229789">
  <ele>1583.0</ele>
  <time>2026-08-28T17:54:08Z</time>
  <course>0.0</course>
  <speed>0.0</speed>
  <fix>3d</fix>
</trkpt>
<trkpt lat="40.0713749" lon="-105.229789">
  <ele>1583.0</ele>
  <time>2026-08-28T17:54:08Z</time>
  <course>248.33</course>
  <speed>0.01</speed>
  <fix>3d</fix>
</trkpt>
<trkpt lat="40.0713749" lon="-105.229789">
  <ele>1583.0</ele>
  <time>2026-08-28T17:54:08Z</time>
  <course>0.0</course>
  <speed>0.0</speed>
  <fix>3d</fix>
</trkpt>
<trkpt lat="40.0713749" lon="-105.229789">
  <ele>1583.0</ele>
  <time>2026-08-28T17:54:08Z</time>
  <course>248.32</course>
  <speed>0.01</speed>
  <fix>3d</fix>
</trkpt>
<trkpt lat="40.0713749" lon="-105.229789">
  <ele>1583.0</ele>
  <time>2026-08-28T17:54:08Z</time>
  <course>0.0</course>
  <speed>0.0</speed>
  <fix>3d</fix>
</trkpt>
<trkpt lat="40.0713749" lon="-105.229789">
  <ele>1583.0</ele>
  <time>2026-08-28T17:54:08Z</time>
  <course>248.32</course>
  <speed>0.01</speed>
  <fix>3d</fix>
</trkpt>
<trkpt lat="40.0713749" lon="-105.229789">
  <ele>1583.0</ele>
  <time>2026-08-28T17:54:08Z</time>
  <course>0.0</course>
  <speed>0.0</speed>
  <fix>3d</fix>
</trkpt>
<trkpt lat="40.0713749" lon="-105.229789">
  <ele>1583.0</ele>
  <time>2026-08-28T17:54:08Z</time>
  <course>248.32</course>
  <speed>0.01</speed>
  <fix>3d</fix>
</trkpt>
<trkpt lat="40.0713749" lon="-105.229789">
  <ele>1583.0</ele>
  <time>2026-08-28T17:54:08Z</time>
  <course>0.0</course>
  <speed>0.0</speed>
  <fix>3d</fix>
</trkpt>
<trkpt lat="40.0713749" lon="-105.229789">
  <ele>1583.0</ele>
  <time>2026-08-28T17:54:08Z</time>
  <course>248.31</course>
  <speed>0.01</speed>
  <fix>3d</fix>
</trkpt>
<trkpt lat="40.0713749" lon="-105.229789">
  <ele>1583.0</ele>
  <time>2026-08-28T17:54:08Z</time>
  <course>0.0</course>
  <speed>0.0</speed>
  <fix>3d</fix>
</trkpt>
<trkpt lat="40.0713749" lon="-105.229789">
  <ele>1583.0</ele>
  <time>2026-08-28T17:54:08Z</time>
  <course>248.31</course>
  <speed>0.01</speed>
  <fix>3d</fix>
</trkpt>
<trkpt lat="40.0713749" lon="-105.229789">
  <ele>1583.0</ele>
  <time>2026-08-28T17:54:08Z</time>
  <course>0.0</course>
  <speed>0.0</speed>
  <fix>3d</fix>
</trkpt>
<trkpt lat="40.0713749" lon="-105.229789">
  <ele>1583.0</ele>
  <time>2026-08-28T17:54:08Z</time>
  <course>248.3</course>
  <speed>0.01</speed>
  <fix>3d</fix>
</trkpt>
<trkpt lat="40.0713749" lon="-105.229789">
  <ele>1583.0</ele>
  <time>2026-08-28T17:54:08Z</time>
  <course>0.0</course>
  <speed>0.0</speed>
  <fix>3d</fix>
</trkpt>
<trkpt lat="40.0713749" lon="-105.229789">
  <ele>1583.0</ele>
  <time>2026-08-28T17:54:08Z</time>
  <course>248.3</course>
  <speed>0.01</speed>
  <fix>3d</fix>
</trkpt>
<trkpt lat="40.0713749" lon="-105.229789">
  <ele>1583.0</ele>
  <time>2026-08-28T17:54:08Z</time>
  <course>0.0</course>
  <speed>0.0</speed>
  <fix>3d</fix>
</trkpt>
<trkpt lat="40.0713749" lon="-105.229789">
  <ele>1583.0</ele>
  <time>2026-08-28T17:54:08Z</time>
  <course>248.29</course>
  <speed>0.01</speed>
  <fix>3d</fix>
</trkpt>
<trkpt lat="40.0713749" lon="-105.229789">
  <ele>1583.0</ele>
  <time>2026-08-28T17:54:08Z</time>
  <course>0.0</course>
  <speed>0.0</speed>
  <fix>3d</fix>
</trkpt>
<trkpt lat="40.0713749" lon="-105.229789">
  <ele>1583.0</ele>
  <time>2026-08-28T17:54:08Z</time>
  <course>248.29</course>
  <speed>0.01</speed>
  <fix>3d</fix>
</trkpt>
<trkpt lat="40.0713749" lon="-105.229789">
  <ele>1583.0</ele>
  <time>2026-08-28T17:54:08Z</time>
  <course>0.0</course>
  <speed>0.0</speed>
  <fix>3d</fix>
</trkpt>
<trkpt lat="40.0713749" lon="-105.229789">
  <ele>1583.0</ele>
  <time>2026-08-28T17:54:08Z</time>
  <course>248.28</course>
  <speed>0.01</speed>
  <fix>3d</fix>
</trkpt>
<trkpt lat="40.0713749" lon="-105.229789">
  <ele>1583.0</ele>
  <time>2026-08-28T17:54:08Z</time>
  <course>0.0</course>
  <speed>0.0</speed>
  <fix>3d</fix>
</trkpt>
<trkpt lat="40.0713749" lon="-105.229789">
  <ele>1583.0</ele>
  <time>2026-08-28T17:54:08Z</time>
  <course>248.28</course>
  <speed>0.01</speed>
  <fix>3d</fix>
</trkpt>
<trkpt lat="40.0713749" lon="-105.229789">
  <ele>1583.0</ele>
  <time>2026-08-28T17:54:08Z</time>
  <course>0.0</course>
  <speed>0.0</speed>
  <fix>3d</fix>
</trkpt>
<trkpt lat="40.0713749" lon="-105.229789">
  <ele>1583.0</ele>
  <time>2026-08-28T17:54:08Z</time>
  <course>248.27</course>
  <speed>0.01</speed>
  <fix>3d</fix>
</trkpt>
<trkpt lat="40.0713749" lon="-105.229789">
  <ele>1583.0</ele>
  <time>2026-08-28T17:54:08Z</time>
  <course>0.0</course>
  <speed>0.0</speed>
  <fix>3d</fix>
</trkpt>
<trkpt lat="40.0713749" lon="-105.229789">
  <ele>1583.0</ele>
  <time>2026-08-28T17:54:08Z</time>
  <course>248.27</course>
  <speed>0.01</speed>
  <fix>3d</fix>
</trkpt>
<trkpt lat="40.0713749" lon="-105.229789">
  <ele>1583.0</ele>
  <time>2026-08-28T17:54:08Z</time>
  <course>0.0</course>
  <speed>0.0</speed>
  <fix>3d</fix>
</trkpt>
<trkpt lat="40.0713749" lon="-105.229789">
  <ele>1583.0</ele>
  <time>2026-08-28T17:54:08Z</time>
  <course>248.26</course>
  <speed>0.01</speed>
  <fix>3d</fix>
</trkpt>
<trkpt lat="40.0713749" lon="-105.229789">
  <ele>1583.0</ele>
  <time>2026-08-28T17:54:08Z</time>
  <course>0.0</course>
  <speed>0.0</speed>
  <fix>3d</fix>
</trkpt>
<trkpt lat="40.0713749" lon="-105.229789">
  <ele>1583.0</ele>
  <time>2026-08-28T17:54:08Z</time>
  <course>248.26</course>
  <speed>0.01</speed>
  <fix>3d</fix>
</trkpt>
<trkpt lat="40.0713749" lon="-105.229789">
  <ele>1583.0</ele>
  <time>2026-08-28T17:54:08Z</time>
  <course>0.0</course>
  <speed>0.0</speed>
  <fix>3d</fix>
</trkpt>
<trkpt lat="40.0713749" lon="-105.229789">
  <ele>1583.0</ele>
  <time>2026-08-28T17:54:08Z</time>
  <course>248.26</course>
  <speed>0.01</speed>
  <fix>3d</fix>
</trkpt>
<trkpt lat="40.0713749" lon="-105.229789">
  <ele>1583.0</ele>
  <time>2026-08-28T17:54:08Z</time>
  <course>0.0</course>
  <speed>0.0</speed>
  <fix>3d</fix>
</trkpt>
<trkpt lat="40.0713749" lon="-105.229789">
  <ele>1583.0</ele>
  <time>2026-08-28T17:54:08Z</time>
  <course>248.25</course>
  <speed>0.01</speed>
  <fix>3d</fix>
</trkpt>
<trkpt lat="40.0713749" lon="-105.229789">
  <ele>1583.0</ele>
  <time>2026-08-28T17:54:08Z</time>
  <course>0.0</course>
  <speed>0.0</speed>
  <fix>3d</fix>
</trkpt>
<trkpt lat="40.0713749" lon="-105.229789">
  <ele>1583.0</ele>
  <time>2026-08-28T17:54:08Z</time>
  <course>248.25</course>
  <speed>0.01</speed>
  <fix>3d</fix>
</trkpt>
<trkpt lat="40.0713749" lon="-105.229789">
  <ele>1583.0</ele>
  <time>2026-08-28T17:54:08Z</time>
  <course>0.0</course>
  <speed>0.0</speed>
  <fix>3d</fix>
</trkpt>
<trkpt lat="40.0713749" lon="-105.229789">
  <ele>1583.0</ele>
  <time>2026-08-28T17:54:08Z</time>
  <course>248.24</course>
  <speed>0.01</speed>
  <fix>3d</fix>
</trkpt>
<trkpt lat="40.0713749" lon="-105.229789">
  <ele>1583.0</ele>
  <time>2026-08-28T17:54:08Z</time>
  <course>0.0</course>
  <speed>0.0</speed>
  <fix>3d</fix>
</trkpt>
<trkpt lat="40.0713749" lon="-105.229789">
  <ele>1583.0</ele>
  <time>2026-08-28T17:54:08Z</time>
  <course>248.24</course>
  <speed>0.01</speed>
  <fix>3d</fix>
</trkpt>
<trkpt lat="40.0713749" lon="-105.229789">
  <ele>1583.0</ele>
  <time>2026-08-28T17:54:08Z</time>
  <course>0.0</course>
  <speed>0.0</speed>
  <fix>3d</fix>
</trkpt>
<trkpt lat="40.0713749" lon="-105.229789">
  <ele>1583.0</ele>
  <time>2026-08-28T17:54:08Z</time>
  <course>248.23</course>
  <speed>0.01</speed>
  <fix>3d</fix>
</trkpt>
<trkpt lat="40.0713749" lon="-105.229789">
  <ele>1583.0</ele>
  <time>2026-08-28T17:54:08Z</time>
  <course>0.0</course>
  <speed>0.0</speed>
  <fix>3d</fix>
</trkpt>
<trkpt lat="40.0713749" lon="-105.229789">
  <ele>1583.0</ele>
  <time>2026-08-28T17:54:08Z</time>
  <course>248.23</course>
  <speed>0.01</speed>
  <fix>3d</fix>
</trkpt>
<trkpt lat="40.0713749" lon="-105.229789">
  <ele>1583.0</ele>
  <time>2026-08-28T17:54:08Z</time>
  <course>0.0</course>
  <speed>0.0</speed>
  <fix>3d</fix>
</trkpt>
<trkpt lat="40.0713749" lon="-105.229789">
  <ele>1583.0</ele>
  <time>2026-08-28T17:54:08Z</time>
  <course>248.22</course>
  <speed>0.01</speed>
  <fix>3d</fix>
</trkpt>
<trkpt lat="40.0713749" lon="-105.229789">
  <ele>1583.0</ele>
  <time>2026-08-28T17:54:08Z</time>
  <course>0.0</course>
  <speed>0.0</speed>
  <fix>3d</fix>
</trkpt>
<trkpt lat="40.0713749" lon="-105.229789">
  <ele>1583.0</ele>
  <time>2026-08-28T17:54:08Z</time>
  <course>248.22</course>
  <speed>0.01</speed>
  <fix>3d</fix>
</trkpt>
<trkpt lat="40.0713749" lon="-105.229789">
  <ele>1583.0</ele>
  <time>2026-08-28T17:54:08Z</time>
  <course>0.0</course>
  <speed>0.0</speed>
  <fix>3d</fix>
</trkpt>
<trkpt lat="40.0713749" lon="-105.229789">
  <ele>1583.0</ele>
  <time>2026-08-28T17:54:08Z</time>
  <course>248.21</course>
  <speed>0.01</speed>
  <fix>3d</fix>
</trkpt>
<trkpt lat="40.0713749" lon="-105.229789">
  <ele>1583.0</ele>
  <time>2026-08-28T17:54:08Z</time>
  <course>0.0</course>
  <speed>0.0</speed>
  <fix>3d</fix>
</trkpt>
<trkpt lat="40.0713749" lon="-105.229789">
  <ele>1583.0</ele>
  <time>2026-08-28T17:54:08Z</time>
  <course>248.21</course>
  <speed>0.01</speed>
  <fix>3d</fix>
</trkpt>
<trkpt lat="40.0713749" lon="-105.229789">
  <ele>1583.0</ele>
  <time>2026-08-28T17:54:08Z</time>
  <course>0.0</course>
  <speed>0.0</speed>
  <fix>3d</fix>
</trkpt>
<trkpt lat="40.0713749" lon="-105.229789">
  <ele>1583.0</ele>
  <time>2026-08-28T17:54:08Z</time>
  <course>248.2</course>
  <speed>0.01</speed>
  <fix>3d</fix>
</trkpt>
<trkpt lat="40.0713749" lon="-105.229789">
  <ele>1583.0</ele>
  <time>2026-08-28T17:54:08Z</time>
  <course>0.0</course>
  <speed>0.0</speed>
  <fix>3d</fix>
</trkpt>
<trkpt lat="40.0713749" lon="-105.229789">
  <ele>1583.0</ele>
  <time>2026-08-28T17:54:08Z</time>
  <course>248.2</course>
  <speed>0.01</speed>
  <fix>3d</fix>
</trkpt>
<trkpt lat="40.0713749" lon="-105.229789">
  <ele>1583.0</ele>
  <time>2026-08-28T17:54:08Z</time>
  <course>0.0</course>
  <speed>0.0</speed>
  <fix>3d</fix>
</trkpt>
<trkpt lat="40.0713749" lon="-105.229789">
  <ele>1583.0</ele>
  <time>2026-08-28T17:54:08Z</time>
  <course>248.19</course>
  <speed>0.01</speed>
  <fix>3d</fix>
</trkpt>
<trkpt lat="40.0713749" lon="-105.229789">
  <ele>1583.0</ele>
  <time>2026-08-28T17:54:08Z</time>
  <course>0.0</course>
  <speed>0.0</speed>
  <fix>3d</fix>
</trkpt>
<trkpt lat="40.0713749" lon="-105.229789">
  <ele>1583.0</ele>
  <time>2026-08-28T17:54:08Z</time>
  <course>248.19</course>
  <speed>0.01</speed>
  <fix>3d</fix>
</trkpt>
<trkpt lat="40.0713749" lon="-105.229789">
  <ele>1583.0</ele>
  <time>2026-08-28T17:54:08Z</time>
  <course>0.0</course>
  <speed>0.0</speed>
  <fix>3d</fix>
</trkpt>
<trkpt lat="40.0713749" lon="-105.229789">
  <ele>1583.0</ele>
  <time>2026-08-28T17:54:08Z</time>
  <course>248.18</course>
  <speed>0.01</speed>
  <fix>3d</fix>
</trkpt>
<trkpt lat="40.0713749" lon="-105.229789">
  <ele>1583.0</ele>
  <time>2026-08-28T17:54:08Z</time>
  <course>0.0</course>
  <speed>0.0</speed>
  <fix>3d</fix>
</trkpt>
<trkpt lat="40.0713749" lon="-105.229789">
  <ele>1583.0</ele>
  <time>2026-08-28T17:54:08Z</time>
  <course>248.18</course>
  <speed>0.01</speed>
  <fix>3d</fix>
</trkpt>
<trkpt lat="40.0713749" lon="-105.229789">
  <ele>1583.0</ele>
  <time>2026-08-28T17:54:08Z</time>
  <course>0.0</course>
  <speed>0.0</speed>
  <fix>3d</fix>
</trkpt>
<trkpt lat="40.0713749" lon="-105.229789">
  <ele>1583.0</ele>
  <time>2026-08-28T17:54:08Z</time>
  <course>248.17</course>
  <speed>0.022360679774997897</speed>
  <fix>3d</fix>
</trkpt>
<trkpt lat="40.0713749" lon="-105.229789">
  <ele>1583.0</ele>
  <time>2026-08-28T17:54:08Z</time>
  <course>0.0</course>
  <speed>0.0</speed>
  <fix>3d</fix>
</trkpt>
<trkpt lat="40.0713749" lon="-105.229789">
  <ele>1583.0</ele>
  <time>2026-08-28T17:54:08Z</time>
  <course>248.17</course>
  <speed>0.022360679774997897</speed>
  <fix>3d</fix>
</trkpt>
<trkpt lat="40.0713749" lon="-105.229789">
  <ele>1583.0</ele>
  <time>2026-08-28T17:54:08Z</time>
  <course>0.0</course>
  <speed>0.0</speed>
  <fix>3d</fix>
</trkpt>
<trkpt lat="40.0713749" lon="-105.229789">
  <ele>1583.0</ele>
  <time>2026-08-28T17:54:08Z</time>
  <course>248.16</course>
  <speed>0.022360679774997897</speed>
  <fix>3d</fix>
</trkpt>
<trkpt lat="40.0713749" lon="-105.229789">
  <ele>1583.0</ele>
  <time>2026-08-28T17:54:08Z</time>
  <course>0.0</course>
  <speed>0.0</speed>
  <fix>3d</fix>
</trkpt>
<trkpt lat="40.0713749" lon="-105.229789">
  <ele>1583.0</ele>
  <time>2026-08-28T17:54:08Z</time>
  <course>248.16</course>
  <speed>0.022360679774997897</speed>
  <fix>3d</fix>
</trkpt>
<trkpt lat="40.0713749" lon="-105.229789">
  <ele>1583.0</ele>
  <time>2026-08-28T17:54:08Z</time>
  <course>0.0</course>
  <speed>0.0</speed>
  <fix>3d</fix>
</trkpt>
<trkpt lat="40.0713749" lon="-105.229789">
  <ele>1583.0</ele>
  <time>2026-08-28T17:54:08Z</time>
  <course>248.15</course>
  <speed>0.022360679774997897</speed>
  <fix>3d</fix>
</trkpt>
<trkpt lat="40.0713749" lon="-105.229789">
  <ele>1583.0</ele>
  <time>2026-08-28T17:54:08Z</time>
  <course>0.0</course>
  <speed>0.0</speed>
  <fix>3d</fix>
</trkpt>
<trkpt lat="40.0713749" lon="-105.229789">
  <ele>1583.0</ele>
  <time>2026-08-28T17:54:08Z</time>
  <course>248.15</course>
  <speed>0.022360679774997897</speed>
  <fix>3d</fix>
</trkpt>
<trkpt lat="40.0713749" lon="-105.229789">
  <ele>1583.0</ele>
  <time>2026-08-28T17:54:08Z</time>
  <course>0.0</course>
  <speed>0.0</speed>
  <fix>3d</fix>
</trkpt>
<trkpt lat="40.0713749" lon="-105.229789">
  <ele>1583.0</ele>
  <time>2026-08-28T17:54:08Z</time>
  <course>248.14</course>
  <speed>0.022360679774997897</speed>
  <fix>3d</fix>
</trkpt>
<trkpt lat="40.0713749" lon="-105.229789">
  <ele>1583.0</ele>
  <time>2026-08-28T17:54:08Z</time>
  <course>0.0</course>
  <speed>0.0</speed>
  <fix>3d</fix>
</trkpt>
<trkpt lat="40.0713749" lon="-105.229789">
  <ele>1583.0</ele>
  <time>2026-08-28T17:54:08Z</time>
  <course>248.14</course>
  <speed>0.022360679774997897</speed>
  <fix>3d</fix>
</trkpt>
<trkpt lat="40.0713749" lon="-105.229789">
  <ele>1583.0</ele>
  <time>2026-08-28T17:54:08Z</time>
  <course>0.0</course>
  <speed>0.0</speed>
  <fix>3d</fix>
</trkpt>
<trkpt lat="40.0713749" lon="-105.229789">
  <ele>1583.0</ele>
  <time>2026-08-28T17:54:08Z</time>
  <course>248.13</course>
  <speed>0.022360679774997897</speed>
  <fix>3d</fix>
</trkpt>
<trkpt lat="40.0713749" lon="-105.229789">
  <ele>1583.0</ele>
  <time>2026-08-28T17:54:08Z</time>
  <course>0.0</course>
  <speed>0.0</speed>
  <fix>3d</fix>
</trkpt>
<trkpt lat="40.0713749" lon="-105.229789">
  <ele>1583.0</ele>
  <time>2026-08-28T17:54:08Z</time>
  <course>248.13</course>
  <speed>0.022360679774997897</speed>
  <fix>3d</fix>
</trkpt>
<trkpt lat="40.0713749" lon="-105.229789">
  <ele>1583.0</ele>
  <time>2026-08-28T17:54:08Z</time>
  <course>0.0</course>
  <speed>0.0</speed>
  <fix>3d</fix>
</trkpt>
<trkpt lat="40.0713749" lon="-105.229789">
  <ele>1583.0</ele>
  <time>2026-08-28T17:54:08Z</time>
  <course>248.12</course>
  <speed>0.022360679774997897</speed>
  <fix>3d</fix>
</trkpt>
<trkpt lat="40.0713749" lon="-105.229789">
  <ele>1583.0</ele>
  <time>2026-08-28T17:54:08Z</time>
  <course>0.0</course>
  <speed>0.0</speed>
  <fix>3d</fix>
</trkpt>
<trkpt lat="40.0713749" lon="-105.229789">
  <ele>1583.0</ele>
  <time>2026-08-28T17:54:08Z</time>
  <course>248.12</course>
  <speed>0.022360679774997897</speed>
  <fix>3d</fix>
</trkpt>
<trkpt lat="40.0713749" lon="-105.229789">
  <ele>1583.0</ele>
  <time>2026-08-28T17:54:08Z</time>
  <course>0.0</course>
  <speed>0.0</speed>
  <fix>3d</fix>
</trkpt>
<trkpt lat="40.0713749" lon="-105.229789">
  <ele>1583.0</ele>
  <time>2026-08-28T17:54:08Z</time>
  <course>248.11</course>
  <speed>0.022360679774997897</speed>
  <fix>3d</fix>
</trkpt>
<trkpt lat="40.0713749" lon="-105.229789">
  <ele>1583.0</ele>
  <time>2026-08-28T17:54:08Z</time>
  <course>0.0</course>
  <speed>0.0</speed>
  <fix>3d</fix>
</trkpt>
<trkpt lat="40.0713749" lon="-105.229789">
  <ele>1583.0</ele>
  <time>2026-08-28T17:54:08Z</time>
  <course>248.11</course>
  <speed>0.022360679774997897</speed>
  <fix>3d</fix>
</trkpt>
<trkpt lat="40.0713749" lon="-105.229789">
  <ele>1583.0</ele>
  <time>2026-08-28T17:54:08Z</time>
  <course>0.0</course>
  <speed>0.0</speed>
  <fix>3d</fix>
</trkpt>
<trkpt lat="40.0713749" lon="-105.229789">
  <ele>1583.0</ele>
  <time>2026-08-28T17:54:08Z</time>
  <course>248.1</course>
  <speed>0.022360679774997897</speed>
  <fix>3d</fix>
</trkpt>
<trkpt lat="40.0713749" lon="-105.229789">
  <ele>1583.0</ele>
  <time>2026-08-28T17:54:08Z</time>
  <course>0.0</course>
  <speed>0.0</speed>
  <fix>3d</fix>
</trkpt>
<trkpt lat="40.0713749" lon="-105.229789">
  <ele>1583.0</ele>
  <time>2026-08-28T17:54:08Z</time>
  <course>248.1</course>
  <speed>0.022360679774997897</speed>
  <fix>3d</fix>
</trkpt>
<trkpt lat="40.0713749" lon="-105.229789">
  <ele>1583.0</ele>
  <time>2026-08-28T17:54:08Z</time>
  <course>0.0</course>
  <speed>0.0</speed>
  <fix>3d</fix>
</trkpt>
<trkpt lat="40.0713749" lon="-105.229789">
  <ele>1583.0</ele>
  <time>2026-08-28T17:54:08Z</time>
  <course>248.09</course>
  <speed>0.022360679774997897</speed>
  <fix>3d</fix>
</trkpt>
<trkpt lat="40.0713749" lon="-105.229789">
  <ele>1583.0</ele>
  <time>2026-08-28T17:54:08Z</time>
  <course>0.0</course>
  <speed>0.0</speed>
  <fix>3d</fix>
</trkpt>
<trkpt lat="40.0713749" lon="-105.229789">
  <ele>1583.0</ele>
  <time>2026-08-28T17:54:08Z</time>
  <course>248.09</course>
  <speed>0.022360679774997897</speed>
  <fix>3d</fix>
</trkpt>
<trkpt lat="40.0713749" lon="-105.229789">
  <ele>1583.0</ele>
  <time>2026-08-28T17:54:08Z</time>
  <course>0.0</course>
  <speed>0.0</speed>
  <fix>3d</fix>
</trkpt>
<trkpt lat="40.0713749" lon="-105.229789">
  <ele>1583.0</ele>
  <time>2026-08-28T17:54:08Z</time>
  <course>248.08</course>
  <speed>0.022360679774997897</speed>
  <fix>3d</fix>
</trkpt>
<trkpt lat="40.0713749" lon="-105.229789">
  <ele>1583.0</ele>
  <time>2026-08-28T17:54:08Z</time>
  <course>0.0</course>
  <speed>0.0</speed>
  <fix>3d</fix>
</trkpt>
<trkpt lat="40.0713749" lon="-105.229789">
  <ele>1583.0</ele>
  <time>2026-08-28T17:54:08Z</time>
  <course>248.08</course>
  <speed>0.022360679774997897</speed>
  <fix>3d</fix>
</trkpt>
<trkpt lat="40.0713749" lon="-105.229789">
  <ele>1583.0</ele>
  <time>2026-08-28T17:54:08Z</time>
  <course>0.0</course>
  <speed>0.0</speed>
  <fix>3d</fix>
</trkpt>
<trkpt lat="40.0713749" lon="-105.229789">
  <ele>1583.0</ele>
  <time>2026-08-28T17:54:08Z</time>
  <course>248.07</course>
  <speed>0.022360679774997897</speed>
  <fix>3d</fix>
</trkpt>
<trkpt lat="40.0713749" lon="-105.229789">
  <ele>1583.0</ele>
  <time>2026-08-28T17:54:08Z</time>
  <course>0.0</course>
  <speed>0.0</speed>
  <fix>3d</fix>
</trkpt>
<trkpt lat="40.0713749" lon="-105.229789">
  <ele>1583.0</ele>
  <time>2026-08-28T17:54:08Z</time>
  <course>248.07</course>
  <speed>0.022360679774997897</speed>
  <fix>3d</fix>
</trkpt>
<trkpt lat="40.0713749" lon="-105.229789">
  <ele>1583.0</ele>
  <time>2026-08-28T17:54:08Z</time>
  <course>0.0</course>
  <speed>0.0</speed>
  <fix>3d</fix>
</trkpt>
<trkpt lat="40.0713749" lon="-105.229789">
  <ele>1583.0</ele>
  <time>2026-08-28T17:54:08Z</time>
  <course>248.06</course>
  <speed>0.022360679774997897</speed>
  <fix>3d</fix>
</trkpt>
<trkpt lat="40.0713749" lon="-105.229789">
  <ele>1583.0</ele>
  <time>2026-08-28T17:54:08Z</time>
  <course>0.0</course>
  <speed>0.0</speed>
  <fix>3d</fix>
</trkpt>
<trkpt lat="40.0713749" lon="-105.229789">
  <ele>1583.0</ele>
  <time>2026-08-28T17:54:08Z</time>
  <course>248.06</course>
  <speed>0.022360679774997897</speed>
  <fix>3d</fix>
</trkpt>
<trkpt lat="40.0713749" lon="-105.229789">
  <ele>1583.0</ele>
  <time>2026-08-28T17:54:08Z</time>
  <course>0.0</course>
  <speed>0.0</speed>
  <fix>3d</fix>
</trkpt>
<trkpt lat="40.0713749" lon="-105.229789">
  <ele>1583.0</ele>
  <time>2026-08-28T17:54:08Z</time>
  <course>248.05</course>
  <speed>0.022360679774997897</speed>
  <fix>3d</fix>
</trkpt>
<trkpt lat="40.0713749" lon="-105.229789">
  <ele>1583.0</ele>
  <time>2026-08-28T17:54:08Z</time>
  <course>0.0</course>
  <speed>0.0</speed>
  <fix>3d</fix>
</trkpt>
<trkpt lat="40.0713749" lon="-105.229789">
  <ele>1583.0</ele>
  <time>2026-08-28T17:54:08Z</time>
  <course>248.05</course>
  <speed>0.022360679774997897</speed>
  <fix>3d</fix>
</trkpt>
<trkpt lat="40.0713749" lon="-105.229789">
  <ele>1583.0</ele>
  <time>2026-08-28T17:54:08Z</time>
  <course>0.0</course>
  <speed>0.0</speed>
  <fix>3d</fix>
</trkpt>
<trkpt lat="40.0713749" lon="-105.229789">
  <ele>1583.0</ele>
  <time>2026-08-28T17:54:08Z</time>
  <course>248.05</course>
  <speed>0.022360679774997897</speed>
  <fix>3d</fix>
</trkpt>
<trkpt lat="40.0713749" lon="-105.229789">
  <ele>1583.0</ele>
  <time>2026-08-28T17:54:08Z</time>
  <course>0.0</course>
  <speed>0.0</speed>
  <fix>3d</fix>
</trkpt>
<trkpt lat="40.0713749" lon="-105.229789">
  <ele>1583.0</ele>
  <time>2026-08-28T17:54:08Z</time>
  <course>248.04</course>
  <speed>0.022360679774997897</speed>
  <fix>3d</fix>
</trkpt>
<trkpt lat="40.0713749" lon="-105.229789">
  <ele>1583.0</ele>
  <time>2026-08-28T17:54:08Z</time>
  <course>0.0</course>
  <speed>0.0</speed>
  <fix>3d</fix>
</trkpt>
<trkpt lat="40.0713749" lon="-105.229789">
  <ele>1583.0</ele>
  <time>2026-08-28T17:54:08Z</time>
  <course>248.04</course>
  <speed>0.022360679774997897</speed>
  <fix>3d</fix>
</trkpt>
<trkpt lat="40.0713749" lon="-105.229789">
  <ele>1583.0</ele>
  <time>2026-08-28T17:54:08Z</time>
  <course>0.0</course>
  <speed>0.0</speed>
  <fix>3d</fix>
</trkpt>
<trkpt lat="40.0713749" lon="-105.229789">
  <ele>1583.0</ele>
  <time>2026-08-28T17:54:08Z</time>
  <course>248.03</course>
  <speed>0.022360679774997897</speed>
  <fix>3d</fix>
</trkpt>
<trkpt lat="40.0713749" lon="-105.229789">
  <ele>1583.0</ele>
  <time>2026-08-28T17:54:08Z</time>
  <course>0.0</course>
  <speed>0.0</speed>
  <fix>3d</fix>
</trkpt>
<trkpt lat="40.0713749" lon="-105.229789">
  <ele>1583.0</ele>
  <time>2026-08-28T17:54:08Z</time>
  <course>248.03</course>
  <speed>0.022360679774997897</speed>
  <fix>3d</fix>
</trkpt>
<trkpt lat="40.0713749" lon="-105.229789">
  <ele>1583.0</ele>
  <time>2026-08-28T17:54:08Z</time>
  <course>0.0</course>
  <speed>0.0</speed>
  <fix>3d</fix>
</trkpt>
<trkpt lat="40.0713749" lon="-105.229789">
  <ele>1583.0</ele>
  <time>2026-08-28T17:54:08Z</time>
  <course>248.02</course>
  <speed>0.022360679774997897</speed>
  <fix>3d</fix>
</trkpt>
<trkpt lat="40.0713749" lon="-105.229789">
  <ele>1583.0</ele>
  <time>2026-08-28T17:54:08Z</time>
  <course>0.0</course>
  <speed>0.0</speed>
  <fix>3d</fix>
</trkpt>
<trkpt lat="40.0713749" lon="-105.229789">
  <ele>1583.0</ele>
  <time>2026-08-28T17:54:08Z</time>
  <course>248.02</course>
  <speed>0.022360679774997897</speed>
  <fix>3d</fix>
</trkpt>
<trkpt lat="40.0713749" lon="-105.229789">
  <ele>1583.0</ele>
  <time>2026-08-28T17:54:08Z</time>
  <course>0.0</course>
  <speed>0.0</speed>
  <fix>3d</fix>
</trkpt>
<trkpt lat="40.0713749" lon="-105.229789">
  <ele>1583.0</ele>
  <time>2026-08-28T17:54:08Z</time>
  <course>248.01</course>
  <speed>0.022360679774997897</speed>
  <fix>3d</fix>
</trkpt>
<trkpt lat="40.0713749" lon="-105.229789">
  <ele>1583.0</ele>
  <time>2026-08-28T17:54:08Z</time>
  <course>0.0</course>
  <speed>0.0</speed>
  <fix>3d</fix>
</trkpt>
<trkpt lat="40.0713749" lon="-105.229789">
  <ele>1583.0</ele>
  <time>2026-08-28T17:54:08Z</time>
  <course>248.01</course>
  <speed>0.022360679774997897</speed>
  <fix>3d</fix>
</trkpt>
<trkpt lat="40.0713749" lon="-105.229789">
  <ele>1583.0</ele>
  <time>2026-08-28T17:54:08Z</time>
  <course>0.0</course>
  <speed>0.0</speed>
  <fix>3d</fix>
</trkpt>
<trkpt lat="40.0713749" lon="-105.229789">
  <ele>1583.0</ele>
  <time>2026-08-28T17:54:08Z</time>
  <course>248.0</course>
  <speed>0.022360679774997897</speed>
  <fix>3d</fix>
</trkpt>
<trkpt lat="40.0713749" lon="-105.229789">
  <ele>1583.0</ele>
  <time>2026-08-28T17:54:08Z</time>
  <course>0.0</course>
  <speed>0.0</speed>
  <fix>3d</fix>
</trkpt>
<trkpt lat="40.0713749" lon="-105.229789">
  <ele>1583.0</ele>
  <time>2026-08-28T17:54:08Z</time>
  <course>248.0</course>
  <speed>0.022360679774997897</speed>
  <fix>3d</fix>
</trkpt>
<trkpt lat="40.0713749" lon="-105.229789">
  <ele>1583.0</ele>
  <time>2026-08-28T17:54:08Z</time>
  <course>0.0</course>
  <speed>0.0</speed>
  <fix>3d</fix>
</trkpt>
<trkpt lat="40.0713749" lon="-105.229789">
  <ele>1583.0</ele>
  <time>2026-08-28T17:54:08Z</time>
  <course>247.99</course>
  <speed>0.022360679774997897</speed>
  <fix>3d</fix>
</trkpt>
<trkpt lat="40.0713749" lon="-105.229789">
  <ele>1583.0</ele>
  <time>2026-08-28T17:54:08Z</time>
  <course>0.0</course>
  <speed>0.0</speed>
  <fix>3d</fix>
</trkpt>
<trkpt lat="40.0713749" lon="-105.229789">
  <ele>1583.0</ele>
  <time>2026-08-28T17:54:08Z</time>
  <course>247.99</course>
  <speed>0.022360679774997897</speed>
  <fix>3d</fix>
</trkpt>
<trkpt lat="40.0713749" lon="-105.229789">
  <ele>1583.0</ele>
  <time>2026-08-28T17:54:08Z</time>
  <course>0.0</course>
  <speed>0.0</speed>
  <fix>3d</fix>
</trkpt>
<trkpt lat="40.0713749" lon="-105.229789">
  <ele>1583.0</ele>
  <time>2026-08-28T17:54:08Z</time>
  <course>247.99</course>
  <speed>0.022360679774997897</speed>
  <fix>3d</fix>
</trkpt>
<trkpt lat="40.0713749" lon="-105.229789">
  <ele>1583.0</ele>
  <time>2026-08-28T17:54:08Z</time>
  <course>0.0</course>
  <speed>0.0</speed>
  <fix>3d</fix>
</trkpt>
<trkpt lat="40.0713749" lon="-105.229789">
  <ele>1583.0</ele>
  <time>2026-08-28T17:54:08Z</time>
  <course>247.98</course>
  <speed>0.022360679774997897</speed>
  <fix>3d</fix>
</trkpt>
<trkpt lat="40.0713749" lon="-105.229789">
  <ele>1583.0</ele>
  <time>2026-08-28T17:54:08Z</time>
  <course>0.0</course>
  <speed>0.0</speed>
  <fix>3d</fix>
</trkpt>
<trkpt lat="40.0713749" lon="-105.229789">
  <ele>1583.0</ele>
  <time>2026-08-28T17:54:08Z</time>
  <course>247.98</course>
  <speed>0.022360679774997897</speed>
  <fix>3d</fix>
</trkpt>
<trkpt lat="40.0713749" lon="-105.229789">
  <ele>1583.0</ele>
  <time>2026-08-28T17:54:08Z</time>
  <course>0.0</course>
  <speed>0.0</speed>
  <fix>3d</fix>
</trkpt>
<trkpt lat="40.0713749" lon="-105.229789">
  <ele>1583.0</ele>
  <time>2026-08-28T17:54:08Z</time>
  <course>247.97</course>
  <speed>0.022360679774997897</speed>
  <fix>3d</fix>
</trkpt>
<trkpt lat="40.0713749" lon="-105.229789">
  <ele>1583.0</ele>
  <time>2026-08-28T17:54:08Z</time>
  <course>0.0</course>
  <speed>0.0</speed>
  <fix>3d</fix>
</trkpt>
<trkpt lat="40.0713749" lon="-105.229789">
  <ele>1583.0</ele>
  <time>2026-08-28T17:54:08Z</time>
  <course>247.97</course>
  <speed>0.022360679774997897</speed>
  <fix>3d</fix>
</trkpt>
<trkpt lat="40.0713749" lon="-105.229789">
  <ele>1583.0</ele>
  <time>2026-08-28T17:54:08Z</time>
  <course>0.0</course>
  <speed>0.0</speed>
  <fix>3d</fix>
</trkpt>
<trkpt lat="40.0713749" lon="-105.229789">
  <ele>1583.0</ele>
  <time>2026-08-28T17:54:08Z</time>
  <course>247.96</course>
  <speed>0.022360679774997897</speed>
  <fix>3d</fix>
</trkpt>
<trkpt lat="40.0713749" lon="-105.229789">
  <ele>1583.0</ele>
  <time>2026-08-28T17:54:08Z</time>
  <course>0.0</course>
  <speed>0.0</speed>
  <fix>3d</fix>
</trkpt>
<trkpt lat="40.0713749" lon="-105.229789">
  <ele>1583.0</ele>
  <time>2026-08-28T17:54:08Z</time>
  <course>247.96</course>
  <speed>0.022360679774997897</speed>
  <fix>3d</fix>
</trkpt>
<trkpt lat="40.0713749" lon="-105.229789">
  <ele>1583.0</ele>
  <time>2026-08-28T17:54:08Z</time>
  <course>0.0</course>
  <speed>0.0</speed>
  <fix>3d</fix>
</trkpt>
<trkpt lat="40.0713749" lon="-105.229789">
  <ele>1583.0</ele>
  <time>2026-08-28T17:54:08Z</time>
  <course>247.95</course>
  <speed>0.022360679774997897</speed>
  <fix>3d</fix>
</trkpt>
<trkpt lat="40.0713749" lon="-105.229789">
  <ele>1583.0</ele>
  <time>2026-08-28T17:54:08Z</time>
  <course>0.0</course>
  <speed>0.0</speed>
  <fix>3d</fix>
</trkpt>
<trkpt lat="40.0713749" lon="-105.229789">
  <ele>1583.0</ele>
  <time>2026-08-28T17:54:08Z</time>
  <course>247.95</course>
  <speed>0.022360679774997897</speed>
  <fix>3d</fix>
</trkpt>
<trkpt lat="40.0713749" lon="-105.229789">
  <ele>1583.0</ele>
  <time>2026-08-28T17:54:08Z</time>
  <course>0.0</course>
  <speed>0.0</speed>
  <fix>3d</fix>
</trkpt>
<trkpt lat="40.0713749" lon="-105.229789">
  <ele>1583.0</ele>
  <time>2026-08-28T17:54:08Z</time>
  <course>247.95</course>
  <speed>0.022360679774997897</speed>
  <fix>3d</fix>
</trkpt>
<trkpt lat="40.0713749" lon="-105.229789">
  <ele>1583.0</ele>
  <time>2026-08-28T17:54:08Z</time>
  <course>0.0</course>
  <speed>0.0</speed>
  <fix>3d</fix>
</trkpt>
<trkpt lat="40.0713749" lon="-105.229789">
  <ele>1583.0</ele>
  <time>2026-08-28T17:54:08Z</time>
  <course>247.94</course>
  <speed>0.022360679774997897</speed>
  <fix>3d</fix>
</trkpt>
<trkpt lat="40.0713749" lon="-105.229789">
  <ele>1583.0</ele>
  <time>2026-08-28T17:54:08Z</time>
  <course>0.0</course>
  <speed>0.0</speed>
  <fix>3d</fix>
</trkpt>
<trkpt lat="40.0713749" lon="-105.229789">
  <ele>1583.0</ele>
  <time>2026-08-28T17:54:08Z</time>
  <course>247.94</course>
  <speed>0.022360679774997897</speed>
  <fix>3d</fix>
</trkpt>
<trkpt lat="40.0713749" lon="-105.229789">
  <ele>1583.0</ele>
  <time>2026-08-28T17:54:08Z</time>
  <course>0.0</course>
  <speed>0.0</speed>
  <fix>3d</fix>
</trkpt>
<trkpt lat="40.0713749" lon="-105.229789">
  <ele>1583.0</ele>
  <time>2026-08-28T17:54:08Z</time>
  <course>247.93</course>
  <speed>0.022360679774997897</speed>
  <fix>3d</fix>
</trkpt>
<trkpt lat="40.0713749" lon="-105.229789">
  <ele>1583.0</ele>
  <time>2026-08-28T17:54:08Z</time>
  <course>0.0</course>
  <speed>0.0</speed>
  <fix>3d</fix>
</trkpt>
<trkpt lat="40.0713749" lon="-105.229789">
  <ele>1583.0</ele>
  <time>2026-08-28T17:54:08Z</time>
  <course>247.93</course>
  <speed>0.022360679774997897</speed>
  <fix>3d</fix>
</trkpt>
<trkpt lat="40.0713749" lon="-105.229789">
  <ele>1583.0</ele>
  <time>2026-08-28T17:54:08Z</time>
  <course>0.0</course>
  <speed>0.0</speed>
  <fix>3d</fix>
</trkpt>
<trkpt lat="40.0713749" lon="-105.229789">
  <ele>1583.0</ele>
  <time>2026-08-28T17:54:08Z</time>
  <course>247.92</course>
  <speed>0.022360679774997897</speed>
  <fix>3d</fix>
</trkpt>
<trkpt lat="40.0713749" lon="-105.229789">
  <ele>1583.0</ele>
  <time>2026-08-28T17:54:08Z</time>
  <course>0.0</course>
  <speed>0.0</speed>
  <fix>3d</fix>
</trkpt>
<trkpt lat="40.0713749" lon="-105.229789">
  <ele>1583.0</ele>
  <time>2026-08-28T17:54:08Z</time>
  <course>247.92</course>
  <speed>0.022360679774997897</speed>
  <fix>3d</fix>
</trkpt>
<trkpt lat="40.0713749" lon="-105.229789">
  <ele>1583.0</ele>
  <time>2026-08-28T17:54:08Z</time>
  <course>0.0</course>
  <speed>0.0</speed>
  <fix>3d</fix>
</trkpt>
<trkpt lat="40.0713749" lon="-105.229789">
  <ele>1583.0</ele>
  <time>2026-08-28T17:54:08Z</time>
  <course>247.92</course>
  <speed>0.022360679774997897</speed>
  <fix>3d</fix>
</trkpt>
<trkpt lat="40.0713749" lon="-105.229789">
  <ele>1583.0</ele>
  <time>2026-08-28T17:54:08Z</time>
  <course>0.0</course>
  <speed>0.0</speed>
  <fix>3d</fix>
</trkpt>
<trkpt lat="40.0713749" lon="-105.229789">
  <ele>1583.0</ele>
  <time>2026-08-28T17:54:08Z</time>
  <course>247.91</course>
  <speed>0.022360679774997897</speed>
  <fix>3d</fix>
</trkpt>
<trkpt lat="40.0713749" lon="-105.229789">
  <ele>1583.0</ele>
  <time>2026-08-28T17:54:08Z</time>
  <course>0.0</course>
  <speed>0.0</speed>
  <fix>3d</fix>
</trkpt>
<trkpt lat="40.0713749" lon="-105.229789">
  <ele>1583.0</ele>
  <time>2026-08-28T17:54:08Z</time>
  <course>247.91</course>
  <speed>0.022360679774997897</speed>
  <fix>3d</fix>
</trkpt>
<trkpt lat="40.0713749" lon="-105.229789">
  <ele>1583.0</ele>
  <time>2026-08-28T17:54:08Z</time>
  <course>0.0</course>
  <speed>0.0</speed>
  <fix>3d</fix>
</trkpt>
<trkpt lat="40.0713749" lon="-105.229789">
  <ele>1583.0</ele>
  <time>2026-08-28T17:54:08Z</time>
  <course>247.9</course>
  <speed>0.022360679774997897</speed>
  <fix>3d</fix>
</trkpt>
<trkpt lat="40.0713749" lon="-105.229789">
  <ele>1583.0</ele>
  <time>2026-08-28T17:54:08Z</time>
  <course>0.0</course>
  <speed>0.0</speed>
  <fix>3d</fix>
</trkpt>
<trkpt lat="40.0713749" lon="-105.229789">
  <ele>1583.0</ele>
  <time>2026-08-28T17:54:08Z</time>
  <course>247.9</course>
  <speed>0.022360679774997897</speed>
  <fix>3d</fix>
</trkpt>
<trkpt lat="40.0713749" lon="-105.229789">
  <ele>1583.0</ele>
  <time>2026-08-28T17:54:08Z</time>
  <course>0.0</course>
  <speed>0.0</speed>
  <fix>3d</fix>
</trkpt>
<trkpt lat="40.0713749" lon="-105.229789">
  <ele>1583.0</ele>
  <time>2026-08-28T17:54:08Z</time>
  <course>247.89</course>
  <speed>0.022360679774997897</speed>
  <fix>3d</fix>
</trkpt>
<trkpt lat="40.0713749" lon="-105.229789">
  <ele>1583.0</ele>
  <time>2026-08-28T17:54:08Z</time>
  <course>0.0</course>
  <speed>0.0</speed>
  <fix>3d</fix>
</trkpt>
<trkpt lat="40.0713749" lon="-105.229789">
  <ele>1583.0</ele>
  <time>2026-08-28T17:54:08Z</time>
  <course>247.89</course>
  <speed>0.022360679774997897</speed>
  <fix>3d</fix>
</trkpt>
<trkpt lat="40.0713749" lon="-105.229789">
  <ele>1583.0</ele>
  <time>2026-08-28T17:54:08Z</time>
  <course>0.0</course>
  <speed>0.0</speed>
  <fix>3d</fix>
</trkpt>
<trkpt lat="40.0713749" lon="-105.229789">
  <ele>1583.0</ele>
  <time>2026-08-28T17:54:08Z</time>
  <course>247.89</course>
  <speed>0.022360679774997897</speed>
  <fix>3d</fix>
</trkpt>
<trkpt lat="40.0713749" lon="-105.229789">
  <ele>1583.0</ele>
  <time>2026-08-28T17:54:08Z</time>
  <course>0.0</course>
  <speed>0.0</speed>
  <fix>3d</fix>
</trkpt>
<trkpt lat="40.0713749" lon="-105.229789">
  <ele>1583.0</ele>
  <time>2026-08-28T17:54:08Z</time>
  <course>247.88</course>
  <speed>0.0316227766016838</speed>
  <fix>3d</fix>
</trkpt>
<trkpt lat="40.0713749" lon="-105.229789">
  <ele>1583.0</ele>
  <time>2026-08-28T17:54:08Z</time>
  <course>0.0</course>
  <speed>0.0</speed>
  <fix>3d</fix>
</trkpt>
<trkpt lat="40.0713749" lon="-105.229789">
  <ele>1583.0</ele>
  <time>2026-08-28T17:54:08Z</time>
  <course>247.88</course>
  <speed>0.0316227766016838</speed>
  <fix>3d</fix>
</trkpt>
<trkpt lat="40.0713749" lon="-105.229789">
  <ele>1583.0</ele>
  <time>2026-08-28T17:54:08Z</time>
  <course>0.0</course>
  <speed>0.0</speed>
  <fix>3d</fix>
</trkpt>
<trkpt lat="40.0713749" lon="-105.229789">
  <ele>1583.0</ele>
  <time>2026-08-28T17:54:08Z</time>
  <course>247.87</course>
  <speed>0.0316227766016838</speed>
  <fix>3d</fix>
</trkpt>
<trkpt lat="40.0713749" lon="-105.229789">
  <ele>1583.0</ele>
  <time>2026-08-28T17:54:08Z</time>
  <course>0.0</course>
  <speed>0.0</speed>
  <fix>3d</fix>
</trkpt>
<trkpt lat="40.0713749" lon="-105.229789">
  <ele>1583.0</ele>
  <time>2026-08-28T17:54:08Z</time>
  <course>247.87</course>
  <speed>0.0316227766016838</speed>
  <fix>3d</fix>
</trkpt>
<trkpt lat="40.0713749" lon="-105.229789">
  <ele>1583.0</ele>
  <time>2026-08-28T17:54:08Z</time>
  <course>0.0</course>
  <speed>0.0</speed>
  <fix>3d</fix>
</trkpt>
<trkpt lat="40.0713749" lon="-105.229789">
  <ele>1583.0</ele>
  <time>2026-08-28T17:54:08Z</time>
  <course>247.87</course>
  <speed>0.0316227766016838</speed>
  <fix>3d</fix>
</trkpt>
<trkpt lat="40.0713749" lon="-105.229789">
  <ele>1583.0</ele>
  <time>2026-08-28T17:54:08Z</time>
  <course>0.0</course>
  <speed>0.0</speed>
  <fix>3d</fix>
</trkpt>
<trkpt lat="40.0713749" lon="-105.229789">
  <ele>1583.0</ele>
  <time>2026-08-28T17:54:08Z</time>
  <course>247.86</course>
  <speed>0.0316227766016838</speed>
  <fix>3d</fix>
</trkpt>
<trkpt lat="40.0713749" lon="-105.229789">
  <ele>1583.0</ele>
  <time>2026-08-28T17:54:08Z</time>
  <course>0.0</course>
  <speed>0.0</speed>
  <fix>3d</fix>
</trkpt>
<trkpt lat="40.0713749" lon="-105.229789">
  <ele>1583.0</ele>
  <time>2026-08-28T17:54:08Z</time>
  <course>247.86</course>
  <speed>0.0316227766016838</speed>
  <fix>3d</fix>
</trkpt>
<trkpt lat="40.0713749" lon="-105.229789">
  <ele>1583.0</ele>
  <time>2026-08-28T17:54:08Z</time>
  <course>0.0</course>
  <speed>0.0</speed>
  <fix>3d</fix>
</trkpt>
<trkpt lat="40.0713749" lon="-105.229789">
  <ele>1583.0</ele>
  <time>2026-08-28T17:54:08Z</time>
  <course>247.85</course>
  <speed>0.0316227766016838</speed>
  <fix>3d</fix>
</trkpt>
<trkpt lat="40.0713749" lon="-105.229789">
  <ele>1583.0</ele>
  <time>2026-08-28T17:54:08Z</time>
  <course>0.0</course>
  <speed>0.0</speed>
  <fix>3d</fix>
</trkpt>
<trkpt lat="40.0713749" lon="-105.229789">
  <ele>1583.0</ele>
  <time>2026-08-28T17:54:08Z</time>
  <course>247.85</course>
  <speed>0.0316227766016838</speed>
  <fix>3d</fix>
</trkpt>
<trkpt lat="40.0713749" lon="-105.229789">
  <ele>1583.0</ele>
  <time>2026-08-28T17:54:08Z</time>
  <course>0.0</course>
  <speed>0.0</speed>
  <fix>3d</fix>
</trkpt>
<trkpt lat="40.0713749" lon="-105.229789">
  <ele>1583.0</ele>
  <time>2026-08-28T17:54:08Z</time>
  <course>247.85</course>
  <speed>0.0316227766016838</speed>
  <fix>3d</fix>
</trkpt>
<trkpt lat="40.0713749" lon="-105.229789">
  <ele>1583.0</ele>
  <time>2026-08-28T17:54:08Z</time>
  <course>0.0</course>
  <speed>0.0</speed>
  <fix>3d</fix>
</trkpt>
<trkpt lat="40.0713749" lon="-105.229789">
  <ele>1583.0</ele>
  <time>2026-08-28T17:54:08Z</time>
  <course>247.84</course>
  <speed>0.0316227766016838</speed>
  <fix>3d</fix>
</trkpt>
<trkpt lat="40.0713749" lon="-105.229789">
  <ele>1583.0</ele>
  <time>2026-08-28T17:54:08Z</time>
  <course>0.0</course>
  <speed>0.0</speed>
  <fix>3d</fix>
</trkpt>
<trkpt lat="40.0713749" lon="-105.229789">
  <ele>1583.0</ele>
  <time>2026-08-28T17:54:08Z</time>
  <course>247.84</course>
  <speed>0.0316227766016838</speed>
  <fix>3d</fix>
</trkpt>
<trkpt lat="40.0713749" lon="-105.229789">
  <ele>1583.0</ele>
  <time>2026-08-28T17:54:08Z</time>
  <course>0.0</course>
  <speed>0.0</speed>
  <fix>3d</fix>
</trkpt>
<trkpt lat="40.0713749" lon="-105.229789">
  <ele>1583.0</ele>
  <time>2026-08-28T17:54:08Z</time>
  <course>247.83</course>
  <speed>0.0316227766016838</speed>
  <fix>3d</fix>
</trkpt>
<trkpt lat="40.0713749" lon="-105.229789">
  <ele>1583.0</ele>
  <time>2026-08-28T17:54:08Z</time>
  <course>0.0</course>
  <speed>0.0</speed>
  <fix>3d</fix>
</trkpt>
<trkpt lat="40.0713749" lon="-105.229789">
  <ele>1583.0</ele>
  <time>2026-08-28T17:54:08Z</time>
  <course>247.83</course>
  <speed>0.0316227766016838</speed>
  <fix>3d</fix>
</trkpt>
<trkpt lat="40.0713749" lon="-105.229789">
  <ele>1583.0</ele>
  <time>2026-08-28T17:54:08Z</time>
  <course>0.0</course>
  <speed>0.0</speed>
  <fix>3d</fix>
</trkpt>
<trkpt lat="40.0713749" lon="-105.229789">
  <ele>1583.0</ele>
  <time>2026-08-28T17:54:08Z</time>
  <course>247.83</course>
  <speed>0.0316227766016838</speed>
  <fix>3d</fix>
</trkpt>
<trkpt lat="40.0713749" lon="-105.229789">
  <ele>1583.0</ele>
  <time>2026-08-28T17:54:08Z</time>
  <course>0.0</course>
  <speed>0.0</speed>
  <fix>3d</fix>
</trkpt>
<trkpt lat="40.0713749" lon="-105.229789">
  <ele>1583.0</ele>
  <time>2026-08-28T17:54:08Z</time>
  <course>247.82</course>
  <speed>0.0316227766016838</speed>
  <fix>3d</fix>
</trkpt>
<trkpt lat="40.0713749" lon="-105.229789">
  <ele>1583.0</ele>
  <time>2026-08-28T17:54:08Z</time>
  <course>0.0</course>
  <speed>0.0</speed>
  <fix>3d</fix>
</trkpt>
<trkpt lat="40.0713749" lon="-105.229789">
  <ele>1583.0</ele>
  <time>2026-08-28T17:54:08Z</time>
  <course>247.82</course>
  <speed>0.0316227766016838</speed>
  <fix>3d</fix>
</trkpt>
<trkpt lat="40.0713749" lon="-105.229789">
  <ele>1583.0</ele>
  <time>2026-08-28T17:54:08Z</time>
  <course>0.0</course>
  <speed>0.0</speed>
  <fix>3d</fix>
</trkpt>
<trkpt lat="40.0713749" lon="-105.229789">
  <ele>1583.0</ele>
  <time>2026-08-28T17:54:08Z</time>
  <course>247.82</course>
  <speed>0.0316227766016838</speed>
  <fix>3d</fix>
</trkpt>
<trkpt lat="40.0713749" lon="-105.229789">
  <ele>1583.0</ele>
  <time>2026-08-28T17:54:08Z</time>
  <course>0.0</course>
  <speed>0.0</speed>
  <fix>3d</fix>
</trkpt>
<trkpt lat="40.0713749" lon="-105.229789">
  <ele>1583.0</ele>
  <time>2026-08-28T17:54:08Z</time>
  <course>247.81</course>
  <speed>0.0316227766016838</speed>
  <fix>3d</fix>
</trkpt>
<trkpt lat="40.0713749" lon="-105.229789">
  <ele>1583.0</ele>
  <time>2026-08-28T17:54:08Z</time>
  <course>0.0</course>
  <speed>0.0</speed>
  <fix>3d</fix>
</trkpt>
<trkpt lat="40.0713749" lon="-105.229789">
  <ele>1583.0</ele>
  <time>2026-08-28T17:54:08Z</time>
  <course>247.81</course>
  <speed>0.0316227766016838</speed>
  <fix>3d</fix>
</trkpt>
<trkpt lat="40.0713749" lon="-105.229789">
  <ele>1583.0</ele>
  <time>2026-08-28T17:54:08Z</time>
  <course>0.0</course>
  <speed>0.0</speed>
  <fix>3d</fix>
</trkpt>
<trkpt lat="40.0713749" lon="-105.229789">
  <ele>1583.0</ele>
  <time>2026-08-28T17:54:08Z</time>
  <course>247.8</course>
  <speed>0.0316227766016838</speed>
  <fix>3d</fix>
</trkpt>
<trkpt lat="40.0713749" lon="-105.229789">
  <ele>1583.0</ele>
  <time>2026-08-28T17:54:08Z</time>
  <course>0.0</course>
  <speed>0.0</speed>
  <fix>3d</fix>
</trkpt>
<trkpt lat="40.0713749" lon="-105.229789">
  <ele>1583.0</ele>
  <time>2026-08-28T17:54:08Z</time>
  <course>247.8</course>
  <speed>0.0316227766016838</speed>
  <fix>3d</fix>
</trkpt>
<trkpt lat="40.0713749" lon="-105.229789">
  <ele>1583.0</ele>
  <time>2026-08-28T17:54:08Z</time>
  <course>0.0</course>
  <speed>0.0</speed>
  <fix>3d</fix>
</trkpt>
<trkpt lat="40.0713749" lon="-105.229789">
  <ele>1583.0</ele>
  <time>2026-08-28T17:54:08Z</time>
  <course>247.8</course>
  <speed>0.0316227766016838</speed>
  <fix>3d</fix>
</trkpt>
<trkpt lat="40.0713749" lon="-105.229789">
  <ele>1583.0</ele>
  <time>2026-08-28T17:54:08Z</time>
  <course>0.0</course>
  <speed>0.0</speed>
  <fix>3d</fix>
</trkpt>
<trkpt lat="40.0713749" lon="-105.229789">
  <ele>1583.0</ele>
  <time>2026-08-28T17:54:08Z</time>
  <course>247.79</course>
  <speed>0.0316227766016838</speed>
  <fix>3d</fix>
</trkpt>
<trkpt lat="40.0713749" lon="-105.229789">
  <ele>1583.0</ele>
  <time>2026-08-28T17:54:08Z</time>
  <course>0.0</course>
  <speed>0.0</speed>
  <fix>3d</fix>
</trkpt>
<trkpt lat="40.0713749" lon="-105.229789">
  <ele>1583.0</ele>
  <time>2026-08-28T17:54:08Z</time>
  <course>247.79</course>
  <speed>0.0316227766016838</speed>
  <fix>3d</fix>
</trkpt>
<trkpt lat="40.0713749" lon="-105.229789">
  <ele>1583.0</ele>
  <time>2026-08-28T17:54:08Z</time>
  <course>0.0</course>
  <speed>0.0</speed>
  <fix>3d</fix>
</trkpt>
<trkpt lat="40.0713749" lon="-105.229789">
  <ele>1583.0</ele>
  <time>2026-08-28T17:54:08Z</time>
  <course>247.79</course>
  <speed>0.0316227766016838</speed>
  <fix>3d</fix>
</trkpt>
<trkpt lat="40.0713749" lon="-105.229789">
  <ele>1583.0</ele>
  <time>2026-08-28T17:54:08Z</time>
  <course>0.0</course>
  <speed>0.0</speed>
  <fix>3d</fix>
</trkpt>
<trkpt lat="40.0713749" lon="-105.229789">
  <ele>1583.0</ele>
  <time>2026-08-28T17:54:08Z</time>
  <course>247.78</course>
  <speed>0.0316227766016838</speed>
  <fix>3d</fix>
</trkpt>
<trkpt lat="40.0713749" lon="-105.229789">
  <ele>1583.0</ele>
  <time>2026-08-28T17:54:08Z</time>
  <course>0.0</course>
  <speed>0.0</speed>
  <fix>3d</fix>
</trkpt>
<trkpt lat="40.0713749" lon="-105.229789">
  <ele>1583.0</ele>
  <time>2026-08-28T17:54:08Z</time>
  <course>247.78</course>
  <speed>0.0316227766016838</speed>
  <fix>3d</fix>
</trkpt>
<trkpt lat="40.0713749" lon="-105.229789">
  <ele>1583.0</ele>
  <time>2026-08-28T17:54:08Z</time>
  <course>0.0</course>
  <speed>0.0</speed>
  <fix>3d</fix>
</trkpt>
<trkpt lat="40.0713749" lon="-105.229789">
  <ele>1583.0</ele>
  <time>2026-08-28T17:54:08Z</time>
  <course>247.78</course>
  <speed>0.0316227766016838</speed>
  <fix>3d</fix>
</trkpt>
<trkpt lat="40.0713749" lon="-105.229789">
  <ele>1583.0</ele>
  <time>2026-08-28T17:54:08Z</time>
  <course>0.0</course>
  <speed>0.0</speed>
  <fix>3d</fix>
</trkpt>
<trkpt lat="40.0713749" lon="-105.229789">
  <ele>1583.0</ele>
  <time>2026-08-28T17:54:08Z</time>
  <course>247.77</course>
  <speed>0.0316227766016838</speed>
  <fix>3d</fix>
</trkpt>
<trkpt lat="40.0713749" lon="-105.229789">
  <ele>1583.0</ele>
  <time>2026-08-28T17:54:08Z</time>
  <course>0.0</course>
  <speed>0.0</speed>
  <fix>3d</fix>
</trkpt>
<trkpt lat="40.0713749" lon="-105.229789">
  <ele>1583.0</ele>
  <time>2026-08-28T17:54:08Z</time>
  <course>247.77</course>
  <speed>0.0316227766016838</speed>
  <fix>3d</fix>
</trkpt>
<trkpt lat="40.0713749" lon="-105.229789">
  <ele>1583.0</ele>
  <time>2026-08-28T17:54:08Z</time>
  <course>0.0</course>
  <speed>0.0</speed>
  <fix>3d</fix>
</trkpt>
<trkpt lat="40.0713749" lon="-105.229789">
  <ele>1583.0</ele>
  <time>2026-08-28T17:54:08Z</time>
  <course>247.76</course>
  <speed>0.0316227766016838</speed>
  <fix>3d</fix>
</trkpt>
<trkpt lat="40.0713749" lon="-105.229789">
  <ele>1583.0</ele>
  <time>2026-08-28T17:54:08Z</time>
  <course>0.0</course>
  <speed>0.0</speed>
  <fix>3d</fix>
</trkpt>
<trkpt lat="40.0713749" lon="-105.229789">
  <ele>1583.0</ele>
  <time>2026-08-28T17:54:08Z</time>
  <course>247.76</course>
  <speed>0.0316227766016838</speed>
  <fix>3d</fix>
</trkpt>
<trkpt lat="40.0713749" lon="-105.229789">
  <ele>1583.0</ele>
  <time>2026-08-28T17:54:08Z</time>
  <course>0.0</course>
  <speed>0.0</speed>
  <fix>3d</fix>
</trkpt>
<trkpt lat="40.0713749" lon="-105.229789">
  <ele>1583.0</ele>
  <time>2026-08-28T17:54:08Z</time>
  <course>247.76</course>
  <speed>0.0316227766016838</speed>
  <fix>3d</fix>
</trkpt>
<trkpt lat="40.0713749" lon="-105.229789">
  <ele>1583.0</ele>
  <time>2026-08-28T17:54:08Z</time>
  <course>0.0</course>
  <speed>0.0</speed>
  <fix>3d</fix>
</trkpt>
<trkpt lat="40.0713749" lon="-105.229789">
  <ele>1583.0</ele>
  <time>2026-08-28T17:54:08Z</time>
  <course>247.75</course>
  <speed>0.0316227766016838</speed>
  <fix>3d</fix>
</trkpt>
<trkpt lat="40.0713749" lon="-105.229789">
  <ele>1583.0</ele>
  <time>2026-08-28T17:54:08Z</time>
  <course>0.0</course>
  <speed>0.0</speed>
  <fix>3d</fix>
</trkpt>
<trkpt lat="40.0713749" lon="-105.229789">
  <ele>1583.0</ele>
  <time>2026-08-28T17:54:08Z</time>
  <course>247.75</course>
  <speed>0.0316227766016838</speed>
  <fix>3d</fix>
</trkpt>
<trkpt lat="40.0713749" lon="-105.229789">
  <ele>1583.0</ele>
  <time>2026-08-28T17:54:08Z</time>
  <course>0.0</course>
  <speed>0.0</speed>
  <fix>3d</fix>
</trkpt>
<trkpt lat="40.0713749" lon="-105.229789">
  <ele>1583.0</ele>
  <time>2026-08-28T17:54:08Z</time>
  <course>247.75</course>
  <speed>0.0316227766016838</speed>
  <fix>3d</fix>
</trkpt>
<trkpt lat="40.0713749" lon="-105.229789">
  <ele>1583.0</ele>
  <time>2026-08-28T17:54:08Z</time>
  <course>0.0</course>
  <speed>0.0</speed>
  <fix>3d</fix>
</trkpt>
<trkpt lat="40.0713749" lon="-105.229789">
  <ele>1583.0</ele>
  <time>2026-08-28T17:54:08Z</time>
  <course>247.74</course>
  <speed>0.0316227766016838</speed>
  <fix>3d</fix>
</trkpt>
<trkpt lat="40.0713749" lon="-105.229789">
  <ele>1583.0</ele>
  <time>2026-08-28T17:54:08Z</time>
  <course>0.0</course>
  <speed>0.0</speed>
  <fix>3d</fix>
</trkpt>
<trkpt lat="40.0713749" lon="-105.229789">
  <ele>1583.0</ele>
  <time>2026-08-28T17:54:08Z</time>
  <course>247.74</course>
  <speed>0.0316227766016838</speed>
  <fix>3d</fix>
</trkpt>
<trkpt lat="40.0713749" lon="-105.229789">
  <ele>1583.0</ele>
  <time>2026-08-28T17:54:08Z</time>
  <course>0.0</course>
  <speed>0.0</speed>
  <fix>3d</fix>
</trkpt>
<trkpt lat="40.0713749" lon="-105.229789">
  <ele>1583.0</ele>
  <time>2026-08-28T17:54:08Z</time>
  <course>247.74</course>
  <speed>0.0316227766016838</speed>
  <fix>3d</fix>
</trkpt>
<trkpt lat="40.0713749" lon="-105.229789">
  <ele>1583.0</ele>
  <time>2026-08-28T17:54:08Z</time>
  <course>0.0</course>
  <speed>0.0</speed>
  <fix>3d</fix>
</trkpt>
<trkpt lat="40.0713749" lon="-105.229789">
  <ele>1583.0</ele>
  <time>2026-08-28T17:54:08Z</time>
  <course>247.73</course>
  <speed>0.0316227766016838</speed>
  <fix>3d</fix>
</trkpt>
<trkpt lat="40.0713749" lon="-105.229789">
  <ele>1583.0</ele>
  <time>2026-08-28T17:54:08Z</time>
  <course>0.0</course>
  <speed>0.0</speed>
  <fix>3d</fix>
</trkpt>
<trkpt lat="40.0713749" lon="-105.229789">
  <ele>1583.0</ele>
  <time>2026-08-28T17:54:08Z</time>
  <course>247.73</course>
  <speed>0.0316227766016838</speed>
  <fix>3d</fix>
</trkpt>
<trkpt lat="40.0713749" lon="-105.229789">
  <ele>1583.0</ele>
  <time>2026-08-28T17:54:08Z</time>
  <course>0.0</course>
  <speed>0.0</speed>
  <fix>3d</fix>
</trkpt>
<trkpt lat="40.0713749" lon="-105.229789">
  <ele>1583.0</ele>
  <time>2026-08-28T17:54:08Z</time>
  <course>247.73</course>
  <speed>0.0316227766016838</speed>
  <fix>3d</fix>
</trkpt>
<trkpt lat="40.0713749" lon="-105.229789">
  <ele>1583.0</ele>
  <time>2026-08-28T17:54:08Z</time>
  <course>0.0</course>
  <speed>0.0</speed>
  <fix>3d</fix>
</trkpt>
<trkpt lat="40.0713749" lon="-105.229789">
  <ele>1583.0</ele>
  <time>2026-08-28T17:54:08Z</time>
  <course>247.72</course>
  <speed>0.0316227766016838</speed>
  <fix>3d</fix>
</trkpt>
<trkpt lat="40.0713749" lon="-105.229789">
  <ele>1583.0</ele>
  <time>2026-08-28T17:54:08Z</time>
  <course>0.0</course>
  <speed>0.0</speed>
  <fix>3d</fix>
</trkpt>
<trkpt lat="40.0713749" lon="-105.229789">
  <ele>1583.0</ele>
  <time>2026-08-28T17:54:08Z</time>
  <course>247.72</course>
  <speed>0.0316227766016838</speed>
  <fix>3d</fix>
</trkpt>
<trkpt lat="40.0713749" lon="-105.229789">
  <ele>1583.0</ele>
  <time>2026-08-28T17:54:08Z</time>
  <course>0.0</course>
  <speed>0.0</speed>
  <fix>3d</fix>
</trkpt>
<trkpt lat="40.0713749" lon="-105.229789">
  <ele>1583.0</ele>
  <time>2026-08-28T17:54:08Z</time>
  <course>247.72</course>
  <speed>0.0316227766016838</speed>
  <fix>3d</fix>
</trkpt>
<trkpt lat="40.0713749" lon="-105.229789">
  <ele>1583.0</ele>
  <time>2026-08-28T17:54:08Z</time>
  <course>0.0</course>
  <speed>0.0</speed>
  <fix>3d</fix>
</trkpt>
<trkpt lat="40.0713749" lon="-105.229789">
  <ele>1583.0</ele>
  <time>2026-08-28T17:54:08Z</time>
  <course>247.71</course>
  <speed>0.0316227766016838</speed>
  <fix>3d</fix>
</trkpt>
<trkpt lat="40.0713749" lon="-105.229789">
  <ele>1583.0</ele>
  <time>2026-08-28T17:54:08Z</time>
  <course>0.0</course>
  <speed>0.0</speed>
  <fix>3d</fix>
</trkpt>
<trkpt lat="40.0713749" lon="-105.229789">
  <ele>1583.0</ele>
  <time>2026-08-28T17:54:08Z</time>
  <course>247.71</course>
  <speed>0.0316227766016838</speed>
  <fix>3d</fix>
</trkpt>
<trkpt lat="40.0713749" lon="-105.229789">
  <ele>1583.0</ele>
  <time>2026-08-28T17:54:08Z</time>
  <course>0.0</course>
  <speed>0.0</speed>
  <fix>3d</fix>
</trkpt>
<trkpt lat="40.0713749" lon="-105.229789">
  <ele>1583.0</ele>
  <time>2026-08-28T17:54:08Z</time>
  <course>247.71</course>
  <speed>0.0316227766016838</speed>
  <fix>3d</fix>
</trkpt>
<trkpt lat="40.0713749" lon="-105.229789">
  <ele>1583.0</ele>
  <time>2026-08-28T17:54:08Z</time>
  <course>0.0</course>
  <speed>0.0</speed>
  <fix>3d</fix>
</trkpt>
<trkpt lat="40.0713749" lon="-105.229789">
  <ele>1583.0</ele>
  <time>2026-08-28T17:54:08Z</time>
  <course>247.7</course>
  <speed>0.0316227766016838</speed>
  <fix>3d</fix>
</trkpt>
<trkpt lat="40.0713749" lon="-105.229789">
  <ele>1583.0</ele>
  <time>2026-08-28T17:54:08Z</time>
  <course>0.0</course>
  <speed>0.0</speed>
  <fix>3d</fix>
</trkpt>
<trkpt lat="40.0713749" lon="-105.229789">
  <ele>1583.0</ele>
  <time>2026-08-28T17:54:08Z</time>
  <course>247.7</course>
  <speed>0.0316227766016838</speed>
  <fix>3d</fix>
</trkpt>
<trkpt lat="40.0713749" lon="-105.229789">
  <ele>1583.0</ele>
  <time>2026-08-28T17:54:08Z</time>
  <course>0.0</course>
  <speed>0.0</speed>
  <fix>3d</fix>
</trkpt>
<trkpt lat="40.0713749" lon="-105.229789">
  <ele>1583.0</ele>
  <time>2026-08-28T17:54:08Z</time>
  <course>247.7</course>
  <speed>0.0316227766016838</speed>
  <fix>3d</fix>
</trkpt>
<trkpt lat="40.0713749" lon="-105.229789">
  <ele>1583.0</ele>
  <time>2026-08-28T17:54:08Z</time>
  <course>0.0</course>
  <speed>0.0</speed>
  <fix>3d</fix>
</trkpt>
<trkpt lat="40.0713749" lon="-105.229789">
  <ele>1583.0</ele>
  <time>2026-08-28T17:54:08Z</time>
  <course>247.69</course>
  <speed>0.0316227766016838</speed>
  <fix>3d</fix>
</trkpt>
<trkpt lat="40.0713749" lon="-105.229789">
  <ele>1583.0</ele>
  <time>2026-08-28T17:54:08Z</time>
  <course>0.0</course>
  <speed>0.0</speed>
  <fix>3d</fix>
</trkpt>
<trkpt lat="40.0713749" lon="-105.229789">
  <ele>1583.0</ele>
  <time>2026-08-28T17:54:08Z</time>
  <course>247.69</course>
  <speed>0.0316227766016838</speed>
  <fix>3d</fix>
</trkpt>
<trkpt lat="40.0713749" lon="-105.229789">
  <ele>1583.0</ele>
  <time>2026-08-28T17:54:08Z</time>
  <course>0.0</course>
  <speed>0.0</speed>
  <fix>3d</fix>
</trkpt>
<trkpt lat="40.0713749" lon="-105.229789">
  <ele>1583.0</ele>
  <time>2026-08-28T17:54:08Z</time>
  <course>247.69</course>
  <speed>0.0316227766016838</speed>
  <fix>3d</fix>
</trkpt>
<trkpt lat="40.0713749" lon="-105.229789">
  <ele>1583.0</ele>
  <time>2026-08-28T17:54:08Z</time>
  <course>0.0</course>
  <speed>0.0</speed>
  <fix>3d</fix>
</trkpt>
<trkpt lat="40.0713749" lon="-105.229789">
  <ele>1583.0</ele>
  <time>2026-08-28T17:54:08Z</time>
  <course>247.68</course>
  <speed>0.0316227766016838</speed>
  <fix>3d</fix>
</trkpt>
<trkpt lat="40.0713749" lon="-105.229789">
  <ele>1583.0</ele>
  <time>2026-08-28T17:54:08Z</time>
  <course>0.0</course>
  <speed>0.0</speed>
  <fix>3d</fix>
</trkpt>
<trkpt lat="40.0713749" lon="-105.229789">
  <ele>1583.0</ele>
  <time>2026-08-28T17:54:08Z</time>
  <course>247.68</course>
  <speed>0.0316227766016838</speed>
  <fix>3d</fix>
</trkpt>
<trkpt lat="40.0713749" lon="-105.229789">
  <ele>1583.0</ele>
  <time>2026-08-28T17:54:08Z</time>
  <course>0.0</course>
  <speed>0.0</speed>
  <fix>3d</fix>
</trkpt>
<trkpt lat="40.0713749" lon="-105.229789">
  <ele>1583.0</ele>
  <time>2026-08-28T17:54:08Z</time>
  <course>247.68</course>
  <speed>0.0316227766016838</speed>
  <fix>3d</fix>
</trkpt>
<trkpt lat="40.0713749" lon="-105.229789">
  <ele>1583.0</ele>
  <time>2026-08-28T17:54:08Z</time>
  <course>0.0</course>
  <speed>0.0</speed>
  <fix>3d</fix>
</trkpt>
<trkpt lat="40.0713749" lon="-105.229789">
  <ele>1583.0</ele>
  <time>2026-08-28T17:54:08Z</time>
  <course>247.67</course>
  <speed>0.0316227766016838</speed>
  <fix>3d</fix>
</trkpt>
<trkpt lat="40.0713749" lon="-105.229789">
  <ele>1583.0</ele>
  <time>2026-08-28T17:54:08Z</time>
  <course>0.0</course>
  <speed>0.0</speed>
  <fix>3d</fix>
</trkpt>
<trkpt lat="40.0713749" lon="-105.229789">
  <ele>1583.0</ele>
  <time>2026-08-28T17:54:08Z</time>
  <course>247.67</course>
  <speed>0.0316227766016838</speed>
  <fix>3d</fix>
</trkpt>
<trkpt lat="40.0713749" lon="-105.229789">
  <ele>1583.0</ele>
  <time>2026-08-28T17:54:08Z</time>
  <course>0.0</course>
  <speed>0.0</speed>
  <fix>3d</fix>
</trkpt>
<trkpt lat="40.0713749" lon="-105.229789">
  <ele>1583.0</ele>
  <time>2026-08-28T17:54:08Z</time>
  <course>247.67</course>
  <speed>0.0316227766016838</speed>
  <fix>3d</fix>
</trkpt>
<trkpt lat="40.0713749" lon="-105.229789">
  <ele>1583.0</ele>
  <time>2026-08-28T17:54:08Z</time>
  <course>0.0</course>
  <speed>0.0</speed>
  <fix>3d</fix>
</trkpt>
<trkpt lat="40.0713749" lon="-105.229789">
  <ele>1583.0</ele>
  <time>2026-08-28T17:54:08Z</time>
  <course>247.66</course>
  <speed>0.0316227766016838</speed>
  <fix>3d</fix>
</trkpt>
<trkpt lat="40.0713749" lon="-105.229789">
  <ele>1583.0</ele>
  <time>2026-08-28T17:54:08Z</time>
  <course>0.0</course>
  <speed>0.0</speed>
  <fix>3d</fix>
</trkpt>
<trkpt lat="40.0713749" lon="-105.229789">
  <ele>1583.0</ele>
  <time>2026-08-28T17:54:08Z</time>
  <course>247.66</course>
  <speed>0.0316227766016838</speed>
  <fix>3d</fix>
</trkpt>
<trkpt lat="40.0713749" lon="-105.229789">
  <ele>1583.0</ele>
  <time>2026-08-28T17:54:08Z</time>
  <course>0.0</course>
  <speed>0.0</speed>
  <fix>3d</fix>
</trkpt>
<trkpt lat="40.0713749" lon="-105.229789">
  <ele>1583.0</ele>
  <time>2026-08-28T17:54:08Z</time>
  <course>247.66</course>
  <speed>0.0316227766016838</speed>
  <fix>3d</fix>
</trkpt>
<trkpt lat="40.0713749" lon="-105.229789">
  <ele>1583.0</ele>
  <time>2026-08-28T17:54:08Z</time>
  <course>0.0</course>
  <speed>0.0</speed>
  <fix>3d</fix>
</trkpt>
<trkpt lat="40.0713749" lon="-105.229789">
  <ele>1583.0</ele>
  <time>2026-08-28T17:54:08Z</time>
  <course>247.65</course>
  <speed>0.0316227766016838</speed>
  <fix>3d</fix>
</trkpt>
<trkpt lat="40.0713749" lon="-105.229789">
  <ele>1583.0</ele>
  <time>2026-08-28T17:54:08Z</time>
  <course>0.0</course>
  <speed>0.0</speed>
  <fix>3d</fix>
</trkpt>
<trkpt lat="40.0713749" lon="-105.229789">
  <ele>1583.0</ele>
  <time>2026-08-28T17:54:08Z</time>
  <course>247.65</course>
  <speed>0.0316227766016838</speed>
  <fix>3d</fix>
</trkpt>
<trkpt lat="40.0713749" lon="-105.229789">
  <ele>1583.0</ele>
  <time>2026-08-28T17:54:08Z</time>
  <course>0.0</course>
  <speed>0.0</speed>
  <fix>3d</fix>
</trkpt>
<trkpt lat="40.0713749" lon="-105.229789">
  <ele>1583.0</ele>
  <time>2026-08-28T17:54:08Z</time>
  <course>247.65</course>
  <speed>0.0316227766016838</speed>
  <fix>3d</fix>
</trkpt>
<trkpt lat="40.0713749" lon="-105.229789">
  <ele>1583.0</ele>
  <time>2026-08-28T17:54:08Z</time>
  <course>0.0</course>
  <speed>0.0</speed>
  <fix>3d</fix>
</trkpt>
<trkpt lat="40.0713749" lon="-105.229789">
  <ele>1583.0</ele>
  <time>2026-08-28T17:54:08Z</time>
  <course>247.64</course>
  <speed>0.0316227766016838</speed>
  <fix>3d</fix>
</trkpt>
<trkpt lat="40.0713749" lon="-105.229789">
  <ele>1583.0</ele>
  <time>2026-08-28T17:54:08Z</time>
  <course>0.0</course>
  <speed>0.0</speed>
  <fix>3d</fix>
</trkpt>
<trkpt lat="40.0713749" lon="-105.229789">
  <ele>1583.0</ele>
  <time>2026-08-28T17:54:08Z</time>
  <course>247.64</course>
  <speed>0.0316227766016838</speed>
  <fix>3d</fix>
</trkpt>
<trkpt lat="40.0713749" lon="-105.229789">
  <ele>1583.0</ele>
  <time>2026-08-28T17:54:08Z</time>
  <course>0.0</course>
  <speed>0.0</speed>
  <fix>3d</fix>
</trkpt>
<trkpt lat="40.0713749" lon="-105.229789">
  <ele>1583.0</ele>
  <time>2026-08-28T17:54:08Z</time>
  <course>247.64</course>
  <speed>0.0316227766016838</speed>
  <fix>3d</fix>
</trkpt>
<trkpt lat="40.0713749" lon="-105.229789">
  <ele>1583.0</ele>
  <time>2026-08-28T17:54:08Z</time>
  <course>0.0</course>
  <speed>0.0</speed>
  <fix>3d</fix>
</trkpt>
<trkpt lat="40.0713749" lon="-105.229789">
  <ele>1583.0</ele>
  <time>2026-08-28T17:54:08Z</time>
  <course>247.64</course>
  <speed>0.0316227766016838</speed>
  <fix>3d</fix>
</trkpt>
<trkpt lat="40.0713749" lon="-105.229789">
  <ele>1583.0</ele>
  <time>2026-08-28T17:54:08Z</time>
  <course>0.0</course>
  <speed>0.0</speed>
  <fix>3d</fix>
</trkpt>
<trkpt lat="40.0713749" lon="-105.229789">
  <ele>1583.0</ele>
  <time>2026-08-28T17:54:08Z</time>
  <course>247.63</course>
  <speed>0.0316227766016838</speed>
  <fix>3d</fix>
</trkpt>
<trkpt lat="40.0713749" lon="-105.229789">
  <ele>1583.0</ele>
  <time>2026-08-28T17:54:08Z</time>
  <course>0.0</course>
  <speed>0.0</speed>
  <fix>3d</fix>
</trkpt>
<trkpt lat="40.0713749" lon="-105.229789">
  <ele>1583.0</ele>
  <time>2026-08-28T17:54:08Z</time>
  <course>247.63</course>
  <speed>0.0316227766016838</speed>
  <fix>3d</fix>
</trkpt>
<trkpt lat="40.0713749" lon="-105.229789">
  <ele>1583.0</ele>
  <time>2026-08-28T17:54:08Z</time>
  <course>0.0</course>
  <speed>0.0</speed>
  <fix>3d</fix>
</trkpt>
<trkpt lat="40.0713749" lon="-105.229789">
  <ele>1583.0</ele>
  <time>2026-08-28T17:54:08Z</time>
  <course>247.63</course>
  <speed>0.0316227766016838</speed>
  <fix>3d</fix>
</trkpt>
<trkpt lat="40.0713749" lon="-105.229789">
  <ele>1583.0</ele>
  <time>2026-08-28T17:54:08Z</time>
  <course>0.0</course>
  <speed>0.0</speed>
  <fix>3d</fix>
</trkpt>
<trkpt lat="40.0713749" lon="-105.229789">
  <ele>1583.0</ele>
  <time>2026-08-28T17:54:08Z</time>
  <course>247.62</course>
  <speed>0.0316227766016838</speed>
  <fix>3d</fix>
</trkpt>
<trkpt lat="40.0713749" lon="-105.229789">
  <ele>1583.0</ele>
  <time>2026-08-28T17:54:08Z</time>
  <course>0.0</course>
  <speed>0.0</speed>
  <fix>3d</fix>
</trkpt>
<trkpt lat="40.0713749" lon="-105.229789">
  <ele>1583.0</ele>
  <time>2026-08-28T17:54:08Z</time>
  <course>247.62</course>
  <speed>0.0316227766016838</speed>
  <fix>3d</fix>
</trkpt>
<trkpt lat="40.0713749" lon="-105.229789">
  <ele>1583.0</ele>
  <time>2026-08-28T17:54:08Z</time>
  <course>0.0</course>
  <speed>0.0</speed>
  <fix>3d</fix>
</trkpt>
<trkpt lat="40.0713749" lon="-105.229789">
  <ele>1583.0</ele>
  <time>2026-08-28T17:54:08Z</time>
  <course>247.62</course>
  <speed>0.0316227766016838</speed>
  <fix>3d</fix>
</trkpt>
<trkpt lat="40.0713749" lon="-105.229789">
  <ele>1583.0</ele>
  <time>2026-08-28T17:54:08Z</time>
  <course>0.0</course>
  <speed>0.0</speed>
  <fix>3d</fix>
</trkpt>
<trkpt lat="40.0713749" lon="-105.229789">
  <ele>1583.0</ele>
  <time>2026-08-28T17:54:08Z</time>
  <course>247.62</course>
  <speed>0.0316227766016838</speed>
  <fix>3d</fix>
</trkpt>
<trkpt lat="40.0713749" lon="-105.229789">
  <ele>1583.0</ele>
  <time>2026-08-28T17:54:08Z</time>
  <course>0.0</course>
  <speed>0.0</speed>
  <fix>3d</fix>
</trkpt>
<trkpt lat="40.0713749" lon="-105.229789">
  <ele>1583.0</ele>
  <time>2026-08-28T17:54:08Z</time>
  <course>247.61</course>
  <speed>0.0316227766016838</speed>
  <fix>3d</fix>
</trkpt>
<trkpt lat="40.0713749" lon="-105.229789">
  <ele>1583.0</ele>
  <time>2026-08-28T17:54:08Z</time>
  <course>0.0</course>
  <speed>0.0</speed>
  <fix>3d</fix>
</trkpt>
<trkpt lat="40.0713749" lon="-105.229789">
  <ele>1583.0</ele>
  <time>2026-08-28T17:54:08Z</time>
  <course>247.61</course>
  <speed>0.0316227766016838</speed>
  <fix>3d</fix>
</trkpt>
<trkpt lat="40.0713749" lon="-105.229789">
  <ele>1583.0</ele>
  <time>2026-08-28T17:54:08Z</time>
  <course>0.0</course>
  <speed>0.0</speed>
  <fix>3d</fix>
</trkpt>
<trkpt lat="40.0713749" lon="-105.229789">
  <ele>1583.0</ele>
  <time>2026-08-28T17:54:08Z</time>
  <course>247.61</course>
  <speed>0.0316227766016838</speed>
  <fix>3d</fix>
</trkpt>
<trkpt lat="40.0713749" lon="-105.229789">
  <ele>1583.0</ele>
  <time>2026-08-28T17:54:08Z</time>
  <course>0.0</course>
  <speed>0.0</speed>
  <fix>3d</fix>
</trkpt>
<trkpt lat="40.0713749" lon="-105.229789">
  <ele>1583.0</ele>
  <time>2026-08-28T17:54:08Z</time>
  <course>247.6</course>
  <speed>0.0316227766016838</speed>
  <fix>3d</fix>
</trkpt>
<trkpt lat="40.0713749" lon="-105.229789">
  <ele>1583.0</ele>
  <time>2026-08-28T17:54:08Z</time>
  <course>0.0</course>
  <speed>0.0</speed>
  <fix>3d</fix>
</trkpt>
<trkpt lat="40.0713749" lon="-105.229789">
  <ele>1583.0</ele>
  <time>2026-08-28T17:54:08Z</time>
  <course>247.6</course>
  <speed>0.0316227766016838</speed>
  <fix>3d</fix>
</trkpt>
<trkpt lat="40.0713749" lon="-105.229789">
  <ele>1583.0</ele>
  <time>2026-08-28T17:54:08Z</time>
  <course>0.0</course>
  <speed>0.0</speed>
  <fix>3d</fix>
</trkpt>
<trkpt lat="40.0713749" lon="-105.229789">
  <ele>1583.0</ele>
  <time>2026-08-28T17:54:08Z</time>
  <course>247.6</course>
  <speed>0.0316227766016838</speed>
  <fix>3d</fix>
</trkpt>
<trkpt lat="40.0713749" lon="-105.229789">
  <ele>1583.0</ele>
  <time>2026-08-28T17:54:08Z</time>
  <course>0.0</course>
  <speed>0.0</speed>
  <fix>3d</fix>
</trkpt>
<trkpt lat="40.0713749" lon="-105.229789">
  <ele>1583.0</ele>
  <time>2026-08-28T17:54:08Z</time>
  <course>247.6</course>
  <speed>0.0316227766016838</speed>
  <fix>3d</fix>
</trkpt>
<trkpt lat="40.0713749" lon="-105.229789">
  <ele>1583.0</ele>
  <time>2026-08-28T17:54:08Z</time>
  <course>0.0</course>
  <speed>0.0</speed>
  <fix>3d</fix>
</trkpt>
<trkpt lat="40.0713749" lon="-105.229789">
  <ele>1583.0</ele>
  <time>2026-08-28T17:54:08Z</time>
  <course>247.59</course>
  <speed>0.0316227766016838</speed>
  <fix>3d</fix>
</trkpt>
<trkpt lat="40.0713749" lon="-105.229789">
  <ele>1583.0</ele>
  <time>2026-08-28T17:54:08Z</time>
  <course>0.0</course>
  <speed>0.0</speed>
  <fix>3d</fix>
</trkpt>
<trkpt lat="40.0713749" lon="-105.229789">
  <ele>1582.92</ele>
  <time>2026-08-28T17:54:08Z</time>
  <course>247.59</course>
  <speed>0.0</speed>
  <fix>3d</fix>
</trkpt>
<trkpt lat="40.0713749" lon="-105.229789">
  <ele>1583.0</ele>
  <time>2026-08-28T17:54:08Z</time>
  <course>0.0</course>
  <speed>0.0</speed>
  <fix>3d</fix>
</trkpt>
<trkpt lat="40.0713749" lon="-105.229789">
  <ele>1582.92</ele>
  <time>2026-08-28T17:54:08Z</time>
  <course>247.59</course>
  <speed>0.0</speed>
  <fix>3d</fix>
</trkpt>
<trkpt lat="40.0713749" lon="-105.229789">
  <ele>1583.0</ele>
  <time>2026-08-28T17:54:08Z</time>
  <course>0.0</course>
  <speed>0.0</speed>
  <fix>3d</fix>
</trkpt>
<trkpt lat="40.0713749" lon="-105.229789">
  <ele>1582.91</ele>
  <time>2026-08-28T17:54:08Z</time>
  <course>247.58</course>
  <speed>0.0</speed>
  <fix>3d</fix>
</trkpt>
<trkpt lat="40.0713749" lon="-105.229789">
  <ele>1583.0</ele>
  <time>2026-08-28T17:54:08Z</time>
  <course>0.0</course>
  <speed>0.0</speed>
  <fix>3d</fix>
</trkpt>
<trkpt lat="40.0713749" lon="-105.229789">
  <ele>1582.91</ele>
  <time>2026-08-28T17:54:08Z</time>
  <course>247.58</course>
  <speed>0.0</speed>
  <fix>3d</fix>
</trkpt>
<trkpt lat="40.0713749" lon="-105.229789">
  <ele>1583.0</ele>
  <time>2026-08-28T17:54:08Z</time>
  <course>0.0</course>
  <speed>0.0</speed>
  <fix>3d</fix>
</trkpt>
<trkpt lat="40.0713749" lon="-105.229789">
  <ele>1582.9</ele>
  <time>2026-08-28T17:54:08Z</time>
  <course>247.58</course>
  <speed>0.0</speed>
  <fix>3d</fix>
</trkpt>
<trkpt lat="40.0713749" lon="-105.229789">
  <ele>1583.0</ele>
  <time>2026-08-28T17:54:08Z</time>
  <course>0.0</course>
  <speed>0.0</speed>
  <fix>3d</fix>
</trkpt>
<trkpt lat="40.0713749" lon="-105.229789">
  <ele>1582.9</ele>
  <time>2026-08-28T17:54:08Z</time>
  <course>247.58</course>
  <speed>0.0</speed>
  <fix>3d</fix>
</trkpt>
<trkpt lat="40.0713749" lon="-105.229789">
  <ele>1583.0</ele>
  <time>2026-08-28T17:54:08Z</time>
  <course>0.0</course>
  <speed>0.0</speed>
  <fix>3d</fix>
</trkpt>
<trkpt lat="40.0713749" lon="-105.229789">
  <ele>1582.9</ele>
  <time>2026-08-28T17:54:08Z</time>
  <course>247.57</course>
  <speed>0.0</speed>
  <fix>3d</fix>
</trkpt>
<trkpt lat="40.0713749" lon="-105.229789">
  <ele>1583.0</ele>
  <time>2026-08-28T17:54:08Z</time>
  <course>0.0</course>
  <speed>0.0</speed>
  <fix>3d</fix>
</trkpt>
<trkpt lat="40.0713749" lon="-105.229789">
  <ele>1582.9</ele>
  <time>2026-08-28T17:54:08Z</time>
  <course>247.57</course>
  <speed>0.0</speed>
  <fix>3d</fix>
</trkpt>
<trkpt lat="40.0713749" lon="-105.229789">
  <ele>1583.0</ele>
  <time>2026-08-28T17:54:08Z</time>
  <course>0.0</course>
  <speed>0.0</speed>
  <fix>3d</fix>
</trkpt>
<trkpt lat="40.0713749" lon="-105.229789">
  <ele>1582.9</ele>
  <time>2026-08-28T17:54:08Z</time>
  <course>247.57</course>
  <speed>0.0</speed>
  <fix>3d</fix>
</trkpt>
<trkpt lat="40.0713749" lon="-105.229789">
  <ele>1583.0</ele>
  <time>2026-08-28T17:54:08Z</time>
  <course>0.0</course>
  <speed>0.0</speed>
  <fix>3d</fix>
</trkpt>
<trkpt lat="40.0713749" lon="-105.229789">
  <ele>1582.9</ele>
  <time>2026-08-28T17:54:08Z</time>
  <course>247.57</course>
  <speed>0.01</speed>
  <fix>3d</fix>
</trkpt>
<trkpt lat="40.0713749" lon="-105.229789">
  <ele>1583.0</ele>
  <time>2026-08-28T17:54:08Z</time>
  <course>0.0</course>
  <speed>0.0</speed>
  <fix>3d</fix>
</trkpt>
<trkpt lat="40.0713749" lon="-105.229789">
  <ele>1582.9</ele>
  <time>2026-08-28T17:54:08Z</time>
  <course>247.56</course>
  <speed>0.01</speed>
  <fix>3d</fix>
</trkpt>
<trkpt lat="40.0713749" lon="-105.229789">
  <ele>1583.0</ele>
  <time>2026-08-28T17:54:08Z</time>
  <course>0.0</course>
  <speed>0.0</speed>
  <fix>3d</fix>
</trkpt>
<trkpt lat="40.0713749" lon="-105.229789">
  <ele>1582.91</ele>
  <time>2026-08-28T17:54:08Z</time>
  <course>247.56</course>
  <speed>0.01</speed>
  <fix>3d</fix>
</trkpt>
<trkpt lat="40.0713749" lon="-105.229789">
  <ele>1583.0</ele>
  <time>2026-08-28T17:54:08Z</time>
  <course>0.0</course>
  <speed>0.0</speed>
  <fix>3d</fix>
</trkpt>
<trkpt lat="40.0713749" lon="-105.229789">
  <ele>1582.91</ele>
  <time>2026-08-28T17:54:08Z</time>
  <course>247.56</course>
  <speed>0.01</speed>
  <fix>3d</fix>
</trkpt>
<trkpt lat="40.0713749" lon="-105.229789">
  <ele>1583.0</ele>
  <time>2026-08-28T17:54:08Z</time>
  <course>0.0</course>
  <speed>0.0</speed>
  <fix>3d</fix>
</trkpt>
<trkpt lat="40.0713749" lon="-105.229789">
  <ele>1582.92</ele>
  <time>2026-08-28T17:54:08Z</time>
  <course>247.55</course>
  <speed>0.01</speed>
  <fix>3d</fix>
</trkpt>
<trkpt lat="40.0713749" lon="-105.229789">
  <ele>1583.0</ele>
  <time>2026-08-28T17:54:08Z</time>
  <course>245.99</course>
  <speed>0.0</speed>
  <fix>3d</fix>
</trkpt>
<trkpt lat="40.0713749" lon="-105.229789">
  <ele>1582.92</ele>
  <time>2026-08-28T17:54:08Z</time>
  <course>247.53</course>
  <speed>0.01</speed>
  <fix>3d</fix>
</trkpt>
<trkpt lat="40.0713749" lon="-105.229789">
  <ele>1583.0</ele>
  <time>2026-08-28T17:54:08Z</time>
  <course>245.99</course>
  <speed>0.0</speed>
  <fix>3d</fix>
</trkpt>
<trkpt lat="40.0713749" lon="-105.229789">
  <ele>1582.92</ele>
  <time>2026-08-28T17:54:08Z</time>
  <course>247.58</course>
  <speed>0.01</speed>
  <fix>3d</fix>
</trkpt>
<trkpt lat="40.0713749" lon="-105.229789">
  <ele>1583.0</ele>
  <time>2026-08-28T17:54:08Z</time>
  <course>245.99</course>
  <speed>0.0</speed>
  <fix>3d</fix>
</trkpt>
<trkpt lat="40.0713749" lon="-105.229789">
  <ele>1582.93</ele>
  <time>2026-08-28T17:54:08Z</time>
  <course>247.69</course>
  <speed>0.03</speed>
  <fix>3d</fix>
</trkpt>
<trkpt lat="40.0713749" lon="-105.229789">
  <ele>1583.0</ele>
  <time>2026-08-28T17:54:08Z</time>
  <course>246.02</course>
  <speed>0.01</speed>
  <fix>3d</fix>
</trkpt>
<trkpt lat="40.0713749" lon="-105.2297891">
  <ele>1582.93</ele>
  <time>2026-08-28T17:54:08Z</time>
  <course>247.91</course>
  <speed>0.05</speed>
  <fix>3d</fix>
</trkpt>
<trkpt lat="40.0713749" lon="-105.229789">
  <ele>1583.0</ele>
  <time>2026-08-28T17:54:08Z</time>
  <course>246.02</course>
  <speed>0.01</speed>
  <fix>3d</fix>
</trkpt>
<trkpt lat="40.0713749" lon="-105.2297891">
  <ele>1582.93</ele>
  <time>2026-08-28T17:54:08Z</time>
  <course>248.28</course>
  <speed>0.08062257748298549</speed>
  <fix>3d</fix>
</trkpt>
<trkpt lat="40.0713749" lon="-105.229789">
  <ele>1583.0</ele>
  <time>2026-08-28T17:54:08Z</time>
  <course>246.27</course>
  <speed>0.04</speed>
  <fix>3d</fix>
</trkpt>
<trkpt lat="40.0713749" lon="-105.2297893">
  <ele>1582.93</ele>
  <time>2026-08-28T17:54:08Z</time>
  <course>248.86</course>
  <speed>0.1118033988749895</speed>
  <fix>3d</fix>
</trkpt>
<trkpt lat="40.0713749" lon="-105.229789">
  <ele>1583.0</ele>
  <time>2026-08-28T17:54:08Z</time>
  <course>246.27</course>
  <speed>0.04</speed>
  <fix>3d</fix>
</trkpt>
<trkpt lat="40.0713749" lon="-105.2297894">
  <ele>1582.94</ele>
  <time>2026-08-28T17:54:08Z</time>
  <course>249.71</course>
  <speed>0.15524174696260024</speed>
  <fix>3d</fix>
</trkpt>
<trkpt lat="40.0713749" lon="-105.2297892">
  <ele>1583.0</ele>
  <time>2026-08-28T17:54:08Z</time>
  <course>247.0</course>
  <speed>0.1</speed>
  <fix>3d</fix>
</trkpt>
<trkpt lat="40.0713748" lon="-105.2297897">
  <ele>1582.94</ele>
  <time>2026-08-28T17:54:08Z</time>
  <course>250.88</course>
  <speed>0.196468827043885</speed>
  <fix>3d</fix>
</trkpt>
<trkpt lat="40.0713748" lon="-105.2297895">
  <ele>1583.0</ele>
  <time>2026-08-28T17:54:08Z</time>
  <course>248.58</course>
  <speed>0.17</speed>
  <fix>3d</fix>
</trkpt>
<trkpt lat="40.0713747" lon="-105.2297899">
  <ele>1582.94</ele>
  <time>2026-08-28T17:54:08Z</time>
  <course>252.4</course>
  <speed>0.24738633753705963</speed>
  <fix>3d</fix>
</trkpt>
<trkpt lat="40.0713748" lon="-105.2297895">
  <ele>1583.0</ele>
  <time>2026-08-28T17:54:08Z</time>
  <course>248.58</course>
  <speed>0.17</speed>
  <fix>3d</fix>
</trkpt>
<trkpt lat="40.0713747" lon="-105.2297903">
  <ele>1582.95</ele>
  <time>2026-08-28T17:54:08Z</time>
  <course>254.21</course>
  <speed>0.29614185789921693</speed>
  <fix>3d</fix>
</trkpt>
<trkpt lat="40.0713747" lon="-105.22979">
  <ele>1583.0</ele>
  <time>2026-08-28T17:54:08Z</time>
  <course>251.32</course>
  <speed>0.26</speed>
  <fix>3d</fix>
</trkpt>
<trkpt lat="40.0713746" lon="-105.2297907">
  <ele>1582.95</ele>
  <time>2026-08-28T17:54:08Z</time>
  <course>256.32</course>
  <speed>0.34525353003264136</speed>
  <fix>3d</fix>
</trkpt>
<trkpt lat="40.0713747" lon="-105.22979">
  <ele>1583.0</ele>
  <time>2026-08-28T17:54:08Z</time>
  <course>251.32</course>
  <speed>0.26</speed>
  <fix>3d</fix>
</trkpt>
<trkpt lat="40.0713745" lon="-105.2297911">
  <ele>1582.95</ele>
  <time>2026-08-28T17:54:08Z</time>
  <course>258.77</course>
  <speed>0.4044749683231337</speed>
  <fix>3d</fix>
</trkpt>
<trkpt lat="40.0713746" lon="-105.2297907">
  <ele>1583.0</ele>
  <time>2026-08-28T17:54:08Z</time>
  <course>255.3</course>
  <speed>0.36</speed>
  <fix>3d</fix>
</trkpt>
<trkpt lat="40.0713745" lon="-105.2297917">
  <ele>1582.96</ele>
  <time>2026-08-28T17:54:08Z</time>
  <course>261.53</course>
  <speed>0.45276925690687087</speed>
  <fix>3d</fix>
</trkpt>
<trkpt lat="40.0713746" lon="-105.2297907">
  <ele>1583.0</ele>
  <time>2026-08-28T17:54:08Z</time>
  <course>255.3</course>
  <speed>0.36</speed>
  <fix>3d</fix>
</trkpt>
<trkpt lat="40.0713744" lon="-105.2297922">
  <ele>1582.96</ele>
  <time>2026-08-28T17:54:08Z</time>
  <course>264.62</course>
  <speed>0.5108815909777921</speed>
  <fix>3d</fix>
</trkpt>
<trkpt lat="40.0713744" lon="-105.2297916">
  <ele>1583.0</ele>
  <time>2026-08-28T17:54:08Z</time>
  <course>260.53</course>
  <speed>0.46</speed>
  <fix>3d</fix>
</trkpt>
<trkpt lat="40.0713744" lon="-105.2297929">
  <ele>1582.96</ele>
  <time>2026-08-28T17:54:08Z</time>
  <course>268.04</course>
  <speed>0.56</speed>
  <fix>3d</fix>
</trkpt>
<trkpt lat="40.0713744" lon="-105.2297916">
  <ele>1583.0</ele>
  <time>2026-08-28T17:54:08Z</time>
  <course>260.53</course>
  <speed>0.46</speed>
  <fix>3d</fix>
</trkpt>
<trkpt lat="40.0713744" lon="-105.2297936">
  <ele>1582.96</ele>
  <time>2026-08-28T17:54:08Z</time>
  <course>271.72</course>
  <speed>0.6107372593840988</speed>
  <fix>3d</fix>
</trkpt>
<trkpt lat="40.0713743" lon="-105.2297927">
  <ele>1583.0</ele>
  <time>2026-08-28T17:54:08Z</time>
  <course>266.99</course>
  <speed>0.55</speed>
  <fix>3d</fix>
</trkpt>
<trkpt lat="40.0713744" lon="-105.2297944">
  <ele>1582.96</ele>
  <time>2026-08-28T17:54:08Z</time>
  <course>275.69</course>
  <speed>0.6549045732013177</speed>
  <fix>3d</fix>
</trkpt>
<trkpt lat="40.0713743" lon="-105.2297927">
  <ele>1583.0</ele>
  <time>2026-08-28T17:54:08Z</time>
  <course>266.99</course>
  <speed>0.55</speed>
  <fix>3d</fix>
</trkpt>
<trkpt lat="40.0713744" lon="-105.2297952">
  <ele>1582.96</ele>
  <time>2026-08-28T17:54:08Z</time>
  <course>279.92</course>
  <speed>0.692314957226839</speed>
  <fix>3d</fix>
</trkpt>
<trkpt lat="40.0713743" lon="-105.2297941">
  <ele>1583.0</ele>
  <time>2026-08-28T17:54:08Z</time>
  <course>274.61</course>
  <speed>0.64</speed>
  <fix>3d</fix>
</trkpt>
<trkpt lat="40.0713745" lon="-105.229796">
  <ele>1582.95</ele>
  <time>2026-08-28T17:54:08Z</time>
  <course>284.39</course>
  <speed>0.7349829930005184</speed>
  <fix>3d</fix>
</trkpt>
<trkpt lat="40.0713743" lon="-105.2297941">
  <ele>1583.0</ele>
  <time>2026-08-28T17:54:08Z</time>
  <course>274.61</course>
  <speed>0.64</speed>
  <fix>3d</fix>
</trkpt>
<trkpt lat="40.0713747" lon="-105.2297968">
  <ele>1582.95</ele>
  <time>2026-08-28T17:54:08Z</time>
  <course>289.08</course>
  <speed>0.7655063683601856</speed>
  <fix>3d</fix>
</trkpt>
<trkpt lat="40.0713745" lon="-105.2297958">
  <ele>1583.0</ele>
  <time>2026-08-28T17:54:08Z</time>
  <course>283.27</course>
  <speed>0.71</speed>
  <fix>3d</fix>
</trkpt>
<trkpt lat="40.071375" lon="-105.2297977">
  <ele>1582.95</ele>
  <time>2026-08-28T17:54:08Z</time>
  <course>293.98</course>
  <speed>0.8011242100947892</speed>
  <fix>3d</fix>
</trkpt>
<trkpt lat="40.0713745" lon="-105.2297958">
  <ele>1583.0</ele>
  <time>2026-08-28T17:54:08Z</time>
  <course>283.27</course>
  <speed>0.71</speed>
  <fix>3d</fix>
</trkpt>
<trkpt lat="40.0713753" lon="-105.2297986">
  <ele>1582.95</ele>
  <time>2026-08-28T17:54:08Z</time>
  <course>299.06</course>
  <speed>0.8285529554590945</speed>
  <fix>3d</fix>
</trkpt>
<trkpt lat="40.0713745" lon="-105.2297958">
  <ele>1583.0</ele>
  <time>2026-08-28T17:54:08Z</time>
  <course>283.27</course>
  <speed>0.71</speed>
  <fix>3d</fix>
</trkpt>
<trkpt lat="40.0713757" lon="-105.2297994">
  <ele>1582.95</ele>
  <time>2026-08-28T17:54:08Z</time>
  <course>304.31</course>
  <speed>0.8544588931013593</speed>
  <fix>3d</fix>
</trkpt>
<trkpt lat="40.0713748" lon="-105.2297974">
  <ele>1583.0</ele>
  <time>2026-08-28T17:54:08Z</time>
  <course>292.84</course>
  <speed>0.78</speed>
  <fix>3d</fix>
</trkpt>
<trkpt lat="40.0713762" lon="-105.2298002">
  <ele>1582.95</ele>
  <time>2026-08-28T17:54:08Z</time>
  <course>309.73</course>
  <speed>0.8796590248499698</speed>
  <fix>3d</fix>
</trkpt>
<trkpt lat="40.0713748" lon="-105.2297974">
  <ele>1583.0</ele>
  <time>2026-08-28T17:54:08Z</time>
  <course>292.84</course>
  <speed>0.78</speed>
  <fix>3d</fix>
</trkpt>
<trkpt lat="40.0713767" lon="-105.229801">
  <ele>1582.95</ele>
  <time>2026-08-28T17:54:08Z</time>
  <course>315.31</course>
  <speed>0.9052071586106685</speed>
  <fix>3d</fix>
</trkpt>
<trkpt lat="40.0713755" lon="-105.2297991">
  <ele>1583.0</ele>
  <time>2026-08-28T17:54:08Z</time>
  <course>303.19</course>
  <speed>0.83</speed>
  <fix>3d</fix>
</trkpt>
<trkpt lat="40.0713773" lon="-105.2298017">
  <ele>1582.95</ele>
  <time>2026-08-28T17:54:08Z</time>
  <course>321.04</course>
  <speed>0.9323625904121208</speed>
  <fix>3d</fix>
</trkpt>
<trkpt lat="40.0713755" lon="-105.2297991">
  <ele>1583.0</ele>
  <time>2026-08-28T17:54:08Z</time>
  <course>303.19</course>
  <speed>0.83</speed>
  <fix>3d</fix>
</trkpt>
<trkpt lat="40.071378" lon="-105.2298023">
  <ele>1582.95</ele>
  <time>2026-08-28T17:54:08Z</time>
  <course>326.93</course>
  <speed>0.9541488353501251</speed>
  <fix>3d</fix>
</trkpt>
<trkpt lat="40.0713765" lon="-105.2298007">
  <ele>1583.0</ele>
  <time>2026-08-28T17:54:08Z</time>
  <course>314.18</course>
  <speed>0.88</speed>
  <fix>3d</fix>
</trkpt>
<trkpt lat="40.0713787" lon="-105.2298028">
  <ele>1582.95</ele>
  <time>2026-08-28T17:54:08Z</time>
  <course>332.62</course>
  <speed>0.9794896630388705</speed>
  <fix>3d</fix>
</trkpt>
<trkpt lat="40.0713765" lon="-105.2298007">
  <ele>1583.0</ele>
  <time>2026-08-28T17:54:08Z</time>
  <course>314.18</course>
  <speed>0.88</speed>
  <fix>3d</fix>
</trkpt>
<trkpt lat="40.0713795" lon="-105.2298033">
  <ele>1582.95</ele>
  <time>2026-08-28T17:54:08Z</time>
  <course>337.88</course>
  <speed>1.0139033484509261</speed>
  <fix>3d</fix>
</trkpt>
<trkpt lat="40.0713778" lon="-105.2298021">
  <ele>1583.0</ele>
  <time>2026-08-28T17:54:08Z</time>
  <course>325.65</course>
  <speed>0.93</speed>
  <fix>3d</fix>
</trkpt>
<trkpt lat="40.0713804" lon="-105.2298037">
  <ele>1582.95</ele>
  <time>2026-08-28T17:54:08Z</time>
  <course>342.37</course>
  <speed>1.049952379872535</speed>
  <fix>3d</fix>
</trkpt>
<trkpt lat="40.0713793" lon="-105.2298031">
  <ele>1583.0</ele>
  <time>2026-08-28T17:54:08Z</time>
  <course>336.3</course>
  <speed>0.99</speed>
  <fix>3d</fix>
</trkpt>
<trkpt lat="40.0713813" lon="-105.229804">
  <ele>1582.96</ele>
  <time>2026-08-28T17:54:08Z</time>
  <course>346.14</course>
  <speed>1.0914210919713803</speed>
  <fix>3d</fix>
</trkpt>
<trkpt lat="40.0713793" lon="-105.2298031">
  <ele>1583.0</ele>
  <time>2026-08-28T17:54:08Z</time>
  <course>336.3</course>
  <speed>0.99</speed>
  <fix>3d</fix>
</trkpt>
<trkpt lat="40.0713823" lon="-105.2298043">
  <ele>1582.96</ele>
  <time>2026-08-28T17:54:08Z</time>
  <course>349.27</course>
  <speed>1.1296902230257637</speed>
  <fix>3d</fix>
</trkpt>
<trkpt lat="40.071381" lon="-105.2298039">
  <ele>1583.0</ele>
  <time>2026-08-28T17:54:08Z</time>
  <course>344.59</course>
  <speed>1.06</speed>
  <fix>3d</fix>
</trkpt>
<trkpt lat="40.0713833" lon="-105.2298045">
  <ele>1582.97</ele>
  <time>2026-08-28T17:54:08Z</time>
  <course>351.9</course>
  <speed>1.180889495253472</speed>
  <fix>3d</fix>
</trkpt>
<trkpt lat="40.071381" lon="-105.2298039">
  <ele>1583.0</ele>
  <time>2026-08-28T17:54:08Z</time>
  <course>344.59</course>
  <speed>1.06</speed>
  <fix>3d</fix>
</trkpt>
<trkpt lat="40.0713844" lon="-105.2298047">
  <ele>1582.97</ele>
  <time>2026-08-28T17:54:08Z</time>
  <course>354.09</course>
  <speed>1.226906679417795</speed>
  <fix>3d</fix>
</trkpt>
<trkpt lat="40.0713829" lon="-105.2298045">
  <ele>1583.0</ele>
  <time>2026-08-28T17:54:08Z</time>
  <course>350.44</course>
  <speed>1.15</speed>
  <fix>3d</fix>
</trkpt>
<trkpt lat="40.0713855" lon="-105.2298048">
  <ele>1582.98</ele>
  <time>2026-08-28T17:54:08Z</time>
  <course>355.91</course>
  <speed>1.283160161476345</speed>
  <fix>3d</fix>
</trkpt>
<trkpt lat="40.0713829" lon="-105.2298045">
  <ele>1583.0</ele>
  <time>2026-08-28T17:54:08Z</time>
  <course>350.44</course>
  <speed>1.15</speed>
  <fix>3d</fix>
</trkpt>
<trkpt lat="40.0713867" lon="-105.2298049">
  <ele>1582.98</ele>
  <time>2026-08-28T17:54:08Z</time>
  <course>357.44</course>
  <speed>1.351332675546625</speed>
  <fix>3d</fix>
</trkpt>
<trkpt lat="40.0713851" lon="-105.2298049">
  <ele>1583.0</ele>
  <time>2026-08-28T17:54:08Z</time>
  <course>354.5</course>
  <speed>1.26</speed>
  <fix>3d</fix>
</trkpt>
<trkpt lat="40.0713879" lon="-105.229805">
  <ele>1582.98</ele>
  <time>2026-08-28T17:54:08Z</time>
  <course>358.69</course>
  <speed>1.410319112825179</speed>
  <fix>3d</fix>
</trkpt>
<trkpt lat="40.0713851" lon="-105.2298049">
  <ele>1583.0</ele>
  <time>2026-08-28T17:54:08Z</time>
  <course>354.5</course>
  <speed>1.26</speed>
  <fix>3d</fix>
</trkpt>
<trkpt lat="40.0713892" lon="-105.229805">
  <ele>1582.98</ele>
  <time>2026-08-28T17:54:08Z</time>
  <course>359.73</course>
  <speed>1.4900335566691105</speed>
  <fix>3d</fix>
</trkpt>
<trkpt lat="40.0713875" lon="-105.229805">
  <ele>1583.0</ele>
  <time>2026-08-28T17:54:08Z</time>
  <course>357.3</course>
  <speed>1.38</speed>
  <fix>3d</fix>
</trkpt>
<trkpt lat="40.0713906" lon="-105.229805">
  <ele>1582.98</ele>
  <time>2026-08-28T17:54:08Z</time>
  <course>0.6</course>
  <speed>1.56</speed>
  <fix>3d</fix>
</trkpt>
<trkpt lat="40.0713875" lon="-105.229805">
  <ele>1583.0</ele>
  <time>2026-08-28T17:54:08Z</time>
  <course>357.3</course>
  <speed>1.38</speed>
  <fix>3d</fix>
</trkpt>
<trkpt lat="40.071392" lon="-105.229805">
  <ele>1582.97</ele>
  <time>2026-08-28T17:54:08Z</time>
  <course>1.32</course>
  <speed>1.6401219466856725</speed>
  <fix>3d</fix>
</trkpt>
<trkpt lat="40.0713901" lon="-105.2298052">
  <ele>1583.0</ele>
  <time>2026-08-28T17:54:08Z</time>
  <course>359.23</course>
  <speed>1.52</speed>
  <fix>3d</fix>
</trkpt>
<trkpt lat="40.0713935" lon="-105.229805">
  <ele>1582.97</ele>
  <time>2026-08-28T17:54:08Z</time>
  <course>1.92</course>
  <speed>1.7204650534085255</speed>
  <fix>3d</fix>
</trkpt>
<trkpt lat="40.0713901" lon="-105.2298052">
  <ele>1583.0</ele>
  <time>2026-08-28T17:54:08Z</time>
  <course>359.23</course>
  <speed>1.52</speed>
  <fix>3d</fix>
</trkpt>
<trkpt lat="40.0713951" lon="-105.2298049">
  <ele>1582.97</ele>
  <time>2026-08-28T17:54:08Z</time>
  <course>2.41</course>
  <speed>1.800999722376436</speed>
  <fix>3d</fix>
</trkpt>
<trkpt lat="40.071393" lon="-105.2298052">
  <ele>1583.0</ele>
  <time>2026-08-28T17:54:08Z</time>
  <course>0.57</course>
  <speed>1.67</speed>
  <fix>3d</fix>
</trkpt>
<trkpt lat="40.0713968" lon="-105.2298049">
  <ele>1582.97</ele>
  <time>2026-08-28T17:54:08Z</time>
  <course>2.8</course>
  <speed>1.8912958520548815</speed>
  <fix>3d</fix>
</trkpt>
<trkpt lat="40.071393" lon="-105.2298052">
  <ele>1583.0</ele>
  <time>2026-08-28T17:54:08Z</time>
  <course>0.57</course>
  <speed>1.67</speed>
  <fix>3d</fix>
</trkpt>
<trkpt lat="40.0713985" lon="-105.2298048">
  <ele>1582.98</ele>
  <time>2026-08-28T17:54:08Z</time>
  <course>3.13</course>
  <speed>1.9820443990990717</speed>
  <fix>3d</fix>
</trkpt>
<trkpt lat="40.071393" lon="-105.2298052">
  <ele>1583.0</ele>
  <time>2026-08-28T17:54:08Z</time>
  <course>0.57</course>
  <speed>1.67</speed>
  <fix>3d</fix>
</trkpt>
<trkpt lat="40.0714003" lon="-105.2298047">
  <ele>1582.98</ele>
  <time>2026-08-28T17:54:08Z</time>
  <course>3.4</course>
  <speed>2.082402458700047</speed>
  <fix>3d</fix>
</trkpt>
<trkpt lat="40.0713961" lon="-105.2298052">
  <ele>1583.0</ele>
  <time>2026-08-28T17:54:08Z</time>
  <course>1.47</course>
  <speed>1.85</speed>
  <fix>3d</fix>
</trkpt>
<trkpt lat="40.0714022" lon="-105.2298047">
  <ele>1582.98</ele>
  <time>2026-08-28T17:54:08Z</time>
  <course>3.63</course>
  <speed>2.1727862297059968</speed>
  <fix>3d</fix>
</trkpt>
<trkpt lat="40.0713961" lon="-105.2298052">
  <ele>1583.0</ele>
  <time>2026-08-28T17:54:08Z</time>
  <course>1.47</course>
  <speed>1.85</speed>
  <fix>3d</fix>
</trkpt>
<trkpt lat="40.0714042" lon="-105.2298046">
  <ele>1582.98</ele>
  <time>2026-08-28T17:54:08Z</time>
  <course>3.83</course>
  <speed>2.273169593321185</speed>
  <fix>3d</fix>
</trkpt>
<trkpt lat="40.0713996" lon="-105.229805">
  <ele>1583.0</ele>
  <time>2026-08-28T17:54:08Z</time>
  <course>2.08</course>
  <speed>2.03</speed>
  <fix>3d</fix>
</trkpt>
<trkpt lat="40.0714062" lon="-105.2298045">
  <ele>1582.98</ele>
  <time>2026-08-28T17:54:08Z</time>
  <course>4.02</course>
  <speed>2.3635777964771965</speed>
  <fix>3d</fix>
</trkpt>
<trkpt lat="40.0713996" lon="-105.229805">
  <ele>1583.0</ele>
  <time>2026-08-28T17:54:08Z</time>
  <course>2.08</course>
  <speed>2.03</speed>
  <fix>3d</fix>
</trkpt>
<trkpt lat="40.0714083" lon="-105.2298044">
  <ele>1582.98</ele>
  <time>2026-08-28T17:54:08Z</time>
  <course>4.17</course>
  <speed>2.4539967400141345</speed>
  <fix>3d</fix>
</trkpt>
<trkpt lat="40.0714035" lon="-105.2298049">
  <ele>1583.0</ele>
  <time>2026-08-28T17:54:08Z</time>
  <course>2.53</course>
  <speed>2.22</speed>
  <fix>3d</fix>
</trkpt>
<trkpt lat="40.0714106" lon="-105.2298042">
  <ele>1582.97</ele>
  <time>2026-08-28T17:54:08Z</time>
  <course>4.32</course>
  <speed>2.544425278918601</speed>
  <fix>3d</fix>
</trkpt>
<trkpt lat="40.0714076" lon="-105.2298046">
  <ele>1583.0</ele>
  <time>2026-08-28T17:54:08Z</time>
  <course>2.87</course>
  <speed>2.4</speed>
  <fix>3d</fix>
</trkpt>
<trkpt lat="40.0714129" lon="-105.2298041">
  <ele>1582.97</ele>
  <time>2026-08-28T17:54:08Z</time>
  <course>4.46</course>
  <speed>2.6248809496813372</speed>
  <fix>3d</fix>
</trkpt>
<trkpt lat="40.0714076" lon="-105.2298046">
  <ele>1583.0</ele>
  <time>2026-08-28T17:54:08Z</time>
  <course>2.87</course>
  <speed>2.4</speed>
  <fix>3d</fix>
</trkpt>
<trkpt lat="40.0714152" lon="-105.2298039">
  <ele>1582.97</ele>
  <time>2026-08-28T17:54:08Z</time>
  <course>4.6</course>
  <speed>2.695366394388711</speed>
  <fix>3d</fix>
</trkpt>
<trkpt lat="40.071412" lon="-105.2298043">
  <ele>1583.0</ele>
  <time>2026-08-28T17:54:08Z</time>
  <course>3.17</course>
  <speed>2.57</speed>
  <fix>3d</fix>
</trkpt>
<trkpt lat="40.0714176" lon="-105.2298037">
  <ele>1582.98</ele>
  <time>2026-08-28T17:54:08Z</time>
  <course>4.73</course>
  <speed>2.755884612969128</speed>
  <fix>3d</fix>
</trkpt>
<trkpt lat="40.071412" lon="-105.2298043">
  <ele>1583.0</ele>
  <time>2026-08-28T17:54:08Z</time>
  <course>3.17</course>
  <speed>2.57</speed>
  <fix>3d</fix>
</trkpt>
<trkpt lat="40.0714201" lon="-105.2298035">
  <ele>1582.98</ele>
  <time>2026-08-28T17:54:08Z</time>
  <course>4.88</course>
  <speed>2.806439024814186</speed>
  <fix>3d</fix>
</trkpt>
<trkpt lat="40.0714168" lon="-105.229804">
  <ele>1583.0</ele>
  <time>2026-08-28T17:54:08Z</time>
  <course>3.45</course>
  <speed>2.7</speed>
  <fix>3d</fix>
</trkpt>
<trkpt lat="40.0714227" lon="-105.2298033">
  <ele>1582.98</ele>
  <time>2026-08-28T17:54:08Z</time>
  <course>5.02</course>
  <speed>2.8563263118908524</speed>
  <fix>3d</fix>
</trkpt>
<trkpt lat="40.0714168" lon="-105.229804">
  <ele>1583.0</ele>
  <time>2026-08-28T17:54:08Z</time>
  <course>3.45</course>
  <speed>2.7</speed>
  <fix>3d</fix>
</trkpt>
<trkpt lat="40.0714252" lon="-105.2298031">
  <ele>1582.99</ele>
  <time>2026-08-28T17:54:08Z</time>
  <course>5.13</course>
  <speed>2.8869360921225806</speed>
  <fix>3d</fix>
</trkpt>
<trkpt lat="40.0714217" lon="-105.2298035">
  <ele>1583.0</ele>
  <time>2026-08-28T17:54:08Z</time>
  <course>3.73</course>
  <speed>2.8</speed>
  <fix>3d</fix>
</trkpt>
<trkpt lat="40.0714278" lon="-105.2298029">
  <ele>1582.99</ele>
  <time>2026-08-28T17:54:08Z</time>
  <course>5.28</course>
  <speed>2.8976197127987655</speed>
  <fix>3d</fix>
</trkpt>
<trkpt lat="40.0714217" lon="-105.2298035">
  <ele>1583.0</ele>
  <time>2026-08-28T17:54:08Z</time>
  <course>3.73</course>
  <speed>2.8</speed>
  <fix>3d</fix>
</trkpt>
<trkpt lat="40.0714304" lon="-105.2298027">
  <ele>1582.99</ele>
  <time>2026-08-28T17:54:08Z</time>
  <course>5.46</course>
  <speed>2.9075935066649192</speed>
  <fix>3d</fix>
</trkpt>
<trkpt lat="40.0714268" lon="-105.2298031">
  <ele>1583.0</ele>
  <time>2026-08-28T17:54:08Z</time>
  <course>4.02</course>
  <speed>2.85</speed>
  <fix>3d</fix>
</trkpt>
<trkpt lat="40.071433" lon="-105.2298024">
  <ele>1582.99</ele>
  <time>2026-08-28T17:54:08Z</time>
  <course>5.66</course>
  <speed>2.8983616061492397</speed>
  <fix>3d</fix>
</trkpt>
<trkpt lat="40.0714268" lon="-105.2298031">
  <ele>1583.0</ele>
  <time>2026-08-28T17:54:08Z</time>
  <course>4.02</course>
  <speed>2.85</speed>
  <fix>3d</fix>
</trkpt>
<trkpt lat="40.0714356" lon="-105.2298022">
  <ele>1582.99</ele>
  <time>2026-08-28T17:54:08Z</time>
  <course>5.91</course>
  <speed>2.8692333470807148</speed>
  <fix>3d</fix>
</trkpt>
<trkpt lat="40.0714319" lon="-105.2298026">
  <ele>1583.0</ele>
  <time>2026-08-28T17:54:08Z</time>
  <course>4.42</course>
  <speed>2.84</speed>
  <fix>3d</fix>
</trkpt>
<trkpt lat="40.0714381" lon="-105.2298019">
  <ele>1583.0</ele>
  <time>2026-08-28T17:54:08Z</time>
  <course>6.22</course>
  <speed>2.8102668912400475</speed>
  <fix>3d</fix>
</trkpt>
<trkpt lat="40.0714319" lon="-105.2298026">
  <ele>1583.0</ele>
  <time>2026-08-28T17:54:08Z</time>
  <course>4.42</course>
  <speed>2.84</speed>
  <fix>3d</fix>
</trkpt>
<trkpt lat="40.0714406" lon="-105.2298016">
  <ele>1583.0</ele>
  <time>2026-08-28T17:54:08Z</time>
  <course>6.6</course>
  <speed>2.75138147118861</speed>
  <fix>3d</fix>
</trkpt>
<trkpt lat="40.0714369" lon="-105.2298021">
  <ele>1583.0</ele>
  <time>2026-08-28T17:54:08Z</time>
  <course>4.99</course>
  <speed>2.77</speed>
  <fix>3d</fix>
</trkpt>
<trkpt lat="40.0714429" lon="-105.2298013">
  <ele>1583.0</ele>
  <time>2026-08-28T17:54:08Z</time>
  <course>7.06</course>
  <speed>2.662724168966812</speed>
  <fix>3d</fix>
</trkpt>
<trkpt lat="40.0714369" lon="-105.2298021">
  <ele>1583.0</ele>
  <time>2026-08-28T17:54:08Z</time>
  <course>4.99</course>
  <speed>2.77</speed>
  <fix>3d</fix>
</trkpt>
<trkpt lat="40.0714452" lon="-105.229801">
  <ele>1583.0</ele>
  <time>2026-08-28T17:54:08Z</time>
  <course>7.65</course>
  <speed>2.564254277562972</speed>
  <fix>3d</fix>
</trkpt>
<trkpt lat="40.0714369" lon="-105.2298021">
  <ele>1583.0</ele>
  <time>2026-08-28T17:54:08Z</time>
  <course>4.99</course>
  <speed>2.77</speed>
  <fix>3d</fix>
</trkpt>
<trkpt lat="40.0714474" lon="-105.2298007">
  <ele>1583.0</ele>
  <time>2026-08-28T17:54:08Z</time>
  <course>8.37</course>
  <speed>2.446078494243388</speed>
  <fix>3d</fix>
</trkpt>
<trkpt lat="40.0714418" lon="-105.2298014">
  <ele>1583.0</ele>
  <time>2026-08-28T17:54:08Z</time>
  <course>5.87</course>
  <speed>2.62</speed>
  <fix>3d</fix>
</trkpt>
<trkpt lat="40.0714495" lon="-105.2298004">
  <ele>1583.0</ele>
  <time>2026-08-28T17:54:08Z</time>
  <course>9.3</course>
  <speed>2.3293990641364997</speed>
  <fix>3d</fix>
</trkpt>
<trkpt lat="40.0714418" lon="-105.2298014">
  <ele>1583.0</ele>
  <time>2026-08-28T17:54:08Z</time>
  <course>5.87</course>
  <speed>2.62</speed>
  <fix>3d</fix>
</trkpt>
<trkpt lat="40.0714514" lon="-105.2298">
  <ele>1583.0</ele>
  <time>2026-08-28T17:54:08Z</time>
  <course>10.43</course>
  <speed>2.194948746554233</speed>
  <fix>3d</fix>
</trkpt>
<trkpt lat="40.0714464" lon="-105.2298007">
  <ele>1583.0</ele>
  <time>2026-08-28T17:54:08Z</time>
  <course>7.21</course>
  <speed>2.42</speed>
  <fix>3d</fix>
</trkpt>
<trkpt lat="40.0714533" lon="-105.2297996">
  <ele>1583.0</ele>
  <time>2026-08-28T17:54:08Z</time>
  <course>11.79</course>
  <speed>2.0599514557387026</speed>
  <fix>3d</fix>
</trkpt>
<trkpt lat="40.0714464" lon="-105.2298007">
  <ele>1583.0</ele>
  <time>2026-08-28T17:54:08Z</time>
  <course>7.21</course>
  <speed>2.42</speed>
  <fix>3d</fix>
</trkpt>
<trkpt lat="40.0714549" lon="-105.2297991">
  <ele>1583.0</ele>
  <time>2026-08-28T17:54:08Z</time>
  <course>13.44</course>
  <speed>1.9180198122021577</speed>
  <fix>3d</fix>
</trkpt>
<trkpt lat="40.0714505" lon="-105.2298">
  <ele>1583.0</ele>
  <time>2026-08-28T17:54:08Z</time>
  <course>9.27</course>
  <speed>2.18</speed>
  <fix>3d</fix>
</trkpt>
<trkpt lat="40.0714565" lon="-105.2297987">
  <ele>1583.0</ele>
  <time>2026-08-28T17:54:08Z</time>
  <course>15.5</course>
  <speed>1.7658992043715294</speed>
  <fix>3d</fix>
</trkpt>
<trkpt lat="40.0714505" lon="-105.2298">
  <ele>1583.0</ele>
  <time>2026-08-28T17:54:08Z</time>
  <course>9.27</course>
  <speed>2.18</speed>
  <fix>3d</fix>
</trkpt>
<trkpt lat="40.0714579" lon="-105.2297981">
  <ele>1583.0</ele>
  <time>2026-08-28T17:54:08Z</time>
  <course>18.15</course>
  <speed>1.611241757155021</speed>
  <fix>3d</fix>
</trkpt>
<trkpt lat="40.071454" lon="-105.2297991">
  <ele>1583.0</ele>
  <time>2026-08-28T17:54:08Z</time>
  <course>12.33</course>
  <speed>1.91</speed>
  <fix>3d</fix>
</trkpt>
<trkpt lat="40.0714592" lon="-105.2297976">
  <ele>1583.0</ele>
  <time>2026-08-28T17:54:08Z</time>
  <course>21.59</course>
  <speed>1.4610954794263105</speed>
  <fix>3d</fix>
</trkpt>
<trkpt lat="40.0714572" lon="-105.229798">
  <ele>1583.0</ele>
  <time>2026-08-28T17:54:08Z</time>
  <course>17.12</course>
  <speed>1.63</speed>
  <fix>3d</fix>
</trkpt>
<trkpt lat="40.0714603" lon="-105.2297969">
  <ele>1583.0</ele>
  <time>2026-08-28T17:54:08Z</time>
  <course>26.09</course>
  <speed>1.3118307817702708</speed>
  <fix>3d</fix>
</trkpt>
<trkpt lat="40.0714572" lon="-105.229798">
  <ele>1583.0</ele>
  <time>2026-08-28T17:54:08Z</time>
  <course>17.12</course>
  <speed>1.63</speed>
  <fix>3d</fix>
</trkpt>
<trkpt lat="40.0714612" lon="-105.2297963">
  <ele>1583.0</ele>
  <time>2026-08-28T17:54:08Z</time>
  <course>31.64</course>
  <speed>1.1597413504743201</speed>
  <fix>3d</fix>
</trkpt>
<trkpt lat="40.0714597" lon="-105.2297968">
  <ele>1583.0</ele>
  <time>2026-08-28T17:54:08Z</time>
  <course>24.98</course>
  <speed>1.35</speed>
  <fix>3d</fix>
</trkpt>
<trkpt lat="40.071462" lon="-105.2297955">
  <ele>1583.0</ele>
  <time>2026-08-28T17:54:08Z</time>
  <course>38.24</course>
  <speed>1.016070863670443</speed>
  <fix>3d</fix>
</trkpt>
<trkpt lat="40.0714597" lon="-105.2297968">
  <ele>1583.0</ele>
  <time>2026-08-28T17:54:08Z</time>
  <course>24.98</course>
  <speed>1.35</speed>
  <fix>3d</fix>
</trkpt>
<trkpt lat="40.0714626" lon="-105.2297947">
  <ele>1583.0</ele>
  <time>2026-08-28T17:54:08Z</time>
  <course>44.74</course>
  <speed>0.891403387922662</speed>
  <fix>3d</fix>
</trkpt>
<trkpt lat="40.0714616" lon="-105.2297954">
  <ele>1583.0</ele>
  <time>2026-08-28T17:54:08Z</time>
  <course>36.4</course>
  <speed>1.08</speed>
  <fix>3d</fix>
</trkpt>
<trkpt lat="40.0714631" lon="-105.229794">
  <ele>1583.0</ele>
  <time>2026-08-28T17:54:08Z</time>
  <course>50.49</course>
  <speed>0.7798717843338097</speed>
  <fix>3d</fix>
</trkpt>
<trkpt lat="40.0714616" lon="-105.2297954">
  <ele>1583.0</ele>
  <time>2026-08-28T17:54:08Z</time>
  <course>36.4</course>
  <speed>1.08</speed>
  <fix>3d</fix>
</trkpt>
<trkpt lat="40.0714635" lon="-105.2297932">
  <ele>1583.0</ele>
  <time>2026-08-28T17:54:08Z</time>
  <course>55.79</course>
  <speed>0.740607858451421</speed>
  <fix>3d</fix>
</trkpt>
<trkpt lat="40.0714629" lon="-105.2297939">
  <ele>1583.0</ele>
  <time>2026-08-28T17:54:08Z</time>
  <course>48.76</course>
  <speed>0.88</speed>
  <fix>3d</fix>
</trkpt>
<trkpt lat="40.0714638" lon="-105.2297924">
  <ele>1583.0</ele>
  <time>2026-08-28T17:54:08Z</time>
  <course>60.42</course>
  <speed>0.6983552104767315</speed>
  <fix>3d</fix>
</trkpt>
<trkpt lat="40.0714629" lon="-105.2297939">
  <ele>1583.0</ele>
  <time>2026-08-28T17:54:08Z</time>
  <course>48.76</course>
  <speed>0.88</speed>
  <fix>3d</fix>
</trkpt>
<trkpt lat="40.0714641" lon="-105.2297917">
  <ele>1583.0</ele>
  <time>2026-08-28T17:54:08Z</time>
  <course>64.05</course>
  <speed>0.6621178142898739</speed>
  <fix>3d</fix>
</trkpt>
<trkpt lat="40.0714637" lon="-105.2297923">
  <ele>1583.0</ele>
  <time>2026-08-28T17:54:08Z</time>
  <course>58.71</course>
  <speed>0.76</speed>
  <fix>3d</fix>
</trkpt>
<trkpt lat="40.0714643" lon="-105.2297909">
  <ele>1583.01</ele>
  <time>2026-08-28T17:54:08Z</time>
  <course>66.77</course>
  <speed>0.6332456079595026</speed>
  <fix>3d</fix>
</trkpt>
<trkpt lat="40.0714637" lon="-105.2297923">
  <ele>1583.0</ele>
  <time>2026-08-28T17:54:08Z</time>
  <course>58.71</course>
  <speed>0.76</speed>
  <fix>3d</fix>
</trkpt>
<trkpt lat="40.0714645" lon="-105.2297902">
  <ele>1583.01</ele>
  <time>2026-08-28T17:54:08Z</time>
  <course>68.62</course>
  <speed>0.5946427498927402</speed>
  <fix>3d</fix>
</trkpt>
<trkpt lat="40.0714643" lon="-105.2297908">
  <ele>1583.0</ele>
  <time>2026-08-28T17:54:08Z</time>
  <course>65.26</course>
  <speed>0.69</speed>
  <fix>3d</fix>
</trkpt>
<trkpt lat="40.0714647" lon="-105.2297895">
  <ele>1583.01</ele>
  <time>2026-08-28T17:54:08Z</time>
  <course>69.67</course>
  <speed>0.5661271941887265</speed>
  <fix>3d</fix>
</trkpt>
<trkpt lat="40.0714643" lon="-105.2297908">
  <ele>1583.0</ele>
  <time>2026-08-28T17:54:08Z</time>
  <course>65.26</course>
  <speed>0.69</speed>
  <fix>3d</fix>
</trkpt>
<trkpt lat="40.0714649" lon="-105.2297888">
  <ele>1583.01</ele>
  <time>2026-08-28T17:54:08Z</time>
  <course>69.96</course>
  <speed>0.5440588203494178</speed>
  <fix>3d</fix>
</trkpt>
<trkpt lat="40.0714648" lon="-105.2297893">
  <ele>1583.0</ele>
  <time>2026-08-28T17:54:08Z</time>
  <course>68.32</course>
  <speed>0.63</speed>
  <fix>3d</fix>
</trkpt>
<trkpt lat="40.071465" lon="-105.2297881">
  <ele>1583.01</ele>
  <time>2026-08-28T17:54:08Z</time>
  <course>70.0</course>
  <speed>0.5124451190127582</speed>
  <fix>3d</fix>
</trkpt>
<trkpt lat="40.0714648" lon="-105.2297893">
  <ele>1583.0</ele>
  <time>2026-08-28T17:54:08Z</time>
  <course>68.32</course>
  <speed>0.63</speed>
  <fix>3d</fix>
</trkpt>
<trkpt lat="40.0714652" lon="-105.2297875">
  <ele>1583.01</ele>
  <time>2026-08-28T17:54:08Z</time>
  <course>70.07</course>
  <speed>0.49040799340956914</speed>
  <fix>3d</fix>
</trkpt>
<trkpt lat="40.0714648" lon="-105.2297893">
  <ele>1583.0</ele>
  <time>2026-08-28T17:54:08Z</time>
  <course>68.32</course>
  <speed>0.63</speed>
  <fix>3d</fix>
</trkpt>
<trkpt lat="40.0714653" lon="-105.229787">
  <ele>1583.01</ele>
  <time>2026-08-28T17:54:08Z</time>
  <course>70.13</course>
  <speed>0.45880278987817846</speed>
  <fix>3d</fix>
</trkpt>
<trkpt lat="40.0714652" lon="-105.2297881">
  <ele>1583.0</ele>
  <time>2026-08-28T17:54:08Z</time>
  <course>69.09</course>
  <speed>0.57</speed>
  <fix>3d</fix>
</trkpt>
<trkpt lat="40.0714655" lon="-105.2297864">
  <ele>1583.02</ele>
  <time>2026-08-28T17:54:08Z</time>
  <course>70.18</course>
  <speed>0.4368065933568311</speed>
  <fix>3d</fix>
</trkpt>
<trkpt lat="40.0714652" lon="-105.2297881">
  <ele>1583.0</ele>
  <time>2026-08-28T17:54:08Z</time>
  <course>69.09</course>
  <speed>0.57</speed>
  <fix>3d</fix>
</trkpt>
<trkpt lat="40.0714656" lon="-105.2297859">
  <ele>1583.02</ele>
  <time>2026-08-28T17:54:08Z</time>
  <course>70.24</course>
  <speed>0.41484937025383084</speed>
  <fix>3d</fix>
</trkpt>
<trkpt lat="40.0714655" lon="-105.2297868">
  <ele>1583.0</ele>
  <time>2026-08-28T17:54:08Z</time>
  <course>69.22</course>
  <speed>0.51</speed>
  <fix>3d</fix>
</trkpt>
<trkpt lat="40.0714657" lon="-105.2297854">
  <ele>1583.02</ele>
  <time>2026-08-28T17:54:08Z</time>
  <course>70.29</course>
  <speed>0.39293765408777</speed>
  <fix>3d</fix>
</trkpt>
<trkpt lat="40.0714655" lon="-105.2297868">
  <ele>1583.0</ele>
  <time>2026-08-28T17:54:08Z</time>
  <course>69.22</course>
  <speed>0.51</speed>
  <fix>3d</fix>
</trkpt>
<trkpt lat="40.0714658" lon="-105.2297849">
  <ele>1583.02</ele>
  <time>2026-08-28T17:54:08Z</time>
  <course>70.34</course>
  <speed>0.3736308338453881</speed>
  <fix>3d</fix>
</trkpt>
<trkpt lat="40.0714658" lon="-105.2297858">
  <ele>1583.0</ele>
  <time>2026-08-28T17:54:08Z</time>
  <course>69.34</course>
  <speed>0.46</speed>
  <fix>3d</fix>
</trkpt>
<trkpt lat="40.071466" lon="-105.2297845">
  <ele>1583.02</ele>
  <time>2026-08-28T17:54:08Z</time>
  <course>70.39</course>
  <speed>0.35171010790137947</speed>
  <fix>3d</fix>
</trkpt>
<trkpt lat="40.0714661" lon="-105.2297848">
  <ele>1583.0</ele>
  <time>2026-08-28T17:54:08Z</time>
  <course>69.45</course>
  <speed>0.42</speed>
  <fix>3d</fix>
</trkpt>
<trkpt lat="40.0714661" lon="-105.2297841">
  <ele>1583.02</ele>
  <time>2026-08-28T17:54:08Z</time>
  <course>70.43</course>
  <speed>0.33955853692699295</speed>
  <fix>3d</fix>
</trkpt>
<trkpt lat="40.0714661" lon="-105.2297848">
  <ele>1583.0</ele>
  <time>2026-08-28T17:54:08Z</time>
  <course>69.45</course>
  <speed>0.42</speed>
  <fix>3d</fix>
</trkpt>
<trkpt lat="40.0714662" lon="-105.2297837">
  <ele>1583.02</ele>
  <time>2026-08-28T17:54:08Z</time>
  <course>70.48</course>
  <speed>0.32015621187164245</speed>
  <fix>3d</fix>
</trkpt>
<trkpt lat="40.0714664" lon="-105.2297839">
  <ele>1583.0</ele>
  <time>2026-08-28T17:54:08Z</time>
  <course>69.55</course>
  <speed>0.38</speed>
  <fix>3d</fix>
</trkpt>
<trkpt lat="40.0714663" lon="-105.2297833">
  <ele>1583.02</ele>
  <time>2026-08-28T17:54:08Z</time>
  <course>70.52</course>
  <speed>0.29832867780352595</speed>
  <fix>3d</fix>
</trkpt>
<trkpt lat="40.0714664" lon="-105.2297839">
  <ele>1583.0</ele>
  <time>2026-08-28T17:54:08Z</time>
  <course>69.55</course>
  <speed>0.38</speed>
  <fix>3d</fix>
</trkpt>
<trkpt lat="40.0714664" lon="-105.2297829">
  <ele>1583.02</ele>
  <time>2026-08-28T17:54:08Z</time>
  <course>70.56</course>
  <speed>0.28861739379323625</speed>
  <fix>3d</fix>
</trkpt>
<trkpt lat="40.0714665" lon="-105.2297831">
  <ele>1583.0</ele>
  <time>2026-08-28T17:54:08Z</time>
  <course>69.63</course>
  <speed>0.34</speed>
  <fix>3d</fix>
</trkpt>
<trkpt lat="40.0714665" lon="-105.2297825">
  <ele>1583.02</ele>
  <time>2026-08-28T17:54:08Z</time>
  <course>70.6</course>
  <speed>0.2765863337187866</speed>
  <fix>3d</fix>
</trkpt>
<trkpt lat="40.0714665" lon="-105.2297831">
  <ele>1583.0</ele>
  <time>2026-08-28T17:54:08Z</time>
  <course>69.63</course>
  <speed>0.34</speed>
  <fix>3d</fix>
</trkpt>
<trkpt lat="40.0714666" lon="-105.2297822">
  <ele>1583.01</ele>
  <time>2026-08-28T17:54:08Z</time>
  <course>70.63</course>
  <speed>0.2570992026436488</speed>
  <fix>3d</fix>
</trkpt>
<trkpt lat="40.0714667" lon="-105.2297824">
  <ele>1583.0</ele>
  <time>2026-08-28T17:54:08Z</time>
  <course>69.72</course>
  <speed>0.31</speed>
  <fix>3d</fix>
</trkpt>
<trkpt lat="40.0714669" lon="-105.229781">
  <ele>1583.0</ele>
  <time>2026-08-28T17:54:09Z</time>
  <course>70.76</course>
  <speed>0.21377558326431947</speed>
  <fix>3d</fix>
</trkpt>
<trkpt lat="40.0714672" lon="-105.2297811">
  <ele>1583.0</ele>
  <time>2026-08-28T17:54:09Z</time>
  <course>69.85</course>
  <speed>0.25</speed>
  <fix>3d</fix>
</trkpt>
<trkpt lat="40.0714671" lon="-105.2297803">
  <ele>1583.0</ele>
  <time>2026-08-28T17:54:09Z</time>
  <course>70.84</course>
  <speed>0.1824828759089466</speed>
  <fix>3d</fix>
</trkpt>
<trkpt lat="40.0714673" lon="-105.2297806">
  <ele>1583.0</ele>
  <time>2026-08-28T17:54:09Z</time>
  <course>69.9</course>
  <speed>0.23</speed>
  <fix>3d</fix>
</trkpt>
<trkpt lat="40.0714672" lon="-105.22978">
  <ele>1583.0</ele>
  <time>2026-08-28T17:54:09Z</time>
  <course>70.86</course>
  <speed>0.17262676501632068</speed>
  <fix>3d</fix>
</trkpt>
<trkpt lat="40.0714673" lon="-105.2297806">
  <ele>1583.0</ele>
  <time>2026-08-28T17:54:09Z</time>
  <course>69.9</course>
  <speed>0.23</speed>
  <fix>3d</fix>
</trkpt>
<trkpt lat="40.0714672" lon="-105.2297798">
  <ele>1583.0</ele>
  <time>2026-08-28T17:54:09Z</time>
  <course>70.88</course>
  <speed>0.16278820596099705</speed>
  <fix>3d</fix>
</trkpt>
<trkpt lat="40.0714674" lon="-105.2297801">
  <ele>1583.0</ele>
  <time>2026-08-28T17:54:09Z</time>
  <course>69.95</course>
  <speed>0.2</speed>
  <fix>3d</fix>
</trkpt>
<trkpt lat="40.0714673" lon="-105.2297796">
  <ele>1583.0</ele>
  <time>2026-08-28T17:54:09Z</time>
  <course>70.91</course>
  <speed>0.15297058540778355</speed>
  <fix>3d</fix>
</trkpt>
<trkpt lat="40.0714674" lon="-105.2297801">
  <ele>1583.0</ele>
  <time>2026-08-28T17:54:09Z</time>
  <course>69.95</course>
  <speed>0.2</speed>
  <fix>3d</fix>
</trkpt>
<trkpt lat="40.0714674" lon="-105.2297794">
  <ele>1582.99</ele>
  <time>2026-08-28T17:54:09Z</time>
  <course>70.93</course>
  <speed>0.14317821063276354</speed>
  <fix>3d</fix>
</trkpt>
<trkpt lat="40.0714676" lon="-105.2297797">
  <ele>1583.0</ele>
  <time>2026-08-28T17:54:09Z</time>
  <course>69.99</course>
  <speed>0.18</speed>
  <fix>3d</fix>
</trkpt>
<trkpt lat="40.0714674" lon="-105.2297792">
  <ele>1582.99</ele>
  <time>2026-08-28T17:54:09Z</time>
  <course>70.95</course>
  <speed>0.1414213562373095</speed>
  <fix>3d</fix>
</trkpt>
<trkpt lat="40.0714676" lon="-105.2297797">
  <ele>1583.0</ele>
  <time>2026-08-28T17:54:09Z</time>
  <course>69.99</course>
  <speed>0.18</speed>
  <fix>3d</fix>
</trkpt>
<trkpt lat="40.0714675" lon="-105.2297789">
  <ele>1583.0</ele>
  <time>2026-08-28T17:54:09Z</time>
  <course>70.99</course>
  <speed>0.12165525060596438</speed>
  <fix>3d</fix>
</trkpt>
<trkpt lat="40.0714678" lon="-105.2297789">
  <ele>1583.0</ele>
  <time>2026-08-28T17:54:09Z</time>
  <course>70.07</course>
  <speed>0.15</speed>
  <fix>3d</fix>
</trkpt>
<trkpt lat="40.0714676" lon="-105.2297787">
  <ele>1583.0</ele>
  <time>2026-08-28T17:54:09Z</time>
  <course>71.01</course>
  <speed>0.12165525060596438</speed>
  <fix>3d</fix>
</trkpt>
<trkpt lat="40.0714678" lon="-105.2297789">
  <ele>1583.0</ele>
  <time>2026-08-28T17:54:09Z</time>
  <course>70.07</course>
  <speed>0.15</speed>
  <fix>3d</fix>
</trkpt>
<trkpt lat="40.0714676" lon="-105.2297786">
  <ele>1583.0</ele>
  <time>2026-08-28T17:54:09Z</time>
  <course>71.02</course>
  <speed>0.1118033988749895</speed>
  <fix>3d</fix>
</trkpt>
<trkpt lat="40.0714678" lon="-105.2297786">
  <ele>1583.0</ele>
  <time>2026-08-28T17:54:09Z</time>
  <course>70.1</course>
  <speed>0.14</speed>
  <fix>3d</fix>
</trkpt>
<trkpt lat="40.0714677" lon="-105.2297784">
  <ele>1583.0</ele>
  <time>2026-08-28T17:54:09Z</time>
  <course>71.04</course>
  <speed>0.1004987562112089</speed>
  <fix>3d</fix>
</trkpt>
<trkpt lat="40.0714678" lon="-105.2297786">
  <ele>1583.0</ele>
  <time>2026-08-28T17:54:09Z</time>
  <course>70.1</course>
  <speed>0.14</speed>
  <fix>3d</fix>
</trkpt>
<trkpt lat="40.0714677" lon="-105.2297783">
  <ele>1582.99</ele>
  <time>2026-08-28T17:54:09Z</time>
  <course>71.06</course>
  <speed>0.1004987562112089</speed>
  <fix>3d</fix>
</trkpt>
<trkpt lat="40.0714679" lon="-105.2297783">
  <ele>1583.0</ele>
  <time>2026-08-28T17:54:09Z</time>
  <course>70.13</course>
  <speed>0.12</speed>
  <fix>3d</fix>
</trkpt>
<trkpt lat="40.0714678" lon="-105.2297781">
  <ele>1582.99</ele>
  <time>2026-08-28T17:54:09Z</time>
  <course>71.07</course>
  <speed>0.09055385138137417</speed>
  <fix>3d</fix>
</trkpt>
<trkpt lat="40.0714679" lon="-105.2297783">
  <ele>1583.0</ele>
  <time>2026-08-28T17:54:09Z</time>
  <course>70.13</course>
  <speed>0.12</speed>
  <fix>3d</fix>
</trkpt>
<trkpt lat="40.0714678" lon="-105.229778">
  <ele>1582.99</ele>
  <time>2026-08-28T17:54:09Z</time>
  <course>71.07</course>
  <speed>0.09055385138137417</speed>
  <fix>3d</fix>
</trkpt>
<trkpt lat="40.071468" lon="-105.229778">
  <ele>1583.0</ele>
  <time>2026-08-28T17:54:09Z</time>
  <course>70.15</course>
  <speed>0.11</speed>
  <fix>3d</fix>
</trkpt>
<trkpt lat="40.0714678" lon="-105.2297779">
  <ele>1582.99</ele>
  <time>2026-08-28T17:54:09Z</time>
  <course>71.08</course>
  <speed>0.08062257748298549</speed>
  <fix>3d</fix>
</trkpt>
<trkpt lat="40.071468" lon="-105.229778">
  <ele>1583.0</ele>
  <time>2026-08-28T17:54:09Z</time>
  <course>70.15</course>
  <speed>0.11</speed>
  <fix>3d</fix>
</trkpt>
<trkpt lat="40.0714679" lon="-105.2297778">
  <ele>1582.98</ele>
  <time>2026-08-28T17:54:09Z</time>
  <course>71.08</course>
  <speed>0.08062257748298549</speed>
  <fix>3d</fix>
</trkpt>
<trkpt lat="40.0714681" lon="-105.2297777">
  <ele>1583.0</ele>
  <time>2026-08-28T17:54:09Z</time>
  <course>70.15</course>
  <speed>0.1</speed>
  <fix>3d</fix>
</trkpt>
<trkpt lat="40.0714679" lon="-105.2297777">
  <ele>1582.98</ele>
  <time>2026-08-28T17:54:09Z</time>
  <course>71.08</course>
  <speed>0.08062257748298549</speed>
  <fix>3d</fix>
</trkpt>
<trkpt lat="40.0714681" lon="-105.2297777">
  <ele>1583.0</ele>
  <time>2026-08-28T17:54:09Z</time>
  <course>70.15</course>
  <speed>0.1</speed>
  <fix>3d</fix>
</trkpt>
<trkpt lat="40.0714679" lon="-105.2297776">
  <ele>1582.97</ele>
  <time>2026-08-28T17:54:09Z</time>
  <course>71.08</course>
  <speed>0.07</speed>
  <fix>3d</fix>
</trkpt>
<trkpt lat="40.0714682" lon="-105.2297776">
  <ele>1583.0</ele>
  <time>2026-08-28T17:54:09Z</time>
  <course>70.15</course>
  <speed>0.09</speed>
  <fix>3d</fix>
</trkpt>
<trkpt lat="40.071468" lon="-105.2297775">
  <ele>1582.97</ele>
  <time>2026-08-28T17:54:09Z</time>
  <course>71.09</course>
  <speed>0.07</speed>
  <fix>3d</fix>
</trkpt>
<trkpt lat="40.0714682" lon="-105.2297776">
  <ele>1583.0</ele>
  <time>2026-08-28T17:54:09Z</time>
  <course>70.15</course>
  <speed>0.09</speed>
  <fix>3d</fix>
</trkpt>
<trkpt lat="40.071468" lon="-105.2297774">
  <ele>1582.96</ele>
  <time>2026-08-28T17:54:09Z</time>
  <course>71.09</course>
  <speed>0.06</speed>
  <fix>3d</fix>
</trkpt>
<trkpt lat="40.0714682" lon="-105.2297773">
  <ele>1583.0</ele>
  <time>2026-08-28T17:54:09Z</time>
  <course>70.15</course>
  <speed>0.08</speed>
  <fix>3d</fix>
</trkpt>
<trkpt lat="40.071468" lon="-105.2297773">
  <ele>1582.96</ele>
  <time>2026-08-28T17:54:09Z</time>
  <course>71.09</course>
  <speed>0.06</speed>
  <fix>3d</fix>
</trkpt>
<trkpt lat="40.0714682" lon="-105.2297773">
  <ele>1583.0</ele>
  <time>2026-08-28T17:54:09Z</time>
  <course>70.15</course>
  <speed>0.08</speed>
  <fix>3d</fix>
</trkpt>
<trkpt lat="40.0714681" lon="-105.2297772">
  <ele>1582.95</ele>
  <time>2026-08-28T17:54:09Z</time>
  <course>71.1</course>
  <speed>0.06</speed>
  <fix>3d</fix>
</trkpt>
<trkpt lat="40.0714682" lon="-105.2297773">
  <ele>1583.0</ele>
  <time>2026-08-28T17:54:09Z</time>
  <course>70.15</course>
  <speed>0.08</speed>
  <fix>3d</fix>
</trkpt>
<trkpt lat="40.0714681" lon="-105.2297771">
  <ele>1582.95</ele>
  <time>2026-08-28T17:54:09Z</time>
  <course>71.1</course>
  <speed>0.05</speed>
  <fix>3d</fix>
</trkpt>
<trkpt lat="40.0714683" lon="-105.2297772">
  <ele>1583.0</ele>
  <time>2026-08-28T17:54:09Z</time>
  <course>70.15</course>
  <speed>0.07</speed>
  <fix>3d</fix>
</trkpt>
<trkpt lat="40.0714681" lon="-105.229777">
  <ele>1582.94</ele>
  <time>2026-08-28T17:54:09Z</time>
  <course>71.1</course>
  <speed>0.05</speed>
  <fix>3d</fix>
</trkpt>
<trkpt lat="40.0714683" lon="-105.2297772">
  <ele>1583.0</ele>
  <time>2026-08-28T17:54:09Z</time>
  <course>70.15</course>
  <speed>0.07</speed>
  <fix>3d</fix>
</trkpt>
<trkpt lat="40.0714681" lon="-105.229777">
  <ele>1582.94</ele>
  <time>2026-08-28T17:54:09Z</time>
  <course>71.1</course>
  <speed>0.05</speed>
  <fix>3d</fix>
</trkpt>
<trkpt lat="40.0714683" lon="-105.229777">
  <ele>1583.0</ele>
  <time>2026-08-28T17:54:09Z</time>
  <course>70.15</course>
  <speed>0.06</speed>
  <fix>3d</fix>
</trkpt>
<trkpt lat="40.0714681" lon="-105.2297769">
  <ele>1582.93</ele>
  <time>2026-08-28T17:54:09Z</time>
  <course>71.11</course>
  <speed>0.04</speed>
  <fix>3d</fix>
</trkpt>
<trkpt lat="40.0714683" lon="-105.229777">
  <ele>1583.0</ele>
  <time>2026-08-28T17:54:09Z</time>
  <course>70.15</course>
  <speed>0.06</speed>
  <fix>3d</fix>
</trkpt>
<trkpt lat="40.0714682" lon="-105.2297768">
  <ele>1582.93</ele>
  <time>2026-08-28T17:54:09Z</time>
  <course>71.11</course>
  <speed>0.04</speed>
  <fix>3d</fix>
</trkpt>
<trkpt lat="40.0714684" lon="-105.2297769">
  <ele>1583.0</ele>
  <time>2026-08-28T17:54:09Z</time>
  <course>70.15</course>
  <speed>0.06</speed>
  <fix>3d</fix>
</trkpt>
<trkpt lat="39.6641865" lon="-104.1604882">
  <ele>1566.91</ele>
  <time>2026-08-28T17:54:13Z</time>
  <course>0.0</course>
  <speed>0.0</speed>
  <fix>3d</fix>
</trkpt>
<trkpt lat="39.6641865" lon="-104.1604882">
  <ele>1566.91</ele>
  <time>2026-08-28T17:54:13Z</time>
  <course>0.0</course>
  <speed>0.0</speed>
  <fix>3d</fix>
</trkpt>
<trkpt lat="40.0713749" lon="-105.229789">
  <ele>1583.0</ele>
  <time>2026-08-28T17:54:13Z</time>
  <course>238.36</course>
  <speed>0.0</speed>
  <fix>3d</fix>
</trkpt>
<trkpt lat="40.0713749" lon="-105.229789">
  <ele>1583.0</ele>
  <time>2026-08-28T17:54:13Z</time>
  <course>0.0</course>
  <speed>0.0</speed>
  <fix>3d</fix>
</trkpt>
<trkpt lat="40.0713749" lon="-105.229789">
  <ele>1583.0</ele>
  <time>2026-08-28T17:54:13Z</time>
  <course>238.45</course>
  <speed>0.0</speed>
  <fix>3d</fix>
</trkpt>
<trkpt lat="40.0713749" lon="-105.229789">
  <ele>1583.0</ele>
  <time>2026-08-28T17:54:13Z</time>
  <course>0.0</course>
  <speed>0.0</speed>
  <fix>3d</fix>
</trkpt>
<trkpt lat="40.0713749" lon="-105.229789">
  <ele>1583.0</ele>
  <time>2026-08-28T17:54:13Z</time>
  <course>238.65</course>
  <speed>0.0</speed>
  <fix>3d</fix>
</trkpt>
<trkpt lat="40.0713749" lon="-105.229789">
  <ele>1583.0</ele>
  <time>2026-08-28T17:54:13Z</time>
  <course>0.0</course>
  <speed>0.0</speed>
  <fix>3d</fix>
</trkpt>
<trkpt lat="40.0713749" lon="-105.229789">
  <ele>1583.0</ele>
  <time>2026-08-28T17:54:13Z</time>
  <course>238.93</course>
  <speed>0.0</speed>
  <fix>3d</fix>
</trkpt>
<trkpt lat="40.0713749" lon="-105.229789">
  <ele>1583.0</ele>
  <time>2026-08-28T17:54:13Z</time>
  <course>0.0</course>
  <speed>0.0</speed>
  <fix>3d</fix>
</trkpt>
<trkpt lat="40.0713749" lon="-105.229789">
  <ele>1583.0</ele>
  <time>2026-08-28T17:54:13Z</time>
  <course>239.26</course>
  <speed>0.0</speed>
  <fix>3d</fix>
</trkpt>
<trkpt lat="40.0713749" lon="-105.229789">
  <ele>1583.0</ele>
  <time>2026-08-28T17:54:13Z</time>
  <course>0.0</course>
  <speed>0.0</speed>
  <fix>3d</fix>
</trkpt>
<trkpt lat="40.0713749" lon="-105.229789">
  <ele>1583.0</ele>
  <time>2026-08-28T17:54:13Z</time>
  <course>239.61</course>
  <speed>0.0</speed>
  <fix>3d</fix>
</trkpt>
<trkpt lat="40.0713749" lon="-105.229789">
  <ele>1583.0</ele>
  <time>2026-08-28T17:54:13Z</time>
  <course>0.0</course>
  <speed>0.0</speed>
  <fix>3d</fix>
</trkpt>
<trkpt lat="40.0713749" lon="-105.229789">
  <ele>1583.0</ele>
  <time>2026-08-28T17:54:13Z</time>
  <course>239.96</course>
  <speed>0.0</speed>
  <fix>3d</fix>
</trkpt>
<trkpt lat="40.0713749" lon="-105.229789">
  <ele>1583.0</ele>
  <time>2026-08-28T17:54:13Z</time>
  <course>0.0</course>
  <speed>0.0</speed>
  <fix>3d</fix>
</trkpt>
<trkpt lat="40.0713749" lon="-105.229789">
  <ele>1583.0</ele>
  <time>2026-08-28T17:54:13Z</time>
  <course>240.3</course>
  <speed>0.0</speed>
  <fix>3d</fix>
</trkpt>
<trkpt lat="40.0713749" lon="-105.229789">
  <ele>1583.0</ele>
  <time>2026-08-28T17:54:13Z</time>
  <course>0.0</course>
  <speed>0.0</speed>
  <fix>3d</fix>
</trkpt>
<trkpt lat="40.0713749" lon="-105.229789">
  <ele>1583.0</ele>
  <time>2026-08-28T17:54:13Z</time>
  <course>240.62</course>
  <speed>0.0</speed>
  <fix>3d</fix>
</trkpt>
<trkpt lat="40.0713749" lon="-105.229789">
  <ele>1583.0</ele>
  <time>2026-08-28T17:54:13Z</time>
  <course>0.0</course>
  <speed>0.0</speed>
  <fix>3d</fix>
</trkpt>
<trkpt lat="40.0713749" lon="-105.229789">
  <ele>1583.0</ele>
  <time>2026-08-28T17:54:13Z</time>
  <course>240.92</course>
  <speed>0.0</speed>
  <fix>3d</fix>
</trkpt>
<trkpt lat="40.0713749" lon="-105.229789">
  <ele>1583.0</ele>
  <time>2026-08-28T17:54:13Z</time>
  <course>0.0</course>
  <speed>0.0</speed>
  <fix>3d</fix>
</trkpt>
<trkpt lat="40.0713749" lon="-105.229789">
  <ele>1583.0</ele>
  <time>2026-08-28T17:54:13Z</time>
  <course>241.21</course>
  <speed>0.0</speed>
  <fix>3d</fix>
</trkpt>
<trkpt lat="40.0713749" lon="-105.229789">
  <ele>1583.0</ele>
  <time>2026-08-28T17:54:13Z</time>
  <course>0.0</course>
  <speed>0.0</speed>
  <fix>3d</fix>
</trkpt>
<trkpt lat="40.0713749" lon="-105.229789">
  <ele>1583.0</ele>
  <time>2026-08-28T17:54:13Z</time>
  <course>241.49</course>
  <speed>0.0</speed>
  <fix>3d</fix>
</trkpt>
<trkpt lat="40.0713749" lon="-105.229789">
  <ele>1583.0</ele>
  <time>2026-08-28T17:54:13Z</time>
  <course>0.0</course>
  <speed>0.0</speed>
  <fix>3d</fix>
</trkpt>
<trkpt lat="40.0713749" lon="-105.229789">
  <ele>1583.0</ele>
  <time>2026-08-28T17:54:13Z</time>
  <course>241.77</course>
  <speed>0.0</speed>
  <fix>3d</fix>
</trkpt>
<trkpt lat="40.0713749" lon="-105.229789">
  <ele>1583.0</ele>
  <time>2026-08-28T17:54:13Z</time>
  <course>0.0</course>
  <speed>0.0</speed>
  <fix>3d</fix>
</trkpt>
<trkpt lat="40.0713749" lon="-105.229789">
  <ele>1583.0</ele>
  <time>2026-08-28T17:54:13Z</time>
  <course>242.03</course>
  <speed>0.0</speed>
  <fix>3d</fix>
</trkpt>
<trkpt lat="40.0713749" lon="-105.229789">
  <ele>1583.0</ele>
  <time>2026-08-28T17:54:13Z</time>
  <course>0.0</course>
  <speed>0.0</speed>
  <fix>3d</fix>
</trkpt>
<trkpt lat="40.0713749" lon="-105.229789">
  <ele>1583.0</ele>
  <time>2026-08-28T17:54:13Z</time>
  <course>242.29</course>
  <speed>0.0</speed>
  <fix>3d</fix>
</trkpt>
<trkpt lat="40.0713749" lon="-105.229789">
  <ele>1583.0</ele>
  <time>2026-08-28T17:54:13Z</time>
  <course>0.0</course>
  <speed>0.0</speed>
  <fix>3d</fix>
</trkpt>
<trkpt lat="40.0713749" lon="-105.229789">
  <ele>1583.0</ele>
  <time>2026-08-28T17:54:13Z</time>
  <course>242.54</course>
  <speed>0.0</speed>
  <fix>3d</fix>
</trkpt>
<trkpt lat="40.0713749" lon="-105.229789">
  <ele>1583.0</ele>
  <time>2026-08-28T17:54:13Z</time>
  <course>0.0</course>
  <speed>0.0</speed>
  <fix>3d</fix>
</trkpt>
<trkpt lat="40.0713749" lon="-105.229789">
  <ele>1583.0</ele>
  <time>2026-08-28T17:54:13Z</time>
  <course>242.79</course>
  <speed>0.0</speed>
  <fix>3d</fix>
</trkpt>
<trkpt lat="40.0713749" lon="-105.229789">
  <ele>1583.0</ele>
  <time>2026-08-28T17:54:13Z</time>
  <course>0.0</course>
  <speed>0.0</speed>
  <fix>3d</fix>
</trkpt>
<trkpt lat="40.0713749" lon="-105.229789">
  <ele>1583.0</ele>
  <time>2026-08-28T17:54:13Z</time>
  <course>243.02</course>
  <speed>0.0</speed>
  <fix>3d</fix>
</trkpt>
<trkpt lat="40.0713749" lon="-105.229789">
  <ele>1583.0</ele>
  <time>2026-08-28T17:54:13Z</time>
  <course>0.0</course>
  <speed>0.0</speed>
  <fix>3d</fix>
</trkpt>
<trkpt lat="40.0713749" lon="-105.229789">
  <ele>1583.0</ele>
  <time>2026-08-28T17:54:13Z</time>
  <course>243.25</course>
  <speed>0.0</speed>
  <fix>3d</fix>
</trkpt>
<trkpt lat="40.0713749" lon="-105.229789">
  <ele>1583.0</ele>
  <time>2026-08-28T17:54:13Z</time>
  <course>0.0</course>
  <speed>0.0</speed>
  <fix>3d</fix>
</trkpt>
<trkpt lat="40.0713749" lon="-105.229789">
  <ele>1583.0</ele>
  <time>2026-08-28T17:54:13Z</time>
  <course>243.47</course>
  <speed>0.0</speed>
  <fix>3d</fix>
</trkpt>
<trkpt lat="40.0713749" lon="-105.229789">
  <ele>1583.0</ele>
  <time>2026-08-28T17:54:13Z</time>
  <course>0.0</course>
  <speed>0.0</speed>
  <fix>3d</fix>
</trkpt>
<trkpt lat="40.0713749" lon="-105.229789">
  <ele>1583.0</ele>
  <time>2026-08-28T17:54:13Z</time>
  <course>243.68</course>
  <speed>0.0</speed>
  <fix>3d</fix>
</trkpt>
<trkpt lat="40.0713749" lon="-105.229789">
  <ele>1583.0</ele>
  <time>2026-08-28T17:54:13Z</time>
  <course>0.0</course>
  <speed>0.0</speed>
  <fix>3d</fix>
</trkpt>
<trkpt lat="40.0713749" lon="-105.229789">
  <ele>1583.0</ele>
  <time>2026-08-28T17:54:13Z</time>
  <course>243.89</course>
  <speed>0.0</speed>
  <fix>3d</fix>
</trkpt>
<trkpt lat="40.0713749" lon="-105.229789">
  <ele>1583.0</ele>
  <time>2026-08-28T17:54:13Z</time>
  <course>0.0</course>
  <speed>0.0</speed>
  <fix>3d</fix>
</trkpt>
<trkpt lat="40.0713749" lon="-105.229789">
  <ele>1583.0</ele>
  <time>2026-08-28T17:54:13Z</time>
  <course>244.09</course>
  <speed>0.0</speed>
  <fix>3d</fix>
</trkpt>
<trkpt lat="40.0713749" lon="-105.229789">
  <ele>1583.0</ele>
  <time>2026-08-28T17:54:13Z</time>
  <course>0.0</course>
  <speed>0.0</speed>
  <fix>3d</fix>
</trkpt>
<trkpt lat="40.0713749" lon="-105.229789">
  <ele>1583.0</ele>
  <time>2026-08-28T17:54:13Z</time>
  <course>244.28</course>
  <speed>0.0</speed>
  <fix>3d</fix>
</trkpt>
<trkpt lat="40.0713749" lon="-105.229789">
  <ele>1583.0</ele>
  <time>2026-08-28T17:54:13Z</time>
  <course>0.0</course>
  <speed>0.0</speed>
  <fix>3d</fix>
</trkpt>
<trkpt lat="40.0713749" lon="-105.229789">
  <ele>1583.0</ele>
  <time>2026-08-28T17:54:13Z</time>
  <course>244.46</course>
  <speed>0.0</speed>
  <fix>3d</fix>
</trkpt>
<trkpt lat="40.0713749" lon="-105.229789">
  <ele>1583.0</ele>
  <time>2026-08-28T17:54:13Z</time>
  <course>0.0</course>
  <speed>0.0</speed>
  <fix>3d</fix>
</trkpt>
<trkpt lat="40.0713749" lon="-105.229789">
  <ele>1583.0</ele>
  <time>2026-08-28T17:54:13Z</time>
  <course>244.64</course>
  <speed>0.0</speed>
  <fix>3d</fix>
</trkpt>
<trkpt lat="40.0713749" lon="-105.229789">
  <ele>1583.0</ele>
  <time>2026-08-28T17:54:13Z</time>
  <course>0.0</course>
  <speed>0.0</speed>
  <fix>3d</fix>
</trkpt>
<trkpt lat="40.0713749" lon="-105.229789">
  <ele>1583.0</ele>
  <time>2026-08-28T17:54:13Z</time>
  <course>244.81</course>
  <speed>0.0</speed>
  <fix>3d</fix>
</trkpt>
<trkpt lat="40.0713749" lon="-105.229789">
  <ele>1583.0</ele>
  <time>2026-08-28T17:54:13Z</time>
  <course>0.0</course>
  <speed>0.0</speed>
  <fix>3d</fix>
</trkpt>
<trkpt lat="40.0713749" lon="-105.229789">
  <ele>1583.0</ele>
  <time>2026-08-28T17:54:13Z</time>
  <course>244.97</course>
  <speed>0.0</speed>
  <fix>3d</fix>
</trkpt>
<trkpt lat="40.0713749" lon="-105.229789">
  <ele>1583.0</ele>
  <time>2026-08-28T17:54:13Z</time>
  <course>0.0</course>
  <speed>0.0</speed>
  <fix>3d</fix>
</trkpt>
<trkpt lat="40.0713749" lon="-105.229789">
  <ele>1583.0</ele>
  <time>2026-08-28T17:54:13Z</time>
  <course>245.13</course>
  <speed>0.0</speed>
  <fix>3d</fix>
</trkpt>
<trkpt lat="40.0713749" lon="-105.229789">
  <ele>1583.0</ele>
  <time>2026-08-28T17:54:13Z</time>
  <course>0.0</course>
  <speed>0.0</speed>
  <fix>3d</fix>
</trkpt>
<trkpt lat="40.0713749" lon="-105.229789">
  <ele>1583.0</ele>
  <time>2026-08-28T17:54:13Z</time>
  <course>245.29</course>
  <speed>0.0</speed>
  <fix>3d</fix>
</trkpt>
<trkpt lat="40.0713749" lon="-105.229789">
  <ele>1583.0</ele>
  <time>2026-08-28T17:54:13Z</time>
  <course>0.0</course>
  <speed>0.0</speed>
  <fix>3d</fix>
</trkpt>
<trkpt lat="40.0713749" lon="-105.229789">
  <ele>1583.0</ele>
  <time>2026-08-28T17:54:13Z</time>
  <course>245.43</course>
  <speed>0.0</speed>
  <fix>3d</fix>
</trkpt>
<trkpt lat="40.0713749" lon="-105.229789">
  <ele>1583.0</ele>
  <time>2026-08-28T17:54:13Z</time>
  <course>0.0</course>
  <speed>0.0</speed>
  <fix>3d</fix>
</trkpt>
<trkpt lat="40.0713749" lon="-105.229789">
  <ele>1583.0</ele>
  <time>2026-08-28T17:54:13Z</time>
  <course>245.57</course>
  <speed>0.0</speed>
  <fix>3d</fix>
</trkpt>
<trkpt lat="40.0713749" lon="-105.229789">
  <ele>1583.0</ele>
  <time>2026-08-28T17:54:13Z</time>
  <course>0.0</course>
  <speed>0.0</speed>
  <fix>3d</fix>
</trkpt>
<trkpt lat="40.0713749" lon="-105.229789">
  <ele>1583.0</ele>
  <time>2026-08-28T17:54:13Z</time>
  <course>245.71</course>
  <speed>0.0</speed>
  <fix>3d</fix>
</trkpt>
<trkpt lat="40.0713749" lon="-105.229789">
  <ele>1583.0</ele>
  <time>2026-08-28T17:54:13Z</time>
  <course>0.0</course>
  <speed>0.0</speed>
  <fix>3d</fix>
</trkpt>
<trkpt lat="40.0713749" lon="-105.229789">
  <ele>1583.0</ele>
  <time>2026-08-28T17:54:13Z</time>
  <course>245.83</course>
  <speed>0.0</speed>
  <fix>3d</fix>
</trkpt>
<trkpt lat="40.0713749" lon="-105.229789">
  <ele>1583.0</ele>
  <time>2026-08-28T17:54:13Z</time>
  <course>0.0</course>
  <speed>0.0</speed>
  <fix>3d</fix>
</trkpt>
<trkpt lat="40.0713749" lon="-105.229789">
  <ele>1583.0</ele>
  <time>2026-08-28T17:54:13Z</time>
  <course>245.96</course>
  <speed>0.0</speed>
  <fix>3d</fix>
</trkpt>
<trkpt lat="40.0713749" lon="-105.229789">
  <ele>1583.0</ele>
  <time>2026-08-28T17:54:13Z</time>
  <course>0.0</course>
  <speed>0.0</speed>
  <fix>3d</fix>
</trkpt>
<trkpt lat="40.0713749" lon="-105.229789">
  <ele>1583.0</ele>
  <time>2026-08-28T17:54:13Z</time>
  <course>246.08</course>
  <speed>0.0</speed>
  <fix>3d</fix>
</trkpt>
<trkpt lat="40.0713749" lon="-105.229789">
  <ele>1583.0</ele>
  <time>2026-08-28T17:54:13Z</time>
  <course>0.0</course>
  <speed>0.0</speed>
  <fix>3d</fix>
</trkpt>
<trkpt lat="40.0713749" lon="-105.229789">
  <ele>1583.0</ele>
  <time>2026-08-28T17:54:13Z</time>
  <course>246.19</course>
  <speed>0.0</speed>
  <fix>3d</fix>
</trkpt>
<trkpt lat="40.0713749" lon="-105.229789">
  <ele>1583.0</ele>
  <time>2026-08-28T17:54:13Z</time>
  <course>0.0</course>
  <speed>0.0</speed>
  <fix>3d</fix>
</trkpt>
<trkpt lat="40.0713749" lon="-105.229789">
  <ele>1583.0</ele>
  <time>2026-08-28T17:54:13Z</time>
  <course>246.3</course>
  <speed>0.0</speed>
  <fix>3d</fix>
</trkpt>
<trkpt lat="40.0713749" lon="-105.229789">
  <ele>1583.0</ele>
  <time>2026-08-28T17:54:13Z</time>
  <course>0.0</course>
  <speed>0.0</speed>
  <fix>3d</fix>
</trkpt>
<trkpt lat="40.0713749" lon="-105.229789">
  <ele>1583.0</ele>
  <time>2026-08-28T17:54:13Z</time>
  <course>246.41</course>
  <speed>0.0</speed>
  <fix>3d</fix>
</trkpt>
<trkpt lat="40.0713749" lon="-105.229789">
  <ele>1583.0</ele>
  <time>2026-08-28T17:54:13Z</time>
  <course>0.0</course>
  <speed>0.0</speed>
  <fix>3d</fix>
</trkpt>
<trkpt lat="40.0713749" lon="-105.229789">
  <ele>1583.0</ele>
  <time>2026-08-28T17:54:13Z</time>
  <course>246.51</course>
  <speed>0.0</speed>
  <fix>3d</fix>
</trkpt>
<trkpt lat="40.0713749" lon="-105.229789">
  <ele>1583.0</ele>
  <time>2026-08-28T17:54:13Z</time>
  <course>0.0</course>
  <speed>0.0</speed>
  <fix>3d</fix>
</trkpt>
<trkpt lat="40.0713749" lon="-105.229789">
  <ele>1583.0</ele>
  <time>2026-08-28T17:54:13Z</time>
  <course>246.6</course>
  <speed>0.0</speed>
  <fix>3d</fix>
</trkpt>
<trkpt lat="40.0713749" lon="-105.229789">
  <ele>1583.0</ele>
  <time>2026-08-28T17:54:13Z</time>
  <course>0.0</course>
  <speed>0.0</speed>
  <fix>3d</fix>
</trkpt>
<trkpt lat="40.0713749" lon="-105.229789">
  <ele>1583.0</ele>
  <time>2026-08-28T17:54:13Z</time>
  <course>246.69</course>
  <speed>0.0</speed>
  <fix>3d</fix>
</trkpt>
<trkpt lat="40.0713749" lon="-105.229789">
  <ele>1583.0</ele>
  <time>2026-08-28T17:54:13Z</time>
  <course>0.0</course>
  <speed>0.0</speed>
  <fix>3d</fix>
</trkpt>
<trkpt lat="40.0713749" lon="-105.229789">
  <ele>1583.0</ele>
  <time>2026-08-28T17:54:13Z</time>
  <course>246.78</course>
  <speed>0.0</speed>
  <fix>3d</fix>
</trkpt>
<trkpt lat="40.0713749" lon="-105.229789">
  <ele>1583.0</ele>
  <time>2026-08-28T17:54:13Z</time>
  <course>0.0</course>
  <speed>0.0</speed>
  <fix>3d</fix>
</trkpt>
<trkpt lat="40.0713749" lon="-105.229789">
  <ele>1583.0</ele>
  <time>2026-08-28T17:54:13Z</time>
  <course>246.87</course>
  <speed>0.0</speed>
  <fix>3d</fix>
</trkpt>
<trkpt lat="40.0713749" lon="-105.229789">
  <ele>1583.0</ele>
  <time>2026-08-28T17:54:13Z</time>
  <course>0.0</course>
  <speed>0.0</speed>
  <fix>3d</fix>
</trkpt>
<trkpt lat="40.0713749" lon="-105.229789">
  <ele>1583.0</ele>
  <time>2026-08-28T17:54:13Z</time>
  <course>246.95</course>
  <speed>0.0</speed>
  <fix>3d</fix>
</trkpt>
<trkpt lat="40.0713749" lon="-105.229789">
  <ele>1583.0</ele>
  <time>2026-08-28T17:54:13Z</time>
  <course>0.0</course>
  <speed>0.0</speed>
  <fix>3d</fix>
</trkpt>
<trkpt lat="40.0713749" lon="-105.229789">
  <ele>1583.0</ele>
  <time>2026-08-28T17:54:13Z</time>
  <course>247.02</course>
  <speed>0.0</speed>
  <fix>3d</fix>
</trkpt>
<trkpt lat="40.0713749" lon="-105.229789">
  <ele>1583.0</ele>
  <time>2026-08-28T17:54:13Z</time>
  <course>0.0</course>
  <speed>0.0</speed>
  <fix>3d</fix>
</trkpt>
<trkpt lat="40.0713749" lon="-105.229789">
  <ele>1583.0</ele>
  <time>2026-08-28T17:54:13Z</time>
  <course>247.1</course>
  <speed>0.0</speed>
  <fix>3d</fix>
</trkpt>
<trkpt lat="40.0713749" lon="-105.229789">
  <ele>1583.0</ele>
  <time>2026-08-28T17:54:13Z</time>
  <course>0.0</course>
  <speed>0.0</speed>
  <fix>3d</fix>
</trkpt>
<trkpt lat="40.0713749" lon="-105.229789">
  <ele>1583.0</ele>
  <time>2026-08-28T17:54:13Z</time>
  <course>247.17</course>
  <speed>0.0</speed>
  <fix>3d</fix>
</trkpt>
<trkpt lat="40.0713749" lon="-105.229789">
  <ele>1583.0</ele>
  <time>2026-08-28T17:54:13Z</time>
  <course>0.0</course>
  <speed>0.0</speed>
  <fix>3d</fix>
</trkpt>
<trkpt lat="40.0713749" lon="-105.229789">
  <ele>1583.0</ele>
  <time>2026-08-28T17:54:13Z</time>
  <course>247.23</course>
  <speed>0.0</speed>
  <fix>3d</fix>
</trkpt>
<trkpt lat="40.0713749" lon="-105.229789">
  <ele>1583.0</ele>
  <time>2026-08-28T17:54:13Z</time>
  <course>0.0</course>
  <speed>0.0</speed>
  <fix>3d</fix>
</trkpt>
<trkpt lat="40.0713749" lon="-105.229789">
  <ele>1583.0</ele>
  <time>2026-08-28T17:54:13Z</time>
  <course>247.3</course>
  <speed>0.0</speed>
  <fix>3d</fix>
</trkpt>
<trkpt lat="40.0713749" lon="-105.229789">
  <ele>1583.0</ele>
  <time>2026-08-28T17:54:13Z</time>
  <course>0.0</course>
  <speed>0.0</speed>
  <fix>3d</fix>
</trkpt>
<trkpt lat="40.0713749" lon="-105.229789">
  <ele>1583.0</ele>
  <time>2026-08-28T17:54:13Z</time>
  <course>247.36</course>
  <speed>0.0</speed>
  <fix>3d</fix>
</trkpt>
<trkpt lat="40.0713749" lon="-105.229789">
  <ele>1583.0</ele>
  <time>2026-08-28T17:54:13Z</time>
  <course>0.0</course>
  <speed>0.0</speed>
  <fix>3d</fix>
</trkpt>
<trkpt lat="40.0713749" lon="-105.229789">
  <ele>1583.0</ele>
  <time>2026-08-28T17:54:13Z</time>
  <course>247.42</course>
  <speed>0.0</speed>
  <fix>3d</fix>
</trkpt>
<trkpt lat="40.0713749" lon="-105.229789">
  <ele>1583.0</ele>
  <time>2026-08-28T17:54:13Z</time>
  <course>0.0</course>
  <speed>0.0</speed>
  <fix>3d</fix>
</trkpt>
<trkpt lat="40.0713749" lon="-105.229789">
  <ele>1583.0</ele>
  <time>2026-08-28T17:54:13Z</time>
  <course>247.47</course>
  <speed>0.0</speed>
  <fix>3d</fix>
</trkpt>
<trkpt lat="40.0713749" lon="-105.229789">
  <ele>1583.0</ele>
  <time>2026-08-28T17:54:13Z</time>
  <course>0.0</course>
  <speed>0.0</speed>
  <fix>3d</fix>
</trkpt>
<trkpt lat="40.0713749" lon="-105.229789">
  <ele>1583.0</ele>
  <time>2026-08-28T17:54:13Z</time>
  <course>247.52</course>
  <speed>0.0</speed>
  <fix>3d</fix>
</trkpt>
<trkpt lat="40.0713749" lon="-105.229789">
  <ele>1583.0</ele>
  <time>2026-08-28T17:54:13Z</time>
  <course>0.0</course>
  <speed>0.0</speed>
  <fix>3d</fix>
</trkpt>
<trkpt lat="40.0713749" lon="-105.229789">
  <ele>1583.0</ele>
  <time>2026-08-28T17:54:13Z</time>
  <course>247.57</course>
  <speed>0.0</speed>
  <fix>3d</fix>
</trkpt>
<trkpt lat="40.0713749" lon="-105.229789">
  <ele>1583.0</ele>
  <time>2026-08-28T17:54:13Z</time>
  <course>0.0</course>
  <speed>0.0</speed>
  <fix>3d</fix>
</trkpt>
<trkpt lat="40.0713749" lon="-105.229789">
  <ele>1583.0</ele>
  <time>2026-08-28T17:54:13Z</time>
  <course>247.62</course>
  <speed>0.0</speed>
  <fix>3d</fix>
</trkpt>
<trkpt lat="40.0713749" lon="-105.229789">
  <ele>1583.0</ele>
  <time>2026-08-28T17:54:13Z</time>
  <course>0.0</course>
  <speed>0.0</speed>
  <fix>3d</fix>
</trkpt>
<trkpt lat="40.0713749" lon="-105.229789">
  <ele>1583.0</ele>
  <time>2026-08-28T17:54:13Z</time>
  <course>247.67</course>
  <speed>0.0</speed>
  <fix>3d</fix>
</trkpt>
<trkpt lat="40.0713749" lon="-105.229789">
  <ele>1583.0</ele>
  <time>2026-08-28T17:54:13Z</time>
  <course>0.0</course>
  <speed>0.0</speed>
  <fix>3d</fix>
</trkpt>
<trkpt lat="40.0713749" lon="-105.229789">
  <ele>1583.0</ele>
  <time>2026-08-28T17:54:13Z</time>
  <course>247.71</course>
  <speed>0.0</speed>
  <fix>3d</fix>
</trkpt>
<trkpt lat="40.0713749" lon="-105.229789">
  <ele>1583.0</ele>
  <time>2026-08-28T17:54:13Z</time>
  <course>0.0</course>
  <speed>0.0</speed>
  <fix>3d</fix>
</trkpt>
<trkpt lat="40.0713749" lon="-105.229789">
  <ele>1583.0</ele>
  <time>2026-08-28T17:54:13Z</time>
  <course>247.75</course>
  <speed>0.0</speed>
  <fix>3d</fix>
</trkpt>
<trkpt lat="40.0713749" lon="-105.229789">
  <ele>1583.0</ele>
  <time>2026-08-28T17:54:13Z</time>
  <course>0.0</course>
  <speed>0.0</speed>
  <fix>3d</fix>
</trkpt>
<trkpt lat="40.0713749" lon="-105.229789">
  <ele>1583.0</ele>
  <time>2026-08-28T17:54:13Z</time>
  <course>247.79</course>
  <speed>0.0</speed>
  <fix>3d</fix>
</trkpt>
<trkpt lat="40.0713749" lon="-105.229789">
  <ele>1583.0</ele>
  <time>2026-08-28T17:54:13Z</time>
  <course>0.0</course>
  <speed>0.0</speed>
  <fix>3d</fix>
</trkpt>
<trkpt lat="40.0713749" lon="-105.229789">
  <ele>1583.0</ele>
  <time>2026-08-28T17:54:13Z</time>
  <course>247.83</course>
  <speed>0.0</speed>
  <fix>3d</fix>
</trkpt>
<trkpt lat="40.0713749" lon="-105.229789">
  <ele>1583.0</ele>
  <time>2026-08-28T17:54:13Z</time>
  <course>0.0</course>
  <speed>0.0</speed>
  <fix>3d</fix>
</trkpt>
<trkpt lat="40.0713749" lon="-105.229789">
  <ele>1583.0</ele>
  <time>2026-08-28T17:54:13Z</time>
  <course>247.86</course>
  <speed>0.0</speed>
  <fix>3d</fix>
</trkpt>
<trkpt lat="40.0713749" lon="-105.229789">
  <ele>1583.0</ele>
  <time>2026-08-28T17:54:13Z</time>
  <course>0.0</course>
  <speed>0.0</speed>
  <fix>3d</fix>
</trkpt>
<trkpt lat="40.0713749" lon="-105.229789">
  <ele>1583.0</ele>
  <time>2026-08-28T17:54:13Z</time>
  <course>247.9</course>
  <speed>0.0</speed>
  <fix>3d</fix>
</trkpt>
<trkpt lat="40.0713749" lon="-105.229789">
  <ele>1583.0</ele>
  <time>2026-08-28T17:54:13Z</time>
  <course>0.0</course>
  <speed>0.0</speed>
  <fix>3d</fix>
</trkpt>
<trkpt lat="40.0713749" lon="-105.229789">
  <ele>1583.0</ele>
  <time>2026-08-28T17:54:13Z</time>
  <course>247.93</course>
  <speed>0.0</speed>
  <fix>3d</fix>
</trkpt>
<trkpt lat="40.0713749" lon="-105.229789">
  <ele>1583.0</ele>
  <time>2026-08-28T17:54:13Z</time>
  <course>0.0</course>
  <speed>0.0</speed>
  <fix>3d</fix>
</trkpt>
<trkpt lat="40.0713749" lon="-105.229789">
  <ele>1583.0</ele>
  <time>2026-08-28T17:54:13Z</time>
  <course>247.96</course>
  <speed>0.0</speed>
  <fix>3d</fix>
</trkpt>
<trkpt lat="40.0713749" lon="-105.229789">
  <ele>1583.0</ele>
  <time>2026-08-28T17:54:13Z</time>
  <course>0.0</course>
  <speed>0.0</speed>
  <fix>3d</fix>
</trkpt>
<trkpt lat="40.0713749" lon="-105.229789">
  <ele>1583.0</ele>
  <time>2026-08-28T17:54:13Z</time>
  <course>247.99</course>
  <speed>0.0</speed>
  <fix>3d</fix>
</trkpt>
<trkpt lat="40.0713749" lon="-105.229789">
  <ele>1583.0</ele>
  <time>2026-08-28T17:54:13Z</time>
  <course>0.0</course>
  <speed>0.0</speed>
  <fix>3d</fix>
</trkpt>
<trkpt lat="40.0713749" lon="-105.229789">
  <ele>1583.0</ele>
  <time>2026-08-28T17:54:13Z</time>
  <course>248.02</course>
  <speed>0.0</speed>
  <fix>3d</fix>
</trkpt>
<trkpt lat="40.0713749" lon="-105.229789">
  <ele>1583.0</ele>
  <time>2026-08-28T17:54:13Z</time>
  <course>0.0</course>
  <speed>0.0</speed>
  <fix>3d</fix>
</trkpt>
<trkpt lat="40.0713749" lon="-105.229789">
  <ele>1583.0</ele>
  <time>2026-08-28T17:54:13Z</time>
  <course>248.04</course>
  <speed>0.0</speed>
  <fix>3d</fix>
</trkpt>
<trkpt lat="40.0713749" lon="-105.229789">
  <ele>1583.0</ele>
  <time>2026-08-28T17:54:13Z</time>
  <course>0.0</course>
  <speed>0.0</speed>
  <fix>3d</fix>
</trkpt>
<trkpt lat="40.0713749" lon="-105.229789">
  <ele>1583.0</ele>
  <time>2026-08-28T17:54:13Z</time>
  <course>248.07</course>
  <speed>0.0</speed>
  <fix>3d</fix>
</trkpt>
<trkpt lat="40.0713749" lon="-105.229789">
  <ele>1583.0</ele>
  <time>2026-08-28T17:54:13Z</time>
  <course>0.0</course>
  <speed>0.0</speed>
  <fix>3d</fix>
</trkpt>
<trkpt lat="40.0713749" lon="-105.229789">
  <ele>1583.0</ele>
  <time>2026-08-28T17:54:13Z</time>
  <course>248.09</course>
  <speed>0.0</speed>
  <fix>3d</fix>
</trkpt>
<trkpt lat="40.0713749" lon="-105.229789">
  <ele>1583.0</ele>
  <time>2026-08-28T17:54:13Z</time>
  <course>0.0</course>
  <speed>0.0</speed>
  <fix>3d</fix>
</trkpt>
<trkpt lat="40.0713749" lon="-105.229789">
  <ele>1583.0</ele>
  <time>2026-08-28T17:54:13Z</time>
  <course>248.12</course>
  <speed>0.0</speed>
  <fix>3d</fix>
</trkpt>
<trkpt lat="40.0713749" lon="-105.229789">
  <ele>1583.0</ele>
  <time>2026-08-28T17:54:13Z</time>
  <course>0.0</course>
  <speed>0.0</speed>
  <fix>3d</fix>
</trkpt>
<trkpt lat="40.0713749" lon="-105.229789">
  <ele>1583.0</ele>
  <time>2026-08-28T17:54:13Z</time>
  <course>248.14</course>
  <speed>0.0</speed>
  <fix>3d</fix>
</trkpt>
<trkpt lat="40.0713749" lon="-105.229789">
  <ele>1583.0</ele>
  <time>2026-08-28T17:54:13Z</time>
  <course>0.0</course>
  <speed>0.0</speed>
  <fix>3d</fix>
</trkpt>
<trkpt lat="40.0713749" lon="-105.229789">
  <ele>1583.0</ele>
  <time>2026-08-28T17:54:13Z</time>
  <course>248.16</course>
  <speed>0.0</speed>
  <fix>3d</fix>
</trkpt>
<trkpt lat="40.0713749" lon="-105.229789">
  <ele>1583.0</ele>
  <time>2026-08-28T17:54:13Z</time>
  <course>0.0</course>
  <speed>0.0</speed>
  <fix>3d</fix>
</trkpt>
<trkpt lat="40.0713749" lon="-105.229789">
  <ele>1583.0</ele>
  <time>2026-08-28T17:54:13Z</time>
  <course>248.18</course>
  <speed>0.0</speed>
  <fix>3d</fix>
</trkpt>
<trkpt lat="40.0713749" lon="-105.229789">
  <ele>1583.0</ele>
  <time>2026-08-28T17:54:13Z</time>
  <course>0.0</course>
  <speed>0.0</speed>
  <fix>3d</fix>
</trkpt>
<trkpt lat="40.0713749" lon="-105.229789">
  <ele>1583.0</ele>
  <time>2026-08-28T17:54:13Z</time>
  <course>248.19</course>
  <speed>0.0</speed>
  <fix>3d</fix>
</trkpt>
<trkpt lat="40.0713749" lon="-105.229789">
  <ele>1583.0</ele>
  <time>2026-08-28T17:54:13Z</time>
  <course>0.0</course>
  <speed>0.0</speed>
  <fix>3d</fix>
</trkpt>
<trkpt lat="40.0713749" lon="-105.229789">
  <ele>1583.0</ele>
  <time>2026-08-28T17:54:14Z</time>
  <course>248.21</course>
  <speed>0.0</speed>
  <fix>3d</fix>
</trkpt>
<trkpt lat="40.0713749" lon="-105.229789">
  <ele>1583.0</ele>
  <time>2026-08-28T17:54:14Z</time>
  <course>0.0</course>
  <speed>0.0</speed>
  <fix>3d</fix>
</trkpt>
<trkpt lat="40.0713749" lon="-105.229789">
  <ele>1583.0</ele>
  <time>2026-08-28T17:54:14Z</time>
  <course>248.23</course>
  <speed>0.0</speed>
  <fix>3d</fix>
</trkpt>
<trkpt lat="40.0713749" lon="-105.229789">
  <ele>1583.0</ele>
  <time>2026-08-28T17:54:14Z</time>
  <course>0.0</course>
  <speed>0.0</speed>
  <fix>3d</fix>
</trkpt>
<trkpt lat="40.0713749" lon="-105.229789">
  <ele>1583.0</ele>
  <time>2026-08-28T17:54:14Z</time>
  <course>248.24</course>
  <speed>0.0</speed>
  <fix>3d</fix>
</trkpt>
<trkpt lat="40.0713749" lon="-105.229789">
  <ele>1583.0</ele>
  <time>2026-08-28T17:54:14Z</time>
  <course>0.0</course>
  <speed>0.0</speed>
  <fix>3d</fix>
</trkpt>
<trkpt lat="40.0713749" lon="-105.229789">
  <ele>1583.0</ele>
  <time>2026-08-28T17:54:14Z</time>
  <course>248.26</course>
  <speed>0.0</speed>
  <fix>3d</fix>
</trkpt>
<trkpt lat="40.0713749" lon="-105.229789">
  <ele>1583.0</ele>
  <time>2026-08-28T17:54:14Z</time>
  <course>0.0</course>
  <speed>0.0</speed>
  <fix>3d</fix>
</trkpt>
<trkpt lat="40.0713749" lon="-105.229789">
  <ele>1583.0</ele>
  <time>2026-08-28T17:54:14Z</time>
  <course>248.27</course>
  <speed>0.0</speed>
  <fix>3d</fix>
</trkpt>
<trkpt lat="40.0713749" lon="-105.229789">
  <ele>1583.0</ele>
  <time>2026-08-28T17:54:14Z</time>
  <course>0.0</course>
  <speed>0.0</speed>
  <fix>3d</fix>
</trkpt>
<trkpt lat="40.0713749" lon="-105.229789">
  <ele>1583.0</ele>
  <time>2026-08-28T17:54:14Z</time>
  <course>248.28</course>
  <speed>0.0</speed>
  <fix>3d</fix>
</trkpt>
<trkpt lat="40.0713749" lon="-105.229789">
  <ele>1583.0</ele>
  <time>2026-08-28T17:54:14Z</time>
  <course>0.0</course>
  <speed>0.0</speed>
  <fix>3d</fix>
</trkpt>
<trkpt lat="40.0713749" lon="-105.229789">
  <ele>1583.0</ele>
  <time>2026-08-28T17:54:14Z</time>
  <course>248.29</course>
  <speed>0.0</speed>
  <fix>3d</fix>
</trkpt>
<trkpt lat="40.0713749" lon="-105.229789">
  <ele>1583.0</ele>
  <time>2026-08-28T17:54:14Z</time>
  <course>0.0</course>
  <speed>0.0</speed>
  <fix>3d</fix>
</trkpt>
<trkpt lat="40.0713749" lon="-105.229789">
  <ele>1583.0</ele>
  <time>2026-08-28T17:54:14Z</time>
  <course>248.3</course>
  <speed>0.0</speed>
  <fix>3d</fix>
</trkpt>
<trkpt lat="40.0713749" lon="-105.229789">
  <ele>1583.0</ele>
  <time>2026-08-28T17:54:14Z</time>
  <course>0.0</course>
  <speed>0.0</speed>
  <fix>3d</fix>
</trkpt>
<trkpt lat="40.0713749" lon="-105.229789">
  <ele>1583.0</ele>
  <time>2026-08-28T17:54:14Z</time>
  <course>248.31</course>
  <speed>0.0</speed>
  <fix>3d</fix>
</trkpt>
<trkpt lat="40.0713749" lon="-105.229789">
  <ele>1583.0</ele>
  <time>2026-08-28T17:54:14Z</time>
  <course>0.0</course>
  <speed>0.0</speed>
  <fix>3d</fix>
</trkpt>
<trkpt lat="40.0713749" lon="-105.229789">
  <ele>1583.0</ele>
  <time>2026-08-28T17:54:14Z</time>
  <course>248.32</course>
  <speed>0.0</speed>
  <fix>3d</fix>
</trkpt>
<trkpt lat="40.0713749" lon="-105.229789">
  <ele>1583.0</ele>
  <time>2026-08-28T17:54:14Z</time>
  <course>0.0</course>
  <speed>0.0</speed>
  <fix>3d</fix>
</trkpt>
<trkpt lat="40.0713749" lon="-105.229789">
  <ele>1583.0</ele>
  <time>2026-08-28T17:54:14Z</time>
  <course>248.33</course>
  <speed>0.0</speed>
  <fix>3d</fix>
</trkpt>
<trkpt lat="40.0713749" lon="-105.229789">
  <ele>1583.0</ele>
  <time>2026-08-28T17:54:14Z</time>
  <course>0.0</course>
  <speed>0.0</speed>
  <fix>3d</fix>
</trkpt>
<trkpt lat="40.0713749" lon="-105.229789">
  <ele>1583.0</ele>
  <time>2026-08-28T17:54:14Z</time>
  <course>248.34</course>
  <speed>0.0</speed>
  <fix>3d</fix>
</trkpt>
<trkpt lat="40.0713749" lon="-105.229789">
  <ele>1583.0</ele>
  <time>2026-08-28T17:54:14Z</time>
  <course>0.0</course>
  <speed>0.0</speed>
  <fix>3d</fix>
</trkpt>
<trkpt lat="40.0713749" lon="-105.229789">
  <ele>1583.0</ele>
  <time>2026-08-28T17:54:14Z</time>
  <course>248.35</course>
  <speed>0.0</speed>
  <fix>3d</fix>
</trkpt>
<trkpt lat="40.0713749" lon="-105.229789">
  <ele>1583.0</ele>
  <time>2026-08-28T17:54:14Z</time>
  <course>0.0</course>
  <speed>0.0</speed>
  <fix>3d</fix>
</trkpt>
<trkpt lat="40.0713749" lon="-105.229789">
  <ele>1583.0</ele>
  <time>2026-08-28T17:54:14Z</time>
  <course>248.35</course>
  <speed>0.0</speed>
  <fix>3d</fix>
</trkpt>
<trkpt lat="40.0713749" lon="-105.229789">
  <ele>1583.0</ele>
  <time>2026-08-28T17:54:14Z</time>
  <course>0.0</course>
  <speed>0.0</speed>
  <fix>3d</fix>
</trkpt>
<trkpt lat="40.0713749" lon="-105.229789">
  <ele>1583.0</ele>
  <time>2026-08-28T17:54:14Z</time>
  <course>248.36</course>
  <speed>0.0</speed>
  <fix>3d</fix>
</trkpt>
<trkpt lat="40.0713749" lon="-105.229789">
  <ele>1583.0</ele>
  <time>2026-08-28T17:54:14Z</time>
  <course>0.0</course>
  <speed>0.0</speed>
  <fix>3d</fix>
</trkpt>
<trkpt lat="40.0713749" lon="-105.229789">
  <ele>1583.0</ele>
  <time>2026-08-28T17:54:14Z</time>
  <course>248.37</course>
  <speed>0.0</speed>
  <fix>3d</fix>
</trkpt>
<trkpt lat="40.0713749" lon="-105.229789">
  <ele>1583.0</ele>
  <time>2026-08-28T17:54:14Z</time>
  <course>0.0</course>
  <speed>0.0</speed>
  <fix>3d</fix>
</trkpt>
<trkpt lat="40.0713749" lon="-105.229789">
  <ele>1583.0</ele>
  <time>2026-08-28T17:54:14Z</time>
  <course>248.37</course>
  <speed>0.0</speed>
  <fix>3d</fix>
</trkpt>
<trkpt lat="40.0713749" lon="-105.229789">
  <ele>1583.0</ele>
  <time>2026-08-28T17:54:14Z</time>
  <course>0.0</course>
  <speed>0.0</speed>
  <fix>3d</fix>
</trkpt>
<trkpt lat="40.0713749" lon="-105.229789">
  <ele>1583.0</ele>
  <time>2026-08-28T17:54:14Z</time>
  <course>248.38</course>
  <speed>0.0</speed>
  <fix>3d</fix>
</trkpt>
<trkpt lat="40.0713749" lon="-105.229789">
  <ele>1583.0</ele>
  <time>2026-08-28T17:54:14Z</time>
  <course>0.0</course>
  <speed>0.0</speed>
  <fix>3d</fix>
</trkpt>
<trkpt lat="40.0713749" lon="-105.229789">
  <ele>1583.0</ele>
  <time>2026-08-28T17:54:14Z</time>
  <course>248.38</course>
  <speed>0.0</speed>
  <fix>3d</fix>
</trkpt>
<trkpt lat="40.0713749" lon="-105.229789">
  <ele>1583.0</ele>
  <time>2026-08-28T17:54:14Z</time>
  <course>0.0</course>
  <speed>0.0</speed>
  <fix>3d</fix>
</trkpt>
<trkpt lat="40.0713749" lon="-105.229789">
  <ele>1583.0</ele>
  <time>2026-08-28T17:54:14Z</time>
  <course>248.39</course>
  <speed>0.0</speed>
  <fix>3d</fix>
</trkpt>
<trkpt lat="40.0713749" lon="-105.229789">
  <ele>1583.0</ele>
  <time>2026-08-28T17:54:14Z</time>
  <course>0.0</course>
  <speed>0.0</speed>
  <fix>3d</fix>
</trkpt>
<trkpt lat="40.0713749" lon="-105.229789">
  <ele>1583.0</ele>
  <time>2026-08-28T17:54:14Z</time>
  <course>248.39</course>
  <speed>0.0</speed>
  <fix>3d</fix>
</trkpt>
<trkpt lat="40.0713749" lon="-105.229789">
  <ele>1583.0</ele>
  <time>2026-08-28T17:54:14Z</time>
  <course>0.0</course>
  <speed>0.0</speed>
  <fix>3d</fix>
</trkpt>
<trkpt lat="40.0713749" lon="-105.229789">
  <ele>1583.0</ele>
  <time>2026-08-28T17:54:14Z</time>
  <course>248.39</course>
  <speed>0.0</speed>
  <fix>3d</fix>
</trkpt>
<trkpt lat="40.0713749" lon="-105.229789">
  <ele>1583.0</ele>
  <time>2026-08-28T17:54:14Z</time>
  <course>0.0</course>
  <speed>0.0</speed>
  <fix>3d</fix>
</trkpt>
<trkpt lat="40.0713749" lon="-105.229789">
  <ele>1583.0</ele>
  <time>2026-08-28T17:54:14Z</time>
  <course>248.4</course>
  <speed>0.0</speed>
  <fix>3d</fix>
</trkpt>
<trkpt lat="40.0713749" lon="-105.229789">
  <ele>1583.0</ele>
  <time>2026-08-28T17:54:14Z</time>
  <course>0.0</course>
  <speed>0.0</speed>
  <fix>3d</fix>
</trkpt>
<trkpt lat="40.0713749" lon="-105.229789">
  <ele>1583.0</ele>
  <time>2026-08-28T17:54:14Z</time>
  <course>248.4</course>
  <speed>0.0</speed>
  <fix>3d</fix>
</trkpt>
<trkpt lat="40.0713749" lon="-105.229789">
  <ele>1583.0</ele>
  <time>2026-08-28T17:54:14Z</time>
  <course>0.0</course>
  <speed>0.0</speed>
  <fix>3d</fix>
</trkpt>
<trkpt lat="40.0713749" lon="-105.229789">
  <ele>1583.0</ele>
  <time>2026-08-28T17:54:14Z</time>
  <course>248.4</course>
  <speed>0.0</speed>
  <fix>3d</fix>
</trkpt>
<trkpt lat="40.0713749" lon="-105.229789">
  <ele>1583.0</ele>
  <time>2026-08-28T17:54:14Z</time>
  <course>0.0</course>
  <speed>0.0</speed>
  <fix>3d</fix>
</trkpt>
<trkpt lat="40.0713749" lon="-105.229789">
  <ele>1583.0</ele>
  <time>2026-08-28T17:54:14Z</time>
  <course>248.4</course>
  <speed>0.0</speed>
  <fix>3d</fix>
</trkpt>
<trkpt lat="40.0713749" lon="-105.229789">
  <ele>1583.0</ele>
  <time>2026-08-28T17:54:14Z</time>
  <course>0.0</course>
  <speed>0.0</speed>
  <fix>3d</fix>
</trkpt>
<trkpt lat="40.0713749" lon="-105.229789">
  <ele>1583.0</ele>
  <time>2026-08-28T17:54:14Z</time>
  <course>248.4</course>
  <speed>0.0</speed>
  <fix>3d</fix>
</trkpt>
<trkpt lat="40.0713749" lon="-105.229789">
  <ele>1583.0</ele>
  <time>2026-08-28T17:54:14Z</time>
  <course>0.0</course>
  <speed>0.0</speed>
  <fix>3d</fix>
</trkpt>
<trkpt lat="40.0713749" lon="-105.229789">
  <ele>1583.0</ele>
  <time>2026-08-28T17:54:14Z</time>
  <course>248.4</course>
  <speed>0.0</speed>
  <fix>3d</fix>
</trkpt>
<trkpt lat="40.0713749" lon="-105.229789">
  <ele>1583.0</ele>
  <time>2026-08-28T17:54:14Z</time>
  <course>0.0</course>
  <speed>0.0</speed>
  <fix>3d</fix>
</trkpt>
<trkpt lat="40.0713749" lon="-105.229789">
  <ele>1583.0</ele>
  <time>2026-08-28T17:54:14Z</time>
  <course>248.41</course>
  <speed>0.0</speed>
  <fix>3d</fix>
</trkpt>
<trkpt lat="40.0713749" lon="-105.229789">
  <ele>1583.0</ele>
  <time>2026-08-28T17:54:14Z</time>
  <course>0.0</course>
  <speed>0.0</speed>
  <fix>3d</fix>
</trkpt>
<trkpt lat="40.0713749" lon="-105.229789">
  <ele>1583.0</ele>
  <time>2026-08-28T17:54:14Z</time>
  <course>248.41</course>
  <speed>0.0</speed>
  <fix>3d</fix>
</trkpt>
<trkpt lat="40.0713749" lon="-105.229789">
  <ele>1583.0</ele>
  <time>2026-08-28T17:54:14Z</time>
  <course>0.0</course>
  <speed>0.0</speed>
  <fix>3d</fix>
</trkpt>
<trkpt lat="40.0713749" lon="-105.229789">
  <ele>1583.0</ele>
  <time>2026-08-28T17:54:14Z</time>
  <course>248.41</course>
  <speed>0.0</speed>
  <fix>3d</fix>
</trkpt>
<trkpt lat="40.0713749" lon="-105.229789">
  <ele>1583.0</ele>
  <time>2026-08-28T17:54:14Z</time>
  <course>0.0</course>
  <speed>0.0</speed>
  <fix>3d</fix>
</trkpt>
<trkpt lat="40.0713749" lon="-105.229789">
  <ele>1583.0</ele>
  <time>2026-08-28T17:54:14Z</time>
  <course>248.41</course>
  <speed>0.0</speed>
  <fix>3d</fix>
</trkpt>
<trkpt lat="40.0713749" lon="-105.229789">
  <ele>1583.0</ele>
  <time>2026-08-28T17:54:14Z</time>
  <course>0.0</course>
  <speed>0.0</speed>
  <fix>3d</fix>
</trkpt>
<trkpt lat="40.0713749" lon="-105.229789">
  <ele>1583.0</ele>
  <time>2026-08-28T17:54:14Z</time>
  <course>248.41</course>
  <speed>0.0</speed>
  <fix>3d</fix>
</trkpt>
<trkpt lat="40.0713749" lon="-105.229789">
  <ele>1583.0</ele>
  <time>2026-08-28T17:54:14Z</time>
  <course>0.0</course>
  <speed>0.0</speed>
  <fix>3d</fix>
</trkpt>
<trkpt lat="40.0713749" lon="-105.229789">
  <ele>1583.0</ele>
  <time>2026-08-28T17:54:14Z</time>
  <course>248.41</course>
  <speed>0.0</speed>
  <fix>3d</fix>
</trkpt>
<trkpt lat="40.0713749" lon="-105.229789">
  <ele>1583.0</ele>
  <time>2026-08-28T17:54:14Z</time>
  <course>0.0</course>
  <speed>0.0</speed>
  <fix>3d</fix>
</trkpt>
<trkpt lat="40.0713749" lon="-105.229789">
  <ele>1583.0</ele>
  <time>2026-08-28T17:54:14Z</time>
  <course>248.41</course>
  <speed>0.0</speed>
  <fix>3d</fix>
</trkpt>
<trkpt lat="40.0713749" lon="-105.229789">
  <ele>1583.0</ele>
  <time>2026-08-28T17:54:14Z</time>
  <course>0.0</course>
  <speed>0.0</speed>
  <fix>3d</fix>
</trkpt>
<trkpt lat="40.0713749" lon="-105.229789">
  <ele>1583.0</ele>
  <time>2026-08-28T17:54:14Z</time>
  <course>248.4</course>
  <speed>0.0</speed>
  <fix>3d</fix>
</trkpt>
<trkpt lat="40.0713749" lon="-105.229789">
  <ele>1583.0</ele>
  <time>2026-08-28T17:54:14Z</time>
  <course>0.0</course>
  <speed>0.0</speed>
  <fix>3d</fix>
</trkpt>
<trkpt lat="40.0713749" lon="-105.229789">
  <ele>1583.0</ele>
  <time>2026-08-28T17:54:14Z</time>
  <course>248.4</course>
  <speed>0.0</speed>
  <fix>3d</fix>
</trkpt>
<trkpt lat="40.0713749" lon="-105.229789">
  <ele>1583.0</ele>
  <time>2026-08-28T17:54:14Z</time>
  <course>0.0</course>
  <speed>0.0</speed>
  <fix>3d</fix>
</trkpt>
<trkpt lat="40.0713749" lon="-105.229789">
  <ele>1583.0</ele>
  <time>2026-08-28T17:54:14Z</time>
  <course>248.4</course>
  <speed>0.0</speed>
  <fix>3d</fix>
</trkpt>
<trkpt lat="40.0713749" lon="-105.229789">
  <ele>1583.0</ele>
  <time>2026-08-28T17:54:14Z</time>
  <course>0.0</course>
  <speed>0.0</speed>
  <fix>3d</fix>
</trkpt>
<trkpt lat="40.0713749" lon="-105.229789">
  <ele>1583.0</ele>
  <time>2026-08-28T17:54:14Z</time>
  <course>248.4</course>
  <speed>0.0</speed>
  <fix>3d</fix>
</trkpt>
<trkpt lat="40.0713749" lon="-105.229789">
  <ele>1583.0</ele>
  <time>2026-08-28T17:54:14Z</time>
  <course>0.0</course>
  <speed>0.0</speed>
  <fix>3d</fix>
</trkpt>
<trkpt lat="40.0713749" lon="-105.229789">
  <ele>1583.0</ele>
  <time>2026-08-28T17:54:14Z</time>
  <course>248.4</course>
  <speed>0.0</speed>
  <fix>3d</fix>
</trkpt>
<trkpt lat="40.0713749" lon="-105.229789">
  <ele>1583.0</ele>
  <time>2026-08-28T17:54:14Z</time>
  <course>0.0</course>
  <speed>0.0</speed>
  <fix>3d</fix>
</trkpt>
<trkpt lat="40.0713749" lon="-105.229789">
  <ele>1583.0</ele>
  <time>2026-08-28T17:54:14Z</time>
  <course>248.4</course>
  <speed>0.0</speed>
  <fix>3d</fix>
</trkpt>
<trkpt lat="40.0713749" lon="-105.229789">
  <ele>1583.0</ele>
  <time>2026-08-28T17:54:14Z</time>
  <course>0.0</course>
  <speed>0.0</speed>
  <fix>3d</fix>
</trkpt>
<trkpt lat="40.0713749" lon="-105.229789">
  <ele>1583.0</ele>
  <time>2026-08-28T17:54:14Z</time>
  <course>248.4</course>
  <speed>0.0</speed>
  <fix>3d</fix>
</trkpt>
<trkpt lat="40.0713749" lon="-105.229789">
  <ele>1583.0</ele>
  <time>2026-08-28T17:54:14Z</time>
  <course>0.0</course>
  <speed>0.0</speed>
  <fix>3d</fix>
</trkpt>
<trkpt lat="40.0713749" lon="-105.229789">
  <ele>1583.0</ele>
  <time>2026-08-28T17:54:14Z</time>
  <course>248.39</course>
  <speed>0.01</speed>
  <fix>3d</fix>
</trkpt>
<trkpt lat="40.0713749" lon="-105.229789">
  <ele>1583.0</ele>
  <time>2026-08-28T17:54:14Z</time>
  <course>0.0</course>
  <speed>0.0</speed>
  <fix>3d</fix>
</trkpt>
<trkpt lat="40.0713749" lon="-105.229789">
  <ele>1583.0</ele>
  <time>2026-08-28T17:54:14Z</time>
  <course>248.39</course>
  <speed>0.01</speed>
  <fix>3d</fix>
</trkpt>
<trkpt lat="40.0713749" lon="-105.229789">
  <ele>1583.0</ele>
  <time>2026-08-28T17:54:14Z</time>
  <course>0.0</course>
  <speed>0.0</speed>
  <fix>3d</fix>
</trkpt>
<trkpt lat="40.0713749" lon="-105.229789">
  <ele>1583.0</ele>
  <time>2026-08-28T17:54:14Z</time>
  <course>248.39</course>
  <speed>0.01</speed>
  <fix>3d</fix>
</trkpt>
<trkpt lat="40.0713749" lon="-105.229789">
  <ele>1583.0</ele>
  <time>2026-08-28T17:54:14Z</time>
  <course>0.0</course>
  <speed>0.0</speed>
  <fix>3d</fix>
</trkpt>
<trkpt lat="40.0713749" lon="-105.229789">
  <ele>1583.0</ele>
  <time>2026-08-28T17:54:14Z</time>
  <course>248.39</course>
  <speed>0.01</speed>
  <fix>3d</fix>
</trkpt>
<trkpt lat="40.0713749" lon="-105.229789">
  <ele>1583.0</ele>
  <time>2026-08-28T17:54:14Z</time>
  <course>0.0</course>
  <speed>0.0</speed>
  <fix>3d</fix>
</trkpt>
<trkpt lat="40.0713749" lon="-105.229789">
  <ele>1583.0</ele>
  <time>2026-08-28T17:54:14Z</time>
  <course>248.38</course>
  <speed>0.01</speed>
  <fix>3d</fix>
</trkpt>
<trkpt lat="40.0713749" lon="-105.229789">
  <ele>1583.0</ele>
  <time>2026-08-28T17:54:14Z</time>
  <course>0.0</course>
  <speed>0.0</speed>
  <fix>3d</fix>
</trkpt>
<trkpt lat="40.0713749" lon="-105.229789">
  <ele>1583.0</ele>
  <time>2026-08-28T17:54:14Z</time>
  <course>248.38</course>
  <speed>0.01</speed>
  <fix>3d</fix>
</trkpt>
<trkpt lat="40.0713749" lon="-105.229789">
  <ele>1583.0</ele>
  <time>2026-08-28T17:54:14Z</time>
  <course>0.0</course>
  <speed>0.0</speed>
  <fix>3d</fix>
</trkpt>
<trkpt lat="40.0713749" lon="-105.229789">
  <ele>1583.0</ele>
  <time>2026-08-28T17:54:14Z</time>
  <course>248.38</course>
  <speed>0.01</speed>
  <fix>3d</fix>
</trkpt>
<trkpt lat="40.0713749" lon="-105.229789">
  <ele>1583.0</ele>
  <time>2026-08-28T17:54:14Z</time>
  <course>0.0</course>
  <speed>0.0</speed>
  <fix>3d</fix>
</trkpt>
<trkpt lat="40.0713749" lon="-105.229789">
  <ele>1583.0</ele>
  <time>2026-08-28T17:54:14Z</time>
  <course>248.38</course>
  <speed>0.01</speed>
  <fix>3d</fix>
</trkpt>
<trkpt lat="40.0713749" lon="-105.229789">
  <ele>1583.0</ele>
  <time>2026-08-28T17:54:14Z</time>
  <course>0.0</course>
  <speed>0.0</speed>
  <fix>3d</fix>
</trkpt>
<trkpt lat="40.0713749" lon="-105.229789">
  <ele>1583.0</ele>
  <time>2026-08-28T17:54:14Z</time>
  <course>248.37</course>
  <speed>0.01</speed>
  <fix>3d</fix>
</trkpt>
<trkpt lat="40.0713749" lon="-105.229789">
  <ele>1583.0</ele>
  <time>2026-08-28T17:54:14Z</time>
  <course>0.0</course>
  <speed>0.0</speed>
  <fix>3d</fix>
</trkpt>
<trkpt lat="40.0713749" lon="-105.229789">
  <ele>1583.0</ele>
  <time>2026-08-28T17:54:14Z</time>
  <course>248.37</course>
  <speed>0.01</speed>
  <fix>3d</fix>
</trkpt>
<trkpt lat="40.0713749" lon="-105.229789">
  <ele>1583.0</ele>
  <time>2026-08-28T17:54:14Z</time>
  <course>0.0</course>
  <speed>0.0</speed>
  <fix>3d</fix>
</trkpt>
<trkpt lat="40.0713749" lon="-105.229789">
  <ele>1583.0</ele>
  <time>2026-08-28T17:54:14Z</time>
  <course>248.37</course>
  <speed>0.01</speed>
  <fix>3d</fix>
</trkpt>
<trkpt lat="40.0713749" lon="-105.229789">
  <ele>1583.0</ele>
  <time>2026-08-28T17:54:14Z</time>
  <course>0.0</course>
  <speed>0.0</speed>
  <fix>3d</fix>
</trkpt>
<trkpt lat="40.0713749" lon="-105.229789">
  <ele>1583.0</ele>
  <time>2026-08-28T17:54:14Z</time>
  <course>248.36</course>
  <speed>0.01</speed>
  <fix>3d</fix>
</trkpt>
<trkpt lat="40.0713749" lon="-105.229789">
  <ele>1583.0</ele>
  <time>2026-08-28T17:54:14Z</time>
  <course>0.0</course>
  <speed>0.0</speed>
  <fix>3d</fix>
</trkpt>
<trkpt lat="40.0713749" lon="-105.229789">
  <ele>1583.0</ele>
  <time>2026-08-28T17:54:14Z</time>
  <course>248.36</course>
  <speed>0.01</speed>
  <fix>3d</fix>
</trkpt>
<trkpt lat="40.0713749" lon="-105.229789">
  <ele>1583.0</ele>
  <time>2026-08-28T17:54:14Z</time>
  <course>0.0</course>
  <speed>0.0</speed>
  <fix>3d</fix>
</trkpt>
<trkpt lat="40.0713749" lon="-105.229789">
  <ele>1583.0</ele>
  <time>2026-08-28T17:54:14Z</time>
  <course>248.35</course>
  <speed>0.01</speed>
  <fix>3d</fix>
</trkpt>
<trkpt lat="40.0713749" lon="-105.229789">
  <ele>1583.0</ele>
  <time>2026-08-28T17:54:14Z</time>
  <course>0.0</course>
  <speed>0.0</speed>
  <fix>3d</fix>
</trkpt>
<trkpt lat="40.0713749" lon="-105.229789">
  <ele>1583.0</ele>
  <time>2026-08-28T17:54:14Z</time>
  <course>248.35</course>
  <speed>0.01</speed>
  <fix>3d</fix>
</trkpt>
<trkpt lat="40.0713749" lon="-105.229789">
  <ele>1583.0</ele>
  <time>2026-08-28T17:54:14Z</time>
  <course>0.0</course>
  <speed>0.0</speed>
  <fix>3d</fix>
</trkpt>
<trkpt lat="40.0713749" lon="-105.229789">
  <ele>1583.0</ele>
  <time>2026-08-28T17:54:14Z</time>
  <course>248.35</course>
  <speed>0.01</speed>
  <fix>3d</fix>
</trkpt>
<trkpt lat="40.0713749" lon="-105.229789">
  <ele>1583.0</ele>
  <time>2026-08-28T17:54:14Z</time>
  <course>0.0</course>
  <speed>0.0</speed>
  <fix>3d</fix>
</trkpt>
<trkpt lat="40.0713749" lon="-105.229789">
  <ele>1583.0</ele>
  <time>2026-08-28T17:54:14Z</time>
  <course>248.34</course>
  <speed>0.01</speed>
  <fix>3d</fix>
</trkpt>
<trkpt lat="40.0713749" lon="-105.229789">
  <ele>1583.0</ele>
  <time>2026-08-28T17:54:14Z</time>
  <course>0.0</course>
  <speed>0.0</speed>
  <fix>3d</fix>
</trkpt>
<trkpt lat="40.0713749" lon="-105.229789">
  <ele>1583.0</ele>
  <time>2026-08-28T17:54:14Z</time>
  <course>248.34</course>
  <speed>0.01</speed>
  <fix>3d</fix>
</trkpt>
<trkpt lat="40.0713749" lon="-105.229789">
  <ele>1583.0</ele>
  <time>2026-08-28T17:54:14Z</time>
  <course>0.0</course>
  <speed>0.0</speed>
  <fix>3d</fix>
</trkpt>
<trkpt lat="40.0713749" lon="-105.229789">
  <ele>1583.0</ele>
  <time>2026-08-28T17:54:14Z</time>
  <course>248.34</course>
  <speed>0.01</speed>
  <fix>3d</fix>
</trkpt>
<trkpt lat="40.0713749" lon="-105.229789">
  <ele>1583.0</ele>
  <time>2026-08-28T17:54:14Z</time>
  <course>0.0</course>
  <speed>0.0</speed>
  <fix>3d</fix>
</trkpt>
<trkpt lat="40.0713749" lon="-105.229789">
  <ele>1583.0</ele>
  <time>2026-08-28T17:54:14Z</time>
  <course>248.33</course>
  <speed>0.01</speed>
  <fix>3d</fix>
</trkpt>
<trkpt lat="40.0713749" lon="-105.229789">
  <ele>1583.0</ele>
  <time>2026-08-28T17:54:14Z</time>
  <course>0.0</course>
  <speed>0.0</speed>
  <fix>3d</fix>
</trkpt>
<trkpt lat="40.0713749" lon="-105.229789">
  <ele>1583.0</ele>
  <time>2026-08-28T17:54:14Z</time>
  <course>248.33</course>
  <speed>0.01</speed>
  <fix>3d</fix>
</trkpt>
<trkpt lat="40.0713749" lon="-105.229789">
  <ele>1583.0</ele>
  <time>2026-08-28T17:54:14Z</time>
  <course>0.0</course>
  <speed>0.0</speed>
  <fix>3d</fix>
</trkpt>
<trkpt lat="40.0713749" lon="-105.229789">
  <ele>1583.0</ele>
  <time>2026-08-28T17:54:14Z</time>
  <course>248.32</course>
  <speed>0.01</speed>
  <fix>3d</fix>
</trkpt>
<trkpt lat="40.0713749" lon="-105.229789">
  <ele>1583.0</ele>
  <time>2026-08-28T17:54:14Z</time>
  <course>0.0</course>
  <speed>0.0</speed>
  <fix>3d</fix>
</trkpt>
<trkpt lat="40.0713749" lon="-105.229789">
  <ele>1583.0</ele>
  <time>2026-08-28T17:54:14Z</time>
  <course>248.32</course>
  <speed>0.01</speed>
  <fix>3d</fix>
</trkpt>
<trkpt lat="40.0713749" lon="-105.229789">
  <ele>1583.0</ele>
  <time>2026-08-28T17:54:14Z</time>
  <course>0.0</course>
  <speed>0.0</speed>
  <fix>3d</fix>
</trkpt>
<trkpt lat="40.0713749" lon="-105.229789">
  <ele>1583.0</ele>
  <time>2026-08-28T17:54:14Z</time>
  <course>248.32</course>
  <speed>0.01</speed>
  <fix>3d</fix>
</trkpt>
<trkpt lat="40.0713749" lon="-105.229789">
  <ele>1583.0</ele>
  <time>2026-08-28T17:54:14Z</time>
  <course>0.0</course>
  <speed>0.0</speed>
  <fix>3d</fix>
</trkpt>
<trkpt lat="40.0713749" lon="-105.229789">
  <ele>1583.0</ele>
  <time>2026-08-28T17:54:14Z</time>
  <course>248.31</course>
  <speed>0.01</speed>
  <fix>3d</fix>
</trkpt>
<trkpt lat="40.0713749" lon="-105.229789">
  <ele>1583.0</ele>
  <time>2026-08-28T17:54:14Z</time>
  <course>0.0</course>
  <speed>0.0</speed>
  <fix>3d</fix>
</trkpt>
<trkpt lat="40.0713749" lon="-105.229789">
  <ele>1583.0</ele>
  <time>2026-08-28T17:54:14Z</time>
  <course>248.31</course>
  <speed>0.01</speed>
  <fix>3d</fix>
</trkpt>
<trkpt lat="40.0713749" lon="-105.229789">
  <ele>1583.0</ele>
  <time>2026-08-28T17:54:14Z</time>
  <course>0.0</course>
  <speed>0.0</speed>
  <fix>3d</fix>
</trkpt>
<trkpt lat="40.0713749" lon="-105.229789">
  <ele>1583.0</ele>
  <time>2026-08-28T17:54:14Z</time>
  <course>248.3</course>
  <speed>0.01</speed>
  <fix>3d</fix>
</trkpt>
<trkpt lat="40.0713749" lon="-105.229789">
  <ele>1583.0</ele>
  <time>2026-08-28T17:54:14Z</time>
  <course>0.0</course>
  <speed>0.0</speed>
  <fix>3d</fix>
</trkpt>
<trkpt lat="40.0713749" lon="-105.229789">
  <ele>1583.0</ele>
  <time>2026-08-28T17:54:14Z</time>
  <course>248.3</course>
  <speed>0.01</speed>
  <fix>3d</fix>
</trkpt>
<trkpt lat="40.0713749" lon="-105.229789">
  <ele>1583.0</ele>
  <time>2026-08-28T17:54:14Z</time>
  <course>0.0</course>
  <speed>0.0</speed>
  <fix>3d</fix>
</trkpt>
<trkpt lat="40.0713749" lon="-105.229789">
  <ele>1583.0</ele>
  <time>2026-08-28T17:54:14Z</time>
  <course>248.29</course>
  <speed>0.01</speed>
  <fix>3d</fix>
</trkpt>
<trkpt lat="40.0713749" lon="-105.229789">
  <ele>1583.0</ele>
  <time>2026-08-28T17:54:14Z</time>
  <course>0.0</course>
  <speed>0.0</speed>
  <fix>3d</fix>
</trkpt>
<trkpt lat="40.0713749" lon="-105.229789">
  <ele>1583.0</ele>
  <time>2026-08-28T17:54:14Z</time>
  <course>248.29</course>
  <speed>0.01</speed>
  <fix>3d</fix>
</trkpt>
<trkpt lat="40.0713749" lon="-105.229789">
  <ele>1583.0</ele>
  <time>2026-08-28T17:54:14Z</time>
  <course>0.0</course>
  <speed>0.0</speed>
  <fix>3d</fix>
</trkpt>
<trkpt lat="40.0713749" lon="-105.229789">
  <ele>1583.0</ele>
  <time>2026-08-28T17:54:14Z</time>
  <course>248.28</course>
  <speed>0.01</speed>
  <fix>3d</fix>
</trkpt>
<trkpt lat="40.0713749" lon="-105.229789">
  <ele>1583.0</ele>
  <time>2026-08-28T17:54:14Z</time>
  <course>0.0</course>
  <speed>0.0</speed>
  <fix>3d</fix>
</trkpt>
<trkpt lat="40.0713749" lon="-105.229789">
  <ele>1583.0</ele>
  <time>2026-08-28T17:54:14Z</time>
  <course>248.28</course>
  <speed>0.01</speed>
  <fix>3d</fix>
</trkpt>
<trkpt lat="40.0713749" lon="-105.229789">
  <ele>1583.0</ele>
  <time>2026-08-28T17:54:14Z</time>
  <course>0.0</course>
  <speed>0.0</speed>
  <fix>3d</fix>
</trkpt>
<trkpt lat="40.0713749" lon="-105.229789">
  <ele>1583.0</ele>
  <time>2026-08-28T17:54:14Z</time>
  <course>248.27</course>
  <speed>0.01</speed>
  <fix>3d</fix>
</trkpt>
<trkpt lat="40.0713749" lon="-105.229789">
  <ele>1583.0</ele>
  <time>2026-08-28T17:54:14Z</time>
  <course>0.0</course>
  <speed>0.0</speed>
  <fix>3d</fix>
</trkpt>
<trkpt lat="40.0713749" lon="-105.229789">
  <ele>1583.0</ele>
  <time>2026-08-28T17:54:14Z</time>
  <course>248.27</course>
  <speed>0.01</speed>
  <fix>3d</fix>
</trkpt>
<trkpt lat="40.0713749" lon="-105.229789">
  <ele>1583.0</ele>
  <time>2026-08-28T17:54:14Z</time>
  <course>0.0</course>
  <speed>0.0</speed>
  <fix>3d</fix>
</trkpt>
<trkpt lat="40.0713749" lon="-105.229789">
  <ele>1583.0</ele>
  <time>2026-08-28T17:54:14Z</time>
  <course>248.27</course>
  <speed>0.01</speed>
  <fix>3d</fix>
</trkpt>
<trkpt lat="40.0713749" lon="-105.229789">
  <ele>1583.0</ele>
  <time>2026-08-28T17:54:14Z</time>
  <course>0.0</course>
  <speed>0.0</speed>
  <fix>3d</fix>
</trkpt>
<trkpt lat="40.0713749" lon="-105.229789">
  <ele>1583.0</ele>
  <time>2026-08-28T17:54:14Z</time>
  <course>248.26</course>
  <speed>0.01</speed>
  <fix>3d</fix>
</trkpt>
<trkpt lat="40.0713749" lon="-105.229789">
  <ele>1583.0</ele>
  <time>2026-08-28T17:54:14Z</time>
  <course>0.0</course>
  <speed>0.0</speed>
  <fix>3d</fix>
</trkpt>
<trkpt lat="40.0713749" lon="-105.229789">
  <ele>1583.0</ele>
  <time>2026-08-28T17:54:14Z</time>
  <course>248.26</course>
  <speed>0.01</speed>
  <fix>3d</fix>
</trkpt>
<trkpt lat="40.0713749" lon="-105.229789">
  <ele>1583.0</ele>
  <time>2026-08-28T17:54:14Z</time>
  <course>0.0</course>
  <speed>0.0</speed>
  <fix>3d</fix>
</trkpt>
<trkpt lat="40.0713749" lon="-105.229789">
  <ele>1583.0</ele>
  <time>2026-08-28T17:54:14Z</time>
  <course>248.25</course>
  <speed>0.01</speed>
  <fix>3d</fix>
</trkpt>
<trkpt lat="40.0713749" lon="-105.229789">
  <ele>1583.0</ele>
  <time>2026-08-28T17:54:14Z</time>
  <course>0.0</course>
  <speed>0.0</speed>
  <fix>3d</fix>
</trkpt>
<trkpt lat="40.0713749" lon="-105.229789">
  <ele>1583.0</ele>
  <time>2026-08-28T17:54:14Z</time>
  <course>248.25</course>
  <speed>0.01</speed>
  <fix>3d</fix>
</trkpt>
<trkpt lat="40.0713749" lon="-105.229789">
  <ele>1583.0</ele>
  <time>2026-08-28T17:54:14Z</time>
  <course>0.0</course>
  <speed>0.0</speed>
  <fix>3d</fix>
</trkpt>
<trkpt lat="40.0713749" lon="-105.229789">
  <ele>1583.0</ele>
  <time>2026-08-28T17:54:14Z</time>
  <course>248.24</course>
  <speed>0.01</speed>
  <fix>3d</fix>
</trkpt>
<trkpt lat="40.0713749" lon="-105.229789">
  <ele>1583.0</ele>
  <time>2026-08-28T17:54:14Z</time>
  <course>0.0</course>
  <speed>0.0</speed>
  <fix>3d</fix>
</trkpt>
<trkpt lat="40.0713749" lon="-105.229789">
  <ele>1583.0</ele>
  <time>2026-08-28T17:54:14Z</time>
  <course>248.24</course>
  <speed>0.01</speed>
  <fix>3d</fix>
</trkpt>
<trkpt lat="40.0713749" lon="-105.229789">
  <ele>1583.0</ele>
  <time>2026-08-28T17:54:14Z</time>
  <course>0.0</course>
  <speed>0.0</speed>
  <fix>3d</fix>
</trkpt>
<trkpt lat="40.0713749" lon="-105.229789">
  <ele>1583.0</ele>
  <time>2026-08-28T17:54:14Z</time>
  <course>248.23</course>
  <speed>0.01</speed>
  <fix>3d</fix>
</trkpt>
<trkpt lat="40.0713749" lon="-105.229789">
  <ele>1583.0</ele>
  <time>2026-08-28T17:54:14Z</time>
  <course>0.0</course>
  <speed>0.0</speed>
  <fix>3d</fix>
</trkpt>
<trkpt lat="40.0713749" lon="-105.229789">
  <ele>1583.0</ele>
  <time>2026-08-28T17:54:14Z</time>
  <course>248.23</course>
  <speed>0.01</speed>
  <fix>3d</fix>
</trkpt>
<trkpt lat="40.0713749" lon="-105.229789">
  <ele>1583.0</ele>
  <time>2026-08-28T17:54:14Z</time>
  <course>0.0</course>
  <speed>0.0</speed>
  <fix>3d</fix>
</trkpt>
<trkpt lat="40.0713749" lon="-105.229789">
  <ele>1583.0</ele>
  <time>2026-08-28T17:54:14Z</time>
  <course>248.22</course>
  <speed>0.01</speed>
  <fix>3d</fix>
</trkpt>
<trkpt lat="40.0713749" lon="-105.229789">
  <ele>1583.0</ele>
  <time>2026-08-28T17:54:14Z</time>
  <course>0.0</course>
  <speed>0.0</speed>
  <fix>3d</fix>
</trkpt>
<trkpt lat="40.0713749" lon="-105.229789">
  <ele>1583.0</ele>
  <time>2026-08-28T17:54:14Z</time>
  <course>248.22</course>
  <speed>0.01</speed>
  <fix>3d</fix>
</trkpt>
<trkpt lat="40.0713749" lon="-105.229789">
  <ele>1583.0</ele>
  <time>2026-08-28T17:54:14Z</time>
  <course>0.0</course>
  <speed>0.0</speed>
  <fix>3d</fix>
</trkpt>
<trkpt lat="40.0713749" lon="-105.229789">
  <ele>1583.0</ele>
  <time>2026-08-28T17:54:14Z</time>
  <course>248.21</course>
  <speed>0.01</speed>
  <fix>3d</fix>
</trkpt>
<trkpt lat="40.0713749" lon="-105.229789">
  <ele>1583.0</ele>
  <time>2026-08-28T17:54:14Z</time>
  <course>0.0</course>
  <speed>0.0</speed>
  <fix>3d</fix>
</trkpt>
<trkpt lat="40.0713749" lon="-105.229789">
  <ele>1583.0</ele>
  <time>2026-08-28T17:54:14Z</time>
  <course>248.21</course>
  <speed>0.01</speed>
  <fix>3d</fix>
</trkpt>
<trkpt lat="40.0713749" lon="-105.229789">
  <ele>1583.0</ele>
  <time>2026-08-28T17:54:14Z</time>
  <course>0.0</course>
  <speed>0.0</speed>
  <fix>3d</fix>
</trkpt>
<trkpt lat="40.0713749" lon="-105.229789">
  <ele>1583.0</ele>
  <time>2026-08-28T17:54:14Z</time>
  <course>248.2</course>
  <speed>0.01</speed>
  <fix>3d</fix>
</trkpt>
<trkpt lat="40.0713749" lon="-105.229789">
  <ele>1583.0</ele>
  <time>2026-08-28T17:54:14Z</time>
  <course>0.0</course>
  <speed>0.0</speed>
  <fix>3d</fix>
</trkpt>
<trkpt lat="40.0713749" lon="-105.229789">
  <ele>1583.0</ele>
  <time>2026-08-28T17:54:14Z</time>
  <course>248.2</course>
  <speed>0.01</speed>
  <fix>3d</fix>
</trkpt>
<trkpt lat="40.0713749" lon="-105.229789">
  <ele>1583.0</ele>
  <time>2026-08-28T17:54:14Z</time>
  <course>0.0</course>
  <speed>0.0</speed>
  <fix>3d</fix>
</trkpt>
<trkpt lat="40.0713749" lon="-105.229789">
  <ele>1583.0</ele>
  <time>2026-08-28T17:54:14Z</time>
  <course>248.19</course>
  <speed>0.01</speed>
  <fix>3d</fix>
</trkpt>
<trkpt lat="40.0713749" lon="-105.229789">
  <ele>1583.0</ele>
  <time>2026-08-28T17:54:14Z</time>
  <course>0.0</course>
  <speed>0.0</speed>
  <fix>3d</fix>
</trkpt>
<trkpt lat="40.0713749" lon="-105.229789">
  <ele>1583.0</ele>
  <time>2026-08-28T17:54:14Z</time>
  <course>248.19</course>
  <speed>0.01</speed>
  <fix>3d</fix>
</trkpt>
<trkpt lat="40.0713749" lon="-105.229789">
  <ele>1583.0</ele>
  <time>2026-08-28T17:54:14Z</time>
  <course>0.0</course>
  <speed>0.0</speed>
  <fix>3d</fix>
</trkpt>
<trkpt lat="40.0713749" lon="-105.229789">
  <ele>1583.0</ele>
  <time>2026-08-28T17:54:14Z</time>
  <course>248.18</course>
  <speed>0.01</speed>
  <fix>3d</fix>
</trkpt>
<trkpt lat="40.0713749" lon="-105.229789">
  <ele>1583.0</ele>
  <time>2026-08-28T17:54:14Z</time>
  <course>0.0</course>
  <speed>0.0</speed>
  <fix>3d</fix>
</trkpt>
<trkpt lat="40.0713749" lon="-105.229789">
  <ele>1583.0</ele>
  <time>2026-08-28T17:54:14Z</time>
  <course>248.18</course>
  <speed>0.01414213562373095</speed>
  <fix>3d</fix>
</trkpt>
<trkpt lat="40.0713749" lon="-105.229789">
  <ele>1583.0</ele>
  <time>2026-08-28T17:54:14Z</time>
  <course>0.0</course>
  <speed>0.0</speed>
  <fix>3d</fix>
</trkpt>
<trkpt lat="40.0713749" lon="-105.229789">
  <ele>1583.0</ele>
  <time>2026-08-28T17:54:14Z</time>
  <course>248.17</course>
  <speed>0.01414213562373095</speed>
  <fix>3d</fix>
</trkpt>
<trkpt lat="40.0713749" lon="-105.229789">
  <ele>1583.0</ele>
  <time>2026-08-28T17:54:14Z</time>
  <course>0.0</course>
  <speed>0.0</speed>
  <fix>3d</fix>
</trkpt>
<trkpt lat="40.0713749" lon="-105.229789">
  <ele>1583.0</ele>
  <time>2026-08-28T17:54:14Z</time>
  <course>248.17</course>
  <speed>0.022360679774997897</speed>
  <fix>3d</fix>
</trkpt>
<trkpt lat="40.0713749" lon="-105.229789">
  <ele>1583.0</ele>
  <time>2026-08-28T17:54:14Z</time>
  <course>0.0</course>
  <speed>0.0</speed>
  <fix>3d</fix>
</trkpt>
<trkpt lat="40.0713749" lon="-105.229789">
  <ele>1583.0</ele>
  <time>2026-08-28T17:54:14Z</time>
  <course>248.16</course>
  <speed>0.022360679774997897</speed>
  <fix>3d</fix>
</trkpt>
<trkpt lat="40.0713749" lon="-105.229789">
  <ele>1583.0</ele>
  <time>2026-08-28T17:54:14Z</time>
  <course>0.0</course>
  <speed>0.0</speed>
  <fix>3d</fix>
</trkpt>
<trkpt lat="40.0713749" lon="-105.229789">
  <ele>1583.0</ele>
  <time>2026-08-28T17:54:14Z</time>
  <course>248.16</course>
  <speed>0.022360679774997897</speed>
  <fix>3d</fix>
</trkpt>
<trkpt lat="40.0713749" lon="-105.229789">
  <ele>1583.0</ele>
  <time>2026-08-28T17:54:14Z</time>
  <course>0.0</course>
  <speed>0.0</speed>
  <fix>3d</fix>
</trkpt>
<trkpt lat="40.0713749" lon="-105.229789">
  <ele>1583.0</ele>
  <time>2026-08-28T17:54:14Z</time>
  <course>248.15</course>
  <speed>0.022360679774997897</speed>
  <fix>3d</fix>
</trkpt>
<trkpt lat="40.0713749" lon="-105.229789">
  <ele>1583.0</ele>
  <time>2026-08-28T17:54:14Z</time>
  <course>0.0</course>
  <speed>0.0</speed>
  <fix>3d</fix>
</trkpt>
<trkpt lat="40.0713749" lon="-105.229789">
  <ele>1583.0</ele>
  <time>2026-08-28T17:54:14Z</time>
  <course>248.15</course>
  <speed>0.022360679774997897</speed>
  <fix>3d</fix>
</trkpt>
<trkpt lat="40.0713749" lon="-105.229789">
  <ele>1583.0</ele>
  <time>2026-08-28T17:54:14Z</time>
  <course>0.0</course>
  <speed>0.0</speed>
  <fix>3d</fix>
</trkpt>
<trkpt lat="40.0713749" lon="-105.229789">
  <ele>1583.0</ele>
  <time>2026-08-28T17:54:14Z</time>
  <course>248.14</course>
  <speed>0.022360679774997897</speed>
  <fix>3d</fix>
</trkpt>
<trkpt lat="40.0713749" lon="-105.229789">
  <ele>1583.0</ele>
  <time>2026-08-28T17:54:14Z</time>
  <course>0.0</course>
  <speed>0.0</speed>
  <fix>3d</fix>
</trkpt>
<trkpt lat="40.0713749" lon="-105.229789">
  <ele>1583.0</ele>
  <time>2026-08-28T17:54:14Z</time>
  <course>248.14</course>
  <speed>0.022360679774997897</speed>
  <fix>3d</fix>
</trkpt>
<trkpt lat="40.0713749" lon="-105.229789">
  <ele>1583.0</ele>
  <time>2026-08-28T17:54:14Z</time>
  <course>0.0</course>
  <speed>0.0</speed>
  <fix>3d</fix>
</trkpt>
<trkpt lat="40.0713749" lon="-105.229789">
  <ele>1583.0</ele>
  <time>2026-08-28T17:54:14Z</time>
  <course>248.13</course>
  <speed>0.022360679774997897</speed>
  <fix>3d</fix>
</trkpt>
<trkpt lat="40.0713749" lon="-105.229789">
  <ele>1583.0</ele>
  <time>2026-08-28T17:54:14Z</time>
  <course>0.0</course>
  <speed>0.0</speed>
  <fix>3d</fix>
</trkpt>
<trkpt lat="40.0713749" lon="-105.229789">
  <ele>1583.0</ele>
  <time>2026-08-28T17:54:14Z</time>
  <course>248.13</course>
  <speed>0.022360679774997897</speed>
  <fix>3d</fix>
</trkpt>
<trkpt lat="40.0713749" lon="-105.229789">
  <ele>1583.0</ele>
  <time>2026-08-28T17:54:14Z</time>
  <course>0.0</course>
  <speed>0.0</speed>
  <fix>3d</fix>
</trkpt>
<trkpt lat="40.0713749" lon="-105.229789">
  <ele>1583.0</ele>
  <time>2026-08-28T17:54:14Z</time>
  <course>248.12</course>
  <speed>0.022360679774997897</speed>
  <fix>3d</fix>
</trkpt>
<trkpt lat="40.0713749" lon="-105.229789">
  <ele>1583.0</ele>
  <time>2026-08-28T17:54:14Z</time>
  <course>0.0</course>
  <speed>0.0</speed>
  <fix>3d</fix>
</trkpt>
<trkpt lat="40.0713749" lon="-105.229789">
  <ele>1583.0</ele>
  <time>2026-08-28T17:54:14Z</time>
  <course>248.12</course>
  <speed>0.022360679774997897</speed>
  <fix>3d</fix>
</trkpt>
<trkpt lat="40.0713749" lon="-105.229789">
  <ele>1583.0</ele>
  <time>2026-08-28T17:54:14Z</time>
  <course>0.0</course>
  <speed>0.0</speed>
  <fix>3d</fix>
</trkpt>
<trkpt lat="40.0713749" lon="-105.229789">
  <ele>1583.0</ele>
  <time>2026-08-28T17:54:14Z</time>
  <course>248.11</course>
  <speed>0.022360679774997897</speed>
  <fix>3d</fix>
</trkpt>
<trkpt lat="40.0713749" lon="-105.229789">
  <ele>1583.0</ele>
  <time>2026-08-28T17:54:14Z</time>
  <course>0.0</course>
  <speed>0.0</speed>
  <fix>3d</fix>
</trkpt>
<trkpt lat="40.0713749" lon="-105.229789">
  <ele>1583.0</ele>
  <time>2026-08-28T17:54:14Z</time>
  <course>248.11</course>
  <speed>0.022360679774997897</speed>
  <fix>3d</fix>
</trkpt>
<trkpt lat="40.0713749" lon="-105.229789">
  <ele>1583.0</ele>
  <time>2026-08-28T17:54:14Z</time>
  <course>0.0</course>
  <speed>0.0</speed>
  <fix>3d</fix>
</trkpt>
<trkpt lat="40.0713749" lon="-105.229789">
  <ele>1583.0</ele>
  <time>2026-08-28T17:54:14Z</time>
  <course>248.1</course>
  <speed>0.022360679774997897</speed>
  <fix>3d</fix>
</trkpt>
<trkpt lat="40.0713749" lon="-105.229789">
  <ele>1583.0</ele>
  <time>2026-08-28T17:54:14Z</time>
  <course>0.0</course>
  <speed>0.0</speed>
  <fix>3d</fix>
</trkpt>
<trkpt lat="40.0713749" lon="-105.229789">
  <ele>1583.0</ele>
  <time>2026-08-28T17:54:14Z</time>
  <course>248.1</course>
  <speed>0.022360679774997897</speed>
  <fix>3d</fix>
</trkpt>
<trkpt lat="40.0713749" lon="-105.229789">
  <ele>1583.0</ele>
  <time>2026-08-28T17:54:14Z</time>
  <course>0.0</course>
  <speed>0.0</speed>
  <fix>3d</fix>
</trkpt>
<trkpt lat="40.0713749" lon="-105.229789">
  <ele>1583.0</ele>
  <time>2026-08-28T17:54:14Z</time>
  <course>248.09</course>
  <speed>0.022360679774997897</speed>
  <fix>3d</fix>
</trkpt>
<trkpt lat="40.0713749" lon="-105.229789">
  <ele>1583.0</ele>
  <time>2026-08-28T17:54:14Z</time>
  <course>0.0</course>
  <speed>0.0</speed>
  <fix>3d</fix>
</trkpt>
<trkpt lat="40.0713749" lon="-105.229789">
  <ele>1583.0</ele>
  <time>2026-08-28T17:54:14Z</time>
  <course>248.09</course>
  <speed>0.022360679774997897</speed>
  <fix>3d</fix>
</trkpt>
<trkpt lat="40.0713749" lon="-105.229789">
  <ele>1583.0</ele>
  <time>2026-08-28T17:54:14Z</time>
  <course>0.0</course>
  <speed>0.0</speed>
  <fix>3d</fix>
</trkpt>
<trkpt lat="40.0713749" lon="-105.229789">
  <ele>1583.0</ele>
  <time>2026-08-28T17:54:14Z</time>
  <course>248.09</course>
  <speed>0.022360679774997897</speed>
  <fix>3d</fix>
</trkpt>
<trkpt lat="40.0713749" lon="-105.229789">
  <ele>1583.0</ele>
  <time>2026-08-28T17:54:14Z</time>
  <course>0.0</course>
  <speed>0.0</speed>
  <fix>3d</fix>
</trkpt>
<trkpt lat="40.0713749" lon="-105.229789">
  <ele>1583.0</ele>
  <time>2026-08-28T17:54:14Z</time>
  <course>248.08</course>
  <speed>0.022360679774997897</speed>
  <fix>3d</fix>
</trkpt>
<trkpt lat="40.0713749" lon="-105.229789">
  <ele>1583.0</ele>
  <time>2026-08-28T17:54:14Z</time>
  <course>0.0</course>
  <speed>0.0</speed>
  <fix>3d</fix>
</trkpt>
<trkpt lat="40.0713749" lon="-105.229789">
  <ele>1583.0</ele>
  <time>2026-08-28T17:54:14Z</time>
  <course>248.08</course>
  <speed>0.022360679774997897</speed>
  <fix>3d</fix>
</trkpt>
<trkpt lat="40.0713749" lon="-105.229789">
  <ele>1583.0</ele>
  <time>2026-08-28T17:54:14Z</time>
  <course>0.0</course>
  <speed>0.0</speed>
  <fix>3d</fix>
</trkpt>
<trkpt lat="40.0713749" lon="-105.229789">
  <ele>1583.0</ele>
  <time>2026-08-28T17:54:14Z</time>
  <course>248.07</course>
  <speed>0.022360679774997897</speed>
  <fix>3d</fix>
</trkpt>
<trkpt lat="40.0713749" lon="-105.229789">
  <ele>1583.0</ele>
  <time>2026-08-28T17:54:14Z</time>
  <course>0.0</course>
  <speed>0.0</speed>
  <fix>3d</fix>
</trkpt>
<trkpt lat="40.0713749" lon="-105.229789">
  <ele>1583.0</ele>
  <time>2026-08-28T17:54:14Z</time>
  <course>248.07</course>
  <speed>0.022360679774997897</speed>
  <fix>3d</fix>
</trkpt>
<trkpt lat="40.0713749" lon="-105.229789">
  <ele>1583.0</ele>
  <time>2026-08-28T17:54:14Z</time>
  <course>0.0</course>
  <speed>0.0</speed>
  <fix>3d</fix>
</trkpt>
<trkpt lat="40.0713749" lon="-105.229789">
  <ele>1583.0</ele>
  <time>2026-08-28T17:54:14Z</time>
  <course>248.06</course>
  <speed>0.022360679774997897</speed>
  <fix>3d</fix>
</trkpt>
<trkpt lat="40.0713749" lon="-105.229789">
  <ele>1583.0</ele>
  <time>2026-08-28T17:54:14Z</time>
  <course>0.0</course>
  <speed>0.0</speed>
  <fix>3d</fix>
</trkpt>
<trkpt lat="40.0713749" lon="-105.229789">
  <ele>1583.0</ele>
  <time>2026-08-28T17:54:14Z</time>
  <course>248.06</course>
  <speed>0.022360679774997897</speed>
  <fix>3d</fix>
</trkpt>
<trkpt lat="40.0713749" lon="-105.229789">
  <ele>1583.0</ele>
  <time>2026-08-28T17:54:14Z</time>
  <course>0.0</course>
  <speed>0.0</speed>
  <fix>3d</fix>
</trkpt>
<trkpt lat="40.0713749" lon="-105.229789">
  <ele>1583.0</ele>
  <time>2026-08-28T17:54:14Z</time>
  <course>248.05</course>
  <speed>0.022360679774997897</speed>
  <fix>3d</fix>
</trkpt>
<trkpt lat="40.0713749" lon="-105.229789">
  <ele>1583.0</ele>
  <time>2026-08-28T17:54:14Z</time>
  <course>0.0</course>
  <speed>0.0</speed>
  <fix>3d</fix>
</trkpt>
<trkpt lat="40.0713749" lon="-105.229789">
  <ele>1583.0</ele>
  <time>2026-08-28T17:54:14Z</time>
  <course>248.05</course>
  <speed>0.022360679774997897</speed>
  <fix>3d</fix>
</trkpt>
<trkpt lat="40.0713749" lon="-105.229789">
  <ele>1583.0</ele>
  <time>2026-08-28T17:54:14Z</time>
  <course>0.0</course>
  <speed>0.0</speed>
  <fix>3d</fix>
</trkpt>
<trkpt lat="40.0713749" lon="-105.229789">
  <ele>1583.0</ele>
  <time>2026-08-28T17:54:14Z</time>
  <course>248.04</course>
  <speed>0.022360679774997897</speed>
  <fix>3d</fix>
</trkpt>
<trkpt lat="40.0713749" lon="-105.229789">
  <ele>1583.0</ele>
  <time>2026-08-28T17:54:14Z</time>
  <course>0.0</course>
  <speed>0.0</speed>
  <fix>3d</fix>
</trkpt>
<trkpt lat="40.0713749" lon="-105.229789">
  <ele>1583.0</ele>
  <time>2026-08-28T17:54:14Z</time>
  <course>248.04</course>
  <speed>0.022360679774997897</speed>
  <fix>3d</fix>
</trkpt>
<trkpt lat="40.0713749" lon="-105.229789">
  <ele>1583.0</ele>
  <time>2026-08-28T17:54:14Z</time>
  <course>0.0</course>
  <speed>0.0</speed>
  <fix>3d</fix>
</trkpt>
<trkpt lat="40.0713749" lon="-105.229789">
  <ele>1583.0</ele>
  <time>2026-08-28T17:54:14Z</time>
  <course>248.03</course>
  <speed>0.022360679774997897</speed>
  <fix>3d</fix>
</trkpt>
<trkpt lat="40.0713749" lon="-105.229789">
  <ele>1583.0</ele>
  <time>2026-08-28T17:54:14Z</time>
  <course>0.0</course>
  <speed>0.0</speed>
  <fix>3d</fix>
</trkpt>
<trkpt lat="40.0713749" lon="-105.229789">
  <ele>1583.0</ele>
  <time>2026-08-28T17:54:14Z</time>
  <course>248.03</course>
  <speed>0.022360679774997897</speed>
  <fix>3d</fix>
</trkpt>
<trkpt lat="40.0713749" lon="-105.229789">
  <ele>1583.0</ele>
  <time>2026-08-28T17:54:14Z</time>
  <course>0.0</course>
  <speed>0.0</speed>
  <fix>3d</fix>
</trkpt>
<trkpt lat="40.0713749" lon="-105.229789">
  <ele>1583.0</ele>
  <time>2026-08-28T17:54:14Z</time>
  <course>248.02</course>
  <speed>0.022360679774997897</speed>
  <fix>3d</fix>
</trkpt>
<trkpt lat="40.0713749" lon="-105.229789">
  <ele>1583.0</ele>
  <time>2026-08-28T17:54:14Z</time>
  <course>0.0</course>
  <speed>0.0</speed>
  <fix>3d</fix>
</trkpt>
<trkpt lat="40.0713749" lon="-105.229789">
  <ele>1583.0</ele>
  <time>2026-08-28T17:54:14Z</time>
  <course>248.02</course>
  <speed>0.022360679774997897</speed>
  <fix>3d</fix>
</trkpt>
<trkpt lat="40.0713749" lon="-105.229789">
  <ele>1583.0</ele>
  <time>2026-08-28T17:54:14Z</time>
  <course>0.0</course>
  <speed>0.0</speed>
  <fix>3d</fix>
</trkpt>
<trkpt lat="40.0713749" lon="-105.229789">
  <ele>1583.0</ele>
  <time>2026-08-28T17:54:14Z</time>
  <course>248.01</course>
  <speed>0.022360679774997897</speed>
  <fix>3d</fix>
</trkpt>
<trkpt lat="40.0713749" lon="-105.229789">
  <ele>1583.0</ele>
  <time>2026-08-28T17:54:14Z</time>
  <course>0.0</course>
  <speed>0.0</speed>
  <fix>3d</fix>
</trkpt>
<trkpt lat="40.0713749" lon="-105.229789">
  <ele>1583.0</ele>
  <time>2026-08-28T17:54:14Z</time>
  <course>248.01</course>
  <speed>0.022360679774997897</speed>
  <fix>3d</fix>
</trkpt>
<trkpt lat="40.0713749" lon="-105.229789">
  <ele>1583.0</ele>
  <time>2026-08-28T17:54:14Z</time>
  <course>0.0</course>
  <speed>0.0</speed>
  <fix>3d</fix>
</trkpt>
<trkpt lat="40.0713749" lon="-105.229789">
  <ele>1583.0</ele>
  <time>2026-08-28T17:54:14Z</time>
  <course>248.01</course>
  <speed>0.022360679774997897</speed>
  <fix>3d</fix>
</trkpt>
<trkpt lat="40.0713749" lon="-105.229789">
  <ele>1583.0</ele>
  <time>2026-08-28T17:54:14Z</time>
  <course>0.0</course>
  <speed>0.0</speed>
  <fix>3d</fix>
</trkpt>
<trkpt lat="40.0713749" lon="-105.229789">
  <ele>1583.0</ele>
  <time>2026-08-28T17:54:14Z</time>
  <course>248.0</course>
  <speed>0.022360679774997897</speed>
  <fix>3d</fix>
</trkpt>
<trkpt lat="40.0713749" lon="-105.229789">
  <ele>1583.0</ele>
  <time>2026-08-28T17:54:14Z</time>
  <course>0.0</course>
  <speed>0.0</speed>
  <fix>3d</fix>
</trkpt>
<trkpt lat="40.0713749" lon="-105.229789">
  <ele>1583.0</ele>
  <time>2026-08-28T17:54:14Z</time>
  <course>248.0</course>
  <speed>0.022360679774997897</speed>
  <fix>3d</fix>
</trkpt>
<trkpt lat="40.0713749" lon="-105.229789">
  <ele>1583.0</ele>
  <time>2026-08-28T17:54:14Z</time>
  <course>0.0</course>
  <speed>0.0</speed>
  <fix>3d</fix>
</trkpt>
<trkpt lat="40.0713749" lon="-105.229789">
  <ele>1583.0</ele>
  <time>2026-08-28T17:54:14Z</time>
  <course>247.99</course>
  <speed>0.022360679774997897</speed>
  <fix>3d</fix>
</trkpt>
<trkpt lat="40.0713749" lon="-105.229789">
  <ele>1583.0</ele>
  <time>2026-08-28T17:54:14Z</time>
  <course>0.0</course>
  <speed>0.0</speed>
  <fix>3d</fix>
</trkpt>
<trkpt lat="40.0713749" lon="-105.229789">
  <ele>1583.0</ele>
  <time>2026-08-28T17:54:14Z</time>
  <course>247.99</course>
  <speed>0.022360679774997897</speed>
  <fix>3d</fix>
</trkpt>
<trkpt lat="40.0713749" lon="-105.229789">
  <ele>1583.0</ele>
  <time>2026-08-28T17:54:14Z</time>
  <course>0.0</course>
  <speed>0.0</speed>
  <fix>3d</fix>
</trkpt>
<trkpt lat="40.0713749" lon="-105.229789">
  <ele>1583.0</ele>
  <time>2026-08-28T17:54:14Z</time>
  <course>247.98</course>
  <speed>0.022360679774997897</speed>
  <fix>3d</fix>
</trkpt>
<trkpt lat="40.0713749" lon="-105.229789">
  <ele>1583.0</ele>
  <time>2026-08-28T17:54:14Z</time>
  <course>0.0</course>
  <speed>0.0</speed>
  <fix>3d</fix>
</trkpt>
<trkpt lat="40.0713749" lon="-105.229789">
  <ele>1583.0</ele>
  <time>2026-08-28T17:54:14Z</time>
  <course>247.98</course>
  <speed>0.022360679774997897</speed>
  <fix>3d</fix>
</trkpt>
<trkpt lat="40.0713749" lon="-105.229789">
  <ele>1583.0</ele>
  <time>2026-08-28T17:54:14Z</time>
  <course>0.0</course>
  <speed>0.0</speed>
  <fix>3d</fix>
</trkpt>
<trkpt lat="40.0713749" lon="-105.229789">
  <ele>1583.0</ele>
  <time>2026-08-28T17:54:14Z</time>
  <course>247.97</course>
  <speed>0.022360679774997897</speed>
  <fix>3d</fix>
</trkpt>
<trkpt lat="40.0713749" lon="-105.229789">
  <ele>1583.0</ele>
  <time>2026-08-28T17:54:14Z</time>
  <course>0.0</course>
  <speed>0.0</speed>
  <fix>3d</fix>
</trkpt>
<trkpt lat="40.0713749" lon="-105.229789">
  <ele>1583.0</ele>
  <time>2026-08-28T17:54:14Z</time>
  <course>247.97</course>
  <speed>0.022360679774997897</speed>
  <fix>3d</fix>
</trkpt>
<trkpt lat="40.0713749" lon="-105.229789">
  <ele>1583.0</ele>
  <time>2026-08-28T17:54:14Z</time>
  <course>0.0</course>
  <speed>0.0</speed>
  <fix>3d</fix>
</trkpt>
<trkpt lat="40.0713749" lon="-105.229789">
  <ele>1583.0</ele>
  <time>2026-08-28T17:54:14Z</time>
  <course>247.97</course>
  <speed>0.022360679774997897</speed>
  <fix>3d</fix>
</trkpt>
<trkpt lat="40.0713749" lon="-105.229789">
  <ele>1583.0</ele>
  <time>2026-08-28T17:54:14Z</time>
  <course>0.0</course>
  <speed>0.0</speed>
  <fix>3d</fix>
</trkpt>
<trkpt lat="40.0713749" lon="-105.229789">
  <ele>1583.0</ele>
  <time>2026-08-28T17:54:14Z</time>
  <course>247.96</course>
  <speed>0.022360679774997897</speed>
  <fix>3d</fix>
</trkpt>
<trkpt lat="40.0713749" lon="-105.229789">
  <ele>1583.0</ele>
  <time>2026-08-28T17:54:14Z</time>
  <course>0.0</course>
  <speed>0.0</speed>
  <fix>3d</fix>
</trkpt>
<trkpt lat="40.0713749" lon="-105.229789">
  <ele>1583.0</ele>
  <time>2026-08-28T17:54:14Z</time>
  <course>247.96</course>
  <speed>0.022360679774997897</speed>
  <fix>3d</fix>
</trkpt>
<trkpt lat="40.0713749" lon="-105.229789">
  <ele>1583.0</ele>
  <time>2026-08-28T17:54:14Z</time>
  <course>0.0</course>
  <speed>0.0</speed>
  <fix>3d</fix>
</trkpt>
<trkpt lat="40.0713749" lon="-105.229789">
  <ele>1583.0</ele>
  <time>2026-08-28T17:54:14Z</time>
  <course>247.95</course>
  <speed>0.022360679774997897</speed>
  <fix>3d</fix>
</trkpt>
<trkpt lat="40.0713749" lon="-105.229789">
  <ele>1583.0</ele>
  <time>2026-08-28T17:54:14Z</time>
  <course>0.0</course>
  <speed>0.0</speed>
  <fix>3d</fix>
</trkpt>
<trkpt lat="40.0713749" lon="-105.229789">
  <ele>1583.0</ele>
  <time>2026-08-28T17:54:14Z</time>
  <course>247.95</course>
  <speed>0.022360679774997897</speed>
  <fix>3d</fix>
</trkpt>
<trkpt lat="40.0713749" lon="-105.229789">
  <ele>1583.0</ele>
  <time>2026-08-28T17:54:14Z</time>
  <course>0.0</course>
  <speed>0.0</speed>
  <fix>3d</fix>
</trkpt>
<trkpt lat="40.0713749" lon="-105.229789">
  <ele>1583.0</ele>
  <time>2026-08-28T17:54:14Z</time>
  <course>247.94</course>
  <speed>0.022360679774997897</speed>
  <fix>3d</fix>
</trkpt>
<trkpt lat="40.0713749" lon="-105.229789">
  <ele>1583.0</ele>
  <time>2026-08-28T17:54:14Z</time>
  <course>0.0</course>
  <speed>0.0</speed>
  <fix>3d</fix>
</trkpt>
<trkpt lat="40.0713749" lon="-105.229789">
  <ele>1583.0</ele>
  <time>2026-08-28T17:54:14Z</time>
  <course>247.94</course>
  <speed>0.022360679774997897</speed>
  <fix>3d</fix>
</trkpt>
<trkpt lat="40.0713749" lon="-105.229789">
  <ele>1583.0</ele>
  <time>2026-08-28T17:54:14Z</time>
  <course>0.0</course>
  <speed>0.0</speed>
  <fix>3d</fix>
</trkpt>
<trkpt lat="40.0713749" lon="-105.229789">
  <ele>1583.0</ele>
  <time>2026-08-28T17:54:14Z</time>
  <course>247.93</course>
  <speed>0.022360679774997897</speed>
  <fix>3d</fix>
</trkpt>
<trkpt lat="40.0713749" lon="-105.229789">
  <ele>1583.0</ele>
  <time>2026-08-28T17:54:14Z</time>
  <course>0.0</course>
  <speed>0.0</speed>
  <fix>3d</fix>
</trkpt>
<trkpt lat="40.0713749" lon="-105.229789">
  <ele>1583.0</ele>
  <time>2026-08-28T17:54:14Z</time>
  <course>247.93</course>
  <speed>0.022360679774997897</speed>
  <fix>3d</fix>
</trkpt>
<trkpt lat="40.0713749" lon="-105.229789">
  <ele>1583.0</ele>
  <time>2026-08-28T17:54:14Z</time>
  <course>0.0</course>
  <speed>0.0</speed>
  <fix>3d</fix>
</trkpt>
<trkpt lat="40.0713749" lon="-105.229789">
  <ele>1583.0</ele>
  <time>2026-08-28T17:54:14Z</time>
  <course>247.93</course>
  <speed>0.022360679774997897</speed>
  <fix>3d</fix>
</trkpt>
<trkpt lat="40.0713749" lon="-105.229789">
  <ele>1583.0</ele>
  <time>2026-08-28T17:54:14Z</time>
  <course>0.0</course>
  <speed>0.0</speed>
  <fix>3d</fix>
</trkpt>
<trkpt lat="40.0713749" lon="-105.229789">
  <ele>1583.0</ele>
  <time>2026-08-28T17:54:14Z</time>
  <course>247.92</course>
  <speed>0.022360679774997897</speed>
  <fix>3d</fix>
</trkpt>
<trkpt lat="40.0713749" lon="-105.229789">
  <ele>1583.0</ele>
  <time>2026-08-28T17:54:14Z</time>
  <course>0.0</course>
  <speed>0.0</speed>
  <fix>3d</fix>
</trkpt>
<trkpt lat="40.0713749" lon="-105.229789">
  <ele>1583.0</ele>
  <time>2026-08-28T17:54:14Z</time>
  <course>247.92</course>
  <speed>0.022360679774997897</speed>
  <fix>3d</fix>
</trkpt>
<trkpt lat="40.0713749" lon="-105.229789">
  <ele>1583.0</ele>
  <time>2026-08-28T17:54:14Z</time>
  <course>0.0</course>
  <speed>0.0</speed>
  <fix>3d</fix>
</trkpt>
<trkpt lat="40.0713749" lon="-105.229789">
  <ele>1583.0</ele>
  <time>2026-08-28T17:54:14Z</time>
  <course>247.91</course>
  <speed>0.022360679774997897</speed>
  <fix>3d</fix>
</trkpt>
<trkpt lat="40.0713749" lon="-105.229789">
  <ele>1583.0</ele>
  <time>2026-08-28T17:54:14Z</time>
  <course>0.0</course>
  <speed>0.0</speed>
  <fix>3d</fix>
</trkpt>
<trkpt lat="40.0713749" lon="-105.229789">
  <ele>1583.0</ele>
  <time>2026-08-28T17:54:14Z</time>
  <course>247.91</course>
  <speed>0.022360679774997897</speed>
  <fix>3d</fix>
</trkpt>
<trkpt lat="40.0713749" lon="-105.229789">
  <ele>1583.0</ele>
  <time>2026-08-28T17:54:14Z</time>
  <course>0.0</course>
  <speed>0.0</speed>
  <fix>3d</fix>
</trkpt>
<trkpt lat="40.0713749" lon="-105.229789">
  <ele>1583.0</ele>
  <time>2026-08-28T17:54:14Z</time>
  <course>247.9</course>
  <speed>0.022360679774997897</speed>
  <fix>3d</fix>
</trkpt>
<trkpt lat="40.0713749" lon="-105.229789">
  <ele>1583.0</ele>
  <time>2026-08-28T17:54:14Z</time>
  <course>0.0</course>
  <speed>0.0</speed>
  <fix>3d</fix>
</trkpt>
<trkpt lat="40.0713749" lon="-105.229789">
  <ele>1583.0</ele>
  <time>2026-08-28T17:54:14Z</time>
  <course>247.9</course>
  <speed>0.022360679774997897</speed>
  <fix>3d</fix>
</trkpt>
<trkpt lat="40.0713749" lon="-105.229789">
  <ele>1583.0</ele>
  <time>2026-08-28T17:54:14Z</time>
  <course>0.0</course>
  <speed>0.0</speed>
  <fix>3d</fix>
</trkpt>
<trkpt lat="40.0713749" lon="-105.229789">
  <ele>1583.0</ele>
  <time>2026-08-28T17:54:14Z</time>
  <course>247.9</course>
  <speed>0.022360679774997897</speed>
  <fix>3d</fix>
</trkpt>
<trkpt lat="40.0713749" lon="-105.229789">
  <ele>1583.0</ele>
  <time>2026-08-28T17:54:14Z</time>
  <course>0.0</course>
  <speed>0.0</speed>
  <fix>3d</fix>
</trkpt>
<trkpt lat="40.0713749" lon="-105.229789">
  <ele>1583.0</ele>
  <time>2026-08-28T17:54:14Z</time>
  <course>247.89</course>
  <speed>0.022360679774997897</speed>
  <fix>3d</fix>
</trkpt>
<trkpt lat="40.0713749" lon="-105.229789">
  <ele>1583.0</ele>
  <time>2026-08-28T17:54:14Z</time>
  <course>0.0</course>
  <speed>0.0</speed>
  <fix>3d</fix>
</trkpt>
<trkpt lat="40.0713749" lon="-105.229789">
  <ele>1583.0</ele>
  <time>2026-08-28T17:54:14Z</time>
  <course>247.89</course>
  <speed>0.022360679774997897</speed>
  <fix>3d</fix>
</trkpt>
<trkpt lat="40.0713749" lon="-105.229789">
  <ele>1583.0</ele>
  <time>2026-08-28T17:54:14Z</time>
  <course>0.0</course>
  <speed>0.0</speed>
  <fix>3d</fix>
</trkpt>
<trkpt lat="40.0713749" lon="-105.229789">
  <ele>1583.0</ele>
  <time>2026-08-28T17:54:14Z</time>
  <course>247.88</course>
  <speed>0.022360679774997897</speed>
  <fix>3d</fix>
</trkpt>
<trkpt lat="40.0713749" lon="-105.229789">
  <ele>1583.0</ele>
  <time>2026-08-28T17:54:14Z</time>
  <course>0.0</course>
  <speed>0.0</speed>
  <fix>3d</fix>
</trkpt>
<trkpt lat="40.0713749" lon="-105.229789">
  <ele>1583.0</ele>
  <time>2026-08-28T17:54:14Z</time>
  <course>247.88</course>
  <speed>0.022360679774997897</speed>
  <fix>3d</fix>
</trkpt>
<trkpt lat="40.0713749" lon="-105.229789">
  <ele>1583.0</ele>
  <time>2026-08-28T17:54:14Z</time>
  <course>0.0</course>
  <speed>0.0</speed>
  <fix>3d</fix>
</trkpt>
<trkpt lat="40.0713749" lon="-105.229789">
  <ele>1583.0</ele>
  <time>2026-08-28T17:54:14Z</time>
  <course>247.88</course>
  <speed>0.022360679774997897</speed>
  <fix>3d</fix>
</trkpt>
<trkpt lat="40.0713749" lon="-105.229789">
  <ele>1583.0</ele>
  <time>2026-08-28T17:54:14Z</time>
  <course>0.0</course>
  <speed>0.0</speed>
  <fix>3d</fix>
</trkpt>
<trkpt lat="40.0713749" lon="-105.229789">
  <ele>1583.0</ele>
  <time>2026-08-28T17:54:14Z</time>
  <course>247.87</course>
  <speed>0.0316227766016838</speed>
  <fix>3d</fix>
</trkpt>
<trkpt lat="40.0713749" lon="-105.229789">
  <ele>1583.0</ele>
  <time>2026-08-28T17:54:14Z</time>
  <course>0.0</course>
  <speed>0.0</speed>
  <fix>3d</fix>
</trkpt>
<trkpt lat="40.0713749" lon="-105.229789">
  <ele>1583.0</ele>
  <time>2026-08-28T17:54:14Z</time>
  <course>247.87</course>
  <speed>0.0316227766016838</speed>
  <fix>3d</fix>
</trkpt>
<trkpt lat="40.0713749" lon="-105.229789">
  <ele>1583.0</ele>
  <time>2026-08-28T17:54:14Z</time>
  <course>0.0</course>
  <speed>0.0</speed>
  <fix>3d</fix>
</trkpt>
<trkpt lat="40.0713749" lon="-105.229789">
  <ele>1583.0</ele>
  <time>2026-08-28T17:54:14Z</time>
  <course>247.86</course>
  <speed>0.0316227766016838</speed>
  <fix>3d</fix>
</trkpt>
<trkpt lat="40.0713749" lon="-105.229789">
  <ele>1583.0</ele>
  <time>2026-08-28T17:54:14Z</time>
  <course>0.0</course>
  <speed>0.0</speed>
  <fix>3d</fix>
</trkpt>
<trkpt lat="40.0713749" lon="-105.229789">
  <ele>1583.0</ele>
  <time>2026-08-28T17:54:14Z</time>
  <course>247.86</course>
  <speed>0.0316227766016838</speed>
  <fix>3d</fix>
</trkpt>
<trkpt lat="40.0713749" lon="-105.229789">
  <ele>1583.0</ele>
  <time>2026-08-28T17:54:14Z</time>
  <course>0.0</course>
  <speed>0.0</speed>
  <fix>3d</fix>
</trkpt>
<trkpt lat="40.0713749" lon="-105.229789">
  <ele>1583.0</ele>
  <time>2026-08-28T17:54:14Z</time>
  <course>247.86</course>
  <speed>0.0316227766016838</speed>
  <fix>3d</fix>
</trkpt>
<trkpt lat="40.0713749" lon="-105.229789">
  <ele>1583.0</ele>
  <time>2026-08-28T17:54:14Z</time>
  <course>0.0</course>
  <speed>0.0</speed>
  <fix>3d</fix>
</trkpt>
<trkpt lat="40.0713749" lon="-105.229789">
  <ele>1583.0</ele>
  <time>2026-08-28T17:54:14Z</time>
  <course>247.85</course>
  <speed>0.0316227766016838</speed>
  <fix>3d</fix>
</trkpt>
<trkpt lat="40.0713749" lon="-105.229789">
  <ele>1583.0</ele>
  <time>2026-08-28T17:54:14Z</time>
  <course>0.0</course>
  <speed>0.0</speed>
  <fix>3d</fix>
</trkpt>
<trkpt lat="40.0713749" lon="-105.229789">
  <ele>1583.0</ele>
  <time>2026-08-28T17:54:14Z</time>
  <course>247.85</course>
  <speed>0.0316227766016838</speed>
  <fix>3d</fix>
</trkpt>
<trkpt lat="40.0713749" lon="-105.229789">
  <ele>1583.0</ele>
  <time>2026-08-28T17:54:14Z</time>
  <course>0.0</course>
  <speed>0.0</speed>
  <fix>3d</fix>
</trkpt>
<trkpt lat="40.0713749" lon="-105.229789">
  <ele>1583.0</ele>
  <time>2026-08-28T17:54:14Z</time>
  <course>247.84</course>
  <speed>0.0316227766016838</speed>
  <fix>3d</fix>
</trkpt>
<trkpt lat="40.0713749" lon="-105.229789">
  <ele>1583.0</ele>
  <time>2026-08-28T17:54:14Z</time>
  <course>0.0</course>
  <speed>0.0</speed>
  <fix>3d</fix>
</trkpt>
<trkpt lat="40.0713749" lon="-105.229789">
  <ele>1583.0</ele>
  <time>2026-08-28T17:54:14Z</time>
  <course>247.84</course>
  <speed>0.0316227766016838</speed>
  <fix>3d</fix>
</trkpt>
<trkpt lat="40.0713749" lon="-105.229789">
  <ele>1583.0</ele>
  <time>2026-08-28T17:54:14Z</time>
  <course>0.0</course>
  <speed>0.0</speed>
  <fix>3d</fix>
</trkpt>
<trkpt lat="40.0713749" lon="-105.229789">
  <ele>1583.0</ele>
  <time>2026-08-28T17:54:14Z</time>
  <course>247.84</course>
  <speed>0.0316227766016838</speed>
  <fix>3d</fix>
</trkpt>
<trkpt lat="40.0713749" lon="-105.229789">
  <ele>1583.0</ele>
  <time>2026-08-28T17:54:14Z</time>
  <course>0.0</course>
  <speed>0.0</speed>
  <fix>3d</fix>
</trkpt>
<trkpt lat="40.0713749" lon="-105.229789">
  <ele>1583.0</ele>
  <time>2026-08-28T17:54:14Z</time>
  <course>247.83</course>
  <speed>0.0316227766016838</speed>
  <fix>3d</fix>
</trkpt>
<trkpt lat="40.0713749" lon="-105.229789">
  <ele>1583.0</ele>
  <time>2026-08-28T17:54:14Z</time>
  <course>0.0</course>
  <speed>0.0</speed>
  <fix>3d</fix>
</trkpt>
<trkpt lat="40.0713749" lon="-105.229789">
  <ele>1583.0</ele>
  <time>2026-08-28T17:54:14Z</time>
  <course>247.83</course>
  <speed>0.0316227766016838</speed>
  <fix>3d</fix>
</trkpt>
<trkpt lat="40.0713749" lon="-105.229789">
  <ele>1583.0</ele>
  <time>2026-08-28T17:54:14Z</time>
  <course>0.0</course>
  <speed>0.0</speed>
  <fix>3d</fix>
</trkpt>
<trkpt lat="40.0713749" lon="-105.229789">
  <ele>1583.0</ele>
  <time>2026-08-28T17:54:14Z</time>
  <course>247.82</course>
  <speed>0.0316227766016838</speed>
  <fix>3d</fix>
</trkpt>
<trkpt lat="40.0713749" lon="-105.229789">
  <ele>1583.0</ele>
  <time>2026-08-28T17:54:14Z</time>
  <course>0.0</course>
  <speed>0.0</speed>
  <fix>3d</fix>
</trkpt>
<trkpt lat="40.0713749" lon="-105.229789">
  <ele>1583.0</ele>
  <time>2026-08-28T17:54:14Z</time>
  <course>247.82</course>
  <speed>0.0316227766016838</speed>
  <fix>3d</fix>
</trkpt>
<trkpt lat="40.0713749" lon="-105.229789">
  <ele>1583.0</ele>
  <time>2026-08-28T17:54:14Z</time>
  <course>0.0</course>
  <speed>0.0</speed>
  <fix>3d</fix>
</trkpt>
<trkpt lat="40.0713749" lon="-105.229789">
  <ele>1583.0</ele>
  <time>2026-08-28T17:54:14Z</time>
  <course>247.82</course>
  <speed>0.0316227766016838</speed>
  <fix>3d</fix>
</trkpt>
<trkpt lat="40.0713749" lon="-105.229789">
  <ele>1583.0</ele>
  <time>2026-08-28T17:54:14Z</time>
  <course>0.0</course>
  <speed>0.0</speed>
  <fix>3d</fix>
</trkpt>
<trkpt lat="40.0713749" lon="-105.229789">
  <ele>1583.0</ele>
  <time>2026-08-28T17:54:14Z</time>
  <course>247.81</course>
  <speed>0.0316227766016838</speed>
  <fix>3d</fix>
</trkpt>
<trkpt lat="40.0713749" lon="-105.229789">
  <ele>1583.0</ele>
  <time>2026-08-28T17:54:14Z</time>
  <course>0.0</course>
  <speed>0.0</speed>
  <fix>3d</fix>
</trkpt>
<trkpt lat="40.0713749" lon="-105.229789">
  <ele>1583.0</ele>
  <time>2026-08-28T17:54:14Z</time>
  <course>247.81</course>
  <speed>0.0316227766016838</speed>
  <fix>3d</fix>
</trkpt>
<trkpt lat="40.0713749" lon="-105.229789">
  <ele>1583.0</ele>
  <time>2026-08-28T17:54:14Z</time>
  <course>0.0</course>
  <speed>0.0</speed>
  <fix>3d</fix>
</trkpt>
<trkpt lat="40.0713749" lon="-105.229789">
  <ele>1583.0</ele>
  <time>2026-08-28T17:54:14Z</time>
  <course>247.81</course>
  <speed>0.0316227766016838</speed>
  <fix>3d</fix>
</trkpt>
<trkpt lat="40.0713749" lon="-105.229789">
  <ele>1583.0</ele>
  <time>2026-08-28T17:54:14Z</time>
  <course>0.0</course>
  <speed>0.0</speed>
  <fix>3d</fix>
</trkpt>
<trkpt lat="40.0713749" lon="-105.229789">
  <ele>1583.0</ele>
  <time>2026-08-28T17:54:14Z</time>
  <course>247.8</course>
  <speed>0.0316227766016838</speed>
  <fix>3d</fix>
</trkpt>
<trkpt lat="40.0713749" lon="-105.229789">
  <ele>1583.0</ele>
  <time>2026-08-28T17:54:14Z</time>
  <course>0.0</course>
  <speed>0.0</speed>
  <fix>3d</fix>
</trkpt>
<trkpt lat="40.0713749" lon="-105.229789">
  <ele>1583.0</ele>
  <time>2026-08-28T17:54:14Z</time>
  <course>247.8</course>
  <speed>0.0316227766016838</speed>
  <fix>3d</fix>
</trkpt>
<trkpt lat="40.0713749" lon="-105.229789">
  <ele>1583.0</ele>
  <time>2026-08-28T17:54:14Z</time>
  <course>0.0</course>
  <speed>0.0</speed>
  <fix>3d</fix>
</trkpt>
<trkpt lat="40.0713749" lon="-105.229789">
  <ele>1583.0</ele>
  <time>2026-08-28T17:54:14Z</time>
  <course>247.79</course>
  <speed>0.0316227766016838</speed>
  <fix>3d</fix>
</trkpt>
<trkpt lat="40.0713749" lon="-105.229789">
  <ele>1583.0</ele>
  <time>2026-08-28T17:54:14Z</time>
  <course>0.0</course>
  <speed>0.0</speed>
  <fix>3d</fix>
</trkpt>
<trkpt lat="40.0713749" lon="-105.229789">
  <ele>1583.0</ele>
  <time>2026-08-28T17:54:14Z</time>
  <course>247.79</course>
  <speed>0.0316227766016838</speed>
  <fix>3d</fix>
</trkpt>
<trkpt lat="40.0713749" lon="-105.229789">
  <ele>1583.0</ele>
  <time>2026-08-28T17:54:14Z</time>
  <course>0.0</course>
  <speed>0.0</speed>
  <fix>3d</fix>
</trkpt>
<trkpt lat="40.0713749" lon="-105.229789">
  <ele>1583.0</ele>
  <time>2026-08-28T17:54:14Z</time>
  <course>247.79</course>
  <speed>0.0316227766016838</speed>
  <fix>3d</fix>
</trkpt>
<trkpt lat="40.0713749" lon="-105.229789">
  <ele>1583.0</ele>
  <time>2026-08-28T17:54:14Z</time>
  <course>0.0</course>
  <speed>0.0</speed>
  <fix>3d</fix>
</trkpt>
<trkpt lat="40.0713749" lon="-105.229789">
  <ele>1583.0</ele>
  <time>2026-08-28T17:54:14Z</time>
  <course>247.78</course>
  <speed>0.0316227766016838</speed>
  <fix>3d</fix>
</trkpt>
<trkpt lat="40.0713749" lon="-105.229789">
  <ele>1583.0</ele>
  <time>2026-08-28T17:54:14Z</time>
  <course>0.0</course>
  <speed>0.0</speed>
  <fix>3d</fix>
</trkpt>
<trkpt lat="40.0713749" lon="-105.229789">
  <ele>1583.0</ele>
  <time>2026-08-28T17:54:14Z</time>
  <course>247.78</course>
  <speed>0.0316227766016838</speed>
  <fix>3d</fix>
</trkpt>
<trkpt lat="40.0713749" lon="-105.229789">
  <ele>1583.0</ele>
  <time>2026-08-28T17:54:14Z</time>
  <course>0.0</course>
  <speed>0.0</speed>
  <fix>3d</fix>
</trkpt>
<trkpt lat="40.0713749" lon="-105.229789">
  <ele>1583.0</ele>
  <time>2026-08-28T17:54:14Z</time>
  <course>247.78</course>
  <speed>0.0316227766016838</speed>
  <fix>3d</fix>
</trkpt>
<trkpt lat="40.0713749" lon="-105.229789">
  <ele>1583.0</ele>
  <time>2026-08-28T17:54:14Z</time>
  <course>0.0</course>
  <speed>0.0</speed>
  <fix>3d</fix>
</trkpt>
<trkpt lat="40.0713749" lon="-105.229789">
  <ele>1583.0</ele>
  <time>2026-08-28T17:54:14Z</time>
  <course>247.77</course>
  <speed>0.0316227766016838</speed>
  <fix>3d</fix>
</trkpt>
<trkpt lat="40.0713749" lon="-105.229789">
  <ele>1583.0</ele>
  <time>2026-08-28T17:54:14Z</time>
  <course>0.0</course>
  <speed>0.0</speed>
  <fix>3d</fix>
</trkpt>
<trkpt lat="40.0713749" lon="-105.229789">
  <ele>1583.0</ele>
  <time>2026-08-28T17:54:14Z</time>
  <course>247.77</course>
  <speed>0.0316227766016838</speed>
  <fix>3d</fix>
</trkpt>
<trkpt lat="40.0713749" lon="-105.229789">
  <ele>1583.0</ele>
  <time>2026-08-28T17:54:14Z</time>
  <course>0.0</course>
  <speed>0.0</speed>
  <fix>3d</fix>
</trkpt>
<trkpt lat="40.0713749" lon="-105.229789">
  <ele>1583.0</ele>
  <time>2026-08-28T17:54:14Z</time>
  <course>247.76</course>
  <speed>0.0316227766016838</speed>
  <fix>3d</fix>
</trkpt>
<trkpt lat="40.0713749" lon="-105.229789">
  <ele>1583.0</ele>
  <time>2026-08-28T17:54:14Z</time>
  <course>0.0</course>
  <speed>0.0</speed>
  <fix>3d</fix>
</trkpt>
<trkpt lat="40.0713749" lon="-105.229789">
  <ele>1583.0</ele>
  <time>2026-08-28T17:54:14Z</time>
  <course>247.76</course>
  <speed>0.0316227766016838</speed>
  <fix>3d</fix>
</trkpt>
<trkpt lat="40.0713749" lon="-105.229789">
  <ele>1583.0</ele>
  <time>2026-08-28T17:54:14Z</time>
  <course>0.0</course>
  <speed>0.0</speed>
  <fix>3d</fix>
</trkpt>
<trkpt lat="40.0713749" lon="-105.229789">
  <ele>1583.0</ele>
  <time>2026-08-28T17:54:14Z</time>
  <course>247.76</course>
  <speed>0.0316227766016838</speed>
  <fix>3d</fix>
</trkpt>
<trkpt lat="40.0713749" lon="-105.229789">
  <ele>1583.0</ele>
  <time>2026-08-28T17:54:14Z</time>
  <course>0.0</course>
  <speed>0.0</speed>
  <fix>3d</fix>
</trkpt>
<trkpt lat="40.0713749" lon="-105.229789">
  <ele>1583.0</ele>
  <time>2026-08-28T17:54:14Z</time>
  <course>247.75</course>
  <speed>0.0316227766016838</speed>
  <fix>3d</fix>
</trkpt>
<trkpt lat="40.0713749" lon="-105.229789">
  <ele>1583.0</ele>
  <time>2026-08-28T17:54:14Z</time>
  <course>0.0</course>
  <speed>0.0</speed>
  <fix>3d</fix>
</trkpt>
<trkpt lat="40.0713749" lon="-105.229789">
  <ele>1583.0</ele>
  <time>2026-08-28T17:54:14Z</time>
  <course>247.75</course>
  <speed>0.0316227766016838</speed>
  <fix>3d</fix>
</trkpt>
<trkpt lat="40.0713749" lon="-105.229789">
  <ele>1583.0</ele>
  <time>2026-08-28T17:54:14Z</time>
  <course>0.0</course>
  <speed>0.0</speed>
  <fix>3d</fix>
</trkpt>
<trkpt lat="40.0713749" lon="-105.229789">
  <ele>1583.0</ele>
  <time>2026-08-28T17:54:14Z</time>
  <course>247.75</course>
  <speed>0.0316227766016838</speed>
  <fix>3d</fix>
</trkpt>
<trkpt lat="40.0713749" lon="-105.229789">
  <ele>1583.0</ele>
  <time>2026-08-28T17:54:14Z</time>
  <course>0.0</course>
  <speed>0.0</speed>
  <fix>3d</fix>
</trkpt>
<trkpt lat="40.0713749" lon="-105.229789">
  <ele>1583.0</ele>
  <time>2026-08-28T17:54:14Z</time>
  <course>247.74</course>
  <speed>0.0316227766016838</speed>
  <fix>3d</fix>
</trkpt>
<trkpt lat="40.0713749" lon="-105.229789">
  <ele>1583.0</ele>
  <time>2026-08-28T17:54:14Z</time>
  <course>0.0</course>
  <speed>0.0</speed>
  <fix>3d</fix>
</trkpt>
<trkpt lat="40.0713749" lon="-105.229789">
  <ele>1583.0</ele>
  <time>2026-08-28T17:54:14Z</time>
  <course>247.74</course>
  <speed>0.0316227766016838</speed>
  <fix>3d</fix>
</trkpt>
<trkpt lat="40.0713749" lon="-105.229789">
  <ele>1583.0</ele>
  <time>2026-08-28T17:54:14Z</time>
  <course>0.0</course>
  <speed>0.0</speed>
  <fix>3d</fix>
</trkpt>
<trkpt lat="40.0713749" lon="-105.229789">
  <ele>1583.0</ele>
  <time>2026-08-28T17:54:14Z</time>
  <course>247.74</course>
  <speed>0.0316227766016838</speed>
  <fix>3d</fix>
</trkpt>
<trkpt lat="40.0713749" lon="-105.229789">
  <ele>1583.0</ele>
  <time>2026-08-28T17:54:14Z</time>
  <course>0.0</course>
  <speed>0.0</speed>
  <fix>3d</fix>
</trkpt>
<trkpt lat="40.0713749" lon="-105.229789">
  <ele>1583.0</ele>
  <time>2026-08-28T17:54:14Z</time>
  <course>247.73</course>
  <speed>0.0316227766016838</speed>
  <fix>3d</fix>
</trkpt>
<trkpt lat="40.0713749" lon="-105.229789">
  <ele>1583.0</ele>
  <time>2026-08-28T17:54:14Z</time>
  <course>0.0</course>
  <speed>0.0</speed>
  <fix>3d</fix>
</trkpt>
<trkpt lat="40.0713749" lon="-105.229789">
  <ele>1583.0</ele>
  <time>2026-08-28T17:54:14Z</time>
  <course>247.73</course>
  <speed>0.0316227766016838</speed>
  <fix>3d</fix>
</trkpt>
<trkpt lat="40.0713749" lon="-105.229789">
  <ele>1583.0</ele>
  <time>2026-08-28T17:54:14Z</time>
  <course>0.0</course>
  <speed>0.0</speed>
  <fix>3d</fix>
</trkpt>
<trkpt lat="40.0713749" lon="-105.229789">
  <ele>1583.0</ele>
  <time>2026-08-28T17:54:14Z</time>
  <course>247.73</course>
  <speed>0.0316227766016838</speed>
  <fix>3d</fix>
</trkpt>
<trkpt lat="40.0713749" lon="-105.229789">
  <ele>1583.0</ele>
  <time>2026-08-28T17:54:14Z</time>
  <course>0.0</course>
  <speed>0.0</speed>
  <fix>3d</fix>
</trkpt>
<trkpt lat="40.0713749" lon="-105.229789">
  <ele>1583.0</ele>
  <time>2026-08-28T17:54:14Z</time>
  <course>247.72</course>
  <speed>0.0316227766016838</speed>
  <fix>3d</fix>
</trkpt>
<trkpt lat="40.0713749" lon="-105.229789">
  <ele>1583.0</ele>
  <time>2026-08-28T17:54:14Z</time>
  <course>0.0</course>
  <speed>0.0</speed>
  <fix>3d</fix>
</trkpt>
<trkpt lat="40.0713749" lon="-105.229789">
  <ele>1583.0</ele>
  <time>2026-08-28T17:54:14Z</time>
  <course>247.72</course>
  <speed>0.0316227766016838</speed>
  <fix>3d</fix>
</trkpt>
<trkpt lat="40.0713749" lon="-105.229789">
  <ele>1583.0</ele>
  <time>2026-08-28T17:54:14Z</time>
  <course>0.0</course>
  <speed>0.0</speed>
  <fix>3d</fix>
</trkpt>
<trkpt lat="40.0713749" lon="-105.229789">
  <ele>1583.0</ele>
  <time>2026-08-28T17:54:14Z</time>
  <course>247.72</course>
  <speed>0.0316227766016838</speed>
  <fix>3d</fix>
</trkpt>
<trkpt lat="40.0713749" lon="-105.229789">
  <ele>1583.0</ele>
  <time>2026-08-28T17:54:14Z</time>
  <course>0.0</course>
  <speed>0.0</speed>
  <fix>3d</fix>
</trkpt>
<trkpt lat="40.0713749" lon="-105.229789">
  <ele>1583.0</ele>
  <time>2026-08-28T17:54:14Z</time>
  <course>247.71</course>
  <speed>0.0316227766016838</speed>
  <fix>3d</fix>
</trkpt>
<trkpt lat="40.0713749" lon="-105.229789">
  <ele>1583.0</ele>
  <time>2026-08-28T17:54:14Z</time>
  <course>0.0</course>
  <speed>0.0</speed>
  <fix>3d</fix>
</trkpt>
<trkpt lat="40.0713749" lon="-105.229789">
  <ele>1583.0</ele>
  <time>2026-08-28T17:54:14Z</time>
  <course>247.71</course>
  <speed>0.0316227766016838</speed>
  <fix>3d</fix>
</trkpt>
<trkpt lat="40.0713749" lon="-105.229789">
  <ele>1583.0</ele>
  <time>2026-08-28T17:54:14Z</time>
  <course>0.0</course>
  <speed>0.0</speed>
  <fix>3d</fix>
</trkpt>
<trkpt lat="40.0713749" lon="-105.229789">
  <ele>1583.0</ele>
  <time>2026-08-28T17:54:14Z</time>
  <course>247.71</course>
  <speed>0.0316227766016838</speed>
  <fix>3d</fix>
</trkpt>
<trkpt lat="40.0713749" lon="-105.229789">
  <ele>1583.0</ele>
  <time>2026-08-28T17:54:14Z</time>
  <course>0.0</course>
  <speed>0.0</speed>
  <fix>3d</fix>
</trkpt>
<trkpt lat="40.0713749" lon="-105.229789">
  <ele>1583.0</ele>
  <time>2026-08-28T17:54:14Z</time>
  <course>247.7</course>
  <speed>0.0316227766016838</speed>
  <fix>3d</fix>
</trkpt>
<trkpt lat="40.0713749" lon="-105.229789">
  <ele>1583.0</ele>
  <time>2026-08-28T17:54:14Z</time>
  <course>0.0</course>
  <speed>0.0</speed>
  <fix>3d</fix>
</trkpt>
<trkpt lat="40.0713749" lon="-105.229789">
  <ele>1583.0</ele>
  <time>2026-08-28T17:54:14Z</time>
  <course>247.7</course>
  <speed>0.0316227766016838</speed>
  <fix>3d</fix>
</trkpt>
<trkpt lat="40.0713749" lon="-105.229789">
  <ele>1583.0</ele>
  <time>2026-08-28T17:54:14Z</time>
  <course>0.0</course>
  <speed>0.0</speed>
  <fix>3d</fix>
</trkpt>
<trkpt lat="40.0713749" lon="-105.229789">
  <ele>1583.0</ele>
  <time>2026-08-28T17:54:14Z</time>
  <course>247.7</course>
  <speed>0.0316227766016838</speed>
  <fix>3d</fix>
</trkpt>
<trkpt lat="40.0713749" lon="-105.229789">
  <ele>1583.0</ele>
  <time>2026-08-28T17:54:14Z</time>
  <course>0.0</course>
  <speed>0.0</speed>
  <fix>3d</fix>
</trkpt>
<trkpt lat="40.0713749" lon="-105.229789">
  <ele>1583.0</ele>
  <time>2026-08-28T17:54:14Z</time>
  <course>247.69</course>
  <speed>0.0316227766016838</speed>
  <fix>3d</fix>
</trkpt>
<trkpt lat="40.0713749" lon="-105.229789">
  <ele>1583.0</ele>
  <time>2026-08-28T17:54:14Z</time>
  <course>0.0</course>
  <speed>0.0</speed>
  <fix>3d</fix>
</trkpt>
<trkpt lat="40.0713749" lon="-105.229789">
  <ele>1583.0</ele>
  <time>2026-08-28T17:54:14Z</time>
  <course>247.69</course>
  <speed>0.0316227766016838</speed>
  <fix>3d</fix>
</trkpt>
<trkpt lat="40.0713749" lon="-105.229789">
  <ele>1583.0</ele>
  <time>2026-08-28T17:54:14Z</time>
  <course>0.0</course>
  <speed>0.0</speed>
  <fix>3d</fix>
</trkpt>
<trkpt lat="40.0713749" lon="-105.229789">
  <ele>1583.0</ele>
  <time>2026-08-28T17:54:14Z</time>
  <course>247.69</course>
  <speed>0.0316227766016838</speed>
  <fix>3d</fix>
</trkpt>
<trkpt lat="40.0713749" lon="-105.229789">
  <ele>1583.0</ele>
  <time>2026-08-28T17:54:14Z</time>
  <course>0.0</course>
  <speed>0.0</speed>
  <fix>3d</fix>
</trkpt>
<trkpt lat="40.0713749" lon="-105.229789">
  <ele>1583.0</ele>
  <time>2026-08-28T17:54:14Z</time>
  <course>247.68</course>
  <speed>0.0316227766016838</speed>
  <fix>3d</fix>
</trkpt>
<trkpt lat="40.0713749" lon="-105.229789">
  <ele>1583.0</ele>
  <time>2026-08-28T17:54:14Z</time>
  <course>0.0</course>
  <speed>0.0</speed>
  <fix>3d</fix>
</trkpt>
<trkpt lat="40.0713749" lon="-105.229789">
  <ele>1583.0</ele>
  <time>2026-08-28T17:54:14Z</time>
  <course>247.68</course>
  <speed>0.0316227766016838</speed>
  <fix>3d</fix>
</trkpt>
<trkpt lat="40.0713749" lon="-105.229789">
  <ele>1583.0</ele>
  <time>2026-08-28T17:54:14Z</time>
  <course>0.0</course>
  <speed>0.0</speed>
  <fix>3d</fix>
</trkpt>
<trkpt lat="40.0713749" lon="-105.229789">
  <ele>1583.0</ele>
  <time>2026-08-28T17:54:14Z</time>
  <course>247.68</course>
  <speed>0.0316227766016838</speed>
  <fix>3d</fix>
</trkpt>
<trkpt lat="40.0713749" lon="-105.229789">
  <ele>1583.0</ele>
  <time>2026-08-28T17:54:14Z</time>
  <course>0.0</course>
  <speed>0.0</speed>
  <fix>3d</fix>
</trkpt>
<trkpt lat="40.0713749" lon="-105.229789">
  <ele>1583.0</ele>
  <time>2026-08-28T17:54:14Z</time>
  <course>247.67</course>
  <speed>0.0316227766016838</speed>
  <fix>3d</fix>
</trkpt>
<trkpt lat="40.0713749" lon="-105.229789">
  <ele>1583.0</ele>
  <time>2026-08-28T17:54:14Z</time>
  <course>0.0</course>
  <speed>0.0</speed>
  <fix>3d</fix>
</trkpt>
<trkpt lat="40.0713749" lon="-105.229789">
  <ele>1583.0</ele>
  <time>2026-08-28T17:54:14Z</time>
  <course>247.67</course>
  <speed>0.0316227766016838</speed>
  <fix>3d</fix>
</trkpt>
<trkpt lat="40.0713749" lon="-105.229789">
  <ele>1583.0</ele>
  <time>2026-08-28T17:54:14Z</time>
  <course>0.0</course>
  <speed>0.0</speed>
  <fix>3d</fix>
</trkpt>
<trkpt lat="40.0713749" lon="-105.229789">
  <ele>1583.0</ele>
  <time>2026-08-28T17:54:14Z</time>
  <course>247.67</course>
  <speed>0.0316227766016838</speed>
  <fix>3d</fix>
</trkpt>
<trkpt lat="40.0713749" lon="-105.229789">
  <ele>1583.0</ele>
  <time>2026-08-28T17:54:14Z</time>
  <course>0.0</course>
  <speed>0.0</speed>
  <fix>3d</fix>
</trkpt>
<trkpt lat="40.0713749" lon="-105.229789">
  <ele>1583.0</ele>
  <time>2026-08-28T17:54:14Z</time>
  <course>247.66</course>
  <speed>0.0316227766016838</speed>
  <fix>3d</fix>
</trkpt>
<trkpt lat="40.0713749" lon="-105.229789">
  <ele>1583.0</ele>
  <time>2026-08-28T17:54:14Z</time>
  <course>0.0</course>
  <speed>0.0</speed>
  <fix>3d</fix>
</trkpt>
<trkpt lat="40.0713749" lon="-105.229789">
  <ele>1583.0</ele>
  <time>2026-08-28T17:54:14Z</time>
  <course>247.66</course>
  <speed>0.0316227766016838</speed>
  <fix>3d</fix>
</trkpt>
<trkpt lat="40.0713749" lon="-105.229789">
  <ele>1583.0</ele>
  <time>2026-08-28T17:54:14Z</time>
  <course>0.0</course>
  <speed>0.0</speed>
  <fix>3d</fix>
</trkpt>
<trkpt lat="40.0713749" lon="-105.229789">
  <ele>1583.0</ele>
  <time>2026-08-28T17:54:14Z</time>
  <course>247.66</course>
  <speed>0.0316227766016838</speed>
  <fix>3d</fix>
</trkpt>
<trkpt lat="40.0713749" lon="-105.229789">
  <ele>1583.0</ele>
  <time>2026-08-28T17:54:14Z</time>
  <course>0.0</course>
  <speed>0.0</speed>
  <fix>3d</fix>
</trkpt>
<trkpt lat="40.0713749" lon="-105.229789">
  <ele>1583.0</ele>
  <time>2026-08-28T17:54:14Z</time>
  <course>247.65</course>
  <speed>0.0316227766016838</speed>
  <fix>3d</fix>
</trkpt>
<trkpt lat="40.0713749" lon="-105.229789">
  <ele>1583.0</ele>
  <time>2026-08-28T17:54:14Z</time>
  <course>0.0</course>
  <speed>0.0</speed>
  <fix>3d</fix>
</trkpt>
<trkpt lat="40.0713749" lon="-105.229789">
  <ele>1583.0</ele>
  <time>2026-08-28T17:54:14Z</time>
  <course>247.65</course>
  <speed>0.0316227766016838</speed>
  <fix>3d</fix>
</trkpt>
<trkpt lat="40.0713749" lon="-105.229789">
  <ele>1583.0</ele>
  <time>2026-08-28T17:54:14Z</time>
  <course>0.0</course>
  <speed>0.0</speed>
  <fix>3d</fix>
</trkpt>
<trkpt lat="40.0713749" lon="-105.229789">
  <ele>1583.0</ele>
  <time>2026-08-28T17:54:14Z</time>
  <course>247.65</course>
  <speed>0.0316227766016838</speed>
  <fix>3d</fix>
</trkpt>
<trkpt lat="40.0713749" lon="-105.229789">
  <ele>1583.0</ele>
  <time>2026-08-28T17:54:14Z</time>
  <course>0.0</course>
  <speed>0.0</speed>
  <fix>3d</fix>
</trkpt>
<trkpt lat="40.0713749" lon="-105.229789">
  <ele>1583.0</ele>
  <time>2026-08-28T17:54:14Z</time>
  <course>247.65</course>
  <speed>0.0316227766016838</speed>
  <fix>3d</fix>
</trkpt>
<trkpt lat="40.0713749" lon="-105.229789">
  <ele>1583.0</ele>
  <time>2026-08-28T17:54:14Z</time>
  <course>0.0</course>
  <speed>0.0</speed>
  <fix>3d</fix>
</trkpt>
<trkpt lat="40.0713749" lon="-105.229789">
  <ele>1583.0</ele>
  <time>2026-08-28T17:54:14Z</time>
  <course>247.64</course>
  <speed>0.0316227766016838</speed>
  <fix>3d</fix>
</trkpt>
<trkpt lat="40.0713749" lon="-105.229789">
  <ele>1583.0</ele>
  <time>2026-08-28T17:54:14Z</time>
  <course>0.0</course>
  <speed>0.0</speed>
  <fix>3d</fix>
</trkpt>
<trkpt lat="40.0713749" lon="-105.229789">
  <ele>1583.0</ele>
  <time>2026-08-28T17:54:14Z</time>
  <course>247.64</course>
  <speed>0.0316227766016838</speed>
  <fix>3d</fix>
</trkpt>
<trkpt lat="40.0713749" lon="-105.229789">
  <ele>1583.0</ele>
  <time>2026-08-28T17:54:14Z</time>
  <course>0.0</course>
  <speed>0.0</speed>
  <fix>3d</fix>
</trkpt>
<trkpt lat="40.0713749" lon="-105.229789">
  <ele>1583.0</ele>
  <time>2026-08-28T17:54:14Z</time>
  <course>247.64</course>
  <speed>0.0316227766016838</speed>
  <fix>3d</fix>
</trkpt>
<trkpt lat="40.0713749" lon="-105.229789">
  <ele>1583.0</ele>
  <time>2026-08-28T17:54:14Z</time>
  <course>0.0</course>
  <speed>0.0</speed>
  <fix>3d</fix>
</trkpt>
<trkpt lat="40.0713749" lon="-105.229789">
  <ele>1583.0</ele>
  <time>2026-08-28T17:54:14Z</time>
  <course>247.63</course>
  <speed>0.0316227766016838</speed>
  <fix>3d</fix>
</trkpt>
<trkpt lat="40.0713749" lon="-105.229789">
  <ele>1583.0</ele>
  <time>2026-08-28T17:54:14Z</time>
  <course>0.0</course>
  <speed>0.0</speed>
  <fix>3d</fix>
</trkpt>
<trkpt lat="40.0713749" lon="-105.229789">
  <ele>1583.0</ele>
  <time>2026-08-28T17:54:14Z</time>
  <course>247.63</course>
  <speed>0.0316227766016838</speed>
  <fix>3d</fix>
</trkpt>
<trkpt lat="40.0713749" lon="-105.229789">
  <ele>1583.0</ele>
  <time>2026-08-28T17:54:14Z</time>
  <course>0.0</course>
  <speed>0.0</speed>
  <fix>3d</fix>
</trkpt>
<trkpt lat="40.0713749" lon="-105.229789">
  <ele>1583.0</ele>
  <time>2026-08-28T17:54:14Z</time>
  <course>247.63</course>
  <speed>0.0316227766016838</speed>
  <fix>3d</fix>
</trkpt>
<trkpt lat="40.0713749" lon="-105.229789">
  <ele>1583.0</ele>
  <time>2026-08-28T17:54:14Z</time>
  <course>0.0</course>
  <speed>0.0</speed>
  <fix>3d</fix>
</trkpt>
<trkpt lat="40.0713749" lon="-105.229789">
  <ele>1583.0</ele>
  <time>2026-08-28T17:54:14Z</time>
  <course>247.62</course>
  <speed>0.0316227766016838</speed>
  <fix>3d</fix>
</trkpt>
<trkpt lat="40.0713749" lon="-105.229789">
  <ele>1583.0</ele>
  <time>2026-08-28T17:54:14Z</time>
  <course>0.0</course>
  <speed>0.0</speed>
  <fix>3d</fix>
</trkpt>
<trkpt lat="40.0713749" lon="-105.229789">
  <ele>1583.0</ele>
  <time>2026-08-28T17:54:14Z</time>
  <course>247.62</course>
  <speed>0.0316227766016838</speed>
  <fix>3d</fix>
</trkpt>
<trkpt lat="40.0713749" lon="-105.229789">
  <ele>1583.0</ele>
  <time>2026-08-28T17:54:14Z</time>
  <course>0.0</course>
  <speed>0.0</speed>
  <fix>3d</fix>
</trkpt>
<trkpt lat="40.0713749" lon="-105.229789">
  <ele>1583.0</ele>
  <time>2026-08-28T17:54:14Z</time>
  <course>247.62</course>
  <speed>0.0316227766016838</speed>
  <fix>3d</fix>
</trkpt>
<trkpt lat="40.0713749" lon="-105.229789">
  <ele>1583.0</ele>
  <time>2026-08-28T17:54:14Z</time>
  <course>0.0</course>
  <speed>0.0</speed>
  <fix>3d</fix>
</trkpt>
<trkpt lat="40.0713749" lon="-105.229789">
  <ele>1583.0</ele>
  <time>2026-08-28T17:54:14Z</time>
  <course>247.62</course>
  <speed>0.0316227766016838</speed>
  <fix>3d</fix>
</trkpt>
<trkpt lat="40.0713749" lon="-105.229789">
  <ele>1583.0</ele>
  <time>2026-08-28T17:54:14Z</time>
  <course>0.0</course>
  <speed>0.0</speed>
  <fix>3d</fix>
</trkpt>
<trkpt lat="40.0713749" lon="-105.229789">
  <ele>1583.0</ele>
  <time>2026-08-28T17:54:14Z</time>
  <course>247.61</course>
  <speed>0.0316227766016838</speed>
  <fix>3d</fix>
</trkpt>
<trkpt lat="40.0713749" lon="-105.229789">
  <ele>1583.0</ele>
  <time>2026-08-28T17:54:14Z</time>
  <course>0.0</course>
  <speed>0.0</speed>
  <fix>3d</fix>
</trkpt>
<trkpt lat="40.0713749" lon="-105.229789">
  <ele>1583.0</ele>
  <time>2026-08-28T17:54:14Z</time>
  <course>247.61</course>
  <speed>0.0316227766016838</speed>
  <fix>3d</fix>
</trkpt>
<trkpt lat="40.0713749" lon="-105.229789">
  <ele>1583.0</ele>
  <time>2026-08-28T17:54:14Z</time>
  <course>0.0</course>
  <speed>0.0</speed>
  <fix>3d</fix>
</trkpt>
<trkpt lat="40.0713749" lon="-105.229789">
  <ele>1583.0</ele>
  <time>2026-08-28T17:54:14Z</time>
  <course>247.61</course>
  <speed>0.0316227766016838</speed>
  <fix>3d</fix>
</trkpt>
<trkpt lat="40.0713749" lon="-105.229789">
  <ele>1583.0</ele>
  <time>2026-08-28T17:54:14Z</time>
  <course>0.0</course>
  <speed>0.0</speed>
  <fix>3d</fix>
</trkpt>
<trkpt lat="40.0713749" lon="-105.229789">
  <ele>1583.0</ele>
  <time>2026-08-28T17:54:14Z</time>
  <course>247.6</course>
  <speed>0.0316227766016838</speed>
  <fix>3d</fix>
</trkpt>
<trkpt lat="40.0713749" lon="-105.229789">
  <ele>1583.0</ele>
  <time>2026-08-28T17:54:14Z</time>
  <course>0.0</course>
  <speed>0.0</speed>
  <fix>3d</fix>
</trkpt>
<trkpt lat="40.0713749" lon="-105.229789">
  <ele>1583.0</ele>
  <time>2026-08-28T17:54:14Z</time>
  <course>247.6</course>
  <speed>0.0316227766016838</speed>
  <fix>3d</fix>
</trkpt>
<trkpt lat="40.0713749" lon="-105.229789">
  <ele>1583.0</ele>
  <time>2026-08-28T17:54:14Z</time>
  <course>0.0</course>
  <speed>0.0</speed>
  <fix>3d</fix>
</trkpt>
<trkpt lat="40.0713749" lon="-105.229789">
  <ele>1583.0</ele>
  <time>2026-08-28T17:54:14Z</time>
  <course>247.6</course>
  <speed>0.0316227766016838</speed>
  <fix>3d</fix>
</trkpt>
<trkpt lat="40.0713749" lon="-105.229789">
  <ele>1583.0</ele>
  <time>2026-08-28T17:54:14Z</time>
  <course>0.0</course>
  <speed>0.0</speed>
  <fix>3d</fix>
</trkpt>
<trkpt lat="40.0713749" lon="-105.229789">
  <ele>1583.0</ele>
  <time>2026-08-28T17:54:14Z</time>
  <course>247.6</course>
  <speed>0.0316227766016838</speed>
  <fix>3d</fix>
</trkpt>
<trkpt lat="40.0713749" lon="-105.229789">
  <ele>1583.0</ele>
  <time>2026-08-28T17:54:14Z</time>
  <course>0.0</course>
  <speed>0.0</speed>
  <fix>3d</fix>
</trkpt>
<trkpt lat="40.0713749" lon="-105.229789">
  <ele>1583.0</ele>
  <time>2026-08-28T17:54:14Z</time>
  <course>247.59</course>
  <speed>0.0316227766016838</speed>
  <fix>3d</fix>
</trkpt>
<trkpt lat="40.0713749" lon="-105.229789">
  <ele>1583.0</ele>
  <time>2026-08-28T17:54:14Z</time>
  <course>0.0</course>
  <speed>0.0</speed>
  <fix>3d</fix>
</trkpt>
<trkpt lat="40.0713749" lon="-105.229789">
  <ele>1583.0</ele>
  <time>2026-08-28T17:54:14Z</time>
  <course>247.59</course>
  <speed>0.0316227766016838</speed>
  <fix>3d</fix>
</trkpt>
<trkpt lat="40.0713749" lon="-105.229789">
  <ele>1583.0</ele>
  <time>2026-08-28T17:54:14Z</time>
  <course>0.0</course>
  <speed>0.0</speed>
  <fix>3d</fix>
</trkpt>
<trkpt lat="40.0713749" lon="-105.229789">
  <ele>1582.91</ele>
  <time>2026-08-28T17:54:14Z</time>
  <course>247.59</course>
  <speed>0.0</speed>
  <fix>3d</fix>
</trkpt>
<trkpt lat="40.0713749" lon="-105.229789">
  <ele>1583.0</ele>
  <time>2026-08-28T17:54:14Z</time>
  <course>0.0</course>
  <speed>0.0</speed>
  <fix>3d</fix>
</trkpt>
<trkpt lat="40.0713749" lon="-105.229789">
  <ele>1582.92</ele>
  <time>2026-08-28T17:54:14Z</time>
  <course>247.59</course>
  <speed>0.0</speed>
  <fix>3d</fix>
</trkpt>
<trkpt lat="40.0713749" lon="-105.229789">
  <ele>1583.0</ele>
  <time>2026-08-28T17:54:14Z</time>
  <course>0.0</course>
  <speed>0.0</speed>
  <fix>3d</fix>
</trkpt>
<trkpt lat="40.0713749" lon="-105.229789">
  <ele>1582.92</ele>
  <time>2026-08-28T17:54:14Z</time>
  <course>247.58</course>
  <speed>0.0</speed>
  <fix>3d</fix>
</trkpt>
<trkpt lat="40.0713749" lon="-105.229789">
  <ele>1583.0</ele>
  <time>2026-08-28T17:54:14Z</time>
  <course>0.0</course>
  <speed>0.0</speed>
  <fix>3d</fix>
</trkpt>
<trkpt lat="40.0713749" lon="-105.229789">
  <ele>1582.93</ele>
  <time>2026-08-28T17:54:14Z</time>
  <course>247.58</course>
  <speed>0.0</speed>
  <fix>3d</fix>
</trkpt>
<trkpt lat="40.0713749" lon="-105.229789">
  <ele>1583.0</ele>
  <time>2026-08-28T17:54:14Z</time>
  <course>0.0</course>
  <speed>0.0</speed>
  <fix>3d</fix>
</trkpt>
<trkpt lat="40.0713749" lon="-105.229789">
  <ele>1582.93</ele>
  <time>2026-08-28T17:54:14Z</time>
  <course>247.58</course>
  <speed>0.0</speed>
  <fix>3d</fix>
</trkpt>
<trkpt lat="40.0713749" lon="-105.229789">
  <ele>1583.0</ele>
  <time>2026-08-28T17:54:14Z</time>
  <course>0.0</course>
  <speed>0.0</speed>
  <fix>3d</fix>
</trkpt>
<trkpt lat="40.0713749" lon="-105.229789">
  <ele>1582.93</ele>
  <time>2026-08-28T17:54:14Z</time>
  <course>247.57</course>
  <speed>0.0</speed>
  <fix>3d</fix>
</trkpt>
<trkpt lat="40.0713749" lon="-105.229789">
  <ele>1583.0</ele>
  <time>2026-08-28T17:54:14Z</time>
  <course>0.0</course>
  <speed>0.0</speed>
  <fix>3d</fix>
</trkpt>
<trkpt lat="40.0713749" lon="-105.229789">
  <ele>1582.94</ele>
  <time>2026-08-28T17:54:14Z</time>
  <course>247.57</course>
  <speed>0.0</speed>
  <fix>3d</fix>
</trkpt>
<trkpt lat="40.0713749" lon="-105.229789">
  <ele>1583.0</ele>
  <time>2026-08-28T17:54:14Z</time>
  <course>0.0</course>
  <speed>0.0</speed>
  <fix>3d</fix>
</trkpt>
<trkpt lat="40.0713749" lon="-105.229789">
  <ele>1582.94</ele>
  <time>2026-08-28T17:54:14Z</time>
  <course>247.57</course>
  <speed>0.0</speed>
  <fix>3d</fix>
</trkpt>
<trkpt lat="40.0713749" lon="-105.229789">
  <ele>1583.0</ele>
  <time>2026-08-28T17:54:14Z</time>
  <course>0.0</course>
  <speed>0.0</speed>
  <fix>3d</fix>
</trkpt>
<trkpt lat="40.0713749" lon="-105.229789">
  <ele>1582.94</ele>
  <time>2026-08-28T17:54:14Z</time>
  <course>247.57</course>
  <speed>0.0</speed>
  <fix>3d</fix>
</trkpt>
<trkpt lat="40.0713749" lon="-105.229789">
  <ele>1583.0</ele>
  <time>2026-08-28T17:54:14Z</time>
  <course>0.0</course>
  <speed>0.0</speed>
  <fix>3d</fix>
</trkpt>
<trkpt lat="40.0713749" lon="-105.229789">
  <ele>1582.93</ele>
  <time>2026-08-28T17:54:14Z</time>
  <course>247.56</course>
  <speed>0.01</speed>
  <fix>3d</fix>
</trkpt>
<trkpt lat="40.0713749" lon="-105.229789">
  <ele>1583.0</ele>
  <time>2026-08-28T17:54:14Z</time>
  <course>0.0</course>
  <speed>0.0</speed>
  <fix>3d</fix>
</trkpt>
<trkpt lat="40.0713749" lon="-105.229789">
  <ele>1582.93</ele>
  <time>2026-08-28T17:54:14Z</time>
  <course>247.56</course>
  <speed>0.01</speed>
  <fix>3d</fix>
</trkpt>
<trkpt lat="40.0713749" lon="-105.229789">
  <ele>1583.0</ele>
  <time>2026-08-28T17:54:14Z</time>
  <course>0.0</course>
  <speed>0.0</speed>
  <fix>3d</fix>
</trkpt>
<trkpt lat="40.0713749" lon="-105.229789">
  <ele>1582.93</ele>
  <time>2026-08-28T17:54:14Z</time>
  <course>247.56</course>
  <speed>0.01</speed>
  <fix>3d</fix>
</trkpt>
<trkpt lat="40.0713749" lon="-105.229789">
  <ele>1583.0</ele>
  <time>2026-08-28T17:54:14Z</time>
  <course>0.0</course>
  <speed>0.0</speed>
  <fix>3d</fix>
</trkpt>
<trkpt lat="40.0713749" lon="-105.229789">
  <ele>1582.92</ele>
  <time>2026-08-28T17:54:14Z</time>
  <course>247.56</course>
  <speed>0.01</speed>
  <fix>3d</fix>
</trkpt>
<trkpt lat="40.0713749" lon="-105.229789">
  <ele>1583.0</ele>
  <time>2026-08-28T17:54:14Z</time>
  <course>0.0</course>
  <speed>0.0</speed>
  <fix>3d</fix>
</trkpt>
<trkpt lat="40.0713749" lon="-105.229789">
  <ele>1582.91</ele>
  <time>2026-08-28T17:54:14Z</time>
  <course>247.55</course>
  <speed>0.01</speed>
  <fix>3d</fix>
</trkpt>
<trkpt lat="40.0713749" lon="-105.229789">
  <ele>1583.0</ele>
  <time>2026-08-28T17:54:14Z</time>
  <course>0.0</course>
  <speed>0.0</speed>
  <fix>3d</fix>
</trkpt>
<trkpt lat="40.0713749" lon="-105.229789">
  <ele>1582.91</ele>
  <time>2026-08-28T17:54:14Z</time>
  <course>247.55</course>
  <speed>0.01</speed>
  <fix>3d</fix>
</trkpt>
<trkpt lat="40.0713749" lon="-105.229789">
  <ele>1583.0</ele>
  <time>2026-08-28T17:54:14Z</time>
  <course>0.0</course>
  <speed>0.0</speed>
  <fix>3d</fix>
</trkpt>
<trkpt lat="40.0713749" lon="-105.229789">
  <ele>1582.9</ele>
  <time>2026-08-28T17:54:14Z</time>
  <course>247.55</course>
  <speed>0.01</speed>
  <fix>3d</fix>
</trkpt>
<trkpt lat="40.0713749" lon="-105.229789">
  <ele>1583.0</ele>
  <time>2026-08-28T17:54:14Z</time>
  <course>0.0</course>
  <speed>0.0</speed>
  <fix>3d</fix>
</trkpt>
<trkpt lat="40.0713749" lon="-105.229789">
  <ele>1582.9</ele>
  <time>2026-08-28T17:54:14Z</time>
  <course>247.55</course>
  <speed>0.01</speed>
  <fix>3d</fix>
</trkpt>
<trkpt lat="40.0713749" lon="-105.229789">
  <ele>1583.0</ele>
  <time>2026-08-28T17:54:14Z</time>
  <course>0.0</course>
  <speed>0.0</speed>
  <fix>3d</fix>
</trkpt>
<trkpt lat="40.0713749" lon="-105.229789">
  <ele>1582.9</ele>
  <time>2026-08-28T17:54:14Z</time>
  <course>247.55</course>
  <speed>0.01</speed>
  <fix>3d</fix>
</trkpt>
<trkpt lat="40.0713749" lon="-105.229789">
  <ele>1583.0</ele>
  <time>2026-08-28T17:54:14Z</time>
  <course>0.0</course>
  <speed>0.0</speed>
  <fix>3d</fix>
</trkpt>
<trkpt lat="40.0713749" lon="-105.229789">
  <ele>1582.9</ele>
  <time>2026-08-28T17:54:14Z</time>
  <course>247.54</course>
  <speed>0.02</speed>
  <fix>3d</fix>
</trkpt>
<trkpt lat="40.0713749" lon="-105.229789">
  <ele>1583.0</ele>
  <time>2026-08-28T17:54:14Z</time>
  <course>0.0</course>
  <speed>0.0</speed>
  <fix>3d</fix>
</trkpt>
<trkpt lat="40.0713749" lon="-105.229789">
  <ele>1582.89</ele>
  <time>2026-08-28T17:54:14Z</time>
  <course>247.54</course>
  <speed>0.02</speed>
  <fix>3d</fix>
</trkpt>
<trkpt lat="40.0713749" lon="-105.229789">
  <ele>1583.0</ele>
  <time>2026-08-28T17:54:14Z</time>
  <course>0.0</course>
  <speed>0.0</speed>
  <fix>3d</fix>
</trkpt>
<trkpt lat="40.0713749" lon="-105.229789">
  <ele>1582.89</ele>
  <time>2026-08-28T17:54:14Z</time>
  <course>247.54</course>
  <speed>0.02</speed>
  <fix>3d</fix>
</trkpt>
<trkpt lat="40.0713749" lon="-105.229789">
  <ele>1583.0</ele>
  <time>2026-08-28T17:54:14Z</time>
  <course>0.0</course>
  <speed>0.0</speed>
  <fix>3d</fix>
</trkpt>
<trkpt lat="40.0713749" lon="-105.229789">
  <ele>1582.89</ele>
  <time>2026-08-28T17:54:14Z</time>
  <course>247.54</course>
  <speed>0.022360679774997897</speed>
  <fix>3d</fix>
</trkpt>
<trkpt lat="40.0713749" lon="-105.229789">
  <ele>1583.0</ele>
  <time>2026-08-28T17:54:14Z</time>
  <course>0.0</course>
  <speed>0.0</speed>
  <fix>3d</fix>
</trkpt>
<trkpt lat="40.0713749" lon="-105.229789">
  <ele>1582.89</ele>
  <time>2026-08-28T17:54:14Z</time>
  <course>247.53</course>
  <speed>0.022360679774997897</speed>
  <fix>3d</fix>
</trkpt>
<trkpt lat="40.0713749" lon="-105.229789">
  <ele>1583.0</ele>
  <time>2026-08-28T17:54:14Z</time>
  <course>0.0</course>
  <speed>0.0</speed>
  <fix>3d</fix>
</trkpt>
<trkpt lat="40.0713749" lon="-105.229789">
  <ele>1582.89</ele>
  <time>2026-08-28T17:54:14Z</time>
  <course>247.53</course>
  <speed>0.022360679774997897</speed>
  <fix>3d</fix>
</trkpt>
<trkpt lat="40.0713749" lon="-105.229789">
  <ele>1583.0</ele>
  <time>2026-08-28T17:54:14Z</time>
  <course>0.0</course>
  <speed>0.0</speed>
  <fix>3d</fix>
</trkpt>
<trkpt lat="40.071375" lon="-105.229789">
  <ele>1582.88</ele>
  <time>2026-08-28T17:54:14Z</time>
  <course>247.53</course>
  <speed>0.022360679774997897</speed>
  <fix>3d</fix>
</trkpt>
<trkpt lat="40.0713749" lon="-105.229789">
  <ele>1583.0</ele>
  <time>2026-08-28T17:54:14Z</time>
  <course>0.0</course>
  <speed>0.0</speed>
  <fix>3d</fix>
</trkpt>
<trkpt lat="40.071375" lon="-105.229789">
  <ele>1582.88</ele>
  <time>2026-08-28T17:54:14Z</time>
  <course>247.53</course>
  <speed>0.022360679774997897</speed>
  <fix>3d</fix>
</trkpt>
<trkpt lat="40.0713749" lon="-105.229789">
  <ele>1583.0</ele>
  <time>2026-08-28T17:54:14Z</time>
  <course>0.0</course>
  <speed>0.0</speed>
  <fix>3d</fix>
</trkpt>
<trkpt lat="40.071375" lon="-105.229789">
  <ele>1582.87</ele>
  <time>2026-08-28T17:54:14Z</time>
  <course>247.52</course>
  <speed>0.022360679774997897</speed>
  <fix>3d</fix>
</trkpt>
<trkpt lat="40.0713749" lon="-105.229789">
  <ele>1583.0</ele>
  <time>2026-08-28T17:54:14Z</time>
  <course>0.0</course>
  <speed>0.0</speed>
  <fix>3d</fix>
</trkpt>
<trkpt lat="40.071375" lon="-105.229789">
  <ele>1582.87</ele>
  <time>2026-08-28T17:54:14Z</time>
  <course>247.52</course>
  <speed>0.022360679774997897</speed>
  <fix>3d</fix>
</trkpt>
<trkpt lat="40.0713749" lon="-105.229789">
  <ele>1583.0</ele>
  <time>2026-08-28T17:54:14Z</time>
  <course>0.0</course>
  <speed>0.0</speed>
  <fix>3d</fix>
</trkpt>
<trkpt lat="40.071375" lon="-105.229789">
  <ele>1582.87</ele>
  <time>2026-08-28T17:54:14Z</time>
  <course>247.52</course>
  <speed>0.022360679774997897</speed>
  <fix>3d</fix>
</trkpt>
<trkpt lat="40.0713749" lon="-105.229789">
  <ele>1583.0</ele>
  <time>2026-08-28T17:54:14Z</time>
  <course>0.0</course>
  <speed>0.0</speed>
  <fix>3d</fix>
</trkpt>
<trkpt lat="40.071375" lon="-105.229789">
  <ele>1582.87</ele>
  <time>2026-08-28T17:54:14Z</time>
  <course>247.52</course>
  <speed>0.022360679774997897</speed>
  <fix>3d</fix>
</trkpt>
<trkpt lat="40.0713749" lon="-105.229789">
  <ele>1583.0</ele>
  <time>2026-08-28T17:54:14Z</time>
  <course>0.0</course>
  <speed>0.0</speed>
  <fix>3d</fix>
</trkpt>
<trkpt lat="40.071375" lon="-105.229789">
  <ele>1582.87</ele>
  <time>2026-08-28T17:54:14Z</time>
  <course>247.52</course>
  <speed>0.022360679774997897</speed>
  <fix>3d</fix>
</trkpt>
<trkpt lat="40.0713749" lon="-105.229789">
  <ele>1583.0</ele>
  <time>2026-08-28T17:54:14Z</time>
  <course>0.0</course>
  <speed>0.0</speed>
  <fix>3d</fix>
</trkpt>
<trkpt lat="40.071375" lon="-105.229789">
  <ele>1582.87</ele>
  <time>2026-08-28T17:54:14Z</time>
  <course>247.51</course>
  <speed>0.0316227766016838</speed>
  <fix>3d</fix>
</trkpt>
<trkpt lat="40.0713749" lon="-105.229789">
  <ele>1583.0</ele>
  <time>2026-08-28T17:54:14Z</time>
  <course>0.0</course>
  <speed>0.0</speed>
  <fix>3d</fix>
</trkpt>
<trkpt lat="40.071375" lon="-105.229789">
  <ele>1582.87</ele>
  <time>2026-08-28T17:54:14Z</time>
  <course>247.51</course>
  <speed>0.0316227766016838</speed>
  <fix>3d</fix>
</trkpt>
<trkpt lat="40.0713749" lon="-105.229789">
  <ele>1583.0</ele>
  <time>2026-08-28T17:54:14Z</time>
  <course>0.0</course>
  <speed>0.0</speed>
  <fix>3d</fix>
</trkpt>
<trkpt lat="40.071375" lon="-105.2297889">
  <ele>1582.87</ele>
  <time>2026-08-28T17:54:14Z</time>
  <course>247.51</course>
  <speed>0.0316227766016838</speed>
  <fix>3d</fix>
</trkpt>
<trkpt lat="40.0713749" lon="-105.229789">
  <ele>1583.0</ele>
  <time>2026-08-28T17:54:14Z</time>
  <course>0.0</course>
  <speed>0.0</speed>
  <fix>3d</fix>
</trkpt>
<trkpt lat="40.071375" lon="-105.2297889">
  <ele>1582.87</ele>
  <time>2026-08-28T17:54:14Z</time>
  <course>247.51</course>
  <speed>0.0316227766016838</speed>
  <fix>3d</fix>
</trkpt>
<trkpt lat="40.0713749" lon="-105.229789">
  <ele>1583.0</ele>
  <time>2026-08-28T17:54:14Z</time>
  <course>0.0</course>
  <speed>0.0</speed>
  <fix>3d</fix>
</trkpt>
<trkpt lat="40.071375" lon="-105.2297889">
  <ele>1582.87</ele>
  <time>2026-08-28T17:54:14Z</time>
  <course>247.5</course>
  <speed>0.0316227766016838</speed>
  <fix>3d</fix>
</trkpt>
<trkpt lat="40.0713749" lon="-105.229789">
  <ele>1583.0</ele>
  <time>2026-08-28T17:54:14Z</time>
  <course>0.0</course>
  <speed>0.0</speed>
  <fix>3d</fix>
</trkpt>
<trkpt lat="40.071375" lon="-105.2297889">
  <ele>1582.87</ele>
  <time>2026-08-28T17:54:14Z</time>
  <course>247.5</course>
  <speed>0.0316227766016838</speed>
  <fix>3d</fix>
</trkpt>
<trkpt lat="40.0713749" lon="-105.229789">
  <ele>1583.0</ele>
  <time>2026-08-28T17:54:14Z</time>
  <course>0.0</course>
  <speed>0.0</speed>
  <fix>3d</fix>
</trkpt>
<trkpt lat="40.071375" lon="-105.2297889">
  <ele>1582.87</ele>
  <time>2026-08-28T17:54:14Z</time>
  <course>247.5</course>
  <speed>0.0316227766016838</speed>
  <fix>3d</fix>
</trkpt>
<trkpt lat="40.0713749" lon="-105.229789">
  <ele>1583.0</ele>
  <time>2026-08-28T17:54:14Z</time>
  <course>0.0</course>
  <speed>0.0</speed>
  <fix>3d</fix>
</trkpt>
<trkpt lat="40.071375" lon="-105.2297889">
  <ele>1582.88</ele>
  <time>2026-08-28T17:54:14Z</time>
  <course>247.5</course>
  <speed>0.0316227766016838</speed>
  <fix>3d</fix>
</trkpt>
<trkpt lat="40.0713749" lon="-105.229789">
  <ele>1583.0</ele>
  <time>2026-08-28T17:54:14Z</time>
  <course>0.0</course>
  <speed>0.0</speed>
  <fix>3d</fix>
</trkpt>
<trkpt lat="40.0713751" lon="-105.2297889">
  <ele>1582.88</ele>
  <time>2026-08-28T17:54:14Z</time>
  <course>247.5</course>
  <speed>0.0316227766016838</speed>
  <fix>3d</fix>
</trkpt>
<trkpt lat="40.0713749" lon="-105.229789">
  <ele>1583.0</ele>
  <time>2026-08-28T17:54:14Z</time>
  <course>0.0</course>
  <speed>0.0</speed>
  <fix>3d</fix>
</trkpt>
<trkpt lat="40.0713751" lon="-105.2297889">
  <ele>1582.89</ele>
  <time>2026-08-28T17:54:14Z</time>
  <course>247.49</course>
  <speed>0.0316227766016838</speed>
  <fix>3d</fix>
</trkpt>
<trkpt lat="40.0713749" lon="-105.229789">
  <ele>1583.0</ele>
  <time>2026-08-28T17:54:14Z</time>
  <course>0.0</course>
  <speed>0.0</speed>
  <fix>3d</fix>
</trkpt>
<trkpt lat="40.0713751" lon="-105.2297889">
  <ele>1582.9</ele>
  <time>2026-08-28T17:54:14Z</time>
  <course>247.49</course>
  <speed>0.0316227766016838</speed>
  <fix>3d</fix>
</trkpt>
<trkpt lat="40.0713749" lon="-105.229789">
  <ele>1583.0</ele>
  <time>2026-08-28T17:54:14Z</time>
  <course>0.0</course>
  <speed>0.0</speed>
  <fix>3d</fix>
</trkpt>
<trkpt lat="40.0713751" lon="-105.2297889">
  <ele>1582.91</ele>
  <time>2026-08-28T17:54:14Z</time>
  <course>247.49</course>
  <speed>0.0316227766016838</speed>
  <fix>3d</fix>
</trkpt>
<trkpt lat="40.0713749" lon="-105.229789">
  <ele>1583.0</ele>
  <time>2026-08-28T17:54:14Z</time>
  <course>0.0</course>
  <speed>0.0</speed>
  <fix>3d</fix>
</trkpt>
<trkpt lat="40.0713751" lon="-105.2297889">
  <ele>1582.92</ele>
  <time>2026-08-28T17:54:14Z</time>
  <course>247.49</course>
  <speed>0.0316227766016838</speed>
  <fix>3d</fix>
</trkpt>
<trkpt lat="40.0713749" lon="-105.229789">
  <ele>1583.0</ele>
  <time>2026-08-28T17:54:14Z</time>
  <course>0.0</course>
  <speed>0.0</speed>
  <fix>3d</fix>
</trkpt>
<trkpt lat="40.0713751" lon="-105.2297889">
  <ele>1582.93</ele>
  <time>2026-08-28T17:54:14Z</time>
  <course>247.49</course>
  <speed>0.0316227766016838</speed>
  <fix>3d</fix>
</trkpt>
<trkpt lat="40.0713749" lon="-105.229789">
  <ele>1583.0</ele>
  <time>2026-08-28T17:54:14Z</time>
  <course>0.0</course>
  <speed>0.0</speed>
  <fix>3d</fix>
</trkpt>
<trkpt lat="40.0713751" lon="-105.2297889">
  <ele>1582.94</ele>
  <time>2026-08-28T17:54:14Z</time>
  <course>247.48</course>
  <speed>0.0316227766016838</speed>
  <fix>3d</fix>
</trkpt>
<trkpt lat="40.0713749" lon="-105.229789">
  <ele>1583.0</ele>
  <time>2026-08-28T17:54:14Z</time>
  <course>0.0</course>
  <speed>0.0</speed>
  <fix>3d</fix>
</trkpt>
<trkpt lat="40.0713751" lon="-105.2297889">
  <ele>1582.95</ele>
  <time>2026-08-28T17:54:14Z</time>
  <course>247.48</course>
  <speed>0.022360679774997897</speed>
  <fix>3d</fix>
</trkpt>
<trkpt lat="40.0713749" lon="-105.229789">
  <ele>1583.0</ele>
  <time>2026-08-28T17:54:14Z</time>
  <course>0.0</course>
  <speed>0.0</speed>
  <fix>3d</fix>
</trkpt>
<trkpt lat="40.0713751" lon="-105.2297889">
  <ele>1582.96</ele>
  <time>2026-08-28T17:54:14Z</time>
  <course>247.48</course>
  <speed>0.022360679774997897</speed>
  <fix>3d</fix>
</trkpt>
<trkpt lat="40.0713749" lon="-105.229789">
  <ele>1583.0</ele>
  <time>2026-08-28T17:54:14Z</time>
  <course>0.0</course>
  <speed>0.0</speed>
  <fix>3d</fix>
</trkpt>
<trkpt lat="40.0713751" lon="-105.2297889">
  <ele>1582.97</ele>
  <time>2026-08-28T17:54:14Z</time>
  <course>247.48</course>
  <speed>0.022360679774997897</speed>
  <fix>3d</fix>
</trkpt>
<trkpt lat="40.0713749" lon="-105.229789">
  <ele>1583.0</ele>
  <time>2026-08-28T17:54:14Z</time>
  <course>0.0</course>
  <speed>0.0</speed>
  <fix>3d</fix>
</trkpt>
<trkpt lat="40.0713751" lon="-105.2297889">
  <ele>1582.98</ele>
  <time>2026-08-28T17:54:14Z</time>
  <course>247.47</course>
  <speed>0.022360679774997897</speed>
  <fix>3d</fix>
</trkpt>
<trkpt lat="40.0713749" lon="-105.229789">
  <ele>1583.0</ele>
  <time>2026-08-28T17:54:14Z</time>
  <course>0.0</course>
  <speed>0.0</speed>
  <fix>3d</fix>
</trkpt>
<trkpt lat="40.071375" lon="-105.2297889">
  <ele>1582.99</ele>
  <time>2026-08-28T17:54:14Z</time>
  <course>247.47</course>
  <speed>0.022360679774997897</speed>
  <fix>3d</fix>
</trkpt>
<trkpt lat="40.0713749" lon="-105.229789">
  <ele>1583.0</ele>
  <time>2026-08-28T17:54:14Z</time>
  <course>0.0</course>
  <speed>0.0</speed>
  <fix>3d</fix>
</trkpt>
<trkpt lat="40.0713751" lon="-105.2297889">
  <ele>1583.0</ele>
  <time>2026-08-28T17:54:14Z</time>
  <course>247.47</course>
  <speed>0.022360679774997897</speed>
  <fix>3d</fix>
</trkpt>
<trkpt lat="40.0713749" lon="-105.229789">
  <ele>1583.0</ele>
  <time>2026-08-28T17:54:14Z</time>
  <course>0.0</course>
  <speed>0.0</speed>
  <fix>3d</fix>
</trkpt>
<trkpt lat="40.071375" lon="-105.2297889">
  <ele>1583.01</ele>
  <time>2026-08-28T17:54:14Z</time>
  <course>247.47</course>
  <speed>0.022360679774997897</speed>
  <fix>3d</fix>
</trkpt>
<trkpt lat="40.0713749" lon="-105.229789">
  <ele>1583.0</ele>
  <time>2026-08-28T17:54:14Z</time>
  <course>0.0</course>
  <speed>0.0</speed>
  <fix>3d</fix>
</trkpt>
<trkpt lat="40.071375" lon="-105.2297889">
  <ele>1583.02</ele>
  <time>2026-08-28T17:54:14Z</time>
  <course>247.47</course>
  <speed>0.022360679774997897</speed>
  <fix>3d</fix>
</trkpt>
<trkpt lat="40.0713749" lon="-105.229789">
  <ele>1583.0</ele>
  <time>2026-08-28T17:54:14Z</time>
  <course>0.0</course>
  <speed>0.0</speed>
  <fix>3d</fix>
</trkpt>
<trkpt lat="40.071375" lon="-105.2297889">
  <ele>1583.03</ele>
  <time>2026-08-28T17:54:14Z</time>
  <course>247.46</course>
  <speed>0.022360679774997897</speed>
  <fix>3d</fix>
</trkpt>
<trkpt lat="40.0713749" lon="-105.229789">
  <ele>1583.0</ele>
  <time>2026-08-28T17:54:14Z</time>
  <course>0.0</course>
  <speed>0.0</speed>
  <fix>3d</fix>
</trkpt>
<trkpt lat="40.071375" lon="-105.2297889">
  <ele>1583.04</ele>
  <time>2026-08-28T17:54:14Z</time>
  <course>247.46</course>
  <speed>0.022360679774997897</speed>
  <fix>3d</fix>
</trkpt>
<trkpt lat="40.0713749" lon="-105.229789">
  <ele>1583.0</ele>
  <time>2026-08-28T17:54:14Z</time>
  <course>0.0</course>
  <speed>0.0</speed>
  <fix>3d</fix>
</trkpt>
<trkpt lat="40.071375" lon="-105.2297889">
  <ele>1583.05</ele>
  <time>2026-08-28T17:54:14Z</time>
  <course>247.46</course>
  <speed>0.022360679774997897</speed>
  <fix>3d</fix>
</trkpt>
<trkpt lat="40.0713749" lon="-105.229789">
  <ele>1583.0</ele>
  <time>2026-08-28T17:54:14Z</time>
  <course>0.0</course>
  <speed>0.0</speed>
  <fix>3d</fix>
</trkpt>
<trkpt lat="40.071375" lon="-105.2297889">
  <ele>1583.06</ele>
  <time>2026-08-28T17:54:14Z</time>
  <course>247.46</course>
  <speed>0.022360679774997897</speed>
  <fix>3d</fix>
</trkpt>
<trkpt lat="40.0713749" lon="-105.229789">
  <ele>1583.0</ele>
  <time>2026-08-28T17:54:14Z</time>
  <course>0.0</course>
  <speed>0.0</speed>
  <fix>3d</fix>
</trkpt>
<trkpt lat="40.071375" lon="-105.2297889">
  <ele>1583.06</ele>
  <time>2026-08-28T17:54:14Z</time>
  <course>247.46</course>
  <speed>0.022360679774997897</speed>
  <fix>3d</fix>
</trkpt>
<trkpt lat="40.0713749" lon="-105.229789">
  <ele>1583.0</ele>
  <time>2026-08-28T17:54:14Z</time>
  <course>0.0</course>
  <speed>0.0</speed>
  <fix>3d</fix>
</trkpt>
<trkpt lat="40.071375" lon="-105.2297889">
  <ele>1583.06</ele>
  <time>2026-08-28T17:54:14Z</time>
  <course>247.45</course>
  <speed>0.022360679774997897</speed>
  <fix>3d</fix>
</trkpt>
<trkpt lat="40.0713749" lon="-105.229789">
  <ele>1583.0</ele>
  <time>2026-08-28T17:54:14Z</time>
  <course>0.0</course>
  <speed>0.0</speed>
  <fix>3d</fix>
</trkpt>
<trkpt lat="40.071375" lon="-105.2297889">
  <ele>1583.06</ele>
  <time>2026-08-28T17:54:14Z</time>
  <course>247.45</course>
  <speed>0.022360679774997897</speed>
  <fix>3d</fix>
</trkpt>
<trkpt lat="40.0713749" lon="-105.229789">
  <ele>1583.0</ele>
  <time>2026-08-28T17:54:14Z</time>
  <course>0.0</course>
  <speed>0.0</speed>
  <fix>3d</fix>
</trkpt>
<trkpt lat="40.071375" lon="-105.2297889">
  <ele>1583.05</ele>
  <time>2026-08-28T17:54:14Z</time>
  <course>247.45</course>
  <speed>0.02</speed>
  <fix>3d</fix>
</trkpt>
<trkpt lat="40.0713749" lon="-105.229789">
  <ele>1583.0</ele>
  <time>2026-08-28T17:54:14Z</time>
  <course>0.0</course>
  <speed>0.0</speed>
  <fix>3d</fix>
</trkpt>
<trkpt lat="40.071375" lon="-105.229789">
  <ele>1583.05</ele>
  <time>2026-08-28T17:54:14Z</time>
  <course>247.45</course>
  <speed>0.02</speed>
  <fix>3d</fix>
</trkpt>
<trkpt lat="40.0713749" lon="-105.229789">
  <ele>1583.0</ele>
  <time>2026-08-28T17:54:14Z</time>
  <course>0.0</course>
  <speed>0.0</speed>
  <fix>3d</fix>
</trkpt>
<trkpt lat="40.071375" lon="-105.229789">
  <ele>1583.05</ele>
  <time>2026-08-28T17:54:15Z</time>
  <course>247.44</course>
  <speed>0.02</speed>
  <fix>3d</fix>
</trkpt>
<trkpt lat="40.0713749" lon="-105.229789">
  <ele>1583.0</ele>
  <time>2026-08-28T17:54:15Z</time>
  <course>0.0</course>
  <speed>0.0</speed>
  <fix>3d</fix>
</trkpt>
<trkpt lat="40.071375" lon="-105.229789">
  <ele>1583.04</ele>
  <time>2026-08-28T17:54:15Z</time>
  <course>247.44</course>
  <speed>0.01</speed>
  <fix>3d</fix>
</trkpt>
<trkpt lat="40.0713749" lon="-105.229789">
  <ele>1583.0</ele>
  <time>2026-08-28T17:54:15Z</time>
  <course>0.0</course>
  <speed>0.0</speed>
  <fix>3d</fix>
</trkpt>
<trkpt lat="40.071375" lon="-105.229789">
  <ele>1583.04</ele>
  <time>2026-08-28T17:54:15Z</time>
  <course>247.44</course>
  <speed>0.01</speed>
  <fix>3d</fix>
</trkpt>
<trkpt lat="40.0713749" lon="-105.229789">
  <ele>1583.0</ele>
  <time>2026-08-28T17:54:15Z</time>
  <course>0.0</course>
  <speed>0.0</speed>
  <fix>3d</fix>
</trkpt>
<trkpt lat="40.071375" lon="-105.229789">
  <ele>1583.03</ele>
  <time>2026-08-28T17:54:15Z</time>
  <course>247.44</course>
  <speed>0.01</speed>
  <fix>3d</fix>
</trkpt>
<trkpt lat="40.0713749" lon="-105.229789">
  <ele>1583.0</ele>
  <time>2026-08-28T17:54:15Z</time>
  <course>0.0</course>
  <speed>0.0</speed>
  <fix>3d</fix>
</trkpt>
<trkpt lat="40.071375" lon="-105.229789">
  <ele>1583.03</ele>
  <time>2026-08-28T17:54:15Z</time>
  <course>247.43</course>
  <speed>0.01</speed>
  <fix>3d</fix>
</trkpt>
<trkpt lat="40.0713749" lon="-105.229789">
  <ele>1583.0</ele>
  <time>2026-08-28T17:54:15Z</time>
  <course>0.0</course>
  <speed>0.0</speed>
  <fix>3d</fix>
</trkpt>
<trkpt lat="40.071375" lon="-105.229789">
  <ele>1583.03</ele>
  <time>2026-08-28T17:54:15Z</time>
  <course>247.43</course>
  <speed>0.01</speed>
  <fix>3d</fix>
</trkpt>
<trkpt lat="40.0713749" lon="-105.229789">
  <ele>1583.0</ele>
  <time>2026-08-28T17:54:15Z</time>
  <course>0.0</course>
  <speed>0.0</speed>
  <fix>3d</fix>
</trkpt>
<trkpt lat="40.071375" lon="-105.229789">
  <ele>1583.02</ele>
  <time>2026-08-28T17:54:15Z</time>
  <course>247.43</course>
  <speed>0.0</speed>
  <fix>3d</fix>
</trkpt>
<trkpt lat="40.0713749" lon="-105.229789">
  <ele>1583.0</ele>
  <time>2026-08-28T17:54:15Z</time>
  <course>0.0</course>
  <speed>0.0</speed>
  <fix>3d</fix>
</trkpt>
<trkpt lat="40.071375" lon="-105.229789">
  <ele>1583.01</ele>
  <time>2026-08-28T17:54:15Z</time>
  <course>247.43</course>
  <speed>0.0</speed>
  <fix>3d</fix>
</trkpt>
<trkpt lat="40.0713749" lon="-105.229789">
  <ele>1583.0</ele>
  <time>2026-08-28T17:54:15Z</time>
  <course>0.0</course>
  <speed>0.0</speed>
  <fix>3d</fix>
</trkpt>
<trkpt lat="40.071375" lon="-105.229789">
  <ele>1583.01</ele>
  <time>2026-08-28T17:54:15Z</time>
  <course>247.43</course>
  <speed>0.0</speed>
  <fix>3d</fix>
</trkpt>
<trkpt lat="40.0713749" lon="-105.229789">
  <ele>1583.0</ele>
  <time>2026-08-28T17:54:15Z</time>
  <course>0.0</course>
  <speed>0.0</speed>
  <fix>3d</fix>
</trkpt>
<trkpt lat="40.071375" lon="-105.229789">
  <ele>1583.0</ele>
  <time>2026-08-28T17:54:15Z</time>
  <course>247.42</course>
  <speed>0.0</speed>
  <fix>3d</fix>
</trkpt>
<trkpt lat="40.0713749" lon="-105.229789">
  <ele>1583.0</ele>
  <time>2026-08-28T17:54:15Z</time>
  <course>0.0</course>
  <speed>0.0</speed>
  <fix>3d</fix>
</trkpt>
<trkpt lat="40.071375" lon="-105.229789">
  <ele>1582.99</ele>
  <time>2026-08-28T17:54:15Z</time>
  <course>247.42</course>
  <speed>0.0</speed>
  <fix>3d</fix>
</trkpt>
<trkpt lat="40.0713749" lon="-105.229789">
  <ele>1583.0</ele>
  <time>2026-08-28T17:54:15Z</time>
  <course>0.0</course>
  <speed>0.0</speed>
  <fix>3d</fix>
</trkpt>
<trkpt lat="40.071375" lon="-105.229789">
  <ele>1582.99</ele>
  <time>2026-08-28T17:54:15Z</time>
  <course>247.42</course>
  <speed>0.0</speed>
  <fix>3d</fix>
</trkpt>
<trkpt lat="40.0713749" lon="-105.229789">
  <ele>1583.0</ele>
  <time>2026-08-28T17:54:15Z</time>
  <course>0.0</course>
  <speed>0.0</speed>
  <fix>3d</fix>
</trkpt>
<trkpt lat="40.071375" lon="-105.229789">
  <ele>1582.98</ele>
  <time>2026-08-28T17:54:15Z</time>
  <course>247.42</course>
  <speed>0.0</speed>
  <fix>3d</fix>
</trkpt>
<trkpt lat="40.0713749" lon="-105.229789">
  <ele>1583.0</ele>
  <time>2026-08-28T17:54:15Z</time>
  <course>0.0</course>
  <speed>0.0</speed>
  <fix>3d</fix>
</trkpt>
<trkpt lat="40.071375" lon="-105.229789">
  <ele>1582.98</ele>
  <time>2026-08-28T17:54:15Z</time>
  <course>247.42</course>
  <speed>0.0</speed>
  <fix>3d</fix>
</trkpt>
<trkpt lat="40.0713749" lon="-105.229789">
  <ele>1583.0</ele>
  <time>2026-08-28T17:54:15Z</time>
  <course>0.0</course>
  <speed>0.0</speed>
  <fix>3d</fix>
</trkpt>
<trkpt lat="40.071375" lon="-105.229789">
  <ele>1582.97</ele>
  <time>2026-08-28T17:54:15Z</time>
  <course>247.41</course>
  <speed>0.0</speed>
  <fix>3d</fix>
</trkpt>
<trkpt lat="40.0713749" lon="-105.229789">
  <ele>1583.0</ele>
  <time>2026-08-28T17:54:15Z</time>
  <course>0.0</course>
  <speed>0.0</speed>
  <fix>3d</fix>
</trkpt>
<trkpt lat="40.071375" lon="-105.229789">
  <ele>1582.96</ele>
  <time>2026-08-28T17:54:15Z</time>
  <course>247.41</course>
  <speed>0.0</speed>
  <fix>3d</fix>
</trkpt>
<trkpt lat="40.0713749" lon="-105.229789">
  <ele>1583.0</ele>
  <time>2026-08-28T17:54:15Z</time>
  <course>0.0</course>
  <speed>0.0</speed>
  <fix>3d</fix>
</trkpt>
<trkpt lat="40.071375" lon="-105.229789">
  <ele>1582.96</ele>
  <time>2026-08-28T17:54:15Z</time>
  <course>247.41</course>
  <speed>0.0</speed>
  <fix>3d</fix>
</trkpt>
<trkpt lat="40.0713749" lon="-105.229789">
  <ele>1583.0</ele>
  <time>2026-08-28T17:54:15Z</time>
  <course>0.0</course>
  <speed>0.0</speed>
  <fix>3d</fix>
</trkpt>
<trkpt lat="40.071375" lon="-105.229789">
  <ele>1582.96</ele>
  <time>2026-08-28T17:54:15Z</time>
  <course>247.41</course>
  <speed>0.0</speed>
  <fix>3d</fix>
</trkpt>
<trkpt lat="40.0713749" lon="-105.229789">
  <ele>1583.0</ele>
  <time>2026-08-28T17:54:15Z</time>
  <course>0.0</course>
  <speed>0.0</speed>
  <fix>3d</fix>
</trkpt>
<trkpt lat="40.071375" lon="-105.229789">
  <ele>1582.95</ele>
  <time>2026-08-28T17:54:15Z</time>
  <course>247.41</course>
  <speed>0.0</speed>
  <fix>3d</fix>
</trkpt>
<trkpt lat="40.0713749" lon="-105.229789">
  <ele>1583.0</ele>
  <time>2026-08-28T17:54:15Z</time>
  <course>0.0</course>
  <speed>0.0</speed>
  <fix>3d</fix>
</trkpt>
<trkpt lat="40.071375" lon="-105.229789">
  <ele>1582.95</ele>
  <time>2026-08-28T17:54:15Z</time>
  <course>247.4</course>
  <speed>0.0</speed>
  <fix>3d</fix>
</trkpt>
<trkpt lat="40.0713749" lon="-105.229789">
  <ele>1583.0</ele>
  <time>2026-08-28T17:54:15Z</time>
  <course>0.0</course>
  <speed>0.0</speed>
  <fix>3d</fix>
</trkpt>
<trkpt lat="40.071375" lon="-105.229789">
  <ele>1582.95</ele>
  <time>2026-08-28T17:54:15Z</time>
  <course>247.4</course>
  <speed>0.0</speed>
  <fix>3d</fix>
</trkpt>
<trkpt lat="40.0713749" lon="-105.229789">
  <ele>1583.0</ele>
  <time>2026-08-28T17:54:15Z</time>
  <course>0.0</course>
  <speed>0.0</speed>
  <fix>3d</fix>
</trkpt>
<trkpt lat="40.071375" lon="-105.229789">
  <ele>1582.95</ele>
  <time>2026-08-28T17:54:15Z</time>
  <course>247.4</course>
  <speed>0.0</speed>
  <fix>3d</fix>
</trkpt>
<trkpt lat="40.0713749" lon="-105.229789">
  <ele>1583.0</ele>
  <time>2026-08-28T17:54:15Z</time>
  <course>0.0</course>
  <speed>0.0</speed>
  <fix>3d</fix>
</trkpt>
<trkpt lat="40.0713749" lon="-105.229789">
  <ele>1582.95</ele>
  <time>2026-08-28T17:54:15Z</time>
  <course>247.4</course>
  <speed>0.0</speed>
  <fix>3d</fix>
</trkpt>
<trkpt lat="40.0713749" lon="-105.229789">
  <ele>1583.0</ele>
  <time>2026-08-28T17:54:15Z</time>
  <course>0.0</course>
  <speed>0.0</speed>
  <fix>3d</fix>
</trkpt>
<trkpt lat="40.0713749" lon="-105.229789">
  <ele>1582.95</ele>
  <time>2026-08-28T17:54:15Z</time>
  <course>247.4</course>
  <speed>0.0</speed>
  <fix>3d</fix>
</trkpt>
<trkpt lat="40.0713749" lon="-105.229789">
  <ele>1583.0</ele>
  <time>2026-08-28T17:54:15Z</time>
  <course>0.0</course>
  <speed>0.0</speed>
  <fix>3d</fix>
</trkpt>
<trkpt lat="40.0713749" lon="-105.229789">
  <ele>1582.94</ele>
  <time>2026-08-28T17:54:15Z</time>
  <course>247.4</course>
  <speed>0.0</speed>
  <fix>3d</fix>
</trkpt>
<trkpt lat="40.0713749" lon="-105.229789">
  <ele>1583.0</ele>
  <time>2026-08-28T17:54:15Z</time>
  <course>0.0</course>
  <speed>0.0</speed>
  <fix>3d</fix>
</trkpt>
<trkpt lat="40.0713749" lon="-105.229789">
  <ele>1582.94</ele>
  <time>2026-08-28T17:54:15Z</time>
  <course>247.39</course>
  <speed>0.0</speed>
  <fix>3d</fix>
</trkpt>
<trkpt lat="40.0713749" lon="-105.229789">
  <ele>1583.0</ele>
  <time>2026-08-28T17:54:15Z</time>
  <course>0.0</course>
  <speed>0.0</speed>
  <fix>3d</fix>
</trkpt>
<trkpt lat="40.0713749" lon="-105.229789">
  <ele>1582.94</ele>
  <time>2026-08-28T17:54:15Z</time>
  <course>247.39</course>
  <speed>0.0</speed>
  <fix>3d</fix>
</trkpt>
<trkpt lat="40.0713749" lon="-105.229789">
  <ele>1583.0</ele>
  <time>2026-08-28T17:54:15Z</time>
  <course>0.0</course>
  <speed>0.0</speed>
  <fix>3d</fix>
</trkpt>
<trkpt lat="40.0713749" lon="-105.229789">
  <ele>1582.94</ele>
  <time>2026-08-28T17:54:15Z</time>
  <course>247.39</course>
  <speed>0.0</speed>
  <fix>3d</fix>
</trkpt>
<trkpt lat="40.0713749" lon="-105.229789">
  <ele>1583.0</ele>
  <time>2026-08-28T17:54:15Z</time>
  <course>0.0</course>
  <speed>0.0</speed>
  <fix>3d</fix>
</trkpt>
<trkpt lat="40.0713749" lon="-105.229789">
  <ele>1582.94</ele>
  <time>2026-08-28T17:54:15Z</time>
  <course>247.39</course>
  <speed>0.0</speed>
  <fix>3d</fix>
</trkpt>
<trkpt lat="40.0713749" lon="-105.229789">
  <ele>1583.0</ele>
  <time>2026-08-28T17:54:15Z</time>
  <course>0.0</course>
  <speed>0.0</speed>
  <fix>3d</fix>
</trkpt>
<trkpt lat="40.0713749" lon="-105.229789">
  <ele>1582.93</ele>
  <time>2026-08-28T17:54:15Z</time>
  <course>247.39</course>
  <speed>0.0</speed>
  <fix>3d</fix>
</trkpt>
<trkpt lat="40.0713749" lon="-105.229789">
  <ele>1583.0</ele>
  <time>2026-08-28T17:54:15Z</time>
  <course>246.0</course>
  <speed>0.0</speed>
  <fix>3d</fix>
</trkpt>
<trkpt lat="40.0713749" lon="-105.229789">
  <ele>1582.93</ele>
  <time>2026-08-28T17:54:15Z</time>
  <course>247.39</course>
  <speed>0.01</speed>
  <fix>3d</fix>
</trkpt>
<trkpt lat="40.0713749" lon="-105.229789">
  <ele>1583.0</ele>
  <time>2026-08-28T17:54:15Z</time>
  <course>246.0</course>
  <speed>0.0</speed>
  <fix>3d</fix>
</trkpt>
<trkpt lat="40.0713749" lon="-105.229789">
  <ele>1582.93</ele>
  <time>2026-08-28T17:54:15Z</time>
  <course>247.38</course>
  <speed>0.02</speed>
  <fix>3d</fix>
</trkpt>
<trkpt lat="40.0713749" lon="-105.229789">
  <ele>1583.0</ele>
  <time>2026-08-28T17:54:15Z</time>
  <course>246.0</course>
  <speed>0.01</speed>
  <fix>3d</fix>
</trkpt>
<trkpt lat="40.0713749" lon="-105.229789">
  <ele>1582.92</ele>
  <time>2026-08-28T17:54:15Z</time>
  <course>247.38</course>
  <speed>0.0316227766016838</speed>
  <fix>3d</fix>
</trkpt>
<trkpt lat="40.0713749" lon="-105.229789">
  <ele>1583.0</ele>
  <time>2026-08-28T17:54:15Z</time>
  <course>246.0</course>
  <speed>0.01</speed>
  <fix>3d</fix>
</trkpt>
<trkpt lat="40.0713749" lon="-105.2297891">
  <ele>1582.92</ele>
  <time>2026-08-28T17:54:15Z</time>
  <course>247.38</course>
  <speed>0.05099019513592785</speed>
  <fix>3d</fix>
</trkpt>
<trkpt lat="40.0713749" lon="-105.229789">
  <ele>1583.0</ele>
  <time>2026-08-28T17:54:15Z</time>
  <course>246.0</course>
  <speed>0.04</speed>
  <fix>3d</fix>
</trkpt>
<trkpt lat="40.0713749" lon="-105.2297892">
  <ele>1582.92</ele>
  <time>2026-08-28T17:54:15Z</time>
  <course>247.38</course>
  <speed>0.07280109889280519</speed>
  <fix>3d</fix>
</trkpt>
<trkpt lat="40.0713749" lon="-105.229789">
  <ele>1583.0</ele>
  <time>2026-08-28T17:54:15Z</time>
  <course>246.0</course>
  <speed>0.04</speed>
  <fix>3d</fix>
</trkpt>
<trkpt lat="40.0713749" lon="-105.2297893">
  <ele>1582.91</ele>
  <time>2026-08-28T17:54:15Z</time>
  <course>247.38</course>
  <speed>0.09486832980505139</speed>
  <fix>3d</fix>
</trkpt>
<trkpt lat="40.0713749" lon="-105.2297891">
  <ele>1583.0</ele>
  <time>2026-08-28T17:54:15Z</time>
  <course>245.99</course>
  <speed>0.07</speed>
  <fix>3d</fix>
</trkpt>
<trkpt lat="40.0713748" lon="-105.2297894">
  <ele>1582.91</ele>
  <time>2026-08-28T17:54:15Z</time>
  <course>247.37</course>
  <speed>0.11704699910719625</speed>
  <fix>3d</fix>
</trkpt>
<trkpt lat="40.0713749" lon="-105.2297891">
  <ele>1583.0</ele>
  <time>2026-08-28T17:54:15Z</time>
  <course>245.99</course>
  <speed>0.07</speed>
  <fix>3d</fix>
</trkpt>
<trkpt lat="40.0713748" lon="-105.2297895">
  <ele>1582.91</ele>
  <time>2026-08-28T17:54:15Z</time>
  <course>247.37</course>
  <speed>0.14866068747318506</speed>
  <fix>3d</fix>
</trkpt>
<trkpt lat="40.0713749" lon="-105.2297893">
  <ele>1583.0</ele>
  <time>2026-08-28T17:54:15Z</time>
  <course>245.99</course>
  <speed>0.12</speed>
  <fix>3d</fix>
</trkpt>
<trkpt lat="40.0713747" lon="-105.2297897">
  <ele>1582.91</ele>
  <time>2026-08-28T17:54:15Z</time>
  <course>247.36</course>
  <speed>0.1708800749063506</speed>
  <fix>3d</fix>
</trkpt>
<trkpt lat="40.0713749" lon="-105.2297893">
  <ele>1583.0</ele>
  <time>2026-08-28T17:54:15Z</time>
  <course>245.99</course>
  <speed>0.12</speed>
  <fix>3d</fix>
</trkpt>
<trkpt lat="40.0713747" lon="-105.2297899">
  <ele>1582.9</ele>
  <time>2026-08-28T17:54:15Z</time>
  <course>247.36</course>
  <speed>0.20248456731316586</speed>
  <fix>3d</fix>
</trkpt>
<trkpt lat="40.0713748" lon="-105.2297897">
  <ele>1583.0</ele>
  <time>2026-08-28T17:54:15Z</time>
  <course>245.99</course>
  <speed>0.18</speed>
  <fix>3d</fix>
</trkpt>
<trkpt lat="40.0713746" lon="-105.2297902">
  <ele>1582.9</ele>
  <time>2026-08-28T17:54:15Z</time>
  <course>247.35</course>
  <speed>0.2340939982143925</speed>
  <fix>3d</fix>
</trkpt>
<trkpt lat="40.0713748" lon="-105.2297897">
  <ele>1583.0</ele>
  <time>2026-08-28T17:54:15Z</time>
  <course>245.99</course>
  <speed>0.18</speed>
  <fix>3d</fix>
</trkpt>
<trkpt lat="40.0713745" lon="-105.2297904">
  <ele>1582.89</ele>
  <time>2026-08-28T17:54:15Z</time>
  <course>247.34</course>
  <speed>0.25632011235952595</speed>
  <fix>3d</fix>
</trkpt>
<trkpt lat="40.0713746" lon="-105.2297901">
  <ele>1583.0</ele>
  <time>2026-08-28T17:54:15Z</time>
  <course>245.97</course>
  <speed>0.24</speed>
  <fix>3d</fix>
</trkpt>
<trkpt lat="40.0713744" lon="-105.2297907">
  <ele>1582.89</ele>
  <time>2026-08-28T17:54:15Z</time>
  <course>247.33</course>
  <speed>0.2879236009777594</speed>
  <fix>3d</fix>
</trkpt>
<trkpt lat="40.0713746" lon="-105.2297901">
  <ele>1583.0</ele>
  <time>2026-08-28T17:54:15Z</time>
  <course>245.97</course>
  <speed>0.24</speed>
  <fix>3d</fix>
</trkpt>
<trkpt lat="40.0713743" lon="-105.2297911">
  <ele>1582.89</ele>
  <time>2026-08-28T17:54:15Z</time>
  <course>247.31</course>
  <speed>0.3195309061734092</speed>
  <fix>3d</fix>
</trkpt>
<trkpt lat="40.0713744" lon="-105.2297907">
  <ele>1583.0</ele>
  <time>2026-08-28T17:54:15Z</time>
  <course>245.95</course>
  <speed>0.3</speed>
  <fix>3d</fix>
</trkpt>
<trkpt lat="40.0713742" lon="-105.2297914">
  <ele>1582.89</ele>
  <time>2026-08-28T17:54:15Z</time>
  <course>247.29</course>
  <speed>0.354682957019364</speed>
  <fix>3d</fix>
</trkpt>
<trkpt lat="40.0713744" lon="-105.2297907">
  <ele>1583.0</ele>
  <time>2026-08-28T17:54:15Z</time>
  <course>245.95</course>
  <speed>0.3</speed>
  <fix>3d</fix>
</trkpt>
<trkpt lat="40.0713741" lon="-105.2297919">
  <ele>1582.89</ele>
  <time>2026-08-28T17:54:15Z</time>
  <course>247.26</course>
  <speed>0.38626415831655936</speed>
  <fix>3d</fix>
</trkpt>
<trkpt lat="40.0713741" lon="-105.2297914">
  <ele>1583.0</ele>
  <time>2026-08-28T17:54:15Z</time>
  <course>245.92</course>
  <speed>0.36</speed>
  <fix>3d</fix>
</trkpt>
<trkpt lat="40.0713739" lon="-105.2297923">
  <ele>1582.88</ele>
  <time>2026-08-28T17:54:15Z</time>
  <course>247.23</course>
  <speed>0.4085339643163099</speed>
  <fix>3d</fix>
</trkpt>
<trkpt lat="40.0713741" lon="-105.2297914">
  <ele>1583.0</ele>
  <time>2026-08-28T17:54:15Z</time>
  <course>245.92</course>
  <speed>0.36</speed>
  <fix>3d</fix>
</trkpt>
<trkpt lat="40.0713738" lon="-105.2297928">
  <ele>1582.88</ele>
  <time>2026-08-28T17:54:15Z</time>
  <course>247.2</course>
  <speed>0.44011362169330775</speed>
  <fix>3d</fix>
</trkpt>
<trkpt lat="40.0713739" lon="-105.2297922">
  <ele>1583.0</ele>
  <time>2026-08-28T17:54:15Z</time>
  <course>245.87</course>
  <speed>0.42</speed>
  <fix>3d</fix>
</trkpt>
<trkpt lat="40.0713736" lon="-105.2297934">
  <ele>1582.88</ele>
  <time>2026-08-28T17:54:15Z</time>
  <course>247.16</course>
  <speed>0.47169905660283024</speed>
  <fix>3d</fix>
</trkpt>
<trkpt lat="40.0713739" lon="-105.2297922">
  <ele>1583.0</ele>
  <time>2026-08-28T17:54:15Z</time>
  <course>245.87</course>
  <speed>0.42</speed>
  <fix>3d</fix>
</trkpt>
<trkpt lat="40.0713734" lon="-105.229794">
  <ele>1582.88</ele>
  <time>2026-08-28T17:54:15Z</time>
  <course>247.12</course>
  <speed>0.4939635614091387</speed>
  <fix>3d</fix>
</trkpt>
<trkpt lat="40.0713736" lon="-105.2297932">
  <ele>1583.0</ele>
  <time>2026-08-28T17:54:15Z</time>
  <course>245.8</course>
  <speed>0.47</speed>
  <fix>3d</fix>
</trkpt>
<trkpt lat="40.0713732" lon="-105.2297945">
  <ele>1582.89</ele>
  <time>2026-08-28T17:54:15Z</time>
  <course>247.07</course>
  <speed>0.5255473337388366</speed>
  <fix>3d</fix>
</trkpt>
<trkpt lat="40.0713736" lon="-105.2297932">
  <ele>1583.0</ele>
  <time>2026-08-28T17:54:15Z</time>
  <course>245.8</course>
  <speed>0.47</speed>
  <fix>3d</fix>
</trkpt>
<trkpt lat="40.071373" lon="-105.2297951">
  <ele>1582.88</ele>
  <time>2026-08-28T17:54:15Z</time>
  <course>247.02</course>
  <speed>0.5478138369920935</speed>
  <fix>3d</fix>
</trkpt>
<trkpt lat="40.0713731" lon="-105.2297943">
  <ele>1583.0</ele>
  <time>2026-08-28T17:54:15Z</time>
  <course>245.72</course>
  <speed>0.53</speed>
  <fix>3d</fix>
</trkpt>
<trkpt lat="40.0713728" lon="-105.2297957">
  <ele>1582.88</ele>
  <time>2026-08-28T17:54:15Z</time>
  <course>246.96</course>
  <speed>0.570087712549569</speed>
  <fix>3d</fix>
</trkpt>
<trkpt lat="40.0713731" lon="-105.2297943">
  <ele>1583.0</ele>
  <time>2026-08-28T17:54:15Z</time>
  <course>245.72</course>
  <speed>0.53</speed>
  <fix>3d</fix>
</trkpt>
<trkpt lat="40.0713726" lon="-105.2297964">
  <ele>1582.88</ele>
  <time>2026-08-28T17:54:15Z</time>
  <course>246.89</course>
  <speed>0.5923681287847955</speed>
  <fix>3d</fix>
</trkpt>
<trkpt lat="40.0713728" lon="-105.2297955">
  <ele>1583.0</ele>
  <time>2026-08-28T17:54:15Z</time>
  <course>245.62</course>
  <speed>0.57</speed>
  <fix>3d</fix>
</trkpt>
<trkpt lat="40.0713724" lon="-105.2297971">
  <ele>1582.88</ele>
  <time>2026-08-28T17:54:15Z</time>
  <course>246.82</course>
  <speed>0.6146543744251723</speed>
  <fix>3d</fix>
</trkpt>
<trkpt lat="40.0713728" lon="-105.2297955">
  <ele>1583.0</ele>
  <time>2026-08-28T17:54:15Z</time>
  <course>245.62</course>
  <speed>0.57</speed>
  <fix>3d</fix>
</trkpt>
<trkpt lat="40.0713721" lon="-105.2297977">
  <ele>1582.89</ele>
  <time>2026-08-28T17:54:15Z</time>
  <course>246.74</course>
  <speed>0.6369458375717671</speed>
  <fix>3d</fix>
</trkpt>
<trkpt lat="40.0713723" lon="-105.2297968">
  <ele>1583.0</ele>
  <time>2026-08-28T17:54:15Z</time>
  <course>245.48</course>
  <speed>0.62</speed>
  <fix>3d</fix>
</trkpt>
<trkpt lat="40.0713719" lon="-105.2297984">
  <ele>1582.89</ele>
  <time>2026-08-28T17:54:15Z</time>
  <course>246.64</course>
  <speed>0.65</speed>
  <fix>3d</fix>
</trkpt>
<trkpt lat="40.0713723" lon="-105.2297968">
  <ele>1583.0</ele>
  <time>2026-08-28T17:54:15Z</time>
  <course>245.48</course>
  <speed>0.62</speed>
  <fix>3d</fix>
</trkpt>
<trkpt lat="40.0713717" lon="-105.2297992">
  <ele>1582.89</ele>
  <time>2026-08-28T17:54:15Z</time>
  <course>246.54</course>
  <speed>0.6723094525588644</speed>
  <fix>3d</fix>
</trkpt>
<trkpt lat="40.0713718" lon="-105.2297981">
  <ele>1583.0</ele>
  <time>2026-08-28T17:54:15Z</time>
  <course>245.32</course>
  <speed>0.66</speed>
  <fix>3d</fix>
</trkpt>
<trkpt lat="40.0713714" lon="-105.2297999">
  <ele>1582.89</ele>
  <time>2026-08-28T17:54:15Z</time>
  <course>246.42</course>
  <speed>0.6854195795277518</speed>
  <fix>3d</fix>
</trkpt>
<trkpt lat="40.0713718" lon="-105.2297981">
  <ele>1583.0</ele>
  <time>2026-08-28T17:54:15Z</time>
  <course>245.32</course>
  <speed>0.66</speed>
  <fix>3d</fix>
</trkpt>
<trkpt lat="40.0713711" lon="-105.2298007">
  <ele>1582.89</ele>
  <time>2026-08-28T17:54:15Z</time>
  <course>246.29</course>
  <speed>0.7038465741907111</speed>
  <fix>3d</fix>
</trkpt>
<trkpt lat="40.0713713" lon="-105.2297996">
  <ele>1583.0</ele>
  <time>2026-08-28T17:54:15Z</time>
  <course>245.1</course>
  <speed>0.69</speed>
  <fix>3d</fix>
</trkpt>
<trkpt lat="40.0713709" lon="-105.2298014">
  <ele>1582.89</ele>
  <time>2026-08-28T17:54:15Z</time>
  <course>246.14</course>
  <speed>0.7169379331573968</speed>
  <fix>3d</fix>
</trkpt>
<trkpt lat="40.0713713" lon="-105.2297996">
  <ele>1583.0</ele>
  <time>2026-08-28T17:54:15Z</time>
  <course>245.1</course>
  <speed>0.69</speed>
  <fix>3d</fix>
</trkpt>
<trkpt lat="40.0713706" lon="-105.2298021">
  <ele>1582.89</ele>
  <time>2026-08-28T17:54:15Z</time>
  <course>246.0</course>
  <speed>0.7300684899377592</speed>
  <fix>3d</fix>
</trkpt>
<trkpt lat="40.0713707" lon="-105.2298011">
  <ele>1583.0</ele>
  <time>2026-08-28T17:54:15Z</time>
  <course>244.83</course>
  <speed>0.73</speed>
  <fix>3d</fix>
</trkpt>
<trkpt lat="40.0713703" lon="-105.2298029">
  <ele>1582.89</ele>
  <time>2026-08-28T17:54:15Z</time>
  <course>245.82</course>
  <speed>0.7432361670424819</speed>
  <fix>3d</fix>
</trkpt>
<trkpt lat="40.0713707" lon="-105.2298011">
  <ele>1583.0</ele>
  <time>2026-08-28T17:54:15Z</time>
  <course>244.83</course>
  <speed>0.73</speed>
  <fix>3d</fix>
</trkpt>
<trkpt lat="40.07137" lon="-105.2298037">
  <ele>1582.89</ele>
  <time>2026-08-28T17:54:15Z</time>
  <course>245.61</course>
  <speed>0.7655716818169281</speed>
  <fix>3d</fix>
</trkpt>
<trkpt lat="40.0713702" lon="-105.2298027">
  <ele>1583.0</ele>
  <time>2026-08-28T17:54:15Z</time>
  <course>244.48</course>
  <speed>0.76</speed>
  <fix>3d</fix>
</trkpt>
<trkpt lat="40.0713697" lon="-105.2298045">
  <ele>1582.89</ele>
  <time>2026-08-28T17:54:15Z</time>
  <course>245.38</course>
  <speed>0.7787810988975015</speed>
  <fix>3d</fix>
</trkpt>
<trkpt lat="40.0713702" lon="-105.2298027">
  <ele>1583.0</ele>
  <time>2026-08-28T17:54:15Z</time>
  <course>244.48</course>
  <speed>0.76</speed>
  <fix>3d</fix>
</trkpt>
<trkpt lat="40.0713694" lon="-105.2298054">
  <ele>1582.89</ele>
  <time>2026-08-28T17:54:15Z</time>
  <course>245.11</course>
  <speed>0.7920227269466451</speed>
  <fix>3d</fix>
</trkpt>
<trkpt lat="40.0713696" lon="-105.2298044">
  <ele>1583.0</ele>
  <time>2026-08-28T17:54:15Z</time>
  <course>244.04</course>
  <speed>0.79</speed>
  <fix>3d</fix>
</trkpt>
<trkpt lat="40.0713691" lon="-105.2298062">
  <ele>1582.9</ele>
  <time>2026-08-28T17:54:15Z</time>
  <course>244.8</course>
  <speed>0.8052949770115296</speed>
  <fix>3d</fix>
</trkpt>
<trkpt lat="40.0713696" lon="-105.2298044">
  <ele>1583.0</ele>
  <time>2026-08-28T17:54:15Z</time>
  <course>244.04</course>
  <speed>0.79</speed>
  <fix>3d</fix>
</trkpt>
<trkpt lat="40.0713687" lon="-105.2298071">
  <ele>1582.9</ele>
  <time>2026-08-28T17:54:15Z</time>
  <course>244.45</course>
  <speed>0.8185963596303125</speed>
  <fix>3d</fix>
</trkpt>
<trkpt lat="40.071369" lon="-105.229806">
  <ele>1583.0</ele>
  <time>2026-08-28T17:54:15Z</time>
  <course>243.46</course>
  <speed>0.82</speed>
  <fix>3d</fix>
</trkpt>
<trkpt lat="40.0713684" lon="-105.229808">
  <ele>1582.9</ele>
  <time>2026-08-28T17:54:15Z</time>
  <course>244.03</course>
  <speed>0.8409518416651456</speed>
  <fix>3d</fix>
</trkpt>
<trkpt lat="40.071369" lon="-105.229806">
  <ele>1583.0</ele>
  <time>2026-08-28T17:54:15Z</time>
  <course>243.46</course>
  <speed>0.82</speed>
  <fix>3d</fix>
</trkpt>
<trkpt lat="40.071368" lon="-105.2298091">
  <ele>1582.9</ele>
  <time>2026-08-28T17:54:15Z</time>
  <course>243.44</course>
  <speed>0.8586617494683223</speed>
  <fix>3d</fix>
</trkpt>
<trkpt lat="40.0713683" lon="-105.2298079">
  <ele>1583.0</ele>
  <time>2026-08-28T17:54:15Z</time>
  <course>242.68</course>
  <speed>0.85</speed>
  <fix>3d</fix>
</trkpt>
<trkpt lat="40.0713676" lon="-105.22981">
  <ele>1582.9</ele>
  <time>2026-08-28T17:54:15Z</time>
  <course>242.85</course>
  <speed>0.876584280032445</speed>
  <fix>3d</fix>
</trkpt>
<trkpt lat="40.0713683" lon="-105.2298079">
  <ele>1583.0</ele>
  <time>2026-08-28T17:54:15Z</time>
  <course>242.68</course>
  <speed>0.85</speed>
  <fix>3d</fix>
</trkpt>
<trkpt lat="40.0713672" lon="-105.229811">
  <ele>1582.89</ele>
  <time>2026-08-28T17:54:15Z</time>
  <course>242.16</course>
  <speed>0.8900561780022652</speed>
  <fix>3d</fix>
</trkpt>
<trkpt lat="40.0713675" lon="-105.2298097">
  <ele>1583.0</ele>
  <time>2026-08-28T17:54:15Z</time>
  <course>241.61</course>
  <speed>0.88</speed>
  <fix>3d</fix>
</trkpt>
<trkpt lat="40.0713668" lon="-105.2298119">
  <ele>1582.89</ele>
  <time>2026-08-28T17:54:15Z</time>
  <course>241.33</course>
  <speed>0.9082400563727632</speed>
  <fix>3d</fix>
</trkpt>
<trkpt lat="40.0713675" lon="-105.2298097">
  <ele>1583.0</ele>
  <time>2026-08-28T17:54:15Z</time>
  <course>241.61</course>
  <speed>0.88</speed>
  <fix>3d</fix>
</trkpt>
<trkpt lat="40.0713664" lon="-105.2298129">
  <ele>1582.89</ele>
  <time>2026-08-28T17:54:15Z</time>
  <course>240.36</course>
  <speed>0.9228217596047462</speed>
  <fix>3d</fix>
</trkpt>
<trkpt lat="40.0713667" lon="-105.2298115">
  <ele>1583.0</ele>
  <time>2026-08-28T17:54:15Z</time>
  <course>240.12</course>
  <speed>0.92</speed>
  <fix>3d</fix>
</trkpt>
<trkpt lat="40.0713659" lon="-105.2298138">
  <ele>1582.89</ele>
  <time>2026-08-28T17:54:15Z</time>
  <course>239.2</course>
  <speed>0.9415412895885129</speed>
  <fix>3d</fix>
</trkpt>
<trkpt lat="40.0713667" lon="-105.2298115">
  <ele>1583.0</ele>
  <time>2026-08-28T17:54:15Z</time>
  <course>240.12</course>
  <speed>0.92</speed>
  <fix>3d</fix>
</trkpt>
<trkpt lat="40.0713654" lon="-105.2298148">
  <ele>1582.89</ele>
  <time>2026-08-28T17:54:15Z</time>
  <course>237.81</course>
  <speed>0.957183368012629</speed>
  <fix>3d</fix>
</trkpt>
<trkpt lat="40.0713659" lon="-105.2298134">
  <ele>1583.0</ele>
  <time>2026-08-28T17:54:15Z</time>
  <course>238.01</course>
  <speed>0.95</speed>
  <fix>3d</fix>
</trkpt>
<trkpt lat="40.0713649" lon="-105.2298157">
  <ele>1582.89</ele>
  <time>2026-08-28T17:54:15Z</time>
  <course>236.14</course>
  <speed>0.979081201943945</speed>
  <fix>3d</fix>
</trkpt>
<trkpt lat="40.0713659" lon="-105.2298134">
  <ele>1583.0</ele>
  <time>2026-08-28T17:54:15Z</time>
  <course>238.01</course>
  <speed>0.95</speed>
  <fix>3d</fix>
</trkpt>
<trkpt lat="40.0713644" lon="-105.2298167">
  <ele>1582.89</ele>
  <time>2026-08-28T17:54:15Z</time>
  <course>234.13</course>
  <speed>0.9940321926376429</speed>
  <fix>3d</fix>
</trkpt>
<trkpt lat="40.0713649" lon="-105.2298153">
  <ele>1583.0</ele>
  <time>2026-08-28T17:54:15Z</time>
  <course>234.99</course>
  <speed>0.99</speed>
  <fix>3d</fix>
</trkpt>
<trkpt lat="40.0713638" lon="-105.2298176">
  <ele>1582.89</ele>
  <time>2026-08-28T17:54:15Z</time>
  <course>231.75</course>
  <speed>1.0104454463255303</speed>
  <fix>3d</fix>
</trkpt>
<trkpt lat="40.0713649" lon="-105.2298153">
  <ele>1583.0</ele>
  <time>2026-08-28T17:54:15Z</time>
  <course>234.99</course>
  <speed>0.99</speed>
  <fix>3d</fix>
</trkpt>
<trkpt lat="40.0713632" lon="-105.2298186">
  <ele>1582.89</ele>
  <time>2026-08-28T17:54:15Z</time>
  <course>228.99</course>
  <speed>1.0339245620450266</speed>
  <fix>3d</fix>
</trkpt>
<trkpt lat="40.0713638" lon="-105.2298172">
  <ele>1583.0</ele>
  <time>2026-08-28T17:54:15Z</time>
  <course>230.7</course>
  <speed>1.03</speed>
  <fix>3d</fix>
</trkpt>
<trkpt lat="40.0713625" lon="-105.2298194">
  <ele>1582.89</ele>
  <time>2026-08-28T17:54:15Z</time>
  <course>225.78</course>
  <speed>1.053612832116238</speed>
  <fix>3d</fix>
</trkpt>
<trkpt lat="40.0713638" lon="-105.2298172">
  <ele>1583.0</ele>
  <time>2026-08-28T17:54:15Z</time>
  <course>230.7</course>
  <speed>1.03</speed>
  <fix>3d</fix>
</trkpt>
<trkpt lat="40.0713618" lon="-105.2298203">
  <ele>1582.89</ele>
  <time>2026-08-28T17:54:15Z</time>
  <course>222.09</course>
  <speed>1.0771258050942796</speed>
  <fix>3d</fix>
</trkpt>
<trkpt lat="40.0713626" lon="-105.229819">
  <ele>1583.0</ele>
  <time>2026-08-28T17:54:15Z</time>
  <course>224.83</course>
  <speed>1.07</speed>
  <fix>3d</fix>
</trkpt>
<trkpt lat="40.0713612" lon="-105.2298209">
  <ele>1582.89</ele>
  <time>2026-08-28T17:54:15Z</time>
  <course>218.7</course>
  <speed>1.0901834707974616</speed>
  <fix>3d</fix>
</trkpt>
<trkpt lat="40.0713626" lon="-105.229819">
  <ele>1583.0</ele>
  <time>2026-08-28T17:54:15Z</time>
  <course>224.83</course>
  <speed>1.07</speed>
  <fix>3d</fix>
</trkpt>
<trkpt lat="40.0713603" lon="-105.2298217">
  <ele>1582.89</ele>
  <time>2026-08-28T17:54:15Z</time>
  <course>213.99</course>
  <speed>1.1151681487560519</speed>
  <fix>3d</fix>
</trkpt>
<trkpt lat="40.0713611" lon="-105.2298208">
  <ele>1583.0</ele>
  <time>2026-08-28T17:54:15Z</time>
  <course>217.02</course>
  <speed>1.11</speed>
  <fix>3d</fix>
</trkpt>
<trkpt lat="40.0713594" lon="-105.2298223">
  <ele>1582.89</ele>
  <time>2026-08-28T17:54:15Z</time>
  <course>208.68</course>
  <speed>1.136001760562016</speed>
  <fix>3d</fix>
</trkpt>
<trkpt lat="40.0713611" lon="-105.2298208">
  <ele>1583.0</ele>
  <time>2026-08-28T17:54:15Z</time>
  <course>217.02</course>
  <speed>1.11</speed>
  <fix>3d</fix>
</trkpt>
<trkpt lat="40.0713585" lon="-105.2298229">
  <ele>1582.89</ele>
  <time>2026-08-28T17:54:15Z</time>
  <course>202.79</course>
  <speed>1.158792474949678</speed>
  <fix>3d</fix>
</trkpt>
<trkpt lat="40.0713593" lon="-105.2298222">
  <ele>1583.0</ele>
  <time>2026-08-28T17:54:15Z</time>
  <course>206.94</course>
  <speed>1.15</speed>
  <fix>3d</fix>
</trkpt>
<trkpt lat="40.0713574" lon="-105.2298233">
  <ele>1582.89</ele>
  <time>2026-08-28T17:54:15Z</time>
  <course>196.23</course>
  <speed>1.186001686339442</speed>
  <fix>3d</fix>
</trkpt>
<trkpt lat="40.0713593" lon="-105.2298222">
  <ele>1583.0</ele>
  <time>2026-08-28T17:54:15Z</time>
  <course>206.94</course>
  <speed>1.15</speed>
  <fix>3d</fix>
</trkpt>
<trkpt lat="40.0713563" lon="-105.2298236">
  <ele>1582.89</ele>
  <time>2026-08-28T17:54:15Z</time>
  <course>189.08</course>
  <speed>1.2081390648431165</speed>
  <fix>3d</fix>
</trkpt>
<trkpt lat="40.0713573" lon="-105.2298231">
  <ele>1583.0</ele>
  <time>2026-08-28T17:54:15Z</time>
  <course>194.43</course>
  <speed>1.19</speed>
  <fix>3d</fix>
</trkpt>
<trkpt lat="40.0713552" lon="-105.2298236">
  <ele>1582.9</ele>
  <time>2026-08-28T17:54:15Z</time>
  <course>181.39</course>
  <speed>1.2301625908797584</speed>
  <fix>3d</fix>
</trkpt>
<trkpt lat="40.0713573" lon="-105.2298231">
  <ele>1583.0</ele>
  <time>2026-08-28T17:54:15Z</time>
  <course>194.43</course>
  <speed>1.19</speed>
  <fix>3d</fix>
</trkpt>
<trkpt lat="40.071354" lon="-105.2298235">
  <ele>1582.9</ele>
  <time>2026-08-28T17:54:15Z</time>
  <course>173.36</course>
  <speed>1.2560254774486066</speed>
  <fix>3d</fix>
</trkpt>
<trkpt lat="40.0713552" lon="-105.2298235">
  <ele>1583.0</ele>
  <time>2026-08-28T17:54:15Z</time>
  <course>179.74</course>
  <speed>1.22</speed>
  <fix>3d</fix>
</trkpt>
<trkpt lat="40.0713526" lon="-105.229823">
  <ele>1582.91</ele>
  <time>2026-08-28T17:54:15Z</time>
  <course>163.68</course>
  <speed>1.2808200498118385</speed>
  <fix>3d</fix>
</trkpt>
<trkpt lat="40.0713552" lon="-105.2298235">
  <ele>1583.0</ele>
  <time>2026-08-28T17:54:15Z</time>
  <course>179.74</course>
  <speed>1.22</speed>
  <fix>3d</fix>
</trkpt>
<trkpt lat="40.0713515" lon="-105.2298224">
  <ele>1582.91</ele>
  <time>2026-08-28T17:54:15Z</time>
  <course>155.51</course>
  <speed>1.3059862173851606</speed>
  <fix>3d</fix>
</trkpt>
<trkpt lat="40.071353" lon="-105.2298231">
  <ele>1583.0</ele>
  <time>2026-08-28T17:54:15Z</time>
  <course>163.83</course>
  <speed>1.26</speed>
  <fix>3d</fix>
</trkpt>
<trkpt lat="40.0713505" lon="-105.2298215">
  <ele>1582.91</ele>
  <time>2026-08-28T17:54:15Z</time>
  <course>147.28</course>
  <speed>1.318256424221024</speed>
  <fix>3d</fix>
</trkpt>
<trkpt lat="40.071353" lon="-105.2298231">
  <ele>1583.0</ele>
  <time>2026-08-28T17:54:15Z</time>
  <course>163.83</course>
  <speed>1.26</speed>
  <fix>3d</fix>
</trkpt>
<trkpt lat="40.0713496" lon="-105.2298206">
  <ele>1582.92</ele>
  <time>2026-08-28T17:54:15Z</time>
  <course>138.99</course>
  <speed>1.3366001645967278</speed>
  <fix>3d</fix>
</trkpt>
<trkpt lat="40.0713509" lon="-105.2298219">
  <ele>1583.0</ele>
  <time>2026-08-28T17:54:15Z</time>
  <course>147.51</course>
  <speed>1.28</speed>
  <fix>3d</fix>
</trkpt>
<trkpt lat="40.0713488" lon="-105.2298194">
  <ele>1582.92</ele>
  <time>2026-08-28T17:54:15Z</time>
  <course>130.69</course>
  <speed>1.3480726983364064</speed>
  <fix>3d</fix>
</trkpt>
<trkpt lat="40.0713509" lon="-105.2298219">
  <ele>1583.0</ele>
  <time>2026-08-28T17:54:15Z</time>
  <course>147.51</course>
  <speed>1.28</speed>
  <fix>3d</fix>
</trkpt>
<trkpt lat="40.0713481" lon="-105.229818">
  <ele>1582.92</ele>
  <time>2026-08-28T17:54:15Z</time>
  <course>122.68</course>
  <speed>1.3520355024924455</speed>
  <fix>3d</fix>
</trkpt>
<trkpt lat="40.0713492" lon="-105.2298199">
  <ele>1583.0</ele>
  <time>2026-08-28T17:54:15Z</time>
  <course>131.08</course>
  <speed>1.29</speed>
  <fix>3d</fix>
</trkpt>
<trkpt lat="40.0713476" lon="-105.2298166">
  <ele>1582.92</ele>
  <time>2026-08-28T17:54:15Z</time>
  <course>115.11</course>
  <speed>1.346291201783626</speed>
  <fix>3d</fix>
</trkpt>
<trkpt lat="40.0713492" lon="-105.2298199">
  <ele>1583.0</ele>
  <time>2026-08-28T17:54:15Z</time>
  <course>131.08</course>
  <speed>1.29</speed>
  <fix>3d</fix>
</trkpt>
<trkpt lat="40.0713472" lon="-105.2298151">
  <ele>1582.91</ele>
  <time>2026-08-28T17:54:15Z</time>
  <course>108.04</course>
  <speed>1.343726162579266</speed>
  <fix>3d</fix>
</trkpt>
<trkpt lat="40.0713479" lon="-105.2298174">
  <ele>1583.0</ele>
  <time>2026-08-28T17:54:15Z</time>
  <course>115.48</course>
  <speed>1.28</speed>
  <fix>3d</fix>
</trkpt>
<trkpt lat="40.071347" lon="-105.2298136">
  <ele>1582.91</ele>
  <time>2026-08-28T17:54:15Z</time>
  <course>101.52</course>
  <speed>1.3435028842544403</speed>
  <fix>3d</fix>
</trkpt>
<trkpt lat="40.0713479" lon="-105.2298174">
  <ele>1583.0</ele>
  <time>2026-08-28T17:54:15Z</time>
  <course>115.48</course>
  <speed>1.28</speed>
  <fix>3d</fix>
</trkpt>
<trkpt lat="40.0713469" lon="-105.229812">
  <ele>1582.91</ele>
  <time>2026-08-28T17:54:15Z</time>
  <course>95.61</course>
  <speed>1.3313526955694348</speed>
  <fix>3d</fix>
</trkpt>
<trkpt lat="40.0713472" lon="-105.2298146">
  <ele>1583.0</ele>
  <time>2026-08-28T17:54:15Z</time>
  <course>101.76</course>
  <speed>1.27</speed>
  <fix>3d</fix>
</trkpt>
<trkpt lat="40.0713469" lon="-105.2298105">
  <ele>1582.91</ele>
  <time>2026-08-28T17:54:15Z</time>
  <course>90.33</course>
  <speed>1.3313526955694348</speed>
  <fix>3d</fix>
</trkpt>
<trkpt lat="40.0713472" lon="-105.2298146">
  <ele>1583.0</ele>
  <time>2026-08-28T17:54:15Z</time>
  <course>101.76</course>
  <speed>1.27</speed>
  <fix>3d</fix>
</trkpt>
<trkpt lat="40.071347" lon="-105.2298091">
  <ele>1582.91</ele>
  <time>2026-08-28T17:54:15Z</time>
  <course>85.68</course>
  <speed>1.3197348218486926</speed>
  <fix>3d</fix>
</trkpt>
<trkpt lat="40.0713469" lon="-105.2298117">
  <ele>1583.0</ele>
  <time>2026-08-28T17:54:15Z</time>
  <course>90.34</course>
  <speed>1.25</speed>
  <fix>3d</fix>
</trkpt>
<trkpt lat="40.0713472" lon="-105.2298076">
  <ele>1582.91</ele>
  <time>2026-08-28T17:54:15Z</time>
  <course>81.61</course>
  <speed>1.3140015220691337</speed>
  <fix>3d</fix>
</trkpt>
<trkpt lat="40.0713469" lon="-105.2298117">
  <ele>1583.0</ele>
  <time>2026-08-28T17:54:15Z</time>
  <course>90.34</course>
  <speed>1.25</speed>
  <fix>3d</fix>
</trkpt>
<trkpt lat="40.0713474" lon="-105.2298065">
  <ele>1582.91</ele>
  <time>2026-08-28T17:54:15Z</time>
  <course>78.72</course>
  <speed>1.3096946208945044</speed>
  <fix>3d</fix>
</trkpt>
<trkpt lat="40.0713471" lon="-105.2298087">
  <ele>1583.0</ele>
  <time>2026-08-28T17:54:15Z</time>
  <course>81.33</course>
  <speed>1.23</speed>
  <fix>3d</fix>
</trkpt>
<trkpt lat="40.0713478" lon="-105.229805">
  <ele>1582.91</ele>
  <time>2026-08-28T17:54:15Z</time>
  <course>75.6</course>
  <speed>1.309427355755179</speed>
  <fix>3d</fix>
</trkpt>
<trkpt lat="40.0713471" lon="-105.2298087">
  <ele>1583.0</ele>
  <time>2026-08-28T17:54:15Z</time>
  <course>81.33</course>
  <speed>1.23</speed>
  <fix>3d</fix>
</trkpt>
<trkpt lat="40.071348" lon="-105.2298036">
  <ele>1582.92</ele>
  <time>2026-08-28T17:54:15Z</time>
  <course>72.92</course>
  <speed>1.3191285001848758</speed>
  <fix>3d</fix>
</trkpt>
<trkpt lat="40.0713475" lon="-105.2298059">
  <ele>1583.0</ele>
  <time>2026-08-28T17:54:15Z</time>
  <course>74.51</course>
  <speed>1.24</speed>
  <fix>3d</fix>
</trkpt>
<trkpt lat="40.0713485" lon="-105.2298023">
  <ele>1582.92</ele>
  <time>2026-08-28T17:54:15Z</time>
  <course>70.67</course>
  <speed>1.327742444904131</speed>
  <fix>3d</fix>
</trkpt>
<trkpt lat="40.0713475" lon="-105.2298059">
  <ele>1583.0</ele>
  <time>2026-08-28T17:54:15Z</time>
  <course>74.51</course>
  <speed>1.24</speed>
  <fix>3d</fix>
</trkpt>
<trkpt lat="40.0713489" lon="-105.2298009">
  <ele>1582.92</ele>
  <time>2026-08-28T17:54:15Z</time>
  <course>68.74</course>
  <speed>1.3565028566132842</speed>
  <fix>3d</fix>
</trkpt>
<trkpt lat="40.0713482" lon="-105.2298031">
  <ele>1583.0</ele>
  <time>2026-08-28T17:54:15Z</time>
  <course>69.51</course>
  <speed>1.26</speed>
  <fix>3d</fix>
</trkpt>
<trkpt lat="40.0713494" lon="-105.2297995">
  <ele>1582.92</ele>
  <time>2026-08-28T17:54:15Z</time>
  <course>67.12</course>
  <speed>1.377534028617805</speed>
  <fix>3d</fix>
</trkpt>
<trkpt lat="40.0713482" lon="-105.2298031">
  <ele>1583.0</ele>
  <time>2026-08-28T17:54:15Z</time>
  <course>69.51</course>
  <speed>1.26</speed>
  <fix>3d</fix>
</trkpt>
<trkpt lat="40.07135" lon="-105.2297981">
  <ele>1582.92</ele>
  <time>2026-08-28T17:54:15Z</time>
  <course>65.76</course>
  <speed>1.4132232661543611</speed>
  <fix>3d</fix>
</trkpt>
<trkpt lat="40.0713491" lon="-105.2298003">
  <ele>1583.0</ele>
  <time>2026-08-28T17:54:15Z</time>
  <course>65.92</course>
  <speed>1.32</speed>
  <fix>3d</fix>
</trkpt>
<trkpt lat="40.0713505" lon="-105.2297966">
  <ele>1582.92</ele>
  <time>2026-08-28T17:54:15Z</time>
  <course>64.62</course>
  <speed>1.449413674559475</speed>
  <fix>3d</fix>
</trkpt>
<trkpt lat="40.0713491" lon="-105.2298003">
  <ele>1583.0</ele>
  <time>2026-08-28T17:54:15Z</time>
  <course>65.92</course>
  <speed>1.32</speed>
  <fix>3d</fix>
</trkpt>
<trkpt lat="40.0713513" lon="-105.2297948">
  <ele>1582.92</ele>
  <time>2026-08-28T17:54:15Z</time>
  <course>63.49</course>
  <speed>1.508409758653132</speed>
  <fix>3d</fix>
</trkpt>
<trkpt lat="40.0713501" lon="-105.2297974">
  <ele>1583.0</ele>
  <time>2026-08-28T17:54:15Z</time>
  <course>63.4</course>
  <speed>1.39</speed>
  <fix>3d</fix>
</trkpt>
<trkpt lat="40.0713519" lon="-105.2297933">
  <ele>1582.92</ele>
  <time>2026-08-28T17:54:15Z</time>
  <course>62.75</course>
  <speed>1.5541557193537592</speed>
  <fix>3d</fix>
</trkpt>
<trkpt lat="40.0713501" lon="-105.2297974">
  <ele>1583.0</ele>
  <time>2026-08-28T17:54:15Z</time>
  <course>63.4</course>
  <speed>1.39</speed>
  <fix>3d</fix>
</trkpt>
<trkpt lat="40.0713526" lon="-105.2297917">
  <ele>1582.91</ele>
  <time>2026-08-28T17:54:15Z</time>
  <course>62.14</course>
  <speed>1.6224672569885654</speed>
  <fix>3d</fix>
</trkpt>
<trkpt lat="40.0713513" lon="-105.2297944">
  <ele>1583.0</ele>
  <time>2026-08-28T17:54:15Z</time>
  <course>61.66</course>
  <speed>1.49</speed>
  <fix>3d</fix>
</trkpt>
<trkpt lat="40.0713533" lon="-105.2297901">
  <ele>1582.91</ele>
  <time>2026-08-28T17:54:15Z</time>
  <course>61.65</course>
  <speed>1.685852899869974</speed>
  <fix>3d</fix>
</trkpt>
<trkpt lat="40.0713513" lon="-105.2297944">
  <ele>1583.0</ele>
  <time>2026-08-28T17:54:15Z</time>
  <course>61.66</course>
  <speed>1.49</speed>
  <fix>3d</fix>
</trkpt>
<trkpt lat="40.0713541" lon="-105.2297884">
  <ele>1582.91</ele>
  <time>2026-08-28T17:54:15Z</time>
  <course>61.27</course>
  <speed>1.7492855684535902</speed>
  <fix>3d</fix>
</trkpt>
<trkpt lat="40.0713527" lon="-105.2297912">
  <ele>1583.0</ele>
  <time>2026-08-28T17:54:15Z</time>
  <course>60.51</course>
  <speed>1.62</speed>
  <fix>3d</fix>
</trkpt>
<trkpt lat="40.0713549" lon="-105.2297866">
  <ele>1582.91</ele>
  <time>2026-08-28T17:54:15Z</time>
  <course>60.96</course>
  <speed>1.8350476833041696</speed>
  <fix>3d</fix>
</trkpt>
<trkpt lat="40.0713527" lon="-105.2297912">
  <ele>1583.0</ele>
  <time>2026-08-28T17:54:15Z</time>
  <course>60.51</course>
  <speed>1.62</speed>
  <fix>3d</fix>
</trkpt>
<trkpt lat="40.0713557" lon="-105.2297848">
  <ele>1582.91</ele>
  <time>2026-08-28T17:54:15Z</time>
  <course>60.74</course>
  <speed>1.9070920271449934</speed>
  <fix>3d</fix>
</trkpt>
<trkpt lat="40.0713542" lon="-105.2297878">
  <ele>1583.0</ele>
  <time>2026-08-28T17:54:15Z</time>
  <course>59.78</course>
  <speed>1.77</speed>
  <fix>3d</fix>
</trkpt>
<trkpt lat="40.0713566" lon="-105.2297829">
  <ele>1582.91</ele>
  <time>2026-08-28T17:54:15Z</time>
  <course>60.58</course>
  <speed>1.9928873525616044</speed>
  <fix>3d</fix>
</trkpt>
<trkpt lat="40.0713542" lon="-105.2297878">
  <ele>1583.0</ele>
  <time>2026-08-28T17:54:15Z</time>
  <course>59.78</course>
  <speed>1.77</speed>
  <fix>3d</fix>
</trkpt>
<trkpt lat="40.0713575" lon="-105.2297809">
  <ele>1582.91</ele>
  <time>2026-08-28T17:54:15Z</time>
  <course>60.46</course>
  <speed>2.0820182516010757</speed>
  <fix>3d</fix>
</trkpt>
<trkpt lat="40.0713559" lon="-105.229784">
  <ele>1583.0</ele>
  <time>2026-08-28T17:54:15Z</time>
  <course>59.37</course>
  <speed>1.94</speed>
  <fix>3d</fix>
</trkpt>
<trkpt lat="40.0713584" lon="-105.2297788">
  <ele>1582.91</ele>
  <time>2026-08-28T17:54:15Z</time>
  <course>60.39</course>
  <speed>2.17635015565051</speed>
  <fix>3d</fix>
</trkpt>
<trkpt lat="40.0713559" lon="-105.229784">
  <ele>1583.0</ele>
  <time>2026-08-28T17:54:15Z</time>
  <course>59.37</course>
  <speed>1.94</speed>
  <fix>3d</fix>
</trkpt>
<trkpt lat="40.0713594" lon="-105.2297766">
  <ele>1582.91</ele>
  <time>2026-08-28T17:54:15Z</time>
  <course>60.36</course>
  <speed>2.270682716717596</speed>
  <fix>3d</fix>
</trkpt>
<trkpt lat="40.0713578" lon="-105.2297799">
  <ele>1583.0</ele>
  <time>2026-08-28T17:54:15Z</time>
  <course>59.17</course>
  <speed>2.13</speed>
  <fix>3d</fix>
</trkpt>
<trkpt lat="40.0713605" lon="-105.2297743">
  <ele>1582.91</ele>
  <time>2026-08-28T17:54:15Z</time>
  <course>60.36</course>
  <speed>2.3598305023878305</speed>
  <fix>3d</fix>
</trkpt>
<trkpt lat="40.0713578" lon="-105.2297799">
  <ele>1583.0</ele>
  <time>2026-08-28T17:54:15Z</time>
  <course>59.17</course>
  <speed>2.13</speed>
  <fix>3d</fix>
</trkpt>
<trkpt lat="40.0713615" lon="-105.2297719">
  <ele>1582.92</ele>
  <time>2026-08-28T17:54:15Z</time>
  <course>60.36</course>
  <speed>2.4627220712049502</speed>
  <fix>3d</fix>
</trkpt>
<trkpt lat="40.0713599" lon="-105.2297754">
  <ele>1583.0</ele>
  <time>2026-08-28T17:54:15Z</time>
  <course>59.12</course>
  <speed>2.33</speed>
  <fix>3d</fix>
</trkpt>
<trkpt lat="40.0713625" lon="-105.2297699">
  <ele>1582.92</ele>
  <time>2026-08-28T17:54:15Z</time>
  <course>60.39</course>
  <speed>2.5433245958783948</speed>
  <fix>3d</fix>
</trkpt>
<trkpt lat="40.0713599" lon="-105.2297754">
  <ele>1583.0</ele>
  <time>2026-08-28T17:54:15Z</time>
  <course>59.12</course>
  <speed>2.33</speed>
  <fix>3d</fix>
</trkpt>
<trkpt lat="40.0713636" lon="-105.2297673">
  <ele>1582.92</ele>
  <time>2026-08-28T17:54:15Z</time>
  <course>60.45</course>
  <speed>2.6462237244798485</speed>
  <fix>3d</fix>
</trkpt>
<trkpt lat="40.0713621" lon="-105.2297705">
  <ele>1583.0</ele>
  <time>2026-08-28T17:54:15Z</time>
  <course>59.16</course>
  <speed>2.53</speed>
  <fix>3d</fix>
</trkpt>
<trkpt lat="40.0713649" lon="-105.2297645">
  <ele>1582.92</ele>
  <time>2026-08-28T17:54:15Z</time>
  <course>60.52</course>
  <speed>2.744011661782799</speed>
  <fix>3d</fix>
</trkpt>
<trkpt lat="40.0713621" lon="-105.2297705">
  <ele>1583.0</ele>
  <time>2026-08-28T17:54:15Z</time>
  <course>59.16</course>
  <speed>2.53</speed>
  <fix>3d</fix>
</trkpt>
<trkpt lat="40.0713661" lon="-105.2297617">
  <ele>1582.93</ele>
  <time>2026-08-28T17:54:15Z</time>
  <course>60.61</course>
  <speed>2.846928169097352</speed>
  <fix>3d</fix>
</trkpt>
<trkpt lat="40.0713645" lon="-105.2297652">
  <ele>1583.0</ele>
  <time>2026-08-28T17:54:15Z</time>
  <course>59.29</course>
  <speed>2.73</speed>
  <fix>3d</fix>
</trkpt>
<trkpt lat="40.0713675" lon="-105.2297588">
  <ele>1582.93</ele>
  <time>2026-08-28T17:54:15Z</time>
  <course>60.73</course>
  <speed>2.9447750338523315</speed>
  <fix>3d</fix>
</trkpt>
<trkpt lat="40.0713645" lon="-105.2297652">
  <ele>1583.0</ele>
  <time>2026-08-28T17:54:15Z</time>
  <course>59.29</course>
  <speed>2.73</speed>
  <fix>3d</fix>
</trkpt>
<trkpt lat="40.0713688" lon="-105.2297557">
  <ele>1582.93</ele>
  <time>2026-08-28T17:54:15Z</time>
  <course>60.85</course>
  <speed>3.0477040538739977</speed>
  <fix>3d</fix>
</trkpt>
<trkpt lat="40.0713671" lon="-105.2297594">
  <ele>1583.0</ele>
  <time>2026-08-28T17:54:15Z</time>
  <course>59.5</course>
  <speed>2.94</speed>
  <fix>3d</fix>
</trkpt>
<trkpt lat="40.0713702" lon="-105.2297525">
  <ele>1582.93</ele>
  <time>2026-08-28T17:54:15Z</time>
  <course>60.97</course>
  <speed>3.145600101729398</speed>
  <fix>3d</fix>
</trkpt>
<trkpt lat="40.0713671" lon="-105.2297594">
  <ele>1583.0</ele>
  <time>2026-08-28T17:54:15Z</time>
  <course>59.5</course>
  <speed>2.94</speed>
  <fix>3d</fix>
</trkpt>
<trkpt lat="40.0713717" lon="-105.2297492">
  <ele>1582.93</ele>
  <time>2026-08-28T17:54:15Z</time>
  <course>61.1</course>
  <speed>3.252199255888237</speed>
  <fix>3d</fix>
</trkpt>
<trkpt lat="40.0713698" lon="-105.2297533">
  <ele>1583.0</ele>
  <time>2026-08-28T17:54:15Z</time>
  <course>59.75</course>
  <speed>3.14</speed>
  <fix>3d</fix>
</trkpt>
<trkpt lat="40.0713735" lon="-105.2297451">
  <ele>1582.93</ele>
  <time>2026-08-28T17:54:15Z</time>
  <course>61.26</course>
  <speed>3.3638222307369334</speed>
  <fix>3d</fix>
</trkpt>
<trkpt lat="40.0713698" lon="-105.2297533">
  <ele>1583.0</ele>
  <time>2026-08-28T17:54:15Z</time>
  <course>59.75</course>
  <speed>3.14</speed>
  <fix>3d</fix>
</trkpt>
<trkpt lat="40.071375" lon="-105.2297415">
  <ele>1582.93</ele>
  <time>2026-08-28T17:54:15Z</time>
  <course>61.4</course>
  <speed>3.4618203304042225</speed>
  <fix>3d</fix>
</trkpt>
<trkpt lat="40.0713727" lon="-105.2297466">
  <ele>1583.0</ele>
  <time>2026-08-28T17:54:15Z</time>
  <course>60.01</course>
  <speed>3.33</speed>
  <fix>3d</fix>
</trkpt>
<trkpt lat="40.0713766" lon="-105.2297379">
  <ele>1582.92</ele>
  <time>2026-08-28T17:54:15Z</time>
  <course>61.55</course>
  <speed>3.559845502265513</speed>
  <fix>3d</fix>
</trkpt>
<trkpt lat="40.0713727" lon="-105.2297466">
  <ele>1583.0</ele>
  <time>2026-08-28T17:54:15Z</time>
  <course>60.01</course>
  <speed>3.33</speed>
  <fix>3d</fix>
</trkpt>
<trkpt lat="40.0713782" lon="-105.2297342">
  <ele>1582.92</ele>
  <time>2026-08-28T17:54:15Z</time>
  <course>61.69</course>
  <speed>3.6578955698598064</speed>
  <fix>3d</fix>
</trkpt>
<trkpt lat="40.0713758" lon="-105.2297397">
  <ele>1583.0</ele>
  <time>2026-08-28T17:54:15Z</time>
  <course>60.3</course>
  <speed>3.53</speed>
  <fix>3d</fix>
</trkpt>
<trkpt lat="40.0713799" lon="-105.2297303">
  <ele>1582.92</ele>
  <time>2026-08-28T17:54:15Z</time>
  <course>61.84</course>
  <speed>3.7559685834681846</speed>
  <fix>3d</fix>
</trkpt>
<trkpt lat="40.0713758" lon="-105.2297397">
  <ele>1583.0</ele>
  <time>2026-08-28T17:54:15Z</time>
  <course>60.3</course>
  <speed>3.53</speed>
  <fix>3d</fix>
</trkpt>
<trkpt lat="40.0713815" lon="-105.2297264">
  <ele>1582.92</ele>
  <time>2026-08-28T17:54:15Z</time>
  <course>61.99</course>
  <speed>3.8404687213932625</speed>
  <fix>3d</fix>
</trkpt>
<trkpt lat="40.0713791" lon="-105.2297323">
  <ele>1583.0</ele>
  <time>2026-08-28T17:54:15Z</time>
  <course>60.6</course>
  <speed>3.71</speed>
  <fix>3d</fix>
</trkpt>
<trkpt lat="40.0713832" lon="-105.2297224">
  <ele>1582.92</ele>
  <time>2026-08-28T17:54:15Z</time>
  <course>62.15</course>
  <speed>3.9337768111574407</speed>
  <fix>3d</fix>
</trkpt>
<trkpt lat="40.0713791" lon="-105.2297323">
  <ele>1583.0</ele>
  <time>2026-08-28T17:54:15Z</time>
  <course>60.6</course>
  <speed>3.71</speed>
  <fix>3d</fix>
</trkpt>
<trkpt lat="40.0713849" lon="-105.2297183">
  <ele>1582.92</ele>
  <time>2026-08-28T17:54:15Z</time>
  <course>62.31</course>
  <speed>4.023157963590294</speed>
  <fix>3d</fix>
</trkpt>
<trkpt lat="40.0713825" lon="-105.2297245">
  <ele>1583.0</ele>
  <time>2026-08-28T17:54:15Z</time>
  <course>60.91</course>
  <speed>3.9</speed>
  <fix>3d</fix>
</trkpt>
<trkpt lat="40.0713867" lon="-105.2297141">
  <ele>1582.92</ele>
  <time>2026-08-28T17:54:15Z</time>
  <course>62.47</course>
  <speed>4.11655195521689</speed>
  <fix>3d</fix>
</trkpt>
<trkpt lat="40.0713825" lon="-105.2297245">
  <ele>1583.0</ele>
  <time>2026-08-28T17:54:15Z</time>
  <course>60.91</course>
  <speed>3.9</speed>
  <fix>3d</fix>
</trkpt>
<trkpt lat="40.0713885" lon="-105.2297099">
  <ele>1582.92</ele>
  <time>2026-08-28T17:54:15Z</time>
  <course>62.64</course>
  <speed>4.201202208892116</speed>
  <fix>3d</fix>
</trkpt>
<trkpt lat="40.0713859" lon="-105.2297163">
  <ele>1583.0</ele>
  <time>2026-08-28T17:54:15Z</time>
  <course>61.23</course>
  <speed>4.08</speed>
  <fix>3d</fix>
</trkpt>
<trkpt lat="40.0713903" lon="-105.2297055">
  <ele>1582.92</ele>
  <time>2026-08-28T17:54:15Z</time>
  <course>62.81</course>
  <speed>4.294706043491219</speed>
  <fix>3d</fix>
</trkpt>
<trkpt lat="40.0713859" lon="-105.2297163">
  <ele>1583.0</ele>
  <time>2026-08-28T17:54:15Z</time>
  <course>61.23</course>
  <speed>4.08</speed>
  <fix>3d</fix>
</trkpt>
<trkpt lat="40.0713921" lon="-105.229701">
  <ele>1582.91</ele>
  <time>2026-08-28T17:54:15Z</time>
  <course>62.99</course>
  <speed>4.379429186549316</speed>
  <fix>3d</fix>
</trkpt>
<trkpt lat="40.0713894" lon="-105.2297077">
  <ele>1583.0</ele>
  <time>2026-08-28T17:54:15Z</time>
  <course>61.57</course>
  <speed>4.27</speed>
  <fix>3d</fix>
</trkpt>
<trkpt lat="40.071394" lon="-105.2296964">
  <ele>1582.91</ele>
  <time>2026-08-28T17:54:15Z</time>
  <course>63.17</course>
  <speed>4.473030292765745</speed>
  <fix>3d</fix>
</trkpt>
<trkpt lat="40.0713894" lon="-105.2297077">
  <ele>1583.0</ele>
  <time>2026-08-28T17:54:15Z</time>
  <course>61.57</course>
  <speed>4.27</speed>
  <fix>3d</fix>
</trkpt>
<trkpt lat="40.0713955" lon="-105.2296927">
  <ele>1582.91</ele>
  <time>2026-08-28T17:54:15Z</time>
  <course>63.31</course>
  <speed>4.544326132662575</speed>
  <fix>3d</fix>
</trkpt>
<trkpt lat="40.0713931" lon="-105.2296986">
  <ele>1583.0</ele>
  <time>2026-08-28T17:54:15Z</time>
  <course>61.93</course>
  <speed>4.45</speed>
  <fix>3d</fix>
</trkpt>
<trkpt lat="40.0713974" lon="-105.2296879">
  <ele>1582.91</ele>
  <time>2026-08-28T17:54:15Z</time>
  <course>63.46</course>
  <speed>4.642628565801921</speed>
  <fix>3d</fix>
</trkpt>
<trkpt lat="40.0713931" lon="-105.2296986">
  <ele>1583.0</ele>
  <time>2026-08-28T17:54:15Z</time>
  <course>61.93</course>
  <speed>4.45</speed>
  <fix>3d</fix>
</trkpt>
<trkpt lat="40.0713993" lon="-105.229683">
  <ele>1582.91</ele>
  <time>2026-08-28T17:54:15Z</time>
  <course>63.58</course>
  <speed>4.736348804722895</speed>
  <fix>3d</fix>
</trkpt>
<trkpt lat="40.071397" lon="-105.2296892">
  <ele>1583.0</ele>
  <time>2026-08-28T17:54:15Z</time>
  <course>62.25</course>
  <speed>4.64</speed>
  <fix>3d</fix>
</trkpt>
<trkpt lat="40.0714013" lon="-105.229678">
  <ele>1582.91</ele>
  <time>2026-08-28T17:54:15Z</time>
  <course>63.7</course>
  <speed>4.830113870293329</speed>
  <fix>3d</fix>
</trkpt>
<trkpt lat="40.071397" lon="-105.2296892">
  <ele>1583.0</ele>
  <time>2026-08-28T17:54:15Z</time>
  <course>62.25</course>
  <speed>4.64</speed>
  <fix>3d</fix>
</trkpt>
<trkpt lat="40.0714033" lon="-105.2296729">
  <ele>1582.91</ele>
  <time>2026-08-28T17:54:15Z</time>
  <course>63.83</course>
  <speed>4.915007629699063</speed>
  <fix>3d</fix>
</trkpt>
<trkpt lat="40.0714009" lon="-105.2296793">
  <ele>1583.0</ele>
  <time>2026-08-28T17:54:15Z</time>
  <course>62.51</course>
  <speed>4.83</speed>
  <fix>3d</fix>
</trkpt>
<trkpt lat="40.0714054" lon="-105.2296676">
  <ele>1582.91</ele>
  <time>2026-08-28T17:54:15Z</time>
  <course>63.95</course>
  <speed>5.008842181582486</speed>
  <fix>3d</fix>
</trkpt>
<trkpt lat="40.0714009" lon="-105.2296793">
  <ele>1583.0</ele>
  <time>2026-08-28T17:54:15Z</time>
  <course>62.51</course>
  <speed>4.83</speed>
  <fix>3d</fix>
</trkpt>
<trkpt lat="40.0714075" lon="-105.2296623">
  <ele>1582.9</ele>
  <time>2026-08-28T17:54:15Z</time>
  <course>64.08</course>
  <speed>5.0937805213809515</speed>
  <fix>3d</fix>
</trkpt>
<trkpt lat="40.071405" lon="-105.229669">
  <ele>1583.0</ele>
  <time>2026-08-28T17:54:15Z</time>
  <course>62.78</course>
  <speed>5.01</speed>
  <fix>3d</fix>
</trkpt>
<trkpt lat="40.07141" lon="-105.2296557">
  <ele>1582.9</ele>
  <time>2026-08-28T17:54:15Z</time>
  <course>64.24</course>
  <speed>5.187677707799512</speed>
  <fix>3d</fix>
</trkpt>
<trkpt lat="40.071405" lon="-105.229669">
  <ele>1583.0</ele>
  <time>2026-08-28T17:54:15Z</time>
  <course>62.78</course>
  <speed>5.01</speed>
  <fix>3d</fix>
</trkpt>
<trkpt lat="40.0714122" lon="-105.2296501">
  <ele>1582.91</ele>
  <time>2026-08-28T17:54:15Z</time>
  <course>64.34</course>
  <speed>5.250295229794226</speed>
  <fix>3d</fix>
</trkpt>
<trkpt lat="40.0714092" lon="-105.2296584">
  <ele>1583.0</ele>
  <time>2026-08-28T17:54:15Z</time>
  <course>63.04</course>
  <speed>5.16</speed>
  <fix>3d</fix>
</trkpt>
<trkpt lat="40.0714143" lon="-105.2296445">
  <ele>1582.91</ele>
  <time>2026-08-28T17:54:15Z</time>
  <course>64.44</course>
  <speed>5.299528280894442</speed>
  <fix>3d</fix>
</trkpt>
<trkpt lat="40.0714092" lon="-105.2296584">
  <ele>1583.0</ele>
  <time>2026-08-28T17:54:15Z</time>
  <course>63.04</course>
  <speed>5.16</speed>
  <fix>3d</fix>
</trkpt>
<trkpt lat="40.0714165" lon="-105.2296389">
  <ele>1582.91</ele>
  <time>2026-08-28T17:54:15Z</time>
  <course>64.53</course>
  <speed>5.330853590186097</speed>
  <fix>3d</fix>
</trkpt>
<trkpt lat="40.0714134" lon="-105.2296474">
  <ele>1583.0</ele>
  <time>2026-08-28T17:54:15Z</time>
  <course>63.27</course>
  <speed>5.28</speed>
  <fix>3d</fix>
</trkpt>
<trkpt lat="40.0714186" lon="-105.2296332">
  <ele>1582.91</ele>
  <time>2026-08-28T17:54:15Z</time>
  <course>64.59</course>
  <speed>5.362182391526793</speed>
  <fix>3d</fix>
</trkpt>
<trkpt lat="40.0714134" lon="-105.2296474">
  <ele>1583.0</ele>
  <time>2026-08-28T17:54:15Z</time>
  <course>63.27</course>
  <speed>5.28</speed>
  <fix>3d</fix>
</trkpt>
<trkpt lat="40.0714208" lon="-105.2296275">
  <ele>1582.91</ele>
  <time>2026-08-28T17:54:15Z</time>
  <course>64.68</course>
  <speed>5.371154438293503</speed>
  <fix>3d</fix>
</trkpt>
<trkpt lat="40.0714177" lon="-105.2296363">
  <ele>1583.0</ele>
  <time>2026-08-28T17:54:15Z</time>
  <course>63.45</course>
  <speed>5.34</speed>
  <fix>3d</fix>
</trkpt>
<trkpt lat="40.0714229" lon="-105.2296219">
  <ele>1582.91</ele>
  <time>2026-08-28T17:54:15Z</time>
  <course>64.78</course>
  <speed>5.375732508226204</speed>
  <fix>3d</fix>
</trkpt>
<trkpt lat="40.0714177" lon="-105.2296363">
  <ele>1583.0</ele>
  <time>2026-08-28T17:54:15Z</time>
  <course>63.45</course>
  <speed>5.34</speed>
  <fix>3d</fix>
</trkpt>
<trkpt lat="40.0714251" lon="-105.2296163">
  <ele>1582.91</ele>
  <time>2026-08-28T17:54:15Z</time>
  <course>64.88</course>
  <speed>5.362359555270421</speed>
  <fix>3d</fix>
</trkpt>
<trkpt lat="40.071422" lon="-105.229625">
  <ele>1583.0</ele>
  <time>2026-08-28T17:54:15Z</time>
  <course>63.62</course>
  <speed>5.36</speed>
  <fix>3d</fix>
</trkpt>
<trkpt lat="40.0714272" lon="-105.2296107">
  <ele>1582.91</ele>
  <time>2026-08-28T17:54:15Z</time>
  <course>64.97</course>
  <speed>5.348990558974656</speed>
  <fix>3d</fix>
</trkpt>
<trkpt lat="40.071422" lon="-105.229625">
  <ele>1583.0</ele>
  <time>2026-08-28T17:54:15Z</time>
  <course>63.62</course>
  <speed>5.36</speed>
  <fix>3d</fix>
</trkpt>
<trkpt lat="40.0714293" lon="-105.2296051">
  <ele>1582.9</ele>
  <time>2026-08-28T17:54:15Z</time>
  <course>65.09</course>
  <speed>5.331266266094763</speed>
  <fix>3d</fix>
</trkpt>
<trkpt lat="40.0714263" lon="-105.2296137">
  <ele>1583.0</ele>
  <time>2026-08-28T17:54:15Z</time>
  <course>63.83</course>
  <speed>5.35</speed>
  <fix>3d</fix>
</trkpt>
<trkpt lat="40.0714314" lon="-105.2295995">
  <ele>1582.9</ele>
  <time>2026-08-28T17:54:15Z</time>
  <course>65.21</course>
  <speed>5.304564072569961</speed>
  <fix>3d</fix>
</trkpt>
<trkpt lat="40.0714263" lon="-105.2296137">
  <ele>1583.0</ele>
  <time>2026-08-28T17:54:15Z</time>
  <course>63.83</course>
  <speed>5.35</speed>
  <fix>3d</fix>
</trkpt>
<trkpt lat="40.0714334" lon="-105.229594">
  <ele>1582.9</ele>
  <time>2026-08-28T17:54:15Z</time>
  <course>65.3</course>
  <speed>5.277878361614637</speed>
  <fix>3d</fix>
</trkpt>
<trkpt lat="40.0714305" lon="-105.2296024">
  <ele>1583.0</ele>
  <time>2026-08-28T17:54:15Z</time>
  <course>64.04</course>
  <speed>5.32</speed>
  <fix>3d</fix>
</trkpt>
<trkpt lat="40.0714355" lon="-105.2295884">
  <ele>1582.9</ele>
  <time>2026-08-28T17:54:15Z</time>
  <course>65.43</course>
  <speed>5.251209384513247</speed>
  <fix>3d</fix>
</trkpt>
<trkpt lat="40.0714305" lon="-105.2296024">
  <ele>1583.0</ele>
  <time>2026-08-28T17:54:15Z</time>
  <course>64.04</course>
  <speed>5.32</speed>
  <fix>3d</fix>
</trkpt>
<trkpt lat="40.0714371" lon="-105.229584">
  <ele>1582.9</ele>
  <time>2026-08-28T17:54:15Z</time>
  <course>65.5</course>
  <speed>5.228852646613786</speed>
  <fix>3d</fix>
</trkpt>
<trkpt lat="40.0714347" lon="-105.2295912">
  <ele>1583.0</ele>
  <time>2026-08-28T17:54:15Z</time>
  <course>64.24</course>
  <speed>5.28</speed>
  <fix>3d</fix>
</trkpt>
<trkpt lat="40.0714391" lon="-105.2295785">
  <ele>1582.9</ele>
  <time>2026-08-28T17:54:15Z</time>
  <course>65.6</course>
  <speed>5.202201457075648</speed>
  <fix>3d</fix>
</trkpt>
<trkpt lat="40.0714347" lon="-105.2295912">
  <ele>1583.0</ele>
  <time>2026-08-28T17:54:15Z</time>
  <course>64.24</course>
  <speed>5.28</speed>
  <fix>3d</fix>
</trkpt>
<trkpt lat="40.0714412" lon="-105.2295729">
  <ele>1582.9</ele>
  <time>2026-08-28T17:54:15Z</time>
  <course>65.71</course>
  <speed>5.175567601722539</speed>
  <fix>3d</fix>
</trkpt>
<trkpt lat="40.0714387" lon="-105.2295801">
  <ele>1583.0</ele>
  <time>2026-08-28T17:54:15Z</time>
  <course>64.46</course>
  <speed>5.23</speed>
  <fix>3d</fix>
</trkpt>
<trkpt lat="40.0714432" lon="-105.2295674">
  <ele>1582.89</ele>
  <time>2026-08-28T17:54:15Z</time>
  <course>65.81</course>
  <speed>5.1489513495468175</speed>
  <fix>3d</fix>
</trkpt>
<trkpt lat="40.0714387" lon="-105.2295801">
  <ele>1583.0</ele>
  <time>2026-08-28T17:54:15Z</time>
  <course>64.46</course>
  <speed>5.23</speed>
  <fix>3d</fix>
</trkpt>
<trkpt lat="40.0714451" lon="-105.229562">
  <ele>1582.89</ele>
  <time>2026-08-28T17:54:15Z</time>
  <course>65.89</course>
  <speed>5.122352974952039</speed>
  <fix>3d</fix>
</trkpt>
<trkpt lat="40.0714428" lon="-105.229569">
  <ele>1583.0</ele>
  <time>2026-08-28T17:54:15Z</time>
  <course>64.66</course>
  <speed>5.18</speed>
  <fix>3d</fix>
</trkpt>
<trkpt lat="40.0714471" lon="-105.2295565">
  <ele>1582.89</ele>
  <time>2026-08-28T17:54:15Z</time>
  <course>65.99</course>
  <speed>5.1</speed>
  <fix>3d</fix>
</trkpt>
<trkpt lat="40.0714428" lon="-105.229569">
  <ele>1583.0</ele>
  <time>2026-08-28T17:54:15Z</time>
  <course>64.66</course>
  <speed>5.18</speed>
  <fix>3d</fix>
</trkpt>
<trkpt lat="40.0714491" lon="-105.2295511">
  <ele>1582.89</ele>
  <time>2026-08-28T17:54:15Z</time>
  <course>66.06</course>
  <speed>5.08248954745605</speed>
  <fix>3d</fix>
</trkpt>
<trkpt lat="40.0714467" lon="-105.2295581">
  <ele>1583.0</ele>
  <time>2026-08-28T17:54:15Z</time>
  <course>64.84</course>
  <speed>5.13</speed>
  <fix>3d</fix>
</trkpt>
<trkpt lat="40.071451" lon="-105.2295456">
  <ele>1582.89</ele>
  <time>2026-08-28T17:54:15Z</time>
  <course>66.15</course>
  <speed>5.0601383380299</speed>
  <fix>3d</fix>
</trkpt>
<trkpt lat="40.0714467" lon="-105.2295581">
  <ele>1583.0</ele>
  <time>2026-08-28T17:54:15Z</time>
  <course>64.84</course>
  <speed>5.13</speed>
  <fix>3d</fix>
</trkpt>
<trkpt lat="40.0714534" lon="-105.2295391">
  <ele>1582.88</ele>
  <time>2026-08-28T17:54:15Z</time>
  <course>66.25</course>
  <speed>5.033587190066345</speed>
  <fix>3d</fix>
</trkpt>
<trkpt lat="40.0714506" lon="-105.2295473">
  <ele>1583.0</ele>
  <time>2026-08-28T17:54:15Z</time>
  <course>65.02</course>
  <speed>5.09</speed>
  <fix>3d</fix>
</trkpt>
<trkpt lat="40.0714553" lon="-105.2295337">
  <ele>1582.88</ele>
  <time>2026-08-28T17:54:15Z</time>
  <course>66.31</course>
  <speed>5.020318714982148</speed>
  <fix>3d</fix>
</trkpt>
<trkpt lat="40.0714506" lon="-105.2295473">
  <ele>1583.0</ele>
  <time>2026-08-28T17:54:15Z</time>
  <course>65.02</course>
  <speed>5.09</speed>
  <fix>3d</fix>
</trkpt>
<trkpt lat="40.0714572" lon="-105.2295283">
  <ele>1582.88</ele>
  <time>2026-08-28T17:54:15Z</time>
  <course>66.39</course>
  <speed>5.0028891652724035</speed>
  <fix>3d</fix>
</trkpt>
<trkpt lat="40.0714545" lon="-105.2295365">
  <ele>1583.0</ele>
  <time>2026-08-28T17:54:15Z</time>
  <course>65.18</course>
  <speed>5.05</speed>
  <fix>3d</fix>
</trkpt>
<trkpt lat="40.0714591" lon="-105.2295229">
  <ele>1582.87</ele>
  <time>2026-08-28T17:54:15Z</time>
  <course>66.46</course>
  <speed>4.989639265518099</speed>
  <fix>3d</fix>
</trkpt>
<trkpt lat="40.0714545" lon="-105.2295365">
  <ele>1583.0</ele>
  <time>2026-08-28T17:54:15Z</time>
  <course>65.18</course>
  <speed>5.05</speed>
  <fix>3d</fix>
</trkpt>
<trkpt lat="40.071461" lon="-105.2295176">
  <ele>1582.87</ele>
  <time>2026-08-28T17:54:15Z</time>
  <course>66.52</course>
  <speed>4.97639427698409</speed>
  <fix>3d</fix>
</trkpt>
<trkpt lat="40.0714582" lon="-105.2295257">
  <ele>1583.0</ele>
  <time>2026-08-28T17:54:15Z</time>
  <course>65.33</course>
  <speed>5.02</speed>
  <fix>3d</fix>
</trkpt>
<trkpt lat="40.0714628" lon="-105.2295123">
  <ele>1582.87</ele>
  <time>2026-08-28T17:54:15Z</time>
  <course>66.59</course>
  <speed>4.963154238989556</speed>
  <fix>3d</fix>
</trkpt>
<trkpt lat="40.0714582" lon="-105.2295257">
  <ele>1583.0</ele>
  <time>2026-08-28T17:54:15Z</time>
  <course>65.33</course>
  <speed>5.02</speed>
  <fix>3d</fix>
</trkpt>
<trkpt lat="40.0714647" lon="-105.229507">
  <ele>1582.87</ele>
  <time>2026-08-28T17:54:15Z</time>
  <course>66.66</course>
  <speed>4.949919191259591</speed>
  <fix>3d</fix>
</trkpt>
<trkpt lat="40.071462" lon="-105.229515">
  <ele>1583.0</ele>
  <time>2026-08-28T17:54:15Z</time>
  <course>65.46</course>
  <speed>5.0</speed>
  <fix>3d</fix>
</trkpt>
<trkpt lat="40.0714665" lon="-105.2295017">
  <ele>1582.88</ele>
  <time>2026-08-28T17:54:15Z</time>
  <course>66.73</course>
  <speed>4.945806304335017</speed>
  <fix>3d</fix>
</trkpt>
<trkpt lat="40.071462" lon="-105.229515">
  <ele>1583.0</ele>
  <time>2026-08-28T17:54:15Z</time>
  <course>65.46</course>
  <speed>5.0</speed>
  <fix>3d</fix>
</trkpt>
<trkpt lat="40.0714683" lon="-105.2294964">
  <ele>1582.88</ele>
  <time>2026-08-28T17:54:15Z</time>
  <course>66.8</course>
  <speed>4.936689173930237</speed>
  <fix>3d</fix>
</trkpt>
<trkpt lat="40.0714657" lon="-105.2295043">
  <ele>1583.0</ele>
  <time>2026-08-28T17:54:15Z</time>
  <course>65.6</course>
  <speed>4.99</speed>
  <fix>3d</fix>
</trkpt>
<trkpt lat="40.0714701" lon="-105.2294912">
  <ele>1582.88</ele>
  <time>2026-08-28T17:54:15Z</time>
  <course>66.87</course>
  <speed>4.932585528908748</speed>
  <fix>3d</fix>
</trkpt>
<trkpt lat="40.0714657" lon="-105.2295043">
  <ele>1583.0</ele>
  <time>2026-08-28T17:54:15Z</time>
  <course>65.6</course>
  <speed>4.99</speed>
  <fix>3d</fix>
</trkpt>
<trkpt lat="40.071472" lon="-105.2294859">
  <ele>1582.88</ele>
  <time>2026-08-28T17:54:15Z</time>
  <course>66.94</course>
  <speed>4.928498757228209</speed>
  <fix>3d</fix>
</trkpt>
<trkpt lat="40.0714694" lon="-105.2294936">
  <ele>1583.0</ele>
  <time>2026-08-28T17:54:15Z</time>
  <course>65.73</course>
  <speed>4.98</speed>
  <fix>3d</fix>
</trkpt>
<trkpt lat="40.0714738" lon="-105.2294806">
  <ele>1582.88</ele>
  <time>2026-08-28T17:54:15Z</time>
  <course>67.01</course>
  <speed>4.928498757228209</speed>
  <fix>3d</fix>
</trkpt>
<trkpt lat="40.0714694" lon="-105.2294936">
  <ele>1583.0</ele>
  <time>2026-08-28T17:54:15Z</time>
  <course>65.73</course>
  <speed>4.98</speed>
  <fix>3d</fix>
</trkpt>
<trkpt lat="40.0714756" lon="-105.2294753">
  <ele>1582.88</ele>
  <time>2026-08-28T17:54:15Z</time>
  <course>67.07</course>
  <speed>4.933568688079655</speed>
  <fix>3d</fix>
</trkpt>
<trkpt lat="40.0714731" lon="-105.2294829">
  <ele>1583.0</ele>
  <time>2026-08-28T17:54:15Z</time>
  <course>65.87</course>
  <speed>4.98</speed>
  <fix>3d</fix>
</trkpt>
<trkpt lat="40.071477" lon="-105.2294711">
  <ele>1582.88</ele>
  <time>2026-08-28T17:54:15Z</time>
  <course>67.13</course>
  <speed>4.933568688079655</speed>
  <fix>3d</fix>
</trkpt>
<trkpt lat="40.0714731" lon="-105.2294829">
  <ele>1583.0</ele>
  <time>2026-08-28T17:54:15Z</time>
  <course>65.87</course>
  <speed>4.98</speed>
  <fix>3d</fix>
</trkpt>
<trkpt lat="40.0714788" lon="-105.2294658">
  <ele>1582.88</ele>
  <time>2026-08-28T17:54:15Z</time>
  <course>67.2</course>
  <speed>4.9386739110818</speed>
  <fix>3d</fix>
</trkpt>
<trkpt lat="40.0714767" lon="-105.2294723">
  <ele>1583.0</ele>
  <time>2026-08-28T17:54:15Z</time>
  <course>66.0</course>
  <speed>4.99</speed>
  <fix>3d</fix>
</trkpt>
<trkpt lat="40.0714806" lon="-105.2294604">
  <ele>1582.88</ele>
  <time>2026-08-28T17:54:15Z</time>
  <course>67.26</course>
  <speed>4.9386739110818</speed>
  <fix>3d</fix>
</trkpt>
<trkpt lat="40.0714767" lon="-105.2294723">
  <ele>1583.0</ele>
  <time>2026-08-28T17:54:15Z</time>
  <course>66.0</course>
  <speed>4.99</speed>
  <fix>3d</fix>
</trkpt>
<trkpt lat="40.0714824" lon="-105.2294551">
  <ele>1582.88</ele>
  <time>2026-08-28T17:54:15Z</time>
  <course>67.33</course>
  <speed>4.943814316901475</speed>
  <fix>3d</fix>
</trkpt>
<trkpt lat="40.0714804" lon="-105.2294616">
  <ele>1583.0</ele>
  <time>2026-08-28T17:54:15Z</time>
  <course>66.14</course>
  <speed>5.0</speed>
  <fix>3d</fix>
</trkpt>
<trkpt lat="40.0714843" lon="-105.2294497">
  <ele>1582.87</ele>
  <time>2026-08-28T17:54:15Z</time>
  <course>67.39</course>
  <speed>4.952978901630815</speed>
  <fix>3d</fix>
</trkpt>
<trkpt lat="40.0714804" lon="-105.2294616">
  <ele>1583.0</ele>
  <time>2026-08-28T17:54:15Z</time>
  <course>66.14</course>
  <speed>5.0</speed>
  <fix>3d</fix>
</trkpt>
<trkpt lat="40.0714861" lon="-105.2294443">
  <ele>1582.87</ele>
  <time>2026-08-28T17:54:15Z</time>
  <course>67.46</course>
  <speed>4.96214671286531</speed>
  <fix>3d</fix>
</trkpt>
<trkpt lat="40.071484" lon="-105.2294508">
  <ele>1583.0</ele>
  <time>2026-08-28T17:54:15Z</time>
  <course>66.28</course>
  <speed>5.01</speed>
  <fix>3d</fix>
</trkpt>
<trkpt lat="40.0714879" lon="-105.2294388">
  <ele>1582.87</ele>
  <time>2026-08-28T17:54:15Z</time>
  <course>67.52</course>
  <speed>4.971317732754566</speed>
  <fix>3d</fix>
</trkpt>
<trkpt lat="40.071484" lon="-105.2294508">
  <ele>1583.0</ele>
  <time>2026-08-28T17:54:15Z</time>
  <course>66.28</course>
  <speed>5.01</speed>
  <fix>3d</fix>
</trkpt>
<trkpt lat="40.0714897" lon="-105.2294334">
  <ele>1582.87</ele>
  <time>2026-08-28T17:54:15Z</time>
  <course>67.59</course>
  <speed>4.976524891930111</speed>
  <fix>3d</fix>
</trkpt>
<trkpt lat="40.0714876" lon="-105.2294399">
  <ele>1583.0</ele>
  <time>2026-08-28T17:54:15Z</time>
  <course>66.41</course>
  <speed>5.02</speed>
  <fix>3d</fix>
</trkpt>
<trkpt lat="40.0714919" lon="-105.2294268">
  <ele>1582.87</ele>
  <time>2026-08-28T17:54:15Z</time>
  <course>67.67</course>
  <speed>4.9857095783850065</speed>
  <fix>3d</fix>
</trkpt>
<trkpt lat="40.0714876" lon="-105.2294399">
  <ele>1583.0</ele>
  <time>2026-08-28T17:54:15Z</time>
  <course>66.41</course>
  <speed>5.02</speed>
  <fix>3d</fix>
</trkpt>
<trkpt lat="40.0714937" lon="-105.2294213">
  <ele>1582.87</ele>
  <time>2026-08-28T17:54:15Z</time>
  <course>67.73</course>
  <speed>4.9817667548772295</speed>
  <fix>3d</fix>
</trkpt>
<trkpt lat="40.0714911" lon="-105.2294292">
  <ele>1583.0</ele>
  <time>2026-08-28T17:54:15Z</time>
  <course>66.55</course>
  <speed>5.03</speed>
  <fix>3d</fix>
</trkpt>
<trkpt lat="40.0714955" lon="-105.2294159">
  <ele>1582.87</ele>
  <time>2026-08-28T17:54:15Z</time>
  <course>67.77</course>
  <speed>4.9909618311503845</speed>
  <fix>3d</fix>
</trkpt>
<trkpt lat="40.0714911" lon="-105.2294292">
  <ele>1583.0</ele>
  <time>2026-08-28T17:54:15Z</time>
  <course>66.55</course>
  <speed>5.03</speed>
  <fix>3d</fix>
</trkpt>
<trkpt lat="40.0714973" lon="-105.2294104">
  <ele>1582.87</ele>
  <time>2026-08-28T17:54:15Z</time>
  <course>67.8</course>
  <speed>4.9909618311503845</speed>
  <fix>3d</fix>
</trkpt>
<trkpt lat="40.0714947" lon="-105.2294183">
  <ele>1583.0</ele>
  <time>2026-08-28T17:54:15Z</time>
  <course>66.65</course>
  <speed>5.03</speed>
  <fix>3d</fix>
</trkpt>
<trkpt lat="40.0714991" lon="-105.2294049">
  <ele>1582.87</ele>
  <time>2026-08-28T17:54:15Z</time>
  <course>67.82</course>
  <speed>5.000159997440082</speed>
  <fix>3d</fix>
</trkpt>
<trkpt lat="40.0714947" lon="-105.2294183">
  <ele>1583.0</ele>
  <time>2026-08-28T17:54:15Z</time>
  <course>66.65</course>
  <speed>5.03</speed>
  <fix>3d</fix>
</trkpt>
<trkpt lat="40.0715009" lon="-105.2293994">
  <ele>1582.88</ele>
  <time>2026-08-28T17:54:15Z</time>
  <course>67.85</course>
  <speed>5.000159997440082</speed>
  <fix>3d</fix>
</trkpt>
<trkpt lat="40.0714983" lon="-105.2294074">
  <ele>1583.0</ele>
  <time>2026-08-28T17:54:15Z</time>
  <course>66.72</course>
  <speed>5.04</speed>
  <fix>3d</fix>
</trkpt>
<trkpt lat="40.0715026" lon="-105.229394">
  <ele>1582.88</ele>
  <time>2026-08-28T17:54:15Z</time>
  <course>67.88</course>
  <speed>4.9962485926943225</speed>
  <fix>3d</fix>
</trkpt>
<trkpt lat="40.0714983" lon="-105.2294074">
  <ele>1583.0</ele>
  <time>2026-08-28T17:54:15Z</time>
  <course>66.72</course>
  <speed>5.04</speed>
  <fix>3d</fix>
</trkpt>
<trkpt lat="40.0715044" lon="-105.2293886">
  <ele>1582.88</ele>
  <time>2026-08-28T17:54:15Z</time>
  <course>67.88</course>
  <speed>5.00545702209099</speed>
  <fix>3d</fix>
</trkpt>
<trkpt lat="40.0715019" lon="-105.2293965">
  <ele>1583.0</ele>
  <time>2026-08-28T17:54:15Z</time>
  <course>66.77</course>
  <speed>5.04</speed>
  <fix>3d</fix>
</trkpt>
<trkpt lat="40.0715062" lon="-105.2293832">
  <ele>1582.88</ele>
  <time>2026-08-28T17:54:15Z</time>
  <course>67.91</course>
  <speed>5.00545702209099</speed>
  <fix>3d</fix>
</trkpt>
<trkpt lat="40.0715019" lon="-105.2293965">
  <ele>1583.0</ele>
  <time>2026-08-28T17:54:15Z</time>
  <course>66.77</course>
  <speed>5.04</speed>
  <fix>3d</fix>
</trkpt>
<trkpt lat="40.0715079" lon="-105.2293778">
  <ele>1582.88</ele>
  <time>2026-08-28T17:54:15Z</time>
  <course>67.93</course>
  <speed>5.00545702209099</speed>
  <fix>3d</fix>
</trkpt>
<trkpt lat="40.0715055" lon="-105.2293856">
  <ele>1583.0</ele>
  <time>2026-08-28T17:54:15Z</time>
  <course>66.79</course>
  <speed>5.04</speed>
  <fix>3d</fix>
</trkpt>
<trkpt lat="40.0715097" lon="-105.2293724">
  <ele>1582.88</ele>
  <time>2026-08-28T17:54:15Z</time>
  <course>67.94</course>
  <speed>4.9962485926943225</speed>
  <fix>3d</fix>
</trkpt>
<trkpt lat="40.0715055" lon="-105.2293856">
  <ele>1583.0</ele>
  <time>2026-08-28T17:54:15Z</time>
  <course>66.79</course>
  <speed>5.04</speed>
  <fix>3d</fix>
</trkpt>
<trkpt lat="40.0715114" lon="-105.229367">
  <ele>1582.88</ele>
  <time>2026-08-28T17:54:15Z</time>
  <course>67.97</course>
  <speed>5.0015697535873676</speed>
  <fix>3d</fix>
</trkpt>
<trkpt lat="40.0715091" lon="-105.2293747">
  <ele>1583.0</ele>
  <time>2026-08-28T17:54:15Z</time>
  <course>66.83</course>
  <speed>5.05</speed>
  <fix>3d</fix>
</trkpt>
<trkpt lat="40.0715132" lon="-105.2293615">
  <ele>1582.88</ele>
  <time>2026-08-28T17:54:15Z</time>
  <course>67.97</course>
  <speed>4.992354154104054</speed>
  <fix>3d</fix>
</trkpt>
<trkpt lat="40.0715091" lon="-105.2293747">
  <ele>1583.0</ele>
  <time>2026-08-28T17:54:15Z</time>
  <course>66.83</course>
  <speed>5.05</speed>
  <fix>3d</fix>
</trkpt>
<trkpt lat="40.0715146" lon="-105.2293572">
  <ele>1582.88</ele>
  <time>2026-08-28T17:54:15Z</time>
  <course>68.0</course>
  <speed>4.992354154104054</speed>
  <fix>3d</fix>
</trkpt>
<trkpt lat="40.0715127" lon="-105.2293638">
  <ele>1583.0</ele>
  <time>2026-08-28T17:54:15Z</time>
  <course>66.87</course>
  <speed>5.05</speed>
  <fix>3d</fix>
</trkpt>
<trkpt lat="40.0715164" lon="-105.2293517">
  <ele>1582.89</ele>
  <time>2026-08-28T17:54:15Z</time>
  <course>68.0</course>
  <speed>5.0015697535873676</speed>
  <fix>3d</fix>
</trkpt>
<trkpt lat="40.0715127" lon="-105.2293638">
  <ele>1583.0</ele>
  <time>2026-08-28T17:54:15Z</time>
  <course>66.87</course>
  <speed>5.05</speed>
  <fix>3d</fix>
</trkpt>
<trkpt lat="40.0715182" lon="-105.2293463">
  <ele>1582.89</ele>
  <time>2026-08-28T17:54:15Z</time>
  <course>68.03</course>
  <speed>5.0015697535873676</speed>
  <fix>3d</fix>
</trkpt>
<trkpt lat="40.0715162" lon="-105.2293529">
  <ele>1583.0</ele>
  <time>2026-08-28T17:54:15Z</time>
  <course>66.9</course>
  <speed>5.05</speed>
  <fix>3d</fix>
</trkpt>
<trkpt lat="40.07152" lon="-105.2293408">
  <ele>1582.89</ele>
  <time>2026-08-28T17:54:15Z</time>
  <course>68.03</course>
  <speed>5.0015697535873676</speed>
  <fix>3d</fix>
</trkpt>
<trkpt lat="40.0715162" lon="-105.2293529">
  <ele>1583.0</ele>
  <time>2026-08-28T17:54:15Z</time>
  <course>66.9</course>
  <speed>5.05</speed>
  <fix>3d</fix>
</trkpt>
<trkpt lat="40.0715218" lon="-105.2293353">
  <ele>1582.9</ele>
  <time>2026-08-28T17:54:15Z</time>
  <course>68.06</course>
  <speed>5.0015697535873676</speed>
  <fix>3d</fix>
</trkpt>
<trkpt lat="40.0715198" lon="-105.229342">
  <ele>1583.0</ele>
  <time>2026-08-28T17:54:15Z</time>
  <course>66.93</course>
  <speed>5.05</speed>
  <fix>3d</fix>
</trkpt>
<trkpt lat="40.0715235" lon="-105.2293298">
  <ele>1582.9</ele>
  <time>2026-08-28T17:54:15Z</time>
  <course>68.08</course>
  <speed>5.0015697535873676</speed>
  <fix>3d</fix>
</trkpt>
<trkpt lat="40.0715198" lon="-105.229342">
  <ele>1583.0</ele>
  <time>2026-08-28T17:54:15Z</time>
  <course>66.93</course>
  <speed>5.05</speed>
  <fix>3d</fix>
</trkpt>
<trkpt lat="40.0715253" lon="-105.2293244">
  <ele>1582.9</ele>
  <time>2026-08-28T17:54:15Z</time>
  <course>68.09</course>
  <speed>5.0015697535873676</speed>
  <fix>3d</fix>
</trkpt>
<trkpt lat="40.0715233" lon="-105.2293311">
  <ele>1583.0</ele>
  <time>2026-08-28T17:54:15Z</time>
  <course>66.96</course>
  <speed>5.05</speed>
  <fix>3d</fix>
</trkpt>
<trkpt lat="40.0715271" lon="-105.2293188">
  <ele>1582.9</ele>
  <time>2026-08-28T17:54:15Z</time>
  <course>68.12</course>
  <speed>5.006925204154742</speed>
  <fix>3d</fix>
</trkpt>
<trkpt lat="40.0715233" lon="-105.2293311">
  <ele>1583.0</ele>
  <time>2026-08-28T17:54:15Z</time>
  <course>66.96</course>
  <speed>5.05</speed>
  <fix>3d</fix>
</trkpt>
<trkpt lat="40.0715293" lon="-105.2293122">
  <ele>1582.9</ele>
  <time>2026-08-28T17:54:15Z</time>
  <course>68.12</course>
  <speed>5.006925204154742</speed>
  <fix>3d</fix>
</trkpt>
<trkpt lat="40.0715269" lon="-105.2293202">
  <ele>1583.0</ele>
  <time>2026-08-28T17:54:15Z</time>
  <course>66.99</course>
  <speed>5.04</speed>
  <fix>3d</fix>
</trkpt>
<trkpt lat="40.0715311" lon="-105.2293067">
  <ele>1582.9</ele>
  <time>2026-08-28T17:54:15Z</time>
  <course>68.15</course>
  <speed>5.006925204154742</speed>
  <fix>3d</fix>
</trkpt>
<trkpt lat="40.0715269" lon="-105.2293202">
  <ele>1583.0</ele>
  <time>2026-08-28T17:54:15Z</time>
  <course>66.99</course>
  <speed>5.04</speed>
  <fix>3d</fix>
</trkpt>
<trkpt lat="40.0715328" lon="-105.2293012">
  <ele>1582.9</ele>
  <time>2026-08-28T17:54:15Z</time>
  <course>68.15</course>
  <speed>5.006925204154742</speed>
  <fix>3d</fix>
</trkpt>
<trkpt lat="40.0715304" lon="-105.2293093">
  <ele>1583.0</ele>
  <time>2026-08-28T17:54:15Z</time>
  <course>67.01</course>
  <speed>5.04</speed>
  <fix>3d</fix>
</trkpt>
<trkpt lat="40.0715346" lon="-105.2292957">
  <ele>1582.9</ele>
  <time>2026-08-28T17:54:15Z</time>
  <course>68.17</course>
  <speed>5.006925204154742</speed>
  <fix>3d</fix>
</trkpt>
<trkpt lat="40.0715304" lon="-105.2293093">
  <ele>1583.0</ele>
  <time>2026-08-28T17:54:15Z</time>
  <course>67.01</course>
  <speed>5.04</speed>
  <fix>3d</fix>
</trkpt>
<trkpt lat="40.0715364" lon="-105.2292903">
  <ele>1582.9</ele>
  <time>2026-08-28T17:54:15Z</time>
  <course>68.18</course>
  <speed>5.006925204154742</speed>
  <fix>3d</fix>
</trkpt>
<trkpt lat="40.071534" lon="-105.2292984">
  <ele>1583.0</ele>
  <time>2026-08-28T17:54:15Z</time>
  <course>67.04</course>
  <speed>5.04</speed>
  <fix>3d</fix>
</trkpt>
<trkpt lat="40.0715381" lon="-105.2292848">
  <ele>1582.91</ele>
  <time>2026-08-28T17:54:15Z</time>
  <course>68.21</course>
  <speed>5.006925204154742</speed>
  <fix>3d</fix>
</trkpt>
<trkpt lat="40.071534" lon="-105.2292984">
  <ele>1583.0</ele>
  <time>2026-08-28T17:54:15Z</time>
  <course>67.04</course>
  <speed>5.04</speed>
  <fix>3d</fix>
</trkpt>
<trkpt lat="40.0715399" lon="-105.2292794">
  <ele>1582.91</ele>
  <time>2026-08-28T17:54:15Z</time>
  <course>68.21</course>
  <speed>4.99769947075652</speed>
  <fix>3d</fix>
</trkpt>
<trkpt lat="40.0715375" lon="-105.2292875">
  <ele>1583.0</ele>
  <time>2026-08-28T17:54:15Z</time>
  <course>67.07</course>
  <speed>5.03</speed>
  <fix>3d</fix>
</trkpt>
<trkpt lat="40.0715416" lon="-105.229274">
  <ele>1582.91</ele>
  <time>2026-08-28T17:54:15Z</time>
  <course>68.24</course>
  <speed>4.993846213090667</speed>
  <fix>3d</fix>
</trkpt>
<trkpt lat="40.0715375" lon="-105.2292875">
  <ele>1583.0</ele>
  <time>2026-08-28T17:54:15Z</time>
  <course>67.07</course>
  <speed>5.03</speed>
  <fix>3d</fix>
</trkpt>
<trkpt lat="40.0715434" lon="-105.2292686">
  <ele>1582.91</ele>
  <time>2026-08-28T17:54:15Z</time>
  <course>68.24</course>
  <speed>4.993846213090667</speed>
  <fix>3d</fix>
</trkpt>
<trkpt lat="40.071541" lon="-105.2292766">
  <ele>1583.0</ele>
  <time>2026-08-28T17:54:15Z</time>
  <course>67.1</course>
  <speed>5.03</speed>
  <fix>3d</fix>
</trkpt>
<trkpt lat="40.0715451" lon="-105.2292632">
  <ele>1582.91</ele>
  <time>2026-08-28T17:54:15Z</time>
  <course>68.26</course>
  <speed>4.993846213090667</speed>
  <fix>3d</fix>
</trkpt>
<trkpt lat="40.071541" lon="-105.2292766">
  <ele>1583.0</ele>
  <time>2026-08-28T17:54:15Z</time>
  <course>67.1</course>
  <speed>5.03</speed>
  <fix>3d</fix>
</trkpt>
<trkpt lat="40.0715469" lon="-105.2292578">
  <ele>1582.91</ele>
  <time>2026-08-28T17:54:15Z</time>
  <course>68.28</course>
  <speed>4.993846213090667</speed>
  <fix>3d</fix>
</trkpt>
<trkpt lat="40.0715445" lon="-105.2292657">
  <ele>1583.0</ele>
  <time>2026-08-28T17:54:15Z</time>
  <course>67.13</course>
  <speed>5.03</speed>
  <fix>3d</fix>
</trkpt>
<trkpt lat="40.0715486" lon="-105.2292524">
  <ele>1582.91</ele>
  <time>2026-08-28T17:54:15Z</time>
  <course>68.28</course>
  <speed>4.984616334282911</speed>
  <fix>3d</fix>
</trkpt>
<trkpt lat="40.0715445" lon="-105.2292657">
  <ele>1583.0</ele>
  <time>2026-08-28T17:54:15Z</time>
  <course>67.13</course>
  <speed>5.03</speed>
  <fix>3d</fix>
</trkpt>
<trkpt lat="40.0715503" lon="-105.229247">
  <ele>1582.91</ele>
  <time>2026-08-28T17:54:15Z</time>
  <course>68.3</course>
  <speed>4.980773032371582</speed>
  <fix>3d</fix>
</trkpt>
<trkpt lat="40.071548" lon="-105.2292548">
  <ele>1583.0</ele>
  <time>2026-08-28T17:54:15Z</time>
  <course>67.16</course>
  <speed>5.03</speed>
  <fix>3d</fix>
</trkpt>
<trkpt lat="40.0715517" lon="-105.2292427">
  <ele>1582.91</ele>
  <time>2026-08-28T17:54:15Z</time>
  <course>68.3</course>
  <speed>4.980773032371582</speed>
  <fix>3d</fix>
</trkpt>
<trkpt lat="40.071548" lon="-105.2292548">
  <ele>1583.0</ele>
  <time>2026-08-28T17:54:15Z</time>
  <course>67.16</course>
  <speed>5.03</speed>
  <fix>3d</fix>
</trkpt>
<trkpt lat="40.0715535" lon="-105.2292373">
  <ele>1582.91</ele>
  <time>2026-08-28T17:54:15Z</time>
  <course>68.31</course>
  <speed>4.980773032371582</speed>
  <fix>3d</fix>
</trkpt>
<trkpt lat="40.0715516" lon="-105.2292439">
  <ele>1583.0</ele>
  <time>2026-08-28T17:54:15Z</time>
  <course>67.17</course>
  <speed>5.03</speed>
  <fix>3d</fix>
</trkpt>
<trkpt lat="40.0715552" lon="-105.2292318">
  <ele>1582.91</ele>
  <time>2026-08-28T17:54:15Z</time>
  <course>68.33</course>
  <speed>4.980773032371582</speed>
  <fix>3d</fix>
</trkpt>
<trkpt lat="40.0715516" lon="-105.2292439">
  <ele>1583.0</ele>
  <time>2026-08-28T17:54:15Z</time>
  <course>67.17</course>
  <speed>5.03</speed>
  <fix>3d</fix>
</trkpt>
<trkpt lat="40.071557" lon="-105.2292264">
  <ele>1582.91</ele>
  <time>2026-08-28T17:54:15Z</time>
  <course>68.33</course>
  <speed>4.99001002003002</speed>
  <fix>3d</fix>
</trkpt>
<trkpt lat="40.0715551" lon="-105.229233">
  <ele>1583.0</ele>
  <time>2026-08-28T17:54:15Z</time>
  <course>67.18</course>
  <speed>5.03</speed>
  <fix>3d</fix>
</trkpt>
<trkpt lat="40.0715587" lon="-105.2292209">
  <ele>1582.91</ele>
  <time>2026-08-28T17:54:15Z</time>
  <course>68.34</course>
  <speed>4.99001002003002</speed>
  <fix>3d</fix>
</trkpt>
<trkpt lat="40.0715551" lon="-105.229233">
  <ele>1583.0</ele>
  <time>2026-08-28T17:54:15Z</time>
  <course>67.18</course>
  <speed>5.03</speed>
  <fix>3d</fix>
</trkpt>
<trkpt lat="40.0715605" lon="-105.2292155">
  <ele>1582.91</ele>
  <time>2026-08-28T17:54:15Z</time>
  <course>68.36</course>
  <speed>4.99001002003002</speed>
  <fix>3d</fix>
</trkpt>
<trkpt lat="40.0715586" lon="-105.2292221">
  <ele>1583.0</ele>
  <time>2026-08-28T17:54:15Z</time>
  <course>67.2</course>
  <speed>5.03</speed>
  <fix>3d</fix>
</trkpt>
<trkpt lat="40.0715623" lon="-105.22921">
  <ele>1582.91</ele>
  <time>2026-08-28T17:54:15Z</time>
  <course>68.36</course>
  <speed>4.99001002003002</speed>
  <fix>3d</fix>
</trkpt>
<trkpt lat="40.0715586" lon="-105.2292221">
  <ele>1583.0</ele>
  <time>2026-08-28T17:54:15Z</time>
  <course>67.2</course>
  <speed>5.03</speed>
  <fix>3d</fix>
</trkpt>
<trkpt lat="40.071564" lon="-105.2292044">
  <ele>1582.91</ele>
  <time>2026-08-28T17:54:15Z</time>
  <course>68.39</course>
  <speed>4.999249943741561</speed>
  <fix>3d</fix>
</trkpt>
<trkpt lat="40.0715621" lon="-105.2292113">
  <ele>1583.0</ele>
  <time>2026-08-28T17:54:15Z</time>
  <course>67.23</course>
  <speed>5.03</speed>
  <fix>3d</fix>
</trkpt>
<trkpt lat="40.0715662" lon="-105.2291978">
  <ele>1582.91</ele>
  <time>2026-08-28T17:54:15Z</time>
  <course>68.4</course>
  <speed>4.999249943741561</speed>
  <fix>3d</fix>
</trkpt>
<trkpt lat="40.0715621" lon="-105.2292113">
  <ele>1583.0</ele>
  <time>2026-08-28T17:54:15Z</time>
  <course>67.23</course>
  <speed>5.03</speed>
  <fix>3d</fix>
</trkpt>
<trkpt lat="40.0715679" lon="-105.2291923">
  <ele>1582.91</ele>
  <time>2026-08-28T17:54:15Z</time>
  <course>68.4</course>
  <speed>4.999249943741561</speed>
  <fix>3d</fix>
</trkpt>
<trkpt lat="40.0715656" lon="-105.2292004">
  <ele>1583.0</ele>
  <time>2026-08-28T17:54:15Z</time>
  <course>67.25</course>
  <speed>5.03</speed>
  <fix>3d</fix>
</trkpt>
<trkpt lat="40.0715697" lon="-105.2291868">
  <ele>1582.9</ele>
  <time>2026-08-28T17:54:15Z</time>
  <course>68.42</course>
  <speed>4.999249943741561</speed>
  <fix>3d</fix>
</trkpt>
<trkpt lat="40.0715656" lon="-105.2292004">
  <ele>1583.0</ele>
  <time>2026-08-28T17:54:15Z</time>
  <course>67.25</course>
  <speed>5.03</speed>
  <fix>3d</fix>
</trkpt>
<trkpt lat="40.0715715" lon="-105.2291814">
  <ele>1582.9</ele>
  <time>2026-08-28T17:54:15Z</time>
  <course>68.43</course>
  <speed>4.999249943741561</speed>
  <fix>3d</fix>
</trkpt>
<trkpt lat="40.0715691" lon="-105.2291895">
  <ele>1583.0</ele>
  <time>2026-08-28T17:54:15Z</time>
  <course>67.27</course>
  <speed>5.03</speed>
  <fix>3d</fix>
</trkpt>
<trkpt lat="40.0715732" lon="-105.2291759">
  <ele>1582.9</ele>
  <time>2026-08-28T17:54:15Z</time>
  <course>68.43</course>
  <speed>4.999249943741561</speed>
  <fix>3d</fix>
</trkpt>
<trkpt lat="40.0715691" lon="-105.2291895">
  <ele>1583.0</ele>
  <time>2026-08-28T17:54:15Z</time>
  <course>67.27</course>
  <speed>5.03</speed>
  <fix>3d</fix>
</trkpt>
<trkpt lat="40.071575" lon="-105.2291704">
  <ele>1582.9</ele>
  <time>2026-08-28T17:54:15Z</time>
  <course>68.45</course>
  <speed>4.999249943741561</speed>
  <fix>3d</fix>
</trkpt>
<trkpt lat="40.0715725" lon="-105.2291786">
  <ele>1583.0</ele>
  <time>2026-08-28T17:54:15Z</time>
  <course>67.29</course>
  <speed>5.03</speed>
  <fix>3d</fix>
</trkpt>
<trkpt lat="40.0715767" lon="-105.229165">
  <ele>1582.91</ele>
  <time>2026-08-28T17:54:15Z</time>
  <course>68.46</course>
  <speed>4.999249943741561</speed>
  <fix>3d</fix>
</trkpt>
<trkpt lat="40.0715725" lon="-105.2291786">
  <ele>1583.0</ele>
  <time>2026-08-28T17:54:15Z</time>
  <course>67.29</course>
  <speed>5.03</speed>
  <fix>3d</fix>
</trkpt>
<trkpt lat="40.0715784" lon="-105.2291596">
  <ele>1582.91</ele>
  <time>2026-08-28T17:54:15Z</time>
  <course>68.46</course>
  <speed>4.999249943741561</speed>
  <fix>3d</fix>
</trkpt>
<trkpt lat="40.071576" lon="-105.2291676">
  <ele>1583.0</ele>
  <time>2026-08-28T17:54:15Z</time>
  <course>67.31</course>
  <speed>5.02</speed>
  <fix>3d</fix>
</trkpt>
<trkpt lat="40.0715802" lon="-105.2291542">
  <ele>1582.91</ele>
  <time>2026-08-28T17:54:15Z</time>
  <course>68.47</course>
  <speed>4.986190930961228</speed>
  <fix>3d</fix>
</trkpt>
<trkpt lat="40.071576" lon="-105.2291676">
  <ele>1583.0</ele>
  <time>2026-08-28T17:54:15Z</time>
  <course>67.31</course>
  <speed>5.02</speed>
  <fix>3d</fix>
</trkpt>
<trkpt lat="40.0715819" lon="-105.2291487">
  <ele>1582.91</ele>
  <time>2026-08-28T17:54:15Z</time>
  <course>68.47</course>
  <speed>4.986190930961228</speed>
  <fix>3d</fix>
</trkpt>
<trkpt lat="40.0715795" lon="-105.2291567">
  <ele>1583.0</ele>
  <time>2026-08-28T17:54:15Z</time>
  <course>67.32</course>
  <speed>5.02</speed>
  <fix>3d</fix>
</trkpt>
<trkpt lat="40.0715836" lon="-105.2291434">
  <ele>1582.9</ele>
  <time>2026-08-28T17:54:15Z</time>
  <course>68.47</course>
  <speed>4.986190930961228</speed>
  <fix>3d</fix>
</trkpt>
<trkpt lat="40.0715795" lon="-105.2291567">
  <ele>1583.0</ele>
  <time>2026-08-28T17:54:15Z</time>
  <course>67.32</course>
  <speed>5.02</speed>
  <fix>3d</fix>
</trkpt>
<trkpt lat="40.0715853" lon="-105.229138">
  <ele>1582.9</ele>
  <time>2026-08-28T17:54:15Z</time>
  <course>68.48</course>
  <speed>4.986190930961228</speed>
  <fix>3d</fix>
</trkpt>
<trkpt lat="40.071583" lon="-105.2291458">
  <ele>1583.0</ele>
  <time>2026-08-28T17:54:15Z</time>
  <course>67.33</course>
  <speed>5.02</speed>
  <fix>3d</fix>
</trkpt>
<trkpt lat="40.0715871" lon="-105.2291326">
  <ele>1582.91</ele>
  <time>2026-08-28T17:54:15Z</time>
  <course>68.48</course>
  <speed>4.976946855251722</speed>
  <fix>3d</fix>
</trkpt>
<trkpt lat="40.071583" lon="-105.2291458">
  <ele>1583.0</ele>
  <time>2026-08-28T17:54:15Z</time>
  <course>67.33</course>
  <speed>5.02</speed>
  <fix>3d</fix>
</trkpt>
<trkpt lat="40.0715884" lon="-105.2291282">
  <ele>1582.91</ele>
  <time>2026-08-28T17:54:15Z</time>
  <course>68.48</course>
  <speed>4.976946855251722</speed>
  <fix>3d</fix>
</trkpt>
<trkpt lat="40.0715865" lon="-105.229135">
  <ele>1583.0</ele>
  <time>2026-08-28T17:54:15Z</time>
  <course>67.34</course>
  <speed>5.02</speed>
  <fix>3d</fix>
</trkpt>
<trkpt lat="40.0715902" lon="-105.2291228">
  <ele>1582.91</ele>
  <time>2026-08-28T17:54:15Z</time>
  <course>68.48</course>
  <speed>4.976946855251722</speed>
  <fix>3d</fix>
</trkpt>
<trkpt lat="40.0715865" lon="-105.229135">
  <ele>1583.0</ele>
  <time>2026-08-28T17:54:15Z</time>
  <course>67.34</course>
  <speed>5.02</speed>
  <fix>3d</fix>
</trkpt>
<trkpt lat="40.0715919" lon="-105.2291173">
  <ele>1582.91</ele>
  <time>2026-08-28T17:54:15Z</time>
  <course>68.5</course>
  <speed>4.976946855251722</speed>
  <fix>3d</fix>
</trkpt>
<trkpt lat="40.07159" lon="-105.2291241">
  <ele>1583.0</ele>
  <time>2026-08-28T17:54:15Z</time>
  <course>67.35</course>
  <speed>5.01</speed>
  <fix>3d</fix>
</trkpt>
<trkpt lat="40.0715937" lon="-105.2291119">
  <ele>1582.92</ele>
  <time>2026-08-28T17:54:15Z</time>
  <course>68.5</course>
  <speed>4.986190930961228</speed>
  <fix>3d</fix>
</trkpt>
<trkpt lat="40.07159" lon="-105.2291241">
  <ele>1583.0</ele>
  <time>2026-08-28T17:54:15Z</time>
  <course>67.35</course>
  <speed>5.01</speed>
  <fix>3d</fix>
</trkpt>
<trkpt lat="40.0715954" lon="-105.2291065">
  <ele>1582.92</ele>
  <time>2026-08-28T17:54:15Z</time>
  <course>68.51</course>
  <speed>4.986190930961228</speed>
  <fix>3d</fix>
</trkpt>
<trkpt lat="40.0715934" lon="-105.2291133">
  <ele>1583.0</ele>
  <time>2026-08-28T17:54:15Z</time>
  <course>67.36</course>
  <speed>5.01</speed>
  <fix>3d</fix>
</trkpt>
<trkpt lat="40.0715971" lon="-105.229101">
  <ele>1582.92</ele>
  <time>2026-08-28T17:54:15Z</time>
  <course>68.51</course>
  <speed>4.986190930961228</speed>
  <fix>3d</fix>
</trkpt>
<trkpt lat="40.0715934" lon="-105.2291133">
  <ele>1583.0</ele>
  <time>2026-08-28T17:54:15Z</time>
  <course>67.36</course>
  <speed>5.01</speed>
  <fix>3d</fix>
</trkpt>
<trkpt lat="40.0715989" lon="-105.2290955">
  <ele>1582.92</ele>
  <time>2026-08-28T17:54:15Z</time>
  <course>68.51</course>
  <speed>4.986190930961228</speed>
  <fix>3d</fix>
</trkpt>
<trkpt lat="40.0715969" lon="-105.2291024">
  <ele>1583.0</ele>
  <time>2026-08-28T17:54:15Z</time>
  <course>67.37</course>
  <speed>5.01</speed>
  <fix>3d</fix>
</trkpt>
<trkpt lat="40.071601" lon="-105.2290889">
  <ele>1582.92</ele>
  <time>2026-08-28T17:54:15Z</time>
  <course>68.53</course>
  <speed>4.986190930961228</speed>
  <fix>3d</fix>
</trkpt>
<trkpt lat="40.0715969" lon="-105.2291024">
  <ele>1583.0</ele>
  <time>2026-08-28T17:54:15Z</time>
  <course>67.37</course>
  <speed>5.01</speed>
  <fix>3d</fix>
</trkpt>
<trkpt lat="40.0716027" lon="-105.2290834">
  <ele>1582.92</ele>
  <time>2026-08-28T17:54:15Z</time>
  <course>68.53</course>
  <speed>4.986190930961228</speed>
  <fix>3d</fix>
</trkpt>
<trkpt lat="40.0716003" lon="-105.2290915">
  <ele>1583.0</ele>
  <time>2026-08-28T17:54:15Z</time>
  <course>67.37</course>
  <speed>5.01</speed>
  <fix>3d</fix>
</trkpt>
<trkpt lat="40.0716045" lon="-105.2290779">
  <ele>1582.92</ele>
  <time>2026-08-28T17:54:15Z</time>
  <course>68.54</course>
  <speed>4.986190930961228</speed>
  <fix>3d</fix>
</trkpt>
<trkpt lat="40.0716003" lon="-105.2290915">
  <ele>1583.0</ele>
  <time>2026-08-28T17:54:15Z</time>
  <course>67.37</course>
  <speed>5.01</speed>
  <fix>3d</fix>
</trkpt>
<trkpt lat="40.0716062" lon="-105.2290725">
  <ele>1582.92</ele>
  <time>2026-08-28T17:54:15Z</time>
  <course>68.54</course>
  <speed>4.986190930961228</speed>
  <fix>3d</fix>
</trkpt>
<trkpt lat="40.0716038" lon="-105.2290807">
  <ele>1583.0</ele>
  <time>2026-08-28T17:54:15Z</time>
  <course>67.39</course>
  <speed>5.01</speed>
  <fix>3d</fix>
</trkpt>
<trkpt lat="40.071608" lon="-105.229067">
  <ele>1582.92</ele>
  <time>2026-08-28T17:54:15Z</time>
  <course>68.54</course>
  <speed>4.986190930961228</speed>
  <fix>3d</fix>
</trkpt>
<trkpt lat="40.0716038" lon="-105.2290807">
  <ele>1583.0</ele>
  <time>2026-08-28T17:54:15Z</time>
  <course>67.39</course>
  <speed>5.01</speed>
  <fix>3d</fix>
</trkpt>
<trkpt lat="40.0716097" lon="-105.2290616">
  <ele>1582.92</ele>
  <time>2026-08-28T17:54:15Z</time>
  <course>68.54</course>
  <speed>4.986190930961228</speed>
  <fix>3d</fix>
</trkpt>
<trkpt lat="40.0716073" lon="-105.2290698">
  <ele>1583.0</ele>
  <time>2026-08-28T17:54:15Z</time>
  <course>67.4</course>
  <speed>5.01</speed>
  <fix>3d</fix>
</trkpt>
<trkpt lat="40.0716114" lon="-105.2290562">
  <ele>1582.92</ele>
  <time>2026-08-28T17:54:15Z</time>
  <course>68.54</course>
  <speed>4.982388985215827</speed>
  <fix>3d</fix>
</trkpt>
<trkpt lat="40.0716073" lon="-105.2290698">
  <ele>1583.0</ele>
  <time>2026-08-28T17:54:15Z</time>
  <course>67.4</course>
  <speed>5.01</speed>
  <fix>3d</fix>
</trkpt>
<trkpt lat="40.0716131" lon="-105.2290508">
  <ele>1582.92</ele>
  <time>2026-08-28T17:54:15Z</time>
  <course>68.55</course>
  <speed>4.973137842449171</speed>
  <fix>3d</fix>
</trkpt>
<trkpt lat="40.0716108" lon="-105.2290589">
  <ele>1583.0</ele>
  <time>2026-08-28T17:54:15Z</time>
  <course>67.4</course>
  <speed>5.0</speed>
  <fix>3d</fix>
</trkpt>
<trkpt lat="40.0716149" lon="-105.2290454">
  <ele>1582.92</ele>
  <time>2026-08-28T17:54:15Z</time>
  <course>68.55</course>
  <speed>4.973137842449171</speed>
  <fix>3d</fix>
</trkpt>
<trkpt lat="40.0716108" lon="-105.2290589">
  <ele>1583.0</ele>
  <time>2026-08-28T17:54:15Z</time>
  <course>67.4</course>
  <speed>5.0</speed>
  <fix>3d</fix>
</trkpt>
<trkpt lat="40.0716166" lon="-105.22904">
  <ele>1582.92</ele>
  <time>2026-08-28T17:54:15Z</time>
  <course>68.55</course>
  <speed>4.973137842449171</speed>
  <fix>3d</fix>
</trkpt>
<trkpt lat="40.0716142" lon="-105.2290481">
  <ele>1583.0</ele>
  <time>2026-08-28T17:54:15Z</time>
  <course>67.41</course>
  <speed>5.0</speed>
  <fix>3d</fix>
</trkpt>
<trkpt lat="40.0716183" lon="-105.2290346">
  <ele>1582.92</ele>
  <time>2026-08-28T17:54:15Z</time>
  <course>68.54</course>
  <speed>4.973137842449171</speed>
  <fix>3d</fix>
</trkpt>
<trkpt lat="40.0716142" lon="-105.2290481">
  <ele>1583.0</ele>
  <time>2026-08-28T17:54:15Z</time>
  <course>67.41</course>
  <speed>5.0</speed>
  <fix>3d</fix>
</trkpt>
<trkpt lat="40.07162" lon="-105.2290293">
  <ele>1582.93</ele>
  <time>2026-08-28T17:54:15Z</time>
  <course>68.56</course>
  <speed>4.973137842449171</speed>
  <fix>3d</fix>
</trkpt>
<trkpt lat="40.0716177" lon="-105.2290372">
  <ele>1583.0</ele>
  <time>2026-08-28T17:54:15Z</time>
  <course>67.42</course>
  <speed>5.0</speed>
  <fix>3d</fix>
</trkpt>
<trkpt lat="40.0716217" lon="-105.2290239">
  <ele>1582.93</ele>
  <time>2026-08-28T17:54:15Z</time>
  <course>68.56</course>
  <speed>4.973137842449171</speed>
  <fix>3d</fix>
</trkpt>
<trkpt lat="40.0716177" lon="-105.2290372">
  <ele>1583.0</ele>
  <time>2026-08-28T17:54:15Z</time>
  <course>67.42</course>
  <speed>5.0</speed>
  <fix>3d</fix>
</trkpt>
<trkpt lat="40.0716234" lon="-105.2290185">
  <ele>1582.93</ele>
  <time>2026-08-28T17:54:15Z</time>
  <course>68.55</course>
  <speed>4.973137842449171</speed>
  <fix>3d</fix>
</trkpt>
<trkpt lat="40.0716211" lon="-105.2290264">
  <ele>1583.0</ele>
  <time>2026-08-28T17:54:15Z</time>
  <course>67.42</course>
  <speed>5.0</speed>
  <fix>3d</fix>
</trkpt>
<trkpt lat="40.0716248" lon="-105.2290142">
  <ele>1582.93</ele>
  <time>2026-08-28T17:54:15Z</time>
  <course>68.55</course>
  <speed>4.973137842449171</speed>
  <fix>3d</fix>
</trkpt>
<trkpt lat="40.0716211" lon="-105.2290264">
  <ele>1583.0</ele>
  <time>2026-08-28T17:54:15Z</time>
  <course>67.42</course>
  <speed>5.0</speed>
  <fix>3d</fix>
</trkpt>
<trkpt lat="40.0716265" lon="-105.2290088">
  <ele>1582.94</ele>
  <time>2026-08-28T17:54:15Z</time>
  <course>68.57</course>
  <speed>4.973137842449171</speed>
  <fix>3d</fix>
</trkpt>
<trkpt lat="40.0716246" lon="-105.2290155">
  <ele>1583.0</ele>
  <time>2026-08-28T17:54:15Z</time>
  <course>67.43</course>
  <speed>5.0</speed>
  <fix>3d</fix>
</trkpt>
<trkpt lat="40.0716282" lon="-105.2290034">
  <ele>1582.94</ele>
  <time>2026-08-28T17:54:15Z</time>
  <course>68.56</course>
  <speed>4.973137842449171</speed>
  <fix>3d</fix>
</trkpt>
<trkpt lat="40.0716246" lon="-105.2290155">
  <ele>1583.0</ele>
  <time>2026-08-28T17:54:15Z</time>
  <course>67.43</course>
  <speed>5.0</speed>
  <fix>3d</fix>
</trkpt>
<trkpt lat="40.07163" lon="-105.228998">
  <ele>1582.94</ele>
  <time>2026-08-28T17:54:15Z</time>
  <course>68.56</course>
  <speed>4.973137842449171</speed>
  <fix>3d</fix>
</trkpt>
<trkpt lat="40.071628" lon="-105.2290046">
  <ele>1583.0</ele>
  <time>2026-08-28T17:54:15Z</time>
  <course>67.44</course>
  <speed>5.01</speed>
  <fix>3d</fix>
</trkpt>
<trkpt lat="40.0716317" lon="-105.2289925">
  <ele>1582.94</ele>
  <time>2026-08-28T17:54:15Z</time>
  <course>68.56</course>
  <speed>4.973137842449171</speed>
  <fix>3d</fix>
</trkpt>
<trkpt lat="40.071628" lon="-105.2290046">
  <ele>1583.0</ele>
  <time>2026-08-28T17:54:15Z</time>
  <course>67.44</course>
  <speed>5.01</speed>
  <fix>3d</fix>
</trkpt>
<trkpt lat="40.0716334" lon="-105.2289871">
  <ele>1582.94</ele>
  <time>2026-08-28T17:54:15Z</time>
  <course>68.56</course>
  <speed>4.982388985215827</speed>
  <fix>3d</fix>
</trkpt>
<trkpt lat="40.0716314" lon="-105.2289938">
  <ele>1583.0</ele>
  <time>2026-08-28T17:54:15Z</time>
  <course>67.44</course>
  <speed>5.01</speed>
  <fix>3d</fix>
</trkpt>
<trkpt lat="40.0716352" lon="-105.2289816">
  <ele>1582.94</ele>
  <time>2026-08-28T17:54:15Z</time>
  <course>68.56</course>
  <speed>4.982388985215827</speed>
  <fix>3d</fix>
</trkpt>
<trkpt lat="40.0716314" lon="-105.2289938">
  <ele>1583.0</ele>
  <time>2026-08-28T17:54:15Z</time>
  <course>67.44</course>
  <speed>5.01</speed>
  <fix>3d</fix>
</trkpt>
<trkpt lat="40.0716373" lon="-105.228975">
  <ele>1582.95</ele>
  <time>2026-08-28T17:54:15Z</time>
  <course>68.56</course>
  <speed>4.982388985215827</speed>
  <fix>3d</fix>
</trkpt>
<trkpt lat="40.0716349" lon="-105.2289829">
  <ele>1583.0</ele>
  <time>2026-08-28T17:54:15Z</time>
  <course>67.44</course>
  <speed>5.01</speed>
  <fix>3d</fix>
</trkpt>
<trkpt lat="40.071639" lon="-105.2289695">
  <ele>1582.95</ele>
  <time>2026-08-28T17:54:15Z</time>
  <course>68.56</course>
  <speed>4.982388985215827</speed>
  <fix>3d</fix>
</trkpt>
<trkpt lat="40.0716349" lon="-105.2289829">
  <ele>1583.0</ele>
  <time>2026-08-28T17:54:15Z</time>
  <course>67.44</course>
  <speed>5.01</speed>
  <fix>3d</fix>
</trkpt>
<trkpt lat="40.0716407" lon="-105.228964">
  <ele>1582.95</ele>
  <time>2026-08-28T17:54:15Z</time>
  <course>68.56</course>
  <speed>4.982388985215827</speed>
  <fix>3d</fix>
</trkpt>
<trkpt lat="40.0716384" lon="-105.228972">
  <ele>1583.0</ele>
  <time>2026-08-28T17:54:15Z</time>
  <course>67.44</course>
  <speed>5.01</speed>
  <fix>3d</fix>
</trkpt>
<trkpt lat="40.0716425" lon="-105.2289585">
  <ele>1582.95</ele>
  <time>2026-08-28T17:54:15Z</time>
  <course>68.56</course>
  <speed>4.995437918741459</speed>
  <fix>3d</fix>
</trkpt>
<trkpt lat="40.0716384" lon="-105.228972">
  <ele>1583.0</ele>
  <time>2026-08-28T17:54:15Z</time>
  <course>67.44</course>
  <speed>5.01</speed>
  <fix>3d</fix>
</trkpt>
<trkpt lat="40.0716442" lon="-105.228953">
  <ele>1582.95</ele>
  <time>2026-08-28T17:54:15Z</time>
  <course>68.56</course>
  <speed>4.991643016081979</speed>
  <fix>3d</fix>
</trkpt>
<trkpt lat="40.0716418" lon="-105.2289611">
  <ele>1583.0</ele>
  <time>2026-08-28T17:54:15Z</time>
  <course>67.44</course>
  <speed>5.01</speed>
  <fix>3d</fix>
</trkpt>
<trkpt lat="40.071646" lon="-105.2289476">
  <ele>1582.94</ele>
  <time>2026-08-28T17:54:15Z</time>
  <course>68.56</course>
  <speed>4.982388985215827</speed>
  <fix>3d</fix>
</trkpt>
<trkpt lat="40.0716418" lon="-105.2289611">
  <ele>1583.0</ele>
  <time>2026-08-28T17:54:15Z</time>
  <course>67.44</course>
  <speed>5.01</speed>
  <fix>3d</fix>
</trkpt>
<trkpt lat="40.0716477" lon="-105.2289422">
  <ele>1582.94</ele>
  <time>2026-08-28T17:54:15Z</time>
  <course>68.56</course>
  <speed>4.982388985215827</speed>
  <fix>3d</fix>
</trkpt>
<trkpt lat="40.0716453" lon="-105.2289503">
  <ele>1583.0</ele>
  <time>2026-08-28T17:54:15Z</time>
  <course>67.44</course>
  <speed>5.01</speed>
  <fix>3d</fix>
</trkpt>
<trkpt lat="40.0716494" lon="-105.2289368">
  <ele>1582.94</ele>
  <time>2026-08-28T17:54:15Z</time>
  <course>68.56</course>
  <speed>4.982388985215827</speed>
  <fix>3d</fix>
</trkpt>
<trkpt lat="40.0716453" lon="-105.2289503">
  <ele>1583.0</ele>
  <time>2026-08-28T17:54:15Z</time>
  <course>67.44</course>
  <speed>5.01</speed>
  <fix>3d</fix>
</trkpt>
<trkpt lat="40.0716511" lon="-105.2289314">
  <ele>1582.94</ele>
  <time>2026-08-28T17:54:15Z</time>
  <course>68.56</course>
  <speed>4.982388985215827</speed>
  <fix>3d</fix>
</trkpt>
<trkpt lat="40.0716488" lon="-105.2289394">
  <ele>1583.0</ele>
  <time>2026-08-28T17:54:15Z</time>
  <course>67.44</course>
  <speed>5.0</speed>
  <fix>3d</fix>
</trkpt>
<trkpt lat="40.0716528" lon="-105.228926">
  <ele>1582.94</ele>
  <time>2026-08-28T17:54:15Z</time>
  <course>68.56</course>
  <speed>4.973137842449171</speed>
  <fix>3d</fix>
</trkpt>
<trkpt lat="40.0716488" lon="-105.2289394">
  <ele>1583.0</ele>
  <time>2026-08-28T17:54:15Z</time>
  <course>67.44</course>
  <speed>5.0</speed>
  <fix>3d</fix>
</trkpt>
<trkpt lat="40.0716545" lon="-105.2289206">
  <ele>1582.93</ele>
  <time>2026-08-28T17:54:15Z</time>
  <course>68.56</course>
  <speed>4.973137842449171</speed>
  <fix>3d</fix>
</trkpt>
<trkpt lat="40.0716522" lon="-105.2289285">
  <ele>1583.0</ele>
  <time>2026-08-28T17:54:15Z</time>
  <course>67.44</course>
  <speed>5.0</speed>
  <fix>3d</fix>
</trkpt>
<trkpt lat="40.0716562" lon="-105.2289153">
  <ele>1582.93</ele>
  <time>2026-08-28T17:54:15Z</time>
  <course>68.57</course>
  <speed>4.973137842449171</speed>
  <fix>3d</fix>
</trkpt>
<trkpt lat="40.0716522" lon="-105.2289285">
  <ele>1583.0</ele>
  <time>2026-08-28T17:54:15Z</time>
  <course>67.44</course>
  <speed>5.0</speed>
  <fix>3d</fix>
</trkpt>
<trkpt lat="40.0716579" lon="-105.2289099">
  <ele>1582.93</ele>
  <time>2026-08-28T17:54:15Z</time>
  <course>68.57</course>
  <speed>4.973137842449171</speed>
  <fix>3d</fix>
</trkpt>
<trkpt lat="40.0716556" lon="-105.2289177">
  <ele>1583.0</ele>
  <time>2026-08-28T17:54:15Z</time>
  <course>67.44</course>
  <speed>5.0</speed>
  <fix>3d</fix>
</trkpt>
<trkpt lat="40.0716593" lon="-105.2289055">
  <ele>1582.93</ele>
  <time>2026-08-28T17:54:15Z</time>
  <course>68.57</course>
  <speed>4.973137842449171</speed>
  <fix>3d</fix>
</trkpt>
<trkpt lat="40.0716556" lon="-105.2289177">
  <ele>1583.0</ele>
  <time>2026-08-28T17:54:15Z</time>
  <course>67.44</course>
  <speed>5.0</speed>
  <fix>3d</fix>
</trkpt>
<trkpt lat="40.071661" lon="-105.2289001">
  <ele>1582.93</ele>
  <time>2026-08-28T17:54:15Z</time>
  <course>68.56</course>
  <speed>4.973137842449171</speed>
  <fix>3d</fix>
</trkpt>
<trkpt lat="40.0716591" lon="-105.2289069">
  <ele>1583.0</ele>
  <time>2026-08-28T17:54:15Z</time>
  <course>67.45</course>
  <speed>5.0</speed>
  <fix>3d</fix>
</trkpt>
<trkpt lat="40.0716628" lon="-105.2288947">
  <ele>1582.93</ele>
  <time>2026-08-28T17:54:15Z</time>
  <course>68.56</course>
  <speed>4.973137842449171</speed>
  <fix>3d</fix>
</trkpt>
<trkpt lat="40.0716591" lon="-105.2289069">
  <ele>1583.0</ele>
  <time>2026-08-28T17:54:15Z</time>
  <course>67.45</course>
  <speed>5.0</speed>
  <fix>3d</fix>
</trkpt>
<trkpt lat="40.0716645" lon="-105.2288893">
  <ele>1582.93</ele>
  <time>2026-08-28T17:54:15Z</time>
  <course>68.56</course>
  <speed>4.973137842449171</speed>
  <fix>3d</fix>
</trkpt>
<trkpt lat="40.0716625" lon="-105.228896">
  <ele>1583.0</ele>
  <time>2026-08-28T17:54:15Z</time>
  <course>67.45</course>
  <speed>5.01</speed>
  <fix>3d</fix>
</trkpt>
<trkpt lat="40.0716662" lon="-105.2288839">
  <ele>1582.93</ele>
  <time>2026-08-28T17:54:15Z</time>
  <course>68.56</course>
  <speed>4.973137842449171</speed>
  <fix>3d</fix>
</trkpt>
<trkpt lat="40.0716625" lon="-105.228896">
  <ele>1583.0</ele>
  <time>2026-08-28T17:54:15Z</time>
  <course>67.45</course>
  <speed>5.01</speed>
  <fix>3d</fix>
</trkpt>
<trkpt lat="40.0716679" lon="-105.2288784">
  <ele>1582.93</ele>
  <time>2026-08-28T17:54:15Z</time>
  <course>68.56</course>
  <speed>4.982388985215827</speed>
  <fix>3d</fix>
</trkpt>
<trkpt lat="40.071666" lon="-105.2288851">
  <ele>1583.0</ele>
  <time>2026-08-28T17:54:15Z</time>
  <course>67.45</course>
  <speed>5.01</speed>
  <fix>3d</fix>
</trkpt>
<trkpt lat="40.0716697" lon="-105.2288729">
  <ele>1582.93</ele>
  <time>2026-08-28T17:54:15Z</time>
  <course>68.56</course>
  <speed>4.982388985215827</speed>
  <fix>3d</fix>
</trkpt>
<trkpt lat="40.071666" lon="-105.2288851">
  <ele>1583.0</ele>
  <time>2026-08-28T17:54:15Z</time>
  <course>67.45</course>
  <speed>5.01</speed>
  <fix>3d</fix>
</trkpt>
<trkpt lat="40.0716714" lon="-105.2288674">
  <ele>1582.93</ele>
  <time>2026-08-28T17:54:15Z</time>
  <course>68.56</course>
  <speed>4.982388985215827</speed>
  <fix>3d</fix>
</trkpt>
<trkpt lat="40.0716695" lon="-105.2288743">
  <ele>1583.0</ele>
  <time>2026-08-28T17:54:15Z</time>
  <course>67.45</course>
  <speed>5.01</speed>
  <fix>3d</fix>
</trkpt>
<trkpt lat="40.0716735" lon="-105.2288608">
  <ele>1582.93</ele>
  <time>2026-08-28T17:54:15Z</time>
  <course>68.56</course>
  <speed>4.982388985215827</speed>
  <fix>3d</fix>
</trkpt>
<trkpt lat="40.0716695" lon="-105.2288743">
  <ele>1583.0</ele>
  <time>2026-08-28T17:54:15Z</time>
  <course>67.45</course>
  <speed>5.01</speed>
  <fix>3d</fix>
</trkpt>
<trkpt lat="40.0716753" lon="-105.2288553">
  <ele>1582.93</ele>
  <time>2026-08-28T17:54:15Z</time>
  <course>68.56</course>
  <speed>4.982388985215827</speed>
  <fix>3d</fix>
</trkpt>
<trkpt lat="40.0716729" lon="-105.2288634">
  <ele>1583.0</ele>
  <time>2026-08-28T17:54:15Z</time>
  <course>67.45</course>
  <speed>5.01</speed>
  <fix>3d</fix>
</trkpt>
<trkpt lat="40.071677" lon="-105.2288499">
  <ele>1582.93</ele>
  <time>2026-08-28T17:54:15Z</time>
  <course>68.56</course>
  <speed>4.982388985215827</speed>
  <fix>3d</fix>
</trkpt>
<trkpt lat="40.0716729" lon="-105.2288634">
  <ele>1583.0</ele>
  <time>2026-08-28T17:54:15Z</time>
  <course>67.45</course>
  <speed>5.01</speed>
  <fix>3d</fix>
</trkpt>
<trkpt lat="40.0716787" lon="-105.2288444">
  <ele>1582.93</ele>
  <time>2026-08-28T17:54:15Z</time>
  <course>68.56</course>
  <speed>4.982388985215827</speed>
  <fix>3d</fix>
</trkpt>
<trkpt lat="40.0716764" lon="-105.2288525">
  <ele>1583.0</ele>
  <time>2026-08-28T17:54:15Z</time>
  <course>67.45</course>
  <speed>5.0</speed>
  <fix>3d</fix>
</trkpt>
<trkpt lat="40.0716805" lon="-105.2288389">
  <ele>1582.93</ele>
  <time>2026-08-28T17:54:15Z</time>
  <course>68.56</course>
  <speed>4.982388985215827</speed>
  <fix>3d</fix>
</trkpt>
<trkpt lat="40.0716764" lon="-105.2288525">
  <ele>1583.0</ele>
  <time>2026-08-28T17:54:15Z</time>
  <course>67.45</course>
  <speed>5.0</speed>
  <fix>3d</fix>
</trkpt>
<trkpt lat="40.0716822" lon="-105.2288335">
  <ele>1582.93</ele>
  <time>2026-08-28T17:54:15Z</time>
  <course>68.56</course>
  <speed>4.982388985215827</speed>
  <fix>3d</fix>
</trkpt>
<trkpt lat="40.0716798" lon="-105.2288417">
  <ele>1583.0</ele>
  <time>2026-08-28T17:54:16Z</time>
  <course>67.45</course>
  <speed>5.0</speed>
  <fix>3d</fix>
</trkpt>
<trkpt lat="40.0716839" lon="-105.2288281">
  <ele>1582.93</ele>
  <time>2026-08-28T17:54:16Z</time>
  <course>68.56</course>
  <speed>4.973137842449171</speed>
  <fix>3d</fix>
</trkpt>
<trkpt lat="40.0716798" lon="-105.2288417">
  <ele>1583.0</ele>
  <time>2026-08-28T17:54:16Z</time>
  <course>67.45</course>
  <speed>5.0</speed>
  <fix>3d</fix>
</trkpt>
<trkpt lat="40.0716857" lon="-105.2288227">
  <ele>1582.93</ele>
  <time>2026-08-28T17:54:16Z</time>
  <course>68.57</course>
  <speed>4.973137842449171</speed>
  <fix>3d</fix>
</trkpt>
<trkpt lat="40.0716832" lon="-105.2288308">
  <ele>1583.0</ele>
  <time>2026-08-28T17:54:16Z</time>
  <course>67.46</course>
  <speed>4.99</speed>
  <fix>3d</fix>
</trkpt>
<trkpt lat="40.0716874" lon="-105.2288173">
  <ele>1582.93</ele>
  <time>2026-08-28T17:54:16Z</time>
  <course>68.57</course>
  <speed>4.973137842449171</speed>
  <fix>3d</fix>
</trkpt>
<trkpt lat="40.0716832" lon="-105.2288308">
  <ele>1583.0</ele>
  <time>2026-08-28T17:54:16Z</time>
  <course>67.46</course>
  <speed>4.99</speed>
  <fix>3d</fix>
</trkpt>
<trkpt lat="40.0716891" lon="-105.2288119">
  <ele>1582.93</ele>
  <time>2026-08-28T17:54:16Z</time>
  <course>68.57</course>
  <speed>4.969346033433373</speed>
  <fix>3d</fix>
</trkpt>
<trkpt lat="40.0716867" lon="-105.2288199">
  <ele>1583.0</ele>
  <time>2026-08-28T17:54:16Z</time>
  <course>67.46</course>
  <speed>4.99</speed>
  <fix>3d</fix>
</trkpt>
<trkpt lat="40.0716908" lon="-105.2288066">
  <ele>1582.93</ele>
  <time>2026-08-28T17:54:16Z</time>
  <course>68.57</course>
  <speed>4.960090724976712</speed>
  <fix>3d</fix>
</trkpt>
<trkpt lat="40.0716867" lon="-105.2288199">
  <ele>1583.0</ele>
  <time>2026-08-28T17:54:16Z</time>
  <course>67.46</course>
  <speed>4.99</speed>
  <fix>3d</fix>
</trkpt>
<trkpt lat="40.0716925" lon="-105.2288012">
  <ele>1582.93</ele>
  <time>2026-08-28T17:54:16Z</time>
  <course>68.56</course>
  <speed>4.960090724976712</speed>
  <fix>3d</fix>
</trkpt>
<trkpt lat="40.0716902" lon="-105.2288092">
  <ele>1583.0</ele>
  <time>2026-08-28T17:54:16Z</time>
  <course>67.46</course>
  <speed>4.99</speed>
  <fix>3d</fix>
</trkpt>
<trkpt lat="40.0716942" lon="-105.2287958">
  <ele>1582.93</ele>
  <time>2026-08-28T17:54:16Z</time>
  <course>68.56</course>
  <speed>4.960090724976712</speed>
  <fix>3d</fix>
</trkpt>
<trkpt lat="40.0716902" lon="-105.2288092">
  <ele>1583.0</ele>
  <time>2026-08-28T17:54:16Z</time>
  <course>67.46</course>
  <speed>4.99</speed>
  <fix>3d</fix>
</trkpt>
<trkpt lat="40.0716955" lon="-105.2287915">
  <ele>1582.93</ele>
  <time>2026-08-28T17:54:16Z</time>
  <course>68.56</course>
  <speed>4.960090724976712</speed>
  <fix>3d</fix>
</trkpt>
<trkpt lat="40.0716935" lon="-105.2287983">
  <ele>1583.0</ele>
  <time>2026-08-28T17:54:16Z</time>
  <course>67.46</course>
  <speed>4.99</speed>
  <fix>3d</fix>
</trkpt>
<trkpt lat="40.0716973" lon="-105.2287861">
  <ele>1582.93</ele>
  <time>2026-08-28T17:54:16Z</time>
  <course>68.56</course>
  <speed>4.960090724976712</speed>
  <fix>3d</fix>
</trkpt>
<trkpt lat="40.0716935" lon="-105.2287983">
  <ele>1583.0</ele>
  <time>2026-08-28T17:54:16Z</time>
  <course>67.46</course>
  <speed>4.99</speed>
  <fix>3d</fix>
</trkpt>
<trkpt lat="40.071699" lon="-105.2287807">
  <ele>1582.93</ele>
  <time>2026-08-28T17:54:16Z</time>
  <course>68.56</course>
  <speed>4.960090724976712</speed>
  <fix>3d</fix>
</trkpt>
<trkpt lat="40.071697" lon="-105.2287875">
  <ele>1583.0</ele>
  <time>2026-08-28T17:54:16Z</time>
  <course>67.46</course>
  <speed>4.99</speed>
  <fix>3d</fix>
</trkpt>
<trkpt lat="40.0717007" lon="-105.2287753">
  <ele>1582.93</ele>
  <time>2026-08-28T17:54:16Z</time>
  <course>68.56</course>
  <speed>4.973137842449171</speed>
  <fix>3d</fix>
</trkpt>
<trkpt lat="40.071697" lon="-105.2287875">
  <ele>1583.0</ele>
  <time>2026-08-28T17:54:16Z</time>
  <course>67.46</course>
  <speed>4.99</speed>
  <fix>3d</fix>
</trkpt>
<trkpt lat="40.0717024" lon="-105.2287698">
  <ele>1582.93</ele>
  <time>2026-08-28T17:54:16Z</time>
  <course>68.56</course>
  <speed>4.973137842449171</speed>
  <fix>3d</fix>
</trkpt>
<trkpt lat="40.0717005" lon="-105.2287767">
  <ele>1583.0</ele>
  <time>2026-08-28T17:54:16Z</time>
  <course>67.46</course>
  <speed>4.99</speed>
  <fix>3d</fix>
</trkpt>
<trkpt lat="40.0717042" lon="-105.2287644">
  <ele>1582.93</ele>
  <time>2026-08-28T17:54:16Z</time>
  <course>68.56</course>
  <speed>4.973137842449171</speed>
  <fix>3d</fix>
</trkpt>
<trkpt lat="40.0717005" lon="-105.2287767">
  <ele>1583.0</ele>
  <time>2026-08-28T17:54:16Z</time>
  <course>67.46</course>
  <speed>4.99</speed>
  <fix>3d</fix>
</trkpt>
<trkpt lat="40.0717059" lon="-105.2287589">
  <ele>1582.93</ele>
  <time>2026-08-28T17:54:16Z</time>
  <course>68.56</course>
  <speed>4.973137842449171</speed>
  <fix>3d</fix>
</trkpt>
<trkpt lat="40.0717039" lon="-105.2287658">
  <ele>1583.0</ele>
  <time>2026-08-28T17:54:16Z</time>
  <course>67.46</course>
  <speed>4.99</speed>
  <fix>3d</fix>
</trkpt>
<trkpt lat="40.0717076" lon="-105.2287534">
  <ele>1582.93</ele>
  <time>2026-08-28T17:54:16Z</time>
  <course>68.56</course>
  <speed>4.973137842449171</speed>
  <fix>3d</fix>
</trkpt>
<trkpt lat="40.0717039" lon="-105.2287658">
  <ele>1583.0</ele>
  <time>2026-08-28T17:54:16Z</time>
  <course>67.46</course>
  <speed>4.99</speed>
  <fix>3d</fix>
</trkpt>
<trkpt lat="40.0717097" lon="-105.2287469">
  <ele>1582.93</ele>
  <time>2026-08-28T17:54:16Z</time>
  <course>68.56</course>
  <speed>4.973137842449171</speed>
  <fix>3d</fix>
</trkpt>
<trkpt lat="40.0717073" lon="-105.228755">
  <ele>1583.0</ele>
  <time>2026-08-28T17:54:16Z</time>
  <course>67.46</course>
  <speed>4.99</speed>
  <fix>3d</fix>
</trkpt>
<trkpt lat="40.0717115" lon="-105.2287414">
  <ele>1582.94</ele>
  <time>2026-08-28T17:54:16Z</time>
  <course>68.56</course>
  <speed>4.982388985215827</speed>
  <fix>3d</fix>
</trkpt>
<trkpt lat="40.0717073" lon="-105.228755">
  <ele>1583.0</ele>
  <time>2026-08-28T17:54:16Z</time>
  <course>67.46</course>
  <speed>4.99</speed>
  <fix>3d</fix>
</trkpt>
<trkpt lat="40.0717132" lon="-105.228736">
  <ele>1582.94</ele>
  <time>2026-08-28T17:54:16Z</time>
  <course>68.56</course>
  <speed>4.982388985215827</speed>
  <fix>3d</fix>
</trkpt>
<trkpt lat="40.0717108" lon="-105.2287442">
  <ele>1583.0</ele>
  <time>2026-08-28T17:54:16Z</time>
  <course>67.46</course>
  <speed>4.99</speed>
  <fix>3d</fix>
</trkpt>
<trkpt lat="40.0717149" lon="-105.2287305">
  <ele>1582.94</ele>
  <time>2026-08-28T17:54:16Z</time>
  <course>68.55</course>
  <speed>4.982388985215827</speed>
  <fix>3d</fix>
</trkpt>
<trkpt lat="40.0717108" lon="-105.2287442">
  <ele>1583.0</ele>
  <time>2026-08-28T17:54:16Z</time>
  <course>67.46</course>
  <speed>4.99</speed>
  <fix>3d</fix>
</trkpt>
<trkpt lat="40.0717166" lon="-105.2287251">
  <ele>1582.93</ele>
  <time>2026-08-28T17:54:16Z</time>
  <course>68.55</course>
  <speed>4.973137842449171</speed>
  <fix>3d</fix>
</trkpt>
<trkpt lat="40.0717142" lon="-105.2287333">
  <ele>1583.0</ele>
  <time>2026-08-28T17:54:16Z</time>
  <course>67.46</course>
  <speed>4.99</speed>
  <fix>3d</fix>
</trkpt>
<trkpt lat="40.0717184" lon="-105.2287197">
  <ele>1582.93</ele>
  <time>2026-08-28T17:54:16Z</time>
  <course>68.55</course>
  <speed>4.973137842449171</speed>
  <fix>3d</fix>
</trkpt>
<trkpt lat="40.0717142" lon="-105.2287333">
  <ele>1583.0</ele>
  <time>2026-08-28T17:54:16Z</time>
  <course>67.46</course>
  <speed>4.99</speed>
  <fix>3d</fix>
</trkpt>
<trkpt lat="40.0717201" lon="-105.2287143">
  <ele>1582.93</ele>
  <time>2026-08-28T17:54:16Z</time>
  <course>68.55</course>
  <speed>4.973137842449171</speed>
  <fix>3d</fix>
</trkpt>
<trkpt lat="40.0717176" lon="-105.2287225">
  <ele>1583.0</ele>
  <time>2026-08-28T17:54:16Z</time>
  <course>67.46</course>
  <speed>4.99</speed>
  <fix>3d</fix>
</trkpt>
<trkpt lat="40.0717218" lon="-105.2287089">
  <ele>1582.93</ele>
  <time>2026-08-28T17:54:16Z</time>
  <course>68.55</course>
  <speed>4.973137842449171</speed>
  <fix>3d</fix>
</trkpt>
<trkpt lat="40.0717176" lon="-105.2287225">
  <ele>1583.0</ele>
  <time>2026-08-28T17:54:16Z</time>
  <course>67.46</course>
  <speed>4.99</speed>
  <fix>3d</fix>
</trkpt>
<trkpt lat="40.0717235" lon="-105.2287035">
  <ele>1582.93</ele>
  <time>2026-08-28T17:54:16Z</time>
  <course>68.55</course>
  <speed>4.973137842449171</speed>
  <fix>3d</fix>
</trkpt>
<trkpt lat="40.0717211" lon="-105.2287116">
  <ele>1583.0</ele>
  <time>2026-08-28T17:54:16Z</time>
  <course>67.46</course>
  <speed>4.99</speed>
  <fix>3d</fix>
</trkpt>
<trkpt lat="40.0717252" lon="-105.2286982">
  <ele>1582.93</ele>
  <time>2026-08-28T17:54:16Z</time>
  <course>68.55</course>
  <speed>4.960090724976712</speed>
  <fix>3d</fix>
</trkpt>
<trkpt lat="40.0717211" lon="-105.2287116">
  <ele>1583.0</ele>
  <time>2026-08-28T17:54:16Z</time>
  <course>67.46</course>
  <speed>4.99</speed>
  <fix>3d</fix>
</trkpt>
<trkpt lat="40.0717269" lon="-105.2286928">
  <ele>1582.92</ele>
  <time>2026-08-28T17:54:16Z</time>
  <course>68.55</course>
  <speed>4.960090724976712</speed>
  <fix>3d</fix>
</trkpt>
<trkpt lat="40.0717245" lon="-105.2287007">
  <ele>1583.0</ele>
  <time>2026-08-28T17:54:16Z</time>
  <course>67.46</course>
  <speed>4.99</speed>
  <fix>3d</fix>
</trkpt>
<trkpt lat="40.0717286" lon="-105.2286875">
  <ele>1582.92</ele>
  <time>2026-08-28T17:54:16Z</time>
  <course>68.55</course>
  <speed>4.960090724976712</speed>
  <fix>3d</fix>
</trkpt>
<trkpt lat="40.0717245" lon="-105.2287007">
  <ele>1583.0</ele>
  <time>2026-08-28T17:54:16Z</time>
  <course>67.46</course>
  <speed>4.99</speed>
  <fix>3d</fix>
</trkpt>
<trkpt lat="40.0717303" lon="-105.2286821">
  <ele>1582.92</ele>
  <time>2026-08-28T17:54:16Z</time>
  <course>68.55</course>
  <speed>4.960090724976712</speed>
  <fix>3d</fix>
</trkpt>
<trkpt lat="40.071728" lon="-105.22869">
  <ele>1583.0</ele>
  <time>2026-08-28T17:54:16Z</time>
  <course>67.46</course>
  <speed>4.99</speed>
  <fix>3d</fix>
</trkpt>
<trkpt lat="40.0717317" lon="-105.2286778">
  <ele>1582.92</ele>
  <time>2026-08-28T17:54:16Z</time>
  <course>68.55</course>
  <speed>4.960090724976712</speed>
  <fix>3d</fix>
</trkpt>
<trkpt lat="40.071728" lon="-105.22869">
  <ele>1583.0</ele>
  <time>2026-08-28T17:54:16Z</time>
  <course>67.46</course>
  <speed>4.99</speed>
  <fix>3d</fix>
</trkpt>
<trkpt lat="40.0717334" lon="-105.2286724">
  <ele>1582.92</ele>
  <time>2026-08-28T17:54:16Z</time>
  <course>68.55</course>
  <speed>4.960090724976712</speed>
  <fix>3d</fix>
</trkpt>
<trkpt lat="40.0717314" lon="-105.2286791">
  <ele>1583.0</ele>
  <time>2026-08-28T17:54:16Z</time>
  <course>67.46</course>
  <speed>5.0</speed>
  <fix>3d</fix>
</trkpt>
<trkpt lat="40.0717351" lon="-105.228667">
  <ele>1582.92</ele>
  <time>2026-08-28T17:54:16Z</time>
  <course>68.55</course>
  <speed>4.973137842449171</speed>
  <fix>3d</fix>
</trkpt>
<trkpt lat="40.0717314" lon="-105.2286791">
  <ele>1583.0</ele>
  <time>2026-08-28T17:54:16Z</time>
  <course>67.46</course>
  <speed>5.0</speed>
  <fix>3d</fix>
</trkpt>
<trkpt lat="40.0717368" lon="-105.2286616">
  <ele>1582.92</ele>
  <time>2026-08-28T17:54:16Z</time>
  <course>68.54</course>
  <speed>4.973137842449171</speed>
  <fix>3d</fix>
</trkpt>
<trkpt lat="40.0717348" lon="-105.2286683">
  <ele>1583.0</ele>
  <time>2026-08-28T17:54:16Z</time>
  <course>67.46</course>
  <speed>5.0</speed>
  <fix>3d</fix>
</trkpt>
<trkpt lat="40.0717385" lon="-105.2286561">
  <ele>1582.92</ele>
  <time>2026-08-28T17:54:16Z</time>
  <course>68.54</course>
  <speed>4.973137842449171</speed>
  <fix>3d</fix>
</trkpt>
<trkpt lat="40.0717348" lon="-105.2286683">
  <ele>1583.0</ele>
  <time>2026-08-28T17:54:16Z</time>
  <course>67.46</course>
  <speed>5.0</speed>
  <fix>3d</fix>
</trkpt>
<trkpt lat="40.0717403" lon="-105.2286507">
  <ele>1582.92</ele>
  <time>2026-08-28T17:54:16Z</time>
  <course>68.54</course>
  <speed>4.973137842449171</speed>
  <fix>3d</fix>
</trkpt>
<trkpt lat="40.0717383" lon="-105.2286574">
  <ele>1583.0</ele>
  <time>2026-08-28T17:54:16Z</time>
  <course>67.46</course>
  <speed>5.0</speed>
  <fix>3d</fix>
</trkpt>
<trkpt lat="40.071742" lon="-105.2286452">
  <ele>1582.92</ele>
  <time>2026-08-28T17:54:16Z</time>
  <course>68.54</course>
  <speed>4.982388985215827</speed>
  <fix>3d</fix>
</trkpt>
<trkpt lat="40.0717383" lon="-105.2286574">
  <ele>1583.0</ele>
  <time>2026-08-28T17:54:16Z</time>
  <course>67.46</course>
  <speed>5.0</speed>
  <fix>3d</fix>
</trkpt>
<trkpt lat="40.0717437" lon="-105.2286397">
  <ele>1582.92</ele>
  <time>2026-08-28T17:54:16Z</time>
  <course>68.54</course>
  <speed>4.982388985215827</speed>
  <fix>3d</fix>
</trkpt>
<trkpt lat="40.0717418" lon="-105.2286465">
  <ele>1583.0</ele>
  <time>2026-08-28T17:54:16Z</time>
  <course>67.46</course>
  <speed>5.01</speed>
  <fix>3d</fix>
</trkpt>
<trkpt lat="40.0717458" lon="-105.2286331">
  <ele>1582.92</ele>
  <time>2026-08-28T17:54:16Z</time>
  <course>68.54</course>
  <speed>4.982388985215827</speed>
  <fix>3d</fix>
</trkpt>
<trkpt lat="40.0717418" lon="-105.2286465">
  <ele>1583.0</ele>
  <time>2026-08-28T17:54:16Z</time>
  <course>67.46</course>
  <speed>5.01</speed>
  <fix>3d</fix>
</trkpt>
<trkpt lat="40.0717476" lon="-105.2286276">
  <ele>1582.92</ele>
  <time>2026-08-28T17:54:16Z</time>
  <course>68.54</course>
  <speed>4.982388985215827</speed>
  <fix>3d</fix>
</trkpt>
<trkpt lat="40.0717452" lon="-105.2286357">
  <ele>1583.0</ele>
  <time>2026-08-28T17:54:16Z</time>
  <course>67.46</course>
  <speed>5.01</speed>
  <fix>3d</fix>
</trkpt>
<trkpt lat="40.0717493" lon="-105.2286221">
  <ele>1582.92</ele>
  <time>2026-08-28T17:54:16Z</time>
  <course>68.54</course>
  <speed>4.982388985215827</speed>
  <fix>3d</fix>
</trkpt>
<trkpt lat="40.0717452" lon="-105.2286357">
  <ele>1583.0</ele>
  <time>2026-08-28T17:54:16Z</time>
  <course>67.46</course>
  <speed>5.01</speed>
  <fix>3d</fix>
</trkpt>
<trkpt lat="40.071751" lon="-105.2286167">
  <ele>1582.92</ele>
  <time>2026-08-28T17:54:16Z</time>
  <course>68.54</course>
  <speed>4.982388985215827</speed>
  <fix>3d</fix>
</trkpt>
<trkpt lat="40.0717487" lon="-105.2286248">
  <ele>1583.0</ele>
  <time>2026-08-28T17:54:16Z</time>
  <course>67.46</course>
  <speed>5.0</speed>
  <fix>3d</fix>
</trkpt>
<trkpt lat="40.0717528" lon="-105.2286112">
  <ele>1582.92</ele>
  <time>2026-08-28T17:54:16Z</time>
  <course>68.54</course>
  <speed>4.982388985215827</speed>
  <fix>3d</fix>
</trkpt>
<trkpt lat="40.0717487" lon="-105.2286248">
  <ele>1583.0</ele>
  <time>2026-08-28T17:54:16Z</time>
  <course>67.46</course>
  <speed>5.0</speed>
  <fix>3d</fix>
</trkpt>
<trkpt lat="40.0717545" lon="-105.2286058">
  <ele>1582.92</ele>
  <time>2026-08-28T17:54:16Z</time>
  <course>68.54</course>
  <speed>4.982388985215827</speed>
  <fix>3d</fix>
</trkpt>
<trkpt lat="40.0717521" lon="-105.2286139">
  <ele>1583.0</ele>
  <time>2026-08-28T17:54:16Z</time>
  <course>67.46</course>
  <speed>5.0</speed>
  <fix>3d</fix>
</trkpt>
<trkpt lat="40.0717562" lon="-105.2286003">
  <ele>1582.92</ele>
  <time>2026-08-28T17:54:16Z</time>
  <course>68.54</course>
  <speed>4.982388985215827</speed>
  <fix>3d</fix>
</trkpt>
<trkpt lat="40.0717521" lon="-105.2286139">
  <ele>1583.0</ele>
  <time>2026-08-28T17:54:16Z</time>
  <course>67.46</course>
  <speed>5.0</speed>
  <fix>3d</fix>
</trkpt>
<trkpt lat="40.071758" lon="-105.2285949">
  <ele>1582.92</ele>
  <time>2026-08-28T17:54:16Z</time>
  <course>68.54</course>
  <speed>4.973137842449171</speed>
  <fix>3d</fix>
</trkpt>
<trkpt lat="40.0717556" lon="-105.228603">
  <ele>1583.0</ele>
  <time>2026-08-28T17:54:16Z</time>
  <course>67.46</course>
  <speed>5.0</speed>
  <fix>3d</fix>
</trkpt>
<trkpt lat="40.0717597" lon="-105.2285896">
  <ele>1582.92</ele>
  <time>2026-08-28T17:54:16Z</time>
  <course>68.54</course>
  <speed>4.973137842449171</speed>
  <fix>3d</fix>
</trkpt>
<trkpt lat="40.0717556" lon="-105.228603">
  <ele>1583.0</ele>
  <time>2026-08-28T17:54:16Z</time>
  <course>67.46</course>
  <speed>5.0</speed>
  <fix>3d</fix>
</trkpt>
<trkpt lat="40.0717614" lon="-105.2285842">
  <ele>1582.91</ele>
  <time>2026-08-28T17:54:16Z</time>
  <course>68.54</course>
  <speed>4.973137842449171</speed>
  <fix>3d</fix>
</trkpt>
<trkpt lat="40.071759" lon="-105.2285923">
  <ele>1583.0</ele>
  <time>2026-08-28T17:54:16Z</time>
  <course>67.46</course>
  <speed>4.99</speed>
  <fix>3d</fix>
</trkpt>
<trkpt lat="40.0717631" lon="-105.2285788">
  <ele>1582.91</ele>
  <time>2026-08-28T17:54:16Z</time>
  <course>68.53</course>
  <speed>4.973137842449171</speed>
  <fix>3d</fix>
</trkpt>
<trkpt lat="40.071759" lon="-105.2285923">
  <ele>1583.0</ele>
  <time>2026-08-28T17:54:16Z</time>
  <course>67.46</course>
  <speed>4.99</speed>
  <fix>3d</fix>
</trkpt>
<trkpt lat="40.0717648" lon="-105.2285734">
  <ele>1582.91</ele>
  <time>2026-08-28T17:54:16Z</time>
  <course>68.53</course>
  <speed>4.960090724976712</speed>
  <fix>3d</fix>
</trkpt>
<trkpt lat="40.0717625" lon="-105.2285814">
  <ele>1583.0</ele>
  <time>2026-08-28T17:54:16Z</time>
  <course>67.46</course>
  <speed>4.99</speed>
  <fix>3d</fix>
</trkpt>
<trkpt lat="40.0717665" lon="-105.2285681">
  <ele>1582.91</ele>
  <time>2026-08-28T17:54:16Z</time>
  <course>68.53</course>
  <speed>4.960090724976712</speed>
  <fix>3d</fix>
</trkpt>
<trkpt lat="40.0717625" lon="-105.2285814">
  <ele>1583.0</ele>
  <time>2026-08-28T17:54:16Z</time>
  <course>67.46</course>
  <speed>4.99</speed>
  <fix>3d</fix>
</trkpt>
<trkpt lat="40.0717679" lon="-105.2285638">
  <ele>1582.91</ele>
  <time>2026-08-28T17:54:16Z</time>
  <course>68.53</course>
  <speed>4.960090724976712</speed>
  <fix>3d</fix>
</trkpt>
<trkpt lat="40.0717659" lon="-105.2285705">
  <ele>1583.0</ele>
  <time>2026-08-28T17:54:16Z</time>
  <course>67.46</course>
  <speed>4.99</speed>
  <fix>3d</fix>
</trkpt>
<trkpt lat="40.0717696" lon="-105.2285583">
  <ele>1582.91</ele>
  <time>2026-08-28T17:54:16Z</time>
  <course>68.53</course>
  <speed>4.960090724976712</speed>
  <fix>3d</fix>
</trkpt>
<trkpt lat="40.0717659" lon="-105.2285705">
  <ele>1583.0</ele>
  <time>2026-08-28T17:54:16Z</time>
  <course>67.46</course>
  <speed>4.99</speed>
  <fix>3d</fix>
</trkpt>
<trkpt lat="40.0717713" lon="-105.2285529">
  <ele>1582.91</ele>
  <time>2026-08-28T17:54:16Z</time>
  <course>68.53</course>
  <speed>4.963889603929563</speed>
  <fix>3d</fix>
</trkpt>
<trkpt lat="40.0717693" lon="-105.2285598">
  <ele>1583.0</ele>
  <time>2026-08-28T17:54:16Z</time>
  <course>67.46</course>
  <speed>4.99</speed>
  <fix>3d</fix>
</trkpt>
<trkpt lat="40.071773" lon="-105.2285475">
  <ele>1582.91</ele>
  <time>2026-08-28T17:54:16Z</time>
  <course>68.53</course>
  <speed>4.973137842449171</speed>
  <fix>3d</fix>
</trkpt>
<trkpt lat="40.0717693" lon="-105.2285598">
  <ele>1583.0</ele>
  <time>2026-08-28T17:54:16Z</time>
  <course>67.46</course>
  <speed>4.99</speed>
  <fix>3d</fix>
</trkpt>
<trkpt lat="40.0717748" lon="-105.2285421">
  <ele>1582.91</ele>
  <time>2026-08-28T17:54:16Z</time>
  <course>68.53</course>
  <speed>4.973137842449171</speed>
  <fix>3d</fix>
</trkpt>
<trkpt lat="40.0717728" lon="-105.2285489">
  <ele>1583.0</ele>
  <time>2026-08-28T17:54:16Z</time>
  <course>67.46</course>
  <speed>4.99</speed>
  <fix>3d</fix>
</trkpt>
<trkpt lat="40.0717765" lon="-105.2285366">
  <ele>1582.91</ele>
  <time>2026-08-28T17:54:16Z</time>
  <course>68.53</course>
  <speed>4.973137842449171</speed>
  <fix>3d</fix>
</trkpt>
<trkpt lat="40.0717728" lon="-105.2285489">
  <ele>1583.0</ele>
  <time>2026-08-28T17:54:16Z</time>
  <course>67.46</course>
  <speed>4.99</speed>
  <fix>3d</fix>
</trkpt>
<trkpt lat="40.0717782" lon="-105.2285312">
  <ele>1582.91</ele>
  <time>2026-08-28T17:54:16Z</time>
  <course>68.53</course>
  <speed>4.973137842449171</speed>
  <fix>3d</fix>
</trkpt>
<trkpt lat="40.0717762" lon="-105.2285381">
  <ele>1583.0</ele>
  <time>2026-08-28T17:54:16Z</time>
  <course>67.46</course>
  <speed>4.99</speed>
  <fix>3d</fix>
</trkpt>
<trkpt lat="40.07178" lon="-105.2285257">
  <ele>1582.91</ele>
  <time>2026-08-28T17:54:16Z</time>
  <course>68.53</course>
  <speed>4.973137842449171</speed>
  <fix>3d</fix>
</trkpt>
<trkpt lat="40.0717762" lon="-105.2285381">
  <ele>1583.0</ele>
  <time>2026-08-28T17:54:16Z</time>
  <course>67.46</course>
  <speed>4.99</speed>
  <fix>3d</fix>
</trkpt>
<trkpt lat="40.0717821" lon="-105.2285191">
  <ele>1582.91</ele>
  <time>2026-08-28T17:54:16Z</time>
  <course>68.53</course>
  <speed>4.973137842449171</speed>
  <fix>3d</fix>
</trkpt>
<trkpt lat="40.0717796" lon="-105.2285273">
  <ele>1583.0</ele>
  <time>2026-08-28T17:54:16Z</time>
  <course>67.46</course>
  <speed>4.99</speed>
  <fix>3d</fix>
</trkpt>
<trkpt lat="40.0717838" lon="-105.2285137">
  <ele>1582.9</ele>
  <time>2026-08-28T17:54:16Z</time>
  <course>68.53</course>
  <speed>4.973137842449171</speed>
  <fix>3d</fix>
</trkpt>
<trkpt lat="40.0717796" lon="-105.2285273">
  <ele>1583.0</ele>
  <time>2026-08-28T17:54:16Z</time>
  <course>67.46</course>
  <speed>4.99</speed>
  <fix>3d</fix>
</trkpt>
<trkpt lat="40.0717855" lon="-105.2285082">
  <ele>1582.9</ele>
  <time>2026-08-28T17:54:16Z</time>
  <course>68.53</course>
  <speed>4.982388985215827</speed>
  <fix>3d</fix>
</trkpt>
<trkpt lat="40.0717831" lon="-105.2285164">
  <ele>1583.0</ele>
  <time>2026-08-28T17:54:16Z</time>
  <course>67.46</course>
  <speed>4.99</speed>
  <fix>3d</fix>
</trkpt>
<trkpt lat="40.0717872" lon="-105.2285028">
  <ele>1582.9</ele>
  <time>2026-08-28T17:54:16Z</time>
  <course>68.53</course>
  <speed>4.973137842449171</speed>
  <fix>3d</fix>
</trkpt>
<trkpt lat="40.0717831" lon="-105.2285164">
  <ele>1583.0</ele>
  <time>2026-08-28T17:54:16Z</time>
  <course>67.46</course>
  <speed>4.99</speed>
  <fix>3d</fix>
</trkpt>
<trkpt lat="40.071789" lon="-105.2284973">
  <ele>1582.9</ele>
  <time>2026-08-28T17:54:16Z</time>
  <course>68.53</course>
  <speed>4.973137842449171</speed>
  <fix>3d</fix>
</trkpt>
<trkpt lat="40.0717865" lon="-105.2285056">
  <ele>1583.0</ele>
  <time>2026-08-28T17:54:16Z</time>
  <course>67.46</course>
  <speed>4.99</speed>
  <fix>3d</fix>
</trkpt>
<trkpt lat="40.0717907" lon="-105.2284919">
  <ele>1582.9</ele>
  <time>2026-08-28T17:54:16Z</time>
  <course>68.52</course>
  <speed>4.973137842449171</speed>
  <fix>3d</fix>
</trkpt>
<trkpt lat="40.0717865" lon="-105.2285056">
  <ele>1583.0</ele>
  <time>2026-08-28T17:54:16Z</time>
  <course>67.46</course>
  <speed>4.99</speed>
  <fix>3d</fix>
</trkpt>
<trkpt lat="40.0717924" lon="-105.2284865">
  <ele>1582.89</ele>
  <time>2026-08-28T17:54:16Z</time>
  <course>68.52</course>
  <speed>4.973137842449171</speed>
  <fix>3d</fix>
</trkpt>
<trkpt lat="40.07179" lon="-105.2284947">
  <ele>1583.0</ele>
  <time>2026-08-28T17:54:16Z</time>
  <course>67.46</course>
  <speed>4.99</speed>
  <fix>3d</fix>
</trkpt>
<trkpt lat="40.0717941" lon="-105.2284812">
  <ele>1582.89</ele>
  <time>2026-08-28T17:54:16Z</time>
  <course>68.52</course>
  <speed>4.973137842449171</speed>
  <fix>3d</fix>
</trkpt>
<trkpt lat="40.07179" lon="-105.2284947">
  <ele>1583.0</ele>
  <time>2026-08-28T17:54:16Z</time>
  <course>67.46</course>
  <speed>4.99</speed>
  <fix>3d</fix>
</trkpt>
<trkpt lat="40.0717958" lon="-105.2284758">
  <ele>1582.89</ele>
  <time>2026-08-28T17:54:16Z</time>
  <course>68.52</course>
  <speed>4.973137842449171</speed>
  <fix>3d</fix>
</trkpt>
<trkpt lat="40.0717934" lon="-105.2284838">
  <ele>1583.0</ele>
  <time>2026-08-28T17:54:16Z</time>
  <course>67.46</course>
  <speed>4.99</speed>
  <fix>3d</fix>
</trkpt>
<trkpt lat="40.0717975" lon="-105.2284704">
  <ele>1582.9</ele>
  <time>2026-08-28T17:54:16Z</time>
  <course>68.52</course>
  <speed>4.963889603929563</speed>
  <fix>3d</fix>
</trkpt>
<trkpt lat="40.0717934" lon="-105.2284838">
  <ele>1583.0</ele>
  <time>2026-08-28T17:54:16Z</time>
  <course>67.46</course>
  <speed>4.99</speed>
  <fix>3d</fix>
</trkpt>
<trkpt lat="40.0717992" lon="-105.2284651">
  <ele>1582.9</ele>
  <time>2026-08-28T17:54:16Z</time>
  <course>68.52</course>
  <speed>4.960090724976712</speed>
  <fix>3d</fix>
</trkpt>
<trkpt lat="40.0717968" lon="-105.2284731">
  <ele>1583.0</ele>
  <time>2026-08-28T17:54:16Z</time>
  <course>67.46</course>
  <speed>4.99</speed>
  <fix>3d</fix>
</trkpt>
<trkpt lat="40.0718009" lon="-105.2284597">
  <ele>1582.9</ele>
  <time>2026-08-28T17:54:16Z</time>
  <course>68.52</course>
  <speed>4.960090724976712</speed>
  <fix>3d</fix>
</trkpt>
<trkpt lat="40.0717968" lon="-105.2284731">
  <ele>1583.0</ele>
  <time>2026-08-28T17:54:16Z</time>
  <course>67.46</course>
  <speed>4.99</speed>
  <fix>3d</fix>
</trkpt>
<trkpt lat="40.0718026" lon="-105.2284544">
  <ele>1582.89</ele>
  <time>2026-08-28T17:54:16Z</time>
  <course>68.52</course>
  <speed>4.960090724976712</speed>
  <fix>3d</fix>
</trkpt>
<trkpt lat="40.0718003" lon="-105.2284622">
  <ele>1583.0</ele>
  <time>2026-08-28T17:54:16Z</time>
  <course>67.46</course>
  <speed>4.99</speed>
  <fix>3d</fix>
</trkpt>
<trkpt lat="40.071804" lon="-105.22845">
  <ele>1582.89</ele>
  <time>2026-08-28T17:54:16Z</time>
  <course>68.52</course>
  <speed>4.960090724976712</speed>
  <fix>3d</fix>
</trkpt>
<trkpt lat="40.0718003" lon="-105.2284622">
  <ele>1583.0</ele>
  <time>2026-08-28T17:54:16Z</time>
  <course>67.46</course>
  <speed>4.99</speed>
  <fix>3d</fix>
</trkpt>
<trkpt lat="40.0718057" lon="-105.2284446">
  <ele>1582.89</ele>
  <time>2026-08-28T17:54:16Z</time>
  <course>68.52</course>
  <speed>4.960090724976712</speed>
  <fix>3d</fix>
</trkpt>
<trkpt lat="40.0718037" lon="-105.2284513">
  <ele>1583.0</ele>
  <time>2026-08-28T17:54:16Z</time>
  <course>67.46</course>
  <speed>5.0</speed>
  <fix>3d</fix>
</trkpt>
<trkpt lat="40.0718074" lon="-105.2284392">
  <ele>1582.89</ele>
  <time>2026-08-28T17:54:16Z</time>
  <course>68.52</course>
  <speed>4.969346033433373</speed>
  <fix>3d</fix>
</trkpt>
<trkpt lat="40.0718037" lon="-105.2284513">
  <ele>1583.0</ele>
  <time>2026-08-28T17:54:16Z</time>
  <course>67.46</course>
  <speed>5.0</speed>
  <fix>3d</fix>
</trkpt>
<trkpt lat="40.0718091" lon="-105.2284338">
  <ele>1582.89</ele>
  <time>2026-08-28T17:54:16Z</time>
  <course>68.52</course>
  <speed>4.973137842449171</speed>
  <fix>3d</fix>
</trkpt>
<trkpt lat="40.0718071" lon="-105.2284406">
  <ele>1583.0</ele>
  <time>2026-08-28T17:54:16Z</time>
  <course>67.46</course>
  <speed>5.0</speed>
  <fix>3d</fix>
</trkpt>
<trkpt lat="40.0718108" lon="-105.2284284">
  <ele>1582.89</ele>
  <time>2026-08-28T17:54:16Z</time>
  <course>68.52</course>
  <speed>4.973137842449171</speed>
  <fix>3d</fix>
</trkpt>
<trkpt lat="40.0718071" lon="-105.2284406">
  <ele>1583.0</ele>
  <time>2026-08-28T17:54:16Z</time>
  <course>67.46</course>
  <speed>5.0</speed>
  <fix>3d</fix>
</trkpt>
<trkpt lat="40.0718126" lon="-105.2284229">
  <ele>1582.89</ele>
  <time>2026-08-28T17:54:16Z</time>
  <course>68.52</course>
  <speed>4.973137842449171</speed>
  <fix>3d</fix>
</trkpt>
<trkpt lat="40.0718106" lon="-105.2284297">
  <ele>1583.0</ele>
  <time>2026-08-28T17:54:16Z</time>
  <course>67.46</course>
  <speed>5.0</speed>
  <fix>3d</fix>
</trkpt>
<trkpt lat="40.0718143" lon="-105.2284175">
  <ele>1582.9</ele>
  <time>2026-08-28T17:54:16Z</time>
  <course>68.52</course>
  <speed>4.982388985215827</speed>
  <fix>3d</fix>
</trkpt>
<trkpt lat="40.0718106" lon="-105.2284297">
  <ele>1583.0</ele>
  <time>2026-08-28T17:54:16Z</time>
  <course>67.46</course>
  <speed>5.0</speed>
  <fix>3d</fix>
</trkpt>
<trkpt lat="40.0718164" lon="-105.2284108">
  <ele>1582.9</ele>
  <time>2026-08-28T17:54:16Z</time>
  <course>68.52</course>
  <speed>4.982388985215827</speed>
  <fix>3d</fix>
</trkpt>
<trkpt lat="40.0718141" lon="-105.2284188">
  <ele>1583.0</ele>
  <time>2026-08-28T17:54:16Z</time>
  <course>67.46</course>
  <speed>5.0</speed>
  <fix>3d</fix>
</trkpt>
<trkpt lat="40.0718181" lon="-105.2284054">
  <ele>1582.9</ele>
  <time>2026-08-28T17:54:16Z</time>
  <course>68.51</course>
  <speed>4.982388985215827</speed>
  <fix>3d</fix>
</trkpt>
<trkpt lat="40.0718141" lon="-105.2284188">
  <ele>1583.0</ele>
  <time>2026-08-28T17:54:16Z</time>
  <course>67.46</course>
  <speed>5.0</speed>
  <fix>3d</fix>
</trkpt>
<trkpt lat="40.0718199" lon="-105.2283999">
  <ele>1582.9</ele>
  <time>2026-08-28T17:54:16Z</time>
  <course>68.51</course>
  <speed>4.982388985215827</speed>
  <fix>3d</fix>
</trkpt>
<trkpt lat="40.0718175" lon="-105.228408">
  <ele>1583.0</ele>
  <time>2026-08-28T17:54:16Z</time>
  <course>67.46</course>
  <speed>5.01</speed>
  <fix>3d</fix>
</trkpt>
<trkpt lat="40.0718216" lon="-105.2283944">
  <ele>1582.9</ele>
  <time>2026-08-28T17:54:16Z</time>
  <course>68.51</course>
  <speed>4.982388985215827</speed>
  <fix>3d</fix>
</trkpt>
<trkpt lat="40.0718175" lon="-105.228408">
  <ele>1583.0</ele>
  <time>2026-08-28T17:54:16Z</time>
  <course>67.46</course>
  <speed>5.01</speed>
  <fix>3d</fix>
</trkpt>
<trkpt lat="40.0718233" lon="-105.228389">
  <ele>1582.9</ele>
  <time>2026-08-28T17:54:16Z</time>
  <course>68.51</course>
  <speed>4.982388985215827</speed>
  <fix>3d</fix>
</trkpt>
<trkpt lat="40.071821" lon="-105.2283971">
  <ele>1583.0</ele>
  <time>2026-08-28T17:54:16Z</time>
  <course>67.46</course>
  <speed>5.0</speed>
  <fix>3d</fix>
</trkpt>
<trkpt lat="40.0718251" lon="-105.2283835">
  <ele>1582.9</ele>
  <time>2026-08-28T17:54:16Z</time>
  <course>68.51</course>
  <speed>4.982388985215827</speed>
  <fix>3d</fix>
</trkpt>
<trkpt lat="40.071821" lon="-105.2283971">
  <ele>1583.0</ele>
  <time>2026-08-28T17:54:16Z</time>
  <course>67.46</course>
  <speed>5.0</speed>
  <fix>3d</fix>
</trkpt>
<trkpt lat="40.0718268" lon="-105.228378">
  <ele>1582.9</ele>
  <time>2026-08-28T17:54:16Z</time>
  <course>68.51</course>
  <speed>4.982388985215827</speed>
  <fix>3d</fix>
</trkpt>
<trkpt lat="40.0718244" lon="-105.2283862">
  <ele>1583.0</ele>
  <time>2026-08-28T17:54:16Z</time>
  <course>67.46</course>
  <speed>5.0</speed>
  <fix>3d</fix>
</trkpt>
<trkpt lat="40.0718285" lon="-105.2283726">
  <ele>1582.9</ele>
  <time>2026-08-28T17:54:16Z</time>
  <course>68.51</course>
  <speed>4.982388985215827</speed>
  <fix>3d</fix>
</trkpt>
<trkpt lat="40.0718244" lon="-105.2283862">
  <ele>1583.0</ele>
  <time>2026-08-28T17:54:16Z</time>
  <course>67.46</course>
  <speed>5.0</speed>
  <fix>3d</fix>
</trkpt>
<trkpt lat="40.0718303" lon="-105.2283672">
  <ele>1582.9</ele>
  <time>2026-08-28T17:54:16Z</time>
  <course>68.51</course>
  <speed>4.973137842449171</speed>
  <fix>3d</fix>
</trkpt>
<trkpt lat="40.0718279" lon="-105.2283754">
  <ele>1583.0</ele>
  <time>2026-08-28T17:54:16Z</time>
  <course>67.46</course>
  <speed>5.0</speed>
  <fix>3d</fix>
</trkpt>
<trkpt lat="40.071832" lon="-105.2283619">
  <ele>1582.9</ele>
  <time>2026-08-28T17:54:16Z</time>
  <course>68.51</course>
  <speed>4.973137842449171</speed>
  <fix>3d</fix>
</trkpt>
<trkpt lat="40.0718279" lon="-105.2283754">
  <ele>1583.0</ele>
  <time>2026-08-28T17:54:16Z</time>
  <course>67.46</course>
  <speed>5.0</speed>
  <fix>3d</fix>
</trkpt>
<trkpt lat="40.0718337" lon="-105.2283565">
  <ele>1582.9</ele>
  <time>2026-08-28T17:54:16Z</time>
  <course>68.51</course>
  <speed>4.973137842449171</speed>
  <fix>3d</fix>
</trkpt>
<trkpt lat="40.0718313" lon="-105.2283645">
  <ele>1583.0</ele>
  <time>2026-08-28T17:54:16Z</time>
  <course>67.46</course>
  <speed>4.99</speed>
  <fix>3d</fix>
</trkpt>
<trkpt lat="40.0718354" lon="-105.2283511">
  <ele>1582.9</ele>
  <time>2026-08-28T17:54:16Z</time>
  <course>68.51</course>
  <speed>4.973137842449171</speed>
  <fix>3d</fix>
</trkpt>
<trkpt lat="40.0718313" lon="-105.2283645">
  <ele>1583.0</ele>
  <time>2026-08-28T17:54:16Z</time>
  <course>67.46</course>
  <speed>4.99</speed>
  <fix>3d</fix>
</trkpt>
<trkpt lat="40.0718371" lon="-105.2283457">
  <ele>1582.9</ele>
  <time>2026-08-28T17:54:16Z</time>
  <course>68.51</course>
  <speed>4.960090724976712</speed>
  <fix>3d</fix>
</trkpt>
<trkpt lat="40.0718347" lon="-105.2283537">
  <ele>1583.0</ele>
  <time>2026-08-28T17:54:16Z</time>
  <course>67.46</course>
  <speed>4.99</speed>
  <fix>3d</fix>
</trkpt>
<trkpt lat="40.0718388" lon="-105.2283403">
  <ele>1582.9</ele>
  <time>2026-08-28T17:54:16Z</time>
  <course>68.51</course>
  <speed>4.960090724976712</speed>
  <fix>3d</fix>
</trkpt>
<trkpt lat="40.0718347" lon="-105.2283537">
  <ele>1583.0</ele>
  <time>2026-08-28T17:54:16Z</time>
  <course>67.46</course>
  <speed>4.99</speed>
  <fix>3d</fix>
</trkpt>
<trkpt lat="40.0718402" lon="-105.228336">
  <ele>1582.9</ele>
  <time>2026-08-28T17:54:16Z</time>
  <course>68.51</course>
  <speed>4.960090724976712</speed>
  <fix>3d</fix>
</trkpt>
<trkpt lat="40.0718382" lon="-105.2283429">
  <ele>1583.0</ele>
  <time>2026-08-28T17:54:16Z</time>
  <course>67.46</course>
  <speed>4.99</speed>
  <fix>3d</fix>
</trkpt>
<trkpt lat="40.0718419" lon="-105.2283306">
  <ele>1582.9</ele>
  <time>2026-08-28T17:54:16Z</time>
  <course>68.51</course>
  <speed>4.960090724976712</speed>
  <fix>3d</fix>
</trkpt>
<trkpt lat="40.0718382" lon="-105.2283429">
  <ele>1583.0</ele>
  <time>2026-08-28T17:54:16Z</time>
  <course>67.46</course>
  <speed>4.99</speed>
  <fix>3d</fix>
</trkpt>
<trkpt lat="40.0718436" lon="-105.2283252">
  <ele>1582.91</ele>
  <time>2026-08-28T17:54:16Z</time>
  <course>68.51</course>
  <speed>4.960090724976712</speed>
  <fix>3d</fix>
</trkpt>
<trkpt lat="40.0718416" lon="-105.228332">
  <ele>1583.0</ele>
  <time>2026-08-28T17:54:16Z</time>
  <course>67.46</course>
  <speed>4.99</speed>
  <fix>3d</fix>
</trkpt>
<trkpt lat="40.0718453" lon="-105.2283198">
  <ele>1582.91</ele>
  <time>2026-08-28T17:54:16Z</time>
  <course>68.51</course>
  <speed>4.973137842449171</speed>
  <fix>3d</fix>
</trkpt>
<trkpt lat="40.0718416" lon="-105.228332">
  <ele>1583.0</ele>
  <time>2026-08-28T17:54:16Z</time>
  <course>67.46</course>
  <speed>4.99</speed>
  <fix>3d</fix>
</trkpt>
<trkpt lat="40.071847" lon="-105.2283144">
  <ele>1582.91</ele>
  <time>2026-08-28T17:54:16Z</time>
  <course>68.51</course>
  <speed>4.973137842449171</speed>
  <fix>3d</fix>
</trkpt>
<trkpt lat="40.0718451" lon="-105.2283212">
  <ele>1583.0</ele>
  <time>2026-08-28T17:54:16Z</time>
  <course>67.46</course>
  <speed>5.0</speed>
  <fix>3d</fix>
</trkpt>
<trkpt lat="40.0718488" lon="-105.2283089">
  <ele>1582.91</ele>
  <time>2026-08-28T17:54:16Z</time>
  <course>68.5</course>
  <speed>4.973137842449171</speed>
  <fix>3d</fix>
</trkpt>
<trkpt lat="40.0718451" lon="-105.2283212">
  <ele>1583.0</ele>
  <time>2026-08-28T17:54:16Z</time>
  <course>67.46</course>
  <speed>5.0</speed>
  <fix>3d</fix>
</trkpt>
<trkpt lat="40.0718505" lon="-105.2283035">
  <ele>1582.91</ele>
  <time>2026-08-28T17:54:16Z</time>
  <course>68.5</course>
  <speed>4.973137842449171</speed>
  <fix>3d</fix>
</trkpt>
<trkpt lat="40.0718485" lon="-105.2283104">
  <ele>1583.0</ele>
  <time>2026-08-28T17:54:16Z</time>
  <course>67.46</course>
  <speed>5.0</speed>
  <fix>3d</fix>
</trkpt>
<trkpt lat="40.0718526" lon="-105.2282969">
  <ele>1582.91</ele>
  <time>2026-08-28T17:54:16Z</time>
  <course>68.5</course>
  <speed>4.973137842449171</speed>
  <fix>3d</fix>
</trkpt>
<trkpt lat="40.0718485" lon="-105.2283104">
  <ele>1583.0</ele>
  <time>2026-08-28T17:54:16Z</time>
  <course>67.46</course>
  <speed>5.0</speed>
  <fix>3d</fix>
</trkpt>
<trkpt lat="40.0718543" lon="-105.2282914">
  <ele>1582.92</ele>
  <time>2026-08-28T17:54:16Z</time>
  <course>68.5</course>
  <speed>4.973137842449171</speed>
  <fix>3d</fix>
</trkpt>
<trkpt lat="40.0718519" lon="-105.2282995">
  <ele>1583.0</ele>
  <time>2026-08-28T17:54:16Z</time>
  <course>67.46</course>
  <speed>5.0</speed>
  <fix>3d</fix>
</trkpt>
<trkpt lat="40.0718561" lon="-105.2282859">
  <ele>1582.92</ele>
  <time>2026-08-28T17:54:16Z</time>
  <course>68.5</course>
  <speed>4.982388985215827</speed>
  <fix>3d</fix>
</trkpt>
<trkpt lat="40.0718519" lon="-105.2282995">
  <ele>1583.0</ele>
  <time>2026-08-28T17:54:16Z</time>
  <course>67.46</course>
  <speed>5.0</speed>
  <fix>3d</fix>
</trkpt>
<trkpt lat="40.0718578" lon="-105.2282805">
  <ele>1582.92</ele>
  <time>2026-08-28T17:54:16Z</time>
  <course>68.5</course>
  <speed>4.982388985215827</speed>
  <fix>3d</fix>
</trkpt>
<trkpt lat="40.0718553" lon="-105.2282887">
  <ele>1583.0</ele>
  <time>2026-08-28T17:54:16Z</time>
  <course>67.46</course>
  <speed>5.0</speed>
  <fix>3d</fix>
</trkpt>
<trkpt lat="40.0718595" lon="-105.228275">
  <ele>1582.92</ele>
  <time>2026-08-28T17:54:16Z</time>
  <course>68.5</course>
  <speed>4.973137842449171</speed>
  <fix>3d</fix>
</trkpt>
<trkpt lat="40.0718553" lon="-105.2282887">
  <ele>1583.0</ele>
  <time>2026-08-28T17:54:16Z</time>
  <course>67.46</course>
  <speed>5.0</speed>
  <fix>3d</fix>
</trkpt>
<trkpt lat="40.0718612" lon="-105.2282696">
  <ele>1582.92</ele>
  <time>2026-08-28T17:54:16Z</time>
  <course>68.5</course>
  <speed>4.973137842449171</speed>
  <fix>3d</fix>
</trkpt>
<trkpt lat="40.0718588" lon="-105.2282778">
  <ele>1583.0</ele>
  <time>2026-08-28T17:54:16Z</time>
  <course>67.46</course>
  <speed>4.99</speed>
  <fix>3d</fix>
</trkpt>
<trkpt lat="40.071863" lon="-105.2282642">
  <ele>1582.92</ele>
  <time>2026-08-28T17:54:16Z</time>
  <course>68.5</course>
  <speed>4.973137842449171</speed>
  <fix>3d</fix>
</trkpt>
<trkpt lat="40.0718588" lon="-105.2282778">
  <ele>1583.0</ele>
  <time>2026-08-28T17:54:16Z</time>
  <course>67.46</course>
  <speed>4.99</speed>
  <fix>3d</fix>
</trkpt>
<trkpt lat="40.0718647" lon="-105.2282588">
  <ele>1582.92</ele>
  <time>2026-08-28T17:54:16Z</time>
  <course>68.5</course>
  <speed>4.973137842449171</speed>
  <fix>3d</fix>
</trkpt>
<trkpt lat="40.0718623" lon="-105.2282669">
  <ele>1583.0</ele>
  <time>2026-08-28T17:54:16Z</time>
  <course>67.46</course>
  <speed>4.99</speed>
  <fix>3d</fix>
</trkpt>
<trkpt lat="40.0718664" lon="-105.2282534">
  <ele>1582.92</ele>
  <time>2026-08-28T17:54:16Z</time>
  <course>68.5</course>
  <speed>4.969346033433373</speed>
  <fix>3d</fix>
</trkpt>
<trkpt lat="40.0718623" lon="-105.2282669">
  <ele>1583.0</ele>
  <time>2026-08-28T17:54:16Z</time>
  <course>67.46</course>
  <speed>4.99</speed>
  <fix>3d</fix>
</trkpt>
<trkpt lat="40.0718681" lon="-105.2282481">
  <ele>1582.92</ele>
  <time>2026-08-28T17:54:16Z</time>
  <course>68.5</course>
  <speed>4.969346033433373</speed>
  <fix>3d</fix>
</trkpt>
<trkpt lat="40.0718657" lon="-105.2282562">
  <ele>1583.0</ele>
  <time>2026-08-28T17:54:16Z</time>
  <course>67.46</course>
  <speed>4.99</speed>
  <fix>3d</fix>
</trkpt>
<trkpt lat="40.0718698" lon="-105.2282427">
  <ele>1582.91</ele>
  <time>2026-08-28T17:54:16Z</time>
  <course>68.5</course>
  <speed>4.960090724976712</speed>
  <fix>3d</fix>
</trkpt>
<trkpt lat="40.0718657" lon="-105.2282562">
  <ele>1583.0</ele>
  <time>2026-08-28T17:54:16Z</time>
  <course>67.46</course>
  <speed>4.99</speed>
  <fix>3d</fix>
</trkpt>
<trkpt lat="40.0718715" lon="-105.2282373">
  <ele>1582.91</ele>
  <time>2026-08-28T17:54:16Z</time>
  <course>68.5</course>
  <speed>4.960090724976712</speed>
  <fix>3d</fix>
</trkpt>
<trkpt lat="40.0718691" lon="-105.2282453">
  <ele>1583.0</ele>
  <time>2026-08-28T17:54:16Z</time>
  <course>67.46</course>
  <speed>4.99</speed>
  <fix>3d</fix>
</trkpt>
<trkpt lat="40.0718732" lon="-105.228232">
  <ele>1582.91</ele>
  <time>2026-08-28T17:54:16Z</time>
  <course>68.5</course>
  <speed>4.960090724976712</speed>
  <fix>3d</fix>
</trkpt>
<trkpt lat="40.0718691" lon="-105.2282453">
  <ele>1583.0</ele>
  <time>2026-08-28T17:54:16Z</time>
  <course>67.46</course>
  <speed>4.99</speed>
  <fix>3d</fix>
</trkpt>
<trkpt lat="40.0718746" lon="-105.2282277">
  <ele>1582.91</ele>
  <time>2026-08-28T17:54:16Z</time>
  <course>68.5</course>
  <speed>4.960090724976712</speed>
  <fix>3d</fix>
</trkpt>
<trkpt lat="40.0718726" lon="-105.2282344">
  <ele>1583.0</ele>
  <time>2026-08-28T17:54:16Z</time>
  <course>67.46</course>
  <speed>4.99</speed>
  <fix>3d</fix>
</trkpt>
<trkpt lat="40.0718763" lon="-105.2282222">
  <ele>1582.91</ele>
  <time>2026-08-28T17:54:16Z</time>
  <course>68.5</course>
  <speed>4.960090724976712</speed>
  <fix>3d</fix>
</trkpt>
<trkpt lat="40.0718726" lon="-105.2282344">
  <ele>1583.0</ele>
  <time>2026-08-28T17:54:16Z</time>
  <course>67.46</course>
  <speed>4.99</speed>
  <fix>3d</fix>
</trkpt>
<trkpt lat="40.071878" lon="-105.2282168">
  <ele>1582.91</ele>
  <time>2026-08-28T17:54:16Z</time>
  <course>68.5</course>
  <speed>4.969346033433373</speed>
  <fix>3d</fix>
</trkpt>
<trkpt lat="40.071876" lon="-105.2282237">
  <ele>1583.0</ele>
  <time>2026-08-28T17:54:16Z</time>
  <course>67.46</course>
  <speed>4.99</speed>
  <fix>3d</fix>
</trkpt>
<trkpt lat="40.0718797" lon="-105.2282114">
  <ele>1582.9</ele>
  <time>2026-08-28T17:54:16Z</time>
  <course>68.5</course>
  <speed>4.973137842449171</speed>
  <fix>3d</fix>
</trkpt>
<trkpt lat="40.071876" lon="-105.2282237">
  <ele>1583.0</ele>
  <time>2026-08-28T17:54:16Z</time>
  <course>67.46</course>
  <speed>4.99</speed>
  <fix>3d</fix>
</trkpt>
<trkpt lat="40.0718814" lon="-105.228206">
  <ele>1582.9</ele>
  <time>2026-08-28T17:54:16Z</time>
  <course>68.5</course>
  <speed>4.973137842449171</speed>
  <fix>3d</fix>
</trkpt>
<trkpt lat="40.0718794" lon="-105.2282128">
  <ele>1583.0</ele>
  <time>2026-08-28T17:54:16Z</time>
  <course>67.46</course>
  <speed>5.0</speed>
  <fix>3d</fix>
</trkpt>
<trkpt lat="40.0718832" lon="-105.2282005">
  <ele>1582.9</ele>
  <time>2026-08-28T17:54:16Z</time>
  <course>68.5</course>
  <speed>4.973137842449171</speed>
  <fix>3d</fix>
</trkpt>
<trkpt lat="40.0718794" lon="-105.2282128">
  <ele>1583.0</ele>
  <time>2026-08-28T17:54:16Z</time>
  <course>67.46</course>
  <speed>5.0</speed>
  <fix>3d</fix>
</trkpt>
<trkpt lat="40.0718849" lon="-105.2281951">
  <ele>1582.9</ele>
  <time>2026-08-28T17:54:16Z</time>
  <course>68.49</course>
  <speed>4.973137842449171</speed>
  <fix>3d</fix>
</trkpt>
<trkpt lat="40.0718829" lon="-105.228202">
  <ele>1583.0</ele>
  <time>2026-08-28T17:54:16Z</time>
  <course>67.46</course>
  <speed>5.0</speed>
  <fix>3d</fix>
</trkpt>
<trkpt lat="40.0718866" lon="-105.2281896">
  <ele>1582.9</ele>
  <time>2026-08-28T17:54:16Z</time>
  <course>68.49</course>
  <speed>4.982388985215827</speed>
  <fix>3d</fix>
</trkpt>
<trkpt lat="40.0718829" lon="-105.228202">
  <ele>1583.0</ele>
  <time>2026-08-28T17:54:16Z</time>
  <course>67.46</course>
  <speed>5.0</speed>
  <fix>3d</fix>
</trkpt>
<trkpt lat="40.0718887" lon="-105.228183">
  <ele>1582.89</ele>
  <time>2026-08-28T17:54:16Z</time>
  <course>68.49</course>
  <speed>4.982388985215827</speed>
  <fix>3d</fix>
</trkpt>
<trkpt lat="40.0718863" lon="-105.2281911">
  <ele>1583.0</ele>
  <time>2026-08-28T17:54:16Z</time>
  <course>67.46</course>
  <speed>5.0</speed>
  <fix>3d</fix>
</trkpt>
<trkpt lat="40.0718905" lon="-105.2281775">
  <ele>1582.89</ele>
  <time>2026-08-28T17:54:16Z</time>
  <course>68.49</course>
  <speed>4.982388985215827</speed>
  <fix>3d</fix>
</trkpt>
<trkpt lat="40.0718863" lon="-105.2281911">
  <ele>1583.0</ele>
  <time>2026-08-28T17:54:16Z</time>
  <course>67.46</course>
  <speed>5.0</speed>
  <fix>3d</fix>
</trkpt>
<trkpt lat="40.0718922" lon="-105.2281721">
  <ele>1582.89</ele>
  <time>2026-08-28T17:54:16Z</time>
  <course>68.49</course>
  <speed>4.982388985215827</speed>
  <fix>3d</fix>
</trkpt>
<trkpt lat="40.0718897" lon="-105.2281802">
  <ele>1583.0</ele>
  <time>2026-08-28T17:54:16Z</time>
  <course>67.46</course>
  <speed>5.0</speed>
  <fix>3d</fix>
</trkpt>
<trkpt lat="40.0718939" lon="-105.2281666">
  <ele>1582.89</ele>
  <time>2026-08-28T17:54:16Z</time>
  <course>68.49</course>
  <speed>4.982388985215827</speed>
  <fix>3d</fix>
</trkpt>
<trkpt lat="40.0718897" lon="-105.2281802">
  <ele>1583.0</ele>
  <time>2026-08-28T17:54:16Z</time>
  <course>67.46</course>
  <speed>5.0</speed>
  <fix>3d</fix>
</trkpt>
<trkpt lat="40.0718956" lon="-105.2281612">
  <ele>1582.9</ele>
  <time>2026-08-28T17:54:16Z</time>
  <course>68.49</course>
  <speed>4.982388985215827</speed>
  <fix>3d</fix>
</trkpt>
<trkpt lat="40.0718932" lon="-105.2281694">
  <ele>1583.0</ele>
  <time>2026-08-28T17:54:16Z</time>
  <course>67.46</course>
  <speed>5.0</speed>
  <fix>3d</fix>
</trkpt>
<trkpt lat="40.0718973" lon="-105.2281558">
  <ele>1582.9</ele>
  <time>2026-08-28T17:54:16Z</time>
  <course>68.49</course>
  <speed>4.973137842449171</speed>
  <fix>3d</fix>
</trkpt>
<trkpt lat="40.0718932" lon="-105.2281694">
  <ele>1583.0</ele>
  <time>2026-08-28T17:54:16Z</time>
  <course>67.46</course>
  <speed>5.0</speed>
  <fix>3d</fix>
</trkpt>
<trkpt lat="40.0718991" lon="-105.2281504">
  <ele>1582.9</ele>
  <time>2026-08-28T17:54:16Z</time>
  <course>68.49</course>
  <speed>4.969346033433373</speed>
  <fix>3d</fix>
</trkpt>
<trkpt lat="40.0718966" lon="-105.2281586">
  <ele>1583.0</ele>
  <time>2026-08-28T17:54:16Z</time>
  <course>67.46</course>
  <speed>4.99</speed>
  <fix>3d</fix>
</trkpt>
<trkpt lat="40.0719008" lon="-105.228145">
  <ele>1582.9</ele>
  <time>2026-08-28T17:54:16Z</time>
  <course>68.49</course>
  <speed>4.969346033433373</speed>
  <fix>3d</fix>
</trkpt>
<trkpt lat="40.0718966" lon="-105.2281586">
  <ele>1583.0</ele>
  <time>2026-08-28T17:54:16Z</time>
  <course>67.46</course>
  <speed>4.99</speed>
  <fix>3d</fix>
</trkpt>
<trkpt lat="40.0719025" lon="-105.2281396">
  <ele>1582.89</ele>
  <time>2026-08-28T17:54:16Z</time>
  <course>68.49</course>
  <speed>4.969346033433373</speed>
  <fix>3d</fix>
</trkpt>
<trkpt lat="40.0719001" lon="-105.2281477">
  <ele>1583.0</ele>
  <time>2026-08-28T17:54:16Z</time>
  <course>67.46</course>
  <speed>4.99</speed>
  <fix>3d</fix>
</trkpt>
<trkpt lat="40.0719042" lon="-105.2281343">
  <ele>1582.89</ele>
  <time>2026-08-28T17:54:16Z</time>
  <course>68.49</course>
  <speed>4.960090724976712</speed>
  <fix>3d</fix>
</trkpt>
<trkpt lat="40.0719001" lon="-105.2281477">
  <ele>1583.0</ele>
  <time>2026-08-28T17:54:16Z</time>
  <course>67.46</course>
  <speed>4.99</speed>
  <fix>3d</fix>
</trkpt>
<trkpt lat="40.0719059" lon="-105.2281289">
  <ele>1582.89</ele>
  <time>2026-08-28T17:54:16Z</time>
  <course>68.49</course>
  <speed>4.960090724976712</speed>
  <fix>3d</fix>
</trkpt>
<trkpt lat="40.0719036" lon="-105.2281369">
  <ele>1583.0</ele>
  <time>2026-08-28T17:54:16Z</time>
  <course>67.46</course>
  <speed>4.99</speed>
  <fix>3d</fix>
</trkpt>
<trkpt lat="40.0719076" lon="-105.2281236">
  <ele>1582.89</ele>
  <time>2026-08-28T17:54:16Z</time>
  <course>68.49</course>
  <speed>4.960090724976712</speed>
  <fix>3d</fix>
</trkpt>
<trkpt lat="40.0719036" lon="-105.2281369">
  <ele>1583.0</ele>
  <time>2026-08-28T17:54:16Z</time>
  <course>67.46</course>
  <speed>4.99</speed>
  <fix>3d</fix>
</trkpt>
<trkpt lat="40.0719093" lon="-105.2281182">
  <ele>1582.89</ele>
  <time>2026-08-28T17:54:16Z</time>
  <course>68.49</course>
  <speed>4.960090724976712</speed>
  <fix>3d</fix>
</trkpt>
<trkpt lat="40.0719069" lon="-105.2281261">
  <ele>1583.0</ele>
  <time>2026-08-28T17:54:16Z</time>
  <course>67.46</course>
  <speed>4.99</speed>
  <fix>3d</fix>
</trkpt>
<trkpt lat="40.0719106" lon="-105.2281139">
  <ele>1582.89</ele>
  <time>2026-08-28T17:54:16Z</time>
  <course>68.49</course>
  <speed>4.960090724976712</speed>
  <fix>3d</fix>
</trkpt>
<trkpt lat="40.0719069" lon="-105.2281261">
  <ele>1583.0</ele>
  <time>2026-08-28T17:54:16Z</time>
  <course>67.46</course>
  <speed>4.99</speed>
  <fix>3d</fix>
</trkpt>
<trkpt lat="40.0719123" lon="-105.2281085">
  <ele>1582.89</ele>
  <time>2026-08-28T17:54:16Z</time>
  <course>68.49</course>
  <speed>4.960090724976712</speed>
  <fix>3d</fix>
</trkpt>
<trkpt lat="40.0719104" lon="-105.2281152">
  <ele>1583.0</ele>
  <time>2026-08-28T17:54:16Z</time>
  <course>67.46</course>
  <speed>4.99</speed>
  <fix>3d</fix>
</trkpt>
<trkpt lat="40.0719141" lon="-105.2281031">
  <ele>1582.89</ele>
  <time>2026-08-28T17:54:16Z</time>
  <course>68.49</course>
  <speed>4.969346033433373</speed>
  <fix>3d</fix>
</trkpt>
<trkpt lat="40.0719104" lon="-105.2281152">
  <ele>1583.0</ele>
  <time>2026-08-28T17:54:16Z</time>
  <course>67.46</course>
  <speed>4.99</speed>
  <fix>3d</fix>
</trkpt>
<trkpt lat="40.0719158" lon="-105.2280977">
  <ele>1582.89</ele>
  <time>2026-08-28T17:54:16Z</time>
  <course>68.49</course>
  <speed>4.969346033433373</speed>
  <fix>3d</fix>
</trkpt>
<trkpt lat="40.0719139" lon="-105.2281044">
  <ele>1583.0</ele>
  <time>2026-08-28T17:54:16Z</time>
  <course>67.46</course>
  <speed>5.0</speed>
  <fix>3d</fix>
</trkpt>
<trkpt lat="40.0719175" lon="-105.2280922">
  <ele>1582.89</ele>
  <time>2026-08-28T17:54:16Z</time>
  <course>68.49</course>
  <speed>4.973137842449171</speed>
  <fix>3d</fix>
</trkpt>
<trkpt lat="40.0719139" lon="-105.2281044">
  <ele>1583.0</ele>
  <time>2026-08-28T17:54:16Z</time>
  <course>67.46</course>
  <speed>5.0</speed>
  <fix>3d</fix>
</trkpt>
<trkpt lat="40.0719192" lon="-105.2280868">
  <ele>1582.89</ele>
  <time>2026-08-28T17:54:16Z</time>
  <course>68.49</course>
  <speed>4.973137842449171</speed>
  <fix>3d</fix>
</trkpt>
<trkpt lat="40.0719173" lon="-105.2280935">
  <ele>1583.0</ele>
  <time>2026-08-28T17:54:16Z</time>
  <course>67.46</course>
  <speed>5.0</speed>
  <fix>3d</fix>
</trkpt>
<trkpt lat="40.071921" lon="-105.2280813">
  <ele>1582.89</ele>
  <time>2026-08-28T17:54:16Z</time>
  <course>68.49</course>
  <speed>4.982388985215827</speed>
  <fix>3d</fix>
</trkpt>
<trkpt lat="40.0719173" lon="-105.2280935">
  <ele>1583.0</ele>
  <time>2026-08-28T17:54:16Z</time>
  <course>67.46</course>
  <speed>5.0</speed>
  <fix>3d</fix>
</trkpt>
<trkpt lat="40.0719227" lon="-105.2280758">
  <ele>1582.89</ele>
  <time>2026-08-28T17:54:16Z</time>
  <course>68.49</course>
  <speed>4.982388985215827</speed>
  <fix>3d</fix>
</trkpt>
<trkpt lat="40.0719208" lon="-105.2280826">
  <ele>1583.0</ele>
  <time>2026-08-28T17:54:16Z</time>
  <course>67.46</course>
  <speed>5.0</speed>
  <fix>3d</fix>
</trkpt>
<trkpt lat="40.0719248" lon="-105.2280692">
  <ele>1582.89</ele>
  <time>2026-08-28T17:54:16Z</time>
  <course>68.48</course>
  <speed>4.982388985215827</speed>
  <fix>3d</fix>
</trkpt>
<trkpt lat="40.0719208" lon="-105.2280826">
  <ele>1583.0</ele>
  <time>2026-08-28T17:54:16Z</time>
  <course>67.46</course>
  <speed>5.0</speed>
  <fix>3d</fix>
</trkpt>
<trkpt lat="40.0719266" lon="-105.2280637">
  <ele>1582.89</ele>
  <time>2026-08-28T17:54:16Z</time>
  <course>68.48</course>
  <speed>4.982388985215827</speed>
  <fix>3d</fix>
</trkpt>
<trkpt lat="40.0719242" lon="-105.2280718">
  <ele>1583.0</ele>
  <time>2026-08-28T17:54:16Z</time>
  <course>67.46</course>
  <speed>5.0</speed>
  <fix>3d</fix>
</trkpt>
<trkpt lat="40.0719283" lon="-105.2280583">
  <ele>1582.89</ele>
  <time>2026-08-28T17:54:16Z</time>
  <course>68.48</course>
  <speed>4.982388985215827</speed>
  <fix>3d</fix>
</trkpt>
<trkpt lat="40.0719242" lon="-105.2280718">
  <ele>1583.0</ele>
  <time>2026-08-28T17:54:16Z</time>
  <course>67.46</course>
  <speed>5.0</speed>
  <fix>3d</fix>
</trkpt>
<trkpt lat="40.07193" lon="-105.2280528">
  <ele>1582.89</ele>
  <time>2026-08-28T17:54:16Z</time>
  <course>68.48</course>
  <speed>4.982388985215827</speed>
  <fix>3d</fix>
</trkpt>
<trkpt lat="40.0719276" lon="-105.228061">
  <ele>1583.0</ele>
  <time>2026-08-28T17:54:16Z</time>
  <course>67.46</course>
  <speed>5.0</speed>
  <fix>3d</fix>
</trkpt>
<trkpt lat="40.0719318" lon="-105.2280473">
  <ele>1582.89</ele>
  <time>2026-08-28T17:54:16Z</time>
  <course>68.48</course>
  <speed>4.982388985215827</speed>
  <fix>3d</fix>
</trkpt>
<trkpt lat="40.0719276" lon="-105.228061">
  <ele>1583.0</ele>
  <time>2026-08-28T17:54:16Z</time>
  <course>67.46</course>
  <speed>5.0</speed>
  <fix>3d</fix>
</trkpt>
<trkpt lat="40.0719335" lon="-105.2280419">
  <ele>1582.9</ele>
  <time>2026-08-28T17:54:16Z</time>
  <course>68.48</course>
  <speed>4.982388985215827</speed>
  <fix>3d</fix>
</trkpt>
<trkpt lat="40.0719311" lon="-105.2280501">
  <ele>1583.0</ele>
  <time>2026-08-28T17:54:16Z</time>
  <course>67.46</course>
  <speed>5.0</speed>
  <fix>3d</fix>
</trkpt>
<trkpt lat="40.0719352" lon="-105.2280365">
  <ele>1582.9</ele>
  <time>2026-08-28T17:54:16Z</time>
  <course>68.48</course>
  <speed>4.982388985215827</speed>
  <fix>3d</fix>
</trkpt>
<trkpt lat="40.0719311" lon="-105.2280501">
  <ele>1583.0</ele>
  <time>2026-08-28T17:54:16Z</time>
  <course>67.46</course>
  <speed>5.0</speed>
  <fix>3d</fix>
</trkpt>
<trkpt lat="40.0719369" lon="-105.2280311">
  <ele>1582.9</ele>
  <time>2026-08-28T17:54:16Z</time>
  <course>68.48</course>
  <speed>4.973137842449171</speed>
  <fix>3d</fix>
</trkpt>
<trkpt lat="40.0719346" lon="-105.2280392">
  <ele>1583.0</ele>
  <time>2026-08-28T17:54:16Z</time>
  <course>67.46</course>
  <speed>4.99</speed>
  <fix>3d</fix>
</trkpt>
<trkpt lat="40.0719386" lon="-105.2280257">
  <ele>1582.9</ele>
  <time>2026-08-28T17:54:16Z</time>
  <course>68.48</course>
  <speed>4.973137842449171</speed>
  <fix>3d</fix>
</trkpt>
<trkpt lat="40.0719346" lon="-105.2280392">
  <ele>1583.0</ele>
  <time>2026-08-28T17:54:16Z</time>
  <course>67.46</course>
  <speed>4.99</speed>
  <fix>3d</fix>
</trkpt>
<trkpt lat="40.0719403" lon="-105.2280203">
  <ele>1582.91</ele>
  <time>2026-08-28T17:54:16Z</time>
  <course>68.48</course>
  <speed>4.969346033433373</speed>
  <fix>3d</fix>
</trkpt>
<trkpt lat="40.071938" lon="-105.2280284">
  <ele>1583.0</ele>
  <time>2026-08-28T17:54:16Z</time>
  <course>67.46</course>
  <speed>4.99</speed>
  <fix>3d</fix>
</trkpt>
<trkpt lat="40.0719421" lon="-105.228015">
  <ele>1582.91</ele>
  <time>2026-08-28T17:54:16Z</time>
  <course>68.48</course>
  <speed>4.960090724976712</speed>
  <fix>3d</fix>
</trkpt>
<trkpt lat="40.071938" lon="-105.2280284">
  <ele>1583.0</ele>
  <time>2026-08-28T17:54:16Z</time>
  <course>67.46</course>
  <speed>4.99</speed>
  <fix>3d</fix>
</trkpt>
<trkpt lat="40.0719438" lon="-105.2280096">
  <ele>1582.91</ele>
  <time>2026-08-28T17:54:16Z</time>
  <course>68.48</course>
  <speed>4.960090724976712</speed>
  <fix>3d</fix>
</trkpt>
<trkpt lat="40.0719414" lon="-105.2280175">
  <ele>1583.0</ele>
  <time>2026-08-28T17:54:16Z</time>
  <course>67.46</course>
  <speed>4.99</speed>
  <fix>3d</fix>
</trkpt>
<trkpt lat="40.0719455" lon="-105.2280042">
  <ele>1582.91</ele>
  <time>2026-08-28T17:54:16Z</time>
  <course>68.48</course>
  <speed>4.960090724976712</speed>
  <fix>3d</fix>
</trkpt>
<trkpt lat="40.0719414" lon="-105.2280175">
  <ele>1583.0</ele>
  <time>2026-08-28T17:54:16Z</time>
  <course>67.46</course>
  <speed>4.99</speed>
  <fix>3d</fix>
</trkpt>
<trkpt lat="40.0719468" lon="-105.2279999">
  <ele>1582.91</ele>
  <time>2026-08-28T17:54:16Z</time>
  <course>68.48</course>
  <speed>4.960090724976712</speed>
  <fix>3d</fix>
</trkpt>
<trkpt lat="40.0719449" lon="-105.2280068">
  <ele>1583.0</ele>
  <time>2026-08-28T17:54:16Z</time>
  <course>67.46</course>
  <speed>4.99</speed>
  <fix>3d</fix>
</trkpt>
<trkpt lat="40.0719486" lon="-105.2279945">
  <ele>1582.91</ele>
  <time>2026-08-28T17:54:16Z</time>
  <course>68.48</course>
  <speed>4.960090724976712</speed>
  <fix>3d</fix>
</trkpt>
<trkpt lat="40.0719449" lon="-105.2280068">
  <ele>1583.0</ele>
  <time>2026-08-28T17:54:16Z</time>
  <course>67.46</course>
  <speed>4.99</speed>
  <fix>3d</fix>
</trkpt>
<trkpt lat="40.0719503" lon="-105.2279891">
  <ele>1582.91</ele>
  <time>2026-08-28T17:54:16Z</time>
  <course>68.48</course>
  <speed>4.960090724976712</speed>
  <fix>3d</fix>
</trkpt>
<trkpt lat="40.0719483" lon="-105.2279959">
  <ele>1583.0</ele>
  <time>2026-08-28T17:54:16Z</time>
  <course>67.46</course>
  <speed>4.99</speed>
  <fix>3d</fix>
</trkpt>
<trkpt lat="40.071952" lon="-105.2279837">
  <ele>1582.9</ele>
  <time>2026-08-28T17:54:16Z</time>
  <course>68.48</course>
  <speed>4.973137842449171</speed>
  <fix>3d</fix>
</trkpt>
<trkpt lat="40.0719483" lon="-105.2279959">
  <ele>1583.0</ele>
  <time>2026-08-28T17:54:16Z</time>
  <course>67.46</course>
  <speed>4.99</speed>
  <fix>3d</fix>
</trkpt>
<trkpt lat="40.0719537" lon="-105.2279782">
  <ele>1582.9</ele>
  <time>2026-08-28T17:54:16Z</time>
  <course>68.48</course>
  <speed>4.973137842449171</speed>
  <fix>3d</fix>
</trkpt>
<trkpt lat="40.0719517" lon="-105.227985">
  <ele>1583.0</ele>
  <time>2026-08-28T17:54:16Z</time>
  <course>67.46</course>
  <speed>4.99</speed>
  <fix>3d</fix>
</trkpt>
<trkpt lat="40.0719555" lon="-105.2279728">
  <ele>1582.9</ele>
  <time>2026-08-28T17:54:16Z</time>
  <course>68.48</course>
  <speed>4.973137842449171</speed>
  <fix>3d</fix>
</trkpt>
<trkpt lat="40.0719517" lon="-105.227985">
  <ele>1583.0</ele>
  <time>2026-08-28T17:54:16Z</time>
  <course>67.46</course>
  <speed>4.99</speed>
  <fix>3d</fix>
</trkpt>
<trkpt lat="40.0719572" lon="-105.2279673">
  <ele>1582.9</ele>
  <time>2026-08-28T17:54:16Z</time>
  <course>68.48</course>
  <speed>4.973137842449171</speed>
  <fix>3d</fix>
</trkpt>
<trkpt lat="40.0719552" lon="-105.2279742">
  <ele>1583.0</ele>
  <time>2026-08-28T17:54:16Z</time>
  <course>67.46</course>
  <speed>4.99</speed>
  <fix>3d</fix>
</trkpt>
<trkpt lat="40.0719589" lon="-105.2279618">
  <ele>1582.9</ele>
  <time>2026-08-28T17:54:16Z</time>
  <course>68.48</course>
  <speed>4.973137842449171</speed>
  <fix>3d</fix>
</trkpt>
<trkpt lat="40.0719552" lon="-105.2279742">
  <ele>1583.0</ele>
  <time>2026-08-28T17:54:16Z</time>
  <course>67.46</course>
  <speed>4.99</speed>
  <fix>3d</fix>
</trkpt>
<trkpt lat="40.071961" lon="-105.2279553">
  <ele>1582.9</ele>
  <time>2026-08-28T17:54:16Z</time>
  <course>68.48</course>
  <speed>4.973137842449171</speed>
  <fix>3d</fix>
</trkpt>
<trkpt lat="40.0719586" lon="-105.2279633">
  <ele>1583.0</ele>
  <time>2026-08-28T17:54:16Z</time>
  <course>67.46</course>
  <speed>4.99</speed>
  <fix>3d</fix>
</trkpt>
<trkpt lat="40.0719627" lon="-105.2279498">
  <ele>1582.9</ele>
  <time>2026-08-28T17:54:16Z</time>
  <course>68.48</course>
  <speed>4.982388985215827</speed>
  <fix>3d</fix>
</trkpt>
<trkpt lat="40.0719586" lon="-105.2279633">
  <ele>1583.0</ele>
  <time>2026-08-28T17:54:16Z</time>
  <course>67.46</course>
  <speed>4.99</speed>
  <fix>3d</fix>
</trkpt>
<trkpt lat="40.0719645" lon="-105.2279443">
  <ele>1582.91</ele>
  <time>2026-08-28T17:54:16Z</time>
  <course>68.48</course>
  <speed>4.982388985215827</speed>
  <fix>3d</fix>
</trkpt>
<trkpt lat="40.071962" lon="-105.2279526">
  <ele>1583.0</ele>
  <time>2026-08-28T17:54:16Z</time>
  <course>67.46</course>
  <speed>4.99</speed>
  <fix>3d</fix>
</trkpt>
<trkpt lat="40.0719662" lon="-105.2279389">
  <ele>1582.91</ele>
  <time>2026-08-28T17:54:16Z</time>
  <course>68.48</course>
  <speed>4.982388985215827</speed>
  <fix>3d</fix>
</trkpt>
<trkpt lat="40.071962" lon="-105.2279526">
  <ele>1583.0</ele>
  <time>2026-08-28T17:54:16Z</time>
  <course>67.46</course>
  <speed>4.99</speed>
  <fix>3d</fix>
</trkpt>
<trkpt lat="40.0719679" lon="-105.2279334">
  <ele>1582.91</ele>
  <time>2026-08-28T17:54:16Z</time>
  <course>68.48</course>
  <speed>4.973137842449171</speed>
  <fix>3d</fix>
</trkpt>
<trkpt lat="40.0719655" lon="-105.2279417">
  <ele>1583.0</ele>
  <time>2026-08-28T17:54:16Z</time>
  <course>67.46</course>
  <speed>4.99</speed>
  <fix>3d</fix>
</trkpt>
<trkpt lat="40.0719696" lon="-105.227928">
  <ele>1582.9</ele>
  <time>2026-08-28T17:54:16Z</time>
  <course>68.48</course>
  <speed>4.973137842449171</speed>
  <fix>3d</fix>
</trkpt>
<trkpt lat="40.0719655" lon="-105.2279417">
  <ele>1583.0</ele>
  <time>2026-08-28T17:54:16Z</time>
  <course>67.46</course>
  <speed>4.99</speed>
  <fix>3d</fix>
</trkpt>
<trkpt lat="40.0719713" lon="-105.2279227">
  <ele>1582.9</ele>
  <time>2026-08-28T17:54:16Z</time>
  <course>68.48</course>
  <speed>4.973137842449171</speed>
  <fix>3d</fix>
</trkpt>
<trkpt lat="40.0719689" lon="-105.2279308">
  <ele>1583.0</ele>
  <time>2026-08-28T17:54:16Z</time>
  <course>67.46</course>
  <speed>4.99</speed>
  <fix>3d</fix>
</trkpt>
<trkpt lat="40.071973" lon="-105.2279173">
  <ele>1582.9</ele>
  <time>2026-08-28T17:54:16Z</time>
  <course>68.48</course>
  <speed>4.969346033433373</speed>
  <fix>3d</fix>
</trkpt>
<trkpt lat="40.0719689" lon="-105.2279308">
  <ele>1583.0</ele>
  <time>2026-08-28T17:54:16Z</time>
  <course>67.46</course>
  <speed>4.99</speed>
  <fix>3d</fix>
</trkpt>
<trkpt lat="40.0719747" lon="-105.2279119">
  <ele>1582.9</ele>
  <time>2026-08-28T17:54:16Z</time>
  <course>68.47</course>
  <speed>4.969346033433373</speed>
  <fix>3d</fix>
</trkpt>
<trkpt lat="40.0719724" lon="-105.22792">
  <ele>1583.0</ele>
  <time>2026-08-28T17:54:16Z</time>
  <course>67.46</course>
  <speed>4.99</speed>
  <fix>3d</fix>
</trkpt>
<trkpt lat="40.0719765" lon="-105.2279066">
  <ele>1582.9</ele>
  <time>2026-08-28T17:54:16Z</time>
  <course>68.47</course>
  <speed>4.960090724976712</speed>
  <fix>3d</fix>
</trkpt>
<trkpt lat="40.0719724" lon="-105.22792">
  <ele>1583.0</ele>
  <time>2026-08-28T17:54:16Z</time>
  <course>67.46</course>
  <speed>4.99</speed>
  <fix>3d</fix>
</trkpt>
<trkpt lat="40.0719782" lon="-105.2279012">
  <ele>1582.9</ele>
  <time>2026-08-28T17:54:16Z</time>
  <course>68.47</course>
  <speed>4.960090724976712</speed>
  <fix>3d</fix>
</trkpt>
<trkpt lat="40.0719759" lon="-105.2279092">
  <ele>1583.0</ele>
  <time>2026-08-28T17:54:16Z</time>
  <course>67.46</course>
  <speed>4.99</speed>
  <fix>3d</fix>
</trkpt>
<trkpt lat="40.0719799" lon="-105.2278958">
  <ele>1582.9</ele>
  <time>2026-08-28T17:54:16Z</time>
  <course>68.47</course>
  <speed>4.960090724976712</speed>
  <fix>3d</fix>
</trkpt>
<trkpt lat="40.0719759" lon="-105.2279092">
  <ele>1583.0</ele>
  <time>2026-08-28T17:54:16Z</time>
  <course>67.46</course>
  <speed>4.99</speed>
  <fix>3d</fix>
</trkpt>
<trkpt lat="40.0719816" lon="-105.2278905">
  <ele>1582.9</ele>
  <time>2026-08-28T17:54:16Z</time>
  <course>68.47</course>
  <speed>4.960090724976712</speed>
  <fix>3d</fix>
</trkpt>
<trkpt lat="40.0719792" lon="-105.2278983">
  <ele>1583.0</ele>
  <time>2026-08-28T17:54:16Z</time>
  <course>67.46</course>
  <speed>4.99</speed>
  <fix>3d</fix>
</trkpt>
<trkpt lat="40.0719829" lon="-105.2278861">
  <ele>1582.9</ele>
  <time>2026-08-28T17:54:16Z</time>
  <course>68.47</course>
  <speed>4.960090724976712</speed>
  <fix>3d</fix>
</trkpt>
<trkpt lat="40.0719792" lon="-105.2278983">
  <ele>1583.0</ele>
  <time>2026-08-28T17:54:16Z</time>
  <course>67.46</course>
  <speed>4.99</speed>
  <fix>3d</fix>
</trkpt>
<trkpt lat="40.0719846" lon="-105.2278808">
  <ele>1582.91</ele>
  <time>2026-08-28T17:54:16Z</time>
  <course>68.47</course>
  <speed>4.960090724976712</speed>
  <fix>3d</fix>
</trkpt>
<trkpt lat="40.0719827" lon="-105.2278876">
  <ele>1583.0</ele>
  <time>2026-08-28T17:54:16Z</time>
  <course>67.46</course>
  <speed>4.99</speed>
  <fix>3d</fix>
</trkpt>
<trkpt lat="40.0719864" lon="-105.2278754">
  <ele>1582.91</ele>
  <time>2026-08-28T17:54:16Z</time>
  <course>68.47</course>
  <speed>4.969346033433373</speed>
  <fix>3d</fix>
</trkpt>
<trkpt lat="40.0719827" lon="-105.2278876">
  <ele>1583.0</ele>
  <time>2026-08-28T17:54:16Z</time>
  <course>67.46</course>
  <speed>4.99</speed>
  <fix>3d</fix>
</trkpt>
<trkpt lat="40.0719881" lon="-105.22787">
  <ele>1582.91</ele>
  <time>2026-08-28T17:54:16Z</time>
  <course>68.47</course>
  <speed>4.969346033433373</speed>
  <fix>3d</fix>
</trkpt>
<trkpt lat="40.0719862" lon="-105.2278767">
  <ele>1583.0</ele>
  <time>2026-08-28T17:54:16Z</time>
  <course>67.46</course>
  <speed>5.0</speed>
  <fix>3d</fix>
</trkpt>
<trkpt lat="40.0719898" lon="-105.2278645">
  <ele>1582.91</ele>
  <time>2026-08-28T17:54:16Z</time>
  <course>68.47</course>
  <speed>4.973137842449171</speed>
  <fix>3d</fix>
</trkpt>
<trkpt lat="40.0719862" lon="-105.2278767">
  <ele>1583.0</ele>
  <time>2026-08-28T17:54:16Z</time>
  <course>67.46</course>
  <speed>5.0</speed>
  <fix>3d</fix>
</trkpt>
<trkpt lat="40.0719915" lon="-105.2278591">
  <ele>1582.9</ele>
  <time>2026-08-28T17:54:16Z</time>
  <course>68.47</course>
  <speed>4.960090724976712</speed>
  <fix>3d</fix>
</trkpt>
<trkpt lat="40.0719895" lon="-105.2278658">
  <ele>1583.0</ele>
  <time>2026-08-28T17:54:16Z</time>
  <course>67.46</course>
  <speed>5.0</speed>
  <fix>3d</fix>
</trkpt>
<trkpt lat="40.0719933" lon="-105.2278536">
  <ele>1582.9</ele>
  <time>2026-08-28T17:54:16Z</time>
  <course>68.47</course>
  <speed>4.960090724976712</speed>
  <fix>3d</fix>
</trkpt>
<trkpt lat="40.0719895" lon="-105.2278658">
  <ele>1583.0</ele>
  <time>2026-08-28T17:54:16Z</time>
  <course>67.46</course>
  <speed>5.0</speed>
  <fix>3d</fix>
</trkpt>
<trkpt lat="40.071995" lon="-105.2278481">
  <ele>1582.9</ele>
  <time>2026-08-28T17:54:16Z</time>
  <course>68.47</course>
  <speed>4.941588813327147</speed>
  <fix>3d</fix>
</trkpt>
<trkpt lat="40.071993" lon="-105.2278551">
  <ele>1583.0</ele>
  <time>2026-08-28T17:54:16Z</time>
  <course>67.46</course>
  <speed>4.98</speed>
  <fix>3d</fix>
</trkpt>
<trkpt lat="40.0719971" lon="-105.2278416">
  <ele>1582.9</ele>
  <time>2026-08-28T17:54:16Z</time>
  <course>68.47</course>
  <speed>4.906240923558483</speed>
  <fix>3d</fix>
</trkpt>
<trkpt lat="40.071993" lon="-105.2278551">
  <ele>1583.0</ele>
  <time>2026-08-28T17:54:16Z</time>
  <course>67.46</course>
  <speed>4.98</speed>
  <fix>3d</fix>
</trkpt>
<trkpt lat="40.0719988" lon="-105.2278363">
  <ele>1582.9</ele>
  <time>2026-08-28T17:54:16Z</time>
  <course>68.48</course>
  <speed>4.8746897337163935</speed>
  <fix>3d</fix>
</trkpt>
<trkpt lat="40.0719965" lon="-105.2278443">
  <ele>1583.0</ele>
  <time>2026-08-28T17:54:16Z</time>
  <course>67.46</course>
  <speed>4.94</speed>
  <fix>3d</fix>
</trkpt>
<trkpt lat="40.0720005" lon="-105.227831">
  <ele>1582.9</ele>
  <time>2026-08-28T17:54:16Z</time>
  <course>68.63</course>
  <speed>4.826313292773274</speed>
  <fix>3d</fix>
</trkpt>
<trkpt lat="40.0719965" lon="-105.2278443">
  <ele>1583.0</ele>
  <time>2026-08-28T17:54:16Z</time>
  <course>67.46</course>
  <speed>4.94</speed>
  <fix>3d</fix>
</trkpt>
<trkpt lat="40.0720021" lon="-105.2278257">
  <ele>1582.9</ele>
  <time>2026-08-28T17:54:16Z</time>
  <course>68.9</course>
  <speed>4.774232922679831</speed>
  <fix>3d</fix>
</trkpt>
<trkpt lat="40.0719998" lon="-105.2278336">
  <ele>1583.0</ele>
  <time>2026-08-28T17:54:16Z</time>
  <course>67.65</course>
  <speed>4.85</speed>
  <fix>3d</fix>
</trkpt>
<trkpt lat="40.0720037" lon="-105.2278205">
  <ele>1582.9</ele>
  <time>2026-08-28T17:54:16Z</time>
  <course>69.3</course>
  <speed>4.705613668800277</speed>
  <fix>3d</fix>
</trkpt>
<trkpt lat="40.0719998" lon="-105.2278336">
  <ele>1583.0</ele>
  <time>2026-08-28T17:54:16Z</time>
  <course>67.65</course>
  <speed>4.85</speed>
  <fix>3d</fix>
</trkpt>
<trkpt lat="40.0720053" lon="-105.2278153">
  <ele>1582.9</ele>
  <time>2026-08-28T17:54:16Z</time>
  <course>69.86</course>
  <speed>4.624381039663579</speed>
  <fix>3d</fix>
</trkpt>
<trkpt lat="40.0720031" lon="-105.2278231">
  <ele>1583.0</ele>
  <time>2026-08-28T17:54:16Z</time>
  <course>68.28</course>
  <speed>4.73</speed>
  <fix>3d</fix>
</trkpt>
<trkpt lat="40.0720067" lon="-105.2278103">
  <ele>1582.9</ele>
  <time>2026-08-28T17:54:16Z</time>
  <course>70.56</course>
  <speed>4.530717382490327</speed>
  <fix>3d</fix>
</trkpt>
<trkpt lat="40.0720031" lon="-105.2278231">
  <ele>1583.0</ele>
  <time>2026-08-28T17:54:16Z</time>
  <course>68.28</course>
  <speed>4.73</speed>
  <fix>3d</fix>
</trkpt>
<trkpt lat="40.0720081" lon="-105.2278054">
  <ele>1582.9</ele>
  <time>2026-08-28T17:54:16Z</time>
  <course>71.42</course>
  <speed>4.4309479798345635</speed>
  <fix>3d</fix>
</trkpt>
<trkpt lat="40.0720061" lon="-105.227813">
  <ele>1583.0</ele>
  <time>2026-08-28T17:54:16Z</time>
  <course>69.48</course>
  <speed>4.57</speed>
  <fix>3d</fix>
</trkpt>
<trkpt lat="40.0720094" lon="-105.2278006">
  <ele>1582.9</ele>
  <time>2026-08-28T17:54:16Z</time>
  <course>72.46</course>
  <speed>4.3291685113887635</speed>
  <fix>3d</fix>
</trkpt>
<trkpt lat="40.0720061" lon="-105.227813">
  <ele>1583.0</ele>
  <time>2026-08-28T17:54:16Z</time>
  <course>69.48</course>
  <speed>4.57</speed>
  <fix>3d</fix>
</trkpt>
<trkpt lat="40.0720106" lon="-105.2277958">
  <ele>1582.9</ele>
  <time>2026-08-28T17:54:16Z</time>
  <course>73.68</course>
  <speed>4.216455857707987</speed>
  <fix>3d</fix>
</trkpt>
<trkpt lat="40.0720088" lon="-105.227803">
  <ele>1583.0</ele>
  <time>2026-08-28T17:54:16Z</time>
  <course>71.32</course>
  <speed>4.38</speed>
  <fix>3d</fix>
</trkpt>
<trkpt lat="40.0720116" lon="-105.2277911">
  <ele>1582.9</ele>
  <time>2026-08-28T17:54:16Z</time>
  <course>75.08</course>
  <speed>4.112626897738233</speed>
  <fix>3d</fix>
</trkpt>
<trkpt lat="40.0720088" lon="-105.227803">
  <ele>1583.0</ele>
  <time>2026-08-28T17:54:16Z</time>
  <course>71.32</course>
  <speed>4.38</speed>
  <fix>3d</fix>
</trkpt>
<trkpt lat="40.0720125" lon="-105.2277866">
  <ele>1582.9</ele>
  <time>2026-08-28T17:54:16Z</time>
  <course>76.6</course>
  <speed>4.0018495723852485</speed>
  <fix>3d</fix>
</trkpt>
<trkpt lat="40.0720111" lon="-105.2277934">
  <ele>1583.0</ele>
  <time>2026-08-28T17:54:16Z</time>
  <course>73.84</course>
  <speed>4.17</speed>
  <fix>3d</fix>
</trkpt>
<trkpt lat="40.0720134" lon="-105.2277821">
  <ele>1582.9</ele>
  <time>2026-08-28T17:54:16Z</time>
  <course>78.18</course>
  <speed>3.893905494487507</speed>
  <fix>3d</fix>
</trkpt>
<trkpt lat="40.0720111" lon="-105.2277934">
  <ele>1583.0</ele>
  <time>2026-08-28T17:54:16Z</time>
  <course>73.84</course>
  <speed>4.17</speed>
  <fix>3d</fix>
</trkpt>
<trkpt lat="40.0720139" lon="-105.2277785">
  <ele>1582.9</ele>
  <time>2026-08-28T17:54:16Z</time>
  <course>79.47</course>
  <speed>3.8125057377006004</speed>
  <fix>3d</fix>
</trkpt>
<trkpt lat="40.072013" lon="-105.2277843">
  <ele>1583.0</ele>
  <time>2026-08-28T17:54:16Z</time>
  <course>76.86</course>
  <speed>3.96</speed>
  <fix>3d</fix>
</trkpt>
<trkpt lat="40.0720145" lon="-105.2277742">
  <ele>1582.9</ele>
  <time>2026-08-28T17:54:16Z</time>
  <course>81.14</course>
  <speed>3.7121422386541174</speed>
  <fix>3d</fix>
</trkpt>
<trkpt lat="40.072013" lon="-105.2277843">
  <ele>1583.0</ele>
  <time>2026-08-28T17:54:16Z</time>
  <course>76.86</course>
  <speed>3.96</speed>
  <fix>3d</fix>
</trkpt>
<trkpt lat="40.072015" lon="-105.2277699">
  <ele>1582.9</ele>
  <time>2026-08-28T17:54:16Z</time>
  <course>82.87</course>
  <speed>3.623285801589491</speed>
  <fix>3d</fix>
</trkpt>
<trkpt lat="40.0720144" lon="-105.2277753">
  <ele>1583.0</ele>
  <time>2026-08-28T17:54:16Z</time>
  <course>80.14</course>
  <speed>3.77</speed>
  <fix>3d</fix>
</trkpt>
<trkpt lat="40.0720154" lon="-105.2277657">
  <ele>1582.9</ele>
  <time>2026-08-28T17:54:16Z</time>
  <course>84.62</course>
  <speed>3.5393926032583614</speed>
  <fix>3d</fix>
</trkpt>
<trkpt lat="40.0720144" lon="-105.2277753">
  <ele>1583.0</ele>
  <time>2026-08-28T17:54:16Z</time>
  <course>80.14</course>
  <speed>3.77</speed>
  <fix>3d</fix>
</trkpt>
<trkpt lat="40.0720157" lon="-105.2277616">
  <ele>1582.9</ele>
  <time>2026-08-28T17:54:16Z</time>
  <course>86.45</course>
  <speed>3.4583377510011943</speed>
  <fix>3d</fix>
</trkpt>
<trkpt lat="40.0720153" lon="-105.2277667">
  <ele>1583.0</ele>
  <time>2026-08-28T17:54:16Z</time>
  <course>83.65</course>
  <speed>3.59</speed>
  <fix>3d</fix>
</trkpt>
<trkpt lat="40.0720158" lon="-105.2277575">
  <ele>1582.9</ele>
  <time>2026-08-28T17:54:16Z</time>
  <course>88.3</course>
  <speed>3.3824990761269986</speed>
  <fix>3d</fix>
</trkpt>
<trkpt lat="40.0720153" lon="-105.2277667">
  <ele>1583.0</ele>
  <time>2026-08-28T17:54:16Z</time>
  <course>83.65</course>
  <speed>3.59</speed>
  <fix>3d</fix>
</trkpt>
<trkpt lat="40.0720159" lon="-105.2277536">
  <ele>1582.9</ele>
  <time>2026-08-28T17:54:16Z</time>
  <course>90.21</course>
  <speed>3.3100151057057126</speed>
  <fix>3d</fix>
</trkpt>
<trkpt lat="40.0720158" lon="-105.2277585">
  <ele>1583.0</ele>
  <time>2026-08-28T17:54:16Z</time>
  <course>87.35</course>
  <speed>3.44</speed>
  <fix>3d</fix>
</trkpt>
<trkpt lat="40.0720158" lon="-105.2277488">
  <ele>1582.9</ele>
  <time>2026-08-28T17:54:16Z</time>
  <course>92.56</course>
  <speed>3.242221460665511</speed>
  <fix>3d</fix>
</trkpt>
<trkpt lat="40.0720158" lon="-105.2277585">
  <ele>1583.0</ele>
  <time>2026-08-28T17:54:16Z</time>
  <course>87.35</course>
  <speed>3.44</speed>
  <fix>3d</fix>
</trkpt>
<trkpt lat="40.0720157" lon="-105.227745">
  <ele>1582.9</ele>
  <time>2026-08-28T17:54:16Z</time>
  <course>94.54</course>
  <speed>3.198280788173546</speed>
  <fix>3d</fix>
</trkpt>
<trkpt lat="40.0720158" lon="-105.2277507">
  <ele>1583.0</ele>
  <time>2026-08-28T17:54:16Z</time>
  <course>91.21</course>
  <speed>3.31</speed>
  <fix>3d</fix>
</trkpt>
<trkpt lat="40.0720155" lon="-105.2277413">
  <ele>1582.9</ele>
  <time>2026-08-28T17:54:16Z</time>
  <course>96.56</course>
  <speed>3.1495078980691575</speed>
  <fix>3d</fix>
</trkpt>
<trkpt lat="40.0720158" lon="-105.2277507">
  <ele>1583.0</ele>
  <time>2026-08-28T17:54:16Z</time>
  <course>91.21</course>
  <speed>3.31</speed>
  <fix>3d</fix>
</trkpt>
<trkpt lat="40.0720151" lon="-105.2277376">
  <ele>1582.9</ele>
  <time>2026-08-28T17:54:16Z</time>
  <course>98.59</course>
  <speed>3.114161203277698</speed>
  <fix>3d</fix>
</trkpt>
<trkpt lat="40.0720156" lon="-105.227743">
  <ele>1583.0</ele>
  <time>2026-08-28T17:54:16Z</time>
  <course>95.21</course>
  <speed>3.22</speed>
  <fix>3d</fix>
</trkpt>
<trkpt lat="40.0720146" lon="-105.2277339">
  <ele>1582.9</ele>
  <time>2026-08-28T17:54:16Z</time>
  <course>100.64</course>
  <speed>3.092975913258944</speed>
  <fix>3d</fix>
</trkpt>
<trkpt lat="40.0720156" lon="-105.227743">
  <ele>1583.0</ele>
  <time>2026-08-28T17:54:16Z</time>
  <course>95.21</course>
  <speed>3.22</speed>
  <fix>3d</fix>
</trkpt>
<trkpt lat="40.0720141" lon="-105.2277303">
  <ele>1582.9</ele>
  <time>2026-08-28T17:54:16Z</time>
  <course>102.71</course>
  <speed>3.0761014287568607</speed>
  <fix>3d</fix>
</trkpt>
<trkpt lat="40.0720149" lon="-105.2277355">
  <ele>1583.0</ele>
  <time>2026-08-28T17:54:16Z</time>
  <course>99.32</course>
  <speed>3.15</speed>
  <fix>3d</fix>
</trkpt>
<trkpt lat="40.0720134" lon="-105.2277268">
  <ele>1582.9</ele>
  <time>2026-08-28T17:54:16Z</time>
  <course>104.77</course>
  <speed>3.0636089828827697</speed>
  <fix>3d</fix>
</trkpt>
<trkpt lat="40.0720149" lon="-105.2277355">
  <ele>1583.0</ele>
  <time>2026-08-28T17:54:16Z</time>
  <course>99.32</course>
  <speed>3.15</speed>
  <fix>3d</fix>
</trkpt>
<trkpt lat="40.0720126" lon="-105.2277233">
  <ele>1582.9</ele>
  <time>2026-08-28T17:54:16Z</time>
  <course>106.84</course>
  <speed>3.055552323230614</speed>
  <fix>3d</fix>
</trkpt>
<trkpt lat="40.0720138" lon="-105.2277283">
  <ele>1583.0</ele>
  <time>2026-08-28T17:54:16Z</time>
  <course>103.47</course>
  <speed>3.12</speed>
  <fix>3d</fix>
</trkpt>
<trkpt lat="40.0720118" lon="-105.2277199">
  <ele>1582.9</ele>
  <time>2026-08-28T17:54:16Z</time>
  <course>108.9</course>
  <speed>3.0581203377238113</speed>
  <fix>3d</fix>
</trkpt>
<trkpt lat="40.0720138" lon="-105.2277283">
  <ele>1583.0</ele>
  <time>2026-08-28T17:54:16Z</time>
  <course>103.47</course>
  <speed>3.12</speed>
  <fix>3d</fix>
</trkpt>
<trkpt lat="40.0720109" lon="-105.2277165">
  <ele>1582.9</ele>
  <time>2026-08-28T17:54:16Z</time>
  <course>110.96</course>
  <speed>3.071481727114781</speed>
  <fix>3d</fix>
</trkpt>
<trkpt lat="40.0720123" lon="-105.2277212">
  <ele>1583.0</ele>
  <time>2026-08-28T17:54:16Z</time>
  <course>107.62</course>
  <speed>3.11</speed>
  <fix>3d</fix>
</trkpt>
<trkpt lat="40.0720098" lon="-105.2277131">
  <ele>1582.91</ele>
  <time>2026-08-28T17:54:16Z</time>
  <course>112.99</course>
  <speed>3.0949151846213816</speed>
  <fix>3d</fix>
</trkpt>
<trkpt lat="40.0720123" lon="-105.2277212">
  <ele>1583.0</ele>
  <time>2026-08-28T17:54:16Z</time>
  <course>107.62</course>
  <speed>3.11</speed>
  <fix>3d</fix>
</trkpt>
<trkpt lat="40.0720087" lon="-105.2277097">
  <ele>1582.91</ele>
  <time>2026-08-28T17:54:16Z</time>
  <course>115.01</course>
  <speed>3.113149530620076</speed>
  <fix>3d</fix>
</trkpt>
<trkpt lat="40.0720104" lon="-105.2277144">
  <ele>1583.0</ele>
  <time>2026-08-28T17:54:16Z</time>
  <course>111.73</course>
  <speed>3.14</speed>
  <fix>3d</fix>
</trkpt>
<trkpt lat="40.0720074" lon="-105.2277064">
  <ele>1582.91</ele>
  <time>2026-08-28T17:54:16Z</time>
  <course>117.0</course>
  <speed>3.1442964236852733</speed>
  <fix>3d</fix>
</trkpt>
<trkpt lat="40.0720104" lon="-105.2277144">
  <ele>1583.0</ele>
  <time>2026-08-28T17:54:16Z</time>
  <course>111.73</course>
  <speed>3.14</speed>
  <fix>3d</fix>
</trkpt>
<trkpt lat="40.0720064" lon="-105.2277038">
  <ele>1582.91</ele>
  <time>2026-08-28T17:54:16Z</time>
  <course>118.59</course>
  <speed>3.1829074758779905</speed>
  <fix>3d</fix>
</trkpt>
<trkpt lat="40.0720081" lon="-105.2277076">
  <ele>1583.0</ele>
  <time>2026-08-28T17:54:16Z</time>
  <course>115.77</course>
  <speed>3.19</speed>
  <fix>3d</fix>
</trkpt>
<trkpt lat="40.0720049" lon="-105.2277004">
  <ele>1582.91</ele>
  <time>2026-08-28T17:54:16Z</time>
  <course>120.52</course>
  <speed>3.220745255371806</speed>
  <fix>3d</fix>
</trkpt>
<trkpt lat="40.0720081" lon="-105.2277076">
  <ele>1583.0</ele>
  <time>2026-08-28T17:54:16Z</time>
  <course>115.77</course>
  <speed>3.19</speed>
  <fix>3d</fix>
</trkpt>
<trkpt lat="40.0720034" lon="-105.2276971">
  <ele>1582.91</ele>
  <time>2026-08-28T17:54:16Z</time>
  <course>122.42</course>
  <speed>3.2674148802991025</speed>
  <fix>3d</fix>
</trkpt>
<trkpt lat="40.0720054" lon="-105.2277009">
  <ele>1583.0</ele>
  <time>2026-08-28T17:54:16Z</time>
  <course>119.69</course>
  <speed>3.26</speed>
  <fix>3d</fix>
</trkpt>
<trkpt lat="40.0720017" lon="-105.2276938">
  <ele>1582.91</ele>
  <time>2026-08-28T17:54:16Z</time>
  <course>124.27</course>
  <speed>3.3260938050512046</speed>
  <fix>3d</fix>
</trkpt>
<trkpt lat="40.0720054" lon="-105.2277009">
  <ele>1583.0</ele>
  <time>2026-08-28T17:54:16Z</time>
  <course>119.69</course>
  <speed>3.26</speed>
  <fix>3d</fix>
</trkpt>
<trkpt lat="40.072" lon="-105.2276906">
  <ele>1582.91</ele>
  <time>2026-08-28T17:54:16Z</time>
  <course>126.07</course>
  <speed>3.3800147928670374</speed>
  <fix>3d</fix>
</trkpt>
<trkpt lat="40.0720023" lon="-105.2276943">
  <ele>1583.0</ele>
  <time>2026-08-28T17:54:16Z</time>
  <course>123.46</course>
  <speed>3.35</speed>
  <fix>3d</fix>
</trkpt>
<trkpt lat="40.0719981" lon="-105.2276873">
  <ele>1582.91</ele>
  <time>2026-08-28T17:54:16Z</time>
  <course>127.84</course>
  <speed>3.437397271192261</speed>
  <fix>3d</fix>
</trkpt>
<trkpt lat="40.0720023" lon="-105.2276943">
  <ele>1583.0</ele>
  <time>2026-08-28T17:54:16Z</time>
  <course>123.46</course>
  <speed>3.35</speed>
  <fix>3d</fix>
</trkpt>
<trkpt lat="40.0719961" lon="-105.2276841">
  <ele>1582.91</ele>
  <time>2026-08-28T17:54:16Z</time>
  <course>129.58</course>
  <speed>3.5121645747316568</speed>
  <fix>3d</fix>
</trkpt>
<trkpt lat="40.0719987" lon="-105.2276877">
  <ele>1583.0</ele>
  <time>2026-08-28T17:54:16Z</time>
  <course>127.09</course>
  <speed>3.46</speed>
  <fix>3d</fix>
</trkpt>
<trkpt lat="40.071994" lon="-105.2276809">
  <ele>1582.91</ele>
  <time>2026-08-28T17:54:16Z</time>
  <course>131.27</course>
  <speed>3.575989373586001</speed>
  <fix>3d</fix>
</trkpt>
<trkpt lat="40.0719987" lon="-105.2276877">
  <ele>1583.0</ele>
  <time>2026-08-28T17:54:16Z</time>
  <course>127.09</course>
  <speed>3.46</speed>
  <fix>3d</fix>
</trkpt>
<trkpt lat="40.0719913" lon="-105.227677">
  <ele>1582.91</ele>
  <time>2026-08-28T17:54:16Z</time>
  <course>133.26</course>
  <speed>3.6634955984687627</speed>
  <fix>3d</fix>
</trkpt>
<trkpt lat="40.0719948" lon="-105.2276813">
  <ele>1583.0</ele>
  <time>2026-08-28T17:54:16Z</time>
  <course>130.54</course>
  <speed>3.58</speed>
  <fix>3d</fix>
</trkpt>
<trkpt lat="40.071989" lon="-105.2276738">
  <ele>1582.91</ele>
  <time>2026-08-28T17:54:16Z</time>
  <course>134.85</course>
  <speed>3.733630940518894</speed>
  <fix>3d</fix>
</trkpt>
<trkpt lat="40.0719948" lon="-105.2276813">
  <ele>1583.0</ele>
  <time>2026-08-28T17:54:16Z</time>
  <course>130.54</course>
  <speed>3.58</speed>
  <fix>3d</fix>
</trkpt>
<trkpt lat="40.0719865" lon="-105.2276707">
  <ele>1582.91</ele>
  <time>2026-08-28T17:54:16Z</time>
  <course>136.4</course>
  <speed>3.8136727704405895</speed>
  <fix>3d</fix>
</trkpt>
<trkpt lat="40.0719904" lon="-105.2276749">
  <ele>1583.0</ele>
  <time>2026-08-28T17:54:16Z</time>
  <course>133.81</course>
  <speed>3.72</speed>
  <fix>3d</fix>
</trkpt>
<trkpt lat="40.071984" lon="-105.2276676">
  <ele>1582.9</ele>
  <time>2026-08-28T17:54:16Z</time>
  <course>137.9</course>
  <speed>3.8890230135600894</speed>
  <fix>3d</fix>
</trkpt>
<trkpt lat="40.0719904" lon="-105.2276749">
  <ele>1583.0</ele>
  <time>2026-08-28T17:54:16Z</time>
  <course>133.81</course>
  <speed>3.72</speed>
  <fix>3d</fix>
</trkpt>
<trkpt lat="40.0719813" lon="-105.2276645">
  <ele>1582.9</ele>
  <time>2026-08-28T17:54:16Z</time>
  <course>139.28</course>
  <speed>3.966673669461606</speed>
  <fix>3d</fix>
</trkpt>
<trkpt lat="40.0719855" lon="-105.2276687">
  <ele>1583.0</ele>
  <time>2026-08-28T17:54:16Z</time>
  <course>136.88</course>
  <speed>3.86</speed>
  <fix>3d</fix>
</trkpt>
<trkpt lat="40.0719786" lon="-105.2276614">
  <ele>1582.9</ele>
  <time>2026-08-28T17:54:16Z</time>
  <course>140.5</course>
  <speed>4.046492308160242</speed>
  <fix>3d</fix>
</trkpt>
<trkpt lat="40.0719855" lon="-105.2276687">
  <ele>1583.0</ele>
  <time>2026-08-28T17:54:16Z</time>
  <course>136.88</course>
  <speed>3.86</speed>
  <fix>3d</fix>
</trkpt>
<trkpt lat="40.0719757" lon="-105.2276584">
  <ele>1582.91</ele>
  <time>2026-08-28T17:54:16Z</time>
  <course>141.57</course>
  <speed>4.1326988760373045</speed>
  <fix>3d</fix>
</trkpt>
<trkpt lat="40.0719802" lon="-105.2276625">
  <ele>1583.0</ele>
  <time>2026-08-28T17:54:16Z</time>
  <course>139.53</course>
  <speed>4.02</speed>
  <fix>3d</fix>
</trkpt>
<trkpt lat="40.0719728" lon="-105.2276554">
  <ele>1582.91</ele>
  <time>2026-08-28T17:54:16Z</time>
  <course>142.48</course>
  <speed>4.220011848324599</speed>
  <fix>3d</fix>
</trkpt>
<trkpt lat="40.0719802" lon="-105.2276625">
  <ele>1583.0</ele>
  <time>2026-08-28T17:54:16Z</time>
  <course>139.53</course>
  <speed>4.02</speed>
  <fix>3d</fix>
</trkpt>
<trkpt lat="40.0719698" lon="-105.2276523">
  <ele>1582.91</ele>
  <time>2026-08-28T17:54:16Z</time>
  <course>143.24</course>
  <speed>4.306204825597593</speed>
  <fix>3d</fix>
</trkpt>
<trkpt lat="40.0719745" lon="-105.2276564">
  <ele>1583.0</ele>
  <time>2026-08-28T17:54:16Z</time>
  <course>141.57</course>
  <speed>4.18</speed>
  <fix>3d</fix>
</trkpt>
<trkpt lat="40.0719667" lon="-105.2276493">
  <ele>1582.91</ele>
  <time>2026-08-28T17:54:16Z</time>
  <course>143.87</course>
  <speed>4.398840756381163</speed>
  <fix>3d</fix>
</trkpt>
<trkpt lat="40.0719745" lon="-105.2276564">
  <ele>1583.0</ele>
  <time>2026-08-28T17:54:16Z</time>
  <course>141.57</course>
  <speed>4.18</speed>
  <fix>3d</fix>
</trkpt>
<trkpt lat="40.0719634" lon="-105.2276462">
  <ele>1582.91</ele>
  <time>2026-08-28T17:54:16Z</time>
  <course>144.36</course>
  <speed>4.497654944523868</speed>
  <fix>3d</fix>
</trkpt>
<trkpt lat="40.0719684" lon="-105.2276502">
  <ele>1583.0</ele>
  <time>2026-08-28T17:54:16Z</time>
  <course>143.02</course>
  <speed>4.36</speed>
  <fix>3d</fix>
</trkpt>
<trkpt lat="40.0719602" lon="-105.2276431">
  <ele>1582.91</ele>
  <time>2026-08-28T17:54:16Z</time>
  <course>144.71</course>
  <speed>4.596716219215626</speed>
  <fix>3d</fix>
</trkpt>
<trkpt lat="40.0719684" lon="-105.2276502">
  <ele>1583.0</ele>
  <time>2026-08-28T17:54:16Z</time>
  <course>143.02</course>
  <speed>4.36</speed>
  <fix>3d</fix>
</trkpt>
<trkpt lat="40.0719568" lon="-105.2276399">
  <ele>1582.91</ele>
  <time>2026-08-28T17:54:16Z</time>
  <course>144.94</course>
  <speed>4.699148859102039</speed>
  <fix>3d</fix>
</trkpt>
<trkpt lat="40.071962" lon="-105.227644">
  <ele>1583.0</ele>
  <time>2026-08-28T17:54:16Z</time>
  <course>143.92</course>
  <speed>4.56</speed>
  <fix>3d</fix>
</trkpt>
<trkpt lat="40.071954" lon="-105.2276373">
  <ele>1582.91</ele>
  <time>2026-08-28T17:54:16Z</time>
  <course>145.05</course>
  <speed>4.779466497424163</speed>
  <fix>3d</fix>
</trkpt>
<trkpt lat="40.071962" lon="-105.227644">
  <ele>1583.0</ele>
  <time>2026-08-28T17:54:16Z</time>
  <course>143.92</course>
  <speed>4.56</speed>
  <fix>3d</fix>
</trkpt>
<trkpt lat="40.0719505" lon="-105.2276341">
  <ele>1582.91</ele>
  <time>2026-08-28T17:54:16Z</time>
  <course>145.11</course>
  <speed>4.8737049561909265</speed>
  <fix>3d</fix>
</trkpt>
<trkpt lat="40.0719552" lon="-105.2276376">
  <ele>1583.0</ele>
  <time>2026-08-28T17:54:16Z</time>
  <course>144.35</course>
  <speed>4.75</speed>
  <fix>3d</fix>
</trkpt>
<trkpt lat="40.0719469" lon="-105.2276307">
  <ele>1582.92</ele>
  <time>2026-08-28T17:54:16Z</time>
  <course>145.17</course>
  <speed>4.959717733903815</speed>
  <fix>3d</fix>
</trkpt>
<trkpt lat="40.0719552" lon="-105.2276376">
  <ele>1583.0</ele>
  <time>2026-08-28T17:54:16Z</time>
  <course>144.35</course>
  <speed>4.75</speed>
  <fix>3d</fix>
</trkpt>
<trkpt lat="40.0719432" lon="-105.2276273">
  <ele>1582.92</ele>
  <time>2026-08-28T17:54:16Z</time>
  <course>145.22</course>
  <speed>5.053958844312051</speed>
  <fix>3d</fix>
</trkpt>
<trkpt lat="40.0719481" lon="-105.227631">
  <ele>1583.0</ele>
  <time>2026-08-28T17:54:16Z</time>
  <course>144.52</course>
  <speed>4.94</speed>
  <fix>3d</fix>
</trkpt>
<trkpt lat="40.0719395" lon="-105.2276238">
  <ele>1582.92</ele>
  <time>2026-08-28T17:54:16Z</time>
  <course>145.28</course>
  <speed>5.1260608658110955</speed>
  <fix>3d</fix>
</trkpt>
<trkpt lat="40.0719481" lon="-105.227631">
  <ele>1583.0</ele>
  <time>2026-08-28T17:54:16Z</time>
  <course>144.52</course>
  <speed>4.94</speed>
  <fix>3d</fix>
</trkpt>
<trkpt lat="40.0719357" lon="-105.2276203">
  <ele>1582.92</ele>
  <time>2026-08-28T17:54:16Z</time>
  <course>145.34</course>
  <speed>5.198163137109108</speed>
  <fix>3d</fix>
</trkpt>
<trkpt lat="40.0719408" lon="-105.2276242">
  <ele>1583.0</ele>
  <time>2026-08-28T17:54:16Z</time>
  <course>144.66</course>
  <speed>5.09</speed>
  <fix>3d</fix>
</trkpt>
<trkpt lat="40.0719318" lon="-105.2276167">
  <ele>1582.92</ele>
  <time>2026-08-28T17:54:16Z</time>
  <course>145.4</course>
  <speed>5.242451716515852</speed>
  <fix>3d</fix>
</trkpt>
<trkpt lat="40.0719408" lon="-105.2276242">
  <ele>1583.0</ele>
  <time>2026-08-28T17:54:16Z</time>
  <course>144.66</course>
  <speed>5.09</speed>
  <fix>3d</fix>
</trkpt>
<trkpt lat="40.0719279" lon="-105.2276131">
  <ele>1582.91</ele>
  <time>2026-08-28T17:54:16Z</time>
  <course>145.46</course>
  <speed>5.286747582398842</speed>
  <fix>3d</fix>
</trkpt>
<trkpt lat="40.0719332" lon="-105.2276172">
  <ele>1583.0</ele>
  <time>2026-08-28T17:54:16Z</time>
  <course>144.8</course>
  <speed>5.21</speed>
  <fix>3d</fix>
</trkpt>
<trkpt lat="40.0719232" lon="-105.2276087">
  <ele>1582.91</ele>
  <time>2026-08-28T17:54:16Z</time>
  <course>145.54</course>
  <speed>5.322800015029684</speed>
  <fix>3d</fix>
</trkpt>
<trkpt lat="40.0719332" lon="-105.2276172">
  <ele>1583.0</ele>
  <time>2026-08-28T17:54:16Z</time>
  <course>144.8</course>
  <speed>5.21</speed>
  <fix>3d</fix>
</trkpt>
<trkpt lat="40.0719192" lon="-105.2276051">
  <ele>1582.91</ele>
  <time>2026-08-28T17:54:16Z</time>
  <course>145.6</course>
  <speed>5.336703102103395</speed>
  <fix>3d</fix>
</trkpt>
<trkpt lat="40.0719254" lon="-105.2276101">
  <ele>1583.0</ele>
  <time>2026-08-28T17:54:16Z</time>
  <course>144.94</course>
  <speed>5.27</speed>
  <fix>3d</fix>
</trkpt>
<trkpt lat="40.0719153" lon="-105.2276015">
  <ele>1582.91</ele>
  <time>2026-08-28T17:54:16Z</time>
  <course>145.67</course>
  <speed>5.344950888455384</speed>
  <fix>3d</fix>
</trkpt>
<trkpt lat="40.0719254" lon="-105.2276101">
  <ele>1583.0</ele>
  <time>2026-08-28T17:54:16Z</time>
  <course>144.94</course>
  <speed>5.27</speed>
  <fix>3d</fix>
</trkpt>
<trkpt lat="40.0719113" lon="-105.2275979">
  <ele>1582.91</ele>
  <time>2026-08-28T17:54:16Z</time>
  <course>145.73</course>
  <speed>5.339307071146967</speed>
  <fix>3d</fix>
</trkpt>
<trkpt lat="40.0719177" lon="-105.227603">
  <ele>1583.0</ele>
  <time>2026-08-28T17:54:16Z</time>
  <course>145.08</course>
  <speed>5.3</speed>
  <fix>3d</fix>
</trkpt>
<trkpt lat="40.0719074" lon="-105.2275943">
  <ele>1582.91</ele>
  <time>2026-08-28T17:54:16Z</time>
  <course>145.8</course>
  <speed>5.339307071146967</speed>
  <fix>3d</fix>
</trkpt>
<trkpt lat="40.0719177" lon="-105.227603">
  <ele>1583.0</ele>
  <time>2026-08-28T17:54:16Z</time>
  <course>145.08</course>
  <speed>5.3</speed>
  <fix>3d</fix>
</trkpt>
<trkpt lat="40.0719034" lon="-105.2275907">
  <ele>1582.91</ele>
  <time>2026-08-28T17:54:16Z</time>
  <course>145.86</course>
  <speed>5.3197838301946065</speed>
  <fix>3d</fix>
</trkpt>
<trkpt lat="40.0719098" lon="-105.2275959">
  <ele>1583.0</ele>
  <time>2026-08-28T17:54:16Z</time>
  <course>145.23</course>
  <speed>5.29</speed>
  <fix>3d</fix>
</trkpt>
<trkpt lat="40.0718996" lon="-105.2275872">
  <ele>1582.91</ele>
  <time>2026-08-28T17:54:16Z</time>
  <course>145.93</course>
  <speed>5.297622108078302</speed>
  <fix>3d</fix>
</trkpt>
<trkpt lat="40.0719098" lon="-105.2275959">
  <ele>1583.0</ele>
  <time>2026-08-28T17:54:16Z</time>
  <course>145.23</course>
  <speed>5.29</speed>
  <fix>3d</fix>
</trkpt>
<trkpt lat="40.0718957" lon="-105.2275837">
  <ele>1582.92</ele>
  <time>2026-08-28T17:54:16Z</time>
  <course>145.99</course>
  <speed>5.269838707209168</speed>
  <fix>3d</fix>
</trkpt>
<trkpt lat="40.0719021" lon="-105.2275888">
  <ele>1583.0</ele>
  <time>2026-08-28T17:54:16Z</time>
  <course>145.37</course>
  <speed>5.26</speed>
  <fix>3d</fix>
</trkpt>
<trkpt lat="40.0718919" lon="-105.2275802">
  <ele>1582.92</ele>
  <time>2026-08-28T17:54:16Z</time>
  <course>146.03</course>
  <speed>5.242060663517735</speed>
  <fix>3d</fix>
</trkpt>
<trkpt lat="40.0719021" lon="-105.2275888">
  <ele>1583.0</ele>
  <time>2026-08-28T17:54:16Z</time>
  <course>145.37</course>
  <speed>5.26</speed>
  <fix>3d</fix>
</trkpt>
<trkpt lat="40.0718881" lon="-105.2275768">
  <ele>1582.92</ele>
  <time>2026-08-28T17:54:16Z</time>
  <course>146.05</course>
  <speed>5.206006146750116</speed>
  <fix>3d</fix>
</trkpt>
<trkpt lat="40.0718943" lon="-105.2275818">
  <ele>1583.0</ele>
  <time>2026-08-28T17:54:16Z</time>
  <course>145.48</course>
  <speed>5.21</speed>
  <fix>3d</fix>
</trkpt>
<trkpt lat="40.0718843" lon="-105.2275734">
  <ele>1582.93</ele>
  <time>2026-08-28T17:54:16Z</time>
  <course>146.1</course>
  <speed>5.178233289453074</speed>
  <fix>3d</fix>
</trkpt>
<trkpt lat="40.0718943" lon="-105.2275818">
  <ele>1583.0</ele>
  <time>2026-08-28T17:54:16Z</time>
  <course>145.48</course>
  <speed>5.21</speed>
  <fix>3d</fix>
</trkpt>
<trkpt lat="40.0718805" lon="-105.22757">
  <ele>1582.93</ele>
  <time>2026-08-28T17:54:16Z</time>
  <course>146.12</course>
  <speed>5.147785931835162</speed>
  <fix>3d</fix>
</trkpt>
<trkpt lat="40.0718866" lon="-105.2275749">
  <ele>1583.0</ele>
  <time>2026-08-28T17:54:16Z</time>
  <course>145.56</course>
  <speed>5.16</speed>
  <fix>3d</fix>
</trkpt>
<trkpt lat="40.0718768" lon="-105.2275666">
  <ele>1582.92</ele>
  <time>2026-08-28T17:54:16Z</time>
  <course>146.14</course>
  <speed>5.111731604847813</speed>
  <fix>3d</fix>
</trkpt>
<trkpt lat="40.0718866" lon="-105.2275749">
  <ele>1583.0</ele>
  <time>2026-08-28T17:54:16Z</time>
  <course>145.56</course>
  <speed>5.16</speed>
  <fix>3d</fix>
</trkpt>
<trkpt lat="40.0718738" lon="-105.2275639">
  <ele>1582.92</ele>
  <time>2026-08-28T17:54:16Z</time>
  <course>146.16</course>
  <speed>5.092239193125162</speed>
  <fix>3d</fix>
</trkpt>
<trkpt lat="40.0718789" lon="-105.2275681">
  <ele>1583.0</ele>
  <time>2026-08-28T17:54:16Z</time>
  <course>145.62</course>
  <speed>5.11</speed>
  <fix>3d</fix>
</trkpt>
<trkpt lat="40.07187" lon="-105.2275605">
  <ele>1582.92</ele>
  <time>2026-08-28T17:54:16Z</time>
  <course>146.18</course>
  <speed>5.061788221567552</speed>
  <fix>3d</fix>
</trkpt>
<trkpt lat="40.0718789" lon="-105.2275681">
  <ele>1583.0</ele>
  <time>2026-08-28T17:54:16Z</time>
  <course>145.62</course>
  <speed>5.11</speed>
  <fix>3d</fix>
</trkpt>
<trkpt lat="40.0718663" lon="-105.2275572">
  <ele>1582.92</ele>
  <time>2026-08-28T17:54:16Z</time>
  <course>146.21</course>
  <speed>5.03401430272104</speed>
  <fix>3d</fix>
</trkpt>
<trkpt lat="40.0718714" lon="-105.2275614">
  <ele>1583.0</ele>
  <time>2026-08-28T17:54:16Z</time>
  <course>145.67</course>
  <speed>5.05</speed>
  <fix>3d</fix>
</trkpt>
<trkpt lat="40.0718626" lon="-105.2275539">
  <ele>1582.92</ele>
  <time>2026-08-28T17:54:16Z</time>
  <course>146.21</course>
  <speed>5.011845967305859</speed>
  <fix>3d</fix>
</trkpt>
<trkpt lat="40.0718714" lon="-105.2275614">
  <ele>1583.0</ele>
  <time>2026-08-28T17:54:16Z</time>
  <course>145.67</course>
  <speed>5.05</speed>
  <fix>3d</fix>
</trkpt>
<trkpt lat="40.0718589" lon="-105.2275505">
  <ele>1582.92</ele>
  <time>2026-08-28T17:54:16Z</time>
  <course>146.22</course>
  <speed>4.99795958367012</speed>
  <fix>3d</fix>
</trkpt>
<trkpt lat="40.071864" lon="-105.2275547">
  <ele>1583.0</ele>
  <time>2026-08-28T17:54:16Z</time>
  <course>145.7</course>
  <speed>5.01</speed>
  <fix>3d</fix>
</trkpt>
<trkpt lat="40.0718552" lon="-105.2275472">
  <ele>1582.91</ele>
  <time>2026-08-28T17:54:16Z</time>
  <course>146.24</course>
  <speed>4.975791394341206</speed>
  <fix>3d</fix>
</trkpt>
<trkpt lat="40.071864" lon="-105.2275547">
  <ele>1583.0</ele>
  <time>2026-08-28T17:54:16Z</time>
  <course>145.7</course>
  <speed>5.01</speed>
  <fix>3d</fix>
</trkpt>
<trkpt lat="40.0718515" lon="-105.2275439">
  <ele>1582.91</ele>
  <time>2026-08-28T17:54:16Z</time>
  <course>146.24</course>
  <speed>4.967514469027745</speed>
  <fix>3d</fix>
</trkpt>
<trkpt lat="40.0718565" lon="-105.2275481">
  <ele>1583.0</ele>
  <time>2026-08-28T17:54:16Z</time>
  <course>145.71</course>
  <speed>4.97</speed>
  <fix>3d</fix>
</trkpt>
<trkpt lat="40.0718478" lon="-105.2275406">
  <ele>1582.91</ele>
  <time>2026-08-28T17:54:16Z</time>
  <course>146.25</course>
  <speed>4.953624935337757</speed>
  <fix>3d</fix>
</trkpt>
<trkpt lat="40.0718565" lon="-105.2275481">
  <ele>1583.0</ele>
  <time>2026-08-28T17:54:16Z</time>
  <course>145.71</course>
  <speed>4.97</speed>
  <fix>3d</fix>
</trkpt>
<trkpt lat="40.0718434" lon="-105.2275366">
  <ele>1582.9</ele>
  <time>2026-08-28T17:54:16Z</time>
  <course>146.27</course>
  <speed>4.93973683509557</speed>
  <fix>3d</fix>
</trkpt>
<trkpt lat="40.0718492" lon="-105.2275416">
  <ele>1583.0</ele>
  <time>2026-08-28T17:54:16Z</time>
  <course>145.73</course>
  <speed>4.95</speed>
  <fix>3d</fix>
</trkpt>
<trkpt lat="40.0718397" lon="-105.2275334">
  <ele>1582.9</ele>
  <time>2026-08-28T17:54:16Z</time>
  <course>146.27</course>
  <speed>4.931460229992735</speed>
  <fix>3d</fix>
</trkpt>
<trkpt lat="40.0718492" lon="-105.2275416">
  <ele>1583.0</ele>
  <time>2026-08-28T17:54:16Z</time>
  <course>145.73</course>
  <speed>4.95</speed>
  <fix>3d</fix>
</trkpt>
<trkpt lat="40.0718361" lon="-105.2275301">
  <ele>1582.89</ele>
  <time>2026-08-28T17:54:16Z</time>
  <course>146.28</course>
  <speed>4.9175705383857995</speed>
  <fix>3d</fix>
</trkpt>
<trkpt lat="40.0718419" lon="-105.227535">
  <ele>1583.0</ele>
  <time>2026-08-28T17:54:16Z</time>
  <course>145.74</course>
  <speed>4.93</speed>
  <fix>3d</fix>
</trkpt>
<trkpt lat="40.0718324" lon="-105.2275268">
  <ele>1582.89</ele>
  <time>2026-08-28T17:54:16Z</time>
  <course>146.28</course>
  <speed>4.9175705383857995</speed>
  <fix>3d</fix>
</trkpt>
<trkpt lat="40.0718419" lon="-105.227535">
  <ele>1583.0</ele>
  <time>2026-08-28T17:54:16Z</time>
  <course>145.74</course>
  <speed>4.93</speed>
  <fix>3d</fix>
</trkpt>
<trkpt lat="40.0718288" lon="-105.2275236">
  <ele>1582.89</ele>
  <time>2026-08-28T17:54:16Z</time>
  <course>146.28</course>
  <speed>4.9175705383857995</speed>
  <fix>3d</fix>
</trkpt>
<trkpt lat="40.0718345" lon="-105.2275285">
  <ele>1583.0</ele>
  <time>2026-08-28T17:54:16Z</time>
  <course>145.75</course>
  <speed>4.91</speed>
  <fix>3d</fix>
</trkpt>
<trkpt lat="40.0718251" lon="-105.2275203">
  <ele>1582.89</ele>
  <time>2026-08-28T17:54:16Z</time>
  <course>146.28</course>
  <speed>4.909297302058615</speed>
  <fix>3d</fix>
</trkpt>
<trkpt lat="40.0718345" lon="-105.2275285">
  <ele>1583.0</ele>
  <time>2026-08-28T17:54:16Z</time>
  <course>145.75</course>
  <speed>4.91</speed>
  <fix>3d</fix>
</trkpt>
<trkpt lat="40.0718215" lon="-105.2275171">
  <ele>1582.89</ele>
  <time>2026-08-28T17:54:16Z</time>
  <course>146.28</course>
  <speed>4.909297302058615</speed>
  <fix>3d</fix>
</trkpt>
<trkpt lat="40.0718272" lon="-105.227522">
  <ele>1583.0</ele>
  <time>2026-08-28T17:54:16Z</time>
  <course>145.75</course>
  <speed>4.91</speed>
  <fix>3d</fix>
</trkpt>
<trkpt lat="40.0718179" lon="-105.2275139">
  <ele>1582.89</ele>
  <time>2026-08-28T17:54:16Z</time>
  <course>146.28</course>
  <speed>4.909297302058615</speed>
  <fix>3d</fix>
</trkpt>
<trkpt lat="40.0718272" lon="-105.227522">
  <ele>1583.0</ele>
  <time>2026-08-28T17:54:16Z</time>
  <course>145.75</course>
  <speed>4.91</speed>
  <fix>3d</fix>
</trkpt>
<trkpt lat="40.0718143" lon="-105.2275107">
  <ele>1582.88</ele>
  <time>2026-08-28T17:54:16Z</time>
  <course>146.27</course>
  <speed>4.909297302058615</speed>
  <fix>3d</fix>
</trkpt>
<trkpt lat="40.0718199" lon="-105.2275155">
  <ele>1583.0</ele>
  <time>2026-08-28T17:54:16Z</time>
  <course>145.75</course>
  <speed>4.91</speed>
  <fix>3d</fix>
</trkpt>
<trkpt lat="40.0718107" lon="-105.2275074">
  <ele>1582.88</ele>
  <time>2026-08-28T17:54:16Z</time>
  <course>146.27</course>
  <speed>4.909297302058615</speed>
  <fix>3d</fix>
</trkpt>
<trkpt lat="40.0718199" lon="-105.2275155">
  <ele>1583.0</ele>
  <time>2026-08-28T17:54:16Z</time>
  <course>145.75</course>
  <speed>4.91</speed>
  <fix>3d</fix>
</trkpt>
<trkpt lat="40.0718071" lon="-105.2275042">
  <ele>1582.88</ele>
  <time>2026-08-28T17:54:16Z</time>
  <course>146.27</course>
  <speed>4.9175705383857995</speed>
  <fix>3d</fix>
</trkpt>
<trkpt lat="40.0718126" lon="-105.227509">
  <ele>1583.0</ele>
  <time>2026-08-28T17:54:16Z</time>
  <course>145.75</course>
  <speed>4.92</speed>
  <fix>3d</fix>
</trkpt>
<trkpt lat="40.0718035" lon="-105.227501">
  <ele>1582.88</ele>
  <time>2026-08-28T17:54:16Z</time>
  <course>146.27</course>
  <speed>4.9231900227393215</speed>
  <fix>3d</fix>
</trkpt>
<trkpt lat="40.0718126" lon="-105.227509">
  <ele>1583.0</ele>
  <time>2026-08-28T17:54:16Z</time>
  <course>145.75</course>
  <speed>4.92</speed>
  <fix>3d</fix>
</trkpt>
<trkpt lat="40.0717998" lon="-105.2274978">
  <ele>1582.88</ele>
  <time>2026-08-28T17:54:16Z</time>
  <course>146.27</course>
  <speed>4.931460229992735</speed>
  <fix>3d</fix>
</trkpt>
<trkpt lat="40.0718053" lon="-105.2275025">
  <ele>1583.0</ele>
  <time>2026-08-28T17:54:16Z</time>
  <course>145.75</course>
  <speed>4.94</speed>
  <fix>3d</fix>
</trkpt>
<trkpt lat="40.0717969" lon="-105.2274951">
  <ele>1582.88</ele>
  <time>2026-08-28T17:54:16Z</time>
  <course>146.27</course>
  <speed>4.931460229992735</speed>
  <fix>3d</fix>
</trkpt>
<trkpt lat="40.0718053" lon="-105.2275025">
  <ele>1583.0</ele>
  <time>2026-08-28T17:54:16Z</time>
  <course>145.75</course>
  <speed>4.94</speed>
  <fix>3d</fix>
</trkpt>
<trkpt lat="40.0717933" lon="-105.2274919">
  <ele>1582.87</ele>
  <time>2026-08-28T17:54:16Z</time>
  <course>146.27</course>
  <speed>4.945351352533002</speed>
  <fix>3d</fix>
</trkpt>
<trkpt lat="40.071798" lon="-105.227496">
  <ele>1583.0</ele>
  <time>2026-08-28T17:54:16Z</time>
  <course>145.75</course>
  <speed>4.96</speed>
  <fix>3d</fix>
</trkpt>
<trkpt lat="40.0717896" lon="-105.2274886">
  <ele>1582.87</ele>
  <time>2026-08-28T17:54:16Z</time>
  <course>146.28</course>
  <speed>4.945351352533002</speed>
  <fix>3d</fix>
</trkpt>
<trkpt lat="40.071798" lon="-105.227496">
  <ele>1583.0</ele>
  <time>2026-08-28T17:54:16Z</time>
  <course>145.75</course>
  <speed>4.96</speed>
  <fix>3d</fix>
</trkpt>
<trkpt lat="40.0717859" lon="-105.2274854">
  <ele>1582.87</ele>
  <time>2026-08-28T17:54:16Z</time>
  <course>146.29</course>
  <speed>4.945351352533002</speed>
  <fix>3d</fix>
</trkpt>
<trkpt lat="40.0717906" lon="-105.2274894">
  <ele>1583.0</ele>
  <time>2026-08-28T17:54:16Z</time>
  <course>145.75</course>
  <speed>4.97</speed>
  <fix>3d</fix>
</trkpt>
<trkpt lat="40.0717822" lon="-105.2274821">
  <ele>1582.87</ele>
  <time>2026-08-28T17:54:16Z</time>
  <course>146.3</course>
  <speed>4.945351352533002</speed>
  <fix>3d</fix>
</trkpt>
<trkpt lat="40.0717906" lon="-105.2274894">
  <ele>1583.0</ele>
  <time>2026-08-28T17:54:16Z</time>
  <course>145.75</course>
  <speed>4.97</speed>
  <fix>3d</fix>
</trkpt>
<trkpt lat="40.0717785" lon="-105.2274788">
  <ele>1582.87</ele>
  <time>2026-08-28T17:54:16Z</time>
  <course>146.3</course>
  <speed>4.931460229992735</speed>
  <fix>3d</fix>
</trkpt>
<trkpt lat="40.0717832" lon="-105.2274828">
  <ele>1583.0</ele>
  <time>2026-08-28T17:54:16Z</time>
  <course>145.75</course>
  <speed>4.96</speed>
  <fix>3d</fix>
</trkpt>
<trkpt lat="40.0717748" lon="-105.2274755">
  <ele>1582.87</ele>
  <time>2026-08-28T17:54:16Z</time>
  <course>146.33</course>
  <speed>4.909297302058615</speed>
  <fix>3d</fix>
</trkpt>
<trkpt lat="40.0717832" lon="-105.2274828">
  <ele>1583.0</ele>
  <time>2026-08-28T17:54:16Z</time>
  <course>145.75</course>
  <speed>4.96</speed>
  <fix>3d</fix>
</trkpt>
<trkpt lat="40.0717712" lon="-105.2274722">
  <ele>1582.87</ele>
  <time>2026-08-28T17:54:16Z</time>
  <course>146.36</course>
  <speed>4.873243273221644</speed>
  <fix>3d</fix>
</trkpt>
<trkpt lat="40.0717758" lon="-105.2274762">
  <ele>1583.0</ele>
  <time>2026-08-28T17:54:16Z</time>
  <course>145.77</course>
  <speed>4.93</speed>
  <fix>3d</fix>
</trkpt>
<trkpt lat="40.0717668" lon="-105.2274683">
  <ele>1582.87</ele>
  <time>2026-08-28T17:54:16Z</time>
  <course>146.41</course>
  <speed>4.817686166615672</speed>
  <fix>3d</fix>
</trkpt>
<trkpt lat="40.0717758" lon="-105.2274762">
  <ele>1583.0</ele>
  <time>2026-08-28T17:54:16Z</time>
  <course>145.77</course>
  <speed>4.93</speed>
  <fix>3d</fix>
</trkpt>
<trkpt lat="40.0717632" lon="-105.2274651">
  <ele>1582.86</ele>
  <time>2026-08-28T17:54:16Z</time>
  <course>146.44</course>
  <speed>4.759464255564906</speed>
  <fix>3d</fix>
</trkpt>
<trkpt lat="40.0717686" lon="-105.2274698">
  <ele>1583.0</ele>
  <time>2026-08-28T17:54:16Z</time>
  <course>145.81</course>
  <speed>4.85</speed>
  <fix>3d</fix>
</trkpt>
<trkpt lat="40.0717596" lon="-105.227462">
  <ele>1582.86</ele>
  <time>2026-08-28T17:54:16Z</time>
  <course>146.47</course>
  <speed>4.695636272114782</speed>
  <fix>3d</fix>
</trkpt>
<trkpt lat="40.0717686" lon="-105.2274698">
  <ele>1583.0</ele>
  <time>2026-08-28T17:54:16Z</time>
  <course>145.81</course>
  <speed>4.85</speed>
  <fix>3d</fix>
</trkpt>
<trkpt lat="40.0717561" lon="-105.2274589">
  <ele>1582.86</ele>
  <time>2026-08-28T17:54:16Z</time>
  <course>146.51</course>
  <speed>4.609642068534172</speed>
  <fix>3d</fix>
</trkpt>
<trkpt lat="40.0717614" lon="-105.2274635">
  <ele>1583.0</ele>
  <time>2026-08-28T17:54:16Z</time>
  <course>145.88</course>
  <speed>4.72</speed>
  <fix>3d</fix>
</trkpt>
<trkpt lat="40.0717527" lon="-105.2274558">
  <ele>1582.86</ele>
  <time>2026-08-28T17:54:16Z</time>
  <course>146.54</course>
  <speed>4.515362665390234</speed>
  <fix>3d</fix>
</trkpt>
<trkpt lat="40.0717614" lon="-105.2274635">
  <ele>1583.0</ele>
  <time>2026-08-28T17:54:16Z</time>
  <course>145.88</course>
  <speed>4.72</speed>
  <fix>3d</fix>
</trkpt>
<trkpt lat="40.0717494" lon="-105.2274529">
  <ele>1582.86</ele>
  <time>2026-08-28T17:54:16Z</time>
  <course>146.62</course>
  <speed>4.415484118417821</speed>
  <fix>3d</fix>
</trkpt>
<trkpt lat="40.0717545" lon="-105.2274573">
  <ele>1583.0</ele>
  <time>2026-08-28T17:54:16Z</time>
  <course>145.95</course>
  <speed>4.55</speed>
  <fix>3d</fix>
</trkpt>
<trkpt lat="40.0717461" lon="-105.22745">
  <ele>1582.86</ele>
  <time>2026-08-28T17:54:16Z</time>
  <course>146.81</course>
  <speed>4.304474416232486</speed>
  <fix>3d</fix>
</trkpt>
<trkpt lat="40.0717545" lon="-105.2274573">
  <ele>1583.0</ele>
  <time>2026-08-28T17:54:16Z</time>
  <course>145.95</course>
  <speed>4.55</speed>
  <fix>3d</fix>
</trkpt>
<trkpt lat="40.071743" lon="-105.2274473">
  <ele>1582.86</ele>
  <time>2026-08-28T17:54:16Z</time>
  <course>147.14</course>
  <speed>4.185235955116509</speed>
  <fix>3d</fix>
</trkpt>
<trkpt lat="40.0717478" lon="-105.2274515">
  <ele>1583.0</ele>
  <time>2026-08-28T17:54:16Z</time>
  <course>146.22</course>
  <speed>4.35</speed>
  <fix>3d</fix>
</trkpt>
<trkpt lat="40.0717399" lon="-105.2274446">
  <ele>1582.86</ele>
  <time>2026-08-28T17:54:16Z</time>
  <course>147.6</course>
  <speed>4.063520641020542</speed>
  <fix>3d</fix>
</trkpt>
<trkpt lat="40.0717478" lon="-105.2274515">
  <ele>1583.0</ele>
  <time>2026-08-28T17:54:16Z</time>
  <course>146.22</course>
  <speed>4.35</speed>
  <fix>3d</fix>
</trkpt>
<trkpt lat="40.0717369" lon="-105.2274421">
  <ele>1582.86</ele>
  <time>2026-08-28T17:54:16Z</time>
  <course>148.22</course>
  <speed>3.9422075034173427</speed>
  <fix>3d</fix>
</trkpt>
<trkpt lat="40.0717415" lon="-105.227446">
  <ele>1583.0</ele>
  <time>2026-08-28T17:54:16Z</time>
  <course>146.96</course>
  <speed>4.12</speed>
  <fix>3d</fix>
</trkpt>
<trkpt lat="40.071734" lon="-105.2274397">
  <ele>1582.87</ele>
  <time>2026-08-28T17:54:16Z</time>
  <course>149.0</course>
  <speed>3.802328234121825</speed>
  <fix>3d</fix>
</trkpt>
<trkpt lat="40.0717415" lon="-105.227446">
  <ele>1583.0</ele>
  <time>2026-08-28T17:54:16Z</time>
  <course>146.96</course>
  <speed>4.12</speed>
  <fix>3d</fix>
</trkpt>
<trkpt lat="40.0717311" lon="-105.2274375">
  <ele>1582.87</ele>
  <time>2026-08-28T17:54:16Z</time>
  <course>149.98</course>
  <speed>3.6718523935474314</speed>
  <fix>3d</fix>
</trkpt>
<trkpt lat="40.0717354" lon="-105.227441">
  <ele>1583.0</ele>
  <time>2026-08-28T17:54:16Z</time>
  <course>148.31</course>
  <speed>3.87</speed>
  <fix>3d</fix>
</trkpt>
<trkpt lat="40.0717283" lon="-105.2274354">
  <ele>1582.87</ele>
  <time>2026-08-28T17:54:16Z</time>
  <course>151.16</course>
  <speed>3.546223343220221</speed>
  <fix>3d</fix>
</trkpt>
<trkpt lat="40.0717354" lon="-105.227441">
  <ele>1583.0</ele>
  <time>2026-08-28T17:54:16Z</time>
  <course>148.31</course>
  <speed>3.87</speed>
  <fix>3d</fix>
</trkpt>
<trkpt lat="40.0717261" lon="-105.2274338">
  <ele>1582.88</ele>
  <time>2026-08-28T17:54:16Z</time>
  <course>152.3</course>
  <speed>3.4358841656842856</speed>
  <fix>3d</fix>
</trkpt>
<trkpt lat="40.0717297" lon="-105.2274365">
  <ele>1583.0</ele>
  <time>2026-08-28T17:54:16Z</time>
  <course>150.41</course>
  <speed>3.62</speed>
  <fix>3d</fix>
</trkpt>
<trkpt lat="40.0717234" lon="-105.227432">
  <ele>1582.88</ele>
  <time>2026-08-28T17:54:16Z</time>
  <course>153.96</course>
  <speed>3.3049205739321486</speed>
  <fix>3d</fix>
</trkpt>
<trkpt lat="40.0717297" lon="-105.2274365">
  <ele>1583.0</ele>
  <time>2026-08-28T17:54:17Z</time>
  <course>150.41</course>
  <speed>3.62</speed>
  <fix>3d</fix>
</trkpt>
<trkpt lat="40.0717208" lon="-105.2274304">
  <ele>1582.88</ele>
  <time>2026-08-28T17:54:17Z</time>
  <course>155.87</course>
  <speed>3.1771842880135233</speed>
  <fix>3d</fix>
</trkpt>
<trkpt lat="40.0717241" lon="-105.2274326">
  <ele>1583.0</ele>
  <time>2026-08-28T17:54:17Z</time>
  <course>153.44</course>
  <speed>3.36</speed>
  <fix>3d</fix>
</trkpt>
<trkpt lat="40.0717182" lon="-105.227429">
  <ele>1582.89</ele>
  <time>2026-08-28T17:54:17Z</time>
  <course>157.94</course>
  <speed>3.0492622058458663</speed>
  <fix>3d</fix>
</trkpt>
<trkpt lat="40.0717241" lon="-105.2274326">
  <ele>1583.0</ele>
  <time>2026-08-28T17:54:17Z</time>
  <course>153.44</course>
  <speed>3.36</speed>
  <fix>3d</fix>
</trkpt>
<trkpt lat="40.0717157" lon="-105.2274277">
  <ele>1582.89</ele>
  <time>2026-08-28T17:54:17Z</time>
  <course>160.21</course>
  <speed>2.9261749776799064</speed>
  <fix>3d</fix>
</trkpt>
<trkpt lat="40.0717188" lon="-105.2274295">
  <ele>1583.0</ele>
  <time>2026-08-28T17:54:17Z</time>
  <course>157.39</course>
  <speed>3.11</speed>
  <fix>3d</fix>
</trkpt>
<trkpt lat="40.0717132" lon="-105.2274266">
  <ele>1582.89</ele>
  <time>2026-08-28T17:54:17Z</time>
  <course>162.69</course>
  <speed>2.799017684831591</speed>
  <fix>3d</fix>
</trkpt>
<trkpt lat="40.0717188" lon="-105.2274295">
  <ele>1583.0</ele>
  <time>2026-08-28T17:54:17Z</time>
  <course>157.39</course>
  <speed>3.11</speed>
  <fix>3d</fix>
</trkpt>
<trkpt lat="40.0717108" lon="-105.2274258">
  <ele>1582.89</ele>
  <time>2026-08-28T17:54:17Z</time>
  <course>165.39</course>
  <speed>2.6752569970004747</speed>
  <fix>3d</fix>
</trkpt>
<trkpt lat="40.0717138" lon="-105.227427">
  <ele>1583.0</ele>
  <time>2026-08-28T17:54:17Z</time>
  <course>162.15</course>
  <speed>2.86</speed>
  <fix>3d</fix>
</trkpt>
<trkpt lat="40.071708" lon="-105.227425">
  <ele>1582.9</ele>
  <time>2026-08-28T17:54:17Z</time>
  <course>168.99</course>
  <speed>2.5339692184397187</speed>
  <fix>3d</fix>
</trkpt>
<trkpt lat="40.0717138" lon="-105.227427">
  <ele>1583.0</ele>
  <time>2026-08-28T17:54:17Z</time>
  <course>162.15</course>
  <speed>2.86</speed>
  <fix>3d</fix>
</trkpt>
<trkpt lat="40.0717058" lon="-105.2274245">
  <ele>1582.9</ele>
  <time>2026-08-28T17:54:17Z</time>
  <course>172.27</course>
  <speed>2.419938015735114</speed>
  <fix>3d</fix>
</trkpt>
<trkpt lat="40.0717091" lon="-105.2274253">
  <ele>1583.0</ele>
  <time>2026-08-28T17:54:17Z</time>
  <course>167.81</course>
  <speed>2.62</speed>
  <fix>3d</fix>
</trkpt>
<trkpt lat="40.0717036" lon="-105.2274242">
  <ele>1582.9</ele>
  <time>2026-08-28T17:54:17Z</time>
  <course>175.86</course>
  <speed>2.314238535674315</speed>
  <fix>3d</fix>
</trkpt>
<trkpt lat="40.0717091" lon="-105.2274253">
  <ele>1583.0</ele>
  <time>2026-08-28T17:54:17Z</time>
  <course>167.81</course>
  <speed>2.62</speed>
  <fix>3d</fix>
</trkpt>
<trkpt lat="40.0717016" lon="-105.2274242">
  <ele>1582.89</ele>
  <time>2026-08-28T17:54:17Z</time>
  <course>179.78</course>
  <speed>2.2000227271553356</speed>
  <fix>3d</fix>
</trkpt>
<trkpt lat="40.0717046" lon="-105.2274244">
  <ele>1583.0</ele>
  <time>2026-08-28T17:54:17Z</time>
  <course>174.56</course>
  <speed>2.39</speed>
  <fix>3d</fix>
</trkpt>
<trkpt lat="40.0716996" lon="-105.2274243">
  <ele>1582.9</ele>
  <time>2026-08-28T17:54:17Z</time>
  <course>184.06</course>
  <speed>2.087773934122179</speed>
  <fix>3d</fix>
</trkpt>
<trkpt lat="40.0717046" lon="-105.2274244">
  <ele>1583.0</ele>
  <time>2026-08-28T17:54:17Z</time>
  <course>174.56</course>
  <speed>2.39</speed>
  <fix>3d</fix>
</trkpt>
<trkpt lat="40.0716978" lon="-105.2274246">
  <ele>1582.9</ele>
  <time>2026-08-28T17:54:17Z</time>
  <course>188.69</course>
  <speed>1.9892712233378333</speed>
  <fix>3d</fix>
</trkpt>
<trkpt lat="40.0717005" lon="-105.2274242">
  <ele>1583.0</ele>
  <time>2026-08-28T17:54:17Z</time>
  <course>182.61</course>
  <speed>2.17</speed>
  <fix>3d</fix>
</trkpt>
<trkpt lat="40.0716961" lon="-105.2274251">
  <ele>1582.9</ele>
  <time>2026-08-28T17:54:17Z</time>
  <course>193.71</course>
  <speed>1.8848076824970763</speed>
  <fix>3d</fix>
</trkpt>
<trkpt lat="40.0717005" lon="-105.2274242">
  <ele>1583.0</ele>
  <time>2026-08-28T17:54:17Z</time>
  <course>182.61</course>
  <speed>2.17</speed>
  <fix>3d</fix>
</trkpt>
<trkpt lat="40.0716945" lon="-105.2274258">
  <ele>1582.9</ele>
  <time>2026-08-28T17:54:17Z</time>
  <course>199.08</course>
  <speed>1.7848809484108457</speed>
  <fix>3d</fix>
</trkpt>
<trkpt lat="40.0716968" lon="-105.2274248">
  <ele>1583.0</ele>
  <time>2026-08-28T17:54:17Z</time>
  <course>192.09</course>
  <speed>1.95</speed>
  <fix>3d</fix>
</trkpt>
<trkpt lat="40.0716931" lon="-105.2274266">
  <ele>1582.9</ele>
  <time>2026-08-28T17:54:17Z</time>
  <course>204.79</course>
  <speed>1.690473306503241</speed>
  <fix>3d</fix>
</trkpt>
<trkpt lat="40.0716968" lon="-105.2274248">
  <ele>1583.0</ele>
  <time>2026-08-28T17:54:17Z</time>
  <course>192.09</course>
  <speed>1.95</speed>
  <fix>3d</fix>
</trkpt>
<trkpt lat="40.0716918" lon="-105.2274275">
  <ele>1582.9</ele>
  <time>2026-08-28T17:54:17Z</time>
  <course>210.72</course>
  <speed>1.58927656498169</speed>
  <fix>3d</fix>
</trkpt>
<trkpt lat="40.0716936" lon="-105.2274261">
  <ele>1583.0</ele>
  <time>2026-08-28T17:54:17Z</time>
  <course>202.94</course>
  <speed>1.74</speed>
  <fix>3d</fix>
</trkpt>
<trkpt lat="40.0716906" lon="-105.2274285">
  <ele>1582.9</ele>
  <time>2026-08-28T17:54:17Z</time>
  <course>216.41</course>
  <speed>1.514892735476674</speed>
  <fix>3d</fix>
</trkpt>
<trkpt lat="40.0716936" lon="-105.2274261">
  <ele>1583.0</ele>
  <time>2026-08-28T17:54:17Z</time>
  <course>202.94</course>
  <speed>1.74</speed>
  <fix>3d</fix>
</trkpt>
<trkpt lat="40.0716896" lon="-105.2274297">
  <ele>1582.9</ele>
  <time>2026-08-28T17:54:17Z</time>
  <course>221.79</course>
  <speed>1.4637281168304446</speed>
  <fix>3d</fix>
</trkpt>
<trkpt lat="40.071691" lon="-105.2274279">
  <ele>1583.0</ele>
  <time>2026-08-28T17:54:17Z</time>
  <course>214.4</course>
  <speed>1.57</speed>
  <fix>3d</fix>
</trkpt>
<trkpt lat="40.0716887" lon="-105.2274309">
  <ele>1582.9</ele>
  <time>2026-08-28T17:54:17Z</time>
  <course>226.81</course>
  <speed>1.4404513181638594</speed>
  <fix>3d</fix>
</trkpt>
<trkpt lat="40.071691" lon="-105.2274279">
  <ele>1583.0</ele>
  <time>2026-08-28T17:54:17Z</time>
  <course>214.4</course>
  <speed>1.57</speed>
  <fix>3d</fix>
</trkpt>
<trkpt lat="40.0716879" lon="-105.2274322">
  <ele>1582.89</ele>
  <time>2026-08-28T17:54:17Z</time>
  <course>231.49</course>
  <speed>1.4484474446799924</speed>
  <fix>3d</fix>
</trkpt>
<trkpt lat="40.0716889" lon="-105.2274302">
  <ele>1583.0</ele>
  <time>2026-08-28T17:54:17Z</time>
  <course>225.08</course>
  <speed>1.48</speed>
  <fix>3d</fix>
</trkpt>
<trkpt lat="40.0716873" lon="-105.2274333">
  <ele>1582.89</ele>
  <time>2026-08-28T17:54:17Z</time>
  <course>234.91</course>
  <speed>1.464923206178399</speed>
  <fix>3d</fix>
</trkpt>
<trkpt lat="40.0716889" lon="-105.2274302">
  <ele>1583.0</ele>
  <time>2026-08-28T17:54:17Z</time>
  <course>225.08</course>
  <speed>1.48</speed>
  <fix>3d</fix>
</trkpt>
<trkpt lat="40.0716866" lon="-105.2274348">
  <ele>1582.89</ele>
  <time>2026-08-28T17:54:17Z</time>
  <course>238.87</course>
  <speed>1.5076471735787522</speed>
  <fix>3d</fix>
</trkpt>
<trkpt lat="40.0716872" lon="-105.2274329">
  <ele>1583.0</ele>
  <time>2026-08-28T17:54:17Z</time>
  <course>234.28</course>
  <speed>1.48</speed>
  <fix>3d</fix>
</trkpt>
<trkpt lat="40.0716859" lon="-105.2274365">
  <ele>1582.89</ele>
  <time>2026-08-28T17:54:17Z</time>
  <course>242.47</course>
  <speed>1.5840454538932902</speed>
  <fix>3d</fix>
</trkpt>
<trkpt lat="40.0716872" lon="-105.2274329">
  <ele>1583.0</ele>
  <time>2026-08-28T17:54:17Z</time>
  <course>234.28</course>
  <speed>1.48</speed>
  <fix>3d</fix>
</trkpt>
<trkpt lat="40.0716853" lon="-105.2274382">
  <ele>1582.89</ele>
  <time>2026-08-28T17:54:17Z</time>
  <course>245.73</course>
  <speed>1.6694010902116962</speed>
  <fix>3d</fix>
</trkpt>
<trkpt lat="40.0716858" lon="-105.2274359">
  <ele>1583.0</ele>
  <time>2026-08-28T17:54:17Z</time>
  <course>241.95</course>
  <speed>1.59</speed>
  <fix>3d</fix>
</trkpt>
<trkpt lat="40.0716847" lon="-105.2274401">
  <ele>1582.88</ele>
  <time>2026-08-28T17:54:17Z</time>
  <course>248.73</course>
  <speed>1.7773013250431113</speed>
  <fix>3d</fix>
</trkpt>
<trkpt lat="40.0716858" lon="-105.2274359">
  <ele>1583.0</ele>
  <time>2026-08-28T17:54:17Z</time>
  <course>241.95</course>
  <speed>1.59</speed>
  <fix>3d</fix>
</trkpt>
<trkpt lat="40.0716842" lon="-105.2274422">
  <ele>1582.88</ele>
  <time>2026-08-28T17:54:17Z</time>
  <course>251.45</course>
  <speed>1.8956001688119781</speed>
  <fix>3d</fix>
</trkpt>
<trkpt lat="40.0716845" lon="-105.2274395">
  <ele>1583.0</ele>
  <time>2026-08-28T17:54:17Z</time>
  <course>248.28</course>
  <speed>1.77</speed>
  <fix>3d</fix>
</trkpt>
<trkpt lat="40.0716837" lon="-105.2274444">
  <ele>1582.88</ele>
  <time>2026-08-28T17:54:17Z</time>
  <course>253.94</course>
  <speed>2.0300246303924494</speed>
  <fix>3d</fix>
</trkpt>
<trkpt lat="40.0716845" lon="-105.2274395">
  <ele>1583.0</ele>
  <time>2026-08-28T17:54:17Z</time>
  <course>248.28</course>
  <speed>1.77</speed>
  <fix>3d</fix>
</trkpt>
<trkpt lat="40.0716831" lon="-105.2274474">
  <ele>1582.88</ele>
  <time>2026-08-28T17:54:17Z</time>
  <course>256.65</course>
  <speed>2.2043593173527767</speed>
  <fix>3d</fix>
</trkpt>
<trkpt lat="40.0716834" lon="-105.2274437">
  <ele>1583.0</ele>
  <time>2026-08-28T17:54:17Z</time>
  <course>253.52</course>
  <speed>2.01</speed>
  <fix>3d</fix>
</trkpt>
<trkpt lat="40.0716827" lon="-105.22745">
  <ele>1582.88</ele>
  <time>2026-08-28T17:54:17Z</time>
  <course>258.68</course>
  <speed>2.3542302351299456</speed>
  <fix>3d</fix>
</trkpt>
<trkpt lat="40.0716834" lon="-105.2274437">
  <ele>1583.0</ele>
  <time>2026-08-28T17:54:17Z</time>
  <course>253.52</course>
  <speed>2.01</speed>
  <fix>3d</fix>
</trkpt>
<trkpt lat="40.0716823" lon="-105.2274529">
  <ele>1582.88</ele>
  <time>2026-08-28T17:54:17Z</time>
  <course>260.51</course>
  <speed>2.5144780770569466</speed>
  <fix>3d</fix>
</trkpt>
<trkpt lat="40.0716824" lon="-105.2274486">
  <ele>1583.0</ele>
  <time>2026-08-28T17:54:17Z</time>
  <course>257.85</course>
  <speed>2.29</speed>
  <fix>3d</fix>
</trkpt>
<trkpt lat="40.0716819" lon="-105.2274559">
  <ele>1582.88</ele>
  <time>2026-08-28T17:54:17Z</time>
  <course>262.06</course>
  <speed>2.678002987302292</speed>
  <fix>3d</fix>
</trkpt>
<trkpt lat="40.0716824" lon="-105.2274486">
  <ele>1583.0</ele>
  <time>2026-08-28T17:54:17Z</time>
  <course>257.85</course>
  <speed>2.29</speed>
  <fix>3d</fix>
</trkpt>
<trkpt lat="40.0716816" lon="-105.2274591">
  <ele>1582.88</ele>
  <time>2026-08-28T17:54:17Z</time>
  <course>263.37</course>
  <speed>2.832896044686427</speed>
  <fix>3d</fix>
</trkpt>
<trkpt lat="40.0716817" lon="-105.2274543">
  <ele>1583.0</ele>
  <time>2026-08-28T17:54:17Z</time>
  <course>261.28</course>
  <speed>2.6</speed>
  <fix>3d</fix>
</trkpt>
<trkpt lat="40.0716813" lon="-105.2274625">
  <ele>1582.88</ele>
  <time>2026-08-28T17:54:17Z</time>
  <course>264.47</course>
  <speed>2.9996166421727963</speed>
  <fix>3d</fix>
</trkpt>
<trkpt lat="40.0716817" lon="-105.2274543">
  <ele>1583.0</ele>
  <time>2026-08-28T17:54:17Z</time>
  <course>261.28</course>
  <speed>2.6</speed>
  <fix>3d</fix>
</trkpt>
<trkpt lat="40.0716811" lon="-105.2274661">
  <ele>1582.89</ele>
  <time>2026-08-28T17:54:17Z</time>
  <course>265.38</course>
  <speed>3.1569922394583108</speed>
  <fix>3d</fix>
</trkpt>
<trkpt lat="40.071681" lon="-105.2274607">
  <ele>1583.0</ele>
  <time>2026-08-28T17:54:17Z</time>
  <course>263.78</course>
  <speed>2.91</speed>
  <fix>3d</fix>
</trkpt>
<trkpt lat="40.0716809" lon="-105.2274699">
  <ele>1582.89</ele>
  <time>2026-08-28T17:54:17Z</time>
  <course>266.12</course>
  <speed>3.3148906467634793</speed>
  <fix>3d</fix>
</trkpt>
<trkpt lat="40.071681" lon="-105.2274607">
  <ele>1583.0</ele>
  <time>2026-08-28T17:54:17Z</time>
  <course>263.78</course>
  <speed>2.91</speed>
  <fix>3d</fix>
</trkpt>
<trkpt lat="40.0716807" lon="-105.2274738">
  <ele>1582.89</ele>
  <time>2026-08-28T17:54:17Z</time>
  <course>266.72</course>
  <speed>3.463697446371435</speed>
  <fix>3d</fix>
</trkpt>
<trkpt lat="40.0716805" lon="-105.2274678">
  <ele>1583.0</ele>
  <time>2026-08-28T17:54:17Z</time>
  <course>265.5</course>
  <speed>3.22</speed>
  <fix>3d</fix>
</trkpt>
<trkpt lat="40.0716805" lon="-105.2274779">
  <ele>1582.89</ele>
  <time>2026-08-28T17:54:17Z</time>
  <course>267.18</course>
  <speed>3.6127136615015587</speed>
  <fix>3d</fix>
</trkpt>
<trkpt lat="40.0716805" lon="-105.2274678">
  <ele>1583.0</ele>
  <time>2026-08-28T17:54:17Z</time>
  <course>265.5</course>
  <speed>3.22</speed>
  <fix>3d</fix>
</trkpt>
<trkpt lat="40.0716803" lon="-105.2274822">
  <ele>1582.88</ele>
  <time>2026-08-28T17:54:17Z</time>
  <course>267.51</course>
  <speed>3.7622466692124266</speed>
  <fix>3d</fix>
</trkpt>
<trkpt lat="40.0716801" lon="-105.2274758">
  <ele>1583.0</ele>
  <time>2026-08-28T17:54:17Z</time>
  <course>266.61</course>
  <speed>3.53</speed>
  <fix>3d</fix>
</trkpt>
<trkpt lat="40.0716801" lon="-105.2274867">
  <ele>1582.88</ele>
  <time>2026-08-28T17:54:17Z</time>
  <course>267.73</course>
  <speed>3.902166065148945</speed>
  <fix>3d</fix>
</trkpt>
<trkpt lat="40.0716801" lon="-105.2274758">
  <ele>1583.0</ele>
  <time>2026-08-28T17:54:17Z</time>
  <course>266.61</course>
  <speed>3.53</speed>
  <fix>3d</fix>
</trkpt>
<trkpt lat="40.07168" lon="-105.2274913">
  <ele>1582.88</ele>
  <time>2026-08-28T17:54:17Z</time>
  <course>267.83</course>
  <speed>4.042091043012267</speed>
  <fix>3d</fix>
</trkpt>
<trkpt lat="40.0716798" lon="-105.2274845">
  <ele>1583.0</ele>
  <time>2026-08-28T17:54:17Z</time>
  <course>267.21</course>
  <speed>3.82</speed>
  <fix>3d</fix>
</trkpt>
<trkpt lat="40.0716798" lon="-105.2274951">
  <ele>1582.88</ele>
  <time>2026-08-28T17:54:17Z</time>
  <course>267.85</course>
  <speed>4.152360774306588</speed>
  <fix>3d</fix>
</trkpt>
<trkpt lat="40.0716798" lon="-105.2274845">
  <ele>1583.0</ele>
  <time>2026-08-28T17:54:17Z</time>
  <course>267.21</course>
  <speed>3.82</speed>
  <fix>3d</fix>
</trkpt>
<trkpt lat="40.0716796" lon="-105.2275001">
  <ele>1582.88</ele>
  <time>2026-08-28T17:54:17Z</time>
  <course>267.84</course>
  <speed>4.282289107475113</speed>
  <fix>3d</fix>
</trkpt>
<trkpt lat="40.0716794" lon="-105.2274937">
  <ele>1583.0</ele>
  <time>2026-08-28T17:54:17Z</time>
  <course>267.4</course>
  <speed>4.1</speed>
  <fix>3d</fix>
</trkpt>
<trkpt lat="40.0716795" lon="-105.2275052">
  <ele>1582.88</ele>
  <time>2026-08-28T17:54:17Z</time>
  <course>267.84</course>
  <speed>4.412550282999617</speed>
  <fix>3d</fix>
</trkpt>
<trkpt lat="40.0716794" lon="-105.2274937">
  <ele>1583.0</ele>
  <time>2026-08-28T17:54:17Z</time>
  <course>267.4</course>
  <speed>4.1</speed>
  <fix>3d</fix>
</trkpt>
<trkpt lat="40.0716793" lon="-105.2275104">
  <ele>1582.88</ele>
  <time>2026-08-28T17:54:17Z</time>
  <course>267.83</course>
  <speed>4.532824726370964</speed>
  <fix>3d</fix>
</trkpt>
<trkpt lat="40.0716791" lon="-105.2275037">
  <ele>1583.0</ele>
  <time>2026-08-28T17:54:17Z</time>
  <course>267.42</course>
  <speed>4.35</speed>
  <fix>3d</fix>
</trkpt>
<trkpt lat="40.0716791" lon="-105.2275158">
  <ele>1582.88</ele>
  <time>2026-08-28T17:54:17Z</time>
  <course>267.83</course>
  <speed>4.6531064892177145</speed>
  <fix>3d</fix>
</trkpt>
<trkpt lat="40.0716791" lon="-105.2275037">
  <ele>1583.0</ele>
  <time>2026-08-28T17:54:17Z</time>
  <course>267.42</course>
  <speed>4.35</speed>
  <fix>3d</fix>
</trkpt>
<trkpt lat="40.0716789" lon="-105.2275213">
  <ele>1582.88</ele>
  <time>2026-08-28T17:54:17Z</time>
  <course>267.82</course>
  <speed>4.773395018223402</speed>
  <fix>3d</fix>
</trkpt>
<trkpt lat="40.0716788" lon="-105.2275142">
  <ele>1583.0</ele>
  <time>2026-08-28T17:54:17Z</time>
  <course>267.42</course>
  <speed>4.6</speed>
  <fix>3d</fix>
</trkpt>
<trkpt lat="40.0716787" lon="-105.227527">
  <ele>1582.88</ele>
  <time>2026-08-28T17:54:17Z</time>
  <course>267.82</course>
  <speed>4.883318543777377</speed>
  <fix>3d</fix>
</trkpt>
<trkpt lat="40.0716788" lon="-105.2275142">
  <ele>1583.0</ele>
  <time>2026-08-28T17:54:17Z</time>
  <course>267.42</course>
  <speed>4.6</speed>
  <fix>3d</fix>
</trkpt>
<trkpt lat="40.0716784" lon="-105.2275329">
  <ele>1582.88</ele>
  <time>2026-08-28T17:54:17Z</time>
  <course>267.81</course>
  <speed>4.99361592435782</speed>
  <fix>3d</fix>
</trkpt>
<trkpt lat="40.0716783" lon="-105.2275252">
  <ele>1583.0</ele>
  <time>2026-08-28T17:54:17Z</time>
  <course>267.42</course>
  <speed>4.82</speed>
  <fix>3d</fix>
</trkpt>
<trkpt lat="40.0716782" lon="-105.2275401">
  <ele>1582.88</ele>
  <time>2026-08-28T17:54:17Z</time>
  <course>267.81</course>
  <speed>5.1139123965903055</speed>
  <fix>3d</fix>
</trkpt>
<trkpt lat="40.0716783" lon="-105.2275252">
  <ele>1583.0</ele>
  <time>2026-08-28T17:54:17Z</time>
  <course>267.42</course>
  <speed>4.82</speed>
  <fix>3d</fix>
</trkpt>
<trkpt lat="40.071678" lon="-105.2275461">
  <ele>1582.89</ele>
  <time>2026-08-28T17:54:17Z</time>
  <course>267.8</course>
  <speed>5.204238657094811</speed>
  <fix>3d</fix>
</trkpt>
<trkpt lat="40.071678" lon="-105.2275368">
  <ele>1583.0</ele>
  <time>2026-08-28T17:54:17Z</time>
  <course>267.42</course>
  <speed>5.03</speed>
  <fix>3d</fix>
</trkpt>
<trkpt lat="40.0716777" lon="-105.2275523">
  <ele>1582.89</ele>
  <time>2026-08-28T17:54:17Z</time>
  <course>267.8</course>
  <speed>5.284174486142562</speed>
  <fix>3d</fix>
</trkpt>
<trkpt lat="40.071678" lon="-105.2275368">
  <ele>1583.0</ele>
  <time>2026-08-28T17:54:17Z</time>
  <course>267.42</course>
  <speed>5.03</speed>
  <fix>3d</fix>
</trkpt>
<trkpt lat="40.0716775" lon="-105.2275586">
  <ele>1582.89</ele>
  <time>2026-08-28T17:54:17Z</time>
  <course>267.8</course>
  <speed>5.344529913846493</speed>
  <fix>3d</fix>
</trkpt>
<trkpt lat="40.0716776" lon="-105.2275487">
  <ele>1583.0</ele>
  <time>2026-08-28T17:54:17Z</time>
  <course>267.42</course>
  <speed>5.19</speed>
  <fix>3d</fix>
</trkpt>
<trkpt lat="40.0716773" lon="-105.2275649">
  <ele>1582.89</ele>
  <time>2026-08-28T17:54:17Z</time>
  <course>267.79</course>
  <speed>5.394487927505261</speed>
  <fix>3d</fix>
</trkpt>
<trkpt lat="40.0716776" lon="-105.2275487">
  <ele>1583.0</ele>
  <time>2026-08-28T17:54:17Z</time>
  <course>267.42</course>
  <speed>5.19</speed>
  <fix>3d</fix>
</trkpt>
<trkpt lat="40.071677" lon="-105.2275712">
  <ele>1582.9</ele>
  <time>2026-08-28T17:54:17Z</time>
  <course>267.79</course>
  <speed>5.434868903662719</speed>
  <fix>3d</fix>
</trkpt>
<trkpt lat="40.0716771" lon="-105.2275612">
  <ele>1583.0</ele>
  <time>2026-08-28T17:54:17Z</time>
  <course>267.42</course>
  <speed>5.31</speed>
  <fix>3d</fix>
</trkpt>
<trkpt lat="40.0716768" lon="-105.2275775">
  <ele>1582.9</ele>
  <time>2026-08-28T17:54:17Z</time>
  <course>267.78</course>
  <speed>5.454851052045326</speed>
  <fix>3d</fix>
</trkpt>
<trkpt lat="40.0716771" lon="-105.2275612">
  <ele>1583.0</ele>
  <time>2026-08-28T17:54:17Z</time>
  <course>267.42</course>
  <speed>5.31</speed>
  <fix>3d</fix>
</trkpt>
<trkpt lat="40.0716766" lon="-105.2275838">
  <ele>1582.9</ele>
  <time>2026-08-28T17:54:17Z</time>
  <course>267.78</course>
  <speed>5.454851052045326</speed>
  <fix>3d</fix>
</trkpt>
<trkpt lat="40.0716767" lon="-105.2275737">
  <ele>1583.0</ele>
  <time>2026-08-28T17:54:17Z</time>
  <course>267.42</course>
  <speed>5.38</speed>
  <fix>3d</fix>
</trkpt>
<trkpt lat="40.0716763" lon="-105.2275901">
  <ele>1582.9</ele>
  <time>2026-08-28T17:54:17Z</time>
  <course>267.77</course>
  <speed>5.454851052045326</speed>
  <fix>3d</fix>
</trkpt>
<trkpt lat="40.0716767" lon="-105.2275737">
  <ele>1583.0</ele>
  <time>2026-08-28T17:54:17Z</time>
  <course>267.42</course>
  <speed>5.38</speed>
  <fix>3d</fix>
</trkpt>
<trkpt lat="40.0716761" lon="-105.2275964">
  <ele>1582.9</ele>
  <time>2026-08-28T17:54:17Z</time>
  <course>267.77</course>
  <speed>5.434868903662719</speed>
  <fix>3d</fix>
</trkpt>
<trkpt lat="40.0716762" lon="-105.2275863">
  <ele>1583.0</ele>
  <time>2026-08-28T17:54:17Z</time>
  <course>267.42</course>
  <speed>5.39</speed>
  <fix>3d</fix>
</trkpt>
<trkpt lat="40.0716759" lon="-105.2276026">
  <ele>1582.9</ele>
  <time>2026-08-28T17:54:17Z</time>
  <course>267.76</course>
  <speed>5.404895928692799</speed>
  <fix>3d</fix>
</trkpt>
<trkpt lat="40.0716762" lon="-105.2275863">
  <ele>1583.0</ele>
  <time>2026-08-28T17:54:17Z</time>
  <course>267.42</course>
  <speed>5.39</speed>
  <fix>3d</fix>
</trkpt>
<trkpt lat="40.0716757" lon="-105.2276089">
  <ele>1582.9</ele>
  <time>2026-08-28T17:54:17Z</time>
  <course>267.76</course>
  <speed>5.375360453030104</speed>
  <fix>3d</fix>
</trkpt>
<trkpt lat="40.0716758" lon="-105.227599">
  <ele>1583.0</ele>
  <time>2026-08-28T17:54:17Z</time>
  <course>267.42</course>
  <speed>5.36</speed>
  <fix>3d</fix>
</trkpt>
<trkpt lat="40.0716754" lon="-105.227615">
  <ele>1582.9</ele>
  <time>2026-08-28T17:54:17Z</time>
  <course>267.76</course>
  <speed>5.3354006410015735</speed>
  <fix>3d</fix>
</trkpt>
<trkpt lat="40.0716758" lon="-105.227599">
  <ele>1583.0</ele>
  <time>2026-08-28T17:54:17Z</time>
  <course>267.42</course>
  <speed>5.36</speed>
  <fix>3d</fix>
</trkpt>
<trkpt lat="40.0716752" lon="-105.22762">
  <ele>1582.9</ele>
  <time>2026-08-28T17:54:17Z</time>
  <course>267.75</course>
  <speed>5.305431179461289</speed>
  <fix>3d</fix>
</trkpt>
<trkpt lat="40.0716754" lon="-105.2276115">
  <ele>1583.0</ele>
  <time>2026-08-28T17:54:17Z</time>
  <course>267.42</course>
  <speed>5.31</speed>
  <fix>3d</fix>
</trkpt>
<trkpt lat="40.071675" lon="-105.2276261">
  <ele>1582.9</ele>
  <time>2026-08-28T17:54:17Z</time>
  <course>267.75</course>
  <speed>5.2650261157946785</speed>
  <fix>3d</fix>
</trkpt>
<trkpt lat="40.0716754" lon="-105.2276115">
  <ele>1583.0</ele>
  <time>2026-08-28T17:54:17Z</time>
  <course>267.42</course>
  <speed>5.31</speed>
  <fix>3d</fix>
</trkpt>
<trkpt lat="40.0716748" lon="-105.2276322">
  <ele>1582.9</ele>
  <time>2026-08-28T17:54:17Z</time>
  <course>267.75</course>
  <speed>5.225064592902178</speed>
  <fix>3d</fix>
</trkpt>
<trkpt lat="40.071675" lon="-105.2276239">
  <ele>1583.0</ele>
  <time>2026-08-28T17:54:17Z</time>
  <course>267.42</course>
  <speed>5.24</speed>
  <fix>3d</fix>
</trkpt>
<trkpt lat="40.0716746" lon="-105.2276383">
  <ele>1582.9</ele>
  <time>2026-08-28T17:54:17Z</time>
  <course>267.75</course>
  <speed>5.1851036633803185</speed>
  <fix>3d</fix>
</trkpt>
<trkpt lat="40.071675" lon="-105.2276239">
  <ele>1583.0</ele>
  <time>2026-08-28T17:54:17Z</time>
  <course>267.42</course>
  <speed>5.24</speed>
  <fix>3d</fix>
</trkpt>
<trkpt lat="40.0716744" lon="-105.2276443">
  <ele>1582.9</ele>
  <time>2026-08-28T17:54:17Z</time>
  <course>267.75</course>
  <speed>5.145143341054746</speed>
  <fix>3d</fix>
</trkpt>
<trkpt lat="40.0716745" lon="-105.2276361">
  <ele>1583.0</ele>
  <time>2026-08-28T17:54:17Z</time>
  <course>267.42</course>
  <speed>5.16</speed>
  <fix>3d</fix>
</trkpt>
<trkpt lat="40.0716741" lon="-105.2276503">
  <ele>1582.9</ele>
  <time>2026-08-28T17:54:17Z</time>
  <course>267.75</course>
  <speed>5.095193813781768</speed>
  <fix>3d</fix>
</trkpt>
<trkpt lat="40.0716745" lon="-105.2276361">
  <ele>1583.0</ele>
  <time>2026-08-28T17:54:17Z</time>
  <course>267.42</course>
  <speed>5.16</speed>
  <fix>3d</fix>
</trkpt>
<trkpt lat="40.0716739" lon="-105.2276562">
  <ele>1582.9</ele>
  <time>2026-08-28T17:54:17Z</time>
  <course>267.75</course>
  <speed>5.0552349104665755</speed>
  <fix>3d</fix>
</trkpt>
<trkpt lat="40.0716742" lon="-105.2276481">
  <ele>1583.0</ele>
  <time>2026-08-28T17:54:17Z</time>
  <course>267.42</course>
  <speed>5.08</speed>
  <fix>3d</fix>
</trkpt>
<trkpt lat="40.0716737" lon="-105.2276622">
  <ele>1582.91</ele>
  <time>2026-08-28T17:54:17Z</time>
  <course>267.74</course>
  <speed>5.025266162105247</speed>
  <fix>3d</fix>
</trkpt>
<trkpt lat="40.0716742" lon="-105.2276481">
  <ele>1583.0</ele>
  <time>2026-08-28T17:54:17Z</time>
  <course>267.42</course>
  <speed>5.08</speed>
  <fix>3d</fix>
</trkpt>
<trkpt lat="40.0716735" lon="-105.2276692">
  <ele>1582.91</ele>
  <time>2026-08-28T17:54:17Z</time>
  <course>267.74</course>
  <speed>4.985308415735179</speed>
  <fix>3d</fix>
</trkpt>
<trkpt lat="40.0716738" lon="-105.2276599">
  <ele>1583.0</ele>
  <time>2026-08-28T17:54:17Z</time>
  <course>267.42</course>
  <speed>5.01</speed>
  <fix>3d</fix>
</trkpt>
<trkpt lat="40.0716733" lon="-105.227675">
  <ele>1582.91</ele>
  <time>2026-08-28T17:54:17Z</time>
  <course>267.74</course>
  <speed>4.955340553382785</speed>
  <fix>3d</fix>
</trkpt>
<trkpt lat="40.0716738" lon="-105.2276599">
  <ele>1583.0</ele>
  <time>2026-08-28T17:54:17Z</time>
  <course>267.42</course>
  <speed>5.01</speed>
  <fix>3d</fix>
</trkpt>
<trkpt lat="40.0716731" lon="-105.2276808">
  <ele>1582.91</ele>
  <time>2026-08-28T17:54:17Z</time>
  <course>267.74</course>
  <speed>4.924916242942615</speed>
  <fix>3d</fix>
</trkpt>
<trkpt lat="40.0716733" lon="-105.2276717">
  <ele>1583.0</ele>
  <time>2026-08-28T17:54:17Z</time>
  <course>267.42</course>
  <speed>4.95</speed>
  <fix>3d</fix>
</trkpt>
<trkpt lat="40.0716728" lon="-105.2276866">
  <ele>1582.91</ele>
  <time>2026-08-28T17:54:17Z</time>
  <course>267.74</course>
  <speed>4.90493628908674</speed>
  <fix>3d</fix>
</trkpt>
<trkpt lat="40.0716733" lon="-105.2276717">
  <ele>1583.0</ele>
  <time>2026-08-28T17:54:17Z</time>
  <course>267.42</course>
  <speed>4.95</speed>
  <fix>3d</fix>
</trkpt>
<trkpt lat="40.0716726" lon="-105.2276923">
  <ele>1582.91</ele>
  <time>2026-08-28T17:54:17Z</time>
  <course>267.75</course>
  <speed>4.884956499294543</speed>
  <fix>3d</fix>
</trkpt>
<trkpt lat="40.0716729" lon="-105.2276832">
  <ele>1583.0</ele>
  <time>2026-08-28T17:54:17Z</time>
  <course>267.42</course>
  <speed>4.9</speed>
  <fix>3d</fix>
</trkpt>
<trkpt lat="40.0716724" lon="-105.227698">
  <ele>1582.91</ele>
  <time>2026-08-28T17:54:17Z</time>
  <course>267.73</course>
  <speed>4.864976875587385</speed>
  <fix>3d</fix>
</trkpt>
<trkpt lat="40.0716729" lon="-105.2276832">
  <ele>1583.0</ele>
  <time>2026-08-28T17:54:17Z</time>
  <course>267.42</course>
  <speed>4.9</speed>
  <fix>3d</fix>
</trkpt>
<trkpt lat="40.0716722" lon="-105.2277036">
  <ele>1582.91</ele>
  <time>2026-08-28T17:54:17Z</time>
  <course>267.72</course>
  <speed>4.844997420019953</speed>
  <fix>3d</fix>
</trkpt>
<trkpt lat="40.0716726" lon="-105.2276947">
  <ele>1583.0</ele>
  <time>2026-08-28T17:54:17Z</time>
  <course>267.41</course>
  <speed>4.87</speed>
  <fix>3d</fix>
</trkpt>
<trkpt lat="40.071672" lon="-105.2277092">
  <ele>1582.91</ele>
  <time>2026-08-28T17:54:17Z</time>
  <course>267.66</course>
  <speed>4.835473089574586</speed>
  <fix>3d</fix>
</trkpt>
<trkpt lat="40.0716726" lon="-105.2276947">
  <ele>1583.0</ele>
  <time>2026-08-28T17:54:17Z</time>
  <course>267.41</course>
  <speed>4.87</speed>
  <fix>3d</fix>
</trkpt>
<trkpt lat="40.0716718" lon="-105.2277148">
  <ele>1582.91</ele>
  <time>2026-08-28T17:54:17Z</time>
  <course>267.62</course>
  <speed>4.835473089574586</speed>
  <fix>3d</fix>
</trkpt>
<trkpt lat="40.0716721" lon="-105.227706">
  <ele>1583.0</ele>
  <time>2026-08-28T17:54:17Z</time>
  <course>267.35</course>
  <speed>4.85</speed>
  <fix>3d</fix>
</trkpt>
<trkpt lat="40.0716716" lon="-105.2277204">
  <ele>1582.91</ele>
  <time>2026-08-28T17:54:17Z</time>
  <course>267.58</course>
  <speed>4.825484431639999</speed>
  <fix>3d</fix>
</trkpt>
<trkpt lat="40.0716721" lon="-105.227706">
  <ele>1583.0</ele>
  <time>2026-08-28T17:54:17Z</time>
  <course>267.35</course>
  <speed>4.85</speed>
  <fix>3d</fix>
</trkpt>
<trkpt lat="40.0716714" lon="-105.227726">
  <ele>1582.91</ele>
  <time>2026-08-28T17:54:17Z</time>
  <course>267.54</course>
  <speed>4.825484431639999</speed>
  <fix>3d</fix>
</trkpt>
<trkpt lat="40.0716717" lon="-105.2277175">
  <ele>1583.0</ele>
  <time>2026-08-28T17:54:17Z</time>
  <course>267.27</course>
  <speed>4.84</speed>
  <fix>3d</fix>
</trkpt>
<trkpt lat="40.0716712" lon="-105.2277316">
  <ele>1582.91</ele>
  <time>2026-08-28T17:54:17Z</time>
  <course>267.49</course>
  <speed>4.825971404805461</speed>
  <fix>3d</fix>
</trkpt>
<trkpt lat="40.0716717" lon="-105.2277175">
  <ele>1583.0</ele>
  <time>2026-08-28T17:54:17Z</time>
  <course>267.27</course>
  <speed>4.84</speed>
  <fix>3d</fix>
</trkpt>
<trkpt lat="40.071671" lon="-105.2277372">
  <ele>1582.91</ele>
  <time>2026-08-28T17:54:17Z</time>
  <course>267.43</course>
  <speed>4.835959056898642</speed>
  <fix>3d</fix>
</trkpt>
<trkpt lat="40.0716713" lon="-105.2277288">
  <ele>1583.0</ele>
  <time>2026-08-28T17:54:17Z</time>
  <course>267.18</course>
  <speed>4.85</speed>
  <fix>3d</fix>
</trkpt>
<trkpt lat="40.0716708" lon="-105.2277418">
  <ele>1582.91</ele>
  <time>2026-08-28T17:54:17Z</time>
  <course>267.41</course>
  <speed>4.835959056898642</speed>
  <fix>3d</fix>
</trkpt>
<trkpt lat="40.0716713" lon="-105.2277288">
  <ele>1583.0</ele>
  <time>2026-08-28T17:54:17Z</time>
  <course>267.18</course>
  <speed>4.85</speed>
  <fix>3d</fix>
</trkpt>
<trkpt lat="40.0716706" lon="-105.2277474">
  <ele>1582.91</ele>
  <time>2026-08-28T17:54:17Z</time>
  <course>267.37</course>
  <speed>4.846452310711414</speed>
  <fix>3d</fix>
</trkpt>
<trkpt lat="40.0716709" lon="-105.2277402">
  <ele>1583.0</ele>
  <time>2026-08-28T17:54:17Z</time>
  <course>267.09</course>
  <speed>4.87</speed>
  <fix>3d</fix>
</trkpt>
<trkpt lat="40.0716704" lon="-105.2277531">
  <ele>1582.9</ele>
  <time>2026-08-28T17:54:17Z</time>
  <course>267.32</course>
  <speed>4.856439024635232</speed>
  <fix>3d</fix>
</trkpt>
<trkpt lat="40.0716709" lon="-105.2277402">
  <ele>1583.0</ele>
  <time>2026-08-28T17:54:17Z</time>
  <course>267.09</course>
  <speed>4.87</speed>
  <fix>3d</fix>
</trkpt>
<trkpt lat="40.0716702" lon="-105.2277588">
  <ele>1582.9</ele>
  <time>2026-08-28T17:54:17Z</time>
  <course>267.29</course>
  <speed>4.866949763455547</speed>
  <fix>3d</fix>
</trkpt>
<trkpt lat="40.0716704" lon="-105.2277517">
  <ele>1583.0</ele>
  <time>2026-08-28T17:54:17Z</time>
  <course>267.0</course>
  <speed>4.89</speed>
  <fix>3d</fix>
</trkpt>
<trkpt lat="40.0716699" lon="-105.2277646">
  <ele>1582.9</ele>
  <time>2026-08-28T17:54:17Z</time>
  <course>267.26</course>
  <speed>4.886921321241012</speed>
  <fix>3d</fix>
</trkpt>
<trkpt lat="40.0716704" lon="-105.2277517">
  <ele>1583.0</ele>
  <time>2026-08-28T17:54:17Z</time>
  <course>267.0</course>
  <speed>4.89</speed>
  <fix>3d</fix>
</trkpt>
<trkpt lat="40.0716697" lon="-105.2277704">
  <ele>1582.9</ele>
  <time>2026-08-28T17:54:17Z</time>
  <course>267.22</course>
  <speed>4.896907187194791</speed>
  <fix>3d</fix>
</trkpt>
<trkpt lat="40.0716699" lon="-105.2277632">
  <ele>1583.0</ele>
  <time>2026-08-28T17:54:17Z</time>
  <course>266.92</course>
  <speed>4.92</speed>
  <fix>3d</fix>
</trkpt>
<trkpt lat="40.0716694" lon="-105.2277762">
  <ele>1582.9</ele>
  <time>2026-08-28T17:54:17Z</time>
  <course>267.18</course>
  <speed>4.907433137598514</speed>
  <fix>3d</fix>
</trkpt>
<trkpt lat="40.0716699" lon="-105.2277632">
  <ele>1583.0</ele>
  <time>2026-08-28T17:54:17Z</time>
  <course>266.92</course>
  <speed>4.92</speed>
  <fix>3d</fix>
</trkpt>
<trkpt lat="40.0716692" lon="-105.2277821">
  <ele>1582.9</ele>
  <time>2026-08-28T17:54:17Z</time>
  <course>267.15</course>
  <speed>4.927402967081138</speed>
  <fix>3d</fix>
</trkpt>
<trkpt lat="40.0716694" lon="-105.2277747">
  <ele>1583.0</ele>
  <time>2026-08-28T17:54:17Z</time>
  <course>266.83</course>
  <speed>4.94</speed>
  <fix>3d</fix>
</trkpt>
<trkpt lat="40.0716689" lon="-105.2277891">
  <ele>1582.9</ele>
  <time>2026-08-28T17:54:17Z</time>
  <course>267.11</course>
  <speed>4.937387973412663</speed>
  <fix>3d</fix>
</trkpt>
<trkpt lat="40.0716694" lon="-105.2277747">
  <ele>1583.0</ele>
  <time>2026-08-28T17:54:17Z</time>
  <course>266.83</course>
  <speed>4.94</speed>
  <fix>3d</fix>
</trkpt>
<trkpt lat="40.0716686" lon="-105.2277949">
  <ele>1582.9</ele>
  <time>2026-08-28T17:54:17Z</time>
  <course>267.09</course>
  <speed>4.9479288596341</speed>
  <fix>3d</fix>
</trkpt>
<trkpt lat="40.0716689" lon="-105.2277863">
  <ele>1583.0</ele>
  <time>2026-08-28T17:54:17Z</time>
  <course>266.75</course>
  <speed>4.96</speed>
  <fix>3d</fix>
</trkpt>
<trkpt lat="40.0716684" lon="-105.2278008">
  <ele>1582.9</ele>
  <time>2026-08-28T17:54:17Z</time>
  <course>267.05</course>
  <speed>4.957912867326331</speed>
  <fix>3d</fix>
</trkpt>
<trkpt lat="40.0716689" lon="-105.2277863">
  <ele>1583.0</ele>
  <time>2026-08-28T17:54:17Z</time>
  <course>266.75</course>
  <speed>4.96</speed>
  <fix>3d</fix>
</trkpt>
<trkpt lat="40.0716681" lon="-105.2278067">
  <ele>1582.9</ele>
  <time>2026-08-28T17:54:17Z</time>
  <course>267.01</course>
  <speed>4.967896939349688</speed>
  <fix>3d</fix>
</trkpt>
<trkpt lat="40.0716684" lon="-105.227798">
  <ele>1583.0</ele>
  <time>2026-08-28T17:54:17Z</time>
  <course>266.68</course>
  <speed>4.98</speed>
  <fix>3d</fix>
</trkpt>
<trkpt lat="40.0716678" lon="-105.2278126">
  <ele>1582.9</ele>
  <time>2026-08-28T17:54:17Z</time>
  <course>266.99</course>
  <speed>4.9684705896281605</speed>
  <fix>3d</fix>
</trkpt>
<trkpt lat="40.0716684" lon="-105.227798">
  <ele>1583.0</ele>
  <time>2026-08-28T17:54:17Z</time>
  <course>266.68</course>
  <speed>4.98</speed>
  <fix>3d</fix>
</trkpt>
<trkpt lat="40.0716676" lon="-105.2278185">
  <ele>1582.9</ele>
  <time>2026-08-28T17:54:17Z</time>
  <course>266.97</course>
  <speed>4.978453575157651</speed>
  <fix>3d</fix>
</trkpt>
<trkpt lat="40.0716679" lon="-105.2278097">
  <ele>1583.0</ele>
  <time>2026-08-28T17:54:17Z</time>
  <course>266.6</course>
  <speed>4.99</speed>
  <fix>3d</fix>
</trkpt>
<trkpt lat="40.0716673" lon="-105.2278243">
  <ele>1582.91</ele>
  <time>2026-08-28T17:54:17Z</time>
  <course>266.92</course>
  <speed>4.978453575157651</speed>
  <fix>3d</fix>
</trkpt>
<trkpt lat="40.0716679" lon="-105.2278097">
  <ele>1583.0</ele>
  <time>2026-08-28T17:54:17Z</time>
  <course>266.6</course>
  <speed>4.99</speed>
  <fix>3d</fix>
</trkpt>
<trkpt lat="40.071667" lon="-105.2278301">
  <ele>1582.91</ele>
  <time>2026-08-28T17:54:17Z</time>
  <course>266.91</course>
  <speed>4.978453575157651</speed>
  <fix>3d</fix>
</trkpt>
<trkpt lat="40.0716673" lon="-105.2278215">
  <ele>1583.0</ele>
  <time>2026-08-28T17:54:17Z</time>
  <course>266.54</course>
  <speed>5.0</speed>
  <fix>3d</fix>
</trkpt>
<trkpt lat="40.0716667" lon="-105.227836">
  <ele>1582.91</ele>
  <time>2026-08-28T17:54:17Z</time>
  <course>266.87</course>
  <speed>4.979046093379735</speed>
  <fix>3d</fix>
</trkpt>
<trkpt lat="40.0716673" lon="-105.2278215">
  <ele>1583.0</ele>
  <time>2026-08-28T17:54:17Z</time>
  <course>266.54</course>
  <speed>5.0</speed>
  <fix>3d</fix>
</trkpt>
<trkpt lat="40.0716665" lon="-105.2278418">
  <ele>1582.92</ele>
  <time>2026-08-28T17:54:17Z</time>
  <course>266.83</course>
  <speed>4.979046093379735</speed>
  <fix>3d</fix>
</trkpt>
<trkpt lat="40.0716668" lon="-105.2278332">
  <ele>1583.0</ele>
  <time>2026-08-28T17:54:17Z</time>
  <course>266.47</course>
  <speed>5.01</speed>
  <fix>3d</fix>
</trkpt>
<trkpt lat="40.0716662" lon="-105.2278476">
  <ele>1582.92</ele>
  <time>2026-08-28T17:54:17Z</time>
  <course>266.82</course>
  <speed>4.979046093379735</speed>
  <fix>3d</fix>
</trkpt>
<trkpt lat="40.0716668" lon="-105.2278332">
  <ele>1583.0</ele>
  <time>2026-08-28T17:54:17Z</time>
  <course>266.47</course>
  <speed>5.01</speed>
  <fix>3d</fix>
</trkpt>
<trkpt lat="40.0716659" lon="-105.2278534">
  <ele>1582.92</ele>
  <time>2026-08-28T17:54:17Z</time>
  <course>266.76</course>
  <speed>4.979046093379735</speed>
  <fix>3d</fix>
</trkpt>
<trkpt lat="40.0716663" lon="-105.227845">
  <ele>1583.0</ele>
  <time>2026-08-28T17:54:17Z</time>
  <course>266.39</course>
  <speed>5.01</speed>
  <fix>3d</fix>
</trkpt>
<trkpt lat="40.0716656" lon="-105.2278592">
  <ele>1582.92</ele>
  <time>2026-08-28T17:54:17Z</time>
  <course>266.74</course>
  <speed>4.979046093379735</speed>
  <fix>3d</fix>
</trkpt>
<trkpt lat="40.0716663" lon="-105.227845">
  <ele>1583.0</ele>
  <time>2026-08-28T17:54:17Z</time>
  <course>266.39</course>
  <speed>5.01</speed>
  <fix>3d</fix>
</trkpt>
<trkpt lat="40.0716654" lon="-105.2278639">
  <ele>1582.92</ele>
  <time>2026-08-28T17:54:17Z</time>
  <course>266.71</course>
  <speed>4.969678057983233</speed>
  <fix>3d</fix>
</trkpt>
<trkpt lat="40.0716656" lon="-105.2278567">
  <ele>1583.0</ele>
  <time>2026-08-28T17:54:17Z</time>
  <course>266.32</course>
  <speed>5.01</speed>
  <fix>3d</fix>
</trkpt>
<trkpt lat="40.0716651" lon="-105.2278698">
  <ele>1582.93</ele>
  <time>2026-08-28T17:54:17Z</time>
  <course>266.68</course>
  <speed>4.979658622837514</speed>
  <fix>3d</fix>
</trkpt>
<trkpt lat="40.0716656" lon="-105.2278567">
  <ele>1583.0</ele>
  <time>2026-08-28T17:54:17Z</time>
  <course>266.32</course>
  <speed>5.01</speed>
  <fix>3d</fix>
</trkpt>
<trkpt lat="40.0716648" lon="-105.2278757">
  <ele>1582.93</ele>
  <time>2026-08-28T17:54:17Z</time>
  <course>266.67</course>
  <speed>4.979658622837514</speed>
  <fix>3d</fix>
</trkpt>
<trkpt lat="40.0716651" lon="-105.2278685">
  <ele>1583.0</ele>
  <time>2026-08-28T17:54:17Z</time>
  <course>266.27</course>
  <speed>5.01</speed>
  <fix>3d</fix>
</trkpt>
<trkpt lat="40.0716645" lon="-105.2278816">
  <ele>1582.93</ele>
  <time>2026-08-28T17:54:17Z</time>
  <course>266.65</course>
  <speed>4.979658622837514</speed>
  <fix>3d</fix>
</trkpt>
<trkpt lat="40.0716651" lon="-105.2278685">
  <ele>1583.0</ele>
  <time>2026-08-28T17:54:17Z</time>
  <course>266.27</course>
  <speed>5.01</speed>
  <fix>3d</fix>
</trkpt>
<trkpt lat="40.0716642" lon="-105.2278874">
  <ele>1582.93</ele>
  <time>2026-08-28T17:54:17Z</time>
  <course>266.61</course>
  <speed>4.979658622837514</speed>
  <fix>3d</fix>
</trkpt>
<trkpt lat="40.0716645" lon="-105.2278802">
  <ele>1583.0</ele>
  <time>2026-08-28T17:54:17Z</time>
  <course>266.21</course>
  <speed>5.01</speed>
  <fix>3d</fix>
</trkpt>
<trkpt lat="40.0716639" lon="-105.2278934">
  <ele>1582.93</ele>
  <time>2026-08-28T17:54:17Z</time>
  <course>266.59</course>
  <speed>4.980291156147399</speed>
  <fix>3d</fix>
</trkpt>
<trkpt lat="40.0716645" lon="-105.2278802">
  <ele>1583.0</ele>
  <time>2026-08-28T17:54:17Z</time>
  <course>266.21</course>
  <speed>5.01</speed>
  <fix>3d</fix>
</trkpt>
<trkpt lat="40.0716636" lon="-105.2278993">
  <ele>1582.93</ele>
  <time>2026-08-28T17:54:17Z</time>
  <course>266.59</course>
  <speed>4.980291156147399</speed>
  <fix>3d</fix>
</trkpt>
<trkpt lat="40.071664" lon="-105.227892">
  <ele>1583.0</ele>
  <time>2026-08-28T17:54:17Z</time>
  <course>266.15</course>
  <speed>5.01</speed>
  <fix>3d</fix>
</trkpt>
<trkpt lat="40.0716633" lon="-105.2279053">
  <ele>1582.93</ele>
  <time>2026-08-28T17:54:17Z</time>
  <course>266.55</course>
  <speed>4.980291156147399</speed>
  <fix>3d</fix>
</trkpt>
<trkpt lat="40.071664" lon="-105.227892">
  <ele>1583.0</ele>
  <time>2026-08-28T17:54:17Z</time>
  <course>266.15</course>
  <speed>5.01</speed>
  <fix>3d</fix>
</trkpt>
<trkpt lat="40.071663" lon="-105.2279123">
  <ele>1582.92</ele>
  <time>2026-08-28T17:54:17Z</time>
  <course>266.52</course>
  <speed>4.980291156147399</speed>
  <fix>3d</fix>
</trkpt>
<trkpt lat="40.0716633" lon="-105.2279037">
  <ele>1583.0</ele>
  <time>2026-08-28T17:54:17Z</time>
  <course>266.1</course>
  <speed>5.01</speed>
  <fix>3d</fix>
</trkpt>
<trkpt lat="40.0716627" lon="-105.2279183">
  <ele>1582.92</ele>
  <time>2026-08-28T17:54:17Z</time>
  <course>266.51</course>
  <speed>4.980291156147399</speed>
  <fix>3d</fix>
</trkpt>
<trkpt lat="40.0716633" lon="-105.2279037">
  <ele>1583.0</ele>
  <time>2026-08-28T17:54:17Z</time>
  <course>266.1</course>
  <speed>5.01</speed>
  <fix>3d</fix>
</trkpt>
<trkpt lat="40.0716624" lon="-105.2279241">
  <ele>1582.92</ele>
  <time>2026-08-28T17:54:17Z</time>
  <course>266.48</course>
  <speed>4.970311861442902</speed>
  <fix>3d</fix>
</trkpt>
<trkpt lat="40.0716627" lon="-105.2279154">
  <ele>1583.0</ele>
  <time>2026-08-28T17:54:17Z</time>
  <course>266.04</course>
  <speed>5.0</speed>
  <fix>3d</fix>
</trkpt>
<trkpt lat="40.0716621" lon="-105.22793">
  <ele>1582.92</ele>
  <time>2026-08-28T17:54:17Z</time>
  <course>266.48</course>
  <speed>4.970311861442902</speed>
  <fix>3d</fix>
</trkpt>
<trkpt lat="40.0716627" lon="-105.2279154">
  <ele>1583.0</ele>
  <time>2026-08-28T17:54:17Z</time>
  <course>266.04</course>
  <speed>5.0</speed>
  <fix>3d</fix>
</trkpt>
<trkpt lat="40.0716618" lon="-105.2279359">
  <ele>1582.92</ele>
  <time>2026-08-28T17:54:17Z</time>
  <course>266.44</course>
  <speed>4.970311861442902</speed>
  <fix>3d</fix>
</trkpt>
<trkpt lat="40.0716621" lon="-105.2279272">
  <ele>1583.0</ele>
  <time>2026-08-28T17:54:17Z</time>
  <course>265.99</course>
  <speed>4.99</speed>
  <fix>3d</fix>
</trkpt>
<trkpt lat="40.0716615" lon="-105.2279417">
  <ele>1582.92</ele>
  <time>2026-08-28T17:54:17Z</time>
  <course>266.41</course>
  <speed>4.96098780486306</speed>
  <fix>3d</fix>
</trkpt>
<trkpt lat="40.0716621" lon="-105.2279272">
  <ele>1583.0</ele>
  <time>2026-08-28T17:54:17Z</time>
  <course>265.99</course>
  <speed>4.99</speed>
  <fix>3d</fix>
</trkpt>
<trkpt lat="40.0716611" lon="-105.2279476">
  <ele>1582.92</ele>
  <time>2026-08-28T17:54:17Z</time>
  <course>266.4</course>
  <speed>4.96098780486306</speed>
  <fix>3d</fix>
</trkpt>
<trkpt lat="40.0716615" lon="-105.2279389">
  <ele>1583.0</ele>
  <time>2026-08-28T17:54:17Z</time>
  <course>265.93</course>
  <speed>4.99</speed>
  <fix>3d</fix>
</trkpt>
<trkpt lat="40.0716608" lon="-105.2279534">
  <ele>1582.92</ele>
  <time>2026-08-28T17:54:17Z</time>
  <course>266.38</course>
  <speed>4.96098780486306</speed>
  <fix>3d</fix>
</trkpt>
<trkpt lat="40.0716615" lon="-105.2279389">
  <ele>1583.0</ele>
  <time>2026-08-28T17:54:17Z</time>
  <course>265.93</course>
  <speed>4.99</speed>
  <fix>3d</fix>
</trkpt>
<trkpt lat="40.0716605" lon="-105.2279591">
  <ele>1582.93</ele>
  <time>2026-08-28T17:54:17Z</time>
  <course>266.35</course>
  <speed>4.951009997970111</speed>
  <fix>3d</fix>
</trkpt>
<trkpt lat="40.0716608" lon="-105.2279506">
  <ele>1583.0</ele>
  <time>2026-08-28T17:54:17Z</time>
  <course>265.89</course>
  <speed>4.98</speed>
  <fix>3d</fix>
</trkpt>
<trkpt lat="40.0716602" lon="-105.2279649">
  <ele>1582.93</ele>
  <time>2026-08-28T17:54:17Z</time>
  <course>266.34</course>
  <speed>4.951009997970111</speed>
  <fix>3d</fix>
</trkpt>
<trkpt lat="40.0716608" lon="-105.2279506">
  <ele>1583.0</ele>
  <time>2026-08-28T17:54:17Z</time>
  <course>265.89</course>
  <speed>4.98</speed>
  <fix>3d</fix>
</trkpt>
<trkpt lat="40.0716599" lon="-105.2279707">
  <ele>1582.93</ele>
  <time>2026-08-28T17:54:17Z</time>
  <course>266.32</course>
  <speed>4.951009997970111</speed>
  <fix>3d</fix>
</trkpt>
<trkpt lat="40.0716601" lon="-105.2279623">
  <ele>1583.0</ele>
  <time>2026-08-28T17:54:17Z</time>
  <course>265.85</course>
  <speed>4.98</speed>
  <fix>3d</fix>
</trkpt>
<trkpt lat="40.0716596" lon="-105.2279765">
  <ele>1582.93</ele>
  <time>2026-08-28T17:54:17Z</time>
  <course>266.32</course>
  <speed>4.951009997970111</speed>
  <fix>3d</fix>
</trkpt>
<trkpt lat="40.0716601" lon="-105.2279623">
  <ele>1583.0</ele>
  <time>2026-08-28T17:54:17Z</time>
  <course>265.85</course>
  <speed>4.98</speed>
  <fix>3d</fix>
</trkpt>
<trkpt lat="40.0716593" lon="-105.2279823">
  <ele>1582.93</ele>
  <time>2026-08-28T17:54:17Z</time>
  <course>266.29</course>
  <speed>4.941032280809345</speed>
  <fix>3d</fix>
</trkpt>
<trkpt lat="40.0716595" lon="-105.2279739">
  <ele>1583.0</ele>
  <time>2026-08-28T17:54:17Z</time>
  <course>265.81</course>
  <speed>4.98</speed>
  <fix>3d</fix>
</trkpt>
<trkpt lat="40.071659" lon="-105.2279869">
  <ele>1582.93</ele>
  <time>2026-08-28T17:54:17Z</time>
  <course>266.28</course>
  <speed>4.941032280809345</speed>
  <fix>3d</fix>
</trkpt>
<trkpt lat="40.0716595" lon="-105.2279739">
  <ele>1583.0</ele>
  <time>2026-08-28T17:54:17Z</time>
  <course>265.81</course>
  <speed>4.98</speed>
  <fix>3d</fix>
</trkpt>
<trkpt lat="40.0716587" lon="-105.2279927">
  <ele>1582.93</ele>
  <time>2026-08-28T17:54:17Z</time>
  <course>266.27</course>
  <speed>4.941032280809345</speed>
  <fix>3d</fix>
</trkpt>
<trkpt lat="40.0716589" lon="-105.2279856">
  <ele>1583.0</ele>
  <time>2026-08-28T17:54:17Z</time>
  <course>265.78</course>
  <speed>4.98</speed>
  <fix>3d</fix>
</trkpt>
<trkpt lat="40.0716583" lon="-105.2279986">
  <ele>1582.93</ele>
  <time>2026-08-28T17:54:17Z</time>
  <course>266.25</course>
  <speed>4.951686581357912</speed>
  <fix>3d</fix>
</trkpt>
<trkpt lat="40.0716589" lon="-105.2279856">
  <ele>1583.0</ele>
  <time>2026-08-28T17:54:17Z</time>
  <course>265.78</course>
  <speed>4.98</speed>
  <fix>3d</fix>
</trkpt>
<trkpt lat="40.071658" lon="-105.2280044">
  <ele>1582.93</ele>
  <time>2026-08-28T17:54:17Z</time>
  <course>266.25</course>
  <speed>4.951686581357912</speed>
  <fix>3d</fix>
</trkpt>
<trkpt lat="40.0716582" lon="-105.2279973">
  <ele>1583.0</ele>
  <time>2026-08-28T17:54:17Z</time>
  <course>265.75</course>
  <speed>4.98</speed>
  <fix>3d</fix>
</trkpt>
<trkpt lat="40.0716577" lon="-105.2280102">
  <ele>1582.93</ele>
  <time>2026-08-28T17:54:17Z</time>
  <course>266.22</course>
  <speed>4.961663027655143</speed>
  <fix>3d</fix>
</trkpt>
<trkpt lat="40.0716582" lon="-105.2279973">
  <ele>1583.0</ele>
  <time>2026-08-28T17:54:17Z</time>
  <course>265.75</course>
  <speed>4.98</speed>
  <fix>3d</fix>
</trkpt>
<trkpt lat="40.0716574" lon="-105.2280161">
  <ele>1582.93</ele>
  <time>2026-08-28T17:54:17Z</time>
  <course>266.23</course>
  <speed>4.961663027655143</speed>
  <fix>3d</fix>
</trkpt>
<trkpt lat="40.0716575" lon="-105.2280089">
  <ele>1583.0</ele>
  <time>2026-08-28T17:54:17Z</time>
  <course>265.73</course>
  <speed>4.99</speed>
  <fix>3d</fix>
</trkpt>
<trkpt lat="40.071657" lon="-105.228022">
  <ele>1582.93</ele>
  <time>2026-08-28T17:54:17Z</time>
  <course>266.22</course>
  <speed>4.961663027655143</speed>
  <fix>3d</fix>
</trkpt>
<trkpt lat="40.0716575" lon="-105.2280089">
  <ele>1583.0</ele>
  <time>2026-08-28T17:54:17Z</time>
  <course>265.73</course>
  <speed>4.99</speed>
  <fix>3d</fix>
</trkpt>
<trkpt lat="40.0716566" lon="-105.2280291">
  <ele>1582.92</ele>
  <time>2026-08-28T17:54:17Z</time>
  <course>266.22</course>
  <speed>4.961663027655143</speed>
  <fix>3d</fix>
</trkpt>
<trkpt lat="40.0716568" lon="-105.2280206">
  <ele>1583.0</ele>
  <time>2026-08-28T17:54:17Z</time>
  <course>265.71</course>
  <speed>4.99</speed>
  <fix>3d</fix>
</trkpt>
<trkpt lat="40.0716563" lon="-105.228035">
  <ele>1582.92</ele>
  <time>2026-08-28T17:54:17Z</time>
  <course>266.21</course>
  <speed>4.971639568593041</speed>
  <fix>3d</fix>
</trkpt>
<trkpt lat="40.0716568" lon="-105.2280206">
  <ele>1583.0</ele>
  <time>2026-08-28T17:54:17Z</time>
  <course>265.71</course>
  <speed>4.99</speed>
  <fix>3d</fix>
</trkpt>
<trkpt lat="40.0716559" lon="-105.2280409">
  <ele>1582.92</ele>
  <time>2026-08-28T17:54:17Z</time>
  <course>266.21</course>
  <speed>4.971639568593041</speed>
  <fix>3d</fix>
</trkpt>
<trkpt lat="40.0716562" lon="-105.2280323">
  <ele>1583.0</ele>
  <time>2026-08-28T17:54:17Z</time>
  <course>265.69</course>
  <speed>4.99</speed>
  <fix>3d</fix>
</trkpt>
<trkpt lat="40.0716556" lon="-105.2280468">
  <ele>1582.92</ele>
  <time>2026-08-28T17:54:17Z</time>
  <course>266.2</course>
  <speed>4.971639568593041</speed>
  <fix>3d</fix>
</trkpt>
<trkpt lat="40.0716562" lon="-105.2280323">
  <ele>1583.0</ele>
  <time>2026-08-28T17:54:17Z</time>
  <course>265.69</course>
  <speed>4.99</speed>
  <fix>3d</fix>
</trkpt>
<trkpt lat="40.0716553" lon="-105.2280527">
  <ele>1582.93</ele>
  <time>2026-08-28T17:54:17Z</time>
  <course>266.2</course>
  <speed>4.971639568593041</speed>
  <fix>3d</fix>
</trkpt>
<trkpt lat="40.0716555" lon="-105.228044">
  <ele>1583.0</ele>
  <time>2026-08-28T17:54:17Z</time>
  <course>265.68</course>
  <speed>4.99</speed>
  <fix>3d</fix>
</trkpt>
<trkpt lat="40.0716549" lon="-105.2280586">
  <ele>1582.93</ele>
  <time>2026-08-28T17:54:17Z</time>
  <course>266.19</course>
  <speed>4.971639568593041</speed>
  <fix>3d</fix>
</trkpt>
<trkpt lat="40.0716555" lon="-105.228044">
  <ele>1583.0</ele>
  <time>2026-08-28T17:54:17Z</time>
  <course>265.68</course>
  <speed>4.99</speed>
  <fix>3d</fix>
</trkpt>
<trkpt lat="40.0716546" lon="-105.2280645">
  <ele>1582.93</ele>
  <time>2026-08-28T17:54:17Z</time>
  <course>266.19</course>
  <speed>4.971639568593041</speed>
  <fix>3d</fix>
</trkpt>
<trkpt lat="40.0716548" lon="-105.2280557">
  <ele>1583.0</ele>
  <time>2026-08-28T17:54:17Z</time>
  <course>265.66</course>
  <speed>4.99</speed>
  <fix>3d</fix>
</trkpt>
<trkpt lat="40.0716542" lon="-105.2280703">
  <ele>1582.93</ele>
  <time>2026-08-28T17:54:17Z</time>
  <course>266.18</course>
  <speed>4.961663027655143</speed>
  <fix>3d</fix>
</trkpt>
<trkpt lat="40.0716548" lon="-105.2280557">
  <ele>1583.0</ele>
  <time>2026-08-28T17:54:17Z</time>
  <course>265.66</course>
  <speed>4.99</speed>
  <fix>3d</fix>
</trkpt>
<trkpt lat="40.0716539" lon="-105.2280761">
  <ele>1582.93</ele>
  <time>2026-08-28T17:54:17Z</time>
  <course>266.18</course>
  <speed>4.961663027655143</speed>
  <fix>3d</fix>
</trkpt>
<trkpt lat="40.0716542" lon="-105.2280674">
  <ele>1583.0</ele>
  <time>2026-08-28T17:54:17Z</time>
  <course>265.65</course>
  <speed>4.98</speed>
  <fix>3d</fix>
</trkpt>
<trkpt lat="40.0716536" lon="-105.2280819">
  <ele>1582.93</ele>
  <time>2026-08-28T17:54:17Z</time>
  <course>266.17</course>
  <speed>4.961663027655143</speed>
  <fix>3d</fix>
</trkpt>
<trkpt lat="40.0716542" lon="-105.2280674">
  <ele>1583.0</ele>
  <time>2026-08-28T17:54:17Z</time>
  <course>265.65</course>
  <speed>4.98</speed>
  <fix>3d</fix>
</trkpt>
<trkpt lat="40.0716532" lon="-105.2280877">
  <ele>1582.93</ele>
  <time>2026-08-28T17:54:17Z</time>
  <course>266.17</course>
  <speed>4.961663027655143</speed>
  <fix>3d</fix>
</trkpt>
<trkpt lat="40.0716535" lon="-105.2280791">
  <ele>1583.0</ele>
  <time>2026-08-28T17:54:17Z</time>
  <course>265.64</course>
  <speed>4.98</speed>
  <fix>3d</fix>
</trkpt>
<trkpt lat="40.0716529" lon="-105.2280935">
  <ele>1582.93</ele>
  <time>2026-08-28T17:54:17Z</time>
  <course>266.16</course>
  <speed>4.951686581357912</speed>
  <fix>3d</fix>
</trkpt>
<trkpt lat="40.0716535" lon="-105.2280791">
  <ele>1583.0</ele>
  <time>2026-08-28T17:54:17Z</time>
  <course>265.64</course>
  <speed>4.98</speed>
  <fix>3d</fix>
</trkpt>
<trkpt lat="40.0716526" lon="-105.2280992">
  <ele>1582.93</ele>
  <time>2026-08-28T17:54:17Z</time>
  <course>266.16</course>
  <speed>4.951686581357912</speed>
  <fix>3d</fix>
</trkpt>
<trkpt lat="40.0716528" lon="-105.2280907">
  <ele>1583.0</ele>
  <time>2026-08-28T17:54:17Z</time>
  <course>265.62</course>
  <speed>4.98</speed>
  <fix>3d</fix>
</trkpt>
<trkpt lat="40.0716522" lon="-105.2281051">
  <ele>1582.93</ele>
  <time>2026-08-28T17:54:17Z</time>
  <course>266.16</course>
  <speed>4.951686581357912</speed>
  <fix>3d</fix>
</trkpt>
<trkpt lat="40.0716528" lon="-105.2280907">
  <ele>1583.0</ele>
  <time>2026-08-28T17:54:17Z</time>
  <course>265.62</course>
  <speed>4.98</speed>
  <fix>3d</fix>
</trkpt>
<trkpt lat="40.071652" lon="-105.2281097">
  <ele>1582.92</ele>
  <time>2026-08-28T17:54:17Z</time>
  <course>266.15</course>
  <speed>4.951686581357912</speed>
  <fix>3d</fix>
</trkpt>
<trkpt lat="40.0716521" lon="-105.2281024">
  <ele>1583.0</ele>
  <time>2026-08-28T17:54:17Z</time>
  <course>265.61</course>
  <speed>4.98</speed>
  <fix>3d</fix>
</trkpt>
<trkpt lat="40.0716516" lon="-105.2281155">
  <ele>1582.92</ele>
  <time>2026-08-28T17:54:17Z</time>
  <course>266.15</course>
  <speed>4.951686581357912</speed>
  <fix>3d</fix>
</trkpt>
<trkpt lat="40.0716521" lon="-105.2281024">
  <ele>1583.0</ele>
  <time>2026-08-28T17:54:17Z</time>
  <course>265.61</course>
  <speed>4.98</speed>
  <fix>3d</fix>
</trkpt>
<trkpt lat="40.0716513" lon="-105.2281214">
  <ele>1582.92</ele>
  <time>2026-08-28T17:54:17Z</time>
  <course>266.15</course>
  <speed>4.951686581357912</speed>
  <fix>3d</fix>
</trkpt>
<trkpt lat="40.0716514" lon="-105.2281141">
  <ele>1583.0</ele>
  <time>2026-08-28T17:54:17Z</time>
  <course>265.6</course>
  <speed>4.98</speed>
  <fix>3d</fix>
</trkpt>
<trkpt lat="40.0716509" lon="-105.2281272">
  <ele>1582.92</ele>
  <time>2026-08-28T17:54:17Z</time>
  <course>266.15</course>
  <speed>4.961663027655143</speed>
  <fix>3d</fix>
</trkpt>
<trkpt lat="40.0716514" lon="-105.2281141">
  <ele>1583.0</ele>
  <time>2026-08-28T17:54:17Z</time>
  <course>265.6</course>
  <speed>4.98</speed>
  <fix>3d</fix>
</trkpt>
<trkpt lat="40.0716506" lon="-105.228133">
  <ele>1582.92</ele>
  <time>2026-08-28T17:54:17Z</time>
  <course>266.15</course>
  <speed>4.961663027655143</speed>
  <fix>3d</fix>
</trkpt>
<trkpt lat="40.0716507" lon="-105.2281257">
  <ele>1583.0</ele>
  <time>2026-08-28T17:54:17Z</time>
  <course>265.6</course>
  <speed>4.98</speed>
  <fix>3d</fix>
</trkpt>
<trkpt lat="40.0716502" lon="-105.2281389">
  <ele>1582.91</ele>
  <time>2026-08-28T17:54:17Z</time>
  <course>266.15</course>
  <speed>4.961663027655143</speed>
  <fix>3d</fix>
</trkpt>
<trkpt lat="40.0716507" lon="-105.2281257">
  <ele>1583.0</ele>
  <time>2026-08-28T17:54:17Z</time>
  <course>265.6</course>
  <speed>4.98</speed>
  <fix>3d</fix>
</trkpt>
<trkpt lat="40.0716499" lon="-105.2281448">
  <ele>1582.91</ele>
  <time>2026-08-28T17:54:17Z</time>
  <course>266.15</course>
  <speed>4.961663027655143</speed>
  <fix>3d</fix>
</trkpt>
<trkpt lat="40.0716501" lon="-105.2281374">
  <ele>1583.0</ele>
  <time>2026-08-28T17:54:17Z</time>
  <course>265.6</course>
  <speed>4.98</speed>
  <fix>3d</fix>
</trkpt>
<trkpt lat="40.0716495" lon="-105.2281519">
  <ele>1582.92</ele>
  <time>2026-08-28T17:54:17Z</time>
  <course>266.15</course>
  <speed>4.971639568593041</speed>
  <fix>3d</fix>
</trkpt>
<trkpt lat="40.0716501" lon="-105.2281374">
  <ele>1583.0</ele>
  <time>2026-08-28T17:54:17Z</time>
  <course>265.6</course>
  <speed>4.98</speed>
  <fix>3d</fix>
</trkpt>
<trkpt lat="40.0716491" lon="-105.2281578">
  <ele>1582.92</ele>
  <time>2026-08-28T17:54:17Z</time>
  <course>266.15</course>
  <speed>4.971639568593041</speed>
  <fix>3d</fix>
</trkpt>
<trkpt lat="40.0716494" lon="-105.2281491">
  <ele>1583.0</ele>
  <time>2026-08-28T17:54:17Z</time>
  <course>265.6</course>
  <speed>4.98</speed>
  <fix>3d</fix>
</trkpt>
<trkpt lat="40.0716488" lon="-105.2281637">
  <ele>1582.92</ele>
  <time>2026-08-28T17:54:17Z</time>
  <course>266.15</course>
  <speed>4.971639568593041</speed>
  <fix>3d</fix>
</trkpt>
<trkpt lat="40.0716494" lon="-105.2281491">
  <ele>1583.0</ele>
  <time>2026-08-28T17:54:17Z</time>
  <course>265.6</course>
  <speed>4.98</speed>
  <fix>3d</fix>
</trkpt>
<trkpt lat="40.0716485" lon="-105.2281696">
  <ele>1582.92</ele>
  <time>2026-08-28T17:54:17Z</time>
  <course>266.15</course>
  <speed>4.971639568593041</speed>
  <fix>3d</fix>
</trkpt>
<trkpt lat="40.0716487" lon="-105.2281608">
  <ele>1583.0</ele>
  <time>2026-08-28T17:54:17Z</time>
  <course>265.6</course>
  <speed>4.98</speed>
  <fix>3d</fix>
</trkpt>
<trkpt lat="40.0716481" lon="-105.2281754">
  <ele>1582.92</ele>
  <time>2026-08-28T17:54:17Z</time>
  <course>266.15</course>
  <speed>4.971639568593041</speed>
  <fix>3d</fix>
</trkpt>
<trkpt lat="40.0716487" lon="-105.2281608">
  <ele>1583.0</ele>
  <time>2026-08-28T17:54:17Z</time>
  <course>265.6</course>
  <speed>4.98</speed>
  <fix>3d</fix>
</trkpt>
<trkpt lat="40.0716478" lon="-105.2281813">
  <ele>1582.92</ele>
  <time>2026-08-28T17:54:17Z</time>
  <course>266.15</course>
  <speed>4.971639568593041</speed>
  <fix>3d</fix>
</trkpt>
<trkpt lat="40.071648" lon="-105.2281725">
  <ele>1583.0</ele>
  <time>2026-08-28T17:54:17Z</time>
  <course>265.6</course>
  <speed>4.98</speed>
  <fix>3d</fix>
</trkpt>
<trkpt lat="40.0716474" lon="-105.2281871">
  <ele>1582.92</ele>
  <time>2026-08-28T17:54:17Z</time>
  <course>266.15</course>
  <speed>4.971639568593041</speed>
  <fix>3d</fix>
</trkpt>
<trkpt lat="40.071648" lon="-105.2281725">
  <ele>1583.0</ele>
  <time>2026-08-28T17:54:17Z</time>
  <course>265.6</course>
  <speed>4.98</speed>
  <fix>3d</fix>
</trkpt>
<trkpt lat="40.0716471" lon="-105.2281929">
  <ele>1582.91</ele>
  <time>2026-08-28T17:54:17Z</time>
  <course>266.15</course>
  <speed>4.961663027655143</speed>
  <fix>3d</fix>
</trkpt>
<trkpt lat="40.0716473" lon="-105.2281841">
  <ele>1583.0</ele>
  <time>2026-08-28T17:54:17Z</time>
  <course>265.6</course>
  <speed>4.98</speed>
  <fix>3d</fix>
</trkpt>
<trkpt lat="40.0716468" lon="-105.2281987">
  <ele>1582.91</ele>
  <time>2026-08-28T17:54:17Z</time>
  <course>266.15</course>
  <speed>4.961663027655143</speed>
  <fix>3d</fix>
</trkpt>
<trkpt lat="40.0716473" lon="-105.2281841">
  <ele>1583.0</ele>
  <time>2026-08-28T17:54:17Z</time>
  <course>265.6</course>
  <speed>4.98</speed>
  <fix>3d</fix>
</trkpt>
<trkpt lat="40.0716464" lon="-105.2282045">
  <ele>1582.91</ele>
  <time>2026-08-28T17:54:17Z</time>
  <course>266.16</course>
  <speed>4.961663027655143</speed>
  <fix>3d</fix>
</trkpt>
<trkpt lat="40.0716466" lon="-105.2281958">
  <ele>1583.0</ele>
  <time>2026-08-28T17:54:17Z</time>
  <course>265.6</course>
  <speed>4.98</speed>
  <fix>3d</fix>
</trkpt>
<trkpt lat="40.0716461" lon="-105.2282103">
  <ele>1582.91</ele>
  <time>2026-08-28T17:54:17Z</time>
  <course>266.16</course>
  <speed>4.961663027655143</speed>
  <fix>3d</fix>
</trkpt>
<trkpt lat="40.0716466" lon="-105.2281958">
  <ele>1583.0</ele>
  <time>2026-08-28T17:54:17Z</time>
  <course>265.6</course>
  <speed>4.98</speed>
  <fix>3d</fix>
</trkpt>
<trkpt lat="40.0716457" lon="-105.228216">
  <ele>1582.91</ele>
  <time>2026-08-28T17:54:17Z</time>
  <course>266.16</course>
  <speed>4.961663027655143</speed>
  <fix>3d</fix>
</trkpt>
<trkpt lat="40.0716459" lon="-105.2282075">
  <ele>1583.0</ele>
  <time>2026-08-28T17:54:17Z</time>
  <course>265.6</course>
  <speed>4.98</speed>
  <fix>3d</fix>
</trkpt>
<trkpt lat="40.0716454" lon="-105.2282218">
  <ele>1582.91</ele>
  <time>2026-08-28T17:54:17Z</time>
  <course>266.16</course>
  <speed>4.961663027655143</speed>
  <fix>3d</fix>
</trkpt>
<trkpt lat="40.0716459" lon="-105.2282075">
  <ele>1583.0</ele>
  <time>2026-08-28T17:54:17Z</time>
  <course>265.6</course>
  <speed>4.98</speed>
  <fix>3d</fix>
</trkpt>
<trkpt lat="40.0716451" lon="-105.2282265">
  <ele>1582.91</ele>
  <time>2026-08-28T17:54:17Z</time>
  <course>266.16</course>
  <speed>4.951686581357912</speed>
  <fix>3d</fix>
</trkpt>
<trkpt lat="40.0716453" lon="-105.2282191">
  <ele>1583.0</ele>
  <time>2026-08-28T17:54:17Z</time>
  <course>265.6</course>
  <speed>4.98</speed>
  <fix>3d</fix>
</trkpt>
<trkpt lat="40.0716448" lon="-105.2282323">
  <ele>1582.91</ele>
  <time>2026-08-28T17:54:17Z</time>
  <course>266.16</course>
  <speed>4.962358310319802</speed>
  <fix>3d</fix>
</trkpt>
<trkpt lat="40.0716453" lon="-105.2282191">
  <ele>1583.0</ele>
  <time>2026-08-28T17:54:17Z</time>
  <course>265.6</course>
  <speed>4.98</speed>
  <fix>3d</fix>
</trkpt>
<trkpt lat="40.0716444" lon="-105.2282382">
  <ele>1582.91</ele>
  <time>2026-08-28T17:54:17Z</time>
  <course>266.16</course>
  <speed>4.962358310319802</speed>
  <fix>3d</fix>
</trkpt>
<trkpt lat="40.0716446" lon="-105.2282308">
  <ele>1583.0</ele>
  <time>2026-08-28T17:54:17Z</time>
  <course>265.6</course>
  <speed>4.98</speed>
  <fix>3d</fix>
</trkpt>
<trkpt lat="40.0716441" lon="-105.228244">
  <ele>1582.91</ele>
  <time>2026-08-28T17:54:17Z</time>
  <course>266.16</course>
  <speed>4.962358310319802</speed>
  <fix>3d</fix>
</trkpt>
<trkpt lat="40.0716446" lon="-105.2282308">
  <ele>1583.0</ele>
  <time>2026-08-28T17:54:17Z</time>
  <course>265.6</course>
  <speed>4.98</speed>
  <fix>3d</fix>
</trkpt>
<trkpt lat="40.0716437" lon="-105.2282498">
  <ele>1582.91</ele>
  <time>2026-08-28T17:54:17Z</time>
  <course>266.16</course>
  <speed>4.962358310319802</speed>
  <fix>3d</fix>
</trkpt>
<trkpt lat="40.0716439" lon="-105.2282424">
  <ele>1583.0</ele>
  <time>2026-08-28T17:54:17Z</time>
  <course>265.6</course>
  <speed>4.98</speed>
  <fix>3d</fix>
</trkpt>
<trkpt lat="40.0716434" lon="-105.2282557">
  <ele>1582.91</ele>
  <time>2026-08-28T17:54:17Z</time>
  <course>266.16</course>
  <speed>4.972333456235614</speed>
  <fix>3d</fix>
</trkpt>
<trkpt lat="40.0716439" lon="-105.2282424">
  <ele>1583.0</ele>
  <time>2026-08-28T17:54:17Z</time>
  <course>265.6</course>
  <speed>4.98</speed>
  <fix>3d</fix>
</trkpt>
<trkpt lat="40.0716431" lon="-105.2282616">
  <ele>1582.92</ele>
  <time>2026-08-28T17:54:17Z</time>
  <course>266.16</course>
  <speed>4.972333456235614</speed>
  <fix>3d</fix>
</trkpt>
<trkpt lat="40.0716432" lon="-105.2282541">
  <ele>1583.0</ele>
  <time>2026-08-28T17:54:17Z</time>
  <course>265.6</course>
  <speed>4.99</speed>
  <fix>3d</fix>
</trkpt>
<trkpt lat="40.0716427" lon="-105.2282675">
  <ele>1582.92</ele>
  <time>2026-08-28T17:54:17Z</time>
  <course>266.16</course>
  <speed>4.972333456235614</speed>
  <fix>3d</fix>
</trkpt>
<trkpt lat="40.0716432" lon="-105.2282541">
  <ele>1583.0</ele>
  <time>2026-08-28T17:54:17Z</time>
  <course>265.6</course>
  <speed>4.99</speed>
  <fix>3d</fix>
</trkpt>
<trkpt lat="40.0716423" lon="-105.2282746">
  <ele>1582.92</ele>
  <time>2026-08-28T17:54:17Z</time>
  <course>266.16</course>
  <speed>4.972333456235614</speed>
  <fix>3d</fix>
</trkpt>
<trkpt lat="40.0716425" lon="-105.2282658">
  <ele>1583.0</ele>
  <time>2026-08-28T17:54:17Z</time>
  <course>265.6</course>
  <speed>4.99</speed>
  <fix>3d</fix>
</trkpt>
<trkpt lat="40.0716419" lon="-105.2282804">
  <ele>1582.92</ele>
  <time>2026-08-28T17:54:17Z</time>
  <course>266.16</course>
  <speed>4.972333456235614</speed>
  <fix>3d</fix>
</trkpt>
<trkpt lat="40.0716425" lon="-105.2282658">
  <ele>1583.0</ele>
  <time>2026-08-28T17:54:17Z</time>
  <course>265.6</course>
  <speed>4.99</speed>
  <fix>3d</fix>
</trkpt>
<trkpt lat="40.0716416" lon="-105.2282863">
  <ele>1582.93</ele>
  <time>2026-08-28T17:54:17Z</time>
  <course>266.16</course>
  <speed>4.972333456235614</speed>
  <fix>3d</fix>
</trkpt>
<trkpt lat="40.0716418" lon="-105.2282775">
  <ele>1583.0</ele>
  <time>2026-08-28T17:54:17Z</time>
  <course>265.6</course>
  <speed>4.99</speed>
  <fix>3d</fix>
</trkpt>
<trkpt lat="40.0716412" lon="-105.2282922">
  <ele>1582.93</ele>
  <time>2026-08-28T17:54:17Z</time>
  <course>266.16</course>
  <speed>4.972333456235614</speed>
  <fix>3d</fix>
</trkpt>
<trkpt lat="40.0716418" lon="-105.2282775">
  <ele>1583.0</ele>
  <time>2026-08-28T17:54:17Z</time>
  <course>265.6</course>
  <speed>4.99</speed>
  <fix>3d</fix>
</trkpt>
<trkpt lat="40.0716409" lon="-105.2282981">
  <ele>1582.93</ele>
  <time>2026-08-28T17:54:17Z</time>
  <course>266.16</course>
  <speed>4.972333456235614</speed>
  <fix>3d</fix>
</trkpt>
<trkpt lat="40.0716411" lon="-105.2282892">
  <ele>1583.0</ele>
  <time>2026-08-28T17:54:17Z</time>
  <course>265.6</course>
  <speed>4.99</speed>
  <fix>3d</fix>
</trkpt>
<trkpt lat="40.0716406" lon="-105.2283039">
  <ele>1582.93</ele>
  <time>2026-08-28T17:54:17Z</time>
  <course>266.11</course>
  <speed>4.972333456235614</speed>
  <fix>3d</fix>
</trkpt>
<trkpt lat="40.0716411" lon="-105.2282892">
  <ele>1583.0</ele>
  <time>2026-08-28T17:54:17Z</time>
  <course>265.6</course>
  <speed>4.99</speed>
  <fix>3d</fix>
</trkpt>
<trkpt lat="40.0716402" lon="-105.2283097">
  <ele>1582.94</ele>
  <time>2026-08-28T17:54:17Z</time>
  <course>266.04</course>
  <speed>4.973047355495421</speed>
  <fix>3d</fix>
</trkpt>
<trkpt lat="40.0716404" lon="-105.2283009">
  <ele>1583.0</ele>
  <time>2026-08-28T17:54:17Z</time>
  <course>265.55</course>
  <speed>4.98</speed>
  <fix>3d</fix>
</trkpt>
<trkpt lat="40.0716398" lon="-105.2283155">
  <ele>1582.94</ele>
  <time>2026-08-28T17:54:17Z</time>
  <course>265.92</course>
  <speed>4.973781257755512</speed>
  <fix>3d</fix>
</trkpt>
<trkpt lat="40.0716404" lon="-105.2283009">
  <ele>1583.0</ele>
  <time>2026-08-28T17:54:17Z</time>
  <course>265.55</course>
  <speed>4.98</speed>
  <fix>3d</fix>
</trkpt>
<trkpt lat="40.0716395" lon="-105.2283213">
  <ele>1582.94</ele>
  <time>2026-08-28T17:54:17Z</time>
  <course>265.79</course>
  <speed>4.964564432052423</speed>
  <fix>3d</fix>
</trkpt>
<trkpt lat="40.0716397" lon="-105.2283126">
  <ele>1583.0</ele>
  <time>2026-08-28T17:54:17Z</time>
  <course>265.37</course>
  <speed>4.98</speed>
  <fix>3d</fix>
</trkpt>
<trkpt lat="40.0716391" lon="-105.228327">
  <ele>1582.94</ele>
  <time>2026-08-28T17:54:17Z</time>
  <course>265.58</course>
  <speed>4.9661353183335635</speed>
  <fix>3d</fix>
</trkpt>
<trkpt lat="40.0716397" lon="-105.2283126">
  <ele>1583.0</ele>
  <time>2026-08-28T17:54:17Z</time>
  <course>265.37</course>
  <speed>4.98</speed>
  <fix>3d</fix>
</trkpt>
<trkpt lat="40.0716387" lon="-105.2283328">
  <ele>1582.93</ele>
  <time>2026-08-28T17:54:17Z</time>
  <course>265.37</course>
  <speed>4.967786227284745</speed>
  <fix>3d</fix>
</trkpt>
<trkpt lat="40.071639" lon="-105.2283242">
  <ele>1583.0</ele>
  <time>2026-08-28T17:54:17Z</time>
  <course>265.05</course>
  <speed>4.98</speed>
  <fix>3d</fix>
</trkpt>
<trkpt lat="40.0716383" lon="-105.2283386">
  <ele>1582.93</ele>
  <time>2026-08-28T17:54:17Z</time>
  <course>265.1</course>
  <speed>4.959556431778955</speed>
  <fix>3d</fix>
</trkpt>
<trkpt lat="40.071639" lon="-105.2283242">
  <ele>1583.0</ele>
  <time>2026-08-28T17:54:17Z</time>
  <course>265.05</course>
  <speed>4.98</speed>
  <fix>3d</fix>
</trkpt>
<trkpt lat="40.0716378" lon="-105.2283444">
  <ele>1582.93</ele>
  <time>2026-08-28T17:54:17Z</time>
  <course>264.8</course>
  <speed>4.962307930791881</speed>
  <fix>3d</fix>
</trkpt>
<trkpt lat="40.0716381" lon="-105.2283359">
  <ele>1583.0</ele>
  <time>2026-08-28T17:54:17Z</time>
  <course>264.58</course>
  <speed>4.98</speed>
  <fix>3d</fix>
</trkpt>
<trkpt lat="40.0716375" lon="-105.228349">
  <ele>1582.93</ele>
  <time>2026-08-28T17:54:17Z</time>
  <course>264.53</course>
  <speed>4.964242137527138</speed>
  <fix>3d</fix>
</trkpt>
<trkpt lat="40.0716381" lon="-105.2283359">
  <ele>1583.0</ele>
  <time>2026-08-28T17:54:17Z</time>
  <course>264.58</course>
  <speed>4.98</speed>
  <fix>3d</fix>
</trkpt>
<trkpt lat="40.071637" lon="-105.2283548">
  <ele>1582.93</ele>
  <time>2026-08-28T17:54:17Z</time>
  <course>264.15</course>
  <speed>4.958407002253849</speed>
  <fix>3d</fix>
</trkpt>
<trkpt lat="40.0716373" lon="-105.2283475">
  <ele>1583.0</ele>
  <time>2026-08-28T17:54:17Z</time>
  <course>263.94</course>
  <speed>4.98</speed>
  <fix>3d</fix>
</trkpt>
<trkpt lat="40.0716364" lon="-105.2283606">
  <ele>1582.93</ele>
  <time>2026-08-28T17:54:17Z</time>
  <course>263.75</course>
  <speed>4.961703336556912</speed>
  <fix>3d</fix>
</trkpt>
<trkpt lat="40.0716373" lon="-105.2283475">
  <ele>1583.0</ele>
  <time>2026-08-28T17:54:17Z</time>
  <course>263.94</course>
  <speed>4.98</speed>
  <fix>3d</fix>
</trkpt>
<trkpt lat="40.0716359" lon="-105.2283664">
  <ele>1582.93</ele>
  <time>2026-08-28T17:54:17Z</time>
  <course>263.35</course>
  <speed>4.956450342735212</speed>
  <fix>3d</fix>
</trkpt>
<trkpt lat="40.0716363" lon="-105.2283592">
  <ele>1583.0</ele>
  <time>2026-08-28T17:54:17Z</time>
  <course>263.18</course>
  <speed>4.98</speed>
  <fix>3d</fix>
</trkpt>
<trkpt lat="40.0716353" lon="-105.2283722">
  <ele>1582.93</ele>
  <time>2026-08-28T17:54:17Z</time>
  <course>262.94</course>
  <speed>4.96017136800736</speed>
  <fix>3d</fix>
</trkpt>
<trkpt lat="40.0716363" lon="-105.2283592">
  <ele>1583.0</ele>
  <time>2026-08-28T17:54:17Z</time>
  <course>263.18</course>
  <speed>4.98</speed>
  <fix>3d</fix>
</trkpt>
<trkpt lat="40.0716347" lon="-105.228378">
  <ele>1582.93</ele>
  <time>2026-08-28T17:54:17Z</time>
  <course>262.54</course>
  <speed>4.955501992734944</speed>
  <fix>3d</fix>
</trkpt>
<trkpt lat="40.0716351" lon="-105.2283707">
  <ele>1583.0</ele>
  <time>2026-08-28T17:54:17Z</time>
  <course>262.37</course>
  <speed>4.98</speed>
  <fix>3d</fix>
</trkpt>
<trkpt lat="40.071634" lon="-105.2283839">
  <ele>1582.93</ele>
  <time>2026-08-28T17:54:17Z</time>
  <course>262.13</course>
  <speed>4.949747468305833</speed>
  <fix>3d</fix>
</trkpt>
<trkpt lat="40.0716351" lon="-105.2283707">
  <ele>1583.0</ele>
  <time>2026-08-28T17:54:17Z</time>
  <course>262.37</course>
  <speed>4.98</speed>
  <fix>3d</fix>
</trkpt>
<trkpt lat="40.0716333" lon="-105.2283897">
  <ele>1582.93</ele>
  <time>2026-08-28T17:54:17Z</time>
  <course>261.73</course>
  <speed>4.9456748781131985</speed>
  <fix>3d</fix>
</trkpt>
<trkpt lat="40.0716339" lon="-105.2283823">
  <ele>1583.0</ele>
  <time>2026-08-28T17:54:17Z</time>
  <course>261.56</course>
  <speed>4.97</speed>
  <fix>3d</fix>
</trkpt>
<trkpt lat="40.0716325" lon="-105.2283967">
  <ele>1582.93</ele>
  <time>2026-08-28T17:54:17Z</time>
  <course>261.24</course>
  <speed>4.941942937752317</speed>
  <fix>3d</fix>
</trkpt>
<trkpt lat="40.0716339" lon="-105.2283823">
  <ele>1583.0</ele>
  <time>2026-08-28T17:54:17Z</time>
  <course>261.56</course>
  <speed>4.97</speed>
  <fix>3d</fix>
</trkpt>
<trkpt lat="40.0716317" lon="-105.2284025">
  <ele>1582.93</ele>
  <time>2026-08-28T17:54:17Z</time>
  <course>260.84</course>
  <speed>4.93690186250446</speed>
  <fix>3d</fix>
</trkpt>
<trkpt lat="40.0716326" lon="-105.2283939">
  <ele>1583.0</ele>
  <time>2026-08-28T17:54:17Z</time>
  <course>260.75</course>
  <speed>4.96</speed>
  <fix>3d</fix>
</trkpt>
<trkpt lat="40.0716309" lon="-105.2284082">
  <ele>1582.92</ele>
  <time>2026-08-28T17:54:17Z</time>
  <course>260.44</course>
  <speed>4.933771376948875</speed>
  <fix>3d</fix>
</trkpt>
<trkpt lat="40.0716326" lon="-105.2283939">
  <ele>1583.0</ele>
  <time>2026-08-28T17:54:17Z</time>
  <course>260.75</course>
  <speed>4.96</speed>
  <fix>3d</fix>
</trkpt>
<trkpt lat="40.0716301" lon="-105.228414">
  <ele>1582.92</ele>
  <time>2026-08-28T17:54:17Z</time>
  <course>260.04</course>
  <speed>4.929188574197583</speed>
  <fix>3d</fix>
</trkpt>
<trkpt lat="40.0716311" lon="-105.2284053">
  <ele>1583.0</ele>
  <time>2026-08-28T17:54:17Z</time>
  <course>259.94</course>
  <speed>4.95</speed>
  <fix>3d</fix>
</trkpt>
<trkpt lat="40.0716293" lon="-105.2284197">
  <ele>1582.92</ele>
  <time>2026-08-28T17:54:17Z</time>
  <course>259.64</course>
  <speed>4.924804564650256</speed>
  <fix>3d</fix>
</trkpt>
<trkpt lat="40.0716311" lon="-105.2284053">
  <ele>1583.0</ele>
  <time>2026-08-28T17:54:17Z</time>
  <course>259.94</course>
  <speed>4.95</speed>
  <fix>3d</fix>
</trkpt>
<trkpt lat="40.0716284" lon="-105.2284254">
  <ele>1582.92</ele>
  <time>2026-08-28T17:54:17Z</time>
  <course>259.24</course>
  <speed>4.922539994758804</speed>
  <fix>3d</fix>
</trkpt>
<trkpt lat="40.0716294" lon="-105.2284168">
  <ele>1583.0</ele>
  <time>2026-08-28T17:54:17Z</time>
  <course>259.14</course>
  <speed>4.93</speed>
  <fix>3d</fix>
</trkpt>
<trkpt lat="40.0716275" lon="-105.2284311">
  <ele>1582.92</ele>
  <time>2026-08-28T17:54:17Z</time>
  <course>258.84</course>
  <speed>4.90881859514079</speed>
  <fix>3d</fix>
</trkpt>
<trkpt lat="40.0716294" lon="-105.2284168">
  <ele>1583.0</ele>
  <time>2026-08-28T17:54:17Z</time>
  <course>259.14</course>
  <speed>4.93</speed>
  <fix>3d</fix>
</trkpt>
<trkpt lat="40.0716266" lon="-105.2284367">
  <ele>1582.91</ele>
  <time>2026-08-28T17:54:17Z</time>
  <course>258.44</course>
  <speed>4.90510958083507</speed>
  <fix>3d</fix>
</trkpt>
<trkpt lat="40.0716276" lon="-105.2284282">
  <ele>1583.0</ele>
  <time>2026-08-28T17:54:17Z</time>
  <course>258.33</course>
  <speed>4.92</speed>
  <fix>3d</fix>
</trkpt>
<trkpt lat="40.0716256" lon="-105.2284423">
  <ele>1582.91</ele>
  <time>2026-08-28T17:54:17Z</time>
  <course>258.04</course>
  <speed>4.893965672131344</speed>
  <fix>3d</fix>
</trkpt>
<trkpt lat="40.0716276" lon="-105.2284282">
  <ele>1583.0</ele>
  <time>2026-08-28T17:54:17Z</time>
  <course>258.33</course>
  <speed>4.92</speed>
  <fix>3d</fix>
</trkpt>
<trkpt lat="40.0716247" lon="-105.2284479">
  <ele>1582.91</ele>
  <time>2026-08-28T17:54:17Z</time>
  <course>257.64</course>
  <speed>4.890736140909669</speed>
  <fix>3d</fix>
</trkpt>
<trkpt lat="40.0716258" lon="-105.2284395">
  <ele>1583.0</ele>
  <time>2026-08-28T17:54:17Z</time>
  <course>257.53</course>
  <speed>4.91</speed>
  <fix>3d</fix>
</trkpt>
<trkpt lat="40.0716236" lon="-105.2284534">
  <ele>1582.91</ele>
  <time>2026-08-28T17:54:17Z</time>
  <course>257.22</course>
  <speed>4.887709074812044</speed>
  <fix>3d</fix>
</trkpt>
<trkpt lat="40.0716258" lon="-105.2284395">
  <ele>1583.0</ele>
  <time>2026-08-28T17:54:17Z</time>
  <course>257.53</course>
  <speed>4.91</speed>
  <fix>3d</fix>
</trkpt>
<trkpt lat="40.0716226" lon="-105.228459">
  <ele>1582.91</ele>
  <time>2026-08-28T17:54:17Z</time>
  <course>256.79</course>
  <speed>4.877509610446708</speed>
  <fix>3d</fix>
</trkpt>
<trkpt lat="40.0716239" lon="-105.2284507">
  <ele>1583.0</ele>
  <time>2026-08-28T17:54:17Z</time>
  <course>256.71</course>
  <speed>4.9</speed>
  <fix>3d</fix>
</trkpt>
<trkpt lat="40.0716215" lon="-105.2284645">
  <ele>1582.91</ele>
  <time>2026-08-28T17:54:17Z</time>
  <course>256.38</course>
  <speed>4.874966666552706</speed>
  <fix>3d</fix>
</trkpt>
<trkpt lat="40.0716239" lon="-105.2284507">
  <ele>1583.0</ele>
  <time>2026-08-28T17:54:17Z</time>
  <course>256.71</course>
  <speed>4.9</speed>
  <fix>3d</fix>
</trkpt>
<trkpt lat="40.0716207" lon="-105.2284689">
  <ele>1582.91</ele>
  <time>2026-08-28T17:54:17Z</time>
  <course>256.02</course>
  <speed>4.872627627882106</speed>
  <fix>3d</fix>
</trkpt>
<trkpt lat="40.0716218" lon="-105.2284618">
  <ele>1583.0</ele>
  <time>2026-08-28T17:54:17Z</time>
  <course>255.86</course>
  <speed>4.9</speed>
  <fix>3d</fix>
</trkpt>
<trkpt lat="40.0716195" lon="-105.2284745">
  <ele>1582.91</ele>
  <time>2026-08-28T17:54:17Z</time>
  <course>255.62</course>
  <speed>4.873048327279343</speed>
  <fix>3d</fix>
</trkpt>
<trkpt lat="40.0716218" lon="-105.2284618">
  <ele>1583.0</ele>
  <time>2026-08-28T17:54:17Z</time>
  <course>255.86</course>
  <speed>4.9</speed>
  <fix>3d</fix>
</trkpt>
<trkpt lat="40.0716184" lon="-105.22848">
  <ele>1582.91</ele>
  <time>2026-08-28T17:54:17Z</time>
  <course>255.19</course>
  <speed>4.871180555060549</speed>
  <fix>3d</fix>
</trkpt>
<trkpt lat="40.0716196" lon="-105.228473">
  <ele>1583.0</ele>
  <time>2026-08-28T17:54:17Z</time>
  <course>255.01</course>
  <speed>4.9</speed>
  <fix>3d</fix>
</trkpt>
<trkpt lat="40.0716172" lon="-105.2284856">
  <ele>1582.91</ele>
  <time>2026-08-28T17:54:17Z</time>
  <course>254.77</course>
  <speed>4.881843913932522</speed>
  <fix>3d</fix>
</trkpt>
<trkpt lat="40.0716196" lon="-105.228473">
  <ele>1583.0</ele>
  <time>2026-08-28T17:54:17Z</time>
  <course>255.01</course>
  <speed>4.9</speed>
  <fix>3d</fix>
</trkpt>
<trkpt lat="40.0716159" lon="-105.2284911">
  <ele>1582.91</ele>
  <time>2026-08-28T17:54:17Z</time>
  <course>254.36</course>
  <speed>4.880430308896952</speed>
  <fix>3d</fix>
</trkpt>
<trkpt lat="40.0716173" lon="-105.2284841">
  <ele>1583.0</ele>
  <time>2026-08-28T17:54:17Z</time>
  <course>254.18</course>
  <speed>4.9</speed>
  <fix>3d</fix>
</trkpt>
<trkpt lat="40.0716147" lon="-105.2284967">
  <ele>1582.91</ele>
  <time>2026-08-28T17:54:17Z</time>
  <course>253.92</course>
  <speed>4.882058991859889</speed>
  <fix>3d</fix>
</trkpt>
<trkpt lat="40.0716173" lon="-105.2284841">
  <ele>1583.0</ele>
  <time>2026-08-28T17:54:17Z</time>
  <course>254.18</course>
  <speed>4.9</speed>
  <fix>3d</fix>
</trkpt>
<trkpt lat="40.0716134" lon="-105.2285022">
  <ele>1582.91</ele>
  <time>2026-08-28T17:54:17Z</time>
  <course>253.51</course>
  <speed>4.890685023593321</speed>
  <fix>3d</fix>
</trkpt>
<trkpt lat="40.0716148" lon="-105.2284952">
  <ele>1583.0</ele>
  <time>2026-08-28T17:54:17Z</time>
  <course>253.33</course>
  <speed>4.9</speed>
  <fix>3d</fix>
</trkpt>
<trkpt lat="40.071612" lon="-105.2285078">
  <ele>1582.91</ele>
  <time>2026-08-28T17:54:17Z</time>
  <course>253.09</course>
  <speed>4.892903023768201</speed>
  <fix>3d</fix>
</trkpt>
<trkpt lat="40.0716148" lon="-105.2284952">
  <ele>1583.0</ele>
  <time>2026-08-28T17:54:17Z</time>
  <course>253.33</course>
  <speed>4.9</speed>
  <fix>3d</fix>
</trkpt>
<trkpt lat="40.0716104" lon="-105.2285144">
  <ele>1582.91</ele>
  <time>2026-08-28T17:54:17Z</time>
  <course>252.57</course>
  <speed>4.8985405989947655</speed>
  <fix>3d</fix>
</trkpt>
<trkpt lat="40.0716122" lon="-105.2285062">
  <ele>1583.0</ele>
  <time>2026-08-28T17:54:17Z</time>
  <course>252.47</course>
  <speed>4.91</speed>
  <fix>3d</fix>
</trkpt>
<trkpt lat="40.071609" lon="-105.22852">
  <ele>1582.91</ele>
  <time>2026-08-28T17:54:17Z</time>
  <course>252.16</course>
  <speed>4.89837728232524</speed>
  <fix>3d</fix>
</trkpt>
<trkpt lat="40.0716122" lon="-105.2285062">
  <ele>1583.0</ele>
  <time>2026-08-28T17:54:17Z</time>
  <course>252.47</course>
  <speed>4.91</speed>
  <fix>3d</fix>
</trkpt>
<trkpt lat="40.0716075" lon="-105.2285255">
  <ele>1582.91</ele>
  <time>2026-08-28T17:54:17Z</time>
  <course>251.75</course>
  <speed>4.907891604344986</speed>
  <fix>3d</fix>
</trkpt>
<trkpt lat="40.0716094" lon="-105.2285172">
  <ele>1583.0</ele>
  <time>2026-08-28T17:54:17Z</time>
  <course>251.63</course>
  <speed>4.91</speed>
  <fix>3d</fix>
</trkpt>
<trkpt lat="40.0716061" lon="-105.228531">
  <ele>1582.91</ele>
  <time>2026-08-28T17:54:17Z</time>
  <course>251.33</course>
  <speed>4.911384733453489</speed>
  <fix>3d</fix>
</trkpt>
<trkpt lat="40.0716094" lon="-105.2285172">
  <ele>1583.0</ele>
  <time>2026-08-28T17:54:17Z</time>
  <course>251.63</course>
  <speed>4.91</speed>
  <fix>3d</fix>
</trkpt>
<trkpt lat="40.0716046" lon="-105.2285364">
  <ele>1582.91</ele>
  <time>2026-08-28T17:54:17Z</time>
  <course>250.89</course>
  <speed>4.915221256464453</speed>
  <fix>3d</fix>
</trkpt>
<trkpt lat="40.0716066" lon="-105.2285281">
  <ele>1583.0</ele>
  <time>2026-08-28T17:54:17Z</time>
  <course>250.78</course>
  <speed>4.92</speed>
  <fix>3d</fix>
</trkpt>
<trkpt lat="40.0716031" lon="-105.2285418">
  <ele>1582.91</ele>
  <time>2026-08-28T17:54:17Z</time>
  <course>250.49</course>
  <speed>4.9159739625022425</speed>
  <fix>3d</fix>
</trkpt>
<trkpt lat="40.0716066" lon="-105.2285281">
  <ele>1583.0</ele>
  <time>2026-08-28T17:54:17Z</time>
  <course>250.78</course>
  <speed>4.92</speed>
  <fix>3d</fix>
</trkpt>
<trkpt lat="40.0716015" lon="-105.2285472">
  <ele>1582.91</ele>
  <time>2026-08-28T17:54:17Z</time>
  <course>250.06</course>
  <speed>4.920416649024755</speed>
  <fix>3d</fix>
</trkpt>
<trkpt lat="40.0716037" lon="-105.228539">
  <ele>1583.0</ele>
  <time>2026-08-28T17:54:17Z</time>
  <course>249.94</course>
  <speed>4.92</speed>
  <fix>3d</fix>
</trkpt>
<trkpt lat="40.0715999" lon="-105.2285526">
  <ele>1582.91</ele>
  <time>2026-08-28T17:54:17Z</time>
  <course>249.64</course>
  <speed>4.912290708009859</speed>
  <fix>3d</fix>
</trkpt>
<trkpt lat="40.0716037" lon="-105.228539">
  <ele>1583.0</ele>
  <time>2026-08-28T17:54:17Z</time>
  <course>249.94</course>
  <speed>4.92</speed>
  <fix>3d</fix>
</trkpt>
<trkpt lat="40.0715983" lon="-105.228558">
  <ele>1582.91</ele>
  <time>2026-08-28T17:54:17Z</time>
  <course>249.24</course>
  <speed>4.913735849636201</speed>
  <fix>3d</fix>
</trkpt>
<trkpt lat="40.0716005" lon="-105.2285498">
  <ele>1583.0</ele>
  <time>2026-08-28T17:54:17Z</time>
  <course>249.1</course>
  <speed>4.93</speed>
  <fix>3d</fix>
</trkpt>
<trkpt lat="40.0715967" lon="-105.2285633">
  <ele>1582.91</ele>
  <time>2026-08-28T17:54:17Z</time>
  <course>248.81</course>
  <speed>4.9190751163201405</speed>
  <fix>3d</fix>
</trkpt>
<trkpt lat="40.0716005" lon="-105.2285498">
  <ele>1583.0</ele>
  <time>2026-08-28T17:54:17Z</time>
  <course>249.1</course>
  <speed>4.93</speed>
  <fix>3d</fix>
</trkpt>
<trkpt lat="40.0715951" lon="-105.2285686">
  <ele>1582.91</ele>
  <time>2026-08-28T17:54:17Z</time>
  <course>248.38</course>
  <speed>4.924753800952896</speed>
  <fix>3d</fix>
</trkpt>
<trkpt lat="40.0715973" lon="-105.2285607">
  <ele>1583.0</ele>
  <time>2026-08-28T17:54:17Z</time>
  <course>248.26</course>
  <speed>4.94</speed>
  <fix>3d</fix>
</trkpt>
<trkpt lat="40.0715934" lon="-105.2285739">
  <ele>1582.91</ele>
  <time>2026-08-28T17:54:17Z</time>
  <course>247.98</course>
  <speed>4.926926019334976</speed>
  <fix>3d</fix>
</trkpt>
<trkpt lat="40.0715973" lon="-105.2285607">
  <ele>1583.0</ele>
  <time>2026-08-28T17:54:17Z</time>
  <course>248.26</course>
  <speed>4.94</speed>
  <fix>3d</fix>
</trkpt>
<trkpt lat="40.0715916" lon="-105.2285792">
  <ele>1582.9</ele>
  <time>2026-08-28T17:54:17Z</time>
  <course>247.56</course>
  <speed>4.942408319837607</speed>
  <fix>3d</fix>
</trkpt>
<trkpt lat="40.071594" lon="-105.2285714">
  <ele>1583.0</ele>
  <time>2026-08-28T17:54:17Z</time>
  <course>247.42</course>
  <speed>4.95</speed>
  <fix>3d</fix>
</trkpt>
<trkpt lat="40.0715902" lon="-105.2285835">
  <ele>1582.9</ele>
  <time>2026-08-28T17:54:17Z</time>
  <course>247.24</course>
  <speed>4.941062638744827</speed>
  <fix>3d</fix>
</trkpt>
<trkpt lat="40.071594" lon="-105.2285714">
  <ele>1583.0</ele>
  <time>2026-08-28T17:54:17Z</time>
  <course>247.42</course>
  <speed>4.95</speed>
  <fix>3d</fix>
</trkpt>
<trkpt lat="40.0715884" lon="-105.2285888">
  <ele>1582.9</ele>
  <time>2026-08-28T17:54:17Z</time>
  <course>246.85</course>
  <speed>4.947827806219614</speed>
  <fix>3d</fix>
</trkpt>
<trkpt lat="40.0715905" lon="-105.2285821">
  <ele>1583.0</ele>
  <time>2026-08-28T17:54:17Z</time>
  <course>246.61</course>
  <speed>4.97</speed>
  <fix>3d</fix>
</trkpt>
<trkpt lat="40.0715866" lon="-105.2285942">
  <ele>1582.9</ele>
  <time>2026-08-28T17:54:17Z</time>
  <course>246.51</course>
  <speed>4.9599697579723205</speed>
  <fix>3d</fix>
</trkpt>
<trkpt lat="40.0715905" lon="-105.2285821">
  <ele>1583.0</ele>
  <time>2026-08-28T17:54:17Z</time>
  <course>246.61</course>
  <speed>4.97</speed>
  <fix>3d</fix>
</trkpt>
<trkpt lat="40.0715848" lon="-105.2285995">
  <ele>1582.9</ele>
  <time>2026-08-28T17:54:17Z</time>
  <course>246.22</course>
  <speed>4.968148548503758</speed>
  <fix>3d</fix>
</trkpt>
<trkpt lat="40.0715869" lon="-105.2285928">
  <ele>1583.0</ele>
  <time>2026-08-28T17:54:17Z</time>
  <course>245.9</course>
  <speed>4.98</speed>
  <fix>3d</fix>
</trkpt>
<trkpt lat="40.0715829" lon="-105.2286048">
  <ele>1582.89</ele>
  <time>2026-08-28T17:54:17Z</time>
  <course>245.95</course>
  <speed>4.980542139165173</speed>
  <fix>3d</fix>
</trkpt>
<trkpt lat="40.0715869" lon="-105.2285928">
  <ele>1583.0</ele>
  <time>2026-08-28T17:54:17Z</time>
  <course>245.9</course>
  <speed>4.98</speed>
  <fix>3d</fix>
</trkpt>
<trkpt lat="40.071581" lon="-105.2286102">
  <ele>1582.89</ele>
  <time>2026-08-28T17:54:17Z</time>
  <course>245.75</course>
  <speed>4.979809233293983</speed>
  <fix>3d</fix>
</trkpt>
<trkpt lat="40.0715832" lon="-105.2286035">
  <ele>1583.0</ele>
  <time>2026-08-28T17:54:17Z</time>
  <course>245.34</course>
  <speed>5.0</speed>
  <fix>3d</fix>
</trkpt>
<trkpt lat="40.0715791" lon="-105.2286156">
  <ele>1582.89</ele>
  <time>2026-08-28T17:54:17Z</time>
  <course>245.58</course>
  <speed>4.9882361612096915</speed>
  <fix>3d</fix>
</trkpt>
<trkpt lat="40.0715832" lon="-105.2286035">
  <ele>1583.0</ele>
  <time>2026-08-28T17:54:17Z</time>
  <course>245.34</course>
  <speed>5.0</speed>
  <fix>3d</fix>
</trkpt>
<trkpt lat="40.0715771" lon="-105.228621">
  <ele>1582.89</ele>
  <time>2026-08-28T17:54:17Z</time>
  <course>245.44</course>
  <speed>4.9924743364387965</speed>
  <fix>3d</fix>
</trkpt>
<trkpt lat="40.0715794" lon="-105.2286142">
  <ele>1583.0</ele>
  <time>2026-08-28T17:54:17Z</time>
  <course>244.95</course>
  <speed>5.01</speed>
  <fix>3d</fix>
</trkpt>
<trkpt lat="40.0715748" lon="-105.2286274">
  <ele>1582.89</ele>
  <time>2026-08-28T17:54:17Z</time>
  <course>245.34</course>
  <speed>5.005776663016439</speed>
  <fix>3d</fix>
</trkpt>
<trkpt lat="40.0715794" lon="-105.2286142">
  <ele>1583.0</ele>
  <time>2026-08-28T17:54:17Z</time>
  <course>244.95</course>
  <speed>5.01</speed>
  <fix>3d</fix>
</trkpt>
<trkpt lat="40.0715728" lon="-105.2286328">
  <ele>1582.89</ele>
  <time>2026-08-28T17:54:17Z</time>
  <course>245.29</course>
  <speed>5.005776663016439</speed>
  <fix>3d</fix>
</trkpt>
<trkpt lat="40.0715755" lon="-105.2286248">
  <ele>1583.0</ele>
  <time>2026-08-28T17:54:17Z</time>
  <course>244.71</course>
  <speed>5.02</speed>
  <fix>3d</fix>
</trkpt>
<trkpt lat="40.0715709" lon="-105.2286382">
  <ele>1582.89</ele>
  <time>2026-08-28T17:54:17Z</time>
  <course>245.29</course>
  <speed>5.005776663016439</speed>
  <fix>3d</fix>
</trkpt>
<trkpt lat="40.0715755" lon="-105.2286248">
  <ele>1583.0</ele>
  <time>2026-08-28T17:54:17Z</time>
  <course>244.71</course>
  <speed>5.02</speed>
  <fix>3d</fix>
</trkpt>
<trkpt lat="40.0715689" lon="-105.2286435">
  <ele>1582.89</ele>
  <time>2026-08-28T17:54:17Z</time>
  <course>245.29</course>
  <speed>5.005776663016439</speed>
  <fix>3d</fix>
</trkpt>
<trkpt lat="40.0715717" lon="-105.2286355">
  <ele>1583.0</ele>
  <time>2026-08-28T17:54:17Z</time>
  <course>244.63</course>
  <speed>5.02</speed>
  <fix>3d</fix>
</trkpt>
<trkpt lat="40.071567" lon="-105.2286489">
  <ele>1582.9</ele>
  <time>2026-08-28T17:54:17Z</time>
  <course>245.29</course>
  <speed>5.005776663016439</speed>
  <fix>3d</fix>
</trkpt>
<trkpt lat="40.0715717" lon="-105.2286355">
  <ele>1583.0</ele>
  <time>2026-08-28T17:54:17Z</time>
  <course>244.63</course>
  <speed>5.02</speed>
  <fix>3d</fix>
</trkpt>
<trkpt lat="40.071565" lon="-105.2286542">
  <ele>1582.9</ele>
  <time>2026-08-28T17:54:17Z</time>
  <course>245.3</course>
  <speed>5.005776663016439</speed>
  <fix>3d</fix>
</trkpt>
<trkpt lat="40.0715678" lon="-105.2286461">
  <ele>1583.0</ele>
  <time>2026-08-28T17:54:17Z</time>
  <course>244.63</course>
  <speed>5.02</speed>
  <fix>3d</fix>
</trkpt>
<trkpt lat="40.0715631" lon="-105.2286595">
  <ele>1582.9</ele>
  <time>2026-08-28T17:54:17Z</time>
  <course>245.3</course>
  <speed>4.9967289300101125</speed>
  <fix>3d</fix>
</trkpt>
<trkpt lat="40.0715678" lon="-105.2286461">
  <ele>1583.0</ele>
  <time>2026-08-28T17:54:17Z</time>
  <course>244.63</course>
  <speed>5.02</speed>
  <fix>3d</fix>
</trkpt>
<trkpt lat="40.0715612" lon="-105.2286648">
  <ele>1582.9</ele>
  <time>2026-08-28T17:54:17Z</time>
  <course>245.3</course>
  <speed>4.9967289300101125</speed>
  <fix>3d</fix>
</trkpt>
<trkpt lat="40.0715639" lon="-105.2286568">
  <ele>1583.0</ele>
  <time>2026-08-28T17:54:17Z</time>
  <course>244.63</course>
  <speed>5.02</speed>
  <fix>3d</fix>
</trkpt>
<trkpt lat="40.0715593" lon="-105.2286701">
  <ele>1582.9</ele>
  <time>2026-08-28T17:54:17Z</time>
  <course>245.3</course>
  <speed>4.9967289300101125</speed>
  <fix>3d</fix>
</trkpt>
<trkpt lat="40.0715639" lon="-105.2286568">
  <ele>1583.0</ele>
  <time>2026-08-28T17:54:17Z</time>
  <course>244.63</course>
  <speed>5.02</speed>
  <fix>3d</fix>
</trkpt>
<trkpt lat="40.0715573" lon="-105.2286754">
  <ele>1582.9</ele>
  <time>2026-08-28T17:54:17Z</time>
  <course>245.3</course>
  <speed>4.9834225187114125</speed>
  <fix>3d</fix>
</trkpt>
<trkpt lat="40.0715601" lon="-105.2286675">
  <ele>1583.0</ele>
  <time>2026-08-28T17:54:17Z</time>
  <course>244.63</course>
  <speed>5.01</speed>
  <fix>3d</fix>
</trkpt>
<trkpt lat="40.0715554" lon="-105.2286806">
  <ele>1582.9</ele>
  <time>2026-08-28T17:54:17Z</time>
  <course>245.3</course>
  <speed>4.9834225187114125</speed>
  <fix>3d</fix>
</trkpt>
<trkpt lat="40.0715601" lon="-105.2286675">
  <ele>1583.0</ele>
  <time>2026-08-28T17:54:17Z</time>
  <course>244.63</course>
  <speed>5.01</speed>
  <fix>3d</fix>
</trkpt>
<trkpt lat="40.0715535" lon="-105.2286859">
  <ele>1582.9</ele>
  <time>2026-08-28T17:54:17Z</time>
  <course>245.3</course>
  <speed>4.9834225187114125</speed>
  <fix>3d</fix>
</trkpt>
<trkpt lat="40.0715563" lon="-105.2286781">
  <ele>1583.0</ele>
  <time>2026-08-28T17:54:17Z</time>
  <course>244.63</course>
  <speed>5.01</speed>
  <fix>3d</fix>
</trkpt>
<trkpt lat="40.0715516" lon="-105.2286912">
  <ele>1582.9</ele>
  <time>2026-08-28T17:54:17Z</time>
  <course>245.3</course>
  <speed>4.974374332516603</speed>
  <fix>3d</fix>
</trkpt>
<trkpt lat="40.0715563" lon="-105.2286781">
  <ele>1583.0</ele>
  <time>2026-08-28T17:54:17Z</time>
  <course>244.63</course>
  <speed>5.01</speed>
  <fix>3d</fix>
</trkpt>
<trkpt lat="40.0715501" lon="-105.2286954">
  <ele>1582.9</ele>
  <time>2026-08-28T17:54:17Z</time>
  <course>245.29</course>
  <speed>4.974374332516603</speed>
  <fix>3d</fix>
</trkpt>
<trkpt lat="40.0715524" lon="-105.2286887">
  <ele>1583.0</ele>
  <time>2026-08-28T17:54:17Z</time>
  <course>244.62</course>
  <speed>5.0</speed>
  <fix>3d</fix>
</trkpt>
<trkpt lat="40.0715482" lon="-105.2287007">
  <ele>1582.9</ele>
  <time>2026-08-28T17:54:17Z</time>
  <course>245.29</course>
  <speed>4.974374332516603</speed>
  <fix>3d</fix>
</trkpt>
<trkpt lat="40.0715524" lon="-105.2286887">
  <ele>1583.0</ele>
  <time>2026-08-28T17:54:17Z</time>
  <course>244.62</course>
  <speed>5.0</speed>
  <fix>3d</fix>
</trkpt>
<trkpt lat="40.0715462" lon="-105.228706">
  <ele>1582.9</ele>
  <time>2026-08-28T17:54:17Z</time>
  <course>245.29</course>
  <speed>4.974374332516603</speed>
  <fix>3d</fix>
</trkpt>
<trkpt lat="40.0715485" lon="-105.2286994">
  <ele>1583.0</ele>
  <time>2026-08-28T17:54:17Z</time>
  <course>244.61</course>
  <speed>5.0</speed>
  <fix>3d</fix>
</trkpt>
<trkpt lat="40.0715443" lon="-105.2287113">
  <ele>1582.9</ele>
  <time>2026-08-28T17:54:17Z</time>
  <course>245.28</course>
  <speed>4.974374332516603</speed>
  <fix>3d</fix>
</trkpt>
<trkpt lat="40.0715485" lon="-105.2286994">
  <ele>1583.0</ele>
  <time>2026-08-28T17:54:17Z</time>
  <course>244.61</course>
  <speed>5.0</speed>
  <fix>3d</fix>
</trkpt>
<trkpt lat="40.0715424" lon="-105.2287167">
  <ele>1582.9</ele>
  <time>2026-08-28T17:54:17Z</time>
  <course>245.28</course>
  <speed>4.974374332516603</speed>
  <fix>3d</fix>
</trkpt>
<trkpt lat="40.0715446" lon="-105.2287099">
  <ele>1583.0</ele>
  <time>2026-08-28T17:54:17Z</time>
  <course>244.61</course>
  <speed>5.0</speed>
  <fix>3d</fix>
</trkpt>
<trkpt lat="40.0715404" lon="-105.228722">
  <ele>1582.9</ele>
  <time>2026-08-28T17:54:17Z</time>
  <course>245.28</course>
  <speed>4.974374332516603</speed>
  <fix>3d</fix>
</trkpt>
<trkpt lat="40.0715446" lon="-105.2287099">
  <ele>1583.0</ele>
  <time>2026-08-28T17:54:17Z</time>
  <course>244.61</course>
  <speed>5.0</speed>
  <fix>3d</fix>
</trkpt>
<trkpt lat="40.0715385" lon="-105.2287273">
  <ele>1582.9</ele>
  <time>2026-08-28T17:54:17Z</time>
  <course>245.27</course>
  <speed>4.9834225187114125</speed>
  <fix>3d</fix>
</trkpt>
<trkpt lat="40.0715408" lon="-105.2287206">
  <ele>1583.0</ele>
  <time>2026-08-28T17:54:17Z</time>
  <course>244.59</course>
  <speed>5.0</speed>
  <fix>3d</fix>
</trkpt>
<trkpt lat="40.0715362" lon="-105.2287338">
  <ele>1582.9</ele>
  <time>2026-08-28T17:54:17Z</time>
  <course>245.27</course>
  <speed>4.9834225187114125</speed>
  <fix>3d</fix>
</trkpt>
<trkpt lat="40.0715408" lon="-105.2287206">
  <ele>1583.0</ele>
  <time>2026-08-28T17:54:17Z</time>
  <course>244.59</course>
  <speed>5.0</speed>
  <fix>3d</fix>
</trkpt>
<trkpt lat="40.0715342" lon="-105.2287391">
  <ele>1582.9</ele>
  <time>2026-08-28T17:54:17Z</time>
  <course>245.27</course>
  <speed>4.9834225187114125</speed>
  <fix>3d</fix>
</trkpt>
<trkpt lat="40.071537" lon="-105.2287312">
  <ele>1583.0</ele>
  <time>2026-08-28T17:54:17Z</time>
  <course>244.59</course>
  <speed>5.0</speed>
  <fix>3d</fix>
</trkpt>
<trkpt lat="40.0715323" lon="-105.2287445">
  <ele>1582.9</ele>
  <time>2026-08-28T17:54:17Z</time>
  <course>245.27</course>
  <speed>4.9834225187114125</speed>
  <fix>3d</fix>
</trkpt>
<trkpt lat="40.071537" lon="-105.2287312">
  <ele>1583.0</ele>
  <time>2026-08-28T17:54:17Z</time>
  <course>244.59</course>
  <speed>5.0</speed>
  <fix>3d</fix>
</trkpt>
<trkpt lat="40.0715304" lon="-105.2287498">
  <ele>1582.9</ele>
  <time>2026-08-28T17:54:17Z</time>
  <course>245.26</course>
  <speed>4.974374332516603</speed>
  <fix>3d</fix>
</trkpt>
<trkpt lat="40.0715331" lon="-105.2287418">
  <ele>1583.0</ele>
  <time>2026-08-28T17:54:17Z</time>
  <course>244.58</course>
  <speed>5.0</speed>
  <fix>3d</fix>
</trkpt>
<trkpt lat="40.0715284" lon="-105.2287552">
  <ele>1582.9</ele>
  <time>2026-08-28T17:54:17Z</time>
  <course>245.26</course>
  <speed>4.974374332516603</speed>
  <fix>3d</fix>
</trkpt>
<trkpt lat="40.0715331" lon="-105.2287418">
  <ele>1583.0</ele>
  <time>2026-08-28T17:54:17Z</time>
  <course>244.58</course>
  <speed>5.0</speed>
  <fix>3d</fix>
</trkpt>
<trkpt lat="40.0715265" lon="-105.2287605">
  <ele>1582.9</ele>
  <time>2026-08-28T17:54:17Z</time>
  <course>245.26</course>
  <speed>4.970120722879878</speed>
  <fix>3d</fix>
</trkpt>
<trkpt lat="40.0715292" lon="-105.2287524">
  <ele>1583.0</ele>
  <time>2026-08-28T17:54:17Z</time>
  <course>244.57</course>
  <speed>4.99</speed>
  <fix>3d</fix>
</trkpt>
<trkpt lat="40.0715246" lon="-105.2287657">
  <ele>1582.9</ele>
  <time>2026-08-28T17:54:17Z</time>
  <course>245.26</course>
  <speed>4.970120722879878</speed>
  <fix>3d</fix>
</trkpt>
<trkpt lat="40.0715292" lon="-105.2287524">
  <ele>1583.0</ele>
  <time>2026-08-28T17:54:17Z</time>
  <course>244.57</course>
  <speed>4.99</speed>
  <fix>3d</fix>
</trkpt>
<trkpt lat="40.0715227" lon="-105.228771">
  <ele>1582.9</ele>
  <time>2026-08-28T17:54:17Z</time>
  <course>245.25</course>
  <speed>4.970120722879878</speed>
  <fix>3d</fix>
</trkpt>
<trkpt lat="40.0715254" lon="-105.2287631">
  <ele>1583.0</ele>
  <time>2026-08-28T17:54:17Z</time>
  <course>244.57</course>
  <speed>4.99</speed>
  <fix>3d</fix>
</trkpt>
<trkpt lat="40.0715208" lon="-105.2287763">
  <ele>1582.9</ele>
  <time>2026-08-28T17:54:17Z</time>
  <course>245.25</course>
  <speed>4.970120722879878</speed>
  <fix>3d</fix>
</trkpt>
<trkpt lat="40.0715254" lon="-105.2287631">
  <ele>1583.0</ele>
  <time>2026-08-28T17:54:17Z</time>
  <course>244.57</course>
  <speed>4.99</speed>
  <fix>3d</fix>
</trkpt>
<trkpt lat="40.0715189" lon="-105.2287815">
  <ele>1582.9</ele>
  <time>2026-08-28T17:54:17Z</time>
  <course>245.25</course>
  <speed>4.961068433311518</speed>
  <fix>3d</fix>
</trkpt>
<trkpt lat="40.0715215" lon="-105.2287736">
  <ele>1583.0</ele>
  <time>2026-08-28T17:54:17Z</time>
  <course>244.56</course>
  <speed>4.99</speed>
  <fix>3d</fix>
</trkpt>
<trkpt lat="40.0715169" lon="-105.2287868">
  <ele>1582.9</ele>
  <time>2026-08-28T17:54:17Z</time>
  <course>245.25</course>
  <speed>4.961068433311518</speed>
  <fix>3d</fix>
</trkpt>
<trkpt lat="40.0715215" lon="-105.2287736">
  <ele>1583.0</ele>
  <time>2026-08-28T17:54:17Z</time>
  <course>244.56</course>
  <speed>4.99</speed>
  <fix>3d</fix>
</trkpt>
<trkpt lat="40.071515" lon="-105.228792">
  <ele>1582.9</ele>
  <time>2026-08-28T17:54:17Z</time>
  <course>245.24</course>
  <speed>4.961068433311518</speed>
  <fix>3d</fix>
</trkpt>
<trkpt lat="40.0715177" lon="-105.2287841">
  <ele>1583.0</ele>
  <time>2026-08-28T17:54:17Z</time>
  <course>244.56</course>
  <speed>4.99</speed>
  <fix>3d</fix>
</trkpt>
<trkpt lat="40.0715131" lon="-105.2287972">
  <ele>1582.9</ele>
  <time>2026-08-28T17:54:17Z</time>
  <course>245.24</course>
  <speed>4.961068433311518</speed>
  <fix>3d</fix>
</trkpt>
<trkpt lat="40.0715177" lon="-105.2287841">
  <ele>1583.0</ele>
  <time>2026-08-28T17:54:17Z</time>
  <course>244.56</course>
  <speed>4.99</speed>
  <fix>3d</fix>
</trkpt>
<trkpt lat="40.0715112" lon="-105.2288025">
  <ele>1582.9</ele>
  <time>2026-08-28T17:54:17Z</time>
  <course>245.24</course>
  <speed>4.961068433311518</speed>
  <fix>3d</fix>
</trkpt>
<trkpt lat="40.0715138" lon="-105.2287948">
  <ele>1583.0</ele>
  <time>2026-08-28T17:54:17Z</time>
  <course>244.55</course>
  <speed>4.99</speed>
  <fix>3d</fix>
</trkpt>
<trkpt lat="40.0715097" lon="-105.2288067">
  <ele>1582.9</ele>
  <time>2026-08-28T17:54:17Z</time>
  <course>245.24</course>
  <speed>4.961068433311518</speed>
  <fix>3d</fix>
</trkpt>
<trkpt lat="40.0715138" lon="-105.2287948">
  <ele>1583.0</ele>
  <time>2026-08-28T17:54:17Z</time>
  <course>244.55</course>
  <speed>4.99</speed>
  <fix>3d</fix>
</trkpt>
<trkpt lat="40.0715078" lon="-105.228812">
  <ele>1582.9</ele>
  <time>2026-08-28T17:54:17Z</time>
  <course>245.24</course>
  <speed>4.961068433311518</speed>
  <fix>3d</fix>
</trkpt>
<trkpt lat="40.0715099" lon="-105.2288054">
  <ele>1583.0</ele>
  <time>2026-08-28T17:54:17Z</time>
  <course>244.55</course>
  <speed>4.99</speed>
  <fix>3d</fix>
</trkpt>
<trkpt lat="40.0715058" lon="-105.2288173">
  <ele>1582.91</ele>
  <time>2026-08-28T17:54:17Z</time>
  <course>245.24</course>
  <speed>4.961068433311518</speed>
  <fix>3d</fix>
</trkpt>
<trkpt lat="40.0715099" lon="-105.2288054">
  <ele>1583.0</ele>
  <time>2026-08-28T17:54:17Z</time>
  <course>244.55</course>
  <speed>4.99</speed>
  <fix>3d</fix>
</trkpt>
<trkpt lat="40.0715039" lon="-105.2288225">
  <ele>1582.91</ele>
  <time>2026-08-28T17:54:17Z</time>
  <course>245.24</course>
  <speed>4.970120722879878</speed>
  <fix>3d</fix>
</trkpt>
<trkpt lat="40.0715061" lon="-105.228816">
  <ele>1583.0</ele>
  <time>2026-08-28T17:54:17Z</time>
  <course>244.55</course>
  <speed>5.0</speed>
  <fix>3d</fix>
</trkpt>
<trkpt lat="40.071502" lon="-105.2288279">
  <ele>1582.91</ele>
  <time>2026-08-28T17:54:17Z</time>
  <course>245.24</course>
  <speed>4.970120722879878</speed>
  <fix>3d</fix>
</trkpt>
<trkpt lat="40.0715061" lon="-105.228816">
  <ele>1583.0</ele>
  <time>2026-08-28T17:54:17Z</time>
  <course>244.55</course>
  <speed>5.0</speed>
  <fix>3d</fix>
</trkpt>
<trkpt lat="40.0715001" lon="-105.2288332">
  <ele>1582.91</ele>
  <time>2026-08-28T17:54:17Z</time>
  <course>245.24</course>
  <speed>4.970120722879878</speed>
  <fix>3d</fix>
</trkpt>
<trkpt lat="40.0715023" lon="-105.2288265">
  <ele>1583.0</ele>
  <time>2026-08-28T17:54:17Z</time>
  <course>244.55</course>
  <speed>5.0</speed>
  <fix>3d</fix>
</trkpt>
<trkpt lat="40.0714981" lon="-105.2288386">
  <ele>1582.91</ele>
  <time>2026-08-28T17:54:17Z</time>
  <course>245.24</course>
  <speed>4.979176638762678</speed>
  <fix>3d</fix>
</trkpt>
<trkpt lat="40.0715023" lon="-105.2288265">
  <ele>1583.0</ele>
  <time>2026-08-28T17:54:17Z</time>
  <course>244.55</course>
  <speed>5.0</speed>
  <fix>3d</fix>
</trkpt>
<trkpt lat="40.0714958" lon="-105.228845">
  <ele>1582.91</ele>
  <time>2026-08-28T17:54:17Z</time>
  <course>245.24</course>
  <speed>4.9834225187114125</speed>
  <fix>3d</fix>
</trkpt>
<trkpt lat="40.0714984" lon="-105.2288371">
  <ele>1583.0</ele>
  <time>2026-08-28T17:54:17Z</time>
  <course>244.55</course>
  <speed>5.0</speed>
  <fix>3d</fix>
</trkpt>
<trkpt lat="40.0714938" lon="-105.2288504">
  <ele>1582.91</ele>
  <time>2026-08-28T17:54:17Z</time>
  <course>245.24</course>
  <speed>4.9834225187114125</speed>
  <fix>3d</fix>
</trkpt>
<trkpt lat="40.0714984" lon="-105.2288371">
  <ele>1583.0</ele>
  <time>2026-08-28T17:54:17Z</time>
  <course>244.55</course>
  <speed>5.0</speed>
  <fix>3d</fix>
</trkpt>
<trkpt lat="40.0714919" lon="-105.2288557">
  <ele>1582.9</ele>
  <time>2026-08-28T17:54:17Z</time>
  <course>245.24</course>
  <speed>4.9834225187114125</speed>
  <fix>3d</fix>
</trkpt>
<trkpt lat="40.0714945" lon="-105.2288478">
  <ele>1583.0</ele>
  <time>2026-08-28T17:54:17Z</time>
  <course>244.55</course>
  <speed>5.01</speed>
  <fix>3d</fix>
</trkpt>
<trkpt lat="40.0714899" lon="-105.2288611">
  <ele>1582.9</ele>
  <time>2026-08-28T17:54:17Z</time>
  <course>245.24</course>
  <speed>4.9834225187114125</speed>
  <fix>3d</fix>
</trkpt>
<trkpt lat="40.0714945" lon="-105.2288478">
  <ele>1583.0</ele>
  <time>2026-08-28T17:54:17Z</time>
  <course>244.55</course>
  <speed>5.01</speed>
  <fix>3d</fix>
</trkpt>
<trkpt lat="40.071488" lon="-105.2288664">
  <ele>1582.89</ele>
  <time>2026-08-28T17:54:17Z</time>
  <course>245.23</course>
  <speed>4.9834225187114125</speed>
  <fix>3d</fix>
</trkpt>
<trkpt lat="40.0714907" lon="-105.2288584">
  <ele>1583.0</ele>
  <time>2026-08-28T17:54:17Z</time>
  <course>244.55</course>
  <speed>5.0</speed>
  <fix>3d</fix>
</trkpt>
<trkpt lat="40.0714861" lon="-105.2288717">
  <ele>1582.89</ele>
  <time>2026-08-28T17:54:17Z</time>
  <course>245.24</course>
  <speed>4.9834225187114125</speed>
  <fix>3d</fix>
</trkpt>
<trkpt lat="40.0714907" lon="-105.2288584">
  <ele>1583.0</ele>
  <time>2026-08-28T17:54:17Z</time>
  <course>244.55</course>
  <speed>5.0</speed>
  <fix>3d</fix>
</trkpt>
<trkpt lat="40.0714841" lon="-105.228877">
  <ele>1582.88</ele>
  <time>2026-08-28T17:54:17Z</time>
  <course>245.24</course>
  <speed>4.979176638762678</speed>
  <fix>3d</fix>
</trkpt>
<trkpt lat="40.0714868" lon="-105.2288691">
  <ele>1583.0</ele>
  <time>2026-08-28T17:54:17Z</time>
  <course>244.55</course>
  <speed>5.0</speed>
  <fix>3d</fix>
</trkpt>
<trkpt lat="40.0714822" lon="-105.2288823">
  <ele>1582.88</ele>
  <time>2026-08-28T17:54:17Z</time>
  <course>245.24</course>
  <speed>4.979176638762678</speed>
  <fix>3d</fix>
</trkpt>
<trkpt lat="40.0714868" lon="-105.2288691">
  <ele>1583.0</ele>
  <time>2026-08-28T17:54:17Z</time>
  <course>244.55</course>
  <speed>5.0</speed>
  <fix>3d</fix>
</trkpt>
<trkpt lat="40.0714803" lon="-105.2288875">
  <ele>1582.88</ele>
  <time>2026-08-28T17:54:17Z</time>
  <course>245.24</course>
  <speed>4.979176638762678</speed>
  <fix>3d</fix>
</trkpt>
<trkpt lat="40.0714829" lon="-105.2288796">
  <ele>1583.0</ele>
  <time>2026-08-28T17:54:17Z</time>
  <course>244.55</course>
  <speed>5.0</speed>
  <fix>3d</fix>
</trkpt>
<trkpt lat="40.0714784" lon="-105.2288928">
  <ele>1582.88</ele>
  <time>2026-08-28T17:54:17Z</time>
  <course>245.24</course>
  <speed>4.970120722879878</speed>
  <fix>3d</fix>
</trkpt>
<trkpt lat="40.0714829" lon="-105.2288796">
  <ele>1583.0</ele>
  <time>2026-08-28T17:54:17Z</time>
  <course>244.55</course>
  <speed>5.0</speed>
  <fix>3d</fix>
</trkpt>
<trkpt lat="40.0714765" lon="-105.2288981">
  <ele>1582.88</ele>
  <time>2026-08-28T17:54:17Z</time>
  <course>245.25</course>
  <speed>4.970120722879878</speed>
  <fix>3d</fix>
</trkpt>
<trkpt lat="40.0714791" lon="-105.2288902">
  <ele>1583.0</ele>
  <time>2026-08-28T17:54:17Z</time>
  <course>244.55</course>
  <speed>5.0</speed>
  <fix>3d</fix>
</trkpt>
<trkpt lat="40.0714746" lon="-105.2289033">
  <ele>1582.88</ele>
  <time>2026-08-28T17:54:17Z</time>
  <course>245.25</course>
  <speed>4.970120722879878</speed>
  <fix>3d</fix>
</trkpt>
<trkpt lat="40.0714791" lon="-105.2288902">
  <ele>1583.0</ele>
  <time>2026-08-28T17:54:17Z</time>
  <course>244.55</course>
  <speed>5.0</speed>
  <fix>3d</fix>
</trkpt>
<trkpt lat="40.0714727" lon="-105.2289086">
  <ele>1582.88</ele>
  <time>2026-08-28T17:54:17Z</time>
  <course>245.25</course>
  <speed>4.970120722879878</speed>
  <fix>3d</fix>
</trkpt>
<trkpt lat="40.0714752" lon="-105.2289009">
  <ele>1583.0</ele>
  <time>2026-08-28T17:54:17Z</time>
  <course>244.55</course>
  <speed>5.0</speed>
  <fix>3d</fix>
</trkpt>
<trkpt lat="40.0714711" lon="-105.2289128">
  <ele>1582.88</ele>
  <time>2026-08-28T17:54:17Z</time>
  <course>245.25</course>
  <speed>4.970120722879878</speed>
  <fix>3d</fix>
</trkpt>
<trkpt lat="40.0714752" lon="-105.2289009">
  <ele>1583.0</ele>
  <time>2026-08-28T17:54:17Z</time>
  <course>244.55</course>
  <speed>5.0</speed>
  <fix>3d</fix>
</trkpt>
<trkpt lat="40.0714692" lon="-105.2289181">
  <ele>1582.87</ele>
  <time>2026-08-28T17:54:17Z</time>
  <course>245.25</course>
  <speed>4.970120722879878</speed>
  <fix>3d</fix>
</trkpt>
<trkpt lat="40.0714713" lon="-105.2289115">
  <ele>1583.0</ele>
  <time>2026-08-28T17:54:17Z</time>
  <course>244.55</course>
  <speed>5.0</speed>
  <fix>3d</fix>
</trkpt>
<trkpt lat="40.0714673" lon="-105.2289234">
  <ele>1582.87</ele>
  <time>2026-08-28T17:54:17Z</time>
  <course>245.25</course>
  <speed>4.970120722879878</speed>
  <fix>3d</fix>
</trkpt>
<trkpt lat="40.0714713" lon="-105.2289115">
  <ele>1583.0</ele>
  <time>2026-08-28T17:54:17Z</time>
  <course>244.55</course>
  <speed>5.0</speed>
  <fix>3d</fix>
</trkpt>
<trkpt lat="40.0714653" lon="-105.2289287">
  <ele>1582.87</ele>
  <time>2026-08-28T17:54:17Z</time>
  <course>245.25</course>
  <speed>4.970120722879878</speed>
  <fix>3d</fix>
</trkpt>
<trkpt lat="40.0714675" lon="-105.228922">
  <ele>1583.0</ele>
  <time>2026-08-28T17:54:17Z</time>
  <course>244.55</course>
  <speed>5.0</speed>
  <fix>3d</fix>
</trkpt>
<trkpt lat="40.0714634" lon="-105.228934">
  <ele>1582.87</ele>
  <time>2026-08-28T17:54:17Z</time>
  <course>245.25</course>
  <speed>4.970120722879878</speed>
  <fix>3d</fix>
</trkpt>
<trkpt lat="40.0714675" lon="-105.228922">
  <ele>1583.0</ele>
  <time>2026-08-28T17:54:17Z</time>
  <course>244.55</course>
  <speed>5.0</speed>
  <fix>3d</fix>
</trkpt>
<trkpt lat="40.0714615" lon="-105.2289393">
  <ele>1582.87</ele>
  <time>2026-08-28T17:54:17Z</time>
  <course>245.25</course>
  <speed>4.970120722879878</speed>
  <fix>3d</fix>
</trkpt>
<trkpt lat="40.0714636" lon="-105.2289327">
  <ele>1583.0</ele>
  <time>2026-08-28T17:54:17Z</time>
  <course>244.55</course>
  <speed>5.0</speed>
  <fix>3d</fix>
</trkpt>
<trkpt lat="40.0714595" lon="-105.2289447">
  <ele>1582.87</ele>
  <time>2026-08-28T17:54:17Z</time>
  <course>245.25</course>
  <speed>4.979176638762678</speed>
  <fix>3d</fix>
</trkpt>
<trkpt lat="40.0714636" lon="-105.2289327">
  <ele>1583.0</ele>
  <time>2026-08-28T17:54:17Z</time>
  <course>244.55</course>
  <speed>5.0</speed>
  <fix>3d</fix>
</trkpt>
<trkpt lat="40.0714576" lon="-105.22895">
  <ele>1582.87</ele>
  <time>2026-08-28T17:54:17Z</time>
  <course>245.25</course>
  <speed>4.979176638762678</speed>
  <fix>3d</fix>
</trkpt>
<trkpt lat="40.0714597" lon="-105.2289433">
  <ele>1583.0</ele>
  <time>2026-08-28T17:54:17Z</time>
  <course>244.55</course>
  <speed>5.0</speed>
  <fix>3d</fix>
</trkpt>
<trkpt lat="40.0714552" lon="-105.2289565">
  <ele>1582.87</ele>
  <time>2026-08-28T17:54:17Z</time>
  <course>245.24</course>
  <speed>4.9834225187114125</speed>
  <fix>3d</fix>
</trkpt>
<trkpt lat="40.0714597" lon="-105.2289433">
  <ele>1583.0</ele>
  <time>2026-08-28T17:54:17Z</time>
  <course>244.55</course>
  <speed>5.0</speed>
  <fix>3d</fix>
</trkpt>
<trkpt lat="40.0714532" lon="-105.2289618">
  <ele>1582.88</ele>
  <time>2026-08-28T17:54:17Z</time>
  <course>245.24</course>
  <speed>4.9834225187114125</speed>
  <fix>3d</fix>
</trkpt>
<trkpt lat="40.0714558" lon="-105.2289539">
  <ele>1583.0</ele>
  <time>2026-08-28T17:54:17Z</time>
  <course>244.55</course>
  <speed>5.0</speed>
  <fix>3d</fix>
</trkpt>
<trkpt lat="40.0714513" lon="-105.2289672">
  <ele>1582.88</ele>
  <time>2026-08-28T17:54:17Z</time>
  <course>245.24</course>
  <speed>4.9834225187114125</speed>
  <fix>3d</fix>
</trkpt>
<trkpt lat="40.0714558" lon="-105.2289539">
  <ele>1583.0</ele>
  <time>2026-08-28T17:54:17Z</time>
  <course>244.55</course>
  <speed>5.0</speed>
  <fix>3d</fix>
</trkpt>
<trkpt lat="40.0714493" lon="-105.2289725">
  <ele>1582.88</ele>
  <time>2026-08-28T17:54:17Z</time>
  <course>245.24</course>
  <speed>4.9834225187114125</speed>
  <fix>3d</fix>
</trkpt>
<trkpt lat="40.071452" lon="-105.2289646">
  <ele>1583.0</ele>
  <time>2026-08-28T17:54:17Z</time>
  <course>244.55</course>
  <speed>5.0</speed>
  <fix>3d</fix>
</trkpt>
<trkpt lat="40.0714474" lon="-105.2289779">
  <ele>1582.88</ele>
  <time>2026-08-28T17:54:17Z</time>
  <course>245.24</course>
  <speed>4.9834225187114125</speed>
  <fix>3d</fix>
</trkpt>
<trkpt lat="40.071452" lon="-105.2289646">
  <ele>1583.0</ele>
  <time>2026-08-28T17:54:17Z</time>
  <course>244.55</course>
  <speed>5.0</speed>
  <fix>3d</fix>
</trkpt>
<trkpt lat="40.0714455" lon="-105.2289832">
  <ele>1582.88</ele>
  <time>2026-08-28T17:54:17Z</time>
  <course>245.24</course>
  <speed>4.9834225187114125</speed>
  <fix>3d</fix>
</trkpt>
<trkpt lat="40.0714481" lon="-105.2289751">
  <ele>1583.0</ele>
  <time>2026-08-28T17:54:17Z</time>
  <course>244.55</course>
  <speed>4.99</speed>
  <fix>3d</fix>
</trkpt>
<trkpt lat="40.0714435" lon="-105.2289885">
  <ele>1582.88</ele>
  <time>2026-08-28T17:54:17Z</time>
  <course>245.24</course>
  <speed>4.979176638762678</speed>
  <fix>3d</fix>
</trkpt>
<trkpt lat="40.0714481" lon="-105.2289751">
  <ele>1583.0</ele>
  <time>2026-08-28T17:54:17Z</time>
  <course>244.55</course>
  <speed>4.99</speed>
  <fix>3d</fix>
</trkpt>
<trkpt lat="40.0714416" lon="-105.2289938">
  <ele>1582.88</ele>
  <time>2026-08-28T17:54:17Z</time>
  <course>245.25</course>
  <speed>4.970120722879878</speed>
  <fix>3d</fix>
</trkpt>
<trkpt lat="40.0714442" lon="-105.2289858">
  <ele>1583.0</ele>
  <time>2026-08-28T17:54:17Z</time>
  <course>244.55</course>
  <speed>4.99</speed>
  <fix>3d</fix>
</trkpt>
<trkpt lat="40.0714397" lon="-105.228999">
  <ele>1582.88</ele>
  <time>2026-08-28T17:54:17Z</time>
  <course>245.25</course>
  <speed>4.970120722879878</speed>
  <fix>3d</fix>
</trkpt>
<trkpt lat="40.0714442" lon="-105.2289858">
  <ele>1583.0</ele>
  <time>2026-08-28T17:54:17Z</time>
  <course>244.55</course>
  <speed>4.99</speed>
  <fix>3d</fix>
</trkpt>
<trkpt lat="40.0714378" lon="-105.2290043">
  <ele>1582.88</ele>
  <time>2026-08-28T17:54:17Z</time>
  <course>245.25</course>
  <speed>4.970120722879878</speed>
  <fix>3d</fix>
</trkpt>
<trkpt lat="40.0714404" lon="-105.2289964">
  <ele>1583.0</ele>
  <time>2026-08-28T17:54:17Z</time>
  <course>244.55</course>
  <speed>4.99</speed>
  <fix>3d</fix>
</trkpt>
<trkpt lat="40.0714359" lon="-105.2290095">
  <ele>1582.87</ele>
  <time>2026-08-28T17:54:17Z</time>
  <course>245.25</course>
  <speed>4.961068433311518</speed>
  <fix>3d</fix>
</trkpt>
<trkpt lat="40.0714404" lon="-105.2289964">
  <ele>1583.0</ele>
  <time>2026-08-28T17:54:17Z</time>
  <course>244.55</course>
  <speed>4.99</speed>
  <fix>3d</fix>
</trkpt>
<trkpt lat="40.0714339" lon="-105.2290148">
  <ele>1582.88</ele>
  <time>2026-08-28T17:54:18Z</time>
  <course>245.26</course>
  <speed>4.961068433311518</speed>
  <fix>3d</fix>
</trkpt>
<trkpt lat="40.0714366" lon="-105.2290069">
  <ele>1583.0</ele>
  <time>2026-08-28T17:54:18Z</time>
  <course>244.55</course>
  <speed>4.98</speed>
  <fix>3d</fix>
</trkpt>
<trkpt lat="40.071432" lon="-105.22902">
  <ele>1582.88</ele>
  <time>2026-08-28T17:54:18Z</time>
  <course>245.26</course>
  <speed>4.961068433311518</speed>
  <fix>3d</fix>
</trkpt>
<trkpt lat="40.0714366" lon="-105.2290069">
  <ele>1583.0</ele>
  <time>2026-08-28T17:54:18Z</time>
  <course>244.55</course>
  <speed>4.98</speed>
  <fix>3d</fix>
</trkpt>
<trkpt lat="40.0714305" lon="-105.2290242">
  <ele>1582.88</ele>
  <time>2026-08-28T17:54:18Z</time>
  <course>245.26</course>
  <speed>4.961068433311518</speed>
  <fix>3d</fix>
</trkpt>
<trkpt lat="40.0714327" lon="-105.2290175">
  <ele>1583.0</ele>
  <time>2026-08-28T17:54:18Z</time>
  <course>244.55</course>
  <speed>4.98</speed>
  <fix>3d</fix>
</trkpt>
<trkpt lat="40.0714286" lon="-105.2290295">
  <ele>1582.88</ele>
  <time>2026-08-28T17:54:18Z</time>
  <course>245.26</course>
  <speed>4.961068433311518</speed>
  <fix>3d</fix>
</trkpt>
<trkpt lat="40.0714327" lon="-105.2290175">
  <ele>1583.0</ele>
  <time>2026-08-28T17:54:18Z</time>
  <course>244.55</course>
  <speed>4.98</speed>
  <fix>3d</fix>
</trkpt>
<trkpt lat="40.0714266" lon="-105.2290348">
  <ele>1582.88</ele>
  <time>2026-08-28T17:54:18Z</time>
  <course>245.26</course>
  <speed>4.961068433311518</speed>
  <fix>3d</fix>
</trkpt>
<trkpt lat="40.0714289" lon="-105.229028">
  <ele>1583.0</ele>
  <time>2026-08-28T17:54:18Z</time>
  <course>244.55</course>
  <speed>4.99</speed>
  <fix>3d</fix>
</trkpt>
<trkpt lat="40.0714247" lon="-105.2290401">
  <ele>1582.89</ele>
  <time>2026-08-28T17:54:18Z</time>
  <course>245.26</course>
  <speed>4.961068433311518</speed>
  <fix>3d</fix>
</trkpt>
<trkpt lat="40.0714289" lon="-105.229028">
  <ele>1583.0</ele>
  <time>2026-08-28T17:54:18Z</time>
  <course>244.55</course>
  <speed>4.99</speed>
  <fix>3d</fix>
</trkpt>
<trkpt lat="40.0714228" lon="-105.2290454">
  <ele>1582.89</ele>
  <time>2026-08-28T17:54:18Z</time>
  <course>245.26</course>
  <speed>4.961068433311518</speed>
  <fix>3d</fix>
</trkpt>
<trkpt lat="40.071425" lon="-105.2290386">
  <ele>1583.0</ele>
  <time>2026-08-28T17:54:18Z</time>
  <course>244.55</course>
  <speed>4.99</speed>
  <fix>3d</fix>
</trkpt>
<trkpt lat="40.0714208" lon="-105.2290507">
  <ele>1582.89</ele>
  <time>2026-08-28T17:54:18Z</time>
  <course>245.26</course>
  <speed>4.970120722879878</speed>
  <fix>3d</fix>
</trkpt>
<trkpt lat="40.071425" lon="-105.2290386">
  <ele>1583.0</ele>
  <time>2026-08-28T17:54:18Z</time>
  <course>244.55</course>
  <speed>4.99</speed>
  <fix>3d</fix>
</trkpt>
<trkpt lat="40.0714189" lon="-105.229056">
  <ele>1582.89</ele>
  <time>2026-08-28T17:54:18Z</time>
  <course>245.26</course>
  <speed>4.970120722879878</speed>
  <fix>3d</fix>
</trkpt>
<trkpt lat="40.0714211" lon="-105.2290493">
  <ele>1583.0</ele>
  <time>2026-08-28T17:54:18Z</time>
  <course>244.55</course>
  <speed>4.99</speed>
  <fix>3d</fix>
</trkpt>
<trkpt lat="40.0714169" lon="-105.2290614">
  <ele>1582.9</ele>
  <time>2026-08-28T17:54:18Z</time>
  <course>245.26</course>
  <speed>4.970120722879878</speed>
  <fix>3d</fix>
</trkpt>
<trkpt lat="40.0714211" lon="-105.2290493">
  <ele>1583.0</ele>
  <time>2026-08-28T17:54:18Z</time>
  <course>244.55</course>
  <speed>4.99</speed>
  <fix>3d</fix>
</trkpt>
<trkpt lat="40.0714146" lon="-105.2290678">
  <ele>1582.9</ele>
  <time>2026-08-28T17:54:18Z</time>
  <course>245.26</course>
  <speed>4.974374332516603</speed>
  <fix>3d</fix>
</trkpt>
<trkpt lat="40.0714173" lon="-105.2290598">
  <ele>1583.0</ele>
  <time>2026-08-28T17:54:18Z</time>
  <course>244.55</course>
  <speed>4.99</speed>
  <fix>3d</fix>
</trkpt>
<trkpt lat="40.0714127" lon="-105.2290731">
  <ele>1582.9</ele>
  <time>2026-08-28T17:54:18Z</time>
  <course>245.26</course>
  <speed>4.974374332516603</speed>
  <fix>3d</fix>
</trkpt>
<trkpt lat="40.0714173" lon="-105.2290598">
  <ele>1583.0</ele>
  <time>2026-08-28T17:54:18Z</time>
  <course>244.55</course>
  <speed>4.99</speed>
  <fix>3d</fix>
</trkpt>
<trkpt lat="40.0714107" lon="-105.2290785">
  <ele>1582.9</ele>
  <time>2026-08-28T17:54:18Z</time>
  <course>245.26</course>
  <speed>4.974374332516603</speed>
  <fix>3d</fix>
</trkpt>
<trkpt lat="40.0714135" lon="-105.2290704">
  <ele>1583.0</ele>
  <time>2026-08-28T17:54:18Z</time>
  <course>244.55</course>
  <speed>4.99</speed>
  <fix>3d</fix>
</trkpt>
<trkpt lat="40.0714088" lon="-105.2290838">
  <ele>1582.9</ele>
  <time>2026-08-28T17:54:18Z</time>
  <course>245.26</course>
  <speed>4.974374332516603</speed>
  <fix>3d</fix>
</trkpt>
<trkpt lat="40.0714135" lon="-105.2290704">
  <ele>1583.0</ele>
  <time>2026-08-28T17:54:18Z</time>
  <course>244.55</course>
  <speed>4.99</speed>
  <fix>3d</fix>
</trkpt>
<trkpt lat="40.0714069" lon="-105.2290891">
  <ele>1582.9</ele>
  <time>2026-08-28T17:54:18Z</time>
  <course>245.26</course>
  <speed>4.974374332516603</speed>
  <fix>3d</fix>
</trkpt>
<trkpt lat="40.0714096" lon="-105.2290809">
  <ele>1583.0</ele>
  <time>2026-08-28T17:54:18Z</time>
  <course>244.55</course>
  <speed>4.99</speed>
  <fix>3d</fix>
</trkpt>
<trkpt lat="40.0714049" lon="-105.2290944">
  <ele>1582.9</ele>
  <time>2026-08-28T17:54:18Z</time>
  <course>245.27</course>
  <speed>4.974374332516603</speed>
  <fix>3d</fix>
</trkpt>
<trkpt lat="40.0714096" lon="-105.2290809">
  <ele>1583.0</ele>
  <time>2026-08-28T17:54:18Z</time>
  <course>244.55</course>
  <speed>4.99</speed>
  <fix>3d</fix>
</trkpt>
<trkpt lat="40.071403" lon="-105.2290996">
  <ele>1582.9</ele>
  <time>2026-08-28T17:54:18Z</time>
  <course>245.27</course>
  <speed>4.970120722879878</speed>
  <fix>3d</fix>
</trkpt>
<trkpt lat="40.0714058" lon="-105.2290916">
  <ele>1583.0</ele>
  <time>2026-08-28T17:54:18Z</time>
  <course>244.55</course>
  <speed>4.99</speed>
  <fix>3d</fix>
</trkpt>
<trkpt lat="40.0714011" lon="-105.2291049">
  <ele>1582.9</ele>
  <time>2026-08-28T17:54:18Z</time>
  <course>245.27</course>
  <speed>4.970120722879878</speed>
  <fix>3d</fix>
</trkpt>
<trkpt lat="40.0714058" lon="-105.2290916">
  <ele>1583.0</ele>
  <time>2026-08-28T17:54:18Z</time>
  <course>244.55</course>
  <speed>4.99</speed>
  <fix>3d</fix>
</trkpt>
<trkpt lat="40.0713992" lon="-105.2291101">
  <ele>1582.89</ele>
  <time>2026-08-28T17:54:18Z</time>
  <course>245.27</course>
  <speed>4.970120722879878</speed>
  <fix>3d</fix>
</trkpt>
<trkpt lat="40.0714019" lon="-105.2291022">
  <ele>1583.0</ele>
  <time>2026-08-28T17:54:18Z</time>
  <course>244.55</course>
  <speed>4.99</speed>
  <fix>3d</fix>
</trkpt>
<trkpt lat="40.0713973" lon="-105.2291154">
  <ele>1582.89</ele>
  <time>2026-08-28T17:54:18Z</time>
  <course>245.27</course>
  <speed>4.970120722879878</speed>
  <fix>3d</fix>
</trkpt>
<trkpt lat="40.0714019" lon="-105.2291022">
  <ele>1583.0</ele>
  <time>2026-08-28T17:54:18Z</time>
  <course>244.55</course>
  <speed>4.99</speed>
  <fix>3d</fix>
</trkpt>
<trkpt lat="40.0713954" lon="-105.2291206">
  <ele>1582.89</ele>
  <time>2026-08-28T17:54:18Z</time>
  <course>245.27</course>
  <speed>4.961068433311518</speed>
  <fix>3d</fix>
</trkpt>
<trkpt lat="40.071398" lon="-105.2291128">
  <ele>1583.0</ele>
  <time>2026-08-28T17:54:18Z</time>
  <course>244.55</course>
  <speed>4.99</speed>
  <fix>3d</fix>
</trkpt>
<trkpt lat="40.0713935" lon="-105.2291258">
  <ele>1582.89</ele>
  <time>2026-08-28T17:54:18Z</time>
  <course>245.28</course>
  <speed>4.961068433311518</speed>
  <fix>3d</fix>
</trkpt>
<trkpt lat="40.071398" lon="-105.2291128">
  <ele>1583.0</ele>
  <time>2026-08-28T17:54:18Z</time>
  <course>244.55</course>
  <speed>4.99</speed>
  <fix>3d</fix>
</trkpt>
<trkpt lat="40.0713916" lon="-105.2291311">
  <ele>1582.9</ele>
  <time>2026-08-28T17:54:18Z</time>
  <course>245.28</course>
  <speed>4.961068433311518</speed>
  <fix>3d</fix>
</trkpt>
<trkpt lat="40.0713942" lon="-105.2291233">
  <ele>1583.0</ele>
  <time>2026-08-28T17:54:18Z</time>
  <course>244.55</course>
  <speed>4.99</speed>
  <fix>3d</fix>
</trkpt>
<trkpt lat="40.07139" lon="-105.2291353">
  <ele>1582.89</ele>
  <time>2026-08-28T17:54:18Z</time>
  <course>245.28</course>
  <speed>4.961068433311518</speed>
  <fix>3d</fix>
</trkpt>
<trkpt lat="40.0713942" lon="-105.2291233">
  <ele>1583.0</ele>
  <time>2026-08-28T17:54:18Z</time>
  <course>244.55</course>
  <speed>4.99</speed>
  <fix>3d</fix>
</trkpt>
<trkpt lat="40.0713881" lon="-105.2291406">
  <ele>1582.89</ele>
  <time>2026-08-28T17:54:18Z</time>
  <course>245.28</course>
  <speed>4.961068433311518</speed>
  <fix>3d</fix>
</trkpt>
<trkpt lat="40.0713903" lon="-105.2291339">
  <ele>1583.0</ele>
  <time>2026-08-28T17:54:18Z</time>
  <course>244.55</course>
  <speed>4.99</speed>
  <fix>3d</fix>
</trkpt>
<trkpt lat="40.0713862" lon="-105.2291459">
  <ele>1582.89</ele>
  <time>2026-08-28T17:54:18Z</time>
  <course>245.28</course>
  <speed>4.970120722879878</speed>
  <fix>3d</fix>
</trkpt>
<trkpt lat="40.0713903" lon="-105.2291339">
  <ele>1583.0</ele>
  <time>2026-08-28T17:54:18Z</time>
  <course>244.55</course>
  <speed>4.99</speed>
  <fix>3d</fix>
</trkpt>
<trkpt lat="40.0713843" lon="-105.2291511">
  <ele>1582.89</ele>
  <time>2026-08-28T17:54:18Z</time>
  <course>245.28</course>
  <speed>4.970120722879878</speed>
  <fix>3d</fix>
</trkpt>
<trkpt lat="40.0713864" lon="-105.2291444">
  <ele>1583.0</ele>
  <time>2026-08-28T17:54:18Z</time>
  <course>244.55</course>
  <speed>5.0</speed>
  <fix>3d</fix>
</trkpt>
<trkpt lat="40.0713823" lon="-105.2291565">
  <ele>1582.89</ele>
  <time>2026-08-28T17:54:18Z</time>
  <course>245.28</course>
  <speed>4.974374332516603</speed>
  <fix>3d</fix>
</trkpt>
<trkpt lat="40.0713864" lon="-105.2291444">
  <ele>1583.0</ele>
  <time>2026-08-28T17:54:18Z</time>
  <course>244.55</course>
  <speed>5.0</speed>
  <fix>3d</fix>
</trkpt>
<trkpt lat="40.0713804" lon="-105.2291618">
  <ele>1582.89</ele>
  <time>2026-08-28T17:54:18Z</time>
  <course>245.28</course>
  <speed>4.974374332516603</speed>
  <fix>3d</fix>
</trkpt>
<trkpt lat="40.0713826" lon="-105.2291551">
  <ele>1583.0</ele>
  <time>2026-08-28T17:54:18Z</time>
  <course>244.55</course>
  <speed>5.0</speed>
  <fix>3d</fix>
</trkpt>
<trkpt lat="40.0713784" lon="-105.2291671">
  <ele>1582.89</ele>
  <time>2026-08-28T17:54:18Z</time>
  <course>245.29</course>
  <speed>4.9834225187114125</speed>
  <fix>3d</fix>
</trkpt>
<trkpt lat="40.0713826" lon="-105.2291551">
  <ele>1583.0</ele>
  <time>2026-08-28T17:54:18Z</time>
  <course>244.55</course>
  <speed>5.0</speed>
  <fix>3d</fix>
</trkpt>
<trkpt lat="40.0713765" lon="-105.2291725">
  <ele>1582.9</ele>
  <time>2026-08-28T17:54:18Z</time>
  <course>245.29</course>
  <speed>4.9834225187114125</speed>
  <fix>3d</fix>
</trkpt>
<trkpt lat="40.0713788" lon="-105.2291658">
  <ele>1583.0</ele>
  <time>2026-08-28T17:54:18Z</time>
  <course>244.55</course>
  <speed>5.0</speed>
  <fix>3d</fix>
</trkpt>
<trkpt lat="40.0713741" lon="-105.2291789">
  <ele>1582.9</ele>
  <time>2026-08-28T17:54:18Z</time>
  <course>245.29</course>
  <speed>4.9834225187114125</speed>
  <fix>3d</fix>
</trkpt>
<trkpt lat="40.0713788" lon="-105.2291658">
  <ele>1583.0</ele>
  <time>2026-08-28T17:54:18Z</time>
  <course>244.55</course>
  <speed>5.0</speed>
  <fix>3d</fix>
</trkpt>
<trkpt lat="40.0713722" lon="-105.2291843">
  <ele>1582.9</ele>
  <time>2026-08-28T17:54:18Z</time>
  <course>245.29</course>
  <speed>4.9834225187114125</speed>
  <fix>3d</fix>
</trkpt>
<trkpt lat="40.0713749" lon="-105.2291764">
  <ele>1583.0</ele>
  <time>2026-08-28T17:54:18Z</time>
  <course>244.55</course>
  <speed>5.0</speed>
  <fix>3d</fix>
</trkpt>
<trkpt lat="40.0713703" lon="-105.2291896">
  <ele>1582.9</ele>
  <time>2026-08-28T17:54:18Z</time>
  <course>245.29</course>
  <speed>4.9834225187114125</speed>
  <fix>3d</fix>
</trkpt>
<trkpt lat="40.0713749" lon="-105.2291764">
  <ele>1583.0</ele>
  <time>2026-08-28T17:54:18Z</time>
  <course>244.55</course>
  <speed>5.0</speed>
  <fix>3d</fix>
</trkpt>
<trkpt lat="40.0713683" lon="-105.229195">
  <ele>1582.9</ele>
  <time>2026-08-28T17:54:18Z</time>
  <course>245.29</course>
  <speed>4.9834225187114125</speed>
  <fix>3d</fix>
</trkpt>
<trkpt lat="40.071371" lon="-105.229187">
  <ele>1583.0</ele>
  <time>2026-08-28T17:54:18Z</time>
  <course>244.55</course>
  <speed>5.0</speed>
  <fix>3d</fix>
</trkpt>
<trkpt lat="40.0713664" lon="-105.2292003">
  <ele>1582.9</ele>
  <time>2026-08-28T17:54:18Z</time>
  <course>245.29</course>
  <speed>4.9834225187114125</speed>
  <fix>3d</fix>
</trkpt>
<trkpt lat="40.071371" lon="-105.229187">
  <ele>1583.0</ele>
  <time>2026-08-28T17:54:18Z</time>
  <course>244.55</course>
  <speed>5.0</speed>
  <fix>3d</fix>
</trkpt>
<trkpt lat="40.0713644" lon="-105.2292057">
  <ele>1582.9</ele>
  <time>2026-08-28T17:54:18Z</time>
  <course>245.29</course>
  <speed>4.9834225187114125</speed>
  <fix>3d</fix>
</trkpt>
<trkpt lat="40.0713672" lon="-105.2291975">
  <ele>1583.0</ele>
  <time>2026-08-28T17:54:18Z</time>
  <course>244.55</course>
  <speed>5.0</speed>
  <fix>3d</fix>
</trkpt>
<trkpt lat="40.0713625" lon="-105.2292109">
  <ele>1582.9</ele>
  <time>2026-08-28T17:54:18Z</time>
  <course>245.29</course>
  <speed>4.9834225187114125</speed>
  <fix>3d</fix>
</trkpt>
<trkpt lat="40.0713672" lon="-105.2291975">
  <ele>1583.0</ele>
  <time>2026-08-28T17:54:18Z</time>
  <course>244.55</course>
  <speed>5.0</speed>
  <fix>3d</fix>
</trkpt>
<trkpt lat="40.0713606" lon="-105.2292162">
  <ele>1582.9</ele>
  <time>2026-08-28T17:54:18Z</time>
  <course>245.29</course>
  <speed>4.9834225187114125</speed>
  <fix>3d</fix>
</trkpt>
<trkpt lat="40.0713633" lon="-105.2292081">
  <ele>1583.0</ele>
  <time>2026-08-28T17:54:18Z</time>
  <course>244.55</course>
  <speed>4.99</speed>
  <fix>3d</fix>
</trkpt>
<trkpt lat="40.0713587" lon="-105.2292215">
  <ele>1582.9</ele>
  <time>2026-08-28T17:54:18Z</time>
  <course>245.3</course>
  <speed>4.974374332516603</speed>
  <fix>3d</fix>
</trkpt>
<trkpt lat="40.0713633" lon="-105.2292081">
  <ele>1583.0</ele>
  <time>2026-08-28T17:54:18Z</time>
  <course>244.55</course>
  <speed>4.99</speed>
  <fix>3d</fix>
</trkpt>
<trkpt lat="40.0713568" lon="-105.2292267">
  <ele>1582.9</ele>
  <time>2026-08-28T17:54:18Z</time>
  <course>245.3</course>
  <speed>4.970120722879878</speed>
  <fix>3d</fix>
</trkpt>
<trkpt lat="40.0713594" lon="-105.2292188">
  <ele>1583.0</ele>
  <time>2026-08-28T17:54:18Z</time>
  <course>244.55</course>
  <speed>4.99</speed>
  <fix>3d</fix>
</trkpt>
<trkpt lat="40.0713549" lon="-105.229232">
  <ele>1582.9</ele>
  <time>2026-08-28T17:54:18Z</time>
  <course>245.3</course>
  <speed>4.970120722879878</speed>
  <fix>3d</fix>
</trkpt>
<trkpt lat="40.0713594" lon="-105.2292188">
  <ele>1583.0</ele>
  <time>2026-08-28T17:54:18Z</time>
  <course>244.55</course>
  <speed>4.99</speed>
  <fix>3d</fix>
</trkpt>
<trkpt lat="40.0713529" lon="-105.2292372">
  <ele>1582.9</ele>
  <time>2026-08-28T17:54:18Z</time>
  <course>245.3</course>
  <speed>4.970120722879878</speed>
  <fix>3d</fix>
</trkpt>
<trkpt lat="40.0713555" lon="-105.2292294">
  <ele>1583.0</ele>
  <time>2026-08-28T17:54:18Z</time>
  <course>244.55</course>
  <speed>4.99</speed>
  <fix>3d</fix>
</trkpt>
<trkpt lat="40.071351" lon="-105.2292424">
  <ele>1582.89</ele>
  <time>2026-08-28T17:54:18Z</time>
  <course>245.3</course>
  <speed>4.961068433311518</speed>
  <fix>3d</fix>
</trkpt>
<trkpt lat="40.0713555" lon="-105.2292294">
  <ele>1583.0</ele>
  <time>2026-08-28T17:54:18Z</time>
  <course>244.55</course>
  <speed>4.99</speed>
  <fix>3d</fix>
</trkpt>
<trkpt lat="40.0713495" lon="-105.2292467">
  <ele>1582.89</ele>
  <time>2026-08-28T17:54:18Z</time>
  <course>245.3</course>
  <speed>4.961068433311518</speed>
  <fix>3d</fix>
</trkpt>
<trkpt lat="40.0713517" lon="-105.22924">
  <ele>1583.0</ele>
  <time>2026-08-28T17:54:18Z</time>
  <course>244.55</course>
  <speed>4.99</speed>
  <fix>3d</fix>
</trkpt>
<trkpt lat="40.0713476" lon="-105.229252">
  <ele>1582.89</ele>
  <time>2026-08-28T17:54:18Z</time>
  <course>245.3</course>
  <speed>4.961068433311518</speed>
  <fix>3d</fix>
</trkpt>
<trkpt lat="40.0713517" lon="-105.22924">
  <ele>1583.0</ele>
  <time>2026-08-28T17:54:18Z</time>
  <course>244.55</course>
  <speed>4.99</speed>
  <fix>3d</fix>
</trkpt>
<trkpt lat="40.0713456" lon="-105.2292573">
  <ele>1582.89</ele>
  <time>2026-08-28T17:54:18Z</time>
  <course>245.3</course>
  <speed>4.970120722879878</speed>
  <fix>3d</fix>
</trkpt>
<trkpt lat="40.0713479" lon="-105.2292506">
  <ele>1583.0</ele>
  <time>2026-08-28T17:54:18Z</time>
  <course>244.55</course>
  <speed>4.99</speed>
  <fix>3d</fix>
</trkpt>
<trkpt lat="40.0713437" lon="-105.2292625">
  <ele>1582.89</ele>
  <time>2026-08-28T17:54:18Z</time>
  <course>245.31</course>
  <speed>4.974374332516603</speed>
  <fix>3d</fix>
</trkpt>
<trkpt lat="40.0713479" lon="-105.2292506">
  <ele>1583.0</ele>
  <time>2026-08-28T17:54:18Z</time>
  <course>244.55</course>
  <speed>4.99</speed>
  <fix>3d</fix>
</trkpt>
<trkpt lat="40.0713418" lon="-105.2292679">
  <ele>1582.89</ele>
  <time>2026-08-28T17:54:18Z</time>
  <course>245.31</course>
  <speed>4.974374332516603</speed>
  <fix>3d</fix>
</trkpt>
<trkpt lat="40.071344" lon="-105.2292612">
  <ele>1583.0</ele>
  <time>2026-08-28T17:54:18Z</time>
  <course>244.55</course>
  <speed>4.99</speed>
  <fix>3d</fix>
</trkpt>
<trkpt lat="40.0713398" lon="-105.2292732">
  <ele>1582.89</ele>
  <time>2026-08-28T17:54:18Z</time>
  <course>245.31</course>
  <speed>4.974374332516603</speed>
  <fix>3d</fix>
</trkpt>
<trkpt lat="40.071344" lon="-105.2292612">
  <ele>1583.0</ele>
  <time>2026-08-28T17:54:18Z</time>
  <course>244.55</course>
  <speed>4.99</speed>
  <fix>3d</fix>
</trkpt>
<trkpt lat="40.0713379" lon="-105.2292785">
  <ele>1582.89</ele>
  <time>2026-08-28T17:54:18Z</time>
  <course>245.31</course>
  <speed>4.974374332516603</speed>
  <fix>3d</fix>
</trkpt>
<trkpt lat="40.0713401" lon="-105.2292717">
  <ele>1583.0</ele>
  <time>2026-08-28T17:54:18Z</time>
  <course>244.55</course>
  <speed>4.99</speed>
  <fix>3d</fix>
</trkpt>
<trkpt lat="40.0713359" lon="-105.2292839">
  <ele>1582.89</ele>
  <time>2026-08-28T17:54:18Z</time>
  <course>245.31</course>
  <speed>4.974374332516603</speed>
  <fix>3d</fix>
</trkpt>
<trkpt lat="40.0713401" lon="-105.2292717">
  <ele>1583.0</ele>
  <time>2026-08-28T17:54:18Z</time>
  <course>244.55</course>
  <speed>4.99</speed>
  <fix>3d</fix>
</trkpt>
<trkpt lat="40.0713336" lon="-105.2292903">
  <ele>1582.88</ele>
  <time>2026-08-28T17:54:18Z</time>
  <course>245.31</course>
  <speed>4.9834225187114125</speed>
  <fix>3d</fix>
</trkpt>
<trkpt lat="40.0713363" lon="-105.2292823">
  <ele>1583.0</ele>
  <time>2026-08-28T17:54:18Z</time>
  <course>244.55</course>
  <speed>4.99</speed>
  <fix>3d</fix>
</trkpt>
<trkpt lat="40.0713316" lon="-105.2292957">
  <ele>1582.88</ele>
  <time>2026-08-28T17:54:18Z</time>
  <course>245.31</course>
  <speed>4.9834225187114125</speed>
  <fix>3d</fix>
</trkpt>
<trkpt lat="40.0713363" lon="-105.2292823">
  <ele>1583.0</ele>
  <time>2026-08-28T17:54:18Z</time>
  <course>244.55</course>
  <speed>4.99</speed>
  <fix>3d</fix>
</trkpt>
<trkpt lat="40.0713297" lon="-105.229301">
  <ele>1582.88</ele>
  <time>2026-08-28T17:54:18Z</time>
  <course>245.31</course>
  <speed>4.9834225187114125</speed>
  <fix>3d</fix>
</trkpt>
<trkpt lat="40.0713324" lon="-105.2292928">
  <ele>1583.0</ele>
  <time>2026-08-28T17:54:18Z</time>
  <course>244.55</course>
  <speed>4.99</speed>
  <fix>3d</fix>
</trkpt>
<trkpt lat="40.0713278" lon="-105.2293063">
  <ele>1582.88</ele>
  <time>2026-08-28T17:54:18Z</time>
  <course>245.32</course>
  <speed>4.9834225187114125</speed>
  <fix>3d</fix>
</trkpt>
<trkpt lat="40.0713324" lon="-105.2292928">
  <ele>1583.0</ele>
  <time>2026-08-28T17:54:18Z</time>
  <course>244.55</course>
  <speed>4.99</speed>
  <fix>3d</fix>
</trkpt>
<trkpt lat="40.0713258" lon="-105.2293116">
  <ele>1582.87</ele>
  <time>2026-08-28T17:54:18Z</time>
  <course>245.32</course>
  <speed>4.974374332516603</speed>
  <fix>3d</fix>
</trkpt>
<trkpt lat="40.0713286" lon="-105.2293035">
  <ele>1583.0</ele>
  <time>2026-08-28T17:54:18Z</time>
  <course>244.55</course>
  <speed>4.99</speed>
  <fix>3d</fix>
</trkpt>
<trkpt lat="40.0713239" lon="-105.2293169">
  <ele>1582.87</ele>
  <time>2026-08-28T17:54:18Z</time>
  <course>245.32</course>
  <speed>4.974374332516603</speed>
  <fix>3d</fix>
</trkpt>
<trkpt lat="40.0713286" lon="-105.2293035">
  <ele>1583.0</ele>
  <time>2026-08-28T17:54:18Z</time>
  <course>244.55</course>
  <speed>4.99</speed>
  <fix>3d</fix>
</trkpt>
<trkpt lat="40.071322" lon="-105.2293222">
  <ele>1582.87</ele>
  <time>2026-08-28T17:54:18Z</time>
  <course>245.32</course>
  <speed>4.974374332516603</speed>
  <fix>3d</fix>
</trkpt>
<trkpt lat="40.0713247" lon="-105.2293141">
  <ele>1583.0</ele>
  <time>2026-08-28T17:54:18Z</time>
  <course>244.55</course>
  <speed>4.99</speed>
  <fix>3d</fix>
</trkpt>
<trkpt lat="40.0713201" lon="-105.2293274">
  <ele>1582.87</ele>
  <time>2026-08-28T17:54:18Z</time>
  <course>245.32</course>
  <speed>4.974374332516603</speed>
  <fix>3d</fix>
</trkpt>
<trkpt lat="40.0713247" lon="-105.2293141">
  <ele>1583.0</ele>
  <time>2026-08-28T17:54:18Z</time>
  <course>244.55</course>
  <speed>4.99</speed>
  <fix>3d</fix>
</trkpt>
<trkpt lat="40.0713182" lon="-105.2293326">
  <ele>1582.87</ele>
  <time>2026-08-28T17:54:18Z</time>
  <course>245.32</course>
  <speed>4.974374332516603</speed>
  <fix>3d</fix>
</trkpt>
<trkpt lat="40.0713208" lon="-105.2293246">
  <ele>1583.0</ele>
  <time>2026-08-28T17:54:18Z</time>
  <course>244.55</course>
  <speed>4.99</speed>
  <fix>3d</fix>
</trkpt>
<trkpt lat="40.0713163" lon="-105.2293379">
  <ele>1582.87</ele>
  <time>2026-08-28T17:54:18Z</time>
  <course>245.32</course>
  <speed>4.965329797707298</speed>
  <fix>3d</fix>
</trkpt>
<trkpt lat="40.0713208" lon="-105.2293246">
  <ele>1583.0</ele>
  <time>2026-08-28T17:54:18Z</time>
  <course>244.55</course>
  <speed>4.99</speed>
  <fix>3d</fix>
</trkpt>
<trkpt lat="40.0713143" lon="-105.2293431">
  <ele>1582.87</ele>
  <time>2026-08-28T17:54:18Z</time>
  <course>245.32</course>
  <speed>4.961068433311518</speed>
  <fix>3d</fix>
</trkpt>
<trkpt lat="40.071317" lon="-105.2293353">
  <ele>1583.0</ele>
  <time>2026-08-28T17:54:18Z</time>
  <course>244.55</course>
  <speed>4.99</speed>
  <fix>3d</fix>
</trkpt>
<trkpt lat="40.0713124" lon="-105.2293483">
  <ele>1582.87</ele>
  <time>2026-08-28T17:54:18Z</time>
  <course>245.32</course>
  <speed>4.961068433311518</speed>
  <fix>3d</fix>
</trkpt>
<trkpt lat="40.071317" lon="-105.2293353">
  <ele>1583.0</ele>
  <time>2026-08-28T17:54:18Z</time>
  <course>244.55</course>
  <speed>4.99</speed>
  <fix>3d</fix>
</trkpt>
<trkpt lat="40.0713105" lon="-105.2293536">
  <ele>1582.87</ele>
  <time>2026-08-28T17:54:18Z</time>
  <course>245.33</course>
  <speed>4.961068433311518</speed>
  <fix>3d</fix>
</trkpt>
<trkpt lat="40.0713132" lon="-105.2293459">
  <ele>1583.0</ele>
  <time>2026-08-28T17:54:18Z</time>
  <course>244.55</course>
  <speed>4.99</speed>
  <fix>3d</fix>
</trkpt>
<trkpt lat="40.071309" lon="-105.2293578">
  <ele>1582.87</ele>
  <time>2026-08-28T17:54:18Z</time>
  <course>245.33</course>
  <speed>4.961068433311518</speed>
  <fix>3d</fix>
</trkpt>
<trkpt lat="40.0713132" lon="-105.2293459">
  <ele>1583.0</ele>
  <time>2026-08-28T17:54:18Z</time>
  <course>244.55</course>
  <speed>4.99</speed>
  <fix>3d</fix>
</trkpt>
<trkpt lat="40.0713071" lon="-105.2293631">
  <ele>1582.87</ele>
  <time>2026-08-28T17:54:18Z</time>
  <course>245.33</course>
  <speed>4.961068433311518</speed>
  <fix>3d</fix>
</trkpt>
<trkpt lat="40.0713093" lon="-105.2293565">
  <ele>1583.0</ele>
  <time>2026-08-28T17:54:18Z</time>
  <course>244.55</course>
  <speed>4.99</speed>
  <fix>3d</fix>
</trkpt>
<trkpt lat="40.0713051" lon="-105.2293684">
  <ele>1582.87</ele>
  <time>2026-08-28T17:54:18Z</time>
  <course>245.33</course>
  <speed>4.974374332516603</speed>
  <fix>3d</fix>
</trkpt>
<trkpt lat="40.0713093" lon="-105.2293565">
  <ele>1583.0</ele>
  <time>2026-08-28T17:54:18Z</time>
  <course>244.55</course>
  <speed>4.99</speed>
  <fix>3d</fix>
</trkpt>
<trkpt lat="40.0713032" lon="-105.2293736">
  <ele>1582.87</ele>
  <time>2026-08-28T17:54:18Z</time>
  <course>245.33</course>
  <speed>4.974374332516603</speed>
  <fix>3d</fix>
</trkpt>
<trkpt lat="40.0713054" lon="-105.229367">
  <ele>1583.0</ele>
  <time>2026-08-28T17:54:18Z</time>
  <course>244.55</course>
  <speed>5.0</speed>
  <fix>3d</fix>
</trkpt>
<trkpt lat="40.0713013" lon="-105.229379">
  <ele>1582.87</ele>
  <time>2026-08-28T17:54:18Z</time>
  <course>245.33</course>
  <speed>4.974374332516603</speed>
  <fix>3d</fix>
</trkpt>
<trkpt lat="40.0713054" lon="-105.229367">
  <ele>1583.0</ele>
  <time>2026-08-28T17:54:18Z</time>
  <course>244.55</course>
  <speed>5.0</speed>
  <fix>3d</fix>
</trkpt>
<trkpt lat="40.0712993" lon="-105.2293843">
  <ele>1582.87</ele>
  <time>2026-08-28T17:54:18Z</time>
  <course>245.33</course>
  <speed>4.974374332516603</speed>
  <fix>3d</fix>
</trkpt>
<trkpt lat="40.0713016" lon="-105.2293776">
  <ele>1583.0</ele>
  <time>2026-08-28T17:54:18Z</time>
  <course>244.55</course>
  <speed>5.0</speed>
  <fix>3d</fix>
</trkpt>
<trkpt lat="40.0712974" lon="-105.2293897">
  <ele>1582.87</ele>
  <time>2026-08-28T17:54:18Z</time>
  <course>245.33</course>
  <speed>4.9834225187114125</speed>
  <fix>3d</fix>
</trkpt>
<trkpt lat="40.0713016" lon="-105.2293776">
  <ele>1583.0</ele>
  <time>2026-08-28T17:54:18Z</time>
  <course>244.55</course>
  <speed>5.0</speed>
  <fix>3d</fix>
</trkpt>
<trkpt lat="40.071295" lon="-105.2293961">
  <ele>1582.87</ele>
  <time>2026-08-28T17:54:18Z</time>
  <course>245.34</course>
  <speed>4.9834225187114125</speed>
  <fix>3d</fix>
</trkpt>
<trkpt lat="40.0712977" lon="-105.2293883">
  <ele>1583.0</ele>
  <time>2026-08-28T17:54:18Z</time>
  <course>244.55</course>
  <speed>5.0</speed>
  <fix>3d</fix>
</trkpt>
<trkpt lat="40.0712931" lon="-105.2294015">
  <ele>1582.87</ele>
  <time>2026-08-28T17:54:18Z</time>
  <course>245.34</course>
  <speed>4.9834225187114125</speed>
  <fix>3d</fix>
</trkpt>
<trkpt lat="40.0712977" lon="-105.2293883">
  <ele>1583.0</ele>
  <time>2026-08-28T17:54:18Z</time>
  <course>244.55</course>
  <speed>5.0</speed>
  <fix>3d</fix>
</trkpt>
<trkpt lat="40.0712912" lon="-105.2294068">
  <ele>1582.87</ele>
  <time>2026-08-28T17:54:18Z</time>
  <course>245.34</course>
  <speed>4.9834225187114125</speed>
  <fix>3d</fix>
</trkpt>
<trkpt lat="40.0712939" lon="-105.2293988">
  <ele>1583.0</ele>
  <time>2026-08-28T17:54:18Z</time>
  <course>244.55</course>
  <speed>5.01</speed>
  <fix>3d</fix>
</trkpt>
<trkpt lat="40.0712892" lon="-105.2294122">
  <ele>1582.87</ele>
  <time>2026-08-28T17:54:18Z</time>
  <course>245.34</course>
  <speed>4.9834225187114125</speed>
  <fix>3d</fix>
</trkpt>
<trkpt lat="40.0712939" lon="-105.2293988">
  <ele>1583.0</ele>
  <time>2026-08-28T17:54:18Z</time>
  <course>244.55</course>
  <speed>5.01</speed>
  <fix>3d</fix>
</trkpt>
<trkpt lat="40.0712873" lon="-105.2294175">
  <ele>1582.87</ele>
  <time>2026-08-28T17:54:18Z</time>
  <course>245.34</course>
  <speed>4.9834225187114125</speed>
  <fix>3d</fix>
</trkpt>
<trkpt lat="40.07129" lon="-105.2294095">
  <ele>1583.0</ele>
  <time>2026-08-28T17:54:18Z</time>
  <course>244.55</course>
  <speed>5.0</speed>
  <fix>3d</fix>
</trkpt>
<trkpt lat="40.0712853" lon="-105.2294229">
  <ele>1582.88</ele>
  <time>2026-08-28T17:54:18Z</time>
  <course>245.34</course>
  <speed>4.9834225187114125</speed>
  <fix>3d</fix>
</trkpt>
<trkpt lat="40.07129" lon="-105.2294095">
  <ele>1583.0</ele>
  <time>2026-08-28T17:54:18Z</time>
  <course>244.55</course>
  <speed>5.0</speed>
  <fix>3d</fix>
</trkpt>
<trkpt lat="40.0712834" lon="-105.2294282">
  <ele>1582.88</ele>
  <time>2026-08-28T17:54:18Z</time>
  <course>245.34</course>
  <speed>4.9834225187114125</speed>
  <fix>3d</fix>
</trkpt>
<trkpt lat="40.0712861" lon="-105.2294201">
  <ele>1583.0</ele>
  <time>2026-08-28T17:54:18Z</time>
  <course>244.55</course>
  <speed>5.0</speed>
  <fix>3d</fix>
</trkpt>
<trkpt lat="40.0712815" lon="-105.2294335">
  <ele>1582.88</ele>
  <time>2026-08-28T17:54:18Z</time>
  <course>245.34</course>
  <speed>4.9834225187114125</speed>
  <fix>3d</fix>
</trkpt>
<trkpt lat="40.0712861" lon="-105.2294201">
  <ele>1583.0</ele>
  <time>2026-08-28T17:54:18Z</time>
  <course>244.55</course>
  <speed>5.0</speed>
  <fix>3d</fix>
</trkpt>
<trkpt lat="40.0712795" lon="-105.2294387">
  <ele>1582.89</ele>
  <time>2026-08-28T17:54:18Z</time>
  <course>245.35</course>
  <speed>4.9834225187114125</speed>
  <fix>3d</fix>
</trkpt>
<trkpt lat="40.0712822" lon="-105.2294307">
  <ele>1583.0</ele>
  <time>2026-08-28T17:54:18Z</time>
  <course>244.55</course>
  <speed>5.0</speed>
  <fix>3d</fix>
</trkpt>
<trkpt lat="40.0712776" lon="-105.229444">
  <ele>1582.89</ele>
  <time>2026-08-28T17:54:18Z</time>
  <course>245.35</course>
  <speed>4.974374332516603</speed>
  <fix>3d</fix>
</trkpt>
<trkpt lat="40.0712822" lon="-105.2294307">
  <ele>1583.0</ele>
  <time>2026-08-28T17:54:18Z</time>
  <course>244.55</course>
  <speed>5.0</speed>
  <fix>3d</fix>
</trkpt>
<trkpt lat="40.0712757" lon="-105.2294493">
  <ele>1582.89</ele>
  <time>2026-08-28T17:54:18Z</time>
  <course>245.35</course>
  <speed>4.974374332516603</speed>
  <fix>3d</fix>
</trkpt>
<trkpt lat="40.0712784" lon="-105.2294414">
  <ele>1583.0</ele>
  <time>2026-08-28T17:54:18Z</time>
  <course>244.55</course>
  <speed>4.99</speed>
  <fix>3d</fix>
</trkpt>
<trkpt lat="40.0712738" lon="-105.2294545">
  <ele>1582.89</ele>
  <time>2026-08-28T17:54:18Z</time>
  <course>245.35</course>
  <speed>4.974374332516603</speed>
  <fix>3d</fix>
</trkpt>
<trkpt lat="40.0712784" lon="-105.2294414">
  <ele>1583.0</ele>
  <time>2026-08-28T17:54:18Z</time>
  <course>244.55</course>
  <speed>4.99</speed>
  <fix>3d</fix>
</trkpt>
<trkpt lat="40.0712719" lon="-105.2294597">
  <ele>1582.89</ele>
  <time>2026-08-28T17:54:18Z</time>
  <course>245.35</course>
  <speed>4.974374332516603</speed>
  <fix>3d</fix>
</trkpt>
<trkpt lat="40.0712745" lon="-105.229452">
  <ele>1583.0</ele>
  <time>2026-08-28T17:54:18Z</time>
  <course>244.55</course>
  <speed>4.99</speed>
  <fix>3d</fix>
</trkpt>
<trkpt lat="40.0712703" lon="-105.229464">
  <ele>1582.89</ele>
  <time>2026-08-28T17:54:18Z</time>
  <course>245.35</course>
  <speed>4.970120722879878</speed>
  <fix>3d</fix>
</trkpt>
<trkpt lat="40.0712745" lon="-105.229452">
  <ele>1583.0</ele>
  <time>2026-08-28T17:54:18Z</time>
  <course>244.55</course>
  <speed>4.99</speed>
  <fix>3d</fix>
</trkpt>
<trkpt lat="40.0712684" lon="-105.2294692">
  <ele>1582.88</ele>
  <time>2026-08-28T17:54:18Z</time>
  <course>245.35</course>
  <speed>4.961068433311518</speed>
  <fix>3d</fix>
</trkpt>
<trkpt lat="40.0712707" lon="-105.2294625">
  <ele>1583.0</ele>
  <time>2026-08-28T17:54:18Z</time>
  <course>244.55</course>
  <speed>4.99</speed>
  <fix>3d</fix>
</trkpt>
<trkpt lat="40.0712665" lon="-105.2294745">
  <ele>1582.88</ele>
  <time>2026-08-28T17:54:18Z</time>
  <course>245.35</course>
  <speed>4.974374332516603</speed>
  <fix>3d</fix>
</trkpt>
<trkpt lat="40.0712707" lon="-105.2294625">
  <ele>1583.0</ele>
  <time>2026-08-28T17:54:18Z</time>
  <course>244.55</course>
  <speed>4.99</speed>
  <fix>3d</fix>
</trkpt>
<trkpt lat="40.0712646" lon="-105.2294798">
  <ele>1582.88</ele>
  <time>2026-08-28T17:54:18Z</time>
  <course>245.35</course>
  <speed>4.974374332516603</speed>
  <fix>3d</fix>
</trkpt>
<trkpt lat="40.0712668" lon="-105.2294732">
  <ele>1583.0</ele>
  <time>2026-08-28T17:54:18Z</time>
  <course>244.55</course>
  <speed>4.99</speed>
  <fix>3d</fix>
</trkpt>
<trkpt lat="40.0712626" lon="-105.2294851">
  <ele>1582.88</ele>
  <time>2026-08-28T17:54:18Z</time>
  <course>245.35</course>
  <speed>4.974374332516603</speed>
  <fix>3d</fix>
</trkpt>
<trkpt lat="40.0712668" lon="-105.2294732">
  <ele>1583.0</ele>
  <time>2026-08-28T17:54:18Z</time>
  <course>244.55</course>
  <speed>4.99</speed>
  <fix>3d</fix>
</trkpt>
<trkpt lat="40.0712607" lon="-105.2294904">
  <ele>1582.88</ele>
  <time>2026-08-28T17:54:18Z</time>
  <course>245.36</course>
  <speed>4.974374332516603</speed>
  <fix>3d</fix>
</trkpt>
<trkpt lat="40.071263" lon="-105.2294838">
  <ele>1583.0</ele>
  <time>2026-08-28T17:54:18Z</time>
  <course>244.55</course>
  <speed>5.0</speed>
  <fix>3d</fix>
</trkpt>
<trkpt lat="40.0712588" lon="-105.2294958">
  <ele>1582.89</ele>
  <time>2026-08-28T17:54:18Z</time>
  <course>245.36</course>
  <speed>4.974374332516603</speed>
  <fix>3d</fix>
</trkpt>
<trkpt lat="40.071263" lon="-105.2294838">
  <ele>1583.0</ele>
  <time>2026-08-28T17:54:18Z</time>
  <course>244.55</course>
  <speed>5.0</speed>
  <fix>3d</fix>
</trkpt>
<trkpt lat="40.0712568" lon="-105.2295011">
  <ele>1582.89</ele>
  <time>2026-08-28T17:54:18Z</time>
  <course>245.36</course>
  <speed>4.974374332516603</speed>
  <fix>3d</fix>
</trkpt>
<trkpt lat="40.0712591" lon="-105.2294943">
  <ele>1583.0</ele>
  <time>2026-08-28T17:54:18Z</time>
  <course>244.55</course>
  <speed>5.0</speed>
  <fix>3d</fix>
</trkpt>
<trkpt lat="40.0712545" lon="-105.2295076">
  <ele>1582.89</ele>
  <time>2026-08-28T17:54:18Z</time>
  <course>245.37</course>
  <speed>4.9834225187114125</speed>
  <fix>3d</fix>
</trkpt>
<trkpt lat="40.0712591" lon="-105.2294943">
  <ele>1583.0</ele>
  <time>2026-08-28T17:54:18Z</time>
  <course>244.55</course>
  <speed>5.0</speed>
  <fix>3d</fix>
</trkpt>
<trkpt lat="40.0712525" lon="-105.2295129">
  <ele>1582.89</ele>
  <time>2026-08-28T17:54:18Z</time>
  <course>245.37</course>
  <speed>4.9834225187114125</speed>
  <fix>3d</fix>
</trkpt>
<trkpt lat="40.0712552" lon="-105.2295049">
  <ele>1583.0</ele>
  <time>2026-08-28T17:54:18Z</time>
  <course>244.55</course>
  <speed>5.0</speed>
  <fix>3d</fix>
</trkpt>
<trkpt lat="40.0712506" lon="-105.2295183">
  <ele>1582.89</ele>
  <time>2026-08-28T17:54:18Z</time>
  <course>245.39</course>
  <speed>4.9834225187114125</speed>
  <fix>3d</fix>
</trkpt>
<trkpt lat="40.0712552" lon="-105.2295049">
  <ele>1583.0</ele>
  <time>2026-08-28T17:54:18Z</time>
  <course>244.55</course>
  <speed>5.0</speed>
  <fix>3d</fix>
</trkpt>
<trkpt lat="40.0712487" lon="-105.2295236">
  <ele>1582.9</ele>
  <time>2026-08-28T17:54:18Z</time>
  <course>245.4</course>
  <speed>4.9834225187114125</speed>
  <fix>3d</fix>
</trkpt>
<trkpt lat="40.0712513" lon="-105.2295156">
  <ele>1583.0</ele>
  <time>2026-08-28T17:54:18Z</time>
  <course>244.57</course>
  <speed>5.0</speed>
  <fix>3d</fix>
</trkpt>
<trkpt lat="40.0712467" lon="-105.2295289">
  <ele>1582.9</ele>
  <time>2026-08-28T17:54:18Z</time>
  <course>245.42</course>
  <speed>4.9834225187114125</speed>
  <fix>3d</fix>
</trkpt>
<trkpt lat="40.0712513" lon="-105.2295156">
  <ele>1583.0</ele>
  <time>2026-08-28T17:54:18Z</time>
  <course>244.57</course>
  <speed>5.0</speed>
  <fix>3d</fix>
</trkpt>
<trkpt lat="40.0712448" lon="-105.2295343">
  <ele>1582.9</ele>
  <time>2026-08-28T17:54:18Z</time>
  <course>245.43</course>
  <speed>4.979176638762678</speed>
  <fix>3d</fix>
</trkpt>
<trkpt lat="40.0712475" lon="-105.2295262">
  <ele>1583.0</ele>
  <time>2026-08-28T17:54:18Z</time>
  <course>244.6</course>
  <speed>4.99</speed>
  <fix>3d</fix>
</trkpt>
<trkpt lat="40.0712429" lon="-105.2295395">
  <ele>1582.9</ele>
  <time>2026-08-28T17:54:18Z</time>
  <course>245.45</course>
  <speed>4.979176638762678</speed>
  <fix>3d</fix>
</trkpt>
<trkpt lat="40.0712475" lon="-105.2295262">
  <ele>1583.0</ele>
  <time>2026-08-28T17:54:18Z</time>
  <course>244.6</course>
  <speed>4.99</speed>
  <fix>3d</fix>
</trkpt>
<trkpt lat="40.0712409" lon="-105.2295448">
  <ele>1582.9</ele>
  <time>2026-08-28T17:54:18Z</time>
  <course>245.46</course>
  <speed>4.970120722879878</speed>
  <fix>3d</fix>
</trkpt>
<trkpt lat="40.0712436" lon="-105.2295367">
  <ele>1583.0</ele>
  <time>2026-08-28T17:54:18Z</time>
  <course>244.63</course>
  <speed>4.99</speed>
  <fix>3d</fix>
</trkpt>
<trkpt lat="40.071239" lon="-105.2295501">
  <ele>1582.9</ele>
  <time>2026-08-28T17:54:18Z</time>
  <course>245.46</course>
  <speed>4.970120722879878</speed>
  <fix>3d</fix>
</trkpt>
<trkpt lat="40.0712436" lon="-105.2295367">
  <ele>1583.0</ele>
  <time>2026-08-28T17:54:18Z</time>
  <course>244.63</course>
  <speed>4.99</speed>
  <fix>3d</fix>
</trkpt>
<trkpt lat="40.0712371" lon="-105.2295553">
  <ele>1582.9</ele>
  <time>2026-08-28T17:54:18Z</time>
  <course>245.48</course>
  <speed>4.970120722879878</speed>
  <fix>3d</fix>
</trkpt>
<trkpt lat="40.0712398" lon="-105.2295474">
  <ele>1583.0</ele>
  <time>2026-08-28T17:54:18Z</time>
  <course>244.65</course>
  <speed>4.99</speed>
  <fix>3d</fix>
</trkpt>
<trkpt lat="40.0712352" lon="-105.2295606">
  <ele>1582.9</ele>
  <time>2026-08-28T17:54:18Z</time>
  <course>245.5</course>
  <speed>4.965883607174055</speed>
  <fix>3d</fix>
</trkpt>
<trkpt lat="40.0712398" lon="-105.2295474">
  <ele>1583.0</ele>
  <time>2026-08-28T17:54:18Z</time>
  <course>244.65</course>
  <speed>4.99</speed>
  <fix>3d</fix>
</trkpt>
<trkpt lat="40.0712333" lon="-105.2295658">
  <ele>1582.91</ele>
  <time>2026-08-28T17:54:18Z</time>
  <course>245.52</course>
  <speed>4.965883607174055</speed>
  <fix>3d</fix>
</trkpt>
<trkpt lat="40.071236" lon="-105.229558">
  <ele>1583.0</ele>
  <time>2026-08-28T17:54:18Z</time>
  <course>244.67</course>
  <speed>4.99</speed>
  <fix>3d</fix>
</trkpt>
<trkpt lat="40.0712314" lon="-105.229571">
  <ele>1582.9</ele>
  <time>2026-08-28T17:54:18Z</time>
  <course>245.53</course>
  <speed>4.956823579672773</speed>
  <fix>3d</fix>
</trkpt>
<trkpt lat="40.071236" lon="-105.229558">
  <ele>1583.0</ele>
  <time>2026-08-28T17:54:18Z</time>
  <course>244.67</course>
  <speed>4.99</speed>
  <fix>3d</fix>
</trkpt>
<trkpt lat="40.0712299" lon="-105.2295753">
  <ele>1582.9</ele>
  <time>2026-08-28T17:54:18Z</time>
  <course>245.58</course>
  <speed>4.9435311266340785</speed>
  <fix>3d</fix>
</trkpt>
<trkpt lat="40.0712322" lon="-105.2295685">
  <ele>1583.0</ele>
  <time>2026-08-28T17:54:18Z</time>
  <course>244.72</course>
  <speed>4.98</speed>
  <fix>3d</fix>
</trkpt>
<trkpt lat="40.071228" lon="-105.2295805">
  <ele>1582.9</ele>
  <time>2026-08-28T17:54:18Z</time>
  <course>245.6</course>
  <speed>4.930243401699352</speed>
  <fix>3d</fix>
</trkpt>
<trkpt lat="40.0712322" lon="-105.2295685">
  <ele>1583.0</ele>
  <time>2026-08-28T17:54:18Z</time>
  <course>244.72</course>
  <speed>4.98</speed>
  <fix>3d</fix>
</trkpt>
<trkpt lat="40.0712261" lon="-105.2295858">
  <ele>1582.9</ele>
  <time>2026-08-28T17:54:18Z</time>
  <course>245.62</course>
  <speed>4.907891604344986</speed>
  <fix>3d</fix>
</trkpt>
<trkpt lat="40.0712283" lon="-105.2295791">
  <ele>1583.0</ele>
  <time>2026-08-28T17:54:18Z</time>
  <course>244.77</course>
  <speed>4.95</speed>
  <fix>3d</fix>
</trkpt>
<trkpt lat="40.0712243" lon="-105.229591">
  <ele>1582.9</ele>
  <time>2026-08-28T17:54:18Z</time>
  <course>245.67</course>
  <speed>4.872258203338571</speed>
  <fix>3d</fix>
</trkpt>
<trkpt lat="40.0712283" lon="-105.2295791">
  <ele>1583.0</ele>
  <time>2026-08-28T17:54:18Z</time>
  <course>244.77</course>
  <speed>4.95</speed>
  <fix>3d</fix>
</trkpt>
<trkpt lat="40.0712224" lon="-105.2295962">
  <ele>1582.9</ele>
  <time>2026-08-28T17:54:18Z</time>
  <course>245.71</course>
  <speed>4.827556317641463</speed>
  <fix>3d</fix>
</trkpt>
<trkpt lat="40.0712246" lon="-105.2295896">
  <ele>1583.0</ele>
  <time>2026-08-28T17:54:18Z</time>
  <course>244.84</course>
  <speed>4.89</speed>
  <fix>3d</fix>
</trkpt>
<trkpt lat="40.0712205" lon="-105.2296013">
  <ele>1582.9</ele>
  <time>2026-08-28T17:54:18Z</time>
  <course>245.75</course>
  <speed>4.773782567314938</speed>
  <fix>3d</fix>
</trkpt>
<trkpt lat="40.0712246" lon="-105.2295896">
  <ele>1583.0</ele>
  <time>2026-08-28T17:54:18Z</time>
  <course>244.84</course>
  <speed>4.89</speed>
  <fix>3d</fix>
</trkpt>
<trkpt lat="40.0712187" lon="-105.2296064">
  <ele>1582.89</ele>
  <time>2026-08-28T17:54:18Z</time>
  <course>245.82</course>
  <speed>4.702531233282773</speed>
  <fix>3d</fix>
</trkpt>
<trkpt lat="40.0712209" lon="-105.2295999">
  <ele>1583.0</ele>
  <time>2026-08-28T17:54:18Z</time>
  <course>244.93</course>
  <speed>4.79</speed>
  <fix>3d</fix>
</trkpt>
<trkpt lat="40.0712169" lon="-105.2296115">
  <ele>1582.89</ele>
  <time>2026-08-28T17:54:18Z</time>
  <course>245.86</course>
  <speed>4.635482714885257</speed>
  <fix>3d</fix>
</trkpt>
<trkpt lat="40.0712209" lon="-105.2295999">
  <ele>1583.0</ele>
  <time>2026-08-28T17:54:18Z</time>
  <course>244.93</course>
  <speed>4.79</speed>
  <fix>3d</fix>
</trkpt>
<trkpt lat="40.0712148" lon="-105.2296174">
  <ele>1582.9</ele>
  <time>2026-08-28T17:54:18Z</time>
  <course>245.93</course>
  <speed>4.5237373929086555</speed>
  <fix>3d</fix>
</trkpt>
<trkpt lat="40.0712173" lon="-105.2296099">
  <ele>1583.0</ele>
  <time>2026-08-28T17:54:18Z</time>
  <course>245.04</course>
  <speed>4.65</speed>
  <fix>3d</fix>
</trkpt>
<trkpt lat="40.0712131" lon="-105.2296222">
  <ele>1582.9</ele>
  <time>2026-08-28T17:54:18Z</time>
  <course>245.98</course>
  <speed>4.42108583947428</speed>
  <fix>3d</fix>
</trkpt>
<trkpt lat="40.0712173" lon="-105.2296099">
  <ele>1583.0</ele>
  <time>2026-08-28T17:54:18Z</time>
  <course>245.04</course>
  <speed>4.65</speed>
  <fix>3d</fix>
</trkpt>
<trkpt lat="40.0712114" lon="-105.2296269">
  <ele>1582.9</ele>
  <time>2026-08-28T17:54:18Z</time>
  <course>246.05</course>
  <speed>4.322603382222338</speed>
  <fix>3d</fix>
</trkpt>
<trkpt lat="40.0712138" lon="-105.2296196">
  <ele>1583.0</ele>
  <time>2026-08-28T17:54:18Z</time>
  <course>245.14</course>
  <speed>4.46</speed>
  <fix>3d</fix>
</trkpt>
<trkpt lat="40.0712098" lon="-105.2296315">
  <ele>1582.9</ele>
  <time>2026-08-28T17:54:18Z</time>
  <course>246.09</course>
  <speed>4.210866894120497</speed>
  <fix>3d</fix>
</trkpt>
<trkpt lat="40.0712138" lon="-105.2296196">
  <ele>1583.0</ele>
  <time>2026-08-28T17:54:18Z</time>
  <course>245.14</course>
  <speed>4.46</speed>
  <fix>3d</fix>
</trkpt>
<trkpt lat="40.0712083" lon="-105.2296359">
  <ele>1582.9</ele>
  <time>2026-08-28T17:54:18Z</time>
  <course>246.15</course>
  <speed>4.090036674652197</speed>
  <fix>3d</fix>
</trkpt>
<trkpt lat="40.0712106" lon="-105.2296289">
  <ele>1583.0</ele>
  <time>2026-08-28T17:54:18Z</time>
  <course>245.25</course>
  <speed>4.25</speed>
  <fix>3d</fix>
</trkpt>
<trkpt lat="40.0712068" lon="-105.2296402">
  <ele>1582.91</ele>
  <time>2026-08-28T17:54:18Z</time>
  <course>246.21</course>
  <speed>3.965059898664836</speed>
  <fix>3d</fix>
</trkpt>
<trkpt lat="40.0712106" lon="-105.2296289">
  <ele>1583.0</ele>
  <time>2026-08-28T17:54:18Z</time>
  <course>245.25</course>
  <speed>4.25</speed>
  <fix>3d</fix>
</trkpt>
<trkpt lat="40.0712053" lon="-105.2296443">
  <ele>1582.91</ele>
  <time>2026-08-28T17:54:18Z</time>
  <course>246.26</course>
  <speed>3.8351271165373384</speed>
  <fix>3d</fix>
</trkpt>
<trkpt lat="40.0712075" lon="-105.2296377">
  <ele>1583.0</ele>
  <time>2026-08-28T17:54:18Z</time>
  <course>245.35</course>
  <speed>4.01</speed>
  <fix>3d</fix>
</trkpt>
<trkpt lat="40.0712039" lon="-105.2296483">
  <ele>1582.91</ele>
  <time>2026-08-28T17:54:18Z</time>
  <course>246.32</course>
  <speed>3.710161721542607</speed>
  <fix>3d</fix>
</trkpt>
<trkpt lat="40.0712075" lon="-105.2296377">
  <ele>1583.0</ele>
  <time>2026-08-28T17:54:18Z</time>
  <course>245.35</course>
  <speed>4.01</speed>
  <fix>3d</fix>
</trkpt>
<trkpt lat="40.0712026" lon="-105.2296521">
  <ele>1582.91</ele>
  <time>2026-08-28T17:54:18Z</time>
  <course>246.37</course>
  <speed>3.5761012289922665</speed>
  <fix>3d</fix>
</trkpt>
<trkpt lat="40.0712046" lon="-105.2296461">
  <ele>1583.0</ele>
  <time>2026-08-28T17:54:18Z</time>
  <course>245.46</course>
  <speed>3.76</speed>
  <fix>3d</fix>
</trkpt>
<trkpt lat="40.0712013" lon="-105.2296559">
  <ele>1582.91</ele>
  <time>2026-08-28T17:54:18Z</time>
  <course>246.42</course>
  <speed>3.4461572802180696</speed>
  <fix>3d</fix>
</trkpt>
<trkpt lat="40.0712046" lon="-105.2296461">
  <ele>1583.0</ele>
  <time>2026-08-28T17:54:18Z</time>
  <course>245.46</course>
  <speed>3.76</speed>
  <fix>3d</fix>
</trkpt>
<trkpt lat="40.0712" lon="-105.2296594">
  <ele>1582.9</ele>
  <time>2026-08-28T17:54:18Z</time>
  <course>246.47</course>
  <speed>3.312099032335839</speed>
  <fix>3d</fix>
</trkpt>
<trkpt lat="40.0712019" lon="-105.2296538">
  <ele>1583.0</ele>
  <time>2026-08-28T17:54:18Z</time>
  <course>245.56</course>
  <speed>3.51</speed>
  <fix>3d</fix>
</trkpt>
<trkpt lat="40.0711988" lon="-105.2296629">
  <ele>1582.9</ele>
  <time>2026-08-28T17:54:18Z</time>
  <course>246.52</course>
  <speed>3.182153358969363</speed>
  <fix>3d</fix>
</trkpt>
<trkpt lat="40.0712019" lon="-105.2296538">
  <ele>1583.0</ele>
  <time>2026-08-28T17:54:18Z</time>
  <course>245.56</course>
  <speed>3.51</speed>
  <fix>3d</fix>
</trkpt>
<trkpt lat="40.0711977" lon="-105.2296662">
  <ele>1582.9</ele>
  <time>2026-08-28T17:54:18Z</time>
  <course>246.56</course>
  <speed>3.0572209602840292</speed>
  <fix>3d</fix>
</trkpt>
<trkpt lat="40.0711993" lon="-105.229661">
  <ele>1583.0</ele>
  <time>2026-08-28T17:54:18Z</time>
  <course>245.65</course>
  <speed>3.26</speed>
  <fix>3d</fix>
</trkpt>
<trkpt lat="40.0711968" lon="-105.2296687">
  <ele>1582.89</ele>
  <time>2026-08-28T17:54:18Z</time>
  <course>246.6</course>
  <speed>2.9496101437308626</speed>
  <fix>3d</fix>
</trkpt>
<trkpt lat="40.0711993" lon="-105.229661">
  <ele>1583.0</ele>
  <time>2026-08-28T17:54:18Z</time>
  <course>245.65</course>
  <speed>3.26</speed>
  <fix>3d</fix>
</trkpt>
<trkpt lat="40.0711957" lon="-105.2296718">
  <ele>1582.89</ele>
  <time>2026-08-28T17:54:18Z</time>
  <course>246.64</course>
  <speed>2.828780656042458</speed>
  <fix>3d</fix>
</trkpt>
<trkpt lat="40.071197" lon="-105.2296677">
  <ele>1583.0</ele>
  <time>2026-08-28T17:54:18Z</time>
  <course>245.73</course>
  <speed>3.01</speed>
  <fix>3d</fix>
</trkpt>
<trkpt lat="40.0711947" lon="-105.2296748">
  <ele>1582.89</ele>
  <time>2026-08-28T17:54:18Z</time>
  <course>246.68</course>
  <speed>2.7079512551004314</speed>
  <fix>3d</fix>
</trkpt>
<trkpt lat="40.071197" lon="-105.2296677">
  <ele>1583.0</ele>
  <time>2026-08-28T17:54:18Z</time>
  <course>245.73</course>
  <speed>3.01</speed>
  <fix>3d</fix>
</trkpt>
<trkpt lat="40.0711937" lon="-105.2296776">
  <ele>1582.89</ele>
  <time>2026-08-28T17:54:18Z</time>
  <course>246.72</course>
  <speed>2.587121953059036</speed>
  <fix>3d</fix>
</trkpt>
<trkpt lat="40.0711948" lon="-105.2296739">
  <ele>1583.0</ele>
  <time>2026-08-28T17:54:18Z</time>
  <course>245.81</course>
  <speed>2.76</speed>
  <fix>3d</fix>
</trkpt>
<trkpt lat="40.0711928" lon="-105.2296803">
  <ele>1582.9</ele>
  <time>2026-08-28T17:54:18Z</time>
  <course>246.79</course>
  <speed>2.4754191564258368</speed>
  <fix>3d</fix>
</trkpt>
<trkpt lat="40.0711948" lon="-105.2296739">
  <ele>1583.0</ele>
  <time>2026-08-28T17:54:18Z</time>
  <course>245.81</course>
  <speed>2.76</speed>
  <fix>3d</fix>
</trkpt>
<trkpt lat="40.0711919" lon="-105.2296829">
  <ele>1582.9</ele>
  <time>2026-08-28T17:54:18Z</time>
  <course>246.86</course>
  <speed>2.354591259645716</speed>
  <fix>3d</fix>
</trkpt>
<trkpt lat="40.0711929" lon="-105.2296796">
  <ele>1583.0</ele>
  <time>2026-08-28T17:54:18Z</time>
  <course>245.92</course>
  <speed>2.53</speed>
  <fix>3d</fix>
</trkpt>
<trkpt lat="40.071191" lon="-105.2296854">
  <ele>1582.9</ele>
  <time>2026-08-28T17:54:18Z</time>
  <course>246.92</course>
  <speed>2.242899908600471</speed>
  <fix>3d</fix>
</trkpt>
<trkpt lat="40.0711929" lon="-105.2296796">
  <ele>1583.0</ele>
  <time>2026-08-28T17:54:18Z</time>
  <course>245.92</course>
  <speed>2.53</speed>
  <fix>3d</fix>
</trkpt>
<trkpt lat="40.0711902" lon="-105.2296878">
  <ele>1582.9</ele>
  <time>2026-08-28T17:54:18Z</time>
  <course>246.99</course>
  <speed>2.1312203077110543</speed>
  <fix>3d</fix>
</trkpt>
<trkpt lat="40.0711911" lon="-105.2296848">
  <ele>1583.0</ele>
  <time>2026-08-28T17:54:18Z</time>
  <course>246.05</course>
  <speed>2.3</speed>
  <fix>3d</fix>
</trkpt>
<trkpt lat="40.0711893" lon="-105.2296905">
  <ele>1582.9</ele>
  <time>2026-08-28T17:54:18Z</time>
  <course>247.06</course>
  <speed>2.00124960961895</speed>
  <fix>3d</fix>
</trkpt>
<trkpt lat="40.0711911" lon="-105.2296848">
  <ele>1583.0</ele>
  <time>2026-08-28T17:54:18Z</time>
  <course>246.05</course>
  <speed>2.3</speed>
  <fix>3d</fix>
</trkpt>
<trkpt lat="40.0711885" lon="-105.2296926">
  <ele>1582.9</ele>
  <time>2026-08-28T17:54:18Z</time>
  <course>247.15</course>
  <speed>1.902761151589973</speed>
  <fix>3d</fix>
</trkpt>
<trkpt lat="40.0711895" lon="-105.2296895">
  <ele>1583.0</ele>
  <time>2026-08-28T17:54:18Z</time>
  <course>246.18</course>
  <speed>2.09</speed>
  <fix>3d</fix>
</trkpt>
<trkpt lat="40.0711879" lon="-105.2296946">
  <ele>1582.9</ele>
  <time>2026-08-28T17:54:18Z</time>
  <course>247.23</course>
  <speed>1.8002499826412999</speed>
  <fix>3d</fix>
</trkpt>
<trkpt lat="40.0711895" lon="-105.2296895">
  <ele>1583.0</ele>
  <time>2026-08-28T17:54:18Z</time>
  <course>246.18</course>
  <speed>2.09</speed>
  <fix>3d</fix>
</trkpt>
<trkpt lat="40.0711872" lon="-105.2296965">
  <ele>1582.9</ele>
  <time>2026-08-28T17:54:18Z</time>
  <course>247.31</course>
  <speed>1.6926015479137433</speed>
  <fix>3d</fix>
</trkpt>
<trkpt lat="40.0711881" lon="-105.2296938">
  <ele>1583.0</ele>
  <time>2026-08-28T17:54:18Z</time>
  <course>246.33</course>
  <speed>1.88</speed>
  <fix>3d</fix>
</trkpt>
<trkpt lat="40.0711866" lon="-105.2296983">
  <ele>1582.9</ele>
  <time>2026-08-28T17:54:18Z</time>
  <course>247.4</course>
  <speed>1.594114174079134</speed>
  <fix>3d</fix>
</trkpt>
<trkpt lat="40.0711881" lon="-105.2296938">
  <ele>1583.0</ele>
  <time>2026-08-28T17:54:18Z</time>
  <course>246.33</course>
  <speed>1.88</speed>
  <fix>3d</fix>
</trkpt>
<trkpt lat="40.071186" lon="-105.2297">
  <ele>1582.9</ele>
  <time>2026-08-28T17:54:18Z</time>
  <course>247.51</course>
  <speed>1.49164338901763</speed>
  <fix>3d</fix>
</trkpt>
<trkpt lat="40.0711869" lon="-105.2296977">
  <ele>1583.0</ele>
  <time>2026-08-28T17:54:18Z</time>
  <course>246.5</course>
  <speed>1.68</speed>
  <fix>3d</fix>
</trkpt>
<trkpt lat="40.0711855" lon="-105.2297016">
  <ele>1582.89</ele>
  <time>2026-08-28T17:54:18Z</time>
  <course>247.62</course>
  <speed>1.3931618714277247</speed>
  <fix>3d</fix>
</trkpt>
<trkpt lat="40.0711869" lon="-105.2296977">
  <ele>1583.0</ele>
  <time>2026-08-28T17:54:18Z</time>
  <course>246.5</course>
  <speed>1.68</speed>
  <fix>3d</fix>
</trkpt>
<trkpt lat="40.071185" lon="-105.2297031">
  <ele>1582.89</ele>
  <time>2026-08-28T17:54:18Z</time>
  <course>247.74</course>
  <speed>1.2946814279968644</speed>
  <fix>3d</fix>
</trkpt>
<trkpt lat="40.0711857" lon="-105.2297011">
  <ele>1583.0</ele>
  <time>2026-08-28T17:54:18Z</time>
  <course>246.71</course>
  <speed>1.48</speed>
  <fix>3d</fix>
</trkpt>
<trkpt lat="40.0711846" lon="-105.2297045">
  <ele>1582.89</ele>
  <time>2026-08-28T17:54:18Z</time>
  <course>247.88</course>
  <speed>1.2054044964243331</speed>
  <fix>3d</fix>
</trkpt>
<trkpt lat="40.0711857" lon="-105.2297011">
  <ele>1583.0</ele>
  <time>2026-08-28T17:54:18Z</time>
  <course>246.71</course>
  <speed>1.48</speed>
  <fix>3d</fix>
</trkpt>
<trkpt lat="40.0711842" lon="-105.2297058">
  <ele>1582.89</ele>
  <time>2026-08-28T17:54:18Z</time>
  <course>248.03</course>
  <speed>1.1069326989478627</speed>
  <fix>3d</fix>
</trkpt>
<trkpt lat="40.0711847" lon="-105.229704">
  <ele>1583.0</ele>
  <time>2026-08-28T17:54:18Z</time>
  <course>246.97</course>
  <speed>1.29</speed>
  <fix>3d</fix>
</trkpt>
<trkpt lat="40.0711838" lon="-105.2297069">
  <ele>1582.89</ele>
  <time>2026-08-28T17:54:18Z</time>
  <course>248.21</course>
  <speed>1.0084641788382966</speed>
  <fix>3d</fix>
</trkpt>
<trkpt lat="40.0711847" lon="-105.229704">
  <ele>1583.0</ele>
  <time>2026-08-28T17:54:18Z</time>
  <course>246.97</course>
  <speed>1.29</speed>
  <fix>3d</fix>
</trkpt>
<trkpt lat="40.0711835" lon="-105.229708">
  <ele>1582.89</ele>
  <time>2026-08-28T17:54:18Z</time>
  <course>248.41</course>
  <speed>0.9062008607367353</speed>
  <fix>3d</fix>
</trkpt>
<trkpt lat="40.0711838" lon="-105.2297067">
  <ele>1583.0</ele>
  <time>2026-08-28T17:54:18Z</time>
  <course>247.29</course>
  <speed>1.09</speed>
  <fix>3d</fix>
</trkpt>
<trkpt lat="40.0711832" lon="-105.229709">
  <ele>1582.89</ele>
  <time>2026-08-28T17:54:18Z</time>
  <course>248.63</course>
  <speed>0.8077747210701756</speed>
  <fix>3d</fix>
</trkpt>
<trkpt lat="40.0711838" lon="-105.2297067">
  <ele>1583.0</ele>
  <time>2026-08-28T17:54:18Z</time>
  <course>247.29</course>
  <speed>1.09</speed>
  <fix>3d</fix>
</trkpt>
<trkpt lat="40.0711829" lon="-105.2297097">
  <ele>1582.9</ele>
  <time>2026-08-28T17:54:18Z</time>
  <course>248.8</course>
  <speed>0.7316419889536138</speed>
  <fix>3d</fix>
</trkpt>
<trkpt lat="40.0711831" lon="-105.2297088">
  <ele>1583.0</ele>
  <time>2026-08-28T17:54:18Z</time>
  <course>247.68</course>
  <speed>0.9</speed>
  <fix>3d</fix>
</trkpt>
<trkpt lat="40.0711827" lon="-105.2297105">
  <ele>1582.9</ele>
  <time>2026-08-28T17:54:18Z</time>
  <course>249.01</course>
  <speed>0.6425729530566937</speed>
  <fix>3d</fix>
</trkpt>
<trkpt lat="40.0711831" lon="-105.2297088">
  <ele>1583.0</ele>
  <time>2026-08-28T17:54:18Z</time>
  <course>247.68</course>
  <speed>0.9</speed>
  <fix>3d</fix>
</trkpt>
<trkpt lat="40.0711825" lon="-105.2297111">
  <ele>1582.9</ele>
  <time>2026-08-28T17:54:18Z</time>
  <course>249.22</course>
  <speed>0.5478138369920935</speed>
  <fix>3d</fix>
</trkpt>
<trkpt lat="40.0711826" lon="-105.2297106">
  <ele>1583.0</ele>
  <time>2026-08-28T17:54:18Z</time>
  <course>248.09</course>
  <speed>0.71</speed>
  <fix>3d</fix>
</trkpt>
<trkpt lat="40.0711823" lon="-105.2297117">
  <ele>1582.91</ele>
  <time>2026-08-28T17:54:18Z</time>
  <course>249.41</course>
  <speed>0.44944410108488464</speed>
  <fix>3d</fix>
</trkpt>
<trkpt lat="40.0711826" lon="-105.2297106">
  <ele>1583.0</ele>
  <time>2026-08-28T17:54:18Z</time>
  <course>248.09</course>
  <speed>0.71</speed>
  <fix>3d</fix>
</trkpt>
<trkpt lat="40.0711822" lon="-105.2297122">
  <ele>1582.91</ele>
  <time>2026-08-28T17:54:18Z</time>
  <course>249.6</course>
  <speed>0.35114099732158877</speed>
  <fix>3d</fix>
</trkpt>
<trkpt lat="40.0711822" lon="-105.229712">
  <ele>1583.0</ele>
  <time>2026-08-28T17:54:18Z</time>
  <course>248.48</course>
  <speed>0.52</speed>
  <fix>3d</fix>
</trkpt>
<trkpt lat="40.0711821" lon="-105.2297126">
  <ele>1582.92</ele>
  <time>2026-08-28T17:54:18Z</time>
  <course>249.75</course>
  <speed>0.25632011235952595</speed>
  <fix>3d</fix>
</trkpt>
<trkpt lat="40.0711822" lon="-105.229712">
  <ele>1583.0</ele>
  <time>2026-08-28T17:54:18Z</time>
  <course>248.48</course>
  <speed>0.52</speed>
  <fix>3d</fix>
</trkpt>
<trkpt lat="40.071182" lon="-105.2297129">
  <ele>1582.92</ele>
  <time>2026-08-28T17:54:18Z</time>
  <course>249.86</course>
  <speed>0.15811388300841897</speed>
  <fix>3d</fix>
</trkpt>
<trkpt lat="40.071182" lon="-105.2297129">
  <ele>1583.0</ele>
  <time>2026-08-28T17:54:18Z</time>
  <course>248.8</course>
  <speed>0.32</speed>
  <fix>3d</fix>
</trkpt>
<trkpt lat="40.0711819" lon="-105.229713">
  <ele>1582.92</ele>
  <time>2026-08-28T17:54:18Z</time>
  <course>249.93</course>
  <speed>0.07280109889280519</speed>
  <fix>3d</fix>
</trkpt>
<trkpt lat="40.071182" lon="-105.2297129">
  <ele>1583.0</ele>
  <time>2026-08-28T17:54:18Z</time>
  <course>248.8</course>
  <speed>0.32</speed>
  <fix>3d</fix>
</trkpt>
<trkpt lat="40.0711819" lon="-105.2297131">
  <ele>1582.92</ele>
  <time>2026-08-28T17:54:18Z</time>
  <course>249.97</course>
  <speed>0.022360679774997897</speed>
  <fix>3d</fix>
</trkpt>
<trkpt lat="40.0711818" lon="-105.2297134">
  <ele>1583.0</ele>
  <time>2026-08-28T17:54:18Z</time>
  <course>248.98</course>
  <speed>0.14</speed>
  <fix>3d</fix>
</trkpt>
<trkpt lat="40.0711819" lon="-105.2297131">
  <ele>1582.92</ele>
  <time>2026-08-28T17:54:18Z</time>
  <course>249.97</course>
  <speed>0.09848857801796104</speed>
  <fix>3d</fix>
</trkpt>
<trkpt lat="40.0711818" lon="-105.2297134">
  <ele>1583.0</ele>
  <time>2026-08-28T17:54:18Z</time>
  <course>248.98</course>
  <speed>0.14</speed>
  <fix>3d</fix>
</trkpt>
<trkpt lat="40.071182" lon="-105.229713">
  <ele>1582.92</ele>
  <time>2026-08-28T17:54:18Z</time>
  <course>249.99</course>
  <speed>0.1615549442140351</speed>
  <fix>3d</fix>
</trkpt>
<trkpt lat="40.0711818" lon="-105.2297135">
  <ele>1583.0</ele>
  <time>2026-08-28T17:54:18Z</time>
  <course>69.11</course>
  <speed>0.02</speed>
  <fix>3d</fix>
</trkpt>
<trkpt lat="40.0711819" lon="-105.2297129">
  <ele>1582.93</ele>
  <time>2026-08-28T17:54:18Z</time>
  <course>250.03</course>
  <speed>0.22847319317591727</speed>
  <fix>3d</fix>
</trkpt>
<trkpt lat="40.0711818" lon="-105.2297135">
  <ele>1583.0</ele>
  <time>2026-08-28T17:54:18Z</time>
  <course>69.11</course>
  <speed>0.02</speed>
  <fix>3d</fix>
</trkpt>
<trkpt lat="40.071182" lon="-105.2297126">
  <ele>1582.93</ele>
  <time>2026-08-28T17:54:18Z</time>
  <course>250.07</course>
  <speed>0.2692582403567252</speed>
  <fix>3d</fix>
</trkpt>
<trkpt lat="40.0711818" lon="-105.2297133">
  <ele>1583.0</ele>
  <time>2026-08-28T17:54:18Z</time>
  <course>69.13</course>
  <speed>0.15</speed>
  <fix>3d</fix>
</trkpt>
<trkpt lat="40.0711821" lon="-105.2297124">
  <ele>1582.93</ele>
  <time>2026-08-28T17:54:18Z</time>
  <course>250.11</course>
  <speed>0.30463092423455634</speed>
  <fix>3d</fix>
</trkpt>
<trkpt lat="40.0711818" lon="-105.2297133">
  <ele>1583.0</ele>
  <time>2026-08-28T17:54:18Z</time>
  <course>69.13</course>
  <speed>0.15</speed>
  <fix>3d</fix>
</trkpt>
<trkpt lat="40.0711822" lon="-105.2297121">
  <ele>1582.93</ele>
  <time>2026-08-28T17:54:18Z</time>
  <course>250.15</course>
  <speed>0.3361547262794322</speed>
  <fix>3d</fix>
</trkpt>
<trkpt lat="40.0711819" lon="-105.229713">
  <ele>1583.0</ele>
  <time>2026-08-28T17:54:18Z</time>
  <course>69.2</course>
  <speed>0.23</speed>
  <fix>3d</fix>
</trkpt>
<trkpt lat="40.0711823" lon="-105.2297117">
  <ele>1582.93</ele>
  <time>2026-08-28T17:54:18Z</time>
  <course>250.18</course>
  <speed>0.3453983207834109</speed>
  <fix>3d</fix>
</trkpt>
<trkpt lat="40.0711819" lon="-105.229713">
  <ele>1583.0</ele>
  <time>2026-08-28T17:54:18Z</time>
  <course>69.2</course>
  <speed>0.23</speed>
  <fix>3d</fix>
</trkpt>
<trkpt lat="40.0711824" lon="-105.2297114">
  <ele>1582.93</ele>
  <time>2026-08-28T17:54:18Z</time>
  <course>250.2</course>
  <speed>0.34928498393145957</speed>
  <fix>3d</fix>
</trkpt>
<trkpt lat="40.071182" lon="-105.2297124">
  <ele>1583.0</ele>
  <time>2026-08-28T17:54:18Z</time>
  <course>69.26</course>
  <speed>0.28</speed>
  <fix>3d</fix>
</trkpt>
<trkpt lat="40.0711825" lon="-105.2297111">
  <ele>1582.93</ele>
  <time>2026-08-28T17:54:18Z</time>
  <course>250.22</course>
  <speed>0.34928498393145957</speed>
  <fix>3d</fix>
</trkpt>
<trkpt lat="40.071182" lon="-105.2297124">
  <ele>1583.0</ele>
  <time>2026-08-28T17:54:18Z</time>
  <course>69.26</course>
  <speed>0.28</speed>
  <fix>3d</fix>
</trkpt>
<trkpt lat="40.0711826" lon="-105.2297108">
  <ele>1582.92</ele>
  <time>2026-08-28T17:54:18Z</time>
  <course>250.22</course>
  <speed>0.3361547262794322</speed>
  <fix>3d</fix>
</trkpt>
<trkpt lat="40.0711821" lon="-105.2297117">
  <ele>1583.0</ele>
  <time>2026-08-28T17:54:18Z</time>
  <course>69.3</course>
  <speed>0.29</speed>
  <fix>3d</fix>
</trkpt>
<trkpt lat="40.0711827" lon="-105.2297105">
  <ele>1582.92</ele>
  <time>2026-08-28T17:54:18Z</time>
  <course>250.23</course>
  <speed>0.3178049716414141</speed>
  <fix>3d</fix>
</trkpt>
<trkpt lat="40.0711821" lon="-105.2297117">
  <ele>1583.0</ele>
  <time>2026-08-28T17:54:18Z</time>
  <course>69.3</course>
  <speed>0.29</speed>
  <fix>3d</fix>
</trkpt>
<trkpt lat="40.0711828" lon="-105.2297102">
  <ele>1582.92</ele>
  <time>2026-08-28T17:54:18Z</time>
  <course>250.22</course>
  <speed>0.29546573405388316</speed>
  <fix>3d</fix>
</trkpt>
<trkpt lat="40.0711824" lon="-105.2297112">
  <ele>1583.0</ele>
  <time>2026-08-28T17:54:18Z</time>
  <course>69.3</course>
  <speed>0.27</speed>
  <fix>3d</fix>
</trkpt>
<trkpt lat="40.0711828" lon="-105.22971">
  <ele>1582.92</ele>
  <time>2026-08-28T17:54:18Z</time>
  <course>250.22</course>
  <speed>0.2863564212655271</speed>
  <fix>3d</fix>
</trkpt>
<trkpt lat="40.0711824" lon="-105.2297112">
  <ele>1583.0</ele>
  <time>2026-08-28T17:54:18Z</time>
  <course>69.3</course>
  <speed>0.27</speed>
  <fix>3d</fix>
</trkpt>
<trkpt lat="40.0711829" lon="-105.2297098">
  <ele>1582.93</ele>
  <time>2026-08-28T17:54:18Z</time>
  <course>250.22</course>
  <speed>0.25495097567963926</speed>
  <fix>3d</fix>
</trkpt>
<trkpt lat="40.0711826" lon="-105.2297106">
  <ele>1583.0</ele>
  <time>2026-08-28T17:54:18Z</time>
  <course>69.3</course>
  <speed>0.23</speed>
  <fix>3d</fix>
</trkpt>
<trkpt lat="40.071183" lon="-105.2297096">
  <ele>1582.93</ele>
  <time>2026-08-28T17:54:18Z</time>
  <course>250.23</course>
  <speed>0.23259406699226015</speed>
  <fix>3d</fix>
</trkpt>
<trkpt lat="40.0711826" lon="-105.2297106">
  <ele>1583.0</ele>
  <time>2026-08-28T17:54:18Z</time>
  <course>69.3</course>
  <speed>0.23</speed>
  <fix>3d</fix>
</trkpt>
<trkpt lat="40.071183" lon="-105.2297094">
  <ele>1582.93</ele>
  <time>2026-08-28T17:54:18Z</time>
  <course>250.23</course>
  <speed>0.223606797749979</speed>
  <fix>3d</fix>
</trkpt>
<trkpt lat="40.0711827" lon="-105.22971">
  <ele>1583.0</ele>
  <time>2026-08-28T17:54:18Z</time>
  <course>69.3</course>
  <speed>0.2</speed>
  <fix>3d</fix>
</trkpt>
<trkpt lat="40.0711831" lon="-105.2297092">
  <ele>1582.93</ele>
  <time>2026-08-28T17:54:18Z</time>
  <course>250.22</course>
  <speed>0.21470910553583888</speed>
  <fix>3d</fix>
</trkpt>
<trkpt lat="40.0711827" lon="-105.22971">
  <ele>1583.0</ele>
  <time>2026-08-28T17:54:18Z</time>
  <course>69.3</course>
  <speed>0.2</speed>
  <fix>3d</fix>
</trkpt>
<trkpt lat="40.0711832" lon="-105.229709">
  <ele>1582.93</ele>
  <time>2026-08-28T17:54:18Z</time>
  <course>250.22</course>
  <speed>0.20591260281974003</speed>
  <fix>3d</fix>
</trkpt>
<trkpt lat="40.0711828" lon="-105.2297097">
  <ele>1583.0</ele>
  <time>2026-08-28T17:54:18Z</time>
  <course>69.29</course>
  <speed>0.17</speed>
  <fix>3d</fix>
</trkpt>
<trkpt lat="40.0711832" lon="-105.2297089">
  <ele>1582.94</ele>
  <time>2026-08-28T17:54:18Z</time>
  <course>250.22</course>
  <speed>0.1835755975068582</speed>
  <fix>3d</fix>
</trkpt>
<trkpt lat="40.0711828" lon="-105.2297097">
  <ele>1583.0</ele>
  <time>2026-08-28T17:54:18Z</time>
  <course>69.29</course>
  <speed>0.17</speed>
  <fix>3d</fix>
</trkpt>
<trkpt lat="40.0711833" lon="-105.2297087">
  <ele>1582.94</ele>
  <time>2026-08-28T17:54:18Z</time>
  <course>250.22</course>
  <speed>0.17492855684535902</speed>
  <fix>3d</fix>
</trkpt>
<trkpt lat="40.0711829" lon="-105.2297093">
  <ele>1583.0</ele>
  <time>2026-08-28T17:54:18Z</time>
  <course>69.29</course>
  <speed>0.16</speed>
  <fix>3d</fix>
</trkpt>
<trkpt lat="40.0711833" lon="-105.2297086">
  <ele>1582.94</ele>
  <time>2026-08-28T17:54:18Z</time>
  <course>250.21</course>
  <speed>0.1664331697709324</speed>
  <fix>3d</fix>
</trkpt>
<trkpt lat="40.0711829" lon="-105.2297093">
  <ele>1583.0</ele>
  <time>2026-08-28T17:54:18Z</time>
  <course>69.29</course>
  <speed>0.16</speed>
  <fix>3d</fix>
</trkpt>
<trkpt lat="40.0711834" lon="-105.2297084">
  <ele>1582.94</ele>
  <time>2026-08-28T17:54:18Z</time>
  <course>250.21</course>
  <speed>0.1664331697709324</speed>
  <fix>3d</fix>
</trkpt>
<trkpt lat="40.071183" lon="-105.229709">
  <ele>1583.0</ele>
  <time>2026-08-28T17:54:18Z</time>
  <course>69.28</course>
  <speed>0.14</speed>
  <fix>3d</fix>
</trkpt>
<trkpt lat="40.0711834" lon="-105.2297083">
  <ele>1582.94</ele>
  <time>2026-08-28T17:54:18Z</time>
  <course>250.21</course>
  <speed>0.15264337522473748</speed>
  <fix>3d</fix>
</trkpt>
<trkpt lat="40.071183" lon="-105.229709">
  <ele>1583.0</ele>
  <time>2026-08-28T17:54:18Z</time>
  <course>69.28</course>
  <speed>0.14</speed>
  <fix>3d</fix>
</trkpt>
<trkpt lat="40.0711834" lon="-105.2297082">
  <ele>1582.94</ele>
  <time>2026-08-28T17:54:18Z</time>
  <course>250.2</course>
  <speed>0.14422205101855956</speed>
  <fix>3d</fix>
</trkpt>
<trkpt lat="40.0711831" lon="-105.2297087">
  <ele>1583.0</ele>
  <time>2026-08-28T17:54:18Z</time>
  <course>69.28</course>
  <speed>0.13</speed>
  <fix>3d</fix>
</trkpt>
<trkpt lat="40.0711835" lon="-105.2297081">
  <ele>1582.95</ele>
  <time>2026-08-28T17:54:18Z</time>
  <course>250.2</course>
  <speed>0.13601470508735444</speed>
  <fix>3d</fix>
</trkpt>
<trkpt lat="40.0711831" lon="-105.2297087">
  <ele>1583.0</ele>
  <time>2026-08-28T17:54:18Z</time>
  <course>69.28</course>
  <speed>0.13</speed>
  <fix>3d</fix>
</trkpt>
<trkpt lat="40.0711835" lon="-105.229708">
  <ele>1582.95</ele>
  <time>2026-08-28T17:54:18Z</time>
  <course>250.19</course>
  <speed>0.13601470508735444</speed>
  <fix>3d</fix>
</trkpt>
<trkpt lat="40.0711832" lon="-105.2297084">
  <ele>1583.0</ele>
  <time>2026-08-28T17:54:18Z</time>
  <course>69.28</course>
  <speed>0.11</speed>
  <fix>3d</fix>
</trkpt>
<trkpt lat="40.0711836" lon="-105.2297079">
  <ele>1582.96</ele>
  <time>2026-08-28T17:54:18Z</time>
  <course>250.19</course>
  <speed>0.12206555615733702</speed>
  <fix>3d</fix>
</trkpt>
<trkpt lat="40.0711832" lon="-105.2297084">
  <ele>1583.0</ele>
  <time>2026-08-28T17:54:18Z</time>
  <course>69.28</course>
  <speed>0.11</speed>
  <fix>3d</fix>
</trkpt>
<trkpt lat="40.0711836" lon="-105.2297078">
  <ele>1582.96</ele>
  <time>2026-08-28T17:54:18Z</time>
  <course>250.19</course>
  <speed>0.11401754250991379</speed>
  <fix>3d</fix>
</trkpt>
<trkpt lat="40.0711833" lon="-105.2297082">
  <ele>1583.0</ele>
  <time>2026-08-28T17:54:18Z</time>
  <course>69.27</course>
  <speed>0.1</speed>
  <fix>3d</fix>
</trkpt>
<trkpt lat="40.0711836" lon="-105.2297077">
  <ele>1582.97</ele>
  <time>2026-08-28T17:54:18Z</time>
  <course>250.18</course>
  <speed>0.11401754250991379</speed>
  <fix>3d</fix>
</trkpt>
<trkpt lat="40.0711833" lon="-105.2297082">
  <ele>1583.0</ele>
  <time>2026-08-28T17:54:18Z</time>
  <course>69.27</course>
  <speed>0.1</speed>
  <fix>3d</fix>
</trkpt>
<trkpt lat="40.0711837" lon="-105.2297077">
  <ele>1582.98</ele>
  <time>2026-08-28T17:54:18Z</time>
  <course>250.18</course>
  <speed>0.1063014581273465</speed>
  <fix>3d</fix>
</trkpt>
<trkpt lat="40.0711833" lon="-105.2297079">
  <ele>1583.0</ele>
  <time>2026-08-28T17:54:18Z</time>
  <course>69.27</course>
  <speed>0.09</speed>
  <fix>3d</fix>
</trkpt>
<trkpt lat="40.0711837" lon="-105.2297076">
  <ele>1582.98</ele>
  <time>2026-08-28T17:54:18Z</time>
  <course>250.17</course>
  <speed>0.09899494936611665</speed>
  <fix>3d</fix>
</trkpt>
<trkpt lat="40.0711833" lon="-105.2297079">
  <ele>1583.0</ele>
  <time>2026-08-28T17:54:18Z</time>
  <course>69.27</course>
  <speed>0.09</speed>
  <fix>3d</fix>
</trkpt>
<trkpt lat="40.0711837" lon="-105.2297075">
  <ele>1582.99</ele>
  <time>2026-08-28T17:54:18Z</time>
  <course>250.17</course>
  <speed>0.09219544457292887</speed>
  <fix>3d</fix>
</trkpt>
<trkpt lat="40.0711833" lon="-105.2297077">
  <ele>1583.0</ele>
  <time>2026-08-28T17:54:18Z</time>
  <course>69.27</course>
  <speed>0.08</speed>
  <fix>3d</fix>
</trkpt>
<trkpt lat="40.0711837" lon="-105.2297074">
  <ele>1583.0</ele>
  <time>2026-08-28T17:54:18Z</time>
  <course>250.16</course>
  <speed>0.0848528137423857</speed>
  <fix>3d</fix>
</trkpt>
<trkpt lat="40.0711833" lon="-105.2297077">
  <ele>1583.0</ele>
  <time>2026-08-28T17:54:18Z</time>
  <course>69.27</course>
  <speed>0.08</speed>
  <fix>3d</fix>
</trkpt>
<trkpt lat="40.0711837" lon="-105.2297074">
  <ele>1583.0</ele>
  <time>2026-08-28T17:54:18Z</time>
  <course>250.16</course>
  <speed>0.0848528137423857</speed>
  <fix>3d</fix>
</trkpt>
<trkpt lat="40.0711834" lon="-105.2297075">
  <ele>1583.0</ele>
  <time>2026-08-28T17:54:18Z</time>
  <course>69.27</course>
  <speed>0.07</speed>
  <fix>3d</fix>
</trkpt>
<trkpt lat="40.0711837" lon="-105.2297073">
  <ele>1583.0</ele>
  <time>2026-08-28T17:54:18Z</time>
  <course>250.15</course>
  <speed>0.0848528137423857</speed>
  <fix>3d</fix>
</trkpt>
<trkpt lat="40.0711834" lon="-105.2297075">
  <ele>1583.0</ele>
  <time>2026-08-28T17:54:18Z</time>
  <course>69.27</course>
  <speed>0.07</speed>
  <fix>3d</fix>
</trkpt>
<trkpt lat="40.0711838" lon="-105.2297073">
  <ele>1583.01</ele>
  <time>2026-08-28T17:54:18Z</time>
  <course>250.15</course>
  <speed>0.07071067811865475</speed>
  <fix>3d</fix>
</trkpt>
<trkpt lat="40.0711834" lon="-105.2297074">
  <ele>1583.0</ele>
  <time>2026-08-28T17:54:18Z</time>
  <course>69.27</course>
  <speed>0.07</speed>
  <fix>3d</fix>
</trkpt>
<trkpt lat="40.0711838" lon="-105.2297072">
  <ele>1583.01</ele>
  <time>2026-08-28T17:54:18Z</time>
  <course>250.15</course>
  <speed>0.07071067811865475</speed>
  <fix>3d</fix>
</trkpt>
<trkpt lat="40.0711834" lon="-105.2297074">
  <ele>1583.0</ele>
  <time>2026-08-28T17:54:18Z</time>
  <course>69.27</course>
  <speed>0.07</speed>
  <fix>3d</fix>
</trkpt>
<trkpt lat="40.0711838" lon="-105.2297071">
  <ele>1583.0</ele>
  <time>2026-08-28T17:54:18Z</time>
  <course>250.14</course>
  <speed>0.06403124237432849</speed>
  <fix>3d</fix>
</trkpt>
<trkpt lat="40.0711835" lon="-105.2297072">
  <ele>1583.0</ele>
  <time>2026-08-28T17:54:18Z</time>
  <course>69.27</course>
  <speed>0.06</speed>
  <fix>3d</fix>
</trkpt>
<trkpt lat="40.0711838" lon="-105.2297071">
  <ele>1583.0</ele>
  <time>2026-08-28T17:54:18Z</time>
  <course>250.14</course>
  <speed>0.06403124237432849</speed>
  <fix>3d</fix>
</trkpt>
<trkpt lat="40.0711835" lon="-105.2297072">
  <ele>1583.0</ele>
  <time>2026-08-28T17:54:18Z</time>
  <course>69.27</course>
  <speed>0.06</speed>
  <fix>3d</fix>
</trkpt>
<trkpt lat="40.0711838" lon="-105.229707">
  <ele>1583.0</ele>
  <time>2026-08-28T17:54:18Z</time>
  <course>250.13</course>
  <speed>0.06403124237432849</speed>
  <fix>3d</fix>
</trkpt>
<trkpt lat="40.0711836" lon="-105.229707">
  <ele>1583.0</ele>
  <time>2026-08-28T17:54:18Z</time>
  <course>69.27</course>
  <speed>0.05</speed>
  <fix>3d</fix>
</trkpt>
<trkpt lat="40.0711838" lon="-105.229707">
  <ele>1583.0</ele>
  <time>2026-08-28T17:54:18Z</time>
  <course>250.13</course>
  <speed>0.0565685424949238</speed>
  <fix>3d</fix>
</trkpt>
<trkpt lat="40.0711836" lon="-105.229707">
  <ele>1583.0</ele>
  <time>2026-08-28T17:54:18Z</time>
  <course>69.27</course>
  <speed>0.05</speed>
  <fix>3d</fix>
</trkpt>
<trkpt lat="40.0711838" lon="-105.2297069">
  <ele>1582.99</ele>
  <time>2026-08-28T17:54:18Z</time>
  <course>250.12</course>
  <speed>0.05</speed>
  <fix>3d</fix>
</trkpt>
<trkpt lat="40.0711836" lon="-105.2297069">
  <ele>1583.0</ele>
  <time>2026-08-28T17:54:18Z</time>
  <course>69.27</course>
  <speed>0.05</speed>
  <fix>3d</fix>
</trkpt>
<trkpt lat="40.0711838" lon="-105.2297069">
  <ele>1582.99</ele>
  <time>2026-08-28T17:54:18Z</time>
  <course>250.12</course>
  <speed>0.05</speed>
  <fix>3d</fix>
</trkpt>
<trkpt lat="40.0711836" lon="-105.2297069">
  <ele>1583.0</ele>
  <time>2026-08-28T17:54:18Z</time>
  <course>69.27</course>
  <speed>0.05</speed>
  <fix>3d</fix>
</trkpt>
<trkpt lat="40.0711838" lon="-105.2297068">
  <ele>1582.99</ele>
  <time>2026-08-28T17:54:18Z</time>
  <course>250.12</course>
  <speed>0.05</speed>
  <fix>3d</fix>
</trkpt>
<trkpt lat="40.0711836" lon="-105.2297068">
  <ele>1583.0</ele>
  <time>2026-08-28T17:54:18Z</time>
  <course>69.27</course>
  <speed>0.04</speed>
  <fix>3d</fix>
</trkpt>
<trkpt lat="40.0711839" lon="-105.2297068">
  <ele>1582.99</ele>
  <time>2026-08-28T17:54:18Z</time>
  <course>250.11</course>
  <speed>0.05</speed>
  <fix>3d</fix>
</trkpt>
<trkpt lat="40.0711836" lon="-105.2297068">
  <ele>1583.0</ele>
  <time>2026-08-28T17:54:18Z</time>
  <course>69.27</course>
  <speed>0.04</speed>
  <fix>3d</fix>
</trkpt>
<trkpt lat="40.0711839" lon="-105.2297067">
  <ele>1582.99</ele>
  <time>2026-08-28T17:54:18Z</time>
  <course>250.11</course>
  <speed>0.044721359549995794</speed>
  <fix>3d</fix>
</trkpt>
<trkpt lat="40.0711837" lon="-105.2297067">
  <ele>1583.0</ele>
  <time>2026-08-28T17:54:18Z</time>
  <course>69.27</course>
  <speed>0.04</speed>
  <fix>3d</fix>
</trkpt>
<trkpt lat="40.0711839" lon="-105.2297067">
  <ele>1583.0</ele>
  <time>2026-08-28T17:54:18Z</time>
  <course>250.11</course>
  <speed>0.044721359549995794</speed>
  <fix>3d</fix>
</trkpt>
<trkpt lat="40.0711837" lon="-105.2297067">
  <ele>1583.0</ele>
  <time>2026-08-28T17:54:18Z</time>
  <course>69.27</course>
  <speed>0.04</speed>
  <fix>3d</fix>
</trkpt>
<trkpt lat="40.0711839" lon="-105.2297067">
  <ele>1583.0</ele>
  <time>2026-08-28T17:54:18Z</time>
  <course>250.1</course>
  <speed>0.044721359549995794</speed>
  <fix>3d</fix>
</trkpt>
<trkpt lat="40.0711837" lon="-105.2297066">
  <ele>1583.0</ele>
  <time>2026-08-28T17:54:18Z</time>
  <course>69.27</course>
  <speed>0.03</speed>
  <fix>3d</fix>
</trkpt>
<trkpt lat="40.0711839" lon="-105.2297066">
  <ele>1583.0</ele>
  <time>2026-08-28T17:54:18Z</time>
  <course>250.1</course>
  <speed>0.03605551275463989</speed>
  <fix>3d</fix>
</trkpt>
<trkpt lat="40.0711837" lon="-105.2297066">
  <ele>1583.0</ele>
  <time>2026-08-28T17:54:18Z</time>
  <course>69.27</course>
  <speed>0.03</speed>
  <fix>3d</fix>
</trkpt>
<trkpt lat="40.0711839" lon="-105.2297066">
  <ele>1583.01</ele>
  <time>2026-08-28T17:54:18Z</time>
  <course>250.1</course>
  <speed>0.03605551275463989</speed>
  <fix>3d</fix>
</trkpt>
<trkpt lat="40.0711837" lon="-105.2297066">
  <ele>1583.0</ele>
  <time>2026-08-28T17:54:18Z</time>
  <course>69.27</course>
  <speed>0.03</speed>
  <fix>3d</fix>
</trkpt>
<trkpt lat="40.0711839" lon="-105.2297066">
  <ele>1583.01</ele>
  <time>2026-08-28T17:54:18Z</time>
  <course>250.09</course>
  <speed>0.03605551275463989</speed>
  <fix>3d</fix>
</trkpt>
<trkpt lat="40.0711837" lon="-105.2297066">
  <ele>1583.0</ele>
  <time>2026-08-28T17:54:18Z</time>
  <course>69.27</course>
  <speed>0.03</speed>
  <fix>3d</fix>
</trkpt>
<trkpt lat="40.0711839" lon="-105.2297065">
  <ele>1583.02</ele>
  <time>2026-08-28T17:54:18Z</time>
  <course>250.09</course>
  <speed>0.0316227766016838</speed>
  <fix>3d</fix>
</trkpt>
<trkpt lat="40.0711838" lon="-105.2297065">
  <ele>1583.0</ele>
  <time>2026-08-28T17:54:18Z</time>
  <course>69.27</course>
  <speed>0.03</speed>
  <fix>3d</fix>
</trkpt>
<trkpt lat="40.0711839" lon="-105.2297065">
  <ele>1583.02</ele>
  <time>2026-08-28T17:54:18Z</time>
  <course>250.09</course>
  <speed>0.0316227766016838</speed>
  <fix>3d</fix>
</trkpt>
<trkpt lat="40.0711838" lon="-105.2297065">
  <ele>1583.0</ele>
  <time>2026-08-28T17:54:18Z</time>
  <course>69.27</course>
  <speed>0.03</speed>
  <fix>3d</fix>
</trkpt>
<trkpt lat="40.0711839" lon="-105.2297065">
  <ele>1583.02</ele>
  <time>2026-08-28T17:54:18Z</time>
  <course>250.09</course>
  <speed>0.0316227766016838</speed>
  <fix>3d</fix>
</trkpt>
<trkpt lat="40.0711838" lon="-105.2297064">
  <ele>1583.0</ele>
  <time>2026-08-28T17:54:18Z</time>
  <course>69.27</course>
  <speed>0.02</speed>
  <fix>3d</fix>
</trkpt>
<trkpt lat="40.0711839" lon="-105.2297065">
  <ele>1583.03</ele>
  <time>2026-08-28T17:54:18Z</time>
  <course>250.08</course>
  <speed>0.0316227766016838</speed>
  <fix>3d</fix>
</trkpt>
<trkpt lat="40.0711838" lon="-105.2297064">
  <ele>1583.0</ele>
  <time>2026-08-28T17:54:18Z</time>
  <course>69.27</course>
  <speed>0.02</speed>
  <fix>3d</fix>
</trkpt>
<trkpt lat="40.0711839" lon="-105.2297064">
  <ele>1583.03</ele>
  <time>2026-08-28T17:54:18Z</time>
  <course>250.08</course>
  <speed>0.0316227766016838</speed>
  <fix>3d</fix>
</trkpt>
<trkpt lat="40.0711838" lon="-105.2297064">
  <ele>1583.0</ele>
  <time>2026-08-28T17:54:18Z</time>
  <course>69.27</course>
  <speed>0.02</speed>
  <fix>3d</fix>
</trkpt>
<trkpt lat="40.0711839" lon="-105.2297064">
  <ele>1583.04</ele>
  <time>2026-08-28T17:54:18Z</time>
  <course>250.08</course>
  <speed>0.0316227766016838</speed>
  <fix>3d</fix>
</trkpt>
<trkpt lat="40.0711838" lon="-105.2297064">
  <ele>1583.0</ele>
  <time>2026-08-28T17:54:18Z</time>
  <course>69.27</course>
  <speed>0.02</speed>
  <fix>3d</fix>
</trkpt>
<trkpt lat="40.071184" lon="-105.2297064">
  <ele>1583.04</ele>
  <time>2026-08-28T17:54:18Z</time>
  <course>250.08</course>
  <speed>0.0316227766016838</speed>
  <fix>3d</fix>
</trkpt>
<trkpt lat="40.0711838" lon="-105.2297063">
  <ele>1583.0</ele>
  <time>2026-08-28T17:54:18Z</time>
  <course>69.27</course>
  <speed>0.02</speed>
  <fix>3d</fix>
</trkpt>
<trkpt lat="40.071184" lon="-105.2297064">
  <ele>1583.04</ele>
  <time>2026-08-28T17:54:18Z</time>
  <course>250.08</course>
  <speed>0.0316227766016838</speed>
  <fix>3d</fix>
</trkpt>
<trkpt lat="40.0711838" lon="-105.2297063">
  <ele>1583.0</ele>
  <time>2026-08-28T17:54:18Z</time>
  <course>69.27</course>
  <speed>0.02</speed>
  <fix>3d</fix>
</trkpt>
<trkpt lat="40.071184" lon="-105.2297063">
  <ele>1583.05</ele>
  <time>2026-08-28T17:54:18Z</time>
  <course>250.08</course>
  <speed>0.0316227766016838</speed>
  <fix>3d</fix>
</trkpt>
<trkpt lat="40.0711838" lon="-105.2297062">
  <ele>1583.0</ele>
  <time>2026-08-28T17:54:18Z</time>
  <course>69.27</course>
  <speed>0.02</speed>
  <fix>3d</fix>
</trkpt>
<trkpt lat="40.071184" lon="-105.2297063">
  <ele>1583.05</ele>
  <time>2026-08-28T17:54:18Z</time>
  <course>250.07</course>
  <speed>0.022360679774997897</speed>
  <fix>3d</fix>
</trkpt>
<trkpt lat="40.0711838" lon="-105.2297062">
  <ele>1583.0</ele>
  <time>2026-08-28T17:54:18Z</time>
  <course>69.27</course>
  <speed>0.02</speed>
  <fix>3d</fix>
</trkpt>
<trkpt lat="40.071184" lon="-105.2297063">
  <ele>1583.06</ele>
  <time>2026-08-28T17:54:18Z</time>
  <course>250.07</course>
  <speed>0.022360679774997897</speed>
  <fix>3d</fix>
</trkpt>
<trkpt lat="40.0711838" lon="-105.2297062">
  <ele>1583.0</ele>
  <time>2026-08-28T17:54:18Z</time>
  <course>69.28</course>
  <speed>0.01</speed>
  <fix>3d</fix>
</trkpt>
<trkpt lat="40.071184" lon="-105.2297063">
  <ele>1583.07</ele>
  <time>2026-08-28T17:54:18Z</time>
  <course>250.07</course>
  <speed>0.022360679774997897</speed>
  <fix>3d</fix>
</trkpt>
<trkpt lat="40.0711838" lon="-105.2297062">
  <ele>1583.0</ele>
  <time>2026-08-28T17:54:18Z</time>
  <course>69.28</course>
  <speed>0.01</speed>
  <fix>3d</fix>
</trkpt>
<trkpt lat="40.071184" lon="-105.2297062">
  <ele>1583.07</ele>
  <time>2026-08-28T17:54:18Z</time>
  <course>250.07</course>
  <speed>0.022360679774997897</speed>
  <fix>3d</fix>
</trkpt>
<trkpt lat="40.0711839" lon="-105.2297062">
  <ele>1583.0</ele>
  <time>2026-08-28T17:54:18Z</time>
  <course>69.28</course>
  <speed>0.01</speed>
  <fix>3d</fix>
</trkpt>
<trkpt lat="40.071184" lon="-105.2297062">
  <ele>1583.07</ele>
  <time>2026-08-28T17:54:18Z</time>
  <course>250.07</course>
  <speed>0.02</speed>
  <fix>3d</fix>
</trkpt>
<trkpt lat="40.0711839" lon="-105.2297062">
  <ele>1583.0</ele>
  <time>2026-08-28T17:54:18Z</time>
  <course>69.28</course>
  <speed>0.01</speed>
  <fix>3d</fix>
</trkpt>
<trkpt lat="40.071184" lon="-105.2297062">
  <ele>1583.06</ele>
  <time>2026-08-28T17:54:18Z</time>
  <course>250.07</course>
  <speed>0.02</speed>
  <fix>3d</fix>
</trkpt>
<trkpt lat="40.0711839" lon="-105.2297061">
  <ele>1583.0</ele>
  <time>2026-08-28T17:54:18Z</time>
  <course>69.28</course>
  <speed>0.01</speed>
  <fix>3d</fix>
</trkpt>
<trkpt lat="40.071184" lon="-105.2297062">
  <ele>1583.05</ele>
  <time>2026-08-28T17:54:18Z</time>
  <course>250.07</course>
  <speed>0.02</speed>
  <fix>3d</fix>
</trkpt>
<trkpt lat="40.0711839" lon="-105.2297061">
  <ele>1583.0</ele>
  <time>2026-08-28T17:54:18Z</time>
  <course>69.28</course>
  <speed>0.01</speed>
  <fix>3d</fix>
</trkpt>
<trkpt lat="40.071184" lon="-105.2297062">
  <ele>1583.05</ele>
  <time>2026-08-28T17:54:18Z</time>
  <course>250.07</course>
  <speed>0.02</speed>
  <fix>3d</fix>
</trkpt>
<trkpt lat="40.0711839" lon="-105.2297061">
  <ele>1583.0</ele>
  <time>2026-08-28T17:54:18Z</time>
  <course>69.28</course>
  <speed>0.01</speed>
  <fix>3d</fix>
</trkpt>
<trkpt lat="40.071184" lon="-105.2297062">
  <ele>1583.04</ele>
  <time>2026-08-28T17:54:18Z</time>
  <course>250.07</course>
  <speed>0.02</speed>
  <fix>3d</fix>
</trkpt>
<trkpt lat="40.0711839" lon="-105.2297061">
  <ele>1583.0</ele>
  <time>2026-08-28T17:54:18Z</time>
  <course>69.28</course>
  <speed>0.01</speed>
  <fix>3d</fix>
</trkpt>
<trkpt lat="40.071184" lon="-105.2297061">
  <ele>1583.03</ele>
  <time>2026-08-28T17:54:18Z</time>
  <course>250.07</course>
  <speed>0.02</speed>
  <fix>3d</fix>
</trkpt>
<trkpt lat="40.0711839" lon="-105.2297061">
  <ele>1583.0</ele>
  <time>2026-08-28T17:54:18Z</time>
  <course>69.28</course>
  <speed>0.01</speed>
  <fix>3d</fix>
</trkpt>
<trkpt lat="40.071184" lon="-105.2297061">
  <ele>1583.02</ele>
  <time>2026-08-28T17:54:18Z</time>
  <course>250.07</course>
  <speed>0.02</speed>
  <fix>3d</fix>
</trkpt>
<trkpt lat="40.0711839" lon="-105.2297061">
  <ele>1583.0</ele>
  <time>2026-08-28T17:54:18Z</time>
  <course>69.28</course>
  <speed>0.01</speed>
  <fix>3d</fix>
</trkpt>
<trkpt lat="40.071184" lon="-105.2297061">
  <ele>1583.01</ele>
  <time>2026-08-28T17:54:18Z</time>
  <course>250.07</course>
  <speed>0.02</speed>
  <fix>3d</fix>
</trkpt>
<trkpt lat="40.0711839" lon="-105.2297061">
  <ele>1583.0</ele>
  <time>2026-08-28T17:54:18Z</time>
  <course>69.28</course>
  <speed>0.01</speed>
  <fix>3d</fix>
</trkpt>
<trkpt lat="40.071184" lon="-105.2297061">
  <ele>1583.01</ele>
  <time>2026-08-28T17:54:18Z</time>
  <course>250.07</course>
  <speed>0.02</speed>
  <fix>3d</fix>
</trkpt>
<trkpt lat="40.0711839" lon="-105.2297061">
  <ele>1583.0</ele>
  <time>2026-08-28T17:54:18Z</time>
  <course>69.28</course>
  <speed>0.01</speed>
  <fix>3d</fix>
</trkpt>
<trkpt lat="40.071184" lon="-105.2297061">
  <ele>1583.0</ele>
  <time>2026-08-28T17:54:18Z</time>
  <course>250.07</course>
  <speed>0.02</speed>
  <fix>3d</fix>
</trkpt>
<trkpt lat="40.0711839" lon="-105.229706">
  <ele>1583.0</ele>
  <time>2026-08-28T17:54:18Z</time>
  <course>69.28</course>
  <speed>0.01</speed>
  <fix>3d</fix>
</trkpt>
<trkpt lat="40.071184" lon="-105.2297061">
  <ele>1583.0</ele>
  <time>2026-08-28T17:54:18Z</time>
  <course>250.07</course>
  <speed>0.02</speed>
  <fix>3d</fix>
</trkpt>
<trkpt lat="40.0711839" lon="-105.229706">
  <ele>1583.0</ele>
  <time>2026-08-28T17:54:18Z</time>
  <course>69.28</course>
  <speed>0.01</speed>
  <fix>3d</fix>
</trkpt>
<trkpt lat="40.071184" lon="-105.2297061">
  <ele>1583.0</ele>
  <time>2026-08-28T17:54:18Z</time>
  <course>250.07</course>
  <speed>0.02</speed>
  <fix>3d</fix>
</trkpt>
<trkpt lat="40.0711839" lon="-105.2297059">
  <ele>1583.0</ele>
  <time>2026-08-28T17:54:18Z</time>
  <course>69.28</course>
  <speed>0.0</speed>
  <fix>3d</fix>
</trkpt>
<trkpt lat="40.071184" lon="-105.229706">
  <ele>1582.99</ele>
  <time>2026-08-28T17:54:18Z</time>
  <course>250.06</course>
  <speed>0.02</speed>
  <fix>3d</fix>
</trkpt>
<trkpt lat="40.0711839" lon="-105.2297059">
  <ele>1583.0</ele>
  <time>2026-08-28T17:54:18Z</time>
  <course>69.28</course>
  <speed>0.0</speed>
  <fix>3d</fix>
</trkpt>
<trkpt lat="40.071184" lon="-105.229706">
  <ele>1582.99</ele>
  <time>2026-08-28T17:54:18Z</time>
  <course>250.06</course>
  <speed>0.02</speed>
  <fix>3d</fix>
</trkpt>
<trkpt lat="40.0711839" lon="-105.2297059">
  <ele>1583.0</ele>
  <time>2026-08-28T17:54:18Z</time>
  <course>69.28</course>
  <speed>0.0</speed>
  <fix>3d</fix>
</trkpt>
<trkpt lat="40.071184" lon="-105.229706">
  <ele>1582.99</ele>
  <time>2026-08-28T17:54:18Z</time>
  <course>250.06</course>
  <speed>0.02</speed>
  <fix>3d</fix>
</trkpt>
<trkpt lat="40.0711839" lon="-105.2297059">
  <ele>1583.0</ele>
  <time>2026-08-28T17:54:18Z</time>
  <course>69.28</course>
  <speed>0.0</speed>
  <fix>3d</fix>
</trkpt>
<trkpt lat="40.071184" lon="-105.229706">
  <ele>1582.99</ele>
  <time>2026-08-28T17:54:18Z</time>
  <course>250.07</course>
  <speed>0.02</speed>
  <fix>3d</fix>
</trkpt>
<trkpt lat="40.0711839" lon="-105.2297059">
  <ele>1583.0</ele>
  <time>2026-08-28T17:54:18Z</time>
  <course>69.29</course>
  <speed>0.0</speed>
  <fix>3d</fix>
</trkpt>
<trkpt lat="40.071184" lon="-105.229706">
  <ele>1582.99</ele>
  <time>2026-08-28T17:54:18Z</time>
  <course>250.07</course>
  <speed>0.02</speed>
  <fix>3d</fix>
</trkpt>
<trkpt lat="40.0711839" lon="-105.2297059">
  <ele>1583.0</ele>
  <time>2026-08-28T17:54:18Z</time>
  <course>69.29</course>
  <speed>0.0</speed>
  <fix>3d</fix>
</trkpt>
<trkpt lat="40.071184" lon="-105.229706">
  <ele>1583.0</ele>
  <time>2026-08-28T17:54:18Z</time>
  <course>250.07</course>
  <speed>0.02</speed>
  <fix>3d</fix>
</trkpt>
<trkpt lat="40.0711839" lon="-105.2297059">
  <ele>1583.0</ele>
  <time>2026-08-28T17:54:18Z</time>
  <course>69.29</course>
  <speed>0.0</speed>
  <fix>3d</fix>
</trkpt>
<trkpt lat="40.071184" lon="-105.2297059">
  <ele>1583.0</ele>
  <time>2026-08-28T17:54:18Z</time>
  <course>250.07</course>
  <speed>0.022360679774997897</speed>
  <fix>3d</fix>
</trkpt>
<trkpt lat="40.0711839" lon="-105.2297059">
  <ele>1583.0</ele>
  <time>2026-08-28T17:54:18Z</time>
  <course>69.29</course>
  <speed>0.0</speed>
  <fix>3d</fix>
</trkpt>
<trkpt lat="40.071184" lon="-105.2297059">
  <ele>1583.0</ele>
  <time>2026-08-28T17:54:18Z</time>
  <course>250.07</course>
  <speed>0.022360679774997897</speed>
  <fix>3d</fix>
</trkpt>
<trkpt lat="40.0711839" lon="-105.2297059">
  <ele>1583.0</ele>
  <time>2026-08-28T17:54:18Z</time>
  <course>69.29</course>
  <speed>0.0</speed>
  <fix>3d</fix>
</trkpt>
<trkpt lat="40.071184" lon="-105.2297059">
  <ele>1583.0</ele>
  <time>2026-08-28T17:54:18Z</time>
  <course>250.07</course>
  <speed>0.022360679774997897</speed>
  <fix>3d</fix>
</trkpt>
<trkpt lat="40.0711839" lon="-105.2297059">
  <ele>1583.0</ele>
  <time>2026-08-28T17:54:18Z</time>
  <course>69.29</course>
  <speed>0.0</speed>
  <fix>3d</fix>
</trkpt>
<trkpt lat="40.071184" lon="-105.2297059">
  <ele>1583.0</ele>
  <time>2026-08-28T17:54:18Z</time>
  <course>250.07</course>
  <speed>0.022360679774997897</speed>
  <fix>3d</fix>
</trkpt>
<trkpt lat="40.0711839" lon="-105.2297059">
  <ele>1583.0</ele>
  <time>2026-08-28T17:54:18Z</time>
  <course>69.29</course>
  <speed>0.0</speed>
  <fix>3d</fix>
</trkpt>
<trkpt lat="40.071184" lon="-105.2297059">
  <ele>1583.0</ele>
  <time>2026-08-28T17:54:18Z</time>
  <course>250.07</course>
  <speed>0.022360679774997897</speed>
  <fix>3d</fix>
</trkpt>
<trkpt lat="40.0711839" lon="-105.2297059">
  <ele>1583.0</ele>
  <time>2026-08-28T17:54:18Z</time>
  <course>69.29</course>
  <speed>0.0</speed>
  <fix>3d</fix>
</trkpt>
<trkpt lat="40.0711841" lon="-105.2297059">
  <ele>1583.0</ele>
  <time>2026-08-28T17:54:18Z</time>
  <course>250.07</course>
  <speed>0.022360679774997897</speed>
  <fix>3d</fix>
</trkpt>
<trkpt lat="40.0711839" lon="-105.2297059">
  <ele>1583.0</ele>
  <time>2026-08-28T17:54:18Z</time>
  <course>69.3</course>
  <speed>0.0</speed>
  <fix>3d</fix>
</trkpt>
<trkpt lat="40.071184" lon="-105.2297059">
  <ele>1583.0</ele>
  <time>2026-08-28T17:54:18Z</time>
  <course>250.07</course>
  <speed>0.022360679774997897</speed>
  <fix>3d</fix>
</trkpt>
<trkpt lat="40.0711839" lon="-105.2297059">
  <ele>1583.0</ele>
  <time>2026-08-28T17:54:18Z</time>
  <course>69.3</course>
  <speed>0.0</speed>
  <fix>3d</fix>
</trkpt>
<trkpt lat="40.0711841" lon="-105.2297059">
  <ele>1582.99</ele>
  <time>2026-08-28T17:54:18Z</time>
  <course>250.07</course>
  <speed>0.022360679774997897</speed>
  <fix>3d</fix>
</trkpt>
<trkpt lat="40.0711839" lon="-105.2297059">
  <ele>1583.0</ele>
  <time>2026-08-28T17:54:18Z</time>
  <course>69.3</course>
  <speed>0.0</speed>
  <fix>3d</fix>
</trkpt>
<trkpt lat="40.071184" lon="-105.2297059">
  <ele>1582.99</ele>
  <time>2026-08-28T17:54:18Z</time>
  <course>250.07</course>
  <speed>0.022360679774997897</speed>
  <fix>3d</fix>
</trkpt>
<trkpt lat="40.0711839" lon="-105.2297059">
  <ele>1583.0</ele>
  <time>2026-08-28T17:54:18Z</time>
  <course>69.3</course>
  <speed>0.0</speed>
  <fix>3d</fix>
</trkpt>
<trkpt lat="40.0711841" lon="-105.2297059">
  <ele>1582.99</ele>
  <time>2026-08-28T17:54:18Z</time>
  <course>250.07</course>
  <speed>0.022360679774997897</speed>
  <fix>3d</fix>
</trkpt>
<trkpt lat="40.0711839" lon="-105.2297059">
  <ele>1583.0</ele>
  <time>2026-08-28T17:54:18Z</time>
  <course>69.3</course>
  <speed>0.0</speed>
  <fix>3d</fix>
</trkpt>
<trkpt lat="40.071184" lon="-105.2297059">
  <ele>1582.99</ele>
  <time>2026-08-28T17:54:18Z</time>
  <course>250.07</course>
  <speed>0.022360679774997897</speed>
  <fix>3d</fix>
</trkpt>
<trkpt lat="40.0711839" lon="-105.2297059">
  <ele>1583.0</ele>
  <time>2026-08-28T17:54:18Z</time>
  <course>69.3</course>
  <speed>0.0</speed>
  <fix>3d</fix>
</trkpt>
<trkpt lat="40.0711841" lon="-105.2297058">
  <ele>1582.99</ele>
  <time>2026-08-28T17:54:18Z</time>
  <course>250.08</course>
  <speed>0.022360679774997897</speed>
  <fix>3d</fix>
</trkpt>
<trkpt lat="40.0711839" lon="-105.2297059">
  <ele>1583.0</ele>
  <time>2026-08-28T17:54:18Z</time>
  <course>69.31</course>
  <speed>0.0</speed>
  <fix>3d</fix>
</trkpt>
<trkpt lat="40.071184" lon="-105.2297058">
  <ele>1582.99</ele>
  <time>2026-08-28T17:54:18Z</time>
  <course>250.08</course>
  <speed>0.022360679774997897</speed>
  <fix>3d</fix>
</trkpt>
<trkpt lat="40.0711839" lon="-105.2297059">
  <ele>1583.0</ele>
  <time>2026-08-28T17:54:18Z</time>
  <course>69.31</course>
  <speed>0.0</speed>
  <fix>3d</fix>
</trkpt>
<trkpt lat="40.071184" lon="-105.2297058">
  <ele>1582.99</ele>
  <time>2026-08-28T17:54:18Z</time>
  <course>250.08</course>
  <speed>0.022360679774997897</speed>
  <fix>3d</fix>
</trkpt>
<trkpt lat="40.0711839" lon="-105.2297059">
  <ele>1583.0</ele>
  <time>2026-08-28T17:54:18Z</time>
  <course>69.31</course>
  <speed>0.0</speed>
  <fix>3d</fix>
</trkpt>
<trkpt lat="40.071184" lon="-105.2297058">
  <ele>1582.98</ele>
  <time>2026-08-28T17:54:18Z</time>
  <course>250.08</course>
  <speed>0.022360679774997897</speed>
  <fix>3d</fix>
</trkpt>
<trkpt lat="40.0711839" lon="-105.2297059">
  <ele>1583.0</ele>
  <time>2026-08-28T17:54:18Z</time>
  <course>69.31</course>
  <speed>0.0</speed>
  <fix>3d</fix>
</trkpt>
<trkpt lat="40.071184" lon="-105.2297058">
  <ele>1582.98</ele>
  <time>2026-08-28T17:54:18Z</time>
  <course>250.08</course>
  <speed>0.022360679774997897</speed>
  <fix>3d</fix>
</trkpt>
<trkpt lat="40.0711839" lon="-105.2297059">
  <ele>1583.0</ele>
  <time>2026-08-28T17:54:18Z</time>
  <course>69.31</course>
  <speed>0.0</speed>
  <fix>3d</fix>
</trkpt>
<trkpt lat="40.071184" lon="-105.2297058">
  <ele>1582.99</ele>
  <time>2026-08-28T17:54:18Z</time>
  <course>250.08</course>
  <speed>0.022360679774997897</speed>
  <fix>3d</fix>
</trkpt>
<trkpt lat="40.0711839" lon="-105.2297059">
  <ele>1583.0</ele>
  <time>2026-08-28T17:54:18Z</time>
  <course>69.31</course>
  <speed>0.0</speed>
  <fix>3d</fix>
</trkpt>
<trkpt lat="40.071184" lon="-105.2297058">
  <ele>1582.99</ele>
  <time>2026-08-28T17:54:18Z</time>
  <course>250.08</course>
  <speed>0.022360679774997897</speed>
  <fix>3d</fix>
</trkpt>
<trkpt lat="40.0711839" lon="-105.2297059">
  <ele>1583.0</ele>
  <time>2026-08-28T17:54:18Z</time>
  <course>69.32</course>
  <speed>0.0</speed>
  <fix>3d</fix>
</trkpt>
<trkpt lat="40.071184" lon="-105.2297058">
  <ele>1582.99</ele>
  <time>2026-08-28T17:54:18Z</time>
  <course>250.08</course>
  <speed>0.022360679774997897</speed>
  <fix>3d</fix>
</trkpt>
<trkpt lat="40.0711839" lon="-105.2297059">
  <ele>1583.0</ele>
  <time>2026-08-28T17:54:18Z</time>
  <course>69.32</course>
  <speed>0.0</speed>
  <fix>3d</fix>
</trkpt>
<trkpt lat="40.071184" lon="-105.2297058">
  <ele>1583.0</ele>
  <time>2026-08-28T17:54:18Z</time>
  <course>250.08</course>
  <speed>0.022360679774997897</speed>
  <fix>3d</fix>
</trkpt>
<trkpt lat="40.0711839" lon="-105.2297059">
  <ele>1583.0</ele>
  <time>2026-08-28T17:54:18Z</time>
  <course>69.32</course>
  <speed>0.0</speed>
  <fix>3d</fix>
</trkpt>
<trkpt lat="40.071184" lon="-105.2297058">
  <ele>1583.0</ele>
  <time>2026-08-28T17:54:18Z</time>
  <course>250.09</course>
  <speed>0.022360679774997897</speed>
  <fix>3d</fix>
</trkpt>
<trkpt lat="40.0711839" lon="-105.2297059">
  <ele>1583.0</ele>
  <time>2026-08-28T17:54:18Z</time>
  <course>69.32</course>
  <speed>0.0</speed>
  <fix>3d</fix>
</trkpt>
<trkpt lat="40.071184" lon="-105.2297058">
  <ele>1583.0</ele>
  <time>2026-08-28T17:54:18Z</time>
  <course>250.09</course>
  <speed>0.022360679774997897</speed>
  <fix>3d</fix>
</trkpt>
<trkpt lat="40.0711839" lon="-105.2297059">
  <ele>1583.0</ele>
  <time>2026-08-28T17:54:18Z</time>
  <course>69.33</course>
  <speed>0.0</speed>
  <fix>3d</fix>
</trkpt>
<trkpt lat="40.071184" lon="-105.2297058">
  <ele>1583.01</ele>
  <time>2026-08-28T17:54:18Z</time>
  <course>250.09</course>
  <speed>0.022360679774997897</speed>
  <fix>3d</fix>
</trkpt>
<trkpt lat="40.0711839" lon="-105.2297059">
  <ele>1583.0</ele>
  <time>2026-08-28T17:54:18Z</time>
  <course>69.33</course>
  <speed>0.0</speed>
  <fix>3d</fix>
</trkpt>
<trkpt lat="40.071184" lon="-105.2297058">
  <ele>1583.01</ele>
  <time>2026-08-28T17:54:18Z</time>
  <course>250.09</course>
  <speed>0.022360679774997897</speed>
  <fix>3d</fix>
</trkpt>
<trkpt lat="40.0711839" lon="-105.2297059">
  <ele>1583.0</ele>
  <time>2026-08-28T17:54:18Z</time>
  <course>69.34</course>
  <speed>0.0</speed>
  <fix>3d</fix>
</trkpt>
<trkpt lat="40.071184" lon="-105.2297058">
  <ele>1583.01</ele>
  <time>2026-08-28T17:54:18Z</time>
  <course>250.09</course>
  <speed>0.022360679774997897</speed>
  <fix>3d</fix>
</trkpt>
<trkpt lat="40.0711839" lon="-105.2297059">
  <ele>1583.0</ele>
  <time>2026-08-28T17:54:18Z</time>
  <course>69.34</course>
  <speed>0.0</speed>
  <fix>3d</fix>
</trkpt>
<trkpt lat="40.071184" lon="-105.2297058">
  <ele>1583.01</ele>
  <time>2026-08-28T17:54:18Z</time>
  <course>250.09</course>
  <speed>0.022360679774997897</speed>
  <fix>3d</fix>
</trkpt>
<trkpt lat="40.0711839" lon="-105.2297058">
  <ele>1583.0</ele>
  <time>2026-08-28T17:54:18Z</time>
  <course>69.34</course>
  <speed>0.0</speed>
  <fix>3d</fix>
</trkpt>
<trkpt lat="40.071184" lon="-105.2297058">
  <ele>1583.01</ele>
  <time>2026-08-28T17:54:18Z</time>
  <course>250.09</course>
  <speed>0.022360679774997897</speed>
  <fix>3d</fix>
</trkpt>
<trkpt lat="40.0711839" lon="-105.2297058">
  <ele>1583.0</ele>
  <time>2026-08-28T17:54:18Z</time>
  <course>69.34</course>
  <speed>0.0</speed>
  <fix>3d</fix>
</trkpt>
<trkpt lat="40.071184" lon="-105.2297058">
  <ele>1583.02</ele>
  <time>2026-08-28T17:54:18Z</time>
  <course>250.1</course>
  <speed>0.022360679774997897</speed>
  <fix>3d</fix>
</trkpt>
<trkpt lat="40.0711839" lon="-105.2297057">
  <ele>1583.0</ele>
  <time>2026-08-28T17:54:18Z</time>
  <course>69.35</course>
  <speed>0.0</speed>
  <fix>3d</fix>
</trkpt>
<trkpt lat="40.071184" lon="-105.2297058">
  <ele>1583.02</ele>
  <time>2026-08-28T17:54:18Z</time>
  <course>250.1</course>
  <speed>0.022360679774997897</speed>
  <fix>3d</fix>
</trkpt>
<trkpt lat="40.0711839" lon="-105.2297057">
  <ele>1583.0</ele>
  <time>2026-08-28T17:54:18Z</time>
  <course>69.35</course>
  <speed>0.0</speed>
  <fix>3d</fix>
</trkpt>
<trkpt lat="40.071184" lon="-105.2297058">
  <ele>1583.02</ele>
  <time>2026-08-28T17:54:18Z</time>
  <course>250.1</course>
  <speed>0.022360679774997897</speed>
  <fix>3d</fix>
</trkpt>
<trkpt lat="40.0711839" lon="-105.2297057">
  <ele>1583.0</ele>
  <time>2026-08-28T17:54:18Z</time>
  <course>69.36</course>
  <speed>0.0</speed>
  <fix>3d</fix>
</trkpt>
<trkpt lat="40.071184" lon="-105.2297058">
  <ele>1583.02</ele>
  <time>2026-08-28T17:54:18Z</time>
  <course>250.1</course>
  <speed>0.022360679774997897</speed>
  <fix>3d</fix>
</trkpt>
<trkpt lat="40.0711839" lon="-105.2297057">
  <ele>1583.0</ele>
  <time>2026-08-28T17:54:18Z</time>
  <course>69.36</course>
  <speed>0.0</speed>
  <fix>3d</fix>
</trkpt>
<trkpt lat="40.071184" lon="-105.2297058">
  <ele>1583.01</ele>
  <time>2026-08-28T17:54:18Z</time>
  <course>250.1</course>
  <speed>0.022360679774997897</speed>
  <fix>3d</fix>
</trkpt>
<trkpt lat="40.0711839" lon="-105.2297057">
  <ele>1583.0</ele>
  <time>2026-08-28T17:54:18Z</time>
  <course>69.37</course>
  <speed>0.0</speed>
  <fix>3d</fix>
</trkpt>
<trkpt lat="40.071184" lon="-105.2297057">
  <ele>1583.01</ele>
  <time>2026-08-28T17:54:18Z</time>
  <course>250.1</course>
  <speed>0.022360679774997897</speed>
  <fix>3d</fix>
</trkpt>
<trkpt lat="40.0711839" lon="-105.2297057">
  <ele>1583.0</ele>
  <time>2026-08-28T17:54:18Z</time>
  <course>69.37</course>
  <speed>0.0</speed>
  <fix>3d</fix>
</trkpt>
<trkpt lat="40.071184" lon="-105.2297057">
  <ele>1583.0</ele>
  <time>2026-08-28T17:54:18Z</time>
  <course>250.1</course>
  <speed>0.022360679774997897</speed>
  <fix>3d</fix>
</trkpt>
<trkpt lat="40.0711839" lon="-105.2297057">
  <ele>1583.0</ele>
  <time>2026-08-28T17:54:18Z</time>
  <course>69.38</course>
  <speed>0.0</speed>
  <fix>3d</fix>
</trkpt>
<trkpt lat="40.071184" lon="-105.2297057">
  <ele>1582.99</ele>
  <time>2026-08-28T17:54:18Z</time>
  <course>250.11</course>
  <speed>0.022360679774997897</speed>
  <fix>3d</fix>
</trkpt>
<trkpt lat="40.0711839" lon="-105.2297057">
  <ele>1583.0</ele>
  <time>2026-08-28T17:54:18Z</time>
  <course>69.38</course>
  <speed>0.0</speed>
  <fix>3d</fix>
</trkpt>
<trkpt lat="40.071184" lon="-105.2297057">
  <ele>1582.99</ele>
  <time>2026-08-28T17:54:18Z</time>
  <course>250.11</course>
  <speed>0.022360679774997897</speed>
  <fix>3d</fix>
</trkpt>
<trkpt lat="40.0711839" lon="-105.2297057">
  <ele>1583.0</ele>
  <time>2026-08-28T17:54:18Z</time>
  <course>69.39</course>
  <speed>0.0</speed>
  <fix>3d</fix>
</trkpt>
<trkpt lat="40.071184" lon="-105.2297057">
  <ele>1582.98</ele>
  <time>2026-08-28T17:54:18Z</time>
  <course>250.11</course>
  <speed>0.022360679774997897</speed>
  <fix>3d</fix>
</trkpt>
<trkpt lat="40.0711839" lon="-105.2297057">
  <ele>1583.0</ele>
  <time>2026-08-28T17:54:18Z</time>
  <course>69.39</course>
  <speed>0.0</speed>
  <fix>3d</fix>
</trkpt>
<trkpt lat="40.071184" lon="-105.2297057">
  <ele>1582.97</ele>
  <time>2026-08-28T17:54:18Z</time>
  <course>250.11</course>
  <speed>0.022360679774997897</speed>
  <fix>3d</fix>
</trkpt>
<trkpt lat="40.0711839" lon="-105.2297057">
  <ele>1583.0</ele>
  <time>2026-08-28T17:54:18Z</time>
  <course>69.41</course>
  <speed>0.0</speed>
  <fix>3d</fix>
</trkpt>
<trkpt lat="40.071184" lon="-105.2297057">
  <ele>1582.96</ele>
  <time>2026-08-28T17:54:18Z</time>
  <course>250.11</course>
  <speed>0.022360679774997897</speed>
  <fix>3d</fix>
</trkpt>
<trkpt lat="40.0711839" lon="-105.2297057">
  <ele>1583.0</ele>
  <time>2026-08-28T17:54:18Z</time>
  <course>69.41</course>
  <speed>0.0</speed>
  <fix>3d</fix>
</trkpt>
<trkpt lat="40.071184" lon="-105.2297057">
  <ele>1582.96</ele>
  <time>2026-08-28T17:54:18Z</time>
  <course>250.11</course>
  <speed>0.022360679774997897</speed>
  <fix>3d</fix>
</trkpt>
<trkpt lat="40.0711839" lon="-105.2297057">
  <ele>1583.0</ele>
  <time>2026-08-28T17:54:18Z</time>
  <course>69.42</course>
  <speed>0.0</speed>
  <fix>3d</fix>
</trkpt>
<trkpt lat="40.071184" lon="-105.2297057">
  <ele>1582.95</ele>
  <time>2026-08-28T17:54:18Z</time>
  <course>250.11</course>
  <speed>0.022360679774997897</speed>
  <fix>3d</fix>
</trkpt>
<trkpt lat="40.0711839" lon="-105.2297057">
  <ele>1583.0</ele>
  <time>2026-08-28T17:54:18Z</time>
  <course>69.42</course>
  <speed>0.0</speed>
  <fix>3d</fix>
</trkpt>
<trkpt lat="40.071184" lon="-105.2297056">
  <ele>1582.95</ele>
  <time>2026-08-28T17:54:18Z</time>
  <course>250.12</course>
  <speed>0.022360679774997897</speed>
  <fix>3d</fix>
</trkpt>
<trkpt lat="40.0711839" lon="-105.2297057">
  <ele>1583.0</ele>
  <time>2026-08-28T17:54:18Z</time>
  <course>69.44</course>
  <speed>0.0</speed>
  <fix>3d</fix>
</trkpt>
<trkpt lat="40.071184" lon="-105.2297056">
  <ele>1582.95</ele>
  <time>2026-08-28T17:54:18Z</time>
  <course>250.12</course>
  <speed>0.022360679774997897</speed>
  <fix>3d</fix>
</trkpt>
<trkpt lat="40.0711839" lon="-105.2297057">
  <ele>1583.0</ele>
  <time>2026-08-28T17:54:18Z</time>
  <course>69.44</course>
  <speed>0.0</speed>
  <fix>3d</fix>
</trkpt>
<trkpt lat="40.071184" lon="-105.2297056">
  <ele>1582.95</ele>
  <time>2026-08-28T17:54:18Z</time>
  <course>250.12</course>
  <speed>0.022360679774997897</speed>
  <fix>3d</fix>
</trkpt>
<trkpt lat="40.0711839" lon="-105.2297057">
  <ele>1583.0</ele>
  <time>2026-08-28T17:54:18Z</time>
  <course>69.45</course>
  <speed>0.0</speed>
  <fix>3d</fix>
</trkpt>
<trkpt lat="40.071184" lon="-105.2297056">
  <ele>1582.96</ele>
  <time>2026-08-28T17:54:18Z</time>
  <course>250.12</course>
  <speed>0.022360679774997897</speed>
  <fix>3d</fix>
</trkpt>
<trkpt lat="40.0711839" lon="-105.2297057">
  <ele>1583.0</ele>
  <time>2026-08-28T17:54:18Z</time>
  <course>69.45</course>
  <speed>0.0</speed>
  <fix>3d</fix>
</trkpt>
<trkpt lat="40.071184" lon="-105.2297056">
  <ele>1582.96</ele>
  <time>2026-08-28T17:54:18Z</time>
  <course>250.12</course>
  <speed>0.022360679774997897</speed>
  <fix>3d</fix>
</trkpt>
<trkpt lat="40.0711839" lon="-105.2297057">
  <ele>1583.0</ele>
  <time>2026-08-28T17:54:18Z</time>
  <course>69.47</course>
  <speed>0.0</speed>
  <fix>3d</fix>
</trkpt>
<trkpt lat="40.071184" lon="-105.2297056">
  <ele>1582.97</ele>
  <time>2026-08-28T17:54:18Z</time>
  <course>250.12</course>
  <speed>0.022360679774997897</speed>
  <fix>3d</fix>
</trkpt>
<trkpt lat="40.0711839" lon="-105.2297057">
  <ele>1583.0</ele>
  <time>2026-08-28T17:54:18Z</time>
  <course>69.47</course>
  <speed>0.0</speed>
  <fix>3d</fix>
</trkpt>
<trkpt lat="40.071184" lon="-105.2297056">
  <ele>1582.97</ele>
  <time>2026-08-28T17:54:18Z</time>
  <course>250.13</course>
  <speed>0.022360679774997897</speed>
  <fix>3d</fix>
</trkpt>
<trkpt lat="40.0711839" lon="-105.2297057">
  <ele>1583.0</ele>
  <time>2026-08-28T17:54:18Z</time>
  <course>69.49</course>
  <speed>0.0</speed>
  <fix>3d</fix>
</trkpt>
<trkpt lat="40.071184" lon="-105.2297056">
  <ele>1582.98</ele>
  <time>2026-08-28T17:54:18Z</time>
  <course>250.13</course>
  <speed>0.022360679774997897</speed>
  <fix>3d</fix>
</trkpt>
<trkpt lat="40.0711839" lon="-105.2297057">
  <ele>1583.0</ele>
  <time>2026-08-28T17:54:18Z</time>
  <course>69.49</course>
  <speed>0.0</speed>
  <fix>3d</fix>
</trkpt>
<trkpt lat="40.071184" lon="-105.2297056">
  <ele>1582.98</ele>
  <time>2026-08-28T17:54:18Z</time>
  <course>250.13</course>
  <speed>0.022360679774997897</speed>
  <fix>3d</fix>
</trkpt>
<trkpt lat="40.0711839" lon="-105.2297057">
  <ele>1583.0</ele>
  <time>2026-08-28T17:54:18Z</time>
  <course>69.52</course>
  <speed>0.0</speed>
  <fix>3d</fix>
</trkpt>
<trkpt lat="40.071184" lon="-105.2297056">
  <ele>1582.98</ele>
  <time>2026-08-28T17:54:18Z</time>
  <course>250.13</course>
  <speed>0.022360679774997897</speed>
  <fix>3d</fix>
</trkpt>
<trkpt lat="40.0711839" lon="-105.2297057">
  <ele>1583.0</ele>
  <time>2026-08-28T17:54:18Z</time>
  <course>69.52</course>
  <speed>0.0</speed>
  <fix>3d</fix>
</trkpt>
<trkpt lat="40.071184" lon="-105.2297056">
  <ele>1582.99</ele>
  <time>2026-08-28T17:54:18Z</time>
  <course>250.13</course>
  <speed>0.022360679774997897</speed>
  <fix>3d</fix>
</trkpt>
<trkpt lat="40.0711839" lon="-105.2297057">
  <ele>1583.0</ele>
  <time>2026-08-28T17:54:18Z</time>
  <course>69.55</course>
  <speed>0.0</speed>
  <fix>3d</fix>
</trkpt>
<trkpt lat="40.071184" lon="-105.2297056">
  <ele>1582.99</ele>
  <time>2026-08-28T17:54:18Z</time>
  <course>250.13</course>
  <speed>0.022360679774997897</speed>
  <fix>3d</fix>
</trkpt>
<trkpt lat="40.0711839" lon="-105.2297057">
  <ele>1583.0</ele>
  <time>2026-08-28T17:54:18Z</time>
  <course>69.55</course>
  <speed>0.0</speed>
  <fix>3d</fix>
</trkpt>
<trkpt lat="40.071184" lon="-105.2297056">
  <ele>1582.99</ele>
  <time>2026-08-28T17:54:18Z</time>
  <course>250.14</course>
  <speed>0.022360679774997897</speed>
  <fix>3d</fix>
</trkpt>
<trkpt lat="40.0711839" lon="-105.2297057">
  <ele>1583.0</ele>
  <time>2026-08-28T17:54:18Z</time>
  <course>69.57</course>
  <speed>0.0</speed>
  <fix>3d</fix>
</trkpt>
<trkpt lat="40.071184" lon="-105.2297056">
  <ele>1582.99</ele>
  <time>2026-08-28T17:54:18Z</time>
  <course>250.14</course>
  <speed>0.022360679774997897</speed>
  <fix>3d</fix>
</trkpt>
<trkpt lat="40.0711839" lon="-105.2297057">
  <ele>1583.0</ele>
  <time>2026-08-28T17:54:18Z</time>
  <course>69.57</course>
  <speed>0.0</speed>
  <fix>3d</fix>
</trkpt>
<trkpt lat="40.071184" lon="-105.2297056">
  <ele>1582.99</ele>
  <time>2026-08-28T17:54:18Z</time>
  <course>250.14</course>
  <speed>0.022360679774997897</speed>
  <fix>3d</fix>
</trkpt>
<trkpt lat="40.0711839" lon="-105.2297057">
  <ele>1583.0</ele>
  <time>2026-08-28T17:54:18Z</time>
  <course>69.61</course>
  <speed>0.0</speed>
  <fix>3d</fix>
</trkpt>
<trkpt lat="40.071184" lon="-105.2297056">
  <ele>1582.98</ele>
  <time>2026-08-28T17:54:18Z</time>
  <course>250.14</course>
  <speed>0.022360679774997897</speed>
  <fix>3d</fix>
</trkpt>
<trkpt lat="40.0711839" lon="-105.2297057">
  <ele>1583.0</ele>
  <time>2026-08-28T17:54:18Z</time>
  <course>69.61</course>
  <speed>0.0</speed>
  <fix>3d</fix>
</trkpt>
<trkpt lat="40.071184" lon="-105.2297056">
  <ele>1582.98</ele>
  <time>2026-08-28T17:54:18Z</time>
  <course>250.14</course>
  <speed>0.022360679774997897</speed>
  <fix>3d</fix>
</trkpt>
<trkpt lat="40.0711839" lon="-105.2297057">
  <ele>1583.0</ele>
  <time>2026-08-28T17:54:18Z</time>
  <course>69.64</course>
  <speed>0.0</speed>
  <fix>3d</fix>
</trkpt>
<trkpt lat="40.071184" lon="-105.2297056">
  <ele>1582.98</ele>
  <time>2026-08-28T17:54:18Z</time>
  <course>250.14</course>
  <speed>0.022360679774997897</speed>
  <fix>3d</fix>
</trkpt>
<trkpt lat="40.0711839" lon="-105.2297057">
  <ele>1583.0</ele>
  <time>2026-08-28T17:54:18Z</time>
  <course>69.64</course>
  <speed>0.0</speed>
  <fix>3d</fix>
</trkpt>
<trkpt lat="40.071184" lon="-105.2297056">
  <ele>1582.98</ele>
  <time>2026-08-28T17:54:18Z</time>
  <course>250.14</course>
  <speed>0.022360679774997897</speed>
  <fix>3d</fix>
</trkpt>
<trkpt lat="40.0711839" lon="-105.2297057">
  <ele>1583.0</ele>
  <time>2026-08-28T17:54:18Z</time>
  <course>69.68</course>
  <speed>0.0</speed>
  <fix>3d</fix>
</trkpt>
<trkpt lat="40.071184" lon="-105.2297056">
  <ele>1582.98</ele>
  <time>2026-08-28T17:54:18Z</time>
  <course>250.14</course>
  <speed>0.022360679774997897</speed>
  <fix>3d</fix>
</trkpt>
<trkpt lat="40.0711839" lon="-105.2297057">
  <ele>1583.0</ele>
  <time>2026-08-28T17:54:18Z</time>
  <course>69.68</course>
  <speed>0.0</speed>
  <fix>3d</fix>
</trkpt>
<trkpt lat="40.071184" lon="-105.2297056">
  <ele>1582.98</ele>
  <time>2026-08-28T17:54:18Z</time>
  <course>250.15</course>
  <speed>0.022360679774997897</speed>
  <fix>3d</fix>
</trkpt>
<trkpt lat="40.0711839" lon="-105.2297057">
  <ele>1583.0</ele>
  <time>2026-08-28T17:54:18Z</time>
  <course>69.72</course>
  <speed>0.0</speed>
  <fix>3d</fix>
</trkpt>
<trkpt lat="40.071184" lon="-105.2297056">
  <ele>1582.98</ele>
  <time>2026-08-28T17:54:18Z</time>
  <course>250.15</course>
  <speed>0.022360679774997897</speed>
  <fix>3d</fix>
</trkpt>
<trkpt lat="40.0711839" lon="-105.2297057">
  <ele>1583.0</ele>
  <time>2026-08-28T17:54:18Z</time>
  <course>69.72</course>
  <speed>0.0</speed>
  <fix>3d</fix>
</trkpt>
<trkpt lat="40.071184" lon="-105.2297056">
  <ele>1582.98</ele>
  <time>2026-08-28T17:54:18Z</time>
  <course>250.15</course>
  <speed>0.022360679774997897</speed>
  <fix>3d</fix>
</trkpt>
<trkpt lat="40.0711839" lon="-105.2297057">
  <ele>1583.0</ele>
  <time>2026-08-28T17:54:18Z</time>
  <course>69.77</course>
  <speed>0.0</speed>
  <fix>3d</fix>
</trkpt>
<trkpt lat="40.071184" lon="-105.2297056">
  <ele>1582.99</ele>
  <time>2026-08-28T17:54:18Z</time>
  <course>250.15</course>
  <speed>0.022360679774997897</speed>
  <fix>3d</fix>
</trkpt>
<trkpt lat="40.0711839" lon="-105.2297057">
  <ele>1583.0</ele>
  <time>2026-08-28T17:54:18Z</time>
  <course>69.77</course>
  <speed>0.0</speed>
  <fix>3d</fix>
</trkpt>
<trkpt lat="40.071184" lon="-105.2297056">
  <ele>1582.99</ele>
  <time>2026-08-28T17:54:18Z</time>
  <course>250.15</course>
  <speed>0.022360679774997897</speed>
  <fix>3d</fix>
</trkpt>
<trkpt lat="40.0711839" lon="-105.2297057">
  <ele>1583.0</ele>
  <time>2026-08-28T17:54:18Z</time>
  <course>69.83</course>
  <speed>0.0</speed>
  <fix>3d</fix>
</trkpt>
<trkpt lat="40.071184" lon="-105.2297056">
  <ele>1583.0</ele>
  <time>2026-08-28T17:54:18Z</time>
  <course>250.15</course>
  <speed>0.022360679774997897</speed>
  <fix>3d</fix>
</trkpt>
<trkpt lat="40.0711839" lon="-105.2297057">
  <ele>1583.0</ele>
  <time>2026-08-28T17:54:19Z</time>
  <course>69.83</course>
  <speed>0.0</speed>
  <fix>3d</fix>
</trkpt>
<trkpt lat="40.0711841" lon="-105.2297056">
  <ele>1583.0</ele>
  <time>2026-08-28T17:54:19Z</time>
  <course>250.15</course>
  <speed>0.022360679774997897</speed>
  <fix>3d</fix>
</trkpt>
<trkpt lat="40.0711839" lon="-105.2297057">
  <ele>1583.0</ele>
  <time>2026-08-28T17:54:19Z</time>
  <course>69.88</course>
  <speed>0.0</speed>
  <fix>3d</fix>
</trkpt>
<trkpt lat="40.0711841" lon="-105.2297056">
  <ele>1583.01</ele>
  <time>2026-08-28T17:54:19Z</time>
  <course>250.15</course>
  <speed>0.022360679774997897</speed>
  <fix>3d</fix>
</trkpt>
<trkpt lat="40.0711839" lon="-105.2297057">
  <ele>1583.0</ele>
  <time>2026-08-28T17:54:19Z</time>
  <course>69.88</course>
  <speed>0.0</speed>
  <fix>3d</fix>
</trkpt>
<trkpt lat="40.0711841" lon="-105.2297056">
  <ele>1583.01</ele>
  <time>2026-08-28T17:54:19Z</time>
  <course>250.16</course>
  <speed>0.022360679774997897</speed>
  <fix>3d</fix>
</trkpt>
<trkpt lat="40.0711839" lon="-105.2297057">
  <ele>1583.0</ele>
  <time>2026-08-28T17:54:19Z</time>
  <course>69.95</course>
  <speed>0.0</speed>
  <fix>3d</fix>
</trkpt>
<trkpt lat="40.0711841" lon="-105.2297056">
  <ele>1583.02</ele>
  <time>2026-08-28T17:54:19Z</time>
  <course>250.16</course>
  <speed>0.022360679774997897</speed>
  <fix>3d</fix>
</trkpt>
<trkpt lat="40.0711839" lon="-105.2297057">
  <ele>1583.0</ele>
  <time>2026-08-28T17:54:19Z</time>
  <course>69.95</course>
  <speed>0.0</speed>
  <fix>3d</fix>
</trkpt>
<trkpt lat="40.0711841" lon="-105.2297056">
  <ele>1583.02</ele>
  <time>2026-08-28T17:54:19Z</time>
  <course>250.16</course>
  <speed>0.022360679774997897</speed>
  <fix>3d</fix>
</trkpt>
<trkpt lat="40.0711839" lon="-105.2297057">
  <ele>1583.0</ele>
  <time>2026-08-28T17:54:19Z</time>
  <course>70.02</course>
  <speed>0.0</speed>
  <fix>3d</fix>
</trkpt>
<trkpt lat="40.0711841" lon="-105.2297056">
  <ele>1583.03</ele>
  <time>2026-08-28T17:54:19Z</time>
  <course>250.16</course>
  <speed>0.022360679774997897</speed>
  <fix>3d</fix>
</trkpt>
<trkpt lat="40.0711839" lon="-105.2297057">
  <ele>1583.0</ele>
  <time>2026-08-28T17:54:19Z</time>
  <course>70.02</course>
  <speed>0.0</speed>
  <fix>3d</fix>
</trkpt>
<trkpt lat="40.0711841" lon="-105.2297056">
  <ele>1583.03</ele>
  <time>2026-08-28T17:54:19Z</time>
  <course>250.16</course>
  <speed>0.022360679774997897</speed>
  <fix>3d</fix>
</trkpt>
<trkpt lat="40.0711839" lon="-105.2297057">
  <ele>1583.0</ele>
  <time>2026-08-28T17:54:19Z</time>
  <course>70.1</course>
  <speed>0.0</speed>
  <fix>3d</fix>
</trkpt>
<trkpt lat="40.0711841" lon="-105.2297056">
  <ele>1583.03</ele>
  <time>2026-08-28T17:54:19Z</time>
  <course>250.16</course>
  <speed>0.022360679774997897</speed>
  <fix>3d</fix>
</trkpt>
<trkpt lat="40.0711839" lon="-105.2297057">
  <ele>1583.0</ele>
  <time>2026-08-28T17:54:19Z</time>
  <course>70.1</course>
  <speed>0.0</speed>
  <fix>3d</fix>
</trkpt>
<trkpt lat="40.0711841" lon="-105.2297056">
  <ele>1583.03</ele>
  <time>2026-08-28T17:54:19Z</time>
  <course>250.16</course>
  <speed>0.022360679774997897</speed>
  <fix>3d</fix>
</trkpt>
<trkpt lat="40.0711839" lon="-105.2297057">
  <ele>1583.0</ele>
  <time>2026-08-28T17:54:19Z</time>
  <course>70.19</course>
  <speed>0.0</speed>
  <fix>3d</fix>
</trkpt>
<trkpt lat="40.0711841" lon="-105.2297056">
  <ele>1583.04</ele>
  <time>2026-08-28T17:54:19Z</time>
  <course>250.16</course>
  <speed>0.022360679774997897</speed>
  <fix>3d</fix>
</trkpt>
<trkpt lat="40.0711839" lon="-105.2297057">
  <ele>1583.0</ele>
  <time>2026-08-28T17:54:19Z</time>
  <course>70.19</course>
  <speed>0.0</speed>
  <fix>3d</fix>
</trkpt>
<trkpt lat="40.0711841" lon="-105.2297056">
  <ele>1583.04</ele>
  <time>2026-08-28T17:54:19Z</time>
  <course>250.16</course>
  <speed>0.022360679774997897</speed>
  <fix>3d</fix>
</trkpt>
<trkpt lat="40.0711839" lon="-105.2297057">
  <ele>1583.0</ele>
  <time>2026-08-28T17:54:19Z</time>
  <course>70.29</course>
  <speed>0.0</speed>
  <fix>3d</fix>
</trkpt>
<trkpt lat="40.0711841" lon="-105.2297056">
  <ele>1583.04</ele>
  <time>2026-08-28T17:54:19Z</time>
  <course>250.17</course>
  <speed>0.022360679774997897</speed>
  <fix>3d</fix>
</trkpt>
<trkpt lat="40.0711839" lon="-105.2297057">
  <ele>1583.0</ele>
  <time>2026-08-28T17:54:19Z</time>
  <course>70.29</course>
  <speed>0.0</speed>
  <fix>3d</fix>
</trkpt>
<trkpt lat="40.0711841" lon="-105.2297056">
  <ele>1583.04</ele>
  <time>2026-08-28T17:54:19Z</time>
  <course>250.17</course>
  <speed>0.022360679774997897</speed>
  <fix>3d</fix>
</trkpt>
<trkpt lat="40.0711839" lon="-105.2297057">
  <ele>1583.0</ele>
  <time>2026-08-28T17:54:19Z</time>
  <course>70.39</course>
  <speed>0.0</speed>
  <fix>3d</fix>
</trkpt>
<trkpt lat="40.0711841" lon="-105.2297056">
  <ele>1583.04</ele>
  <time>2026-08-28T17:54:19Z</time>
  <course>250.17</course>
  <speed>0.022360679774997897</speed>
  <fix>3d</fix>
</trkpt>
<trkpt lat="40.0711839" lon="-105.2297057">
  <ele>1583.0</ele>
  <time>2026-08-28T17:54:19Z</time>
  <course>70.39</course>
  <speed>0.0</speed>
  <fix>3d</fix>
</trkpt>
<trkpt lat="40.0711841" lon="-105.2297056">
  <ele>1583.04</ele>
  <time>2026-08-28T17:54:19Z</time>
  <course>250.17</course>
  <speed>0.022360679774997897</speed>
  <fix>3d</fix>
</trkpt>
<trkpt lat="40.0711839" lon="-105.2297057">
  <ele>1583.0</ele>
  <time>2026-08-28T17:54:19Z</time>
  <course>70.51</course>
  <speed>0.0</speed>
  <fix>3d</fix>
</trkpt>
<trkpt lat="40.0711841" lon="-105.2297056">
  <ele>1583.03</ele>
  <time>2026-08-28T17:54:19Z</time>
  <course>250.17</course>
  <speed>0.022360679774997897</speed>
  <fix>3d</fix>
</trkpt>
<trkpt lat="40.0711839" lon="-105.2297057">
  <ele>1583.0</ele>
  <time>2026-08-28T17:54:19Z</time>
  <course>70.51</course>
  <speed>0.0</speed>
  <fix>3d</fix>
</trkpt>
<trkpt lat="40.0711841" lon="-105.2297056">
  <ele>1583.03</ele>
  <time>2026-08-28T17:54:19Z</time>
  <course>250.17</course>
  <speed>0.022360679774997897</speed>
  <fix>3d</fix>
</trkpt>
<trkpt lat="40.0711839" lon="-105.2297057">
  <ele>1583.0</ele>
  <time>2026-08-28T17:54:19Z</time>
  <course>70.64</course>
  <speed>0.0</speed>
  <fix>3d</fix>
</trkpt>
<trkpt lat="40.0711841" lon="-105.2297056">
  <ele>1583.03</ele>
  <time>2026-08-28T17:54:19Z</time>
  <course>250.17</course>
  <speed>0.022360679774997897</speed>
  <fix>3d</fix>
</trkpt>
<trkpt lat="40.0711839" lon="-105.2297057">
  <ele>1583.0</ele>
  <time>2026-08-28T17:54:19Z</time>
  <course>70.64</course>
  <speed>0.0</speed>
  <fix>3d</fix>
</trkpt>
<trkpt lat="40.0711841" lon="-105.2297056">
  <ele>1583.03</ele>
  <time>2026-08-28T17:54:19Z</time>
  <course>250.17</course>
  <speed>0.022360679774997897</speed>
  <fix>3d</fix>
</trkpt>
<trkpt lat="40.0711839" lon="-105.2297057">
  <ele>1583.0</ele>
  <time>2026-08-28T17:54:19Z</time>
  <course>70.79</course>
  <speed>0.0</speed>
  <fix>3d</fix>
</trkpt>
<trkpt lat="40.0711841" lon="-105.2297056">
  <ele>1583.03</ele>
  <time>2026-08-28T17:54:19Z</time>
  <course>250.18</course>
  <speed>0.022360679774997897</speed>
  <fix>3d</fix>
</trkpt>
<trkpt lat="40.0711839" lon="-105.2297057">
  <ele>1583.0</ele>
  <time>2026-08-28T17:54:19Z</time>
  <course>70.79</course>
  <speed>0.0</speed>
  <fix>3d</fix>
</trkpt>
<trkpt lat="40.0711841" lon="-105.2297056">
  <ele>1583.03</ele>
  <time>2026-08-28T17:54:19Z</time>
  <course>250.18</course>
  <speed>0.022360679774997897</speed>
  <fix>3d</fix>
</trkpt>
<trkpt lat="40.0711839" lon="-105.2297057">
  <ele>1583.0</ele>
  <time>2026-08-28T17:54:19Z</time>
  <course>70.94</course>
  <speed>0.0</speed>
  <fix>3d</fix>
</trkpt>
<trkpt lat="40.0711841" lon="-105.2297056">
  <ele>1583.02</ele>
  <time>2026-08-28T17:54:19Z</time>
  <course>250.18</course>
  <speed>0.022360679774997897</speed>
  <fix>3d</fix>
</trkpt>
<trkpt lat="40.0711839" lon="-105.2297057">
  <ele>1583.0</ele>
  <time>2026-08-28T17:54:19Z</time>
  <course>70.94</course>
  <speed>0.0</speed>
  <fix>3d</fix>
</trkpt>
<trkpt lat="40.0711841" lon="-105.2297056">
  <ele>1583.02</ele>
  <time>2026-08-28T17:54:19Z</time>
  <course>250.18</course>
  <speed>0.022360679774997897</speed>
  <fix>3d</fix>
</trkpt>
<trkpt lat="40.0711839" lon="-105.2297057">
  <ele>1583.0</ele>
  <time>2026-08-28T17:54:19Z</time>
  <course>71.12</course>
  <speed>0.0</speed>
  <fix>3d</fix>
</trkpt>
<trkpt lat="40.0711841" lon="-105.2297056">
  <ele>1583.01</ele>
  <time>2026-08-28T17:54:19Z</time>
  <course>250.18</course>
  <speed>0.022360679774997897</speed>
  <fix>3d</fix>
</trkpt>
<trkpt lat="40.0711839" lon="-105.2297057">
  <ele>1583.0</ele>
  <time>2026-08-28T17:54:19Z</time>
  <course>71.12</course>
  <speed>0.0</speed>
  <fix>3d</fix>
</trkpt>
<trkpt lat="40.0711841" lon="-105.2297056">
  <ele>1583.01</ele>
  <time>2026-08-28T17:54:19Z</time>
  <course>250.18</course>
  <speed>0.022360679774997897</speed>
  <fix>3d</fix>
</trkpt>
<trkpt lat="40.0711839" lon="-105.2297057">
  <ele>1583.0</ele>
  <time>2026-08-28T17:54:19Z</time>
  <course>71.32</course>
  <speed>0.0</speed>
  <fix>3d</fix>
</trkpt>
<trkpt lat="40.0711841" lon="-105.2297056">
  <ele>1583.01</ele>
  <time>2026-08-28T17:54:19Z</time>
  <course>250.18</course>
  <speed>0.022360679774997897</speed>
  <fix>3d</fix>
</trkpt>
<trkpt lat="40.0711839" lon="-105.2297057">
  <ele>1583.0</ele>
  <time>2026-08-28T17:54:19Z</time>
  <course>71.32</course>
  <speed>0.0</speed>
  <fix>3d</fix>
</trkpt>
<trkpt lat="40.0711841" lon="-105.2297056">
  <ele>1583.01</ele>
  <time>2026-08-28T17:54:19Z</time>
  <course>250.18</course>
  <speed>0.022360679774997897</speed>
  <fix>3d</fix>
</trkpt>
<trkpt lat="40.0711839" lon="-105.2297057">
  <ele>1583.0</ele>
  <time>2026-08-28T17:54:19Z</time>
  <course>71.53</course>
  <speed>0.0</speed>
  <fix>3d</fix>
</trkpt>
<trkpt lat="40.0711841" lon="-105.2297056">
  <ele>1583.01</ele>
  <time>2026-08-28T17:54:19Z</time>
  <course>250.18</course>
  <speed>0.022360679774997897</speed>
  <fix>3d</fix>
</trkpt>
<trkpt lat="40.0711839" lon="-105.2297057">
  <ele>1583.0</ele>
  <time>2026-08-28T17:54:19Z</time>
  <course>71.53</course>
  <speed>0.0</speed>
  <fix>3d</fix>
</trkpt>
<trkpt lat="40.0711841" lon="-105.2297056">
  <ele>1583.0</ele>
  <time>2026-08-28T17:54:19Z</time>
  <course>250.18</course>
  <speed>0.022360679774997897</speed>
  <fix>3d</fix>
</trkpt>
<trkpt lat="40.0711839" lon="-105.2297057">
  <ele>1583.0</ele>
  <time>2026-08-28T17:54:19Z</time>
  <course>71.77</course>
  <speed>0.0</speed>
  <fix>3d</fix>
</trkpt>
<trkpt lat="40.0711841" lon="-105.2297056">
  <ele>1583.0</ele>
  <time>2026-08-28T17:54:19Z</time>
  <course>250.19</course>
  <speed>0.022360679774997897</speed>
  <fix>3d</fix>
</trkpt>
<trkpt lat="40.0711839" lon="-105.2297057">
  <ele>1583.0</ele>
  <time>2026-08-28T17:54:19Z</time>
  <course>71.77</course>
  <speed>0.0</speed>
  <fix>3d</fix>
</trkpt>
<trkpt lat="40.0711841" lon="-105.2297056">
  <ele>1583.0</ele>
  <time>2026-08-28T17:54:19Z</time>
  <course>250.19</course>
  <speed>0.022360679774997897</speed>
  <fix>3d</fix>
</trkpt>
<trkpt lat="40.0711839" lon="-105.2297057">
  <ele>1583.0</ele>
  <time>2026-08-28T17:54:19Z</time>
  <course>72.03</course>
  <speed>0.0</speed>
  <fix>3d</fix>
</trkpt>
<trkpt lat="40.0711841" lon="-105.2297056">
  <ele>1583.0</ele>
  <time>2026-08-28T17:54:19Z</time>
  <course>250.19</course>
  <speed>0.022360679774997897</speed>
  <fix>3d</fix>
</trkpt>
<trkpt lat="40.0711839" lon="-105.2297057">
  <ele>1583.0</ele>
  <time>2026-08-28T17:54:19Z</time>
  <course>72.03</course>
  <speed>0.0</speed>
  <fix>3d</fix>
</trkpt>
<trkpt lat="40.0711841" lon="-105.2297056">
  <ele>1583.0</ele>
  <time>2026-08-28T17:54:19Z</time>
  <course>250.19</course>
  <speed>0.022360679774997897</speed>
  <fix>3d</fix>
</trkpt>
<trkpt lat="40.0711839" lon="-105.2297057">
  <ele>1583.0</ele>
  <time>2026-08-28T17:54:19Z</time>
  <course>72.32</course>
  <speed>0.0</speed>
  <fix>3d</fix>
</trkpt>
<trkpt lat="40.0711841" lon="-105.2297056">
  <ele>1583.0</ele>
  <time>2026-08-28T17:54:19Z</time>
  <course>250.19</course>
  <speed>0.022360679774997897</speed>
  <fix>3d</fix>
</trkpt>
<trkpt lat="40.0711839" lon="-105.2297057">
  <ele>1583.0</ele>
  <time>2026-08-28T17:54:19Z</time>
  <course>72.32</course>
  <speed>0.0</speed>
  <fix>3d</fix>
</trkpt>
<trkpt lat="40.0711841" lon="-105.2297056">
  <ele>1583.0</ele>
  <time>2026-08-28T17:54:19Z</time>
  <course>250.19</course>
  <speed>0.022360679774997897</speed>
  <fix>3d</fix>
</trkpt>
<trkpt lat="40.0711839" lon="-105.2297057">
  <ele>1583.0</ele>
  <time>2026-08-28T17:54:19Z</time>
  <course>72.64</course>
  <speed>0.0</speed>
  <fix>3d</fix>
</trkpt>
<trkpt lat="40.0711841" lon="-105.2297056">
  <ele>1583.0</ele>
  <time>2026-08-28T17:54:19Z</time>
  <course>250.19</course>
  <speed>0.022360679774997897</speed>
  <fix>3d</fix>
</trkpt>
<trkpt lat="40.0711839" lon="-105.2297057">
  <ele>1583.0</ele>
  <time>2026-08-28T17:54:19Z</time>
  <course>72.64</course>
  <speed>0.0</speed>
  <fix>3d</fix>
</trkpt>
<trkpt lat="40.0711841" lon="-105.2297056">
  <ele>1583.0</ele>
  <time>2026-08-28T17:54:19Z</time>
  <course>250.19</course>
  <speed>0.022360679774997897</speed>
  <fix>3d</fix>
</trkpt>
<trkpt lat="40.0711839" lon="-105.2297057">
  <ele>1583.0</ele>
  <time>2026-08-28T17:54:19Z</time>
  <course>73.0</course>
  <speed>0.0</speed>
  <fix>3d</fix>
</trkpt>
<trkpt lat="40.0711841" lon="-105.2297056">
  <ele>1583.0</ele>
  <time>2026-08-28T17:54:19Z</time>
  <course>250.19</course>
  <speed>0.022360679774997897</speed>
  <fix>3d</fix>
</trkpt>
<trkpt lat="40.0711839" lon="-105.2297057">
  <ele>1583.0</ele>
  <time>2026-08-28T17:54:19Z</time>
  <course>73.0</course>
  <speed>0.0</speed>
  <fix>3d</fix>
</trkpt>
<trkpt lat="40.0711841" lon="-105.2297056">
  <ele>1583.0</ele>
  <time>2026-08-28T17:54:19Z</time>
  <course>250.19</course>
  <speed>0.022360679774997897</speed>
  <fix>3d</fix>
</trkpt>
<trkpt lat="40.0711839" lon="-105.2297057">
  <ele>1583.0</ele>
  <time>2026-08-28T17:54:19Z</time>
  <course>73.39</course>
  <speed>0.0</speed>
  <fix>3d</fix>
</trkpt>
<trkpt lat="40.0711841" lon="-105.2297056">
  <ele>1583.0</ele>
  <time>2026-08-28T17:54:19Z</time>
  <course>250.2</course>
  <speed>0.022360679774997897</speed>
  <fix>3d</fix>
</trkpt>
<trkpt lat="40.0711839" lon="-105.2297057">
  <ele>1583.0</ele>
  <time>2026-08-28T17:54:19Z</time>
  <course>73.39</course>
  <speed>0.0</speed>
  <fix>3d</fix>
</trkpt>
<trkpt lat="40.0711841" lon="-105.2297056">
  <ele>1582.99</ele>
  <time>2026-08-28T17:54:19Z</time>
  <course>250.2</course>
  <speed>0.022360679774997897</speed>
  <fix>3d</fix>
</trkpt>
<trkpt lat="40.0711839" lon="-105.2297057">
  <ele>1583.0</ele>
  <time>2026-08-28T17:54:19Z</time>
  <course>73.82</course>
  <speed>0.0</speed>
  <fix>3d</fix>
</trkpt>
<trkpt lat="40.0711841" lon="-105.2297056">
  <ele>1582.99</ele>
  <time>2026-08-28T17:54:19Z</time>
  <course>250.2</course>
  <speed>0.022360679774997897</speed>
  <fix>3d</fix>
</trkpt>
<trkpt lat="40.0711839" lon="-105.2297057">
  <ele>1583.0</ele>
  <time>2026-08-28T17:54:19Z</time>
  <course>73.82</course>
  <speed>0.0</speed>
  <fix>3d</fix>
</trkpt>
<trkpt lat="40.0711841" lon="-105.2297056">
  <ele>1582.99</ele>
  <time>2026-08-28T17:54:19Z</time>
  <course>250.2</course>
  <speed>0.022360679774997897</speed>
  <fix>3d</fix>
</trkpt>
<trkpt lat="40.0711839" lon="-105.2297057">
  <ele>1583.0</ele>
  <time>2026-08-28T17:54:19Z</time>
  <course>74.3</course>
  <speed>0.0</speed>
  <fix>3d</fix>
</trkpt>
<trkpt lat="40.0711841" lon="-105.2297056">
  <ele>1582.99</ele>
  <time>2026-08-28T17:54:19Z</time>
  <course>250.2</course>
  <speed>0.022360679774997897</speed>
  <fix>3d</fix>
</trkpt>
<trkpt lat="40.0711839" lon="-105.2297057">
  <ele>1583.0</ele>
  <time>2026-08-28T17:54:19Z</time>
  <course>74.3</course>
  <speed>0.0</speed>
  <fix>3d</fix>
</trkpt>
<trkpt lat="40.0711841" lon="-105.2297056">
  <ele>1582.98</ele>
  <time>2026-08-28T17:54:19Z</time>
  <course>250.2</course>
  <speed>0.022360679774997897</speed>
  <fix>3d</fix>
</trkpt>
<trkpt lat="40.0711839" lon="-105.2297057">
  <ele>1583.0</ele>
  <time>2026-08-28T17:54:19Z</time>
  <course>74.82</course>
  <speed>0.0</speed>
  <fix>3d</fix>
</trkpt>
<trkpt lat="40.0711841" lon="-105.2297056">
  <ele>1582.98</ele>
  <time>2026-08-28T17:54:19Z</time>
  <course>250.2</course>
  <speed>0.022360679774997897</speed>
  <fix>3d</fix>
</trkpt>
<trkpt lat="40.0711839" lon="-105.2297057">
  <ele>1583.0</ele>
  <time>2026-08-28T17:54:19Z</time>
  <course>74.82</course>
  <speed>0.0</speed>
  <fix>3d</fix>
</trkpt>
<trkpt lat="40.0711841" lon="-105.2297056">
  <ele>1582.98</ele>
  <time>2026-08-28T17:54:19Z</time>
  <course>250.2</course>
  <speed>0.022360679774997897</speed>
  <fix>3d</fix>
</trkpt>
<trkpt lat="40.0711839" lon="-105.2297057">
  <ele>1583.0</ele>
  <time>2026-08-28T17:54:19Z</time>
  <course>75.4</course>
  <speed>0.0</speed>
  <fix>3d</fix>
</trkpt>
<trkpt lat="40.0711841" lon="-105.2297056">
  <ele>1582.97</ele>
  <time>2026-08-28T17:54:19Z</time>
  <course>250.2</course>
  <speed>0.022360679774997897</speed>
  <fix>3d</fix>
</trkpt>
<trkpt lat="40.0711839" lon="-105.2297057">
  <ele>1583.0</ele>
  <time>2026-08-28T17:54:19Z</time>
  <course>75.4</course>
  <speed>0.0</speed>
  <fix>3d</fix>
</trkpt>
<trkpt lat="40.0711841" lon="-105.2297056">
  <ele>1582.97</ele>
  <time>2026-08-28T17:54:19Z</time>
  <course>250.2</course>
  <speed>0.022360679774997897</speed>
  <fix>3d</fix>
</trkpt>
<trkpt lat="40.0711839" lon="-105.2297057">
  <ele>1583.0</ele>
  <time>2026-08-28T17:54:19Z</time>
  <course>76.04</course>
  <speed>0.0</speed>
  <fix>3d</fix>
</trkpt>
<trkpt lat="40.0711841" lon="-105.2297056">
  <ele>1582.96</ele>
  <time>2026-08-28T17:54:19Z</time>
  <course>250.2</course>
  <speed>0.022360679774997897</speed>
  <fix>3d</fix>
</trkpt>
<trkpt lat="40.0711839" lon="-105.2297057">
  <ele>1583.0</ele>
  <time>2026-08-28T17:54:19Z</time>
  <course>76.04</course>
  <speed>0.0</speed>
  <fix>3d</fix>
</trkpt>
<trkpt lat="40.0711841" lon="-105.2297056">
  <ele>1582.96</ele>
  <time>2026-08-28T17:54:19Z</time>
  <course>250.2</course>
  <speed>0.022360679774997897</speed>
  <fix>3d</fix>
</trkpt>
<trkpt lat="40.0711839" lon="-105.2297057">
  <ele>1583.0</ele>
  <time>2026-08-28T17:54:19Z</time>
  <course>76.75</course>
  <speed>0.0</speed>
  <fix>3d</fix>
</trkpt>
<trkpt lat="40.0711841" lon="-105.2297056">
  <ele>1582.96</ele>
  <time>2026-08-28T17:54:19Z</time>
  <course>250.21</course>
  <speed>0.022360679774997897</speed>
  <fix>3d</fix>
</trkpt>
<trkpt lat="40.0711839" lon="-105.2297057">
  <ele>1583.0</ele>
  <time>2026-08-28T17:54:19Z</time>
  <course>76.75</course>
  <speed>0.0</speed>
  <fix>3d</fix>
</trkpt>
<trkpt lat="40.0711841" lon="-105.2297056">
  <ele>1582.95</ele>
  <time>2026-08-28T17:54:19Z</time>
  <course>250.21</course>
  <speed>0.022360679774997897</speed>
  <fix>3d</fix>
</trkpt>
<trkpt lat="40.0711839" lon="-105.2297057">
  <ele>1583.0</ele>
  <time>2026-08-28T17:54:19Z</time>
  <course>77.52</course>
  <speed>0.0</speed>
  <fix>3d</fix>
</trkpt>
<trkpt lat="40.0711841" lon="-105.2297056">
  <ele>1582.95</ele>
  <time>2026-08-28T17:54:19Z</time>
  <course>250.21</course>
  <speed>0.022360679774997897</speed>
  <fix>3d</fix>
</trkpt>
<trkpt lat="40.0711839" lon="-105.2297057">
  <ele>1583.0</ele>
  <time>2026-08-28T17:54:19Z</time>
  <course>77.52</course>
  <speed>0.0</speed>
  <fix>3d</fix>
</trkpt>
<trkpt lat="40.0711841" lon="-105.2297056">
  <ele>1582.95</ele>
  <time>2026-08-28T17:54:19Z</time>
  <course>250.21</course>
  <speed>0.022360679774997897</speed>
  <fix>3d</fix>
</trkpt>
<trkpt lat="40.0711839" lon="-105.2297057">
  <ele>1583.0</ele>
  <time>2026-08-28T17:54:19Z</time>
  <course>78.38</course>
  <speed>0.0</speed>
  <fix>3d</fix>
</trkpt>
<trkpt lat="40.0711841" lon="-105.2297056">
  <ele>1582.95</ele>
  <time>2026-08-28T17:54:19Z</time>
  <course>250.21</course>
  <speed>0.022360679774997897</speed>
  <fix>3d</fix>
</trkpt>
<trkpt lat="40.0711839" lon="-105.2297057">
  <ele>1583.0</ele>
  <time>2026-08-28T17:54:19Z</time>
  <course>78.38</course>
  <speed>0.0</speed>
  <fix>3d</fix>
</trkpt>
<trkpt lat="40.0711841" lon="-105.2297056">
  <ele>1582.95</ele>
  <time>2026-08-28T17:54:19Z</time>
  <course>250.21</course>
  <speed>0.022360679774997897</speed>
  <fix>3d</fix>
</trkpt>
<trkpt lat="40.0711839" lon="-105.2297057">
  <ele>1583.0</ele>
  <time>2026-08-28T17:54:19Z</time>
  <course>79.31</course>
  <speed>0.0</speed>
  <fix>3d</fix>
</trkpt>
<trkpt lat="40.0711841" lon="-105.2297056">
  <ele>1582.94</ele>
  <time>2026-08-28T17:54:19Z</time>
  <course>250.21</course>
  <speed>0.022360679774997897</speed>
  <fix>3d</fix>
</trkpt>
<trkpt lat="40.0711839" lon="-105.2297057">
  <ele>1583.0</ele>
  <time>2026-08-28T17:54:19Z</time>
  <course>79.31</course>
  <speed>0.0</speed>
  <fix>3d</fix>
</trkpt>
<trkpt lat="40.0711841" lon="-105.2297056">
  <ele>1582.94</ele>
  <time>2026-08-28T17:54:19Z</time>
  <course>250.21</course>
  <speed>0.022360679774997897</speed>
  <fix>3d</fix>
</trkpt>
<trkpt lat="40.0711839" lon="-105.2297057">
  <ele>1583.0</ele>
  <time>2026-08-28T17:54:19Z</time>
  <course>80.35</course>
  <speed>0.0</speed>
  <fix>3d</fix>
</trkpt>
<trkpt lat="40.0711841" lon="-105.2297056">
  <ele>1582.94</ele>
  <time>2026-08-28T17:54:19Z</time>
  <course>250.21</course>
  <speed>0.022360679774997897</speed>
  <fix>3d</fix>
</trkpt>
<trkpt lat="40.0711839" lon="-105.2297057">
  <ele>1583.0</ele>
  <time>2026-08-28T17:54:19Z</time>
  <course>80.35</course>
  <speed>0.0</speed>
  <fix>3d</fix>
</trkpt>
<trkpt lat="40.0711841" lon="-105.2297056">
  <ele>1582.94</ele>
  <time>2026-08-28T17:54:19Z</time>
  <course>250.21</course>
  <speed>0.022360679774997897</speed>
  <fix>3d</fix>
</trkpt>
<trkpt lat="40.0711839" lon="-105.2297057">
  <ele>1583.0</ele>
  <time>2026-08-28T17:54:19Z</time>
  <course>81.48</course>
  <speed>0.0</speed>
  <fix>3d</fix>
</trkpt>
<trkpt lat="40.0711841" lon="-105.2297056">
  <ele>1582.93</ele>
  <time>2026-08-28T17:54:19Z</time>
  <course>250.21</course>
  <speed>0.022360679774997897</speed>
  <fix>3d</fix>
</trkpt>
<trkpt lat="40.0711839" lon="-105.2297057">
  <ele>1583.0</ele>
  <time>2026-08-28T17:54:19Z</time>
  <course>81.48</course>
  <speed>0.0</speed>
  <fix>3d</fix>
</trkpt>
<trkpt lat="40.0711841" lon="-105.2297056">
  <ele>1582.93</ele>
  <time>2026-08-28T17:54:19Z</time>
  <course>250.21</course>
  <speed>0.022360679774997897</speed>
  <fix>3d</fix>
</trkpt>
<trkpt lat="40.0711839" lon="-105.2297057">
  <ele>1583.0</ele>
  <time>2026-08-28T17:54:19Z</time>
  <course>82.72</course>
  <speed>0.0</speed>
  <fix>3d</fix>
</trkpt>
<trkpt lat="40.0711841" lon="-105.2297056">
  <ele>1582.93</ele>
  <time>2026-08-28T17:54:19Z</time>
  <course>250.22</course>
  <speed>0.022360679774997897</speed>
  <fix>3d</fix>
</trkpt>
<trkpt lat="40.0711839" lon="-105.2297057">
  <ele>1583.0</ele>
  <time>2026-08-28T17:54:19Z</time>
  <course>82.72</course>
  <speed>0.0</speed>
  <fix>3d</fix>
</trkpt>
<trkpt lat="40.0711841" lon="-105.2297056">
  <ele>1582.93</ele>
  <time>2026-08-28T17:54:19Z</time>
  <course>250.22</course>
  <speed>0.022360679774997897</speed>
  <fix>3d</fix>
</trkpt>
<trkpt lat="40.0711839" lon="-105.2297057">
  <ele>1583.0</ele>
  <time>2026-08-28T17:54:19Z</time>
  <course>84.08</course>
  <speed>0.0</speed>
  <fix>3d</fix>
</trkpt>
<trkpt lat="40.0711841" lon="-105.2297056">
  <ele>1582.93</ele>
  <time>2026-08-28T17:54:19Z</time>
  <course>250.22</course>
  <speed>0.022360679774997897</speed>
  <fix>3d</fix>
</trkpt>
<trkpt lat="40.0711839" lon="-105.2297057">
  <ele>1583.0</ele>
  <time>2026-08-28T17:54:19Z</time>
  <course>84.08</course>
  <speed>0.0</speed>
  <fix>3d</fix>
</trkpt>
<trkpt lat="40.0711841" lon="-105.2297056">
  <ele>1582.93</ele>
  <time>2026-08-28T17:54:19Z</time>
  <course>250.22</course>
  <speed>0.022360679774997897</speed>
  <fix>3d</fix>
</trkpt>
<trkpt lat="40.0711839" lon="-105.2297057">
  <ele>1583.0</ele>
  <time>2026-08-28T17:54:19Z</time>
  <course>85.56</course>
  <speed>0.0</speed>
  <fix>3d</fix>
</trkpt>
<trkpt lat="40.0711841" lon="-105.2297056">
  <ele>1582.93</ele>
  <time>2026-08-28T17:54:19Z</time>
  <course>250.22</course>
  <speed>0.022360679774997897</speed>
  <fix>3d</fix>
</trkpt>
<trkpt lat="40.0711839" lon="-105.2297057">
  <ele>1583.0</ele>
  <time>2026-08-28T17:54:19Z</time>
  <course>85.56</course>
  <speed>0.0</speed>
  <fix>3d</fix>
</trkpt>
<trkpt lat="40.0711841" lon="-105.2297056">
  <ele>1582.93</ele>
  <time>2026-08-28T17:54:19Z</time>
  <course>250.22</course>
  <speed>0.022360679774997897</speed>
  <fix>3d</fix>
</trkpt>
<trkpt lat="40.0711839" lon="-105.2297057">
  <ele>1583.0</ele>
  <time>2026-08-28T17:54:19Z</time>
  <course>87.16</course>
  <speed>0.0</speed>
  <fix>3d</fix>
</trkpt>
<trkpt lat="40.0711841" lon="-105.2297056">
  <ele>1582.93</ele>
  <time>2026-08-28T17:54:19Z</time>
  <course>250.22</course>
  <speed>0.022360679774997897</speed>
  <fix>3d</fix>
</trkpt>
<trkpt lat="40.0711839" lon="-105.2297057">
  <ele>1583.0</ele>
  <time>2026-08-28T17:54:19Z</time>
  <course>87.16</course>
  <speed>0.0</speed>
  <fix>3d</fix>
</trkpt>
<trkpt lat="40.0711841" lon="-105.2297056">
  <ele>1582.94</ele>
  <time>2026-08-28T17:54:19Z</time>
  <course>250.22</course>
  <speed>0.022360679774997897</speed>
  <fix>3d</fix>
</trkpt>
<trkpt lat="40.0711839" lon="-105.2297057">
  <ele>1583.0</ele>
  <time>2026-08-28T17:54:19Z</time>
  <course>88.91</course>
  <speed>0.0</speed>
  <fix>3d</fix>
</trkpt>
<trkpt lat="40.0711841" lon="-105.2297056">
  <ele>1582.94</ele>
  <time>2026-08-28T17:54:19Z</time>
  <course>250.22</course>
  <speed>0.022360679774997897</speed>
  <fix>3d</fix>
</trkpt>
<trkpt lat="40.0711839" lon="-105.2297057">
  <ele>1583.0</ele>
  <time>2026-08-28T17:54:19Z</time>
  <course>88.91</course>
  <speed>0.0</speed>
  <fix>3d</fix>
</trkpt>
<trkpt lat="40.0711841" lon="-105.2297056">
  <ele>1582.94</ele>
  <time>2026-08-28T17:54:19Z</time>
  <course>250.22</course>
  <speed>0.022360679774997897</speed>
  <fix>3d</fix>
</trkpt>
<trkpt lat="40.0711839" lon="-105.2297057">
  <ele>1583.0</ele>
  <time>2026-08-28T17:54:19Z</time>
  <course>90.79</course>
  <speed>0.0</speed>
  <fix>3d</fix>
</trkpt>
<trkpt lat="40.0711841" lon="-105.2297056">
  <ele>1582.94</ele>
  <time>2026-08-28T17:54:19Z</time>
  <course>250.22</course>
  <speed>0.022360679774997897</speed>
  <fix>3d</fix>
</trkpt>
<trkpt lat="40.0711839" lon="-105.2297057">
  <ele>1583.0</ele>
  <time>2026-08-28T17:54:19Z</time>
  <course>90.79</course>
  <speed>0.0</speed>
  <fix>3d</fix>
</trkpt>
<trkpt lat="40.0711841" lon="-105.2297056">
  <ele>1582.95</ele>
  <time>2026-08-28T17:54:19Z</time>
  <course>250.22</course>
  <speed>0.022360679774997897</speed>
  <fix>3d</fix>
</trkpt>
<trkpt lat="40.0711839" lon="-105.2297057">
  <ele>1583.0</ele>
  <time>2026-08-28T17:54:19Z</time>
  <course>92.82</course>
  <speed>0.0</speed>
  <fix>3d</fix>
</trkpt>
<trkpt lat="40.071184" lon="-105.2297056">
  <ele>1582.95</ele>
  <time>2026-08-28T17:54:19Z</time>
  <course>250.22</course>
  <speed>0.022360679774997897</speed>
  <fix>3d</fix>
</trkpt>
<trkpt lat="40.0711839" lon="-105.2297057">
  <ele>1583.0</ele>
  <time>2026-08-28T17:54:19Z</time>
  <course>92.82</course>
  <speed>0.0</speed>
  <fix>3d</fix>
</trkpt>
<trkpt lat="40.0711841" lon="-105.2297056">
  <ele>1582.95</ele>
  <time>2026-08-28T17:54:19Z</time>
  <course>250.22</course>
  <speed>0.022360679774997897</speed>
  <fix>3d</fix>
</trkpt>
<trkpt lat="40.0711839" lon="-105.2297057">
  <ele>1583.0</ele>
  <time>2026-08-28T17:54:19Z</time>
  <course>94.99</course>
  <speed>0.0</speed>
  <fix>3d</fix>
</trkpt>
<trkpt lat="40.071184" lon="-105.2297056">
  <ele>1582.95</ele>
  <time>2026-08-28T17:54:19Z</time>
  <course>250.22</course>
  <speed>0.022360679774997897</speed>
  <fix>3d</fix>
</trkpt>
<trkpt lat="40.0711839" lon="-105.2297057">
  <ele>1583.0</ele>
  <time>2026-08-28T17:54:19Z</time>
  <course>94.99</course>
  <speed>0.0</speed>
  <fix>3d</fix>
</trkpt>
<trkpt lat="40.0711841" lon="-105.2297056">
  <ele>1582.95</ele>
  <time>2026-08-28T17:54:19Z</time>
  <course>250.23</course>
  <speed>0.022360679774997897</speed>
  <fix>3d</fix>
</trkpt>
<trkpt lat="40.0711839" lon="-105.2297057">
  <ele>1583.0</ele>
  <time>2026-08-28T17:54:19Z</time>
  <course>97.3</course>
  <speed>0.0</speed>
  <fix>3d</fix>
</trkpt>
<trkpt lat="40.071184" lon="-105.2297056">
  <ele>1582.95</ele>
  <time>2026-08-28T17:54:19Z</time>
  <course>250.23</course>
  <speed>0.022360679774997897</speed>
  <fix>3d</fix>
</trkpt>
<trkpt lat="40.0711839" lon="-105.2297057">
  <ele>1583.0</ele>
  <time>2026-08-28T17:54:19Z</time>
  <course>97.3</course>
  <speed>0.0</speed>
  <fix>3d</fix>
</trkpt>
<trkpt lat="40.0711841" lon="-105.2297056">
  <ele>1582.95</ele>
  <time>2026-08-28T17:54:19Z</time>
  <course>250.23</course>
  <speed>0.022360679774997897</speed>
  <fix>3d</fix>
</trkpt>
<trkpt lat="40.0711839" lon="-105.2297057">
  <ele>1583.0</ele>
  <time>2026-08-28T17:54:19Z</time>
  <course>99.74</course>
  <speed>0.0</speed>
  <fix>3d</fix>
</trkpt>
<trkpt lat="40.071184" lon="-105.2297056">
  <ele>1582.95</ele>
  <time>2026-08-28T17:54:19Z</time>
  <course>250.23</course>
  <speed>0.022360679774997897</speed>
  <fix>3d</fix>
</trkpt>
<trkpt lat="40.0711839" lon="-105.2297057">
  <ele>1583.0</ele>
  <time>2026-08-28T17:54:19Z</time>
  <course>99.74</course>
  <speed>0.0</speed>
  <fix>3d</fix>
</trkpt>
<trkpt lat="40.0711841" lon="-105.2297056">
  <ele>1582.96</ele>
  <time>2026-08-28T17:54:19Z</time>
  <course>250.23</course>
  <speed>0.022360679774997897</speed>
  <fix>3d</fix>
</trkpt>
<trkpt lat="40.0711839" lon="-105.2297057">
  <ele>1583.0</ele>
  <time>2026-08-28T17:54:19Z</time>
  <course>102.3</course>
  <speed>0.0</speed>
  <fix>3d</fix>
</trkpt>
<trkpt lat="40.071184" lon="-105.2297056">
  <ele>1582.96</ele>
  <time>2026-08-28T17:54:19Z</time>
  <course>250.23</course>
  <speed>0.022360679774997897</speed>
  <fix>3d</fix>
</trkpt>
<trkpt lat="40.0711839" lon="-105.2297057">
  <ele>1583.0</ele>
  <time>2026-08-28T17:54:19Z</time>
  <course>102.3</course>
  <speed>0.0</speed>
  <fix>3d</fix>
</trkpt>
<trkpt lat="40.0711841" lon="-105.2297056">
  <ele>1582.96</ele>
  <time>2026-08-28T17:54:19Z</time>
  <course>250.23</course>
  <speed>0.022360679774997897</speed>
  <fix>3d</fix>
</trkpt>
<trkpt lat="40.0711839" lon="-105.2297057">
  <ele>1583.0</ele>
  <time>2026-08-28T17:54:19Z</time>
  <course>104.97</course>
  <speed>0.0</speed>
  <fix>3d</fix>
</trkpt>
<trkpt lat="40.0711841" lon="-105.2297056">
  <ele>1582.95</ele>
  <time>2026-08-28T17:54:19Z</time>
  <course>250.23</course>
  <speed>0.022360679774997897</speed>
  <fix>3d</fix>
</trkpt>
<trkpt lat="40.0711839" lon="-105.2297057">
  <ele>1583.0</ele>
  <time>2026-08-28T17:54:19Z</time>
  <course>104.97</course>
  <speed>0.0</speed>
  <fix>3d</fix>
</trkpt>
<trkpt lat="40.0711841" lon="-105.2297056">
  <ele>1582.95</ele>
  <time>2026-08-28T17:54:19Z</time>
  <course>250.23</course>
  <speed>0.022360679774997897</speed>
  <fix>3d</fix>
</trkpt>
<trkpt lat="40.0711839" lon="-105.2297057">
  <ele>1583.0</ele>
  <time>2026-08-28T17:54:19Z</time>
  <course>107.73</course>
  <speed>0.0</speed>
  <fix>3d</fix>
</trkpt>
<trkpt lat="40.0711841" lon="-105.2297056">
  <ele>1582.95</ele>
  <time>2026-08-28T17:54:19Z</time>
  <course>250.23</course>
  <speed>0.022360679774997897</speed>
  <fix>3d</fix>
</trkpt>
<trkpt lat="40.0711839" lon="-105.2297057">
  <ele>1583.0</ele>
  <time>2026-08-28T17:54:19Z</time>
  <course>107.73</course>
  <speed>0.0</speed>
  <fix>3d</fix>
</trkpt>
<trkpt lat="40.0711841" lon="-105.2297056">
  <ele>1582.94</ele>
  <time>2026-08-28T17:54:19Z</time>
  <course>250.23</course>
  <speed>0.022360679774997897</speed>
  <fix>3d</fix>
</trkpt>
<trkpt lat="40.0711839" lon="-105.2297057">
  <ele>1583.0</ele>
  <time>2026-08-28T17:54:19Z</time>
  <course>110.55</course>
  <speed>0.0</speed>
  <fix>3d</fix>
</trkpt>
<trkpt lat="40.0711841" lon="-105.2297056">
  <ele>1582.94</ele>
  <time>2026-08-28T17:54:19Z</time>
  <course>250.23</course>
  <speed>0.022360679774997897</speed>
  <fix>3d</fix>
</trkpt>
<trkpt lat="40.0711839" lon="-105.2297057">
  <ele>1583.0</ele>
  <time>2026-08-28T17:54:19Z</time>
  <course>110.55</course>
  <speed>0.0</speed>
  <fix>3d</fix>
</trkpt>
<trkpt lat="40.0711841" lon="-105.2297056">
  <ele>1582.94</ele>
  <time>2026-08-28T17:54:19Z</time>
  <course>250.23</course>
  <speed>0.022360679774997897</speed>
  <fix>3d</fix>
</trkpt>
<trkpt lat="40.0711839" lon="-105.2297057">
  <ele>1583.0</ele>
  <time>2026-08-28T17:54:19Z</time>
  <course>113.4</course>
  <speed>0.0</speed>
  <fix>3d</fix>
</trkpt>
<trkpt lat="40.0711841" lon="-105.2297056">
  <ele>1582.94</ele>
  <time>2026-08-28T17:54:19Z</time>
  <course>250.23</course>
  <speed>0.022360679774997897</speed>
  <fix>3d</fix>
</trkpt>
<trkpt lat="40.0711839" lon="-105.2297057">
  <ele>1583.0</ele>
  <time>2026-08-28T17:54:19Z</time>
  <course>113.4</course>
  <speed>0.0</speed>
  <fix>3d</fix>
</trkpt>
<trkpt lat="40.0711841" lon="-105.2297056">
  <ele>1582.93</ele>
  <time>2026-08-28T17:54:19Z</time>
  <course>250.23</course>
  <speed>0.022360679774997897</speed>
  <fix>3d</fix>
</trkpt>
<trkpt lat="40.0711839" lon="-105.2297057">
  <ele>1583.0</ele>
  <time>2026-08-28T17:54:19Z</time>
  <course>116.27</course>
  <speed>0.0</speed>
  <fix>3d</fix>
</trkpt>
<trkpt lat="40.071184" lon="-105.2297056">
  <ele>1582.93</ele>
  <time>2026-08-28T17:54:19Z</time>
  <course>250.23</course>
  <speed>0.022360679774997897</speed>
  <fix>3d</fix>
</trkpt>
<trkpt lat="40.0711839" lon="-105.2297057">
  <ele>1583.0</ele>
  <time>2026-08-28T17:54:19Z</time>
  <course>116.27</course>
  <speed>0.0</speed>
  <fix>3d</fix>
</trkpt>
<trkpt lat="40.0711841" lon="-105.2297056">
  <ele>1582.93</ele>
  <time>2026-08-28T17:54:19Z</time>
  <course>250.24</course>
  <speed>0.022360679774997897</speed>
  <fix>3d</fix>
</trkpt>
<trkpt lat="40.0711839" lon="-105.2297057">
  <ele>1583.0</ele>
  <time>2026-08-28T17:54:19Z</time>
  <course>119.11</course>
  <speed>0.0</speed>
  <fix>3d</fix>
</trkpt>
<trkpt lat="40.071184" lon="-105.2297056">
  <ele>1582.93</ele>
  <time>2026-08-28T17:54:19Z</time>
  <course>250.24</course>
  <speed>0.022360679774997897</speed>
  <fix>3d</fix>
</trkpt>
<trkpt lat="40.0711839" lon="-105.2297057">
  <ele>1583.0</ele>
  <time>2026-08-28T17:54:19Z</time>
  <course>119.11</course>
  <speed>0.0</speed>
  <fix>3d</fix>
</trkpt>
<trkpt lat="40.071184" lon="-105.2297056">
  <ele>1582.93</ele>
  <time>2026-08-28T17:54:19Z</time>
  <course>250.24</course>
  <speed>0.022360679774997897</speed>
  <fix>3d</fix>
</trkpt>
<trkpt lat="40.0711839" lon="-105.2297057">
  <ele>1583.0</ele>
  <time>2026-08-28T17:54:19Z</time>
  <course>121.9</course>
  <speed>0.0</speed>
  <fix>3d</fix>
</trkpt>
<trkpt lat="40.071184" lon="-105.2297056">
  <ele>1582.93</ele>
  <time>2026-08-28T17:54:19Z</time>
  <course>250.24</course>
  <speed>0.022360679774997897</speed>
  <fix>3d</fix>
</trkpt>
<trkpt lat="40.0711839" lon="-105.2297057">
  <ele>1583.0</ele>
  <time>2026-08-28T17:54:19Z</time>
  <course>121.9</course>
  <speed>0.0</speed>
  <fix>3d</fix>
</trkpt>
<trkpt lat="40.071184" lon="-105.2297056">
  <ele>1582.93</ele>
  <time>2026-08-28T17:54:19Z</time>
  <course>250.24</course>
  <speed>0.022360679774997897</speed>
  <fix>3d</fix>
</trkpt>
<trkpt lat="40.0711839" lon="-105.2297057">
  <ele>1583.0</ele>
  <time>2026-08-28T17:54:19Z</time>
  <course>124.63</course>
  <speed>0.0</speed>
  <fix>3d</fix>
</trkpt>
<trkpt lat="40.071184" lon="-105.2297056">
  <ele>1582.93</ele>
  <time>2026-08-28T17:54:19Z</time>
  <course>250.24</course>
  <speed>0.022360679774997897</speed>
  <fix>3d</fix>
</trkpt>
<trkpt lat="40.0711839" lon="-105.2297057">
  <ele>1583.0</ele>
  <time>2026-08-28T17:54:19Z</time>
  <course>124.63</course>
  <speed>0.0</speed>
  <fix>3d</fix>
</trkpt>
<trkpt lat="40.071184" lon="-105.2297056">
  <ele>1582.93</ele>
  <time>2026-08-28T17:54:19Z</time>
  <course>250.24</course>
  <speed>0.022360679774997897</speed>
  <fix>3d</fix>
</trkpt>
<trkpt lat="40.0711839" lon="-105.2297057">
  <ele>1583.0</ele>
  <time>2026-08-28T17:54:19Z</time>
  <course>127.25</course>
  <speed>0.0</speed>
  <fix>3d</fix>
</trkpt>
<trkpt lat="40.071184" lon="-105.2297056">
  <ele>1582.94</ele>
  <time>2026-08-28T17:54:19Z</time>
  <course>250.24</course>
  <speed>0.022360679774997897</speed>
  <fix>3d</fix>
</trkpt>
<trkpt lat="40.0711839" lon="-105.2297057">
  <ele>1583.0</ele>
  <time>2026-08-28T17:54:19Z</time>
  <course>127.25</course>
  <speed>0.0</speed>
  <fix>3d</fix>
</trkpt>
<trkpt lat="40.071184" lon="-105.2297056">
  <ele>1582.94</ele>
  <time>2026-08-28T17:54:19Z</time>
  <course>250.24</course>
  <speed>0.022360679774997897</speed>
  <fix>3d</fix>
</trkpt>
<trkpt lat="40.0711839" lon="-105.2297057">
  <ele>1583.0</ele>
  <time>2026-08-28T17:54:19Z</time>
  <course>129.77</course>
  <speed>0.0</speed>
  <fix>3d</fix>
</trkpt>
<trkpt lat="40.071184" lon="-105.2297056">
  <ele>1582.94</ele>
  <time>2026-08-28T17:54:19Z</time>
  <course>250.24</course>
  <speed>0.022360679774997897</speed>
  <fix>3d</fix>
</trkpt>
<trkpt lat="40.0711839" lon="-105.2297057">
  <ele>1583.0</ele>
  <time>2026-08-28T17:54:19Z</time>
  <course>129.77</course>
  <speed>0.0</speed>
  <fix>3d</fix>
</trkpt>
<trkpt lat="40.0711841" lon="-105.2297056">
  <ele>1582.95</ele>
  <time>2026-08-28T17:54:19Z</time>
  <course>250.24</course>
  <speed>0.022360679774997897</speed>
  <fix>3d</fix>
</trkpt>
<trkpt lat="40.0711839" lon="-105.2297057">
  <ele>1583.0</ele>
  <time>2026-08-28T17:54:19Z</time>
  <course>132.17</course>
  <speed>0.0</speed>
  <fix>3d</fix>
</trkpt>
<trkpt lat="40.071184" lon="-105.2297056">
  <ele>1582.95</ele>
  <time>2026-08-28T17:54:19Z</time>
  <course>250.24</course>
  <speed>0.022360679774997897</speed>
  <fix>3d</fix>
</trkpt>
<trkpt lat="40.0711839" lon="-105.2297057">
  <ele>1583.0</ele>
  <time>2026-08-28T17:54:19Z</time>
  <course>132.17</course>
  <speed>0.0</speed>
  <fix>3d</fix>
</trkpt>
<trkpt lat="40.0711841" lon="-105.2297056">
  <ele>1582.96</ele>
  <time>2026-08-28T17:54:19Z</time>
  <course>250.24</course>
  <speed>0.022360679774997897</speed>
  <fix>3d</fix>
</trkpt>
<trkpt lat="40.0711839" lon="-105.2297057">
  <ele>1583.0</ele>
  <time>2026-08-28T17:54:19Z</time>
  <course>134.42</course>
  <speed>0.0</speed>
  <fix>3d</fix>
</trkpt>
<trkpt lat="40.071184" lon="-105.2297056">
  <ele>1582.97</ele>
  <time>2026-08-28T17:54:19Z</time>
  <course>250.24</course>
  <speed>0.022360679774997897</speed>
  <fix>3d</fix>
</trkpt>
<trkpt lat="40.0711839" lon="-105.2297057">
  <ele>1583.0</ele>
  <time>2026-08-28T17:54:19Z</time>
  <course>134.42</course>
  <speed>0.0</speed>
  <fix>3d</fix>
</trkpt>
<trkpt lat="40.0711841" lon="-105.2297056">
  <ele>1582.98</ele>
  <time>2026-08-28T17:54:19Z</time>
  <course>250.24</course>
  <speed>0.022360679774997897</speed>
  <fix>3d</fix>
</trkpt>
<trkpt lat="40.0711839" lon="-105.2297057">
  <ele>1583.0</ele>
  <time>2026-08-28T17:54:19Z</time>
  <course>136.54</course>
  <speed>0.0</speed>
  <fix>3d</fix>
</trkpt>
<trkpt lat="39.655741" lon="-104.1383097">
  <ele>1566.58</ele>
  <time>2026-08-28T17:54:20Z</time>
  <course>0.0</course>
  <speed>0.0</speed>
  <fix>3d</fix>
</trkpt>
<trkpt lat="40.0713749" lon="-105.229789">
  <ele>1583.0</ele>
  <time>2026-08-28T17:54:20Z</time>
  <course>0.0</course>
  <speed>0.0</speed>
  <fix>3d</fix>
</trkpt>
<trkpt lat="40.0713749" lon="-105.229789">
  <ele>1583.0</ele>
  <time>2026-08-28T17:54:20Z</time>
  <course>238.36</course>
  <speed>0.0</speed>
  <fix>3d</fix>
</trkpt>
<trkpt lat="40.0713749" lon="-105.229789">
  <ele>1583.0</ele>
  <time>2026-08-28T17:54:20Z</time>
  <course>0.0</course>
  <speed>0.0</speed>
  <fix>3d</fix>
</trkpt>
<trkpt lat="40.0713749" lon="-105.229789">
  <ele>1583.0</ele>
  <time>2026-08-28T17:54:20Z</time>
  <course>238.44</course>
  <speed>0.0</speed>
  <fix>3d</fix>
</trkpt>
<trkpt lat="40.0713749" lon="-105.229789">
  <ele>1583.0</ele>
  <time>2026-08-28T17:54:20Z</time>
  <course>0.0</course>
  <speed>0.0</speed>
  <fix>3d</fix>
</trkpt>
<trkpt lat="40.0713749" lon="-105.229789">
  <ele>1583.0</ele>
  <time>2026-08-28T17:54:20Z</time>
  <course>238.64</course>
  <speed>0.0</speed>
  <fix>3d</fix>
</trkpt>
<trkpt lat="40.0713749" lon="-105.229789">
  <ele>1583.0</ele>
  <time>2026-08-28T17:54:20Z</time>
  <course>0.0</course>
  <speed>0.0</speed>
  <fix>3d</fix>
</trkpt>
<trkpt lat="40.0713749" lon="-105.229789">
  <ele>1583.0</ele>
  <time>2026-08-28T17:54:20Z</time>
  <course>238.93</course>
  <speed>0.0</speed>
  <fix>3d</fix>
</trkpt>
<trkpt lat="40.0713749" lon="-105.229789">
  <ele>1583.0</ele>
  <time>2026-08-28T17:54:20Z</time>
  <course>0.0</course>
  <speed>0.0</speed>
  <fix>3d</fix>
</trkpt>
<trkpt lat="40.0713749" lon="-105.229789">
  <ele>1583.0</ele>
  <time>2026-08-28T17:54:20Z</time>
  <course>239.26</course>
  <speed>0.0</speed>
  <fix>3d</fix>
</trkpt>
<trkpt lat="40.0713749" lon="-105.229789">
  <ele>1583.0</ele>
  <time>2026-08-28T17:54:20Z</time>
  <course>0.0</course>
  <speed>0.0</speed>
  <fix>3d</fix>
</trkpt>
<trkpt lat="40.0713749" lon="-105.229789">
  <ele>1583.0</ele>
  <time>2026-08-28T17:54:20Z</time>
  <course>239.61</course>
  <speed>0.0</speed>
  <fix>3d</fix>
</trkpt>
<trkpt lat="40.0713749" lon="-105.229789">
  <ele>1583.0</ele>
  <time>2026-08-28T17:54:20Z</time>
  <course>0.0</course>
  <speed>0.0</speed>
  <fix>3d</fix>
</trkpt>
<trkpt lat="40.0713749" lon="-105.229789">
  <ele>1583.0</ele>
  <time>2026-08-28T17:54:20Z</time>
  <course>239.96</course>
  <speed>0.0</speed>
  <fix>3d</fix>
</trkpt>
<trkpt lat="40.0713749" lon="-105.229789">
  <ele>1583.0</ele>
  <time>2026-08-28T17:54:20Z</time>
  <course>0.0</course>
  <speed>0.0</speed>
  <fix>3d</fix>
</trkpt>
<trkpt lat="40.0713749" lon="-105.229789">
  <ele>1583.0</ele>
  <time>2026-08-28T17:54:20Z</time>
  <course>240.29</course>
  <speed>0.0</speed>
  <fix>3d</fix>
</trkpt>
<trkpt lat="40.0713749" lon="-105.229789">
  <ele>1583.0</ele>
  <time>2026-08-28T17:54:20Z</time>
  <course>0.0</course>
  <speed>0.0</speed>
  <fix>3d</fix>
</trkpt>
<trkpt lat="40.0713749" lon="-105.229789">
  <ele>1583.0</ele>
  <time>2026-08-28T17:54:20Z</time>
  <course>240.61</course>
  <speed>0.0</speed>
  <fix>3d</fix>
</trkpt>
<trkpt lat="40.0713749" lon="-105.229789">
  <ele>1583.0</ele>
  <time>2026-08-28T17:54:20Z</time>
  <course>0.0</course>
  <speed>0.0</speed>
  <fix>3d</fix>
</trkpt>
<trkpt lat="40.0713749" lon="-105.229789">
  <ele>1583.0</ele>
  <time>2026-08-28T17:54:20Z</time>
  <course>240.92</course>
  <speed>0.0</speed>
  <fix>3d</fix>
</trkpt>
<trkpt lat="40.0713749" lon="-105.229789">
  <ele>1583.0</ele>
  <time>2026-08-28T17:54:20Z</time>
  <course>0.0</course>
  <speed>0.0</speed>
  <fix>3d</fix>
</trkpt>
<trkpt lat="40.0713749" lon="-105.229789">
  <ele>1583.0</ele>
  <time>2026-08-28T17:54:20Z</time>
  <course>241.21</course>
  <speed>0.0</speed>
  <fix>3d</fix>
</trkpt>
<trkpt lat="40.0713749" lon="-105.229789">
  <ele>1583.0</ele>
  <time>2026-08-28T17:54:20Z</time>
  <course>0.0</course>
  <speed>0.0</speed>
  <fix>3d</fix>
</trkpt>
<trkpt lat="40.0713749" lon="-105.229789">
  <ele>1583.0</ele>
  <time>2026-08-28T17:54:20Z</time>
  <course>241.49</course>
  <speed>0.0</speed>
  <fix>3d</fix>
</trkpt>
<trkpt lat="40.0713749" lon="-105.229789">
  <ele>1583.0</ele>
  <time>2026-08-28T17:54:20Z</time>
  <course>0.0</course>
  <speed>0.0</speed>
  <fix>3d</fix>
</trkpt>
<trkpt lat="40.0713749" lon="-105.229789">
  <ele>1583.0</ele>
  <time>2026-08-28T17:54:20Z</time>
  <course>241.77</course>
  <speed>0.0</speed>
  <fix>3d</fix>
</trkpt>
<trkpt lat="40.0713749" lon="-105.229789">
  <ele>1583.0</ele>
  <time>2026-08-28T17:54:20Z</time>
  <course>0.0</course>
  <speed>0.0</speed>
  <fix>3d</fix>
</trkpt>
<trkpt lat="40.0713749" lon="-105.229789">
  <ele>1583.0</ele>
  <time>2026-08-28T17:54:20Z</time>
  <course>242.03</course>
  <speed>0.0</speed>
  <fix>3d</fix>
</trkpt>
<trkpt lat="40.0713749" lon="-105.229789">
  <ele>1583.0</ele>
  <time>2026-08-28T17:54:20Z</time>
  <course>0.0</course>
  <speed>0.0</speed>
  <fix>3d</fix>
</trkpt>
<trkpt lat="40.0713749" lon="-105.229789">
  <ele>1583.0</ele>
  <time>2026-08-28T17:54:20Z</time>
  <course>242.29</course>
  <speed>0.0</speed>
  <fix>3d</fix>
</trkpt>
<trkpt lat="40.0713749" lon="-105.229789">
  <ele>1583.0</ele>
  <time>2026-08-28T17:54:20Z</time>
  <course>0.0</course>
  <speed>0.0</speed>
  <fix>3d</fix>
</trkpt>
<trkpt lat="40.0713749" lon="-105.229789">
  <ele>1583.0</ele>
  <time>2026-08-28T17:54:20Z</time>
  <course>242.54</course>
  <speed>0.0</speed>
  <fix>3d</fix>
</trkpt>
<trkpt lat="40.0713749" lon="-105.229789">
  <ele>1583.0</ele>
  <time>2026-08-28T17:54:20Z</time>
  <course>0.0</course>
  <speed>0.0</speed>
  <fix>3d</fix>
</trkpt>
<trkpt lat="40.0713749" lon="-105.229789">
  <ele>1583.0</ele>
  <time>2026-08-28T17:54:20Z</time>
  <course>242.79</course>
  <speed>0.0</speed>
  <fix>3d</fix>
</trkpt>
<trkpt lat="40.0713749" lon="-105.229789">
  <ele>1583.0</ele>
  <time>2026-08-28T17:54:20Z</time>
  <course>0.0</course>
  <speed>0.0</speed>
  <fix>3d</fix>
</trkpt>
<trkpt lat="40.0713749" lon="-105.229789">
  <ele>1583.0</ele>
  <time>2026-08-28T17:54:20Z</time>
  <course>243.02</course>
  <speed>0.0</speed>
  <fix>3d</fix>
</trkpt>
<trkpt lat="40.0713749" lon="-105.229789">
  <ele>1583.0</ele>
  <time>2026-08-28T17:54:20Z</time>
  <course>0.0</course>
  <speed>0.0</speed>
  <fix>3d</fix>
</trkpt>
<trkpt lat="40.0713749" lon="-105.229789">
  <ele>1583.0</ele>
  <time>2026-08-28T17:54:20Z</time>
  <course>243.25</course>
  <speed>0.0</speed>
  <fix>3d</fix>
</trkpt>
<trkpt lat="40.0713749" lon="-105.229789">
  <ele>1583.0</ele>
  <time>2026-08-28T17:54:20Z</time>
  <course>0.0</course>
  <speed>0.0</speed>
  <fix>3d</fix>
</trkpt>
<trkpt lat="40.0713749" lon="-105.229789">
  <ele>1583.0</ele>
  <time>2026-08-28T17:54:20Z</time>
  <course>243.47</course>
  <speed>0.0</speed>
  <fix>3d</fix>
</trkpt>
<trkpt lat="40.0713749" lon="-105.229789">
  <ele>1583.0</ele>
  <time>2026-08-28T17:54:20Z</time>
  <course>0.0</course>
  <speed>0.0</speed>
  <fix>3d</fix>
</trkpt>
<trkpt lat="40.0713749" lon="-105.229789">
  <ele>1583.0</ele>
  <time>2026-08-28T17:54:20Z</time>
  <course>243.68</course>
  <speed>0.0</speed>
  <fix>3d</fix>
</trkpt>
<trkpt lat="40.0713749" lon="-105.229789">
  <ele>1583.0</ele>
  <time>2026-08-28T17:54:20Z</time>
  <course>0.0</course>
  <speed>0.0</speed>
  <fix>3d</fix>
</trkpt>
<trkpt lat="40.0713749" lon="-105.229789">
  <ele>1583.0</ele>
  <time>2026-08-28T17:54:20Z</time>
  <course>243.89</course>
  <speed>0.0</speed>
  <fix>3d</fix>
</trkpt>
<trkpt lat="40.0713749" lon="-105.229789">
  <ele>1583.0</ele>
  <time>2026-08-28T17:54:20Z</time>
  <course>0.0</course>
  <speed>0.0</speed>
  <fix>3d</fix>
</trkpt>
<trkpt lat="40.0713749" lon="-105.229789">
  <ele>1583.0</ele>
  <time>2026-08-28T17:54:20Z</time>
  <course>244.09</course>
  <speed>0.0</speed>
  <fix>3d</fix>
</trkpt>
<trkpt lat="40.0713749" lon="-105.229789">
  <ele>1583.0</ele>
  <time>2026-08-28T17:54:20Z</time>
  <course>0.0</course>
  <speed>0.0</speed>
  <fix>3d</fix>
</trkpt>
<trkpt lat="40.0713749" lon="-105.229789">
  <ele>1583.0</ele>
  <time>2026-08-28T17:54:20Z</time>
  <course>244.28</course>
  <speed>0.0</speed>
  <fix>3d</fix>
</trkpt>
<trkpt lat="40.0713749" lon="-105.229789">
  <ele>1583.0</ele>
  <time>2026-08-28T17:54:20Z</time>
  <course>0.0</course>
  <speed>0.0</speed>
  <fix>3d</fix>
</trkpt>
<trkpt lat="40.0713749" lon="-105.229789">
  <ele>1583.0</ele>
  <time>2026-08-28T17:54:20Z</time>
  <course>244.46</course>
  <speed>0.0</speed>
  <fix>3d</fix>
</trkpt>
<trkpt lat="40.0713749" lon="-105.229789">
  <ele>1583.0</ele>
  <time>2026-08-28T17:54:20Z</time>
  <course>0.0</course>
  <speed>0.0</speed>
  <fix>3d</fix>
</trkpt>
<trkpt lat="40.0713749" lon="-105.229789">
  <ele>1583.0</ele>
  <time>2026-08-28T17:54:20Z</time>
  <course>244.64</course>
  <speed>0.0</speed>
  <fix>3d</fix>
</trkpt>
<trkpt lat="40.0713749" lon="-105.229789">
  <ele>1583.0</ele>
  <time>2026-08-28T17:54:20Z</time>
  <course>0.0</course>
  <speed>0.0</speed>
  <fix>3d</fix>
</trkpt>
<trkpt lat="40.0713749" lon="-105.229789">
  <ele>1583.0</ele>
  <time>2026-08-28T17:54:20Z</time>
  <course>244.81</course>
  <speed>0.0</speed>
  <fix>3d</fix>
</trkpt>
<trkpt lat="40.0713749" lon="-105.229789">
  <ele>1583.0</ele>
  <time>2026-08-28T17:54:20Z</time>
  <course>0.0</course>
  <speed>0.0</speed>
  <fix>3d</fix>
</trkpt>
<trkpt lat="40.0713749" lon="-105.229789">
  <ele>1583.0</ele>
  <time>2026-08-28T17:54:20Z</time>
  <course>244.97</course>
  <speed>0.0</speed>
  <fix>3d</fix>
</trkpt>
<trkpt lat="40.0713749" lon="-105.229789">
  <ele>1583.0</ele>
  <time>2026-08-28T17:54:20Z</time>
  <course>0.0</course>
  <speed>0.0</speed>
  <fix>3d</fix>
</trkpt>
<trkpt lat="40.0713749" lon="-105.229789">
  <ele>1583.0</ele>
  <time>2026-08-28T17:54:20Z</time>
  <course>245.13</course>
  <speed>0.0</speed>
  <fix>3d</fix>
</trkpt>
<trkpt lat="40.0713749" lon="-105.229789">
  <ele>1583.0</ele>
  <time>2026-08-28T17:54:20Z</time>
  <course>0.0</course>
  <speed>0.0</speed>
  <fix>3d</fix>
</trkpt>
<trkpt lat="40.0713749" lon="-105.229789">
  <ele>1583.0</ele>
  <time>2026-08-28T17:54:20Z</time>
  <course>245.29</course>
  <speed>0.0</speed>
  <fix>3d</fix>
</trkpt>
<trkpt lat="40.0713749" lon="-105.229789">
  <ele>1583.0</ele>
  <time>2026-08-28T17:54:20Z</time>
  <course>0.0</course>
  <speed>0.0</speed>
  <fix>3d</fix>
</trkpt>
<trkpt lat="40.0713749" lon="-105.229789">
  <ele>1583.0</ele>
  <time>2026-08-28T17:54:20Z</time>
  <course>245.43</course>
  <speed>0.0</speed>
  <fix>3d</fix>
</trkpt>
<trkpt lat="40.0713749" lon="-105.229789">
  <ele>1583.0</ele>
  <time>2026-08-28T17:54:20Z</time>
  <course>0.0</course>
  <speed>0.0</speed>
  <fix>3d</fix>
</trkpt>
<trkpt lat="40.0713749" lon="-105.229789">
  <ele>1583.0</ele>
  <time>2026-08-28T17:54:20Z</time>
  <course>245.57</course>
  <speed>0.0</speed>
  <fix>3d</fix>
</trkpt>
<trkpt lat="40.0713749" lon="-105.229789">
  <ele>1583.0</ele>
  <time>2026-08-28T17:54:20Z</time>
  <course>0.0</course>
  <speed>0.0</speed>
  <fix>3d</fix>
</trkpt>
<trkpt lat="40.0713749" lon="-105.229789">
  <ele>1583.0</ele>
  <time>2026-08-28T17:54:20Z</time>
  <course>246.08</course>
  <speed>0.0</speed>
  <fix>3d</fix>
</trkpt>
<trkpt lat="40.0713749" lon="-105.229789">
  <ele>1583.0</ele>
  <time>2026-08-28T17:54:20Z</time>
  <course>0.0</course>
  <speed>0.0</speed>
  <fix>3d</fix>
</trkpt>
<trkpt lat="40.0713749" lon="-105.229789">
  <ele>1583.0</ele>
  <time>2026-08-28T17:54:20Z</time>
  <course>246.41</course>
  <speed>0.0</speed>
  <fix>3d</fix>
</trkpt>
<trkpt lat="40.0713749" lon="-105.229789">
  <ele>1583.0</ele>
  <time>2026-08-28T17:54:20Z</time>
  <course>0.0</course>
  <speed>0.0</speed>
  <fix>3d</fix>
</trkpt>
<trkpt lat="40.0713749" lon="-105.229789">
  <ele>1583.0</ele>
  <time>2026-08-28T17:54:20Z</time>
  <course>246.53</course>
  <speed>0.0</speed>
  <fix>3d</fix>
</trkpt>
<trkpt lat="40.0713749" lon="-105.229789">
  <ele>1583.0</ele>
  <time>2026-08-28T17:54:20Z</time>
  <course>0.0</course>
  <speed>0.0</speed>
  <fix>3d</fix>
</trkpt>
<trkpt lat="40.0713749" lon="-105.229789">
  <ele>1583.0</ele>
  <time>2026-08-28T17:54:20Z</time>
  <course>246.62</course>
  <speed>0.0</speed>
  <fix>3d</fix>
</trkpt>
<trkpt lat="40.0713749" lon="-105.229789">
  <ele>1583.0</ele>
  <time>2026-08-28T17:54:20Z</time>
  <course>0.0</course>
  <speed>0.0</speed>
  <fix>3d</fix>
</trkpt>
<trkpt lat="40.0713749" lon="-105.229789">
  <ele>1583.0</ele>
  <time>2026-08-28T17:54:20Z</time>
  <course>246.71</course>
  <speed>0.0</speed>
  <fix>3d</fix>
</trkpt>
<trkpt lat="40.0713749" lon="-105.229789">
  <ele>1583.0</ele>
  <time>2026-08-28T17:54:20Z</time>
  <course>0.0</course>
  <speed>0.0</speed>
  <fix>3d</fix>
</trkpt>
<trkpt lat="40.0713749" lon="-105.229789">
  <ele>1583.0</ele>
  <time>2026-08-28T17:54:20Z</time>
  <course>246.8</course>
  <speed>0.0</speed>
  <fix>3d</fix>
</trkpt>
<trkpt lat="40.0713749" lon="-105.229789">
  <ele>1583.0</ele>
  <time>2026-08-28T17:54:20Z</time>
  <course>0.0</course>
  <speed>0.0</speed>
  <fix>3d</fix>
</trkpt>
<trkpt lat="40.0713749" lon="-105.229789">
  <ele>1583.0</ele>
  <time>2026-08-28T17:54:20Z</time>
  <course>246.96</course>
  <speed>0.0</speed>
  <fix>3d</fix>
</trkpt>
<trkpt lat="40.0713749" lon="-105.229789">
  <ele>1583.0</ele>
  <time>2026-08-28T17:54:20Z</time>
  <course>0.0</course>
  <speed>0.0</speed>
  <fix>3d</fix>
</trkpt>
<trkpt lat="40.0713749" lon="-105.229789">
  <ele>1583.0</ele>
  <time>2026-08-28T17:54:20Z</time>
  <course>247.04</course>
  <speed>0.0</speed>
  <fix>3d</fix>
</trkpt>
<trkpt lat="40.0713749" lon="-105.229789">
  <ele>1583.0</ele>
  <time>2026-08-28T17:54:20Z</time>
  <course>0.0</course>
  <speed>0.0</speed>
  <fix>3d</fix>
</trkpt>
<trkpt lat="40.0713749" lon="-105.229789">
  <ele>1583.0</ele>
  <time>2026-08-28T17:54:20Z</time>
  <course>247.11</course>
  <speed>0.0</speed>
  <fix>3d</fix>
</trkpt>
<trkpt lat="40.0713749" lon="-105.229789">
  <ele>1583.0</ele>
  <time>2026-08-28T17:54:20Z</time>
  <course>0.0</course>
  <speed>0.0</speed>
  <fix>3d</fix>
</trkpt>
<trkpt lat="40.0713749" lon="-105.229789">
  <ele>1583.0</ele>
  <time>2026-08-28T17:54:20Z</time>
  <course>247.18</course>
  <speed>0.0</speed>
  <fix>3d</fix>
</trkpt>
<trkpt lat="40.0713749" lon="-105.229789">
  <ele>1583.0</ele>
  <time>2026-08-28T17:54:20Z</time>
  <course>0.0</course>
  <speed>0.0</speed>
  <fix>3d</fix>
</trkpt>
<trkpt lat="40.0713749" lon="-105.229789">
  <ele>1583.0</ele>
  <time>2026-08-28T17:54:20Z</time>
  <course>247.25</course>
  <speed>0.0</speed>
  <fix>3d</fix>
</trkpt>
<trkpt lat="40.0713749" lon="-105.229789">
  <ele>1583.0</ele>
  <time>2026-08-28T17:54:20Z</time>
  <course>0.0</course>
  <speed>0.0</speed>
  <fix>3d</fix>
</trkpt>
<trkpt lat="40.0713749" lon="-105.229789">
  <ele>1583.0</ele>
  <time>2026-08-28T17:54:20Z</time>
  <course>247.31</course>
  <speed>0.0</speed>
  <fix>3d</fix>
</trkpt>
<trkpt lat="40.0713749" lon="-105.229789">
  <ele>1583.0</ele>
  <time>2026-08-28T17:54:20Z</time>
  <course>0.0</course>
  <speed>0.0</speed>
  <fix>3d</fix>
</trkpt>
<trkpt lat="40.0713749" lon="-105.229789">
  <ele>1583.0</ele>
  <time>2026-08-28T17:54:20Z</time>
  <course>247.36</course>
  <speed>0.0</speed>
  <fix>3d</fix>
</trkpt>
<trkpt lat="40.0713749" lon="-105.229789">
  <ele>1583.0</ele>
  <time>2026-08-28T17:54:20Z</time>
  <course>0.0</course>
  <speed>0.0</speed>
  <fix>3d</fix>
</trkpt>
<trkpt lat="40.0713749" lon="-105.229789">
  <ele>1583.0</ele>
  <time>2026-08-28T17:54:20Z</time>
  <course>247.42</course>
  <speed>0.0</speed>
  <fix>3d</fix>
</trkpt>
<trkpt lat="40.0713749" lon="-105.229789">
  <ele>1583.0</ele>
  <time>2026-08-28T17:54:20Z</time>
  <course>0.0</course>
  <speed>0.0</speed>
  <fix>3d</fix>
</trkpt>
<trkpt lat="40.0713749" lon="-105.229789">
  <ele>1583.0</ele>
  <time>2026-08-28T17:54:20Z</time>
  <course>247.47</course>
  <speed>0.0</speed>
  <fix>3d</fix>
</trkpt>
<trkpt lat="40.0713749" lon="-105.229789">
  <ele>1583.0</ele>
  <time>2026-08-28T17:54:20Z</time>
  <course>0.0</course>
  <speed>0.0</speed>
  <fix>3d</fix>
</trkpt>
<trkpt lat="40.0713749" lon="-105.229789">
  <ele>1583.0</ele>
  <time>2026-08-28T17:54:20Z</time>
  <course>247.53</course>
  <speed>0.0</speed>
  <fix>3d</fix>
</trkpt>
<trkpt lat="40.0713749" lon="-105.229789">
  <ele>1583.0</ele>
  <time>2026-08-28T17:54:20Z</time>
  <course>0.0</course>
  <speed>0.0</speed>
  <fix>3d</fix>
</trkpt>
<trkpt lat="40.0713749" lon="-105.229789">
  <ele>1583.0</ele>
  <time>2026-08-28T17:54:20Z</time>
  <course>247.58</course>
  <speed>0.0</speed>
  <fix>3d</fix>
</trkpt>
<trkpt lat="40.0713749" lon="-105.229789">
  <ele>1583.0</ele>
  <time>2026-08-28T17:54:20Z</time>
  <course>0.0</course>
  <speed>0.0</speed>
  <fix>3d</fix>
</trkpt>
<trkpt lat="40.0713749" lon="-105.229789">
  <ele>1583.0</ele>
  <time>2026-08-28T17:54:20Z</time>
  <course>247.63</course>
  <speed>0.0</speed>
  <fix>3d</fix>
</trkpt>
<trkpt lat="40.0713749" lon="-105.229789">
  <ele>1583.0</ele>
  <time>2026-08-28T17:54:20Z</time>
  <course>0.0</course>
  <speed>0.0</speed>
  <fix>3d</fix>
</trkpt>
<trkpt lat="40.0713749" lon="-105.229789">
  <ele>1583.0</ele>
  <time>2026-08-28T17:54:20Z</time>
  <course>247.67</course>
  <speed>0.0</speed>
  <fix>3d</fix>
</trkpt>
<trkpt lat="40.0713749" lon="-105.229789">
  <ele>1583.0</ele>
  <time>2026-08-28T17:54:20Z</time>
  <course>0.0</course>
  <speed>0.0</speed>
  <fix>3d</fix>
</trkpt>
<trkpt lat="40.0713749" lon="-105.229789">
  <ele>1583.0</ele>
  <time>2026-08-28T17:54:20Z</time>
  <course>247.72</course>
  <speed>0.0</speed>
  <fix>3d</fix>
</trkpt>
<trkpt lat="40.0713749" lon="-105.229789">
  <ele>1583.0</ele>
  <time>2026-08-28T17:54:20Z</time>
  <course>0.0</course>
  <speed>0.0</speed>
  <fix>3d</fix>
</trkpt>
<trkpt lat="40.0713749" lon="-105.229789">
  <ele>1583.0</ele>
  <time>2026-08-28T17:54:20Z</time>
  <course>247.76</course>
  <speed>0.0</speed>
  <fix>3d</fix>
</trkpt>
<trkpt lat="40.0713749" lon="-105.229789">
  <ele>1583.0</ele>
  <time>2026-08-28T17:54:20Z</time>
  <course>0.0</course>
  <speed>0.0</speed>
  <fix>3d</fix>
</trkpt>
<trkpt lat="40.0713749" lon="-105.229789">
  <ele>1583.0</ele>
  <time>2026-08-28T17:54:20Z</time>
  <course>247.81</course>
  <speed>0.0</speed>
  <fix>3d</fix>
</trkpt>
<trkpt lat="40.0713749" lon="-105.229789">
  <ele>1583.0</ele>
  <time>2026-08-28T17:54:20Z</time>
  <course>0.0</course>
  <speed>0.0</speed>
  <fix>3d</fix>
</trkpt>
<trkpt lat="40.0713749" lon="-105.229789">
  <ele>1583.0</ele>
  <time>2026-08-28T17:54:20Z</time>
  <course>247.84</course>
  <speed>0.0</speed>
  <fix>3d</fix>
</trkpt>
<trkpt lat="40.0713749" lon="-105.229789">
  <ele>1583.0</ele>
  <time>2026-08-28T17:54:20Z</time>
  <course>0.0</course>
  <speed>0.0</speed>
  <fix>3d</fix>
</trkpt>
<trkpt lat="40.0713749" lon="-105.229789">
  <ele>1583.0</ele>
  <time>2026-08-28T17:54:20Z</time>
  <course>247.88</course>
  <speed>0.0</speed>
  <fix>3d</fix>
</trkpt>
<trkpt lat="40.0713749" lon="-105.229789">
  <ele>1583.0</ele>
  <time>2026-08-28T17:54:20Z</time>
  <course>0.0</course>
  <speed>0.0</speed>
  <fix>3d</fix>
</trkpt>
<trkpt lat="40.0713749" lon="-105.229789">
  <ele>1583.0</ele>
  <time>2026-08-28T17:54:20Z</time>
  <course>247.91</course>
  <speed>0.0</speed>
  <fix>3d</fix>
</trkpt>
<trkpt lat="40.0713749" lon="-105.229789">
  <ele>1583.0</ele>
  <time>2026-08-28T17:54:20Z</time>
  <course>0.0</course>
  <speed>0.0</speed>
  <fix>3d</fix>
</trkpt>
<trkpt lat="40.0713749" lon="-105.229789">
  <ele>1583.0</ele>
  <time>2026-08-28T17:54:20Z</time>
  <course>247.94</course>
  <speed>0.0</speed>
  <fix>3d</fix>
</trkpt>
<trkpt lat="40.0713749" lon="-105.229789">
  <ele>1583.0</ele>
  <time>2026-08-28T17:54:20Z</time>
  <course>0.0</course>
  <speed>0.0</speed>
  <fix>3d</fix>
</trkpt>
<trkpt lat="40.0713749" lon="-105.229789">
  <ele>1583.0</ele>
  <time>2026-08-28T17:54:20Z</time>
  <course>247.97</course>
  <speed>0.0</speed>
  <fix>3d</fix>
</trkpt>
<trkpt lat="40.0713749" lon="-105.229789">
  <ele>1583.0</ele>
  <time>2026-08-28T17:54:20Z</time>
  <course>0.0</course>
  <speed>0.0</speed>
  <fix>3d</fix>
</trkpt>
<trkpt lat="39.655741" lon="-104.1383097">
  <ele>1566.58</ele>
  <time>2026-08-28T17:54:21Z</time>
  <course>0.0</course>
  <speed>0.0</speed>
  <fix>3d</fix>
</trkpt>
<trkpt lat="40.0713749" lon="-105.229789">
  <ele>1583.0</ele>
  <time>2026-08-28T17:54:21Z</time>
  <course>0.0</course>
  <speed>0.0</speed>
  <fix>3d</fix>
</trkpt>
<trkpt lat="40.0713749" lon="-105.229789">
  <ele>1583.0</ele>
  <time>2026-08-28T17:54:21Z</time>
  <course>238.36</course>
  <speed>0.0</speed>
  <fix>3d</fix>
</trkpt>
<trkpt lat="40.0713749" lon="-105.229789">
  <ele>1583.0</ele>
  <time>2026-08-28T17:54:21Z</time>
  <course>0.0</course>
  <speed>0.0</speed>
  <fix>3d</fix>
</trkpt>
<trkpt lat="40.0713749" lon="-105.229789">
  <ele>1583.0</ele>
  <time>2026-08-28T17:54:21Z</time>
  <course>238.44</course>
  <speed>0.0</speed>
  <fix>3d</fix>
</trkpt>
<trkpt lat="40.0713749" lon="-105.229789">
  <ele>1583.0</ele>
  <time>2026-08-28T17:54:21Z</time>
  <course>0.0</course>
  <speed>0.0</speed>
  <fix>3d</fix>
</trkpt>
<trkpt lat="40.0713749" lon="-105.229789">
  <ele>1583.0</ele>
  <time>2026-08-28T17:54:21Z</time>
  <course>238.64</course>
  <speed>0.0</speed>
  <fix>3d</fix>
</trkpt>
<trkpt lat="40.0713749" lon="-105.229789">
  <ele>1583.0</ele>
  <time>2026-08-28T17:54:21Z</time>
  <course>0.0</course>
  <speed>0.0</speed>
  <fix>3d</fix>
</trkpt>
<trkpt lat="40.0713749" lon="-105.229789">
  <ele>1583.0</ele>
  <time>2026-08-28T17:54:21Z</time>
  <course>238.93</course>
  <speed>0.0</speed>
  <fix>3d</fix>
</trkpt>
<trkpt lat="40.0713749" lon="-105.229789">
  <ele>1583.0</ele>
  <time>2026-08-28T17:54:21Z</time>
  <course>0.0</course>
  <speed>0.0</speed>
  <fix>3d</fix>
</trkpt>
<trkpt lat="40.0713749" lon="-105.229789">
  <ele>1583.0</ele>
  <time>2026-08-28T17:54:21Z</time>
  <course>239.26</course>
  <speed>0.0</speed>
  <fix>3d</fix>
</trkpt>
<trkpt lat="40.0713749" lon="-105.229789">
  <ele>1583.0</ele>
  <time>2026-08-28T17:54:21Z</time>
  <course>0.0</course>
  <speed>0.0</speed>
  <fix>3d</fix>
</trkpt>
<trkpt lat="40.0713749" lon="-105.229789">
  <ele>1583.0</ele>
  <time>2026-08-28T17:54:21Z</time>
  <course>239.61</course>
  <speed>0.0</speed>
  <fix>3d</fix>
</trkpt>
<trkpt lat="40.0713749" lon="-105.229789">
  <ele>1583.0</ele>
  <time>2026-08-28T17:54:21Z</time>
  <course>0.0</course>
  <speed>0.0</speed>
  <fix>3d</fix>
</trkpt>
<trkpt lat="40.0713749" lon="-105.229789">
  <ele>1583.0</ele>
  <time>2026-08-28T17:54:21Z</time>
  <course>239.96</course>
  <speed>0.0</speed>
  <fix>3d</fix>
</trkpt>
<trkpt lat="40.0713749" lon="-105.229789">
  <ele>1583.0</ele>
  <time>2026-08-28T17:54:21Z</time>
  <course>0.0</course>
  <speed>0.0</speed>
  <fix>3d</fix>
</trkpt>
<trkpt lat="40.0713749" lon="-105.229789">
  <ele>1583.0</ele>
  <time>2026-08-28T17:54:21Z</time>
  <course>240.29</course>
  <speed>0.0</speed>
  <fix>3d</fix>
</trkpt>
<trkpt lat="40.0713749" lon="-105.229789">
  <ele>1583.0</ele>
  <time>2026-08-28T17:54:21Z</time>
  <course>0.0</course>
  <speed>0.0</speed>
  <fix>3d</fix>
</trkpt>
<trkpt lat="40.0713749" lon="-105.229789">
  <ele>1583.0</ele>
  <time>2026-08-28T17:54:21Z</time>
  <course>240.61</course>
  <speed>0.0</speed>
  <fix>3d</fix>
</trkpt>
<trkpt lat="40.0713749" lon="-105.229789">
  <ele>1583.0</ele>
  <time>2026-08-28T17:54:21Z</time>
  <course>0.0</course>
  <speed>0.0</speed>
  <fix>3d</fix>
</trkpt>
<trkpt lat="40.0713749" lon="-105.229789">
  <ele>1583.0</ele>
  <time>2026-08-28T17:54:21Z</time>
  <course>240.92</course>
  <speed>0.0</speed>
  <fix>3d</fix>
</trkpt>
<trkpt lat="40.0713749" lon="-105.229789">
  <ele>1583.0</ele>
  <time>2026-08-28T17:54:21Z</time>
  <course>0.0</course>
  <speed>0.0</speed>
  <fix>3d</fix>
</trkpt>
<trkpt lat="40.0713749" lon="-105.229789">
  <ele>1583.0</ele>
  <time>2026-08-28T17:54:21Z</time>
  <course>241.21</course>
  <speed>0.0</speed>
  <fix>3d</fix>
</trkpt>
<trkpt lat="40.0713749" lon="-105.229789">
  <ele>1583.0</ele>
  <time>2026-08-28T17:54:21Z</time>
  <course>0.0</course>
  <speed>0.0</speed>
  <fix>3d</fix>
</trkpt>
<trkpt lat="40.0713749" lon="-105.229789">
  <ele>1583.0</ele>
  <time>2026-08-28T17:54:21Z</time>
  <course>241.49</course>
  <speed>0.0</speed>
  <fix>3d</fix>
</trkpt>
<trkpt lat="40.0713749" lon="-105.229789">
  <ele>1583.0</ele>
  <time>2026-08-28T17:54:21Z</time>
  <course>0.0</course>
  <speed>0.0</speed>
  <fix>3d</fix>
</trkpt>
<trkpt lat="40.0713749" lon="-105.229789">
  <ele>1583.0</ele>
  <time>2026-08-28T17:54:21Z</time>
  <course>241.77</course>
  <speed>0.0</speed>
  <fix>3d</fix>
</trkpt>
<trkpt lat="40.0713749" lon="-105.229789">
  <ele>1583.0</ele>
  <time>2026-08-28T17:54:21Z</time>
  <course>0.0</course>
  <speed>0.0</speed>
  <fix>3d</fix>
</trkpt>
<trkpt lat="40.0713749" lon="-105.229789">
  <ele>1583.0</ele>
  <time>2026-08-28T17:54:21Z</time>
  <course>242.03</course>
  <speed>0.0</speed>
  <fix>3d</fix>
</trkpt>
<trkpt lat="40.0713749" lon="-105.229789">
  <ele>1583.0</ele>
  <time>2026-08-28T17:54:21Z</time>
  <course>0.0</course>
  <speed>0.0</speed>
  <fix>3d</fix>
</trkpt>
<trkpt lat="40.0713749" lon="-105.229789">
  <ele>1583.0</ele>
  <time>2026-08-28T17:54:21Z</time>
  <course>242.29</course>
  <speed>0.0</speed>
  <fix>3d</fix>
</trkpt>
<trkpt lat="40.0713749" lon="-105.229789">
  <ele>1583.0</ele>
  <time>2026-08-28T17:54:21Z</time>
  <course>0.0</course>
  <speed>0.0</speed>
  <fix>3d</fix>
</trkpt>
<trkpt lat="40.0713749" lon="-105.229789">
  <ele>1583.0</ele>
  <time>2026-08-28T17:54:21Z</time>
  <course>242.54</course>
  <speed>0.0</speed>
  <fix>3d</fix>
</trkpt>
<trkpt lat="40.0713749" lon="-105.229789">
  <ele>1583.0</ele>
  <time>2026-08-28T17:54:21Z</time>
  <course>0.0</course>
  <speed>0.0</speed>
  <fix>3d</fix>
</trkpt>
<trkpt lat="40.0713749" lon="-105.229789">
  <ele>1583.0</ele>
  <time>2026-08-28T17:54:21Z</time>
  <course>242.79</course>
  <speed>0.0</speed>
  <fix>3d</fix>
</trkpt>
<trkpt lat="40.0713749" lon="-105.229789">
  <ele>1583.0</ele>
  <time>2026-08-28T17:54:21Z</time>
  <course>0.0</course>
  <speed>0.0</speed>
  <fix>3d</fix>
</trkpt>
<trkpt lat="40.0713749" lon="-105.229789">
  <ele>1583.0</ele>
  <time>2026-08-28T17:54:21Z</time>
  <course>243.02</course>
  <speed>0.0</speed>
  <fix>3d</fix>
</trkpt>
<trkpt lat="40.0713749" lon="-105.229789">
  <ele>1583.0</ele>
  <time>2026-08-28T17:54:21Z</time>
  <course>0.0</course>
  <speed>0.0</speed>
  <fix>3d</fix>
</trkpt>
<trkpt lat="40.0713749" lon="-105.229789">
  <ele>1583.0</ele>
  <time>2026-08-28T17:54:21Z</time>
  <course>243.25</course>
  <speed>0.0</speed>
  <fix>3d</fix>
</trkpt>
<trkpt lat="40.0713749" lon="-105.229789">
  <ele>1583.0</ele>
  <time>2026-08-28T17:54:21Z</time>
  <course>0.0</course>
  <speed>0.0</speed>
  <fix>3d</fix>
</trkpt>
<trkpt lat="40.0713749" lon="-105.229789">
  <ele>1583.0</ele>
  <time>2026-08-28T17:54:21Z</time>
  <course>243.47</course>
  <speed>0.0</speed>
  <fix>3d</fix>
</trkpt>
<trkpt lat="40.0713749" lon="-105.229789">
  <ele>1583.0</ele>
  <time>2026-08-28T17:54:21Z</time>
  <course>0.0</course>
  <speed>0.0</speed>
  <fix>3d</fix>
</trkpt>
<trkpt lat="40.0713749" lon="-105.229789">
  <ele>1583.0</ele>
  <time>2026-08-28T17:54:21Z</time>
  <course>243.68</course>
  <speed>0.0</speed>
  <fix>3d</fix>
</trkpt>
<trkpt lat="40.0713749" lon="-105.229789">
  <ele>1583.0</ele>
  <time>2026-08-28T17:54:21Z</time>
  <course>0.0</course>
  <speed>0.0</speed>
  <fix>3d</fix>
</trkpt>
<trkpt lat="40.0713749" lon="-105.229789">
  <ele>1583.0</ele>
  <time>2026-08-28T17:54:21Z</time>
  <course>243.89</course>
  <speed>0.0</speed>
  <fix>3d</fix>
</trkpt>
<trkpt lat="40.0713749" lon="-105.229789">
  <ele>1583.0</ele>
  <time>2026-08-28T17:54:21Z</time>
  <course>0.0</course>
  <speed>0.0</speed>
  <fix>3d</fix>
</trkpt>
<trkpt lat="40.0713749" lon="-105.229789">
  <ele>1583.0</ele>
  <time>2026-08-28T17:54:21Z</time>
  <course>244.09</course>
  <speed>0.0</speed>
  <fix>3d</fix>
</trkpt>
<trkpt lat="40.0713749" lon="-105.229789">
  <ele>1583.0</ele>
  <time>2026-08-28T17:54:21Z</time>
  <course>0.0</course>
  <speed>0.0</speed>
  <fix>3d</fix>
</trkpt>
<trkpt lat="40.0713749" lon="-105.229789">
  <ele>1583.0</ele>
  <time>2026-08-28T17:54:21Z</time>
  <course>244.28</course>
  <speed>0.0</speed>
  <fix>3d</fix>
</trkpt>
<trkpt lat="40.0713749" lon="-105.229789">
  <ele>1583.0</ele>
  <time>2026-08-28T17:54:21Z</time>
  <course>0.0</course>
  <speed>0.0</speed>
  <fix>3d</fix>
</trkpt>
<trkpt lat="40.0713749" lon="-105.229789">
  <ele>1583.0</ele>
  <time>2026-08-28T17:54:21Z</time>
  <course>244.46</course>
  <speed>0.0</speed>
  <fix>3d</fix>
</trkpt>
<trkpt lat="40.0713749" lon="-105.229789">
  <ele>1583.0</ele>
  <time>2026-08-28T17:54:21Z</time>
  <course>0.0</course>
  <speed>0.0</speed>
  <fix>3d</fix>
</trkpt>
<trkpt lat="40.0713749" lon="-105.229789">
  <ele>1583.0</ele>
  <time>2026-08-28T17:54:21Z</time>
  <course>244.64</course>
  <speed>0.0</speed>
  <fix>3d</fix>
</trkpt>
<trkpt lat="40.0713749" lon="-105.229789">
  <ele>1583.0</ele>
  <time>2026-08-28T17:54:21Z</time>
  <course>0.0</course>
  <speed>0.0</speed>
  <fix>3d</fix>
</trkpt>
<trkpt lat="40.0713749" lon="-105.229789">
  <ele>1583.0</ele>
  <time>2026-08-28T17:54:21Z</time>
  <course>244.81</course>
  <speed>0.0</speed>
  <fix>3d</fix>
</trkpt>
<trkpt lat="40.0713749" lon="-105.229789">
  <ele>1583.0</ele>
  <time>2026-08-28T17:54:21Z</time>
  <course>0.0</course>
  <speed>0.0</speed>
  <fix>3d</fix>
</trkpt>
<trkpt lat="40.0713749" lon="-105.229789">
  <ele>1583.0</ele>
  <time>2026-08-28T17:54:21Z</time>
  <course>244.97</course>
  <speed>0.0</speed>
  <fix>3d</fix>
</trkpt>
<trkpt lat="40.0713749" lon="-105.229789">
  <ele>1583.0</ele>
  <time>2026-08-28T17:54:21Z</time>
  <course>0.0</course>
  <speed>0.0</speed>
  <fix>3d</fix>
</trkpt>
<trkpt lat="40.0713749" lon="-105.229789">
  <ele>1583.0</ele>
  <time>2026-08-28T17:54:21Z</time>
  <course>245.13</course>
  <speed>0.0</speed>
  <fix>3d</fix>
</trkpt>
<trkpt lat="40.0713749" lon="-105.229789">
  <ele>1583.0</ele>
  <time>2026-08-28T17:54:21Z</time>
  <course>0.0</course>
  <speed>0.0</speed>
  <fix>3d</fix>
</trkpt>
<trkpt lat="40.0713749" lon="-105.229789">
  <ele>1583.0</ele>
  <time>2026-08-28T17:54:21Z</time>
  <course>245.29</course>
  <speed>0.0</speed>
  <fix>3d</fix>
</trkpt>
<trkpt lat="40.0713749" lon="-105.229789">
  <ele>1583.0</ele>
  <time>2026-08-28T17:54:21Z</time>
  <course>0.0</course>
  <speed>0.0</speed>
  <fix>3d</fix>
</trkpt>
<trkpt lat="40.0713749" lon="-105.229789">
  <ele>1583.0</ele>
  <time>2026-08-28T17:54:21Z</time>
  <course>245.43</course>
  <speed>0.0</speed>
  <fix>3d</fix>
</trkpt>
<trkpt lat="40.0713749" lon="-105.229789">
  <ele>1583.0</ele>
  <time>2026-08-28T17:54:21Z</time>
  <course>0.0</course>
  <speed>0.0</speed>
  <fix>3d</fix>
</trkpt>
<trkpt lat="40.0713749" lon="-105.229789">
  <ele>1583.0</ele>
  <time>2026-08-28T17:54:21Z</time>
  <course>245.57</course>
  <speed>0.0</speed>
  <fix>3d</fix>
</trkpt>
<trkpt lat="40.0713749" lon="-105.229789">
  <ele>1583.0</ele>
  <time>2026-08-28T17:54:21Z</time>
  <course>0.0</course>
  <speed>0.0</speed>
  <fix>3d</fix>
</trkpt>
<trkpt lat="40.0713749" lon="-105.229789">
  <ele>1583.0</ele>
  <time>2026-08-28T17:54:21Z</time>
  <course>245.71</course>
  <speed>0.0</speed>
  <fix>3d</fix>
</trkpt>
<trkpt lat="40.0713749" lon="-105.229789">
  <ele>1583.0</ele>
  <time>2026-08-28T17:54:21Z</time>
  <course>0.0</course>
  <speed>0.0</speed>
  <fix>3d</fix>
</trkpt>
<trkpt lat="40.0713749" lon="-105.229789">
  <ele>1583.0</ele>
  <time>2026-08-28T17:54:21Z</time>
  <course>245.84</course>
  <speed>0.0</speed>
  <fix>3d</fix>
</trkpt>
<trkpt lat="40.0713749" lon="-105.229789">
  <ele>1583.0</ele>
  <time>2026-08-28T17:54:21Z</time>
  <course>0.0</course>
  <speed>0.0</speed>
  <fix>3d</fix>
</trkpt>
<trkpt lat="40.0713749" lon="-105.229789">
  <ele>1583.0</ele>
  <time>2026-08-28T17:54:21Z</time>
  <course>245.96</course>
  <speed>0.0</speed>
  <fix>3d</fix>
</trkpt>
<trkpt lat="40.0713749" lon="-105.229789">
  <ele>1583.0</ele>
  <time>2026-08-28T17:54:21Z</time>
  <course>0.0</course>
  <speed>0.0</speed>
  <fix>3d</fix>
</trkpt>
<trkpt lat="40.0713749" lon="-105.229789">
  <ele>1583.0</ele>
  <time>2026-08-28T17:54:21Z</time>
  <course>246.08</course>
  <speed>0.0</speed>
  <fix>3d</fix>
</trkpt>
<trkpt lat="40.0713749" lon="-105.229789">
  <ele>1583.0</ele>
  <time>2026-08-28T17:54:21Z</time>
  <course>0.0</course>
  <speed>0.0</speed>
  <fix>3d</fix>
</trkpt>
<trkpt lat="40.0713749" lon="-105.229789">
  <ele>1583.0</ele>
  <time>2026-08-28T17:54:21Z</time>
  <course>246.19</course>
  <speed>0.0</speed>
  <fix>3d</fix>
</trkpt>
<trkpt lat="40.0713749" lon="-105.229789">
  <ele>1583.0</ele>
  <time>2026-08-28T17:54:21Z</time>
  <course>0.0</course>
  <speed>0.0</speed>
  <fix>3d</fix>
</trkpt>
<trkpt lat="40.0713749" lon="-105.229789">
  <ele>1583.0</ele>
  <time>2026-08-28T17:54:21Z</time>
  <course>246.3</course>
  <speed>0.0</speed>
  <fix>3d</fix>
</trkpt>
<trkpt lat="40.0713749" lon="-105.229789">
  <ele>1583.0</ele>
  <time>2026-08-28T17:54:21Z</time>
  <course>0.0</course>
  <speed>0.0</speed>
  <fix>3d</fix>
</trkpt>
<trkpt lat="40.0713749" lon="-105.229789">
  <ele>1583.0</ele>
  <time>2026-08-28T17:54:21Z</time>
  <course>246.41</course>
  <speed>0.0</speed>
  <fix>3d</fix>
</trkpt>
<trkpt lat="40.0713749" lon="-105.229789">
  <ele>1583.0</ele>
  <time>2026-08-28T17:54:21Z</time>
  <course>0.0</course>
  <speed>0.0</speed>
  <fix>3d</fix>
</trkpt>
<trkpt lat="40.0713749" lon="-105.229789">
  <ele>1583.0</ele>
  <time>2026-08-28T17:54:21Z</time>
  <course>246.51</course>
  <speed>0.0</speed>
  <fix>3d</fix>
</trkpt>
<trkpt lat="40.0713749" lon="-105.229789">
  <ele>1583.0</ele>
  <time>2026-08-28T17:54:21Z</time>
  <course>0.0</course>
  <speed>0.0</speed>
  <fix>3d</fix>
</trkpt>
<trkpt lat="40.0713749" lon="-105.229789">
  <ele>1583.0</ele>
  <time>2026-08-28T17:54:21Z</time>
  <course>246.6</course>
  <speed>0.0</speed>
  <fix>3d</fix>
</trkpt>
<trkpt lat="40.0713749" lon="-105.229789">
  <ele>1583.0</ele>
  <time>2026-08-28T17:54:21Z</time>
  <course>0.0</course>
  <speed>0.0</speed>
  <fix>3d</fix>
</trkpt>
<trkpt lat="40.0713749" lon="-105.229789">
  <ele>1583.0</ele>
  <time>2026-08-28T17:54:21Z</time>
  <course>246.7</course>
  <speed>0.0</speed>
  <fix>3d</fix>
</trkpt>
<trkpt lat="40.0713749" lon="-105.229789">
  <ele>1583.0</ele>
  <time>2026-08-28T17:54:21Z</time>
  <course>0.0</course>
  <speed>0.0</speed>
  <fix>3d</fix>
</trkpt>
<trkpt lat="40.0713749" lon="-105.229789">
  <ele>1583.0</ele>
  <time>2026-08-28T17:54:21Z</time>
  <course>246.78</course>
  <speed>0.0</speed>
  <fix>3d</fix>
</trkpt>
<trkpt lat="40.0713749" lon="-105.229789">
  <ele>1583.0</ele>
  <time>2026-08-28T17:54:21Z</time>
  <course>0.0</course>
  <speed>0.0</speed>
  <fix>3d</fix>
</trkpt>
<trkpt lat="40.0713749" lon="-105.229789">
  <ele>1583.0</ele>
  <time>2026-08-28T17:54:21Z</time>
  <course>246.87</course>
  <speed>0.0</speed>
  <fix>3d</fix>
</trkpt>
<trkpt lat="40.0713749" lon="-105.229789">
  <ele>1583.0</ele>
  <time>2026-08-28T17:54:21Z</time>
  <course>0.0</course>
  <speed>0.0</speed>
  <fix>3d</fix>
</trkpt>
<trkpt lat="40.0713749" lon="-105.229789">
  <ele>1583.0</ele>
  <time>2026-08-28T17:54:21Z</time>
  <course>246.95</course>
  <speed>0.0</speed>
  <fix>3d</fix>
</trkpt>
<trkpt lat="40.0713749" lon="-105.229789">
  <ele>1583.0</ele>
  <time>2026-08-28T17:54:21Z</time>
  <course>0.0</course>
  <speed>0.0</speed>
  <fix>3d</fix>
</trkpt>
<trkpt lat="40.0713749" lon="-105.229789">
  <ele>1583.0</ele>
  <time>2026-08-28T17:54:21Z</time>
  <course>247.02</course>
  <speed>0.0</speed>
  <fix>3d</fix>
</trkpt>
<trkpt lat="40.0713749" lon="-105.229789">
  <ele>1583.0</ele>
  <time>2026-08-28T17:54:21Z</time>
  <course>0.0</course>
  <speed>0.0</speed>
  <fix>3d</fix>
</trkpt>
<trkpt lat="40.0713749" lon="-105.229789">
  <ele>1583.0</ele>
  <time>2026-08-28T17:54:21Z</time>
  <course>247.1</course>
  <speed>0.0</speed>
  <fix>3d</fix>
</trkpt>
<trkpt lat="40.0713749" lon="-105.229789">
  <ele>1583.0</ele>
  <time>2026-08-28T17:54:21Z</time>
  <course>0.0</course>
  <speed>0.0</speed>
  <fix>3d</fix>
</trkpt>
<trkpt lat="40.0713749" lon="-105.229789">
  <ele>1583.0</ele>
  <time>2026-08-28T17:54:21Z</time>
  <course>247.17</course>
  <speed>0.0</speed>
  <fix>3d</fix>
</trkpt>
<trkpt lat="40.0713749" lon="-105.229789">
  <ele>1583.0</ele>
  <time>2026-08-28T17:54:21Z</time>
  <course>0.0</course>
  <speed>0.0</speed>
  <fix>3d</fix>
</trkpt>
<trkpt lat="40.0713749" lon="-105.229789">
  <ele>1583.0</ele>
  <time>2026-08-28T17:54:21Z</time>
  <course>247.24</course>
  <speed>0.0</speed>
  <fix>3d</fix>
</trkpt>
<trkpt lat="40.0713749" lon="-105.229789">
  <ele>1583.0</ele>
  <time>2026-08-28T17:54:21Z</time>
  <course>0.0</course>
  <speed>0.0</speed>
  <fix>3d</fix>
</trkpt>
<trkpt lat="40.0713749" lon="-105.229789">
  <ele>1583.0</ele>
  <time>2026-08-28T17:54:21Z</time>
  <course>247.3</course>
  <speed>0.0</speed>
  <fix>3d</fix>
</trkpt>
<trkpt lat="40.0713749" lon="-105.229789">
  <ele>1583.0</ele>
  <time>2026-08-28T17:54:21Z</time>
  <course>0.0</course>
  <speed>0.0</speed>
  <fix>3d</fix>
</trkpt>
<trkpt lat="40.0713749" lon="-105.229789">
  <ele>1583.0</ele>
  <time>2026-08-28T17:54:21Z</time>
  <course>247.36</course>
  <speed>0.0</speed>
  <fix>3d</fix>
</trkpt>
<trkpt lat="40.0713749" lon="-105.229789">
  <ele>1583.0</ele>
  <time>2026-08-28T17:54:21Z</time>
  <course>0.0</course>
  <speed>0.0</speed>
  <fix>3d</fix>
</trkpt>
<trkpt lat="40.0713749" lon="-105.229789">
  <ele>1583.0</ele>
  <time>2026-08-28T17:54:21Z</time>
  <course>247.42</course>
  <speed>0.0</speed>
  <fix>3d</fix>
</trkpt>
<trkpt lat="40.0713749" lon="-105.229789">
  <ele>1583.0</ele>
  <time>2026-08-28T17:54:21Z</time>
  <course>0.0</course>
  <speed>0.0</speed>
  <fix>3d</fix>
</trkpt>
<trkpt lat="40.0713749" lon="-105.229789">
  <ele>1583.0</ele>
  <time>2026-08-28T17:54:21Z</time>
  <course>247.47</course>
  <speed>0.0</speed>
  <fix>3d</fix>
</trkpt>
<trkpt lat="40.0713749" lon="-105.229789">
  <ele>1583.0</ele>
  <time>2026-08-28T17:54:21Z</time>
  <course>0.0</course>
  <speed>0.0</speed>
  <fix>3d</fix>
</trkpt>
<trkpt lat="40.0713749" lon="-105.229789">
  <ele>1583.0</ele>
  <time>2026-08-28T17:54:21Z</time>
  <course>247.53</course>
  <speed>0.0</speed>
  <fix>3d</fix>
</trkpt>
<trkpt lat="40.0713749" lon="-105.229789">
  <ele>1583.0</ele>
  <time>2026-08-28T17:54:21Z</time>
  <course>0.0</course>
  <speed>0.0</speed>
  <fix>3d</fix>
</trkpt>
<trkpt lat="40.0713749" lon="-105.229789">
  <ele>1583.0</ele>
  <time>2026-08-28T17:54:21Z</time>
  <course>247.58</course>
  <speed>0.0</speed>
  <fix>3d</fix>
</trkpt>
<trkpt lat="40.0713749" lon="-105.229789">
  <ele>1583.0</ele>
  <time>2026-08-28T17:54:21Z</time>
  <course>0.0</course>
  <speed>0.0</speed>
  <fix>3d</fix>
</trkpt>
<trkpt lat="40.0713749" lon="-105.229789">
  <ele>1583.0</ele>
  <time>2026-08-28T17:54:21Z</time>
  <course>247.63</course>
  <speed>0.0</speed>
  <fix>3d</fix>
</trkpt>
<trkpt lat="40.0713749" lon="-105.229789">
  <ele>1583.0</ele>
  <time>2026-08-28T17:54:21Z</time>
  <course>0.0</course>
  <speed>0.0</speed>
  <fix>3d</fix>
</trkpt>
<trkpt lat="40.0713749" lon="-105.229789">
  <ele>1583.0</ele>
  <time>2026-08-28T17:54:21Z</time>
  <course>247.67</course>
  <speed>0.0</speed>
  <fix>3d</fix>
</trkpt>
<trkpt lat="40.0713749" lon="-105.229789">
  <ele>1583.0</ele>
  <time>2026-08-28T17:54:21Z</time>
  <course>0.0</course>
  <speed>0.0</speed>
  <fix>3d</fix>
</trkpt>
<trkpt lat="40.0713749" lon="-105.229789">
  <ele>1583.0</ele>
  <time>2026-08-28T17:54:21Z</time>
  <course>247.72</course>
  <speed>0.0</speed>
  <fix>3d</fix>
</trkpt>
<trkpt lat="40.0713749" lon="-105.229789">
  <ele>1583.0</ele>
  <time>2026-08-28T17:54:21Z</time>
  <course>0.0</course>
  <speed>0.0</speed>
  <fix>3d</fix>
</trkpt>
<trkpt lat="40.0713749" lon="-105.229789">
  <ele>1583.0</ele>
  <time>2026-08-28T17:54:21Z</time>
  <course>247.76</course>
  <speed>0.0</speed>
  <fix>3d</fix>
</trkpt>
<trkpt lat="40.0713749" lon="-105.229789">
  <ele>1583.0</ele>
  <time>2026-08-28T17:54:21Z</time>
  <course>0.0</course>
  <speed>0.0</speed>
  <fix>3d</fix>
</trkpt>
<trkpt lat="40.0713749" lon="-105.229789">
  <ele>1583.0</ele>
  <time>2026-08-28T17:54:21Z</time>
  <course>247.8</course>
  <speed>0.0</speed>
  <fix>3d</fix>
</trkpt>
<trkpt lat="40.0713749" lon="-105.229789">
  <ele>1583.0</ele>
  <time>2026-08-28T17:54:21Z</time>
  <course>0.0</course>
  <speed>0.0</speed>
  <fix>3d</fix>
</trkpt>
<trkpt lat="40.0713749" lon="-105.229789">
  <ele>1583.0</ele>
  <time>2026-08-28T17:54:21Z</time>
  <course>247.83</course>
  <speed>0.0</speed>
  <fix>3d</fix>
</trkpt>
<trkpt lat="40.0713749" lon="-105.229789">
  <ele>1583.0</ele>
  <time>2026-08-28T17:54:21Z</time>
  <course>0.0</course>
  <speed>0.0</speed>
  <fix>3d</fix>
</trkpt>
<trkpt lat="40.0713749" lon="-105.229789">
  <ele>1583.0</ele>
  <time>2026-08-28T17:54:21Z</time>
  <course>247.87</course>
  <speed>0.0</speed>
  <fix>3d</fix>
</trkpt>
<trkpt lat="40.0713749" lon="-105.229789">
  <ele>1583.0</ele>
  <time>2026-08-28T17:54:21Z</time>
  <course>0.0</course>
  <speed>0.0</speed>
  <fix>3d</fix>
</trkpt>
<trkpt lat="40.0713749" lon="-105.229789">
  <ele>1583.0</ele>
  <time>2026-08-28T17:54:21Z</time>
  <course>247.9</course>
  <speed>0.0</speed>
  <fix>3d</fix>
</trkpt>
<trkpt lat="40.0713749" lon="-105.229789">
  <ele>1583.0</ele>
  <time>2026-08-28T17:54:21Z</time>
  <course>0.0</course>
  <speed>0.0</speed>
  <fix>3d</fix>
</trkpt>
<trkpt lat="40.0713749" lon="-105.229789">
  <ele>1583.0</ele>
  <time>2026-08-28T17:54:21Z</time>
  <course>247.94</course>
  <speed>0.0</speed>
  <fix>3d</fix>
</trkpt>
<trkpt lat="40.0713749" lon="-105.229789">
  <ele>1583.0</ele>
  <time>2026-08-28T17:54:21Z</time>
  <course>0.0</course>
  <speed>0.0</speed>
  <fix>3d</fix>
</trkpt>
<trkpt lat="40.0713749" lon="-105.229789">
  <ele>1583.0</ele>
  <time>2026-08-28T17:54:21Z</time>
  <course>247.97</course>
  <speed>0.0</speed>
  <fix>3d</fix>
</trkpt>
<trkpt lat="40.0713749" lon="-105.229789">
  <ele>1583.0</ele>
  <time>2026-08-28T17:54:21Z</time>
  <course>0.0</course>
  <speed>0.0</speed>
  <fix>3d</fix>
</trkpt>
<trkpt lat="40.0713749" lon="-105.229789">
  <ele>1583.0</ele>
  <time>2026-08-28T17:54:21Z</time>
  <course>248.0</course>
  <speed>0.0</speed>
  <fix>3d</fix>
</trkpt>
<trkpt lat="40.0713749" lon="-105.229789">
  <ele>1583.0</ele>
  <time>2026-08-28T17:54:21Z</time>
  <course>0.0</course>
  <speed>0.0</speed>
  <fix>3d</fix>
</trkpt>
<trkpt lat="40.0713749" lon="-105.229789">
  <ele>1583.0</ele>
  <time>2026-08-28T17:54:21Z</time>
  <course>248.02</course>
  <speed>0.0</speed>
  <fix>3d</fix>
</trkpt>
<trkpt lat="40.0713749" lon="-105.229789">
  <ele>1583.0</ele>
  <time>2026-08-28T17:54:21Z</time>
  <course>0.0</course>
  <speed>0.0</speed>
  <fix>3d</fix>
</trkpt>
<trkpt lat="40.0713749" lon="-105.229789">
  <ele>1583.0</ele>
  <time>2026-08-28T17:54:21Z</time>
  <course>248.05</course>
  <speed>0.0</speed>
  <fix>3d</fix>
</trkpt>
<trkpt lat="40.0713749" lon="-105.229789">
  <ele>1583.0</ele>
  <time>2026-08-28T17:54:21Z</time>
  <course>0.0</course>
  <speed>0.0</speed>
  <fix>3d</fix>
</trkpt>
<trkpt lat="40.0713749" lon="-105.229789">
  <ele>1583.0</ele>
  <time>2026-08-28T17:54:21Z</time>
  <course>248.08</course>
  <speed>0.0</speed>
  <fix>3d</fix>
</trkpt>
<trkpt lat="40.0713749" lon="-105.229789">
  <ele>1583.0</ele>
  <time>2026-08-28T17:54:21Z</time>
  <course>0.0</course>
  <speed>0.0</speed>
  <fix>3d</fix>
</trkpt>
<trkpt lat="40.0713749" lon="-105.229789">
  <ele>1583.0</ele>
  <time>2026-08-28T17:54:21Z</time>
  <course>248.1</course>
  <speed>0.0</speed>
  <fix>3d</fix>
</trkpt>
<trkpt lat="40.0713749" lon="-105.229789">
  <ele>1583.0</ele>
  <time>2026-08-28T17:54:21Z</time>
  <course>0.0</course>
  <speed>0.0</speed>
  <fix>3d</fix>
</trkpt>
<trkpt lat="40.0713749" lon="-105.229789">
  <ele>1583.0</ele>
  <time>2026-08-28T17:54:21Z</time>
  <course>248.12</course>
  <speed>0.0</speed>
  <fix>3d</fix>
</trkpt>
<trkpt lat="40.0713749" lon="-105.229789">
  <ele>1583.0</ele>
  <time>2026-08-28T17:54:21Z</time>
  <course>0.0</course>
  <speed>0.0</speed>
  <fix>3d</fix>
</trkpt>
<trkpt lat="40.0713749" lon="-105.229789">
  <ele>1583.0</ele>
  <time>2026-08-28T17:54:21Z</time>
  <course>248.14</course>
  <speed>0.0</speed>
  <fix>3d</fix>
</trkpt>
<trkpt lat="40.0713749" lon="-105.229789">
  <ele>1583.0</ele>
  <time>2026-08-28T17:54:21Z</time>
  <course>0.0</course>
  <speed>0.0</speed>
  <fix>3d</fix>
</trkpt>
<trkpt lat="40.0713749" lon="-105.229789">
  <ele>1583.0</ele>
  <time>2026-08-28T17:54:21Z</time>
  <course>248.16</course>
  <speed>0.0</speed>
  <fix>3d</fix>
</trkpt>
<trkpt lat="40.0713749" lon="-105.229789">
  <ele>1583.0</ele>
  <time>2026-08-28T17:54:21Z</time>
  <course>0.0</course>
  <speed>0.0</speed>
  <fix>3d</fix>
</trkpt>
<trkpt lat="40.0713749" lon="-105.229789">
  <ele>1583.0</ele>
  <time>2026-08-28T17:54:21Z</time>
  <course>248.18</course>
  <speed>0.0</speed>
  <fix>3d</fix>
</trkpt>
<trkpt lat="40.0713749" lon="-105.229789">
  <ele>1583.0</ele>
  <time>2026-08-28T17:54:21Z</time>
  <course>0.0</course>
  <speed>0.0</speed>
  <fix>3d</fix>
</trkpt>
<trkpt lat="40.0713749" lon="-105.229789">
  <ele>1583.0</ele>
  <time>2026-08-28T17:54:21Z</time>
  <course>248.2</course>
  <speed>0.0</speed>
  <fix>3d</fix>
</trkpt>
<trkpt lat="40.0713749" lon="-105.229789">
  <ele>1583.0</ele>
  <time>2026-08-28T17:54:21Z</time>
  <course>0.0</course>
  <speed>0.0</speed>
  <fix>3d</fix>
</trkpt>
<trkpt lat="40.0713749" lon="-105.229789">
  <ele>1583.0</ele>
  <time>2026-08-28T17:54:21Z</time>
  <course>248.22</course>
  <speed>0.0</speed>
  <fix>3d</fix>
</trkpt>
<trkpt lat="40.0713749" lon="-105.229789">
  <ele>1583.0</ele>
  <time>2026-08-28T17:54:21Z</time>
  <course>0.0</course>
  <speed>0.0</speed>
  <fix>3d</fix>
</trkpt>
<trkpt lat="40.0713749" lon="-105.229789">
  <ele>1583.0</ele>
  <time>2026-08-28T17:54:21Z</time>
  <course>248.23</course>
  <speed>0.0</speed>
  <fix>3d</fix>
</trkpt>
<trkpt lat="40.0713749" lon="-105.229789">
  <ele>1583.0</ele>
  <time>2026-08-28T17:54:21Z</time>
  <course>0.0</course>
  <speed>0.0</speed>
  <fix>3d</fix>
</trkpt>
<trkpt lat="40.0713749" lon="-105.229789">
  <ele>1583.0</ele>
  <time>2026-08-28T17:54:21Z</time>
  <course>248.25</course>
  <speed>0.0</speed>
  <fix>3d</fix>
</trkpt>
<trkpt lat="40.0713749" lon="-105.229789">
  <ele>1583.0</ele>
  <time>2026-08-28T17:54:21Z</time>
  <course>0.0</course>
  <speed>0.0</speed>
  <fix>3d</fix>
</trkpt>
<trkpt lat="40.0713749" lon="-105.229789">
  <ele>1583.0</ele>
  <time>2026-08-28T17:54:21Z</time>
  <course>248.26</course>
  <speed>0.0</speed>
  <fix>3d</fix>
</trkpt>
<trkpt lat="40.0713749" lon="-105.229789">
  <ele>1583.0</ele>
  <time>2026-08-28T17:54:21Z</time>
  <course>0.0</course>
  <speed>0.0</speed>
  <fix>3d</fix>
</trkpt>
<trkpt lat="40.0713749" lon="-105.229789">
  <ele>1583.0</ele>
  <time>2026-08-28T17:54:21Z</time>
  <course>248.28</course>
  <speed>0.0</speed>
  <fix>3d</fix>
</trkpt>
<trkpt lat="40.0713749" lon="-105.229789">
  <ele>1583.0</ele>
  <time>2026-08-28T17:54:21Z</time>
  <course>0.0</course>
  <speed>0.0</speed>
  <fix>3d</fix>
</trkpt>
<trkpt lat="40.0713749" lon="-105.229789">
  <ele>1583.0</ele>
  <time>2026-08-28T17:54:21Z</time>
  <course>248.29</course>
  <speed>0.0</speed>
  <fix>3d</fix>
</trkpt>
<trkpt lat="40.0713749" lon="-105.229789">
  <ele>1583.0</ele>
  <time>2026-08-28T17:54:21Z</time>
  <course>0.0</course>
  <speed>0.0</speed>
  <fix>3d</fix>
</trkpt>
<trkpt lat="40.0713749" lon="-105.229789">
  <ele>1583.0</ele>
  <time>2026-08-28T17:54:21Z</time>
  <course>248.3</course>
  <speed>0.0</speed>
  <fix>3d</fix>
</trkpt>
<trkpt lat="40.0713749" lon="-105.229789">
  <ele>1583.0</ele>
  <time>2026-08-28T17:54:21Z</time>
  <course>0.0</course>
  <speed>0.0</speed>
  <fix>3d</fix>
</trkpt>
<trkpt lat="40.0713749" lon="-105.229789">
  <ele>1583.0</ele>
  <time>2026-08-28T17:54:21Z</time>
  <course>248.31</course>
  <speed>0.0</speed>
  <fix>3d</fix>
</trkpt>
<trkpt lat="40.0713749" lon="-105.229789">
  <ele>1583.0</ele>
  <time>2026-08-28T17:54:21Z</time>
  <course>0.0</course>
  <speed>0.0</speed>
  <fix>3d</fix>
</trkpt>
<trkpt lat="40.0713749" lon="-105.229789">
  <ele>1583.0</ele>
  <time>2026-08-28T17:54:21Z</time>
  <course>248.32</course>
  <speed>0.0</speed>
  <fix>3d</fix>
</trkpt>
<trkpt lat="40.0713749" lon="-105.229789">
  <ele>1583.0</ele>
  <time>2026-08-28T17:54:21Z</time>
  <course>0.0</course>
  <speed>0.0</speed>
  <fix>3d</fix>
</trkpt>
<trkpt lat="40.0713749" lon="-105.229789">
  <ele>1583.0</ele>
  <time>2026-08-28T17:54:21Z</time>
  <course>248.33</course>
  <speed>0.0</speed>
  <fix>3d</fix>
</trkpt>
<trkpt lat="40.0713749" lon="-105.229789">
  <ele>1583.0</ele>
  <time>2026-08-28T17:54:21Z</time>
  <course>0.0</course>
  <speed>0.0</speed>
  <fix>3d</fix>
</trkpt>
<trkpt lat="40.0713749" lon="-105.229789">
  <ele>1583.0</ele>
  <time>2026-08-28T17:54:21Z</time>
  <course>248.34</course>
  <speed>0.0</speed>
  <fix>3d</fix>
</trkpt>
<trkpt lat="40.0713749" lon="-105.229789">
  <ele>1583.0</ele>
  <time>2026-08-28T17:54:21Z</time>
  <course>0.0</course>
  <speed>0.0</speed>
  <fix>3d</fix>
</trkpt>
<trkpt lat="40.0713749" lon="-105.229789">
  <ele>1583.0</ele>
  <time>2026-08-28T17:54:21Z</time>
  <course>248.35</course>
  <speed>0.0</speed>
  <fix>3d</fix>
</trkpt>
<trkpt lat="40.0713749" lon="-105.229789">
  <ele>1583.0</ele>
  <time>2026-08-28T17:54:21Z</time>
  <course>0.0</course>
  <speed>0.0</speed>
  <fix>3d</fix>
</trkpt>
<trkpt lat="40.0713749" lon="-105.229789">
  <ele>1583.0</ele>
  <time>2026-08-28T17:54:21Z</time>
  <course>248.35</course>
  <speed>0.0</speed>
  <fix>3d</fix>
</trkpt>
<trkpt lat="40.0713749" lon="-105.229789">
  <ele>1583.0</ele>
  <time>2026-08-28T17:54:21Z</time>
  <course>0.0</course>
  <speed>0.0</speed>
  <fix>3d</fix>
</trkpt>
<trkpt lat="40.0713749" lon="-105.229789">
  <ele>1583.0</ele>
  <time>2026-08-28T17:54:21Z</time>
  <course>248.36</course>
  <speed>0.0</speed>
  <fix>3d</fix>
</trkpt>
<trkpt lat="40.0713749" lon="-105.229789">
  <ele>1583.0</ele>
  <time>2026-08-28T17:54:21Z</time>
  <course>0.0</course>
  <speed>0.0</speed>
  <fix>3d</fix>
</trkpt>
<trkpt lat="40.0713749" lon="-105.229789">
  <ele>1583.0</ele>
  <time>2026-08-28T17:54:21Z</time>
  <course>248.37</course>
  <speed>0.0</speed>
  <fix>3d</fix>
</trkpt>
<trkpt lat="40.0713749" lon="-105.229789">
  <ele>1583.0</ele>
  <time>2026-08-28T17:54:21Z</time>
  <course>0.0</course>
  <speed>0.0</speed>
  <fix>3d</fix>
</trkpt>
<trkpt lat="40.0713749" lon="-105.229789">
  <ele>1583.0</ele>
  <time>2026-08-28T17:54:21Z</time>
  <course>248.37</course>
  <speed>0.0</speed>
  <fix>3d</fix>
</trkpt>
<trkpt lat="40.0713749" lon="-105.229789">
  <ele>1583.0</ele>
  <time>2026-08-28T17:54:21Z</time>
  <course>0.0</course>
  <speed>0.0</speed>
  <fix>3d</fix>
</trkpt>
<trkpt lat="40.0713749" lon="-105.229789">
  <ele>1583.0</ele>
  <time>2026-08-28T17:54:21Z</time>
  <course>248.38</course>
  <speed>0.0</speed>
  <fix>3d</fix>
</trkpt>
<trkpt lat="40.0713749" lon="-105.229789">
  <ele>1583.0</ele>
  <time>2026-08-28T17:54:21Z</time>
  <course>0.0</course>
  <speed>0.0</speed>
  <fix>3d</fix>
</trkpt>
<trkpt lat="40.0713749" lon="-105.229789">
  <ele>1583.0</ele>
  <time>2026-08-28T17:54:21Z</time>
  <course>248.38</course>
  <speed>0.0</speed>
  <fix>3d</fix>
</trkpt>
<trkpt lat="40.0713749" lon="-105.229789">
  <ele>1583.0</ele>
  <time>2026-08-28T17:54:21Z</time>
  <course>0.0</course>
  <speed>0.0</speed>
  <fix>3d</fix>
</trkpt>
<trkpt lat="40.0713749" lon="-105.229789">
  <ele>1583.0</ele>
  <time>2026-08-28T17:54:21Z</time>
  <course>248.39</course>
  <speed>0.0</speed>
  <fix>3d</fix>
</trkpt>
<trkpt lat="40.0713749" lon="-105.229789">
  <ele>1583.0</ele>
  <time>2026-08-28T17:54:21Z</time>
  <course>0.0</course>
  <speed>0.0</speed>
  <fix>3d</fix>
</trkpt>
<trkpt lat="40.0713749" lon="-105.229789">
  <ele>1583.0</ele>
  <time>2026-08-28T17:54:21Z</time>
  <course>248.39</course>
  <speed>0.0</speed>
  <fix>3d</fix>
</trkpt>
<trkpt lat="40.0713749" lon="-105.229789">
  <ele>1583.0</ele>
  <time>2026-08-28T17:54:21Z</time>
  <course>0.0</course>
  <speed>0.0</speed>
  <fix>3d</fix>
</trkpt>
<trkpt lat="40.0713749" lon="-105.229789">
  <ele>1583.0</ele>
  <time>2026-08-28T17:54:21Z</time>
  <course>248.4</course>
  <speed>0.0</speed>
  <fix>3d</fix>
</trkpt>
<trkpt lat="40.0713749" lon="-105.229789">
  <ele>1583.0</ele>
  <time>2026-08-28T17:54:21Z</time>
  <course>0.0</course>
  <speed>0.0</speed>
  <fix>3d</fix>
</trkpt>
<trkpt lat="40.0713749" lon="-105.229789">
  <ele>1583.0</ele>
  <time>2026-08-28T17:54:21Z</time>
  <course>248.4</course>
  <speed>0.0</speed>
  <fix>3d</fix>
</trkpt>
<trkpt lat="40.0713749" lon="-105.229789">
  <ele>1583.0</ele>
  <time>2026-08-28T17:54:21Z</time>
  <course>0.0</course>
  <speed>0.0</speed>
  <fix>3d</fix>
</trkpt>
<trkpt lat="40.0713749" lon="-105.229789">
  <ele>1583.0</ele>
  <time>2026-08-28T17:54:21Z</time>
  <course>248.4</course>
  <speed>0.0</speed>
  <fix>3d</fix>
</trkpt>
<trkpt lat="40.0713749" lon="-105.229789">
  <ele>1583.0</ele>
  <time>2026-08-28T17:54:21Z</time>
  <course>0.0</course>
  <speed>0.0</speed>
  <fix>3d</fix>
</trkpt>
<trkpt lat="40.0713749" lon="-105.229789">
  <ele>1583.0</ele>
  <time>2026-08-28T17:54:21Z</time>
  <course>248.4</course>
  <speed>0.0</speed>
  <fix>3d</fix>
</trkpt>
<trkpt lat="40.0713749" lon="-105.229789">
  <ele>1583.0</ele>
  <time>2026-08-28T17:54:21Z</time>
  <course>0.0</course>
  <speed>0.0</speed>
  <fix>3d</fix>
</trkpt>
<trkpt lat="40.0713749" lon="-105.229789">
  <ele>1583.0</ele>
  <time>2026-08-28T17:54:21Z</time>
  <course>248.41</course>
  <speed>0.0</speed>
  <fix>3d</fix>
</trkpt>
<trkpt lat="40.0713749" lon="-105.229789">
  <ele>1583.0</ele>
  <time>2026-08-28T17:54:21Z</time>
  <course>0.0</course>
  <speed>0.0</speed>
  <fix>3d</fix>
</trkpt>
<trkpt lat="40.0713749" lon="-105.229789">
  <ele>1583.0</ele>
  <time>2026-08-28T17:54:21Z</time>
  <course>248.41</course>
  <speed>0.0</speed>
  <fix>3d</fix>
</trkpt>
<trkpt lat="40.0713749" lon="-105.229789">
  <ele>1583.0</ele>
  <time>2026-08-28T17:54:21Z</time>
  <course>0.0</course>
  <speed>0.0</speed>
  <fix>3d</fix>
</trkpt>
<trkpt lat="40.0713749" lon="-105.229789">
  <ele>1583.0</ele>
  <time>2026-08-28T17:54:21Z</time>
  <course>248.41</course>
  <speed>0.0</speed>
  <fix>3d</fix>
</trkpt>
<trkpt lat="40.0713749" lon="-105.229789">
  <ele>1583.0</ele>
  <time>2026-08-28T17:54:21Z</time>
  <course>0.0</course>
  <speed>0.0</speed>
  <fix>3d</fix>
</trkpt>
<trkpt lat="40.0713749" lon="-105.229789">
  <ele>1583.0</ele>
  <time>2026-08-28T17:54:21Z</time>
  <course>248.41</course>
  <speed>0.0</speed>
  <fix>3d</fix>
</trkpt>
<trkpt lat="40.0713749" lon="-105.229789">
  <ele>1583.0</ele>
  <time>2026-08-28T17:54:21Z</time>
  <course>0.0</course>
  <speed>0.0</speed>
  <fix>3d</fix>
</trkpt>
<trkpt lat="40.0713749" lon="-105.229789">
  <ele>1583.0</ele>
  <time>2026-08-28T17:54:21Z</time>
  <course>248.41</course>
  <speed>0.0</speed>
  <fix>3d</fix>
</trkpt>
<trkpt lat="40.0713749" lon="-105.229789">
  <ele>1583.0</ele>
  <time>2026-08-28T17:54:21Z</time>
  <course>0.0</course>
  <speed>0.0</speed>
  <fix>3d</fix>
</trkpt>
<trkpt lat="40.0713749" lon="-105.229789">
  <ele>1583.0</ele>
  <time>2026-08-28T17:54:21Z</time>
  <course>248.41</course>
  <speed>0.0</speed>
  <fix>3d</fix>
</trkpt>
<trkpt lat="40.0713749" lon="-105.229789">
  <ele>1583.0</ele>
  <time>2026-08-28T17:54:21Z</time>
  <course>0.0</course>
  <speed>0.0</speed>
  <fix>3d</fix>
</trkpt>
<trkpt lat="40.0713749" lon="-105.229789">
  <ele>1583.0</ele>
  <time>2026-08-28T17:54:21Z</time>
  <course>248.41</course>
  <speed>0.0</speed>
  <fix>3d</fix>
</trkpt>
<trkpt lat="40.0713749" lon="-105.229789">
  <ele>1583.0</ele>
  <time>2026-08-28T17:54:21Z</time>
  <course>0.0</course>
  <speed>0.0</speed>
  <fix>3d</fix>
</trkpt>
<trkpt lat="40.0713749" lon="-105.229789">
  <ele>1583.0</ele>
  <time>2026-08-28T17:54:21Z</time>
  <course>248.41</course>
  <speed>0.0</speed>
  <fix>3d</fix>
</trkpt>
<trkpt lat="40.0713749" lon="-105.229789">
  <ele>1583.0</ele>
  <time>2026-08-28T17:54:21Z</time>
  <course>0.0</course>
  <speed>0.0</speed>
  <fix>3d</fix>
</trkpt>
<trkpt lat="40.0713749" lon="-105.229789">
  <ele>1583.0</ele>
  <time>2026-08-28T17:54:21Z</time>
  <course>248.41</course>
  <speed>0.0</speed>
  <fix>3d</fix>
</trkpt>
<trkpt lat="40.0713749" lon="-105.229789">
  <ele>1583.0</ele>
  <time>2026-08-28T17:54:21Z</time>
  <course>0.0</course>
  <speed>0.0</speed>
  <fix>3d</fix>
</trkpt>
<trkpt lat="40.0713749" lon="-105.229789">
  <ele>1583.0</ele>
  <time>2026-08-28T17:54:21Z</time>
  <course>248.41</course>
  <speed>0.0</speed>
  <fix>3d</fix>
</trkpt>
<trkpt lat="40.0713749" lon="-105.229789">
  <ele>1583.0</ele>
  <time>2026-08-28T17:54:21Z</time>
  <course>0.0</course>
  <speed>0.0</speed>
  <fix>3d</fix>
</trkpt>
<trkpt lat="40.0713749" lon="-105.229789">
  <ele>1583.0</ele>
  <time>2026-08-28T17:54:21Z</time>
  <course>248.41</course>
  <speed>0.0</speed>
  <fix>3d</fix>
</trkpt>
<trkpt lat="40.0713749" lon="-105.229789">
  <ele>1583.0</ele>
  <time>2026-08-28T17:54:21Z</time>
  <course>0.0</course>
  <speed>0.0</speed>
  <fix>3d</fix>
</trkpt>
<trkpt lat="40.0713749" lon="-105.229789">
  <ele>1583.0</ele>
  <time>2026-08-28T17:54:21Z</time>
  <course>248.41</course>
  <speed>0.0</speed>
  <fix>3d</fix>
</trkpt>
<trkpt lat="40.0713749" lon="-105.229789">
  <ele>1583.0</ele>
  <time>2026-08-28T17:54:21Z</time>
  <course>0.0</course>
  <speed>0.0</speed>
  <fix>3d</fix>
</trkpt>
<trkpt lat="40.0713749" lon="-105.229789">
  <ele>1583.0</ele>
  <time>2026-08-28T17:54:21Z</time>
  <course>248.41</course>
  <speed>0.0</speed>
  <fix>3d</fix>
</trkpt>
<trkpt lat="40.0713749" lon="-105.229789">
  <ele>1583.0</ele>
  <time>2026-08-28T17:54:21Z</time>
  <course>0.0</course>
  <speed>0.0</speed>
  <fix>3d</fix>
</trkpt>
<trkpt lat="40.0713749" lon="-105.229789">
  <ele>1583.0</ele>
  <time>2026-08-28T17:54:21Z</time>
  <course>248.41</course>
  <speed>0.0</speed>
  <fix>3d</fix>
</trkpt>
<trkpt lat="40.0713749" lon="-105.229789">
  <ele>1583.0</ele>
  <time>2026-08-28T17:54:21Z</time>
  <course>0.0</course>
  <speed>0.0</speed>
  <fix>3d</fix>
</trkpt>
<trkpt lat="40.0713749" lon="-105.229789">
  <ele>1583.0</ele>
  <time>2026-08-28T17:54:21Z</time>
  <course>248.41</course>
  <speed>0.0</speed>
  <fix>3d</fix>
</trkpt>
<trkpt lat="40.0713749" lon="-105.229789">
  <ele>1583.0</ele>
  <time>2026-08-28T17:54:21Z</time>
  <course>0.0</course>
  <speed>0.0</speed>
  <fix>3d</fix>
</trkpt>
<trkpt lat="40.0713749" lon="-105.229789">
  <ele>1583.0</ele>
  <time>2026-08-28T17:54:21Z</time>
  <course>248.41</course>
  <speed>0.0</speed>
  <fix>3d</fix>
</trkpt>
<trkpt lat="40.0713749" lon="-105.229789">
  <ele>1583.0</ele>
  <time>2026-08-28T17:54:21Z</time>
  <course>0.0</course>
  <speed>0.0</speed>
  <fix>3d</fix>
</trkpt>
<trkpt lat="40.0713749" lon="-105.229789">
  <ele>1583.0</ele>
  <time>2026-08-28T17:54:21Z</time>
  <course>248.4</course>
  <speed>0.0</speed>
  <fix>3d</fix>
</trkpt>
<trkpt lat="40.0713749" lon="-105.229789">
  <ele>1583.0</ele>
  <time>2026-08-28T17:54:21Z</time>
  <course>0.0</course>
  <speed>0.0</speed>
  <fix>3d</fix>
</trkpt>
<trkpt lat="40.0713749" lon="-105.229789">
  <ele>1583.0</ele>
  <time>2026-08-28T17:54:21Z</time>
  <course>248.4</course>
  <speed>0.01</speed>
  <fix>3d</fix>
</trkpt>
<trkpt lat="40.0713749" lon="-105.229789">
  <ele>1583.0</ele>
  <time>2026-08-28T17:54:21Z</time>
  <course>0.0</course>
  <speed>0.0</speed>
  <fix>3d</fix>
</trkpt>
<trkpt lat="40.0713749" lon="-105.229789">
  <ele>1583.0</ele>
  <time>2026-08-28T17:54:21Z</time>
  <course>248.4</course>
  <speed>0.01</speed>
  <fix>3d</fix>
</trkpt>
<trkpt lat="40.0713749" lon="-105.229789">
  <ele>1583.0</ele>
  <time>2026-08-28T17:54:21Z</time>
  <course>0.0</course>
  <speed>0.0</speed>
  <fix>3d</fix>
</trkpt>
<trkpt lat="40.0713749" lon="-105.229789">
  <ele>1583.0</ele>
  <time>2026-08-28T17:54:21Z</time>
  <course>248.4</course>
  <speed>0.01</speed>
  <fix>3d</fix>
</trkpt>
<trkpt lat="40.0713749" lon="-105.229789">
  <ele>1583.0</ele>
  <time>2026-08-28T17:54:21Z</time>
  <course>0.0</course>
  <speed>0.0</speed>
  <fix>3d</fix>
</trkpt>
<trkpt lat="40.0713749" lon="-105.229789">
  <ele>1583.0</ele>
  <time>2026-08-28T17:54:21Z</time>
  <course>248.4</course>
  <speed>0.01</speed>
  <fix>3d</fix>
</trkpt>
<trkpt lat="40.0713749" lon="-105.229789">
  <ele>1583.0</ele>
  <time>2026-08-28T17:54:21Z</time>
  <course>0.0</course>
  <speed>0.0</speed>
  <fix>3d</fix>
</trkpt>
<trkpt lat="40.0713749" lon="-105.229789">
  <ele>1583.0</ele>
  <time>2026-08-28T17:54:21Z</time>
  <course>248.39</course>
  <speed>0.01</speed>
  <fix>3d</fix>
</trkpt>
<trkpt lat="40.0713749" lon="-105.229789">
  <ele>1583.0</ele>
  <time>2026-08-28T17:54:21Z</time>
  <course>0.0</course>
  <speed>0.0</speed>
  <fix>3d</fix>
</trkpt>
<trkpt lat="40.0713749" lon="-105.229789">
  <ele>1583.0</ele>
  <time>2026-08-28T17:54:21Z</time>
  <course>248.39</course>
  <speed>0.01</speed>
  <fix>3d</fix>
</trkpt>
<trkpt lat="40.0713749" lon="-105.229789">
  <ele>1583.0</ele>
  <time>2026-08-28T17:54:21Z</time>
  <course>0.0</course>
  <speed>0.0</speed>
  <fix>3d</fix>
</trkpt>
<trkpt lat="40.0713749" lon="-105.229789">
  <ele>1583.0</ele>
  <time>2026-08-28T17:54:21Z</time>
  <course>248.39</course>
  <speed>0.01</speed>
  <fix>3d</fix>
</trkpt>
<trkpt lat="40.0713749" lon="-105.229789">
  <ele>1583.0</ele>
  <time>2026-08-28T17:54:21Z</time>
  <course>0.0</course>
  <speed>0.0</speed>
  <fix>3d</fix>
</trkpt>
<trkpt lat="40.0713749" lon="-105.229789">
  <ele>1583.0</ele>
  <time>2026-08-28T17:54:21Z</time>
  <course>248.38</course>
  <speed>0.01</speed>
  <fix>3d</fix>
</trkpt>
<trkpt lat="40.0713749" lon="-105.229789">
  <ele>1583.0</ele>
  <time>2026-08-28T17:54:21Z</time>
  <course>0.0</course>
  <speed>0.0</speed>
  <fix>3d</fix>
</trkpt>
<trkpt lat="40.0713749" lon="-105.229789">
  <ele>1583.0</ele>
  <time>2026-08-28T17:54:21Z</time>
  <course>248.38</course>
  <speed>0.01</speed>
  <fix>3d</fix>
</trkpt>
<trkpt lat="40.0713749" lon="-105.229789">
  <ele>1583.0</ele>
  <time>2026-08-28T17:54:21Z</time>
  <course>0.0</course>
  <speed>0.0</speed>
  <fix>3d</fix>
</trkpt>
<trkpt lat="40.0713749" lon="-105.229789">
  <ele>1583.0</ele>
  <time>2026-08-28T17:54:21Z</time>
  <course>248.38</course>
  <speed>0.01</speed>
  <fix>3d</fix>
</trkpt>
<trkpt lat="40.0713749" lon="-105.229789">
  <ele>1583.0</ele>
  <time>2026-08-28T17:54:21Z</time>
  <course>0.0</course>
  <speed>0.0</speed>
  <fix>3d</fix>
</trkpt>
<trkpt lat="40.0713749" lon="-105.229789">
  <ele>1583.0</ele>
  <time>2026-08-28T17:54:21Z</time>
  <course>248.37</course>
  <speed>0.01</speed>
  <fix>3d</fix>
</trkpt>
<trkpt lat="40.0713749" lon="-105.229789">
  <ele>1583.0</ele>
  <time>2026-08-28T17:54:21Z</time>
  <course>0.0</course>
  <speed>0.0</speed>
  <fix>3d</fix>
</trkpt>
<trkpt lat="40.0713749" lon="-105.229789">
  <ele>1583.0</ele>
  <time>2026-08-28T17:54:21Z</time>
  <course>248.37</course>
  <speed>0.01</speed>
  <fix>3d</fix>
</trkpt>
<trkpt lat="40.0713749" lon="-105.229789">
  <ele>1583.0</ele>
  <time>2026-08-28T17:54:21Z</time>
  <course>0.0</course>
  <speed>0.0</speed>
  <fix>3d</fix>
</trkpt>
<trkpt lat="40.0713749" lon="-105.229789">
  <ele>1583.0</ele>
  <time>2026-08-28T17:54:21Z</time>
  <course>248.37</course>
  <speed>0.01</speed>
  <fix>3d</fix>
</trkpt>
<trkpt lat="40.0713749" lon="-105.229789">
  <ele>1583.0</ele>
  <time>2026-08-28T17:54:21Z</time>
  <course>0.0</course>
  <speed>0.0</speed>
  <fix>3d</fix>
</trkpt>
<trkpt lat="40.0713749" lon="-105.229789">
  <ele>1583.0</ele>
  <time>2026-08-28T17:54:21Z</time>
  <course>248.36</course>
  <speed>0.01</speed>
  <fix>3d</fix>
</trkpt>
<trkpt lat="40.0713749" lon="-105.229789">
  <ele>1583.0</ele>
  <time>2026-08-28T17:54:21Z</time>
  <course>0.0</course>
  <speed>0.0</speed>
  <fix>3d</fix>
</trkpt>
<trkpt lat="40.0713749" lon="-105.229789">
  <ele>1583.0</ele>
  <time>2026-08-28T17:54:21Z</time>
  <course>248.36</course>
  <speed>0.01</speed>
  <fix>3d</fix>
</trkpt>
<trkpt lat="40.0713749" lon="-105.229789">
  <ele>1583.0</ele>
  <time>2026-08-28T17:54:21Z</time>
  <course>0.0</course>
  <speed>0.0</speed>
  <fix>3d</fix>
</trkpt>
<trkpt lat="40.0713749" lon="-105.229789">
  <ele>1583.0</ele>
  <time>2026-08-28T17:54:21Z</time>
  <course>248.36</course>
  <speed>0.01</speed>
  <fix>3d</fix>
</trkpt>
<trkpt lat="40.0713749" lon="-105.229789">
  <ele>1583.0</ele>
  <time>2026-08-28T17:54:21Z</time>
  <course>0.0</course>
  <speed>0.0</speed>
  <fix>3d</fix>
</trkpt>
<trkpt lat="40.0713749" lon="-105.229789">
  <ele>1583.0</ele>
  <time>2026-08-28T17:54:21Z</time>
  <course>248.35</course>
  <speed>0.01</speed>
  <fix>3d</fix>
</trkpt>
<trkpt lat="40.0713749" lon="-105.229789">
  <ele>1583.0</ele>
  <time>2026-08-28T17:54:21Z</time>
  <course>0.0</course>
  <speed>0.0</speed>
  <fix>3d</fix>
</trkpt>
<trkpt lat="40.0713749" lon="-105.229789">
  <ele>1583.0</ele>
  <time>2026-08-28T17:54:21Z</time>
  <course>248.35</course>
  <speed>0.01</speed>
  <fix>3d</fix>
</trkpt>
<trkpt lat="40.0713749" lon="-105.229789">
  <ele>1583.0</ele>
  <time>2026-08-28T17:54:21Z</time>
  <course>0.0</course>
  <speed>0.0</speed>
  <fix>3d</fix>
</trkpt>
<trkpt lat="40.0713749" lon="-105.229789">
  <ele>1583.0</ele>
  <time>2026-08-28T17:54:21Z</time>
  <course>248.35</course>
  <speed>0.01</speed>
  <fix>3d</fix>
</trkpt>
<trkpt lat="40.0713749" lon="-105.229789">
  <ele>1583.0</ele>
  <time>2026-08-28T17:54:21Z</time>
  <course>0.0</course>
  <speed>0.0</speed>
  <fix>3d</fix>
</trkpt>
<trkpt lat="40.0713749" lon="-105.229789">
  <ele>1583.0</ele>
  <time>2026-08-28T17:54:21Z</time>
  <course>248.34</course>
  <speed>0.01</speed>
  <fix>3d</fix>
</trkpt>
<trkpt lat="40.0713749" lon="-105.229789">
  <ele>1583.0</ele>
  <time>2026-08-28T17:54:21Z</time>
  <course>0.0</course>
  <speed>0.0</speed>
  <fix>3d</fix>
</trkpt>
<trkpt lat="40.0713749" lon="-105.229789">
  <ele>1583.0</ele>
  <time>2026-08-28T17:54:21Z</time>
  <course>248.34</course>
  <speed>0.01</speed>
  <fix>3d</fix>
</trkpt>
<trkpt lat="40.0713749" lon="-105.229789">
  <ele>1583.0</ele>
  <time>2026-08-28T17:54:21Z</time>
  <course>0.0</course>
  <speed>0.0</speed>
  <fix>3d</fix>
</trkpt>
<trkpt lat="40.0713749" lon="-105.229789">
  <ele>1583.0</ele>
  <time>2026-08-28T17:54:21Z</time>
  <course>248.33</course>
  <speed>0.01</speed>
  <fix>3d</fix>
</trkpt>
<trkpt lat="40.0713749" lon="-105.229789">
  <ele>1583.0</ele>
  <time>2026-08-28T17:54:21Z</time>
  <course>0.0</course>
  <speed>0.0</speed>
  <fix>3d</fix>
</trkpt>
<trkpt lat="40.0713749" lon="-105.229789">
  <ele>1583.0</ele>
  <time>2026-08-28T17:54:21Z</time>
  <course>248.33</course>
  <speed>0.01</speed>
  <fix>3d</fix>
</trkpt>
<trkpt lat="40.0713749" lon="-105.229789">
  <ele>1583.0</ele>
  <time>2026-08-28T17:54:21Z</time>
  <course>0.0</course>
  <speed>0.0</speed>
  <fix>3d</fix>
</trkpt>
<trkpt lat="40.0713749" lon="-105.229789">
  <ele>1583.0</ele>
  <time>2026-08-28T17:54:21Z</time>
  <course>248.32</course>
  <speed>0.01</speed>
  <fix>3d</fix>
</trkpt>
<trkpt lat="40.0713749" lon="-105.229789">
  <ele>1583.0</ele>
  <time>2026-08-28T17:54:21Z</time>
  <course>0.0</course>
  <speed>0.0</speed>
  <fix>3d</fix>
</trkpt>
<trkpt lat="40.0713749" lon="-105.229789">
  <ele>1583.0</ele>
  <time>2026-08-28T17:54:21Z</time>
  <course>248.32</course>
  <speed>0.01</speed>
  <fix>3d</fix>
</trkpt>
<trkpt lat="40.0713749" lon="-105.229789">
  <ele>1583.0</ele>
  <time>2026-08-28T17:54:21Z</time>
  <course>0.0</course>
  <speed>0.0</speed>
  <fix>3d</fix>
</trkpt>
<trkpt lat="40.0713749" lon="-105.229789">
  <ele>1583.0</ele>
  <time>2026-08-28T17:54:21Z</time>
  <course>248.32</course>
  <speed>0.01</speed>
  <fix>3d</fix>
</trkpt>
<trkpt lat="40.0713749" lon="-105.229789">
  <ele>1583.0</ele>
  <time>2026-08-28T17:54:21Z</time>
  <course>0.0</course>
  <speed>0.0</speed>
  <fix>3d</fix>
</trkpt>
<trkpt lat="40.0713749" lon="-105.229789">
  <ele>1583.0</ele>
  <time>2026-08-28T17:54:21Z</time>
  <course>248.31</course>
  <speed>0.01</speed>
  <fix>3d</fix>
</trkpt>
<trkpt lat="40.0713749" lon="-105.229789">
  <ele>1583.0</ele>
  <time>2026-08-28T17:54:21Z</time>
  <course>0.0</course>
  <speed>0.0</speed>
  <fix>3d</fix>
</trkpt>
<trkpt lat="40.0713749" lon="-105.229789">
  <ele>1583.0</ele>
  <time>2026-08-28T17:54:21Z</time>
  <course>248.31</course>
  <speed>0.01</speed>
  <fix>3d</fix>
</trkpt>
<trkpt lat="40.0713749" lon="-105.229789">
  <ele>1583.0</ele>
  <time>2026-08-28T17:54:21Z</time>
  <course>0.0</course>
  <speed>0.0</speed>
  <fix>3d</fix>
</trkpt>
<trkpt lat="40.0713749" lon="-105.229789">
  <ele>1583.0</ele>
  <time>2026-08-28T17:54:21Z</time>
  <course>248.3</course>
  <speed>0.01</speed>
  <fix>3d</fix>
</trkpt>
<trkpt lat="40.0713749" lon="-105.229789">
  <ele>1583.0</ele>
  <time>2026-08-28T17:54:21Z</time>
  <course>0.0</course>
  <speed>0.0</speed>
  <fix>3d</fix>
</trkpt>
<trkpt lat="40.0713749" lon="-105.229789">
  <ele>1583.0</ele>
  <time>2026-08-28T17:54:21Z</time>
  <course>248.3</course>
  <speed>0.01</speed>
  <fix>3d</fix>
</trkpt>
<trkpt lat="40.0713749" lon="-105.229789">
  <ele>1583.0</ele>
  <time>2026-08-28T17:54:21Z</time>
  <course>0.0</course>
  <speed>0.0</speed>
  <fix>3d</fix>
</trkpt>
<trkpt lat="40.0713749" lon="-105.229789">
  <ele>1583.0</ele>
  <time>2026-08-28T17:54:21Z</time>
  <course>248.29</course>
  <speed>0.01</speed>
  <fix>3d</fix>
</trkpt>
<trkpt lat="40.0713749" lon="-105.229789">
  <ele>1583.0</ele>
  <time>2026-08-28T17:54:21Z</time>
  <course>0.0</course>
  <speed>0.0</speed>
  <fix>3d</fix>
</trkpt>
<trkpt lat="40.0713749" lon="-105.229789">
  <ele>1583.0</ele>
  <time>2026-08-28T17:54:21Z</time>
  <course>248.29</course>
  <speed>0.01</speed>
  <fix>3d</fix>
</trkpt>
<trkpt lat="40.0713749" lon="-105.229789">
  <ele>1583.0</ele>
  <time>2026-08-28T17:54:21Z</time>
  <course>0.0</course>
  <speed>0.0</speed>
  <fix>3d</fix>
</trkpt>
<trkpt lat="40.0713749" lon="-105.229789">
  <ele>1583.0</ele>
  <time>2026-08-28T17:54:21Z</time>
  <course>248.28</course>
  <speed>0.01</speed>
  <fix>3d</fix>
</trkpt>
<trkpt lat="40.0713749" lon="-105.229789">
  <ele>1583.0</ele>
  <time>2026-08-28T17:54:21Z</time>
  <course>0.0</course>
  <speed>0.0</speed>
  <fix>3d</fix>
</trkpt>
<trkpt lat="40.0713749" lon="-105.229789">
  <ele>1583.0</ele>
  <time>2026-08-28T17:54:21Z</time>
  <course>248.28</course>
  <speed>0.01</speed>
  <fix>3d</fix>
</trkpt>
<trkpt lat="40.0713749" lon="-105.229789">
  <ele>1583.0</ele>
  <time>2026-08-28T17:54:21Z</time>
  <course>0.0</course>
  <speed>0.0</speed>
  <fix>3d</fix>
</trkpt>
<trkpt lat="40.0713749" lon="-105.229789">
  <ele>1583.0</ele>
  <time>2026-08-28T17:54:21Z</time>
  <course>248.27</course>
  <speed>0.01</speed>
  <fix>3d</fix>
</trkpt>
<trkpt lat="40.0713749" lon="-105.229789">
  <ele>1583.0</ele>
  <time>2026-08-28T17:54:21Z</time>
  <course>0.0</course>
  <speed>0.0</speed>
  <fix>3d</fix>
</trkpt>
<trkpt lat="40.0713749" lon="-105.229789">
  <ele>1583.0</ele>
  <time>2026-08-28T17:54:21Z</time>
  <course>248.27</course>
  <speed>0.01</speed>
  <fix>3d</fix>
</trkpt>
<trkpt lat="40.0713749" lon="-105.229789">
  <ele>1583.0</ele>
  <time>2026-08-28T17:54:21Z</time>
  <course>0.0</course>
  <speed>0.0</speed>
  <fix>3d</fix>
</trkpt>
<trkpt lat="40.0713749" lon="-105.229789">
  <ele>1583.0</ele>
  <time>2026-08-28T17:54:21Z</time>
  <course>248.26</course>
  <speed>0.01</speed>
  <fix>3d</fix>
</trkpt>
<trkpt lat="40.0713749" lon="-105.229789">
  <ele>1583.0</ele>
  <time>2026-08-28T17:54:21Z</time>
  <course>0.0</course>
  <speed>0.0</speed>
  <fix>3d</fix>
</trkpt>
<trkpt lat="40.0713749" lon="-105.229789">
  <ele>1583.0</ele>
  <time>2026-08-28T17:54:21Z</time>
  <course>248.26</course>
  <speed>0.01</speed>
  <fix>3d</fix>
</trkpt>
<trkpt lat="40.0713749" lon="-105.229789">
  <ele>1583.0</ele>
  <time>2026-08-28T17:54:21Z</time>
  <course>0.0</course>
  <speed>0.0</speed>
  <fix>3d</fix>
</trkpt>
<trkpt lat="40.0713749" lon="-105.229789">
  <ele>1583.0</ele>
  <time>2026-08-28T17:54:21Z</time>
  <course>248.26</course>
  <speed>0.01</speed>
  <fix>3d</fix>
</trkpt>
<trkpt lat="40.0713749" lon="-105.229789">
  <ele>1583.0</ele>
  <time>2026-08-28T17:54:21Z</time>
  <course>0.0</course>
  <speed>0.0</speed>
  <fix>3d</fix>
</trkpt>
<trkpt lat="40.0713749" lon="-105.229789">
  <ele>1583.0</ele>
  <time>2026-08-28T17:54:21Z</time>
  <course>248.25</course>
  <speed>0.01</speed>
  <fix>3d</fix>
</trkpt>
<trkpt lat="40.0713749" lon="-105.229789">
  <ele>1583.0</ele>
  <time>2026-08-28T17:54:21Z</time>
  <course>0.0</course>
  <speed>0.0</speed>
  <fix>3d</fix>
</trkpt>
<trkpt lat="40.0713749" lon="-105.229789">
  <ele>1583.0</ele>
  <time>2026-08-28T17:54:21Z</time>
  <course>248.25</course>
  <speed>0.01</speed>
  <fix>3d</fix>
</trkpt>
<trkpt lat="40.0713749" lon="-105.229789">
  <ele>1583.0</ele>
  <time>2026-08-28T17:54:21Z</time>
  <course>0.0</course>
  <speed>0.0</speed>
  <fix>3d</fix>
</trkpt>
<trkpt lat="40.0713749" lon="-105.229789">
  <ele>1583.0</ele>
  <time>2026-08-28T17:54:21Z</time>
  <course>248.24</course>
  <speed>0.01</speed>
  <fix>3d</fix>
</trkpt>
<trkpt lat="40.0713749" lon="-105.229789">
  <ele>1583.0</ele>
  <time>2026-08-28T17:54:21Z</time>
  <course>0.0</course>
  <speed>0.0</speed>
  <fix>3d</fix>
</trkpt>
<trkpt lat="40.0713749" lon="-105.229789">
  <ele>1583.0</ele>
  <time>2026-08-28T17:54:21Z</time>
  <course>248.24</course>
  <speed>0.01</speed>
  <fix>3d</fix>
</trkpt>
<trkpt lat="40.0713749" lon="-105.229789">
  <ele>1583.0</ele>
  <time>2026-08-28T17:54:21Z</time>
  <course>0.0</course>
  <speed>0.0</speed>
  <fix>3d</fix>
</trkpt>
<trkpt lat="40.0713749" lon="-105.229789">
  <ele>1583.0</ele>
  <time>2026-08-28T17:54:21Z</time>
  <course>248.23</course>
  <speed>0.01</speed>
  <fix>3d</fix>
</trkpt>
<trkpt lat="40.0713749" lon="-105.229789">
  <ele>1583.0</ele>
  <time>2026-08-28T17:54:21Z</time>
  <course>0.0</course>
  <speed>0.0</speed>
  <fix>3d</fix>
</trkpt>
<trkpt lat="40.0713749" lon="-105.229789">
  <ele>1583.0</ele>
  <time>2026-08-28T17:54:21Z</time>
  <course>248.23</course>
  <speed>0.01</speed>
  <fix>3d</fix>
</trkpt>
<trkpt lat="40.0713749" lon="-105.229789">
  <ele>1583.0</ele>
  <time>2026-08-28T17:54:21Z</time>
  <course>0.0</course>
  <speed>0.0</speed>
  <fix>3d</fix>
</trkpt>
<trkpt lat="40.0713749" lon="-105.229789">
  <ele>1583.0</ele>
  <time>2026-08-28T17:54:21Z</time>
  <course>248.22</course>
  <speed>0.01</speed>
  <fix>3d</fix>
</trkpt>
<trkpt lat="40.0713749" lon="-105.229789">
  <ele>1583.0</ele>
  <time>2026-08-28T17:54:21Z</time>
  <course>0.0</course>
  <speed>0.0</speed>
  <fix>3d</fix>
</trkpt>
<trkpt lat="40.0713749" lon="-105.229789">
  <ele>1583.0</ele>
  <time>2026-08-28T17:54:21Z</time>
  <course>248.22</course>
  <speed>0.01</speed>
  <fix>3d</fix>
</trkpt>
<trkpt lat="40.0713749" lon="-105.229789">
  <ele>1583.0</ele>
  <time>2026-08-28T17:54:21Z</time>
  <course>0.0</course>
  <speed>0.0</speed>
  <fix>3d</fix>
</trkpt>
<trkpt lat="40.0713749" lon="-105.229789">
  <ele>1583.0</ele>
  <time>2026-08-28T17:54:21Z</time>
  <course>248.21</course>
  <speed>0.01</speed>
  <fix>3d</fix>
</trkpt>
<trkpt lat="40.0713749" lon="-105.229789">
  <ele>1583.0</ele>
  <time>2026-08-28T17:54:21Z</time>
  <course>0.0</course>
  <speed>0.0</speed>
  <fix>3d</fix>
</trkpt>
<trkpt lat="40.0713749" lon="-105.229789">
  <ele>1583.0</ele>
  <time>2026-08-28T17:54:21Z</time>
  <course>248.21</course>
  <speed>0.01</speed>
  <fix>3d</fix>
</trkpt>
<trkpt lat="40.0713749" lon="-105.229789">
  <ele>1583.0</ele>
  <time>2026-08-28T17:54:21Z</time>
  <course>0.0</course>
  <speed>0.0</speed>
  <fix>3d</fix>
</trkpt>
<trkpt lat="40.0713749" lon="-105.229789">
  <ele>1583.0</ele>
  <time>2026-08-28T17:54:21Z</time>
  <course>248.2</course>
  <speed>0.01</speed>
  <fix>3d</fix>
</trkpt>
<trkpt lat="40.0713749" lon="-105.229789">
  <ele>1583.0</ele>
  <time>2026-08-28T17:54:21Z</time>
  <course>0.0</course>
  <speed>0.0</speed>
  <fix>3d</fix>
</trkpt>
<trkpt lat="40.0713749" lon="-105.229789">
  <ele>1583.0</ele>
  <time>2026-08-28T17:54:21Z</time>
  <course>248.2</course>
  <speed>0.01</speed>
  <fix>3d</fix>
</trkpt>
<trkpt lat="40.0713749" lon="-105.229789">
  <ele>1583.0</ele>
  <time>2026-08-28T17:54:21Z</time>
  <course>0.0</course>
  <speed>0.0</speed>
  <fix>3d</fix>
</trkpt>
<trkpt lat="40.0713749" lon="-105.229789">
  <ele>1583.0</ele>
  <time>2026-08-28T17:54:21Z</time>
  <course>248.19</course>
  <speed>0.01</speed>
  <fix>3d</fix>
</trkpt>
<trkpt lat="40.0713749" lon="-105.229789">
  <ele>1583.0</ele>
  <time>2026-08-28T17:54:21Z</time>
  <course>0.0</course>
  <speed>0.0</speed>
  <fix>3d</fix>
</trkpt>
<trkpt lat="40.0713749" lon="-105.229789">
  <ele>1583.0</ele>
  <time>2026-08-28T17:54:21Z</time>
  <course>248.19</course>
  <speed>0.01</speed>
  <fix>3d</fix>
</trkpt>
<trkpt lat="40.0713749" lon="-105.229789">
  <ele>1583.0</ele>
  <time>2026-08-28T17:54:21Z</time>
  <course>0.0</course>
  <speed>0.0</speed>
  <fix>3d</fix>
</trkpt>
<trkpt lat="40.0713749" lon="-105.229789">
  <ele>1583.0</ele>
  <time>2026-08-28T17:54:21Z</time>
  <course>248.18</course>
  <speed>0.01</speed>
  <fix>3d</fix>
</trkpt>
<trkpt lat="40.0713749" lon="-105.229789">
  <ele>1583.0</ele>
  <time>2026-08-28T17:54:21Z</time>
  <course>0.0</course>
  <speed>0.0</speed>
  <fix>3d</fix>
</trkpt>
<trkpt lat="40.0713749" lon="-105.229789">
  <ele>1583.0</ele>
  <time>2026-08-28T17:54:21Z</time>
  <course>248.18</course>
  <speed>0.01</speed>
  <fix>3d</fix>
</trkpt>
<trkpt lat="40.0713749" lon="-105.229789">
  <ele>1583.0</ele>
  <time>2026-08-28T17:54:22Z</time>
  <course>0.0</course>
  <speed>0.0</speed>
  <fix>3d</fix>
</trkpt>
<trkpt lat="40.0713749" lon="-105.229789">
  <ele>1583.0</ele>
  <time>2026-08-28T17:54:22Z</time>
  <course>248.17</course>
  <speed>0.022360679774997897</speed>
  <fix>3d</fix>
</trkpt>
<trkpt lat="40.0713749" lon="-105.229789">
  <ele>1583.0</ele>
  <time>2026-08-28T17:54:22Z</time>
  <course>0.0</course>
  <speed>0.0</speed>
  <fix>3d</fix>
</trkpt>
<trkpt lat="40.0713749" lon="-105.229789">
  <ele>1583.0</ele>
  <time>2026-08-28T17:54:22Z</time>
  <course>248.17</course>
  <speed>0.022360679774997897</speed>
  <fix>3d</fix>
</trkpt>
<trkpt lat="40.0713749" lon="-105.229789">
  <ele>1583.0</ele>
  <time>2026-08-28T17:54:22Z</time>
  <course>0.0</course>
  <speed>0.0</speed>
  <fix>3d</fix>
</trkpt>
<trkpt lat="40.0713749" lon="-105.229789">
  <ele>1583.0</ele>
  <time>2026-08-28T17:54:22Z</time>
  <course>248.16</course>
  <speed>0.022360679774997897</speed>
  <fix>3d</fix>
</trkpt>
<trkpt lat="40.0713749" lon="-105.229789">
  <ele>1583.0</ele>
  <time>2026-08-28T17:54:22Z</time>
  <course>0.0</course>
  <speed>0.0</speed>
  <fix>3d</fix>
</trkpt>
<trkpt lat="40.0713749" lon="-105.229789">
  <ele>1583.0</ele>
  <time>2026-08-28T17:54:22Z</time>
  <course>248.16</course>
  <speed>0.022360679774997897</speed>
  <fix>3d</fix>
</trkpt>
<trkpt lat="40.0713749" lon="-105.229789">
  <ele>1583.0</ele>
  <time>2026-08-28T17:54:22Z</time>
  <course>0.0</course>
  <speed>0.0</speed>
  <fix>3d</fix>
</trkpt>
<trkpt lat="40.0713749" lon="-105.229789">
  <ele>1583.0</ele>
  <time>2026-08-28T17:54:22Z</time>
  <course>248.15</course>
  <speed>0.022360679774997897</speed>
  <fix>3d</fix>
</trkpt>
<trkpt lat="40.0713749" lon="-105.229789">
  <ele>1583.0</ele>
  <time>2026-08-28T17:54:22Z</time>
  <course>0.0</course>
  <speed>0.0</speed>
  <fix>3d</fix>
</trkpt>
<trkpt lat="40.0713749" lon="-105.229789">
  <ele>1583.0</ele>
  <time>2026-08-28T17:54:22Z</time>
  <course>248.15</course>
  <speed>0.022360679774997897</speed>
  <fix>3d</fix>
</trkpt>
<trkpt lat="40.0713749" lon="-105.229789">
  <ele>1583.0</ele>
  <time>2026-08-28T17:54:22Z</time>
  <course>0.0</course>
  <speed>0.0</speed>
  <fix>3d</fix>
</trkpt>
<trkpt lat="40.0713749" lon="-105.229789">
  <ele>1583.0</ele>
  <time>2026-08-28T17:54:22Z</time>
  <course>248.14</course>
  <speed>0.022360679774997897</speed>
  <fix>3d</fix>
</trkpt>
<trkpt lat="40.0713749" lon="-105.229789">
  <ele>1583.0</ele>
  <time>2026-08-28T17:54:22Z</time>
  <course>0.0</course>
  <speed>0.0</speed>
  <fix>3d</fix>
</trkpt>
<trkpt lat="40.0713749" lon="-105.229789">
  <ele>1583.0</ele>
  <time>2026-08-28T17:54:22Z</time>
  <course>248.14</course>
  <speed>0.022360679774997897</speed>
  <fix>3d</fix>
</trkpt>
<trkpt lat="40.0713749" lon="-105.229789">
  <ele>1583.0</ele>
  <time>2026-08-28T17:54:22Z</time>
  <course>0.0</course>
  <speed>0.0</speed>
  <fix>3d</fix>
</trkpt>
<trkpt lat="40.0713749" lon="-105.229789">
  <ele>1583.0</ele>
  <time>2026-08-28T17:54:22Z</time>
  <course>248.13</course>
  <speed>0.022360679774997897</speed>
  <fix>3d</fix>
</trkpt>
<trkpt lat="40.0713749" lon="-105.229789">
  <ele>1583.0</ele>
  <time>2026-08-28T17:54:22Z</time>
  <course>0.0</course>
  <speed>0.0</speed>
  <fix>3d</fix>
</trkpt>
<trkpt lat="40.0713749" lon="-105.229789">
  <ele>1583.0</ele>
  <time>2026-08-28T17:54:22Z</time>
  <course>248.13</course>
  <speed>0.022360679774997897</speed>
  <fix>3d</fix>
</trkpt>
<trkpt lat="40.0713749" lon="-105.229789">
  <ele>1583.0</ele>
  <time>2026-08-28T17:54:22Z</time>
  <course>0.0</course>
  <speed>0.0</speed>
  <fix>3d</fix>
</trkpt>
<trkpt lat="40.0713749" lon="-105.229789">
  <ele>1583.0</ele>
  <time>2026-08-28T17:54:22Z</time>
  <course>248.12</course>
  <speed>0.022360679774997897</speed>
  <fix>3d</fix>
</trkpt>
<trkpt lat="40.0713749" lon="-105.229789">
  <ele>1583.0</ele>
  <time>2026-08-28T17:54:22Z</time>
  <course>0.0</course>
  <speed>0.0</speed>
  <fix>3d</fix>
</trkpt>
<trkpt lat="40.0713749" lon="-105.229789">
  <ele>1583.0</ele>
  <time>2026-08-28T17:54:22Z</time>
  <course>248.12</course>
  <speed>0.022360679774997897</speed>
  <fix>3d</fix>
</trkpt>
<trkpt lat="40.0713749" lon="-105.229789">
  <ele>1583.0</ele>
  <time>2026-08-28T17:54:22Z</time>
  <course>0.0</course>
  <speed>0.0</speed>
  <fix>3d</fix>
</trkpt>
<trkpt lat="40.0713749" lon="-105.229789">
  <ele>1583.0</ele>
  <time>2026-08-28T17:54:22Z</time>
  <course>248.11</course>
  <speed>0.022360679774997897</speed>
  <fix>3d</fix>
</trkpt>
<trkpt lat="40.0713749" lon="-105.229789">
  <ele>1583.0</ele>
  <time>2026-08-28T17:54:22Z</time>
  <course>0.0</course>
  <speed>0.0</speed>
  <fix>3d</fix>
</trkpt>
<trkpt lat="40.0713749" lon="-105.229789">
  <ele>1583.0</ele>
  <time>2026-08-28T17:54:22Z</time>
  <course>248.11</course>
  <speed>0.022360679774997897</speed>
  <fix>3d</fix>
</trkpt>
<trkpt lat="40.0713749" lon="-105.229789">
  <ele>1583.0</ele>
  <time>2026-08-28T17:54:22Z</time>
  <course>0.0</course>
  <speed>0.0</speed>
  <fix>3d</fix>
</trkpt>
<trkpt lat="40.0713749" lon="-105.229789">
  <ele>1583.0</ele>
  <time>2026-08-28T17:54:22Z</time>
  <course>248.1</course>
  <speed>0.022360679774997897</speed>
  <fix>3d</fix>
</trkpt>
<trkpt lat="40.0713749" lon="-105.229789">
  <ele>1583.0</ele>
  <time>2026-08-28T17:54:22Z</time>
  <course>0.0</course>
  <speed>0.0</speed>
  <fix>3d</fix>
</trkpt>
<trkpt lat="40.0713749" lon="-105.229789">
  <ele>1583.0</ele>
  <time>2026-08-28T17:54:22Z</time>
  <course>248.1</course>
  <speed>0.022360679774997897</speed>
  <fix>3d</fix>
</trkpt>
<trkpt lat="40.0713749" lon="-105.229789">
  <ele>1583.0</ele>
  <time>2026-08-28T17:54:22Z</time>
  <course>0.0</course>
  <speed>0.0</speed>
  <fix>3d</fix>
</trkpt>
<trkpt lat="40.0713749" lon="-105.229789">
  <ele>1583.0</ele>
  <time>2026-08-28T17:54:22Z</time>
  <course>248.09</course>
  <speed>0.022360679774997897</speed>
  <fix>3d</fix>
</trkpt>
<trkpt lat="40.0713749" lon="-105.229789">
  <ele>1583.0</ele>
  <time>2026-08-28T17:54:22Z</time>
  <course>0.0</course>
  <speed>0.0</speed>
  <fix>3d</fix>
</trkpt>
<trkpt lat="40.0713749" lon="-105.229789">
  <ele>1583.0</ele>
  <time>2026-08-28T17:54:22Z</time>
  <course>248.09</course>
  <speed>0.022360679774997897</speed>
  <fix>3d</fix>
</trkpt>
<trkpt lat="40.0713749" lon="-105.229789">
  <ele>1583.0</ele>
  <time>2026-08-28T17:54:22Z</time>
  <course>0.0</course>
  <speed>0.0</speed>
  <fix>3d</fix>
</trkpt>
<trkpt lat="40.0713749" lon="-105.229789">
  <ele>1583.0</ele>
  <time>2026-08-28T17:54:22Z</time>
  <course>248.08</course>
  <speed>0.022360679774997897</speed>
  <fix>3d</fix>
</trkpt>
<trkpt lat="40.0713749" lon="-105.229789">
  <ele>1583.0</ele>
  <time>2026-08-28T17:54:22Z</time>
  <course>0.0</course>
  <speed>0.0</speed>
  <fix>3d</fix>
</trkpt>
<trkpt lat="40.0713749" lon="-105.229789">
  <ele>1583.0</ele>
  <time>2026-08-28T17:54:22Z</time>
  <course>248.08</course>
  <speed>0.022360679774997897</speed>
  <fix>3d</fix>
</trkpt>
<trkpt lat="40.0713749" lon="-105.229789">
  <ele>1583.0</ele>
  <time>2026-08-28T17:54:22Z</time>
  <course>0.0</course>
  <speed>0.0</speed>
  <fix>3d</fix>
</trkpt>
<trkpt lat="40.0713749" lon="-105.229789">
  <ele>1583.0</ele>
  <time>2026-08-28T17:54:22Z</time>
  <course>248.07</course>
  <speed>0.022360679774997897</speed>
  <fix>3d</fix>
</trkpt>
<trkpt lat="40.0713749" lon="-105.229789">
  <ele>1583.0</ele>
  <time>2026-08-28T17:54:22Z</time>
  <course>0.0</course>
  <speed>0.0</speed>
  <fix>3d</fix>
</trkpt>
<trkpt lat="40.0713749" lon="-105.229789">
  <ele>1583.0</ele>
  <time>2026-08-28T17:54:22Z</time>
  <course>248.07</course>
  <speed>0.022360679774997897</speed>
  <fix>3d</fix>
</trkpt>
<trkpt lat="40.0713749" lon="-105.229789">
  <ele>1583.0</ele>
  <time>2026-08-28T17:54:22Z</time>
  <course>0.0</course>
  <speed>0.0</speed>
  <fix>3d</fix>
</trkpt>
<trkpt lat="40.0713749" lon="-105.229789">
  <ele>1583.0</ele>
  <time>2026-08-28T17:54:22Z</time>
  <course>248.06</course>
  <speed>0.022360679774997897</speed>
  <fix>3d</fix>
</trkpt>
<trkpt lat="40.0713749" lon="-105.229789">
  <ele>1583.0</ele>
  <time>2026-08-28T17:54:22Z</time>
  <course>0.0</course>
  <speed>0.0</speed>
  <fix>3d</fix>
</trkpt>
<trkpt lat="40.0713749" lon="-105.229789">
  <ele>1583.0</ele>
  <time>2026-08-28T17:54:22Z</time>
  <course>248.06</course>
  <speed>0.022360679774997897</speed>
  <fix>3d</fix>
</trkpt>
<trkpt lat="40.0713749" lon="-105.229789">
  <ele>1583.0</ele>
  <time>2026-08-28T17:54:22Z</time>
  <course>0.0</course>
  <speed>0.0</speed>
  <fix>3d</fix>
</trkpt>
<trkpt lat="40.0713749" lon="-105.229789">
  <ele>1583.0</ele>
  <time>2026-08-28T17:54:22Z</time>
  <course>248.05</course>
  <speed>0.022360679774997897</speed>
  <fix>3d</fix>
</trkpt>
<trkpt lat="40.0713749" lon="-105.229789">
  <ele>1583.0</ele>
  <time>2026-08-28T17:54:22Z</time>
  <course>0.0</course>
  <speed>0.0</speed>
  <fix>3d</fix>
</trkpt>
<trkpt lat="40.0713749" lon="-105.229789">
  <ele>1583.0</ele>
  <time>2026-08-28T17:54:22Z</time>
  <course>248.05</course>
  <speed>0.022360679774997897</speed>
  <fix>3d</fix>
</trkpt>
<trkpt lat="40.0713749" lon="-105.229789">
  <ele>1583.0</ele>
  <time>2026-08-28T17:54:22Z</time>
  <course>0.0</course>
  <speed>0.0</speed>
  <fix>3d</fix>
</trkpt>
<trkpt lat="40.0713749" lon="-105.229789">
  <ele>1583.0</ele>
  <time>2026-08-28T17:54:22Z</time>
  <course>248.05</course>
  <speed>0.022360679774997897</speed>
  <fix>3d</fix>
</trkpt>
<trkpt lat="40.0713749" lon="-105.229789">
  <ele>1583.0</ele>
  <time>2026-08-28T17:54:22Z</time>
  <course>0.0</course>
  <speed>0.0</speed>
  <fix>3d</fix>
</trkpt>
<trkpt lat="40.0713749" lon="-105.229789">
  <ele>1583.0</ele>
  <time>2026-08-28T17:54:22Z</time>
  <course>248.04</course>
  <speed>0.022360679774997897</speed>
  <fix>3d</fix>
</trkpt>
<trkpt lat="40.0713749" lon="-105.229789">
  <ele>1583.0</ele>
  <time>2026-08-28T17:54:22Z</time>
  <course>0.0</course>
  <speed>0.0</speed>
  <fix>3d</fix>
</trkpt>
<trkpt lat="40.0713749" lon="-105.229789">
  <ele>1583.0</ele>
  <time>2026-08-28T17:54:22Z</time>
  <course>248.04</course>
  <speed>0.022360679774997897</speed>
  <fix>3d</fix>
</trkpt>
<trkpt lat="40.0713749" lon="-105.229789">
  <ele>1583.0</ele>
  <time>2026-08-28T17:54:22Z</time>
  <course>0.0</course>
  <speed>0.0</speed>
  <fix>3d</fix>
</trkpt>
<trkpt lat="40.0713749" lon="-105.229789">
  <ele>1583.0</ele>
  <time>2026-08-28T17:54:22Z</time>
  <course>248.03</course>
  <speed>0.022360679774997897</speed>
  <fix>3d</fix>
</trkpt>
<trkpt lat="40.0713749" lon="-105.229789">
  <ele>1583.0</ele>
  <time>2026-08-28T17:54:22Z</time>
  <course>0.0</course>
  <speed>0.0</speed>
  <fix>3d</fix>
</trkpt>
<trkpt lat="40.0713749" lon="-105.229789">
  <ele>1583.0</ele>
  <time>2026-08-28T17:54:22Z</time>
  <course>248.03</course>
  <speed>0.022360679774997897</speed>
  <fix>3d</fix>
</trkpt>
<trkpt lat="40.0713749" lon="-105.229789">
  <ele>1583.0</ele>
  <time>2026-08-28T17:54:22Z</time>
  <course>0.0</course>
  <speed>0.0</speed>
  <fix>3d</fix>
</trkpt>
<trkpt lat="40.0713749" lon="-105.229789">
  <ele>1583.0</ele>
  <time>2026-08-28T17:54:22Z</time>
  <course>248.02</course>
  <speed>0.022360679774997897</speed>
  <fix>3d</fix>
</trkpt>
<trkpt lat="40.0713749" lon="-105.229789">
  <ele>1583.0</ele>
  <time>2026-08-28T17:54:22Z</time>
  <course>0.0</course>
  <speed>0.0</speed>
  <fix>3d</fix>
</trkpt>
<trkpt lat="40.0713749" lon="-105.229789">
  <ele>1583.0</ele>
  <time>2026-08-28T17:54:22Z</time>
  <course>248.02</course>
  <speed>0.022360679774997897</speed>
  <fix>3d</fix>
</trkpt>
<trkpt lat="40.0713749" lon="-105.229789">
  <ele>1583.0</ele>
  <time>2026-08-28T17:54:22Z</time>
  <course>0.0</course>
  <speed>0.0</speed>
  <fix>3d</fix>
</trkpt>
<trkpt lat="40.0713749" lon="-105.229789">
  <ele>1583.0</ele>
  <time>2026-08-28T17:54:22Z</time>
  <course>248.01</course>
  <speed>0.022360679774997897</speed>
  <fix>3d</fix>
</trkpt>
<trkpt lat="40.0713749" lon="-105.229789">
  <ele>1583.0</ele>
  <time>2026-08-28T17:54:22Z</time>
  <course>0.0</course>
  <speed>0.0</speed>
  <fix>3d</fix>
</trkpt>
<trkpt lat="40.0713749" lon="-105.229789">
  <ele>1583.0</ele>
  <time>2026-08-28T17:54:22Z</time>
  <course>248.01</course>
  <speed>0.022360679774997897</speed>
  <fix>3d</fix>
</trkpt>
<trkpt lat="40.0713749" lon="-105.229789">
  <ele>1583.0</ele>
  <time>2026-08-28T17:54:22Z</time>
  <course>0.0</course>
  <speed>0.0</speed>
  <fix>3d</fix>
</trkpt>
<trkpt lat="40.0713749" lon="-105.229789">
  <ele>1583.0</ele>
  <time>2026-08-28T17:54:22Z</time>
  <course>248.0</course>
  <speed>0.022360679774997897</speed>
  <fix>3d</fix>
</trkpt>
<trkpt lat="40.0713749" lon="-105.229789">
  <ele>1583.0</ele>
  <time>2026-08-28T17:54:22Z</time>
  <course>0.0</course>
  <speed>0.0</speed>
  <fix>3d</fix>
</trkpt>
<trkpt lat="40.0713749" lon="-105.229789">
  <ele>1583.0</ele>
  <time>2026-08-28T17:54:22Z</time>
  <course>248.0</course>
  <speed>0.022360679774997897</speed>
  <fix>3d</fix>
</trkpt>
<trkpt lat="40.0713749" lon="-105.229789">
  <ele>1583.0</ele>
  <time>2026-08-28T17:54:22Z</time>
  <course>0.0</course>
  <speed>0.0</speed>
  <fix>3d</fix>
</trkpt>
<trkpt lat="40.0713749" lon="-105.229789">
  <ele>1583.0</ele>
  <time>2026-08-28T17:54:22Z</time>
  <course>247.99</course>
  <speed>0.022360679774997897</speed>
  <fix>3d</fix>
</trkpt>
<trkpt lat="40.0713749" lon="-105.229789">
  <ele>1583.0</ele>
  <time>2026-08-28T17:54:22Z</time>
  <course>0.0</course>
  <speed>0.0</speed>
  <fix>3d</fix>
</trkpt>
<trkpt lat="40.0713749" lon="-105.229789">
  <ele>1583.0</ele>
  <time>2026-08-28T17:54:22Z</time>
  <course>247.99</course>
  <speed>0.022360679774997897</speed>
  <fix>3d</fix>
</trkpt>
<trkpt lat="40.0713749" lon="-105.229789">
  <ele>1583.0</ele>
  <time>2026-08-28T17:54:22Z</time>
  <course>0.0</course>
  <speed>0.0</speed>
  <fix>3d</fix>
</trkpt>
<trkpt lat="40.0713749" lon="-105.229789">
  <ele>1583.0</ele>
  <time>2026-08-28T17:54:22Z</time>
  <course>247.99</course>
  <speed>0.022360679774997897</speed>
  <fix>3d</fix>
</trkpt>
<trkpt lat="40.0713749" lon="-105.229789">
  <ele>1583.0</ele>
  <time>2026-08-28T17:54:22Z</time>
  <course>0.0</course>
  <speed>0.0</speed>
  <fix>3d</fix>
</trkpt>
<trkpt lat="40.0713749" lon="-105.229789">
  <ele>1583.0</ele>
  <time>2026-08-28T17:54:22Z</time>
  <course>247.98</course>
  <speed>0.022360679774997897</speed>
  <fix>3d</fix>
</trkpt>
<trkpt lat="40.0713749" lon="-105.229789">
  <ele>1583.0</ele>
  <time>2026-08-28T17:54:22Z</time>
  <course>0.0</course>
  <speed>0.0</speed>
  <fix>3d</fix>
</trkpt>
<trkpt lat="40.0713749" lon="-105.229789">
  <ele>1583.0</ele>
  <time>2026-08-28T17:54:22Z</time>
  <course>247.98</course>
  <speed>0.022360679774997897</speed>
  <fix>3d</fix>
</trkpt>
<trkpt lat="40.0713749" lon="-105.229789">
  <ele>1583.0</ele>
  <time>2026-08-28T17:54:22Z</time>
  <course>0.0</course>
  <speed>0.0</speed>
  <fix>3d</fix>
</trkpt>
<trkpt lat="40.0713749" lon="-105.229789">
  <ele>1583.0</ele>
  <time>2026-08-28T17:54:22Z</time>
  <course>247.97</course>
  <speed>0.022360679774997897</speed>
  <fix>3d</fix>
</trkpt>
<trkpt lat="40.0713749" lon="-105.229789">
  <ele>1583.0</ele>
  <time>2026-08-28T17:54:22Z</time>
  <course>0.0</course>
  <speed>0.0</speed>
  <fix>3d</fix>
</trkpt>
<trkpt lat="40.0713749" lon="-105.229789">
  <ele>1583.0</ele>
  <time>2026-08-28T17:54:22Z</time>
  <course>247.97</course>
  <speed>0.022360679774997897</speed>
  <fix>3d</fix>
</trkpt>
<trkpt lat="40.0713749" lon="-105.229789">
  <ele>1583.0</ele>
  <time>2026-08-28T17:54:22Z</time>
  <course>0.0</course>
  <speed>0.0</speed>
  <fix>3d</fix>
</trkpt>
<trkpt lat="40.0713749" lon="-105.229789">
  <ele>1583.0</ele>
  <time>2026-08-28T17:54:22Z</time>
  <course>247.96</course>
  <speed>0.022360679774997897</speed>
  <fix>3d</fix>
</trkpt>
<trkpt lat="40.0713749" lon="-105.229789">
  <ele>1583.0</ele>
  <time>2026-08-28T17:54:22Z</time>
  <course>0.0</course>
  <speed>0.0</speed>
  <fix>3d</fix>
</trkpt>
<trkpt lat="40.0713749" lon="-105.229789">
  <ele>1583.0</ele>
  <time>2026-08-28T17:54:22Z</time>
  <course>247.96</course>
  <speed>0.022360679774997897</speed>
  <fix>3d</fix>
</trkpt>
<trkpt lat="40.0713749" lon="-105.229789">
  <ele>1583.0</ele>
  <time>2026-08-28T17:54:22Z</time>
  <course>0.0</course>
  <speed>0.0</speed>
  <fix>3d</fix>
</trkpt>
<trkpt lat="40.0713749" lon="-105.229789">
  <ele>1583.0</ele>
  <time>2026-08-28T17:54:22Z</time>
  <course>247.95</course>
  <speed>0.022360679774997897</speed>
  <fix>3d</fix>
</trkpt>
<trkpt lat="40.0713749" lon="-105.229789">
  <ele>1583.0</ele>
  <time>2026-08-28T17:54:22Z</time>
  <course>0.0</course>
  <speed>0.0</speed>
  <fix>3d</fix>
</trkpt>
<trkpt lat="40.0713749" lon="-105.229789">
  <ele>1583.0</ele>
  <time>2026-08-28T17:54:22Z</time>
  <course>247.95</course>
  <speed>0.022360679774997897</speed>
  <fix>3d</fix>
</trkpt>
<trkpt lat="40.0713749" lon="-105.229789">
  <ele>1583.0</ele>
  <time>2026-08-28T17:54:22Z</time>
  <course>0.0</course>
  <speed>0.0</speed>
  <fix>3d</fix>
</trkpt>
<trkpt lat="40.0713749" lon="-105.229789">
  <ele>1583.0</ele>
  <time>2026-08-28T17:54:22Z</time>
  <course>247.95</course>
  <speed>0.022360679774997897</speed>
  <fix>3d</fix>
</trkpt>
<trkpt lat="40.0713749" lon="-105.229789">
  <ele>1583.0</ele>
  <time>2026-08-28T17:54:22Z</time>
  <course>0.0</course>
  <speed>0.0</speed>
  <fix>3d</fix>
</trkpt>
<trkpt lat="40.0713749" lon="-105.229789">
  <ele>1583.0</ele>
  <time>2026-08-28T17:54:22Z</time>
  <course>247.94</course>
  <speed>0.022360679774997897</speed>
  <fix>3d</fix>
</trkpt>
<trkpt lat="40.0713749" lon="-105.229789">
  <ele>1583.0</ele>
  <time>2026-08-28T17:54:22Z</time>
  <course>0.0</course>
  <speed>0.0</speed>
  <fix>3d</fix>
</trkpt>
<trkpt lat="40.0713749" lon="-105.229789">
  <ele>1583.0</ele>
  <time>2026-08-28T17:54:22Z</time>
  <course>247.94</course>
  <speed>0.022360679774997897</speed>
  <fix>3d</fix>
</trkpt>
<trkpt lat="40.0713749" lon="-105.229789">
  <ele>1583.0</ele>
  <time>2026-08-28T17:54:22Z</time>
  <course>0.0</course>
  <speed>0.0</speed>
  <fix>3d</fix>
</trkpt>
<trkpt lat="40.0713749" lon="-105.229789">
  <ele>1583.0</ele>
  <time>2026-08-28T17:54:22Z</time>
  <course>247.93</course>
  <speed>0.022360679774997897</speed>
  <fix>3d</fix>
</trkpt>
<trkpt lat="40.0713749" lon="-105.229789">
  <ele>1583.0</ele>
  <time>2026-08-28T17:54:22Z</time>
  <course>0.0</course>
  <speed>0.0</speed>
  <fix>3d</fix>
</trkpt>
<trkpt lat="40.0713749" lon="-105.229789">
  <ele>1583.0</ele>
  <time>2026-08-28T17:54:22Z</time>
  <course>247.93</course>
  <speed>0.022360679774997897</speed>
  <fix>3d</fix>
</trkpt>
<trkpt lat="40.0713749" lon="-105.229789">
  <ele>1583.0</ele>
  <time>2026-08-28T17:54:22Z</time>
  <course>0.0</course>
  <speed>0.0</speed>
  <fix>3d</fix>
</trkpt>
<trkpt lat="40.0713749" lon="-105.229789">
  <ele>1583.0</ele>
  <time>2026-08-28T17:54:22Z</time>
  <course>247.92</course>
  <speed>0.022360679774997897</speed>
  <fix>3d</fix>
</trkpt>
<trkpt lat="40.0713749" lon="-105.229789">
  <ele>1583.0</ele>
  <time>2026-08-28T17:54:22Z</time>
  <course>0.0</course>
  <speed>0.0</speed>
  <fix>3d</fix>
</trkpt>
<trkpt lat="40.0713749" lon="-105.229789">
  <ele>1583.0</ele>
  <time>2026-08-28T17:54:22Z</time>
  <course>247.92</course>
  <speed>0.022360679774997897</speed>
  <fix>3d</fix>
</trkpt>
<trkpt lat="40.0713749" lon="-105.229789">
  <ele>1583.0</ele>
  <time>2026-08-28T17:54:22Z</time>
  <course>0.0</course>
  <speed>0.0</speed>
  <fix>3d</fix>
</trkpt>
<trkpt lat="40.0713749" lon="-105.229789">
  <ele>1583.0</ele>
  <time>2026-08-28T17:54:22Z</time>
  <course>247.92</course>
  <speed>0.022360679774997897</speed>
  <fix>3d</fix>
</trkpt>
<trkpt lat="40.0713749" lon="-105.229789">
  <ele>1583.0</ele>
  <time>2026-08-28T17:54:22Z</time>
  <course>0.0</course>
  <speed>0.0</speed>
  <fix>3d</fix>
</trkpt>
<trkpt lat="40.0713749" lon="-105.229789">
  <ele>1583.0</ele>
  <time>2026-08-28T17:54:22Z</time>
  <course>247.91</course>
  <speed>0.022360679774997897</speed>
  <fix>3d</fix>
</trkpt>
<trkpt lat="40.0713749" lon="-105.229789">
  <ele>1583.0</ele>
  <time>2026-08-28T17:54:22Z</time>
  <course>0.0</course>
  <speed>0.0</speed>
  <fix>3d</fix>
</trkpt>
<trkpt lat="40.0713749" lon="-105.229789">
  <ele>1583.0</ele>
  <time>2026-08-28T17:54:22Z</time>
  <course>247.91</course>
  <speed>0.022360679774997897</speed>
  <fix>3d</fix>
</trkpt>
<trkpt lat="40.0713749" lon="-105.229789">
  <ele>1583.0</ele>
  <time>2026-08-28T17:54:22Z</time>
  <course>0.0</course>
  <speed>0.0</speed>
  <fix>3d</fix>
</trkpt>
<trkpt lat="40.0713749" lon="-105.229789">
  <ele>1583.0</ele>
  <time>2026-08-28T17:54:22Z</time>
  <course>247.9</course>
  <speed>0.022360679774997897</speed>
  <fix>3d</fix>
</trkpt>
<trkpt lat="40.0713749" lon="-105.229789">
  <ele>1583.0</ele>
  <time>2026-08-28T17:54:22Z</time>
  <course>0.0</course>
  <speed>0.0</speed>
  <fix>3d</fix>
</trkpt>
<trkpt lat="40.0713749" lon="-105.229789">
  <ele>1583.0</ele>
  <time>2026-08-28T17:54:22Z</time>
  <course>247.9</course>
  <speed>0.022360679774997897</speed>
  <fix>3d</fix>
</trkpt>
<trkpt lat="40.0713749" lon="-105.229789">
  <ele>1583.0</ele>
  <time>2026-08-28T17:54:22Z</time>
  <course>0.0</course>
  <speed>0.0</speed>
  <fix>3d</fix>
</trkpt>
<trkpt lat="40.0713749" lon="-105.229789">
  <ele>1583.0</ele>
  <time>2026-08-28T17:54:22Z</time>
  <course>247.89</course>
  <speed>0.022360679774997897</speed>
  <fix>3d</fix>
</trkpt>
<trkpt lat="40.0713749" lon="-105.229789">
  <ele>1583.0</ele>
  <time>2026-08-28T17:54:22Z</time>
  <course>0.0</course>
  <speed>0.0</speed>
  <fix>3d</fix>
</trkpt>
<trkpt lat="40.0713749" lon="-105.229789">
  <ele>1583.0</ele>
  <time>2026-08-28T17:54:22Z</time>
  <course>247.89</course>
  <speed>0.022360679774997897</speed>
  <fix>3d</fix>
</trkpt>
<trkpt lat="40.0713749" lon="-105.229789">
  <ele>1583.0</ele>
  <time>2026-08-28T17:54:22Z</time>
  <course>0.0</course>
  <speed>0.0</speed>
  <fix>3d</fix>
</trkpt>
<trkpt lat="40.0713749" lon="-105.229789">
  <ele>1583.0</ele>
  <time>2026-08-28T17:54:22Z</time>
  <course>247.89</course>
  <speed>0.022360679774997897</speed>
  <fix>3d</fix>
</trkpt>
<trkpt lat="40.0713749" lon="-105.229789">
  <ele>1583.0</ele>
  <time>2026-08-28T17:54:22Z</time>
  <course>0.0</course>
  <speed>0.0</speed>
  <fix>3d</fix>
</trkpt>
<trkpt lat="40.0713749" lon="-105.229789">
  <ele>1583.0</ele>
  <time>2026-08-28T17:54:22Z</time>
  <course>247.88</course>
  <speed>0.0316227766016838</speed>
  <fix>3d</fix>
</trkpt>
<trkpt lat="40.0713749" lon="-105.229789">
  <ele>1583.0</ele>
  <time>2026-08-28T17:54:22Z</time>
  <course>0.0</course>
  <speed>0.0</speed>
  <fix>3d</fix>
</trkpt>
<trkpt lat="40.0713749" lon="-105.229789">
  <ele>1583.0</ele>
  <time>2026-08-28T17:54:22Z</time>
  <course>247.88</course>
  <speed>0.0316227766016838</speed>
  <fix>3d</fix>
</trkpt>
<trkpt lat="40.0713749" lon="-105.229789">
  <ele>1583.0</ele>
  <time>2026-08-28T17:54:22Z</time>
  <course>0.0</course>
  <speed>0.0</speed>
  <fix>3d</fix>
</trkpt>
<trkpt lat="40.0713749" lon="-105.229789">
  <ele>1583.0</ele>
  <time>2026-08-28T17:54:22Z</time>
  <course>247.87</course>
  <speed>0.0316227766016838</speed>
  <fix>3d</fix>
</trkpt>
<trkpt lat="40.0713749" lon="-105.229789">
  <ele>1583.0</ele>
  <time>2026-08-28T17:54:22Z</time>
  <course>0.0</course>
  <speed>0.0</speed>
  <fix>3d</fix>
</trkpt>
<trkpt lat="40.0713749" lon="-105.229789">
  <ele>1583.0</ele>
  <time>2026-08-28T17:54:22Z</time>
  <course>247.87</course>
  <speed>0.0316227766016838</speed>
  <fix>3d</fix>
</trkpt>
<trkpt lat="40.0713749" lon="-105.229789">
  <ele>1583.0</ele>
  <time>2026-08-28T17:54:22Z</time>
  <course>0.0</course>
  <speed>0.0</speed>
  <fix>3d</fix>
</trkpt>
<trkpt lat="40.0713749" lon="-105.229789">
  <ele>1583.0</ele>
  <time>2026-08-28T17:54:22Z</time>
  <course>247.87</course>
  <speed>0.0316227766016838</speed>
  <fix>3d</fix>
</trkpt>
<trkpt lat="40.0713749" lon="-105.229789">
  <ele>1583.0</ele>
  <time>2026-08-28T17:54:22Z</time>
  <course>0.0</course>
  <speed>0.0</speed>
  <fix>3d</fix>
</trkpt>
<trkpt lat="40.0713749" lon="-105.229789">
  <ele>1583.0</ele>
  <time>2026-08-28T17:54:22Z</time>
  <course>247.86</course>
  <speed>0.0316227766016838</speed>
  <fix>3d</fix>
</trkpt>
<trkpt lat="40.0713749" lon="-105.229789">
  <ele>1583.0</ele>
  <time>2026-08-28T17:54:22Z</time>
  <course>0.0</course>
  <speed>0.0</speed>
  <fix>3d</fix>
</trkpt>
<trkpt lat="40.0713749" lon="-105.229789">
  <ele>1583.0</ele>
  <time>2026-08-28T17:54:22Z</time>
  <course>247.86</course>
  <speed>0.0316227766016838</speed>
  <fix>3d</fix>
</trkpt>
<trkpt lat="40.0713749" lon="-105.229789">
  <ele>1583.0</ele>
  <time>2026-08-28T17:54:22Z</time>
  <course>0.0</course>
  <speed>0.0</speed>
  <fix>3d</fix>
</trkpt>
<trkpt lat="40.0713749" lon="-105.229789">
  <ele>1583.0</ele>
  <time>2026-08-28T17:54:22Z</time>
  <course>247.85</course>
  <speed>0.0316227766016838</speed>
  <fix>3d</fix>
</trkpt>
<trkpt lat="40.0713749" lon="-105.229789">
  <ele>1583.0</ele>
  <time>2026-08-28T17:54:22Z</time>
  <course>0.0</course>
  <speed>0.0</speed>
  <fix>3d</fix>
</trkpt>
<trkpt lat="40.0713749" lon="-105.229789">
  <ele>1583.0</ele>
  <time>2026-08-28T17:54:22Z</time>
  <course>247.85</course>
  <speed>0.0316227766016838</speed>
  <fix>3d</fix>
</trkpt>
<trkpt lat="40.0713749" lon="-105.229789">
  <ele>1583.0</ele>
  <time>2026-08-28T17:54:22Z</time>
  <course>0.0</course>
  <speed>0.0</speed>
  <fix>3d</fix>
</trkpt>
<trkpt lat="40.0713749" lon="-105.229789">
  <ele>1583.0</ele>
  <time>2026-08-28T17:54:22Z</time>
  <course>247.85</course>
  <speed>0.0316227766016838</speed>
  <fix>3d</fix>
</trkpt>
<trkpt lat="40.0713749" lon="-105.229789">
  <ele>1583.0</ele>
  <time>2026-08-28T17:54:22Z</time>
  <course>0.0</course>
  <speed>0.0</speed>
  <fix>3d</fix>
</trkpt>
<trkpt lat="40.0713749" lon="-105.229789">
  <ele>1583.0</ele>
  <time>2026-08-28T17:54:22Z</time>
  <course>247.84</course>
  <speed>0.0316227766016838</speed>
  <fix>3d</fix>
</trkpt>
<trkpt lat="40.0713749" lon="-105.229789">
  <ele>1583.0</ele>
  <time>2026-08-28T17:54:22Z</time>
  <course>0.0</course>
  <speed>0.0</speed>
  <fix>3d</fix>
</trkpt>
<trkpt lat="40.0713749" lon="-105.229789">
  <ele>1583.0</ele>
  <time>2026-08-28T17:54:22Z</time>
  <course>247.84</course>
  <speed>0.0316227766016838</speed>
  <fix>3d</fix>
</trkpt>
<trkpt lat="40.0713749" lon="-105.229789">
  <ele>1583.0</ele>
  <time>2026-08-28T17:54:22Z</time>
  <course>0.0</course>
  <speed>0.0</speed>
  <fix>3d</fix>
</trkpt>
<trkpt lat="40.0713749" lon="-105.229789">
  <ele>1583.0</ele>
  <time>2026-08-28T17:54:22Z</time>
  <course>247.83</course>
  <speed>0.0316227766016838</speed>
  <fix>3d</fix>
</trkpt>
<trkpt lat="40.0713749" lon="-105.229789">
  <ele>1583.0</ele>
  <time>2026-08-28T17:54:22Z</time>
  <course>0.0</course>
  <speed>0.0</speed>
  <fix>3d</fix>
</trkpt>
<trkpt lat="40.0713749" lon="-105.229789">
  <ele>1583.0</ele>
  <time>2026-08-28T17:54:22Z</time>
  <course>247.83</course>
  <speed>0.0316227766016838</speed>
  <fix>3d</fix>
</trkpt>
<trkpt lat="40.0713749" lon="-105.229789">
  <ele>1583.0</ele>
  <time>2026-08-28T17:54:22Z</time>
  <course>0.0</course>
  <speed>0.0</speed>
  <fix>3d</fix>
</trkpt>
<trkpt lat="40.0713749" lon="-105.229789">
  <ele>1583.0</ele>
  <time>2026-08-28T17:54:22Z</time>
  <course>247.83</course>
  <speed>0.0316227766016838</speed>
  <fix>3d</fix>
</trkpt>
<trkpt lat="40.0713749" lon="-105.229789">
  <ele>1583.0</ele>
  <time>2026-08-28T17:54:22Z</time>
  <course>0.0</course>
  <speed>0.0</speed>
  <fix>3d</fix>
</trkpt>
<trkpt lat="40.0713749" lon="-105.229789">
  <ele>1583.0</ele>
  <time>2026-08-28T17:54:22Z</time>
  <course>247.82</course>
  <speed>0.0316227766016838</speed>
  <fix>3d</fix>
</trkpt>
<trkpt lat="40.0713749" lon="-105.229789">
  <ele>1583.0</ele>
  <time>2026-08-28T17:54:22Z</time>
  <course>0.0</course>
  <speed>0.0</speed>
  <fix>3d</fix>
</trkpt>
<trkpt lat="40.0713749" lon="-105.229789">
  <ele>1583.0</ele>
  <time>2026-08-28T17:54:22Z</time>
  <course>247.82</course>
  <speed>0.0316227766016838</speed>
  <fix>3d</fix>
</trkpt>
<trkpt lat="40.0713749" lon="-105.229789">
  <ele>1583.0</ele>
  <time>2026-08-28T17:54:22Z</time>
  <course>0.0</course>
  <speed>0.0</speed>
  <fix>3d</fix>
</trkpt>
<trkpt lat="40.0713749" lon="-105.229789">
  <ele>1583.0</ele>
  <time>2026-08-28T17:54:22Z</time>
  <course>247.82</course>
  <speed>0.0316227766016838</speed>
  <fix>3d</fix>
</trkpt>
<trkpt lat="40.0713749" lon="-105.229789">
  <ele>1583.0</ele>
  <time>2026-08-28T17:54:22Z</time>
  <course>0.0</course>
  <speed>0.0</speed>
  <fix>3d</fix>
</trkpt>
<trkpt lat="40.0713749" lon="-105.229789">
  <ele>1583.0</ele>
  <time>2026-08-28T17:54:22Z</time>
  <course>247.81</course>
  <speed>0.0316227766016838</speed>
  <fix>3d</fix>
</trkpt>
<trkpt lat="40.0713749" lon="-105.229789">
  <ele>1583.0</ele>
  <time>2026-08-28T17:54:22Z</time>
  <course>0.0</course>
  <speed>0.0</speed>
  <fix>3d</fix>
</trkpt>
<trkpt lat="40.0713749" lon="-105.229789">
  <ele>1583.0</ele>
  <time>2026-08-28T17:54:22Z</time>
  <course>247.81</course>
  <speed>0.0316227766016838</speed>
  <fix>3d</fix>
</trkpt>
<trkpt lat="40.0713749" lon="-105.229789">
  <ele>1583.0</ele>
  <time>2026-08-28T17:54:22Z</time>
  <course>0.0</course>
  <speed>0.0</speed>
  <fix>3d</fix>
</trkpt>
<trkpt lat="40.0713749" lon="-105.229789">
  <ele>1583.0</ele>
  <time>2026-08-28T17:54:22Z</time>
  <course>247.8</course>
  <speed>0.0316227766016838</speed>
  <fix>3d</fix>
</trkpt>
<trkpt lat="40.0713749" lon="-105.229789">
  <ele>1583.0</ele>
  <time>2026-08-28T17:54:22Z</time>
  <course>0.0</course>
  <speed>0.0</speed>
  <fix>3d</fix>
</trkpt>
<trkpt lat="40.0713749" lon="-105.229789">
  <ele>1583.0</ele>
  <time>2026-08-28T17:54:22Z</time>
  <course>247.8</course>
  <speed>0.0316227766016838</speed>
  <fix>3d</fix>
</trkpt>
<trkpt lat="40.0713749" lon="-105.229789">
  <ele>1583.0</ele>
  <time>2026-08-28T17:54:22Z</time>
  <course>0.0</course>
  <speed>0.0</speed>
  <fix>3d</fix>
</trkpt>
<trkpt lat="40.0713749" lon="-105.229789">
  <ele>1583.0</ele>
  <time>2026-08-28T17:54:22Z</time>
  <course>247.8</course>
  <speed>0.0316227766016838</speed>
  <fix>3d</fix>
</trkpt>
<trkpt lat="40.0713749" lon="-105.229789">
  <ele>1583.0</ele>
  <time>2026-08-28T17:54:22Z</time>
  <course>0.0</course>
  <speed>0.0</speed>
  <fix>3d</fix>
</trkpt>
<trkpt lat="40.0713749" lon="-105.229789">
  <ele>1583.0</ele>
  <time>2026-08-28T17:54:22Z</time>
  <course>247.79</course>
  <speed>0.0316227766016838</speed>
  <fix>3d</fix>
</trkpt>
<trkpt lat="40.0713749" lon="-105.229789">
  <ele>1583.0</ele>
  <time>2026-08-28T17:54:22Z</time>
  <course>0.0</course>
  <speed>0.0</speed>
  <fix>3d</fix>
</trkpt>
<trkpt lat="40.0713749" lon="-105.229789">
  <ele>1583.0</ele>
  <time>2026-08-28T17:54:22Z</time>
  <course>247.79</course>
  <speed>0.0316227766016838</speed>
  <fix>3d</fix>
</trkpt>
<trkpt lat="40.0713749" lon="-105.229789">
  <ele>1583.0</ele>
  <time>2026-08-28T17:54:22Z</time>
  <course>0.0</course>
  <speed>0.0</speed>
  <fix>3d</fix>
</trkpt>
<trkpt lat="40.0713749" lon="-105.229789">
  <ele>1583.0</ele>
  <time>2026-08-28T17:54:22Z</time>
  <course>247.79</course>
  <speed>0.0316227766016838</speed>
  <fix>3d</fix>
</trkpt>
<trkpt lat="40.0713749" lon="-105.229789">
  <ele>1583.0</ele>
  <time>2026-08-28T17:54:22Z</time>
  <course>0.0</course>
  <speed>0.0</speed>
  <fix>3d</fix>
</trkpt>
<trkpt lat="40.0713749" lon="-105.229789">
  <ele>1583.0</ele>
  <time>2026-08-28T17:54:22Z</time>
  <course>247.78</course>
  <speed>0.0316227766016838</speed>
  <fix>3d</fix>
</trkpt>
<trkpt lat="40.0713749" lon="-105.229789">
  <ele>1583.0</ele>
  <time>2026-08-28T17:54:22Z</time>
  <course>0.0</course>
  <speed>0.0</speed>
  <fix>3d</fix>
</trkpt>
<trkpt lat="40.0713749" lon="-105.229789">
  <ele>1583.0</ele>
  <time>2026-08-28T17:54:22Z</time>
  <course>247.78</course>
  <speed>0.0316227766016838</speed>
  <fix>3d</fix>
</trkpt>
<trkpt lat="40.0713749" lon="-105.229789">
  <ele>1583.0</ele>
  <time>2026-08-28T17:54:22Z</time>
  <course>0.0</course>
  <speed>0.0</speed>
  <fix>3d</fix>
</trkpt>
<trkpt lat="40.0713749" lon="-105.229789">
  <ele>1583.0</ele>
  <time>2026-08-28T17:54:22Z</time>
  <course>247.78</course>
  <speed>0.0316227766016838</speed>
  <fix>3d</fix>
</trkpt>
<trkpt lat="40.0713749" lon="-105.229789">
  <ele>1583.0</ele>
  <time>2026-08-28T17:54:22Z</time>
  <course>0.0</course>
  <speed>0.0</speed>
  <fix>3d</fix>
</trkpt>
<trkpt lat="40.0713749" lon="-105.229789">
  <ele>1583.0</ele>
  <time>2026-08-28T17:54:22Z</time>
  <course>247.77</course>
  <speed>0.0316227766016838</speed>
  <fix>3d</fix>
</trkpt>
<trkpt lat="40.0713749" lon="-105.229789">
  <ele>1583.0</ele>
  <time>2026-08-28T17:54:22Z</time>
  <course>0.0</course>
  <speed>0.0</speed>
  <fix>3d</fix>
</trkpt>
<trkpt lat="40.0713749" lon="-105.229789">
  <ele>1583.0</ele>
  <time>2026-08-28T17:54:22Z</time>
  <course>247.77</course>
  <speed>0.0316227766016838</speed>
  <fix>3d</fix>
</trkpt>
<trkpt lat="40.0713749" lon="-105.229789">
  <ele>1583.0</ele>
  <time>2026-08-28T17:54:22Z</time>
  <course>0.0</course>
  <speed>0.0</speed>
  <fix>3d</fix>
</trkpt>
<trkpt lat="40.0713749" lon="-105.229789">
  <ele>1583.0</ele>
  <time>2026-08-28T17:54:22Z</time>
  <course>247.76</course>
  <speed>0.0316227766016838</speed>
  <fix>3d</fix>
</trkpt>
<trkpt lat="40.0713749" lon="-105.229789">
  <ele>1583.0</ele>
  <time>2026-08-28T17:54:22Z</time>
  <course>0.0</course>
  <speed>0.0</speed>
  <fix>3d</fix>
</trkpt>
<trkpt lat="40.0713749" lon="-105.229789">
  <ele>1583.0</ele>
  <time>2026-08-28T17:54:22Z</time>
  <course>247.76</course>
  <speed>0.0316227766016838</speed>
  <fix>3d</fix>
</trkpt>
<trkpt lat="40.0713749" lon="-105.229789">
  <ele>1583.0</ele>
  <time>2026-08-28T17:54:22Z</time>
  <course>0.0</course>
  <speed>0.0</speed>
  <fix>3d</fix>
</trkpt>
<trkpt lat="40.0713749" lon="-105.229789">
  <ele>1583.0</ele>
  <time>2026-08-28T17:54:22Z</time>
  <course>247.76</course>
  <speed>0.0316227766016838</speed>
  <fix>3d</fix>
</trkpt>
<trkpt lat="40.0713749" lon="-105.229789">
  <ele>1583.0</ele>
  <time>2026-08-28T17:54:22Z</time>
  <course>0.0</course>
  <speed>0.0</speed>
  <fix>3d</fix>
</trkpt>
<trkpt lat="40.0713749" lon="-105.229789">
  <ele>1583.0</ele>
  <time>2026-08-28T17:54:22Z</time>
  <course>247.75</course>
  <speed>0.0316227766016838</speed>
  <fix>3d</fix>
</trkpt>
<trkpt lat="40.0713749" lon="-105.229789">
  <ele>1583.0</ele>
  <time>2026-08-28T17:54:22Z</time>
  <course>0.0</course>
  <speed>0.0</speed>
  <fix>3d</fix>
</trkpt>
<trkpt lat="40.0713749" lon="-105.229789">
  <ele>1583.0</ele>
  <time>2026-08-28T17:54:22Z</time>
  <course>247.75</course>
  <speed>0.0316227766016838</speed>
  <fix>3d</fix>
</trkpt>
<trkpt lat="40.0713749" lon="-105.229789">
  <ele>1583.0</ele>
  <time>2026-08-28T17:54:22Z</time>
  <course>0.0</course>
  <speed>0.0</speed>
  <fix>3d</fix>
</trkpt>
<trkpt lat="40.0713749" lon="-105.229789">
  <ele>1583.0</ele>
  <time>2026-08-28T17:54:22Z</time>
  <course>247.75</course>
  <speed>0.0316227766016838</speed>
  <fix>3d</fix>
</trkpt>
<trkpt lat="40.0713749" lon="-105.229789">
  <ele>1583.0</ele>
  <time>2026-08-28T17:54:22Z</time>
  <course>0.0</course>
  <speed>0.0</speed>
  <fix>3d</fix>
</trkpt>
<trkpt lat="40.0713749" lon="-105.229789">
  <ele>1583.0</ele>
  <time>2026-08-28T17:54:22Z</time>
  <course>247.74</course>
  <speed>0.0316227766016838</speed>
  <fix>3d</fix>
</trkpt>
<trkpt lat="40.0713749" lon="-105.229789">
  <ele>1583.0</ele>
  <time>2026-08-28T17:54:22Z</time>
  <course>0.0</course>
  <speed>0.0</speed>
  <fix>3d</fix>
</trkpt>
<trkpt lat="40.0713749" lon="-105.229789">
  <ele>1583.0</ele>
  <time>2026-08-28T17:54:22Z</time>
  <course>247.74</course>
  <speed>0.0316227766016838</speed>
  <fix>3d</fix>
</trkpt>
<trkpt lat="40.0713749" lon="-105.229789">
  <ele>1583.0</ele>
  <time>2026-08-28T17:54:22Z</time>
  <course>0.0</course>
  <speed>0.0</speed>
  <fix>3d</fix>
</trkpt>
<trkpt lat="40.0713749" lon="-105.229789">
  <ele>1583.0</ele>
  <time>2026-08-28T17:54:22Z</time>
  <course>247.74</course>
  <speed>0.0316227766016838</speed>
  <fix>3d</fix>
</trkpt>
<trkpt lat="40.0713749" lon="-105.229789">
  <ele>1583.0</ele>
  <time>2026-08-28T17:54:22Z</time>
  <course>0.0</course>
  <speed>0.0</speed>
  <fix>3d</fix>
</trkpt>
<trkpt lat="40.0713749" lon="-105.229789">
  <ele>1583.0</ele>
  <time>2026-08-28T17:54:22Z</time>
  <course>247.73</course>
  <speed>0.0316227766016838</speed>
  <fix>3d</fix>
</trkpt>
<trkpt lat="40.0713749" lon="-105.229789">
  <ele>1583.0</ele>
  <time>2026-08-28T17:54:22Z</time>
  <course>0.0</course>
  <speed>0.0</speed>
  <fix>3d</fix>
</trkpt>
<trkpt lat="40.0713749" lon="-105.229789">
  <ele>1583.0</ele>
  <time>2026-08-28T17:54:22Z</time>
  <course>247.73</course>
  <speed>0.0316227766016838</speed>
  <fix>3d</fix>
</trkpt>
<trkpt lat="40.0713749" lon="-105.229789">
  <ele>1583.0</ele>
  <time>2026-08-28T17:54:22Z</time>
  <course>0.0</course>
  <speed>0.0</speed>
  <fix>3d</fix>
</trkpt>
<trkpt lat="40.0713749" lon="-105.229789">
  <ele>1583.0</ele>
  <time>2026-08-28T17:54:22Z</time>
  <course>247.73</course>
  <speed>0.0316227766016838</speed>
  <fix>3d</fix>
</trkpt>
<trkpt lat="40.0713749" lon="-105.229789">
  <ele>1583.0</ele>
  <time>2026-08-28T17:54:22Z</time>
  <course>0.0</course>
  <speed>0.0</speed>
  <fix>3d</fix>
</trkpt>
<trkpt lat="40.0713749" lon="-105.229789">
  <ele>1583.0</ele>
  <time>2026-08-28T17:54:22Z</time>
  <course>247.72</course>
  <speed>0.0316227766016838</speed>
  <fix>3d</fix>
</trkpt>
<trkpt lat="40.0713749" lon="-105.229789">
  <ele>1583.0</ele>
  <time>2026-08-28T17:54:22Z</time>
  <course>0.0</course>
  <speed>0.0</speed>
  <fix>3d</fix>
</trkpt>
<trkpt lat="40.0713749" lon="-105.229789">
  <ele>1583.0</ele>
  <time>2026-08-28T17:54:22Z</time>
  <course>247.72</course>
  <speed>0.0316227766016838</speed>
  <fix>3d</fix>
</trkpt>
<trkpt lat="40.0713749" lon="-105.229789">
  <ele>1583.0</ele>
  <time>2026-08-28T17:54:22Z</time>
  <course>0.0</course>
  <speed>0.0</speed>
  <fix>3d</fix>
</trkpt>
<trkpt lat="40.0713749" lon="-105.229789">
  <ele>1583.0</ele>
  <time>2026-08-28T17:54:22Z</time>
  <course>247.72</course>
  <speed>0.0316227766016838</speed>
  <fix>3d</fix>
</trkpt>
<trkpt lat="40.0713749" lon="-105.229789">
  <ele>1583.0</ele>
  <time>2026-08-28T17:54:22Z</time>
  <course>0.0</course>
  <speed>0.0</speed>
  <fix>3d</fix>
</trkpt>
<trkpt lat="40.0713749" lon="-105.229789">
  <ele>1583.0</ele>
  <time>2026-08-28T17:54:22Z</time>
  <course>247.71</course>
  <speed>0.0316227766016838</speed>
  <fix>3d</fix>
</trkpt>
<trkpt lat="40.0713749" lon="-105.229789">
  <ele>1583.0</ele>
  <time>2026-08-28T17:54:22Z</time>
  <course>0.0</course>
  <speed>0.0</speed>
  <fix>3d</fix>
</trkpt>
<trkpt lat="40.0713749" lon="-105.229789">
  <ele>1583.0</ele>
  <time>2026-08-28T17:54:22Z</time>
  <course>247.71</course>
  <speed>0.0316227766016838</speed>
  <fix>3d</fix>
</trkpt>
<trkpt lat="40.0713749" lon="-105.229789">
  <ele>1583.0</ele>
  <time>2026-08-28T17:54:22Z</time>
  <course>0.0</course>
  <speed>0.0</speed>
  <fix>3d</fix>
</trkpt>
<trkpt lat="40.0713749" lon="-105.229789">
  <ele>1583.0</ele>
  <time>2026-08-28T17:54:22Z</time>
  <course>247.71</course>
  <speed>0.0316227766016838</speed>
  <fix>3d</fix>
</trkpt>
<trkpt lat="40.0713749" lon="-105.229789">
  <ele>1583.0</ele>
  <time>2026-08-28T17:54:22Z</time>
  <course>0.0</course>
  <speed>0.0</speed>
  <fix>3d</fix>
</trkpt>
<trkpt lat="40.0713749" lon="-105.229789">
  <ele>1583.0</ele>
  <time>2026-08-28T17:54:22Z</time>
  <course>247.7</course>
  <speed>0.0316227766016838</speed>
  <fix>3d</fix>
</trkpt>
<trkpt lat="40.0713749" lon="-105.229789">
  <ele>1583.0</ele>
  <time>2026-08-28T17:54:22Z</time>
  <course>0.0</course>
  <speed>0.0</speed>
  <fix>3d</fix>
</trkpt>
<trkpt lat="40.0713749" lon="-105.229789">
  <ele>1583.0</ele>
  <time>2026-08-28T17:54:22Z</time>
  <course>247.7</course>
  <speed>0.0316227766016838</speed>
  <fix>3d</fix>
</trkpt>
<trkpt lat="40.0713749" lon="-105.229789">
  <ele>1583.0</ele>
  <time>2026-08-28T17:54:22Z</time>
  <course>0.0</course>
  <speed>0.0</speed>
  <fix>3d</fix>
</trkpt>
<trkpt lat="40.0713749" lon="-105.229789">
  <ele>1583.0</ele>
  <time>2026-08-28T17:54:22Z</time>
  <course>247.7</course>
  <speed>0.0316227766016838</speed>
  <fix>3d</fix>
</trkpt>
<trkpt lat="40.0713749" lon="-105.229789">
  <ele>1583.0</ele>
  <time>2026-08-28T17:54:22Z</time>
  <course>0.0</course>
  <speed>0.0</speed>
  <fix>3d</fix>
</trkpt>
<trkpt lat="40.0713749" lon="-105.229789">
  <ele>1583.0</ele>
  <time>2026-08-28T17:54:22Z</time>
  <course>247.69</course>
  <speed>0.0316227766016838</speed>
  <fix>3d</fix>
</trkpt>
<trkpt lat="40.0713749" lon="-105.229789">
  <ele>1583.0</ele>
  <time>2026-08-28T17:54:22Z</time>
  <course>0.0</course>
  <speed>0.0</speed>
  <fix>3d</fix>
</trkpt>
<trkpt lat="40.0713749" lon="-105.229789">
  <ele>1583.0</ele>
  <time>2026-08-28T17:54:22Z</time>
  <course>247.69</course>
  <speed>0.0316227766016838</speed>
  <fix>3d</fix>
</trkpt>
<trkpt lat="40.0713749" lon="-105.229789">
  <ele>1583.0</ele>
  <time>2026-08-28T17:54:22Z</time>
  <course>0.0</course>
  <speed>0.0</speed>
  <fix>3d</fix>
</trkpt>
<trkpt lat="40.0713749" lon="-105.229789">
  <ele>1583.0</ele>
  <time>2026-08-28T17:54:22Z</time>
  <course>247.69</course>
  <speed>0.0316227766016838</speed>
  <fix>3d</fix>
</trkpt>
<trkpt lat="40.0713749" lon="-105.229789">
  <ele>1583.0</ele>
  <time>2026-08-28T17:54:22Z</time>
  <course>0.0</course>
  <speed>0.0</speed>
  <fix>3d</fix>
</trkpt>
<trkpt lat="40.0713749" lon="-105.229789">
  <ele>1583.0</ele>
  <time>2026-08-28T17:54:22Z</time>
  <course>247.68</course>
  <speed>0.0316227766016838</speed>
  <fix>3d</fix>
</trkpt>
<trkpt lat="40.0713749" lon="-105.229789">
  <ele>1583.0</ele>
  <time>2026-08-28T17:54:22Z</time>
  <course>0.0</course>
  <speed>0.0</speed>
  <fix>3d</fix>
</trkpt>
<trkpt lat="40.0713749" lon="-105.229789">
  <ele>1583.0</ele>
  <time>2026-08-28T17:54:22Z</time>
  <course>247.68</course>
  <speed>0.0316227766016838</speed>
  <fix>3d</fix>
</trkpt>
<trkpt lat="40.0713749" lon="-105.229789">
  <ele>1583.0</ele>
  <time>2026-08-28T17:54:22Z</time>
  <course>0.0</course>
  <speed>0.0</speed>
  <fix>3d</fix>
</trkpt>
<trkpt lat="40.0713749" lon="-105.229789">
  <ele>1583.0</ele>
  <time>2026-08-28T17:54:22Z</time>
  <course>247.68</course>
  <speed>0.0316227766016838</speed>
  <fix>3d</fix>
</trkpt>
<trkpt lat="40.0713749" lon="-105.229789">
  <ele>1583.0</ele>
  <time>2026-08-28T17:54:22Z</time>
  <course>0.0</course>
  <speed>0.0</speed>
  <fix>3d</fix>
</trkpt>
<trkpt lat="40.0713749" lon="-105.229789">
  <ele>1583.0</ele>
  <time>2026-08-28T17:54:22Z</time>
  <course>247.67</course>
  <speed>0.0316227766016838</speed>
  <fix>3d</fix>
</trkpt>
<trkpt lat="40.0713749" lon="-105.229789">
  <ele>1583.0</ele>
  <time>2026-08-28T17:54:22Z</time>
  <course>0.0</course>
  <speed>0.0</speed>
  <fix>3d</fix>
</trkpt>
<trkpt lat="40.0713749" lon="-105.229789">
  <ele>1583.0</ele>
  <time>2026-08-28T17:54:22Z</time>
  <course>247.67</course>
  <speed>0.0316227766016838</speed>
  <fix>3d</fix>
</trkpt>
<trkpt lat="40.0713749" lon="-105.229789">
  <ele>1583.0</ele>
  <time>2026-08-28T17:54:22Z</time>
  <course>0.0</course>
  <speed>0.0</speed>
  <fix>3d</fix>
</trkpt>
<trkpt lat="40.0713749" lon="-105.229789">
  <ele>1583.0</ele>
  <time>2026-08-28T17:54:22Z</time>
  <course>247.67</course>
  <speed>0.0316227766016838</speed>
  <fix>3d</fix>
</trkpt>
<trkpt lat="40.0713749" lon="-105.229789">
  <ele>1583.0</ele>
  <time>2026-08-28T17:54:22Z</time>
  <course>0.0</course>
  <speed>0.0</speed>
  <fix>3d</fix>
</trkpt>
<trkpt lat="40.0713749" lon="-105.229789">
  <ele>1583.0</ele>
  <time>2026-08-28T17:54:22Z</time>
  <course>247.66</course>
  <speed>0.0316227766016838</speed>
  <fix>3d</fix>
</trkpt>
<trkpt lat="40.0713749" lon="-105.229789">
  <ele>1583.0</ele>
  <time>2026-08-28T17:54:22Z</time>
  <course>0.0</course>
  <speed>0.0</speed>
  <fix>3d</fix>
</trkpt>
<trkpt lat="40.0713749" lon="-105.229789">
  <ele>1583.0</ele>
  <time>2026-08-28T17:54:22Z</time>
  <course>247.66</course>
  <speed>0.0316227766016838</speed>
  <fix>3d</fix>
</trkpt>
<trkpt lat="40.0713749" lon="-105.229789">
  <ele>1583.0</ele>
  <time>2026-08-28T17:54:22Z</time>
  <course>0.0</course>
  <speed>0.0</speed>
  <fix>3d</fix>
</trkpt>
<trkpt lat="40.0713749" lon="-105.229789">
  <ele>1583.0</ele>
  <time>2026-08-28T17:54:22Z</time>
  <course>247.66</course>
  <speed>0.0316227766016838</speed>
  <fix>3d</fix>
</trkpt>
<trkpt lat="40.0713749" lon="-105.229789">
  <ele>1583.0</ele>
  <time>2026-08-28T17:54:22Z</time>
  <course>0.0</course>
  <speed>0.0</speed>
  <fix>3d</fix>
</trkpt>
<trkpt lat="40.0713749" lon="-105.229789">
  <ele>1583.0</ele>
  <time>2026-08-28T17:54:22Z</time>
  <course>247.65</course>
  <speed>0.0316227766016838</speed>
  <fix>3d</fix>
</trkpt>
<trkpt lat="40.0713749" lon="-105.229789">
  <ele>1583.0</ele>
  <time>2026-08-28T17:54:22Z</time>
  <course>0.0</course>
  <speed>0.0</speed>
  <fix>3d</fix>
</trkpt>
<trkpt lat="40.0713749" lon="-105.229789">
  <ele>1583.0</ele>
  <time>2026-08-28T17:54:22Z</time>
  <course>247.65</course>
  <speed>0.0316227766016838</speed>
  <fix>3d</fix>
</trkpt>
<trkpt lat="40.0713749" lon="-105.229789">
  <ele>1583.0</ele>
  <time>2026-08-28T17:54:22Z</time>
  <course>0.0</course>
  <speed>0.0</speed>
  <fix>3d</fix>
</trkpt>
<trkpt lat="40.0713749" lon="-105.229789">
  <ele>1583.0</ele>
  <time>2026-08-28T17:54:22Z</time>
  <course>247.65</course>
  <speed>0.0316227766016838</speed>
  <fix>3d</fix>
</trkpt>
<trkpt lat="40.0713749" lon="-105.229789">
  <ele>1583.0</ele>
  <time>2026-08-28T17:54:22Z</time>
  <course>0.0</course>
  <speed>0.0</speed>
  <fix>3d</fix>
</trkpt>
<trkpt lat="40.0713749" lon="-105.229789">
  <ele>1583.0</ele>
  <time>2026-08-28T17:54:22Z</time>
  <course>247.64</course>
  <speed>0.0316227766016838</speed>
  <fix>3d</fix>
</trkpt>
<trkpt lat="40.0713749" lon="-105.229789">
  <ele>1583.0</ele>
  <time>2026-08-28T17:54:22Z</time>
  <course>0.0</course>
  <speed>0.0</speed>
  <fix>3d</fix>
</trkpt>
<trkpt lat="40.0713749" lon="-105.229789">
  <ele>1583.0</ele>
  <time>2026-08-28T17:54:22Z</time>
  <course>247.64</course>
  <speed>0.0316227766016838</speed>
  <fix>3d</fix>
</trkpt>
<trkpt lat="40.0713749" lon="-105.229789">
  <ele>1583.0</ele>
  <time>2026-08-28T17:54:22Z</time>
  <course>0.0</course>
  <speed>0.0</speed>
  <fix>3d</fix>
</trkpt>
<trkpt lat="40.0713749" lon="-105.229789">
  <ele>1583.0</ele>
  <time>2026-08-28T17:54:22Z</time>
  <course>247.64</course>
  <speed>0.0316227766016838</speed>
  <fix>3d</fix>
</trkpt>
<trkpt lat="40.0713749" lon="-105.229789">
  <ele>1583.0</ele>
  <time>2026-08-28T17:54:22Z</time>
  <course>0.0</course>
  <speed>0.0</speed>
  <fix>3d</fix>
</trkpt>
<trkpt lat="40.0713749" lon="-105.229789">
  <ele>1583.0</ele>
  <time>2026-08-28T17:54:22Z</time>
  <course>247.64</course>
  <speed>0.0316227766016838</speed>
  <fix>3d</fix>
</trkpt>
<trkpt lat="40.0713749" lon="-105.229789">
  <ele>1583.0</ele>
  <time>2026-08-28T17:54:22Z</time>
  <course>0.0</course>
  <speed>0.0</speed>
  <fix>3d</fix>
</trkpt>
<trkpt lat="40.0713749" lon="-105.229789">
  <ele>1583.0</ele>
  <time>2026-08-28T17:54:22Z</time>
  <course>247.63</course>
  <speed>0.0316227766016838</speed>
  <fix>3d</fix>
</trkpt>
<trkpt lat="40.0713749" lon="-105.229789">
  <ele>1583.0</ele>
  <time>2026-08-28T17:54:22Z</time>
  <course>0.0</course>
  <speed>0.0</speed>
  <fix>3d</fix>
</trkpt>
<trkpt lat="40.0713749" lon="-105.229789">
  <ele>1583.0</ele>
  <time>2026-08-28T17:54:22Z</time>
  <course>247.63</course>
  <speed>0.0316227766016838</speed>
  <fix>3d</fix>
</trkpt>
<trkpt lat="40.0713749" lon="-105.229789">
  <ele>1583.0</ele>
  <time>2026-08-28T17:54:22Z</time>
  <course>0.0</course>
  <speed>0.0</speed>
  <fix>3d</fix>
</trkpt>
<trkpt lat="40.0713749" lon="-105.229789">
  <ele>1583.0</ele>
  <time>2026-08-28T17:54:22Z</time>
  <course>247.63</course>
  <speed>0.0316227766016838</speed>
  <fix>3d</fix>
</trkpt>
<trkpt lat="40.0713749" lon="-105.229789">
  <ele>1583.0</ele>
  <time>2026-08-28T17:54:22Z</time>
  <course>0.0</course>
  <speed>0.0</speed>
  <fix>3d</fix>
</trkpt>
<trkpt lat="40.0713749" lon="-105.229789">
  <ele>1583.0</ele>
  <time>2026-08-28T17:54:22Z</time>
  <course>247.62</course>
  <speed>0.0316227766016838</speed>
  <fix>3d</fix>
</trkpt>
<trkpt lat="40.0713749" lon="-105.229789">
  <ele>1583.0</ele>
  <time>2026-08-28T17:54:22Z</time>
  <course>0.0</course>
  <speed>0.0</speed>
  <fix>3d</fix>
</trkpt>
<trkpt lat="40.0713749" lon="-105.229789">
  <ele>1583.0</ele>
  <time>2026-08-28T17:54:22Z</time>
  <course>247.62</course>
  <speed>0.0316227766016838</speed>
  <fix>3d</fix>
</trkpt>
<trkpt lat="40.0713749" lon="-105.229789">
  <ele>1583.0</ele>
  <time>2026-08-28T17:54:22Z</time>
  <course>0.0</course>
  <speed>0.0</speed>
  <fix>3d</fix>
</trkpt>
<trkpt lat="40.0713749" lon="-105.229789">
  <ele>1583.0</ele>
  <time>2026-08-28T17:54:22Z</time>
  <course>247.62</course>
  <speed>0.0316227766016838</speed>
  <fix>3d</fix>
</trkpt>
<trkpt lat="40.0713749" lon="-105.229789">
  <ele>1583.0</ele>
  <time>2026-08-28T17:54:22Z</time>
  <course>0.0</course>
  <speed>0.0</speed>
  <fix>3d</fix>
</trkpt>
<trkpt lat="40.0713749" lon="-105.229789">
  <ele>1583.0</ele>
  <time>2026-08-28T17:54:22Z</time>
  <course>247.62</course>
  <speed>0.0316227766016838</speed>
  <fix>3d</fix>
</trkpt>
<trkpt lat="40.0713749" lon="-105.229789">
  <ele>1583.0</ele>
  <time>2026-08-28T17:54:22Z</time>
  <course>0.0</course>
  <speed>0.0</speed>
  <fix>3d</fix>
</trkpt>
<trkpt lat="40.0713749" lon="-105.229789">
  <ele>1583.0</ele>
  <time>2026-08-28T17:54:22Z</time>
  <course>247.61</course>
  <speed>0.0316227766016838</speed>
  <fix>3d</fix>
</trkpt>
<trkpt lat="40.0713749" lon="-105.229789">
  <ele>1583.0</ele>
  <time>2026-08-28T17:54:22Z</time>
  <course>0.0</course>
  <speed>0.0</speed>
  <fix>3d</fix>
</trkpt>
<trkpt lat="40.0713749" lon="-105.229789">
  <ele>1583.0</ele>
  <time>2026-08-28T17:54:22Z</time>
  <course>247.61</course>
  <speed>0.0316227766016838</speed>
  <fix>3d</fix>
</trkpt>
<trkpt lat="40.0713749" lon="-105.229789">
  <ele>1583.0</ele>
  <time>2026-08-28T17:54:22Z</time>
  <course>0.0</course>
  <speed>0.0</speed>
  <fix>3d</fix>
</trkpt>
<trkpt lat="40.0713749" lon="-105.229789">
  <ele>1583.0</ele>
  <time>2026-08-28T17:54:22Z</time>
  <course>247.61</course>
  <speed>0.0316227766016838</speed>
  <fix>3d</fix>
</trkpt>
<trkpt lat="40.0713749" lon="-105.229789">
  <ele>1583.0</ele>
  <time>2026-08-28T17:54:22Z</time>
  <course>0.0</course>
  <speed>0.0</speed>
  <fix>3d</fix>
</trkpt>
<trkpt lat="40.0713749" lon="-105.229789">
  <ele>1583.0</ele>
  <time>2026-08-28T17:54:22Z</time>
  <course>247.6</course>
  <speed>0.0316227766016838</speed>
  <fix>3d</fix>
</trkpt>
<trkpt lat="40.0713749" lon="-105.229789">
  <ele>1583.0</ele>
  <time>2026-08-28T17:54:22Z</time>
  <course>0.0</course>
  <speed>0.0</speed>
  <fix>3d</fix>
</trkpt>
<trkpt lat="40.0713749" lon="-105.229789">
  <ele>1583.0</ele>
  <time>2026-08-28T17:54:22Z</time>
  <course>247.6</course>
  <speed>0.0316227766016838</speed>
  <fix>3d</fix>
</trkpt>
<trkpt lat="40.0713749" lon="-105.229789">
  <ele>1583.0</ele>
  <time>2026-08-28T17:54:22Z</time>
  <course>0.0</course>
  <speed>0.0</speed>
  <fix>3d</fix>
</trkpt>
<trkpt lat="40.0713749" lon="-105.229789">
  <ele>1583.0</ele>
  <time>2026-08-28T17:54:22Z</time>
  <course>247.6</course>
  <speed>0.0316227766016838</speed>
  <fix>3d</fix>
</trkpt>
<trkpt lat="40.0713749" lon="-105.229789">
  <ele>1583.0</ele>
  <time>2026-08-28T17:54:22Z</time>
  <course>0.0</course>
  <speed>0.0</speed>
  <fix>3d</fix>
</trkpt>
<trkpt lat="40.0713749" lon="-105.229789">
  <ele>1583.0</ele>
  <time>2026-08-28T17:54:22Z</time>
  <course>247.6</course>
  <speed>0.0316227766016838</speed>
  <fix>3d</fix>
</trkpt>
<trkpt lat="40.0713749" lon="-105.229789">
  <ele>1583.0</ele>
  <time>2026-08-28T17:54:22Z</time>
  <course>0.0</course>
  <speed>0.0</speed>
  <fix>3d</fix>
</trkpt>
<trkpt lat="40.0713749" lon="-105.229789">
  <ele>1583.0</ele>
  <time>2026-08-28T17:54:22Z</time>
  <course>247.59</course>
  <speed>0.0316227766016838</speed>
  <fix>3d</fix>
</trkpt>
<trkpt lat="40.0713749" lon="-105.229789">
  <ele>1583.0</ele>
  <time>2026-08-28T17:54:22Z</time>
  <course>0.0</course>
  <speed>0.0</speed>
  <fix>3d</fix>
</trkpt>
<trkpt lat="40.0713749" lon="-105.229789">
  <ele>1582.92</ele>
  <time>2026-08-28T17:54:22Z</time>
  <course>247.59</course>
  <speed>0.0</speed>
  <fix>3d</fix>
</trkpt>
<trkpt lat="40.0713749" lon="-105.229789">
  <ele>1583.0</ele>
  <time>2026-08-28T17:54:22Z</time>
  <course>0.0</course>
  <speed>0.0</speed>
  <fix>3d</fix>
</trkpt>
<trkpt lat="40.0713749" lon="-105.229789">
  <ele>1582.92</ele>
  <time>2026-08-28T17:54:22Z</time>
  <course>247.59</course>
  <speed>0.0</speed>
  <fix>3d</fix>
</trkpt>
<trkpt lat="40.0713749" lon="-105.229789">
  <ele>1583.0</ele>
  <time>2026-08-28T17:54:22Z</time>
  <course>0.0</course>
  <speed>0.0</speed>
  <fix>3d</fix>
</trkpt>
<trkpt lat="40.0713749" lon="-105.229789">
  <ele>1582.91</ele>
  <time>2026-08-28T17:54:22Z</time>
  <course>247.58</course>
  <speed>0.0</speed>
  <fix>3d</fix>
</trkpt>
<trkpt lat="40.0713749" lon="-105.229789">
  <ele>1583.0</ele>
  <time>2026-08-28T17:54:22Z</time>
  <course>0.0</course>
  <speed>0.0</speed>
  <fix>3d</fix>
</trkpt>
<trkpt lat="40.0713749" lon="-105.229789">
  <ele>1582.91</ele>
  <time>2026-08-28T17:54:22Z</time>
  <course>247.58</course>
  <speed>0.0</speed>
  <fix>3d</fix>
</trkpt>
<trkpt lat="40.0713749" lon="-105.229789">
  <ele>1583.0</ele>
  <time>2026-08-28T17:54:22Z</time>
  <course>0.0</course>
  <speed>0.0</speed>
  <fix>3d</fix>
</trkpt>
<trkpt lat="40.0713749" lon="-105.229789">
  <ele>1582.9</ele>
  <time>2026-08-28T17:54:22Z</time>
  <course>247.58</course>
  <speed>0.0</speed>
  <fix>3d</fix>
</trkpt>
<trkpt lat="40.0713749" lon="-105.229789">
  <ele>1583.0</ele>
  <time>2026-08-28T17:54:22Z</time>
  <course>0.0</course>
  <speed>0.0</speed>
  <fix>3d</fix>
</trkpt>
<trkpt lat="40.0713749" lon="-105.229789">
  <ele>1582.9</ele>
  <time>2026-08-28T17:54:22Z</time>
  <course>247.58</course>
  <speed>0.0</speed>
  <fix>3d</fix>
</trkpt>
<trkpt lat="40.0713749" lon="-105.229789">
  <ele>1583.0</ele>
  <time>2026-08-28T17:54:22Z</time>
  <course>0.0</course>
  <speed>0.0</speed>
  <fix>3d</fix>
</trkpt>
<trkpt lat="40.0713749" lon="-105.229789">
  <ele>1582.9</ele>
  <time>2026-08-28T17:54:22Z</time>
  <course>247.57</course>
  <speed>0.0</speed>
  <fix>3d</fix>
</trkpt>
<trkpt lat="40.0713749" lon="-105.229789">
  <ele>1583.0</ele>
  <time>2026-08-28T17:54:22Z</time>
  <course>0.0</course>
  <speed>0.0</speed>
  <fix>3d</fix>
</trkpt>
<trkpt lat="40.0713749" lon="-105.229789">
  <ele>1582.9</ele>
  <time>2026-08-28T17:54:22Z</time>
  <course>247.57</course>
  <speed>0.0</speed>
  <fix>3d</fix>
</trkpt>
<trkpt lat="40.0713749" lon="-105.229789">
  <ele>1583.0</ele>
  <time>2026-08-28T17:54:22Z</time>
  <course>0.0</course>
  <speed>0.0</speed>
  <fix>3d</fix>
</trkpt>
<trkpt lat="40.0713749" lon="-105.229789">
  <ele>1582.9</ele>
  <time>2026-08-28T17:54:22Z</time>
  <course>247.57</course>
  <speed>0.0</speed>
  <fix>3d</fix>
</trkpt>
<trkpt lat="40.0713749" lon="-105.229789">
  <ele>1583.0</ele>
  <time>2026-08-28T17:54:22Z</time>
  <course>0.0</course>
  <speed>0.0</speed>
  <fix>3d</fix>
</trkpt>
<trkpt lat="40.0713749" lon="-105.229789">
  <ele>1582.9</ele>
  <time>2026-08-28T17:54:22Z</time>
  <course>247.57</course>
  <speed>0.01</speed>
  <fix>3d</fix>
</trkpt>
<trkpt lat="40.0713749" lon="-105.229789">
  <ele>1583.0</ele>
  <time>2026-08-28T17:54:22Z</time>
  <course>0.0</course>
  <speed>0.0</speed>
  <fix>3d</fix>
</trkpt>
<trkpt lat="40.0713749" lon="-105.229789">
  <ele>1582.9</ele>
  <time>2026-08-28T17:54:22Z</time>
  <course>247.56</course>
  <speed>0.01</speed>
  <fix>3d</fix>
</trkpt>
<trkpt lat="40.0713749" lon="-105.229789">
  <ele>1583.0</ele>
  <time>2026-08-28T17:54:22Z</time>
  <course>0.0</course>
  <speed>0.0</speed>
  <fix>3d</fix>
</trkpt>
<trkpt lat="40.0713749" lon="-105.229789">
  <ele>1582.91</ele>
  <time>2026-08-28T17:54:22Z</time>
  <course>247.56</course>
  <speed>0.01</speed>
  <fix>3d</fix>
</trkpt>
<trkpt lat="40.0713749" lon="-105.229789">
  <ele>1583.0</ele>
  <time>2026-08-28T17:54:22Z</time>
  <course>0.0</course>
  <speed>0.0</speed>
  <fix>3d</fix>
</trkpt>
<trkpt lat="40.0713749" lon="-105.229789">
  <ele>1582.91</ele>
  <time>2026-08-28T17:54:22Z</time>
  <course>247.56</course>
  <speed>0.01</speed>
  <fix>3d</fix>
</trkpt>
<trkpt lat="40.0713749" lon="-105.229789">
  <ele>1582.91</ele>
  <time>2026-08-28T17:54:22Z</time>
  <course>247.56</course>
  <speed>0.01</speed>
  <fix>3d</fix>
</trkpt>
<trkpt lat="40.0713749" lon="-105.229789">
  <ele>1583.0</ele>
  <time>2026-08-28T17:54:22Z</time>
  <course>0.0</course>
  <speed>0.0</speed>
  <fix>3d</fix>
</trkpt>
<trkpt lat="40.0713749" lon="-105.229789">
  <ele>1582.92</ele>
  <time>2026-08-28T17:54:22Z</time>
  <course>247.56</course>
  <speed>0.01</speed>
  <fix>3d</fix>
</trkpt>
<trkpt lat="40.0713749" lon="-105.229789">
  <ele>1583.0</ele>
  <time>2026-08-28T17:54:22Z</time>
  <course>245.99</course>
  <speed>0.0</speed>
  <fix>3d</fix>
</trkpt>
<trkpt lat="40.0713749" lon="-105.229789">
  <ele>1582.92</ele>
  <time>2026-08-28T17:54:22Z</time>
  <course>247.55</course>
  <speed>0.01</speed>
  <fix>3d</fix>
</trkpt>
<trkpt lat="40.0713749" lon="-105.229789">
  <ele>1583.0</ele>
  <time>2026-08-28T17:54:22Z</time>
  <course>245.99</course>
  <speed>0.0</speed>
  <fix>3d</fix>
</trkpt>
<trkpt lat="40.0713749" lon="-105.229789">
  <ele>1582.92</ele>
  <time>2026-08-28T17:54:22Z</time>
  <course>247.53</course>
  <speed>0.01</speed>
  <fix>3d</fix>
</trkpt>
<trkpt lat="40.0713749" lon="-105.229789">
  <ele>1583.0</ele>
  <time>2026-08-28T17:54:22Z</time>
  <course>245.99</course>
  <speed>0.0</speed>
  <fix>3d</fix>
</trkpt>
<trkpt lat="40.0713749" lon="-105.229789">
  <ele>1582.93</ele>
  <time>2026-08-28T17:54:22Z</time>
  <course>247.56</course>
  <speed>0.01</speed>
  <fix>3d</fix>
</trkpt>
<trkpt lat="40.0713749" lon="-105.229789">
  <ele>1583.0</ele>
  <time>2026-08-28T17:54:22Z</time>
  <course>245.98</course>
  <speed>0.0</speed>
  <fix>3d</fix>
</trkpt>
<trkpt lat="40.0713749" lon="-105.229789">
  <ele>1582.93</ele>
  <time>2026-08-28T17:54:22Z</time>
  <course>247.65</course>
  <speed>0.02</speed>
  <fix>3d</fix>
</trkpt>
<trkpt lat="40.0713749" lon="-105.229789">
  <ele>1583.0</ele>
  <time>2026-08-28T17:54:22Z</time>
  <course>245.98</course>
  <speed>0.0</speed>
  <fix>3d</fix>
</trkpt>
<trkpt lat="40.0713749" lon="-105.229789">
  <ele>1582.93</ele>
  <time>2026-08-28T17:54:22Z</time>
  <course>247.84</course>
  <speed>0.05</speed>
  <fix>3d</fix>
</trkpt>
<trkpt lat="40.0713749" lon="-105.229789">
  <ele>1583.0</ele>
  <time>2026-08-28T17:54:22Z</time>
  <course>246.07</course>
  <speed>0.02</speed>
  <fix>3d</fix>
</trkpt>
<trkpt lat="40.0713749" lon="-105.2297891">
  <ele>1582.93</ele>
  <time>2026-08-28T17:54:22Z</time>
  <course>248.21</course>
  <speed>0.08062257748298549</speed>
  <fix>3d</fix>
</trkpt>
<trkpt lat="40.0713749" lon="-105.229789">
  <ele>1583.0</ele>
  <time>2026-08-28T17:54:22Z</time>
  <course>246.07</course>
  <speed>0.02</speed>
  <fix>3d</fix>
</trkpt>
<trkpt lat="40.0713749" lon="-105.2297893">
  <ele>1582.94</ele>
  <time>2026-08-28T17:54:22Z</time>
  <course>248.83</course>
  <speed>0.12369316876852982</speed>
  <fix>3d</fix>
</trkpt>
<trkpt lat="40.0713749" lon="-105.2297891">
  <ele>1583.0</ele>
  <time>2026-08-28T17:54:22Z</time>
  <course>246.5</course>
  <speed>0.06</speed>
  <fix>3d</fix>
</trkpt>
<trkpt lat="40.0713749" lon="-105.2297894">
  <ele>1582.94</ele>
  <time>2026-08-28T17:54:22Z</time>
  <course>249.85</course>
  <speed>0.17464249196572978</speed>
  <fix>3d</fix>
</trkpt>
<trkpt lat="40.0713749" lon="-105.2297893">
  <ele>1583.0</ele>
  <time>2026-08-28T17:54:22Z</time>
  <course>247.76</course>
  <speed>0.14</speed>
  <fix>3d</fix>
</trkpt>
<trkpt lat="40.0713748" lon="-105.2297897">
  <ele>1582.94</ele>
  <time>2026-08-28T17:54:22Z</time>
  <course>251.25</course>
  <speed>0.23769728648009425</speed>
  <fix>3d</fix>
</trkpt>
<trkpt lat="40.0713749" lon="-105.2297893">
  <ele>1583.0</ele>
  <time>2026-08-28T17:54:22Z</time>
  <course>247.76</course>
  <speed>0.14</speed>
  <fix>3d</fix>
</trkpt>
<trkpt lat="40.0713747" lon="-105.22979">
  <ele>1582.95</ele>
  <time>2026-08-28T17:54:22Z</time>
  <course>253.08</course>
  <speed>0.3080584360149873</speed>
  <fix>3d</fix>
</trkpt>
<trkpt lat="40.0713748" lon="-105.2297897">
  <ele>1583.0</ele>
  <time>2026-08-28T17:54:22Z</time>
  <course>250.37</course>
  <speed>0.25</speed>
  <fix>3d</fix>
</trkpt>
<trkpt lat="40.0713746" lon="-105.2297905">
  <ele>1582.95</ele>
  <time>2026-08-28T17:54:22Z</time>
  <course>255.41</course>
  <speed>0.39812058474788764</speed>
  <fix>3d</fix>
</trkpt>
<trkpt lat="40.0713748" lon="-105.2297897">
  <ele>1583.0</ele>
  <time>2026-08-28T17:54:22Z</time>
  <course>250.37</course>
  <speed>0.25</speed>
  <fix>3d</fix>
</trkpt>
<trkpt lat="40.0713746" lon="-105.229791">
  <ele>1582.95</ele>
  <time>2026-08-28T17:54:22Z</time>
  <course>258.31</course>
  <speed>0.49648766349225637</speed>
  <fix>3d</fix>
</trkpt>
<trkpt lat="40.0713746" lon="-105.2297904">
  <ele>1583.0</ele>
  <time>2026-08-28T17:54:22Z</time>
  <course>254.76</course>
  <speed>0.41</speed>
  <fix>3d</fix>
</trkpt>
<trkpt lat="40.0713745" lon="-105.2297917">
  <ele>1582.96</ele>
  <time>2026-08-28T17:54:22Z</time>
  <course>261.84</course>
  <speed>0.6029925372672534</speed>
  <fix>3d</fix>
</trkpt>
<trkpt lat="40.0713746" lon="-105.2297904">
  <ele>1583.0</ele>
  <time>2026-08-28T17:54:22Z</time>
  <course>254.76</course>
  <speed>0.41</speed>
  <fix>3d</fix>
</trkpt>
<trkpt lat="40.0713744" lon="-105.2297925">
  <ele>1582.96</ele>
  <time>2026-08-28T17:54:22Z</time>
  <course>266.03</course>
  <speed>0.7206247289678588</speed>
  <fix>3d</fix>
</trkpt>
<trkpt lat="40.0713743" lon="-105.2297916">
  <ele>1583.0</ele>
  <time>2026-08-28T17:54:22Z</time>
  <course>261.36</course>
  <speed>0.6</speed>
  <fix>3d</fix>
</trkpt>
<trkpt lat="40.0713744" lon="-105.2297934">
  <ele>1582.96</ele>
  <time>2026-08-28T17:54:22Z</time>
  <course>270.97</course>
  <speed>0.840535543567314</speed>
  <fix>3d</fix>
</trkpt>
<trkpt lat="40.0713743" lon="-105.2297916">
  <ele>1583.0</ele>
  <time>2026-08-28T17:54:22Z</time>
  <course>261.36</course>
  <speed>0.6</speed>
  <fix>3d</fix>
</trkpt>
<trkpt lat="40.0713744" lon="-105.2297945">
  <ele>1582.96</ele>
  <time>2026-08-28T17:54:22Z</time>
  <course>276.61</course>
  <speed>0.9575489543621255</speed>
  <fix>3d</fix>
</trkpt>
<trkpt lat="40.0713742" lon="-105.2297933">
  <ele>1583.0</ele>
  <time>2026-08-28T17:54:22Z</time>
  <course>270.59</course>
  <speed>0.82</speed>
  <fix>3d</fix>
</trkpt>
<trkpt lat="40.0713745" lon="-105.2297958">
  <ele>1582.96</ele>
  <time>2026-08-28T17:54:22Z</time>
  <course>283.0</course>
  <speed>1.0817116066678771</speed>
  <fix>3d</fix>
</trkpt>
<trkpt lat="40.0713742" lon="-105.2297933">
  <ele>1583.0</ele>
  <time>2026-08-28T17:54:22Z</time>
  <course>270.59</course>
  <speed>0.82</speed>
  <fix>3d</fix>
</trkpt>
<trkpt lat="40.0713748" lon="-105.2297971">
  <ele>1582.96</ele>
  <time>2026-08-28T17:54:22Z</time>
  <course>290.16</course>
  <speed>1.2090492132250035</speed>
  <fix>3d</fix>
</trkpt>
<trkpt lat="40.0713744" lon="-105.2297955">
  <ele>1583.0</ele>
  <time>2026-08-28T17:54:22Z</time>
  <course>282.69</course>
  <speed>1.06</speed>
  <fix>3d</fix>
</trkpt>
<trkpt lat="40.0713753" lon="-105.2297985">
  <ele>1582.95</ele>
  <time>2026-08-28T17:54:22Z</time>
  <course>298.08</course>
  <speed>1.3423859355639869</speed>
  <fix>3d</fix>
</trkpt>
<trkpt lat="40.0713744" lon="-105.2297955">
  <ele>1583.0</ele>
  <time>2026-08-28T17:54:22Z</time>
  <course>282.69</course>
  <speed>1.06</speed>
  <fix>3d</fix>
</trkpt>
<trkpt lat="40.071376" lon="-105.2297999">
  <ele>1582.95</ele>
  <time>2026-08-28T17:54:22Z</time>
  <course>305.81</course>
  <speed>1.4660491124106312</speed>
  <fix>3d</fix>
</trkpt>
<trkpt lat="40.0713751" lon="-105.2297981">
  <ele>1583.0</ele>
  <time>2026-08-28T17:54:22Z</time>
  <course>297.28</course>
  <speed>1.3</speed>
  <fix>3d</fix>
</trkpt>
<trkpt lat="40.0713769" lon="-105.2298013">
  <ele>1582.95</ele>
  <time>2026-08-28T17:54:22Z</time>
  <course>313.05</course>
  <speed>1.5844872987815333</speed>
  <fix>3d</fix>
</trkpt>
<trkpt lat="40.0713751" lon="-105.2297981">
  <ele>1583.0</ele>
  <time>2026-08-28T17:54:22Z</time>
  <course>297.28</course>
  <speed>1.3</speed>
  <fix>3d</fix>
</trkpt>
<trkpt lat="40.0713779" lon="-105.2298026">
  <ele>1582.95</ele>
  <time>2026-08-28T17:54:22Z</time>
  <course>319.99</course>
  <speed>1.6977926846349645</speed>
  <fix>3d</fix>
</trkpt>
<trkpt lat="40.0713751" lon="-105.2297981">
  <ele>1583.0</ele>
  <time>2026-08-28T17:54:22Z</time>
  <course>297.28</course>
  <speed>1.3</speed>
  <fix>3d</fix>
</trkpt>
<trkpt lat="40.0713792" lon="-105.2298038">
  <ele>1582.95</ele>
  <time>2026-08-28T17:54:22Z</time>
  <course>326.46</course>
  <speed>1.7833956375409243</speed>
  <fix>3d</fix>
</trkpt>
<trkpt lat="40.0713766" lon="-105.2298008">
  <ele>1583.0</ele>
  <time>2026-08-28T17:54:22Z</time>
  <course>312.01</course>
  <speed>1.53</speed>
  <fix>3d</fix>
</trkpt>
<trkpt lat="40.0713806" lon="-105.2298049">
  <ele>1582.95</ele>
  <time>2026-08-28T17:54:22Z</time>
  <course>332.14</course>
  <speed>1.8606719216455112</speed>
  <fix>3d</fix>
</trkpt>
<trkpt lat="40.0713766" lon="-105.2298008">
  <ele>1583.0</ele>
  <time>2026-08-28T17:54:22Z</time>
  <course>312.01</course>
  <speed>1.53</speed>
  <fix>3d</fix>
</trkpt>
<trkpt lat="40.0713821" lon="-105.2298058">
  <ele>1582.95</ele>
  <time>2026-08-28T17:54:22Z</time>
  <course>336.98</course>
  <speed>1.9407730418572904</speed>
  <fix>3d</fix>
</trkpt>
<trkpt lat="40.0713788" lon="-105.2298034">
  <ele>1583.0</ele>
  <time>2026-08-28T17:54:22Z</time>
  <course>324.98</course>
  <speed>1.73</speed>
  <fix>3d</fix>
</trkpt>
<trkpt lat="40.0713838" lon="-105.2298066">
  <ele>1582.95</ele>
  <time>2026-08-28T17:54:22Z</time>
  <course>341.11</course>
  <speed>2.0270421801235416</speed>
  <fix>3d</fix>
</trkpt>
<trkpt lat="40.0713788" lon="-105.2298034">
  <ele>1583.0</ele>
  <time>2026-08-28T17:54:22Z</time>
  <course>324.98</course>
  <speed>1.73</speed>
  <fix>3d</fix>
</trkpt>
<trkpt lat="40.0713855" lon="-105.2298073">
  <ele>1582.95</ele>
  <time>2026-08-28T17:54:22Z</time>
  <course>344.61</course>
  <speed>2.112841688342977</speed>
  <fix>3d</fix>
</trkpt>
<trkpt lat="40.0713816" lon="-105.2298055">
  <ele>1583.0</ele>
  <time>2026-08-28T17:54:22Z</time>
  <course>335.44</course>
  <speed>1.9</speed>
  <fix>3d</fix>
</trkpt>
<trkpt lat="40.0713874" lon="-105.2298079">
  <ele>1582.95</ele>
  <time>2026-08-28T17:54:22Z</time>
  <course>347.59</course>
  <speed>2.200772591614136</speed>
  <fix>3d</fix>
</trkpt>
<trkpt lat="40.0713816" lon="-105.2298055">
  <ele>1583.0</ele>
  <time>2026-08-28T17:54:22Z</time>
  <course>335.44</course>
  <speed>1.9</speed>
  <fix>3d</fix>
</trkpt>
<trkpt lat="40.0713893" lon="-105.2298084">
  <ele>1582.95</ele>
  <time>2026-08-28T17:54:22Z</time>
  <course>350.13</course>
  <speed>2.283549868078208</speed>
  <fix>3d</fix>
</trkpt>
<trkpt lat="40.071385" lon="-105.229807">
  <ele>1583.0</ele>
  <time>2026-08-28T17:54:22Z</time>
  <course>343.11</course>
  <speed>2.07</speed>
  <fix>3d</fix>
</trkpt>
<trkpt lat="40.0713914" lon="-105.2298088">
  <ele>1582.95</ele>
  <time>2026-08-28T17:54:22Z</time>
  <course>352.28</course>
  <speed>2.3815961034566713</speed>
  <fix>3d</fix>
</trkpt>
<trkpt lat="40.0713887" lon="-105.2298083">
  <ele>1583.0</ele>
  <time>2026-08-28T17:54:22Z</time>
  <course>348.65</course>
  <speed>2.24</speed>
  <fix>3d</fix>
</trkpt>
<trkpt lat="40.0713935" lon="-105.2298092">
  <ele>1582.96</ele>
  <time>2026-08-28T17:54:22Z</time>
  <course>354.1</course>
  <speed>2.4737016796695595</speed>
  <fix>3d</fix>
</trkpt>
<trkpt lat="40.0713887" lon="-105.2298083">
  <ele>1583.0</ele>
  <time>2026-08-28T17:54:22Z</time>
  <course>348.65</course>
  <speed>2.24</speed>
  <fix>3d</fix>
</trkpt>
<trkpt lat="40.0713958" lon="-105.2298095">
  <ele>1582.96</ele>
  <time>2026-08-28T17:54:22Z</time>
  <course>355.63</course>
  <speed>2.5678006153126454</speed>
  <fix>3d</fix>
</trkpt>
<trkpt lat="40.0713929" lon="-105.2298092">
  <ele>1583.0</ele>
  <time>2026-08-28T17:54:22Z</time>
  <course>352.65</course>
  <speed>2.42</speed>
  <fix>3d</fix>
</trkpt>
<trkpt lat="40.0713981" lon="-105.2298097">
  <ele>1582.97</ele>
  <time>2026-08-28T17:54:22Z</time>
  <course>356.94</course>
  <speed>2.6642259663924905</speed>
  <fix>3d</fix>
</trkpt>
<trkpt lat="40.0713929" lon="-105.2298092">
  <ele>1583.0</ele>
  <time>2026-08-28T17:54:22Z</time>
  <course>352.65</course>
  <speed>2.42</speed>
  <fix>3d</fix>
</trkpt>
<trkpt lat="40.0714005" lon="-105.2298098">
  <ele>1582.97</ele>
  <time>2026-08-28T17:54:22Z</time>
  <course>358.06</course>
  <speed>2.76181100005051</speed>
  <fix>3d</fix>
</trkpt>
<trkpt lat="40.0713974" lon="-105.2298098">
  <ele>1583.0</ele>
  <time>2026-08-28T17:54:22Z</time>
  <course>355.54</course>
  <speed>2.61</speed>
  <fix>3d</fix>
</trkpt>
<trkpt lat="40.0714031" lon="-105.22981">
  <ele>1582.97</ele>
  <time>2026-08-28T17:54:22Z</time>
  <course>359.0</course>
  <speed>2.860629301395062</speed>
  <fix>3d</fix>
</trkpt>
<trkpt lat="40.0713974" lon="-105.2298098">
  <ele>1583.0</ele>
  <time>2026-08-28T17:54:22Z</time>
  <course>355.54</course>
  <speed>2.61</speed>
  <fix>3d</fix>
</trkpt>
<trkpt lat="40.0714057" lon="-105.22981">
  <ele>1582.97</ele>
  <time>2026-08-28T17:54:22Z</time>
  <course>359.81</course>
  <speed>2.9600675667964067</speed>
  <fix>3d</fix>
</trkpt>
<trkpt lat="40.0714022" lon="-105.2298102">
  <ele>1583.0</ele>
  <time>2026-08-28T17:54:22Z</time>
  <course>357.63</course>
  <speed>2.8</speed>
  <fix>3d</fix>
</trkpt>
<trkpt lat="40.0714084" lon="-105.2298101">
  <ele>1582.97</ele>
  <time>2026-08-28T17:54:22Z</time>
  <course>0.48</course>
  <speed>3.06</speed>
  <fix>3d</fix>
</trkpt>
<trkpt lat="40.0714022" lon="-105.2298102">
  <ele>1583.0</ele>
  <time>2026-08-28T17:54:22Z</time>
  <course>357.63</course>
  <speed>2.8</speed>
  <fix>3d</fix>
</trkpt>
<trkpt lat="40.0714112" lon="-105.2298101">
  <ele>1582.97</ele>
  <time>2026-08-28T17:54:22Z</time>
  <course>1.06</course>
  <speed>3.160142401854701</speed>
  <fix>3d</fix>
</trkpt>
<trkpt lat="40.0714074" lon="-105.2298103">
  <ele>1583.0</ele>
  <time>2026-08-28T17:54:22Z</time>
  <course>359.14</course>
  <speed>3.0</speed>
  <fix>3d</fix>
</trkpt>
<trkpt lat="40.0714141" lon="-105.2298101">
  <ele>1582.97</ele>
  <time>2026-08-28T17:54:22Z</time>
  <course>1.56</course>
  <speed>3.2605521004885047</speed>
  <fix>3d</fix>
</trkpt>
<trkpt lat="40.0714074" lon="-105.2298103">
  <ele>1583.0</ele>
  <time>2026-08-28T17:54:22Z</time>
  <course>359.14</course>
  <speed>3.0</speed>
  <fix>3d</fix>
</trkpt>
<trkpt lat="40.0714171" lon="-105.22981">
  <ele>1582.97</ele>
  <time>2026-08-28T17:54:22Z</time>
  <course>1.97</course>
  <speed>3.3609522460160006</speed>
  <fix>3d</fix>
</trkpt>
<trkpt lat="40.0714131" lon="-105.2298103">
  <ele>1583.0</ele>
  <time>2026-08-28T17:54:22Z</time>
  <course>0.23</course>
  <speed>3.2</speed>
  <fix>3d</fix>
</trkpt>
<trkpt lat="40.0714201" lon="-105.2298099">
  <ele>1582.97</ele>
  <time>2026-08-28T17:54:22Z</time>
  <course>2.32</course>
  <speed>3.461444785057245</speed>
  <fix>3d</fix>
</trkpt>
<trkpt lat="40.0714131" lon="-105.2298103">
  <ele>1583.0</ele>
  <time>2026-08-28T17:54:22Z</time>
  <course>0.23</course>
  <speed>3.2</speed>
  <fix>3d</fix>
</trkpt>
<trkpt lat="40.0714233" lon="-105.2298099">
  <ele>1582.97</ele>
  <time>2026-08-28T17:54:22Z</time>
  <course>2.61</course>
  <speed>3.5720162373651103</speed>
  <fix>3d</fix>
</trkpt>
<trkpt lat="40.071419" lon="-105.2298103">
  <ele>1583.0</ele>
  <time>2026-08-28T17:54:22Z</time>
  <course>1.01</course>
  <speed>3.4</speed>
  <fix>3d</fix>
</trkpt>
<trkpt lat="40.0714265" lon="-105.2298098">
  <ele>1582.97</ele>
  <time>2026-08-28T17:54:22Z</time>
  <course>2.85</course>
  <speed>3.6726693289758607</speed>
  <fix>3d</fix>
</trkpt>
<trkpt lat="40.071419" lon="-105.2298103">
  <ele>1583.0</ele>
  <time>2026-08-28T17:54:22Z</time>
  <course>1.01</course>
  <speed>3.4</speed>
  <fix>3d</fix>
</trkpt>
<trkpt lat="40.0714299" lon="-105.2298097">
  <ele>1582.97</ele>
  <time>2026-08-28T17:54:22Z</time>
  <course>3.05</course>
  <speed>3.7729829048115233</speed>
  <fix>3d</fix>
</trkpt>
<trkpt lat="40.071419" lon="-105.2298103">
  <ele>1583.0</ele>
  <time>2026-08-28T17:54:22Z</time>
  <course>1.01</course>
  <speed>3.4</speed>
  <fix>3d</fix>
</trkpt>
<trkpt lat="40.0714333" lon="-105.2298095">
  <ele>1582.97</ele>
  <time>2026-08-28T17:54:22Z</time>
  <course>3.22</course>
  <speed>3.8733060813728626</speed>
  <fix>3d</fix>
</trkpt>
<trkpt lat="40.0714253" lon="-105.2298102">
  <ele>1583.0</ele>
  <time>2026-08-28T17:54:22Z</time>
  <course>1.56</course>
  <speed>3.6</speed>
  <fix>3d</fix>
</trkpt>
<trkpt lat="40.0714367" lon="-105.2298094">
  <ele>1582.98</ele>
  <time>2026-08-28T17:54:22Z</time>
  <course>3.37</course>
  <speed>3.9740785095415516</speed>
  <fix>3d</fix>
</trkpt>
<trkpt lat="40.0714253" lon="-105.2298102">
  <ele>1583.0</ele>
  <time>2026-08-28T17:54:22Z</time>
  <course>1.56</course>
  <speed>3.6</speed>
  <fix>3d</fix>
</trkpt>
<trkpt lat="40.0714403" lon="-105.2298092">
  <ele>1582.97</ele>
  <time>2026-08-28T17:54:22Z</time>
  <course>3.49</course>
  <speed>4.064443381325418</speed>
  <fix>3d</fix>
</trkpt>
<trkpt lat="40.071432" lon="-105.2298099">
  <ele>1583.0</ele>
  <time>2026-08-28T17:54:22Z</time>
  <course>1.95</course>
  <speed>3.8</speed>
  <fix>3d</fix>
</trkpt>
<trkpt lat="40.0714439" lon="-105.229809">
  <ele>1582.97</ele>
  <time>2026-08-28T17:54:22Z</time>
  <course>3.59</course>
  <speed>4.164804917400094</speed>
  <fix>3d</fix>
</trkpt>
<trkpt lat="40.071432" lon="-105.2298099">
  <ele>1583.0</ele>
  <time>2026-08-28T17:54:22Z</time>
  <course>1.95</course>
  <speed>3.8</speed>
  <fix>3d</fix>
</trkpt>
<trkpt lat="40.0714476" lon="-105.2298088">
  <ele>1582.97</ele>
  <time>2026-08-28T17:54:22Z</time>
  <course>3.7</course>
  <speed>4.264692251499515</speed>
  <fix>3d</fix>
</trkpt>
<trkpt lat="40.071439" lon="-105.2298096">
  <ele>1583.0</ele>
  <time>2026-08-28T17:54:22Z</time>
  <course>2.24</course>
  <speed>4.0</speed>
  <fix>3d</fix>
</trkpt>
<trkpt lat="40.0714515" lon="-105.2298086">
  <ele>1582.97</ele>
  <time>2026-08-28T17:54:22Z</time>
  <course>3.79</course>
  <speed>4.365054409741075</speed>
  <fix>3d</fix>
</trkpt>
<trkpt lat="40.0714464" lon="-105.2298091">
  <ele>1583.0</ele>
  <time>2026-08-28T17:54:22Z</time>
  <course>2.46</course>
  <speed>4.21</speed>
  <fix>3d</fix>
</trkpt>
<trkpt lat="40.0714554" lon="-105.2298084">
  <ele>1582.97</ele>
  <time>2026-08-28T17:54:22Z</time>
  <course>3.84</course>
  <speed>4.4754105956884</speed>
  <fix>3d</fix>
</trkpt>
<trkpt lat="40.0714464" lon="-105.2298091">
  <ele>1583.0</ele>
  <time>2026-08-28T17:54:22Z</time>
  <course>2.46</course>
  <speed>4.21</speed>
  <fix>3d</fix>
</trkpt>
<trkpt lat="40.0714595" lon="-105.2298082">
  <ele>1582.97</ele>
  <time>2026-08-28T17:54:22Z</time>
  <course>3.9</course>
  <speed>4.575784085815239</speed>
  <fix>3d</fix>
</trkpt>
<trkpt lat="40.0714541" lon="-105.2298087">
  <ele>1583.0</ele>
  <time>2026-08-28T17:54:22Z</time>
  <course>2.62</course>
  <speed>4.41</speed>
  <fix>3d</fix>
</trkpt>
<trkpt lat="40.0714636" lon="-105.2298079">
  <ele>1582.97</ele>
  <time>2026-08-28T17:54:22Z</time>
  <course>3.95</course>
  <speed>4.6761629569552</speed>
  <fix>3d</fix>
</trkpt>
<trkpt lat="40.0714541" lon="-105.2298087">
  <ele>1583.0</ele>
  <time>2026-08-28T17:54:22Z</time>
  <course>2.62</course>
  <speed>4.41</speed>
  <fix>3d</fix>
</trkpt>
<trkpt lat="40.0714678" lon="-105.2298077">
  <ele>1582.98</ele>
  <time>2026-08-28T17:54:22Z</time>
  <course>4.01</course>
  <speed>4.776546869863207</speed>
  <fix>3d</fix>
</trkpt>
<trkpt lat="40.0714622" lon="-105.2298082">
  <ele>1583.0</ele>
  <time>2026-08-28T17:54:22Z</time>
  <course>2.74</course>
  <speed>4.62</speed>
  <fix>3d</fix>
</trkpt>
<trkpt lat="40.0714722" lon="-105.2298074">
  <ele>1582.98</ele>
  <time>2026-08-28T17:54:22Z</time>
  <course>4.07</course>
  <speed>4.886399492468867</speed>
  <fix>3d</fix>
</trkpt>
<trkpt lat="40.0714622" lon="-105.2298082">
  <ele>1583.0</ele>
  <time>2026-08-28T17:54:22Z</time>
  <course>2.74</course>
  <speed>4.62</speed>
  <fix>3d</fix>
</trkpt>
<trkpt lat="40.0714766" lon="-105.2298071">
  <ele>1582.98</ele>
  <time>2026-08-28T17:54:22Z</time>
  <course>4.11</course>
  <speed>4.986782529848279</speed>
  <fix>3d</fix>
</trkpt>
<trkpt lat="40.0714707" lon="-105.2298077">
  <ele>1583.0</ele>
  <time>2026-08-28T17:54:22Z</time>
  <course>2.86</course>
  <speed>4.83</speed>
  <fix>3d</fix>
</trkpt>
<trkpt lat="40.0714812" lon="-105.2298068">
  <ele>1582.99</ele>
  <time>2026-08-28T17:54:22Z</time>
  <course>4.13</course>
  <speed>5.087170136726312</speed>
  <fix>3d</fix>
</trkpt>
<trkpt lat="40.0714707" lon="-105.2298077">
  <ele>1583.0</ele>
  <time>2026-08-28T17:54:22Z</time>
  <course>2.86</course>
  <speed>4.83</speed>
  <fix>3d</fix>
</trkpt>
<trkpt lat="40.0714858" lon="-105.2298065">
  <ele>1582.99</ele>
  <time>2026-08-28T17:54:22Z</time>
  <course>4.13</course>
  <speed>5.177045489465976</speed>
  <fix>3d</fix>
</trkpt>
<trkpt lat="40.0714796" lon="-105.2298071">
  <ele>1583.0</ele>
  <time>2026-08-28T17:54:22Z</time>
  <course>2.92</course>
  <speed>5.02</speed>
  <fix>3d</fix>
</trkpt>
<trkpt lat="40.0714905" lon="-105.2298063">
  <ele>1582.99</ele>
  <time>2026-08-28T17:54:22Z</time>
  <course>4.12</course>
  <speed>5.2569382724167495</speed>
  <fix>3d</fix>
</trkpt>
<trkpt lat="40.0714796" lon="-105.2298071">
  <ele>1583.0</ele>
  <time>2026-08-28T17:54:22Z</time>
  <course>2.92</course>
  <speed>5.02</speed>
  <fix>3d</fix>
</trkpt>
<trkpt lat="40.0714952" lon="-105.2298059">
  <ele>1582.99</ele>
  <time>2026-08-28T17:54:22Z</time>
  <course>4.12</course>
  <speed>5.317377173005504</speed>
  <fix>3d</fix>
</trkpt>
<trkpt lat="40.0714887" lon="-105.2298065">
  <ele>1583.0</ele>
  <time>2026-08-28T17:54:22Z</time>
  <course>2.93</course>
  <speed>5.18</speed>
  <fix>3d</fix>
</trkpt>
<trkpt lat="40.0715" lon="-105.2298056">
  <ele>1582.99</ele>
  <time>2026-08-28T17:54:22Z</time>
  <course>4.11</course>
  <speed>5.357322092239741</speed>
  <fix>3d</fix>
</trkpt>
<trkpt lat="40.0714887" lon="-105.2298065">
  <ele>1583.0</ele>
  <time>2026-08-28T17:54:22Z</time>
  <course>2.93</course>
  <speed>5.18</speed>
  <fix>3d</fix>
</trkpt>
<trkpt lat="40.0715048" lon="-105.2298053">
  <ele>1583.0</ele>
  <time>2026-08-28T17:54:22Z</time>
  <course>4.11</course>
  <speed>5.386770832326172</speed>
  <fix>3d</fix>
</trkpt>
<trkpt lat="40.0714981" lon="-105.2298059">
  <ele>1583.0</ele>
  <time>2026-08-28T17:54:22Z</time>
  <course>2.93</course>
  <speed>5.29</speed>
  <fix>3d</fix>
</trkpt>
<trkpt lat="40.0715096" lon="-105.229805">
  <ele>1583.0</ele>
  <time>2026-08-28T17:54:22Z</time>
  <course>4.1</course>
  <speed>5.406745786515212</speed>
  <fix>3d</fix>
</trkpt>
<trkpt lat="40.0714981" lon="-105.2298059">
  <ele>1583.0</ele>
  <time>2026-08-28T17:54:22Z</time>
  <course>2.93</course>
  <speed>5.29</speed>
  <fix>3d</fix>
</trkpt>
<trkpt lat="40.0715145" lon="-105.2298047">
  <ele>1583.0</ele>
  <time>2026-08-28T17:54:22Z</time>
  <course>4.09</course>
  <speed>5.406745786515212</speed>
  <fix>3d</fix>
</trkpt>
<trkpt lat="40.0714981" lon="-105.2298059">
  <ele>1583.0</ele>
  <time>2026-08-28T17:54:22Z</time>
  <course>2.93</course>
  <speed>5.29</speed>
  <fix>3d</fix>
</trkpt>
<trkpt lat="40.0715193" lon="-105.2298044">
  <ele>1583.0</ele>
  <time>2026-08-28T17:54:22Z</time>
  <course>4.08</course>
  <speed>5.406745786515212</speed>
  <fix>3d</fix>
</trkpt>
<trkpt lat="40.0715077" lon="-105.2298052">
  <ele>1583.0</ele>
  <time>2026-08-28T17:54:22Z</time>
  <course>2.93</course>
  <speed>5.34</speed>
  <fix>3d</fix>
</trkpt>
<trkpt lat="40.071524" lon="-105.2298041">
  <ele>1583.0</ele>
  <time>2026-08-28T17:54:22Z</time>
  <course>4.07</course>
  <speed>5.3967582862307255</speed>
  <fix>3d</fix>
</trkpt>
<trkpt lat="40.0715077" lon="-105.2298052">
  <ele>1583.0</ele>
  <time>2026-08-28T17:54:22Z</time>
  <course>2.93</course>
  <speed>5.34</speed>
  <fix>3d</fix>
</trkpt>
<trkpt lat="40.0715288" lon="-105.2298038">
  <ele>1583.0</ele>
  <time>2026-08-28T17:54:22Z</time>
  <course>4.06</course>
  <speed>5.376290542744133</speed>
  <fix>3d</fix>
</trkpt>
<trkpt lat="40.0715172" lon="-105.2298046">
  <ele>1583.0</ele>
  <time>2026-08-28T17:54:22Z</time>
  <course>2.93</course>
  <speed>5.35</speed>
  <fix>3d</fix>
</trkpt>
<trkpt lat="40.0715335" lon="-105.2298035">
  <ele>1583.0</ele>
  <time>2026-08-28T17:54:22Z</time>
  <course>4.05</course>
  <speed>5.3463258411735435</speed>
  <fix>3d</fix>
</trkpt>
<trkpt lat="40.0715172" lon="-105.2298046">
  <ele>1583.0</ele>
  <time>2026-08-28T17:54:22Z</time>
  <course>2.93</course>
  <speed>5.35</speed>
  <fix>3d</fix>
</trkpt>
<trkpt lat="40.0715382" lon="-105.2298032">
  <ele>1583.0</ele>
  <time>2026-08-28T17:54:22Z</time>
  <course>4.04</course>
  <speed>5.3163615377436475</speed>
  <fix>3d</fix>
</trkpt>
<trkpt lat="40.0715268" lon="-105.229804">
  <ele>1583.0</ele>
  <time>2026-08-28T17:54:22Z</time>
  <course>2.93</course>
  <speed>5.33</speed>
  <fix>3d</fix>
</trkpt>
<trkpt lat="40.0715428" lon="-105.2298029">
  <ele>1583.0</ele>
  <time>2026-08-28T17:54:22Z</time>
  <course>4.03</course>
  <speed>5.2859152471450015</speed>
  <fix>3d</fix>
</trkpt>
<trkpt lat="40.0715268" lon="-105.229804">
  <ele>1583.0</ele>
  <time>2026-08-28T17:54:22Z</time>
  <course>2.93</course>
  <speed>5.33</speed>
  <fix>3d</fix>
</trkpt>
<trkpt lat="40.0715475" lon="-105.2298026">
  <ele>1583.0</ele>
  <time>2026-08-28T17:54:22Z</time>
  <course>4.02</course>
  <speed>5.25594901040716</speed>
  <fix>3d</fix>
</trkpt>
<trkpt lat="40.0715364" lon="-105.2298033">
  <ele>1583.0</ele>
  <time>2026-08-28T17:54:22Z</time>
  <course>2.93</course>
  <speed>5.29</speed>
  <fix>3d</fix>
</trkpt>
<trkpt lat="40.0715521" lon="-105.2298023">
  <ele>1583.0</ele>
  <time>2026-08-28T17:54:22Z</time>
  <course>4.01</course>
  <speed>5.225514328752721</speed>
  <fix>3d</fix>
</trkpt>
<trkpt lat="40.0715458" lon="-105.2298026">
  <ele>1583.0</ele>
  <time>2026-08-28T17:54:22Z</time>
  <course>2.93</course>
  <speed>5.24</speed>
  <fix>3d</fix>
</trkpt>
<trkpt lat="40.0715568" lon="-105.229802">
  <ele>1583.0</ele>
  <time>2026-08-28T17:54:22Z</time>
  <course>4.0</course>
  <speed>5.1955461695571525</speed>
  <fix>3d</fix>
</trkpt>
<trkpt lat="40.0715458" lon="-105.2298026">
  <ele>1583.0</ele>
  <time>2026-08-28T17:54:22Z</time>
  <course>2.93</course>
  <speed>5.24</speed>
  <fix>3d</fix>
</trkpt>
<trkpt lat="40.0715613" lon="-105.2298018">
  <ele>1583.0</ele>
  <time>2026-08-28T17:54:22Z</time>
  <course>4.0</course>
  <speed>5.165578380007412</speed>
  <fix>3d</fix>
</trkpt>
<trkpt lat="40.0715552" lon="-105.2298021">
  <ele>1583.0</ele>
  <time>2026-08-28T17:54:22Z</time>
  <course>2.93</course>
  <speed>5.19</speed>
  <fix>3d</fix>
</trkpt>
<trkpt lat="40.071566" lon="-105.2298015">
  <ele>1583.0</ele>
  <time>2026-08-28T17:54:22Z</time>
  <course>4.0</course>
  <speed>5.135610966574474</speed>
  <fix>3d</fix>
</trkpt>
<trkpt lat="40.0715552" lon="-105.2298021">
  <ele>1583.0</ele>
  <time>2026-08-28T17:54:22Z</time>
  <course>2.93</course>
  <speed>5.19</speed>
  <fix>3d</fix>
</trkpt>
<trkpt lat="40.0715705" lon="-105.2298012">
  <ele>1583.0</ele>
  <time>2026-08-28T17:54:22Z</time>
  <course>4.07</course>
  <speed>5.095655011870407</speed>
  <fix>3d</fix>
</trkpt>
<trkpt lat="40.0715645" lon="-105.2298014">
  <ele>1583.0</ele>
  <time>2026-08-28T17:54:22Z</time>
  <course>2.97</course>
  <speed>5.13</speed>
  <fix>3d</fix>
</trkpt>
<trkpt lat="40.0715751" lon="-105.2298009">
  <ele>1583.0</ele>
  <time>2026-08-28T17:54:22Z</time>
  <course>4.13</course>
  <speed>5.0457110499908735</speed>
  <fix>3d</fix>
</trkpt>
<trkpt lat="40.0715645" lon="-105.2298014">
  <ele>1583.0</ele>
  <time>2026-08-28T17:54:22Z</time>
  <course>2.97</course>
  <speed>5.13</speed>
  <fix>3d</fix>
</trkpt>
<trkpt lat="40.0715797" lon="-105.2298005">
  <ele>1583.0</ele>
  <time>2026-08-28T17:54:22Z</time>
  <course>4.23</course>
  <speed>4.976283753967412</speed>
  <fix>3d</fix>
</trkpt>
<trkpt lat="40.0715737" lon="-105.2298007">
  <ele>1583.0</ele>
  <time>2026-08-28T17:54:22Z</time>
  <course>3.08</course>
  <speed>5.04</speed>
  <fix>3d</fix>
</trkpt>
<trkpt lat="40.0715841" lon="-105.2298002">
  <ele>1583.0</ele>
  <time>2026-08-28T17:54:22Z</time>
  <course>4.36</course>
  <speed>4.906373406091306</speed>
  <fix>3d</fix>
</trkpt>
<trkpt lat="40.0715737" lon="-105.2298007">
  <ele>1583.0</ele>
  <time>2026-08-28T17:54:22Z</time>
  <course>3.08</course>
  <speed>5.04</speed>
  <fix>3d</fix>
</trkpt>
<trkpt lat="40.0715885" lon="-105.2297999">
  <ele>1583.0</ele>
  <time>2026-08-28T17:54:22Z</time>
  <course>4.48</course>
  <speed>4.817021901548715</speed>
  <fix>3d</fix>
</trkpt>
<trkpt lat="40.0715826" lon="-105.2298001">
  <ele>1583.0</ele>
  <time>2026-08-28T17:54:22Z</time>
  <course>3.3</course>
  <speed>4.91</speed>
  <fix>3d</fix>
</trkpt>
<trkpt lat="40.0715928" lon="-105.2297996">
  <ele>1583.0</ele>
  <time>2026-08-28T17:54:22Z</time>
  <course>4.48</course>
  <speed>4.7166301529799854</speed>
  <fix>3d</fix>
</trkpt>
<trkpt lat="40.0715826" lon="-105.2298001">
  <ele>1583.0</ele>
  <time>2026-08-28T17:54:22Z</time>
  <course>3.3</course>
  <speed>4.91</speed>
  <fix>3d</fix>
</trkpt>
<trkpt lat="40.071597" lon="-105.2297992">
  <ele>1583.0</ele>
  <time>2026-08-28T17:54:22Z</time>
  <course>4.58</course>
  <speed>4.606788469204984</speed>
  <fix>3d</fix>
</trkpt>
<trkpt lat="40.0715912" lon="-105.2297995">
  <ele>1583.0</ele>
  <time>2026-08-28T17:54:22Z</time>
  <course>3.49</course>
  <speed>4.73</speed>
  <fix>3d</fix>
</trkpt>
<trkpt lat="40.071601" lon="-105.2297989">
  <ele>1583.01</ele>
  <time>2026-08-28T17:54:22Z</time>
  <course>4.67</course>
  <speed>4.496954525009119</speed>
  <fix>3d</fix>
</trkpt>
<trkpt lat="40.0715912" lon="-105.2297995">
  <ele>1583.0</ele>
  <time>2026-08-28T17:54:22Z</time>
  <course>3.49</course>
  <speed>4.73</speed>
  <fix>3d</fix>
</trkpt>
<trkpt lat="40.071605" lon="-105.2297986">
  <ele>1583.01</ele>
  <time>2026-08-28T17:54:22Z</time>
  <course>4.79</course>
  <speed>4.377145188361931</speed>
  <fix>3d</fix>
</trkpt>
<trkpt lat="40.0715995" lon="-105.2297988">
  <ele>1583.0</ele>
  <time>2026-08-28T17:54:22Z</time>
  <course>3.66</course>
  <speed>4.51</speed>
  <fix>3d</fix>
</trkpt>
<trkpt lat="40.0716089" lon="-105.2297982">
  <ele>1583.01</ele>
  <time>2026-08-28T17:54:22Z</time>
  <course>4.89</course>
  <speed>4.24736388834298</speed>
  <fix>3d</fix>
</trkpt>
<trkpt lat="40.0715995" lon="-105.2297988">
  <ele>1583.0</ele>
  <time>2026-08-28T17:54:22Z</time>
  <course>3.66</course>
  <speed>4.51</speed>
  <fix>3d</fix>
</trkpt>
<trkpt lat="40.0716126" lon="-105.2297979">
  <ele>1583.01</ele>
  <time>2026-08-28T17:54:22Z</time>
  <course>5.0</course>
  <speed>4.127577982303908</speed>
  <fix>3d</fix>
</trkpt>
<trkpt lat="40.0715995" lon="-105.2297988">
  <ele>1583.0</ele>
  <time>2026-08-28T17:54:22Z</time>
  <course>3.66</course>
  <speed>4.51</speed>
  <fix>3d</fix>
</trkpt>
<trkpt lat="40.0716162" lon="-105.2297976">
  <ele>1583.01</ele>
  <time>2026-08-28T17:54:22Z</time>
  <course>5.1</course>
  <speed>3.9878440290462716</speed>
  <fix>3d</fix>
</trkpt>
<trkpt lat="40.0716074" lon="-105.2297981">
  <ele>1583.0</ele>
  <time>2026-08-28T17:54:22Z</time>
  <course>3.88</course>
  <speed>4.27</speed>
  <fix>3d</fix>
</trkpt>
<trkpt lat="40.0716197" lon="-105.2297972">
  <ele>1583.01</ele>
  <time>2026-08-28T17:54:22Z</time>
  <course>5.25</course>
  <speed>3.858108344772085</speed>
  <fix>3d</fix>
</trkpt>
<trkpt lat="40.0716074" lon="-105.2297981">
  <ele>1583.0</ele>
  <time>2026-08-28T17:54:22Z</time>
  <course>3.88</course>
  <speed>4.27</speed>
  <fix>3d</fix>
</trkpt>
<trkpt lat="40.0716231" lon="-105.2297969">
  <ele>1583.01</ele>
  <time>2026-08-28T17:54:22Z</time>
  <course>5.39</course>
  <speed>3.7283910739084223</speed>
  <fix>3d</fix>
</trkpt>
<trkpt lat="40.0716149" lon="-105.2297974">
  <ele>1583.0</ele>
  <time>2026-08-28T17:54:22Z</time>
  <course>4.13</course>
  <speed>4.02</speed>
  <fix>3d</fix>
</trkpt>
<trkpt lat="40.0716263" lon="-105.2297966">
  <ele>1583.01</ele>
  <time>2026-08-28T17:54:22Z</time>
  <course>5.53</course>
  <speed>3.588718434204612</speed>
  <fix>3d</fix>
</trkpt>
<trkpt lat="40.0716149" lon="-105.2297974">
  <ele>1583.0</ele>
  <time>2026-08-28T17:54:22Z</time>
  <course>4.13</course>
  <speed>4.02</speed>
  <fix>3d</fix>
</trkpt>
<trkpt lat="40.0716294" lon="-105.2297962">
  <ele>1583.01</ele>
  <time>2026-08-28T17:54:22Z</time>
  <course>5.66</course>
  <speed>3.4590461112855957</speed>
  <fix>3d</fix>
</trkpt>
<trkpt lat="40.0716218" lon="-105.2297967">
  <ele>1583.0</ele>
  <time>2026-08-28T17:54:22Z</time>
  <course>4.42</course>
  <speed>3.77</speed>
  <fix>3d</fix>
</trkpt>
<trkpt lat="40.0716325" lon="-105.2297959">
  <ele>1583.01</ele>
  <time>2026-08-28T17:54:22Z</time>
  <course>5.84</course>
  <speed>3.3293993452273036</speed>
  <fix>3d</fix>
</trkpt>
<trkpt lat="40.0716284" lon="-105.229796">
  <ele>1583.0</ele>
  <time>2026-08-28T17:54:22Z</time>
  <course>4.74</course>
  <speed>3.51</speed>
  <fix>3d</fix>
</trkpt>
<trkpt lat="40.0716354" lon="-105.2297956">
  <ele>1583.02</ele>
  <time>2026-08-28T17:54:22Z</time>
  <course>6.01</course>
  <speed>3.199781242522682</speed>
  <fix>3d</fix>
</trkpt>
<trkpt lat="40.0716284" lon="-105.229796">
  <ele>1583.0</ele>
  <time>2026-08-28T17:54:22Z</time>
  <course>4.74</course>
  <speed>3.51</speed>
  <fix>3d</fix>
</trkpt>
<trkpt lat="40.0716382" lon="-105.2297952">
  <ele>1583.02</ele>
  <time>2026-08-28T17:54:22Z</time>
  <course>6.17</course>
  <speed>3.07019543351885</speed>
  <fix>3d</fix>
</trkpt>
<trkpt lat="40.0716345" lon="-105.2297954">
  <ele>1583.0</ele>
  <time>2026-08-28T17:54:22Z</time>
  <course>5.08</course>
  <speed>3.26</speed>
  <fix>3d</fix>
</trkpt>
<trkpt lat="40.0716409" lon="-105.2297949">
  <ele>1583.02</ele>
  <time>2026-08-28T17:54:22Z</time>
  <course>6.37</course>
  <speed>2.9506101064017254</speed>
  <fix>3d</fix>
</trkpt>
<trkpt lat="40.0716345" lon="-105.2297954">
  <ele>1583.0</ele>
  <time>2026-08-28T17:54:22Z</time>
  <course>5.08</course>
  <speed>3.26</speed>
  <fix>3d</fix>
</trkpt>
<trkpt lat="40.0716434" lon="-105.2297946">
  <ele>1583.02</ele>
  <time>2026-08-28T17:54:22Z</time>
  <course>6.57</course>
  <speed>2.8310598722033418</speed>
  <fix>3d</fix>
</trkpt>
<trkpt lat="40.07164" lon="-105.2297947">
  <ele>1583.0</ele>
  <time>2026-08-28T17:54:22Z</time>
  <course>5.47</course>
  <speed>3.02</speed>
  <fix>3d</fix>
</trkpt>
<trkpt lat="40.0716459" lon="-105.2297942">
  <ele>1583.02</ele>
  <time>2026-08-28T17:54:22Z</time>
  <course>6.78</course>
  <speed>2.7115493725912496</speed>
  <fix>3d</fix>
</trkpt>
<trkpt lat="40.07164" lon="-105.2297947">
  <ele>1583.0</ele>
  <time>2026-08-28T17:54:22Z</time>
  <course>5.47</course>
  <speed>3.02</speed>
  <fix>3d</fix>
</trkpt>
<trkpt lat="40.0716483" lon="-105.2297939">
  <ele>1583.02</ele>
  <time>2026-08-28T17:54:22Z</time>
  <course>7.0</course>
  <speed>2.592084103573802</speed>
  <fix>3d</fix>
</trkpt>
<trkpt lat="40.0716453" lon="-105.229794">
  <ele>1583.0</ele>
  <time>2026-08-28T17:54:22Z</time>
  <course>5.89</course>
  <speed>2.78</speed>
  <fix>3d</fix>
</trkpt>
<trkpt lat="40.0716506" lon="-105.2297935">
  <ele>1583.02</ele>
  <time>2026-08-28T17:54:22Z</time>
  <course>7.23</course>
  <speed>2.4826195842295293</speed>
  <fix>3d</fix>
</trkpt>
<trkpt lat="40.0716453" lon="-105.229794">
  <ele>1583.0</ele>
  <time>2026-08-28T17:54:22Z</time>
  <course>5.89</course>
  <speed>2.78</speed>
  <fix>3d</fix>
</trkpt>
<trkpt lat="40.0716528" lon="-105.2297932">
  <ele>1583.02</ele>
  <time>2026-08-28T17:54:22Z</time>
  <course>7.48</course>
  <speed>2.3732045845227923</speed>
  <fix>3d</fix>
</trkpt>
<trkpt lat="40.0716501" lon="-105.2297934">
  <ele>1583.0</ele>
  <time>2026-08-28T17:54:22Z</time>
  <course>6.36</course>
  <speed>2.56</speed>
  <fix>3d</fix>
</trkpt>
<trkpt lat="40.0716549" lon="-105.2297929">
  <ele>1583.02</ele>
  <time>2026-08-28T17:54:22Z</time>
  <course>7.74</course>
  <speed>2.2638462845343543</speed>
  <fix>3d</fix>
</trkpt>
<trkpt lat="40.0716501" lon="-105.2297934">
  <ele>1583.0</ele>
  <time>2026-08-28T17:54:22Z</time>
  <course>6.36</course>
  <speed>2.56</speed>
  <fix>3d</fix>
</trkpt>
<trkpt lat="40.0716569" lon="-105.2297925">
  <ele>1583.02</ele>
  <time>2026-08-28T17:54:22Z</time>
  <course>8.03</course>
  <speed>2.1545533179756773</speed>
  <fix>3d</fix>
</trkpt>
<trkpt lat="40.0716544" lon="-105.2297927">
  <ele>1583.0</ele>
  <time>2026-08-28T17:54:22Z</time>
  <course>6.88</course>
  <speed>2.34</speed>
  <fix>3d</fix>
</trkpt>
<trkpt lat="40.0716588" lon="-105.2297922">
  <ele>1583.02</ele>
  <time>2026-08-28T17:54:22Z</time>
  <course>8.32</course>
  <speed>2.05526154053444</speed>
  <fix>3d</fix>
</trkpt>
<trkpt lat="40.0716544" lon="-105.2297927">
  <ele>1583.0</ele>
  <time>2026-08-28T17:54:22Z</time>
  <course>6.88</course>
  <speed>2.34</speed>
  <fix>3d</fix>
</trkpt>
<trkpt lat="40.0716607" lon="-105.2297919">
  <ele>1583.03</ele>
  <time>2026-08-28T17:54:22Z</time>
  <course>8.64</course>
  <speed>1.946124353683495</speed>
  <fix>3d</fix>
</trkpt>
<trkpt lat="40.0716585" lon="-105.229792">
  <ele>1583.0</ele>
  <time>2026-08-28T17:54:22Z</time>
  <course>7.47</course>
  <speed>2.13</speed>
  <fix>3d</fix>
</trkpt>
<trkpt lat="40.0716624" lon="-105.2297915">
  <ele>1583.03</ele>
  <time>2026-08-28T17:54:22Z</time>
  <course>8.99</course>
  <speed>1.8469975636150686</speed>
  <fix>3d</fix>
</trkpt>
<trkpt lat="40.0716585" lon="-105.229792">
  <ele>1583.0</ele>
  <time>2026-08-28T17:54:22Z</time>
  <course>7.47</course>
  <speed>2.13</speed>
  <fix>3d</fix>
</trkpt>
<trkpt lat="40.071664" lon="-105.2297912">
  <ele>1583.03</ele>
  <time>2026-08-28T17:54:22Z</time>
  <course>9.36</course>
  <speed>1.7479702514631077</speed>
  <fix>3d</fix>
</trkpt>
<trkpt lat="40.0716585" lon="-105.229792">
  <ele>1583.0</ele>
  <time>2026-08-28T17:54:22Z</time>
  <course>7.47</course>
  <speed>2.13</speed>
  <fix>3d</fix>
</trkpt>
<trkpt lat="40.0716656" lon="-105.2297909">
  <ele>1583.03</ele>
  <time>2026-08-28T17:54:22Z</time>
  <course>9.77</course>
  <speed>1.647573974060042</speed>
  <fix>3d</fix>
</trkpt>
<trkpt lat="40.0716621" lon="-105.2297914">
  <ele>1583.0</ele>
  <time>2026-08-28T17:54:22Z</time>
  <course>8.14</course>
  <speed>1.93</speed>
  <fix>3d</fix>
</trkpt>
<trkpt lat="40.071667" lon="-105.2297906">
  <ele>1583.03</ele>
  <time>2026-08-28T17:54:22Z</time>
  <course>10.21</course>
  <speed>1.548709139896837</speed>
  <fix>3d</fix>
</trkpt>
<trkpt lat="40.0716621" lon="-105.2297914">
  <ele>1583.0</ele>
  <time>2026-08-28T17:54:22Z</time>
  <course>8.14</course>
  <speed>1.93</speed>
  <fix>3d</fix>
</trkpt>
<trkpt lat="40.0716684" lon="-105.2297903">
  <ele>1583.03</ele>
  <time>2026-08-28T17:54:22Z</time>
  <course>10.7</course>
  <speed>1.4598630072715728</speed>
  <fix>3d</fix>
</trkpt>
<trkpt lat="40.0716653" lon="-105.2297907">
  <ele>1583.0</ele>
  <time>2026-08-28T17:54:22Z</time>
  <course>8.92</course>
  <speed>1.74</speed>
  <fix>3d</fix>
</trkpt>
<trkpt lat="40.0716696" lon="-105.2297899">
  <ele>1583.03</ele>
  <time>2026-08-28T17:54:22Z</time>
  <course>11.25</course>
  <speed>1.361322886019331</speed>
  <fix>3d</fix>
</trkpt>
<trkpt lat="40.0716653" lon="-105.2297907">
  <ele>1583.0</ele>
  <time>2026-08-28T17:54:22Z</time>
  <course>8.92</course>
  <speed>1.74</speed>
  <fix>3d</fix>
</trkpt>
<trkpt lat="40.0716708" lon="-105.2297896">
  <ele>1583.04</ele>
  <time>2026-08-28T17:54:22Z</time>
  <course>11.85</course>
  <speed>1.2630122723077555</speed>
  <fix>3d</fix>
</trkpt>
<trkpt lat="40.0716682" lon="-105.2297901">
  <ele>1583.0</ele>
  <time>2026-08-28T17:54:22Z</time>
  <course>9.86</course>
  <speed>1.54</speed>
  <fix>3d</fix>
</trkpt>
<trkpt lat="40.0716719" lon="-105.2297893">
  <ele>1583.04</ele>
  <time>2026-08-28T17:54:22Z</time>
  <course>12.55</course>
  <speed>1.1629703349613008</speed>
  <fix>3d</fix>
</trkpt>
<trkpt lat="40.0716708" lon="-105.2297895">
  <ele>1583.0</ele>
  <time>2026-08-28T17:54:22Z</time>
  <course>11.02</course>
  <speed>1.35</speed>
  <fix>3d</fix>
</trkpt>
<trkpt lat="40.071673" lon="-105.229789">
  <ele>1583.04</ele>
  <time>2026-08-28T17:54:22Z</time>
  <course>13.34</course>
  <speed>1.0748953437428224</speed>
  <fix>3d</fix>
</trkpt>
<trkpt lat="40.0716708" lon="-105.2297895">
  <ele>1583.0</ele>
  <time>2026-08-28T17:54:22Z</time>
  <course>11.02</course>
  <speed>1.35</speed>
  <fix>3d</fix>
</trkpt>
<trkpt lat="40.0716739" lon="-105.2297887">
  <ele>1583.05</ele>
  <time>2026-08-28T17:54:22Z</time>
  <course>14.26</course>
  <speed>0.9774456506629922</speed>
  <fix>3d</fix>
</trkpt>
<trkpt lat="40.071673" lon="-105.2297888">
  <ele>1583.0</ele>
  <time>2026-08-28T17:54:22Z</time>
  <course>12.5</course>
  <speed>1.16</speed>
  <fix>3d</fix>
</trkpt>
<trkpt lat="40.0716747" lon="-105.2297884">
  <ele>1583.05</ele>
  <time>2026-08-28T17:54:22Z</time>
  <course>15.28</course>
  <speed>0.8805679985100526</speed>
  <fix>3d</fix>
</trkpt>
<trkpt lat="40.071673" lon="-105.2297888">
  <ele>1583.0</ele>
  <time>2026-08-28T17:54:22Z</time>
  <course>12.5</course>
  <speed>1.16</speed>
  <fix>3d</fix>
</trkpt>
<trkpt lat="40.0716755" lon="-105.2297881">
  <ele>1583.05</ele>
  <time>2026-08-28T17:54:22Z</time>
  <course>16.31</course>
  <speed>0.7912016177940993</speed>
  <fix>3d</fix>
</trkpt>
<trkpt lat="40.0716749" lon="-105.2297883">
  <ele>1583.0</ele>
  <time>2026-08-28T17:54:22Z</time>
  <course>14.35</course>
  <speed>0.97</speed>
  <fix>3d</fix>
</trkpt>
<trkpt lat="40.0716762" lon="-105.2297878">
  <ele>1583.05</ele>
  <time>2026-08-28T17:54:22Z</time>
  <course>17.3</course>
  <speed>0.6926037828369117</speed>
  <fix>3d</fix>
</trkpt>
<trkpt lat="40.0716749" lon="-105.2297883">
  <ele>1583.0</ele>
  <time>2026-08-28T17:54:22Z</time>
  <course>14.35</course>
  <speed>0.97</speed>
  <fix>3d</fix>
</trkpt>
<trkpt lat="40.0716768" lon="-105.2297876">
  <ele>1583.05</ele>
  <time>2026-08-28T17:54:22Z</time>
  <course>18.24</course>
  <speed>0.5913543776789008</speed>
  <fix>3d</fix>
</trkpt>
<trkpt lat="40.0716764" lon="-105.2297878">
  <ele>1583.0</ele>
  <time>2026-08-28T17:54:22Z</time>
  <course>16.32</course>
  <speed>0.78</speed>
  <fix>3d</fix>
</trkpt>
<trkpt lat="40.0716773" lon="-105.2297874">
  <ele>1583.06</ele>
  <time>2026-08-28T17:54:22Z</time>
  <course>19.13</course>
  <speed>0.49979995998399196</speed>
  <fix>3d</fix>
</trkpt>
<trkpt lat="40.0716764" lon="-105.2297878">
  <ele>1583.0</ele>
  <time>2026-08-28T17:54:22Z</time>
  <course>16.32</course>
  <speed>0.78</speed>
  <fix>3d</fix>
</trkpt>
<trkpt lat="40.0716777" lon="-105.2297872">
  <ele>1583.06</ele>
  <time>2026-08-28T17:54:22Z</time>
  <course>19.94</course>
  <speed>0.3992492955535426</speed>
  <fix>3d</fix>
</trkpt>
<trkpt lat="40.0716776" lon="-105.2297873">
  <ele>1583.0</ele>
  <time>2026-08-28T17:54:22Z</time>
  <course>18.11</course>
  <speed>0.59</speed>
  <fix>3d</fix>
</trkpt>
<trkpt lat="40.0716781" lon="-105.229787">
  <ele>1583.06</ele>
  <time>2026-08-28T17:54:22Z</time>
  <course>20.64</course>
  <speed>0.30463092423455634</speed>
  <fix>3d</fix>
</trkpt>
<trkpt lat="40.0716776" lon="-105.2297873">
  <ele>1583.0</ele>
  <time>2026-08-28T17:54:22Z</time>
  <course>18.11</course>
  <speed>0.59</speed>
  <fix>3d</fix>
</trkpt>
<trkpt lat="40.0716783" lon="-105.2297868">
  <ele>1583.05</ele>
  <time>2026-08-28T17:54:22Z</time>
  <course>21.22</course>
  <speed>0.2102379604162864</speed>
  <fix>3d</fix>
</trkpt>
<trkpt lat="40.0716784" lon="-105.2297869">
  <ele>1583.0</ele>
  <time>2026-08-28T17:54:22Z</time>
  <course>19.56</course>
  <speed>0.39</speed>
  <fix>3d</fix>
</trkpt>
<trkpt lat="40.0716785" lon="-105.2297867">
  <ele>1583.06</ele>
  <time>2026-08-28T17:54:22Z</time>
  <course>21.65</course>
  <speed>0.11661903789690602</speed>
  <fix>3d</fix>
</trkpt>
<trkpt lat="40.0716784" lon="-105.2297869">
  <ele>1583.0</ele>
  <time>2026-08-28T17:54:22Z</time>
  <course>19.56</course>
  <speed>0.39</speed>
  <fix>3d</fix>
</trkpt>
<trkpt lat="40.0716786" lon="-105.2297867">
  <ele>1583.06</ele>
  <time>2026-08-28T17:54:22Z</time>
  <course>21.94</course>
  <speed>0.022360679774997897</speed>
  <fix>3d</fix>
</trkpt>
<trkpt lat="40.0716789" lon="-105.2297867">
  <ele>1583.0</ele>
  <time>2026-08-28T17:54:22Z</time>
  <course>20.54</course>
  <speed>0.2</speed>
  <fix>3d</fix>
</trkpt>
<trkpt lat="40.0716786" lon="-105.2297867">
  <ele>1583.06</ele>
  <time>2026-08-28T17:54:22Z</time>
  <course>21.95</course>
  <speed>0.05</speed>
  <fix>3d</fix>
</trkpt>
<trkpt lat="40.0716789" lon="-105.2297867">
  <ele>1583.0</ele>
  <time>2026-08-28T17:54:22Z</time>
  <course>20.54</course>
  <speed>0.2</speed>
  <fix>3d</fix>
</trkpt>
<trkpt lat="40.0716786" lon="-105.2297867">
  <ele>1583.06</ele>
  <time>2026-08-28T17:54:22Z</time>
  <course>21.95</course>
  <speed>0.1004987562112089</speed>
  <fix>3d</fix>
</trkpt>
<trkpt lat="40.0716789" lon="-105.2297867">
  <ele>1583.0</ele>
  <time>2026-08-28T17:54:22Z</time>
  <course>20.54</course>
  <speed>0.2</speed>
  <fix>3d</fix>
</trkpt>
<trkpt lat="40.0716786" lon="-105.2297867">
  <ele>1583.05</ele>
  <time>2026-08-28T17:54:22Z</time>
  <course>22.06</course>
  <speed>0.14317821063276354</speed>
  <fix>3d</fix>
</trkpt>
<trkpt lat="40.0716791" lon="-105.2297866">
  <ele>1583.0</ele>
  <time>2026-08-28T17:54:22Z</time>
  <course>21.06</course>
  <speed>0.04</speed>
  <fix>3d</fix>
</trkpt>
<trkpt lat="40.0716786" lon="-105.2297867">
  <ele>1583.05</ele>
  <time>2026-08-28T17:54:22Z</time>
  <course>22.25</course>
  <speed>0.16278820596099705</speed>
  <fix>3d</fix>
</trkpt>
<trkpt lat="40.0716791" lon="-105.2297866">
  <ele>1583.0</ele>
  <time>2026-08-28T17:54:22Z</time>
  <course>21.06</course>
  <speed>0.04</speed>
  <fix>3d</fix>
</trkpt>
<trkpt lat="40.0716785" lon="-105.2297867">
  <ele>1583.05</ele>
  <time>2026-08-28T17:54:22Z</time>
  <course>22.48</course>
  <speed>0.1649242250247064</speed>
  <fix>3d</fix>
</trkpt>
<trkpt lat="40.0716791" lon="-105.2297866">
  <ele>1583.0</ele>
  <time>2026-08-28T17:54:22Z</time>
  <course>201.28</course>
  <speed>0.05</speed>
  <fix>3d</fix>
</trkpt>
<trkpt lat="40.0716784" lon="-105.2297867">
  <ele>1583.05</ele>
  <time>2026-08-28T17:54:22Z</time>
  <course>22.72</course>
  <speed>0.15297058540778355</speed>
  <fix>3d</fix>
</trkpt>
<trkpt lat="40.0716791" lon="-105.2297866">
  <ele>1583.0</ele>
  <time>2026-08-28T17:54:22Z</time>
  <course>201.28</course>
  <speed>0.05</speed>
  <fix>3d</fix>
</trkpt>
<trkpt lat="40.0716783" lon="-105.2297867">
  <ele>1583.05</ele>
  <time>2026-08-28T17:54:22Z</time>
  <course>22.94</course>
  <speed>0.13152946437965907</speed>
  <fix>3d</fix>
</trkpt>
<trkpt lat="40.071679" lon="-105.2297866">
  <ele>1583.0</ele>
  <time>2026-08-28T17:54:22Z</time>
  <course>201.57</course>
  <speed>0.08</speed>
  <fix>3d</fix>
</trkpt>
<trkpt lat="40.0716783" lon="-105.2297868">
  <ele>1583.05</ele>
  <time>2026-08-28T17:54:22Z</time>
  <course>23.08</course>
  <speed>0.09</speed>
  <fix>3d</fix>
</trkpt>
<trkpt lat="40.071679" lon="-105.2297866">
  <ele>1583.0</ele>
  <time>2026-08-28T17:54:22Z</time>
  <course>201.57</course>
  <speed>0.08</speed>
  <fix>3d</fix>
</trkpt>
<trkpt lat="40.0716783" lon="-105.2297867">
  <ele>1583.05</ele>
  <time>2026-08-28T17:54:22Z</time>
  <course>23.09</course>
  <speed>0.0412310562561766</speed>
  <fix>3d</fix>
</trkpt>
<trkpt lat="40.0716789" lon="-105.2297866">
  <ele>1583.0</ele>
  <time>2026-08-28T17:54:22Z</time>
  <course>201.88</course>
  <speed>0.05</speed>
  <fix>3d</fix>
</trkpt>
<trkpt lat="40.0716783" lon="-105.2297867">
  <ele>1583.05</ele>
  <time>2026-08-28T17:54:22Z</time>
  <course>23.03</course>
  <speed>0.0412310562561766</speed>
  <fix>3d</fix>
</trkpt>
<trkpt lat="40.0716789" lon="-105.2297866">
  <ele>1583.0</ele>
  <time>2026-08-28T17:54:22Z</time>
  <course>22.06</course>
  <speed>0.02</speed>
  <fix>3d</fix>
</trkpt>
<trkpt lat="40.0716784" lon="-105.2297867">
  <ele>1583.05</ele>
  <time>2026-08-28T17:54:22Z</time>
  <course>23.43</course>
  <speed>0.09899494936611665</speed>
  <fix>3d</fix>
</trkpt>
<trkpt lat="40.0716789" lon="-105.2297866">
  <ele>1583.0</ele>
  <time>2026-08-28T17:54:22Z</time>
  <course>22.06</course>
  <speed>0.02</speed>
  <fix>3d</fix>
</trkpt>
<trkpt lat="40.0716786" lon="-105.2297866">
  <ele>1583.05</ele>
  <time>2026-08-28T17:54:22Z</time>
  <course>24.09</course>
  <speed>0.18027756377319945</speed>
  <fix>3d</fix>
</trkpt>
<trkpt lat="40.071679" lon="-105.2297866">
  <ele>1583.0</ele>
  <time>2026-08-28T17:54:22Z</time>
  <course>22.86</course>
  <speed>0.16</speed>
  <fix>3d</fix>
</trkpt>
<trkpt lat="40.0716788" lon="-105.2297864">
  <ele>1583.05</ele>
  <time>2026-08-28T17:54:22Z</time>
  <course>25.09</course>
  <speed>0.2745906043549196</speed>
  <fix>3d</fix>
</trkpt>
<trkpt lat="40.071679" lon="-105.2297866">
  <ele>1583.0</ele>
  <time>2026-08-28T17:54:22Z</time>
  <course>22.86</course>
  <speed>0.16</speed>
  <fix>3d</fix>
</trkpt>
<trkpt lat="40.0716791" lon="-105.2297862">
  <ele>1583.05</ele>
  <time>2026-08-28T17:54:22Z</time>
  <course>26.49</course>
  <speed>0.3689173349139343</speed>
  <fix>3d</fix>
</trkpt>
<trkpt lat="40.0716793" lon="-105.2297864">
  <ele>1583.0</ele>
  <time>2026-08-28T17:54:22Z</time>
  <course>24.66</course>
  <speed>0.32</speed>
  <fix>3d</fix>
</trkpt>
<trkpt lat="40.0716795" lon="-105.2297859">
  <ele>1583.05</ele>
  <time>2026-08-28T17:54:22Z</time>
  <course>28.37</course>
  <speed>0.4632493928760188</speed>
  <fix>3d</fix>
</trkpt>
<trkpt lat="40.0716793" lon="-105.2297864">
  <ele>1583.0</ele>
  <time>2026-08-28T17:54:22Z</time>
  <course>24.66</course>
  <speed>0.32</speed>
  <fix>3d</fix>
</trkpt>
<trkpt lat="40.0716799" lon="-105.2297856">
  <ele>1583.05</ele>
  <time>2026-08-28T17:54:22Z</time>
  <course>30.86</course>
  <speed>0.560357029044876</speed>
  <fix>3d</fix>
</trkpt>
<trkpt lat="40.07168" lon="-105.229786">
  <ele>1583.0</ele>
  <time>2026-08-28T17:54:22Z</time>
  <course>28.11</course>
  <speed>0.5</speed>
  <fix>3d</fix>
</trkpt>
<trkpt lat="40.0716805" lon="-105.2297851">
  <ele>1583.05</ele>
  <time>2026-08-28T17:54:22Z</time>
  <course>34.04</course>
  <speed>0.6700746227100381</speed>
  <fix>3d</fix>
</trkpt>
<trkpt lat="40.07168" lon="-105.229786">
  <ele>1583.0</ele>
  <time>2026-08-28T17:54:22Z</time>
  <course>28.11</course>
  <speed>0.5</speed>
  <fix>3d</fix>
</trkpt>
<trkpt lat="40.071681" lon="-105.2297846">
  <ele>1583.05</ele>
  <time>2026-08-28T17:54:22Z</time>
  <course>38.08</course>
  <speed>0.7648529270389177</speed>
  <fix>3d</fix>
</trkpt>
<trkpt lat="40.071681" lon="-105.2297853">
  <ele>1583.0</ele>
  <time>2026-08-28T17:54:22Z</time>
  <course>33.97</course>
  <speed>0.69</speed>
  <fix>3d</fix>
</trkpt>
<trkpt lat="40.0716817" lon="-105.2297839">
  <ele>1583.04</ele>
  <time>2026-08-28T17:54:22Z</time>
  <course>43.1</course>
  <speed>0.8558621384311844</speed>
  <fix>3d</fix>
</trkpt>
<trkpt lat="40.071681" lon="-105.2297853">
  <ele>1583.0</ele>
  <time>2026-08-28T17:54:22Z</time>
  <course>33.97</course>
  <speed>0.69</speed>
  <fix>3d</fix>
</trkpt>
<trkpt lat="40.0716823" lon="-105.2297831">
  <ele>1583.04</ele>
  <time>2026-08-28T17:54:22Z</time>
  <course>48.93</course>
  <speed>0.9542536350467836</speed>
  <fix>3d</fix>
</trkpt>
<trkpt lat="40.071682" lon="-105.2297842">
  <ele>1583.0</ele>
  <time>2026-08-28T17:54:22Z</time>
  <course>43.06</course>
  <speed>0.86</speed>
  <fix>3d</fix>
</trkpt>
<trkpt lat="40.0716828" lon="-105.2297822">
  <ele>1583.04</ele>
  <time>2026-08-28T17:54:23Z</time>
  <course>55.28</course>
  <speed>1.0377379245262264</speed>
  <fix>3d</fix>
</trkpt>
<trkpt lat="40.071682" lon="-105.2297842">
  <ele>1583.0</ele>
  <time>2026-08-28T17:54:23Z</time>
  <course>43.06</course>
  <speed>0.86</speed>
  <fix>3d</fix>
</trkpt>
<trkpt lat="40.0716834" lon="-105.229781">
  <ele>1583.04</ele>
  <time>2026-08-28T17:54:23Z</time>
  <course>62.13</course>
  <speed>1.1182575731914361</speed>
  <fix>3d</fix>
</trkpt>
<trkpt lat="40.0716831" lon="-105.2297825">
  <ele>1583.0</ele>
  <time>2026-08-28T17:54:23Z</time>
  <course>55.04</course>
  <speed>1.02</speed>
  <fix>3d</fix>
</trkpt>
<trkpt lat="40.0716838" lon="-105.2297798">
  <ele>1583.03</ele>
  <time>2026-08-28T17:54:23Z</time>
  <course>69.43</course>
  <speed>1.1921828718783036</speed>
  <fix>3d</fix>
</trkpt>
<trkpt lat="40.0716831" lon="-105.2297825">
  <ele>1583.0</ele>
  <time>2026-08-28T17:54:23Z</time>
  <course>55.04</course>
  <speed>1.02</speed>
  <fix>3d</fix>
</trkpt>
<trkpt lat="40.0716841" lon="-105.2297784">
  <ele>1583.03</ele>
  <time>2026-08-28T17:54:23Z</time>
  <course>77.16</course>
  <speed>1.2630122723077555</speed>
  <fix>3d</fix>
</trkpt>
<trkpt lat="40.0716831" lon="-105.2297825">
  <ele>1583.0</ele>
  <time>2026-08-28T17:54:23Z</time>
  <course>55.04</course>
  <speed>1.02</speed>
  <fix>3d</fix>
</trkpt>
<trkpt lat="40.0716843" lon="-105.2297769">
  <ele>1583.03</ele>
  <time>2026-08-28T17:54:23Z</time>
  <course>85.26</course>
  <speed>1.3218547575282242</speed>
  <fix>3d</fix>
</trkpt>
<trkpt lat="40.0716841" lon="-105.2297801">
  <ele>1583.0</ele>
  <time>2026-08-28T17:54:23Z</time>
  <course>69.11</course>
  <speed>1.16</speed>
  <fix>3d</fix>
</trkpt>
<trkpt lat="40.0716843" lon="-105.2297753">
  <ele>1583.03</ele>
  <time>2026-08-28T17:54:23Z</time>
  <course>93.69</course>
  <speed>1.3744089638822936</speed>
  <fix>3d</fix>
</trkpt>
<trkpt lat="40.0716841" lon="-105.2297801">
  <ele>1583.0</ele>
  <time>2026-08-28T17:54:23Z</time>
  <course>69.11</course>
  <speed>1.16</speed>
  <fix>3d</fix>
</trkpt>
<trkpt lat="40.0716842" lon="-105.2297737">
  <ele>1583.02</ele>
  <time>2026-08-28T17:54:23Z</time>
  <course>102.41</course>
  <speed>1.4166156853571825</speed>
  <fix>3d</fix>
</trkpt>
<trkpt lat="40.0716846" lon="-105.2297773">
  <ele>1583.0</ele>
  <time>2026-08-28T17:54:23Z</time>
  <course>84.84</course>
  <speed>1.28</speed>
  <fix>3d</fix>
</trkpt>
<trkpt lat="40.0716838" lon="-105.2297721">
  <ele>1583.02</ele>
  <time>2026-08-28T17:54:23Z</time>
  <course>111.2</course>
  <speed>1.453994497926316</speed>
  <fix>3d</fix>
</trkpt>
<trkpt lat="40.0716846" lon="-105.2297773">
  <ele>1583.0</ele>
  <time>2026-08-28T17:54:23Z</time>
  <course>84.84</course>
  <speed>1.28</speed>
  <fix>3d</fix>
</trkpt>
<trkpt lat="40.0716832" lon="-105.2297706">
  <ele>1583.02</ele>
  <time>2026-08-28T17:54:23Z</time>
  <course>119.74</course>
  <speed>1.4785127662620976</speed>
  <fix>3d</fix>
</trkpt>
<trkpt lat="40.0716845" lon="-105.2297743">
  <ele>1583.0</ele>
  <time>2026-08-28T17:54:23Z</time>
  <course>101.78</course>
  <speed>1.37</speed>
  <fix>3d</fix>
</trkpt>
<trkpt lat="40.0716826" lon="-105.2297691">
  <ele>1583.01</ele>
  <time>2026-08-28T17:54:23Z</time>
  <course>127.97</course>
  <speed>1.4962620091414471</speed>
  <fix>3d</fix>
</trkpt>
<trkpt lat="40.0716837" lon="-105.2297711">
  <ele>1583.0</ele>
  <time>2026-08-28T17:54:23Z</time>
  <course>118.81</course>
  <speed>1.44</speed>
  <fix>3d</fix>
</trkpt>
<trkpt lat="40.0716817" lon="-105.2297678">
  <ele>1583.01</ele>
  <time>2026-08-28T17:54:23Z</time>
  <course>135.62</course>
  <speed>1.5132745950421558</speed>
  <fix>3d</fix>
</trkpt>
<trkpt lat="40.0716837" lon="-105.2297711">
  <ele>1583.0</ele>
  <time>2026-08-28T17:54:23Z</time>
  <course>118.81</course>
  <speed>1.44</speed>
  <fix>3d</fix>
</trkpt>
<trkpt lat="40.0716807" lon="-105.2297667">
  <ele>1583.01</ele>
  <time>2026-08-28T17:54:23Z</time>
  <course>142.65</course>
  <speed>1.534046935396698</speed>
  <fix>3d</fix>
</trkpt>
<trkpt lat="40.0716821" lon="-105.2297684">
  <ele>1583.0</ele>
  <time>2026-08-28T17:54:23Z</time>
  <course>134.43</course>
  <speed>1.49</speed>
  <fix>3d</fix>
</trkpt>
<trkpt lat="40.0716795" lon="-105.2297657">
  <ele>1583.0</ele>
  <time>2026-08-28T17:54:23Z</time>
  <course>148.97</course>
  <speed>1.5435025105259792</speed>
  <fix>3d</fix>
</trkpt>
<trkpt lat="40.0716821" lon="-105.2297684">
  <ele>1583.0</ele>
  <time>2026-08-28T17:54:23Z</time>
  <course>134.43</course>
  <speed>1.49</speed>
  <fix>3d</fix>
</trkpt>
<trkpt lat="40.0716783" lon="-105.2297649">
  <ele>1583.0</ele>
  <time>2026-08-28T17:54:23Z</time>
  <course>154.66</course>
  <speed>1.5610893632332519</speed>
  <fix>3d</fix>
</trkpt>
<trkpt lat="40.07168" lon="-105.2297662">
  <ele>1583.0</ele>
  <time>2026-08-28T17:54:23Z</time>
  <course>147.77</course>
  <speed>1.53</speed>
  <fix>3d</fix>
</trkpt>
<trkpt lat="40.071677" lon="-105.2297642">
  <ele>1583.0</ele>
  <time>2026-08-28T17:54:23Z</time>
  <course>159.67</course>
  <speed>1.5788920165736477</speed>
  <fix>3d</fix>
</trkpt>
<trkpt lat="40.07168" lon="-105.2297662">
  <ele>1583.0</ele>
  <time>2026-08-28T17:54:23Z</time>
  <course>147.77</course>
  <speed>1.53</speed>
  <fix>3d</fix>
</trkpt>
<trkpt lat="40.0716757" lon="-105.2297636">
  <ele>1583.0</ele>
  <time>2026-08-28T17:54:23Z</time>
  <course>164.05</course>
  <speed>1.5920113064925134</speed>
  <fix>3d</fix>
</trkpt>
<trkpt lat="40.0716775" lon="-105.2297646">
  <ele>1583.0</ele>
  <time>2026-08-28T17:54:23Z</time>
  <course>158.47</course>
  <speed>1.57</speed>
  <fix>3d</fix>
</trkpt>
<trkpt lat="40.0716743" lon="-105.2297632">
  <ele>1583.0</ele>
  <time>2026-08-28T17:54:23Z</time>
  <course>167.87</course>
  <speed>1.616168308066954</speed>
  <fix>3d</fix>
</trkpt>
<trkpt lat="40.0716775" lon="-105.2297646">
  <ele>1583.0</ele>
  <time>2026-08-28T17:54:23Z</time>
  <course>158.47</course>
  <speed>1.57</speed>
  <fix>3d</fix>
</trkpt>
<trkpt lat="40.0716728" lon="-105.2297629">
  <ele>1583.0</ele>
  <time>2026-08-28T17:54:23Z</time>
  <course>171.12</course>
  <speed>1.6407315441594945</speed>
  <fix>3d</fix>
</trkpt>
<trkpt lat="40.0716747" lon="-105.2297634">
  <ele>1583.0</ele>
  <time>2026-08-28T17:54:23Z</time>
  <course>166.68</course>
  <speed>1.62</speed>
  <fix>3d</fix>
</trkpt>
<trkpt lat="40.0716713" lon="-105.2297626">
  <ele>1583.0</ele>
  <time>2026-08-28T17:54:23Z</time>
  <course>173.94</course>
  <speed>1.6697305171793442</speed>
  <fix>3d</fix>
</trkpt>
<trkpt lat="40.0716747" lon="-105.2297634">
  <ele>1583.0</ele>
  <time>2026-08-28T17:54:23Z</time>
  <course>166.68</course>
  <speed>1.62</speed>
  <fix>3d</fix>
</trkpt>
<trkpt lat="40.0716698" lon="-105.2297625">
  <ele>1583.0</ele>
  <time>2026-08-28T17:54:23Z</time>
  <course>176.41</course>
  <speed>1.6835973390332974</speed>
  <fix>3d</fix>
</trkpt>
<trkpt lat="40.0716719" lon="-105.2297628">
  <ele>1583.0</ele>
  <time>2026-08-28T17:54:23Z</time>
  <course>172.82</course>
  <speed>1.67</speed>
  <fix>3d</fix>
</trkpt>
<trkpt lat="40.0716683" lon="-105.2297624">
  <ele>1583.01</ele>
  <time>2026-08-28T17:54:23Z</time>
  <course>178.5</course>
  <speed>1.710730837975396</speed>
  <fix>3d</fix>
</trkpt>
<trkpt lat="40.0716719" lon="-105.2297628">
  <ele>1583.0</ele>
  <time>2026-08-28T17:54:23Z</time>
  <course>172.82</course>
  <speed>1.67</speed>
  <fix>3d</fix>
</trkpt>
<trkpt lat="40.0716667" lon="-105.2297624">
  <ele>1583.01</ele>
  <time>2026-08-28T17:54:23Z</time>
  <course>180.22</course>
  <speed>1.75</speed>
  <fix>3d</fix>
</trkpt>
<trkpt lat="40.0716688" lon="-105.2297624">
  <ele>1583.0</ele>
  <time>2026-08-28T17:54:23Z</time>
  <course>177.35</course>
  <speed>1.73</speed>
  <fix>3d</fix>
</trkpt>
<trkpt lat="40.0716651" lon="-105.2297624">
  <ele>1583.01</ele>
  <time>2026-08-28T17:54:23Z</time>
  <course>181.64</course>
  <speed>1.790446871593793</speed>
  <fix>3d</fix>
</trkpt>
<trkpt lat="40.0716688" lon="-105.2297624">
  <ele>1583.0</ele>
  <time>2026-08-28T17:54:23Z</time>
  <course>177.35</course>
  <speed>1.73</speed>
  <fix>3d</fix>
</trkpt>
<trkpt lat="40.0716635" lon="-105.2297624">
  <ele>1583.0</ele>
  <time>2026-08-28T17:54:23Z</time>
  <course>182.81</course>
  <speed>1.841738309315414</speed>
  <fix>3d</fix>
</trkpt>
<trkpt lat="40.0716688" lon="-105.2297624">
  <ele>1583.0</ele>
  <time>2026-08-28T17:54:23Z</time>
  <course>177.35</course>
  <speed>1.73</speed>
  <fix>3d</fix>
</trkpt>
<trkpt lat="40.0716618" lon="-105.2297625">
  <ele>1583.0</ele>
  <time>2026-08-28T17:54:23Z</time>
  <course>183.77</course>
  <speed>1.9031815467789719</speed>
  <fix>3d</fix>
</trkpt>
<trkpt lat="40.0716656" lon="-105.2297624">
  <ele>1583.0</ele>
  <time>2026-08-28T17:54:23Z</time>
  <course>180.55</course>
  <speed>1.81</speed>
  <fix>3d</fix>
</trkpt>
<trkpt lat="40.0716601" lon="-105.2297627">
  <ele>1583.0</ele>
  <time>2026-08-28T17:54:23Z</time>
  <course>184.55</course>
  <speed>1.9649936386665479</speed>
  <fix>3d</fix>
</trkpt>
<trkpt lat="40.0716656" lon="-105.2297624">
  <ele>1583.0</ele>
  <time>2026-08-28T17:54:23Z</time>
  <course>180.55</course>
  <speed>1.81</speed>
  <fix>3d</fix>
</trkpt>
<trkpt lat="40.0716583" lon="-105.2297628">
  <ele>1583.0</ele>
  <time>2026-08-28T17:54:23Z</time>
  <course>185.19</course>
  <speed>2.04707107839469</speed>
  <fix>3d</fix>
</trkpt>
<trkpt lat="40.0716622" lon="-105.2297624">
  <ele>1583.0</ele>
  <time>2026-08-28T17:54:23Z</time>
  <course>182.7</course>
  <speed>1.93</speed>
  <fix>3d</fix>
</trkpt>
<trkpt lat="40.0716564" lon="-105.229763">
  <ele>1583.0</ele>
  <time>2026-08-28T17:54:23Z</time>
  <course>185.7</course>
  <speed>2.128497122384712</speed>
  <fix>3d</fix>
</trkpt>
<trkpt lat="40.0716622" lon="-105.2297624">
  <ele>1583.0</ele>
  <time>2026-08-28T17:54:23Z</time>
  <course>182.7</course>
  <speed>1.93</speed>
  <fix>3d</fix>
</trkpt>
<trkpt lat="40.0716544" lon="-105.2297633">
  <ele>1583.0</ele>
  <time>2026-08-28T17:54:23Z</time>
  <course>186.11</course>
  <speed>2.21</speed>
  <fix>3d</fix>
</trkpt>
<trkpt lat="40.0716586" lon="-105.2297627">
  <ele>1583.0</ele>
  <time>2026-08-28T17:54:23Z</time>
  <course>184.14</course>
  <speed>2.07</speed>
  <fix>3d</fix>
</trkpt>
<trkpt lat="40.0716524" lon="-105.2297635">
  <ele>1583.0</ele>
  <time>2026-08-28T17:54:23Z</time>
  <course>186.44</course>
  <speed>2.3015212360523636</speed>
  <fix>3d</fix>
</trkpt>
<trkpt lat="40.0716586" lon="-105.2297627">
  <ele>1583.0</ele>
  <time>2026-08-28T17:54:23Z</time>
  <course>184.14</course>
  <speed>2.07</speed>
  <fix>3d</fix>
</trkpt>
<trkpt lat="40.0716503" lon="-105.2297638">
  <ele>1583.0</ele>
  <time>2026-08-28T17:54:23Z</time>
  <course>186.69</course>
  <speed>2.403039741660549</speed>
  <fix>3d</fix>
</trkpt>
<trkpt lat="40.0716548" lon="-105.2297631">
  <ele>1583.0</ele>
  <time>2026-08-28T17:54:23Z</time>
  <course>185.06</course>
  <speed>2.24</speed>
  <fix>3d</fix>
</trkpt>
<trkpt lat="40.071648" lon="-105.2297641">
  <ele>1583.01</ele>
  <time>2026-08-28T17:54:23Z</time>
  <course>186.88</course>
  <speed>2.5045957757690163</speed>
  <fix>3d</fix>
</trkpt>
<trkpt lat="40.0716506" lon="-105.2297636">
  <ele>1583.0</ele>
  <time>2026-08-28T17:54:23Z</time>
  <course>185.64</course>
  <speed>2.43</speed>
  <fix>3d</fix>
</trkpt>
<trkpt lat="40.0716457" lon="-105.2297644">
  <ele>1583.01</ele>
  <time>2026-08-28T17:54:23Z</time>
  <course>187.01</course>
  <speed>2.616123085789352</speed>
  <fix>3d</fix>
</trkpt>
<trkpt lat="40.0716506" lon="-105.2297636">
  <ele>1583.0</ele>
  <time>2026-08-28T17:54:23Z</time>
  <course>185.64</course>
  <speed>2.43</speed>
  <fix>3d</fix>
</trkpt>
<trkpt lat="40.0716433" lon="-105.2297647">
  <ele>1583.01</ele>
  <time>2026-08-28T17:54:23Z</time>
  <course>187.09</course>
  <speed>2.7166155414412247</speed>
  <fix>3d</fix>
</trkpt>
<trkpt lat="40.071646" lon="-105.2297643">
  <ele>1583.0</ele>
  <time>2026-08-28T17:54:23Z</time>
  <course>185.95</course>
  <speed>2.64</speed>
  <fix>3d</fix>
</trkpt>
<trkpt lat="40.0716408" lon="-105.2297651">
  <ele>1583.01</ele>
  <time>2026-08-28T17:54:23Z</time>
  <course>187.13</course>
  <speed>2.838097954616789</speed>
  <fix>3d</fix>
</trkpt>
<trkpt lat="40.071646" lon="-105.2297643">
  <ele>1583.0</ele>
  <time>2026-08-28T17:54:23Z</time>
  <course>185.95</course>
  <speed>2.64</speed>
  <fix>3d</fix>
</trkpt>
<trkpt lat="40.0716381" lon="-105.2297655">
  <ele>1583.01</ele>
  <time>2026-08-28T17:54:23Z</time>
  <course>187.14</course>
  <speed>2.948525055006316</speed>
  <fix>3d</fix>
</trkpt>
<trkpt lat="40.0716411" lon="-105.2297649">
  <ele>1583.0</ele>
  <time>2026-08-28T17:54:23Z</time>
  <course>186.08</course>
  <speed>2.86</speed>
  <fix>3d</fix>
</trkpt>
<trkpt lat="40.0716353" lon="-105.2297658">
  <ele>1583.01</ele>
  <time>2026-08-28T17:54:23Z</time>
  <course>187.14</course>
  <speed>3.058954069612684</speed>
  <fix>3d</fix>
</trkpt>
<trkpt lat="40.0716411" lon="-105.2297649">
  <ele>1583.0</ele>
  <time>2026-08-28T17:54:23Z</time>
  <course>186.08</course>
  <speed>2.86</speed>
  <fix>3d</fix>
</trkpt>
<trkpt lat="40.0716325" lon="-105.2297662">
  <ele>1583.01</ele>
  <time>2026-08-28T17:54:23Z</time>
  <course>187.12</course>
  <speed>3.179323827482819</speed>
  <fix>3d</fix>
</trkpt>
<trkpt lat="40.0716358" lon="-105.2297657">
  <ele>1583.0</ele>
  <time>2026-08-28T17:54:23Z</time>
  <course>186.09</course>
  <speed>3.08</speed>
  <fix>3d</fix>
</trkpt>
<trkpt lat="40.0716295" lon="-105.2297667">
  <ele>1583.01</ele>
  <time>2026-08-28T17:54:23Z</time>
  <course>187.08</course>
  <speed>3.2897568299191966</speed>
  <fix>3d</fix>
</trkpt>
<trkpt lat="40.0716358" lon="-105.2297657">
  <ele>1583.0</ele>
  <time>2026-08-28T17:54:23Z</time>
  <course>186.09</course>
  <speed>3.08</speed>
  <fix>3d</fix>
</trkpt>
<trkpt lat="40.0716265" lon="-105.2297671">
  <ele>1583.01</ele>
  <time>2026-08-28T17:54:23Z</time>
  <course>187.03</course>
  <speed>3.4001911710961195</speed>
  <fix>3d</fix>
</trkpt>
<trkpt lat="40.0716301" lon="-105.2297665">
  <ele>1583.0</ele>
  <time>2026-08-28T17:54:23Z</time>
  <course>186.03</course>
  <speed>3.3</speed>
  <fix>3d</fix>
</trkpt>
<trkpt lat="40.0716233" lon="-105.2297675">
  <ele>1583.01</ele>
  <time>2026-08-28T17:54:23Z</time>
  <course>186.93</course>
  <speed>3.520568135968966</speed>
  <fix>3d</fix>
</trkpt>
<trkpt lat="40.0716301" lon="-105.2297665">
  <ele>1583.0</ele>
  <time>2026-08-28T17:54:23Z</time>
  <course>186.03</course>
  <speed>3.3</speed>
  <fix>3d</fix>
</trkpt>
<trkpt lat="40.07162" lon="-105.2297679">
  <ele>1583.01</ele>
  <time>2026-08-28T17:54:23Z</time>
  <course>186.84</course>
  <speed>3.629944903163132</speed>
  <fix>3d</fix>
</trkpt>
<trkpt lat="40.071624" lon="-105.2297673">
  <ele>1583.0</ele>
  <time>2026-08-28T17:54:23Z</time>
  <course>185.88</course>
  <speed>3.51</speed>
  <fix>3d</fix>
</trkpt>
<trkpt lat="40.0716167" lon="-105.2297684">
  <ele>1583.02</ele>
  <time>2026-08-28T17:54:23Z</time>
  <course>186.74</course>
  <speed>3.7403876804416942</speed>
  <fix>3d</fix>
</trkpt>
<trkpt lat="40.071624" lon="-105.2297673">
  <ele>1583.0</ele>
  <time>2026-08-28T17:54:23Z</time>
  <course>185.88</course>
  <speed>3.51</speed>
  <fix>3d</fix>
</trkpt>
<trkpt lat="40.0716132" lon="-105.2297688">
  <ele>1583.02</ele>
  <time>2026-08-28T17:54:23Z</time>
  <course>186.64</course>
  <speed>3.8398567681620626</speed>
  <fix>3d</fix>
</trkpt>
<trkpt lat="40.0716175" lon="-105.2297682">
  <ele>1583.0</ele>
  <time>2026-08-28T17:54:23Z</time>
  <course>185.69</course>
  <speed>3.73</speed>
  <fix>3d</fix>
</trkpt>
<trkpt lat="40.0716097" lon="-105.2297693">
  <ele>1583.02</ele>
  <time>2026-08-28T17:54:23Z</time>
  <course>186.53</course>
  <speed>3.9493037361033654</speed>
  <fix>3d</fix>
</trkpt>
<trkpt lat="40.0716175" lon="-105.2297682">
  <ele>1583.0</ele>
  <time>2026-08-28T17:54:23Z</time>
  <course>185.69</course>
  <speed>3.73</speed>
  <fix>3d</fix>
</trkpt>
<trkpt lat="40.0716061" lon="-105.2297697">
  <ele>1583.03</ele>
  <time>2026-08-28T17:54:23Z</time>
  <course>186.41</course>
  <speed>4.058780605058618</speed>
  <fix>3d</fix>
</trkpt>
<trkpt lat="40.0716175" lon="-105.2297682">
  <ele>1583.0</ele>
  <time>2026-08-28T17:54:23Z</time>
  <course>185.69</course>
  <speed>3.73</speed>
  <fix>3d</fix>
</trkpt>
<trkpt lat="40.0716024" lon="-105.2297702">
  <ele>1583.03</ele>
  <time>2026-08-28T17:54:23Z</time>
  <course>186.26</course>
  <speed>4.158328991313699</speed>
  <fix>3d</fix>
</trkpt>
<trkpt lat="40.0716107" lon="-105.229769">
  <ele>1583.0</ele>
  <time>2026-08-28T17:54:23Z</time>
  <course>185.47</course>
  <speed>3.94</speed>
  <fix>3d</fix>
</trkpt>
<trkpt lat="40.0715986" lon="-105.2297706">
  <ele>1583.03</ele>
  <time>2026-08-28T17:54:23Z</time>
  <course>186.13</course>
  <speed>4.257898542708598</speed>
  <fix>3d</fix>
</trkpt>
<trkpt lat="40.0716107" lon="-105.229769">
  <ele>1583.0</ele>
  <time>2026-08-28T17:54:23Z</time>
  <course>185.47</course>
  <speed>3.94</speed>
  <fix>3d</fix>
</trkpt>
<trkpt lat="40.0715948" lon="-105.2297711">
  <ele>1583.03</ele>
  <time>2026-08-28T17:54:23Z</time>
  <course>186.0</course>
  <speed>4.357487808359307</speed>
  <fix>3d</fix>
</trkpt>
<trkpt lat="40.0716034" lon="-105.2297699">
  <ele>1583.0</ele>
  <time>2026-08-28T17:54:23Z</time>
  <course>185.21</course>
  <speed>4.14</speed>
  <fix>3d</fix>
</trkpt>
<trkpt lat="40.0715908" lon="-105.2297715">
  <ele>1583.03</ele>
  <time>2026-08-28T17:54:23Z</time>
  <course>185.87</course>
  <speed>4.45709546678103</speed>
  <fix>3d</fix>
</trkpt>
<trkpt lat="40.0716034" lon="-105.2297699">
  <ele>1583.0</ele>
  <time>2026-08-28T17:54:23Z</time>
  <course>185.21</course>
  <speed>4.14</speed>
  <fix>3d</fix>
</trkpt>
<trkpt lat="40.0715868" lon="-105.2297719">
  <ele>1583.03</ele>
  <time>2026-08-28T17:54:23Z</time>
  <course>185.75</course>
  <speed>4.556720311803216</speed>
  <fix>3d</fix>
</trkpt>
<trkpt lat="40.0715959" lon="-105.2297708">
  <ele>1583.0</ele>
  <time>2026-08-28T17:54:23Z</time>
  <course>184.94</course>
  <speed>4.34</speed>
  <fix>3d</fix>
</trkpt>
<trkpt lat="40.0715827" lon="-105.2297724">
  <ele>1583.02</ele>
  <time>2026-08-28T17:54:23Z</time>
  <course>185.63</course>
  <speed>4.655534340975266</speed>
  <fix>3d</fix>
</trkpt>
<trkpt lat="40.0715879" lon="-105.2297716">
  <ele>1583.0</ele>
  <time>2026-08-28T17:54:23Z</time>
  <course>184.69</course>
  <speed>4.54</speed>
  <fix>3d</fix>
</trkpt>
<trkpt lat="40.0715784" lon="-105.2297728">
  <ele>1583.02</ele>
  <time>2026-08-28T17:54:23Z</time>
  <course>185.5</course>
  <speed>4.745239719972006</speed>
  <fix>3d</fix>
</trkpt>
<trkpt lat="40.0715879" lon="-105.2297716">
  <ele>1583.0</ele>
  <time>2026-08-28T17:54:23Z</time>
  <course>184.69</course>
  <speed>4.54</speed>
  <fix>3d</fix>
</trkpt>
<trkpt lat="40.0715741" lon="-105.2297732">
  <ele>1583.02</ele>
  <time>2026-08-28T17:54:23Z</time>
  <course>185.4</course>
  <speed>4.834956049438299</speed>
  <fix>3d</fix>
</trkpt>
<trkpt lat="40.0715796" lon="-105.2297725">
  <ele>1583.0</ele>
  <time>2026-08-28T17:54:23Z</time>
  <course>184.45</course>
  <speed>4.73</speed>
  <fix>3d</fix>
</trkpt>
<trkpt lat="40.0715698" lon="-105.2297736">
  <ele>1583.01</ele>
  <time>2026-08-28T17:54:23Z</time>
  <course>185.33</course>
  <speed>4.9147126060432065</speed>
  <fix>3d</fix>
</trkpt>
<trkpt lat="40.0715796" lon="-105.2297725">
  <ele>1583.0</ele>
  <time>2026-08-28T17:54:23Z</time>
  <course>184.45</course>
  <speed>4.73</speed>
  <fix>3d</fix>
</trkpt>
<trkpt lat="40.0715653" lon="-105.2297741">
  <ele>1583.01</ele>
  <time>2026-08-28T17:54:23Z</time>
  <course>185.27</course>
  <speed>4.984505993576494</speed>
  <fix>3d</fix>
</trkpt>
<trkpt lat="40.071571" lon="-105.2297734">
  <ele>1583.0</ele>
  <time>2026-08-28T17:54:23Z</time>
  <course>184.27</course>
  <speed>4.9</speed>
  <fix>3d</fix>
</trkpt>
<trkpt lat="40.0715607" lon="-105.2297745">
  <ele>1583.01</ele>
  <time>2026-08-28T17:54:23Z</time>
  <course>185.2</course>
  <speed>5.054305095658552</speed>
  <fix>3d</fix>
</trkpt>
<trkpt lat="40.071571" lon="-105.2297734">
  <ele>1583.0</ele>
  <time>2026-08-28T17:54:23Z</time>
  <course>184.27</course>
  <speed>4.9</speed>
  <fix>3d</fix>
</trkpt>
<trkpt lat="40.0715562" lon="-105.2297749">
  <ele>1583.01</ele>
  <time>2026-08-28T17:54:23Z</time>
  <course>185.14</course>
  <speed>5.103430218980171</speed>
  <fix>3d</fix>
</trkpt>
<trkpt lat="40.071562" lon="-105.2297743">
  <ele>1583.0</ele>
  <time>2026-08-28T17:54:23Z</time>
  <course>184.13</course>
  <speed>5.03</speed>
  <fix>3d</fix>
</trkpt>
<trkpt lat="40.0715515" lon="-105.2297753">
  <ele>1583.01</ele>
  <time>2026-08-28T17:54:23Z</time>
  <course>185.07</course>
  <speed>5.143325772299476</speed>
  <fix>3d</fix>
</trkpt>
<trkpt lat="40.071562" lon="-105.2297743">
  <ele>1583.0</ele>
  <time>2026-08-28T17:54:23Z</time>
  <course>184.13</course>
  <speed>5.03</speed>
  <fix>3d</fix>
</trkpt>
<trkpt lat="40.0715468" lon="-105.2297758">
  <ele>1583.01</ele>
  <time>2026-08-28T17:54:23Z</time>
  <course>185.0</course>
  <speed>5.172542894940554</speed>
  <fix>3d</fix>
</trkpt>
<trkpt lat="40.0715529" lon="-105.2297751">
  <ele>1583.0</ele>
  <time>2026-08-28T17:54:23Z</time>
  <course>184.0</course>
  <speed>5.12</speed>
  <fix>3d</fix>
</trkpt>
<trkpt lat="40.0715421" lon="-105.2297762">
  <ele>1583.01</ele>
  <time>2026-08-28T17:54:23Z</time>
  <course>184.93</course>
  <speed>5.192494583531118</speed>
  <fix>3d</fix>
</trkpt>
<trkpt lat="40.0715529" lon="-105.2297751">
  <ele>1583.0</ele>
  <time>2026-08-28T17:54:23Z</time>
  <course>184.0</course>
  <speed>5.12</speed>
  <fix>3d</fix>
</trkpt>
<trkpt lat="40.0715374" lon="-105.2297766">
  <ele>1583.01</ele>
  <time>2026-08-28T17:54:23Z</time>
  <course>184.86</course>
  <speed>5.201788154087016</speed>
  <fix>3d</fix>
</trkpt>
<trkpt lat="40.0715436" lon="-105.2297759">
  <ele>1583.0</ele>
  <time>2026-08-28T17:54:23Z</time>
  <course>183.86</course>
  <speed>5.17</speed>
  <fix>3d</fix>
</trkpt>
<trkpt lat="40.0715327" lon="-105.229777">
  <ele>1583.01</ele>
  <time>2026-08-28T17:54:23Z</time>
  <course>184.79</course>
  <speed>5.201124878331609</speed>
  <fix>3d</fix>
</trkpt>
<trkpt lat="40.0715436" lon="-105.2297759">
  <ele>1583.0</ele>
  <time>2026-08-28T17:54:23Z</time>
  <course>183.86</course>
  <speed>5.17</speed>
  <fix>3d</fix>
</trkpt>
<trkpt lat="40.0715281" lon="-105.2297774">
  <ele>1583.01</ele>
  <time>2026-08-28T17:54:23Z</time>
  <course>184.72</course>
  <speed>5.19050093921579</speed>
  <fix>3d</fix>
</trkpt>
<trkpt lat="40.0715344" lon="-105.2297768">
  <ele>1583.0</ele>
  <time>2026-08-28T17:54:23Z</time>
  <course>183.72</course>
  <speed>5.17</speed>
  <fix>3d</fix>
</trkpt>
<trkpt lat="40.0715234" lon="-105.2297777">
  <ele>1583.01</ele>
  <time>2026-08-28T17:54:23Z</time>
  <course>184.65</course>
  <speed>5.169912958648337</speed>
  <fix>3d</fix>
</trkpt>
<trkpt lat="40.0715344" lon="-105.2297768">
  <ele>1583.0</ele>
  <time>2026-08-28T17:54:23Z</time>
  <course>183.72</course>
  <speed>5.17</speed>
  <fix>3d</fix>
</trkpt>
<trkpt lat="40.0715188" lon="-105.2297781">
  <ele>1583.0</ele>
  <time>2026-08-28T17:54:23Z</time>
  <course>184.58</course>
  <speed>5.149951456081892</speed>
  <fix>3d</fix>
</trkpt>
<trkpt lat="40.0715344" lon="-105.2297768">
  <ele>1583.0</ele>
  <time>2026-08-28T17:54:23Z</time>
  <course>183.72</course>
  <speed>5.17</speed>
  <fix>3d</fix>
</trkpt>
<trkpt lat="40.0715142" lon="-105.2297784">
  <ele>1583.0</ele>
  <time>2026-08-28T17:54:23Z</time>
  <course>184.51</course>
  <speed>5.109412882122563</speed>
  <fix>3d</fix>
</trkpt>
<trkpt lat="40.0715251" lon="-105.2297775">
  <ele>1583.0</ele>
  <time>2026-08-28T17:54:23Z</time>
  <course>183.58</course>
  <speed>5.15</speed>
  <fix>3d</fix>
</trkpt>
<trkpt lat="40.0715097" lon="-105.2297788">
  <ele>1583.0</ele>
  <time>2026-08-28T17:54:23Z</time>
  <course>184.44</course>
  <speed>5.07886798410827</speed>
  <fix>3d</fix>
</trkpt>
<trkpt lat="40.0715251" lon="-105.2297775">
  <ele>1583.0</ele>
  <time>2026-08-28T17:54:23Z</time>
  <course>183.58</course>
  <speed>5.15</speed>
  <fix>3d</fix>
</trkpt>
<trkpt lat="40.0715052" lon="-105.2297791">
  <ele>1583.0</ele>
  <time>2026-08-28T17:54:23Z</time>
  <course>184.37</course>
  <speed>5.048336359633736</speed>
  <fix>3d</fix>
</trkpt>
<trkpt lat="40.0715159" lon="-105.2297782">
  <ele>1583.0</ele>
  <time>2026-08-28T17:54:23Z</time>
  <course>183.44</course>
  <speed>5.1</speed>
  <fix>3d</fix>
</trkpt>
<trkpt lat="40.0715007" lon="-105.2297794">
  <ele>1583.0</ele>
  <time>2026-08-28T17:54:23Z</time>
  <course>184.3</course>
  <speed>5.007833863058957</speed>
  <fix>3d</fix>
</trkpt>
<trkpt lat="40.0715159" lon="-105.2297782">
  <ele>1583.0</ele>
  <time>2026-08-28T17:54:23Z</time>
  <course>183.44</course>
  <speed>5.1</speed>
  <fix>3d</fix>
</trkpt>
<trkpt lat="40.0714963" lon="-105.2297797">
  <ele>1583.0</ele>
  <time>2026-08-28T17:54:23Z</time>
  <course>184.23</course>
  <speed>4.977328600765676</speed>
  <fix>3d</fix>
</trkpt>
<trkpt lat="40.0715068" lon="-105.2297789">
  <ele>1583.0</ele>
  <time>2026-08-28T17:54:23Z</time>
  <course>183.3</course>
  <speed>5.04</speed>
  <fix>3d</fix>
</trkpt>
<trkpt lat="40.0714919" lon="-105.22978">
  <ele>1583.0</ele>
  <time>2026-08-28T17:54:23Z</time>
  <course>184.17</course>
  <speed>4.936851223198852</speed>
  <fix>3d</fix>
</trkpt>
<trkpt lat="40.0714978" lon="-105.2297796">
  <ele>1583.0</ele>
  <time>2026-08-28T17:54:23Z</time>
  <course>183.16</course>
  <speed>4.97</speed>
  <fix>3d</fix>
</trkpt>
<trkpt lat="40.0714875" lon="-105.2297803">
  <ele>1582.99</ele>
  <time>2026-08-28T17:54:23Z</time>
  <course>184.1</course>
  <speed>4.906373406091306</speed>
  <fix>3d</fix>
</trkpt>
<trkpt lat="40.0714978" lon="-105.2297796">
  <ele>1583.0</ele>
  <time>2026-08-28T17:54:23Z</time>
  <course>183.16</course>
  <speed>4.97</speed>
  <fix>3d</fix>
</trkpt>
<trkpt lat="40.0714831" lon="-105.2297806">
  <ele>1582.99</ele>
  <time>2026-08-28T17:54:23Z</time>
  <course>184.04</course>
  <speed>4.865922317505696</speed>
  <fix>3d</fix>
</trkpt>
<trkpt lat="40.071489" lon="-105.2297802">
  <ele>1583.0</ele>
  <time>2026-08-28T17:54:23Z</time>
  <course>183.03</course>
  <speed>4.91</speed>
  <fix>3d</fix>
</trkpt>
<trkpt lat="40.0714788" lon="-105.2297809">
  <ele>1582.99</ele>
  <time>2026-08-28T17:54:23Z</time>
  <course>183.97</course>
  <speed>4.825484431639999</speed>
  <fix>3d</fix>
</trkpt>
<trkpt lat="40.071489" lon="-105.2297802">
  <ele>1583.0</ele>
  <time>2026-08-28T17:54:23Z</time>
  <course>183.03</course>
  <speed>4.91</speed>
  <fix>3d</fix>
</trkpt>
<trkpt lat="40.0714745" lon="-105.2297812">
  <ele>1582.98</ele>
  <time>2026-08-28T17:54:23Z</time>
  <course>183.96</course>
  <speed>4.785530273647844</speed>
  <fix>3d</fix>
</trkpt>
<trkpt lat="40.0714802" lon="-105.2297809">
  <ele>1583.0</ele>
  <time>2026-08-28T17:54:23Z</time>
  <course>182.92</course>
  <speed>4.84</speed>
  <fix>3d</fix>
</trkpt>
<trkpt lat="40.0714702" lon="-105.2297814">
  <ele>1582.98</ele>
  <time>2026-08-28T17:54:23Z</time>
  <course>183.94</course>
  <speed>4.735588664569591</speed>
  <fix>3d</fix>
</trkpt>
<trkpt lat="40.0714802" lon="-105.2297809">
  <ele>1583.0</ele>
  <time>2026-08-28T17:54:23Z</time>
  <course>182.92</course>
  <speed>4.84</speed>
  <fix>3d</fix>
</trkpt>
<trkpt lat="40.071466" lon="-105.2297817">
  <ele>1582.98</ele>
  <time>2026-08-28T17:54:23Z</time>
  <course>183.94</course>
  <speed>4.675179140952783</speed>
  <fix>3d</fix>
</trkpt>
<trkpt lat="40.0714716" lon="-105.2297814">
  <ele>1583.0</ele>
  <time>2026-08-28T17:54:23Z</time>
  <course>182.87</course>
  <speed>4.75</speed>
  <fix>3d</fix>
</trkpt>
<trkpt lat="40.0714618" lon="-105.229782">
  <ele>1582.98</ele>
  <time>2026-08-28T17:54:23Z</time>
  <course>183.94</course>
  <speed>4.615246472291593</speed>
  <fix>3d</fix>
</trkpt>
<trkpt lat="40.0714716" lon="-105.2297814">
  <ele>1583.0</ele>
  <time>2026-08-28T17:54:23Z</time>
  <course>182.87</course>
  <speed>4.75</speed>
  <fix>3d</fix>
</trkpt>
<trkpt lat="40.0714576" lon="-105.2297822">
  <ele>1582.98</ele>
  <time>2026-08-28T17:54:23Z</time>
  <course>183.94</course>
  <speed>4.5448542330860295</speed>
  <fix>3d</fix>
</trkpt>
<trkpt lat="40.0714631" lon="-105.229782">
  <ele>1583.0</ele>
  <time>2026-08-28T17:54:23Z</time>
  <course>182.86</course>
  <speed>4.63</speed>
  <fix>3d</fix>
</trkpt>
<trkpt lat="40.0714535" lon="-105.2297825">
  <ele>1582.98</ele>
  <time>2026-08-28T17:54:23Z</time>
  <course>183.94</course>
  <speed>4.464941209019442</speed>
  <fix>3d</fix>
</trkpt>
<trkpt lat="40.0714631" lon="-105.229782">
  <ele>1583.0</ele>
  <time>2026-08-28T17:54:23Z</time>
  <course>182.86</course>
  <speed>4.63</speed>
  <fix>3d</fix>
</trkpt>
<trkpt lat="40.0714496" lon="-105.2297828">
  <ele>1582.97</ele>
  <time>2026-08-28T17:54:23Z</time>
  <course>183.94</course>
  <speed>4.374574264999967</speed>
  <fix>3d</fix>
</trkpt>
<trkpt lat="40.071455" lon="-105.2297825">
  <ele>1583.0</ele>
  <time>2026-08-28T17:54:23Z</time>
  <course>182.86</course>
  <speed>4.48</speed>
  <fix>3d</fix>
</trkpt>
<trkpt lat="40.0714457" lon="-105.229783">
  <ele>1582.97</ele>
  <time>2026-08-28T17:54:23Z</time>
  <course>183.94</course>
  <speed>4.274681274668323</speed>
  <fix>3d</fix>
</trkpt>
<trkpt lat="40.071455" lon="-105.2297825">
  <ele>1583.0</ele>
  <time>2026-08-28T17:54:23Z</time>
  <course>182.86</course>
  <speed>4.48</speed>
  <fix>3d</fix>
</trkpt>
<trkpt lat="40.0714419" lon="-105.2297833">
  <ele>1582.97</ele>
  <time>2026-08-28T17:54:23Z</time>
  <course>183.94</course>
  <speed>4.17432629294836</speed>
  <fix>3d</fix>
</trkpt>
<trkpt lat="40.0714471" lon="-105.229783">
  <ele>1583.0</ele>
  <time>2026-08-28T17:54:23Z</time>
  <course>182.86</course>
  <speed>4.3</speed>
  <fix>3d</fix>
</trkpt>
<trkpt lat="40.0714382" lon="-105.2297835">
  <ele>1582.98</ele>
  <time>2026-08-28T17:54:23Z</time>
  <course>183.94</course>
  <speed>4.064443381325418</speed>
  <fix>3d</fix>
</trkpt>
<trkpt lat="40.0714471" lon="-105.229783">
  <ele>1583.0</ele>
  <time>2026-08-28T17:54:23Z</time>
  <course>182.86</course>
  <speed>4.3</speed>
  <fix>3d</fix>
</trkpt>
<trkpt lat="40.0714346" lon="-105.2297837">
  <ele>1582.98</ele>
  <time>2026-08-28T17:54:23Z</time>
  <course>183.94</course>
  <speed>3.944109531947611</speed>
  <fix>3d</fix>
</trkpt>
<trkpt lat="40.0714471" lon="-105.229783">
  <ele>1583.0</ele>
  <time>2026-08-28T17:54:23Z</time>
  <course>182.86</course>
  <speed>4.3</speed>
  <fix>3d</fix>
</trkpt>
<trkpt lat="40.0714311" lon="-105.2297839">
  <ele>1582.98</ele>
  <time>2026-08-28T17:54:23Z</time>
  <course>183.94</course>
  <speed>3.823780851461025</speed>
  <fix>3d</fix>
</trkpt>
<trkpt lat="40.0714396" lon="-105.2297835">
  <ele>1583.0</ele>
  <time>2026-08-28T17:54:23Z</time>
  <course>182.86</course>
  <speed>4.09</speed>
  <fix>3d</fix>
</trkpt>
<trkpt lat="40.0714278" lon="-105.2297841">
  <ele>1582.98</ele>
  <time>2026-08-28T17:54:23Z</time>
  <course>183.94</course>
  <speed>3.703903346471125</speed>
  <fix>3d</fix>
</trkpt>
<trkpt lat="40.0714396" lon="-105.2297835">
  <ele>1583.0</ele>
  <time>2026-08-28T17:54:23Z</time>
  <course>182.86</course>
  <speed>4.09</speed>
  <fix>3d</fix>
</trkpt>
<trkpt lat="40.0714245" lon="-105.2297844">
  <ele>1582.99</ele>
  <time>2026-08-28T17:54:23Z</time>
  <course>183.94</course>
  <speed>3.5835736353534027</speed>
  <fix>3d</fix>
</trkpt>
<trkpt lat="40.0714324" lon="-105.229784">
  <ele>1583.0</ele>
  <time>2026-08-28T17:54:23Z</time>
  <course>182.86</course>
  <speed>3.86</speed>
  <fix>3d</fix>
</trkpt>
<trkpt lat="40.0714214" lon="-105.2297845">
  <ele>1582.99</ele>
  <time>2026-08-28T17:54:23Z</time>
  <course>183.93</course>
  <speed>3.4532593299664014</speed>
  <fix>3d</fix>
</trkpt>
<trkpt lat="40.0714324" lon="-105.229784">
  <ele>1583.0</ele>
  <time>2026-08-28T17:54:23Z</time>
  <course>182.86</course>
  <speed>3.86</speed>
  <fix>3d</fix>
</trkpt>
<trkpt lat="40.0714184" lon="-105.2297847">
  <ele>1582.99</ele>
  <time>2026-08-28T17:54:23Z</time>
  <course>183.93</course>
  <speed>3.3233868267175883</speed>
  <fix>3d</fix>
</trkpt>
<trkpt lat="40.0714257" lon="-105.2297844">
  <ele>1583.0</ele>
  <time>2026-08-28T17:54:23Z</time>
  <course>182.86</course>
  <speed>3.62</speed>
  <fix>3d</fix>
</trkpt>
<trkpt lat="40.0714155" lon="-105.2297849">
  <ele>1583.0</ele>
  <time>2026-08-28T17:54:23Z</time>
  <course>183.93</course>
  <speed>3.2030610359467087</speed>
  <fix>3d</fix>
</trkpt>
<trkpt lat="40.0714257" lon="-105.2297844">
  <ele>1583.0</ele>
  <time>2026-08-28T17:54:23Z</time>
  <course>182.86</course>
  <speed>3.62</speed>
  <fix>3d</fix>
</trkpt>
<trkpt lat="40.0714127" lon="-105.2297851">
  <ele>1583.0</ele>
  <time>2026-08-28T17:54:23Z</time>
  <course>183.93</course>
  <speed>3.072751210234893</speed>
  <fix>3d</fix>
</trkpt>
<trkpt lat="40.0714194" lon="-105.2297849">
  <ele>1583.0</ele>
  <time>2026-08-28T17:54:23Z</time>
  <course>182.86</course>
  <speed>3.38</speed>
  <fix>3d</fix>
</trkpt>
<trkpt lat="40.07141" lon="-105.2297853">
  <ele>1583.0</ele>
  <time>2026-08-28T17:54:23Z</time>
  <course>183.92</course>
  <speed>2.912902332725902</speed>
  <fix>3d</fix>
</trkpt>
<trkpt lat="40.0714136" lon="-105.2297852">
  <ele>1583.0</ele>
  <time>2026-08-28T17:54:23Z</time>
  <course>182.86</course>
  <speed>3.12</speed>
  <fix>3d</fix>
</trkpt>
<trkpt lat="40.0714075" lon="-105.2297854">
  <ele>1583.0</ele>
  <time>2026-08-28T17:54:23Z</time>
  <course>183.92</course>
  <speed>2.772598059582384</speed>
  <fix>3d</fix>
</trkpt>
<trkpt lat="40.0714136" lon="-105.2297852">
  <ele>1583.0</ele>
  <time>2026-08-28T17:54:23Z</time>
  <course>182.86</course>
  <speed>3.12</speed>
  <fix>3d</fix>
</trkpt>
<trkpt lat="40.0714051" lon="-105.2297856">
  <ele>1583.0</ele>
  <time>2026-08-28T17:54:23Z</time>
  <course>183.92</course>
  <speed>2.632299375071156</speed>
  <fix>3d</fix>
</trkpt>
<trkpt lat="40.0714082" lon="-105.2297856">
  <ele>1583.0</ele>
  <time>2026-08-28T17:54:23Z</time>
  <course>182.86</course>
  <speed>2.84</speed>
  <fix>3d</fix>
</trkpt>
<trkpt lat="40.0714028" lon="-105.2297858">
  <ele>1583.0</ele>
  <time>2026-08-28T17:54:23Z</time>
  <course>183.92</course>
  <speed>2.4920072231034966</speed>
  <fix>3d</fix>
</trkpt>
<trkpt lat="40.0714082" lon="-105.2297856">
  <ele>1583.0</ele>
  <time>2026-08-28T17:54:23Z</time>
  <course>182.86</course>
  <speed>2.84</speed>
  <fix>3d</fix>
</trkpt>
<trkpt lat="40.0714006" lon="-105.2297859">
  <ele>1583.0</ele>
  <time>2026-08-28T17:54:23Z</time>
  <course>183.92</course>
  <speed>2.36211769393483</speed>
  <fix>3d</fix>
</trkpt>
<trkpt lat="40.0714033" lon="-105.2297859">
  <ele>1583.0</ele>
  <time>2026-08-28T17:54:23Z</time>
  <course>182.86</course>
  <speed>2.57</speed>
  <fix>3d</fix>
</trkpt>
<trkpt lat="40.0713985" lon="-105.229786">
  <ele>1583.0</ele>
  <time>2026-08-28T17:54:23Z</time>
  <course>183.91</course>
  <speed>2.241807306616695</speed>
  <fix>3d</fix>
</trkpt>
<trkpt lat="40.0714033" lon="-105.2297859">
  <ele>1583.0</ele>
  <time>2026-08-28T17:54:23Z</time>
  <course>182.86</course>
  <speed>2.57</speed>
  <fix>3d</fix>
</trkpt>
<trkpt lat="40.0713965" lon="-105.2297862">
  <ele>1583.0</ele>
  <time>2026-08-28T17:54:23Z</time>
  <course>183.91</course>
  <speed>2.131900560532784</speed>
  <fix>3d</fix>
</trkpt>
<trkpt lat="40.071399" lon="-105.2297862">
  <ele>1583.0</ele>
  <time>2026-08-28T17:54:23Z</time>
  <course>182.86</course>
  <speed>2.33</speed>
  <fix>3d</fix>
</trkpt>
<trkpt lat="40.0713946" lon="-105.2297863">
  <ele>1583.0</ele>
  <time>2026-08-28T17:54:23Z</time>
  <course>183.91</course>
  <speed>2.0215835377248204</speed>
  <fix>3d</fix>
</trkpt>
<trkpt lat="40.071399" lon="-105.2297862">
  <ele>1583.0</ele>
  <time>2026-08-28T17:54:23Z</time>
  <course>182.86</course>
  <speed>2.33</speed>
  <fix>3d</fix>
</trkpt>
<trkpt lat="40.0713928" lon="-105.2297864">
  <ele>1582.99</ele>
  <time>2026-08-28T17:54:23Z</time>
  <course>183.91</course>
  <speed>1.911674658512792</speed>
  <fix>3d</fix>
</trkpt>
<trkpt lat="40.0713949" lon="-105.2297864">
  <ele>1583.0</ele>
  <time>2026-08-28T17:54:23Z</time>
  <course>182.86</course>
  <speed>2.1</speed>
  <fix>3d</fix>
</trkpt>
<trkpt lat="40.0713911" lon="-105.2297865">
  <ele>1582.98</ele>
  <time>2026-08-28T17:54:23Z</time>
  <course>183.91</course>
  <speed>1.8217573932881406</speed>
  <fix>3d</fix>
</trkpt>
<trkpt lat="40.0713949" lon="-105.2297864">
  <ele>1583.0</ele>
  <time>2026-08-28T17:54:23Z</time>
  <course>182.86</course>
  <speed>2.1</speed>
  <fix>3d</fix>
</trkpt>
<trkpt lat="40.0713895" lon="-105.2297866">
  <ele>1582.97</ele>
  <time>2026-08-28T17:54:23Z</time>
  <course>183.91</course>
  <speed>1.7214238292762187</speed>
  <fix>3d</fix>
</trkpt>
<trkpt lat="40.0713913" lon="-105.2297867">
  <ele>1583.0</ele>
  <time>2026-08-28T17:54:23Z</time>
  <course>182.86</course>
  <speed>1.9</speed>
  <fix>3d</fix>
</trkpt>
<trkpt lat="40.0713879" lon="-105.2297867">
  <ele>1582.97</ele>
  <time>2026-08-28T17:54:23Z</time>
  <course>183.91</course>
  <speed>1.631502375113196</speed>
  <fix>3d</fix>
</trkpt>
<trkpt lat="40.0713913" lon="-105.2297867">
  <ele>1583.0</ele>
  <time>2026-08-28T17:54:23Z</time>
  <course>182.86</course>
  <speed>1.9</speed>
  <fix>3d</fix>
</trkpt>
<trkpt lat="40.0713864" lon="-105.2297868">
  <ele>1582.96</ele>
  <time>2026-08-28T17:54:23Z</time>
  <course>183.91</course>
  <speed>1.5515798400340217</speed>
  <fix>3d</fix>
</trkpt>
<trkpt lat="40.0713881" lon="-105.2297868">
  <ele>1583.0</ele>
  <time>2026-08-28T17:54:23Z</time>
  <course>182.86</course>
  <speed>1.72</speed>
  <fix>3d</fix>
</trkpt>
<trkpt lat="40.071385" lon="-105.2297869">
  <ele>1582.96</ele>
  <time>2026-08-28T17:54:23Z</time>
  <course>183.91</course>
  <speed>1.4712239802287073</speed>
  <fix>3d</fix>
</trkpt>
<trkpt lat="40.0713881" lon="-105.2297868">
  <ele>1583.0</ele>
  <time>2026-08-28T17:54:23Z</time>
  <course>182.86</course>
  <speed>1.72</speed>
  <fix>3d</fix>
</trkpt>
<trkpt lat="40.0713837" lon="-105.229787">
  <ele>1582.96</ele>
  <time>2026-08-28T17:54:23Z</time>
  <course>183.91</course>
  <speed>1.391294361377203</speed>
  <fix>3d</fix>
</trkpt>
<trkpt lat="40.0713881" lon="-105.2297868">
  <ele>1583.0</ele>
  <time>2026-08-28T17:54:23Z</time>
  <course>182.86</course>
  <speed>1.72</speed>
  <fix>3d</fix>
</trkpt>
<trkpt lat="40.0713824" lon="-105.2297871">
  <ele>1582.95</ele>
  <time>2026-08-28T17:54:23Z</time>
  <course>183.91</course>
  <speed>1.3213629327327143</speed>
  <fix>3d</fix>
</trkpt>
<trkpt lat="40.0713851" lon="-105.2297871">
  <ele>1583.0</ele>
  <time>2026-08-28T17:54:23Z</time>
  <course>182.86</course>
  <speed>1.56</speed>
  <fix>3d</fix>
</trkpt>
<trkpt lat="40.0713813" lon="-105.2297872">
  <ele>1582.95</ele>
  <time>2026-08-28T17:54:23Z</time>
  <course>183.91</course>
  <speed>1.251439171514141</speed>
  <fix>3d</fix>
</trkpt>
<trkpt lat="40.0713851" lon="-105.2297871">
  <ele>1583.0</ele>
  <time>2026-08-28T17:54:23Z</time>
  <course>182.86</course>
  <speed>1.56</speed>
  <fix>3d</fix>
</trkpt>
<trkpt lat="40.0713801" lon="-105.2297873">
  <ele>1582.95</ele>
  <time>2026-08-28T17:54:23Z</time>
  <course>183.91</course>
  <speed>1.1815244390193544</speed>
  <fix>3d</fix>
</trkpt>
<trkpt lat="40.0713825" lon="-105.2297872">
  <ele>1583.0</ele>
  <time>2026-08-28T17:54:23Z</time>
  <course>182.86</course>
  <speed>1.41</speed>
  <fix>3d</fix>
</trkpt>
<trkpt lat="40.071379" lon="-105.2297874">
  <ele>1582.96</ele>
  <time>2026-08-28T17:54:23Z</time>
  <course>183.91</course>
  <speed>1.1211155159036914</speed>
  <fix>3d</fix>
</trkpt>
<trkpt lat="40.0713825" lon="-105.2297872">
  <ele>1583.0</ele>
  <time>2026-08-28T17:54:23Z</time>
  <course>182.86</course>
  <speed>1.41</speed>
  <fix>3d</fix>
</trkpt>
<trkpt lat="40.071378" lon="-105.2297875">
  <ele>1582.96</ele>
  <time>2026-08-28T17:54:23Z</time>
  <course>183.91</course>
  <speed>1.061178590059185</speed>
  <fix>3d</fix>
</trkpt>
<trkpt lat="40.0713801" lon="-105.2297873">
  <ele>1583.0</ele>
  <time>2026-08-28T17:54:23Z</time>
  <course>182.86</course>
  <speed>1.27</speed>
  <fix>3d</fix>
</trkpt>
<trkpt lat="40.071377" lon="-105.2297875">
  <ele>1582.96</ele>
  <time>2026-08-28T17:54:23Z</time>
  <course>183.91</course>
  <speed>1.011236866416568</speed>
  <fix>3d</fix>
</trkpt>
<trkpt lat="40.0713779" lon="-105.2297875">
  <ele>1583.0</ele>
  <time>2026-08-28T17:54:23Z</time>
  <course>182.86</course>
  <speed>1.15</speed>
  <fix>3d</fix>
</trkpt>
<trkpt lat="40.0713736" lon="-105.2297878">
  <ele>1582.98</ele>
  <time>2026-08-28T17:54:23Z</time>
  <course>183.92</course>
  <speed>0.8115417426109393</speed>
  <fix>3d</fix>
</trkpt>
<trkpt lat="40.0713741" lon="-105.2297878">
  <ele>1583.0</ele>
  <time>2026-08-28T17:54:23Z</time>
  <course>182.86</course>
  <speed>0.94</speed>
  <fix>3d</fix>
</trkpt>
<trkpt lat="40.0713713" lon="-105.229788">
  <ele>1583.0</ele>
  <time>2026-08-28T17:54:23Z</time>
  <course>183.92</course>
  <speed>0.691809222257119</speed>
  <fix>3d</fix>
</trkpt>
<trkpt lat="40.0713725" lon="-105.2297879">
  <ele>1583.0</ele>
  <time>2026-08-28T17:54:23Z</time>
  <course>182.86</course>
  <speed>0.85</speed>
  <fix>3d</fix>
</trkpt>
<trkpt lat="40.0713707" lon="-105.2297881">
  <ele>1583.0</ele>
  <time>2026-08-28T17:54:23Z</time>
  <course>183.93</course>
  <speed>0.6618912297349165</speed>
  <fix>3d</fix>
</trkpt>
<trkpt lat="40.0713711" lon="-105.229788">
  <ele>1583.0</ele>
  <time>2026-08-28T17:54:23Z</time>
  <course>182.86</course>
  <speed>0.77</speed>
  <fix>3d</fix>
</trkpt>
<trkpt lat="40.07137" lon="-105.2297881">
  <ele>1583.0</ele>
  <time>2026-08-28T17:54:23Z</time>
  <course>183.93</course>
  <speed>0.6220128616033594</speed>
  <fix>3d</fix>
</trkpt>
<trkpt lat="40.0713711" lon="-105.229788">
  <ele>1583.0</ele>
  <time>2026-08-28T17:54:23Z</time>
  <course>182.86</course>
  <speed>0.77</speed>
  <fix>3d</fix>
</trkpt>
<trkpt lat="40.0713693" lon="-105.2297882">
  <ele>1583.01</ele>
  <time>2026-08-28T17:54:23Z</time>
  <course>183.93</course>
  <speed>0.5821511831131153</speed>
  <fix>3d</fix>
</trkpt>
<trkpt lat="40.0713697" lon="-105.229788">
  <ele>1583.0</ele>
  <time>2026-08-28T17:54:23Z</time>
  <course>182.86</course>
  <speed>0.7</speed>
  <fix>3d</fix>
</trkpt>
<trkpt lat="40.0713687" lon="-105.2297882">
  <ele>1583.01</ele>
  <time>2026-08-28T17:54:23Z</time>
  <course>183.93</course>
  <speed>0.552268050859363</speed>
  <fix>3d</fix>
</trkpt>
<trkpt lat="40.0713697" lon="-105.229788">
  <ele>1583.0</ele>
  <time>2026-08-28T17:54:23Z</time>
  <course>182.86</course>
  <speed>0.7</speed>
  <fix>3d</fix>
</trkpt>
<trkpt lat="40.0713677" lon="-105.2297883">
  <ele>1583.02</ele>
  <time>2026-08-28T17:54:23Z</time>
  <course>183.93</course>
  <speed>0.5024937810560445</speed>
  <fix>3d</fix>
</trkpt>
<trkpt lat="40.0713685" lon="-105.2297881">
  <ele>1583.0</ele>
  <time>2026-08-28T17:54:23Z</time>
  <course>182.86</course>
  <speed>0.63</speed>
  <fix>3d</fix>
</trkpt>
<trkpt lat="40.0713672" lon="-105.2297884">
  <ele>1583.02</ele>
  <time>2026-08-28T17:54:23Z</time>
  <course>183.94</course>
  <speed>0.472652091923859</speed>
  <fix>3d</fix>
</trkpt>
<trkpt lat="40.0713674" lon="-105.2297882">
  <ele>1583.0</ele>
  <time>2026-08-28T17:54:23Z</time>
  <course>182.86</course>
  <speed>0.57</speed>
  <fix>3d</fix>
</trkpt>
<trkpt lat="40.0713667" lon="-105.2297884">
  <ele>1583.02</ele>
  <time>2026-08-28T17:54:23Z</time>
  <course>183.94</course>
  <speed>0.45276925690687087</speed>
  <fix>3d</fix>
</trkpt>
<trkpt lat="40.0713674" lon="-105.2297882">
  <ele>1583.0</ele>
  <time>2026-08-28T17:54:23Z</time>
  <course>182.86</course>
  <speed>0.57</speed>
  <fix>3d</fix>
</trkpt>
<trkpt lat="40.0713663" lon="-105.2297885">
  <ele>1583.02</ele>
  <time>2026-08-28T17:54:23Z</time>
  <course>183.94</course>
  <speed>0.422965719651132</speed>
  <fix>3d</fix>
</trkpt>
<trkpt lat="40.0713664" lon="-105.2297883">
  <ele>1583.0</ele>
  <time>2026-08-28T17:54:23Z</time>
  <course>182.86</course>
  <speed>0.51</speed>
  <fix>3d</fix>
</trkpt>
<trkpt lat="40.0713658" lon="-105.2297885">
  <ele>1583.02</ele>
  <time>2026-08-28T17:54:23Z</time>
  <course>183.94</course>
  <speed>0.40311288741492746</speed>
  <fix>3d</fix>
</trkpt>
<trkpt lat="40.0713664" lon="-105.2297883">
  <ele>1583.0</ele>
  <time>2026-08-28T17:54:23Z</time>
  <course>182.86</course>
  <speed>0.51</speed>
  <fix>3d</fix>
</trkpt>
<trkpt lat="40.0713654" lon="-105.2297885">
  <ele>1583.02</ele>
  <time>2026-08-28T17:54:23Z</time>
  <course>183.94</course>
  <speed>0.383275357934736</speed>
  <fix>3d</fix>
</trkpt>
<trkpt lat="40.0713655" lon="-105.2297883">
  <ele>1583.0</ele>
  <time>2026-08-28T17:54:23Z</time>
  <course>182.86</course>
  <speed>0.47</speed>
  <fix>3d</fix>
</trkpt>
<trkpt lat="40.071365" lon="-105.2297886">
  <ele>1583.02</ele>
  <time>2026-08-28T17:54:23Z</time>
  <course>183.94</course>
  <speed>0.3634556369077249</speed>
  <fix>3d</fix>
</trkpt>
<trkpt lat="40.0713655" lon="-105.2297883">
  <ele>1583.0</ele>
  <time>2026-08-28T17:54:23Z</time>
  <course>182.86</course>
  <speed>0.47</speed>
  <fix>3d</fix>
</trkpt>
<trkpt lat="40.0713647" lon="-105.2297886">
  <ele>1583.02</ele>
  <time>2026-08-28T17:54:23Z</time>
  <course>183.93</course>
  <speed>0.34365680554879163</speed>
  <fix>3d</fix>
</trkpt>
<trkpt lat="40.0713648" lon="-105.2297883">
  <ele>1583.0</ele>
  <time>2026-08-28T17:54:23Z</time>
  <course>182.86</course>
  <speed>0.42</speed>
  <fix>3d</fix>
</trkpt>
<trkpt lat="40.0713644" lon="-105.2297886">
  <ele>1583.02</ele>
  <time>2026-08-28T17:54:23Z</time>
  <course>183.93</course>
  <speed>0.33376638536557274</speed>
  <fix>3d</fix>
</trkpt>
<trkpt lat="40.0713648" lon="-105.2297883">
  <ele>1583.0</ele>
  <time>2026-08-28T17:54:23Z</time>
  <course>182.86</course>
  <speed>0.42</speed>
  <fix>3d</fix>
</trkpt>
<trkpt lat="40.071364" lon="-105.2297887">
  <ele>1583.02</ele>
  <time>2026-08-28T17:54:23Z</time>
  <course>183.93</course>
  <speed>0.31400636936215165</speed>
  <fix>3d</fix>
</trkpt>
<trkpt lat="40.071364" lon="-105.2297884">
  <ele>1583.0</ele>
  <time>2026-08-28T17:54:23Z</time>
  <course>182.86</course>
  <speed>0.38</speed>
  <fix>3d</fix>
</trkpt>
<trkpt lat="40.0713637" lon="-105.2297887">
  <ele>1583.02</ele>
  <time>2026-08-28T17:54:23Z</time>
  <course>183.93</course>
  <speed>0.304138126514911</speed>
  <fix>3d</fix>
</trkpt>
<trkpt lat="40.071364" lon="-105.2297884">
  <ele>1583.0</ele>
  <time>2026-08-28T17:54:23Z</time>
  <course>182.86</course>
  <speed>0.38</speed>
  <fix>3d</fix>
</trkpt>
<trkpt lat="40.0713634" lon="-105.2297887">
  <ele>1583.02</ele>
  <time>2026-08-28T17:54:23Z</time>
  <course>183.93</course>
  <speed>0.28442925306655786</speed>
  <fix>3d</fix>
</trkpt>
<trkpt lat="40.0713633" lon="-105.2297885">
  <ele>1583.0</ele>
  <time>2026-08-28T17:54:23Z</time>
  <course>182.86</course>
  <speed>0.34</speed>
  <fix>3d</fix>
</trkpt>
<trkpt lat="40.071363" lon="-105.2297888">
  <ele>1583.02</ele>
  <time>2026-08-28T17:54:23Z</time>
  <course>183.92</course>
  <speed>0.26476404589747454</speed>
  <fix>3d</fix>
</trkpt>
<trkpt lat="40.0713633" lon="-105.2297885">
  <ele>1583.0</ele>
  <time>2026-08-28T17:54:23Z</time>
  <course>182.86</course>
  <speed>0.34</speed>
  <fix>3d</fix>
</trkpt>
<trkpt lat="40.0713628" lon="-105.2297888">
  <ele>1583.02</ele>
  <time>2026-08-28T17:54:23Z</time>
  <course>183.92</course>
  <speed>0.25495097567963926</speed>
  <fix>3d</fix>
</trkpt>
<trkpt lat="40.0713628" lon="-105.2297885">
  <ele>1583.0</ele>
  <time>2026-08-28T17:54:23Z</time>
  <course>182.86</course>
  <speed>0.31</speed>
  <fix>3d</fix>
</trkpt>
<trkpt lat="40.0713625" lon="-105.2297888">
  <ele>1583.01</ele>
  <time>2026-08-28T17:54:23Z</time>
  <course>183.92</course>
  <speed>0.24515301344262524</speed>
  <fix>3d</fix>
</trkpt>
<trkpt lat="40.0713628" lon="-105.2297885">
  <ele>1583.0</ele>
  <time>2026-08-28T17:54:23Z</time>
  <course>182.86</course>
  <speed>0.31</speed>
  <fix>3d</fix>
</trkpt>
<trkpt lat="40.0713623" lon="-105.2297888">
  <ele>1583.02</ele>
  <time>2026-08-28T17:54:23Z</time>
  <course>183.92</course>
  <speed>0.2353720459187964</speed>
  <fix>3d</fix>
</trkpt>
<trkpt lat="40.0713622" lon="-105.2297885">
  <ele>1583.0</ele>
  <time>2026-08-28T17:54:23Z</time>
  <course>182.86</course>
  <speed>0.28</speed>
  <fix>3d</fix>
</trkpt>
<trkpt lat="40.071362" lon="-105.2297889">
  <ele>1583.02</ele>
  <time>2026-08-28T17:54:23Z</time>
  <course>183.91</course>
  <speed>0.22561028345356957</speed>
  <fix>3d</fix>
</trkpt>
<trkpt lat="40.0713622" lon="-105.2297885">
  <ele>1583.0</ele>
  <time>2026-08-28T17:54:23Z</time>
  <course>182.86</course>
  <speed>0.28</speed>
  <fix>3d</fix>
</trkpt>
<trkpt lat="40.0713618" lon="-105.2297889">
  <ele>1583.02</ele>
  <time>2026-08-28T17:54:23Z</time>
  <course>183.91</course>
  <speed>0.20615528128088303</speed>
  <fix>3d</fix>
</trkpt>
<trkpt lat="40.0713618" lon="-105.2297885">
  <ele>1583.0</ele>
  <time>2026-08-28T17:54:23Z</time>
  <course>182.86</course>
  <speed>0.25</speed>
  <fix>3d</fix>
</trkpt>
<trkpt lat="40.0713615" lon="-105.2297889">
  <ele>1583.02</ele>
  <time>2026-08-28T17:54:23Z</time>
  <course>183.9</course>
  <speed>0.196468827043885</speed>
  <fix>3d</fix>
</trkpt>
<trkpt lat="40.0713618" lon="-105.2297885">
  <ele>1583.0</ele>
  <time>2026-08-28T17:54:23Z</time>
  <course>182.86</course>
  <speed>0.25</speed>
  <fix>3d</fix>
</trkpt>
<trkpt lat="40.0713613" lon="-105.2297889">
  <ele>1583.02</ele>
  <time>2026-08-28T17:54:23Z</time>
  <course>183.9</course>
  <speed>0.18681541692269404</speed>
  <fix>3d</fix>
</trkpt>
<trkpt lat="40.0713614" lon="-105.2297886">
  <ele>1583.0</ele>
  <time>2026-08-28T17:54:23Z</time>
  <course>182.86</course>
  <speed>0.23</speed>
  <fix>3d</fix>
</trkpt>
<trkpt lat="40.0713611" lon="-105.2297889">
  <ele>1583.03</ele>
  <time>2026-08-28T17:54:23Z</time>
  <course>183.89</course>
  <speed>0.1772004514666935</speed>
  <fix>3d</fix>
</trkpt>
<trkpt lat="40.0713614" lon="-105.2297886">
  <ele>1583.0</ele>
  <time>2026-08-28T17:54:23Z</time>
  <course>182.86</course>
  <speed>0.23</speed>
  <fix>3d</fix>
</trkpt>
<trkpt lat="40.071361" lon="-105.229789">
  <ele>1583.03</ele>
  <time>2026-08-28T17:54:23Z</time>
  <course>183.89</course>
  <speed>0.1676305461424021</speed>
  <fix>3d</fix>
</trkpt>
<trkpt lat="40.0713609" lon="-105.2297887">
  <ele>1583.0</ele>
  <time>2026-08-28T17:54:23Z</time>
  <course>182.86</course>
  <speed>0.21</speed>
  <fix>3d</fix>
</trkpt>
<trkpt lat="40.0713608" lon="-105.229789">
  <ele>1583.03</ele>
  <time>2026-08-28T17:54:23Z</time>
  <course>183.88</course>
  <speed>0.1676305461424021</speed>
  <fix>3d</fix>
</trkpt>
<trkpt lat="40.0713609" lon="-105.2297887">
  <ele>1583.0</ele>
  <time>2026-08-28T17:54:23Z</time>
  <course>182.86</course>
  <speed>0.21</speed>
  <fix>3d</fix>
</trkpt>
<trkpt lat="40.0713606" lon="-105.229789">
  <ele>1583.04</ele>
  <time>2026-08-28T17:54:23Z</time>
  <course>183.88</course>
  <speed>0.15811388300841897</speed>
  <fix>3d</fix>
</trkpt>
<trkpt lat="40.0713606" lon="-105.2297887">
  <ele>1583.0</ele>
  <time>2026-08-28T17:54:23Z</time>
  <course>182.86</course>
  <speed>0.19</speed>
  <fix>3d</fix>
</trkpt>
<trkpt lat="40.0713605" lon="-105.229789">
  <ele>1583.04</ele>
  <time>2026-08-28T17:54:23Z</time>
  <course>183.87</course>
  <speed>0.14866068747318506</speed>
  <fix>3d</fix>
</trkpt>
<trkpt lat="40.0713606" lon="-105.2297887">
  <ele>1583.0</ele>
  <time>2026-08-28T17:54:23Z</time>
  <course>182.86</course>
  <speed>0.19</speed>
  <fix>3d</fix>
</trkpt>
<trkpt lat="40.0713603" lon="-105.2297891">
  <ele>1583.04</ele>
  <time>2026-08-28T17:54:23Z</time>
  <course>183.87</course>
  <speed>0.1392838827718412</speed>
  <fix>3d</fix>
</trkpt>
<trkpt lat="40.0713602" lon="-105.2297887">
  <ele>1583.0</ele>
  <time>2026-08-28T17:54:23Z</time>
  <course>182.86</course>
  <speed>0.17</speed>
  <fix>3d</fix>
</trkpt>
<trkpt lat="40.0713602" lon="-105.2297891">
  <ele>1583.04</ele>
  <time>2026-08-28T17:54:23Z</time>
  <course>183.86</course>
  <speed>0.1392838827718412</speed>
  <fix>3d</fix>
</trkpt>
<trkpt lat="40.0713602" lon="-105.2297887">
  <ele>1583.0</ele>
  <time>2026-08-28T17:54:23Z</time>
  <course>182.86</course>
  <speed>0.17</speed>
  <fix>3d</fix>
</trkpt>
<trkpt lat="40.07136" lon="-105.2297891">
  <ele>1583.04</ele>
  <time>2026-08-28T17:54:23Z</time>
  <course>183.85</course>
  <speed>0.13</speed>
  <fix>3d</fix>
</trkpt>
<trkpt lat="40.0713599" lon="-105.2297887">
  <ele>1583.0</ele>
  <time>2026-08-28T17:54:23Z</time>
  <course>182.86</course>
  <speed>0.15</speed>
  <fix>3d</fix>
</trkpt>
<trkpt lat="40.0713599" lon="-105.2297891">
  <ele>1583.03</ele>
  <time>2026-08-28T17:54:23Z</time>
  <course>183.85</course>
  <speed>0.12083045973594572</speed>
  <fix>3d</fix>
</trkpt>
<trkpt lat="40.0713599" lon="-105.2297887">
  <ele>1583.0</ele>
  <time>2026-08-28T17:54:23Z</time>
  <course>182.86</course>
  <speed>0.15</speed>
  <fix>3d</fix>
</trkpt>
<trkpt lat="40.0713598" lon="-105.2297891">
  <ele>1583.03</ele>
  <time>2026-08-28T17:54:23Z</time>
  <course>183.84</course>
  <speed>0.12083045973594572</speed>
  <fix>3d</fix>
</trkpt>
<trkpt lat="40.0713597" lon="-105.2297887">
  <ele>1583.0</ele>
  <time>2026-08-28T17:54:23Z</time>
  <course>182.86</course>
  <speed>0.14</speed>
  <fix>3d</fix>
</trkpt>
<trkpt lat="40.0713596" lon="-105.2297891">
  <ele>1583.03</ele>
  <time>2026-08-28T17:54:23Z</time>
  <course>183.81</course>
  <speed>0.1118033988749895</speed>
  <fix>3d</fix>
</trkpt>
<trkpt lat="40.0713597" lon="-105.2297887">
  <ele>1583.0</ele>
  <time>2026-08-28T17:54:23Z</time>
  <course>182.86</course>
  <speed>0.14</speed>
  <fix>3d</fix>
</trkpt>
<trkpt lat="40.0713595" lon="-105.2297891">
  <ele>1583.03</ele>
  <time>2026-08-28T17:54:23Z</time>
  <course>183.77</course>
  <speed>0.10295630140987001</speed>
  <fix>3d</fix>
</trkpt>
<trkpt lat="40.0713595" lon="-105.2297888">
  <ele>1583.0</ele>
  <time>2026-08-28T17:54:23Z</time>
  <course>182.84</course>
  <speed>0.12</speed>
  <fix>3d</fix>
</trkpt>
<trkpt lat="40.0713594" lon="-105.2297891">
  <ele>1583.02</ele>
  <time>2026-08-28T17:54:23Z</time>
  <course>183.74</course>
  <speed>0.08944271909999159</speed>
  <fix>3d</fix>
</trkpt>
<trkpt lat="40.0713595" lon="-105.2297888">
  <ele>1583.0</ele>
  <time>2026-08-28T17:54:23Z</time>
  <course>182.84</course>
  <speed>0.12</speed>
  <fix>3d</fix>
</trkpt>
<trkpt lat="40.0713593" lon="-105.2297891">
  <ele>1583.02</ele>
  <time>2026-08-28T17:54:23Z</time>
  <course>183.71</course>
  <speed>0.08944271909999159</speed>
  <fix>3d</fix>
</trkpt>
<trkpt lat="40.0713593" lon="-105.2297888">
  <ele>1583.0</ele>
  <time>2026-08-28T17:54:23Z</time>
  <course>182.78</course>
  <speed>0.1</speed>
  <fix>3d</fix>
</trkpt>
<trkpt lat="40.0713592" lon="-105.2297891">
  <ele>1583.01</ele>
  <time>2026-08-28T17:54:23Z</time>
  <course>183.68</course>
  <speed>0.08062257748298549</speed>
  <fix>3d</fix>
</trkpt>
<trkpt lat="40.0713593" lon="-105.2297888">
  <ele>1583.0</ele>
  <time>2026-08-28T17:54:23Z</time>
  <course>182.78</course>
  <speed>0.1</speed>
  <fix>3d</fix>
</trkpt>
<trkpt lat="40.0713592" lon="-105.2297892">
  <ele>1583.01</ele>
  <time>2026-08-28T17:54:23Z</time>
  <course>183.65</course>
  <speed>0.08062257748298549</speed>
  <fix>3d</fix>
</trkpt>
<trkpt lat="40.071359" lon="-105.2297888">
  <ele>1583.0</ele>
  <time>2026-08-28T17:54:23Z</time>
  <course>182.74</course>
  <speed>0.09</speed>
  <fix>3d</fix>
</trkpt>
<trkpt lat="40.0713591" lon="-105.2297892">
  <ele>1583.0</ele>
  <time>2026-08-28T17:54:23Z</time>
  <course>183.62</course>
  <speed>0.08062257748298549</speed>
  <fix>3d</fix>
</trkpt>
<trkpt lat="40.071359" lon="-105.2297888">
  <ele>1583.0</ele>
  <time>2026-08-28T17:54:23Z</time>
  <course>182.74</course>
  <speed>0.09</speed>
  <fix>3d</fix>
</trkpt>
<trkpt lat="40.071359" lon="-105.2297892">
  <ele>1583.0</ele>
  <time>2026-08-28T17:54:23Z</time>
  <course>183.59</course>
  <speed>0.08062257748298549</speed>
  <fix>3d</fix>
</trkpt>
<trkpt lat="40.0713589" lon="-105.2297888">
  <ele>1583.0</ele>
  <time>2026-08-28T17:54:23Z</time>
  <course>182.69</course>
  <speed>0.09</speed>
  <fix>3d</fix>
</trkpt>
<trkpt lat="40.0713589" lon="-105.2297892">
  <ele>1582.99</ele>
  <time>2026-08-28T17:54:23Z</time>
  <course>183.15</course>
  <speed>0.08944271909999159</speed>
  <fix>3d</fix>
</trkpt>
<trkpt lat="40.0713589" lon="-105.2297888">
  <ele>1583.0</ele>
  <time>2026-08-28T17:54:23Z</time>
  <course>182.69</course>
  <speed>0.09</speed>
  <fix>3d</fix>
</trkpt>
<trkpt lat="40.0713588" lon="-105.2297892">
  <ele>1582.99</ele>
  <time>2026-08-28T17:54:23Z</time>
  <course>182.7</course>
  <speed>0.08944271909999159</speed>
  <fix>3d</fix>
</trkpt>
<trkpt lat="40.0713587" lon="-105.2297888">
  <ele>1583.0</ele>
  <time>2026-08-28T17:54:23Z</time>
  <course>182.27</course>
  <speed>0.09</speed>
  <fix>3d</fix>
</trkpt>
<trkpt lat="40.0713587" lon="-105.2297892">
  <ele>1582.98</ele>
  <time>2026-08-28T17:54:23Z</time>
  <course>182.25</course>
  <speed>0.08944271909999159</speed>
  <fix>3d</fix>
</trkpt>
<trkpt lat="40.0713587" lon="-105.2297888">
  <ele>1583.0</ele>
  <time>2026-08-28T17:54:23Z</time>
  <course>182.27</course>
  <speed>0.09</speed>
  <fix>3d</fix>
</trkpt>
<trkpt lat="40.0713586" lon="-105.2297892">
  <ele>1582.98</ele>
  <time>2026-08-28T17:54:23Z</time>
  <course>181.79</course>
  <speed>0.09848857801796104</speed>
  <fix>3d</fix>
</trkpt>
<trkpt lat="40.0713585" lon="-105.2297888">
  <ele>1583.0</ele>
  <time>2026-08-28T17:54:23Z</time>
  <course>181.42</course>
  <speed>0.1</speed>
  <fix>3d</fix>
</trkpt>
<trkpt lat="40.0713585" lon="-105.2297892">
  <ele>1582.98</ele>
  <time>2026-08-28T17:54:23Z</time>
  <course>181.31</course>
  <speed>0.09848857801796104</speed>
  <fix>3d</fix>
</trkpt>
<trkpt lat="40.0713585" lon="-105.2297888">
  <ele>1583.0</ele>
  <time>2026-08-28T17:54:23Z</time>
  <course>181.42</course>
  <speed>0.1</speed>
  <fix>3d</fix>
</trkpt>
<trkpt lat="40.0713584" lon="-105.2297892">
  <ele>1582.97</ele>
  <time>2026-08-28T17:54:23Z</time>
  <course>180.82</course>
  <speed>0.09848857801796104</speed>
  <fix>3d</fix>
</trkpt>
<trkpt lat="40.0713583" lon="-105.2297888">
  <ele>1583.0</ele>
  <time>2026-08-28T17:54:23Z</time>
  <course>180.49</course>
  <speed>0.1</speed>
  <fix>3d</fix>
</trkpt>
<trkpt lat="40.0713583" lon="-105.2297892">
  <ele>1582.97</ele>
  <time>2026-08-28T17:54:23Z</time>
  <course>180.31</course>
  <speed>0.10770329614269007</speed>
  <fix>3d</fix>
</trkpt>
<trkpt lat="40.0713583" lon="-105.2297888">
  <ele>1583.0</ele>
  <time>2026-08-28T17:54:23Z</time>
  <course>180.49</course>
  <speed>0.1</speed>
  <fix>3d</fix>
</trkpt>
<trkpt lat="40.0713582" lon="-105.2297892">
  <ele>1582.97</ele>
  <time>2026-08-28T17:54:23Z</time>
  <course>179.77</course>
  <speed>0.10770329614269007</speed>
  <fix>3d</fix>
</trkpt>
<trkpt lat="40.0713582" lon="-105.2297888">
  <ele>1583.0</ele>
  <time>2026-08-28T17:54:23Z</time>
  <course>179.5</course>
  <speed>0.11</speed>
  <fix>3d</fix>
</trkpt>
<trkpt lat="40.0713581" lon="-105.2297892">
  <ele>1582.96</ele>
  <time>2026-08-28T17:54:23Z</time>
  <course>179.23</course>
  <speed>0.11401754250991379</speed>
  <fix>3d</fix>
</trkpt>
<trkpt lat="40.0713582" lon="-105.2297888">
  <ele>1583.0</ele>
  <time>2026-08-28T17:54:23Z</time>
  <course>179.5</course>
  <speed>0.11</speed>
  <fix>3d</fix>
</trkpt>
<trkpt lat="40.0713579" lon="-105.2297892">
  <ele>1582.95</ele>
  <time>2026-08-28T17:54:23Z</time>
  <course>178.66</course>
  <speed>0.11401754250991379</speed>
  <fix>3d</fix>
</trkpt>
<trkpt lat="40.0713579" lon="-105.2297888">
  <ele>1583.0</ele>
  <time>2026-08-28T17:54:23Z</time>
  <course>178.44</course>
  <speed>0.12</speed>
  <fix>3d</fix>
</trkpt>
<trkpt lat="40.0713578" lon="-105.2297892">
  <ele>1582.95</ele>
  <time>2026-08-28T17:54:23Z</time>
  <course>178.07</course>
  <speed>0.12369316876852982</speed>
  <fix>3d</fix>
</trkpt>
<trkpt lat="40.0713579" lon="-105.2297888">
  <ele>1583.0</ele>
  <time>2026-08-28T17:54:23Z</time>
  <course>178.44</course>
  <speed>0.12</speed>
  <fix>3d</fix>
</trkpt>
<trkpt lat="40.0713577" lon="-105.2297892">
  <ele>1582.94</ele>
  <time>2026-08-28T17:54:23Z</time>
  <course>177.45</course>
  <speed>0.12369316876852982</speed>
  <fix>3d</fix>
</trkpt>
<trkpt lat="40.0713577" lon="-105.2297888">
  <ele>1583.0</ele>
  <time>2026-08-28T17:54:23Z</time>
  <course>177.3</course>
  <speed>0.13</speed>
  <fix>3d</fix>
</trkpt>
<trkpt lat="40.0713576" lon="-105.2297891">
  <ele>1582.94</ele>
  <time>2026-08-28T17:54:23Z</time>
  <course>176.94</course>
  <speed>0.13341664064126335</speed>
  <fix>3d</fix>
</trkpt>
<trkpt lat="40.0713577" lon="-105.2297888">
  <ele>1583.0</ele>
  <time>2026-08-28T17:54:23Z</time>
  <course>177.3</course>
  <speed>0.13</speed>
  <fix>3d</fix>
</trkpt>
<trkpt lat="40.0713575" lon="-105.2297891">
  <ele>1582.94</ele>
  <time>2026-08-28T17:54:23Z</time>
  <course>176.29</course>
  <speed>0.13152946437965907</speed>
  <fix>3d</fix>
</trkpt>
<trkpt lat="40.0713575" lon="-105.2297888">
  <ele>1583.0</ele>
  <time>2026-08-28T17:54:23Z</time>
  <course>176.07</course>
  <speed>0.14</speed>
  <fix>3d</fix>
</trkpt>
<trkpt lat="40.0713573" lon="-105.2297891">
  <ele>1582.94</ele>
  <time>2026-08-28T17:54:23Z</time>
  <course>175.6</course>
  <speed>0.1414213562373095</speed>
  <fix>3d</fix>
</trkpt>
<trkpt lat="40.0713575" lon="-105.2297888">
  <ele>1583.0</ele>
  <time>2026-08-28T17:54:23Z</time>
  <course>176.07</course>
  <speed>0.14</speed>
  <fix>3d</fix>
</trkpt>
<trkpt lat="40.0713572" lon="-105.2297891">
  <ele>1582.94</ele>
  <time>2026-08-28T17:54:23Z</time>
  <course>174.89</course>
  <speed>0.15132745950421556</speed>
  <fix>3d</fix>
</trkpt>
<trkpt lat="40.0713572" lon="-105.2297888">
  <ele>1583.0</ele>
  <time>2026-08-28T17:54:23Z</time>
  <course>174.73</course>
  <speed>0.15</speed>
  <fix>3d</fix>
</trkpt>
<trkpt lat="40.071357" lon="-105.229789">
  <ele>1582.93</ele>
  <time>2026-08-28T17:54:23Z</time>
  <course>174.15</course>
  <speed>0.15033296378372907</speed>
  <fix>3d</fix>
</trkpt>
<trkpt lat="40.0713572" lon="-105.2297888">
  <ele>1583.0</ele>
  <time>2026-08-28T17:54:23Z</time>
  <course>174.73</course>
  <speed>0.15</speed>
  <fix>3d</fix>
</trkpt>
<trkpt lat="40.0713569" lon="-105.229789">
  <ele>1582.92</ele>
  <time>2026-08-28T17:54:23Z</time>
  <course>173.38</course>
  <speed>0.16031219541881397</speed>
  <fix>3d</fix>
</trkpt>
<trkpt lat="40.0713569" lon="-105.2297888">
  <ele>1583.0</ele>
  <time>2026-08-28T17:54:23Z</time>
  <course>173.28</course>
  <speed>0.16</speed>
  <fix>3d</fix>
</trkpt>
<trkpt lat="40.0713567" lon="-105.229789">
  <ele>1582.92</ele>
  <time>2026-08-28T17:54:23Z</time>
  <course>172.58</course>
  <speed>0.17029386365926402</speed>
  <fix>3d</fix>
</trkpt>
<trkpt lat="40.0713569" lon="-105.2297888">
  <ele>1583.0</ele>
  <time>2026-08-28T17:54:23Z</time>
  <course>173.28</course>
  <speed>0.16</speed>
  <fix>3d</fix>
</trkpt>
<trkpt lat="40.0713565" lon="-105.229789">
  <ele>1582.91</ele>
  <time>2026-08-28T17:54:23Z</time>
  <course>171.74</course>
  <speed>0.17</speed>
  <fix>3d</fix>
</trkpt>
<trkpt lat="40.0713566" lon="-105.2297887">
  <ele>1583.0</ele>
  <time>2026-08-28T17:54:23Z</time>
  <course>171.72</course>
  <speed>0.17</speed>
  <fix>3d</fix>
</trkpt>
<trkpt lat="40.0713564" lon="-105.229789">
  <ele>1582.91</ele>
  <time>2026-08-28T17:54:23Z</time>
  <course>170.88</course>
  <speed>0.18</speed>
  <fix>3d</fix>
</trkpt>
<trkpt lat="40.0713566" lon="-105.2297887">
  <ele>1583.0</ele>
  <time>2026-08-28T17:54:23Z</time>
  <course>171.72</course>
  <speed>0.17</speed>
  <fix>3d</fix>
</trkpt>
<trkpt lat="40.0713561" lon="-105.229789">
  <ele>1582.91</ele>
  <time>2026-08-28T17:54:23Z</time>
  <course>169.8</course>
  <speed>0.19</speed>
  <fix>3d</fix>
</trkpt>
<trkpt lat="40.0713563" lon="-105.2297887">
  <ele>1583.0</ele>
  <time>2026-08-28T17:54:23Z</time>
  <course>170.03</course>
  <speed>0.19</speed>
  <fix>3d</fix>
</trkpt>
<trkpt lat="40.071356" lon="-105.2297889">
  <ele>1582.91</ele>
  <time>2026-08-28T17:54:23Z</time>
  <course>168.86</course>
  <speed>0.19</speed>
  <fix>3d</fix>
</trkpt>
<trkpt lat="40.0713563" lon="-105.2297887">
  <ele>1583.0</ele>
  <time>2026-08-28T17:54:23Z</time>
  <course>170.03</course>
  <speed>0.19</speed>
  <fix>3d</fix>
</trkpt>
<trkpt lat="40.0713558" lon="-105.2297889">
  <ele>1582.91</ele>
  <time>2026-08-28T17:54:23Z</time>
  <course>167.89</course>
  <speed>0.2002498439450079</speed>
  <fix>3d</fix>
</trkpt>
<trkpt lat="40.0713559" lon="-105.2297886">
  <ele>1583.0</ele>
  <time>2026-08-28T17:54:23Z</time>
  <course>168.2</course>
  <speed>0.2</speed>
  <fix>3d</fix>
</trkpt>
<trkpt lat="40.0713556" lon="-105.2297888">
  <ele>1582.91</ele>
  <time>2026-08-28T17:54:23Z</time>
  <course>166.89</course>
  <speed>0.2002498439450079</speed>
  <fix>3d</fix>
</trkpt>
<trkpt lat="40.0713559" lon="-105.2297886">
  <ele>1583.0</ele>
  <time>2026-08-28T17:54:23Z</time>
  <course>168.2</course>
  <speed>0.2</speed>
  <fix>3d</fix>
</trkpt>
<trkpt lat="40.0713554" lon="-105.2297888">
  <ele>1582.91</ele>
  <time>2026-08-28T17:54:23Z</time>
  <course>165.85</course>
  <speed>0.2109502310972899</speed>
  <fix>3d</fix>
</trkpt>
<trkpt lat="40.0713556" lon="-105.2297884">
  <ele>1583.0</ele>
  <time>2026-08-28T17:54:23Z</time>
  <course>166.25</course>
  <speed>0.22</speed>
  <fix>3d</fix>
</trkpt>
<trkpt lat="40.0713552" lon="-105.2297887">
  <ele>1582.91</ele>
  <time>2026-08-28T17:54:23Z</time>
  <course>164.79</course>
  <speed>0.2109502310972899</speed>
  <fix>3d</fix>
</trkpt>
<trkpt lat="40.0713556" lon="-105.2297884">
  <ele>1583.0</ele>
  <time>2026-08-28T17:54:23Z</time>
  <course>166.25</course>
  <speed>0.22</speed>
  <fix>3d</fix>
</trkpt>
<trkpt lat="40.071355" lon="-105.2297886">
  <ele>1582.9</ele>
  <time>2026-08-28T17:54:23Z</time>
  <course>163.69</course>
  <speed>0.2220360331117452</speed>
  <fix>3d</fix>
</trkpt>
<trkpt lat="40.0713552" lon="-105.2297883">
  <ele>1583.0</ele>
  <time>2026-08-28T17:54:23Z</time>
  <course>164.16</course>
  <speed>0.23</speed>
  <fix>3d</fix>
</trkpt>
<trkpt lat="40.0713548" lon="-105.2297885">
  <ele>1582.9</ele>
  <time>2026-08-28T17:54:23Z</time>
  <course>162.56</course>
  <speed>0.223606797749979</speed>
  <fix>3d</fix>
</trkpt>
<trkpt lat="40.0713552" lon="-105.2297883">
  <ele>1583.0</ele>
  <time>2026-08-28T17:54:23Z</time>
  <course>164.16</course>
  <speed>0.23</speed>
  <fix>3d</fix>
</trkpt>
<trkpt lat="40.0713545" lon="-105.2297884">
  <ele>1582.9</ele>
  <time>2026-08-28T17:54:23Z</time>
  <course>161.39</course>
  <speed>0.23345235059857505</speed>
  <fix>3d</fix>
</trkpt>
<trkpt lat="40.0713547" lon="-105.2297882">
  <ele>1583.0</ele>
  <time>2026-08-28T17:54:23Z</time>
  <course>161.94</course>
  <speed>0.24</speed>
  <fix>3d</fix>
</trkpt>
<trkpt lat="40.0713543" lon="-105.2297883">
  <ele>1582.9</ele>
  <time>2026-08-28T17:54:23Z</time>
  <course>160.18</course>
  <speed>0.2353720459187964</speed>
  <fix>3d</fix>
</trkpt>
<trkpt lat="40.0713547" lon="-105.2297882">
  <ele>1583.0</ele>
  <time>2026-08-28T17:54:23Z</time>
  <course>161.94</course>
  <speed>0.24</speed>
  <fix>3d</fix>
</trkpt>
<trkpt lat="40.0713541" lon="-105.2297882">
  <ele>1582.9</ele>
  <time>2026-08-28T17:54:23Z</time>
  <course>158.95</course>
  <speed>0.24738633753705963</speed>
  <fix>3d</fix>
</trkpt>
<trkpt lat="40.0713542" lon="-105.2297879">
  <ele>1583.0</ele>
  <time>2026-08-28T17:54:23Z</time>
  <course>159.59</course>
  <speed>0.26</speed>
  <fix>3d</fix>
</trkpt>
<trkpt lat="40.0713539" lon="-105.2297881">
  <ele>1582.9</ele>
  <time>2026-08-28T17:54:23Z</time>
  <course>157.92</course>
  <speed>0.25</speed>
  <fix>3d</fix>
</trkpt>
<trkpt lat="40.0713542" lon="-105.2297879">
  <ele>1583.0</ele>
  <time>2026-08-28T17:54:23Z</time>
  <course>159.59</course>
  <speed>0.26</speed>
  <fix>3d</fix>
</trkpt>
<trkpt lat="40.0713537" lon="-105.229788">
  <ele>1582.89</ele>
  <time>2026-08-28T17:54:23Z</time>
  <course>156.63</course>
  <speed>0.2529822128134704</speed>
  <fix>3d</fix>
</trkpt>
<trkpt lat="40.0713538" lon="-105.2297877">
  <ele>1583.0</ele>
  <time>2026-08-28T17:54:23Z</time>
  <course>157.11</course>
  <speed>0.27</speed>
  <fix>3d</fix>
</trkpt>
<trkpt lat="40.0713534" lon="-105.2297878">
  <ele>1582.89</ele>
  <time>2026-08-28T17:54:23Z</time>
  <course>155.3</course>
  <speed>0.26570660511172844</speed>
  <fix>3d</fix>
</trkpt>
<trkpt lat="40.0713538" lon="-105.2297877">
  <ele>1583.0</ele>
  <time>2026-08-28T17:54:23Z</time>
  <course>157.11</course>
  <speed>0.27</speed>
  <fix>3d</fix>
</trkpt>
<trkpt lat="40.0713532" lon="-105.2297877">
  <ele>1582.89</ele>
  <time>2026-08-28T17:54:23Z</time>
  <course>153.95</course>
  <speed>0.26570660511172844</speed>
  <fix>3d</fix>
</trkpt>
<trkpt lat="40.0713533" lon="-105.2297874">
  <ele>1583.0</ele>
  <time>2026-08-28T17:54:23Z</time>
  <course>154.48</course>
  <speed>0.28</speed>
  <fix>3d</fix>
</trkpt>
<trkpt lat="40.0713529" lon="-105.2297875">
  <ele>1582.89</ele>
  <time>2026-08-28T17:54:23Z</time>
  <course>152.55</course>
  <speed>0.2692582403567252</speed>
  <fix>3d</fix>
</trkpt>
<trkpt lat="40.0713533" lon="-105.2297874">
  <ele>1583.0</ele>
  <time>2026-08-28T17:54:23Z</time>
  <course>154.48</course>
  <speed>0.28</speed>
  <fix>3d</fix>
</trkpt>
<trkpt lat="40.0713527" lon="-105.2297873">
  <ele>1582.89</ele>
  <time>2026-08-28T17:54:23Z</time>
  <course>151.12</course>
  <speed>0.2823118842698621</speed>
  <fix>3d</fix>
</trkpt>
<trkpt lat="40.0713529" lon="-105.2297872">
  <ele>1583.0</ele>
  <time>2026-08-28T17:54:23Z</time>
  <course>151.73</course>
  <speed>0.3</speed>
  <fix>3d</fix>
</trkpt>
<trkpt lat="40.0713524" lon="-105.2297871">
  <ele>1582.89</ele>
  <time>2026-08-28T17:54:23Z</time>
  <course>149.66</course>
  <speed>0.2906888370749727</speed>
  <fix>3d</fix>
</trkpt>
<trkpt lat="40.0713529" lon="-105.2297872">
  <ele>1583.0</ele>
  <time>2026-08-28T17:54:23Z</time>
  <course>151.73</course>
  <speed>0.3</speed>
  <fix>3d</fix>
</trkpt>
<trkpt lat="40.0713522" lon="-105.2297869">
  <ele>1582.89</ele>
  <time>2026-08-28T17:54:23Z</time>
  <course>148.16</course>
  <speed>0.295296461204668</speed>
  <fix>3d</fix>
</trkpt>
<trkpt lat="40.0713524" lon="-105.2297868">
  <ele>1583.0</ele>
  <time>2026-08-28T17:54:23Z</time>
  <course>148.84</course>
  <speed>0.31</speed>
  <fix>3d</fix>
</trkpt>
<trkpt lat="40.071352" lon="-105.2297867">
  <ele>1582.89</ele>
  <time>2026-08-28T17:54:23Z</time>
  <course>146.61</course>
  <speed>0.30016662039607267</speed>
  <fix>3d</fix>
</trkpt>
<trkpt lat="40.0713524" lon="-105.2297868">
  <ele>1583.0</ele>
  <time>2026-08-28T17:54:23Z</time>
  <course>148.84</course>
  <speed>0.31</speed>
  <fix>3d</fix>
</trkpt>
<trkpt lat="40.0713517" lon="-105.2297865">
  <ele>1582.89</ele>
  <time>2026-08-28T17:54:23Z</time>
  <course>145.04</course>
  <speed>0.30528675044947495</speed>
  <fix>3d</fix>
</trkpt>
<trkpt lat="40.0713519" lon="-105.2297864">
  <ele>1583.0</ele>
  <time>2026-08-28T17:54:23Z</time>
  <course>145.8</course>
  <speed>0.33</speed>
  <fix>3d</fix>
</trkpt>
<trkpt lat="40.0713514" lon="-105.2297862">
  <ele>1582.9</ele>
  <time>2026-08-28T17:54:23Z</time>
  <course>143.11</course>
  <speed>0.31064449134018135</speed>
  <fix>3d</fix>
</trkpt>
<trkpt lat="40.0713519" lon="-105.2297864">
  <ele>1583.0</ele>
  <time>2026-08-28T17:54:23Z</time>
  <course>145.8</course>
  <speed>0.33</speed>
  <fix>3d</fix>
</trkpt>
<trkpt lat="40.0713512" lon="-105.2297859">
  <ele>1582.9</ele>
  <time>2026-08-28T17:54:23Z</time>
  <course>141.45</course>
  <speed>0.31622776601683794</speed>
  <fix>3d</fix>
</trkpt>
<trkpt lat="40.0713514" lon="-105.2297859">
  <ele>1583.0</ele>
  <time>2026-08-28T17:54:23Z</time>
  <course>142.62</course>
  <speed>0.34</speed>
  <fix>3d</fix>
</trkpt>
<trkpt lat="40.0713509" lon="-105.2297857">
  <ele>1582.9</ele>
  <time>2026-08-28T17:54:23Z</time>
  <course>139.77</course>
  <speed>0.3280243893371345</speed>
  <fix>3d</fix>
</trkpt>
<trkpt lat="40.0713514" lon="-105.2297859">
  <ele>1583.0</ele>
  <time>2026-08-28T17:54:23Z</time>
  <course>142.62</course>
  <speed>0.34</speed>
  <fix>3d</fix>
</trkpt>
<trkpt lat="40.0713507" lon="-105.2297854">
  <ele>1582.91</ele>
  <time>2026-08-28T17:54:23Z</time>
  <course>138.05</course>
  <speed>0.32649655434629016</speed>
  <fix>3d</fix>
</trkpt>
<trkpt lat="40.0713509" lon="-105.2297854">
  <ele>1583.0</ele>
  <time>2026-08-28T17:54:23Z</time>
  <course>139.3</course>
  <speed>0.35</speed>
  <fix>3d</fix>
</trkpt>
<trkpt lat="40.0713504" lon="-105.2297851">
  <ele>1582.91</ele>
  <time>2026-08-28T17:54:23Z</time>
  <course>136.28</course>
  <speed>0.3330165161069343</speed>
  <fix>3d</fix>
</trkpt>
<trkpt lat="40.0713509" lon="-105.2297854">
  <ele>1583.0</ele>
  <time>2026-08-28T17:54:23Z</time>
  <course>139.3</course>
  <speed>0.35</speed>
  <fix>3d</fix>
</trkpt>
<trkpt lat="40.0713502" lon="-105.2297848">
  <ele>1582.91</ele>
  <time>2026-08-28T17:54:23Z</time>
  <course>134.48</course>
  <speed>0.34655446902326914</speed>
  <fix>3d</fix>
</trkpt>
<trkpt lat="40.0713504" lon="-105.2297848">
  <ele>1583.0</ele>
  <time>2026-08-28T17:54:23Z</time>
  <course>135.82</course>
  <speed>0.37</speed>
  <fix>3d</fix>
</trkpt>
<trkpt lat="40.0713499" lon="-105.2297844">
  <ele>1582.91</ele>
  <time>2026-08-28T17:54:23Z</time>
  <course>132.64</course>
  <speed>0.34655446902326914</speed>
  <fix>3d</fix>
</trkpt>
<trkpt lat="40.0713504" lon="-105.2297848">
  <ele>1583.0</ele>
  <time>2026-08-28T17:54:23Z</time>
  <course>135.82</course>
  <speed>0.37</speed>
  <fix>3d</fix>
</trkpt>
<trkpt lat="40.0713497" lon="-105.2297841">
  <ele>1582.91</ele>
  <time>2026-08-28T17:54:23Z</time>
  <course>130.77</course>
  <speed>0.3538361202590826</speed>
  <fix>3d</fix>
</trkpt>
<trkpt lat="40.07135" lon="-105.2297842">
  <ele>1583.0</ele>
  <time>2026-08-28T17:54:23Z</time>
  <course>132.19</course>
  <speed>0.38</speed>
  <fix>3d</fix>
</trkpt>
<trkpt lat="40.0713495" lon="-105.2297837">
  <ele>1582.9</ele>
  <time>2026-08-28T17:54:23Z</time>
  <course>128.85</course>
  <speed>0.36235341863986875</speed>
  <fix>3d</fix>
</trkpt>
<trkpt lat="40.07135" lon="-105.2297842">
  <ele>1583.0</ele>
  <time>2026-08-28T17:54:23Z</time>
  <course>132.19</course>
  <speed>0.38</speed>
  <fix>3d</fix>
</trkpt>
<trkpt lat="40.0713493" lon="-105.2297833">
  <ele>1582.9</ele>
  <time>2026-08-28T17:54:23Z</time>
  <course>126.9</course>
  <speed>0.37013511046643494</speed>
  <fix>3d</fix>
</trkpt>
<trkpt lat="40.0713495" lon="-105.2297835">
  <ele>1583.0</ele>
  <time>2026-08-28T17:54:23Z</time>
  <course>128.41</course>
  <speed>0.4</speed>
  <fix>3d</fix>
</trkpt>
<trkpt lat="40.0713491" lon="-105.2297829">
  <ele>1582.9</ele>
  <time>2026-08-28T17:54:23Z</time>
  <course>124.9</course>
  <speed>0.3720215047547655</speed>
  <fix>3d</fix>
</trkpt>
<trkpt lat="40.0713495" lon="-105.2297835">
  <ele>1583.0</ele>
  <time>2026-08-28T17:54:23Z</time>
  <course>128.41</course>
  <speed>0.4</speed>
  <fix>3d</fix>
</trkpt>
<trkpt lat="40.0713489" lon="-105.2297826">
  <ele>1582.89</ele>
  <time>2026-08-28T17:54:23Z</time>
  <course>123.26</course>
  <speed>0.3827531841800928</speed>
  <fix>3d</fix>
</trkpt>
<trkpt lat="40.0713491" lon="-105.2297826">
  <ele>1583.0</ele>
  <time>2026-08-28T17:54:23Z</time>
  <course>124.47</course>
  <speed>0.41</speed>
  <fix>3d</fix>
</trkpt>
<trkpt lat="40.0713487" lon="-105.2297822">
  <ele>1582.89</ele>
  <time>2026-08-28T17:54:23Z</time>
  <course>121.19</course>
  <speed>0.3858756276314948</speed>
  <fix>3d</fix>
</trkpt>
<trkpt lat="40.0713491" lon="-105.2297826">
  <ele>1583.0</ele>
  <time>2026-08-28T17:54:23Z</time>
  <course>124.47</course>
  <speed>0.41</speed>
  <fix>3d</fix>
</trkpt>
<trkpt lat="40.0713485" lon="-105.2297817">
  <ele>1582.88</ele>
  <time>2026-08-28T17:54:23Z</time>
  <course>119.08</course>
  <speed>0.38948684188300897</speed>
  <fix>3d</fix>
</trkpt>
<trkpt lat="40.0713487" lon="-105.2297819">
  <ele>1583.0</ele>
  <time>2026-08-28T17:54:23Z</time>
  <course>120.38</course>
  <speed>0.43</speed>
  <fix>3d</fix>
</trkpt>
<trkpt lat="40.0713484" lon="-105.2297813">
  <ele>1582.88</ele>
  <time>2026-08-28T17:54:23Z</time>
  <course>116.95</course>
  <speed>0.40249223594996214</speed>
  <fix>3d</fix>
</trkpt>
<trkpt lat="40.0713487" lon="-105.2297819">
  <ele>1583.0</ele>
  <time>2026-08-28T17:54:23Z</time>
  <course>120.38</course>
  <speed>0.43</speed>
  <fix>3d</fix>
</trkpt>
<trkpt lat="40.0713482" lon="-105.2297808">
  <ele>1582.88</ele>
  <time>2026-08-28T17:54:23Z</time>
  <course>114.76</course>
  <speed>0.40718546143004664</speed>
  <fix>3d</fix>
</trkpt>
<trkpt lat="40.0713483" lon="-105.229781">
  <ele>1583.0</ele>
  <time>2026-08-28T17:54:23Z</time>
  <course>116.11</course>
  <speed>0.44</speed>
  <fix>3d</fix>
</trkpt>
<trkpt lat="40.071348" lon="-105.2297803">
  <ele>1582.88</ele>
  <time>2026-08-28T17:54:23Z</time>
  <course>112.52</course>
  <speed>0.41785164831552357</speed>
  <fix>3d</fix>
</trkpt>
<trkpt lat="40.0713483" lon="-105.229781">
  <ele>1583.0</ele>
  <time>2026-08-28T17:54:23Z</time>
  <course>116.11</course>
  <speed>0.44</speed>
  <fix>3d</fix>
</trkpt>
<trkpt lat="40.0713479" lon="-105.2297798">
  <ele>1582.88</ele>
  <time>2026-08-28T17:54:23Z</time>
  <course>110.25</course>
  <speed>0.42379240200834184</speed>
  <fix>3d</fix>
</trkpt>
<trkpt lat="40.071348" lon="-105.2297799">
  <ele>1583.0</ele>
  <time>2026-08-28T17:54:23Z</time>
  <course>111.69</course>
  <speed>0.46</speed>
  <fix>3d</fix>
</trkpt>
<trkpt lat="40.0713478" lon="-105.2297792">
  <ele>1582.89</ele>
  <time>2026-08-28T17:54:23Z</time>
  <course>107.93</course>
  <speed>0.42720018726587655</speed>
  <fix>3d</fix>
</trkpt>
<trkpt lat="40.071348" lon="-105.2297799">
  <ele>1583.0</ele>
  <time>2026-08-28T17:54:23Z</time>
  <course>111.69</course>
  <speed>0.46</speed>
  <fix>3d</fix>
</trkpt>
<trkpt lat="40.0713477" lon="-105.2297787">
  <ele>1582.89</ele>
  <time>2026-08-28T17:54:23Z</time>
  <course>105.58</course>
  <speed>0.431740662898458</speed>
  <fix>3d</fix>
</trkpt>
<trkpt lat="40.0713477" lon="-105.2297789">
  <ele>1583.0</ele>
  <time>2026-08-28T17:54:23Z</time>
  <course>107.12</course>
  <speed>0.47</speed>
  <fix>3d</fix>
</trkpt>
<trkpt lat="40.0713476" lon="-105.2297781">
  <ele>1582.89</ele>
  <time>2026-08-28T17:54:23Z</time>
  <course>103.21</course>
  <speed>0.4393176527297759</speed>
  <fix>3d</fix>
</trkpt>
<trkpt lat="40.0713477" lon="-105.2297789">
  <ele>1583.0</ele>
  <time>2026-08-28T17:54:23Z</time>
  <course>107.12</course>
  <speed>0.47</speed>
  <fix>3d</fix>
</trkpt>
<trkpt lat="40.0713475" lon="-105.2297774">
  <ele>1582.89</ele>
  <time>2026-08-28T17:54:23Z</time>
  <course>100.3</course>
  <speed>0.45398237851264667</speed>
  <fix>3d</fix>
</trkpt>
<trkpt lat="40.0713475" lon="-105.2297778">
  <ele>1583.0</ele>
  <time>2026-08-28T17:54:23Z</time>
  <course>102.39</course>
  <speed>0.48</speed>
  <fix>3d</fix>
</trkpt>
<trkpt lat="40.0713474" lon="-105.2297768">
  <ele>1582.9</ele>
  <time>2026-08-28T17:54:23Z</time>
  <course>97.83</course>
  <speed>0.4617358552246078</speed>
  <fix>3d</fix>
</trkpt>
<trkpt lat="40.0713475" lon="-105.2297778">
  <ele>1583.0</ele>
  <time>2026-08-28T17:54:23Z</time>
  <course>102.39</course>
  <speed>0.48</speed>
  <fix>3d</fix>
</trkpt>
<trkpt lat="40.0713474" lon="-105.2297762">
  <ele>1582.9</ele>
  <time>2026-08-28T17:54:23Z</time>
  <course>95.33</course>
  <speed>0.4604345773288535</speed>
  <fix>3d</fix>
</trkpt>
<trkpt lat="40.0713473" lon="-105.2297767">
  <ele>1583.0</ele>
  <time>2026-08-28T17:54:23Z</time>
  <course>97.51</course>
  <speed>0.5</speed>
  <fix>3d</fix>
</trkpt>
<trkpt lat="40.0713473" lon="-105.2297756">
  <ele>1582.9</ele>
  <time>2026-08-28T17:54:23Z</time>
  <course>92.79</course>
  <speed>0.47</speed>
  <fix>3d</fix>
</trkpt>
<trkpt lat="40.0713473" lon="-105.2297767">
  <ele>1583.0</ele>
  <time>2026-08-28T17:54:23Z</time>
  <course>97.51</course>
  <speed>0.5</speed>
  <fix>3d</fix>
</trkpt>
<trkpt lat="40.0713474" lon="-105.229775">
  <ele>1582.9</ele>
  <time>2026-08-28T17:54:23Z</time>
  <course>90.22</course>
  <speed>0.48041648597857256</speed>
  <fix>3d</fix>
</trkpt>
<trkpt lat="40.0713473" lon="-105.2297755">
  <ele>1583.0</ele>
  <time>2026-08-28T17:54:23Z</time>
  <course>92.47</course>
  <speed>0.51</speed>
  <fix>3d</fix>
</trkpt>
<trkpt lat="40.0713474" lon="-105.2297744">
  <ele>1582.9</ele>
  <time>2026-08-28T17:54:23Z</time>
  <course>87.62</course>
  <speed>0.48166378315169184</speed>
  <fix>3d</fix>
</trkpt>
<trkpt lat="40.0713473" lon="-105.2297755">
  <ele>1583.0</ele>
  <time>2026-08-28T17:54:23Z</time>
  <course>92.47</course>
  <speed>0.51</speed>
  <fix>3d</fix>
</trkpt>
<trkpt lat="40.0713474" lon="-105.2297738">
  <ele>1582.9</ele>
  <time>2026-08-28T17:54:23Z</time>
  <course>84.98</course>
  <speed>0.48373546489791297</speed>
  <fix>3d</fix>
</trkpt>
<trkpt lat="40.0713473" lon="-105.2297743">
  <ele>1583.0</ele>
  <time>2026-08-28T17:54:23Z</time>
  <course>87.3</course>
  <speed>0.52</speed>
  <fix>3d</fix>
</trkpt>
<trkpt lat="40.0713474" lon="-105.2297732">
  <ele>1582.9</ele>
  <time>2026-08-28T17:54:23Z</time>
  <course>82.32</course>
  <speed>0.498196748283246</speed>
  <fix>3d</fix>
</trkpt>
<trkpt lat="40.0713473" lon="-105.2297743">
  <ele>1583.0</ele>
  <time>2026-08-28T17:54:23Z</time>
  <course>87.3</course>
  <speed>0.52</speed>
  <fix>3d</fix>
</trkpt>
<trkpt lat="40.0713475" lon="-105.2297726">
  <ele>1582.9</ele>
  <time>2026-08-28T17:54:23Z</time>
  <course>79.64</course>
  <speed>0.49244289008980524</speed>
  <fix>3d</fix>
</trkpt>
<trkpt lat="40.0713473" lon="-105.229773">
  <ele>1583.0</ele>
  <time>2026-08-28T17:54:23Z</time>
  <course>82.02</course>
  <speed>0.53</speed>
  <fix>3d</fix>
</trkpt>
<trkpt lat="40.0713476" lon="-105.2297719">
  <ele>1582.91</ele>
  <time>2026-08-28T17:54:23Z</time>
  <course>76.93</course>
  <speed>0.5</speed>
  <fix>3d</fix>
</trkpt>
<trkpt lat="40.0713473" lon="-105.229773">
  <ele>1583.0</ele>
  <time>2026-08-28T17:54:23Z</time>
  <course>82.02</course>
  <speed>0.53</speed>
  <fix>3d</fix>
</trkpt>
<trkpt lat="40.0713477" lon="-105.2297713">
  <ele>1582.91</ele>
  <time>2026-08-28T17:54:23Z</time>
  <course>74.22</course>
  <speed>0.5092150822589606</speed>
  <fix>3d</fix>
</trkpt>
<trkpt lat="40.0713474" lon="-105.2297718">
  <ele>1583.0</ele>
  <time>2026-08-28T17:54:23Z</time>
  <course>76.64</course>
  <speed>0.54</speed>
  <fix>3d</fix>
</trkpt>
<trkpt lat="40.0713478" lon="-105.2297708">
  <ele>1582.91</ele>
  <time>2026-08-28T17:54:23Z</time>
  <course>72.0</course>
  <speed>0.5069516742254631</speed>
  <fix>3d</fix>
</trkpt>
<trkpt lat="40.0713474" lon="-105.2297718">
  <ele>1583.0</ele>
  <time>2026-08-28T17:54:23Z</time>
  <course>76.64</course>
  <speed>0.54</speed>
  <fix>3d</fix>
</trkpt>
<trkpt lat="40.071348" lon="-105.2297703">
  <ele>1582.91</ele>
  <time>2026-08-28T17:54:23Z</time>
  <course>69.25</course>
  <speed>0.51478150704935</speed>
  <fix>3d</fix>
</trkpt>
<trkpt lat="40.0713477" lon="-105.2297706">
  <ele>1583.0</ele>
  <time>2026-08-28T17:54:23Z</time>
  <course>71.19</course>
  <speed>0.54</speed>
  <fix>3d</fix>
</trkpt>
<trkpt lat="40.0713482" lon="-105.2297696">
  <ele>1582.92</ele>
  <time>2026-08-28T17:54:23Z</time>
  <course>66.49</course>
  <speed>0.5188448708429139</speed>
  <fix>3d</fix>
</trkpt>
<trkpt lat="40.0713477" lon="-105.2297706">
  <ele>1583.0</ele>
  <time>2026-08-28T17:54:23Z</time>
  <course>71.19</course>
  <speed>0.54</speed>
  <fix>3d</fix>
</trkpt>
<trkpt lat="40.0713484" lon="-105.2297691">
  <ele>1582.92</ele>
  <time>2026-08-28T17:54:23Z</time>
  <course>63.75</course>
  <speed>0.5197114584074513</speed>
  <fix>3d</fix>
</trkpt>
<trkpt lat="40.071348" lon="-105.2297694">
  <ele>1583.0</ele>
  <time>2026-08-28T17:54:23Z</time>
  <course>65.68</course>
  <speed>0.55</speed>
  <fix>3d</fix>
</trkpt>
<trkpt lat="40.0713486" lon="-105.2297685">
  <ele>1582.92</ele>
  <time>2026-08-28T17:54:23Z</time>
  <course>60.97</course>
  <speed>0.521536192416212</speed>
  <fix>3d</fix>
</trkpt>
<trkpt lat="40.071348" lon="-105.2297694">
  <ele>1583.0</ele>
  <time>2026-08-28T17:54:23Z</time>
  <course>65.68</course>
  <speed>0.55</speed>
  <fix>3d</fix>
</trkpt>
<trkpt lat="40.0713489" lon="-105.2297679">
  <ele>1582.92</ele>
  <time>2026-08-28T17:54:23Z</time>
  <course>58.19</course>
  <speed>0.5220153254455275</speed>
  <fix>3d</fix>
</trkpt>
<trkpt lat="40.0713485" lon="-105.2297682">
  <ele>1583.0</ele>
  <time>2026-08-28T17:54:23Z</time>
  <course>60.13</course>
  <speed>0.55</speed>
  <fix>3d</fix>
</trkpt>
<trkpt lat="40.0713492" lon="-105.2297674">
  <ele>1582.92</ele>
  <time>2026-08-28T17:54:23Z</time>
  <course>55.39</course>
  <speed>0.5263078946776306</speed>
  <fix>3d</fix>
</trkpt>
<trkpt lat="40.0713485" lon="-105.2297682">
  <ele>1583.0</ele>
  <time>2026-08-28T17:54:23Z</time>
  <course>60.13</course>
  <speed>0.55</speed>
  <fix>3d</fix>
</trkpt>
<trkpt lat="40.0713495" lon="-105.2297669">
  <ele>1582.92</ele>
  <time>2026-08-28T17:54:23Z</time>
  <course>52.56</course>
  <speed>0.5240229002629561</speed>
  <fix>3d</fix>
</trkpt>
<trkpt lat="40.071349" lon="-105.2297671">
  <ele>1583.0</ele>
  <time>2026-08-28T17:54:23Z</time>
  <course>54.55</course>
  <speed>0.56</speed>
  <fix>3d</fix>
</trkpt>
<trkpt lat="40.0713498" lon="-105.2297664">
  <ele>1582.92</ele>
  <time>2026-08-28T17:54:23Z</time>
  <course>49.74</course>
  <speed>0.5303772242470448</speed>
  <fix>3d</fix>
</trkpt>
<trkpt lat="40.071349" lon="-105.2297671">
  <ele>1583.0</ele>
  <time>2026-08-28T17:54:23Z</time>
  <course>54.55</course>
  <speed>0.56</speed>
  <fix>3d</fix>
</trkpt>
<trkpt lat="40.0713502" lon="-105.2297659">
  <ele>1582.92</ele>
  <time>2026-08-28T17:54:23Z</time>
  <course>46.89</course>
  <speed>0.5381449618829484</speed>
  <fix>3d</fix>
</trkpt>
<trkpt lat="40.0713497" lon="-105.229766">
  <ele>1583.0</ele>
  <time>2026-08-28T17:54:23Z</time>
  <course>48.9</course>
  <speed>0.56</speed>
  <fix>3d</fix>
</trkpt>
<trkpt lat="40.0713506" lon="-105.2297653">
  <ele>1582.93</ele>
  <time>2026-08-28T17:54:23Z</time>
  <course>43.44</course>
  <speed>0.5403702434442519</speed>
  <fix>3d</fix>
</trkpt>
<trkpt lat="40.0713497" lon="-105.229766">
  <ele>1583.0</ele>
  <time>2026-08-28T17:54:23Z</time>
  <course>48.9</course>
  <speed>0.56</speed>
  <fix>3d</fix>
</trkpt>
<trkpt lat="40.071351" lon="-105.2297649">
  <ele>1582.93</ele>
  <time>2026-08-28T17:54:23Z</time>
  <course>40.53</course>
  <speed>0.5521775076911409</speed>
  <fix>3d</fix>
</trkpt>
<trkpt lat="40.0713504" lon="-105.2297651">
  <ele>1583.0</ele>
  <time>2026-08-28T17:54:23Z</time>
  <course>43.16</course>
  <speed>0.57</speed>
  <fix>3d</fix>
</trkpt>
<trkpt lat="40.0713514" lon="-105.2297644">
  <ele>1582.93</ele>
  <time>2026-08-28T17:54:23Z</time>
  <course>37.57</course>
  <speed>0.5575840743780259</speed>
  <fix>3d</fix>
</trkpt>
<trkpt lat="40.0713504" lon="-105.2297651">
  <ele>1583.0</ele>
  <time>2026-08-28T17:54:23Z</time>
  <course>43.16</course>
  <speed>0.57</speed>
  <fix>3d</fix>
</trkpt>
<trkpt lat="40.0713518" lon="-105.229764">
  <ele>1582.93</ele>
  <time>2026-08-28T17:54:23Z</time>
  <course>34.56</course>
  <speed>0.5730619512757761</speed>
  <fix>3d</fix>
</trkpt>
<trkpt lat="40.0713512" lon="-105.2297643">
  <ele>1583.0</ele>
  <time>2026-08-28T17:54:23Z</time>
  <course>37.27</course>
  <speed>0.58</speed>
  <fix>3d</fix>
</trkpt>
<trkpt lat="40.0713523" lon="-105.2297637">
  <ele>1582.93</ele>
  <time>2026-08-28T17:54:23Z</time>
  <course>31.49</course>
  <speed>0.5813776741499453</speed>
  <fix>3d</fix>
</trkpt>
<trkpt lat="40.0713512" lon="-105.2297643">
  <ele>1583.0</ele>
  <time>2026-08-28T17:54:23Z</time>
  <course>37.27</course>
  <speed>0.58</speed>
  <fix>3d</fix>
</trkpt>
<trkpt lat="40.0713528" lon="-105.2297633">
  <ele>1582.92</ele>
  <time>2026-08-28T17:54:23Z</time>
  <course>28.34</course>
  <speed>0.6000833275470999</speed>
  <fix>3d</fix>
</trkpt>
<trkpt lat="40.0713521" lon="-105.2297634">
  <ele>1583.0</ele>
  <time>2026-08-28T17:54:23Z</time>
  <course>31.15</course>
  <speed>0.61</speed>
  <fix>3d</fix>
</trkpt>
<trkpt lat="40.0713533" lon="-105.229763">
  <ele>1582.92</ele>
  <time>2026-08-28T17:54:23Z</time>
  <course>25.1</course>
  <speed>0.6296824596572467</speed>
  <fix>3d</fix>
</trkpt>
<trkpt lat="40.0713521" lon="-105.2297634">
  <ele>1583.0</ele>
  <time>2026-08-28T17:54:23Z</time>
  <course>31.15</course>
  <speed>0.61</speed>
  <fix>3d</fix>
</trkpt>
<trkpt lat="40.0713538" lon="-105.2297627">
  <ele>1582.92</ele>
  <time>2026-08-28T17:54:23Z</time>
  <course>21.75</course>
  <speed>0.648459713474939</speed>
  <fix>3d</fix>
</trkpt>
<trkpt lat="40.071353" lon="-105.2297628">
  <ele>1583.0</ele>
  <time>2026-08-28T17:54:23Z</time>
  <course>24.72</course>
  <speed>0.64</speed>
  <fix>3d</fix>
</trkpt>
<trkpt lat="40.0713544" lon="-105.2297625">
  <ele>1582.92</ele>
  <time>2026-08-28T17:54:23Z</time>
  <course>18.27</course>
  <speed>0.6791170738539859</speed>
  <fix>3d</fix>
</trkpt>
<trkpt lat="40.071353" lon="-105.2297628">
  <ele>1583.0</ele>
  <time>2026-08-28T17:54:23Z</time>
  <course>24.72</course>
  <speed>0.64</speed>
  <fix>3d</fix>
</trkpt>
<trkpt lat="40.071355" lon="-105.2297623">
  <ele>1582.92</ele>
  <time>2026-08-28T17:54:23Z</time>
  <course>14.66</course>
  <speed>0.7218032973047436</speed>
  <fix>3d</fix>
</trkpt>
<trkpt lat="40.0713542" lon="-105.2297622">
  <ele>1583.0</ele>
  <time>2026-08-28T17:54:23Z</time>
  <course>17.87</course>
  <speed>0.69</speed>
  <fix>3d</fix>
</trkpt>
<trkpt lat="40.0713557" lon="-105.2297621">
  <ele>1582.92</ele>
  <time>2026-08-28T17:54:23Z</time>
  <course>10.89</course>
  <speed>0.7653103945458993</speed>
  <fix>3d</fix>
</trkpt>
<trkpt lat="40.0713542" lon="-105.2297622">
  <ele>1583.0</ele>
  <time>2026-08-28T17:54:23Z</time>
  <course>17.87</course>
  <speed>0.69</speed>
  <fix>3d</fix>
</trkpt>
<trkpt lat="40.0713563" lon="-105.229762">
  <ele>1582.92</ele>
  <time>2026-08-28T17:54:23Z</time>
  <course>7.72</course>
  <speed>0.8015609770940699</speed>
  <fix>3d</fix>
</trkpt>
<trkpt lat="40.0713554" lon="-105.2297617">
  <ele>1583.0</ele>
  <time>2026-08-28T17:54:23Z</time>
  <course>10.46</course>
  <speed>0.77</speed>
  <fix>3d</fix>
</trkpt>
<trkpt lat="40.071357" lon="-105.2297619">
  <ele>1582.92</ele>
  <time>2026-08-28T17:54:23Z</time>
  <course>3.64</course>
  <speed>0.86</speed>
  <fix>3d</fix>
</trkpt>
<trkpt lat="40.0713554" lon="-105.2297617">
  <ele>1583.0</ele>
  <time>2026-08-28T17:54:23Z</time>
  <course>10.46</course>
  <speed>0.77</speed>
  <fix>3d</fix>
</trkpt>
<trkpt lat="40.0713578" lon="-105.2297619">
  <ele>1582.92</ele>
  <time>2026-08-28T17:54:23Z</time>
  <course>359.41</course>
  <speed>0.9219544457292888</speed>
  <fix>3d</fix>
</trkpt>
<trkpt lat="40.071357" lon="-105.2297615">
  <ele>1583.0</ele>
  <time>2026-08-28T17:54:23Z</time>
  <course>2.42</course>
  <speed>0.87</speed>
  <fix>3d</fix>
</trkpt>
<trkpt lat="40.0713587" lon="-105.229762">
  <ele>1582.92</ele>
  <time>2026-08-28T17:54:23Z</time>
  <course>355.02</course>
  <speed>0.9899494936611666</speed>
  <fix>3d</fix>
</trkpt>
<trkpt lat="40.071357" lon="-105.2297615">
  <ele>1583.0</ele>
  <time>2026-08-28T17:54:23Z</time>
  <course>2.42</course>
  <speed>0.87</speed>
  <fix>3d</fix>
</trkpt>
<trkpt lat="40.0713596" lon="-105.2297622">
  <ele>1582.92</ele>
  <time>2026-08-28T17:54:23Z</time>
  <course>350.52</course>
  <speed>1.0651291001564083</speed>
  <fix>3d</fix>
</trkpt>
<trkpt lat="40.0713587" lon="-105.2297615">
  <ele>1583.0</ele>
  <time>2026-08-28T17:54:23Z</time>
  <course>353.76</course>
  <speed>0.99</speed>
  <fix>3d</fix>
</trkpt>
<trkpt lat="40.0713606" lon="-105.2297625">
  <ele>1582.92</ele>
  <time>2026-08-28T17:54:23Z</time>
  <course>346.15</course>
  <speed>1.1484337159801605</speed>
  <fix>3d</fix>
</trkpt>
<trkpt lat="40.0713587" lon="-105.2297615">
  <ele>1583.0</ele>
  <time>2026-08-28T17:54:23Z</time>
  <course>353.76</course>
  <speed>0.99</speed>
  <fix>3d</fix>
</trkpt>
<trkpt lat="40.0713617" lon="-105.2297628">
  <ele>1582.92</ele>
  <time>2026-08-28T17:54:23Z</time>
  <course>341.89</course>
  <speed>1.2313001258832064</speed>
  <fix>3d</fix>
</trkpt>
<trkpt lat="40.0713606" lon="-105.229762">
  <ele>1583.0</ele>
  <time>2026-08-28T17:54:23Z</time>
  <course>344.98</course>
  <speed>1.14</speed>
  <fix>3d</fix>
</trkpt>
<trkpt lat="40.0713628" lon="-105.2297634">
  <ele>1582.92</ele>
  <time>2026-08-28T17:54:23Z</time>
  <course>337.72</course>
  <speed>1.3109538512091108</speed>
  <fix>3d</fix>
</trkpt>
<trkpt lat="40.0713606" lon="-105.229762">
  <ele>1583.0</ele>
  <time>2026-08-28T17:54:23Z</time>
  <course>344.98</course>
  <speed>1.14</speed>
  <fix>3d</fix>
</trkpt>
<trkpt lat="40.0713639" lon="-105.2297641">
  <ele>1582.92</ele>
  <time>2026-08-28T17:54:23Z</time>
  <course>333.71</course>
  <speed>1.4006427096158394</speed>
  <fix>3d</fix>
</trkpt>
<trkpt lat="40.0713626" lon="-105.2297629">
  <ele>1583.0</ele>
  <time>2026-08-28T17:54:23Z</time>
  <course>336.61</course>
  <speed>1.3</speed>
  <fix>3d</fix>
</trkpt>
<trkpt lat="40.071365" lon="-105.2297649">
  <ele>1582.93</ele>
  <time>2026-08-28T17:54:23Z</time>
  <course>329.79</course>
  <speed>1.4925146565444507</speed>
  <fix>3d</fix>
</trkpt>
<trkpt lat="40.0713626" lon="-105.2297629">
  <ele>1583.0</ele>
  <time>2026-08-28T17:54:23Z</time>
  <course>336.61</course>
  <speed>1.3</speed>
  <fix>3d</fix>
</trkpt>
<trkpt lat="40.0713664" lon="-105.2297661">
  <ele>1582.93</ele>
  <time>2026-08-28T17:54:23Z</time>
  <course>325.25</course>
  <speed>1.5920113064925134</speed>
  <fix>3d</fix>
</trkpt>
<trkpt lat="40.0713648" lon="-105.2297644">
  <ele>1583.0</ele>
  <time>2026-08-28T17:54:23Z</time>
  <course>328.7</course>
  <speed>1.47</speed>
  <fix>3d</fix>
</trkpt>
<trkpt lat="40.0713676" lon="-105.2297673">
  <ele>1582.93</ele>
  <time>2026-08-28T17:54:23Z</time>
  <course>321.61</course>
  <speed>1.6671232707871366</speed>
  <fix>3d</fix>
</trkpt>
<trkpt lat="40.0713648" lon="-105.2297644">
  <ele>1583.0</ele>
  <time>2026-08-28T17:54:23Z</time>
  <course>328.7</course>
  <speed>1.47</speed>
  <fix>3d</fix>
</trkpt>
<trkpt lat="40.0713687" lon="-105.2297687">
  <ele>1582.93</ele>
  <time>2026-08-28T17:54:23Z</time>
  <course>318.1</course>
  <speed>1.7255723688098394</speed>
  <fix>3d</fix>
</trkpt>
<trkpt lat="40.0713671" lon="-105.2297665">
  <ele>1583.0</ele>
  <time>2026-08-28T17:54:23Z</time>
  <course>321.31</course>
  <speed>1.62</speed>
  <fix>3d</fix>
</trkpt>
<trkpt lat="40.0713699" lon="-105.2297701">
  <ele>1582.92</ele>
  <time>2026-08-28T17:54:23Z</time>
  <course>314.73</course>
  <speed>1.7833115263464205</speed>
  <fix>3d</fix>
</trkpt>
<trkpt lat="40.0713671" lon="-105.2297665">
  <ele>1583.0</ele>
  <time>2026-08-28T17:54:23Z</time>
  <course>321.31</course>
  <speed>1.62</speed>
  <fix>3d</fix>
</trkpt>
<trkpt lat="40.0713709" lon="-105.2297717">
  <ele>1582.92</ele>
  <time>2026-08-28T17:54:23Z</time>
  <course>311.48</course>
  <speed>1.8181309083781618</speed>
  <fix>3d</fix>
</trkpt>
<trkpt lat="40.0713693" lon="-105.2297692">
  <ele>1583.0</ele>
  <time>2026-08-28T17:54:23Z</time>
  <course>314.41</course>
  <speed>1.73</speed>
  <fix>3d</fix>
</trkpt>
<trkpt lat="40.0713719" lon="-105.2297734">
  <ele>1582.92</ele>
  <time>2026-08-28T17:54:23Z</time>
  <course>308.36</course>
  <speed>1.8520529150107996</speed>
  <fix>3d</fix>
</trkpt>
<trkpt lat="40.0713693" lon="-105.2297692">
  <ele>1583.0</ele>
  <time>2026-08-28T17:54:23Z</time>
  <course>314.41</course>
  <speed>1.73</speed>
  <fix>3d</fix>
</trkpt>
<trkpt lat="40.0713729" lon="-105.2297752">
  <ele>1582.92</ele>
  <time>2026-08-28T17:54:23Z</time>
  <course>305.37</course>
  <speed>1.8693581786270923</speed>
  <fix>3d</fix>
</trkpt>
<trkpt lat="40.0713715" lon="-105.2297723">
  <ele>1583.0</ele>
  <time>2026-08-28T17:54:23Z</time>
  <course>308.02</course>
  <speed>1.8</speed>
  <fix>3d</fix>
</trkpt>
<trkpt lat="40.0713738" lon="-105.229777">
  <ele>1582.91</ele>
  <time>2026-08-28T17:54:23Z</time>
  <course>302.5</course>
  <speed>1.8830825791770258</speed>
  <fix>3d</fix>
</trkpt>
<trkpt lat="40.0713715" lon="-105.2297723">
  <ele>1583.0</ele>
  <time>2026-08-28T17:54:23Z</time>
  <course>308.02</course>
  <speed>1.8</speed>
  <fix>3d</fix>
</trkpt>
<trkpt lat="40.0713746" lon="-105.2297789">
  <ele>1582.91</ele>
  <time>2026-08-28T17:54:23Z</time>
  <course>299.74</course>
  <speed>1.8876705220985996</speed>
  <fix>3d</fix>
</trkpt>
<trkpt lat="40.0713733" lon="-105.2297758">
  <ele>1583.0</ele>
  <time>2026-08-28T17:54:23Z</time>
  <course>302.13</course>
  <speed>1.84</speed>
  <fix>3d</fix>
</trkpt>
<trkpt lat="40.0713753" lon="-105.2297808">
  <ele>1582.9</ele>
  <time>2026-08-28T17:54:23Z</time>
  <course>297.1</course>
  <speed>1.8878824115924169</speed>
  <fix>3d</fix>
</trkpt>
<trkpt lat="40.0713733" lon="-105.2297758">
  <ele>1583.0</ele>
  <time>2026-08-28T17:54:23Z</time>
  <course>302.13</course>
  <speed>1.84</speed>
  <fix>3d</fix>
</trkpt>
<trkpt lat="40.071376" lon="-105.2297828">
  <ele>1582.9</ele>
  <time>2026-08-28T17:54:23Z</time>
  <course>294.59</course>
  <speed>1.8830825791770258</speed>
  <fix>3d</fix>
</trkpt>
<trkpt lat="40.0713749" lon="-105.2297796">
  <ele>1583.0</ele>
  <time>2026-08-28T17:54:23Z</time>
  <course>296.71</course>
  <speed>1.85</speed>
  <fix>3d</fix>
</trkpt>
<trkpt lat="40.0713765" lon="-105.2297844">
  <ele>1582.9</ele>
  <time>2026-08-28T17:54:23Z</time>
  <course>292.64</course>
  <speed>1.870320828093405</speed>
  <fix>3d</fix>
</trkpt>
<trkpt lat="40.0713749" lon="-105.2297796">
  <ele>1583.0</ele>
  <time>2026-08-28T17:54:23Z</time>
  <course>296.71</course>
  <speed>1.85</speed>
  <fix>3d</fix>
</trkpt>
<trkpt lat="40.0713771" lon="-105.2297864">
  <ele>1582.9</ele>
  <time>2026-08-28T17:54:23Z</time>
  <course>290.31</course>
  <speed>1.862605701698564</speed>
  <fix>3d</fix>
</trkpt>
<trkpt lat="40.0713763" lon="-105.2297835">
  <ele>1583.0</ele>
  <time>2026-08-28T17:54:23Z</time>
  <course>291.75</course>
  <speed>1.84</speed>
  <fix>3d</fix>
</trkpt>
<trkpt lat="40.0713775" lon="-105.2297885">
  <ele>1582.9</ele>
  <time>2026-08-28T17:54:23Z</time>
  <course>288.05</course>
  <speed>1.8420097719610502</speed>
  <fix>3d</fix>
</trkpt>
<trkpt lat="40.0713763" lon="-105.2297835">
  <ele>1583.0</ele>
  <time>2026-08-28T17:54:23Z</time>
  <course>291.75</course>
  <speed>1.84</speed>
  <fix>3d</fix>
</trkpt>
<trkpt lat="40.071378" lon="-105.2297905">
  <ele>1582.9</ele>
  <time>2026-08-28T17:54:23Z</time>
  <course>285.84</course>
  <speed>1.8312017911743097</speed>
  <fix>3d</fix>
</trkpt>
<trkpt lat="40.0713774" lon="-105.2297876">
  <ele>1583.0</ele>
  <time>2026-08-28T17:54:23Z</time>
  <course>287.13</course>
  <speed>1.81</speed>
  <fix>3d</fix>
</trkpt>
<trkpt lat="40.0713783" lon="-105.2297926">
  <ele>1582.9</ele>
  <time>2026-08-28T17:54:23Z</time>
  <course>283.66</course>
  <speed>1.806239186818844</speed>
  <fix>3d</fix>
</trkpt>
<trkpt lat="40.0713774" lon="-105.2297876">
  <ele>1583.0</ele>
  <time>2026-08-28T17:54:23Z</time>
  <course>287.13</course>
  <speed>1.81</speed>
  <fix>3d</fix>
</trkpt>
<trkpt lat="40.0713786" lon="-105.2297946">
  <ele>1582.9</ele>
  <time>2026-08-28T17:54:23Z</time>
  <course>281.52</course>
  <speed>1.793599732381782</speed>
  <fix>3d</fix>
</trkpt>
<trkpt lat="40.0713782" lon="-105.2297917">
  <ele>1583.0</ele>
  <time>2026-08-28T17:54:23Z</time>
  <course>282.73</course>
  <speed>1.78</speed>
  <fix>3d</fix>
</trkpt>
<trkpt lat="40.0713788" lon="-105.2297967">
  <ele>1582.9</ele>
  <time>2026-08-28T17:54:23Z</time>
  <course>279.42</course>
  <speed>1.7736967046256809</speed>
  <fix>3d</fix>
</trkpt>
<trkpt lat="40.0713782" lon="-105.2297917">
  <ele>1583.0</ele>
  <time>2026-08-28T17:54:23Z</time>
  <course>282.73</course>
  <speed>1.78</speed>
  <fix>3d</fix>
</trkpt>
<trkpt lat="40.071379" lon="-105.2297987">
  <ele>1582.9</ele>
  <time>2026-08-28T17:54:23Z</time>
  <course>277.33</course>
  <speed>1.746453549339346</speed>
  <fix>3d</fix>
</trkpt>
<trkpt lat="40.0713788" lon="-105.2297958">
  <ele>1583.0</ele>
  <time>2026-08-28T17:54:23Z</time>
  <course>278.49</course>
  <speed>1.74</speed>
  <fix>3d</fix>
</trkpt>
<trkpt lat="40.0713791" lon="-105.2298007">
  <ele>1582.89</ele>
  <time>2026-08-28T17:54:23Z</time>
  <course>275.31</course>
  <speed>1.7323394586512193</speed>
  <fix>3d</fix>
</trkpt>
<trkpt lat="40.0713788" lon="-105.2297958">
  <ele>1583.0</ele>
  <time>2026-08-28T17:54:23Z</time>
  <course>278.49</course>
  <speed>1.74</speed>
  <fix>3d</fix>
</trkpt>
<trkpt lat="40.0713792" lon="-105.2298031">
  <ele>1582.89</ele>
  <time>2026-08-28T17:54:23Z</time>
  <course>272.93</course>
  <speed>1.7100292395160965</speed>
  <fix>3d</fix>
</trkpt>
<trkpt lat="40.0713791" lon="-105.2297998">
  <ele>1583.0</ele>
  <time>2026-08-28T17:54:23Z</time>
  <course>274.4</course>
  <speed>1.7</speed>
  <fix>3d</fix>
</trkpt>
<trkpt lat="40.0713792" lon="-105.2298051">
  <ele>1582.89</ele>
  <time>2026-08-28T17:54:23Z</time>
  <course>270.96</course>
  <speed>1.690473306503241</speed>
  <fix>3d</fix>
</trkpt>
<trkpt lat="40.0713791" lon="-105.2297998">
  <ele>1583.0</ele>
  <time>2026-08-28T17:54:23Z</time>
  <course>274.4</course>
  <speed>1.7</speed>
  <fix>3d</fix>
</trkpt>
<trkpt lat="40.0713791" lon="-105.229807">
  <ele>1582.88</ele>
  <time>2026-08-28T17:54:23Z</time>
  <course>268.98</course>
  <speed>1.672423391369542</speed>
  <fix>3d</fix>
</trkpt>
<trkpt lat="40.0713792" lon="-105.2298038">
  <ele>1583.0</ele>
  <time>2026-08-28T17:54:23Z</time>
  <course>270.42</course>
  <speed>1.67</speed>
  <fix>3d</fix>
</trkpt>
<trkpt lat="40.071379" lon="-105.229809">
  <ele>1582.88</ele>
  <time>2026-08-28T17:54:23Z</time>
  <course>267.0</course>
  <speed>1.656804152578089</speed>
  <fix>3d</fix>
</trkpt>
<trkpt lat="40.0713792" lon="-105.2298038">
  <ele>1583.0</ele>
  <time>2026-08-28T17:54:23Z</time>
  <course>270.42</course>
  <speed>1.67</speed>
  <fix>3d</fix>
</trkpt>
<trkpt lat="40.0713788" lon="-105.2298109">
  <ele>1582.88</ele>
  <time>2026-08-28T17:54:23Z</time>
  <course>265.02</course>
  <speed>1.6434719346554112</speed>
  <fix>3d</fix>
</trkpt>
<trkpt lat="40.0713792" lon="-105.2298077">
  <ele>1583.0</ele>
  <time>2026-08-28T17:54:23Z</time>
  <course>266.46</course>
  <speed>1.64</speed>
  <fix>3d</fix>
</trkpt>
<trkpt lat="40.0713786" lon="-105.2298128">
  <ele>1582.88</ele>
  <time>2026-08-28T17:54:23Z</time>
  <course>263.05</course>
  <speed>1.6308586695357754</speed>
  <fix>3d</fix>
</trkpt>
<trkpt lat="40.0713792" lon="-105.2298077">
  <ele>1583.0</ele>
  <time>2026-08-28T17:54:23Z</time>
  <course>266.46</course>
  <speed>1.64</speed>
  <fix>3d</fix>
</trkpt>
<trkpt lat="40.0713785" lon="-105.2298146">
  <ele>1582.87</ele>
  <time>2026-08-28T17:54:23Z</time>
  <course>261.07</course>
  <speed>1.6218816233005415</speed>
  <fix>3d</fix>
</trkpt>
<trkpt lat="40.071379" lon="-105.2298115">
  <ele>1583.0</ele>
  <time>2026-08-28T17:54:23Z</time>
  <course>262.5</course>
  <speed>1.61</speed>
  <fix>3d</fix>
</trkpt>
<trkpt lat="40.0713782" lon="-105.2298164">
  <ele>1582.87</ele>
  <time>2026-08-28T17:54:24Z</time>
  <course>259.09</course>
  <speed>1.613009609394811</speed>
  <fix>3d</fix>
</trkpt>
<trkpt lat="40.071379" lon="-105.2298115">
  <ele>1583.0</ele>
  <time>2026-08-28T17:54:24Z</time>
  <course>262.5</course>
  <speed>1.61</speed>
  <fix>3d</fix>
</trkpt>
<trkpt lat="40.0713778" lon="-105.2298182">
  <ele>1582.87</ele>
  <time>2026-08-28T17:54:24Z</time>
  <course>257.11</course>
  <speed>1.5962455951387933</speed>
  <fix>3d</fix>
</trkpt>
<trkpt lat="40.0713786" lon="-105.2298152">
  <ele>1583.0</ele>
  <time>2026-08-28T17:54:24Z</time>
  <course>258.53</course>
  <speed>1.59</speed>
  <fix>3d</fix>
</trkpt>
<trkpt lat="40.0713775" lon="-105.22982">
  <ele>1582.87</ele>
  <time>2026-08-28T17:54:24Z</time>
  <course>255.12</course>
  <speed>1.5910059710761615</speed>
  <fix>3d</fix>
</trkpt>
<trkpt lat="40.0713786" lon="-105.2298152">
  <ele>1583.0</ele>
  <time>2026-08-28T17:54:24Z</time>
  <course>258.53</course>
  <speed>1.59</speed>
  <fix>3d</fix>
</trkpt>
<trkpt lat="40.071377" lon="-105.2298217">
  <ele>1582.87</ele>
  <time>2026-08-28T17:54:24Z</time>
  <course>253.13</course>
  <speed>1.5875767697972907</speed>
  <fix>3d</fix>
</trkpt>
<trkpt lat="40.0713779" lon="-105.2298189">
  <ele>1583.0</ele>
  <time>2026-08-28T17:54:24Z</time>
  <course>254.56</course>
  <speed>1.58</speed>
  <fix>3d</fix>
</trkpt>
<trkpt lat="40.0713766" lon="-105.2298234">
  <ele>1582.87</ele>
  <time>2026-08-28T17:54:24Z</time>
  <course>251.13</course>
  <speed>1.5859697348940804</speed>
  <fix>3d</fix>
</trkpt>
<trkpt lat="40.0713779" lon="-105.2298189">
  <ele>1583.0</ele>
  <time>2026-08-28T17:54:24Z</time>
  <course>254.56</course>
  <speed>1.58</speed>
  <fix>3d</fix>
</trkpt>
<trkpt lat="40.0713762" lon="-105.2298248">
  <ele>1582.87</ele>
  <time>2026-08-28T17:54:24Z</time>
  <course>249.54</course>
  <speed>1.582308440222702</speed>
  <fix>3d</fix>
</trkpt>
<trkpt lat="40.071377" lon="-105.2298223">
  <ele>1583.0</ele>
  <time>2026-08-28T17:54:24Z</time>
  <course>250.59</course>
  <speed>1.57</speed>
  <fix>3d</fix>
</trkpt>
<trkpt lat="40.0713756" lon="-105.2298265">
  <ele>1582.87</ele>
  <time>2026-08-28T17:54:24Z</time>
  <course>247.54</course>
  <speed>1.574960316960399</speed>
  <fix>3d</fix>
</trkpt>
<trkpt lat="40.071377" lon="-105.2298223">
  <ele>1583.0</ele>
  <time>2026-08-28T17:54:24Z</time>
  <course>250.59</course>
  <speed>1.57</speed>
  <fix>3d</fix>
</trkpt>
<trkpt lat="40.071375" lon="-105.2298281">
  <ele>1582.87</ele>
  <time>2026-08-28T17:54:24Z</time>
  <course>245.54</course>
  <speed>1.578670326572334</speed>
  <fix>3d</fix>
</trkpt>
<trkpt lat="40.071376" lon="-105.2298258">
  <ele>1583.0</ele>
  <time>2026-08-28T17:54:24Z</time>
  <course>246.6</course>
  <speed>1.57</speed>
  <fix>3d</fix>
</trkpt>
<trkpt lat="40.0713744" lon="-105.2298297">
  <ele>1582.86</ele>
  <time>2026-08-28T17:54:24Z</time>
  <course>243.55</course>
  <speed>1.5754364474646383</speed>
  <fix>3d</fix>
</trkpt>
<trkpt lat="40.071376" lon="-105.2298258">
  <ele>1583.0</ele>
  <time>2026-08-28T17:54:24Z</time>
  <course>246.6</course>
  <speed>1.57</speed>
  <fix>3d</fix>
</trkpt>
<trkpt lat="40.0713737" lon="-105.2298313">
  <ele>1582.86</ele>
  <time>2026-08-28T17:54:24Z</time>
  <course>241.55</course>
  <speed>1.5829403020960708</speed>
  <fix>3d</fix>
</trkpt>
<trkpt lat="40.0713748" lon="-105.2298291">
  <ele>1583.0</ele>
  <time>2026-08-28T17:54:24Z</time>
  <course>242.59</course>
  <speed>1.57</speed>
  <fix>3d</fix>
</trkpt>
<trkpt lat="40.071373" lon="-105.2298329">
  <ele>1582.86</ele>
  <time>2026-08-28T17:54:24Z</time>
  <course>239.56</course>
  <speed>1.5838244852255567</speed>
  <fix>3d</fix>
</trkpt>
<trkpt lat="40.0713748" lon="-105.2298291">
  <ele>1583.0</ele>
  <time>2026-08-28T17:54:24Z</time>
  <course>242.59</course>
  <speed>1.57</speed>
  <fix>3d</fix>
</trkpt>
<trkpt lat="40.0713722" lon="-105.2298345">
  <ele>1582.86</ele>
  <time>2026-08-28T17:54:24Z</time>
  <course>237.57</course>
  <speed>1.5811388300841898</speed>
  <fix>3d</fix>
</trkpt>
<trkpt lat="40.0713734" lon="-105.2298323">
  <ele>1583.0</ele>
  <time>2026-08-28T17:54:24Z</time>
  <course>238.59</course>
  <speed>1.57</speed>
  <fix>3d</fix>
</trkpt>
<trkpt lat="40.0713714" lon="-105.229836">
  <ele>1582.86</ele>
  <time>2026-08-28T17:54:24Z</time>
  <course>235.56</course>
  <speed>1.5860012610335465</speed>
  <fix>3d</fix>
</trkpt>
<trkpt lat="40.0713734" lon="-105.2298323">
  <ele>1583.0</ele>
  <time>2026-08-28T17:54:24Z</time>
  <course>238.59</course>
  <speed>1.57</speed>
  <fix>3d</fix>
</trkpt>
<trkpt lat="40.0713705" lon="-105.2298375">
  <ele>1582.86</ele>
  <time>2026-08-28T17:54:24Z</time>
  <course>233.55</course>
  <speed>1.5929846201391902</speed>
  <fix>3d</fix>
</trkpt>
<trkpt lat="40.0713718" lon="-105.2298354">
  <ele>1583.0</ele>
  <time>2026-08-28T17:54:24Z</time>
  <course>234.6</course>
  <speed>1.58</speed>
  <fix>3d</fix>
</trkpt>
<trkpt lat="40.0713694" lon="-105.2298392">
  <ele>1582.86</ele>
  <time>2026-08-28T17:54:24Z</time>
  <course>231.06</course>
  <speed>1.5945218719101972</speed>
  <fix>3d</fix>
</trkpt>
<trkpt lat="40.0713718" lon="-105.2298354">
  <ele>1583.0</ele>
  <time>2026-08-28T17:54:24Z</time>
  <course>234.6</course>
  <speed>1.58</speed>
  <fix>3d</fix>
</trkpt>
<trkpt lat="40.0713685" lon="-105.2298406">
  <ele>1582.86</ele>
  <time>2026-08-28T17:54:24Z</time>
  <course>228.92</course>
  <speed>1.5986244086714052</speed>
  <fix>3d</fix>
</trkpt>
<trkpt lat="40.07137" lon="-105.2298384">
  <ele>1583.0</ele>
  <time>2026-08-28T17:54:24Z</time>
  <course>230.49</course>
  <speed>1.59</speed>
  <fix>3d</fix>
</trkpt>
<trkpt lat="40.0713675" lon="-105.2298419">
  <ele>1582.86</ele>
  <time>2026-08-28T17:54:24Z</time>
  <course>226.71</course>
  <speed>1.6052725625263766</speed>
  <fix>3d</fix>
</trkpt>
<trkpt lat="40.07137" lon="-105.2298384">
  <ele>1583.0</ele>
  <time>2026-08-28T17:54:24Z</time>
  <course>230.49</course>
  <speed>1.59</speed>
  <fix>3d</fix>
</trkpt>
<trkpt lat="40.0713664" lon="-105.2298432">
  <ele>1582.86</ele>
  <time>2026-08-28T17:54:24Z</time>
  <course>224.43</course>
  <speed>1.6070158679988196</speed>
  <fix>3d</fix>
</trkpt>
<trkpt lat="40.0713681" lon="-105.2298412">
  <ele>1583.0</ele>
  <time>2026-08-28T17:54:24Z</time>
  <course>226.16</course>
  <speed>1.6</speed>
  <fix>3d</fix>
</trkpt>
<trkpt lat="40.0713654" lon="-105.2298444">
  <ele>1582.86</ele>
  <time>2026-08-28T17:54:24Z</time>
  <course>222.08</course>
  <speed>1.6119863522995472</speed>
  <fix>3d</fix>
</trkpt>
<trkpt lat="40.0713681" lon="-105.2298412">
  <ele>1583.0</ele>
  <time>2026-08-28T17:54:24Z</time>
  <course>226.16</course>
  <speed>1.6</speed>
  <fix>3d</fix>
</trkpt>
<trkpt lat="40.0713642" lon="-105.2298456">
  <ele>1582.86</ele>
  <time>2026-08-28T17:54:24Z</time>
  <course>219.65</course>
  <speed>1.6120794025109308</speed>
  <fix>3d</fix>
</trkpt>
<trkpt lat="40.0713661" lon="-105.2298438">
  <ele>1583.0</ele>
  <time>2026-08-28T17:54:24Z</time>
  <course>221.54</course>
  <speed>1.6</speed>
  <fix>3d</fix>
</trkpt>
<trkpt lat="40.0713631" lon="-105.2298467">
  <ele>1582.87</ele>
  <time>2026-08-28T17:54:24Z</time>
  <course>217.13</course>
  <speed>1.6171889190815032</speed>
  <fix>3d</fix>
</trkpt>
<trkpt lat="40.0713661" lon="-105.2298438">
  <ele>1583.0</ele>
  <time>2026-08-28T17:54:24Z</time>
  <course>221.54</course>
  <speed>1.6</speed>
  <fix>3d</fix>
</trkpt>
<trkpt lat="40.0713619" lon="-105.2298478">
  <ele>1582.87</ele>
  <time>2026-08-28T17:54:24Z</time>
  <course>214.51</course>
  <speed>1.6175598906995685</speed>
  <fix>3d</fix>
</trkpt>
<trkpt lat="40.0713639" lon="-105.2298462">
  <ele>1583.0</ele>
  <time>2026-08-28T17:54:24Z</time>
  <course>216.6</course>
  <speed>1.61</speed>
  <fix>3d</fix>
</trkpt>
<trkpt lat="40.0713607" lon="-105.2298488">
  <ele>1582.87</ele>
  <time>2026-08-28T17:54:24Z</time>
  <course>211.8</course>
  <speed>1.6162301816263673</speed>
  <fix>3d</fix>
</trkpt>
<trkpt lat="40.0713639" lon="-105.2298462">
  <ele>1583.0</ele>
  <time>2026-08-28T17:54:24Z</time>
  <course>216.6</course>
  <speed>1.61</speed>
  <fix>3d</fix>
</trkpt>
<trkpt lat="40.0713594" lon="-105.2298497">
  <ele>1582.87</ele>
  <time>2026-08-28T17:54:24Z</time>
  <course>208.97</course>
  <speed>1.618919392681427</speed>
  <fix>3d</fix>
</trkpt>
<trkpt lat="40.0713614" lon="-105.2298484">
  <ele>1583.0</ele>
  <time>2026-08-28T17:54:24Z</time>
  <course>211.3</course>
  <speed>1.61</speed>
  <fix>3d</fix>
</trkpt>
<trkpt lat="40.0713581" lon="-105.2298505">
  <ele>1582.86</ele>
  <time>2026-08-28T17:54:24Z</time>
  <course>206.04</course>
  <speed>1.6164467204334327</speed>
  <fix>3d</fix>
</trkpt>
<trkpt lat="40.0713614" lon="-105.2298484">
  <ele>1583.0</ele>
  <time>2026-08-28T17:54:24Z</time>
  <course>211.3</course>
  <speed>1.61</speed>
  <fix>3d</fix>
</trkpt>
<trkpt lat="40.071357" lon="-105.2298511">
  <ele>1582.86</ele>
  <time>2026-08-28T17:54:24Z</time>
  <course>203.58</course>
  <speed>1.6175598906995685</speed>
  <fix>3d</fix>
</trkpt>
<trkpt lat="40.0713589" lon="-105.2298501">
  <ele>1583.0</ele>
  <time>2026-08-28T17:54:24Z</time>
  <course>205.58</course>
  <speed>1.62</speed>
  <fix>3d</fix>
</trkpt>
<trkpt lat="40.0713557" lon="-105.2298517">
  <ele>1582.86</ele>
  <time>2026-08-28T17:54:24Z</time>
  <course>200.42</course>
  <speed>1.6191355718407276</speed>
  <fix>3d</fix>
</trkpt>
<trkpt lat="40.0713589" lon="-105.2298501">
  <ele>1583.0</ele>
  <time>2026-08-28T17:54:24Z</time>
  <course>205.58</course>
  <speed>1.62</speed>
  <fix>3d</fix>
</trkpt>
<trkpt lat="40.0713543" lon="-105.2298522">
  <ele>1582.86</ele>
  <time>2026-08-28T17:54:24Z</time>
  <course>197.12</course>
  <speed>1.62265215003093</speed>
  <fix>3d</fix>
</trkpt>
<trkpt lat="40.0713562" lon="-105.2298516">
  <ele>1583.0</ele>
  <time>2026-08-28T17:54:24Z</time>
  <course>199.38</course>
  <speed>1.62</speed>
  <fix>3d</fix>
</trkpt>
<trkpt lat="40.0713529" lon="-105.2298527">
  <ele>1582.86</ele>
  <time>2026-08-28T17:54:24Z</time>
  <course>193.71</course>
  <speed>1.6199382704288456</speed>
  <fix>3d</fix>
</trkpt>
<trkpt lat="40.0713562" lon="-105.2298516">
  <ele>1583.0</ele>
  <time>2026-08-28T17:54:24Z</time>
  <course>199.38</course>
  <speed>1.62</speed>
  <fix>3d</fix>
</trkpt>
<trkpt lat="40.0713515" lon="-105.229853">
  <ele>1582.86</ele>
  <time>2026-08-28T17:54:24Z</time>
  <course>190.14</course>
  <speed>1.6236378906640483</speed>
  <fix>3d</fix>
</trkpt>
<trkpt lat="40.0713534" lon="-105.2298527">
  <ele>1583.0</ele>
  <time>2026-08-28T17:54:24Z</time>
  <course>192.63</course>
  <speed>1.62</speed>
  <fix>3d</fix>
</trkpt>
<trkpt lat="40.07135" lon="-105.2298532">
  <ele>1582.86</ele>
  <time>2026-08-28T17:54:24Z</time>
  <course>186.4</course>
  <speed>1.6337074401495513</speed>
  <fix>3d</fix>
</trkpt>
<trkpt lat="40.0713534" lon="-105.2298527">
  <ele>1583.0</ele>
  <time>2026-08-28T17:54:24Z</time>
  <course>192.63</course>
  <speed>1.62</speed>
  <fix>3d</fix>
</trkpt>
<trkpt lat="40.0713485" lon="-105.2298533">
  <ele>1582.86</ele>
  <time>2026-08-28T17:54:24Z</time>
  <course>182.52</course>
  <speed>1.63</speed>
  <fix>3d</fix>
</trkpt>
<trkpt lat="40.0713505" lon="-105.2298533">
  <ele>1583.0</ele>
  <time>2026-08-28T17:54:24Z</time>
  <course>185.31</course>
  <speed>1.62</speed>
  <fix>3d</fix>
</trkpt>
<trkpt lat="40.0713471" lon="-105.2298532">
  <ele>1582.86</ele>
  <time>2026-08-28T17:54:24Z</time>
  <course>178.46</course>
  <speed>1.6337074401495513</speed>
  <fix>3d</fix>
</trkpt>
<trkpt lat="40.0713505" lon="-105.2298533">
  <ele>1583.0</ele>
  <time>2026-08-28T17:54:24Z</time>
  <course>185.31</course>
  <speed>1.62</speed>
  <fix>3d</fix>
</trkpt>
<trkpt lat="40.0713456" lon="-105.229853">
  <ele>1582.86</ele>
  <time>2026-08-28T17:54:24Z</time>
  <course>174.23</course>
  <speed>1.6362457028209425</speed>
  <fix>3d</fix>
</trkpt>
<trkpt lat="40.0713476" lon="-105.2298534">
  <ele>1583.0</ele>
  <time>2026-08-28T17:54:24Z</time>
  <course>177.37</course>
  <speed>1.62</speed>
  <fix>3d</fix>
</trkpt>
<trkpt lat="40.0713441" lon="-105.2298527">
  <ele>1582.87</ele>
  <time>2026-08-28T17:54:24Z</time>
  <course>169.88</course>
  <speed>1.6378339354159202</speed>
  <fix>3d</fix>
</trkpt>
<trkpt lat="40.0713476" lon="-105.2298534">
  <ele>1583.0</ele>
  <time>2026-08-28T17:54:24Z</time>
  <course>177.37</course>
  <speed>1.62</speed>
  <fix>3d</fix>
</trkpt>
<trkpt lat="40.0713424" lon="-105.2298522">
  <ele>1582.87</ele>
  <time>2026-08-28T17:54:24Z</time>
  <course>164.45</course>
  <speed>1.6412495239907914</speed>
  <fix>3d</fix>
</trkpt>
<trkpt lat="40.0713447" lon="-105.2298529">
  <ele>1583.0</ele>
  <time>2026-08-28T17:54:24Z</time>
  <course>168.82</course>
  <speed>1.62</speed>
  <fix>3d</fix>
</trkpt>
<trkpt lat="40.0713411" lon="-105.2298515">
  <ele>1582.87</ele>
  <time>2026-08-28T17:54:24Z</time>
  <course>159.75</course>
  <speed>1.6361540269791228</speed>
  <fix>3d</fix>
</trkpt>
<trkpt lat="40.0713447" lon="-105.2298529">
  <ele>1583.0</ele>
  <time>2026-08-28T17:54:24Z</time>
  <course>168.82</course>
  <speed>1.62</speed>
  <fix>3d</fix>
</trkpt>
<trkpt lat="40.0713397" lon="-105.2298507">
  <ele>1582.88</ele>
  <time>2026-08-28T17:54:24Z</time>
  <course>154.89</course>
  <speed>1.6371010964506743</speed>
  <fix>3d</fix>
</trkpt>
<trkpt lat="40.0713419" lon="-105.2298519">
  <ele>1583.0</ele>
  <time>2026-08-28T17:54:24Z</time>
  <course>159.64</course>
  <speed>1.61</speed>
  <fix>3d</fix>
</trkpt>
<trkpt lat="40.0713385" lon="-105.2298497">
  <ele>1582.88</ele>
  <time>2026-08-28T17:54:24Z</time>
  <course>149.86</course>
  <speed>1.6421023110634732</speed>
  <fix>3d</fix>
</trkpt>
<trkpt lat="40.0713419" lon="-105.2298519">
  <ele>1583.0</ele>
  <time>2026-08-28T17:54:24Z</time>
  <course>159.64</course>
  <speed>1.61</speed>
  <fix>3d</fix>
</trkpt>
<trkpt lat="40.0713373" lon="-105.2298486">
  <ele>1582.89</ele>
  <time>2026-08-28T17:54:24Z</time>
  <course>144.69</course>
  <speed>1.63835283135227</speed>
  <fix>3d</fix>
</trkpt>
<trkpt lat="40.0713393" lon="-105.2298503">
  <ele>1583.0</ele>
  <time>2026-08-28T17:54:24Z</time>
  <course>149.8</course>
  <speed>1.61</speed>
  <fix>3d</fix>
</trkpt>
<trkpt lat="40.0713362" lon="-105.2298473">
  <ele>1582.89</ele>
  <time>2026-08-28T17:54:24Z</time>
  <course>139.49</course>
  <speed>1.6414627622946554</speed>
  <fix>3d</fix>
</trkpt>
<trkpt lat="40.0713393" lon="-105.2298503">
  <ele>1583.0</ele>
  <time>2026-08-28T17:54:24Z</time>
  <course>149.8</course>
  <speed>1.61</speed>
  <fix>3d</fix>
</trkpt>
<trkpt lat="40.0713352" lon="-105.229846">
  <ele>1582.89</ele>
  <time>2026-08-28T17:54:24Z</time>
  <course>134.27</course>
  <speed>1.6360012224934308</speed>
  <fix>3d</fix>
</trkpt>
<trkpt lat="40.071337" lon="-105.2298481">
  <ele>1583.0</ele>
  <time>2026-08-28T17:54:24Z</time>
  <course>139.5</course>
  <speed>1.6</speed>
  <fix>3d</fix>
</trkpt>
<trkpt lat="40.0713343" lon="-105.2298445">
  <ele>1582.89</ele>
  <time>2026-08-28T17:54:24Z</time>
  <course>129.04</course>
  <speed>1.638078142214223</speed>
  <fix>3d</fix>
</trkpt>
<trkpt lat="40.071337" lon="-105.2298481">
  <ele>1583.0</ele>
  <time>2026-08-28T17:54:24Z</time>
  <course>139.5</course>
  <speed>1.6</speed>
  <fix>3d</fix>
</trkpt>
<trkpt lat="40.0713335" lon="-105.2298429">
  <ele>1582.89</ele>
  <time>2026-08-28T17:54:24Z</time>
  <course>123.8</course>
  <speed>1.6378339354159202</speed>
  <fix>3d</fix>
</trkpt>
<trkpt lat="40.071335" lon="-105.2298455">
  <ele>1583.0</ele>
  <time>2026-08-28T17:54:24Z</time>
  <course>129.06</course>
  <speed>1.6</speed>
  <fix>3d</fix>
</trkpt>
<trkpt lat="40.0713328" lon="-105.2298413">
  <ele>1582.89</ele>
  <time>2026-08-28T17:54:24Z</time>
  <course>118.53</course>
  <speed>1.6324827717314507</speed>
  <fix>3d</fix>
</trkpt>
<trkpt lat="40.071335" lon="-105.2298455">
  <ele>1583.0</ele>
  <time>2026-08-28T17:54:24Z</time>
  <course>129.06</course>
  <speed>1.6</speed>
  <fix>3d</fix>
</trkpt>
<trkpt lat="40.0713323" lon="-105.2298396">
  <ele>1582.89</ele>
  <time>2026-08-28T17:54:24Z</time>
  <course>113.26</course>
  <speed>1.6362457028209425</speed>
  <fix>3d</fix>
</trkpt>
<trkpt lat="40.0713334" lon="-105.2298423">
  <ele>1583.0</ele>
  <time>2026-08-28T17:54:24Z</time>
  <course>118.56</course>
  <speed>1.59</speed>
  <fix>3d</fix>
</trkpt>
<trkpt lat="40.0713319" lon="-105.2298381">
  <ele>1582.89</ele>
  <time>2026-08-28T17:54:24Z</time>
  <course>108.99</course>
  <speed>1.6360012224934308</speed>
  <fix>3d</fix>
</trkpt>
<trkpt lat="40.0713334" lon="-105.2298423">
  <ele>1583.0</ele>
  <time>2026-08-28T17:54:24Z</time>
  <course>118.56</course>
  <speed>1.59</speed>
  <fix>3d</fix>
</trkpt>
<trkpt lat="40.0713316" lon="-105.2298363">
  <ele>1582.88</ele>
  <time>2026-08-28T17:54:24Z</time>
  <course>103.69</course>
  <speed>1.6297545827516484</speed>
  <fix>3d</fix>
</trkpt>
<trkpt lat="40.0713322" lon="-105.2298389">
  <ele>1583.0</ele>
  <time>2026-08-28T17:54:24Z</time>
  <course>108.01</course>
  <speed>1.59</speed>
  <fix>3d</fix>
</trkpt>
<trkpt lat="40.0713314" lon="-105.2298344">
  <ele>1582.88</ele>
  <time>2026-08-28T17:54:24Z</time>
  <course>98.37</course>
  <speed>1.6278820596099706</speed>
  <fix>3d</fix>
</trkpt>
<trkpt lat="40.0713322" lon="-105.2298389">
  <ele>1583.0</ele>
  <time>2026-08-28T17:54:24Z</time>
  <course>108.01</course>
  <speed>1.59</speed>
  <fix>3d</fix>
</trkpt>
<trkpt lat="40.0713314" lon="-105.2298326">
  <ele>1582.88</ele>
  <time>2026-08-28T17:54:24Z</time>
  <course>93.09</course>
  <speed>1.6300306745579973</speed>
  <fix>3d</fix>
</trkpt>
<trkpt lat="40.0713315" lon="-105.2298353">
  <ele>1583.0</ele>
  <time>2026-08-28T17:54:24Z</time>
  <course>97.41</course>
  <speed>1.58</speed>
  <fix>3d</fix>
</trkpt>
<trkpt lat="40.0713314" lon="-105.2298307">
  <ele>1582.88</ele>
  <time>2026-08-28T17:54:24Z</time>
  <course>87.76</course>
  <speed>1.625207679036744</speed>
  <fix>3d</fix>
</trkpt>
<trkpt lat="40.0713315" lon="-105.2298353">
  <ele>1583.0</ele>
  <time>2026-08-28T17:54:24Z</time>
  <course>97.41</course>
  <speed>1.58</speed>
  <fix>3d</fix>
</trkpt>
<trkpt lat="40.0713316" lon="-105.2298288">
  <ele>1582.88</ele>
  <time>2026-08-28T17:54:24Z</time>
  <course>82.42</course>
  <speed>1.6243152403397563</speed>
  <fix>3d</fix>
</trkpt>
<trkpt lat="40.0713315" lon="-105.2298316">
  <ele>1583.0</ele>
  <time>2026-08-28T17:54:24Z</time>
  <course>86.76</course>
  <speed>1.58</speed>
  <fix>3d</fix>
</trkpt>
<trkpt lat="40.0713319" lon="-105.229827">
  <ele>1582.88</ele>
  <time>2026-08-28T17:54:24Z</time>
  <course>74.29</course>
  <speed>1.555892027102138</speed>
  <fix>3d</fix>
</trkpt>
<trkpt lat="40.0713315" lon="-105.2298316">
  <ele>1583.0</ele>
  <time>2026-08-28T17:54:24Z</time>
  <course>86.76</course>
  <speed>1.58</speed>
  <fix>3d</fix>
</trkpt>
<trkpt lat="40.0713324" lon="-105.2298254">
  <ele>1582.88</ele>
  <time>2026-08-28T17:54:24Z</time>
  <course>66.75</course>
  <speed>1.4849915824677256</speed>
  <fix>3d</fix>
</trkpt>
<trkpt lat="40.0713319" lon="-105.229828">
  <ele>1583.0</ele>
  <time>2026-08-28T17:54:24Z</time>
  <course>74.0</course>
  <speed>1.49</speed>
  <fix>3d</fix>
</trkpt>
<trkpt lat="40.0713331" lon="-105.229824">
  <ele>1582.88</ele>
  <time>2026-08-28T17:54:24Z</time>
  <course>59.82</course>
  <speed>1.4119844191774922</speed>
  <fix>3d</fix>
</trkpt>
<trkpt lat="40.0713319" lon="-105.229828">
  <ele>1583.0</ele>
  <time>2026-08-28T17:54:24Z</time>
  <course>74.0</course>
  <speed>1.49</speed>
  <fix>3d</fix>
</trkpt>
<trkpt lat="40.0713338" lon="-105.2298227">
  <ele>1582.89</ele>
  <time>2026-08-28T17:54:24Z</time>
  <course>53.41</course>
  <speed>1.3509256086106296</speed>
  <fix>3d</fix>
</trkpt>
<trkpt lat="40.0713329" lon="-105.2298249">
  <ele>1583.0</ele>
  <time>2026-08-28T17:54:24Z</time>
  <course>59.48</course>
  <speed>1.35</speed>
  <fix>3d</fix>
</trkpt>
<trkpt lat="40.0713348" lon="-105.2298214">
  <ele>1582.89</ele>
  <time>2026-08-28T17:54:24Z</time>
  <course>46.34</course>
  <speed>1.2731064370271639</speed>
  <fix>3d</fix>
</trkpt>
<trkpt lat="40.0713329" lon="-105.2298249">
  <ele>1583.0</ele>
  <time>2026-08-28T17:54:24Z</time>
  <course>59.48</course>
  <speed>1.35</speed>
  <fix>3d</fix>
</trkpt>
<trkpt lat="40.0713356" lon="-105.2298205">
  <ele>1582.89</ele>
  <time>2026-08-28T17:54:24Z</time>
  <course>40.96</course>
  <speed>1.2165936051122412</speed>
  <fix>3d</fix>
</trkpt>
<trkpt lat="40.0713342" lon="-105.2298225">
  <ele>1583.0</ele>
  <time>2026-08-28T17:54:24Z</time>
  <course>47.08</course>
  <speed>1.22</speed>
  <fix>3d</fix>
</trkpt>
<trkpt lat="40.0713365" lon="-105.2298198">
  <ele>1582.89</ele>
  <time>2026-08-28T17:54:24Z</time>
  <course>35.99</course>
  <speed>1.1621101496846158</speed>
  <fix>3d</fix>
</trkpt>
<trkpt lat="40.0713342" lon="-105.2298225">
  <ele>1583.0</ele>
  <time>2026-08-28T17:54:24Z</time>
  <course>47.08</course>
  <speed>1.22</speed>
  <fix>3d</fix>
</trkpt>
<trkpt lat="40.0713373" lon="-105.2298191">
  <ele>1582.89</ele>
  <time>2026-08-28T17:54:24Z</time>
  <course>31.43</course>
  <speed>1.105350623105628</speed>
  <fix>3d</fix>
</trkpt>
<trkpt lat="40.0713358" lon="-105.2298207">
  <ele>1583.0</ele>
  <time>2026-08-28T17:54:24Z</time>
  <course>36.51</course>
  <speed>1.11</speed>
  <fix>3d</fix>
</trkpt>
<trkpt lat="40.0713382" lon="-105.2298186">
  <ele>1582.89</ele>
  <time>2026-08-28T17:54:24Z</time>
  <course>27.24</course>
  <speed>1.0560303025955269</speed>
  <fix>3d</fix>
</trkpt>
<trkpt lat="40.0713358" lon="-105.2298207">
  <ele>1583.0</ele>
  <time>2026-08-28T17:54:24Z</time>
  <course>36.51</course>
  <speed>1.11</speed>
  <fix>3d</fix>
</trkpt>
<trkpt lat="40.071339" lon="-105.2298182">
  <ele>1582.89</ele>
  <time>2026-08-28T17:54:24Z</time>
  <course>23.39</course>
  <speed>1.0030453628824572</speed>
  <fix>3d</fix>
</trkpt>
<trkpt lat="40.0713374" lon="-105.2298194">
  <ele>1583.0</ele>
  <time>2026-08-28T17:54:24Z</time>
  <course>27.55</course>
  <speed>1.0</speed>
  <fix>3d</fix>
</trkpt>
<trkpt lat="40.0713398" lon="-105.2298179">
  <ele>1582.89</ele>
  <time>2026-08-28T17:54:24Z</time>
  <course>19.76</course>
  <speed>0.9521029356114811</speed>
  <fix>3d</fix>
</trkpt>
<trkpt lat="40.0713374" lon="-105.2298194">
  <ele>1583.0</ele>
  <time>2026-08-28T17:54:24Z</time>
  <course>27.55</course>
  <speed>1.0</speed>
  <fix>3d</fix>
</trkpt>
<trkpt lat="40.0713406" lon="-105.2298177">
  <ele>1582.89</ele>
  <time>2026-08-28T17:54:24Z</time>
  <course>16.31</course>
  <speed>0.9144397191723465</speed>
  <fix>3d</fix>
</trkpt>
<trkpt lat="40.071339" lon="-105.2298185">
  <ele>1583.0</ele>
  <time>2026-08-28T17:54:24Z</time>
  <course>19.86</course>
  <speed>0.91</speed>
  <fix>3d</fix>
</trkpt>
<trkpt lat="40.0713413" lon="-105.2298175">
  <ele>1582.89</ele>
  <time>2026-08-28T17:54:24Z</time>
  <course>13.02</course>
  <speed>0.8631338250816034</speed>
  <fix>3d</fix>
</trkpt>
<trkpt lat="40.071339" lon="-105.2298185">
  <ele>1583.0</ele>
  <time>2026-08-28T17:54:24Z</time>
  <course>19.86</course>
  <speed>0.91</speed>
  <fix>3d</fix>
</trkpt>
<trkpt lat="40.071342" lon="-105.2298174">
  <ele>1582.89</ele>
  <time>2026-08-28T17:54:24Z</time>
  <course>9.88</course>
  <speed>0.8249242389456137</speed>
  <fix>3d</fix>
</trkpt>
<trkpt lat="40.0713405" lon="-105.229818">
  <ele>1583.0</ele>
  <time>2026-08-28T17:54:24Z</time>
  <course>13.03</course>
  <speed>0.82</speed>
  <fix>3d</fix>
</trkpt>
<trkpt lat="40.0713427" lon="-105.2298173">
  <ele>1582.89</ele>
  <time>2026-08-28T17:54:24Z</time>
  <course>6.9</course>
  <speed>0.7816009211867653</speed>
  <fix>3d</fix>
</trkpt>
<trkpt lat="40.0713405" lon="-105.229818">
  <ele>1583.0</ele>
  <time>2026-08-28T17:54:24Z</time>
  <course>13.03</course>
  <speed>0.82</speed>
  <fix>3d</fix>
</trkpt>
<trkpt lat="40.0713432" lon="-105.2298173">
  <ele>1582.89</ele>
  <time>2026-08-28T17:54:24Z</time>
  <course>4.59</course>
  <speed>0.750066663703967</speed>
  <fix>3d</fix>
</trkpt>
<trkpt lat="40.0713419" lon="-105.2298176">
  <ele>1583.0</ele>
  <time>2026-08-28T17:54:24Z</time>
  <course>6.84</course>
  <speed>0.74</speed>
  <fix>3d</fix>
</trkpt>
<trkpt lat="40.0713438" lon="-105.2298174">
  <ele>1582.89</ele>
  <time>2026-08-28T17:54:24Z</time>
  <course>1.86</course>
  <speed>0.7200694410957876</speed>
  <fix>3d</fix>
</trkpt>
<trkpt lat="40.0713419" lon="-105.2298176">
  <ele>1583.0</ele>
  <time>2026-08-28T17:54:24Z</time>
  <course>6.84</course>
  <speed>0.74</speed>
  <fix>3d</fix>
</trkpt>
<trkpt lat="40.0713444" lon="-105.2298174">
  <ele>1582.89</ele>
  <time>2026-08-28T17:54:24Z</time>
  <course>359.26</course>
  <speed>0.6818357573492314</speed>
  <fix>3d</fix>
</trkpt>
<trkpt lat="40.0713432" lon="-105.2298175">
  <ele>1583.0</ele>
  <time>2026-08-28T17:54:24Z</time>
  <course>1.23</course>
  <speed>0.67</speed>
  <fix>3d</fix>
</trkpt>
<trkpt lat="40.0713449" lon="-105.2298174">
  <ele>1582.89</ele>
  <time>2026-08-28T17:54:24Z</time>
  <course>359.83</course>
  <speed>0.6412487816752559</speed>
  <fix>3d</fix>
</trkpt>
<trkpt lat="40.0713432" lon="-105.2298175">
  <ele>1583.0</ele>
  <time>2026-08-28T17:54:24Z</time>
  <course>1.23</course>
  <speed>0.67</speed>
  <fix>3d</fix>
</trkpt>
<trkpt lat="40.0713454" lon="-105.2298175">
  <ele>1582.88</ele>
  <time>2026-08-28T17:54:24Z</time>
  <course>2.04</course>
  <speed>0.6103277807866851</speed>
  <fix>3d</fix>
</trkpt>
<trkpt lat="40.0713443" lon="-105.2298175">
  <ele>1583.0</ele>
  <time>2026-08-28T17:54:24Z</time>
  <course>359.79</course>
  <speed>0.61</speed>
  <fix>3d</fix>
</trkpt>
<trkpt lat="40.0713459" lon="-105.2298175">
  <ele>1582.88</ele>
  <time>2026-08-28T17:54:24Z</time>
  <course>3.95</course>
  <speed>0.58</speed>
  <fix>3d</fix>
</trkpt>
<trkpt lat="40.0713443" lon="-105.2298175">
  <ele>1583.0</ele>
  <time>2026-08-28T17:54:24Z</time>
  <course>359.79</course>
  <speed>0.61</speed>
  <fix>3d</fix>
</trkpt>
<trkpt lat="40.0713464" lon="-105.2298175">
  <ele>1582.88</ele>
  <time>2026-08-28T17:54:24Z</time>
  <course>5.8</course>
  <speed>0.55</speed>
  <fix>3d</fix>
</trkpt>
<trkpt lat="40.0713454" lon="-105.2298175">
  <ele>1583.0</ele>
  <time>2026-08-28T17:54:24Z</time>
  <course>3.08</course>
  <speed>0.55</speed>
  <fix>3d</fix>
</trkpt>
<trkpt lat="40.0713468" lon="-105.2298175">
  <ele>1582.88</ele>
  <time>2026-08-28T17:54:24Z</time>
  <course>7.55</course>
  <speed>0.510098029794274</speed>
  <fix>3d</fix>
</trkpt>
<trkpt lat="40.0713454" lon="-105.2298175">
  <ele>1583.0</ele>
  <time>2026-08-28T17:54:24Z</time>
  <course>3.08</course>
  <speed>0.55</speed>
  <fix>3d</fix>
</trkpt>
<trkpt lat="40.0713472" lon="-105.2298174">
  <ele>1582.89</ele>
  <time>2026-08-28T17:54:24Z</time>
  <course>9.2</course>
  <speed>0.48041648597857256</speed>
  <fix>3d</fix>
</trkpt>
<trkpt lat="40.0713463" lon="-105.2298174">
  <ele>1583.0</ele>
  <time>2026-08-28T17:54:24Z</time>
  <course>6.66</course>
  <speed>0.5</speed>
  <fix>3d</fix>
</trkpt>
<trkpt lat="40.0713476" lon="-105.2298174">
  <ele>1582.89</ele>
  <time>2026-08-28T17:54:24Z</time>
  <course>10.76</course>
  <speed>0.4609772228646444</speed>
  <fix>3d</fix>
</trkpt>
<trkpt lat="40.0713463" lon="-105.2298174">
  <ele>1583.0</ele>
  <time>2026-08-28T17:54:24Z</time>
  <course>6.66</course>
  <speed>0.5</speed>
  <fix>3d</fix>
</trkpt>
<trkpt lat="40.071348" lon="-105.2298174">
  <ele>1582.9</ele>
  <time>2026-08-28T17:54:24Z</time>
  <course>12.52</course>
  <speed>0.4219004621945798</speed>
  <fix>3d</fix>
</trkpt>
<trkpt lat="40.0713472" lon="-105.2298171">
  <ele>1583.0</ele>
  <time>2026-08-28T17:54:24Z</time>
  <course>9.89</course>
  <speed>0.45</speed>
  <fix>3d</fix>
</trkpt>
<trkpt lat="40.0713493" lon="-105.229817">
  <ele>1582.93</ele>
  <time>2026-08-28T17:54:24Z</time>
  <course>17.63</course>
  <speed>0.33541019662496846</speed>
  <fix>3d</fix>
</trkpt>
<trkpt lat="40.0713485" lon="-105.2298168">
  <ele>1583.0</ele>
  <time>2026-08-28T17:54:24Z</time>
  <course>15.37</course>
  <speed>0.37</speed>
  <fix>3d</fix>
</trkpt>
<trkpt lat="40.0713497" lon="-105.2298168">
  <ele>1582.94</ele>
  <time>2026-08-28T17:54:24Z</time>
  <course>19.59</course>
  <speed>0.29614185789921693</speed>
  <fix>3d</fix>
</trkpt>
<trkpt lat="40.0713485" lon="-105.2298168">
  <ele>1583.0</ele>
  <time>2026-08-28T17:54:24Z</time>
  <course>15.37</course>
  <speed>0.37</speed>
  <fix>3d</fix>
</trkpt>
<trkpt lat="40.0713498" lon="-105.2298168">
  <ele>1582.95</ele>
  <time>2026-08-28T17:54:24Z</time>
  <course>19.8</course>
  <speed>0.29614185789921693</speed>
  <fix>3d</fix>
</trkpt>
<trkpt lat="40.0713492" lon="-105.2298165">
  <ele>1583.0</ele>
  <time>2026-08-28T17:54:24Z</time>
  <course>17.7</course>
  <speed>0.33</speed>
  <fix>3d</fix>
</trkpt>
<trkpt lat="40.07135" lon="-105.2298167">
  <ele>1582.95</ele>
  <time>2026-08-28T17:54:24Z</time>
  <course>20.8</course>
  <speed>0.2765863337187866</speed>
  <fix>3d</fix>
</trkpt>
<trkpt lat="40.0713492" lon="-105.2298165">
  <ele>1583.0</ele>
  <time>2026-08-28T17:54:24Z</time>
  <course>17.7</course>
  <speed>0.33</speed>
  <fix>3d</fix>
</trkpt>
<trkpt lat="40.0713502" lon="-105.2298166">
  <ele>1582.95</ele>
  <time>2026-08-28T17:54:24Z</time>
  <course>21.75</course>
  <speed>0.2570992026436488</speed>
  <fix>3d</fix>
</trkpt>
<trkpt lat="40.0713497" lon="-105.2298163">
  <ele>1583.0</ele>
  <time>2026-08-28T17:54:24Z</time>
  <course>19.79</course>
  <speed>0.3</speed>
  <fix>3d</fix>
</trkpt>
<trkpt lat="40.0713504" lon="-105.2298164">
  <ele>1582.96</ele>
  <time>2026-08-28T17:54:24Z</time>
  <course>22.65</course>
  <speed>0.23769728648009425</speed>
  <fix>3d</fix>
</trkpt>
<trkpt lat="40.0713497" lon="-105.2298163">
  <ele>1583.0</ele>
  <time>2026-08-28T17:54:24Z</time>
  <course>19.79</course>
  <speed>0.3</speed>
  <fix>3d</fix>
</trkpt>
<trkpt lat="40.0713507" lon="-105.2298162">
  <ele>1582.96</ele>
  <time>2026-08-28T17:54:24Z</time>
  <course>24.16</course>
  <speed>0.208806130178211</speed>
  <fix>3d</fix>
</trkpt>
<trkpt lat="40.0713502" lon="-105.229816">
  <ele>1583.0</ele>
  <time>2026-08-28T17:54:24Z</time>
  <course>21.67</course>
  <speed>0.27</speed>
  <fix>3d</fix>
</trkpt>
<trkpt lat="40.0713509" lon="-105.2298161">
  <ele>1582.96</ele>
  <time>2026-08-28T17:54:24Z</time>
  <course>24.94</course>
  <speed>0.19924858845171275</speed>
  <fix>3d</fix>
</trkpt>
<trkpt lat="40.0713506" lon="-105.2298158">
  <ele>1583.0</ele>
  <time>2026-08-28T17:54:24Z</time>
  <course>23.36</course>
  <speed>0.24</speed>
  <fix>3d</fix>
</trkpt>
<trkpt lat="40.0713511" lon="-105.229816">
  <ele>1582.96</ele>
  <time>2026-08-28T17:54:24Z</time>
  <course>25.67</course>
  <speed>0.18027756377319945</speed>
  <fix>3d</fix>
</trkpt>
<trkpt lat="40.0713506" lon="-105.2298158">
  <ele>1583.0</ele>
  <time>2026-08-28T17:54:24Z</time>
  <course>23.36</course>
  <speed>0.24</speed>
  <fix>3d</fix>
</trkpt>
<trkpt lat="40.0713512" lon="-105.2298159">
  <ele>1582.97</ele>
  <time>2026-08-28T17:54:24Z</time>
  <course>26.37</course>
  <speed>0.1708800749063506</speed>
  <fix>3d</fix>
</trkpt>
<trkpt lat="40.0713511" lon="-105.2298156">
  <ele>1583.0</ele>
  <time>2026-08-28T17:54:24Z</time>
  <course>24.88</course>
  <speed>0.22</speed>
  <fix>3d</fix>
</trkpt>
<trkpt lat="40.0713514" lon="-105.2298158">
  <ele>1582.97</ele>
  <time>2026-08-28T17:54:24Z</time>
  <course>27.03</course>
  <speed>0.1615549442140351</speed>
  <fix>3d</fix>
</trkpt>
<trkpt lat="40.0713511" lon="-105.2298156">
  <ele>1583.0</ele>
  <time>2026-08-28T17:54:24Z</time>
  <course>24.88</course>
  <speed>0.22</speed>
  <fix>3d</fix>
</trkpt>
<trkpt lat="40.0713515" lon="-105.2298157">
  <ele>1582.97</ele>
  <time>2026-08-28T17:54:24Z</time>
  <course>27.66</course>
  <speed>0.14866068747318506</speed>
  <fix>3d</fix>
</trkpt>
<trkpt lat="40.0713514" lon="-105.2298154">
  <ele>1583.0</ele>
  <time>2026-08-28T17:54:24Z</time>
  <course>26.24</course>
  <speed>0.2</speed>
  <fix>3d</fix>
</trkpt>
<trkpt lat="40.0713516" lon="-105.2298155">
  <ele>1582.98</ele>
  <time>2026-08-28T17:54:24Z</time>
  <course>27.67</course>
  <speed>0.1392838827718412</speed>
  <fix>3d</fix>
</trkpt>
<trkpt lat="40.0713514" lon="-105.2298154">
  <ele>1583.0</ele>
  <time>2026-08-28T17:54:24Z</time>
  <course>26.24</course>
  <speed>0.2</speed>
  <fix>3d</fix>
</trkpt>
<trkpt lat="40.0713517" lon="-105.2298154">
  <ele>1582.98</ele>
  <time>2026-08-28T17:54:24Z</time>
  <course>27.67</course>
  <speed>0.13</speed>
  <fix>3d</fix>
</trkpt>
<trkpt lat="40.0713517" lon="-105.2298151">
  <ele>1583.0</ele>
  <time>2026-08-28T17:54:24Z</time>
  <course>26.92</course>
  <speed>0.18</speed>
  <fix>3d</fix>
</trkpt>
<trkpt lat="40.0713519" lon="-105.2298153">
  <ele>1582.98</ele>
  <time>2026-08-28T17:54:24Z</time>
  <course>27.67</course>
  <speed>0.12083045973594572</speed>
  <fix>3d</fix>
</trkpt>
<trkpt lat="40.0713517" lon="-105.2298151">
  <ele>1583.0</ele>
  <time>2026-08-28T17:54:24Z</time>
  <course>26.92</course>
  <speed>0.18</speed>
  <fix>3d</fix>
</trkpt>
<trkpt lat="40.071352" lon="-105.2298152">
  <ele>1582.99</ele>
  <time>2026-08-28T17:54:24Z</time>
  <course>27.67</course>
  <speed>0.10770329614269007</speed>
  <fix>3d</fix>
</trkpt>
<trkpt lat="40.071352" lon="-105.229815">
  <ele>1583.0</ele>
  <time>2026-08-28T17:54:24Z</time>
  <course>26.92</course>
  <speed>0.16</speed>
  <fix>3d</fix>
</trkpt>
<trkpt lat="40.0713521" lon="-105.2298151">
  <ele>1582.99</ele>
  <time>2026-08-28T17:54:24Z</time>
  <course>27.67</course>
  <speed>0.09848857801796104</speed>
  <fix>3d</fix>
</trkpt>
<trkpt lat="40.071352" lon="-105.229815">
  <ele>1583.0</ele>
  <time>2026-08-28T17:54:24Z</time>
  <course>26.92</course>
  <speed>0.16</speed>
  <fix>3d</fix>
</trkpt>
<trkpt lat="40.0713522" lon="-105.229815">
  <ele>1582.99</ele>
  <time>2026-08-28T17:54:24Z</time>
  <course>27.68</course>
  <speed>0.08944271909999159</speed>
  <fix>3d</fix>
</trkpt>
<trkpt lat="40.0713523" lon="-105.2298148">
  <ele>1583.0</ele>
  <time>2026-08-28T17:54:24Z</time>
  <course>26.92</course>
  <speed>0.15</speed>
  <fix>3d</fix>
</trkpt>
<trkpt lat="40.0713523" lon="-105.229815">
  <ele>1583.0</ele>
  <time>2026-08-28T17:54:24Z</time>
  <course>27.68</course>
  <speed>0.08944271909999159</speed>
  <fix>3d</fix>
</trkpt>
<trkpt lat="40.0713523" lon="-105.2298148">
  <ele>1583.0</ele>
  <time>2026-08-28T17:54:24Z</time>
  <course>26.92</course>
  <speed>0.15</speed>
  <fix>3d</fix>
</trkpt>
<trkpt lat="40.0713524" lon="-105.2298149">
  <ele>1583.0</ele>
  <time>2026-08-28T17:54:24Z</time>
  <course>27.68</course>
  <speed>0.08062257748298549</speed>
  <fix>3d</fix>
</trkpt>
<trkpt lat="40.0713524" lon="-105.2298146">
  <ele>1583.0</ele>
  <time>2026-08-28T17:54:24Z</time>
  <course>26.92</course>
  <speed>0.13</speed>
  <fix>3d</fix>
</trkpt>
<trkpt lat="40.0713525" lon="-105.2298148">
  <ele>1583.0</ele>
  <time>2026-08-28T17:54:24Z</time>
  <course>27.68</course>
  <speed>0.0670820393249937</speed>
  <fix>3d</fix>
</trkpt>
<trkpt lat="40.0713524" lon="-105.2298146">
  <ele>1583.0</ele>
  <time>2026-08-28T17:54:24Z</time>
  <course>26.92</course>
  <speed>0.13</speed>
  <fix>3d</fix>
</trkpt>
<trkpt lat="40.0713525" lon="-105.2298147">
  <ele>1583.01</ele>
  <time>2026-08-28T17:54:24Z</time>
  <course>27.68</course>
  <speed>0.0670820393249937</speed>
  <fix>3d</fix>
</trkpt>
<trkpt lat="40.0713527" lon="-105.2298145">
  <ele>1583.0</ele>
  <time>2026-08-28T17:54:24Z</time>
  <course>26.92</course>
  <speed>0.12</speed>
  <fix>3d</fix>
</trkpt>
<trkpt lat="40.0713526" lon="-105.2298147">
  <ele>1583.01</ele>
  <time>2026-08-28T17:54:24Z</time>
  <course>27.69</course>
  <speed>0.05830951894845301</speed>
  <fix>3d</fix>
</trkpt>
<trkpt lat="40.0713527" lon="-105.2298145">
  <ele>1583.0</ele>
  <time>2026-08-28T17:54:24Z</time>
  <course>26.92</course>
  <speed>0.12</speed>
  <fix>3d</fix>
</trkpt>
<trkpt lat="40.0713527" lon="-105.2298146">
  <ele>1583.02</ele>
  <time>2026-08-28T17:54:24Z</time>
  <course>27.69</course>
  <speed>0.05830951894845301</speed>
  <fix>3d</fix>
</trkpt>
<trkpt lat="40.0713528" lon="-105.2298144">
  <ele>1583.0</ele>
  <time>2026-08-28T17:54:24Z</time>
  <course>26.92</course>
  <speed>0.11</speed>
  <fix>3d</fix>
</trkpt>
<trkpt lat="40.0713528" lon="-105.2298145">
  <ele>1583.03</ele>
  <time>2026-08-28T17:54:24Z</time>
  <course>27.69</course>
  <speed>0.05</speed>
  <fix>3d</fix>
</trkpt>
<trkpt lat="40.0713528" lon="-105.2298144">
  <ele>1583.0</ele>
  <time>2026-08-28T17:54:24Z</time>
  <course>26.92</course>
  <speed>0.11</speed>
  <fix>3d</fix>
</trkpt>
<trkpt lat="40.0713528" lon="-105.2298145">
  <ele>1583.03</ele>
  <time>2026-08-28T17:54:24Z</time>
  <course>27.69</course>
  <speed>0.04242640687119285</speed>
  <fix>3d</fix>
</trkpt>
<trkpt lat="40.071353" lon="-105.2298143">
  <ele>1583.0</ele>
  <time>2026-08-28T17:54:24Z</time>
  <course>26.92</course>
  <speed>0.1</speed>
  <fix>3d</fix>
</trkpt>
<trkpt lat="40.0713529" lon="-105.2298144">
  <ele>1583.04</ele>
  <time>2026-08-28T17:54:24Z</time>
  <course>27.69</course>
  <speed>0.04242640687119285</speed>
  <fix>3d</fix>
</trkpt>
<trkpt lat="40.071353" lon="-105.2298143">
  <ele>1583.0</ele>
  <time>2026-08-28T17:54:24Z</time>
  <course>26.92</course>
  <speed>0.1</speed>
  <fix>3d</fix>
</trkpt>
<trkpt lat="40.0713529" lon="-105.2298143">
  <ele>1583.04</ele>
  <time>2026-08-28T17:54:24Z</time>
  <course>27.7</course>
  <speed>0.04242640687119285</speed>
  <fix>3d</fix>
</trkpt>
<trkpt lat="40.0713532" lon="-105.2298142">
  <ele>1583.0</ele>
  <time>2026-08-28T17:54:24Z</time>
  <course>26.92</course>
  <speed>0.09</speed>
  <fix>3d</fix>
</trkpt>
<trkpt lat="39.655741" lon="-104.1383097">
  <ele>1566.58</ele>
  <time>2026-08-28T17:54:24Z</time>
  <course>0.0</course>
  <speed>0.0</speed>
  <fix>3d</fix>
</trkpt>
<trkpt lat="40.0713749" lon="-105.229789">
  <ele>1583.0</ele>
  <time>2026-08-28T17:54:24Z</time>
  <course>0.0</course>
  <speed>0.0</speed>
  <fix>3d</fix>
</trkpt>
<trkpt lat="40.0713749" lon="-105.229789">
  <ele>1583.0</ele>
  <time>2026-08-28T17:54:24Z</time>
  <course>238.36</course>
  <speed>0.0</speed>
  <fix>3d</fix>
</trkpt>
<trkpt lat="40.0713749" lon="-105.229789">
  <ele>1583.0</ele>
  <time>2026-08-28T17:54:24Z</time>
  <course>0.0</course>
  <speed>0.0</speed>
  <fix>3d</fix>
</trkpt>
<trkpt lat="40.0713749" lon="-105.229789">
  <ele>1583.0</ele>
  <time>2026-08-28T17:54:24Z</time>
  <course>238.44</course>
  <speed>0.0</speed>
  <fix>3d</fix>
</trkpt>
<trkpt lat="40.0713749" lon="-105.229789">
  <ele>1583.0</ele>
  <time>2026-08-28T17:54:24Z</time>
  <course>0.0</course>
  <speed>0.0</speed>
  <fix>3d</fix>
</trkpt>
<trkpt lat="40.0713749" lon="-105.229789">
  <ele>1583.0</ele>
  <time>2026-08-28T17:54:24Z</time>
  <course>238.64</course>
  <speed>0.0</speed>
  <fix>3d</fix>
</trkpt>
<trkpt lat="40.0713749" lon="-105.229789">
  <ele>1583.0</ele>
  <time>2026-08-28T17:54:24Z</time>
  <course>0.0</course>
  <speed>0.0</speed>
  <fix>3d</fix>
</trkpt>
<trkpt lat="40.0713749" lon="-105.229789">
  <ele>1583.0</ele>
  <time>2026-08-28T17:54:24Z</time>
  <course>238.93</course>
  <speed>0.0</speed>
  <fix>3d</fix>
</trkpt>
<trkpt lat="40.0713749" lon="-105.229789">
  <ele>1583.0</ele>
  <time>2026-08-28T17:54:24Z</time>
  <course>0.0</course>
  <speed>0.0</speed>
  <fix>3d</fix>
</trkpt>
<trkpt lat="40.0713749" lon="-105.229789">
  <ele>1583.0</ele>
  <time>2026-08-28T17:54:24Z</time>
  <course>239.26</course>
  <speed>0.0</speed>
  <fix>3d</fix>
</trkpt>
<trkpt lat="40.0713749" lon="-105.229789">
  <ele>1583.0</ele>
  <time>2026-08-28T17:54:24Z</time>
  <course>0.0</course>
  <speed>0.0</speed>
  <fix>3d</fix>
</trkpt>
<trkpt lat="40.0713749" lon="-105.229789">
  <ele>1583.0</ele>
  <time>2026-08-28T17:54:24Z</time>
  <course>239.61</course>
  <speed>0.0</speed>
  <fix>3d</fix>
</trkpt>
<trkpt lat="40.0713749" lon="-105.229789">
  <ele>1583.0</ele>
  <time>2026-08-28T17:54:24Z</time>
  <course>0.0</course>
  <speed>0.0</speed>
  <fix>3d</fix>
</trkpt>
<trkpt lat="40.0713749" lon="-105.229789">
  <ele>1583.0</ele>
  <time>2026-08-28T17:54:24Z</time>
  <course>239.96</course>
  <speed>0.0</speed>
  <fix>3d</fix>
</trkpt>
<trkpt lat="40.0713749" lon="-105.229789">
  <ele>1583.0</ele>
  <time>2026-08-28T17:54:24Z</time>
  <course>0.0</course>
  <speed>0.0</speed>
  <fix>3d</fix>
</trkpt>
<trkpt lat="40.0713749" lon="-105.229789">
  <ele>1583.0</ele>
  <time>2026-08-28T17:54:24Z</time>
  <course>240.29</course>
  <speed>0.0</speed>
  <fix>3d</fix>
</trkpt>
<trkpt lat="40.0713749" lon="-105.229789">
  <ele>1583.0</ele>
  <time>2026-08-28T17:54:24Z</time>
  <course>0.0</course>
  <speed>0.0</speed>
  <fix>3d</fix>
</trkpt>
<trkpt lat="40.0713749" lon="-105.229789">
  <ele>1583.0</ele>
  <time>2026-08-28T17:54:24Z</time>
  <course>240.61</course>
  <speed>0.0</speed>
  <fix>3d</fix>
</trkpt>
<trkpt lat="40.0713749" lon="-105.229789">
  <ele>1583.0</ele>
  <time>2026-08-28T17:54:24Z</time>
  <course>0.0</course>
  <speed>0.0</speed>
  <fix>3d</fix>
</trkpt>
<trkpt lat="40.0713749" lon="-105.229789">
  <ele>1583.0</ele>
  <time>2026-08-28T17:54:24Z</time>
  <course>240.92</course>
  <speed>0.0</speed>
  <fix>3d</fix>
</trkpt>
<trkpt lat="40.0713749" lon="-105.229789">
  <ele>1583.0</ele>
  <time>2026-08-28T17:54:24Z</time>
  <course>0.0</course>
  <speed>0.0</speed>
  <fix>3d</fix>
</trkpt>
<trkpt lat="40.0713749" lon="-105.229789">
  <ele>1583.0</ele>
  <time>2026-08-28T17:54:24Z</time>
  <course>241.21</course>
  <speed>0.0</speed>
  <fix>3d</fix>
</trkpt>
<trkpt lat="40.0713749" lon="-105.229789">
  <ele>1583.0</ele>
  <time>2026-08-28T17:54:24Z</time>
  <course>0.0</course>
  <speed>0.0</speed>
  <fix>3d</fix>
</trkpt>
<trkpt lat="40.0713749" lon="-105.229789">
  <ele>1583.0</ele>
  <time>2026-08-28T17:54:24Z</time>
  <course>241.49</course>
  <speed>0.0</speed>
  <fix>3d</fix>
</trkpt>
<trkpt lat="40.0713749" lon="-105.229789">
  <ele>1583.0</ele>
  <time>2026-08-28T17:54:24Z</time>
  <course>0.0</course>
  <speed>0.0</speed>
  <fix>3d</fix>
</trkpt>
<trkpt lat="40.0713749" lon="-105.229789">
  <ele>1583.0</ele>
  <time>2026-08-28T17:54:24Z</time>
  <course>241.77</course>
  <speed>0.0</speed>
  <fix>3d</fix>
</trkpt>
<trkpt lat="40.0713749" lon="-105.229789">
  <ele>1583.0</ele>
  <time>2026-08-28T17:54:24Z</time>
  <course>0.0</course>
  <speed>0.0</speed>
  <fix>3d</fix>
</trkpt>
<trkpt lat="40.0713749" lon="-105.229789">
  <ele>1583.0</ele>
  <time>2026-08-28T17:54:24Z</time>
  <course>242.03</course>
  <speed>0.0</speed>
  <fix>3d</fix>
</trkpt>
<trkpt lat="40.0713749" lon="-105.229789">
  <ele>1583.0</ele>
  <time>2026-08-28T17:54:24Z</time>
  <course>0.0</course>
  <speed>0.0</speed>
  <fix>3d</fix>
</trkpt>
<trkpt lat="40.0713749" lon="-105.229789">
  <ele>1583.0</ele>
  <time>2026-08-28T17:54:24Z</time>
  <course>242.29</course>
  <speed>0.0</speed>
  <fix>3d</fix>
</trkpt>
<trkpt lat="40.0713749" lon="-105.229789">
  <ele>1583.0</ele>
  <time>2026-08-28T17:54:24Z</time>
  <course>0.0</course>
  <speed>0.0</speed>
  <fix>3d</fix>
</trkpt>
<trkpt lat="39.655741" lon="-104.1383097">
  <ele>1566.58</ele>
  <time>2026-08-28T17:54:25Z</time>
  <course>0.0</course>
  <speed>0.0</speed>
  <fix>3d</fix>
</trkpt>
<trkpt lat="40.0713749" lon="-105.229789">
  <ele>1583.0</ele>
  <time>2026-08-28T17:54:25Z</time>
  <course>0.0</course>
  <speed>0.0</speed>
  <fix>3d</fix>
</trkpt>
<trkpt lat="40.0713749" lon="-105.229789">
  <ele>1583.0</ele>
  <time>2026-08-28T17:54:25Z</time>
  <course>238.36</course>
  <speed>0.0</speed>
  <fix>3d</fix>
</trkpt>
<trkpt lat="40.0713749" lon="-105.229789">
  <ele>1583.0</ele>
  <time>2026-08-28T17:54:25Z</time>
  <course>0.0</course>
  <speed>0.0</speed>
  <fix>3d</fix>
</trkpt>
<trkpt lat="40.0713749" lon="-105.229789">
  <ele>1583.0</ele>
  <time>2026-08-28T17:54:25Z</time>
  <course>238.44</course>
  <speed>0.0</speed>
  <fix>3d</fix>
</trkpt>
<trkpt lat="40.0713749" lon="-105.229789">
  <ele>1583.0</ele>
  <time>2026-08-28T17:54:25Z</time>
  <course>0.0</course>
  <speed>0.0</speed>
  <fix>3d</fix>
</trkpt>
<trkpt lat="40.0713749" lon="-105.229789">
  <ele>1583.0</ele>
  <time>2026-08-28T17:54:25Z</time>
  <course>238.64</course>
  <speed>0.0</speed>
  <fix>3d</fix>
</trkpt>
<trkpt lat="40.0713749" lon="-105.229789">
  <ele>1583.0</ele>
  <time>2026-08-28T17:54:25Z</time>
  <course>0.0</course>
  <speed>0.0</speed>
  <fix>3d</fix>
</trkpt>
<trkpt lat="40.0713749" lon="-105.229789">
  <ele>1583.0</ele>
  <time>2026-08-28T17:54:25Z</time>
  <course>238.93</course>
  <speed>0.0</speed>
  <fix>3d</fix>
</trkpt>
<trkpt lat="40.0713749" lon="-105.229789">
  <ele>1583.0</ele>
  <time>2026-08-28T17:54:25Z</time>
  <course>0.0</course>
  <speed>0.0</speed>
  <fix>3d</fix>
</trkpt>
<trkpt lat="40.0713749" lon="-105.229789">
  <ele>1583.0</ele>
  <time>2026-08-28T17:54:25Z</time>
  <course>239.26</course>
  <speed>0.0</speed>
  <fix>3d</fix>
</trkpt>
<trkpt lat="40.0713749" lon="-105.229789">
  <ele>1583.0</ele>
  <time>2026-08-28T17:54:25Z</time>
  <course>0.0</course>
  <speed>0.0</speed>
  <fix>3d</fix>
</trkpt>
<trkpt lat="40.0713749" lon="-105.229789">
  <ele>1583.0</ele>
  <time>2026-08-28T17:54:25Z</time>
  <course>239.61</course>
  <speed>0.0</speed>
  <fix>3d</fix>
</trkpt>
<trkpt lat="40.0713749" lon="-105.229789">
  <ele>1583.0</ele>
  <time>2026-08-28T17:54:25Z</time>
  <course>0.0</course>
  <speed>0.0</speed>
  <fix>3d</fix>
</trkpt>
<trkpt lat="40.0713749" lon="-105.229789">
  <ele>1583.0</ele>
  <time>2026-08-28T17:54:25Z</time>
  <course>239.96</course>
  <speed>0.0</speed>
  <fix>3d</fix>
</trkpt>
<trkpt lat="40.0713749" lon="-105.229789">
  <ele>1583.0</ele>
  <time>2026-08-28T17:54:25Z</time>
  <course>0.0</course>
  <speed>0.0</speed>
  <fix>3d</fix>
</trkpt>
<trkpt lat="40.0713749" lon="-105.229789">
  <ele>1583.0</ele>
  <time>2026-08-28T17:54:25Z</time>
  <course>240.29</course>
  <speed>0.0</speed>
  <fix>3d</fix>
</trkpt>
<trkpt lat="40.0713749" lon="-105.229789">
  <ele>1583.0</ele>
  <time>2026-08-28T17:54:25Z</time>
  <course>0.0</course>
  <speed>0.0</speed>
  <fix>3d</fix>
</trkpt>
<trkpt lat="40.0713749" lon="-105.229789">
  <ele>1583.0</ele>
  <time>2026-08-28T17:54:25Z</time>
  <course>240.61</course>
  <speed>0.0</speed>
  <fix>3d</fix>
</trkpt>
<trkpt lat="40.0713749" lon="-105.229789">
  <ele>1583.0</ele>
  <time>2026-08-28T17:54:25Z</time>
  <course>0.0</course>
  <speed>0.0</speed>
  <fix>3d</fix>
</trkpt>
<trkpt lat="40.0713749" lon="-105.229789">
  <ele>1583.0</ele>
  <time>2026-08-28T17:54:25Z</time>
  <course>240.92</course>
  <speed>0.0</speed>
  <fix>3d</fix>
</trkpt>
<trkpt lat="40.0713749" lon="-105.229789">
  <ele>1583.0</ele>
  <time>2026-08-28T17:54:25Z</time>
  <course>0.0</course>
  <speed>0.0</speed>
  <fix>3d</fix>
</trkpt>
<trkpt lat="40.0713749" lon="-105.229789">
  <ele>1583.0</ele>
  <time>2026-08-28T17:54:25Z</time>
  <course>241.21</course>
  <speed>0.0</speed>
  <fix>3d</fix>
</trkpt>
<trkpt lat="40.0713749" lon="-105.229789">
  <ele>1583.0</ele>
  <time>2026-08-28T17:54:25Z</time>
  <course>0.0</course>
  <speed>0.0</speed>
  <fix>3d</fix>
</trkpt>
<trkpt lat="40.0713749" lon="-105.229789">
  <ele>1583.0</ele>
  <time>2026-08-28T17:54:25Z</time>
  <course>241.49</course>
  <speed>0.0</speed>
  <fix>3d</fix>
</trkpt>
<trkpt lat="40.0713749" lon="-105.229789">
  <ele>1583.0</ele>
  <time>2026-08-28T17:54:25Z</time>
  <course>0.0</course>
  <speed>0.0</speed>
  <fix>3d</fix>
</trkpt>
<trkpt lat="40.0713749" lon="-105.229789">
  <ele>1583.0</ele>
  <time>2026-08-28T17:54:25Z</time>
  <course>241.77</course>
  <speed>0.0</speed>
  <fix>3d</fix>
</trkpt>
<trkpt lat="40.0713749" lon="-105.229789">
  <ele>1583.0</ele>
  <time>2026-08-28T17:54:25Z</time>
  <course>0.0</course>
  <speed>0.0</speed>
  <fix>3d</fix>
</trkpt>
<trkpt lat="40.0713749" lon="-105.229789">
  <ele>1583.0</ele>
  <time>2026-08-28T17:54:25Z</time>
  <course>242.03</course>
  <speed>0.0</speed>
  <fix>3d</fix>
</trkpt>
<trkpt lat="40.0713749" lon="-105.229789">
  <ele>1583.0</ele>
  <time>2026-08-28T17:54:25Z</time>
  <course>0.0</course>
  <speed>0.0</speed>
  <fix>3d</fix>
</trkpt>
<trkpt lat="40.0713749" lon="-105.229789">
  <ele>1583.0</ele>
  <time>2026-08-28T17:54:25Z</time>
  <course>242.29</course>
  <speed>0.0</speed>
  <fix>3d</fix>
</trkpt>
<trkpt lat="40.0713749" lon="-105.229789">
  <ele>1583.0</ele>
  <time>2026-08-28T17:54:25Z</time>
  <course>0.0</course>
  <speed>0.0</speed>
  <fix>3d</fix>
</trkpt>
<trkpt lat="40.0713749" lon="-105.229789">
  <ele>1583.0</ele>
  <time>2026-08-28T17:54:25Z</time>
  <course>242.54</course>
  <speed>0.0</speed>
  <fix>3d</fix>
</trkpt>
<trkpt lat="40.0713749" lon="-105.229789">
  <ele>1583.0</ele>
  <time>2026-08-28T17:54:25Z</time>
  <course>0.0</course>
  <speed>0.0</speed>
  <fix>3d</fix>
</trkpt>
<trkpt lat="40.0713749" lon="-105.229789">
  <ele>1583.0</ele>
  <time>2026-08-28T17:54:25Z</time>
  <course>242.79</course>
  <speed>0.0</speed>
  <fix>3d</fix>
</trkpt>
<trkpt lat="40.0713749" lon="-105.229789">
  <ele>1583.0</ele>
  <time>2026-08-28T17:54:25Z</time>
  <course>0.0</course>
  <speed>0.0</speed>
  <fix>3d</fix>
</trkpt>
<trkpt lat="40.0713749" lon="-105.229789">
  <ele>1583.0</ele>
  <time>2026-08-28T17:54:25Z</time>
  <course>243.02</course>
  <speed>0.0</speed>
  <fix>3d</fix>
</trkpt>
<trkpt lat="40.0713749" lon="-105.229789">
  <ele>1583.0</ele>
  <time>2026-08-28T17:54:25Z</time>
  <course>0.0</course>
  <speed>0.0</speed>
  <fix>3d</fix>
</trkpt>
<trkpt lat="40.0713749" lon="-105.229789">
  <ele>1583.0</ele>
  <time>2026-08-28T17:54:25Z</time>
  <course>243.25</course>
  <speed>0.0</speed>
  <fix>3d</fix>
</trkpt>
<trkpt lat="40.0713749" lon="-105.229789">
  <ele>1583.0</ele>
  <time>2026-08-28T17:54:25Z</time>
  <course>0.0</course>
  <speed>0.0</speed>
  <fix>3d</fix>
</trkpt>
<trkpt lat="40.0713749" lon="-105.229789">
  <ele>1583.0</ele>
  <time>2026-08-28T17:54:25Z</time>
  <course>243.47</course>
  <speed>0.0</speed>
  <fix>3d</fix>
</trkpt>
<trkpt lat="40.0713749" lon="-105.229789">
  <ele>1583.0</ele>
  <time>2026-08-28T17:54:25Z</time>
  <course>0.0</course>
  <speed>0.0</speed>
  <fix>3d</fix>
</trkpt>
<trkpt lat="40.0713749" lon="-105.229789">
  <ele>1583.0</ele>
  <time>2026-08-28T17:54:25Z</time>
  <course>243.68</course>
  <speed>0.0</speed>
  <fix>3d</fix>
</trkpt>
<trkpt lat="40.0713749" lon="-105.229789">
  <ele>1583.0</ele>
  <time>2026-08-28T17:54:25Z</time>
  <course>0.0</course>
  <speed>0.0</speed>
  <fix>3d</fix>
</trkpt>
<trkpt lat="40.0713749" lon="-105.229789">
  <ele>1583.0</ele>
  <time>2026-08-28T17:54:25Z</time>
  <course>243.89</course>
  <speed>0.0</speed>
  <fix>3d</fix>
</trkpt>
<trkpt lat="40.0713749" lon="-105.229789">
  <ele>1583.0</ele>
  <time>2026-08-28T17:54:25Z</time>
  <course>0.0</course>
  <speed>0.0</speed>
  <fix>3d</fix>
</trkpt>
<trkpt lat="40.0713749" lon="-105.229789">
  <ele>1583.0</ele>
  <time>2026-08-28T17:54:25Z</time>
  <course>244.09</course>
  <speed>0.0</speed>
  <fix>3d</fix>
</trkpt>
<trkpt lat="40.0713749" lon="-105.229789">
  <ele>1583.0</ele>
  <time>2026-08-28T17:54:25Z</time>
  <course>0.0</course>
  <speed>0.0</speed>
  <fix>3d</fix>
</trkpt>
<trkpt lat="40.0713749" lon="-105.229789">
  <ele>1583.0</ele>
  <time>2026-08-28T17:54:25Z</time>
  <course>244.28</course>
  <speed>0.0</speed>
  <fix>3d</fix>
</trkpt>
<trkpt lat="40.0713749" lon="-105.229789">
  <ele>1583.0</ele>
  <time>2026-08-28T17:54:25Z</time>
  <course>0.0</course>
  <speed>0.0</speed>
  <fix>3d</fix>
</trkpt>
<trkpt lat="40.0713749" lon="-105.229789">
  <ele>1583.0</ele>
  <time>2026-08-28T17:54:25Z</time>
  <course>244.46</course>
  <speed>0.0</speed>
  <fix>3d</fix>
</trkpt>
<trkpt lat="40.0713749" lon="-105.229789">
  <ele>1583.0</ele>
  <time>2026-08-28T17:54:25Z</time>
  <course>0.0</course>
  <speed>0.0</speed>
  <fix>3d</fix>
</trkpt>
<trkpt lat="40.0713749" lon="-105.229789">
  <ele>1583.0</ele>
  <time>2026-08-28T17:54:25Z</time>
  <course>244.64</course>
  <speed>0.0</speed>
  <fix>3d</fix>
</trkpt>
<trkpt lat="40.0713749" lon="-105.229789">
  <ele>1583.0</ele>
  <time>2026-08-28T17:54:25Z</time>
  <course>0.0</course>
  <speed>0.0</speed>
  <fix>3d</fix>
</trkpt>
<trkpt lat="40.0713749" lon="-105.229789">
  <ele>1583.0</ele>
  <time>2026-08-28T17:54:25Z</time>
  <course>244.81</course>
  <speed>0.0</speed>
  <fix>3d</fix>
</trkpt>
<trkpt lat="40.0713749" lon="-105.229789">
  <ele>1583.0</ele>
  <time>2026-08-28T17:54:25Z</time>
  <course>0.0</course>
  <speed>0.0</speed>
  <fix>3d</fix>
</trkpt>
<trkpt lat="40.0713749" lon="-105.229789">
  <ele>1583.0</ele>
  <time>2026-08-28T17:54:25Z</time>
  <course>244.97</course>
  <speed>0.0</speed>
  <fix>3d</fix>
</trkpt>
<trkpt lat="40.0713749" lon="-105.229789">
  <ele>1583.0</ele>
  <time>2026-08-28T17:54:25Z</time>
  <course>0.0</course>
  <speed>0.0</speed>
  <fix>3d</fix>
</trkpt>
<trkpt lat="40.0713749" lon="-105.229789">
  <ele>1583.0</ele>
  <time>2026-08-28T17:54:25Z</time>
  <course>245.13</course>
  <speed>0.0</speed>
  <fix>3d</fix>
</trkpt>
<trkpt lat="40.0713749" lon="-105.229789">
  <ele>1583.0</ele>
  <time>2026-08-28T17:54:25Z</time>
  <course>0.0</course>
  <speed>0.0</speed>
  <fix>3d</fix>
</trkpt>
<trkpt lat="40.0713749" lon="-105.229789">
  <ele>1583.0</ele>
  <time>2026-08-28T17:54:25Z</time>
  <course>245.29</course>
  <speed>0.0</speed>
  <fix>3d</fix>
</trkpt>
<trkpt lat="40.0713749" lon="-105.229789">
  <ele>1583.0</ele>
  <time>2026-08-28T17:54:25Z</time>
  <course>0.0</course>
  <speed>0.0</speed>
  <fix>3d</fix>
</trkpt>
<trkpt lat="40.0713749" lon="-105.229789">
  <ele>1583.0</ele>
  <time>2026-08-28T17:54:25Z</time>
  <course>245.43</course>
  <speed>0.0</speed>
  <fix>3d</fix>
</trkpt>
<trkpt lat="40.0713749" lon="-105.229789">
  <ele>1583.0</ele>
  <time>2026-08-28T17:54:25Z</time>
  <course>0.0</course>
  <speed>0.0</speed>
  <fix>3d</fix>
</trkpt>
<trkpt lat="40.0713749" lon="-105.229789">
  <ele>1583.0</ele>
  <time>2026-08-28T17:54:25Z</time>
  <course>245.57</course>
  <speed>0.0</speed>
  <fix>3d</fix>
</trkpt>
<trkpt lat="40.0713749" lon="-105.229789">
  <ele>1583.0</ele>
  <time>2026-08-28T17:54:25Z</time>
  <course>0.0</course>
  <speed>0.0</speed>
  <fix>3d</fix>
</trkpt>
<trkpt lat="40.0713749" lon="-105.229789">
  <ele>1583.0</ele>
  <time>2026-08-28T17:54:25Z</time>
  <course>245.71</course>
  <speed>0.0</speed>
  <fix>3d</fix>
</trkpt>
<trkpt lat="40.0713749" lon="-105.229789">
  <ele>1583.0</ele>
  <time>2026-08-28T17:54:25Z</time>
  <course>0.0</course>
  <speed>0.0</speed>
  <fix>3d</fix>
</trkpt>
<trkpt lat="40.0713749" lon="-105.229789">
  <ele>1583.0</ele>
  <time>2026-08-28T17:54:25Z</time>
  <course>245.84</course>
  <speed>0.0</speed>
  <fix>3d</fix>
</trkpt>
<trkpt lat="40.0713749" lon="-105.229789">
  <ele>1583.0</ele>
  <time>2026-08-28T17:54:25Z</time>
  <course>0.0</course>
  <speed>0.0</speed>
  <fix>3d</fix>
</trkpt>
<trkpt lat="40.0713749" lon="-105.229789">
  <ele>1583.0</ele>
  <time>2026-08-28T17:54:25Z</time>
  <course>245.96</course>
  <speed>0.0</speed>
  <fix>3d</fix>
</trkpt>
<trkpt lat="40.0713749" lon="-105.229789">
  <ele>1583.0</ele>
  <time>2026-08-28T17:54:25Z</time>
  <course>0.0</course>
  <speed>0.0</speed>
  <fix>3d</fix>
</trkpt>
<trkpt lat="40.0713749" lon="-105.229789">
  <ele>1583.0</ele>
  <time>2026-08-28T17:54:25Z</time>
  <course>246.08</course>
  <speed>0.0</speed>
  <fix>3d</fix>
</trkpt>
<trkpt lat="40.0713749" lon="-105.229789">
  <ele>1583.0</ele>
  <time>2026-08-28T17:54:25Z</time>
  <course>0.0</course>
  <speed>0.0</speed>
  <fix>3d</fix>
</trkpt>
<trkpt lat="40.0713749" lon="-105.229789">
  <ele>1583.0</ele>
  <time>2026-08-28T17:54:25Z</time>
  <course>246.19</course>
  <speed>0.0</speed>
  <fix>3d</fix>
</trkpt>
<trkpt lat="40.0713749" lon="-105.229789">
  <ele>1583.0</ele>
  <time>2026-08-28T17:54:25Z</time>
  <course>0.0</course>
  <speed>0.0</speed>
  <fix>3d</fix>
</trkpt>
<trkpt lat="40.0713749" lon="-105.229789">
  <ele>1583.0</ele>
  <time>2026-08-28T17:54:25Z</time>
  <course>246.3</course>
  <speed>0.0</speed>
  <fix>3d</fix>
</trkpt>
<trkpt lat="40.0713749" lon="-105.229789">
  <ele>1583.0</ele>
  <time>2026-08-28T17:54:25Z</time>
  <course>0.0</course>
  <speed>0.0</speed>
  <fix>3d</fix>
</trkpt>
<trkpt lat="40.0713749" lon="-105.229789">
  <ele>1583.0</ele>
  <time>2026-08-28T17:54:25Z</time>
  <course>246.41</course>
  <speed>0.0</speed>
  <fix>3d</fix>
</trkpt>
<trkpt lat="40.0713749" lon="-105.229789">
  <ele>1583.0</ele>
  <time>2026-08-28T17:54:25Z</time>
  <course>0.0</course>
  <speed>0.0</speed>
  <fix>3d</fix>
</trkpt>
<trkpt lat="40.0713749" lon="-105.229789">
  <ele>1583.0</ele>
  <time>2026-08-28T17:54:25Z</time>
  <course>246.51</course>
  <speed>0.0</speed>
  <fix>3d</fix>
</trkpt>
<trkpt lat="40.0713749" lon="-105.229789">
  <ele>1583.0</ele>
  <time>2026-08-28T17:54:25Z</time>
  <course>0.0</course>
  <speed>0.0</speed>
  <fix>3d</fix>
</trkpt>
<trkpt lat="40.0713749" lon="-105.229789">
  <ele>1583.0</ele>
  <time>2026-08-28T17:54:25Z</time>
  <course>246.6</course>
  <speed>0.0</speed>
  <fix>3d</fix>
</trkpt>
<trkpt lat="40.0713749" lon="-105.229789">
  <ele>1583.0</ele>
  <time>2026-08-28T17:54:25Z</time>
  <course>0.0</course>
  <speed>0.0</speed>
  <fix>3d</fix>
</trkpt>
<trkpt lat="40.0713749" lon="-105.229789">
  <ele>1583.0</ele>
  <time>2026-08-28T17:54:25Z</time>
  <course>246.7</course>
  <speed>0.0</speed>
  <fix>3d</fix>
</trkpt>
<trkpt lat="40.0713749" lon="-105.229789">
  <ele>1583.0</ele>
  <time>2026-08-28T17:54:25Z</time>
  <course>0.0</course>
  <speed>0.0</speed>
  <fix>3d</fix>
</trkpt>
<trkpt lat="40.0713749" lon="-105.229789">
  <ele>1583.0</ele>
  <time>2026-08-28T17:54:25Z</time>
  <course>246.78</course>
  <speed>0.0</speed>
  <fix>3d</fix>
</trkpt>
<trkpt lat="40.0713749" lon="-105.229789">
  <ele>1583.0</ele>
  <time>2026-08-28T17:54:25Z</time>
  <course>0.0</course>
  <speed>0.0</speed>
  <fix>3d</fix>
</trkpt>
<trkpt lat="40.0713749" lon="-105.229789">
  <ele>1583.0</ele>
  <time>2026-08-28T17:54:25Z</time>
  <course>246.87</course>
  <speed>0.0</speed>
  <fix>3d</fix>
</trkpt>
<trkpt lat="40.0713749" lon="-105.229789">
  <ele>1583.0</ele>
  <time>2026-08-28T17:54:25Z</time>
  <course>0.0</course>
  <speed>0.0</speed>
  <fix>3d</fix>
</trkpt>
<trkpt lat="40.0713749" lon="-105.229789">
  <ele>1583.0</ele>
  <time>2026-08-28T17:54:25Z</time>
  <course>246.95</course>
  <speed>0.0</speed>
  <fix>3d</fix>
</trkpt>
<trkpt lat="40.0713749" lon="-105.229789">
  <ele>1583.0</ele>
  <time>2026-08-28T17:54:25Z</time>
  <course>0.0</course>
  <speed>0.0</speed>
  <fix>3d</fix>
</trkpt>
<trkpt lat="40.0713749" lon="-105.229789">
  <ele>1583.0</ele>
  <time>2026-08-28T17:54:25Z</time>
  <course>247.02</course>
  <speed>0.0</speed>
  <fix>3d</fix>
</trkpt>
<trkpt lat="40.0713749" lon="-105.229789">
  <ele>1583.0</ele>
  <time>2026-08-28T17:54:25Z</time>
  <course>0.0</course>
  <speed>0.0</speed>
  <fix>3d</fix>
</trkpt>
<trkpt lat="40.0713749" lon="-105.229789">
  <ele>1583.0</ele>
  <time>2026-08-28T17:54:25Z</time>
  <course>247.1</course>
  <speed>0.0</speed>
  <fix>3d</fix>
</trkpt>
<trkpt lat="40.0713749" lon="-105.229789">
  <ele>1583.0</ele>
  <time>2026-08-28T17:54:25Z</time>
  <course>0.0</course>
  <speed>0.0</speed>
  <fix>3d</fix>
</trkpt>
<trkpt lat="40.0713749" lon="-105.229789">
  <ele>1583.0</ele>
  <time>2026-08-28T17:54:25Z</time>
  <course>247.17</course>
  <speed>0.0</speed>
  <fix>3d</fix>
</trkpt>
<trkpt lat="40.0713749" lon="-105.229789">
  <ele>1583.0</ele>
  <time>2026-08-28T17:54:25Z</time>
  <course>0.0</course>
  <speed>0.0</speed>
  <fix>3d</fix>
</trkpt>
<trkpt lat="40.0713749" lon="-105.229789">
  <ele>1583.0</ele>
  <time>2026-08-28T17:54:25Z</time>
  <course>247.24</course>
  <speed>0.0</speed>
  <fix>3d</fix>
</trkpt>
<trkpt lat="40.0713749" lon="-105.229789">
  <ele>1583.0</ele>
  <time>2026-08-28T17:54:25Z</time>
  <course>0.0</course>
  <speed>0.0</speed>
  <fix>3d</fix>
</trkpt>
<trkpt lat="40.0713749" lon="-105.229789">
  <ele>1583.0</ele>
  <time>2026-08-28T17:54:25Z</time>
  <course>247.3</course>
  <speed>0.0</speed>
  <fix>3d</fix>
</trkpt>
<trkpt lat="40.0713749" lon="-105.229789">
  <ele>1583.0</ele>
  <time>2026-08-28T17:54:25Z</time>
  <course>0.0</course>
  <speed>0.0</speed>
  <fix>3d</fix>
</trkpt>
<trkpt lat="40.0713749" lon="-105.229789">
  <ele>1583.0</ele>
  <time>2026-08-28T17:54:25Z</time>
  <course>247.36</course>
  <speed>0.0</speed>
  <fix>3d</fix>
</trkpt>
<trkpt lat="40.0713749" lon="-105.229789">
  <ele>1583.0</ele>
  <time>2026-08-28T17:54:25Z</time>
  <course>0.0</course>
  <speed>0.0</speed>
  <fix>3d</fix>
</trkpt>
<trkpt lat="40.0713749" lon="-105.229789">
  <ele>1583.0</ele>
  <time>2026-08-28T17:54:25Z</time>
  <course>247.42</course>
  <speed>0.0</speed>
  <fix>3d</fix>
</trkpt>
<trkpt lat="40.0713749" lon="-105.229789">
  <ele>1583.0</ele>
  <time>2026-08-28T17:54:25Z</time>
  <course>0.0</course>
  <speed>0.0</speed>
  <fix>3d</fix>
</trkpt>
<trkpt lat="40.0713749" lon="-105.229789">
  <ele>1583.0</ele>
  <time>2026-08-28T17:54:25Z</time>
  <course>247.47</course>
  <speed>0.0</speed>
  <fix>3d</fix>
</trkpt>
<trkpt lat="40.0713749" lon="-105.229789">
  <ele>1583.0</ele>
  <time>2026-08-28T17:54:25Z</time>
  <course>0.0</course>
  <speed>0.0</speed>
  <fix>3d</fix>
</trkpt>
<trkpt lat="40.0713749" lon="-105.229789">
  <ele>1583.0</ele>
  <time>2026-08-28T17:54:25Z</time>
  <course>247.53</course>
  <speed>0.0</speed>
  <fix>3d</fix>
</trkpt>
<trkpt lat="40.0713749" lon="-105.229789">
  <ele>1583.0</ele>
  <time>2026-08-28T17:54:25Z</time>
  <course>0.0</course>
  <speed>0.0</speed>
  <fix>3d</fix>
</trkpt>
<trkpt lat="40.0713749" lon="-105.229789">
  <ele>1583.0</ele>
  <time>2026-08-28T17:54:25Z</time>
  <course>247.58</course>
  <speed>0.0</speed>
  <fix>3d</fix>
</trkpt>
<trkpt lat="40.0713749" lon="-105.229789">
  <ele>1583.0</ele>
  <time>2026-08-28T17:54:25Z</time>
  <course>0.0</course>
  <speed>0.0</speed>
  <fix>3d</fix>
</trkpt>
<trkpt lat="40.0713749" lon="-105.229789">
  <ele>1583.0</ele>
  <time>2026-08-28T17:54:25Z</time>
  <course>247.63</course>
  <speed>0.0</speed>
  <fix>3d</fix>
</trkpt>
<trkpt lat="40.0713749" lon="-105.229789">
  <ele>1583.0</ele>
  <time>2026-08-28T17:54:25Z</time>
  <course>0.0</course>
  <speed>0.0</speed>
  <fix>3d</fix>
</trkpt>
<trkpt lat="40.0713749" lon="-105.229789">
  <ele>1583.0</ele>
  <time>2026-08-28T17:54:25Z</time>
  <course>247.67</course>
  <speed>0.0</speed>
  <fix>3d</fix>
</trkpt>
<trkpt lat="40.0713749" lon="-105.229789">
  <ele>1583.0</ele>
  <time>2026-08-28T17:54:25Z</time>
  <course>0.0</course>
  <speed>0.0</speed>
  <fix>3d</fix>
</trkpt>
<trkpt lat="40.0713749" lon="-105.229789">
  <ele>1583.0</ele>
  <time>2026-08-28T17:54:25Z</time>
  <course>247.72</course>
  <speed>0.0</speed>
  <fix>3d</fix>
</trkpt>
<trkpt lat="40.0713749" lon="-105.229789">
  <ele>1583.0</ele>
  <time>2026-08-28T17:54:25Z</time>
  <course>0.0</course>
  <speed>0.0</speed>
  <fix>3d</fix>
</trkpt>
<trkpt lat="40.0713749" lon="-105.229789">
  <ele>1583.0</ele>
  <time>2026-08-28T17:54:25Z</time>
  <course>247.76</course>
  <speed>0.0</speed>
  <fix>3d</fix>
</trkpt>
<trkpt lat="40.0713749" lon="-105.229789">
  <ele>1583.0</ele>
  <time>2026-08-28T17:54:25Z</time>
  <course>0.0</course>
  <speed>0.0</speed>
  <fix>3d</fix>
</trkpt>
<trkpt lat="40.0713749" lon="-105.229789">
  <ele>1583.0</ele>
  <time>2026-08-28T17:54:25Z</time>
  <course>247.8</course>
  <speed>0.0</speed>
  <fix>3d</fix>
</trkpt>
<trkpt lat="40.0713749" lon="-105.229789">
  <ele>1583.0</ele>
  <time>2026-08-28T17:54:25Z</time>
  <course>0.0</course>
  <speed>0.0</speed>
  <fix>3d</fix>
</trkpt>
<trkpt lat="40.0713749" lon="-105.229789">
  <ele>1583.0</ele>
  <time>2026-08-28T17:54:25Z</time>
  <course>247.83</course>
  <speed>0.0</speed>
  <fix>3d</fix>
</trkpt>
<trkpt lat="40.0713749" lon="-105.229789">
  <ele>1583.0</ele>
  <time>2026-08-28T17:54:25Z</time>
  <course>0.0</course>
  <speed>0.0</speed>
  <fix>3d</fix>
</trkpt>
<trkpt lat="40.0713749" lon="-105.229789">
  <ele>1583.0</ele>
  <time>2026-08-28T17:54:25Z</time>
  <course>247.87</course>
  <speed>0.0</speed>
  <fix>3d</fix>
</trkpt>
<trkpt lat="40.0713749" lon="-105.229789">
  <ele>1583.0</ele>
  <time>2026-08-28T17:54:25Z</time>
  <course>0.0</course>
  <speed>0.0</speed>
  <fix>3d</fix>
</trkpt>
<trkpt lat="40.0713749" lon="-105.229789">
  <ele>1583.0</ele>
  <time>2026-08-28T17:54:25Z</time>
  <course>247.9</course>
  <speed>0.0</speed>
  <fix>3d</fix>
</trkpt>
<trkpt lat="40.0713749" lon="-105.229789">
  <ele>1583.0</ele>
  <time>2026-08-28T17:54:25Z</time>
  <course>0.0</course>
  <speed>0.0</speed>
  <fix>3d</fix>
</trkpt>
<trkpt lat="40.0713749" lon="-105.229789">
  <ele>1583.0</ele>
  <time>2026-08-28T17:54:25Z</time>
  <course>247.94</course>
  <speed>0.0</speed>
  <fix>3d</fix>
</trkpt>
<trkpt lat="40.0713749" lon="-105.229789">
  <ele>1583.0</ele>
  <time>2026-08-28T17:54:25Z</time>
  <course>0.0</course>
  <speed>0.0</speed>
  <fix>3d</fix>
</trkpt>
<trkpt lat="40.0713749" lon="-105.229789">
  <ele>1583.0</ele>
  <time>2026-08-28T17:54:25Z</time>
  <course>247.97</course>
  <speed>0.0</speed>
  <fix>3d</fix>
</trkpt>
<trkpt lat="40.0713749" lon="-105.229789">
  <ele>1583.0</ele>
  <time>2026-08-28T17:54:25Z</time>
  <course>0.0</course>
  <speed>0.0</speed>
  <fix>3d</fix>
</trkpt>
<trkpt lat="40.0713749" lon="-105.229789">
  <ele>1583.0</ele>
  <time>2026-08-28T17:54:25Z</time>
  <course>248.0</course>
  <speed>0.0</speed>
  <fix>3d</fix>
</trkpt>
<trkpt lat="40.0713749" lon="-105.229789">
  <ele>1583.0</ele>
  <time>2026-08-28T17:54:25Z</time>
  <course>0.0</course>
  <speed>0.0</speed>
  <fix>3d</fix>
</trkpt>
<trkpt lat="40.0713749" lon="-105.229789">
  <ele>1583.0</ele>
  <time>2026-08-28T17:54:25Z</time>
  <course>248.02</course>
  <speed>0.0</speed>
  <fix>3d</fix>
</trkpt>
<trkpt lat="40.0713749" lon="-105.229789">
  <ele>1583.0</ele>
  <time>2026-08-28T17:54:25Z</time>
  <course>0.0</course>
  <speed>0.0</speed>
  <fix>3d</fix>
</trkpt>
<trkpt lat="40.0713749" lon="-105.229789">
  <ele>1583.0</ele>
  <time>2026-08-28T17:54:25Z</time>
  <course>248.05</course>
  <speed>0.0</speed>
  <fix>3d</fix>
</trkpt>
<trkpt lat="40.0713749" lon="-105.229789">
  <ele>1583.0</ele>
  <time>2026-08-28T17:54:25Z</time>
  <course>0.0</course>
  <speed>0.0</speed>
  <fix>3d</fix>
</trkpt>
<trkpt lat="40.0713749" lon="-105.229789">
  <ele>1583.0</ele>
  <time>2026-08-28T17:54:25Z</time>
  <course>248.08</course>
  <speed>0.0</speed>
  <fix>3d</fix>
</trkpt>
<trkpt lat="40.0713749" lon="-105.229789">
  <ele>1583.0</ele>
  <time>2026-08-28T17:54:25Z</time>
  <course>0.0</course>
  <speed>0.0</speed>
  <fix>3d</fix>
</trkpt>
<trkpt lat="40.0713749" lon="-105.229789">
  <ele>1583.0</ele>
  <time>2026-08-28T17:54:25Z</time>
  <course>248.1</course>
  <speed>0.0</speed>
  <fix>3d</fix>
</trkpt>
<trkpt lat="40.0713749" lon="-105.229789">
  <ele>1583.0</ele>
  <time>2026-08-28T17:54:25Z</time>
  <course>0.0</course>
  <speed>0.0</speed>
  <fix>3d</fix>
</trkpt>
<trkpt lat="40.0713749" lon="-105.229789">
  <ele>1583.0</ele>
  <time>2026-08-28T17:54:25Z</time>
  <course>248.12</course>
  <speed>0.0</speed>
  <fix>3d</fix>
</trkpt>
<trkpt lat="40.0713749" lon="-105.229789">
  <ele>1583.0</ele>
  <time>2026-08-28T17:54:25Z</time>
  <course>0.0</course>
  <speed>0.0</speed>
  <fix>3d</fix>
</trkpt>
<trkpt lat="40.0713749" lon="-105.229789">
  <ele>1583.0</ele>
  <time>2026-08-28T17:54:25Z</time>
  <course>248.14</course>
  <speed>0.0</speed>
  <fix>3d</fix>
</trkpt>
<trkpt lat="40.0713749" lon="-105.229789">
  <ele>1583.0</ele>
  <time>2026-08-28T17:54:25Z</time>
  <course>0.0</course>
  <speed>0.0</speed>
  <fix>3d</fix>
</trkpt>
<trkpt lat="40.0713749" lon="-105.229789">
  <ele>1583.0</ele>
  <time>2026-08-28T17:54:25Z</time>
  <course>248.16</course>
  <speed>0.0</speed>
  <fix>3d</fix>
</trkpt>
<trkpt lat="40.0713749" lon="-105.229789">
  <ele>1583.0</ele>
  <time>2026-08-28T17:54:25Z</time>
  <course>0.0</course>
  <speed>0.0</speed>
  <fix>3d</fix>
</trkpt>
<trkpt lat="40.0713749" lon="-105.229789">
  <ele>1583.0</ele>
  <time>2026-08-28T17:54:25Z</time>
  <course>248.18</course>
  <speed>0.0</speed>
  <fix>3d</fix>
</trkpt>
<trkpt lat="40.0713749" lon="-105.229789">
  <ele>1583.0</ele>
  <time>2026-08-28T17:54:25Z</time>
  <course>0.0</course>
  <speed>0.0</speed>
  <fix>3d</fix>
</trkpt>
<trkpt lat="40.0713749" lon="-105.229789">
  <ele>1583.0</ele>
  <time>2026-08-28T17:54:25Z</time>
  <course>248.2</course>
  <speed>0.0</speed>
  <fix>3d</fix>
</trkpt>
<trkpt lat="40.0713749" lon="-105.229789">
  <ele>1583.0</ele>
  <time>2026-08-28T17:54:25Z</time>
  <course>0.0</course>
  <speed>0.0</speed>
  <fix>3d</fix>
</trkpt>
<trkpt lat="40.0713749" lon="-105.229789">
  <ele>1583.0</ele>
  <time>2026-08-28T17:54:25Z</time>
  <course>248.22</course>
  <speed>0.0</speed>
  <fix>3d</fix>
</trkpt>
<trkpt lat="40.0713749" lon="-105.229789">
  <ele>1583.0</ele>
  <time>2026-08-28T17:54:25Z</time>
  <course>0.0</course>
  <speed>0.0</speed>
  <fix>3d</fix>
</trkpt>
<trkpt lat="40.0713749" lon="-105.229789">
  <ele>1583.0</ele>
  <time>2026-08-28T17:54:25Z</time>
  <course>248.23</course>
  <speed>0.0</speed>
  <fix>3d</fix>
</trkpt>
<trkpt lat="40.0713749" lon="-105.229789">
  <ele>1583.0</ele>
  <time>2026-08-28T17:54:25Z</time>
  <course>0.0</course>
  <speed>0.0</speed>
  <fix>3d</fix>
</trkpt>
<trkpt lat="40.0713749" lon="-105.229789">
  <ele>1583.0</ele>
  <time>2026-08-28T17:54:25Z</time>
  <course>248.25</course>
  <speed>0.0</speed>
  <fix>3d</fix>
</trkpt>
<trkpt lat="40.0713749" lon="-105.229789">
  <ele>1583.0</ele>
  <time>2026-08-28T17:54:25Z</time>
  <course>0.0</course>
  <speed>0.0</speed>
  <fix>3d</fix>
</trkpt>
<trkpt lat="40.0713749" lon="-105.229789">
  <ele>1583.0</ele>
  <time>2026-08-28T17:54:25Z</time>
  <course>248.26</course>
  <speed>0.0</speed>
  <fix>3d</fix>
</trkpt>
<trkpt lat="40.0713749" lon="-105.229789">
  <ele>1583.0</ele>
  <time>2026-08-28T17:54:25Z</time>
  <course>0.0</course>
  <speed>0.0</speed>
  <fix>3d</fix>
</trkpt>
<trkpt lat="40.0713749" lon="-105.229789">
  <ele>1583.0</ele>
  <time>2026-08-28T17:54:25Z</time>
  <course>248.28</course>
  <speed>0.0</speed>
  <fix>3d</fix>
</trkpt>
<trkpt lat="40.0713749" lon="-105.229789">
  <ele>1583.0</ele>
  <time>2026-08-28T17:54:25Z</time>
  <course>0.0</course>
  <speed>0.0</speed>
  <fix>3d</fix>
</trkpt>
<trkpt lat="40.0713749" lon="-105.229789">
  <ele>1583.0</ele>
  <time>2026-08-28T17:54:25Z</time>
  <course>248.29</course>
  <speed>0.0</speed>
  <fix>3d</fix>
</trkpt>
<trkpt lat="40.0713749" lon="-105.229789">
  <ele>1583.0</ele>
  <time>2026-08-28T17:54:25Z</time>
  <course>0.0</course>
  <speed>0.0</speed>
  <fix>3d</fix>
</trkpt>
<trkpt lat="40.0713749" lon="-105.229789">
  <ele>1583.0</ele>
  <time>2026-08-28T17:54:25Z</time>
  <course>248.3</course>
  <speed>0.0</speed>
  <fix>3d</fix>
</trkpt>
<trkpt lat="40.0713749" lon="-105.229789">
  <ele>1583.0</ele>
  <time>2026-08-28T17:54:25Z</time>
  <course>0.0</course>
  <speed>0.0</speed>
  <fix>3d</fix>
</trkpt>
<trkpt lat="40.0713749" lon="-105.229789">
  <ele>1583.0</ele>
  <time>2026-08-28T17:54:25Z</time>
  <course>248.31</course>
  <speed>0.0</speed>
  <fix>3d</fix>
</trkpt>
<trkpt lat="40.0713749" lon="-105.229789">
  <ele>1583.0</ele>
  <time>2026-08-28T17:54:25Z</time>
  <course>0.0</course>
  <speed>0.0</speed>
  <fix>3d</fix>
</trkpt>
<trkpt lat="40.0713749" lon="-105.229789">
  <ele>1583.0</ele>
  <time>2026-08-28T17:54:25Z</time>
  <course>248.32</course>
  <speed>0.0</speed>
  <fix>3d</fix>
</trkpt>
<trkpt lat="40.0713749" lon="-105.229789">
  <ele>1583.0</ele>
  <time>2026-08-28T17:54:25Z</time>
  <course>0.0</course>
  <speed>0.0</speed>
  <fix>3d</fix>
</trkpt>
<trkpt lat="40.0713749" lon="-105.229789">
  <ele>1583.0</ele>
  <time>2026-08-28T17:54:25Z</time>
  <course>248.33</course>
  <speed>0.0</speed>
  <fix>3d</fix>
</trkpt>
<trkpt lat="40.0713749" lon="-105.229789">
  <ele>1583.0</ele>
  <time>2026-08-28T17:54:25Z</time>
  <course>0.0</course>
  <speed>0.0</speed>
  <fix>3d</fix>
</trkpt>
<trkpt lat="40.0713749" lon="-105.229789">
  <ele>1583.0</ele>
  <time>2026-08-28T17:54:25Z</time>
  <course>248.34</course>
  <speed>0.0</speed>
  <fix>3d</fix>
</trkpt>
<trkpt lat="40.0713749" lon="-105.229789">
  <ele>1583.0</ele>
  <time>2026-08-28T17:54:25Z</time>
  <course>0.0</course>
  <speed>0.0</speed>
  <fix>3d</fix>
</trkpt>
<trkpt lat="40.0713749" lon="-105.229789">
  <ele>1583.0</ele>
  <time>2026-08-28T17:54:25Z</time>
  <course>248.35</course>
  <speed>0.0</speed>
  <fix>3d</fix>
</trkpt>
<trkpt lat="40.0713749" lon="-105.229789">
  <ele>1583.0</ele>
  <time>2026-08-28T17:54:25Z</time>
  <course>0.0</course>
  <speed>0.0</speed>
  <fix>3d</fix>
</trkpt>
<trkpt lat="40.0713749" lon="-105.229789">
  <ele>1583.0</ele>
  <time>2026-08-28T17:54:25Z</time>
  <course>248.35</course>
  <speed>0.0</speed>
  <fix>3d</fix>
</trkpt>
<trkpt lat="40.0713749" lon="-105.229789">
  <ele>1583.0</ele>
  <time>2026-08-28T17:54:25Z</time>
  <course>0.0</course>
  <speed>0.0</speed>
  <fix>3d</fix>
</trkpt>
<trkpt lat="40.0713749" lon="-105.229789">
  <ele>1583.0</ele>
  <time>2026-08-28T17:54:25Z</time>
  <course>248.36</course>
  <speed>0.0</speed>
  <fix>3d</fix>
</trkpt>
<trkpt lat="40.0713749" lon="-105.229789">
  <ele>1583.0</ele>
  <time>2026-08-28T17:54:25Z</time>
  <course>0.0</course>
  <speed>0.0</speed>
  <fix>3d</fix>
</trkpt>
<trkpt lat="40.0713749" lon="-105.229789">
  <ele>1583.0</ele>
  <time>2026-08-28T17:54:25Z</time>
  <course>248.37</course>
  <speed>0.0</speed>
  <fix>3d</fix>
</trkpt>
<trkpt lat="40.0713749" lon="-105.229789">
  <ele>1583.0</ele>
  <time>2026-08-28T17:54:25Z</time>
  <course>0.0</course>
  <speed>0.0</speed>
  <fix>3d</fix>
</trkpt>
<trkpt lat="40.0713749" lon="-105.229789">
  <ele>1583.0</ele>
  <time>2026-08-28T17:54:25Z</time>
  <course>248.37</course>
  <speed>0.0</speed>
  <fix>3d</fix>
</trkpt>
<trkpt lat="40.0713749" lon="-105.229789">
  <ele>1583.0</ele>
  <time>2026-08-28T17:54:25Z</time>
  <course>0.0</course>
  <speed>0.0</speed>
  <fix>3d</fix>
</trkpt>
<trkpt lat="40.0713749" lon="-105.229789">
  <ele>1583.0</ele>
  <time>2026-08-28T17:54:25Z</time>
  <course>248.38</course>
  <speed>0.0</speed>
  <fix>3d</fix>
</trkpt>
<trkpt lat="40.0713749" lon="-105.229789">
  <ele>1583.0</ele>
  <time>2026-08-28T17:54:25Z</time>
  <course>0.0</course>
  <speed>0.0</speed>
  <fix>3d</fix>
</trkpt>
<trkpt lat="40.0713749" lon="-105.229789">
  <ele>1583.0</ele>
  <time>2026-08-28T17:54:25Z</time>
  <course>248.38</course>
  <speed>0.0</speed>
  <fix>3d</fix>
</trkpt>
<trkpt lat="40.0713749" lon="-105.229789">
  <ele>1583.0</ele>
  <time>2026-08-28T17:54:25Z</time>
  <course>0.0</course>
  <speed>0.0</speed>
  <fix>3d</fix>
</trkpt>
<trkpt lat="40.0713749" lon="-105.229789">
  <ele>1583.0</ele>
  <time>2026-08-28T17:54:25Z</time>
  <course>248.39</course>
  <speed>0.0</speed>
  <fix>3d</fix>
</trkpt>
<trkpt lat="40.0713749" lon="-105.229789">
  <ele>1583.0</ele>
  <time>2026-08-28T17:54:25Z</time>
  <course>0.0</course>
  <speed>0.0</speed>
  <fix>3d</fix>
</trkpt>
<trkpt lat="40.0713749" lon="-105.229789">
  <ele>1583.0</ele>
  <time>2026-08-28T17:54:25Z</time>
  <course>248.39</course>
  <speed>0.0</speed>
  <fix>3d</fix>
</trkpt>
<trkpt lat="40.0713749" lon="-105.229789">
  <ele>1583.0</ele>
  <time>2026-08-28T17:54:25Z</time>
  <course>0.0</course>
  <speed>0.0</speed>
  <fix>3d</fix>
</trkpt>
<trkpt lat="40.0713749" lon="-105.229789">
  <ele>1583.0</ele>
  <time>2026-08-28T17:54:25Z</time>
  <course>248.4</course>
  <speed>0.0</speed>
  <fix>3d</fix>
</trkpt>
<trkpt lat="40.0713749" lon="-105.229789">
  <ele>1583.0</ele>
  <time>2026-08-28T17:54:25Z</time>
  <course>0.0</course>
  <speed>0.0</speed>
  <fix>3d</fix>
</trkpt>
<trkpt lat="40.0713749" lon="-105.229789">
  <ele>1583.0</ele>
  <time>2026-08-28T17:54:25Z</time>
  <course>248.4</course>
  <speed>0.0</speed>
  <fix>3d</fix>
</trkpt>
<trkpt lat="40.0713749" lon="-105.229789">
  <ele>1583.0</ele>
  <time>2026-08-28T17:54:25Z</time>
  <course>0.0</course>
  <speed>0.0</speed>
  <fix>3d</fix>
</trkpt>
<trkpt lat="40.0713749" lon="-105.229789">
  <ele>1583.0</ele>
  <time>2026-08-28T17:54:25Z</time>
  <course>248.4</course>
  <speed>0.0</speed>
  <fix>3d</fix>
</trkpt>
<trkpt lat="40.0713749" lon="-105.229789">
  <ele>1583.0</ele>
  <time>2026-08-28T17:54:25Z</time>
  <course>0.0</course>
  <speed>0.0</speed>
  <fix>3d</fix>
</trkpt>
<trkpt lat="40.0713749" lon="-105.229789">
  <ele>1583.0</ele>
  <time>2026-08-28T17:54:25Z</time>
  <course>248.4</course>
  <speed>0.0</speed>
  <fix>3d</fix>
</trkpt>
<trkpt lat="40.0713749" lon="-105.229789">
  <ele>1583.0</ele>
  <time>2026-08-28T17:54:25Z</time>
  <course>0.0</course>
  <speed>0.0</speed>
  <fix>3d</fix>
</trkpt>
<trkpt lat="40.0713749" lon="-105.229789">
  <ele>1583.0</ele>
  <time>2026-08-28T17:54:25Z</time>
  <course>248.41</course>
  <speed>0.0</speed>
  <fix>3d</fix>
</trkpt>
<trkpt lat="40.0713749" lon="-105.229789">
  <ele>1583.0</ele>
  <time>2026-08-28T17:54:25Z</time>
  <course>0.0</course>
  <speed>0.0</speed>
  <fix>3d</fix>
</trkpt>
<trkpt lat="40.0713749" lon="-105.229789">
  <ele>1583.0</ele>
  <time>2026-08-28T17:54:25Z</time>
  <course>248.41</course>
  <speed>0.0</speed>
  <fix>3d</fix>
</trkpt>
<trkpt lat="40.0713749" lon="-105.229789">
  <ele>1583.0</ele>
  <time>2026-08-28T17:54:25Z</time>
  <course>0.0</course>
  <speed>0.0</speed>
  <fix>3d</fix>
</trkpt>
<trkpt lat="40.0713749" lon="-105.229789">
  <ele>1583.0</ele>
  <time>2026-08-28T17:54:25Z</time>
  <course>248.41</course>
  <speed>0.0</speed>
  <fix>3d</fix>
</trkpt>
<trkpt lat="40.0713749" lon="-105.229789">
  <ele>1583.0</ele>
  <time>2026-08-28T17:54:25Z</time>
  <course>0.0</course>
  <speed>0.0</speed>
  <fix>3d</fix>
</trkpt>
<trkpt lat="40.0713749" lon="-105.229789">
  <ele>1583.0</ele>
  <time>2026-08-28T17:54:25Z</time>
  <course>248.41</course>
  <speed>0.0</speed>
  <fix>3d</fix>
</trkpt>
<trkpt lat="40.0713749" lon="-105.229789">
  <ele>1583.0</ele>
  <time>2026-08-28T17:54:25Z</time>
  <course>0.0</course>
  <speed>0.0</speed>
  <fix>3d</fix>
</trkpt>
<trkpt lat="40.0713749" lon="-105.229789">
  <ele>1583.0</ele>
  <time>2026-08-28T17:54:25Z</time>
  <course>248.41</course>
  <speed>0.0</speed>
  <fix>3d</fix>
</trkpt>
<trkpt lat="40.0713749" lon="-105.229789">
  <ele>1583.0</ele>
  <time>2026-08-28T17:54:25Z</time>
  <course>0.0</course>
  <speed>0.0</speed>
  <fix>3d</fix>
</trkpt>
<trkpt lat="40.0713749" lon="-105.229789">
  <ele>1583.0</ele>
  <time>2026-08-28T17:54:25Z</time>
  <course>248.41</course>
  <speed>0.0</speed>
  <fix>3d</fix>
</trkpt>
<trkpt lat="40.0713749" lon="-105.229789">
  <ele>1583.0</ele>
  <time>2026-08-28T17:54:25Z</time>
  <course>0.0</course>
  <speed>0.0</speed>
  <fix>3d</fix>
</trkpt>
<trkpt lat="40.0713749" lon="-105.229789">
  <ele>1583.0</ele>
  <time>2026-08-28T17:54:25Z</time>
  <course>248.41</course>
  <speed>0.0</speed>
  <fix>3d</fix>
</trkpt>
<trkpt lat="40.0713749" lon="-105.229789">
  <ele>1583.0</ele>
  <time>2026-08-28T17:54:25Z</time>
  <course>0.0</course>
  <speed>0.0</speed>
  <fix>3d</fix>
</trkpt>
<trkpt lat="40.0713749" lon="-105.229789">
  <ele>1583.0</ele>
  <time>2026-08-28T17:54:25Z</time>
  <course>248.41</course>
  <speed>0.0</speed>
  <fix>3d</fix>
</trkpt>
<trkpt lat="40.0713749" lon="-105.229789">
  <ele>1583.0</ele>
  <time>2026-08-28T17:54:25Z</time>
  <course>0.0</course>
  <speed>0.0</speed>
  <fix>3d</fix>
</trkpt>
<trkpt lat="40.0713749" lon="-105.229789">
  <ele>1583.0</ele>
  <time>2026-08-28T17:54:25Z</time>
  <course>248.41</course>
  <speed>0.0</speed>
  <fix>3d</fix>
</trkpt>
<trkpt lat="40.0713749" lon="-105.229789">
  <ele>1583.0</ele>
  <time>2026-08-28T17:54:25Z</time>
  <course>0.0</course>
  <speed>0.0</speed>
  <fix>3d</fix>
</trkpt>
<trkpt lat="40.0713749" lon="-105.229789">
  <ele>1583.0</ele>
  <time>2026-08-28T17:54:25Z</time>
  <course>248.41</course>
  <speed>0.0</speed>
  <fix>3d</fix>
</trkpt>
<trkpt lat="40.0713749" lon="-105.229789">
  <ele>1583.0</ele>
  <time>2026-08-28T17:54:25Z</time>
  <course>0.0</course>
  <speed>0.0</speed>
  <fix>3d</fix>
</trkpt>
<trkpt lat="40.0713749" lon="-105.229789">
  <ele>1583.0</ele>
  <time>2026-08-28T17:54:25Z</time>
  <course>248.41</course>
  <speed>0.0</speed>
  <fix>3d</fix>
</trkpt>
<trkpt lat="40.0713749" lon="-105.229789">
  <ele>1583.0</ele>
  <time>2026-08-28T17:54:25Z</time>
  <course>0.0</course>
  <speed>0.0</speed>
  <fix>3d</fix>
</trkpt>
<trkpt lat="40.0713749" lon="-105.229789">
  <ele>1583.0</ele>
  <time>2026-08-28T17:54:25Z</time>
  <course>248.41</course>
  <speed>0.0</speed>
  <fix>3d</fix>
</trkpt>
<trkpt lat="40.0713749" lon="-105.229789">
  <ele>1583.0</ele>
  <time>2026-08-28T17:54:25Z</time>
  <course>0.0</course>
  <speed>0.0</speed>
  <fix>3d</fix>
</trkpt>
<trkpt lat="40.0713749" lon="-105.229789">
  <ele>1583.0</ele>
  <time>2026-08-28T17:54:25Z</time>
  <course>248.41</course>
  <speed>0.0</speed>
  <fix>3d</fix>
</trkpt>
<trkpt lat="40.0713749" lon="-105.229789">
  <ele>1583.0</ele>
  <time>2026-08-28T17:54:25Z</time>
  <course>0.0</course>
  <speed>0.0</speed>
  <fix>3d</fix>
</trkpt>
<trkpt lat="40.0713749" lon="-105.229789">
  <ele>1583.0</ele>
  <time>2026-08-28T17:54:25Z</time>
  <course>248.41</course>
  <speed>0.0</speed>
  <fix>3d</fix>
</trkpt>
<trkpt lat="40.0713749" lon="-105.229789">
  <ele>1583.0</ele>
  <time>2026-08-28T17:54:25Z</time>
  <course>0.0</course>
  <speed>0.0</speed>
  <fix>3d</fix>
</trkpt>
<trkpt lat="40.0713749" lon="-105.229789">
  <ele>1583.0</ele>
  <time>2026-08-28T17:54:25Z</time>
  <course>248.41</course>
  <speed>0.0</speed>
  <fix>3d</fix>
</trkpt>
<trkpt lat="40.0713749" lon="-105.229789">
  <ele>1583.0</ele>
  <time>2026-08-28T17:54:25Z</time>
  <course>0.0</course>
  <speed>0.0</speed>
  <fix>3d</fix>
</trkpt>
<trkpt lat="40.0713749" lon="-105.229789">
  <ele>1583.0</ele>
  <time>2026-08-28T17:54:25Z</time>
  <course>248.41</course>
  <speed>0.0</speed>
  <fix>3d</fix>
</trkpt>
<trkpt lat="40.0713749" lon="-105.229789">
  <ele>1583.0</ele>
  <time>2026-08-28T17:54:25Z</time>
  <course>0.0</course>
  <speed>0.0</speed>
  <fix>3d</fix>
</trkpt>
<trkpt lat="40.0713749" lon="-105.229789">
  <ele>1583.0</ele>
  <time>2026-08-28T17:54:25Z</time>
  <course>248.4</course>
  <speed>0.0</speed>
  <fix>3d</fix>
</trkpt>
<trkpt lat="40.0713749" lon="-105.229789">
  <ele>1583.0</ele>
  <time>2026-08-28T17:54:25Z</time>
  <course>0.0</course>
  <speed>0.0</speed>
  <fix>3d</fix>
</trkpt>
<trkpt lat="40.0713749" lon="-105.229789">
  <ele>1583.0</ele>
  <time>2026-08-28T17:54:25Z</time>
  <course>248.4</course>
  <speed>0.01</speed>
  <fix>3d</fix>
</trkpt>
<trkpt lat="40.0713749" lon="-105.229789">
  <ele>1583.0</ele>
  <time>2026-08-28T17:54:25Z</time>
  <course>0.0</course>
  <speed>0.0</speed>
  <fix>3d</fix>
</trkpt>
<trkpt lat="40.0713749" lon="-105.229789">
  <ele>1583.0</ele>
  <time>2026-08-28T17:54:25Z</time>
  <course>248.4</course>
  <speed>0.01</speed>
  <fix>3d</fix>
</trkpt>
<trkpt lat="40.0713749" lon="-105.229789">
  <ele>1583.0</ele>
  <time>2026-08-28T17:54:25Z</time>
  <course>0.0</course>
  <speed>0.0</speed>
  <fix>3d</fix>
</trkpt>
<trkpt lat="40.0713749" lon="-105.229789">
  <ele>1583.0</ele>
  <time>2026-08-28T17:54:25Z</time>
  <course>248.4</course>
  <speed>0.01</speed>
  <fix>3d</fix>
</trkpt>
<trkpt lat="40.0713749" lon="-105.229789">
  <ele>1583.0</ele>
  <time>2026-08-28T17:54:25Z</time>
  <course>0.0</course>
  <speed>0.0</speed>
  <fix>3d</fix>
</trkpt>
<trkpt lat="40.0713749" lon="-105.229789">
  <ele>1583.0</ele>
  <time>2026-08-28T17:54:25Z</time>
  <course>248.4</course>
  <speed>0.01</speed>
  <fix>3d</fix>
</trkpt>
<trkpt lat="40.0713749" lon="-105.229789">
  <ele>1583.0</ele>
  <time>2026-08-28T17:54:25Z</time>
  <course>0.0</course>
  <speed>0.0</speed>
  <fix>3d</fix>
</trkpt>
<trkpt lat="40.0713749" lon="-105.229789">
  <ele>1583.0</ele>
  <time>2026-08-28T17:54:25Z</time>
  <course>248.39</course>
  <speed>0.01</speed>
  <fix>3d</fix>
</trkpt>
<trkpt lat="40.0713749" lon="-105.229789">
  <ele>1583.0</ele>
  <time>2026-08-28T17:54:25Z</time>
  <course>0.0</course>
  <speed>0.0</speed>
  <fix>3d</fix>
</trkpt>
<trkpt lat="40.0713749" lon="-105.229789">
  <ele>1583.0</ele>
  <time>2026-08-28T17:54:25Z</time>
  <course>248.39</course>
  <speed>0.01</speed>
  <fix>3d</fix>
</trkpt>
<trkpt lat="40.0713749" lon="-105.229789">
  <ele>1583.0</ele>
  <time>2026-08-28T17:54:25Z</time>
  <course>0.0</course>
  <speed>0.0</speed>
  <fix>3d</fix>
</trkpt>
<trkpt lat="40.0713749" lon="-105.229789">
  <ele>1583.0</ele>
  <time>2026-08-28T17:54:25Z</time>
  <course>248.39</course>
  <speed>0.01</speed>
  <fix>3d</fix>
</trkpt>
<trkpt lat="40.0713749" lon="-105.229789">
  <ele>1583.0</ele>
  <time>2026-08-28T17:54:25Z</time>
  <course>0.0</course>
  <speed>0.0</speed>
  <fix>3d</fix>
</trkpt>
<trkpt lat="40.0713749" lon="-105.229789">
  <ele>1583.0</ele>
  <time>2026-08-28T17:54:25Z</time>
  <course>248.38</course>
  <speed>0.01</speed>
  <fix>3d</fix>
</trkpt>
<trkpt lat="40.0713749" lon="-105.229789">
  <ele>1583.0</ele>
  <time>2026-08-28T17:54:25Z</time>
  <course>0.0</course>
  <speed>0.0</speed>
  <fix>3d</fix>
</trkpt>
<trkpt lat="40.0713749" lon="-105.229789">
  <ele>1583.0</ele>
  <time>2026-08-28T17:54:25Z</time>
  <course>248.38</course>
  <speed>0.01</speed>
  <fix>3d</fix>
</trkpt>
<trkpt lat="40.0713749" lon="-105.229789">
  <ele>1583.0</ele>
  <time>2026-08-28T17:54:25Z</time>
  <course>0.0</course>
  <speed>0.0</speed>
  <fix>3d</fix>
</trkpt>
<trkpt lat="40.0713749" lon="-105.229789">
  <ele>1583.0</ele>
  <time>2026-08-28T17:54:25Z</time>
  <course>248.38</course>
  <speed>0.01</speed>
  <fix>3d</fix>
</trkpt>
<trkpt lat="40.0713749" lon="-105.229789">
  <ele>1583.0</ele>
  <time>2026-08-28T17:54:25Z</time>
  <course>0.0</course>
  <speed>0.0</speed>
  <fix>3d</fix>
</trkpt>
<trkpt lat="40.0713749" lon="-105.229789">
  <ele>1583.0</ele>
  <time>2026-08-28T17:54:25Z</time>
  <course>248.37</course>
  <speed>0.01</speed>
  <fix>3d</fix>
</trkpt>
<trkpt lat="40.0713749" lon="-105.229789">
  <ele>1583.0</ele>
  <time>2026-08-28T17:54:25Z</time>
  <course>0.0</course>
  <speed>0.0</speed>
  <fix>3d</fix>
</trkpt>
<trkpt lat="40.0713749" lon="-105.229789">
  <ele>1583.0</ele>
  <time>2026-08-28T17:54:25Z</time>
  <course>248.37</course>
  <speed>0.01</speed>
  <fix>3d</fix>
</trkpt>
<trkpt lat="40.0713749" lon="-105.229789">
  <ele>1583.0</ele>
  <time>2026-08-28T17:54:25Z</time>
  <course>0.0</course>
  <speed>0.0</speed>
  <fix>3d</fix>
</trkpt>
<trkpt lat="40.0713749" lon="-105.229789">
  <ele>1583.0</ele>
  <time>2026-08-28T17:54:25Z</time>
  <course>248.37</course>
  <speed>0.01</speed>
  <fix>3d</fix>
</trkpt>
<trkpt lat="40.0713749" lon="-105.229789">
  <ele>1583.0</ele>
  <time>2026-08-28T17:54:25Z</time>
  <course>0.0</course>
  <speed>0.0</speed>
  <fix>3d</fix>
</trkpt>
<trkpt lat="40.0713749" lon="-105.229789">
  <ele>1583.0</ele>
  <time>2026-08-28T17:54:25Z</time>
  <course>248.36</course>
  <speed>0.01</speed>
  <fix>3d</fix>
</trkpt>
<trkpt lat="40.0713749" lon="-105.229789">
  <ele>1583.0</ele>
  <time>2026-08-28T17:54:25Z</time>
  <course>0.0</course>
  <speed>0.0</speed>
  <fix>3d</fix>
</trkpt>
<trkpt lat="40.0713749" lon="-105.229789">
  <ele>1583.0</ele>
  <time>2026-08-28T17:54:25Z</time>
  <course>248.36</course>
  <speed>0.01</speed>
  <fix>3d</fix>
</trkpt>
<trkpt lat="40.0713749" lon="-105.229789">
  <ele>1583.0</ele>
  <time>2026-08-28T17:54:25Z</time>
  <course>0.0</course>
  <speed>0.0</speed>
  <fix>3d</fix>
</trkpt>
<trkpt lat="40.0713749" lon="-105.229789">
  <ele>1583.0</ele>
  <time>2026-08-28T17:54:25Z</time>
  <course>248.36</course>
  <speed>0.01</speed>
  <fix>3d</fix>
</trkpt>
<trkpt lat="40.0713749" lon="-105.229789">
  <ele>1583.0</ele>
  <time>2026-08-28T17:54:25Z</time>
  <course>0.0</course>
  <speed>0.0</speed>
  <fix>3d</fix>
</trkpt>
<trkpt lat="40.0713749" lon="-105.229789">
  <ele>1583.0</ele>
  <time>2026-08-28T17:54:25Z</time>
  <course>248.35</course>
  <speed>0.01</speed>
  <fix>3d</fix>
</trkpt>
<trkpt lat="40.0713749" lon="-105.229789">
  <ele>1583.0</ele>
  <time>2026-08-28T17:54:25Z</time>
  <course>0.0</course>
  <speed>0.0</speed>
  <fix>3d</fix>
</trkpt>
<trkpt lat="40.0713749" lon="-105.229789">
  <ele>1583.0</ele>
  <time>2026-08-28T17:54:25Z</time>
  <course>248.35</course>
  <speed>0.01</speed>
  <fix>3d</fix>
</trkpt>
<trkpt lat="40.0713749" lon="-105.229789">
  <ele>1583.0</ele>
  <time>2026-08-28T17:54:25Z</time>
  <course>0.0</course>
  <speed>0.0</speed>
  <fix>3d</fix>
</trkpt>
<trkpt lat="40.0713749" lon="-105.229789">
  <ele>1583.0</ele>
  <time>2026-08-28T17:54:25Z</time>
  <course>248.35</course>
  <speed>0.01</speed>
  <fix>3d</fix>
</trkpt>
<trkpt lat="40.0713749" lon="-105.229789">
  <ele>1583.0</ele>
  <time>2026-08-28T17:54:25Z</time>
  <course>0.0</course>
  <speed>0.0</speed>
  <fix>3d</fix>
</trkpt>
<trkpt lat="40.0713749" lon="-105.229789">
  <ele>1583.0</ele>
  <time>2026-08-28T17:54:25Z</time>
  <course>248.34</course>
  <speed>0.01</speed>
  <fix>3d</fix>
</trkpt>
<trkpt lat="40.0713749" lon="-105.229789">
  <ele>1583.0</ele>
  <time>2026-08-28T17:54:25Z</time>
  <course>0.0</course>
  <speed>0.0</speed>
  <fix>3d</fix>
</trkpt>
<trkpt lat="40.0713749" lon="-105.229789">
  <ele>1583.0</ele>
  <time>2026-08-28T17:54:25Z</time>
  <course>248.34</course>
  <speed>0.01</speed>
  <fix>3d</fix>
</trkpt>
<trkpt lat="40.0713749" lon="-105.229789">
  <ele>1583.0</ele>
  <time>2026-08-28T17:54:25Z</time>
  <course>0.0</course>
  <speed>0.0</speed>
  <fix>3d</fix>
</trkpt>
<trkpt lat="40.0713749" lon="-105.229789">
  <ele>1583.0</ele>
  <time>2026-08-28T17:54:25Z</time>
  <course>248.33</course>
  <speed>0.01</speed>
  <fix>3d</fix>
</trkpt>
<trkpt lat="40.0713749" lon="-105.229789">
  <ele>1583.0</ele>
  <time>2026-08-28T17:54:25Z</time>
  <course>0.0</course>
  <speed>0.0</speed>
  <fix>3d</fix>
</trkpt>
<trkpt lat="40.0713749" lon="-105.229789">
  <ele>1583.0</ele>
  <time>2026-08-28T17:54:25Z</time>
  <course>248.33</course>
  <speed>0.01</speed>
  <fix>3d</fix>
</trkpt>
<trkpt lat="40.0713749" lon="-105.229789">
  <ele>1583.0</ele>
  <time>2026-08-28T17:54:25Z</time>
  <course>0.0</course>
  <speed>0.0</speed>
  <fix>3d</fix>
</trkpt>
<trkpt lat="40.0713749" lon="-105.229789">
  <ele>1583.0</ele>
  <time>2026-08-28T17:54:25Z</time>
  <course>248.32</course>
  <speed>0.01</speed>
  <fix>3d</fix>
</trkpt>
<trkpt lat="40.0713749" lon="-105.229789">
  <ele>1583.0</ele>
  <time>2026-08-28T17:54:25Z</time>
  <course>0.0</course>
  <speed>0.0</speed>
  <fix>3d</fix>
</trkpt>
<trkpt lat="40.0713749" lon="-105.229789">
  <ele>1583.0</ele>
  <time>2026-08-28T17:54:25Z</time>
  <course>248.32</course>
  <speed>0.01</speed>
  <fix>3d</fix>
</trkpt>
<trkpt lat="40.0713749" lon="-105.229789">
  <ele>1583.0</ele>
  <time>2026-08-28T17:54:25Z</time>
  <course>0.0</course>
  <speed>0.0</speed>
  <fix>3d</fix>
</trkpt>
<trkpt lat="40.0713749" lon="-105.229789">
  <ele>1583.0</ele>
  <time>2026-08-28T17:54:25Z</time>
  <course>248.32</course>
  <speed>0.01</speed>
  <fix>3d</fix>
</trkpt>
<trkpt lat="40.0713749" lon="-105.229789">
  <ele>1583.0</ele>
  <time>2026-08-28T17:54:25Z</time>
  <course>0.0</course>
  <speed>0.0</speed>
  <fix>3d</fix>
</trkpt>
<trkpt lat="40.0713749" lon="-105.229789">
  <ele>1583.0</ele>
  <time>2026-08-28T17:54:25Z</time>
  <course>248.31</course>
  <speed>0.01</speed>
  <fix>3d</fix>
</trkpt>
<trkpt lat="40.0713749" lon="-105.229789">
  <ele>1583.0</ele>
  <time>2026-08-28T17:54:25Z</time>
  <course>0.0</course>
  <speed>0.0</speed>
  <fix>3d</fix>
</trkpt>
<trkpt lat="40.0713749" lon="-105.229789">
  <ele>1583.0</ele>
  <time>2026-08-28T17:54:25Z</time>
  <course>248.31</course>
  <speed>0.01</speed>
  <fix>3d</fix>
</trkpt>
<trkpt lat="40.0713749" lon="-105.229789">
  <ele>1583.0</ele>
  <time>2026-08-28T17:54:25Z</time>
  <course>0.0</course>
  <speed>0.0</speed>
  <fix>3d</fix>
</trkpt>
<trkpt lat="40.0713749" lon="-105.229789">
  <ele>1583.0</ele>
  <time>2026-08-28T17:54:25Z</time>
  <course>248.3</course>
  <speed>0.01</speed>
  <fix>3d</fix>
</trkpt>
<trkpt lat="40.0713749" lon="-105.229789">
  <ele>1583.0</ele>
  <time>2026-08-28T17:54:25Z</time>
  <course>0.0</course>
  <speed>0.0</speed>
  <fix>3d</fix>
</trkpt>
<trkpt lat="40.0713749" lon="-105.229789">
  <ele>1583.0</ele>
  <time>2026-08-28T17:54:25Z</time>
  <course>248.3</course>
  <speed>0.01</speed>
  <fix>3d</fix>
</trkpt>
<trkpt lat="40.0713749" lon="-105.229789">
  <ele>1583.0</ele>
  <time>2026-08-28T17:54:25Z</time>
  <course>0.0</course>
  <speed>0.0</speed>
  <fix>3d</fix>
</trkpt>
<trkpt lat="40.0713749" lon="-105.229789">
  <ele>1583.0</ele>
  <time>2026-08-28T17:54:25Z</time>
  <course>248.29</course>
  <speed>0.01</speed>
  <fix>3d</fix>
</trkpt>
<trkpt lat="40.0713749" lon="-105.229789">
  <ele>1583.0</ele>
  <time>2026-08-28T17:54:25Z</time>
  <course>0.0</course>
  <speed>0.0</speed>
  <fix>3d</fix>
</trkpt>
<trkpt lat="40.0713749" lon="-105.229789">
  <ele>1583.0</ele>
  <time>2026-08-28T17:54:25Z</time>
  <course>248.29</course>
  <speed>0.01</speed>
  <fix>3d</fix>
</trkpt>
<trkpt lat="40.0713749" lon="-105.229789">
  <ele>1583.0</ele>
  <time>2026-08-28T17:54:25Z</time>
  <course>0.0</course>
  <speed>0.0</speed>
  <fix>3d</fix>
</trkpt>
<trkpt lat="40.0713749" lon="-105.229789">
  <ele>1583.0</ele>
  <time>2026-08-28T17:54:25Z</time>
  <course>248.28</course>
  <speed>0.01</speed>
  <fix>3d</fix>
</trkpt>
<trkpt lat="40.0713749" lon="-105.229789">
  <ele>1583.0</ele>
  <time>2026-08-28T17:54:25Z</time>
  <course>0.0</course>
  <speed>0.0</speed>
  <fix>3d</fix>
</trkpt>
<trkpt lat="40.0713749" lon="-105.229789">
  <ele>1583.0</ele>
  <time>2026-08-28T17:54:25Z</time>
  <course>248.28</course>
  <speed>0.01</speed>
  <fix>3d</fix>
</trkpt>
<trkpt lat="40.0713749" lon="-105.229789">
  <ele>1583.0</ele>
  <time>2026-08-28T17:54:25Z</time>
  <course>0.0</course>
  <speed>0.0</speed>
  <fix>3d</fix>
</trkpt>
<trkpt lat="40.0713749" lon="-105.229789">
  <ele>1583.0</ele>
  <time>2026-08-28T17:54:25Z</time>
  <course>248.27</course>
  <speed>0.01</speed>
  <fix>3d</fix>
</trkpt>
<trkpt lat="40.0713749" lon="-105.229789">
  <ele>1583.0</ele>
  <time>2026-08-28T17:54:25Z</time>
  <course>0.0</course>
  <speed>0.0</speed>
  <fix>3d</fix>
</trkpt>
<trkpt lat="40.0713749" lon="-105.229789">
  <ele>1583.0</ele>
  <time>2026-08-28T17:54:25Z</time>
  <course>248.27</course>
  <speed>0.01</speed>
  <fix>3d</fix>
</trkpt>
<trkpt lat="40.0713749" lon="-105.229789">
  <ele>1583.0</ele>
  <time>2026-08-28T17:54:25Z</time>
  <course>0.0</course>
  <speed>0.0</speed>
  <fix>3d</fix>
</trkpt>
<trkpt lat="40.0713749" lon="-105.229789">
  <ele>1583.0</ele>
  <time>2026-08-28T17:54:25Z</time>
  <course>248.26</course>
  <speed>0.01</speed>
  <fix>3d</fix>
</trkpt>
<trkpt lat="40.0713749" lon="-105.229789">
  <ele>1583.0</ele>
  <time>2026-08-28T17:54:25Z</time>
  <course>0.0</course>
  <speed>0.0</speed>
  <fix>3d</fix>
</trkpt>
<trkpt lat="40.0713749" lon="-105.229789">
  <ele>1583.0</ele>
  <time>2026-08-28T17:54:25Z</time>
  <course>248.26</course>
  <speed>0.01</speed>
  <fix>3d</fix>
</trkpt>
<trkpt lat="40.0713749" lon="-105.229789">
  <ele>1583.0</ele>
  <time>2026-08-28T17:54:25Z</time>
  <course>0.0</course>
  <speed>0.0</speed>
  <fix>3d</fix>
</trkpt>
<trkpt lat="40.0713749" lon="-105.229789">
  <ele>1583.0</ele>
  <time>2026-08-28T17:54:25Z</time>
  <course>248.26</course>
  <speed>0.01</speed>
  <fix>3d</fix>
</trkpt>
<trkpt lat="40.0713749" lon="-105.229789">
  <ele>1583.0</ele>
  <time>2026-08-28T17:54:25Z</time>
  <course>0.0</course>
  <speed>0.0</speed>
  <fix>3d</fix>
</trkpt>
<trkpt lat="40.0713749" lon="-105.229789">
  <ele>1583.0</ele>
  <time>2026-08-28T17:54:25Z</time>
  <course>248.25</course>
  <speed>0.01</speed>
  <fix>3d</fix>
</trkpt>
<trkpt lat="40.0713749" lon="-105.229789">
  <ele>1583.0</ele>
  <time>2026-08-28T17:54:25Z</time>
  <course>0.0</course>
  <speed>0.0</speed>
  <fix>3d</fix>
</trkpt>
<trkpt lat="40.0713749" lon="-105.229789">
  <ele>1583.0</ele>
  <time>2026-08-28T17:54:25Z</time>
  <course>248.25</course>
  <speed>0.01</speed>
  <fix>3d</fix>
</trkpt>
<trkpt lat="40.0713749" lon="-105.229789">
  <ele>1583.0</ele>
  <time>2026-08-28T17:54:25Z</time>
  <course>0.0</course>
  <speed>0.0</speed>
  <fix>3d</fix>
</trkpt>
<trkpt lat="40.0713749" lon="-105.229789">
  <ele>1583.0</ele>
  <time>2026-08-28T17:54:25Z</time>
  <course>248.24</course>
  <speed>0.01</speed>
  <fix>3d</fix>
</trkpt>
<trkpt lat="40.0713749" lon="-105.229789">
  <ele>1583.0</ele>
  <time>2026-08-28T17:54:25Z</time>
  <course>0.0</course>
  <speed>0.0</speed>
  <fix>3d</fix>
</trkpt>
<trkpt lat="40.0713749" lon="-105.229789">
  <ele>1583.0</ele>
  <time>2026-08-28T17:54:25Z</time>
  <course>248.24</course>
  <speed>0.01</speed>
  <fix>3d</fix>
</trkpt>
<trkpt lat="40.0713749" lon="-105.229789">
  <ele>1583.0</ele>
  <time>2026-08-28T17:54:25Z</time>
  <course>0.0</course>
  <speed>0.0</speed>
  <fix>3d</fix>
</trkpt>
<trkpt lat="40.0713749" lon="-105.229789">
  <ele>1583.0</ele>
  <time>2026-08-28T17:54:25Z</time>
  <course>248.23</course>
  <speed>0.01</speed>
  <fix>3d</fix>
</trkpt>
<trkpt lat="40.0713749" lon="-105.229789">
  <ele>1583.0</ele>
  <time>2026-08-28T17:54:25Z</time>
  <course>0.0</course>
  <speed>0.0</speed>
  <fix>3d</fix>
</trkpt>
<trkpt lat="40.0713749" lon="-105.229789">
  <ele>1583.0</ele>
  <time>2026-08-28T17:54:25Z</time>
  <course>248.23</course>
  <speed>0.01</speed>
  <fix>3d</fix>
</trkpt>
<trkpt lat="40.0713749" lon="-105.229789">
  <ele>1583.0</ele>
  <time>2026-08-28T17:54:25Z</time>
  <course>0.0</course>
  <speed>0.0</speed>
  <fix>3d</fix>
</trkpt>
<trkpt lat="40.0713749" lon="-105.229789">
  <ele>1583.0</ele>
  <time>2026-08-28T17:54:25Z</time>
  <course>248.22</course>
  <speed>0.01</speed>
  <fix>3d</fix>
</trkpt>
<trkpt lat="40.0713749" lon="-105.229789">
  <ele>1583.0</ele>
  <time>2026-08-28T17:54:25Z</time>
  <course>0.0</course>
  <speed>0.0</speed>
  <fix>3d</fix>
</trkpt>
<trkpt lat="40.0713749" lon="-105.229789">
  <ele>1583.0</ele>
  <time>2026-08-28T17:54:25Z</time>
  <course>248.22</course>
  <speed>0.01</speed>
  <fix>3d</fix>
</trkpt>
<trkpt lat="40.0713749" lon="-105.229789">
  <ele>1583.0</ele>
  <time>2026-08-28T17:54:25Z</time>
  <course>0.0</course>
  <speed>0.0</speed>
  <fix>3d</fix>
</trkpt>
<trkpt lat="40.0713749" lon="-105.229789">
  <ele>1583.0</ele>
  <time>2026-08-28T17:54:25Z</time>
  <course>248.21</course>
  <speed>0.01</speed>
  <fix>3d</fix>
</trkpt>
<trkpt lat="40.0713749" lon="-105.229789">
  <ele>1583.0</ele>
  <time>2026-08-28T17:54:25Z</time>
  <course>0.0</course>
  <speed>0.0</speed>
  <fix>3d</fix>
</trkpt>
<trkpt lat="40.0713749" lon="-105.229789">
  <ele>1583.0</ele>
  <time>2026-08-28T17:54:25Z</time>
  <course>248.21</course>
  <speed>0.01</speed>
  <fix>3d</fix>
</trkpt>
<trkpt lat="40.0713749" lon="-105.229789">
  <ele>1583.0</ele>
  <time>2026-08-28T17:54:25Z</time>
  <course>0.0</course>
  <speed>0.0</speed>
  <fix>3d</fix>
</trkpt>
<trkpt lat="40.0713749" lon="-105.229789">
  <ele>1583.0</ele>
  <time>2026-08-28T17:54:25Z</time>
  <course>248.2</course>
  <speed>0.01</speed>
  <fix>3d</fix>
</trkpt>
<trkpt lat="40.0713749" lon="-105.229789">
  <ele>1583.0</ele>
  <time>2026-08-28T17:54:25Z</time>
  <course>0.0</course>
  <speed>0.0</speed>
  <fix>3d</fix>
</trkpt>
<trkpt lat="40.0713749" lon="-105.229789">
  <ele>1583.0</ele>
  <time>2026-08-28T17:54:25Z</time>
  <course>248.2</course>
  <speed>0.01</speed>
  <fix>3d</fix>
</trkpt>
<trkpt lat="40.0713749" lon="-105.229789">
  <ele>1583.0</ele>
  <time>2026-08-28T17:54:25Z</time>
  <course>0.0</course>
  <speed>0.0</speed>
  <fix>3d</fix>
</trkpt>
<trkpt lat="40.0713749" lon="-105.229789">
  <ele>1583.0</ele>
  <time>2026-08-28T17:54:25Z</time>
  <course>248.19</course>
  <speed>0.01</speed>
  <fix>3d</fix>
</trkpt>
<trkpt lat="40.0713749" lon="-105.229789">
  <ele>1583.0</ele>
  <time>2026-08-28T17:54:25Z</time>
  <course>0.0</course>
  <speed>0.0</speed>
  <fix>3d</fix>
</trkpt>
<trkpt lat="40.0713749" lon="-105.229789">
  <ele>1583.0</ele>
  <time>2026-08-28T17:54:25Z</time>
  <course>248.19</course>
  <speed>0.01</speed>
  <fix>3d</fix>
</trkpt>
<trkpt lat="40.0713749" lon="-105.229789">
  <ele>1583.0</ele>
  <time>2026-08-28T17:54:25Z</time>
  <course>0.0</course>
  <speed>0.0</speed>
  <fix>3d</fix>
</trkpt>
<trkpt lat="40.0713749" lon="-105.229789">
  <ele>1583.0</ele>
  <time>2026-08-28T17:54:25Z</time>
  <course>248.18</course>
  <speed>0.01</speed>
  <fix>3d</fix>
</trkpt>
<trkpt lat="40.0713749" lon="-105.229789">
  <ele>1583.0</ele>
  <time>2026-08-28T17:54:25Z</time>
  <course>0.0</course>
  <speed>0.0</speed>
  <fix>3d</fix>
</trkpt>
<trkpt lat="40.0713749" lon="-105.229789">
  <ele>1583.0</ele>
  <time>2026-08-28T17:54:25Z</time>
  <course>248.18</course>
  <speed>0.01</speed>
  <fix>3d</fix>
</trkpt>
<trkpt lat="40.0713749" lon="-105.229789">
  <ele>1583.0</ele>
  <time>2026-08-28T17:54:25Z</time>
  <course>0.0</course>
  <speed>0.0</speed>
  <fix>3d</fix>
</trkpt>
<trkpt lat="40.0713749" lon="-105.229789">
  <ele>1583.0</ele>
  <time>2026-08-28T17:54:25Z</time>
  <course>248.17</course>
  <speed>0.022360679774997897</speed>
  <fix>3d</fix>
</trkpt>
<trkpt lat="40.0713749" lon="-105.229789">
  <ele>1583.0</ele>
  <time>2026-08-28T17:54:25Z</time>
  <course>0.0</course>
  <speed>0.0</speed>
  <fix>3d</fix>
</trkpt>
<trkpt lat="40.0713749" lon="-105.229789">
  <ele>1583.0</ele>
  <time>2026-08-28T17:54:25Z</time>
  <course>248.17</course>
  <speed>0.022360679774997897</speed>
  <fix>3d</fix>
</trkpt>
<trkpt lat="40.0713749" lon="-105.229789">
  <ele>1583.0</ele>
  <time>2026-08-28T17:54:25Z</time>
  <course>0.0</course>
  <speed>0.0</speed>
  <fix>3d</fix>
</trkpt>
<trkpt lat="40.0713749" lon="-105.229789">
  <ele>1583.0</ele>
  <time>2026-08-28T17:54:25Z</time>
  <course>248.16</course>
  <speed>0.022360679774997897</speed>
  <fix>3d</fix>
</trkpt>
<trkpt lat="40.0713749" lon="-105.229789">
  <ele>1583.0</ele>
  <time>2026-08-28T17:54:25Z</time>
  <course>0.0</course>
  <speed>0.0</speed>
  <fix>3d</fix>
</trkpt>
<trkpt lat="40.0713749" lon="-105.229789">
  <ele>1583.0</ele>
  <time>2026-08-28T17:54:25Z</time>
  <course>248.16</course>
  <speed>0.022360679774997897</speed>
  <fix>3d</fix>
</trkpt>
<trkpt lat="40.0713749" lon="-105.229789">
  <ele>1583.0</ele>
  <time>2026-08-28T17:54:25Z</time>
  <course>0.0</course>
  <speed>0.0</speed>
  <fix>3d</fix>
</trkpt>
<trkpt lat="40.0713749" lon="-105.229789">
  <ele>1583.0</ele>
  <time>2026-08-28T17:54:25Z</time>
  <course>248.15</course>
  <speed>0.022360679774997897</speed>
  <fix>3d</fix>
</trkpt>
<trkpt lat="40.0713749" lon="-105.229789">
  <ele>1583.0</ele>
  <time>2026-08-28T17:54:25Z</time>
  <course>0.0</course>
  <speed>0.0</speed>
  <fix>3d</fix>
</trkpt>
<trkpt lat="40.0713749" lon="-105.229789">
  <ele>1583.0</ele>
  <time>2026-08-28T17:54:25Z</time>
  <course>248.15</course>
  <speed>0.022360679774997897</speed>
  <fix>3d</fix>
</trkpt>
<trkpt lat="40.0713749" lon="-105.229789">
  <ele>1583.0</ele>
  <time>2026-08-28T17:54:25Z</time>
  <course>0.0</course>
  <speed>0.0</speed>
  <fix>3d</fix>
</trkpt>
<trkpt lat="40.0713749" lon="-105.229789">
  <ele>1583.0</ele>
  <time>2026-08-28T17:54:25Z</time>
  <course>248.14</course>
  <speed>0.022360679774997897</speed>
  <fix>3d</fix>
</trkpt>
<trkpt lat="40.0713749" lon="-105.229789">
  <ele>1583.0</ele>
  <time>2026-08-28T17:54:25Z</time>
  <course>0.0</course>
  <speed>0.0</speed>
  <fix>3d</fix>
</trkpt>
<trkpt lat="40.0713749" lon="-105.229789">
  <ele>1583.0</ele>
  <time>2026-08-28T17:54:25Z</time>
  <course>248.14</course>
  <speed>0.022360679774997897</speed>
  <fix>3d</fix>
</trkpt>
<trkpt lat="40.0713749" lon="-105.229789">
  <ele>1583.0</ele>
  <time>2026-08-28T17:54:25Z</time>
  <course>0.0</course>
  <speed>0.0</speed>
  <fix>3d</fix>
</trkpt>
<trkpt lat="40.0713749" lon="-105.229789">
  <ele>1583.0</ele>
  <time>2026-08-28T17:54:25Z</time>
  <course>248.13</course>
  <speed>0.022360679774997897</speed>
  <fix>3d</fix>
</trkpt>
<trkpt lat="40.0713749" lon="-105.229789">
  <ele>1583.0</ele>
  <time>2026-08-28T17:54:25Z</time>
  <course>0.0</course>
  <speed>0.0</speed>
  <fix>3d</fix>
</trkpt>
<trkpt lat="40.0713749" lon="-105.229789">
  <ele>1583.0</ele>
  <time>2026-08-28T17:54:25Z</time>
  <course>248.13</course>
  <speed>0.022360679774997897</speed>
  <fix>3d</fix>
</trkpt>
<trkpt lat="40.0713749" lon="-105.229789">
  <ele>1583.0</ele>
  <time>2026-08-28T17:54:25Z</time>
  <course>0.0</course>
  <speed>0.0</speed>
  <fix>3d</fix>
</trkpt>
<trkpt lat="40.0713749" lon="-105.229789">
  <ele>1583.0</ele>
  <time>2026-08-28T17:54:25Z</time>
  <course>248.12</course>
  <speed>0.022360679774997897</speed>
  <fix>3d</fix>
</trkpt>
<trkpt lat="40.0713749" lon="-105.229789">
  <ele>1583.0</ele>
  <time>2026-08-28T17:54:25Z</time>
  <course>0.0</course>
  <speed>0.0</speed>
  <fix>3d</fix>
</trkpt>
<trkpt lat="40.0713749" lon="-105.229789">
  <ele>1583.0</ele>
  <time>2026-08-28T17:54:25Z</time>
  <course>248.12</course>
  <speed>0.022360679774997897</speed>
  <fix>3d</fix>
</trkpt>
<trkpt lat="40.0713749" lon="-105.229789">
  <ele>1583.0</ele>
  <time>2026-08-28T17:54:25Z</time>
  <course>0.0</course>
  <speed>0.0</speed>
  <fix>3d</fix>
</trkpt>
<trkpt lat="40.0713749" lon="-105.229789">
  <ele>1583.0</ele>
  <time>2026-08-28T17:54:25Z</time>
  <course>248.11</course>
  <speed>0.022360679774997897</speed>
  <fix>3d</fix>
</trkpt>
<trkpt lat="40.0713749" lon="-105.229789">
  <ele>1583.0</ele>
  <time>2026-08-28T17:54:25Z</time>
  <course>0.0</course>
  <speed>0.0</speed>
  <fix>3d</fix>
</trkpt>
<trkpt lat="40.0713749" lon="-105.229789">
  <ele>1583.0</ele>
  <time>2026-08-28T17:54:25Z</time>
  <course>248.11</course>
  <speed>0.022360679774997897</speed>
  <fix>3d</fix>
</trkpt>
<trkpt lat="40.0713749" lon="-105.229789">
  <ele>1583.0</ele>
  <time>2026-08-28T17:54:25Z</time>
  <course>0.0</course>
  <speed>0.0</speed>
  <fix>3d</fix>
</trkpt>
<trkpt lat="40.0713749" lon="-105.229789">
  <ele>1583.0</ele>
  <time>2026-08-28T17:54:25Z</time>
  <course>248.1</course>
  <speed>0.022360679774997897</speed>
  <fix>3d</fix>
</trkpt>
<trkpt lat="40.0713749" lon="-105.229789">
  <ele>1583.0</ele>
  <time>2026-08-28T17:54:25Z</time>
  <course>0.0</course>
  <speed>0.0</speed>
  <fix>3d</fix>
</trkpt>
<trkpt lat="40.0713749" lon="-105.229789">
  <ele>1583.0</ele>
  <time>2026-08-28T17:54:25Z</time>
  <course>248.1</course>
  <speed>0.022360679774997897</speed>
  <fix>3d</fix>
</trkpt>
<trkpt lat="40.0713749" lon="-105.229789">
  <ele>1583.0</ele>
  <time>2026-08-28T17:54:25Z</time>
  <course>0.0</course>
  <speed>0.0</speed>
  <fix>3d</fix>
</trkpt>
<trkpt lat="40.0713749" lon="-105.229789">
  <ele>1583.0</ele>
  <time>2026-08-28T17:54:25Z</time>
  <course>248.09</course>
  <speed>0.022360679774997897</speed>
  <fix>3d</fix>
</trkpt>
<trkpt lat="40.0713749" lon="-105.229789">
  <ele>1583.0</ele>
  <time>2026-08-28T17:54:25Z</time>
  <course>0.0</course>
  <speed>0.0</speed>
  <fix>3d</fix>
</trkpt>
<trkpt lat="40.0713749" lon="-105.229789">
  <ele>1583.0</ele>
  <time>2026-08-28T17:54:25Z</time>
  <course>248.09</course>
  <speed>0.022360679774997897</speed>
  <fix>3d</fix>
</trkpt>
<trkpt lat="40.0713749" lon="-105.229789">
  <ele>1583.0</ele>
  <time>2026-08-28T17:54:25Z</time>
  <course>0.0</course>
  <speed>0.0</speed>
  <fix>3d</fix>
</trkpt>
<trkpt lat="40.0713749" lon="-105.229789">
  <ele>1583.0</ele>
  <time>2026-08-28T17:54:25Z</time>
  <course>248.08</course>
  <speed>0.022360679774997897</speed>
  <fix>3d</fix>
</trkpt>
<trkpt lat="40.0713749" lon="-105.229789">
  <ele>1583.0</ele>
  <time>2026-08-28T17:54:25Z</time>
  <course>0.0</course>
  <speed>0.0</speed>
  <fix>3d</fix>
</trkpt>
<trkpt lat="40.0713749" lon="-105.229789">
  <ele>1583.0</ele>
  <time>2026-08-28T17:54:25Z</time>
  <course>248.08</course>
  <speed>0.022360679774997897</speed>
  <fix>3d</fix>
</trkpt>
<trkpt lat="40.0713749" lon="-105.229789">
  <ele>1583.0</ele>
  <time>2026-08-28T17:54:25Z</time>
  <course>0.0</course>
  <speed>0.0</speed>
  <fix>3d</fix>
</trkpt>
<trkpt lat="40.0713749" lon="-105.229789">
  <ele>1583.0</ele>
  <time>2026-08-28T17:54:25Z</time>
  <course>248.07</course>
  <speed>0.022360679774997897</speed>
  <fix>3d</fix>
</trkpt>
<trkpt lat="40.0713749" lon="-105.229789">
  <ele>1583.0</ele>
  <time>2026-08-28T17:54:25Z</time>
  <course>0.0</course>
  <speed>0.0</speed>
  <fix>3d</fix>
</trkpt>
<trkpt lat="40.0713749" lon="-105.229789">
  <ele>1583.0</ele>
  <time>2026-08-28T17:54:25Z</time>
  <course>248.07</course>
  <speed>0.022360679774997897</speed>
  <fix>3d</fix>
</trkpt>
<trkpt lat="40.0713749" lon="-105.229789">
  <ele>1583.0</ele>
  <time>2026-08-28T17:54:25Z</time>
  <course>0.0</course>
  <speed>0.0</speed>
  <fix>3d</fix>
</trkpt>
<trkpt lat="40.0713749" lon="-105.229789">
  <ele>1583.0</ele>
  <time>2026-08-28T17:54:25Z</time>
  <course>248.06</course>
  <speed>0.022360679774997897</speed>
  <fix>3d</fix>
</trkpt>
<trkpt lat="40.0713749" lon="-105.229789">
  <ele>1583.0</ele>
  <time>2026-08-28T17:54:25Z</time>
  <course>0.0</course>
  <speed>0.0</speed>
  <fix>3d</fix>
</trkpt>
<trkpt lat="40.0713749" lon="-105.229789">
  <ele>1583.0</ele>
  <time>2026-08-28T17:54:25Z</time>
  <course>248.06</course>
  <speed>0.022360679774997897</speed>
  <fix>3d</fix>
</trkpt>
<trkpt lat="40.0713749" lon="-105.229789">
  <ele>1583.0</ele>
  <time>2026-08-28T17:54:25Z</time>
  <course>0.0</course>
  <speed>0.0</speed>
  <fix>3d</fix>
</trkpt>
<trkpt lat="40.0713749" lon="-105.229789">
  <ele>1583.0</ele>
  <time>2026-08-28T17:54:25Z</time>
  <course>248.05</course>
  <speed>0.022360679774997897</speed>
  <fix>3d</fix>
</trkpt>
<trkpt lat="40.0713749" lon="-105.229789">
  <ele>1583.0</ele>
  <time>2026-08-28T17:54:25Z</time>
  <course>0.0</course>
  <speed>0.0</speed>
  <fix>3d</fix>
</trkpt>
<trkpt lat="40.0713749" lon="-105.229789">
  <ele>1583.0</ele>
  <time>2026-08-28T17:54:25Z</time>
  <course>248.05</course>
  <speed>0.022360679774997897</speed>
  <fix>3d</fix>
</trkpt>
<trkpt lat="40.0713749" lon="-105.229789">
  <ele>1583.0</ele>
  <time>2026-08-28T17:54:25Z</time>
  <course>0.0</course>
  <speed>0.0</speed>
  <fix>3d</fix>
</trkpt>
<trkpt lat="40.0713749" lon="-105.229789">
  <ele>1583.0</ele>
  <time>2026-08-28T17:54:25Z</time>
  <course>248.05</course>
  <speed>0.022360679774997897</speed>
  <fix>3d</fix>
</trkpt>
<trkpt lat="40.0713749" lon="-105.229789">
  <ele>1583.0</ele>
  <time>2026-08-28T17:54:25Z</time>
  <course>0.0</course>
  <speed>0.0</speed>
  <fix>3d</fix>
</trkpt>
<trkpt lat="40.0713749" lon="-105.229789">
  <ele>1583.0</ele>
  <time>2026-08-28T17:54:25Z</time>
  <course>248.04</course>
  <speed>0.022360679774997897</speed>
  <fix>3d</fix>
</trkpt>
<trkpt lat="40.0713749" lon="-105.229789">
  <ele>1583.0</ele>
  <time>2026-08-28T17:54:25Z</time>
  <course>0.0</course>
  <speed>0.0</speed>
  <fix>3d</fix>
</trkpt>
<trkpt lat="40.0713749" lon="-105.229789">
  <ele>1583.0</ele>
  <time>2026-08-28T17:54:25Z</time>
  <course>248.04</course>
  <speed>0.022360679774997897</speed>
  <fix>3d</fix>
</trkpt>
<trkpt lat="40.0713749" lon="-105.229789">
  <ele>1583.0</ele>
  <time>2026-08-28T17:54:25Z</time>
  <course>0.0</course>
  <speed>0.0</speed>
  <fix>3d</fix>
</trkpt>
<trkpt lat="40.0713749" lon="-105.229789">
  <ele>1583.0</ele>
  <time>2026-08-28T17:54:25Z</time>
  <course>248.03</course>
  <speed>0.022360679774997897</speed>
  <fix>3d</fix>
</trkpt>
<trkpt lat="40.0713749" lon="-105.229789">
  <ele>1583.0</ele>
  <time>2026-08-28T17:54:25Z</time>
  <course>0.0</course>
  <speed>0.0</speed>
  <fix>3d</fix>
</trkpt>
<trkpt lat="40.0713749" lon="-105.229789">
  <ele>1583.0</ele>
  <time>2026-08-28T17:54:25Z</time>
  <course>248.03</course>
  <speed>0.022360679774997897</speed>
  <fix>3d</fix>
</trkpt>
<trkpt lat="40.0713749" lon="-105.229789">
  <ele>1583.0</ele>
  <time>2026-08-28T17:54:25Z</time>
  <course>0.0</course>
  <speed>0.0</speed>
  <fix>3d</fix>
</trkpt>
<trkpt lat="40.0713749" lon="-105.229789">
  <ele>1583.0</ele>
  <time>2026-08-28T17:54:25Z</time>
  <course>248.02</course>
  <speed>0.022360679774997897</speed>
  <fix>3d</fix>
</trkpt>
<trkpt lat="40.0713749" lon="-105.229789">
  <ele>1583.0</ele>
  <time>2026-08-28T17:54:25Z</time>
  <course>0.0</course>
  <speed>0.0</speed>
  <fix>3d</fix>
</trkpt>
<trkpt lat="40.0713749" lon="-105.229789">
  <ele>1583.0</ele>
  <time>2026-08-28T17:54:25Z</time>
  <course>248.02</course>
  <speed>0.022360679774997897</speed>
  <fix>3d</fix>
</trkpt>
<trkpt lat="40.0713749" lon="-105.229789">
  <ele>1583.0</ele>
  <time>2026-08-28T17:54:25Z</time>
  <course>0.0</course>
  <speed>0.0</speed>
  <fix>3d</fix>
</trkpt>
<trkpt lat="40.0713749" lon="-105.229789">
  <ele>1583.0</ele>
  <time>2026-08-28T17:54:25Z</time>
  <course>248.01</course>
  <speed>0.022360679774997897</speed>
  <fix>3d</fix>
</trkpt>
<trkpt lat="40.0713749" lon="-105.229789">
  <ele>1583.0</ele>
  <time>2026-08-28T17:54:25Z</time>
  <course>0.0</course>
  <speed>0.0</speed>
  <fix>3d</fix>
</trkpt>
<trkpt lat="40.0713749" lon="-105.229789">
  <ele>1583.0</ele>
  <time>2026-08-28T17:54:25Z</time>
  <course>248.01</course>
  <speed>0.022360679774997897</speed>
  <fix>3d</fix>
</trkpt>
<trkpt lat="40.0713749" lon="-105.229789">
  <ele>1583.0</ele>
  <time>2026-08-28T17:54:25Z</time>
  <course>0.0</course>
  <speed>0.0</speed>
  <fix>3d</fix>
</trkpt>
<trkpt lat="40.0713749" lon="-105.229789">
  <ele>1583.0</ele>
  <time>2026-08-28T17:54:25Z</time>
  <course>248.0</course>
  <speed>0.022360679774997897</speed>
  <fix>3d</fix>
</trkpt>
<trkpt lat="40.0713749" lon="-105.229789">
  <ele>1583.0</ele>
  <time>2026-08-28T17:54:25Z</time>
  <course>0.0</course>
  <speed>0.0</speed>
  <fix>3d</fix>
</trkpt>
<trkpt lat="40.0713749" lon="-105.229789">
  <ele>1583.0</ele>
  <time>2026-08-28T17:54:25Z</time>
  <course>248.0</course>
  <speed>0.022360679774997897</speed>
  <fix>3d</fix>
</trkpt>
<trkpt lat="40.0713749" lon="-105.229789">
  <ele>1583.0</ele>
  <time>2026-08-28T17:54:25Z</time>
  <course>0.0</course>
  <speed>0.0</speed>
  <fix>3d</fix>
</trkpt>
<trkpt lat="40.0713749" lon="-105.229789">
  <ele>1583.0</ele>
  <time>2026-08-28T17:54:25Z</time>
  <course>247.99</course>
  <speed>0.022360679774997897</speed>
  <fix>3d</fix>
</trkpt>
<trkpt lat="40.0713749" lon="-105.229789">
  <ele>1583.0</ele>
  <time>2026-08-28T17:54:25Z</time>
  <course>0.0</course>
  <speed>0.0</speed>
  <fix>3d</fix>
</trkpt>
<trkpt lat="40.0713749" lon="-105.229789">
  <ele>1583.0</ele>
  <time>2026-08-28T17:54:25Z</time>
  <course>247.99</course>
  <speed>0.022360679774997897</speed>
  <fix>3d</fix>
</trkpt>
<trkpt lat="40.0713749" lon="-105.229789">
  <ele>1583.0</ele>
  <time>2026-08-28T17:54:25Z</time>
  <course>0.0</course>
  <speed>0.0</speed>
  <fix>3d</fix>
</trkpt>
<trkpt lat="40.0713749" lon="-105.229789">
  <ele>1583.0</ele>
  <time>2026-08-28T17:54:25Z</time>
  <course>247.99</course>
  <speed>0.022360679774997897</speed>
  <fix>3d</fix>
</trkpt>
<trkpt lat="40.0713749" lon="-105.229789">
  <ele>1583.0</ele>
  <time>2026-08-28T17:54:25Z</time>
  <course>0.0</course>
  <speed>0.0</speed>
  <fix>3d</fix>
</trkpt>
<trkpt lat="40.0713749" lon="-105.229789">
  <ele>1583.0</ele>
  <time>2026-08-28T17:54:25Z</time>
  <course>247.98</course>
  <speed>0.022360679774997897</speed>
  <fix>3d</fix>
</trkpt>
<trkpt lat="40.0713749" lon="-105.229789">
  <ele>1583.0</ele>
  <time>2026-08-28T17:54:25Z</time>
  <course>0.0</course>
  <speed>0.0</speed>
  <fix>3d</fix>
</trkpt>
<trkpt lat="40.0713749" lon="-105.229789">
  <ele>1583.0</ele>
  <time>2026-08-28T17:54:25Z</time>
  <course>247.98</course>
  <speed>0.022360679774997897</speed>
  <fix>3d</fix>
</trkpt>
<trkpt lat="40.0713749" lon="-105.229789">
  <ele>1583.0</ele>
  <time>2026-08-28T17:54:25Z</time>
  <course>0.0</course>
  <speed>0.0</speed>
  <fix>3d</fix>
</trkpt>
<trkpt lat="40.0713749" lon="-105.229789">
  <ele>1583.0</ele>
  <time>2026-08-28T17:54:25Z</time>
  <course>247.97</course>
  <speed>0.022360679774997897</speed>
  <fix>3d</fix>
</trkpt>
<trkpt lat="40.0713749" lon="-105.229789">
  <ele>1583.0</ele>
  <time>2026-08-28T17:54:25Z</time>
  <course>0.0</course>
  <speed>0.0</speed>
  <fix>3d</fix>
</trkpt>
<trkpt lat="40.0713749" lon="-105.229789">
  <ele>1583.0</ele>
  <time>2026-08-28T17:54:25Z</time>
  <course>247.97</course>
  <speed>0.022360679774997897</speed>
  <fix>3d</fix>
</trkpt>
<trkpt lat="40.0713749" lon="-105.229789">
  <ele>1583.0</ele>
  <time>2026-08-28T17:54:25Z</time>
  <course>0.0</course>
  <speed>0.0</speed>
  <fix>3d</fix>
</trkpt>
<trkpt lat="40.0713749" lon="-105.229789">
  <ele>1583.0</ele>
  <time>2026-08-28T17:54:25Z</time>
  <course>247.96</course>
  <speed>0.022360679774997897</speed>
  <fix>3d</fix>
</trkpt>
<trkpt lat="40.0713749" lon="-105.229789">
  <ele>1583.0</ele>
  <time>2026-08-28T17:54:25Z</time>
  <course>0.0</course>
  <speed>0.0</speed>
  <fix>3d</fix>
</trkpt>
<trkpt lat="40.0713749" lon="-105.229789">
  <ele>1583.0</ele>
  <time>2026-08-28T17:54:25Z</time>
  <course>247.96</course>
  <speed>0.022360679774997897</speed>
  <fix>3d</fix>
</trkpt>
<trkpt lat="40.0713749" lon="-105.229789">
  <ele>1583.0</ele>
  <time>2026-08-28T17:54:25Z</time>
  <course>0.0</course>
  <speed>0.0</speed>
  <fix>3d</fix>
</trkpt>
<trkpt lat="40.0713749" lon="-105.229789">
  <ele>1583.0</ele>
  <time>2026-08-28T17:54:25Z</time>
  <course>247.95</course>
  <speed>0.022360679774997897</speed>
  <fix>3d</fix>
</trkpt>
<trkpt lat="40.0713749" lon="-105.229789">
  <ele>1583.0</ele>
  <time>2026-08-28T17:54:25Z</time>
  <course>0.0</course>
  <speed>0.0</speed>
  <fix>3d</fix>
</trkpt>
<trkpt lat="40.0713749" lon="-105.229789">
  <ele>1583.0</ele>
  <time>2026-08-28T17:54:25Z</time>
  <course>247.95</course>
  <speed>0.022360679774997897</speed>
  <fix>3d</fix>
</trkpt>
<trkpt lat="40.0713749" lon="-105.229789">
  <ele>1583.0</ele>
  <time>2026-08-28T17:54:25Z</time>
  <course>0.0</course>
  <speed>0.0</speed>
  <fix>3d</fix>
</trkpt>
<trkpt lat="40.0713749" lon="-105.229789">
  <ele>1583.0</ele>
  <time>2026-08-28T17:54:25Z</time>
  <course>247.95</course>
  <speed>0.022360679774997897</speed>
  <fix>3d</fix>
</trkpt>
<trkpt lat="40.0713749" lon="-105.229789">
  <ele>1583.0</ele>
  <time>2026-08-28T17:54:25Z</time>
  <course>0.0</course>
  <speed>0.0</speed>
  <fix>3d</fix>
</trkpt>
<trkpt lat="40.0713749" lon="-105.229789">
  <ele>1583.0</ele>
  <time>2026-08-28T17:54:25Z</time>
  <course>247.94</course>
  <speed>0.022360679774997897</speed>
  <fix>3d</fix>
</trkpt>
<trkpt lat="40.0713749" lon="-105.229789">
  <ele>1583.0</ele>
  <time>2026-08-28T17:54:25Z</time>
  <course>0.0</course>
  <speed>0.0</speed>
  <fix>3d</fix>
</trkpt>
<trkpt lat="40.0713749" lon="-105.229789">
  <ele>1583.0</ele>
  <time>2026-08-28T17:54:25Z</time>
  <course>247.94</course>
  <speed>0.022360679774997897</speed>
  <fix>3d</fix>
</trkpt>
<trkpt lat="40.0713749" lon="-105.229789">
  <ele>1583.0</ele>
  <time>2026-08-28T17:54:25Z</time>
  <course>0.0</course>
  <speed>0.0</speed>
  <fix>3d</fix>
</trkpt>
<trkpt lat="40.0713749" lon="-105.229789">
  <ele>1583.0</ele>
  <time>2026-08-28T17:54:25Z</time>
  <course>247.93</course>
  <speed>0.022360679774997897</speed>
  <fix>3d</fix>
</trkpt>
<trkpt lat="40.0713749" lon="-105.229789">
  <ele>1583.0</ele>
  <time>2026-08-28T17:54:25Z</time>
  <course>0.0</course>
  <speed>0.0</speed>
  <fix>3d</fix>
</trkpt>
<trkpt lat="40.0713749" lon="-105.229789">
  <ele>1583.0</ele>
  <time>2026-08-28T17:54:25Z</time>
  <course>247.93</course>
  <speed>0.022360679774997897</speed>
  <fix>3d</fix>
</trkpt>
<trkpt lat="40.0713749" lon="-105.229789">
  <ele>1583.0</ele>
  <time>2026-08-28T17:54:25Z</time>
  <course>0.0</course>
  <speed>0.0</speed>
  <fix>3d</fix>
</trkpt>
<trkpt lat="40.0713749" lon="-105.229789">
  <ele>1583.0</ele>
  <time>2026-08-28T17:54:25Z</time>
  <course>247.92</course>
  <speed>0.022360679774997897</speed>
  <fix>3d</fix>
</trkpt>
<trkpt lat="40.0713749" lon="-105.229789">
  <ele>1583.0</ele>
  <time>2026-08-28T17:54:25Z</time>
  <course>0.0</course>
  <speed>0.0</speed>
  <fix>3d</fix>
</trkpt>
<trkpt lat="40.0713749" lon="-105.229789">
  <ele>1583.0</ele>
  <time>2026-08-28T17:54:25Z</time>
  <course>247.92</course>
  <speed>0.022360679774997897</speed>
  <fix>3d</fix>
</trkpt>
<trkpt lat="40.0713749" lon="-105.229789">
  <ele>1583.0</ele>
  <time>2026-08-28T17:54:25Z</time>
  <course>0.0</course>
  <speed>0.0</speed>
  <fix>3d</fix>
</trkpt>
<trkpt lat="40.0713749" lon="-105.229789">
  <ele>1583.0</ele>
  <time>2026-08-28T17:54:25Z</time>
  <course>247.92</course>
  <speed>0.022360679774997897</speed>
  <fix>3d</fix>
</trkpt>
<trkpt lat="40.0713749" lon="-105.229789">
  <ele>1583.0</ele>
  <time>2026-08-28T17:54:25Z</time>
  <course>0.0</course>
  <speed>0.0</speed>
  <fix>3d</fix>
</trkpt>
<trkpt lat="40.0713749" lon="-105.229789">
  <ele>1583.0</ele>
  <time>2026-08-28T17:54:25Z</time>
  <course>247.91</course>
  <speed>0.022360679774997897</speed>
  <fix>3d</fix>
</trkpt>
<trkpt lat="40.0713749" lon="-105.229789">
  <ele>1583.0</ele>
  <time>2026-08-28T17:54:25Z</time>
  <course>0.0</course>
  <speed>0.0</speed>
  <fix>3d</fix>
</trkpt>
<trkpt lat="40.0713749" lon="-105.229789">
  <ele>1583.0</ele>
  <time>2026-08-28T17:54:25Z</time>
  <course>247.91</course>
  <speed>0.022360679774997897</speed>
  <fix>3d</fix>
</trkpt>
<trkpt lat="40.0713749" lon="-105.229789">
  <ele>1583.0</ele>
  <time>2026-08-28T17:54:25Z</time>
  <course>0.0</course>
  <speed>0.0</speed>
  <fix>3d</fix>
</trkpt>
<trkpt lat="40.0713749" lon="-105.229789">
  <ele>1583.0</ele>
  <time>2026-08-28T17:54:25Z</time>
  <course>247.9</course>
  <speed>0.022360679774997897</speed>
  <fix>3d</fix>
</trkpt>
<trkpt lat="40.0713749" lon="-105.229789">
  <ele>1583.0</ele>
  <time>2026-08-28T17:54:25Z</time>
  <course>0.0</course>
  <speed>0.0</speed>
  <fix>3d</fix>
</trkpt>
<trkpt lat="40.0713749" lon="-105.229789">
  <ele>1583.0</ele>
  <time>2026-08-28T17:54:25Z</time>
  <course>247.9</course>
  <speed>0.022360679774997897</speed>
  <fix>3d</fix>
</trkpt>
<trkpt lat="40.0713749" lon="-105.229789">
  <ele>1583.0</ele>
  <time>2026-08-28T17:54:25Z</time>
  <course>0.0</course>
  <speed>0.0</speed>
  <fix>3d</fix>
</trkpt>
<trkpt lat="40.0713749" lon="-105.229789">
  <ele>1583.0</ele>
  <time>2026-08-28T17:54:25Z</time>
  <course>247.89</course>
  <speed>0.022360679774997897</speed>
  <fix>3d</fix>
</trkpt>
<trkpt lat="40.0713749" lon="-105.229789">
  <ele>1583.0</ele>
  <time>2026-08-28T17:54:25Z</time>
  <course>0.0</course>
  <speed>0.0</speed>
  <fix>3d</fix>
</trkpt>
<trkpt lat="40.0713749" lon="-105.229789">
  <ele>1583.0</ele>
  <time>2026-08-28T17:54:25Z</time>
  <course>247.89</course>
  <speed>0.022360679774997897</speed>
  <fix>3d</fix>
</trkpt>
<trkpt lat="40.0713749" lon="-105.229789">
  <ele>1583.0</ele>
  <time>2026-08-28T17:54:25Z</time>
  <course>0.0</course>
  <speed>0.0</speed>
  <fix>3d</fix>
</trkpt>
<trkpt lat="40.0713749" lon="-105.229789">
  <ele>1583.0</ele>
  <time>2026-08-28T17:54:25Z</time>
  <course>247.89</course>
  <speed>0.022360679774997897</speed>
  <fix>3d</fix>
</trkpt>
<trkpt lat="40.0713749" lon="-105.229789">
  <ele>1583.0</ele>
  <time>2026-08-28T17:54:25Z</time>
  <course>0.0</course>
  <speed>0.0</speed>
  <fix>3d</fix>
</trkpt>
<trkpt lat="40.0713749" lon="-105.229789">
  <ele>1583.0</ele>
  <time>2026-08-28T17:54:25Z</time>
  <course>247.88</course>
  <speed>0.0316227766016838</speed>
  <fix>3d</fix>
</trkpt>
<trkpt lat="40.0713749" lon="-105.229789">
  <ele>1583.0</ele>
  <time>2026-08-28T17:54:25Z</time>
  <course>0.0</course>
  <speed>0.0</speed>
  <fix>3d</fix>
</trkpt>
<trkpt lat="40.0713749" lon="-105.229789">
  <ele>1583.0</ele>
  <time>2026-08-28T17:54:25Z</time>
  <course>247.88</course>
  <speed>0.0316227766016838</speed>
  <fix>3d</fix>
</trkpt>
<trkpt lat="40.0713749" lon="-105.229789">
  <ele>1583.0</ele>
  <time>2026-08-28T17:54:25Z</time>
  <course>0.0</course>
  <speed>0.0</speed>
  <fix>3d</fix>
</trkpt>
<trkpt lat="40.0713749" lon="-105.229789">
  <ele>1583.0</ele>
  <time>2026-08-28T17:54:25Z</time>
  <course>247.87</course>
  <speed>0.0316227766016838</speed>
  <fix>3d</fix>
</trkpt>
<trkpt lat="40.0713749" lon="-105.229789">
  <ele>1583.0</ele>
  <time>2026-08-28T17:54:25Z</time>
  <course>0.0</course>
  <speed>0.0</speed>
  <fix>3d</fix>
</trkpt>
<trkpt lat="40.0713749" lon="-105.229789">
  <ele>1583.0</ele>
  <time>2026-08-28T17:54:25Z</time>
  <course>247.87</course>
  <speed>0.0316227766016838</speed>
  <fix>3d</fix>
</trkpt>
<trkpt lat="40.0713749" lon="-105.229789">
  <ele>1583.0</ele>
  <time>2026-08-28T17:54:25Z</time>
  <course>0.0</course>
  <speed>0.0</speed>
  <fix>3d</fix>
</trkpt>
<trkpt lat="40.0713749" lon="-105.229789">
  <ele>1583.0</ele>
  <time>2026-08-28T17:54:25Z</time>
  <course>247.87</course>
  <speed>0.0316227766016838</speed>
  <fix>3d</fix>
</trkpt>
<trkpt lat="40.0713749" lon="-105.229789">
  <ele>1583.0</ele>
  <time>2026-08-28T17:54:25Z</time>
  <course>0.0</course>
  <speed>0.0</speed>
  <fix>3d</fix>
</trkpt>
<trkpt lat="40.0713749" lon="-105.229789">
  <ele>1583.0</ele>
  <time>2026-08-28T17:54:25Z</time>
  <course>247.86</course>
  <speed>0.0316227766016838</speed>
  <fix>3d</fix>
</trkpt>
<trkpt lat="40.0713749" lon="-105.229789">
  <ele>1583.0</ele>
  <time>2026-08-28T17:54:25Z</time>
  <course>0.0</course>
  <speed>0.0</speed>
  <fix>3d</fix>
</trkpt>
<trkpt lat="40.0713749" lon="-105.229789">
  <ele>1583.0</ele>
  <time>2026-08-28T17:54:25Z</time>
  <course>247.86</course>
  <speed>0.0316227766016838</speed>
  <fix>3d</fix>
</trkpt>
<trkpt lat="40.0713749" lon="-105.229789">
  <ele>1583.0</ele>
  <time>2026-08-28T17:54:25Z</time>
  <course>0.0</course>
  <speed>0.0</speed>
  <fix>3d</fix>
</trkpt>
<trkpt lat="40.0713749" lon="-105.229789">
  <ele>1583.0</ele>
  <time>2026-08-28T17:54:25Z</time>
  <course>247.85</course>
  <speed>0.0316227766016838</speed>
  <fix>3d</fix>
</trkpt>
<trkpt lat="40.0713749" lon="-105.229789">
  <ele>1583.0</ele>
  <time>2026-08-28T17:54:25Z</time>
  <course>0.0</course>
  <speed>0.0</speed>
  <fix>3d</fix>
</trkpt>
<trkpt lat="40.0713749" lon="-105.229789">
  <ele>1583.0</ele>
  <time>2026-08-28T17:54:25Z</time>
  <course>247.85</course>
  <speed>0.0316227766016838</speed>
  <fix>3d</fix>
</trkpt>
<trkpt lat="40.0713749" lon="-105.229789">
  <ele>1583.0</ele>
  <time>2026-08-28T17:54:25Z</time>
  <course>0.0</course>
  <speed>0.0</speed>
  <fix>3d</fix>
</trkpt>
<trkpt lat="40.0713749" lon="-105.229789">
  <ele>1583.0</ele>
  <time>2026-08-28T17:54:25Z</time>
  <course>247.85</course>
  <speed>0.0316227766016838</speed>
  <fix>3d</fix>
</trkpt>
<trkpt lat="40.0713749" lon="-105.229789">
  <ele>1583.0</ele>
  <time>2026-08-28T17:54:25Z</time>
  <course>0.0</course>
  <speed>0.0</speed>
  <fix>3d</fix>
</trkpt>
<trkpt lat="40.0713749" lon="-105.229789">
  <ele>1583.0</ele>
  <time>2026-08-28T17:54:25Z</time>
  <course>247.84</course>
  <speed>0.0316227766016838</speed>
  <fix>3d</fix>
</trkpt>
<trkpt lat="40.0713749" lon="-105.229789">
  <ele>1583.0</ele>
  <time>2026-08-28T17:54:25Z</time>
  <course>0.0</course>
  <speed>0.0</speed>
  <fix>3d</fix>
</trkpt>
<trkpt lat="40.0713749" lon="-105.229789">
  <ele>1583.0</ele>
  <time>2026-08-28T17:54:25Z</time>
  <course>247.84</course>
  <speed>0.0316227766016838</speed>
  <fix>3d</fix>
</trkpt>
<trkpt lat="40.0713749" lon="-105.229789">
  <ele>1583.0</ele>
  <time>2026-08-28T17:54:25Z</time>
  <course>0.0</course>
  <speed>0.0</speed>
  <fix>3d</fix>
</trkpt>
<trkpt lat="40.0713749" lon="-105.229789">
  <ele>1583.0</ele>
  <time>2026-08-28T17:54:25Z</time>
  <course>247.83</course>
  <speed>0.0316227766016838</speed>
  <fix>3d</fix>
</trkpt>
<trkpt lat="40.0713749" lon="-105.229789">
  <ele>1583.0</ele>
  <time>2026-08-28T17:54:25Z</time>
  <course>0.0</course>
  <speed>0.0</speed>
  <fix>3d</fix>
</trkpt>
<trkpt lat="40.0713749" lon="-105.229789">
  <ele>1583.0</ele>
  <time>2026-08-28T17:54:25Z</time>
  <course>247.83</course>
  <speed>0.0316227766016838</speed>
  <fix>3d</fix>
</trkpt>
<trkpt lat="40.0713749" lon="-105.229789">
  <ele>1583.0</ele>
  <time>2026-08-28T17:54:25Z</time>
  <course>0.0</course>
  <speed>0.0</speed>
  <fix>3d</fix>
</trkpt>
<trkpt lat="40.0713749" lon="-105.229789">
  <ele>1583.0</ele>
  <time>2026-08-28T17:54:25Z</time>
  <course>247.83</course>
  <speed>0.0316227766016838</speed>
  <fix>3d</fix>
</trkpt>
<trkpt lat="40.0713749" lon="-105.229789">
  <ele>1583.0</ele>
  <time>2026-08-28T17:54:25Z</time>
  <course>0.0</course>
  <speed>0.0</speed>
  <fix>3d</fix>
</trkpt>
<trkpt lat="40.0713749" lon="-105.229789">
  <ele>1583.0</ele>
  <time>2026-08-28T17:54:25Z</time>
  <course>247.82</course>
  <speed>0.0316227766016838</speed>
  <fix>3d</fix>
</trkpt>
<trkpt lat="40.0713749" lon="-105.229789">
  <ele>1583.0</ele>
  <time>2026-08-28T17:54:25Z</time>
  <course>0.0</course>
  <speed>0.0</speed>
  <fix>3d</fix>
</trkpt>
<trkpt lat="40.0713749" lon="-105.229789">
  <ele>1583.0</ele>
  <time>2026-08-28T17:54:25Z</time>
  <course>247.82</course>
  <speed>0.0316227766016838</speed>
  <fix>3d</fix>
</trkpt>
<trkpt lat="40.0713749" lon="-105.229789">
  <ele>1583.0</ele>
  <time>2026-08-28T17:54:25Z</time>
  <course>0.0</course>
  <speed>0.0</speed>
  <fix>3d</fix>
</trkpt>
<trkpt lat="40.0713749" lon="-105.229789">
  <ele>1583.0</ele>
  <time>2026-08-28T17:54:25Z</time>
  <course>247.82</course>
  <speed>0.0316227766016838</speed>
  <fix>3d</fix>
</trkpt>
<trkpt lat="40.0713749" lon="-105.229789">
  <ele>1583.0</ele>
  <time>2026-08-28T17:54:25Z</time>
  <course>0.0</course>
  <speed>0.0</speed>
  <fix>3d</fix>
</trkpt>
<trkpt lat="40.0713749" lon="-105.229789">
  <ele>1583.0</ele>
  <time>2026-08-28T17:54:25Z</time>
  <course>247.81</course>
  <speed>0.0316227766016838</speed>
  <fix>3d</fix>
</trkpt>
<trkpt lat="40.0713749" lon="-105.229789">
  <ele>1583.0</ele>
  <time>2026-08-28T17:54:25Z</time>
  <course>0.0</course>
  <speed>0.0</speed>
  <fix>3d</fix>
</trkpt>
<trkpt lat="40.0713749" lon="-105.229789">
  <ele>1583.0</ele>
  <time>2026-08-28T17:54:25Z</time>
  <course>247.81</course>
  <speed>0.0316227766016838</speed>
  <fix>3d</fix>
</trkpt>
<trkpt lat="40.0713749" lon="-105.229789">
  <ele>1583.0</ele>
  <time>2026-08-28T17:54:25Z</time>
  <course>0.0</course>
  <speed>0.0</speed>
  <fix>3d</fix>
</trkpt>
<trkpt lat="40.0713749" lon="-105.229789">
  <ele>1583.0</ele>
  <time>2026-08-28T17:54:25Z</time>
  <course>247.8</course>
  <speed>0.0316227766016838</speed>
  <fix>3d</fix>
</trkpt>
<trkpt lat="40.0713749" lon="-105.229789">
  <ele>1583.0</ele>
  <time>2026-08-28T17:54:25Z</time>
  <course>0.0</course>
  <speed>0.0</speed>
  <fix>3d</fix>
</trkpt>
<trkpt lat="40.0713749" lon="-105.229789">
  <ele>1583.0</ele>
  <time>2026-08-28T17:54:25Z</time>
  <course>247.8</course>
  <speed>0.0316227766016838</speed>
  <fix>3d</fix>
</trkpt>
<trkpt lat="40.0713749" lon="-105.229789">
  <ele>1583.0</ele>
  <time>2026-08-28T17:54:25Z</time>
  <course>0.0</course>
  <speed>0.0</speed>
  <fix>3d</fix>
</trkpt>
<trkpt lat="40.0713749" lon="-105.229789">
  <ele>1583.0</ele>
  <time>2026-08-28T17:54:25Z</time>
  <course>247.8</course>
  <speed>0.0316227766016838</speed>
  <fix>3d</fix>
</trkpt>
<trkpt lat="40.0713749" lon="-105.229789">
  <ele>1583.0</ele>
  <time>2026-08-28T17:54:25Z</time>
  <course>0.0</course>
  <speed>0.0</speed>
  <fix>3d</fix>
</trkpt>
<trkpt lat="40.0713749" lon="-105.229789">
  <ele>1583.0</ele>
  <time>2026-08-28T17:54:25Z</time>
  <course>247.79</course>
  <speed>0.0316227766016838</speed>
  <fix>3d</fix>
</trkpt>
<trkpt lat="40.0713749" lon="-105.229789">
  <ele>1583.0</ele>
  <time>2026-08-28T17:54:25Z</time>
  <course>0.0</course>
  <speed>0.0</speed>
  <fix>3d</fix>
</trkpt>
<trkpt lat="40.0713749" lon="-105.229789">
  <ele>1583.0</ele>
  <time>2026-08-28T17:54:25Z</time>
  <course>247.79</course>
  <speed>0.0316227766016838</speed>
  <fix>3d</fix>
</trkpt>
<trkpt lat="40.0713749" lon="-105.229789">
  <ele>1583.0</ele>
  <time>2026-08-28T17:54:25Z</time>
  <course>0.0</course>
  <speed>0.0</speed>
  <fix>3d</fix>
</trkpt>
<trkpt lat="40.0713749" lon="-105.229789">
  <ele>1583.0</ele>
  <time>2026-08-28T17:54:25Z</time>
  <course>247.79</course>
  <speed>0.0316227766016838</speed>
  <fix>3d</fix>
</trkpt>
<trkpt lat="40.0713749" lon="-105.229789">
  <ele>1583.0</ele>
  <time>2026-08-28T17:54:25Z</time>
  <course>0.0</course>
  <speed>0.0</speed>
  <fix>3d</fix>
</trkpt>
<trkpt lat="40.0713749" lon="-105.229789">
  <ele>1583.0</ele>
  <time>2026-08-28T17:54:25Z</time>
  <course>247.78</course>
  <speed>0.0316227766016838</speed>
  <fix>3d</fix>
</trkpt>
<trkpt lat="40.0713749" lon="-105.229789">
  <ele>1583.0</ele>
  <time>2026-08-28T17:54:25Z</time>
  <course>0.0</course>
  <speed>0.0</speed>
  <fix>3d</fix>
</trkpt>
<trkpt lat="40.0713749" lon="-105.229789">
  <ele>1583.0</ele>
  <time>2026-08-28T17:54:25Z</time>
  <course>247.78</course>
  <speed>0.0316227766016838</speed>
  <fix>3d</fix>
</trkpt>
<trkpt lat="40.0713749" lon="-105.229789">
  <ele>1583.0</ele>
  <time>2026-08-28T17:54:25Z</time>
  <course>0.0</course>
  <speed>0.0</speed>
  <fix>3d</fix>
</trkpt>
<trkpt lat="40.0713749" lon="-105.229789">
  <ele>1583.0</ele>
  <time>2026-08-28T17:54:25Z</time>
  <course>247.78</course>
  <speed>0.0316227766016838</speed>
  <fix>3d</fix>
</trkpt>
<trkpt lat="40.0713749" lon="-105.229789">
  <ele>1583.0</ele>
  <time>2026-08-28T17:54:25Z</time>
  <course>0.0</course>
  <speed>0.0</speed>
  <fix>3d</fix>
</trkpt>
<trkpt lat="40.0713749" lon="-105.229789">
  <ele>1583.0</ele>
  <time>2026-08-28T17:54:25Z</time>
  <course>247.77</course>
  <speed>0.0316227766016838</speed>
  <fix>3d</fix>
</trkpt>
<trkpt lat="40.0713749" lon="-105.229789">
  <ele>1583.0</ele>
  <time>2026-08-28T17:54:25Z</time>
  <course>0.0</course>
  <speed>0.0</speed>
  <fix>3d</fix>
</trkpt>
<trkpt lat="40.0713749" lon="-105.229789">
  <ele>1583.0</ele>
  <time>2026-08-28T17:54:25Z</time>
  <course>247.77</course>
  <speed>0.0316227766016838</speed>
  <fix>3d</fix>
</trkpt>
<trkpt lat="40.0713749" lon="-105.229789">
  <ele>1583.0</ele>
  <time>2026-08-28T17:54:25Z</time>
  <course>0.0</course>
  <speed>0.0</speed>
  <fix>3d</fix>
</trkpt>
<trkpt lat="40.0713749" lon="-105.229789">
  <ele>1583.0</ele>
  <time>2026-08-28T17:54:25Z</time>
  <course>247.76</course>
  <speed>0.0316227766016838</speed>
  <fix>3d</fix>
</trkpt>
<trkpt lat="40.0713749" lon="-105.229789">
  <ele>1583.0</ele>
  <time>2026-08-28T17:54:25Z</time>
  <course>0.0</course>
  <speed>0.0</speed>
  <fix>3d</fix>
</trkpt>
<trkpt lat="40.0713749" lon="-105.229789">
  <ele>1583.0</ele>
  <time>2026-08-28T17:54:26Z</time>
  <course>247.76</course>
  <speed>0.0316227766016838</speed>
  <fix>3d</fix>
</trkpt>
<trkpt lat="40.0713749" lon="-105.229789">
  <ele>1583.0</ele>
  <time>2026-08-28T17:54:26Z</time>
  <course>0.0</course>
  <speed>0.0</speed>
  <fix>3d</fix>
</trkpt>
<trkpt lat="40.0713749" lon="-105.229789">
  <ele>1583.0</ele>
  <time>2026-08-28T17:54:26Z</time>
  <course>247.76</course>
  <speed>0.0316227766016838</speed>
  <fix>3d</fix>
</trkpt>
<trkpt lat="40.0713749" lon="-105.229789">
  <ele>1583.0</ele>
  <time>2026-08-28T17:54:26Z</time>
  <course>0.0</course>
  <speed>0.0</speed>
  <fix>3d</fix>
</trkpt>
<trkpt lat="40.0713749" lon="-105.229789">
  <ele>1583.0</ele>
  <time>2026-08-28T17:54:26Z</time>
  <course>247.75</course>
  <speed>0.0316227766016838</speed>
  <fix>3d</fix>
</trkpt>
<trkpt lat="40.0713749" lon="-105.229789">
  <ele>1583.0</ele>
  <time>2026-08-28T17:54:26Z</time>
  <course>0.0</course>
  <speed>0.0</speed>
  <fix>3d</fix>
</trkpt>
<trkpt lat="40.0713749" lon="-105.229789">
  <ele>1583.0</ele>
  <time>2026-08-28T17:54:26Z</time>
  <course>247.75</course>
  <speed>0.0316227766016838</speed>
  <fix>3d</fix>
</trkpt>
<trkpt lat="40.0713749" lon="-105.229789">
  <ele>1583.0</ele>
  <time>2026-08-28T17:54:26Z</time>
  <course>0.0</course>
  <speed>0.0</speed>
  <fix>3d</fix>
</trkpt>
<trkpt lat="40.0713749" lon="-105.229789">
  <ele>1583.0</ele>
  <time>2026-08-28T17:54:26Z</time>
  <course>247.75</course>
  <speed>0.0316227766016838</speed>
  <fix>3d</fix>
</trkpt>
<trkpt lat="40.0713749" lon="-105.229789">
  <ele>1583.0</ele>
  <time>2026-08-28T17:54:26Z</time>
  <course>0.0</course>
  <speed>0.0</speed>
  <fix>3d</fix>
</trkpt>
<trkpt lat="40.0713749" lon="-105.229789">
  <ele>1583.0</ele>
  <time>2026-08-28T17:54:26Z</time>
  <course>247.74</course>
  <speed>0.0316227766016838</speed>
  <fix>3d</fix>
</trkpt>
<trkpt lat="40.0713749" lon="-105.229789">
  <ele>1583.0</ele>
  <time>2026-08-28T17:54:26Z</time>
  <course>0.0</course>
  <speed>0.0</speed>
  <fix>3d</fix>
</trkpt>
<trkpt lat="40.0713749" lon="-105.229789">
  <ele>1583.0</ele>
  <time>2026-08-28T17:54:26Z</time>
  <course>247.74</course>
  <speed>0.0316227766016838</speed>
  <fix>3d</fix>
</trkpt>
<trkpt lat="40.0713749" lon="-105.229789">
  <ele>1583.0</ele>
  <time>2026-08-28T17:54:26Z</time>
  <course>0.0</course>
  <speed>0.0</speed>
  <fix>3d</fix>
</trkpt>
<trkpt lat="40.0713749" lon="-105.229789">
  <ele>1583.0</ele>
  <time>2026-08-28T17:54:26Z</time>
  <course>247.74</course>
  <speed>0.0316227766016838</speed>
  <fix>3d</fix>
</trkpt>
<trkpt lat="40.0713749" lon="-105.229789">
  <ele>1583.0</ele>
  <time>2026-08-28T17:54:26Z</time>
  <course>0.0</course>
  <speed>0.0</speed>
  <fix>3d</fix>
</trkpt>
<trkpt lat="40.0713749" lon="-105.229789">
  <ele>1583.0</ele>
  <time>2026-08-28T17:54:26Z</time>
  <course>247.73</course>
  <speed>0.0316227766016838</speed>
  <fix>3d</fix>
</trkpt>
<trkpt lat="40.0713749" lon="-105.229789">
  <ele>1583.0</ele>
  <time>2026-08-28T17:54:26Z</time>
  <course>0.0</course>
  <speed>0.0</speed>
  <fix>3d</fix>
</trkpt>
<trkpt lat="40.0713749" lon="-105.229789">
  <ele>1583.0</ele>
  <time>2026-08-28T17:54:26Z</time>
  <course>247.73</course>
  <speed>0.0316227766016838</speed>
  <fix>3d</fix>
</trkpt>
<trkpt lat="40.0713749" lon="-105.229789">
  <ele>1583.0</ele>
  <time>2026-08-28T17:54:26Z</time>
  <course>0.0</course>
  <speed>0.0</speed>
  <fix>3d</fix>
</trkpt>
<trkpt lat="40.0713749" lon="-105.229789">
  <ele>1583.0</ele>
  <time>2026-08-28T17:54:26Z</time>
  <course>247.73</course>
  <speed>0.0316227766016838</speed>
  <fix>3d</fix>
</trkpt>
<trkpt lat="40.0713749" lon="-105.229789">
  <ele>1583.0</ele>
  <time>2026-08-28T17:54:26Z</time>
  <course>0.0</course>
  <speed>0.0</speed>
  <fix>3d</fix>
</trkpt>
<trkpt lat="40.0713749" lon="-105.229789">
  <ele>1583.0</ele>
  <time>2026-08-28T17:54:26Z</time>
  <course>247.72</course>
  <speed>0.0316227766016838</speed>
  <fix>3d</fix>
</trkpt>
<trkpt lat="40.0713749" lon="-105.229789">
  <ele>1583.0</ele>
  <time>2026-08-28T17:54:26Z</time>
  <course>0.0</course>
  <speed>0.0</speed>
  <fix>3d</fix>
</trkpt>
<trkpt lat="40.0713749" lon="-105.229789">
  <ele>1583.0</ele>
  <time>2026-08-28T17:54:26Z</time>
  <course>247.72</course>
  <speed>0.0316227766016838</speed>
  <fix>3d</fix>
</trkpt>
<trkpt lat="40.0713749" lon="-105.229789">
  <ele>1583.0</ele>
  <time>2026-08-28T17:54:26Z</time>
  <course>0.0</course>
  <speed>0.0</speed>
  <fix>3d</fix>
</trkpt>
<trkpt lat="40.0713749" lon="-105.229789">
  <ele>1583.0</ele>
  <time>2026-08-28T17:54:26Z</time>
  <course>247.72</course>
  <speed>0.0316227766016838</speed>
  <fix>3d</fix>
</trkpt>
<trkpt lat="40.0713749" lon="-105.229789">
  <ele>1583.0</ele>
  <time>2026-08-28T17:54:26Z</time>
  <course>0.0</course>
  <speed>0.0</speed>
  <fix>3d</fix>
</trkpt>
<trkpt lat="40.0713749" lon="-105.229789">
  <ele>1583.0</ele>
  <time>2026-08-28T17:54:26Z</time>
  <course>247.71</course>
  <speed>0.0316227766016838</speed>
  <fix>3d</fix>
</trkpt>
<trkpt lat="40.0713749" lon="-105.229789">
  <ele>1583.0</ele>
  <time>2026-08-28T17:54:26Z</time>
  <course>0.0</course>
  <speed>0.0</speed>
  <fix>3d</fix>
</trkpt>
<trkpt lat="40.0713749" lon="-105.229789">
  <ele>1583.0</ele>
  <time>2026-08-28T17:54:26Z</time>
  <course>247.71</course>
  <speed>0.0316227766016838</speed>
  <fix>3d</fix>
</trkpt>
<trkpt lat="40.0713749" lon="-105.229789">
  <ele>1583.0</ele>
  <time>2026-08-28T17:54:26Z</time>
  <course>0.0</course>
  <speed>0.0</speed>
  <fix>3d</fix>
</trkpt>
<trkpt lat="40.0713749" lon="-105.229789">
  <ele>1583.0</ele>
  <time>2026-08-28T17:54:26Z</time>
  <course>247.71</course>
  <speed>0.0316227766016838</speed>
  <fix>3d</fix>
</trkpt>
<trkpt lat="40.0713749" lon="-105.229789">
  <ele>1583.0</ele>
  <time>2026-08-28T17:54:26Z</time>
  <course>0.0</course>
  <speed>0.0</speed>
  <fix>3d</fix>
</trkpt>
<trkpt lat="40.0713749" lon="-105.229789">
  <ele>1583.0</ele>
  <time>2026-08-28T17:54:26Z</time>
  <course>247.7</course>
  <speed>0.0316227766016838</speed>
  <fix>3d</fix>
</trkpt>
<trkpt lat="40.0713749" lon="-105.229789">
  <ele>1583.0</ele>
  <time>2026-08-28T17:54:26Z</time>
  <course>0.0</course>
  <speed>0.0</speed>
  <fix>3d</fix>
</trkpt>
<trkpt lat="40.0713749" lon="-105.229789">
  <ele>1583.0</ele>
  <time>2026-08-28T17:54:26Z</time>
  <course>247.7</course>
  <speed>0.0316227766016838</speed>
  <fix>3d</fix>
</trkpt>
<trkpt lat="40.0713749" lon="-105.229789">
  <ele>1583.0</ele>
  <time>2026-08-28T17:54:26Z</time>
  <course>0.0</course>
  <speed>0.0</speed>
  <fix>3d</fix>
</trkpt>
<trkpt lat="40.0713749" lon="-105.229789">
  <ele>1583.0</ele>
  <time>2026-08-28T17:54:26Z</time>
  <course>247.7</course>
  <speed>0.0316227766016838</speed>
  <fix>3d</fix>
</trkpt>
<trkpt lat="40.0713749" lon="-105.229789">
  <ele>1583.0</ele>
  <time>2026-08-28T17:54:26Z</time>
  <course>0.0</course>
  <speed>0.0</speed>
  <fix>3d</fix>
</trkpt>
<trkpt lat="40.0713749" lon="-105.229789">
  <ele>1583.0</ele>
  <time>2026-08-28T17:54:26Z</time>
  <course>247.69</course>
  <speed>0.0316227766016838</speed>
  <fix>3d</fix>
</trkpt>
<trkpt lat="40.0713749" lon="-105.229789">
  <ele>1583.0</ele>
  <time>2026-08-28T17:54:26Z</time>
  <course>0.0</course>
  <speed>0.0</speed>
  <fix>3d</fix>
</trkpt>
<trkpt lat="40.0713749" lon="-105.229789">
  <ele>1583.0</ele>
  <time>2026-08-28T17:54:26Z</time>
  <course>247.69</course>
  <speed>0.0316227766016838</speed>
  <fix>3d</fix>
</trkpt>
<trkpt lat="40.0713749" lon="-105.229789">
  <ele>1583.0</ele>
  <time>2026-08-28T17:54:26Z</time>
  <course>0.0</course>
  <speed>0.0</speed>
  <fix>3d</fix>
</trkpt>
<trkpt lat="40.0713749" lon="-105.229789">
  <ele>1583.0</ele>
  <time>2026-08-28T17:54:26Z</time>
  <course>247.69</course>
  <speed>0.0316227766016838</speed>
  <fix>3d</fix>
</trkpt>
<trkpt lat="40.0713749" lon="-105.229789">
  <ele>1583.0</ele>
  <time>2026-08-28T17:54:26Z</time>
  <course>0.0</course>
  <speed>0.0</speed>
  <fix>3d</fix>
</trkpt>
<trkpt lat="40.0713749" lon="-105.229789">
  <ele>1583.0</ele>
  <time>2026-08-28T17:54:26Z</time>
  <course>247.68</course>
  <speed>0.0316227766016838</speed>
  <fix>3d</fix>
</trkpt>
<trkpt lat="40.0713749" lon="-105.229789">
  <ele>1583.0</ele>
  <time>2026-08-28T17:54:26Z</time>
  <course>0.0</course>
  <speed>0.0</speed>
  <fix>3d</fix>
</trkpt>
<trkpt lat="40.0713749" lon="-105.229789">
  <ele>1583.0</ele>
  <time>2026-08-28T17:54:26Z</time>
  <course>247.68</course>
  <speed>0.0316227766016838</speed>
  <fix>3d</fix>
</trkpt>
<trkpt lat="40.0713749" lon="-105.229789">
  <ele>1583.0</ele>
  <time>2026-08-28T17:54:26Z</time>
  <course>0.0</course>
  <speed>0.0</speed>
  <fix>3d</fix>
</trkpt>
<trkpt lat="40.0713749" lon="-105.229789">
  <ele>1583.0</ele>
  <time>2026-08-28T17:54:26Z</time>
  <course>247.68</course>
  <speed>0.0316227766016838</speed>
  <fix>3d</fix>
</trkpt>
<trkpt lat="40.0713749" lon="-105.229789">
  <ele>1583.0</ele>
  <time>2026-08-28T17:54:26Z</time>
  <course>0.0</course>
  <speed>0.0</speed>
  <fix>3d</fix>
</trkpt>
<trkpt lat="40.0713749" lon="-105.229789">
  <ele>1583.0</ele>
  <time>2026-08-28T17:54:26Z</time>
  <course>247.67</course>
  <speed>0.0316227766016838</speed>
  <fix>3d</fix>
</trkpt>
<trkpt lat="40.0713749" lon="-105.229789">
  <ele>1583.0</ele>
  <time>2026-08-28T17:54:26Z</time>
  <course>0.0</course>
  <speed>0.0</speed>
  <fix>3d</fix>
</trkpt>
<trkpt lat="40.0713749" lon="-105.229789">
  <ele>1583.0</ele>
  <time>2026-08-28T17:54:26Z</time>
  <course>247.67</course>
  <speed>0.0316227766016838</speed>
  <fix>3d</fix>
</trkpt>
<trkpt lat="40.0713749" lon="-105.229789">
  <ele>1583.0</ele>
  <time>2026-08-28T17:54:26Z</time>
  <course>0.0</course>
  <speed>0.0</speed>
  <fix>3d</fix>
</trkpt>
<trkpt lat="40.0713749" lon="-105.229789">
  <ele>1583.0</ele>
  <time>2026-08-28T17:54:26Z</time>
  <course>247.67</course>
  <speed>0.0316227766016838</speed>
  <fix>3d</fix>
</trkpt>
<trkpt lat="40.0713749" lon="-105.229789">
  <ele>1583.0</ele>
  <time>2026-08-28T17:54:26Z</time>
  <course>0.0</course>
  <speed>0.0</speed>
  <fix>3d</fix>
</trkpt>
<trkpt lat="40.0713749" lon="-105.229789">
  <ele>1583.0</ele>
  <time>2026-08-28T17:54:26Z</time>
  <course>247.66</course>
  <speed>0.0316227766016838</speed>
  <fix>3d</fix>
</trkpt>
<trkpt lat="40.0713749" lon="-105.229789">
  <ele>1583.0</ele>
  <time>2026-08-28T17:54:26Z</time>
  <course>0.0</course>
  <speed>0.0</speed>
  <fix>3d</fix>
</trkpt>
<trkpt lat="40.0713749" lon="-105.229789">
  <ele>1583.0</ele>
  <time>2026-08-28T17:54:26Z</time>
  <course>247.66</course>
  <speed>0.0316227766016838</speed>
  <fix>3d</fix>
</trkpt>
<trkpt lat="40.0713749" lon="-105.229789">
  <ele>1583.0</ele>
  <time>2026-08-28T17:54:26Z</time>
  <course>0.0</course>
  <speed>0.0</speed>
  <fix>3d</fix>
</trkpt>
<trkpt lat="40.0713749" lon="-105.229789">
  <ele>1583.0</ele>
  <time>2026-08-28T17:54:26Z</time>
  <course>247.66</course>
  <speed>0.0316227766016838</speed>
  <fix>3d</fix>
</trkpt>
<trkpt lat="40.0713749" lon="-105.229789">
  <ele>1583.0</ele>
  <time>2026-08-28T17:54:26Z</time>
  <course>0.0</course>
  <speed>0.0</speed>
  <fix>3d</fix>
</trkpt>
<trkpt lat="40.0713749" lon="-105.229789">
  <ele>1583.0</ele>
  <time>2026-08-28T17:54:26Z</time>
  <course>247.65</course>
  <speed>0.0316227766016838</speed>
  <fix>3d</fix>
</trkpt>
<trkpt lat="40.0713749" lon="-105.229789">
  <ele>1583.0</ele>
  <time>2026-08-28T17:54:26Z</time>
  <course>0.0</course>
  <speed>0.0</speed>
  <fix>3d</fix>
</trkpt>
<trkpt lat="40.0713749" lon="-105.229789">
  <ele>1583.0</ele>
  <time>2026-08-28T17:54:26Z</time>
  <course>247.65</course>
  <speed>0.0316227766016838</speed>
  <fix>3d</fix>
</trkpt>
<trkpt lat="40.0713749" lon="-105.229789">
  <ele>1583.0</ele>
  <time>2026-08-28T17:54:26Z</time>
  <course>0.0</course>
  <speed>0.0</speed>
  <fix>3d</fix>
</trkpt>
<trkpt lat="40.0713749" lon="-105.229789">
  <ele>1583.0</ele>
  <time>2026-08-28T17:54:26Z</time>
  <course>247.65</course>
  <speed>0.0316227766016838</speed>
  <fix>3d</fix>
</trkpt>
<trkpt lat="40.0713749" lon="-105.229789">
  <ele>1583.0</ele>
  <time>2026-08-28T17:54:26Z</time>
  <course>0.0</course>
  <speed>0.0</speed>
  <fix>3d</fix>
</trkpt>
<trkpt lat="40.0713749" lon="-105.229789">
  <ele>1583.0</ele>
  <time>2026-08-28T17:54:26Z</time>
  <course>247.64</course>
  <speed>0.0316227766016838</speed>
  <fix>3d</fix>
</trkpt>
<trkpt lat="40.0713749" lon="-105.229789">
  <ele>1583.0</ele>
  <time>2026-08-28T17:54:26Z</time>
  <course>0.0</course>
  <speed>0.0</speed>
  <fix>3d</fix>
</trkpt>
<trkpt lat="40.0713749" lon="-105.229789">
  <ele>1583.0</ele>
  <time>2026-08-28T17:54:26Z</time>
  <course>247.64</course>
  <speed>0.0316227766016838</speed>
  <fix>3d</fix>
</trkpt>
<trkpt lat="40.0713749" lon="-105.229789">
  <ele>1583.0</ele>
  <time>2026-08-28T17:54:26Z</time>
  <course>0.0</course>
  <speed>0.0</speed>
  <fix>3d</fix>
</trkpt>
<trkpt lat="40.0713749" lon="-105.229789">
  <ele>1583.0</ele>
  <time>2026-08-28T17:54:26Z</time>
  <course>247.64</course>
  <speed>0.0316227766016838</speed>
  <fix>3d</fix>
</trkpt>
<trkpt lat="40.0713749" lon="-105.229789">
  <ele>1583.0</ele>
  <time>2026-08-28T17:54:26Z</time>
  <course>0.0</course>
  <speed>0.0</speed>
  <fix>3d</fix>
</trkpt>
<trkpt lat="40.0713749" lon="-105.229789">
  <ele>1583.0</ele>
  <time>2026-08-28T17:54:26Z</time>
  <course>247.64</course>
  <speed>0.0316227766016838</speed>
  <fix>3d</fix>
</trkpt>
<trkpt lat="40.0713749" lon="-105.229789">
  <ele>1583.0</ele>
  <time>2026-08-28T17:54:26Z</time>
  <course>0.0</course>
  <speed>0.0</speed>
  <fix>3d</fix>
</trkpt>
<trkpt lat="40.0713749" lon="-105.229789">
  <ele>1583.0</ele>
  <time>2026-08-28T17:54:26Z</time>
  <course>247.63</course>
  <speed>0.0316227766016838</speed>
  <fix>3d</fix>
</trkpt>
<trkpt lat="40.0713749" lon="-105.229789">
  <ele>1583.0</ele>
  <time>2026-08-28T17:54:26Z</time>
  <course>0.0</course>
  <speed>0.0</speed>
  <fix>3d</fix>
</trkpt>
<trkpt lat="40.0713749" lon="-105.229789">
  <ele>1583.0</ele>
  <time>2026-08-28T17:54:26Z</time>
  <course>247.63</course>
  <speed>0.0316227766016838</speed>
  <fix>3d</fix>
</trkpt>
<trkpt lat="40.0713749" lon="-105.229789">
  <ele>1583.0</ele>
  <time>2026-08-28T17:54:26Z</time>
  <course>0.0</course>
  <speed>0.0</speed>
  <fix>3d</fix>
</trkpt>
<trkpt lat="40.0713749" lon="-105.229789">
  <ele>1583.0</ele>
  <time>2026-08-28T17:54:26Z</time>
  <course>247.63</course>
  <speed>0.0316227766016838</speed>
  <fix>3d</fix>
</trkpt>
<trkpt lat="40.0713749" lon="-105.229789">
  <ele>1583.0</ele>
  <time>2026-08-28T17:54:26Z</time>
  <course>0.0</course>
  <speed>0.0</speed>
  <fix>3d</fix>
</trkpt>
<trkpt lat="40.0713749" lon="-105.229789">
  <ele>1583.0</ele>
  <time>2026-08-28T17:54:26Z</time>
  <course>247.62</course>
  <speed>0.0316227766016838</speed>
  <fix>3d</fix>
</trkpt>
<trkpt lat="40.0713749" lon="-105.229789">
  <ele>1583.0</ele>
  <time>2026-08-28T17:54:26Z</time>
  <course>0.0</course>
  <speed>0.0</speed>
  <fix>3d</fix>
</trkpt>
<trkpt lat="40.0713749" lon="-105.229789">
  <ele>1583.0</ele>
  <time>2026-08-28T17:54:26Z</time>
  <course>247.62</course>
  <speed>0.0316227766016838</speed>
  <fix>3d</fix>
</trkpt>
<trkpt lat="40.0713749" lon="-105.229789">
  <ele>1583.0</ele>
  <time>2026-08-28T17:54:26Z</time>
  <course>0.0</course>
  <speed>0.0</speed>
  <fix>3d</fix>
</trkpt>
<trkpt lat="40.0713749" lon="-105.229789">
  <ele>1583.0</ele>
  <time>2026-08-28T17:54:26Z</time>
  <course>247.62</course>
  <speed>0.0316227766016838</speed>
  <fix>3d</fix>
</trkpt>
<trkpt lat="40.0713749" lon="-105.229789">
  <ele>1583.0</ele>
  <time>2026-08-28T17:54:26Z</time>
  <course>0.0</course>
  <speed>0.0</speed>
  <fix>3d</fix>
</trkpt>
<trkpt lat="40.0713749" lon="-105.229789">
  <ele>1583.0</ele>
  <time>2026-08-28T17:54:26Z</time>
  <course>247.62</course>
  <speed>0.0316227766016838</speed>
  <fix>3d</fix>
</trkpt>
<trkpt lat="40.0713749" lon="-105.229789">
  <ele>1583.0</ele>
  <time>2026-08-28T17:54:26Z</time>
  <course>0.0</course>
  <speed>0.0</speed>
  <fix>3d</fix>
</trkpt>
<trkpt lat="40.0713749" lon="-105.229789">
  <ele>1583.0</ele>
  <time>2026-08-28T17:54:26Z</time>
  <course>247.61</course>
  <speed>0.0316227766016838</speed>
  <fix>3d</fix>
</trkpt>
<trkpt lat="40.0713749" lon="-105.229789">
  <ele>1583.0</ele>
  <time>2026-08-28T17:54:26Z</time>
  <course>0.0</course>
  <speed>0.0</speed>
  <fix>3d</fix>
</trkpt>
<trkpt lat="40.0713749" lon="-105.229789">
  <ele>1583.0</ele>
  <time>2026-08-28T17:54:26Z</time>
  <course>247.61</course>
  <speed>0.0316227766016838</speed>
  <fix>3d</fix>
</trkpt>
<trkpt lat="40.0713749" lon="-105.229789">
  <ele>1583.0</ele>
  <time>2026-08-28T17:54:26Z</time>
  <course>0.0</course>
  <speed>0.0</speed>
  <fix>3d</fix>
</trkpt>
<trkpt lat="40.0713749" lon="-105.229789">
  <ele>1583.0</ele>
  <time>2026-08-28T17:54:26Z</time>
  <course>247.61</course>
  <speed>0.0316227766016838</speed>
  <fix>3d</fix>
</trkpt>
<trkpt lat="40.0713749" lon="-105.229789">
  <ele>1583.0</ele>
  <time>2026-08-28T17:54:26Z</time>
  <course>0.0</course>
  <speed>0.0</speed>
  <fix>3d</fix>
</trkpt>
<trkpt lat="40.0713749" lon="-105.229789">
  <ele>1583.0</ele>
  <time>2026-08-28T17:54:26Z</time>
  <course>247.6</course>
  <speed>0.0316227766016838</speed>
  <fix>3d</fix>
</trkpt>
<trkpt lat="40.0713749" lon="-105.229789">
  <ele>1583.0</ele>
  <time>2026-08-28T17:54:26Z</time>
  <course>0.0</course>
  <speed>0.0</speed>
  <fix>3d</fix>
</trkpt>
<trkpt lat="40.0713749" lon="-105.229789">
  <ele>1583.0</ele>
  <time>2026-08-28T17:54:26Z</time>
  <course>247.6</course>
  <speed>0.0316227766016838</speed>
  <fix>3d</fix>
</trkpt>
<trkpt lat="40.0713749" lon="-105.229789">
  <ele>1583.0</ele>
  <time>2026-08-28T17:54:26Z</time>
  <course>0.0</course>
  <speed>0.0</speed>
  <fix>3d</fix>
</trkpt>
<trkpt lat="40.0713749" lon="-105.229789">
  <ele>1583.0</ele>
  <time>2026-08-28T17:54:26Z</time>
  <course>247.6</course>
  <speed>0.0316227766016838</speed>
  <fix>3d</fix>
</trkpt>
<trkpt lat="40.0713749" lon="-105.229789">
  <ele>1583.0</ele>
  <time>2026-08-28T17:54:26Z</time>
  <course>0.0</course>
  <speed>0.0</speed>
  <fix>3d</fix>
</trkpt>
<trkpt lat="40.0713749" lon="-105.229789">
  <ele>1583.0</ele>
  <time>2026-08-28T17:54:26Z</time>
  <course>247.6</course>
  <speed>0.0316227766016838</speed>
  <fix>3d</fix>
</trkpt>
<trkpt lat="40.0713749" lon="-105.229789">
  <ele>1583.0</ele>
  <time>2026-08-28T17:54:26Z</time>
  <course>0.0</course>
  <speed>0.0</speed>
  <fix>3d</fix>
</trkpt>
<trkpt lat="40.0713749" lon="-105.229789">
  <ele>1583.0</ele>
  <time>2026-08-28T17:54:26Z</time>
  <course>247.59</course>
  <speed>0.0316227766016838</speed>
  <fix>3d</fix>
</trkpt>
<trkpt lat="40.0713749" lon="-105.229789">
  <ele>1583.0</ele>
  <time>2026-08-28T17:54:26Z</time>
  <course>0.0</course>
  <speed>0.0</speed>
  <fix>3d</fix>
</trkpt>
<trkpt lat="40.0713749" lon="-105.229789">
  <ele>1582.92</ele>
  <time>2026-08-28T17:54:26Z</time>
  <course>247.59</course>
  <speed>0.0</speed>
  <fix>3d</fix>
</trkpt>
<trkpt lat="40.0713749" lon="-105.229789">
  <ele>1583.0</ele>
  <time>2026-08-28T17:54:26Z</time>
  <course>0.0</course>
  <speed>0.0</speed>
  <fix>3d</fix>
</trkpt>
<trkpt lat="40.0713749" lon="-105.229789">
  <ele>1582.92</ele>
  <time>2026-08-28T17:54:26Z</time>
  <course>247.59</course>
  <speed>0.0</speed>
  <fix>3d</fix>
</trkpt>
<trkpt lat="40.0713749" lon="-105.229789">
  <ele>1583.0</ele>
  <time>2026-08-28T17:54:26Z</time>
  <course>0.0</course>
  <speed>0.0</speed>
  <fix>3d</fix>
</trkpt>
<trkpt lat="40.0713749" lon="-105.229789">
  <ele>1582.91</ele>
  <time>2026-08-28T17:54:26Z</time>
  <course>247.58</course>
  <speed>0.0</speed>
  <fix>3d</fix>
</trkpt>
<trkpt lat="40.0713749" lon="-105.229789">
  <ele>1583.0</ele>
  <time>2026-08-28T17:54:26Z</time>
  <course>0.0</course>
  <speed>0.0</speed>
  <fix>3d</fix>
</trkpt>
<trkpt lat="40.0713749" lon="-105.229789">
  <ele>1582.91</ele>
  <time>2026-08-28T17:54:26Z</time>
  <course>247.58</course>
  <speed>0.0</speed>
  <fix>3d</fix>
</trkpt>
<trkpt lat="40.0713749" lon="-105.229789">
  <ele>1583.0</ele>
  <time>2026-08-28T17:54:26Z</time>
  <course>0.0</course>
  <speed>0.0</speed>
  <fix>3d</fix>
</trkpt>
<trkpt lat="40.0713749" lon="-105.229789">
  <ele>1582.9</ele>
  <time>2026-08-28T17:54:26Z</time>
  <course>247.58</course>
  <speed>0.0</speed>
  <fix>3d</fix>
</trkpt>
<trkpt lat="40.0713749" lon="-105.229789">
  <ele>1583.0</ele>
  <time>2026-08-28T17:54:26Z</time>
  <course>0.0</course>
  <speed>0.0</speed>
  <fix>3d</fix>
</trkpt>
<trkpt lat="40.0713749" lon="-105.229789">
  <ele>1582.9</ele>
  <time>2026-08-28T17:54:26Z</time>
  <course>247.58</course>
  <speed>0.0</speed>
  <fix>3d</fix>
</trkpt>
<trkpt lat="40.0713749" lon="-105.229789">
  <ele>1583.0</ele>
  <time>2026-08-28T17:54:26Z</time>
  <course>0.0</course>
  <speed>0.0</speed>
  <fix>3d</fix>
</trkpt>
<trkpt lat="40.0713749" lon="-105.229789">
  <ele>1582.9</ele>
  <time>2026-08-28T17:54:26Z</time>
  <course>247.57</course>
  <speed>0.0</speed>
  <fix>3d</fix>
</trkpt>
<trkpt lat="40.0713749" lon="-105.229789">
  <ele>1583.0</ele>
  <time>2026-08-28T17:54:26Z</time>
  <course>0.0</course>
  <speed>0.0</speed>
  <fix>3d</fix>
</trkpt>
<trkpt lat="40.0713749" lon="-105.229789">
  <ele>1582.9</ele>
  <time>2026-08-28T17:54:26Z</time>
  <course>247.57</course>
  <speed>0.0</speed>
  <fix>3d</fix>
</trkpt>
<trkpt lat="40.0713749" lon="-105.229789">
  <ele>1583.0</ele>
  <time>2026-08-28T17:54:26Z</time>
  <course>0.0</course>
  <speed>0.0</speed>
  <fix>3d</fix>
</trkpt>
<trkpt lat="40.0713749" lon="-105.229789">
  <ele>1582.9</ele>
  <time>2026-08-28T17:54:26Z</time>
  <course>247.57</course>
  <speed>0.0</speed>
  <fix>3d</fix>
</trkpt>
<trkpt lat="40.0713749" lon="-105.229789">
  <ele>1583.0</ele>
  <time>2026-08-28T17:54:26Z</time>
  <course>0.0</course>
  <speed>0.0</speed>
  <fix>3d</fix>
</trkpt>
<trkpt lat="40.0713749" lon="-105.229789">
  <ele>1582.9</ele>
  <time>2026-08-28T17:54:26Z</time>
  <course>247.57</course>
  <speed>0.01</speed>
  <fix>3d</fix>
</trkpt>
<trkpt lat="40.0713749" lon="-105.229789">
  <ele>1583.0</ele>
  <time>2026-08-28T17:54:26Z</time>
  <course>0.0</course>
  <speed>0.0</speed>
  <fix>3d</fix>
</trkpt>
<trkpt lat="40.0713749" lon="-105.229789">
  <ele>1582.9</ele>
  <time>2026-08-28T17:54:26Z</time>
  <course>247.56</course>
  <speed>0.01</speed>
  <fix>3d</fix>
</trkpt>
<trkpt lat="40.0713749" lon="-105.229789">
  <ele>1583.0</ele>
  <time>2026-08-28T17:54:26Z</time>
  <course>0.0</course>
  <speed>0.0</speed>
  <fix>3d</fix>
</trkpt>
<trkpt lat="40.0713749" lon="-105.229789">
  <ele>1582.91</ele>
  <time>2026-08-28T17:54:26Z</time>
  <course>247.56</course>
  <speed>0.01</speed>
  <fix>3d</fix>
</trkpt>
<trkpt lat="40.0713749" lon="-105.229789">
  <ele>1583.0</ele>
  <time>2026-08-28T17:54:26Z</time>
  <course>0.0</course>
  <speed>0.0</speed>
  <fix>3d</fix>
</trkpt>
<trkpt lat="40.0713749" lon="-105.229789">
  <ele>1582.91</ele>
  <time>2026-08-28T17:54:26Z</time>
  <course>247.56</course>
  <speed>0.01</speed>
  <fix>3d</fix>
</trkpt>
<trkpt lat="40.0713749" lon="-105.229789">
  <ele>1583.0</ele>
  <time>2026-08-28T17:54:26Z</time>
  <course>0.0</course>
  <speed>0.0</speed>
  <fix>3d</fix>
</trkpt>
<trkpt lat="40.0713749" lon="-105.229789">
  <ele>1582.92</ele>
  <time>2026-08-28T17:54:26Z</time>
  <course>247.56</course>
  <speed>0.01</speed>
  <fix>3d</fix>
</trkpt>
<trkpt lat="40.0713749" lon="-105.229789">
  <ele>1583.0</ele>
  <time>2026-08-28T17:54:26Z</time>
  <course>0.0</course>
  <speed>0.0</speed>
  <fix>3d</fix>
</trkpt>
<trkpt lat="40.0713749" lon="-105.229789">
  <ele>1582.92</ele>
  <time>2026-08-28T17:54:26Z</time>
  <course>247.55</course>
  <speed>0.01</speed>
  <fix>3d</fix>
</trkpt>
<trkpt lat="40.0713749" lon="-105.229789">
  <ele>1583.0</ele>
  <time>2026-08-28T17:54:26Z</time>
  <course>0.0</course>
  <speed>0.0</speed>
  <fix>3d</fix>
</trkpt>
<trkpt lat="40.0713749" lon="-105.229789">
  <ele>1582.92</ele>
  <time>2026-08-28T17:54:26Z</time>
  <course>247.55</course>
  <speed>0.01</speed>
  <fix>3d</fix>
</trkpt>
<trkpt lat="40.0713749" lon="-105.229789">
  <ele>1583.0</ele>
  <time>2026-08-28T17:54:26Z</time>
  <course>0.0</course>
  <speed>0.0</speed>
  <fix>3d</fix>
</trkpt>
<trkpt lat="40.0713749" lon="-105.229789">
  <ele>1582.93</ele>
  <time>2026-08-28T17:54:26Z</time>
  <course>247.55</course>
  <speed>0.01</speed>
  <fix>3d</fix>
</trkpt>
<trkpt lat="40.0713749" lon="-105.229789">
  <ele>1583.0</ele>
  <time>2026-08-28T17:54:26Z</time>
  <course>0.0</course>
  <speed>0.0</speed>
  <fix>3d</fix>
</trkpt>
<trkpt lat="40.0713749" lon="-105.229789">
  <ele>1582.93</ele>
  <time>2026-08-28T17:54:26Z</time>
  <course>247.55</course>
  <speed>0.01</speed>
  <fix>3d</fix>
</trkpt>
<trkpt lat="40.0713749" lon="-105.229789">
  <ele>1583.0</ele>
  <time>2026-08-28T17:54:26Z</time>
  <course>0.0</course>
  <speed>0.0</speed>
  <fix>3d</fix>
</trkpt>
<trkpt lat="40.0713749" lon="-105.229789">
  <ele>1582.93</ele>
  <time>2026-08-28T17:54:26Z</time>
  <course>247.54</course>
  <speed>0.01</speed>
  <fix>3d</fix>
</trkpt>
<trkpt lat="40.0713749" lon="-105.229789">
  <ele>1583.0</ele>
  <time>2026-08-28T17:54:26Z</time>
  <course>0.0</course>
  <speed>0.0</speed>
  <fix>3d</fix>
</trkpt>
<trkpt lat="40.0713749" lon="-105.229789">
  <ele>1582.93</ele>
  <time>2026-08-28T17:54:26Z</time>
  <course>247.54</course>
  <speed>0.02</speed>
  <fix>3d</fix>
</trkpt>
<trkpt lat="40.0713749" lon="-105.229789">
  <ele>1583.0</ele>
  <time>2026-08-28T17:54:26Z</time>
  <course>0.0</course>
  <speed>0.0</speed>
  <fix>3d</fix>
</trkpt>
<trkpt lat="40.0713749" lon="-105.229789">
  <ele>1582.94</ele>
  <time>2026-08-28T17:54:26Z</time>
  <course>247.54</course>
  <speed>0.02</speed>
  <fix>3d</fix>
</trkpt>
<trkpt lat="40.0713749" lon="-105.229789">
  <ele>1583.0</ele>
  <time>2026-08-28T17:54:26Z</time>
  <course>0.0</course>
  <speed>0.0</speed>
  <fix>3d</fix>
</trkpt>
<trkpt lat="40.0713749" lon="-105.229789">
  <ele>1582.94</ele>
  <time>2026-08-28T17:54:26Z</time>
  <course>247.54</course>
  <speed>0.02</speed>
  <fix>3d</fix>
</trkpt>
<trkpt lat="40.0713749" lon="-105.229789">
  <ele>1583.0</ele>
  <time>2026-08-28T17:54:26Z</time>
  <course>0.0</course>
  <speed>0.0</speed>
  <fix>3d</fix>
</trkpt>
<trkpt lat="40.0713749" lon="-105.229789">
  <ele>1582.94</ele>
  <time>2026-08-28T17:54:26Z</time>
  <course>247.53</course>
  <speed>0.01</speed>
  <fix>3d</fix>
</trkpt>
<trkpt lat="40.0713749" lon="-105.229789">
  <ele>1583.0</ele>
  <time>2026-08-28T17:54:26Z</time>
  <course>0.0</course>
  <speed>0.0</speed>
  <fix>3d</fix>
</trkpt>
<trkpt lat="40.0713749" lon="-105.229789">
  <ele>1582.94</ele>
  <time>2026-08-28T17:54:26Z</time>
  <course>247.53</course>
  <speed>0.01</speed>
  <fix>3d</fix>
</trkpt>
<trkpt lat="40.0713749" lon="-105.229789">
  <ele>1582.95</ele>
  <time>2026-08-28T17:54:26Z</time>
  <course>247.53</course>
  <speed>0.01</speed>
  <fix>3d</fix>
</trkpt>
<trkpt lat="40.0713749" lon="-105.229789">
  <ele>1582.95</ele>
  <time>2026-08-28T17:54:26Z</time>
  <course>247.53</course>
  <speed>0.01</speed>
  <fix>3d</fix>
</trkpt>
<trkpt lat="40.0713749" lon="-105.229789">
  <ele>1582.95</ele>
  <time>2026-08-28T17:54:26Z</time>
  <course>247.53</course>
  <speed>0.01</speed>
  <fix>3d</fix>
</trkpt>
<trkpt lat="40.0713749" lon="-105.229789">
  <ele>1583.0</ele>
  <time>2026-08-28T17:54:26Z</time>
  <course>245.99</course>
  <speed>0.0</speed>
  <fix>3d</fix>
</trkpt>
<trkpt lat="40.0713749" lon="-105.229789">
  <ele>1582.95</ele>
  <time>2026-08-28T17:54:26Z</time>
  <course>247.53</course>
  <speed>0.01</speed>
  <fix>3d</fix>
</trkpt>
<trkpt lat="40.0713749" lon="-105.229789">
  <ele>1582.95</ele>
  <time>2026-08-28T17:54:26Z</time>
  <course>247.53</course>
  <speed>0.01</speed>
  <fix>3d</fix>
</trkpt>
<trkpt lat="40.0713749" lon="-105.229789">
  <ele>1582.95</ele>
  <time>2026-08-28T17:54:26Z</time>
  <course>247.53</course>
  <speed>0.01</speed>
  <fix>3d</fix>
</trkpt>
<trkpt lat="40.0713749" lon="-105.229789">
  <ele>1582.95</ele>
  <time>2026-08-28T17:54:26Z</time>
  <course>247.53</course>
  <speed>0.01</speed>
  <fix>3d</fix>
</trkpt>
<trkpt lat="40.0713749" lon="-105.229789">
  <ele>1583.0</ele>
  <time>2026-08-28T17:54:26Z</time>
  <course>245.99</course>
  <speed>0.0</speed>
  <fix>3d</fix>
</trkpt>
<trkpt lat="40.0713749" lon="-105.229789">
  <ele>1582.95</ele>
  <time>2026-08-28T17:54:26Z</time>
  <course>247.52</course>
  <speed>0.01</speed>
  <fix>3d</fix>
</trkpt>
<trkpt lat="40.0713749" lon="-105.229789">
  <ele>1582.95</ele>
  <time>2026-08-28T17:54:26Z</time>
  <course>247.52</course>
  <speed>0.01</speed>
  <fix>3d</fix>
</trkpt>
<trkpt lat="40.0713749" lon="-105.229789">
  <ele>1582.95</ele>
  <time>2026-08-28T17:54:26Z</time>
  <course>247.51</course>
  <speed>0.01</speed>
  <fix>3d</fix>
</trkpt>
<trkpt lat="40.0713749" lon="-105.229789">
  <ele>1582.95</ele>
  <time>2026-08-28T17:54:26Z</time>
  <course>247.51</course>
  <speed>0.01</speed>
  <fix>3d</fix>
</trkpt>
<trkpt lat="40.0713749" lon="-105.229789">
  <ele>1583.0</ele>
  <time>2026-08-28T17:54:26Z</time>
  <course>245.98</course>
  <speed>0.0</speed>
  <fix>3d</fix>
</trkpt>
<trkpt lat="40.0713749" lon="-105.229789">
  <ele>1582.96</ele>
  <time>2026-08-28T17:54:26Z</time>
  <course>247.53</course>
  <speed>0.01414213562373095</speed>
  <fix>3d</fix>
</trkpt>
<trkpt lat="40.0713749" lon="-105.229789">
  <ele>1582.96</ele>
  <time>2026-08-28T17:54:26Z</time>
  <course>247.54</course>
  <speed>0.01</speed>
  <fix>3d</fix>
</trkpt>
<trkpt lat="40.0713749" lon="-105.229789">
  <ele>1582.96</ele>
  <time>2026-08-28T17:54:26Z</time>
  <course>247.54</course>
  <speed>0.01</speed>
  <fix>3d</fix>
</trkpt>
<trkpt lat="40.0713749" lon="-105.229789">
  <ele>1583.0</ele>
  <time>2026-08-28T17:54:26Z</time>
  <course>245.98</course>
  <speed>0.0</speed>
  <fix>3d</fix>
</trkpt>
<trkpt lat="40.0713749" lon="-105.229789">
  <ele>1582.96</ele>
  <time>2026-08-28T17:54:26Z</time>
  <course>247.6</course>
  <speed>0.02</speed>
  <fix>3d</fix>
</trkpt>
<trkpt lat="40.0713749" lon="-105.229789">
  <ele>1582.96</ele>
  <time>2026-08-28T17:54:26Z</time>
  <course>247.62</course>
  <speed>0.02</speed>
  <fix>3d</fix>
</trkpt>
<trkpt lat="40.0713749" lon="-105.229789">
  <ele>1582.96</ele>
  <time>2026-08-28T17:54:26Z</time>
  <course>247.62</course>
  <speed>0.02</speed>
  <fix>3d</fix>
</trkpt>
<trkpt lat="40.0713749" lon="-105.229789">
  <ele>1583.0</ele>
  <time>2026-08-28T17:54:26Z</time>
  <course>246.07</course>
  <speed>0.02</speed>
  <fix>3d</fix>
</trkpt>
<trkpt lat="40.0713749" lon="-105.229789">
  <ele>1582.96</ele>
  <time>2026-08-28T17:54:26Z</time>
  <course>247.65</course>
  <speed>0.03</speed>
  <fix>3d</fix>
</trkpt>
<trkpt lat="40.0713749" lon="-105.229789">
  <ele>1582.96</ele>
  <time>2026-08-28T17:54:26Z</time>
  <course>247.72</course>
  <speed>0.04</speed>
  <fix>3d</fix>
</trkpt>
<trkpt lat="40.0713749" lon="-105.229789">
  <ele>1582.96</ele>
  <time>2026-08-28T17:54:26Z</time>
  <course>247.76</course>
  <speed>0.04</speed>
  <fix>3d</fix>
</trkpt>
<trkpt lat="40.0713749" lon="-105.229789">
  <ele>1582.96</ele>
  <time>2026-08-28T17:54:26Z</time>
  <course>247.8</course>
  <speed>0.05</speed>
  <fix>3d</fix>
</trkpt>
<trkpt lat="40.0713749" lon="-105.229789">
  <ele>1582.96</ele>
  <time>2026-08-28T17:54:26Z</time>
  <course>247.8</course>
  <speed>0.05</speed>
  <fix>3d</fix>
</trkpt>
<trkpt lat="40.0713749" lon="-105.229789">
  <ele>1583.0</ele>
  <time>2026-08-28T17:54:26Z</time>
  <course>246.07</course>
  <speed>0.02</speed>
  <fix>3d</fix>
</trkpt>
<trkpt lat="40.0713749" lon="-105.2297891">
  <ele>1582.96</ele>
  <time>2026-08-28T17:54:26Z</time>
  <course>248.06</course>
  <speed>0.07071067811865475</speed>
  <fix>3d</fix>
</trkpt>
<trkpt lat="40.0713749" lon="-105.2297891">
  <ele>1582.96</ele>
  <time>2026-08-28T17:54:26Z</time>
  <course>248.14</course>
  <speed>0.07071067811865475</speed>
  <fix>3d</fix>
</trkpt>
<trkpt lat="40.0713749" lon="-105.2297891">
  <ele>1582.96</ele>
  <time>2026-08-28T17:54:26Z</time>
  <course>248.14</course>
  <speed>0.07071067811865475</speed>
  <fix>3d</fix>
</trkpt>
<trkpt lat="40.0713749" lon="-105.2297891">
  <ele>1583.0</ele>
  <time>2026-08-28T17:54:26Z</time>
  <course>246.46</course>
  <speed>0.06</speed>
  <fix>3d</fix>
</trkpt>
<trkpt lat="40.0713749" lon="-105.2297892">
  <ele>1582.96</ele>
  <time>2026-08-28T17:54:26Z</time>
  <course>248.58</course>
  <speed>0.1019803902718557</speed>
  <fix>3d</fix>
</trkpt>
<trkpt lat="40.0713749" lon="-105.2297892">
  <ele>1582.96</ele>
  <time>2026-08-28T17:54:26Z</time>
  <course>248.72</course>
  <speed>0.11401754250991379</speed>
  <fix>3d</fix>
</trkpt>
<trkpt lat="40.0713749" lon="-105.2297892">
  <ele>1582.96</ele>
  <time>2026-08-28T17:54:26Z</time>
  <course>248.72</course>
  <speed>0.11401754250991379</speed>
  <fix>3d</fix>
</trkpt>
<trkpt lat="40.0713749" lon="-105.2297891">
  <ele>1583.0</ele>
  <time>2026-08-28T17:54:26Z</time>
  <course>246.46</course>
  <speed>0.06</speed>
  <fix>3d</fix>
</trkpt>
<trkpt lat="40.0713749" lon="-105.2297894">
  <ele>1582.96</ele>
  <time>2026-08-28T17:54:26Z</time>
  <course>249.44</course>
  <speed>0.15524174696260024</speed>
  <fix>3d</fix>
</trkpt>
<trkpt lat="40.0713749" lon="-105.2297894">
  <ele>1582.96</ele>
  <time>2026-08-28T17:54:26Z</time>
  <course>249.66</course>
  <speed>0.1649242250247064</speed>
  <fix>3d</fix>
</trkpt>
<trkpt lat="40.0713749" lon="-105.2297894">
  <ele>1582.96</ele>
  <time>2026-08-28T17:54:26Z</time>
  <course>249.66</course>
  <speed>0.1649242250247064</speed>
  <fix>3d</fix>
</trkpt>
<trkpt lat="40.0713749" lon="-105.2297892">
  <ele>1583.0</ele>
  <time>2026-08-28T17:54:26Z</time>
  <course>247.63</course>
  <speed>0.13</speed>
  <fix>3d</fix>
</trkpt>
<trkpt lat="40.0713748" lon="-105.2297896">
  <ele>1582.96</ele>
  <time>2026-08-28T17:54:26Z</time>
  <course>250.4</course>
  <speed>0.196468827043885</speed>
  <fix>3d</fix>
</trkpt>
<trkpt lat="40.0713748" lon="-105.2297896">
  <ele>1582.96</ele>
  <time>2026-08-28T17:54:26Z</time>
  <course>250.68</course>
  <speed>0.208806130178211</speed>
  <fix>3d</fix>
</trkpt>
<trkpt lat="40.0713748" lon="-105.2297897">
  <ele>1582.95</ele>
  <time>2026-08-28T17:54:26Z</time>
  <course>250.97</course>
  <speed>0.22803508501982758</speed>
  <fix>3d</fix>
</trkpt>
<trkpt lat="40.0713748" lon="-105.2297897">
  <ele>1582.95</ele>
  <time>2026-08-28T17:54:26Z</time>
  <course>250.97</course>
  <speed>0.22803508501982758</speed>
  <fix>3d</fix>
</trkpt>
<trkpt lat="40.0713749" lon="-105.2297892">
  <ele>1583.0</ele>
  <time>2026-08-28T17:54:26Z</time>
  <course>247.63</course>
  <speed>0.13</speed>
  <fix>3d</fix>
</trkpt>
<trkpt lat="40.0713747" lon="-105.2297899">
  <ele>1582.95</ele>
  <time>2026-08-28T17:54:26Z</time>
  <course>252.32</course>
  <speed>0.27892651361962706</speed>
  <fix>3d</fix>
</trkpt>
<trkpt lat="40.0713747" lon="-105.22979">
  <ele>1582.95</ele>
  <time>2026-08-28T17:54:26Z</time>
  <course>252.7</course>
  <speed>0.29832867780352595</speed>
  <fix>3d</fix>
</trkpt>
<trkpt lat="40.0713747" lon="-105.22979">
  <ele>1582.95</ele>
  <time>2026-08-28T17:54:26Z</time>
  <course>252.7</course>
  <speed>0.29832867780352595</speed>
  <fix>3d</fix>
</trkpt>
<trkpt lat="40.0713748" lon="-105.2297897">
  <ele>1583.0</ele>
  <time>2026-08-28T17:54:26Z</time>
  <course>250.08</course>
  <speed>0.24</speed>
  <fix>3d</fix>
</trkpt>
<trkpt lat="40.0713747" lon="-105.2297902">
  <ele>1582.95</ele>
  <time>2026-08-28T17:54:26Z</time>
  <course>253.96</course>
  <speed>0.34928498393145957</speed>
  <fix>3d</fix>
</trkpt>
<trkpt lat="40.0713747" lon="-105.2297903">
  <ele>1582.95</ele>
  <time>2026-08-28T17:54:26Z</time>
  <course>254.42</course>
  <speed>0.3687817782917155</speed>
  <fix>3d</fix>
</trkpt>
<trkpt lat="40.0713746" lon="-105.2297904">
  <ele>1582.95</ele>
  <time>2026-08-28T17:54:26Z</time>
  <course>254.9</course>
  <speed>0.378549864614954</speed>
  <fix>3d</fix>
</trkpt>
<trkpt lat="40.0713746" lon="-105.2297904">
  <ele>1582.95</ele>
  <time>2026-08-28T17:54:26Z</time>
  <course>254.9</course>
  <speed>0.378549864614954</speed>
  <fix>3d</fix>
</trkpt>
<trkpt lat="40.0713748" lon="-105.2297897">
  <ele>1583.0</ele>
  <time>2026-08-28T17:54:26Z</time>
  <course>250.08</course>
  <speed>0.24</speed>
  <fix>3d</fix>
</trkpt>
<trkpt lat="40.0713746" lon="-105.2297908">
  <ele>1582.96</ele>
  <time>2026-08-28T17:54:26Z</time>
  <course>257.06</course>
  <speed>0.4589117562233506</speed>
  <fix>3d</fix>
</trkpt>
<trkpt lat="40.0713745" lon="-105.2297909">
  <ele>1582.95</ele>
  <time>2026-08-28T17:54:26Z</time>
  <course>257.66</course>
  <speed>0.47853944456021597</speed>
  <fix>3d</fix>
</trkpt>
<trkpt lat="40.0713745" lon="-105.2297909">
  <ele>1582.95</ele>
  <time>2026-08-28T17:54:26Z</time>
  <course>257.66</course>
  <speed>0.47853944456021597</speed>
  <fix>3d</fix>
</trkpt>
<trkpt lat="40.0713748" lon="-105.2297897">
  <ele>1583.0</ele>
  <time>2026-08-28T17:54:26Z</time>
  <course>250.08</course>
  <speed>0.24</speed>
  <fix>3d</fix>
</trkpt>
<trkpt lat="40.0713745" lon="-105.2297913">
  <ele>1582.95</ele>
  <time>2026-08-28T17:54:26Z</time>
  <course>259.6</course>
  <speed>0.5360037313302959</speed>
  <fix>3d</fix>
</trkpt>
<trkpt lat="40.0713745" lon="-105.2297914">
  <ele>1582.95</ele>
  <time>2026-08-28T17:54:26Z</time>
  <course>260.3</course>
  <speed>0.5557877292636101</speed>
  <fix>3d</fix>
</trkpt>
<trkpt lat="40.0713745" lon="-105.2297915">
  <ele>1582.95</ele>
  <time>2026-08-28T17:54:26Z</time>
  <course>261.02</course>
  <speed>0.5742821606144493</speed>
  <fix>3d</fix>
</trkpt>
<trkpt lat="40.0713745" lon="-105.2297915">
  <ele>1582.95</ele>
  <time>2026-08-28T17:54:26Z</time>
  <course>261.02</course>
  <speed>0.5742821606144493</speed>
  <fix>3d</fix>
</trkpt>
<trkpt lat="40.0713746" lon="-105.2297904">
  <ele>1583.0</ele>
  <time>2026-08-28T17:54:26Z</time>
  <course>254.24</course>
  <speed>0.39</speed>
  <fix>3d</fix>
</trkpt>
<trkpt lat="40.0713744" lon="-105.2297921">
  <ele>1582.95</ele>
  <time>2026-08-28T17:54:26Z</time>
  <course>264.17</course>
  <speed>0.6618912297349165</speed>
  <fix>3d</fix>
</trkpt>
<trkpt lat="40.0713744" lon="-105.2297923">
  <ele>1582.95</ele>
  <time>2026-08-28T17:54:26Z</time>
  <course>265.03</course>
  <speed>0.6911584478250989</speed>
  <fix>3d</fix>
</trkpt>
<trkpt lat="40.0713744" lon="-105.2297923">
  <ele>1582.95</ele>
  <time>2026-08-28T17:54:26Z</time>
  <course>265.03</course>
  <speed>0.6911584478250989</speed>
  <fix>3d</fix>
</trkpt>
<trkpt lat="40.0713746" lon="-105.2297904">
  <ele>1583.0</ele>
  <time>2026-08-28T17:54:26Z</time>
  <course>254.24</course>
  <speed>0.39</speed>
  <fix>3d</fix>
</trkpt>
<trkpt lat="40.0713744" lon="-105.2297928">
  <ele>1582.95</ele>
  <time>2026-08-28T17:54:26Z</time>
  <course>267.76</course>
  <speed>0.750066663703967</speed>
  <fix>3d</fix>
</trkpt>
<trkpt lat="40.0713744" lon="-105.229793">
  <ele>1582.95</ele>
  <time>2026-08-28T17:54:26Z</time>
  <course>268.73</course>
  <speed>0.78</speed>
  <fix>3d</fix>
</trkpt>
<trkpt lat="40.0713744" lon="-105.2297932">
  <ele>1582.95</ele>
  <time>2026-08-28T17:54:26Z</time>
  <course>269.72</course>
  <speed>0.8</speed>
  <fix>3d</fix>
</trkpt>
<trkpt lat="40.0713744" lon="-105.2297932">
  <ele>1582.95</ele>
  <time>2026-08-28T17:54:26Z</time>
  <course>269.72</course>
  <speed>0.8</speed>
  <fix>3d</fix>
</trkpt>
<trkpt lat="40.0713744" lon="-105.2297915">
  <ele>1583.0</ele>
  <time>2026-08-28T17:54:26Z</time>
  <course>260.54</course>
  <speed>0.58</speed>
  <fix>3d</fix>
</trkpt>
<trkpt lat="40.0713744" lon="-105.229794">
  <ele>1582.95</ele>
  <time>2026-08-28T17:54:26Z</time>
  <course>274.0</course>
  <speed>0.8927485648266257</speed>
  <fix>3d</fix>
</trkpt>
<trkpt lat="40.0713744" lon="-105.2297942">
  <ele>1582.95</ele>
  <time>2026-08-28T17:54:26Z</time>
  <course>275.14</course>
  <speed>0.9243916918709297</speed>
  <fix>3d</fix>
</trkpt>
<trkpt lat="40.0713744" lon="-105.2297942">
  <ele>1582.95</ele>
  <time>2026-08-28T17:54:26Z</time>
  <course>275.14</course>
  <speed>0.9243916918709297</speed>
  <fix>3d</fix>
</trkpt>
<trkpt lat="40.0713744" lon="-105.2297915">
  <ele>1583.0</ele>
  <time>2026-08-28T17:54:26Z</time>
  <course>260.54</course>
  <speed>0.58</speed>
  <fix>3d</fix>
</trkpt>
<trkpt lat="40.0713744" lon="-105.2297949">
  <ele>1582.95</ele>
  <time>2026-08-28T17:54:26Z</time>
  <course>278.76</course>
  <speed>0.9929753269845127</speed>
  <fix>3d</fix>
</trkpt>
<trkpt lat="40.0713744" lon="-105.2297951">
  <ele>1582.95</ele>
  <time>2026-08-28T17:54:26Z</time>
  <course>280.02</course>
  <speed>1.0178899744078433</speed>
  <fix>3d</fix>
</trkpt>
<trkpt lat="40.0713744" lon="-105.2297954">
  <ele>1582.95</ele>
  <time>2026-08-28T17:54:26Z</time>
  <course>281.31</course>
  <speed>1.041393297462587</speed>
  <fix>3d</fix>
</trkpt>
<trkpt lat="40.0713744" lon="-105.2297954">
  <ele>1582.95</ele>
  <time>2026-08-28T17:54:26Z</time>
  <course>281.31</course>
  <speed>1.041393297462587</speed>
  <fix>3d</fix>
</trkpt>
<trkpt lat="40.0713743" lon="-105.2297931">
  <ele>1583.0</ele>
  <time>2026-08-28T17:54:26Z</time>
  <course>269.38</course>
  <speed>0.79</speed>
  <fix>3d</fix>
</trkpt>
<trkpt lat="40.0713746" lon="-105.2297964">
  <ele>1582.95</ele>
  <time>2026-08-28T17:54:26Z</time>
  <course>286.8</course>
  <speed>1.1417968295629481</speed>
  <fix>3d</fix>
</trkpt>
<trkpt lat="40.0713747" lon="-105.2297967">
  <ele>1582.95</ele>
  <time>2026-08-28T17:54:26Z</time>
  <course>288.25</course>
  <speed>1.1605602095539895</speed>
  <fix>3d</fix>
</trkpt>
<trkpt lat="40.0713747" lon="-105.2297967">
  <ele>1582.95</ele>
  <time>2026-08-28T17:54:26Z</time>
  <course>288.25</course>
  <speed>1.1605602095539895</speed>
  <fix>3d</fix>
</trkpt>
<trkpt lat="40.0713743" lon="-105.2297931">
  <ele>1583.0</ele>
  <time>2026-08-28T17:54:26Z</time>
  <course>269.38</course>
  <speed>0.79</speed>
  <fix>3d</fix>
</trkpt>
<trkpt lat="40.0713749" lon="-105.2297975">
  <ele>1582.95</ele>
  <time>2026-08-28T17:54:26Z</time>
  <course>292.86</course>
  <speed>1.2408464852672147</speed>
  <fix>3d</fix>
</trkpt>
<trkpt lat="40.071375" lon="-105.2297977">
  <ele>1582.95</ele>
  <time>2026-08-28T17:54:26Z</time>
  <course>294.44</course>
  <speed>1.2662543188475213</speed>
  <fix>3d</fix>
</trkpt>
<trkpt lat="40.0713751" lon="-105.229798">
  <ele>1582.95</ele>
  <time>2026-08-28T17:54:26Z</time>
  <course>296.05</course>
  <speed>1.296919426949878</speed>
  <fix>3d</fix>
</trkpt>
<trkpt lat="40.0713751" lon="-105.229798">
  <ele>1582.95</ele>
  <time>2026-08-28T17:54:26Z</time>
  <course>296.05</course>
  <speed>1.296919426949878</speed>
  <fix>3d</fix>
</trkpt>
<trkpt lat="40.0713744" lon="-105.2297952">
  <ele>1583.0</ele>
  <time>2026-08-28T17:54:26Z</time>
  <course>281.08</course>
  <speed>1.02</speed>
  <fix>3d</fix>
</trkpt>
<trkpt lat="40.0713755" lon="-105.2297988">
  <ele>1582.95</ele>
  <time>2026-08-28T17:54:26Z</time>
  <course>300.74</course>
  <speed>1.3685759021698432</speed>
  <fix>3d</fix>
</trkpt>
<trkpt lat="40.0713756" lon="-105.2297991">
  <ele>1582.95</ele>
  <time>2026-08-28T17:54:26Z</time>
  <course>302.25</course>
  <speed>1.3897481786280563</speed>
  <fix>3d</fix>
</trkpt>
<trkpt lat="40.0713757" lon="-105.2297994">
  <ele>1582.95</ele>
  <time>2026-08-28T17:54:26Z</time>
  <course>303.72</course>
  <speed>1.4173566946961518</speed>
  <fix>3d</fix>
</trkpt>
<trkpt lat="40.0713757" lon="-105.2297994">
  <ele>1582.95</ele>
  <time>2026-08-28T17:54:26Z</time>
  <course>303.72</course>
  <speed>1.4173566946961518</speed>
  <fix>3d</fix>
</trkpt>
<trkpt lat="40.071375" lon="-105.2297978">
  <ele>1583.0</ele>
  <time>2026-08-28T17:54:26Z</time>
  <course>295.35</course>
  <speed>1.26</speed>
  <fix>3d</fix>
</trkpt>
<trkpt lat="40.0713762" lon="-105.2298002">
  <ele>1582.96</ele>
  <time>2026-08-28T17:54:26Z</time>
  <course>307.98</course>
  <speed>1.4945902448497381</speed>
  <fix>3d</fix>
</trkpt>
<trkpt lat="40.0713764" lon="-105.2298005">
  <ele>1582.96</ele>
  <time>2026-08-28T17:54:26Z</time>
  <course>309.37</course>
  <speed>1.52620444239951</speed>
  <fix>3d</fix>
</trkpt>
<trkpt lat="40.0713766" lon="-105.2298008">
  <ele>1582.96</ele>
  <time>2026-08-28T17:54:26Z</time>
  <course>310.76</course>
  <speed>1.54466824917197</speed>
  <fix>3d</fix>
</trkpt>
<trkpt lat="40.0713766" lon="-105.2298008">
  <ele>1582.96</ele>
  <time>2026-08-28T17:54:26Z</time>
  <course>310.76</course>
  <speed>1.54466824917197</speed>
  <fix>3d</fix>
</trkpt>
<trkpt lat="40.071375" lon="-105.2297978">
  <ele>1583.0</ele>
  <time>2026-08-28T17:54:26Z</time>
  <course>295.35</course>
  <speed>1.26</speed>
  <fix>3d</fix>
</trkpt>
<trkpt lat="40.0713772" lon="-105.2298016">
  <ele>1582.96</ele>
  <time>2026-08-28T17:54:26Z</time>
  <course>314.77</course>
  <speed>1.6192899678562824</speed>
  <fix>3d</fix>
</trkpt>
<trkpt lat="40.0713776" lon="-105.2298021">
  <ele>1582.97</ele>
  <time>2026-08-28T17:54:26Z</time>
  <course>317.41</course>
  <speed>1.656804152578089</speed>
  <fix>3d</fix>
</trkpt>
<trkpt lat="40.0713776" lon="-105.2298021">
  <ele>1582.97</ele>
  <time>2026-08-28T17:54:26Z</time>
  <course>317.41</course>
  <speed>1.656804152578089</speed>
  <fix>3d</fix>
</trkpt>
<trkpt lat="40.0713763" lon="-105.2298005">
  <ele>1583.0</ele>
  <time>2026-08-28T17:54:26Z</time>
  <course>309.7</course>
  <speed>1.51</speed>
  <fix>3d</fix>
</trkpt>
<trkpt lat="40.0713785" lon="-105.2298032">
  <ele>1582.97</ele>
  <time>2026-08-28T17:54:26Z</time>
  <course>322.44</course>
  <speed>1.7420103329199859</speed>
  <fix>3d</fix>
</trkpt>
<trkpt lat="40.0713788" lon="-105.2298034">
  <ele>1582.97</ele>
  <time>2026-08-28T17:54:26Z</time>
  <course>323.65</course>
  <speed>1.754223474931287</speed>
  <fix>3d</fix>
</trkpt>
<trkpt lat="40.0713788" lon="-105.2298034">
  <ele>1582.97</ele>
  <time>2026-08-28T17:54:26Z</time>
  <course>323.65</course>
  <speed>1.754223474931287</speed>
  <fix>3d</fix>
</trkpt>
<trkpt lat="40.0713763" lon="-105.2298005">
  <ele>1583.0</ele>
  <time>2026-08-28T17:54:26Z</time>
  <course>309.7</course>
  <speed>1.51</speed>
  <fix>3d</fix>
</trkpt>
<trkpt lat="40.0713799" lon="-105.2298044">
  <ele>1582.97</ele>
  <time>2026-08-28T17:54:26Z</time>
  <course>328.09</course>
  <speed>1.8264993840677854</speed>
  <fix>3d</fix>
</trkpt>
<trkpt lat="40.0713802" lon="-105.2298046">
  <ele>1582.97</ele>
  <time>2026-08-28T17:54:26Z</time>
  <course>329.11</course>
  <speed>1.8470787747142785</speed>
  <fix>3d</fix>
</trkpt>
<trkpt lat="40.0713802" lon="-105.2298046">
  <ele>1582.97</ele>
  <time>2026-08-28T17:54:26Z</time>
  <course>329.11</course>
  <speed>1.8470787747142785</speed>
  <fix>3d</fix>
</trkpt>
<trkpt lat="40.0713784" lon="-105.2298031">
  <ele>1583.0</ele>
  <time>2026-08-28T17:54:26Z</time>
  <course>322.2</course>
  <speed>1.71</speed>
  <fix>3d</fix>
</trkpt>
<trkpt lat="40.0713814" lon="-105.2298054">
  <ele>1582.98</ele>
  <time>2026-08-28T17:54:26Z</time>
  <course>332.89</course>
  <speed>1.9140794131905812</speed>
  <fix>3d</fix>
</trkpt>
<trkpt lat="40.0713817" lon="-105.2298056">
  <ele>1582.98</ele>
  <time>2026-08-28T17:54:26Z</time>
  <course>333.76</course>
  <speed>1.9321490625725541</speed>
  <fix>3d</fix>
</trkpt>
<trkpt lat="40.0713817" lon="-105.2298056">
  <ele>1582.98</ele>
  <time>2026-08-28T17:54:26Z</time>
  <course>333.76</course>
  <speed>1.9321490625725541</speed>
  <fix>3d</fix>
</trkpt>
<trkpt lat="40.0713784" lon="-105.2298031">
  <ele>1583.0</ele>
  <time>2026-08-28T17:54:26Z</time>
  <course>322.2</course>
  <speed>1.71</speed>
  <fix>3d</fix>
</trkpt>
<trkpt lat="40.071383" lon="-105.2298064">
  <ele>1582.98</ele>
  <time>2026-08-28T17:54:26Z</time>
  <course>337.01</course>
  <speed>2.0038463014912096</speed>
  <fix>3d</fix>
</trkpt>
<trkpt lat="40.0713833" lon="-105.2298066">
  <ele>1582.98</ele>
  <time>2026-08-28T17:54:26Z</time>
  <course>337.75</course>
  <speed>2.024080037943164</speed>
  <fix>3d</fix>
</trkpt>
<trkpt lat="40.0713812" lon="-105.2298054">
  <ele>1583.0</ele>
  <time>2026-08-28T17:54:26Z</time>
  <course>332.24</course>
  <speed>1.89</speed>
  <fix>3d</fix>
</trkpt>
<trkpt lat="40.0713837" lon="-105.2298068">
  <ele>1582.98</ele>
  <time>2026-08-28T17:54:26Z</time>
  <course>338.47</course>
  <speed>2.0483407919582133</speed>
  <fix>3d</fix>
</trkpt>
<trkpt lat="40.0713847" lon="-105.2298073">
  <ele>1582.98</ele>
  <time>2026-08-28T17:54:26Z</time>
  <course>340.48</course>
  <speed>2.096783250600786</speed>
  <fix>3d</fix>
</trkpt>
<trkpt lat="40.0713851" lon="-105.2298075">
  <ele>1582.98</ele>
  <time>2026-08-28T17:54:26Z</time>
  <course>341.11</course>
  <speed>2.118726032312814</speed>
  <fix>3d</fix>
</trkpt>
<trkpt lat="40.0713851" lon="-105.2298075">
  <ele>1582.98</ele>
  <time>2026-08-28T17:54:26Z</time>
  <course>341.11</course>
  <speed>2.118726032312814</speed>
  <fix>3d</fix>
</trkpt>
<trkpt lat="40.0713812" lon="-105.2298054">
  <ele>1583.0</ele>
  <time>2026-08-28T17:54:26Z</time>
  <course>332.24</course>
  <speed>1.89</speed>
  <fix>3d</fix>
</trkpt>
<trkpt lat="40.0713866" lon="-105.2298081">
  <ele>1582.98</ele>
  <time>2026-08-28T17:54:26Z</time>
  <course>343.43</course>
  <speed>2.1868013169924696</speed>
  <fix>3d</fix>
</trkpt>
<trkpt lat="40.071387" lon="-105.2298082">
  <ele>1582.98</ele>
  <time>2026-08-28T17:54:26Z</time>
  <course>343.96</course>
  <speed>2.2128940327092033</speed>
  <fix>3d</fix>
</trkpt>
<trkpt lat="40.0713844" lon="-105.2298073">
  <ele>1583.0</ele>
  <time>2026-08-28T17:54:26Z</time>
  <course>339.6</course>
  <speed>2.07</speed>
  <fix>3d</fix>
</trkpt>
<trkpt lat="40.0713873" lon="-105.2298084">
  <ele>1582.98</ele>
  <time>2026-08-28T17:54:26Z</time>
  <course>344.48</course>
  <speed>2.2294842452908252</speed>
  <fix>3d</fix>
</trkpt>
<trkpt lat="40.0713885" lon="-105.2298088">
  <ele>1582.98</ele>
  <time>2026-08-28T17:54:26Z</time>
  <course>345.93</course>
  <speed>2.2871160880025307</speed>
  <fix>3d</fix>
</trkpt>
<trkpt lat="40.0713889" lon="-105.2298089">
  <ele>1582.97</ele>
  <time>2026-08-28T17:54:26Z</time>
  <course>346.38</course>
  <speed>2.3018470844085193</speed>
  <fix>3d</fix>
</trkpt>
<trkpt lat="40.0713889" lon="-105.2298089">
  <ele>1582.97</ele>
  <time>2026-08-28T17:54:26Z</time>
  <course>346.38</course>
  <speed>2.3018470844085193</speed>
  <fix>3d</fix>
</trkpt>
<trkpt lat="40.0713844" lon="-105.2298073">
  <ele>1583.0</ele>
  <time>2026-08-28T17:54:26Z</time>
  <course>339.6</course>
  <speed>2.07</speed>
  <fix>3d</fix>
</trkpt>
<trkpt lat="40.0713906" lon="-105.2298094">
  <ele>1582.97</ele>
  <time>2026-08-28T17:54:26Z</time>
  <course>348.05</course>
  <speed>2.3789283301520454</speed>
  <fix>3d</fix>
</trkpt>
<trkpt lat="40.071391" lon="-105.2298095">
  <ele>1582.97</ele>
  <time>2026-08-28T17:54:26Z</time>
  <course>348.44</course>
  <speed>2.396539171388609</speed>
  <fix>3d</fix>
</trkpt>
<trkpt lat="40.071391" lon="-105.2298095">
  <ele>1582.97</ele>
  <time>2026-08-28T17:54:26Z</time>
  <course>348.44</course>
  <speed>2.396539171388609</speed>
  <fix>3d</fix>
</trkpt>
<trkpt lat="40.0713881" lon="-105.2298088">
  <ele>1583.0</ele>
  <time>2026-08-28T17:54:26Z</time>
  <course>344.91</course>
  <speed>2.25</speed>
  <fix>3d</fix>
</trkpt>
<trkpt lat="40.0713927" lon="-105.2298099">
  <ele>1582.97</ele>
  <time>2026-08-28T17:54:26Z</time>
  <course>349.85</course>
  <speed>2.4677520134729907</speed>
  <fix>3d</fix>
</trkpt>
<trkpt lat="40.0713931" lon="-105.22981">
  <ele>1582.97</ele>
  <time>2026-08-28T17:54:26Z</time>
  <course>350.18</course>
  <speed>2.4857393266390586</speed>
  <fix>3d</fix>
</trkpt>
<trkpt lat="40.0713931" lon="-105.22981">
  <ele>1582.97</ele>
  <time>2026-08-28T17:54:26Z</time>
  <course>350.18</course>
  <speed>2.4857393266390586</speed>
  <fix>3d</fix>
</trkpt>
<trkpt lat="40.0713881" lon="-105.2298088">
  <ele>1583.0</ele>
  <time>2026-08-28T17:54:26Z</time>
  <course>344.91</course>
  <speed>2.25</speed>
  <fix>3d</fix>
</trkpt>
<trkpt lat="40.0713945" lon="-105.2298103">
  <ele>1582.97</ele>
  <time>2026-08-28T17:54:26Z</time>
  <course>351.1</course>
  <speed>2.55</speed>
  <fix>3d</fix>
</trkpt>
<trkpt lat="40.0713949" lon="-105.2298104">
  <ele>1582.97</ele>
  <time>2026-08-28T17:54:26Z</time>
  <course>351.39</course>
  <speed>2.5682678987987213</speed>
  <fix>3d</fix>
</trkpt>
<trkpt lat="40.0713954" lon="-105.2298105">
  <ele>1582.97</ele>
  <time>2026-08-28T17:54:26Z</time>
  <course>351.67</course>
  <speed>2.586600085053737</speed>
  <fix>3d</fix>
</trkpt>
<trkpt lat="40.0713954" lon="-105.2298105">
  <ele>1582.97</ele>
  <time>2026-08-28T17:54:26Z</time>
  <course>351.67</course>
  <speed>2.586600085053737</speed>
  <fix>3d</fix>
</trkpt>
<trkpt lat="40.0713922" lon="-105.22981">
  <ele>1583.0</ele>
  <time>2026-08-28T17:54:26Z</time>
  <course>348.75</course>
  <speed>2.43</speed>
  <fix>3d</fix>
</trkpt>
<trkpt lat="40.0713972" lon="-105.2298109">
  <ele>1582.97</ele>
  <time>2026-08-28T17:54:26Z</time>
  <course>352.71</course>
  <speed>2.6618038996139446</speed>
  <fix>3d</fix>
</trkpt>
<trkpt lat="40.0713977" lon="-105.229811">
  <ele>1582.97</ele>
  <time>2026-08-28T17:54:26Z</time>
  <course>352.94</course>
  <speed>2.680391762410861</speed>
  <fix>3d</fix>
</trkpt>
<trkpt lat="40.0713977" lon="-105.229811">
  <ele>1582.97</ele>
  <time>2026-08-28T17:54:26Z</time>
  <course>352.94</course>
  <speed>2.680391762410861</speed>
  <fix>3d</fix>
</trkpt>
<trkpt lat="40.0713922" lon="-105.22981">
  <ele>1583.0</ele>
  <time>2026-08-28T17:54:26Z</time>
  <course>348.75</course>
  <speed>2.43</speed>
  <fix>3d</fix>
</trkpt>
<trkpt lat="40.0713991" lon="-105.2298112">
  <ele>1582.97</ele>
  <time>2026-08-28T17:54:26Z</time>
  <course>353.61</course>
  <speed>2.7364941074301625</speed>
  <fix>3d</fix>
</trkpt>
<trkpt lat="40.0713996" lon="-105.2298113">
  <ele>1582.97</ele>
  <time>2026-08-28T17:54:26Z</time>
  <course>353.82</course>
  <speed>2.756374430297887</speed>
  <fix>3d</fix>
</trkpt>
<trkpt lat="40.0714001" lon="-105.2298114">
  <ele>1582.97</ele>
  <time>2026-08-28T17:54:26Z</time>
  <course>354.03</course>
  <speed>2.7751936869343012</speed>
  <fix>3d</fix>
</trkpt>
<trkpt lat="40.0714001" lon="-105.2298114">
  <ele>1582.97</ele>
  <time>2026-08-28T17:54:26Z</time>
  <course>354.03</course>
  <speed>2.7751936869343012</speed>
  <fix>3d</fix>
</trkpt>
<trkpt lat="40.0713922" lon="-105.22981">
  <ele>1583.0</ele>
  <time>2026-08-28T17:54:26Z</time>
  <course>348.75</course>
  <speed>2.43</speed>
  <fix>3d</fix>
</trkpt>
<trkpt lat="40.0714011" lon="-105.2298115">
  <ele>1582.97</ele>
  <time>2026-08-28T17:54:26Z</time>
  <course>354.42</course>
  <speed>2.813965173913849</speed>
  <fix>3d</fix>
</trkpt>
<trkpt lat="40.0714016" lon="-105.2298116">
  <ele>1582.98</ele>
  <time>2026-08-28T17:54:26Z</time>
  <course>354.6</course>
  <speed>2.832896044686427</speed>
  <fix>3d</fix>
</trkpt>
<trkpt lat="40.0714021" lon="-105.2298116">
  <ele>1582.98</ele>
  <time>2026-08-28T17:54:26Z</time>
  <course>354.78</course>
  <speed>2.8518765751694093</speed>
  <fix>3d</fix>
</trkpt>
<trkpt lat="40.0714026" lon="-105.2298117">
  <ele>1582.98</ele>
  <time>2026-08-28T17:54:26Z</time>
  <course>354.95</course>
  <speed>2.8717938644686876</speed>
  <fix>3d</fix>
</trkpt>
<trkpt lat="40.0714026" lon="-105.2298117">
  <ele>1582.98</ele>
  <time>2026-08-28T17:54:26Z</time>
  <course>354.95</course>
  <speed>2.8717938644686876</speed>
  <fix>3d</fix>
</trkpt>
<trkpt lat="40.0713967" lon="-105.229811">
  <ele>1583.0</ele>
  <time>2026-08-28T17:54:26Z</time>
  <course>351.54</course>
  <speed>2.61</speed>
  <fix>3d</fix>
</trkpt>
<trkpt lat="40.0714041" lon="-105.2298119">
  <ele>1582.98</ele>
  <time>2026-08-28T17:54:26Z</time>
  <course>355.45</course>
  <speed>2.929846412356798</speed>
  <fix>3d</fix>
</trkpt>
<trkpt lat="40.0714046" lon="-105.229812">
  <ele>1582.98</ele>
  <time>2026-08-28T17:54:26Z</time>
  <course>355.6</course>
  <speed>2.9489828755013145</speed>
  <fix>3d</fix>
</trkpt>
<trkpt lat="40.0714052" lon="-105.229812">
  <ele>1582.98</ele>
  <time>2026-08-28T17:54:26Z</time>
  <course>355.75</course>
  <speed>2.968922363417407</speed>
  <fix>3d</fix>
</trkpt>
<trkpt lat="40.0714052" lon="-105.229812">
  <ele>1582.98</ele>
  <time>2026-08-28T17:54:26Z</time>
  <course>355.75</course>
  <speed>2.968922363417407</speed>
  <fix>3d</fix>
</trkpt>
<trkpt lat="40.0713967" lon="-105.229811">
  <ele>1583.0</ele>
  <time>2026-08-28T17:54:26Z</time>
  <course>351.54</course>
  <speed>2.61</speed>
  <fix>3d</fix>
</trkpt>
<trkpt lat="40.0714067" lon="-105.2298122">
  <ele>1582.98</ele>
  <time>2026-08-28T17:54:26Z</time>
  <course>356.17</course>
  <speed>3.0272925197278173</speed>
  <fix>3d</fix>
</trkpt>
<trkpt lat="40.0714073" lon="-105.2298123">
  <ele>1582.98</ele>
  <time>2026-08-28T17:54:26Z</time>
  <course>356.3</course>
  <speed>3.047244657063164</speed>
  <fix>3d</fix>
</trkpt>
<trkpt lat="40.0714078" lon="-105.2298123">
  <ele>1582.98</ele>
  <time>2026-08-28T17:54:26Z</time>
  <course>356.42</course>
  <speed>3.066528982416439</speed>
  <fix>3d</fix>
</trkpt>
<trkpt lat="40.0714078" lon="-105.2298123">
  <ele>1582.98</ele>
  <time>2026-08-28T17:54:26Z</time>
  <course>356.42</course>
  <speed>3.066528982416439</speed>
  <fix>3d</fix>
</trkpt>
<trkpt lat="40.0714016" lon="-105.2298118">
  <ele>1583.0</ele>
  <time>2026-08-28T17:54:26Z</time>
  <course>353.59</course>
  <speed>2.8</speed>
  <fix>3d</fix>
</trkpt>
<trkpt lat="40.07141" lon="-105.2298125">
  <ele>1582.98</ele>
  <time>2026-08-28T17:54:26Z</time>
  <course>356.9</course>
  <speed>3.14574315544038</speed>
  <fix>3d</fix>
</trkpt>
<trkpt lat="40.0714106" lon="-105.2298126">
  <ele>1582.97</ele>
  <time>2026-08-28T17:54:26Z</time>
  <course>357.0</course>
  <speed>3.165122430491434</speed>
  <fix>3d</fix>
</trkpt>
<trkpt lat="40.0714106" lon="-105.2298126">
  <ele>1582.97</ele>
  <time>2026-08-28T17:54:26Z</time>
  <course>357.0</course>
  <speed>3.165122430491434</speed>
  <fix>3d</fix>
</trkpt>
<trkpt lat="40.0714016" lon="-105.2298118">
  <ele>1583.0</ele>
  <time>2026-08-28T17:54:26Z</time>
  <course>353.59</course>
  <speed>2.8</speed>
  <fix>3d</fix>
</trkpt>
<trkpt lat="40.0714122" lon="-105.2298127">
  <ele>1582.97</ele>
  <time>2026-08-28T17:54:26Z</time>
  <course>357.31</course>
  <speed>3.2244844549167855</speed>
  <fix>3d</fix>
</trkpt>
<trkpt lat="40.0714128" lon="-105.2298128">
  <ele>1582.97</ele>
  <time>2026-08-28T17:54:26Z</time>
  <course>357.41</course>
  <speed>3.244456811239749</speed>
  <fix>3d</fix>
</trkpt>
<trkpt lat="40.0714134" lon="-105.2298128">
  <ele>1582.97</ele>
  <time>2026-08-28T17:54:26Z</time>
  <course>357.5</course>
  <speed>3.2539360780445583</speed>
  <fix>3d</fix>
</trkpt>
<trkpt lat="40.0714134" lon="-105.2298128">
  <ele>1582.97</ele>
  <time>2026-08-28T17:54:26Z</time>
  <course>357.5</course>
  <speed>3.2539360780445583</speed>
  <fix>3d</fix>
</trkpt>
<trkpt lat="40.0714068" lon="-105.2298126">
  <ele>1583.0</ele>
  <time>2026-08-28T17:54:26Z</time>
  <course>355.08</course>
  <speed>3.0</speed>
  <fix>3d</fix>
</trkpt>
<trkpt lat="40.0714151" lon="-105.229813">
  <ele>1582.97</ele>
  <time>2026-08-28T17:54:26Z</time>
  <course>357.77</course>
  <speed>3.3233868267175883</speed>
  <fix>3d</fix>
</trkpt>
<trkpt lat="40.0714157" lon="-105.229813">
  <ele>1582.97</ele>
  <time>2026-08-28T17:54:26Z</time>
  <course>357.85</course>
  <speed>3.3433665668005954</speed>
  <fix>3d</fix>
</trkpt>
<trkpt lat="40.0714163" lon="-105.229813">
  <ele>1582.97</ele>
  <time>2026-08-28T17:54:26Z</time>
  <course>357.93</course>
  <speed>3.363346547711074</speed>
  <fix>3d</fix>
</trkpt>
<trkpt lat="40.0714163" lon="-105.229813">
  <ele>1582.97</ele>
  <time>2026-08-28T17:54:26Z</time>
  <course>357.93</course>
  <speed>3.363346547711074</speed>
  <fix>3d</fix>
</trkpt>
<trkpt lat="40.0714123" lon="-105.2298131">
  <ele>1583.0</ele>
  <time>2026-08-28T17:54:26Z</time>
  <course>356.17</course>
  <speed>3.19</speed>
  <fix>3d</fix>
</trkpt>
<trkpt lat="40.0714187" lon="-105.2298132">
  <ele>1582.97</ele>
  <time>2026-08-28T17:54:26Z</time>
  <course>358.22</course>
  <speed>3.4428476585524375</speed>
  <fix>3d</fix>
</trkpt>
<trkpt lat="40.0714193" lon="-105.2298133">
  <ele>1582.97</ele>
  <time>2026-08-28T17:54:26Z</time>
  <course>358.29</course>
  <speed>3.462441335243097</speed>
  <fix>3d</fix>
</trkpt>
<trkpt lat="40.0714193" lon="-105.2298133">
  <ele>1582.97</ele>
  <time>2026-08-28T17:54:26Z</time>
  <course>358.29</course>
  <speed>3.462441335243097</speed>
  <fix>3d</fix>
</trkpt>
<trkpt lat="40.0714123" lon="-105.2298131">
  <ele>1583.0</ele>
  <time>2026-08-28T17:54:26Z</time>
  <course>356.17</course>
  <speed>3.19</speed>
  <fix>3d</fix>
</trkpt>
<trkpt lat="40.0714212" lon="-105.2298134">
  <ele>1582.97</ele>
  <time>2026-08-28T17:54:26Z</time>
  <course>358.48</course>
  <speed>3.52239975017033</speed>
  <fix>3d</fix>
</trkpt>
<trkpt lat="40.0714218" lon="-105.2298134">
  <ele>1582.97</ele>
  <time>2026-08-28T17:54:26Z</time>
  <course>358.54</course>
  <speed>3.542033314354906</speed>
  <fix>3d</fix>
</trkpt>
<trkpt lat="40.0714225" lon="-105.2298135">
  <ele>1582.97</ele>
  <time>2026-08-28T17:54:26Z</time>
  <course>358.59</course>
  <speed>3.5620218977429094</speed>
  <fix>3d</fix>
</trkpt>
<trkpt lat="40.0714225" lon="-105.2298135">
  <ele>1582.97</ele>
  <time>2026-08-28T17:54:26Z</time>
  <course>358.59</course>
  <speed>3.5620218977429094</speed>
  <fix>3d</fix>
</trkpt>
<trkpt lat="40.0714182" lon="-105.2298136">
  <ele>1583.0</ele>
  <time>2026-08-28T17:54:26Z</time>
  <course>356.97</course>
  <speed>3.39</speed>
  <fix>3d</fix>
</trkpt>
<trkpt lat="40.0714244" lon="-105.2298136">
  <ele>1582.97</ele>
  <time>2026-08-28T17:54:26Z</time>
  <course>358.76</course>
  <speed>3.621988404178014</speed>
  <fix>3d</fix>
</trkpt>
<trkpt lat="40.071425" lon="-105.2298136">
  <ele>1582.97</ele>
  <time>2026-08-28T17:54:26Z</time>
  <course>358.8</course>
  <speed>3.6416617086159992</speed>
  <fix>3d</fix>
</trkpt>
<trkpt lat="40.0714257" lon="-105.2298137">
  <ele>1582.97</ele>
  <time>2026-08-28T17:54:26Z</time>
  <course>358.85</course>
  <speed>3.6616526323505894</speed>
  <fix>3d</fix>
</trkpt>
<trkpt lat="40.0714257" lon="-105.2298137">
  <ele>1582.97</ele>
  <time>2026-08-28T17:54:26Z</time>
  <course>358.85</course>
  <speed>3.6616526323505894</speed>
  <fix>3d</fix>
</trkpt>
<trkpt lat="40.0714182" lon="-105.2298136">
  <ele>1583.0</ele>
  <time>2026-08-28T17:54:26Z</time>
  <course>356.97</course>
  <speed>3.39</speed>
  <fix>3d</fix>
</trkpt>
<trkpt lat="40.0714283" lon="-105.2298138">
  <ele>1582.98</ele>
  <time>2026-08-28T17:54:26Z</time>
  <course>359.02</course>
  <speed>3.7416172973728887</speed>
  <fix>3d</fix>
</trkpt>
<trkpt lat="40.071429" lon="-105.2298138">
  <ele>1582.98</ele>
  <time>2026-08-28T17:54:26Z</time>
  <course>359.06</course>
  <speed>3.761329552166361</speed>
  <fix>3d</fix>
</trkpt>
<trkpt lat="40.071429" lon="-105.2298138">
  <ele>1582.98</ele>
  <time>2026-08-28T17:54:26Z</time>
  <course>359.06</course>
  <speed>3.761329552166361</speed>
  <fix>3d</fix>
</trkpt>
<trkpt lat="40.0714245" lon="-105.229814">
  <ele>1583.0</ele>
  <time>2026-08-28T17:54:26Z</time>
  <course>357.55</course>
  <speed>3.6</speed>
  <fix>3d</fix>
</trkpt>
<trkpt lat="40.0714317" lon="-105.229814">
  <ele>1582.98</ele>
  <time>2026-08-28T17:54:26Z</time>
  <course>359.22</course>
  <speed>3.851298482330342</speed>
  <fix>3d</fix>
</trkpt>
<trkpt lat="40.0714324" lon="-105.229814">
  <ele>1582.98</ele>
  <time>2026-08-28T17:54:26Z</time>
  <course>359.25</course>
  <speed>3.8712917740723185</speed>
  <fix>3d</fix>
</trkpt>
<trkpt lat="40.0714324" lon="-105.229814">
  <ele>1582.98</ele>
  <time>2026-08-28T17:54:26Z</time>
  <course>359.25</course>
  <speed>3.8712917740723185</speed>
  <fix>3d</fix>
</trkpt>
<trkpt lat="40.0714245" lon="-105.229814">
  <ele>1583.0</ele>
  <time>2026-08-28T17:54:26Z</time>
  <course>357.55</course>
  <speed>3.6</speed>
  <fix>3d</fix>
</trkpt>
<trkpt lat="40.0714345" lon="-105.2298141">
  <ele>1582.98</ele>
  <time>2026-08-28T17:54:26Z</time>
  <course>359.34</course>
  <speed>3.9310303992719264</speed>
  <fix>3d</fix>
</trkpt>
<trkpt lat="40.0714352" lon="-105.2298141">
  <ele>1582.98</ele>
  <time>2026-08-28T17:54:26Z</time>
  <course>359.37</course>
  <speed>3.95102518341759</speed>
  <fix>3d</fix>
</trkpt>
<trkpt lat="40.0714359" lon="-105.2298142">
  <ele>1582.98</ele>
  <time>2026-08-28T17:54:26Z</time>
  <course>359.4</course>
  <speed>3.9710200200955925</speed>
  <fix>3d</fix>
</trkpt>
<trkpt lat="40.0714359" lon="-105.2298142">
  <ele>1582.98</ele>
  <time>2026-08-28T17:54:26Z</time>
  <course>359.4</course>
  <speed>3.9710200200955925</speed>
  <fix>3d</fix>
</trkpt>
<trkpt lat="40.0714311" lon="-105.2298143">
  <ele>1583.0</ele>
  <time>2026-08-28T17:54:26Z</time>
  <course>357.97</course>
  <speed>3.8</speed>
  <fix>3d</fix>
</trkpt>
<trkpt lat="40.0714381" lon="-105.2298143">
  <ele>1582.99</ele>
  <time>2026-08-28T17:54:26Z</time>
  <course>359.49</course>
  <speed>4.0310048375064005</speed>
  <fix>3d</fix>
</trkpt>
<trkpt lat="40.0714388" lon="-105.2298143">
  <ele>1582.99</ele>
  <time>2026-08-28T17:54:26Z</time>
  <course>359.52</course>
  <speed>4.050999876573684</speed>
  <fix>3d</fix>
</trkpt>
<trkpt lat="40.0714396" lon="-105.2298143">
  <ele>1582.99</ele>
  <time>2026-08-28T17:54:26Z</time>
  <course>359.54</course>
  <speed>4.0809925263347395</speed>
  <fix>3d</fix>
</trkpt>
<trkpt lat="40.0714396" lon="-105.2298143">
  <ele>1582.99</ele>
  <time>2026-08-28T17:54:26Z</time>
  <course>359.54</course>
  <speed>4.0809925263347395</speed>
  <fix>3d</fix>
</trkpt>
<trkpt lat="40.0714311" lon="-105.2298143">
  <ele>1583.0</ele>
  <time>2026-08-28T17:54:26Z</time>
  <course>357.97</course>
  <speed>3.8</speed>
  <fix>3d</fix>
</trkpt>
<trkpt lat="40.071441" lon="-105.2298144">
  <ele>1582.99</ele>
  <time>2026-08-28T17:54:26Z</time>
  <course>359.58</course>
  <speed>4.12098289246631</speed>
  <fix>3d</fix>
</trkpt>
<trkpt lat="40.0714418" lon="-105.2298144">
  <ele>1582.99</ele>
  <time>2026-08-28T17:54:26Z</time>
  <course>359.6</course>
  <speed>4.140978145317843</speed>
  <fix>3d</fix>
</trkpt>
<trkpt lat="40.0714425" lon="-105.2298144">
  <ele>1582.99</ele>
  <time>2026-08-28T17:54:26Z</time>
  <course>359.62</course>
  <speed>4.16076915966267</speed>
  <fix>3d</fix>
</trkpt>
<trkpt lat="40.0714433" lon="-105.2298145">
  <ele>1582.99</ele>
  <time>2026-08-28T17:54:26Z</time>
  <course>359.65</course>
  <speed>4.1807654801483425</speed>
  <fix>3d</fix>
</trkpt>
<trkpt lat="40.0714433" lon="-105.2298145">
  <ele>1582.99</ele>
  <time>2026-08-28T17:54:26Z</time>
  <course>359.65</course>
  <speed>4.1807654801483425</speed>
  <fix>3d</fix>
</trkpt>
<trkpt lat="40.0714381" lon="-105.2298146">
  <ele>1583.0</ele>
  <time>2026-08-28T17:54:26Z</time>
  <course>358.27</course>
  <speed>4.01</speed>
  <fix>3d</fix>
</trkpt>
<trkpt lat="40.0714463" lon="-105.2298146">
  <ele>1582.99</ele>
  <time>2026-08-28T17:54:26Z</time>
  <course>359.73</course>
  <speed>4.260751107492669</speed>
  <fix>3d</fix>
</trkpt>
<trkpt lat="40.071447" lon="-105.2298146">
  <ele>1582.99</ele>
  <time>2026-08-28T17:54:26Z</time>
  <course>359.75</course>
  <speed>4.280747598258976</speed>
  <fix>3d</fix>
</trkpt>
<trkpt lat="40.071447" lon="-105.2298146">
  <ele>1582.99</ele>
  <time>2026-08-28T17:54:26Z</time>
  <course>359.75</course>
  <speed>4.280747598258976</speed>
  <fix>3d</fix>
</trkpt>
<trkpt lat="40.0714381" lon="-105.2298146">
  <ele>1583.0</ele>
  <time>2026-08-28T17:54:26Z</time>
  <course>358.27</course>
  <speed>4.01</speed>
  <fix>3d</fix>
</trkpt>
<trkpt lat="40.0714494" lon="-105.2298147">
  <ele>1582.99</ele>
  <time>2026-08-28T17:54:26Z</time>
  <course>359.82</course>
  <speed>4.340737264566931</speed>
  <fix>3d</fix>
</trkpt>
<trkpt lat="40.0714501" lon="-105.2298147">
  <ele>1582.99</ele>
  <time>2026-08-28T17:54:26Z</time>
  <course>359.84</course>
  <speed>4.360733883189846</speed>
  <fix>3d</fix>
</trkpt>
<trkpt lat="40.0714509" lon="-105.2298147">
  <ele>1582.99</ele>
  <time>2026-08-28T17:54:26Z</time>
  <course>359.86</course>
  <speed>4.38073053268516</speed>
  <fix>3d</fix>
</trkpt>
<trkpt lat="40.0714509" lon="-105.2298147">
  <ele>1582.99</ele>
  <time>2026-08-28T17:54:26Z</time>
  <course>359.86</course>
  <speed>4.38073053268516</speed>
  <fix>3d</fix>
</trkpt>
<trkpt lat="40.0714455" lon="-105.2298148">
  <ele>1583.0</ele>
  <time>2026-08-28T17:54:26Z</time>
  <course>358.52</course>
  <speed>4.21</speed>
  <fix>3d</fix>
</trkpt>
<trkpt lat="40.0714533" lon="-105.2298148">
  <ele>1582.99</ele>
  <time>2026-08-28T17:54:26Z</time>
  <course>359.89</course>
  <speed>4.440720662234904</speed>
  <fix>3d</fix>
</trkpt>
<trkpt lat="40.0714541" lon="-105.2298149">
  <ele>1582.99</ele>
  <time>2026-08-28T17:54:26Z</time>
  <course>359.91</course>
  <speed>4.460717431086619</speed>
  <fix>3d</fix>
</trkpt>
<trkpt lat="40.0714549" lon="-105.2298149">
  <ele>1582.99</ele>
  <time>2026-08-28T17:54:26Z</time>
  <course>359.92</course>
  <speed>4.4807142287809425</speed>
  <fix>3d</fix>
</trkpt>
<trkpt lat="40.0714549" lon="-105.2298149">
  <ele>1582.99</ele>
  <time>2026-08-28T17:54:26Z</time>
  <course>359.92</course>
  <speed>4.4807142287809425</speed>
  <fix>3d</fix>
</trkpt>
<trkpt lat="40.0714455" lon="-105.2298148">
  <ele>1583.0</ele>
  <time>2026-08-28T17:54:26Z</time>
  <course>358.52</course>
  <speed>4.21</speed>
  <fix>3d</fix>
</trkpt>
<trkpt lat="40.0714573" lon="-105.229815">
  <ele>1583.0</ele>
  <time>2026-08-28T17:54:26Z</time>
  <course>359.95</course>
  <speed>4.550538429680603</speed>
  <fix>3d</fix>
</trkpt>
<trkpt lat="40.0714581" lon="-105.229815">
  <ele>1583.0</ele>
  <time>2026-08-28T17:54:26Z</time>
  <course>359.96</course>
  <speed>4.570536073591368</speed>
  <fix>3d</fix>
</trkpt>
<trkpt lat="40.0714589" lon="-105.229815">
  <ele>1583.0</ele>
  <time>2026-08-28T17:54:26Z</time>
  <course>359.97</course>
  <speed>4.5905337380309055</speed>
  <fix>3d</fix>
</trkpt>
<trkpt lat="40.0714589" lon="-105.229815">
  <ele>1583.0</ele>
  <time>2026-08-28T17:54:26Z</time>
  <course>359.97</course>
  <speed>4.5905337380309055</speed>
  <fix>3d</fix>
</trkpt>
<trkpt lat="40.0714533" lon="-105.2298151">
  <ele>1583.0</ele>
  <time>2026-08-28T17:54:26Z</time>
  <course>358.69</course>
  <speed>4.41</speed>
  <fix>3d</fix>
</trkpt>
<trkpt lat="40.0714623" lon="-105.2298151">
  <ele>1583.0</ele>
  <time>2026-08-28T17:54:26Z</time>
  <course>0.01</course>
  <speed>4.670524595802917</speed>
  <fix>3d</fix>
</trkpt>
<trkpt lat="40.0714631" lon="-105.2298151">
  <ele>1583.0</ele>
  <time>2026-08-28T17:54:26Z</time>
  <course>0.02</course>
  <speed>4.690522358970267</speed>
  <fix>3d</fix>
</trkpt>
<trkpt lat="40.0714631" lon="-105.2298151">
  <ele>1583.0</ele>
  <time>2026-08-28T17:54:26Z</time>
  <course>0.02</course>
  <speed>4.690522358970267</speed>
  <fix>3d</fix>
</trkpt>
<trkpt lat="40.0714533" lon="-105.2298151">
  <ele>1583.0</ele>
  <time>2026-08-28T17:54:26Z</time>
  <course>358.69</course>
  <speed>4.41</speed>
  <fix>3d</fix>
</trkpt>
<trkpt lat="40.0714656" lon="-105.2298152">
  <ele>1583.0</ele>
  <time>2026-08-28T17:54:26Z</time>
  <course>0.05</course>
  <speed>4.750515761472642</speed>
  <fix>3d</fix>
</trkpt>
<trkpt lat="40.0714665" lon="-105.2298152">
  <ele>1583.0</ele>
  <time>2026-08-28T17:54:26Z</time>
  <course>0.07</course>
  <speed>4.770513599184054</speed>
  <fix>3d</fix>
</trkpt>
<trkpt lat="40.0714673" lon="-105.2298152">
  <ele>1583.0</ele>
  <time>2026-08-28T17:54:26Z</time>
  <course>0.08</course>
  <speed>4.790511454949252</speed>
  <fix>3d</fix>
</trkpt>
<trkpt lat="40.0714673" lon="-105.2298152">
  <ele>1583.0</ele>
  <time>2026-08-28T17:54:26Z</time>
  <course>0.08</course>
  <speed>4.790511454949252</speed>
  <fix>3d</fix>
</trkpt>
<trkpt lat="40.0714533" lon="-105.2298151">
  <ele>1583.0</ele>
  <time>2026-08-28T17:54:26Z</time>
  <course>358.69</course>
  <speed>4.41</speed>
  <fix>3d</fix>
</trkpt>
<trkpt lat="40.0714699" lon="-105.2298153">
  <ele>1583.0</ele>
  <time>2026-08-28T17:54:26Z</time>
  <course>0.11</course>
  <speed>4.850505128334574</speed>
  <fix>3d</fix>
</trkpt>
<trkpt lat="40.0714708" lon="-105.2298153">
  <ele>1583.0</ele>
  <time>2026-08-28T17:54:26Z</time>
  <course>0.13</course>
  <speed>4.870503054100264</speed>
  <fix>3d</fix>
</trkpt>
<trkpt lat="40.0714716" lon="-105.2298154">
  <ele>1583.0</ele>
  <time>2026-08-28T17:54:26Z</time>
  <course>0.14</course>
  <speed>4.890500996830488</speed>
  <fix>3d</fix>
</trkpt>
<trkpt lat="40.0714716" lon="-105.2298154">
  <ele>1583.0</ele>
  <time>2026-08-28T17:54:26Z</time>
  <course>0.14</course>
  <speed>4.890500996830488</speed>
  <fix>3d</fix>
</trkpt>
<trkpt lat="40.0714614" lon="-105.2298153">
  <ele>1583.0</ele>
  <time>2026-08-28T17:54:26Z</time>
  <course>358.81</course>
  <speed>4.62</speed>
  <fix>3d</fix>
</trkpt>
<trkpt lat="40.0714742" lon="-105.2298154">
  <ele>1583.0</ele>
  <time>2026-08-28T17:54:26Z</time>
  <course>0.17</course>
  <speed>4.950494924752474</speed>
  <fix>3d</fix>
</trkpt>
<trkpt lat="40.0714751" lon="-105.2298154">
  <ele>1583.0</ele>
  <time>2026-08-28T17:54:26Z</time>
  <course>0.19</course>
  <speed>4.960493927019768</speed>
  <fix>3d</fix>
</trkpt>
<trkpt lat="40.071476" lon="-105.2298155">
  <ele>1583.0</ele>
  <time>2026-08-28T17:54:26Z</time>
  <course>0.2</course>
  <speed>4.980491943573446</speed>
  <fix>3d</fix>
</trkpt>
<trkpt lat="40.071476" lon="-105.2298155">
  <ele>1583.0</ele>
  <time>2026-08-28T17:54:26Z</time>
  <course>0.2</course>
  <speed>4.980491943573446</speed>
  <fix>3d</fix>
</trkpt>
<trkpt lat="40.0714614" lon="-105.2298153">
  <ele>1583.0</ele>
  <time>2026-08-28T17:54:26Z</time>
  <course>358.81</course>
  <speed>4.62</speed>
  <fix>3d</fix>
</trkpt>
<trkpt lat="40.0714787" lon="-105.2298155">
  <ele>1583.0</ele>
  <time>2026-08-28T17:54:26Z</time>
  <course>0.22</course>
  <speed>5.040486087670513</speed>
  <fix>3d</fix>
</trkpt>
<trkpt lat="40.0714795" lon="-105.2298156">
  <ele>1583.0</ele>
  <time>2026-08-28T17:54:26Z</time>
  <course>0.24</course>
  <speed>5.06048416655956</speed>
  <fix>3d</fix>
</trkpt>
<trkpt lat="40.0714804" lon="-105.2298156">
  <ele>1583.0</ele>
  <time>2026-08-28T17:54:26Z</time>
  <course>0.25</course>
  <speed>5.0803543183522155</speed>
  <fix>3d</fix>
</trkpt>
<trkpt lat="40.0714804" lon="-105.2298156">
  <ele>1583.0</ele>
  <time>2026-08-28T17:54:26Z</time>
  <course>0.25</course>
  <speed>5.0803543183522155</speed>
  <fix>3d</fix>
</trkpt>
<trkpt lat="40.0714699" lon="-105.2298156">
  <ele>1583.0</ele>
  <time>2026-08-28T17:54:26Z</time>
  <course>358.94</course>
  <speed>4.82</speed>
  <fix>3d</fix>
</trkpt>
<trkpt lat="40.0714831" lon="-105.2298156">
  <ele>1583.0</ele>
  <time>2026-08-28T17:54:26Z</time>
  <course>0.27</course>
  <speed>5.130350865194309</speed>
  <fix>3d</fix>
</trkpt>
<trkpt lat="40.0714841" lon="-105.2298157">
  <ele>1583.0</ele>
  <time>2026-08-28T17:54:26Z</time>
  <course>0.27</course>
  <speed>5.150349502703676</speed>
  <fix>3d</fix>
</trkpt>
<trkpt lat="40.071485" lon="-105.2298157">
  <ele>1583.0</ele>
  <time>2026-08-28T17:54:26Z</time>
  <course>0.28</course>
  <speed>5.170348150753487</speed>
  <fix>3d</fix>
</trkpt>
<trkpt lat="40.071485" lon="-105.2298157">
  <ele>1583.0</ele>
  <time>2026-08-28T17:54:26Z</time>
  <course>0.28</course>
  <speed>5.170348150753487</speed>
  <fix>3d</fix>
</trkpt>
<trkpt lat="40.0714699" lon="-105.2298156">
  <ele>1583.0</ele>
  <time>2026-08-28T17:54:26Z</time>
  <course>358.94</course>
  <speed>4.82</speed>
  <fix>3d</fix>
</trkpt>
<trkpt lat="40.0714877" lon="-105.2298157">
  <ele>1583.0</ele>
  <time>2026-08-28T17:54:26Z</time>
  <course>0.32</course>
  <speed>5.210345477988959</speed>
  <fix>3d</fix>
</trkpt>
<trkpt lat="40.0714886" lon="-105.2298158">
  <ele>1583.0</ele>
  <time>2026-08-28T17:54:26Z</time>
  <course>0.33</course>
  <speed>5.220344816197489</speed>
  <fix>3d</fix>
</trkpt>
<trkpt lat="40.0714895" lon="-105.2298158">
  <ele>1583.0</ele>
  <time>2026-08-28T17:54:26Z</time>
  <course>0.33</course>
  <speed>5.23034415693652</speed>
  <fix>3d</fix>
</trkpt>
<trkpt lat="40.0714895" lon="-105.2298158">
  <ele>1583.0</ele>
  <time>2026-08-28T17:54:26Z</time>
  <course>0.33</course>
  <speed>5.23034415693652</speed>
  <fix>3d</fix>
</trkpt>
<trkpt lat="40.0714787" lon="-105.2298157">
  <ele>1583.0</ele>
  <time>2026-08-28T17:54:26Z</time>
  <course>359.05</course>
  <speed>5.02</speed>
  <fix>3d</fix>
</trkpt>
<trkpt lat="40.0714933" lon="-105.2298159">
  <ele>1583.0</ele>
  <time>2026-08-28T17:54:26Z</time>
  <course>0.37</course>
  <speed>5.280340898086032</speed>
  <fix>3d</fix>
</trkpt>
<trkpt lat="40.0714942" lon="-105.2298159">
  <ele>1583.0</ele>
  <time>2026-08-28T17:54:26Z</time>
  <course>0.38</course>
  <speed>5.290340253707695</speed>
  <fix>3d</fix>
</trkpt>
<trkpt lat="40.0714942" lon="-105.2298159">
  <ele>1583.0</ele>
  <time>2026-08-28T17:54:26Z</time>
  <course>0.38</course>
  <speed>5.290340253707695</speed>
  <fix>3d</fix>
</trkpt>
<trkpt lat="40.0714787" lon="-105.2298157">
  <ele>1583.0</ele>
  <time>2026-08-28T17:54:26Z</time>
  <course>359.05</course>
  <speed>5.02</speed>
  <fix>3d</fix>
</trkpt>
<trkpt lat="40.0714961" lon="-105.2298159">
  <ele>1583.0</ele>
  <time>2026-08-28T17:54:26Z</time>
  <course>0.41</course>
  <speed>5.310338972231434</speed>
  <fix>3d</fix>
</trkpt>
<trkpt lat="40.071497" lon="-105.2298159">
  <ele>1583.0</ele>
  <time>2026-08-28T17:54:26Z</time>
  <course>0.41</course>
  <speed>5.320338335106142</speed>
  <fix>3d</fix>
</trkpt>
<trkpt lat="40.071498" lon="-105.2298159">
  <ele>1583.0</ele>
  <time>2026-08-28T17:54:26Z</time>
  <course>0.41</course>
  <speed>5.320338335106142</speed>
  <fix>3d</fix>
</trkpt>
<trkpt lat="40.0714989" lon="-105.229816">
  <ele>1583.0</ele>
  <time>2026-08-28T17:54:26Z</time>
  <course>0.42</course>
  <speed>5.330337700371338</speed>
  <fix>3d</fix>
</trkpt>
<trkpt lat="40.0714989" lon="-105.229816">
  <ele>1583.0</ele>
  <time>2026-08-28T17:54:26Z</time>
  <course>0.42</course>
  <speed>5.330337700371338</speed>
  <fix>3d</fix>
</trkpt>
<trkpt lat="40.071488" lon="-105.2298159">
  <ele>1583.0</ele>
  <time>2026-08-28T17:54:26Z</time>
  <course>359.16</course>
  <speed>5.18</speed>
  <fix>3d</fix>
</trkpt>
<trkpt lat="40.0715018" lon="-105.229816">
  <ele>1583.0</ele>
  <time>2026-08-28T17:54:26Z</time>
  <course>0.46</course>
  <speed>5.350336438019575</speed>
  <fix>3d</fix>
</trkpt>
<trkpt lat="40.0715027" lon="-105.229816">
  <ele>1583.0</ele>
  <time>2026-08-28T17:54:26Z</time>
  <course>0.48</course>
  <speed>5.350233639758175</speed>
  <fix>3d</fix>
</trkpt>
<trkpt lat="40.0715037" lon="-105.2298161">
  <ele>1583.0</ele>
  <time>2026-08-28T17:54:26Z</time>
  <course>0.49</course>
  <speed>5.3602332038820855</speed>
  <fix>3d</fix>
</trkpt>
<trkpt lat="40.0715037" lon="-105.2298161">
  <ele>1583.0</ele>
  <time>2026-08-28T17:54:26Z</time>
  <course>0.49</course>
  <speed>5.3602332038820855</speed>
  <fix>3d</fix>
</trkpt>
<trkpt lat="40.0714974" lon="-105.229816">
  <ele>1583.0</ele>
  <time>2026-08-28T17:54:26Z</time>
  <course>359.27</course>
  <speed>5.29</speed>
  <fix>3d</fix>
</trkpt>
<trkpt lat="40.0715065" lon="-105.2298161">
  <ele>1583.0</ele>
  <time>2026-08-28T17:54:26Z</time>
  <course>0.52</course>
  <speed>5.370232769629264</speed>
  <fix>3d</fix>
</trkpt>
<trkpt lat="40.0715075" lon="-105.2298161">
  <ele>1583.0</ele>
  <time>2026-08-28T17:54:26Z</time>
  <course>0.52</course>
  <speed>5.370232769629264</speed>
  <fix>3d</fix>
</trkpt>
<trkpt lat="40.0715085" lon="-105.2298161">
  <ele>1583.0</ele>
  <time>2026-08-28T17:54:26Z</time>
  <course>0.53</course>
  <speed>5.370232769629264</speed>
  <fix>3d</fix>
</trkpt>
<trkpt lat="40.0715085" lon="-105.2298161">
  <ele>1583.0</ele>
  <time>2026-08-28T17:54:26Z</time>
  <course>0.53</course>
  <speed>5.370232769629264</speed>
  <fix>3d</fix>
</trkpt>
<trkpt lat="40.0714974" lon="-105.229816">
  <ele>1583.0</ele>
  <time>2026-08-28T17:54:26Z</time>
  <course>359.27</course>
  <speed>5.29</speed>
  <fix>3d</fix>
</trkpt>
<trkpt lat="40.0715113" lon="-105.2298162">
  <ele>1583.0</ele>
  <time>2026-08-28T17:54:26Z</time>
  <course>0.57</course>
  <speed>5.370232769629264</speed>
  <fix>3d</fix>
</trkpt>
<trkpt lat="40.0715123" lon="-105.2298162">
  <ele>1583.0</ele>
  <time>2026-08-28T17:54:26Z</time>
  <course>0.58</course>
  <speed>5.370232769629264</speed>
  <fix>3d</fix>
</trkpt>
<trkpt lat="40.0715132" lon="-105.2298162">
  <ele>1583.0</ele>
  <time>2026-08-28T17:54:26Z</time>
  <course>0.6</course>
  <speed>5.370232769629264</speed>
  <fix>3d</fix>
</trkpt>
<trkpt lat="40.0715132" lon="-105.2298162">
  <ele>1583.0</ele>
  <time>2026-08-28T17:54:26Z</time>
  <course>0.6</course>
  <speed>5.370232769629264</speed>
  <fix>3d</fix>
</trkpt>
<trkpt lat="40.0715069" lon="-105.2298162">
  <ele>1583.0</ele>
  <time>2026-08-28T17:54:26Z</time>
  <course>359.39</course>
  <speed>5.33</speed>
  <fix>3d</fix>
</trkpt>
<trkpt lat="40.0715152" lon="-105.2298162">
  <ele>1583.0</ele>
  <time>2026-08-28T17:54:26Z</time>
  <course>0.63</course>
  <speed>5.3602332038820855</speed>
  <fix>3d</fix>
</trkpt>
<trkpt lat="40.0715171" lon="-105.2298163">
  <ele>1583.0</ele>
  <time>2026-08-28T17:54:26Z</time>
  <course>0.64</course>
  <speed>5.350233639758175</speed>
  <fix>3d</fix>
</trkpt>
<trkpt lat="40.071518" lon="-105.2298163">
  <ele>1583.0</ele>
  <time>2026-08-28T17:54:26Z</time>
  <course>0.65</course>
  <speed>5.350149530620616</speed>
  <fix>3d</fix>
</trkpt>
<trkpt lat="40.071518" lon="-105.2298163">
  <ele>1583.0</ele>
  <time>2026-08-28T17:54:26Z</time>
  <course>0.65</course>
  <speed>5.350149530620616</speed>
  <fix>3d</fix>
</trkpt>
<trkpt lat="40.0715069" lon="-105.2298162">
  <ele>1583.0</ele>
  <time>2026-08-28T17:54:26Z</time>
  <course>359.39</course>
  <speed>5.33</speed>
  <fix>3d</fix>
</trkpt>
<trkpt lat="40.0715219" lon="-105.2298163">
  <ele>1583.0</ele>
  <time>2026-08-28T17:54:26Z</time>
  <course>0.71</course>
  <speed>5.320150373814634</speed>
  <fix>3d</fix>
</trkpt>
<trkpt lat="40.0715228" lon="-105.2298163">
  <ele>1583.0</ele>
  <time>2026-08-28T17:54:26Z</time>
  <course>0.72</course>
  <speed>5.310150656996466</speed>
  <fix>3d</fix>
</trkpt>
<trkpt lat="40.0715228" lon="-105.2298163">
  <ele>1583.0</ele>
  <time>2026-08-28T17:54:26Z</time>
  <course>0.72</course>
  <speed>5.310150656996466</speed>
  <fix>3d</fix>
</trkpt>
<trkpt lat="40.0715165" lon="-105.2298163">
  <ele>1583.0</ele>
  <time>2026-08-28T17:54:26Z</time>
  <course>359.51</course>
  <speed>5.31</speed>
  <fix>3d</fix>
</trkpt>
<trkpt lat="40.0715257" lon="-105.2298164">
  <ele>1583.0</ele>
  <time>2026-08-28T17:54:26Z</time>
  <course>0.75</course>
  <speed>5.280151512977634</speed>
  <fix>3d</fix>
</trkpt>
<trkpt lat="40.0715266" lon="-105.2298164">
  <ele>1583.0</ele>
  <time>2026-08-28T17:54:26Z</time>
  <course>0.76</course>
  <speed>5.270151800470268</speed>
  <fix>3d</fix>
</trkpt>
<trkpt lat="40.0715276" lon="-105.2298164">
  <ele>1583.0</ele>
  <time>2026-08-28T17:54:26Z</time>
  <course>0.78</course>
  <speed>5.250152378741022</speed>
  <fix>3d</fix>
</trkpt>
<trkpt lat="40.0715276" lon="-105.2298164">
  <ele>1583.0</ele>
  <time>2026-08-28T17:54:26Z</time>
  <course>0.78</course>
  <speed>5.250152378741022</speed>
  <fix>3d</fix>
</trkpt>
<trkpt lat="40.0715165" lon="-105.2298163">
  <ele>1583.0</ele>
  <time>2026-08-28T17:54:26Z</time>
  <course>359.51</course>
  <speed>5.31</speed>
  <fix>3d</fix>
</trkpt>
<trkpt lat="40.0715314" lon="-105.2298164">
  <ele>1583.0</ele>
  <time>2026-08-28T17:54:26Z</time>
  <course>0.83</course>
  <speed>5.200086537741463</speed>
  <fix>3d</fix>
</trkpt>
<trkpt lat="40.0715323" lon="-105.2298164">
  <ele>1583.0</ele>
  <time>2026-08-28T17:54:26Z</time>
  <course>0.85</course>
  <speed>5.180086871858425</speed>
  <fix>3d</fix>
</trkpt>
<trkpt lat="40.0715323" lon="-105.2298164">
  <ele>1583.0</ele>
  <time>2026-08-28T17:54:26Z</time>
  <course>0.85</course>
  <speed>5.180086871858425</speed>
  <fix>3d</fix>
</trkpt>
<trkpt lat="40.071526" lon="-105.2298164">
  <ele>1583.0</ele>
  <time>2026-08-28T17:54:26Z</time>
  <course>359.64</course>
  <speed>5.22</speed>
  <fix>3d</fix>
</trkpt>
<trkpt lat="40.0715351" lon="-105.2298164">
  <ele>1583.0</ele>
  <time>2026-08-28T17:54:26Z</time>
  <course>0.88</course>
  <speed>5.13008771854829</speed>
  <fix>3d</fix>
</trkpt>
<trkpt lat="40.071536" lon="-105.2298165">
  <ele>1583.0</ele>
  <time>2026-08-28T17:54:26Z</time>
  <course>0.9</course>
  <speed>5.120087889870641</speed>
  <fix>3d</fix>
</trkpt>
<trkpt lat="40.0715369" lon="-105.2298165">
  <ele>1583.0</ele>
  <time>2026-08-28T17:54:26Z</time>
  <course>0.91</course>
  <speed>5.100088234530849</speed>
  <fix>3d</fix>
</trkpt>
<trkpt lat="40.0715369" lon="-105.2298165">
  <ele>1583.0</ele>
  <time>2026-08-28T17:54:26Z</time>
  <course>0.91</course>
  <speed>5.100088234530849</speed>
  <fix>3d</fix>
</trkpt>
<trkpt lat="40.071526" lon="-105.2298164">
  <ele>1583.0</ele>
  <time>2026-08-28T17:54:26Z</time>
  <course>359.64</course>
  <speed>5.22</speed>
  <fix>3d</fix>
</trkpt>
<trkpt lat="40.0715406" lon="-105.2298165">
  <ele>1583.0</ele>
  <time>2026-08-28T17:54:26Z</time>
  <course>0.96</course>
  <speed>5.02008964063392</speed>
  <fix>3d</fix>
</trkpt>
<trkpt lat="40.0715415" lon="-105.2298165">
  <ele>1583.0</ele>
  <time>2026-08-28T17:54:26Z</time>
  <course>0.97</course>
  <speed>5.000089999190014</speed>
  <fix>3d</fix>
</trkpt>
<trkpt lat="40.0715415" lon="-105.2298165">
  <ele>1583.0</ele>
  <time>2026-08-28T17:54:26Z</time>
  <course>0.97</course>
  <speed>5.000089999190014</speed>
  <fix>3d</fix>
</trkpt>
<trkpt lat="40.0715352" lon="-105.2298165">
  <ele>1583.0</ele>
  <time>2026-08-28T17:54:26Z</time>
  <course>359.77</course>
  <speed>5.07</speed>
  <fix>3d</fix>
</trkpt>
<trkpt lat="40.071545" lon="-105.2298165">
  <ele>1583.0</ele>
  <time>2026-08-28T17:54:26Z</time>
  <course>1.02</course>
  <speed>4.910040733028597</speed>
  <fix>3d</fix>
</trkpt>
<trkpt lat="40.0715459" lon="-105.2298165">
  <ele>1583.0</ele>
  <time>2026-08-28T17:54:26Z</time>
  <course>1.03</course>
  <speed>4.89004089962446</speed>
  <fix>3d</fix>
</trkpt>
<trkpt lat="40.0715459" lon="-105.2298165">
  <ele>1583.0</ele>
  <time>2026-08-28T17:54:26Z</time>
  <course>1.03</course>
  <speed>4.89004089962446</speed>
  <fix>3d</fix>
</trkpt>
<trkpt lat="40.0715352" lon="-105.2298165">
  <ele>1583.0</ele>
  <time>2026-08-28T17:54:26Z</time>
  <course>359.77</course>
  <speed>5.07</speed>
  <fix>3d</fix>
</trkpt>
<trkpt lat="40.0715485" lon="-105.2298165">
  <ele>1583.0</ele>
  <time>2026-08-28T17:54:26Z</time>
  <course>1.07</course>
  <speed>4.820041493597333</speed>
  <fix>3d</fix>
</trkpt>
<trkpt lat="40.0715494" lon="-105.2298165">
  <ele>1583.0</ele>
  <time>2026-08-28T17:54:26Z</time>
  <course>1.08</course>
  <speed>4.800041666485823</speed>
  <fix>3d</fix>
</trkpt>
<trkpt lat="40.0715502" lon="-105.2298165">
  <ele>1583.0</ele>
  <time>2026-08-28T17:54:26Z</time>
  <course>1.09</course>
  <speed>4.780041840821061</speed>
  <fix>3d</fix>
</trkpt>
<trkpt lat="40.0715502" lon="-105.2298165">
  <ele>1583.0</ele>
  <time>2026-08-28T17:54:26Z</time>
  <course>1.09</course>
  <speed>4.780041840821061</speed>
  <fix>3d</fix>
</trkpt>
<trkpt lat="40.0715442" lon="-105.2298165">
  <ele>1583.0</ele>
  <time>2026-08-28T17:54:26Z</time>
  <course>359.9</course>
  <speed>4.87</speed>
  <fix>3d</fix>
</trkpt>
<trkpt lat="40.0715519" lon="-105.2298166">
  <ele>1583.0</ele>
  <time>2026-08-28T17:54:26Z</time>
  <course>1.11</course>
  <speed>4.730042283109105</speed>
  <fix>3d</fix>
</trkpt>
<trkpt lat="40.0715528" lon="-105.2298166">
  <ele>1583.0</ele>
  <time>2026-08-28T17:54:26Z</time>
  <course>1.12</course>
  <speed>4.700042552998855</speed>
  <fix>3d</fix>
</trkpt>
<trkpt lat="40.0715536" lon="-105.2298166">
  <ele>1583.0</ele>
  <time>2026-08-28T17:54:26Z</time>
  <course>1.13</course>
  <speed>4.6700428263560925</speed>
  <fix>3d</fix>
</trkpt>
<trkpt lat="40.0715544" lon="-105.2298166">
  <ele>1583.0</ele>
  <time>2026-08-28T17:54:26Z</time>
  <course>1.14</course>
  <speed>4.650043010553773</speed>
  <fix>3d</fix>
</trkpt>
<trkpt lat="40.0715544" lon="-105.2298166">
  <ele>1583.0</ele>
  <time>2026-08-28T17:54:26Z</time>
  <course>1.14</course>
  <speed>4.650043010553773</speed>
  <fix>3d</fix>
</trkpt>
<trkpt lat="40.0715442" lon="-105.2298165">
  <ele>1583.0</ele>
  <time>2026-08-28T17:54:26Z</time>
  <course>359.9</course>
  <speed>4.87</speed>
  <fix>3d</fix>
</trkpt>
<trkpt lat="40.0715577" lon="-105.2298166">
  <ele>1583.01</ele>
  <time>2026-08-28T17:54:26Z</time>
  <course>1.19</course>
  <speed>4.550010988997719</speed>
  <fix>3d</fix>
</trkpt>
<trkpt lat="40.0715585" lon="-105.2298166">
  <ele>1583.01</ele>
  <time>2026-08-28T17:54:26Z</time>
  <course>1.2</course>
  <speed>4.520011061933367</speed>
  <fix>3d</fix>
</trkpt>
<trkpt lat="40.0715585" lon="-105.2298166">
  <ele>1583.01</ele>
  <time>2026-08-28T17:54:26Z</time>
  <course>1.2</course>
  <speed>4.520011061933367</speed>
  <fix>3d</fix>
</trkpt>
<trkpt lat="40.0715527" lon="-105.2298165">
  <ele>1583.0</ele>
  <time>2026-08-28T17:54:26Z</time>
  <course>0.03</course>
  <speed>4.64</speed>
  <fix>3d</fix>
</trkpt>
<trkpt lat="40.0715617" lon="-105.2298166">
  <ele>1583.01</ele>
  <time>2026-08-28T17:54:26Z</time>
  <course>1.24</course>
  <speed>4.410011337853906</speed>
  <fix>3d</fix>
</trkpt>
<trkpt lat="40.0715625" lon="-105.2298166">
  <ele>1583.01</ele>
  <time>2026-08-28T17:54:26Z</time>
  <course>1.25</course>
  <speed>4.380011415510238</speed>
  <fix>3d</fix>
</trkpt>
<trkpt lat="40.0715625" lon="-105.2298166">
  <ele>1583.01</ele>
  <time>2026-08-28T17:54:26Z</time>
  <course>1.25</course>
  <speed>4.380011415510238</speed>
  <fix>3d</fix>
</trkpt>
<trkpt lat="40.0715527" lon="-105.2298165">
  <ele>1583.0</ele>
  <time>2026-08-28T17:54:26Z</time>
  <course>0.03</course>
  <speed>4.64</speed>
  <fix>3d</fix>
</trkpt>
<trkpt lat="40.0715656" lon="-105.2298166">
  <ele>1583.01</ele>
  <time>2026-08-28T17:54:26Z</time>
  <course>1.28</course>
  <speed>4.270011709585818</speed>
  <fix>3d</fix>
</trkpt>
<trkpt lat="40.0715664" lon="-105.2298166">
  <ele>1583.01</ele>
  <time>2026-08-28T17:54:26Z</time>
  <course>1.29</course>
  <speed>4.240011792436431</speed>
  <fix>3d</fix>
</trkpt>
<trkpt lat="40.0715664" lon="-105.2298166">
  <ele>1583.01</ele>
  <time>2026-08-28T17:54:26Z</time>
  <course>1.29</course>
  <speed>4.240011792436431</speed>
  <fix>3d</fix>
</trkpt>
<trkpt lat="40.0715527" lon="-105.2298165">
  <ele>1583.0</ele>
  <time>2026-08-28T17:54:26Z</time>
  <course>0.03</course>
  <speed>4.64</speed>
  <fix>3d</fix>
</trkpt>
<trkpt lat="40.0715686" lon="-105.2298166">
  <ele>1583.01</ele>
  <time>2026-08-28T17:54:26Z</time>
  <course>1.32</course>
  <speed>4.160012019213406</speed>
  <fix>3d</fix>
</trkpt>
<trkpt lat="40.0715693" lon="-105.2298166">
  <ele>1583.01</ele>
  <time>2026-08-28T17:54:26Z</time>
  <course>1.33</course>
  <speed>4.130012106519787</speed>
  <fix>3d</fix>
</trkpt>
<trkpt lat="40.0715701" lon="-105.2298166">
  <ele>1583.01</ele>
  <time>2026-08-28T17:54:26Z</time>
  <course>1.34</course>
  <speed>4.100012195103814</speed>
  <fix>3d</fix>
</trkpt>
<trkpt lat="40.0715701" lon="-105.2298166">
  <ele>1583.01</ele>
  <time>2026-08-28T17:54:26Z</time>
  <course>1.34</course>
  <speed>4.100012195103814</speed>
  <fix>3d</fix>
</trkpt>
<trkpt lat="40.0715608" lon="-105.2298165">
  <ele>1583.0</ele>
  <time>2026-08-28T17:54:26Z</time>
  <course>0.16</course>
  <speed>4.38</speed>
  <fix>3d</fix>
</trkpt>
<trkpt lat="40.0715729" lon="-105.2298166">
  <ele>1583.01</ele>
  <time>2026-08-28T17:54:26Z</time>
  <course>1.37</course>
  <speed>3.9900125313086425</speed>
  <fix>3d</fix>
</trkpt>
<trkpt lat="40.0715736" lon="-105.2298166">
  <ele>1583.01</ele>
  <time>2026-08-28T17:54:26Z</time>
  <course>1.38</course>
  <speed>3.960012626242497</speed>
  <fix>3d</fix>
</trkpt>
<trkpt lat="40.0715736" lon="-105.2298166">
  <ele>1583.01</ele>
  <time>2026-08-28T17:54:26Z</time>
  <course>1.38</course>
  <speed>3.960012626242497</speed>
  <fix>3d</fix>
</trkpt>
<trkpt lat="40.0715608" lon="-105.2298165">
  <ele>1583.0</ele>
  <time>2026-08-28T17:54:26Z</time>
  <course>0.16</course>
  <speed>4.38</speed>
  <fix>3d</fix>
</trkpt>
<trkpt lat="40.0715757" lon="-105.2298166">
  <ele>1583.01</ele>
  <time>2026-08-28T17:54:26Z</time>
  <course>1.41</course>
  <speed>3.8700129198750743</speed>
  <fix>3d</fix>
</trkpt>
<trkpt lat="40.0715764" lon="-105.2298165">
  <ele>1583.01</ele>
  <time>2026-08-28T17:54:26Z</time>
  <course>1.41</course>
  <speed>3.8400130208112575</speed>
  <fix>3d</fix>
</trkpt>
<trkpt lat="40.071577" lon="-105.2298165">
  <ele>1583.01</ele>
  <time>2026-08-28T17:54:26Z</time>
  <course>1.42</course>
  <speed>3.8200130889828112</speed>
  <fix>3d</fix>
</trkpt>
<trkpt lat="40.071577" lon="-105.2298165">
  <ele>1583.01</ele>
  <time>2026-08-28T17:54:26Z</time>
  <course>1.42</course>
  <speed>3.8200130889828112</speed>
  <fix>3d</fix>
</trkpt>
<trkpt lat="40.0715685" lon="-105.2298165">
  <ele>1583.0</ele>
  <time>2026-08-28T17:54:26Z</time>
  <course>0.27</course>
  <speed>4.11</speed>
  <fix>3d</fix>
</trkpt>
<trkpt lat="40.0715797" lon="-105.2298165">
  <ele>1583.01</ele>
  <time>2026-08-28T17:54:26Z</time>
  <course>1.45</course>
  <speed>3.7</speed>
  <fix>3d</fix>
</trkpt>
<trkpt lat="40.0715803" lon="-105.2298165">
  <ele>1583.01</ele>
  <time>2026-08-28T17:54:26Z</time>
  <course>1.46</course>
  <speed>3.68</speed>
  <fix>3d</fix>
</trkpt>
<trkpt lat="40.0715803" lon="-105.2298165">
  <ele>1583.01</ele>
  <time>2026-08-28T17:54:26Z</time>
  <course>1.46</course>
  <speed>3.68</speed>
  <fix>3d</fix>
</trkpt>
<trkpt lat="40.0715685" lon="-105.2298165">
  <ele>1583.0</ele>
  <time>2026-08-28T17:54:26Z</time>
  <course>0.27</course>
  <speed>4.11</speed>
  <fix>3d</fix>
</trkpt>
<trkpt lat="40.0715823" lon="-105.2298165">
  <ele>1583.01</ele>
  <time>2026-08-28T17:54:26Z</time>
  <course>1.48</course>
  <speed>3.59</speed>
  <fix>3d</fix>
</trkpt>
<trkpt lat="40.0715829" lon="-105.2298165">
  <ele>1583.01</ele>
  <time>2026-08-28T17:54:26Z</time>
  <course>1.49</course>
  <speed>3.56</speed>
  <fix>3d</fix>
</trkpt>
<trkpt lat="40.0715835" lon="-105.2298165">
  <ele>1583.01</ele>
  <time>2026-08-28T17:54:26Z</time>
  <course>1.49</course>
  <speed>3.54</speed>
  <fix>3d</fix>
</trkpt>
<trkpt lat="40.0715835" lon="-105.2298165">
  <ele>1583.01</ele>
  <time>2026-08-28T17:54:26Z</time>
  <course>1.49</course>
  <speed>3.54</speed>
  <fix>3d</fix>
</trkpt>
<trkpt lat="40.0715756" lon="-105.2298165">
  <ele>1583.0</ele>
  <time>2026-08-28T17:54:26Z</time>
  <course>0.38</course>
  <speed>3.84</speed>
  <fix>3d</fix>
</trkpt>
<trkpt lat="40.071586" lon="-105.2298165">
  <ele>1583.01</ele>
  <time>2026-08-28T17:54:26Z</time>
  <course>1.52</course>
  <speed>3.43</speed>
  <fix>3d</fix>
</trkpt>
<trkpt lat="40.0715866" lon="-105.2298165">
  <ele>1583.01</ele>
  <time>2026-08-28T17:54:26Z</time>
  <course>1.53</course>
  <speed>3.4</speed>
  <fix>3d</fix>
</trkpt>
<trkpt lat="40.0715866" lon="-105.2298165">
  <ele>1583.01</ele>
  <time>2026-08-28T17:54:26Z</time>
  <course>1.53</course>
  <speed>3.4</speed>
  <fix>3d</fix>
</trkpt>
<trkpt lat="40.0715823" lon="-105.2298165">
  <ele>1583.0</ele>
  <time>2026-08-28T17:54:26Z</time>
  <course>0.48</course>
  <speed>3.57</speed>
  <fix>3d</fix>
</trkpt>
<trkpt lat="40.0715884" lon="-105.2298165">
  <ele>1583.02</ele>
  <time>2026-08-28T17:54:26Z</time>
  <course>1.55</course>
  <speed>3.32</speed>
  <fix>3d</fix>
</trkpt>
<trkpt lat="40.071589" lon="-105.2298165">
  <ele>1583.02</ele>
  <time>2026-08-28T17:54:26Z</time>
  <course>1.55</course>
  <speed>3.3</speed>
  <fix>3d</fix>
</trkpt>
<trkpt lat="40.0715896" lon="-105.2298165">
  <ele>1583.02</ele>
  <time>2026-08-28T17:54:26Z</time>
  <course>1.56</course>
  <speed>3.27</speed>
  <fix>3d</fix>
</trkpt>
<trkpt lat="40.0715896" lon="-105.2298165">
  <ele>1583.02</ele>
  <time>2026-08-28T17:54:26Z</time>
  <course>1.56</course>
  <speed>3.27</speed>
  <fix>3d</fix>
</trkpt>
<trkpt lat="40.0715823" lon="-105.2298165">
  <ele>1583.0</ele>
  <time>2026-08-28T17:54:26Z</time>
  <course>0.48</course>
  <speed>3.57</speed>
  <fix>3d</fix>
</trkpt>
<trkpt lat="40.0715918" lon="-105.2298165">
  <ele>1583.02</ele>
  <time>2026-08-28T17:54:26Z</time>
  <course>1.58</course>
  <speed>3.17</speed>
  <fix>3d</fix>
</trkpt>
<trkpt lat="40.0715924" lon="-105.2298165">
  <ele>1583.02</ele>
  <time>2026-08-28T17:54:26Z</time>
  <course>1.6</course>
  <speed>3.14</speed>
  <fix>3d</fix>
</trkpt>
<trkpt lat="40.0715924" lon="-105.2298165">
  <ele>1583.02</ele>
  <time>2026-08-28T17:54:26Z</time>
  <course>1.6</course>
  <speed>3.14</speed>
  <fix>3d</fix>
</trkpt>
<trkpt lat="40.0715885" lon="-105.2298164">
  <ele>1583.0</ele>
  <time>2026-08-28T17:54:26Z</time>
  <course>0.58</course>
  <speed>3.31</speed>
  <fix>3d</fix>
</trkpt>
<trkpt lat="40.0715941" lon="-105.2298165">
  <ele>1583.02</ele>
  <time>2026-08-28T17:54:26Z</time>
  <course>1.64</course>
  <speed>3.07</speed>
  <fix>3d</fix>
</trkpt>
<trkpt lat="40.0715946" lon="-105.2298165">
  <ele>1583.02</ele>
  <time>2026-08-28T17:54:26Z</time>
  <course>1.65</course>
  <speed>3.05</speed>
  <fix>3d</fix>
</trkpt>
<trkpt lat="40.0715951" lon="-105.2298165">
  <ele>1583.02</ele>
  <time>2026-08-28T17:54:26Z</time>
  <course>1.65</course>
  <speed>3.02</speed>
  <fix>3d</fix>
</trkpt>
<trkpt lat="40.0715951" lon="-105.2298165">
  <ele>1583.02</ele>
  <time>2026-08-28T17:54:26Z</time>
  <course>1.65</course>
  <speed>3.02</speed>
  <fix>3d</fix>
</trkpt>
<trkpt lat="40.0715885" lon="-105.2298164">
  <ele>1583.0</ele>
  <time>2026-08-28T17:54:26Z</time>
  <course>0.58</course>
  <speed>3.31</speed>
  <fix>3d</fix>
</trkpt>
<trkpt lat="40.0715967" lon="-105.2298165">
  <ele>1583.02</ele>
  <time>2026-08-28T17:54:26Z</time>
  <course>1.69</course>
  <speed>2.95</speed>
  <fix>3d</fix>
</trkpt>
<trkpt lat="40.0715973" lon="-105.2298165">
  <ele>1583.02</ele>
  <time>2026-08-28T17:54:26Z</time>
  <course>1.7</course>
  <speed>2.92</speed>
  <fix>3d</fix>
</trkpt>
<trkpt lat="40.0715978" lon="-105.2298165">
  <ele>1583.02</ele>
  <time>2026-08-28T17:54:26Z</time>
  <course>1.72</course>
  <speed>2.9</speed>
  <fix>3d</fix>
</trkpt>
<trkpt lat="40.0715978" lon="-105.2298165">
  <ele>1583.02</ele>
  <time>2026-08-28T17:54:26Z</time>
  <course>1.72</course>
  <speed>2.9</speed>
  <fix>3d</fix>
</trkpt>
<trkpt lat="40.0715942" lon="-105.2298163">
  <ele>1583.0</ele>
  <time>2026-08-28T17:54:26Z</time>
  <course>0.7</course>
  <speed>3.07</speed>
  <fix>3d</fix>
</trkpt>
<trkpt lat="40.0715998" lon="-105.2298164">
  <ele>1583.02</ele>
  <time>2026-08-28T17:54:26Z</time>
  <course>1.77</course>
  <speed>2.81</speed>
  <fix>3d</fix>
</trkpt>
<trkpt lat="40.0716004" lon="-105.2298164">
  <ele>1583.02</ele>
  <time>2026-08-28T17:54:26Z</time>
  <course>1.78</course>
  <speed>2.79</speed>
  <fix>3d</fix>
</trkpt>
<trkpt lat="40.0716004" lon="-105.2298164">
  <ele>1583.02</ele>
  <time>2026-08-28T17:54:26Z</time>
  <course>1.78</course>
  <speed>2.79</speed>
  <fix>3d</fix>
</trkpt>
<trkpt lat="40.0715942" lon="-105.2298163">
  <ele>1583.0</ele>
  <time>2026-08-28T17:54:26Z</time>
  <course>0.7</course>
  <speed>3.07</speed>
  <fix>3d</fix>
</trkpt>
<trkpt lat="40.0716018" lon="-105.2298164">
  <ele>1583.02</ele>
  <time>2026-08-28T17:54:26Z</time>
  <course>1.82</course>
  <speed>2.72</speed>
  <fix>3d</fix>
</trkpt>
<trkpt lat="40.0716023" lon="-105.2298164">
  <ele>1583.02</ele>
  <time>2026-08-28T17:54:26Z</time>
  <course>1.84</course>
  <speed>2.69</speed>
  <fix>3d</fix>
</trkpt>
<trkpt lat="40.0716028" lon="-105.2298164">
  <ele>1583.02</ele>
  <time>2026-08-28T17:54:26Z</time>
  <course>1.85</course>
  <speed>2.67</speed>
  <fix>3d</fix>
</trkpt>
<trkpt lat="40.0716028" lon="-105.2298164">
  <ele>1583.02</ele>
  <time>2026-08-28T17:54:26Z</time>
  <course>1.85</course>
  <speed>2.67</speed>
  <fix>3d</fix>
</trkpt>
<trkpt lat="40.0715995" lon="-105.2298162">
  <ele>1583.0</ele>
  <time>2026-08-28T17:54:26Z</time>
  <course>0.84</course>
  <speed>2.84</speed>
  <fix>3d</fix>
</trkpt>
<trkpt lat="40.0716052" lon="-105.2298164">
  <ele>1583.02</ele>
  <time>2026-08-28T17:54:26Z</time>
  <course>1.91</course>
  <speed>2.56</speed>
  <fix>3d</fix>
</trkpt>
<trkpt lat="40.0716052" lon="-105.2298164">
  <ele>1583.02</ele>
  <time>2026-08-28T17:54:26Z</time>
  <course>1.91</course>
  <speed>2.56</speed>
  <fix>3d</fix>
</trkpt>
<trkpt lat="40.0715995" lon="-105.2298162">
  <ele>1583.0</ele>
  <time>2026-08-28T17:54:26Z</time>
  <course>0.84</course>
  <speed>2.84</speed>
  <fix>3d</fix>
</trkpt>
<trkpt lat="40.071607" lon="-105.2298163">
  <ele>1583.02</ele>
  <time>2026-08-28T17:54:26Z</time>
  <course>1.96</course>
  <speed>2.480020161208372</speed>
  <fix>3d</fix>
</trkpt>
<trkpt lat="40.0716074" lon="-105.2298163">
  <ele>1583.02</ele>
  <time>2026-08-28T17:54:26Z</time>
  <course>1.97</course>
  <speed>2.4500204080782675</speed>
  <fix>3d</fix>
</trkpt>
<trkpt lat="40.0716074" lon="-105.2298163">
  <ele>1583.02</ele>
  <time>2026-08-28T17:54:26Z</time>
  <course>1.97</course>
  <speed>2.4500204080782675</speed>
  <fix>3d</fix>
</trkpt>
<trkpt lat="40.0716044" lon="-105.2298161">
  <ele>1583.0</ele>
  <time>2026-08-28T17:54:26Z</time>
  <course>0.99</course>
  <speed>2.62</speed>
  <fix>3d</fix>
</trkpt>
<trkpt lat="40.0716088" lon="-105.2298163">
  <ele>1583.02</ele>
  <time>2026-08-28T17:54:26Z</time>
  <course>2.0</course>
  <speed>2.3900209204105307</speed>
  <fix>3d</fix>
</trkpt>
<trkpt lat="40.0716092" lon="-105.2298163">
  <ele>1583.02</ele>
  <time>2026-08-28T17:54:26Z</time>
  <course>2.02</course>
  <speed>2.3700210969525144</speed>
  <fix>3d</fix>
</trkpt>
<trkpt lat="40.0716096" lon="-105.2298163">
  <ele>1583.02</ele>
  <time>2026-08-28T17:54:26Z</time>
  <course>2.04</course>
  <speed>2.3500212764994277</speed>
  <fix>3d</fix>
</trkpt>
<trkpt lat="40.0716096" lon="-105.2298163">
  <ele>1583.02</ele>
  <time>2026-08-28T17:54:26Z</time>
  <course>2.04</course>
  <speed>2.3500212764994277</speed>
  <fix>3d</fix>
</trkpt>
<trkpt lat="40.0716044" lon="-105.2298161">
  <ele>1583.0</ele>
  <time>2026-08-28T17:54:26Z</time>
  <course>0.99</course>
  <speed>2.62</speed>
  <fix>3d</fix>
</trkpt>
<trkpt lat="40.0716113" lon="-105.2298162">
  <ele>1583.02</ele>
  <time>2026-08-28T17:54:26Z</time>
  <course>2.11</course>
  <speed>2.2700220263248547</speed>
  <fix>3d</fix>
</trkpt>
<trkpt lat="40.0716117" lon="-105.2298162">
  <ele>1583.02</ele>
  <time>2026-08-28T17:54:26Z</time>
  <course>2.13</course>
  <speed>2.250022222112484</speed>
  <fix>3d</fix>
</trkpt>
<trkpt lat="40.0716117" lon="-105.2298162">
  <ele>1583.02</ele>
  <time>2026-08-28T17:54:26Z</time>
  <course>2.13</course>
  <speed>2.250022222112484</speed>
  <fix>3d</fix>
</trkpt>
<trkpt lat="40.0716089" lon="-105.229816">
  <ele>1583.0</ele>
  <time>2026-08-28T17:54:26Z</time>
  <course>1.15</course>
  <speed>2.42</speed>
  <fix>3d</fix>
</trkpt>
<trkpt lat="40.0716133" lon="-105.2298162">
  <ele>1583.02</ele>
  <time>2026-08-28T17:54:26Z</time>
  <course>2.19</course>
  <speed>2.1700230413523265</speed>
  <fix>3d</fix>
</trkpt>
<trkpt lat="40.0716137" lon="-105.2298162">
  <ele>1583.02</ele>
  <time>2026-08-28T17:54:26Z</time>
  <course>2.21</course>
  <speed>2.15002325568818</speed>
  <fix>3d</fix>
</trkpt>
<trkpt lat="40.0716137" lon="-105.2298162">
  <ele>1583.02</ele>
  <time>2026-08-28T17:54:26Z</time>
  <course>2.21</course>
  <speed>2.15002325568818</speed>
  <fix>3d</fix>
</trkpt>
<trkpt lat="40.0716089" lon="-105.229816">
  <ele>1583.0</ele>
  <time>2026-08-28T17:54:26Z</time>
  <course>1.15</course>
  <speed>2.42</speed>
  <fix>3d</fix>
</trkpt>
<trkpt lat="40.0716152" lon="-105.2298161">
  <ele>1583.03</ele>
  <time>2026-08-28T17:54:26Z</time>
  <course>2.28</course>
  <speed>2.0700966161027363</speed>
  <fix>3d</fix>
</trkpt>
<trkpt lat="40.0716156" lon="-105.2298161">
  <ele>1583.03</ele>
  <time>2026-08-28T17:54:26Z</time>
  <course>2.29</course>
  <speed>2.0500975586542216</speed>
  <fix>3d</fix>
</trkpt>
<trkpt lat="40.0716156" lon="-105.2298161">
  <ele>1583.03</ele>
  <time>2026-08-28T17:54:26Z</time>
  <course>2.29</course>
  <speed>2.0500975586542216</speed>
  <fix>3d</fix>
</trkpt>
<trkpt lat="40.0716132" lon="-105.2298159">
  <ele>1583.0</ele>
  <time>2026-08-28T17:54:26Z</time>
  <course>1.33</course>
  <speed>2.22</speed>
  <fix>3d</fix>
</trkpt>
<trkpt lat="40.0716171" lon="-105.229816">
  <ele>1583.03</ele>
  <time>2026-08-28T17:54:26Z</time>
  <course>2.38</course>
  <speed>1.9801010075246162</speed>
  <fix>3d</fix>
</trkpt>
<trkpt lat="40.0716174" lon="-105.229816">
  <ele>1583.03</ele>
  <time>2026-08-28T17:54:26Z</time>
  <course>2.4</course>
  <speed>1.9601020381602587</speed>
  <fix>3d</fix>
</trkpt>
<trkpt lat="40.0716174" lon="-105.229816">
  <ele>1583.03</ele>
  <time>2026-08-28T17:54:26Z</time>
  <course>2.4</course>
  <speed>1.9601020381602587</speed>
  <fix>3d</fix>
</trkpt>
<trkpt lat="40.0716132" lon="-105.2298159">
  <ele>1583.0</ele>
  <time>2026-08-28T17:54:26Z</time>
  <course>1.33</course>
  <speed>2.22</speed>
  <fix>3d</fix>
</trkpt>
<trkpt lat="40.0716188" lon="-105.229816">
  <ele>1583.03</ele>
  <time>2026-08-28T17:54:26Z</time>
  <course>2.48</course>
  <speed>1.8801063799689632</speed>
  <fix>3d</fix>
</trkpt>
<trkpt lat="40.0716192" lon="-105.229816">
  <ele>1583.03</ele>
  <time>2026-08-28T17:54:26Z</time>
  <course>2.5</course>
  <speed>1.8601075237738274</speed>
  <fix>3d</fix>
</trkpt>
<trkpt lat="40.0716192" lon="-105.229816">
  <ele>1583.03</ele>
  <time>2026-08-28T17:54:26Z</time>
  <course>2.5</course>
  <speed>1.8601075237738274</speed>
  <fix>3d</fix>
</trkpt>
<trkpt lat="40.0716132" lon="-105.2298159">
  <ele>1583.0</ele>
  <time>2026-08-28T17:54:26Z</time>
  <course>1.33</course>
  <speed>2.22</speed>
  <fix>3d</fix>
</trkpt>
<trkpt lat="40.0716202" lon="-105.2298159">
  <ele>1583.03</ele>
  <time>2026-08-28T17:54:26Z</time>
  <course>2.57</course>
  <speed>1.8101104938649464</speed>
  <fix>3d</fix>
</trkpt>
<trkpt lat="40.0716205" lon="-105.2298159">
  <ele>1583.03</ele>
  <time>2026-08-28T17:54:26Z</time>
  <course>2.6</course>
  <speed>1.790111728356641</speed>
  <fix>3d</fix>
</trkpt>
<trkpt lat="40.0716208" lon="-105.2298159">
  <ele>1583.03</ele>
  <time>2026-08-28T17:54:26Z</time>
  <course>2.62</course>
  <speed>1.7702542190318318</speed>
  <fix>3d</fix>
</trkpt>
<trkpt lat="40.0716208" lon="-105.2298159">
  <ele>1583.03</ele>
  <time>2026-08-28T17:54:26Z</time>
  <course>2.62</course>
  <speed>1.7702542190318318</speed>
  <fix>3d</fix>
</trkpt>
<trkpt lat="40.071617" lon="-105.2298157">
  <ele>1583.0</ele>
  <time>2026-08-28T17:54:26Z</time>
  <course>1.53</course>
  <speed>2.03</speed>
  <fix>3d</fix>
</trkpt>
<trkpt lat="40.0716221" lon="-105.2298158">
  <ele>1583.03</ele>
  <time>2026-08-28T17:54:26Z</time>
  <course>2.73</course>
  <speed>1.7002646852769718</speed>
  <fix>3d</fix>
</trkpt>
<trkpt lat="40.0716224" lon="-105.2298158">
  <ele>1583.03</ele>
  <time>2026-08-28T17:54:26Z</time>
  <course>2.76</course>
  <speed>1.6802678357928535</speed>
  <fix>3d</fix>
</trkpt>
<trkpt lat="40.0716224" lon="-105.2298158">
  <ele>1583.03</ele>
  <time>2026-08-28T17:54:26Z</time>
  <course>2.76</course>
  <speed>1.6802678357928535</speed>
  <fix>3d</fix>
</trkpt>
<trkpt lat="40.071617" lon="-105.2298157">
  <ele>1583.0</ele>
  <time>2026-08-28T17:54:26Z</time>
  <course>1.53</course>
  <speed>2.03</speed>
  <fix>3d</fix>
</trkpt>
<trkpt lat="40.0716236" lon="-105.2298158">
  <ele>1583.03</ele>
  <time>2026-08-28T17:54:26Z</time>
  <course>2.88</course>
  <speed>1.6102794788483146</speed>
  <fix>3d</fix>
</trkpt>
<trkpt lat="40.0716239" lon="-105.2298157">
  <ele>1583.03</ele>
  <time>2026-08-28T17:54:26Z</time>
  <course>2.91</course>
  <speed>1.5902829936838285</speed>
  <fix>3d</fix>
</trkpt>
<trkpt lat="40.0716239" lon="-105.2298157">
  <ele>1583.03</ele>
  <time>2026-08-28T17:54:26Z</time>
  <course>2.91</course>
  <speed>1.5902829936838285</speed>
  <fix>3d</fix>
</trkpt>
<trkpt lat="40.0716205" lon="-105.2298156">
  <ele>1583.0</ele>
  <time>2026-08-28T17:54:26Z</time>
  <course>1.78</course>
  <speed>1.85</speed>
  <fix>3d</fix>
</trkpt>
<trkpt lat="40.0716247" lon="-105.2298157">
  <ele>1583.03</ele>
  <time>2026-08-28T17:54:26Z</time>
  <course>3.01</course>
  <speed>1.5302940893828219</speed>
  <fix>3d</fix>
</trkpt>
<trkpt lat="40.071625" lon="-105.2298157">
  <ele>1583.03</ele>
  <time>2026-08-28T17:54:26Z</time>
  <course>3.04</course>
  <speed>1.52029602380589</speed>
  <fix>3d</fix>
</trkpt>
<trkpt lat="40.0716253" lon="-105.2298157">
  <ele>1583.03</ele>
  <time>2026-08-28T17:54:26Z</time>
  <course>3.08</course>
  <speed>1.5002999700059985</speed>
  <fix>3d</fix>
</trkpt>
<trkpt lat="40.0716253" lon="-105.2298157">
  <ele>1583.03</ele>
  <time>2026-08-28T17:54:26Z</time>
  <course>3.08</course>
  <speed>1.5002999700059985</speed>
  <fix>3d</fix>
</trkpt>
<trkpt lat="40.0716205" lon="-105.2298156">
  <ele>1583.0</ele>
  <time>2026-08-28T17:54:26Z</time>
  <course>1.78</course>
  <speed>1.85</speed>
  <fix>3d</fix>
</trkpt>
<trkpt lat="40.0716261" lon="-105.2298156">
  <ele>1583.03</ele>
  <time>2026-08-28T17:54:26Z</time>
  <course>3.19</course>
  <speed>1.4405554484295287</speed>
  <fix>3d</fix>
</trkpt>
<trkpt lat="40.0716263" lon="-105.2298156">
  <ele>1583.03</ele>
  <time>2026-08-28T17:54:26Z</time>
  <course>3.23</course>
  <speed>1.4305593311708538</speed>
  <fix>3d</fix>
</trkpt>
<trkpt lat="40.0716266" lon="-105.2298156">
  <ele>1583.03</ele>
  <time>2026-08-28T17:54:26Z</time>
  <course>3.27</course>
  <speed>1.4105672617780407</speed>
  <fix>3d</fix>
</trkpt>
<trkpt lat="40.0716266" lon="-105.2298156">
  <ele>1583.03</ele>
  <time>2026-08-28T17:54:26Z</time>
  <course>3.27</course>
  <speed>1.4105672617780407</speed>
  <fix>3d</fix>
</trkpt>
<trkpt lat="40.0716237" lon="-105.2298155">
  <ele>1583.0</ele>
  <time>2026-08-28T17:54:26Z</time>
  <course>2.07</course>
  <speed>1.67</speed>
  <fix>3d</fix>
</trkpt>
<trkpt lat="40.0716276" lon="-105.2298155">
  <ele>1583.04</ele>
  <time>2026-08-28T17:54:26Z</time>
  <course>3.45</course>
  <speed>1.3405968819895113</speed>
  <fix>3d</fix>
</trkpt>
<trkpt lat="40.0716278" lon="-105.2298155">
  <ele>1583.04</ele>
  <time>2026-08-28T17:54:26Z</time>
  <course>3.49</course>
  <speed>1.320605921537534</speed>
  <fix>3d</fix>
</trkpt>
<trkpt lat="40.0716278" lon="-105.2298155">
  <ele>1583.04</ele>
  <time>2026-08-28T17:54:26Z</time>
  <course>3.49</course>
  <speed>1.320605921537534</speed>
  <fix>3d</fix>
</trkpt>
<trkpt lat="40.0716265" lon="-105.2298153">
  <ele>1583.0</ele>
  <time>2026-08-28T17:54:26Z</time>
  <course>2.44</course>
  <speed>1.49</speed>
  <fix>3d</fix>
</trkpt>
<trkpt lat="40.0716288" lon="-105.2298154">
  <ele>1583.04</ele>
  <time>2026-08-28T17:54:26Z</time>
  <course>3.7</course>
  <speed>1.240644993541666</speed>
  <fix>3d</fix>
</trkpt>
<trkpt lat="40.071629" lon="-105.2298154">
  <ele>1583.04</ele>
  <time>2026-08-28T17:54:26Z</time>
  <course>3.75</course>
  <speed>1.2306502346320827</speed>
  <fix>3d</fix>
</trkpt>
<trkpt lat="40.071629" lon="-105.2298154">
  <ele>1583.04</ele>
  <time>2026-08-28T17:54:26Z</time>
  <course>3.75</course>
  <speed>1.2306502346320827</speed>
  <fix>3d</fix>
</trkpt>
<trkpt lat="40.0716265" lon="-105.2298153">
  <ele>1583.0</ele>
  <time>2026-08-28T17:54:26Z</time>
  <course>2.44</course>
  <speed>1.49</speed>
  <fix>3d</fix>
</trkpt>
<trkpt lat="40.0716299" lon="-105.2298153">
  <ele>1583.04</ele>
  <time>2026-08-28T17:54:26Z</time>
  <course>3.99</course>
  <speed>1.151086443322134</speed>
  <fix>3d</fix>
</trkpt>
<trkpt lat="40.0716301" lon="-105.2298153">
  <ele>1583.04</ele>
  <time>2026-08-28T17:54:26Z</time>
  <course>4.05</course>
  <speed>1.1410959644131602</speed>
  <fix>3d</fix>
</trkpt>
<trkpt lat="40.0716301" lon="-105.2298153">
  <ele>1583.04</ele>
  <time>2026-08-28T17:54:26Z</time>
  <course>4.05</course>
  <speed>1.1410959644131602</speed>
  <fix>3d</fix>
</trkpt>
<trkpt lat="40.071629" lon="-105.2298151">
  <ele>1583.0</ele>
  <time>2026-08-28T17:54:26Z</time>
  <course>2.93</course>
  <speed>1.31</speed>
  <fix>3d</fix>
</trkpt>
<trkpt lat="40.0716308" lon="-105.2298153">
  <ele>1583.05</ele>
  <time>2026-08-28T17:54:26Z</time>
  <course>4.26</course>
  <speed>1.0811567878897121</speed>
  <fix>3d</fix>
</trkpt>
<trkpt lat="40.071631" lon="-105.2298152">
  <ele>1583.05</ele>
  <time>2026-08-28T17:54:26Z</time>
  <course>4.33</course>
  <speed>1.061178590059185</speed>
  <fix>3d</fix>
</trkpt>
<trkpt lat="40.0716311" lon="-105.2298152">
  <ele>1583.05</ele>
  <time>2026-08-28T17:54:26Z</time>
  <course>4.4</course>
  <speed>1.0412012293500235</speed>
  <fix>3d</fix>
</trkpt>
<trkpt lat="40.0716311" lon="-105.2298152">
  <ele>1583.05</ele>
  <time>2026-08-28T17:54:26Z</time>
  <course>4.4</course>
  <speed>1.0412012293500235</speed>
  <fix>3d</fix>
</trkpt>
<trkpt lat="40.071629" lon="-105.2298151">
  <ele>1583.0</ele>
  <time>2026-08-28T17:54:26Z</time>
  <course>2.93</course>
  <speed>1.31</speed>
  <fix>3d</fix>
</trkpt>
<trkpt lat="40.0716317" lon="-105.2298152">
  <ele>1583.05</ele>
  <time>2026-08-28T17:54:26Z</time>
  <course>4.65</course>
  <speed>0.9912618221237011</speed>
  <fix>3d</fix>
</trkpt>
<trkpt lat="40.0716319" lon="-105.2298152">
  <ele>1583.05</ele>
  <time>2026-08-28T17:54:26Z</time>
  <course>4.74</course>
  <speed>0.9712878049270464</speed>
  <fix>3d</fix>
</trkpt>
<trkpt lat="40.0716321" lon="-105.2298151">
  <ele>1583.05</ele>
  <time>2026-08-28T17:54:26Z</time>
  <course>4.82</course>
  <speed>0.9513148795220223</speed>
  <fix>3d</fix>
</trkpt>
<trkpt lat="40.0716321" lon="-105.2298151">
  <ele>1583.05</ele>
  <time>2026-08-28T17:54:26Z</time>
  <course>4.82</course>
  <speed>0.9513148795220223</speed>
  <fix>3d</fix>
</trkpt>
<trkpt lat="40.0716312" lon="-105.229815">
  <ele>1583.0</ele>
  <time>2026-08-28T17:54:26Z</time>
  <course>3.58</course>
  <speed>1.13</speed>
  <fix>3d</fix>
</trkpt>
<trkpt lat="40.0716326" lon="-105.2298151">
  <ele>1583.05</ele>
  <time>2026-08-28T17:54:26Z</time>
  <course>5.05</course>
  <speed>0.9013878188659973</speed>
  <fix>3d</fix>
</trkpt>
<trkpt lat="40.0716328" lon="-105.2298151">
  <ele>1583.05</ele>
  <time>2026-08-28T17:54:26Z</time>
  <course>5.13</course>
  <speed>0.8814193099768123</speed>
  <fix>3d</fix>
</trkpt>
<trkpt lat="40.0716329" lon="-105.229815">
  <ele>1583.05</ele>
  <time>2026-08-28T17:54:26Z</time>
  <course>5.19</course>
  <speed>0.8614522621712709</speed>
  <fix>3d</fix>
</trkpt>
<trkpt lat="40.0716329" lon="-105.229815">
  <ele>1583.05</ele>
  <time>2026-08-28T17:54:26Z</time>
  <course>5.19</course>
  <speed>0.8614522621712709</speed>
  <fix>3d</fix>
</trkpt>
<trkpt lat="40.0716312" lon="-105.229815">
  <ele>1583.0</ele>
  <time>2026-08-28T17:54:26Z</time>
  <course>3.58</course>
  <speed>1.13</speed>
  <fix>3d</fix>
</trkpt>
<trkpt lat="40.0716336" lon="-105.229815">
  <ele>1583.05</ele>
  <time>2026-08-28T17:54:26Z</time>
  <course>5.45</course>
  <speed>0.791580697086532</speed>
  <fix>3d</fix>
</trkpt>
<trkpt lat="40.0716337" lon="-105.2298149">
  <ele>1583.05</ele>
  <time>2026-08-28T17:54:26Z</time>
  <course>5.51</course>
  <speed>0.771621668954417</speed>
  <fix>3d</fix>
</trkpt>
<trkpt lat="40.0716337" lon="-105.2298149">
  <ele>1583.05</ele>
  <time>2026-08-28T17:54:26Z</time>
  <course>5.51</course>
  <speed>0.771621668954417</speed>
  <fix>3d</fix>
</trkpt>
<trkpt lat="40.0716331" lon="-105.2298149">
  <ele>1583.0</ele>
  <time>2026-08-28T17:54:26Z</time>
  <course>4.31</course>
  <speed>0.95</speed>
  <fix>3d</fix>
</trkpt>
<trkpt lat="40.0716343" lon="-105.2298149">
  <ele>1583.06</ele>
  <time>2026-08-28T17:54:26Z</time>
  <course>5.72</course>
  <speed>0.70178344238091</speed>
  <fix>3d</fix>
</trkpt>
<trkpt lat="40.0716344" lon="-105.2298149">
  <ele>1583.06</ele>
  <time>2026-08-28T17:54:26Z</time>
  <course>5.77</course>
  <speed>0.6818357573492314</speed>
  <fix>3d</fix>
</trkpt>
<trkpt lat="40.0716344" lon="-105.2298149">
  <ele>1583.06</ele>
  <time>2026-08-28T17:54:26Z</time>
  <course>5.77</course>
  <speed>0.6818357573492314</speed>
  <fix>3d</fix>
</trkpt>
<trkpt lat="40.0716331" lon="-105.2298149">
  <ele>1583.0</ele>
  <time>2026-08-28T17:54:26Z</time>
  <course>4.31</course>
  <speed>0.95</speed>
  <fix>3d</fix>
</trkpt>
<trkpt lat="40.0716349" lon="-105.2298148">
  <ele>1583.06</ele>
  <time>2026-08-28T17:54:26Z</time>
  <course>5.95</course>
  <speed>0.6120457499239742</speed>
  <fix>3d</fix>
</trkpt>
<trkpt lat="40.071635" lon="-105.2298148">
  <ele>1583.06</ele>
  <time>2026-08-28T17:54:26Z</time>
  <course>5.99</course>
  <speed>0.5921148537234985</speed>
  <fix>3d</fix>
</trkpt>
<trkpt lat="40.071635" lon="-105.2298148">
  <ele>1583.06</ele>
  <time>2026-08-28T17:54:26Z</time>
  <course>5.99</course>
  <speed>0.5921148537234985</speed>
  <fix>3d</fix>
</trkpt>
<trkpt lat="40.0716346" lon="-105.2298146">
  <ele>1583.0</ele>
  <time>2026-08-28T17:54:26Z</time>
  <course>4.9</course>
  <speed>0.77</speed>
  <fix>3d</fix>
</trkpt>
<trkpt lat="40.0716354" lon="-105.2298147">
  <ele>1583.06</ele>
  <time>2026-08-28T17:54:26Z</time>
  <course>6.1</course>
  <speed>0.5414794548272354</speed>
  <fix>3d</fix>
</trkpt>
<trkpt lat="40.0716355" lon="-105.2298147">
  <ele>1583.05</ele>
  <time>2026-08-28T17:54:26Z</time>
  <course>6.14</course>
  <speed>0.5315072906367324</speed>
  <fix>3d</fix>
</trkpt>
<trkpt lat="40.0716356" lon="-105.2298147">
  <ele>1583.05</ele>
  <time>2026-08-28T17:54:26Z</time>
  <course>6.17</course>
  <speed>0.5115662224971466</speed>
  <fix>3d</fix>
</trkpt>
<trkpt lat="40.0716356" lon="-105.2298147">
  <ele>1583.05</ele>
  <time>2026-08-28T17:54:26Z</time>
  <course>6.17</course>
  <speed>0.5115662224971466</speed>
  <fix>3d</fix>
</trkpt>
<trkpt lat="40.0716346" lon="-105.2298146">
  <ele>1583.0</ele>
  <time>2026-08-28T17:54:26Z</time>
  <course>4.9</course>
  <speed>0.77</speed>
  <fix>3d</fix>
</trkpt>
<trkpt lat="40.0716361" lon="-105.2298146">
  <ele>1583.05</ele>
  <time>2026-08-28T17:54:26Z</time>
  <course>6.32</course>
  <speed>0.43185645763378366</speed>
  <fix>3d</fix>
</trkpt>
<trkpt lat="40.0716358" lon="-105.2298145">
  <ele>1583.0</ele>
  <time>2026-08-28T17:54:26Z</time>
  <course>5.3</course>
  <speed>0.6</speed>
  <fix>3d</fix>
</trkpt>
<trkpt lat="40.0716365" lon="-105.2298146">
  <ele>1583.05</ele>
  <time>2026-08-28T17:54:26Z</time>
  <course>6.43</course>
  <speed>0.3712142238654117</speed>
  <fix>3d</fix>
</trkpt>
<trkpt lat="40.0716358" lon="-105.2298145">
  <ele>1583.0</ele>
  <time>2026-08-28T17:54:26Z</time>
  <course>5.3</course>
  <speed>0.6</speed>
  <fix>3d</fix>
</trkpt>
<trkpt lat="40.0716368" lon="-105.2298145">
  <ele>1583.06</ele>
  <time>2026-08-28T17:54:26Z</time>
  <course>6.46</course>
  <speed>0.3014962686336267</speed>
  <fix>3d</fix>
</trkpt>
<trkpt lat="40.0716367" lon="-105.2298144">
  <ele>1583.0</ele>
  <time>2026-08-28T17:54:26Z</time>
  <course>5.54</course>
  <speed>0.45</speed>
  <fix>3d</fix>
</trkpt>
<trkpt lat="40.0716371" lon="-105.2298144">
  <ele>1583.05</ele>
  <time>2026-08-28T17:54:26Z</time>
  <course>6.52</course>
  <speed>0.2308679276123039</speed>
  <fix>3d</fix>
</trkpt>
<trkpt lat="40.0716367" lon="-105.2298144">
  <ele>1583.0</ele>
  <time>2026-08-28T17:54:26Z</time>
  <course>5.54</course>
  <speed>0.45</speed>
  <fix>3d</fix>
</trkpt>
<trkpt lat="40.0716373" lon="-105.2298144">
  <ele>1583.05</ele>
  <time>2026-08-28T17:54:26Z</time>
  <course>6.55</course>
  <speed>0.15132745950421556</speed>
  <fix>3d</fix>
</trkpt>
<trkpt lat="40.0716367" lon="-105.2298144">
  <ele>1583.0</ele>
  <time>2026-08-28T17:54:26Z</time>
  <course>5.54</course>
  <speed>0.45</speed>
  <fix>3d</fix>
</trkpt>
<trkpt lat="40.0716375" lon="-105.2298144">
  <ele>1583.05</ele>
  <time>2026-08-28T17:54:26Z</time>
  <course>6.58</course>
  <speed>0.08062257748298549</speed>
  <fix>3d</fix>
</trkpt>
<trkpt lat="40.0716374" lon="-105.2298143">
  <ele>1583.0</ele>
  <time>2026-08-28T17:54:26Z</time>
  <course>5.66</course>
  <speed>0.31</speed>
  <fix>3d</fix>
</trkpt>
<trkpt lat="40.0716375" lon="-105.2298143">
  <ele>1583.05</ele>
  <time>2026-08-28T17:54:26Z</time>
  <course>6.59</course>
  <speed>0.0</speed>
  <fix>3d</fix>
</trkpt>
<trkpt lat="40.0716374" lon="-105.2298143">
  <ele>1583.0</ele>
  <time>2026-08-28T17:54:26Z</time>
  <course>5.66</course>
  <speed>0.31</speed>
  <fix>3d</fix>
</trkpt>
<trkpt lat="40.0716376" lon="-105.2298143">
  <ele>1583.05</ele>
  <time>2026-08-28T17:54:26Z</time>
  <course>6.6</course>
  <speed>0.05</speed>
  <fix>3d</fix>
</trkpt>
<trkpt lat="40.0716379" lon="-105.2298143">
  <ele>1583.0</ele>
  <time>2026-08-28T17:54:26Z</time>
  <course>5.71</course>
  <speed>0.16</speed>
  <fix>3d</fix>
</trkpt>
<trkpt lat="40.0716375" lon="-105.2298143">
  <ele>1583.05</ele>
  <time>2026-08-28T17:54:26Z</time>
  <course>6.6</course>
  <speed>0.1</speed>
  <fix>3d</fix>
</trkpt>
<trkpt lat="40.0716379" lon="-105.2298143">
  <ele>1583.0</ele>
  <time>2026-08-28T17:54:26Z</time>
  <course>5.71</course>
  <speed>0.16</speed>
  <fix>3d</fix>
</trkpt>
<trkpt lat="40.0716375" lon="-105.2298143">
  <ele>1583.05</ele>
  <time>2026-08-28T17:54:26Z</time>
  <course>6.6</course>
  <speed>0.14</speed>
  <fix>3d</fix>
</trkpt>
<trkpt lat="40.0716381" lon="-105.2298143">
  <ele>1583.0</ele>
  <time>2026-08-28T17:54:26Z</time>
  <course>5.74</course>
  <speed>0.03</speed>
  <fix>3d</fix>
</trkpt>
<trkpt lat="40.0716374" lon="-105.2298143">
  <ele>1583.04</ele>
  <time>2026-08-28T17:54:26Z</time>
  <course>6.6</course>
  <speed>0.17</speed>
  <fix>3d</fix>
</trkpt>
<trkpt lat="40.0716381" lon="-105.2298143">
  <ele>1583.0</ele>
  <time>2026-08-28T17:54:26Z</time>
  <course>5.74</course>
  <speed>0.03</speed>
  <fix>3d</fix>
</trkpt>
<trkpt lat="40.0716373" lon="-105.2298143">
  <ele>1583.05</ele>
  <time>2026-08-28T17:54:26Z</time>
  <course>6.59</course>
  <speed>0.18</speed>
  <fix>3d</fix>
</trkpt>
<trkpt lat="40.0716381" lon="-105.2298143">
  <ele>1583.0</ele>
  <time>2026-08-28T17:54:26Z</time>
  <course>185.71</course>
  <speed>0.05</speed>
  <fix>3d</fix>
</trkpt>
<trkpt lat="40.0716372" lon="-105.2298144">
  <ele>1583.05</ele>
  <time>2026-08-28T17:54:26Z</time>
  <course>6.57</course>
  <speed>0.18</speed>
  <fix>3d</fix>
</trkpt>
<trkpt lat="40.071638" lon="-105.2298143">
  <ele>1583.0</ele>
  <time>2026-08-28T17:54:26Z</time>
  <course>185.68</course>
  <speed>0.1</speed>
  <fix>3d</fix>
</trkpt>
<trkpt lat="40.0716372" lon="-105.2298144">
  <ele>1583.05</ele>
  <time>2026-08-28T17:54:26Z</time>
  <course>6.55</course>
  <speed>0.17</speed>
  <fix>3d</fix>
</trkpt>
<trkpt lat="40.071638" lon="-105.2298143">
  <ele>1583.0</ele>
  <time>2026-08-28T17:54:26Z</time>
  <course>185.68</course>
  <speed>0.1</speed>
  <fix>3d</fix>
</trkpt>
<trkpt lat="40.0716371" lon="-105.2298144">
  <ele>1583.05</ele>
  <time>2026-08-28T17:54:26Z</time>
  <course>6.53</course>
  <speed>0.14</speed>
  <fix>3d</fix>
</trkpt>
<trkpt lat="40.0716378" lon="-105.2298143">
  <ele>1583.0</ele>
  <time>2026-08-28T17:54:26Z</time>
  <course>185.64</course>
  <speed>0.09</speed>
  <fix>3d</fix>
</trkpt>
<trkpt lat="40.0716371" lon="-105.2298144">
  <ele>1583.05</ele>
  <time>2026-08-28T17:54:26Z</time>
  <course>6.51</course>
  <speed>0.1</speed>
  <fix>3d</fix>
</trkpt>
<trkpt lat="40.0716378" lon="-105.2298143">
  <ele>1583.0</ele>
  <time>2026-08-28T17:54:26Z</time>
  <course>185.64</course>
  <speed>0.09</speed>
  <fix>3d</fix>
</trkpt>
<trkpt lat="40.0716371" lon="-105.2298143">
  <ele>1583.05</ele>
  <time>2026-08-28T17:54:26Z</time>
  <course>6.52</course>
  <speed>0.0412310562561766</speed>
  <fix>3d</fix>
</trkpt>
<trkpt lat="40.0716377" lon="-105.2298143">
  <ele>1583.0</ele>
  <time>2026-08-28T17:54:26Z</time>
  <course>185.6</course>
  <speed>0.03</speed>
  <fix>3d</fix>
</trkpt>
<trkpt lat="40.0716371" lon="-105.2298143">
  <ele>1583.05</ele>
  <time>2026-08-28T17:54:26Z</time>
  <course>6.53</course>
  <speed>0.0282842712474619</speed>
  <fix>3d</fix>
</trkpt>
<trkpt lat="40.0716377" lon="-105.2298143">
  <ele>1583.0</ele>
  <time>2026-08-28T17:54:26Z</time>
  <course>185.6</course>
  <speed>0.03</speed>
  <fix>3d</fix>
</trkpt>
<trkpt lat="40.0716373" lon="-105.2298143">
  <ele>1583.05</ele>
  <time>2026-08-28T17:54:26Z</time>
  <course>6.49</course>
  <speed>0.09486832980505139</speed>
  <fix>3d</fix>
</trkpt>
<trkpt lat="40.0716376" lon="-105.2298143">
  <ele>1583.0</ele>
  <time>2026-08-28T17:54:26Z</time>
  <course>5.56</course>
  <speed>0.08</speed>
  <fix>3d</fix>
</trkpt>
<trkpt lat="40.0716373" lon="-105.2298142">
  <ele>1583.05</ele>
  <time>2026-08-28T17:54:26Z</time>
  <course>6.43</course>
  <speed>0.15524174696260024</speed>
  <fix>3d</fix>
</trkpt>
<trkpt lat="40.0716376" lon="-105.2298143">
  <ele>1583.0</ele>
  <time>2026-08-28T17:54:26Z</time>
  <course>5.56</course>
  <speed>0.08</speed>
  <fix>3d</fix>
</trkpt>
<trkpt lat="40.0716376" lon="-105.2298142">
  <ele>1583.04</ele>
  <time>2026-08-28T17:54:26Z</time>
  <course>6.34</course>
  <speed>0.22561028345356957</speed>
  <fix>3d</fix>
</trkpt>
<trkpt lat="40.0716379" lon="-105.2298143">
  <ele>1583.0</ele>
  <time>2026-08-28T17:54:26Z</time>
  <course>5.44</course>
  <speed>0.21</speed>
  <fix>3d</fix>
</trkpt>
<trkpt lat="40.0716379" lon="-105.2298141">
  <ele>1583.04</ele>
  <time>2026-08-28T17:54:26Z</time>
  <course>6.23</course>
  <speed>0.2863564212655271</speed>
  <fix>3d</fix>
</trkpt>
<trkpt lat="40.0716379" lon="-105.2298143">
  <ele>1583.0</ele>
  <time>2026-08-28T17:54:26Z</time>
  <course>5.44</course>
  <speed>0.21</speed>
  <fix>3d</fix>
</trkpt>
<trkpt lat="40.0716382" lon="-105.2298141">
  <ele>1583.04</ele>
  <time>2026-08-28T17:54:26Z</time>
  <course>6.1</course>
  <speed>0.34525353003264136</speed>
  <fix>3d</fix>
</trkpt>
<trkpt lat="40.0716384" lon="-105.2298142">
  <ele>1583.0</ele>
  <time>2026-08-28T17:54:26Z</time>
  <course>5.23</course>
  <speed>0.33</speed>
  <fix>3d</fix>
</trkpt>
<trkpt lat="40.0716386" lon="-105.229814">
  <ele>1583.04</ele>
  <time>2026-08-28T17:54:26Z</time>
  <course>5.95</course>
  <speed>0.396232255123179</speed>
  <fix>3d</fix>
</trkpt>
<trkpt lat="40.0716384" lon="-105.2298142">
  <ele>1583.0</ele>
  <time>2026-08-28T17:54:26Z</time>
  <course>5.23</course>
  <speed>0.33</speed>
  <fix>3d</fix>
</trkpt>
<trkpt lat="40.0716391" lon="-105.2298139">
  <ele>1583.03</ele>
  <time>2026-08-28T17:54:26Z</time>
  <course>5.81</course>
  <speed>0.44553338819890925</speed>
  <fix>3d</fix>
</trkpt>
<trkpt lat="40.0716391" lon="-105.2298141">
  <ele>1583.0</ele>
  <time>2026-08-28T17:54:26Z</time>
  <course>4.96</course>
  <speed>0.43</speed>
  <fix>3d</fix>
</trkpt>
<trkpt lat="40.0716396" lon="-105.2298139">
  <ele>1583.03</ele>
  <time>2026-08-28T17:54:26Z</time>
  <course>5.66</course>
  <speed>0.4850773134253961</speed>
  <fix>3d</fix>
</trkpt>
<trkpt lat="40.0716391" lon="-105.2298141">
  <ele>1583.0</ele>
  <time>2026-08-28T17:54:26Z</time>
  <course>4.96</course>
  <speed>0.43</speed>
  <fix>3d</fix>
</trkpt>
<trkpt lat="40.0716401" lon="-105.2298138">
  <ele>1583.03</ele>
  <time>2026-08-28T17:54:26Z</time>
  <course>5.52</course>
  <speed>0.5162363799656123</speed>
  <fix>3d</fix>
</trkpt>
<trkpt lat="40.0716391" lon="-105.2298141">
  <ele>1583.0</ele>
  <time>2026-08-28T17:54:26Z</time>
  <course>4.96</course>
  <speed>0.43</speed>
  <fix>3d</fix>
</trkpt>
<trkpt lat="40.0716406" lon="-105.2298137">
  <ele>1583.03</ele>
  <time>2026-08-28T17:54:26Z</time>
  <course>5.38</course>
  <speed>0.5458937625582473</speed>
  <fix>3d</fix>
</trkpt>
<trkpt lat="40.0716399" lon="-105.229814">
  <ele>1583.0</ele>
  <time>2026-08-28T17:54:26Z</time>
  <course>4.67</course>
  <speed>0.51</speed>
  <fix>3d</fix>
</trkpt>
<trkpt lat="40.0716411" lon="-105.2298136">
  <ele>1583.03</ele>
  <time>2026-08-28T17:54:26Z</time>
  <course>5.25</course>
  <speed>0.5755866572463264</speed>
  <fix>3d</fix>
</trkpt>
<trkpt lat="40.0716399" lon="-105.229814">
  <ele>1583.0</ele>
  <time>2026-08-28T17:54:26Z</time>
  <course>4.67</course>
  <speed>0.51</speed>
  <fix>3d</fix>
</trkpt>
<trkpt lat="40.0716417" lon="-105.2298136">
  <ele>1583.02</ele>
  <time>2026-08-28T17:54:26Z</time>
  <course>5.14</course>
  <speed>0.5953990258641678</speed>
  <fix>3d</fix>
</trkpt>
<trkpt lat="40.0716409" lon="-105.2298139">
  <ele>1583.0</ele>
  <time>2026-08-28T17:54:26Z</time>
  <course>4.4</course>
  <speed>0.57</speed>
  <fix>3d</fix>
</trkpt>
<trkpt lat="40.0716423" lon="-105.2298135">
  <ele>1583.02</ele>
  <time>2026-08-28T17:54:26Z</time>
  <course>5.04</course>
  <speed>0.6152235366108809</speed>
  <fix>3d</fix>
</trkpt>
<trkpt lat="40.0716409" lon="-105.2298139">
  <ele>1583.0</ele>
  <time>2026-08-28T17:54:26Z</time>
  <course>4.4</course>
  <speed>0.57</speed>
  <fix>3d</fix>
</trkpt>
<trkpt lat="40.0716429" lon="-105.2298134">
  <ele>1583.02</ele>
  <time>2026-08-28T17:54:26Z</time>
  <course>4.94</course>
  <speed>0.6251399843235114</speed>
  <fix>3d</fix>
</trkpt>
<trkpt lat="40.071642" lon="-105.2298138">
  <ele>1583.0</ele>
  <time>2026-08-28T17:54:26Z</time>
  <course>4.16</course>
  <speed>0.62</speed>
  <fix>3d</fix>
</trkpt>
<trkpt lat="40.0716435" lon="-105.2298134">
  <ele>1583.01</ele>
  <time>2026-08-28T17:54:26Z</time>
  <course>4.87</course>
  <speed>0.6251399843235114</speed>
  <fix>3d</fix>
</trkpt>
<trkpt lat="40.0716431" lon="-105.2298137">
  <ele>1583.0</ele>
  <time>2026-08-28T17:54:26Z</time>
  <course>3.97</course>
  <speed>0.64</speed>
  <fix>3d</fix>
</trkpt>
<trkpt lat="40.0716441" lon="-105.2298133">
  <ele>1583.01</ele>
  <time>2026-08-28T17:54:26Z</time>
  <course>4.8</course>
  <speed>0.6350590523722971</speed>
  <fix>3d</fix>
</trkpt>
<trkpt lat="40.0716431" lon="-105.2298137">
  <ele>1583.0</ele>
  <time>2026-08-28T17:54:26Z</time>
  <course>3.97</course>
  <speed>0.64</speed>
  <fix>3d</fix>
</trkpt>
<trkpt lat="40.0716447" lon="-105.2298132">
  <ele>1583.01</ele>
  <time>2026-08-28T17:54:26Z</time>
  <course>4.75</course>
  <speed>0.6350590523722971</speed>
  <fix>3d</fix>
</trkpt>
<trkpt lat="40.0716442" lon="-105.2298136">
  <ele>1583.0</ele>
  <time>2026-08-28T17:54:26Z</time>
  <course>3.82</course>
  <speed>0.65</speed>
  <fix>3d</fix>
</trkpt>
<trkpt lat="40.0716453" lon="-105.2298132">
  <ele>1583.0</ele>
  <time>2026-08-28T17:54:26Z</time>
  <course>4.7</course>
  <speed>0.6251399843235114</speed>
  <fix>3d</fix>
</trkpt>
<trkpt lat="40.0716442" lon="-105.2298136">
  <ele>1583.0</ele>
  <time>2026-08-28T17:54:26Z</time>
  <course>3.82</course>
  <speed>0.65</speed>
  <fix>3d</fix>
</trkpt>
<trkpt lat="40.0716459" lon="-105.2298131">
  <ele>1583.0</ele>
  <time>2026-08-28T17:54:26Z</time>
  <course>4.66</course>
  <speed>0.6251399843235114</speed>
  <fix>3d</fix>
</trkpt>
<trkpt lat="40.0716454" lon="-105.2298135">
  <ele>1583.0</ele>
  <time>2026-08-28T17:54:26Z</time>
  <course>3.73</course>
  <speed>0.64</speed>
  <fix>3d</fix>
</trkpt>
<trkpt lat="40.0716465" lon="-105.2298131">
  <ele>1583.0</ele>
  <time>2026-08-28T17:54:26Z</time>
  <course>4.64</course>
  <speed>0.6152235366108809</speed>
  <fix>3d</fix>
</trkpt>
<trkpt lat="40.0716454" lon="-105.2298135">
  <ele>1583.0</ele>
  <time>2026-08-28T17:54:26Z</time>
  <course>3.73</course>
  <speed>0.64</speed>
  <fix>3d</fix>
</trkpt>
<trkpt lat="40.0716471" lon="-105.229813">
  <ele>1583.0</ele>
  <time>2026-08-28T17:54:26Z</time>
  <course>4.61</course>
  <speed>0.6140032573203501</speed>
  <fix>3d</fix>
</trkpt>
<trkpt lat="40.0716466" lon="-105.2298134">
  <ele>1583.0</ele>
  <time>2026-08-28T17:54:26Z</time>
  <course>3.67</course>
  <speed>0.63</speed>
  <fix>3d</fix>
</trkpt>
<trkpt lat="40.0716476" lon="-105.229813">
  <ele>1583.0</ele>
  <time>2026-08-28T17:54:26Z</time>
  <course>4.59</course>
  <speed>0.6040695324215583</speed>
  <fix>3d</fix>
</trkpt>
<trkpt lat="40.0716466" lon="-105.2298134">
  <ele>1583.0</ele>
  <time>2026-08-28T17:54:26Z</time>
  <course>3.67</course>
  <speed>0.63</speed>
  <fix>3d</fix>
</trkpt>
<trkpt lat="40.0716482" lon="-105.2298129">
  <ele>1583.0</ele>
  <time>2026-08-28T17:54:26Z</time>
  <course>4.58</course>
  <speed>0.594138031100518</speed>
  <fix>3d</fix>
</trkpt>
<trkpt lat="40.0716477" lon="-105.2298133">
  <ele>1583.0</ele>
  <time>2026-08-28T17:54:26Z</time>
  <course>3.63</course>
  <speed>0.61</speed>
  <fix>3d</fix>
</trkpt>
<trkpt lat="40.0716487" lon="-105.2298129">
  <ele>1583.0</ele>
  <time>2026-08-28T17:54:26Z</time>
  <course>4.57</course>
  <speed>0.5842088667591412</speed>
  <fix>3d</fix>
</trkpt>
<trkpt lat="40.0716477" lon="-105.2298133">
  <ele>1583.0</ele>
  <time>2026-08-28T17:54:26Z</time>
  <course>3.63</course>
  <speed>0.61</speed>
  <fix>3d</fix>
</trkpt>
<trkpt lat="40.0716493" lon="-105.2298128">
  <ele>1583.0</ele>
  <time>2026-08-28T17:54:26Z</time>
  <course>4.57</course>
  <speed>0.5742821606144493</speed>
  <fix>3d</fix>
</trkpt>
<trkpt lat="40.0716488" lon="-105.2298132">
  <ele>1583.0</ele>
  <time>2026-08-28T17:54:26Z</time>
  <course>3.61</course>
  <speed>0.59</speed>
  <fix>3d</fix>
</trkpt>
<trkpt lat="40.0716498" lon="-105.2298128">
  <ele>1583.0</ele>
  <time>2026-08-28T17:54:26Z</time>
  <course>4.57</course>
  <speed>0.5643580423808985</speed>
  <fix>3d</fix>
</trkpt>
<trkpt lat="40.0716488" lon="-105.2298132">
  <ele>1583.0</ele>
  <time>2026-08-28T17:54:26Z</time>
  <course>3.61</course>
  <speed>0.59</speed>
  <fix>3d</fix>
</trkpt>
<trkpt lat="40.0716503" lon="-105.2298128">
  <ele>1583.01</ele>
  <time>2026-08-28T17:54:26Z</time>
  <course>4.57</course>
  <speed>0.5544366510251645</speed>
  <fix>3d</fix>
</trkpt>
<trkpt lat="40.0716499" lon="-105.2298132">
  <ele>1583.0</ele>
  <time>2026-08-28T17:54:26Z</time>
  <course>3.61</course>
  <speed>0.57</speed>
  <fix>3d</fix>
</trkpt>
<trkpt lat="40.0716508" lon="-105.2298127">
  <ele>1583.01</ele>
  <time>2026-08-28T17:54:26Z</time>
  <course>4.56</course>
  <speed>0.5433231082882449</speed>
  <fix>3d</fix>
</trkpt>
<trkpt lat="40.0716499" lon="-105.2298132">
  <ele>1583.0</ele>
  <time>2026-08-28T17:54:26Z</time>
  <course>3.61</course>
  <speed>0.57</speed>
  <fix>3d</fix>
</trkpt>
<trkpt lat="40.0716513" lon="-105.2298127">
  <ele>1583.0</ele>
  <time>2026-08-28T17:54:26Z</time>
  <course>4.56</course>
  <speed>0.5333854141237835</speed>
  <fix>3d</fix>
</trkpt>
<trkpt lat="40.0716499" lon="-105.2298132">
  <ele>1583.0</ele>
  <time>2026-08-28T17:54:26Z</time>
  <course>3.61</course>
  <speed>0.57</speed>
  <fix>3d</fix>
</trkpt>
<trkpt lat="40.0716518" lon="-105.2298127">
  <ele>1583.0</ele>
  <time>2026-08-28T17:54:26Z</time>
  <course>4.57</course>
  <speed>0.523450093132096</speed>
  <fix>3d</fix>
</trkpt>
<trkpt lat="40.0716508" lon="-105.2298131">
  <ele>1583.0</ele>
  <time>2026-08-28T17:54:26Z</time>
  <course>3.61</course>
  <speed>0.54</speed>
  <fix>3d</fix>
</trkpt>
<trkpt lat="40.0716523" lon="-105.2298126">
  <ele>1583.0</ele>
  <time>2026-08-28T17:54:26Z</time>
  <course>4.58</course>
  <speed>0.5135172830587107</speed>
  <fix>3d</fix>
</trkpt>
<trkpt lat="40.0716508" lon="-105.2298131">
  <ele>1583.0</ele>
  <time>2026-08-28T17:54:26Z</time>
  <course>3.61</course>
  <speed>0.54</speed>
  <fix>3d</fix>
</trkpt>
<trkpt lat="40.0716528" lon="-105.2298126">
  <ele>1583.0</ele>
  <time>2026-08-28T17:54:26Z</time>
  <course>4.58</course>
  <speed>0.5035871324805669</speed>
  <fix>3d</fix>
</trkpt>
<trkpt lat="40.0716518" lon="-105.229813">
  <ele>1583.0</ele>
  <time>2026-08-28T17:54:26Z</time>
  <course>3.62</course>
  <speed>0.53</speed>
  <fix>3d</fix>
</trkpt>
<trkpt lat="40.0716532" lon="-105.2298126">
  <ele>1583.0</ele>
  <time>2026-08-28T17:54:26Z</time>
  <course>4.59</course>
  <speed>0.5035871324805669</speed>
  <fix>3d</fix>
</trkpt>
<trkpt lat="40.0716518" lon="-105.229813">
  <ele>1583.0</ele>
  <time>2026-08-28T17:54:26Z</time>
  <course>3.62</course>
  <speed>0.53</speed>
  <fix>3d</fix>
</trkpt>
<trkpt lat="40.0716537" lon="-105.2298125">
  <ele>1583.0</ele>
  <time>2026-08-28T17:54:26Z</time>
  <course>4.61</course>
  <speed>0.4936598018878993</speed>
  <fix>3d</fix>
</trkpt>
<trkpt lat="40.0716527" lon="-105.2298129">
  <ele>1583.0</ele>
  <time>2026-08-28T17:54:26Z</time>
  <course>3.64</course>
  <speed>0.51</speed>
  <fix>3d</fix>
</trkpt>
<trkpt lat="40.0716541" lon="-105.2298125">
  <ele>1583.0</ele>
  <time>2026-08-28T17:54:26Z</time>
  <course>4.62</course>
  <speed>0.48373546489791297</speed>
  <fix>3d</fix>
</trkpt>
<trkpt lat="40.0716527" lon="-105.2298129">
  <ele>1583.0</ele>
  <time>2026-08-28T17:54:26Z</time>
  <course>3.64</course>
  <speed>0.51</speed>
  <fix>3d</fix>
</trkpt>
<trkpt lat="40.0716546" lon="-105.2298125">
  <ele>1583.0</ele>
  <time>2026-08-28T17:54:26Z</time>
  <course>4.63</course>
  <speed>0.4825971404805462</speed>
  <fix>3d</fix>
</trkpt>
<trkpt lat="40.0716536" lon="-105.2298129">
  <ele>1583.0</ele>
  <time>2026-08-28T17:54:26Z</time>
  <course>3.66</course>
  <speed>0.5</speed>
  <fix>3d</fix>
</trkpt>
<trkpt lat="40.071655" lon="-105.2298124">
  <ele>1583.01</ele>
  <time>2026-08-28T17:54:26Z</time>
  <course>4.64</course>
  <speed>0.4825971404805462</speed>
  <fix>3d</fix>
</trkpt>
<trkpt lat="40.0716545" lon="-105.2298128">
  <ele>1583.0</ele>
  <time>2026-08-28T17:54:26Z</time>
  <course>3.69</course>
  <speed>0.49</speed>
  <fix>3d</fix>
</trkpt>
<trkpt lat="40.0716554" lon="-105.2298124">
  <ele>1583.01</ele>
  <time>2026-08-28T17:54:26Z</time>
  <course>4.66</course>
  <speed>0.472652091923859</speed>
  <fix>3d</fix>
</trkpt>
<trkpt lat="40.0716545" lon="-105.2298128">
  <ele>1583.0</ele>
  <time>2026-08-28T17:54:26Z</time>
  <course>3.69</course>
  <speed>0.49</speed>
  <fix>3d</fix>
</trkpt>
<trkpt lat="40.0716559" lon="-105.2298124">
  <ele>1583.01</ele>
  <time>2026-08-28T17:54:26Z</time>
  <course>4.68</course>
  <speed>0.472652091923859</speed>
  <fix>3d</fix>
</trkpt>
<trkpt lat="40.0716554" lon="-105.2298127">
  <ele>1583.0</ele>
  <time>2026-08-28T17:54:26Z</time>
  <course>3.72</course>
  <speed>0.48</speed>
  <fix>3d</fix>
</trkpt>
<trkpt lat="40.0716563" lon="-105.2298124">
  <ele>1583.01</ele>
  <time>2026-08-28T17:54:26Z</time>
  <course>4.69</course>
  <speed>0.472652091923859</speed>
  <fix>3d</fix>
</trkpt>
<trkpt lat="40.0716554" lon="-105.2298127">
  <ele>1583.0</ele>
  <time>2026-08-28T17:54:26Z</time>
  <course>3.72</course>
  <speed>0.48</speed>
  <fix>3d</fix>
</trkpt>
<trkpt lat="40.0716567" lon="-105.2298123">
  <ele>1583.01</ele>
  <time>2026-08-28T17:54:26Z</time>
  <course>4.71</course>
  <speed>0.472652091923859</speed>
  <fix>3d</fix>
</trkpt>
<trkpt lat="40.0716563" lon="-105.2298126">
  <ele>1583.0</ele>
  <time>2026-08-28T17:54:26Z</time>
  <course>3.75</course>
  <speed>0.48</speed>
  <fix>3d</fix>
</trkpt>
<trkpt lat="40.0716572" lon="-105.2298123">
  <ele>1583.01</ele>
  <time>2026-08-28T17:54:26Z</time>
  <course>4.73</course>
  <speed>0.472652091923859</speed>
  <fix>3d</fix>
</trkpt>
<trkpt lat="40.0716563" lon="-105.2298126">
  <ele>1583.0</ele>
  <time>2026-08-28T17:54:26Z</time>
  <course>3.75</course>
  <speed>0.48</speed>
  <fix>3d</fix>
</trkpt>
<trkpt lat="40.0716576" lon="-105.2298123">
  <ele>1583.01</ele>
  <time>2026-08-28T17:54:26Z</time>
  <course>4.75</course>
  <speed>0.472652091923859</speed>
  <fix>3d</fix>
</trkpt>
<trkpt lat="40.0716572" lon="-105.2298125">
  <ele>1583.0</ele>
  <time>2026-08-28T17:54:26Z</time>
  <course>3.79</course>
  <speed>0.48</speed>
  <fix>3d</fix>
</trkpt>
<trkpt lat="40.071658" lon="-105.2298122">
  <ele>1583.01</ele>
  <time>2026-08-28T17:54:26Z</time>
  <course>4.77</course>
  <speed>0.472652091923859</speed>
  <fix>3d</fix>
</trkpt>
<trkpt lat="40.0716572" lon="-105.2298125">
  <ele>1583.0</ele>
  <time>2026-08-28T17:54:26Z</time>
  <course>3.79</course>
  <speed>0.48</speed>
  <fix>3d</fix>
</trkpt>
<trkpt lat="40.0716585" lon="-105.2298122">
  <ele>1583.01</ele>
  <time>2026-08-28T17:54:26Z</time>
  <course>4.78</course>
  <speed>0.472652091923859</speed>
  <fix>3d</fix>
</trkpt>
<trkpt lat="40.071658" lon="-105.2298125">
  <ele>1583.0</ele>
  <time>2026-08-28T17:54:26Z</time>
  <course>3.82</course>
  <speed>0.48</speed>
  <fix>3d</fix>
</trkpt>
<trkpt lat="40.0716589" lon="-105.2298122">
  <ele>1583.01</ele>
  <time>2026-08-28T17:54:26Z</time>
  <course>4.8</course>
  <speed>0.472652091923859</speed>
  <fix>3d</fix>
</trkpt>
<trkpt lat="40.071658" lon="-105.2298125">
  <ele>1583.0</ele>
  <time>2026-08-28T17:54:26Z</time>
  <course>3.82</course>
  <speed>0.48</speed>
  <fix>3d</fix>
</trkpt>
<trkpt lat="40.0716594" lon="-105.2298121">
  <ele>1583.02</ele>
  <time>2026-08-28T17:54:26Z</time>
  <course>4.82</course>
  <speed>0.4825971404805462</speed>
  <fix>3d</fix>
</trkpt>
<trkpt lat="40.0716589" lon="-105.2298124">
  <ele>1583.0</ele>
  <time>2026-08-28T17:54:26Z</time>
  <course>3.85</course>
  <speed>0.48</speed>
  <fix>3d</fix>
</trkpt>
<trkpt lat="40.0716598" lon="-105.2298121">
  <ele>1583.02</ele>
  <time>2026-08-28T17:54:26Z</time>
  <course>4.83</course>
  <speed>0.4825971404805462</speed>
  <fix>3d</fix>
</trkpt>
<trkpt lat="40.0716589" lon="-105.2298124">
  <ele>1583.0</ele>
  <time>2026-08-28T17:54:26Z</time>
  <course>3.85</course>
  <speed>0.48</speed>
  <fix>3d</fix>
</trkpt>
<trkpt lat="40.0716602" lon="-105.2298121">
  <ele>1583.02</ele>
  <time>2026-08-28T17:54:26Z</time>
  <course>4.85</course>
  <speed>0.4825971404805462</speed>
  <fix>3d</fix>
</trkpt>
<trkpt lat="40.0716598" lon="-105.2298123">
  <ele>1583.0</ele>
  <time>2026-08-28T17:54:26Z</time>
  <course>3.88</course>
  <speed>0.48</speed>
  <fix>3d</fix>
</trkpt>
<trkpt lat="40.0716607" lon="-105.229812">
  <ele>1583.03</ele>
  <time>2026-08-28T17:54:26Z</time>
  <course>4.86</course>
  <speed>0.4825971404805462</speed>
  <fix>3d</fix>
</trkpt>
<trkpt lat="40.0716598" lon="-105.2298123">
  <ele>1583.0</ele>
  <time>2026-08-28T17:54:26Z</time>
  <course>3.88</course>
  <speed>0.48</speed>
  <fix>3d</fix>
</trkpt>
<trkpt lat="40.0716611" lon="-105.229812">
  <ele>1583.03</ele>
  <time>2026-08-28T17:54:26Z</time>
  <course>4.88</course>
  <speed>0.4825971404805462</speed>
  <fix>3d</fix>
</trkpt>
<trkpt lat="40.0716598" lon="-105.2298123">
  <ele>1583.0</ele>
  <time>2026-08-28T17:54:26Z</time>
  <course>3.88</course>
  <speed>0.48</speed>
  <fix>3d</fix>
</trkpt>
<trkpt lat="40.0716616" lon="-105.229812">
  <ele>1583.03</ele>
  <time>2026-08-28T17:54:26Z</time>
  <course>4.89</course>
  <speed>0.4825971404805462</speed>
  <fix>3d</fix>
</trkpt>
<trkpt lat="40.0716606" lon="-105.2298122">
  <ele>1583.0</ele>
  <time>2026-08-28T17:54:26Z</time>
  <course>3.91</course>
  <speed>0.49</speed>
  <fix>3d</fix>
</trkpt>
<trkpt lat="40.071662" lon="-105.2298119">
  <ele>1583.03</ele>
  <time>2026-08-28T17:54:26Z</time>
  <course>4.91</course>
  <speed>0.4825971404805462</speed>
  <fix>3d</fix>
</trkpt>
<trkpt lat="40.0716606" lon="-105.2298122">
  <ele>1583.0</ele>
  <time>2026-08-28T17:54:26Z</time>
  <course>3.91</course>
  <speed>0.49</speed>
  <fix>3d</fix>
</trkpt>
<trkpt lat="40.0716625" lon="-105.2298119">
  <ele>1583.03</ele>
  <time>2026-08-28T17:54:26Z</time>
  <course>4.92</course>
  <speed>0.4825971404805462</speed>
  <fix>3d</fix>
</trkpt>
<trkpt lat="40.0716615" lon="-105.2298122">
  <ele>1583.0</ele>
  <time>2026-08-28T17:54:26Z</time>
  <course>3.94</course>
  <speed>0.49</speed>
  <fix>3d</fix>
</trkpt>
<trkpt lat="40.0716629" lon="-105.2298118">
  <ele>1583.03</ele>
  <time>2026-08-28T17:54:26Z</time>
  <course>4.94</course>
  <speed>0.4825971404805462</speed>
  <fix>3d</fix>
</trkpt>
<trkpt lat="40.0716615" lon="-105.2298122">
  <ele>1583.0</ele>
  <time>2026-08-28T17:54:26Z</time>
  <course>3.94</course>
  <speed>0.49</speed>
  <fix>3d</fix>
</trkpt>
<trkpt lat="40.0716633" lon="-105.2298118">
  <ele>1583.03</ele>
  <time>2026-08-28T17:54:26Z</time>
  <course>4.95</course>
  <speed>0.49254441424099005</speed>
  <fix>3d</fix>
</trkpt>
<trkpt lat="40.0716624" lon="-105.2298121">
  <ele>1583.0</ele>
  <time>2026-08-28T17:54:26Z</time>
  <course>3.96</course>
  <speed>0.49</speed>
  <fix>3d</fix>
</trkpt>
<trkpt lat="40.0716638" lon="-105.2298118">
  <ele>1583.03</ele>
  <time>2026-08-28T17:54:26Z</time>
  <course>4.97</course>
  <speed>0.49254441424099005</speed>
  <fix>3d</fix>
</trkpt>
<trkpt lat="40.0716633" lon="-105.229812">
  <ele>1583.0</ele>
  <time>2026-08-28T17:54:26Z</time>
  <course>3.99</course>
  <speed>0.49</speed>
  <fix>3d</fix>
</trkpt>
<trkpt lat="40.0716642" lon="-105.2298117">
  <ele>1583.02</ele>
  <time>2026-08-28T17:54:26Z</time>
  <course>4.98</course>
  <speed>0.49254441424099005</speed>
  <fix>3d</fix>
</trkpt>
<trkpt lat="40.0716633" lon="-105.229812">
  <ele>1583.0</ele>
  <time>2026-08-28T17:54:26Z</time>
  <course>3.99</course>
  <speed>0.49</speed>
  <fix>3d</fix>
</trkpt>
<trkpt lat="40.0716647" lon="-105.2298117">
  <ele>1583.02</ele>
  <time>2026-08-28T17:54:26Z</time>
  <course>5.0</course>
  <speed>0.49254441424099005</speed>
  <fix>3d</fix>
</trkpt>
<trkpt lat="40.0716642" lon="-105.2298119">
  <ele>1583.0</ele>
  <time>2026-08-28T17:54:26Z</time>
  <course>4.02</course>
  <speed>0.5</speed>
  <fix>3d</fix>
</trkpt>
<trkpt lat="40.0716651" lon="-105.2298117">
  <ele>1583.02</ele>
  <time>2026-08-28T17:54:26Z</time>
  <course>5.01</course>
  <speed>0.49254441424099005</speed>
  <fix>3d</fix>
</trkpt>
<trkpt lat="40.0716642" lon="-105.2298119">
  <ele>1583.0</ele>
  <time>2026-08-28T17:54:26Z</time>
  <course>4.02</course>
  <speed>0.5</speed>
  <fix>3d</fix>
</trkpt>
<trkpt lat="40.0716656" lon="-105.2298116">
  <ele>1583.01</ele>
  <time>2026-08-28T17:54:26Z</time>
  <course>5.02</course>
  <speed>0.49254441424099005</speed>
  <fix>3d</fix>
</trkpt>
<trkpt lat="40.0716651" lon="-105.2298118">
  <ele>1583.0</ele>
  <time>2026-08-28T17:54:26Z</time>
  <course>4.04</course>
  <speed>0.5</speed>
  <fix>3d</fix>
</trkpt>
<trkpt lat="40.071666" lon="-105.2298116">
  <ele>1583.01</ele>
  <time>2026-08-28T17:54:26Z</time>
  <course>5.03</course>
  <speed>0.49254441424099005</speed>
  <fix>3d</fix>
</trkpt>
<trkpt lat="40.0716651" lon="-105.2298118">
  <ele>1583.0</ele>
  <time>2026-08-28T17:54:26Z</time>
  <course>4.04</course>
  <speed>0.5</speed>
  <fix>3d</fix>
</trkpt>
<trkpt lat="40.0716665" lon="-105.2298115">
  <ele>1583.01</ele>
  <time>2026-08-28T17:54:26Z</time>
  <course>5.04</course>
  <speed>0.49254441424099005</speed>
  <fix>3d</fix>
</trkpt>
<trkpt lat="40.071666" lon="-105.2298117">
  <ele>1583.0</ele>
  <time>2026-08-28T17:54:26Z</time>
  <course>4.06</course>
  <speed>0.5</speed>
  <fix>3d</fix>
</trkpt>
<trkpt lat="40.0716669" lon="-105.2298115">
  <ele>1583.01</ele>
  <time>2026-08-28T17:54:26Z</time>
  <course>5.06</course>
  <speed>0.49254441424099005</speed>
  <fix>3d</fix>
</trkpt>
<trkpt lat="40.071666" lon="-105.2298117">
  <ele>1583.0</ele>
  <time>2026-08-28T17:54:26Z</time>
  <course>4.06</course>
  <speed>0.5</speed>
  <fix>3d</fix>
</trkpt>
<trkpt lat="40.0716674" lon="-105.2298115">
  <ele>1583.01</ele>
  <time>2026-08-28T17:54:26Z</time>
  <course>5.07</course>
  <speed>0.49254441424099005</speed>
  <fix>3d</fix>
</trkpt>
<trkpt lat="40.0716669" lon="-105.2298117">
  <ele>1583.0</ele>
  <time>2026-08-28T17:54:26Z</time>
  <course>4.08</course>
  <speed>0.5</speed>
  <fix>3d</fix>
</trkpt>
<trkpt lat="40.0716678" lon="-105.2298114">
  <ele>1583.02</ele>
  <time>2026-08-28T17:54:26Z</time>
  <course>5.07</course>
  <speed>0.49254441424099005</speed>
  <fix>3d</fix>
</trkpt>
<trkpt lat="40.0716669" lon="-105.2298117">
  <ele>1583.0</ele>
  <time>2026-08-28T17:54:26Z</time>
  <course>4.08</course>
  <speed>0.5</speed>
  <fix>3d</fix>
</trkpt>
<trkpt lat="40.0716683" lon="-105.2298114">
  <ele>1583.02</ele>
  <time>2026-08-28T17:54:26Z</time>
  <course>5.08</course>
  <speed>0.49254441424099005</speed>
  <fix>3d</fix>
</trkpt>
<trkpt lat="40.0716678" lon="-105.2298116">
  <ele>1583.0</ele>
  <time>2026-08-28T17:54:26Z</time>
  <course>4.09</course>
  <speed>0.5</speed>
  <fix>3d</fix>
</trkpt>
<trkpt lat="40.0716688" lon="-105.2298113">
  <ele>1583.01</ele>
  <time>2026-08-28T17:54:26Z</time>
  <course>5.09</course>
  <speed>0.49254441424099005</speed>
  <fix>3d</fix>
</trkpt>
<trkpt lat="40.0716678" lon="-105.2298116">
  <ele>1583.0</ele>
  <time>2026-08-28T17:54:26Z</time>
  <course>4.09</course>
  <speed>0.5</speed>
  <fix>3d</fix>
</trkpt>
<trkpt lat="40.0716692" lon="-105.2298113">
  <ele>1583.01</ele>
  <time>2026-08-28T17:54:26Z</time>
  <course>5.1</course>
  <speed>0.49254441424099005</speed>
  <fix>3d</fix>
</trkpt>
<trkpt lat="40.0716687" lon="-105.2298115">
  <ele>1583.0</ele>
  <time>2026-08-28T17:54:26Z</time>
  <course>4.1</course>
  <speed>0.5</speed>
  <fix>3d</fix>
</trkpt>
<trkpt lat="40.0716697" lon="-105.2298113">
  <ele>1583.01</ele>
  <time>2026-08-28T17:54:26Z</time>
  <course>5.11</course>
  <speed>0.49254441424099005</speed>
  <fix>3d</fix>
</trkpt>
<trkpt lat="40.0716687" lon="-105.2298115">
  <ele>1583.0</ele>
  <time>2026-08-28T17:54:26Z</time>
  <course>4.1</course>
  <speed>0.5</speed>
  <fix>3d</fix>
</trkpt>
<trkpt lat="40.0716701" lon="-105.2298112">
  <ele>1583.01</ele>
  <time>2026-08-28T17:54:26Z</time>
  <course>5.12</course>
  <speed>0.49254441424099005</speed>
  <fix>3d</fix>
</trkpt>
<trkpt lat="40.0716687" lon="-105.2298115">
  <ele>1583.0</ele>
  <time>2026-08-28T17:54:26Z</time>
  <course>4.1</course>
  <speed>0.5</speed>
  <fix>3d</fix>
</trkpt>
<trkpt lat="40.0716706" lon="-105.2298112">
  <ele>1583.01</ele>
  <time>2026-08-28T17:54:26Z</time>
  <course>5.13</course>
  <speed>0.49254441424099005</speed>
  <fix>3d</fix>
</trkpt>
<trkpt lat="40.0716696" lon="-105.2298114">
  <ele>1583.0</ele>
  <time>2026-08-28T17:54:26Z</time>
  <course>4.12</course>
  <speed>0.5</speed>
  <fix>3d</fix>
</trkpt>
<trkpt lat="40.071671" lon="-105.2298111">
  <ele>1583.0</ele>
  <time>2026-08-28T17:54:26Z</time>
  <course>5.14</course>
  <speed>0.49254441424099005</speed>
  <fix>3d</fix>
</trkpt>
<trkpt lat="40.0716696" lon="-105.2298114">
  <ele>1583.0</ele>
  <time>2026-08-28T17:54:26Z</time>
  <course>4.12</course>
  <speed>0.5</speed>
  <fix>3d</fix>
</trkpt>
<trkpt lat="40.0716715" lon="-105.2298111">
  <ele>1583.0</ele>
  <time>2026-08-28T17:54:26Z</time>
  <course>5.14</course>
  <speed>0.49254441424099005</speed>
  <fix>3d</fix>
</trkpt>
<trkpt lat="40.0716705" lon="-105.2298113">
  <ele>1583.0</ele>
  <time>2026-08-28T17:54:26Z</time>
  <course>4.13</course>
  <speed>0.51</speed>
  <fix>3d</fix>
</trkpt>
<trkpt lat="40.0716719" lon="-105.229811">
  <ele>1583.0</ele>
  <time>2026-08-28T17:54:26Z</time>
  <course>5.15</course>
  <speed>0.49254441424099005</speed>
  <fix>3d</fix>
</trkpt>
<trkpt lat="40.0716705" lon="-105.2298113">
  <ele>1583.0</ele>
  <time>2026-08-28T17:54:26Z</time>
  <course>4.13</course>
  <speed>0.51</speed>
  <fix>3d</fix>
</trkpt>
<trkpt lat="40.0716724" lon="-105.229811">
  <ele>1583.0</ele>
  <time>2026-08-28T17:54:26Z</time>
  <course>5.16</course>
  <speed>0.49254441424099005</speed>
  <fix>3d</fix>
</trkpt>
<trkpt lat="40.0716714" lon="-105.2298112">
  <ele>1583.0</ele>
  <time>2026-08-28T17:54:26Z</time>
  <course>4.14</course>
  <speed>0.51</speed>
  <fix>3d</fix>
</trkpt>
<trkpt lat="40.0716728" lon="-105.229811">
  <ele>1583.0</ele>
  <time>2026-08-28T17:54:26Z</time>
  <course>5.17</course>
  <speed>0.49254441424099005</speed>
  <fix>3d</fix>
</trkpt>
<trkpt lat="40.0716724" lon="-105.2298112">
  <ele>1583.0</ele>
  <time>2026-08-28T17:54:26Z</time>
  <course>4.15</course>
  <speed>0.51</speed>
  <fix>3d</fix>
</trkpt>
<trkpt lat="40.0716733" lon="-105.2298109">
  <ele>1582.99</ele>
  <time>2026-08-28T17:54:26Z</time>
  <course>5.17</course>
  <speed>0.49254441424099005</speed>
  <fix>3d</fix>
</trkpt>
<trkpt lat="40.0716724" lon="-105.2298112">
  <ele>1583.0</ele>
  <time>2026-08-28T17:54:26Z</time>
  <course>4.15</course>
  <speed>0.51</speed>
  <fix>3d</fix>
</trkpt>
<trkpt lat="40.0716737" lon="-105.2298109">
  <ele>1582.99</ele>
  <time>2026-08-28T17:54:26Z</time>
  <course>5.17</course>
  <speed>0.49254441424099005</speed>
  <fix>3d</fix>
</trkpt>
<trkpt lat="40.0716733" lon="-105.2298111">
  <ele>1583.0</ele>
  <time>2026-08-28T17:54:26Z</time>
  <course>4.16</course>
  <speed>0.51</speed>
  <fix>3d</fix>
</trkpt>
<trkpt lat="40.0716742" lon="-105.2298108">
  <ele>1582.99</ele>
  <time>2026-08-28T17:54:26Z</time>
  <course>5.18</course>
  <speed>0.49254441424099005</speed>
  <fix>3d</fix>
</trkpt>
<trkpt lat="40.0716733" lon="-105.2298111">
  <ele>1583.0</ele>
  <time>2026-08-28T17:54:26Z</time>
  <course>4.16</course>
  <speed>0.51</speed>
  <fix>3d</fix>
</trkpt>
<trkpt lat="40.0716747" lon="-105.2298108">
  <ele>1582.98</ele>
  <time>2026-08-28T17:54:26Z</time>
  <course>5.19</course>
  <speed>0.49254441424099005</speed>
  <fix>3d</fix>
</trkpt>
<trkpt lat="40.0716742" lon="-105.229811">
  <ele>1583.0</ele>
  <time>2026-08-28T17:54:26Z</time>
  <course>4.16</course>
  <speed>0.51</speed>
  <fix>3d</fix>
</trkpt>
<trkpt lat="40.0716751" lon="-105.2298108">
  <ele>1582.98</ele>
  <time>2026-08-28T17:54:26Z</time>
  <course>5.19</course>
  <speed>0.49254441424099005</speed>
  <fix>3d</fix>
</trkpt>
<trkpt lat="40.0716742" lon="-105.229811">
  <ele>1583.0</ele>
  <time>2026-08-28T17:54:26Z</time>
  <course>4.16</course>
  <speed>0.51</speed>
  <fix>3d</fix>
</trkpt>
<trkpt lat="40.0716756" lon="-105.2298107">
  <ele>1582.98</ele>
  <time>2026-08-28T17:54:26Z</time>
  <course>5.19</course>
  <speed>0.49254441424099005</speed>
  <fix>3d</fix>
</trkpt>
<trkpt lat="40.0716751" lon="-105.2298109">
  <ele>1583.0</ele>
  <time>2026-08-28T17:54:26Z</time>
  <course>4.17</course>
  <speed>0.51</speed>
  <fix>3d</fix>
</trkpt>
<trkpt lat="40.071676" lon="-105.2298107">
  <ele>1582.98</ele>
  <time>2026-08-28T17:54:26Z</time>
  <course>5.2</course>
  <speed>0.49254441424099005</speed>
  <fix>3d</fix>
</trkpt>
<trkpt lat="40.0716751" lon="-105.2298109">
  <ele>1583.0</ele>
  <time>2026-08-28T17:54:26Z</time>
  <course>4.17</course>
  <speed>0.51</speed>
  <fix>3d</fix>
</trkpt>
<trkpt lat="40.0716765" lon="-105.2298106">
  <ele>1582.98</ele>
  <time>2026-08-28T17:54:26Z</time>
  <course>5.21</course>
  <speed>0.49254441424099005</speed>
  <fix>3d</fix>
</trkpt>
<trkpt lat="40.0716761" lon="-105.2298108">
  <ele>1583.0</ele>
  <time>2026-08-28T17:54:26Z</time>
  <course>4.17</course>
  <speed>0.51</speed>
  <fix>3d</fix>
</trkpt>
<trkpt lat="40.071677" lon="-105.2298106">
  <ele>1582.98</ele>
  <time>2026-08-28T17:54:26Z</time>
  <course>5.21</course>
  <speed>0.49254441424099005</speed>
  <fix>3d</fix>
</trkpt>
<trkpt lat="40.0716761" lon="-105.2298108">
  <ele>1583.0</ele>
  <time>2026-08-28T17:54:26Z</time>
  <course>4.17</course>
  <speed>0.51</speed>
  <fix>3d</fix>
</trkpt>
<trkpt lat="40.0716774" lon="-105.2298105">
  <ele>1582.98</ele>
  <time>2026-08-28T17:54:26Z</time>
  <course>5.21</course>
  <speed>0.49254441424099005</speed>
  <fix>3d</fix>
</trkpt>
<trkpt lat="40.071677" lon="-105.2298107">
  <ele>1583.0</ele>
  <time>2026-08-28T17:54:26Z</time>
  <course>4.17</course>
  <speed>0.51</speed>
  <fix>3d</fix>
</trkpt>
<trkpt lat="40.0716779" lon="-105.2298105">
  <ele>1582.97</ele>
  <time>2026-08-28T17:54:26Z</time>
  <course>5.21</course>
  <speed>0.49254441424099005</speed>
  <fix>3d</fix>
</trkpt>
<trkpt lat="40.071677" lon="-105.2298107">
  <ele>1583.0</ele>
  <time>2026-08-28T17:54:26Z</time>
  <course>4.17</course>
  <speed>0.51</speed>
  <fix>3d</fix>
</trkpt>
<trkpt lat="40.0716784" lon="-105.2298105">
  <ele>1582.97</ele>
  <time>2026-08-28T17:54:26Z</time>
  <course>5.22</course>
  <speed>0.49254441424099005</speed>
  <fix>3d</fix>
</trkpt>
<trkpt lat="40.0716779" lon="-105.2298106">
  <ele>1583.0</ele>
  <time>2026-08-28T17:54:26Z</time>
  <course>4.17</course>
  <speed>0.51</speed>
  <fix>3d</fix>
</trkpt>
<trkpt lat="40.0716788" lon="-105.2298104">
  <ele>1582.98</ele>
  <time>2026-08-28T17:54:26Z</time>
  <course>5.22</course>
  <speed>0.49254441424099005</speed>
  <fix>3d</fix>
</trkpt>
<trkpt lat="40.0716779" lon="-105.2298106">
  <ele>1583.0</ele>
  <time>2026-08-28T17:54:26Z</time>
  <course>4.17</course>
  <speed>0.51</speed>
  <fix>3d</fix>
</trkpt>
<trkpt lat="40.0716793" lon="-105.2298104">
  <ele>1582.98</ele>
  <time>2026-08-28T17:54:26Z</time>
  <course>5.22</course>
  <speed>0.49254441424099005</speed>
  <fix>3d</fix>
</trkpt>
<trkpt lat="40.0716779" lon="-105.2298106">
  <ele>1583.0</ele>
  <time>2026-08-28T17:54:26Z</time>
  <course>4.17</course>
  <speed>0.51</speed>
  <fix>3d</fix>
</trkpt>
<trkpt lat="40.0716797" lon="-105.2298103">
  <ele>1582.98</ele>
  <time>2026-08-28T17:54:26Z</time>
  <course>5.23</course>
  <speed>0.49254441424099005</speed>
  <fix>3d</fix>
</trkpt>
<trkpt lat="40.0716788" lon="-105.2298105">
  <ele>1583.0</ele>
  <time>2026-08-28T17:54:26Z</time>
  <course>4.17</course>
  <speed>0.51</speed>
  <fix>3d</fix>
</trkpt>
<trkpt lat="40.0716802" lon="-105.2298103">
  <ele>1582.98</ele>
  <time>2026-08-28T17:54:26Z</time>
  <course>5.23</course>
  <speed>0.49254441424099005</speed>
  <fix>3d</fix>
</trkpt>
<trkpt lat="40.0716788" lon="-105.2298105">
  <ele>1583.0</ele>
  <time>2026-08-28T17:54:26Z</time>
  <course>4.17</course>
  <speed>0.51</speed>
  <fix>3d</fix>
</trkpt>
<trkpt lat="40.0716807" lon="-105.2298102">
  <ele>1582.99</ele>
  <time>2026-08-28T17:54:26Z</time>
  <course>5.23</course>
  <speed>0.49254441424099005</speed>
  <fix>3d</fix>
</trkpt>
<trkpt lat="40.0716798" lon="-105.2298104">
  <ele>1583.0</ele>
  <time>2026-08-28T17:54:26Z</time>
  <course>4.18</course>
  <speed>0.51</speed>
  <fix>3d</fix>
</trkpt>
<trkpt lat="40.0716811" lon="-105.2298102">
  <ele>1582.99</ele>
  <time>2026-08-28T17:54:26Z</time>
  <course>5.23</course>
  <speed>0.49254441424099005</speed>
  <fix>3d</fix>
</trkpt>
<trkpt lat="40.0716798" lon="-105.2298104">
  <ele>1583.0</ele>
  <time>2026-08-28T17:54:26Z</time>
  <course>4.18</course>
  <speed>0.51</speed>
  <fix>3d</fix>
</trkpt>
<trkpt lat="40.0716816" lon="-105.2298101">
  <ele>1582.99</ele>
  <time>2026-08-28T17:54:26Z</time>
  <course>5.24</course>
  <speed>0.49254441424099005</speed>
  <fix>3d</fix>
</trkpt>
<trkpt lat="40.0716807" lon="-105.2298103">
  <ele>1583.0</ele>
  <time>2026-08-28T17:54:26Z</time>
  <course>4.18</course>
  <speed>0.51</speed>
  <fix>3d</fix>
</trkpt>
<trkpt lat="40.071682" lon="-105.2298101">
  <ele>1583.0</ele>
  <time>2026-08-28T17:54:26Z</time>
  <course>5.24</course>
  <speed>0.49254441424099005</speed>
  <fix>3d</fix>
</trkpt>
<trkpt lat="40.0716807" lon="-105.2298103">
  <ele>1583.0</ele>
  <time>2026-08-28T17:54:26Z</time>
  <course>4.18</course>
  <speed>0.51</speed>
  <fix>3d</fix>
</trkpt>
<trkpt lat="40.0716825" lon="-105.22981">
  <ele>1583.0</ele>
  <time>2026-08-28T17:54:26Z</time>
  <course>5.24</course>
  <speed>0.49254441424099005</speed>
  <fix>3d</fix>
</trkpt>
<trkpt lat="40.0716816" lon="-105.2298103">
  <ele>1583.0</ele>
  <time>2026-08-28T17:54:26Z</time>
  <course>4.18</course>
  <speed>0.51</speed>
  <fix>3d</fix>
</trkpt>
<trkpt lat="40.071683" lon="-105.22981">
  <ele>1583.0</ele>
  <time>2026-08-28T17:54:26Z</time>
  <course>5.24</course>
  <speed>0.49254441424099005</speed>
  <fix>3d</fix>
</trkpt>
<trkpt lat="40.0716826" lon="-105.2298102">
  <ele>1583.0</ele>
  <time>2026-08-28T17:54:26Z</time>
  <course>4.18</course>
  <speed>0.51</speed>
  <fix>3d</fix>
</trkpt>
<trkpt lat="40.0716834" lon="-105.22981">
  <ele>1583.0</ele>
  <time>2026-08-28T17:54:26Z</time>
  <course>5.25</course>
  <speed>0.49254441424099005</speed>
  <fix>3d</fix>
</trkpt>
<trkpt lat="40.0716826" lon="-105.2298102">
  <ele>1583.0</ele>
  <time>2026-08-28T17:54:27Z</time>
  <course>4.18</course>
  <speed>0.51</speed>
  <fix>3d</fix>
</trkpt>
<trkpt lat="40.0716839" lon="-105.2298099">
  <ele>1583.0</ele>
  <time>2026-08-28T17:54:27Z</time>
  <course>5.25</course>
  <speed>0.49254441424099005</speed>
  <fix>3d</fix>
</trkpt>
<trkpt lat="40.0716835" lon="-105.2298101">
  <ele>1583.0</ele>
  <time>2026-08-28T17:54:27Z</time>
  <course>4.18</course>
  <speed>0.51</speed>
  <fix>3d</fix>
</trkpt>
<trkpt lat="40.0716843" lon="-105.2298099">
  <ele>1583.0</ele>
  <time>2026-08-28T17:54:27Z</time>
  <course>5.25</course>
  <speed>0.49254441424099005</speed>
  <fix>3d</fix>
</trkpt>
<trkpt lat="40.0716835" lon="-105.2298101">
  <ele>1583.0</ele>
  <time>2026-08-28T17:54:27Z</time>
  <course>4.18</course>
  <speed>0.51</speed>
  <fix>3d</fix>
</trkpt>
<trkpt lat="40.0716848" lon="-105.2298098">
  <ele>1583.0</ele>
  <time>2026-08-28T17:54:27Z</time>
  <course>5.25</course>
  <speed>0.49254441424099005</speed>
  <fix>3d</fix>
</trkpt>
<trkpt lat="40.0716844" lon="-105.22981">
  <ele>1583.0</ele>
  <time>2026-08-28T17:54:27Z</time>
  <course>4.18</course>
  <speed>0.51</speed>
  <fix>3d</fix>
</trkpt>
<trkpt lat="40.0716853" lon="-105.2298098">
  <ele>1583.0</ele>
  <time>2026-08-28T17:54:27Z</time>
  <course>5.26</course>
  <speed>0.49254441424099005</speed>
  <fix>3d</fix>
</trkpt>
<trkpt lat="40.0716844" lon="-105.22981">
  <ele>1583.0</ele>
  <time>2026-08-28T17:54:27Z</time>
  <course>4.18</course>
  <speed>0.51</speed>
  <fix>3d</fix>
</trkpt>
<trkpt lat="40.0716857" lon="-105.2298097">
  <ele>1583.0</ele>
  <time>2026-08-28T17:54:27Z</time>
  <course>5.26</course>
  <speed>0.49254441424099005</speed>
  <fix>3d</fix>
</trkpt>
<trkpt lat="40.0716853" lon="-105.2298099">
  <ele>1583.0</ele>
  <time>2026-08-28T17:54:27Z</time>
  <course>4.18</course>
  <speed>0.51</speed>
  <fix>3d</fix>
</trkpt>
<trkpt lat="40.0716862" lon="-105.2298097">
  <ele>1583.01</ele>
  <time>2026-08-28T17:54:27Z</time>
  <course>5.26</course>
  <speed>0.49254441424099005</speed>
  <fix>3d</fix>
</trkpt>
<trkpt lat="40.0716853" lon="-105.2298099">
  <ele>1583.0</ele>
  <time>2026-08-28T17:54:27Z</time>
  <course>4.18</course>
  <speed>0.51</speed>
  <fix>3d</fix>
</trkpt>
<trkpt lat="40.0716867" lon="-105.2298097">
  <ele>1583.01</ele>
  <time>2026-08-28T17:54:27Z</time>
  <course>5.27</course>
  <speed>0.49254441424099005</speed>
  <fix>3d</fix>
</trkpt>
<trkpt lat="40.0716862" lon="-105.2298098">
  <ele>1583.0</ele>
  <time>2026-08-28T17:54:27Z</time>
  <course>4.18</course>
  <speed>0.51</speed>
  <fix>3d</fix>
</trkpt>
<trkpt lat="40.0716871" lon="-105.2298096">
  <ele>1583.01</ele>
  <time>2026-08-28T17:54:27Z</time>
  <course>5.27</course>
  <speed>0.49254441424099005</speed>
  <fix>3d</fix>
</trkpt>
<trkpt lat="40.0716862" lon="-105.2298098">
  <ele>1583.0</ele>
  <time>2026-08-28T17:54:27Z</time>
  <course>4.18</course>
  <speed>0.51</speed>
  <fix>3d</fix>
</trkpt>
<trkpt lat="40.0716876" lon="-105.2298096">
  <ele>1583.0</ele>
  <time>2026-08-28T17:54:27Z</time>
  <course>5.28</course>
  <speed>0.49254441424099005</speed>
  <fix>3d</fix>
</trkpt>
<trkpt lat="40.0716872" lon="-105.2298097">
  <ele>1583.0</ele>
  <time>2026-08-28T17:54:27Z</time>
  <course>4.19</course>
  <speed>0.51</speed>
  <fix>3d</fix>
</trkpt>
<trkpt lat="40.0716881" lon="-105.2298095">
  <ele>1583.01</ele>
  <time>2026-08-28T17:54:27Z</time>
  <course>5.29</course>
  <speed>0.49254441424099005</speed>
  <fix>3d</fix>
</trkpt>
<trkpt lat="40.0716872" lon="-105.2298097">
  <ele>1583.0</ele>
  <time>2026-08-28T17:54:27Z</time>
  <course>4.19</course>
  <speed>0.51</speed>
  <fix>3d</fix>
</trkpt>
<trkpt lat="40.0716885" lon="-105.2298095">
  <ele>1583.01</ele>
  <time>2026-08-28T17:54:27Z</time>
  <course>5.3</course>
  <speed>0.49254441424099005</speed>
  <fix>3d</fix>
</trkpt>
<trkpt lat="40.0716881" lon="-105.2298096">
  <ele>1583.0</ele>
  <time>2026-08-28T17:54:27Z</time>
  <course>4.2</course>
  <speed>0.51</speed>
  <fix>3d</fix>
</trkpt>
<trkpt lat="40.071689" lon="-105.2298094">
  <ele>1583.01</ele>
  <time>2026-08-28T17:54:27Z</time>
  <course>5.31</course>
  <speed>0.49254441424099005</speed>
  <fix>3d</fix>
</trkpt>
<trkpt lat="40.0716881" lon="-105.2298096">
  <ele>1583.0</ele>
  <time>2026-08-28T17:54:27Z</time>
  <course>4.2</course>
  <speed>0.51</speed>
  <fix>3d</fix>
</trkpt>
<trkpt lat="40.0716895" lon="-105.2298094">
  <ele>1583.02</ele>
  <time>2026-08-28T17:54:27Z</time>
  <course>5.32</course>
  <speed>0.49254441424099005</speed>
  <fix>3d</fix>
</trkpt>
<trkpt lat="40.0716881" lon="-105.2298096">
  <ele>1583.0</ele>
  <time>2026-08-28T17:54:27Z</time>
  <course>4.2</course>
  <speed>0.51</speed>
  <fix>3d</fix>
</trkpt>
<trkpt lat="40.0716899" lon="-105.2298093">
  <ele>1583.02</ele>
  <time>2026-08-28T17:54:27Z</time>
  <course>5.33</course>
  <speed>0.49254441424099005</speed>
  <fix>3d</fix>
</trkpt>
<trkpt lat="40.0716891" lon="-105.2298096">
  <ele>1583.0</ele>
  <time>2026-08-28T17:54:27Z</time>
  <course>4.21</course>
  <speed>0.51</speed>
  <fix>3d</fix>
</trkpt>
<trkpt lat="40.0716904" lon="-105.2298093">
  <ele>1583.02</ele>
  <time>2026-08-28T17:54:27Z</time>
  <course>5.34</course>
  <speed>0.49254441424099005</speed>
  <fix>3d</fix>
</trkpt>
<trkpt lat="40.0716891" lon="-105.2298096">
  <ele>1583.0</ele>
  <time>2026-08-28T17:54:27Z</time>
  <course>4.21</course>
  <speed>0.51</speed>
  <fix>3d</fix>
</trkpt>
<trkpt lat="40.0716909" lon="-105.2298092">
  <ele>1583.02</ele>
  <time>2026-08-28T17:54:27Z</time>
  <course>5.35</course>
  <speed>0.49254441424099005</speed>
  <fix>3d</fix>
</trkpt>
<trkpt lat="40.07169" lon="-105.2298095">
  <ele>1583.0</ele>
  <time>2026-08-28T17:54:27Z</time>
  <course>4.23</course>
  <speed>0.51</speed>
  <fix>3d</fix>
</trkpt>
<trkpt lat="40.0716913" lon="-105.2298092">
  <ele>1583.02</ele>
  <time>2026-08-28T17:54:27Z</time>
  <course>5.36</course>
  <speed>0.49254441424099005</speed>
  <fix>3d</fix>
</trkpt>
<trkpt lat="40.07169" lon="-105.2298095">
  <ele>1583.0</ele>
  <time>2026-08-28T17:54:27Z</time>
  <course>4.23</course>
  <speed>0.51</speed>
  <fix>3d</fix>
</trkpt>
<trkpt lat="40.0716918" lon="-105.2298092">
  <ele>1583.02</ele>
  <time>2026-08-28T17:54:27Z</time>
  <course>5.37</course>
  <speed>0.49254441424099005</speed>
  <fix>3d</fix>
</trkpt>
<trkpt lat="40.0716909" lon="-105.2298094">
  <ele>1583.0</ele>
  <time>2026-08-28T17:54:27Z</time>
  <course>4.24</course>
  <speed>0.51</speed>
  <fix>3d</fix>
</trkpt>
<trkpt lat="40.0716922" lon="-105.2298091">
  <ele>1583.02</ele>
  <time>2026-08-28T17:54:27Z</time>
  <course>5.37</course>
  <speed>0.49254441424099005</speed>
  <fix>3d</fix>
</trkpt>
<trkpt lat="40.0716918" lon="-105.2298093">
  <ele>1583.0</ele>
  <time>2026-08-28T17:54:27Z</time>
  <course>4.25</course>
  <speed>0.51</speed>
  <fix>3d</fix>
</trkpt>
<trkpt lat="40.0716927" lon="-105.2298091">
  <ele>1583.01</ele>
  <time>2026-08-28T17:54:27Z</time>
  <course>5.38</course>
  <speed>0.49254441424099005</speed>
  <fix>3d</fix>
</trkpt>
<trkpt lat="40.0716918" lon="-105.2298093">
  <ele>1583.0</ele>
  <time>2026-08-28T17:54:27Z</time>
  <course>4.25</course>
  <speed>0.51</speed>
  <fix>3d</fix>
</trkpt>
<trkpt lat="40.0716932" lon="-105.229809">
  <ele>1583.01</ele>
  <time>2026-08-28T17:54:27Z</time>
  <course>5.39</course>
  <speed>0.49254441424099005</speed>
  <fix>3d</fix>
</trkpt>
<trkpt lat="40.0716927" lon="-105.2298092">
  <ele>1583.0</ele>
  <time>2026-08-28T17:54:27Z</time>
  <course>4.27</course>
  <speed>0.51</speed>
  <fix>3d</fix>
</trkpt>
<trkpt lat="40.0716936" lon="-105.229809">
  <ele>1583.01</ele>
  <time>2026-08-28T17:54:27Z</time>
  <course>5.4</course>
  <speed>0.49254441424099005</speed>
  <fix>3d</fix>
</trkpt>
<trkpt lat="40.0716927" lon="-105.2298092">
  <ele>1583.0</ele>
  <time>2026-08-28T17:54:27Z</time>
  <course>4.27</course>
  <speed>0.51</speed>
  <fix>3d</fix>
</trkpt>
<trkpt lat="40.0716941" lon="-105.2298089">
  <ele>1583.01</ele>
  <time>2026-08-28T17:54:27Z</time>
  <course>5.41</course>
  <speed>0.49254441424099005</speed>
  <fix>3d</fix>
</trkpt>
<trkpt lat="40.0716937" lon="-105.2298091">
  <ele>1583.0</ele>
  <time>2026-08-28T17:54:27Z</time>
  <course>4.28</course>
  <speed>0.51</speed>
  <fix>3d</fix>
</trkpt>
<trkpt lat="40.0716946" lon="-105.2298089">
  <ele>1583.0</ele>
  <time>2026-08-28T17:54:27Z</time>
  <course>5.42</course>
  <speed>0.49254441424099005</speed>
  <fix>3d</fix>
</trkpt>
<trkpt lat="40.0716937" lon="-105.2298091">
  <ele>1583.0</ele>
  <time>2026-08-28T17:54:27Z</time>
  <course>4.28</course>
  <speed>0.51</speed>
  <fix>3d</fix>
</trkpt>
<trkpt lat="40.071695" lon="-105.2298088">
  <ele>1583.0</ele>
  <time>2026-08-28T17:54:27Z</time>
  <course>5.43</course>
  <speed>0.49254441424099005</speed>
  <fix>3d</fix>
</trkpt>
<trkpt lat="40.0716946" lon="-105.229809">
  <ele>1583.0</ele>
  <time>2026-08-28T17:54:27Z</time>
  <course>4.3</course>
  <speed>0.51</speed>
  <fix>3d</fix>
</trkpt>
<trkpt lat="40.0716955" lon="-105.2298088">
  <ele>1583.0</ele>
  <time>2026-08-28T17:54:27Z</time>
  <course>5.44</course>
  <speed>0.49254441424099005</speed>
  <fix>3d</fix>
</trkpt>
<trkpt lat="40.0716946" lon="-105.229809">
  <ele>1583.0</ele>
  <time>2026-08-28T17:54:27Z</time>
  <course>4.3</course>
  <speed>0.51</speed>
  <fix>3d</fix>
</trkpt>
<trkpt lat="40.071696" lon="-105.2298088">
  <ele>1583.0</ele>
  <time>2026-08-28T17:54:27Z</time>
  <course>5.45</course>
  <speed>0.49254441424099005</speed>
  <fix>3d</fix>
</trkpt>
<trkpt lat="40.0716956" lon="-105.2298089">
  <ele>1583.0</ele>
  <time>2026-08-28T17:54:27Z</time>
  <course>4.31</course>
  <speed>0.51</speed>
  <fix>3d</fix>
</trkpt>
<trkpt lat="40.0716964" lon="-105.2298087">
  <ele>1582.99</ele>
  <time>2026-08-28T17:54:27Z</time>
  <course>5.46</course>
  <speed>0.49254441424099005</speed>
  <fix>3d</fix>
</trkpt>
<trkpt lat="40.0716956" lon="-105.2298089">
  <ele>1583.0</ele>
  <time>2026-08-28T17:54:27Z</time>
  <course>4.31</course>
  <speed>0.51</speed>
  <fix>3d</fix>
</trkpt>
<trkpt lat="40.0716969" lon="-105.2298087">
  <ele>1582.99</ele>
  <time>2026-08-28T17:54:27Z</time>
  <course>5.46</course>
  <speed>0.49254441424099005</speed>
  <fix>3d</fix>
</trkpt>
<trkpt lat="40.0716965" lon="-105.2298088">
  <ele>1583.0</ele>
  <time>2026-08-28T17:54:27Z</time>
  <course>4.32</course>
  <speed>0.51</speed>
  <fix>3d</fix>
</trkpt>
<trkpt lat="40.0716974" lon="-105.2298086">
  <ele>1582.99</ele>
  <time>2026-08-28T17:54:27Z</time>
  <course>5.47</course>
  <speed>0.49254441424099005</speed>
  <fix>3d</fix>
</trkpt>
<trkpt lat="40.0716965" lon="-105.2298088">
  <ele>1583.0</ele>
  <time>2026-08-28T17:54:27Z</time>
  <course>4.32</course>
  <speed>0.51</speed>
  <fix>3d</fix>
</trkpt>
<trkpt lat="40.0716978" lon="-105.2298086">
  <ele>1582.99</ele>
  <time>2026-08-28T17:54:27Z</time>
  <course>5.48</course>
  <speed>0.49254441424099005</speed>
  <fix>3d</fix>
</trkpt>
<trkpt lat="40.0716974" lon="-105.2298087">
  <ele>1583.0</ele>
  <time>2026-08-28T17:54:27Z</time>
  <course>4.34</course>
  <speed>0.51</speed>
  <fix>3d</fix>
</trkpt>
<trkpt lat="40.0716983" lon="-105.2298085">
  <ele>1582.99</ele>
  <time>2026-08-28T17:54:27Z</time>
  <course>5.49</course>
  <speed>0.49254441424099005</speed>
  <fix>3d</fix>
</trkpt>
<trkpt lat="40.0716974" lon="-105.2298087">
  <ele>1583.0</ele>
  <time>2026-08-28T17:54:27Z</time>
  <course>4.34</course>
  <speed>0.51</speed>
  <fix>3d</fix>
</trkpt>
<trkpt lat="40.0716988" lon="-105.2298085">
  <ele>1582.99</ele>
  <time>2026-08-28T17:54:27Z</time>
  <course>5.5</course>
  <speed>0.49254441424099005</speed>
  <fix>3d</fix>
</trkpt>
<trkpt lat="40.0716974" lon="-105.2298087">
  <ele>1583.0</ele>
  <time>2026-08-28T17:54:27Z</time>
  <course>4.34</course>
  <speed>0.51</speed>
  <fix>3d</fix>
</trkpt>
<trkpt lat="40.0716992" lon="-105.2298084">
  <ele>1582.99</ele>
  <time>2026-08-28T17:54:27Z</time>
  <course>5.51</course>
  <speed>0.49254441424099005</speed>
  <fix>3d</fix>
</trkpt>
<trkpt lat="40.0716984" lon="-105.2298086">
  <ele>1583.0</ele>
  <time>2026-08-28T17:54:27Z</time>
  <course>4.35</course>
  <speed>0.51</speed>
  <fix>3d</fix>
</trkpt>
<trkpt lat="40.0716997" lon="-105.2298084">
  <ele>1582.99</ele>
  <time>2026-08-28T17:54:27Z</time>
  <course>5.51</course>
  <speed>0.49254441424099005</speed>
  <fix>3d</fix>
</trkpt>
<trkpt lat="40.0716984" lon="-105.2298086">
  <ele>1583.0</ele>
  <time>2026-08-28T17:54:27Z</time>
  <course>4.35</course>
  <speed>0.51</speed>
  <fix>3d</fix>
</trkpt>
<trkpt lat="40.0717002" lon="-105.2298083">
  <ele>1582.98</ele>
  <time>2026-08-28T17:54:27Z</time>
  <course>5.52</course>
  <speed>0.49254441424099005</speed>
  <fix>3d</fix>
</trkpt>
<trkpt lat="40.0716993" lon="-105.2298086">
  <ele>1583.0</ele>
  <time>2026-08-28T17:54:27Z</time>
  <course>4.36</course>
  <speed>0.51</speed>
  <fix>3d</fix>
</trkpt>
<trkpt lat="40.0717006" lon="-105.2298083">
  <ele>1582.99</ele>
  <time>2026-08-28T17:54:27Z</time>
  <course>5.53</course>
  <speed>0.49254441424099005</speed>
  <fix>3d</fix>
</trkpt>
<trkpt lat="40.0716993" lon="-105.2298086">
  <ele>1583.0</ele>
  <time>2026-08-28T17:54:27Z</time>
  <course>4.36</course>
  <speed>0.51</speed>
  <fix>3d</fix>
</trkpt>
<trkpt lat="40.0717011" lon="-105.2298082">
  <ele>1582.99</ele>
  <time>2026-08-28T17:54:27Z</time>
  <course>5.53</course>
  <speed>0.49254441424099005</speed>
  <fix>3d</fix>
</trkpt>
<trkpt lat="40.0717002" lon="-105.2298085">
  <ele>1583.0</ele>
  <time>2026-08-28T17:54:27Z</time>
  <course>4.37</course>
  <speed>0.51</speed>
  <fix>3d</fix>
</trkpt>
<trkpt lat="40.0717015" lon="-105.2298082">
  <ele>1582.99</ele>
  <time>2026-08-28T17:54:27Z</time>
  <course>5.54</course>
  <speed>0.49254441424099005</speed>
  <fix>3d</fix>
</trkpt>
<trkpt lat="40.0717002" lon="-105.2298085">
  <ele>1583.0</ele>
  <time>2026-08-28T17:54:27Z</time>
  <course>4.37</course>
  <speed>0.51</speed>
  <fix>3d</fix>
</trkpt>
<trkpt lat="40.071702" lon="-105.2298081">
  <ele>1582.99</ele>
  <time>2026-08-28T17:54:27Z</time>
  <course>5.55</course>
  <speed>0.49254441424099005</speed>
  <fix>3d</fix>
</trkpt>
<trkpt lat="40.0717011" lon="-105.2298084">
  <ele>1583.0</ele>
  <time>2026-08-28T17:54:27Z</time>
  <course>4.38</course>
  <speed>0.51</speed>
  <fix>3d</fix>
</trkpt>
<trkpt lat="40.0717025" lon="-105.2298081">
  <ele>1582.99</ele>
  <time>2026-08-28T17:54:27Z</time>
  <course>5.56</course>
  <speed>0.49254441424099005</speed>
  <fix>3d</fix>
</trkpt>
<trkpt lat="40.071702" lon="-105.2298083">
  <ele>1583.0</ele>
  <time>2026-08-28T17:54:27Z</time>
  <course>4.4</course>
  <speed>0.51</speed>
  <fix>3d</fix>
</trkpt>
<trkpt lat="40.0717029" lon="-105.2298081">
  <ele>1582.99</ele>
  <time>2026-08-28T17:54:27Z</time>
  <course>5.57</course>
  <speed>0.49254441424099005</speed>
  <fix>3d</fix>
</trkpt>
<trkpt lat="40.071702" lon="-105.2298083">
  <ele>1583.0</ele>
  <time>2026-08-28T17:54:27Z</time>
  <course>4.4</course>
  <speed>0.51</speed>
  <fix>3d</fix>
</trkpt>
<trkpt lat="40.0717034" lon="-105.229808">
  <ele>1582.99</ele>
  <time>2026-08-28T17:54:27Z</time>
  <course>5.58</course>
  <speed>0.49254441424099005</speed>
  <fix>3d</fix>
</trkpt>
<trkpt lat="40.071703" lon="-105.2298082">
  <ele>1583.0</ele>
  <time>2026-08-28T17:54:27Z</time>
  <course>4.41</course>
  <speed>0.51</speed>
  <fix>3d</fix>
</trkpt>
<trkpt lat="40.0717038" lon="-105.229808">
  <ele>1582.99</ele>
  <time>2026-08-28T17:54:27Z</time>
  <course>5.58</course>
  <speed>0.49254441424099005</speed>
  <fix>3d</fix>
</trkpt>
<trkpt lat="40.071703" lon="-105.2298082">
  <ele>1583.0</ele>
  <time>2026-08-28T17:54:27Z</time>
  <course>4.41</course>
  <speed>0.51</speed>
  <fix>3d</fix>
</trkpt>
<trkpt lat="40.0717043" lon="-105.2298079">
  <ele>1582.99</ele>
  <time>2026-08-28T17:54:27Z</time>
  <course>5.59</course>
  <speed>0.49254441424099005</speed>
  <fix>3d</fix>
</trkpt>
<trkpt lat="40.0717039" lon="-105.2298081">
  <ele>1583.0</ele>
  <time>2026-08-28T17:54:27Z</time>
  <course>4.43</course>
  <speed>0.51</speed>
  <fix>3d</fix>
</trkpt>
<trkpt lat="40.0717048" lon="-105.2298079">
  <ele>1582.99</ele>
  <time>2026-08-28T17:54:27Z</time>
  <course>5.6</course>
  <speed>0.49254441424099005</speed>
  <fix>3d</fix>
</trkpt>
<trkpt lat="40.0717039" lon="-105.2298081">
  <ele>1583.0</ele>
  <time>2026-08-28T17:54:27Z</time>
  <course>4.43</course>
  <speed>0.51</speed>
  <fix>3d</fix>
</trkpt>
<trkpt lat="40.0717052" lon="-105.2298078">
  <ele>1582.99</ele>
  <time>2026-08-28T17:54:27Z</time>
  <course>5.61</course>
  <speed>0.49254441424099005</speed>
  <fix>3d</fix>
</trkpt>
<trkpt lat="40.0717049" lon="-105.229808">
  <ele>1583.0</ele>
  <time>2026-08-28T17:54:27Z</time>
  <course>4.44</course>
  <speed>0.51</speed>
  <fix>3d</fix>
</trkpt>
<trkpt lat="40.0717057" lon="-105.2298078">
  <ele>1582.99</ele>
  <time>2026-08-28T17:54:27Z</time>
  <course>5.62</course>
  <speed>0.49254441424099005</speed>
  <fix>3d</fix>
</trkpt>
<trkpt lat="40.0717049" lon="-105.229808">
  <ele>1583.0</ele>
  <time>2026-08-28T17:54:27Z</time>
  <course>4.44</course>
  <speed>0.51</speed>
  <fix>3d</fix>
</trkpt>
<trkpt lat="40.0717062" lon="-105.2298077">
  <ele>1582.99</ele>
  <time>2026-08-28T17:54:27Z</time>
  <course>5.63</course>
  <speed>0.49254441424099005</speed>
  <fix>3d</fix>
</trkpt>
<trkpt lat="40.0717058" lon="-105.2298079">
  <ele>1583.0</ele>
  <time>2026-08-28T17:54:27Z</time>
  <course>4.45</course>
  <speed>0.51</speed>
  <fix>3d</fix>
</trkpt>
<trkpt lat="40.0717067" lon="-105.2298077">
  <ele>1582.98</ele>
  <time>2026-08-28T17:54:27Z</time>
  <course>5.64</course>
  <speed>0.49254441424099005</speed>
  <fix>3d</fix>
</trkpt>
<trkpt lat="40.0717058" lon="-105.2298079">
  <ele>1583.0</ele>
  <time>2026-08-28T17:54:27Z</time>
  <course>4.45</course>
  <speed>0.51</speed>
  <fix>3d</fix>
</trkpt>
<trkpt lat="40.0717071" lon="-105.2298076">
  <ele>1582.99</ele>
  <time>2026-08-28T17:54:27Z</time>
  <course>5.64</course>
  <speed>0.49254441424099005</speed>
  <fix>3d</fix>
</trkpt>
<trkpt lat="40.0717067" lon="-105.2298078">
  <ele>1583.0</ele>
  <time>2026-08-28T17:54:27Z</time>
  <course>4.47</course>
  <speed>0.51</speed>
  <fix>3d</fix>
</trkpt>
<trkpt lat="40.0717076" lon="-105.2298076">
  <ele>1582.99</ele>
  <time>2026-08-28T17:54:27Z</time>
  <course>5.64</course>
  <speed>0.49254441424099005</speed>
  <fix>3d</fix>
</trkpt>
<trkpt lat="40.0717067" lon="-105.2298078">
  <ele>1583.0</ele>
  <time>2026-08-28T17:54:27Z</time>
  <course>4.47</course>
  <speed>0.51</speed>
  <fix>3d</fix>
</trkpt>
<trkpt lat="40.0717081" lon="-105.2298075">
  <ele>1582.99</ele>
  <time>2026-08-28T17:54:27Z</time>
  <course>5.65</course>
  <speed>0.49254441424099005</speed>
  <fix>3d</fix>
</trkpt>
<trkpt lat="40.0717077" lon="-105.2298077">
  <ele>1583.0</ele>
  <time>2026-08-28T17:54:27Z</time>
  <course>4.48</course>
  <speed>0.51</speed>
  <fix>3d</fix>
</trkpt>
<trkpt lat="40.0717085" lon="-105.2298075">
  <ele>1582.99</ele>
  <time>2026-08-28T17:54:27Z</time>
  <course>5.65</course>
  <speed>0.49254441424099005</speed>
  <fix>3d</fix>
</trkpt>
<trkpt lat="40.0717077" lon="-105.2298077">
  <ele>1583.0</ele>
  <time>2026-08-28T17:54:27Z</time>
  <course>4.48</course>
  <speed>0.51</speed>
  <fix>3d</fix>
</trkpt>
<trkpt lat="40.071709" lon="-105.2298074">
  <ele>1582.99</ele>
  <time>2026-08-28T17:54:27Z</time>
  <course>5.66</course>
  <speed>0.49254441424099005</speed>
  <fix>3d</fix>
</trkpt>
<trkpt lat="40.0717077" lon="-105.2298077">
  <ele>1583.0</ele>
  <time>2026-08-28T17:54:27Z</time>
  <course>4.48</course>
  <speed>0.51</speed>
  <fix>3d</fix>
</trkpt>
<trkpt lat="40.0717095" lon="-105.2298074">
  <ele>1582.99</ele>
  <time>2026-08-28T17:54:27Z</time>
  <course>5.67</course>
  <speed>0.49254441424099005</speed>
  <fix>3d</fix>
</trkpt>
<trkpt lat="40.0717086" lon="-105.2298076">
  <ele>1583.0</ele>
  <time>2026-08-28T17:54:27Z</time>
  <course>4.48</course>
  <speed>0.51</speed>
  <fix>3d</fix>
</trkpt>
<trkpt lat="40.0717099" lon="-105.2298073">
  <ele>1583.0</ele>
  <time>2026-08-28T17:54:27Z</time>
  <course>5.67</course>
  <speed>0.49254441424099005</speed>
  <fix>3d</fix>
</trkpt>
<trkpt lat="40.0717086" lon="-105.2298076">
  <ele>1583.0</ele>
  <time>2026-08-28T17:54:27Z</time>
  <course>4.48</course>
  <speed>0.51</speed>
  <fix>3d</fix>
</trkpt>
<trkpt lat="40.0717104" lon="-105.2298073">
  <ele>1583.0</ele>
  <time>2026-08-28T17:54:27Z</time>
  <course>5.67</course>
  <speed>0.49254441424099005</speed>
  <fix>3d</fix>
</trkpt>
<trkpt lat="40.0717095" lon="-105.2298075">
  <ele>1583.0</ele>
  <time>2026-08-28T17:54:27Z</time>
  <course>4.49</course>
  <speed>0.51</speed>
  <fix>3d</fix>
</trkpt>
<trkpt lat="40.0717109" lon="-105.2298072">
  <ele>1583.0</ele>
  <time>2026-08-28T17:54:27Z</time>
  <course>5.68</course>
  <speed>0.49254441424099005</speed>
  <fix>3d</fix>
</trkpt>
<trkpt lat="40.0717095" lon="-105.2298075">
  <ele>1583.0</ele>
  <time>2026-08-28T17:54:27Z</time>
  <course>4.49</course>
  <speed>0.51</speed>
  <fix>3d</fix>
</trkpt>
<trkpt lat="40.0717113" lon="-105.2298072">
  <ele>1583.01</ele>
  <time>2026-08-28T17:54:27Z</time>
  <course>5.68</course>
  <speed>0.49254441424099005</speed>
  <fix>3d</fix>
</trkpt>
<trkpt lat="40.0717104" lon="-105.2298074">
  <ele>1583.0</ele>
  <time>2026-08-28T17:54:27Z</time>
  <course>4.5</course>
  <speed>0.51</speed>
  <fix>3d</fix>
</trkpt>
<trkpt lat="40.0717118" lon="-105.2298071">
  <ele>1583.01</ele>
  <time>2026-08-28T17:54:27Z</time>
  <course>5.69</course>
  <speed>0.49254441424099005</speed>
  <fix>3d</fix>
</trkpt>
<trkpt lat="40.0717114" lon="-105.2298073">
  <ele>1583.0</ele>
  <time>2026-08-28T17:54:27Z</time>
  <course>4.51</course>
  <speed>0.51</speed>
  <fix>3d</fix>
</trkpt>
<trkpt lat="40.0717122" lon="-105.2298071">
  <ele>1583.01</ele>
  <time>2026-08-28T17:54:27Z</time>
  <course>5.69</course>
  <speed>0.49254441424099005</speed>
  <fix>3d</fix>
</trkpt>
<trkpt lat="40.0717114" lon="-105.2298073">
  <ele>1583.0</ele>
  <time>2026-08-28T17:54:27Z</time>
  <course>4.51</course>
  <speed>0.51</speed>
  <fix>3d</fix>
</trkpt>
<trkpt lat="40.0717127" lon="-105.229807">
  <ele>1583.01</ele>
  <time>2026-08-28T17:54:27Z</time>
  <course>5.7</course>
  <speed>0.49254441424099005</speed>
  <fix>3d</fix>
</trkpt>
<trkpt lat="40.0717123" lon="-105.2298072">
  <ele>1583.0</ele>
  <time>2026-08-28T17:54:27Z</time>
  <course>4.51</course>
  <speed>0.51</speed>
  <fix>3d</fix>
</trkpt>
<trkpt lat="40.0717132" lon="-105.229807">
  <ele>1583.01</ele>
  <time>2026-08-28T17:54:27Z</time>
  <course>5.7</course>
  <speed>0.49254441424099005</speed>
  <fix>3d</fix>
</trkpt>
<trkpt lat="40.0717123" lon="-105.2298072">
  <ele>1583.0</ele>
  <time>2026-08-28T17:54:27Z</time>
  <course>4.51</course>
  <speed>0.51</speed>
  <fix>3d</fix>
</trkpt>
<trkpt lat="40.0717136" lon="-105.2298069">
  <ele>1583.01</ele>
  <time>2026-08-28T17:54:27Z</time>
  <course>5.71</course>
  <speed>0.49254441424099005</speed>
  <fix>3d</fix>
</trkpt>
<trkpt lat="40.0717133" lon="-105.2298071">
  <ele>1583.0</ele>
  <time>2026-08-28T17:54:27Z</time>
  <course>4.52</course>
  <speed>0.51</speed>
  <fix>3d</fix>
</trkpt>
<trkpt lat="40.0717141" lon="-105.2298069">
  <ele>1583.02</ele>
  <time>2026-08-28T17:54:27Z</time>
  <course>5.71</course>
  <speed>0.49254441424099005</speed>
  <fix>3d</fix>
</trkpt>
<trkpt lat="40.0717133" lon="-105.2298071">
  <ele>1583.0</ele>
  <time>2026-08-28T17:54:27Z</time>
  <course>4.52</course>
  <speed>0.51</speed>
  <fix>3d</fix>
</trkpt>
<trkpt lat="40.0717146" lon="-105.2298068">
  <ele>1583.01</ele>
  <time>2026-08-28T17:54:27Z</time>
  <course>5.72</course>
  <speed>0.49254441424099005</speed>
  <fix>3d</fix>
</trkpt>
<trkpt lat="40.0717142" lon="-105.229807">
  <ele>1583.0</ele>
  <time>2026-08-28T17:54:27Z</time>
  <course>4.53</course>
  <speed>0.51</speed>
  <fix>3d</fix>
</trkpt>
<trkpt lat="40.0717151" lon="-105.2298068">
  <ele>1583.01</ele>
  <time>2026-08-28T17:54:27Z</time>
  <course>5.72</course>
  <speed>0.49254441424099005</speed>
  <fix>3d</fix>
</trkpt>
<trkpt lat="40.0717142" lon="-105.229807">
  <ele>1583.0</ele>
  <time>2026-08-28T17:54:27Z</time>
  <course>4.53</course>
  <speed>0.51</speed>
  <fix>3d</fix>
</trkpt>
<trkpt lat="40.0717155" lon="-105.2298067">
  <ele>1583.01</ele>
  <time>2026-08-28T17:54:27Z</time>
  <course>5.72</course>
  <speed>0.49254441424099005</speed>
  <fix>3d</fix>
</trkpt>
<trkpt lat="40.0717151" lon="-105.2298069">
  <ele>1583.0</ele>
  <time>2026-08-28T17:54:27Z</time>
  <course>4.53</course>
  <speed>0.51</speed>
  <fix>3d</fix>
</trkpt>
<trkpt lat="40.071716" lon="-105.2298067">
  <ele>1583.01</ele>
  <time>2026-08-28T17:54:27Z</time>
  <course>5.73</course>
  <speed>0.49254441424099005</speed>
  <fix>3d</fix>
</trkpt>
<trkpt lat="40.0717151" lon="-105.2298069">
  <ele>1583.0</ele>
  <time>2026-08-28T17:54:27Z</time>
  <course>4.53</course>
  <speed>0.51</speed>
  <fix>3d</fix>
</trkpt>
<trkpt lat="40.0717165" lon="-105.2298066">
  <ele>1583.01</ele>
  <time>2026-08-28T17:54:27Z</time>
  <course>5.73</course>
  <speed>0.49254441424099005</speed>
  <fix>3d</fix>
</trkpt>
<trkpt lat="40.071716" lon="-105.2298068">
  <ele>1583.0</ele>
  <time>2026-08-28T17:54:27Z</time>
  <course>4.54</course>
  <speed>0.51</speed>
  <fix>3d</fix>
</trkpt>
<trkpt lat="40.0717169" lon="-105.2298066">
  <ele>1583.01</ele>
  <time>2026-08-28T17:54:27Z</time>
  <course>5.74</course>
  <speed>0.49254441424099005</speed>
  <fix>3d</fix>
</trkpt>
<trkpt lat="40.071716" lon="-105.2298068">
  <ele>1583.0</ele>
  <time>2026-08-28T17:54:27Z</time>
  <course>4.54</course>
  <speed>0.51</speed>
  <fix>3d</fix>
</trkpt>
<trkpt lat="40.0717174" lon="-105.2298065">
  <ele>1583.01</ele>
  <time>2026-08-28T17:54:27Z</time>
  <course>5.74</course>
  <speed>0.49254441424099005</speed>
  <fix>3d</fix>
</trkpt>
<trkpt lat="40.071717" lon="-105.2298067">
  <ele>1583.0</ele>
  <time>2026-08-28T17:54:27Z</time>
  <course>4.55</course>
  <speed>0.51</speed>
  <fix>3d</fix>
</trkpt>
<trkpt lat="40.0717179" lon="-105.2298065">
  <ele>1583.01</ele>
  <time>2026-08-28T17:54:27Z</time>
  <course>5.75</course>
  <speed>0.49254441424099005</speed>
  <fix>3d</fix>
</trkpt>
<trkpt lat="40.071717" lon="-105.2298067">
  <ele>1583.0</ele>
  <time>2026-08-28T17:54:27Z</time>
  <course>4.55</course>
  <speed>0.51</speed>
  <fix>3d</fix>
</trkpt>
<trkpt lat="40.0717183" lon="-105.2298064">
  <ele>1583.01</ele>
  <time>2026-08-28T17:54:27Z</time>
  <course>5.76</course>
  <speed>0.49254441424099005</speed>
  <fix>3d</fix>
</trkpt>
<trkpt lat="40.071717" lon="-105.2298067">
  <ele>1583.0</ele>
  <time>2026-08-28T17:54:27Z</time>
  <course>4.55</course>
  <speed>0.51</speed>
  <fix>3d</fix>
</trkpt>
<trkpt lat="40.0717188" lon="-105.2298064">
  <ele>1583.01</ele>
  <time>2026-08-28T17:54:27Z</time>
  <course>5.76</course>
  <speed>0.49254441424099005</speed>
  <fix>3d</fix>
</trkpt>
<trkpt lat="40.0717179" lon="-105.2298066">
  <ele>1583.0</ele>
  <time>2026-08-28T17:54:27Z</time>
  <course>4.56</course>
  <speed>0.51</speed>
  <fix>3d</fix>
</trkpt>
<trkpt lat="40.0717193" lon="-105.2298063">
  <ele>1583.01</ele>
  <time>2026-08-28T17:54:27Z</time>
  <course>5.77</course>
  <speed>0.49254441424099005</speed>
  <fix>3d</fix>
</trkpt>
<trkpt lat="40.0717179" lon="-105.2298066">
  <ele>1583.0</ele>
  <time>2026-08-28T17:54:27Z</time>
  <course>4.56</course>
  <speed>0.51</speed>
  <fix>3d</fix>
</trkpt>
<trkpt lat="40.0717197" lon="-105.2298063">
  <ele>1583.01</ele>
  <time>2026-08-28T17:54:27Z</time>
  <course>5.78</course>
  <speed>0.49254441424099005</speed>
  <fix>3d</fix>
</trkpt>
<trkpt lat="40.0717188" lon="-105.2298065">
  <ele>1583.0</ele>
  <time>2026-08-28T17:54:27Z</time>
  <course>4.57</course>
  <speed>0.51</speed>
  <fix>3d</fix>
</trkpt>
<trkpt lat="40.0717202" lon="-105.2298062">
  <ele>1583.01</ele>
  <time>2026-08-28T17:54:27Z</time>
  <course>5.78</course>
  <speed>0.49254441424099005</speed>
  <fix>3d</fix>
</trkpt>
<trkpt lat="40.0717188" lon="-105.2298065">
  <ele>1583.0</ele>
  <time>2026-08-28T17:54:27Z</time>
  <course>4.57</course>
  <speed>0.51</speed>
  <fix>3d</fix>
</trkpt>
<trkpt lat="40.0717206" lon="-105.2298062">
  <ele>1583.0</ele>
  <time>2026-08-28T17:54:27Z</time>
  <course>5.79</course>
  <speed>0.49254441424099005</speed>
  <fix>3d</fix>
</trkpt>
<trkpt lat="40.0717197" lon="-105.2298065">
  <ele>1583.0</ele>
  <time>2026-08-28T17:54:27Z</time>
  <course>4.58</course>
  <speed>0.51</speed>
  <fix>3d</fix>
</trkpt>
<trkpt lat="40.0717211" lon="-105.2298061">
  <ele>1583.0</ele>
  <time>2026-08-28T17:54:27Z</time>
  <course>5.79</course>
  <speed>0.49254441424099005</speed>
  <fix>3d</fix>
</trkpt>
<trkpt lat="40.0717197" lon="-105.2298065">
  <ele>1583.0</ele>
  <time>2026-08-28T17:54:27Z</time>
  <course>4.58</course>
  <speed>0.51</speed>
  <fix>3d</fix>
</trkpt>
<trkpt lat="40.0717216" lon="-105.2298061">
  <ele>1583.0</ele>
  <time>2026-08-28T17:54:27Z</time>
  <course>5.81</course>
  <speed>0.49254441424099005</speed>
  <fix>3d</fix>
</trkpt>
<trkpt lat="40.0717207" lon="-105.2298064">
  <ele>1583.0</ele>
  <time>2026-08-28T17:54:27Z</time>
  <course>4.59</course>
  <speed>0.51</speed>
  <fix>3d</fix>
</trkpt>
<trkpt lat="40.071722" lon="-105.229806">
  <ele>1583.0</ele>
  <time>2026-08-28T17:54:27Z</time>
  <course>5.81</course>
  <speed>0.49254441424099005</speed>
  <fix>3d</fix>
</trkpt>
<trkpt lat="40.0717216" lon="-105.2298063">
  <ele>1583.0</ele>
  <time>2026-08-28T17:54:27Z</time>
  <course>4.6</course>
  <speed>0.51</speed>
  <fix>3d</fix>
</trkpt>
<trkpt lat="40.0717225" lon="-105.229806">
  <ele>1583.0</ele>
  <time>2026-08-28T17:54:27Z</time>
  <course>5.82</course>
  <speed>0.49254441424099005</speed>
  <fix>3d</fix>
</trkpt>
<trkpt lat="40.0717216" lon="-105.2298063">
  <ele>1583.0</ele>
  <time>2026-08-28T17:54:27Z</time>
  <course>4.6</course>
  <speed>0.51</speed>
  <fix>3d</fix>
</trkpt>
<trkpt lat="40.0717229" lon="-105.229806">
  <ele>1583.0</ele>
  <time>2026-08-28T17:54:27Z</time>
  <course>5.83</course>
  <speed>0.49254441424099005</speed>
  <fix>3d</fix>
</trkpt>
<trkpt lat="40.0717226" lon="-105.2298062">
  <ele>1583.0</ele>
  <time>2026-08-28T17:54:27Z</time>
  <course>4.62</course>
  <speed>0.51</speed>
  <fix>3d</fix>
</trkpt>
<trkpt lat="40.0717234" lon="-105.2298059">
  <ele>1583.0</ele>
  <time>2026-08-28T17:54:27Z</time>
  <course>5.84</course>
  <speed>0.49254441424099005</speed>
  <fix>3d</fix>
</trkpt>
<trkpt lat="40.0717226" lon="-105.2298062">
  <ele>1583.0</ele>
  <time>2026-08-28T17:54:27Z</time>
  <course>4.62</course>
  <speed>0.51</speed>
  <fix>3d</fix>
</trkpt>
<trkpt lat="40.0717239" lon="-105.2298059">
  <ele>1583.0</ele>
  <time>2026-08-28T17:54:27Z</time>
  <course>5.84</course>
  <speed>0.49254441424099005</speed>
  <fix>3d</fix>
</trkpt>
<trkpt lat="40.0717235" lon="-105.2298061">
  <ele>1583.0</ele>
  <time>2026-08-28T17:54:27Z</time>
  <course>4.63</course>
  <speed>0.51</speed>
  <fix>3d</fix>
</trkpt>
<trkpt lat="40.0717243" lon="-105.2298058">
  <ele>1582.99</ele>
  <time>2026-08-28T17:54:27Z</time>
  <course>5.85</course>
  <speed>0.49254441424099005</speed>
  <fix>3d</fix>
</trkpt>
<trkpt lat="40.0717235" lon="-105.2298061">
  <ele>1583.0</ele>
  <time>2026-08-28T17:54:27Z</time>
  <course>4.63</course>
  <speed>0.51</speed>
  <fix>3d</fix>
</trkpt>
<trkpt lat="40.0717248" lon="-105.2298058">
  <ele>1582.99</ele>
  <time>2026-08-28T17:54:27Z</time>
  <course>5.85</course>
  <speed>0.49254441424099005</speed>
  <fix>3d</fix>
</trkpt>
<trkpt lat="40.0717244" lon="-105.229806">
  <ele>1583.0</ele>
  <time>2026-08-28T17:54:27Z</time>
  <course>4.64</course>
  <speed>0.51</speed>
  <fix>3d</fix>
</trkpt>
<trkpt lat="40.0717253" lon="-105.2298057">
  <ele>1582.99</ele>
  <time>2026-08-28T17:54:27Z</time>
  <course>5.86</course>
  <speed>0.49254441424099005</speed>
  <fix>3d</fix>
</trkpt>
<trkpt lat="40.0717244" lon="-105.229806">
  <ele>1583.0</ele>
  <time>2026-08-28T17:54:27Z</time>
  <course>4.64</course>
  <speed>0.51</speed>
  <fix>3d</fix>
</trkpt>
<trkpt lat="40.0717258" lon="-105.2298057">
  <ele>1582.99</ele>
  <time>2026-08-28T17:54:27Z</time>
  <course>5.86</course>
  <speed>0.49254441424099005</speed>
  <fix>3d</fix>
</trkpt>
<trkpt lat="40.0717254" lon="-105.2298059">
  <ele>1583.0</ele>
  <time>2026-08-28T17:54:27Z</time>
  <course>4.65</course>
  <speed>0.51</speed>
  <fix>3d</fix>
</trkpt>
<trkpt lat="40.0717262" lon="-105.2298057">
  <ele>1582.99</ele>
  <time>2026-08-28T17:54:27Z</time>
  <course>5.87</course>
  <speed>0.49254441424099005</speed>
  <fix>3d</fix>
</trkpt>
<trkpt lat="40.0717254" lon="-105.2298059">
  <ele>1583.0</ele>
  <time>2026-08-28T17:54:27Z</time>
  <course>4.65</course>
  <speed>0.51</speed>
  <fix>3d</fix>
</trkpt>
<trkpt lat="40.0717267" lon="-105.2298056">
  <ele>1582.99</ele>
  <time>2026-08-28T17:54:27Z</time>
  <course>5.87</course>
  <speed>0.49254441424099005</speed>
  <fix>3d</fix>
</trkpt>
<trkpt lat="40.0717263" lon="-105.2298058">
  <ele>1583.0</ele>
  <time>2026-08-28T17:54:27Z</time>
  <course>4.66</course>
  <speed>0.51</speed>
  <fix>3d</fix>
</trkpt>
<trkpt lat="40.0717272" lon="-105.2298056">
  <ele>1583.0</ele>
  <time>2026-08-28T17:54:27Z</time>
  <course>5.88</course>
  <speed>0.49254441424099005</speed>
  <fix>3d</fix>
</trkpt>
<trkpt lat="40.0717263" lon="-105.2298058">
  <ele>1583.0</ele>
  <time>2026-08-28T17:54:27Z</time>
  <course>4.66</course>
  <speed>0.51</speed>
  <fix>3d</fix>
</trkpt>
<trkpt lat="40.0717276" lon="-105.2298055">
  <ele>1583.0</ele>
  <time>2026-08-28T17:54:27Z</time>
  <course>5.88</course>
  <speed>0.49254441424099005</speed>
  <fix>3d</fix>
</trkpt>
<trkpt lat="40.0717263" lon="-105.2298058">
  <ele>1583.0</ele>
  <time>2026-08-28T17:54:27Z</time>
  <course>4.66</course>
  <speed>0.51</speed>
  <fix>3d</fix>
</trkpt>
<trkpt lat="40.0717281" lon="-105.2298055">
  <ele>1583.0</ele>
  <time>2026-08-28T17:54:27Z</time>
  <course>5.89</course>
  <speed>0.49254441424099005</speed>
  <fix>3d</fix>
</trkpt>
<trkpt lat="40.0717272" lon="-105.2298057">
  <ele>1583.0</ele>
  <time>2026-08-28T17:54:27Z</time>
  <course>4.67</course>
  <speed>0.51</speed>
  <fix>3d</fix>
</trkpt>
<trkpt lat="40.0717286" lon="-105.2298054">
  <ele>1583.0</ele>
  <time>2026-08-28T17:54:27Z</time>
  <course>5.89</course>
  <speed>0.49254441424099005</speed>
  <fix>3d</fix>
</trkpt>
<trkpt lat="40.0717272" lon="-105.2298057">
  <ele>1583.0</ele>
  <time>2026-08-28T17:54:27Z</time>
  <course>4.67</course>
  <speed>0.51</speed>
  <fix>3d</fix>
</trkpt>
<trkpt lat="40.071729" lon="-105.2298054">
  <ele>1583.0</ele>
  <time>2026-08-28T17:54:27Z</time>
  <course>5.9</course>
  <speed>0.49254441424099005</speed>
  <fix>3d</fix>
</trkpt>
<trkpt lat="40.0717281" lon="-105.2298056">
  <ele>1583.0</ele>
  <time>2026-08-28T17:54:27Z</time>
  <course>4.68</course>
  <speed>0.51</speed>
  <fix>3d</fix>
</trkpt>
<trkpt lat="40.0717295" lon="-105.2298053">
  <ele>1583.0</ele>
  <time>2026-08-28T17:54:27Z</time>
  <course>5.91</course>
  <speed>0.49254441424099005</speed>
  <fix>3d</fix>
</trkpt>
<trkpt lat="40.0717281" lon="-105.2298056">
  <ele>1583.0</ele>
  <time>2026-08-28T17:54:27Z</time>
  <course>4.68</course>
  <speed>0.51</speed>
  <fix>3d</fix>
</trkpt>
<trkpt lat="40.0717299" lon="-105.2298053">
  <ele>1583.0</ele>
  <time>2026-08-28T17:54:27Z</time>
  <course>5.92</course>
  <speed>0.49254441424099005</speed>
  <fix>3d</fix>
</trkpt>
<trkpt lat="40.0717291" lon="-105.2298055">
  <ele>1583.0</ele>
  <time>2026-08-28T17:54:27Z</time>
  <course>4.69</course>
  <speed>0.51</speed>
  <fix>3d</fix>
</trkpt>
<trkpt lat="40.0717304" lon="-105.2298052">
  <ele>1583.0</ele>
  <time>2026-08-28T17:54:27Z</time>
  <course>5.92</course>
  <speed>0.49254441424099005</speed>
  <fix>3d</fix>
</trkpt>
<trkpt lat="40.0717291" lon="-105.2298055">
  <ele>1583.0</ele>
  <time>2026-08-28T17:54:27Z</time>
  <course>4.69</course>
  <speed>0.51</speed>
  <fix>3d</fix>
</trkpt>
<trkpt lat="40.0717309" lon="-105.2298052">
  <ele>1583.0</ele>
  <time>2026-08-28T17:54:27Z</time>
  <course>5.93</course>
  <speed>0.49254441424099005</speed>
  <fix>3d</fix>
</trkpt>
<trkpt lat="40.07173" lon="-105.2298054">
  <ele>1583.0</ele>
  <time>2026-08-28T17:54:27Z</time>
  <course>4.71</course>
  <speed>0.51</speed>
  <fix>3d</fix>
</trkpt>
<trkpt lat="40.0717313" lon="-105.2298051">
  <ele>1583.0</ele>
  <time>2026-08-28T17:54:27Z</time>
  <course>5.94</course>
  <speed>0.49254441424099005</speed>
  <fix>3d</fix>
</trkpt>
<trkpt lat="40.0717309" lon="-105.2298053">
  <ele>1583.0</ele>
  <time>2026-08-28T17:54:27Z</time>
  <course>4.72</course>
  <speed>0.51</speed>
  <fix>3d</fix>
</trkpt>
<trkpt lat="40.0717318" lon="-105.2298051">
  <ele>1583.0</ele>
  <time>2026-08-28T17:54:27Z</time>
  <course>5.95</course>
  <speed>0.49254441424099005</speed>
  <fix>3d</fix>
</trkpt>
<trkpt lat="40.0717309" lon="-105.2298053">
  <ele>1583.0</ele>
  <time>2026-08-28T17:54:27Z</time>
  <course>4.72</course>
  <speed>0.51</speed>
  <fix>3d</fix>
</trkpt>
<trkpt lat="40.0717323" lon="-105.229805">
  <ele>1583.0</ele>
  <time>2026-08-28T17:54:27Z</time>
  <course>5.96</course>
  <speed>0.49254441424099005</speed>
  <fix>3d</fix>
</trkpt>
<trkpt lat="40.0717318" lon="-105.2298052">
  <ele>1583.0</ele>
  <time>2026-08-28T17:54:27Z</time>
  <course>4.74</course>
  <speed>0.51</speed>
  <fix>3d</fix>
</trkpt>
<trkpt lat="40.0717327" lon="-105.229805">
  <ele>1583.0</ele>
  <time>2026-08-28T17:54:27Z</time>
  <course>5.97</course>
  <speed>0.49254441424099005</speed>
  <fix>3d</fix>
</trkpt>
<trkpt lat="40.0717318" lon="-105.2298052">
  <ele>1583.0</ele>
  <time>2026-08-28T17:54:27Z</time>
  <course>4.74</course>
  <speed>0.51</speed>
  <fix>3d</fix>
</trkpt>
<trkpt lat="40.0717332" lon="-105.2298049">
  <ele>1583.0</ele>
  <time>2026-08-28T17:54:27Z</time>
  <course>5.98</course>
  <speed>0.49254441424099005</speed>
  <fix>3d</fix>
</trkpt>
<trkpt lat="40.0717328" lon="-105.2298051">
  <ele>1583.0</ele>
  <time>2026-08-28T17:54:27Z</time>
  <course>4.76</course>
  <speed>0.51</speed>
  <fix>3d</fix>
</trkpt>
<trkpt lat="40.0717336" lon="-105.2298049">
  <ele>1583.0</ele>
  <time>2026-08-28T17:54:27Z</time>
  <course>5.99</course>
  <speed>0.49254441424099005</speed>
  <fix>3d</fix>
</trkpt>
<trkpt lat="40.0717328" lon="-105.2298051">
  <ele>1583.0</ele>
  <time>2026-08-28T17:54:27Z</time>
  <course>4.76</course>
  <speed>0.51</speed>
  <fix>3d</fix>
</trkpt>
<trkpt lat="40.0717341" lon="-105.2298048">
  <ele>1583.0</ele>
  <time>2026-08-28T17:54:27Z</time>
  <course>5.99</course>
  <speed>0.49254441424099005</speed>
  <fix>3d</fix>
</trkpt>
<trkpt lat="40.0717337" lon="-105.229805">
  <ele>1583.0</ele>
  <time>2026-08-28T17:54:27Z</time>
  <course>4.77</course>
  <speed>0.51</speed>
  <fix>3d</fix>
</trkpt>
<trkpt lat="40.0717346" lon="-105.2298048">
  <ele>1583.0</ele>
  <time>2026-08-28T17:54:27Z</time>
  <course>6.0</course>
  <speed>0.49254441424099005</speed>
  <fix>3d</fix>
</trkpt>
<trkpt lat="40.0717337" lon="-105.229805">
  <ele>1583.0</ele>
  <time>2026-08-28T17:54:27Z</time>
  <course>4.77</course>
  <speed>0.51</speed>
  <fix>3d</fix>
</trkpt>
<trkpt lat="40.071735" lon="-105.2298047">
  <ele>1583.01</ele>
  <time>2026-08-28T17:54:27Z</time>
  <course>6.01</course>
  <speed>0.49254441424099005</speed>
  <fix>3d</fix>
</trkpt>
<trkpt lat="40.0717347" lon="-105.2298049">
  <ele>1583.0</ele>
  <time>2026-08-28T17:54:27Z</time>
  <course>4.79</course>
  <speed>0.51</speed>
  <fix>3d</fix>
</trkpt>
<trkpt lat="40.0717355" lon="-105.2298047">
  <ele>1583.01</ele>
  <time>2026-08-28T17:54:27Z</time>
  <course>6.02</course>
  <speed>0.49254441424099005</speed>
  <fix>3d</fix>
</trkpt>
<trkpt lat="40.0717347" lon="-105.2298049">
  <ele>1583.0</ele>
  <time>2026-08-28T17:54:27Z</time>
  <course>4.79</course>
  <speed>0.51</speed>
  <fix>3d</fix>
</trkpt>
<trkpt lat="40.071736" lon="-105.2298046">
  <ele>1583.01</ele>
  <time>2026-08-28T17:54:27Z</time>
  <course>6.03</course>
  <speed>0.49254441424099005</speed>
  <fix>3d</fix>
</trkpt>
<trkpt lat="40.0717356" lon="-105.2298048">
  <ele>1583.0</ele>
  <time>2026-08-28T17:54:27Z</time>
  <course>4.81</course>
  <speed>0.51</speed>
  <fix>3d</fix>
</trkpt>
<trkpt lat="40.0717365" lon="-105.2298046">
  <ele>1583.02</ele>
  <time>2026-08-28T17:54:27Z</time>
  <course>6.04</course>
  <speed>0.49254441424099005</speed>
  <fix>3d</fix>
</trkpt>
<trkpt lat="40.0717356" lon="-105.2298048">
  <ele>1583.0</ele>
  <time>2026-08-28T17:54:27Z</time>
  <course>4.81</course>
  <speed>0.51</speed>
  <fix>3d</fix>
</trkpt>
<trkpt lat="40.0717369" lon="-105.2298045">
  <ele>1583.02</ele>
  <time>2026-08-28T17:54:27Z</time>
  <course>6.04</course>
  <speed>0.49254441424099005</speed>
  <fix>3d</fix>
</trkpt>
<trkpt lat="40.0717365" lon="-105.2298047">
  <ele>1583.0</ele>
  <time>2026-08-28T17:54:27Z</time>
  <course>4.82</course>
  <speed>0.51</speed>
  <fix>3d</fix>
</trkpt>
<trkpt lat="40.0717374" lon="-105.2298045">
  <ele>1583.02</ele>
  <time>2026-08-28T17:54:27Z</time>
  <course>6.05</course>
  <speed>0.49254441424099005</speed>
  <fix>3d</fix>
</trkpt>
<trkpt lat="40.0717365" lon="-105.2298047">
  <ele>1583.0</ele>
  <time>2026-08-28T17:54:27Z</time>
  <course>4.82</course>
  <speed>0.51</speed>
  <fix>3d</fix>
</trkpt>
<trkpt lat="40.0717379" lon="-105.2298044">
  <ele>1583.02</ele>
  <time>2026-08-28T17:54:27Z</time>
  <course>6.06</course>
  <speed>0.49254441424099005</speed>
  <fix>3d</fix>
</trkpt>
<trkpt lat="40.0717365" lon="-105.2298047">
  <ele>1583.0</ele>
  <time>2026-08-28T17:54:27Z</time>
  <course>4.82</course>
  <speed>0.51</speed>
  <fix>3d</fix>
</trkpt>
<trkpt lat="40.0717383" lon="-105.2298044">
  <ele>1583.02</ele>
  <time>2026-08-28T17:54:27Z</time>
  <course>6.07</course>
  <speed>0.49254441424099005</speed>
  <fix>3d</fix>
</trkpt>
<trkpt lat="40.0717375" lon="-105.2298046">
  <ele>1583.0</ele>
  <time>2026-08-28T17:54:27Z</time>
  <course>4.84</course>
  <speed>0.51</speed>
  <fix>3d</fix>
</trkpt>
<trkpt lat="40.0717388" lon="-105.2298043">
  <ele>1583.02</ele>
  <time>2026-08-28T17:54:27Z</time>
  <course>6.08</course>
  <speed>0.49254441424099005</speed>
  <fix>3d</fix>
</trkpt>
<trkpt lat="40.0717375" lon="-105.2298046">
  <ele>1583.0</ele>
  <time>2026-08-28T17:54:27Z</time>
  <course>4.84</course>
  <speed>0.51</speed>
  <fix>3d</fix>
</trkpt>
<trkpt lat="40.0717392" lon="-105.2298043">
  <ele>1583.02</ele>
  <time>2026-08-28T17:54:27Z</time>
  <course>6.08</course>
  <speed>0.49254441424099005</speed>
  <fix>3d</fix>
</trkpt>
<trkpt lat="40.0717384" lon="-105.2298044">
  <ele>1583.0</ele>
  <time>2026-08-28T17:54:27Z</time>
  <course>4.85</course>
  <speed>0.51</speed>
  <fix>3d</fix>
</trkpt>
<trkpt lat="40.0717397" lon="-105.2298042">
  <ele>1583.02</ele>
  <time>2026-08-28T17:54:27Z</time>
  <course>6.09</course>
  <speed>0.49254441424099005</speed>
  <fix>3d</fix>
</trkpt>
<trkpt lat="40.0717384" lon="-105.2298044">
  <ele>1583.0</ele>
  <time>2026-08-28T17:54:27Z</time>
  <course>4.85</course>
  <speed>0.51</speed>
  <fix>3d</fix>
</trkpt>
<trkpt lat="40.0717402" lon="-105.2298042">
  <ele>1583.02</ele>
  <time>2026-08-28T17:54:27Z</time>
  <course>6.1</course>
  <speed>0.49254441424099005</speed>
  <fix>3d</fix>
</trkpt>
<trkpt lat="40.0717393" lon="-105.2298043">
  <ele>1583.0</ele>
  <time>2026-08-28T17:54:27Z</time>
  <course>4.87</course>
  <speed>0.51</speed>
  <fix>3d</fix>
</trkpt>
<trkpt lat="40.0717406" lon="-105.2298041">
  <ele>1583.01</ele>
  <time>2026-08-28T17:54:27Z</time>
  <course>6.1</course>
  <speed>0.49254441424099005</speed>
  <fix>3d</fix>
</trkpt>
<trkpt lat="40.0717402" lon="-105.2298042">
  <ele>1583.0</ele>
  <time>2026-08-28T17:54:27Z</time>
  <course>4.88</course>
  <speed>0.51</speed>
  <fix>3d</fix>
</trkpt>
<trkpt lat="40.0717411" lon="-105.229804">
  <ele>1583.01</ele>
  <time>2026-08-28T17:54:27Z</time>
  <course>6.11</course>
  <speed>0.4936598018878993</speed>
  <fix>3d</fix>
</trkpt>
<trkpt lat="40.0717402" lon="-105.2298042">
  <ele>1583.0</ele>
  <time>2026-08-28T17:54:27Z</time>
  <course>4.88</course>
  <speed>0.51</speed>
  <fix>3d</fix>
</trkpt>
<trkpt lat="40.0717416" lon="-105.229804">
  <ele>1583.0</ele>
  <time>2026-08-28T17:54:27Z</time>
  <course>6.12</course>
  <speed>0.4936598018878993</speed>
  <fix>3d</fix>
</trkpt>
<trkpt lat="40.0717412" lon="-105.2298041">
  <ele>1583.0</ele>
  <time>2026-08-28T17:54:27Z</time>
  <course>4.9</course>
  <speed>0.51</speed>
  <fix>3d</fix>
</trkpt>
<trkpt lat="40.071742" lon="-105.2298039">
  <ele>1583.0</ele>
  <time>2026-08-28T17:54:27Z</time>
  <course>6.13</course>
  <speed>0.4936598018878993</speed>
  <fix>3d</fix>
</trkpt>
<trkpt lat="40.0717412" lon="-105.2298041">
  <ele>1583.0</ele>
  <time>2026-08-28T17:54:27Z</time>
  <course>4.9</course>
  <speed>0.51</speed>
  <fix>3d</fix>
</trkpt>
<trkpt lat="40.0717425" lon="-105.2298039">
  <ele>1583.0</ele>
  <time>2026-08-28T17:54:27Z</time>
  <course>6.14</course>
  <speed>0.4936598018878993</speed>
  <fix>3d</fix>
</trkpt>
<trkpt lat="40.0717421" lon="-105.229804">
  <ele>1583.0</ele>
  <time>2026-08-28T17:54:27Z</time>
  <course>4.92</course>
  <speed>0.51</speed>
  <fix>3d</fix>
</trkpt>
<trkpt lat="40.071743" lon="-105.2298038">
  <ele>1583.0</ele>
  <time>2026-08-28T17:54:27Z</time>
  <course>6.15</course>
  <speed>0.4936598018878993</speed>
  <fix>3d</fix>
</trkpt>
<trkpt lat="40.0717421" lon="-105.229804">
  <ele>1583.0</ele>
  <time>2026-08-28T17:54:27Z</time>
  <course>4.92</course>
  <speed>0.51</speed>
  <fix>3d</fix>
</trkpt>
<trkpt lat="40.0717434" lon="-105.2298037">
  <ele>1583.0</ele>
  <time>2026-08-28T17:54:27Z</time>
  <course>6.16</course>
  <speed>0.4936598018878993</speed>
  <fix>3d</fix>
</trkpt>
<trkpt lat="40.071743" lon="-105.2298039">
  <ele>1583.0</ele>
  <time>2026-08-28T17:54:27Z</time>
  <course>4.93</course>
  <speed>0.51</speed>
  <fix>3d</fix>
</trkpt>
<trkpt lat="40.0717439" lon="-105.2298037">
  <ele>1583.01</ele>
  <time>2026-08-28T17:54:27Z</time>
  <course>6.17</course>
  <speed>0.4936598018878993</speed>
  <fix>3d</fix>
</trkpt>
<trkpt lat="40.071743" lon="-105.2298039">
  <ele>1583.0</ele>
  <time>2026-08-28T17:54:27Z</time>
  <course>4.93</course>
  <speed>0.51</speed>
  <fix>3d</fix>
</trkpt>
<trkpt lat="40.0717444" lon="-105.2298036">
  <ele>1583.01</ele>
  <time>2026-08-28T17:54:27Z</time>
  <course>6.18</course>
  <speed>0.4936598018878993</speed>
  <fix>3d</fix>
</trkpt>
<trkpt lat="40.0717439" lon="-105.2298038">
  <ele>1583.0</ele>
  <time>2026-08-28T17:54:27Z</time>
  <course>4.95</course>
  <speed>0.51</speed>
  <fix>3d</fix>
</trkpt>
<trkpt lat="40.0717448" lon="-105.2298036">
  <ele>1583.01</ele>
  <time>2026-08-28T17:54:27Z</time>
  <course>6.18</course>
  <speed>0.4936598018878993</speed>
  <fix>3d</fix>
</trkpt>
<trkpt lat="40.0717439" lon="-105.2298038">
  <ele>1583.0</ele>
  <time>2026-08-28T17:54:27Z</time>
  <course>4.95</course>
  <speed>0.51</speed>
  <fix>3d</fix>
</trkpt>
<trkpt lat="40.0717453" lon="-105.2298035">
  <ele>1583.02</ele>
  <time>2026-08-28T17:54:27Z</time>
  <course>6.19</course>
  <speed>0.4936598018878993</speed>
  <fix>3d</fix>
</trkpt>
<trkpt lat="40.0717449" lon="-105.2298037">
  <ele>1583.0</ele>
  <time>2026-08-28T17:54:27Z</time>
  <course>4.97</course>
  <speed>0.51</speed>
  <fix>3d</fix>
</trkpt>
<trkpt lat="40.0717457" lon="-105.2298035">
  <ele>1583.02</ele>
  <time>2026-08-28T17:54:27Z</time>
  <course>6.2</course>
  <speed>0.4936598018878993</speed>
  <fix>3d</fix>
</trkpt>
<trkpt lat="40.0717449" lon="-105.2298037">
  <ele>1583.0</ele>
  <time>2026-08-28T17:54:27Z</time>
  <course>4.97</course>
  <speed>0.51</speed>
  <fix>3d</fix>
</trkpt>
<trkpt lat="40.0717462" lon="-105.2298034">
  <ele>1583.02</ele>
  <time>2026-08-28T17:54:27Z</time>
  <course>6.2</course>
  <speed>0.4936598018878993</speed>
  <fix>3d</fix>
</trkpt>
<trkpt lat="40.0717458" lon="-105.2298036">
  <ele>1583.0</ele>
  <time>2026-08-28T17:54:27Z</time>
  <course>4.98</course>
  <speed>0.51</speed>
  <fix>3d</fix>
</trkpt>
<trkpt lat="40.0717467" lon="-105.2298034">
  <ele>1583.02</ele>
  <time>2026-08-28T17:54:27Z</time>
  <course>6.21</course>
  <speed>0.4936598018878993</speed>
  <fix>3d</fix>
</trkpt>
<trkpt lat="40.0717458" lon="-105.2298036">
  <ele>1583.0</ele>
  <time>2026-08-28T17:54:27Z</time>
  <course>4.98</course>
  <speed>0.51</speed>
  <fix>3d</fix>
</trkpt>
<trkpt lat="40.0717471" lon="-105.2298033">
  <ele>1583.02</ele>
  <time>2026-08-28T17:54:27Z</time>
  <course>6.22</course>
  <speed>0.4936598018878993</speed>
  <fix>3d</fix>
</trkpt>
<trkpt lat="40.0717458" lon="-105.2298036">
  <ele>1583.0</ele>
  <time>2026-08-28T17:54:27Z</time>
  <course>4.98</course>
  <speed>0.51</speed>
  <fix>3d</fix>
</trkpt>
<trkpt lat="40.0717476" lon="-105.2298032">
  <ele>1583.02</ele>
  <time>2026-08-28T17:54:27Z</time>
  <course>6.22</course>
  <speed>0.4936598018878993</speed>
  <fix>3d</fix>
</trkpt>
<trkpt lat="40.0717467" lon="-105.2298035">
  <ele>1583.0</ele>
  <time>2026-08-28T17:54:27Z</time>
  <course>4.99</course>
  <speed>0.51</speed>
  <fix>3d</fix>
</trkpt>
<trkpt lat="40.0717481" lon="-105.2298032">
  <ele>1583.02</ele>
  <time>2026-08-28T17:54:27Z</time>
  <course>6.22</course>
  <speed>0.4936598018878993</speed>
  <fix>3d</fix>
</trkpt>
<trkpt lat="40.0717467" lon="-105.2298035">
  <ele>1583.0</ele>
  <time>2026-08-28T17:54:27Z</time>
  <course>4.99</course>
  <speed>0.51</speed>
  <fix>3d</fix>
</trkpt>
<trkpt lat="40.0717485" lon="-105.2298031">
  <ele>1583.02</ele>
  <time>2026-08-28T17:54:27Z</time>
  <course>6.23</course>
  <speed>0.4936598018878993</speed>
  <fix>3d</fix>
</trkpt>
<trkpt lat="40.0717476" lon="-105.2298034">
  <ele>1583.0</ele>
  <time>2026-08-28T17:54:27Z</time>
  <course>5.0</course>
  <speed>0.51</speed>
  <fix>3d</fix>
</trkpt>
<trkpt lat="40.071749" lon="-105.2298031">
  <ele>1583.03</ele>
  <time>2026-08-28T17:54:27Z</time>
  <course>6.23</course>
  <speed>0.4936598018878993</speed>
  <fix>3d</fix>
</trkpt>
<trkpt lat="40.0717476" lon="-105.2298034">
  <ele>1583.0</ele>
  <time>2026-08-28T17:54:27Z</time>
  <course>5.0</course>
  <speed>0.51</speed>
  <fix>3d</fix>
</trkpt>
<trkpt lat="40.0717494" lon="-105.229803">
  <ele>1583.03</ele>
  <time>2026-08-28T17:54:27Z</time>
  <course>6.24</course>
  <speed>0.4936598018878993</speed>
  <fix>3d</fix>
</trkpt>
<trkpt lat="40.0717486" lon="-105.2298033">
  <ele>1583.0</ele>
  <time>2026-08-28T17:54:27Z</time>
  <course>5.01</course>
  <speed>0.51</speed>
  <fix>3d</fix>
</trkpt>
<trkpt lat="40.0717499" lon="-105.229803">
  <ele>1583.03</ele>
  <time>2026-08-28T17:54:27Z</time>
  <course>6.24</course>
  <speed>0.4936598018878993</speed>
  <fix>3d</fix>
</trkpt>
<trkpt lat="40.0717486" lon="-105.2298033">
  <ele>1583.0</ele>
  <time>2026-08-28T17:54:27Z</time>
  <course>5.01</course>
  <speed>0.51</speed>
  <fix>3d</fix>
</trkpt>
<trkpt lat="40.0717504" lon="-105.2298029">
  <ele>1583.03</ele>
  <time>2026-08-28T17:54:27Z</time>
  <course>6.25</course>
  <speed>0.4936598018878993</speed>
  <fix>3d</fix>
</trkpt>
<trkpt lat="40.0717495" lon="-105.2298032">
  <ele>1583.0</ele>
  <time>2026-08-28T17:54:27Z</time>
  <course>5.02</course>
  <speed>0.51</speed>
  <fix>3d</fix>
</trkpt>
<trkpt lat="40.0717508" lon="-105.2298029">
  <ele>1583.04</ele>
  <time>2026-08-28T17:54:27Z</time>
  <course>6.25</course>
  <speed>0.4936598018878993</speed>
  <fix>3d</fix>
</trkpt>
<trkpt lat="40.0717504" lon="-105.2298031">
  <ele>1583.0</ele>
  <time>2026-08-28T17:54:27Z</time>
  <course>5.03</course>
  <speed>0.51</speed>
  <fix>3d</fix>
</trkpt>
<trkpt lat="40.0717513" lon="-105.2298028">
  <ele>1583.04</ele>
  <time>2026-08-28T17:54:27Z</time>
  <course>6.26</course>
  <speed>0.4936598018878993</speed>
  <fix>3d</fix>
</trkpt>
<trkpt lat="40.0717504" lon="-105.2298031">
  <ele>1583.0</ele>
  <time>2026-08-28T17:54:27Z</time>
  <course>5.03</course>
  <speed>0.51</speed>
  <fix>3d</fix>
</trkpt>
<trkpt lat="40.0717517" lon="-105.2298028">
  <ele>1583.05</ele>
  <time>2026-08-28T17:54:27Z</time>
  <course>6.26</course>
  <speed>0.4936598018878993</speed>
  <fix>3d</fix>
</trkpt>
<trkpt lat="40.0717513" lon="-105.229803">
  <ele>1583.0</ele>
  <time>2026-08-28T17:54:27Z</time>
  <course>5.04</course>
  <speed>0.51</speed>
  <fix>3d</fix>
</trkpt>
<trkpt lat="40.0717522" lon="-105.2298027">
  <ele>1583.05</ele>
  <time>2026-08-28T17:54:27Z</time>
  <course>6.27</course>
  <speed>0.4936598018878993</speed>
  <fix>3d</fix>
</trkpt>
<trkpt lat="40.0717513" lon="-105.229803">
  <ele>1583.0</ele>
  <time>2026-08-28T17:54:27Z</time>
  <course>5.04</course>
  <speed>0.51</speed>
  <fix>3d</fix>
</trkpt>
<trkpt lat="40.0717527" lon="-105.2298027">
  <ele>1583.05</ele>
  <time>2026-08-28T17:54:27Z</time>
  <course>6.27</course>
  <speed>0.4936598018878993</speed>
  <fix>3d</fix>
</trkpt>
<trkpt lat="40.0717523" lon="-105.2298029">
  <ele>1583.0</ele>
  <time>2026-08-28T17:54:27Z</time>
  <course>5.05</course>
  <speed>0.51</speed>
  <fix>3d</fix>
</trkpt>
<trkpt lat="40.0717531" lon="-105.2298026">
  <ele>1583.05</ele>
  <time>2026-08-28T17:54:27Z</time>
  <course>6.28</course>
  <speed>0.4936598018878993</speed>
  <fix>3d</fix>
</trkpt>
<trkpt lat="40.0717523" lon="-105.2298029">
  <ele>1583.0</ele>
  <time>2026-08-28T17:54:27Z</time>
  <course>5.05</course>
  <speed>0.51</speed>
  <fix>3d</fix>
</trkpt>
<trkpt lat="40.0717536" lon="-105.2298026">
  <ele>1583.05</ele>
  <time>2026-08-28T17:54:27Z</time>
  <course>6.28</course>
  <speed>0.4936598018878993</speed>
  <fix>3d</fix>
</trkpt>
<trkpt lat="40.0717532" lon="-105.2298028">
  <ele>1583.0</ele>
  <time>2026-08-28T17:54:27Z</time>
  <course>5.06</course>
  <speed>0.51</speed>
  <fix>3d</fix>
</trkpt>
<trkpt lat="40.0717541" lon="-105.2298025">
  <ele>1583.05</ele>
  <time>2026-08-28T17:54:27Z</time>
  <course>6.29</course>
  <speed>0.4936598018878993</speed>
  <fix>3d</fix>
</trkpt>
<trkpt lat="40.0717532" lon="-105.2298028">
  <ele>1583.0</ele>
  <time>2026-08-28T17:54:27Z</time>
  <course>5.06</course>
  <speed>0.51</speed>
  <fix>3d</fix>
</trkpt>
<trkpt lat="40.0717545" lon="-105.2298025">
  <ele>1583.05</ele>
  <time>2026-08-28T17:54:27Z</time>
  <course>6.3</course>
  <speed>0.4936598018878993</speed>
  <fix>3d</fix>
</trkpt>
<trkpt lat="40.0717541" lon="-105.2298027">
  <ele>1583.0</ele>
  <time>2026-08-28T17:54:27Z</time>
  <course>5.07</course>
  <speed>0.51</speed>
  <fix>3d</fix>
</trkpt>
<trkpt lat="40.071755" lon="-105.2298024">
  <ele>1583.05</ele>
  <time>2026-08-28T17:54:27Z</time>
  <course>6.3</course>
  <speed>0.4936598018878993</speed>
  <fix>3d</fix>
</trkpt>
<trkpt lat="40.0717541" lon="-105.2298027">
  <ele>1583.0</ele>
  <time>2026-08-28T17:54:27Z</time>
  <course>5.07</course>
  <speed>0.51</speed>
  <fix>3d</fix>
</trkpt>
<trkpt lat="40.0717555" lon="-105.2298024">
  <ele>1583.05</ele>
  <time>2026-08-28T17:54:27Z</time>
  <course>6.31</course>
  <speed>0.4936598018878993</speed>
  <fix>3d</fix>
</trkpt>
<trkpt lat="40.0717551" lon="-105.2298026">
  <ele>1583.0</ele>
  <time>2026-08-28T17:54:27Z</time>
  <course>5.09</course>
  <speed>0.51</speed>
  <fix>3d</fix>
</trkpt>
<trkpt lat="40.0717559" lon="-105.2298023">
  <ele>1583.05</ele>
  <time>2026-08-28T17:54:27Z</time>
  <course>6.31</course>
  <speed>0.4936598018878993</speed>
  <fix>3d</fix>
</trkpt>
<trkpt lat="40.0717551" lon="-105.2298026">
  <ele>1583.0</ele>
  <time>2026-08-28T17:54:27Z</time>
  <course>5.09</course>
  <speed>0.51</speed>
  <fix>3d</fix>
</trkpt>
<trkpt lat="40.0717564" lon="-105.2298023">
  <ele>1583.05</ele>
  <time>2026-08-28T17:54:27Z</time>
  <course>6.31</course>
  <speed>0.4936598018878993</speed>
  <fix>3d</fix>
</trkpt>
<trkpt lat="40.071756" lon="-105.2298024">
  <ele>1583.0</ele>
  <time>2026-08-28T17:54:27Z</time>
  <course>5.09</course>
  <speed>0.51</speed>
  <fix>3d</fix>
</trkpt>
<trkpt lat="40.0717569" lon="-105.2298022">
  <ele>1583.05</ele>
  <time>2026-08-28T17:54:27Z</time>
  <course>6.32</course>
  <speed>0.4936598018878993</speed>
  <fix>3d</fix>
</trkpt>
<trkpt lat="40.071756" lon="-105.2298024">
  <ele>1583.0</ele>
  <time>2026-08-28T17:54:27Z</time>
  <course>5.09</course>
  <speed>0.51</speed>
  <fix>3d</fix>
</trkpt>
<trkpt lat="40.0717573" lon="-105.2298022">
  <ele>1583.05</ele>
  <time>2026-08-28T17:54:27Z</time>
  <course>6.32</course>
  <speed>0.4936598018878993</speed>
  <fix>3d</fix>
</trkpt>
<trkpt lat="40.071756" lon="-105.2298024">
  <ele>1583.0</ele>
  <time>2026-08-28T17:54:27Z</time>
  <course>5.09</course>
  <speed>0.51</speed>
  <fix>3d</fix>
</trkpt>
<trkpt lat="40.0717578" lon="-105.2298021">
  <ele>1583.05</ele>
  <time>2026-08-28T17:54:27Z</time>
  <course>6.33</course>
  <speed>0.4936598018878993</speed>
  <fix>3d</fix>
</trkpt>
<trkpt lat="40.0717569" lon="-105.2298023">
  <ele>1583.0</ele>
  <time>2026-08-28T17:54:27Z</time>
  <course>5.1</course>
  <speed>0.51</speed>
  <fix>3d</fix>
</trkpt>
<trkpt lat="40.0717583" lon="-105.229802">
  <ele>1583.04</ele>
  <time>2026-08-28T17:54:27Z</time>
  <course>6.34</course>
  <speed>0.4936598018878993</speed>
  <fix>3d</fix>
</trkpt>
<trkpt lat="40.0717569" lon="-105.2298023">
  <ele>1583.0</ele>
  <time>2026-08-28T17:54:27Z</time>
  <course>5.1</course>
  <speed>0.51</speed>
  <fix>3d</fix>
</trkpt>
<trkpt lat="40.0717587" lon="-105.229802">
  <ele>1583.04</ele>
  <time>2026-08-28T17:54:27Z</time>
  <course>6.34</course>
  <speed>0.4936598018878993</speed>
  <fix>3d</fix>
</trkpt>
<trkpt lat="40.0717578" lon="-105.2298022">
  <ele>1583.0</ele>
  <time>2026-08-28T17:54:27Z</time>
  <course>5.11</course>
  <speed>0.51</speed>
  <fix>3d</fix>
</trkpt>
<trkpt lat="40.0717592" lon="-105.2298019">
  <ele>1583.04</ele>
  <time>2026-08-28T17:54:27Z</time>
  <course>6.35</course>
  <speed>0.4936598018878993</speed>
  <fix>3d</fix>
</trkpt>
<trkpt lat="40.0717578" lon="-105.2298022">
  <ele>1583.0</ele>
  <time>2026-08-28T17:54:27Z</time>
  <course>5.11</course>
  <speed>0.51</speed>
  <fix>3d</fix>
</trkpt>
<trkpt lat="40.0717596" lon="-105.2298019">
  <ele>1583.04</ele>
  <time>2026-08-28T17:54:27Z</time>
  <course>6.36</course>
  <speed>0.4936598018878993</speed>
  <fix>3d</fix>
</trkpt>
<trkpt lat="40.0717588" lon="-105.2298021">
  <ele>1583.0</ele>
  <time>2026-08-28T17:54:27Z</time>
  <course>5.13</course>
  <speed>0.51</speed>
  <fix>3d</fix>
</trkpt>
<trkpt lat="40.0717601" lon="-105.2298018">
  <ele>1583.04</ele>
  <time>2026-08-28T17:54:27Z</time>
  <course>6.37</course>
  <speed>0.4936598018878993</speed>
  <fix>3d</fix>
</trkpt>
<trkpt lat="40.0717597" lon="-105.229802">
  <ele>1583.0</ele>
  <time>2026-08-28T17:54:27Z</time>
  <course>5.15</course>
  <speed>0.51</speed>
  <fix>3d</fix>
</trkpt>
<trkpt lat="40.0717606" lon="-105.2298018">
  <ele>1583.04</ele>
  <time>2026-08-28T17:54:27Z</time>
  <course>6.38</course>
  <speed>0.4936598018878993</speed>
  <fix>3d</fix>
</trkpt>
<trkpt lat="40.0717597" lon="-105.229802">
  <ele>1583.0</ele>
  <time>2026-08-28T17:54:27Z</time>
  <course>5.15</course>
  <speed>0.51</speed>
  <fix>3d</fix>
</trkpt>
<trkpt lat="40.071761" lon="-105.2298017">
  <ele>1583.04</ele>
  <time>2026-08-28T17:54:27Z</time>
  <course>6.38</course>
  <speed>0.4936598018878993</speed>
  <fix>3d</fix>
</trkpt>
<trkpt lat="40.0717606" lon="-105.2298019">
  <ele>1583.0</ele>
  <time>2026-08-28T17:54:27Z</time>
  <course>5.16</course>
  <speed>0.51</speed>
  <fix>3d</fix>
</trkpt>
<trkpt lat="40.0717615" lon="-105.2298017">
  <ele>1583.04</ele>
  <time>2026-08-28T17:54:27Z</time>
  <course>6.39</course>
  <speed>0.4936598018878993</speed>
  <fix>3d</fix>
</trkpt>
<trkpt lat="40.0717606" lon="-105.2298019">
  <ele>1583.0</ele>
  <time>2026-08-28T17:54:27Z</time>
  <course>5.16</course>
  <speed>0.51</speed>
  <fix>3d</fix>
</trkpt>
<trkpt lat="40.0717619" lon="-105.2298016">
  <ele>1583.04</ele>
  <time>2026-08-28T17:54:27Z</time>
  <course>6.4</course>
  <speed>0.4936598018878993</speed>
  <fix>3d</fix>
</trkpt>
<trkpt lat="40.0717615" lon="-105.2298018">
  <ele>1583.0</ele>
  <time>2026-08-28T17:54:27Z</time>
  <course>5.18</course>
  <speed>0.51</speed>
  <fix>3d</fix>
</trkpt>
<trkpt lat="40.0717624" lon="-105.2298015">
  <ele>1583.04</ele>
  <time>2026-08-28T17:54:27Z</time>
  <course>6.41</course>
  <speed>0.4936598018878993</speed>
  <fix>3d</fix>
</trkpt>
<trkpt lat="40.0717615" lon="-105.2298018">
  <ele>1583.0</ele>
  <time>2026-08-28T17:54:27Z</time>
  <course>5.18</course>
  <speed>0.51</speed>
  <fix>3d</fix>
</trkpt>
<trkpt lat="40.0717629" lon="-105.2298015">
  <ele>1583.04</ele>
  <time>2026-08-28T17:54:27Z</time>
  <course>6.42</course>
  <speed>0.4936598018878993</speed>
  <fix>3d</fix>
</trkpt>
<trkpt lat="40.0717625" lon="-105.2298017">
  <ele>1583.0</ele>
  <time>2026-08-28T17:54:27Z</time>
  <course>5.2</course>
  <speed>0.51</speed>
  <fix>3d</fix>
</trkpt>
<trkpt lat="40.0717633" lon="-105.2298014">
  <ele>1583.04</ele>
  <time>2026-08-28T17:54:27Z</time>
  <course>6.43</course>
  <speed>0.4936598018878993</speed>
  <fix>3d</fix>
</trkpt>
<trkpt lat="40.0717625" lon="-105.2298017">
  <ele>1583.0</ele>
  <time>2026-08-28T17:54:27Z</time>
  <course>5.2</course>
  <speed>0.51</speed>
  <fix>3d</fix>
</trkpt>
<trkpt lat="40.0717638" lon="-105.2298014">
  <ele>1583.04</ele>
  <time>2026-08-28T17:54:27Z</time>
  <course>6.44</course>
  <speed>0.4936598018878993</speed>
  <fix>3d</fix>
</trkpt>
<trkpt lat="40.0717634" lon="-105.2298016">
  <ele>1583.0</ele>
  <time>2026-08-28T17:54:27Z</time>
  <course>5.21</course>
  <speed>0.51</speed>
  <fix>3d</fix>
</trkpt>
<trkpt lat="40.0717643" lon="-105.2298013">
  <ele>1583.05</ele>
  <time>2026-08-28T17:54:27Z</time>
  <course>6.45</course>
  <speed>0.4936598018878993</speed>
  <fix>3d</fix>
</trkpt>
<trkpt lat="40.0717634" lon="-105.2298016">
  <ele>1583.0</ele>
  <time>2026-08-28T17:54:27Z</time>
  <course>5.21</course>
  <speed>0.51</speed>
  <fix>3d</fix>
</trkpt>
<trkpt lat="40.0717647" lon="-105.2298013">
  <ele>1583.05</ele>
  <time>2026-08-28T17:54:27Z</time>
  <course>6.46</course>
  <speed>0.4936598018878993</speed>
  <fix>3d</fix>
</trkpt>
<trkpt lat="40.0717643" lon="-105.2298015">
  <ele>1583.0</ele>
  <time>2026-08-28T17:54:27Z</time>
  <course>5.23</course>
  <speed>0.51</speed>
  <fix>3d</fix>
</trkpt>
<trkpt lat="40.0717652" lon="-105.2298012">
  <ele>1583.05</ele>
  <time>2026-08-28T17:54:27Z</time>
  <course>6.46</course>
  <speed>0.4936598018878993</speed>
  <fix>3d</fix>
</trkpt>
<trkpt lat="40.0717643" lon="-105.2298015">
  <ele>1583.0</ele>
  <time>2026-08-28T17:54:27Z</time>
  <course>5.23</course>
  <speed>0.51</speed>
  <fix>3d</fix>
</trkpt>
<trkpt lat="40.0717657" lon="-105.2298012">
  <ele>1583.05</ele>
  <time>2026-08-28T17:54:27Z</time>
  <course>6.47</course>
  <speed>0.4936598018878993</speed>
  <fix>3d</fix>
</trkpt>
<trkpt lat="40.0717652" lon="-105.2298013">
  <ele>1583.0</ele>
  <time>2026-08-28T17:54:27Z</time>
  <course>5.25</course>
  <speed>0.51</speed>
  <fix>3d</fix>
</trkpt>
<trkpt lat="40.0717661" lon="-105.2298011">
  <ele>1583.04</ele>
  <time>2026-08-28T17:54:27Z</time>
  <course>6.48</course>
  <speed>0.4936598018878993</speed>
  <fix>3d</fix>
</trkpt>
<trkpt lat="40.0717652" lon="-105.2298013">
  <ele>1583.0</ele>
  <time>2026-08-28T17:54:27Z</time>
  <course>5.25</course>
  <speed>0.51</speed>
  <fix>3d</fix>
</trkpt>
<trkpt lat="40.0717666" lon="-105.229801">
  <ele>1583.04</ele>
  <time>2026-08-28T17:54:27Z</time>
  <course>6.49</course>
  <speed>0.4936598018878993</speed>
  <fix>3d</fix>
</trkpt>
<trkpt lat="40.0717652" lon="-105.2298013">
  <ele>1583.0</ele>
  <time>2026-08-28T17:54:27Z</time>
  <course>5.25</course>
  <speed>0.51</speed>
  <fix>3d</fix>
</trkpt>
<trkpt lat="40.0717671" lon="-105.229801">
  <ele>1583.04</ele>
  <time>2026-08-28T17:54:27Z</time>
  <course>6.5</course>
  <speed>0.4936598018878993</speed>
  <fix>3d</fix>
</trkpt>
<trkpt lat="40.0717662" lon="-105.2298012">
  <ele>1583.0</ele>
  <time>2026-08-28T17:54:27Z</time>
  <course>5.27</course>
  <speed>0.51</speed>
  <fix>3d</fix>
</trkpt>
<trkpt lat="40.0717675" lon="-105.2298009">
  <ele>1583.03</ele>
  <time>2026-08-28T17:54:27Z</time>
  <course>6.51</course>
  <speed>0.4936598018878993</speed>
  <fix>3d</fix>
</trkpt>
<trkpt lat="40.0717662" lon="-105.2298012">
  <ele>1583.0</ele>
  <time>2026-08-28T17:54:27Z</time>
  <course>5.27</course>
  <speed>0.51</speed>
  <fix>3d</fix>
</trkpt>
<trkpt lat="40.071768" lon="-105.2298009">
  <ele>1583.03</ele>
  <time>2026-08-28T17:54:27Z</time>
  <course>6.52</course>
  <speed>0.4936598018878993</speed>
  <fix>3d</fix>
</trkpt>
<trkpt lat="40.0717671" lon="-105.2298011">
  <ele>1583.0</ele>
  <time>2026-08-28T17:54:27Z</time>
  <course>5.29</course>
  <speed>0.51</speed>
  <fix>3d</fix>
</trkpt>
<trkpt lat="40.0717684" lon="-105.2298008">
  <ele>1583.02</ele>
  <time>2026-08-28T17:54:27Z</time>
  <course>6.53</course>
  <speed>0.4936598018878993</speed>
  <fix>3d</fix>
</trkpt>
<trkpt lat="40.0717671" lon="-105.2298011">
  <ele>1583.0</ele>
  <time>2026-08-28T17:54:27Z</time>
  <course>5.29</course>
  <speed>0.51</speed>
  <fix>3d</fix>
</trkpt>
<trkpt lat="40.0717689" lon="-105.2298008">
  <ele>1583.02</ele>
  <time>2026-08-28T17:54:27Z</time>
  <course>6.53</course>
  <speed>0.4936598018878993</speed>
  <fix>3d</fix>
</trkpt>
<trkpt lat="40.071768" lon="-105.229801">
  <ele>1583.0</ele>
  <time>2026-08-28T17:54:27Z</time>
  <course>5.31</course>
  <speed>0.51</speed>
  <fix>3d</fix>
</trkpt>
<trkpt lat="40.0717693" lon="-105.2298007">
  <ele>1583.02</ele>
  <time>2026-08-28T17:54:27Z</time>
  <course>6.54</course>
  <speed>0.4936598018878993</speed>
  <fix>3d</fix>
</trkpt>
<trkpt lat="40.071768" lon="-105.229801">
  <ele>1583.0</ele>
  <time>2026-08-28T17:54:27Z</time>
  <course>5.31</course>
  <speed>0.51</speed>
  <fix>3d</fix>
</trkpt>
<trkpt lat="40.0717698" lon="-105.2298006">
  <ele>1583.02</ele>
  <time>2026-08-28T17:54:27Z</time>
  <course>6.55</course>
  <speed>0.4936598018878993</speed>
  <fix>3d</fix>
</trkpt>
<trkpt lat="40.0717689" lon="-105.2298009">
  <ele>1583.0</ele>
  <time>2026-08-28T17:54:27Z</time>
  <course>5.32</course>
  <speed>0.51</speed>
  <fix>3d</fix>
</trkpt>
<trkpt lat="40.0717703" lon="-105.2298006">
  <ele>1583.02</ele>
  <time>2026-08-28T17:54:27Z</time>
  <course>6.56</course>
  <speed>0.4936598018878993</speed>
  <fix>3d</fix>
</trkpt>
<trkpt lat="40.0717699" lon="-105.2298008">
  <ele>1583.0</ele>
  <time>2026-08-28T17:54:27Z</time>
  <course>5.34</course>
  <speed>0.51</speed>
  <fix>3d</fix>
</trkpt>
<trkpt lat="40.0717707" lon="-105.2298005">
  <ele>1583.02</ele>
  <time>2026-08-28T17:54:27Z</time>
  <course>6.57</course>
  <speed>0.4936598018878993</speed>
  <fix>3d</fix>
</trkpt>
<trkpt lat="40.0717699" lon="-105.2298008">
  <ele>1583.0</ele>
  <time>2026-08-28T17:54:27Z</time>
  <course>5.34</course>
  <speed>0.51</speed>
  <fix>3d</fix>
</trkpt>
<trkpt lat="40.0717712" lon="-105.2298005">
  <ele>1583.02</ele>
  <time>2026-08-28T17:54:27Z</time>
  <course>6.58</course>
  <speed>0.4936598018878993</speed>
  <fix>3d</fix>
</trkpt>
<trkpt lat="40.0717708" lon="-105.2298007">
  <ele>1583.0</ele>
  <time>2026-08-28T17:54:27Z</time>
  <course>5.36</course>
  <speed>0.51</speed>
  <fix>3d</fix>
</trkpt>
<trkpt lat="40.0717717" lon="-105.2298004">
  <ele>1583.01</ele>
  <time>2026-08-28T17:54:27Z</time>
  <course>6.59</course>
  <speed>0.4936598018878993</speed>
  <fix>3d</fix>
</trkpt>
<trkpt lat="40.0717708" lon="-105.2298007">
  <ele>1583.0</ele>
  <time>2026-08-28T17:54:27Z</time>
  <course>5.36</course>
  <speed>0.51</speed>
  <fix>3d</fix>
</trkpt>
<trkpt lat="40.0717721" lon="-105.2298004">
  <ele>1583.01</ele>
  <time>2026-08-28T17:54:27Z</time>
  <course>6.6</course>
  <speed>0.4936598018878993</speed>
  <fix>3d</fix>
</trkpt>
<trkpt lat="40.0717717" lon="-105.2298006">
  <ele>1583.0</ele>
  <time>2026-08-28T17:54:27Z</time>
  <course>5.38</course>
  <speed>0.51</speed>
  <fix>3d</fix>
</trkpt>
<trkpt lat="40.0717726" lon="-105.2298003">
  <ele>1583.01</ele>
  <time>2026-08-28T17:54:27Z</time>
  <course>6.61</course>
  <speed>0.4936598018878993</speed>
  <fix>3d</fix>
</trkpt>
<trkpt lat="40.0717717" lon="-105.2298006">
  <ele>1583.0</ele>
  <time>2026-08-28T17:54:27Z</time>
  <course>5.38</course>
  <speed>0.51</speed>
  <fix>3d</fix>
</trkpt>
<trkpt lat="40.071773" lon="-105.2298003">
  <ele>1583.01</ele>
  <time>2026-08-28T17:54:27Z</time>
  <course>6.62</course>
  <speed>0.4936598018878993</speed>
  <fix>3d</fix>
</trkpt>
<trkpt lat="40.0717727" lon="-105.2298004">
  <ele>1583.0</ele>
  <time>2026-08-28T17:54:27Z</time>
  <course>5.4</course>
  <speed>0.51</speed>
  <fix>3d</fix>
</trkpt>
<trkpt lat="40.0717735" lon="-105.2298002">
  <ele>1583.01</ele>
  <time>2026-08-28T17:54:27Z</time>
  <course>6.62</course>
  <speed>0.4936598018878993</speed>
  <fix>3d</fix>
</trkpt>
<trkpt lat="40.0717727" lon="-105.2298004">
  <ele>1583.0</ele>
  <time>2026-08-28T17:54:27Z</time>
  <course>5.4</course>
  <speed>0.51</speed>
  <fix>3d</fix>
</trkpt>
<trkpt lat="40.071774" lon="-105.2298001">
  <ele>1583.01</ele>
  <time>2026-08-28T17:54:27Z</time>
  <course>6.64</course>
  <speed>0.4936598018878993</speed>
  <fix>3d</fix>
</trkpt>
<trkpt lat="40.0717736" lon="-105.2298003">
  <ele>1583.0</ele>
  <time>2026-08-28T17:54:27Z</time>
  <course>5.42</course>
  <speed>0.51</speed>
  <fix>3d</fix>
</trkpt>
<trkpt lat="40.0717745" lon="-105.2298001">
  <ele>1583.0</ele>
  <time>2026-08-28T17:54:27Z</time>
  <course>6.65</course>
  <speed>0.4936598018878993</speed>
  <fix>3d</fix>
</trkpt>
<trkpt lat="40.0717736" lon="-105.2298003">
  <ele>1583.0</ele>
  <time>2026-08-28T17:54:27Z</time>
  <course>5.42</course>
  <speed>0.51</speed>
  <fix>3d</fix>
</trkpt>
<trkpt lat="40.0717749" lon="-105.2298">
  <ele>1583.0</ele>
  <time>2026-08-28T17:54:27Z</time>
  <course>6.65</course>
  <speed>0.4936598018878993</speed>
  <fix>3d</fix>
</trkpt>
<trkpt lat="40.0717745" lon="-105.2298002">
  <ele>1583.0</ele>
  <time>2026-08-28T17:54:27Z</time>
  <course>5.44</course>
  <speed>0.51</speed>
  <fix>3d</fix>
</trkpt>
<trkpt lat="40.0717754" lon="-105.2298">
  <ele>1583.0</ele>
  <time>2026-08-28T17:54:27Z</time>
  <course>6.66</course>
  <speed>0.4936598018878993</speed>
  <fix>3d</fix>
</trkpt>
<trkpt lat="40.0717745" lon="-105.2298002">
  <ele>1583.0</ele>
  <time>2026-08-28T17:54:27Z</time>
  <course>5.44</course>
  <speed>0.51</speed>
  <fix>3d</fix>
</trkpt>
<trkpt lat="40.0717758" lon="-105.2297999">
  <ele>1582.99</ele>
  <time>2026-08-28T17:54:27Z</time>
  <course>6.68</course>
  <speed>0.4936598018878993</speed>
  <fix>3d</fix>
</trkpt>
<trkpt lat="40.0717755" lon="-105.2298001">
  <ele>1583.0</ele>
  <time>2026-08-28T17:54:27Z</time>
  <course>5.46</course>
  <speed>0.51</speed>
  <fix>3d</fix>
</trkpt>
<trkpt lat="40.0717763" lon="-105.2297998">
  <ele>1582.99</ele>
  <time>2026-08-28T17:54:27Z</time>
  <course>6.69</course>
  <speed>0.4936598018878993</speed>
  <fix>3d</fix>
</trkpt>
<trkpt lat="40.0717755" lon="-105.2298001">
  <ele>1583.0</ele>
  <time>2026-08-28T17:54:27Z</time>
  <course>5.46</course>
  <speed>0.51</speed>
  <fix>3d</fix>
</trkpt>
<trkpt lat="40.0717768" lon="-105.2297998">
  <ele>1582.99</ele>
  <time>2026-08-28T17:54:27Z</time>
  <course>6.7</course>
  <speed>0.4936598018878993</speed>
  <fix>3d</fix>
</trkpt>
<trkpt lat="40.0717755" lon="-105.2298001">
  <ele>1583.0</ele>
  <time>2026-08-28T17:54:27Z</time>
  <course>5.46</course>
  <speed>0.51</speed>
  <fix>3d</fix>
</trkpt>
<trkpt lat="40.0717773" lon="-105.2297997">
  <ele>1582.99</ele>
  <time>2026-08-28T17:54:27Z</time>
  <course>6.71</course>
  <speed>0.4936598018878993</speed>
  <fix>3d</fix>
</trkpt>
<trkpt lat="40.0717764" lon="-105.2298">
  <ele>1583.0</ele>
  <time>2026-08-28T17:54:27Z</time>
  <course>5.48</course>
  <speed>0.51</speed>
  <fix>3d</fix>
</trkpt>
<trkpt lat="40.0717777" lon="-105.2297997">
  <ele>1582.99</ele>
  <time>2026-08-28T17:54:27Z</time>
  <course>6.72</course>
  <speed>0.4936598018878993</speed>
  <fix>3d</fix>
</trkpt>
<trkpt lat="40.0717764" lon="-105.2298">
  <ele>1583.0</ele>
  <time>2026-08-28T17:54:27Z</time>
  <course>5.48</course>
  <speed>0.51</speed>
  <fix>3d</fix>
</trkpt>
<trkpt lat="40.0717782" lon="-105.2297996">
  <ele>1582.98</ele>
  <time>2026-08-28T17:54:27Z</time>
  <course>6.73</course>
  <speed>0.4936598018878993</speed>
  <fix>3d</fix>
</trkpt>
<trkpt lat="40.0717773" lon="-105.2297998">
  <ele>1583.0</ele>
  <time>2026-08-28T17:54:27Z</time>
  <course>5.5</course>
  <speed>0.51</speed>
  <fix>3d</fix>
</trkpt>
<trkpt lat="40.0717786" lon="-105.2297995">
  <ele>1582.98</ele>
  <time>2026-08-28T17:54:27Z</time>
  <course>6.74</course>
  <speed>0.4936598018878993</speed>
  <fix>3d</fix>
</trkpt>
<trkpt lat="40.0717773" lon="-105.2297998">
  <ele>1583.0</ele>
  <time>2026-08-28T17:54:27Z</time>
  <course>5.5</course>
  <speed>0.51</speed>
  <fix>3d</fix>
</trkpt>
<trkpt lat="40.0717791" lon="-105.2297995">
  <ele>1582.98</ele>
  <time>2026-08-28T17:54:27Z</time>
  <course>6.75</course>
  <speed>0.4936598018878993</speed>
  <fix>3d</fix>
</trkpt>
<trkpt lat="40.0717783" lon="-105.2297997">
  <ele>1583.0</ele>
  <time>2026-08-28T17:54:27Z</time>
  <course>5.52</course>
  <speed>0.51</speed>
  <fix>3d</fix>
</trkpt>
<trkpt lat="40.0717796" lon="-105.2297994">
  <ele>1582.98</ele>
  <time>2026-08-28T17:54:27Z</time>
  <course>6.76</course>
  <speed>0.4936598018878993</speed>
  <fix>3d</fix>
</trkpt>
<trkpt lat="40.0717792" lon="-105.2297996">
  <ele>1583.0</ele>
  <time>2026-08-28T17:54:27Z</time>
  <course>5.55</course>
  <speed>0.51</speed>
  <fix>3d</fix>
</trkpt>
<trkpt lat="40.07178" lon="-105.2297994">
  <ele>1582.98</ele>
  <time>2026-08-28T17:54:27Z</time>
  <course>6.77</course>
  <speed>0.4936598018878993</speed>
  <fix>3d</fix>
</trkpt>
<trkpt lat="40.0717792" lon="-105.2297996">
  <ele>1583.0</ele>
  <time>2026-08-28T17:54:27Z</time>
  <course>5.55</course>
  <speed>0.51</speed>
  <fix>3d</fix>
</trkpt>
<trkpt lat="40.0717805" lon="-105.2297993">
  <ele>1582.98</ele>
  <time>2026-08-28T17:54:27Z</time>
  <course>6.78</course>
  <speed>0.4936598018878993</speed>
  <fix>3d</fix>
</trkpt>
<trkpt lat="40.0717801" lon="-105.2297995">
  <ele>1583.0</ele>
  <time>2026-08-28T17:54:27Z</time>
  <course>5.57</course>
  <speed>0.51</speed>
  <fix>3d</fix>
</trkpt>
<trkpt lat="40.071781" lon="-105.2297992">
  <ele>1582.98</ele>
  <time>2026-08-28T17:54:27Z</time>
  <course>6.79</course>
  <speed>0.4936598018878993</speed>
  <fix>3d</fix>
</trkpt>
<trkpt lat="40.0717801" lon="-105.2297995">
  <ele>1583.0</ele>
  <time>2026-08-28T17:54:27Z</time>
  <course>5.57</course>
  <speed>0.51</speed>
  <fix>3d</fix>
</trkpt>
<trkpt lat="40.0717814" lon="-105.2297992">
  <ele>1582.98</ele>
  <time>2026-08-28T17:54:27Z</time>
  <course>6.8</course>
  <speed>0.4936598018878993</speed>
  <fix>3d</fix>
</trkpt>
<trkpt lat="40.071781" lon="-105.2297994">
  <ele>1583.0</ele>
  <time>2026-08-28T17:54:27Z</time>
  <course>5.59</course>
  <speed>0.51</speed>
  <fix>3d</fix>
</trkpt>
<trkpt lat="40.0717819" lon="-105.2297991">
  <ele>1582.98</ele>
  <time>2026-08-28T17:54:27Z</time>
  <course>6.82</course>
  <speed>0.4936598018878993</speed>
  <fix>3d</fix>
</trkpt>
<trkpt lat="40.071781" lon="-105.2297994">
  <ele>1583.0</ele>
  <time>2026-08-28T17:54:27Z</time>
  <course>5.59</course>
  <speed>0.51</speed>
  <fix>3d</fix>
</trkpt>
<trkpt lat="40.0717824" lon="-105.2297991">
  <ele>1582.98</ele>
  <time>2026-08-28T17:54:27Z</time>
  <course>6.83</course>
  <speed>0.4936598018878993</speed>
  <fix>3d</fix>
</trkpt>
<trkpt lat="40.071782" lon="-105.2297993">
  <ele>1583.0</ele>
  <time>2026-08-28T17:54:27Z</time>
  <course>5.62</course>
  <speed>0.51</speed>
  <fix>3d</fix>
</trkpt>
<trkpt lat="40.0717828" lon="-105.229799">
  <ele>1582.98</ele>
  <time>2026-08-28T17:54:27Z</time>
  <course>6.84</course>
  <speed>0.4936598018878993</speed>
  <fix>3d</fix>
</trkpt>
<trkpt lat="40.071782" lon="-105.2297993">
  <ele>1583.0</ele>
  <time>2026-08-28T17:54:27Z</time>
  <course>5.62</course>
  <speed>0.51</speed>
  <fix>3d</fix>
</trkpt>
<trkpt lat="40.0717833" lon="-105.2297989">
  <ele>1582.98</ele>
  <time>2026-08-28T17:54:27Z</time>
  <course>6.85</course>
  <speed>0.4936598018878993</speed>
  <fix>3d</fix>
</trkpt>
<trkpt lat="40.0717829" lon="-105.2297992">
  <ele>1583.0</ele>
  <time>2026-08-28T17:54:27Z</time>
  <course>5.64</course>
  <speed>0.51</speed>
  <fix>3d</fix>
</trkpt>
<trkpt lat="40.0717838" lon="-105.2297989">
  <ele>1582.98</ele>
  <time>2026-08-28T17:54:27Z</time>
  <course>6.86</course>
  <speed>0.4936598018878993</speed>
  <fix>3d</fix>
</trkpt>
<trkpt lat="40.0717829" lon="-105.2297992">
  <ele>1583.0</ele>
  <time>2026-08-28T17:54:27Z</time>
  <course>5.64</course>
  <speed>0.51</speed>
  <fix>3d</fix>
</trkpt>
<trkpt lat="40.0717842" lon="-105.2297988">
  <ele>1582.98</ele>
  <time>2026-08-28T17:54:27Z</time>
  <course>6.88</course>
  <speed>0.4936598018878993</speed>
  <fix>3d</fix>
</trkpt>
<trkpt lat="40.0717838" lon="-105.229799">
  <ele>1583.0</ele>
  <time>2026-08-28T17:54:27Z</time>
  <course>5.66</course>
  <speed>0.51</speed>
  <fix>3d</fix>
</trkpt>
<trkpt lat="40.0717847" lon="-105.2297988">
  <ele>1582.98</ele>
  <time>2026-08-28T17:54:27Z</time>
  <course>6.88</course>
  <speed>0.4936598018878993</speed>
  <fix>3d</fix>
</trkpt>
<trkpt lat="40.0717838" lon="-105.229799">
  <ele>1583.0</ele>
  <time>2026-08-28T17:54:27Z</time>
  <course>5.66</course>
  <speed>0.51</speed>
  <fix>3d</fix>
</trkpt>
<trkpt lat="40.0717852" lon="-105.2297987">
  <ele>1582.98</ele>
  <time>2026-08-28T17:54:27Z</time>
  <course>6.9</course>
  <speed>0.4936598018878993</speed>
  <fix>3d</fix>
</trkpt>
<trkpt lat="40.0717847" lon="-105.2297989">
  <ele>1583.0</ele>
  <time>2026-08-28T17:54:27Z</time>
  <course>5.69</course>
  <speed>0.51</speed>
  <fix>3d</fix>
</trkpt>
<trkpt lat="40.0717856" lon="-105.2297987">
  <ele>1582.98</ele>
  <time>2026-08-28T17:54:27Z</time>
  <course>6.91</course>
  <speed>0.4936598018878993</speed>
  <fix>3d</fix>
</trkpt>
<trkpt lat="40.0717847" lon="-105.2297989">
  <ele>1583.0</ele>
  <time>2026-08-28T17:54:27Z</time>
  <course>5.69</course>
  <speed>0.51</speed>
  <fix>3d</fix>
</trkpt>
<trkpt lat="40.0717861" lon="-105.2297986">
  <ele>1582.98</ele>
  <time>2026-08-28T17:54:27Z</time>
  <course>6.92</course>
  <speed>0.4936598018878993</speed>
  <fix>3d</fix>
</trkpt>
<trkpt lat="40.0717847" lon="-105.2297989">
  <ele>1583.0</ele>
  <time>2026-08-28T17:54:27Z</time>
  <course>5.69</course>
  <speed>0.51</speed>
  <fix>3d</fix>
</trkpt>
<trkpt lat="40.0717865" lon="-105.2297985">
  <ele>1582.98</ele>
  <time>2026-08-28T17:54:27Z</time>
  <course>6.93</course>
  <speed>0.4936598018878993</speed>
  <fix>3d</fix>
</trkpt>
<trkpt lat="40.0717857" lon="-105.2297988">
  <ele>1583.0</ele>
  <time>2026-08-28T17:54:27Z</time>
  <course>5.71</course>
  <speed>0.51</speed>
  <fix>3d</fix>
</trkpt>
<trkpt lat="40.071787" lon="-105.2297985">
  <ele>1582.98</ele>
  <time>2026-08-28T17:54:27Z</time>
  <course>6.94</course>
  <speed>0.4936598018878993</speed>
  <fix>3d</fix>
</trkpt>
<trkpt lat="40.0717857" lon="-105.2297988">
  <ele>1583.0</ele>
  <time>2026-08-28T17:54:27Z</time>
  <course>5.71</course>
  <speed>0.51</speed>
  <fix>3d</fix>
</trkpt>
<trkpt lat="40.0717875" lon="-105.2297984">
  <ele>1582.98</ele>
  <time>2026-08-28T17:54:27Z</time>
  <course>6.96</course>
  <speed>0.4936598018878993</speed>
  <fix>3d</fix>
</trkpt>
<trkpt lat="40.0717866" lon="-105.2297987">
  <ele>1583.0</ele>
  <time>2026-08-28T17:54:27Z</time>
  <course>5.73</course>
  <speed>0.51</speed>
  <fix>3d</fix>
</trkpt>
<trkpt lat="40.0717879" lon="-105.2297983">
  <ele>1582.98</ele>
  <time>2026-08-28T17:54:27Z</time>
  <course>6.97</course>
  <speed>0.4936598018878993</speed>
  <fix>3d</fix>
</trkpt>
<trkpt lat="40.0717866" lon="-105.2297987">
  <ele>1583.0</ele>
  <time>2026-08-28T17:54:27Z</time>
  <course>5.73</course>
  <speed>0.51</speed>
  <fix>3d</fix>
</trkpt>
<trkpt lat="40.0717884" lon="-105.2297983">
  <ele>1582.98</ele>
  <time>2026-08-28T17:54:27Z</time>
  <course>6.98</course>
  <speed>0.4936598018878993</speed>
  <fix>3d</fix>
</trkpt>
<trkpt lat="40.0717875" lon="-105.2297986">
  <ele>1583.0</ele>
  <time>2026-08-28T17:54:27Z</time>
  <course>5.76</course>
  <speed>0.51</speed>
  <fix>3d</fix>
</trkpt>
<trkpt lat="40.0717888" lon="-105.2297982">
  <ele>1582.97</ele>
  <time>2026-08-28T17:54:27Z</time>
  <course>6.99</course>
  <speed>0.4936598018878993</speed>
  <fix>3d</fix>
</trkpt>
<trkpt lat="40.0717884" lon="-105.2297984">
  <ele>1583.0</ele>
  <time>2026-08-28T17:54:27Z</time>
  <course>5.78</course>
  <speed>0.51</speed>
  <fix>3d</fix>
</trkpt>
<trkpt lat="40.0717893" lon="-105.2297982">
  <ele>1582.97</ele>
  <time>2026-08-28T17:54:27Z</time>
  <course>7.0</course>
  <speed>0.4936598018878993</speed>
  <fix>3d</fix>
</trkpt>
<trkpt lat="40.0717884" lon="-105.2297984">
  <ele>1583.0</ele>
  <time>2026-08-28T17:54:27Z</time>
  <course>5.78</course>
  <speed>0.51</speed>
  <fix>3d</fix>
</trkpt>
<trkpt lat="40.0717898" lon="-105.2297981">
  <ele>1582.97</ele>
  <time>2026-08-28T17:54:27Z</time>
  <course>7.02</course>
  <speed>0.4936598018878993</speed>
  <fix>3d</fix>
</trkpt>
<trkpt lat="40.0717894" lon="-105.2297983">
  <ele>1583.0</ele>
  <time>2026-08-28T17:54:27Z</time>
  <course>5.81</course>
  <speed>0.51</speed>
  <fix>3d</fix>
</trkpt>
<trkpt lat="40.0717902" lon="-105.2297981">
  <ele>1582.97</ele>
  <time>2026-08-28T17:54:27Z</time>
  <course>7.03</course>
  <speed>0.4936598018878993</speed>
  <fix>3d</fix>
</trkpt>
<trkpt lat="40.0717894" lon="-105.2297983">
  <ele>1583.0</ele>
  <time>2026-08-28T17:54:27Z</time>
  <course>5.81</course>
  <speed>0.51</speed>
  <fix>3d</fix>
</trkpt>
<trkpt lat="40.0717907" lon="-105.229798">
  <ele>1582.97</ele>
  <time>2026-08-28T17:54:27Z</time>
  <course>7.04</course>
  <speed>0.4936598018878993</speed>
  <fix>3d</fix>
</trkpt>
<trkpt lat="40.0717903" lon="-105.2297982">
  <ele>1583.0</ele>
  <time>2026-08-28T17:54:27Z</time>
  <course>5.83</course>
  <speed>0.51</speed>
  <fix>3d</fix>
</trkpt>
<trkpt lat="40.0717912" lon="-105.2297979">
  <ele>1582.97</ele>
  <time>2026-08-28T17:54:27Z</time>
  <course>7.05</course>
  <speed>0.4936598018878993</speed>
  <fix>3d</fix>
</trkpt>
<trkpt lat="40.0717903" lon="-105.2297982">
  <ele>1583.0</ele>
  <time>2026-08-28T17:54:27Z</time>
  <course>5.83</course>
  <speed>0.51</speed>
  <fix>3d</fix>
</trkpt>
<trkpt lat="40.0717916" lon="-105.2297979">
  <ele>1582.97</ele>
  <time>2026-08-28T17:54:27Z</time>
  <course>7.07</course>
  <speed>0.4936598018878993</speed>
  <fix>3d</fix>
</trkpt>
<trkpt lat="40.0717912" lon="-105.229798">
  <ele>1583.0</ele>
  <time>2026-08-28T17:54:27Z</time>
  <course>5.86</course>
  <speed>0.51</speed>
  <fix>3d</fix>
</trkpt>
<trkpt lat="40.0717921" lon="-105.2297978">
  <ele>1582.97</ele>
  <time>2026-08-28T17:54:27Z</time>
  <course>7.08</course>
  <speed>0.4936598018878993</speed>
  <fix>3d</fix>
</trkpt>
<trkpt lat="40.0717912" lon="-105.229798">
  <ele>1583.0</ele>
  <time>2026-08-28T17:54:27Z</time>
  <course>5.86</course>
  <speed>0.51</speed>
  <fix>3d</fix>
</trkpt>
<trkpt lat="40.0717925" lon="-105.2297977">
  <ele>1582.97</ele>
  <time>2026-08-28T17:54:27Z</time>
  <course>7.1</course>
  <speed>0.4936598018878993</speed>
  <fix>3d</fix>
</trkpt>
<trkpt lat="40.0717922" lon="-105.2297979">
  <ele>1583.0</ele>
  <time>2026-08-28T17:54:27Z</time>
  <course>5.89</course>
  <speed>0.51</speed>
  <fix>3d</fix>
</trkpt>
<trkpt lat="40.071793" lon="-105.2297977">
  <ele>1582.98</ele>
  <time>2026-08-28T17:54:27Z</time>
  <course>7.11</course>
  <speed>0.4936598018878993</speed>
  <fix>3d</fix>
</trkpt>
<trkpt lat="40.0717922" lon="-105.2297979">
  <ele>1583.0</ele>
  <time>2026-08-28T17:54:27Z</time>
  <course>5.89</course>
  <speed>0.51</speed>
  <fix>3d</fix>
</trkpt>
<trkpt lat="40.0717935" lon="-105.2297976">
  <ele>1582.98</ele>
  <time>2026-08-28T17:54:27Z</time>
  <course>7.12</course>
  <speed>0.4936598018878993</speed>
  <fix>3d</fix>
</trkpt>
<trkpt lat="40.0717931" lon="-105.2297978">
  <ele>1583.0</ele>
  <time>2026-08-28T17:54:27Z</time>
  <course>5.92</course>
  <speed>0.51</speed>
  <fix>3d</fix>
</trkpt>
<trkpt lat="40.071794" lon="-105.2297975">
  <ele>1582.98</ele>
  <time>2026-08-28T17:54:27Z</time>
  <course>7.14</course>
  <speed>0.4936598018878993</speed>
  <fix>3d</fix>
</trkpt>
<trkpt lat="40.0717931" lon="-105.2297978">
  <ele>1583.0</ele>
  <time>2026-08-28T17:54:27Z</time>
  <course>5.92</course>
  <speed>0.51</speed>
  <fix>3d</fix>
</trkpt>
<trkpt lat="40.0717944" lon="-105.2297975">
  <ele>1582.98</ele>
  <time>2026-08-28T17:54:27Z</time>
  <course>7.15</course>
  <speed>0.4936598018878993</speed>
  <fix>3d</fix>
</trkpt>
<trkpt lat="40.071794" lon="-105.2297977">
  <ele>1583.0</ele>
  <time>2026-08-28T17:54:27Z</time>
  <course>5.95</course>
  <speed>0.51</speed>
  <fix>3d</fix>
</trkpt>
<trkpt lat="40.0717949" lon="-105.2297974">
  <ele>1582.99</ele>
  <time>2026-08-28T17:54:27Z</time>
  <course>7.17</course>
  <speed>0.4936598018878993</speed>
  <fix>3d</fix>
</trkpt>
<trkpt lat="40.071794" lon="-105.2297977">
  <ele>1583.0</ele>
  <time>2026-08-28T17:54:27Z</time>
  <course>5.95</course>
  <speed>0.51</speed>
  <fix>3d</fix>
</trkpt>
<trkpt lat="40.0717954" lon="-105.2297973">
  <ele>1582.99</ele>
  <time>2026-08-28T17:54:27Z</time>
  <course>7.19</course>
  <speed>0.4949747468305833</speed>
  <fix>3d</fix>
</trkpt>
<trkpt lat="40.071794" lon="-105.2297977">
  <ele>1583.0</ele>
  <time>2026-08-28T17:54:27Z</time>
  <course>5.95</course>
  <speed>0.51</speed>
  <fix>3d</fix>
</trkpt>
<trkpt lat="40.0717958" lon="-105.2297973">
  <ele>1583.0</ele>
  <time>2026-08-28T17:54:27Z</time>
  <course>7.2</course>
  <speed>0.4949747468305833</speed>
  <fix>3d</fix>
</trkpt>
<trkpt lat="40.0717949" lon="-105.2297975">
  <ele>1583.0</ele>
  <time>2026-08-28T17:54:27Z</time>
  <course>5.98</course>
  <speed>0.51</speed>
  <fix>3d</fix>
</trkpt>
<trkpt lat="40.0717963" lon="-105.2297972">
  <ele>1583.0</ele>
  <time>2026-08-28T17:54:27Z</time>
  <course>7.22</course>
  <speed>0.4949747468305833</speed>
  <fix>3d</fix>
</trkpt>
<trkpt lat="40.0717949" lon="-105.2297975">
  <ele>1583.0</ele>
  <time>2026-08-28T17:54:27Z</time>
  <course>5.98</course>
  <speed>0.51</speed>
  <fix>3d</fix>
</trkpt>
<trkpt lat="40.0717967" lon="-105.2297972">
  <ele>1583.0</ele>
  <time>2026-08-28T17:54:27Z</time>
  <course>7.23</course>
  <speed>0.4949747468305833</speed>
  <fix>3d</fix>
</trkpt>
<trkpt lat="40.0717959" lon="-105.2297974">
  <ele>1583.0</ele>
  <time>2026-08-28T17:54:27Z</time>
  <course>6.01</course>
  <speed>0.51</speed>
  <fix>3d</fix>
</trkpt>
<trkpt lat="40.0717972" lon="-105.2297971">
  <ele>1583.0</ele>
  <time>2026-08-28T17:54:27Z</time>
  <course>7.25</course>
  <speed>0.4949747468305833</speed>
  <fix>3d</fix>
</trkpt>
<trkpt lat="40.0717959" lon="-105.2297974">
  <ele>1583.0</ele>
  <time>2026-08-28T17:54:27Z</time>
  <course>6.01</course>
  <speed>0.51</speed>
  <fix>3d</fix>
</trkpt>
<trkpt lat="40.0717977" lon="-105.229797">
  <ele>1583.0</ele>
  <time>2026-08-28T17:54:27Z</time>
  <course>7.26</course>
  <speed>0.4949747468305833</speed>
  <fix>3d</fix>
</trkpt>
<trkpt lat="40.0717968" lon="-105.2297973">
  <ele>1583.0</ele>
  <time>2026-08-28T17:54:27Z</time>
  <course>6.05</course>
  <speed>0.51</speed>
  <fix>3d</fix>
</trkpt>
<trkpt lat="40.0717981" lon="-105.229797">
  <ele>1583.0</ele>
  <time>2026-08-28T17:54:27Z</time>
  <course>7.28</course>
  <speed>0.4949747468305833</speed>
  <fix>3d</fix>
</trkpt>
<trkpt lat="40.0717968" lon="-105.2297973">
  <ele>1583.0</ele>
  <time>2026-08-28T17:54:27Z</time>
  <course>6.05</course>
  <speed>0.51</speed>
  <fix>3d</fix>
</trkpt>
<trkpt lat="40.0717986" lon="-105.2297969">
  <ele>1583.0</ele>
  <time>2026-08-28T17:54:27Z</time>
  <course>7.3</course>
  <speed>0.4949747468305833</speed>
  <fix>3d</fix>
</trkpt>
<trkpt lat="40.0717977" lon="-105.2297972">
  <ele>1583.0</ele>
  <time>2026-08-28T17:54:27Z</time>
  <course>6.08</course>
  <speed>0.51</speed>
  <fix>3d</fix>
</trkpt>
<trkpt lat="40.071799" lon="-105.2297968">
  <ele>1582.99</ele>
  <time>2026-08-28T17:54:27Z</time>
  <course>7.31</course>
  <speed>0.4949747468305833</speed>
  <fix>3d</fix>
</trkpt>
<trkpt lat="40.0717986" lon="-105.229797">
  <ele>1583.0</ele>
  <time>2026-08-28T17:54:27Z</time>
  <course>6.11</course>
  <speed>0.51</speed>
  <fix>3d</fix>
</trkpt>
<trkpt lat="40.0717995" lon="-105.2297968">
  <ele>1582.99</ele>
  <time>2026-08-28T17:54:27Z</time>
  <course>7.33</course>
  <speed>0.4949747468305833</speed>
  <fix>3d</fix>
</trkpt>
<trkpt lat="40.0717986" lon="-105.229797">
  <ele>1583.0</ele>
  <time>2026-08-28T17:54:27Z</time>
  <course>6.11</course>
  <speed>0.51</speed>
  <fix>3d</fix>
</trkpt>
<trkpt lat="40.0717999" lon="-105.2297967">
  <ele>1582.99</ele>
  <time>2026-08-28T17:54:27Z</time>
  <course>7.35</course>
  <speed>0.4949747468305833</speed>
  <fix>3d</fix>
</trkpt>
<trkpt lat="40.0717996" lon="-105.2297969">
  <ele>1583.0</ele>
  <time>2026-08-28T17:54:27Z</time>
  <course>6.15</course>
  <speed>0.51</speed>
  <fix>3d</fix>
</trkpt>
<trkpt lat="40.0718004" lon="-105.2297966">
  <ele>1582.99</ele>
  <time>2026-08-28T17:54:27Z</time>
  <course>7.36</course>
  <speed>0.4949747468305833</speed>
  <fix>3d</fix>
</trkpt>
<trkpt lat="40.0717996" lon="-105.2297969">
  <ele>1583.0</ele>
  <time>2026-08-28T17:54:27Z</time>
  <course>6.15</course>
  <speed>0.51</speed>
  <fix>3d</fix>
</trkpt>
<trkpt lat="40.0718009" lon="-105.2297966">
  <ele>1582.99</ele>
  <time>2026-08-28T17:54:27Z</time>
  <course>7.37</course>
  <speed>0.4949747468305833</speed>
  <fix>3d</fix>
</trkpt>
<trkpt lat="40.0718005" lon="-105.2297968">
  <ele>1583.0</ele>
  <time>2026-08-28T17:54:27Z</time>
  <course>6.18</course>
  <speed>0.51</speed>
  <fix>3d</fix>
</trkpt>
<trkpt lat="40.0718013" lon="-105.2297965">
  <ele>1582.99</ele>
  <time>2026-08-28T17:54:27Z</time>
  <course>7.39</course>
  <speed>0.4949747468305833</speed>
  <fix>3d</fix>
</trkpt>
<trkpt lat="40.0718005" lon="-105.2297968">
  <ele>1583.0</ele>
  <time>2026-08-28T17:54:27Z</time>
  <course>6.18</course>
  <speed>0.51</speed>
  <fix>3d</fix>
</trkpt>
<trkpt lat="40.0718018" lon="-105.2297964">
  <ele>1582.99</ele>
  <time>2026-08-28T17:54:27Z</time>
  <course>7.41</course>
  <speed>0.4949747468305833</speed>
  <fix>3d</fix>
</trkpt>
<trkpt lat="40.0718014" lon="-105.2297967">
  <ele>1583.0</ele>
  <time>2026-08-28T17:54:27Z</time>
  <course>6.21</course>
  <speed>0.51</speed>
  <fix>3d</fix>
</trkpt>
<trkpt lat="40.0718023" lon="-105.2297964">
  <ele>1583.0</ele>
  <time>2026-08-28T17:54:27Z</time>
  <course>7.42</course>
  <speed>0.4949747468305833</speed>
  <fix>3d</fix>
</trkpt>
<trkpt lat="40.0718014" lon="-105.2297967">
  <ele>1583.0</ele>
  <time>2026-08-28T17:54:27Z</time>
  <course>6.21</course>
  <speed>0.51</speed>
  <fix>3d</fix>
</trkpt>
<trkpt lat="40.0718027" lon="-105.2297963">
  <ele>1583.0</ele>
  <time>2026-08-28T17:54:27Z</time>
  <course>7.44</course>
  <speed>0.4949747468305833</speed>
  <fix>3d</fix>
</trkpt>
<trkpt lat="40.0718023" lon="-105.2297965">
  <ele>1583.0</ele>
  <time>2026-08-28T17:54:27Z</time>
  <course>6.24</course>
  <speed>0.51</speed>
  <fix>3d</fix>
</trkpt>
<trkpt lat="40.0718032" lon="-105.2297963">
  <ele>1583.0</ele>
  <time>2026-08-28T17:54:27Z</time>
  <course>7.46</course>
  <speed>0.4850773134253961</speed>
  <fix>3d</fix>
</trkpt>
<trkpt lat="40.0718023" lon="-105.2297965">
  <ele>1583.0</ele>
  <time>2026-08-28T17:54:27Z</time>
  <course>6.24</course>
  <speed>0.51</speed>
  <fix>3d</fix>
</trkpt>
<trkpt lat="40.0718037" lon="-105.2297962">
  <ele>1583.0</ele>
  <time>2026-08-28T17:54:27Z</time>
  <course>7.47</course>
  <speed>0.4850773134253961</speed>
  <fix>3d</fix>
</trkpt>
<trkpt lat="40.0718033" lon="-105.2297964">
  <ele>1583.0</ele>
  <time>2026-08-28T17:54:27Z</time>
  <course>6.28</course>
  <speed>0.51</speed>
  <fix>3d</fix>
</trkpt>
<trkpt lat="40.0718041" lon="-105.2297961">
  <ele>1583.0</ele>
  <time>2026-08-28T17:54:27Z</time>
  <course>7.49</course>
  <speed>0.4738143096192854</speed>
  <fix>3d</fix>
</trkpt>
<trkpt lat="40.0718033" lon="-105.2297964">
  <ele>1583.0</ele>
  <time>2026-08-28T17:54:27Z</time>
  <course>6.28</course>
  <speed>0.51</speed>
  <fix>3d</fix>
</trkpt>
<trkpt lat="40.0718045" lon="-105.2297961">
  <ele>1583.0</ele>
  <time>2026-08-28T17:54:27Z</time>
  <course>7.51</course>
  <speed>0.46389654018972803</speed>
  <fix>3d</fix>
</trkpt>
<trkpt lat="40.0718042" lon="-105.2297963">
  <ele>1583.0</ele>
  <time>2026-08-28T17:54:27Z</time>
  <course>6.31</course>
  <speed>0.49</speed>
  <fix>3d</fix>
</trkpt>
<trkpt lat="40.071805" lon="-105.229796">
  <ele>1583.0</ele>
  <time>2026-08-28T17:54:27Z</time>
  <course>7.52</course>
  <speed>0.45398237851264667</speed>
  <fix>3d</fix>
</trkpt>
<trkpt lat="40.0718042" lon="-105.2297963">
  <ele>1583.0</ele>
  <time>2026-08-28T17:54:27Z</time>
  <course>6.31</course>
  <speed>0.49</speed>
  <fix>3d</fix>
</trkpt>
<trkpt lat="40.0718054" lon="-105.2297959">
  <ele>1583.0</ele>
  <time>2026-08-28T17:54:27Z</time>
  <course>7.54</course>
  <speed>0.4440720662234904</speed>
  <fix>3d</fix>
</trkpt>
<trkpt lat="40.0718042" lon="-105.2297963">
  <ele>1583.0</ele>
  <time>2026-08-28T17:54:27Z</time>
  <course>6.31</course>
  <speed>0.49</speed>
  <fix>3d</fix>
</trkpt>
<trkpt lat="40.0718058" lon="-105.2297959">
  <ele>1583.0</ele>
  <time>2026-08-28T17:54:27Z</time>
  <course>7.55</course>
  <speed>0.4341658669218482</speed>
  <fix>3d</fix>
</trkpt>
<trkpt lat="40.0718051" lon="-105.2297961">
  <ele>1583.0</ele>
  <time>2026-08-28T17:54:27Z</time>
  <course>6.34</course>
  <speed>0.48</speed>
  <fix>3d</fix>
</trkpt>
<trkpt lat="40.0718062" lon="-105.2297958">
  <ele>1583.0</ele>
  <time>2026-08-28T17:54:27Z</time>
  <course>7.57</course>
  <speed>0.4242640687119285</speed>
  <fix>3d</fix>
</trkpt>
<trkpt lat="40.0718051" lon="-105.2297961">
  <ele>1583.0</ele>
  <time>2026-08-28T17:54:27Z</time>
  <course>6.34</course>
  <speed>0.48</speed>
  <fix>3d</fix>
</trkpt>
<trkpt lat="40.0718066" lon="-105.2297958">
  <ele>1583.0</ele>
  <time>2026-08-28T17:54:27Z</time>
  <course>7.59</course>
  <speed>0.4143669871020132</speed>
  <fix>3d</fix>
</trkpt>
<trkpt lat="40.0718059" lon="-105.229796">
  <ele>1583.0</ele>
  <time>2026-08-28T17:54:27Z</time>
  <course>6.38</course>
  <speed>0.46</speed>
  <fix>3d</fix>
</trkpt>
<trkpt lat="40.071807" lon="-105.2297957">
  <ele>1583.01</ele>
  <time>2026-08-28T17:54:27Z</time>
  <course>7.6</course>
  <speed>0.4044749683231337</speed>
  <fix>3d</fix>
</trkpt>
<trkpt lat="40.0718059" lon="-105.229796">
  <ele>1583.0</ele>
  <time>2026-08-28T17:54:27Z</time>
  <course>6.38</course>
  <speed>0.46</speed>
  <fix>3d</fix>
</trkpt>
<trkpt lat="40.0718074" lon="-105.2297957">
  <ele>1583.0</ele>
  <time>2026-08-28T17:54:27Z</time>
  <course>7.61</course>
  <speed>0.39319206502675</speed>
  <fix>3d</fix>
</trkpt>
<trkpt lat="40.0718066" lon="-105.2297959">
  <ele>1583.0</ele>
  <time>2026-08-28T17:54:27Z</time>
  <course>6.41</course>
  <speed>0.43</speed>
  <fix>3d</fix>
</trkpt>
<trkpt lat="40.0718077" lon="-105.2297956">
  <ele>1583.0</ele>
  <time>2026-08-28T17:54:27Z</time>
  <course>7.63</course>
  <speed>0.37336309405188944</speed>
  <fix>3d</fix>
</trkpt>
<trkpt lat="40.0718075" lon="-105.2297958">
  <ele>1583.0</ele>
  <time>2026-08-28T17:54:27Z</time>
  <course>6.44</course>
  <speed>0.41</speed>
  <fix>3d</fix>
</trkpt>
<trkpt lat="40.0718081" lon="-105.2297956">
  <ele>1583.0</ele>
  <time>2026-08-28T17:54:27Z</time>
  <course>7.64</course>
  <speed>0.3634556369077249</speed>
  <fix>3d</fix>
</trkpt>
<trkpt lat="40.0718075" lon="-105.2297958">
  <ele>1583.0</ele>
  <time>2026-08-28T17:54:27Z</time>
  <course>6.44</course>
  <speed>0.41</speed>
  <fix>3d</fix>
</trkpt>
<trkpt lat="40.0718084" lon="-105.2297955">
  <ele>1583.0</ele>
  <time>2026-08-28T17:54:27Z</time>
  <course>7.65</course>
  <speed>0.3535533905932738</speed>
  <fix>3d</fix>
</trkpt>
<trkpt lat="40.0718082" lon="-105.2297957">
  <ele>1583.0</ele>
  <time>2026-08-28T17:54:27Z</time>
  <course>6.46</course>
  <speed>0.39</speed>
  <fix>3d</fix>
</trkpt>
<trkpt lat="40.0718088" lon="-105.2297955">
  <ele>1583.0</ele>
  <time>2026-08-28T17:54:27Z</time>
  <course>7.67</course>
  <speed>0.34365680554879163</speed>
  <fix>3d</fix>
</trkpt>
<trkpt lat="40.0718082" lon="-105.2297957">
  <ele>1583.0</ele>
  <time>2026-08-28T17:54:27Z</time>
  <course>6.46</course>
  <speed>0.39</speed>
  <fix>3d</fix>
</trkpt>
<trkpt lat="40.0718091" lon="-105.2297954">
  <ele>1583.0</ele>
  <time>2026-08-28T17:54:27Z</time>
  <course>7.68</course>
  <speed>0.33376638536557274</speed>
  <fix>3d</fix>
</trkpt>
<trkpt lat="40.0718088" lon="-105.2297956">
  <ele>1583.0</ele>
  <time>2026-08-28T17:54:27Z</time>
  <course>6.49</course>
  <speed>0.37</speed>
  <fix>3d</fix>
</trkpt>
<trkpt lat="40.0718094" lon="-105.2297954">
  <ele>1583.0</ele>
  <time>2026-08-28T17:54:27Z</time>
  <course>7.69</course>
  <speed>0.3238826948140329</speed>
  <fix>3d</fix>
</trkpt>
<trkpt lat="40.0718088" lon="-105.2297956">
  <ele>1583.0</ele>
  <time>2026-08-28T17:54:27Z</time>
  <course>6.49</course>
  <speed>0.37</speed>
  <fix>3d</fix>
</trkpt>
<trkpt lat="40.0718097" lon="-105.2297953">
  <ele>1582.99</ele>
  <time>2026-08-28T17:54:27Z</time>
  <course>7.7</course>
  <speed>0.31400636936215165</speed>
  <fix>3d</fix>
</trkpt>
<trkpt lat="40.0718095" lon="-105.2297955">
  <ele>1583.0</ele>
  <time>2026-08-28T17:54:27Z</time>
  <course>6.52</course>
  <speed>0.35</speed>
  <fix>3d</fix>
</trkpt>
<trkpt lat="40.07181" lon="-105.2297953">
  <ele>1582.99</ele>
  <time>2026-08-28T17:54:27Z</time>
  <course>7.71</course>
  <speed>0.3026549190084311</speed>
  <fix>3d</fix>
</trkpt>
<trkpt lat="40.0718095" lon="-105.2297955">
  <ele>1583.0</ele>
  <time>2026-08-28T17:54:27Z</time>
  <course>6.52</course>
  <speed>0.35</speed>
  <fix>3d</fix>
</trkpt>
<trkpt lat="40.0718103" lon="-105.2297952">
  <ele>1582.99</ele>
  <time>2026-08-28T17:54:27Z</time>
  <course>7.72</course>
  <speed>0.29274562336608895</speed>
  <fix>3d</fix>
</trkpt>
<trkpt lat="40.07181" lon="-105.2297954">
  <ele>1583.0</ele>
  <time>2026-08-28T17:54:27Z</time>
  <course>6.54</course>
  <speed>0.33</speed>
  <fix>3d</fix>
</trkpt>
<trkpt lat="40.0718106" lon="-105.2297952">
  <ele>1582.99</ele>
  <time>2026-08-28T17:54:27Z</time>
  <course>7.73</course>
  <speed>0.282842712474619</speed>
  <fix>3d</fix>
</trkpt>
<trkpt lat="40.07181" lon="-105.2297954">
  <ele>1583.0</ele>
  <time>2026-08-28T17:54:27Z</time>
  <course>6.54</course>
  <speed>0.33</speed>
  <fix>3d</fix>
</trkpt>
<trkpt lat="40.0718108" lon="-105.2297952">
  <ele>1582.98</ele>
  <time>2026-08-28T17:54:27Z</time>
  <course>7.74</course>
  <speed>0.27294688127912364</speed>
  <fix>3d</fix>
</trkpt>
<trkpt lat="40.0718107" lon="-105.2297953">
  <ele>1583.0</ele>
  <time>2026-08-28T17:54:27Z</time>
  <course>6.56</course>
  <speed>0.31</speed>
  <fix>3d</fix>
</trkpt>
<trkpt lat="40.0718111" lon="-105.2297951">
  <ele>1582.98</ele>
  <time>2026-08-28T17:54:27Z</time>
  <course>7.75</course>
  <speed>0.27294688127912364</speed>
  <fix>3d</fix>
</trkpt>
<trkpt lat="40.0718107" lon="-105.2297953">
  <ele>1583.0</ele>
  <time>2026-08-28T17:54:27Z</time>
  <course>6.56</course>
  <speed>0.31</speed>
  <fix>3d</fix>
</trkpt>
<trkpt lat="40.0718113" lon="-105.2297951">
  <ele>1582.99</ele>
  <time>2026-08-28T17:54:27Z</time>
  <course>7.76</course>
  <speed>0.26305892875931813</speed>
  <fix>3d</fix>
</trkpt>
<trkpt lat="40.0718112" lon="-105.2297952">
  <ele>1583.0</ele>
  <time>2026-08-28T17:54:27Z</time>
  <course>6.58</course>
  <speed>0.29</speed>
  <fix>3d</fix>
</trkpt>
<trkpt lat="40.0718116" lon="-105.2297951">
  <ele>1582.99</ele>
  <time>2026-08-28T17:54:27Z</time>
  <course>7.77</course>
  <speed>0.25317977802344327</speed>
  <fix>3d</fix>
</trkpt>
<trkpt lat="40.0718112" lon="-105.2297952">
  <ele>1583.0</ele>
  <time>2026-08-28T17:54:27Z</time>
  <course>6.58</course>
  <speed>0.29</speed>
  <fix>3d</fix>
</trkpt>
<trkpt lat="40.0718118" lon="-105.229795">
  <ele>1582.99</ele>
  <time>2026-08-28T17:54:27Z</time>
  <course>7.78</course>
  <speed>0.25317977802344327</speed>
  <fix>3d</fix>
</trkpt>
<trkpt lat="40.0718112" lon="-105.2297952">
  <ele>1583.0</ele>
  <time>2026-08-28T17:54:27Z</time>
  <course>6.58</course>
  <speed>0.29</speed>
  <fix>3d</fix>
</trkpt>
<trkpt lat="40.0718121" lon="-105.229795">
  <ele>1582.99</ele>
  <time>2026-08-28T17:54:27Z</time>
  <course>7.79</course>
  <speed>0.24331050121192876</speed>
  <fix>3d</fix>
</trkpt>
<trkpt lat="40.0718117" lon="-105.2297951">
  <ele>1583.0</ele>
  <time>2026-08-28T17:54:27Z</time>
  <course>6.6</course>
  <speed>0.28</speed>
  <fix>3d</fix>
</trkpt>
<trkpt lat="40.0718123" lon="-105.2297949">
  <ele>1582.99</ele>
  <time>2026-08-28T17:54:27Z</time>
  <course>7.79</course>
  <speed>0.23345235059857505</speed>
  <fix>3d</fix>
</trkpt>
<trkpt lat="40.0718117" lon="-105.2297951">
  <ele>1583.0</ele>
  <time>2026-08-28T17:54:27Z</time>
  <course>6.6</course>
  <speed>0.28</speed>
  <fix>3d</fix>
</trkpt>
<trkpt lat="40.0718126" lon="-105.2297949">
  <ele>1582.99</ele>
  <time>2026-08-28T17:54:27Z</time>
  <course>7.8</course>
  <speed>0.23345235059857505</speed>
  <fix>3d</fix>
</trkpt>
<trkpt lat="40.0718122" lon="-105.229795">
  <ele>1583.0</ele>
  <time>2026-08-28T17:54:27Z</time>
  <course>6.62</course>
  <speed>0.27</speed>
  <fix>3d</fix>
</trkpt>
<trkpt lat="40.0718128" lon="-105.2297949">
  <ele>1582.99</ele>
  <time>2026-08-28T17:54:27Z</time>
  <course>7.81</course>
  <speed>0.223606797749979</speed>
  <fix>3d</fix>
</trkpt>
<trkpt lat="40.0718122" lon="-105.229795">
  <ele>1583.0</ele>
  <time>2026-08-28T17:54:27Z</time>
  <course>6.62</course>
  <speed>0.27</speed>
  <fix>3d</fix>
</trkpt>
<trkpt lat="40.071813" lon="-105.2297948">
  <ele>1582.99</ele>
  <time>2026-08-28T17:54:27Z</time>
  <course>7.82</course>
  <speed>0.223606797749979</speed>
  <fix>3d</fix>
</trkpt>
<trkpt lat="40.0718127" lon="-105.229795">
  <ele>1583.0</ele>
  <time>2026-08-28T17:54:27Z</time>
  <course>6.63</course>
  <speed>0.26</speed>
  <fix>3d</fix>
</trkpt>
<trkpt lat="40.0718132" lon="-105.2297948">
  <ele>1582.99</ele>
  <time>2026-08-28T17:54:27Z</time>
  <course>7.82</course>
  <speed>0.21377558326431947</speed>
  <fix>3d</fix>
</trkpt>
<trkpt lat="40.0718127" lon="-105.229795">
  <ele>1583.0</ele>
  <time>2026-08-28T17:54:27Z</time>
  <course>6.63</course>
  <speed>0.26</speed>
  <fix>3d</fix>
</trkpt>
<trkpt lat="40.0718134" lon="-105.2297947">
  <ele>1582.98</ele>
  <time>2026-08-28T17:54:27Z</time>
  <course>7.83</course>
  <speed>0.21377558326431947</speed>
  <fix>3d</fix>
</trkpt>
<trkpt lat="40.0718131" lon="-105.2297949">
  <ele>1583.0</ele>
  <time>2026-08-28T17:54:27Z</time>
  <course>6.65</course>
  <speed>0.25</speed>
  <fix>3d</fix>
</trkpt>
<trkpt lat="40.0718136" lon="-105.2297947">
  <ele>1582.98</ele>
  <time>2026-08-28T17:54:27Z</time>
  <course>7.84</course>
  <speed>0.2039607805437114</speed>
  <fix>3d</fix>
</trkpt>
<trkpt lat="40.0718136" lon="-105.2297949">
  <ele>1583.0</ele>
  <time>2026-08-28T17:54:27Z</time>
  <course>6.66</course>
  <speed>0.24</speed>
  <fix>3d</fix>
</trkpt>
<trkpt lat="40.0718138" lon="-105.2297947">
  <ele>1582.99</ele>
  <time>2026-08-28T17:54:27Z</time>
  <course>7.84</course>
  <speed>0.2039607805437114</speed>
  <fix>3d</fix>
</trkpt>
<trkpt lat="40.0718136" lon="-105.2297949">
  <ele>1583.0</ele>
  <time>2026-08-28T17:54:27Z</time>
  <course>6.66</course>
  <speed>0.24</speed>
  <fix>3d</fix>
</trkpt>
<trkpt lat="40.071814" lon="-105.2297947">
  <ele>1582.99</ele>
  <time>2026-08-28T17:54:27Z</time>
  <course>7.85</course>
  <speed>0.2039607805437114</speed>
  <fix>3d</fix>
</trkpt>
<trkpt lat="40.0718141" lon="-105.2297948">
  <ele>1583.0</ele>
  <time>2026-08-28T17:54:27Z</time>
  <course>6.67</course>
  <speed>0.23</speed>
  <fix>3d</fix>
</trkpt>
<trkpt lat="40.0718142" lon="-105.2297946">
  <ele>1582.99</ele>
  <time>2026-08-28T17:54:27Z</time>
  <course>7.85</course>
  <speed>0.194164878389476</speed>
  <fix>3d</fix>
</trkpt>
<trkpt lat="40.0718141" lon="-105.2297948">
  <ele>1583.0</ele>
  <time>2026-08-28T17:54:27Z</time>
  <course>6.67</course>
  <speed>0.23</speed>
  <fix>3d</fix>
</trkpt>
<trkpt lat="40.0718144" lon="-105.2297946">
  <ele>1582.99</ele>
  <time>2026-08-28T17:54:27Z</time>
  <course>7.86</course>
  <speed>0.19235384061671343</speed>
  <fix>3d</fix>
</trkpt>
<trkpt lat="40.0718145" lon="-105.2297947">
  <ele>1583.0</ele>
  <time>2026-08-28T17:54:27Z</time>
  <course>6.68</course>
  <speed>0.22</speed>
  <fix>3d</fix>
</trkpt>
<trkpt lat="40.0718146" lon="-105.2297946">
  <ele>1582.99</ele>
  <time>2026-08-28T17:54:27Z</time>
  <course>7.86</course>
  <speed>0.1824828759089466</speed>
  <fix>3d</fix>
</trkpt>
<trkpt lat="40.0718145" lon="-105.2297947">
  <ele>1583.0</ele>
  <time>2026-08-28T17:54:27Z</time>
  <course>6.68</course>
  <speed>0.22</speed>
  <fix>3d</fix>
</trkpt>
<trkpt lat="40.0718148" lon="-105.2297945">
  <ele>1582.99</ele>
  <time>2026-08-28T17:54:27Z</time>
  <course>7.87</course>
  <speed>0.1824828759089466</speed>
  <fix>3d</fix>
</trkpt>
<trkpt lat="40.0718148" lon="-105.2297947">
  <ele>1583.0</ele>
  <time>2026-08-28T17:54:27Z</time>
  <course>6.69</course>
  <speed>0.21</speed>
  <fix>3d</fix>
</trkpt>
<trkpt lat="40.071815" lon="-105.2297945">
  <ele>1582.99</ele>
  <time>2026-08-28T17:54:27Z</time>
  <course>7.87</course>
  <speed>0.17262676501632068</speed>
  <fix>3d</fix>
</trkpt>
<trkpt lat="40.0718148" lon="-105.2297947">
  <ele>1583.0</ele>
  <time>2026-08-28T17:54:27Z</time>
  <course>6.69</course>
  <speed>0.21</speed>
  <fix>3d</fix>
</trkpt>
<trkpt lat="40.0718152" lon="-105.2297945">
  <ele>1582.99</ele>
  <time>2026-08-28T17:54:27Z</time>
  <course>7.88</course>
  <speed>0.17262676501632068</speed>
  <fix>3d</fix>
</trkpt>
<trkpt lat="40.0718152" lon="-105.2297946">
  <ele>1583.0</ele>
  <time>2026-08-28T17:54:27Z</time>
  <course>6.7</course>
  <speed>0.2</speed>
  <fix>3d</fix>
</trkpt>
<trkpt lat="40.0718154" lon="-105.2297944">
  <ele>1582.99</ele>
  <time>2026-08-28T17:54:27Z</time>
  <course>7.88</course>
  <speed>0.17262676501632068</speed>
  <fix>3d</fix>
</trkpt>
<trkpt lat="40.0718152" lon="-105.2297946">
  <ele>1583.0</ele>
  <time>2026-08-28T17:54:27Z</time>
  <course>6.7</course>
  <speed>0.2</speed>
  <fix>3d</fix>
</trkpt>
<trkpt lat="40.0718156" lon="-105.2297944">
  <ele>1582.98</ele>
  <time>2026-08-28T17:54:27Z</time>
  <course>7.88</course>
  <speed>0.16278820596099705</speed>
  <fix>3d</fix>
</trkpt>
<trkpt lat="40.0718155" lon="-105.2297945">
  <ele>1583.0</ele>
  <time>2026-08-28T17:54:27Z</time>
  <course>6.71</course>
  <speed>0.19</speed>
  <fix>3d</fix>
</trkpt>
<trkpt lat="40.0718157" lon="-105.2297944">
  <ele>1582.98</ele>
  <time>2026-08-28T17:54:27Z</time>
  <course>7.89</course>
  <speed>0.16278820596099705</speed>
  <fix>3d</fix>
</trkpt>
<trkpt lat="40.0718155" lon="-105.2297945">
  <ele>1583.0</ele>
  <time>2026-08-28T17:54:27Z</time>
  <course>6.71</course>
  <speed>0.19</speed>
  <fix>3d</fix>
</trkpt>
<trkpt lat="40.0718159" lon="-105.2297944">
  <ele>1582.98</ele>
  <time>2026-08-28T17:54:27Z</time>
  <course>7.89</course>
  <speed>0.16278820596099705</speed>
  <fix>3d</fix>
</trkpt>
<trkpt lat="40.0718159" lon="-105.2297945">
  <ele>1583.0</ele>
  <time>2026-08-28T17:54:27Z</time>
  <course>6.72</course>
  <speed>0.19</speed>
  <fix>3d</fix>
</trkpt>
<trkpt lat="40.0718161" lon="-105.2297943">
  <ele>1582.98</ele>
  <time>2026-08-28T17:54:27Z</time>
  <course>7.89</course>
  <speed>0.15297058540778355</speed>
  <fix>3d</fix>
</trkpt>
<trkpt lat="40.0718159" lon="-105.2297945">
  <ele>1583.0</ele>
  <time>2026-08-28T17:54:27Z</time>
  <course>6.72</course>
  <speed>0.19</speed>
  <fix>3d</fix>
</trkpt>
<trkpt lat="40.0718162" lon="-105.2297943">
  <ele>1582.98</ele>
  <time>2026-08-28T17:54:27Z</time>
  <course>7.89</course>
  <speed>0.15297058540778355</speed>
  <fix>3d</fix>
</trkpt>
<trkpt lat="40.0718159" lon="-105.2297945">
  <ele>1583.0</ele>
  <time>2026-08-28T17:54:27Z</time>
  <course>6.72</course>
  <speed>0.19</speed>
  <fix>3d</fix>
</trkpt>
<trkpt lat="40.0718164" lon="-105.2297943">
  <ele>1582.98</ele>
  <time>2026-08-28T17:54:27Z</time>
  <course>7.9</course>
  <speed>0.15297058540778355</speed>
  <fix>3d</fix>
</trkpt>
<trkpt lat="40.0718162" lon="-105.2297945">
  <ele>1583.0</ele>
  <time>2026-08-28T17:54:27Z</time>
  <course>6.72</course>
  <speed>0.18</speed>
  <fix>3d</fix>
</trkpt>
<trkpt lat="40.0718165" lon="-105.2297943">
  <ele>1582.99</ele>
  <time>2026-08-28T17:54:27Z</time>
  <course>7.9</course>
  <speed>0.14317821063276354</speed>
  <fix>3d</fix>
</trkpt>
<trkpt lat="40.0718162" lon="-105.2297945">
  <ele>1583.0</ele>
  <time>2026-08-28T17:54:27Z</time>
  <course>6.72</course>
  <speed>0.18</speed>
  <fix>3d</fix>
</trkpt>
<trkpt lat="40.0718167" lon="-105.2297942">
  <ele>1582.99</ele>
  <time>2026-08-28T17:54:28Z</time>
  <course>7.9</course>
  <speed>0.14317821063276354</speed>
  <fix>3d</fix>
</trkpt>
<trkpt lat="40.0718166" lon="-105.2297944">
  <ele>1583.0</ele>
  <time>2026-08-28T17:54:28Z</time>
  <course>6.73</course>
  <speed>0.17</speed>
  <fix>3d</fix>
</trkpt>
<trkpt lat="40.0718168" lon="-105.2297942">
  <ele>1582.99</ele>
  <time>2026-08-28T17:54:28Z</time>
  <course>7.9</course>
  <speed>0.14317821063276354</speed>
  <fix>3d</fix>
</trkpt>
<trkpt lat="40.0718166" lon="-105.2297944">
  <ele>1583.0</ele>
  <time>2026-08-28T17:54:28Z</time>
  <course>6.73</course>
  <speed>0.17</speed>
  <fix>3d</fix>
</trkpt>
<trkpt lat="40.071817" lon="-105.2297942">
  <ele>1583.0</ele>
  <time>2026-08-28T17:54:28Z</time>
  <course>7.9</course>
  <speed>0.13341664064126335</speed>
  <fix>3d</fix>
</trkpt>
<trkpt lat="40.0718169" lon="-105.2297943">
  <ele>1583.0</ele>
  <time>2026-08-28T17:54:28Z</time>
  <course>6.74</course>
  <speed>0.17</speed>
  <fix>3d</fix>
</trkpt>
<trkpt lat="40.0718171" lon="-105.2297942">
  <ele>1583.0</ele>
  <time>2026-08-28T17:54:28Z</time>
  <course>7.9</course>
  <speed>0.12369316876852982</speed>
  <fix>3d</fix>
</trkpt>
<trkpt lat="40.0718172" lon="-105.2297943">
  <ele>1583.0</ele>
  <time>2026-08-28T17:54:28Z</time>
  <course>6.74</course>
  <speed>0.16</speed>
  <fix>3d</fix>
</trkpt>
<trkpt lat="40.0718173" lon="-105.2297941">
  <ele>1583.0</ele>
  <time>2026-08-28T17:54:28Z</time>
  <course>7.9</course>
  <speed>0.12369316876852982</speed>
  <fix>3d</fix>
</trkpt>
<trkpt lat="40.0718172" lon="-105.2297943">
  <ele>1583.0</ele>
  <time>2026-08-28T17:54:28Z</time>
  <course>6.74</course>
  <speed>0.16</speed>
  <fix>3d</fix>
</trkpt>
<trkpt lat="40.0718174" lon="-105.2297941">
  <ele>1583.0</ele>
  <time>2026-08-28T17:54:28Z</time>
  <course>7.9</course>
  <speed>0.11401754250991379</speed>
  <fix>3d</fix>
</trkpt>
<trkpt lat="40.0718175" lon="-105.2297943">
  <ele>1583.0</ele>
  <time>2026-08-28T17:54:28Z</time>
  <course>6.74</course>
  <speed>0.14</speed>
  <fix>3d</fix>
</trkpt>
<trkpt lat="40.0718175" lon="-105.2297941">
  <ele>1583.0</ele>
  <time>2026-08-28T17:54:28Z</time>
  <course>7.9</course>
  <speed>0.1044030650891055</speed>
  <fix>3d</fix>
</trkpt>
<trkpt lat="40.0718175" lon="-105.2297943">
  <ele>1583.0</ele>
  <time>2026-08-28T17:54:28Z</time>
  <course>6.74</course>
  <speed>0.14</speed>
  <fix>3d</fix>
</trkpt>
<trkpt lat="40.0718176" lon="-105.2297941">
  <ele>1583.0</ele>
  <time>2026-08-28T17:54:28Z</time>
  <course>7.9</course>
  <speed>0.1044030650891055</speed>
  <fix>3d</fix>
</trkpt>
<trkpt lat="40.0718178" lon="-105.2297942">
  <ele>1583.0</ele>
  <time>2026-08-28T17:54:28Z</time>
  <course>6.74</course>
  <speed>0.13</speed>
  <fix>3d</fix>
</trkpt>
<trkpt lat="40.0718177" lon="-105.2297941">
  <ele>1583.0</ele>
  <time>2026-08-28T17:54:28Z</time>
  <course>7.9</course>
  <speed>0.09219544457292887</speed>
  <fix>3d</fix>
</trkpt>
<trkpt lat="40.0718178" lon="-105.2297942">
  <ele>1583.0</ele>
  <time>2026-08-28T17:54:28Z</time>
  <course>6.74</course>
  <speed>0.13</speed>
  <fix>3d</fix>
</trkpt>
<trkpt lat="40.0718178" lon="-105.229794">
  <ele>1583.0</ele>
  <time>2026-08-28T17:54:28Z</time>
  <course>7.9</course>
  <speed>0.09219544457292887</speed>
  <fix>3d</fix>
</trkpt>
<trkpt lat="40.071818" lon="-105.2297942">
  <ele>1583.0</ele>
  <time>2026-08-28T17:54:28Z</time>
  <course>6.74</course>
  <speed>0.12</speed>
  <fix>3d</fix>
</trkpt>
<trkpt lat="40.071818" lon="-105.229794">
  <ele>1583.0</ele>
  <time>2026-08-28T17:54:28Z</time>
  <course>7.9</course>
  <speed>0.0824621125123532</speed>
  <fix>3d</fix>
</trkpt>
<trkpt lat="40.071818" lon="-105.2297942">
  <ele>1583.0</ele>
  <time>2026-08-28T17:54:28Z</time>
  <course>6.74</course>
  <speed>0.12</speed>
  <fix>3d</fix>
</trkpt>
<trkpt lat="40.0718181" lon="-105.229794">
  <ele>1583.0</ele>
  <time>2026-08-28T17:54:28Z</time>
  <course>7.9</course>
  <speed>0.0824621125123532</speed>
  <fix>3d</fix>
</trkpt>
<trkpt lat="40.0718181" lon="-105.2297942">
  <ele>1583.0</ele>
  <time>2026-08-28T17:54:28Z</time>
  <course>6.74</course>
  <speed>0.1</speed>
  <fix>3d</fix>
</trkpt>
<trkpt lat="40.0718181" lon="-105.229794">
  <ele>1583.0</ele>
  <time>2026-08-28T17:54:28Z</time>
  <course>7.9</course>
  <speed>0.07280109889280519</speed>
  <fix>3d</fix>
</trkpt>
<trkpt lat="40.0718181" lon="-105.229794">
  <ele>1583.01</ele>
  <time>2026-08-28T17:54:28Z</time>
  <course>7.9</course>
  <speed>0.07280109889280519</speed>
  <fix>3d</fix>
</trkpt>
<trkpt lat="40.0718181" lon="-105.2297942">
  <ele>1583.0</ele>
  <time>2026-08-28T17:54:28Z</time>
  <course>6.74</course>
  <speed>0.1</speed>
  <fix>3d</fix>
</trkpt>
<trkpt lat="40.0718182" lon="-105.229794">
  <ele>1583.01</ele>
  <time>2026-08-28T17:54:28Z</time>
  <course>7.9</course>
  <speed>0.07280109889280519</speed>
  <fix>3d</fix>
</trkpt>
<trkpt lat="40.0718184" lon="-105.2297941">
  <ele>1583.0</ele>
  <time>2026-08-28T17:54:28Z</time>
  <course>6.74</course>
  <speed>0.09</speed>
  <fix>3d</fix>
</trkpt>
<trkpt lat="40.0718183" lon="-105.229794">
  <ele>1583.01</ele>
  <time>2026-08-28T17:54:28Z</time>
  <course>7.9</course>
  <speed>0.0632455532033676</speed>
  <fix>3d</fix>
</trkpt>
<trkpt lat="40.0718184" lon="-105.2297941">
  <ele>1583.0</ele>
  <time>2026-08-28T17:54:28Z</time>
  <course>6.74</course>
  <speed>0.09</speed>
  <fix>3d</fix>
</trkpt>
<trkpt lat="40.0718184" lon="-105.229794">
  <ele>1583.01</ele>
  <time>2026-08-28T17:54:28Z</time>
  <course>7.9</course>
  <speed>0.0632455532033676</speed>
  <fix>3d</fix>
</trkpt>
<trkpt lat="40.0718185" lon="-105.229794">
  <ele>1583.0</ele>
  <time>2026-08-28T17:54:28Z</time>
  <course>6.74</course>
  <speed>0.08</speed>
  <fix>3d</fix>
</trkpt>
<trkpt lat="40.0718185" lon="-105.229794">
  <ele>1583.02</ele>
  <time>2026-08-28T17:54:28Z</time>
  <course>7.9</course>
  <speed>0.053851648071345036</speed>
  <fix>3d</fix>
</trkpt>
<trkpt lat="40.0718185" lon="-105.229794">
  <ele>1583.0</ele>
  <time>2026-08-28T17:54:28Z</time>
  <course>6.74</course>
  <speed>0.08</speed>
  <fix>3d</fix>
</trkpt>
<trkpt lat="40.0718185" lon="-105.2297939">
  <ele>1583.02</ele>
  <time>2026-08-28T17:54:28Z</time>
  <course>7.9</course>
  <speed>0.053851648071345036</speed>
  <fix>3d</fix>
</trkpt>
<trkpt lat="40.0718185" lon="-105.229794">
  <ele>1583.0</ele>
  <time>2026-08-28T17:54:28Z</time>
  <course>6.74</course>
  <speed>0.08</speed>
  <fix>3d</fix>
</trkpt>
<trkpt lat="40.0718186" lon="-105.2297939">
  <ele>1583.02</ele>
  <time>2026-08-28T17:54:28Z</time>
  <course>7.9</course>
  <speed>0.053851648071345036</speed>
  <fix>3d</fix>
</trkpt>
<trkpt lat="40.0718186" lon="-105.229794">
  <ele>1583.0</ele>
  <time>2026-08-28T17:54:28Z</time>
  <course>6.74</course>
  <speed>0.08</speed>
  <fix>3d</fix>
</trkpt>
<trkpt lat="40.0718187" lon="-105.2297939">
  <ele>1583.03</ele>
  <time>2026-08-28T17:54:28Z</time>
  <course>7.9</course>
  <speed>0.044721359549995794</speed>
  <fix>3d</fix>
</trkpt>
<trkpt lat="40.0718186" lon="-105.229794">
  <ele>1583.0</ele>
  <time>2026-08-28T17:54:28Z</time>
  <course>6.74</course>
  <speed>0.08</speed>
  <fix>3d</fix>
</trkpt>
<trkpt lat="40.0718187" lon="-105.2297939">
  <ele>1583.03</ele>
  <time>2026-08-28T17:54:28Z</time>
  <course>7.89</course>
  <speed>0.044721359549995794</speed>
  <fix>3d</fix>
</trkpt>
<trkpt lat="40.0718188" lon="-105.229794">
  <ele>1583.0</ele>
  <time>2026-08-28T17:54:28Z</time>
  <course>6.75</course>
  <speed>0.07</speed>
  <fix>3d</fix>
</trkpt>
<trkpt lat="40.0718188" lon="-105.2297939">
  <ele>1583.03</ele>
  <time>2026-08-28T17:54:28Z</time>
  <course>7.89</course>
  <speed>0.044721359549995794</speed>
  <fix>3d</fix>
</trkpt>
<trkpt lat="40.0718188" lon="-105.229794">
  <ele>1583.0</ele>
  <time>2026-08-28T17:54:28Z</time>
  <course>6.75</course>
  <speed>0.07</speed>
  <fix>3d</fix>
</trkpt>
<trkpt lat="40.0718188" lon="-105.2297939">
  <ele>1583.04</ele>
  <time>2026-08-28T17:54:28Z</time>
  <course>7.89</course>
  <speed>0.03605551275463989</speed>
  <fix>3d</fix>
</trkpt>
<trkpt lat="40.0718189" lon="-105.229794">
  <ele>1583.0</ele>
  <time>2026-08-28T17:54:28Z</time>
  <course>6.75</course>
  <speed>0.06</speed>
  <fix>3d</fix>
</trkpt>
<trkpt lat="40.0718189" lon="-105.2297939">
  <ele>1583.05</ele>
  <time>2026-08-28T17:54:28Z</time>
  <course>7.89</course>
  <speed>0.03605551275463989</speed>
  <fix>3d</fix>
</trkpt>
<trkpt lat="40.071819" lon="-105.229794">
  <ele>1583.0</ele>
  <time>2026-08-28T17:54:28Z</time>
  <course>6.75</course>
  <speed>0.05</speed>
  <fix>3d</fix>
</trkpt>
<trkpt lat="40.0718189" lon="-105.2297939">
  <ele>1583.05</ele>
  <time>2026-08-28T17:54:28Z</time>
  <course>7.89</course>
  <speed>0.03605551275463989</speed>
  <fix>3d</fix>
</trkpt>
<trkpt lat="40.071819" lon="-105.229794">
  <ele>1583.0</ele>
  <time>2026-08-28T17:54:28Z</time>
  <course>6.75</course>
  <speed>0.05</speed>
  <fix>3d</fix>
</trkpt>
<trkpt lat="40.071819" lon="-105.2297939">
  <ele>1583.06</ele>
  <time>2026-08-28T17:54:28Z</time>
  <course>7.89</course>
  <speed>0.03605551275463989</speed>
  <fix>3d</fix>
</trkpt>
<trkpt lat="40.0718191" lon="-105.229794">
  <ele>1583.0</ele>
  <time>2026-08-28T17:54:28Z</time>
  <course>6.75</course>
  <speed>0.05</speed>
  <fix>3d</fix>
</trkpt>
<trkpt lat="40.071819" lon="-105.2297939">
  <ele>1583.06</ele>
  <time>2026-08-28T17:54:28Z</time>
  <course>7.89</course>
  <speed>0.0282842712474619</speed>
  <fix>3d</fix>
</trkpt>
<trkpt lat="40.0718191" lon="-105.229794">
  <ele>1583.0</ele>
  <time>2026-08-28T17:54:28Z</time>
  <course>6.75</course>
  <speed>0.05</speed>
  <fix>3d</fix>
</trkpt>
<trkpt lat="40.0718191" lon="-105.2297938">
  <ele>1583.06</ele>
  <time>2026-08-28T17:54:28Z</time>
  <course>7.89</course>
  <speed>0.0282842712474619</speed>
  <fix>3d</fix>
</trkpt>
<trkpt lat="40.0718192" lon="-105.229794">
  <ele>1583.0</ele>
  <time>2026-08-28T17:54:28Z</time>
  <course>6.75</course>
  <speed>0.04</speed>
  <fix>3d</fix>
</trkpt>
<trkpt lat="40.0718191" lon="-105.2297938">
  <ele>1583.06</ele>
  <time>2026-08-28T17:54:28Z</time>
  <course>7.89</course>
  <speed>0.022360679774997897</speed>
  <fix>3d</fix>
</trkpt>
<trkpt lat="40.0718192" lon="-105.229794">
  <ele>1583.0</ele>
  <time>2026-08-28T17:54:28Z</time>
  <course>6.75</course>
  <speed>0.04</speed>
  <fix>3d</fix>
</trkpt>
<trkpt lat="40.0718191" lon="-105.2297938">
  <ele>1583.06</ele>
  <time>2026-08-28T17:54:28Z</time>
  <course>7.89</course>
  <speed>0.022360679774997897</speed>
  <fix>3d</fix>
</trkpt>
<trkpt lat="40.0718193" lon="-105.229794">
  <ele>1583.0</ele>
  <time>2026-08-28T17:54:28Z</time>
  <course>6.75</course>
  <speed>0.04</speed>
  <fix>3d</fix>
</trkpt>
<trkpt lat="40.0718192" lon="-105.2297938">
  <ele>1583.05</ele>
  <time>2026-08-28T17:54:28Z</time>
  <course>7.89</course>
  <speed>0.022360679774997897</speed>
  <fix>3d</fix>
</trkpt>
<trkpt lat="40.0718193" lon="-105.229794">
  <ele>1583.0</ele>
  <time>2026-08-28T17:54:28Z</time>
  <course>6.75</course>
  <speed>0.04</speed>
  <fix>3d</fix>
</trkpt>
<trkpt lat="40.0718192" lon="-105.2297938">
  <ele>1583.04</ele>
  <time>2026-08-28T17:54:28Z</time>
  <course>7.89</course>
  <speed>0.01414213562373095</speed>
  <fix>3d</fix>
</trkpt>
<trkpt lat="40.0718194" lon="-105.229794">
  <ele>1583.0</ele>
  <time>2026-08-28T17:54:28Z</time>
  <course>6.75</course>
  <speed>0.04</speed>
  <fix>3d</fix>
</trkpt>
<trkpt lat="40.0718193" lon="-105.2297938">
  <ele>1583.03</ele>
  <time>2026-08-28T17:54:28Z</time>
  <course>7.89</course>
  <speed>0.01414213562373095</speed>
  <fix>3d</fix>
</trkpt>
<trkpt lat="40.0718194" lon="-105.229794">
  <ele>1583.0</ele>
  <time>2026-08-28T17:54:28Z</time>
  <course>6.75</course>
  <speed>0.04</speed>
  <fix>3d</fix>
</trkpt>
<trkpt lat="40.0718193" lon="-105.2297938">
  <ele>1583.03</ele>
  <time>2026-08-28T17:54:28Z</time>
  <course>7.89</course>
  <speed>0.01414213562373095</speed>
  <fix>3d</fix>
</trkpt>
<trkpt lat="40.0718194" lon="-105.229794">
  <ele>1583.0</ele>
  <time>2026-08-28T17:54:28Z</time>
  <course>6.76</course>
  <speed>0.03</speed>
  <fix>3d</fix>
</trkpt>
<trkpt lat="40.0718193" lon="-105.2297939">
  <ele>1583.02</ele>
  <time>2026-08-28T17:54:28Z</time>
  <course>7.89</course>
  <speed>0.01414213562373095</speed>
  <fix>3d</fix>
</trkpt>
<trkpt lat="40.0718194" lon="-105.229794">
  <ele>1583.0</ele>
  <time>2026-08-28T17:54:28Z</time>
  <course>6.76</course>
  <speed>0.03</speed>
  <fix>3d</fix>
</trkpt>
<trkpt lat="40.0718193" lon="-105.2297938">
  <ele>1583.02</ele>
  <time>2026-08-28T17:54:28Z</time>
  <course>7.89</course>
  <speed>0.01414213562373095</speed>
  <fix>3d</fix>
</trkpt>
<trkpt lat="40.0718195" lon="-105.229794">
  <ele>1583.0</ele>
  <time>2026-08-28T17:54:28Z</time>
  <course>6.76</course>
  <speed>0.03</speed>
  <fix>3d</fix>
</trkpt>
<trkpt lat="40.0718194" lon="-105.2297939">
  <ele>1583.02</ele>
  <time>2026-08-28T17:54:28Z</time>
  <course>7.89</course>
  <speed>0.01414213562373095</speed>
  <fix>3d</fix>
</trkpt>
<trkpt lat="40.0718195" lon="-105.229794">
  <ele>1583.0</ele>
  <time>2026-08-28T17:54:28Z</time>
  <course>6.76</course>
  <speed>0.03</speed>
  <fix>3d</fix>
</trkpt>
<trkpt lat="40.0718194" lon="-105.2297939">
  <ele>1583.01</ele>
  <time>2026-08-28T17:54:28Z</time>
  <course>7.88</course>
  <speed>0.01414213562373095</speed>
  <fix>3d</fix>
</trkpt>
<trkpt lat="40.0718195" lon="-105.229794">
  <ele>1583.0</ele>
  <time>2026-08-28T17:54:28Z</time>
  <course>6.76</course>
  <speed>0.03</speed>
  <fix>3d</fix>
</trkpt>
<trkpt lat="40.0718194" lon="-105.2297939">
  <ele>1583.01</ele>
  <time>2026-08-28T17:54:28Z</time>
  <course>7.88</course>
  <speed>0.01</speed>
  <fix>3d</fix>
</trkpt>
<trkpt lat="40.0718196" lon="-105.229794">
  <ele>1583.0</ele>
  <time>2026-08-28T17:54:28Z</time>
  <course>6.76</course>
  <speed>0.02</speed>
  <fix>3d</fix>
</trkpt>
<trkpt lat="40.0718195" lon="-105.2297939">
  <ele>1583.0</ele>
  <time>2026-08-28T17:54:28Z</time>
  <course>7.88</course>
  <speed>0.01</speed>
  <fix>3d</fix>
</trkpt>
<trkpt lat="40.0718196" lon="-105.229794">
  <ele>1583.0</ele>
  <time>2026-08-28T17:54:28Z</time>
  <course>6.76</course>
  <speed>0.02</speed>
  <fix>3d</fix>
</trkpt>
<trkpt lat="40.0718195" lon="-105.2297939">
  <ele>1583.0</ele>
  <time>2026-08-28T17:54:28Z</time>
  <course>7.88</course>
  <speed>0.01</speed>
  <fix>3d</fix>
</trkpt>
<trkpt lat="40.0718196" lon="-105.229794">
  <ele>1583.0</ele>
  <time>2026-08-28T17:54:28Z</time>
  <course>6.76</course>
  <speed>0.02</speed>
  <fix>3d</fix>
</trkpt>
<trkpt lat="40.0718195" lon="-105.2297939">
  <ele>1583.0</ele>
  <time>2026-08-28T17:54:28Z</time>
  <course>7.88</course>
  <speed>0.01</speed>
  <fix>3d</fix>
</trkpt>
<trkpt lat="40.0718196" lon="-105.229794">
  <ele>1583.0</ele>
  <time>2026-08-28T17:54:28Z</time>
  <course>6.76</course>
  <speed>0.02</speed>
  <fix>3d</fix>
</trkpt>
<trkpt lat="40.0718195" lon="-105.2297939">
  <ele>1582.99</ele>
  <time>2026-08-28T17:54:28Z</time>
  <course>7.88</course>
  <speed>0.01</speed>
  <fix>3d</fix>
</trkpt>
<trkpt lat="40.0718197" lon="-105.229794">
  <ele>1583.0</ele>
  <time>2026-08-28T17:54:28Z</time>
  <course>6.77</course>
  <speed>0.02</speed>
  <fix>3d</fix>
</trkpt>
<trkpt lat="40.0718195" lon="-105.2297939">
  <ele>1582.99</ele>
  <time>2026-08-28T17:54:28Z</time>
  <course>7.88</course>
  <speed>0.01</speed>
  <fix>3d</fix>
</trkpt>
<trkpt lat="40.0718197" lon="-105.229794">
  <ele>1583.0</ele>
  <time>2026-08-28T17:54:28Z</time>
  <course>6.77</course>
  <speed>0.02</speed>
  <fix>3d</fix>
</trkpt>
<trkpt lat="40.0718196" lon="-105.2297939">
  <ele>1582.98</ele>
  <time>2026-08-28T17:54:28Z</time>
  <course>7.88</course>
  <speed>0.01</speed>
  <fix>3d</fix>
</trkpt>
<trkpt lat="40.0718197" lon="-105.2297939">
  <ele>1583.0</ele>
  <time>2026-08-28T17:54:28Z</time>
  <course>6.77</course>
  <speed>0.02</speed>
  <fix>3d</fix>
</trkpt>
<trkpt lat="39.655741" lon="-104.1383097">
  <ele>1566.58</ele>
  <time>2026-08-28T17:54:28Z</time>
  <course>0.0</course>
  <speed>0.0</speed>
  <fix>3d</fix>
</trkpt>
<trkpt lat="40.0713749" lon="-105.229789">
  <ele>1583.0</ele>
  <time>2026-08-28T17:54:28Z</time>
  <course>0.0</course>
  <speed>0.0</speed>
  <fix>3d</fix>
</trkpt>
<trkpt lat="40.0713749" lon="-105.229789">
  <ele>1583.0</ele>
  <time>2026-08-28T17:54:28Z</time>
  <course>238.36</course>
  <speed>0.0</speed>
  <fix>3d</fix>
</trkpt>
<trkpt lat="40.0713749" lon="-105.229789">
  <ele>1583.0</ele>
  <time>2026-08-28T17:54:28Z</time>
  <course>0.0</course>
  <speed>0.0</speed>
  <fix>3d</fix>
</trkpt>
<trkpt lat="40.0713749" lon="-105.229789">
  <ele>1583.0</ele>
  <time>2026-08-28T17:54:28Z</time>
  <course>238.44</course>
  <speed>0.0</speed>
  <fix>3d</fix>
</trkpt>
<trkpt lat="40.0713749" lon="-105.229789">
  <ele>1583.0</ele>
  <time>2026-08-28T17:54:28Z</time>
  <course>0.0</course>
  <speed>0.0</speed>
  <fix>3d</fix>
</trkpt>
<trkpt lat="40.0713749" lon="-105.229789">
  <ele>1583.0</ele>
  <time>2026-08-28T17:54:28Z</time>
  <course>238.64</course>
  <speed>0.0</speed>
  <fix>3d</fix>
</trkpt>
<trkpt lat="40.0713749" lon="-105.229789">
  <ele>1583.0</ele>
  <time>2026-08-28T17:54:28Z</time>
  <course>0.0</course>
  <speed>0.0</speed>
  <fix>3d</fix>
</trkpt>
<trkpt lat="40.0713749" lon="-105.229789">
  <ele>1583.0</ele>
  <time>2026-08-28T17:54:28Z</time>
  <course>238.93</course>
  <speed>0.0</speed>
  <fix>3d</fix>
</trkpt>
<trkpt lat="40.0713749" lon="-105.229789">
  <ele>1583.0</ele>
  <time>2026-08-28T17:54:28Z</time>
  <course>0.0</course>
  <speed>0.0</speed>
  <fix>3d</fix>
</trkpt>
<trkpt lat="40.0713749" lon="-105.229789">
  <ele>1583.0</ele>
  <time>2026-08-28T17:54:28Z</time>
  <course>239.26</course>
  <speed>0.0</speed>
  <fix>3d</fix>
</trkpt>
<trkpt lat="40.0713749" lon="-105.229789">
  <ele>1583.0</ele>
  <time>2026-08-28T17:54:28Z</time>
  <course>0.0</course>
  <speed>0.0</speed>
  <fix>3d</fix>
</trkpt>
<trkpt lat="40.0713749" lon="-105.229789">
  <ele>1583.0</ele>
  <time>2026-08-28T17:54:28Z</time>
  <course>239.61</course>
  <speed>0.0</speed>
  <fix>3d</fix>
</trkpt>
<trkpt lat="40.0713749" lon="-105.229789">
  <ele>1583.0</ele>
  <time>2026-08-28T17:54:28Z</time>
  <course>0.0</course>
  <speed>0.0</speed>
  <fix>3d</fix>
</trkpt>
<trkpt lat="40.0713749" lon="-105.229789">
  <ele>1583.0</ele>
  <time>2026-08-28T17:54:28Z</time>
  <course>239.96</course>
  <speed>0.0</speed>
  <fix>3d</fix>
</trkpt>
<trkpt lat="40.0713749" lon="-105.229789">
  <ele>1583.0</ele>
  <time>2026-08-28T17:54:28Z</time>
  <course>0.0</course>
  <speed>0.0</speed>
  <fix>3d</fix>
</trkpt>
<trkpt lat="40.0713749" lon="-105.229789">
  <ele>1583.0</ele>
  <time>2026-08-28T17:54:28Z</time>
  <course>240.29</course>
  <speed>0.0</speed>
  <fix>3d</fix>
</trkpt>
<trkpt lat="40.0713749" lon="-105.229789">
  <ele>1583.0</ele>
  <time>2026-08-28T17:54:28Z</time>
  <course>0.0</course>
  <speed>0.0</speed>
  <fix>3d</fix>
</trkpt>
<trkpt lat="40.0713749" lon="-105.229789">
  <ele>1583.0</ele>
  <time>2026-08-28T17:54:28Z</time>
  <course>240.61</course>
  <speed>0.0</speed>
  <fix>3d</fix>
</trkpt>
<trkpt lat="40.0713749" lon="-105.229789">
  <ele>1583.0</ele>
  <time>2026-08-28T17:54:28Z</time>
  <course>0.0</course>
  <speed>0.0</speed>
  <fix>3d</fix>
</trkpt>
<trkpt lat="40.0713749" lon="-105.229789">
  <ele>1583.0</ele>
  <time>2026-08-28T17:54:28Z</time>
  <course>240.92</course>
  <speed>0.0</speed>
  <fix>3d</fix>
</trkpt>
<trkpt lat="40.0713749" lon="-105.229789">
  <ele>1583.0</ele>
  <time>2026-08-28T17:54:28Z</time>
  <course>0.0</course>
  <speed>0.0</speed>
  <fix>3d</fix>
</trkpt>
<trkpt lat="40.0713749" lon="-105.229789">
  <ele>1583.0</ele>
  <time>2026-08-28T17:54:28Z</time>
  <course>241.21</course>
  <speed>0.0</speed>
  <fix>3d</fix>
</trkpt>
<trkpt lat="40.0713749" lon="-105.229789">
  <ele>1583.0</ele>
  <time>2026-08-28T17:54:28Z</time>
  <course>0.0</course>
  <speed>0.0</speed>
  <fix>3d</fix>
</trkpt>
<trkpt lat="40.0713749" lon="-105.229789">
  <ele>1583.0</ele>
  <time>2026-08-28T17:54:28Z</time>
  <course>241.49</course>
  <speed>0.0</speed>
  <fix>3d</fix>
</trkpt>
<trkpt lat="40.0713749" lon="-105.229789">
  <ele>1583.0</ele>
  <time>2026-08-28T17:54:28Z</time>
  <course>0.0</course>
  <speed>0.0</speed>
  <fix>3d</fix>
</trkpt>
<trkpt lat="40.0713749" lon="-105.229789">
  <ele>1583.0</ele>
  <time>2026-08-28T17:54:28Z</time>
  <course>241.77</course>
  <speed>0.0</speed>
  <fix>3d</fix>
</trkpt>
<trkpt lat="40.0713749" lon="-105.229789">
  <ele>1583.0</ele>
  <time>2026-08-28T17:54:28Z</time>
  <course>0.0</course>
  <speed>0.0</speed>
  <fix>3d</fix>
</trkpt>
<trkpt lat="40.0713749" lon="-105.229789">
  <ele>1583.0</ele>
  <time>2026-08-28T17:54:28Z</time>
  <course>242.03</course>
  <speed>0.0</speed>
  <fix>3d</fix>
</trkpt>
<trkpt lat="40.0713749" lon="-105.229789">
  <ele>1583.0</ele>
  <time>2026-08-28T17:54:28Z</time>
  <course>0.0</course>
  <speed>0.0</speed>
  <fix>3d</fix>
</trkpt>
<trkpt lat="40.0713749" lon="-105.229789">
  <ele>1583.0</ele>
  <time>2026-08-28T17:54:28Z</time>
  <course>242.29</course>
  <speed>0.0</speed>
  <fix>3d</fix>
</trkpt>
<trkpt lat="40.0713749" lon="-105.229789">
  <ele>1583.0</ele>
  <time>2026-08-28T17:54:28Z</time>
  <course>0.0</course>
  <speed>0.0</speed>
  <fix>3d</fix>
</trkpt>
<trkpt lat="40.0713749" lon="-105.229789">
  <ele>1583.0</ele>
  <time>2026-08-28T17:54:28Z</time>
  <course>242.54</course>
  <speed>0.0</speed>
  <fix>3d</fix>
</trkpt>
<trkpt lat="40.0713749" lon="-105.229789">
  <ele>1583.0</ele>
  <time>2026-08-28T17:54:28Z</time>
  <course>0.0</course>
  <speed>0.0</speed>
  <fix>3d</fix>
</trkpt>
<trkpt lat="40.0713749" lon="-105.229789">
  <ele>1583.0</ele>
  <time>2026-08-28T17:54:28Z</time>
  <course>242.79</course>
  <speed>0.0</speed>
  <fix>3d</fix>
</trkpt>
<trkpt lat="40.0713749" lon="-105.229789">
  <ele>1583.0</ele>
  <time>2026-08-28T17:54:28Z</time>
  <course>0.0</course>
  <speed>0.0</speed>
  <fix>3d</fix>
</trkpt>
<trkpt lat="40.0713749" lon="-105.229789">
  <ele>1583.0</ele>
  <time>2026-08-28T17:54:28Z</time>
  <course>243.02</course>
  <speed>0.0</speed>
  <fix>3d</fix>
</trkpt>
<trkpt lat="40.0713749" lon="-105.229789">
  <ele>1583.0</ele>
  <time>2026-08-28T17:54:28Z</time>
  <course>0.0</course>
  <speed>0.0</speed>
  <fix>3d</fix>
</trkpt>
<trkpt lat="40.0713749" lon="-105.229789">
  <ele>1583.0</ele>
  <time>2026-08-28T17:54:28Z</time>
  <course>243.25</course>
  <speed>0.0</speed>
  <fix>3d</fix>
</trkpt>
<trkpt lat="40.0713749" lon="-105.229789">
  <ele>1583.0</ele>
  <time>2026-08-28T17:54:28Z</time>
  <course>0.0</course>
  <speed>0.0</speed>
  <fix>3d</fix>
</trkpt>
<trkpt lat="40.0713749" lon="-105.229789">
  <ele>1583.0</ele>
  <time>2026-08-28T17:54:28Z</time>
  <course>243.47</course>
  <speed>0.0</speed>
  <fix>3d</fix>
</trkpt>
<trkpt lat="40.0713749" lon="-105.229789">
  <ele>1583.0</ele>
  <time>2026-08-28T17:54:28Z</time>
  <course>0.0</course>
  <speed>0.0</speed>
  <fix>3d</fix>
</trkpt>
<trkpt lat="40.0713749" lon="-105.229789">
  <ele>1583.0</ele>
  <time>2026-08-28T17:54:28Z</time>
  <course>243.68</course>
  <speed>0.0</speed>
  <fix>3d</fix>
</trkpt>
<trkpt lat="40.0713749" lon="-105.229789">
  <ele>1583.0</ele>
  <time>2026-08-28T17:54:28Z</time>
  <course>0.0</course>
  <speed>0.0</speed>
  <fix>3d</fix>
</trkpt>
<trkpt lat="40.0713749" lon="-105.229789">
  <ele>1583.0</ele>
  <time>2026-08-28T17:54:28Z</time>
  <course>243.89</course>
  <speed>0.0</speed>
  <fix>3d</fix>
</trkpt>
<trkpt lat="40.0713749" lon="-105.229789">
  <ele>1583.0</ele>
  <time>2026-08-28T17:54:28Z</time>
  <course>0.0</course>
  <speed>0.0</speed>
  <fix>3d</fix>
</trkpt>
<trkpt lat="40.0713749" lon="-105.229789">
  <ele>1583.0</ele>
  <time>2026-08-28T17:54:28Z</time>
  <course>244.09</course>
  <speed>0.0</speed>
  <fix>3d</fix>
</trkpt>
<trkpt lat="40.0713749" lon="-105.229789">
  <ele>1583.0</ele>
  <time>2026-08-28T17:54:28Z</time>
  <course>0.0</course>
  <speed>0.0</speed>
  <fix>3d</fix>
</trkpt>
<trkpt lat="40.0713749" lon="-105.229789">
  <ele>1583.0</ele>
  <time>2026-08-28T17:54:28Z</time>
  <course>244.28</course>
  <speed>0.0</speed>
  <fix>3d</fix>
</trkpt>
<trkpt lat="40.0713749" lon="-105.229789">
  <ele>1583.0</ele>
  <time>2026-08-28T17:54:28Z</time>
  <course>0.0</course>
  <speed>0.0</speed>
  <fix>3d</fix>
</trkpt>
<trkpt lat="40.0713749" lon="-105.229789">
  <ele>1583.0</ele>
  <time>2026-08-28T17:54:28Z</time>
  <course>244.46</course>
  <speed>0.0</speed>
  <fix>3d</fix>
</trkpt>
<trkpt lat="40.0713749" lon="-105.229789">
  <ele>1583.0</ele>
  <time>2026-08-28T17:54:28Z</time>
  <course>0.0</course>
  <speed>0.0</speed>
  <fix>3d</fix>
</trkpt>
<trkpt lat="40.0713749" lon="-105.229789">
  <ele>1583.0</ele>
  <time>2026-08-28T17:54:28Z</time>
  <course>244.64</course>
  <speed>0.0</speed>
  <fix>3d</fix>
</trkpt>
<trkpt lat="40.0713749" lon="-105.229789">
  <ele>1583.0</ele>
  <time>2026-08-28T17:54:28Z</time>
  <course>0.0</course>
  <speed>0.0</speed>
  <fix>3d</fix>
</trkpt>
<trkpt lat="40.0713749" lon="-105.229789">
  <ele>1583.0</ele>
  <time>2026-08-28T17:54:28Z</time>
  <course>244.81</course>
  <speed>0.0</speed>
  <fix>3d</fix>
</trkpt>
<trkpt lat="40.0713749" lon="-105.229789">
  <ele>1583.0</ele>
  <time>2026-08-28T17:54:28Z</time>
  <course>0.0</course>
  <speed>0.0</speed>
  <fix>3d</fix>
</trkpt>
<trkpt lat="40.0713749" lon="-105.229789">
  <ele>1583.0</ele>
  <time>2026-08-28T17:54:28Z</time>
  <course>244.97</course>
  <speed>0.0</speed>
  <fix>3d</fix>
</trkpt>
<trkpt lat="40.0713749" lon="-105.229789">
  <ele>1583.0</ele>
  <time>2026-08-28T17:54:28Z</time>
  <course>0.0</course>
  <speed>0.0</speed>
  <fix>3d</fix>
</trkpt>
<trkpt lat="40.0713749" lon="-105.229789">
  <ele>1583.0</ele>
  <time>2026-08-28T17:54:28Z</time>
  <course>245.13</course>
  <speed>0.0</speed>
  <fix>3d</fix>
</trkpt>
<trkpt lat="40.0713749" lon="-105.229789">
  <ele>1583.0</ele>
  <time>2026-08-28T17:54:28Z</time>
  <course>0.0</course>
  <speed>0.0</speed>
  <fix>3d</fix>
</trkpt>
<trkpt lat="40.0713749" lon="-105.229789">
  <ele>1583.0</ele>
  <time>2026-08-28T17:54:28Z</time>
  <course>245.29</course>
  <speed>0.0</speed>
  <fix>3d</fix>
</trkpt>
<trkpt lat="40.0713749" lon="-105.229789">
  <ele>1583.0</ele>
  <time>2026-08-28T17:54:28Z</time>
  <course>0.0</course>
  <speed>0.0</speed>
  <fix>3d</fix>
</trkpt>
<trkpt lat="40.0713749" lon="-105.229789">
  <ele>1583.0</ele>
  <time>2026-08-28T17:54:28Z</time>
  <course>245.43</course>
  <speed>0.0</speed>
  <fix>3d</fix>
</trkpt>
<trkpt lat="40.0713749" lon="-105.229789">
  <ele>1583.0</ele>
  <time>2026-08-28T17:54:28Z</time>
  <course>0.0</course>
  <speed>0.0</speed>
  <fix>3d</fix>
</trkpt>
<trkpt lat="40.0713749" lon="-105.229789">
  <ele>1583.0</ele>
  <time>2026-08-28T17:54:28Z</time>
  <course>245.57</course>
  <speed>0.0</speed>
  <fix>3d</fix>
</trkpt>
<trkpt lat="40.0713749" lon="-105.229789">
  <ele>1583.0</ele>
  <time>2026-08-28T17:54:28Z</time>
  <course>0.0</course>
  <speed>0.0</speed>
  <fix>3d</fix>
</trkpt>
<trkpt lat="40.0713749" lon="-105.229789">
  <ele>1583.0</ele>
  <time>2026-08-28T17:54:28Z</time>
  <course>245.71</course>
  <speed>0.0</speed>
  <fix>3d</fix>
</trkpt>
<trkpt lat="40.0713749" lon="-105.229789">
  <ele>1583.0</ele>
  <time>2026-08-28T17:54:28Z</time>
  <course>0.0</course>
  <speed>0.0</speed>
  <fix>3d</fix>
</trkpt>
<trkpt lat="40.0713749" lon="-105.229789">
  <ele>1583.0</ele>
  <time>2026-08-28T17:54:28Z</time>
  <course>245.84</course>
  <speed>0.0</speed>
  <fix>3d</fix>
</trkpt>
<trkpt lat="40.0713749" lon="-105.229789">
  <ele>1583.0</ele>
  <time>2026-08-28T17:54:28Z</time>
  <course>0.0</course>
  <speed>0.0</speed>
  <fix>3d</fix>
</trkpt>
<trkpt lat="40.0713749" lon="-105.229789">
  <ele>1583.0</ele>
  <time>2026-08-28T17:54:28Z</time>
  <course>245.96</course>
  <speed>0.0</speed>
  <fix>3d</fix>
</trkpt>
<trkpt lat="40.0713749" lon="-105.229789">
  <ele>1583.0</ele>
  <time>2026-08-28T17:54:28Z</time>
  <course>0.0</course>
  <speed>0.0</speed>
  <fix>3d</fix>
</trkpt>
<trkpt lat="40.0713749" lon="-105.229789">
  <ele>1583.0</ele>
  <time>2026-08-28T17:54:28Z</time>
  <course>246.08</course>
  <speed>0.0</speed>
  <fix>3d</fix>
</trkpt>
<trkpt lat="40.0713749" lon="-105.229789">
  <ele>1583.0</ele>
  <time>2026-08-28T17:54:28Z</time>
  <course>0.0</course>
  <speed>0.0</speed>
  <fix>3d</fix>
</trkpt>
<trkpt lat="40.0713749" lon="-105.229789">
  <ele>1583.0</ele>
  <time>2026-08-28T17:54:28Z</time>
  <course>246.19</course>
  <speed>0.0</speed>
  <fix>3d</fix>
</trkpt>
<trkpt lat="40.0713749" lon="-105.229789">
  <ele>1583.0</ele>
  <time>2026-08-28T17:54:28Z</time>
  <course>0.0</course>
  <speed>0.0</speed>
  <fix>3d</fix>
</trkpt>
<trkpt lat="40.0713749" lon="-105.229789">
  <ele>1583.0</ele>
  <time>2026-08-28T17:54:28Z</time>
  <course>246.3</course>
  <speed>0.0</speed>
  <fix>3d</fix>
</trkpt>
<trkpt lat="40.0713749" lon="-105.229789">
  <ele>1583.0</ele>
  <time>2026-08-28T17:54:28Z</time>
  <course>0.0</course>
  <speed>0.0</speed>
  <fix>3d</fix>
</trkpt>
<trkpt lat="40.0713749" lon="-105.229789">
  <ele>1583.0</ele>
  <time>2026-08-28T17:54:28Z</time>
  <course>246.41</course>
  <speed>0.0</speed>
  <fix>3d</fix>
</trkpt>
<trkpt lat="40.0713749" lon="-105.229789">
  <ele>1583.0</ele>
  <time>2026-08-28T17:54:28Z</time>
  <course>0.0</course>
  <speed>0.0</speed>
  <fix>3d</fix>
</trkpt>
<trkpt lat="40.0713749" lon="-105.229789">
  <ele>1583.0</ele>
  <time>2026-08-28T17:54:28Z</time>
  <course>246.51</course>
  <speed>0.0</speed>
  <fix>3d</fix>
</trkpt>
<trkpt lat="40.0713749" lon="-105.229789">
  <ele>1583.0</ele>
  <time>2026-08-28T17:54:28Z</time>
  <course>0.0</course>
  <speed>0.0</speed>
  <fix>3d</fix>
</trkpt>
<trkpt lat="40.0713749" lon="-105.229789">
  <ele>1583.0</ele>
  <time>2026-08-28T17:54:28Z</time>
  <course>246.6</course>
  <speed>0.0</speed>
  <fix>3d</fix>
</trkpt>
<trkpt lat="40.0713749" lon="-105.229789">
  <ele>1583.0</ele>
  <time>2026-08-28T17:54:28Z</time>
  <course>0.0</course>
  <speed>0.0</speed>
  <fix>3d</fix>
</trkpt>
<trkpt lat="40.0713749" lon="-105.229789">
  <ele>1583.0</ele>
  <time>2026-08-28T17:54:28Z</time>
  <course>246.7</course>
  <speed>0.0</speed>
  <fix>3d</fix>
</trkpt>
<trkpt lat="40.0713749" lon="-105.229789">
  <ele>1583.0</ele>
  <time>2026-08-28T17:54:28Z</time>
  <course>0.0</course>
  <speed>0.0</speed>
  <fix>3d</fix>
</trkpt>
<trkpt lat="40.0713749" lon="-105.229789">
  <ele>1583.0</ele>
  <time>2026-08-28T17:54:28Z</time>
  <course>246.78</course>
  <speed>0.0</speed>
  <fix>3d</fix>
</trkpt>
<trkpt lat="40.0713749" lon="-105.229789">
  <ele>1583.0</ele>
  <time>2026-08-28T17:54:28Z</time>
  <course>0.0</course>
  <speed>0.0</speed>
  <fix>3d</fix>
</trkpt>
<trkpt lat="40.0713749" lon="-105.229789">
  <ele>1583.0</ele>
  <time>2026-08-28T17:54:28Z</time>
  <course>246.87</course>
  <speed>0.0</speed>
  <fix>3d</fix>
</trkpt>
<trkpt lat="40.0713749" lon="-105.229789">
  <ele>1583.0</ele>
  <time>2026-08-28T17:54:28Z</time>
  <course>0.0</course>
  <speed>0.0</speed>
  <fix>3d</fix>
</trkpt>
<trkpt lat="40.0713749" lon="-105.229789">
  <ele>1583.0</ele>
  <time>2026-08-28T17:54:28Z</time>
  <course>246.95</course>
  <speed>0.0</speed>
  <fix>3d</fix>
</trkpt>
<trkpt lat="40.0713749" lon="-105.229789">
  <ele>1583.0</ele>
  <time>2026-08-28T17:54:28Z</time>
  <course>0.0</course>
  <speed>0.0</speed>
  <fix>3d</fix>
</trkpt>
<trkpt lat="40.0713749" lon="-105.229789">
  <ele>1583.0</ele>
  <time>2026-08-28T17:54:28Z</time>
  <course>247.02</course>
  <speed>0.0</speed>
  <fix>3d</fix>
</trkpt>
<trkpt lat="40.0713749" lon="-105.229789">
  <ele>1583.0</ele>
  <time>2026-08-28T17:54:28Z</time>
  <course>0.0</course>
  <speed>0.0</speed>
  <fix>3d</fix>
</trkpt>
<trkpt lat="40.0713749" lon="-105.229789">
  <ele>1583.0</ele>
  <time>2026-08-28T17:54:28Z</time>
  <course>247.1</course>
  <speed>0.0</speed>
  <fix>3d</fix>
</trkpt>
<trkpt lat="40.0713749" lon="-105.229789">
  <ele>1583.0</ele>
  <time>2026-08-28T17:54:28Z</time>
  <course>0.0</course>
  <speed>0.0</speed>
  <fix>3d</fix>
</trkpt>
<trkpt lat="40.0713749" lon="-105.229789">
  <ele>1583.0</ele>
  <time>2026-08-28T17:54:28Z</time>
  <course>247.17</course>
  <speed>0.0</speed>
  <fix>3d</fix>
</trkpt>
<trkpt lat="40.0713749" lon="-105.229789">
  <ele>1583.0</ele>
  <time>2026-08-28T17:54:28Z</time>
  <course>0.0</course>
  <speed>0.0</speed>
  <fix>3d</fix>
</trkpt>
<trkpt lat="40.0713749" lon="-105.229789">
  <ele>1583.0</ele>
  <time>2026-08-28T17:54:28Z</time>
  <course>247.24</course>
  <speed>0.0</speed>
  <fix>3d</fix>
</trkpt>
<trkpt lat="40.0713749" lon="-105.229789">
  <ele>1583.0</ele>
  <time>2026-08-28T17:54:28Z</time>
  <course>0.0</course>
  <speed>0.0</speed>
  <fix>3d</fix>
</trkpt>
<trkpt lat="40.0713749" lon="-105.229789">
  <ele>1583.0</ele>
  <time>2026-08-28T17:54:28Z</time>
  <course>247.3</course>
  <speed>0.0</speed>
  <fix>3d</fix>
</trkpt>
<trkpt lat="40.0713749" lon="-105.229789">
  <ele>1583.0</ele>
  <time>2026-08-28T17:54:28Z</time>
  <course>0.0</course>
  <speed>0.0</speed>
  <fix>3d</fix>
</trkpt>
<trkpt lat="40.0713749" lon="-105.229789">
  <ele>1583.0</ele>
  <time>2026-08-28T17:54:28Z</time>
  <course>247.36</course>
  <speed>0.0</speed>
  <fix>3d</fix>
</trkpt>
<trkpt lat="40.0713749" lon="-105.229789">
  <ele>1583.0</ele>
  <time>2026-08-28T17:54:28Z</time>
  <course>0.0</course>
  <speed>0.0</speed>
  <fix>3d</fix>
</trkpt>
<trkpt lat="40.0713749" lon="-105.229789">
  <ele>1583.0</ele>
  <time>2026-08-28T17:54:28Z</time>
  <course>247.42</course>
  <speed>0.0</speed>
  <fix>3d</fix>
</trkpt>
<trkpt lat="40.0713749" lon="-105.229789">
  <ele>1583.0</ele>
  <time>2026-08-28T17:54:28Z</time>
  <course>0.0</course>
  <speed>0.0</speed>
  <fix>3d</fix>
</trkpt>
<trkpt lat="40.0713749" lon="-105.229789">
  <ele>1583.0</ele>
  <time>2026-08-28T17:54:28Z</time>
  <course>247.47</course>
  <speed>0.0</speed>
  <fix>3d</fix>
</trkpt>
<trkpt lat="40.0713749" lon="-105.229789">
  <ele>1583.0</ele>
  <time>2026-08-28T17:54:28Z</time>
  <course>0.0</course>
  <speed>0.0</speed>
  <fix>3d</fix>
</trkpt>
<trkpt lat="40.0713749" lon="-105.229789">
  <ele>1583.0</ele>
  <time>2026-08-28T17:54:28Z</time>
  <course>247.53</course>
  <speed>0.0</speed>
  <fix>3d</fix>
</trkpt>
<trkpt lat="40.0713749" lon="-105.229789">
  <ele>1583.0</ele>
  <time>2026-08-28T17:54:28Z</time>
  <course>0.0</course>
  <speed>0.0</speed>
  <fix>3d</fix>
</trkpt>
<trkpt lat="40.0713749" lon="-105.229789">
  <ele>1583.0</ele>
  <time>2026-08-28T17:54:28Z</time>
  <course>247.58</course>
  <speed>0.0</speed>
  <fix>3d</fix>
</trkpt>
<trkpt lat="40.0713749" lon="-105.229789">
  <ele>1583.0</ele>
  <time>2026-08-28T17:54:28Z</time>
  <course>0.0</course>
  <speed>0.0</speed>
  <fix>3d</fix>
</trkpt>
<trkpt lat="40.0713749" lon="-105.229789">
  <ele>1583.0</ele>
  <time>2026-08-28T17:54:28Z</time>
  <course>247.63</course>
  <speed>0.0</speed>
  <fix>3d</fix>
</trkpt>
<trkpt lat="40.0713749" lon="-105.229789">
  <ele>1583.0</ele>
  <time>2026-08-28T17:54:28Z</time>
  <course>0.0</course>
  <speed>0.0</speed>
  <fix>3d</fix>
</trkpt>
<trkpt lat="40.0713749" lon="-105.229789">
  <ele>1583.0</ele>
  <time>2026-08-28T17:54:28Z</time>
  <course>247.67</course>
  <speed>0.0</speed>
  <fix>3d</fix>
</trkpt>
<trkpt lat="40.0713749" lon="-105.229789">
  <ele>1583.0</ele>
  <time>2026-08-28T17:54:28Z</time>
  <course>0.0</course>
  <speed>0.0</speed>
  <fix>3d</fix>
</trkpt>
<trkpt lat="40.0713749" lon="-105.229789">
  <ele>1583.0</ele>
  <time>2026-08-28T17:54:28Z</time>
  <course>247.72</course>
  <speed>0.0</speed>
  <fix>3d</fix>
</trkpt>
<trkpt lat="40.0713749" lon="-105.229789">
  <ele>1583.0</ele>
  <time>2026-08-28T17:54:28Z</time>
  <course>0.0</course>
  <speed>0.0</speed>
  <fix>3d</fix>
</trkpt>
<trkpt lat="40.0713749" lon="-105.229789">
  <ele>1583.0</ele>
  <time>2026-08-28T17:54:28Z</time>
  <course>247.76</course>
  <speed>0.0</speed>
  <fix>3d</fix>
</trkpt>
<trkpt lat="40.0713749" lon="-105.229789">
  <ele>1583.0</ele>
  <time>2026-08-28T17:54:28Z</time>
  <course>0.0</course>
  <speed>0.0</speed>
  <fix>3d</fix>
</trkpt>
<trkpt lat="40.0713749" lon="-105.229789">
  <ele>1583.0</ele>
  <time>2026-08-28T17:54:28Z</time>
  <course>247.8</course>
  <speed>0.0</speed>
  <fix>3d</fix>
</trkpt>
<trkpt lat="40.0713749" lon="-105.229789">
  <ele>1583.0</ele>
  <time>2026-08-28T17:54:28Z</time>
  <course>0.0</course>
  <speed>0.0</speed>
  <fix>3d</fix>
</trkpt>
<trkpt lat="40.0713749" lon="-105.229789">
  <ele>1583.0</ele>
  <time>2026-08-28T17:54:28Z</time>
  <course>247.83</course>
  <speed>0.0</speed>
  <fix>3d</fix>
</trkpt>
<trkpt lat="40.0713749" lon="-105.229789">
  <ele>1583.0</ele>
  <time>2026-08-28T17:54:28Z</time>
  <course>0.0</course>
  <speed>0.0</speed>
  <fix>3d</fix>
</trkpt>
<trkpt lat="40.0713749" lon="-105.229789">
  <ele>1583.0</ele>
  <time>2026-08-28T17:54:28Z</time>
  <course>247.87</course>
  <speed>0.0</speed>
  <fix>3d</fix>
</trkpt>
<trkpt lat="40.0713749" lon="-105.229789">
  <ele>1583.0</ele>
  <time>2026-08-28T17:54:28Z</time>
  <course>0.0</course>
  <speed>0.0</speed>
  <fix>3d</fix>
</trkpt>
<trkpt lat="40.0713749" lon="-105.229789">
  <ele>1583.0</ele>
  <time>2026-08-28T17:54:28Z</time>
  <course>247.9</course>
  <speed>0.0</speed>
  <fix>3d</fix>
</trkpt>
<trkpt lat="40.0713749" lon="-105.229789">
  <ele>1583.0</ele>
  <time>2026-08-28T17:54:28Z</time>
  <course>0.0</course>
  <speed>0.0</speed>
  <fix>3d</fix>
</trkpt>
<trkpt lat="40.0713749" lon="-105.229789">
  <ele>1583.0</ele>
  <time>2026-08-28T17:54:28Z</time>
  <course>247.94</course>
  <speed>0.0</speed>
  <fix>3d</fix>
</trkpt>
<trkpt lat="40.0713749" lon="-105.229789">
  <ele>1583.0</ele>
  <time>2026-08-28T17:54:28Z</time>
  <course>0.0</course>
  <speed>0.0</speed>
  <fix>3d</fix>
</trkpt>
<trkpt lat="40.0713749" lon="-105.229789">
  <ele>1583.0</ele>
  <time>2026-08-28T17:54:28Z</time>
  <course>247.97</course>
  <speed>0.0</speed>
  <fix>3d</fix>
</trkpt>
<trkpt lat="40.0713749" lon="-105.229789">
  <ele>1583.0</ele>
  <time>2026-08-28T17:54:28Z</time>
  <course>0.0</course>
  <speed>0.0</speed>
  <fix>3d</fix>
</trkpt>
<trkpt lat="40.0713749" lon="-105.229789">
  <ele>1583.0</ele>
  <time>2026-08-28T17:54:28Z</time>
  <course>248.0</course>
  <speed>0.0</speed>
  <fix>3d</fix>
</trkpt>
<trkpt lat="40.0713749" lon="-105.229789">
  <ele>1583.0</ele>
  <time>2026-08-28T17:54:28Z</time>
  <course>0.0</course>
  <speed>0.0</speed>
  <fix>3d</fix>
</trkpt>
<trkpt lat="40.0713749" lon="-105.229789">
  <ele>1583.0</ele>
  <time>2026-08-28T17:54:28Z</time>
  <course>248.02</course>
  <speed>0.0</speed>
  <fix>3d</fix>
</trkpt>
<trkpt lat="40.0713749" lon="-105.229789">
  <ele>1583.0</ele>
  <time>2026-08-28T17:54:28Z</time>
  <course>0.0</course>
  <speed>0.0</speed>
  <fix>3d</fix>
</trkpt>
<trkpt lat="40.0713749" lon="-105.229789">
  <ele>1583.0</ele>
  <time>2026-08-28T17:54:28Z</time>
  <course>248.05</course>
  <speed>0.0</speed>
  <fix>3d</fix>
</trkpt>
<trkpt lat="40.0713749" lon="-105.229789">
  <ele>1583.0</ele>
  <time>2026-08-28T17:54:28Z</time>
  <course>0.0</course>
  <speed>0.0</speed>
  <fix>3d</fix>
</trkpt>
<trkpt lat="40.0713749" lon="-105.229789">
  <ele>1583.0</ele>
  <time>2026-08-28T17:54:28Z</time>
  <course>248.08</course>
  <speed>0.0</speed>
  <fix>3d</fix>
</trkpt>
<trkpt lat="40.0713749" lon="-105.229789">
  <ele>1583.0</ele>
  <time>2026-08-28T17:54:28Z</time>
  <course>0.0</course>
  <speed>0.0</speed>
  <fix>3d</fix>
</trkpt>
<trkpt lat="40.0713749" lon="-105.229789">
  <ele>1583.0</ele>
  <time>2026-08-28T17:54:28Z</time>
  <course>248.1</course>
  <speed>0.0</speed>
  <fix>3d</fix>
</trkpt>
<trkpt lat="40.0713749" lon="-105.229789">
  <ele>1583.0</ele>
  <time>2026-08-28T17:54:28Z</time>
  <course>0.0</course>
  <speed>0.0</speed>
  <fix>3d</fix>
</trkpt>
<trkpt lat="40.0713749" lon="-105.229789">
  <ele>1583.0</ele>
  <time>2026-08-28T17:54:28Z</time>
  <course>248.12</course>
  <speed>0.0</speed>
  <fix>3d</fix>
</trkpt>
<trkpt lat="40.0713749" lon="-105.229789">
  <ele>1583.0</ele>
  <time>2026-08-28T17:54:28Z</time>
  <course>0.0</course>
  <speed>0.0</speed>
  <fix>3d</fix>
</trkpt>
<trkpt lat="40.0713749" lon="-105.229789">
  <ele>1583.0</ele>
  <time>2026-08-28T17:54:28Z</time>
  <course>248.14</course>
  <speed>0.0</speed>
  <fix>3d</fix>
</trkpt>
<trkpt lat="40.0713749" lon="-105.229789">
  <ele>1583.0</ele>
  <time>2026-08-28T17:54:28Z</time>
  <course>0.0</course>
  <speed>0.0</speed>
  <fix>3d</fix>
</trkpt>
<trkpt lat="40.0713749" lon="-105.229789">
  <ele>1583.0</ele>
  <time>2026-08-28T17:54:28Z</time>
  <course>248.16</course>
  <speed>0.0</speed>
  <fix>3d</fix>
</trkpt>
<trkpt lat="40.0713749" lon="-105.229789">
  <ele>1583.0</ele>
  <time>2026-08-28T17:54:28Z</time>
  <course>0.0</course>
  <speed>0.0</speed>
  <fix>3d</fix>
</trkpt>
<trkpt lat="40.0713749" lon="-105.229789">
  <ele>1583.0</ele>
  <time>2026-08-28T17:54:28Z</time>
  <course>248.18</course>
  <speed>0.0</speed>
  <fix>3d</fix>
</trkpt>
<trkpt lat="40.0713749" lon="-105.229789">
  <ele>1583.0</ele>
  <time>2026-08-28T17:54:28Z</time>
  <course>0.0</course>
  <speed>0.0</speed>
  <fix>3d</fix>
</trkpt>
<trkpt lat="40.0713749" lon="-105.229789">
  <ele>1583.0</ele>
  <time>2026-08-28T17:54:28Z</time>
  <course>248.2</course>
  <speed>0.0</speed>
  <fix>3d</fix>
</trkpt>
<trkpt lat="40.0713749" lon="-105.229789">
  <ele>1583.0</ele>
  <time>2026-08-28T17:54:28Z</time>
  <course>0.0</course>
  <speed>0.0</speed>
  <fix>3d</fix>
</trkpt>
<trkpt lat="40.0713749" lon="-105.229789">
  <ele>1583.0</ele>
  <time>2026-08-28T17:54:28Z</time>
  <course>248.22</course>
  <speed>0.0</speed>
  <fix>3d</fix>
</trkpt>
<trkpt lat="40.0713749" lon="-105.229789">
  <ele>1583.0</ele>
  <time>2026-08-28T17:54:28Z</time>
  <course>0.0</course>
  <speed>0.0</speed>
  <fix>3d</fix>
</trkpt>
<trkpt lat="40.0713749" lon="-105.229789">
  <ele>1583.0</ele>
  <time>2026-08-28T17:54:28Z</time>
  <course>248.23</course>
  <speed>0.0</speed>
  <fix>3d</fix>
</trkpt>
<trkpt lat="40.0713749" lon="-105.229789">
  <ele>1583.0</ele>
  <time>2026-08-28T17:54:28Z</time>
  <course>0.0</course>
  <speed>0.0</speed>
  <fix>3d</fix>
</trkpt>
<trkpt lat="40.0713749" lon="-105.229789">
  <ele>1583.0</ele>
  <time>2026-08-28T17:54:28Z</time>
  <course>248.25</course>
  <speed>0.0</speed>
  <fix>3d</fix>
</trkpt>
<trkpt lat="40.0713749" lon="-105.229789">
  <ele>1583.0</ele>
  <time>2026-08-28T17:54:28Z</time>
  <course>0.0</course>
  <speed>0.0</speed>
  <fix>3d</fix>
</trkpt>
<trkpt lat="40.0713749" lon="-105.229789">
  <ele>1583.0</ele>
  <time>2026-08-28T17:54:28Z</time>
  <course>248.26</course>
  <speed>0.0</speed>
  <fix>3d</fix>
</trkpt>
<trkpt lat="40.0713749" lon="-105.229789">
  <ele>1583.0</ele>
  <time>2026-08-28T17:54:28Z</time>
  <course>0.0</course>
  <speed>0.0</speed>
  <fix>3d</fix>
</trkpt>
<trkpt lat="40.0713749" lon="-105.229789">
  <ele>1583.0</ele>
  <time>2026-08-28T17:54:28Z</time>
  <course>248.28</course>
  <speed>0.0</speed>
  <fix>3d</fix>
</trkpt>
<trkpt lat="40.0713749" lon="-105.229789">
  <ele>1583.0</ele>
  <time>2026-08-28T17:54:28Z</time>
  <course>0.0</course>
  <speed>0.0</speed>
  <fix>3d</fix>
</trkpt>
<trkpt lat="40.0713749" lon="-105.229789">
  <ele>1583.0</ele>
  <time>2026-08-28T17:54:28Z</time>
  <course>248.29</course>
  <speed>0.0</speed>
  <fix>3d</fix>
</trkpt>
<trkpt lat="40.0713749" lon="-105.229789">
  <ele>1583.0</ele>
  <time>2026-08-28T17:54:28Z</time>
  <course>0.0</course>
  <speed>0.0</speed>
  <fix>3d</fix>
</trkpt>
<trkpt lat="40.0713749" lon="-105.229789">
  <ele>1583.0</ele>
  <time>2026-08-28T17:54:28Z</time>
  <course>248.3</course>
  <speed>0.0</speed>
  <fix>3d</fix>
</trkpt>
<trkpt lat="40.0713749" lon="-105.229789">
  <ele>1583.0</ele>
  <time>2026-08-28T17:54:28Z</time>
  <course>0.0</course>
  <speed>0.0</speed>
  <fix>3d</fix>
</trkpt>
<trkpt lat="40.0713749" lon="-105.229789">
  <ele>1583.0</ele>
  <time>2026-08-28T17:54:28Z</time>
  <course>248.31</course>
  <speed>0.0</speed>
  <fix>3d</fix>
</trkpt>
<trkpt lat="40.0713749" lon="-105.229789">
  <ele>1583.0</ele>
  <time>2026-08-28T17:54:28Z</time>
  <course>0.0</course>
  <speed>0.0</speed>
  <fix>3d</fix>
</trkpt>
<trkpt lat="40.0713749" lon="-105.229789">
  <ele>1583.0</ele>
  <time>2026-08-28T17:54:28Z</time>
  <course>248.32</course>
  <speed>0.0</speed>
  <fix>3d</fix>
</trkpt>
<trkpt lat="40.0713749" lon="-105.229789">
  <ele>1583.0</ele>
  <time>2026-08-28T17:54:28Z</time>
  <course>0.0</course>
  <speed>0.0</speed>
  <fix>3d</fix>
</trkpt>
<trkpt lat="40.0713749" lon="-105.229789">
  <ele>1583.0</ele>
  <time>2026-08-28T17:54:28Z</time>
  <course>248.33</course>
  <speed>0.0</speed>
  <fix>3d</fix>
</trkpt>
<trkpt lat="40.0713749" lon="-105.229789">
  <ele>1583.0</ele>
  <time>2026-08-28T17:54:28Z</time>
  <course>0.0</course>
  <speed>0.0</speed>
  <fix>3d</fix>
</trkpt>
<trkpt lat="40.0713749" lon="-105.229789">
  <ele>1583.0</ele>
  <time>2026-08-28T17:54:28Z</time>
  <course>248.34</course>
  <speed>0.0</speed>
  <fix>3d</fix>
</trkpt>
<trkpt lat="40.0713749" lon="-105.229789">
  <ele>1583.0</ele>
  <time>2026-08-28T17:54:28Z</time>
  <course>0.0</course>
  <speed>0.0</speed>
  <fix>3d</fix>
</trkpt>
<trkpt lat="40.0713749" lon="-105.229789">
  <ele>1583.0</ele>
  <time>2026-08-28T17:54:28Z</time>
  <course>248.35</course>
  <speed>0.0</speed>
  <fix>3d</fix>
</trkpt>
<trkpt lat="40.0713749" lon="-105.229789">
  <ele>1583.0</ele>
  <time>2026-08-28T17:54:28Z</time>
  <course>0.0</course>
  <speed>0.0</speed>
  <fix>3d</fix>
</trkpt>
<trkpt lat="40.0713749" lon="-105.229789">
  <ele>1583.0</ele>
  <time>2026-08-28T17:54:28Z</time>
  <course>248.35</course>
  <speed>0.0</speed>
  <fix>3d</fix>
</trkpt>
<trkpt lat="40.0713749" lon="-105.229789">
  <ele>1583.0</ele>
  <time>2026-08-28T17:54:28Z</time>
  <course>0.0</course>
  <speed>0.0</speed>
  <fix>3d</fix>
</trkpt>
<trkpt lat="40.0713749" lon="-105.229789">
  <ele>1583.0</ele>
  <time>2026-08-28T17:54:28Z</time>
  <course>248.36</course>
  <speed>0.0</speed>
  <fix>3d</fix>
</trkpt>
<trkpt lat="40.0713749" lon="-105.229789">
  <ele>1583.0</ele>
  <time>2026-08-28T17:54:28Z</time>
  <course>0.0</course>
  <speed>0.0</speed>
  <fix>3d</fix>
</trkpt>
<trkpt lat="40.0713749" lon="-105.229789">
  <ele>1583.0</ele>
  <time>2026-08-28T17:54:28Z</time>
  <course>248.37</course>
  <speed>0.0</speed>
  <fix>3d</fix>
</trkpt>
<trkpt lat="40.0713749" lon="-105.229789">
  <ele>1583.0</ele>
  <time>2026-08-28T17:54:28Z</time>
  <course>0.0</course>
  <speed>0.0</speed>
  <fix>3d</fix>
</trkpt>
<trkpt lat="40.0713749" lon="-105.229789">
  <ele>1583.0</ele>
  <time>2026-08-28T17:54:28Z</time>
  <course>248.37</course>
  <speed>0.0</speed>
  <fix>3d</fix>
</trkpt>
<trkpt lat="40.0713749" lon="-105.229789">
  <ele>1583.0</ele>
  <time>2026-08-28T17:54:28Z</time>
  <course>0.0</course>
  <speed>0.0</speed>
  <fix>3d</fix>
</trkpt>
<trkpt lat="40.0713749" lon="-105.229789">
  <ele>1583.0</ele>
  <time>2026-08-28T17:54:28Z</time>
  <course>248.38</course>
  <speed>0.0</speed>
  <fix>3d</fix>
</trkpt>
<trkpt lat="40.0713749" lon="-105.229789">
  <ele>1583.0</ele>
  <time>2026-08-28T17:54:28Z</time>
  <course>0.0</course>
  <speed>0.0</speed>
  <fix>3d</fix>
</trkpt>
<trkpt lat="40.0713749" lon="-105.229789">
  <ele>1583.0</ele>
  <time>2026-08-28T17:54:28Z</time>
  <course>248.38</course>
  <speed>0.0</speed>
  <fix>3d</fix>
</trkpt>
<trkpt lat="40.0713749" lon="-105.229789">
  <ele>1583.0</ele>
  <time>2026-08-28T17:54:28Z</time>
  <course>0.0</course>
  <speed>0.0</speed>
  <fix>3d</fix>
</trkpt>
<trkpt lat="40.0713749" lon="-105.229789">
  <ele>1583.0</ele>
  <time>2026-08-28T17:54:28Z</time>
  <course>248.39</course>
  <speed>0.0</speed>
  <fix>3d</fix>
</trkpt>
<trkpt lat="40.0713749" lon="-105.229789">
  <ele>1583.0</ele>
  <time>2026-08-28T17:54:28Z</time>
  <course>0.0</course>
  <speed>0.0</speed>
  <fix>3d</fix>
</trkpt>
<trkpt lat="40.0713749" lon="-105.229789">
  <ele>1583.0</ele>
  <time>2026-08-28T17:54:28Z</time>
  <course>248.39</course>
  <speed>0.0</speed>
  <fix>3d</fix>
</trkpt>
<trkpt lat="40.0713749" lon="-105.229789">
  <ele>1583.0</ele>
  <time>2026-08-28T17:54:28Z</time>
  <course>0.0</course>
  <speed>0.0</speed>
  <fix>3d</fix>
</trkpt>
<trkpt lat="40.0713749" lon="-105.229789">
  <ele>1583.0</ele>
  <time>2026-08-28T17:54:28Z</time>
  <course>248.4</course>
  <speed>0.0</speed>
  <fix>3d</fix>
</trkpt>
<trkpt lat="40.0713749" lon="-105.229789">
  <ele>1583.0</ele>
  <time>2026-08-28T17:54:28Z</time>
  <course>0.0</course>
  <speed>0.0</speed>
  <fix>3d</fix>
</trkpt>
<trkpt lat="40.0713749" lon="-105.229789">
  <ele>1583.0</ele>
  <time>2026-08-28T17:54:28Z</time>
  <course>248.4</course>
  <speed>0.0</speed>
  <fix>3d</fix>
</trkpt>
<trkpt lat="40.0713749" lon="-105.229789">
  <ele>1583.0</ele>
  <time>2026-08-28T17:54:28Z</time>
  <course>0.0</course>
  <speed>0.0</speed>
  <fix>3d</fix>
</trkpt>
<trkpt lat="40.0713749" lon="-105.229789">
  <ele>1583.0</ele>
  <time>2026-08-28T17:54:28Z</time>
  <course>248.4</course>
  <speed>0.0</speed>
  <fix>3d</fix>
</trkpt>
<trkpt lat="40.0713749" lon="-105.229789">
  <ele>1583.0</ele>
  <time>2026-08-28T17:54:28Z</time>
  <course>0.0</course>
  <speed>0.0</speed>
  <fix>3d</fix>
</trkpt>
<trkpt lat="40.0713749" lon="-105.229789">
  <ele>1583.0</ele>
  <time>2026-08-28T17:54:28Z</time>
  <course>248.4</course>
  <speed>0.0</speed>
  <fix>3d</fix>
</trkpt>
<trkpt lat="40.0713749" lon="-105.229789">
  <ele>1583.0</ele>
  <time>2026-08-28T17:54:28Z</time>
  <course>0.0</course>
  <speed>0.0</speed>
  <fix>3d</fix>
</trkpt>
<trkpt lat="40.0713749" lon="-105.229789">
  <ele>1583.0</ele>
  <time>2026-08-28T17:54:28Z</time>
  <course>248.41</course>
  <speed>0.0</speed>
  <fix>3d</fix>
</trkpt>
<trkpt lat="40.0713749" lon="-105.229789">
  <ele>1583.0</ele>
  <time>2026-08-28T17:54:28Z</time>
  <course>0.0</course>
  <speed>0.0</speed>
  <fix>3d</fix>
</trkpt>
<trkpt lat="40.0713749" lon="-105.229789">
  <ele>1583.0</ele>
  <time>2026-08-28T17:54:28Z</time>
  <course>248.41</course>
  <speed>0.0</speed>
  <fix>3d</fix>
</trkpt>
<trkpt lat="40.0713749" lon="-105.229789">
  <ele>1583.0</ele>
  <time>2026-08-28T17:54:28Z</time>
  <course>0.0</course>
  <speed>0.0</speed>
  <fix>3d</fix>
</trkpt>
<trkpt lat="40.0713749" lon="-105.229789">
  <ele>1583.0</ele>
  <time>2026-08-28T17:54:28Z</time>
  <course>248.41</course>
  <speed>0.0</speed>
  <fix>3d</fix>
</trkpt>
<trkpt lat="40.0713749" lon="-105.229789">
  <ele>1583.0</ele>
  <time>2026-08-28T17:54:28Z</time>
  <course>0.0</course>
  <speed>0.0</speed>
  <fix>3d</fix>
</trkpt>
<trkpt lat="40.0713749" lon="-105.229789">
  <ele>1583.0</ele>
  <time>2026-08-28T17:54:28Z</time>
  <course>248.41</course>
  <speed>0.0</speed>
  <fix>3d</fix>
</trkpt>
<trkpt lat="40.0713749" lon="-105.229789">
  <ele>1583.0</ele>
  <time>2026-08-28T17:54:28Z</time>
  <course>0.0</course>
  <speed>0.0</speed>
  <fix>3d</fix>
</trkpt>
<trkpt lat="40.0713749" lon="-105.229789">
  <ele>1583.0</ele>
  <time>2026-08-28T17:54:28Z</time>
  <course>248.41</course>
  <speed>0.0</speed>
  <fix>3d</fix>
</trkpt>
<trkpt lat="40.0713749" lon="-105.229789">
  <ele>1583.0</ele>
  <time>2026-08-28T17:54:28Z</time>
  <course>0.0</course>
  <speed>0.0</speed>
  <fix>3d</fix>
</trkpt>
<trkpt lat="40.0713749" lon="-105.229789">
  <ele>1583.0</ele>
  <time>2026-08-28T17:54:28Z</time>
  <course>248.41</course>
  <speed>0.0</speed>
  <fix>3d</fix>
</trkpt>
<trkpt lat="40.0713749" lon="-105.229789">
  <ele>1583.0</ele>
  <time>2026-08-28T17:54:28Z</time>
  <course>0.0</course>
  <speed>0.0</speed>
  <fix>3d</fix>
</trkpt>
<trkpt lat="40.0713749" lon="-105.229789">
  <ele>1583.0</ele>
  <time>2026-08-28T17:54:28Z</time>
  <course>248.41</course>
  <speed>0.0</speed>
  <fix>3d</fix>
</trkpt>
<trkpt lat="40.0713749" lon="-105.229789">
  <ele>1583.0</ele>
  <time>2026-08-28T17:54:28Z</time>
  <course>0.0</course>
  <speed>0.0</speed>
  <fix>3d</fix>
</trkpt>
<trkpt lat="40.0713749" lon="-105.229789">
  <ele>1583.0</ele>
  <time>2026-08-28T17:54:28Z</time>
  <course>248.41</course>
  <speed>0.0</speed>
  <fix>3d</fix>
</trkpt>
<trkpt lat="40.0713749" lon="-105.229789">
  <ele>1583.0</ele>
  <time>2026-08-28T17:54:28Z</time>
  <course>0.0</course>
  <speed>0.0</speed>
  <fix>3d</fix>
</trkpt>
<trkpt lat="40.0713749" lon="-105.229789">
  <ele>1583.0</ele>
  <time>2026-08-28T17:54:28Z</time>
  <course>248.41</course>
  <speed>0.0</speed>
  <fix>3d</fix>
</trkpt>
<trkpt lat="40.0713749" lon="-105.229789">
  <ele>1583.0</ele>
  <time>2026-08-28T17:54:28Z</time>
  <course>0.0</course>
  <speed>0.0</speed>
  <fix>3d</fix>
</trkpt>
<trkpt lat="40.0713749" lon="-105.229789">
  <ele>1583.0</ele>
  <time>2026-08-28T17:54:28Z</time>
  <course>248.41</course>
  <speed>0.0</speed>
  <fix>3d</fix>
</trkpt>
<trkpt lat="40.0713749" lon="-105.229789">
  <ele>1583.0</ele>
  <time>2026-08-28T17:54:28Z</time>
  <course>0.0</course>
  <speed>0.0</speed>
  <fix>3d</fix>
</trkpt>
<trkpt lat="40.0713749" lon="-105.229789">
  <ele>1583.0</ele>
  <time>2026-08-28T17:54:28Z</time>
  <course>248.41</course>
  <speed>0.0</speed>
  <fix>3d</fix>
</trkpt>
<trkpt lat="40.0713749" lon="-105.229789">
  <ele>1583.0</ele>
  <time>2026-08-28T17:54:28Z</time>
  <course>0.0</course>
  <speed>0.0</speed>
  <fix>3d</fix>
</trkpt>
<trkpt lat="40.0713749" lon="-105.229789">
  <ele>1583.0</ele>
  <time>2026-08-28T17:54:28Z</time>
  <course>248.41</course>
  <speed>0.0</speed>
  <fix>3d</fix>
</trkpt>
<trkpt lat="40.0713749" lon="-105.229789">
  <ele>1583.0</ele>
  <time>2026-08-28T17:54:28Z</time>
  <course>0.0</course>
  <speed>0.0</speed>
  <fix>3d</fix>
</trkpt>
<trkpt lat="40.0713749" lon="-105.229789">
  <ele>1583.0</ele>
  <time>2026-08-28T17:54:28Z</time>
  <course>248.41</course>
  <speed>0.0</speed>
  <fix>3d</fix>
</trkpt>
<trkpt lat="40.0713749" lon="-105.229789">
  <ele>1583.0</ele>
  <time>2026-08-28T17:54:28Z</time>
  <course>0.0</course>
  <speed>0.0</speed>
  <fix>3d</fix>
</trkpt>
<trkpt lat="40.0713749" lon="-105.229789">
  <ele>1583.0</ele>
  <time>2026-08-28T17:54:28Z</time>
  <course>248.41</course>
  <speed>0.0</speed>
  <fix>3d</fix>
</trkpt>
<trkpt lat="40.0713749" lon="-105.229789">
  <ele>1583.0</ele>
  <time>2026-08-28T17:54:28Z</time>
  <course>0.0</course>
  <speed>0.0</speed>
  <fix>3d</fix>
</trkpt>
<trkpt lat="40.0713749" lon="-105.229789">
  <ele>1583.0</ele>
  <time>2026-08-28T17:54:28Z</time>
  <course>248.41</course>
  <speed>0.0</speed>
  <fix>3d</fix>
</trkpt>
<trkpt lat="40.0713749" lon="-105.229789">
  <ele>1583.0</ele>
  <time>2026-08-28T17:54:28Z</time>
  <course>0.0</course>
  <speed>0.0</speed>
  <fix>3d</fix>
</trkpt>
<trkpt lat="40.0713749" lon="-105.229789">
  <ele>1583.0</ele>
  <time>2026-08-28T17:54:28Z</time>
  <course>248.41</course>
  <speed>0.0</speed>
  <fix>3d</fix>
</trkpt>
<trkpt lat="40.0713749" lon="-105.229789">
  <ele>1583.0</ele>
  <time>2026-08-28T17:54:28Z</time>
  <course>0.0</course>
  <speed>0.0</speed>
  <fix>3d</fix>
</trkpt>
<trkpt lat="40.0713749" lon="-105.229789">
  <ele>1583.0</ele>
  <time>2026-08-28T17:54:28Z</time>
  <course>248.4</course>
  <speed>0.0</speed>
  <fix>3d</fix>
</trkpt>
<trkpt lat="40.0713749" lon="-105.229789">
  <ele>1583.0</ele>
  <time>2026-08-28T17:54:28Z</time>
  <course>0.0</course>
  <speed>0.0</speed>
  <fix>3d</fix>
</trkpt>
<trkpt lat="40.0713749" lon="-105.229789">
  <ele>1583.0</ele>
  <time>2026-08-28T17:54:28Z</time>
  <course>248.4</course>
  <speed>0.01</speed>
  <fix>3d</fix>
</trkpt>
<trkpt lat="40.0713749" lon="-105.229789">
  <ele>1583.0</ele>
  <time>2026-08-28T17:54:28Z</time>
  <course>0.0</course>
  <speed>0.0</speed>
  <fix>3d</fix>
</trkpt>
<trkpt lat="40.0713749" lon="-105.229789">
  <ele>1583.0</ele>
  <time>2026-08-28T17:54:28Z</time>
  <course>248.4</course>
  <speed>0.01</speed>
  <fix>3d</fix>
</trkpt>
<trkpt lat="40.0713749" lon="-105.229789">
  <ele>1583.0</ele>
  <time>2026-08-28T17:54:28Z</time>
  <course>0.0</course>
  <speed>0.0</speed>
  <fix>3d</fix>
</trkpt>
<trkpt lat="40.0713749" lon="-105.229789">
  <ele>1583.0</ele>
  <time>2026-08-28T17:54:28Z</time>
  <course>248.4</course>
  <speed>0.01</speed>
  <fix>3d</fix>
</trkpt>
<trkpt lat="40.0713749" lon="-105.229789">
  <ele>1583.0</ele>
  <time>2026-08-28T17:54:28Z</time>
  <course>0.0</course>
  <speed>0.0</speed>
  <fix>3d</fix>
</trkpt>
<trkpt lat="40.0713749" lon="-105.229789">
  <ele>1583.0</ele>
  <time>2026-08-28T17:54:28Z</time>
  <course>248.4</course>
  <speed>0.01</speed>
  <fix>3d</fix>
</trkpt>
<trkpt lat="40.0713749" lon="-105.229789">
  <ele>1583.0</ele>
  <time>2026-08-28T17:54:28Z</time>
  <course>0.0</course>
  <speed>0.0</speed>
  <fix>3d</fix>
</trkpt>
<trkpt lat="40.0713749" lon="-105.229789">
  <ele>1583.0</ele>
  <time>2026-08-28T17:54:28Z</time>
  <course>248.39</course>
  <speed>0.01</speed>
  <fix>3d</fix>
</trkpt>
<trkpt lat="40.0713749" lon="-105.229789">
  <ele>1583.0</ele>
  <time>2026-08-28T17:54:28Z</time>
  <course>0.0</course>
  <speed>0.0</speed>
  <fix>3d</fix>
</trkpt>
<trkpt lat="40.0713749" lon="-105.229789">
  <ele>1583.0</ele>
  <time>2026-08-28T17:54:28Z</time>
  <course>248.39</course>
  <speed>0.01</speed>
  <fix>3d</fix>
</trkpt>
<trkpt lat="40.0713749" lon="-105.229789">
  <ele>1583.0</ele>
  <time>2026-08-28T17:54:28Z</time>
  <course>0.0</course>
  <speed>0.0</speed>
  <fix>3d</fix>
</trkpt>
<trkpt lat="40.0713749" lon="-105.229789">
  <ele>1583.0</ele>
  <time>2026-08-28T17:54:28Z</time>
  <course>248.39</course>
  <speed>0.01</speed>
  <fix>3d</fix>
</trkpt>
<trkpt lat="40.0713749" lon="-105.229789">
  <ele>1583.0</ele>
  <time>2026-08-28T17:54:28Z</time>
  <course>0.0</course>
  <speed>0.0</speed>
  <fix>3d</fix>
</trkpt>
<trkpt lat="40.0713749" lon="-105.229789">
  <ele>1583.0</ele>
  <time>2026-08-28T17:54:28Z</time>
  <course>248.38</course>
  <speed>0.01</speed>
  <fix>3d</fix>
</trkpt>
<trkpt lat="40.0713749" lon="-105.229789">
  <ele>1583.0</ele>
  <time>2026-08-28T17:54:28Z</time>
  <course>0.0</course>
  <speed>0.0</speed>
  <fix>3d</fix>
</trkpt>
<trkpt lat="40.0713749" lon="-105.229789">
  <ele>1583.0</ele>
  <time>2026-08-28T17:54:28Z</time>
  <course>248.38</course>
  <speed>0.01</speed>
  <fix>3d</fix>
</trkpt>
<trkpt lat="40.0713749" lon="-105.229789">
  <ele>1583.0</ele>
  <time>2026-08-28T17:54:28Z</time>
  <course>0.0</course>
  <speed>0.0</speed>
  <fix>3d</fix>
</trkpt>
<trkpt lat="40.0713749" lon="-105.229789">
  <ele>1583.0</ele>
  <time>2026-08-28T17:54:28Z</time>
  <course>248.38</course>
  <speed>0.01</speed>
  <fix>3d</fix>
</trkpt>
<trkpt lat="40.0713749" lon="-105.229789">
  <ele>1583.0</ele>
  <time>2026-08-28T17:54:28Z</time>
  <course>0.0</course>
  <speed>0.0</speed>
  <fix>3d</fix>
</trkpt>
<trkpt lat="40.0713749" lon="-105.229789">
  <ele>1583.0</ele>
  <time>2026-08-28T17:54:28Z</time>
  <course>248.37</course>
  <speed>0.01</speed>
  <fix>3d</fix>
</trkpt>
<trkpt lat="40.0713749" lon="-105.229789">
  <ele>1583.0</ele>
  <time>2026-08-28T17:54:28Z</time>
  <course>0.0</course>
  <speed>0.0</speed>
  <fix>3d</fix>
</trkpt>
<trkpt lat="40.0713749" lon="-105.229789">
  <ele>1583.0</ele>
  <time>2026-08-28T17:54:28Z</time>
  <course>248.37</course>
  <speed>0.01</speed>
  <fix>3d</fix>
</trkpt>
<trkpt lat="40.0713749" lon="-105.229789">
  <ele>1583.0</ele>
  <time>2026-08-28T17:54:28Z</time>
  <course>0.0</course>
  <speed>0.0</speed>
  <fix>3d</fix>
</trkpt>
<trkpt lat="40.0713749" lon="-105.229789">
  <ele>1583.0</ele>
  <time>2026-08-28T17:54:28Z</time>
  <course>248.37</course>
  <speed>0.01</speed>
  <fix>3d</fix>
</trkpt>
<trkpt lat="40.0713749" lon="-105.229789">
  <ele>1583.0</ele>
  <time>2026-08-28T17:54:28Z</time>
  <course>0.0</course>
  <speed>0.0</speed>
  <fix>3d</fix>
</trkpt>
<trkpt lat="40.0713749" lon="-105.229789">
  <ele>1583.0</ele>
  <time>2026-08-28T17:54:28Z</time>
  <course>248.36</course>
  <speed>0.01</speed>
  <fix>3d</fix>
</trkpt>
<trkpt lat="40.0713749" lon="-105.229789">
  <ele>1583.0</ele>
  <time>2026-08-28T17:54:28Z</time>
  <course>0.0</course>
  <speed>0.0</speed>
  <fix>3d</fix>
</trkpt>
<trkpt lat="40.0713749" lon="-105.229789">
  <ele>1583.0</ele>
  <time>2026-08-28T17:54:28Z</time>
  <course>248.36</course>
  <speed>0.01</speed>
  <fix>3d</fix>
</trkpt>
<trkpt lat="40.0713749" lon="-105.229789">
  <ele>1583.0</ele>
  <time>2026-08-28T17:54:28Z</time>
  <course>0.0</course>
  <speed>0.0</speed>
  <fix>3d</fix>
</trkpt>
<trkpt lat="40.0713749" lon="-105.229789">
  <ele>1583.0</ele>
  <time>2026-08-28T17:54:28Z</time>
  <course>248.36</course>
  <speed>0.01</speed>
  <fix>3d</fix>
</trkpt>
<trkpt lat="40.0713749" lon="-105.229789">
  <ele>1583.0</ele>
  <time>2026-08-28T17:54:28Z</time>
  <course>0.0</course>
  <speed>0.0</speed>
  <fix>3d</fix>
</trkpt>
<trkpt lat="40.0713749" lon="-105.229789">
  <ele>1583.0</ele>
  <time>2026-08-28T17:54:28Z</time>
  <course>248.35</course>
  <speed>0.01</speed>
  <fix>3d</fix>
</trkpt>
<trkpt lat="40.0713749" lon="-105.229789">
  <ele>1583.0</ele>
  <time>2026-08-28T17:54:28Z</time>
  <course>0.0</course>
  <speed>0.0</speed>
  <fix>3d</fix>
</trkpt>
<trkpt lat="40.0713749" lon="-105.229789">
  <ele>1583.0</ele>
  <time>2026-08-28T17:54:28Z</time>
  <course>248.35</course>
  <speed>0.01</speed>
  <fix>3d</fix>
</trkpt>
<trkpt lat="40.0713749" lon="-105.229789">
  <ele>1583.0</ele>
  <time>2026-08-28T17:54:28Z</time>
  <course>0.0</course>
  <speed>0.0</speed>
  <fix>3d</fix>
</trkpt>
<trkpt lat="40.0713749" lon="-105.229789">
  <ele>1583.0</ele>
  <time>2026-08-28T17:54:28Z</time>
  <course>248.35</course>
  <speed>0.01</speed>
  <fix>3d</fix>
</trkpt>
<trkpt lat="40.0713749" lon="-105.229789">
  <ele>1583.0</ele>
  <time>2026-08-28T17:54:28Z</time>
  <course>0.0</course>
  <speed>0.0</speed>
  <fix>3d</fix>
</trkpt>
<trkpt lat="40.0713749" lon="-105.229789">
  <ele>1583.0</ele>
  <time>2026-08-28T17:54:28Z</time>
  <course>248.34</course>
  <speed>0.01</speed>
  <fix>3d</fix>
</trkpt>
<trkpt lat="40.0713749" lon="-105.229789">
  <ele>1583.0</ele>
  <time>2026-08-28T17:54:28Z</time>
  <course>0.0</course>
  <speed>0.0</speed>
  <fix>3d</fix>
</trkpt>
<trkpt lat="40.0713749" lon="-105.229789">
  <ele>1583.0</ele>
  <time>2026-08-28T17:54:28Z</time>
  <course>248.34</course>
  <speed>0.01</speed>
  <fix>3d</fix>
</trkpt>
<trkpt lat="40.0713749" lon="-105.229789">
  <ele>1583.0</ele>
  <time>2026-08-28T17:54:28Z</time>
  <course>0.0</course>
  <speed>0.0</speed>
  <fix>3d</fix>
</trkpt>
<trkpt lat="40.0713749" lon="-105.229789">
  <ele>1583.0</ele>
  <time>2026-08-28T17:54:28Z</time>
  <course>248.33</course>
  <speed>0.01</speed>
  <fix>3d</fix>
</trkpt>
<trkpt lat="40.0713749" lon="-105.229789">
  <ele>1583.0</ele>
  <time>2026-08-28T17:54:28Z</time>
  <course>0.0</course>
  <speed>0.0</speed>
  <fix>3d</fix>
</trkpt>
<trkpt lat="40.0713749" lon="-105.229789">
  <ele>1583.0</ele>
  <time>2026-08-28T17:54:28Z</time>
  <course>248.33</course>
  <speed>0.01</speed>
  <fix>3d</fix>
</trkpt>
<trkpt lat="40.0713749" lon="-105.229789">
  <ele>1583.0</ele>
  <time>2026-08-28T17:54:28Z</time>
  <course>0.0</course>
  <speed>0.0</speed>
  <fix>3d</fix>
</trkpt>
<trkpt lat="40.0713749" lon="-105.229789">
  <ele>1583.0</ele>
  <time>2026-08-28T17:54:28Z</time>
  <course>248.32</course>
  <speed>0.01</speed>
  <fix>3d</fix>
</trkpt>
<trkpt lat="40.0713749" lon="-105.229789">
  <ele>1583.0</ele>
  <time>2026-08-28T17:54:28Z</time>
  <course>0.0</course>
  <speed>0.0</speed>
  <fix>3d</fix>
</trkpt>
<trkpt lat="40.0713749" lon="-105.229789">
  <ele>1583.0</ele>
  <time>2026-08-28T17:54:28Z</time>
  <course>248.32</course>
  <speed>0.01</speed>
  <fix>3d</fix>
</trkpt>
<trkpt lat="40.0713749" lon="-105.229789">
  <ele>1583.0</ele>
  <time>2026-08-28T17:54:28Z</time>
  <course>0.0</course>
  <speed>0.0</speed>
  <fix>3d</fix>
</trkpt>
<trkpt lat="40.0713749" lon="-105.229789">
  <ele>1583.0</ele>
  <time>2026-08-28T17:54:28Z</time>
  <course>248.32</course>
  <speed>0.01</speed>
  <fix>3d</fix>
</trkpt>
<trkpt lat="40.0713749" lon="-105.229789">
  <ele>1583.0</ele>
  <time>2026-08-28T17:54:28Z</time>
  <course>0.0</course>
  <speed>0.0</speed>
  <fix>3d</fix>
</trkpt>
<trkpt lat="40.0713749" lon="-105.229789">
  <ele>1583.0</ele>
  <time>2026-08-28T17:54:28Z</time>
  <course>248.31</course>
  <speed>0.01</speed>
  <fix>3d</fix>
</trkpt>
<trkpt lat="40.0713749" lon="-105.229789">
  <ele>1583.0</ele>
  <time>2026-08-28T17:54:28Z</time>
  <course>0.0</course>
  <speed>0.0</speed>
  <fix>3d</fix>
</trkpt>
<trkpt lat="40.0713749" lon="-105.229789">
  <ele>1583.0</ele>
  <time>2026-08-28T17:54:28Z</time>
  <course>248.31</course>
  <speed>0.01</speed>
  <fix>3d</fix>
</trkpt>
<trkpt lat="40.0713749" lon="-105.229789">
  <ele>1583.0</ele>
  <time>2026-08-28T17:54:28Z</time>
  <course>0.0</course>
  <speed>0.0</speed>
  <fix>3d</fix>
</trkpt>
<trkpt lat="40.0713749" lon="-105.229789">
  <ele>1583.0</ele>
  <time>2026-08-28T17:54:28Z</time>
  <course>248.3</course>
  <speed>0.01</speed>
  <fix>3d</fix>
</trkpt>
<trkpt lat="40.0713749" lon="-105.229789">
  <ele>1583.0</ele>
  <time>2026-08-28T17:54:28Z</time>
  <course>0.0</course>
  <speed>0.0</speed>
  <fix>3d</fix>
</trkpt>
<trkpt lat="40.0713749" lon="-105.229789">
  <ele>1583.0</ele>
  <time>2026-08-28T17:54:28Z</time>
  <course>248.3</course>
  <speed>0.01</speed>
  <fix>3d</fix>
</trkpt>
<trkpt lat="40.0713749" lon="-105.229789">
  <ele>1583.0</ele>
  <time>2026-08-28T17:54:28Z</time>
  <course>0.0</course>
  <speed>0.0</speed>
  <fix>3d</fix>
</trkpt>
<trkpt lat="40.0713749" lon="-105.229789">
  <ele>1583.0</ele>
  <time>2026-08-28T17:54:28Z</time>
  <course>248.29</course>
  <speed>0.01</speed>
  <fix>3d</fix>
</trkpt>
<trkpt lat="40.0713749" lon="-105.229789">
  <ele>1583.0</ele>
  <time>2026-08-28T17:54:28Z</time>
  <course>0.0</course>
  <speed>0.0</speed>
  <fix>3d</fix>
</trkpt>
<trkpt lat="40.0713749" lon="-105.229789">
  <ele>1583.0</ele>
  <time>2026-08-28T17:54:28Z</time>
  <course>248.29</course>
  <speed>0.01</speed>
  <fix>3d</fix>
</trkpt>
<trkpt lat="40.0713749" lon="-105.229789">
  <ele>1583.0</ele>
  <time>2026-08-28T17:54:28Z</time>
  <course>0.0</course>
  <speed>0.0</speed>
  <fix>3d</fix>
</trkpt>
<trkpt lat="40.0713749" lon="-105.229789">
  <ele>1583.0</ele>
  <time>2026-08-28T17:54:28Z</time>
  <course>248.28</course>
  <speed>0.01</speed>
  <fix>3d</fix>
</trkpt>
<trkpt lat="40.0713749" lon="-105.229789">
  <ele>1583.0</ele>
  <time>2026-08-28T17:54:28Z</time>
  <course>0.0</course>
  <speed>0.0</speed>
  <fix>3d</fix>
</trkpt>
<trkpt lat="40.0713749" lon="-105.229789">
  <ele>1583.0</ele>
  <time>2026-08-28T17:54:28Z</time>
  <course>248.28</course>
  <speed>0.01</speed>
  <fix>3d</fix>
</trkpt>
<trkpt lat="40.0713749" lon="-105.229789">
  <ele>1583.0</ele>
  <time>2026-08-28T17:54:28Z</time>
  <course>0.0</course>
  <speed>0.0</speed>
  <fix>3d</fix>
</trkpt>
<trkpt lat="40.0713749" lon="-105.229789">
  <ele>1583.0</ele>
  <time>2026-08-28T17:54:28Z</time>
  <course>248.27</course>
  <speed>0.01</speed>
  <fix>3d</fix>
</trkpt>
<trkpt lat="40.0713749" lon="-105.229789">
  <ele>1583.0</ele>
  <time>2026-08-28T17:54:28Z</time>
  <course>0.0</course>
  <speed>0.0</speed>
  <fix>3d</fix>
</trkpt>
<trkpt lat="40.0713749" lon="-105.229789">
  <ele>1583.0</ele>
  <time>2026-08-28T17:54:28Z</time>
  <course>248.27</course>
  <speed>0.01</speed>
  <fix>3d</fix>
</trkpt>
<trkpt lat="40.0713749" lon="-105.229789">
  <ele>1583.0</ele>
  <time>2026-08-28T17:54:28Z</time>
  <course>0.0</course>
  <speed>0.0</speed>
  <fix>3d</fix>
</trkpt>
<trkpt lat="40.0713749" lon="-105.229789">
  <ele>1583.0</ele>
  <time>2026-08-28T17:54:28Z</time>
  <course>248.26</course>
  <speed>0.01</speed>
  <fix>3d</fix>
</trkpt>
<trkpt lat="40.0713749" lon="-105.229789">
  <ele>1583.0</ele>
  <time>2026-08-28T17:54:28Z</time>
  <course>0.0</course>
  <speed>0.0</speed>
  <fix>3d</fix>
</trkpt>
<trkpt lat="40.0713749" lon="-105.229789">
  <ele>1583.0</ele>
  <time>2026-08-28T17:54:28Z</time>
  <course>248.26</course>
  <speed>0.01</speed>
  <fix>3d</fix>
</trkpt>
<trkpt lat="40.0713749" lon="-105.229789">
  <ele>1583.0</ele>
  <time>2026-08-28T17:54:28Z</time>
  <course>0.0</course>
  <speed>0.0</speed>
  <fix>3d</fix>
</trkpt>
<trkpt lat="40.0713749" lon="-105.229789">
  <ele>1583.0</ele>
  <time>2026-08-28T17:54:28Z</time>
  <course>248.26</course>
  <speed>0.01</speed>
  <fix>3d</fix>
</trkpt>
<trkpt lat="40.0713749" lon="-105.229789">
  <ele>1583.0</ele>
  <time>2026-08-28T17:54:28Z</time>
  <course>0.0</course>
  <speed>0.0</speed>
  <fix>3d</fix>
</trkpt>
<trkpt lat="40.0713749" lon="-105.229789">
  <ele>1583.0</ele>
  <time>2026-08-28T17:54:28Z</time>
  <course>248.25</course>
  <speed>0.01</speed>
  <fix>3d</fix>
</trkpt>
<trkpt lat="40.0713749" lon="-105.229789">
  <ele>1583.0</ele>
  <time>2026-08-28T17:54:28Z</time>
  <course>0.0</course>
  <speed>0.0</speed>
  <fix>3d</fix>
</trkpt>
<trkpt lat="40.0713749" lon="-105.229789">
  <ele>1583.0</ele>
  <time>2026-08-28T17:54:28Z</time>
  <course>248.25</course>
  <speed>0.01</speed>
  <fix>3d</fix>
</trkpt>
<trkpt lat="40.0713749" lon="-105.229789">
  <ele>1583.0</ele>
  <time>2026-08-28T17:54:28Z</time>
  <course>0.0</course>
  <speed>0.0</speed>
  <fix>3d</fix>
</trkpt>
<trkpt lat="40.0713749" lon="-105.229789">
  <ele>1583.0</ele>
  <time>2026-08-28T17:54:28Z</time>
  <course>248.24</course>
  <speed>0.01</speed>
  <fix>3d</fix>
</trkpt>
<trkpt lat="40.0713749" lon="-105.229789">
  <ele>1583.0</ele>
  <time>2026-08-28T17:54:28Z</time>
  <course>0.0</course>
  <speed>0.0</speed>
  <fix>3d</fix>
</trkpt>
<trkpt lat="40.0713749" lon="-105.229789">
  <ele>1583.0</ele>
  <time>2026-08-28T17:54:28Z</time>
  <course>248.24</course>
  <speed>0.01</speed>
  <fix>3d</fix>
</trkpt>
<trkpt lat="40.0713749" lon="-105.229789">
  <ele>1583.0</ele>
  <time>2026-08-28T17:54:28Z</time>
  <course>0.0</course>
  <speed>0.0</speed>
  <fix>3d</fix>
</trkpt>
<trkpt lat="40.0713749" lon="-105.229789">
  <ele>1583.0</ele>
  <time>2026-08-28T17:54:28Z</time>
  <course>248.23</course>
  <speed>0.01</speed>
  <fix>3d</fix>
</trkpt>
<trkpt lat="40.0713749" lon="-105.229789">
  <ele>1583.0</ele>
  <time>2026-08-28T17:54:28Z</time>
  <course>0.0</course>
  <speed>0.0</speed>
  <fix>3d</fix>
</trkpt>
<trkpt lat="40.0713749" lon="-105.229789">
  <ele>1583.0</ele>
  <time>2026-08-28T17:54:28Z</time>
  <course>248.23</course>
  <speed>0.01</speed>
  <fix>3d</fix>
</trkpt>
<trkpt lat="40.0713749" lon="-105.229789">
  <ele>1583.0</ele>
  <time>2026-08-28T17:54:28Z</time>
  <course>0.0</course>
  <speed>0.0</speed>
  <fix>3d</fix>
</trkpt>
<trkpt lat="40.0713749" lon="-105.229789">
  <ele>1583.0</ele>
  <time>2026-08-28T17:54:29Z</time>
  <course>248.22</course>
  <speed>0.01</speed>
  <fix>3d</fix>
</trkpt>
<trkpt lat="40.0713749" lon="-105.229789">
  <ele>1583.0</ele>
  <time>2026-08-28T17:54:29Z</time>
  <course>0.0</course>
  <speed>0.0</speed>
  <fix>3d</fix>
</trkpt>
<trkpt lat="40.0713749" lon="-105.229789">
  <ele>1583.0</ele>
  <time>2026-08-28T17:54:29Z</time>
  <course>248.22</course>
  <speed>0.01</speed>
  <fix>3d</fix>
</trkpt>
<trkpt lat="40.0713749" lon="-105.229789">
  <ele>1583.0</ele>
  <time>2026-08-28T17:54:29Z</time>
  <course>0.0</course>
  <speed>0.0</speed>
  <fix>3d</fix>
</trkpt>
<trkpt lat="40.0713749" lon="-105.229789">
  <ele>1583.0</ele>
  <time>2026-08-28T17:54:29Z</time>
  <course>248.21</course>
  <speed>0.01</speed>
  <fix>3d</fix>
</trkpt>
<trkpt lat="40.0713749" lon="-105.229789">
  <ele>1583.0</ele>
  <time>2026-08-28T17:54:29Z</time>
  <course>0.0</course>
  <speed>0.0</speed>
  <fix>3d</fix>
</trkpt>
<trkpt lat="40.0713749" lon="-105.229789">
  <ele>1583.0</ele>
  <time>2026-08-28T17:54:29Z</time>
  <course>248.21</course>
  <speed>0.01</speed>
  <fix>3d</fix>
</trkpt>
<trkpt lat="40.0713749" lon="-105.229789">
  <ele>1583.0</ele>
  <time>2026-08-28T17:54:29Z</time>
  <course>0.0</course>
  <speed>0.0</speed>
  <fix>3d</fix>
</trkpt>
<trkpt lat="40.0713749" lon="-105.229789">
  <ele>1583.0</ele>
  <time>2026-08-28T17:54:29Z</time>
  <course>248.2</course>
  <speed>0.01</speed>
  <fix>3d</fix>
</trkpt>
<trkpt lat="40.0713749" lon="-105.229789">
  <ele>1583.0</ele>
  <time>2026-08-28T17:54:29Z</time>
  <course>0.0</course>
  <speed>0.0</speed>
  <fix>3d</fix>
</trkpt>
<trkpt lat="40.0713749" lon="-105.229789">
  <ele>1583.0</ele>
  <time>2026-08-28T17:54:29Z</time>
  <course>248.2</course>
  <speed>0.01</speed>
  <fix>3d</fix>
</trkpt>
<trkpt lat="40.0713749" lon="-105.229789">
  <ele>1583.0</ele>
  <time>2026-08-28T17:54:29Z</time>
  <course>0.0</course>
  <speed>0.0</speed>
  <fix>3d</fix>
</trkpt>
<trkpt lat="40.0713749" lon="-105.229789">
  <ele>1583.0</ele>
  <time>2026-08-28T17:54:29Z</time>
  <course>248.19</course>
  <speed>0.01</speed>
  <fix>3d</fix>
</trkpt>
<trkpt lat="40.0713749" lon="-105.229789">
  <ele>1583.0</ele>
  <time>2026-08-28T17:54:29Z</time>
  <course>0.0</course>
  <speed>0.0</speed>
  <fix>3d</fix>
</trkpt>
<trkpt lat="40.0713749" lon="-105.229789">
  <ele>1583.0</ele>
  <time>2026-08-28T17:54:29Z</time>
  <course>248.19</course>
  <speed>0.01</speed>
  <fix>3d</fix>
</trkpt>
<trkpt lat="40.0713749" lon="-105.229789">
  <ele>1583.0</ele>
  <time>2026-08-28T17:54:29Z</time>
  <course>0.0</course>
  <speed>0.0</speed>
  <fix>3d</fix>
</trkpt>
<trkpt lat="40.0713749" lon="-105.229789">
  <ele>1583.0</ele>
  <time>2026-08-28T17:54:29Z</time>
  <course>248.18</course>
  <speed>0.01</speed>
  <fix>3d</fix>
</trkpt>
<trkpt lat="40.0713749" lon="-105.229789">
  <ele>1583.0</ele>
  <time>2026-08-28T17:54:29Z</time>
  <course>0.0</course>
  <speed>0.0</speed>
  <fix>3d</fix>
</trkpt>
<trkpt lat="40.0713749" lon="-105.229789">
  <ele>1583.0</ele>
  <time>2026-08-28T17:54:29Z</time>
  <course>248.18</course>
  <speed>0.01</speed>
  <fix>3d</fix>
</trkpt>
<trkpt lat="40.0713749" lon="-105.229789">
  <ele>1583.0</ele>
  <time>2026-08-28T17:54:29Z</time>
  <course>0.0</course>
  <speed>0.0</speed>
  <fix>3d</fix>
</trkpt>
<trkpt lat="40.0713749" lon="-105.229789">
  <ele>1583.0</ele>
  <time>2026-08-28T17:54:29Z</time>
  <course>248.17</course>
  <speed>0.022360679774997897</speed>
  <fix>3d</fix>
</trkpt>
<trkpt lat="40.0713749" lon="-105.229789">
  <ele>1583.0</ele>
  <time>2026-08-28T17:54:29Z</time>
  <course>0.0</course>
  <speed>0.0</speed>
  <fix>3d</fix>
</trkpt>
<trkpt lat="40.0713749" lon="-105.229789">
  <ele>1583.0</ele>
  <time>2026-08-28T17:54:29Z</time>
  <course>248.17</course>
  <speed>0.022360679774997897</speed>
  <fix>3d</fix>
</trkpt>
<trkpt lat="40.0713749" lon="-105.229789">
  <ele>1583.0</ele>
  <time>2026-08-28T17:54:29Z</time>
  <course>0.0</course>
  <speed>0.0</speed>
  <fix>3d</fix>
</trkpt>
<trkpt lat="40.0713749" lon="-105.229789">
  <ele>1583.0</ele>
  <time>2026-08-28T17:54:29Z</time>
  <course>248.16</course>
  <speed>0.022360679774997897</speed>
  <fix>3d</fix>
</trkpt>
<trkpt lat="40.0713749" lon="-105.229789">
  <ele>1583.0</ele>
  <time>2026-08-28T17:54:29Z</time>
  <course>0.0</course>
  <speed>0.0</speed>
  <fix>3d</fix>
</trkpt>
<trkpt lat="40.0713749" lon="-105.229789">
  <ele>1583.0</ele>
  <time>2026-08-28T17:54:29Z</time>
  <course>248.16</course>
  <speed>0.022360679774997897</speed>
  <fix>3d</fix>
</trkpt>
<trkpt lat="40.0713749" lon="-105.229789">
  <ele>1583.0</ele>
  <time>2026-08-28T17:54:29Z</time>
  <course>0.0</course>
  <speed>0.0</speed>
  <fix>3d</fix>
</trkpt>
<trkpt lat="40.0713749" lon="-105.229789">
  <ele>1583.0</ele>
  <time>2026-08-28T17:54:29Z</time>
  <course>248.15</course>
  <speed>0.022360679774997897</speed>
  <fix>3d</fix>
</trkpt>
<trkpt lat="40.0713749" lon="-105.229789">
  <ele>1583.0</ele>
  <time>2026-08-28T17:54:29Z</time>
  <course>0.0</course>
  <speed>0.0</speed>
  <fix>3d</fix>
</trkpt>
<trkpt lat="40.0713749" lon="-105.229789">
  <ele>1583.0</ele>
  <time>2026-08-28T17:54:29Z</time>
  <course>248.15</course>
  <speed>0.022360679774997897</speed>
  <fix>3d</fix>
</trkpt>
<trkpt lat="40.0713749" lon="-105.229789">
  <ele>1583.0</ele>
  <time>2026-08-28T17:54:29Z</time>
  <course>0.0</course>
  <speed>0.0</speed>
  <fix>3d</fix>
</trkpt>
<trkpt lat="40.0713749" lon="-105.229789">
  <ele>1583.0</ele>
  <time>2026-08-28T17:54:29Z</time>
  <course>248.14</course>
  <speed>0.022360679774997897</speed>
  <fix>3d</fix>
</trkpt>
<trkpt lat="40.0713749" lon="-105.229789">
  <ele>1583.0</ele>
  <time>2026-08-28T17:54:29Z</time>
  <course>0.0</course>
  <speed>0.0</speed>
  <fix>3d</fix>
</trkpt>
<trkpt lat="40.0713749" lon="-105.229789">
  <ele>1583.0</ele>
  <time>2026-08-28T17:54:29Z</time>
  <course>248.14</course>
  <speed>0.022360679774997897</speed>
  <fix>3d</fix>
</trkpt>
<trkpt lat="40.0713749" lon="-105.229789">
  <ele>1583.0</ele>
  <time>2026-08-28T17:54:29Z</time>
  <course>0.0</course>
  <speed>0.0</speed>
  <fix>3d</fix>
</trkpt>
<trkpt lat="40.0713749" lon="-105.229789">
  <ele>1583.0</ele>
  <time>2026-08-28T17:54:29Z</time>
  <course>248.13</course>
  <speed>0.022360679774997897</speed>
  <fix>3d</fix>
</trkpt>
<trkpt lat="40.0713749" lon="-105.229789">
  <ele>1583.0</ele>
  <time>2026-08-28T17:54:29Z</time>
  <course>0.0</course>
  <speed>0.0</speed>
  <fix>3d</fix>
</trkpt>
<trkpt lat="40.0713749" lon="-105.229789">
  <ele>1583.0</ele>
  <time>2026-08-28T17:54:29Z</time>
  <course>248.13</course>
  <speed>0.022360679774997897</speed>
  <fix>3d</fix>
</trkpt>
<trkpt lat="40.0713749" lon="-105.229789">
  <ele>1583.0</ele>
  <time>2026-08-28T17:54:29Z</time>
  <course>0.0</course>
  <speed>0.0</speed>
  <fix>3d</fix>
</trkpt>
<trkpt lat="40.0713749" lon="-105.229789">
  <ele>1583.0</ele>
  <time>2026-08-28T17:54:29Z</time>
  <course>248.12</course>
  <speed>0.022360679774997897</speed>
  <fix>3d</fix>
</trkpt>
<trkpt lat="40.0713749" lon="-105.229789">
  <ele>1583.0</ele>
  <time>2026-08-28T17:54:29Z</time>
  <course>0.0</course>
  <speed>0.0</speed>
  <fix>3d</fix>
</trkpt>
<trkpt lat="40.0713749" lon="-105.229789">
  <ele>1583.0</ele>
  <time>2026-08-28T17:54:29Z</time>
  <course>248.12</course>
  <speed>0.022360679774997897</speed>
  <fix>3d</fix>
</trkpt>
<trkpt lat="40.0713749" lon="-105.229789">
  <ele>1583.0</ele>
  <time>2026-08-28T17:54:29Z</time>
  <course>0.0</course>
  <speed>0.0</speed>
  <fix>3d</fix>
</trkpt>
<trkpt lat="40.0713749" lon="-105.229789">
  <ele>1583.0</ele>
  <time>2026-08-28T17:54:29Z</time>
  <course>248.11</course>
  <speed>0.022360679774997897</speed>
  <fix>3d</fix>
</trkpt>
<trkpt lat="40.0713749" lon="-105.229789">
  <ele>1583.0</ele>
  <time>2026-08-28T17:54:29Z</time>
  <course>0.0</course>
  <speed>0.0</speed>
  <fix>3d</fix>
</trkpt>
<trkpt lat="40.0713749" lon="-105.229789">
  <ele>1583.0</ele>
  <time>2026-08-28T17:54:29Z</time>
  <course>248.11</course>
  <speed>0.022360679774997897</speed>
  <fix>3d</fix>
</trkpt>
<trkpt lat="40.0713749" lon="-105.229789">
  <ele>1583.0</ele>
  <time>2026-08-28T17:54:29Z</time>
  <course>0.0</course>
  <speed>0.0</speed>
  <fix>3d</fix>
</trkpt>
<trkpt lat="40.0713749" lon="-105.229789">
  <ele>1583.0</ele>
  <time>2026-08-28T17:54:29Z</time>
  <course>248.1</course>
  <speed>0.022360679774997897</speed>
  <fix>3d</fix>
</trkpt>
<trkpt lat="40.0713749" lon="-105.229789">
  <ele>1583.0</ele>
  <time>2026-08-28T17:54:29Z</time>
  <course>0.0</course>
  <speed>0.0</speed>
  <fix>3d</fix>
</trkpt>
<trkpt lat="40.0713749" lon="-105.229789">
  <ele>1583.0</ele>
  <time>2026-08-28T17:54:29Z</time>
  <course>248.1</course>
  <speed>0.022360679774997897</speed>
  <fix>3d</fix>
</trkpt>
<trkpt lat="40.0713749" lon="-105.229789">
  <ele>1583.0</ele>
  <time>2026-08-28T17:54:29Z</time>
  <course>0.0</course>
  <speed>0.0</speed>
  <fix>3d</fix>
</trkpt>
<trkpt lat="40.0713749" lon="-105.229789">
  <ele>1583.0</ele>
  <time>2026-08-28T17:54:29Z</time>
  <course>248.09</course>
  <speed>0.022360679774997897</speed>
  <fix>3d</fix>
</trkpt>
<trkpt lat="40.0713749" lon="-105.229789">
  <ele>1583.0</ele>
  <time>2026-08-28T17:54:29Z</time>
  <course>0.0</course>
  <speed>0.0</speed>
  <fix>3d</fix>
</trkpt>
<trkpt lat="40.0713749" lon="-105.229789">
  <ele>1583.0</ele>
  <time>2026-08-28T17:54:29Z</time>
  <course>248.09</course>
  <speed>0.022360679774997897</speed>
  <fix>3d</fix>
</trkpt>
<trkpt lat="40.0713749" lon="-105.229789">
  <ele>1583.0</ele>
  <time>2026-08-28T17:54:29Z</time>
  <course>0.0</course>
  <speed>0.0</speed>
  <fix>3d</fix>
</trkpt>
<trkpt lat="40.0713749" lon="-105.229789">
  <ele>1583.0</ele>
  <time>2026-08-28T17:54:29Z</time>
  <course>248.08</course>
  <speed>0.022360679774997897</speed>
  <fix>3d</fix>
</trkpt>
<trkpt lat="40.0713749" lon="-105.229789">
  <ele>1583.0</ele>
  <time>2026-08-28T17:54:29Z</time>
  <course>0.0</course>
  <speed>0.0</speed>
  <fix>3d</fix>
</trkpt>
<trkpt lat="40.0713749" lon="-105.229789">
  <ele>1583.0</ele>
  <time>2026-08-28T17:54:29Z</time>
  <course>248.08</course>
  <speed>0.022360679774997897</speed>
  <fix>3d</fix>
</trkpt>
<trkpt lat="40.0713749" lon="-105.229789">
  <ele>1583.0</ele>
  <time>2026-08-28T17:54:29Z</time>
  <course>0.0</course>
  <speed>0.0</speed>
  <fix>3d</fix>
</trkpt>
<trkpt lat="40.0713749" lon="-105.229789">
  <ele>1583.0</ele>
  <time>2026-08-28T17:54:29Z</time>
  <course>248.07</course>
  <speed>0.022360679774997897</speed>
  <fix>3d</fix>
</trkpt>
<trkpt lat="40.0713749" lon="-105.229789">
  <ele>1583.0</ele>
  <time>2026-08-28T17:54:29Z</time>
  <course>0.0</course>
  <speed>0.0</speed>
  <fix>3d</fix>
</trkpt>
<trkpt lat="40.0713749" lon="-105.229789">
  <ele>1583.0</ele>
  <time>2026-08-28T17:54:29Z</time>
  <course>248.07</course>
  <speed>0.022360679774997897</speed>
  <fix>3d</fix>
</trkpt>
<trkpt lat="40.0713749" lon="-105.229789">
  <ele>1583.0</ele>
  <time>2026-08-28T17:54:29Z</time>
  <course>0.0</course>
  <speed>0.0</speed>
  <fix>3d</fix>
</trkpt>
<trkpt lat="40.0713749" lon="-105.229789">
  <ele>1583.0</ele>
  <time>2026-08-28T17:54:29Z</time>
  <course>248.06</course>
  <speed>0.022360679774997897</speed>
  <fix>3d</fix>
</trkpt>
<trkpt lat="40.0713749" lon="-105.229789">
  <ele>1583.0</ele>
  <time>2026-08-28T17:54:29Z</time>
  <course>0.0</course>
  <speed>0.0</speed>
  <fix>3d</fix>
</trkpt>
<trkpt lat="40.0713749" lon="-105.229789">
  <ele>1583.0</ele>
  <time>2026-08-28T17:54:29Z</time>
  <course>248.06</course>
  <speed>0.022360679774997897</speed>
  <fix>3d</fix>
</trkpt>
<trkpt lat="40.0713749" lon="-105.229789">
  <ele>1583.0</ele>
  <time>2026-08-28T17:54:29Z</time>
  <course>0.0</course>
  <speed>0.0</speed>
  <fix>3d</fix>
</trkpt>
<trkpt lat="40.0713749" lon="-105.229789">
  <ele>1583.0</ele>
  <time>2026-08-28T17:54:29Z</time>
  <course>248.05</course>
  <speed>0.022360679774997897</speed>
  <fix>3d</fix>
</trkpt>
<trkpt lat="40.0713749" lon="-105.229789">
  <ele>1583.0</ele>
  <time>2026-08-28T17:54:29Z</time>
  <course>0.0</course>
  <speed>0.0</speed>
  <fix>3d</fix>
</trkpt>
<trkpt lat="40.0713749" lon="-105.229789">
  <ele>1583.0</ele>
  <time>2026-08-28T17:54:29Z</time>
  <course>248.05</course>
  <speed>0.022360679774997897</speed>
  <fix>3d</fix>
</trkpt>
<trkpt lat="40.0713749" lon="-105.229789">
  <ele>1583.0</ele>
  <time>2026-08-28T17:54:29Z</time>
  <course>0.0</course>
  <speed>0.0</speed>
  <fix>3d</fix>
</trkpt>
<trkpt lat="40.0713749" lon="-105.229789">
  <ele>1583.0</ele>
  <time>2026-08-28T17:54:29Z</time>
  <course>248.05</course>
  <speed>0.022360679774997897</speed>
  <fix>3d</fix>
</trkpt>
<trkpt lat="40.0713749" lon="-105.229789">
  <ele>1583.0</ele>
  <time>2026-08-28T17:54:29Z</time>
  <course>0.0</course>
  <speed>0.0</speed>
  <fix>3d</fix>
</trkpt>
<trkpt lat="40.0713749" lon="-105.229789">
  <ele>1583.0</ele>
  <time>2026-08-28T17:54:29Z</time>
  <course>248.04</course>
  <speed>0.022360679774997897</speed>
  <fix>3d</fix>
</trkpt>
<trkpt lat="40.0713749" lon="-105.229789">
  <ele>1583.0</ele>
  <time>2026-08-28T17:54:29Z</time>
  <course>0.0</course>
  <speed>0.0</speed>
  <fix>3d</fix>
</trkpt>
<trkpt lat="40.0713749" lon="-105.229789">
  <ele>1583.0</ele>
  <time>2026-08-28T17:54:29Z</time>
  <course>248.04</course>
  <speed>0.022360679774997897</speed>
  <fix>3d</fix>
</trkpt>
<trkpt lat="40.0713749" lon="-105.229789">
  <ele>1583.0</ele>
  <time>2026-08-28T17:54:29Z</time>
  <course>0.0</course>
  <speed>0.0</speed>
  <fix>3d</fix>
</trkpt>
<trkpt lat="40.0713749" lon="-105.229789">
  <ele>1583.0</ele>
  <time>2026-08-28T17:54:29Z</time>
  <course>248.03</course>
  <speed>0.022360679774997897</speed>
  <fix>3d</fix>
</trkpt>
<trkpt lat="40.0713749" lon="-105.229789">
  <ele>1583.0</ele>
  <time>2026-08-28T17:54:29Z</time>
  <course>0.0</course>
  <speed>0.0</speed>
  <fix>3d</fix>
</trkpt>
<trkpt lat="40.0713749" lon="-105.229789">
  <ele>1583.0</ele>
  <time>2026-08-28T17:54:29Z</time>
  <course>248.03</course>
  <speed>0.022360679774997897</speed>
  <fix>3d</fix>
</trkpt>
<trkpt lat="40.0713749" lon="-105.229789">
  <ele>1583.0</ele>
  <time>2026-08-28T17:54:29Z</time>
  <course>0.0</course>
  <speed>0.0</speed>
  <fix>3d</fix>
</trkpt>
<trkpt lat="40.0713749" lon="-105.229789">
  <ele>1583.0</ele>
  <time>2026-08-28T17:54:29Z</time>
  <course>248.02</course>
  <speed>0.022360679774997897</speed>
  <fix>3d</fix>
</trkpt>
<trkpt lat="40.0713749" lon="-105.229789">
  <ele>1583.0</ele>
  <time>2026-08-28T17:54:29Z</time>
  <course>0.0</course>
  <speed>0.0</speed>
  <fix>3d</fix>
</trkpt>
<trkpt lat="40.0713749" lon="-105.229789">
  <ele>1583.0</ele>
  <time>2026-08-28T17:54:29Z</time>
  <course>248.02</course>
  <speed>0.022360679774997897</speed>
  <fix>3d</fix>
</trkpt>
<trkpt lat="40.0713749" lon="-105.229789">
  <ele>1583.0</ele>
  <time>2026-08-28T17:54:29Z</time>
  <course>0.0</course>
  <speed>0.0</speed>
  <fix>3d</fix>
</trkpt>
<trkpt lat="40.0713749" lon="-105.229789">
  <ele>1583.0</ele>
  <time>2026-08-28T17:54:29Z</time>
  <course>248.01</course>
  <speed>0.022360679774997897</speed>
  <fix>3d</fix>
</trkpt>
<trkpt lat="40.0713749" lon="-105.229789">
  <ele>1583.0</ele>
  <time>2026-08-28T17:54:29Z</time>
  <course>0.0</course>
  <speed>0.0</speed>
  <fix>3d</fix>
</trkpt>
<trkpt lat="40.0713749" lon="-105.229789">
  <ele>1583.0</ele>
  <time>2026-08-28T17:54:29Z</time>
  <course>248.01</course>
  <speed>0.022360679774997897</speed>
  <fix>3d</fix>
</trkpt>
<trkpt lat="40.0713749" lon="-105.229789">
  <ele>1583.0</ele>
  <time>2026-08-28T17:54:29Z</time>
  <course>0.0</course>
  <speed>0.0</speed>
  <fix>3d</fix>
</trkpt>
<trkpt lat="40.0713749" lon="-105.229789">
  <ele>1583.0</ele>
  <time>2026-08-28T17:54:29Z</time>
  <course>248.0</course>
  <speed>0.022360679774997897</speed>
  <fix>3d</fix>
</trkpt>
<trkpt lat="40.0713749" lon="-105.229789">
  <ele>1583.0</ele>
  <time>2026-08-28T17:54:29Z</time>
  <course>0.0</course>
  <speed>0.0</speed>
  <fix>3d</fix>
</trkpt>
<trkpt lat="40.0713749" lon="-105.229789">
  <ele>1583.0</ele>
  <time>2026-08-28T17:54:29Z</time>
  <course>248.0</course>
  <speed>0.022360679774997897</speed>
  <fix>3d</fix>
</trkpt>
<trkpt lat="40.0713749" lon="-105.229789">
  <ele>1583.0</ele>
  <time>2026-08-28T17:54:29Z</time>
  <course>0.0</course>
  <speed>0.0</speed>
  <fix>3d</fix>
</trkpt>
<trkpt lat="40.0713749" lon="-105.229789">
  <ele>1583.0</ele>
  <time>2026-08-28T17:54:29Z</time>
  <course>247.99</course>
  <speed>0.022360679774997897</speed>
  <fix>3d</fix>
</trkpt>
<trkpt lat="40.0713749" lon="-105.229789">
  <ele>1583.0</ele>
  <time>2026-08-28T17:54:29Z</time>
  <course>0.0</course>
  <speed>0.0</speed>
  <fix>3d</fix>
</trkpt>
<trkpt lat="40.0713749" lon="-105.229789">
  <ele>1583.0</ele>
  <time>2026-08-28T17:54:29Z</time>
  <course>247.99</course>
  <speed>0.022360679774997897</speed>
  <fix>3d</fix>
</trkpt>
<trkpt lat="40.0713749" lon="-105.229789">
  <ele>1583.0</ele>
  <time>2026-08-28T17:54:29Z</time>
  <course>0.0</course>
  <speed>0.0</speed>
  <fix>3d</fix>
</trkpt>
<trkpt lat="40.0713749" lon="-105.229789">
  <ele>1583.0</ele>
  <time>2026-08-28T17:54:29Z</time>
  <course>247.99</course>
  <speed>0.022360679774997897</speed>
  <fix>3d</fix>
</trkpt>
<trkpt lat="40.0713749" lon="-105.229789">
  <ele>1583.0</ele>
  <time>2026-08-28T17:54:29Z</time>
  <course>0.0</course>
  <speed>0.0</speed>
  <fix>3d</fix>
</trkpt>
<trkpt lat="40.0713749" lon="-105.229789">
  <ele>1583.0</ele>
  <time>2026-08-28T17:54:29Z</time>
  <course>247.98</course>
  <speed>0.022360679774997897</speed>
  <fix>3d</fix>
</trkpt>
<trkpt lat="40.0713749" lon="-105.229789">
  <ele>1583.0</ele>
  <time>2026-08-28T17:54:29Z</time>
  <course>0.0</course>
  <speed>0.0</speed>
  <fix>3d</fix>
</trkpt>
<trkpt lat="40.0713749" lon="-105.229789">
  <ele>1583.0</ele>
  <time>2026-08-28T17:54:29Z</time>
  <course>247.98</course>
  <speed>0.022360679774997897</speed>
  <fix>3d</fix>
</trkpt>
<trkpt lat="40.0713749" lon="-105.229789">
  <ele>1583.0</ele>
  <time>2026-08-28T17:54:29Z</time>
  <course>0.0</course>
  <speed>0.0</speed>
  <fix>3d</fix>
</trkpt>
<trkpt lat="40.0713749" lon="-105.229789">
  <ele>1583.0</ele>
  <time>2026-08-28T17:54:29Z</time>
  <course>247.97</course>
  <speed>0.022360679774997897</speed>
  <fix>3d</fix>
</trkpt>
<trkpt lat="40.0713749" lon="-105.229789">
  <ele>1583.0</ele>
  <time>2026-08-28T17:54:29Z</time>
  <course>0.0</course>
  <speed>0.0</speed>
  <fix>3d</fix>
</trkpt>
<trkpt lat="40.0713749" lon="-105.229789">
  <ele>1583.0</ele>
  <time>2026-08-28T17:54:29Z</time>
  <course>247.97</course>
  <speed>0.022360679774997897</speed>
  <fix>3d</fix>
</trkpt>
<trkpt lat="40.0713749" lon="-105.229789">
  <ele>1583.0</ele>
  <time>2026-08-28T17:54:29Z</time>
  <course>0.0</course>
  <speed>0.0</speed>
  <fix>3d</fix>
</trkpt>
<trkpt lat="40.0713749" lon="-105.229789">
  <ele>1583.0</ele>
  <time>2026-08-28T17:54:29Z</time>
  <course>247.96</course>
  <speed>0.022360679774997897</speed>
  <fix>3d</fix>
</trkpt>
<trkpt lat="40.0713749" lon="-105.229789">
  <ele>1583.0</ele>
  <time>2026-08-28T17:54:29Z</time>
  <course>0.0</course>
  <speed>0.0</speed>
  <fix>3d</fix>
</trkpt>
<trkpt lat="40.0713749" lon="-105.229789">
  <ele>1583.0</ele>
  <time>2026-08-28T17:54:29Z</time>
  <course>247.96</course>
  <speed>0.022360679774997897</speed>
  <fix>3d</fix>
</trkpt>
<trkpt lat="40.0713749" lon="-105.229789">
  <ele>1583.0</ele>
  <time>2026-08-28T17:54:29Z</time>
  <course>0.0</course>
  <speed>0.0</speed>
  <fix>3d</fix>
</trkpt>
<trkpt lat="40.0713749" lon="-105.229789">
  <ele>1583.0</ele>
  <time>2026-08-28T17:54:29Z</time>
  <course>247.95</course>
  <speed>0.022360679774997897</speed>
  <fix>3d</fix>
</trkpt>
<trkpt lat="40.0713749" lon="-105.229789">
  <ele>1583.0</ele>
  <time>2026-08-28T17:54:29Z</time>
  <course>0.0</course>
  <speed>0.0</speed>
  <fix>3d</fix>
</trkpt>
<trkpt lat="40.0713749" lon="-105.229789">
  <ele>1583.0</ele>
  <time>2026-08-28T17:54:29Z</time>
  <course>247.95</course>
  <speed>0.022360679774997897</speed>
  <fix>3d</fix>
</trkpt>
<trkpt lat="40.0713749" lon="-105.229789">
  <ele>1583.0</ele>
  <time>2026-08-28T17:54:29Z</time>
  <course>0.0</course>
  <speed>0.0</speed>
  <fix>3d</fix>
</trkpt>
<trkpt lat="40.0713749" lon="-105.229789">
  <ele>1583.0</ele>
  <time>2026-08-28T17:54:29Z</time>
  <course>247.95</course>
  <speed>0.022360679774997897</speed>
  <fix>3d</fix>
</trkpt>
<trkpt lat="40.0713749" lon="-105.229789">
  <ele>1583.0</ele>
  <time>2026-08-28T17:54:29Z</time>
  <course>0.0</course>
  <speed>0.0</speed>
  <fix>3d</fix>
</trkpt>
<trkpt lat="40.0713749" lon="-105.229789">
  <ele>1583.0</ele>
  <time>2026-08-28T17:54:29Z</time>
  <course>247.94</course>
  <speed>0.022360679774997897</speed>
  <fix>3d</fix>
</trkpt>
<trkpt lat="40.0713749" lon="-105.229789">
  <ele>1583.0</ele>
  <time>2026-08-28T17:54:29Z</time>
  <course>0.0</course>
  <speed>0.0</speed>
  <fix>3d</fix>
</trkpt>
<trkpt lat="40.0713749" lon="-105.229789">
  <ele>1583.0</ele>
  <time>2026-08-28T17:54:29Z</time>
  <course>247.94</course>
  <speed>0.022360679774997897</speed>
  <fix>3d</fix>
</trkpt>
<trkpt lat="40.0713749" lon="-105.229789">
  <ele>1583.0</ele>
  <time>2026-08-28T17:54:29Z</time>
  <course>0.0</course>
  <speed>0.0</speed>
  <fix>3d</fix>
</trkpt>
<trkpt lat="40.0713749" lon="-105.229789">
  <ele>1583.0</ele>
  <time>2026-08-28T17:54:29Z</time>
  <course>247.93</course>
  <speed>0.022360679774997897</speed>
  <fix>3d</fix>
</trkpt>
<trkpt lat="40.0713749" lon="-105.229789">
  <ele>1583.0</ele>
  <time>2026-08-28T17:54:29Z</time>
  <course>0.0</course>
  <speed>0.0</speed>
  <fix>3d</fix>
</trkpt>
<trkpt lat="40.0713749" lon="-105.229789">
  <ele>1583.0</ele>
  <time>2026-08-28T17:54:29Z</time>
  <course>247.93</course>
  <speed>0.022360679774997897</speed>
  <fix>3d</fix>
</trkpt>
<trkpt lat="40.0713749" lon="-105.229789">
  <ele>1583.0</ele>
  <time>2026-08-28T17:54:29Z</time>
  <course>0.0</course>
  <speed>0.0</speed>
  <fix>3d</fix>
</trkpt>
<trkpt lat="40.0713749" lon="-105.229789">
  <ele>1583.0</ele>
  <time>2026-08-28T17:54:29Z</time>
  <course>247.92</course>
  <speed>0.022360679774997897</speed>
  <fix>3d</fix>
</trkpt>
<trkpt lat="40.0713749" lon="-105.229789">
  <ele>1583.0</ele>
  <time>2026-08-28T17:54:29Z</time>
  <course>0.0</course>
  <speed>0.0</speed>
  <fix>3d</fix>
</trkpt>
<trkpt lat="40.0713749" lon="-105.229789">
  <ele>1583.0</ele>
  <time>2026-08-28T17:54:29Z</time>
  <course>247.92</course>
  <speed>0.022360679774997897</speed>
  <fix>3d</fix>
</trkpt>
<trkpt lat="40.0713749" lon="-105.229789">
  <ele>1583.0</ele>
  <time>2026-08-28T17:54:29Z</time>
  <course>0.0</course>
  <speed>0.0</speed>
  <fix>3d</fix>
</trkpt>
<trkpt lat="40.0713749" lon="-105.229789">
  <ele>1583.0</ele>
  <time>2026-08-28T17:54:29Z</time>
  <course>247.92</course>
  <speed>0.022360679774997897</speed>
  <fix>3d</fix>
</trkpt>
<trkpt lat="40.0713749" lon="-105.229789">
  <ele>1583.0</ele>
  <time>2026-08-28T17:54:29Z</time>
  <course>0.0</course>
  <speed>0.0</speed>
  <fix>3d</fix>
</trkpt>
<trkpt lat="40.0713749" lon="-105.229789">
  <ele>1583.0</ele>
  <time>2026-08-28T17:54:29Z</time>
  <course>247.91</course>
  <speed>0.022360679774997897</speed>
  <fix>3d</fix>
</trkpt>
<trkpt lat="40.0713749" lon="-105.229789">
  <ele>1583.0</ele>
  <time>2026-08-28T17:54:29Z</time>
  <course>0.0</course>
  <speed>0.0</speed>
  <fix>3d</fix>
</trkpt>
<trkpt lat="40.0713749" lon="-105.229789">
  <ele>1583.0</ele>
  <time>2026-08-28T17:54:29Z</time>
  <course>247.91</course>
  <speed>0.022360679774997897</speed>
  <fix>3d</fix>
</trkpt>
<trkpt lat="40.0713749" lon="-105.229789">
  <ele>1583.0</ele>
  <time>2026-08-28T17:54:29Z</time>
  <course>0.0</course>
  <speed>0.0</speed>
  <fix>3d</fix>
</trkpt>
<trkpt lat="40.0713749" lon="-105.229789">
  <ele>1583.0</ele>
  <time>2026-08-28T17:54:29Z</time>
  <course>247.9</course>
  <speed>0.022360679774997897</speed>
  <fix>3d</fix>
</trkpt>
<trkpt lat="40.0713749" lon="-105.229789">
  <ele>1583.0</ele>
  <time>2026-08-28T17:54:29Z</time>
  <course>0.0</course>
  <speed>0.0</speed>
  <fix>3d</fix>
</trkpt>
<trkpt lat="40.0713749" lon="-105.229789">
  <ele>1583.0</ele>
  <time>2026-08-28T17:54:29Z</time>
  <course>247.9</course>
  <speed>0.022360679774997897</speed>
  <fix>3d</fix>
</trkpt>
<trkpt lat="40.0713749" lon="-105.229789">
  <ele>1583.0</ele>
  <time>2026-08-28T17:54:29Z</time>
  <course>0.0</course>
  <speed>0.0</speed>
  <fix>3d</fix>
</trkpt>
<trkpt lat="40.0713749" lon="-105.229789">
  <ele>1583.0</ele>
  <time>2026-08-28T17:54:29Z</time>
  <course>247.89</course>
  <speed>0.022360679774997897</speed>
  <fix>3d</fix>
</trkpt>
<trkpt lat="40.0713749" lon="-105.229789">
  <ele>1583.0</ele>
  <time>2026-08-28T17:54:29Z</time>
  <course>0.0</course>
  <speed>0.0</speed>
  <fix>3d</fix>
</trkpt>
<trkpt lat="40.0713749" lon="-105.229789">
  <ele>1583.0</ele>
  <time>2026-08-28T17:54:29Z</time>
  <course>247.89</course>
  <speed>0.022360679774997897</speed>
  <fix>3d</fix>
</trkpt>
<trkpt lat="40.0713749" lon="-105.229789">
  <ele>1583.0</ele>
  <time>2026-08-28T17:54:29Z</time>
  <course>0.0</course>
  <speed>0.0</speed>
  <fix>3d</fix>
</trkpt>
<trkpt lat="40.0713749" lon="-105.229789">
  <ele>1583.0</ele>
  <time>2026-08-28T17:54:29Z</time>
  <course>247.89</course>
  <speed>0.022360679774997897</speed>
  <fix>3d</fix>
</trkpt>
<trkpt lat="40.0713749" lon="-105.229789">
  <ele>1583.0</ele>
  <time>2026-08-28T17:54:29Z</time>
  <course>0.0</course>
  <speed>0.0</speed>
  <fix>3d</fix>
</trkpt>
<trkpt lat="40.0713749" lon="-105.229789">
  <ele>1583.0</ele>
  <time>2026-08-28T17:54:29Z</time>
  <course>247.88</course>
  <speed>0.0316227766016838</speed>
  <fix>3d</fix>
</trkpt>
<trkpt lat="40.0713749" lon="-105.229789">
  <ele>1583.0</ele>
  <time>2026-08-28T17:54:29Z</time>
  <course>0.0</course>
  <speed>0.0</speed>
  <fix>3d</fix>
</trkpt>
<trkpt lat="40.0713749" lon="-105.229789">
  <ele>1583.0</ele>
  <time>2026-08-28T17:54:29Z</time>
  <course>247.88</course>
  <speed>0.0316227766016838</speed>
  <fix>3d</fix>
</trkpt>
<trkpt lat="40.0713749" lon="-105.229789">
  <ele>1583.0</ele>
  <time>2026-08-28T17:54:29Z</time>
  <course>0.0</course>
  <speed>0.0</speed>
  <fix>3d</fix>
</trkpt>
<trkpt lat="40.0713749" lon="-105.229789">
  <ele>1583.0</ele>
  <time>2026-08-28T17:54:29Z</time>
  <course>247.87</course>
  <speed>0.0316227766016838</speed>
  <fix>3d</fix>
</trkpt>
<trkpt lat="40.0713749" lon="-105.229789">
  <ele>1583.0</ele>
  <time>2026-08-28T17:54:29Z</time>
  <course>0.0</course>
  <speed>0.0</speed>
  <fix>3d</fix>
</trkpt>
<trkpt lat="40.0713749" lon="-105.229789">
  <ele>1583.0</ele>
  <time>2026-08-28T17:54:29Z</time>
  <course>247.87</course>
  <speed>0.0316227766016838</speed>
  <fix>3d</fix>
</trkpt>
<trkpt lat="40.0713749" lon="-105.229789">
  <ele>1583.0</ele>
  <time>2026-08-28T17:54:29Z</time>
  <course>0.0</course>
  <speed>0.0</speed>
  <fix>3d</fix>
</trkpt>
<trkpt lat="40.0713749" lon="-105.229789">
  <ele>1583.0</ele>
  <time>2026-08-28T17:54:29Z</time>
  <course>247.87</course>
  <speed>0.0316227766016838</speed>
  <fix>3d</fix>
</trkpt>
<trkpt lat="40.0713749" lon="-105.229789">
  <ele>1583.0</ele>
  <time>2026-08-28T17:54:29Z</time>
  <course>0.0</course>
  <speed>0.0</speed>
  <fix>3d</fix>
</trkpt>
<trkpt lat="40.0713749" lon="-105.229789">
  <ele>1583.0</ele>
  <time>2026-08-28T17:54:29Z</time>
  <course>247.86</course>
  <speed>0.0316227766016838</speed>
  <fix>3d</fix>
</trkpt>
<trkpt lat="40.0713749" lon="-105.229789">
  <ele>1583.0</ele>
  <time>2026-08-28T17:54:29Z</time>
  <course>0.0</course>
  <speed>0.0</speed>
  <fix>3d</fix>
</trkpt>
<trkpt lat="40.0713749" lon="-105.229789">
  <ele>1583.0</ele>
  <time>2026-08-28T17:54:29Z</time>
  <course>247.86</course>
  <speed>0.0316227766016838</speed>
  <fix>3d</fix>
</trkpt>
<trkpt lat="40.0713749" lon="-105.229789">
  <ele>1583.0</ele>
  <time>2026-08-28T17:54:29Z</time>
  <course>0.0</course>
  <speed>0.0</speed>
  <fix>3d</fix>
</trkpt>
<trkpt lat="40.0713749" lon="-105.229789">
  <ele>1583.0</ele>
  <time>2026-08-28T17:54:29Z</time>
  <course>247.85</course>
  <speed>0.0316227766016838</speed>
  <fix>3d</fix>
</trkpt>
<trkpt lat="40.0713749" lon="-105.229789">
  <ele>1583.0</ele>
  <time>2026-08-28T17:54:29Z</time>
  <course>0.0</course>
  <speed>0.0</speed>
  <fix>3d</fix>
</trkpt>
<trkpt lat="40.0713749" lon="-105.229789">
  <ele>1583.0</ele>
  <time>2026-08-28T17:54:29Z</time>
  <course>247.85</course>
  <speed>0.0316227766016838</speed>
  <fix>3d</fix>
</trkpt>
<trkpt lat="40.0713749" lon="-105.229789">
  <ele>1583.0</ele>
  <time>2026-08-28T17:54:29Z</time>
  <course>0.0</course>
  <speed>0.0</speed>
  <fix>3d</fix>
</trkpt>
<trkpt lat="40.0713749" lon="-105.229789">
  <ele>1583.0</ele>
  <time>2026-08-28T17:54:29Z</time>
  <course>247.85</course>
  <speed>0.0316227766016838</speed>
  <fix>3d</fix>
</trkpt>
<trkpt lat="40.0713749" lon="-105.229789">
  <ele>1583.0</ele>
  <time>2026-08-28T17:54:29Z</time>
  <course>0.0</course>
  <speed>0.0</speed>
  <fix>3d</fix>
</trkpt>
<trkpt lat="40.0713749" lon="-105.229789">
  <ele>1583.0</ele>
  <time>2026-08-28T17:54:29Z</time>
  <course>247.84</course>
  <speed>0.0316227766016838</speed>
  <fix>3d</fix>
</trkpt>
<trkpt lat="40.0713749" lon="-105.229789">
  <ele>1583.0</ele>
  <time>2026-08-28T17:54:29Z</time>
  <course>0.0</course>
  <speed>0.0</speed>
  <fix>3d</fix>
</trkpt>
<trkpt lat="40.0713749" lon="-105.229789">
  <ele>1583.0</ele>
  <time>2026-08-28T17:54:29Z</time>
  <course>247.84</course>
  <speed>0.0316227766016838</speed>
  <fix>3d</fix>
</trkpt>
<trkpt lat="40.0713749" lon="-105.229789">
  <ele>1583.0</ele>
  <time>2026-08-28T17:54:29Z</time>
  <course>0.0</course>
  <speed>0.0</speed>
  <fix>3d</fix>
</trkpt>
<trkpt lat="40.0713749" lon="-105.229789">
  <ele>1583.0</ele>
  <time>2026-08-28T17:54:29Z</time>
  <course>247.83</course>
  <speed>0.0316227766016838</speed>
  <fix>3d</fix>
</trkpt>
<trkpt lat="40.0713749" lon="-105.229789">
  <ele>1583.0</ele>
  <time>2026-08-28T17:54:29Z</time>
  <course>0.0</course>
  <speed>0.0</speed>
  <fix>3d</fix>
</trkpt>
<trkpt lat="40.0713749" lon="-105.229789">
  <ele>1583.0</ele>
  <time>2026-08-28T17:54:29Z</time>
  <course>247.83</course>
  <speed>0.0316227766016838</speed>
  <fix>3d</fix>
</trkpt>
<trkpt lat="40.0713749" lon="-105.229789">
  <ele>1583.0</ele>
  <time>2026-08-28T17:54:29Z</time>
  <course>0.0</course>
  <speed>0.0</speed>
  <fix>3d</fix>
</trkpt>
<trkpt lat="40.0713749" lon="-105.229789">
  <ele>1583.0</ele>
  <time>2026-08-28T17:54:29Z</time>
  <course>247.83</course>
  <speed>0.0316227766016838</speed>
  <fix>3d</fix>
</trkpt>
<trkpt lat="40.0713749" lon="-105.229789">
  <ele>1583.0</ele>
  <time>2026-08-28T17:54:29Z</time>
  <course>0.0</course>
  <speed>0.0</speed>
  <fix>3d</fix>
</trkpt>
<trkpt lat="40.0713749" lon="-105.229789">
  <ele>1583.0</ele>
  <time>2026-08-28T17:54:29Z</time>
  <course>247.82</course>
  <speed>0.0316227766016838</speed>
  <fix>3d</fix>
</trkpt>
<trkpt lat="40.0713749" lon="-105.229789">
  <ele>1583.0</ele>
  <time>2026-08-28T17:54:29Z</time>
  <course>0.0</course>
  <speed>0.0</speed>
  <fix>3d</fix>
</trkpt>
<trkpt lat="40.0713749" lon="-105.229789">
  <ele>1583.0</ele>
  <time>2026-08-28T17:54:29Z</time>
  <course>247.82</course>
  <speed>0.0316227766016838</speed>
  <fix>3d</fix>
</trkpt>
<trkpt lat="40.0713749" lon="-105.229789">
  <ele>1583.0</ele>
  <time>2026-08-28T17:54:29Z</time>
  <course>0.0</course>
  <speed>0.0</speed>
  <fix>3d</fix>
</trkpt>
<trkpt lat="40.0713749" lon="-105.229789">
  <ele>1583.0</ele>
  <time>2026-08-28T17:54:29Z</time>
  <course>247.82</course>
  <speed>0.0316227766016838</speed>
  <fix>3d</fix>
</trkpt>
<trkpt lat="40.0713749" lon="-105.229789">
  <ele>1583.0</ele>
  <time>2026-08-28T17:54:29Z</time>
  <course>0.0</course>
  <speed>0.0</speed>
  <fix>3d</fix>
</trkpt>
<trkpt lat="40.0713749" lon="-105.229789">
  <ele>1583.0</ele>
  <time>2026-08-28T17:54:29Z</time>
  <course>247.81</course>
  <speed>0.0316227766016838</speed>
  <fix>3d</fix>
</trkpt>
<trkpt lat="40.0713749" lon="-105.229789">
  <ele>1583.0</ele>
  <time>2026-08-28T17:54:29Z</time>
  <course>0.0</course>
  <speed>0.0</speed>
  <fix>3d</fix>
</trkpt>
<trkpt lat="40.0713749" lon="-105.229789">
  <ele>1583.0</ele>
  <time>2026-08-28T17:54:29Z</time>
  <course>247.81</course>
  <speed>0.0316227766016838</speed>
  <fix>3d</fix>
</trkpt>
<trkpt lat="40.0713749" lon="-105.229789">
  <ele>1583.0</ele>
  <time>2026-08-28T17:54:29Z</time>
  <course>0.0</course>
  <speed>0.0</speed>
  <fix>3d</fix>
</trkpt>
<trkpt lat="40.0713749" lon="-105.229789">
  <ele>1583.0</ele>
  <time>2026-08-28T17:54:29Z</time>
  <course>247.8</course>
  <speed>0.0316227766016838</speed>
  <fix>3d</fix>
</trkpt>
<trkpt lat="40.0713749" lon="-105.229789">
  <ele>1583.0</ele>
  <time>2026-08-28T17:54:29Z</time>
  <course>0.0</course>
  <speed>0.0</speed>
  <fix>3d</fix>
</trkpt>
<trkpt lat="40.0713749" lon="-105.229789">
  <ele>1583.0</ele>
  <time>2026-08-28T17:54:29Z</time>
  <course>247.8</course>
  <speed>0.0316227766016838</speed>
  <fix>3d</fix>
</trkpt>
<trkpt lat="40.0713749" lon="-105.229789">
  <ele>1583.0</ele>
  <time>2026-08-28T17:54:29Z</time>
  <course>0.0</course>
  <speed>0.0</speed>
  <fix>3d</fix>
</trkpt>
<trkpt lat="40.0713749" lon="-105.229789">
  <ele>1583.0</ele>
  <time>2026-08-28T17:54:29Z</time>
  <course>247.8</course>
  <speed>0.0316227766016838</speed>
  <fix>3d</fix>
</trkpt>
<trkpt lat="40.0713749" lon="-105.229789">
  <ele>1583.0</ele>
  <time>2026-08-28T17:54:29Z</time>
  <course>0.0</course>
  <speed>0.0</speed>
  <fix>3d</fix>
</trkpt>
<trkpt lat="40.0713749" lon="-105.229789">
  <ele>1583.0</ele>
  <time>2026-08-28T17:54:29Z</time>
  <course>247.79</course>
  <speed>0.0316227766016838</speed>
  <fix>3d</fix>
</trkpt>
<trkpt lat="40.0713749" lon="-105.229789">
  <ele>1583.0</ele>
  <time>2026-08-28T17:54:29Z</time>
  <course>0.0</course>
  <speed>0.0</speed>
  <fix>3d</fix>
</trkpt>
<trkpt lat="40.0713749" lon="-105.229789">
  <ele>1583.0</ele>
  <time>2026-08-28T17:54:29Z</time>
  <course>247.79</course>
  <speed>0.0316227766016838</speed>
  <fix>3d</fix>
</trkpt>
<trkpt lat="40.0713749" lon="-105.229789">
  <ele>1583.0</ele>
  <time>2026-08-28T17:54:29Z</time>
  <course>0.0</course>
  <speed>0.0</speed>
  <fix>3d</fix>
</trkpt>
<trkpt lat="40.0713749" lon="-105.229789">
  <ele>1583.0</ele>
  <time>2026-08-28T17:54:29Z</time>
  <course>247.79</course>
  <speed>0.0316227766016838</speed>
  <fix>3d</fix>
</trkpt>
<trkpt lat="40.0713749" lon="-105.229789">
  <ele>1583.0</ele>
  <time>2026-08-28T17:54:29Z</time>
  <course>0.0</course>
  <speed>0.0</speed>
  <fix>3d</fix>
</trkpt>
<trkpt lat="40.0713749" lon="-105.229789">
  <ele>1583.0</ele>
  <time>2026-08-28T17:54:29Z</time>
  <course>247.78</course>
  <speed>0.0316227766016838</speed>
  <fix>3d</fix>
</trkpt>
<trkpt lat="40.0713749" lon="-105.229789">
  <ele>1583.0</ele>
  <time>2026-08-28T17:54:29Z</time>
  <course>0.0</course>
  <speed>0.0</speed>
  <fix>3d</fix>
</trkpt>
<trkpt lat="40.0713749" lon="-105.229789">
  <ele>1583.0</ele>
  <time>2026-08-28T17:54:29Z</time>
  <course>247.78</course>
  <speed>0.0316227766016838</speed>
  <fix>3d</fix>
</trkpt>
<trkpt lat="40.0713749" lon="-105.229789">
  <ele>1583.0</ele>
  <time>2026-08-28T17:54:29Z</time>
  <course>0.0</course>
  <speed>0.0</speed>
  <fix>3d</fix>
</trkpt>
<trkpt lat="40.0713749" lon="-105.229789">
  <ele>1583.0</ele>
  <time>2026-08-28T17:54:29Z</time>
  <course>247.78</course>
  <speed>0.0316227766016838</speed>
  <fix>3d</fix>
</trkpt>
<trkpt lat="40.0713749" lon="-105.229789">
  <ele>1583.0</ele>
  <time>2026-08-28T17:54:29Z</time>
  <course>0.0</course>
  <speed>0.0</speed>
  <fix>3d</fix>
</trkpt>
<trkpt lat="40.0713749" lon="-105.229789">
  <ele>1583.0</ele>
  <time>2026-08-28T17:54:29Z</time>
  <course>247.77</course>
  <speed>0.0316227766016838</speed>
  <fix>3d</fix>
</trkpt>
<trkpt lat="40.0713749" lon="-105.229789">
  <ele>1583.0</ele>
  <time>2026-08-28T17:54:29Z</time>
  <course>0.0</course>
  <speed>0.0</speed>
  <fix>3d</fix>
</trkpt>
<trkpt lat="40.0713749" lon="-105.229789">
  <ele>1583.0</ele>
  <time>2026-08-28T17:54:29Z</time>
  <course>247.77</course>
  <speed>0.0316227766016838</speed>
  <fix>3d</fix>
</trkpt>
<trkpt lat="40.0713749" lon="-105.229789">
  <ele>1583.0</ele>
  <time>2026-08-28T17:54:29Z</time>
  <course>0.0</course>
  <speed>0.0</speed>
  <fix>3d</fix>
</trkpt>
<trkpt lat="40.0713749" lon="-105.229789">
  <ele>1583.0</ele>
  <time>2026-08-28T17:54:29Z</time>
  <course>247.76</course>
  <speed>0.0316227766016838</speed>
  <fix>3d</fix>
</trkpt>
<trkpt lat="40.0713749" lon="-105.229789">
  <ele>1583.0</ele>
  <time>2026-08-28T17:54:29Z</time>
  <course>0.0</course>
  <speed>0.0</speed>
  <fix>3d</fix>
</trkpt>
<trkpt lat="40.0713749" lon="-105.229789">
  <ele>1583.0</ele>
  <time>2026-08-28T17:54:29Z</time>
  <course>247.76</course>
  <speed>0.0316227766016838</speed>
  <fix>3d</fix>
</trkpt>
<trkpt lat="40.0713749" lon="-105.229789">
  <ele>1583.0</ele>
  <time>2026-08-28T17:54:29Z</time>
  <course>0.0</course>
  <speed>0.0</speed>
  <fix>3d</fix>
</trkpt>
<trkpt lat="40.0713749" lon="-105.229789">
  <ele>1583.0</ele>
  <time>2026-08-28T17:54:29Z</time>
  <course>247.76</course>
  <speed>0.0316227766016838</speed>
  <fix>3d</fix>
</trkpt>
<trkpt lat="40.0713749" lon="-105.229789">
  <ele>1583.0</ele>
  <time>2026-08-28T17:54:29Z</time>
  <course>0.0</course>
  <speed>0.0</speed>
  <fix>3d</fix>
</trkpt>
<trkpt lat="40.0713749" lon="-105.229789">
  <ele>1583.0</ele>
  <time>2026-08-28T17:54:29Z</time>
  <course>247.75</course>
  <speed>0.0316227766016838</speed>
  <fix>3d</fix>
</trkpt>
<trkpt lat="40.0713749" lon="-105.229789">
  <ele>1583.0</ele>
  <time>2026-08-28T17:54:29Z</time>
  <course>0.0</course>
  <speed>0.0</speed>
  <fix>3d</fix>
</trkpt>
<trkpt lat="40.0713749" lon="-105.229789">
  <ele>1583.0</ele>
  <time>2026-08-28T17:54:29Z</time>
  <course>247.75</course>
  <speed>0.0316227766016838</speed>
  <fix>3d</fix>
</trkpt>
<trkpt lat="40.0713749" lon="-105.229789">
  <ele>1583.0</ele>
  <time>2026-08-28T17:54:29Z</time>
  <course>0.0</course>
  <speed>0.0</speed>
  <fix>3d</fix>
</trkpt>
<trkpt lat="40.0713749" lon="-105.229789">
  <ele>1583.0</ele>
  <time>2026-08-28T17:54:29Z</time>
  <course>247.75</course>
  <speed>0.0316227766016838</speed>
  <fix>3d</fix>
</trkpt>
<trkpt lat="40.0713749" lon="-105.229789">
  <ele>1583.0</ele>
  <time>2026-08-28T17:54:29Z</time>
  <course>0.0</course>
  <speed>0.0</speed>
  <fix>3d</fix>
</trkpt>
<trkpt lat="40.0713749" lon="-105.229789">
  <ele>1583.0</ele>
  <time>2026-08-28T17:54:29Z</time>
  <course>247.74</course>
  <speed>0.0316227766016838</speed>
  <fix>3d</fix>
</trkpt>
<trkpt lat="40.0713749" lon="-105.229789">
  <ele>1583.0</ele>
  <time>2026-08-28T17:54:29Z</time>
  <course>0.0</course>
  <speed>0.0</speed>
  <fix>3d</fix>
</trkpt>
<trkpt lat="40.0713749" lon="-105.229789">
  <ele>1583.0</ele>
  <time>2026-08-28T17:54:29Z</time>
  <course>247.74</course>
  <speed>0.0316227766016838</speed>
  <fix>3d</fix>
</trkpt>
<trkpt lat="40.0713749" lon="-105.229789">
  <ele>1583.0</ele>
  <time>2026-08-28T17:54:29Z</time>
  <course>0.0</course>
  <speed>0.0</speed>
  <fix>3d</fix>
</trkpt>
<trkpt lat="40.0713749" lon="-105.229789">
  <ele>1583.0</ele>
  <time>2026-08-28T17:54:29Z</time>
  <course>247.74</course>
  <speed>0.0316227766016838</speed>
  <fix>3d</fix>
</trkpt>
<trkpt lat="40.0713749" lon="-105.229789">
  <ele>1583.0</ele>
  <time>2026-08-28T17:54:29Z</time>
  <course>0.0</course>
  <speed>0.0</speed>
  <fix>3d</fix>
</trkpt>
<trkpt lat="40.0713749" lon="-105.229789">
  <ele>1583.0</ele>
  <time>2026-08-28T17:54:29Z</time>
  <course>247.73</course>
  <speed>0.0316227766016838</speed>
  <fix>3d</fix>
</trkpt>
<trkpt lat="40.0713749" lon="-105.229789">
  <ele>1583.0</ele>
  <time>2026-08-28T17:54:29Z</time>
  <course>0.0</course>
  <speed>0.0</speed>
  <fix>3d</fix>
</trkpt>
<trkpt lat="40.0713749" lon="-105.229789">
  <ele>1583.0</ele>
  <time>2026-08-28T17:54:29Z</time>
  <course>247.73</course>
  <speed>0.0316227766016838</speed>
  <fix>3d</fix>
</trkpt>
<trkpt lat="40.0713749" lon="-105.229789">
  <ele>1583.0</ele>
  <time>2026-08-28T17:54:29Z</time>
  <course>0.0</course>
  <speed>0.0</speed>
  <fix>3d</fix>
</trkpt>
<trkpt lat="40.0713749" lon="-105.229789">
  <ele>1583.0</ele>
  <time>2026-08-28T17:54:29Z</time>
  <course>247.73</course>
  <speed>0.0316227766016838</speed>
  <fix>3d</fix>
</trkpt>
<trkpt lat="40.0713749" lon="-105.229789">
  <ele>1583.0</ele>
  <time>2026-08-28T17:54:29Z</time>
  <course>0.0</course>
  <speed>0.0</speed>
  <fix>3d</fix>
</trkpt>
<trkpt lat="40.0713749" lon="-105.229789">
  <ele>1583.0</ele>
  <time>2026-08-28T17:54:29Z</time>
  <course>247.72</course>
  <speed>0.0316227766016838</speed>
  <fix>3d</fix>
</trkpt>
<trkpt lat="40.0713749" lon="-105.229789">
  <ele>1583.0</ele>
  <time>2026-08-28T17:54:29Z</time>
  <course>0.0</course>
  <speed>0.0</speed>
  <fix>3d</fix>
</trkpt>
<trkpt lat="40.0713749" lon="-105.229789">
  <ele>1583.0</ele>
  <time>2026-08-28T17:54:29Z</time>
  <course>247.72</course>
  <speed>0.0316227766016838</speed>
  <fix>3d</fix>
</trkpt>
<trkpt lat="40.0713749" lon="-105.229789">
  <ele>1583.0</ele>
  <time>2026-08-28T17:54:29Z</time>
  <course>0.0</course>
  <speed>0.0</speed>
  <fix>3d</fix>
</trkpt>
<trkpt lat="40.0713749" lon="-105.229789">
  <ele>1583.0</ele>
  <time>2026-08-28T17:54:29Z</time>
  <course>247.72</course>
  <speed>0.0316227766016838</speed>
  <fix>3d</fix>
</trkpt>
<trkpt lat="40.0713749" lon="-105.229789">
  <ele>1583.0</ele>
  <time>2026-08-28T17:54:29Z</time>
  <course>0.0</course>
  <speed>0.0</speed>
  <fix>3d</fix>
</trkpt>
<trkpt lat="40.0713749" lon="-105.229789">
  <ele>1583.0</ele>
  <time>2026-08-28T17:54:29Z</time>
  <course>247.71</course>
  <speed>0.0316227766016838</speed>
  <fix>3d</fix>
</trkpt>
<trkpt lat="40.0713749" lon="-105.229789">
  <ele>1583.0</ele>
  <time>2026-08-28T17:54:29Z</time>
  <course>0.0</course>
  <speed>0.0</speed>
  <fix>3d</fix>
</trkpt>
<trkpt lat="40.0713749" lon="-105.229789">
  <ele>1583.0</ele>
  <time>2026-08-28T17:54:29Z</time>
  <course>247.71</course>
  <speed>0.0316227766016838</speed>
  <fix>3d</fix>
</trkpt>
<trkpt lat="40.0713749" lon="-105.229789">
  <ele>1583.0</ele>
  <time>2026-08-28T17:54:29Z</time>
  <course>0.0</course>
  <speed>0.0</speed>
  <fix>3d</fix>
</trkpt>
<trkpt lat="40.0713749" lon="-105.229789">
  <ele>1583.0</ele>
  <time>2026-08-28T17:54:29Z</time>
  <course>247.71</course>
  <speed>0.0316227766016838</speed>
  <fix>3d</fix>
</trkpt>
<trkpt lat="40.0713749" lon="-105.229789">
  <ele>1583.0</ele>
  <time>2026-08-28T17:54:29Z</time>
  <course>0.0</course>
  <speed>0.0</speed>
  <fix>3d</fix>
</trkpt>
<trkpt lat="40.0713749" lon="-105.229789">
  <ele>1583.0</ele>
  <time>2026-08-28T17:54:29Z</time>
  <course>247.7</course>
  <speed>0.0316227766016838</speed>
  <fix>3d</fix>
</trkpt>
<trkpt lat="40.0713749" lon="-105.229789">
  <ele>1583.0</ele>
  <time>2026-08-28T17:54:29Z</time>
  <course>0.0</course>
  <speed>0.0</speed>
  <fix>3d</fix>
</trkpt>
<trkpt lat="40.0713749" lon="-105.229789">
  <ele>1583.0</ele>
  <time>2026-08-28T17:54:29Z</time>
  <course>247.7</course>
  <speed>0.0316227766016838</speed>
  <fix>3d</fix>
</trkpt>
<trkpt lat="40.0713749" lon="-105.229789">
  <ele>1583.0</ele>
  <time>2026-08-28T17:54:29Z</time>
  <course>0.0</course>
  <speed>0.0</speed>
  <fix>3d</fix>
</trkpt>
<trkpt lat="40.0713749" lon="-105.229789">
  <ele>1583.0</ele>
  <time>2026-08-28T17:54:29Z</time>
  <course>247.7</course>
  <speed>0.0316227766016838</speed>
  <fix>3d</fix>
</trkpt>
<trkpt lat="40.0713749" lon="-105.229789">
  <ele>1583.0</ele>
  <time>2026-08-28T17:54:29Z</time>
  <course>0.0</course>
  <speed>0.0</speed>
  <fix>3d</fix>
</trkpt>
<trkpt lat="40.0713749" lon="-105.229789">
  <ele>1583.0</ele>
  <time>2026-08-28T17:54:29Z</time>
  <course>247.69</course>
  <speed>0.0316227766016838</speed>
  <fix>3d</fix>
</trkpt>
<trkpt lat="40.0713749" lon="-105.229789">
  <ele>1583.0</ele>
  <time>2026-08-28T17:54:29Z</time>
  <course>0.0</course>
  <speed>0.0</speed>
  <fix>3d</fix>
</trkpt>
<trkpt lat="40.0713749" lon="-105.229789">
  <ele>1583.0</ele>
  <time>2026-08-28T17:54:29Z</time>
  <course>247.69</course>
  <speed>0.0316227766016838</speed>
  <fix>3d</fix>
</trkpt>
<trkpt lat="40.0713749" lon="-105.229789">
  <ele>1583.0</ele>
  <time>2026-08-28T17:54:29Z</time>
  <course>0.0</course>
  <speed>0.0</speed>
  <fix>3d</fix>
</trkpt>
<trkpt lat="40.0713749" lon="-105.229789">
  <ele>1583.0</ele>
  <time>2026-08-28T17:54:29Z</time>
  <course>247.69</course>
  <speed>0.0316227766016838</speed>
  <fix>3d</fix>
</trkpt>
<trkpt lat="40.0713749" lon="-105.229789">
  <ele>1583.0</ele>
  <time>2026-08-28T17:54:29Z</time>
  <course>0.0</course>
  <speed>0.0</speed>
  <fix>3d</fix>
</trkpt>
<trkpt lat="40.0713749" lon="-105.229789">
  <ele>1583.0</ele>
  <time>2026-08-28T17:54:29Z</time>
  <course>247.68</course>
  <speed>0.0316227766016838</speed>
  <fix>3d</fix>
</trkpt>
<trkpt lat="40.0713749" lon="-105.229789">
  <ele>1583.0</ele>
  <time>2026-08-28T17:54:29Z</time>
  <course>0.0</course>
  <speed>0.0</speed>
  <fix>3d</fix>
</trkpt>
<trkpt lat="40.0713749" lon="-105.229789">
  <ele>1583.0</ele>
  <time>2026-08-28T17:54:29Z</time>
  <course>247.68</course>
  <speed>0.0316227766016838</speed>
  <fix>3d</fix>
</trkpt>
<trkpt lat="40.0713749" lon="-105.229789">
  <ele>1583.0</ele>
  <time>2026-08-28T17:54:29Z</time>
  <course>0.0</course>
  <speed>0.0</speed>
  <fix>3d</fix>
</trkpt>
<trkpt lat="40.0713749" lon="-105.229789">
  <ele>1583.0</ele>
  <time>2026-08-28T17:54:29Z</time>
  <course>247.68</course>
  <speed>0.0316227766016838</speed>
  <fix>3d</fix>
</trkpt>
<trkpt lat="40.0713749" lon="-105.229789">
  <ele>1583.0</ele>
  <time>2026-08-28T17:54:29Z</time>
  <course>0.0</course>
  <speed>0.0</speed>
  <fix>3d</fix>
</trkpt>
<trkpt lat="40.0713749" lon="-105.229789">
  <ele>1583.0</ele>
  <time>2026-08-28T17:54:29Z</time>
  <course>247.67</course>
  <speed>0.0316227766016838</speed>
  <fix>3d</fix>
</trkpt>
<trkpt lat="40.0713749" lon="-105.229789">
  <ele>1583.0</ele>
  <time>2026-08-28T17:54:29Z</time>
  <course>0.0</course>
  <speed>0.0</speed>
  <fix>3d</fix>
</trkpt>
<trkpt lat="40.0713749" lon="-105.229789">
  <ele>1583.0</ele>
  <time>2026-08-28T17:54:29Z</time>
  <course>247.67</course>
  <speed>0.0316227766016838</speed>
  <fix>3d</fix>
</trkpt>
<trkpt lat="40.0713749" lon="-105.229789">
  <ele>1583.0</ele>
  <time>2026-08-28T17:54:29Z</time>
  <course>0.0</course>
  <speed>0.0</speed>
  <fix>3d</fix>
</trkpt>
<trkpt lat="40.0713749" lon="-105.229789">
  <ele>1583.0</ele>
  <time>2026-08-28T17:54:29Z</time>
  <course>247.67</course>
  <speed>0.0316227766016838</speed>
  <fix>3d</fix>
</trkpt>
<trkpt lat="40.0713749" lon="-105.229789">
  <ele>1583.0</ele>
  <time>2026-08-28T17:54:29Z</time>
  <course>0.0</course>
  <speed>0.0</speed>
  <fix>3d</fix>
</trkpt>
<trkpt lat="40.0713749" lon="-105.229789">
  <ele>1583.0</ele>
  <time>2026-08-28T17:54:29Z</time>
  <course>247.66</course>
  <speed>0.0316227766016838</speed>
  <fix>3d</fix>
</trkpt>
<trkpt lat="40.0713749" lon="-105.229789">
  <ele>1583.0</ele>
  <time>2026-08-28T17:54:29Z</time>
  <course>0.0</course>
  <speed>0.0</speed>
  <fix>3d</fix>
</trkpt>
<trkpt lat="40.0713749" lon="-105.229789">
  <ele>1583.0</ele>
  <time>2026-08-28T17:54:29Z</time>
  <course>247.66</course>
  <speed>0.0316227766016838</speed>
  <fix>3d</fix>
</trkpt>
<trkpt lat="40.0713749" lon="-105.229789">
  <ele>1583.0</ele>
  <time>2026-08-28T17:54:29Z</time>
  <course>0.0</course>
  <speed>0.0</speed>
  <fix>3d</fix>
</trkpt>
<trkpt lat="40.0713749" lon="-105.229789">
  <ele>1583.0</ele>
  <time>2026-08-28T17:54:29Z</time>
  <course>247.66</course>
  <speed>0.0316227766016838</speed>
  <fix>3d</fix>
</trkpt>
<trkpt lat="40.0713749" lon="-105.229789">
  <ele>1583.0</ele>
  <time>2026-08-28T17:54:29Z</time>
  <course>0.0</course>
  <speed>0.0</speed>
  <fix>3d</fix>
</trkpt>
<trkpt lat="40.0713749" lon="-105.229789">
  <ele>1583.0</ele>
  <time>2026-08-28T17:54:29Z</time>
  <course>247.65</course>
  <speed>0.0316227766016838</speed>
  <fix>3d</fix>
</trkpt>
<trkpt lat="40.0713749" lon="-105.229789">
  <ele>1583.0</ele>
  <time>2026-08-28T17:54:29Z</time>
  <course>0.0</course>
  <speed>0.0</speed>
  <fix>3d</fix>
</trkpt>
<trkpt lat="40.0713749" lon="-105.229789">
  <ele>1583.0</ele>
  <time>2026-08-28T17:54:29Z</time>
  <course>247.65</course>
  <speed>0.0316227766016838</speed>
  <fix>3d</fix>
</trkpt>
<trkpt lat="40.0713749" lon="-105.229789">
  <ele>1583.0</ele>
  <time>2026-08-28T17:54:29Z</time>
  <course>0.0</course>
  <speed>0.0</speed>
  <fix>3d</fix>
</trkpt>
<trkpt lat="40.0713749" lon="-105.229789">
  <ele>1583.0</ele>
  <time>2026-08-28T17:54:29Z</time>
  <course>247.65</course>
  <speed>0.0316227766016838</speed>
  <fix>3d</fix>
</trkpt>
<trkpt lat="40.0713749" lon="-105.229789">
  <ele>1583.0</ele>
  <time>2026-08-28T17:54:29Z</time>
  <course>0.0</course>
  <speed>0.0</speed>
  <fix>3d</fix>
</trkpt>
<trkpt lat="40.0713749" lon="-105.229789">
  <ele>1583.0</ele>
  <time>2026-08-28T17:54:29Z</time>
  <course>247.64</course>
  <speed>0.0316227766016838</speed>
  <fix>3d</fix>
</trkpt>
<trkpt lat="40.0713749" lon="-105.229789">
  <ele>1583.0</ele>
  <time>2026-08-28T17:54:29Z</time>
  <course>0.0</course>
  <speed>0.0</speed>
  <fix>3d</fix>
</trkpt>
<trkpt lat="40.0713749" lon="-105.229789">
  <ele>1583.0</ele>
  <time>2026-08-28T17:54:29Z</time>
  <course>247.64</course>
  <speed>0.0316227766016838</speed>
  <fix>3d</fix>
</trkpt>
<trkpt lat="40.0713749" lon="-105.229789">
  <ele>1583.0</ele>
  <time>2026-08-28T17:54:29Z</time>
  <course>0.0</course>
  <speed>0.0</speed>
  <fix>3d</fix>
</trkpt>
<trkpt lat="40.0713749" lon="-105.229789">
  <ele>1583.0</ele>
  <time>2026-08-28T17:54:29Z</time>
  <course>247.64</course>
  <speed>0.0316227766016838</speed>
  <fix>3d</fix>
</trkpt>
<trkpt lat="40.0713749" lon="-105.229789">
  <ele>1583.0</ele>
  <time>2026-08-28T17:54:29Z</time>
  <course>0.0</course>
  <speed>0.0</speed>
  <fix>3d</fix>
</trkpt>
<trkpt lat="40.0713749" lon="-105.229789">
  <ele>1583.0</ele>
  <time>2026-08-28T17:54:29Z</time>
  <course>247.64</course>
  <speed>0.0316227766016838</speed>
  <fix>3d</fix>
</trkpt>
<trkpt lat="40.0713749" lon="-105.229789">
  <ele>1583.0</ele>
  <time>2026-08-28T17:54:29Z</time>
  <course>0.0</course>
  <speed>0.0</speed>
  <fix>3d</fix>
</trkpt>
<trkpt lat="40.0713749" lon="-105.229789">
  <ele>1583.0</ele>
  <time>2026-08-28T17:54:29Z</time>
  <course>247.63</course>
  <speed>0.0316227766016838</speed>
  <fix>3d</fix>
</trkpt>
<trkpt lat="40.0713749" lon="-105.229789">
  <ele>1583.0</ele>
  <time>2026-08-28T17:54:29Z</time>
  <course>0.0</course>
  <speed>0.0</speed>
  <fix>3d</fix>
</trkpt>
<trkpt lat="40.0713749" lon="-105.229789">
  <ele>1583.0</ele>
  <time>2026-08-28T17:54:29Z</time>
  <course>247.63</course>
  <speed>0.0316227766016838</speed>
  <fix>3d</fix>
</trkpt>
<trkpt lat="40.0713749" lon="-105.229789">
  <ele>1583.0</ele>
  <time>2026-08-28T17:54:29Z</time>
  <course>0.0</course>
  <speed>0.0</speed>
  <fix>3d</fix>
</trkpt>
<trkpt lat="40.0713749" lon="-105.229789">
  <ele>1583.0</ele>
  <time>2026-08-28T17:54:29Z</time>
  <course>247.63</course>
  <speed>0.0316227766016838</speed>
  <fix>3d</fix>
</trkpt>
<trkpt lat="40.0713749" lon="-105.229789">
  <ele>1583.0</ele>
  <time>2026-08-28T17:54:29Z</time>
  <course>0.0</course>
  <speed>0.0</speed>
  <fix>3d</fix>
</trkpt>
<trkpt lat="40.0713749" lon="-105.229789">
  <ele>1583.0</ele>
  <time>2026-08-28T17:54:29Z</time>
  <course>247.62</course>
  <speed>0.0316227766016838</speed>
  <fix>3d</fix>
</trkpt>
<trkpt lat="40.0713749" lon="-105.229789">
  <ele>1583.0</ele>
  <time>2026-08-28T17:54:29Z</time>
  <course>0.0</course>
  <speed>0.0</speed>
  <fix>3d</fix>
</trkpt>
<trkpt lat="40.0713749" lon="-105.229789">
  <ele>1583.0</ele>
  <time>2026-08-28T17:54:29Z</time>
  <course>247.62</course>
  <speed>0.0316227766016838</speed>
  <fix>3d</fix>
</trkpt>
<trkpt lat="40.0713749" lon="-105.229789">
  <ele>1583.0</ele>
  <time>2026-08-28T17:54:29Z</time>
  <course>0.0</course>
  <speed>0.0</speed>
  <fix>3d</fix>
</trkpt>
<trkpt lat="40.0713749" lon="-105.229789">
  <ele>1583.0</ele>
  <time>2026-08-28T17:54:29Z</time>
  <course>247.62</course>
  <speed>0.0316227766016838</speed>
  <fix>3d</fix>
</trkpt>
<trkpt lat="40.0713749" lon="-105.229789">
  <ele>1583.0</ele>
  <time>2026-08-28T17:54:29Z</time>
  <course>0.0</course>
  <speed>0.0</speed>
  <fix>3d</fix>
</trkpt>
<trkpt lat="40.0713749" lon="-105.229789">
  <ele>1583.0</ele>
  <time>2026-08-28T17:54:29Z</time>
  <course>247.62</course>
  <speed>0.0316227766016838</speed>
  <fix>3d</fix>
</trkpt>
<trkpt lat="40.0713749" lon="-105.229789">
  <ele>1583.0</ele>
  <time>2026-08-28T17:54:29Z</time>
  <course>0.0</course>
  <speed>0.0</speed>
  <fix>3d</fix>
</trkpt>
<trkpt lat="40.0713749" lon="-105.229789">
  <ele>1583.0</ele>
  <time>2026-08-28T17:54:29Z</time>
  <course>247.61</course>
  <speed>0.0316227766016838</speed>
  <fix>3d</fix>
</trkpt>
<trkpt lat="40.0713749" lon="-105.229789">
  <ele>1583.0</ele>
  <time>2026-08-28T17:54:29Z</time>
  <course>0.0</course>
  <speed>0.0</speed>
  <fix>3d</fix>
</trkpt>
<trkpt lat="40.0713749" lon="-105.229789">
  <ele>1583.0</ele>
  <time>2026-08-28T17:54:29Z</time>
  <course>247.61</course>
  <speed>0.0316227766016838</speed>
  <fix>3d</fix>
</trkpt>
<trkpt lat="40.0713749" lon="-105.229789">
  <ele>1583.0</ele>
  <time>2026-08-28T17:54:29Z</time>
  <course>0.0</course>
  <speed>0.0</speed>
  <fix>3d</fix>
</trkpt>
<trkpt lat="40.0713749" lon="-105.229789">
  <ele>1583.0</ele>
  <time>2026-08-28T17:54:29Z</time>
  <course>247.61</course>
  <speed>0.0316227766016838</speed>
  <fix>3d</fix>
</trkpt>
<trkpt lat="40.0713749" lon="-105.229789">
  <ele>1583.0</ele>
  <time>2026-08-28T17:54:29Z</time>
  <course>0.0</course>
  <speed>0.0</speed>
  <fix>3d</fix>
</trkpt>
<trkpt lat="40.0713749" lon="-105.229789">
  <ele>1583.0</ele>
  <time>2026-08-28T17:54:29Z</time>
  <course>247.6</course>
  <speed>0.0316227766016838</speed>
  <fix>3d</fix>
</trkpt>
<trkpt lat="40.0713749" lon="-105.229789">
  <ele>1583.0</ele>
  <time>2026-08-28T17:54:29Z</time>
  <course>0.0</course>
  <speed>0.0</speed>
  <fix>3d</fix>
</trkpt>
<trkpt lat="40.0713749" lon="-105.229789">
  <ele>1583.0</ele>
  <time>2026-08-28T17:54:29Z</time>
  <course>247.6</course>
  <speed>0.0316227766016838</speed>
  <fix>3d</fix>
</trkpt>
<trkpt lat="40.0713749" lon="-105.229789">
  <ele>1583.0</ele>
  <time>2026-08-28T17:54:29Z</time>
  <course>0.0</course>
  <speed>0.0</speed>
  <fix>3d</fix>
</trkpt>
<trkpt lat="40.0713749" lon="-105.229789">
  <ele>1583.0</ele>
  <time>2026-08-28T17:54:29Z</time>
  <course>247.6</course>
  <speed>0.0316227766016838</speed>
  <fix>3d</fix>
</trkpt>
<trkpt lat="40.0713749" lon="-105.229789">
  <ele>1583.0</ele>
  <time>2026-08-28T17:54:29Z</time>
  <course>0.0</course>
  <speed>0.0</speed>
  <fix>3d</fix>
</trkpt>
<trkpt lat="40.0713749" lon="-105.229789">
  <ele>1583.0</ele>
  <time>2026-08-28T17:54:29Z</time>
  <course>247.6</course>
  <speed>0.0316227766016838</speed>
  <fix>3d</fix>
</trkpt>
<trkpt lat="40.0713749" lon="-105.229789">
  <ele>1583.0</ele>
  <time>2026-08-28T17:54:29Z</time>
  <course>0.0</course>
  <speed>0.0</speed>
  <fix>3d</fix>
</trkpt>
<trkpt lat="40.0713749" lon="-105.229789">
  <ele>1583.0</ele>
  <time>2026-08-28T17:54:29Z</time>
  <course>247.59</course>
  <speed>0.0316227766016838</speed>
  <fix>3d</fix>
</trkpt>
<trkpt lat="40.0713749" lon="-105.229789">
  <ele>1583.0</ele>
  <time>2026-08-28T17:54:29Z</time>
  <course>0.0</course>
  <speed>0.0</speed>
  <fix>3d</fix>
</trkpt>
<trkpt lat="40.0713749" lon="-105.229789">
  <ele>1582.92</ele>
  <time>2026-08-28T17:54:29Z</time>
  <course>247.59</course>
  <speed>0.0</speed>
  <fix>3d</fix>
</trkpt>
<trkpt lat="40.0713749" lon="-105.229789">
  <ele>1583.0</ele>
  <time>2026-08-28T17:54:29Z</time>
  <course>0.0</course>
  <speed>0.0</speed>
  <fix>3d</fix>
</trkpt>
<trkpt lat="40.0713749" lon="-105.229789">
  <ele>1582.92</ele>
  <time>2026-08-28T17:54:29Z</time>
  <course>247.59</course>
  <speed>0.0</speed>
  <fix>3d</fix>
</trkpt>
<trkpt lat="40.0713749" lon="-105.229789">
  <ele>1583.0</ele>
  <time>2026-08-28T17:54:29Z</time>
  <course>0.0</course>
  <speed>0.0</speed>
  <fix>3d</fix>
</trkpt>
<trkpt lat="40.0713749" lon="-105.229789">
  <ele>1582.91</ele>
  <time>2026-08-28T17:54:29Z</time>
  <course>247.58</course>
  <speed>0.0</speed>
  <fix>3d</fix>
</trkpt>
<trkpt lat="40.0713749" lon="-105.229789">
  <ele>1583.0</ele>
  <time>2026-08-28T17:54:29Z</time>
  <course>0.0</course>
  <speed>0.0</speed>
  <fix>3d</fix>
</trkpt>
<trkpt lat="40.0713749" lon="-105.229789">
  <ele>1582.91</ele>
  <time>2026-08-28T17:54:29Z</time>
  <course>247.58</course>
  <speed>0.0</speed>
  <fix>3d</fix>
</trkpt>
<trkpt lat="40.0713749" lon="-105.229789">
  <ele>1583.0</ele>
  <time>2026-08-28T17:54:29Z</time>
  <course>0.0</course>
  <speed>0.0</speed>
  <fix>3d</fix>
</trkpt>
<trkpt lat="40.0713749" lon="-105.229789">
  <ele>1582.9</ele>
  <time>2026-08-28T17:54:29Z</time>
  <course>247.58</course>
  <speed>0.0</speed>
  <fix>3d</fix>
</trkpt>
<trkpt lat="40.0713749" lon="-105.229789">
  <ele>1583.0</ele>
  <time>2026-08-28T17:54:29Z</time>
  <course>0.0</course>
  <speed>0.0</speed>
  <fix>3d</fix>
</trkpt>
<trkpt lat="40.0713749" lon="-105.229789">
  <ele>1582.9</ele>
  <time>2026-08-28T17:54:29Z</time>
  <course>247.58</course>
  <speed>0.0</speed>
  <fix>3d</fix>
</trkpt>
<trkpt lat="40.0713749" lon="-105.229789">
  <ele>1583.0</ele>
  <time>2026-08-28T17:54:29Z</time>
  <course>0.0</course>
  <speed>0.0</speed>
  <fix>3d</fix>
</trkpt>
<trkpt lat="40.0713749" lon="-105.229789">
  <ele>1582.9</ele>
  <time>2026-08-28T17:54:29Z</time>
  <course>247.57</course>
  <speed>0.0</speed>
  <fix>3d</fix>
</trkpt>
<trkpt lat="40.0713749" lon="-105.229789">
  <ele>1583.0</ele>
  <time>2026-08-28T17:54:29Z</time>
  <course>0.0</course>
  <speed>0.0</speed>
  <fix>3d</fix>
</trkpt>
<trkpt lat="40.0713749" lon="-105.229789">
  <ele>1582.9</ele>
  <time>2026-08-28T17:54:29Z</time>
  <course>247.57</course>
  <speed>0.0</speed>
  <fix>3d</fix>
</trkpt>
<trkpt lat="40.0713749" lon="-105.229789">
  <ele>1583.0</ele>
  <time>2026-08-28T17:54:29Z</time>
  <course>0.0</course>
  <speed>0.0</speed>
  <fix>3d</fix>
</trkpt>
<trkpt lat="40.0713749" lon="-105.229789">
  <ele>1582.9</ele>
  <time>2026-08-28T17:54:29Z</time>
  <course>247.57</course>
  <speed>0.0</speed>
  <fix>3d</fix>
</trkpt>
<trkpt lat="40.0713749" lon="-105.229789">
  <ele>1583.0</ele>
  <time>2026-08-28T17:54:29Z</time>
  <course>0.0</course>
  <speed>0.0</speed>
  <fix>3d</fix>
</trkpt>
<trkpt lat="40.0713749" lon="-105.229789">
  <ele>1582.9</ele>
  <time>2026-08-28T17:54:29Z</time>
  <course>247.57</course>
  <speed>0.01</speed>
  <fix>3d</fix>
</trkpt>
<trkpt lat="40.0713749" lon="-105.229789">
  <ele>1583.0</ele>
  <time>2026-08-28T17:54:29Z</time>
  <course>0.0</course>
  <speed>0.0</speed>
  <fix>3d</fix>
</trkpt>
<trkpt lat="40.0713749" lon="-105.229789">
  <ele>1582.9</ele>
  <time>2026-08-28T17:54:29Z</time>
  <course>247.56</course>
  <speed>0.01</speed>
  <fix>3d</fix>
</trkpt>
<trkpt lat="40.0713749" lon="-105.229789">
  <ele>1583.0</ele>
  <time>2026-08-28T17:54:29Z</time>
  <course>0.0</course>
  <speed>0.0</speed>
  <fix>3d</fix>
</trkpt>
<trkpt lat="40.0713749" lon="-105.229789">
  <ele>1582.91</ele>
  <time>2026-08-28T17:54:29Z</time>
  <course>247.56</course>
  <speed>0.01</speed>
  <fix>3d</fix>
</trkpt>
<trkpt lat="40.0713749" lon="-105.229789">
  <ele>1583.0</ele>
  <time>2026-08-28T17:54:29Z</time>
  <course>0.0</course>
  <speed>0.0</speed>
  <fix>3d</fix>
</trkpt>
<trkpt lat="40.0713749" lon="-105.229789">
  <ele>1582.91</ele>
  <time>2026-08-28T17:54:29Z</time>
  <course>247.56</course>
  <speed>0.01</speed>
  <fix>3d</fix>
</trkpt>
<trkpt lat="40.0713749" lon="-105.229789">
  <ele>1583.0</ele>
  <time>2026-08-28T17:54:29Z</time>
  <course>0.0</course>
  <speed>0.0</speed>
  <fix>3d</fix>
</trkpt>
<trkpt lat="40.0713749" lon="-105.229789">
  <ele>1582.92</ele>
  <time>2026-08-28T17:54:29Z</time>
  <course>247.56</course>
  <speed>0.01</speed>
  <fix>3d</fix>
</trkpt>
<trkpt lat="40.0713749" lon="-105.229789">
  <ele>1583.0</ele>
  <time>2026-08-28T17:54:29Z</time>
  <course>0.0</course>
  <speed>0.0</speed>
  <fix>3d</fix>
</trkpt>
<trkpt lat="40.0713749" lon="-105.229789">
  <ele>1582.92</ele>
  <time>2026-08-28T17:54:29Z</time>
  <course>247.55</course>
  <speed>0.01</speed>
  <fix>3d</fix>
</trkpt>
<trkpt lat="40.0713749" lon="-105.229789">
  <ele>1583.0</ele>
  <time>2026-08-28T17:54:29Z</time>
  <course>0.0</course>
  <speed>0.0</speed>
  <fix>3d</fix>
</trkpt>
<trkpt lat="40.0713749" lon="-105.229789">
  <ele>1582.92</ele>
  <time>2026-08-28T17:54:29Z</time>
  <course>247.55</course>
  <speed>0.01</speed>
  <fix>3d</fix>
</trkpt>
<trkpt lat="40.0713749" lon="-105.229789">
  <ele>1583.0</ele>
  <time>2026-08-28T17:54:29Z</time>
  <course>0.0</course>
  <speed>0.0</speed>
  <fix>3d</fix>
</trkpt>
<trkpt lat="40.0713749" lon="-105.229789">
  <ele>1582.93</ele>
  <time>2026-08-28T17:54:29Z</time>
  <course>247.55</course>
  <speed>0.01</speed>
  <fix>3d</fix>
</trkpt>
<trkpt lat="40.0713749" lon="-105.229789">
  <ele>1583.0</ele>
  <time>2026-08-28T17:54:29Z</time>
  <course>0.0</course>
  <speed>0.0</speed>
  <fix>3d</fix>
</trkpt>
<trkpt lat="40.0713749" lon="-105.229789">
  <ele>1582.93</ele>
  <time>2026-08-28T17:54:29Z</time>
  <course>247.55</course>
  <speed>0.01</speed>
  <fix>3d</fix>
</trkpt>
<trkpt lat="40.0713749" lon="-105.229789">
  <ele>1583.0</ele>
  <time>2026-08-28T17:54:29Z</time>
  <course>0.0</course>
  <speed>0.0</speed>
  <fix>3d</fix>
</trkpt>
<trkpt lat="40.0713749" lon="-105.229789">
  <ele>1582.93</ele>
  <time>2026-08-28T17:54:29Z</time>
  <course>247.54</course>
  <speed>0.01</speed>
  <fix>3d</fix>
</trkpt>
<trkpt lat="40.0713749" lon="-105.229789">
  <ele>1583.0</ele>
  <time>2026-08-28T17:54:29Z</time>
  <course>0.0</course>
  <speed>0.0</speed>
  <fix>3d</fix>
</trkpt>
<trkpt lat="40.0713749" lon="-105.229789">
  <ele>1582.93</ele>
  <time>2026-08-28T17:54:29Z</time>
  <course>247.54</course>
  <speed>0.02</speed>
  <fix>3d</fix>
</trkpt>
<trkpt lat="40.0713749" lon="-105.229789">
  <ele>1583.0</ele>
  <time>2026-08-28T17:54:29Z</time>
  <course>0.0</course>
  <speed>0.0</speed>
  <fix>3d</fix>
</trkpt>
<trkpt lat="40.0713749" lon="-105.229789">
  <ele>1582.94</ele>
  <time>2026-08-28T17:54:29Z</time>
  <course>247.54</course>
  <speed>0.02</speed>
  <fix>3d</fix>
</trkpt>
<trkpt lat="40.0713749" lon="-105.229789">
  <ele>1583.0</ele>
  <time>2026-08-28T17:54:29Z</time>
  <course>0.0</course>
  <speed>0.0</speed>
  <fix>3d</fix>
</trkpt>
<trkpt lat="40.0713749" lon="-105.229789">
  <ele>1582.94</ele>
  <time>2026-08-28T17:54:29Z</time>
  <course>247.54</course>
  <speed>0.02</speed>
  <fix>3d</fix>
</trkpt>
<trkpt lat="40.0713749" lon="-105.229789">
  <ele>1583.0</ele>
  <time>2026-08-28T17:54:29Z</time>
  <course>0.0</course>
  <speed>0.0</speed>
  <fix>3d</fix>
</trkpt>
<trkpt lat="40.0713749" lon="-105.229789">
  <ele>1582.94</ele>
  <time>2026-08-28T17:54:29Z</time>
  <course>247.53</course>
  <speed>0.02</speed>
  <fix>3d</fix>
</trkpt>
<trkpt lat="40.0713749" lon="-105.229789">
  <ele>1583.0</ele>
  <time>2026-08-28T17:54:29Z</time>
  <course>0.0</course>
  <speed>0.0</speed>
  <fix>3d</fix>
</trkpt>
<trkpt lat="40.0713749" lon="-105.229789">
  <ele>1582.95</ele>
  <time>2026-08-28T17:54:29Z</time>
  <course>247.53</course>
  <speed>0.02</speed>
  <fix>3d</fix>
</trkpt>
<trkpt lat="40.0713749" lon="-105.229789">
  <ele>1582.95</ele>
  <time>2026-08-28T17:54:29Z</time>
  <course>247.53</course>
  <speed>0.02</speed>
  <fix>3d</fix>
</trkpt>
<trkpt lat="40.0713749" lon="-105.229789">
  <ele>1582.95</ele>
  <time>2026-08-28T17:54:29Z</time>
  <course>247.53</course>
  <speed>0.02</speed>
  <fix>3d</fix>
</trkpt>
<trkpt lat="40.0713749" lon="-105.229789">
  <ele>1583.0</ele>
  <time>2026-08-28T17:54:29Z</time>
  <course>246.0</course>
  <speed>0.0</speed>
  <fix>3d</fix>
</trkpt>
<trkpt lat="40.0713749" lon="-105.229789">
  <ele>1582.95</ele>
  <time>2026-08-28T17:54:29Z</time>
  <course>247.53</course>
  <speed>0.01</speed>
  <fix>3d</fix>
</trkpt>
<trkpt lat="40.0713749" lon="-105.229789">
  <ele>1582.95</ele>
  <time>2026-08-28T17:54:29Z</time>
  <course>247.53</course>
  <speed>0.01</speed>
  <fix>3d</fix>
</trkpt>
<trkpt lat="40.0713749" lon="-105.229789">
  <ele>1582.95</ele>
  <time>2026-08-28T17:54:29Z</time>
  <course>247.53</course>
  <speed>0.01</speed>
  <fix>3d</fix>
</trkpt>
<trkpt lat="40.0713749" lon="-105.229789">
  <ele>1583.0</ele>
  <time>2026-08-28T17:54:29Z</time>
  <course>246.0</course>
  <speed>0.0</speed>
  <fix>3d</fix>
</trkpt>
<trkpt lat="40.0713749" lon="-105.229789">
  <ele>1582.95</ele>
  <time>2026-08-28T17:54:29Z</time>
  <course>247.52</course>
  <speed>0.01</speed>
  <fix>3d</fix>
</trkpt>
<trkpt lat="40.0713749" lon="-105.229789">
  <ele>1582.95</ele>
  <time>2026-08-28T17:54:29Z</time>
  <course>247.51</course>
  <speed>0.01</speed>
  <fix>3d</fix>
</trkpt>
<trkpt lat="40.0713749" lon="-105.229789">
  <ele>1582.95</ele>
  <time>2026-08-28T17:54:29Z</time>
  <course>247.51</course>
  <speed>0.01</speed>
  <fix>3d</fix>
</trkpt>
<trkpt lat="40.0713749" lon="-105.229789">
  <ele>1583.0</ele>
  <time>2026-08-28T17:54:29Z</time>
  <course>245.98</course>
  <speed>0.0</speed>
  <fix>3d</fix>
</trkpt>
<trkpt lat="40.0713749" lon="-105.229789">
  <ele>1582.96</ele>
  <time>2026-08-28T17:54:29Z</time>
  <course>247.52</course>
  <speed>0.01</speed>
  <fix>3d</fix>
</trkpt>
<trkpt lat="40.0713749" lon="-105.229789">
  <ele>1582.96</ele>
  <time>2026-08-28T17:54:29Z</time>
  <course>247.53</course>
  <speed>0.01414213562373095</speed>
  <fix>3d</fix>
</trkpt>
<trkpt lat="40.0713749" lon="-105.229789">
  <ele>1582.96</ele>
  <time>2026-08-28T17:54:29Z</time>
  <course>247.53</course>
  <speed>0.01414213562373095</speed>
  <fix>3d</fix>
</trkpt>
<trkpt lat="40.0713749" lon="-105.229789">
  <ele>1583.0</ele>
  <time>2026-08-28T17:54:29Z</time>
  <course>245.98</course>
  <speed>0.0</speed>
  <fix>3d</fix>
</trkpt>
<trkpt lat="40.0713749" lon="-105.229789">
  <ele>1582.96</ele>
  <time>2026-08-28T17:54:29Z</time>
  <course>247.58</course>
  <speed>0.02</speed>
  <fix>3d</fix>
</trkpt>
<trkpt lat="40.0713749" lon="-105.229789">
  <ele>1582.96</ele>
  <time>2026-08-28T17:54:29Z</time>
  <course>247.6</course>
  <speed>0.02</speed>
  <fix>3d</fix>
</trkpt>
<trkpt lat="40.0713749" lon="-105.229789">
  <ele>1582.96</ele>
  <time>2026-08-28T17:54:29Z</time>
  <course>247.6</course>
  <speed>0.02</speed>
  <fix>3d</fix>
</trkpt>
<trkpt lat="40.0713749" lon="-105.229789">
  <ele>1583.0</ele>
  <time>2026-08-28T17:54:29Z</time>
  <course>246.05</course>
  <speed>0.02</speed>
  <fix>3d</fix>
</trkpt>
<trkpt lat="40.0713749" lon="-105.229789">
  <ele>1582.96</ele>
  <time>2026-08-28T17:54:29Z</time>
  <course>247.68</course>
  <speed>0.03</speed>
  <fix>3d</fix>
</trkpt>
<trkpt lat="40.0713749" lon="-105.229789">
  <ele>1582.96</ele>
  <time>2026-08-28T17:54:29Z</time>
  <course>247.72</course>
  <speed>0.04</speed>
  <fix>3d</fix>
</trkpt>
<trkpt lat="40.0713749" lon="-105.229789">
  <ele>1582.96</ele>
  <time>2026-08-28T17:54:29Z</time>
  <course>247.76</course>
  <speed>0.04</speed>
  <fix>3d</fix>
</trkpt>
<trkpt lat="40.0713749" lon="-105.229789">
  <ele>1582.96</ele>
  <time>2026-08-28T17:54:29Z</time>
  <course>247.76</course>
  <speed>0.04</speed>
  <fix>3d</fix>
</trkpt>
<trkpt lat="40.0713749" lon="-105.229789">
  <ele>1583.0</ele>
  <time>2026-08-28T17:54:29Z</time>
  <course>246.05</course>
  <speed>0.02</speed>
  <fix>3d</fix>
</trkpt>
<trkpt lat="40.0713749" lon="-105.2297891">
  <ele>1582.96</ele>
  <time>2026-08-28T17:54:29Z</time>
  <course>247.92</course>
  <speed>0.06082762530298219</speed>
  <fix>3d</fix>
</trkpt>
<trkpt lat="40.0713749" lon="-105.2297891">
  <ele>1582.96</ele>
  <time>2026-08-28T17:54:29Z</time>
  <course>247.98</course>
  <speed>0.06082762530298219</speed>
  <fix>3d</fix>
</trkpt>
<trkpt lat="40.0713749" lon="-105.2297891">
  <ele>1582.96</ele>
  <time>2026-08-28T17:54:29Z</time>
  <course>248.06</course>
  <speed>0.07071067811865475</speed>
  <fix>3d</fix>
</trkpt>
<trkpt lat="40.0713749" lon="-105.2297891">
  <ele>1582.96</ele>
  <time>2026-08-28T17:54:29Z</time>
  <course>248.06</course>
  <speed>0.07071067811865475</speed>
  <fix>3d</fix>
</trkpt>
<trkpt lat="40.0713749" lon="-105.229789">
  <ele>1583.0</ele>
  <time>2026-08-28T17:54:29Z</time>
  <course>246.4</course>
  <speed>0.06</speed>
  <fix>3d</fix>
</trkpt>
<trkpt lat="40.0713749" lon="-105.2297892">
  <ele>1582.96</ele>
  <time>2026-08-28T17:54:29Z</time>
  <course>248.34</course>
  <speed>0.09219544457292887</speed>
  <fix>3d</fix>
</trkpt>
<trkpt lat="40.0713749" lon="-105.2297892">
  <ele>1582.96</ele>
  <time>2026-08-28T17:54:29Z</time>
  <course>248.46</course>
  <speed>0.1019803902718557</speed>
  <fix>3d</fix>
</trkpt>
<trkpt lat="40.0713749" lon="-105.2297892">
  <ele>1582.96</ele>
  <time>2026-08-28T17:54:29Z</time>
  <course>248.59</course>
  <speed>0.1019803902718557</speed>
  <fix>3d</fix>
</trkpt>
<trkpt lat="40.0713749" lon="-105.2297892">
  <ele>1582.96</ele>
  <time>2026-08-28T17:54:29Z</time>
  <course>248.59</course>
  <speed>0.1019803902718557</speed>
  <fix>3d</fix>
</trkpt>
<trkpt lat="40.0713749" lon="-105.229789">
  <ele>1583.0</ele>
  <time>2026-08-28T17:54:29Z</time>
  <course>246.4</course>
  <speed>0.06</speed>
  <fix>3d</fix>
</trkpt>
<trkpt lat="40.0713749" lon="-105.2297893">
  <ele>1582.96</ele>
  <time>2026-08-28T17:54:29Z</time>
  <course>249.06</course>
  <speed>0.13341664064126335</speed>
  <fix>3d</fix>
</trkpt>
<trkpt lat="40.0713749" lon="-105.2297893">
  <ele>1582.96</ele>
  <time>2026-08-28T17:54:29Z</time>
  <course>249.25</course>
  <speed>0.14560219778561037</speed>
  <fix>3d</fix>
</trkpt>
<trkpt lat="40.0713749" lon="-105.2297894">
  <ele>1582.96</ele>
  <time>2026-08-28T17:54:29Z</time>
  <course>249.45</course>
  <speed>0.15524174696260024</speed>
  <fix>3d</fix>
</trkpt>
<trkpt lat="40.0713749" lon="-105.2297894">
  <ele>1582.96</ele>
  <time>2026-08-28T17:54:29Z</time>
  <course>249.45</course>
  <speed>0.15524174696260024</speed>
  <fix>3d</fix>
</trkpt>
<trkpt lat="40.0713749" lon="-105.2297892">
  <ele>1583.0</ele>
  <time>2026-08-28T17:54:29Z</time>
  <course>247.47</course>
  <speed>0.12</speed>
  <fix>3d</fix>
</trkpt>
<trkpt lat="40.0713748" lon="-105.2297895">
  <ele>1582.96</ele>
  <time>2026-08-28T17:54:29Z</time>
  <course>250.42</course>
  <speed>0.196468827043885</speed>
  <fix>3d</fix>
</trkpt>
<trkpt lat="40.0713748" lon="-105.2297896">
  <ele>1582.95</ele>
  <time>2026-08-28T17:54:29Z</time>
  <course>250.7</course>
  <speed>0.21840329667841554</speed>
  <fix>3d</fix>
</trkpt>
<trkpt lat="40.0713748" lon="-105.2297896">
  <ele>1582.95</ele>
  <time>2026-08-28T17:54:29Z</time>
  <course>250.7</course>
  <speed>0.21840329667841554</speed>
  <fix>3d</fix>
</trkpt>
<trkpt lat="40.0713749" lon="-105.2297892">
  <ele>1583.0</ele>
  <time>2026-08-28T17:54:29Z</time>
  <course>247.47</course>
  <speed>0.12</speed>
  <fix>3d</fix>
</trkpt>
<trkpt lat="40.0713748" lon="-105.2297898">
  <ele>1582.95</ele>
  <time>2026-08-28T17:54:29Z</time>
  <course>251.98</course>
  <speed>0.2692582403567252</speed>
  <fix>3d</fix>
</trkpt>
<trkpt lat="40.0713748" lon="-105.2297899">
  <ele>1582.95</ele>
  <time>2026-08-28T17:54:29Z</time>
  <course>252.34</course>
  <speed>0.27892651361962706</speed>
  <fix>3d</fix>
</trkpt>
<trkpt lat="40.0713748" lon="-105.2297899">
  <ele>1582.95</ele>
  <time>2026-08-28T17:54:29Z</time>
  <course>252.34</course>
  <speed>0.27892651361962706</speed>
  <fix>3d</fix>
</trkpt>
<trkpt lat="40.0713748" lon="-105.2297896">
  <ele>1583.0</ele>
  <time>2026-08-28T17:54:29Z</time>
  <course>249.78</course>
  <speed>0.23</speed>
  <fix>3d</fix>
</trkpt>
<trkpt lat="40.0713747" lon="-105.2297902">
  <ele>1582.95</ele>
  <time>2026-08-28T17:54:29Z</time>
  <course>253.99</course>
  <speed>0.34928498393145957</speed>
  <fix>3d</fix>
</trkpt>
<trkpt lat="40.0713747" lon="-105.2297903">
  <ele>1582.95</ele>
  <time>2026-08-28T17:54:29Z</time>
  <course>254.46</course>
  <speed>0.3687817782917155</speed>
  <fix>3d</fix>
</trkpt>
<trkpt lat="40.0713747" lon="-105.2297903">
  <ele>1582.95</ele>
  <time>2026-08-28T17:54:29Z</time>
  <course>254.46</course>
  <speed>0.3687817782917155</speed>
  <fix>3d</fix>
</trkpt>
<trkpt lat="40.0713748" lon="-105.2297896">
  <ele>1583.0</ele>
  <time>2026-08-28T17:54:29Z</time>
  <course>249.78</course>
  <speed>0.23</speed>
  <fix>3d</fix>
</trkpt>
<trkpt lat="40.0713746" lon="-105.2297907">
  <ele>1582.96</ele>
  <time>2026-08-28T17:54:29Z</time>
  <course>256.53</course>
  <speed>0.4393176527297759</speed>
  <fix>3d</fix>
</trkpt>
<trkpt lat="40.0713746" lon="-105.2297908">
  <ele>1582.95</ele>
  <time>2026-08-28T17:54:29Z</time>
  <course>257.11</course>
  <speed>0.4589117562233506</speed>
  <fix>3d</fix>
</trkpt>
<trkpt lat="40.0713746" lon="-105.2297908">
  <ele>1582.95</ele>
  <time>2026-08-28T17:54:29Z</time>
  <course>257.11</course>
  <speed>0.4589117562233506</speed>
  <fix>3d</fix>
</trkpt>
<trkpt lat="40.0713748" lon="-105.2297896">
  <ele>1583.0</ele>
  <time>2026-08-28T17:54:29Z</time>
  <course>249.78</course>
  <speed>0.23</speed>
  <fix>3d</fix>
</trkpt>
<trkpt lat="40.0713745" lon="-105.2297911">
  <ele>1582.95</ele>
  <time>2026-08-28T17:54:29Z</time>
  <course>258.98</course>
  <speed>0.5162363799656123</speed>
  <fix>3d</fix>
</trkpt>
<trkpt lat="40.0713745" lon="-105.2297913">
  <ele>1582.95</ele>
  <time>2026-08-28T17:54:29Z</time>
  <course>259.65</course>
  <speed>0.5360037313302959</speed>
  <fix>3d</fix>
</trkpt>
<trkpt lat="40.0713745" lon="-105.2297914">
  <ele>1582.95</ele>
  <time>2026-08-28T17:54:29Z</time>
  <course>260.35</course>
  <speed>0.5557877292636101</speed>
  <fix>3d</fix>
</trkpt>
<trkpt lat="40.0713745" lon="-105.2297914">
  <ele>1582.95</ele>
  <time>2026-08-28T17:54:29Z</time>
  <course>260.35</course>
  <speed>0.5557877292636101</speed>
  <fix>3d</fix>
</trkpt>
<trkpt lat="40.0713747" lon="-105.2297903">
  <ele>1583.0</ele>
  <time>2026-08-28T17:54:29Z</time>
  <course>253.77</course>
  <speed>0.37</speed>
  <fix>3d</fix>
</trkpt>
<trkpt lat="40.0713744" lon="-105.229792">
  <ele>1582.95</ele>
  <time>2026-08-28T17:54:29Z</time>
  <course>263.41</course>
  <speed>0.6428063471995279</speed>
  <fix>3d</fix>
</trkpt>
<trkpt lat="40.0713744" lon="-105.2297921">
  <ele>1582.95</ele>
  <time>2026-08-28T17:54:29Z</time>
  <course>264.24</course>
  <speed>0.6618912297349165</speed>
  <fix>3d</fix>
</trkpt>
<trkpt lat="40.0713744" lon="-105.2297921">
  <ele>1582.95</ele>
  <time>2026-08-28T17:54:29Z</time>
  <course>264.24</course>
  <speed>0.6618912297349165</speed>
  <fix>3d</fix>
</trkpt>
<trkpt lat="40.0713747" lon="-105.2297903">
  <ele>1583.0</ele>
  <time>2026-08-28T17:54:29Z</time>
  <course>253.77</course>
  <speed>0.37</speed>
  <fix>3d</fix>
</trkpt>
<trkpt lat="40.0713744" lon="-105.2297926">
  <ele>1582.95</ele>
  <time>2026-08-28T17:54:29Z</time>
  <course>266.89</course>
  <speed>0.7302739212103907</speed>
  <fix>3d</fix>
</trkpt>
<trkpt lat="40.0713744" lon="-105.2297928">
  <ele>1582.95</ele>
  <time>2026-08-28T17:54:29Z</time>
  <course>267.84</course>
  <speed>0.7600657866263946</speed>
  <fix>3d</fix>
</trkpt>
<trkpt lat="40.0713744" lon="-105.229793">
  <ele>1582.95</ele>
  <time>2026-08-28T17:54:29Z</time>
  <course>268.81</course>
  <speed>0.78</speed>
  <fix>3d</fix>
</trkpt>
<trkpt lat="40.0713744" lon="-105.229793">
  <ele>1582.95</ele>
  <time>2026-08-28T17:54:29Z</time>
  <course>268.81</course>
  <speed>0.78</speed>
  <fix>3d</fix>
</trkpt>
<trkpt lat="40.0713745" lon="-105.2297914">
  <ele>1583.0</ele>
  <time>2026-08-28T17:54:29Z</time>
  <course>259.86</course>
  <speed>0.56</speed>
  <fix>3d</fix>
</trkpt>
<trkpt lat="40.0713744" lon="-105.2297936">
  <ele>1582.95</ele>
  <time>2026-08-28T17:54:29Z</time>
  <course>271.89</course>
  <speed>0.8509406559801923</speed>
  <fix>3d</fix>
</trkpt>
<trkpt lat="40.0713744" lon="-105.2297938">
  <ele>1582.95</ele>
  <time>2026-08-28T17:54:29Z</time>
  <course>272.97</course>
  <speed>0.8714355971613738</speed>
  <fix>3d</fix>
</trkpt>
<trkpt lat="40.0713744" lon="-105.229794">
  <ele>1582.95</ele>
  <time>2026-08-28T17:54:29Z</time>
  <course>274.09</course>
  <speed>0.8927485648266257</speed>
  <fix>3d</fix>
</trkpt>
<trkpt lat="40.0713744" lon="-105.229794">
  <ele>1582.95</ele>
  <time>2026-08-28T17:54:29Z</time>
  <course>274.09</course>
  <speed>0.8927485648266257</speed>
  <fix>3d</fix>
</trkpt>
<trkpt lat="40.0713745" lon="-105.2297914">
  <ele>1583.0</ele>
  <time>2026-08-28T17:54:29Z</time>
  <course>259.86</course>
  <speed>0.56</speed>
  <fix>3d</fix>
</trkpt>
<trkpt lat="40.0713744" lon="-105.2297947">
  <ele>1582.95</ele>
  <time>2026-08-28T17:54:29Z</time>
  <course>277.62</course>
  <speed>0.9701546268507922</speed>
  <fix>3d</fix>
</trkpt>
<trkpt lat="40.0713744" lon="-105.2297949">
  <ele>1582.95</ele>
  <time>2026-08-28T17:54:29Z</time>
  <course>278.86</course>
  <speed>0.9929753269845127</speed>
  <fix>3d</fix>
</trkpt>
<trkpt lat="40.0713744" lon="-105.2297952">
  <ele>1582.95</ele>
  <time>2026-08-28T17:54:29Z</time>
  <course>280.12</course>
  <speed>1.0178899744078433</speed>
  <fix>3d</fix>
</trkpt>
<trkpt lat="40.0713744" lon="-105.2297952">
  <ele>1582.95</ele>
  <time>2026-08-28T17:54:29Z</time>
  <course>280.12</course>
  <speed>1.0178899744078433</speed>
  <fix>3d</fix>
</trkpt>
<trkpt lat="40.0713743" lon="-105.229793">
  <ele>1583.0</ele>
  <time>2026-08-28T17:54:29Z</time>
  <course>268.46</course>
  <speed>0.77</speed>
  <fix>3d</fix>
</trkpt>
<trkpt lat="40.0713746" lon="-105.2297961">
  <ele>1582.95</ele>
  <time>2026-08-28T17:54:29Z</time>
  <course>285.5</course>
  <speed>1.1140017953306898</speed>
  <fix>3d</fix>
</trkpt>
<trkpt lat="40.0713747" lon="-105.2297964">
  <ele>1582.95</ele>
  <time>2026-08-28T17:54:29Z</time>
  <course>286.92</course>
  <speed>1.1417968295629481</speed>
  <fix>3d</fix>
</trkpt>
<trkpt lat="40.0713747" lon="-105.2297964">
  <ele>1582.95</ele>
  <time>2026-08-28T17:54:29Z</time>
  <course>286.92</course>
  <speed>1.1417968295629481</speed>
  <fix>3d</fix>
</trkpt>
<trkpt lat="40.0713743" lon="-105.229793">
  <ele>1583.0</ele>
  <time>2026-08-28T17:54:29Z</time>
  <course>268.46</course>
  <speed>0.77</speed>
  <fix>3d</fix>
</trkpt>
<trkpt lat="40.071375" lon="-105.2297975">
  <ele>1582.95</ele>
  <time>2026-08-28T17:54:29Z</time>
  <course>292.99</course>
  <speed>1.2448293055676347</speed>
  <fix>3d</fix>
</trkpt>
<trkpt lat="40.071375" lon="-105.2297978">
  <ele>1582.95</ele>
  <time>2026-08-28T17:54:29Z</time>
  <course>294.57</course>
  <speed>1.2704723531033644</speed>
  <fix>3d</fix>
</trkpt>
<trkpt lat="40.071375" lon="-105.2297978">
  <ele>1582.95</ele>
  <time>2026-08-28T17:54:29Z</time>
  <course>294.57</course>
  <speed>1.2704723531033644</speed>
  <fix>3d</fix>
</trkpt>
<trkpt lat="40.0713743" lon="-105.229795">
  <ele>1583.0</ele>
  <time>2026-08-28T17:54:29Z</time>
  <course>279.88</course>
  <speed>1.0</speed>
  <fix>3d</fix>
</trkpt>
<trkpt lat="40.0713754" lon="-105.2297986">
  <ele>1582.95</ele>
  <time>2026-08-28T17:54:29Z</time>
  <course>299.34</course>
  <speed>1.3482581355215328</speed>
  <fix>3d</fix>
</trkpt>
<trkpt lat="40.0713755" lon="-105.2297989">
  <ele>1582.95</ele>
  <time>2026-08-28T17:54:29Z</time>
  <course>300.87</course>
  <speed>1.3685759021698432</speed>
  <fix>3d</fix>
</trkpt>
<trkpt lat="40.0713756" lon="-105.2297991">
  <ele>1582.95</ele>
  <time>2026-08-28T17:54:29Z</time>
  <course>302.36</course>
  <speed>1.3951702405083042</speed>
  <fix>3d</fix>
</trkpt>
<trkpt lat="40.0713756" lon="-105.2297991">
  <ele>1582.95</ele>
  <time>2026-08-28T17:54:29Z</time>
  <course>302.36</course>
  <speed>1.3951702405083042</speed>
  <fix>3d</fix>
</trkpt>
<trkpt lat="40.0713749" lon="-105.2297975">
  <ele>1583.0</ele>
  <time>2026-08-28T17:54:29Z</time>
  <course>294.01</course>
  <speed>1.24</speed>
  <fix>3d</fix>
</trkpt>
<trkpt lat="40.0713762" lon="-105.2298003">
  <ele>1582.96</ele>
  <time>2026-08-28T17:54:29Z</time>
  <course>308.09</course>
  <speed>1.5008331019803633</speed>
  <fix>3d</fix>
</trkpt>
<trkpt lat="40.0713764" lon="-105.2298005">
  <ele>1582.96</ele>
  <time>2026-08-28T17:54:29Z</time>
  <course>309.48</course>
  <speed>1.52620444239951</speed>
  <fix>3d</fix>
</trkpt>
<trkpt lat="40.0713764" lon="-105.2298005">
  <ele>1582.96</ele>
  <time>2026-08-28T17:54:29Z</time>
  <course>309.48</course>
  <speed>1.52620444239951</speed>
  <fix>3d</fix>
</trkpt>
<trkpt lat="40.0713749" lon="-105.2297975">
  <ele>1583.0</ele>
  <time>2026-08-28T17:54:29Z</time>
  <course>294.01</course>
  <speed>1.24</speed>
  <fix>3d</fix>
</trkpt>
<trkpt lat="40.0713772" lon="-105.2298016">
  <ele>1582.96</ele>
  <time>2026-08-28T17:54:29Z</time>
  <course>314.87</course>
  <speed>1.6192899678562824</speed>
  <fix>3d</fix>
</trkpt>
<trkpt lat="40.0713774" lon="-105.2298019">
  <ele>1582.97</ele>
  <time>2026-08-28T17:54:29Z</time>
  <course>316.19</course>
  <speed>1.6410362579784763</speed>
  <fix>3d</fix>
</trkpt>
<trkpt lat="40.0713774" lon="-105.2298019">
  <ele>1582.97</ele>
  <time>2026-08-28T17:54:29Z</time>
  <course>316.19</course>
  <speed>1.6410362579784763</speed>
  <fix>3d</fix>
</trkpt>
<trkpt lat="40.0713762" lon="-105.2298002">
  <ele>1583.0</ele>
  <time>2026-08-28T17:54:29Z</time>
  <course>308.44</course>
  <speed>1.48</speed>
  <fix>3d</fix>
</trkpt>
<trkpt lat="40.0713783" lon="-105.2298029">
  <ele>1582.97</ele>
  <time>2026-08-28T17:54:29Z</time>
  <course>321.3</course>
  <speed>1.7164206943520577</speed>
  <fix>3d</fix>
</trkpt>
<trkpt lat="40.0713786" lon="-105.2298032">
  <ele>1582.97</ele>
  <time>2026-08-28T17:54:29Z</time>
  <course>322.52</course>
  <speed>1.7420103329199859</speed>
  <fix>3d</fix>
</trkpt>
<trkpt lat="40.0713762" lon="-105.2298002">
  <ele>1583.0</ele>
  <time>2026-08-28T17:54:29Z</time>
  <course>308.44</course>
  <speed>1.48</speed>
  <fix>3d</fix>
</trkpt>
<trkpt lat="40.0713788" lon="-105.2298034">
  <ele>1582.97</ele>
  <time>2026-08-28T17:54:29Z</time>
  <course>323.73</course>
  <speed>1.7623280057923383</speed>
  <fix>3d</fix>
</trkpt>
<trkpt lat="40.0713796" lon="-105.2298042">
  <ele>1582.97</ele>
  <time>2026-08-28T17:54:29Z</time>
  <course>327.11</course>
  <speed>1.811573901335521</speed>
  <fix>3d</fix>
</trkpt>
<trkpt lat="40.0713799" lon="-105.2298044">
  <ele>1582.97</ele>
  <time>2026-08-28T17:54:29Z</time>
  <course>328.16</course>
  <speed>1.8264993840677854</speed>
  <fix>3d</fix>
</trkpt>
<trkpt lat="40.0713799" lon="-105.2298044">
  <ele>1582.97</ele>
  <time>2026-08-28T17:54:29Z</time>
  <course>328.16</course>
  <speed>1.8264993840677854</speed>
  <fix>3d</fix>
</trkpt>
<trkpt lat="40.0713783" lon="-105.2298029">
  <ele>1583.0</ele>
  <time>2026-08-28T17:54:29Z</time>
  <course>321.13</course>
  <speed>1.69</speed>
  <fix>3d</fix>
</trkpt>
<trkpt lat="40.0713811" lon="-105.2298053">
  <ele>1582.98</ele>
  <time>2026-08-28T17:54:29Z</time>
  <course>332.05</course>
  <speed>1.9053870997778903</speed>
  <fix>3d</fix>
</trkpt>
<trkpt lat="40.0713814" lon="-105.2298055">
  <ele>1582.98</ele>
  <time>2026-08-28T17:54:29Z</time>
  <course>332.95</course>
  <speed>1.923018460649819</speed>
  <fix>3d</fix>
</trkpt>
<trkpt lat="40.0713814" lon="-105.2298055">
  <ele>1582.98</ele>
  <time>2026-08-28T17:54:29Z</time>
  <course>332.95</course>
  <speed>1.923018460649819</speed>
  <fix>3d</fix>
</trkpt>
<trkpt lat="40.0713783" lon="-105.2298029">
  <ele>1583.0</ele>
  <time>2026-08-28T17:54:29Z</time>
  <course>321.13</course>
  <speed>1.69</speed>
  <fix>3d</fix>
</trkpt>
<trkpt lat="40.0713827" lon="-105.2298063">
  <ele>1582.98</ele>
  <time>2026-08-28T17:54:29Z</time>
  <course>336.31</course>
  <speed>1.9932385707686877</speed>
  <fix>3d</fix>
</trkpt>
<trkpt lat="40.0713831" lon="-105.2298064">
  <ele>1582.98</ele>
  <time>2026-08-28T17:54:29Z</time>
  <course>337.07</course>
  <speed>2.0130822139197395</speed>
  <fix>3d</fix>
</trkpt>
<trkpt lat="40.0713831" lon="-105.2298064">
  <ele>1582.98</ele>
  <time>2026-08-28T17:54:29Z</time>
  <course>337.07</course>
  <speed>2.0130822139197395</speed>
  <fix>3d</fix>
</trkpt>
<trkpt lat="40.0713809" lon="-105.2298052">
  <ele>1583.0</ele>
  <time>2026-08-28T17:54:29Z</time>
  <course>331.44</course>
  <speed>1.87</speed>
  <fix>3d</fix>
</trkpt>
<trkpt lat="40.0713841" lon="-105.229807">
  <ele>1582.98</ele>
  <time>2026-08-28T17:54:29Z</time>
  <course>339.21</course>
  <speed>2.059927183179056</speed>
  <fix>3d</fix>
</trkpt>
<trkpt lat="40.0713844" lon="-105.2298071">
  <ele>1582.98</ele>
  <time>2026-08-28T17:54:29Z</time>
  <course>339.88</course>
  <speed>2.081249624624591</speed>
  <fix>3d</fix>
</trkpt>
<trkpt lat="40.0713848" lon="-105.2298073">
  <ele>1582.98</ele>
  <time>2026-08-28T17:54:29Z</time>
  <course>340.53</course>
  <speed>2.106228857460651</speed>
  <fix>3d</fix>
</trkpt>
<trkpt lat="40.0713848" lon="-105.2298073">
  <ele>1582.98</ele>
  <time>2026-08-28T17:54:29Z</time>
  <course>340.53</course>
  <speed>2.106228857460651</speed>
  <fix>3d</fix>
</trkpt>
<trkpt lat="40.0713809" lon="-105.2298052">
  <ele>1583.0</ele>
  <time>2026-08-28T17:54:29Z</time>
  <course>331.44</course>
  <speed>1.87</speed>
  <fix>3d</fix>
</trkpt>
<trkpt lat="40.0713859" lon="-105.2298078">
  <ele>1582.98</ele>
  <time>2026-08-28T17:54:29Z</time>
  <course>342.34</course>
  <speed>2.157127719909046</speed>
  <fix>3d</fix>
</trkpt>
<trkpt lat="40.0713863" lon="-105.2298079">
  <ele>1582.98</ele>
  <time>2026-08-28T17:54:29Z</time>
  <course>342.91</course>
  <speed>2.173315439599139</speed>
  <fix>3d</fix>
</trkpt>
<trkpt lat="40.0713866" lon="-105.2298081">
  <ele>1582.98</ele>
  <time>2026-08-28T17:54:29Z</time>
  <course>343.46</course>
  <speed>2.1868013169924696</speed>
  <fix>3d</fix>
</trkpt>
<trkpt lat="40.0713866" lon="-105.2298081">
  <ele>1582.98</ele>
  <time>2026-08-28T17:54:29Z</time>
  <course>343.46</course>
  <speed>2.1868013169924696</speed>
  <fix>3d</fix>
</trkpt>
<trkpt lat="40.0713841" lon="-105.2298071">
  <ele>1583.0</ele>
  <time>2026-08-28T17:54:29Z</time>
  <course>339.01</course>
  <speed>2.05</speed>
  <fix>3d</fix>
</trkpt>
<trkpt lat="40.0713882" lon="-105.2298086">
  <ele>1582.98</ele>
  <time>2026-08-28T17:54:29Z</time>
  <course>345.49</course>
  <speed>2.270154179786034</speed>
  <fix>3d</fix>
</trkpt>
<trkpt lat="40.0713886" lon="-105.2298088">
  <ele>1582.98</ele>
  <time>2026-08-28T17:54:29Z</time>
  <course>345.95</course>
  <speed>2.2847319317591728</speed>
  <fix>3d</fix>
</trkpt>
<trkpt lat="40.0713886" lon="-105.2298088">
  <ele>1582.98</ele>
  <time>2026-08-28T17:54:29Z</time>
  <course>345.95</course>
  <speed>2.2847319317591728</speed>
  <fix>3d</fix>
</trkpt>
<trkpt lat="40.0713841" lon="-105.2298071">
  <ele>1583.0</ele>
  <time>2026-08-28T17:54:29Z</time>
  <course>339.01</course>
  <speed>2.05</speed>
  <fix>3d</fix>
</trkpt>
<trkpt lat="40.0713902" lon="-105.2298093">
  <ele>1582.97</ele>
  <time>2026-08-28T17:54:29Z</time>
  <course>347.68</course>
  <speed>2.36139789108062</speed>
  <fix>3d</fix>
</trkpt>
<trkpt lat="40.0713906" lon="-105.2298094">
  <ele>1582.97</ele>
  <time>2026-08-28T17:54:29Z</time>
  <course>348.08</course>
  <speed>2.3789283301520454</speed>
  <fix>3d</fix>
</trkpt>
<trkpt lat="40.0713906" lon="-105.2298094">
  <ele>1582.97</ele>
  <time>2026-08-28T17:54:29Z</time>
  <course>348.08</course>
  <speed>2.3789283301520454</speed>
  <fix>3d</fix>
</trkpt>
<trkpt lat="40.0713878" lon="-105.2298086">
  <ele>1583.0</ele>
  <time>2026-08-28T17:54:29Z</time>
  <course>344.48</course>
  <speed>2.23</speed>
  <fix>3d</fix>
</trkpt>
<trkpt lat="40.0713919" lon="-105.2298097">
  <ele>1582.97</ele>
  <time>2026-08-28T17:54:29Z</time>
  <course>349.2</course>
  <speed>2.4319950657844682</speed>
  <fix>3d</fix>
</trkpt>
<trkpt lat="40.0713923" lon="-105.2298098">
  <ele>1582.97</ele>
  <time>2026-08-28T17:54:29Z</time>
  <course>349.54</course>
  <speed>2.449836729253605</speed>
  <fix>3d</fix>
</trkpt>
<trkpt lat="40.0713927" lon="-105.2298099">
  <ele>1582.97</ele>
  <time>2026-08-28T17:54:29Z</time>
  <course>349.88</course>
  <speed>2.4677520134729907</speed>
  <fix>3d</fix>
</trkpt>
<trkpt lat="40.0713927" lon="-105.2298099">
  <ele>1582.97</ele>
  <time>2026-08-28T17:54:29Z</time>
  <course>349.88</course>
  <speed>2.4677520134729907</speed>
  <fix>3d</fix>
</trkpt>
<trkpt lat="40.0713878" lon="-105.2298086">
  <ele>1583.0</ele>
  <time>2026-08-28T17:54:29Z</time>
  <course>344.48</course>
  <speed>2.23</speed>
  <fix>3d</fix>
</trkpt>
<trkpt lat="40.0713936" lon="-105.2298101">
  <ele>1582.97</ele>
  <time>2026-08-28T17:54:29Z</time>
  <course>350.52</course>
  <speed>2.513662666309861</speed>
  <fix>3d</fix>
</trkpt>
<trkpt lat="40.0713941" lon="-105.2298102">
  <ele>1582.97</ele>
  <time>2026-08-28T17:54:29Z</time>
  <course>350.83</course>
  <speed>2.5317977802344327</speed>
  <fix>3d</fix>
</trkpt>
<trkpt lat="40.0713945" lon="-105.2298103">
  <ele>1582.97</ele>
  <time>2026-08-28T17:54:29Z</time>
  <course>351.13</course>
  <speed>2.55</speed>
  <fix>3d</fix>
</trkpt>
<trkpt lat="40.071395" lon="-105.2298104">
  <ele>1582.97</ele>
  <time>2026-08-28T17:54:29Z</time>
  <course>351.42</course>
  <speed>2.5682678987987213</speed>
  <fix>3d</fix>
</trkpt>
<trkpt lat="40.071395" lon="-105.2298104">
  <ele>1582.97</ele>
  <time>2026-08-28T17:54:29Z</time>
  <course>351.42</course>
  <speed>2.5682678987987213</speed>
  <fix>3d</fix>
</trkpt>
<trkpt lat="40.0713918" lon="-105.2298099">
  <ele>1583.0</ele>
  <time>2026-08-28T17:54:29Z</time>
  <course>348.44</course>
  <speed>2.41</speed>
  <fix>3d</fix>
</trkpt>
<trkpt lat="40.0713968" lon="-105.2298108">
  <ele>1582.97</ele>
  <time>2026-08-28T17:54:29Z</time>
  <course>352.49</course>
  <speed>2.6419689627245813</speed>
  <fix>3d</fix>
</trkpt>
<trkpt lat="40.0713973" lon="-105.2298109">
  <ele>1582.97</ele>
  <time>2026-08-28T17:54:29Z</time>
  <course>352.73</course>
  <speed>2.6605450569385214</speed>
  <fix>3d</fix>
</trkpt>
<trkpt lat="40.0713973" lon="-105.2298109">
  <ele>1582.97</ele>
  <time>2026-08-28T17:54:29Z</time>
  <course>352.73</course>
  <speed>2.6605450569385214</speed>
  <fix>3d</fix>
</trkpt>
<trkpt lat="40.0713918" lon="-105.2298099">
  <ele>1583.0</ele>
  <time>2026-08-28T17:54:29Z</time>
  <course>348.44</course>
  <speed>2.41</speed>
  <fix>3d</fix>
</trkpt>
<trkpt lat="40.0713992" lon="-105.2298112">
  <ele>1582.97</ele>
  <time>2026-08-28T17:54:29Z</time>
  <course>353.64</course>
  <speed>2.7364941074301625</speed>
  <fix>3d</fix>
</trkpt>
<trkpt lat="40.0713997" lon="-105.2298113">
  <ele>1582.97</ele>
  <time>2026-08-28T17:54:29Z</time>
  <course>353.85</course>
  <speed>2.756374430297887</speed>
  <fix>3d</fix>
</trkpt>
<trkpt lat="40.0713997" lon="-105.2298113">
  <ele>1582.97</ele>
  <time>2026-08-28T17:54:29Z</time>
  <course>353.85</course>
  <speed>2.756374430297887</speed>
  <fix>3d</fix>
</trkpt>
<trkpt lat="40.0713918" lon="-105.2298099">
  <ele>1583.0</ele>
  <time>2026-08-28T17:54:29Z</time>
  <course>348.44</course>
  <speed>2.41</speed>
  <fix>3d</fix>
</trkpt>
<trkpt lat="40.0714011" lon="-105.2298115">
  <ele>1582.98</ele>
  <time>2026-08-28T17:54:29Z</time>
  <course>354.44</course>
  <speed>2.81298773548695</speed>
  <fix>3d</fix>
</trkpt>
<trkpt lat="40.0714016" lon="-105.2298116">
  <ele>1582.98</ele>
  <time>2026-08-28T17:54:29Z</time>
  <course>354.63</course>
  <speed>2.832896044686427</speed>
  <fix>3d</fix>
</trkpt>
<trkpt lat="40.0714021" lon="-105.2298116">
  <ele>1582.98</ele>
  <time>2026-08-28T17:54:29Z</time>
  <course>354.8</course>
  <speed>2.8518765751694093</speed>
  <fix>3d</fix>
</trkpt>
<trkpt lat="40.0714021" lon="-105.2298116">
  <ele>1582.98</ele>
  <time>2026-08-28T17:54:29Z</time>
  <course>354.8</course>
  <speed>2.8518765751694093</speed>
  <fix>3d</fix>
</trkpt>
<trkpt lat="40.0713962" lon="-105.229811">
  <ele>1583.0</ele>
  <time>2026-08-28T17:54:29Z</time>
  <course>351.33</course>
  <speed>2.59</speed>
  <fix>3d</fix>
</trkpt>
<trkpt lat="40.0714031" lon="-105.2298118">
  <ele>1582.98</ele>
  <time>2026-08-28T17:54:29Z</time>
  <course>355.14</course>
  <speed>2.890830330545188</speed>
  <fix>3d</fix>
</trkpt>
<trkpt lat="40.0714037" lon="-105.2298118">
  <ele>1582.98</ele>
  <time>2026-08-28T17:54:29Z</time>
  <course>355.3</course>
  <speed>2.9099140880788905</speed>
  <fix>3d</fix>
</trkpt>
<trkpt lat="40.0714042" lon="-105.2298119">
  <ele>1582.98</ele>
  <time>2026-08-28T17:54:29Z</time>
  <course>355.46</course>
  <speed>2.929846412356798</speed>
  <fix>3d</fix>
</trkpt>
<trkpt lat="40.0714047" lon="-105.229812">
  <ele>1582.98</ele>
  <time>2026-08-28T17:54:29Z</time>
  <course>355.62</course>
  <speed>2.9489828755013145</speed>
  <fix>3d</fix>
</trkpt>
<trkpt lat="40.0714047" lon="-105.229812">
  <ele>1582.98</ele>
  <time>2026-08-28T17:54:29Z</time>
  <course>355.62</course>
  <speed>2.9489828755013145</speed>
  <fix>3d</fix>
</trkpt>
<trkpt lat="40.0713962" lon="-105.229811">
  <ele>1583.0</ele>
  <time>2026-08-28T17:54:29Z</time>
  <course>351.33</course>
  <speed>2.59</speed>
  <fix>3d</fix>
</trkpt>
<trkpt lat="40.0714062" lon="-105.2298121">
  <ele>1582.98</ele>
  <time>2026-08-28T17:54:29Z</time>
  <course>356.05</course>
  <speed>3.008055850545332</speed>
  <fix>3d</fix>
</trkpt>
<trkpt lat="40.0714068" lon="-105.2298122">
  <ele>1582.98</ele>
  <time>2026-08-28T17:54:29Z</time>
  <course>356.18</course>
  <speed>3.0272925197278173</speed>
  <fix>3d</fix>
</trkpt>
<trkpt lat="40.0714073" lon="-105.2298123">
  <ele>1582.98</ele>
  <time>2026-08-28T17:54:29Z</time>
  <course>356.31</course>
  <speed>3.047244657063164</speed>
  <fix>3d</fix>
</trkpt>
<trkpt lat="40.0714073" lon="-105.2298123">
  <ele>1582.98</ele>
  <time>2026-08-28T17:54:29Z</time>
  <course>356.31</course>
  <speed>3.047244657063164</speed>
  <fix>3d</fix>
</trkpt>
<trkpt lat="40.071401" lon="-105.2298118">
  <ele>1583.0</ele>
  <time>2026-08-28T17:54:29Z</time>
  <course>353.43</course>
  <speed>2.78</speed>
  <fix>3d</fix>
</trkpt>
<trkpt lat="40.0714089" lon="-105.2298124">
  <ele>1582.98</ele>
  <time>2026-08-28T17:54:29Z</time>
  <course>356.68</course>
  <speed>3.0958359129643807</speed>
  <fix>3d</fix>
</trkpt>
<trkpt lat="40.0714095" lon="-105.2298125">
  <ele>1582.98</ele>
  <time>2026-08-28T17:54:29Z</time>
  <course>356.79</course>
  <speed>3.1157984530453824</speed>
  <fix>3d</fix>
</trkpt>
<trkpt lat="40.07141" lon="-105.2298125">
  <ele>1582.98</ele>
  <time>2026-08-28T17:54:29Z</time>
  <course>356.91</course>
  <speed>3.1357614705203583</speed>
  <fix>3d</fix>
</trkpt>
<trkpt lat="40.07141" lon="-105.2298125">
  <ele>1582.98</ele>
  <time>2026-08-28T17:54:29Z</time>
  <course>356.91</course>
  <speed>3.1357614705203583</speed>
  <fix>3d</fix>
</trkpt>
<trkpt lat="40.071401" lon="-105.2298118">
  <ele>1583.0</ele>
  <time>2026-08-28T17:54:29Z</time>
  <course>353.43</course>
  <speed>2.78</speed>
  <fix>3d</fix>
</trkpt>
<trkpt lat="40.0714122" lon="-105.2298127">
  <ele>1582.97</ele>
  <time>2026-08-28T17:54:29Z</time>
  <course>357.32</course>
  <speed>3.214498405661449</speed>
  <fix>3d</fix>
</trkpt>
<trkpt lat="40.0714128" lon="-105.2298128">
  <ele>1582.97</ele>
  <time>2026-08-28T17:54:29Z</time>
  <course>357.42</course>
  <speed>3.2344705903748765</speed>
  <fix>3d</fix>
</trkpt>
<trkpt lat="40.0714128" lon="-105.2298128">
  <ele>1582.97</ele>
  <time>2026-08-28T17:54:29Z</time>
  <course>357.42</course>
  <speed>3.2344705903748765</speed>
  <fix>3d</fix>
</trkpt>
<trkpt lat="40.0714062" lon="-105.2298125">
  <ele>1583.0</ele>
  <time>2026-08-28T17:54:29Z</time>
  <course>354.96</course>
  <speed>2.98</speed>
  <fix>3d</fix>
</trkpt>
<trkpt lat="40.0714145" lon="-105.2298129">
  <ele>1582.97</ele>
  <time>2026-08-28T17:54:29Z</time>
  <course>357.7</course>
  <speed>3.2938882798297815</speed>
  <fix>3d</fix>
</trkpt>
<trkpt lat="40.0714151" lon="-105.229813">
  <ele>1582.97</ele>
  <time>2026-08-28T17:54:29Z</time>
  <course>357.78</course>
  <speed>3.313397048347813</speed>
  <fix>3d</fix>
</trkpt>
<trkpt lat="40.0714157" lon="-105.229813">
  <ele>1582.97</ele>
  <time>2026-08-28T17:54:29Z</time>
  <course>357.86</course>
  <speed>3.3333766663850035</speed>
  <fix>3d</fix>
</trkpt>
<trkpt lat="40.0714157" lon="-105.229813">
  <ele>1582.97</ele>
  <time>2026-08-28T17:54:29Z</time>
  <course>357.86</course>
  <speed>3.3333766663850035</speed>
  <fix>3d</fix>
</trkpt>
<trkpt lat="40.0714117" lon="-105.229813">
  <ele>1583.0</ele>
  <time>2026-08-28T17:54:29Z</time>
  <course>356.09</course>
  <speed>3.17</speed>
  <fix>3d</fix>
</trkpt>
<trkpt lat="40.0714175" lon="-105.2298131">
  <ele>1582.97</ele>
  <time>2026-08-28T17:54:29Z</time>
  <course>358.09</course>
  <speed>3.392889623904674</speed>
  <fix>3d</fix>
</trkpt>
<trkpt lat="40.0714181" lon="-105.2298132">
  <ele>1582.97</ele>
  <time>2026-08-28T17:54:29Z</time>
  <course>358.16</course>
  <speed>3.41287269027135</speed>
  <fix>3d</fix>
</trkpt>
<trkpt lat="40.0714187" lon="-105.2298132">
  <ele>1582.97</ele>
  <time>2026-08-28T17:54:29Z</time>
  <course>358.23</course>
  <speed>3.432855953866984</speed>
  <fix>3d</fix>
</trkpt>
<trkpt lat="40.0714187" lon="-105.2298132">
  <ele>1582.97</ele>
  <time>2026-08-28T17:54:29Z</time>
  <course>358.23</course>
  <speed>3.432855953866984</speed>
  <fix>3d</fix>
</trkpt>
<trkpt lat="40.0714117" lon="-105.229813">
  <ele>1583.0</ele>
  <time>2026-08-28T17:54:29Z</time>
  <course>356.09</course>
  <speed>3.17</speed>
  <fix>3d</fix>
</trkpt>
<trkpt lat="40.0714212" lon="-105.2298134">
  <ele>1582.97</ele>
  <time>2026-08-28T17:54:29Z</time>
  <course>358.49</course>
  <speed>3.52239975017033</speed>
  <fix>3d</fix>
</trkpt>
<trkpt lat="40.0714218" lon="-105.2298134">
  <ele>1582.97</ele>
  <time>2026-08-28T17:54:29Z</time>
  <course>358.55</course>
  <speed>3.542033314354906</speed>
  <fix>3d</fix>
</trkpt>
<trkpt lat="40.0714218" lon="-105.2298134">
  <ele>1582.97</ele>
  <time>2026-08-28T17:54:29Z</time>
  <course>358.55</course>
  <speed>3.542033314354906</speed>
  <fix>3d</fix>
</trkpt>
<trkpt lat="40.0714176" lon="-105.2298134">
  <ele>1583.0</ele>
  <time>2026-08-28T17:54:29Z</time>
  <course>356.92</course>
  <speed>3.37</speed>
  <fix>3d</fix>
</trkpt>
<trkpt lat="40.0714243" lon="-105.2298136">
  <ele>1582.97</ele>
  <time>2026-08-28T17:54:29Z</time>
  <course>358.76</course>
  <speed>3.621988404178014</speed>
  <fix>3d</fix>
</trkpt>
<trkpt lat="40.071425" lon="-105.2298136">
  <ele>1582.97</ele>
  <time>2026-08-28T17:54:29Z</time>
  <course>358.81</course>
  <speed>3.6416617086159992</speed>
  <fix>3d</fix>
</trkpt>
<trkpt lat="40.071425" lon="-105.2298136">
  <ele>1582.97</ele>
  <time>2026-08-28T17:54:29Z</time>
  <course>358.81</course>
  <speed>3.6416617086159992</speed>
  <fix>3d</fix>
</trkpt>
<trkpt lat="40.0714176" lon="-105.2298134">
  <ele>1583.0</ele>
  <time>2026-08-28T17:54:29Z</time>
  <course>356.92</course>
  <speed>3.37</speed>
  <fix>3d</fix>
</trkpt>
<trkpt lat="40.071427" lon="-105.2298137">
  <ele>1582.97</ele>
  <time>2026-08-28T17:54:29Z</time>
  <course>358.95</course>
  <speed>3.7016347739883795</speed>
  <fix>3d</fix>
</trkpt>
<trkpt lat="40.0714276" lon="-105.2298137">
  <ele>1582.98</ele>
  <time>2026-08-28T17:54:29Z</time>
  <course>359.0</course>
  <speed>3.7216259887312697</speed>
  <fix>3d</fix>
</trkpt>
<trkpt lat="40.0714283" lon="-105.2298138">
  <ele>1582.98</ele>
  <time>2026-08-28T17:54:29Z</time>
  <course>359.04</course>
  <speed>3.7413366595376045</speed>
  <fix>3d</fix>
</trkpt>
<trkpt lat="40.0714239" lon="-105.2298139">
  <ele>1583.0</ele>
  <time>2026-08-28T17:54:29Z</time>
  <course>357.52</course>
  <speed>3.58</speed>
  <fix>3d</fix>
</trkpt>
<trkpt lat="40.071429" lon="-105.2298138">
  <ele>1582.98</ele>
  <time>2026-08-28T17:54:29Z</time>
  <course>359.08</course>
  <speed>3.761329552166361</speed>
  <fix>3d</fix>
</trkpt>
<trkpt lat="40.071431" lon="-105.2298139">
  <ele>1582.98</ele>
  <time>2026-08-28T17:54:29Z</time>
  <course>359.19</course>
  <speed>3.8313052606128895</speed>
  <fix>3d</fix>
</trkpt>
<trkpt lat="40.0714317" lon="-105.2298139">
  <ele>1582.98</ele>
  <time>2026-08-28T17:54:29Z</time>
  <course>359.23</course>
  <speed>3.851298482330342</speed>
  <fix>3d</fix>
</trkpt>
<trkpt lat="40.0714317" lon="-105.2298139">
  <ele>1582.98</ele>
  <time>2026-08-28T17:54:29Z</time>
  <course>359.23</course>
  <speed>3.851298482330342</speed>
  <fix>3d</fix>
</trkpt>
<trkpt lat="40.0714239" lon="-105.2298139">
  <ele>1583.0</ele>
  <time>2026-08-28T17:54:29Z</time>
  <course>357.52</course>
  <speed>3.58</speed>
  <fix>3d</fix>
</trkpt>
<trkpt lat="40.0714338" lon="-105.229814">
  <ele>1582.98</ele>
  <time>2026-08-28T17:54:29Z</time>
  <course>359.32</course>
  <speed>3.9110356684643004</speed>
  <fix>3d</fix>
</trkpt>
<trkpt lat="40.0714345" lon="-105.2298141">
  <ele>1582.98</ele>
  <time>2026-08-28T17:54:29Z</time>
  <course>359.35</course>
  <speed>3.9310303992719264</speed>
  <fix>3d</fix>
</trkpt>
<trkpt lat="40.0714352" lon="-105.2298141">
  <ele>1582.98</ele>
  <time>2026-08-28T17:54:29Z</time>
  <course>359.38</course>
  <speed>3.95102518341759</speed>
  <fix>3d</fix>
</trkpt>
<trkpt lat="40.0714352" lon="-105.2298141">
  <ele>1582.98</ele>
  <time>2026-08-28T17:54:29Z</time>
  <course>359.38</course>
  <speed>3.95102518341759</speed>
  <fix>3d</fix>
</trkpt>
<trkpt lat="40.0714305" lon="-105.2298142">
  <ele>1583.0</ele>
  <time>2026-08-28T17:54:29Z</time>
  <course>357.95</course>
  <speed>3.78</speed>
  <fix>3d</fix>
</trkpt>
<trkpt lat="40.0714374" lon="-105.2298142">
  <ele>1582.99</ele>
  <time>2026-08-28T17:54:29Z</time>
  <course>359.48</course>
  <speed>4.011009847906135</speed>
  <fix>3d</fix>
</trkpt>
<trkpt lat="40.0714381" lon="-105.2298142">
  <ele>1582.99</ele>
  <time>2026-08-28T17:54:29Z</time>
  <course>359.51</course>
  <speed>4.0310048375064005</speed>
  <fix>3d</fix>
</trkpt>
<trkpt lat="40.0714388" lon="-105.2298143">
  <ele>1582.99</ele>
  <time>2026-08-28T17:54:29Z</time>
  <course>359.54</course>
  <speed>4.060997414429121</speed>
  <fix>3d</fix>
</trkpt>
<trkpt lat="40.0714388" lon="-105.2298143">
  <ele>1582.99</ele>
  <time>2026-08-28T17:54:29Z</time>
  <course>359.54</course>
  <speed>4.060997414429121</speed>
  <fix>3d</fix>
</trkpt>
<trkpt lat="40.0714305" lon="-105.2298142">
  <ele>1583.0</ele>
  <time>2026-08-28T17:54:29Z</time>
  <course>357.95</course>
  <speed>3.78</speed>
  <fix>3d</fix>
</trkpt>
<trkpt lat="40.0714418" lon="-105.2298144">
  <ele>1582.99</ele>
  <time>2026-08-28T17:54:29Z</time>
  <course>359.62</course>
  <speed>4.140772874717956</speed>
  <fix>3d</fix>
</trkpt>
<trkpt lat="40.0714425" lon="-105.2298144">
  <ele>1582.99</ele>
  <time>2026-08-28T17:54:29Z</time>
  <course>359.64</course>
  <speed>4.16076915966267</speed>
  <fix>3d</fix>
</trkpt>
<trkpt lat="40.0714425" lon="-105.2298144">
  <ele>1582.99</ele>
  <time>2026-08-28T17:54:29Z</time>
  <course>359.64</course>
  <speed>4.16076915966267</speed>
  <fix>3d</fix>
</trkpt>
<trkpt lat="40.0714375" lon="-105.2298145">
  <ele>1583.0</ele>
  <time>2026-08-28T17:54:29Z</time>
  <course>358.26</course>
  <speed>3.99</speed>
  <fix>3d</fix>
</trkpt>
<trkpt lat="40.0714433" lon="-105.2298144">
  <ele>1582.99</ele>
  <time>2026-08-28T17:54:29Z</time>
  <course>359.66</course>
  <speed>4.1807654801483425</speed>
  <fix>3d</fix>
</trkpt>
<trkpt lat="40.071444" lon="-105.2298145">
  <ele>1582.99</ele>
  <time>2026-08-28T17:54:29Z</time>
  <course>359.68</course>
  <speed>4.20076183566743</speed>
  <fix>3d</fix>
</trkpt>
<trkpt lat="40.0714448" lon="-105.2298145">
  <ele>1582.99</ele>
  <time>2026-08-28T17:54:29Z</time>
  <course>359.71</course>
  <speed>4.220758225722009</speed>
  <fix>3d</fix>
</trkpt>
<trkpt lat="40.0714455" lon="-105.2298145">
  <ele>1582.99</ele>
  <time>2026-08-28T17:54:29Z</time>
  <course>359.73</course>
  <speed>4.240754649823542</speed>
  <fix>3d</fix>
</trkpt>
<trkpt lat="40.0714463" lon="-105.2298145">
  <ele>1582.99</ele>
  <time>2026-08-28T17:54:29Z</time>
  <course>359.75</course>
  <speed>4.260751107492669</speed>
  <fix>3d</fix>
</trkpt>
<trkpt lat="40.0714463" lon="-105.2298145">
  <ele>1582.99</ele>
  <time>2026-08-28T17:54:29Z</time>
  <course>359.75</course>
  <speed>4.260751107492669</speed>
  <fix>3d</fix>
</trkpt>
<trkpt lat="40.0714375" lon="-105.2298145">
  <ele>1583.0</ele>
  <time>2026-08-28T17:54:29Z</time>
  <course>358.26</course>
  <speed>3.99</speed>
  <fix>3d</fix>
</trkpt>
<trkpt lat="40.0714494" lon="-105.2298146">
  <ele>1582.99</ele>
  <time>2026-08-28T17:54:29Z</time>
  <course>359.84</course>
  <speed>4.340737264566931</speed>
  <fix>3d</fix>
</trkpt>
<trkpt lat="40.0714502" lon="-105.2298147">
  <ele>1582.99</ele>
  <time>2026-08-28T17:54:29Z</time>
  <course>359.85</course>
  <speed>4.360733883189846</speed>
  <fix>3d</fix>
</trkpt>
<trkpt lat="40.0714502" lon="-105.2298147">
  <ele>1582.99</ele>
  <time>2026-08-28T17:54:29Z</time>
  <course>359.85</course>
  <speed>4.360733883189846</speed>
  <fix>3d</fix>
</trkpt>
<trkpt lat="40.0714448" lon="-105.2298148">
  <ele>1583.0</ele>
  <time>2026-08-28T17:54:29Z</time>
  <course>358.5</course>
  <speed>4.19</speed>
  <fix>3d</fix>
</trkpt>
<trkpt lat="40.0714533" lon="-105.2298148">
  <ele>1582.99</ele>
  <time>2026-08-28T17:54:29Z</time>
  <course>359.89</course>
  <speed>4.450719043031137</speed>
  <fix>3d</fix>
</trkpt>
<trkpt lat="40.0714541" lon="-105.2298148">
  <ele>1582.99</ele>
  <time>2026-08-28T17:54:29Z</time>
  <course>359.9</course>
  <speed>4.470715826352643</speed>
  <fix>3d</fix>
</trkpt>
<trkpt lat="40.0714541" lon="-105.2298148">
  <ele>1582.99</ele>
  <time>2026-08-28T17:54:29Z</time>
  <course>359.9</course>
  <speed>4.470715826352643</speed>
  <fix>3d</fix>
</trkpt>
<trkpt lat="40.0714448" lon="-105.2298148">
  <ele>1583.0</ele>
  <time>2026-08-28T17:54:29Z</time>
  <course>358.5</course>
  <speed>4.19</speed>
  <fix>3d</fix>
</trkpt>
<trkpt lat="40.0714573" lon="-105.2298149">
  <ele>1583.0</ele>
  <time>2026-08-28T17:54:29Z</time>
  <course>359.94</course>
  <speed>4.550538429680603</speed>
  <fix>3d</fix>
</trkpt>
<trkpt lat="40.0714582" lon="-105.2298149">
  <ele>1583.0</ele>
  <time>2026-08-28T17:54:29Z</time>
  <course>359.95</course>
  <speed>4.570536073591368</speed>
  <fix>3d</fix>
</trkpt>
<trkpt lat="40.0714582" lon="-105.2298149">
  <ele>1583.0</ele>
  <time>2026-08-28T17:54:29Z</time>
  <course>359.95</course>
  <speed>4.570536073591368</speed>
  <fix>3d</fix>
</trkpt>
<trkpt lat="40.0714525" lon="-105.2298151">
  <ele>1583.0</ele>
  <time>2026-08-28T17:54:29Z</time>
  <course>358.67</course>
  <speed>4.39</speed>
  <fix>3d</fix>
</trkpt>
<trkpt lat="40.0714615" lon="-105.229815">
  <ele>1583.0</ele>
  <time>2026-08-28T17:54:29Z</time>
  <course>0.0</course>
  <speed>4.650526851873882</speed>
  <fix>3d</fix>
</trkpt>
<trkpt lat="40.0714623" lon="-105.2298151">
  <ele>1583.0</ele>
  <time>2026-08-28T17:54:29Z</time>
  <course>0.0</course>
  <speed>4.670524595802917</speed>
  <fix>3d</fix>
</trkpt>
<trkpt lat="40.0714525" lon="-105.2298151">
  <ele>1583.0</ele>
  <time>2026-08-28T17:54:29Z</time>
  <course>358.67</course>
  <speed>4.39</speed>
  <fix>3d</fix>
</trkpt>
<trkpt lat="40.0714631" lon="-105.2298151">
  <ele>1583.0</ele>
  <time>2026-08-28T17:54:29Z</time>
  <course>0.01</course>
  <speed>4.690522358970267</speed>
  <fix>3d</fix>
</trkpt>
<trkpt lat="40.0714657" lon="-105.2298152">
  <ele>1583.0</ele>
  <time>2026-08-28T17:54:29Z</time>
  <course>0.05</course>
  <speed>4.750515761472642</speed>
  <fix>3d</fix>
</trkpt>
<trkpt lat="40.0714665" lon="-105.2298152">
  <ele>1583.0</ele>
  <time>2026-08-28T17:54:29Z</time>
  <course>0.06</course>
  <speed>4.770513599184054</speed>
  <fix>3d</fix>
</trkpt>
<trkpt lat="40.0714665" lon="-105.2298152">
  <ele>1583.0</ele>
  <time>2026-08-28T17:54:29Z</time>
  <course>0.06</course>
  <speed>4.770513599184054</speed>
  <fix>3d</fix>
</trkpt>
<trkpt lat="40.0714525" lon="-105.2298151">
  <ele>1583.0</ele>
  <time>2026-08-28T17:54:29Z</time>
  <course>358.67</course>
  <speed>4.39</speed>
  <fix>3d</fix>
</trkpt>
<trkpt lat="40.0714691" lon="-105.2298152">
  <ele>1583.0</ele>
  <time>2026-08-28T17:54:29Z</time>
  <course>0.09</course>
  <speed>4.8305072197441135</speed>
  <fix>3d</fix>
</trkpt>
<trkpt lat="40.0714699" lon="-105.2298153">
  <ele>1583.0</ele>
  <time>2026-08-28T17:54:29Z</time>
  <course>0.11</course>
  <speed>4.850505128334574</speed>
  <fix>3d</fix>
</trkpt>
<trkpt lat="40.0714708" lon="-105.2298153">
  <ele>1583.0</ele>
  <time>2026-08-28T17:54:29Z</time>
  <course>0.12</course>
  <speed>4.870503054100264</speed>
  <fix>3d</fix>
</trkpt>
<trkpt lat="40.0714708" lon="-105.2298153">
  <ele>1583.0</ele>
  <time>2026-08-28T17:54:29Z</time>
  <course>0.12</course>
  <speed>4.870503054100264</speed>
  <fix>3d</fix>
</trkpt>
<trkpt lat="40.0714606" lon="-105.2298152">
  <ele>1583.0</ele>
  <time>2026-08-28T17:54:29Z</time>
  <course>358.79</course>
  <speed>4.6</speed>
  <fix>3d</fix>
</trkpt>
<trkpt lat="40.0714743" lon="-105.2298154">
  <ele>1583.0</ele>
  <time>2026-08-28T17:54:29Z</time>
  <course>0.17</course>
  <speed>4.950494924752474</speed>
  <fix>3d</fix>
</trkpt>
<trkpt lat="40.0714751" lon="-105.2298154">
  <ele>1583.0</ele>
  <time>2026-08-28T17:54:29Z</time>
  <course>0.18</course>
  <speed>4.960493927019768</speed>
  <fix>3d</fix>
</trkpt>
<trkpt lat="40.0714751" lon="-105.2298154">
  <ele>1583.0</ele>
  <time>2026-08-28T17:54:29Z</time>
  <course>0.18</course>
  <speed>4.960493927019768</speed>
  <fix>3d</fix>
</trkpt>
<trkpt lat="40.0714606" lon="-105.2298152">
  <ele>1583.0</ele>
  <time>2026-08-28T17:54:29Z</time>
  <course>358.79</course>
  <speed>4.6</speed>
  <fix>3d</fix>
</trkpt>
<trkpt lat="40.0714778" lon="-105.2298155">
  <ele>1583.0</ele>
  <time>2026-08-28T17:54:29Z</time>
  <course>0.2</course>
  <speed>5.020488024086902</speed>
  <fix>3d</fix>
</trkpt>
<trkpt lat="40.0714787" lon="-105.2298155">
  <ele>1583.0</ele>
  <time>2026-08-28T17:54:29Z</time>
  <course>0.2</course>
  <speed>5.040486087670513</speed>
  <fix>3d</fix>
</trkpt>
<trkpt lat="40.0714796" lon="-105.2298155">
  <ele>1583.0</ele>
  <time>2026-08-28T17:54:29Z</time>
  <course>0.21</course>
  <speed>5.06048416655956</speed>
  <fix>3d</fix>
</trkpt>
<trkpt lat="40.0714796" lon="-105.2298155">
  <ele>1583.0</ele>
  <time>2026-08-28T17:54:29Z</time>
  <course>0.21</course>
  <speed>5.06048416655956</speed>
  <fix>3d</fix>
</trkpt>
<trkpt lat="40.0714691" lon="-105.2298155">
  <ele>1583.0</ele>
  <time>2026-08-28T17:54:29Z</time>
  <course>358.92</course>
  <speed>4.8</speed>
  <fix>3d</fix>
</trkpt>
<trkpt lat="40.0714832" lon="-105.2298156">
  <ele>1583.0</ele>
  <time>2026-08-28T17:54:29Z</time>
  <course>0.26</course>
  <speed>5.130350865194309</speed>
  <fix>3d</fix>
</trkpt>
<trkpt lat="40.0714841" lon="-105.2298156">
  <ele>1583.0</ele>
  <time>2026-08-28T17:54:29Z</time>
  <course>0.28</course>
  <speed>5.150349502703676</speed>
  <fix>3d</fix>
</trkpt>
<trkpt lat="40.0714841" lon="-105.2298156">
  <ele>1583.0</ele>
  <time>2026-08-28T17:54:29Z</time>
  <course>0.28</course>
  <speed>5.150349502703676</speed>
  <fix>3d</fix>
</trkpt>
<trkpt lat="40.0714691" lon="-105.2298155">
  <ele>1583.0</ele>
  <time>2026-08-28T17:54:29Z</time>
  <course>358.92</course>
  <speed>4.8</speed>
  <fix>3d</fix>
</trkpt>
<trkpt lat="40.0714877" lon="-105.2298157">
  <ele>1583.0</ele>
  <time>2026-08-28T17:54:29Z</time>
  <course>0.3</course>
  <speed>5.210345477988959</speed>
  <fix>3d</fix>
</trkpt>
<trkpt lat="40.0714887" lon="-105.2298157">
  <ele>1583.0</ele>
  <time>2026-08-28T17:54:29Z</time>
  <course>0.31</course>
  <speed>5.220344816197489</speed>
  <fix>3d</fix>
</trkpt>
<trkpt lat="40.0714887" lon="-105.2298157">
  <ele>1583.0</ele>
  <time>2026-08-28T17:54:29Z</time>
  <course>0.31</course>
  <speed>5.220344816197489</speed>
  <fix>3d</fix>
</trkpt>
<trkpt lat="40.0714779" lon="-105.2298156">
  <ele>1583.0</ele>
  <time>2026-08-28T17:54:29Z</time>
  <course>359.04</course>
  <speed>5.0</speed>
  <fix>3d</fix>
</trkpt>
<trkpt lat="40.0714924" lon="-105.2298158">
  <ele>1583.0</ele>
  <time>2026-08-28T17:54:29Z</time>
  <course>0.34</course>
  <speed>5.27034154490959</speed>
  <fix>3d</fix>
</trkpt>
<trkpt lat="40.0714933" lon="-105.2298158">
  <ele>1583.0</ele>
  <time>2026-08-28T17:54:29Z</time>
  <course>0.35</course>
  <speed>5.280340898086032</speed>
  <fix>3d</fix>
</trkpt>
<trkpt lat="40.0714933" lon="-105.2298158">
  <ele>1583.0</ele>
  <time>2026-08-28T17:54:29Z</time>
  <course>0.35</course>
  <speed>5.280340898086032</speed>
  <fix>3d</fix>
</trkpt>
<trkpt lat="40.0714779" lon="-105.2298156">
  <ele>1583.0</ele>
  <time>2026-08-28T17:54:29Z</time>
  <course>359.04</course>
  <speed>5.0</speed>
  <fix>3d</fix>
</trkpt>
<trkpt lat="40.0714961" lon="-105.2298159">
  <ele>1583.0</ele>
  <time>2026-08-28T17:54:29Z</time>
  <course>0.39</course>
  <speed>5.310338972231434</speed>
  <fix>3d</fix>
</trkpt>
<trkpt lat="40.0714971" lon="-105.2298159">
  <ele>1583.0</ele>
  <time>2026-08-28T17:54:29Z</time>
  <course>0.4</course>
  <speed>5.320338335106142</speed>
  <fix>3d</fix>
</trkpt>
<trkpt lat="40.071498" lon="-105.2298159">
  <ele>1583.0</ele>
  <time>2026-08-28T17:54:29Z</time>
  <course>0.42</course>
  <speed>5.320338335106142</speed>
  <fix>3d</fix>
</trkpt>
<trkpt lat="40.071498" lon="-105.2298159">
  <ele>1583.0</ele>
  <time>2026-08-28T17:54:29Z</time>
  <course>0.42</course>
  <speed>5.320338335106142</speed>
  <fix>3d</fix>
</trkpt>
<trkpt lat="40.071487" lon="-105.2298159">
  <ele>1583.0</ele>
  <time>2026-08-28T17:54:29Z</time>
  <course>359.14</course>
  <speed>5.17</speed>
  <fix>3d</fix>
</trkpt>
<trkpt lat="40.0715018" lon="-105.229816">
  <ele>1583.0</ele>
  <time>2026-08-28T17:54:29Z</time>
  <course>0.44</course>
  <speed>5.350336438019575</speed>
  <fix>3d</fix>
</trkpt>
<trkpt lat="40.0715027" lon="-105.229816">
  <ele>1583.0</ele>
  <time>2026-08-28T17:54:29Z</time>
  <course>0.45</course>
  <speed>5.360335810376062</speed>
  <fix>3d</fix>
</trkpt>
<trkpt lat="40.0715027" lon="-105.229816">
  <ele>1583.0</ele>
  <time>2026-08-28T17:54:29Z</time>
  <course>0.45</course>
  <speed>5.360335810376062</speed>
  <fix>3d</fix>
</trkpt>
<trkpt lat="40.0714964" lon="-105.229816">
  <ele>1583.0</ele>
  <time>2026-08-28T17:54:29Z</time>
  <course>359.24</course>
  <speed>5.28</speed>
  <fix>3d</fix>
</trkpt>
<trkpt lat="40.0715066" lon="-105.2298161">
  <ele>1583.0</ele>
  <time>2026-08-28T17:54:29Z</time>
  <course>0.51</course>
  <speed>5.370232769629264</speed>
  <fix>3d</fix>
</trkpt>
<trkpt lat="40.0715075" lon="-105.2298161">
  <ele>1583.0</ele>
  <time>2026-08-28T17:54:29Z</time>
  <course>0.51</course>
  <speed>5.370232769629264</speed>
  <fix>3d</fix>
</trkpt>
<trkpt lat="40.0715075" lon="-105.2298161">
  <ele>1583.0</ele>
  <time>2026-08-28T17:54:29Z</time>
  <course>0.51</course>
  <speed>5.370232769629264</speed>
  <fix>3d</fix>
</trkpt>
<trkpt lat="40.0714964" lon="-105.229816">
  <ele>1583.0</ele>
  <time>2026-08-28T17:54:29Z</time>
  <course>359.24</course>
  <speed>5.28</speed>
  <fix>3d</fix>
</trkpt>
<trkpt lat="40.0715113" lon="-105.2298161">
  <ele>1583.0</ele>
  <time>2026-08-28T17:54:29Z</time>
  <course>0.56</course>
  <speed>5.370232769629264</speed>
  <fix>3d</fix>
</trkpt>
<trkpt lat="40.0715123" lon="-105.2298162">
  <ele>1583.0</ele>
  <time>2026-08-28T17:54:29Z</time>
  <course>0.58</course>
  <speed>5.370232769629264</speed>
  <fix>3d</fix>
</trkpt>
<trkpt lat="40.0715123" lon="-105.2298162">
  <ele>1583.0</ele>
  <time>2026-08-28T17:54:29Z</time>
  <course>0.58</course>
  <speed>5.370232769629264</speed>
  <fix>3d</fix>
</trkpt>
<trkpt lat="40.071506" lon="-105.2298162">
  <ele>1583.0</ele>
  <time>2026-08-28T17:54:29Z</time>
  <course>359.36</course>
  <speed>5.33</speed>
  <fix>3d</fix>
</trkpt>
<trkpt lat="40.0715161" lon="-105.2298162">
  <ele>1583.0</ele>
  <time>2026-08-28T17:54:29Z</time>
  <course>0.62</course>
  <speed>5.3602332038820855</speed>
  <fix>3d</fix>
</trkpt>
<trkpt lat="40.0715171" lon="-105.2298162">
  <ele>1583.0</ele>
  <time>2026-08-28T17:54:29Z</time>
  <course>0.63</course>
  <speed>5.350233639758175</speed>
  <fix>3d</fix>
</trkpt>
<trkpt lat="40.0715171" lon="-105.2298162">
  <ele>1583.0</ele>
  <time>2026-08-28T17:54:29Z</time>
  <course>0.63</course>
  <speed>5.350233639758175</speed>
  <fix>3d</fix>
</trkpt>
<trkpt lat="40.071506" lon="-105.2298162">
  <ele>1583.0</ele>
  <time>2026-08-28T17:54:29Z</time>
  <course>359.36</course>
  <speed>5.33</speed>
  <fix>3d</fix>
</trkpt>
<trkpt lat="40.071519" lon="-105.2298163">
  <ele>1583.0</ele>
  <time>2026-08-28T17:54:29Z</time>
  <course>0.66</course>
  <speed>5.340149810632656</speed>
  <fix>3d</fix>
</trkpt>
<trkpt lat="40.0715209" lon="-105.2298163">
  <ele>1583.0</ele>
  <time>2026-08-28T17:54:29Z</time>
  <course>0.69</course>
  <speed>5.330150091695355</speed>
  <fix>3d</fix>
</trkpt>
<trkpt lat="40.0715219" lon="-105.2298163">
  <ele>1583.0</ele>
  <time>2026-08-28T17:54:29Z</time>
  <course>0.7</course>
  <speed>5.320150373814634</speed>
  <fix>3d</fix>
</trkpt>
<trkpt lat="40.0715219" lon="-105.2298163">
  <ele>1583.0</ele>
  <time>2026-08-28T17:54:29Z</time>
  <course>0.7</course>
  <speed>5.320150373814634</speed>
  <fix>3d</fix>
</trkpt>
<trkpt lat="40.0715156" lon="-105.2298163">
  <ele>1583.0</ele>
  <time>2026-08-28T17:54:29Z</time>
  <course>359.49</course>
  <speed>5.32</speed>
  <fix>3d</fix>
</trkpt>
<trkpt lat="40.0715248" lon="-105.2298163">
  <ele>1583.0</ele>
  <time>2026-08-28T17:54:29Z</time>
  <course>0.73</course>
  <speed>5.290151226571883</speed>
  <fix>3d</fix>
</trkpt>
<trkpt lat="40.0715257" lon="-105.2298163">
  <ele>1583.0</ele>
  <time>2026-08-28T17:54:29Z</time>
  <course>0.74</course>
  <speed>5.280151512977634</speed>
  <fix>3d</fix>
</trkpt>
<trkpt lat="40.0715267" lon="-105.2298164">
  <ele>1583.0</ele>
  <time>2026-08-28T17:54:29Z</time>
  <course>0.76</course>
  <speed>5.270151800470268</speed>
  <fix>3d</fix>
</trkpt>
<trkpt lat="40.0715267" lon="-105.2298164">
  <ele>1583.0</ele>
  <time>2026-08-28T17:54:29Z</time>
  <course>0.76</course>
  <speed>5.270151800470268</speed>
  <fix>3d</fix>
</trkpt>
<trkpt lat="40.0715156" lon="-105.2298163">
  <ele>1583.0</ele>
  <time>2026-08-28T17:54:29Z</time>
  <course>359.49</course>
  <speed>5.32</speed>
  <fix>3d</fix>
</trkpt>
<trkpt lat="40.0715295" lon="-105.2298164">
  <ele>1583.0</ele>
  <time>2026-08-28T17:54:29Z</time>
  <course>0.8</course>
  <speed>5.230152961434302</speed>
  <fix>3d</fix>
</trkpt>
<trkpt lat="40.0715305" lon="-105.2298164">
  <ele>1583.0</ele>
  <time>2026-08-28T17:54:29Z</time>
  <course>0.81</course>
  <speed>5.210153548601039</speed>
  <fix>3d</fix>
</trkpt>
<trkpt lat="40.0715314" lon="-105.2298164">
  <ele>1583.0</ele>
  <time>2026-08-28T17:54:29Z</time>
  <course>0.82</course>
  <speed>5.200086537741463</speed>
  <fix>3d</fix>
</trkpt>
<trkpt lat="40.0715314" lon="-105.2298164">
  <ele>1583.0</ele>
  <time>2026-08-28T17:54:29Z</time>
  <course>0.82</course>
  <speed>5.200086537741463</speed>
  <fix>3d</fix>
</trkpt>
<trkpt lat="40.0715251" lon="-105.2298164">
  <ele>1583.0</ele>
  <time>2026-08-28T17:54:29Z</time>
  <course>359.62</course>
  <speed>5.23</speed>
  <fix>3d</fix>
</trkpt>
<trkpt lat="40.0715342" lon="-105.2298164">
  <ele>1583.0</ele>
  <time>2026-08-28T17:54:29Z</time>
  <course>0.86</course>
  <speed>5.150087377899524</speed>
  <fix>3d</fix>
</trkpt>
<trkpt lat="40.0715351" lon="-105.2298164">
  <ele>1583.0</ele>
  <time>2026-08-28T17:54:29Z</time>
  <course>0.87</course>
  <speed>5.13008771854829</speed>
  <fix>3d</fix>
</trkpt>
<trkpt lat="40.071536" lon="-105.2298165">
  <ele>1583.0</ele>
  <time>2026-08-28T17:54:29Z</time>
  <course>0.89</course>
  <speed>5.110088061863514</speed>
  <fix>3d</fix>
</trkpt>
<trkpt lat="40.071536" lon="-105.2298165">
  <ele>1583.0</ele>
  <time>2026-08-28T17:54:29Z</time>
  <course>0.89</course>
  <speed>5.110088061863514</speed>
  <fix>3d</fix>
</trkpt>
<trkpt lat="40.0715251" lon="-105.2298164">
  <ele>1583.0</ele>
  <time>2026-08-28T17:54:29Z</time>
  <course>359.62</course>
  <speed>5.23</speed>
  <fix>3d</fix>
</trkpt>
<trkpt lat="40.0715388" lon="-105.2298165">
  <ele>1583.0</ele>
  <time>2026-08-28T17:54:29Z</time>
  <course>0.93</course>
  <speed>5.060088932024812</speed>
  <fix>3d</fix>
</trkpt>
<trkpt lat="40.0715397" lon="-105.2298165">
  <ele>1583.0</ele>
  <time>2026-08-28T17:54:29Z</time>
  <course>0.94</course>
  <speed>5.0400892849234324</speed>
  <fix>3d</fix>
</trkpt>
<trkpt lat="40.0715406" lon="-105.2298165">
  <ele>1583.0</ele>
  <time>2026-08-28T17:54:29Z</time>
  <course>0.95</course>
  <speed>5.02008964063392</speed>
  <fix>3d</fix>
</trkpt>
<trkpt lat="40.0715406" lon="-105.2298165">
  <ele>1583.0</ele>
  <time>2026-08-28T17:54:29Z</time>
  <course>0.95</course>
  <speed>5.02008964063392</speed>
  <fix>3d</fix>
</trkpt>
<trkpt lat="40.0715344" lon="-105.2298165">
  <ele>1583.0</ele>
  <time>2026-08-28T17:54:29Z</time>
  <course>359.75</course>
  <speed>5.09</speed>
  <fix>3d</fix>
</trkpt>
<trkpt lat="40.0715433" lon="-105.2298165">
  <ele>1583.0</ele>
  <time>2026-08-28T17:54:29Z</time>
  <course>0.99</course>
  <speed>4.960090724976712</speed>
  <fix>3d</fix>
</trkpt>
<trkpt lat="40.0715442" lon="-105.2298165">
  <ele>1583.0</ele>
  <time>2026-08-28T17:54:29Z</time>
  <course>1.0</course>
  <speed>4.94004048566406</speed>
  <fix>3d</fix>
</trkpt>
<trkpt lat="40.0715451" lon="-105.2298165">
  <ele>1583.0</ele>
  <time>2026-08-28T17:54:29Z</time>
  <course>1.01</course>
  <speed>4.910040733028597</speed>
  <fix>3d</fix>
</trkpt>
<trkpt lat="40.0715451" lon="-105.2298165">
  <ele>1583.0</ele>
  <time>2026-08-28T17:54:29Z</time>
  <course>1.01</course>
  <speed>4.910040733028597</speed>
  <fix>3d</fix>
</trkpt>
<trkpt lat="40.0715344" lon="-105.2298165">
  <ele>1583.0</ele>
  <time>2026-08-28T17:54:29Z</time>
  <course>359.75</course>
  <speed>5.09</speed>
  <fix>3d</fix>
</trkpt>
<trkpt lat="40.0715477" lon="-105.2298165">
  <ele>1583.0</ele>
  <time>2026-08-28T17:54:29Z</time>
  <course>1.05</course>
  <speed>4.850041236938094</speed>
  <fix>3d</fix>
</trkpt>
<trkpt lat="40.0715486" lon="-105.2298165">
  <ele>1583.0</ele>
  <time>2026-08-28T17:54:29Z</time>
  <course>1.06</course>
  <speed>4.820041493597333</speed>
  <fix>3d</fix>
</trkpt>
<trkpt lat="40.0715494" lon="-105.2298165">
  <ele>1583.0</ele>
  <time>2026-08-28T17:54:29Z</time>
  <course>1.07</course>
  <speed>4.800041666485823</speed>
  <fix>3d</fix>
</trkpt>
<trkpt lat="40.0715494" lon="-105.2298165">
  <ele>1583.0</ele>
  <time>2026-08-28T17:54:29Z</time>
  <course>1.07</course>
  <speed>4.800041666485823</speed>
  <fix>3d</fix>
</trkpt>
<trkpt lat="40.0715433" lon="-105.2298165">
  <ele>1583.0</ele>
  <time>2026-08-28T17:54:29Z</time>
  <course>359.88</course>
  <speed>4.89</speed>
  <fix>3d</fix>
</trkpt>
<trkpt lat="40.071552" lon="-105.2298166">
  <ele>1583.0</ele>
  <time>2026-08-28T17:54:29Z</time>
  <course>1.1</course>
  <speed>4.720042372691161</speed>
  <fix>3d</fix>
</trkpt>
<trkpt lat="40.0715528" lon="-105.2298166">
  <ele>1583.0</ele>
  <time>2026-08-28T17:54:29Z</time>
  <course>1.11</course>
  <speed>4.700042552998855</speed>
  <fix>3d</fix>
</trkpt>
<trkpt lat="40.0715536" lon="-105.2298166">
  <ele>1583.0</ele>
  <time>2026-08-28T17:54:29Z</time>
  <course>1.12</course>
  <speed>4.6700428263560925</speed>
  <fix>3d</fix>
</trkpt>
<trkpt lat="40.0715536" lon="-105.2298166">
  <ele>1583.0</ele>
  <time>2026-08-28T17:54:29Z</time>
  <course>1.12</course>
  <speed>4.6700428263560925</speed>
  <fix>3d</fix>
</trkpt>
<trkpt lat="40.0715433" lon="-105.2298165">
  <ele>1583.0</ele>
  <time>2026-08-28T17:54:29Z</time>
  <course>359.88</course>
  <speed>4.89</speed>
  <fix>3d</fix>
</trkpt>
<trkpt lat="40.0715561" lon="-105.2298166">
  <ele>1583.01</ele>
  <time>2026-08-28T17:54:29Z</time>
  <course>1.15</course>
  <speed>4.600043478055398</speed>
  <fix>3d</fix>
</trkpt>
<trkpt lat="40.071557" lon="-105.2298166">
  <ele>1583.01</ele>
  <time>2026-08-28T17:54:29Z</time>
  <course>1.17</course>
  <speed>4.570043763466604</speed>
  <fix>3d</fix>
</trkpt>
<trkpt lat="40.0715578" lon="-105.2298166">
  <ele>1583.01</ele>
  <time>2026-08-28T17:54:29Z</time>
  <course>1.18</course>
  <speed>4.5400440526497094</speed>
  <fix>3d</fix>
</trkpt>
<trkpt lat="40.0715578" lon="-105.2298166">
  <ele>1583.01</ele>
  <time>2026-08-28T17:54:29Z</time>
  <course>1.18</course>
  <speed>4.5400440526497094</speed>
  <fix>3d</fix>
</trkpt>
<trkpt lat="40.0715519" lon="-105.2298165">
  <ele>1583.0</ele>
  <time>2026-08-28T17:54:29Z</time>
  <course>0.01</course>
  <speed>4.66</speed>
  <fix>3d</fix>
</trkpt>
<trkpt lat="40.071561" lon="-105.2298166">
  <ele>1583.01</ele>
  <time>2026-08-28T17:54:29Z</time>
  <course>1.22</course>
  <speed>4.440011261246981</speed>
  <fix>3d</fix>
</trkpt>
<trkpt lat="40.0715618" lon="-105.2298166">
  <ele>1583.01</ele>
  <time>2026-08-28T17:54:29Z</time>
  <course>1.23</course>
  <speed>4.410011337853906</speed>
  <fix>3d</fix>
</trkpt>
<trkpt lat="40.0715618" lon="-105.2298166">
  <ele>1583.01</ele>
  <time>2026-08-28T17:54:29Z</time>
  <course>1.23</course>
  <speed>4.410011337853906</speed>
  <fix>3d</fix>
</trkpt>
<trkpt lat="40.0715519" lon="-105.2298165">
  <ele>1583.0</ele>
  <time>2026-08-28T17:54:29Z</time>
  <course>0.01</course>
  <speed>4.66</speed>
  <fix>3d</fix>
</trkpt>
<trkpt lat="40.0715649" lon="-105.2298166">
  <ele>1583.01</ele>
  <time>2026-08-28T17:54:29Z</time>
  <course>1.26</course>
  <speed>4.300011627891255</speed>
  <fix>3d</fix>
</trkpt>
<trkpt lat="40.0715656" lon="-105.2298166">
  <ele>1583.01</ele>
  <time>2026-08-28T17:54:29Z</time>
  <course>1.27</course>
  <speed>4.270011709585818</speed>
  <fix>3d</fix>
</trkpt>
<trkpt lat="40.0715519" lon="-105.2298165">
  <ele>1583.0</ele>
  <time>2026-08-28T17:54:29Z</time>
  <course>0.01</course>
  <speed>4.66</speed>
  <fix>3d</fix>
</trkpt>
<trkpt lat="40.0715664" lon="-105.2298166">
  <ele>1583.01</ele>
  <time>2026-08-28T17:54:29Z</time>
  <course>1.28</course>
  <speed>4.240011792436431</speed>
  <fix>3d</fix>
</trkpt>
<trkpt lat="40.0715679" lon="-105.2298166">
  <ele>1583.01</ele>
  <time>2026-08-28T17:54:29Z</time>
  <course>1.3</course>
  <speed>4.180011961705373</speed>
  <fix>3d</fix>
</trkpt>
<trkpt lat="40.0715686" lon="-105.2298166">
  <ele>1583.01</ele>
  <time>2026-08-28T17:54:29Z</time>
  <course>1.31</course>
  <speed>4.160012019213406</speed>
  <fix>3d</fix>
</trkpt>
<trkpt lat="40.0715694" lon="-105.2298166">
  <ele>1583.01</ele>
  <time>2026-08-28T17:54:29Z</time>
  <course>1.32</course>
  <speed>4.130012106519787</speed>
  <fix>3d</fix>
</trkpt>
<trkpt lat="40.0715694" lon="-105.2298166">
  <ele>1583.01</ele>
  <time>2026-08-28T17:54:29Z</time>
  <course>1.32</course>
  <speed>4.130012106519787</speed>
  <fix>3d</fix>
</trkpt>
<trkpt lat="40.0715601" lon="-105.2298165">
  <ele>1583.0</ele>
  <time>2026-08-28T17:54:29Z</time>
  <course>0.14</course>
  <speed>4.4</speed>
  <fix>3d</fix>
</trkpt>
<trkpt lat="40.0715722" lon="-105.2298166">
  <ele>1583.01</ele>
  <time>2026-08-28T17:54:29Z</time>
  <course>1.35</course>
  <speed>4.010012468808545</speed>
  <fix>3d</fix>
</trkpt>
<trkpt lat="40.0715729" lon="-105.2298166">
  <ele>1583.01</ele>
  <time>2026-08-28T17:54:29Z</time>
  <course>1.36</course>
  <speed>3.9900125313086425</speed>
  <fix>3d</fix>
</trkpt>
<trkpt lat="40.0715729" lon="-105.2298166">
  <ele>1583.01</ele>
  <time>2026-08-28T17:54:29Z</time>
  <course>1.36</course>
  <speed>3.9900125313086425</speed>
  <fix>3d</fix>
</trkpt>
<trkpt lat="40.0715601" lon="-105.2298165">
  <ele>1583.0</ele>
  <time>2026-08-28T17:54:29Z</time>
  <course>0.14</course>
  <speed>4.4</speed>
  <fix>3d</fix>
</trkpt>
<trkpt lat="40.0715757" lon="-105.2298166">
  <ele>1583.01</ele>
  <time>2026-08-28T17:54:29Z</time>
  <course>1.39</course>
  <speed>3.8700129198750743</speed>
  <fix>3d</fix>
</trkpt>
<trkpt lat="40.0715764" lon="-105.2298166">
  <ele>1583.01</ele>
  <time>2026-08-28T17:54:29Z</time>
  <course>1.4</course>
  <speed>3.8400130208112575</speed>
  <fix>3d</fix>
</trkpt>
<trkpt lat="40.0715764" lon="-105.2298166">
  <ele>1583.01</ele>
  <time>2026-08-28T17:54:29Z</time>
  <course>1.4</course>
  <speed>3.8400130208112575</speed>
  <fix>3d</fix>
</trkpt>
<trkpt lat="40.0715677" lon="-105.2298165">
  <ele>1583.0</ele>
  <time>2026-08-28T17:54:29Z</time>
  <course>0.25</course>
  <speed>4.13</speed>
  <fix>3d</fix>
</trkpt>
<trkpt lat="40.071579" lon="-105.2298166">
  <ele>1583.01</ele>
  <time>2026-08-28T17:54:29Z</time>
  <course>1.43</course>
  <speed>3.7300134048016504</speed>
  <fix>3d</fix>
</trkpt>
<trkpt lat="40.0715797" lon="-105.2298165">
  <ele>1583.01</ele>
  <time>2026-08-28T17:54:29Z</time>
  <course>1.44</course>
  <speed>3.7000135134888357</speed>
  <fix>3d</fix>
</trkpt>
<trkpt lat="40.0715797" lon="-105.2298165">
  <ele>1583.01</ele>
  <time>2026-08-28T17:54:29Z</time>
  <course>1.44</course>
  <speed>3.7000135134888357</speed>
  <fix>3d</fix>
</trkpt>
<trkpt lat="40.0715677" lon="-105.2298165">
  <ele>1583.0</ele>
  <time>2026-08-28T17:54:29Z</time>
  <course>0.25</course>
  <speed>4.13</speed>
  <fix>3d</fix>
</trkpt>
<trkpt lat="40.0715823" lon="-105.2298165">
  <ele>1583.01</ele>
  <time>2026-08-28T17:54:29Z</time>
  <course>1.47</course>
  <speed>3.59</speed>
  <fix>3d</fix>
</trkpt>
<trkpt lat="40.0715829" lon="-105.2298165">
  <ele>1583.01</ele>
  <time>2026-08-28T17:54:29Z</time>
  <course>1.47</course>
  <speed>3.56</speed>
  <fix>3d</fix>
</trkpt>
<trkpt lat="40.0715829" lon="-105.2298165">
  <ele>1583.01</ele>
  <time>2026-08-28T17:54:29Z</time>
  <course>1.47</course>
  <speed>3.56</speed>
  <fix>3d</fix>
</trkpt>
<trkpt lat="40.0715749" lon="-105.2298165">
  <ele>1583.0</ele>
  <time>2026-08-28T17:54:29Z</time>
  <course>0.36</course>
  <speed>3.86</speed>
  <fix>3d</fix>
</trkpt>
<trkpt lat="40.0715854" lon="-105.2298165">
  <ele>1583.01</ele>
  <time>2026-08-28T17:54:29Z</time>
  <course>1.5</course>
  <speed>3.45</speed>
  <fix>3d</fix>
</trkpt>
<trkpt lat="40.071586" lon="-105.2298165">
  <ele>1583.01</ele>
  <time>2026-08-28T17:54:29Z</time>
  <course>1.51</course>
  <speed>3.43</speed>
  <fix>3d</fix>
</trkpt>
<trkpt lat="40.071586" lon="-105.2298165">
  <ele>1583.01</ele>
  <time>2026-08-28T17:54:29Z</time>
  <course>1.51</course>
  <speed>3.43</speed>
  <fix>3d</fix>
</trkpt>
<trkpt lat="40.0715816" lon="-105.2298165">
  <ele>1583.0</ele>
  <time>2026-08-28T17:54:29Z</time>
  <course>0.46</course>
  <speed>3.59</speed>
  <fix>3d</fix>
</trkpt>
<trkpt lat="40.0715884" lon="-105.2298165">
  <ele>1583.02</ele>
  <time>2026-08-28T17:54:29Z</time>
  <course>1.53</course>
  <speed>3.32</speed>
  <fix>3d</fix>
</trkpt>
<trkpt lat="40.071589" lon="-105.2298165">
  <ele>1583.02</ele>
  <time>2026-08-28T17:54:29Z</time>
  <course>1.54</course>
  <speed>3.29</speed>
  <fix>3d</fix>
</trkpt>
<trkpt lat="40.071589" lon="-105.2298165">
  <ele>1583.02</ele>
  <time>2026-08-28T17:54:29Z</time>
  <course>1.54</course>
  <speed>3.29</speed>
  <fix>3d</fix>
</trkpt>
<trkpt lat="40.0715816" lon="-105.2298165">
  <ele>1583.0</ele>
  <time>2026-08-28T17:54:29Z</time>
  <course>0.46</course>
  <speed>3.59</speed>
  <fix>3d</fix>
</trkpt>
<trkpt lat="40.0715913" lon="-105.2298165">
  <ele>1583.02</ele>
  <time>2026-08-28T17:54:29Z</time>
  <course>1.56</course>
  <speed>3.19</speed>
  <fix>3d</fix>
</trkpt>
<trkpt lat="40.0715918" lon="-105.2298165">
  <ele>1583.02</ele>
  <time>2026-08-28T17:54:29Z</time>
  <course>1.58</course>
  <speed>3.17</speed>
  <fix>3d</fix>
</trkpt>
<trkpt lat="40.0715918" lon="-105.2298165">
  <ele>1583.02</ele>
  <time>2026-08-28T17:54:29Z</time>
  <course>1.58</course>
  <speed>3.17</speed>
  <fix>3d</fix>
</trkpt>
<trkpt lat="40.0715879" lon="-105.2298164">
  <ele>1583.0</ele>
  <time>2026-08-28T17:54:29Z</time>
  <course>0.56</course>
  <speed>3.34</speed>
  <fix>3d</fix>
</trkpt>
<trkpt lat="40.0715941" lon="-105.2298165">
  <ele>1583.02</ele>
  <time>2026-08-28T17:54:29Z</time>
  <course>1.63</course>
  <speed>3.07</speed>
  <fix>3d</fix>
</trkpt>
<trkpt lat="40.0715946" lon="-105.2298165">
  <ele>1583.02</ele>
  <time>2026-08-28T17:54:29Z</time>
  <course>1.63</course>
  <speed>3.04</speed>
  <fix>3d</fix>
</trkpt>
<trkpt lat="40.0715946" lon="-105.2298165">
  <ele>1583.02</ele>
  <time>2026-08-28T17:54:29Z</time>
  <course>1.63</course>
  <speed>3.04</speed>
  <fix>3d</fix>
</trkpt>
<trkpt lat="40.0715879" lon="-105.2298164">
  <ele>1583.0</ele>
  <time>2026-08-28T17:54:29Z</time>
  <course>0.56</course>
  <speed>3.34</speed>
  <fix>3d</fix>
</trkpt>
<trkpt lat="40.0715957" lon="-105.2298165">
  <ele>1583.02</ele>
  <time>2026-08-28T17:54:29Z</time>
  <course>1.65</course>
  <speed>3.0</speed>
  <fix>3d</fix>
</trkpt>
<trkpt lat="40.0715962" lon="-105.2298165">
  <ele>1583.02</ele>
  <time>2026-08-28T17:54:29Z</time>
  <course>1.67</course>
  <speed>2.97</speed>
  <fix>3d</fix>
</trkpt>
<trkpt lat="40.0715967" lon="-105.2298165">
  <ele>1583.02</ele>
  <time>2026-08-28T17:54:29Z</time>
  <course>1.68</course>
  <speed>2.95</speed>
  <fix>3d</fix>
</trkpt>
<trkpt lat="40.0715973" lon="-105.2298165">
  <ele>1583.02</ele>
  <time>2026-08-28T17:54:29Z</time>
  <course>1.7</course>
  <speed>2.92</speed>
  <fix>3d</fix>
</trkpt>
<trkpt lat="40.0715973" lon="-105.2298165">
  <ele>1583.02</ele>
  <time>2026-08-28T17:54:29Z</time>
  <course>1.7</course>
  <speed>2.92</speed>
  <fix>3d</fix>
</trkpt>
<trkpt lat="40.0715936" lon="-105.2298163">
  <ele>1583.0</ele>
  <time>2026-08-28T17:54:29Z</time>
  <course>0.68</course>
  <speed>3.09</speed>
  <fix>3d</fix>
</trkpt>
<trkpt lat="40.0715993" lon="-105.2298164">
  <ele>1583.02</ele>
  <time>2026-08-28T17:54:29Z</time>
  <course>1.75</course>
  <speed>2.83</speed>
  <fix>3d</fix>
</trkpt>
<trkpt lat="40.0715998" lon="-105.2298164">
  <ele>1583.02</ele>
  <time>2026-08-28T17:54:29Z</time>
  <course>1.76</course>
  <speed>2.81</speed>
  <fix>3d</fix>
</trkpt>
<trkpt lat="40.0715998" lon="-105.2298164">
  <ele>1583.02</ele>
  <time>2026-08-28T17:54:29Z</time>
  <course>1.76</course>
  <speed>2.81</speed>
  <fix>3d</fix>
</trkpt>
<trkpt lat="40.0715936" lon="-105.2298163">
  <ele>1583.0</ele>
  <time>2026-08-28T17:54:29Z</time>
  <course>0.68</course>
  <speed>3.09</speed>
  <fix>3d</fix>
</trkpt>
<trkpt lat="40.0716018" lon="-105.2298164">
  <ele>1583.02</ele>
  <time>2026-08-28T17:54:29Z</time>
  <course>1.82</course>
  <speed>2.72</speed>
  <fix>3d</fix>
</trkpt>
<trkpt lat="40.0716023" lon="-105.2298164">
  <ele>1583.02</ele>
  <time>2026-08-28T17:54:29Z</time>
  <course>1.83</course>
  <speed>2.69</speed>
  <fix>3d</fix>
</trkpt>
<trkpt lat="40.0716023" lon="-105.2298164">
  <ele>1583.02</ele>
  <time>2026-08-28T17:54:29Z</time>
  <course>1.83</course>
  <speed>2.69</speed>
  <fix>3d</fix>
</trkpt>
<trkpt lat="40.071599" lon="-105.2298162">
  <ele>1583.0</ele>
  <time>2026-08-28T17:54:29Z</time>
  <course>0.83</course>
  <speed>2.86</speed>
  <fix>3d</fix>
</trkpt>
<trkpt lat="40.0716042" lon="-105.2298164">
  <ele>1583.02</ele>
  <time>2026-08-28T17:54:29Z</time>
  <course>1.88</course>
  <speed>2.6</speed>
  <fix>3d</fix>
</trkpt>
<trkpt lat="40.0716047" lon="-105.2298164">
  <ele>1583.02</ele>
  <time>2026-08-28T17:54:29Z</time>
  <course>1.89</course>
  <speed>2.58</speed>
  <fix>3d</fix>
</trkpt>
<trkpt lat="40.0716047" lon="-105.2298164">
  <ele>1583.02</ele>
  <time>2026-08-28T17:54:29Z</time>
  <course>1.89</course>
  <speed>2.58</speed>
  <fix>3d</fix>
</trkpt>
<trkpt lat="40.071599" lon="-105.2298162">
  <ele>1583.0</ele>
  <time>2026-08-28T17:54:29Z</time>
  <course>0.83</course>
  <speed>2.86</speed>
  <fix>3d</fix>
</trkpt>
<trkpt lat="40.0716061" lon="-105.2298164">
  <ele>1583.02</ele>
  <time>2026-08-28T17:54:29Z</time>
  <course>1.93</course>
  <speed>2.52</speed>
  <fix>3d</fix>
</trkpt>
<trkpt lat="40.0716065" lon="-105.2298164">
  <ele>1583.02</ele>
  <time>2026-08-28T17:54:29Z</time>
  <course>1.94</course>
  <speed>2.5000199999200006</speed>
  <fix>3d</fix>
</trkpt>
<trkpt lat="40.071607" lon="-105.2298163">
  <ele>1583.02</ele>
  <time>2026-08-28T17:54:29Z</time>
  <course>1.95</course>
  <speed>2.480020161208372</speed>
  <fix>3d</fix>
</trkpt>
<trkpt lat="40.071607" lon="-105.2298163">
  <ele>1583.02</ele>
  <time>2026-08-28T17:54:29Z</time>
  <course>1.95</course>
  <speed>2.480020161208372</speed>
  <fix>3d</fix>
</trkpt>
<trkpt lat="40.071604" lon="-105.2298161">
  <ele>1583.0</ele>
  <time>2026-08-28T17:54:29Z</time>
  <course>0.98</course>
  <speed>2.65</speed>
  <fix>3d</fix>
</trkpt>
<trkpt lat="40.0716088" lon="-105.2298163">
  <ele>1583.02</ele>
  <time>2026-08-28T17:54:29Z</time>
  <course>2.0</course>
  <speed>2.3900209204105307</speed>
  <fix>3d</fix>
</trkpt>
<trkpt lat="40.0716092" lon="-105.2298163">
  <ele>1583.02</ele>
  <time>2026-08-28T17:54:29Z</time>
  <course>2.02</course>
  <speed>2.3700210969525144</speed>
  <fix>3d</fix>
</trkpt>
<trkpt lat="40.0716092" lon="-105.2298163">
  <ele>1583.02</ele>
  <time>2026-08-28T17:54:29Z</time>
  <course>2.02</course>
  <speed>2.3700210969525144</speed>
  <fix>3d</fix>
</trkpt>
<trkpt lat="40.071604" lon="-105.2298161">
  <ele>1583.0</ele>
  <time>2026-08-28T17:54:29Z</time>
  <course>0.98</course>
  <speed>2.65</speed>
  <fix>3d</fix>
</trkpt>
<trkpt lat="40.0716109" lon="-105.2298162">
  <ele>1583.02</ele>
  <time>2026-08-28T17:54:29Z</time>
  <course>2.09</course>
  <speed>2.2900218339570477</speed>
  <fix>3d</fix>
</trkpt>
<trkpt lat="40.0716113" lon="-105.2298162">
  <ele>1583.02</ele>
  <time>2026-08-28T17:54:29Z</time>
  <course>2.1</course>
  <speed>2.2700220263248547</speed>
  <fix>3d</fix>
</trkpt>
<trkpt lat="40.0716113" lon="-105.2298162">
  <ele>1583.02</ele>
  <time>2026-08-28T17:54:29Z</time>
  <course>2.1</course>
  <speed>2.2700220263248547</speed>
  <fix>3d</fix>
</trkpt>
<trkpt lat="40.0716086" lon="-105.229816">
  <ele>1583.0</ele>
  <time>2026-08-28T17:54:29Z</time>
  <course>1.14</course>
  <speed>2.44</speed>
  <fix>3d</fix>
</trkpt>
<trkpt lat="40.0716129" lon="-105.2298162">
  <ele>1583.02</ele>
  <time>2026-08-28T17:54:29Z</time>
  <course>2.17</course>
  <speed>2.190022830931221</speed>
  <fix>3d</fix>
</trkpt>
<trkpt lat="40.0716133" lon="-105.2298162">
  <ele>1583.02</ele>
  <time>2026-08-28T17:54:29Z</time>
  <course>2.19</course>
  <speed>2.1700230413523265</speed>
  <fix>3d</fix>
</trkpt>
<trkpt lat="40.0716133" lon="-105.2298162">
  <ele>1583.02</ele>
  <time>2026-08-28T17:54:29Z</time>
  <course>2.19</course>
  <speed>2.1700230413523265</speed>
  <fix>3d</fix>
</trkpt>
<trkpt lat="40.0716086" lon="-105.229816">
  <ele>1583.0</ele>
  <time>2026-08-28T17:54:29Z</time>
  <course>1.14</course>
  <speed>2.44</speed>
  <fix>3d</fix>
</trkpt>
<trkpt lat="40.0716149" lon="-105.2298161">
  <ele>1583.03</ele>
  <time>2026-08-28T17:54:29Z</time>
  <course>2.25</course>
  <speed>2.090095691589263</speed>
  <fix>3d</fix>
</trkpt>
<trkpt lat="40.0716152" lon="-105.2298161">
  <ele>1583.03</ele>
  <time>2026-08-28T17:54:29Z</time>
  <course>2.27</course>
  <speed>2.0700966161027363</speed>
  <fix>3d</fix>
</trkpt>
<trkpt lat="40.0716127" lon="-105.2298159">
  <ele>1583.0</ele>
  <time>2026-08-28T17:54:29Z</time>
  <course>1.31</course>
  <speed>2.24</speed>
  <fix>3d</fix>
</trkpt>
<trkpt lat="40.0716156" lon="-105.2298161">
  <ele>1583.03</ele>
  <time>2026-08-28T17:54:29Z</time>
  <course>2.29</course>
  <speed>2.0500975586542216</speed>
  <fix>3d</fix>
</trkpt>
<trkpt lat="40.0716167" lon="-105.2298161">
  <ele>1583.03</ele>
  <time>2026-08-28T17:54:29Z</time>
  <course>2.35</course>
  <speed>2.000099997500125</speed>
  <fix>3d</fix>
</trkpt>
<trkpt lat="40.0716171" lon="-105.229816">
  <ele>1583.03</ele>
  <time>2026-08-28T17:54:29Z</time>
  <course>2.37</course>
  <speed>1.9801010075246162</speed>
  <fix>3d</fix>
</trkpt>
<trkpt lat="40.0716171" lon="-105.229816">
  <ele>1583.03</ele>
  <time>2026-08-28T17:54:29Z</time>
  <course>2.37</course>
  <speed>1.9801010075246162</speed>
  <fix>3d</fix>
</trkpt>
<trkpt lat="40.0716127" lon="-105.2298159">
  <ele>1583.0</ele>
  <time>2026-08-28T17:54:29Z</time>
  <course>1.31</course>
  <speed>2.24</speed>
  <fix>3d</fix>
</trkpt>
<trkpt lat="40.0716185" lon="-105.229816">
  <ele>1583.03</ele>
  <time>2026-08-28T17:54:29Z</time>
  <course>2.45</course>
  <speed>1.9001052602421793</speed>
  <fix>3d</fix>
</trkpt>
<trkpt lat="40.0716188" lon="-105.229816">
  <ele>1583.03</ele>
  <time>2026-08-28T17:54:29Z</time>
  <course>2.47</course>
  <speed>1.8801063799689632</speed>
  <fix>3d</fix>
</trkpt>
<trkpt lat="40.0716188" lon="-105.229816">
  <ele>1583.03</ele>
  <time>2026-08-28T17:54:29Z</time>
  <course>2.47</course>
  <speed>1.8801063799689632</speed>
  <fix>3d</fix>
</trkpt>
<trkpt lat="40.0716127" lon="-105.2298159">
  <ele>1583.0</ele>
  <time>2026-08-28T17:54:29Z</time>
  <course>1.31</course>
  <speed>2.24</speed>
  <fix>3d</fix>
</trkpt>
<trkpt lat="40.0716198" lon="-105.2298159">
  <ele>1583.03</ele>
  <time>2026-08-28T17:54:29Z</time>
  <course>2.54</course>
  <speed>1.8301092863542332</speed>
  <fix>3d</fix>
</trkpt>
<trkpt lat="40.0716202" lon="-105.2298159">
  <ele>1583.03</ele>
  <time>2026-08-28T17:54:29Z</time>
  <course>2.57</course>
  <speed>1.8101104938649464</speed>
  <fix>3d</fix>
</trkpt>
<trkpt lat="40.0716205" lon="-105.2298159">
  <ele>1583.03</ele>
  <time>2026-08-28T17:54:29Z</time>
  <course>2.59</course>
  <speed>1.7902513789968157</speed>
  <fix>3d</fix>
</trkpt>
<trkpt lat="40.0716205" lon="-105.2298159">
  <ele>1583.03</ele>
  <time>2026-08-28T17:54:29Z</time>
  <course>2.59</course>
  <speed>1.7902513789968157</speed>
  <fix>3d</fix>
</trkpt>
<trkpt lat="40.0716166" lon="-105.2298158">
  <ele>1583.0</ele>
  <time>2026-08-28T17:54:29Z</time>
  <course>1.51</course>
  <speed>2.05</speed>
  <fix>3d</fix>
</trkpt>
<trkpt lat="40.0716218" lon="-105.2298159">
  <ele>1583.03</ele>
  <time>2026-08-28T17:54:29Z</time>
  <course>2.69</course>
  <speed>1.710263137648707</speed>
  <fix>3d</fix>
</trkpt>
<trkpt lat="40.0716221" lon="-105.2298158">
  <ele>1583.03</ele>
  <time>2026-08-28T17:54:29Z</time>
  <course>2.72</course>
  <speed>1.7002646852769718</speed>
  <fix>3d</fix>
</trkpt>
<trkpt lat="40.0716221" lon="-105.2298158">
  <ele>1583.03</ele>
  <time>2026-08-28T17:54:29Z</time>
  <course>2.72</course>
  <speed>1.7002646852769718</speed>
  <fix>3d</fix>
</trkpt>
<trkpt lat="40.0716166" lon="-105.2298158">
  <ele>1583.0</ele>
  <time>2026-08-28T17:54:29Z</time>
  <course>1.51</course>
  <speed>2.05</speed>
  <fix>3d</fix>
</trkpt>
<trkpt lat="40.0716233" lon="-105.2298158">
  <ele>1583.03</ele>
  <time>2026-08-28T17:54:29Z</time>
  <course>2.84</course>
  <speed>1.620277753966893</speed>
  <fix>3d</fix>
</trkpt>
<trkpt lat="40.0716236" lon="-105.2298158">
  <ele>1583.03</ele>
  <time>2026-08-28T17:54:29Z</time>
  <course>2.87</course>
  <speed>1.6102794788483146</speed>
  <fix>3d</fix>
</trkpt>
<trkpt lat="40.0716236" lon="-105.2298158">
  <ele>1583.03</ele>
  <time>2026-08-28T17:54:29Z</time>
  <course>2.87</course>
  <speed>1.6102794788483146</speed>
  <fix>3d</fix>
</trkpt>
<trkpt lat="40.0716202" lon="-105.2298156">
  <ele>1583.0</ele>
  <time>2026-08-28T17:54:29Z</time>
  <course>1.75</course>
  <speed>1.86</speed>
  <fix>3d</fix>
</trkpt>
<trkpt lat="40.0716247" lon="-105.2298157">
  <ele>1583.03</ele>
  <time>2026-08-28T17:54:29Z</time>
  <course>3.0</course>
  <speed>1.5302940893828219</speed>
  <fix>3d</fix>
</trkpt>
<trkpt lat="40.071625" lon="-105.2298157">
  <ele>1583.03</ele>
  <time>2026-08-28T17:54:29Z</time>
  <course>3.03</course>
  <speed>1.5102979838429236</speed>
  <fix>3d</fix>
</trkpt>
<trkpt lat="40.071625" lon="-105.2298157">
  <ele>1583.03</ele>
  <time>2026-08-28T17:54:29Z</time>
  <course>3.03</course>
  <speed>1.5102979838429236</speed>
  <fix>3d</fix>
</trkpt>
<trkpt lat="40.0716202" lon="-105.2298156">
  <ele>1583.0</ele>
  <time>2026-08-28T17:54:29Z</time>
  <course>1.75</course>
  <speed>1.86</speed>
  <fix>3d</fix>
</trkpt>
<trkpt lat="40.0716261" lon="-105.2298156">
  <ele>1583.03</ele>
  <time>2026-08-28T17:54:29Z</time>
  <course>3.18</course>
  <speed>1.4405554484295287</speed>
  <fix>3d</fix>
</trkpt>
<trkpt lat="40.0716263" lon="-105.2298156">
  <ele>1583.03</ele>
  <time>2026-08-28T17:54:29Z</time>
  <course>3.22</course>
  <speed>1.4305593311708538</speed>
  <fix>3d</fix>
</trkpt>
<trkpt lat="40.0716263" lon="-105.2298156">
  <ele>1583.03</ele>
  <time>2026-08-28T17:54:29Z</time>
  <course>3.22</course>
  <speed>1.4305593311708538</speed>
  <fix>3d</fix>
</trkpt>
<trkpt lat="40.0716233" lon="-105.2298155">
  <ele>1583.0</ele>
  <time>2026-08-28T17:54:29Z</time>
  <course>2.04</course>
  <speed>1.68</speed>
  <fix>3d</fix>
</trkpt>
<trkpt lat="40.0716273" lon="-105.2298155">
  <ele>1583.04</ele>
  <time>2026-08-28T17:54:29Z</time>
  <course>3.39</course>
  <speed>1.3505924625881784</speed>
  <fix>3d</fix>
</trkpt>
<trkpt lat="40.0716276" lon="-105.2298155">
  <ele>1583.04</ele>
  <time>2026-08-28T17:54:29Z</time>
  <course>3.43</course>
  <speed>1.330601367803295</speed>
  <fix>3d</fix>
</trkpt>
<trkpt lat="40.0716276" lon="-105.2298155">
  <ele>1583.04</ele>
  <time>2026-08-28T17:54:29Z</time>
  <course>3.43</course>
  <speed>1.330601367803295</speed>
  <fix>3d</fix>
</trkpt>
<trkpt lat="40.0716262" lon="-105.2298154">
  <ele>1583.0</ele>
  <time>2026-08-28T17:54:29Z</time>
  <course>2.39</course>
  <speed>1.51</speed>
  <fix>3d</fix>
</trkpt>
<trkpt lat="40.0716286" lon="-105.2298155">
  <ele>1583.04</ele>
  <time>2026-08-28T17:54:29Z</time>
  <course>3.63</course>
  <speed>1.260634760745554</speed>
  <fix>3d</fix>
</trkpt>
<trkpt lat="40.0716288" lon="-105.2298154">
  <ele>1583.04</ele>
  <time>2026-08-28T17:54:29Z</time>
  <course>3.68</course>
  <speed>1.240644993541666</speed>
  <fix>3d</fix>
</trkpt>
<trkpt lat="40.0716288" lon="-105.2298154">
  <ele>1583.04</ele>
  <time>2026-08-28T17:54:29Z</time>
  <course>3.68</course>
  <speed>1.240644993541666</speed>
  <fix>3d</fix>
</trkpt>
<trkpt lat="40.0716262" lon="-105.2298154">
  <ele>1583.0</ele>
  <time>2026-08-28T17:54:29Z</time>
  <course>2.39</course>
  <speed>1.51</speed>
  <fix>3d</fix>
</trkpt>
<trkpt lat="40.0716297" lon="-105.2298154">
  <ele>1583.04</ele>
  <time>2026-08-28T17:54:29Z</time>
  <course>3.91</course>
  <speed>1.1710678887237922</speed>
  <fix>3d</fix>
</trkpt>
<trkpt lat="40.0716299" lon="-105.2298154">
  <ele>1583.04</ele>
  <time>2026-08-28T17:54:29Z</time>
  <course>3.97</course>
  <speed>1.151086443322134</speed>
  <fix>3d</fix>
</trkpt>
<trkpt lat="40.0716299" lon="-105.2298154">
  <ele>1583.04</ele>
  <time>2026-08-28T17:54:29Z</time>
  <course>3.97</course>
  <speed>1.151086443322134</speed>
  <fix>3d</fix>
</trkpt>
<trkpt lat="40.0716288" lon="-105.2298152">
  <ele>1583.0</ele>
  <time>2026-08-28T17:54:29Z</time>
  <course>2.86</course>
  <speed>1.33</speed>
  <fix>3d</fix>
</trkpt>
<trkpt lat="40.0716307" lon="-105.2298153">
  <ele>1583.05</ele>
  <time>2026-08-28T17:54:29Z</time>
  <course>4.24</course>
  <speed>1.0811567878897121</speed>
  <fix>3d</fix>
</trkpt>
<trkpt lat="40.0716309" lon="-105.2298153">
  <ele>1583.05</ele>
  <time>2026-08-28T17:54:29Z</time>
  <course>4.31</course>
  <speed>1.061178590059185</speed>
  <fix>3d</fix>
</trkpt>
<trkpt lat="40.0716309" lon="-105.2298153">
  <ele>1583.05</ele>
  <time>2026-08-28T17:54:29Z</time>
  <course>4.31</course>
  <speed>1.061178590059185</speed>
  <fix>3d</fix>
</trkpt>
<trkpt lat="40.0716288" lon="-105.2298152">
  <ele>1583.0</ele>
  <time>2026-08-28T17:54:29Z</time>
  <course>2.86</course>
  <speed>1.33</speed>
  <fix>3d</fix>
</trkpt>
<trkpt lat="40.0716317" lon="-105.2298152">
  <ele>1583.05</ele>
  <time>2026-08-28T17:54:29Z</time>
  <course>4.64</course>
  <speed>0.9912618221237011</speed>
  <fix>3d</fix>
</trkpt>
<trkpt lat="40.0716319" lon="-105.2298152">
  <ele>1583.05</ele>
  <time>2026-08-28T17:54:29Z</time>
  <course>4.73</course>
  <speed>0.9712878049270464</speed>
  <fix>3d</fix>
</trkpt>
<trkpt lat="40.0716319" lon="-105.2298152">
  <ele>1583.05</ele>
  <time>2026-08-28T17:54:29Z</time>
  <course>4.73</course>
  <speed>0.9712878049270464</speed>
  <fix>3d</fix>
</trkpt>
<trkpt lat="40.071631" lon="-105.2298151">
  <ele>1583.0</ele>
  <time>2026-08-28T17:54:29Z</time>
  <course>3.5</course>
  <speed>1.15</speed>
  <fix>3d</fix>
</trkpt>
<trkpt lat="40.0716321" lon="-105.2298152">
  <ele>1583.05</ele>
  <time>2026-08-28T17:54:29Z</time>
  <course>4.81</course>
  <speed>0.9513148795220223</speed>
  <fix>3d</fix>
</trkpt>
<trkpt lat="40.0716324" lon="-105.2298151">
  <ele>1583.05</ele>
  <time>2026-08-28T17:54:29Z</time>
  <course>4.97</course>
  <speed>0.9113725912051558</speed>
  <fix>3d</fix>
</trkpt>
<trkpt lat="40.0716326" lon="-105.2298151">
  <ele>1583.05</ele>
  <time>2026-08-28T17:54:29Z</time>
  <course>5.05</course>
  <speed>0.9013878188659973</speed>
  <fix>3d</fix>
</trkpt>
<trkpt lat="40.0716328" lon="-105.2298151">
  <ele>1583.05</ele>
  <time>2026-08-28T17:54:29Z</time>
  <course>5.12</course>
  <speed>0.8814193099768123</speed>
  <fix>3d</fix>
</trkpt>
<trkpt lat="40.0716328" lon="-105.2298151">
  <ele>1583.05</ele>
  <time>2026-08-28T17:54:29Z</time>
  <course>5.12</course>
  <speed>0.8814193099768123</speed>
  <fix>3d</fix>
</trkpt>
<trkpt lat="40.071631" lon="-105.2298151">
  <ele>1583.0</ele>
  <time>2026-08-28T17:54:29Z</time>
  <course>3.5</course>
  <speed>1.15</speed>
  <fix>3d</fix>
</trkpt>
<trkpt lat="40.0716334" lon="-105.229815">
  <ele>1583.05</ele>
  <time>2026-08-28T17:54:29Z</time>
  <course>5.39</course>
  <speed>0.8015609770940699</speed>
  <fix>3d</fix>
</trkpt>
<trkpt lat="40.0716336" lon="-105.229815">
  <ele>1583.05</ele>
  <time>2026-08-28T17:54:29Z</time>
  <course>5.45</course>
  <speed>0.791580697086532</speed>
  <fix>3d</fix>
</trkpt>
<trkpt lat="40.0716336" lon="-105.229815">
  <ele>1583.05</ele>
  <time>2026-08-28T17:54:29Z</time>
  <course>5.45</course>
  <speed>0.791580697086532</speed>
  <fix>3d</fix>
</trkpt>
<trkpt lat="40.0716329" lon="-105.2298149">
  <ele>1583.0</ele>
  <time>2026-08-28T17:54:29Z</time>
  <course>4.23</course>
  <speed>0.97</speed>
  <fix>3d</fix>
</trkpt>
<trkpt lat="40.0716341" lon="-105.2298149">
  <ele>1583.06</ele>
  <time>2026-08-28T17:54:29Z</time>
  <course>5.67</course>
  <speed>0.7117583859709699</speed>
  <fix>3d</fix>
</trkpt>
<trkpt lat="40.0716343" lon="-105.2298149">
  <ele>1583.06</ele>
  <time>2026-08-28T17:54:29Z</time>
  <course>5.72</course>
  <speed>0.70178344238091</speed>
  <fix>3d</fix>
</trkpt>
<trkpt lat="40.0716343" lon="-105.2298149">
  <ele>1583.06</ele>
  <time>2026-08-28T17:54:29Z</time>
  <course>5.72</course>
  <speed>0.70178344238091</speed>
  <fix>3d</fix>
</trkpt>
<trkpt lat="40.0716329" lon="-105.2298149">
  <ele>1583.0</ele>
  <time>2026-08-28T17:54:29Z</time>
  <course>4.23</course>
  <speed>0.97</speed>
  <fix>3d</fix>
</trkpt>
<trkpt lat="40.0716348" lon="-105.2298148">
  <ele>1583.06</ele>
  <time>2026-08-28T17:54:29Z</time>
  <course>5.92</course>
  <speed>0.6319810123729984</speed>
  <fix>3d</fix>
</trkpt>
<trkpt lat="40.0716349" lon="-105.2298148">
  <ele>1583.06</ele>
  <time>2026-08-28T17:54:29Z</time>
  <course>5.96</course>
  <speed>0.6120457499239742</speed>
  <fix>3d</fix>
</trkpt>
<trkpt lat="40.0716349" lon="-105.2298148">
  <ele>1583.06</ele>
  <time>2026-08-28T17:54:29Z</time>
  <course>5.96</course>
  <speed>0.6120457499239742</speed>
  <fix>3d</fix>
</trkpt>
<trkpt lat="40.0716345" lon="-105.2298147">
  <ele>1583.0</ele>
  <time>2026-08-28T17:54:29Z</time>
  <course>4.85</course>
  <speed>0.79</speed>
  <fix>3d</fix>
</trkpt>
<trkpt lat="40.071635" lon="-105.2298148">
  <ele>1583.06</ele>
  <time>2026-08-28T17:54:29Z</time>
  <course>6.0</course>
  <speed>0.5921148537234985</speed>
  <fix>3d</fix>
</trkpt>
<trkpt lat="40.0716351" lon="-105.2298148">
  <ele>1583.06</ele>
  <time>2026-08-28T17:54:29Z</time>
  <course>6.04</course>
  <speed>0.5813776741499453</speed>
  <fix>3d</fix>
</trkpt>
<trkpt lat="40.0716353" lon="-105.2298148">
  <ele>1583.06</ele>
  <time>2026-08-28T17:54:29Z</time>
  <course>6.08</course>
  <speed>0.561426753904728</speed>
  <fix>3d</fix>
</trkpt>
<trkpt lat="40.0716354" lon="-105.2298148">
  <ele>1583.05</ele>
  <time>2026-08-28T17:54:29Z</time>
  <course>6.11</course>
  <speed>0.5414794548272354</speed>
  <fix>3d</fix>
</trkpt>
<trkpt lat="40.0716355" lon="-105.2298147">
  <ele>1583.05</ele>
  <time>2026-08-28T17:54:29Z</time>
  <course>6.15</course>
  <speed>0.5315072906367324</speed>
  <fix>3d</fix>
</trkpt>
<trkpt lat="40.0716355" lon="-105.2298147">
  <ele>1583.05</ele>
  <time>2026-08-28T17:54:29Z</time>
  <course>6.15</course>
  <speed>0.5315072906367324</speed>
  <fix>3d</fix>
</trkpt>
<trkpt lat="40.0716345" lon="-105.2298147">
  <ele>1583.0</ele>
  <time>2026-08-28T17:54:29Z</time>
  <course>4.85</course>
  <speed>0.79</speed>
  <fix>3d</fix>
</trkpt>
<trkpt lat="40.0716359" lon="-105.2298147">
  <ele>1583.05</ele>
  <time>2026-08-28T17:54:29Z</time>
  <course>6.28</course>
  <speed>0.4617358552246078</speed>
  <fix>3d</fix>
</trkpt>
<trkpt lat="40.071636" lon="-105.2298147">
  <ele>1583.05</ele>
  <time>2026-08-28T17:54:29Z</time>
  <course>6.31</course>
  <speed>0.45177427992306074</speed>
  <fix>3d</fix>
</trkpt>
<trkpt lat="40.0716357" lon="-105.2298146">
  <ele>1583.0</ele>
  <time>2026-08-28T17:54:29Z</time>
  <course>5.28</course>
  <speed>0.62</speed>
  <fix>3d</fix>
</trkpt>
<trkpt lat="40.0716364" lon="-105.2298146">
  <ele>1583.05</ele>
  <time>2026-08-28T17:54:29Z</time>
  <course>6.39</course>
  <speed>0.38118237105091834</speed>
  <fix>3d</fix>
</trkpt>
<trkpt lat="40.0716357" lon="-105.2298146">
  <ele>1583.0</ele>
  <time>2026-08-28T17:54:29Z</time>
  <course>5.28</course>
  <speed>0.62</speed>
  <fix>3d</fix>
</trkpt>
<trkpt lat="40.0716367" lon="-105.2298146">
  <ele>1583.06</ele>
  <time>2026-08-28T17:54:29Z</time>
  <course>6.45</course>
  <speed>0.31144823004794875</speed>
  <fix>3d</fix>
</trkpt>
<trkpt lat="40.0716367" lon="-105.2298144">
  <ele>1583.0</ele>
  <time>2026-08-28T17:54:29Z</time>
  <course>5.53</course>
  <speed>0.46</speed>
  <fix>3d</fix>
</trkpt>
<trkpt lat="40.071637" lon="-105.2298145">
  <ele>1583.05</ele>
  <time>2026-08-28T17:54:29Z</time>
  <course>6.51</course>
  <speed>0.2308679276123039</speed>
  <fix>3d</fix>
</trkpt>
<trkpt lat="40.0716367" lon="-105.2298144">
  <ele>1583.0</ele>
  <time>2026-08-28T17:54:29Z</time>
  <course>5.53</course>
  <speed>0.46</speed>
  <fix>3d</fix>
</trkpt>
<trkpt lat="40.0716373" lon="-105.2298145">
  <ele>1583.05</ele>
  <time>2026-08-28T17:54:29Z</time>
  <course>6.56</course>
  <speed>0.15033296378372907</speed>
  <fix>3d</fix>
</trkpt>
<trkpt lat="40.0716367" lon="-105.2298144">
  <ele>1583.0</ele>
  <time>2026-08-28T17:54:29Z</time>
  <course>5.53</course>
  <speed>0.46</speed>
  <fix>3d</fix>
</trkpt>
<trkpt lat="40.0716374" lon="-105.2298144">
  <ele>1583.05</ele>
  <time>2026-08-28T17:54:29Z</time>
  <course>6.58</course>
  <speed>0.07071067811865475</speed>
  <fix>3d</fix>
</trkpt>
<trkpt lat="40.0716374" lon="-105.2298144">
  <ele>1583.0</ele>
  <time>2026-08-28T17:54:29Z</time>
  <course>5.65</course>
  <speed>0.31</speed>
  <fix>3d</fix>
</trkpt>
<trkpt lat="40.0716375" lon="-105.2298144">
  <ele>1583.05</ele>
  <time>2026-08-28T17:54:29Z</time>
  <course>6.6</course>
  <speed>0.0</speed>
  <fix>3d</fix>
</trkpt>
<trkpt lat="40.0716374" lon="-105.2298144">
  <ele>1583.0</ele>
  <time>2026-08-28T17:54:29Z</time>
  <course>5.65</course>
  <speed>0.31</speed>
  <fix>3d</fix>
</trkpt>
<trkpt lat="40.0716375" lon="-105.2298144">
  <ele>1583.05</ele>
  <time>2026-08-28T17:54:29Z</time>
  <course>6.6</course>
  <speed>0.05</speed>
  <fix>3d</fix>
</trkpt>
<trkpt lat="40.0716378" lon="-105.2298143">
  <ele>1583.0</ele>
  <time>2026-08-28T17:54:29Z</time>
  <course>5.72</course>
  <speed>0.16</speed>
  <fix>3d</fix>
</trkpt>
<trkpt lat="40.0716375" lon="-105.2298144">
  <ele>1583.05</ele>
  <time>2026-08-28T17:54:29Z</time>
  <course>6.61</course>
  <speed>0.1</speed>
  <fix>3d</fix>
</trkpt>
<trkpt lat="40.0716378" lon="-105.2298143">
  <ele>1583.0</ele>
  <time>2026-08-28T17:54:29Z</time>
  <course>5.72</course>
  <speed>0.16</speed>
  <fix>3d</fix>
</trkpt>
<trkpt lat="40.0716374" lon="-105.2298144">
  <ele>1583.05</ele>
  <time>2026-08-28T17:54:29Z</time>
  <course>6.61</course>
  <speed>0.13</speed>
  <fix>3d</fix>
</trkpt>
<trkpt lat="40.071638" lon="-105.2298143">
  <ele>1583.0</ele>
  <time>2026-08-28T17:54:29Z</time>
  <course>5.75</course>
  <speed>0.03</speed>
  <fix>3d</fix>
</trkpt>
<trkpt lat="40.0716374" lon="-105.2298144">
  <ele>1583.04</ele>
  <time>2026-08-28T17:54:29Z</time>
  <course>6.61</course>
  <speed>0.16</speed>
  <fix>3d</fix>
</trkpt>
<trkpt lat="40.071638" lon="-105.2298143">
  <ele>1583.0</ele>
  <time>2026-08-28T17:54:29Z</time>
  <course>5.75</course>
  <speed>0.03</speed>
  <fix>3d</fix>
</trkpt>
<trkpt lat="40.0716373" lon="-105.2298144">
  <ele>1583.05</ele>
  <time>2026-08-28T17:54:29Z</time>
  <course>6.6</course>
  <speed>0.17</speed>
  <fix>3d</fix>
</trkpt>
<trkpt lat="40.071638" lon="-105.2298143">
  <ele>1583.0</ele>
  <time>2026-08-28T17:54:29Z</time>
  <course>185.72</course>
  <speed>0.05</speed>
  <fix>3d</fix>
</trkpt>
<trkpt lat="40.0716372" lon="-105.2298144">
  <ele>1583.05</ele>
  <time>2026-08-28T17:54:30Z</time>
  <course>6.58</course>
  <speed>0.17</speed>
  <fix>3d</fix>
</trkpt>
<trkpt lat="40.0716379" lon="-105.2298143">
  <ele>1583.0</ele>
  <time>2026-08-28T17:54:30Z</time>
  <course>185.7</course>
  <speed>0.09</speed>
  <fix>3d</fix>
</trkpt>
<trkpt lat="40.0716372" lon="-105.2298144">
  <ele>1583.05</ele>
  <time>2026-08-28T17:54:30Z</time>
  <course>6.56</course>
  <speed>0.16</speed>
  <fix>3d</fix>
</trkpt>
<trkpt lat="40.0716379" lon="-105.2298143">
  <ele>1583.0</ele>
  <time>2026-08-28T17:54:30Z</time>
  <course>185.7</course>
  <speed>0.09</speed>
  <fix>3d</fix>
</trkpt>
<trkpt lat="40.0716371" lon="-105.2298144">
  <ele>1583.05</ele>
  <time>2026-08-28T17:54:30Z</time>
  <course>6.55</course>
  <speed>0.13</speed>
  <fix>3d</fix>
</trkpt>
<trkpt lat="40.0716378" lon="-105.2298143">
  <ele>1583.0</ele>
  <time>2026-08-28T17:54:30Z</time>
  <course>185.66</course>
  <speed>0.08</speed>
  <fix>3d</fix>
</trkpt>
<trkpt lat="40.0716371" lon="-105.2298144">
  <ele>1583.05</ele>
  <time>2026-08-28T17:54:30Z</time>
  <course>6.54</course>
  <speed>0.08062257748298549</speed>
  <fix>3d</fix>
</trkpt>
<trkpt lat="40.0716378" lon="-105.2298143">
  <ele>1583.0</ele>
  <time>2026-08-28T17:54:30Z</time>
  <course>185.66</course>
  <speed>0.08</speed>
  <fix>3d</fix>
</trkpt>
<trkpt lat="40.0716371" lon="-105.2298144">
  <ele>1583.05</ele>
  <time>2026-08-28T17:54:30Z</time>
  <course>6.55</course>
  <speed>0.0316227766016838</speed>
  <fix>3d</fix>
</trkpt>
<trkpt lat="40.0716376" lon="-105.2298143">
  <ele>1583.0</ele>
  <time>2026-08-28T17:54:30Z</time>
  <course>185.62</course>
  <speed>0.01</speed>
  <fix>3d</fix>
</trkpt>
<trkpt lat="40.0716372" lon="-105.2298143">
  <ele>1583.05</ele>
  <time>2026-08-28T17:54:30Z</time>
  <course>6.55</course>
  <speed>0.03605551275463989</speed>
  <fix>3d</fix>
</trkpt>
<trkpt lat="40.0716376" lon="-105.2298143">
  <ele>1583.0</ele>
  <time>2026-08-28T17:54:30Z</time>
  <course>185.62</course>
  <speed>0.01</speed>
  <fix>3d</fix>
</trkpt>
<trkpt lat="40.0716373" lon="-105.2298143">
  <ele>1583.05</ele>
  <time>2026-08-28T17:54:30Z</time>
  <course>6.51</course>
  <speed>0.1044030650891055</speed>
  <fix>3d</fix>
</trkpt>
<trkpt lat="40.0716377" lon="-105.2298143">
  <ele>1583.0</ele>
  <time>2026-08-28T17:54:30Z</time>
  <course>5.58</course>
  <speed>0.09</speed>
  <fix>3d</fix>
</trkpt>
<trkpt lat="40.0716374" lon="-105.2298142">
  <ele>1583.05</ele>
  <time>2026-08-28T17:54:30Z</time>
  <course>6.44</course>
  <speed>0.17464249196572978</speed>
  <fix>3d</fix>
</trkpt>
<trkpt lat="40.0716377" lon="-105.2298143">
  <ele>1583.0</ele>
  <time>2026-08-28T17:54:30Z</time>
  <course>5.58</course>
  <speed>0.09</speed>
  <fix>3d</fix>
</trkpt>
<trkpt lat="40.0716376" lon="-105.2298142">
  <ele>1583.04</ele>
  <time>2026-08-28T17:54:30Z</time>
  <course>6.34</course>
  <speed>0.2353720459187964</speed>
  <fix>3d</fix>
</trkpt>
<trkpt lat="40.0716379" lon="-105.2298143">
  <ele>1583.0</ele>
  <time>2026-08-28T17:54:30Z</time>
  <course>5.46</course>
  <speed>0.22</speed>
  <fix>3d</fix>
</trkpt>
<trkpt lat="40.071638" lon="-105.2298141">
  <ele>1583.04</ele>
  <time>2026-08-28T17:54:30Z</time>
  <course>6.22</course>
  <speed>0.29614185789921693</speed>
  <fix>3d</fix>
</trkpt>
<trkpt lat="40.0716379" lon="-105.2298143">
  <ele>1583.0</ele>
  <time>2026-08-28T17:54:30Z</time>
  <course>5.46</course>
  <speed>0.22</speed>
  <fix>3d</fix>
</trkpt>
<trkpt lat="40.0716383" lon="-105.2298141">
  <ele>1583.04</ele>
  <time>2026-08-28T17:54:30Z</time>
  <course>6.08</course>
  <speed>0.35510561809129404</speed>
  <fix>3d</fix>
</trkpt>
<trkpt lat="40.0716384" lon="-105.2298142">
  <ele>1583.0</ele>
  <time>2026-08-28T17:54:30Z</time>
  <course>5.24</course>
  <speed>0.34</speed>
  <fix>3d</fix>
</trkpt>
<trkpt lat="40.0716387" lon="-105.229814">
  <ele>1583.04</ele>
  <time>2026-08-28T17:54:30Z</time>
  <course>5.94</course>
  <speed>0.40607881008493907</speed>
  <fix>3d</fix>
</trkpt>
<trkpt lat="40.0716384" lon="-105.2298142">
  <ele>1583.0</ele>
  <time>2026-08-28T17:54:30Z</time>
  <course>5.24</course>
  <speed>0.34</speed>
  <fix>3d</fix>
</trkpt>
<trkpt lat="40.0716392" lon="-105.2298139">
  <ele>1583.03</ele>
  <time>2026-08-28T17:54:30Z</time>
  <course>5.79</course>
  <speed>0.44553338819890925</speed>
  <fix>3d</fix>
</trkpt>
<trkpt lat="40.0716391" lon="-105.2298141">
  <ele>1583.0</ele>
  <time>2026-08-28T17:54:30Z</time>
  <course>4.96</course>
  <speed>0.44</speed>
  <fix>3d</fix>
</trkpt>
<trkpt lat="40.0716396" lon="-105.2298139">
  <ele>1583.03</ele>
  <time>2026-08-28T17:54:30Z</time>
  <course>5.64</course>
  <speed>0.48662100242385753</speed>
  <fix>3d</fix>
</trkpt>
<trkpt lat="40.0716391" lon="-105.2298141">
  <ele>1583.0</ele>
  <time>2026-08-28T17:54:30Z</time>
  <course>4.96</course>
  <speed>0.44</speed>
  <fix>3d</fix>
</trkpt>
<trkpt lat="40.0716401" lon="-105.2298138">
  <ele>1583.03</ele>
  <time>2026-08-28T17:54:30Z</time>
  <course>5.5</course>
  <speed>0.5162363799656123</speed>
  <fix>3d</fix>
</trkpt>
<trkpt lat="40.0716391" lon="-105.2298141">
  <ele>1583.0</ele>
  <time>2026-08-28T17:54:30Z</time>
  <course>4.96</course>
  <speed>0.44</speed>
  <fix>3d</fix>
</trkpt>
<trkpt lat="40.0716407" lon="-105.2298137">
  <ele>1583.03</ele>
  <time>2026-08-28T17:54:30Z</time>
  <course>5.36</course>
  <speed>0.5458937625582473</speed>
  <fix>3d</fix>
</trkpt>
<trkpt lat="40.07164" lon="-105.229814">
  <ele>1583.0</ele>
  <time>2026-08-28T17:54:30Z</time>
  <course>4.66</course>
  <speed>0.52</speed>
  <fix>3d</fix>
</trkpt>
<trkpt lat="40.0716412" lon="-105.2298136">
  <ele>1583.03</ele>
  <time>2026-08-28T17:54:30Z</time>
  <course>5.23</course>
  <speed>0.5755866572463264</speed>
  <fix>3d</fix>
</trkpt>
<trkpt lat="40.07164" lon="-105.229814">
  <ele>1583.0</ele>
  <time>2026-08-28T17:54:30Z</time>
  <course>4.66</course>
  <speed>0.52</speed>
  <fix>3d</fix>
</trkpt>
<trkpt lat="40.0716418" lon="-105.2298136">
  <ele>1583.02</ele>
  <time>2026-08-28T17:54:30Z</time>
  <course>5.12</course>
  <speed>0.5953990258641678</speed>
  <fix>3d</fix>
</trkpt>
<trkpt lat="40.071641" lon="-105.2298139">
  <ele>1583.0</ele>
  <time>2026-08-28T17:54:30Z</time>
  <course>4.38</course>
  <speed>0.58</speed>
  <fix>3d</fix>
</trkpt>
<trkpt lat="40.0716424" lon="-105.2298135">
  <ele>1583.02</ele>
  <time>2026-08-28T17:54:30Z</time>
  <course>5.02</course>
  <speed>0.6053098380168622</speed>
  <fix>3d</fix>
</trkpt>
<trkpt lat="40.071641" lon="-105.2298139">
  <ele>1583.0</ele>
  <time>2026-08-28T17:54:30Z</time>
  <course>4.38</course>
  <speed>0.58</speed>
  <fix>3d</fix>
</trkpt>
<trkpt lat="40.071643" lon="-105.2298134">
  <ele>1583.02</ele>
  <time>2026-08-28T17:54:30Z</time>
  <course>4.93</course>
  <speed>0.6152235366108809</speed>
  <fix>3d</fix>
</trkpt>
<trkpt lat="40.0716421" lon="-105.2298138">
  <ele>1583.0</ele>
  <time>2026-08-28T17:54:30Z</time>
  <course>4.14</course>
  <speed>0.61</speed>
  <fix>3d</fix>
</trkpt>
<trkpt lat="40.0716436" lon="-105.2298134">
  <ele>1583.01</ele>
  <time>2026-08-28T17:54:30Z</time>
  <course>4.85</course>
  <speed>0.6251399843235114</speed>
  <fix>3d</fix>
</trkpt>
<trkpt lat="40.0716433" lon="-105.2298137">
  <ele>1583.0</ele>
  <time>2026-08-28T17:54:30Z</time>
  <course>3.95</course>
  <speed>0.64</speed>
  <fix>3d</fix>
</trkpt>
<trkpt lat="40.0716442" lon="-105.2298133">
  <ele>1583.01</ele>
  <time>2026-08-28T17:54:30Z</time>
  <course>4.78</course>
  <speed>0.6251399843235114</speed>
  <fix>3d</fix>
</trkpt>
<trkpt lat="40.0716433" lon="-105.2298137">
  <ele>1583.0</ele>
  <time>2026-08-28T17:54:30Z</time>
  <course>3.95</course>
  <speed>0.64</speed>
  <fix>3d</fix>
</trkpt>
<trkpt lat="40.0716448" lon="-105.2298132">
  <ele>1583.01</ele>
  <time>2026-08-28T17:54:30Z</time>
  <course>4.73</course>
  <speed>0.6251399843235114</speed>
  <fix>3d</fix>
</trkpt>
<trkpt lat="40.0716444" lon="-105.2298136">
  <ele>1583.0</ele>
  <time>2026-08-28T17:54:30Z</time>
  <course>3.81</course>
  <speed>0.64</speed>
  <fix>3d</fix>
</trkpt>
<trkpt lat="40.0716454" lon="-105.2298132">
  <ele>1583.0</ele>
  <time>2026-08-28T17:54:30Z</time>
  <course>4.68</course>
  <speed>0.6251399843235114</speed>
  <fix>3d</fix>
</trkpt>
<trkpt lat="40.0716444" lon="-105.2298136">
  <ele>1583.0</ele>
  <time>2026-08-28T17:54:30Z</time>
  <course>3.81</course>
  <speed>0.64</speed>
  <fix>3d</fix>
</trkpt>
<trkpt lat="40.071646" lon="-105.2298131">
  <ele>1583.0</ele>
  <time>2026-08-28T17:54:30Z</time>
  <course>4.65</course>
  <speed>0.6251399843235114</speed>
  <fix>3d</fix>
</trkpt>
<trkpt lat="40.0716455" lon="-105.2298135">
  <ele>1583.0</ele>
  <time>2026-08-28T17:54:30Z</time>
  <course>3.72</course>
  <speed>0.64</speed>
  <fix>3d</fix>
</trkpt>
<trkpt lat="40.0716466" lon="-105.2298131">
  <ele>1583.0</ele>
  <time>2026-08-28T17:54:30Z</time>
  <course>4.62</course>
  <speed>0.6152235366108809</speed>
  <fix>3d</fix>
</trkpt>
<trkpt lat="40.0716455" lon="-105.2298135">
  <ele>1583.0</ele>
  <time>2026-08-28T17:54:30Z</time>
  <course>3.72</course>
  <speed>0.64</speed>
  <fix>3d</fix>
</trkpt>
<trkpt lat="40.0716471" lon="-105.229813">
  <ele>1583.0</ele>
  <time>2026-08-28T17:54:30Z</time>
  <course>4.6</course>
  <speed>0.6040695324215583</speed>
  <fix>3d</fix>
</trkpt>
<trkpt lat="40.0716467" lon="-105.2298134">
  <ele>1583.0</ele>
  <time>2026-08-28T17:54:30Z</time>
  <course>3.66</course>
  <speed>0.62</speed>
  <fix>3d</fix>
</trkpt>
<trkpt lat="40.0716477" lon="-105.229813">
  <ele>1583.0</ele>
  <time>2026-08-28T17:54:30Z</time>
  <course>4.58</course>
  <speed>0.594138031100518</speed>
  <fix>3d</fix>
</trkpt>
<trkpt lat="40.0716467" lon="-105.2298134">
  <ele>1583.0</ele>
  <time>2026-08-28T17:54:30Z</time>
  <course>3.66</course>
  <speed>0.62</speed>
  <fix>3d</fix>
</trkpt>
<trkpt lat="40.0716483" lon="-105.2298129">
  <ele>1583.0</ele>
  <time>2026-08-28T17:54:30Z</time>
  <course>4.57</course>
  <speed>0.5842088667591412</speed>
  <fix>3d</fix>
</trkpt>
<trkpt lat="40.0716478" lon="-105.2298133">
  <ele>1583.0</ele>
  <time>2026-08-28T17:54:30Z</time>
  <course>3.62</course>
  <speed>0.61</speed>
  <fix>3d</fix>
</trkpt>
<trkpt lat="40.0716488" lon="-105.2298129">
  <ele>1583.0</ele>
  <time>2026-08-28T17:54:30Z</time>
  <course>4.56</course>
  <speed>0.5742821606144493</speed>
  <fix>3d</fix>
</trkpt>
<trkpt lat="40.0716478" lon="-105.2298133">
  <ele>1583.0</ele>
  <time>2026-08-28T17:54:30Z</time>
  <course>3.62</course>
  <speed>0.61</speed>
  <fix>3d</fix>
</trkpt>
<trkpt lat="40.0716494" lon="-105.2298128">
  <ele>1583.0</ele>
  <time>2026-08-28T17:54:30Z</time>
  <course>4.56</course>
  <speed>0.5643580423808985</speed>
  <fix>3d</fix>
</trkpt>
<trkpt lat="40.0716489" lon="-105.2298132">
  <ele>1583.0</ele>
  <time>2026-08-28T17:54:30Z</time>
  <course>3.61</course>
  <speed>0.58</speed>
  <fix>3d</fix>
</trkpt>
<trkpt lat="40.0716499" lon="-105.2298128">
  <ele>1583.01</ele>
  <time>2026-08-28T17:54:30Z</time>
  <course>4.55</course>
  <speed>0.5544366510251645</speed>
  <fix>3d</fix>
</trkpt>
<trkpt lat="40.0716489" lon="-105.2298132">
  <ele>1583.0</ele>
  <time>2026-08-28T17:54:30Z</time>
  <course>3.61</course>
  <speed>0.58</speed>
  <fix>3d</fix>
</trkpt>
<trkpt lat="40.0716504" lon="-105.2298128">
  <ele>1583.01</ele>
  <time>2026-08-28T17:54:30Z</time>
  <course>4.55</course>
  <speed>0.5445181356024793</speed>
  <fix>3d</fix>
</trkpt>
<trkpt lat="40.0716499" lon="-105.2298132">
  <ele>1583.0</ele>
  <time>2026-08-28T17:54:30Z</time>
  <course>3.6</course>
  <speed>0.56</speed>
  <fix>3d</fix>
</trkpt>
<trkpt lat="40.0716509" lon="-105.2298127">
  <ele>1583.01</ele>
  <time>2026-08-28T17:54:30Z</time>
  <course>4.55</course>
  <speed>0.5433231082882449</speed>
  <fix>3d</fix>
</trkpt>
<trkpt lat="40.0716499" lon="-105.2298132">
  <ele>1583.0</ele>
  <time>2026-08-28T17:54:30Z</time>
  <course>3.6</course>
  <speed>0.56</speed>
  <fix>3d</fix>
</trkpt>
<trkpt lat="40.0716514" lon="-105.2298127">
  <ele>1583.0</ele>
  <time>2026-08-28T17:54:30Z</time>
  <course>4.55</course>
  <speed>0.5333854141237835</speed>
  <fix>3d</fix>
</trkpt>
<trkpt lat="40.0716499" lon="-105.2298132">
  <ele>1583.0</ele>
  <time>2026-08-28T17:54:30Z</time>
  <course>3.6</course>
  <speed>0.56</speed>
  <fix>3d</fix>
</trkpt>
<trkpt lat="40.0716519" lon="-105.2298127">
  <ele>1583.0</ele>
  <time>2026-08-28T17:54:30Z</time>
  <course>4.56</course>
  <speed>0.523450093132096</speed>
  <fix>3d</fix>
</trkpt>
<trkpt lat="40.0716509" lon="-105.2298131">
  <ele>1583.0</ele>
  <time>2026-08-28T17:54:30Z</time>
  <course>3.6</course>
  <speed>0.54</speed>
  <fix>3d</fix>
</trkpt>
<trkpt lat="40.0716524" lon="-105.2298126">
  <ele>1583.0</ele>
  <time>2026-08-28T17:54:30Z</time>
  <course>4.56</course>
  <speed>0.5135172830587107</speed>
  <fix>3d</fix>
</trkpt>
<trkpt lat="40.0716509" lon="-105.2298131">
  <ele>1583.0</ele>
  <time>2026-08-28T17:54:30Z</time>
  <course>3.6</course>
  <speed>0.54</speed>
  <fix>3d</fix>
</trkpt>
<trkpt lat="40.0716528" lon="-105.2298126">
  <ele>1583.0</ele>
  <time>2026-08-28T17:54:30Z</time>
  <course>4.57</course>
  <speed>0.5035871324805669</speed>
  <fix>3d</fix>
</trkpt>
<trkpt lat="40.0716519" lon="-105.229813">
  <ele>1583.0</ele>
  <time>2026-08-28T17:54:30Z</time>
  <course>3.61</course>
  <speed>0.52</speed>
  <fix>3d</fix>
</trkpt>
<trkpt lat="40.0716533" lon="-105.2298126">
  <ele>1583.0</ele>
  <time>2026-08-28T17:54:30Z</time>
  <course>4.58</course>
  <speed>0.4936598018878993</speed>
  <fix>3d</fix>
</trkpt>
<trkpt lat="40.0716519" lon="-105.229813">
  <ele>1583.0</ele>
  <time>2026-08-28T17:54:30Z</time>
  <course>3.61</course>
  <speed>0.52</speed>
  <fix>3d</fix>
</trkpt>
<trkpt lat="40.0716537" lon="-105.2298125">
  <ele>1583.0</ele>
  <time>2026-08-28T17:54:30Z</time>
  <course>4.59</course>
  <speed>0.4936598018878993</speed>
  <fix>3d</fix>
</trkpt>
<trkpt lat="40.0716528" lon="-105.2298129">
  <ele>1583.0</ele>
  <time>2026-08-28T17:54:30Z</time>
  <course>3.63</course>
  <speed>0.51</speed>
  <fix>3d</fix>
</trkpt>
<trkpt lat="40.0716542" lon="-105.2298125">
  <ele>1583.0</ele>
  <time>2026-08-28T17:54:30Z</time>
  <course>4.61</course>
  <speed>0.48373546489791297</speed>
  <fix>3d</fix>
</trkpt>
<trkpt lat="40.0716528" lon="-105.2298129">
  <ele>1583.0</ele>
  <time>2026-08-28T17:54:30Z</time>
  <course>3.63</course>
  <speed>0.51</speed>
  <fix>3d</fix>
</trkpt>
<trkpt lat="40.0716546" lon="-105.2298125">
  <ele>1583.0</ele>
  <time>2026-08-28T17:54:30Z</time>
  <course>4.62</course>
  <speed>0.4825971404805462</speed>
  <fix>3d</fix>
</trkpt>
<trkpt lat="40.0716537" lon="-105.2298129">
  <ele>1583.0</ele>
  <time>2026-08-28T17:54:30Z</time>
  <course>3.65</course>
  <speed>0.5</speed>
  <fix>3d</fix>
</trkpt>
<trkpt lat="40.0716551" lon="-105.2298124">
  <ele>1583.01</ele>
  <time>2026-08-28T17:54:30Z</time>
  <course>4.63</course>
  <speed>0.4825971404805462</speed>
  <fix>3d</fix>
</trkpt>
<trkpt lat="40.0716546" lon="-105.2298128">
  <ele>1583.0</ele>
  <time>2026-08-28T17:54:30Z</time>
  <course>3.68</course>
  <speed>0.49</speed>
  <fix>3d</fix>
</trkpt>
<trkpt lat="40.0716555" lon="-105.2298124">
  <ele>1583.01</ele>
  <time>2026-08-28T17:54:30Z</time>
  <course>4.65</course>
  <speed>0.472652091923859</speed>
  <fix>3d</fix>
</trkpt>
<trkpt lat="40.0716546" lon="-105.2298128">
  <ele>1583.0</ele>
  <time>2026-08-28T17:54:30Z</time>
  <course>3.68</course>
  <speed>0.49</speed>
  <fix>3d</fix>
</trkpt>
<trkpt lat="40.0716559" lon="-105.2298124">
  <ele>1583.01</ele>
  <time>2026-08-28T17:54:30Z</time>
  <course>4.67</course>
  <speed>0.472652091923859</speed>
  <fix>3d</fix>
</trkpt>
<trkpt lat="40.0716555" lon="-105.2298127">
  <ele>1583.0</ele>
  <time>2026-08-28T17:54:30Z</time>
  <course>3.71</course>
  <speed>0.48</speed>
  <fix>3d</fix>
</trkpt>
<trkpt lat="40.0716564" lon="-105.2298124">
  <ele>1583.01</ele>
  <time>2026-08-28T17:54:30Z</time>
  <course>4.68</course>
  <speed>0.472652091923859</speed>
  <fix>3d</fix>
</trkpt>
<trkpt lat="40.0716555" lon="-105.2298127">
  <ele>1583.0</ele>
  <time>2026-08-28T17:54:30Z</time>
  <course>3.71</course>
  <speed>0.48</speed>
  <fix>3d</fix>
</trkpt>
<trkpt lat="40.0716568" lon="-105.2298123">
  <ele>1583.01</ele>
  <time>2026-08-28T17:54:30Z</time>
  <course>4.7</course>
  <speed>0.472652091923859</speed>
  <fix>3d</fix>
</trkpt>
<trkpt lat="40.0716563" lon="-105.2298126">
  <ele>1583.0</ele>
  <time>2026-08-28T17:54:30Z</time>
  <course>3.75</course>
  <speed>0.48</speed>
  <fix>3d</fix>
</trkpt>
<trkpt lat="40.0716572" lon="-105.2298123">
  <ele>1583.01</ele>
  <time>2026-08-28T17:54:30Z</time>
  <course>4.72</course>
  <speed>0.472652091923859</speed>
  <fix>3d</fix>
</trkpt>
<trkpt lat="40.0716563" lon="-105.2298126">
  <ele>1583.0</ele>
  <time>2026-08-28T17:54:30Z</time>
  <course>3.75</course>
  <speed>0.48</speed>
  <fix>3d</fix>
</trkpt>
<trkpt lat="40.0716577" lon="-105.2298123">
  <ele>1583.01</ele>
  <time>2026-08-28T17:54:30Z</time>
  <course>4.74</course>
  <speed>0.472652091923859</speed>
  <fix>3d</fix>
</trkpt>
<trkpt lat="40.0716572" lon="-105.2298125">
  <ele>1583.0</ele>
  <time>2026-08-28T17:54:30Z</time>
  <course>3.78</course>
  <speed>0.48</speed>
  <fix>3d</fix>
</trkpt>
<trkpt lat="40.0716581" lon="-105.2298122">
  <ele>1583.01</ele>
  <time>2026-08-28T17:54:30Z</time>
  <course>4.76</course>
  <speed>0.472652091923859</speed>
  <fix>3d</fix>
</trkpt>
<trkpt lat="40.0716572" lon="-105.2298125">
  <ele>1583.0</ele>
  <time>2026-08-28T17:54:30Z</time>
  <course>3.78</course>
  <speed>0.48</speed>
  <fix>3d</fix>
</trkpt>
<trkpt lat="40.0716585" lon="-105.2298122">
  <ele>1583.01</ele>
  <time>2026-08-28T17:54:30Z</time>
  <course>4.78</course>
  <speed>0.472652091923859</speed>
  <fix>3d</fix>
</trkpt>
<trkpt lat="40.071658" lon="-105.2298125">
  <ele>1583.0</ele>
  <time>2026-08-28T17:54:30Z</time>
  <course>3.82</course>
  <speed>0.48</speed>
  <fix>3d</fix>
</trkpt>
<trkpt lat="40.071659" lon="-105.2298122">
  <ele>1583.01</ele>
  <time>2026-08-28T17:54:30Z</time>
  <course>4.79</course>
  <speed>0.472652091923859</speed>
  <fix>3d</fix>
</trkpt>
<trkpt lat="40.071658" lon="-105.2298125">
  <ele>1583.0</ele>
  <time>2026-08-28T17:54:30Z</time>
  <course>3.82</course>
  <speed>0.48</speed>
  <fix>3d</fix>
</trkpt>
<trkpt lat="40.0716594" lon="-105.2298121">
  <ele>1583.02</ele>
  <time>2026-08-28T17:54:30Z</time>
  <course>4.81</course>
  <speed>0.472652091923859</speed>
  <fix>3d</fix>
</trkpt>
<trkpt lat="40.0716589" lon="-105.2298124">
  <ele>1583.0</ele>
  <time>2026-08-28T17:54:30Z</time>
  <course>3.85</course>
  <speed>0.48</speed>
  <fix>3d</fix>
</trkpt>
<trkpt lat="40.0716599" lon="-105.2298121">
  <ele>1583.02</ele>
  <time>2026-08-28T17:54:30Z</time>
  <course>4.82</course>
  <speed>0.4825971404805462</speed>
  <fix>3d</fix>
</trkpt>
<trkpt lat="40.0716589" lon="-105.2298124">
  <ele>1583.0</ele>
  <time>2026-08-28T17:54:30Z</time>
  <course>3.85</course>
  <speed>0.48</speed>
  <fix>3d</fix>
</trkpt>
<trkpt lat="40.0716603" lon="-105.2298121">
  <ele>1583.02</ele>
  <time>2026-08-28T17:54:30Z</time>
  <course>4.84</course>
  <speed>0.4825971404805462</speed>
  <fix>3d</fix>
</trkpt>
<trkpt lat="40.0716598" lon="-105.2298123">
  <ele>1583.0</ele>
  <time>2026-08-28T17:54:30Z</time>
  <course>3.88</course>
  <speed>0.48</speed>
  <fix>3d</fix>
</trkpt>
<trkpt lat="40.0716607" lon="-105.229812">
  <ele>1583.03</ele>
  <time>2026-08-28T17:54:30Z</time>
  <course>4.85</course>
  <speed>0.4825971404805462</speed>
  <fix>3d</fix>
</trkpt>
<trkpt lat="40.0716598" lon="-105.2298123">
  <ele>1583.0</ele>
  <time>2026-08-28T17:54:30Z</time>
  <course>3.88</course>
  <speed>0.48</speed>
  <fix>3d</fix>
</trkpt>
<trkpt lat="40.0716612" lon="-105.229812">
  <ele>1583.03</ele>
  <time>2026-08-28T17:54:30Z</time>
  <course>4.87</course>
  <speed>0.4825971404805462</speed>
  <fix>3d</fix>
</trkpt>
<trkpt lat="40.0716598" lon="-105.2298123">
  <ele>1583.0</ele>
  <time>2026-08-28T17:54:30Z</time>
  <course>3.88</course>
  <speed>0.48</speed>
  <fix>3d</fix>
</trkpt>
<trkpt lat="40.0716616" lon="-105.229812">
  <ele>1583.03</ele>
  <time>2026-08-28T17:54:30Z</time>
  <course>4.88</course>
  <speed>0.4825971404805462</speed>
  <fix>3d</fix>
</trkpt>
<trkpt lat="40.0716607" lon="-105.2298122">
  <ele>1583.0</ele>
  <time>2026-08-28T17:54:30Z</time>
  <course>3.91</course>
  <speed>0.49</speed>
  <fix>3d</fix>
</trkpt>
<trkpt lat="40.071662" lon="-105.2298119">
  <ele>1583.03</ele>
  <time>2026-08-28T17:54:30Z</time>
  <course>4.9</course>
  <speed>0.4825971404805462</speed>
  <fix>3d</fix>
</trkpt>
<trkpt lat="40.0716607" lon="-105.2298122">
  <ele>1583.0</ele>
  <time>2026-08-28T17:54:30Z</time>
  <course>3.91</course>
  <speed>0.49</speed>
  <fix>3d</fix>
</trkpt>
<trkpt lat="40.0716625" lon="-105.2298119">
  <ele>1583.03</ele>
  <time>2026-08-28T17:54:30Z</time>
  <course>4.91</course>
  <speed>0.4825971404805462</speed>
  <fix>3d</fix>
</trkpt>
<trkpt lat="40.0716616" lon="-105.2298122">
  <ele>1583.0</ele>
  <time>2026-08-28T17:54:30Z</time>
  <course>3.93</course>
  <speed>0.49</speed>
  <fix>3d</fix>
</trkpt>
<trkpt lat="40.0716629" lon="-105.2298118">
  <ele>1583.03</ele>
  <time>2026-08-28T17:54:30Z</time>
  <course>4.93</course>
  <speed>0.4825971404805462</speed>
  <fix>3d</fix>
</trkpt>
<trkpt lat="40.0716616" lon="-105.2298122">
  <ele>1583.0</ele>
  <time>2026-08-28T17:54:30Z</time>
  <course>3.93</course>
  <speed>0.49</speed>
  <fix>3d</fix>
</trkpt>
<trkpt lat="40.0716634" lon="-105.2298118">
  <ele>1583.03</ele>
  <time>2026-08-28T17:54:30Z</time>
  <course>4.94</course>
  <speed>0.4825971404805462</speed>
  <fix>3d</fix>
</trkpt>
<trkpt lat="40.0716625" lon="-105.2298121">
  <ele>1583.0</ele>
  <time>2026-08-28T17:54:30Z</time>
  <course>3.96</course>
  <speed>0.49</speed>
  <fix>3d</fix>
</trkpt>
<trkpt lat="40.0716638" lon="-105.2298118">
  <ele>1583.03</ele>
  <time>2026-08-28T17:54:30Z</time>
  <course>4.96</course>
  <speed>0.49254441424099005</speed>
  <fix>3d</fix>
</trkpt>
<trkpt lat="40.0716634" lon="-105.229812">
  <ele>1583.0</ele>
  <time>2026-08-28T17:54:30Z</time>
  <course>3.99</course>
  <speed>0.49</speed>
  <fix>3d</fix>
</trkpt>
<trkpt lat="40.0716643" lon="-105.2298117">
  <ele>1583.02</ele>
  <time>2026-08-28T17:54:30Z</time>
  <course>4.98</course>
  <speed>0.49254441424099005</speed>
  <fix>3d</fix>
</trkpt>
<trkpt lat="40.0716634" lon="-105.229812">
  <ele>1583.0</ele>
  <time>2026-08-28T17:54:30Z</time>
  <course>3.99</course>
  <speed>0.49</speed>
  <fix>3d</fix>
</trkpt>
<trkpt lat="40.0716647" lon="-105.2298117">
  <ele>1583.02</ele>
  <time>2026-08-28T17:54:30Z</time>
  <course>4.99</course>
  <speed>0.49254441424099005</speed>
  <fix>3d</fix>
</trkpt>
<trkpt lat="40.0716642" lon="-105.2298119">
  <ele>1583.0</ele>
  <time>2026-08-28T17:54:30Z</time>
  <course>4.02</course>
  <speed>0.5</speed>
  <fix>3d</fix>
</trkpt>
<trkpt lat="40.0716652" lon="-105.2298117">
  <ele>1583.02</ele>
  <time>2026-08-28T17:54:30Z</time>
  <course>5.0</course>
  <speed>0.49254441424099005</speed>
  <fix>3d</fix>
</trkpt>
<trkpt lat="40.0716642" lon="-105.2298119">
  <ele>1583.0</ele>
  <time>2026-08-28T17:54:30Z</time>
  <course>4.02</course>
  <speed>0.5</speed>
  <fix>3d</fix>
</trkpt>
<trkpt lat="40.0716656" lon="-105.2298116">
  <ele>1583.01</ele>
  <time>2026-08-28T17:54:30Z</time>
  <course>5.02</course>
  <speed>0.49254441424099005</speed>
  <fix>3d</fix>
</trkpt>
<trkpt lat="40.0716651" lon="-105.2298119">
  <ele>1583.0</ele>
  <time>2026-08-28T17:54:30Z</time>
  <course>4.04</course>
  <speed>0.5</speed>
  <fix>3d</fix>
</trkpt>
<trkpt lat="40.0716661" lon="-105.2298116">
  <ele>1583.01</ele>
  <time>2026-08-28T17:54:30Z</time>
  <course>5.03</course>
  <speed>0.49254441424099005</speed>
  <fix>3d</fix>
</trkpt>
<trkpt lat="40.0716651" lon="-105.2298119">
  <ele>1583.0</ele>
  <time>2026-08-28T17:54:30Z</time>
  <course>4.04</course>
  <speed>0.5</speed>
  <fix>3d</fix>
</trkpt>
<trkpt lat="40.0716665" lon="-105.2298116">
  <ele>1583.01</ele>
  <time>2026-08-28T17:54:30Z</time>
  <course>5.04</course>
  <speed>0.49254441424099005</speed>
  <fix>3d</fix>
</trkpt>
<trkpt lat="40.0716661" lon="-105.2298118">
  <ele>1583.0</ele>
  <time>2026-08-28T17:54:30Z</time>
  <course>4.06</course>
  <speed>0.5</speed>
  <fix>3d</fix>
</trkpt>
<trkpt lat="40.071667" lon="-105.2298115">
  <ele>1583.01</ele>
  <time>2026-08-28T17:54:30Z</time>
  <course>5.05</course>
  <speed>0.49254441424099005</speed>
  <fix>3d</fix>
</trkpt>
<trkpt lat="40.0716661" lon="-105.2298118">
  <ele>1583.0</ele>
  <time>2026-08-28T17:54:30Z</time>
  <course>4.06</course>
  <speed>0.5</speed>
  <fix>3d</fix>
</trkpt>
<trkpt lat="40.0716675" lon="-105.2298115">
  <ele>1583.01</ele>
  <time>2026-08-28T17:54:30Z</time>
  <course>5.06</course>
  <speed>0.49254441424099005</speed>
  <fix>3d</fix>
</trkpt>
<trkpt lat="40.071667" lon="-105.2298117">
  <ele>1583.0</ele>
  <time>2026-08-28T17:54:30Z</time>
  <course>4.08</course>
  <speed>0.5</speed>
  <fix>3d</fix>
</trkpt>
<trkpt lat="40.0716679" lon="-105.2298114">
  <ele>1583.02</ele>
  <time>2026-08-28T17:54:30Z</time>
  <course>5.07</course>
  <speed>0.49254441424099005</speed>
  <fix>3d</fix>
</trkpt>
<trkpt lat="40.071667" lon="-105.2298117">
  <ele>1583.0</ele>
  <time>2026-08-28T17:54:30Z</time>
  <course>4.08</course>
  <speed>0.5</speed>
  <fix>3d</fix>
</trkpt>
<trkpt lat="40.0716684" lon="-105.2298114">
  <ele>1583.02</ele>
  <time>2026-08-28T17:54:30Z</time>
  <course>5.08</course>
  <speed>0.49254441424099005</speed>
  <fix>3d</fix>
</trkpt>
<trkpt lat="40.0716679" lon="-105.2298116">
  <ele>1583.0</ele>
  <time>2026-08-28T17:54:30Z</time>
  <course>4.1</course>
  <speed>0.5</speed>
  <fix>3d</fix>
</trkpt>
<trkpt lat="40.0716688" lon="-105.2298114">
  <ele>1583.01</ele>
  <time>2026-08-28T17:54:30Z</time>
  <course>5.09</course>
  <speed>0.49254441424099005</speed>
  <fix>3d</fix>
</trkpt>
<trkpt lat="40.0716679" lon="-105.2298116">
  <ele>1583.0</ele>
  <time>2026-08-28T17:54:30Z</time>
  <course>4.1</course>
  <speed>0.5</speed>
  <fix>3d</fix>
</trkpt>
<trkpt lat="40.0716693" lon="-105.2298113">
  <ele>1583.01</ele>
  <time>2026-08-28T17:54:30Z</time>
  <course>5.1</course>
  <speed>0.49254441424099005</speed>
  <fix>3d</fix>
</trkpt>
<trkpt lat="40.0716688" lon="-105.2298115">
  <ele>1583.0</ele>
  <time>2026-08-28T17:54:30Z</time>
  <course>4.11</course>
  <speed>0.5</speed>
  <fix>3d</fix>
</trkpt>
<trkpt lat="40.0716697" lon="-105.2298113">
  <ele>1583.01</ele>
  <time>2026-08-28T17:54:30Z</time>
  <course>5.11</course>
  <speed>0.49254441424099005</speed>
  <fix>3d</fix>
</trkpt>
<trkpt lat="40.0716688" lon="-105.2298115">
  <ele>1583.0</ele>
  <time>2026-08-28T17:54:30Z</time>
  <course>4.11</course>
  <speed>0.5</speed>
  <fix>3d</fix>
</trkpt>
<trkpt lat="40.0716702" lon="-105.2298112">
  <ele>1583.01</ele>
  <time>2026-08-28T17:54:30Z</time>
  <course>5.12</course>
  <speed>0.49254441424099005</speed>
  <fix>3d</fix>
</trkpt>
<trkpt lat="40.0716688" lon="-105.2298115">
  <ele>1583.0</ele>
  <time>2026-08-28T17:54:30Z</time>
  <course>4.11</course>
  <speed>0.5</speed>
  <fix>3d</fix>
</trkpt>
<trkpt lat="40.0716707" lon="-105.2298112">
  <ele>1583.01</ele>
  <time>2026-08-28T17:54:30Z</time>
  <course>5.13</course>
  <speed>0.49254441424099005</speed>
  <fix>3d</fix>
</trkpt>
<trkpt lat="40.0716697" lon="-105.2298114">
  <ele>1583.0</ele>
  <time>2026-08-28T17:54:30Z</time>
  <course>4.13</course>
  <speed>0.51</speed>
  <fix>3d</fix>
</trkpt>
<trkpt lat="40.0716711" lon="-105.2298112">
  <ele>1583.0</ele>
  <time>2026-08-28T17:54:30Z</time>
  <course>5.14</course>
  <speed>0.49254441424099005</speed>
  <fix>3d</fix>
</trkpt>
<trkpt lat="40.0716697" lon="-105.2298114">
  <ele>1583.0</ele>
  <time>2026-08-28T17:54:30Z</time>
  <course>4.13</course>
  <speed>0.51</speed>
  <fix>3d</fix>
</trkpt>
<trkpt lat="40.0716716" lon="-105.2298111">
  <ele>1583.0</ele>
  <time>2026-08-28T17:54:30Z</time>
  <course>5.15</course>
  <speed>0.49254441424099005</speed>
  <fix>3d</fix>
</trkpt>
<trkpt lat="40.0716706" lon="-105.2298113">
  <ele>1583.0</ele>
  <time>2026-08-28T17:54:30Z</time>
  <course>4.14</course>
  <speed>0.51</speed>
  <fix>3d</fix>
</trkpt>
<trkpt lat="40.071672" lon="-105.2298111">
  <ele>1583.0</ele>
  <time>2026-08-28T17:54:30Z</time>
  <course>5.16</course>
  <speed>0.49254441424099005</speed>
  <fix>3d</fix>
</trkpt>
<trkpt lat="40.0716706" lon="-105.2298113">
  <ele>1583.0</ele>
  <time>2026-08-28T17:54:30Z</time>
  <course>4.14</course>
  <speed>0.51</speed>
  <fix>3d</fix>
</trkpt>
<trkpt lat="40.0716725" lon="-105.229811">
  <ele>1583.0</ele>
  <time>2026-08-28T17:54:30Z</time>
  <course>5.17</course>
  <speed>0.49254441424099005</speed>
  <fix>3d</fix>
</trkpt>
<trkpt lat="40.0716715" lon="-105.2298113">
  <ele>1583.0</ele>
  <time>2026-08-28T17:54:30Z</time>
  <course>4.16</course>
  <speed>0.51</speed>
  <fix>3d</fix>
</trkpt>
<trkpt lat="40.0716729" lon="-105.229811">
  <ele>1583.0</ele>
  <time>2026-08-28T17:54:30Z</time>
  <course>5.17</course>
  <speed>0.49254441424099005</speed>
  <fix>3d</fix>
</trkpt>
<trkpt lat="40.0716725" lon="-105.2298112">
  <ele>1583.0</ele>
  <time>2026-08-28T17:54:30Z</time>
  <course>4.17</course>
  <speed>0.51</speed>
  <fix>3d</fix>
</trkpt>
<trkpt lat="40.0716734" lon="-105.2298109">
  <ele>1582.99</ele>
  <time>2026-08-28T17:54:30Z</time>
  <course>5.18</course>
  <speed>0.49254441424099005</speed>
  <fix>3d</fix>
</trkpt>
<trkpt lat="40.0716725" lon="-105.2298112">
  <ele>1583.0</ele>
  <time>2026-08-28T17:54:30Z</time>
  <course>4.17</course>
  <speed>0.51</speed>
  <fix>3d</fix>
</trkpt>
<trkpt lat="40.0716738" lon="-105.2298109">
  <ele>1582.99</ele>
  <time>2026-08-28T17:54:30Z</time>
  <course>5.19</course>
  <speed>0.49254441424099005</speed>
  <fix>3d</fix>
</trkpt>
<trkpt lat="40.0716734" lon="-105.2298111">
  <ele>1583.0</ele>
  <time>2026-08-28T17:54:30Z</time>
  <course>4.17</course>
  <speed>0.51</speed>
  <fix>3d</fix>
</trkpt>
<trkpt lat="40.0716743" lon="-105.2298109">
  <ele>1582.99</ele>
  <time>2026-08-28T17:54:30Z</time>
  <course>5.19</course>
  <speed>0.49254441424099005</speed>
  <fix>3d</fix>
</trkpt>
<trkpt lat="40.0716734" lon="-105.2298111">
  <ele>1583.0</ele>
  <time>2026-08-28T17:54:30Z</time>
  <course>4.17</course>
  <speed>0.51</speed>
  <fix>3d</fix>
</trkpt>
<trkpt lat="40.0716748" lon="-105.2298108">
  <ele>1582.98</ele>
  <time>2026-08-28T17:54:30Z</time>
  <course>5.2</course>
  <speed>0.49254441424099005</speed>
  <fix>3d</fix>
</trkpt>
<trkpt lat="40.0716743" lon="-105.229811">
  <ele>1583.0</ele>
  <time>2026-08-28T17:54:30Z</time>
  <course>4.18</course>
  <speed>0.51</speed>
  <fix>3d</fix>
</trkpt>
<trkpt lat="40.0716752" lon="-105.2298108">
  <ele>1582.98</ele>
  <time>2026-08-28T17:54:30Z</time>
  <course>5.2</course>
  <speed>0.49254441424099005</speed>
  <fix>3d</fix>
</trkpt>
<trkpt lat="40.0716743" lon="-105.229811">
  <ele>1583.0</ele>
  <time>2026-08-28T17:54:30Z</time>
  <course>4.18</course>
  <speed>0.51</speed>
  <fix>3d</fix>
</trkpt>
<trkpt lat="40.0716757" lon="-105.2298107">
  <ele>1582.98</ele>
  <time>2026-08-28T17:54:30Z</time>
  <course>5.21</course>
  <speed>0.49254441424099005</speed>
  <fix>3d</fix>
</trkpt>
<trkpt lat="40.0716752" lon="-105.2298109">
  <ele>1583.0</ele>
  <time>2026-08-28T17:54:30Z</time>
  <course>4.18</course>
  <speed>0.51</speed>
  <fix>3d</fix>
</trkpt>
<trkpt lat="40.0716761" lon="-105.2298107">
  <ele>1582.98</ele>
  <time>2026-08-28T17:54:30Z</time>
  <course>5.21</course>
  <speed>0.49254441424099005</speed>
  <fix>3d</fix>
</trkpt>
<trkpt lat="40.0716752" lon="-105.2298109">
  <ele>1583.0</ele>
  <time>2026-08-28T17:54:30Z</time>
  <course>4.18</course>
  <speed>0.51</speed>
  <fix>3d</fix>
</trkpt>
<trkpt lat="40.0716766" lon="-105.2298107">
  <ele>1582.98</ele>
  <time>2026-08-28T17:54:30Z</time>
  <course>5.22</course>
  <speed>0.49254441424099005</speed>
  <fix>3d</fix>
</trkpt>
<trkpt lat="40.0716761" lon="-105.2298108">
  <ele>1583.0</ele>
  <time>2026-08-28T17:54:30Z</time>
  <course>4.19</course>
  <speed>0.51</speed>
  <fix>3d</fix>
</trkpt>
<trkpt lat="40.0716771" lon="-105.2298106">
  <ele>1582.98</ele>
  <time>2026-08-28T17:54:30Z</time>
  <course>5.22</course>
  <speed>0.49254441424099005</speed>
  <fix>3d</fix>
</trkpt>
<trkpt lat="40.0716761" lon="-105.2298108">
  <ele>1583.0</ele>
  <time>2026-08-28T17:54:30Z</time>
  <course>4.19</course>
  <speed>0.51</speed>
  <fix>3d</fix>
</trkpt>
<trkpt lat="40.0716775" lon="-105.2298106">
  <ele>1582.98</ele>
  <time>2026-08-28T17:54:30Z</time>
  <course>5.22</course>
  <speed>0.49254441424099005</speed>
  <fix>3d</fix>
</trkpt>
<trkpt lat="40.0716771" lon="-105.2298107">
  <ele>1583.0</ele>
  <time>2026-08-28T17:54:30Z</time>
  <course>4.19</course>
  <speed>0.51</speed>
  <fix>3d</fix>
</trkpt>
<trkpt lat="40.071678" lon="-105.2298105">
  <ele>1582.97</ele>
  <time>2026-08-28T17:54:30Z</time>
  <course>5.22</course>
  <speed>0.49254441424099005</speed>
  <fix>3d</fix>
</trkpt>
<trkpt lat="40.0716771" lon="-105.2298107">
  <ele>1583.0</ele>
  <time>2026-08-28T17:54:30Z</time>
  <course>4.19</course>
  <speed>0.51</speed>
  <fix>3d</fix>
</trkpt>
<trkpt lat="40.0716784" lon="-105.2298105">
  <ele>1582.97</ele>
  <time>2026-08-28T17:54:30Z</time>
  <course>5.23</course>
  <speed>0.49254441424099005</speed>
  <fix>3d</fix>
</trkpt>
<trkpt lat="40.071678" lon="-105.2298106">
  <ele>1583.0</ele>
  <time>2026-08-28T17:54:30Z</time>
  <course>4.19</course>
  <speed>0.51</speed>
  <fix>3d</fix>
</trkpt>
<trkpt lat="40.0716789" lon="-105.2298104">
  <ele>1582.98</ele>
  <time>2026-08-28T17:54:30Z</time>
  <course>5.23</course>
  <speed>0.49254441424099005</speed>
  <fix>3d</fix>
</trkpt>
<trkpt lat="40.071678" lon="-105.2298106">
  <ele>1583.0</ele>
  <time>2026-08-28T17:54:30Z</time>
  <course>4.19</course>
  <speed>0.51</speed>
  <fix>3d</fix>
</trkpt>
<trkpt lat="40.0716794" lon="-105.2298104">
  <ele>1582.98</ele>
  <time>2026-08-28T17:54:30Z</time>
  <course>5.23</course>
  <speed>0.49254441424099005</speed>
  <fix>3d</fix>
</trkpt>
<trkpt lat="40.071678" lon="-105.2298106">
  <ele>1583.0</ele>
  <time>2026-08-28T17:54:30Z</time>
  <course>4.19</course>
  <speed>0.51</speed>
  <fix>3d</fix>
</trkpt>
<trkpt lat="40.0716798" lon="-105.2298103">
  <ele>1582.98</ele>
  <time>2026-08-28T17:54:30Z</time>
  <course>5.24</course>
  <speed>0.49254441424099005</speed>
  <fix>3d</fix>
</trkpt>
<trkpt lat="40.0716789" lon="-105.2298105">
  <ele>1583.0</ele>
  <time>2026-08-28T17:54:30Z</time>
  <course>4.19</course>
  <speed>0.51</speed>
  <fix>3d</fix>
</trkpt>
<trkpt lat="40.0716803" lon="-105.2298103">
  <ele>1582.98</ele>
  <time>2026-08-28T17:54:30Z</time>
  <course>5.24</course>
  <speed>0.49254441424099005</speed>
  <fix>3d</fix>
</trkpt>
<trkpt lat="40.0716789" lon="-105.2298105">
  <ele>1583.0</ele>
  <time>2026-08-28T17:54:30Z</time>
  <course>4.19</course>
  <speed>0.51</speed>
  <fix>3d</fix>
</trkpt>
<trkpt lat="40.0716807" lon="-105.2298102">
  <ele>1582.99</ele>
  <time>2026-08-28T17:54:30Z</time>
  <course>5.24</course>
  <speed>0.49254441424099005</speed>
  <fix>3d</fix>
</trkpt>
<trkpt lat="40.0716798" lon="-105.2298105">
  <ele>1583.0</ele>
  <time>2026-08-28T17:54:30Z</time>
  <course>4.19</course>
  <speed>0.51</speed>
  <fix>3d</fix>
</trkpt>
<trkpt lat="40.0716812" lon="-105.2298102">
  <ele>1582.99</ele>
  <time>2026-08-28T17:54:30Z</time>
  <course>5.24</course>
  <speed>0.49254441424099005</speed>
  <fix>3d</fix>
</trkpt>
<trkpt lat="40.0716798" lon="-105.2298105">
  <ele>1583.0</ele>
  <time>2026-08-28T17:54:30Z</time>
  <course>4.19</course>
  <speed>0.51</speed>
  <fix>3d</fix>
</trkpt>
<trkpt lat="40.0716817" lon="-105.2298102">
  <ele>1582.99</ele>
  <time>2026-08-28T17:54:30Z</time>
  <course>5.25</course>
  <speed>0.49254441424099005</speed>
  <fix>3d</fix>
</trkpt>
<trkpt lat="40.0716807" lon="-105.2298104">
  <ele>1583.0</ele>
  <time>2026-08-28T17:54:30Z</time>
  <course>4.19</course>
  <speed>0.51</speed>
  <fix>3d</fix>
</trkpt>
<trkpt lat="40.0716821" lon="-105.2298101">
  <ele>1583.0</ele>
  <time>2026-08-28T17:54:30Z</time>
  <course>5.25</course>
  <speed>0.49254441424099005</speed>
  <fix>3d</fix>
</trkpt>
<trkpt lat="40.0716807" lon="-105.2298104">
  <ele>1583.0</ele>
  <time>2026-08-28T17:54:30Z</time>
  <course>4.19</course>
  <speed>0.51</speed>
  <fix>3d</fix>
</trkpt>
<trkpt lat="40.0716826" lon="-105.2298101">
  <ele>1583.0</ele>
  <time>2026-08-28T17:54:30Z</time>
  <course>5.25</course>
  <speed>0.49254441424099005</speed>
  <fix>3d</fix>
</trkpt>
<trkpt lat="40.0716817" lon="-105.2298103">
  <ele>1583.0</ele>
  <time>2026-08-28T17:54:30Z</time>
  <course>4.19</course>
  <speed>0.51</speed>
  <fix>3d</fix>
</trkpt>
<trkpt lat="40.071683" lon="-105.22981">
  <ele>1583.0</ele>
  <time>2026-08-28T17:54:30Z</time>
  <course>5.25</course>
  <speed>0.49254441424099005</speed>
  <fix>3d</fix>
</trkpt>
<trkpt lat="40.0716826" lon="-105.2298102">
  <ele>1583.0</ele>
  <time>2026-08-28T17:54:30Z</time>
  <course>4.19</course>
  <speed>0.51</speed>
  <fix>3d</fix>
</trkpt>
<trkpt lat="40.0716835" lon="-105.22981">
  <ele>1583.0</ele>
  <time>2026-08-28T17:54:30Z</time>
  <course>5.26</course>
  <speed>0.49254441424099005</speed>
  <fix>3d</fix>
</trkpt>
<trkpt lat="40.0716826" lon="-105.2298102">
  <ele>1583.0</ele>
  <time>2026-08-28T17:54:30Z</time>
  <course>4.19</course>
  <speed>0.51</speed>
  <fix>3d</fix>
</trkpt>
<trkpt lat="40.0716839" lon="-105.2298099">
  <ele>1583.0</ele>
  <time>2026-08-28T17:54:30Z</time>
  <course>5.26</course>
  <speed>0.49254441424099005</speed>
  <fix>3d</fix>
</trkpt>
<trkpt lat="40.0716836" lon="-105.2298101">
  <ele>1583.0</ele>
  <time>2026-08-28T17:54:30Z</time>
  <course>4.19</course>
  <speed>0.51</speed>
  <fix>3d</fix>
</trkpt>
<trkpt lat="40.0716844" lon="-105.2298099">
  <ele>1583.0</ele>
  <time>2026-08-28T17:54:30Z</time>
  <course>5.26</course>
  <speed>0.49254441424099005</speed>
  <fix>3d</fix>
</trkpt>
<trkpt lat="40.0716836" lon="-105.2298101">
  <ele>1583.0</ele>
  <time>2026-08-28T17:54:30Z</time>
  <course>4.19</course>
  <speed>0.51</speed>
  <fix>3d</fix>
</trkpt>
<trkpt lat="40.0716849" lon="-105.2298099">
  <ele>1583.0</ele>
  <time>2026-08-28T17:54:30Z</time>
  <course>5.26</course>
  <speed>0.49254441424099005</speed>
  <fix>3d</fix>
</trkpt>
<trkpt lat="40.0716845" lon="-105.22981">
  <ele>1583.0</ele>
  <time>2026-08-28T17:54:30Z</time>
  <course>4.19</course>
  <speed>0.51</speed>
  <fix>3d</fix>
</trkpt>
<trkpt lat="40.0716853" lon="-105.2298098">
  <ele>1583.0</ele>
  <time>2026-08-28T17:54:30Z</time>
  <course>5.27</course>
  <speed>0.49254441424099005</speed>
  <fix>3d</fix>
</trkpt>
<trkpt lat="40.0716845" lon="-105.22981">
  <ele>1583.0</ele>
  <time>2026-08-28T17:54:30Z</time>
  <course>4.19</course>
  <speed>0.51</speed>
  <fix>3d</fix>
</trkpt>
<trkpt lat="40.0716858" lon="-105.2298098">
  <ele>1583.0</ele>
  <time>2026-08-28T17:54:30Z</time>
  <course>5.27</course>
  <speed>0.49254441424099005</speed>
  <fix>3d</fix>
</trkpt>
<trkpt lat="40.0716854" lon="-105.2298099">
  <ele>1583.0</ele>
  <time>2026-08-28T17:54:30Z</time>
  <course>4.19</course>
  <speed>0.51</speed>
  <fix>3d</fix>
</trkpt>
<trkpt lat="40.0716863" lon="-105.2298097">
  <ele>1583.01</ele>
  <time>2026-08-28T17:54:30Z</time>
  <course>5.27</course>
  <speed>0.49254441424099005</speed>
  <fix>3d</fix>
</trkpt>
<trkpt lat="40.0716854" lon="-105.2298099">
  <ele>1583.0</ele>
  <time>2026-08-28T17:54:30Z</time>
  <course>4.19</course>
  <speed>0.51</speed>
  <fix>3d</fix>
</trkpt>
<trkpt lat="40.0716867" lon="-105.2298097">
  <ele>1583.01</ele>
  <time>2026-08-28T17:54:30Z</time>
  <course>5.28</course>
  <speed>0.49254441424099005</speed>
  <fix>3d</fix>
</trkpt>
<trkpt lat="40.0716863" lon="-105.2298098">
  <ele>1583.0</ele>
  <time>2026-08-28T17:54:30Z</time>
  <course>4.2</course>
  <speed>0.51</speed>
  <fix>3d</fix>
</trkpt>
<trkpt lat="40.0716872" lon="-105.2298096">
  <ele>1583.01</ele>
  <time>2026-08-28T17:54:30Z</time>
  <course>5.28</course>
  <speed>0.49254441424099005</speed>
  <fix>3d</fix>
</trkpt>
<trkpt lat="40.0716863" lon="-105.2298098">
  <ele>1583.0</ele>
  <time>2026-08-28T17:54:30Z</time>
  <course>4.2</course>
  <speed>0.51</speed>
  <fix>3d</fix>
</trkpt>
<trkpt lat="40.0716877" lon="-105.2298096">
  <ele>1583.0</ele>
  <time>2026-08-28T17:54:30Z</time>
  <course>5.29</course>
  <speed>0.49254441424099005</speed>
  <fix>3d</fix>
</trkpt>
<trkpt lat="40.0716872" lon="-105.2298097">
  <ele>1583.0</ele>
  <time>2026-08-28T17:54:30Z</time>
  <course>4.2</course>
  <speed>0.51</speed>
  <fix>3d</fix>
</trkpt>
<trkpt lat="40.0716881" lon="-105.2298095">
  <ele>1583.01</ele>
  <time>2026-08-28T17:54:30Z</time>
  <course>5.3</course>
  <speed>0.49254441424099005</speed>
  <fix>3d</fix>
</trkpt>
<trkpt lat="40.0716872" lon="-105.2298097">
  <ele>1583.0</ele>
  <time>2026-08-28T17:54:30Z</time>
  <course>4.2</course>
  <speed>0.51</speed>
  <fix>3d</fix>
</trkpt>
<trkpt lat="40.0716886" lon="-105.2298095">
  <ele>1583.01</ele>
  <time>2026-08-28T17:54:30Z</time>
  <course>5.31</course>
  <speed>0.49254441424099005</speed>
  <fix>3d</fix>
</trkpt>
<trkpt lat="40.0716882" lon="-105.2298096">
  <ele>1583.0</ele>
  <time>2026-08-28T17:54:30Z</time>
  <course>4.21</course>
  <speed>0.51</speed>
  <fix>3d</fix>
</trkpt>
<trkpt lat="40.0716891" lon="-105.2298094">
  <ele>1583.01</ele>
  <time>2026-08-28T17:54:30Z</time>
  <course>5.32</course>
  <speed>0.49254441424099005</speed>
  <fix>3d</fix>
</trkpt>
<trkpt lat="40.0716882" lon="-105.2298096">
  <ele>1583.0</ele>
  <time>2026-08-28T17:54:30Z</time>
  <course>4.21</course>
  <speed>0.51</speed>
  <fix>3d</fix>
</trkpt>
<trkpt lat="40.0716895" lon="-105.2298094">
  <ele>1583.02</ele>
  <time>2026-08-28T17:54:30Z</time>
  <course>5.32</course>
  <speed>0.49254441424099005</speed>
  <fix>3d</fix>
</trkpt>
<trkpt lat="40.0716882" lon="-105.2298096">
  <ele>1583.0</ele>
  <time>2026-08-28T17:54:30Z</time>
  <course>4.21</course>
  <speed>0.51</speed>
  <fix>3d</fix>
</trkpt>
<trkpt lat="40.07169" lon="-105.2298093">
  <ele>1583.02</ele>
  <time>2026-08-28T17:54:30Z</time>
  <course>5.33</course>
  <speed>0.49254441424099005</speed>
  <fix>3d</fix>
</trkpt>
<trkpt lat="40.0716891" lon="-105.2298096">
  <ele>1583.0</ele>
  <time>2026-08-28T17:54:30Z</time>
  <course>4.22</course>
  <speed>0.51</speed>
  <fix>3d</fix>
</trkpt>
<trkpt lat="40.0716905" lon="-105.2298093">
  <ele>1583.02</ele>
  <time>2026-08-28T17:54:30Z</time>
  <course>5.34</course>
  <speed>0.49254441424099005</speed>
  <fix>3d</fix>
</trkpt>
<trkpt lat="40.0716891" lon="-105.2298096">
  <ele>1583.0</ele>
  <time>2026-08-28T17:54:30Z</time>
  <course>4.22</course>
  <speed>0.51</speed>
  <fix>3d</fix>
</trkpt>
<trkpt lat="40.0716909" lon="-105.2298092">
  <ele>1583.02</ele>
  <time>2026-08-28T17:54:30Z</time>
  <course>5.35</course>
  <speed>0.49254441424099005</speed>
  <fix>3d</fix>
</trkpt>
<trkpt lat="40.0716901" lon="-105.2298095">
  <ele>1583.0</ele>
  <time>2026-08-28T17:54:30Z</time>
  <course>4.23</course>
  <speed>0.51</speed>
  <fix>3d</fix>
</trkpt>
<trkpt lat="40.0716914" lon="-105.2298092">
  <ele>1583.02</ele>
  <time>2026-08-28T17:54:30Z</time>
  <course>5.36</course>
  <speed>0.49254441424099005</speed>
  <fix>3d</fix>
</trkpt>
<trkpt lat="40.0716901" lon="-105.2298095">
  <ele>1583.0</ele>
  <time>2026-08-28T17:54:30Z</time>
  <course>4.23</course>
  <speed>0.51</speed>
  <fix>3d</fix>
</trkpt>
<trkpt lat="40.0716918" lon="-105.2298092">
  <ele>1583.02</ele>
  <time>2026-08-28T17:54:30Z</time>
  <course>5.37</course>
  <speed>0.49254441424099005</speed>
  <fix>3d</fix>
</trkpt>
<trkpt lat="40.071691" lon="-105.2298094">
  <ele>1583.0</ele>
  <time>2026-08-28T17:54:30Z</time>
  <course>4.25</course>
  <speed>0.51</speed>
  <fix>3d</fix>
</trkpt>
<trkpt lat="40.0716923" lon="-105.2298091">
  <ele>1583.02</ele>
  <time>2026-08-28T17:54:30Z</time>
  <course>5.38</course>
  <speed>0.49254441424099005</speed>
  <fix>3d</fix>
</trkpt>
<trkpt lat="40.0716919" lon="-105.2298093">
  <ele>1583.0</ele>
  <time>2026-08-28T17:54:30Z</time>
  <course>4.26</course>
  <speed>0.51</speed>
  <fix>3d</fix>
</trkpt>
<trkpt lat="40.0716928" lon="-105.2298091">
  <ele>1583.01</ele>
  <time>2026-08-28T17:54:30Z</time>
  <course>5.38</course>
  <speed>0.49254441424099005</speed>
  <fix>3d</fix>
</trkpt>
<trkpt lat="40.0716919" lon="-105.2298093">
  <ele>1583.0</ele>
  <time>2026-08-28T17:54:30Z</time>
  <course>4.26</course>
  <speed>0.51</speed>
  <fix>3d</fix>
</trkpt>
<trkpt lat="40.0716932" lon="-105.229809">
  <ele>1583.01</ele>
  <time>2026-08-28T17:54:30Z</time>
  <course>5.39</course>
  <speed>0.49254441424099005</speed>
  <fix>3d</fix>
</trkpt>
<trkpt lat="40.0716928" lon="-105.2298092">
  <ele>1583.0</ele>
  <time>2026-08-28T17:54:30Z</time>
  <course>4.27</course>
  <speed>0.51</speed>
  <fix>3d</fix>
</trkpt>
<trkpt lat="40.0716937" lon="-105.229809">
  <ele>1583.01</ele>
  <time>2026-08-28T17:54:30Z</time>
  <course>5.4</course>
  <speed>0.49254441424099005</speed>
  <fix>3d</fix>
</trkpt>
<trkpt lat="40.0716928" lon="-105.2298092">
  <ele>1583.0</ele>
  <time>2026-08-28T17:54:30Z</time>
  <course>4.27</course>
  <speed>0.51</speed>
  <fix>3d</fix>
</trkpt>
<trkpt lat="40.0716942" lon="-105.2298089">
  <ele>1583.01</ele>
  <time>2026-08-28T17:54:30Z</time>
  <course>5.41</course>
  <speed>0.49254441424099005</speed>
  <fix>3d</fix>
</trkpt>
<trkpt lat="40.0716938" lon="-105.2298091">
  <ele>1583.0</ele>
  <time>2026-08-28T17:54:30Z</time>
  <course>4.29</course>
  <speed>0.51</speed>
  <fix>3d</fix>
</trkpt>
<trkpt lat="40.0716946" lon="-105.2298089">
  <ele>1583.0</ele>
  <time>2026-08-28T17:54:30Z</time>
  <course>5.42</course>
  <speed>0.49254441424099005</speed>
  <fix>3d</fix>
</trkpt>
<trkpt lat="40.0716938" lon="-105.2298091">
  <ele>1583.0</ele>
  <time>2026-08-28T17:54:30Z</time>
  <course>4.29</course>
  <speed>0.51</speed>
  <fix>3d</fix>
</trkpt>
<trkpt lat="40.0716951" lon="-105.2298088">
  <ele>1583.0</ele>
  <time>2026-08-28T17:54:30Z</time>
  <course>5.43</course>
  <speed>0.49254441424099005</speed>
  <fix>3d</fix>
</trkpt>
<trkpt lat="40.0716947" lon="-105.229809">
  <ele>1583.0</ele>
  <time>2026-08-28T17:54:30Z</time>
  <course>4.3</course>
  <speed>0.51</speed>
  <fix>3d</fix>
</trkpt>
<trkpt lat="40.0716956" lon="-105.2298088">
  <ele>1583.0</ele>
  <time>2026-08-28T17:54:30Z</time>
  <course>5.44</course>
  <speed>0.49254441424099005</speed>
  <fix>3d</fix>
</trkpt>
<trkpt lat="40.0716947" lon="-105.229809">
  <ele>1583.0</ele>
  <time>2026-08-28T17:54:30Z</time>
  <course>4.3</course>
  <speed>0.51</speed>
  <fix>3d</fix>
</trkpt>
<trkpt lat="40.071696" lon="-105.2298088">
  <ele>1583.0</ele>
  <time>2026-08-28T17:54:30Z</time>
  <course>5.45</course>
  <speed>0.49254441424099005</speed>
  <fix>3d</fix>
</trkpt>
<trkpt lat="40.0716956" lon="-105.2298089">
  <ele>1583.0</ele>
  <time>2026-08-28T17:54:30Z</time>
  <course>4.32</course>
  <speed>0.51</speed>
  <fix>3d</fix>
</trkpt>
<trkpt lat="40.0716965" lon="-105.2298087">
  <ele>1582.99</ele>
  <time>2026-08-28T17:54:30Z</time>
  <course>5.46</course>
  <speed>0.49254441424099005</speed>
  <fix>3d</fix>
</trkpt>
<trkpt lat="40.0716956" lon="-105.2298089">
  <ele>1583.0</ele>
  <time>2026-08-28T17:54:30Z</time>
  <course>4.32</course>
  <speed>0.51</speed>
  <fix>3d</fix>
</trkpt>
<trkpt lat="40.071697" lon="-105.2298087">
  <ele>1582.99</ele>
  <time>2026-08-28T17:54:30Z</time>
  <course>5.47</course>
  <speed>0.49254441424099005</speed>
  <fix>3d</fix>
</trkpt>
<trkpt lat="40.0716965" lon="-105.2298088">
  <ele>1583.0</ele>
  <time>2026-08-28T17:54:30Z</time>
  <course>4.33</course>
  <speed>0.51</speed>
  <fix>3d</fix>
</trkpt>
<trkpt lat="40.0716974" lon="-105.2298086">
  <ele>1582.99</ele>
  <time>2026-08-28T17:54:30Z</time>
  <course>5.47</course>
  <speed>0.49254441424099005</speed>
  <fix>3d</fix>
</trkpt>
<trkpt lat="40.0716965" lon="-105.2298088">
  <ele>1583.0</ele>
  <time>2026-08-28T17:54:30Z</time>
  <course>4.33</course>
  <speed>0.51</speed>
  <fix>3d</fix>
</trkpt>
<trkpt lat="40.0716979" lon="-105.2298086">
  <ele>1582.99</ele>
  <time>2026-08-28T17:54:30Z</time>
  <course>5.48</course>
  <speed>0.49254441424099005</speed>
  <fix>3d</fix>
</trkpt>
<trkpt lat="40.0716975" lon="-105.2298087">
  <ele>1583.0</ele>
  <time>2026-08-28T17:54:30Z</time>
  <course>4.35</course>
  <speed>0.51</speed>
  <fix>3d</fix>
</trkpt>
<trkpt lat="40.0716984" lon="-105.2298085">
  <ele>1582.99</ele>
  <time>2026-08-28T17:54:30Z</time>
  <course>5.49</course>
  <speed>0.49254441424099005</speed>
  <fix>3d</fix>
</trkpt>
<trkpt lat="40.0716975" lon="-105.2298087">
  <ele>1583.0</ele>
  <time>2026-08-28T17:54:30Z</time>
  <course>4.35</course>
  <speed>0.51</speed>
  <fix>3d</fix>
</trkpt>
<trkpt lat="40.0716988" lon="-105.2298085">
  <ele>1582.99</ele>
  <time>2026-08-28T17:54:30Z</time>
  <course>5.5</course>
  <speed>0.49254441424099005</speed>
  <fix>3d</fix>
</trkpt>
<trkpt lat="40.0716975" lon="-105.2298087">
  <ele>1583.0</ele>
  <time>2026-08-28T17:54:30Z</time>
  <course>4.35</course>
  <speed>0.51</speed>
  <fix>3d</fix>
</trkpt>
<trkpt lat="40.0716993" lon="-105.2298084">
  <ele>1582.99</ele>
  <time>2026-08-28T17:54:30Z</time>
  <course>5.5</course>
  <speed>0.49254441424099005</speed>
  <fix>3d</fix>
</trkpt>
<trkpt lat="40.0716984" lon="-105.2298086">
  <ele>1583.0</ele>
  <time>2026-08-28T17:54:30Z</time>
  <course>4.36</course>
  <speed>0.51</speed>
  <fix>3d</fix>
</trkpt>
<trkpt lat="40.0716998" lon="-105.2298084">
  <ele>1582.99</ele>
  <time>2026-08-28T17:54:30Z</time>
  <course>5.5</course>
  <speed>0.49254441424099005</speed>
  <fix>3d</fix>
</trkpt>
<trkpt lat="40.0716984" lon="-105.2298086">
  <ele>1583.0</ele>
  <time>2026-08-28T17:54:30Z</time>
  <course>4.36</course>
  <speed>0.51</speed>
  <fix>3d</fix>
</trkpt>
<trkpt lat="40.0717002" lon="-105.2298083">
  <ele>1582.98</ele>
  <time>2026-08-28T17:54:30Z</time>
  <course>5.51</course>
  <speed>0.49254441424099005</speed>
  <fix>3d</fix>
</trkpt>
<trkpt lat="40.0716994" lon="-105.2298086">
  <ele>1583.0</ele>
  <time>2026-08-28T17:54:30Z</time>
  <course>4.36</course>
  <speed>0.51</speed>
  <fix>3d</fix>
</trkpt>
<trkpt lat="40.0717007" lon="-105.2298083">
  <ele>1582.99</ele>
  <time>2026-08-28T17:54:30Z</time>
  <course>5.51</course>
  <speed>0.49254441424099005</speed>
  <fix>3d</fix>
</trkpt>
<trkpt lat="40.0716994" lon="-105.2298086">
  <ele>1583.0</ele>
  <time>2026-08-28T17:54:30Z</time>
  <course>4.36</course>
  <speed>0.51</speed>
  <fix>3d</fix>
</trkpt>
<trkpt lat="40.0717011" lon="-105.2298082">
  <ele>1582.99</ele>
  <time>2026-08-28T17:54:30Z</time>
  <course>5.52</course>
  <speed>0.49254441424099005</speed>
  <fix>3d</fix>
</trkpt>
<trkpt lat="40.0717003" lon="-105.2298085">
  <ele>1583.0</ele>
  <time>2026-08-28T17:54:30Z</time>
  <course>4.37</course>
  <speed>0.51</speed>
  <fix>3d</fix>
</trkpt>
<trkpt lat="40.0717016" lon="-105.2298082">
  <ele>1582.99</ele>
  <time>2026-08-28T17:54:30Z</time>
  <course>5.53</course>
  <speed>0.49254441424099005</speed>
  <fix>3d</fix>
</trkpt>
<trkpt lat="40.0717003" lon="-105.2298085">
  <ele>1583.0</ele>
  <time>2026-08-28T17:54:30Z</time>
  <course>4.37</course>
  <speed>0.51</speed>
  <fix>3d</fix>
</trkpt>
<trkpt lat="40.0717021" lon="-105.2298081">
  <ele>1582.99</ele>
  <time>2026-08-28T17:54:30Z</time>
  <course>5.54</course>
  <speed>0.49254441424099005</speed>
  <fix>3d</fix>
</trkpt>
<trkpt lat="40.0717012" lon="-105.2298084">
  <ele>1583.0</ele>
  <time>2026-08-28T17:54:30Z</time>
  <course>4.38</course>
  <speed>0.51</speed>
  <fix>3d</fix>
</trkpt>
<trkpt lat="40.0717025" lon="-105.2298081">
  <ele>1582.99</ele>
  <time>2026-08-28T17:54:30Z</time>
  <course>5.55</course>
  <speed>0.49254441424099005</speed>
  <fix>3d</fix>
</trkpt>
<trkpt lat="40.0717022" lon="-105.2298083">
  <ele>1583.0</ele>
  <time>2026-08-28T17:54:30Z</time>
  <course>4.39</course>
  <speed>0.51</speed>
  <fix>3d</fix>
</trkpt>
<trkpt lat="40.071703" lon="-105.2298081">
  <ele>1582.99</ele>
  <time>2026-08-28T17:54:30Z</time>
  <course>5.56</course>
  <speed>0.49254441424099005</speed>
  <fix>3d</fix>
</trkpt>
<trkpt lat="40.0717022" lon="-105.2298083">
  <ele>1583.0</ele>
  <time>2026-08-28T17:54:30Z</time>
  <course>4.39</course>
  <speed>0.51</speed>
  <fix>3d</fix>
</trkpt>
<trkpt lat="40.0717035" lon="-105.229808">
  <ele>1582.99</ele>
  <time>2026-08-28T17:54:30Z</time>
  <course>5.56</course>
  <speed>0.49254441424099005</speed>
  <fix>3d</fix>
</trkpt>
<trkpt lat="40.0717031" lon="-105.2298082">
  <ele>1583.0</ele>
  <time>2026-08-28T17:54:30Z</time>
  <course>4.41</course>
  <speed>0.51</speed>
  <fix>3d</fix>
</trkpt>
<trkpt lat="40.0717039" lon="-105.229808">
  <ele>1582.99</ele>
  <time>2026-08-28T17:54:30Z</time>
  <course>5.57</course>
  <speed>0.49254441424099005</speed>
  <fix>3d</fix>
</trkpt>
<trkpt lat="40.0717031" lon="-105.2298082">
  <ele>1583.0</ele>
  <time>2026-08-28T17:54:30Z</time>
  <course>4.41</course>
  <speed>0.51</speed>
  <fix>3d</fix>
</trkpt>
<trkpt lat="40.0717044" lon="-105.2298079">
  <ele>1582.99</ele>
  <time>2026-08-28T17:54:30Z</time>
  <course>5.58</course>
  <speed>0.49254441424099005</speed>
  <fix>3d</fix>
</trkpt>
<trkpt lat="40.071704" lon="-105.2298081">
  <ele>1583.0</ele>
  <time>2026-08-28T17:54:30Z</time>
  <course>4.42</course>
  <speed>0.51</speed>
  <fix>3d</fix>
</trkpt>
<trkpt lat="40.0717049" lon="-105.2298079">
  <ele>1582.99</ele>
  <time>2026-08-28T17:54:30Z</time>
  <course>5.59</course>
  <speed>0.49254441424099005</speed>
  <fix>3d</fix>
</trkpt>
<trkpt lat="40.071704" lon="-105.2298081">
  <ele>1583.0</ele>
  <time>2026-08-28T17:54:30Z</time>
  <course>4.42</course>
  <speed>0.51</speed>
  <fix>3d</fix>
</trkpt>
<trkpt lat="40.0717053" lon="-105.2298078">
  <ele>1582.99</ele>
  <time>2026-08-28T17:54:30Z</time>
  <course>5.6</course>
  <speed>0.49254441424099005</speed>
  <fix>3d</fix>
</trkpt>
<trkpt lat="40.0717049" lon="-105.229808">
  <ele>1583.0</ele>
  <time>2026-08-28T17:54:30Z</time>
  <course>4.43</course>
  <speed>0.51</speed>
  <fix>3d</fix>
</trkpt>
<trkpt lat="40.0717058" lon="-105.2298078">
  <ele>1582.99</ele>
  <time>2026-08-28T17:54:30Z</time>
  <course>5.61</course>
  <speed>0.49254441424099005</speed>
  <fix>3d</fix>
</trkpt>
<trkpt lat="40.0717049" lon="-105.229808">
  <ele>1583.0</ele>
  <time>2026-08-28T17:54:30Z</time>
  <course>4.43</course>
  <speed>0.51</speed>
  <fix>3d</fix>
</trkpt>
<trkpt lat="40.0717063" lon="-105.2298077">
  <ele>1582.99</ele>
  <time>2026-08-28T17:54:30Z</time>
  <course>5.62</course>
  <speed>0.49254441424099005</speed>
  <fix>3d</fix>
</trkpt>
<trkpt lat="40.0717059" lon="-105.2298079">
  <ele>1583.0</ele>
  <time>2026-08-28T17:54:30Z</time>
  <course>4.45</course>
  <speed>0.51</speed>
  <fix>3d</fix>
</trkpt>
<trkpt lat="40.0717067" lon="-105.2298077">
  <ele>1582.98</ele>
  <time>2026-08-28T17:54:30Z</time>
  <course>5.62</course>
  <speed>0.49254441424099005</speed>
  <fix>3d</fix>
</trkpt>
<trkpt lat="40.0717059" lon="-105.2298079">
  <ele>1583.0</ele>
  <time>2026-08-28T17:54:30Z</time>
  <course>4.45</course>
  <speed>0.51</speed>
  <fix>3d</fix>
</trkpt>
<trkpt lat="40.0717072" lon="-105.2298076">
  <ele>1582.99</ele>
  <time>2026-08-28T17:54:30Z</time>
  <course>5.63</course>
  <speed>0.49254441424099005</speed>
  <fix>3d</fix>
</trkpt>
<trkpt lat="40.0717068" lon="-105.2298078">
  <ele>1583.0</ele>
  <time>2026-08-28T17:54:30Z</time>
  <course>4.46</course>
  <speed>0.51</speed>
  <fix>3d</fix>
</trkpt>
<trkpt lat="40.0717077" lon="-105.2298076">
  <ele>1582.99</ele>
  <time>2026-08-28T17:54:30Z</time>
  <course>5.64</course>
  <speed>0.49254441424099005</speed>
  <fix>3d</fix>
</trkpt>
<trkpt lat="40.0717068" lon="-105.2298078">
  <ele>1583.0</ele>
  <time>2026-08-28T17:54:30Z</time>
  <course>4.46</course>
  <speed>0.51</speed>
  <fix>3d</fix>
</trkpt>
<trkpt lat="40.0717081" lon="-105.2298075">
  <ele>1582.99</ele>
  <time>2026-08-28T17:54:30Z</time>
  <course>5.65</course>
  <speed>0.49254441424099005</speed>
  <fix>3d</fix>
</trkpt>
<trkpt lat="40.0717077" lon="-105.2298077">
  <ele>1583.0</ele>
  <time>2026-08-28T17:54:30Z</time>
  <course>4.48</course>
  <speed>0.51</speed>
  <fix>3d</fix>
</trkpt>
<trkpt lat="40.0717086" lon="-105.2298075">
  <ele>1582.99</ele>
  <time>2026-08-28T17:54:30Z</time>
  <course>5.65</course>
  <speed>0.49254441424099005</speed>
  <fix>3d</fix>
</trkpt>
<trkpt lat="40.0717077" lon="-105.2298077">
  <ele>1583.0</ele>
  <time>2026-08-28T17:54:30Z</time>
  <course>4.48</course>
  <speed>0.51</speed>
  <fix>3d</fix>
</trkpt>
<trkpt lat="40.0717091" lon="-105.2298074">
  <ele>1582.99</ele>
  <time>2026-08-28T17:54:30Z</time>
  <course>5.66</course>
  <speed>0.49254441424099005</speed>
  <fix>3d</fix>
</trkpt>
<trkpt lat="40.0717077" lon="-105.2298077">
  <ele>1583.0</ele>
  <time>2026-08-28T17:54:30Z</time>
  <course>4.48</course>
  <speed>0.51</speed>
  <fix>3d</fix>
</trkpt>
<trkpt lat="40.0717095" lon="-105.2298074">
  <ele>1582.99</ele>
  <time>2026-08-28T17:54:30Z</time>
  <course>5.66</course>
  <speed>0.49254441424099005</speed>
  <fix>3d</fix>
</trkpt>
<trkpt lat="40.0717087" lon="-105.2298076">
  <ele>1583.0</ele>
  <time>2026-08-28T17:54:30Z</time>
  <course>4.49</course>
  <speed>0.51</speed>
  <fix>3d</fix>
</trkpt>
<trkpt lat="40.07171" lon="-105.2298073">
  <ele>1583.0</ele>
  <time>2026-08-28T17:54:30Z</time>
  <course>5.67</course>
  <speed>0.49254441424099005</speed>
  <fix>3d</fix>
</trkpt>
<trkpt lat="40.0717087" lon="-105.2298076">
  <ele>1583.0</ele>
  <time>2026-08-28T17:54:30Z</time>
  <course>4.49</course>
  <speed>0.51</speed>
  <fix>3d</fix>
</trkpt>
<trkpt lat="40.0717105" lon="-105.2298073">
  <ele>1583.0</ele>
  <time>2026-08-28T17:54:30Z</time>
  <course>5.67</course>
  <speed>0.49254441424099005</speed>
  <fix>3d</fix>
</trkpt>
<trkpt lat="40.0717096" lon="-105.2298075">
  <ele>1583.0</ele>
  <time>2026-08-28T17:54:30Z</time>
  <course>4.5</course>
  <speed>0.51</speed>
  <fix>3d</fix>
</trkpt>
<trkpt lat="40.0717109" lon="-105.2298072">
  <ele>1583.0</ele>
  <time>2026-08-28T17:54:30Z</time>
  <course>5.68</course>
  <speed>0.49254441424099005</speed>
  <fix>3d</fix>
</trkpt>
<trkpt lat="40.0717096" lon="-105.2298075">
  <ele>1583.0</ele>
  <time>2026-08-28T17:54:30Z</time>
  <course>4.5</course>
  <speed>0.51</speed>
  <fix>3d</fix>
</trkpt>
<trkpt lat="40.0717114" lon="-105.2298072">
  <ele>1583.01</ele>
  <time>2026-08-28T17:54:30Z</time>
  <course>5.68</course>
  <speed>0.49254441424099005</speed>
  <fix>3d</fix>
</trkpt>
<trkpt lat="40.0717105" lon="-105.2298074">
  <ele>1583.0</ele>
  <time>2026-08-28T17:54:30Z</time>
  <course>4.5</course>
  <speed>0.51</speed>
  <fix>3d</fix>
</trkpt>
<trkpt lat="40.0717119" lon="-105.2298071">
  <ele>1583.01</ele>
  <time>2026-08-28T17:54:30Z</time>
  <course>5.69</course>
  <speed>0.49254441424099005</speed>
  <fix>3d</fix>
</trkpt>
<trkpt lat="40.0717115" lon="-105.2298073">
  <ele>1583.0</ele>
  <time>2026-08-28T17:54:30Z</time>
  <course>4.51</course>
  <speed>0.51</speed>
  <fix>3d</fix>
</trkpt>
<trkpt lat="40.0717123" lon="-105.2298071">
  <ele>1583.01</ele>
  <time>2026-08-28T17:54:30Z</time>
  <course>5.69</course>
  <speed>0.49254441424099005</speed>
  <fix>3d</fix>
</trkpt>
<trkpt lat="40.0717115" lon="-105.2298073">
  <ele>1583.0</ele>
  <time>2026-08-28T17:54:30Z</time>
  <course>4.51</course>
  <speed>0.51</speed>
  <fix>3d</fix>
</trkpt>
<trkpt lat="40.0717128" lon="-105.229807">
  <ele>1583.01</ele>
  <time>2026-08-28T17:54:30Z</time>
  <course>5.7</course>
  <speed>0.49254441424099005</speed>
  <fix>3d</fix>
</trkpt>
<trkpt lat="40.0717124" lon="-105.2298072">
  <ele>1583.0</ele>
  <time>2026-08-28T17:54:30Z</time>
  <course>4.52</course>
  <speed>0.51</speed>
  <fix>3d</fix>
</trkpt>
<trkpt lat="40.0717133" lon="-105.229807">
  <ele>1583.01</ele>
  <time>2026-08-28T17:54:30Z</time>
  <course>5.7</course>
  <speed>0.49254441424099005</speed>
  <fix>3d</fix>
</trkpt>
<trkpt lat="40.0717124" lon="-105.2298072">
  <ele>1583.0</ele>
  <time>2026-08-28T17:54:30Z</time>
  <course>4.52</course>
  <speed>0.51</speed>
  <fix>3d</fix>
</trkpt>
<trkpt lat="40.0717137" lon="-105.2298069">
  <ele>1583.01</ele>
  <time>2026-08-28T17:54:30Z</time>
  <course>5.71</course>
  <speed>0.49254441424099005</speed>
  <fix>3d</fix>
</trkpt>
<trkpt lat="40.0717133" lon="-105.2298071">
  <ele>1583.0</ele>
  <time>2026-08-28T17:54:30Z</time>
  <course>4.53</course>
  <speed>0.51</speed>
  <fix>3d</fix>
</trkpt>
<trkpt lat="40.0717142" lon="-105.2298069">
  <ele>1583.02</ele>
  <time>2026-08-28T17:54:30Z</time>
  <course>5.71</course>
  <speed>0.49254441424099005</speed>
  <fix>3d</fix>
</trkpt>
<trkpt lat="40.0717133" lon="-105.2298071">
  <ele>1583.0</ele>
  <time>2026-08-28T17:54:30Z</time>
  <course>4.53</course>
  <speed>0.51</speed>
  <fix>3d</fix>
</trkpt>
<trkpt lat="40.0717147" lon="-105.2298068">
  <ele>1583.01</ele>
  <time>2026-08-28T17:54:30Z</time>
  <course>5.72</course>
  <speed>0.49254441424099005</speed>
  <fix>3d</fix>
</trkpt>
<trkpt lat="40.0717142" lon="-105.229807">
  <ele>1583.0</ele>
  <time>2026-08-28T17:54:30Z</time>
  <course>4.53</course>
  <speed>0.51</speed>
  <fix>3d</fix>
</trkpt>
<trkpt lat="40.0717151" lon="-105.2298068">
  <ele>1583.01</ele>
  <time>2026-08-28T17:54:30Z</time>
  <course>5.72</course>
  <speed>0.49254441424099005</speed>
  <fix>3d</fix>
</trkpt>
<trkpt lat="40.0717142" lon="-105.229807">
  <ele>1583.0</ele>
  <time>2026-08-28T17:54:30Z</time>
  <course>4.53</course>
  <speed>0.51</speed>
  <fix>3d</fix>
</trkpt>
<trkpt lat="40.0717156" lon="-105.2298067">
  <ele>1583.01</ele>
  <time>2026-08-28T17:54:30Z</time>
  <course>5.73</course>
  <speed>0.49254441424099005</speed>
  <fix>3d</fix>
</trkpt>
<trkpt lat="40.0717152" lon="-105.2298069">
  <ele>1583.0</ele>
  <time>2026-08-28T17:54:30Z</time>
  <course>4.54</course>
  <speed>0.51</speed>
  <fix>3d</fix>
</trkpt>
<trkpt lat="40.0717161" lon="-105.2298067">
  <ele>1583.01</ele>
  <time>2026-08-28T17:54:30Z</time>
  <course>5.73</course>
  <speed>0.49254441424099005</speed>
  <fix>3d</fix>
</trkpt>
<trkpt lat="40.0717152" lon="-105.2298069">
  <ele>1583.0</ele>
  <time>2026-08-28T17:54:30Z</time>
  <course>4.54</course>
  <speed>0.51</speed>
  <fix>3d</fix>
</trkpt>
<trkpt lat="40.0717165" lon="-105.2298066">
  <ele>1583.01</ele>
  <time>2026-08-28T17:54:30Z</time>
  <course>5.74</course>
  <speed>0.49254441424099005</speed>
  <fix>3d</fix>
</trkpt>
<trkpt lat="40.0717161" lon="-105.2298068">
  <ele>1583.0</ele>
  <time>2026-08-28T17:54:30Z</time>
  <course>4.55</course>
  <speed>0.51</speed>
  <fix>3d</fix>
</trkpt>
<trkpt lat="40.071717" lon="-105.2298066">
  <ele>1583.01</ele>
  <time>2026-08-28T17:54:30Z</time>
  <course>5.74</course>
  <speed>0.49254441424099005</speed>
  <fix>3d</fix>
</trkpt>
<trkpt lat="40.0717161" lon="-105.2298068">
  <ele>1583.0</ele>
  <time>2026-08-28T17:54:30Z</time>
  <course>4.55</course>
  <speed>0.51</speed>
  <fix>3d</fix>
</trkpt>
<trkpt lat="40.0717175" lon="-105.2298065">
  <ele>1583.01</ele>
  <time>2026-08-28T17:54:30Z</time>
  <course>5.75</course>
  <speed>0.49254441424099005</speed>
  <fix>3d</fix>
</trkpt>
<trkpt lat="40.071717" lon="-105.2298067">
  <ele>1583.0</ele>
  <time>2026-08-28T17:54:30Z</time>
  <course>4.56</course>
  <speed>0.51</speed>
  <fix>3d</fix>
</trkpt>
<trkpt lat="40.0717179" lon="-105.2298065">
  <ele>1583.01</ele>
  <time>2026-08-28T17:54:30Z</time>
  <course>5.76</course>
  <speed>0.49254441424099005</speed>
  <fix>3d</fix>
</trkpt>
<trkpt lat="40.071717" lon="-105.2298067">
  <ele>1583.0</ele>
  <time>2026-08-28T17:54:30Z</time>
  <course>4.56</course>
  <speed>0.51</speed>
  <fix>3d</fix>
</trkpt>
<trkpt lat="40.0717184" lon="-105.2298064">
  <ele>1583.01</ele>
  <time>2026-08-28T17:54:30Z</time>
  <course>5.76</course>
  <speed>0.49254441424099005</speed>
  <fix>3d</fix>
</trkpt>
<trkpt lat="40.071717" lon="-105.2298067">
  <ele>1583.0</ele>
  <time>2026-08-28T17:54:30Z</time>
  <course>4.56</course>
  <speed>0.51</speed>
  <fix>3d</fix>
</trkpt>
<trkpt lat="40.0717189" lon="-105.2298064">
  <ele>1583.01</ele>
  <time>2026-08-28T17:54:30Z</time>
  <course>5.77</course>
  <speed>0.49254441424099005</speed>
  <fix>3d</fix>
</trkpt>
<trkpt lat="40.071718" lon="-105.2298067">
  <ele>1583.0</ele>
  <time>2026-08-28T17:54:30Z</time>
  <course>4.57</course>
  <speed>0.51</speed>
  <fix>3d</fix>
</trkpt>
<trkpt lat="40.0717193" lon="-105.2298063">
  <ele>1583.01</ele>
  <time>2026-08-28T17:54:30Z</time>
  <course>5.78</course>
  <speed>0.49254441424099005</speed>
  <fix>3d</fix>
</trkpt>
<trkpt lat="40.071718" lon="-105.2298067">
  <ele>1583.0</ele>
  <time>2026-08-28T17:54:30Z</time>
  <course>4.57</course>
  <speed>0.51</speed>
  <fix>3d</fix>
</trkpt>
<trkpt lat="40.0717198" lon="-105.2298063">
  <ele>1583.01</ele>
  <time>2026-08-28T17:54:30Z</time>
  <course>5.79</course>
  <speed>0.49254441424099005</speed>
  <fix>3d</fix>
</trkpt>
<trkpt lat="40.0717189" lon="-105.2298066">
  <ele>1583.0</ele>
  <time>2026-08-28T17:54:30Z</time>
  <course>4.58</course>
  <speed>0.51</speed>
  <fix>3d</fix>
</trkpt>
<trkpt lat="40.0717202" lon="-105.2298063">
  <ele>1583.01</ele>
  <time>2026-08-28T17:54:30Z</time>
  <course>5.79</course>
  <speed>0.49254441424099005</speed>
  <fix>3d</fix>
</trkpt>
<trkpt lat="40.0717189" lon="-105.2298066">
  <ele>1583.0</ele>
  <time>2026-08-28T17:54:30Z</time>
  <course>4.58</course>
  <speed>0.51</speed>
  <fix>3d</fix>
</trkpt>
<trkpt lat="40.0717207" lon="-105.2298062">
  <ele>1583.0</ele>
  <time>2026-08-28T17:54:30Z</time>
  <course>5.8</course>
  <speed>0.49254441424099005</speed>
  <fix>3d</fix>
</trkpt>
<trkpt lat="40.0717198" lon="-105.2298065">
  <ele>1583.0</ele>
  <time>2026-08-28T17:54:30Z</time>
  <course>4.59</course>
  <speed>0.51</speed>
  <fix>3d</fix>
</trkpt>
<trkpt lat="40.0717212" lon="-105.2298062">
  <ele>1583.0</ele>
  <time>2026-08-28T17:54:30Z</time>
  <course>5.8</course>
  <speed>0.49254441424099005</speed>
  <fix>3d</fix>
</trkpt>
<trkpt lat="40.0717198" lon="-105.2298065">
  <ele>1583.0</ele>
  <time>2026-08-28T17:54:30Z</time>
  <course>4.59</course>
  <speed>0.51</speed>
  <fix>3d</fix>
</trkpt>
<trkpt lat="40.0717216" lon="-105.2298061">
  <ele>1583.0</ele>
  <time>2026-08-28T17:54:30Z</time>
  <course>5.81</course>
  <speed>0.49254441424099005</speed>
  <fix>3d</fix>
</trkpt>
<trkpt lat="40.0717207" lon="-105.2298064">
  <ele>1583.0</ele>
  <time>2026-08-28T17:54:30Z</time>
  <course>4.6</course>
  <speed>0.51</speed>
  <fix>3d</fix>
</trkpt>
<trkpt lat="40.0717221" lon="-105.2298061">
  <ele>1583.0</ele>
  <time>2026-08-28T17:54:30Z</time>
  <course>5.82</course>
  <speed>0.49254441424099005</speed>
  <fix>3d</fix>
</trkpt>
<trkpt lat="40.0717217" lon="-105.2298063">
  <ele>1583.0</ele>
  <time>2026-08-28T17:54:30Z</time>
  <course>4.62</course>
  <speed>0.51</speed>
  <fix>3d</fix>
</trkpt>
<trkpt lat="40.0717225" lon="-105.229806">
  <ele>1583.0</ele>
  <time>2026-08-28T17:54:30Z</time>
  <course>5.83</course>
  <speed>0.49254441424099005</speed>
  <fix>3d</fix>
</trkpt>
<trkpt lat="40.0717217" lon="-105.2298063">
  <ele>1583.0</ele>
  <time>2026-08-28T17:54:30Z</time>
  <course>4.62</course>
  <speed>0.51</speed>
  <fix>3d</fix>
</trkpt>
<trkpt lat="40.071723" lon="-105.229806">
  <ele>1583.0</ele>
  <time>2026-08-28T17:54:30Z</time>
  <course>5.83</course>
  <speed>0.49254441424099005</speed>
  <fix>3d</fix>
</trkpt>
<trkpt lat="40.0717226" lon="-105.2298062">
  <ele>1583.0</ele>
  <time>2026-08-28T17:54:30Z</time>
  <course>4.63</course>
  <speed>0.51</speed>
  <fix>3d</fix>
</trkpt>
<trkpt lat="40.0717235" lon="-105.2298059">
  <ele>1583.0</ele>
  <time>2026-08-28T17:54:30Z</time>
  <course>5.84</course>
  <speed>0.49254441424099005</speed>
  <fix>3d</fix>
</trkpt>
<trkpt lat="40.0717226" lon="-105.2298062">
  <ele>1583.0</ele>
  <time>2026-08-28T17:54:30Z</time>
  <course>4.63</course>
  <speed>0.51</speed>
  <fix>3d</fix>
</trkpt>
<trkpt lat="40.0717239" lon="-105.2298059">
  <ele>1583.0</ele>
  <time>2026-08-28T17:54:30Z</time>
  <course>5.84</course>
  <speed>0.49254441424099005</speed>
  <fix>3d</fix>
</trkpt>
<trkpt lat="40.0717236" lon="-105.2298061">
  <ele>1583.0</ele>
  <time>2026-08-28T17:54:30Z</time>
  <course>4.64</course>
  <speed>0.51</speed>
  <fix>3d</fix>
</trkpt>
<trkpt lat="40.0717244" lon="-105.2298059">
  <ele>1582.99</ele>
  <time>2026-08-28T17:54:30Z</time>
  <course>5.85</course>
  <speed>0.49254441424099005</speed>
  <fix>3d</fix>
</trkpt>
<trkpt lat="40.0717236" lon="-105.2298061">
  <ele>1583.0</ele>
  <time>2026-08-28T17:54:30Z</time>
  <course>4.64</course>
  <speed>0.51</speed>
  <fix>3d</fix>
</trkpt>
<trkpt lat="40.0717249" lon="-105.2298058">
  <ele>1582.99</ele>
  <time>2026-08-28T17:54:30Z</time>
  <course>5.85</course>
  <speed>0.49254441424099005</speed>
  <fix>3d</fix>
</trkpt>
<trkpt lat="40.0717245" lon="-105.229806">
  <ele>1583.0</ele>
  <time>2026-08-28T17:54:30Z</time>
  <course>4.65</course>
  <speed>0.51</speed>
  <fix>3d</fix>
</trkpt>
<trkpt lat="40.0717253" lon="-105.2298058">
  <ele>1582.99</ele>
  <time>2026-08-28T17:54:30Z</time>
  <course>5.86</course>
  <speed>0.49254441424099005</speed>
  <fix>3d</fix>
</trkpt>
<trkpt lat="40.0717245" lon="-105.229806">
  <ele>1583.0</ele>
  <time>2026-08-28T17:54:30Z</time>
  <course>4.65</course>
  <speed>0.51</speed>
  <fix>3d</fix>
</trkpt>
<trkpt lat="40.0717258" lon="-105.2298057">
  <ele>1582.99</ele>
  <time>2026-08-28T17:54:30Z</time>
  <course>5.86</course>
  <speed>0.49254441424099005</speed>
  <fix>3d</fix>
</trkpt>
<trkpt lat="40.0717254" lon="-105.2298059">
  <ele>1583.0</ele>
  <time>2026-08-28T17:54:30Z</time>
  <course>4.66</course>
  <speed>0.51</speed>
  <fix>3d</fix>
</trkpt>
<trkpt lat="40.0717263" lon="-105.2298057">
  <ele>1582.99</ele>
  <time>2026-08-28T17:54:30Z</time>
  <course>5.87</course>
  <speed>0.49254441424099005</speed>
  <fix>3d</fix>
</trkpt>
<trkpt lat="40.0717254" lon="-105.2298059">
  <ele>1583.0</ele>
  <time>2026-08-28T17:54:30Z</time>
  <course>4.66</course>
  <speed>0.51</speed>
  <fix>3d</fix>
</trkpt>
<trkpt lat="40.0717268" lon="-105.2298056">
  <ele>1582.99</ele>
  <time>2026-08-28T17:54:30Z</time>
  <course>5.88</course>
  <speed>0.49254441424099005</speed>
  <fix>3d</fix>
</trkpt>
<trkpt lat="40.0717264" lon="-105.2298058">
  <ele>1583.0</ele>
  <time>2026-08-28T17:54:30Z</time>
  <course>4.67</course>
  <speed>0.51</speed>
  <fix>3d</fix>
</trkpt>
<trkpt lat="40.0717272" lon="-105.2298056">
  <ele>1583.0</ele>
  <time>2026-08-28T17:54:30Z</time>
  <course>5.88</course>
  <speed>0.49254441424099005</speed>
  <fix>3d</fix>
</trkpt>
<trkpt lat="40.0717264" lon="-105.2298058">
  <ele>1583.0</ele>
  <time>2026-08-28T17:54:30Z</time>
  <course>4.67</course>
  <speed>0.51</speed>
  <fix>3d</fix>
</trkpt>
<trkpt lat="40.0717277" lon="-105.2298055">
  <ele>1583.0</ele>
  <time>2026-08-28T17:54:30Z</time>
  <course>5.89</course>
  <speed>0.49254441424099005</speed>
  <fix>3d</fix>
</trkpt>
<trkpt lat="40.0717264" lon="-105.2298058">
  <ele>1583.0</ele>
  <time>2026-08-28T17:54:30Z</time>
  <course>4.67</course>
  <speed>0.51</speed>
  <fix>3d</fix>
</trkpt>
<trkpt lat="40.0717282" lon="-105.2298055">
  <ele>1583.0</ele>
  <time>2026-08-28T17:54:30Z</time>
  <course>5.9</course>
  <speed>0.49254441424099005</speed>
  <fix>3d</fix>
</trkpt>
<trkpt lat="40.0717273" lon="-105.2298057">
  <ele>1583.0</ele>
  <time>2026-08-28T17:54:30Z</time>
  <course>4.68</course>
  <speed>0.51</speed>
  <fix>3d</fix>
</trkpt>
<trkpt lat="40.0717286" lon="-105.2298054">
  <ele>1583.0</ele>
  <time>2026-08-28T17:54:30Z</time>
  <course>5.9</course>
  <speed>0.49254441424099005</speed>
  <fix>3d</fix>
</trkpt>
<trkpt lat="40.0717273" lon="-105.2298057">
  <ele>1583.0</ele>
  <time>2026-08-28T17:54:30Z</time>
  <course>4.68</course>
  <speed>0.51</speed>
  <fix>3d</fix>
</trkpt>
<trkpt lat="40.0717291" lon="-105.2298054">
  <ele>1583.0</ele>
  <time>2026-08-28T17:54:30Z</time>
  <course>5.91</course>
  <speed>0.49254441424099005</speed>
  <fix>3d</fix>
</trkpt>
<trkpt lat="40.0717282" lon="-105.2298056">
  <ele>1583.0</ele>
  <time>2026-08-28T17:54:30Z</time>
  <course>4.69</course>
  <speed>0.51</speed>
  <fix>3d</fix>
</trkpt>
<trkpt lat="40.0717295" lon="-105.2298053">
  <ele>1583.0</ele>
  <time>2026-08-28T17:54:30Z</time>
  <course>5.92</course>
  <speed>0.49254441424099005</speed>
  <fix>3d</fix>
</trkpt>
<trkpt lat="40.0717282" lon="-105.2298056">
  <ele>1583.0</ele>
  <time>2026-08-28T17:54:30Z</time>
  <course>4.69</course>
  <speed>0.51</speed>
  <fix>3d</fix>
</trkpt>
<trkpt lat="40.07173" lon="-105.2298053">
  <ele>1583.0</ele>
  <time>2026-08-28T17:54:30Z</time>
  <course>5.93</course>
  <speed>0.49254441424099005</speed>
  <fix>3d</fix>
</trkpt>
<trkpt lat="40.0717292" lon="-105.2298055">
  <ele>1583.0</ele>
  <time>2026-08-28T17:54:30Z</time>
  <course>4.71</course>
  <speed>0.51</speed>
  <fix>3d</fix>
</trkpt>
<trkpt lat="40.0717305" lon="-105.2298052">
  <ele>1583.0</ele>
  <time>2026-08-28T17:54:30Z</time>
  <course>5.93</course>
  <speed>0.49254441424099005</speed>
  <fix>3d</fix>
</trkpt>
<trkpt lat="40.0717292" lon="-105.2298055">
  <ele>1583.0</ele>
  <time>2026-08-28T17:54:30Z</time>
  <course>4.71</course>
  <speed>0.51</speed>
  <fix>3d</fix>
</trkpt>
<trkpt lat="40.0717309" lon="-105.2298052">
  <ele>1583.0</ele>
  <time>2026-08-28T17:54:30Z</time>
  <course>5.94</course>
  <speed>0.49254441424099005</speed>
  <fix>3d</fix>
</trkpt>
<trkpt lat="40.0717301" lon="-105.2298054">
  <ele>1583.0</ele>
  <time>2026-08-28T17:54:30Z</time>
  <course>4.72</course>
  <speed>0.51</speed>
  <fix>3d</fix>
</trkpt>
<trkpt lat="40.0717314" lon="-105.2298051">
  <ele>1583.0</ele>
  <time>2026-08-28T17:54:30Z</time>
  <course>5.95</course>
  <speed>0.49254441424099005</speed>
  <fix>3d</fix>
</trkpt>
<trkpt lat="40.071731" lon="-105.2298053">
  <ele>1583.0</ele>
  <time>2026-08-28T17:54:30Z</time>
  <course>4.74</course>
  <speed>0.51</speed>
  <fix>3d</fix>
</trkpt>
<trkpt lat="40.0717319" lon="-105.2298051">
  <ele>1583.0</ele>
  <time>2026-08-28T17:54:30Z</time>
  <course>5.96</course>
  <speed>0.49254441424099005</speed>
  <fix>3d</fix>
</trkpt>
<trkpt lat="40.071731" lon="-105.2298053">
  <ele>1583.0</ele>
  <time>2026-08-28T17:54:30Z</time>
  <course>4.74</course>
  <speed>0.51</speed>
  <fix>3d</fix>
</trkpt>
<trkpt lat="40.0717323" lon="-105.229805">
  <ele>1583.0</ele>
  <time>2026-08-28T17:54:30Z</time>
  <course>5.97</course>
  <speed>0.49254441424099005</speed>
  <fix>3d</fix>
</trkpt>
<trkpt lat="40.0717319" lon="-105.2298052">
  <ele>1583.0</ele>
  <time>2026-08-28T17:54:30Z</time>
  <course>4.76</course>
  <speed>0.51</speed>
  <fix>3d</fix>
</trkpt>
<trkpt lat="40.0717328" lon="-105.229805">
  <ele>1583.0</ele>
  <time>2026-08-28T17:54:30Z</time>
  <course>5.98</course>
  <speed>0.49254441424099005</speed>
  <fix>3d</fix>
</trkpt>
<trkpt lat="40.0717319" lon="-105.2298052">
  <ele>1583.0</ele>
  <time>2026-08-28T17:54:30Z</time>
  <course>4.76</course>
  <speed>0.51</speed>
  <fix>3d</fix>
</trkpt>
<trkpt lat="40.0717333" lon="-105.2298049">
  <ele>1583.0</ele>
  <time>2026-08-28T17:54:30Z</time>
  <course>5.99</course>
  <speed>0.49254441424099005</speed>
  <fix>3d</fix>
</trkpt>
<trkpt lat="40.0717329" lon="-105.2298051">
  <ele>1583.0</ele>
  <time>2026-08-28T17:54:30Z</time>
  <course>4.77</course>
  <speed>0.51</speed>
  <fix>3d</fix>
</trkpt>
<trkpt lat="40.0717337" lon="-105.2298049">
  <ele>1583.0</ele>
  <time>2026-08-28T17:54:30Z</time>
  <course>6.0</course>
  <speed>0.49254441424099005</speed>
  <fix>3d</fix>
</trkpt>
<trkpt lat="40.0717329" lon="-105.2298051">
  <ele>1583.0</ele>
  <time>2026-08-28T17:54:30Z</time>
  <course>4.77</course>
  <speed>0.51</speed>
  <fix>3d</fix>
</trkpt>
<trkpt lat="40.0717342" lon="-105.2298048">
  <ele>1583.0</ele>
  <time>2026-08-28T17:54:30Z</time>
  <course>6.01</course>
  <speed>0.49254441424099005</speed>
  <fix>3d</fix>
</trkpt>
<trkpt lat="40.0717338" lon="-105.229805">
  <ele>1583.0</ele>
  <time>2026-08-28T17:54:30Z</time>
  <course>4.79</course>
  <speed>0.51</speed>
  <fix>3d</fix>
</trkpt>
<trkpt lat="40.0717347" lon="-105.2298048">
  <ele>1583.0</ele>
  <time>2026-08-28T17:54:30Z</time>
  <course>6.02</course>
  <speed>0.49254441424099005</speed>
  <fix>3d</fix>
</trkpt>
<trkpt lat="40.0717338" lon="-105.229805">
  <ele>1583.0</ele>
  <time>2026-08-28T17:54:30Z</time>
  <course>4.79</course>
  <speed>0.51</speed>
  <fix>3d</fix>
</trkpt>
<trkpt lat="40.0717351" lon="-105.2298047">
  <ele>1583.01</ele>
  <time>2026-08-28T17:54:30Z</time>
  <course>6.02</course>
  <speed>0.49254441424099005</speed>
  <fix>3d</fix>
</trkpt>
<trkpt lat="40.0717347" lon="-105.2298049">
  <ele>1583.0</ele>
  <time>2026-08-28T17:54:30Z</time>
  <course>4.81</course>
  <speed>0.51</speed>
  <fix>3d</fix>
</trkpt>
<trkpt lat="40.0717356" lon="-105.2298047">
  <ele>1583.01</ele>
  <time>2026-08-28T17:54:30Z</time>
  <course>6.03</course>
  <speed>0.49254441424099005</speed>
  <fix>3d</fix>
</trkpt>
<trkpt lat="40.0717347" lon="-105.2298049">
  <ele>1583.0</ele>
  <time>2026-08-28T17:54:30Z</time>
  <course>4.81</course>
  <speed>0.51</speed>
  <fix>3d</fix>
</trkpt>
<trkpt lat="40.0717361" lon="-105.2298046">
  <ele>1583.01</ele>
  <time>2026-08-28T17:54:30Z</time>
  <course>6.04</course>
  <speed>0.49254441424099005</speed>
  <fix>3d</fix>
</trkpt>
<trkpt lat="40.0717357" lon="-105.2298048">
  <ele>1583.0</ele>
  <time>2026-08-28T17:54:30Z</time>
  <course>4.82</course>
  <speed>0.51</speed>
  <fix>3d</fix>
</trkpt>
<trkpt lat="40.0717365" lon="-105.2298046">
  <ele>1583.02</ele>
  <time>2026-08-28T17:54:30Z</time>
  <course>6.05</course>
  <speed>0.49254441424099005</speed>
  <fix>3d</fix>
</trkpt>
<trkpt lat="40.0717357" lon="-105.2298048">
  <ele>1583.0</ele>
  <time>2026-08-28T17:54:30Z</time>
  <course>4.82</course>
  <speed>0.51</speed>
  <fix>3d</fix>
</trkpt>
<trkpt lat="40.071737" lon="-105.2298045">
  <ele>1583.02</ele>
  <time>2026-08-28T17:54:30Z</time>
  <course>6.05</course>
  <speed>0.49254441424099005</speed>
  <fix>3d</fix>
</trkpt>
<trkpt lat="40.0717366" lon="-105.2298047">
  <ele>1583.0</ele>
  <time>2026-08-28T17:54:30Z</time>
  <course>4.84</course>
  <speed>0.51</speed>
  <fix>3d</fix>
</trkpt>
<trkpt lat="40.0717375" lon="-105.2298045">
  <ele>1583.02</ele>
  <time>2026-08-28T17:54:30Z</time>
  <course>6.06</course>
  <speed>0.49254441424099005</speed>
  <fix>3d</fix>
</trkpt>
<trkpt lat="40.0717366" lon="-105.2298047">
  <ele>1583.0</ele>
  <time>2026-08-28T17:54:30Z</time>
  <course>4.84</course>
  <speed>0.51</speed>
  <fix>3d</fix>
</trkpt>
<trkpt lat="40.0717379" lon="-105.2298044">
  <ele>1583.02</ele>
  <time>2026-08-28T17:54:30Z</time>
  <course>6.06</course>
  <speed>0.49254441424099005</speed>
  <fix>3d</fix>
</trkpt>
<trkpt lat="40.0717366" lon="-105.2298047">
  <ele>1583.0</ele>
  <time>2026-08-28T17:54:30Z</time>
  <course>4.84</course>
  <speed>0.51</speed>
  <fix>3d</fix>
</trkpt>
<trkpt lat="40.0717384" lon="-105.2298044">
  <ele>1583.02</ele>
  <time>2026-08-28T17:54:30Z</time>
  <course>6.07</course>
  <speed>0.49254441424099005</speed>
  <fix>3d</fix>
</trkpt>
<trkpt lat="40.0717375" lon="-105.2298046">
  <ele>1583.0</ele>
  <time>2026-08-28T17:54:30Z</time>
  <course>4.85</course>
  <speed>0.51</speed>
  <fix>3d</fix>
</trkpt>
<trkpt lat="40.0717389" lon="-105.2298043">
  <ele>1583.02</ele>
  <time>2026-08-28T17:54:30Z</time>
  <course>6.08</course>
  <speed>0.49254441424099005</speed>
  <fix>3d</fix>
</trkpt>
<trkpt lat="40.0717375" lon="-105.2298046">
  <ele>1583.0</ele>
  <time>2026-08-28T17:54:30Z</time>
  <course>4.85</course>
  <speed>0.51</speed>
  <fix>3d</fix>
</trkpt>
<trkpt lat="40.0717393" lon="-105.2298043">
  <ele>1583.02</ele>
  <time>2026-08-28T17:54:30Z</time>
  <course>6.09</course>
  <speed>0.49254441424099005</speed>
  <fix>3d</fix>
</trkpt>
<trkpt lat="40.0717384" lon="-105.2298044">
  <ele>1583.0</ele>
  <time>2026-08-28T17:54:30Z</time>
  <course>4.86</course>
  <speed>0.51</speed>
  <fix>3d</fix>
</trkpt>
<trkpt lat="40.0717398" lon="-105.2298042">
  <ele>1583.02</ele>
  <time>2026-08-28T17:54:30Z</time>
  <course>6.09</course>
  <speed>0.49254441424099005</speed>
  <fix>3d</fix>
</trkpt>
<trkpt lat="40.0717384" lon="-105.2298044">
  <ele>1583.0</ele>
  <time>2026-08-28T17:54:30Z</time>
  <course>4.86</course>
  <speed>0.51</speed>
  <fix>3d</fix>
</trkpt>
<trkpt lat="40.0717402" lon="-105.2298041">
  <ele>1583.02</ele>
  <time>2026-08-28T17:54:30Z</time>
  <course>6.1</course>
  <speed>0.49254441424099005</speed>
  <fix>3d</fix>
</trkpt>
<trkpt lat="40.0717394" lon="-105.2298043">
  <ele>1583.0</ele>
  <time>2026-08-28T17:54:30Z</time>
  <course>4.88</course>
  <speed>0.51</speed>
  <fix>3d</fix>
</trkpt>
<trkpt lat="40.0717407" lon="-105.2298041">
  <ele>1583.01</ele>
  <time>2026-08-28T17:54:30Z</time>
  <course>6.11</course>
  <speed>0.4936598018878993</speed>
  <fix>3d</fix>
</trkpt>
<trkpt lat="40.0717403" lon="-105.2298042">
  <ele>1583.0</ele>
  <time>2026-08-28T17:54:30Z</time>
  <course>4.89</course>
  <speed>0.51</speed>
  <fix>3d</fix>
</trkpt>
<trkpt lat="40.0717412" lon="-105.229804">
  <ele>1583.01</ele>
  <time>2026-08-28T17:54:30Z</time>
  <course>6.12</course>
  <speed>0.4936598018878993</speed>
  <fix>3d</fix>
</trkpt>
<trkpt lat="40.0717403" lon="-105.2298042">
  <ele>1583.0</ele>
  <time>2026-08-28T17:54:30Z</time>
  <course>4.89</course>
  <speed>0.51</speed>
  <fix>3d</fix>
</trkpt>
<trkpt lat="40.0717416" lon="-105.229804">
  <ele>1583.0</ele>
  <time>2026-08-28T17:54:30Z</time>
  <course>6.13</course>
  <speed>0.4936598018878993</speed>
  <fix>3d</fix>
</trkpt>
<trkpt lat="40.0717412" lon="-105.2298041">
  <ele>1583.0</ele>
  <time>2026-08-28T17:54:30Z</time>
  <course>4.91</course>
  <speed>0.51</speed>
  <fix>3d</fix>
</trkpt>
<trkpt lat="40.0717421" lon="-105.2298039">
  <ele>1583.0</ele>
  <time>2026-08-28T17:54:30Z</time>
  <course>6.14</course>
  <speed>0.4936598018878993</speed>
  <fix>3d</fix>
</trkpt>
<trkpt lat="40.0717412" lon="-105.2298041">
  <ele>1583.0</ele>
  <time>2026-08-28T17:54:30Z</time>
  <course>4.91</course>
  <speed>0.51</speed>
  <fix>3d</fix>
</trkpt>
<trkpt lat="40.0717425" lon="-105.2298039">
  <ele>1583.0</ele>
  <time>2026-08-28T17:54:30Z</time>
  <course>6.14</course>
  <speed>0.4936598018878993</speed>
  <fix>3d</fix>
</trkpt>
<trkpt lat="40.0717421" lon="-105.229804">
  <ele>1583.0</ele>
  <time>2026-08-28T17:54:30Z</time>
  <course>4.92</course>
  <speed>0.51</speed>
  <fix>3d</fix>
</trkpt>
<trkpt lat="40.071743" lon="-105.2298038">
  <ele>1583.0</ele>
  <time>2026-08-28T17:54:30Z</time>
  <course>6.15</course>
  <speed>0.4936598018878993</speed>
  <fix>3d</fix>
</trkpt>
<trkpt lat="40.0717421" lon="-105.229804">
  <ele>1583.0</ele>
  <time>2026-08-28T17:54:30Z</time>
  <course>4.92</course>
  <speed>0.51</speed>
  <fix>3d</fix>
</trkpt>
<trkpt lat="40.0717435" lon="-105.2298037">
  <ele>1583.0</ele>
  <time>2026-08-28T17:54:30Z</time>
  <course>6.16</course>
  <speed>0.4936598018878993</speed>
  <fix>3d</fix>
</trkpt>
<trkpt lat="40.0717431" lon="-105.2298039">
  <ele>1583.0</ele>
  <time>2026-08-28T17:54:30Z</time>
  <course>4.94</course>
  <speed>0.51</speed>
  <fix>3d</fix>
</trkpt>
<trkpt lat="40.0717439" lon="-105.2298037">
  <ele>1583.01</ele>
  <time>2026-08-28T17:54:30Z</time>
  <course>6.16</course>
  <speed>0.4936598018878993</speed>
  <fix>3d</fix>
</trkpt>
<trkpt lat="40.0717431" lon="-105.2298039">
  <ele>1583.0</ele>
  <time>2026-08-28T17:54:30Z</time>
  <course>4.94</course>
  <speed>0.51</speed>
  <fix>3d</fix>
</trkpt>
<trkpt lat="40.0717444" lon="-105.2298036">
  <ele>1583.01</ele>
  <time>2026-08-28T17:54:30Z</time>
  <course>6.18</course>
  <speed>0.4936598018878993</speed>
  <fix>3d</fix>
</trkpt>
<trkpt lat="40.071744" lon="-105.2298038">
  <ele>1583.0</ele>
  <time>2026-08-28T17:54:30Z</time>
  <course>4.96</course>
  <speed>0.51</speed>
  <fix>3d</fix>
</trkpt>
<trkpt lat="40.0717449" lon="-105.2298036">
  <ele>1583.01</ele>
  <time>2026-08-28T17:54:30Z</time>
  <course>6.18</course>
  <speed>0.4936598018878993</speed>
  <fix>3d</fix>
</trkpt>
<trkpt lat="40.071744" lon="-105.2298038">
  <ele>1583.0</ele>
  <time>2026-08-28T17:54:30Z</time>
  <course>4.96</course>
  <speed>0.51</speed>
  <fix>3d</fix>
</trkpt>
<trkpt lat="40.0717453" lon="-105.2298035">
  <ele>1583.02</ele>
  <time>2026-08-28T17:54:30Z</time>
  <course>6.19</course>
  <speed>0.4936598018878993</speed>
  <fix>3d</fix>
</trkpt>
<trkpt lat="40.0717449" lon="-105.2298037">
  <ele>1583.0</ele>
  <time>2026-08-28T17:54:30Z</time>
  <course>4.97</course>
  <speed>0.51</speed>
  <fix>3d</fix>
</trkpt>
<trkpt lat="40.0717458" lon="-105.2298035">
  <ele>1583.02</ele>
  <time>2026-08-28T17:54:30Z</time>
  <course>6.19</course>
  <speed>0.4936598018878993</speed>
  <fix>3d</fix>
</trkpt>
<trkpt lat="40.0717449" lon="-105.2298037">
  <ele>1583.0</ele>
  <time>2026-08-28T17:54:30Z</time>
  <course>4.97</course>
  <speed>0.51</speed>
  <fix>3d</fix>
</trkpt>
<trkpt lat="40.0717463" lon="-105.2298034">
  <ele>1583.02</ele>
  <time>2026-08-28T17:54:30Z</time>
  <course>6.2</course>
  <speed>0.4936598018878993</speed>
  <fix>3d</fix>
</trkpt>
<trkpt lat="40.0717458" lon="-105.2298036">
  <ele>1583.0</ele>
  <time>2026-08-28T17:54:30Z</time>
  <course>4.98</course>
  <speed>0.51</speed>
  <fix>3d</fix>
</trkpt>
<trkpt lat="40.0717467" lon="-105.2298034">
  <ele>1583.02</ele>
  <time>2026-08-28T17:54:30Z</time>
  <course>6.2</course>
  <speed>0.4936598018878993</speed>
  <fix>3d</fix>
</trkpt>
<trkpt lat="40.0717458" lon="-105.2298036">
  <ele>1583.0</ele>
  <time>2026-08-28T17:54:30Z</time>
  <course>4.98</course>
  <speed>0.51</speed>
  <fix>3d</fix>
</trkpt>
<trkpt lat="40.0717472" lon="-105.2298033">
  <ele>1583.02</ele>
  <time>2026-08-28T17:54:30Z</time>
  <course>6.21</course>
  <speed>0.4936598018878993</speed>
  <fix>3d</fix>
</trkpt>
<trkpt lat="40.0717458" lon="-105.2298036">
  <ele>1583.0</ele>
  <time>2026-08-28T17:54:30Z</time>
  <course>4.98</course>
  <speed>0.51</speed>
  <fix>3d</fix>
</trkpt>
<trkpt lat="40.0717477" lon="-105.2298032">
  <ele>1583.02</ele>
  <time>2026-08-28T17:54:30Z</time>
  <course>6.21</course>
  <speed>0.4936598018878993</speed>
  <fix>3d</fix>
</trkpt>
<trkpt lat="40.0717468" lon="-105.2298035">
  <ele>1583.0</ele>
  <time>2026-08-28T17:54:30Z</time>
  <course>4.99</course>
  <speed>0.51</speed>
  <fix>3d</fix>
</trkpt>
<trkpt lat="40.0717481" lon="-105.2298032">
  <ele>1583.02</ele>
  <time>2026-08-28T17:54:30Z</time>
  <course>6.22</course>
  <speed>0.4936598018878993</speed>
  <fix>3d</fix>
</trkpt>
<trkpt lat="40.0717468" lon="-105.2298035">
  <ele>1583.0</ele>
  <time>2026-08-28T17:54:30Z</time>
  <course>4.99</course>
  <speed>0.51</speed>
  <fix>3d</fix>
</trkpt>
<trkpt lat="40.0717486" lon="-105.2298031">
  <ele>1583.02</ele>
  <time>2026-08-28T17:54:30Z</time>
  <course>6.23</course>
  <speed>0.4936598018878993</speed>
  <fix>3d</fix>
</trkpt>
<trkpt lat="40.0717477" lon="-105.2298034">
  <ele>1583.0</ele>
  <time>2026-08-28T17:54:30Z</time>
  <course>5.0</course>
  <speed>0.51</speed>
  <fix>3d</fix>
</trkpt>
<trkpt lat="40.071749" lon="-105.2298031">
  <ele>1583.03</ele>
  <time>2026-08-28T17:54:30Z</time>
  <course>6.23</course>
  <speed>0.4936598018878993</speed>
  <fix>3d</fix>
</trkpt>
<trkpt lat="40.0717477" lon="-105.2298034">
  <ele>1583.0</ele>
  <time>2026-08-28T17:54:30Z</time>
  <course>5.0</course>
  <speed>0.51</speed>
  <fix>3d</fix>
</trkpt>
<trkpt lat="40.0717495" lon="-105.229803">
  <ele>1583.03</ele>
  <time>2026-08-28T17:54:30Z</time>
  <course>6.24</course>
  <speed>0.4936598018878993</speed>
  <fix>3d</fix>
</trkpt>
<trkpt lat="40.0717486" lon="-105.2298033">
  <ele>1583.0</ele>
  <time>2026-08-28T17:54:30Z</time>
  <course>5.01</course>
  <speed>0.51</speed>
  <fix>3d</fix>
</trkpt>
<trkpt lat="40.0717499" lon="-105.229803">
  <ele>1583.03</ele>
  <time>2026-08-28T17:54:30Z</time>
  <course>6.24</course>
  <speed>0.4936598018878993</speed>
  <fix>3d</fix>
</trkpt>
<trkpt lat="40.0717486" lon="-105.2298033">
  <ele>1583.0</ele>
  <time>2026-08-28T17:54:30Z</time>
  <course>5.01</course>
  <speed>0.51</speed>
  <fix>3d</fix>
</trkpt>
<trkpt lat="40.0717504" lon="-105.2298029">
  <ele>1583.03</ele>
  <time>2026-08-28T17:54:30Z</time>
  <course>6.25</course>
  <speed>0.4936598018878993</speed>
  <fix>3d</fix>
</trkpt>
<trkpt lat="40.0717495" lon="-105.2298032">
  <ele>1583.0</ele>
  <time>2026-08-28T17:54:30Z</time>
  <course>5.02</course>
  <speed>0.51</speed>
  <fix>3d</fix>
</trkpt>
<trkpt lat="40.0717509" lon="-105.2298029">
  <ele>1583.04</ele>
  <time>2026-08-28T17:54:30Z</time>
  <course>6.25</course>
  <speed>0.4936598018878993</speed>
  <fix>3d</fix>
</trkpt>
<trkpt lat="40.0717505" lon="-105.2298031">
  <ele>1583.0</ele>
  <time>2026-08-28T17:54:30Z</time>
  <course>5.03</course>
  <speed>0.51</speed>
  <fix>3d</fix>
</trkpt>
<trkpt lat="40.0717513" lon="-105.2298028">
  <ele>1583.04</ele>
  <time>2026-08-28T17:54:30Z</time>
  <course>6.26</course>
  <speed>0.4936598018878993</speed>
  <fix>3d</fix>
</trkpt>
<trkpt lat="40.0717505" lon="-105.2298031">
  <ele>1583.0</ele>
  <time>2026-08-28T17:54:30Z</time>
  <course>5.03</course>
  <speed>0.51</speed>
  <fix>3d</fix>
</trkpt>
<trkpt lat="40.0717518" lon="-105.2298028">
  <ele>1583.05</ele>
  <time>2026-08-28T17:54:30Z</time>
  <course>6.26</course>
  <speed>0.4936598018878993</speed>
  <fix>3d</fix>
</trkpt>
<trkpt lat="40.0717514" lon="-105.229803">
  <ele>1583.0</ele>
  <time>2026-08-28T17:54:30Z</time>
  <course>5.04</course>
  <speed>0.51</speed>
  <fix>3d</fix>
</trkpt>
<trkpt lat="40.0717523" lon="-105.2298027">
  <ele>1583.05</ele>
  <time>2026-08-28T17:54:30Z</time>
  <course>6.27</course>
  <speed>0.4936598018878993</speed>
  <fix>3d</fix>
</trkpt>
<trkpt lat="40.0717514" lon="-105.229803">
  <ele>1583.0</ele>
  <time>2026-08-28T17:54:30Z</time>
  <course>5.04</course>
  <speed>0.51</speed>
  <fix>3d</fix>
</trkpt>
<trkpt lat="40.0717527" lon="-105.2298027">
  <ele>1583.05</ele>
  <time>2026-08-28T17:54:30Z</time>
  <course>6.27</course>
  <speed>0.4936598018878993</speed>
  <fix>3d</fix>
</trkpt>
<trkpt lat="40.0717523" lon="-105.2298029">
  <ele>1583.0</ele>
  <time>2026-08-28T17:54:30Z</time>
  <course>5.05</course>
  <speed>0.51</speed>
  <fix>3d</fix>
</trkpt>
<trkpt lat="40.0717532" lon="-105.2298026">
  <ele>1583.05</ele>
  <time>2026-08-28T17:54:30Z</time>
  <course>6.28</course>
  <speed>0.4936598018878993</speed>
  <fix>3d</fix>
</trkpt>
<trkpt lat="40.0717523" lon="-105.2298029">
  <ele>1583.0</ele>
  <time>2026-08-28T17:54:30Z</time>
  <course>5.05</course>
  <speed>0.51</speed>
  <fix>3d</fix>
</trkpt>
<trkpt lat="40.0717536" lon="-105.2298026">
  <ele>1583.05</ele>
  <time>2026-08-28T17:54:30Z</time>
  <course>6.29</course>
  <speed>0.4936598018878993</speed>
  <fix>3d</fix>
</trkpt>
<trkpt lat="40.0717533" lon="-105.2298028">
  <ele>1583.0</ele>
  <time>2026-08-28T17:54:30Z</time>
  <course>5.07</course>
  <speed>0.51</speed>
  <fix>3d</fix>
</trkpt>
<trkpt lat="40.0717541" lon="-105.2298025">
  <ele>1583.05</ele>
  <time>2026-08-28T17:54:30Z</time>
  <course>6.29</course>
  <speed>0.4936598018878993</speed>
  <fix>3d</fix>
</trkpt>
<trkpt lat="40.0717533" lon="-105.2298028">
  <ele>1583.0</ele>
  <time>2026-08-28T17:54:30Z</time>
  <course>5.07</course>
  <speed>0.51</speed>
  <fix>3d</fix>
</trkpt>
<trkpt lat="40.0717546" lon="-105.2298025">
  <ele>1583.05</ele>
  <time>2026-08-28T17:54:30Z</time>
  <course>6.3</course>
  <speed>0.4936598018878993</speed>
  <fix>3d</fix>
</trkpt>
<trkpt lat="40.0717542" lon="-105.2298026">
  <ele>1583.0</ele>
  <time>2026-08-28T17:54:30Z</time>
  <course>5.08</course>
  <speed>0.51</speed>
  <fix>3d</fix>
</trkpt>
<trkpt lat="40.0717551" lon="-105.2298024">
  <ele>1583.05</ele>
  <time>2026-08-28T17:54:30Z</time>
  <course>6.3</course>
  <speed>0.4936598018878993</speed>
  <fix>3d</fix>
</trkpt>
<trkpt lat="40.0717542" lon="-105.2298026">
  <ele>1583.0</ele>
  <time>2026-08-28T17:54:30Z</time>
  <course>5.08</course>
  <speed>0.51</speed>
  <fix>3d</fix>
</trkpt>
<trkpt lat="40.0717555" lon="-105.2298024">
  <ele>1583.05</ele>
  <time>2026-08-28T17:54:30Z</time>
  <course>6.31</course>
  <speed>0.4936598018878993</speed>
  <fix>3d</fix>
</trkpt>
<trkpt lat="40.0717551" lon="-105.2298025">
  <ele>1583.0</ele>
  <time>2026-08-28T17:54:30Z</time>
  <course>5.09</course>
  <speed>0.51</speed>
  <fix>3d</fix>
</trkpt>
<trkpt lat="40.071756" lon="-105.2298023">
  <ele>1583.05</ele>
  <time>2026-08-28T17:54:30Z</time>
  <course>6.31</course>
  <speed>0.4936598018878993</speed>
  <fix>3d</fix>
</trkpt>
<trkpt lat="40.0717551" lon="-105.2298025">
  <ele>1583.0</ele>
  <time>2026-08-28T17:54:30Z</time>
  <course>5.09</course>
  <speed>0.51</speed>
  <fix>3d</fix>
</trkpt>
<trkpt lat="40.0717565" lon="-105.2298022">
  <ele>1583.05</ele>
  <time>2026-08-28T17:54:30Z</time>
  <course>6.32</course>
  <speed>0.4936598018878993</speed>
  <fix>3d</fix>
</trkpt>
<trkpt lat="40.071756" lon="-105.2298024">
  <ele>1583.0</ele>
  <time>2026-08-28T17:54:30Z</time>
  <course>5.1</course>
  <speed>0.51</speed>
  <fix>3d</fix>
</trkpt>
<trkpt lat="40.0717569" lon="-105.2298022">
  <ele>1583.05</ele>
  <time>2026-08-28T17:54:30Z</time>
  <course>6.33</course>
  <speed>0.4936598018878993</speed>
  <fix>3d</fix>
</trkpt>
<trkpt lat="40.071756" lon="-105.2298024">
  <ele>1583.0</ele>
  <time>2026-08-28T17:54:30Z</time>
  <course>5.1</course>
  <speed>0.51</speed>
  <fix>3d</fix>
</trkpt>
<trkpt lat="40.0717574" lon="-105.2298021">
  <ele>1583.05</ele>
  <time>2026-08-28T17:54:30Z</time>
  <course>6.33</course>
  <speed>0.4936598018878993</speed>
  <fix>3d</fix>
</trkpt>
<trkpt lat="40.071756" lon="-105.2298024">
  <ele>1583.0</ele>
  <time>2026-08-28T17:54:30Z</time>
  <course>5.1</course>
  <speed>0.51</speed>
  <fix>3d</fix>
</trkpt>
<trkpt lat="40.0717578" lon="-105.2298021">
  <ele>1583.05</ele>
  <time>2026-08-28T17:54:30Z</time>
  <course>6.34</course>
  <speed>0.4936598018878993</speed>
  <fix>3d</fix>
</trkpt>
<trkpt lat="40.071757" lon="-105.2298023">
  <ele>1583.0</ele>
  <time>2026-08-28T17:54:30Z</time>
  <course>5.12</course>
  <speed>0.51</speed>
  <fix>3d</fix>
</trkpt>
<trkpt lat="40.0717583" lon="-105.229802">
  <ele>1583.04</ele>
  <time>2026-08-28T17:54:30Z</time>
  <course>6.35</course>
  <speed>0.4936598018878993</speed>
  <fix>3d</fix>
</trkpt>
<trkpt lat="40.071757" lon="-105.2298023">
  <ele>1583.0</ele>
  <time>2026-08-28T17:54:30Z</time>
  <course>5.12</course>
  <speed>0.51</speed>
  <fix>3d</fix>
</trkpt>
<trkpt lat="40.0717588" lon="-105.229802">
  <ele>1583.04</ele>
  <time>2026-08-28T17:54:30Z</time>
  <course>6.35</course>
  <speed>0.4936598018878993</speed>
  <fix>3d</fix>
</trkpt>
<trkpt lat="40.0717579" lon="-105.2298022">
  <ele>1583.0</ele>
  <time>2026-08-28T17:54:30Z</time>
  <course>5.13</course>
  <speed>0.51</speed>
  <fix>3d</fix>
</trkpt>
<trkpt lat="40.0717592" lon="-105.2298019">
  <ele>1583.04</ele>
  <time>2026-08-28T17:54:30Z</time>
  <course>6.36</course>
  <speed>0.4936598018878993</speed>
  <fix>3d</fix>
</trkpt>
<trkpt lat="40.0717579" lon="-105.2298022">
  <ele>1583.0</ele>
  <time>2026-08-28T17:54:30Z</time>
  <course>5.13</course>
  <speed>0.51</speed>
  <fix>3d</fix>
</trkpt>
<trkpt lat="40.0717597" lon="-105.2298018">
  <ele>1583.04</ele>
  <time>2026-08-28T17:54:30Z</time>
  <course>6.37</course>
  <speed>0.4936598018878993</speed>
  <fix>3d</fix>
</trkpt>
<trkpt lat="40.0717588" lon="-105.2298021">
  <ele>1583.0</ele>
  <time>2026-08-28T17:54:30Z</time>
  <course>5.14</course>
  <speed>0.51</speed>
  <fix>3d</fix>
</trkpt>
<trkpt lat="40.0717601" lon="-105.2298018">
  <ele>1583.04</ele>
  <time>2026-08-28T17:54:30Z</time>
  <course>6.38</course>
  <speed>0.4936598018878993</speed>
  <fix>3d</fix>
</trkpt>
<trkpt lat="40.0717597" lon="-105.229802">
  <ele>1583.0</ele>
  <time>2026-08-28T17:54:30Z</time>
  <course>5.16</course>
  <speed>0.51</speed>
  <fix>3d</fix>
</trkpt>
<trkpt lat="40.0717606" lon="-105.2298017">
  <ele>1583.04</ele>
  <time>2026-08-28T17:54:30Z</time>
  <course>6.39</course>
  <speed>0.4936598018878993</speed>
  <fix>3d</fix>
</trkpt>
<trkpt lat="40.0717597" lon="-105.229802">
  <ele>1583.0</ele>
  <time>2026-08-28T17:54:30Z</time>
  <course>5.16</course>
  <speed>0.51</speed>
  <fix>3d</fix>
</trkpt>
<trkpt lat="40.0717611" lon="-105.2298017">
  <ele>1583.04</ele>
  <time>2026-08-28T17:54:30Z</time>
  <course>6.4</course>
  <speed>0.4936598018878993</speed>
  <fix>3d</fix>
</trkpt>
<trkpt lat="40.0717607" lon="-105.2298019">
  <ele>1583.0</ele>
  <time>2026-08-28T17:54:30Z</time>
  <course>5.18</course>
  <speed>0.51</speed>
  <fix>3d</fix>
</trkpt>
<trkpt lat="40.0717615" lon="-105.2298016">
  <ele>1583.04</ele>
  <time>2026-08-28T17:54:30Z</time>
  <course>6.4</course>
  <speed>0.4936598018878993</speed>
  <fix>3d</fix>
</trkpt>
<trkpt lat="40.0717607" lon="-105.2298019">
  <ele>1583.0</ele>
  <time>2026-08-28T17:54:30Z</time>
  <course>5.18</course>
  <speed>0.51</speed>
  <fix>3d</fix>
</trkpt>
<trkpt lat="40.071762" lon="-105.2298016">
  <ele>1583.04</ele>
  <time>2026-08-28T17:54:30Z</time>
  <course>6.41</course>
  <speed>0.4936598018878993</speed>
  <fix>3d</fix>
</trkpt>
<trkpt lat="40.0717616" lon="-105.2298018">
  <ele>1583.0</ele>
  <time>2026-08-28T17:54:30Z</time>
  <course>5.19</course>
  <speed>0.51</speed>
  <fix>3d</fix>
</trkpt>
<trkpt lat="40.0717625" lon="-105.2298015">
  <ele>1583.04</ele>
  <time>2026-08-28T17:54:30Z</time>
  <course>6.42</course>
  <speed>0.4936598018878993</speed>
  <fix>3d</fix>
</trkpt>
<trkpt lat="40.0717616" lon="-105.2298018">
  <ele>1583.0</ele>
  <time>2026-08-28T17:54:30Z</time>
  <course>5.19</course>
  <speed>0.51</speed>
  <fix>3d</fix>
</trkpt>
<trkpt lat="40.0717629" lon="-105.2298015">
  <ele>1583.04</ele>
  <time>2026-08-28T17:54:30Z</time>
  <course>6.43</course>
  <speed>0.4936598018878993</speed>
  <fix>3d</fix>
</trkpt>
<trkpt lat="40.0717625" lon="-105.2298017">
  <ele>1583.0</ele>
  <time>2026-08-28T17:54:30Z</time>
  <course>5.21</course>
  <speed>0.51</speed>
  <fix>3d</fix>
</trkpt>
<trkpt lat="40.0717634" lon="-105.2298014">
  <ele>1583.04</ele>
  <time>2026-08-28T17:54:30Z</time>
  <course>6.43</course>
  <speed>0.4936598018878993</speed>
  <fix>3d</fix>
</trkpt>
<trkpt lat="40.0717625" lon="-105.2298017">
  <ele>1583.0</ele>
  <time>2026-08-28T17:54:30Z</time>
  <course>5.21</course>
  <speed>0.51</speed>
  <fix>3d</fix>
</trkpt>
<trkpt lat="40.0717639" lon="-105.2298014">
  <ele>1583.04</ele>
  <time>2026-08-28T17:54:30Z</time>
  <course>6.44</course>
  <speed>0.4936598018878993</speed>
  <fix>3d</fix>
</trkpt>
<trkpt lat="40.0717635" lon="-105.2298016">
  <ele>1583.0</ele>
  <time>2026-08-28T17:54:30Z</time>
  <course>5.22</course>
  <speed>0.51</speed>
  <fix>3d</fix>
</trkpt>
<trkpt lat="40.0717643" lon="-105.2298013">
  <ele>1583.05</ele>
  <time>2026-08-28T17:54:30Z</time>
  <course>6.45</course>
  <speed>0.4936598018878993</speed>
  <fix>3d</fix>
</trkpt>
<trkpt lat="40.0717635" lon="-105.2298016">
  <ele>1583.0</ele>
  <time>2026-08-28T17:54:30Z</time>
  <course>5.22</course>
  <speed>0.51</speed>
  <fix>3d</fix>
</trkpt>
<trkpt lat="40.0717648" lon="-105.2298013">
  <ele>1583.05</ele>
  <time>2026-08-28T17:54:30Z</time>
  <course>6.45</course>
  <speed>0.4936598018878993</speed>
  <fix>3d</fix>
</trkpt>
<trkpt lat="40.0717644" lon="-105.2298015">
  <ele>1583.0</ele>
  <time>2026-08-28T17:54:30Z</time>
  <course>5.23</course>
  <speed>0.51</speed>
  <fix>3d</fix>
</trkpt>
<trkpt lat="40.0717653" lon="-105.2298012">
  <ele>1583.05</ele>
  <time>2026-08-28T17:54:30Z</time>
  <course>6.46</course>
  <speed>0.4936598018878993</speed>
  <fix>3d</fix>
</trkpt>
<trkpt lat="40.0717644" lon="-105.2298015">
  <ele>1583.0</ele>
  <time>2026-08-28T17:54:30Z</time>
  <course>5.23</course>
  <speed>0.51</speed>
  <fix>3d</fix>
</trkpt>
<trkpt lat="40.0717657" lon="-105.2298011">
  <ele>1583.05</ele>
  <time>2026-08-28T17:54:30Z</time>
  <course>6.46</course>
  <speed>0.4936598018878993</speed>
  <fix>3d</fix>
</trkpt>
<trkpt lat="40.0717653" lon="-105.2298013">
  <ele>1583.0</ele>
  <time>2026-08-28T17:54:30Z</time>
  <course>5.25</course>
  <speed>0.51</speed>
  <fix>3d</fix>
</trkpt>
<trkpt lat="40.0717662" lon="-105.2298011">
  <ele>1583.04</ele>
  <time>2026-08-28T17:54:30Z</time>
  <course>6.47</course>
  <speed>0.4936598018878993</speed>
  <fix>3d</fix>
</trkpt>
<trkpt lat="40.0717653" lon="-105.2298013">
  <ele>1583.0</ele>
  <time>2026-08-28T17:54:30Z</time>
  <course>5.25</course>
  <speed>0.51</speed>
  <fix>3d</fix>
</trkpt>
<trkpt lat="40.0717667" lon="-105.229801">
  <ele>1583.04</ele>
  <time>2026-08-28T17:54:30Z</time>
  <course>6.48</course>
  <speed>0.4936598018878993</speed>
  <fix>3d</fix>
</trkpt>
<trkpt lat="40.0717653" lon="-105.2298013">
  <ele>1583.0</ele>
  <time>2026-08-28T17:54:30Z</time>
  <course>5.25</course>
  <speed>0.51</speed>
  <fix>3d</fix>
</trkpt>
<trkpt lat="40.0717671" lon="-105.229801">
  <ele>1583.04</ele>
  <time>2026-08-28T17:54:30Z</time>
  <course>6.49</course>
  <speed>0.4936598018878993</speed>
  <fix>3d</fix>
</trkpt>
<trkpt lat="40.0717663" lon="-105.2298012">
  <ele>1583.0</ele>
  <time>2026-08-28T17:54:30Z</time>
  <course>5.26</course>
  <speed>0.51</speed>
  <fix>3d</fix>
</trkpt>
<trkpt lat="40.0717676" lon="-105.2298009">
  <ele>1583.03</ele>
  <time>2026-08-28T17:54:30Z</time>
  <course>6.5</course>
  <speed>0.4936598018878993</speed>
  <fix>3d</fix>
</trkpt>
<trkpt lat="40.0717663" lon="-105.2298012">
  <ele>1583.0</ele>
  <time>2026-08-28T17:54:30Z</time>
  <course>5.26</course>
  <speed>0.51</speed>
  <fix>3d</fix>
</trkpt>
<trkpt lat="40.071768" lon="-105.2298009">
  <ele>1583.03</ele>
  <time>2026-08-28T17:54:30Z</time>
  <course>6.5</course>
  <speed>0.4936598018878993</speed>
  <fix>3d</fix>
</trkpt>
<trkpt lat="40.0717672" lon="-105.2298011">
  <ele>1583.0</ele>
  <time>2026-08-28T17:54:30Z</time>
  <course>5.28</course>
  <speed>0.51</speed>
  <fix>3d</fix>
</trkpt>
<trkpt lat="40.0717685" lon="-105.2298008">
  <ele>1583.02</ele>
  <time>2026-08-28T17:54:30Z</time>
  <course>6.51</course>
  <speed>0.4936598018878993</speed>
  <fix>3d</fix>
</trkpt>
<trkpt lat="40.0717672" lon="-105.2298011">
  <ele>1583.0</ele>
  <time>2026-08-28T17:54:30Z</time>
  <course>5.28</course>
  <speed>0.51</speed>
  <fix>3d</fix>
</trkpt>
<trkpt lat="40.071769" lon="-105.2298008">
  <ele>1583.02</ele>
  <time>2026-08-28T17:54:30Z</time>
  <course>6.52</course>
  <speed>0.4936598018878993</speed>
  <fix>3d</fix>
</trkpt>
<trkpt lat="40.0717681" lon="-105.229801">
  <ele>1583.0</ele>
  <time>2026-08-28T17:54:30Z</time>
  <course>5.29</course>
  <speed>0.51</speed>
  <fix>3d</fix>
</trkpt>
<trkpt lat="40.0717694" lon="-105.2298007">
  <ele>1583.02</ele>
  <time>2026-08-28T17:54:30Z</time>
  <course>6.53</course>
  <speed>0.4936598018878993</speed>
  <fix>3d</fix>
</trkpt>
<trkpt lat="40.0717681" lon="-105.229801">
  <ele>1583.0</ele>
  <time>2026-08-28T17:54:30Z</time>
  <course>5.29</course>
  <speed>0.51</speed>
  <fix>3d</fix>
</trkpt>
<trkpt lat="40.0717699" lon="-105.2298006">
  <ele>1583.02</ele>
  <time>2026-08-28T17:54:30Z</time>
  <course>6.54</course>
  <speed>0.4936598018878993</speed>
  <fix>3d</fix>
</trkpt>
<trkpt lat="40.071769" lon="-105.2298009">
  <ele>1583.0</ele>
  <time>2026-08-28T17:54:30Z</time>
  <course>5.31</course>
  <speed>0.51</speed>
  <fix>3d</fix>
</trkpt>
<trkpt lat="40.0717703" lon="-105.2298006">
  <ele>1583.02</ele>
  <time>2026-08-28T17:54:30Z</time>
  <course>6.55</course>
  <speed>0.4936598018878993</speed>
  <fix>3d</fix>
</trkpt>
<trkpt lat="40.07177" lon="-105.2298008">
  <ele>1583.0</ele>
  <time>2026-08-28T17:54:30Z</time>
  <course>5.33</course>
  <speed>0.51</speed>
  <fix>3d</fix>
</trkpt>
<trkpt lat="40.0717708" lon="-105.2298005">
  <ele>1583.02</ele>
  <time>2026-08-28T17:54:30Z</time>
  <course>6.56</course>
  <speed>0.4936598018878993</speed>
  <fix>3d</fix>
</trkpt>
<trkpt lat="40.07177" lon="-105.2298008">
  <ele>1583.0</ele>
  <time>2026-08-28T17:54:30Z</time>
  <course>5.33</course>
  <speed>0.51</speed>
  <fix>3d</fix>
</trkpt>
<trkpt lat="40.0717713" lon="-105.2298005">
  <ele>1583.02</ele>
  <time>2026-08-28T17:54:30Z</time>
  <course>6.57</course>
  <speed>0.4936598018878993</speed>
  <fix>3d</fix>
</trkpt>
<trkpt lat="40.0717709" lon="-105.2298007">
  <ele>1583.0</ele>
  <time>2026-08-28T17:54:30Z</time>
  <course>5.35</course>
  <speed>0.51</speed>
  <fix>3d</fix>
</trkpt>
<trkpt lat="40.0717717" lon="-105.2298004">
  <ele>1583.01</ele>
  <time>2026-08-28T17:54:30Z</time>
  <course>6.58</course>
  <speed>0.4936598018878993</speed>
  <fix>3d</fix>
</trkpt>
<trkpt lat="40.0717709" lon="-105.2298007">
  <ele>1583.0</ele>
  <time>2026-08-28T17:54:30Z</time>
  <course>5.35</course>
  <speed>0.51</speed>
  <fix>3d</fix>
</trkpt>
<trkpt lat="40.0717722" lon="-105.2298004">
  <ele>1583.01</ele>
  <time>2026-08-28T17:54:30Z</time>
  <course>6.59</course>
  <speed>0.4936598018878993</speed>
  <fix>3d</fix>
</trkpt>
<trkpt lat="40.0717718" lon="-105.2298006">
  <ele>1583.0</ele>
  <time>2026-08-28T17:54:30Z</time>
  <course>5.37</course>
  <speed>0.51</speed>
  <fix>3d</fix>
</trkpt>
<trkpt lat="40.0717727" lon="-105.2298003">
  <ele>1583.01</ele>
  <time>2026-08-28T17:54:30Z</time>
  <course>6.6</course>
  <speed>0.4936598018878993</speed>
  <fix>3d</fix>
</trkpt>
<trkpt lat="40.0717718" lon="-105.2298006">
  <ele>1583.0</ele>
  <time>2026-08-28T17:54:30Z</time>
  <course>5.37</course>
  <speed>0.51</speed>
  <fix>3d</fix>
</trkpt>
<trkpt lat="40.0717731" lon="-105.2298003">
  <ele>1583.01</ele>
  <time>2026-08-28T17:54:30Z</time>
  <course>6.61</course>
  <speed>0.4936598018878993</speed>
  <fix>3d</fix>
</trkpt>
<trkpt lat="40.0717727" lon="-105.2298004">
  <ele>1583.0</ele>
  <time>2026-08-28T17:54:30Z</time>
  <course>5.39</course>
  <speed>0.51</speed>
  <fix>3d</fix>
</trkpt>
<trkpt lat="40.0717736" lon="-105.2298002">
  <ele>1583.01</ele>
  <time>2026-08-28T17:54:30Z</time>
  <course>6.61</course>
  <speed>0.4936598018878993</speed>
  <fix>3d</fix>
</trkpt>
<trkpt lat="40.0717727" lon="-105.2298004">
  <ele>1583.0</ele>
  <time>2026-08-28T17:54:30Z</time>
  <course>5.39</course>
  <speed>0.51</speed>
  <fix>3d</fix>
</trkpt>
<trkpt lat="40.0717741" lon="-105.2298001">
  <ele>1583.01</ele>
  <time>2026-08-28T17:54:30Z</time>
  <course>6.63</course>
  <speed>0.4936598018878993</speed>
  <fix>3d</fix>
</trkpt>
<trkpt lat="40.0717736" lon="-105.2298003">
  <ele>1583.0</ele>
  <time>2026-08-28T17:54:30Z</time>
  <course>5.41</course>
  <speed>0.51</speed>
  <fix>3d</fix>
</trkpt>
<trkpt lat="40.0717745" lon="-105.2298001">
  <ele>1583.0</ele>
  <time>2026-08-28T17:54:30Z</time>
  <course>6.63</course>
  <speed>0.4936598018878993</speed>
  <fix>3d</fix>
</trkpt>
<trkpt lat="40.0717736" lon="-105.2298003">
  <ele>1583.0</ele>
  <time>2026-08-28T17:54:30Z</time>
  <course>5.41</course>
  <speed>0.51</speed>
  <fix>3d</fix>
</trkpt>
<trkpt lat="40.071775" lon="-105.2298">
  <ele>1583.0</ele>
  <time>2026-08-28T17:54:30Z</time>
  <course>6.65</course>
  <speed>0.4936598018878993</speed>
  <fix>3d</fix>
</trkpt>
<trkpt lat="40.0717746" lon="-105.2298002">
  <ele>1583.0</ele>
  <time>2026-08-28T17:54:30Z</time>
  <course>5.43</course>
  <speed>0.51</speed>
  <fix>3d</fix>
</trkpt>
<trkpt lat="40.0717755" lon="-105.2298">
  <ele>1583.0</ele>
  <time>2026-08-28T17:54:30Z</time>
  <course>6.66</course>
  <speed>0.4936598018878993</speed>
  <fix>3d</fix>
</trkpt>
<trkpt lat="40.0717746" lon="-105.2298002">
  <ele>1583.0</ele>
  <time>2026-08-28T17:54:30Z</time>
  <course>5.43</course>
  <speed>0.51</speed>
  <fix>3d</fix>
</trkpt>
<trkpt lat="40.0717759" lon="-105.2297999">
  <ele>1582.99</ele>
  <time>2026-08-28T17:54:30Z</time>
  <course>6.67</course>
  <speed>0.4936598018878993</speed>
  <fix>3d</fix>
</trkpt>
<trkpt lat="40.0717755" lon="-105.2298001">
  <ele>1583.0</ele>
  <time>2026-08-28T17:54:30Z</time>
  <course>5.45</course>
  <speed>0.51</speed>
  <fix>3d</fix>
</trkpt>
<trkpt lat="40.0717764" lon="-105.2297998">
  <ele>1582.99</ele>
  <time>2026-08-28T17:54:30Z</time>
  <course>6.68</course>
  <speed>0.4936598018878993</speed>
  <fix>3d</fix>
</trkpt>
<trkpt lat="40.0717755" lon="-105.2298001">
  <ele>1583.0</ele>
  <time>2026-08-28T17:54:30Z</time>
  <course>5.45</course>
  <speed>0.51</speed>
  <fix>3d</fix>
</trkpt>
<trkpt lat="40.0717769" lon="-105.2297998">
  <ele>1582.99</ele>
  <time>2026-08-28T17:54:30Z</time>
  <course>6.69</course>
  <speed>0.4936598018878993</speed>
  <fix>3d</fix>
</trkpt>
<trkpt lat="40.0717755" lon="-105.2298001">
  <ele>1583.0</ele>
  <time>2026-08-28T17:54:30Z</time>
  <course>5.45</course>
  <speed>0.51</speed>
  <fix>3d</fix>
</trkpt>
<trkpt lat="40.0717773" lon="-105.2297997">
  <ele>1582.99</ele>
  <time>2026-08-28T17:54:31Z</time>
  <course>6.7</course>
  <speed>0.4936598018878993</speed>
  <fix>3d</fix>
</trkpt>
<trkpt lat="40.0717765" lon="-105.2298">
  <ele>1583.0</ele>
  <time>2026-08-28T17:54:31Z</time>
  <course>5.47</course>
  <speed>0.51</speed>
  <fix>3d</fix>
</trkpt>
<trkpt lat="40.0717778" lon="-105.2297997">
  <ele>1582.99</ele>
  <time>2026-08-28T17:54:31Z</time>
  <course>6.71</course>
  <speed>0.4936598018878993</speed>
  <fix>3d</fix>
</trkpt>
<trkpt lat="40.0717765" lon="-105.2298">
  <ele>1583.0</ele>
  <time>2026-08-28T17:54:31Z</time>
  <course>5.47</course>
  <speed>0.51</speed>
  <fix>3d</fix>
</trkpt>
<trkpt lat="40.0717782" lon="-105.2297996">
  <ele>1582.98</ele>
  <time>2026-08-28T17:54:31Z</time>
  <course>6.73</course>
  <speed>0.4936598018878993</speed>
  <fix>3d</fix>
</trkpt>
<trkpt lat="40.0717774" lon="-105.2297998">
  <ele>1583.0</ele>
  <time>2026-08-28T17:54:31Z</time>
  <course>5.5</course>
  <speed>0.51</speed>
  <fix>3d</fix>
</trkpt>
<trkpt lat="40.0717787" lon="-105.2297995">
  <ele>1582.98</ele>
  <time>2026-08-28T17:54:31Z</time>
  <course>6.74</course>
  <speed>0.4936598018878993</speed>
  <fix>3d</fix>
</trkpt>
<trkpt lat="40.0717774" lon="-105.2297998">
  <ele>1583.0</ele>
  <time>2026-08-28T17:54:31Z</time>
  <course>5.5</course>
  <speed>0.51</speed>
  <fix>3d</fix>
</trkpt>
<trkpt lat="40.0717792" lon="-105.2297995">
  <ele>1582.98</ele>
  <time>2026-08-28T17:54:31Z</time>
  <course>6.75</course>
  <speed>0.4936598018878993</speed>
  <fix>3d</fix>
</trkpt>
<trkpt lat="40.0717783" lon="-105.2297997">
  <ele>1583.0</ele>
  <time>2026-08-28T17:54:31Z</time>
  <course>5.53</course>
  <speed>0.51</speed>
  <fix>3d</fix>
</trkpt>
<trkpt lat="40.0717796" lon="-105.2297994">
  <ele>1582.98</ele>
  <time>2026-08-28T17:54:31Z</time>
  <course>6.77</course>
  <speed>0.4936598018878993</speed>
  <fix>3d</fix>
</trkpt>
<trkpt lat="40.0717792" lon="-105.2297996">
  <ele>1583.0</ele>
  <time>2026-08-28T17:54:31Z</time>
  <course>5.55</course>
  <speed>0.51</speed>
  <fix>3d</fix>
</trkpt>
<trkpt lat="40.0717801" lon="-105.2297994">
  <ele>1582.98</ele>
  <time>2026-08-28T17:54:31Z</time>
  <course>6.78</course>
  <speed>0.4936598018878993</speed>
  <fix>3d</fix>
</trkpt>
<trkpt lat="40.0717792" lon="-105.2297996">
  <ele>1583.0</ele>
  <time>2026-08-28T17:54:31Z</time>
  <course>5.55</course>
  <speed>0.51</speed>
  <fix>3d</fix>
</trkpt>
<trkpt lat="40.0717806" lon="-105.2297993">
  <ele>1582.98</ele>
  <time>2026-08-28T17:54:31Z</time>
  <course>6.79</course>
  <speed>0.4936598018878993</speed>
  <fix>3d</fix>
</trkpt>
<trkpt lat="40.0717802" lon="-105.2297995">
  <ele>1583.0</ele>
  <time>2026-08-28T17:54:31Z</time>
  <course>5.58</course>
  <speed>0.51</speed>
  <fix>3d</fix>
</trkpt>
<trkpt lat="40.071781" lon="-105.2297992">
  <ele>1582.98</ele>
  <time>2026-08-28T17:54:31Z</time>
  <course>6.8</course>
  <speed>0.4936598018878993</speed>
  <fix>3d</fix>
</trkpt>
<trkpt lat="40.0717802" lon="-105.2297995">
  <ele>1583.0</ele>
  <time>2026-08-28T17:54:31Z</time>
  <course>5.58</course>
  <speed>0.51</speed>
  <fix>3d</fix>
</trkpt>
<trkpt lat="40.0717815" lon="-105.2297992">
  <ele>1582.98</ele>
  <time>2026-08-28T17:54:31Z</time>
  <course>6.81</course>
  <speed>0.4936598018878993</speed>
  <fix>3d</fix>
</trkpt>
<trkpt lat="40.0717811" lon="-105.2297994">
  <ele>1583.0</ele>
  <time>2026-08-28T17:54:31Z</time>
  <course>5.6</course>
  <speed>0.51</speed>
  <fix>3d</fix>
</trkpt>
<trkpt lat="40.071782" lon="-105.2297991">
  <ele>1582.98</ele>
  <time>2026-08-28T17:54:31Z</time>
  <course>6.83</course>
  <speed>0.4936598018878993</speed>
  <fix>3d</fix>
</trkpt>
<trkpt lat="40.0717811" lon="-105.2297994">
  <ele>1583.0</ele>
  <time>2026-08-28T17:54:31Z</time>
  <course>5.6</course>
  <speed>0.51</speed>
  <fix>3d</fix>
</trkpt>
<trkpt lat="40.0717824" lon="-105.2297991">
  <ele>1582.98</ele>
  <time>2026-08-28T17:54:31Z</time>
  <course>6.84</course>
  <speed>0.4936598018878993</speed>
  <fix>3d</fix>
</trkpt>
<trkpt lat="40.071782" lon="-105.2297993">
  <ele>1583.0</ele>
  <time>2026-08-28T17:54:31Z</time>
  <course>5.63</course>
  <speed>0.51</speed>
  <fix>3d</fix>
</trkpt>
<trkpt lat="40.0717829" lon="-105.229799">
  <ele>1582.98</ele>
  <time>2026-08-28T17:54:31Z</time>
  <course>6.86</course>
  <speed>0.4936598018878993</speed>
  <fix>3d</fix>
</trkpt>
<trkpt lat="40.071782" lon="-105.2297993">
  <ele>1583.0</ele>
  <time>2026-08-28T17:54:31Z</time>
  <course>5.63</course>
  <speed>0.51</speed>
  <fix>3d</fix>
</trkpt>
<trkpt lat="40.0717833" lon="-105.2297989">
  <ele>1582.98</ele>
  <time>2026-08-28T17:54:31Z</time>
  <course>6.87</course>
  <speed>0.4936598018878993</speed>
  <fix>3d</fix>
</trkpt>
<trkpt lat="40.0717829" lon="-105.2297992">
  <ele>1583.0</ele>
  <time>2026-08-28T17:54:31Z</time>
  <course>5.66</course>
  <speed>0.51</speed>
  <fix>3d</fix>
</trkpt>
<trkpt lat="40.0717838" lon="-105.2297989">
  <ele>1582.98</ele>
  <time>2026-08-28T17:54:31Z</time>
  <course>6.87</course>
  <speed>0.4936598018878993</speed>
  <fix>3d</fix>
</trkpt>
<trkpt lat="40.0717829" lon="-105.2297992">
  <ele>1583.0</ele>
  <time>2026-08-28T17:54:31Z</time>
  <course>5.66</course>
  <speed>0.51</speed>
  <fix>3d</fix>
</trkpt>
<trkpt lat="40.0717843" lon="-105.2297988">
  <ele>1582.98</ele>
  <time>2026-08-28T17:54:31Z</time>
  <course>6.89</course>
  <speed>0.4936598018878993</speed>
  <fix>3d</fix>
</trkpt>
<trkpt lat="40.0717839" lon="-105.229799">
  <ele>1583.0</ele>
  <time>2026-08-28T17:54:31Z</time>
  <course>5.68</course>
  <speed>0.51</speed>
  <fix>3d</fix>
</trkpt>
<trkpt lat="40.0717847" lon="-105.2297988">
  <ele>1582.98</ele>
  <time>2026-08-28T17:54:31Z</time>
  <course>6.9</course>
  <speed>0.4936598018878993</speed>
  <fix>3d</fix>
</trkpt>
<trkpt lat="40.0717839" lon="-105.229799">
  <ele>1583.0</ele>
  <time>2026-08-28T17:54:31Z</time>
  <course>5.68</course>
  <speed>0.51</speed>
  <fix>3d</fix>
</trkpt>
<trkpt lat="40.0717852" lon="-105.2297987">
  <ele>1582.98</ele>
  <time>2026-08-28T17:54:31Z</time>
  <course>6.91</course>
  <speed>0.4936598018878993</speed>
  <fix>3d</fix>
</trkpt>
<trkpt lat="40.0717848" lon="-105.2297989">
  <ele>1583.0</ele>
  <time>2026-08-28T17:54:31Z</time>
  <course>5.7</course>
  <speed>0.51</speed>
  <fix>3d</fix>
</trkpt>
<trkpt lat="40.0717857" lon="-105.2297987">
  <ele>1582.98</ele>
  <time>2026-08-28T17:54:31Z</time>
  <course>6.92</course>
  <speed>0.4936598018878993</speed>
  <fix>3d</fix>
</trkpt>
<trkpt lat="40.0717848" lon="-105.2297989">
  <ele>1583.0</ele>
  <time>2026-08-28T17:54:31Z</time>
  <course>5.7</course>
  <speed>0.51</speed>
  <fix>3d</fix>
</trkpt>
<trkpt lat="40.0717861" lon="-105.2297986">
  <ele>1582.98</ele>
  <time>2026-08-28T17:54:31Z</time>
  <course>6.93</course>
  <speed>0.4936598018878993</speed>
  <fix>3d</fix>
</trkpt>
<trkpt lat="40.0717848" lon="-105.2297989">
  <ele>1583.0</ele>
  <time>2026-08-28T17:54:31Z</time>
  <course>5.7</course>
  <speed>0.51</speed>
  <fix>3d</fix>
</trkpt>
<trkpt lat="40.0717866" lon="-105.2297985">
  <ele>1582.98</ele>
  <time>2026-08-28T17:54:31Z</time>
  <course>6.95</course>
  <speed>0.4936598018878993</speed>
  <fix>3d</fix>
</trkpt>
<trkpt lat="40.0717857" lon="-105.2297988">
  <ele>1583.0</ele>
  <time>2026-08-28T17:54:31Z</time>
  <course>5.73</course>
  <speed>0.51</speed>
  <fix>3d</fix>
</trkpt>
<trkpt lat="40.0717871" lon="-105.2297985">
  <ele>1582.98</ele>
  <time>2026-08-28T17:54:31Z</time>
  <course>6.96</course>
  <speed>0.4936598018878993</speed>
  <fix>3d</fix>
</trkpt>
<trkpt lat="40.0717857" lon="-105.2297988">
  <ele>1583.0</ele>
  <time>2026-08-28T17:54:31Z</time>
  <course>5.73</course>
  <speed>0.51</speed>
  <fix>3d</fix>
</trkpt>
<trkpt lat="40.0717875" lon="-105.2297984">
  <ele>1582.98</ele>
  <time>2026-08-28T17:54:31Z</time>
  <course>6.97</course>
  <speed>0.4936598018878993</speed>
  <fix>3d</fix>
</trkpt>
<trkpt lat="40.0717866" lon="-105.2297987">
  <ele>1583.0</ele>
  <time>2026-08-28T17:54:31Z</time>
  <course>5.75</course>
  <speed>0.51</speed>
  <fix>3d</fix>
</trkpt>
<trkpt lat="40.071788" lon="-105.2297983">
  <ele>1582.98</ele>
  <time>2026-08-28T17:54:31Z</time>
  <course>6.99</course>
  <speed>0.4936598018878993</speed>
  <fix>3d</fix>
</trkpt>
<trkpt lat="40.0717866" lon="-105.2297987">
  <ele>1583.0</ele>
  <time>2026-08-28T17:54:31Z</time>
  <course>5.75</course>
  <speed>0.51</speed>
  <fix>3d</fix>
</trkpt>
<trkpt lat="40.0717884" lon="-105.2297983">
  <ele>1582.98</ele>
  <time>2026-08-28T17:54:31Z</time>
  <course>7.0</course>
  <speed>0.4936598018878993</speed>
  <fix>3d</fix>
</trkpt>
<trkpt lat="40.0717876" lon="-105.2297985">
  <ele>1583.0</ele>
  <time>2026-08-28T17:54:31Z</time>
  <course>5.78</course>
  <speed>0.51</speed>
  <fix>3d</fix>
</trkpt>
<trkpt lat="40.0717889" lon="-105.2297982">
  <ele>1582.97</ele>
  <time>2026-08-28T17:54:31Z</time>
  <course>7.01</course>
  <speed>0.4936598018878993</speed>
  <fix>3d</fix>
</trkpt>
<trkpt lat="40.0717885" lon="-105.2297984">
  <ele>1583.0</ele>
  <time>2026-08-28T17:54:31Z</time>
  <course>5.8</course>
  <speed>0.51</speed>
  <fix>3d</fix>
</trkpt>
<trkpt lat="40.0717894" lon="-105.2297982">
  <ele>1582.97</ele>
  <time>2026-08-28T17:54:31Z</time>
  <course>7.02</course>
  <speed>0.4936598018878993</speed>
  <fix>3d</fix>
</trkpt>
<trkpt lat="40.0717885" lon="-105.2297984">
  <ele>1583.0</ele>
  <time>2026-08-28T17:54:31Z</time>
  <course>5.8</course>
  <speed>0.51</speed>
  <fix>3d</fix>
</trkpt>
<trkpt lat="40.0717898" lon="-105.2297981">
  <ele>1582.97</ele>
  <time>2026-08-28T17:54:31Z</time>
  <course>7.03</course>
  <speed>0.4936598018878993</speed>
  <fix>3d</fix>
</trkpt>
<trkpt lat="40.0717894" lon="-105.2297983">
  <ele>1583.0</ele>
  <time>2026-08-28T17:54:31Z</time>
  <course>5.83</course>
  <speed>0.51</speed>
  <fix>3d</fix>
</trkpt>
<trkpt lat="40.0717903" lon="-105.229798">
  <ele>1582.97</ele>
  <time>2026-08-28T17:54:31Z</time>
  <course>7.04</course>
  <speed>0.4936598018878993</speed>
  <fix>3d</fix>
</trkpt>
<trkpt lat="40.0717894" lon="-105.2297983">
  <ele>1583.0</ele>
  <time>2026-08-28T17:54:31Z</time>
  <course>5.83</course>
  <speed>0.51</speed>
  <fix>3d</fix>
</trkpt>
<trkpt lat="40.0717907" lon="-105.229798">
  <ele>1582.97</ele>
  <time>2026-08-28T17:54:31Z</time>
  <course>7.06</course>
  <speed>0.4936598018878993</speed>
  <fix>3d</fix>
</trkpt>
<trkpt lat="40.0717904" lon="-105.2297982">
  <ele>1583.0</ele>
  <time>2026-08-28T17:54:31Z</time>
  <course>5.85</course>
  <speed>0.51</speed>
  <fix>3d</fix>
</trkpt>
<trkpt lat="40.0717912" lon="-105.2297979">
  <ele>1582.97</ele>
  <time>2026-08-28T17:54:31Z</time>
  <course>7.07</course>
  <speed>0.4936598018878993</speed>
  <fix>3d</fix>
</trkpt>
<trkpt lat="40.0717904" lon="-105.2297982">
  <ele>1583.0</ele>
  <time>2026-08-28T17:54:31Z</time>
  <course>5.85</course>
  <speed>0.51</speed>
  <fix>3d</fix>
</trkpt>
<trkpt lat="40.0717917" lon="-105.2297979">
  <ele>1582.97</ele>
  <time>2026-08-28T17:54:31Z</time>
  <course>7.08</course>
  <speed>0.4936598018878993</speed>
  <fix>3d</fix>
</trkpt>
<trkpt lat="40.0717913" lon="-105.229798">
  <ele>1583.0</ele>
  <time>2026-08-28T17:54:31Z</time>
  <course>5.88</course>
  <speed>0.51</speed>
  <fix>3d</fix>
</trkpt>
<trkpt lat="40.0717921" lon="-105.2297978">
  <ele>1582.97</ele>
  <time>2026-08-28T17:54:31Z</time>
  <course>7.09</course>
  <speed>0.4936598018878993</speed>
  <fix>3d</fix>
</trkpt>
<trkpt lat="40.0717913" lon="-105.229798">
  <ele>1583.0</ele>
  <time>2026-08-28T17:54:31Z</time>
  <course>5.88</course>
  <speed>0.51</speed>
  <fix>3d</fix>
</trkpt>
<trkpt lat="40.0717926" lon="-105.2297977">
  <ele>1582.97</ele>
  <time>2026-08-28T17:54:31Z</time>
  <course>7.11</course>
  <speed>0.4936598018878993</speed>
  <fix>3d</fix>
</trkpt>
<trkpt lat="40.0717922" lon="-105.2297979">
  <ele>1583.0</ele>
  <time>2026-08-28T17:54:31Z</time>
  <course>5.9</course>
  <speed>0.51</speed>
  <fix>3d</fix>
</trkpt>
<trkpt lat="40.0717931" lon="-105.2297977">
  <ele>1582.98</ele>
  <time>2026-08-28T17:54:31Z</time>
  <course>7.12</course>
  <speed>0.4936598018878993</speed>
  <fix>3d</fix>
</trkpt>
<trkpt lat="40.0717922" lon="-105.2297979">
  <ele>1583.0</ele>
  <time>2026-08-28T17:54:31Z</time>
  <course>5.9</course>
  <speed>0.51</speed>
  <fix>3d</fix>
</trkpt>
<trkpt lat="40.0717935" lon="-105.2297976">
  <ele>1582.98</ele>
  <time>2026-08-28T17:54:31Z</time>
  <course>7.13</course>
  <speed>0.4936598018878993</speed>
  <fix>3d</fix>
</trkpt>
<trkpt lat="40.0717932" lon="-105.2297978">
  <ele>1583.0</ele>
  <time>2026-08-28T17:54:31Z</time>
  <course>5.93</course>
  <speed>0.51</speed>
  <fix>3d</fix>
</trkpt>
<trkpt lat="40.071794" lon="-105.2297975">
  <ele>1582.98</ele>
  <time>2026-08-28T17:54:31Z</time>
  <course>7.15</course>
  <speed>0.4936598018878993</speed>
  <fix>3d</fix>
</trkpt>
<trkpt lat="40.0717932" lon="-105.2297978">
  <ele>1583.0</ele>
  <time>2026-08-28T17:54:31Z</time>
  <course>5.93</course>
  <speed>0.51</speed>
  <fix>3d</fix>
</trkpt>
<trkpt lat="40.0717945" lon="-105.2297975">
  <ele>1582.98</ele>
  <time>2026-08-28T17:54:31Z</time>
  <course>7.16</course>
  <speed>0.4949747468305833</speed>
  <fix>3d</fix>
</trkpt>
<trkpt lat="40.0717941" lon="-105.2297977">
  <ele>1583.0</ele>
  <time>2026-08-28T17:54:31Z</time>
  <course>5.96</course>
  <speed>0.51</speed>
  <fix>3d</fix>
</trkpt>
<trkpt lat="40.071795" lon="-105.2297974">
  <ele>1582.99</ele>
  <time>2026-08-28T17:54:31Z</time>
  <course>7.18</course>
  <speed>0.4936598018878993</speed>
  <fix>3d</fix>
</trkpt>
<trkpt lat="40.0717941" lon="-105.2297977">
  <ele>1583.0</ele>
  <time>2026-08-28T17:54:31Z</time>
  <course>5.96</course>
  <speed>0.51</speed>
  <fix>3d</fix>
</trkpt>
<trkpt lat="40.0717954" lon="-105.2297973">
  <ele>1582.99</ele>
  <time>2026-08-28T17:54:31Z</time>
  <course>7.19</course>
  <speed>0.4949747468305833</speed>
  <fix>3d</fix>
</trkpt>
<trkpt lat="40.0717941" lon="-105.2297977">
  <ele>1583.0</ele>
  <time>2026-08-28T17:54:31Z</time>
  <course>5.96</course>
  <speed>0.51</speed>
  <fix>3d</fix>
</trkpt>
<trkpt lat="40.0717959" lon="-105.2297973">
  <ele>1583.0</ele>
  <time>2026-08-28T17:54:31Z</time>
  <course>7.21</course>
  <speed>0.4949747468305833</speed>
  <fix>3d</fix>
</trkpt>
<trkpt lat="40.071795" lon="-105.2297975">
  <ele>1583.0</ele>
  <time>2026-08-28T17:54:31Z</time>
  <course>5.99</course>
  <speed>0.51</speed>
  <fix>3d</fix>
</trkpt>
<trkpt lat="40.0717963" lon="-105.2297972">
  <ele>1583.0</ele>
  <time>2026-08-28T17:54:31Z</time>
  <course>7.23</course>
  <speed>0.4949747468305833</speed>
  <fix>3d</fix>
</trkpt>
<trkpt lat="40.071795" lon="-105.2297975">
  <ele>1583.0</ele>
  <time>2026-08-28T17:54:31Z</time>
  <course>5.99</course>
  <speed>0.51</speed>
  <fix>3d</fix>
</trkpt>
<trkpt lat="40.0717968" lon="-105.2297971">
  <ele>1583.0</ele>
  <time>2026-08-28T17:54:31Z</time>
  <course>7.24</course>
  <speed>0.4949747468305833</speed>
  <fix>3d</fix>
</trkpt>
<trkpt lat="40.0717959" lon="-105.2297974">
  <ele>1583.0</ele>
  <time>2026-08-28T17:54:31Z</time>
  <course>6.02</course>
  <speed>0.51</speed>
  <fix>3d</fix>
</trkpt>
<trkpt lat="40.0717973" lon="-105.2297971">
  <ele>1583.0</ele>
  <time>2026-08-28T17:54:31Z</time>
  <course>7.25</course>
  <speed>0.4949747468305833</speed>
  <fix>3d</fix>
</trkpt>
<trkpt lat="40.0717959" lon="-105.2297974">
  <ele>1583.0</ele>
  <time>2026-08-28T17:54:31Z</time>
  <course>6.02</course>
  <speed>0.51</speed>
  <fix>3d</fix>
</trkpt>
<trkpt lat="40.0717977" lon="-105.229797">
  <ele>1583.0</ele>
  <time>2026-08-28T17:54:31Z</time>
  <course>7.27</course>
  <speed>0.4949747468305833</speed>
  <fix>3d</fix>
</trkpt>
<trkpt lat="40.0717968" lon="-105.2297973">
  <ele>1583.0</ele>
  <time>2026-08-28T17:54:31Z</time>
  <course>6.05</course>
  <speed>0.51</speed>
  <fix>3d</fix>
</trkpt>
<trkpt lat="40.0717982" lon="-105.229797">
  <ele>1583.0</ele>
  <time>2026-08-28T17:54:31Z</time>
  <course>7.28</course>
  <speed>0.4949747468305833</speed>
  <fix>3d</fix>
</trkpt>
<trkpt lat="40.0717968" lon="-105.2297973">
  <ele>1583.0</ele>
  <time>2026-08-28T17:54:31Z</time>
  <course>6.05</course>
  <speed>0.51</speed>
  <fix>3d</fix>
</trkpt>
<trkpt lat="40.0717986" lon="-105.2297969">
  <ele>1583.0</ele>
  <time>2026-08-28T17:54:31Z</time>
  <course>7.3</course>
  <speed>0.4949747468305833</speed>
  <fix>3d</fix>
</trkpt>
<trkpt lat="40.0717978" lon="-105.2297972">
  <ele>1583.0</ele>
  <time>2026-08-28T17:54:31Z</time>
  <course>6.08</course>
  <speed>0.51</speed>
  <fix>3d</fix>
</trkpt>
<trkpt lat="40.0717991" lon="-105.2297968">
  <ele>1582.99</ele>
  <time>2026-08-28T17:54:31Z</time>
  <course>7.32</course>
  <speed>0.4949747468305833</speed>
  <fix>3d</fix>
</trkpt>
<trkpt lat="40.0717987" lon="-105.229797">
  <ele>1583.0</ele>
  <time>2026-08-28T17:54:31Z</time>
  <course>6.12</course>
  <speed>0.51</speed>
  <fix>3d</fix>
</trkpt>
<trkpt lat="40.0717996" lon="-105.2297968">
  <ele>1582.99</ele>
  <time>2026-08-28T17:54:31Z</time>
  <course>7.33</course>
  <speed>0.4949747468305833</speed>
  <fix>3d</fix>
</trkpt>
<trkpt lat="40.0717987" lon="-105.229797">
  <ele>1583.0</ele>
  <time>2026-08-28T17:54:31Z</time>
  <course>6.12</course>
  <speed>0.51</speed>
  <fix>3d</fix>
</trkpt>
<trkpt lat="40.0718" lon="-105.2297967">
  <ele>1582.99</ele>
  <time>2026-08-28T17:54:31Z</time>
  <course>7.35</course>
  <speed>0.4949747468305833</speed>
  <fix>3d</fix>
</trkpt>
<trkpt lat="40.0717996" lon="-105.2297969">
  <ele>1583.0</ele>
  <time>2026-08-28T17:54:31Z</time>
  <course>6.15</course>
  <speed>0.51</speed>
  <fix>3d</fix>
</trkpt>
<trkpt lat="40.0718005" lon="-105.2297966">
  <ele>1582.99</ele>
  <time>2026-08-28T17:54:31Z</time>
  <course>7.36</course>
  <speed>0.4949747468305833</speed>
  <fix>3d</fix>
</trkpt>
<trkpt lat="40.0717996" lon="-105.2297969">
  <ele>1583.0</ele>
  <time>2026-08-28T17:54:31Z</time>
  <course>6.15</course>
  <speed>0.51</speed>
  <fix>3d</fix>
</trkpt>
<trkpt lat="40.0718009" lon="-105.2297966">
  <ele>1582.99</ele>
  <time>2026-08-28T17:54:31Z</time>
  <course>7.38</course>
  <speed>0.4949747468305833</speed>
  <fix>3d</fix>
</trkpt>
<trkpt lat="40.0718005" lon="-105.2297968">
  <ele>1583.0</ele>
  <time>2026-08-28T17:54:31Z</time>
  <course>6.18</course>
  <speed>0.51</speed>
  <fix>3d</fix>
</trkpt>
<trkpt lat="40.0718014" lon="-105.2297965">
  <ele>1582.99</ele>
  <time>2026-08-28T17:54:31Z</time>
  <course>7.39</course>
  <speed>0.4949747468305833</speed>
  <fix>3d</fix>
</trkpt>
<trkpt lat="40.0718005" lon="-105.2297968">
  <ele>1583.0</ele>
  <time>2026-08-28T17:54:31Z</time>
  <course>6.18</course>
  <speed>0.51</speed>
  <fix>3d</fix>
</trkpt>
<trkpt lat="40.0718019" lon="-105.2297964">
  <ele>1582.99</ele>
  <time>2026-08-28T17:54:31Z</time>
  <course>7.41</course>
  <speed>0.4949747468305833</speed>
  <fix>3d</fix>
</trkpt>
<trkpt lat="40.0718015" lon="-105.2297966">
  <ele>1583.0</ele>
  <time>2026-08-28T17:54:31Z</time>
  <course>6.21</course>
  <speed>0.51</speed>
  <fix>3d</fix>
</trkpt>
<trkpt lat="40.0718023" lon="-105.2297964">
  <ele>1583.0</ele>
  <time>2026-08-28T17:54:31Z</time>
  <course>7.43</course>
  <speed>0.4949747468305833</speed>
  <fix>3d</fix>
</trkpt>
<trkpt lat="40.0718015" lon="-105.2297966">
  <ele>1583.0</ele>
  <time>2026-08-28T17:54:31Z</time>
  <course>6.21</course>
  <speed>0.51</speed>
  <fix>3d</fix>
</trkpt>
<trkpt lat="40.0718028" lon="-105.2297963">
  <ele>1583.0</ele>
  <time>2026-08-28T17:54:31Z</time>
  <course>7.44</course>
  <speed>0.4850773134253961</speed>
  <fix>3d</fix>
</trkpt>
<trkpt lat="40.0718024" lon="-105.2297965">
  <ele>1583.0</ele>
  <time>2026-08-28T17:54:31Z</time>
  <course>6.25</course>
  <speed>0.51</speed>
  <fix>3d</fix>
</trkpt>
<trkpt lat="40.0718033" lon="-105.2297962">
  <ele>1583.0</ele>
  <time>2026-08-28T17:54:31Z</time>
  <course>7.46</course>
  <speed>0.4850773134253961</speed>
  <fix>3d</fix>
</trkpt>
<trkpt lat="40.0718024" lon="-105.2297965">
  <ele>1583.0</ele>
  <time>2026-08-28T17:54:31Z</time>
  <course>6.25</course>
  <speed>0.51</speed>
  <fix>3d</fix>
</trkpt>
<trkpt lat="40.0718037" lon="-105.2297962">
  <ele>1583.0</ele>
  <time>2026-08-28T17:54:31Z</time>
  <course>7.47</course>
  <speed>0.4751841748206689</speed>
  <fix>3d</fix>
</trkpt>
<trkpt lat="40.0718033" lon="-105.2297964">
  <ele>1583.0</ele>
  <time>2026-08-28T17:54:31Z</time>
  <course>6.28</course>
  <speed>0.5</speed>
  <fix>3d</fix>
</trkpt>
<trkpt lat="40.0718042" lon="-105.2297961">
  <ele>1583.0</ele>
  <time>2026-08-28T17:54:31Z</time>
  <course>7.49</course>
  <speed>0.4738143096192854</speed>
  <fix>3d</fix>
</trkpt>
<trkpt lat="40.0718033" lon="-105.2297964">
  <ele>1583.0</ele>
  <time>2026-08-28T17:54:31Z</time>
  <course>6.28</course>
  <speed>0.5</speed>
  <fix>3d</fix>
</trkpt>
<trkpt lat="40.0718046" lon="-105.229796">
  <ele>1583.0</ele>
  <time>2026-08-28T17:54:31Z</time>
  <course>7.51</course>
  <speed>0.46389654018972803</speed>
  <fix>3d</fix>
</trkpt>
<trkpt lat="40.0718042" lon="-105.2297963">
  <ele>1583.0</ele>
  <time>2026-08-28T17:54:31Z</time>
  <course>6.31</course>
  <speed>0.49</speed>
  <fix>3d</fix>
</trkpt>
<trkpt lat="40.071805" lon="-105.229796">
  <ele>1583.0</ele>
  <time>2026-08-28T17:54:31Z</time>
  <course>7.53</course>
  <speed>0.45398237851264667</speed>
  <fix>3d</fix>
</trkpt>
<trkpt lat="40.0718042" lon="-105.2297963">
  <ele>1583.0</ele>
  <time>2026-08-28T17:54:31Z</time>
  <course>6.31</course>
  <speed>0.49</speed>
  <fix>3d</fix>
</trkpt>
<trkpt lat="40.0718054" lon="-105.2297959">
  <ele>1583.0</ele>
  <time>2026-08-28T17:54:31Z</time>
  <course>7.55</course>
  <speed>0.4440720662234904</speed>
  <fix>3d</fix>
</trkpt>
<trkpt lat="40.0718042" lon="-105.2297963">
  <ele>1583.0</ele>
  <time>2026-08-28T17:54:31Z</time>
  <course>6.31</course>
  <speed>0.49</speed>
  <fix>3d</fix>
</trkpt>
<trkpt lat="40.0718059" lon="-105.2297959">
  <ele>1583.0</ele>
  <time>2026-08-28T17:54:31Z</time>
  <course>7.56</course>
  <speed>0.4341658669218482</speed>
  <fix>3d</fix>
</trkpt>
<trkpt lat="40.0718051" lon="-105.2297961">
  <ele>1583.0</ele>
  <time>2026-08-28T17:54:31Z</time>
  <course>6.35</course>
  <speed>0.47</speed>
  <fix>3d</fix>
</trkpt>
<trkpt lat="40.0718063" lon="-105.2297958">
  <ele>1583.0</ele>
  <time>2026-08-28T17:54:31Z</time>
  <course>7.58</course>
  <speed>0.4242640687119285</speed>
  <fix>3d</fix>
</trkpt>
<trkpt lat="40.0718051" lon="-105.2297961">
  <ele>1583.0</ele>
  <time>2026-08-28T17:54:31Z</time>
  <course>6.35</course>
  <speed>0.47</speed>
  <fix>3d</fix>
</trkpt>
<trkpt lat="40.0718067" lon="-105.2297958">
  <ele>1583.0</ele>
  <time>2026-08-28T17:54:31Z</time>
  <course>7.6</course>
  <speed>0.4143669871020132</speed>
  <fix>3d</fix>
</trkpt>
<trkpt lat="40.0718059" lon="-105.229796">
  <ele>1583.0</ele>
  <time>2026-08-28T17:54:31Z</time>
  <course>6.39</course>
  <speed>0.45</speed>
  <fix>3d</fix>
</trkpt>
<trkpt lat="40.071807" lon="-105.2297957">
  <ele>1583.01</ele>
  <time>2026-08-28T17:54:31Z</time>
  <course>7.61</course>
  <speed>0.4044749683231337</speed>
  <fix>3d</fix>
</trkpt>
<trkpt lat="40.0718059" lon="-105.229796">
  <ele>1583.0</ele>
  <time>2026-08-28T17:54:31Z</time>
  <course>6.39</course>
  <speed>0.45</speed>
  <fix>3d</fix>
</trkpt>
<trkpt lat="40.0718074" lon="-105.2297956">
  <ele>1583.0</ele>
  <time>2026-08-28T17:54:31Z</time>
  <course>7.62</course>
  <speed>0.383275357934736</speed>
  <fix>3d</fix>
</trkpt>
<trkpt lat="40.0718068" lon="-105.2297959">
  <ele>1583.0</ele>
  <time>2026-08-28T17:54:31Z</time>
  <course>6.42</course>
  <speed>0.43</speed>
  <fix>3d</fix>
</trkpt>
<trkpt lat="40.0718078" lon="-105.2297956">
  <ele>1583.0</ele>
  <time>2026-08-28T17:54:31Z</time>
  <course>7.63</course>
  <speed>0.37336309405188944</speed>
  <fix>3d</fix>
</trkpt>
<trkpt lat="40.0718075" lon="-105.2297958">
  <ele>1583.0</ele>
  <time>2026-08-28T17:54:31Z</time>
  <course>6.45</course>
  <speed>0.41</speed>
  <fix>3d</fix>
</trkpt>
<trkpt lat="40.0718081" lon="-105.2297956">
  <ele>1583.0</ele>
  <time>2026-08-28T17:54:31Z</time>
  <course>7.65</course>
  <speed>0.3634556369077249</speed>
  <fix>3d</fix>
</trkpt>
<trkpt lat="40.0718075" lon="-105.2297958">
  <ele>1583.0</ele>
  <time>2026-08-28T17:54:31Z</time>
  <course>6.45</course>
  <speed>0.41</speed>
  <fix>3d</fix>
</trkpt>
<trkpt lat="40.0718085" lon="-105.2297955">
  <ele>1583.0</ele>
  <time>2026-08-28T17:54:31Z</time>
  <course>7.66</course>
  <speed>0.3535533905932738</speed>
  <fix>3d</fix>
</trkpt>
<trkpt lat="40.0718082" lon="-105.2297956">
  <ele>1583.0</ele>
  <time>2026-08-28T17:54:31Z</time>
  <course>6.47</course>
  <speed>0.39</speed>
  <fix>3d</fix>
</trkpt>
<trkpt lat="40.0718088" lon="-105.2297955">
  <ele>1583.0</ele>
  <time>2026-08-28T17:54:31Z</time>
  <course>7.67</course>
  <speed>0.34365680554879163</speed>
  <fix>3d</fix>
</trkpt>
<trkpt lat="40.0718082" lon="-105.2297956">
  <ele>1583.0</ele>
  <time>2026-08-28T17:54:31Z</time>
  <course>6.47</course>
  <speed>0.39</speed>
  <fix>3d</fix>
</trkpt>
<trkpt lat="40.0718091" lon="-105.2297954">
  <ele>1583.0</ele>
  <time>2026-08-28T17:54:31Z</time>
  <course>7.69</course>
  <speed>0.33376638536557274</speed>
  <fix>3d</fix>
</trkpt>
<trkpt lat="40.0718089" lon="-105.2297955">
  <ele>1583.0</ele>
  <time>2026-08-28T17:54:31Z</time>
  <course>6.5</course>
  <speed>0.36</speed>
  <fix>3d</fix>
</trkpt>
<trkpt lat="40.0718094" lon="-105.2297954">
  <ele>1583.0</ele>
  <time>2026-08-28T17:54:31Z</time>
  <course>7.7</course>
  <speed>0.3238826948140329</speed>
  <fix>3d</fix>
</trkpt>
<trkpt lat="40.0718089" lon="-105.2297955">
  <ele>1583.0</ele>
  <time>2026-08-28T17:54:31Z</time>
  <course>6.5</course>
  <speed>0.36</speed>
  <fix>3d</fix>
</trkpt>
<trkpt lat="40.0718097" lon="-105.2297953">
  <ele>1582.99</ele>
  <time>2026-08-28T17:54:31Z</time>
  <course>7.71</course>
  <speed>0.31400636936215165</speed>
  <fix>3d</fix>
</trkpt>
<trkpt lat="40.0718095" lon="-105.2297955">
  <ele>1583.0</ele>
  <time>2026-08-28T17:54:31Z</time>
  <course>6.52</course>
  <speed>0.34</speed>
  <fix>3d</fix>
</trkpt>
<trkpt lat="40.07181" lon="-105.2297953">
  <ele>1582.99</ele>
  <time>2026-08-28T17:54:31Z</time>
  <course>7.72</course>
  <speed>0.304138126514911</speed>
  <fix>3d</fix>
</trkpt>
<trkpt lat="40.0718095" lon="-105.2297955">
  <ele>1583.0</ele>
  <time>2026-08-28T17:54:31Z</time>
  <course>6.52</course>
  <speed>0.34</speed>
  <fix>3d</fix>
</trkpt>
<trkpt lat="40.0718103" lon="-105.2297952">
  <ele>1582.99</ele>
  <time>2026-08-28T17:54:31Z</time>
  <course>7.73</course>
  <speed>0.29274562336608895</speed>
  <fix>3d</fix>
</trkpt>
<trkpt lat="40.0718102" lon="-105.2297954">
  <ele>1583.0</ele>
  <time>2026-08-28T17:54:31Z</time>
  <course>6.55</course>
  <speed>0.32</speed>
  <fix>3d</fix>
</trkpt>
<trkpt lat="40.0718106" lon="-105.2297952">
  <ele>1582.99</ele>
  <time>2026-08-28T17:54:31Z</time>
  <course>7.74</course>
  <speed>0.282842712474619</speed>
  <fix>3d</fix>
</trkpt>
<trkpt lat="40.0718102" lon="-105.2297954">
  <ele>1583.0</ele>
  <time>2026-08-28T17:54:31Z</time>
  <course>6.55</course>
  <speed>0.32</speed>
  <fix>3d</fix>
</trkpt>
<trkpt lat="40.0718109" lon="-105.2297951">
  <ele>1582.98</ele>
  <time>2026-08-28T17:54:31Z</time>
  <course>7.75</course>
  <speed>0.27294688127912364</speed>
  <fix>3d</fix>
</trkpt>
<trkpt lat="40.0718107" lon="-105.2297953">
  <ele>1583.0</ele>
  <time>2026-08-28T17:54:31Z</time>
  <course>6.57</course>
  <speed>0.31</speed>
  <fix>3d</fix>
</trkpt>
<trkpt lat="40.0718111" lon="-105.2297951">
  <ele>1582.98</ele>
  <time>2026-08-28T17:54:31Z</time>
  <course>7.76</course>
  <speed>0.27294688127912364</speed>
  <fix>3d</fix>
</trkpt>
<trkpt lat="40.0718107" lon="-105.2297953">
  <ele>1583.0</ele>
  <time>2026-08-28T17:54:31Z</time>
  <course>6.57</course>
  <speed>0.31</speed>
  <fix>3d</fix>
</trkpt>
<trkpt lat="40.0718114" lon="-105.2297951">
  <ele>1582.99</ele>
  <time>2026-08-28T17:54:31Z</time>
  <course>7.77</course>
  <speed>0.26305892875931813</speed>
  <fix>3d</fix>
</trkpt>
<trkpt lat="40.0718112" lon="-105.2297952">
  <ele>1583.0</ele>
  <time>2026-08-28T17:54:31Z</time>
  <course>6.59</course>
  <speed>0.29</speed>
  <fix>3d</fix>
</trkpt>
<trkpt lat="40.0718116" lon="-105.229795">
  <ele>1582.99</ele>
  <time>2026-08-28T17:54:31Z</time>
  <course>7.78</course>
  <speed>0.25317977802344327</speed>
  <fix>3d</fix>
</trkpt>
<trkpt lat="40.0718112" lon="-105.2297952">
  <ele>1583.0</ele>
  <time>2026-08-28T17:54:31Z</time>
  <course>6.59</course>
  <speed>0.29</speed>
  <fix>3d</fix>
</trkpt>
<trkpt lat="40.0718119" lon="-105.229795">
  <ele>1582.99</ele>
  <time>2026-08-28T17:54:31Z</time>
  <course>7.79</course>
  <speed>0.25317977802344327</speed>
  <fix>3d</fix>
</trkpt>
<trkpt lat="40.0718112" lon="-105.2297952">
  <ele>1583.0</ele>
  <time>2026-08-28T17:54:31Z</time>
  <course>6.59</course>
  <speed>0.29</speed>
  <fix>3d</fix>
</trkpt>
<trkpt lat="40.0718121" lon="-105.229795">
  <ele>1582.99</ele>
  <time>2026-08-28T17:54:31Z</time>
  <course>7.79</course>
  <speed>0.24331050121192876</speed>
  <fix>3d</fix>
</trkpt>
<trkpt lat="40.0718118" lon="-105.2297951">
  <ele>1583.0</ele>
  <time>2026-08-28T17:54:31Z</time>
  <course>6.61</course>
  <speed>0.28</speed>
  <fix>3d</fix>
</trkpt>
<trkpt lat="40.0718124" lon="-105.2297949">
  <ele>1582.99</ele>
  <time>2026-08-28T17:54:31Z</time>
  <course>7.8</course>
  <speed>0.23345235059857505</speed>
  <fix>3d</fix>
</trkpt>
<trkpt lat="40.0718118" lon="-105.2297951">
  <ele>1583.0</ele>
  <time>2026-08-28T17:54:31Z</time>
  <course>6.61</course>
  <speed>0.28</speed>
  <fix>3d</fix>
</trkpt>
<trkpt lat="40.0718126" lon="-105.2297949">
  <ele>1582.99</ele>
  <time>2026-08-28T17:54:31Z</time>
  <course>7.81</course>
  <speed>0.23345235059857505</speed>
  <fix>3d</fix>
</trkpt>
<trkpt lat="40.0718123" lon="-105.229795">
  <ele>1583.0</ele>
  <time>2026-08-28T17:54:31Z</time>
  <course>6.62</course>
  <speed>0.27</speed>
  <fix>3d</fix>
</trkpt>
<trkpt lat="40.0718128" lon="-105.2297948">
  <ele>1582.99</ele>
  <time>2026-08-28T17:54:31Z</time>
  <course>7.81</course>
  <speed>0.223606797749979</speed>
  <fix>3d</fix>
</trkpt>
<trkpt lat="40.0718123" lon="-105.229795">
  <ele>1583.0</ele>
  <time>2026-08-28T17:54:31Z</time>
  <course>6.62</course>
  <speed>0.27</speed>
  <fix>3d</fix>
</trkpt>
<trkpt lat="40.071813" lon="-105.2297948">
  <ele>1582.99</ele>
  <time>2026-08-28T17:54:31Z</time>
  <course>7.82</course>
  <speed>0.223606797749979</speed>
  <fix>3d</fix>
</trkpt>
<trkpt lat="40.0718128" lon="-105.229795">
  <ele>1583.0</ele>
  <time>2026-08-28T17:54:31Z</time>
  <course>6.64</course>
  <speed>0.26</speed>
  <fix>3d</fix>
</trkpt>
<trkpt lat="40.0718133" lon="-105.2297948">
  <ele>1582.99</ele>
  <time>2026-08-28T17:54:31Z</time>
  <course>7.83</course>
  <speed>0.21377558326431947</speed>
  <fix>3d</fix>
</trkpt>
<trkpt lat="40.0718128" lon="-105.229795">
  <ele>1583.0</ele>
  <time>2026-08-28T17:54:31Z</time>
  <course>6.64</course>
  <speed>0.26</speed>
  <fix>3d</fix>
</trkpt>
<trkpt lat="40.0718135" lon="-105.2297947">
  <ele>1582.98</ele>
  <time>2026-08-28T17:54:31Z</time>
  <course>7.83</course>
  <speed>0.21377558326431947</speed>
  <fix>3d</fix>
</trkpt>
<trkpt lat="40.0718132" lon="-105.2297949">
  <ele>1583.0</ele>
  <time>2026-08-28T17:54:31Z</time>
  <course>6.65</course>
  <speed>0.25</speed>
  <fix>3d</fix>
</trkpt>
<trkpt lat="40.0718137" lon="-105.2297947">
  <ele>1582.98</ele>
  <time>2026-08-28T17:54:31Z</time>
  <course>7.84</course>
  <speed>0.21377558326431947</speed>
  <fix>3d</fix>
</trkpt>
<trkpt lat="40.0718136" lon="-105.2297949">
  <ele>1583.0</ele>
  <time>2026-08-28T17:54:31Z</time>
  <course>6.67</course>
  <speed>0.24</speed>
  <fix>3d</fix>
</trkpt>
<trkpt lat="40.0718139" lon="-105.2297947">
  <ele>1582.99</ele>
  <time>2026-08-28T17:54:31Z</time>
  <course>7.85</course>
  <speed>0.2039607805437114</speed>
  <fix>3d</fix>
</trkpt>
<trkpt lat="40.0718136" lon="-105.2297949">
  <ele>1583.0</ele>
  <time>2026-08-28T17:54:31Z</time>
  <course>6.67</course>
  <speed>0.24</speed>
  <fix>3d</fix>
</trkpt>
<trkpt lat="40.0718141" lon="-105.2297946">
  <ele>1582.99</ele>
  <time>2026-08-28T17:54:31Z</time>
  <course>7.85</course>
  <speed>0.2039607805437114</speed>
  <fix>3d</fix>
</trkpt>
<trkpt lat="40.0718141" lon="-105.2297948">
  <ele>1583.0</ele>
  <time>2026-08-28T17:54:31Z</time>
  <course>6.68</course>
  <speed>0.23</speed>
  <fix>3d</fix>
</trkpt>
<trkpt lat="40.0718143" lon="-105.2297946">
  <ele>1582.99</ele>
  <time>2026-08-28T17:54:31Z</time>
  <course>7.86</course>
  <speed>0.19235384061671343</speed>
  <fix>3d</fix>
</trkpt>
<trkpt lat="40.0718141" lon="-105.2297948">
  <ele>1583.0</ele>
  <time>2026-08-28T17:54:31Z</time>
  <course>6.68</course>
  <speed>0.23</speed>
  <fix>3d</fix>
</trkpt>
<trkpt lat="40.0718145" lon="-105.2297946">
  <ele>1582.99</ele>
  <time>2026-08-28T17:54:31Z</time>
  <course>7.86</course>
  <speed>0.19235384061671343</speed>
  <fix>3d</fix>
</trkpt>
<trkpt lat="40.0718145" lon="-105.2297947">
  <ele>1583.0</ele>
  <time>2026-08-28T17:54:31Z</time>
  <course>6.69</course>
  <speed>0.22</speed>
  <fix>3d</fix>
</trkpt>
<trkpt lat="40.0718147" lon="-105.2297946">
  <ele>1582.99</ele>
  <time>2026-08-28T17:54:31Z</time>
  <course>7.86</course>
  <speed>0.1824828759089466</speed>
  <fix>3d</fix>
</trkpt>
<trkpt lat="40.0718145" lon="-105.2297947">
  <ele>1583.0</ele>
  <time>2026-08-28T17:54:31Z</time>
  <course>6.69</course>
  <speed>0.22</speed>
  <fix>3d</fix>
</trkpt>
<trkpt lat="40.0718149" lon="-105.2297945">
  <ele>1582.99</ele>
  <time>2026-08-28T17:54:31Z</time>
  <course>7.87</course>
  <speed>0.1824828759089466</speed>
  <fix>3d</fix>
</trkpt>
<trkpt lat="40.0718148" lon="-105.2297947">
  <ele>1583.0</ele>
  <time>2026-08-28T17:54:31Z</time>
  <course>6.7</course>
  <speed>0.21</speed>
  <fix>3d</fix>
</trkpt>
<trkpt lat="40.0718151" lon="-105.2297945">
  <ele>1582.99</ele>
  <time>2026-08-28T17:54:31Z</time>
  <course>7.87</course>
  <speed>0.1824828759089466</speed>
  <fix>3d</fix>
</trkpt>
<trkpt lat="40.0718148" lon="-105.2297947">
  <ele>1583.0</ele>
  <time>2026-08-28T17:54:31Z</time>
  <course>6.7</course>
  <speed>0.21</speed>
  <fix>3d</fix>
</trkpt>
<trkpt lat="40.0718152" lon="-105.2297945">
  <ele>1582.99</ele>
  <time>2026-08-28T17:54:31Z</time>
  <course>7.88</course>
  <speed>0.17262676501632068</speed>
  <fix>3d</fix>
</trkpt>
<trkpt lat="40.0718153" lon="-105.2297946">
  <ele>1583.0</ele>
  <time>2026-08-28T17:54:31Z</time>
  <course>6.71</course>
  <speed>0.2</speed>
  <fix>3d</fix>
</trkpt>
<trkpt lat="40.0718154" lon="-105.2297944">
  <ele>1582.99</ele>
  <time>2026-08-28T17:54:31Z</time>
  <course>7.88</course>
  <speed>0.17262676501632068</speed>
  <fix>3d</fix>
</trkpt>
<trkpt lat="40.0718153" lon="-105.2297946">
  <ele>1583.0</ele>
  <time>2026-08-28T17:54:31Z</time>
  <course>6.71</course>
  <speed>0.2</speed>
  <fix>3d</fix>
</trkpt>
<trkpt lat="40.0718156" lon="-105.2297944">
  <ele>1582.98</ele>
  <time>2026-08-28T17:54:31Z</time>
  <course>7.88</course>
  <speed>0.16278820596099705</speed>
  <fix>3d</fix>
</trkpt>
<trkpt lat="40.0718156" lon="-105.2297945">
  <ele>1583.0</ele>
  <time>2026-08-28T17:54:31Z</time>
  <course>6.71</course>
  <speed>0.19</speed>
  <fix>3d</fix>
</trkpt>
<trkpt lat="40.0718158" lon="-105.2297944">
  <ele>1582.98</ele>
  <time>2026-08-28T17:54:31Z</time>
  <course>7.89</course>
  <speed>0.16278820596099705</speed>
  <fix>3d</fix>
</trkpt>
<trkpt lat="40.0718156" lon="-105.2297945">
  <ele>1583.0</ele>
  <time>2026-08-28T17:54:31Z</time>
  <course>6.71</course>
  <speed>0.19</speed>
  <fix>3d</fix>
</trkpt>
<trkpt lat="40.0718159" lon="-105.2297944">
  <ele>1582.98</ele>
  <time>2026-08-28T17:54:31Z</time>
  <course>7.89</course>
  <speed>0.16278820596099705</speed>
  <fix>3d</fix>
</trkpt>
<trkpt lat="40.071816" lon="-105.2297945">
  <ele>1583.0</ele>
  <time>2026-08-28T17:54:31Z</time>
  <course>6.72</course>
  <speed>0.19</speed>
  <fix>3d</fix>
</trkpt>
<trkpt lat="40.0718161" lon="-105.2297943">
  <ele>1582.98</ele>
  <time>2026-08-28T17:54:31Z</time>
  <course>7.89</course>
  <speed>0.15297058540778355</speed>
  <fix>3d</fix>
</trkpt>
<trkpt lat="40.071816" lon="-105.2297945">
  <ele>1583.0</ele>
  <time>2026-08-28T17:54:31Z</time>
  <course>6.72</course>
  <speed>0.19</speed>
  <fix>3d</fix>
</trkpt>
<trkpt lat="40.0718163" lon="-105.2297943">
  <ele>1582.98</ele>
  <time>2026-08-28T17:54:31Z</time>
  <course>7.9</course>
  <speed>0.15297058540778355</speed>
  <fix>3d</fix>
</trkpt>
<trkpt lat="40.071816" lon="-105.2297945">
  <ele>1583.0</ele>
  <time>2026-08-28T17:54:31Z</time>
  <course>6.72</course>
  <speed>0.19</speed>
  <fix>3d</fix>
</trkpt>
<trkpt lat="40.0718164" lon="-105.2297943">
  <ele>1582.98</ele>
  <time>2026-08-28T17:54:31Z</time>
  <course>7.9</course>
  <speed>0.15297058540778355</speed>
  <fix>3d</fix>
</trkpt>
<trkpt lat="40.0718163" lon="-105.2297945">
  <ele>1583.0</ele>
  <time>2026-08-28T17:54:31Z</time>
  <course>6.73</course>
  <speed>0.18</speed>
  <fix>3d</fix>
</trkpt>
<trkpt lat="40.0718166" lon="-105.2297943">
  <ele>1582.99</ele>
  <time>2026-08-28T17:54:31Z</time>
  <course>7.9</course>
  <speed>0.15297058540778355</speed>
  <fix>3d</fix>
</trkpt>
<trkpt lat="40.0718163" lon="-105.2297945">
  <ele>1583.0</ele>
  <time>2026-08-28T17:54:31Z</time>
  <course>6.73</course>
  <speed>0.18</speed>
  <fix>3d</fix>
</trkpt>
<trkpt lat="40.0718167" lon="-105.2297942">
  <ele>1582.99</ele>
  <time>2026-08-28T17:54:31Z</time>
  <course>7.9</course>
  <speed>0.14317821063276354</speed>
  <fix>3d</fix>
</trkpt>
<trkpt lat="40.0718166" lon="-105.2297944">
  <ele>1583.0</ele>
  <time>2026-08-28T17:54:31Z</time>
  <course>6.73</course>
  <speed>0.17</speed>
  <fix>3d</fix>
</trkpt>
<trkpt lat="40.0718169" lon="-105.2297942">
  <ele>1582.99</ele>
  <time>2026-08-28T17:54:31Z</time>
  <course>7.91</course>
  <speed>0.14317821063276354</speed>
  <fix>3d</fix>
</trkpt>
<trkpt lat="40.0718166" lon="-105.2297944">
  <ele>1583.0</ele>
  <time>2026-08-28T17:54:31Z</time>
  <course>6.73</course>
  <speed>0.17</speed>
  <fix>3d</fix>
</trkpt>
<trkpt lat="40.071817" lon="-105.2297942">
  <ele>1583.0</ele>
  <time>2026-08-28T17:54:31Z</time>
  <course>7.91</course>
  <speed>0.13341664064126335</speed>
  <fix>3d</fix>
</trkpt>
<trkpt lat="40.0718169" lon="-105.2297943">
  <ele>1583.0</ele>
  <time>2026-08-28T17:54:31Z</time>
  <course>6.74</course>
  <speed>0.17</speed>
  <fix>3d</fix>
</trkpt>
<trkpt lat="40.0718172" lon="-105.2297942">
  <ele>1583.0</ele>
  <time>2026-08-28T17:54:31Z</time>
  <course>7.91</course>
  <speed>0.12369316876852982</speed>
  <fix>3d</fix>
</trkpt>
<trkpt lat="40.0718172" lon="-105.2297943">
  <ele>1583.0</ele>
  <time>2026-08-28T17:54:31Z</time>
  <course>6.74</course>
  <speed>0.16</speed>
  <fix>3d</fix>
</trkpt>
<trkpt lat="40.0718173" lon="-105.2297941">
  <ele>1583.0</ele>
  <time>2026-08-28T17:54:31Z</time>
  <course>7.91</course>
  <speed>0.12369316876852982</speed>
  <fix>3d</fix>
</trkpt>
<trkpt lat="40.0718172" lon="-105.2297943">
  <ele>1583.0</ele>
  <time>2026-08-28T17:54:31Z</time>
  <course>6.74</course>
  <speed>0.16</speed>
  <fix>3d</fix>
</trkpt>
<trkpt lat="40.0718174" lon="-105.2297941">
  <ele>1583.0</ele>
  <time>2026-08-28T17:54:31Z</time>
  <course>7.91</course>
  <speed>0.11401754250991379</speed>
  <fix>3d</fix>
</trkpt>
<trkpt lat="40.0718175" lon="-105.2297943">
  <ele>1583.0</ele>
  <time>2026-08-28T17:54:31Z</time>
  <course>6.74</course>
  <speed>0.14</speed>
  <fix>3d</fix>
</trkpt>
<trkpt lat="40.0718176" lon="-105.2297941">
  <ele>1583.0</ele>
  <time>2026-08-28T17:54:31Z</time>
  <course>7.9</course>
  <speed>0.1044030650891055</speed>
  <fix>3d</fix>
</trkpt>
<trkpt lat="40.0718175" lon="-105.2297943">
  <ele>1583.0</ele>
  <time>2026-08-28T17:54:31Z</time>
  <course>6.74</course>
  <speed>0.14</speed>
  <fix>3d</fix>
</trkpt>
<trkpt lat="40.0718177" lon="-105.2297941">
  <ele>1583.0</ele>
  <time>2026-08-28T17:54:31Z</time>
  <course>7.9</course>
  <speed>0.1044030650891055</speed>
  <fix>3d</fix>
</trkpt>
<trkpt lat="40.0718178" lon="-105.2297942">
  <ele>1583.0</ele>
  <time>2026-08-28T17:54:31Z</time>
  <course>6.74</course>
  <speed>0.13</speed>
  <fix>3d</fix>
</trkpt>
<trkpt lat="40.0718178" lon="-105.2297941">
  <ele>1583.0</ele>
  <time>2026-08-28T17:54:31Z</time>
  <course>7.9</course>
  <speed>0.09219544457292887</speed>
  <fix>3d</fix>
</trkpt>
<trkpt lat="40.0718178" lon="-105.2297942">
  <ele>1583.0</ele>
  <time>2026-08-28T17:54:31Z</time>
  <course>6.74</course>
  <speed>0.13</speed>
  <fix>3d</fix>
</trkpt>
<trkpt lat="40.0718179" lon="-105.2297941">
  <ele>1583.0</ele>
  <time>2026-08-28T17:54:31Z</time>
  <course>7.9</course>
  <speed>0.0824621125123532</speed>
  <fix>3d</fix>
</trkpt>
<trkpt lat="40.071818" lon="-105.2297942">
  <ele>1583.0</ele>
  <time>2026-08-28T17:54:31Z</time>
  <course>6.75</course>
  <speed>0.12</speed>
  <fix>3d</fix>
</trkpt>
<trkpt lat="40.071818" lon="-105.229794">
  <ele>1583.0</ele>
  <time>2026-08-28T17:54:31Z</time>
  <course>7.9</course>
  <speed>0.0824621125123532</speed>
  <fix>3d</fix>
</trkpt>
<trkpt lat="40.071818" lon="-105.2297942">
  <ele>1583.0</ele>
  <time>2026-08-28T17:54:31Z</time>
  <course>6.75</course>
  <speed>0.12</speed>
  <fix>3d</fix>
</trkpt>
<trkpt lat="40.0718181" lon="-105.229794">
  <ele>1583.0</ele>
  <time>2026-08-28T17:54:31Z</time>
  <course>7.9</course>
  <speed>0.07280109889280519</speed>
  <fix>3d</fix>
</trkpt>
<trkpt lat="40.0718181" lon="-105.2297942">
  <ele>1583.0</ele>
  <time>2026-08-28T17:54:31Z</time>
  <course>6.75</course>
  <speed>0.1</speed>
  <fix>3d</fix>
</trkpt>
<trkpt lat="40.0718181" lon="-105.229794">
  <ele>1583.0</ele>
  <time>2026-08-28T17:54:31Z</time>
  <course>7.9</course>
  <speed>0.07280109889280519</speed>
  <fix>3d</fix>
</trkpt>
<trkpt lat="40.0718182" lon="-105.229794">
  <ele>1583.01</ele>
  <time>2026-08-28T17:54:31Z</time>
  <course>7.9</course>
  <speed>0.07280109889280519</speed>
  <fix>3d</fix>
</trkpt>
<trkpt lat="40.0718181" lon="-105.2297942">
  <ele>1583.0</ele>
  <time>2026-08-28T17:54:31Z</time>
  <course>6.75</course>
  <speed>0.1</speed>
  <fix>3d</fix>
</trkpt>
<trkpt lat="40.0718183" lon="-105.229794">
  <ele>1583.01</ele>
  <time>2026-08-28T17:54:31Z</time>
  <course>7.9</course>
  <speed>0.0632455532033676</speed>
  <fix>3d</fix>
</trkpt>
<trkpt lat="40.0718184" lon="-105.2297941">
  <ele>1583.0</ele>
  <time>2026-08-28T17:54:31Z</time>
  <course>6.75</course>
  <speed>0.09</speed>
  <fix>3d</fix>
</trkpt>
<trkpt lat="40.0718183" lon="-105.229794">
  <ele>1583.01</ele>
  <time>2026-08-28T17:54:31Z</time>
  <course>7.9</course>
  <speed>0.0632455532033676</speed>
  <fix>3d</fix>
</trkpt>
<trkpt lat="40.0718184" lon="-105.2297941">
  <ele>1583.0</ele>
  <time>2026-08-28T17:54:31Z</time>
  <course>6.75</course>
  <speed>0.09</speed>
  <fix>3d</fix>
</trkpt>
<trkpt lat="40.0718184" lon="-105.229794">
  <ele>1583.01</ele>
  <time>2026-08-28T17:54:31Z</time>
  <course>7.9</course>
  <speed>0.0632455532033676</speed>
  <fix>3d</fix>
</trkpt>
<trkpt lat="40.0718185" lon="-105.229794">
  <ele>1583.0</ele>
  <time>2026-08-28T17:54:31Z</time>
  <course>6.75</course>
  <speed>0.08</speed>
  <fix>3d</fix>
</trkpt>
<trkpt lat="40.0718185" lon="-105.229794">
  <ele>1583.02</ele>
  <time>2026-08-28T17:54:31Z</time>
  <course>7.9</course>
  <speed>0.053851648071345036</speed>
  <fix>3d</fix>
</trkpt>
<trkpt lat="40.0718185" lon="-105.229794">
  <ele>1583.0</ele>
  <time>2026-08-28T17:54:31Z</time>
  <course>6.75</course>
  <speed>0.08</speed>
  <fix>3d</fix>
</trkpt>
<trkpt lat="40.0718186" lon="-105.2297939">
  <ele>1583.02</ele>
  <time>2026-08-28T17:54:31Z</time>
  <course>7.9</course>
  <speed>0.053851648071345036</speed>
  <fix>3d</fix>
</trkpt>
<trkpt lat="40.0718185" lon="-105.229794">
  <ele>1583.0</ele>
  <time>2026-08-28T17:54:31Z</time>
  <course>6.75</course>
  <speed>0.08</speed>
  <fix>3d</fix>
</trkpt>
<trkpt lat="40.0718186" lon="-105.2297939">
  <ele>1583.02</ele>
  <time>2026-08-28T17:54:31Z</time>
  <course>7.9</course>
  <speed>0.053851648071345036</speed>
  <fix>3d</fix>
</trkpt>
<trkpt lat="40.0718186" lon="-105.229794">
  <ele>1583.0</ele>
  <time>2026-08-28T17:54:31Z</time>
  <course>6.75</course>
  <speed>0.08</speed>
  <fix>3d</fix>
</trkpt>
<trkpt lat="40.0718187" lon="-105.2297939">
  <ele>1583.03</ele>
  <time>2026-08-28T17:54:31Z</time>
  <course>7.9</course>
  <speed>0.044721359549995794</speed>
  <fix>3d</fix>
</trkpt>
<trkpt lat="40.0718186" lon="-105.229794">
  <ele>1583.0</ele>
  <time>2026-08-28T17:54:31Z</time>
  <course>6.75</course>
  <speed>0.08</speed>
  <fix>3d</fix>
</trkpt>
<trkpt lat="40.0718187" lon="-105.2297939">
  <ele>1583.03</ele>
  <time>2026-08-28T17:54:31Z</time>
  <course>7.9</course>
  <speed>0.044721359549995794</speed>
  <fix>3d</fix>
</trkpt>
<trkpt lat="40.0718188" lon="-105.229794">
  <ele>1583.0</ele>
  <time>2026-08-28T17:54:31Z</time>
  <course>6.75</course>
  <speed>0.07</speed>
  <fix>3d</fix>
</trkpt>
<trkpt lat="40.0718188" lon="-105.2297939">
  <ele>1583.03</ele>
  <time>2026-08-28T17:54:31Z</time>
  <course>7.9</course>
  <speed>0.044721359549995794</speed>
  <fix>3d</fix>
</trkpt>
<trkpt lat="40.0718188" lon="-105.229794">
  <ele>1583.0</ele>
  <time>2026-08-28T17:54:31Z</time>
  <course>6.75</course>
  <speed>0.07</speed>
  <fix>3d</fix>
</trkpt>
<trkpt lat="40.0718188" lon="-105.2297939">
  <ele>1583.04</ele>
  <time>2026-08-28T17:54:31Z</time>
  <course>7.9</course>
  <speed>0.03605551275463989</speed>
  <fix>3d</fix>
</trkpt>
<trkpt lat="40.0718189" lon="-105.229794">
  <ele>1583.0</ele>
  <time>2026-08-28T17:54:31Z</time>
  <course>6.75</course>
  <speed>0.06</speed>
  <fix>3d</fix>
</trkpt>
<trkpt lat="40.0718189" lon="-105.2297939">
  <ele>1583.05</ele>
  <time>2026-08-28T17:54:31Z</time>
  <course>7.9</course>
  <speed>0.03605551275463989</speed>
  <fix>3d</fix>
</trkpt>
<trkpt lat="40.071819" lon="-105.229794">
  <ele>1583.0</ele>
  <time>2026-08-28T17:54:31Z</time>
  <course>6.75</course>
  <speed>0.05</speed>
  <fix>3d</fix>
</trkpt>
<trkpt lat="40.0718189" lon="-105.2297939">
  <ele>1583.05</ele>
  <time>2026-08-28T17:54:31Z</time>
  <course>7.9</course>
  <speed>0.03605551275463989</speed>
  <fix>3d</fix>
</trkpt>
<trkpt lat="40.071819" lon="-105.229794">
  <ele>1583.0</ele>
  <time>2026-08-28T17:54:31Z</time>
  <course>6.75</course>
  <speed>0.05</speed>
  <fix>3d</fix>
</trkpt>
<trkpt lat="40.071819" lon="-105.2297939">
  <ele>1583.06</ele>
  <time>2026-08-28T17:54:31Z</time>
  <course>7.9</course>
  <speed>0.0282842712474619</speed>
  <fix>3d</fix>
</trkpt>
<trkpt lat="40.0718191" lon="-105.229794">
  <ele>1583.0</ele>
  <time>2026-08-28T17:54:31Z</time>
  <course>6.76</course>
  <speed>0.05</speed>
  <fix>3d</fix>
</trkpt>
<trkpt lat="40.071819" lon="-105.2297939">
  <ele>1583.06</ele>
  <time>2026-08-28T17:54:31Z</time>
  <course>7.9</course>
  <speed>0.0282842712474619</speed>
  <fix>3d</fix>
</trkpt>
<trkpt lat="40.0718191" lon="-105.229794">
  <ele>1583.0</ele>
  <time>2026-08-28T17:54:31Z</time>
  <course>6.76</course>
  <speed>0.05</speed>
  <fix>3d</fix>
</trkpt>
<trkpt lat="40.0718191" lon="-105.2297938">
  <ele>1583.06</ele>
  <time>2026-08-28T17:54:31Z</time>
  <course>7.89</course>
  <speed>0.0282842712474619</speed>
  <fix>3d</fix>
</trkpt>
<trkpt lat="40.0718192" lon="-105.229794">
  <ele>1583.0</ele>
  <time>2026-08-28T17:54:31Z</time>
  <course>6.76</course>
  <speed>0.04</speed>
  <fix>3d</fix>
</trkpt>
<trkpt lat="40.0718191" lon="-105.2297939">
  <ele>1583.06</ele>
  <time>2026-08-28T17:54:31Z</time>
  <course>7.89</course>
  <speed>0.022360679774997897</speed>
  <fix>3d</fix>
</trkpt>
<trkpt lat="40.0718192" lon="-105.229794">
  <ele>1583.0</ele>
  <time>2026-08-28T17:54:31Z</time>
  <course>6.76</course>
  <speed>0.04</speed>
  <fix>3d</fix>
</trkpt>
<trkpt lat="40.0718191" lon="-105.2297938">
  <ele>1583.06</ele>
  <time>2026-08-28T17:54:31Z</time>
  <course>7.89</course>
  <speed>0.022360679774997897</speed>
  <fix>3d</fix>
</trkpt>
<trkpt lat="40.0718193" lon="-105.229794">
  <ele>1583.0</ele>
  <time>2026-08-28T17:54:31Z</time>
  <course>6.76</course>
  <speed>0.04</speed>
  <fix>3d</fix>
</trkpt>
<trkpt lat="40.0718192" lon="-105.2297938">
  <ele>1583.05</ele>
  <time>2026-08-28T17:54:31Z</time>
  <course>7.89</course>
  <speed>0.01414213562373095</speed>
  <fix>3d</fix>
</trkpt>
<trkpt lat="40.0718193" lon="-105.229794">
  <ele>1583.0</ele>
  <time>2026-08-28T17:54:31Z</time>
  <course>6.76</course>
  <speed>0.04</speed>
  <fix>3d</fix>
</trkpt>
<trkpt lat="40.0718192" lon="-105.2297938">
  <ele>1583.04</ele>
  <time>2026-08-28T17:54:31Z</time>
  <course>7.89</course>
  <speed>0.01414213562373095</speed>
  <fix>3d</fix>
</trkpt>
<trkpt lat="40.0718194" lon="-105.229794">
  <ele>1583.0</ele>
  <time>2026-08-28T17:54:31Z</time>
  <course>6.76</course>
  <speed>0.03</speed>
  <fix>3d</fix>
</trkpt>
<trkpt lat="40.0718193" lon="-105.2297938">
  <ele>1583.03</ele>
  <time>2026-08-28T17:54:31Z</time>
  <course>7.89</course>
  <speed>0.01414213562373095</speed>
  <fix>3d</fix>
</trkpt>
<trkpt lat="40.0718194" lon="-105.229794">
  <ele>1583.0</ele>
  <time>2026-08-28T17:54:31Z</time>
  <course>6.76</course>
  <speed>0.03</speed>
  <fix>3d</fix>
</trkpt>
<trkpt lat="40.0718193" lon="-105.2297938">
  <ele>1583.03</ele>
  <time>2026-08-28T17:54:31Z</time>
  <course>7.89</course>
  <speed>0.01414213562373095</speed>
  <fix>3d</fix>
</trkpt>
<trkpt lat="40.0718194" lon="-105.229794">
  <ele>1583.0</ele>
  <time>2026-08-28T17:54:31Z</time>
  <course>6.77</course>
  <speed>0.03</speed>
  <fix>3d</fix>
</trkpt>
<trkpt lat="40.0718193" lon="-105.2297939">
  <ele>1583.02</ele>
  <time>2026-08-28T17:54:31Z</time>
  <course>7.89</course>
  <speed>0.01414213562373095</speed>
  <fix>3d</fix>
</trkpt>
<trkpt lat="40.0718194" lon="-105.229794">
  <ele>1583.0</ele>
  <time>2026-08-28T17:54:31Z</time>
  <course>6.77</course>
  <speed>0.03</speed>
  <fix>3d</fix>
</trkpt>
<trkpt lat="40.0718193" lon="-105.2297938">
  <ele>1583.02</ele>
  <time>2026-08-28T17:54:31Z</time>
  <course>7.89</course>
  <speed>0.01414213562373095</speed>
  <fix>3d</fix>
</trkpt>
<trkpt lat="40.0718195" lon="-105.229794">
  <ele>1583.0</ele>
  <time>2026-08-28T17:54:31Z</time>
  <course>6.77</course>
  <speed>0.03</speed>
  <fix>3d</fix>
</trkpt>
<trkpt lat="40.0718194" lon="-105.2297939">
  <ele>1583.02</ele>
  <time>2026-08-28T17:54:31Z</time>
  <course>7.89</course>
  <speed>0.01414213562373095</speed>
  <fix>3d</fix>
</trkpt>
<trkpt lat="40.0718195" lon="-105.229794">
  <ele>1583.0</ele>
  <time>2026-08-28T17:54:31Z</time>
  <course>6.77</course>
  <speed>0.03</speed>
  <fix>3d</fix>
</trkpt>
<trkpt lat="40.0718194" lon="-105.2297939">
  <ele>1583.01</ele>
  <time>2026-08-28T17:54:31Z</time>
  <course>7.89</course>
  <speed>0.01</speed>
  <fix>3d</fix>
</trkpt>
<trkpt lat="40.0718195" lon="-105.229794">
  <ele>1583.0</ele>
  <time>2026-08-28T17:54:31Z</time>
  <course>6.77</course>
  <speed>0.03</speed>
  <fix>3d</fix>
</trkpt>
<trkpt lat="40.0718194" lon="-105.2297939">
  <ele>1583.01</ele>
  <time>2026-08-28T17:54:31Z</time>
  <course>7.89</course>
  <speed>0.01</speed>
  <fix>3d</fix>
</trkpt>
<trkpt lat="40.0718196" lon="-105.229794">
  <ele>1583.0</ele>
  <time>2026-08-28T17:54:31Z</time>
  <course>6.77</course>
  <speed>0.02</speed>
  <fix>3d</fix>
</trkpt>
<trkpt lat="40.0718194" lon="-105.2297939">
  <ele>1583.0</ele>
  <time>2026-08-28T17:54:31Z</time>
  <course>7.89</course>
  <speed>0.01</speed>
  <fix>3d</fix>
</trkpt>
<trkpt lat="40.0718196" lon="-105.229794">
  <ele>1583.0</ele>
  <time>2026-08-28T17:54:31Z</time>
  <course>6.77</course>
  <speed>0.02</speed>
  <fix>3d</fix>
</trkpt>
<trkpt lat="40.0718195" lon="-105.2297939">
  <ele>1583.0</ele>
  <time>2026-08-28T17:54:31Z</time>
  <course>7.89</course>
  <speed>0.01</speed>
  <fix>3d</fix>
</trkpt>
<trkpt lat="40.0718197" lon="-105.229794">
  <ele>1583.0</ele>
  <time>2026-08-28T17:54:31Z</time>
  <course>6.77</course>
  <speed>0.02</speed>
  <fix>3d</fix>
</trkpt>
<trkpt lat="40.0718195" lon="-105.2297939">
  <ele>1583.0</ele>
  <time>2026-08-28T17:54:31Z</time>
  <course>7.89</course>
  <speed>0.01</speed>
  <fix>3d</fix>
</trkpt>
<trkpt lat="40.0718197" lon="-105.229794">
  <ele>1583.0</ele>
  <time>2026-08-28T17:54:31Z</time>
  <course>6.77</course>
  <speed>0.02</speed>
  <fix>3d</fix>
</trkpt>
<trkpt lat="40.0718195" lon="-105.2297939">
  <ele>1582.99</ele>
  <time>2026-08-28T17:54:31Z</time>
  <course>7.89</course>
  <speed>0.01</speed>
  <fix>3d</fix>
</trkpt>
<trkpt lat="40.0718197" lon="-105.2297939">
  <ele>1583.0</ele>
  <time>2026-08-28T17:54:31Z</time>
  <course>6.78</course>
  <speed>0.02</speed>
  <fix>3d</fix>
</trkpt>
<trkpt lat="40.0718196" lon="-105.2297939">
  <ele>1582.99</ele>
  <time>2026-08-28T17:54:31Z</time>
  <course>7.88</course>
  <speed>0.01</speed>
  <fix>3d</fix>
</trkpt>
<trkpt lat="40.0718197" lon="-105.2297939">
  <ele>1583.0</ele>
  <time>2026-08-28T17:54:31Z</time>
  <course>6.78</course>
  <speed>0.02</speed>
  <fix>3d</fix>
</trkpt>
<trkpt lat="40.0718196" lon="-105.2297939">
  <ele>1582.98</ele>
  <time>2026-08-28T17:54:31Z</time>
  <course>7.88</course>
  <speed>0.01</speed>
  <fix>3d</fix>
</trkpt>
<trkpt lat="40.0718197" lon="-105.2297938">
  <ele>1583.0</ele>
  <time>2026-08-28T17:54:31Z</time>
  <course>6.78</course>
  <speed>0.02</speed>
  <fix>3d</fix>
</trkpt>
<trkpt lat="39.655741" lon="-104.1383097">
  <ele>1566.58</ele>
  <time>2026-08-28T17:54:31Z</time>
  <course>0.0</course>
  <speed>0.0</speed>
  <fix>3d</fix>
</trkpt>
<trkpt lat="40.0713749" lon="-105.229789">
  <ele>1583.0</ele>
  <time>2026-08-28T17:54:31Z</time>
  <course>0.0</course>
  <speed>0.0</speed>
  <fix>3d</fix>
</trkpt>
<trkpt lat="40.0713749" lon="-105.229789">
  <ele>1583.0</ele>
  <time>2026-08-28T17:54:31Z</time>
  <course>238.36</course>
  <speed>0.0</speed>
  <fix>3d</fix>
</trkpt>
<trkpt lat="40.0713749" lon="-105.229789">
  <ele>1583.0</ele>
  <time>2026-08-28T17:54:31Z</time>
  <course>0.0</course>
  <speed>0.0</speed>
  <fix>3d</fix>
</trkpt>
<trkpt lat="40.0713749" lon="-105.229789">
  <ele>1583.0</ele>
  <time>2026-08-28T17:54:31Z</time>
  <course>238.44</course>
  <speed>0.0</speed>
  <fix>3d</fix>
</trkpt>
<trkpt lat="40.0713749" lon="-105.229789">
  <ele>1583.0</ele>
  <time>2026-08-28T17:54:31Z</time>
  <course>0.0</course>
  <speed>0.0</speed>
  <fix>3d</fix>
</trkpt>
<trkpt lat="40.0713749" lon="-105.229789">
  <ele>1583.0</ele>
  <time>2026-08-28T17:54:31Z</time>
  <course>238.64</course>
  <speed>0.0</speed>
  <fix>3d</fix>
</trkpt>
<trkpt lat="40.0713749" lon="-105.229789">
  <ele>1583.0</ele>
  <time>2026-08-28T17:54:31Z</time>
  <course>0.0</course>
  <speed>0.0</speed>
  <fix>3d</fix>
</trkpt>
<trkpt lat="40.0713749" lon="-105.229789">
  <ele>1583.0</ele>
  <time>2026-08-28T17:54:31Z</time>
  <course>238.93</course>
  <speed>0.0</speed>
  <fix>3d</fix>
</trkpt>
<trkpt lat="40.0713749" lon="-105.229789">
  <ele>1583.0</ele>
  <time>2026-08-28T17:54:31Z</time>
  <course>0.0</course>
  <speed>0.0</speed>
  <fix>3d</fix>
</trkpt>
<trkpt lat="40.0713749" lon="-105.229789">
  <ele>1583.0</ele>
  <time>2026-08-28T17:54:31Z</time>
  <course>239.26</course>
  <speed>0.0</speed>
  <fix>3d</fix>
</trkpt>
<trkpt lat="40.0713749" lon="-105.229789">
  <ele>1583.0</ele>
  <time>2026-08-28T17:54:31Z</time>
  <course>0.0</course>
  <speed>0.0</speed>
  <fix>3d</fix>
</trkpt>
<trkpt lat="40.0713749" lon="-105.229789">
  <ele>1583.0</ele>
  <time>2026-08-28T17:54:31Z</time>
  <course>239.61</course>
  <speed>0.0</speed>
  <fix>3d</fix>
</trkpt>
<trkpt lat="40.0713749" lon="-105.229789">
  <ele>1583.0</ele>
  <time>2026-08-28T17:54:31Z</time>
  <course>0.0</course>
  <speed>0.0</speed>
  <fix>3d</fix>
</trkpt>
<trkpt lat="40.0713749" lon="-105.229789">
  <ele>1583.0</ele>
  <time>2026-08-28T17:54:31Z</time>
  <course>239.96</course>
  <speed>0.0</speed>
  <fix>3d</fix>
</trkpt>
<trkpt lat="40.0713749" lon="-105.229789">
  <ele>1583.0</ele>
  <time>2026-08-28T17:54:31Z</time>
  <course>0.0</course>
  <speed>0.0</speed>
  <fix>3d</fix>
</trkpt>
<trkpt lat="40.0713749" lon="-105.229789">
  <ele>1583.0</ele>
  <time>2026-08-28T17:54:31Z</time>
  <course>240.29</course>
  <speed>0.0</speed>
  <fix>3d</fix>
</trkpt>
<trkpt lat="40.0713749" lon="-105.229789">
  <ele>1583.0</ele>
  <time>2026-08-28T17:54:31Z</time>
  <course>0.0</course>
  <speed>0.0</speed>
  <fix>3d</fix>
</trkpt>
<trkpt lat="40.0713749" lon="-105.229789">
  <ele>1583.0</ele>
  <time>2026-08-28T17:54:31Z</time>
  <course>240.61</course>
  <speed>0.0</speed>
  <fix>3d</fix>
</trkpt>
<trkpt lat="40.0713749" lon="-105.229789">
  <ele>1583.0</ele>
  <time>2026-08-28T17:54:31Z</time>
  <course>0.0</course>
  <speed>0.0</speed>
  <fix>3d</fix>
</trkpt>
<trkpt lat="40.0713749" lon="-105.229789">
  <ele>1583.0</ele>
  <time>2026-08-28T17:54:31Z</time>
  <course>240.92</course>
  <speed>0.0</speed>
  <fix>3d</fix>
</trkpt>
<trkpt lat="40.0713749" lon="-105.229789">
  <ele>1583.0</ele>
  <time>2026-08-28T17:54:31Z</time>
  <course>0.0</course>
  <speed>0.0</speed>
  <fix>3d</fix>
</trkpt>
<trkpt lat="40.0713749" lon="-105.229789">
  <ele>1583.0</ele>
  <time>2026-08-28T17:54:31Z</time>
  <course>241.21</course>
  <speed>0.0</speed>
  <fix>3d</fix>
</trkpt>
<trkpt lat="40.0713749" lon="-105.229789">
  <ele>1583.0</ele>
  <time>2026-08-28T17:54:31Z</time>
  <course>0.0</course>
  <speed>0.0</speed>
  <fix>3d</fix>
</trkpt>
<trkpt lat="40.0713749" lon="-105.229789">
  <ele>1583.0</ele>
  <time>2026-08-28T17:54:31Z</time>
  <course>241.49</course>
  <speed>0.0</speed>
  <fix>3d</fix>
</trkpt>
<trkpt lat="40.0713749" lon="-105.229789">
  <ele>1583.0</ele>
  <time>2026-08-28T17:54:31Z</time>
  <course>0.0</course>
  <speed>0.0</speed>
  <fix>3d</fix>
</trkpt>
<trkpt lat="40.0713749" lon="-105.229789">
  <ele>1583.0</ele>
  <time>2026-08-28T17:54:31Z</time>
  <course>241.77</course>
  <speed>0.0</speed>
  <fix>3d</fix>
</trkpt>
<trkpt lat="40.0713749" lon="-105.229789">
  <ele>1583.0</ele>
  <time>2026-08-28T17:54:31Z</time>
  <course>0.0</course>
  <speed>0.0</speed>
  <fix>3d</fix>
</trkpt>
<trkpt lat="40.0713749" lon="-105.229789">
  <ele>1583.0</ele>
  <time>2026-08-28T17:54:31Z</time>
  <course>242.03</course>
  <speed>0.0</speed>
  <fix>3d</fix>
</trkpt>
<trkpt lat="40.0713749" lon="-105.229789">
  <ele>1583.0</ele>
  <time>2026-08-28T17:54:31Z</time>
  <course>0.0</course>
  <speed>0.0</speed>
  <fix>3d</fix>
</trkpt>
<trkpt lat="40.0713749" lon="-105.229789">
  <ele>1583.0</ele>
  <time>2026-08-28T17:54:31Z</time>
  <course>242.29</course>
  <speed>0.0</speed>
  <fix>3d</fix>
</trkpt>
<trkpt lat="40.0713749" lon="-105.229789">
  <ele>1583.0</ele>
  <time>2026-08-28T17:54:31Z</time>
  <course>0.0</course>
  <speed>0.0</speed>
  <fix>3d</fix>
</trkpt>
<trkpt lat="40.0713749" lon="-105.229789">
  <ele>1583.0</ele>
  <time>2026-08-28T17:54:31Z</time>
  <course>242.54</course>
  <speed>0.0</speed>
  <fix>3d</fix>
</trkpt>
<trkpt lat="40.0713749" lon="-105.229789">
  <ele>1583.0</ele>
  <time>2026-08-28T17:54:31Z</time>
  <course>0.0</course>
  <speed>0.0</speed>
  <fix>3d</fix>
</trkpt>
<trkpt lat="40.0713749" lon="-105.229789">
  <ele>1583.0</ele>
  <time>2026-08-28T17:54:31Z</time>
  <course>242.79</course>
  <speed>0.0</speed>
  <fix>3d</fix>
</trkpt>
<trkpt lat="40.0713749" lon="-105.229789">
  <ele>1583.0</ele>
  <time>2026-08-28T17:54:31Z</time>
  <course>0.0</course>
  <speed>0.0</speed>
  <fix>3d</fix>
</trkpt>
<trkpt lat="40.0713749" lon="-105.229789">
  <ele>1583.0</ele>
  <time>2026-08-28T17:54:31Z</time>
  <course>243.02</course>
  <speed>0.0</speed>
  <fix>3d</fix>
</trkpt>
<trkpt lat="40.0713749" lon="-105.229789">
  <ele>1583.0</ele>
  <time>2026-08-28T17:54:31Z</time>
  <course>0.0</course>
  <speed>0.0</speed>
  <fix>3d</fix>
</trkpt>
<trkpt lat="40.0713749" lon="-105.229789">
  <ele>1583.0</ele>
  <time>2026-08-28T17:54:31Z</time>
  <course>243.25</course>
  <speed>0.0</speed>
  <fix>3d</fix>
</trkpt>
<trkpt lat="40.0713749" lon="-105.229789">
  <ele>1583.0</ele>
  <time>2026-08-28T17:54:31Z</time>
  <course>0.0</course>
  <speed>0.0</speed>
  <fix>3d</fix>
</trkpt>
<trkpt lat="40.0713749" lon="-105.229789">
  <ele>1583.0</ele>
  <time>2026-08-28T17:54:31Z</time>
  <course>243.47</course>
  <speed>0.0</speed>
  <fix>3d</fix>
</trkpt>
<trkpt lat="40.0713749" lon="-105.229789">
  <ele>1583.0</ele>
  <time>2026-08-28T17:54:31Z</time>
  <course>0.0</course>
  <speed>0.0</speed>
  <fix>3d</fix>
</trkpt>
<trkpt lat="40.0713749" lon="-105.229789">
  <ele>1583.0</ele>
  <time>2026-08-28T17:54:31Z</time>
  <course>243.68</course>
  <speed>0.0</speed>
  <fix>3d</fix>
</trkpt>
<trkpt lat="40.0713749" lon="-105.229789">
  <ele>1583.0</ele>
  <time>2026-08-28T17:54:31Z</time>
  <course>0.0</course>
  <speed>0.0</speed>
  <fix>3d</fix>
</trkpt>
<trkpt lat="40.0713749" lon="-105.229789">
  <ele>1583.0</ele>
  <time>2026-08-28T17:54:31Z</time>
  <course>243.89</course>
  <speed>0.0</speed>
  <fix>3d</fix>
</trkpt>
<trkpt lat="40.0713749" lon="-105.229789">
  <ele>1583.0</ele>
  <time>2026-08-28T17:54:31Z</time>
  <course>0.0</course>
  <speed>0.0</speed>
  <fix>3d</fix>
</trkpt>
<trkpt lat="40.0713749" lon="-105.229789">
  <ele>1583.0</ele>
  <time>2026-08-28T17:54:31Z</time>
  <course>244.09</course>
  <speed>0.0</speed>
  <fix>3d</fix>
</trkpt>
<trkpt lat="40.0713749" lon="-105.229789">
  <ele>1583.0</ele>
  <time>2026-08-28T17:54:31Z</time>
  <course>0.0</course>
  <speed>0.0</speed>
  <fix>3d</fix>
</trkpt>
<trkpt lat="40.0713749" lon="-105.229789">
  <ele>1583.0</ele>
  <time>2026-08-28T17:54:31Z</time>
  <course>244.28</course>
  <speed>0.0</speed>
  <fix>3d</fix>
</trkpt>
<trkpt lat="40.0713749" lon="-105.229789">
  <ele>1583.0</ele>
  <time>2026-08-28T17:54:31Z</time>
  <course>0.0</course>
  <speed>0.0</speed>
  <fix>3d</fix>
</trkpt>
<trkpt lat="40.0713749" lon="-105.229789">
  <ele>1583.0</ele>
  <time>2026-08-28T17:54:31Z</time>
  <course>244.46</course>
  <speed>0.0</speed>
  <fix>3d</fix>
</trkpt>
<trkpt lat="40.0713749" lon="-105.229789">
  <ele>1583.0</ele>
  <time>2026-08-28T17:54:31Z</time>
  <course>0.0</course>
  <speed>0.0</speed>
  <fix>3d</fix>
</trkpt>
<trkpt lat="40.0713749" lon="-105.229789">
  <ele>1583.0</ele>
  <time>2026-08-28T17:54:31Z</time>
  <course>244.64</course>
  <speed>0.0</speed>
  <fix>3d</fix>
</trkpt>
<trkpt lat="40.0713749" lon="-105.229789">
  <ele>1583.0</ele>
  <time>2026-08-28T17:54:31Z</time>
  <course>0.0</course>
  <speed>0.0</speed>
  <fix>3d</fix>
</trkpt>
<trkpt lat="40.0713749" lon="-105.229789">
  <ele>1583.0</ele>
  <time>2026-08-28T17:54:31Z</time>
  <course>244.81</course>
  <speed>0.0</speed>
  <fix>3d</fix>
</trkpt>
<trkpt lat="40.0713749" lon="-105.229789">
  <ele>1583.0</ele>
  <time>2026-08-28T17:54:31Z</time>
  <course>0.0</course>
  <speed>0.0</speed>
  <fix>3d</fix>
</trkpt>
<trkpt lat="40.0713749" lon="-105.229789">
  <ele>1583.0</ele>
  <time>2026-08-28T17:54:31Z</time>
  <course>244.97</course>
  <speed>0.0</speed>
  <fix>3d</fix>
</trkpt>
<trkpt lat="40.0713749" lon="-105.229789">
  <ele>1583.0</ele>
  <time>2026-08-28T17:54:31Z</time>
  <course>0.0</course>
  <speed>0.0</speed>
  <fix>3d</fix>
</trkpt>
<trkpt lat="40.0713749" lon="-105.229789">
  <ele>1583.0</ele>
  <time>2026-08-28T17:54:31Z</time>
  <course>245.13</course>
  <speed>0.0</speed>
  <fix>3d</fix>
</trkpt>
<trkpt lat="40.0713749" lon="-105.229789">
  <ele>1583.0</ele>
  <time>2026-08-28T17:54:31Z</time>
  <course>0.0</course>
  <speed>0.0</speed>
  <fix>3d</fix>
</trkpt>
<trkpt lat="40.0713749" lon="-105.229789">
  <ele>1583.0</ele>
  <time>2026-08-28T17:54:31Z</time>
  <course>245.29</course>
  <speed>0.0</speed>
  <fix>3d</fix>
</trkpt>
<trkpt lat="40.0713749" lon="-105.229789">
  <ele>1583.0</ele>
  <time>2026-08-28T17:54:31Z</time>
  <course>0.0</course>
  <speed>0.0</speed>
  <fix>3d</fix>
</trkpt>
<trkpt lat="40.0713749" lon="-105.229789">
  <ele>1583.0</ele>
  <time>2026-08-28T17:54:31Z</time>
  <course>245.43</course>
  <speed>0.0</speed>
  <fix>3d</fix>
</trkpt>
<trkpt lat="40.0713749" lon="-105.229789">
  <ele>1583.0</ele>
  <time>2026-08-28T17:54:31Z</time>
  <course>0.0</course>
  <speed>0.0</speed>
  <fix>3d</fix>
</trkpt>
<trkpt lat="40.0713749" lon="-105.229789">
  <ele>1583.0</ele>
  <time>2026-08-28T17:54:31Z</time>
  <course>245.57</course>
  <speed>0.0</speed>
  <fix>3d</fix>
</trkpt>
<trkpt lat="40.0713749" lon="-105.229789">
  <ele>1583.0</ele>
  <time>2026-08-28T17:54:31Z</time>
  <course>0.0</course>
  <speed>0.0</speed>
  <fix>3d</fix>
</trkpt>
<trkpt lat="40.0713749" lon="-105.229789">
  <ele>1583.0</ele>
  <time>2026-08-28T17:54:31Z</time>
  <course>245.71</course>
  <speed>0.0</speed>
  <fix>3d</fix>
</trkpt>
<trkpt lat="40.0713749" lon="-105.229789">
  <ele>1583.0</ele>
  <time>2026-08-28T17:54:31Z</time>
  <course>0.0</course>
  <speed>0.0</speed>
  <fix>3d</fix>
</trkpt>
<trkpt lat="40.0713749" lon="-105.229789">
  <ele>1583.0</ele>
  <time>2026-08-28T17:54:31Z</time>
  <course>245.84</course>
  <speed>0.0</speed>
  <fix>3d</fix>
</trkpt>
<trkpt lat="40.0713749" lon="-105.229789">
  <ele>1583.0</ele>
  <time>2026-08-28T17:54:31Z</time>
  <course>0.0</course>
  <speed>0.0</speed>
  <fix>3d</fix>
</trkpt>
<trkpt lat="40.0713749" lon="-105.229789">
  <ele>1583.0</ele>
  <time>2026-08-28T17:54:31Z</time>
  <course>245.96</course>
  <speed>0.0</speed>
  <fix>3d</fix>
</trkpt>
<trkpt lat="40.0713749" lon="-105.229789">
  <ele>1583.0</ele>
  <time>2026-08-28T17:54:31Z</time>
  <course>0.0</course>
  <speed>0.0</speed>
  <fix>3d</fix>
</trkpt>
<trkpt lat="40.0713749" lon="-105.229789">
  <ele>1583.0</ele>
  <time>2026-08-28T17:54:31Z</time>
  <course>246.08</course>
  <speed>0.0</speed>
  <fix>3d</fix>
</trkpt>
<trkpt lat="40.0713749" lon="-105.229789">
  <ele>1583.0</ele>
  <time>2026-08-28T17:54:31Z</time>
  <course>0.0</course>
  <speed>0.0</speed>
  <fix>3d</fix>
</trkpt>
<trkpt lat="40.0713749" lon="-105.229789">
  <ele>1583.0</ele>
  <time>2026-08-28T17:54:31Z</time>
  <course>246.19</course>
  <speed>0.0</speed>
  <fix>3d</fix>
</trkpt>
<trkpt lat="40.0713749" lon="-105.229789">
  <ele>1583.0</ele>
  <time>2026-08-28T17:54:31Z</time>
  <course>0.0</course>
  <speed>0.0</speed>
  <fix>3d</fix>
</trkpt>
<trkpt lat="40.0713749" lon="-105.229789">
  <ele>1583.0</ele>
  <time>2026-08-28T17:54:31Z</time>
  <course>246.3</course>
  <speed>0.0</speed>
  <fix>3d</fix>
</trkpt>
<trkpt lat="40.0713749" lon="-105.229789">
  <ele>1583.0</ele>
  <time>2026-08-28T17:54:31Z</time>
  <course>0.0</course>
  <speed>0.0</speed>
  <fix>3d</fix>
</trkpt>
<trkpt lat="40.0713749" lon="-105.229789">
  <ele>1583.0</ele>
  <time>2026-08-28T17:54:31Z</time>
  <course>246.41</course>
  <speed>0.0</speed>
  <fix>3d</fix>
</trkpt>
<trkpt lat="40.0713749" lon="-105.229789">
  <ele>1583.0</ele>
  <time>2026-08-28T17:54:31Z</time>
  <course>0.0</course>
  <speed>0.0</speed>
  <fix>3d</fix>
</trkpt>
<trkpt lat="40.0713749" lon="-105.229789">
  <ele>1583.0</ele>
  <time>2026-08-28T17:54:31Z</time>
  <course>246.51</course>
  <speed>0.0</speed>
  <fix>3d</fix>
</trkpt>
<trkpt lat="40.0713749" lon="-105.229789">
  <ele>1583.0</ele>
  <time>2026-08-28T17:54:31Z</time>
  <course>0.0</course>
  <speed>0.0</speed>
  <fix>3d</fix>
</trkpt>
<trkpt lat="40.0713749" lon="-105.229789">
  <ele>1583.0</ele>
  <time>2026-08-28T17:54:31Z</time>
  <course>246.6</course>
  <speed>0.0</speed>
  <fix>3d</fix>
</trkpt>
<trkpt lat="40.0713749" lon="-105.229789">
  <ele>1583.0</ele>
  <time>2026-08-28T17:54:31Z</time>
  <course>0.0</course>
  <speed>0.0</speed>
  <fix>3d</fix>
</trkpt>
<trkpt lat="40.0713749" lon="-105.229789">
  <ele>1583.0</ele>
  <time>2026-08-28T17:54:31Z</time>
  <course>246.7</course>
  <speed>0.0</speed>
  <fix>3d</fix>
</trkpt>
<trkpt lat="40.0713749" lon="-105.229789">
  <ele>1583.0</ele>
  <time>2026-08-28T17:54:31Z</time>
  <course>0.0</course>
  <speed>0.0</speed>
  <fix>3d</fix>
</trkpt>
<trkpt lat="40.0713749" lon="-105.229789">
  <ele>1583.0</ele>
  <time>2026-08-28T17:54:31Z</time>
  <course>246.78</course>
  <speed>0.0</speed>
  <fix>3d</fix>
</trkpt>
<trkpt lat="40.0713749" lon="-105.229789">
  <ele>1583.0</ele>
  <time>2026-08-28T17:54:31Z</time>
  <course>0.0</course>
  <speed>0.0</speed>
  <fix>3d</fix>
</trkpt>
<trkpt lat="40.0713749" lon="-105.229789">
  <ele>1583.0</ele>
  <time>2026-08-28T17:54:31Z</time>
  <course>246.87</course>
  <speed>0.0</speed>
  <fix>3d</fix>
</trkpt>
<trkpt lat="40.0713749" lon="-105.229789">
  <ele>1583.0</ele>
  <time>2026-08-28T17:54:31Z</time>
  <course>0.0</course>
  <speed>0.0</speed>
  <fix>3d</fix>
</trkpt>
<trkpt lat="40.0713749" lon="-105.229789">
  <ele>1583.0</ele>
  <time>2026-08-28T17:54:31Z</time>
  <course>246.95</course>
  <speed>0.0</speed>
  <fix>3d</fix>
</trkpt>
<trkpt lat="40.0713749" lon="-105.229789">
  <ele>1583.0</ele>
  <time>2026-08-28T17:54:31Z</time>
  <course>0.0</course>
  <speed>0.0</speed>
  <fix>3d</fix>
</trkpt>
<trkpt lat="40.0713749" lon="-105.229789">
  <ele>1583.0</ele>
  <time>2026-08-28T17:54:31Z</time>
  <course>247.02</course>
  <speed>0.0</speed>
  <fix>3d</fix>
</trkpt>
<trkpt lat="40.0713749" lon="-105.229789">
  <ele>1583.0</ele>
  <time>2026-08-28T17:54:31Z</time>
  <course>0.0</course>
  <speed>0.0</speed>
  <fix>3d</fix>
</trkpt>
<trkpt lat="40.0713749" lon="-105.229789">
  <ele>1583.0</ele>
  <time>2026-08-28T17:54:31Z</time>
  <course>247.1</course>
  <speed>0.0</speed>
  <fix>3d</fix>
</trkpt>
<trkpt lat="40.0713749" lon="-105.229789">
  <ele>1583.0</ele>
  <time>2026-08-28T17:54:31Z</time>
  <course>0.0</course>
  <speed>0.0</speed>
  <fix>3d</fix>
</trkpt>
<trkpt lat="40.0713749" lon="-105.229789">
  <ele>1583.0</ele>
  <time>2026-08-28T17:54:31Z</time>
  <course>247.17</course>
  <speed>0.0</speed>
  <fix>3d</fix>
</trkpt>
<trkpt lat="40.0713749" lon="-105.229789">
  <ele>1583.0</ele>
  <time>2026-08-28T17:54:31Z</time>
  <course>0.0</course>
  <speed>0.0</speed>
  <fix>3d</fix>
</trkpt>
<trkpt lat="40.0713749" lon="-105.229789">
  <ele>1583.0</ele>
  <time>2026-08-28T17:54:31Z</time>
  <course>247.24</course>
  <speed>0.0</speed>
  <fix>3d</fix>
</trkpt>
<trkpt lat="40.0713749" lon="-105.229789">
  <ele>1583.0</ele>
  <time>2026-08-28T17:54:31Z</time>
  <course>0.0</course>
  <speed>0.0</speed>
  <fix>3d</fix>
</trkpt>
<trkpt lat="40.0713749" lon="-105.229789">
  <ele>1583.0</ele>
  <time>2026-08-28T17:54:31Z</time>
  <course>247.3</course>
  <speed>0.0</speed>
  <fix>3d</fix>
</trkpt>
<trkpt lat="40.0713749" lon="-105.229789">
  <ele>1583.0</ele>
  <time>2026-08-28T17:54:31Z</time>
  <course>0.0</course>
  <speed>0.0</speed>
  <fix>3d</fix>
</trkpt>
<trkpt lat="40.0713749" lon="-105.229789">
  <ele>1583.0</ele>
  <time>2026-08-28T17:54:31Z</time>
  <course>247.36</course>
  <speed>0.0</speed>
  <fix>3d</fix>
</trkpt>
<trkpt lat="40.0713749" lon="-105.229789">
  <ele>1583.0</ele>
  <time>2026-08-28T17:54:31Z</time>
  <course>0.0</course>
  <speed>0.0</speed>
  <fix>3d</fix>
</trkpt>
<trkpt lat="40.0713749" lon="-105.229789">
  <ele>1583.0</ele>
  <time>2026-08-28T17:54:31Z</time>
  <course>247.42</course>
  <speed>0.0</speed>
  <fix>3d</fix>
</trkpt>
<trkpt lat="40.0713749" lon="-105.229789">
  <ele>1583.0</ele>
  <time>2026-08-28T17:54:31Z</time>
  <course>0.0</course>
  <speed>0.0</speed>
  <fix>3d</fix>
</trkpt>
<trkpt lat="40.0713749" lon="-105.229789">
  <ele>1583.0</ele>
  <time>2026-08-28T17:54:31Z</time>
  <course>247.47</course>
  <speed>0.0</speed>
  <fix>3d</fix>
</trkpt>
<trkpt lat="40.0713749" lon="-105.229789">
  <ele>1583.0</ele>
  <time>2026-08-28T17:54:31Z</time>
  <course>0.0</course>
  <speed>0.0</speed>
  <fix>3d</fix>
</trkpt>
<trkpt lat="40.0713749" lon="-105.229789">
  <ele>1583.0</ele>
  <time>2026-08-28T17:54:31Z</time>
  <course>247.53</course>
  <speed>0.0</speed>
  <fix>3d</fix>
</trkpt>
<trkpt lat="40.0713749" lon="-105.229789">
  <ele>1583.0</ele>
  <time>2026-08-28T17:54:31Z</time>
  <course>0.0</course>
  <speed>0.0</speed>
  <fix>3d</fix>
</trkpt>
<trkpt lat="40.0713749" lon="-105.229789">
  <ele>1583.0</ele>
  <time>2026-08-28T17:54:31Z</time>
  <course>247.58</course>
  <speed>0.0</speed>
  <fix>3d</fix>
</trkpt>
<trkpt lat="40.0713749" lon="-105.229789">
  <ele>1583.0</ele>
  <time>2026-08-28T17:54:31Z</time>
  <course>0.0</course>
  <speed>0.0</speed>
  <fix>3d</fix>
</trkpt>
<trkpt lat="40.0713749" lon="-105.229789">
  <ele>1583.0</ele>
  <time>2026-08-28T17:54:32Z</time>
  <course>247.63</course>
  <speed>0.0</speed>
  <fix>3d</fix>
</trkpt>
<trkpt lat="40.0713749" lon="-105.229789">
  <ele>1583.0</ele>
  <time>2026-08-28T17:54:32Z</time>
  <course>0.0</course>
  <speed>0.0</speed>
  <fix>3d</fix>
</trkpt>
<trkpt lat="40.0713749" lon="-105.229789">
  <ele>1583.0</ele>
  <time>2026-08-28T17:54:32Z</time>
  <course>247.67</course>
  <speed>0.0</speed>
  <fix>3d</fix>
</trkpt>
<trkpt lat="40.0713749" lon="-105.229789">
  <ele>1583.0</ele>
  <time>2026-08-28T17:54:32Z</time>
  <course>0.0</course>
  <speed>0.0</speed>
  <fix>3d</fix>
</trkpt>
<trkpt lat="40.0713749" lon="-105.229789">
  <ele>1583.0</ele>
  <time>2026-08-28T17:54:32Z</time>
  <course>247.72</course>
  <speed>0.0</speed>
  <fix>3d</fix>
</trkpt>
<trkpt lat="40.0713749" lon="-105.229789">
  <ele>1583.0</ele>
  <time>2026-08-28T17:54:32Z</time>
  <course>0.0</course>
  <speed>0.0</speed>
  <fix>3d</fix>
</trkpt>
<trkpt lat="40.0713749" lon="-105.229789">
  <ele>1583.0</ele>
  <time>2026-08-28T17:54:32Z</time>
  <course>247.76</course>
  <speed>0.0</speed>
  <fix>3d</fix>
</trkpt>
<trkpt lat="40.0713749" lon="-105.229789">
  <ele>1583.0</ele>
  <time>2026-08-28T17:54:32Z</time>
  <course>0.0</course>
  <speed>0.0</speed>
  <fix>3d</fix>
</trkpt>
<trkpt lat="40.0713749" lon="-105.229789">
  <ele>1583.0</ele>
  <time>2026-08-28T17:54:32Z</time>
  <course>247.8</course>
  <speed>0.0</speed>
  <fix>3d</fix>
</trkpt>
<trkpt lat="40.0713749" lon="-105.229789">
  <ele>1583.0</ele>
  <time>2026-08-28T17:54:32Z</time>
  <course>0.0</course>
  <speed>0.0</speed>
  <fix>3d</fix>
</trkpt>
<trkpt lat="40.0713749" lon="-105.229789">
  <ele>1583.0</ele>
  <time>2026-08-28T17:54:32Z</time>
  <course>247.83</course>
  <speed>0.0</speed>
  <fix>3d</fix>
</trkpt>
<trkpt lat="40.0713749" lon="-105.229789">
  <ele>1583.0</ele>
  <time>2026-08-28T17:54:32Z</time>
  <course>0.0</course>
  <speed>0.0</speed>
  <fix>3d</fix>
</trkpt>
<trkpt lat="40.0713749" lon="-105.229789">
  <ele>1583.0</ele>
  <time>2026-08-28T17:54:32Z</time>
  <course>247.87</course>
  <speed>0.0</speed>
  <fix>3d</fix>
</trkpt>
<trkpt lat="40.0713749" lon="-105.229789">
  <ele>1583.0</ele>
  <time>2026-08-28T17:54:32Z</time>
  <course>0.0</course>
  <speed>0.0</speed>
  <fix>3d</fix>
</trkpt>
<trkpt lat="40.0713749" lon="-105.229789">
  <ele>1583.0</ele>
  <time>2026-08-28T17:54:32Z</time>
  <course>247.9</course>
  <speed>0.0</speed>
  <fix>3d</fix>
</trkpt>
<trkpt lat="40.0713749" lon="-105.229789">
  <ele>1583.0</ele>
  <time>2026-08-28T17:54:32Z</time>
  <course>0.0</course>
  <speed>0.0</speed>
  <fix>3d</fix>
</trkpt>
<trkpt lat="40.0713749" lon="-105.229789">
  <ele>1583.0</ele>
  <time>2026-08-28T17:54:32Z</time>
  <course>247.94</course>
  <speed>0.0</speed>
  <fix>3d</fix>
</trkpt>
<trkpt lat="40.0713749" lon="-105.229789">
  <ele>1583.0</ele>
  <time>2026-08-28T17:54:32Z</time>
  <course>0.0</course>
  <speed>0.0</speed>
  <fix>3d</fix>
</trkpt>
<trkpt lat="40.0713749" lon="-105.229789">
  <ele>1583.0</ele>
  <time>2026-08-28T17:54:32Z</time>
  <course>247.97</course>
  <speed>0.0</speed>
  <fix>3d</fix>
</trkpt>
<trkpt lat="40.0713749" lon="-105.229789">
  <ele>1583.0</ele>
  <time>2026-08-28T17:54:32Z</time>
  <course>0.0</course>
  <speed>0.0</speed>
  <fix>3d</fix>
</trkpt>
<trkpt lat="40.0713749" lon="-105.229789">
  <ele>1583.0</ele>
  <time>2026-08-28T17:54:32Z</time>
  <course>248.0</course>
  <speed>0.0</speed>
  <fix>3d</fix>
</trkpt>
<trkpt lat="40.0713749" lon="-105.229789">
  <ele>1583.0</ele>
  <time>2026-08-28T17:54:32Z</time>
  <course>0.0</course>
  <speed>0.0</speed>
  <fix>3d</fix>
</trkpt>
<trkpt lat="40.0713749" lon="-105.229789">
  <ele>1583.0</ele>
  <time>2026-08-28T17:54:32Z</time>
  <course>248.02</course>
  <speed>0.0</speed>
  <fix>3d</fix>
</trkpt>
<trkpt lat="40.0713749" lon="-105.229789">
  <ele>1583.0</ele>
  <time>2026-08-28T17:54:32Z</time>
  <course>0.0</course>
  <speed>0.0</speed>
  <fix>3d</fix>
</trkpt>
<trkpt lat="40.0713749" lon="-105.229789">
  <ele>1583.0</ele>
  <time>2026-08-28T17:54:32Z</time>
  <course>248.05</course>
  <speed>0.0</speed>
  <fix>3d</fix>
</trkpt>
<trkpt lat="40.0713749" lon="-105.229789">
  <ele>1583.0</ele>
  <time>2026-08-28T17:54:32Z</time>
  <course>0.0</course>
  <speed>0.0</speed>
  <fix>3d</fix>
</trkpt>
<trkpt lat="40.0713749" lon="-105.229789">
  <ele>1583.0</ele>
  <time>2026-08-28T17:54:32Z</time>
  <course>248.08</course>
  <speed>0.0</speed>
  <fix>3d</fix>
</trkpt>
<trkpt lat="40.0713749" lon="-105.229789">
  <ele>1583.0</ele>
  <time>2026-08-28T17:54:32Z</time>
  <course>0.0</course>
  <speed>0.0</speed>
  <fix>3d</fix>
</trkpt>
<trkpt lat="40.0713749" lon="-105.229789">
  <ele>1583.0</ele>
  <time>2026-08-28T17:54:32Z</time>
  <course>248.1</course>
  <speed>0.0</speed>
  <fix>3d</fix>
</trkpt>
<trkpt lat="40.0713749" lon="-105.229789">
  <ele>1583.0</ele>
  <time>2026-08-28T17:54:32Z</time>
  <course>0.0</course>
  <speed>0.0</speed>
  <fix>3d</fix>
</trkpt>
<trkpt lat="40.0713749" lon="-105.229789">
  <ele>1583.0</ele>
  <time>2026-08-28T17:54:32Z</time>
  <course>248.12</course>
  <speed>0.0</speed>
  <fix>3d</fix>
</trkpt>
<trkpt lat="40.0713749" lon="-105.229789">
  <ele>1583.0</ele>
  <time>2026-08-28T17:54:32Z</time>
  <course>0.0</course>
  <speed>0.0</speed>
  <fix>3d</fix>
</trkpt>
<trkpt lat="40.0713749" lon="-105.229789">
  <ele>1583.0</ele>
  <time>2026-08-28T17:54:32Z</time>
  <course>248.14</course>
  <speed>0.0</speed>
  <fix>3d</fix>
</trkpt>
<trkpt lat="40.0713749" lon="-105.229789">
  <ele>1583.0</ele>
  <time>2026-08-28T17:54:32Z</time>
  <course>0.0</course>
  <speed>0.0</speed>
  <fix>3d</fix>
</trkpt>
<trkpt lat="40.0713749" lon="-105.229789">
  <ele>1583.0</ele>
  <time>2026-08-28T17:54:32Z</time>
  <course>248.16</course>
  <speed>0.0</speed>
  <fix>3d</fix>
</trkpt>
<trkpt lat="40.0713749" lon="-105.229789">
  <ele>1583.0</ele>
  <time>2026-08-28T17:54:32Z</time>
  <course>0.0</course>
  <speed>0.0</speed>
  <fix>3d</fix>
</trkpt>
<trkpt lat="40.0713749" lon="-105.229789">
  <ele>1583.0</ele>
  <time>2026-08-28T17:54:32Z</time>
  <course>248.18</course>
  <speed>0.0</speed>
  <fix>3d</fix>
</trkpt>
<trkpt lat="40.0713749" lon="-105.229789">
  <ele>1583.0</ele>
  <time>2026-08-28T17:54:32Z</time>
  <course>0.0</course>
  <speed>0.0</speed>
  <fix>3d</fix>
</trkpt>
<trkpt lat="40.0713749" lon="-105.229789">
  <ele>1583.0</ele>
  <time>2026-08-28T17:54:32Z</time>
  <course>248.2</course>
  <speed>0.0</speed>
  <fix>3d</fix>
</trkpt>
<trkpt lat="40.0713749" lon="-105.229789">
  <ele>1583.0</ele>
  <time>2026-08-28T17:54:32Z</time>
  <course>0.0</course>
  <speed>0.0</speed>
  <fix>3d</fix>
</trkpt>
<trkpt lat="40.0713749" lon="-105.229789">
  <ele>1583.0</ele>
  <time>2026-08-28T17:54:32Z</time>
  <course>248.22</course>
  <speed>0.0</speed>
  <fix>3d</fix>
</trkpt>
<trkpt lat="40.0713749" lon="-105.229789">
  <ele>1583.0</ele>
  <time>2026-08-28T17:54:32Z</time>
  <course>0.0</course>
  <speed>0.0</speed>
  <fix>3d</fix>
</trkpt>
<trkpt lat="40.0713749" lon="-105.229789">
  <ele>1583.0</ele>
  <time>2026-08-28T17:54:32Z</time>
  <course>248.23</course>
  <speed>0.0</speed>
  <fix>3d</fix>
</trkpt>
<trkpt lat="40.0713749" lon="-105.229789">
  <ele>1583.0</ele>
  <time>2026-08-28T17:54:32Z</time>
  <course>0.0</course>
  <speed>0.0</speed>
  <fix>3d</fix>
</trkpt>
<trkpt lat="40.0713749" lon="-105.229789">
  <ele>1583.0</ele>
  <time>2026-08-28T17:54:32Z</time>
  <course>248.25</course>
  <speed>0.0</speed>
  <fix>3d</fix>
</trkpt>
<trkpt lat="40.0713749" lon="-105.229789">
  <ele>1583.0</ele>
  <time>2026-08-28T17:54:32Z</time>
  <course>0.0</course>
  <speed>0.0</speed>
  <fix>3d</fix>
</trkpt>
<trkpt lat="40.0713749" lon="-105.229789">
  <ele>1583.0</ele>
  <time>2026-08-28T17:54:32Z</time>
  <course>248.26</course>
  <speed>0.0</speed>
  <fix>3d</fix>
</trkpt>
<trkpt lat="40.0713749" lon="-105.229789">
  <ele>1583.0</ele>
  <time>2026-08-28T17:54:32Z</time>
  <course>0.0</course>
  <speed>0.0</speed>
  <fix>3d</fix>
</trkpt>
<trkpt lat="40.0713749" lon="-105.229789">
  <ele>1583.0</ele>
  <time>2026-08-28T17:54:32Z</time>
  <course>248.28</course>
  <speed>0.0</speed>
  <fix>3d</fix>
</trkpt>
<trkpt lat="40.0713749" lon="-105.229789">
  <ele>1583.0</ele>
  <time>2026-08-28T17:54:32Z</time>
  <course>0.0</course>
  <speed>0.0</speed>
  <fix>3d</fix>
</trkpt>
<trkpt lat="40.0713749" lon="-105.229789">
  <ele>1583.0</ele>
  <time>2026-08-28T17:54:32Z</time>
  <course>248.29</course>
  <speed>0.0</speed>
  <fix>3d</fix>
</trkpt>
<trkpt lat="40.0713749" lon="-105.229789">
  <ele>1583.0</ele>
  <time>2026-08-28T17:54:32Z</time>
  <course>0.0</course>
  <speed>0.0</speed>
  <fix>3d</fix>
</trkpt>
<trkpt lat="40.0713749" lon="-105.229789">
  <ele>1583.0</ele>
  <time>2026-08-28T17:54:32Z</time>
  <course>248.3</course>
  <speed>0.0</speed>
  <fix>3d</fix>
</trkpt>
<trkpt lat="40.0713749" lon="-105.229789">
  <ele>1583.0</ele>
  <time>2026-08-28T17:54:32Z</time>
  <course>0.0</course>
  <speed>0.0</speed>
  <fix>3d</fix>
</trkpt>
<trkpt lat="40.0713749" lon="-105.229789">
  <ele>1583.0</ele>
  <time>2026-08-28T17:54:32Z</time>
  <course>248.31</course>
  <speed>0.0</speed>
  <fix>3d</fix>
</trkpt>
<trkpt lat="40.0713749" lon="-105.229789">
  <ele>1583.0</ele>
  <time>2026-08-28T17:54:32Z</time>
  <course>0.0</course>
  <speed>0.0</speed>
  <fix>3d</fix>
</trkpt>
<trkpt lat="40.0713749" lon="-105.229789">
  <ele>1583.0</ele>
  <time>2026-08-28T17:54:32Z</time>
  <course>248.32</course>
  <speed>0.0</speed>
  <fix>3d</fix>
</trkpt>
<trkpt lat="40.0713749" lon="-105.229789">
  <ele>1583.0</ele>
  <time>2026-08-28T17:54:32Z</time>
  <course>0.0</course>
  <speed>0.0</speed>
  <fix>3d</fix>
</trkpt>
<trkpt lat="40.0713749" lon="-105.229789">
  <ele>1583.0</ele>
  <time>2026-08-28T17:54:32Z</time>
  <course>248.33</course>
  <speed>0.0</speed>
  <fix>3d</fix>
</trkpt>
<trkpt lat="40.0713749" lon="-105.229789">
  <ele>1583.0</ele>
  <time>2026-08-28T17:54:32Z</time>
  <course>0.0</course>
  <speed>0.0</speed>
  <fix>3d</fix>
</trkpt>
<trkpt lat="40.0713749" lon="-105.229789">
  <ele>1583.0</ele>
  <time>2026-08-28T17:54:32Z</time>
  <course>248.34</course>
  <speed>0.0</speed>
  <fix>3d</fix>
</trkpt>
<trkpt lat="40.0713749" lon="-105.229789">
  <ele>1583.0</ele>
  <time>2026-08-28T17:54:32Z</time>
  <course>0.0</course>
  <speed>0.0</speed>
  <fix>3d</fix>
</trkpt>
<trkpt lat="40.0713749" lon="-105.229789">
  <ele>1583.0</ele>
  <time>2026-08-28T17:54:32Z</time>
  <course>248.35</course>
  <speed>0.0</speed>
  <fix>3d</fix>
</trkpt>
<trkpt lat="40.0713749" lon="-105.229789">
  <ele>1583.0</ele>
  <time>2026-08-28T17:54:32Z</time>
  <course>0.0</course>
  <speed>0.0</speed>
  <fix>3d</fix>
</trkpt>
<trkpt lat="40.0713749" lon="-105.229789">
  <ele>1583.0</ele>
  <time>2026-08-28T17:54:32Z</time>
  <course>248.35</course>
  <speed>0.0</speed>
  <fix>3d</fix>
</trkpt>
<trkpt lat="40.0713749" lon="-105.229789">
  <ele>1583.0</ele>
  <time>2026-08-28T17:54:32Z</time>
  <course>0.0</course>
  <speed>0.0</speed>
  <fix>3d</fix>
</trkpt>
<trkpt lat="40.0713749" lon="-105.229789">
  <ele>1583.0</ele>
  <time>2026-08-28T17:54:32Z</time>
  <course>248.36</course>
  <speed>0.0</speed>
  <fix>3d</fix>
</trkpt>
<trkpt lat="40.0713749" lon="-105.229789">
  <ele>1583.0</ele>
  <time>2026-08-28T17:54:32Z</time>
  <course>0.0</course>
  <speed>0.0</speed>
  <fix>3d</fix>
</trkpt>
<trkpt lat="40.0713749" lon="-105.229789">
  <ele>1583.0</ele>
  <time>2026-08-28T17:54:32Z</time>
  <course>248.37</course>
  <speed>0.0</speed>
  <fix>3d</fix>
</trkpt>
<trkpt lat="40.0713749" lon="-105.229789">
  <ele>1583.0</ele>
  <time>2026-08-28T17:54:32Z</time>
  <course>0.0</course>
  <speed>0.0</speed>
  <fix>3d</fix>
</trkpt>
<trkpt lat="40.0713749" lon="-105.229789">
  <ele>1583.0</ele>
  <time>2026-08-28T17:54:32Z</time>
  <course>248.37</course>
  <speed>0.0</speed>
  <fix>3d</fix>
</trkpt>
<trkpt lat="40.0713749" lon="-105.229789">
  <ele>1583.0</ele>
  <time>2026-08-28T17:54:32Z</time>
  <course>0.0</course>
  <speed>0.0</speed>
  <fix>3d</fix>
</trkpt>
<trkpt lat="40.0713749" lon="-105.229789">
  <ele>1583.0</ele>
  <time>2026-08-28T17:54:32Z</time>
  <course>248.38</course>
  <speed>0.0</speed>
  <fix>3d</fix>
</trkpt>
<trkpt lat="40.0713749" lon="-105.229789">
  <ele>1583.0</ele>
  <time>2026-08-28T17:54:32Z</time>
  <course>0.0</course>
  <speed>0.0</speed>
  <fix>3d</fix>
</trkpt>
<trkpt lat="40.0713749" lon="-105.229789">
  <ele>1583.0</ele>
  <time>2026-08-28T17:54:32Z</time>
  <course>248.38</course>
  <speed>0.0</speed>
  <fix>3d</fix>
</trkpt>
<trkpt lat="40.0713749" lon="-105.229789">
  <ele>1583.0</ele>
  <time>2026-08-28T17:54:32Z</time>
  <course>0.0</course>
  <speed>0.0</speed>
  <fix>3d</fix>
</trkpt>
<trkpt lat="40.0713749" lon="-105.229789">
  <ele>1583.0</ele>
  <time>2026-08-28T17:54:32Z</time>
  <course>248.39</course>
  <speed>0.0</speed>
  <fix>3d</fix>
</trkpt>
<trkpt lat="40.0713749" lon="-105.229789">
  <ele>1583.0</ele>
  <time>2026-08-28T17:54:32Z</time>
  <course>0.0</course>
  <speed>0.0</speed>
  <fix>3d</fix>
</trkpt>
<trkpt lat="40.0713749" lon="-105.229789">
  <ele>1583.0</ele>
  <time>2026-08-28T17:54:32Z</time>
  <course>248.39</course>
  <speed>0.0</speed>
  <fix>3d</fix>
</trkpt>
<trkpt lat="40.0713749" lon="-105.229789">
  <ele>1583.0</ele>
  <time>2026-08-28T17:54:32Z</time>
  <course>0.0</course>
  <speed>0.0</speed>
  <fix>3d</fix>
</trkpt>
<trkpt lat="40.0713749" lon="-105.229789">
  <ele>1583.0</ele>
  <time>2026-08-28T17:54:32Z</time>
  <course>248.4</course>
  <speed>0.0</speed>
  <fix>3d</fix>
</trkpt>
<trkpt lat="40.0713749" lon="-105.229789">
  <ele>1583.0</ele>
  <time>2026-08-28T17:54:32Z</time>
  <course>0.0</course>
  <speed>0.0</speed>
  <fix>3d</fix>
</trkpt>
<trkpt lat="40.0713749" lon="-105.229789">
  <ele>1583.0</ele>
  <time>2026-08-28T17:54:32Z</time>
  <course>248.4</course>
  <speed>0.0</speed>
  <fix>3d</fix>
</trkpt>
<trkpt lat="40.0713749" lon="-105.229789">
  <ele>1583.0</ele>
  <time>2026-08-28T17:54:32Z</time>
  <course>0.0</course>
  <speed>0.0</speed>
  <fix>3d</fix>
</trkpt>
<trkpt lat="40.0713749" lon="-105.229789">
  <ele>1583.0</ele>
  <time>2026-08-28T17:54:32Z</time>
  <course>248.4</course>
  <speed>0.0</speed>
  <fix>3d</fix>
</trkpt>
<trkpt lat="40.0713749" lon="-105.229789">
  <ele>1583.0</ele>
  <time>2026-08-28T17:54:32Z</time>
  <course>0.0</course>
  <speed>0.0</speed>
  <fix>3d</fix>
</trkpt>
<trkpt lat="40.0713749" lon="-105.229789">
  <ele>1583.0</ele>
  <time>2026-08-28T17:54:32Z</time>
  <course>248.4</course>
  <speed>0.0</speed>
  <fix>3d</fix>
</trkpt>
<trkpt lat="40.0713749" lon="-105.229789">
  <ele>1583.0</ele>
  <time>2026-08-28T17:54:32Z</time>
  <course>0.0</course>
  <speed>0.0</speed>
  <fix>3d</fix>
</trkpt>
<trkpt lat="40.0713749" lon="-105.229789">
  <ele>1583.0</ele>
  <time>2026-08-28T17:54:32Z</time>
  <course>248.41</course>
  <speed>0.0</speed>
  <fix>3d</fix>
</trkpt>
<trkpt lat="40.0713749" lon="-105.229789">
  <ele>1583.0</ele>
  <time>2026-08-28T17:54:32Z</time>
  <course>0.0</course>
  <speed>0.0</speed>
  <fix>3d</fix>
</trkpt>
<trkpt lat="40.0713749" lon="-105.229789">
  <ele>1583.0</ele>
  <time>2026-08-28T17:54:32Z</time>
  <course>248.41</course>
  <speed>0.0</speed>
  <fix>3d</fix>
</trkpt>
<trkpt lat="40.0713749" lon="-105.229789">
  <ele>1583.0</ele>
  <time>2026-08-28T17:54:32Z</time>
  <course>0.0</course>
  <speed>0.0</speed>
  <fix>3d</fix>
</trkpt>
<trkpt lat="40.0713749" lon="-105.229789">
  <ele>1583.0</ele>
  <time>2026-08-28T17:54:32Z</time>
  <course>248.41</course>
  <speed>0.0</speed>
  <fix>3d</fix>
</trkpt>
<trkpt lat="40.0713749" lon="-105.229789">
  <ele>1583.0</ele>
  <time>2026-08-28T17:54:32Z</time>
  <course>0.0</course>
  <speed>0.0</speed>
  <fix>3d</fix>
</trkpt>
<trkpt lat="40.0713749" lon="-105.229789">
  <ele>1583.0</ele>
  <time>2026-08-28T17:54:32Z</time>
  <course>248.41</course>
  <speed>0.0</speed>
  <fix>3d</fix>
</trkpt>
<trkpt lat="40.0713749" lon="-105.229789">
  <ele>1583.0</ele>
  <time>2026-08-28T17:54:32Z</time>
  <course>0.0</course>
  <speed>0.0</speed>
  <fix>3d</fix>
</trkpt>
<trkpt lat="40.0713749" lon="-105.229789">
  <ele>1583.0</ele>
  <time>2026-08-28T17:54:32Z</time>
  <course>248.41</course>
  <speed>0.0</speed>
  <fix>3d</fix>
</trkpt>
<trkpt lat="40.0713749" lon="-105.229789">
  <ele>1583.0</ele>
  <time>2026-08-28T17:54:32Z</time>
  <course>0.0</course>
  <speed>0.0</speed>
  <fix>3d</fix>
</trkpt>
<trkpt lat="40.0713749" lon="-105.229789">
  <ele>1583.0</ele>
  <time>2026-08-28T17:54:32Z</time>
  <course>248.41</course>
  <speed>0.0</speed>
  <fix>3d</fix>
</trkpt>
<trkpt lat="40.0713749" lon="-105.229789">
  <ele>1583.0</ele>
  <time>2026-08-28T17:54:32Z</time>
  <course>0.0</course>
  <speed>0.0</speed>
  <fix>3d</fix>
</trkpt>
<trkpt lat="40.0713749" lon="-105.229789">
  <ele>1583.0</ele>
  <time>2026-08-28T17:54:32Z</time>
  <course>248.41</course>
  <speed>0.0</speed>
  <fix>3d</fix>
</trkpt>
<trkpt lat="40.0713749" lon="-105.229789">
  <ele>1583.0</ele>
  <time>2026-08-28T17:54:32Z</time>
  <course>0.0</course>
  <speed>0.0</speed>
  <fix>3d</fix>
</trkpt>
<trkpt lat="40.0713749" lon="-105.229789">
  <ele>1583.0</ele>
  <time>2026-08-28T17:54:32Z</time>
  <course>248.41</course>
  <speed>0.0</speed>
  <fix>3d</fix>
</trkpt>
<trkpt lat="40.0713749" lon="-105.229789">
  <ele>1583.0</ele>
  <time>2026-08-28T17:54:32Z</time>
  <course>0.0</course>
  <speed>0.0</speed>
  <fix>3d</fix>
</trkpt>
<trkpt lat="40.0713749" lon="-105.229789">
  <ele>1583.0</ele>
  <time>2026-08-28T17:54:32Z</time>
  <course>248.41</course>
  <speed>0.0</speed>
  <fix>3d</fix>
</trkpt>
<trkpt lat="40.0713749" lon="-105.229789">
  <ele>1583.0</ele>
  <time>2026-08-28T17:54:32Z</time>
  <course>0.0</course>
  <speed>0.0</speed>
  <fix>3d</fix>
</trkpt>
<trkpt lat="40.0713749" lon="-105.229789">
  <ele>1583.0</ele>
  <time>2026-08-28T17:54:32Z</time>
  <course>248.41</course>
  <speed>0.0</speed>
  <fix>3d</fix>
</trkpt>
<trkpt lat="40.0713749" lon="-105.229789">
  <ele>1583.0</ele>
  <time>2026-08-28T17:54:32Z</time>
  <course>0.0</course>
  <speed>0.0</speed>
  <fix>3d</fix>
</trkpt>
<trkpt lat="40.0713749" lon="-105.229789">
  <ele>1583.0</ele>
  <time>2026-08-28T17:54:32Z</time>
  <course>248.41</course>
  <speed>0.0</speed>
  <fix>3d</fix>
</trkpt>
<trkpt lat="40.0713749" lon="-105.229789">
  <ele>1583.0</ele>
  <time>2026-08-28T17:54:32Z</time>
  <course>0.0</course>
  <speed>0.0</speed>
  <fix>3d</fix>
</trkpt>
<trkpt lat="40.0713749" lon="-105.229789">
  <ele>1583.0</ele>
  <time>2026-08-28T17:54:32Z</time>
  <course>248.41</course>
  <speed>0.0</speed>
  <fix>3d</fix>
</trkpt>
<trkpt lat="40.0713749" lon="-105.229789">
  <ele>1583.0</ele>
  <time>2026-08-28T17:54:32Z</time>
  <course>0.0</course>
  <speed>0.0</speed>
  <fix>3d</fix>
</trkpt>
<trkpt lat="40.0713749" lon="-105.229789">
  <ele>1583.0</ele>
  <time>2026-08-28T17:54:32Z</time>
  <course>248.41</course>
  <speed>0.0</speed>
  <fix>3d</fix>
</trkpt>
<trkpt lat="40.0713749" lon="-105.229789">
  <ele>1583.0</ele>
  <time>2026-08-28T17:54:32Z</time>
  <course>0.0</course>
  <speed>0.0</speed>
  <fix>3d</fix>
</trkpt>
<trkpt lat="40.0713749" lon="-105.229789">
  <ele>1583.0</ele>
  <time>2026-08-28T17:54:32Z</time>
  <course>248.41</course>
  <speed>0.0</speed>
  <fix>3d</fix>
</trkpt>
<trkpt lat="40.0713749" lon="-105.229789">
  <ele>1583.0</ele>
  <time>2026-08-28T17:54:32Z</time>
  <course>0.0</course>
  <speed>0.0</speed>
  <fix>3d</fix>
</trkpt>
<trkpt lat="40.0713749" lon="-105.229789">
  <ele>1583.0</ele>
  <time>2026-08-28T17:54:32Z</time>
  <course>248.41</course>
  <speed>0.0</speed>
  <fix>3d</fix>
</trkpt>
<trkpt lat="40.0713749" lon="-105.229789">
  <ele>1583.0</ele>
  <time>2026-08-28T17:54:32Z</time>
  <course>0.0</course>
  <speed>0.0</speed>
  <fix>3d</fix>
</trkpt>
<trkpt lat="40.0713749" lon="-105.229789">
  <ele>1583.0</ele>
  <time>2026-08-28T17:54:32Z</time>
  <course>248.41</course>
  <speed>0.0</speed>
  <fix>3d</fix>
</trkpt>
<trkpt lat="40.0713749" lon="-105.229789">
  <ele>1583.0</ele>
  <time>2026-08-28T17:54:32Z</time>
  <course>0.0</course>
  <speed>0.0</speed>
  <fix>3d</fix>
</trkpt>
<trkpt lat="40.0713749" lon="-105.229789">
  <ele>1583.0</ele>
  <time>2026-08-28T17:54:32Z</time>
  <course>248.4</course>
  <speed>0.0</speed>
  <fix>3d</fix>
</trkpt>
<trkpt lat="40.0713749" lon="-105.229789">
  <ele>1583.0</ele>
  <time>2026-08-28T17:54:32Z</time>
  <course>0.0</course>
  <speed>0.0</speed>
  <fix>3d</fix>
</trkpt>
<trkpt lat="40.0713749" lon="-105.229789">
  <ele>1583.0</ele>
  <time>2026-08-28T17:54:32Z</time>
  <course>248.4</course>
  <speed>0.01</speed>
  <fix>3d</fix>
</trkpt>
<trkpt lat="40.0713749" lon="-105.229789">
  <ele>1583.0</ele>
  <time>2026-08-28T17:54:32Z</time>
  <course>0.0</course>
  <speed>0.0</speed>
  <fix>3d</fix>
</trkpt>
<trkpt lat="40.0713749" lon="-105.229789">
  <ele>1583.0</ele>
  <time>2026-08-28T17:54:32Z</time>
  <course>248.4</course>
  <speed>0.01</speed>
  <fix>3d</fix>
</trkpt>
<trkpt lat="40.0713749" lon="-105.229789">
  <ele>1583.0</ele>
  <time>2026-08-28T17:54:32Z</time>
  <course>0.0</course>
  <speed>0.0</speed>
  <fix>3d</fix>
</trkpt>
<trkpt lat="40.0713749" lon="-105.229789">
  <ele>1583.0</ele>
  <time>2026-08-28T17:54:32Z</time>
  <course>248.4</course>
  <speed>0.01</speed>
  <fix>3d</fix>
</trkpt>
<trkpt lat="40.0713749" lon="-105.229789">
  <ele>1583.0</ele>
  <time>2026-08-28T17:54:32Z</time>
  <course>0.0</course>
  <speed>0.0</speed>
  <fix>3d</fix>
</trkpt>
<trkpt lat="40.0713749" lon="-105.229789">
  <ele>1583.0</ele>
  <time>2026-08-28T17:54:32Z</time>
  <course>248.4</course>
  <speed>0.01</speed>
  <fix>3d</fix>
</trkpt>
<trkpt lat="40.0713749" lon="-105.229789">
  <ele>1583.0</ele>
  <time>2026-08-28T17:54:32Z</time>
  <course>0.0</course>
  <speed>0.0</speed>
  <fix>3d</fix>
</trkpt>
<trkpt lat="40.0713749" lon="-105.229789">
  <ele>1583.0</ele>
  <time>2026-08-28T17:54:32Z</time>
  <course>248.39</course>
  <speed>0.01</speed>
  <fix>3d</fix>
</trkpt>
<trkpt lat="40.0713749" lon="-105.229789">
  <ele>1583.0</ele>
  <time>2026-08-28T17:54:32Z</time>
  <course>0.0</course>
  <speed>0.0</speed>
  <fix>3d</fix>
</trkpt>
<trkpt lat="40.0713749" lon="-105.229789">
  <ele>1583.0</ele>
  <time>2026-08-28T17:54:32Z</time>
  <course>248.39</course>
  <speed>0.01</speed>
  <fix>3d</fix>
</trkpt>
<trkpt lat="40.0713749" lon="-105.229789">
  <ele>1583.0</ele>
  <time>2026-08-28T17:54:32Z</time>
  <course>0.0</course>
  <speed>0.0</speed>
  <fix>3d</fix>
</trkpt>
<trkpt lat="40.0713749" lon="-105.229789">
  <ele>1583.0</ele>
  <time>2026-08-28T17:54:32Z</time>
  <course>248.39</course>
  <speed>0.01</speed>
  <fix>3d</fix>
</trkpt>
<trkpt lat="40.0713749" lon="-105.229789">
  <ele>1583.0</ele>
  <time>2026-08-28T17:54:32Z</time>
  <course>0.0</course>
  <speed>0.0</speed>
  <fix>3d</fix>
</trkpt>
<trkpt lat="40.0713749" lon="-105.229789">
  <ele>1583.0</ele>
  <time>2026-08-28T17:54:32Z</time>
  <course>248.38</course>
  <speed>0.01</speed>
  <fix>3d</fix>
</trkpt>
<trkpt lat="40.0713749" lon="-105.229789">
  <ele>1583.0</ele>
  <time>2026-08-28T17:54:32Z</time>
  <course>0.0</course>
  <speed>0.0</speed>
  <fix>3d</fix>
</trkpt>
<trkpt lat="40.0713749" lon="-105.229789">
  <ele>1583.0</ele>
  <time>2026-08-28T17:54:32Z</time>
  <course>248.38</course>
  <speed>0.01</speed>
  <fix>3d</fix>
</trkpt>
<trkpt lat="40.0713749" lon="-105.229789">
  <ele>1583.0</ele>
  <time>2026-08-28T17:54:32Z</time>
  <course>0.0</course>
  <speed>0.0</speed>
  <fix>3d</fix>
</trkpt>
<trkpt lat="40.0713749" lon="-105.229789">
  <ele>1583.0</ele>
  <time>2026-08-28T17:54:32Z</time>
  <course>248.38</course>
  <speed>0.01</speed>
  <fix>3d</fix>
</trkpt>
<trkpt lat="40.0713749" lon="-105.229789">
  <ele>1583.0</ele>
  <time>2026-08-28T17:54:32Z</time>
  <course>0.0</course>
  <speed>0.0</speed>
  <fix>3d</fix>
</trkpt>
<trkpt lat="40.0713749" lon="-105.229789">
  <ele>1583.0</ele>
  <time>2026-08-28T17:54:32Z</time>
  <course>248.37</course>
  <speed>0.01</speed>
  <fix>3d</fix>
</trkpt>
<trkpt lat="40.0713749" lon="-105.229789">
  <ele>1583.0</ele>
  <time>2026-08-28T17:54:32Z</time>
  <course>0.0</course>
  <speed>0.0</speed>
  <fix>3d</fix>
</trkpt>
<trkpt lat="40.0713749" lon="-105.229789">
  <ele>1583.0</ele>
  <time>2026-08-28T17:54:32Z</time>
  <course>248.37</course>
  <speed>0.01</speed>
  <fix>3d</fix>
</trkpt>
<trkpt lat="40.0713749" lon="-105.229789">
  <ele>1583.0</ele>
  <time>2026-08-28T17:54:32Z</time>
  <course>0.0</course>
  <speed>0.0</speed>
  <fix>3d</fix>
</trkpt>
<trkpt lat="40.0713749" lon="-105.229789">
  <ele>1583.0</ele>
  <time>2026-08-28T17:54:32Z</time>
  <course>248.37</course>
  <speed>0.01</speed>
  <fix>3d</fix>
</trkpt>
<trkpt lat="40.0713749" lon="-105.229789">
  <ele>1583.0</ele>
  <time>2026-08-28T17:54:32Z</time>
  <course>0.0</course>
  <speed>0.0</speed>
  <fix>3d</fix>
</trkpt>
<trkpt lat="40.0713749" lon="-105.229789">
  <ele>1583.0</ele>
  <time>2026-08-28T17:54:32Z</time>
  <course>248.36</course>
  <speed>0.01</speed>
  <fix>3d</fix>
</trkpt>
<trkpt lat="40.0713749" lon="-105.229789">
  <ele>1583.0</ele>
  <time>2026-08-28T17:54:32Z</time>
  <course>0.0</course>
  <speed>0.0</speed>
  <fix>3d</fix>
</trkpt>
<trkpt lat="40.0713749" lon="-105.229789">
  <ele>1583.0</ele>
  <time>2026-08-28T17:54:32Z</time>
  <course>248.36</course>
  <speed>0.01</speed>
  <fix>3d</fix>
</trkpt>
<trkpt lat="40.0713749" lon="-105.229789">
  <ele>1583.0</ele>
  <time>2026-08-28T17:54:32Z</time>
  <course>0.0</course>
  <speed>0.0</speed>
  <fix>3d</fix>
</trkpt>
<trkpt lat="40.0713749" lon="-105.229789">
  <ele>1583.0</ele>
  <time>2026-08-28T17:54:32Z</time>
  <course>248.36</course>
  <speed>0.01</speed>
  <fix>3d</fix>
</trkpt>
<trkpt lat="40.0713749" lon="-105.229789">
  <ele>1583.0</ele>
  <time>2026-08-28T17:54:32Z</time>
  <course>0.0</course>
  <speed>0.0</speed>
  <fix>3d</fix>
</trkpt>
<trkpt lat="40.0713749" lon="-105.229789">
  <ele>1583.0</ele>
  <time>2026-08-28T17:54:32Z</time>
  <course>248.35</course>
  <speed>0.01</speed>
  <fix>3d</fix>
</trkpt>
<trkpt lat="40.0713749" lon="-105.229789">
  <ele>1583.0</ele>
  <time>2026-08-28T17:54:32Z</time>
  <course>0.0</course>
  <speed>0.0</speed>
  <fix>3d</fix>
</trkpt>
<trkpt lat="40.0713749" lon="-105.229789">
  <ele>1583.0</ele>
  <time>2026-08-28T17:54:32Z</time>
  <course>248.35</course>
  <speed>0.01</speed>
  <fix>3d</fix>
</trkpt>
<trkpt lat="40.0713749" lon="-105.229789">
  <ele>1583.0</ele>
  <time>2026-08-28T17:54:32Z</time>
  <course>0.0</course>
  <speed>0.0</speed>
  <fix>3d</fix>
</trkpt>
<trkpt lat="40.0713749" lon="-105.229789">
  <ele>1583.0</ele>
  <time>2026-08-28T17:54:32Z</time>
  <course>248.35</course>
  <speed>0.01</speed>
  <fix>3d</fix>
</trkpt>
<trkpt lat="40.0713749" lon="-105.229789">
  <ele>1583.0</ele>
  <time>2026-08-28T17:54:32Z</time>
  <course>0.0</course>
  <speed>0.0</speed>
  <fix>3d</fix>
</trkpt>
<trkpt lat="40.0713749" lon="-105.229789">
  <ele>1583.0</ele>
  <time>2026-08-28T17:54:32Z</time>
  <course>248.34</course>
  <speed>0.01</speed>
  <fix>3d</fix>
</trkpt>
<trkpt lat="40.0713749" lon="-105.229789">
  <ele>1583.0</ele>
  <time>2026-08-28T17:54:32Z</time>
  <course>0.0</course>
  <speed>0.0</speed>
  <fix>3d</fix>
</trkpt>
<trkpt lat="40.0713749" lon="-105.229789">
  <ele>1583.0</ele>
  <time>2026-08-28T17:54:32Z</time>
  <course>248.34</course>
  <speed>0.01</speed>
  <fix>3d</fix>
</trkpt>
<trkpt lat="40.0713749" lon="-105.229789">
  <ele>1583.0</ele>
  <time>2026-08-28T17:54:32Z</time>
  <course>0.0</course>
  <speed>0.0</speed>
  <fix>3d</fix>
</trkpt>
<trkpt lat="40.0713749" lon="-105.229789">
  <ele>1583.0</ele>
  <time>2026-08-28T17:54:32Z</time>
  <course>248.33</course>
  <speed>0.01</speed>
  <fix>3d</fix>
</trkpt>
<trkpt lat="40.0713749" lon="-105.229789">
  <ele>1583.0</ele>
  <time>2026-08-28T17:54:32Z</time>
  <course>0.0</course>
  <speed>0.0</speed>
  <fix>3d</fix>
</trkpt>
<trkpt lat="40.0713749" lon="-105.229789">
  <ele>1583.0</ele>
  <time>2026-08-28T17:54:32Z</time>
  <course>248.33</course>
  <speed>0.01</speed>
  <fix>3d</fix>
</trkpt>
<trkpt lat="40.0713749" lon="-105.229789">
  <ele>1583.0</ele>
  <time>2026-08-28T17:54:32Z</time>
  <course>0.0</course>
  <speed>0.0</speed>
  <fix>3d</fix>
</trkpt>
<trkpt lat="40.0713749" lon="-105.229789">
  <ele>1583.0</ele>
  <time>2026-08-28T17:54:32Z</time>
  <course>248.32</course>
  <speed>0.01</speed>
  <fix>3d</fix>
</trkpt>
<trkpt lat="40.0713749" lon="-105.229789">
  <ele>1583.0</ele>
  <time>2026-08-28T17:54:32Z</time>
  <course>0.0</course>
  <speed>0.0</speed>
  <fix>3d</fix>
</trkpt>
<trkpt lat="40.0713749" lon="-105.229789">
  <ele>1583.0</ele>
  <time>2026-08-28T17:54:32Z</time>
  <course>248.32</course>
  <speed>0.01</speed>
  <fix>3d</fix>
</trkpt>
<trkpt lat="40.0713749" lon="-105.229789">
  <ele>1583.0</ele>
  <time>2026-08-28T17:54:32Z</time>
  <course>0.0</course>
  <speed>0.0</speed>
  <fix>3d</fix>
</trkpt>
<trkpt lat="40.0713749" lon="-105.229789">
  <ele>1583.0</ele>
  <time>2026-08-28T17:54:32Z</time>
  <course>248.32</course>
  <speed>0.01</speed>
  <fix>3d</fix>
</trkpt>
<trkpt lat="40.0713749" lon="-105.229789">
  <ele>1583.0</ele>
  <time>2026-08-28T17:54:32Z</time>
  <course>0.0</course>
  <speed>0.0</speed>
  <fix>3d</fix>
</trkpt>
<trkpt lat="40.0713749" lon="-105.229789">
  <ele>1583.0</ele>
  <time>2026-08-28T17:54:32Z</time>
  <course>248.31</course>
  <speed>0.01</speed>
  <fix>3d</fix>
</trkpt>
<trkpt lat="40.0713749" lon="-105.229789">
  <ele>1583.0</ele>
  <time>2026-08-28T17:54:32Z</time>
  <course>0.0</course>
  <speed>0.0</speed>
  <fix>3d</fix>
</trkpt>
<trkpt lat="40.0713749" lon="-105.229789">
  <ele>1583.0</ele>
  <time>2026-08-28T17:54:32Z</time>
  <course>248.31</course>
  <speed>0.01</speed>
  <fix>3d</fix>
</trkpt>
<trkpt lat="40.0713749" lon="-105.229789">
  <ele>1583.0</ele>
  <time>2026-08-28T17:54:32Z</time>
  <course>0.0</course>
  <speed>0.0</speed>
  <fix>3d</fix>
</trkpt>
<trkpt lat="40.0713749" lon="-105.229789">
  <ele>1583.0</ele>
  <time>2026-08-28T17:54:32Z</time>
  <course>248.3</course>
  <speed>0.01</speed>
  <fix>3d</fix>
</trkpt>
<trkpt lat="40.0713749" lon="-105.229789">
  <ele>1583.0</ele>
  <time>2026-08-28T17:54:32Z</time>
  <course>0.0</course>
  <speed>0.0</speed>
  <fix>3d</fix>
</trkpt>
<trkpt lat="40.0713749" lon="-105.229789">
  <ele>1583.0</ele>
  <time>2026-08-28T17:54:32Z</time>
  <course>248.3</course>
  <speed>0.01</speed>
  <fix>3d</fix>
</trkpt>
<trkpt lat="40.0713749" lon="-105.229789">
  <ele>1583.0</ele>
  <time>2026-08-28T17:54:32Z</time>
  <course>0.0</course>
  <speed>0.0</speed>
  <fix>3d</fix>
</trkpt>
<trkpt lat="40.0713749" lon="-105.229789">
  <ele>1583.0</ele>
  <time>2026-08-28T17:54:32Z</time>
  <course>248.29</course>
  <speed>0.01</speed>
  <fix>3d</fix>
</trkpt>
<trkpt lat="40.0713749" lon="-105.229789">
  <ele>1583.0</ele>
  <time>2026-08-28T17:54:32Z</time>
  <course>0.0</course>
  <speed>0.0</speed>
  <fix>3d</fix>
</trkpt>
<trkpt lat="40.0713749" lon="-105.229789">
  <ele>1583.0</ele>
  <time>2026-08-28T17:54:32Z</time>
  <course>248.29</course>
  <speed>0.01</speed>
  <fix>3d</fix>
</trkpt>
<trkpt lat="40.0713749" lon="-105.229789">
  <ele>1583.0</ele>
  <time>2026-08-28T17:54:32Z</time>
  <course>0.0</course>
  <speed>0.0</speed>
  <fix>3d</fix>
</trkpt>
<trkpt lat="40.0713749" lon="-105.229789">
  <ele>1583.0</ele>
  <time>2026-08-28T17:54:32Z</time>
  <course>248.28</course>
  <speed>0.01</speed>
  <fix>3d</fix>
</trkpt>
<trkpt lat="40.0713749" lon="-105.229789">
  <ele>1583.0</ele>
  <time>2026-08-28T17:54:32Z</time>
  <course>0.0</course>
  <speed>0.0</speed>
  <fix>3d</fix>
</trkpt>
<trkpt lat="40.0713749" lon="-105.229789">
  <ele>1583.0</ele>
  <time>2026-08-28T17:54:32Z</time>
  <course>248.28</course>
  <speed>0.01</speed>
  <fix>3d</fix>
</trkpt>
<trkpt lat="40.0713749" lon="-105.229789">
  <ele>1583.0</ele>
  <time>2026-08-28T17:54:32Z</time>
  <course>0.0</course>
  <speed>0.0</speed>
  <fix>3d</fix>
</trkpt>
<trkpt lat="40.0713749" lon="-105.229789">
  <ele>1583.0</ele>
  <time>2026-08-28T17:54:32Z</time>
  <course>248.27</course>
  <speed>0.01</speed>
  <fix>3d</fix>
</trkpt>
<trkpt lat="40.0713749" lon="-105.229789">
  <ele>1583.0</ele>
  <time>2026-08-28T17:54:32Z</time>
  <course>0.0</course>
  <speed>0.0</speed>
  <fix>3d</fix>
</trkpt>
<trkpt lat="40.0713749" lon="-105.229789">
  <ele>1583.0</ele>
  <time>2026-08-28T17:54:32Z</time>
  <course>248.27</course>
  <speed>0.01</speed>
  <fix>3d</fix>
</trkpt>
<trkpt lat="40.0713749" lon="-105.229789">
  <ele>1583.0</ele>
  <time>2026-08-28T17:54:32Z</time>
  <course>0.0</course>
  <speed>0.0</speed>
  <fix>3d</fix>
</trkpt>
<trkpt lat="40.0713749" lon="-105.229789">
  <ele>1583.0</ele>
  <time>2026-08-28T17:54:32Z</time>
  <course>248.26</course>
  <speed>0.01</speed>
  <fix>3d</fix>
</trkpt>
<trkpt lat="40.0713749" lon="-105.229789">
  <ele>1583.0</ele>
  <time>2026-08-28T17:54:32Z</time>
  <course>0.0</course>
  <speed>0.0</speed>
  <fix>3d</fix>
</trkpt>
<trkpt lat="40.0713749" lon="-105.229789">
  <ele>1583.0</ele>
  <time>2026-08-28T17:54:32Z</time>
  <course>248.26</course>
  <speed>0.01</speed>
  <fix>3d</fix>
</trkpt>
<trkpt lat="40.0713749" lon="-105.229789">
  <ele>1583.0</ele>
  <time>2026-08-28T17:54:32Z</time>
  <course>0.0</course>
  <speed>0.0</speed>
  <fix>3d</fix>
</trkpt>
<trkpt lat="40.0713749" lon="-105.229789">
  <ele>1583.0</ele>
  <time>2026-08-28T17:54:32Z</time>
  <course>248.26</course>
  <speed>0.01</speed>
  <fix>3d</fix>
</trkpt>
<trkpt lat="40.0713749" lon="-105.229789">
  <ele>1583.0</ele>
  <time>2026-08-28T17:54:32Z</time>
  <course>0.0</course>
  <speed>0.0</speed>
  <fix>3d</fix>
</trkpt>
<trkpt lat="40.0713749" lon="-105.229789">
  <ele>1583.0</ele>
  <time>2026-08-28T17:54:32Z</time>
  <course>248.25</course>
  <speed>0.01</speed>
  <fix>3d</fix>
</trkpt>
<trkpt lat="40.0713749" lon="-105.229789">
  <ele>1583.0</ele>
  <time>2026-08-28T17:54:32Z</time>
  <course>0.0</course>
  <speed>0.0</speed>
  <fix>3d</fix>
</trkpt>
<trkpt lat="40.0713749" lon="-105.229789">
  <ele>1583.0</ele>
  <time>2026-08-28T17:54:32Z</time>
  <course>248.25</course>
  <speed>0.01</speed>
  <fix>3d</fix>
</trkpt>
<trkpt lat="40.0713749" lon="-105.229789">
  <ele>1583.0</ele>
  <time>2026-08-28T17:54:32Z</time>
  <course>0.0</course>
  <speed>0.0</speed>
  <fix>3d</fix>
</trkpt>
<trkpt lat="40.0713749" lon="-105.229789">
  <ele>1583.0</ele>
  <time>2026-08-28T17:54:32Z</time>
  <course>248.24</course>
  <speed>0.01</speed>
  <fix>3d</fix>
</trkpt>
<trkpt lat="40.0713749" lon="-105.229789">
  <ele>1583.0</ele>
  <time>2026-08-28T17:54:32Z</time>
  <course>0.0</course>
  <speed>0.0</speed>
  <fix>3d</fix>
</trkpt>
<trkpt lat="40.0713749" lon="-105.229789">
  <ele>1583.0</ele>
  <time>2026-08-28T17:54:32Z</time>
  <course>248.24</course>
  <speed>0.01</speed>
  <fix>3d</fix>
</trkpt>
<trkpt lat="40.0713749" lon="-105.229789">
  <ele>1583.0</ele>
  <time>2026-08-28T17:54:32Z</time>
  <course>0.0</course>
  <speed>0.0</speed>
  <fix>3d</fix>
</trkpt>
<trkpt lat="40.0713749" lon="-105.229789">
  <ele>1583.0</ele>
  <time>2026-08-28T17:54:32Z</time>
  <course>248.23</course>
  <speed>0.01</speed>
  <fix>3d</fix>
</trkpt>
<trkpt lat="40.0713749" lon="-105.229789">
  <ele>1583.0</ele>
  <time>2026-08-28T17:54:32Z</time>
  <course>0.0</course>
  <speed>0.0</speed>
  <fix>3d</fix>
</trkpt>
<trkpt lat="40.0713749" lon="-105.229789">
  <ele>1583.0</ele>
  <time>2026-08-28T17:54:32Z</time>
  <course>248.23</course>
  <speed>0.01</speed>
  <fix>3d</fix>
</trkpt>
<trkpt lat="40.0713749" lon="-105.229789">
  <ele>1583.0</ele>
  <time>2026-08-28T17:54:32Z</time>
  <course>0.0</course>
  <speed>0.0</speed>
  <fix>3d</fix>
</trkpt>
<trkpt lat="40.0713749" lon="-105.229789">
  <ele>1583.0</ele>
  <time>2026-08-28T17:54:32Z</time>
  <course>248.22</course>
  <speed>0.01</speed>
  <fix>3d</fix>
</trkpt>
<trkpt lat="40.0713749" lon="-105.229789">
  <ele>1583.0</ele>
  <time>2026-08-28T17:54:32Z</time>
  <course>0.0</course>
  <speed>0.0</speed>
  <fix>3d</fix>
</trkpt>
<trkpt lat="40.0713749" lon="-105.229789">
  <ele>1583.0</ele>
  <time>2026-08-28T17:54:32Z</time>
  <course>248.22</course>
  <speed>0.01</speed>
  <fix>3d</fix>
</trkpt>
<trkpt lat="40.0713749" lon="-105.229789">
  <ele>1583.0</ele>
  <time>2026-08-28T17:54:32Z</time>
  <course>0.0</course>
  <speed>0.0</speed>
  <fix>3d</fix>
</trkpt>
<trkpt lat="40.0713749" lon="-105.229789">
  <ele>1583.0</ele>
  <time>2026-08-28T17:54:32Z</time>
  <course>248.21</course>
  <speed>0.01</speed>
  <fix>3d</fix>
</trkpt>
<trkpt lat="40.0713749" lon="-105.229789">
  <ele>1583.0</ele>
  <time>2026-08-28T17:54:32Z</time>
  <course>0.0</course>
  <speed>0.0</speed>
  <fix>3d</fix>
</trkpt>
<trkpt lat="40.0713749" lon="-105.229789">
  <ele>1583.0</ele>
  <time>2026-08-28T17:54:32Z</time>
  <course>248.21</course>
  <speed>0.01</speed>
  <fix>3d</fix>
</trkpt>
<trkpt lat="40.0713749" lon="-105.229789">
  <ele>1583.0</ele>
  <time>2026-08-28T17:54:32Z</time>
  <course>0.0</course>
  <speed>0.0</speed>
  <fix>3d</fix>
</trkpt>
<trkpt lat="40.0713749" lon="-105.229789">
  <ele>1583.0</ele>
  <time>2026-08-28T17:54:32Z</time>
  <course>248.2</course>
  <speed>0.01</speed>
  <fix>3d</fix>
</trkpt>
<trkpt lat="40.0713749" lon="-105.229789">
  <ele>1583.0</ele>
  <time>2026-08-28T17:54:32Z</time>
  <course>0.0</course>
  <speed>0.0</speed>
  <fix>3d</fix>
</trkpt>
<trkpt lat="40.0713749" lon="-105.229789">
  <ele>1583.0</ele>
  <time>2026-08-28T17:54:32Z</time>
  <course>248.2</course>
  <speed>0.01</speed>
  <fix>3d</fix>
</trkpt>
<trkpt lat="40.0713749" lon="-105.229789">
  <ele>1583.0</ele>
  <time>2026-08-28T17:54:32Z</time>
  <course>0.0</course>
  <speed>0.0</speed>
  <fix>3d</fix>
</trkpt>
<trkpt lat="40.0713749" lon="-105.229789">
  <ele>1583.0</ele>
  <time>2026-08-28T17:54:32Z</time>
  <course>248.19</course>
  <speed>0.01</speed>
  <fix>3d</fix>
</trkpt>
<trkpt lat="40.0713749" lon="-105.229789">
  <ele>1583.0</ele>
  <time>2026-08-28T17:54:32Z</time>
  <course>0.0</course>
  <speed>0.0</speed>
  <fix>3d</fix>
</trkpt>
<trkpt lat="40.0713749" lon="-105.229789">
  <ele>1583.0</ele>
  <time>2026-08-28T17:54:32Z</time>
  <course>248.19</course>
  <speed>0.01</speed>
  <fix>3d</fix>
</trkpt>
<trkpt lat="40.0713749" lon="-105.229789">
  <ele>1583.0</ele>
  <time>2026-08-28T17:54:32Z</time>
  <course>0.0</course>
  <speed>0.0</speed>
  <fix>3d</fix>
</trkpt>
<trkpt lat="40.0713749" lon="-105.229789">
  <ele>1583.0</ele>
  <time>2026-08-28T17:54:32Z</time>
  <course>248.18</course>
  <speed>0.01</speed>
  <fix>3d</fix>
</trkpt>
<trkpt lat="40.0713749" lon="-105.229789">
  <ele>1583.0</ele>
  <time>2026-08-28T17:54:32Z</time>
  <course>0.0</course>
  <speed>0.0</speed>
  <fix>3d</fix>
</trkpt>
<trkpt lat="40.0713749" lon="-105.229789">
  <ele>1583.0</ele>
  <time>2026-08-28T17:54:32Z</time>
  <course>248.18</course>
  <speed>0.01</speed>
  <fix>3d</fix>
</trkpt>
<trkpt lat="40.0713749" lon="-105.229789">
  <ele>1583.0</ele>
  <time>2026-08-28T17:54:32Z</time>
  <course>0.0</course>
  <speed>0.0</speed>
  <fix>3d</fix>
</trkpt>
<trkpt lat="40.0713749" lon="-105.229789">
  <ele>1583.0</ele>
  <time>2026-08-28T17:54:32Z</time>
  <course>248.17</course>
  <speed>0.022360679774997897</speed>
  <fix>3d</fix>
</trkpt>
<trkpt lat="40.0713749" lon="-105.229789">
  <ele>1583.0</ele>
  <time>2026-08-28T17:54:32Z</time>
  <course>0.0</course>
  <speed>0.0</speed>
  <fix>3d</fix>
</trkpt>
<trkpt lat="40.0713749" lon="-105.229789">
  <ele>1583.0</ele>
  <time>2026-08-28T17:54:32Z</time>
  <course>248.17</course>
  <speed>0.022360679774997897</speed>
  <fix>3d</fix>
</trkpt>
<trkpt lat="40.0713749" lon="-105.229789">
  <ele>1583.0</ele>
  <time>2026-08-28T17:54:32Z</time>
  <course>0.0</course>
  <speed>0.0</speed>
  <fix>3d</fix>
</trkpt>
<trkpt lat="40.0713749" lon="-105.229789">
  <ele>1583.0</ele>
  <time>2026-08-28T17:54:32Z</time>
  <course>248.16</course>
  <speed>0.022360679774997897</speed>
  <fix>3d</fix>
</trkpt>
<trkpt lat="40.0713749" lon="-105.229789">
  <ele>1583.0</ele>
  <time>2026-08-28T17:54:32Z</time>
  <course>0.0</course>
  <speed>0.0</speed>
  <fix>3d</fix>
</trkpt>
<trkpt lat="40.0713749" lon="-105.229789">
  <ele>1583.0</ele>
  <time>2026-08-28T17:54:32Z</time>
  <course>248.16</course>
  <speed>0.022360679774997897</speed>
  <fix>3d</fix>
</trkpt>
<trkpt lat="40.0713749" lon="-105.229789">
  <ele>1583.0</ele>
  <time>2026-08-28T17:54:32Z</time>
  <course>0.0</course>
  <speed>0.0</speed>
  <fix>3d</fix>
</trkpt>
<trkpt lat="40.0713749" lon="-105.229789">
  <ele>1583.0</ele>
  <time>2026-08-28T17:54:32Z</time>
  <course>248.15</course>
  <speed>0.022360679774997897</speed>
  <fix>3d</fix>
</trkpt>
<trkpt lat="40.0713749" lon="-105.229789">
  <ele>1583.0</ele>
  <time>2026-08-28T17:54:32Z</time>
  <course>0.0</course>
  <speed>0.0</speed>
  <fix>3d</fix>
</trkpt>
<trkpt lat="40.0713749" lon="-105.229789">
  <ele>1583.0</ele>
  <time>2026-08-28T17:54:32Z</time>
  <course>248.15</course>
  <speed>0.022360679774997897</speed>
  <fix>3d</fix>
</trkpt>
<trkpt lat="40.0713749" lon="-105.229789">
  <ele>1583.0</ele>
  <time>2026-08-28T17:54:32Z</time>
  <course>0.0</course>
  <speed>0.0</speed>
  <fix>3d</fix>
</trkpt>
<trkpt lat="40.0713749" lon="-105.229789">
  <ele>1583.0</ele>
  <time>2026-08-28T17:54:32Z</time>
  <course>248.14</course>
  <speed>0.022360679774997897</speed>
  <fix>3d</fix>
</trkpt>
<trkpt lat="40.0713749" lon="-105.229789">
  <ele>1583.0</ele>
  <time>2026-08-28T17:54:32Z</time>
  <course>0.0</course>
  <speed>0.0</speed>
  <fix>3d</fix>
</trkpt>
<trkpt lat="40.0713749" lon="-105.229789">
  <ele>1583.0</ele>
  <time>2026-08-28T17:54:32Z</time>
  <course>248.14</course>
  <speed>0.022360679774997897</speed>
  <fix>3d</fix>
</trkpt>
<trkpt lat="40.0713749" lon="-105.229789">
  <ele>1583.0</ele>
  <time>2026-08-28T17:54:32Z</time>
  <course>0.0</course>
  <speed>0.0</speed>
  <fix>3d</fix>
</trkpt>
<trkpt lat="40.0713749" lon="-105.229789">
  <ele>1583.0</ele>
  <time>2026-08-28T17:54:32Z</time>
  <course>248.13</course>
  <speed>0.022360679774997897</speed>
  <fix>3d</fix>
</trkpt>
<trkpt lat="40.0713749" lon="-105.229789">
  <ele>1583.0</ele>
  <time>2026-08-28T17:54:32Z</time>
  <course>0.0</course>
  <speed>0.0</speed>
  <fix>3d</fix>
</trkpt>
<trkpt lat="40.0713749" lon="-105.229789">
  <ele>1583.0</ele>
  <time>2026-08-28T17:54:32Z</time>
  <course>248.13</course>
  <speed>0.022360679774997897</speed>
  <fix>3d</fix>
</trkpt>
<trkpt lat="40.0713749" lon="-105.229789">
  <ele>1583.0</ele>
  <time>2026-08-28T17:54:32Z</time>
  <course>0.0</course>
  <speed>0.0</speed>
  <fix>3d</fix>
</trkpt>
<trkpt lat="40.0713749" lon="-105.229789">
  <ele>1583.0</ele>
  <time>2026-08-28T17:54:32Z</time>
  <course>248.12</course>
  <speed>0.022360679774997897</speed>
  <fix>3d</fix>
</trkpt>
<trkpt lat="40.0713749" lon="-105.229789">
  <ele>1583.0</ele>
  <time>2026-08-28T17:54:32Z</time>
  <course>0.0</course>
  <speed>0.0</speed>
  <fix>3d</fix>
</trkpt>
<trkpt lat="40.0713749" lon="-105.229789">
  <ele>1583.0</ele>
  <time>2026-08-28T17:54:32Z</time>
  <course>248.12</course>
  <speed>0.022360679774997897</speed>
  <fix>3d</fix>
</trkpt>
<trkpt lat="40.0713749" lon="-105.229789">
  <ele>1583.0</ele>
  <time>2026-08-28T17:54:32Z</time>
  <course>0.0</course>
  <speed>0.0</speed>
  <fix>3d</fix>
</trkpt>
<trkpt lat="40.0713749" lon="-105.229789">
  <ele>1583.0</ele>
  <time>2026-08-28T17:54:32Z</time>
  <course>248.11</course>
  <speed>0.022360679774997897</speed>
  <fix>3d</fix>
</trkpt>
<trkpt lat="40.0713749" lon="-105.229789">
  <ele>1583.0</ele>
  <time>2026-08-28T17:54:32Z</time>
  <course>0.0</course>
  <speed>0.0</speed>
  <fix>3d</fix>
</trkpt>
<trkpt lat="40.0713749" lon="-105.229789">
  <ele>1583.0</ele>
  <time>2026-08-28T17:54:32Z</time>
  <course>248.11</course>
  <speed>0.022360679774997897</speed>
  <fix>3d</fix>
</trkpt>
<trkpt lat="40.0713749" lon="-105.229789">
  <ele>1583.0</ele>
  <time>2026-08-28T17:54:32Z</time>
  <course>0.0</course>
  <speed>0.0</speed>
  <fix>3d</fix>
</trkpt>
<trkpt lat="40.0713749" lon="-105.229789">
  <ele>1583.0</ele>
  <time>2026-08-28T17:54:32Z</time>
  <course>248.1</course>
  <speed>0.022360679774997897</speed>
  <fix>3d</fix>
</trkpt>
<trkpt lat="40.0713749" lon="-105.229789">
  <ele>1583.0</ele>
  <time>2026-08-28T17:54:32Z</time>
  <course>0.0</course>
  <speed>0.0</speed>
  <fix>3d</fix>
</trkpt>
<trkpt lat="40.0713749" lon="-105.229789">
  <ele>1583.0</ele>
  <time>2026-08-28T17:54:32Z</time>
  <course>248.1</course>
  <speed>0.022360679774997897</speed>
  <fix>3d</fix>
</trkpt>
<trkpt lat="40.0713749" lon="-105.229789">
  <ele>1583.0</ele>
  <time>2026-08-28T17:54:32Z</time>
  <course>0.0</course>
  <speed>0.0</speed>
  <fix>3d</fix>
</trkpt>
<trkpt lat="40.0713749" lon="-105.229789">
  <ele>1583.0</ele>
  <time>2026-08-28T17:54:32Z</time>
  <course>248.09</course>
  <speed>0.022360679774997897</speed>
  <fix>3d</fix>
</trkpt>
<trkpt lat="40.0713749" lon="-105.229789">
  <ele>1583.0</ele>
  <time>2026-08-28T17:54:32Z</time>
  <course>0.0</course>
  <speed>0.0</speed>
  <fix>3d</fix>
</trkpt>
<trkpt lat="40.0713749" lon="-105.229789">
  <ele>1583.0</ele>
  <time>2026-08-28T17:54:32Z</time>
  <course>248.09</course>
  <speed>0.022360679774997897</speed>
  <fix>3d</fix>
</trkpt>
<trkpt lat="40.0713749" lon="-105.229789">
  <ele>1583.0</ele>
  <time>2026-08-28T17:54:32Z</time>
  <course>0.0</course>
  <speed>0.0</speed>
  <fix>3d</fix>
</trkpt>
<trkpt lat="40.0713749" lon="-105.229789">
  <ele>1583.0</ele>
  <time>2026-08-28T17:54:32Z</time>
  <course>248.08</course>
  <speed>0.022360679774997897</speed>
  <fix>3d</fix>
</trkpt>
<trkpt lat="40.0713749" lon="-105.229789">
  <ele>1583.0</ele>
  <time>2026-08-28T17:54:32Z</time>
  <course>0.0</course>
  <speed>0.0</speed>
  <fix>3d</fix>
</trkpt>
<trkpt lat="40.0713749" lon="-105.229789">
  <ele>1583.0</ele>
  <time>2026-08-28T17:54:32Z</time>
  <course>248.08</course>
  <speed>0.022360679774997897</speed>
  <fix>3d</fix>
</trkpt>
<trkpt lat="40.0713749" lon="-105.229789">
  <ele>1583.0</ele>
  <time>2026-08-28T17:54:32Z</time>
  <course>0.0</course>
  <speed>0.0</speed>
  <fix>3d</fix>
</trkpt>
<trkpt lat="40.0713749" lon="-105.229789">
  <ele>1583.0</ele>
  <time>2026-08-28T17:54:32Z</time>
  <course>248.07</course>
  <speed>0.022360679774997897</speed>
  <fix>3d</fix>
</trkpt>
<trkpt lat="40.0713749" lon="-105.229789">
  <ele>1583.0</ele>
  <time>2026-08-28T17:54:32Z</time>
  <course>0.0</course>
  <speed>0.0</speed>
  <fix>3d</fix>
</trkpt>
<trkpt lat="40.0713749" lon="-105.229789">
  <ele>1583.0</ele>
  <time>2026-08-28T17:54:32Z</time>
  <course>248.07</course>
  <speed>0.022360679774997897</speed>
  <fix>3d</fix>
</trkpt>
<trkpt lat="40.0713749" lon="-105.229789">
  <ele>1583.0</ele>
  <time>2026-08-28T17:54:32Z</time>
  <course>0.0</course>
  <speed>0.0</speed>
  <fix>3d</fix>
</trkpt>
<trkpt lat="40.0713749" lon="-105.229789">
  <ele>1583.0</ele>
  <time>2026-08-28T17:54:32Z</time>
  <course>248.06</course>
  <speed>0.022360679774997897</speed>
  <fix>3d</fix>
</trkpt>
<trkpt lat="40.0713749" lon="-105.229789">
  <ele>1583.0</ele>
  <time>2026-08-28T17:54:32Z</time>
  <course>0.0</course>
  <speed>0.0</speed>
  <fix>3d</fix>
</trkpt>
<trkpt lat="40.0713749" lon="-105.229789">
  <ele>1583.0</ele>
  <time>2026-08-28T17:54:32Z</time>
  <course>248.06</course>
  <speed>0.022360679774997897</speed>
  <fix>3d</fix>
</trkpt>
<trkpt lat="40.0713749" lon="-105.229789">
  <ele>1583.0</ele>
  <time>2026-08-28T17:54:32Z</time>
  <course>0.0</course>
  <speed>0.0</speed>
  <fix>3d</fix>
</trkpt>
<trkpt lat="40.0713749" lon="-105.229789">
  <ele>1583.0</ele>
  <time>2026-08-28T17:54:32Z</time>
  <course>248.05</course>
  <speed>0.022360679774997897</speed>
  <fix>3d</fix>
</trkpt>
<trkpt lat="40.0713749" lon="-105.229789">
  <ele>1583.0</ele>
  <time>2026-08-28T17:54:32Z</time>
  <course>0.0</course>
  <speed>0.0</speed>
  <fix>3d</fix>
</trkpt>
<trkpt lat="40.0713749" lon="-105.229789">
  <ele>1583.0</ele>
  <time>2026-08-28T17:54:32Z</time>
  <course>248.05</course>
  <speed>0.022360679774997897</speed>
  <fix>3d</fix>
</trkpt>
<trkpt lat="40.0713749" lon="-105.229789">
  <ele>1583.0</ele>
  <time>2026-08-28T17:54:32Z</time>
  <course>0.0</course>
  <speed>0.0</speed>
  <fix>3d</fix>
</trkpt>
<trkpt lat="40.0713749" lon="-105.229789">
  <ele>1583.0</ele>
  <time>2026-08-28T17:54:32Z</time>
  <course>248.05</course>
  <speed>0.022360679774997897</speed>
  <fix>3d</fix>
</trkpt>
<trkpt lat="40.0713749" lon="-105.229789">
  <ele>1583.0</ele>
  <time>2026-08-28T17:54:32Z</time>
  <course>0.0</course>
  <speed>0.0</speed>
  <fix>3d</fix>
</trkpt>
<trkpt lat="40.0713749" lon="-105.229789">
  <ele>1583.0</ele>
  <time>2026-08-28T17:54:32Z</time>
  <course>248.04</course>
  <speed>0.022360679774997897</speed>
  <fix>3d</fix>
</trkpt>
<trkpt lat="40.0713749" lon="-105.229789">
  <ele>1583.0</ele>
  <time>2026-08-28T17:54:32Z</time>
  <course>0.0</course>
  <speed>0.0</speed>
  <fix>3d</fix>
</trkpt>
<trkpt lat="40.0713749" lon="-105.229789">
  <ele>1583.0</ele>
  <time>2026-08-28T17:54:32Z</time>
  <course>248.04</course>
  <speed>0.022360679774997897</speed>
  <fix>3d</fix>
</trkpt>
<trkpt lat="40.0713749" lon="-105.229789">
  <ele>1583.0</ele>
  <time>2026-08-28T17:54:32Z</time>
  <course>0.0</course>
  <speed>0.0</speed>
  <fix>3d</fix>
</trkpt>
<trkpt lat="40.0713749" lon="-105.229789">
  <ele>1583.0</ele>
  <time>2026-08-28T17:54:32Z</time>
  <course>248.03</course>
  <speed>0.022360679774997897</speed>
  <fix>3d</fix>
</trkpt>
<trkpt lat="40.0713749" lon="-105.229789">
  <ele>1583.0</ele>
  <time>2026-08-28T17:54:32Z</time>
  <course>0.0</course>
  <speed>0.0</speed>
  <fix>3d</fix>
</trkpt>
<trkpt lat="40.0713749" lon="-105.229789">
  <ele>1583.0</ele>
  <time>2026-08-28T17:54:32Z</time>
  <course>248.03</course>
  <speed>0.022360679774997897</speed>
  <fix>3d</fix>
</trkpt>
<trkpt lat="40.0713749" lon="-105.229789">
  <ele>1583.0</ele>
  <time>2026-08-28T17:54:32Z</time>
  <course>0.0</course>
  <speed>0.0</speed>
  <fix>3d</fix>
</trkpt>
<trkpt lat="40.0713749" lon="-105.229789">
  <ele>1583.0</ele>
  <time>2026-08-28T17:54:32Z</time>
  <course>248.02</course>
  <speed>0.022360679774997897</speed>
  <fix>3d</fix>
</trkpt>
<trkpt lat="40.0713749" lon="-105.229789">
  <ele>1583.0</ele>
  <time>2026-08-28T17:54:32Z</time>
  <course>0.0</course>
  <speed>0.0</speed>
  <fix>3d</fix>
</trkpt>
<trkpt lat="40.0713749" lon="-105.229789">
  <ele>1583.0</ele>
  <time>2026-08-28T17:54:32Z</time>
  <course>248.02</course>
  <speed>0.022360679774997897</speed>
  <fix>3d</fix>
</trkpt>
<trkpt lat="40.0713749" lon="-105.229789">
  <ele>1583.0</ele>
  <time>2026-08-28T17:54:32Z</time>
  <course>0.0</course>
  <speed>0.0</speed>
  <fix>3d</fix>
</trkpt>
<trkpt lat="40.0713749" lon="-105.229789">
  <ele>1583.0</ele>
  <time>2026-08-28T17:54:32Z</time>
  <course>248.01</course>
  <speed>0.022360679774997897</speed>
  <fix>3d</fix>
</trkpt>
<trkpt lat="40.0713749" lon="-105.229789">
  <ele>1583.0</ele>
  <time>2026-08-28T17:54:32Z</time>
  <course>0.0</course>
  <speed>0.0</speed>
  <fix>3d</fix>
</trkpt>
<trkpt lat="40.0713749" lon="-105.229789">
  <ele>1583.0</ele>
  <time>2026-08-28T17:54:32Z</time>
  <course>248.01</course>
  <speed>0.022360679774997897</speed>
  <fix>3d</fix>
</trkpt>
<trkpt lat="40.0713749" lon="-105.229789">
  <ele>1583.0</ele>
  <time>2026-08-28T17:54:32Z</time>
  <course>0.0</course>
  <speed>0.0</speed>
  <fix>3d</fix>
</trkpt>
<trkpt lat="40.0713749" lon="-105.229789">
  <ele>1583.0</ele>
  <time>2026-08-28T17:54:32Z</time>
  <course>248.0</course>
  <speed>0.022360679774997897</speed>
  <fix>3d</fix>
</trkpt>
<trkpt lat="40.0713749" lon="-105.229789">
  <ele>1583.0</ele>
  <time>2026-08-28T17:54:32Z</time>
  <course>0.0</course>
  <speed>0.0</speed>
  <fix>3d</fix>
</trkpt>
<trkpt lat="40.0713749" lon="-105.229789">
  <ele>1583.0</ele>
  <time>2026-08-28T17:54:32Z</time>
  <course>248.0</course>
  <speed>0.022360679774997897</speed>
  <fix>3d</fix>
</trkpt>
<trkpt lat="40.0713749" lon="-105.229789">
  <ele>1583.0</ele>
  <time>2026-08-28T17:54:32Z</time>
  <course>0.0</course>
  <speed>0.0</speed>
  <fix>3d</fix>
</trkpt>
<trkpt lat="40.0713749" lon="-105.229789">
  <ele>1583.0</ele>
  <time>2026-08-28T17:54:32Z</time>
  <course>247.99</course>
  <speed>0.022360679774997897</speed>
  <fix>3d</fix>
</trkpt>
<trkpt lat="40.0713749" lon="-105.229789">
  <ele>1583.0</ele>
  <time>2026-08-28T17:54:32Z</time>
  <course>0.0</course>
  <speed>0.0</speed>
  <fix>3d</fix>
</trkpt>
<trkpt lat="40.0713749" lon="-105.229789">
  <ele>1583.0</ele>
  <time>2026-08-28T17:54:32Z</time>
  <course>247.99</course>
  <speed>0.022360679774997897</speed>
  <fix>3d</fix>
</trkpt>
<trkpt lat="40.0713749" lon="-105.229789">
  <ele>1583.0</ele>
  <time>2026-08-28T17:54:32Z</time>
  <course>0.0</course>
  <speed>0.0</speed>
  <fix>3d</fix>
</trkpt>
<trkpt lat="40.0713749" lon="-105.229789">
  <ele>1583.0</ele>
  <time>2026-08-28T17:54:32Z</time>
  <course>247.99</course>
  <speed>0.022360679774997897</speed>
  <fix>3d</fix>
</trkpt>
<trkpt lat="40.0713749" lon="-105.229789">
  <ele>1583.0</ele>
  <time>2026-08-28T17:54:32Z</time>
  <course>0.0</course>
  <speed>0.0</speed>
  <fix>3d</fix>
</trkpt>
<trkpt lat="40.0713749" lon="-105.229789">
  <ele>1583.0</ele>
  <time>2026-08-28T17:54:32Z</time>
  <course>247.98</course>
  <speed>0.022360679774997897</speed>
  <fix>3d</fix>
</trkpt>
<trkpt lat="40.0713749" lon="-105.229789">
  <ele>1583.0</ele>
  <time>2026-08-28T17:54:32Z</time>
  <course>0.0</course>
  <speed>0.0</speed>
  <fix>3d</fix>
</trkpt>
<trkpt lat="40.0713749" lon="-105.229789">
  <ele>1583.0</ele>
  <time>2026-08-28T17:54:32Z</time>
  <course>247.98</course>
  <speed>0.022360679774997897</speed>
  <fix>3d</fix>
</trkpt>
<trkpt lat="40.0713749" lon="-105.229789">
  <ele>1583.0</ele>
  <time>2026-08-28T17:54:32Z</time>
  <course>0.0</course>
  <speed>0.0</speed>
  <fix>3d</fix>
</trkpt>
<trkpt lat="40.0713749" lon="-105.229789">
  <ele>1583.0</ele>
  <time>2026-08-28T17:54:32Z</time>
  <course>247.97</course>
  <speed>0.022360679774997897</speed>
  <fix>3d</fix>
</trkpt>
<trkpt lat="40.0713749" lon="-105.229789">
  <ele>1583.0</ele>
  <time>2026-08-28T17:54:32Z</time>
  <course>0.0</course>
  <speed>0.0</speed>
  <fix>3d</fix>
</trkpt>
<trkpt lat="40.0713749" lon="-105.229789">
  <ele>1583.0</ele>
  <time>2026-08-28T17:54:32Z</time>
  <course>247.97</course>
  <speed>0.022360679774997897</speed>
  <fix>3d</fix>
</trkpt>
<trkpt lat="40.0713749" lon="-105.229789">
  <ele>1583.0</ele>
  <time>2026-08-28T17:54:32Z</time>
  <course>0.0</course>
  <speed>0.0</speed>
  <fix>3d</fix>
</trkpt>
<trkpt lat="40.0713749" lon="-105.229789">
  <ele>1583.0</ele>
  <time>2026-08-28T17:54:32Z</time>
  <course>247.96</course>
  <speed>0.022360679774997897</speed>
  <fix>3d</fix>
</trkpt>
<trkpt lat="40.0713749" lon="-105.229789">
  <ele>1583.0</ele>
  <time>2026-08-28T17:54:32Z</time>
  <course>0.0</course>
  <speed>0.0</speed>
  <fix>3d</fix>
</trkpt>
<trkpt lat="40.0713749" lon="-105.229789">
  <ele>1583.0</ele>
  <time>2026-08-28T17:54:32Z</time>
  <course>247.96</course>
  <speed>0.022360679774997897</speed>
  <fix>3d</fix>
</trkpt>
<trkpt lat="40.0713749" lon="-105.229789">
  <ele>1583.0</ele>
  <time>2026-08-28T17:54:32Z</time>
  <course>0.0</course>
  <speed>0.0</speed>
  <fix>3d</fix>
</trkpt>
<trkpt lat="40.0713749" lon="-105.229789">
  <ele>1583.0</ele>
  <time>2026-08-28T17:54:32Z</time>
  <course>247.95</course>
  <speed>0.022360679774997897</speed>
  <fix>3d</fix>
</trkpt>
<trkpt lat="40.0713749" lon="-105.229789">
  <ele>1583.0</ele>
  <time>2026-08-28T17:54:32Z</time>
  <course>0.0</course>
  <speed>0.0</speed>
  <fix>3d</fix>
</trkpt>
<trkpt lat="40.0713749" lon="-105.229789">
  <ele>1583.0</ele>
  <time>2026-08-28T17:54:32Z</time>
  <course>247.95</course>
  <speed>0.022360679774997897</speed>
  <fix>3d</fix>
</trkpt>
<trkpt lat="40.0713749" lon="-105.229789">
  <ele>1583.0</ele>
  <time>2026-08-28T17:54:32Z</time>
  <course>0.0</course>
  <speed>0.0</speed>
  <fix>3d</fix>
</trkpt>
<trkpt lat="40.0713749" lon="-105.229789">
  <ele>1583.0</ele>
  <time>2026-08-28T17:54:32Z</time>
  <course>247.95</course>
  <speed>0.022360679774997897</speed>
  <fix>3d</fix>
</trkpt>
<trkpt lat="40.0713749" lon="-105.229789">
  <ele>1583.0</ele>
  <time>2026-08-28T17:54:32Z</time>
  <course>0.0</course>
  <speed>0.0</speed>
  <fix>3d</fix>
</trkpt>
<trkpt lat="40.0713749" lon="-105.229789">
  <ele>1583.0</ele>
  <time>2026-08-28T17:54:32Z</time>
  <course>247.94</course>
  <speed>0.022360679774997897</speed>
  <fix>3d</fix>
</trkpt>
<trkpt lat="40.0713749" lon="-105.229789">
  <ele>1583.0</ele>
  <time>2026-08-28T17:54:32Z</time>
  <course>0.0</course>
  <speed>0.0</speed>
  <fix>3d</fix>
</trkpt>
<trkpt lat="40.0713749" lon="-105.229789">
  <ele>1583.0</ele>
  <time>2026-08-28T17:54:32Z</time>
  <course>247.94</course>
  <speed>0.022360679774997897</speed>
  <fix>3d</fix>
</trkpt>
<trkpt lat="40.0713749" lon="-105.229789">
  <ele>1583.0</ele>
  <time>2026-08-28T17:54:32Z</time>
  <course>0.0</course>
  <speed>0.0</speed>
  <fix>3d</fix>
</trkpt>
<trkpt lat="40.0713749" lon="-105.229789">
  <ele>1583.0</ele>
  <time>2026-08-28T17:54:32Z</time>
  <course>247.93</course>
  <speed>0.022360679774997897</speed>
  <fix>3d</fix>
</trkpt>
<trkpt lat="40.0713749" lon="-105.229789">
  <ele>1583.0</ele>
  <time>2026-08-28T17:54:32Z</time>
  <course>0.0</course>
  <speed>0.0</speed>
  <fix>3d</fix>
</trkpt>
<trkpt lat="40.0713749" lon="-105.229789">
  <ele>1583.0</ele>
  <time>2026-08-28T17:54:32Z</time>
  <course>247.93</course>
  <speed>0.022360679774997897</speed>
  <fix>3d</fix>
</trkpt>
<trkpt lat="40.0713749" lon="-105.229789">
  <ele>1583.0</ele>
  <time>2026-08-28T17:54:32Z</time>
  <course>0.0</course>
  <speed>0.0</speed>
  <fix>3d</fix>
</trkpt>
<trkpt lat="40.0713749" lon="-105.229789">
  <ele>1583.0</ele>
  <time>2026-08-28T17:54:32Z</time>
  <course>247.92</course>
  <speed>0.022360679774997897</speed>
  <fix>3d</fix>
</trkpt>
<trkpt lat="40.0713749" lon="-105.229789">
  <ele>1583.0</ele>
  <time>2026-08-28T17:54:32Z</time>
  <course>0.0</course>
  <speed>0.0</speed>
  <fix>3d</fix>
</trkpt>
<trkpt lat="40.0713749" lon="-105.229789">
  <ele>1583.0</ele>
  <time>2026-08-28T17:54:32Z</time>
  <course>247.92</course>
  <speed>0.022360679774997897</speed>
  <fix>3d</fix>
</trkpt>
<trkpt lat="40.0713749" lon="-105.229789">
  <ele>1583.0</ele>
  <time>2026-08-28T17:54:32Z</time>
  <course>0.0</course>
  <speed>0.0</speed>
  <fix>3d</fix>
</trkpt>
<trkpt lat="40.0713749" lon="-105.229789">
  <ele>1583.0</ele>
  <time>2026-08-28T17:54:32Z</time>
  <course>247.92</course>
  <speed>0.022360679774997897</speed>
  <fix>3d</fix>
</trkpt>
<trkpt lat="40.0713749" lon="-105.229789">
  <ele>1583.0</ele>
  <time>2026-08-28T17:54:32Z</time>
  <course>0.0</course>
  <speed>0.0</speed>
  <fix>3d</fix>
</trkpt>
<trkpt lat="40.0713749" lon="-105.229789">
  <ele>1583.0</ele>
  <time>2026-08-28T17:54:32Z</time>
  <course>247.91</course>
  <speed>0.022360679774997897</speed>
  <fix>3d</fix>
</trkpt>
<trkpt lat="40.0713749" lon="-105.229789">
  <ele>1583.0</ele>
  <time>2026-08-28T17:54:32Z</time>
  <course>0.0</course>
  <speed>0.0</speed>
  <fix>3d</fix>
</trkpt>
<trkpt lat="40.0713749" lon="-105.229789">
  <ele>1583.0</ele>
  <time>2026-08-28T17:54:32Z</time>
  <course>247.91</course>
  <speed>0.022360679774997897</speed>
  <fix>3d</fix>
</trkpt>
<trkpt lat="40.0713749" lon="-105.229789">
  <ele>1583.0</ele>
  <time>2026-08-28T17:54:32Z</time>
  <course>0.0</course>
  <speed>0.0</speed>
  <fix>3d</fix>
</trkpt>
<trkpt lat="40.0713749" lon="-105.229789">
  <ele>1583.0</ele>
  <time>2026-08-28T17:54:32Z</time>
  <course>247.9</course>
  <speed>0.022360679774997897</speed>
  <fix>3d</fix>
</trkpt>
<trkpt lat="40.0713749" lon="-105.229789">
  <ele>1583.0</ele>
  <time>2026-08-28T17:54:32Z</time>
  <course>0.0</course>
  <speed>0.0</speed>
  <fix>3d</fix>
</trkpt>
<trkpt lat="40.0713749" lon="-105.229789">
  <ele>1583.0</ele>
  <time>2026-08-28T17:54:32Z</time>
  <course>247.9</course>
  <speed>0.022360679774997897</speed>
  <fix>3d</fix>
</trkpt>
<trkpt lat="40.0713749" lon="-105.229789">
  <ele>1583.0</ele>
  <time>2026-08-28T17:54:32Z</time>
  <course>0.0</course>
  <speed>0.0</speed>
  <fix>3d</fix>
</trkpt>
<trkpt lat="40.0713749" lon="-105.229789">
  <ele>1583.0</ele>
  <time>2026-08-28T17:54:32Z</time>
  <course>247.89</course>
  <speed>0.022360679774997897</speed>
  <fix>3d</fix>
</trkpt>
<trkpt lat="40.0713749" lon="-105.229789">
  <ele>1583.0</ele>
  <time>2026-08-28T17:54:32Z</time>
  <course>0.0</course>
  <speed>0.0</speed>
  <fix>3d</fix>
</trkpt>
<trkpt lat="40.0713749" lon="-105.229789">
  <ele>1583.0</ele>
  <time>2026-08-28T17:54:32Z</time>
  <course>247.89</course>
  <speed>0.022360679774997897</speed>
  <fix>3d</fix>
</trkpt>
<trkpt lat="40.0713749" lon="-105.229789">
  <ele>1583.0</ele>
  <time>2026-08-28T17:54:32Z</time>
  <course>0.0</course>
  <speed>0.0</speed>
  <fix>3d</fix>
</trkpt>
<trkpt lat="40.0713749" lon="-105.229789">
  <ele>1583.0</ele>
  <time>2026-08-28T17:54:32Z</time>
  <course>247.89</course>
  <speed>0.022360679774997897</speed>
  <fix>3d</fix>
</trkpt>
<trkpt lat="40.0713749" lon="-105.229789">
  <ele>1583.0</ele>
  <time>2026-08-28T17:54:32Z</time>
  <course>0.0</course>
  <speed>0.0</speed>
  <fix>3d</fix>
</trkpt>
<trkpt lat="40.0713749" lon="-105.229789">
  <ele>1583.0</ele>
  <time>2026-08-28T17:54:32Z</time>
  <course>247.88</course>
  <speed>0.0316227766016838</speed>
  <fix>3d</fix>
</trkpt>
<trkpt lat="40.0713749" lon="-105.229789">
  <ele>1583.0</ele>
  <time>2026-08-28T17:54:32Z</time>
  <course>0.0</course>
  <speed>0.0</speed>
  <fix>3d</fix>
</trkpt>
<trkpt lat="40.0713749" lon="-105.229789">
  <ele>1583.0</ele>
  <time>2026-08-28T17:54:32Z</time>
  <course>247.88</course>
  <speed>0.0316227766016838</speed>
  <fix>3d</fix>
</trkpt>
<trkpt lat="40.0713749" lon="-105.229789">
  <ele>1583.0</ele>
  <time>2026-08-28T17:54:32Z</time>
  <course>0.0</course>
  <speed>0.0</speed>
  <fix>3d</fix>
</trkpt>
<trkpt lat="40.0713749" lon="-105.229789">
  <ele>1583.0</ele>
  <time>2026-08-28T17:54:32Z</time>
  <course>247.87</course>
  <speed>0.0316227766016838</speed>
  <fix>3d</fix>
</trkpt>
<trkpt lat="40.0713749" lon="-105.229789">
  <ele>1583.0</ele>
  <time>2026-08-28T17:54:32Z</time>
  <course>0.0</course>
  <speed>0.0</speed>
  <fix>3d</fix>
</trkpt>
<trkpt lat="40.0713749" lon="-105.229789">
  <ele>1583.0</ele>
  <time>2026-08-28T17:54:32Z</time>
  <course>247.87</course>
  <speed>0.0316227766016838</speed>
  <fix>3d</fix>
</trkpt>
<trkpt lat="40.0713749" lon="-105.229789">
  <ele>1583.0</ele>
  <time>2026-08-28T17:54:32Z</time>
  <course>0.0</course>
  <speed>0.0</speed>
  <fix>3d</fix>
</trkpt>
<trkpt lat="40.0713749" lon="-105.229789">
  <ele>1583.0</ele>
  <time>2026-08-28T17:54:32Z</time>
  <course>247.87</course>
  <speed>0.0316227766016838</speed>
  <fix>3d</fix>
</trkpt>
<trkpt lat="40.0713749" lon="-105.229789">
  <ele>1583.0</ele>
  <time>2026-08-28T17:54:32Z</time>
  <course>0.0</course>
  <speed>0.0</speed>
  <fix>3d</fix>
</trkpt>
<trkpt lat="40.0713749" lon="-105.229789">
  <ele>1583.0</ele>
  <time>2026-08-28T17:54:32Z</time>
  <course>247.86</course>
  <speed>0.0316227766016838</speed>
  <fix>3d</fix>
</trkpt>
<trkpt lat="40.0713749" lon="-105.229789">
  <ele>1583.0</ele>
  <time>2026-08-28T17:54:32Z</time>
  <course>0.0</course>
  <speed>0.0</speed>
  <fix>3d</fix>
</trkpt>
<trkpt lat="40.0713749" lon="-105.229789">
  <ele>1583.0</ele>
  <time>2026-08-28T17:54:32Z</time>
  <course>247.86</course>
  <speed>0.0316227766016838</speed>
  <fix>3d</fix>
</trkpt>
<trkpt lat="40.0713749" lon="-105.229789">
  <ele>1583.0</ele>
  <time>2026-08-28T17:54:32Z</time>
  <course>0.0</course>
  <speed>0.0</speed>
  <fix>3d</fix>
</trkpt>
<trkpt lat="40.0713749" lon="-105.229789">
  <ele>1583.0</ele>
  <time>2026-08-28T17:54:32Z</time>
  <course>247.85</course>
  <speed>0.0316227766016838</speed>
  <fix>3d</fix>
</trkpt>
<trkpt lat="40.0713749" lon="-105.229789">
  <ele>1583.0</ele>
  <time>2026-08-28T17:54:32Z</time>
  <course>0.0</course>
  <speed>0.0</speed>
  <fix>3d</fix>
</trkpt>
<trkpt lat="40.0713749" lon="-105.229789">
  <ele>1583.0</ele>
  <time>2026-08-28T17:54:32Z</time>
  <course>247.85</course>
  <speed>0.0316227766016838</speed>
  <fix>3d</fix>
</trkpt>
<trkpt lat="40.0713749" lon="-105.229789">
  <ele>1583.0</ele>
  <time>2026-08-28T17:54:32Z</time>
  <course>0.0</course>
  <speed>0.0</speed>
  <fix>3d</fix>
</trkpt>
<trkpt lat="40.0713749" lon="-105.229789">
  <ele>1583.0</ele>
  <time>2026-08-28T17:54:32Z</time>
  <course>247.85</course>
  <speed>0.0316227766016838</speed>
  <fix>3d</fix>
</trkpt>
<trkpt lat="40.0713749" lon="-105.229789">
  <ele>1583.0</ele>
  <time>2026-08-28T17:54:32Z</time>
  <course>0.0</course>
  <speed>0.0</speed>
  <fix>3d</fix>
</trkpt>
<trkpt lat="40.0713749" lon="-105.229789">
  <ele>1583.0</ele>
  <time>2026-08-28T17:54:32Z</time>
  <course>247.84</course>
  <speed>0.0316227766016838</speed>
  <fix>3d</fix>
</trkpt>
<trkpt lat="40.0713749" lon="-105.229789">
  <ele>1583.0</ele>
  <time>2026-08-28T17:54:32Z</time>
  <course>0.0</course>
  <speed>0.0</speed>
  <fix>3d</fix>
</trkpt>
<trkpt lat="40.0713749" lon="-105.229789">
  <ele>1583.0</ele>
  <time>2026-08-28T17:54:32Z</time>
  <course>247.84</course>
  <speed>0.0316227766016838</speed>
  <fix>3d</fix>
</trkpt>
<trkpt lat="40.0713749" lon="-105.229789">
  <ele>1583.0</ele>
  <time>2026-08-28T17:54:32Z</time>
  <course>0.0</course>
  <speed>0.0</speed>
  <fix>3d</fix>
</trkpt>
<trkpt lat="40.0713749" lon="-105.229789">
  <ele>1583.0</ele>
  <time>2026-08-28T17:54:32Z</time>
  <course>247.83</course>
  <speed>0.0316227766016838</speed>
  <fix>3d</fix>
</trkpt>
<trkpt lat="40.0713749" lon="-105.229789">
  <ele>1583.0</ele>
  <time>2026-08-28T17:54:32Z</time>
  <course>0.0</course>
  <speed>0.0</speed>
  <fix>3d</fix>
</trkpt>
<trkpt lat="40.0713749" lon="-105.229789">
  <ele>1583.0</ele>
  <time>2026-08-28T17:54:32Z</time>
  <course>247.83</course>
  <speed>0.0316227766016838</speed>
  <fix>3d</fix>
</trkpt>
<trkpt lat="40.0713749" lon="-105.229789">
  <ele>1583.0</ele>
  <time>2026-08-28T17:54:32Z</time>
  <course>0.0</course>
  <speed>0.0</speed>
  <fix>3d</fix>
</trkpt>
<trkpt lat="40.0713749" lon="-105.229789">
  <ele>1583.0</ele>
  <time>2026-08-28T17:54:32Z</time>
  <course>247.83</course>
  <speed>0.0316227766016838</speed>
  <fix>3d</fix>
</trkpt>
<trkpt lat="40.0713749" lon="-105.229789">
  <ele>1583.0</ele>
  <time>2026-08-28T17:54:32Z</time>
  <course>0.0</course>
  <speed>0.0</speed>
  <fix>3d</fix>
</trkpt>
<trkpt lat="40.0713749" lon="-105.229789">
  <ele>1583.0</ele>
  <time>2026-08-28T17:54:32Z</time>
  <course>247.82</course>
  <speed>0.0316227766016838</speed>
  <fix>3d</fix>
</trkpt>
<trkpt lat="40.0713749" lon="-105.229789">
  <ele>1583.0</ele>
  <time>2026-08-28T17:54:32Z</time>
  <course>0.0</course>
  <speed>0.0</speed>
  <fix>3d</fix>
</trkpt>
<trkpt lat="40.0713749" lon="-105.229789">
  <ele>1583.0</ele>
  <time>2026-08-28T17:54:32Z</time>
  <course>247.82</course>
  <speed>0.0316227766016838</speed>
  <fix>3d</fix>
</trkpt>
<trkpt lat="40.0713749" lon="-105.229789">
  <ele>1583.0</ele>
  <time>2026-08-28T17:54:32Z</time>
  <course>0.0</course>
  <speed>0.0</speed>
  <fix>3d</fix>
</trkpt>
<trkpt lat="40.0713749" lon="-105.229789">
  <ele>1583.0</ele>
  <time>2026-08-28T17:54:32Z</time>
  <course>247.82</course>
  <speed>0.0316227766016838</speed>
  <fix>3d</fix>
</trkpt>
<trkpt lat="40.0713749" lon="-105.229789">
  <ele>1583.0</ele>
  <time>2026-08-28T17:54:32Z</time>
  <course>0.0</course>
  <speed>0.0</speed>
  <fix>3d</fix>
</trkpt>
<trkpt lat="40.0713749" lon="-105.229789">
  <ele>1583.0</ele>
  <time>2026-08-28T17:54:32Z</time>
  <course>247.81</course>
  <speed>0.0316227766016838</speed>
  <fix>3d</fix>
</trkpt>
<trkpt lat="40.0713749" lon="-105.229789">
  <ele>1583.0</ele>
  <time>2026-08-28T17:54:32Z</time>
  <course>0.0</course>
  <speed>0.0</speed>
  <fix>3d</fix>
</trkpt>
<trkpt lat="40.0713749" lon="-105.229789">
  <ele>1583.0</ele>
  <time>2026-08-28T17:54:32Z</time>
  <course>247.81</course>
  <speed>0.0316227766016838</speed>
  <fix>3d</fix>
</trkpt>
<trkpt lat="40.0713749" lon="-105.229789">
  <ele>1583.0</ele>
  <time>2026-08-28T17:54:32Z</time>
  <course>0.0</course>
  <speed>0.0</speed>
  <fix>3d</fix>
</trkpt>
<trkpt lat="40.0713749" lon="-105.229789">
  <ele>1583.0</ele>
  <time>2026-08-28T17:54:32Z</time>
  <course>247.8</course>
  <speed>0.0316227766016838</speed>
  <fix>3d</fix>
</trkpt>
<trkpt lat="40.0713749" lon="-105.229789">
  <ele>1583.0</ele>
  <time>2026-08-28T17:54:32Z</time>
  <course>0.0</course>
  <speed>0.0</speed>
  <fix>3d</fix>
</trkpt>
<trkpt lat="40.0713749" lon="-105.229789">
  <ele>1583.0</ele>
  <time>2026-08-28T17:54:32Z</time>
  <course>247.8</course>
  <speed>0.0316227766016838</speed>
  <fix>3d</fix>
</trkpt>
<trkpt lat="40.0713749" lon="-105.229789">
  <ele>1583.0</ele>
  <time>2026-08-28T17:54:32Z</time>
  <course>0.0</course>
  <speed>0.0</speed>
  <fix>3d</fix>
</trkpt>
<trkpt lat="40.0713749" lon="-105.229789">
  <ele>1583.0</ele>
  <time>2026-08-28T17:54:32Z</time>
  <course>247.8</course>
  <speed>0.0316227766016838</speed>
  <fix>3d</fix>
</trkpt>
<trkpt lat="40.0713749" lon="-105.229789">
  <ele>1583.0</ele>
  <time>2026-08-28T17:54:32Z</time>
  <course>0.0</course>
  <speed>0.0</speed>
  <fix>3d</fix>
</trkpt>
<trkpt lat="40.0713749" lon="-105.229789">
  <ele>1583.0</ele>
  <time>2026-08-28T17:54:32Z</time>
  <course>247.79</course>
  <speed>0.0316227766016838</speed>
  <fix>3d</fix>
</trkpt>
<trkpt lat="40.0713749" lon="-105.229789">
  <ele>1583.0</ele>
  <time>2026-08-28T17:54:32Z</time>
  <course>0.0</course>
  <speed>0.0</speed>
  <fix>3d</fix>
</trkpt>
<trkpt lat="40.0713749" lon="-105.229789">
  <ele>1583.0</ele>
  <time>2026-08-28T17:54:32Z</time>
  <course>247.79</course>
  <speed>0.0316227766016838</speed>
  <fix>3d</fix>
</trkpt>
<trkpt lat="40.0713749" lon="-105.229789">
  <ele>1583.0</ele>
  <time>2026-08-28T17:54:32Z</time>
  <course>0.0</course>
  <speed>0.0</speed>
  <fix>3d</fix>
</trkpt>
<trkpt lat="40.0713749" lon="-105.229789">
  <ele>1583.0</ele>
  <time>2026-08-28T17:54:32Z</time>
  <course>247.79</course>
  <speed>0.0316227766016838</speed>
  <fix>3d</fix>
</trkpt>
<trkpt lat="40.0713749" lon="-105.229789">
  <ele>1583.0</ele>
  <time>2026-08-28T17:54:32Z</time>
  <course>0.0</course>
  <speed>0.0</speed>
  <fix>3d</fix>
</trkpt>
<trkpt lat="40.0713749" lon="-105.229789">
  <ele>1583.0</ele>
  <time>2026-08-28T17:54:32Z</time>
  <course>247.78</course>
  <speed>0.0316227766016838</speed>
  <fix>3d</fix>
</trkpt>
<trkpt lat="40.0713749" lon="-105.229789">
  <ele>1583.0</ele>
  <time>2026-08-28T17:54:32Z</time>
  <course>0.0</course>
  <speed>0.0</speed>
  <fix>3d</fix>
</trkpt>
<trkpt lat="40.0713749" lon="-105.229789">
  <ele>1583.0</ele>
  <time>2026-08-28T17:54:32Z</time>
  <course>247.78</course>
  <speed>0.0316227766016838</speed>
  <fix>3d</fix>
</trkpt>
<trkpt lat="40.0713749" lon="-105.229789">
  <ele>1583.0</ele>
  <time>2026-08-28T17:54:32Z</time>
  <course>0.0</course>
  <speed>0.0</speed>
  <fix>3d</fix>
</trkpt>
<trkpt lat="40.0713749" lon="-105.229789">
  <ele>1583.0</ele>
  <time>2026-08-28T17:54:32Z</time>
  <course>247.78</course>
  <speed>0.0316227766016838</speed>
  <fix>3d</fix>
</trkpt>
<trkpt lat="40.0713749" lon="-105.229789">
  <ele>1583.0</ele>
  <time>2026-08-28T17:54:32Z</time>
  <course>0.0</course>
  <speed>0.0</speed>
  <fix>3d</fix>
</trkpt>
<trkpt lat="40.0713749" lon="-105.229789">
  <ele>1583.0</ele>
  <time>2026-08-28T17:54:32Z</time>
  <course>247.77</course>
  <speed>0.0316227766016838</speed>
  <fix>3d</fix>
</trkpt>
<trkpt lat="40.0713749" lon="-105.229789">
  <ele>1583.0</ele>
  <time>2026-08-28T17:54:32Z</time>
  <course>0.0</course>
  <speed>0.0</speed>
  <fix>3d</fix>
</trkpt>
<trkpt lat="40.0713749" lon="-105.229789">
  <ele>1583.0</ele>
  <time>2026-08-28T17:54:32Z</time>
  <course>247.77</course>
  <speed>0.0316227766016838</speed>
  <fix>3d</fix>
</trkpt>
<trkpt lat="40.0713749" lon="-105.229789">
  <ele>1583.0</ele>
  <time>2026-08-28T17:54:32Z</time>
  <course>0.0</course>
  <speed>0.0</speed>
  <fix>3d</fix>
</trkpt>
<trkpt lat="40.0713749" lon="-105.229789">
  <ele>1583.0</ele>
  <time>2026-08-28T17:54:32Z</time>
  <course>247.76</course>
  <speed>0.0316227766016838</speed>
  <fix>3d</fix>
</trkpt>
<trkpt lat="40.0713749" lon="-105.229789">
  <ele>1583.0</ele>
  <time>2026-08-28T17:54:32Z</time>
  <course>0.0</course>
  <speed>0.0</speed>
  <fix>3d</fix>
</trkpt>
<trkpt lat="40.0713749" lon="-105.229789">
  <ele>1583.0</ele>
  <time>2026-08-28T17:54:32Z</time>
  <course>247.76</course>
  <speed>0.0316227766016838</speed>
  <fix>3d</fix>
</trkpt>
<trkpt lat="40.0713749" lon="-105.229789">
  <ele>1583.0</ele>
  <time>2026-08-28T17:54:32Z</time>
  <course>0.0</course>
  <speed>0.0</speed>
  <fix>3d</fix>
</trkpt>
<trkpt lat="40.0713749" lon="-105.229789">
  <ele>1583.0</ele>
  <time>2026-08-28T17:54:32Z</time>
  <course>247.76</course>
  <speed>0.0316227766016838</speed>
  <fix>3d</fix>
</trkpt>
<trkpt lat="40.0713749" lon="-105.229789">
  <ele>1583.0</ele>
  <time>2026-08-28T17:54:32Z</time>
  <course>0.0</course>
  <speed>0.0</speed>
  <fix>3d</fix>
</trkpt>
<trkpt lat="40.0713749" lon="-105.229789">
  <ele>1583.0</ele>
  <time>2026-08-28T17:54:32Z</time>
  <course>247.75</course>
  <speed>0.0316227766016838</speed>
  <fix>3d</fix>
</trkpt>
<trkpt lat="40.0713749" lon="-105.229789">
  <ele>1583.0</ele>
  <time>2026-08-28T17:54:32Z</time>
  <course>0.0</course>
  <speed>0.0</speed>
  <fix>3d</fix>
</trkpt>
<trkpt lat="40.0713749" lon="-105.229789">
  <ele>1583.0</ele>
  <time>2026-08-28T17:54:32Z</time>
  <course>247.75</course>
  <speed>0.0316227766016838</speed>
  <fix>3d</fix>
</trkpt>
<trkpt lat="40.0713749" lon="-105.229789">
  <ele>1583.0</ele>
  <time>2026-08-28T17:54:32Z</time>
  <course>0.0</course>
  <speed>0.0</speed>
  <fix>3d</fix>
</trkpt>
<trkpt lat="40.0713749" lon="-105.229789">
  <ele>1583.0</ele>
  <time>2026-08-28T17:54:32Z</time>
  <course>247.75</course>
  <speed>0.0316227766016838</speed>
  <fix>3d</fix>
</trkpt>
<trkpt lat="40.0713749" lon="-105.229789">
  <ele>1583.0</ele>
  <time>2026-08-28T17:54:32Z</time>
  <course>0.0</course>
  <speed>0.0</speed>
  <fix>3d</fix>
</trkpt>
<trkpt lat="40.0713749" lon="-105.229789">
  <ele>1583.0</ele>
  <time>2026-08-28T17:54:32Z</time>
  <course>247.74</course>
  <speed>0.0316227766016838</speed>
  <fix>3d</fix>
</trkpt>
<trkpt lat="40.0713749" lon="-105.229789">
  <ele>1583.0</ele>
  <time>2026-08-28T17:54:32Z</time>
  <course>0.0</course>
  <speed>0.0</speed>
  <fix>3d</fix>
</trkpt>
<trkpt lat="40.0713749" lon="-105.229789">
  <ele>1583.0</ele>
  <time>2026-08-28T17:54:32Z</time>
  <course>247.74</course>
  <speed>0.0316227766016838</speed>
  <fix>3d</fix>
</trkpt>
<trkpt lat="40.0713749" lon="-105.229789">
  <ele>1583.0</ele>
  <time>2026-08-28T17:54:32Z</time>
  <course>0.0</course>
  <speed>0.0</speed>
  <fix>3d</fix>
</trkpt>
<trkpt lat="40.0713749" lon="-105.229789">
  <ele>1583.0</ele>
  <time>2026-08-28T17:54:32Z</time>
  <course>247.74</course>
  <speed>0.0316227766016838</speed>
  <fix>3d</fix>
</trkpt>
<trkpt lat="40.0713749" lon="-105.229789">
  <ele>1583.0</ele>
  <time>2026-08-28T17:54:32Z</time>
  <course>0.0</course>
  <speed>0.0</speed>
  <fix>3d</fix>
</trkpt>
<trkpt lat="40.0713749" lon="-105.229789">
  <ele>1583.0</ele>
  <time>2026-08-28T17:54:32Z</time>
  <course>247.73</course>
  <speed>0.0316227766016838</speed>
  <fix>3d</fix>
</trkpt>
<trkpt lat="40.0713749" lon="-105.229789">
  <ele>1583.0</ele>
  <time>2026-08-28T17:54:32Z</time>
  <course>0.0</course>
  <speed>0.0</speed>
  <fix>3d</fix>
</trkpt>
<trkpt lat="40.0713749" lon="-105.229789">
  <ele>1583.0</ele>
  <time>2026-08-28T17:54:32Z</time>
  <course>247.73</course>
  <speed>0.0316227766016838</speed>
  <fix>3d</fix>
</trkpt>
<trkpt lat="40.0713749" lon="-105.229789">
  <ele>1583.0</ele>
  <time>2026-08-28T17:54:32Z</time>
  <course>0.0</course>
  <speed>0.0</speed>
  <fix>3d</fix>
</trkpt>
<trkpt lat="40.0713749" lon="-105.229789">
  <ele>1583.0</ele>
  <time>2026-08-28T17:54:32Z</time>
  <course>247.73</course>
  <speed>0.0316227766016838</speed>
  <fix>3d</fix>
</trkpt>
<trkpt lat="40.0713749" lon="-105.229789">
  <ele>1583.0</ele>
  <time>2026-08-28T17:54:32Z</time>
  <course>0.0</course>
  <speed>0.0</speed>
  <fix>3d</fix>
</trkpt>
<trkpt lat="40.0713749" lon="-105.229789">
  <ele>1583.0</ele>
  <time>2026-08-28T17:54:32Z</time>
  <course>247.72</course>
  <speed>0.0316227766016838</speed>
  <fix>3d</fix>
</trkpt>
<trkpt lat="40.0713749" lon="-105.229789">
  <ele>1583.0</ele>
  <time>2026-08-28T17:54:32Z</time>
  <course>0.0</course>
  <speed>0.0</speed>
  <fix>3d</fix>
</trkpt>
<trkpt lat="40.0713749" lon="-105.229789">
  <ele>1583.0</ele>
  <time>2026-08-28T17:54:32Z</time>
  <course>247.72</course>
  <speed>0.0316227766016838</speed>
  <fix>3d</fix>
</trkpt>
<trkpt lat="40.0713749" lon="-105.229789">
  <ele>1583.0</ele>
  <time>2026-08-28T17:54:32Z</time>
  <course>0.0</course>
  <speed>0.0</speed>
  <fix>3d</fix>
</trkpt>
<trkpt lat="40.0713749" lon="-105.229789">
  <ele>1583.0</ele>
  <time>2026-08-28T17:54:32Z</time>
  <course>247.72</course>
  <speed>0.0316227766016838</speed>
  <fix>3d</fix>
</trkpt>
<trkpt lat="40.0713749" lon="-105.229789">
  <ele>1583.0</ele>
  <time>2026-08-28T17:54:32Z</time>
  <course>0.0</course>
  <speed>0.0</speed>
  <fix>3d</fix>
</trkpt>
<trkpt lat="40.0713749" lon="-105.229789">
  <ele>1583.0</ele>
  <time>2026-08-28T17:54:32Z</time>
  <course>247.71</course>
  <speed>0.0316227766016838</speed>
  <fix>3d</fix>
</trkpt>
<trkpt lat="40.0713749" lon="-105.229789">
  <ele>1583.0</ele>
  <time>2026-08-28T17:54:32Z</time>
  <course>0.0</course>
  <speed>0.0</speed>
  <fix>3d</fix>
</trkpt>
<trkpt lat="40.0713749" lon="-105.229789">
  <ele>1583.0</ele>
  <time>2026-08-28T17:54:32Z</time>
  <course>247.71</course>
  <speed>0.0316227766016838</speed>
  <fix>3d</fix>
</trkpt>
<trkpt lat="40.0713749" lon="-105.229789">
  <ele>1583.0</ele>
  <time>2026-08-28T17:54:32Z</time>
  <course>0.0</course>
  <speed>0.0</speed>
  <fix>3d</fix>
</trkpt>
<trkpt lat="40.0713749" lon="-105.229789">
  <ele>1583.0</ele>
  <time>2026-08-28T17:54:32Z</time>
  <course>247.71</course>
  <speed>0.0316227766016838</speed>
  <fix>3d</fix>
</trkpt>
<trkpt lat="40.0713749" lon="-105.229789">
  <ele>1583.0</ele>
  <time>2026-08-28T17:54:32Z</time>
  <course>0.0</course>
  <speed>0.0</speed>
  <fix>3d</fix>
</trkpt>
<trkpt lat="40.0713749" lon="-105.229789">
  <ele>1583.0</ele>
  <time>2026-08-28T17:54:32Z</time>
  <course>247.7</course>
  <speed>0.0316227766016838</speed>
  <fix>3d</fix>
</trkpt>
<trkpt lat="40.0713749" lon="-105.229789">
  <ele>1583.0</ele>
  <time>2026-08-28T17:54:32Z</time>
  <course>0.0</course>
  <speed>0.0</speed>
  <fix>3d</fix>
</trkpt>
<trkpt lat="40.0713749" lon="-105.229789">
  <ele>1583.0</ele>
  <time>2026-08-28T17:54:32Z</time>
  <course>247.7</course>
  <speed>0.0316227766016838</speed>
  <fix>3d</fix>
</trkpt>
<trkpt lat="40.0713749" lon="-105.229789">
  <ele>1583.0</ele>
  <time>2026-08-28T17:54:32Z</time>
  <course>0.0</course>
  <speed>0.0</speed>
  <fix>3d</fix>
</trkpt>
<trkpt lat="40.0713749" lon="-105.229789">
  <ele>1583.0</ele>
  <time>2026-08-28T17:54:32Z</time>
  <course>247.7</course>
  <speed>0.0316227766016838</speed>
  <fix>3d</fix>
</trkpt>
<trkpt lat="40.0713749" lon="-105.229789">
  <ele>1583.0</ele>
  <time>2026-08-28T17:54:32Z</time>
  <course>0.0</course>
  <speed>0.0</speed>
  <fix>3d</fix>
</trkpt>
<trkpt lat="40.0713749" lon="-105.229789">
  <ele>1583.0</ele>
  <time>2026-08-28T17:54:32Z</time>
  <course>247.69</course>
  <speed>0.0316227766016838</speed>
  <fix>3d</fix>
</trkpt>
<trkpt lat="40.0713749" lon="-105.229789">
  <ele>1583.0</ele>
  <time>2026-08-28T17:54:32Z</time>
  <course>0.0</course>
  <speed>0.0</speed>
  <fix>3d</fix>
</trkpt>
<trkpt lat="40.0713749" lon="-105.229789">
  <ele>1583.0</ele>
  <time>2026-08-28T17:54:32Z</time>
  <course>247.69</course>
  <speed>0.0316227766016838</speed>
  <fix>3d</fix>
</trkpt>
<trkpt lat="40.0713749" lon="-105.229789">
  <ele>1583.0</ele>
  <time>2026-08-28T17:54:32Z</time>
  <course>0.0</course>
  <speed>0.0</speed>
  <fix>3d</fix>
</trkpt>
<trkpt lat="40.0713749" lon="-105.229789">
  <ele>1583.0</ele>
  <time>2026-08-28T17:54:32Z</time>
  <course>247.69</course>
  <speed>0.0316227766016838</speed>
  <fix>3d</fix>
</trkpt>
<trkpt lat="40.0713749" lon="-105.229789">
  <ele>1583.0</ele>
  <time>2026-08-28T17:54:32Z</time>
  <course>0.0</course>
  <speed>0.0</speed>
  <fix>3d</fix>
</trkpt>
<trkpt lat="40.0713749" lon="-105.229789">
  <ele>1583.0</ele>
  <time>2026-08-28T17:54:32Z</time>
  <course>247.68</course>
  <speed>0.0316227766016838</speed>
  <fix>3d</fix>
</trkpt>
<trkpt lat="40.0713749" lon="-105.229789">
  <ele>1583.0</ele>
  <time>2026-08-28T17:54:32Z</time>
  <course>0.0</course>
  <speed>0.0</speed>
  <fix>3d</fix>
</trkpt>
<trkpt lat="40.0713749" lon="-105.229789">
  <ele>1583.0</ele>
  <time>2026-08-28T17:54:32Z</time>
  <course>247.68</course>
  <speed>0.0316227766016838</speed>
  <fix>3d</fix>
</trkpt>
<trkpt lat="40.0713749" lon="-105.229789">
  <ele>1583.0</ele>
  <time>2026-08-28T17:54:32Z</time>
  <course>0.0</course>
  <speed>0.0</speed>
  <fix>3d</fix>
</trkpt>
<trkpt lat="40.0713749" lon="-105.229789">
  <ele>1583.0</ele>
  <time>2026-08-28T17:54:32Z</time>
  <course>247.68</course>
  <speed>0.0316227766016838</speed>
  <fix>3d</fix>
</trkpt>
<trkpt lat="40.0713749" lon="-105.229789">
  <ele>1583.0</ele>
  <time>2026-08-28T17:54:32Z</time>
  <course>0.0</course>
  <speed>0.0</speed>
  <fix>3d</fix>
</trkpt>
<trkpt lat="40.0713749" lon="-105.229789">
  <ele>1583.0</ele>
  <time>2026-08-28T17:54:32Z</time>
  <course>247.67</course>
  <speed>0.0316227766016838</speed>
  <fix>3d</fix>
</trkpt>
<trkpt lat="40.0713749" lon="-105.229789">
  <ele>1583.0</ele>
  <time>2026-08-28T17:54:32Z</time>
  <course>0.0</course>
  <speed>0.0</speed>
  <fix>3d</fix>
</trkpt>
<trkpt lat="40.0713749" lon="-105.229789">
  <ele>1583.0</ele>
  <time>2026-08-28T17:54:32Z</time>
  <course>247.67</course>
  <speed>0.0316227766016838</speed>
  <fix>3d</fix>
</trkpt>
<trkpt lat="40.0713749" lon="-105.229789">
  <ele>1583.0</ele>
  <time>2026-08-28T17:54:32Z</time>
  <course>0.0</course>
  <speed>0.0</speed>
  <fix>3d</fix>
</trkpt>
<trkpt lat="40.0713749" lon="-105.229789">
  <ele>1583.0</ele>
  <time>2026-08-28T17:54:32Z</time>
  <course>247.67</course>
  <speed>0.0316227766016838</speed>
  <fix>3d</fix>
</trkpt>
<trkpt lat="40.0713749" lon="-105.229789">
  <ele>1583.0</ele>
  <time>2026-08-28T17:54:32Z</time>
  <course>0.0</course>
  <speed>0.0</speed>
  <fix>3d</fix>
</trkpt>
<trkpt lat="40.0713749" lon="-105.229789">
  <ele>1583.0</ele>
  <time>2026-08-28T17:54:32Z</time>
  <course>247.66</course>
  <speed>0.0316227766016838</speed>
  <fix>3d</fix>
</trkpt>
<trkpt lat="40.0713749" lon="-105.229789">
  <ele>1583.0</ele>
  <time>2026-08-28T17:54:32Z</time>
  <course>0.0</course>
  <speed>0.0</speed>
  <fix>3d</fix>
</trkpt>
<trkpt lat="40.0713749" lon="-105.229789">
  <ele>1583.0</ele>
  <time>2026-08-28T17:54:32Z</time>
  <course>247.66</course>
  <speed>0.0316227766016838</speed>
  <fix>3d</fix>
</trkpt>
<trkpt lat="40.0713749" lon="-105.229789">
  <ele>1583.0</ele>
  <time>2026-08-28T17:54:32Z</time>
  <course>0.0</course>
  <speed>0.0</speed>
  <fix>3d</fix>
</trkpt>
<trkpt lat="40.0713749" lon="-105.229789">
  <ele>1583.0</ele>
  <time>2026-08-28T17:54:32Z</time>
  <course>247.66</course>
  <speed>0.0316227766016838</speed>
  <fix>3d</fix>
</trkpt>
<trkpt lat="40.0713749" lon="-105.229789">
  <ele>1583.0</ele>
  <time>2026-08-28T17:54:32Z</time>
  <course>0.0</course>
  <speed>0.0</speed>
  <fix>3d</fix>
</trkpt>
<trkpt lat="40.0713749" lon="-105.229789">
  <ele>1583.0</ele>
  <time>2026-08-28T17:54:32Z</time>
  <course>247.65</course>
  <speed>0.0316227766016838</speed>
  <fix>3d</fix>
</trkpt>
<trkpt lat="40.0713749" lon="-105.229789">
  <ele>1583.0</ele>
  <time>2026-08-28T17:54:32Z</time>
  <course>0.0</course>
  <speed>0.0</speed>
  <fix>3d</fix>
</trkpt>
<trkpt lat="40.0713749" lon="-105.229789">
  <ele>1583.0</ele>
  <time>2026-08-28T17:54:32Z</time>
  <course>247.65</course>
  <speed>0.0316227766016838</speed>
  <fix>3d</fix>
</trkpt>
<trkpt lat="40.0713749" lon="-105.229789">
  <ele>1583.0</ele>
  <time>2026-08-28T17:54:32Z</time>
  <course>0.0</course>
  <speed>0.0</speed>
  <fix>3d</fix>
</trkpt>
<trkpt lat="40.0713749" lon="-105.229789">
  <ele>1583.0</ele>
  <time>2026-08-28T17:54:32Z</time>
  <course>247.65</course>
  <speed>0.0316227766016838</speed>
  <fix>3d</fix>
</trkpt>
<trkpt lat="40.0713749" lon="-105.229789">
  <ele>1583.0</ele>
  <time>2026-08-28T17:54:32Z</time>
  <course>0.0</course>
  <speed>0.0</speed>
  <fix>3d</fix>
</trkpt>
<trkpt lat="40.0713749" lon="-105.229789">
  <ele>1583.0</ele>
  <time>2026-08-28T17:54:32Z</time>
  <course>247.64</course>
  <speed>0.0316227766016838</speed>
  <fix>3d</fix>
</trkpt>
<trkpt lat="40.0713749" lon="-105.229789">
  <ele>1583.0</ele>
  <time>2026-08-28T17:54:32Z</time>
  <course>0.0</course>
  <speed>0.0</speed>
  <fix>3d</fix>
</trkpt>
<trkpt lat="40.0713749" lon="-105.229789">
  <ele>1583.0</ele>
  <time>2026-08-28T17:54:32Z</time>
  <course>247.64</course>
  <speed>0.0316227766016838</speed>
  <fix>3d</fix>
</trkpt>
<trkpt lat="40.0713749" lon="-105.229789">
  <ele>1583.0</ele>
  <time>2026-08-28T17:54:32Z</time>
  <course>0.0</course>
  <speed>0.0</speed>
  <fix>3d</fix>
</trkpt>
<trkpt lat="40.0713749" lon="-105.229789">
  <ele>1583.0</ele>
  <time>2026-08-28T17:54:32Z</time>
  <course>247.64</course>
  <speed>0.0316227766016838</speed>
  <fix>3d</fix>
</trkpt>
<trkpt lat="40.0713749" lon="-105.229789">
  <ele>1583.0</ele>
  <time>2026-08-28T17:54:32Z</time>
  <course>0.0</course>
  <speed>0.0</speed>
  <fix>3d</fix>
</trkpt>
<trkpt lat="40.0713749" lon="-105.229789">
  <ele>1583.0</ele>
  <time>2026-08-28T17:54:32Z</time>
  <course>247.64</course>
  <speed>0.0316227766016838</speed>
  <fix>3d</fix>
</trkpt>
<trkpt lat="40.0713749" lon="-105.229789">
  <ele>1583.0</ele>
  <time>2026-08-28T17:54:32Z</time>
  <course>0.0</course>
  <speed>0.0</speed>
  <fix>3d</fix>
</trkpt>
<trkpt lat="40.0713749" lon="-105.229789">
  <ele>1583.0</ele>
  <time>2026-08-28T17:54:32Z</time>
  <course>247.63</course>
  <speed>0.0316227766016838</speed>
  <fix>3d</fix>
</trkpt>
<trkpt lat="40.0713749" lon="-105.229789">
  <ele>1583.0</ele>
  <time>2026-08-28T17:54:32Z</time>
  <course>0.0</course>
  <speed>0.0</speed>
  <fix>3d</fix>
</trkpt>
<trkpt lat="40.0713749" lon="-105.229789">
  <ele>1583.0</ele>
  <time>2026-08-28T17:54:32Z</time>
  <course>247.63</course>
  <speed>0.0316227766016838</speed>
  <fix>3d</fix>
</trkpt>
<trkpt lat="40.0713749" lon="-105.229789">
  <ele>1583.0</ele>
  <time>2026-08-28T17:54:32Z</time>
  <course>0.0</course>
  <speed>0.0</speed>
  <fix>3d</fix>
</trkpt>
<trkpt lat="40.0713749" lon="-105.229789">
  <ele>1583.0</ele>
  <time>2026-08-28T17:54:32Z</time>
  <course>247.63</course>
  <speed>0.0316227766016838</speed>
  <fix>3d</fix>
</trkpt>
<trkpt lat="40.0713749" lon="-105.229789">
  <ele>1583.0</ele>
  <time>2026-08-28T17:54:32Z</time>
  <course>0.0</course>
  <speed>0.0</speed>
  <fix>3d</fix>
</trkpt>
<trkpt lat="40.0713749" lon="-105.229789">
  <ele>1583.0</ele>
  <time>2026-08-28T17:54:32Z</time>
  <course>247.62</course>
  <speed>0.0316227766016838</speed>
  <fix>3d</fix>
</trkpt>
<trkpt lat="40.0713749" lon="-105.229789">
  <ele>1583.0</ele>
  <time>2026-08-28T17:54:32Z</time>
  <course>0.0</course>
  <speed>0.0</speed>
  <fix>3d</fix>
</trkpt>
<trkpt lat="40.0713749" lon="-105.229789">
  <ele>1583.0</ele>
  <time>2026-08-28T17:54:32Z</time>
  <course>247.62</course>
  <speed>0.0316227766016838</speed>
  <fix>3d</fix>
</trkpt>
<trkpt lat="40.0713749" lon="-105.229789">
  <ele>1583.0</ele>
  <time>2026-08-28T17:54:32Z</time>
  <course>0.0</course>
  <speed>0.0</speed>
  <fix>3d</fix>
</trkpt>
<trkpt lat="40.0713749" lon="-105.229789">
  <ele>1583.0</ele>
  <time>2026-08-28T17:54:32Z</time>
  <course>247.62</course>
  <speed>0.0316227766016838</speed>
  <fix>3d</fix>
</trkpt>
<trkpt lat="40.0713749" lon="-105.229789">
  <ele>1583.0</ele>
  <time>2026-08-28T17:54:32Z</time>
  <course>0.0</course>
  <speed>0.0</speed>
  <fix>3d</fix>
</trkpt>
<trkpt lat="40.0713749" lon="-105.229789">
  <ele>1583.0</ele>
  <time>2026-08-28T17:54:32Z</time>
  <course>247.62</course>
  <speed>0.0316227766016838</speed>
  <fix>3d</fix>
</trkpt>
<trkpt lat="40.0713749" lon="-105.229789">
  <ele>1583.0</ele>
  <time>2026-08-28T17:54:32Z</time>
  <course>0.0</course>
  <speed>0.0</speed>
  <fix>3d</fix>
</trkpt>
<trkpt lat="40.0713749" lon="-105.229789">
  <ele>1583.0</ele>
  <time>2026-08-28T17:54:32Z</time>
  <course>247.61</course>
  <speed>0.0316227766016838</speed>
  <fix>3d</fix>
</trkpt>
<trkpt lat="40.0713749" lon="-105.229789">
  <ele>1583.0</ele>
  <time>2026-08-28T17:54:32Z</time>
  <course>0.0</course>
  <speed>0.0</speed>
  <fix>3d</fix>
</trkpt>
<trkpt lat="40.0713749" lon="-105.229789">
  <ele>1583.0</ele>
  <time>2026-08-28T17:54:32Z</time>
  <course>247.61</course>
  <speed>0.0316227766016838</speed>
  <fix>3d</fix>
</trkpt>
<trkpt lat="40.0713749" lon="-105.229789">
  <ele>1583.0</ele>
  <time>2026-08-28T17:54:32Z</time>
  <course>0.0</course>
  <speed>0.0</speed>
  <fix>3d</fix>
</trkpt>
<trkpt lat="40.0713749" lon="-105.229789">
  <ele>1583.0</ele>
  <time>2026-08-28T17:54:32Z</time>
  <course>247.61</course>
  <speed>0.0316227766016838</speed>
  <fix>3d</fix>
</trkpt>
<trkpt lat="40.0713749" lon="-105.229789">
  <ele>1583.0</ele>
  <time>2026-08-28T17:54:32Z</time>
  <course>0.0</course>
  <speed>0.0</speed>
  <fix>3d</fix>
</trkpt>
<trkpt lat="40.0713749" lon="-105.229789">
  <ele>1583.0</ele>
  <time>2026-08-28T17:54:32Z</time>
  <course>247.6</course>
  <speed>0.0316227766016838</speed>
  <fix>3d</fix>
</trkpt>
<trkpt lat="40.0713749" lon="-105.229789">
  <ele>1583.0</ele>
  <time>2026-08-28T17:54:32Z</time>
  <course>0.0</course>
  <speed>0.0</speed>
  <fix>3d</fix>
</trkpt>
<trkpt lat="40.0713749" lon="-105.229789">
  <ele>1583.0</ele>
  <time>2026-08-28T17:54:32Z</time>
  <course>247.6</course>
  <speed>0.0316227766016838</speed>
  <fix>3d</fix>
</trkpt>
<trkpt lat="40.0713749" lon="-105.229789">
  <ele>1583.0</ele>
  <time>2026-08-28T17:54:32Z</time>
  <course>0.0</course>
  <speed>0.0</speed>
  <fix>3d</fix>
</trkpt>
<trkpt lat="40.0713749" lon="-105.229789">
  <ele>1583.0</ele>
  <time>2026-08-28T17:54:32Z</time>
  <course>247.6</course>
  <speed>0.0316227766016838</speed>
  <fix>3d</fix>
</trkpt>
<trkpt lat="40.0713749" lon="-105.229789">
  <ele>1583.0</ele>
  <time>2026-08-28T17:54:32Z</time>
  <course>0.0</course>
  <speed>0.0</speed>
  <fix>3d</fix>
</trkpt>
<trkpt lat="40.0713749" lon="-105.229789">
  <ele>1583.0</ele>
  <time>2026-08-28T17:54:32Z</time>
  <course>247.6</course>
  <speed>0.0316227766016838</speed>
  <fix>3d</fix>
</trkpt>
<trkpt lat="40.0713749" lon="-105.229789">
  <ele>1583.0</ele>
  <time>2026-08-28T17:54:32Z</time>
  <course>0.0</course>
  <speed>0.0</speed>
  <fix>3d</fix>
</trkpt>
<trkpt lat="40.0713749" lon="-105.229789">
  <ele>1583.0</ele>
  <time>2026-08-28T17:54:32Z</time>
  <course>247.59</course>
  <speed>0.0316227766016838</speed>
  <fix>3d</fix>
</trkpt>
<trkpt lat="40.0713749" lon="-105.229789">
  <ele>1583.0</ele>
  <time>2026-08-28T17:54:32Z</time>
  <course>0.0</course>
  <speed>0.0</speed>
  <fix>3d</fix>
</trkpt>
<trkpt lat="40.0713749" lon="-105.229789">
  <ele>1582.92</ele>
  <time>2026-08-28T17:54:32Z</time>
  <course>247.59</course>
  <speed>0.0</speed>
  <fix>3d</fix>
</trkpt>
<trkpt lat="40.0713749" lon="-105.229789">
  <ele>1583.0</ele>
  <time>2026-08-28T17:54:32Z</time>
  <course>0.0</course>
  <speed>0.0</speed>
  <fix>3d</fix>
</trkpt>
<trkpt lat="40.0713749" lon="-105.229789">
  <ele>1582.92</ele>
  <time>2026-08-28T17:54:32Z</time>
  <course>247.59</course>
  <speed>0.0</speed>
  <fix>3d</fix>
</trkpt>
<trkpt lat="40.0713749" lon="-105.229789">
  <ele>1583.0</ele>
  <time>2026-08-28T17:54:32Z</time>
  <course>0.0</course>
  <speed>0.0</speed>
  <fix>3d</fix>
</trkpt>
<trkpt lat="40.0713749" lon="-105.229789">
  <ele>1582.91</ele>
  <time>2026-08-28T17:54:32Z</time>
  <course>247.58</course>
  <speed>0.0</speed>
  <fix>3d</fix>
</trkpt>
<trkpt lat="40.0713749" lon="-105.229789">
  <ele>1583.0</ele>
  <time>2026-08-28T17:54:32Z</time>
  <course>0.0</course>
  <speed>0.0</speed>
  <fix>3d</fix>
</trkpt>
<trkpt lat="40.0713749" lon="-105.229789">
  <ele>1582.91</ele>
  <time>2026-08-28T17:54:32Z</time>
  <course>247.58</course>
  <speed>0.0</speed>
  <fix>3d</fix>
</trkpt>
<trkpt lat="40.0713749" lon="-105.229789">
  <ele>1583.0</ele>
  <time>2026-08-28T17:54:32Z</time>
  <course>0.0</course>
  <speed>0.0</speed>
  <fix>3d</fix>
</trkpt>
<trkpt lat="40.0713749" lon="-105.229789">
  <ele>1582.9</ele>
  <time>2026-08-28T17:54:32Z</time>
  <course>247.58</course>
  <speed>0.0</speed>
  <fix>3d</fix>
</trkpt>
<trkpt lat="40.0713749" lon="-105.229789">
  <ele>1583.0</ele>
  <time>2026-08-28T17:54:32Z</time>
  <course>0.0</course>
  <speed>0.0</speed>
  <fix>3d</fix>
</trkpt>
<trkpt lat="40.0713749" lon="-105.229789">
  <ele>1582.9</ele>
  <time>2026-08-28T17:54:32Z</time>
  <course>247.58</course>
  <speed>0.0</speed>
  <fix>3d</fix>
</trkpt>
<trkpt lat="40.0713749" lon="-105.229789">
  <ele>1583.0</ele>
  <time>2026-08-28T17:54:32Z</time>
  <course>0.0</course>
  <speed>0.0</speed>
  <fix>3d</fix>
</trkpt>
<trkpt lat="40.0713749" lon="-105.229789">
  <ele>1582.9</ele>
  <time>2026-08-28T17:54:32Z</time>
  <course>247.57</course>
  <speed>0.0</speed>
  <fix>3d</fix>
</trkpt>
<trkpt lat="40.0713749" lon="-105.229789">
  <ele>1583.0</ele>
  <time>2026-08-28T17:54:32Z</time>
  <course>0.0</course>
  <speed>0.0</speed>
  <fix>3d</fix>
</trkpt>
<trkpt lat="40.0713749" lon="-105.229789">
  <ele>1582.9</ele>
  <time>2026-08-28T17:54:32Z</time>
  <course>247.57</course>
  <speed>0.0</speed>
  <fix>3d</fix>
</trkpt>
<trkpt lat="40.0713749" lon="-105.229789">
  <ele>1583.0</ele>
  <time>2026-08-28T17:54:32Z</time>
  <course>0.0</course>
  <speed>0.0</speed>
  <fix>3d</fix>
</trkpt>
<trkpt lat="40.0713749" lon="-105.229789">
  <ele>1582.9</ele>
  <time>2026-08-28T17:54:32Z</time>
  <course>247.57</course>
  <speed>0.0</speed>
  <fix>3d</fix>
</trkpt>
<trkpt lat="40.0713749" lon="-105.229789">
  <ele>1583.0</ele>
  <time>2026-08-28T17:54:32Z</time>
  <course>0.0</course>
  <speed>0.0</speed>
  <fix>3d</fix>
</trkpt>
<trkpt lat="40.0713749" lon="-105.229789">
  <ele>1582.9</ele>
  <time>2026-08-28T17:54:32Z</time>
  <course>247.57</course>
  <speed>0.01</speed>
  <fix>3d</fix>
</trkpt>
<trkpt lat="40.0713749" lon="-105.229789">
  <ele>1583.0</ele>
  <time>2026-08-28T17:54:32Z</time>
  <course>0.0</course>
  <speed>0.0</speed>
  <fix>3d</fix>
</trkpt>
<trkpt lat="40.0713749" lon="-105.229789">
  <ele>1582.9</ele>
  <time>2026-08-28T17:54:32Z</time>
  <course>247.56</course>
  <speed>0.01</speed>
  <fix>3d</fix>
</trkpt>
<trkpt lat="40.0713749" lon="-105.229789">
  <ele>1583.0</ele>
  <time>2026-08-28T17:54:32Z</time>
  <course>0.0</course>
  <speed>0.0</speed>
  <fix>3d</fix>
</trkpt>
<trkpt lat="40.0713749" lon="-105.229789">
  <ele>1582.91</ele>
  <time>2026-08-28T17:54:32Z</time>
  <course>247.56</course>
  <speed>0.01</speed>
  <fix>3d</fix>
</trkpt>
<trkpt lat="40.0713749" lon="-105.229789">
  <ele>1583.0</ele>
  <time>2026-08-28T17:54:32Z</time>
  <course>0.0</course>
  <speed>0.0</speed>
  <fix>3d</fix>
</trkpt>
<trkpt lat="40.0713749" lon="-105.229789">
  <ele>1582.91</ele>
  <time>2026-08-28T17:54:32Z</time>
  <course>247.56</course>
  <speed>0.01</speed>
  <fix>3d</fix>
</trkpt>
<trkpt lat="40.0713749" lon="-105.229789">
  <ele>1583.0</ele>
  <time>2026-08-28T17:54:32Z</time>
  <course>0.0</course>
  <speed>0.0</speed>
  <fix>3d</fix>
</trkpt>
<trkpt lat="40.0713749" lon="-105.229789">
  <ele>1582.92</ele>
  <time>2026-08-28T17:54:32Z</time>
  <course>247.56</course>
  <speed>0.01</speed>
  <fix>3d</fix>
</trkpt>
<trkpt lat="40.0713749" lon="-105.229789">
  <ele>1583.0</ele>
  <time>2026-08-28T17:54:32Z</time>
  <course>0.0</course>
  <speed>0.0</speed>
  <fix>3d</fix>
</trkpt>
<trkpt lat="40.0713749" lon="-105.229789">
  <ele>1582.92</ele>
  <time>2026-08-28T17:54:32Z</time>
  <course>247.55</course>
  <speed>0.01</speed>
  <fix>3d</fix>
</trkpt>
<trkpt lat="40.0713749" lon="-105.229789">
  <ele>1583.0</ele>
  <time>2026-08-28T17:54:32Z</time>
  <course>0.0</course>
  <speed>0.0</speed>
  <fix>3d</fix>
</trkpt>
<trkpt lat="40.0713749" lon="-105.229789">
  <ele>1582.92</ele>
  <time>2026-08-28T17:54:32Z</time>
  <course>247.55</course>
  <speed>0.01</speed>
  <fix>3d</fix>
</trkpt>
<trkpt lat="40.0713749" lon="-105.229789">
  <ele>1583.0</ele>
  <time>2026-08-28T17:54:32Z</time>
  <course>0.0</course>
  <speed>0.0</speed>
  <fix>3d</fix>
</trkpt>
<trkpt lat="40.0713749" lon="-105.229789">
  <ele>1582.93</ele>
  <time>2026-08-28T17:54:32Z</time>
  <course>247.55</course>
  <speed>0.01</speed>
  <fix>3d</fix>
</trkpt>
<trkpt lat="40.0713749" lon="-105.229789">
  <ele>1583.0</ele>
  <time>2026-08-28T17:54:32Z</time>
  <course>0.0</course>
  <speed>0.0</speed>
  <fix>3d</fix>
</trkpt>
<trkpt lat="40.0713749" lon="-105.229789">
  <ele>1582.93</ele>
  <time>2026-08-28T17:54:32Z</time>
  <course>247.55</course>
  <speed>0.01</speed>
  <fix>3d</fix>
</trkpt>
<trkpt lat="40.0713749" lon="-105.229789">
  <ele>1583.0</ele>
  <time>2026-08-28T17:54:32Z</time>
  <course>0.0</course>
  <speed>0.0</speed>
  <fix>3d</fix>
</trkpt>
<trkpt lat="40.0713749" lon="-105.229789">
  <ele>1582.93</ele>
  <time>2026-08-28T17:54:32Z</time>
  <course>247.54</course>
  <speed>0.01</speed>
  <fix>3d</fix>
</trkpt>
<trkpt lat="40.0713749" lon="-105.229789">
  <ele>1583.0</ele>
  <time>2026-08-28T17:54:32Z</time>
  <course>0.0</course>
  <speed>0.0</speed>
  <fix>3d</fix>
</trkpt>
<trkpt lat="40.0713749" lon="-105.229789">
  <ele>1582.93</ele>
  <time>2026-08-28T17:54:32Z</time>
  <course>247.54</course>
  <speed>0.01</speed>
  <fix>3d</fix>
</trkpt>
<trkpt lat="40.0713749" lon="-105.229789">
  <ele>1583.0</ele>
  <time>2026-08-28T17:54:32Z</time>
  <course>0.0</course>
  <speed>0.0</speed>
  <fix>3d</fix>
</trkpt>
<trkpt lat="40.0713749" lon="-105.229789">
  <ele>1582.94</ele>
  <time>2026-08-28T17:54:32Z</time>
  <course>247.54</course>
  <speed>0.01</speed>
  <fix>3d</fix>
</trkpt>
<trkpt lat="40.0713749" lon="-105.229789">
  <ele>1583.0</ele>
  <time>2026-08-28T17:54:32Z</time>
  <course>0.0</course>
  <speed>0.0</speed>
  <fix>3d</fix>
</trkpt>
<trkpt lat="40.0713749" lon="-105.229789">
  <ele>1582.94</ele>
  <time>2026-08-28T17:54:32Z</time>
  <course>247.54</course>
  <speed>0.02</speed>
  <fix>3d</fix>
</trkpt>
<trkpt lat="40.0713749" lon="-105.229789">
  <ele>1583.0</ele>
  <time>2026-08-28T17:54:32Z</time>
  <course>0.0</course>
  <speed>0.0</speed>
  <fix>3d</fix>
</trkpt>
<trkpt lat="40.0713749" lon="-105.229789">
  <ele>1582.94</ele>
  <time>2026-08-28T17:54:32Z</time>
  <course>247.53</course>
  <speed>0.01</speed>
  <fix>3d</fix>
</trkpt>
<trkpt lat="40.0713749" lon="-105.229789">
  <ele>1583.0</ele>
  <time>2026-08-28T17:54:32Z</time>
  <course>0.0</course>
  <speed>0.0</speed>
  <fix>3d</fix>
</trkpt>
<trkpt lat="40.0713749" lon="-105.229789">
  <ele>1582.95</ele>
  <time>2026-08-28T17:54:32Z</time>
  <course>247.53</course>
  <speed>0.01</speed>
  <fix>3d</fix>
</trkpt>
<trkpt lat="40.0713749" lon="-105.229789">
  <ele>1582.95</ele>
  <time>2026-08-28T17:54:32Z</time>
  <course>247.53</course>
  <speed>0.01</speed>
  <fix>3d</fix>
</trkpt>
<trkpt lat="40.0713749" lon="-105.229789">
  <ele>1583.0</ele>
  <time>2026-08-28T17:54:32Z</time>
  <course>0.0</course>
  <speed>0.0</speed>
  <fix>3d</fix>
</trkpt>
<trkpt lat="40.0713749" lon="-105.229789">
  <ele>1582.95</ele>
  <time>2026-08-28T17:54:32Z</time>
  <course>247.53</course>
  <speed>0.01</speed>
  <fix>3d</fix>
</trkpt>
<trkpt lat="40.0713749" lon="-105.229789">
  <ele>1582.95</ele>
  <time>2026-08-28T17:54:32Z</time>
  <course>247.53</course>
  <speed>0.01</speed>
  <fix>3d</fix>
</trkpt>
<trkpt lat="40.0713749" lon="-105.229789">
  <ele>1582.95</ele>
  <time>2026-08-28T17:54:32Z</time>
  <course>247.53</course>
  <speed>0.01</speed>
  <fix>3d</fix>
</trkpt>
<trkpt lat="40.0713749" lon="-105.229789">
  <ele>1583.0</ele>
  <time>2026-08-28T17:54:32Z</time>
  <course>0.0</course>
  <speed>0.0</speed>
  <fix>3d</fix>
</trkpt>
<trkpt lat="40.0713749" lon="-105.229789">
  <ele>1582.95</ele>
  <time>2026-08-28T17:54:32Z</time>
  <course>247.52</course>
  <speed>0.01</speed>
  <fix>3d</fix>
</trkpt>
<trkpt lat="40.0713749" lon="-105.229789">
  <ele>1582.95</ele>
  <time>2026-08-28T17:54:32Z</time>
  <course>247.52</course>
  <speed>0.01</speed>
  <fix>3d</fix>
</trkpt>
<trkpt lat="40.0713749" lon="-105.229789">
  <ele>1582.95</ele>
  <time>2026-08-28T17:54:32Z</time>
  <course>247.52</course>
  <speed>0.01</speed>
  <fix>3d</fix>
</trkpt>
<trkpt lat="40.0713749" lon="-105.229789">
  <ele>1583.0</ele>
  <time>2026-08-28T17:54:32Z</time>
  <course>245.99</course>
  <speed>0.0</speed>
  <fix>3d</fix>
</trkpt>
<trkpt lat="40.0713749" lon="-105.229789">
  <ele>1582.96</ele>
  <time>2026-08-28T17:54:32Z</time>
  <course>247.51</course>
  <speed>0.01</speed>
  <fix>3d</fix>
</trkpt>
<trkpt lat="40.0713749" lon="-105.229789">
  <ele>1582.96</ele>
  <time>2026-08-28T17:54:32Z</time>
  <course>247.52</course>
  <speed>0.01414213562373095</speed>
  <fix>3d</fix>
</trkpt>
<trkpt lat="40.0713749" lon="-105.229789">
  <ele>1582.96</ele>
  <time>2026-08-28T17:54:32Z</time>
  <course>247.52</course>
  <speed>0.01414213562373095</speed>
  <fix>3d</fix>
</trkpt>
<trkpt lat="40.0713749" lon="-105.229789">
  <ele>1583.0</ele>
  <time>2026-08-28T17:54:32Z</time>
  <course>245.99</course>
  <speed>0.0</speed>
  <fix>3d</fix>
</trkpt>
<trkpt lat="40.0713749" lon="-105.229789">
  <ele>1582.96</ele>
  <time>2026-08-28T17:54:32Z</time>
  <course>247.53</course>
  <speed>0.01</speed>
  <fix>3d</fix>
</trkpt>
<trkpt lat="40.0713749" lon="-105.229789">
  <ele>1582.96</ele>
  <time>2026-08-28T17:54:32Z</time>
  <course>247.55</course>
  <speed>0.01</speed>
  <fix>3d</fix>
</trkpt>
<trkpt lat="40.0713749" lon="-105.229789">
  <ele>1582.96</ele>
  <time>2026-08-28T17:54:32Z</time>
  <course>247.56</course>
  <speed>0.01</speed>
  <fix>3d</fix>
</trkpt>
<trkpt lat="40.0713749" lon="-105.229789">
  <ele>1582.96</ele>
  <time>2026-08-28T17:54:32Z</time>
  <course>247.58</course>
  <speed>0.02</speed>
  <fix>3d</fix>
</trkpt>
<trkpt lat="40.0713749" lon="-105.229789">
  <ele>1582.96</ele>
  <time>2026-08-28T17:54:32Z</time>
  <course>247.58</course>
  <speed>0.02</speed>
  <fix>3d</fix>
</trkpt>
<trkpt lat="40.0713749" lon="-105.229789">
  <ele>1583.0</ele>
  <time>2026-08-28T17:54:32Z</time>
  <course>246.04</course>
  <speed>0.02</speed>
  <fix>3d</fix>
</trkpt>
<trkpt lat="40.0713749" lon="-105.229789">
  <ele>1582.96</ele>
  <time>2026-08-28T17:54:32Z</time>
  <course>247.68</course>
  <speed>0.03</speed>
  <fix>3d</fix>
</trkpt>
<trkpt lat="40.0713749" lon="-105.229789">
  <ele>1582.96</ele>
  <time>2026-08-28T17:54:32Z</time>
  <course>247.72</course>
  <speed>0.04</speed>
  <fix>3d</fix>
</trkpt>
<trkpt lat="40.0713749" lon="-105.229789">
  <ele>1582.96</ele>
  <time>2026-08-28T17:54:32Z</time>
  <course>247.72</course>
  <speed>0.04</speed>
  <fix>3d</fix>
</trkpt>
<trkpt lat="40.0713749" lon="-105.229789">
  <ele>1583.0</ele>
  <time>2026-08-28T17:54:32Z</time>
  <course>246.04</course>
  <speed>0.02</speed>
  <fix>3d</fix>
</trkpt>
<trkpt lat="40.0713749" lon="-105.2297891">
  <ele>1582.96</ele>
  <time>2026-08-28T17:54:32Z</time>
  <course>247.91</course>
  <speed>0.06082762530298219</speed>
  <fix>3d</fix>
</trkpt>
<trkpt lat="40.0713749" lon="-105.2297891">
  <ele>1582.96</ele>
  <time>2026-08-28T17:54:32Z</time>
  <course>247.98</course>
  <speed>0.06082762530298219</speed>
  <fix>3d</fix>
</trkpt>
<trkpt lat="40.0713749" lon="-105.2297891">
  <ele>1582.96</ele>
  <time>2026-08-28T17:54:32Z</time>
  <course>247.98</course>
  <speed>0.06082762530298219</speed>
  <fix>3d</fix>
</trkpt>
<trkpt lat="40.0713749" lon="-105.229789">
  <ele>1583.0</ele>
  <time>2026-08-28T17:54:32Z</time>
  <course>246.34</course>
  <speed>0.05</speed>
  <fix>3d</fix>
</trkpt>
<trkpt lat="40.0713749" lon="-105.2297892">
  <ele>1582.96</ele>
  <time>2026-08-28T17:54:32Z</time>
  <course>248.34</course>
  <speed>0.09219544457292887</speed>
  <fix>3d</fix>
</trkpt>
<trkpt lat="40.0713749" lon="-105.2297892">
  <ele>1582.96</ele>
  <time>2026-08-28T17:54:32Z</time>
  <course>248.45</course>
  <speed>0.1019803902718557</speed>
  <fix>3d</fix>
</trkpt>
<trkpt lat="40.0713749" lon="-105.2297892">
  <ele>1582.96</ele>
  <time>2026-08-28T17:54:32Z</time>
  <course>248.45</course>
  <speed>0.1019803902718557</speed>
  <fix>3d</fix>
</trkpt>
<trkpt lat="40.0713749" lon="-105.229789">
  <ele>1583.0</ele>
  <time>2026-08-28T17:54:32Z</time>
  <course>246.34</course>
  <speed>0.05</speed>
  <fix>3d</fix>
</trkpt>
<trkpt lat="40.0713749" lon="-105.2297893">
  <ele>1582.96</ele>
  <time>2026-08-28T17:54:32Z</time>
  <course>248.88</course>
  <speed>0.12369316876852982</speed>
  <fix>3d</fix>
</trkpt>
<trkpt lat="40.0713749" lon="-105.2297893">
  <ele>1582.96</ele>
  <time>2026-08-28T17:54:32Z</time>
  <course>249.24</course>
  <speed>0.14560219778561037</speed>
  <fix>3d</fix>
</trkpt>
<trkpt lat="40.0713749" lon="-105.2297893">
  <ele>1582.96</ele>
  <time>2026-08-28T17:54:32Z</time>
  <course>249.24</course>
  <speed>0.14560219778561037</speed>
  <fix>3d</fix>
</trkpt>
<trkpt lat="40.0713749" lon="-105.2297892">
  <ele>1583.0</ele>
  <time>2026-08-28T17:54:32Z</time>
  <course>247.3</course>
  <speed>0.11</speed>
  <fix>3d</fix>
</trkpt>
<trkpt lat="40.0713748" lon="-105.2297895">
  <ele>1582.96</ele>
  <time>2026-08-28T17:54:32Z</time>
  <course>250.14</course>
  <speed>0.18681541692269404</speed>
  <fix>3d</fix>
</trkpt>
<trkpt lat="40.0713748" lon="-105.2297895">
  <ele>1582.95</ele>
  <time>2026-08-28T17:54:32Z</time>
  <course>250.4</course>
  <speed>0.196468827043885</speed>
  <fix>3d</fix>
</trkpt>
<trkpt lat="40.0713748" lon="-105.2297895">
  <ele>1582.95</ele>
  <time>2026-08-28T17:54:32Z</time>
  <course>250.4</course>
  <speed>0.196468827043885</speed>
  <fix>3d</fix>
</trkpt>
<trkpt lat="40.0713749" lon="-105.2297892">
  <ele>1583.0</ele>
  <time>2026-08-28T17:54:32Z</time>
  <course>247.3</course>
  <speed>0.11</speed>
  <fix>3d</fix>
</trkpt>
<trkpt lat="40.0713748" lon="-105.2297898">
  <ele>1582.95</ele>
  <time>2026-08-28T17:54:32Z</time>
  <course>251.61</course>
  <speed>0.25</speed>
  <fix>3d</fix>
</trkpt>
<trkpt lat="40.0713748" lon="-105.2297898">
  <ele>1582.95</ele>
  <time>2026-08-28T17:54:32Z</time>
  <course>251.95</course>
  <speed>0.2692582403567252</speed>
  <fix>3d</fix>
</trkpt>
<trkpt lat="40.0713748" lon="-105.2297896">
  <ele>1583.0</ele>
  <time>2026-08-28T17:54:32Z</time>
  <course>249.46</course>
  <speed>0.21</speed>
  <fix>3d</fix>
</trkpt>
<trkpt lat="40.0713747" lon="-105.2297899">
  <ele>1582.95</ele>
  <time>2026-08-28T17:54:32Z</time>
  <course>252.32</course>
  <speed>0.27892651361962706</speed>
  <fix>3d</fix>
</trkpt>
<trkpt lat="40.0713747" lon="-105.2297901">
  <ele>1582.95</ele>
  <time>2026-08-28T17:54:32Z</time>
  <course>253.52</course>
  <speed>0.3298484500494128</speed>
  <fix>3d</fix>
</trkpt>
<trkpt lat="40.0713747" lon="-105.2297902">
  <ele>1582.95</ele>
  <time>2026-08-28T17:54:32Z</time>
  <course>253.96</course>
  <speed>0.34928498393145957</speed>
  <fix>3d</fix>
</trkpt>
<trkpt lat="40.0713747" lon="-105.2297902">
  <ele>1582.95</ele>
  <time>2026-08-28T17:54:32Z</time>
  <course>253.96</course>
  <speed>0.34928498393145957</speed>
  <fix>3d</fix>
</trkpt>
<trkpt lat="40.0713748" lon="-105.2297896">
  <ele>1583.0</ele>
  <time>2026-08-28T17:54:32Z</time>
  <course>249.46</course>
  <speed>0.21</speed>
  <fix>3d</fix>
</trkpt>
<trkpt lat="40.0713746" lon="-105.2297905">
  <ele>1582.95</ele>
  <time>2026-08-28T17:54:32Z</time>
  <course>255.41</course>
  <speed>0.40024992192379005</speed>
  <fix>3d</fix>
</trkpt>
<trkpt lat="40.0713746" lon="-105.2297907">
  <ele>1582.95</ele>
  <time>2026-08-28T17:54:32Z</time>
  <course>256.49</course>
  <speed>0.4393176527297759</speed>
  <fix>3d</fix>
</trkpt>
<trkpt lat="40.0713746" lon="-105.2297907">
  <ele>1582.95</ele>
  <time>2026-08-28T17:54:32Z</time>
  <course>256.49</course>
  <speed>0.4393176527297759</speed>
  <fix>3d</fix>
</trkpt>
<trkpt lat="40.0713748" lon="-105.2297896">
  <ele>1583.0</ele>
  <time>2026-08-28T17:54:32Z</time>
  <course>249.46</course>
  <speed>0.21</speed>
  <fix>3d</fix>
</trkpt>
<trkpt lat="40.0713745" lon="-105.2297911">
  <ele>1582.95</ele>
  <time>2026-08-28T17:54:32Z</time>
  <course>258.93</course>
  <speed>0.5162363799656123</speed>
  <fix>3d</fix>
</trkpt>
<trkpt lat="40.0713745" lon="-105.2297913">
  <ele>1582.95</ele>
  <time>2026-08-28T17:54:32Z</time>
  <course>259.6</course>
  <speed>0.5360037313302959</speed>
  <fix>3d</fix>
</trkpt>
<trkpt lat="40.0713747" lon="-105.2297902">
  <ele>1583.0</ele>
  <time>2026-08-28T17:54:32Z</time>
  <course>253.26</course>
  <speed>0.36</speed>
  <fix>3d</fix>
</trkpt>
<trkpt lat="40.0713745" lon="-105.2297914">
  <ele>1582.95</ele>
  <time>2026-08-28T17:54:32Z</time>
  <course>260.3</course>
  <speed>0.5557877292636101</speed>
  <fix>3d</fix>
</trkpt>
<trkpt lat="40.0713744" lon="-105.229792">
  <ele>1582.95</ele>
  <time>2026-08-28T17:54:32Z</time>
  <course>263.35</course>
  <speed>0.6428063471995279</speed>
  <fix>3d</fix>
</trkpt>
<trkpt lat="40.0713744" lon="-105.229792">
  <ele>1582.95</ele>
  <time>2026-08-28T17:54:32Z</time>
  <course>263.35</course>
  <speed>0.6428063471995279</speed>
  <fix>3d</fix>
</trkpt>
<trkpt lat="40.0713747" lon="-105.2297902">
  <ele>1583.0</ele>
  <time>2026-08-28T17:54:32Z</time>
  <course>253.26</course>
  <speed>0.36</speed>
  <fix>3d</fix>
</trkpt>
<trkpt lat="40.0713744" lon="-105.2297926">
  <ele>1582.95</ele>
  <time>2026-08-28T17:54:32Z</time>
  <course>266.83</course>
  <speed>0.7302739212103907</speed>
  <fix>3d</fix>
</trkpt>
<trkpt lat="40.0713744" lon="-105.2297928">
  <ele>1582.95</ele>
  <time>2026-08-28T17:54:32Z</time>
  <course>267.77</course>
  <speed>0.750066663703967</speed>
  <fix>3d</fix>
</trkpt>
<trkpt lat="40.0713745" lon="-105.2297912">
  <ele>1583.0</ele>
  <time>2026-08-28T17:54:32Z</time>
  <course>259.09</course>
  <speed>0.54</speed>
  <fix>3d</fix>
</trkpt>
<trkpt lat="40.0713744" lon="-105.229793">
  <ele>1582.95</ele>
  <time>2026-08-28T17:54:32Z</time>
  <course>268.73</course>
  <speed>0.78</speed>
  <fix>3d</fix>
</trkpt>
<trkpt lat="40.0713744" lon="-105.2297936">
  <ele>1582.95</ele>
  <time>2026-08-28T17:54:32Z</time>
  <course>271.81</course>
  <speed>0.8509406559801923</speed>
  <fix>3d</fix>
</trkpt>
<trkpt lat="40.0713744" lon="-105.2297938">
  <ele>1582.95</ele>
  <time>2026-08-28T17:54:32Z</time>
  <course>272.9</course>
  <speed>0.8714355971613738</speed>
  <fix>3d</fix>
</trkpt>
<trkpt lat="40.0713745" lon="-105.2297912">
  <ele>1583.0</ele>
  <time>2026-08-28T17:54:32Z</time>
  <course>259.09</course>
  <speed>0.54</speed>
  <fix>3d</fix>
</trkpt>
<trkpt lat="40.0713744" lon="-105.229794">
  <ele>1582.95</ele>
  <time>2026-08-28T17:54:32Z</time>
  <course>274.01</course>
  <speed>0.8927485648266257</speed>
  <fix>3d</fix>
</trkpt>
<trkpt lat="40.0713744" lon="-105.2297949">
  <ele>1582.95</ele>
  <time>2026-08-28T17:54:32Z</time>
  <course>278.77</course>
  <speed>0.9929753269845127</speed>
  <fix>3d</fix>
</trkpt>
<trkpt lat="40.0713744" lon="-105.2297949">
  <ele>1582.95</ele>
  <time>2026-08-28T17:54:32Z</time>
  <course>278.77</course>
  <speed>0.9929753269845127</speed>
  <fix>3d</fix>
</trkpt>
<trkpt lat="40.0713743" lon="-105.2297927">
  <ele>1583.0</ele>
  <time>2026-08-28T17:54:32Z</time>
  <course>267.4</course>
  <speed>0.75</speed>
  <fix>3d</fix>
</trkpt>
<trkpt lat="40.0713746" lon="-105.2297961">
  <ele>1582.95</ele>
  <time>2026-08-28T17:54:32Z</time>
  <course>285.41</course>
  <speed>1.1140017953306898</speed>
  <fix>3d</fix>
</trkpt>
<trkpt lat="40.0713746" lon="-105.2297961">
  <ele>1582.95</ele>
  <time>2026-08-28T17:54:32Z</time>
  <course>285.41</course>
  <speed>1.1140017953306898</speed>
  <fix>3d</fix>
</trkpt>
<trkpt lat="40.0713743" lon="-105.2297927">
  <ele>1583.0</ele>
  <time>2026-08-28T17:54:32Z</time>
  <course>267.4</course>
  <speed>0.75</speed>
  <fix>3d</fix>
</trkpt>
<trkpt lat="40.0713748" lon="-105.2297972">
  <ele>1582.95</ele>
  <time>2026-08-28T17:54:32Z</time>
  <course>291.35</course>
  <speed>1.216305882580529</speed>
  <fix>3d</fix>
</trkpt>
<trkpt lat="40.0713749" lon="-105.2297974">
  <ele>1582.95</ele>
  <time>2026-08-28T17:54:32Z</time>
  <course>292.89</course>
  <speed>1.2408464852672147</speed>
  <fix>3d</fix>
</trkpt>
<trkpt lat="40.0713749" lon="-105.2297974">
  <ele>1582.95</ele>
  <time>2026-08-28T17:54:32Z</time>
  <course>292.89</course>
  <speed>1.2408464852672147</speed>
  <fix>3d</fix>
</trkpt>
<trkpt lat="40.0713743" lon="-105.2297947">
  <ele>1583.0</ele>
  <time>2026-08-28T17:54:32Z</time>
  <course>278.52</course>
  <speed>0.98</speed>
  <fix>3d</fix>
</trkpt>
<trkpt lat="40.0713753" lon="-105.2297985">
  <ele>1582.95</ele>
  <time>2026-08-28T17:54:32Z</time>
  <course>299.25</course>
  <speed>1.3482581355215328</speed>
  <fix>3d</fix>
</trkpt>
<trkpt lat="40.0713755" lon="-105.2297988">
  <ele>1582.96</ele>
  <time>2026-08-28T17:54:33Z</time>
  <course>300.78</course>
  <speed>1.3685759021698432</speed>
  <fix>3d</fix>
</trkpt>
<trkpt lat="40.0713755" lon="-105.2297988">
  <ele>1582.96</ele>
  <time>2026-08-28T17:54:33Z</time>
  <course>300.78</course>
  <speed>1.3685759021698432</speed>
  <fix>3d</fix>
</trkpt>
<trkpt lat="40.0713748" lon="-105.2297972">
  <ele>1583.0</ele>
  <time>2026-08-28T17:54:33Z</time>
  <course>292.47</course>
  <speed>1.22</speed>
  <fix>3d</fix>
</trkpt>
<trkpt lat="40.0713762" lon="-105.2298002">
  <ele>1582.96</ele>
  <time>2026-08-28T17:54:33Z</time>
  <course>308.01</course>
  <speed>1.4945902448497381</speed>
  <fix>3d</fix>
</trkpt>
<trkpt lat="40.0713762" lon="-105.2298002">
  <ele>1582.96</ele>
  <time>2026-08-28T17:54:33Z</time>
  <course>308.01</course>
  <speed>1.4945902448497381</speed>
  <fix>3d</fix>
</trkpt>
<trkpt lat="40.0713748" lon="-105.2297972">
  <ele>1583.0</ele>
  <time>2026-08-28T17:54:33Z</time>
  <course>292.47</course>
  <speed>1.22</speed>
  <fix>3d</fix>
</trkpt>
<trkpt lat="40.071377" lon="-105.2298013">
  <ele>1582.96</ele>
  <time>2026-08-28T17:54:33Z</time>
  <course>313.46</course>
  <speed>1.598311609167624</speed>
  <fix>3d</fix>
</trkpt>
<trkpt lat="40.0713772" lon="-105.2298016">
  <ele>1582.97</ele>
  <time>2026-08-28T17:54:33Z</time>
  <course>314.8</course>
  <speed>1.6192899678562824</speed>
  <fix>3d</fix>
</trkpt>
<trkpt lat="40.0713772" lon="-105.2298016">
  <ele>1582.97</ele>
  <time>2026-08-28T17:54:33Z</time>
  <course>314.8</course>
  <speed>1.6192899678562824</speed>
  <fix>3d</fix>
</trkpt>
<trkpt lat="40.071376" lon="-105.2298">
  <ele>1583.0</ele>
  <time>2026-08-28T17:54:33Z</time>
  <course>306.97</course>
  <speed>1.46</speed>
  <fix>3d</fix>
</trkpt>
<trkpt lat="40.0713781" lon="-105.2298027">
  <ele>1582.97</ele>
  <time>2026-08-28T17:54:33Z</time>
  <course>319.98</course>
  <speed>1.6977926846349645</speed>
  <fix>3d</fix>
</trkpt>
<trkpt lat="40.0713783" lon="-105.2298029">
  <ele>1582.97</ele>
  <time>2026-08-28T17:54:33Z</time>
  <course>321.23</course>
  <speed>1.722614292289484</speed>
  <fix>3d</fix>
</trkpt>
<trkpt lat="40.0713783" lon="-105.2298029">
  <ele>1582.97</ele>
  <time>2026-08-28T17:54:33Z</time>
  <course>321.23</course>
  <speed>1.722614292289484</speed>
  <fix>3d</fix>
</trkpt>
<trkpt lat="40.071376" lon="-105.2298">
  <ele>1583.0</ele>
  <time>2026-08-28T17:54:33Z</time>
  <course>306.97</course>
  <speed>1.46</speed>
  <fix>3d</fix>
</trkpt>
<trkpt lat="40.0713793" lon="-105.2298039">
  <ele>1582.97</ele>
  <time>2026-08-28T17:54:33Z</time>
  <course>325.95</course>
  <speed>1.7889102828258325</speed>
  <fix>3d</fix>
</trkpt>
<trkpt lat="40.0713796" lon="-105.2298041">
  <ele>1582.97</ele>
  <time>2026-08-28T17:54:33Z</time>
  <course>327.04</course>
  <speed>1.811573901335521</speed>
  <fix>3d</fix>
</trkpt>
<trkpt lat="40.0713796" lon="-105.2298041">
  <ele>1582.97</ele>
  <time>2026-08-28T17:54:33Z</time>
  <course>327.04</course>
  <speed>1.811573901335521</speed>
  <fix>3d</fix>
</trkpt>
<trkpt lat="40.071378" lon="-105.2298026">
  <ele>1583.0</ele>
  <time>2026-08-28T17:54:33Z</time>
  <course>319.89</course>
  <speed>1.68</speed>
  <fix>3d</fix>
</trkpt>
<trkpt lat="40.0713811" lon="-105.2298052">
  <ele>1582.98</ele>
  <time>2026-08-28T17:54:33Z</time>
  <course>332.0</course>
  <speed>1.9053870997778903</speed>
  <fix>3d</fix>
</trkpt>
<trkpt lat="40.0713811" lon="-105.2298052">
  <ele>1582.98</ele>
  <time>2026-08-28T17:54:33Z</time>
  <course>332.0</course>
  <speed>1.9053870997778903</speed>
  <fix>3d</fix>
</trkpt>
<trkpt lat="40.071378" lon="-105.2298026">
  <ele>1583.0</ele>
  <time>2026-08-28T17:54:33Z</time>
  <course>319.89</course>
  <speed>1.68</speed>
  <fix>3d</fix>
</trkpt>
<trkpt lat="40.0713827" lon="-105.2298062">
  <ele>1582.98</ele>
  <time>2026-08-28T17:54:33Z</time>
  <course>336.25</course>
  <speed>1.9932385707686877</speed>
  <fix>3d</fix>
</trkpt>
<trkpt lat="40.0713827" lon="-105.2298062">
  <ele>1582.98</ele>
  <time>2026-08-28T17:54:33Z</time>
  <course>336.25</course>
  <speed>1.9932385707686877</speed>
  <fix>3d</fix>
</trkpt>
<trkpt lat="40.0713806" lon="-105.229805">
  <ele>1583.0</ele>
  <time>2026-08-28T17:54:33Z</time>
  <course>330.48</course>
  <speed>1.86</speed>
  <fix>3d</fix>
</trkpt>
<trkpt lat="40.0713841" lon="-105.229807">
  <ele>1582.98</ele>
  <time>2026-08-28T17:54:33Z</time>
  <course>339.16</course>
  <speed>2.059927183179056</speed>
  <fix>3d</fix>
</trkpt>
<trkpt lat="40.0713844" lon="-105.2298071">
  <ele>1582.98</ele>
  <time>2026-08-28T17:54:33Z</time>
  <course>339.83</course>
  <speed>2.084634260487916</speed>
  <fix>3d</fix>
</trkpt>
<trkpt lat="40.0713806" lon="-105.229805">
  <ele>1583.0</ele>
  <time>2026-08-28T17:54:33Z</time>
  <course>330.48</course>
  <speed>1.86</speed>
  <fix>3d</fix>
</trkpt>
<trkpt lat="40.0713848" lon="-105.2298073">
  <ele>1582.98</ele>
  <time>2026-08-28T17:54:33Z</time>
  <course>340.47</course>
  <speed>2.096783250600786</speed>
  <fix>3d</fix>
</trkpt>
<trkpt lat="40.0713859" lon="-105.2298078">
  <ele>1582.98</ele>
  <time>2026-08-28T17:54:33Z</time>
  <course>342.3</course>
  <speed>2.157127719909046</speed>
  <fix>3d</fix>
</trkpt>
<trkpt lat="40.0713862" lon="-105.2298079">
  <ele>1582.98</ele>
  <time>2026-08-28T17:54:33Z</time>
  <course>342.87</course>
  <speed>2.173315439599139</speed>
  <fix>3d</fix>
</trkpt>
<trkpt lat="40.0713838" lon="-105.2298069">
  <ele>1583.0</ele>
  <time>2026-08-28T17:54:33Z</time>
  <course>338.31</course>
  <speed>2.03</speed>
  <fix>3d</fix>
</trkpt>
<trkpt lat="40.0713866" lon="-105.2298081">
  <ele>1582.98</ele>
  <time>2026-08-28T17:54:33Z</time>
  <course>343.41</course>
  <speed>2.1868013169924696</speed>
  <fix>3d</fix>
</trkpt>
<trkpt lat="40.0713874" lon="-105.2298084">
  <ele>1582.98</ele>
  <time>2026-08-28T17:54:33Z</time>
  <course>344.46</course>
  <speed>2.2294842452908252</speed>
  <fix>3d</fix>
</trkpt>
<trkpt lat="40.0713882" lon="-105.2298086">
  <ele>1582.98</ele>
  <time>2026-08-28T17:54:33Z</time>
  <course>345.44</course>
  <speed>2.270154179786034</speed>
  <fix>3d</fix>
</trkpt>
<trkpt lat="40.0713882" lon="-105.2298086">
  <ele>1582.98</ele>
  <time>2026-08-28T17:54:33Z</time>
  <course>345.44</course>
  <speed>2.270154179786034</speed>
  <fix>3d</fix>
</trkpt>
<trkpt lat="40.0713838" lon="-105.2298069">
  <ele>1583.0</ele>
  <time>2026-08-28T17:54:33Z</time>
  <course>338.31</course>
  <speed>2.03</speed>
  <fix>3d</fix>
</trkpt>
<trkpt lat="40.0713902" lon="-105.2298093">
  <ele>1582.97</ele>
  <time>2026-08-28T17:54:33Z</time>
  <course>347.64</course>
  <speed>2.3634931774811623</speed>
  <fix>3d</fix>
</trkpt>
<trkpt lat="40.0713902" lon="-105.2298093">
  <ele>1582.97</ele>
  <time>2026-08-28T17:54:33Z</time>
  <course>347.64</course>
  <speed>2.3634931774811623</speed>
  <fix>3d</fix>
</trkpt>
<trkpt lat="40.0713874" lon="-105.2298086">
  <ele>1583.0</ele>
  <time>2026-08-28T17:54:33Z</time>
  <course>343.97</course>
  <speed>2.21</speed>
  <fix>3d</fix>
</trkpt>
<trkpt lat="40.0713923" lon="-105.2298098">
  <ele>1582.97</ele>
  <time>2026-08-28T17:54:33Z</time>
  <course>349.51</course>
  <speed>2.449836729253605</speed>
  <fix>3d</fix>
</trkpt>
<trkpt lat="40.0713923" lon="-105.2298098">
  <ele>1582.97</ele>
  <time>2026-08-28T17:54:33Z</time>
  <course>349.51</course>
  <speed>2.449836729253605</speed>
  <fix>3d</fix>
</trkpt>
<trkpt lat="40.0713874" lon="-105.2298086">
  <ele>1583.0</ele>
  <time>2026-08-28T17:54:33Z</time>
  <course>343.97</course>
  <speed>2.21</speed>
  <fix>3d</fix>
</trkpt>
<trkpt lat="40.0713941" lon="-105.2298103">
  <ele>1582.97</ele>
  <time>2026-08-28T17:54:33Z</time>
  <course>350.79</course>
  <speed>2.5317977802344327</speed>
  <fix>3d</fix>
</trkpt>
<trkpt lat="40.0713945" lon="-105.2298103">
  <ele>1582.97</ele>
  <time>2026-08-28T17:54:33Z</time>
  <course>351.09</course>
  <speed>2.55</speed>
  <fix>3d</fix>
</trkpt>
<trkpt lat="40.0713945" lon="-105.2298103">
  <ele>1582.97</ele>
  <time>2026-08-28T17:54:33Z</time>
  <course>351.09</course>
  <speed>2.55</speed>
  <fix>3d</fix>
</trkpt>
<trkpt lat="40.0713913" lon="-105.2298098">
  <ele>1583.0</ele>
  <time>2026-08-28T17:54:33Z</time>
  <course>348.06</course>
  <speed>2.39</speed>
  <fix>3d</fix>
</trkpt>
<trkpt lat="40.0713963" lon="-105.2298107">
  <ele>1582.97</ele>
  <time>2026-08-28T17:54:33Z</time>
  <course>352.19</course>
  <speed>2.623451924468981</speed>
  <fix>3d</fix>
</trkpt>
<trkpt lat="40.0713968" lon="-105.2298108">
  <ele>1582.97</ele>
  <time>2026-08-28T17:54:33Z</time>
  <course>352.45</course>
  <speed>2.6419689627245813</speed>
  <fix>3d</fix>
</trkpt>
<trkpt lat="40.0713913" lon="-105.2298098">
  <ele>1583.0</ele>
  <time>2026-08-28T17:54:33Z</time>
  <course>348.06</course>
  <speed>2.39</speed>
  <fix>3d</fix>
</trkpt>
<trkpt lat="40.0713973" lon="-105.2298109">
  <ele>1582.97</ele>
  <time>2026-08-28T17:54:33Z</time>
  <course>352.7</course>
  <speed>2.6618038996139446</speed>
  <fix>3d</fix>
</trkpt>
<trkpt lat="40.0713992" lon="-105.2298112">
  <ele>1582.97</ele>
  <time>2026-08-28T17:54:33Z</time>
  <course>353.61</course>
  <speed>2.7364941074301625</speed>
  <fix>3d</fix>
</trkpt>
<trkpt lat="40.0713992" lon="-105.2298112">
  <ele>1582.97</ele>
  <time>2026-08-28T17:54:33Z</time>
  <course>353.61</course>
  <speed>2.7364941074301625</speed>
  <fix>3d</fix>
</trkpt>
<trkpt lat="40.0713913" lon="-105.2298098">
  <ele>1583.0</ele>
  <time>2026-08-28T17:54:33Z</time>
  <course>348.06</course>
  <speed>2.39</speed>
  <fix>3d</fix>
</trkpt>
<trkpt lat="40.0714011" lon="-105.2298115">
  <ele>1582.98</ele>
  <time>2026-08-28T17:54:33Z</time>
  <course>354.41</course>
  <speed>2.813965173913849</speed>
  <fix>3d</fix>
</trkpt>
<trkpt lat="40.0714016" lon="-105.2298116">
  <ele>1582.98</ele>
  <time>2026-08-28T17:54:33Z</time>
  <course>354.6</course>
  <speed>2.832896044686427</speed>
  <fix>3d</fix>
</trkpt>
<trkpt lat="40.0714016" lon="-105.2298116">
  <ele>1582.98</ele>
  <time>2026-08-28T17:54:33Z</time>
  <course>354.6</course>
  <speed>2.832896044686427</speed>
  <fix>3d</fix>
</trkpt>
<trkpt lat="40.0713958" lon="-105.2298108">
  <ele>1583.0</ele>
  <time>2026-08-28T17:54:33Z</time>
  <course>351.05</course>
  <speed>2.57</speed>
  <fix>3d</fix>
</trkpt>
<trkpt lat="40.0714036" lon="-105.2298118">
  <ele>1582.98</ele>
  <time>2026-08-28T17:54:33Z</time>
  <course>355.28</course>
  <speed>2.910755915565577</speed>
  <fix>3d</fix>
</trkpt>
<trkpt lat="40.0714042" lon="-105.2298119">
  <ele>1582.98</ele>
  <time>2026-08-28T17:54:33Z</time>
  <course>355.44</course>
  <speed>2.929846412356798</speed>
  <fix>3d</fix>
</trkpt>
<trkpt lat="40.0714042" lon="-105.2298119">
  <ele>1582.98</ele>
  <time>2026-08-28T17:54:33Z</time>
  <course>355.44</course>
  <speed>2.929846412356798</speed>
  <fix>3d</fix>
</trkpt>
<trkpt lat="40.0713958" lon="-105.2298108">
  <ele>1583.0</ele>
  <time>2026-08-28T17:54:33Z</time>
  <course>351.05</course>
  <speed>2.57</speed>
  <fix>3d</fix>
</trkpt>
<trkpt lat="40.0714062" lon="-105.2298122">
  <ele>1582.98</ele>
  <time>2026-08-28T17:54:33Z</time>
  <course>356.03</course>
  <speed>3.008055850545332</speed>
  <fix>3d</fix>
</trkpt>
<trkpt lat="40.0714068" lon="-105.2298122">
  <ele>1582.98</ele>
  <time>2026-08-28T17:54:33Z</time>
  <course>356.16</course>
  <speed>3.0272925197278173</speed>
  <fix>3d</fix>
</trkpt>
<trkpt lat="40.0714068" lon="-105.2298122">
  <ele>1582.98</ele>
  <time>2026-08-28T17:54:33Z</time>
  <course>356.16</course>
  <speed>3.0272925197278173</speed>
  <fix>3d</fix>
</trkpt>
<trkpt lat="40.0714005" lon="-105.2298117">
  <ele>1583.0</ele>
  <time>2026-08-28T17:54:33Z</time>
  <course>353.23</course>
  <speed>2.76</speed>
  <fix>3d</fix>
</trkpt>
<trkpt lat="40.0714073" lon="-105.2298123">
  <ele>1582.98</ele>
  <time>2026-08-28T17:54:33Z</time>
  <course>356.3</course>
  <speed>3.047244657063164</speed>
  <fix>3d</fix>
</trkpt>
<trkpt lat="40.0714084" lon="-105.2298124">
  <ele>1582.98</ele>
  <time>2026-08-28T17:54:33Z</time>
  <course>356.55</course>
  <speed>3.086486675817668</speed>
  <fix>3d</fix>
</trkpt>
<trkpt lat="40.0714094" lon="-105.2298125">
  <ele>1582.98</ele>
  <time>2026-08-28T17:54:33Z</time>
  <course>356.78</course>
  <speed>3.1157984530453824</speed>
  <fix>3d</fix>
</trkpt>
<trkpt lat="40.0714094" lon="-105.2298125">
  <ele>1582.98</ele>
  <time>2026-08-28T17:54:33Z</time>
  <course>356.78</course>
  <speed>3.1157984530453824</speed>
  <fix>3d</fix>
</trkpt>
<trkpt lat="40.0714005" lon="-105.2298117">
  <ele>1583.0</ele>
  <time>2026-08-28T17:54:33Z</time>
  <course>353.23</course>
  <speed>2.76</speed>
  <fix>3d</fix>
</trkpt>
<trkpt lat="40.0714122" lon="-105.2298127">
  <ele>1582.97</ele>
  <time>2026-08-28T17:54:33Z</time>
  <course>357.31</course>
  <speed>3.214498405661449</speed>
  <fix>3d</fix>
</trkpt>
<trkpt lat="40.0714122" lon="-105.2298127">
  <ele>1582.97</ele>
  <time>2026-08-28T17:54:33Z</time>
  <course>357.31</course>
  <speed>3.214498405661449</speed>
  <fix>3d</fix>
</trkpt>
<trkpt lat="40.0714057" lon="-105.2298125">
  <ele>1583.0</ele>
  <time>2026-08-28T17:54:33Z</time>
  <course>354.82</course>
  <speed>2.96</speed>
  <fix>3d</fix>
</trkpt>
<trkpt lat="40.0714145" lon="-105.2298129">
  <ele>1582.97</ele>
  <time>2026-08-28T17:54:33Z</time>
  <course>357.69</course>
  <speed>3.2938882798297815</speed>
  <fix>3d</fix>
</trkpt>
<trkpt lat="40.0714151" lon="-105.229813">
  <ele>1582.97</ele>
  <time>2026-08-28T17:54:33Z</time>
  <course>357.77</course>
  <speed>3.313397048347813</speed>
  <fix>3d</fix>
</trkpt>
<trkpt lat="40.0714151" lon="-105.229813">
  <ele>1582.97</ele>
  <time>2026-08-28T17:54:33Z</time>
  <course>357.77</course>
  <speed>3.313397048347813</speed>
  <fix>3d</fix>
</trkpt>
<trkpt lat="40.0714112" lon="-105.229813">
  <ele>1583.0</ele>
  <time>2026-08-28T17:54:33Z</time>
  <course>355.98</course>
  <speed>3.15</speed>
  <fix>3d</fix>
</trkpt>
<trkpt lat="40.0714175" lon="-105.2298132">
  <ele>1582.97</ele>
  <time>2026-08-28T17:54:33Z</time>
  <course>358.08</course>
  <speed>3.392889623904674</speed>
  <fix>3d</fix>
</trkpt>
<trkpt lat="40.0714181" lon="-105.2298132">
  <ele>1582.97</ele>
  <time>2026-08-28T17:54:33Z</time>
  <course>358.15</course>
  <speed>3.41287269027135</speed>
  <fix>3d</fix>
</trkpt>
<trkpt lat="40.0714181" lon="-105.2298132">
  <ele>1582.97</ele>
  <time>2026-08-28T17:54:33Z</time>
  <course>358.15</course>
  <speed>3.41287269027135</speed>
  <fix>3d</fix>
</trkpt>
<trkpt lat="40.0714112" lon="-105.229813">
  <ele>1583.0</ele>
  <time>2026-08-28T17:54:33Z</time>
  <course>355.98</course>
  <speed>3.15</speed>
  <fix>3d</fix>
</trkpt>
<trkpt lat="40.0714193" lon="-105.2298133">
  <ele>1582.97</ele>
  <time>2026-08-28T17:54:33Z</time>
  <course>358.29</course>
  <speed>3.462441335243097</speed>
  <fix>3d</fix>
</trkpt>
<trkpt lat="40.0714206" lon="-105.2298134">
  <ele>1582.97</ele>
  <time>2026-08-28T17:54:33Z</time>
  <course>358.42</course>
  <speed>3.5024134536059557</speed>
  <fix>3d</fix>
</trkpt>
<trkpt lat="40.0714212" lon="-105.2298134">
  <ele>1582.97</ele>
  <time>2026-08-28T17:54:33Z</time>
  <course>358.48</course>
  <speed>3.52239975017033</speed>
  <fix>3d</fix>
</trkpt>
<trkpt lat="40.0714212" lon="-105.2298134">
  <ele>1582.97</ele>
  <time>2026-08-28T17:54:33Z</time>
  <course>358.48</course>
  <speed>3.52239975017033</speed>
  <fix>3d</fix>
</trkpt>
<trkpt lat="40.071417" lon="-105.2298134">
  <ele>1583.0</ele>
  <time>2026-08-28T17:54:33Z</time>
  <course>356.84</course>
  <speed>3.35</speed>
  <fix>3d</fix>
</trkpt>
<trkpt lat="40.0714237" lon="-105.2298136">
  <ele>1582.97</ele>
  <time>2026-08-28T17:54:33Z</time>
  <course>358.7</course>
  <speed>3.601999444752872</speed>
  <fix>3d</fix>
</trkpt>
<trkpt lat="40.0714244" lon="-105.2298136">
  <ele>1582.97</ele>
  <time>2026-08-28T17:54:33Z</time>
  <course>358.76</course>
  <speed>3.621988404178014</speed>
  <fix>3d</fix>
</trkpt>
<trkpt lat="40.0714244" lon="-105.2298136">
  <ele>1582.97</ele>
  <time>2026-08-28T17:54:33Z</time>
  <course>358.76</course>
  <speed>3.621988404178014</speed>
  <fix>3d</fix>
</trkpt>
<trkpt lat="40.071417" lon="-105.2298134">
  <ele>1583.0</ele>
  <time>2026-08-28T17:54:33Z</time>
  <course>356.84</course>
  <speed>3.35</speed>
  <fix>3d</fix>
</trkpt>
<trkpt lat="40.071427" lon="-105.2298137">
  <ele>1582.98</ele>
  <time>2026-08-28T17:54:33Z</time>
  <course>358.95</course>
  <speed>3.7016347739883795</speed>
  <fix>3d</fix>
</trkpt>
<trkpt lat="40.0714276" lon="-105.2298138">
  <ele>1582.98</ele>
  <time>2026-08-28T17:54:33Z</time>
  <course>358.99</course>
  <speed>3.7216259887312697</speed>
  <fix>3d</fix>
</trkpt>
<trkpt lat="40.0714276" lon="-105.2298138">
  <ele>1582.98</ele>
  <time>2026-08-28T17:54:33Z</time>
  <course>358.99</course>
  <speed>3.7216259887312697</speed>
  <fix>3d</fix>
</trkpt>
<trkpt lat="40.0714233" lon="-105.2298139">
  <ele>1583.0</ele>
  <time>2026-08-28T17:54:33Z</time>
  <course>357.46</course>
  <speed>3.56</speed>
  <fix>3d</fix>
</trkpt>
<trkpt lat="40.0714303" lon="-105.2298139">
  <ele>1582.98</ele>
  <time>2026-08-28T17:54:33Z</time>
  <course>359.14</course>
  <speed>3.8113121100219542</speed>
  <fix>3d</fix>
</trkpt>
<trkpt lat="40.071431" lon="-105.2298139">
  <ele>1582.98</ele>
  <time>2026-08-28T17:54:33Z</time>
  <course>359.18</course>
  <speed>3.8313052606128895</speed>
  <fix>3d</fix>
</trkpt>
<trkpt lat="40.071431" lon="-105.2298139">
  <ele>1582.98</ele>
  <time>2026-08-28T17:54:33Z</time>
  <course>359.18</course>
  <speed>3.8313052606128895</speed>
  <fix>3d</fix>
</trkpt>
<trkpt lat="40.0714233" lon="-105.2298139">
  <ele>1583.0</ele>
  <time>2026-08-28T17:54:33Z</time>
  <course>357.46</course>
  <speed>3.56</speed>
  <fix>3d</fix>
</trkpt>
<trkpt lat="40.0714331" lon="-105.229814">
  <ele>1582.98</ele>
  <time>2026-08-28T17:54:33Z</time>
  <course>359.28</course>
  <speed>3.8912851347594666</speed>
  <fix>3d</fix>
</trkpt>
<trkpt lat="40.0714345" lon="-105.2298141">
  <ele>1582.98</ele>
  <time>2026-08-28T17:54:33Z</time>
  <course>359.34</course>
  <speed>3.9310303992719264</speed>
  <fix>3d</fix>
</trkpt>
<trkpt lat="40.0714345" lon="-105.2298141">
  <ele>1582.98</ele>
  <time>2026-08-28T17:54:33Z</time>
  <course>359.34</course>
  <speed>3.9310303992719264</speed>
  <fix>3d</fix>
</trkpt>
<trkpt lat="40.0714298" lon="-105.2298142">
  <ele>1583.0</ele>
  <time>2026-08-28T17:54:33Z</time>
  <course>357.9</course>
  <speed>3.76</speed>
  <fix>3d</fix>
</trkpt>
<trkpt lat="40.0714374" lon="-105.2298142">
  <ele>1582.99</ele>
  <time>2026-08-28T17:54:33Z</time>
  <course>359.46</course>
  <speed>4.011009847906135</speed>
  <fix>3d</fix>
</trkpt>
<trkpt lat="40.0714381" lon="-105.2298143">
  <ele>1582.99</ele>
  <time>2026-08-28T17:54:33Z</time>
  <course>359.49</course>
  <speed>4.0310048375064005</speed>
  <fix>3d</fix>
</trkpt>
<trkpt lat="40.0714381" lon="-105.2298143">
  <ele>1582.99</ele>
  <time>2026-08-28T17:54:33Z</time>
  <course>359.49</course>
  <speed>4.0310048375064005</speed>
  <fix>3d</fix>
</trkpt>
<trkpt lat="40.0714298" lon="-105.2298142">
  <ele>1583.0</ele>
  <time>2026-08-28T17:54:33Z</time>
  <course>357.9</course>
  <speed>3.76</speed>
  <fix>3d</fix>
</trkpt>
<trkpt lat="40.071441" lon="-105.2298144">
  <ele>1582.99</ele>
  <time>2026-08-28T17:54:33Z</time>
  <course>359.59</course>
  <speed>4.120776625831592</speed>
  <fix>3d</fix>
</trkpt>
<trkpt lat="40.0714418" lon="-105.2298144">
  <ele>1582.99</ele>
  <time>2026-08-28T17:54:33Z</time>
  <course>359.61</course>
  <speed>4.140772874717956</speed>
  <fix>3d</fix>
</trkpt>
<trkpt lat="40.0714418" lon="-105.2298144">
  <ele>1582.99</ele>
  <time>2026-08-28T17:54:33Z</time>
  <course>359.61</course>
  <speed>4.140772874717956</speed>
  <fix>3d</fix>
</trkpt>
<trkpt lat="40.0714367" lon="-105.2298145">
  <ele>1583.0</ele>
  <time>2026-08-28T17:54:33Z</time>
  <course>358.23</course>
  <speed>3.96</speed>
  <fix>3d</fix>
</trkpt>
<trkpt lat="40.0714448" lon="-105.2298145">
  <ele>1582.99</ele>
  <time>2026-08-28T17:54:33Z</time>
  <course>359.69</course>
  <speed>4.220758225722009</speed>
  <fix>3d</fix>
</trkpt>
<trkpt lat="40.0714455" lon="-105.2298145">
  <ele>1582.99</ele>
  <time>2026-08-28T17:54:33Z</time>
  <course>359.71</course>
  <speed>4.240754649823542</speed>
  <fix>3d</fix>
</trkpt>
<trkpt lat="40.0714455" lon="-105.2298145">
  <ele>1582.99</ele>
  <time>2026-08-28T17:54:33Z</time>
  <course>359.71</course>
  <speed>4.240754649823542</speed>
  <fix>3d</fix>
</trkpt>
<trkpt lat="40.0714367" lon="-105.2298145">
  <ele>1583.0</ele>
  <time>2026-08-28T17:54:33Z</time>
  <course>358.23</course>
  <speed>3.96</speed>
  <fix>3d</fix>
</trkpt>
<trkpt lat="40.0714478" lon="-105.2298146">
  <ele>1582.99</ele>
  <time>2026-08-28T17:54:33Z</time>
  <course>359.78</course>
  <speed>4.300744121660808</speed>
  <fix>3d</fix>
</trkpt>
<trkpt lat="40.0714486" lon="-105.2298146">
  <ele>1582.99</ele>
  <time>2026-08-28T17:54:33Z</time>
  <course>359.8</course>
  <speed>4.320740677245048</speed>
  <fix>3d</fix>
</trkpt>
<trkpt lat="40.0714494" lon="-105.2298147">
  <ele>1582.99</ele>
  <time>2026-08-28T17:54:33Z</time>
  <course>359.82</course>
  <speed>4.340737264566931</speed>
  <fix>3d</fix>
</trkpt>
<trkpt lat="40.0714494" lon="-105.2298147">
  <ele>1582.99</ele>
  <time>2026-08-28T17:54:33Z</time>
  <course>359.82</course>
  <speed>4.340737264566931</speed>
  <fix>3d</fix>
</trkpt>
<trkpt lat="40.071444" lon="-105.2298148">
  <ele>1583.0</ele>
  <time>2026-08-28T17:54:33Z</time>
  <course>358.48</course>
  <speed>4.17</speed>
  <fix>3d</fix>
</trkpt>
<trkpt lat="40.0714525" lon="-105.2298148">
  <ele>1582.99</ele>
  <time>2026-08-28T17:54:33Z</time>
  <course>359.88</course>
  <speed>4.4207239226172</speed>
  <fix>3d</fix>
</trkpt>
<trkpt lat="40.0714533" lon="-105.2298148">
  <ele>1582.99</ele>
  <time>2026-08-28T17:54:33Z</time>
  <course>359.89</course>
  <speed>4.440720662234904</speed>
  <fix>3d</fix>
</trkpt>
<trkpt lat="40.071444" lon="-105.2298148">
  <ele>1583.0</ele>
  <time>2026-08-28T17:54:33Z</time>
  <course>358.48</course>
  <speed>4.17</speed>
  <fix>3d</fix>
</trkpt>
<trkpt lat="40.0714541" lon="-105.2298148">
  <ele>1582.99</ele>
  <time>2026-08-28T17:54:33Z</time>
  <course>359.9</course>
  <speed>4.460717431086619</speed>
  <fix>3d</fix>
</trkpt>
<trkpt lat="40.0714565" lon="-105.2298149">
  <ele>1583.0</ele>
  <time>2026-08-28T17:54:33Z</time>
  <course>359.93</course>
  <speed>4.530540806570447</speed>
  <fix>3d</fix>
</trkpt>
<trkpt lat="40.0714573" lon="-105.2298149">
  <ele>1583.0</ele>
  <time>2026-08-28T17:54:33Z</time>
  <course>359.94</course>
  <speed>4.550538429680603</speed>
  <fix>3d</fix>
</trkpt>
<trkpt lat="40.0714573" lon="-105.2298149">
  <ele>1583.0</ele>
  <time>2026-08-28T17:54:33Z</time>
  <course>359.94</course>
  <speed>4.550538429680603</speed>
  <fix>3d</fix>
</trkpt>
<trkpt lat="40.0714517" lon="-105.2298151">
  <ele>1583.0</ele>
  <time>2026-08-28T17:54:33Z</time>
  <course>358.65</course>
  <speed>4.37</speed>
  <fix>3d</fix>
</trkpt>
<trkpt lat="40.0714606" lon="-105.229815">
  <ele>1583.0</ele>
  <time>2026-08-28T17:54:33Z</time>
  <course>359.99</course>
  <speed>4.630529127432414</speed>
  <fix>3d</fix>
</trkpt>
<trkpt lat="40.0714614" lon="-105.2298151">
  <ele>1583.0</ele>
  <time>2026-08-28T17:54:33Z</time>
  <course>0.0</course>
  <speed>4.650526851873882</speed>
  <fix>3d</fix>
</trkpt>
<trkpt lat="40.0714517" lon="-105.2298151">
  <ele>1583.0</ele>
  <time>2026-08-28T17:54:33Z</time>
  <course>358.65</course>
  <speed>4.37</speed>
  <fix>3d</fix>
</trkpt>
<trkpt lat="40.0714623" lon="-105.2298151">
  <ele>1583.0</ele>
  <time>2026-08-28T17:54:33Z</time>
  <course>0.0</course>
  <speed>4.670524595802917</speed>
  <fix>3d</fix>
</trkpt>
<trkpt lat="40.0714648" lon="-105.2298152">
  <ele>1583.0</ele>
  <time>2026-08-28T17:54:33Z</time>
  <course>0.03</course>
  <speed>4.730517942043979</speed>
  <fix>3d</fix>
</trkpt>
<trkpt lat="40.0714656" lon="-105.2298152">
  <ele>1583.0</ele>
  <time>2026-08-28T17:54:33Z</time>
  <course>0.05</course>
  <speed>4.750515761472642</speed>
  <fix>3d</fix>
</trkpt>
<trkpt lat="40.0714517" lon="-105.2298151">
  <ele>1583.0</ele>
  <time>2026-08-28T17:54:33Z</time>
  <course>358.65</course>
  <speed>4.37</speed>
  <fix>3d</fix>
</trkpt>
<trkpt lat="40.0714665" lon="-105.2298152">
  <ele>1583.0</ele>
  <time>2026-08-28T17:54:33Z</time>
  <course>0.06</course>
  <speed>4.770513599184054</speed>
  <fix>3d</fix>
</trkpt>
<trkpt lat="40.071469" lon="-105.2298153">
  <ele>1583.0</ele>
  <time>2026-08-28T17:54:33Z</time>
  <course>0.09</course>
  <speed>4.8305072197441135</speed>
  <fix>3d</fix>
</trkpt>
<trkpt lat="40.0714699" lon="-105.2298153">
  <ele>1583.0</ele>
  <time>2026-08-28T17:54:33Z</time>
  <course>0.11</course>
  <speed>4.850505128334574</speed>
  <fix>3d</fix>
</trkpt>
<trkpt lat="40.0714699" lon="-105.2298153">
  <ele>1583.0</ele>
  <time>2026-08-28T17:54:33Z</time>
  <course>0.11</course>
  <speed>4.850505128334574</speed>
  <fix>3d</fix>
</trkpt>
<trkpt lat="40.0714598" lon="-105.2298152">
  <ele>1583.0</ele>
  <time>2026-08-28T17:54:33Z</time>
  <course>358.78</course>
  <speed>4.58</speed>
  <fix>3d</fix>
</trkpt>
<trkpt lat="40.0714734" lon="-105.2298154">
  <ele>1583.0</ele>
  <time>2026-08-28T17:54:33Z</time>
  <course>0.15</course>
  <speed>4.920497942281858</speed>
  <fix>3d</fix>
</trkpt>
<trkpt lat="40.0714742" lon="-105.2298154">
  <ele>1583.0</ele>
  <time>2026-08-28T17:54:33Z</time>
  <course>0.17</course>
  <speed>4.940495926523976</speed>
  <fix>3d</fix>
</trkpt>
<trkpt lat="40.0714598" lon="-105.2298152">
  <ele>1583.0</ele>
  <time>2026-08-28T17:54:33Z</time>
  <course>358.78</course>
  <speed>4.58</speed>
  <fix>3d</fix>
</trkpt>
<trkpt lat="40.0714751" lon="-105.2298154">
  <ele>1583.0</ele>
  <time>2026-08-28T17:54:33Z</time>
  <course>0.18</course>
  <speed>4.960493927019768</speed>
  <fix>3d</fix>
</trkpt>
<trkpt lat="40.0714778" lon="-105.2298155">
  <ele>1583.0</ele>
  <time>2026-08-28T17:54:33Z</time>
  <course>0.2</course>
  <speed>5.020488024086902</speed>
  <fix>3d</fix>
</trkpt>
<trkpt lat="40.0714786" lon="-105.2298155">
  <ele>1583.0</ele>
  <time>2026-08-28T17:54:33Z</time>
  <course>0.21</course>
  <speed>5.040486087670513</speed>
  <fix>3d</fix>
</trkpt>
<trkpt lat="40.0714786" lon="-105.2298155">
  <ele>1583.0</ele>
  <time>2026-08-28T17:54:33Z</time>
  <course>0.21</course>
  <speed>5.040486087670513</speed>
  <fix>3d</fix>
</trkpt>
<trkpt lat="40.0714682" lon="-105.2298155">
  <ele>1583.0</ele>
  <time>2026-08-28T17:54:33Z</time>
  <course>358.91</course>
  <speed>4.78</speed>
  <fix>3d</fix>
</trkpt>
<trkpt lat="40.0714822" lon="-105.2298156">
  <ele>1583.0</ele>
  <time>2026-08-28T17:54:33Z</time>
  <course>0.25</course>
  <speed>5.120351550430888</speed>
  <fix>3d</fix>
</trkpt>
<trkpt lat="40.0714831" lon="-105.2298156">
  <ele>1583.0</ele>
  <time>2026-08-28T17:54:33Z</time>
  <course>0.25</course>
  <speed>5.13047756061753</speed>
  <fix>3d</fix>
</trkpt>
<trkpt lat="40.0714831" lon="-105.2298156">
  <ele>1583.0</ele>
  <time>2026-08-28T17:54:33Z</time>
  <course>0.25</course>
  <speed>5.13047756061753</speed>
  <fix>3d</fix>
</trkpt>
<trkpt lat="40.0714682" lon="-105.2298155">
  <ele>1583.0</ele>
  <time>2026-08-28T17:54:33Z</time>
  <course>358.91</course>
  <speed>4.78</speed>
  <fix>3d</fix>
</trkpt>
<trkpt lat="40.0714877" lon="-105.2298157">
  <ele>1583.0</ele>
  <time>2026-08-28T17:54:33Z</time>
  <course>0.31</course>
  <speed>5.210345477988959</speed>
  <fix>3d</fix>
</trkpt>
<trkpt lat="40.0714877" lon="-105.2298157">
  <ele>1583.0</ele>
  <time>2026-08-28T17:54:33Z</time>
  <course>0.31</course>
  <speed>5.210345477988959</speed>
  <fix>3d</fix>
</trkpt>
<trkpt lat="40.071477" lon="-105.2298156">
  <ele>1583.0</ele>
  <time>2026-08-28T17:54:33Z</time>
  <course>359.02</course>
  <speed>4.98</speed>
  <fix>3d</fix>
</trkpt>
<trkpt lat="40.0714923" lon="-105.2298158">
  <ele>1583.0</ele>
  <time>2026-08-28T17:54:33Z</time>
  <course>0.35</course>
  <speed>5.27034154490959</speed>
  <fix>3d</fix>
</trkpt>
<trkpt lat="40.0714923" lon="-105.2298158">
  <ele>1583.0</ele>
  <time>2026-08-28T17:54:33Z</time>
  <course>0.35</course>
  <speed>5.27034154490959</speed>
  <fix>3d</fix>
</trkpt>
<trkpt lat="40.071477" lon="-105.2298156">
  <ele>1583.0</ele>
  <time>2026-08-28T17:54:33Z</time>
  <course>359.02</course>
  <speed>4.98</speed>
  <fix>3d</fix>
</trkpt>
<trkpt lat="40.0714961" lon="-105.2298159">
  <ele>1583.0</ele>
  <time>2026-08-28T17:54:33Z</time>
  <course>0.38</course>
  <speed>5.310338972231434</speed>
  <fix>3d</fix>
</trkpt>
<trkpt lat="40.071497" lon="-105.2298159">
  <ele>1583.0</ele>
  <time>2026-08-28T17:54:33Z</time>
  <course>0.39</course>
  <speed>5.320338335106142</speed>
  <fix>3d</fix>
</trkpt>
<trkpt lat="40.071497" lon="-105.2298159">
  <ele>1583.0</ele>
  <time>2026-08-28T17:54:33Z</time>
  <course>0.39</course>
  <speed>5.320338335106142</speed>
  <fix>3d</fix>
</trkpt>
<trkpt lat="40.0714861" lon="-105.2298159">
  <ele>1583.0</ele>
  <time>2026-08-28T17:54:33Z</time>
  <course>359.12</course>
  <speed>5.15</speed>
  <fix>3d</fix>
</trkpt>
<trkpt lat="40.0715008" lon="-105.229816">
  <ele>1583.0</ele>
  <time>2026-08-28T17:54:33Z</time>
  <course>0.44</course>
  <speed>5.340337068013591</speed>
  <fix>3d</fix>
</trkpt>
<trkpt lat="40.0715018" lon="-105.229816">
  <ele>1583.0</ele>
  <time>2026-08-28T17:54:33Z</time>
  <course>0.46</course>
  <speed>5.350336438019575</speed>
  <fix>3d</fix>
</trkpt>
<trkpt lat="40.0714955" lon="-105.229816">
  <ele>1583.0</ele>
  <time>2026-08-28T17:54:33Z</time>
  <course>359.24</course>
  <speed>5.27</speed>
  <fix>3d</fix>
</trkpt>
<trkpt lat="40.0715027" lon="-105.229816">
  <ele>1583.0</ele>
  <time>2026-08-28T17:54:33Z</time>
  <course>0.47</course>
  <speed>5.3602332038820855</speed>
  <fix>3d</fix>
</trkpt>
<trkpt lat="40.0715056" lon="-105.2298161">
  <ele>1583.0</ele>
  <time>2026-08-28T17:54:33Z</time>
  <course>0.5</course>
  <speed>5.370232769629264</speed>
  <fix>3d</fix>
</trkpt>
<trkpt lat="40.0715066" lon="-105.2298161">
  <ele>1583.0</ele>
  <time>2026-08-28T17:54:33Z</time>
  <course>0.51</course>
  <speed>5.370232769629264</speed>
  <fix>3d</fix>
</trkpt>
<trkpt lat="40.0715066" lon="-105.2298161">
  <ele>1583.0</ele>
  <time>2026-08-28T17:54:33Z</time>
  <course>0.51</course>
  <speed>5.370232769629264</speed>
  <fix>3d</fix>
</trkpt>
<trkpt lat="40.0714955" lon="-105.229816">
  <ele>1583.0</ele>
  <time>2026-08-28T17:54:33Z</time>
  <course>359.24</course>
  <speed>5.27</speed>
  <fix>3d</fix>
</trkpt>
<trkpt lat="40.0715113" lon="-105.2298162">
  <ele>1583.0</ele>
  <time>2026-08-28T17:54:33Z</time>
  <course>0.55</course>
  <speed>5.370232769629264</speed>
  <fix>3d</fix>
</trkpt>
<trkpt lat="40.0715113" lon="-105.2298162">
  <ele>1583.0</ele>
  <time>2026-08-28T17:54:33Z</time>
  <course>0.55</course>
  <speed>5.370232769629264</speed>
  <fix>3d</fix>
</trkpt>
<trkpt lat="40.071505" lon="-105.2298162">
  <ele>1583.0</ele>
  <time>2026-08-28T17:54:33Z</time>
  <course>359.34</course>
  <speed>5.33</speed>
  <fix>3d</fix>
</trkpt>
<trkpt lat="40.0715152" lon="-105.2298162">
  <ele>1583.0</ele>
  <time>2026-08-28T17:54:33Z</time>
  <course>0.61</course>
  <speed>5.3602332038820855</speed>
  <fix>3d</fix>
</trkpt>
<trkpt lat="40.0715161" lon="-105.2298162">
  <ele>1583.0</ele>
  <time>2026-08-28T17:54:33Z</time>
  <course>0.62</course>
  <speed>5.3602332038820855</speed>
  <fix>3d</fix>
</trkpt>
<trkpt lat="40.0715161" lon="-105.2298162">
  <ele>1583.0</ele>
  <time>2026-08-28T17:54:33Z</time>
  <course>0.62</course>
  <speed>5.3602332038820855</speed>
  <fix>3d</fix>
</trkpt>
<trkpt lat="40.071505" lon="-105.2298162">
  <ele>1583.0</ele>
  <time>2026-08-28T17:54:33Z</time>
  <course>359.34</course>
  <speed>5.33</speed>
  <fix>3d</fix>
</trkpt>
<trkpt lat="40.071519" lon="-105.2298163">
  <ele>1583.0</ele>
  <time>2026-08-28T17:54:33Z</time>
  <course>0.66</course>
  <speed>5.340149810632656</speed>
  <fix>3d</fix>
</trkpt>
<trkpt lat="40.0715209" lon="-105.2298163">
  <ele>1583.0</ele>
  <time>2026-08-28T17:54:33Z</time>
  <course>0.68</course>
  <speed>5.330150091695355</speed>
  <fix>3d</fix>
</trkpt>
<trkpt lat="40.0715209" lon="-105.2298163">
  <ele>1583.0</ele>
  <time>2026-08-28T17:54:33Z</time>
  <course>0.68</course>
  <speed>5.330150091695355</speed>
  <fix>3d</fix>
</trkpt>
<trkpt lat="40.0715146" lon="-105.2298163">
  <ele>1583.0</ele>
  <time>2026-08-28T17:54:33Z</time>
  <course>359.46</course>
  <speed>5.32</speed>
  <fix>3d</fix>
</trkpt>
<trkpt lat="40.0715248" lon="-105.2298163">
  <ele>1583.0</ele>
  <time>2026-08-28T17:54:33Z</time>
  <course>0.73</course>
  <speed>5.290151226571883</speed>
  <fix>3d</fix>
</trkpt>
<trkpt lat="40.0715257" lon="-105.2298164">
  <ele>1583.0</ele>
  <time>2026-08-28T17:54:33Z</time>
  <course>0.74</course>
  <speed>5.280151512977634</speed>
  <fix>3d</fix>
</trkpt>
<trkpt lat="40.0715257" lon="-105.2298164">
  <ele>1583.0</ele>
  <time>2026-08-28T17:54:33Z</time>
  <course>0.74</course>
  <speed>5.280151512977634</speed>
  <fix>3d</fix>
</trkpt>
<trkpt lat="40.0715146" lon="-105.2298163">
  <ele>1583.0</ele>
  <time>2026-08-28T17:54:33Z</time>
  <course>359.46</course>
  <speed>5.32</speed>
  <fix>3d</fix>
</trkpt>
<trkpt lat="40.0715295" lon="-105.2298164">
  <ele>1583.0</ele>
  <time>2026-08-28T17:54:33Z</time>
  <course>0.8</course>
  <speed>5.230152961434302</speed>
  <fix>3d</fix>
</trkpt>
<trkpt lat="40.0715305" lon="-105.2298164">
  <ele>1583.0</ele>
  <time>2026-08-28T17:54:33Z</time>
  <course>0.81</course>
  <speed>5.210153548601039</speed>
  <fix>3d</fix>
</trkpt>
<trkpt lat="40.0715305" lon="-105.2298164">
  <ele>1583.0</ele>
  <time>2026-08-28T17:54:33Z</time>
  <course>0.81</course>
  <speed>5.210153548601039</speed>
  <fix>3d</fix>
</trkpt>
<trkpt lat="40.0715241" lon="-105.2298164">
  <ele>1583.0</ele>
  <time>2026-08-28T17:54:33Z</time>
  <course>359.6</course>
  <speed>5.24</speed>
  <fix>3d</fix>
</trkpt>
<trkpt lat="40.0715351" lon="-105.2298165">
  <ele>1583.0</ele>
  <time>2026-08-28T17:54:33Z</time>
  <course>0.88</course>
  <speed>5.13008771854829</speed>
  <fix>3d</fix>
</trkpt>
<trkpt lat="40.0715351" lon="-105.2298165">
  <ele>1583.0</ele>
  <time>2026-08-28T17:54:33Z</time>
  <course>0.88</course>
  <speed>5.13008771854829</speed>
  <fix>3d</fix>
</trkpt>
<trkpt lat="40.0715241" lon="-105.2298164">
  <ele>1583.0</ele>
  <time>2026-08-28T17:54:33Z</time>
  <course>359.6</course>
  <speed>5.24</speed>
  <fix>3d</fix>
</trkpt>
<trkpt lat="40.0715379" lon="-105.2298165">
  <ele>1583.0</ele>
  <time>2026-08-28T17:54:33Z</time>
  <course>0.91</course>
  <speed>5.080088581904847</speed>
  <fix>3d</fix>
</trkpt>
<trkpt lat="40.0715388" lon="-105.2298165">
  <ele>1583.0</ele>
  <time>2026-08-28T17:54:33Z</time>
  <course>0.93</course>
  <speed>5.060088932024812</speed>
  <fix>3d</fix>
</trkpt>
<trkpt lat="40.0715397" lon="-105.2298165">
  <ele>1583.0</ele>
  <time>2026-08-28T17:54:33Z</time>
  <course>0.94</course>
  <speed>5.0400892849234324</speed>
  <fix>3d</fix>
</trkpt>
<trkpt lat="40.0715397" lon="-105.2298165">
  <ele>1583.0</ele>
  <time>2026-08-28T17:54:33Z</time>
  <course>0.94</course>
  <speed>5.0400892849234324</speed>
  <fix>3d</fix>
</trkpt>
<trkpt lat="40.0715333" lon="-105.2298165">
  <ele>1583.0</ele>
  <time>2026-08-28T17:54:33Z</time>
  <course>359.74</course>
  <speed>5.1</speed>
  <fix>3d</fix>
</trkpt>
<trkpt lat="40.0715433" lon="-105.2298165">
  <ele>1583.0</ele>
  <time>2026-08-28T17:54:33Z</time>
  <course>0.99</course>
  <speed>4.960040322416744</speed>
  <fix>3d</fix>
</trkpt>
<trkpt lat="40.0715442" lon="-105.2298165">
  <ele>1583.0</ele>
  <time>2026-08-28T17:54:33Z</time>
  <course>1.0</course>
  <speed>4.930040567784407</speed>
  <fix>3d</fix>
</trkpt>
<trkpt lat="40.0715442" lon="-105.2298165">
  <ele>1583.0</ele>
  <time>2026-08-28T17:54:33Z</time>
  <course>1.0</course>
  <speed>4.930040567784407</speed>
  <fix>3d</fix>
</trkpt>
<trkpt lat="40.0715333" lon="-105.2298165">
  <ele>1583.0</ele>
  <time>2026-08-28T17:54:33Z</time>
  <course>359.74</course>
  <speed>5.1</speed>
  <fix>3d</fix>
</trkpt>
<trkpt lat="40.0715477" lon="-105.2298165">
  <ele>1583.0</ele>
  <time>2026-08-28T17:54:33Z</time>
  <course>1.05</course>
  <speed>4.840041322137653</speed>
  <fix>3d</fix>
</trkpt>
<trkpt lat="40.0715485" lon="-105.2298166">
  <ele>1583.0</ele>
  <time>2026-08-28T17:54:33Z</time>
  <course>1.06</course>
  <speed>4.820041493597333</speed>
  <fix>3d</fix>
</trkpt>
<trkpt lat="40.0715424" lon="-105.2298165">
  <ele>1583.0</ele>
  <time>2026-08-28T17:54:33Z</time>
  <course>359.87</course>
  <speed>4.91</speed>
  <fix>3d</fix>
</trkpt>
<trkpt lat="40.0715494" lon="-105.2298166">
  <ele>1583.0</ele>
  <time>2026-08-28T17:54:33Z</time>
  <course>1.07</course>
  <speed>4.800041666485823</speed>
  <fix>3d</fix>
</trkpt>
<trkpt lat="40.0715519" lon="-105.2298166">
  <ele>1583.0</ele>
  <time>2026-08-28T17:54:33Z</time>
  <course>1.1</course>
  <speed>4.720042372691161</speed>
  <fix>3d</fix>
</trkpt>
<trkpt lat="40.0715528" lon="-105.2298166">
  <ele>1583.0</ele>
  <time>2026-08-28T17:54:33Z</time>
  <course>1.11</course>
  <speed>4.700042552998855</speed>
  <fix>3d</fix>
</trkpt>
<trkpt lat="40.0715528" lon="-105.2298166">
  <ele>1583.0</ele>
  <time>2026-08-28T17:54:33Z</time>
  <course>1.11</course>
  <speed>4.700042552998855</speed>
  <fix>3d</fix>
</trkpt>
<trkpt lat="40.0715424" lon="-105.2298165">
  <ele>1583.0</ele>
  <time>2026-08-28T17:54:33Z</time>
  <course>359.87</course>
  <speed>4.91</speed>
  <fix>3d</fix>
</trkpt>
<trkpt lat="40.0715553" lon="-105.2298166">
  <ele>1583.01</ele>
  <time>2026-08-28T17:54:33Z</time>
  <course>1.14</course>
  <speed>4.620043289840475</speed>
  <fix>3d</fix>
</trkpt>
<trkpt lat="40.0715569" lon="-105.2298166">
  <ele>1583.01</ele>
  <time>2026-08-28T17:54:33Z</time>
  <course>1.17</course>
  <speed>4.570043763466604</speed>
  <fix>3d</fix>
</trkpt>
<trkpt lat="40.0715569" lon="-105.2298166">
  <ele>1583.01</ele>
  <time>2026-08-28T17:54:33Z</time>
  <course>1.17</course>
  <speed>4.570043763466604</speed>
  <fix>3d</fix>
</trkpt>
<trkpt lat="40.0715511" lon="-105.2298165">
  <ele>1583.0</ele>
  <time>2026-08-28T17:54:33Z</time>
  <course>0.0</course>
  <speed>4.68</speed>
  <fix>3d</fix>
</trkpt>
<trkpt lat="40.0715601" lon="-105.2298166">
  <ele>1583.01</ele>
  <time>2026-08-28T17:54:33Z</time>
  <course>1.21</course>
  <speed>4.460011210748242</speed>
  <fix>3d</fix>
</trkpt>
<trkpt lat="40.0715609" lon="-105.2298166">
  <ele>1583.01</ele>
  <time>2026-08-28T17:54:33Z</time>
  <course>1.22</course>
  <speed>4.430011286667337</speed>
  <fix>3d</fix>
</trkpt>
<trkpt lat="40.0715511" lon="-105.2298165">
  <ele>1583.0</ele>
  <time>2026-08-28T17:54:33Z</time>
  <course>0.0</course>
  <speed>4.68</speed>
  <fix>3d</fix>
</trkpt>
<trkpt lat="40.0715617" lon="-105.2298166">
  <ele>1583.01</ele>
  <time>2026-08-28T17:54:33Z</time>
  <course>1.23</course>
  <speed>4.410011337853906</speed>
  <fix>3d</fix>
</trkpt>
<trkpt lat="40.0715641" lon="-105.2298166">
  <ele>1583.01</ele>
  <time>2026-08-28T17:54:33Z</time>
  <course>1.26</course>
  <speed>4.330011547328713</speed>
  <fix>3d</fix>
</trkpt>
<trkpt lat="40.0715648" lon="-105.2298166">
  <ele>1583.01</ele>
  <time>2026-08-28T17:54:33Z</time>
  <course>1.27</course>
  <speed>4.300011627891255</speed>
  <fix>3d</fix>
</trkpt>
<trkpt lat="40.0715648" lon="-105.2298166">
  <ele>1583.01</ele>
  <time>2026-08-28T17:54:33Z</time>
  <course>1.27</course>
  <speed>4.300011627891255</speed>
  <fix>3d</fix>
</trkpt>
<trkpt lat="40.0715511" lon="-105.2298165">
  <ele>1583.0</ele>
  <time>2026-08-28T17:54:33Z</time>
  <course>0.0</course>
  <speed>4.68</speed>
  <fix>3d</fix>
</trkpt>
<trkpt lat="40.0715678" lon="-105.2298166">
  <ele>1583.01</ele>
  <time>2026-08-28T17:54:33Z</time>
  <course>1.3</course>
  <speed>4.180011961705373</speed>
  <fix>3d</fix>
</trkpt>
<trkpt lat="40.0715686" lon="-105.2298166">
  <ele>1583.01</ele>
  <time>2026-08-28T17:54:33Z</time>
  <course>1.31</course>
  <speed>4.160012019213406</speed>
  <fix>3d</fix>
</trkpt>
<trkpt lat="40.0715686" lon="-105.2298166">
  <ele>1583.01</ele>
  <time>2026-08-28T17:54:33Z</time>
  <course>1.31</course>
  <speed>4.160012019213406</speed>
  <fix>3d</fix>
</trkpt>
<trkpt lat="40.0715593" lon="-105.2298165">
  <ele>1583.0</ele>
  <time>2026-08-28T17:54:33Z</time>
  <course>0.12</course>
  <speed>4.43</speed>
  <fix>3d</fix>
</trkpt>
<trkpt lat="40.0715708" lon="-105.2298166">
  <ele>1583.01</ele>
  <time>2026-08-28T17:54:33Z</time>
  <course>1.34</course>
  <speed>4.070012284993744</speed>
  <fix>3d</fix>
</trkpt>
<trkpt lat="40.0715722" lon="-105.2298166">
  <ele>1583.01</ele>
  <time>2026-08-28T17:54:33Z</time>
  <course>1.36</course>
  <speed>4.010012468808545</speed>
  <fix>3d</fix>
</trkpt>
<trkpt lat="40.0715722" lon="-105.2298166">
  <ele>1583.01</ele>
  <time>2026-08-28T17:54:33Z</time>
  <course>1.36</course>
  <speed>4.010012468808545</speed>
  <fix>3d</fix>
</trkpt>
<trkpt lat="40.0715593" lon="-105.2298165">
  <ele>1583.0</ele>
  <time>2026-08-28T17:54:33Z</time>
  <course>0.12</course>
  <speed>4.43</speed>
  <fix>3d</fix>
</trkpt>
<trkpt lat="40.071575" lon="-105.2298166">
  <ele>1583.01</ele>
  <time>2026-08-28T17:54:33Z</time>
  <course>1.39</course>
  <speed>3.9000128204917477</speed>
  <fix>3d</fix>
</trkpt>
<trkpt lat="40.0715757" lon="-105.2298166">
  <ele>1583.01</ele>
  <time>2026-08-28T17:54:33Z</time>
  <course>1.4</course>
  <speed>3.8700129198750743</speed>
  <fix>3d</fix>
</trkpt>
<trkpt lat="40.0715757" lon="-105.2298166">
  <ele>1583.01</ele>
  <time>2026-08-28T17:54:33Z</time>
  <course>1.4</course>
  <speed>3.8700129198750743</speed>
  <fix>3d</fix>
</trkpt>
<trkpt lat="40.071567" lon="-105.2298165">
  <ele>1583.0</ele>
  <time>2026-08-28T17:54:33Z</time>
  <course>0.24</course>
  <speed>4.16</speed>
  <fix>3d</fix>
</trkpt>
<trkpt lat="40.0715784" lon="-105.2298166">
  <ele>1583.01</ele>
  <time>2026-08-28T17:54:33Z</time>
  <course>1.43</course>
  <speed>3.7600132978488254</speed>
  <fix>3d</fix>
</trkpt>
<trkpt lat="40.071579" lon="-105.2298166">
  <ele>1583.01</ele>
  <time>2026-08-28T17:54:33Z</time>
  <course>1.43</course>
  <speed>3.73</speed>
  <fix>3d</fix>
</trkpt>
<trkpt lat="40.071579" lon="-105.2298166">
  <ele>1583.01</ele>
  <time>2026-08-28T17:54:33Z</time>
  <course>1.43</course>
  <speed>3.73</speed>
  <fix>3d</fix>
</trkpt>
<trkpt lat="40.071567" lon="-105.2298165">
  <ele>1583.0</ele>
  <time>2026-08-28T17:54:33Z</time>
  <course>0.24</course>
  <speed>4.16</speed>
  <fix>3d</fix>
</trkpt>
<trkpt lat="40.0715816" lon="-105.2298165">
  <ele>1583.01</ele>
  <time>2026-08-28T17:54:33Z</time>
  <course>1.46</course>
  <speed>3.62</speed>
  <fix>3d</fix>
</trkpt>
<trkpt lat="40.0715822" lon="-105.2298165">
  <ele>1583.01</ele>
  <time>2026-08-28T17:54:33Z</time>
  <course>1.47</course>
  <speed>3.59</speed>
  <fix>3d</fix>
</trkpt>
<trkpt lat="40.0715742" lon="-105.2298165">
  <ele>1583.0</ele>
  <time>2026-08-28T17:54:33Z</time>
  <course>0.35</course>
  <speed>3.89</speed>
  <fix>3d</fix>
</trkpt>
<trkpt lat="40.0715829" lon="-105.2298165">
  <ele>1583.01</ele>
  <time>2026-08-28T17:54:33Z</time>
  <course>1.48</course>
  <speed>3.56</speed>
  <fix>3d</fix>
</trkpt>
<trkpt lat="40.0715841" lon="-105.2298165">
  <ele>1583.01</ele>
  <time>2026-08-28T17:54:33Z</time>
  <course>1.49</course>
  <speed>3.51</speed>
  <fix>3d</fix>
</trkpt>
<trkpt lat="40.0715854" lon="-105.2298165">
  <ele>1583.01</ele>
  <time>2026-08-28T17:54:33Z</time>
  <course>1.51</course>
  <speed>3.45</speed>
  <fix>3d</fix>
</trkpt>
<trkpt lat="40.0715854" lon="-105.2298165">
  <ele>1583.01</ele>
  <time>2026-08-28T17:54:33Z</time>
  <course>1.51</course>
  <speed>3.45</speed>
  <fix>3d</fix>
</trkpt>
<trkpt lat="40.071581" lon="-105.2298165">
  <ele>1583.0</ele>
  <time>2026-08-28T17:54:33Z</time>
  <course>0.45</course>
  <speed>3.62</speed>
  <fix>3d</fix>
</trkpt>
<trkpt lat="40.0715878" lon="-105.2298165">
  <ele>1583.02</ele>
  <time>2026-08-28T17:54:33Z</time>
  <course>1.53</course>
  <speed>3.35</speed>
  <fix>3d</fix>
</trkpt>
<trkpt lat="40.0715884" lon="-105.2298165">
  <ele>1583.02</ele>
  <time>2026-08-28T17:54:33Z</time>
  <course>1.54</course>
  <speed>3.32</speed>
  <fix>3d</fix>
</trkpt>
<trkpt lat="40.071581" lon="-105.2298165">
  <ele>1583.0</ele>
  <time>2026-08-28T17:54:33Z</time>
  <course>0.45</course>
  <speed>3.62</speed>
  <fix>3d</fix>
</trkpt>
<trkpt lat="40.071589" lon="-105.2298165">
  <ele>1583.02</ele>
  <time>2026-08-28T17:54:33Z</time>
  <course>1.54</course>
  <speed>3.3</speed>
  <fix>3d</fix>
</trkpt>
<trkpt lat="40.0715907" lon="-105.2298165">
  <ele>1583.02</ele>
  <time>2026-08-28T17:54:33Z</time>
  <course>1.56</course>
  <speed>3.22</speed>
  <fix>3d</fix>
</trkpt>
<trkpt lat="40.0715913" lon="-105.2298165">
  <ele>1583.02</ele>
  <time>2026-08-28T17:54:33Z</time>
  <course>1.57</course>
  <speed>3.19</speed>
  <fix>3d</fix>
</trkpt>
<trkpt lat="40.0715913" lon="-105.2298165">
  <ele>1583.02</ele>
  <time>2026-08-28T17:54:33Z</time>
  <course>1.57</course>
  <speed>3.19</speed>
  <fix>3d</fix>
</trkpt>
<trkpt lat="40.0715873" lon="-105.2298164">
  <ele>1583.0</ele>
  <time>2026-08-28T17:54:33Z</time>
  <course>0.55</course>
  <speed>3.36</speed>
  <fix>3d</fix>
</trkpt>
<trkpt lat="40.0715935" lon="-105.2298165">
  <ele>1583.02</ele>
  <time>2026-08-28T17:54:33Z</time>
  <course>1.62</course>
  <speed>3.1</speed>
  <fix>3d</fix>
</trkpt>
<trkpt lat="40.0715941" lon="-105.2298165">
  <ele>1583.02</ele>
  <time>2026-08-28T17:54:33Z</time>
  <course>1.63</course>
  <speed>3.07</speed>
  <fix>3d</fix>
</trkpt>
<trkpt lat="40.0715941" lon="-105.2298165">
  <ele>1583.02</ele>
  <time>2026-08-28T17:54:33Z</time>
  <course>1.63</course>
  <speed>3.07</speed>
  <fix>3d</fix>
</trkpt>
<trkpt lat="40.0715873" lon="-105.2298164">
  <ele>1583.0</ele>
  <time>2026-08-28T17:54:33Z</time>
  <course>0.55</course>
  <speed>3.36</speed>
  <fix>3d</fix>
</trkpt>
<trkpt lat="40.0715951" lon="-105.2298165">
  <ele>1583.02</ele>
  <time>2026-08-28T17:54:33Z</time>
  <course>1.65</course>
  <speed>3.02</speed>
  <fix>3d</fix>
</trkpt>
<trkpt lat="40.0715962" lon="-105.2298165">
  <ele>1583.02</ele>
  <time>2026-08-28T17:54:33Z</time>
  <course>1.68</course>
  <speed>2.97</speed>
  <fix>3d</fix>
</trkpt>
<trkpt lat="40.0715968" lon="-105.2298165">
  <ele>1583.02</ele>
  <time>2026-08-28T17:54:33Z</time>
  <course>1.69</course>
  <speed>2.95</speed>
  <fix>3d</fix>
</trkpt>
<trkpt lat="40.0715931" lon="-105.2298163">
  <ele>1583.0</ele>
  <time>2026-08-28T17:54:33Z</time>
  <course>0.66</course>
  <speed>3.12</speed>
  <fix>3d</fix>
</trkpt>
<trkpt lat="40.0715973" lon="-105.2298164">
  <ele>1583.02</ele>
  <time>2026-08-28T17:54:33Z</time>
  <course>1.71</course>
  <speed>2.93</speed>
  <fix>3d</fix>
</trkpt>
<trkpt lat="40.0715988" lon="-105.2298164">
  <ele>1583.02</ele>
  <time>2026-08-28T17:54:33Z</time>
  <course>1.74</course>
  <speed>2.86</speed>
  <fix>3d</fix>
</trkpt>
<trkpt lat="40.0715994" lon="-105.2298164">
  <ele>1583.02</ele>
  <time>2026-08-28T17:54:33Z</time>
  <course>1.76</course>
  <speed>2.83</speed>
  <fix>3d</fix>
</trkpt>
<trkpt lat="40.0715994" lon="-105.2298164">
  <ele>1583.02</ele>
  <time>2026-08-28T17:54:33Z</time>
  <course>1.76</course>
  <speed>2.83</speed>
  <fix>3d</fix>
</trkpt>
<trkpt lat="40.0715931" lon="-105.2298163">
  <ele>1583.0</ele>
  <time>2026-08-28T17:54:33Z</time>
  <course>0.66</course>
  <speed>3.12</speed>
  <fix>3d</fix>
</trkpt>
<trkpt lat="40.0716014" lon="-105.2298164">
  <ele>1583.02</ele>
  <time>2026-08-28T17:54:33Z</time>
  <course>1.81</course>
  <speed>2.74</speed>
  <fix>3d</fix>
</trkpt>
<trkpt lat="40.0716018" lon="-105.2298164">
  <ele>1583.02</ele>
  <time>2026-08-28T17:54:33Z</time>
  <course>1.82</course>
  <speed>2.72</speed>
  <fix>3d</fix>
</trkpt>
<trkpt lat="40.0716018" lon="-105.2298164">
  <ele>1583.02</ele>
  <time>2026-08-28T17:54:33Z</time>
  <course>1.82</course>
  <speed>2.72</speed>
  <fix>3d</fix>
</trkpt>
<trkpt lat="40.0715984" lon="-105.2298163">
  <ele>1583.0</ele>
  <time>2026-08-28T17:54:33Z</time>
  <course>0.81</course>
  <speed>2.89</speed>
  <fix>3d</fix>
</trkpt>
<trkpt lat="40.0716038" lon="-105.2298164">
  <ele>1583.02</ele>
  <time>2026-08-28T17:54:33Z</time>
  <course>1.87</course>
  <speed>2.63</speed>
  <fix>3d</fix>
</trkpt>
<trkpt lat="40.0716043" lon="-105.2298164">
  <ele>1583.02</ele>
  <time>2026-08-28T17:54:33Z</time>
  <course>1.89</course>
  <speed>2.61</speed>
  <fix>3d</fix>
</trkpt>
<trkpt lat="40.0716043" lon="-105.2298164">
  <ele>1583.02</ele>
  <time>2026-08-28T17:54:33Z</time>
  <course>1.89</course>
  <speed>2.61</speed>
  <fix>3d</fix>
</trkpt>
<trkpt lat="40.0715984" lon="-105.2298163">
  <ele>1583.0</ele>
  <time>2026-08-28T17:54:33Z</time>
  <course>0.81</course>
  <speed>2.89</speed>
  <fix>3d</fix>
</trkpt>
<trkpt lat="40.0716052" lon="-105.2298164">
  <ele>1583.02</ele>
  <time>2026-08-28T17:54:33Z</time>
  <course>1.91</course>
  <speed>2.56</speed>
  <fix>3d</fix>
</trkpt>
<trkpt lat="40.0716056" lon="-105.2298164">
  <ele>1583.02</ele>
  <time>2026-08-28T17:54:33Z</time>
  <course>1.92</course>
  <speed>2.54</speed>
  <fix>3d</fix>
</trkpt>
<trkpt lat="40.0716061" lon="-105.2298164">
  <ele>1583.02</ele>
  <time>2026-08-28T17:54:33Z</time>
  <course>1.94</course>
  <speed>2.52</speed>
  <fix>3d</fix>
</trkpt>
<trkpt lat="40.0716066" lon="-105.2298164">
  <ele>1583.02</ele>
  <time>2026-08-28T17:54:33Z</time>
  <course>1.95</course>
  <speed>2.5000199999200006</speed>
  <fix>3d</fix>
</trkpt>
<trkpt lat="40.0716066" lon="-105.2298164">
  <ele>1583.02</ele>
  <time>2026-08-28T17:54:33Z</time>
  <course>1.95</course>
  <speed>2.5000199999200006</speed>
  <fix>3d</fix>
</trkpt>
<trkpt lat="40.0716034" lon="-105.2298161">
  <ele>1583.0</ele>
  <time>2026-08-28T17:54:33Z</time>
  <course>0.97</course>
  <speed>2.67</speed>
  <fix>3d</fix>
</trkpt>
<trkpt lat="40.0716083" lon="-105.2298163">
  <ele>1583.02</ele>
  <time>2026-08-28T17:54:33Z</time>
  <course>1.99</course>
  <speed>2.4100207467986663</speed>
  <fix>3d</fix>
</trkpt>
<trkpt lat="40.0716088" lon="-105.2298163">
  <ele>1583.02</ele>
  <time>2026-08-28T17:54:33Z</time>
  <course>2.0</course>
  <speed>2.3900209204105307</speed>
  <fix>3d</fix>
</trkpt>
<trkpt lat="40.0716088" lon="-105.2298163">
  <ele>1583.02</ele>
  <time>2026-08-28T17:54:33Z</time>
  <course>2.0</course>
  <speed>2.3900209204105307</speed>
  <fix>3d</fix>
</trkpt>
<trkpt lat="40.0716034" lon="-105.2298161">
  <ele>1583.0</ele>
  <time>2026-08-28T17:54:33Z</time>
  <course>0.97</course>
  <speed>2.67</speed>
  <fix>3d</fix>
</trkpt>
<trkpt lat="40.0716105" lon="-105.2298163">
  <ele>1583.02</ele>
  <time>2026-08-28T17:54:33Z</time>
  <course>2.08</course>
  <speed>2.3100216449202375</speed>
  <fix>3d</fix>
</trkpt>
<trkpt lat="40.0716109" lon="-105.2298162">
  <ele>1583.02</ele>
  <time>2026-08-28T17:54:33Z</time>
  <course>2.09</course>
  <speed>2.2900218339570477</speed>
  <fix>3d</fix>
</trkpt>
<trkpt lat="40.0716109" lon="-105.2298162">
  <ele>1583.02</ele>
  <time>2026-08-28T17:54:33Z</time>
  <course>2.09</course>
  <speed>2.2900218339570477</speed>
  <fix>3d</fix>
</trkpt>
<trkpt lat="40.0716081" lon="-105.229816">
  <ele>1583.0</ele>
  <time>2026-08-28T17:54:33Z</time>
  <course>1.12</course>
  <speed>2.46</speed>
  <fix>3d</fix>
</trkpt>
<trkpt lat="40.0716125" lon="-105.2298162">
  <ele>1583.02</ele>
  <time>2026-08-28T17:54:33Z</time>
  <course>2.16</course>
  <speed>2.210022624318584</speed>
  <fix>3d</fix>
</trkpt>
<trkpt lat="40.0716129" lon="-105.2298162">
  <ele>1583.02</ele>
  <time>2026-08-28T17:54:33Z</time>
  <course>2.18</course>
  <speed>2.190022830931221</speed>
  <fix>3d</fix>
</trkpt>
<trkpt lat="40.0716129" lon="-105.2298162">
  <ele>1583.02</ele>
  <time>2026-08-28T17:54:33Z</time>
  <course>2.18</course>
  <speed>2.190022830931221</speed>
  <fix>3d</fix>
</trkpt>
<trkpt lat="40.0716081" lon="-105.229816">
  <ele>1583.0</ele>
  <time>2026-08-28T17:54:33Z</time>
  <course>1.12</course>
  <speed>2.46</speed>
  <fix>3d</fix>
</trkpt>
<trkpt lat="40.0716141" lon="-105.2298161">
  <ele>1583.02</ele>
  <time>2026-08-28T17:54:33Z</time>
  <course>2.23</course>
  <speed>2.1300938946440833</speed>
  <fix>3d</fix>
</trkpt>
<trkpt lat="40.0716148" lon="-105.2298161">
  <ele>1583.03</ele>
  <time>2026-08-28T17:54:33Z</time>
  <course>2.26</course>
  <speed>2.090095691589263</speed>
  <fix>3d</fix>
</trkpt>
<trkpt lat="40.0716148" lon="-105.2298161">
  <ele>1583.03</ele>
  <time>2026-08-28T17:54:33Z</time>
  <course>2.26</course>
  <speed>2.090095691589263</speed>
  <fix>3d</fix>
</trkpt>
<trkpt lat="40.0716123" lon="-105.2298159">
  <ele>1583.0</ele>
  <time>2026-08-28T17:54:33Z</time>
  <course>1.29</course>
  <speed>2.26</speed>
  <fix>3d</fix>
</trkpt>
<trkpt lat="40.0716167" lon="-105.2298161">
  <ele>1583.03</ele>
  <time>2026-08-28T17:54:33Z</time>
  <course>2.35</course>
  <speed>1.9901004999748126</speed>
  <fix>3d</fix>
</trkpt>
<trkpt lat="40.0716167" lon="-105.2298161">
  <ele>1583.03</ele>
  <time>2026-08-28T17:54:33Z</time>
  <course>2.35</course>
  <speed>1.9901004999748126</speed>
  <fix>3d</fix>
</trkpt>
<trkpt lat="40.0716123" lon="-105.2298159">
  <ele>1583.0</ele>
  <time>2026-08-28T17:54:33Z</time>
  <course>1.29</course>
  <speed>2.26</speed>
  <fix>3d</fix>
</trkpt>
<trkpt lat="40.0716181" lon="-105.229816">
  <ele>1583.03</ele>
  <time>2026-08-28T17:54:33Z</time>
  <course>2.44</course>
  <speed>1.9201041638411183</speed>
  <fix>3d</fix>
</trkpt>
<trkpt lat="40.0716185" lon="-105.229816">
  <ele>1583.03</ele>
  <time>2026-08-28T17:54:33Z</time>
  <course>2.46</course>
  <speed>1.9001052602421793</speed>
  <fix>3d</fix>
</trkpt>
<trkpt lat="40.0716185" lon="-105.229816">
  <ele>1583.03</ele>
  <time>2026-08-28T17:54:33Z</time>
  <course>2.46</course>
  <speed>1.9001052602421793</speed>
  <fix>3d</fix>
</trkpt>
<trkpt lat="40.0716123" lon="-105.2298159">
  <ele>1583.0</ele>
  <time>2026-08-28T17:54:33Z</time>
  <course>1.29</course>
  <speed>2.26</speed>
  <fix>3d</fix>
</trkpt>
<trkpt lat="40.0716198" lon="-105.2298159">
  <ele>1583.03</ele>
  <time>2026-08-28T17:54:33Z</time>
  <course>2.55</course>
  <speed>1.820109886792553</speed>
  <fix>3d</fix>
</trkpt>
<trkpt lat="40.0716201" lon="-105.2298159">
  <ele>1583.03</ele>
  <time>2026-08-28T17:54:33Z</time>
  <course>2.57</course>
  <speed>1.8101104938649464</speed>
  <fix>3d</fix>
</trkpt>
<trkpt lat="40.0716201" lon="-105.2298159">
  <ele>1583.03</ele>
  <time>2026-08-28T17:54:33Z</time>
  <course>2.57</course>
  <speed>1.8101104938649464</speed>
  <fix>3d</fix>
</trkpt>
<trkpt lat="40.0716162" lon="-105.2298158">
  <ele>1583.0</ele>
  <time>2026-08-28T17:54:33Z</time>
  <course>1.49</course>
  <speed>2.07</speed>
  <fix>3d</fix>
</trkpt>
<trkpt lat="40.0716211" lon="-105.2298159">
  <ele>1583.03</ele>
  <time>2026-08-28T17:54:33Z</time>
  <course>2.65</course>
  <speed>1.75025712396779</speed>
  <fix>3d</fix>
</trkpt>
<trkpt lat="40.0716217" lon="-105.2298159">
  <ele>1583.03</ele>
  <time>2026-08-28T17:54:33Z</time>
  <course>2.7</course>
  <speed>1.710263137648707</speed>
  <fix>3d</fix>
</trkpt>
<trkpt lat="40.0716217" lon="-105.2298159">
  <ele>1583.03</ele>
  <time>2026-08-28T17:54:33Z</time>
  <course>2.7</course>
  <speed>1.710263137648707</speed>
  <fix>3d</fix>
</trkpt>
<trkpt lat="40.0716162" lon="-105.2298158">
  <ele>1583.0</ele>
  <time>2026-08-28T17:54:33Z</time>
  <course>1.49</course>
  <speed>2.07</speed>
  <fix>3d</fix>
</trkpt>
<trkpt lat="40.0716232" lon="-105.2298158">
  <ele>1583.03</ele>
  <time>2026-08-28T17:54:33Z</time>
  <course>2.84</course>
  <speed>1.620277753966893</speed>
  <fix>3d</fix>
</trkpt>
<trkpt lat="40.0716232" lon="-105.2298158">
  <ele>1583.03</ele>
  <time>2026-08-28T17:54:33Z</time>
  <course>2.84</course>
  <speed>1.620277753966893</speed>
  <fix>3d</fix>
</trkpt>
<trkpt lat="40.0716197" lon="-105.2298157">
  <ele>1583.0</ele>
  <time>2026-08-28T17:54:33Z</time>
  <course>1.72</course>
  <speed>1.88</speed>
  <fix>3d</fix>
</trkpt>
<trkpt lat="40.0716244" lon="-105.2298157">
  <ele>1583.03</ele>
  <time>2026-08-28T17:54:33Z</time>
  <course>2.97</course>
  <speed>1.550290295396317</speed>
  <fix>3d</fix>
</trkpt>
<trkpt lat="40.0716247" lon="-105.2298157">
  <ele>1583.03</ele>
  <time>2026-08-28T17:54:33Z</time>
  <course>3.0</course>
  <speed>1.5302940893828219</speed>
  <fix>3d</fix>
</trkpt>
<trkpt lat="40.0716247" lon="-105.2298157">
  <ele>1583.03</ele>
  <time>2026-08-28T17:54:33Z</time>
  <course>3.0</course>
  <speed>1.5302940893828219</speed>
  <fix>3d</fix>
</trkpt>
<trkpt lat="40.0716197" lon="-105.2298157">
  <ele>1583.0</ele>
  <time>2026-08-28T17:54:33Z</time>
  <course>1.72</course>
  <speed>1.88</speed>
  <fix>3d</fix>
</trkpt>
<trkpt lat="40.0716258" lon="-105.2298156">
  <ele>1583.03</ele>
  <time>2026-08-28T17:54:33Z</time>
  <course>3.15</course>
  <speed>1.4605478424207814</speed>
  <fix>3d</fix>
</trkpt>
<trkpt lat="40.071626" lon="-105.2298156">
  <ele>1583.03</ele>
  <time>2026-08-28T17:54:33Z</time>
  <course>3.19</course>
  <speed>1.4405554484295287</speed>
  <fix>3d</fix>
</trkpt>
<trkpt lat="40.071623" lon="-105.2298156">
  <ele>1583.0</ele>
  <time>2026-08-28T17:54:33Z</time>
  <course>2.0</course>
  <speed>1.7</speed>
  <fix>3d</fix>
</trkpt>
<trkpt lat="40.0716263" lon="-105.2298156">
  <ele>1583.04</ele>
  <time>2026-08-28T17:54:33Z</time>
  <course>3.23</course>
  <speed>1.420563268566381</speed>
  <fix>3d</fix>
</trkpt>
<trkpt lat="40.0716268" lon="-105.2298156">
  <ele>1583.04</ele>
  <time>2026-08-28T17:54:33Z</time>
  <course>3.31</course>
  <speed>1.3905754204644925</speed>
  <fix>3d</fix>
</trkpt>
<trkpt lat="40.0716273" lon="-105.2298156">
  <ele>1583.04</ele>
  <time>2026-08-28T17:54:33Z</time>
  <course>3.4</course>
  <speed>1.3505924625881784</speed>
  <fix>3d</fix>
</trkpt>
<trkpt lat="40.0716273" lon="-105.2298156">
  <ele>1583.04</ele>
  <time>2026-08-28T17:54:33Z</time>
  <course>3.4</course>
  <speed>1.3505924625881784</speed>
  <fix>3d</fix>
</trkpt>
<trkpt lat="40.0716259" lon="-105.2298154">
  <ele>1583.0</ele>
  <time>2026-08-28T17:54:33Z</time>
  <course>2.36</course>
  <speed>1.53</speed>
  <fix>3d</fix>
</trkpt>
<trkpt lat="40.0716283" lon="-105.2298155">
  <ele>1583.04</ele>
  <time>2026-08-28T17:54:33Z</time>
  <course>3.59</course>
  <speed>1.2806248474865698</speed>
  <fix>3d</fix>
</trkpt>
<trkpt lat="40.0716285" lon="-105.2298155">
  <ele>1583.04</ele>
  <time>2026-08-28T17:54:33Z</time>
  <course>3.64</course>
  <speed>1.260634760745554</speed>
  <fix>3d</fix>
</trkpt>
<trkpt lat="40.0716259" lon="-105.2298154">
  <ele>1583.0</ele>
  <time>2026-08-28T17:54:33Z</time>
  <course>2.36</course>
  <speed>1.53</speed>
  <fix>3d</fix>
</trkpt>
<trkpt lat="40.0716288" lon="-105.2298155">
  <ele>1583.04</ele>
  <time>2026-08-28T17:54:33Z</time>
  <course>3.7</course>
  <speed>1.2506398362438325</speed>
  <fix>3d</fix>
</trkpt>
<trkpt lat="40.0716294" lon="-105.2298154">
  <ele>1583.04</ele>
  <time>2026-08-28T17:54:33Z</time>
  <course>3.87</course>
  <speed>1.1906720791217034</speed>
  <fix>3d</fix>
</trkpt>
<trkpt lat="40.0716296" lon="-105.2298154">
  <ele>1583.04</ele>
  <time>2026-08-28T17:54:33Z</time>
  <course>3.93</course>
  <speed>1.1706835610018618</speed>
  <fix>3d</fix>
</trkpt>
<trkpt lat="40.0716296" lon="-105.2298154">
  <ele>1583.04</ele>
  <time>2026-08-28T17:54:33Z</time>
  <course>3.93</course>
  <speed>1.1706835610018618</speed>
  <fix>3d</fix>
</trkpt>
<trkpt lat="40.0716285" lon="-105.2298152">
  <ele>1583.0</ele>
  <time>2026-08-28T17:54:33Z</time>
  <course>2.82</course>
  <speed>1.35</speed>
  <fix>3d</fix>
</trkpt>
<trkpt lat="40.0716305" lon="-105.2298153">
  <ele>1583.05</ele>
  <time>2026-08-28T17:54:33Z</time>
  <course>4.2</course>
  <speed>1.101135777277262</speed>
  <fix>3d</fix>
</trkpt>
<trkpt lat="40.0716307" lon="-105.2298153">
  <ele>1583.05</ele>
  <time>2026-08-28T17:54:33Z</time>
  <course>4.27</course>
  <speed>1.0811567878897121</speed>
  <fix>3d</fix>
</trkpt>
<trkpt lat="40.0716307" lon="-105.2298153">
  <ele>1583.05</ele>
  <time>2026-08-28T17:54:33Z</time>
  <course>4.27</course>
  <speed>1.0811567878897121</speed>
  <fix>3d</fix>
</trkpt>
<trkpt lat="40.0716285" lon="-105.2298152">
  <ele>1583.0</ele>
  <time>2026-08-28T17:54:33Z</time>
  <course>2.82</course>
  <speed>1.35</speed>
  <fix>3d</fix>
</trkpt>
<trkpt lat="40.0716313" lon="-105.2298152">
  <ele>1583.05</ele>
  <time>2026-08-28T17:54:33Z</time>
  <course>4.51</course>
  <speed>1.0312128781197412</speed>
  <fix>3d</fix>
</trkpt>
<trkpt lat="40.0716317" lon="-105.2298152">
  <ele>1583.05</ele>
  <time>2026-08-28T17:54:33Z</time>
  <course>4.68</course>
  <speed>0.9912618221237011</speed>
  <fix>3d</fix>
</trkpt>
<trkpt lat="40.0716317" lon="-105.2298152">
  <ele>1583.05</ele>
  <time>2026-08-28T17:54:33Z</time>
  <course>4.68</course>
  <speed>0.9912618221237011</speed>
  <fix>3d</fix>
</trkpt>
<trkpt lat="40.0716308" lon="-105.2298151">
  <ele>1583.0</ele>
  <time>2026-08-28T17:54:33Z</time>
  <course>3.45</course>
  <speed>1.17</speed>
  <fix>3d</fix>
</trkpt>
<trkpt lat="40.0716324" lon="-105.2298151">
  <ele>1583.05</ele>
  <time>2026-08-28T17:54:33Z</time>
  <course>5.01</course>
  <speed>0.9213576938409967</speed>
  <fix>3d</fix>
</trkpt>
<trkpt lat="40.0716326" lon="-105.2298151">
  <ele>1583.05</ele>
  <time>2026-08-28T17:54:33Z</time>
  <course>5.08</course>
  <speed>0.9013878188659973</speed>
  <fix>3d</fix>
</trkpt>
<trkpt lat="40.0716308" lon="-105.2298151">
  <ele>1583.0</ele>
  <time>2026-08-28T17:54:33Z</time>
  <course>3.45</course>
  <speed>1.17</speed>
  <fix>3d</fix>
</trkpt>
<trkpt lat="40.0716327" lon="-105.2298151">
  <ele>1583.05</ele>
  <time>2026-08-28T17:54:33Z</time>
  <course>5.16</course>
  <speed>0.8814193099768123</speed>
  <fix>3d</fix>
</trkpt>
<trkpt lat="40.0716332" lon="-105.229815">
  <ele>1583.05</ele>
  <time>2026-08-28T17:54:33Z</time>
  <course>5.36</course>
  <speed>0.8215229759416348</speed>
  <fix>3d</fix>
</trkpt>
<trkpt lat="40.0716334" lon="-105.229815">
  <ele>1583.05</ele>
  <time>2026-08-28T17:54:33Z</time>
  <course>5.43</course>
  <speed>0.8015609770940699</speed>
  <fix>3d</fix>
</trkpt>
<trkpt lat="40.0716334" lon="-105.229815">
  <ele>1583.05</ele>
  <time>2026-08-28T17:54:33Z</time>
  <course>5.43</course>
  <speed>0.8015609770940699</speed>
  <fix>3d</fix>
</trkpt>
<trkpt lat="40.0716327" lon="-105.2298149">
  <ele>1583.0</ele>
  <time>2026-08-28T17:54:33Z</time>
  <course>4.19</course>
  <speed>0.99</speed>
  <fix>3d</fix>
</trkpt>
<trkpt lat="40.0716341" lon="-105.2298149">
  <ele>1583.06</ele>
  <time>2026-08-28T17:54:33Z</time>
  <course>5.72</course>
  <speed>0.7217340230306452</speed>
  <fix>3d</fix>
</trkpt>
<trkpt lat="40.0716341" lon="-105.2298149">
  <ele>1583.06</ele>
  <time>2026-08-28T17:54:33Z</time>
  <course>5.72</course>
  <speed>0.7217340230306452</speed>
  <fix>3d</fix>
</trkpt>
<trkpt lat="40.0716327" lon="-105.2298149">
  <ele>1583.0</ele>
  <time>2026-08-28T17:54:33Z</time>
  <course>4.19</course>
  <speed>0.99</speed>
  <fix>3d</fix>
</trkpt>
<trkpt lat="40.0716346" lon="-105.2298149">
  <ele>1583.06</ele>
  <time>2026-08-28T17:54:33Z</time>
  <course>5.92</course>
  <speed>0.6419501538281613</speed>
  <fix>3d</fix>
</trkpt>
<trkpt lat="40.0716348" lon="-105.2298148">
  <ele>1583.06</ele>
  <time>2026-08-28T17:54:33Z</time>
  <course>5.96</course>
  <speed>0.6319810123729984</speed>
  <fix>3d</fix>
</trkpt>
<trkpt lat="40.0716343" lon="-105.2298147">
  <ele>1583.0</ele>
  <time>2026-08-28T17:54:33Z</time>
  <course>4.84</course>
  <speed>0.81</speed>
  <fix>3d</fix>
</trkpt>
<trkpt lat="40.0716349" lon="-105.2298148">
  <ele>1583.06</ele>
  <time>2026-08-28T17:54:33Z</time>
  <course>6.01</course>
  <speed>0.6120457499239742</speed>
  <fix>3d</fix>
</trkpt>
<trkpt lat="40.0716352" lon="-105.2298148">
  <ele>1583.05</ele>
  <time>2026-08-28T17:54:33Z</time>
  <course>6.12</course>
  <speed>0.561426753904728</speed>
  <fix>3d</fix>
</trkpt>
<trkpt lat="40.0716353" lon="-105.2298148">
  <ele>1583.05</ele>
  <time>2026-08-28T17:54:33Z</time>
  <course>6.16</course>
  <speed>0.5414794548272354</speed>
  <fix>3d</fix>
</trkpt>
<trkpt lat="40.0716353" lon="-105.2298148">
  <ele>1583.05</ele>
  <time>2026-08-28T17:54:33Z</time>
  <course>6.16</course>
  <speed>0.5414794548272354</speed>
  <fix>3d</fix>
</trkpt>
<trkpt lat="40.0716343" lon="-105.2298147">
  <ele>1583.0</ele>
  <time>2026-08-28T17:54:33Z</time>
  <course>4.84</course>
  <speed>0.81</speed>
  <fix>3d</fix>
</trkpt>
<trkpt lat="40.0716358" lon="-105.2298147">
  <ele>1583.05</ele>
  <time>2026-08-28T17:54:33Z</time>
  <course>6.29</course>
  <speed>0.48166378315169184</speed>
  <fix>3d</fix>
</trkpt>
<trkpt lat="40.0716358" lon="-105.2298147">
  <ele>1583.05</ele>
  <time>2026-08-28T17:54:33Z</time>
  <course>6.32</course>
  <speed>0.47169905660283024</speed>
  <fix>3d</fix>
</trkpt>
<trkpt lat="40.0716356" lon="-105.2298146">
  <ele>1583.0</ele>
  <time>2026-08-28T17:54:33Z</time>
  <course>5.29</course>
  <speed>0.64</speed>
  <fix>3d</fix>
</trkpt>
<trkpt lat="40.0716363" lon="-105.2298146">
  <ele>1583.05</ele>
  <time>2026-08-28T17:54:33Z</time>
  <course>6.46</course>
  <speed>0.3911521443121589</speed>
  <fix>3d</fix>
</trkpt>
<trkpt lat="40.0716356" lon="-105.2298146">
  <ele>1583.0</ele>
  <time>2026-08-28T17:54:33Z</time>
  <course>5.29</course>
  <speed>0.64</speed>
  <fix>3d</fix>
</trkpt>
<trkpt lat="40.0716367" lon="-105.2298146">
  <ele>1583.06</ele>
  <time>2026-08-28T17:54:33Z</time>
  <course>6.5</course>
  <speed>0.32140317359976395</speed>
  <fix>3d</fix>
</trkpt>
<trkpt lat="40.0716366" lon="-105.2298145">
  <ele>1583.0</ele>
  <time>2026-08-28T17:54:33Z</time>
  <course>5.56</course>
  <speed>0.48</speed>
  <fix>3d</fix>
</trkpt>
<trkpt lat="40.071637" lon="-105.2298145">
  <ele>1583.05</ele>
  <time>2026-08-28T17:54:33Z</time>
  <course>6.56</course>
  <speed>0.25079872407968906</speed>
  <fix>3d</fix>
</trkpt>
<trkpt lat="40.0716366" lon="-105.2298145">
  <ele>1583.0</ele>
  <time>2026-08-28T17:54:33Z</time>
  <course>5.56</course>
  <speed>0.48</speed>
  <fix>3d</fix>
</trkpt>
<trkpt lat="40.0716372" lon="-105.2298145">
  <ele>1583.05</ele>
  <time>2026-08-28T17:54:33Z</time>
  <course>6.6</course>
  <speed>0.1711724276862369</speed>
  <fix>3d</fix>
</trkpt>
<trkpt lat="40.0716366" lon="-105.2298145">
  <ele>1583.0</ele>
  <time>2026-08-28T17:54:33Z</time>
  <course>5.56</course>
  <speed>0.48</speed>
  <fix>3d</fix>
</trkpt>
<trkpt lat="40.0716374" lon="-105.2298144">
  <ele>1583.05</ele>
  <time>2026-08-28T17:54:33Z</time>
  <course>6.63</course>
  <speed>0.1004987562112089</speed>
  <fix>3d</fix>
</trkpt>
<trkpt lat="40.0716374" lon="-105.2298144">
  <ele>1583.0</ele>
  <time>2026-08-28T17:54:33Z</time>
  <course>5.69</course>
  <speed>0.33</speed>
  <fix>3d</fix>
</trkpt>
<trkpt lat="40.0716375" lon="-105.2298144">
  <ele>1583.05</ele>
  <time>2026-08-28T17:54:33Z</time>
  <course>6.65</course>
  <speed>0.02</speed>
  <fix>3d</fix>
</trkpt>
<trkpt lat="40.0716374" lon="-105.2298144">
  <ele>1583.0</ele>
  <time>2026-08-28T17:54:33Z</time>
  <course>5.69</course>
  <speed>0.33</speed>
  <fix>3d</fix>
</trkpt>
<trkpt lat="40.0716375" lon="-105.2298144">
  <ele>1583.05</ele>
  <time>2026-08-28T17:54:33Z</time>
  <course>6.66</course>
  <speed>0.03</speed>
  <fix>3d</fix>
</trkpt>
<trkpt lat="40.0716378" lon="-105.2298143">
  <ele>1583.0</ele>
  <time>2026-08-28T17:54:33Z</time>
  <course>5.76</course>
  <speed>0.18</speed>
  <fix>3d</fix>
</trkpt>
<trkpt lat="40.0716375" lon="-105.2298144">
  <ele>1583.05</ele>
  <time>2026-08-28T17:54:33Z</time>
  <course>6.67</course>
  <speed>0.08</speed>
  <fix>3d</fix>
</trkpt>
<trkpt lat="40.0716378" lon="-105.2298143">
  <ele>1583.0</ele>
  <time>2026-08-28T17:54:33Z</time>
  <course>5.76</course>
  <speed>0.18</speed>
  <fix>3d</fix>
</trkpt>
<trkpt lat="40.0716375" lon="-105.2298144">
  <ele>1583.05</ele>
  <time>2026-08-28T17:54:33Z</time>
  <course>6.67</course>
  <speed>0.12</speed>
  <fix>3d</fix>
</trkpt>
<trkpt lat="40.071638" lon="-105.2298143">
  <ele>1583.0</ele>
  <time>2026-08-28T17:54:33Z</time>
  <course>5.79</course>
  <speed>0.05</speed>
  <fix>3d</fix>
</trkpt>
<trkpt lat="40.0716374" lon="-105.2298144">
  <ele>1583.04</ele>
  <time>2026-08-28T17:54:33Z</time>
  <course>6.67</course>
  <speed>0.15</speed>
  <fix>3d</fix>
</trkpt>
<trkpt lat="40.071638" lon="-105.2298143">
  <ele>1583.0</ele>
  <time>2026-08-28T17:54:33Z</time>
  <course>5.79</course>
  <speed>0.05</speed>
  <fix>3d</fix>
</trkpt>
<trkpt lat="40.0716373" lon="-105.2298144">
  <ele>1583.05</ele>
  <time>2026-08-28T17:54:33Z</time>
  <course>6.66</course>
  <speed>0.17</speed>
  <fix>3d</fix>
</trkpt>
<trkpt lat="40.071638" lon="-105.2298143">
  <ele>1583.0</ele>
  <time>2026-08-28T17:54:33Z</time>
  <course>185.77</course>
  <speed>0.04</speed>
  <fix>3d</fix>
</trkpt>
<trkpt lat="40.0716372" lon="-105.2298144">
  <ele>1583.05</ele>
  <time>2026-08-28T17:54:33Z</time>
  <course>6.64</course>
  <speed>0.17</speed>
  <fix>3d</fix>
</trkpt>
<trkpt lat="40.071638" lon="-105.2298143">
  <ele>1583.0</ele>
  <time>2026-08-28T17:54:33Z</time>
  <course>185.76</course>
  <speed>0.09</speed>
  <fix>3d</fix>
</trkpt>
<trkpt lat="40.0716372" lon="-105.2298144">
  <ele>1583.05</ele>
  <time>2026-08-28T17:54:33Z</time>
  <course>6.63</course>
  <speed>0.16</speed>
  <fix>3d</fix>
</trkpt>
<trkpt lat="40.071638" lon="-105.2298143">
  <ele>1583.0</ele>
  <time>2026-08-28T17:54:33Z</time>
  <course>185.76</course>
  <speed>0.09</speed>
  <fix>3d</fix>
</trkpt>
<trkpt lat="40.0716371" lon="-105.2298144">
  <ele>1583.05</ele>
  <time>2026-08-28T17:54:33Z</time>
  <course>6.61</course>
  <speed>0.14</speed>
  <fix>3d</fix>
</trkpt>
<trkpt lat="40.0716379" lon="-105.2298143">
  <ele>1583.0</ele>
  <time>2026-08-28T17:54:33Z</time>
  <course>185.72</course>
  <speed>0.08</speed>
  <fix>3d</fix>
</trkpt>
<trkpt lat="40.0716371" lon="-105.2298144">
  <ele>1583.05</ele>
  <time>2026-08-28T17:54:33Z</time>
  <course>6.6</course>
  <speed>0.1</speed>
  <fix>3d</fix>
</trkpt>
<trkpt lat="40.0716379" lon="-105.2298143">
  <ele>1583.0</ele>
  <time>2026-08-28T17:54:33Z</time>
  <course>185.72</course>
  <speed>0.08</speed>
  <fix>3d</fix>
</trkpt>
<trkpt lat="40.0716371" lon="-105.2298144">
  <ele>1583.05</ele>
  <time>2026-08-28T17:54:33Z</time>
  <course>6.6</course>
  <speed>0.0412310562561766</speed>
  <fix>3d</fix>
</trkpt>
<trkpt lat="40.0716377" lon="-105.2298143">
  <ele>1583.0</ele>
  <time>2026-08-28T17:54:33Z</time>
  <course>185.69</course>
  <speed>0.02</speed>
  <fix>3d</fix>
</trkpt>
<trkpt lat="40.0716372" lon="-105.2298143">
  <ele>1583.05</ele>
  <time>2026-08-28T17:54:33Z</time>
  <course>6.61</course>
  <speed>0.022360679774997897</speed>
  <fix>3d</fix>
</trkpt>
<trkpt lat="40.0716377" lon="-105.2298143">
  <ele>1583.0</ele>
  <time>2026-08-28T17:54:33Z</time>
  <course>185.69</course>
  <speed>0.02</speed>
  <fix>3d</fix>
</trkpt>
<trkpt lat="40.0716373" lon="-105.2298143">
  <ele>1583.05</ele>
  <time>2026-08-28T17:54:33Z</time>
  <course>6.58</course>
  <speed>0.0854400374531753</speed>
  <fix>3d</fix>
</trkpt>
<trkpt lat="40.0716377" lon="-105.2298143">
  <ele>1583.0</ele>
  <time>2026-08-28T17:54:33Z</time>
  <course>5.64</course>
  <speed>0.08</speed>
  <fix>3d</fix>
</trkpt>
<trkpt lat="40.0716374" lon="-105.2298143">
  <ele>1583.05</ele>
  <time>2026-08-28T17:54:33Z</time>
  <course>6.51</course>
  <speed>0.15524174696260024</speed>
  <fix>3d</fix>
</trkpt>
<trkpt lat="40.0716377" lon="-105.2298143">
  <ele>1583.0</ele>
  <time>2026-08-28T17:54:33Z</time>
  <course>5.64</course>
  <speed>0.08</speed>
  <fix>3d</fix>
</trkpt>
<trkpt lat="40.0716376" lon="-105.2298142">
  <ele>1583.04</ele>
  <time>2026-08-28T17:54:33Z</time>
  <course>6.42</course>
  <speed>0.22561028345356957</speed>
  <fix>3d</fix>
</trkpt>
<trkpt lat="40.0716379" lon="-105.2298143">
  <ele>1583.0</ele>
  <time>2026-08-28T17:54:33Z</time>
  <course>5.52</course>
  <speed>0.2</speed>
  <fix>3d</fix>
</trkpt>
<trkpt lat="40.0716379" lon="-105.2298142">
  <ele>1583.04</ele>
  <time>2026-08-28T17:54:33Z</time>
  <course>6.3</course>
  <speed>0.2863564212655271</speed>
  <fix>3d</fix>
</trkpt>
<trkpt lat="40.0716379" lon="-105.2298143">
  <ele>1583.0</ele>
  <time>2026-08-28T17:54:33Z</time>
  <course>5.52</course>
  <speed>0.2</speed>
  <fix>3d</fix>
</trkpt>
<trkpt lat="40.0716383" lon="-105.2298141">
  <ele>1583.04</ele>
  <time>2026-08-28T17:54:33Z</time>
  <course>6.17</course>
  <speed>0.33541019662496846</speed>
  <fix>3d</fix>
</trkpt>
<trkpt lat="40.0716384" lon="-105.2298142">
  <ele>1583.0</ele>
  <time>2026-08-28T17:54:33Z</time>
  <course>5.31</course>
  <speed>0.32</speed>
  <fix>3d</fix>
</trkpt>
<trkpt lat="40.0716387" lon="-105.229814">
  <ele>1583.04</ele>
  <time>2026-08-28T17:54:33Z</time>
  <course>6.02</course>
  <speed>0.38639358172723315</speed>
  <fix>3d</fix>
</trkpt>
<trkpt lat="40.0716384" lon="-105.2298142">
  <ele>1583.0</ele>
  <time>2026-08-28T17:54:33Z</time>
  <course>5.31</course>
  <speed>0.32</speed>
  <fix>3d</fix>
</trkpt>
<trkpt lat="40.0716391" lon="-105.2298139">
  <ele>1583.03</ele>
  <time>2026-08-28T17:54:33Z</time>
  <course>5.87</course>
  <speed>0.4356604182158393</speed>
  <fix>3d</fix>
</trkpt>
<trkpt lat="40.0716391" lon="-105.2298141">
  <ele>1583.0</ele>
  <time>2026-08-28T17:54:33Z</time>
  <course>5.03</course>
  <speed>0.43</speed>
  <fix>3d</fix>
</trkpt>
<trkpt lat="40.0716396" lon="-105.2298139">
  <ele>1583.03</ele>
  <time>2026-08-28T17:54:33Z</time>
  <course>5.72</course>
  <speed>0.4751841748206689</speed>
  <fix>3d</fix>
</trkpt>
<trkpt lat="40.0716391" lon="-105.2298141">
  <ele>1583.0</ele>
  <time>2026-08-28T17:54:33Z</time>
  <course>5.03</course>
  <speed>0.43</speed>
  <fix>3d</fix>
</trkpt>
<trkpt lat="40.0716401" lon="-105.2298138">
  <ele>1583.03</ele>
  <time>2026-08-28T17:54:33Z</time>
  <course>5.57</course>
  <speed>0.5162363799656123</speed>
  <fix>3d</fix>
</trkpt>
<trkpt lat="40.0716391" lon="-105.2298141">
  <ele>1583.0</ele>
  <time>2026-08-28T17:54:33Z</time>
  <course>5.03</course>
  <speed>0.43</speed>
  <fix>3d</fix>
</trkpt>
<trkpt lat="40.0716406" lon="-105.2298137">
  <ele>1583.03</ele>
  <time>2026-08-28T17:54:33Z</time>
  <course>5.43</course>
  <speed>0.5458937625582473</speed>
  <fix>3d</fix>
</trkpt>
<trkpt lat="40.07164" lon="-105.2298141">
  <ele>1583.0</ele>
  <time>2026-08-28T17:54:33Z</time>
  <course>4.73</course>
  <speed>0.51</speed>
  <fix>3d</fix>
</trkpt>
<trkpt lat="40.0716411" lon="-105.2298137">
  <ele>1583.03</ele>
  <time>2026-08-28T17:54:33Z</time>
  <course>5.3</course>
  <speed>0.565685424949238</speed>
  <fix>3d</fix>
</trkpt>
<trkpt lat="40.07164" lon="-105.2298141">
  <ele>1583.0</ele>
  <time>2026-08-28T17:54:33Z</time>
  <course>4.73</course>
  <speed>0.51</speed>
  <fix>3d</fix>
</trkpt>
<trkpt lat="40.0716417" lon="-105.2298136">
  <ele>1583.02</ele>
  <time>2026-08-28T17:54:33Z</time>
  <course>5.18</course>
  <speed>0.5854912467321779</speed>
  <fix>3d</fix>
</trkpt>
<trkpt lat="40.071641" lon="-105.229814">
  <ele>1583.0</ele>
  <time>2026-08-28T17:54:33Z</time>
  <course>4.44</course>
  <speed>0.57</speed>
  <fix>3d</fix>
</trkpt>
<trkpt lat="40.0716423" lon="-105.2298135">
  <ele>1583.02</ele>
  <time>2026-08-28T17:54:33Z</time>
  <course>5.07</course>
  <speed>0.6053098380168622</speed>
  <fix>3d</fix>
</trkpt>
<trkpt lat="40.071641" lon="-105.229814">
  <ele>1583.0</ele>
  <time>2026-08-28T17:54:33Z</time>
  <course>4.44</course>
  <speed>0.57</speed>
  <fix>3d</fix>
</trkpt>
<trkpt lat="40.0716429" lon="-105.2298135">
  <ele>1583.02</ele>
  <time>2026-08-28T17:54:33Z</time>
  <course>4.98</course>
  <speed>0.6152235366108809</speed>
  <fix>3d</fix>
</trkpt>
<trkpt lat="40.071642" lon="-105.2298139">
  <ele>1583.0</ele>
  <time>2026-08-28T17:54:33Z</time>
  <course>4.2</course>
  <speed>0.61</speed>
  <fix>3d</fix>
</trkpt>
<trkpt lat="40.0716435" lon="-105.2298134">
  <ele>1583.01</ele>
  <time>2026-08-28T17:54:33Z</time>
  <course>4.9</course>
  <speed>0.6251399843235114</speed>
  <fix>3d</fix>
</trkpt>
<trkpt lat="40.0716431" lon="-105.2298137">
  <ele>1583.0</ele>
  <time>2026-08-28T17:54:33Z</time>
  <course>4.0</course>
  <speed>0.63</speed>
  <fix>3d</fix>
</trkpt>
<trkpt lat="40.0716441" lon="-105.2298133">
  <ele>1583.01</ele>
  <time>2026-08-28T17:54:33Z</time>
  <course>4.83</course>
  <speed>0.6251399843235114</speed>
  <fix>3d</fix>
</trkpt>
<trkpt lat="40.0716431" lon="-105.2298137">
  <ele>1583.0</ele>
  <time>2026-08-28T17:54:33Z</time>
  <course>4.0</course>
  <speed>0.63</speed>
  <fix>3d</fix>
</trkpt>
<trkpt lat="40.0716447" lon="-105.2298133">
  <ele>1583.01</ele>
  <time>2026-08-28T17:54:33Z</time>
  <course>4.77</course>
  <speed>0.6251399843235114</speed>
  <fix>3d</fix>
</trkpt>
<trkpt lat="40.0716442" lon="-105.2298136">
  <ele>1583.0</ele>
  <time>2026-08-28T17:54:33Z</time>
  <course>3.85</course>
  <speed>0.64</speed>
  <fix>3d</fix>
</trkpt>
<trkpt lat="40.0716453" lon="-105.2298132">
  <ele>1583.0</ele>
  <time>2026-08-28T17:54:33Z</time>
  <course>4.73</course>
  <speed>0.6251399843235114</speed>
  <fix>3d</fix>
</trkpt>
<trkpt lat="40.0716442" lon="-105.2298136">
  <ele>1583.0</ele>
  <time>2026-08-28T17:54:33Z</time>
  <course>3.85</course>
  <speed>0.64</speed>
  <fix>3d</fix>
</trkpt>
<trkpt lat="40.0716459" lon="-105.2298132">
  <ele>1583.0</ele>
  <time>2026-08-28T17:54:33Z</time>
  <course>4.69</course>
  <speed>0.6251399843235114</speed>
  <fix>3d</fix>
</trkpt>
<trkpt lat="40.0716454" lon="-105.2298135">
  <ele>1583.0</ele>
  <time>2026-08-28T17:54:33Z</time>
  <course>3.76</course>
  <speed>0.64</speed>
  <fix>3d</fix>
</trkpt>
<trkpt lat="40.0716465" lon="-105.2298131">
  <ele>1583.0</ele>
  <time>2026-08-28T17:54:33Z</time>
  <course>4.66</course>
  <speed>0.6152235366108809</speed>
  <fix>3d</fix>
</trkpt>
<trkpt lat="40.0716454" lon="-105.2298135">
  <ele>1583.0</ele>
  <time>2026-08-28T17:54:33Z</time>
  <course>3.76</course>
  <speed>0.64</speed>
  <fix>3d</fix>
</trkpt>
<trkpt lat="40.071647" lon="-105.2298131">
  <ele>1583.0</ele>
  <time>2026-08-28T17:54:33Z</time>
  <course>4.64</course>
  <speed>0.6040695324215583</speed>
  <fix>3d</fix>
</trkpt>
<trkpt lat="40.0716466" lon="-105.2298134">
  <ele>1583.0</ele>
  <time>2026-08-28T17:54:33Z</time>
  <course>3.69</course>
  <speed>0.62</speed>
  <fix>3d</fix>
</trkpt>
<trkpt lat="40.0716476" lon="-105.229813">
  <ele>1583.0</ele>
  <time>2026-08-28T17:54:33Z</time>
  <course>4.62</course>
  <speed>0.6040695324215583</speed>
  <fix>3d</fix>
</trkpt>
<trkpt lat="40.0716466" lon="-105.2298134">
  <ele>1583.0</ele>
  <time>2026-08-28T17:54:33Z</time>
  <course>3.69</course>
  <speed>0.62</speed>
  <fix>3d</fix>
</trkpt>
<trkpt lat="40.0716482" lon="-105.229813">
  <ele>1583.0</ele>
  <time>2026-08-28T17:54:33Z</time>
  <course>4.61</course>
  <speed>0.594138031100518</speed>
  <fix>3d</fix>
</trkpt>
<trkpt lat="40.0716477" lon="-105.2298134">
  <ele>1583.0</ele>
  <time>2026-08-28T17:54:33Z</time>
  <course>3.65</course>
  <speed>0.61</speed>
  <fix>3d</fix>
</trkpt>
<trkpt lat="40.0716487" lon="-105.2298129">
  <ele>1583.0</ele>
  <time>2026-08-28T17:54:33Z</time>
  <course>4.59</course>
  <speed>0.5842088667591412</speed>
  <fix>3d</fix>
</trkpt>
<trkpt lat="40.0716477" lon="-105.2298134">
  <ele>1583.0</ele>
  <time>2026-08-28T17:54:33Z</time>
  <course>3.65</course>
  <speed>0.61</speed>
  <fix>3d</fix>
</trkpt>
<trkpt lat="40.0716493" lon="-105.2298129">
  <ele>1583.0</ele>
  <time>2026-08-28T17:54:33Z</time>
  <course>4.59</course>
  <speed>0.5742821606144493</speed>
  <fix>3d</fix>
</trkpt>
<trkpt lat="40.0716488" lon="-105.2298133">
  <ele>1583.0</ele>
  <time>2026-08-28T17:54:33Z</time>
  <course>3.63</course>
  <speed>0.59</speed>
  <fix>3d</fix>
</trkpt>
<trkpt lat="40.0716498" lon="-105.2298128">
  <ele>1583.01</ele>
  <time>2026-08-28T17:54:33Z</time>
  <course>4.59</course>
  <speed>0.5643580423808985</speed>
  <fix>3d</fix>
</trkpt>
<trkpt lat="40.0716488" lon="-105.2298133">
  <ele>1583.0</ele>
  <time>2026-08-28T17:54:33Z</time>
  <course>3.63</course>
  <speed>0.59</speed>
  <fix>3d</fix>
</trkpt>
<trkpt lat="40.0716503" lon="-105.2298128">
  <ele>1583.01</ele>
  <time>2026-08-28T17:54:33Z</time>
  <course>4.58</course>
  <speed>0.5544366510251645</speed>
  <fix>3d</fix>
</trkpt>
<trkpt lat="40.0716498" lon="-105.2298132">
  <ele>1583.0</ele>
  <time>2026-08-28T17:54:33Z</time>
  <course>3.63</course>
  <speed>0.56</speed>
  <fix>3d</fix>
</trkpt>
<trkpt lat="40.0716508" lon="-105.2298128">
  <ele>1583.01</ele>
  <time>2026-08-28T17:54:33Z</time>
  <course>4.58</course>
  <speed>0.5433231082882449</speed>
  <fix>3d</fix>
</trkpt>
<trkpt lat="40.0716498" lon="-105.2298132">
  <ele>1583.0</ele>
  <time>2026-08-28T17:54:33Z</time>
  <course>3.63</course>
  <speed>0.56</speed>
  <fix>3d</fix>
</trkpt>
<trkpt lat="40.0716513" lon="-105.2298127">
  <ele>1583.0</ele>
  <time>2026-08-28T17:54:33Z</time>
  <course>4.58</course>
  <speed>0.5333854141237835</speed>
  <fix>3d</fix>
</trkpt>
<trkpt lat="40.0716498" lon="-105.2298132">
  <ele>1583.0</ele>
  <time>2026-08-28T17:54:33Z</time>
  <course>3.63</course>
  <speed>0.56</speed>
  <fix>3d</fix>
</trkpt>
<trkpt lat="40.0716518" lon="-105.2298127">
  <ele>1583.0</ele>
  <time>2026-08-28T17:54:33Z</time>
  <course>4.59</course>
  <speed>0.523450093132096</speed>
  <fix>3d</fix>
</trkpt>
<trkpt lat="40.0716508" lon="-105.2298131">
  <ele>1583.0</ele>
  <time>2026-08-28T17:54:33Z</time>
  <course>3.63</course>
  <speed>0.54</speed>
  <fix>3d</fix>
</trkpt>
<trkpt lat="40.0716523" lon="-105.2298127">
  <ele>1583.0</ele>
  <time>2026-08-28T17:54:33Z</time>
  <course>4.59</course>
  <speed>0.5135172830587107</speed>
  <fix>3d</fix>
</trkpt>
<trkpt lat="40.0716508" lon="-105.2298131">
  <ele>1583.0</ele>
  <time>2026-08-28T17:54:33Z</time>
  <course>3.63</course>
  <speed>0.54</speed>
  <fix>3d</fix>
</trkpt>
<trkpt lat="40.0716527" lon="-105.2298126">
  <ele>1583.0</ele>
  <time>2026-08-28T17:54:33Z</time>
  <course>4.6</course>
  <speed>0.5035871324805669</speed>
  <fix>3d</fix>
</trkpt>
<trkpt lat="40.0716518" lon="-105.229813">
  <ele>1583.0</ele>
  <time>2026-08-28T17:54:33Z</time>
  <course>3.63</course>
  <speed>0.53</speed>
  <fix>3d</fix>
</trkpt>
<trkpt lat="40.0716532" lon="-105.2298126">
  <ele>1583.0</ele>
  <time>2026-08-28T17:54:33Z</time>
  <course>4.61</course>
  <speed>0.5035871324805669</speed>
  <fix>3d</fix>
</trkpt>
<trkpt lat="40.0716518" lon="-105.229813">
  <ele>1583.0</ele>
  <time>2026-08-28T17:54:33Z</time>
  <course>3.63</course>
  <speed>0.53</speed>
  <fix>3d</fix>
</trkpt>
<trkpt lat="40.0716537" lon="-105.2298126">
  <ele>1583.0</ele>
  <time>2026-08-28T17:54:33Z</time>
  <course>4.62</course>
  <speed>0.4936598018878993</speed>
  <fix>3d</fix>
</trkpt>
<trkpt lat="40.0716527" lon="-105.2298129">
  <ele>1583.0</ele>
  <time>2026-08-28T17:54:33Z</time>
  <course>3.65</course>
  <speed>0.51</speed>
  <fix>3d</fix>
</trkpt>
<trkpt lat="40.0716541" lon="-105.2298125">
  <ele>1583.0</ele>
  <time>2026-08-28T17:54:33Z</time>
  <course>4.63</course>
  <speed>0.4936598018878993</speed>
  <fix>3d</fix>
</trkpt>
<trkpt lat="40.0716527" lon="-105.2298129">
  <ele>1583.0</ele>
  <time>2026-08-28T17:54:33Z</time>
  <course>3.65</course>
  <speed>0.51</speed>
  <fix>3d</fix>
</trkpt>
<trkpt lat="40.0716545" lon="-105.2298125">
  <ele>1583.0</ele>
  <time>2026-08-28T17:54:33Z</time>
  <course>4.64</course>
  <speed>0.4825971404805462</speed>
  <fix>3d</fix>
</trkpt>
<trkpt lat="40.0716536" lon="-105.2298129">
  <ele>1583.0</ele>
  <time>2026-08-28T17:54:33Z</time>
  <course>3.67</course>
  <speed>0.5</speed>
  <fix>3d</fix>
</trkpt>
<trkpt lat="40.071655" lon="-105.2298125">
  <ele>1583.01</ele>
  <time>2026-08-28T17:54:33Z</time>
  <course>4.66</course>
  <speed>0.4825971404805462</speed>
  <fix>3d</fix>
</trkpt>
<trkpt lat="40.0716545" lon="-105.2298128">
  <ele>1583.0</ele>
  <time>2026-08-28T17:54:33Z</time>
  <course>3.69</course>
  <speed>0.49</speed>
  <fix>3d</fix>
</trkpt>
<trkpt lat="40.0716554" lon="-105.2298124">
  <ele>1583.01</ele>
  <time>2026-08-28T17:54:33Z</time>
  <course>4.67</course>
  <speed>0.472652091923859</speed>
  <fix>3d</fix>
</trkpt>
<trkpt lat="40.0716545" lon="-105.2298128">
  <ele>1583.0</ele>
  <time>2026-08-28T17:54:33Z</time>
  <course>3.69</course>
  <speed>0.49</speed>
  <fix>3d</fix>
</trkpt>
<trkpt lat="40.0716558" lon="-105.2298124">
  <ele>1583.01</ele>
  <time>2026-08-28T17:54:33Z</time>
  <course>4.68</course>
  <speed>0.472652091923859</speed>
  <fix>3d</fix>
</trkpt>
<trkpt lat="40.0716554" lon="-105.2298127">
  <ele>1583.0</ele>
  <time>2026-08-28T17:54:33Z</time>
  <course>3.72</course>
  <speed>0.48</speed>
  <fix>3d</fix>
</trkpt>
<trkpt lat="40.0716563" lon="-105.2298124">
  <ele>1583.01</ele>
  <time>2026-08-28T17:54:33Z</time>
  <course>4.69</course>
  <speed>0.472652091923859</speed>
  <fix>3d</fix>
</trkpt>
<trkpt lat="40.0716554" lon="-105.2298127">
  <ele>1583.0</ele>
  <time>2026-08-28T17:54:33Z</time>
  <course>3.72</course>
  <speed>0.48</speed>
  <fix>3d</fix>
</trkpt>
<trkpt lat="40.0716567" lon="-105.2298124">
  <ele>1583.01</ele>
  <time>2026-08-28T17:54:33Z</time>
  <course>4.71</course>
  <speed>0.472652091923859</speed>
  <fix>3d</fix>
</trkpt>
<trkpt lat="40.0716563" lon="-105.2298126">
  <ele>1583.0</ele>
  <time>2026-08-28T17:54:33Z</time>
  <course>3.75</course>
  <speed>0.48</speed>
  <fix>3d</fix>
</trkpt>
<trkpt lat="40.0716572" lon="-105.2298123">
  <ele>1583.01</ele>
  <time>2026-08-28T17:54:33Z</time>
  <course>4.73</course>
  <speed>0.472652091923859</speed>
  <fix>3d</fix>
</trkpt>
<trkpt lat="40.0716563" lon="-105.2298126">
  <ele>1583.0</ele>
  <time>2026-08-28T17:54:33Z</time>
  <course>3.75</course>
  <speed>0.48</speed>
  <fix>3d</fix>
</trkpt>
<trkpt lat="40.0716576" lon="-105.2298123">
  <ele>1583.01</ele>
  <time>2026-08-28T17:54:33Z</time>
  <course>4.74</course>
  <speed>0.472652091923859</speed>
  <fix>3d</fix>
</trkpt>
<trkpt lat="40.0716571" lon="-105.2298125">
  <ele>1583.0</ele>
  <time>2026-08-28T17:54:33Z</time>
  <course>3.78</course>
  <speed>0.48</speed>
  <fix>3d</fix>
</trkpt>
<trkpt lat="40.071658" lon="-105.2298123">
  <ele>1583.01</ele>
  <time>2026-08-28T17:54:33Z</time>
  <course>4.76</course>
  <speed>0.472652091923859</speed>
  <fix>3d</fix>
</trkpt>
<trkpt lat="40.0716571" lon="-105.2298125">
  <ele>1583.0</ele>
  <time>2026-08-28T17:54:33Z</time>
  <course>3.78</course>
  <speed>0.48</speed>
  <fix>3d</fix>
</trkpt>
<trkpt lat="40.0716585" lon="-105.2298122">
  <ele>1583.01</ele>
  <time>2026-08-28T17:54:33Z</time>
  <course>4.77</course>
  <speed>0.472652091923859</speed>
  <fix>3d</fix>
</trkpt>
<trkpt lat="40.071658" lon="-105.2298125">
  <ele>1583.0</ele>
  <time>2026-08-28T17:54:33Z</time>
  <course>3.81</course>
  <speed>0.48</speed>
  <fix>3d</fix>
</trkpt>
<trkpt lat="40.0716589" lon="-105.2298122">
  <ele>1583.01</ele>
  <time>2026-08-28T17:54:33Z</time>
  <course>4.78</course>
  <speed>0.472652091923859</speed>
  <fix>3d</fix>
</trkpt>
<trkpt lat="40.071658" lon="-105.2298125">
  <ele>1583.0</ele>
  <time>2026-08-28T17:54:33Z</time>
  <course>3.81</course>
  <speed>0.48</speed>
  <fix>3d</fix>
</trkpt>
<trkpt lat="40.0716593" lon="-105.2298121">
  <ele>1583.02</ele>
  <time>2026-08-28T17:54:33Z</time>
  <course>4.8</course>
  <speed>0.472652091923859</speed>
  <fix>3d</fix>
</trkpt>
<trkpt lat="40.0716589" lon="-105.2298124">
  <ele>1583.0</ele>
  <time>2026-08-28T17:54:33Z</time>
  <course>3.83</course>
  <speed>0.48</speed>
  <fix>3d</fix>
</trkpt>
<trkpt lat="40.0716598" lon="-105.2298121">
  <ele>1583.02</ele>
  <time>2026-08-28T17:54:33Z</time>
  <course>4.81</course>
  <speed>0.4825971404805462</speed>
  <fix>3d</fix>
</trkpt>
<trkpt lat="40.0716589" lon="-105.2298124">
  <ele>1583.0</ele>
  <time>2026-08-28T17:54:33Z</time>
  <course>3.83</course>
  <speed>0.48</speed>
  <fix>3d</fix>
</trkpt>
<trkpt lat="40.0716602" lon="-105.2298121">
  <ele>1583.02</ele>
  <time>2026-08-28T17:54:33Z</time>
  <course>4.83</course>
  <speed>0.4825971404805462</speed>
  <fix>3d</fix>
</trkpt>
<trkpt lat="40.0716597" lon="-105.2298123">
  <ele>1583.0</ele>
  <time>2026-08-28T17:54:33Z</time>
  <course>3.86</course>
  <speed>0.48</speed>
  <fix>3d</fix>
</trkpt>
<trkpt lat="40.0716607" lon="-105.229812">
  <ele>1583.03</ele>
  <time>2026-08-28T17:54:33Z</time>
  <course>4.84</course>
  <speed>0.4825971404805462</speed>
  <fix>3d</fix>
</trkpt>
<trkpt lat="40.0716597" lon="-105.2298123">
  <ele>1583.0</ele>
  <time>2026-08-28T17:54:33Z</time>
  <course>3.86</course>
  <speed>0.48</speed>
  <fix>3d</fix>
</trkpt>
<trkpt lat="40.0716611" lon="-105.229812">
  <ele>1583.03</ele>
  <time>2026-08-28T17:54:33Z</time>
  <course>4.86</course>
  <speed>0.4825971404805462</speed>
  <fix>3d</fix>
</trkpt>
<trkpt lat="40.0716597" lon="-105.2298123">
  <ele>1583.0</ele>
  <time>2026-08-28T17:54:33Z</time>
  <course>3.86</course>
  <speed>0.48</speed>
  <fix>3d</fix>
</trkpt>
<trkpt lat="40.0716615" lon="-105.229812">
  <ele>1583.03</ele>
  <time>2026-08-28T17:54:33Z</time>
  <course>4.87</course>
  <speed>0.4825971404805462</speed>
  <fix>3d</fix>
</trkpt>
<trkpt lat="40.0716606" lon="-105.2298122">
  <ele>1583.0</ele>
  <time>2026-08-28T17:54:33Z</time>
  <course>3.89</course>
  <speed>0.49</speed>
  <fix>3d</fix>
</trkpt>
<trkpt lat="40.071662" lon="-105.2298119">
  <ele>1583.03</ele>
  <time>2026-08-28T17:54:33Z</time>
  <course>4.89</course>
  <speed>0.4825971404805462</speed>
  <fix>3d</fix>
</trkpt>
<trkpt lat="40.0716606" lon="-105.2298122">
  <ele>1583.0</ele>
  <time>2026-08-28T17:54:33Z</time>
  <course>3.89</course>
  <speed>0.49</speed>
  <fix>3d</fix>
</trkpt>
<trkpt lat="40.0716624" lon="-105.2298119">
  <ele>1583.03</ele>
  <time>2026-08-28T17:54:33Z</time>
  <course>4.9</course>
  <speed>0.4825971404805462</speed>
  <fix>3d</fix>
</trkpt>
<trkpt lat="40.0716615" lon="-105.2298122">
  <ele>1583.0</ele>
  <time>2026-08-28T17:54:33Z</time>
  <course>3.91</course>
  <speed>0.49</speed>
  <fix>3d</fix>
</trkpt>
<trkpt lat="40.0716629" lon="-105.2298118">
  <ele>1583.03</ele>
  <time>2026-08-28T17:54:33Z</time>
  <course>4.92</course>
  <speed>0.4825971404805462</speed>
  <fix>3d</fix>
</trkpt>
<trkpt lat="40.0716615" lon="-105.2298122">
  <ele>1583.0</ele>
  <time>2026-08-28T17:54:33Z</time>
  <course>3.91</course>
  <speed>0.49</speed>
  <fix>3d</fix>
</trkpt>
<trkpt lat="40.0716633" lon="-105.2298118">
  <ele>1583.03</ele>
  <time>2026-08-28T17:54:33Z</time>
  <course>4.93</course>
  <speed>0.4825971404805462</speed>
  <fix>3d</fix>
</trkpt>
<trkpt lat="40.0716624" lon="-105.2298121">
  <ele>1583.0</ele>
  <time>2026-08-28T17:54:33Z</time>
  <course>3.94</course>
  <speed>0.49</speed>
  <fix>3d</fix>
</trkpt>
<trkpt lat="40.0716638" lon="-105.2298118">
  <ele>1583.03</ele>
  <time>2026-08-28T17:54:33Z</time>
  <course>4.95</course>
  <speed>0.49254441424099005</speed>
  <fix>3d</fix>
</trkpt>
<trkpt lat="40.0716633" lon="-105.229812">
  <ele>1583.0</ele>
  <time>2026-08-28T17:54:33Z</time>
  <course>3.97</course>
  <speed>0.49</speed>
  <fix>3d</fix>
</trkpt>
<trkpt lat="40.0716642" lon="-105.2298117">
  <ele>1583.02</ele>
  <time>2026-08-28T17:54:33Z</time>
  <course>4.96</course>
  <speed>0.49254441424099005</speed>
  <fix>3d</fix>
</trkpt>
<trkpt lat="40.0716633" lon="-105.229812">
  <ele>1583.0</ele>
  <time>2026-08-28T17:54:33Z</time>
  <course>3.97</course>
  <speed>0.49</speed>
  <fix>3d</fix>
</trkpt>
<trkpt lat="40.0716647" lon="-105.2298117">
  <ele>1583.02</ele>
  <time>2026-08-28T17:54:33Z</time>
  <course>4.98</course>
  <speed>0.49254441424099005</speed>
  <fix>3d</fix>
</trkpt>
<trkpt lat="40.0716641" lon="-105.2298119">
  <ele>1583.0</ele>
  <time>2026-08-28T17:54:33Z</time>
  <course>3.99</course>
  <speed>0.5</speed>
  <fix>3d</fix>
</trkpt>
<trkpt lat="40.0716651" lon="-105.2298117">
  <ele>1583.02</ele>
  <time>2026-08-28T17:54:33Z</time>
  <course>4.99</course>
  <speed>0.49254441424099005</speed>
  <fix>3d</fix>
</trkpt>
<trkpt lat="40.0716641" lon="-105.2298119">
  <ele>1583.0</ele>
  <time>2026-08-28T17:54:33Z</time>
  <course>3.99</course>
  <speed>0.5</speed>
  <fix>3d</fix>
</trkpt>
<trkpt lat="40.0716655" lon="-105.2298116">
  <ele>1583.01</ele>
  <time>2026-08-28T17:54:33Z</time>
  <course>5.0</course>
  <speed>0.49254441424099005</speed>
  <fix>3d</fix>
</trkpt>
<trkpt lat="40.071665" lon="-105.2298119">
  <ele>1583.0</ele>
  <time>2026-08-28T17:54:33Z</time>
  <course>4.01</course>
  <speed>0.5</speed>
  <fix>3d</fix>
</trkpt>
<trkpt lat="40.071666" lon="-105.2298116">
  <ele>1583.01</ele>
  <time>2026-08-28T17:54:33Z</time>
  <course>5.01</course>
  <speed>0.49254441424099005</speed>
  <fix>3d</fix>
</trkpt>
<trkpt lat="40.071665" lon="-105.2298119">
  <ele>1583.0</ele>
  <time>2026-08-28T17:54:33Z</time>
  <course>4.01</course>
  <speed>0.5</speed>
  <fix>3d</fix>
</trkpt>
<trkpt lat="40.0716664" lon="-105.2298115">
  <ele>1583.01</ele>
  <time>2026-08-28T17:54:33Z</time>
  <course>5.02</course>
  <speed>0.49254441424099005</speed>
  <fix>3d</fix>
</trkpt>
<trkpt lat="40.0716659" lon="-105.2298118">
  <ele>1583.0</ele>
  <time>2026-08-28T17:54:33Z</time>
  <course>4.03</course>
  <speed>0.5</speed>
  <fix>3d</fix>
</trkpt>
<trkpt lat="40.0716669" lon="-105.2298115">
  <ele>1583.01</ele>
  <time>2026-08-28T17:54:33Z</time>
  <course>5.03</course>
  <speed>0.49254441424099005</speed>
  <fix>3d</fix>
</trkpt>
<trkpt lat="40.0716659" lon="-105.2298118">
  <ele>1583.0</ele>
  <time>2026-08-28T17:54:33Z</time>
  <course>4.03</course>
  <speed>0.5</speed>
  <fix>3d</fix>
</trkpt>
<trkpt lat="40.0716673" lon="-105.2298115">
  <ele>1583.01</ele>
  <time>2026-08-28T17:54:33Z</time>
  <course>5.04</course>
  <speed>0.49254441424099005</speed>
  <fix>3d</fix>
</trkpt>
<trkpt lat="40.0716668" lon="-105.2298117">
  <ele>1583.0</ele>
  <time>2026-08-28T17:54:33Z</time>
  <course>4.05</course>
  <speed>0.5</speed>
  <fix>3d</fix>
</trkpt>
<trkpt lat="40.0716678" lon="-105.2298114">
  <ele>1583.02</ele>
  <time>2026-08-28T17:54:33Z</time>
  <course>5.05</course>
  <speed>0.49254441424099005</speed>
  <fix>3d</fix>
</trkpt>
<trkpt lat="40.0716668" lon="-105.2298117">
  <ele>1583.0</ele>
  <time>2026-08-28T17:54:33Z</time>
  <course>4.05</course>
  <speed>0.5</speed>
  <fix>3d</fix>
</trkpt>
<trkpt lat="40.0716682" lon="-105.2298114">
  <ele>1583.02</ele>
  <time>2026-08-28T17:54:33Z</time>
  <course>5.07</course>
  <speed>0.49254441424099005</speed>
  <fix>3d</fix>
</trkpt>
<trkpt lat="40.0716678" lon="-105.2298116">
  <ele>1583.0</ele>
  <time>2026-08-28T17:54:33Z</time>
  <course>4.07</course>
  <speed>0.5</speed>
  <fix>3d</fix>
</trkpt>
<trkpt lat="40.0716687" lon="-105.2298114">
  <ele>1583.01</ele>
  <time>2026-08-28T17:54:33Z</time>
  <course>5.07</course>
  <speed>0.49254441424099005</speed>
  <fix>3d</fix>
</trkpt>
<trkpt lat="40.0716678" lon="-105.2298116">
  <ele>1583.0</ele>
  <time>2026-08-28T17:54:33Z</time>
  <course>4.07</course>
  <speed>0.5</speed>
  <fix>3d</fix>
</trkpt>
<trkpt lat="40.0716692" lon="-105.2298113">
  <ele>1583.01</ele>
  <time>2026-08-28T17:54:33Z</time>
  <course>5.09</course>
  <speed>0.49254441424099005</speed>
  <fix>3d</fix>
</trkpt>
<trkpt lat="40.0716687" lon="-105.2298115">
  <ele>1583.0</ele>
  <time>2026-08-28T17:54:33Z</time>
  <course>4.09</course>
  <speed>0.5</speed>
  <fix>3d</fix>
</trkpt>
<trkpt lat="40.0716696" lon="-105.2298113">
  <ele>1583.01</ele>
  <time>2026-08-28T17:54:33Z</time>
  <course>5.09</course>
  <speed>0.49254441424099005</speed>
  <fix>3d</fix>
</trkpt>
<trkpt lat="40.0716687" lon="-105.2298115">
  <ele>1583.0</ele>
  <time>2026-08-28T17:54:33Z</time>
  <course>4.09</course>
  <speed>0.5</speed>
  <fix>3d</fix>
</trkpt>
<trkpt lat="40.0716701" lon="-105.2298112">
  <ele>1583.01</ele>
  <time>2026-08-28T17:54:33Z</time>
  <course>5.1</course>
  <speed>0.49254441424099005</speed>
  <fix>3d</fix>
</trkpt>
<trkpt lat="40.0716687" lon="-105.2298115">
  <ele>1583.0</ele>
  <time>2026-08-28T17:54:33Z</time>
  <course>4.09</course>
  <speed>0.5</speed>
  <fix>3d</fix>
</trkpt>
<trkpt lat="40.0716705" lon="-105.2298112">
  <ele>1583.01</ele>
  <time>2026-08-28T17:54:33Z</time>
  <course>5.11</course>
  <speed>0.49254441424099005</speed>
  <fix>3d</fix>
</trkpt>
<trkpt lat="40.0716696" lon="-105.2298114">
  <ele>1583.0</ele>
  <time>2026-08-28T17:54:33Z</time>
  <course>4.1</course>
  <speed>0.51</speed>
  <fix>3d</fix>
</trkpt>
<trkpt lat="40.071671" lon="-105.2298111">
  <ele>1583.0</ele>
  <time>2026-08-28T17:54:33Z</time>
  <course>5.12</course>
  <speed>0.49254441424099005</speed>
  <fix>3d</fix>
</trkpt>
<trkpt lat="40.0716696" lon="-105.2298114">
  <ele>1583.0</ele>
  <time>2026-08-28T17:54:33Z</time>
  <course>4.1</course>
  <speed>0.51</speed>
  <fix>3d</fix>
</trkpt>
<trkpt lat="40.0716714" lon="-105.2298111">
  <ele>1583.0</ele>
  <time>2026-08-28T17:54:33Z</time>
  <course>5.13</course>
  <speed>0.49254441424099005</speed>
  <fix>3d</fix>
</trkpt>
<trkpt lat="40.0716705" lon="-105.2298113">
  <ele>1583.0</ele>
  <time>2026-08-28T17:54:33Z</time>
  <course>4.11</course>
  <speed>0.51</speed>
  <fix>3d</fix>
</trkpt>
<trkpt lat="40.0716719" lon="-105.2298111">
  <ele>1583.0</ele>
  <time>2026-08-28T17:54:33Z</time>
  <course>5.14</course>
  <speed>0.49254441424099005</speed>
  <fix>3d</fix>
</trkpt>
<trkpt lat="40.0716705" lon="-105.2298113">
  <ele>1583.0</ele>
  <time>2026-08-28T17:54:33Z</time>
  <course>4.11</course>
  <speed>0.51</speed>
  <fix>3d</fix>
</trkpt>
<trkpt lat="40.0716723" lon="-105.229811">
  <ele>1583.0</ele>
  <time>2026-08-28T17:54:33Z</time>
  <course>5.15</course>
  <speed>0.49254441424099005</speed>
  <fix>3d</fix>
</trkpt>
<trkpt lat="40.0716714" lon="-105.2298113">
  <ele>1583.0</ele>
  <time>2026-08-28T17:54:33Z</time>
  <course>4.13</course>
  <speed>0.51</speed>
  <fix>3d</fix>
</trkpt>
<trkpt lat="40.0716728" lon="-105.229811">
  <ele>1583.0</ele>
  <time>2026-08-28T17:54:33Z</time>
  <course>5.16</course>
  <speed>0.49254441424099005</speed>
  <fix>3d</fix>
</trkpt>
<trkpt lat="40.0716723" lon="-105.2298112">
  <ele>1583.0</ele>
  <time>2026-08-28T17:54:33Z</time>
  <course>4.14</course>
  <speed>0.51</speed>
  <fix>3d</fix>
</trkpt>
<trkpt lat="40.0716733" lon="-105.2298109">
  <ele>1582.99</ele>
  <time>2026-08-28T17:54:33Z</time>
  <course>5.17</course>
  <speed>0.49254441424099005</speed>
  <fix>3d</fix>
</trkpt>
<trkpt lat="40.0716723" lon="-105.2298112">
  <ele>1583.0</ele>
  <time>2026-08-28T17:54:33Z</time>
  <course>4.14</course>
  <speed>0.51</speed>
  <fix>3d</fix>
</trkpt>
<trkpt lat="40.0716737" lon="-105.2298109">
  <ele>1582.99</ele>
  <time>2026-08-28T17:54:33Z</time>
  <course>5.17</course>
  <speed>0.49254441424099005</speed>
  <fix>3d</fix>
</trkpt>
<trkpt lat="40.0716733" lon="-105.2298111">
  <ele>1583.0</ele>
  <time>2026-08-28T17:54:33Z</time>
  <course>4.15</course>
  <speed>0.51</speed>
  <fix>3d</fix>
</trkpt>
<trkpt lat="40.0716742" lon="-105.2298109">
  <ele>1582.99</ele>
  <time>2026-08-28T17:54:33Z</time>
  <course>5.18</course>
  <speed>0.49254441424099005</speed>
  <fix>3d</fix>
</trkpt>
<trkpt lat="40.0716733" lon="-105.2298111">
  <ele>1583.0</ele>
  <time>2026-08-28T17:54:33Z</time>
  <course>4.15</course>
  <speed>0.51</speed>
  <fix>3d</fix>
</trkpt>
<trkpt lat="40.0716746" lon="-105.2298108">
  <ele>1582.98</ele>
  <time>2026-08-28T17:54:33Z</time>
  <course>5.19</course>
  <speed>0.49254441424099005</speed>
  <fix>3d</fix>
</trkpt>
<trkpt lat="40.0716742" lon="-105.229811">
  <ele>1583.0</ele>
  <time>2026-08-28T17:54:33Z</time>
  <course>4.16</course>
  <speed>0.51</speed>
  <fix>3d</fix>
</trkpt>
<trkpt lat="40.0716751" lon="-105.2298108">
  <ele>1582.98</ele>
  <time>2026-08-28T17:54:33Z</time>
  <course>5.19</course>
  <speed>0.49254441424099005</speed>
  <fix>3d</fix>
</trkpt>
<trkpt lat="40.0716742" lon="-105.229811">
  <ele>1583.0</ele>
  <time>2026-08-28T17:54:33Z</time>
  <course>4.16</course>
  <speed>0.51</speed>
  <fix>3d</fix>
</trkpt>
<trkpt lat="40.0716755" lon="-105.2298107">
  <ele>1582.98</ele>
  <time>2026-08-28T17:54:33Z</time>
  <course>5.2</course>
  <speed>0.49254441424099005</speed>
  <fix>3d</fix>
</trkpt>
<trkpt lat="40.0716751" lon="-105.2298109">
  <ele>1583.0</ele>
  <time>2026-08-28T17:54:33Z</time>
  <course>4.17</course>
  <speed>0.51</speed>
  <fix>3d</fix>
</trkpt>
<trkpt lat="40.071676" lon="-105.2298107">
  <ele>1582.98</ele>
  <time>2026-08-28T17:54:33Z</time>
  <course>5.2</course>
  <speed>0.49254441424099005</speed>
  <fix>3d</fix>
</trkpt>
<trkpt lat="40.0716751" lon="-105.2298109">
  <ele>1583.0</ele>
  <time>2026-08-28T17:54:33Z</time>
  <course>4.17</course>
  <speed>0.51</speed>
  <fix>3d</fix>
</trkpt>
<trkpt lat="40.0716765" lon="-105.2298106">
  <ele>1582.98</ele>
  <time>2026-08-28T17:54:33Z</time>
  <course>5.21</course>
  <speed>0.49254441424099005</speed>
  <fix>3d</fix>
</trkpt>
<trkpt lat="40.071676" lon="-105.2298108">
  <ele>1583.0</ele>
  <time>2026-08-28T17:54:33Z</time>
  <course>4.17</course>
  <speed>0.51</speed>
  <fix>3d</fix>
</trkpt>
<trkpt lat="40.0716769" lon="-105.2298106">
  <ele>1582.98</ele>
  <time>2026-08-28T17:54:33Z</time>
  <course>5.21</course>
  <speed>0.49254441424099005</speed>
  <fix>3d</fix>
</trkpt>
<trkpt lat="40.071676" lon="-105.2298108">
  <ele>1583.0</ele>
  <time>2026-08-28T17:54:33Z</time>
  <course>4.17</course>
  <speed>0.51</speed>
  <fix>3d</fix>
</trkpt>
<trkpt lat="40.0716774" lon="-105.2298106">
  <ele>1582.98</ele>
  <time>2026-08-28T17:54:33Z</time>
  <course>5.21</course>
  <speed>0.49254441424099005</speed>
  <fix>3d</fix>
</trkpt>
<trkpt lat="40.0716769" lon="-105.2298107">
  <ele>1583.0</ele>
  <time>2026-08-28T17:54:33Z</time>
  <course>4.17</course>
  <speed>0.51</speed>
  <fix>3d</fix>
</trkpt>
<trkpt lat="40.0716779" lon="-105.2298105">
  <ele>1582.97</ele>
  <time>2026-08-28T17:54:33Z</time>
  <course>5.22</course>
  <speed>0.49254441424099005</speed>
  <fix>3d</fix>
</trkpt>
<trkpt lat="40.0716769" lon="-105.2298107">
  <ele>1583.0</ele>
  <time>2026-08-28T17:54:33Z</time>
  <course>4.17</course>
  <speed>0.51</speed>
  <fix>3d</fix>
</trkpt>
<trkpt lat="40.0716783" lon="-105.2298105">
  <ele>1582.97</ele>
  <time>2026-08-28T17:54:33Z</time>
  <course>5.22</course>
  <speed>0.49254441424099005</speed>
  <fix>3d</fix>
</trkpt>
<trkpt lat="40.0716779" lon="-105.2298107">
  <ele>1583.0</ele>
  <time>2026-08-28T17:54:33Z</time>
  <course>4.17</course>
  <speed>0.51</speed>
  <fix>3d</fix>
</trkpt>
<trkpt lat="40.0716788" lon="-105.2298104">
  <ele>1582.98</ele>
  <time>2026-08-28T17:54:33Z</time>
  <course>5.22</course>
  <speed>0.49254441424099005</speed>
  <fix>3d</fix>
</trkpt>
<trkpt lat="40.0716779" lon="-105.2298107">
  <ele>1583.0</ele>
  <time>2026-08-28T17:54:33Z</time>
  <course>4.17</course>
  <speed>0.51</speed>
  <fix>3d</fix>
</trkpt>
<trkpt lat="40.0716792" lon="-105.2298104">
  <ele>1582.98</ele>
  <time>2026-08-28T17:54:33Z</time>
  <course>5.22</course>
  <speed>0.49254441424099005</speed>
  <fix>3d</fix>
</trkpt>
<trkpt lat="40.0716779" lon="-105.2298107">
  <ele>1583.0</ele>
  <time>2026-08-28T17:54:33Z</time>
  <course>4.17</course>
  <speed>0.51</speed>
  <fix>3d</fix>
</trkpt>
<trkpt lat="40.0716797" lon="-105.2298103">
  <ele>1582.98</ele>
  <time>2026-08-28T17:54:33Z</time>
  <course>5.23</course>
  <speed>0.49254441424099005</speed>
  <fix>3d</fix>
</trkpt>
<trkpt lat="40.0716788" lon="-105.2298106">
  <ele>1583.0</ele>
  <time>2026-08-28T17:54:33Z</time>
  <course>4.18</course>
  <speed>0.51</speed>
  <fix>3d</fix>
</trkpt>
<trkpt lat="40.0716802" lon="-105.2298103">
  <ele>1582.98</ele>
  <time>2026-08-28T17:54:33Z</time>
  <course>5.23</course>
  <speed>0.49254441424099005</speed>
  <fix>3d</fix>
</trkpt>
<trkpt lat="40.0716788" lon="-105.2298106">
  <ele>1583.0</ele>
  <time>2026-08-28T17:54:33Z</time>
  <course>4.18</course>
  <speed>0.51</speed>
  <fix>3d</fix>
</trkpt>
<trkpt lat="40.0716806" lon="-105.2298103">
  <ele>1582.99</ele>
  <time>2026-08-28T17:54:33Z</time>
  <course>5.23</course>
  <speed>0.49254441424099005</speed>
  <fix>3d</fix>
</trkpt>
<trkpt lat="40.0716797" lon="-105.2298105">
  <ele>1583.0</ele>
  <time>2026-08-28T17:54:33Z</time>
  <course>4.18</course>
  <speed>0.51</speed>
  <fix>3d</fix>
</trkpt>
<trkpt lat="40.0716811" lon="-105.2298102">
  <ele>1582.99</ele>
  <time>2026-08-28T17:54:33Z</time>
  <course>5.24</course>
  <speed>0.49254441424099005</speed>
  <fix>3d</fix>
</trkpt>
<trkpt lat="40.0716797" lon="-105.2298105">
  <ele>1583.0</ele>
  <time>2026-08-28T17:54:33Z</time>
  <course>4.18</course>
  <speed>0.51</speed>
  <fix>3d</fix>
</trkpt>
<trkpt lat="40.0716815" lon="-105.2298102">
  <ele>1582.99</ele>
  <time>2026-08-28T17:54:33Z</time>
  <course>5.24</course>
  <speed>0.49254441424099005</speed>
  <fix>3d</fix>
</trkpt>
<trkpt lat="40.0716807" lon="-105.2298104">
  <ele>1583.0</ele>
  <time>2026-08-28T17:54:33Z</time>
  <course>4.18</course>
  <speed>0.51</speed>
  <fix>3d</fix>
</trkpt>
<trkpt lat="40.071682" lon="-105.2298101">
  <ele>1583.0</ele>
  <time>2026-08-28T17:54:33Z</time>
  <course>5.24</course>
  <speed>0.49254441424099005</speed>
  <fix>3d</fix>
</trkpt>
<trkpt lat="40.0716807" lon="-105.2298104">
  <ele>1583.0</ele>
  <time>2026-08-28T17:54:33Z</time>
  <course>4.18</course>
  <speed>0.51</speed>
  <fix>3d</fix>
</trkpt>
<trkpt lat="40.0716825" lon="-105.2298101">
  <ele>1583.0</ele>
  <time>2026-08-28T17:54:33Z</time>
  <course>5.24</course>
  <speed>0.49254441424099005</speed>
  <fix>3d</fix>
</trkpt>
<trkpt lat="40.0716816" lon="-105.2298103">
  <ele>1583.0</ele>
  <time>2026-08-28T17:54:33Z</time>
  <course>4.18</course>
  <speed>0.51</speed>
  <fix>3d</fix>
</trkpt>
<trkpt lat="40.0716829" lon="-105.2298101">
  <ele>1583.0</ele>
  <time>2026-08-28T17:54:33Z</time>
  <course>5.25</course>
  <speed>0.49254441424099005</speed>
  <fix>3d</fix>
</trkpt>
<trkpt lat="40.0716825" lon="-105.2298102">
  <ele>1583.0</ele>
  <time>2026-08-28T17:54:33Z</time>
  <course>4.18</course>
  <speed>0.51</speed>
  <fix>3d</fix>
</trkpt>
<trkpt lat="40.0716834" lon="-105.22981">
  <ele>1583.0</ele>
  <time>2026-08-28T17:54:33Z</time>
  <course>5.25</course>
  <speed>0.49254441424099005</speed>
  <fix>3d</fix>
</trkpt>
<trkpt lat="40.0716825" lon="-105.2298102">
  <ele>1583.0</ele>
  <time>2026-08-28T17:54:33Z</time>
  <course>4.18</course>
  <speed>0.51</speed>
  <fix>3d</fix>
</trkpt>
<trkpt lat="40.0716838" lon="-105.22981">
  <ele>1583.0</ele>
  <time>2026-08-28T17:54:33Z</time>
  <course>5.25</course>
  <speed>0.49254441424099005</speed>
  <fix>3d</fix>
</trkpt>
<trkpt lat="40.0716834" lon="-105.2298101">
  <ele>1583.0</ele>
  <time>2026-08-28T17:54:33Z</time>
  <course>4.18</course>
  <speed>0.51</speed>
  <fix>3d</fix>
</trkpt>
<trkpt lat="40.0716843" lon="-105.2298099">
  <ele>1583.0</ele>
  <time>2026-08-28T17:54:33Z</time>
  <course>5.25</course>
  <speed>0.49254441424099005</speed>
  <fix>3d</fix>
</trkpt>
<trkpt lat="40.0716834" lon="-105.2298101">
  <ele>1583.0</ele>
  <time>2026-08-28T17:54:33Z</time>
  <course>4.18</course>
  <speed>0.51</speed>
  <fix>3d</fix>
</trkpt>
<trkpt lat="40.0716848" lon="-105.2298099">
  <ele>1583.0</ele>
  <time>2026-08-28T17:54:33Z</time>
  <course>5.26</course>
  <speed>0.49254441424099005</speed>
  <fix>3d</fix>
</trkpt>
<trkpt lat="40.0716843" lon="-105.22981">
  <ele>1583.0</ele>
  <time>2026-08-28T17:54:33Z</time>
  <course>4.18</course>
  <speed>0.51</speed>
  <fix>3d</fix>
</trkpt>
<trkpt lat="40.0716852" lon="-105.2298098">
  <ele>1583.0</ele>
  <time>2026-08-28T17:54:33Z</time>
  <course>5.26</course>
  <speed>0.49254441424099005</speed>
  <fix>3d</fix>
</trkpt>
<trkpt lat="40.0716843" lon="-105.22981">
  <ele>1583.0</ele>
  <time>2026-08-28T17:54:33Z</time>
  <course>4.18</course>
  <speed>0.51</speed>
  <fix>3d</fix>
</trkpt>
<trkpt lat="40.0716857" lon="-105.2298098">
  <ele>1583.0</ele>
  <time>2026-08-28T17:54:33Z</time>
  <course>5.27</course>
  <speed>0.49254441424099005</speed>
  <fix>3d</fix>
</trkpt>
<trkpt lat="40.0716853" lon="-105.2298099">
  <ele>1583.0</ele>
  <time>2026-08-28T17:54:33Z</time>
  <course>4.18</course>
  <speed>0.51</speed>
  <fix>3d</fix>
</trkpt>
<trkpt lat="40.0716862" lon="-105.2298097">
  <ele>1583.01</ele>
  <time>2026-08-28T17:54:33Z</time>
  <course>5.27</course>
  <speed>0.49254441424099005</speed>
  <fix>3d</fix>
</trkpt>
<trkpt lat="40.0716853" lon="-105.2298099">
  <ele>1583.0</ele>
  <time>2026-08-28T17:54:33Z</time>
  <course>4.18</course>
  <speed>0.51</speed>
  <fix>3d</fix>
</trkpt>
<trkpt lat="40.0716866" lon="-105.2298097">
  <ele>1583.01</ele>
  <time>2026-08-28T17:54:33Z</time>
  <course>5.28</course>
  <speed>0.49254441424099005</speed>
  <fix>3d</fix>
</trkpt>
<trkpt lat="40.0716862" lon="-105.2298098">
  <ele>1583.0</ele>
  <time>2026-08-28T17:54:33Z</time>
  <course>4.19</course>
  <speed>0.51</speed>
  <fix>3d</fix>
</trkpt>
<trkpt lat="40.0716871" lon="-105.2298096">
  <ele>1583.01</ele>
  <time>2026-08-28T17:54:33Z</time>
  <course>5.28</course>
  <speed>0.49254441424099005</speed>
  <fix>3d</fix>
</trkpt>
<trkpt lat="40.0716862" lon="-105.2298098">
  <ele>1583.0</ele>
  <time>2026-08-28T17:54:33Z</time>
  <course>4.19</course>
  <speed>0.51</speed>
  <fix>3d</fix>
</trkpt>
<trkpt lat="40.0716876" lon="-105.2298096">
  <ele>1583.0</ele>
  <time>2026-08-28T17:54:33Z</time>
  <course>5.29</course>
  <speed>0.49254441424099005</speed>
  <fix>3d</fix>
</trkpt>
<trkpt lat="40.0716872" lon="-105.2298098">
  <ele>1583.0</ele>
  <time>2026-08-28T17:54:33Z</time>
  <course>4.2</course>
  <speed>0.51</speed>
  <fix>3d</fix>
</trkpt>
<trkpt lat="40.071688" lon="-105.2298095">
  <ele>1583.01</ele>
  <time>2026-08-28T17:54:33Z</time>
  <course>5.3</course>
  <speed>0.49254441424099005</speed>
  <fix>3d</fix>
</trkpt>
<trkpt lat="40.0716872" lon="-105.2298098">
  <ele>1583.0</ele>
  <time>2026-08-28T17:54:33Z</time>
  <course>4.2</course>
  <speed>0.51</speed>
  <fix>3d</fix>
</trkpt>
<trkpt lat="40.0716885" lon="-105.2298095">
  <ele>1583.01</ele>
  <time>2026-08-28T17:54:33Z</time>
  <course>5.31</course>
  <speed>0.49254441424099005</speed>
  <fix>3d</fix>
</trkpt>
<trkpt lat="40.0716881" lon="-105.2298097">
  <ele>1583.0</ele>
  <time>2026-08-28T17:54:33Z</time>
  <course>4.21</course>
  <speed>0.51</speed>
  <fix>3d</fix>
</trkpt>
<trkpt lat="40.071689" lon="-105.2298095">
  <ele>1583.01</ele>
  <time>2026-08-28T17:54:33Z</time>
  <course>5.32</course>
  <speed>0.49254441424099005</speed>
  <fix>3d</fix>
</trkpt>
<trkpt lat="40.0716881" lon="-105.2298097">
  <ele>1583.0</ele>
  <time>2026-08-28T17:54:33Z</time>
  <course>4.21</course>
  <speed>0.51</speed>
  <fix>3d</fix>
</trkpt>
<trkpt lat="40.0716894" lon="-105.2298094">
  <ele>1583.02</ele>
  <time>2026-08-28T17:54:33Z</time>
  <course>5.33</course>
  <speed>0.49254441424099005</speed>
  <fix>3d</fix>
</trkpt>
<trkpt lat="40.0716881" lon="-105.2298097">
  <ele>1583.0</ele>
  <time>2026-08-28T17:54:33Z</time>
  <course>4.21</course>
  <speed>0.51</speed>
  <fix>3d</fix>
</trkpt>
<trkpt lat="40.0716899" lon="-105.2298094">
  <ele>1583.02</ele>
  <time>2026-08-28T17:54:33Z</time>
  <course>5.34</course>
  <speed>0.49254441424099005</speed>
  <fix>3d</fix>
</trkpt>
<trkpt lat="40.071689" lon="-105.2298096">
  <ele>1583.0</ele>
  <time>2026-08-28T17:54:33Z</time>
  <course>4.22</course>
  <speed>0.51</speed>
  <fix>3d</fix>
</trkpt>
<trkpt lat="40.0716904" lon="-105.2298093">
  <ele>1583.02</ele>
  <time>2026-08-28T17:54:33Z</time>
  <course>5.35</course>
  <speed>0.49254441424099005</speed>
  <fix>3d</fix>
</trkpt>
<trkpt lat="40.071689" lon="-105.2298096">
  <ele>1583.0</ele>
  <time>2026-08-28T17:54:33Z</time>
  <course>4.22</course>
  <speed>0.51</speed>
  <fix>3d</fix>
</trkpt>
<trkpt lat="40.0716908" lon="-105.2298093">
  <ele>1583.02</ele>
  <time>2026-08-28T17:54:33Z</time>
  <course>5.36</course>
  <speed>0.49254441424099005</speed>
  <fix>3d</fix>
</trkpt>
<trkpt lat="40.0716899" lon="-105.2298095">
  <ele>1583.0</ele>
  <time>2026-08-28T17:54:33Z</time>
  <course>4.23</course>
  <speed>0.51</speed>
  <fix>3d</fix>
</trkpt>
<trkpt lat="40.0716913" lon="-105.2298092">
  <ele>1583.02</ele>
  <time>2026-08-28T17:54:33Z</time>
  <course>5.37</course>
  <speed>0.49254441424099005</speed>
  <fix>3d</fix>
</trkpt>
<trkpt lat="40.0716899" lon="-105.2298095">
  <ele>1583.0</ele>
  <time>2026-08-28T17:54:33Z</time>
  <course>4.23</course>
  <speed>0.51</speed>
  <fix>3d</fix>
</trkpt>
<trkpt lat="40.0716917" lon="-105.2298092">
  <ele>1583.02</ele>
  <time>2026-08-28T17:54:33Z</time>
  <course>5.37</course>
  <speed>0.49254441424099005</speed>
  <fix>3d</fix>
</trkpt>
<trkpt lat="40.0716909" lon="-105.2298094">
  <ele>1583.0</ele>
  <time>2026-08-28T17:54:33Z</time>
  <course>4.25</course>
  <speed>0.51</speed>
  <fix>3d</fix>
</trkpt>
<trkpt lat="40.0716922" lon="-105.2298091">
  <ele>1583.02</ele>
  <time>2026-08-28T17:54:33Z</time>
  <course>5.38</course>
  <speed>0.49254441424099005</speed>
  <fix>3d</fix>
</trkpt>
<trkpt lat="40.0716918" lon="-105.2298093">
  <ele>1583.0</ele>
  <time>2026-08-28T17:54:33Z</time>
  <course>4.26</course>
  <speed>0.51</speed>
  <fix>3d</fix>
</trkpt>
<trkpt lat="40.0716927" lon="-105.2298091">
  <ele>1583.01</ele>
  <time>2026-08-28T17:54:33Z</time>
  <course>5.39</course>
  <speed>0.49254441424099005</speed>
  <fix>3d</fix>
</trkpt>
<trkpt lat="40.0716918" lon="-105.2298093">
  <ele>1583.0</ele>
  <time>2026-08-28T17:54:33Z</time>
  <course>4.26</course>
  <speed>0.51</speed>
  <fix>3d</fix>
</trkpt>
<trkpt lat="40.0716931" lon="-105.2298091">
  <ele>1583.01</ele>
  <time>2026-08-28T17:54:33Z</time>
  <course>5.4</course>
  <speed>0.49254441424099005</speed>
  <fix>3d</fix>
</trkpt>
<trkpt lat="40.0716927" lon="-105.2298092">
  <ele>1583.0</ele>
  <time>2026-08-28T17:54:33Z</time>
  <course>4.28</course>
  <speed>0.51</speed>
  <fix>3d</fix>
</trkpt>
<trkpt lat="40.0716936" lon="-105.229809">
  <ele>1583.01</ele>
  <time>2026-08-28T17:54:33Z</time>
  <course>5.41</course>
  <speed>0.49254441424099005</speed>
  <fix>3d</fix>
</trkpt>
<trkpt lat="40.0716927" lon="-105.2298092">
  <ele>1583.0</ele>
  <time>2026-08-28T17:54:33Z</time>
  <course>4.28</course>
  <speed>0.51</speed>
  <fix>3d</fix>
</trkpt>
<trkpt lat="40.0716941" lon="-105.229809">
  <ele>1583.01</ele>
  <time>2026-08-28T17:54:33Z</time>
  <course>5.42</course>
  <speed>0.49254441424099005</speed>
  <fix>3d</fix>
</trkpt>
<trkpt lat="40.0716937" lon="-105.2298091">
  <ele>1583.0</ele>
  <time>2026-08-28T17:54:33Z</time>
  <course>4.29</course>
  <speed>0.51</speed>
  <fix>3d</fix>
</trkpt>
<trkpt lat="40.0716945" lon="-105.2298089">
  <ele>1583.0</ele>
  <time>2026-08-28T17:54:33Z</time>
  <course>5.43</course>
  <speed>0.49254441424099005</speed>
  <fix>3d</fix>
</trkpt>
<trkpt lat="40.0716937" lon="-105.2298091">
  <ele>1583.0</ele>
  <time>2026-08-28T17:54:33Z</time>
  <course>4.29</course>
  <speed>0.51</speed>
  <fix>3d</fix>
</trkpt>
<trkpt lat="40.071695" lon="-105.2298089">
  <ele>1583.0</ele>
  <time>2026-08-28T17:54:33Z</time>
  <course>5.44</course>
  <speed>0.49254441424099005</speed>
  <fix>3d</fix>
</trkpt>
<trkpt lat="40.0716946" lon="-105.229809">
  <ele>1583.0</ele>
  <time>2026-08-28T17:54:33Z</time>
  <course>4.31</course>
  <speed>0.51</speed>
  <fix>3d</fix>
</trkpt>
<trkpt lat="40.0716955" lon="-105.2298088">
  <ele>1583.0</ele>
  <time>2026-08-28T17:54:33Z</time>
  <course>5.45</course>
  <speed>0.49254441424099005</speed>
  <fix>3d</fix>
</trkpt>
<trkpt lat="40.0716946" lon="-105.229809">
  <ele>1583.0</ele>
  <time>2026-08-28T17:54:33Z</time>
  <course>4.31</course>
  <speed>0.51</speed>
  <fix>3d</fix>
</trkpt>
<trkpt lat="40.0716959" lon="-105.2298088">
  <ele>1583.0</ele>
  <time>2026-08-28T17:54:33Z</time>
  <course>5.46</course>
  <speed>0.49254441424099005</speed>
  <fix>3d</fix>
</trkpt>
<trkpt lat="40.0716955" lon="-105.2298089">
  <ele>1583.0</ele>
  <time>2026-08-28T17:54:33Z</time>
  <course>4.32</course>
  <speed>0.51</speed>
  <fix>3d</fix>
</trkpt>
<trkpt lat="40.0716964" lon="-105.2298087">
  <ele>1582.99</ele>
  <time>2026-08-28T17:54:33Z</time>
  <course>5.46</course>
  <speed>0.49254441424099005</speed>
  <fix>3d</fix>
</trkpt>
<trkpt lat="40.0716955" lon="-105.2298089">
  <ele>1583.0</ele>
  <time>2026-08-28T17:54:33Z</time>
  <course>4.32</course>
  <speed>0.51</speed>
  <fix>3d</fix>
</trkpt>
<trkpt lat="40.0716969" lon="-105.2298087">
  <ele>1582.99</ele>
  <time>2026-08-28T17:54:33Z</time>
  <course>5.47</course>
  <speed>0.49254441424099005</speed>
  <fix>3d</fix>
</trkpt>
<trkpt lat="40.0716965" lon="-105.2298089">
  <ele>1583.0</ele>
  <time>2026-08-28T17:54:33Z</time>
  <course>4.33</course>
  <speed>0.51</speed>
  <fix>3d</fix>
</trkpt>
<trkpt lat="40.0716973" lon="-105.2298086">
  <ele>1582.99</ele>
  <time>2026-08-28T17:54:33Z</time>
  <course>5.48</course>
  <speed>0.49254441424099005</speed>
  <fix>3d</fix>
</trkpt>
<trkpt lat="40.0716965" lon="-105.2298089">
  <ele>1583.0</ele>
  <time>2026-08-28T17:54:33Z</time>
  <course>4.33</course>
  <speed>0.51</speed>
  <fix>3d</fix>
</trkpt>
<trkpt lat="40.0716978" lon="-105.2298086">
  <ele>1582.99</ele>
  <time>2026-08-28T17:54:33Z</time>
  <course>5.49</course>
  <speed>0.49254441424099005</speed>
  <fix>3d</fix>
</trkpt>
<trkpt lat="40.0716974" lon="-105.2298088">
  <ele>1583.0</ele>
  <time>2026-08-28T17:54:33Z</time>
  <course>4.35</course>
  <speed>0.51</speed>
  <fix>3d</fix>
</trkpt>
<trkpt lat="40.0716983" lon="-105.2298085">
  <ele>1582.99</ele>
  <time>2026-08-28T17:54:33Z</time>
  <course>5.5</course>
  <speed>0.49254441424099005</speed>
  <fix>3d</fix>
</trkpt>
<trkpt lat="40.0716974" lon="-105.2298088">
  <ele>1583.0</ele>
  <time>2026-08-28T17:54:33Z</time>
  <course>4.35</course>
  <speed>0.51</speed>
  <fix>3d</fix>
</trkpt>
<trkpt lat="40.0716987" lon="-105.2298085">
  <ele>1582.99</ele>
  <time>2026-08-28T17:54:33Z</time>
  <course>5.5</course>
  <speed>0.49254441424099005</speed>
  <fix>3d</fix>
</trkpt>
<trkpt lat="40.0716974" lon="-105.2298088">
  <ele>1583.0</ele>
  <time>2026-08-28T17:54:33Z</time>
  <course>4.35</course>
  <speed>0.51</speed>
  <fix>3d</fix>
</trkpt>
<trkpt lat="40.0716992" lon="-105.2298084">
  <ele>1582.99</ele>
  <time>2026-08-28T17:54:33Z</time>
  <course>5.51</course>
  <speed>0.49254441424099005</speed>
  <fix>3d</fix>
</trkpt>
<trkpt lat="40.0716983" lon="-105.2298087">
  <ele>1583.0</ele>
  <time>2026-08-28T17:54:33Z</time>
  <course>4.36</course>
  <speed>0.51</speed>
  <fix>3d</fix>
</trkpt>
<trkpt lat="40.0716997" lon="-105.2298084">
  <ele>1582.99</ele>
  <time>2026-08-28T17:54:33Z</time>
  <course>5.52</course>
  <speed>0.49254441424099005</speed>
  <fix>3d</fix>
</trkpt>
<trkpt lat="40.0716983" lon="-105.2298087">
  <ele>1583.0</ele>
  <time>2026-08-28T17:54:33Z</time>
  <course>4.36</course>
  <speed>0.51</speed>
  <fix>3d</fix>
</trkpt>
<trkpt lat="40.0717001" lon="-105.2298084">
  <ele>1582.98</ele>
  <time>2026-08-28T17:54:33Z</time>
  <course>5.53</course>
  <speed>0.49254441424099005</speed>
  <fix>3d</fix>
</trkpt>
<trkpt lat="40.0716992" lon="-105.2298086">
  <ele>1583.0</ele>
  <time>2026-08-28T17:54:33Z</time>
  <course>4.37</course>
  <speed>0.51</speed>
  <fix>3d</fix>
</trkpt>
<trkpt lat="40.0717006" lon="-105.2298083">
  <ele>1582.99</ele>
  <time>2026-08-28T17:54:33Z</time>
  <course>5.54</course>
  <speed>0.49254441424099005</speed>
  <fix>3d</fix>
</trkpt>
<trkpt lat="40.0716992" lon="-105.2298086">
  <ele>1583.0</ele>
  <time>2026-08-28T17:54:33Z</time>
  <course>4.37</course>
  <speed>0.51</speed>
  <fix>3d</fix>
</trkpt>
<trkpt lat="40.071701" lon="-105.2298083">
  <ele>1582.99</ele>
  <time>2026-08-28T17:54:33Z</time>
  <course>5.55</course>
  <speed>0.49254441424099005</speed>
  <fix>3d</fix>
</trkpt>
<trkpt lat="40.0717001" lon="-105.2298085">
  <ele>1583.0</ele>
  <time>2026-08-28T17:54:33Z</time>
  <course>4.39</course>
  <speed>0.51</speed>
  <fix>3d</fix>
</trkpt>
<trkpt lat="40.0717015" lon="-105.2298082">
  <ele>1582.99</ele>
  <time>2026-08-28T17:54:33Z</time>
  <course>5.56</course>
  <speed>0.49254441424099005</speed>
  <fix>3d</fix>
</trkpt>
<trkpt lat="40.0717001" lon="-105.2298085">
  <ele>1583.0</ele>
  <time>2026-08-28T17:54:33Z</time>
  <course>4.39</course>
  <speed>0.51</speed>
  <fix>3d</fix>
</trkpt>
<trkpt lat="40.071702" lon="-105.2298082">
  <ele>1582.99</ele>
  <time>2026-08-28T17:54:33Z</time>
  <course>5.57</course>
  <speed>0.49254441424099005</speed>
  <fix>3d</fix>
</trkpt>
<trkpt lat="40.0717011" lon="-105.2298084">
  <ele>1583.0</ele>
  <time>2026-08-28T17:54:33Z</time>
  <course>4.4</course>
  <speed>0.51</speed>
  <fix>3d</fix>
</trkpt>
<trkpt lat="40.0717024" lon="-105.2298081">
  <ele>1582.99</ele>
  <time>2026-08-28T17:54:33Z</time>
  <course>5.57</course>
  <speed>0.49254441424099005</speed>
  <fix>3d</fix>
</trkpt>
<trkpt lat="40.071702" lon="-105.2298083">
  <ele>1583.0</ele>
  <time>2026-08-28T17:54:33Z</time>
  <course>4.41</course>
  <speed>0.51</speed>
  <fix>3d</fix>
</trkpt>
<trkpt lat="40.0717029" lon="-105.2298081">
  <ele>1582.99</ele>
  <time>2026-08-28T17:54:33Z</time>
  <course>5.58</course>
  <speed>0.49254441424099005</speed>
  <fix>3d</fix>
</trkpt>
<trkpt lat="40.071702" lon="-105.2298083">
  <ele>1583.0</ele>
  <time>2026-08-28T17:54:33Z</time>
  <course>4.41</course>
  <speed>0.51</speed>
  <fix>3d</fix>
</trkpt>
<trkpt lat="40.0717033" lon="-105.229808">
  <ele>1582.99</ele>
  <time>2026-08-28T17:54:33Z</time>
  <course>5.59</course>
  <speed>0.49254441424099005</speed>
  <fix>3d</fix>
</trkpt>
<trkpt lat="40.071703" lon="-105.2298082">
  <ele>1583.0</ele>
  <time>2026-08-28T17:54:33Z</time>
  <course>4.43</course>
  <speed>0.51</speed>
  <fix>3d</fix>
</trkpt>
<trkpt lat="40.0717038" lon="-105.229808">
  <ele>1582.99</ele>
  <time>2026-08-28T17:54:33Z</time>
  <course>5.6</course>
  <speed>0.49254441424099005</speed>
  <fix>3d</fix>
</trkpt>
<trkpt lat="40.071703" lon="-105.2298082">
  <ele>1583.0</ele>
  <time>2026-08-28T17:54:33Z</time>
  <course>4.43</course>
  <speed>0.51</speed>
  <fix>3d</fix>
</trkpt>
<trkpt lat="40.0717043" lon="-105.2298079">
  <ele>1582.99</ele>
  <time>2026-08-28T17:54:33Z</time>
  <course>5.61</course>
  <speed>0.49254441424099005</speed>
  <fix>3d</fix>
</trkpt>
<trkpt lat="40.0717039" lon="-105.2298081">
  <ele>1583.0</ele>
  <time>2026-08-28T17:54:33Z</time>
  <course>4.44</course>
  <speed>0.51</speed>
  <fix>3d</fix>
</trkpt>
<trkpt lat="40.0717047" lon="-105.2298079">
  <ele>1582.99</ele>
  <time>2026-08-28T17:54:33Z</time>
  <course>5.61</course>
  <speed>0.49254441424099005</speed>
  <fix>3d</fix>
</trkpt>
<trkpt lat="40.0717039" lon="-105.2298081">
  <ele>1583.0</ele>
  <time>2026-08-28T17:54:33Z</time>
  <course>4.44</course>
  <speed>0.51</speed>
  <fix>3d</fix>
</trkpt>
<trkpt lat="40.0717052" lon="-105.2298078">
  <ele>1582.99</ele>
  <time>2026-08-28T17:54:33Z</time>
  <course>5.62</course>
  <speed>0.49254441424099005</speed>
  <fix>3d</fix>
</trkpt>
<trkpt lat="40.0717048" lon="-105.229808">
  <ele>1583.0</ele>
  <time>2026-08-28T17:54:33Z</time>
  <course>4.45</course>
  <speed>0.51</speed>
  <fix>3d</fix>
</trkpt>
<trkpt lat="40.0717057" lon="-105.2298078">
  <ele>1582.99</ele>
  <time>2026-08-28T17:54:33Z</time>
  <course>5.62</course>
  <speed>0.49254441424099005</speed>
  <fix>3d</fix>
</trkpt>
<trkpt lat="40.0717048" lon="-105.229808">
  <ele>1583.0</ele>
  <time>2026-08-28T17:54:33Z</time>
  <course>4.45</course>
  <speed>0.51</speed>
  <fix>3d</fix>
</trkpt>
<trkpt lat="40.0717061" lon="-105.2298077">
  <ele>1582.99</ele>
  <time>2026-08-28T17:54:33Z</time>
  <course>5.63</course>
  <speed>0.49254441424099005</speed>
  <fix>3d</fix>
</trkpt>
<trkpt lat="40.0717057" lon="-105.2298079">
  <ele>1583.0</ele>
  <time>2026-08-28T17:54:33Z</time>
  <course>4.46</course>
  <speed>0.51</speed>
  <fix>3d</fix>
</trkpt>
<trkpt lat="40.0717066" lon="-105.2298077">
  <ele>1582.98</ele>
  <time>2026-08-28T17:54:33Z</time>
  <course>5.63</course>
  <speed>0.49254441424099005</speed>
  <fix>3d</fix>
</trkpt>
<trkpt lat="40.0717057" lon="-105.2298079">
  <ele>1583.0</ele>
  <time>2026-08-28T17:54:33Z</time>
  <course>4.46</course>
  <speed>0.51</speed>
  <fix>3d</fix>
</trkpt>
<trkpt lat="40.0717071" lon="-105.2298076">
  <ele>1582.99</ele>
  <time>2026-08-28T17:54:33Z</time>
  <course>5.63</course>
  <speed>0.49254441424099005</speed>
  <fix>3d</fix>
</trkpt>
<trkpt lat="40.0717067" lon="-105.2298078">
  <ele>1583.0</ele>
  <time>2026-08-28T17:54:33Z</time>
  <course>4.46</course>
  <speed>0.51</speed>
  <fix>3d</fix>
</trkpt>
<trkpt lat="40.0717076" lon="-105.2298076">
  <ele>1582.99</ele>
  <time>2026-08-28T17:54:33Z</time>
  <course>5.64</course>
  <speed>0.49254441424099005</speed>
  <fix>3d</fix>
</trkpt>
<trkpt lat="40.0717067" lon="-105.2298078">
  <ele>1583.0</ele>
  <time>2026-08-28T17:54:33Z</time>
  <course>4.46</course>
  <speed>0.51</speed>
  <fix>3d</fix>
</trkpt>
<trkpt lat="40.071708" lon="-105.2298075">
  <ele>1582.99</ele>
  <time>2026-08-28T17:54:33Z</time>
  <course>5.64</course>
  <speed>0.49254441424099005</speed>
  <fix>3d</fix>
</trkpt>
<trkpt lat="40.0717076" lon="-105.2298077">
  <ele>1583.0</ele>
  <time>2026-08-28T17:54:33Z</time>
  <course>4.47</course>
  <speed>0.51</speed>
  <fix>3d</fix>
</trkpt>
<trkpt lat="40.0717085" lon="-105.2298075">
  <ele>1582.99</ele>
  <time>2026-08-28T17:54:33Z</time>
  <course>5.64</course>
  <speed>0.49254441424099005</speed>
  <fix>3d</fix>
</trkpt>
<trkpt lat="40.0717076" lon="-105.2298077">
  <ele>1583.0</ele>
  <time>2026-08-28T17:54:33Z</time>
  <course>4.47</course>
  <speed>0.51</speed>
  <fix>3d</fix>
</trkpt>
<trkpt lat="40.071709" lon="-105.2298074">
  <ele>1582.99</ele>
  <time>2026-08-28T17:54:33Z</time>
  <course>5.65</course>
  <speed>0.49254441424099005</speed>
  <fix>3d</fix>
</trkpt>
<trkpt lat="40.0717076" lon="-105.2298077">
  <ele>1583.0</ele>
  <time>2026-08-28T17:54:33Z</time>
  <course>4.47</course>
  <speed>0.51</speed>
  <fix>3d</fix>
</trkpt>
<trkpt lat="40.0717094" lon="-105.2298074">
  <ele>1582.99</ele>
  <time>2026-08-28T17:54:33Z</time>
  <course>5.65</course>
  <speed>0.49254441424099005</speed>
  <fix>3d</fix>
</trkpt>
<trkpt lat="40.0717085" lon="-105.2298076">
  <ele>1583.0</ele>
  <time>2026-08-28T17:54:33Z</time>
  <course>4.47</course>
  <speed>0.51</speed>
  <fix>3d</fix>
</trkpt>
<trkpt lat="40.0717099" lon="-105.2298073">
  <ele>1583.0</ele>
  <time>2026-08-28T17:54:33Z</time>
  <course>5.65</course>
  <speed>0.49254441424099005</speed>
  <fix>3d</fix>
</trkpt>
<trkpt lat="40.0717085" lon="-105.2298076">
  <ele>1583.0</ele>
  <time>2026-08-28T17:54:33Z</time>
  <course>4.47</course>
  <speed>0.51</speed>
  <fix>3d</fix>
</trkpt>
<trkpt lat="40.0717103" lon="-105.2298073">
  <ele>1583.0</ele>
  <time>2026-08-28T17:54:33Z</time>
  <course>5.66</course>
  <speed>0.49254441424099005</speed>
  <fix>3d</fix>
</trkpt>
<trkpt lat="40.0717095" lon="-105.2298075">
  <ele>1583.0</ele>
  <time>2026-08-28T17:54:33Z</time>
  <course>4.48</course>
  <speed>0.51</speed>
  <fix>3d</fix>
</trkpt>
<trkpt lat="40.0717108" lon="-105.2298072">
  <ele>1583.0</ele>
  <time>2026-08-28T17:54:33Z</time>
  <course>5.66</course>
  <speed>0.49254441424099005</speed>
  <fix>3d</fix>
</trkpt>
<trkpt lat="40.0717095" lon="-105.2298075">
  <ele>1583.0</ele>
  <time>2026-08-28T17:54:33Z</time>
  <course>4.48</course>
  <speed>0.51</speed>
  <fix>3d</fix>
</trkpt>
<trkpt lat="40.0717113" lon="-105.2298072">
  <ele>1583.01</ele>
  <time>2026-08-28T17:54:33Z</time>
  <course>5.67</course>
  <speed>0.49254441424099005</speed>
  <fix>3d</fix>
</trkpt>
<trkpt lat="40.0717104" lon="-105.2298074">
  <ele>1583.0</ele>
  <time>2026-08-28T17:54:33Z</time>
  <course>4.48</course>
  <speed>0.51</speed>
  <fix>3d</fix>
</trkpt>
<trkpt lat="40.0717117" lon="-105.2298071">
  <ele>1583.01</ele>
  <time>2026-08-28T17:54:33Z</time>
  <course>5.67</course>
  <speed>0.49254441424099005</speed>
  <fix>3d</fix>
</trkpt>
<trkpt lat="40.0717114" lon="-105.2298073">
  <ele>1583.0</ele>
  <time>2026-08-28T17:54:33Z</time>
  <course>4.49</course>
  <speed>0.51</speed>
  <fix>3d</fix>
</trkpt>
<trkpt lat="40.0717122" lon="-105.2298071">
  <ele>1583.01</ele>
  <time>2026-08-28T17:54:33Z</time>
  <course>5.67</course>
  <speed>0.49254441424099005</speed>
  <fix>3d</fix>
</trkpt>
<trkpt lat="40.0717114" lon="-105.2298073">
  <ele>1583.0</ele>
  <time>2026-08-28T17:54:33Z</time>
  <course>4.49</course>
  <speed>0.51</speed>
  <fix>3d</fix>
</trkpt>
<trkpt lat="40.0717127" lon="-105.229807">
  <ele>1583.01</ele>
  <time>2026-08-28T17:54:33Z</time>
  <course>5.68</course>
  <speed>0.49254441424099005</speed>
  <fix>3d</fix>
</trkpt>
<trkpt lat="40.0717123" lon="-105.2298072">
  <ele>1583.0</ele>
  <time>2026-08-28T17:54:33Z</time>
  <course>4.49</course>
  <speed>0.51</speed>
  <fix>3d</fix>
</trkpt>
<trkpt lat="40.0717131" lon="-105.229807">
  <ele>1583.01</ele>
  <time>2026-08-28T17:54:33Z</time>
  <course>5.68</course>
  <speed>0.49254441424099005</speed>
  <fix>3d</fix>
</trkpt>
<trkpt lat="40.0717123" lon="-105.2298072">
  <ele>1583.0</ele>
  <time>2026-08-28T17:54:33Z</time>
  <course>4.49</course>
  <speed>0.51</speed>
  <fix>3d</fix>
</trkpt>
<trkpt lat="40.0717136" lon="-105.2298069">
  <ele>1583.01</ele>
  <time>2026-08-28T17:54:33Z</time>
  <course>5.69</course>
  <speed>0.49254441424099005</speed>
  <fix>3d</fix>
</trkpt>
<trkpt lat="40.0717132" lon="-105.2298072">
  <ele>1583.0</ele>
  <time>2026-08-28T17:54:33Z</time>
  <course>4.5</course>
  <speed>0.51</speed>
  <fix>3d</fix>
</trkpt>
<trkpt lat="40.0717141" lon="-105.2298069">
  <ele>1583.02</ele>
  <time>2026-08-28T17:54:33Z</time>
  <course>5.7</course>
  <speed>0.49254441424099005</speed>
  <fix>3d</fix>
</trkpt>
<trkpt lat="40.0717132" lon="-105.2298072">
  <ele>1583.0</ele>
  <time>2026-08-28T17:54:33Z</time>
  <course>4.5</course>
  <speed>0.51</speed>
  <fix>3d</fix>
</trkpt>
<trkpt lat="40.0717145" lon="-105.2298069">
  <ele>1583.01</ele>
  <time>2026-08-28T17:54:33Z</time>
  <course>5.7</course>
  <speed>0.49254441424099005</speed>
  <fix>3d</fix>
</trkpt>
<trkpt lat="40.0717141" lon="-105.2298071">
  <ele>1583.0</ele>
  <time>2026-08-28T17:54:33Z</time>
  <course>4.51</course>
  <speed>0.51</speed>
  <fix>3d</fix>
</trkpt>
<trkpt lat="40.071715" lon="-105.2298068">
  <ele>1583.01</ele>
  <time>2026-08-28T17:54:33Z</time>
  <course>5.71</course>
  <speed>0.49254441424099005</speed>
  <fix>3d</fix>
</trkpt>
<trkpt lat="40.0717141" lon="-105.2298071">
  <ele>1583.0</ele>
  <time>2026-08-28T17:54:33Z</time>
  <course>4.51</course>
  <speed>0.51</speed>
  <fix>3d</fix>
</trkpt>
<trkpt lat="40.0717155" lon="-105.2298068">
  <ele>1583.01</ele>
  <time>2026-08-28T17:54:33Z</time>
  <course>5.72</course>
  <speed>0.49254441424099005</speed>
  <fix>3d</fix>
</trkpt>
<trkpt lat="40.0717151" lon="-105.229807">
  <ele>1583.0</ele>
  <time>2026-08-28T17:54:33Z</time>
  <course>4.52</course>
  <speed>0.51</speed>
  <fix>3d</fix>
</trkpt>
<trkpt lat="40.0717159" lon="-105.2298067">
  <ele>1583.01</ele>
  <time>2026-08-28T17:54:33Z</time>
  <course>5.73</course>
  <speed>0.49254441424099005</speed>
  <fix>3d</fix>
</trkpt>
<trkpt lat="40.0717151" lon="-105.229807">
  <ele>1583.0</ele>
  <time>2026-08-28T17:54:33Z</time>
  <course>4.52</course>
  <speed>0.51</speed>
  <fix>3d</fix>
</trkpt>
<trkpt lat="40.0717164" lon="-105.2298067">
  <ele>1583.01</ele>
  <time>2026-08-28T17:54:33Z</time>
  <course>5.74</course>
  <speed>0.49254441424099005</speed>
  <fix>3d</fix>
</trkpt>
<trkpt lat="40.071716" lon="-105.2298069">
  <ele>1583.0</ele>
  <time>2026-08-28T17:54:33Z</time>
  <course>4.54</course>
  <speed>0.51</speed>
  <fix>3d</fix>
</trkpt>
<trkpt lat="40.0717169" lon="-105.2298066">
  <ele>1583.01</ele>
  <time>2026-08-28T17:54:33Z</time>
  <course>5.74</course>
  <speed>0.49254441424099005</speed>
  <fix>3d</fix>
</trkpt>
<trkpt lat="40.071716" lon="-105.2298069">
  <ele>1583.0</ele>
  <time>2026-08-28T17:54:33Z</time>
  <course>4.54</course>
  <speed>0.51</speed>
  <fix>3d</fix>
</trkpt>
<trkpt lat="40.0717174" lon="-105.2298066">
  <ele>1583.01</ele>
  <time>2026-08-28T17:54:33Z</time>
  <course>5.75</course>
  <speed>0.49254441424099005</speed>
  <fix>3d</fix>
</trkpt>
<trkpt lat="40.0717169" lon="-105.2298068">
  <ele>1583.0</ele>
  <time>2026-08-28T17:54:33Z</time>
  <course>4.55</course>
  <speed>0.51</speed>
  <fix>3d</fix>
</trkpt>
<trkpt lat="40.0717178" lon="-105.2298065">
  <ele>1583.01</ele>
  <time>2026-08-28T17:54:33Z</time>
  <course>5.76</course>
  <speed>0.49254441424099005</speed>
  <fix>3d</fix>
</trkpt>
<trkpt lat="40.0717169" lon="-105.2298068">
  <ele>1583.0</ele>
  <time>2026-08-28T17:54:33Z</time>
  <course>4.55</course>
  <speed>0.51</speed>
  <fix>3d</fix>
</trkpt>
<trkpt lat="40.0717183" lon="-105.2298065">
  <ele>1583.01</ele>
  <time>2026-08-28T17:54:33Z</time>
  <course>5.77</course>
  <speed>0.49254441424099005</speed>
  <fix>3d</fix>
</trkpt>
<trkpt lat="40.0717169" lon="-105.2298068">
  <ele>1583.0</ele>
  <time>2026-08-28T17:54:33Z</time>
  <course>4.55</course>
  <speed>0.51</speed>
  <fix>3d</fix>
</trkpt>
<trkpt lat="40.0717187" lon="-105.2298064">
  <ele>1583.01</ele>
  <time>2026-08-28T17:54:33Z</time>
  <course>5.77</course>
  <speed>0.49254441424099005</speed>
  <fix>3d</fix>
</trkpt>
<trkpt lat="40.0717178" lon="-105.2298067">
  <ele>1583.0</ele>
  <time>2026-08-28T17:54:33Z</time>
  <course>4.57</course>
  <speed>0.51</speed>
  <fix>3d</fix>
</trkpt>
<trkpt lat="40.0717192" lon="-105.2298064">
  <ele>1583.01</ele>
  <time>2026-08-28T17:54:33Z</time>
  <course>5.78</course>
  <speed>0.49254441424099005</speed>
  <fix>3d</fix>
</trkpt>
<trkpt lat="40.0717178" lon="-105.2298067">
  <ele>1583.0</ele>
  <time>2026-08-28T17:54:33Z</time>
  <course>4.57</course>
  <speed>0.51</speed>
  <fix>3d</fix>
</trkpt>
<trkpt lat="40.0717197" lon="-105.2298064">
  <ele>1583.01</ele>
  <time>2026-08-28T17:54:33Z</time>
  <course>5.79</course>
  <speed>0.49254441424099005</speed>
  <fix>3d</fix>
</trkpt>
<trkpt lat="40.0717188" lon="-105.2298066">
  <ele>1583.0</ele>
  <time>2026-08-28T17:54:33Z</time>
  <course>4.58</course>
  <speed>0.51</speed>
  <fix>3d</fix>
</trkpt>
<trkpt lat="40.0717201" lon="-105.2298063">
  <ele>1583.01</ele>
  <time>2026-08-28T17:54:33Z</time>
  <course>5.8</course>
  <speed>0.49254441424099005</speed>
  <fix>3d</fix>
</trkpt>
<trkpt lat="40.0717188" lon="-105.2298066">
  <ele>1583.0</ele>
  <time>2026-08-28T17:54:33Z</time>
  <course>4.58</course>
  <speed>0.51</speed>
  <fix>3d</fix>
</trkpt>
<trkpt lat="40.0717206" lon="-105.2298063">
  <ele>1583.0</ele>
  <time>2026-08-28T17:54:33Z</time>
  <course>5.8</course>
  <speed>0.49254441424099005</speed>
  <fix>3d</fix>
</trkpt>
<trkpt lat="40.0717197" lon="-105.2298065">
  <ele>1583.0</ele>
  <time>2026-08-28T17:54:33Z</time>
  <course>4.59</course>
  <speed>0.51</speed>
  <fix>3d</fix>
</trkpt>
<trkpt lat="40.071721" lon="-105.2298062">
  <ele>1583.0</ele>
  <time>2026-08-28T17:54:33Z</time>
  <course>5.8</course>
  <speed>0.49254441424099005</speed>
  <fix>3d</fix>
</trkpt>
<trkpt lat="40.0717197" lon="-105.2298065">
  <ele>1583.0</ele>
  <time>2026-08-28T17:54:33Z</time>
  <course>4.59</course>
  <speed>0.51</speed>
  <fix>3d</fix>
</trkpt>
<trkpt lat="40.0717215" lon="-105.2298062">
  <ele>1583.0</ele>
  <time>2026-08-28T17:54:33Z</time>
  <course>5.81</course>
  <speed>0.49254441424099005</speed>
  <fix>3d</fix>
</trkpt>
<trkpt lat="40.0717207" lon="-105.2298064">
  <ele>1583.0</ele>
  <time>2026-08-28T17:54:33Z</time>
  <course>4.6</course>
  <speed>0.51</speed>
  <fix>3d</fix>
</trkpt>
<trkpt lat="40.071722" lon="-105.2298061">
  <ele>1583.0</ele>
  <time>2026-08-28T17:54:33Z</time>
  <course>5.82</course>
  <speed>0.49254441424099005</speed>
  <fix>3d</fix>
</trkpt>
<trkpt lat="40.0717216" lon="-105.2298063">
  <ele>1583.0</ele>
  <time>2026-08-28T17:54:33Z</time>
  <course>4.61</course>
  <speed>0.51</speed>
  <fix>3d</fix>
</trkpt>
<trkpt lat="40.0717224" lon="-105.2298061">
  <ele>1583.0</ele>
  <time>2026-08-28T17:54:33Z</time>
  <course>5.83</course>
  <speed>0.49254441424099005</speed>
  <fix>3d</fix>
</trkpt>
<trkpt lat="40.0717216" lon="-105.2298063">
  <ele>1583.0</ele>
  <time>2026-08-28T17:54:33Z</time>
  <course>4.61</course>
  <speed>0.51</speed>
  <fix>3d</fix>
</trkpt>
<trkpt lat="40.0717229" lon="-105.229806">
  <ele>1583.0</ele>
  <time>2026-08-28T17:54:33Z</time>
  <course>5.83</course>
  <speed>0.49254441424099005</speed>
  <fix>3d</fix>
</trkpt>
<trkpt lat="40.0717225" lon="-105.2298062">
  <ele>1583.0</ele>
  <time>2026-08-28T17:54:33Z</time>
  <course>4.63</course>
  <speed>0.51</speed>
  <fix>3d</fix>
</trkpt>
<trkpt lat="40.0717234" lon="-105.229806">
  <ele>1583.0</ele>
  <time>2026-08-28T17:54:33Z</time>
  <course>5.84</course>
  <speed>0.49254441424099005</speed>
  <fix>3d</fix>
</trkpt>
<trkpt lat="40.0717225" lon="-105.2298062">
  <ele>1583.0</ele>
  <time>2026-08-28T17:54:33Z</time>
  <course>4.63</course>
  <speed>0.51</speed>
  <fix>3d</fix>
</trkpt>
<trkpt lat="40.0717238" lon="-105.2298059">
  <ele>1583.0</ele>
  <time>2026-08-28T17:54:33Z</time>
  <course>5.84</course>
  <speed>0.49254441424099005</speed>
  <fix>3d</fix>
</trkpt>
<trkpt lat="40.0717235" lon="-105.2298061">
  <ele>1583.0</ele>
  <time>2026-08-28T17:54:33Z</time>
  <course>4.64</course>
  <speed>0.51</speed>
  <fix>3d</fix>
</trkpt>
<trkpt lat="40.0717243" lon="-105.2298059">
  <ele>1582.99</ele>
  <time>2026-08-28T17:54:33Z</time>
  <course>5.85</course>
  <speed>0.49254441424099005</speed>
  <fix>3d</fix>
</trkpt>
<trkpt lat="40.0717235" lon="-105.2298061">
  <ele>1583.0</ele>
  <time>2026-08-28T17:54:33Z</time>
  <course>4.64</course>
  <speed>0.51</speed>
  <fix>3d</fix>
</trkpt>
<trkpt lat="40.0717248" lon="-105.2298058">
  <ele>1582.99</ele>
  <time>2026-08-28T17:54:33Z</time>
  <course>5.86</course>
  <speed>0.49254441424099005</speed>
  <fix>3d</fix>
</trkpt>
<trkpt lat="40.0717244" lon="-105.229806">
  <ele>1583.0</ele>
  <time>2026-08-28T17:54:33Z</time>
  <course>4.65</course>
  <speed>0.51</speed>
  <fix>3d</fix>
</trkpt>
<trkpt lat="40.0717253" lon="-105.2298058">
  <ele>1582.99</ele>
  <time>2026-08-28T17:54:33Z</time>
  <course>5.87</course>
  <speed>0.49254441424099005</speed>
  <fix>3d</fix>
</trkpt>
<trkpt lat="40.0717244" lon="-105.229806">
  <ele>1583.0</ele>
  <time>2026-08-28T17:54:33Z</time>
  <course>4.65</course>
  <speed>0.51</speed>
  <fix>3d</fix>
</trkpt>
<trkpt lat="40.0717257" lon="-105.2298057">
  <ele>1582.99</ele>
  <time>2026-08-28T17:54:33Z</time>
  <course>5.87</course>
  <speed>0.49254441424099005</speed>
  <fix>3d</fix>
</trkpt>
<trkpt lat="40.0717253" lon="-105.2298059">
  <ele>1583.0</ele>
  <time>2026-08-28T17:54:33Z</time>
  <course>4.66</course>
  <speed>0.51</speed>
  <fix>3d</fix>
</trkpt>
<trkpt lat="40.0717262" lon="-105.2298057">
  <ele>1582.99</ele>
  <time>2026-08-28T17:54:33Z</time>
  <course>5.88</course>
  <speed>0.49254441424099005</speed>
  <fix>3d</fix>
</trkpt>
<trkpt lat="40.0717253" lon="-105.2298059">
  <ele>1583.0</ele>
  <time>2026-08-28T17:54:33Z</time>
  <course>4.66</course>
  <speed>0.51</speed>
  <fix>3d</fix>
</trkpt>
<trkpt lat="40.0717267" lon="-105.2298056">
  <ele>1582.99</ele>
  <time>2026-08-28T17:54:33Z</time>
  <course>5.89</course>
  <speed>0.49254441424099005</speed>
  <fix>3d</fix>
</trkpt>
<trkpt lat="40.0717262" lon="-105.2298058">
  <ele>1583.0</ele>
  <time>2026-08-28T17:54:33Z</time>
  <course>4.67</course>
  <speed>0.51</speed>
  <fix>3d</fix>
</trkpt>
<trkpt lat="40.0717271" lon="-105.2298056">
  <ele>1583.0</ele>
  <time>2026-08-28T17:54:33Z</time>
  <course>5.89</course>
  <speed>0.49254441424099005</speed>
  <fix>3d</fix>
</trkpt>
<trkpt lat="40.0717262" lon="-105.2298058">
  <ele>1583.0</ele>
  <time>2026-08-28T17:54:33Z</time>
  <course>4.67</course>
  <speed>0.51</speed>
  <fix>3d</fix>
</trkpt>
<trkpt lat="40.0717276" lon="-105.2298055">
  <ele>1583.0</ele>
  <time>2026-08-28T17:54:33Z</time>
  <course>5.9</course>
  <speed>0.49254441424099005</speed>
  <fix>3d</fix>
</trkpt>
<trkpt lat="40.0717262" lon="-105.2298058">
  <ele>1583.0</ele>
  <time>2026-08-28T17:54:33Z</time>
  <course>4.67</course>
  <speed>0.51</speed>
  <fix>3d</fix>
</trkpt>
<trkpt lat="40.0717281" lon="-105.2298055">
  <ele>1583.0</ele>
  <time>2026-08-28T17:54:33Z</time>
  <course>5.91</course>
  <speed>0.49254441424099005</speed>
  <fix>3d</fix>
</trkpt>
<trkpt lat="40.0717272" lon="-105.2298057">
  <ele>1583.0</ele>
  <time>2026-08-28T17:54:33Z</time>
  <course>4.69</course>
  <speed>0.51</speed>
  <fix>3d</fix>
</trkpt>
<trkpt lat="40.0717285" lon="-105.2298054">
  <ele>1583.0</ele>
  <time>2026-08-28T17:54:33Z</time>
  <course>5.92</course>
  <speed>0.49254441424099005</speed>
  <fix>3d</fix>
</trkpt>
<trkpt lat="40.0717272" lon="-105.2298057">
  <ele>1583.0</ele>
  <time>2026-08-28T17:54:33Z</time>
  <course>4.69</course>
  <speed>0.51</speed>
  <fix>3d</fix>
</trkpt>
<trkpt lat="40.071729" lon="-105.2298054">
  <ele>1583.0</ele>
  <time>2026-08-28T17:54:34Z</time>
  <course>5.93</course>
  <speed>0.49254441424099005</speed>
  <fix>3d</fix>
</trkpt>
<trkpt lat="40.0717281" lon="-105.2298056">
  <ele>1583.0</ele>
  <time>2026-08-28T17:54:34Z</time>
  <course>4.7</course>
  <speed>0.51</speed>
  <fix>3d</fix>
</trkpt>
<trkpt lat="40.0717294" lon="-105.2298053">
  <ele>1583.0</ele>
  <time>2026-08-28T17:54:34Z</time>
  <course>5.93</course>
  <speed>0.49254441424099005</speed>
  <fix>3d</fix>
</trkpt>
<trkpt lat="40.0717281" lon="-105.2298056">
  <ele>1583.0</ele>
  <time>2026-08-28T17:54:34Z</time>
  <course>4.7</course>
  <speed>0.51</speed>
  <fix>3d</fix>
</trkpt>
<trkpt lat="40.0717299" lon="-105.2298053">
  <ele>1583.0</ele>
  <time>2026-08-28T17:54:34Z</time>
  <course>5.94</course>
  <speed>0.49254441424099005</speed>
  <fix>3d</fix>
</trkpt>
<trkpt lat="40.071729" lon="-105.2298055">
  <ele>1583.0</ele>
  <time>2026-08-28T17:54:34Z</time>
  <course>4.72</course>
  <speed>0.51</speed>
  <fix>3d</fix>
</trkpt>
<trkpt lat="40.0717304" lon="-105.2298052">
  <ele>1583.0</ele>
  <time>2026-08-28T17:54:34Z</time>
  <course>5.95</course>
  <speed>0.49254441424099005</speed>
  <fix>3d</fix>
</trkpt>
<trkpt lat="40.071729" lon="-105.2298055">
  <ele>1583.0</ele>
  <time>2026-08-28T17:54:34Z</time>
  <course>4.72</course>
  <speed>0.51</speed>
  <fix>3d</fix>
</trkpt>
<trkpt lat="40.0717308" lon="-105.2298052">
  <ele>1583.0</ele>
  <time>2026-08-28T17:54:34Z</time>
  <course>5.96</course>
  <speed>0.49254441424099005</speed>
  <fix>3d</fix>
</trkpt>
<trkpt lat="40.07173" lon="-105.2298054">
  <ele>1583.0</ele>
  <time>2026-08-28T17:54:34Z</time>
  <course>4.73</course>
  <speed>0.51</speed>
  <fix>3d</fix>
</trkpt>
<trkpt lat="40.0717313" lon="-105.2298051">
  <ele>1583.0</ele>
  <time>2026-08-28T17:54:34Z</time>
  <course>5.97</course>
  <speed>0.49254441424099005</speed>
  <fix>3d</fix>
</trkpt>
<trkpt lat="40.0717309" lon="-105.2298053">
  <ele>1583.0</ele>
  <time>2026-08-28T17:54:34Z</time>
  <course>4.75</course>
  <speed>0.51</speed>
  <fix>3d</fix>
</trkpt>
<trkpt lat="40.0717318" lon="-105.2298051">
  <ele>1583.0</ele>
  <time>2026-08-28T17:54:34Z</time>
  <course>5.98</course>
  <speed>0.49254441424099005</speed>
  <fix>3d</fix>
</trkpt>
<trkpt lat="40.0717309" lon="-105.2298053">
  <ele>1583.0</ele>
  <time>2026-08-28T17:54:34Z</time>
  <course>4.75</course>
  <speed>0.51</speed>
  <fix>3d</fix>
</trkpt>
<trkpt lat="40.0717322" lon="-105.229805">
  <ele>1583.0</ele>
  <time>2026-08-28T17:54:34Z</time>
  <course>5.98</course>
  <speed>0.49254441424099005</speed>
  <fix>3d</fix>
</trkpt>
<trkpt lat="40.0717318" lon="-105.2298052">
  <ele>1583.0</ele>
  <time>2026-08-28T17:54:34Z</time>
  <course>4.77</course>
  <speed>0.51</speed>
  <fix>3d</fix>
</trkpt>
<trkpt lat="40.0717327" lon="-105.229805">
  <ele>1583.0</ele>
  <time>2026-08-28T17:54:34Z</time>
  <course>5.99</course>
  <speed>0.49254441424099005</speed>
  <fix>3d</fix>
</trkpt>
<trkpt lat="40.0717318" lon="-105.2298052">
  <ele>1583.0</ele>
  <time>2026-08-28T17:54:34Z</time>
  <course>4.77</course>
  <speed>0.51</speed>
  <fix>3d</fix>
</trkpt>
<trkpt lat="40.0717331" lon="-105.2298049">
  <ele>1583.0</ele>
  <time>2026-08-28T17:54:34Z</time>
  <course>6.0</course>
  <speed>0.49254441424099005</speed>
  <fix>3d</fix>
</trkpt>
<trkpt lat="40.0717328" lon="-105.2298051">
  <ele>1583.0</ele>
  <time>2026-08-28T17:54:34Z</time>
  <course>4.78</course>
  <speed>0.51</speed>
  <fix>3d</fix>
</trkpt>
<trkpt lat="40.0717336" lon="-105.2298049">
  <ele>1583.0</ele>
  <time>2026-08-28T17:54:34Z</time>
  <course>6.01</course>
  <speed>0.49254441424099005</speed>
  <fix>3d</fix>
</trkpt>
<trkpt lat="40.0717328" lon="-105.2298051">
  <ele>1583.0</ele>
  <time>2026-08-28T17:54:34Z</time>
  <course>4.78</course>
  <speed>0.51</speed>
  <fix>3d</fix>
</trkpt>
<trkpt lat="40.0717341" lon="-105.2298048">
  <ele>1583.0</ele>
  <time>2026-08-28T17:54:34Z</time>
  <course>6.02</course>
  <speed>0.49254441424099005</speed>
  <fix>3d</fix>
</trkpt>
<trkpt lat="40.0717337" lon="-105.229805">
  <ele>1583.0</ele>
  <time>2026-08-28T17:54:34Z</time>
  <course>4.8</course>
  <speed>0.51</speed>
  <fix>3d</fix>
</trkpt>
<trkpt lat="40.0717346" lon="-105.2298048">
  <ele>1583.0</ele>
  <time>2026-08-28T17:54:34Z</time>
  <course>6.03</course>
  <speed>0.49254441424099005</speed>
  <fix>3d</fix>
</trkpt>
<trkpt lat="40.0717337" lon="-105.229805">
  <ele>1583.0</ele>
  <time>2026-08-28T17:54:34Z</time>
  <course>4.8</course>
  <speed>0.51</speed>
  <fix>3d</fix>
</trkpt>
<trkpt lat="40.071735" lon="-105.2298047">
  <ele>1583.01</ele>
  <time>2026-08-28T17:54:34Z</time>
  <course>6.03</course>
  <speed>0.49254441424099005</speed>
  <fix>3d</fix>
</trkpt>
<trkpt lat="40.0717346" lon="-105.2298049">
  <ele>1583.0</ele>
  <time>2026-08-28T17:54:34Z</time>
  <course>4.81</course>
  <speed>0.51</speed>
  <fix>3d</fix>
</trkpt>
<trkpt lat="40.0717355" lon="-105.2298047">
  <ele>1583.01</ele>
  <time>2026-08-28T17:54:34Z</time>
  <course>6.04</course>
  <speed>0.49254441424099005</speed>
  <fix>3d</fix>
</trkpt>
<trkpt lat="40.0717346" lon="-105.2298049">
  <ele>1583.0</ele>
  <time>2026-08-28T17:54:34Z</time>
  <course>4.81</course>
  <speed>0.51</speed>
  <fix>3d</fix>
</trkpt>
<trkpt lat="40.071736" lon="-105.2298046">
  <ele>1583.01</ele>
  <time>2026-08-28T17:54:34Z</time>
  <course>6.04</course>
  <speed>0.49254441424099005</speed>
  <fix>3d</fix>
</trkpt>
<trkpt lat="40.0717355" lon="-105.2298048">
  <ele>1583.0</ele>
  <time>2026-08-28T17:54:34Z</time>
  <course>4.82</course>
  <speed>0.51</speed>
  <fix>3d</fix>
</trkpt>
<trkpt lat="40.0717364" lon="-105.2298046">
  <ele>1583.02</ele>
  <time>2026-08-28T17:54:34Z</time>
  <course>6.05</course>
  <speed>0.49254441424099005</speed>
  <fix>3d</fix>
</trkpt>
<trkpt lat="40.0717355" lon="-105.2298048">
  <ele>1583.0</ele>
  <time>2026-08-28T17:54:34Z</time>
  <course>4.82</course>
  <speed>0.51</speed>
  <fix>3d</fix>
</trkpt>
<trkpt lat="40.0717369" lon="-105.2298045">
  <ele>1583.02</ele>
  <time>2026-08-28T17:54:34Z</time>
  <course>6.06</course>
  <speed>0.49254441424099005</speed>
  <fix>3d</fix>
</trkpt>
<trkpt lat="40.0717365" lon="-105.2298047">
  <ele>1583.0</ele>
  <time>2026-08-28T17:54:34Z</time>
  <course>4.84</course>
  <speed>0.51</speed>
  <fix>3d</fix>
</trkpt>
<trkpt lat="40.0717374" lon="-105.2298045">
  <ele>1583.02</ele>
  <time>2026-08-28T17:54:34Z</time>
  <course>6.07</course>
  <speed>0.49254441424099005</speed>
  <fix>3d</fix>
</trkpt>
<trkpt lat="40.0717365" lon="-105.2298047">
  <ele>1583.0</ele>
  <time>2026-08-28T17:54:34Z</time>
  <course>4.84</course>
  <speed>0.51</speed>
  <fix>3d</fix>
</trkpt>
<trkpt lat="40.0717378" lon="-105.2298044">
  <ele>1583.02</ele>
  <time>2026-08-28T17:54:34Z</time>
  <course>6.07</course>
  <speed>0.49254441424099005</speed>
  <fix>3d</fix>
</trkpt>
<trkpt lat="40.0717365" lon="-105.2298047">
  <ele>1583.0</ele>
  <time>2026-08-28T17:54:34Z</time>
  <course>4.84</course>
  <speed>0.51</speed>
  <fix>3d</fix>
</trkpt>
<trkpt lat="40.0717383" lon="-105.2298044">
  <ele>1583.02</ele>
  <time>2026-08-28T17:54:34Z</time>
  <course>6.08</course>
  <speed>0.49254441424099005</speed>
  <fix>3d</fix>
</trkpt>
<trkpt lat="40.0717374" lon="-105.2298046">
  <ele>1583.0</ele>
  <time>2026-08-28T17:54:34Z</time>
  <course>4.85</course>
  <speed>0.51</speed>
  <fix>3d</fix>
</trkpt>
<trkpt lat="40.0717387" lon="-105.2298043">
  <ele>1583.02</ele>
  <time>2026-08-28T17:54:34Z</time>
  <course>6.08</course>
  <speed>0.49254441424099005</speed>
  <fix>3d</fix>
</trkpt>
<trkpt lat="40.0717374" lon="-105.2298046">
  <ele>1583.0</ele>
  <time>2026-08-28T17:54:34Z</time>
  <course>4.85</course>
  <speed>0.51</speed>
  <fix>3d</fix>
</trkpt>
<trkpt lat="40.0717392" lon="-105.2298043">
  <ele>1583.02</ele>
  <time>2026-08-28T17:54:34Z</time>
  <course>6.09</course>
  <speed>0.49254441424099005</speed>
  <fix>3d</fix>
</trkpt>
<trkpt lat="40.0717383" lon="-105.2298045">
  <ele>1583.0</ele>
  <time>2026-08-28T17:54:34Z</time>
  <course>4.86</course>
  <speed>0.51</speed>
  <fix>3d</fix>
</trkpt>
<trkpt lat="40.0717397" lon="-105.2298042">
  <ele>1583.02</ele>
  <time>2026-08-28T17:54:34Z</time>
  <course>6.1</course>
  <speed>0.49254441424099005</speed>
  <fix>3d</fix>
</trkpt>
<trkpt lat="40.0717383" lon="-105.2298045">
  <ele>1583.0</ele>
  <time>2026-08-28T17:54:34Z</time>
  <course>4.86</course>
  <speed>0.51</speed>
  <fix>3d</fix>
</trkpt>
<trkpt lat="40.0717401" lon="-105.2298042">
  <ele>1583.02</ele>
  <time>2026-08-28T17:54:34Z</time>
  <course>6.11</course>
  <speed>0.49254441424099005</speed>
  <fix>3d</fix>
</trkpt>
<trkpt lat="40.0717393" lon="-105.2298044">
  <ele>1583.0</ele>
  <time>2026-08-28T17:54:34Z</time>
  <course>4.88</course>
  <speed>0.51</speed>
  <fix>3d</fix>
</trkpt>
<trkpt lat="40.0717406" lon="-105.2298041">
  <ele>1583.01</ele>
  <time>2026-08-28T17:54:34Z</time>
  <course>6.11</course>
  <speed>0.49254441424099005</speed>
  <fix>3d</fix>
</trkpt>
<trkpt lat="40.0717402" lon="-105.2298043">
  <ele>1583.0</ele>
  <time>2026-08-28T17:54:34Z</time>
  <course>4.89</course>
  <speed>0.51</speed>
  <fix>3d</fix>
</trkpt>
<trkpt lat="40.071741" lon="-105.2298041">
  <ele>1583.01</ele>
  <time>2026-08-28T17:54:34Z</time>
  <course>6.12</course>
  <speed>0.49254441424099005</speed>
  <fix>3d</fix>
</trkpt>
<trkpt lat="40.0717402" lon="-105.2298043">
  <ele>1583.0</ele>
  <time>2026-08-28T17:54:34Z</time>
  <course>4.89</course>
  <speed>0.51</speed>
  <fix>3d</fix>
</trkpt>
<trkpt lat="40.0717415" lon="-105.229804">
  <ele>1583.0</ele>
  <time>2026-08-28T17:54:34Z</time>
  <course>6.12</course>
  <speed>0.49254441424099005</speed>
  <fix>3d</fix>
</trkpt>
<trkpt lat="40.0717411" lon="-105.2298042">
  <ele>1583.0</ele>
  <time>2026-08-28T17:54:34Z</time>
  <course>4.9</course>
  <speed>0.51</speed>
  <fix>3d</fix>
</trkpt>
<trkpt lat="40.071742" lon="-105.229804">
  <ele>1583.0</ele>
  <time>2026-08-28T17:54:34Z</time>
  <course>6.13</course>
  <speed>0.49254441424099005</speed>
  <fix>3d</fix>
</trkpt>
<trkpt lat="40.0717411" lon="-105.2298042">
  <ele>1583.0</ele>
  <time>2026-08-28T17:54:34Z</time>
  <course>4.9</course>
  <speed>0.51</speed>
  <fix>3d</fix>
</trkpt>
<trkpt lat="40.0717424" lon="-105.2298039">
  <ele>1583.0</ele>
  <time>2026-08-28T17:54:34Z</time>
  <course>6.13</course>
  <speed>0.49254441424099005</speed>
  <fix>3d</fix>
</trkpt>
<trkpt lat="40.071742" lon="-105.2298041">
  <ele>1583.0</ele>
  <time>2026-08-28T17:54:34Z</time>
  <course>4.91</course>
  <speed>0.51</speed>
  <fix>3d</fix>
</trkpt>
<trkpt lat="40.0717429" lon="-105.2298039">
  <ele>1583.0</ele>
  <time>2026-08-28T17:54:34Z</time>
  <course>6.14</course>
  <speed>0.49254441424099005</speed>
  <fix>3d</fix>
</trkpt>
<trkpt lat="40.071742" lon="-105.2298041">
  <ele>1583.0</ele>
  <time>2026-08-28T17:54:34Z</time>
  <course>4.91</course>
  <speed>0.51</speed>
  <fix>3d</fix>
</trkpt>
<trkpt lat="40.0717434" lon="-105.2298038">
  <ele>1583.0</ele>
  <time>2026-08-28T17:54:34Z</time>
  <course>6.15</course>
  <speed>0.49254441424099005</speed>
  <fix>3d</fix>
</trkpt>
<trkpt lat="40.071743" lon="-105.2298039">
  <ele>1583.0</ele>
  <time>2026-08-28T17:54:34Z</time>
  <course>4.92</course>
  <speed>0.51</speed>
  <fix>3d</fix>
</trkpt>
<trkpt lat="40.0717438" lon="-105.2298037">
  <ele>1583.01</ele>
  <time>2026-08-28T17:54:34Z</time>
  <course>6.15</course>
  <speed>0.4936598018878993</speed>
  <fix>3d</fix>
</trkpt>
<trkpt lat="40.071743" lon="-105.2298039">
  <ele>1583.0</ele>
  <time>2026-08-28T17:54:34Z</time>
  <course>4.92</course>
  <speed>0.51</speed>
  <fix>3d</fix>
</trkpt>
<trkpt lat="40.0717443" lon="-105.2298037">
  <ele>1583.01</ele>
  <time>2026-08-28T17:54:34Z</time>
  <course>6.16</course>
  <speed>0.4936598018878993</speed>
  <fix>3d</fix>
</trkpt>
<trkpt lat="40.0717439" lon="-105.2298038">
  <ele>1583.0</ele>
  <time>2026-08-28T17:54:34Z</time>
  <course>4.94</course>
  <speed>0.51</speed>
  <fix>3d</fix>
</trkpt>
<trkpt lat="40.0717448" lon="-105.2298036">
  <ele>1583.01</ele>
  <time>2026-08-28T17:54:34Z</time>
  <course>6.17</course>
  <speed>0.4936598018878993</speed>
  <fix>3d</fix>
</trkpt>
<trkpt lat="40.0717439" lon="-105.2298038">
  <ele>1583.0</ele>
  <time>2026-08-28T17:54:34Z</time>
  <course>4.94</course>
  <speed>0.51</speed>
  <fix>3d</fix>
</trkpt>
<trkpt lat="40.0717452" lon="-105.2298036">
  <ele>1583.02</ele>
  <time>2026-08-28T17:54:34Z</time>
  <course>6.17</course>
  <speed>0.4936598018878993</speed>
  <fix>3d</fix>
</trkpt>
<trkpt lat="40.0717448" lon="-105.2298037">
  <ele>1583.0</ele>
  <time>2026-08-28T17:54:34Z</time>
  <course>4.95</course>
  <speed>0.51</speed>
  <fix>3d</fix>
</trkpt>
<trkpt lat="40.0717457" lon="-105.2298035">
  <ele>1583.02</ele>
  <time>2026-08-28T17:54:34Z</time>
  <course>6.18</course>
  <speed>0.4936598018878993</speed>
  <fix>3d</fix>
</trkpt>
<trkpt lat="40.0717448" lon="-105.2298037">
  <ele>1583.0</ele>
  <time>2026-08-28T17:54:34Z</time>
  <course>4.95</course>
  <speed>0.51</speed>
  <fix>3d</fix>
</trkpt>
<trkpt lat="40.0717462" lon="-105.2298035">
  <ele>1583.02</ele>
  <time>2026-08-28T17:54:34Z</time>
  <course>6.19</course>
  <speed>0.4936598018878993</speed>
  <fix>3d</fix>
</trkpt>
<trkpt lat="40.0717457" lon="-105.2298036">
  <ele>1583.0</ele>
  <time>2026-08-28T17:54:34Z</time>
  <course>4.97</course>
  <speed>0.51</speed>
  <fix>3d</fix>
</trkpt>
<trkpt lat="40.0717466" lon="-105.2298034">
  <ele>1583.02</ele>
  <time>2026-08-28T17:54:34Z</time>
  <course>6.2</course>
  <speed>0.4936598018878993</speed>
  <fix>3d</fix>
</trkpt>
<trkpt lat="40.0717457" lon="-105.2298036">
  <ele>1583.0</ele>
  <time>2026-08-28T17:54:34Z</time>
  <course>4.97</course>
  <speed>0.51</speed>
  <fix>3d</fix>
</trkpt>
<trkpt lat="40.0717471" lon="-105.2298033">
  <ele>1583.02</ele>
  <time>2026-08-28T17:54:34Z</time>
  <course>6.21</course>
  <speed>0.4936598018878993</speed>
  <fix>3d</fix>
</trkpt>
<trkpt lat="40.0717457" lon="-105.2298036">
  <ele>1583.0</ele>
  <time>2026-08-28T17:54:34Z</time>
  <course>4.97</course>
  <speed>0.51</speed>
  <fix>3d</fix>
</trkpt>
<trkpt lat="40.0717476" lon="-105.2298033">
  <ele>1583.02</ele>
  <time>2026-08-28T17:54:34Z</time>
  <course>6.21</course>
  <speed>0.4936598018878993</speed>
  <fix>3d</fix>
</trkpt>
<trkpt lat="40.0717467" lon="-105.2298035">
  <ele>1583.0</ele>
  <time>2026-08-28T17:54:34Z</time>
  <course>4.98</course>
  <speed>0.51</speed>
  <fix>3d</fix>
</trkpt>
<trkpt lat="40.071748" lon="-105.2298032">
  <ele>1583.02</ele>
  <time>2026-08-28T17:54:34Z</time>
  <course>6.22</course>
  <speed>0.4936598018878993</speed>
  <fix>3d</fix>
</trkpt>
<trkpt lat="40.0717467" lon="-105.2298035">
  <ele>1583.0</ele>
  <time>2026-08-28T17:54:34Z</time>
  <course>4.98</course>
  <speed>0.51</speed>
  <fix>3d</fix>
</trkpt>
<trkpt lat="40.0717485" lon="-105.2298032">
  <ele>1583.02</ele>
  <time>2026-08-28T17:54:34Z</time>
  <course>6.23</course>
  <speed>0.4936598018878993</speed>
  <fix>3d</fix>
</trkpt>
<trkpt lat="40.0717476" lon="-105.2298034">
  <ele>1583.0</ele>
  <time>2026-08-28T17:54:34Z</time>
  <course>5.0</course>
  <speed>0.51</speed>
  <fix>3d</fix>
</trkpt>
<trkpt lat="40.0717489" lon="-105.2298031">
  <ele>1583.03</ele>
  <time>2026-08-28T17:54:34Z</time>
  <course>6.24</course>
  <speed>0.4936598018878993</speed>
  <fix>3d</fix>
</trkpt>
<trkpt lat="40.0717476" lon="-105.2298034">
  <ele>1583.0</ele>
  <time>2026-08-28T17:54:34Z</time>
  <course>5.0</course>
  <speed>0.51</speed>
  <fix>3d</fix>
</trkpt>
<trkpt lat="40.0717494" lon="-105.2298031">
  <ele>1583.03</ele>
  <time>2026-08-28T17:54:34Z</time>
  <course>6.24</course>
  <speed>0.4936598018878993</speed>
  <fix>3d</fix>
</trkpt>
<trkpt lat="40.0717485" lon="-105.2298033">
  <ele>1583.0</ele>
  <time>2026-08-28T17:54:34Z</time>
  <course>5.01</course>
  <speed>0.51</speed>
  <fix>3d</fix>
</trkpt>
<trkpt lat="40.0717498" lon="-105.229803">
  <ele>1583.03</ele>
  <time>2026-08-28T17:54:34Z</time>
  <course>6.25</course>
  <speed>0.4936598018878993</speed>
  <fix>3d</fix>
</trkpt>
<trkpt lat="40.0717485" lon="-105.2298033">
  <ele>1583.0</ele>
  <time>2026-08-28T17:54:34Z</time>
  <course>5.01</course>
  <speed>0.51</speed>
  <fix>3d</fix>
</trkpt>
<trkpt lat="40.0717503" lon="-105.229803">
  <ele>1583.03</ele>
  <time>2026-08-28T17:54:34Z</time>
  <course>6.25</course>
  <speed>0.4936598018878993</speed>
  <fix>3d</fix>
</trkpt>
<trkpt lat="40.0717494" lon="-105.2298032">
  <ele>1583.0</ele>
  <time>2026-08-28T17:54:34Z</time>
  <course>5.02</course>
  <speed>0.51</speed>
  <fix>3d</fix>
</trkpt>
<trkpt lat="40.0717508" lon="-105.2298029">
  <ele>1583.04</ele>
  <time>2026-08-28T17:54:34Z</time>
  <course>6.26</course>
  <speed>0.4936598018878993</speed>
  <fix>3d</fix>
</trkpt>
<trkpt lat="40.0717504" lon="-105.2298031">
  <ele>1583.0</ele>
  <time>2026-08-28T17:54:34Z</time>
  <course>5.04</course>
  <speed>0.51</speed>
  <fix>3d</fix>
</trkpt>
<trkpt lat="40.0717512" lon="-105.2298028">
  <ele>1583.04</ele>
  <time>2026-08-28T17:54:34Z</time>
  <course>6.27</course>
  <speed>0.4936598018878993</speed>
  <fix>3d</fix>
</trkpt>
<trkpt lat="40.0717504" lon="-105.2298031">
  <ele>1583.0</ele>
  <time>2026-08-28T17:54:34Z</time>
  <course>5.04</course>
  <speed>0.51</speed>
  <fix>3d</fix>
</trkpt>
<trkpt lat="40.0717517" lon="-105.2298028">
  <ele>1583.05</ele>
  <time>2026-08-28T17:54:34Z</time>
  <course>6.27</course>
  <speed>0.4936598018878993</speed>
  <fix>3d</fix>
</trkpt>
<trkpt lat="40.0717513" lon="-105.229803">
  <ele>1583.0</ele>
  <time>2026-08-28T17:54:34Z</time>
  <course>5.05</course>
  <speed>0.51</speed>
  <fix>3d</fix>
</trkpt>
<trkpt lat="40.0717522" lon="-105.2298027">
  <ele>1583.05</ele>
  <time>2026-08-28T17:54:34Z</time>
  <course>6.28</course>
  <speed>0.4936598018878993</speed>
  <fix>3d</fix>
</trkpt>
<trkpt lat="40.0717513" lon="-105.229803">
  <ele>1583.0</ele>
  <time>2026-08-28T17:54:34Z</time>
  <course>5.05</course>
  <speed>0.51</speed>
  <fix>3d</fix>
</trkpt>
<trkpt lat="40.0717526" lon="-105.2298027">
  <ele>1583.05</ele>
  <time>2026-08-28T17:54:34Z</time>
  <course>6.28</course>
  <speed>0.4936598018878993</speed>
  <fix>3d</fix>
</trkpt>
<trkpt lat="40.0717522" lon="-105.2298029">
  <ele>1583.0</ele>
  <time>2026-08-28T17:54:34Z</time>
  <course>5.06</course>
  <speed>0.51</speed>
  <fix>3d</fix>
</trkpt>
<trkpt lat="40.0717531" lon="-105.2298026">
  <ele>1583.05</ele>
  <time>2026-08-28T17:54:34Z</time>
  <course>6.29</course>
  <speed>0.4936598018878993</speed>
  <fix>3d</fix>
</trkpt>
<trkpt lat="40.0717522" lon="-105.2298029">
  <ele>1583.0</ele>
  <time>2026-08-28T17:54:34Z</time>
  <course>5.06</course>
  <speed>0.51</speed>
  <fix>3d</fix>
</trkpt>
<trkpt lat="40.0717535" lon="-105.2298026">
  <ele>1583.05</ele>
  <time>2026-08-28T17:54:34Z</time>
  <course>6.3</course>
  <speed>0.4936598018878993</speed>
  <fix>3d</fix>
</trkpt>
<trkpt lat="40.0717531" lon="-105.2298028">
  <ele>1583.0</ele>
  <time>2026-08-28T17:54:34Z</time>
  <course>5.07</course>
  <speed>0.51</speed>
  <fix>3d</fix>
</trkpt>
<trkpt lat="40.071754" lon="-105.2298025">
  <ele>1583.05</ele>
  <time>2026-08-28T17:54:34Z</time>
  <course>6.3</course>
  <speed>0.4936598018878993</speed>
  <fix>3d</fix>
</trkpt>
<trkpt lat="40.0717531" lon="-105.2298028">
  <ele>1583.0</ele>
  <time>2026-08-28T17:54:34Z</time>
  <course>5.07</course>
  <speed>0.51</speed>
  <fix>3d</fix>
</trkpt>
<trkpt lat="40.0717545" lon="-105.2298025">
  <ele>1583.05</ele>
  <time>2026-08-28T17:54:34Z</time>
  <course>6.31</course>
  <speed>0.4936598018878993</speed>
  <fix>3d</fix>
</trkpt>
<trkpt lat="40.0717541" lon="-105.2298027">
  <ele>1583.0</ele>
  <time>2026-08-28T17:54:34Z</time>
  <course>5.09</course>
  <speed>0.51</speed>
  <fix>3d</fix>
</trkpt>
<trkpt lat="40.0717549" lon="-105.2298024">
  <ele>1583.05</ele>
  <time>2026-08-28T17:54:34Z</time>
  <course>6.31</course>
  <speed>0.4936598018878993</speed>
  <fix>3d</fix>
</trkpt>
<trkpt lat="40.0717541" lon="-105.2298027">
  <ele>1583.0</ele>
  <time>2026-08-28T17:54:34Z</time>
  <course>5.09</course>
  <speed>0.51</speed>
  <fix>3d</fix>
</trkpt>
<trkpt lat="40.0717554" lon="-105.2298024">
  <ele>1583.05</ele>
  <time>2026-08-28T17:54:34Z</time>
  <course>6.32</course>
  <speed>0.4936598018878993</speed>
  <fix>3d</fix>
</trkpt>
<trkpt lat="40.071755" lon="-105.2298026">
  <ele>1583.0</ele>
  <time>2026-08-28T17:54:34Z</time>
  <course>5.1</course>
  <speed>0.51</speed>
  <fix>3d</fix>
</trkpt>
<trkpt lat="40.0717559" lon="-105.2298023">
  <ele>1583.05</ele>
  <time>2026-08-28T17:54:34Z</time>
  <course>6.33</course>
  <speed>0.4936598018878993</speed>
  <fix>3d</fix>
</trkpt>
<trkpt lat="40.071755" lon="-105.2298026">
  <ele>1583.0</ele>
  <time>2026-08-28T17:54:34Z</time>
  <course>5.1</course>
  <speed>0.51</speed>
  <fix>3d</fix>
</trkpt>
<trkpt lat="40.0717563" lon="-105.2298023">
  <ele>1583.05</ele>
  <time>2026-08-28T17:54:34Z</time>
  <course>6.33</course>
  <speed>0.4936598018878993</speed>
  <fix>3d</fix>
</trkpt>
<trkpt lat="40.0717559" lon="-105.2298025">
  <ele>1583.0</ele>
  <time>2026-08-28T17:54:34Z</time>
  <course>5.11</course>
  <speed>0.51</speed>
  <fix>3d</fix>
</trkpt>
<trkpt lat="40.0717568" lon="-105.2298022">
  <ele>1583.05</ele>
  <time>2026-08-28T17:54:34Z</time>
  <course>6.34</course>
  <speed>0.4936598018878993</speed>
  <fix>3d</fix>
</trkpt>
<trkpt lat="40.0717559" lon="-105.2298025">
  <ele>1583.0</ele>
  <time>2026-08-28T17:54:34Z</time>
  <course>5.11</course>
  <speed>0.51</speed>
  <fix>3d</fix>
</trkpt>
<trkpt lat="40.0717573" lon="-105.2298022">
  <ele>1583.05</ele>
  <time>2026-08-28T17:54:34Z</time>
  <course>6.35</course>
  <speed>0.4936598018878993</speed>
  <fix>3d</fix>
</trkpt>
<trkpt lat="40.0717559" lon="-105.2298025">
  <ele>1583.0</ele>
  <time>2026-08-28T17:54:34Z</time>
  <course>5.11</course>
  <speed>0.51</speed>
  <fix>3d</fix>
</trkpt>
<trkpt lat="40.0717577" lon="-105.2298021">
  <ele>1583.05</ele>
  <time>2026-08-28T17:54:34Z</time>
  <course>6.35</course>
  <speed>0.4936598018878993</speed>
  <fix>3d</fix>
</trkpt>
<trkpt lat="40.0717568" lon="-105.2298023">
  <ele>1583.0</ele>
  <time>2026-08-28T17:54:34Z</time>
  <course>5.12</course>
  <speed>0.51</speed>
  <fix>3d</fix>
</trkpt>
<trkpt lat="40.0717582" lon="-105.229802">
  <ele>1583.04</ele>
  <time>2026-08-28T17:54:34Z</time>
  <course>6.36</course>
  <speed>0.4936598018878993</speed>
  <fix>3d</fix>
</trkpt>
<trkpt lat="40.0717568" lon="-105.2298023">
  <ele>1583.0</ele>
  <time>2026-08-28T17:54:34Z</time>
  <course>5.12</course>
  <speed>0.51</speed>
  <fix>3d</fix>
</trkpt>
<trkpt lat="40.0717586" lon="-105.229802">
  <ele>1583.04</ele>
  <time>2026-08-28T17:54:34Z</time>
  <course>6.36</course>
  <speed>0.4936598018878993</speed>
  <fix>3d</fix>
</trkpt>
<trkpt lat="40.0717578" lon="-105.2298022">
  <ele>1583.0</ele>
  <time>2026-08-28T17:54:34Z</time>
  <course>5.14</course>
  <speed>0.51</speed>
  <fix>3d</fix>
</trkpt>
<trkpt lat="40.0717591" lon="-105.2298019">
  <ele>1583.04</ele>
  <time>2026-08-28T17:54:34Z</time>
  <course>6.37</course>
  <speed>0.4936598018878993</speed>
  <fix>3d</fix>
</trkpt>
<trkpt lat="40.0717578" lon="-105.2298022">
  <ele>1583.0</ele>
  <time>2026-08-28T17:54:34Z</time>
  <course>5.14</course>
  <speed>0.51</speed>
  <fix>3d</fix>
</trkpt>
<trkpt lat="40.0717596" lon="-105.2298019">
  <ele>1583.04</ele>
  <time>2026-08-28T17:54:34Z</time>
  <course>6.38</course>
  <speed>0.4936598018878993</speed>
  <fix>3d</fix>
</trkpt>
<trkpt lat="40.0717587" lon="-105.2298021">
  <ele>1583.0</ele>
  <time>2026-08-28T17:54:34Z</time>
  <course>5.15</course>
  <speed>0.51</speed>
  <fix>3d</fix>
</trkpt>
<trkpt lat="40.07176" lon="-105.2298018">
  <ele>1583.04</ele>
  <time>2026-08-28T17:54:34Z</time>
  <course>6.39</course>
  <speed>0.4936598018878993</speed>
  <fix>3d</fix>
</trkpt>
<trkpt lat="40.0717597" lon="-105.229802">
  <ele>1583.0</ele>
  <time>2026-08-28T17:54:34Z</time>
  <course>5.16</course>
  <speed>0.51</speed>
  <fix>3d</fix>
</trkpt>
<trkpt lat="40.0717605" lon="-105.2298018">
  <ele>1583.04</ele>
  <time>2026-08-28T17:54:34Z</time>
  <course>6.39</course>
  <speed>0.4936598018878993</speed>
  <fix>3d</fix>
</trkpt>
<trkpt lat="40.0717597" lon="-105.229802">
  <ele>1583.0</ele>
  <time>2026-08-28T17:54:34Z</time>
  <course>5.16</course>
  <speed>0.51</speed>
  <fix>3d</fix>
</trkpt>
<trkpt lat="40.071761" lon="-105.2298017">
  <ele>1583.04</ele>
  <time>2026-08-28T17:54:34Z</time>
  <course>6.4</course>
  <speed>0.4936598018878993</speed>
  <fix>3d</fix>
</trkpt>
<trkpt lat="40.0717606" lon="-105.2298019">
  <ele>1583.0</ele>
  <time>2026-08-28T17:54:34Z</time>
  <course>5.18</course>
  <speed>0.51</speed>
  <fix>3d</fix>
</trkpt>
<trkpt lat="40.0717614" lon="-105.2298017">
  <ele>1583.04</ele>
  <time>2026-08-28T17:54:34Z</time>
  <course>6.41</course>
  <speed>0.4936598018878993</speed>
  <fix>3d</fix>
</trkpt>
<trkpt lat="40.0717606" lon="-105.2298019">
  <ele>1583.0</ele>
  <time>2026-08-28T17:54:34Z</time>
  <course>5.18</course>
  <speed>0.51</speed>
  <fix>3d</fix>
</trkpt>
<trkpt lat="40.0717619" lon="-105.2298016">
  <ele>1583.04</ele>
  <time>2026-08-28T17:54:34Z</time>
  <course>6.41</course>
  <speed>0.4936598018878993</speed>
  <fix>3d</fix>
</trkpt>
<trkpt lat="40.0717615" lon="-105.2298018">
  <ele>1583.0</ele>
  <time>2026-08-28T17:54:34Z</time>
  <course>5.19</course>
  <speed>0.51</speed>
  <fix>3d</fix>
</trkpt>
<trkpt lat="40.0717624" lon="-105.2298015">
  <ele>1583.04</ele>
  <time>2026-08-28T17:54:34Z</time>
  <course>6.42</course>
  <speed>0.4936598018878993</speed>
  <fix>3d</fix>
</trkpt>
<trkpt lat="40.0717615" lon="-105.2298018">
  <ele>1583.0</ele>
  <time>2026-08-28T17:54:34Z</time>
  <course>5.19</course>
  <speed>0.51</speed>
  <fix>3d</fix>
</trkpt>
<trkpt lat="40.0717628" lon="-105.2298015">
  <ele>1583.04</ele>
  <time>2026-08-28T17:54:34Z</time>
  <course>6.43</course>
  <speed>0.4936598018878993</speed>
  <fix>3d</fix>
</trkpt>
<trkpt lat="40.0717624" lon="-105.2298017">
  <ele>1583.0</ele>
  <time>2026-08-28T17:54:34Z</time>
  <course>5.21</course>
  <speed>0.51</speed>
  <fix>3d</fix>
</trkpt>
<trkpt lat="40.0717633" lon="-105.2298014">
  <ele>1583.04</ele>
  <time>2026-08-28T17:54:34Z</time>
  <course>6.44</course>
  <speed>0.4936598018878993</speed>
  <fix>3d</fix>
</trkpt>
<trkpt lat="40.0717624" lon="-105.2298017">
  <ele>1583.0</ele>
  <time>2026-08-28T17:54:34Z</time>
  <course>5.21</course>
  <speed>0.51</speed>
  <fix>3d</fix>
</trkpt>
<trkpt lat="40.0717638" lon="-105.2298014">
  <ele>1583.04</ele>
  <time>2026-08-28T17:54:34Z</time>
  <course>6.45</course>
  <speed>0.4936598018878993</speed>
  <fix>3d</fix>
</trkpt>
<trkpt lat="40.0717633" lon="-105.2298016">
  <ele>1583.0</ele>
  <time>2026-08-28T17:54:34Z</time>
  <course>5.22</course>
  <speed>0.51</speed>
  <fix>3d</fix>
</trkpt>
<trkpt lat="40.0717642" lon="-105.2298013">
  <ele>1583.05</ele>
  <time>2026-08-28T17:54:34Z</time>
  <course>6.46</course>
  <speed>0.4936598018878993</speed>
  <fix>3d</fix>
</trkpt>
<trkpt lat="40.0717633" lon="-105.2298016">
  <ele>1583.0</ele>
  <time>2026-08-28T17:54:34Z</time>
  <course>5.22</course>
  <speed>0.51</speed>
  <fix>3d</fix>
</trkpt>
<trkpt lat="40.0717647" lon="-105.2298013">
  <ele>1583.05</ele>
  <time>2026-08-28T17:54:34Z</time>
  <course>6.46</course>
  <speed>0.4936598018878993</speed>
  <fix>3d</fix>
</trkpt>
<trkpt lat="40.0717643" lon="-105.2298015">
  <ele>1583.0</ele>
  <time>2026-08-28T17:54:34Z</time>
  <course>5.24</course>
  <speed>0.51</speed>
  <fix>3d</fix>
</trkpt>
<trkpt lat="40.0717652" lon="-105.2298012">
  <ele>1583.05</ele>
  <time>2026-08-28T17:54:34Z</time>
  <course>6.47</course>
  <speed>0.4936598018878993</speed>
  <fix>3d</fix>
</trkpt>
<trkpt lat="40.0717643" lon="-105.2298015">
  <ele>1583.0</ele>
  <time>2026-08-28T17:54:34Z</time>
  <course>5.24</course>
  <speed>0.51</speed>
  <fix>3d</fix>
</trkpt>
<trkpt lat="40.0717656" lon="-105.2298012">
  <ele>1583.05</ele>
  <time>2026-08-28T17:54:34Z</time>
  <course>6.48</course>
  <speed>0.4936598018878993</speed>
  <fix>3d</fix>
</trkpt>
<trkpt lat="40.0717652" lon="-105.2298013">
  <ele>1583.0</ele>
  <time>2026-08-28T17:54:34Z</time>
  <course>5.26</course>
  <speed>0.51</speed>
  <fix>3d</fix>
</trkpt>
<trkpt lat="40.0717661" lon="-105.2298011">
  <ele>1583.04</ele>
  <time>2026-08-28T17:54:34Z</time>
  <course>6.49</course>
  <speed>0.4936598018878993</speed>
  <fix>3d</fix>
</trkpt>
<trkpt lat="40.0717652" lon="-105.2298013">
  <ele>1583.0</ele>
  <time>2026-08-28T17:54:34Z</time>
  <course>5.26</course>
  <speed>0.51</speed>
  <fix>3d</fix>
</trkpt>
<trkpt lat="40.0717666" lon="-105.229801">
  <ele>1583.04</ele>
  <time>2026-08-28T17:54:34Z</time>
  <course>6.49</course>
  <speed>0.4936598018878993</speed>
  <fix>3d</fix>
</trkpt>
<trkpt lat="40.0717652" lon="-105.2298013">
  <ele>1583.0</ele>
  <time>2026-08-28T17:54:34Z</time>
  <course>5.26</course>
  <speed>0.51</speed>
  <fix>3d</fix>
</trkpt>
<trkpt lat="40.071767" lon="-105.229801">
  <ele>1583.04</ele>
  <time>2026-08-28T17:54:34Z</time>
  <course>6.5</course>
  <speed>0.4936598018878993</speed>
  <fix>3d</fix>
</trkpt>
<trkpt lat="40.0717662" lon="-105.2298012">
  <ele>1583.0</ele>
  <time>2026-08-28T17:54:34Z</time>
  <course>5.28</course>
  <speed>0.51</speed>
  <fix>3d</fix>
</trkpt>
<trkpt lat="40.0717675" lon="-105.2298009">
  <ele>1583.03</ele>
  <time>2026-08-28T17:54:34Z</time>
  <course>6.51</course>
  <speed>0.4936598018878993</speed>
  <fix>3d</fix>
</trkpt>
<trkpt lat="40.0717662" lon="-105.2298012">
  <ele>1583.0</ele>
  <time>2026-08-28T17:54:34Z</time>
  <course>5.28</course>
  <speed>0.51</speed>
  <fix>3d</fix>
</trkpt>
<trkpt lat="40.0717679" lon="-105.2298009">
  <ele>1583.03</ele>
  <time>2026-08-28T17:54:34Z</time>
  <course>6.52</course>
  <speed>0.4936598018878993</speed>
  <fix>3d</fix>
</trkpt>
<trkpt lat="40.0717671" lon="-105.2298011">
  <ele>1583.0</ele>
  <time>2026-08-28T17:54:34Z</time>
  <course>5.29</course>
  <speed>0.51</speed>
  <fix>3d</fix>
</trkpt>
<trkpt lat="40.0717684" lon="-105.2298008">
  <ele>1583.02</ele>
  <time>2026-08-28T17:54:34Z</time>
  <course>6.53</course>
  <speed>0.4936598018878993</speed>
  <fix>3d</fix>
</trkpt>
<trkpt lat="40.0717671" lon="-105.2298011">
  <ele>1583.0</ele>
  <time>2026-08-28T17:54:34Z</time>
  <course>5.29</course>
  <speed>0.51</speed>
  <fix>3d</fix>
</trkpt>
<trkpt lat="40.0717689" lon="-105.2298008">
  <ele>1583.02</ele>
  <time>2026-08-28T17:54:34Z</time>
  <course>6.53</course>
  <speed>0.4936598018878993</speed>
  <fix>3d</fix>
</trkpt>
<trkpt lat="40.071768" lon="-105.229801">
  <ele>1583.0</ele>
  <time>2026-08-28T17:54:34Z</time>
  <course>5.31</course>
  <speed>0.51</speed>
  <fix>3d</fix>
</trkpt>
<trkpt lat="40.0717693" lon="-105.2298007">
  <ele>1583.02</ele>
  <time>2026-08-28T17:54:34Z</time>
  <course>6.55</course>
  <speed>0.4936598018878993</speed>
  <fix>3d</fix>
</trkpt>
<trkpt lat="40.071768" lon="-105.229801">
  <ele>1583.0</ele>
  <time>2026-08-28T17:54:34Z</time>
  <course>5.31</course>
  <speed>0.51</speed>
  <fix>3d</fix>
</trkpt>
<trkpt lat="40.0717698" lon="-105.2298006">
  <ele>1583.02</ele>
  <time>2026-08-28T17:54:34Z</time>
  <course>6.55</course>
  <speed>0.4936598018878993</speed>
  <fix>3d</fix>
</trkpt>
<trkpt lat="40.0717689" lon="-105.2298009">
  <ele>1583.0</ele>
  <time>2026-08-28T17:54:34Z</time>
  <course>5.33</course>
  <speed>0.51</speed>
  <fix>3d</fix>
</trkpt>
<trkpt lat="40.0717702" lon="-105.2298006">
  <ele>1583.02</ele>
  <time>2026-08-28T17:54:34Z</time>
  <course>6.57</course>
  <speed>0.4936598018878993</speed>
  <fix>3d</fix>
</trkpt>
<trkpt lat="40.0717699" lon="-105.2298008">
  <ele>1583.0</ele>
  <time>2026-08-28T17:54:34Z</time>
  <course>5.35</course>
  <speed>0.51</speed>
  <fix>3d</fix>
</trkpt>
<trkpt lat="40.0717707" lon="-105.2298005">
  <ele>1583.02</ele>
  <time>2026-08-28T17:54:34Z</time>
  <course>6.57</course>
  <speed>0.4936598018878993</speed>
  <fix>3d</fix>
</trkpt>
<trkpt lat="40.0717699" lon="-105.2298008">
  <ele>1583.0</ele>
  <time>2026-08-28T17:54:34Z</time>
  <course>5.35</course>
  <speed>0.51</speed>
  <fix>3d</fix>
</trkpt>
<trkpt lat="40.0717712" lon="-105.2298005">
  <ele>1583.02</ele>
  <time>2026-08-28T17:54:34Z</time>
  <course>6.58</course>
  <speed>0.4936598018878993</speed>
  <fix>3d</fix>
</trkpt>
<trkpt lat="40.0717708" lon="-105.2298007">
  <ele>1583.0</ele>
  <time>2026-08-28T17:54:34Z</time>
  <course>5.36</course>
  <speed>0.51</speed>
  <fix>3d</fix>
</trkpt>
<trkpt lat="40.0717716" lon="-105.2298004">
  <ele>1583.01</ele>
  <time>2026-08-28T17:54:34Z</time>
  <course>6.59</course>
  <speed>0.4936598018878993</speed>
  <fix>3d</fix>
</trkpt>
<trkpt lat="40.0717708" lon="-105.2298007">
  <ele>1583.0</ele>
  <time>2026-08-28T17:54:34Z</time>
  <course>5.36</course>
  <speed>0.51</speed>
  <fix>3d</fix>
</trkpt>
<trkpt lat="40.0717721" lon="-105.2298004">
  <ele>1583.01</ele>
  <time>2026-08-28T17:54:34Z</time>
  <course>6.6</course>
  <speed>0.4936598018878993</speed>
  <fix>3d</fix>
</trkpt>
<trkpt lat="40.0717717" lon="-105.2298006">
  <ele>1583.0</ele>
  <time>2026-08-28T17:54:34Z</time>
  <course>5.38</course>
  <speed>0.51</speed>
  <fix>3d</fix>
</trkpt>
<trkpt lat="40.0717726" lon="-105.2298003">
  <ele>1583.01</ele>
  <time>2026-08-28T17:54:34Z</time>
  <course>6.61</course>
  <speed>0.4936598018878993</speed>
  <fix>3d</fix>
</trkpt>
<trkpt lat="40.0717717" lon="-105.2298006">
  <ele>1583.0</ele>
  <time>2026-08-28T17:54:34Z</time>
  <course>5.38</course>
  <speed>0.51</speed>
  <fix>3d</fix>
</trkpt>
<trkpt lat="40.071773" lon="-105.2298003">
  <ele>1583.01</ele>
  <time>2026-08-28T17:54:34Z</time>
  <course>6.62</course>
  <speed>0.4936598018878993</speed>
  <fix>3d</fix>
</trkpt>
<trkpt lat="40.0717726" lon="-105.2298005">
  <ele>1583.0</ele>
  <time>2026-08-28T17:54:34Z</time>
  <course>5.4</course>
  <speed>0.51</speed>
  <fix>3d</fix>
</trkpt>
<trkpt lat="40.0717735" lon="-105.2298002">
  <ele>1583.01</ele>
  <time>2026-08-28T17:54:34Z</time>
  <course>6.63</course>
  <speed>0.4936598018878993</speed>
  <fix>3d</fix>
</trkpt>
<trkpt lat="40.0717726" lon="-105.2298005">
  <ele>1583.0</ele>
  <time>2026-08-28T17:54:34Z</time>
  <course>5.4</course>
  <speed>0.51</speed>
  <fix>3d</fix>
</trkpt>
<trkpt lat="40.071774" lon="-105.2298001">
  <ele>1583.01</ele>
  <time>2026-08-28T17:54:34Z</time>
  <course>6.64</course>
  <speed>0.4936598018878993</speed>
  <fix>3d</fix>
</trkpt>
<trkpt lat="40.0717736" lon="-105.2298003">
  <ele>1583.0</ele>
  <time>2026-08-28T17:54:34Z</time>
  <course>5.42</course>
  <speed>0.51</speed>
  <fix>3d</fix>
</trkpt>
<trkpt lat="40.0717744" lon="-105.2298001">
  <ele>1583.0</ele>
  <time>2026-08-28T17:54:34Z</time>
  <course>6.65</course>
  <speed>0.4936598018878993</speed>
  <fix>3d</fix>
</trkpt>
<trkpt lat="40.0717736" lon="-105.2298003">
  <ele>1583.0</ele>
  <time>2026-08-28T17:54:34Z</time>
  <course>5.42</course>
  <speed>0.51</speed>
  <fix>3d</fix>
</trkpt>
<trkpt lat="40.0717749" lon="-105.2298">
  <ele>1583.0</ele>
  <time>2026-08-28T17:54:34Z</time>
  <course>6.66</course>
  <speed>0.4936598018878993</speed>
  <fix>3d</fix>
</trkpt>
<trkpt lat="40.0717745" lon="-105.2298002">
  <ele>1583.0</ele>
  <time>2026-08-28T17:54:34Z</time>
  <course>5.44</course>
  <speed>0.51</speed>
  <fix>3d</fix>
</trkpt>
<trkpt lat="40.0717754" lon="-105.2298">
  <ele>1583.0</ele>
  <time>2026-08-28T17:54:34Z</time>
  <course>6.66</course>
  <speed>0.4936598018878993</speed>
  <fix>3d</fix>
</trkpt>
<trkpt lat="40.0717745" lon="-105.2298002">
  <ele>1583.0</ele>
  <time>2026-08-28T17:54:34Z</time>
  <course>5.44</course>
  <speed>0.51</speed>
  <fix>3d</fix>
</trkpt>
<trkpt lat="40.0717758" lon="-105.2297999">
  <ele>1582.99</ele>
  <time>2026-08-28T17:54:34Z</time>
  <course>6.67</course>
  <speed>0.4936598018878993</speed>
  <fix>3d</fix>
</trkpt>
<trkpt lat="40.0717754" lon="-105.2298001">
  <ele>1583.0</ele>
  <time>2026-08-28T17:54:34Z</time>
  <course>5.46</course>
  <speed>0.51</speed>
  <fix>3d</fix>
</trkpt>
<trkpt lat="40.0717763" lon="-105.2297999">
  <ele>1582.99</ele>
  <time>2026-08-28T17:54:34Z</time>
  <course>6.68</course>
  <speed>0.4936598018878993</speed>
  <fix>3d</fix>
</trkpt>
<trkpt lat="40.0717754" lon="-105.2298001">
  <ele>1583.0</ele>
  <time>2026-08-28T17:54:34Z</time>
  <course>5.46</course>
  <speed>0.51</speed>
  <fix>3d</fix>
</trkpt>
<trkpt lat="40.0717768" lon="-105.2297998">
  <ele>1582.99</ele>
  <time>2026-08-28T17:54:34Z</time>
  <course>6.69</course>
  <speed>0.4936598018878993</speed>
  <fix>3d</fix>
</trkpt>
<trkpt lat="40.0717754" lon="-105.2298001">
  <ele>1583.0</ele>
  <time>2026-08-28T17:54:34Z</time>
  <course>5.46</course>
  <speed>0.51</speed>
  <fix>3d</fix>
</trkpt>
<trkpt lat="40.0717772" lon="-105.2297997">
  <ele>1582.99</ele>
  <time>2026-08-28T17:54:34Z</time>
  <course>6.71</course>
  <speed>0.4936598018878993</speed>
  <fix>3d</fix>
</trkpt>
<trkpt lat="40.0717764" lon="-105.2298">
  <ele>1583.0</ele>
  <time>2026-08-28T17:54:34Z</time>
  <course>5.48</course>
  <speed>0.51</speed>
  <fix>3d</fix>
</trkpt>
<trkpt lat="40.0717777" lon="-105.2297997">
  <ele>1582.99</ele>
  <time>2026-08-28T17:54:34Z</time>
  <course>6.71</course>
  <speed>0.4936598018878993</speed>
  <fix>3d</fix>
</trkpt>
<trkpt lat="40.0717764" lon="-105.2298">
  <ele>1583.0</ele>
  <time>2026-08-28T17:54:34Z</time>
  <course>5.48</course>
  <speed>0.51</speed>
  <fix>3d</fix>
</trkpt>
<trkpt lat="40.0717782" lon="-105.2297996">
  <ele>1582.98</ele>
  <time>2026-08-28T17:54:34Z</time>
  <course>6.73</course>
  <speed>0.4936598018878993</speed>
  <fix>3d</fix>
</trkpt>
<trkpt lat="40.0717773" lon="-105.2297999">
  <ele>1583.0</ele>
  <time>2026-08-28T17:54:34Z</time>
  <course>5.5</course>
  <speed>0.51</speed>
  <fix>3d</fix>
</trkpt>
<trkpt lat="40.0717786" lon="-105.2297996">
  <ele>1582.98</ele>
  <time>2026-08-28T17:54:34Z</time>
  <course>6.74</course>
  <speed>0.4936598018878993</speed>
  <fix>3d</fix>
</trkpt>
<trkpt lat="40.0717773" lon="-105.2297999">
  <ele>1583.0</ele>
  <time>2026-08-28T17:54:34Z</time>
  <course>5.5</course>
  <speed>0.51</speed>
  <fix>3d</fix>
</trkpt>
<trkpt lat="40.0717791" lon="-105.2297995">
  <ele>1582.98</ele>
  <time>2026-08-28T17:54:34Z</time>
  <course>6.75</course>
  <speed>0.4936598018878993</speed>
  <fix>3d</fix>
</trkpt>
<trkpt lat="40.0717782" lon="-105.2297998">
  <ele>1583.0</ele>
  <time>2026-08-28T17:54:34Z</time>
  <course>5.52</course>
  <speed>0.51</speed>
  <fix>3d</fix>
</trkpt>
<trkpt lat="40.0717795" lon="-105.2297995">
  <ele>1582.98</ele>
  <time>2026-08-28T17:54:34Z</time>
  <course>6.76</course>
  <speed>0.4936598018878993</speed>
  <fix>3d</fix>
</trkpt>
<trkpt lat="40.0717791" lon="-105.2297996">
  <ele>1583.0</ele>
  <time>2026-08-28T17:54:34Z</time>
  <course>5.54</course>
  <speed>0.51</speed>
  <fix>3d</fix>
</trkpt>
<trkpt lat="40.07178" lon="-105.2297994">
  <ele>1582.98</ele>
  <time>2026-08-28T17:54:34Z</time>
  <course>6.77</course>
  <speed>0.4936598018878993</speed>
  <fix>3d</fix>
</trkpt>
<trkpt lat="40.0717791" lon="-105.2297996">
  <ele>1583.0</ele>
  <time>2026-08-28T17:54:34Z</time>
  <course>5.54</course>
  <speed>0.51</speed>
  <fix>3d</fix>
</trkpt>
<trkpt lat="40.0717805" lon="-105.2297993">
  <ele>1582.98</ele>
  <time>2026-08-28T17:54:34Z</time>
  <course>6.78</course>
  <speed>0.4936598018878993</speed>
  <fix>3d</fix>
</trkpt>
<trkpt lat="40.0717801" lon="-105.2297995">
  <ele>1583.0</ele>
  <time>2026-08-28T17:54:34Z</time>
  <course>5.56</course>
  <speed>0.51</speed>
  <fix>3d</fix>
</trkpt>
<trkpt lat="40.0717809" lon="-105.2297993">
  <ele>1582.98</ele>
  <time>2026-08-28T17:54:34Z</time>
  <course>6.79</course>
  <speed>0.4936598018878993</speed>
  <fix>3d</fix>
</trkpt>
<trkpt lat="40.0717801" lon="-105.2297995">
  <ele>1583.0</ele>
  <time>2026-08-28T17:54:34Z</time>
  <course>5.56</course>
  <speed>0.51</speed>
  <fix>3d</fix>
</trkpt>
<trkpt lat="40.0717814" lon="-105.2297992">
  <ele>1582.98</ele>
  <time>2026-08-28T17:54:34Z</time>
  <course>6.8</course>
  <speed>0.4936598018878993</speed>
  <fix>3d</fix>
</trkpt>
<trkpt lat="40.071781" lon="-105.2297994">
  <ele>1583.0</ele>
  <time>2026-08-28T17:54:34Z</time>
  <course>5.59</course>
  <speed>0.51</speed>
  <fix>3d</fix>
</trkpt>
<trkpt lat="40.0717819" lon="-105.2297992">
  <ele>1582.98</ele>
  <time>2026-08-28T17:54:34Z</time>
  <course>6.81</course>
  <speed>0.4936598018878993</speed>
  <fix>3d</fix>
</trkpt>
<trkpt lat="40.071781" lon="-105.2297994">
  <ele>1583.0</ele>
  <time>2026-08-28T17:54:34Z</time>
  <course>5.59</course>
  <speed>0.51</speed>
  <fix>3d</fix>
</trkpt>
<trkpt lat="40.0717823" lon="-105.2297991">
  <ele>1582.98</ele>
  <time>2026-08-28T17:54:34Z</time>
  <course>6.82</course>
  <speed>0.4936598018878993</speed>
  <fix>3d</fix>
</trkpt>
<trkpt lat="40.0717819" lon="-105.2297993">
  <ele>1583.0</ele>
  <time>2026-08-28T17:54:34Z</time>
  <course>5.61</course>
  <speed>0.51</speed>
  <fix>3d</fix>
</trkpt>
<trkpt lat="40.0717828" lon="-105.229799">
  <ele>1582.98</ele>
  <time>2026-08-28T17:54:34Z</time>
  <course>6.83</course>
  <speed>0.4936598018878993</speed>
  <fix>3d</fix>
</trkpt>
<trkpt lat="40.0717819" lon="-105.2297993">
  <ele>1583.0</ele>
  <time>2026-08-28T17:54:34Z</time>
  <course>5.61</course>
  <speed>0.51</speed>
  <fix>3d</fix>
</trkpt>
<trkpt lat="40.0717832" lon="-105.229799">
  <ele>1582.98</ele>
  <time>2026-08-28T17:54:34Z</time>
  <course>6.84</course>
  <speed>0.4936598018878993</speed>
  <fix>3d</fix>
</trkpt>
<trkpt lat="40.0717828" lon="-105.2297992">
  <ele>1583.0</ele>
  <time>2026-08-28T17:54:34Z</time>
  <course>5.63</course>
  <speed>0.51</speed>
  <fix>3d</fix>
</trkpt>
<trkpt lat="40.0717837" lon="-105.2297989">
  <ele>1582.98</ele>
  <time>2026-08-28T17:54:34Z</time>
  <course>6.86</course>
  <speed>0.4936598018878993</speed>
  <fix>3d</fix>
</trkpt>
<trkpt lat="40.0717828" lon="-105.2297992">
  <ele>1583.0</ele>
  <time>2026-08-28T17:54:34Z</time>
  <course>5.63</course>
  <speed>0.51</speed>
  <fix>3d</fix>
</trkpt>
<trkpt lat="40.0717842" lon="-105.2297989">
  <ele>1582.98</ele>
  <time>2026-08-28T17:54:34Z</time>
  <course>6.87</course>
  <speed>0.4936598018878993</speed>
  <fix>3d</fix>
</trkpt>
<trkpt lat="40.0717838" lon="-105.229799">
  <ele>1583.0</ele>
  <time>2026-08-28T17:54:34Z</time>
  <course>5.66</course>
  <speed>0.51</speed>
  <fix>3d</fix>
</trkpt>
<trkpt lat="40.0717846" lon="-105.2297988">
  <ele>1582.98</ele>
  <time>2026-08-28T17:54:34Z</time>
  <course>6.88</course>
  <speed>0.4936598018878993</speed>
  <fix>3d</fix>
</trkpt>
<trkpt lat="40.0717838" lon="-105.229799">
  <ele>1583.0</ele>
  <time>2026-08-28T17:54:34Z</time>
  <course>5.66</course>
  <speed>0.51</speed>
  <fix>3d</fix>
</trkpt>
<trkpt lat="40.0717851" lon="-105.2297987">
  <ele>1582.98</ele>
  <time>2026-08-28T17:54:34Z</time>
  <course>6.89</course>
  <speed>0.4936598018878993</speed>
  <fix>3d</fix>
</trkpt>
<trkpt lat="40.0717847" lon="-105.2297989">
  <ele>1583.0</ele>
  <time>2026-08-28T17:54:34Z</time>
  <course>5.68</course>
  <speed>0.51</speed>
  <fix>3d</fix>
</trkpt>
<trkpt lat="40.0717856" lon="-105.2297987">
  <ele>1582.98</ele>
  <time>2026-08-28T17:54:34Z</time>
  <course>6.9</course>
  <speed>0.4936598018878993</speed>
  <fix>3d</fix>
</trkpt>
<trkpt lat="40.0717847" lon="-105.2297989">
  <ele>1583.0</ele>
  <time>2026-08-28T17:54:34Z</time>
  <course>5.68</course>
  <speed>0.51</speed>
  <fix>3d</fix>
</trkpt>
<trkpt lat="40.071786" lon="-105.2297986">
  <ele>1582.98</ele>
  <time>2026-08-28T17:54:34Z</time>
  <course>6.92</course>
  <speed>0.4936598018878993</speed>
  <fix>3d</fix>
</trkpt>
<trkpt lat="40.0717847" lon="-105.2297989">
  <ele>1583.0</ele>
  <time>2026-08-28T17:54:34Z</time>
  <course>5.68</course>
  <speed>0.51</speed>
  <fix>3d</fix>
</trkpt>
<trkpt lat="40.0717865" lon="-105.2297985">
  <ele>1582.98</ele>
  <time>2026-08-28T17:54:34Z</time>
  <course>6.93</course>
  <speed>0.4936598018878993</speed>
  <fix>3d</fix>
</trkpt>
<trkpt lat="40.0717856" lon="-105.2297988">
  <ele>1583.0</ele>
  <time>2026-08-28T17:54:34Z</time>
  <course>5.71</course>
  <speed>0.51</speed>
  <fix>3d</fix>
</trkpt>
<trkpt lat="40.071787" lon="-105.2297985">
  <ele>1582.98</ele>
  <time>2026-08-28T17:54:34Z</time>
  <course>6.95</course>
  <speed>0.4936598018878993</speed>
  <fix>3d</fix>
</trkpt>
<trkpt lat="40.0717856" lon="-105.2297988">
  <ele>1583.0</ele>
  <time>2026-08-28T17:54:34Z</time>
  <course>5.71</course>
  <speed>0.51</speed>
  <fix>3d</fix>
</trkpt>
<trkpt lat="40.0717874" lon="-105.2297984">
  <ele>1582.98</ele>
  <time>2026-08-28T17:54:34Z</time>
  <course>6.96</course>
  <speed>0.4936598018878993</speed>
  <fix>3d</fix>
</trkpt>
<trkpt lat="40.0717865" lon="-105.2297987">
  <ele>1583.0</ele>
  <time>2026-08-28T17:54:34Z</time>
  <course>5.74</course>
  <speed>0.51</speed>
  <fix>3d</fix>
</trkpt>
<trkpt lat="40.0717879" lon="-105.2297984">
  <ele>1582.98</ele>
  <time>2026-08-28T17:54:34Z</time>
  <course>6.97</course>
  <speed>0.4936598018878993</speed>
  <fix>3d</fix>
</trkpt>
<trkpt lat="40.0717865" lon="-105.2297987">
  <ele>1583.0</ele>
  <time>2026-08-28T17:54:34Z</time>
  <course>5.74</course>
  <speed>0.51</speed>
  <fix>3d</fix>
</trkpt>
<trkpt lat="40.0717883" lon="-105.2297983">
  <ele>1582.98</ele>
  <time>2026-08-28T17:54:34Z</time>
  <course>6.98</course>
  <speed>0.4936598018878993</speed>
  <fix>3d</fix>
</trkpt>
<trkpt lat="40.0717875" lon="-105.2297986">
  <ele>1583.0</ele>
  <time>2026-08-28T17:54:34Z</time>
  <course>5.76</course>
  <speed>0.51</speed>
  <fix>3d</fix>
</trkpt>
<trkpt lat="40.0717888" lon="-105.2297982">
  <ele>1582.97</ele>
  <time>2026-08-28T17:54:34Z</time>
  <course>7.0</course>
  <speed>0.4936598018878993</speed>
  <fix>3d</fix>
</trkpt>
<trkpt lat="40.0717884" lon="-105.2297984">
  <ele>1583.0</ele>
  <time>2026-08-28T17:54:34Z</time>
  <course>5.79</course>
  <speed>0.51</speed>
  <fix>3d</fix>
</trkpt>
<trkpt lat="40.0717893" lon="-105.2297982">
  <ele>1582.97</ele>
  <time>2026-08-28T17:54:34Z</time>
  <course>7.01</course>
  <speed>0.4936598018878993</speed>
  <fix>3d</fix>
</trkpt>
<trkpt lat="40.0717884" lon="-105.2297984">
  <ele>1583.0</ele>
  <time>2026-08-28T17:54:34Z</time>
  <course>5.79</course>
  <speed>0.51</speed>
  <fix>3d</fix>
</trkpt>
<trkpt lat="40.0717897" lon="-105.2297981">
  <ele>1582.97</ele>
  <time>2026-08-28T17:54:34Z</time>
  <course>7.03</course>
  <speed>0.4936598018878993</speed>
  <fix>3d</fix>
</trkpt>
<trkpt lat="40.0717893" lon="-105.2297983">
  <ele>1583.0</ele>
  <time>2026-08-28T17:54:34Z</time>
  <course>5.82</course>
  <speed>0.51</speed>
  <fix>3d</fix>
</trkpt>
<trkpt lat="40.0717902" lon="-105.2297981">
  <ele>1582.97</ele>
  <time>2026-08-28T17:54:34Z</time>
  <course>7.04</course>
  <speed>0.4936598018878993</speed>
  <fix>3d</fix>
</trkpt>
<trkpt lat="40.0717893" lon="-105.2297983">
  <ele>1583.0</ele>
  <time>2026-08-28T17:54:34Z</time>
  <course>5.82</course>
  <speed>0.51</speed>
  <fix>3d</fix>
</trkpt>
<trkpt lat="40.0717906" lon="-105.229798">
  <ele>1582.97</ele>
  <time>2026-08-28T17:54:34Z</time>
  <course>7.06</course>
  <speed>0.4936598018878993</speed>
  <fix>3d</fix>
</trkpt>
<trkpt lat="40.0717902" lon="-105.2297982">
  <ele>1583.0</ele>
  <time>2026-08-28T17:54:34Z</time>
  <course>5.85</course>
  <speed>0.51</speed>
  <fix>3d</fix>
</trkpt>
<trkpt lat="40.0717911" lon="-105.2297979">
  <ele>1582.97</ele>
  <time>2026-08-28T17:54:34Z</time>
  <course>7.08</course>
  <speed>0.4936598018878993</speed>
  <fix>3d</fix>
</trkpt>
<trkpt lat="40.0717902" lon="-105.2297982">
  <ele>1583.0</ele>
  <time>2026-08-28T17:54:34Z</time>
  <course>5.85</course>
  <speed>0.51</speed>
  <fix>3d</fix>
</trkpt>
<trkpt lat="40.0717916" lon="-105.2297979">
  <ele>1582.97</ele>
  <time>2026-08-28T17:54:34Z</time>
  <course>7.09</course>
  <speed>0.4936598018878993</speed>
  <fix>3d</fix>
</trkpt>
<trkpt lat="40.0717912" lon="-105.229798">
  <ele>1583.0</ele>
  <time>2026-08-28T17:54:34Z</time>
  <course>5.88</course>
  <speed>0.51</speed>
  <fix>3d</fix>
</trkpt>
<trkpt lat="40.071792" lon="-105.2297978">
  <ele>1582.97</ele>
  <time>2026-08-28T17:54:34Z</time>
  <course>7.11</course>
  <speed>0.4936598018878993</speed>
  <fix>3d</fix>
</trkpt>
<trkpt lat="40.0717912" lon="-105.229798">
  <ele>1583.0</ele>
  <time>2026-08-28T17:54:34Z</time>
  <course>5.88</course>
  <speed>0.51</speed>
  <fix>3d</fix>
</trkpt>
<trkpt lat="40.0717925" lon="-105.2297977">
  <ele>1582.97</ele>
  <time>2026-08-28T17:54:34Z</time>
  <course>7.12</course>
  <speed>0.4936598018878993</speed>
  <fix>3d</fix>
</trkpt>
<trkpt lat="40.0717921" lon="-105.2297979">
  <ele>1583.0</ele>
  <time>2026-08-28T17:54:34Z</time>
  <course>5.91</course>
  <speed>0.51</speed>
  <fix>3d</fix>
</trkpt>
<trkpt lat="40.071793" lon="-105.2297977">
  <ele>1582.98</ele>
  <time>2026-08-28T17:54:34Z</time>
  <course>7.13</course>
  <speed>0.4936598018878993</speed>
  <fix>3d</fix>
</trkpt>
<trkpt lat="40.0717921" lon="-105.2297979">
  <ele>1583.0</ele>
  <time>2026-08-28T17:54:34Z</time>
  <course>5.91</course>
  <speed>0.51</speed>
  <fix>3d</fix>
</trkpt>
<trkpt lat="40.0717934" lon="-105.2297976">
  <ele>1582.98</ele>
  <time>2026-08-28T17:54:34Z</time>
  <course>7.15</course>
  <speed>0.4949747468305833</speed>
  <fix>3d</fix>
</trkpt>
<trkpt lat="40.071793" lon="-105.2297978">
  <ele>1583.0</ele>
  <time>2026-08-28T17:54:34Z</time>
  <course>5.95</course>
  <speed>0.51</speed>
  <fix>3d</fix>
</trkpt>
<trkpt lat="40.0717939" lon="-105.2297975">
  <ele>1582.98</ele>
  <time>2026-08-28T17:54:34Z</time>
  <course>7.16</course>
  <speed>0.4949747468305833</speed>
  <fix>3d</fix>
</trkpt>
<trkpt lat="40.071793" lon="-105.2297978">
  <ele>1583.0</ele>
  <time>2026-08-28T17:54:34Z</time>
  <course>5.95</course>
  <speed>0.51</speed>
  <fix>3d</fix>
</trkpt>
<trkpt lat="40.0717944" lon="-105.2297975">
  <ele>1582.98</ele>
  <time>2026-08-28T17:54:34Z</time>
  <course>7.18</course>
  <speed>0.4949747468305833</speed>
  <fix>3d</fix>
</trkpt>
<trkpt lat="40.071794" lon="-105.2297977">
  <ele>1583.0</ele>
  <time>2026-08-28T17:54:34Z</time>
  <course>5.98</course>
  <speed>0.51</speed>
  <fix>3d</fix>
</trkpt>
<trkpt lat="40.0717948" lon="-105.2297974">
  <ele>1582.99</ele>
  <time>2026-08-28T17:54:34Z</time>
  <course>7.2</course>
  <speed>0.4949747468305833</speed>
  <fix>3d</fix>
</trkpt>
<trkpt lat="40.071794" lon="-105.2297977">
  <ele>1583.0</ele>
  <time>2026-08-28T17:54:34Z</time>
  <course>5.98</course>
  <speed>0.51</speed>
  <fix>3d</fix>
</trkpt>
<trkpt lat="40.0717953" lon="-105.2297973">
  <ele>1582.99</ele>
  <time>2026-08-28T17:54:34Z</time>
  <course>7.21</course>
  <speed>0.4949747468305833</speed>
  <fix>3d</fix>
</trkpt>
<trkpt lat="40.071794" lon="-105.2297977">
  <ele>1583.0</ele>
  <time>2026-08-28T17:54:34Z</time>
  <course>5.98</course>
  <speed>0.51</speed>
  <fix>3d</fix>
</trkpt>
<trkpt lat="40.0717958" lon="-105.2297973">
  <ele>1583.0</ele>
  <time>2026-08-28T17:54:34Z</time>
  <course>7.22</course>
  <speed>0.4949747468305833</speed>
  <fix>3d</fix>
</trkpt>
<trkpt lat="40.0717949" lon="-105.2297975">
  <ele>1583.0</ele>
  <time>2026-08-28T17:54:34Z</time>
  <course>6.01</course>
  <speed>0.51</speed>
  <fix>3d</fix>
</trkpt>
<trkpt lat="40.0717962" lon="-105.2297972">
  <ele>1583.0</ele>
  <time>2026-08-28T17:54:34Z</time>
  <course>7.24</course>
  <speed>0.4949747468305833</speed>
  <fix>3d</fix>
</trkpt>
<trkpt lat="40.0717949" lon="-105.2297975">
  <ele>1583.0</ele>
  <time>2026-08-28T17:54:34Z</time>
  <course>6.01</course>
  <speed>0.51</speed>
  <fix>3d</fix>
</trkpt>
<trkpt lat="40.0717967" lon="-105.2297971">
  <ele>1583.0</ele>
  <time>2026-08-28T17:54:34Z</time>
  <course>7.25</course>
  <speed>0.4949747468305833</speed>
  <fix>3d</fix>
</trkpt>
<trkpt lat="40.0717958" lon="-105.2297974">
  <ele>1583.0</ele>
  <time>2026-08-28T17:54:34Z</time>
  <course>6.04</course>
  <speed>0.51</speed>
  <fix>3d</fix>
</trkpt>
<trkpt lat="40.0717971" lon="-105.2297971">
  <ele>1583.0</ele>
  <time>2026-08-28T17:54:34Z</time>
  <course>7.27</course>
  <speed>0.4949747468305833</speed>
  <fix>3d</fix>
</trkpt>
<trkpt lat="40.0717958" lon="-105.2297974">
  <ele>1583.0</ele>
  <time>2026-08-28T17:54:34Z</time>
  <course>6.04</course>
  <speed>0.51</speed>
  <fix>3d</fix>
</trkpt>
<trkpt lat="40.0717976" lon="-105.229797">
  <ele>1583.0</ele>
  <time>2026-08-28T17:54:34Z</time>
  <course>7.28</course>
  <speed>0.4949747468305833</speed>
  <fix>3d</fix>
</trkpt>
<trkpt lat="40.0717967" lon="-105.2297973">
  <ele>1583.0</ele>
  <time>2026-08-28T17:54:34Z</time>
  <course>6.07</course>
  <speed>0.51</speed>
  <fix>3d</fix>
</trkpt>
<trkpt lat="40.0717981" lon="-105.2297969">
  <ele>1583.0</ele>
  <time>2026-08-28T17:54:34Z</time>
  <course>7.3</course>
  <speed>0.4949747468305833</speed>
  <fix>3d</fix>
</trkpt>
<trkpt lat="40.0717967" lon="-105.2297973">
  <ele>1583.0</ele>
  <time>2026-08-28T17:54:34Z</time>
  <course>6.07</course>
  <speed>0.51</speed>
  <fix>3d</fix>
</trkpt>
<trkpt lat="40.0717985" lon="-105.2297969">
  <ele>1583.0</ele>
  <time>2026-08-28T17:54:34Z</time>
  <course>7.31</course>
  <speed>0.4949747468305833</speed>
  <fix>3d</fix>
</trkpt>
<trkpt lat="40.0717977" lon="-105.2297972">
  <ele>1583.0</ele>
  <time>2026-08-28T17:54:34Z</time>
  <course>6.1</course>
  <speed>0.51</speed>
  <fix>3d</fix>
</trkpt>
<trkpt lat="40.071799" lon="-105.2297968">
  <ele>1582.99</ele>
  <time>2026-08-28T17:54:34Z</time>
  <course>7.33</course>
  <speed>0.4949747468305833</speed>
  <fix>3d</fix>
</trkpt>
<trkpt lat="40.0717986" lon="-105.229797">
  <ele>1583.0</ele>
  <time>2026-08-28T17:54:34Z</time>
  <course>6.13</course>
  <speed>0.51</speed>
  <fix>3d</fix>
</trkpt>
<trkpt lat="40.0717994" lon="-105.2297968">
  <ele>1582.99</ele>
  <time>2026-08-28T17:54:34Z</time>
  <course>7.34</course>
  <speed>0.4949747468305833</speed>
  <fix>3d</fix>
</trkpt>
<trkpt lat="40.0717986" lon="-105.229797">
  <ele>1583.0</ele>
  <time>2026-08-28T17:54:34Z</time>
  <course>6.13</course>
  <speed>0.51</speed>
  <fix>3d</fix>
</trkpt>
<trkpt lat="40.0717999" lon="-105.2297967">
  <ele>1582.99</ele>
  <time>2026-08-28T17:54:34Z</time>
  <course>7.36</course>
  <speed>0.4949747468305833</speed>
  <fix>3d</fix>
</trkpt>
<trkpt lat="40.0717995" lon="-105.2297969">
  <ele>1583.0</ele>
  <time>2026-08-28T17:54:34Z</time>
  <course>6.16</course>
  <speed>0.51</speed>
  <fix>3d</fix>
</trkpt>
<trkpt lat="40.0718004" lon="-105.2297966">
  <ele>1582.99</ele>
  <time>2026-08-28T17:54:34Z</time>
  <course>7.37</course>
  <speed>0.4949747468305833</speed>
  <fix>3d</fix>
</trkpt>
<trkpt lat="40.0717995" lon="-105.2297969">
  <ele>1583.0</ele>
  <time>2026-08-28T17:54:34Z</time>
  <course>6.16</course>
  <speed>0.51</speed>
  <fix>3d</fix>
</trkpt>
<trkpt lat="40.0718008" lon="-105.2297966">
  <ele>1582.99</ele>
  <time>2026-08-28T17:54:34Z</time>
  <course>7.39</course>
  <speed>0.4949747468305833</speed>
  <fix>3d</fix>
</trkpt>
<trkpt lat="40.0718004" lon="-105.2297968">
  <ele>1583.0</ele>
  <time>2026-08-28T17:54:34Z</time>
  <course>6.19</course>
  <speed>0.51</speed>
  <fix>3d</fix>
</trkpt>
<trkpt lat="40.0718013" lon="-105.2297965">
  <ele>1582.99</ele>
  <time>2026-08-28T17:54:34Z</time>
  <course>7.4</course>
  <speed>0.4949747468305833</speed>
  <fix>3d</fix>
</trkpt>
<trkpt lat="40.0718004" lon="-105.2297968">
  <ele>1583.0</ele>
  <time>2026-08-28T17:54:34Z</time>
  <course>6.19</course>
  <speed>0.51</speed>
  <fix>3d</fix>
</trkpt>
<trkpt lat="40.0718018" lon="-105.2297964">
  <ele>1582.99</ele>
  <time>2026-08-28T17:54:34Z</time>
  <course>7.42</course>
  <speed>0.4949747468305833</speed>
  <fix>3d</fix>
</trkpt>
<trkpt lat="40.0718014" lon="-105.2297967">
  <ele>1583.0</ele>
  <time>2026-08-28T17:54:34Z</time>
  <course>6.22</course>
  <speed>0.51</speed>
  <fix>3d</fix>
</trkpt>
<trkpt lat="40.0718022" lon="-105.2297964">
  <ele>1583.0</ele>
  <time>2026-08-28T17:54:34Z</time>
  <course>7.44</course>
  <speed>0.4949747468305833</speed>
  <fix>3d</fix>
</trkpt>
<trkpt lat="40.0718014" lon="-105.2297967">
  <ele>1583.0</ele>
  <time>2026-08-28T17:54:34Z</time>
  <course>6.22</course>
  <speed>0.51</speed>
  <fix>3d</fix>
</trkpt>
<trkpt lat="40.0718027" lon="-105.2297963">
  <ele>1583.0</ele>
  <time>2026-08-28T17:54:34Z</time>
  <course>7.45</course>
  <speed>0.4949747468305833</speed>
  <fix>3d</fix>
</trkpt>
<trkpt lat="40.0718023" lon="-105.2297965">
  <ele>1583.0</ele>
  <time>2026-08-28T17:54:34Z</time>
  <course>6.26</course>
  <speed>0.51</speed>
  <fix>3d</fix>
</trkpt>
<trkpt lat="40.0718032" lon="-105.2297962">
  <ele>1583.0</ele>
  <time>2026-08-28T17:54:34Z</time>
  <course>7.47</course>
  <speed>0.4850773134253961</speed>
  <fix>3d</fix>
</trkpt>
<trkpt lat="40.0718023" lon="-105.2297965">
  <ele>1583.0</ele>
  <time>2026-08-28T17:54:34Z</time>
  <course>6.26</course>
  <speed>0.51</speed>
  <fix>3d</fix>
</trkpt>
<trkpt lat="40.0718036" lon="-105.2297962">
  <ele>1583.0</ele>
  <time>2026-08-28T17:54:34Z</time>
  <course>7.48</course>
  <speed>0.4850773134253961</speed>
  <fix>3d</fix>
</trkpt>
<trkpt lat="40.0718032" lon="-105.2297964">
  <ele>1583.0</ele>
  <time>2026-08-28T17:54:34Z</time>
  <course>6.29</course>
  <speed>0.51</speed>
  <fix>3d</fix>
</trkpt>
<trkpt lat="40.0718041" lon="-105.2297961">
  <ele>1583.0</ele>
  <time>2026-08-28T17:54:34Z</time>
  <course>7.5</course>
  <speed>0.4738143096192854</speed>
  <fix>3d</fix>
</trkpt>
<trkpt lat="40.0718032" lon="-105.2297964">
  <ele>1583.0</ele>
  <time>2026-08-28T17:54:34Z</time>
  <course>6.29</course>
  <speed>0.51</speed>
  <fix>3d</fix>
</trkpt>
<trkpt lat="40.0718045" lon="-105.2297961">
  <ele>1583.0</ele>
  <time>2026-08-28T17:54:34Z</time>
  <course>7.51</course>
  <speed>0.46389654018972803</speed>
  <fix>3d</fix>
</trkpt>
<trkpt lat="40.0718041" lon="-105.2297963">
  <ele>1583.0</ele>
  <time>2026-08-28T17:54:34Z</time>
  <course>6.32</course>
  <speed>0.49</speed>
  <fix>3d</fix>
</trkpt>
<trkpt lat="40.0718049" lon="-105.229796">
  <ele>1583.0</ele>
  <time>2026-08-28T17:54:34Z</time>
  <course>7.53</course>
  <speed>0.45398237851264667</speed>
  <fix>3d</fix>
</trkpt>
<trkpt lat="40.0718041" lon="-105.2297963">
  <ele>1583.0</ele>
  <time>2026-08-28T17:54:34Z</time>
  <course>6.32</course>
  <speed>0.49</speed>
  <fix>3d</fix>
</trkpt>
<trkpt lat="40.0718054" lon="-105.2297959">
  <ele>1583.0</ele>
  <time>2026-08-28T17:54:34Z</time>
  <course>7.54</course>
  <speed>0.4440720662234904</speed>
  <fix>3d</fix>
</trkpt>
<trkpt lat="40.0718041" lon="-105.2297963">
  <ele>1583.0</ele>
  <time>2026-08-28T17:54:34Z</time>
  <course>6.32</course>
  <speed>0.49</speed>
  <fix>3d</fix>
</trkpt>
<trkpt lat="40.0718058" lon="-105.2297959">
  <ele>1583.0</ele>
  <time>2026-08-28T17:54:34Z</time>
  <course>7.56</course>
  <speed>0.4341658669218482</speed>
  <fix>3d</fix>
</trkpt>
<trkpt lat="40.071805" lon="-105.2297961">
  <ele>1583.0</ele>
  <time>2026-08-28T17:54:34Z</time>
  <course>6.35</course>
  <speed>0.48</speed>
  <fix>3d</fix>
</trkpt>
<trkpt lat="40.0718062" lon="-105.2297958">
  <ele>1583.0</ele>
  <time>2026-08-28T17:54:34Z</time>
  <course>7.57</course>
  <speed>0.4242640687119285</speed>
  <fix>3d</fix>
</trkpt>
<trkpt lat="40.071805" lon="-105.2297961">
  <ele>1583.0</ele>
  <time>2026-08-28T17:54:34Z</time>
  <course>6.35</course>
  <speed>0.48</speed>
  <fix>3d</fix>
</trkpt>
<trkpt lat="40.0718066" lon="-105.2297958">
  <ele>1583.0</ele>
  <time>2026-08-28T17:54:34Z</time>
  <course>7.59</course>
  <speed>0.4143669871020132</speed>
  <fix>3d</fix>
</trkpt>
<trkpt lat="40.0718059" lon="-105.229796">
  <ele>1583.0</ele>
  <time>2026-08-28T17:54:34Z</time>
  <course>6.38</course>
  <speed>0.46</speed>
  <fix>3d</fix>
</trkpt>
<trkpt lat="40.071807" lon="-105.2297957">
  <ele>1583.01</ele>
  <time>2026-08-28T17:54:34Z</time>
  <course>7.6</course>
  <speed>0.4044749683231337</speed>
  <fix>3d</fix>
</trkpt>
<trkpt lat="40.0718059" lon="-105.229796">
  <ele>1583.0</ele>
  <time>2026-08-28T17:54:34Z</time>
  <course>6.38</course>
  <speed>0.46</speed>
  <fix>3d</fix>
</trkpt>
<trkpt lat="40.0718073" lon="-105.2297957">
  <ele>1583.0</ele>
  <time>2026-08-28T17:54:34Z</time>
  <course>7.62</course>
  <speed>0.3945883931389772</speed>
  <fix>3d</fix>
</trkpt>
<trkpt lat="40.0718066" lon="-105.2297959">
  <ele>1583.0</ele>
  <time>2026-08-28T17:54:34Z</time>
  <course>6.41</course>
  <speed>0.43</speed>
  <fix>3d</fix>
</trkpt>
<trkpt lat="40.0718077" lon="-105.2297956">
  <ele>1583.0</ele>
  <time>2026-08-28T17:54:34Z</time>
  <course>7.63</course>
  <speed>0.37336309405188944</speed>
  <fix>3d</fix>
</trkpt>
<trkpt lat="40.0718074" lon="-105.2297958">
  <ele>1583.0</ele>
  <time>2026-08-28T17:54:34Z</time>
  <course>6.44</course>
  <speed>0.41</speed>
  <fix>3d</fix>
</trkpt>
<trkpt lat="40.071808" lon="-105.2297956">
  <ele>1583.0</ele>
  <time>2026-08-28T17:54:34Z</time>
  <course>7.64</course>
  <speed>0.3634556369077249</speed>
  <fix>3d</fix>
</trkpt>
<trkpt lat="40.0718074" lon="-105.2297958">
  <ele>1583.0</ele>
  <time>2026-08-28T17:54:34Z</time>
  <course>6.44</course>
  <speed>0.41</speed>
  <fix>3d</fix>
</trkpt>
<trkpt lat="40.0718084" lon="-105.2297955">
  <ele>1583.0</ele>
  <time>2026-08-28T17:54:34Z</time>
  <course>7.65</course>
  <speed>0.3535533905932738</speed>
  <fix>3d</fix>
</trkpt>
<trkpt lat="40.0718081" lon="-105.2297957">
  <ele>1583.0</ele>
  <time>2026-08-28T17:54:34Z</time>
  <course>6.47</course>
  <speed>0.39</speed>
  <fix>3d</fix>
</trkpt>
<trkpt lat="40.0718087" lon="-105.2297955">
  <ele>1583.0</ele>
  <time>2026-08-28T17:54:34Z</time>
  <course>7.67</course>
  <speed>0.34365680554879163</speed>
  <fix>3d</fix>
</trkpt>
<trkpt lat="40.0718081" lon="-105.2297957">
  <ele>1583.0</ele>
  <time>2026-08-28T17:54:34Z</time>
  <course>6.47</course>
  <speed>0.39</speed>
  <fix>3d</fix>
</trkpt>
<trkpt lat="40.071809" lon="-105.2297954">
  <ele>1583.0</ele>
  <time>2026-08-28T17:54:34Z</time>
  <course>7.68</course>
  <speed>0.33376638536557274</speed>
  <fix>3d</fix>
</trkpt>
<trkpt lat="40.0718088" lon="-105.2297956">
  <ele>1583.0</ele>
  <time>2026-08-28T17:54:34Z</time>
  <course>6.49</course>
  <speed>0.37</speed>
  <fix>3d</fix>
</trkpt>
<trkpt lat="40.0718093" lon="-105.2297954">
  <ele>1583.0</ele>
  <time>2026-08-28T17:54:34Z</time>
  <course>7.69</course>
  <speed>0.3238826948140329</speed>
  <fix>3d</fix>
</trkpt>
<trkpt lat="40.0718088" lon="-105.2297956">
  <ele>1583.0</ele>
  <time>2026-08-28T17:54:34Z</time>
  <course>6.49</course>
  <speed>0.37</speed>
  <fix>3d</fix>
</trkpt>
<trkpt lat="40.0718096" lon="-105.2297953">
  <ele>1582.99</ele>
  <time>2026-08-28T17:54:34Z</time>
  <course>7.7</course>
  <speed>0.31400636936215165</speed>
  <fix>3d</fix>
</trkpt>
<trkpt lat="40.0718095" lon="-105.2297955">
  <ele>1583.0</ele>
  <time>2026-08-28T17:54:34Z</time>
  <course>6.51</course>
  <speed>0.35</speed>
  <fix>3d</fix>
</trkpt>
<trkpt lat="40.07181" lon="-105.2297953">
  <ele>1582.99</ele>
  <time>2026-08-28T17:54:34Z</time>
  <course>7.71</course>
  <speed>0.3026549190084311</speed>
  <fix>3d</fix>
</trkpt>
<trkpt lat="40.0718095" lon="-105.2297955">
  <ele>1583.0</ele>
  <time>2026-08-28T17:54:34Z</time>
  <course>6.51</course>
  <speed>0.35</speed>
  <fix>3d</fix>
</trkpt>
<trkpt lat="40.0718102" lon="-105.2297952">
  <ele>1582.99</ele>
  <time>2026-08-28T17:54:34Z</time>
  <course>7.72</course>
  <speed>0.29274562336608895</speed>
  <fix>3d</fix>
</trkpt>
<trkpt lat="40.07181" lon="-105.2297954">
  <ele>1583.0</ele>
  <time>2026-08-28T17:54:34Z</time>
  <course>6.54</course>
  <speed>0.33</speed>
  <fix>3d</fix>
</trkpt>
<trkpt lat="40.0718105" lon="-105.2297952">
  <ele>1582.99</ele>
  <time>2026-08-28T17:54:34Z</time>
  <course>7.73</course>
  <speed>0.282842712474619</speed>
  <fix>3d</fix>
</trkpt>
<trkpt lat="40.07181" lon="-105.2297954">
  <ele>1583.0</ele>
  <time>2026-08-28T17:54:34Z</time>
  <course>6.54</course>
  <speed>0.33</speed>
  <fix>3d</fix>
</trkpt>
<trkpt lat="40.0718108" lon="-105.2297952">
  <ele>1582.98</ele>
  <time>2026-08-28T17:54:34Z</time>
  <course>7.74</course>
  <speed>0.27294688127912364</speed>
  <fix>3d</fix>
</trkpt>
<trkpt lat="40.0718107" lon="-105.2297953">
  <ele>1583.0</ele>
  <time>2026-08-28T17:54:34Z</time>
  <course>6.56</course>
  <speed>0.31</speed>
  <fix>3d</fix>
</trkpt>
<trkpt lat="40.0718111" lon="-105.2297951">
  <ele>1582.98</ele>
  <time>2026-08-28T17:54:34Z</time>
  <course>7.75</course>
  <speed>0.27294688127912364</speed>
  <fix>3d</fix>
</trkpt>
<trkpt lat="40.0718107" lon="-105.2297953">
  <ele>1583.0</ele>
  <time>2026-08-28T17:54:34Z</time>
  <course>6.56</course>
  <speed>0.31</speed>
  <fix>3d</fix>
</trkpt>
<trkpt lat="40.0718113" lon="-105.2297951">
  <ele>1582.99</ele>
  <time>2026-08-28T17:54:34Z</time>
  <course>7.76</course>
  <speed>0.26305892875931813</speed>
  <fix>3d</fix>
</trkpt>
<trkpt lat="40.0718112" lon="-105.2297952">
  <ele>1583.0</ele>
  <time>2026-08-28T17:54:34Z</time>
  <course>6.58</course>
  <speed>0.29</speed>
  <fix>3d</fix>
</trkpt>
<trkpt lat="40.0718116" lon="-105.2297951">
  <ele>1582.99</ele>
  <time>2026-08-28T17:54:34Z</time>
  <course>7.77</course>
  <speed>0.25317977802344327</speed>
  <fix>3d</fix>
</trkpt>
<trkpt lat="40.0718112" lon="-105.2297952">
  <ele>1583.0</ele>
  <time>2026-08-28T17:54:34Z</time>
  <course>6.58</course>
  <speed>0.29</speed>
  <fix>3d</fix>
</trkpt>
<trkpt lat="40.0718118" lon="-105.229795">
  <ele>1582.99</ele>
  <time>2026-08-28T17:54:34Z</time>
  <course>7.78</course>
  <speed>0.25317977802344327</speed>
  <fix>3d</fix>
</trkpt>
<trkpt lat="40.0718112" lon="-105.2297952">
  <ele>1583.0</ele>
  <time>2026-08-28T17:54:34Z</time>
  <course>6.58</course>
  <speed>0.29</speed>
  <fix>3d</fix>
</trkpt>
<trkpt lat="40.0718121" lon="-105.229795">
  <ele>1582.99</ele>
  <time>2026-08-28T17:54:34Z</time>
  <course>7.79</course>
  <speed>0.24331050121192876</speed>
  <fix>3d</fix>
</trkpt>
<trkpt lat="40.0718117" lon="-105.2297951">
  <ele>1583.0</ele>
  <time>2026-08-28T17:54:34Z</time>
  <course>6.6</course>
  <speed>0.28</speed>
  <fix>3d</fix>
</trkpt>
<trkpt lat="40.0718123" lon="-105.2297949">
  <ele>1582.99</ele>
  <time>2026-08-28T17:54:34Z</time>
  <course>7.79</course>
  <speed>0.24331050121192876</speed>
  <fix>3d</fix>
</trkpt>
<trkpt lat="40.0718117" lon="-105.2297951">
  <ele>1583.0</ele>
  <time>2026-08-28T17:54:34Z</time>
  <course>6.6</course>
  <speed>0.28</speed>
  <fix>3d</fix>
</trkpt>
<trkpt lat="40.0718125" lon="-105.2297949">
  <ele>1582.99</ele>
  <time>2026-08-28T17:54:34Z</time>
  <course>7.8</course>
  <speed>0.23345235059857505</speed>
  <fix>3d</fix>
</trkpt>
<trkpt lat="40.0718122" lon="-105.229795">
  <ele>1583.0</ele>
  <time>2026-08-28T17:54:34Z</time>
  <course>6.62</course>
  <speed>0.27</speed>
  <fix>3d</fix>
</trkpt>
<trkpt lat="40.0718128" lon="-105.2297949">
  <ele>1582.99</ele>
  <time>2026-08-28T17:54:34Z</time>
  <course>7.81</course>
  <speed>0.23345235059857505</speed>
  <fix>3d</fix>
</trkpt>
<trkpt lat="40.0718122" lon="-105.229795">
  <ele>1583.0</ele>
  <time>2026-08-28T17:54:34Z</time>
  <course>6.62</course>
  <speed>0.27</speed>
  <fix>3d</fix>
</trkpt>
<trkpt lat="40.071813" lon="-105.2297948">
  <ele>1582.99</ele>
  <time>2026-08-28T17:54:34Z</time>
  <course>7.82</course>
  <speed>0.223606797749979</speed>
  <fix>3d</fix>
</trkpt>
<trkpt lat="40.0718127" lon="-105.229795">
  <ele>1583.0</ele>
  <time>2026-08-28T17:54:34Z</time>
  <course>6.63</course>
  <speed>0.26</speed>
  <fix>3d</fix>
</trkpt>
<trkpt lat="40.0718132" lon="-105.2297948">
  <ele>1582.99</ele>
  <time>2026-08-28T17:54:34Z</time>
  <course>7.82</course>
  <speed>0.223606797749979</speed>
  <fix>3d</fix>
</trkpt>
<trkpt lat="40.0718127" lon="-105.229795">
  <ele>1583.0</ele>
  <time>2026-08-28T17:54:34Z</time>
  <course>6.63</course>
  <speed>0.26</speed>
  <fix>3d</fix>
</trkpt>
<trkpt lat="40.0718134" lon="-105.2297947">
  <ele>1582.98</ele>
  <time>2026-08-28T17:54:34Z</time>
  <course>7.83</course>
  <speed>0.21377558326431947</speed>
  <fix>3d</fix>
</trkpt>
<trkpt lat="40.0718131" lon="-105.2297949">
  <ele>1583.0</ele>
  <time>2026-08-28T17:54:34Z</time>
  <course>6.65</course>
  <speed>0.25</speed>
  <fix>3d</fix>
</trkpt>
<trkpt lat="40.0718136" lon="-105.2297947">
  <ele>1582.98</ele>
  <time>2026-08-28T17:54:34Z</time>
  <course>7.84</course>
  <speed>0.21377558326431947</speed>
  <fix>3d</fix>
</trkpt>
<trkpt lat="40.0718136" lon="-105.2297949">
  <ele>1583.0</ele>
  <time>2026-08-28T17:54:34Z</time>
  <course>6.66</course>
  <speed>0.24</speed>
  <fix>3d</fix>
</trkpt>
<trkpt lat="40.0718138" lon="-105.2297947">
  <ele>1582.99</ele>
  <time>2026-08-28T17:54:34Z</time>
  <course>7.84</course>
  <speed>0.2039607805437114</speed>
  <fix>3d</fix>
</trkpt>
<trkpt lat="40.0718136" lon="-105.2297949">
  <ele>1583.0</ele>
  <time>2026-08-28T17:54:34Z</time>
  <course>6.66</course>
  <speed>0.24</speed>
  <fix>3d</fix>
</trkpt>
<trkpt lat="40.071814" lon="-105.2297947">
  <ele>1582.99</ele>
  <time>2026-08-28T17:54:34Z</time>
  <course>7.85</course>
  <speed>0.2039607805437114</speed>
  <fix>3d</fix>
</trkpt>
<trkpt lat="40.0718141" lon="-105.2297948">
  <ele>1583.0</ele>
  <time>2026-08-28T17:54:34Z</time>
  <course>6.67</course>
  <speed>0.23</speed>
  <fix>3d</fix>
</trkpt>
<trkpt lat="40.0718142" lon="-105.2297946">
  <ele>1582.99</ele>
  <time>2026-08-28T17:54:34Z</time>
  <course>7.85</course>
  <speed>0.19235384061671343</speed>
  <fix>3d</fix>
</trkpt>
<trkpt lat="40.0718141" lon="-105.2297948">
  <ele>1583.0</ele>
  <time>2026-08-28T17:54:34Z</time>
  <course>6.67</course>
  <speed>0.23</speed>
  <fix>3d</fix>
</trkpt>
<trkpt lat="40.0718144" lon="-105.2297946">
  <ele>1582.99</ele>
  <time>2026-08-28T17:54:34Z</time>
  <course>7.86</course>
  <speed>0.19235384061671343</speed>
  <fix>3d</fix>
</trkpt>
<trkpt lat="40.0718145" lon="-105.2297947">
  <ele>1583.0</ele>
  <time>2026-08-28T17:54:34Z</time>
  <course>6.68</course>
  <speed>0.22</speed>
  <fix>3d</fix>
</trkpt>
<trkpt lat="40.0718146" lon="-105.2297946">
  <ele>1582.99</ele>
  <time>2026-08-28T17:54:34Z</time>
  <course>7.86</course>
  <speed>0.1824828759089466</speed>
  <fix>3d</fix>
</trkpt>
<trkpt lat="40.0718145" lon="-105.2297947">
  <ele>1583.0</ele>
  <time>2026-08-28T17:54:34Z</time>
  <course>6.68</course>
  <speed>0.22</speed>
  <fix>3d</fix>
</trkpt>
<trkpt lat="40.0718148" lon="-105.2297945">
  <ele>1582.99</ele>
  <time>2026-08-28T17:54:34Z</time>
  <course>7.87</course>
  <speed>0.1824828759089466</speed>
  <fix>3d</fix>
</trkpt>
<trkpt lat="40.0718148" lon="-105.2297947">
  <ele>1583.0</ele>
  <time>2026-08-28T17:54:34Z</time>
  <course>6.69</course>
  <speed>0.21</speed>
  <fix>3d</fix>
</trkpt>
<trkpt lat="40.071815" lon="-105.2297945">
  <ele>1582.99</ele>
  <time>2026-08-28T17:54:34Z</time>
  <course>7.87</course>
  <speed>0.1824828759089466</speed>
  <fix>3d</fix>
</trkpt>
<trkpt lat="40.0718148" lon="-105.2297947">
  <ele>1583.0</ele>
  <time>2026-08-28T17:54:34Z</time>
  <course>6.69</course>
  <speed>0.21</speed>
  <fix>3d</fix>
</trkpt>
<trkpt lat="40.0718152" lon="-105.2297945">
  <ele>1582.99</ele>
  <time>2026-08-28T17:54:34Z</time>
  <course>7.87</course>
  <speed>0.17262676501632068</speed>
  <fix>3d</fix>
</trkpt>
<trkpt lat="40.0718152" lon="-105.2297946">
  <ele>1583.0</ele>
  <time>2026-08-28T17:54:34Z</time>
  <course>6.7</course>
  <speed>0.2</speed>
  <fix>3d</fix>
</trkpt>
<trkpt lat="40.0718154" lon="-105.2297945">
  <ele>1582.99</ele>
  <time>2026-08-28T17:54:34Z</time>
  <course>7.88</course>
  <speed>0.17262676501632068</speed>
  <fix>3d</fix>
</trkpt>
<trkpt lat="40.0718152" lon="-105.2297946">
  <ele>1583.0</ele>
  <time>2026-08-28T17:54:34Z</time>
  <course>6.7</course>
  <speed>0.2</speed>
  <fix>3d</fix>
</trkpt>
<trkpt lat="40.0718156" lon="-105.2297944">
  <ele>1582.98</ele>
  <time>2026-08-28T17:54:34Z</time>
  <course>7.88</course>
  <speed>0.16278820596099705</speed>
  <fix>3d</fix>
</trkpt>
<trkpt lat="40.0718155" lon="-105.2297945">
  <ele>1583.0</ele>
  <time>2026-08-28T17:54:34Z</time>
  <course>6.71</course>
  <speed>0.19</speed>
  <fix>3d</fix>
</trkpt>
<trkpt lat="40.0718157" lon="-105.2297944">
  <ele>1582.98</ele>
  <time>2026-08-28T17:54:34Z</time>
  <course>7.89</course>
  <speed>0.16278820596099705</speed>
  <fix>3d</fix>
</trkpt>
<trkpt lat="40.0718155" lon="-105.2297945">
  <ele>1583.0</ele>
  <time>2026-08-28T17:54:34Z</time>
  <course>6.71</course>
  <speed>0.19</speed>
  <fix>3d</fix>
</trkpt>
<trkpt lat="40.0718159" lon="-105.2297944">
  <ele>1582.98</ele>
  <time>2026-08-28T17:54:34Z</time>
  <course>7.89</course>
  <speed>0.16278820596099705</speed>
  <fix>3d</fix>
</trkpt>
<trkpt lat="40.0718159" lon="-105.2297945">
  <ele>1583.0</ele>
  <time>2026-08-28T17:54:34Z</time>
  <course>6.72</course>
  <speed>0.19</speed>
  <fix>3d</fix>
</trkpt>
<trkpt lat="40.0718161" lon="-105.2297943">
  <ele>1582.98</ele>
  <time>2026-08-28T17:54:34Z</time>
  <course>7.89</course>
  <speed>0.16278820596099705</speed>
  <fix>3d</fix>
</trkpt>
<trkpt lat="40.0718159" lon="-105.2297945">
  <ele>1583.0</ele>
  <time>2026-08-28T17:54:34Z</time>
  <course>6.72</course>
  <speed>0.19</speed>
  <fix>3d</fix>
</trkpt>
<trkpt lat="40.0718162" lon="-105.2297943">
  <ele>1582.98</ele>
  <time>2026-08-28T17:54:34Z</time>
  <course>7.89</course>
  <speed>0.15297058540778355</speed>
  <fix>3d</fix>
</trkpt>
<trkpt lat="40.0718159" lon="-105.2297945">
  <ele>1583.0</ele>
  <time>2026-08-28T17:54:34Z</time>
  <course>6.72</course>
  <speed>0.19</speed>
  <fix>3d</fix>
</trkpt>
<trkpt lat="40.0718164" lon="-105.2297943">
  <ele>1582.98</ele>
  <time>2026-08-28T17:54:34Z</time>
  <course>7.9</course>
  <speed>0.15297058540778355</speed>
  <fix>3d</fix>
</trkpt>
<trkpt lat="40.0718162" lon="-105.2297945">
  <ele>1583.0</ele>
  <time>2026-08-28T17:54:34Z</time>
  <course>6.73</course>
  <speed>0.18</speed>
  <fix>3d</fix>
</trkpt>
<trkpt lat="40.0718165" lon="-105.2297943">
  <ele>1582.99</ele>
  <time>2026-08-28T17:54:34Z</time>
  <course>7.9</course>
  <speed>0.15297058540778355</speed>
  <fix>3d</fix>
</trkpt>
<trkpt lat="40.0718162" lon="-105.2297945">
  <ele>1583.0</ele>
  <time>2026-08-28T17:54:34Z</time>
  <course>6.73</course>
  <speed>0.18</speed>
  <fix>3d</fix>
</trkpt>
<trkpt lat="40.0718167" lon="-105.2297942">
  <ele>1582.99</ele>
  <time>2026-08-28T17:54:34Z</time>
  <course>7.9</course>
  <speed>0.14317821063276354</speed>
  <fix>3d</fix>
</trkpt>
<trkpt lat="40.0718166" lon="-105.2297944">
  <ele>1583.0</ele>
  <time>2026-08-28T17:54:34Z</time>
  <course>6.73</course>
  <speed>0.17</speed>
  <fix>3d</fix>
</trkpt>
<trkpt lat="40.0718168" lon="-105.2297942">
  <ele>1582.99</ele>
  <time>2026-08-28T17:54:34Z</time>
  <course>7.9</course>
  <speed>0.14317821063276354</speed>
  <fix>3d</fix>
</trkpt>
<trkpt lat="40.0718166" lon="-105.2297944">
  <ele>1583.0</ele>
  <time>2026-08-28T17:54:34Z</time>
  <course>6.73</course>
  <speed>0.17</speed>
  <fix>3d</fix>
</trkpt>
<trkpt lat="40.071817" lon="-105.2297942">
  <ele>1583.0</ele>
  <time>2026-08-28T17:54:34Z</time>
  <course>7.9</course>
  <speed>0.13341664064126335</speed>
  <fix>3d</fix>
</trkpt>
<trkpt lat="40.0718169" lon="-105.2297943">
  <ele>1583.0</ele>
  <time>2026-08-28T17:54:34Z</time>
  <course>6.74</course>
  <speed>0.17</speed>
  <fix>3d</fix>
</trkpt>
<trkpt lat="40.0718171" lon="-105.2297942">
  <ele>1583.0</ele>
  <time>2026-08-28T17:54:34Z</time>
  <course>7.9</course>
  <speed>0.12369316876852982</speed>
  <fix>3d</fix>
</trkpt>
<trkpt lat="40.0718172" lon="-105.2297943">
  <ele>1583.0</ele>
  <time>2026-08-28T17:54:34Z</time>
  <course>6.74</course>
  <speed>0.16</speed>
  <fix>3d</fix>
</trkpt>
<trkpt lat="40.0718173" lon="-105.2297941">
  <ele>1583.0</ele>
  <time>2026-08-28T17:54:34Z</time>
  <course>7.9</course>
  <speed>0.12369316876852982</speed>
  <fix>3d</fix>
</trkpt>
<trkpt lat="40.0718172" lon="-105.2297943">
  <ele>1583.0</ele>
  <time>2026-08-28T17:54:34Z</time>
  <course>6.74</course>
  <speed>0.16</speed>
  <fix>3d</fix>
</trkpt>
<trkpt lat="40.0718174" lon="-105.2297941">
  <ele>1583.0</ele>
  <time>2026-08-28T17:54:34Z</time>
  <course>7.9</course>
  <speed>0.11401754250991379</speed>
  <fix>3d</fix>
</trkpt>
<trkpt lat="40.0718174" lon="-105.2297943">
  <ele>1583.0</ele>
  <time>2026-08-28T17:54:34Z</time>
  <course>6.74</course>
  <speed>0.14</speed>
  <fix>3d</fix>
</trkpt>
<trkpt lat="40.0718175" lon="-105.2297941">
  <ele>1583.0</ele>
  <time>2026-08-28T17:54:34Z</time>
  <course>7.9</course>
  <speed>0.1044030650891055</speed>
  <fix>3d</fix>
</trkpt>
<trkpt lat="40.0718174" lon="-105.2297943">
  <ele>1583.0</ele>
  <time>2026-08-28T17:54:34Z</time>
  <course>6.74</course>
  <speed>0.14</speed>
  <fix>3d</fix>
</trkpt>
<trkpt lat="40.0718176" lon="-105.2297941">
  <ele>1583.0</ele>
  <time>2026-08-28T17:54:34Z</time>
  <course>7.9</course>
  <speed>0.1044030650891055</speed>
  <fix>3d</fix>
</trkpt>
<trkpt lat="40.0718177" lon="-105.2297942">
  <ele>1583.0</ele>
  <time>2026-08-28T17:54:34Z</time>
  <course>6.74</course>
  <speed>0.13</speed>
  <fix>3d</fix>
</trkpt>
<trkpt lat="40.0718177" lon="-105.2297941">
  <ele>1583.0</ele>
  <time>2026-08-28T17:54:34Z</time>
  <course>7.9</course>
  <speed>0.09219544457292887</speed>
  <fix>3d</fix>
</trkpt>
<trkpt lat="40.0718177" lon="-105.2297942">
  <ele>1583.0</ele>
  <time>2026-08-28T17:54:34Z</time>
  <course>6.74</course>
  <speed>0.13</speed>
  <fix>3d</fix>
</trkpt>
<trkpt lat="40.0718178" lon="-105.229794">
  <ele>1583.0</ele>
  <time>2026-08-28T17:54:34Z</time>
  <course>7.9</course>
  <speed>0.09219544457292887</speed>
  <fix>3d</fix>
</trkpt>
<trkpt lat="40.071818" lon="-105.2297942">
  <ele>1583.0</ele>
  <time>2026-08-28T17:54:34Z</time>
  <course>6.74</course>
  <speed>0.12</speed>
  <fix>3d</fix>
</trkpt>
<trkpt lat="40.0718179" lon="-105.229794">
  <ele>1583.0</ele>
  <time>2026-08-28T17:54:34Z</time>
  <course>7.9</course>
  <speed>0.0824621125123532</speed>
  <fix>3d</fix>
</trkpt>
<trkpt lat="40.071818" lon="-105.2297942">
  <ele>1583.0</ele>
  <time>2026-08-28T17:54:34Z</time>
  <course>6.74</course>
  <speed>0.12</speed>
  <fix>3d</fix>
</trkpt>
<trkpt lat="40.071818" lon="-105.229794">
  <ele>1583.0</ele>
  <time>2026-08-28T17:54:34Z</time>
  <course>7.9</course>
  <speed>0.07280109889280519</speed>
  <fix>3d</fix>
</trkpt>
<trkpt lat="40.0718181" lon="-105.2297942">
  <ele>1583.0</ele>
  <time>2026-08-28T17:54:34Z</time>
  <course>6.74</course>
  <speed>0.1</speed>
  <fix>3d</fix>
</trkpt>
<trkpt lat="40.0718181" lon="-105.229794">
  <ele>1583.01</ele>
  <time>2026-08-28T17:54:34Z</time>
  <course>7.9</course>
  <speed>0.07280109889280519</speed>
  <fix>3d</fix>
</trkpt>
<trkpt lat="40.0718181" lon="-105.229794">
  <ele>1583.01</ele>
  <time>2026-08-28T17:54:34Z</time>
  <course>7.9</course>
  <speed>0.07280109889280519</speed>
  <fix>3d</fix>
</trkpt>
<trkpt lat="40.0718181" lon="-105.2297942">
  <ele>1583.0</ele>
  <time>2026-08-28T17:54:34Z</time>
  <course>6.74</course>
  <speed>0.1</speed>
  <fix>3d</fix>
</trkpt>
<trkpt lat="40.0718182" lon="-105.229794">
  <ele>1583.01</ele>
  <time>2026-08-28T17:54:34Z</time>
  <course>7.9</course>
  <speed>0.07280109889280519</speed>
  <fix>3d</fix>
</trkpt>
<trkpt lat="40.0718184" lon="-105.2297941">
  <ele>1583.0</ele>
  <time>2026-08-28T17:54:34Z</time>
  <course>6.74</course>
  <speed>0.09</speed>
  <fix>3d</fix>
</trkpt>
<trkpt lat="40.0718183" lon="-105.229794">
  <ele>1583.01</ele>
  <time>2026-08-28T17:54:34Z</time>
  <course>7.9</course>
  <speed>0.0632455532033676</speed>
  <fix>3d</fix>
</trkpt>
<trkpt lat="40.0718184" lon="-105.2297941">
  <ele>1583.0</ele>
  <time>2026-08-28T17:54:34Z</time>
  <course>6.74</course>
  <speed>0.09</speed>
  <fix>3d</fix>
</trkpt>
<trkpt lat="40.0718184" lon="-105.229794">
  <ele>1583.01</ele>
  <time>2026-08-28T17:54:34Z</time>
  <course>7.9</course>
  <speed>0.0632455532033676</speed>
  <fix>3d</fix>
</trkpt>
<trkpt lat="40.0718185" lon="-105.229794">
  <ele>1583.0</ele>
  <time>2026-08-28T17:54:34Z</time>
  <course>6.74</course>
  <speed>0.08</speed>
  <fix>3d</fix>
</trkpt>
<trkpt lat="40.0718185" lon="-105.229794">
  <ele>1583.02</ele>
  <time>2026-08-28T17:54:34Z</time>
  <course>7.9</course>
  <speed>0.053851648071345036</speed>
  <fix>3d</fix>
</trkpt>
<trkpt lat="40.0718185" lon="-105.229794">
  <ele>1583.0</ele>
  <time>2026-08-28T17:54:34Z</time>
  <course>6.74</course>
  <speed>0.08</speed>
  <fix>3d</fix>
</trkpt>
<trkpt lat="40.0718185" lon="-105.2297939">
  <ele>1583.02</ele>
  <time>2026-08-28T17:54:34Z</time>
  <course>7.9</course>
  <speed>0.053851648071345036</speed>
  <fix>3d</fix>
</trkpt>
<trkpt lat="40.0718185" lon="-105.229794">
  <ele>1583.0</ele>
  <time>2026-08-28T17:54:34Z</time>
  <course>6.74</course>
  <speed>0.08</speed>
  <fix>3d</fix>
</trkpt>
<trkpt lat="40.0718186" lon="-105.2297939">
  <ele>1583.02</ele>
  <time>2026-08-28T17:54:34Z</time>
  <course>7.9</course>
  <speed>0.053851648071345036</speed>
  <fix>3d</fix>
</trkpt>
<trkpt lat="40.0718186" lon="-105.229794">
  <ele>1583.0</ele>
  <time>2026-08-28T17:54:34Z</time>
  <course>6.75</course>
  <speed>0.08</speed>
  <fix>3d</fix>
</trkpt>
<trkpt lat="40.0718186" lon="-105.2297939">
  <ele>1583.03</ele>
  <time>2026-08-28T17:54:34Z</time>
  <course>7.9</course>
  <speed>0.044721359549995794</speed>
  <fix>3d</fix>
</trkpt>
<trkpt lat="40.0718186" lon="-105.229794">
  <ele>1583.0</ele>
  <time>2026-08-28T17:54:34Z</time>
  <course>6.75</course>
  <speed>0.08</speed>
  <fix>3d</fix>
</trkpt>
<trkpt lat="40.0718187" lon="-105.2297939">
  <ele>1583.03</ele>
  <time>2026-08-28T17:54:34Z</time>
  <course>7.9</course>
  <speed>0.044721359549995794</speed>
  <fix>3d</fix>
</trkpt>
<trkpt lat="40.0718188" lon="-105.229794">
  <ele>1583.0</ele>
  <time>2026-08-28T17:54:34Z</time>
  <course>6.75</course>
  <speed>0.07</speed>
  <fix>3d</fix>
</trkpt>
<trkpt lat="40.0718188" lon="-105.2297939">
  <ele>1583.03</ele>
  <time>2026-08-28T17:54:34Z</time>
  <course>7.9</course>
  <speed>0.044721359549995794</speed>
  <fix>3d</fix>
</trkpt>
<trkpt lat="40.0718188" lon="-105.229794">
  <ele>1583.0</ele>
  <time>2026-08-28T17:54:34Z</time>
  <course>6.75</course>
  <speed>0.07</speed>
  <fix>3d</fix>
</trkpt>
<trkpt lat="40.0718188" lon="-105.2297939">
  <ele>1583.04</ele>
  <time>2026-08-28T17:54:34Z</time>
  <course>7.89</course>
  <speed>0.03605551275463989</speed>
  <fix>3d</fix>
</trkpt>
<trkpt lat="40.0718189" lon="-105.229794">
  <ele>1583.0</ele>
  <time>2026-08-28T17:54:34Z</time>
  <course>6.75</course>
  <speed>0.06</speed>
  <fix>3d</fix>
</trkpt>
<trkpt lat="40.0718189" lon="-105.2297939">
  <ele>1583.05</ele>
  <time>2026-08-28T17:54:34Z</time>
  <course>7.89</course>
  <speed>0.03605551275463989</speed>
  <fix>3d</fix>
</trkpt>
<trkpt lat="40.071819" lon="-105.229794">
  <ele>1583.0</ele>
  <time>2026-08-28T17:54:34Z</time>
  <course>6.75</course>
  <speed>0.05</speed>
  <fix>3d</fix>
</trkpt>
<trkpt lat="40.0718189" lon="-105.2297939">
  <ele>1583.05</ele>
  <time>2026-08-28T17:54:34Z</time>
  <course>7.89</course>
  <speed>0.03605551275463989</speed>
  <fix>3d</fix>
</trkpt>
<trkpt lat="40.071819" lon="-105.229794">
  <ele>1583.0</ele>
  <time>2026-08-28T17:54:34Z</time>
  <course>6.75</course>
  <speed>0.05</speed>
  <fix>3d</fix>
</trkpt>
<trkpt lat="40.071819" lon="-105.2297939">
  <ele>1583.06</ele>
  <time>2026-08-28T17:54:34Z</time>
  <course>7.89</course>
  <speed>0.03605551275463989</speed>
  <fix>3d</fix>
</trkpt>
<trkpt lat="40.0718191" lon="-105.229794">
  <ele>1583.0</ele>
  <time>2026-08-28T17:54:34Z</time>
  <course>6.75</course>
  <speed>0.05</speed>
  <fix>3d</fix>
</trkpt>
<trkpt lat="40.071819" lon="-105.2297939">
  <ele>1583.06</ele>
  <time>2026-08-28T17:54:34Z</time>
  <course>7.89</course>
  <speed>0.0282842712474619</speed>
  <fix>3d</fix>
</trkpt>
<trkpt lat="40.0718191" lon="-105.229794">
  <ele>1583.0</ele>
  <time>2026-08-28T17:54:34Z</time>
  <course>6.75</course>
  <speed>0.05</speed>
  <fix>3d</fix>
</trkpt>
<trkpt lat="40.0718191" lon="-105.2297938">
  <ele>1583.06</ele>
  <time>2026-08-28T17:54:34Z</time>
  <course>7.89</course>
  <speed>0.0282842712474619</speed>
  <fix>3d</fix>
</trkpt>
<trkpt lat="40.0718192" lon="-105.229794">
  <ele>1583.0</ele>
  <time>2026-08-28T17:54:34Z</time>
  <course>6.75</course>
  <speed>0.04</speed>
  <fix>3d</fix>
</trkpt>
<trkpt lat="40.0718191" lon="-105.2297938">
  <ele>1583.06</ele>
  <time>2026-08-28T17:54:34Z</time>
  <course>7.89</course>
  <speed>0.022360679774997897</speed>
  <fix>3d</fix>
</trkpt>
<trkpt lat="40.0718192" lon="-105.229794">
  <ele>1583.0</ele>
  <time>2026-08-28T17:54:34Z</time>
  <course>6.75</course>
  <speed>0.04</speed>
  <fix>3d</fix>
</trkpt>
<trkpt lat="40.0718191" lon="-105.2297938">
  <ele>1583.06</ele>
  <time>2026-08-28T17:54:34Z</time>
  <course>7.89</course>
  <speed>0.022360679774997897</speed>
  <fix>3d</fix>
</trkpt>
<trkpt lat="40.0718193" lon="-105.229794">
  <ele>1583.0</ele>
  <time>2026-08-28T17:54:34Z</time>
  <course>6.75</course>
  <speed>0.04</speed>
  <fix>3d</fix>
</trkpt>
<trkpt lat="40.0718192" lon="-105.2297938">
  <ele>1583.05</ele>
  <time>2026-08-28T17:54:34Z</time>
  <course>7.89</course>
  <speed>0.022360679774997897</speed>
  <fix>3d</fix>
</trkpt>
<trkpt lat="40.0718193" lon="-105.229794">
  <ele>1583.0</ele>
  <time>2026-08-28T17:54:34Z</time>
  <course>6.75</course>
  <speed>0.04</speed>
  <fix>3d</fix>
</trkpt>
<trkpt lat="40.0718192" lon="-105.2297938">
  <ele>1583.04</ele>
  <time>2026-08-28T17:54:34Z</time>
  <course>7.89</course>
  <speed>0.01414213562373095</speed>
  <fix>3d</fix>
</trkpt>
<trkpt lat="40.0718193" lon="-105.229794">
  <ele>1583.0</ele>
  <time>2026-08-28T17:54:34Z</time>
  <course>6.76</course>
  <speed>0.04</speed>
  <fix>3d</fix>
</trkpt>
<trkpt lat="40.0718192" lon="-105.2297938">
  <ele>1583.03</ele>
  <time>2026-08-28T17:54:34Z</time>
  <course>7.89</course>
  <speed>0.01414213562373095</speed>
  <fix>3d</fix>
</trkpt>
<trkpt lat="40.0718193" lon="-105.229794">
  <ele>1583.0</ele>
  <time>2026-08-28T17:54:34Z</time>
  <course>6.76</course>
  <speed>0.04</speed>
  <fix>3d</fix>
</trkpt>
<trkpt lat="40.0718193" lon="-105.2297938">
  <ele>1583.03</ele>
  <time>2026-08-28T17:54:34Z</time>
  <course>7.89</course>
  <speed>0.01414213562373095</speed>
  <fix>3d</fix>
</trkpt>
<trkpt lat="40.0718194" lon="-105.229794">
  <ele>1583.0</ele>
  <time>2026-08-28T17:54:34Z</time>
  <course>6.76</course>
  <speed>0.03</speed>
  <fix>3d</fix>
</trkpt>
<trkpt lat="40.0718193" lon="-105.2297939">
  <ele>1583.02</ele>
  <time>2026-08-28T17:54:34Z</time>
  <course>7.89</course>
  <speed>0.01414213562373095</speed>
  <fix>3d</fix>
</trkpt>
<trkpt lat="40.0718194" lon="-105.229794">
  <ele>1583.0</ele>
  <time>2026-08-28T17:54:34Z</time>
  <course>6.76</course>
  <speed>0.03</speed>
  <fix>3d</fix>
</trkpt>
<trkpt lat="40.0718193" lon="-105.2297938">
  <ele>1583.02</ele>
  <time>2026-08-28T17:54:34Z</time>
  <course>7.89</course>
  <speed>0.01414213562373095</speed>
  <fix>3d</fix>
</trkpt>
<trkpt lat="40.0718195" lon="-105.229794">
  <ele>1583.0</ele>
  <time>2026-08-28T17:54:34Z</time>
  <course>6.76</course>
  <speed>0.03</speed>
  <fix>3d</fix>
</trkpt>
<trkpt lat="40.0718194" lon="-105.2297939">
  <ele>1583.02</ele>
  <time>2026-08-28T17:54:34Z</time>
  <course>7.89</course>
  <speed>0.01414213562373095</speed>
  <fix>3d</fix>
</trkpt>
<trkpt lat="40.0718195" lon="-105.229794">
  <ele>1583.0</ele>
  <time>2026-08-28T17:54:34Z</time>
  <course>6.76</course>
  <speed>0.03</speed>
  <fix>3d</fix>
</trkpt>
<trkpt lat="40.0718194" lon="-105.2297939">
  <ele>1583.01</ele>
  <time>2026-08-28T17:54:34Z</time>
  <course>7.89</course>
  <speed>0.01414213562373095</speed>
  <fix>3d</fix>
</trkpt>
<trkpt lat="40.0718195" lon="-105.229794">
  <ele>1583.0</ele>
  <time>2026-08-28T17:54:34Z</time>
  <course>6.76</course>
  <speed>0.03</speed>
  <fix>3d</fix>
</trkpt>
<trkpt lat="40.0718194" lon="-105.2297939">
  <ele>1583.01</ele>
  <time>2026-08-28T17:54:34Z</time>
  <course>7.88</course>
  <speed>0.01</speed>
  <fix>3d</fix>
</trkpt>
<trkpt lat="40.0718196" lon="-105.229794">
  <ele>1583.0</ele>
  <time>2026-08-28T17:54:34Z</time>
  <course>6.76</course>
  <speed>0.02</speed>
  <fix>3d</fix>
</trkpt>
<trkpt lat="40.0718194" lon="-105.2297939">
  <ele>1583.0</ele>
  <time>2026-08-28T17:54:34Z</time>
  <course>7.88</course>
  <speed>0.01</speed>
  <fix>3d</fix>
</trkpt>
<trkpt lat="40.0718196" lon="-105.229794">
  <ele>1583.0</ele>
  <time>2026-08-28T17:54:34Z</time>
  <course>6.76</course>
  <speed>0.02</speed>
  <fix>3d</fix>
</trkpt>
<trkpt lat="40.0718195" lon="-105.2297939">
  <ele>1583.0</ele>
  <time>2026-08-28T17:54:34Z</time>
  <course>7.88</course>
  <speed>0.01</speed>
  <fix>3d</fix>
</trkpt>
<trkpt lat="40.0718196" lon="-105.229794">
  <ele>1583.0</ele>
  <time>2026-08-28T17:54:34Z</time>
  <course>6.77</course>
  <speed>0.02</speed>
  <fix>3d</fix>
</trkpt>
<trkpt lat="40.0718195" lon="-105.2297939">
  <ele>1583.0</ele>
  <time>2026-08-28T17:54:34Z</time>
  <course>7.88</course>
  <speed>0.01</speed>
  <fix>3d</fix>
</trkpt>
<trkpt lat="40.0718196" lon="-105.229794">
  <ele>1583.0</ele>
  <time>2026-08-28T17:54:34Z</time>
  <course>6.77</course>
  <speed>0.02</speed>
  <fix>3d</fix>
</trkpt>
<trkpt lat="40.0718195" lon="-105.2297939">
  <ele>1582.99</ele>
  <time>2026-08-28T17:54:34Z</time>
  <course>7.88</course>
  <speed>0.01</speed>
  <fix>3d</fix>
</trkpt>
<trkpt lat="40.0718197" lon="-105.229794">
  <ele>1583.0</ele>
  <time>2026-08-28T17:54:34Z</time>
  <course>6.77</course>
  <speed>0.02</speed>
  <fix>3d</fix>
</trkpt>
<trkpt lat="40.0718195" lon="-105.2297939">
  <ele>1582.99</ele>
  <time>2026-08-28T17:54:34Z</time>
  <course>7.88</course>
  <speed>0.01</speed>
  <fix>3d</fix>
</trkpt>
<trkpt lat="40.0718197" lon="-105.229794">
  <ele>1583.0</ele>
  <time>2026-08-28T17:54:34Z</time>
  <course>6.77</course>
  <speed>0.02</speed>
  <fix>3d</fix>
</trkpt>
<trkpt lat="40.0718196" lon="-105.2297939">
  <ele>1582.98</ele>
  <time>2026-08-28T17:54:34Z</time>
  <course>7.88</course>
  <speed>0.01</speed>
  <fix>3d</fix>
</trkpt>
<trkpt lat="40.0718197" lon="-105.2297939">
  <ele>1583.0</ele>
  <time>2026-08-28T17:54:34Z</time>
  <course>6.77</course>
  <speed>0.02</speed>
  <fix>3d</fix>
</trkpt>
<trkpt lat="40.0718196" lon="-105.2297939">
  <ele>1582.98</ele>
  <time>2026-08-28T17:54:34Z</time>
  <course>7.88</course>
  <speed>0.01</speed>
  <fix>3d</fix>
</trkpt>
<trkpt lat="40.0718198" lon="-105.2297938">
  <ele>1583.0</ele>
  <time>2026-08-28T17:54:34Z</time>
  <course>6.78</course>
  <speed>0.01</speed>
  <fix>3d</fix>
</trkpt>
<trkpt lat="40.0718196" lon="-105.2297939">
  <ele>1582.98</ele>
  <time>2026-08-28T17:54:34Z</time>
  <course>7.88</course>
  <speed>0.01</speed>
  <fix>3d</fix>
</trkpt>
<trkpt lat="40.0718198" lon="-105.2297938">
  <ele>1583.0</ele>
  <time>2026-08-28T17:54:34Z</time>
  <course>6.78</course>
  <speed>0.01</speed>
  <fix>3d</fix>
</trkpt>
<trkpt lat="40.0718196" lon="-105.2297939">
  <ele>1582.97</ele>
  <time>2026-08-28T17:54:34Z</time>
  <course>7.88</course>
  <speed>0.01</speed>
  <fix>3d</fix>
</trkpt>
<trkpt lat="40.0718198" lon="-105.2297938">
  <ele>1583.0</ele>
  <time>2026-08-28T17:54:34Z</time>
  <course>6.78</course>
  <speed>0.01</speed>
  <fix>3d</fix>
</trkpt>
<trkpt lat="40.0718196" lon="-105.2297938">
  <ele>1582.97</ele>
  <time>2026-08-28T17:54:34Z</time>
  <course>7.88</course>
  <speed>0.01</speed>
  <fix>3d</fix>
</trkpt>
<trkpt lat="40.0718198" lon="-105.2297938">
  <ele>1583.0</ele>
  <time>2026-08-28T17:54:34Z</time>
  <course>6.78</course>
  <speed>0.01</speed>
  <fix>3d</fix>
</trkpt>
<trkpt lat="40.0718197" lon="-105.2297938">
  <ele>1582.97</ele>
  <time>2026-08-28T17:54:34Z</time>
  <course>7.88</course>
  <speed>0.01</speed>
  <fix>3d</fix>
</trkpt>
<trkpt lat="40.0718198" lon="-105.2297938">
  <ele>1583.0</ele>
  <time>2026-08-28T17:54:34Z</time>
  <course>6.79</course>
  <speed>0.01</speed>
  <fix>3d</fix>
</trkpt>
<trkpt lat="40.0718197" lon="-105.2297938">
  <ele>1582.97</ele>
  <time>2026-08-28T17:54:34Z</time>
  <course>7.88</course>
  <speed>0.01</speed>
  <fix>3d</fix>
</trkpt>
<trkpt lat="40.0718198" lon="-105.2297938">
  <ele>1583.0</ele>
  <time>2026-08-28T17:54:34Z</time>
  <course>6.79</course>
  <speed>0.01</speed>
  <fix>3d</fix>
</trkpt>
<trkpt lat="40.0718197" lon="-105.2297938">
  <ele>1582.98</ele>
  <time>2026-08-28T17:54:34Z</time>
  <course>7.88</course>
  <speed>0.01</speed>
  <fix>3d</fix>
</trkpt>
<trkpt lat="40.0718199" lon="-105.2297938">
  <ele>1583.0</ele>
  <time>2026-08-28T17:54:34Z</time>
  <course>6.79</course>
  <speed>0.01</speed>
  <fix>3d</fix>
</trkpt>
<trkpt lat="40.0718197" lon="-105.2297938">
  <ele>1582.98</ele>
  <time>2026-08-28T17:54:34Z</time>
  <course>7.88</course>
  <speed>0.01</speed>
  <fix>3d</fix>
</trkpt>
<trkpt lat="40.0718199" lon="-105.2297938">
  <ele>1583.0</ele>
  <time>2026-08-28T17:54:34Z</time>
  <course>6.79</course>
  <speed>0.01</speed>
  <fix>3d</fix>
</trkpt>
<trkpt lat="40.0718197" lon="-105.2297938">
  <ele>1582.98</ele>
  <time>2026-08-28T17:54:34Z</time>
  <course>7.88</course>
  <speed>0.01</speed>
  <fix>3d</fix>
</trkpt>
<trkpt lat="40.0718199" lon="-105.2297938">
  <ele>1583.0</ele>
  <time>2026-08-28T17:54:34Z</time>
  <course>6.8</course>
  <speed>0.01</speed>
  <fix>3d</fix>
</trkpt>
<trkpt lat="40.0718197" lon="-105.2297938">
  <ele>1582.99</ele>
  <time>2026-08-28T17:54:34Z</time>
  <course>7.87</course>
  <speed>0.01</speed>
  <fix>3d</fix>
</trkpt>
<trkpt lat="40.0718199" lon="-105.2297938">
  <ele>1583.0</ele>
  <time>2026-08-28T17:54:34Z</time>
  <course>6.8</course>
  <speed>0.01</speed>
  <fix>3d</fix>
</trkpt>
<trkpt lat="40.071375" lon="-105.2297891">
  <ele>1583.71</ele>
  <time>2026-08-28T17:54:36Z</time>
  <course>247.14</course>
  <speed>0.0</speed>
  <fix>3d</fix>
</trkpt>
<trkpt lat="40.0713749" lon="-105.2297891">
  <ele>1583.71</ele>
  <time>2026-08-28T17:54:36Z</time>
  <course>247.14</course>
  <speed>0.01</speed>
  <fix>3d</fix>
</trkpt>
<trkpt lat="40.0713749" lon="-105.229789">
  <ele>1583.71</ele>
  <time>2026-08-28T17:54:36Z</time>
  <course>247.14</course>
  <speed>0.01414213562373095</speed>
  <fix>3d</fix>
</trkpt>
<trkpt lat="40.0713749" lon="-105.229789">
  <ele>1583.71</ele>
  <time>2026-08-28T17:54:36Z</time>
  <course>247.14</course>
  <speed>0.01</speed>
  <fix>3d</fix>
</trkpt>
<trkpt lat="40.0713749" lon="-105.229789">
  <ele>1583.71</ele>
  <time>2026-08-28T17:54:36Z</time>
  <course>247.13</course>
  <speed>0.01</speed>
  <fix>3d</fix>
</trkpt>
<trkpt lat="40.0713749" lon="-105.229789">
  <ele>1583.72</ele>
  <time>2026-08-28T17:54:36Z</time>
  <course>247.13</course>
  <speed>0.0</speed>
  <fix>3d</fix>
</trkpt>
<trkpt lat="40.0713749" lon="-105.229789">
  <ele>1583.72</ele>
  <time>2026-08-28T17:54:36Z</time>
  <course>247.13</course>
  <speed>0.0</speed>
  <fix>3d</fix>
</trkpt>
<trkpt lat="40.0713749" lon="-105.229789">
  <ele>1583.72</ele>
  <time>2026-08-28T17:54:36Z</time>
  <course>247.13</course>
  <speed>0.0</speed>
  <fix>3d</fix>
</trkpt>
<trkpt lat="40.0713749" lon="-105.229789">
  <ele>1583.72</ele>
  <time>2026-08-28T17:54:36Z</time>
  <course>247.13</course>
  <speed>0.0</speed>
  <fix>3d</fix>
</trkpt>
<trkpt lat="40.0713749" lon="-105.229789">
  <ele>1583.73</ele>
  <time>2026-08-28T17:54:36Z</time>
  <course>247.13</course>
  <speed>0.0</speed>
  <fix>3d</fix>
</trkpt>
<trkpt lat="40.0713749" lon="-105.229789">
  <ele>1583.73</ele>
  <time>2026-08-28T17:54:36Z</time>
  <course>247.13</course>
  <speed>0.0</speed>
  <fix>3d</fix>
</trkpt>
<trkpt lat="40.0713748" lon="-105.2297889">
  <ele>1583.74</ele>
  <time>2026-08-28T17:54:36Z</time>
  <course>247.12</course>
  <speed>0.02</speed>
  <fix>3d</fix>
</trkpt>
<trkpt lat="40.0713747" lon="-105.2297885">
  <ele>1583.74</ele>
  <time>2026-08-28T17:54:36Z</time>
  <course>247.12</course>
  <speed>0.053851648071345036</speed>
  <fix>3d</fix>
</trkpt>
<trkpt lat="40.0713745" lon="-105.229788">
  <ele>1583.75</ele>
  <time>2026-08-28T17:54:36Z</time>
  <course>247.12</course>
  <speed>0.09486832980505139</speed>
  <fix>3d</fix>
</trkpt>
<trkpt lat="40.0713744" lon="-105.2297874">
  <ele>1583.75</ele>
  <time>2026-08-28T17:54:36Z</time>
  <course>247.12</course>
  <speed>0.1264911064067352</speed>
  <fix>3d</fix>
</trkpt>
<trkpt lat="40.0713743" lon="-105.2297869">
  <ele>1583.75</ele>
  <time>2026-08-28T17:54:36Z</time>
  <course>247.12</course>
  <speed>0.15524174696260024</speed>
  <fix>3d</fix>
</trkpt>
<trkpt lat="40.0713741" lon="-105.2297864">
  <ele>1583.75</ele>
  <time>2026-08-28T17:54:36Z</time>
  <course>247.12</course>
  <speed>0.1772004514666935</speed>
  <fix>3d</fix>
</trkpt>
<trkpt lat="40.071374" lon="-105.229786">
  <ele>1583.75</ele>
  <time>2026-08-28T17:54:36Z</time>
  <course>247.11</course>
  <speed>0.196468827043885</speed>
  <fix>3d</fix>
</trkpt>
<trkpt lat="40.0713739" lon="-105.2297856">
  <ele>1583.76</ele>
  <time>2026-08-28T17:54:36Z</time>
  <course>247.11</course>
  <speed>0.20615528128088303</speed>
  <fix>3d</fix>
</trkpt>
<trkpt lat="40.0713738" lon="-105.2297853">
  <ele>1583.76</ele>
  <time>2026-08-28T17:54:36Z</time>
  <course>247.11</course>
  <speed>0.20615528128088303</speed>
  <fix>3d</fix>
</trkpt>
<trkpt lat="40.0713738" lon="-105.229785">
  <ele>1583.77</ele>
  <time>2026-08-28T17:54:36Z</time>
  <course>247.11</course>
  <speed>0.20615528128088303</speed>
  <fix>3d</fix>
</trkpt>
<trkpt lat="40.0713737" lon="-105.2297848">
  <ele>1583.78</ele>
  <time>2026-08-28T17:54:36Z</time>
  <course>247.11</course>
  <speed>0.20615528128088303</speed>
  <fix>3d</fix>
</trkpt>
<trkpt lat="40.0713736" lon="-105.2297844">
  <ele>1583.78</ele>
  <time>2026-08-28T17:54:36Z</time>
  <course>247.11</course>
  <speed>0.215870331449229</speed>
  <fix>3d</fix>
</trkpt>
<trkpt lat="40.0713735" lon="-105.2297839">
  <ele>1583.79</ele>
  <time>2026-08-28T17:54:36Z</time>
  <course>247.11</course>
  <speed>0.23769728648009425</speed>
  <fix>3d</fix>
</trkpt>
<trkpt lat="40.0713733" lon="-105.2297834">
  <ele>1583.79</ele>
  <time>2026-08-28T17:54:36Z</time>
  <course>247.1</course>
  <speed>0.2308679276123039</speed>
  <fix>3d</fix>
</trkpt>
<trkpt lat="40.0713732" lon="-105.229783">
  <ele>1583.8</ele>
  <time>2026-08-28T17:54:36Z</time>
  <course>247.1</course>
  <speed>0.1769180601295413</speed>
  <fix>3d</fix>
</trkpt>
<trkpt lat="40.071373" lon="-105.2297828">
  <ele>1583.81</ele>
  <time>2026-08-28T17:54:36Z</time>
  <course>247.1</course>
  <speed>0.2039607805437114</speed>
  <fix>3d</fix>
</trkpt>
<trkpt lat="40.0713727" lon="-105.2297829">
  <ele>1583.82</ele>
  <time>2026-08-28T17:54:36Z</time>
  <course>247.1</course>
  <speed>0.44553338819890925</speed>
  <fix>3d</fix>
</trkpt>
<trkpt lat="40.0713723" lon="-105.2297834">
  <ele>1583.83</ele>
  <time>2026-08-28T17:54:36Z</time>
  <course>247.1</course>
  <speed>0.7963039620647382</speed>
  <fix>3d</fix>
</trkpt>
<trkpt lat="40.0713718" lon="-105.2297844">
  <ele>1583.83</ele>
  <time>2026-08-28T17:54:36Z</time>
  <course>247.1</course>
  <speed>1.2553883861180173</speed>
  <fix>3d</fix>
</trkpt>
<trkpt lat="40.0713711" lon="-105.229786">
  <ele>1583.84</ele>
  <time>2026-08-28T17:54:36Z</time>
  <course>247.1</course>
  <speed>1.7941293152947477</speed>
  <fix>3d</fix>
</trkpt>
<trkpt lat="40.0713701" lon="-105.2297884">
  <ele>1583.84</ele>
  <time>2026-08-28T17:54:36Z</time>
  <course>247.1</course>
  <speed>2.4105186163977246</speed>
  <fix>3d</fix>
</trkpt>
<trkpt lat="40.0713689" lon="-105.2297916">
  <ele>1583.85</ele>
  <time>2026-08-28T17:54:36Z</time>
  <course>247.1</course>
  <speed>3.1082149217838846</speed>
  <fix>3d</fix>
</trkpt>
<trkpt lat="40.0713673" lon="-105.2297956">
  <ele>1583.86</ele>
  <time>2026-08-28T17:54:36Z</time>
  <course>247.09</course>
  <speed>3.8780020629184815</speed>
  <fix>3d</fix>
</trkpt>
<trkpt lat="40.0713653" lon="-105.2298006">
  <ele>1583.87</ele>
  <time>2026-08-28T17:54:36Z</time>
  <course>247.07</course>
  <speed>4.6880273036747555</speed>
  <fix>3d</fix>
</trkpt>
<trkpt lat="40.071363" lon="-105.2298065">
  <ele>1583.87</ele>
  <time>2026-08-28T17:54:36Z</time>
  <course>247.06</course>
  <speed>5.4848245186149756</speed>
  <fix>3d</fix>
</trkpt>
<trkpt lat="40.0713605" lon="-105.2298133">
  <ele>1583.88</ele>
  <time>2026-08-28T17:54:36Z</time>
  <course>247.05</course>
  <speed>6.23698645180507</speed>
  <fix>3d</fix>
</trkpt>
<trkpt lat="40.0713576" lon="-105.229821">
  <ele>1583.89</ele>
  <time>2026-08-28T17:54:36Z</time>
  <course>247.04</course>
  <speed>6.9668500773305</speed>
  <fix>3d</fix>
</trkpt>
<trkpt lat="40.0713546" lon="-105.2298294">
  <ele>1583.89</ele>
  <time>2026-08-28T17:54:36Z</time>
  <course>247.02</course>
  <speed>7.656219693817569</speed>
  <fix>3d</fix>
</trkpt>
<trkpt lat="40.0713512" lon="-105.2298385">
  <ele>1583.89</ele>
  <time>2026-08-28T17:54:36Z</time>
  <course>247.01</course>
  <speed>8.323250566935974</speed>
  <fix>3d</fix>
</trkpt>
<trkpt lat="40.0713477" lon="-105.2298483">
  <ele>1583.89</ele>
  <time>2026-08-28T17:54:36Z</time>
  <course>247.01</course>
  <speed>8.954697091471045</speed>
  <fix>3d</fix>
</trkpt>
<trkpt lat="40.0713441" lon="-105.2298587">
  <ele>1583.89</ele>
  <time>2026-08-28T17:54:36Z</time>
  <course>247.0</course>
  <speed>9.563817229537586</speed>
  <fix>3d</fix>
</trkpt>
<trkpt lat="40.0713402" lon="-105.2298697">
  <ele>1583.89</ele>
  <time>2026-08-28T17:54:36Z</time>
  <course>247.0</course>
  <speed>10.132388662107273</speed>
  <fix>3d</fix>
</trkpt>
<trkpt lat="40.0713362" lon="-105.2298813">
  <ele>1583.89</ele>
  <time>2026-08-28T17:54:36Z</time>
  <course>247.01</course>
  <speed>10.652159405491453</speed>
  <fix>3d</fix>
</trkpt>
<trkpt lat="40.071332" lon="-105.2298935">
  <ele>1583.89</ele>
  <time>2026-08-28T17:54:36Z</time>
  <course>247.02</course>
  <speed>11.064343631684618</speed>
  <fix>3d</fix>
</trkpt>
<trkpt lat="40.0713278" lon="-105.2299058">
  <ele>1583.89</ele>
  <time>2026-08-28T17:54:36Z</time>
  <course>247.04</course>
  <speed>11.333366666617646</speed>
  <fix>3d</fix>
</trkpt>
<trkpt lat="40.0713236" lon="-105.2299183">
  <ele>1583.89</ele>
  <time>2026-08-28T17:54:36Z</time>
  <course>247.07</course>
  <speed>11.503912377969504</speed>
  <fix>3d</fix>
</trkpt>
<trkpt lat="40.0713194" lon="-105.2299307">
  <ele>1583.89</ele>
  <time>2026-08-28T17:54:36Z</time>
  <course>247.09</course>
  <speed>11.557720363462684</speed>
  <fix>3d</fix>
</trkpt>
<trkpt lat="40.0713153" lon="-105.2299432">
  <ele>1583.89</ele>
  <time>2026-08-28T17:54:36Z</time>
  <course>247.1</course>
  <speed>11.508961725542404</speed>
  <fix>3d</fix>
</trkpt>
<trkpt lat="40.0713111" lon="-105.2299554">
  <ele>1583.89</ele>
  <time>2026-08-28T17:54:36Z</time>
  <course>247.12</course>
  <speed>11.356663242343677</speed>
  <fix>3d</fix>
</trkpt>
<trkpt lat="40.0713071" lon="-105.2299674">
  <ele>1583.9</ele>
  <time>2026-08-28T17:54:36Z</time>
  <course>247.13</course>
  <speed>11.110936054176534</speed>
  <fix>3d</fix>
</trkpt>
<trkpt lat="40.0713032" lon="-105.2299791">
  <ele>1583.9</ele>
  <time>2026-08-28T17:54:36Z</time>
  <course>247.14</course>
  <speed>10.774864268286631</speed>
  <fix>3d</fix>
</trkpt>
<trkpt lat="40.0712995" lon="-105.2299901">
  <ele>1583.9</ele>
  <time>2026-08-28T17:54:36Z</time>
  <course>247.15</course>
  <speed>10.349439598355072</speed>
  <fix>3d</fix>
</trkpt>
<trkpt lat="40.071296" lon="-105.2300006">
  <ele>1583.9</ele>
  <time>2026-08-28T17:54:36Z</time>
  <course>247.17</course>
  <speed>9.856997514456419</speed>
  <fix>3d</fix>
</trkpt>
<trkpt lat="40.0712927" lon="-105.2300105">
  <ele>1583.9</ele>
  <time>2026-08-28T17:54:36Z</time>
  <course>247.19</course>
  <speed>9.386895120325995</speed>
  <fix>3d</fix>
</trkpt>
<trkpt lat="40.0712895" lon="-105.2300197">
  <ele>1583.9</ele>
  <time>2026-08-28T17:54:36Z</time>
  <course>247.2</course>
  <speed>8.930005599102389</speed>
  <fix>3d</fix>
</trkpt>
<trkpt lat="40.0712866" lon="-105.2300285">
  <ele>1583.9</ele>
  <time>2026-08-28T17:54:36Z</time>
  <course>247.21</course>
  <speed>8.491372091717569</speed>
  <fix>3d</fix>
</trkpt>
<trkpt lat="40.0712838" lon="-105.2300367">
  <ele>1583.9</ele>
  <time>2026-08-28T17:54:36Z</time>
  <course>247.22</course>
  <speed>8.065953136486723</speed>
  <fix>3d</fix>
</trkpt>
<trkpt lat="40.0712812" lon="-105.2300444">
  <ele>1583.9</ele>
  <time>2026-08-28T17:54:36Z</time>
  <course>247.22</course>
  <speed>7.6587858045515285</speed>
  <fix>3d</fix>
</trkpt>
<trkpt lat="40.0712787" lon="-105.2300517">
  <ele>1583.9</ele>
  <time>2026-08-28T17:54:36Z</time>
  <course>247.22</course>
  <speed>7.264833102005854</speed>
  <fix>3d</fix>
</trkpt>
<trkpt lat="40.0712764" lon="-105.2300585">
  <ele>1583.9</ele>
  <time>2026-08-28T17:54:36Z</time>
  <course>247.21</course>
  <speed>6.893221307922733</speed>
  <fix>3d</fix>
</trkpt>
<trkpt lat="40.0712742" lon="-105.230065">
  <ele>1583.9</ele>
  <time>2026-08-28T17:54:36Z</time>
  <course>247.21</course>
  <speed>6.530735027544756</speed>
  <fix>3d</fix>
</trkpt>
<trkpt lat="40.0712721" lon="-105.2300711">
  <ele>1583.9</ele>
  <time>2026-08-28T17:54:36Z</time>
  <course>247.19</course>
  <speed>6.186509516682246</speed>
  <fix>3d</fix>
</trkpt>
<trkpt lat="40.0712702" lon="-105.2300769">
  <ele>1583.9</ele>
  <time>2026-08-28T17:54:36Z</time>
  <course>247.18</course>
  <speed>5.859573363308971</speed>
  <fix>3d</fix>
</trkpt>
<trkpt lat="40.0712683" lon="-105.2300823">
  <ele>1583.9</ele>
  <time>2026-08-28T17:54:36Z</time>
  <course>247.16</course>
  <speed>5.537698077721465</speed>
  <fix>3d</fix>
</trkpt>
<trkpt lat="40.0712666" lon="-105.2300875">
  <ele>1583.9</ele>
  <time>2026-08-28T17:54:36Z</time>
  <course>247.14</course>
  <speed>5.23817716386149</speed>
  <fix>3d</fix>
</trkpt>
<trkpt lat="40.0712651" lon="-105.2300924">
  <ele>1583.9</ele>
  <time>2026-08-28T17:54:36Z</time>
  <course>247.11</course>
  <speed>4.961007962098026</speed>
  <fix>3d</fix>
</trkpt>
<trkpt lat="40.0712636" lon="-105.2300971">
  <ele>1583.9</ele>
  <time>2026-08-28T17:54:36Z</time>
  <course>247.09</course>
  <speed>4.6838552496848145</speed>
  <fix>3d</fix>
</trkpt>
<trkpt lat="40.0712622" lon="-105.2301014">
  <ele>1583.9</ele>
  <time>2026-08-28T17:54:36Z</time>
  <course>247.07</course>
  <speed>4.425064971274433</speed>
  <fix>3d</fix>
</trkpt>
<trkpt lat="40.0712608" lon="-105.2301056">
  <ele>1583.9</ele>
  <time>2026-08-28T17:54:36Z</time>
  <course>247.05</course>
  <speed>4.183443557644826</speed>
  <fix>3d</fix>
</trkpt>
<trkpt lat="40.0712596" lon="-105.2301096">
  <ele>1583.9</ele>
  <time>2026-08-28T17:54:36Z</time>
  <course>247.03</course>
  <speed>3.9510125284539406</speed>
  <fix>3d</fix>
</trkpt>
<trkpt lat="40.0712583" lon="-105.2301133">
  <ele>1583.9</ele>
  <time>2026-08-28T17:54:36Z</time>
  <course>247.01</course>
  <speed>3.7278009603518263</speed>
  <fix>3d</fix>
</trkpt>
<trkpt lat="40.0712572" lon="-105.2301169">
  <ele>1583.9</ele>
  <time>2026-08-28T17:54:36Z</time>
  <course>247.0</course>
  <speed>3.526953359487477</speed>
  <fix>3d</fix>
</trkpt>
<trkpt lat="40.0712561" lon="-105.2301203">
  <ele>1583.9</ele>
  <time>2026-08-28T17:54:36Z</time>
  <course>246.98</course>
  <speed>3.3261539351028238</speed>
  <fix>3d</fix>
</trkpt>
<trkpt lat="40.0712551" lon="-105.2301235">
  <ele>1583.9</ele>
  <time>2026-08-28T17:54:36Z</time>
  <course>246.97</course>
  <speed>3.1384709652950433</speed>
  <fix>3d</fix>
</trkpt>
<trkpt lat="40.0712541" lon="-105.2301266">
  <ele>1583.9</ele>
  <time>2026-08-28T17:54:36Z</time>
  <course>246.97</course>
  <speed>2.9600675667964067</speed>
  <fix>3d</fix>
</trkpt>
<trkpt lat="40.0712532" lon="-105.2301295">
  <ele>1583.9</ele>
  <time>2026-08-28T17:54:36Z</time>
  <course>246.96</course>
  <speed>2.7910034037958464</speed>
  <fix>3d</fix>
</trkpt>
<trkpt lat="40.0712523" lon="-105.2301323">
  <ele>1583.9</ele>
  <time>2026-08-28T17:54:36Z</time>
  <course>246.96</course>
  <speed>2.625737991498771</speed>
  <fix>3d</fix>
</trkpt>
<trkpt lat="40.0712514" lon="-105.2301349">
  <ele>1583.89</ele>
  <time>2026-08-28T17:54:36Z</time>
  <course>246.96</course>
  <speed>2.4827806991355477</speed>
  <fix>3d</fix>
</trkpt>
<trkpt lat="40.0712506" lon="-105.2301375">
  <ele>1583.89</ele>
  <time>2026-08-28T17:54:36Z</time>
  <course>246.97</course>
  <speed>2.3398504225697847</speed>
  <fix>3d</fix>
</trkpt>
<trkpt lat="40.0712499" lon="-105.2301399">
  <ele>1583.89</ele>
  <time>2026-08-28T17:54:36Z</time>
  <course>246.97</course>
  <speed>2.2062864727863425</speed>
  <fix>3d</fix>
</trkpt>
<trkpt lat="40.0712491" lon="-105.2301421">
  <ele>1583.89</ele>
  <time>2026-08-28T17:54:36Z</time>
  <course>246.98</course>
  <speed>2.076342938919291</speed>
  <fix>3d</fix>
</trkpt>
<trkpt lat="40.0712484" lon="-105.2301443">
  <ele>1583.88</ele>
  <time>2026-08-28T17:54:36Z</time>
  <course>246.99</course>
  <speed>1.9651208614230322</speed>
  <fix>3d</fix>
</trkpt>
<trkpt lat="40.0712478" lon="-105.2301464">
  <ele>1583.88</ele>
  <time>2026-08-28T17:54:36Z</time>
  <course>247.01</course>
  <speed>1.8445866745696717</speed>
  <fix>3d</fix>
</trkpt>
<trkpt lat="40.0712471" lon="-105.2301484">
  <ele>1583.88</ele>
  <time>2026-08-28T17:54:36Z</time>
  <course>247.02</course>
  <speed>1.7428998823799375</speed>
  <fix>3d</fix>
</trkpt>
<trkpt lat="40.0712465" lon="-105.2301502">
  <ele>1583.88</ele>
  <time>2026-08-28T17:54:36Z</time>
  <course>247.04</course>
  <speed>1.6352675622050357</speed>
  <fix>3d</fix>
</trkpt>
<trkpt lat="40.0712459" lon="-105.230152">
  <ele>1583.87</ele>
  <time>2026-08-28T17:54:36Z</time>
  <course>247.05</course>
  <speed>1.5465122049308244</speed>
  <fix>3d</fix>
</trkpt>
<trkpt lat="40.0712453" lon="-105.2301537">
  <ele>1583.87</ele>
  <time>2026-08-28T17:54:36Z</time>
  <course>247.07</course>
  <speed>1.4483784035948617</speed>
  <fix>3d</fix>
</trkpt>
<trkpt lat="40.0712448" lon="-105.2301554">
  <ele>1583.87</ele>
  <time>2026-08-28T17:54:36Z</time>
  <course>247.08</course>
  <speed>1.372443077143821</speed>
  <fix>3d</fix>
</trkpt>
<trkpt lat="40.0712443" lon="-105.2301569">
  <ele>1583.88</ele>
  <time>2026-08-28T17:54:36Z</time>
  <course>247.1</course>
  <speed>1.2870508925446578</speed>
  <fix>3d</fix>
</trkpt>
<trkpt lat="40.0712438" lon="-105.2301584">
  <ele>1583.88</ele>
  <time>2026-08-28T17:54:36Z</time>
  <course>247.12</course>
  <speed>1.2206555615733703</speed>
  <fix>3d</fix>
</trkpt>
<trkpt lat="40.0712433" lon="-105.2301598">
  <ele>1583.87</ele>
  <time>2026-08-28T17:54:36Z</time>
  <course>247.14</course>
  <speed>1.1448143954370944</speed>
  <fix>3d</fix>
</trkpt>
<trkpt lat="40.0712429" lon="-105.2301612">
  <ele>1583.87</ele>
  <time>2026-08-28T17:54:36Z</time>
  <course>247.15</course>
  <speed>1.078563859954523</speed>
  <fix>3d</fix>
</trkpt>
<trkpt lat="40.0712425" lon="-105.2301625">
  <ele>1583.87</ele>
  <time>2026-08-28T17:54:36Z</time>
  <course>247.17</course>
  <speed>1.0124228365658294</speed>
  <fix>3d</fix>
</trkpt>
<trkpt lat="40.0712421" lon="-105.2301637">
  <ele>1583.86</ele>
  <time>2026-08-28T17:54:36Z</time>
  <course>247.19</course>
  <speed>0.9588013350011565</speed>
  <fix>3d</fix>
</trkpt>
<trkpt lat="40.0712417" lon="-105.2301649">
  <ele>1583.86</ele>
  <time>2026-08-28T17:54:36Z</time>
  <course>247.2</course>
  <speed>0.9024965373894794</speed>
  <fix>3d</fix>
</trkpt>
<trkpt lat="40.0712414" lon="-105.230166">
  <ele>1583.86</ele>
  <time>2026-08-28T17:54:36Z</time>
  <course>247.22</course>
  <speed>0.8489994110716449</speed>
  <fix>3d</fix>
</trkpt>
<trkpt lat="40.071241" lon="-105.2301671">
  <ele>1583.87</ele>
  <time>2026-08-28T17:54:36Z</time>
  <course>247.23</course>
  <speed>0.7955501241279521</speed>
  <fix>3d</fix>
</trkpt>
<trkpt lat="40.0712408" lon="-105.2301681">
  <ele>1583.87</ele>
  <time>2026-08-28T17:54:36Z</time>
  <course>247.24</course>
  <speed>0.7518643494673757</speed>
  <fix>3d</fix>
</trkpt>
<trkpt lat="40.0712405" lon="-105.230169">
  <ele>1583.87</ele>
  <time>2026-08-28T17:54:36Z</time>
  <course>247.26</course>
  <speed>0.7061161377563892</speed>
  <fix>3d</fix>
</trkpt>
<trkpt lat="40.0712402" lon="-105.2301699">
  <ele>1583.87</ele>
  <time>2026-08-28T17:54:36Z</time>
  <course>247.27</course>
  <speed>0.662872536767062</speed>
  <fix>3d</fix>
</trkpt>
<trkpt lat="40.07124" lon="-105.2301708">
  <ele>1583.87</ele>
  <time>2026-08-28T17:54:36Z</time>
  <course>247.28</course>
  <speed>0.6216912416947821</speed>
  <fix>3d</fix>
</trkpt>
<trkpt lat="40.0712398" lon="-105.2301716">
  <ele>1583.87</ele>
  <time>2026-08-28T17:54:36Z</time>
  <course>247.29</course>
  <speed>0.5787054518492115</speed>
  <fix>3d</fix>
</trkpt>
<trkpt lat="40.0712396" lon="-105.2301723">
  <ele>1583.87</ele>
  <time>2026-08-28T17:54:36Z</time>
  <course>247.3</course>
  <speed>0.5458937625582473</speed>
  <fix>3d</fix>
</trkpt>
<trkpt lat="40.0712395" lon="-105.2301731">
  <ele>1583.86</ele>
  <time>2026-08-28T17:54:36Z</time>
  <course>247.31</course>
  <speed>0.5135172830587107</speed>
  <fix>3d</fix>
</trkpt>
<trkpt lat="40.0712393" lon="-105.2301737">
  <ele>1583.86</ele>
  <time>2026-08-28T17:54:36Z</time>
  <course>247.32</course>
  <speed>0.48166378315169184</speed>
  <fix>3d</fix>
</trkpt>
<trkpt lat="40.0712392" lon="-105.2301744">
  <ele>1583.85</ele>
  <time>2026-08-28T17:54:36Z</time>
  <course>247.33</course>
  <speed>0.4509988913511872</speed>
  <fix>3d</fix>
</trkpt>
<trkpt lat="40.0712391" lon="-105.230175">
  <ele>1583.85</ele>
  <time>2026-08-28T17:54:36Z</time>
  <course>247.34</course>
  <speed>0.4201190307520001</speed>
  <fix>3d</fix>
</trkpt>
<trkpt lat="40.071239" lon="-105.2301756">
  <ele>1583.85</ele>
  <time>2026-08-28T17:54:36Z</time>
  <course>247.35</course>
  <speed>0.4</speed>
  <fix>3d</fix>
</trkpt>
<trkpt lat="40.0712389" lon="-105.2301761">
  <ele>1583.84</ele>
  <time>2026-08-28T17:54:36Z</time>
  <course>247.36</course>
  <speed>0.38013155617496425</speed>
  <fix>3d</fix>
</trkpt>
<trkpt lat="40.0712388" lon="-105.2301767">
  <ele>1583.84</ele>
  <time>2026-08-28T17:54:36Z</time>
  <course>247.37</course>
  <speed>0.3505709628591621</speed>
  <fix>3d</fix>
</trkpt>
<trkpt lat="40.0712387" lon="-105.2301772">
  <ele>1583.83</ele>
  <time>2026-08-28T17:54:36Z</time>
  <course>247.38</course>
  <speed>0.3313608305156178</speed>
  <fix>3d</fix>
</trkpt>
<trkpt lat="40.0712386" lon="-105.2301776">
  <ele>1583.83</ele>
  <time>2026-08-28T17:54:36Z</time>
  <course>247.38</course>
  <speed>0.31400636936215165</speed>
  <fix>3d</fix>
</trkpt>
<trkpt lat="40.0712386" lon="-105.2301781">
  <ele>1583.83</ele>
  <time>2026-08-28T17:54:36Z</time>
  <course>247.39</course>
  <speed>0.3059411708155671</speed>
  <fix>3d</fix>
</trkpt>
<trkpt lat="40.0712386" lon="-105.2301785">
  <ele>1583.83</ele>
  <time>2026-08-28T17:54:36Z</time>
  <course>247.4</course>
  <speed>0.28861739379323625</speed>
  <fix>3d</fix>
</trkpt>
<trkpt lat="40.0712385" lon="-105.2301789">
  <ele>1583.83</ele>
  <time>2026-08-28T17:54:36Z</time>
  <course>247.41</course>
  <speed>0.2720294101747089</speed>
  <fix>3d</fix>
</trkpt>
<trkpt lat="40.0712385" lon="-105.2301793">
  <ele>1583.83</ele>
  <time>2026-08-28T17:54:36Z</time>
  <course>247.42</course>
  <speed>0.26570660511172844</speed>
  <fix>3d</fix>
</trkpt>
<trkpt lat="40.0712385" lon="-105.2301797">
  <ele>1583.83</ele>
  <time>2026-08-28T17:54:37Z</time>
  <course>247.43</course>
  <speed>0.25079872407968906</speed>
  <fix>3d</fix>
</trkpt>
<trkpt lat="40.0712385" lon="-105.23018">
  <ele>1583.83</ele>
  <time>2026-08-28T17:54:37Z</time>
  <course>247.44</course>
  <speed>0.24596747752497689</speed>
  <fix>3d</fix>
</trkpt>
<trkpt lat="40.0712385" lon="-105.2301804">
  <ele>1583.83</ele>
  <time>2026-08-28T17:54:37Z</time>
  <course>247.44</course>
  <speed>0.24186773244895649</speed>
  <fix>3d</fix>
</trkpt>
<trkpt lat="40.0712385" lon="-105.2301807">
  <ele>1583.83</ele>
  <time>2026-08-28T17:54:37Z</time>
  <course>247.45</course>
  <speed>0.23853720883753127</speed>
  <fix>3d</fix>
</trkpt>
<trkpt lat="40.0712385" lon="-105.230181">
  <ele>1583.83</ele>
  <time>2026-08-28T17:54:37Z</time>
  <course>247.46</course>
  <speed>0.23600847442411893</speed>
  <fix>3d</fix>
</trkpt>
<trkpt lat="40.0712385" lon="-105.2301813">
  <ele>1583.83</ele>
  <time>2026-08-28T17:54:37Z</time>
  <course>247.47</course>
  <speed>0.23430749027719963</speed>
  <fix>3d</fix>
</trkpt>
<trkpt lat="40.0712386" lon="-105.2301815">
  <ele>1583.83</ele>
  <time>2026-08-28T17:54:37Z</time>
  <course>247.47</course>
  <speed>0.22671568097509268</speed>
  <fix>3d</fix>
</trkpt>
<trkpt lat="40.0712386" lon="-105.2301818">
  <ele>1583.83</ele>
  <time>2026-08-28T17:54:37Z</time>
  <course>247.48</course>
  <speed>0.2262741699796952</speed>
  <fix>3d</fix>
</trkpt>
<trkpt lat="40.0712386" lon="-105.230182">
  <ele>1583.83</ele>
  <time>2026-08-28T17:54:37Z</time>
  <course>247.49</course>
  <speed>0.22671568097509268</speed>
  <fix>3d</fix>
</trkpt>
<trkpt lat="40.0712387" lon="-105.2301823">
  <ele>1583.84</ele>
  <time>2026-08-28T17:54:37Z</time>
  <course>247.5</course>
  <speed>0.22022715545545238</speed>
  <fix>3d</fix>
</trkpt>
<trkpt lat="40.0712387" lon="-105.2301825">
  <ele>1583.84</ele>
  <time>2026-08-28T17:54:37Z</time>
  <course>247.5</course>
  <speed>0.22803508501982758</speed>
  <fix>3d</fix>
</trkpt>
<trkpt lat="40.0712388" lon="-105.2301827">
  <ele>1583.85</ele>
  <time>2026-08-28T17:54:37Z</time>
  <course>247.51</course>
  <speed>0.23021728866442676</speed>
  <fix>3d</fix>
</trkpt>
<trkpt lat="40.0712388" lon="-105.2301829">
  <ele>1583.85</ele>
  <time>2026-08-28T17:54:37Z</time>
  <course>247.52</course>
  <speed>0.22472205054244232</speed>
  <fix>3d</fix>
</trkpt>
<trkpt lat="40.0712389" lon="-105.2301831">
  <ele>1583.85</ele>
  <time>2026-08-28T17:54:37Z</time>
  <course>247.52</course>
  <speed>0.23323807579381203</speed>
  <fix>3d</fix>
</trkpt>
<trkpt lat="40.071239" lon="-105.2301833">
  <ele>1583.86</ele>
  <time>2026-08-28T17:54:37Z</time>
  <course>247.53</course>
  <speed>0.22825424421026652</speed>
  <fix>3d</fix>
</trkpt>
<trkpt lat="40.071239" lon="-105.2301834">
  <ele>1583.86</ele>
  <time>2026-08-28T17:54:37Z</time>
  <course>247.54</course>
  <speed>0.23706539182259395</speed>
  <fix>3d</fix>
</trkpt>
<trkpt lat="40.0712391" lon="-105.2301836">
  <ele>1583.85</ele>
  <time>2026-08-28T17:54:37Z</time>
  <course>247.54</course>
  <speed>0.23259406699226015</speed>
  <fix>3d</fix>
</trkpt>
<trkpt lat="40.0712392" lon="-105.2301837">
  <ele>1583.85</ele>
  <time>2026-08-28T17:54:37Z</time>
  <course>247.55</course>
  <speed>0.24166091947189144</speed>
  <fix>3d</fix>
</trkpt>
<trkpt lat="40.0712392" lon="-105.2301839">
  <ele>1583.85</ele>
  <time>2026-08-28T17:54:37Z</time>
  <course>247.56</course>
  <speed>0.24166091947189144</speed>
  <fix>3d</fix>
</trkpt>
<trkpt lat="40.0712393" lon="-105.230184">
  <ele>1583.86</ele>
  <time>2026-08-28T17:54:37Z</time>
  <course>247.56</course>
  <speed>0.23769728648009425</speed>
  <fix>3d</fix>
</trkpt>
<trkpt lat="40.0712394" lon="-105.2301841">
  <ele>1583.86</ele>
  <time>2026-08-28T17:54:37Z</time>
  <course>247.57</course>
  <speed>0.24698178070456936</speed>
  <fix>3d</fix>
</trkpt>
<trkpt lat="40.0712394" lon="-105.2301843">
  <ele>1583.86</ele>
  <time>2026-08-28T17:54:37Z</time>
  <course>247.58</course>
  <speed>0.24698178070456936</speed>
  <fix>3d</fix>
</trkpt>
<trkpt lat="40.0712395" lon="-105.2301844">
  <ele>1583.86</ele>
  <time>2026-08-28T17:54:37Z</time>
  <course>247.58</course>
  <speed>0.24351591323771843</speed>
  <fix>3d</fix>
</trkpt>
<trkpt lat="40.0712396" lon="-105.2301845">
  <ele>1583.86</ele>
  <time>2026-08-28T17:54:37Z</time>
  <course>247.59</course>
  <speed>0.2529822128134704</speed>
  <fix>3d</fix>
</trkpt>
<trkpt lat="40.0712396" lon="-105.2301846">
  <ele>1583.86</ele>
  <time>2026-08-28T17:54:37Z</time>
  <course>247.59</course>
  <speed>0.2529822128134704</speed>
  <fix>3d</fix>
</trkpt>
<trkpt lat="40.0712397" lon="-105.2301847">
  <ele>1583.86</ele>
  <time>2026-08-28T17:54:37Z</time>
  <course>247.6</course>
  <speed>0.2529822128134704</speed>
  <fix>3d</fix>
</trkpt>
<trkpt lat="40.0712398" lon="-105.2301848">
  <ele>1583.86</ele>
  <time>2026-08-28T17:54:37Z</time>
  <course>247.61</course>
  <speed>0.2529822128134704</speed>
  <fix>3d</fix>
</trkpt>
<trkpt lat="40.0712398" lon="-105.2301849">
  <ele>1583.86</ele>
  <time>2026-08-28T17:54:37Z</time>
  <course>247.61</course>
  <speed>0.2529822128134704</speed>
  <fix>3d</fix>
</trkpt>
<trkpt lat="40.0712399" lon="-105.2301849">
  <ele>1583.87</ele>
  <time>2026-08-28T17:54:37Z</time>
  <course>247.62</course>
  <speed>0.25</speed>
  <fix>3d</fix>
</trkpt>
<trkpt lat="40.07124" lon="-105.230185">
  <ele>1583.87</ele>
  <time>2026-08-28T17:54:37Z</time>
  <course>247.62</course>
  <speed>0.2596150997149434</speed>
  <fix>3d</fix>
</trkpt>
<trkpt lat="40.07124" lon="-105.2301851">
  <ele>1583.87</ele>
  <time>2026-08-28T17:54:37Z</time>
  <course>247.63</course>
  <speed>0.2596150997149434</speed>
  <fix>3d</fix>
</trkpt>
<trkpt lat="40.0712401" lon="-105.2301852">
  <ele>1583.87</ele>
  <time>2026-08-28T17:54:37Z</time>
  <course>247.63</course>
  <speed>0.2596150997149434</speed>
  <fix>3d</fix>
</trkpt>
<trkpt lat="40.0712401" lon="-105.2301852">
  <ele>1583.87</ele>
  <time>2026-08-28T17:54:37Z</time>
  <course>247.63</course>
  <speed>0.2596150997149434</speed>
  <fix>3d</fix>
</trkpt>
<trkpt lat="40.0712402" lon="-105.2301853">
  <ele>1583.87</ele>
  <time>2026-08-28T17:54:37Z</time>
  <course>247.64</course>
  <speed>0.2596150997149434</speed>
  <fix>3d</fix>
</trkpt>
<trkpt lat="40.0712402" lon="-105.2301854">
  <ele>1583.87</ele>
  <time>2026-08-28T17:54:37Z</time>
  <course>247.64</course>
  <speed>0.2596150997149434</speed>
  <fix>3d</fix>
</trkpt>
<trkpt lat="40.0712403" lon="-105.2301854">
  <ele>1583.87</ele>
  <time>2026-08-28T17:54:37Z</time>
  <course>247.64</course>
  <speed>0.2596150997149434</speed>
  <fix>3d</fix>
</trkpt>
<trkpt lat="40.0712403" lon="-105.2301855">
  <ele>1583.87</ele>
  <time>2026-08-28T17:54:37Z</time>
  <course>247.65</course>
  <speed>0.2596150997149434</speed>
  <fix>3d</fix>
</trkpt>
<trkpt lat="40.0712404" lon="-105.2301855">
  <ele>1583.87</ele>
  <time>2026-08-28T17:54:37Z</time>
  <course>247.65</course>
  <speed>0.2596150997149434</speed>
  <fix>3d</fix>
</trkpt>
<trkpt lat="40.0712404" lon="-105.2301856">
  <ele>1583.87</ele>
  <time>2026-08-28T17:54:37Z</time>
  <course>247.65</course>
  <speed>0.25</speed>
  <fix>3d</fix>
</trkpt>
<trkpt lat="40.0712405" lon="-105.2301856">
  <ele>1583.87</ele>
  <time>2026-08-28T17:54:37Z</time>
  <course>247.65</course>
  <speed>0.25</speed>
  <fix>3d</fix>
</trkpt>
<trkpt lat="40.0712405" lon="-105.2301857">
  <ele>1583.86</ele>
  <time>2026-08-28T17:54:37Z</time>
  <course>247.65</course>
  <speed>0.25</speed>
  <fix>3d</fix>
</trkpt>
<trkpt lat="40.0712405" lon="-105.2301857">
  <ele>1583.85</ele>
  <time>2026-08-28T17:54:37Z</time>
  <course>247.66</course>
  <speed>0.25</speed>
  <fix>3d</fix>
</trkpt>
<trkpt lat="40.0712406" lon="-105.2301857">
  <ele>1583.85</ele>
  <time>2026-08-28T17:54:37Z</time>
  <course>247.66</course>
  <speed>0.25</speed>
  <fix>3d</fix>
</trkpt>
<trkpt lat="40.0712406" lon="-105.2301858">
  <ele>1583.85</ele>
  <time>2026-08-28T17:54:37Z</time>
  <course>247.66</course>
  <speed>0.24041630560342614</speed>
  <fix>3d</fix>
</trkpt>
<trkpt lat="40.0712406" lon="-105.2301858">
  <ele>1583.85</ele>
  <time>2026-08-28T17:54:37Z</time>
  <course>247.66</course>
  <speed>0.24041630560342614</speed>
  <fix>3d</fix>
</trkpt>
<trkpt lat="40.0712406" lon="-105.2301858">
  <ele>1583.84</ele>
  <time>2026-08-28T17:54:37Z</time>
  <course>247.66</course>
  <speed>0.24041630560342614</speed>
  <fix>3d</fix>
</trkpt>
<trkpt lat="40.0712406" lon="-105.2301859">
  <ele>1583.84</ele>
  <time>2026-08-28T17:54:37Z</time>
  <course>247.66</course>
  <speed>0.24041630560342614</speed>
  <fix>3d</fix>
</trkpt>
<trkpt lat="40.0712406" lon="-105.2301859">
  <ele>1583.84</ele>
  <time>2026-08-28T17:54:37Z</time>
  <course>247.66</course>
  <speed>0.2308679276123039</speed>
  <fix>3d</fix>
</trkpt>
<trkpt lat="40.0712407" lon="-105.2301859">
  <ele>1583.84</ele>
  <time>2026-08-28T17:54:37Z</time>
  <course>247.66</course>
  <speed>0.2308679276123039</speed>
  <fix>3d</fix>
</trkpt>
<trkpt lat="40.0712407" lon="-105.230186">
  <ele>1583.84</ele>
  <time>2026-08-28T17:54:37Z</time>
  <course>247.66</course>
  <speed>0.2308679276123039</speed>
  <fix>3d</fix>
</trkpt>
<trkpt lat="40.0712407" lon="-105.230186">
  <ele>1583.84</ele>
  <time>2026-08-28T17:54:37Z</time>
  <course>247.65</course>
  <speed>0.22135943621178655</speed>
  <fix>3d</fix>
</trkpt>
<trkpt lat="40.0712406" lon="-105.230186">
  <ele>1583.84</ele>
  <time>2026-08-28T17:54:37Z</time>
  <course>247.65</course>
  <speed>0.22135943621178655</speed>
  <fix>3d</fix>
</trkpt>
<trkpt lat="40.0712406" lon="-105.230186">
  <ele>1583.84</ele>
  <time>2026-08-28T17:54:37Z</time>
  <course>247.65</course>
  <speed>0.22135943621178655</speed>
  <fix>3d</fix>
</trkpt>
<trkpt lat="40.0712406" lon="-105.2301861">
  <ele>1583.83</ele>
  <time>2026-08-28T17:54:37Z</time>
  <course>247.65</course>
  <speed>0.21189620100417092</speed>
  <fix>3d</fix>
</trkpt>
<trkpt lat="40.0712406" lon="-105.2301861">
  <ele>1583.83</ele>
  <time>2026-08-28T17:54:37Z</time>
  <course>247.65</course>
  <speed>0.21540659228538014</speed>
  <fix>3d</fix>
</trkpt>
<trkpt lat="40.0712406" lon="-105.2301861">
  <ele>1583.83</ele>
  <time>2026-08-28T17:54:37Z</time>
  <course>247.64</course>
  <speed>0.20615528128088303</speed>
  <fix>3d</fix>
</trkpt>
<trkpt lat="40.0712406" lon="-105.2301862">
  <ele>1583.83</ele>
  <time>2026-08-28T17:54:37Z</time>
  <course>247.64</course>
  <speed>0.20615528128088303</speed>
  <fix>3d</fix>
</trkpt>
<trkpt lat="40.0712405" lon="-105.2301862">
  <ele>1583.82</ele>
  <time>2026-08-28T17:54:37Z</time>
  <course>247.64</course>
  <speed>0.19697715603592209</speed>
  <fix>3d</fix>
</trkpt>
<trkpt lat="40.0712405" lon="-105.2301862">
  <ele>1583.82</ele>
  <time>2026-08-28T17:54:37Z</time>
  <course>247.63</course>
  <speed>0.19697715603592209</speed>
  <fix>3d</fix>
</trkpt>
<trkpt lat="40.0712405" lon="-105.2301862">
  <ele>1583.82</ele>
  <time>2026-08-28T17:54:37Z</time>
  <course>247.63</course>
  <speed>0.18788294228055935</speed>
  <fix>3d</fix>
</trkpt>
<trkpt lat="40.0712404" lon="-105.2301862">
  <ele>1583.82</ele>
  <time>2026-08-28T17:54:37Z</time>
  <course>247.62</course>
  <speed>0.18788294228055935</speed>
  <fix>3d</fix>
</trkpt>
<trkpt lat="40.0712404" lon="-105.2301862">
  <ele>1583.82</ele>
  <time>2026-08-28T17:54:37Z</time>
  <course>247.62</course>
  <speed>0.17888543819998318</speed>
  <fix>3d</fix>
</trkpt>
<trkpt lat="40.0712404" lon="-105.2301863">
  <ele>1583.82</ele>
  <time>2026-08-28T17:54:37Z</time>
  <course>247.62</course>
  <speed>0.17888543819998318</speed>
  <fix>3d</fix>
</trkpt>
<trkpt lat="40.0712403" lon="-105.2301863">
  <ele>1583.83</ele>
  <time>2026-08-28T17:54:37Z</time>
  <course>247.61</course>
  <speed>0.17</speed>
  <fix>3d</fix>
</trkpt>
<trkpt lat="40.0712402" lon="-105.2301863">
  <ele>1583.83</ele>
  <time>2026-08-28T17:54:37Z</time>
  <course>247.61</course>
  <speed>0.17</speed>
  <fix>3d</fix>
</trkpt>
<trkpt lat="40.0712402" lon="-105.2301863">
  <ele>1583.83</ele>
  <time>2026-08-28T17:54:37Z</time>
  <course>247.6</course>
  <speed>0.16124515496597097</speed>
  <fix>3d</fix>
</trkpt>
<trkpt lat="40.0712401" lon="-105.2301863">
  <ele>1583.83</ele>
  <time>2026-08-28T17:54:37Z</time>
  <course>247.6</course>
  <speed>0.16124515496597097</speed>
  <fix>3d</fix>
</trkpt>
<trkpt lat="40.0712401" lon="-105.2301863">
  <ele>1583.83</ele>
  <time>2026-08-28T17:54:37Z</time>
  <course>247.59</course>
  <speed>0.15264337522473748</speed>
  <fix>3d</fix>
</trkpt>
<trkpt lat="40.07124" lon="-105.2301864">
  <ele>1583.83</ele>
  <time>2026-08-28T17:54:37Z</time>
  <course>247.59</course>
  <speed>0.15264337522473748</speed>
  <fix>3d</fix>
</trkpt>
<trkpt lat="40.0712399" lon="-105.2301864">
  <ele>1583.83</ele>
  <time>2026-08-28T17:54:37Z</time>
  <course>247.58</course>
  <speed>0.14422205101855956</speed>
  <fix>3d</fix>
</trkpt>
<trkpt lat="40.0712399" lon="-105.2301864">
  <ele>1583.83</ele>
  <time>2026-08-28T17:54:37Z</time>
  <course>247.57</course>
  <speed>0.13601470508735444</speed>
  <fix>3d</fix>
</trkpt>
<trkpt lat="40.0712398" lon="-105.2301864">
  <ele>1583.83</ele>
  <time>2026-08-28T17:54:37Z</time>
  <course>247.57</course>
  <speed>0.13601470508735444</speed>
  <fix>3d</fix>
</trkpt>
<trkpt lat="40.0712397" lon="-105.2301864">
  <ele>1583.82</ele>
  <time>2026-08-28T17:54:37Z</time>
  <course>247.56</course>
  <speed>0.12806248474865697</speed>
  <fix>3d</fix>
</trkpt>
<trkpt lat="40.0712396" lon="-105.2301864">
  <ele>1583.82</ele>
  <time>2026-08-28T17:54:37Z</time>
  <course>247.56</course>
  <speed>0.12806248474865697</speed>
  <fix>3d</fix>
</trkpt>
<trkpt lat="40.0712396" lon="-105.2301865">
  <ele>1583.82</ele>
  <time>2026-08-28T17:54:37Z</time>
  <course>247.55</course>
  <speed>0.12041594578792296</speed>
  <fix>3d</fix>
</trkpt>
<trkpt lat="40.0712395" lon="-105.2301865">
  <ele>1583.81</ele>
  <time>2026-08-28T17:54:37Z</time>
  <course>247.55</course>
  <speed>0.12041594578792296</speed>
  <fix>3d</fix>
</trkpt>
<trkpt lat="40.0712394" lon="-105.2301865">
  <ele>1583.81</ele>
  <time>2026-08-28T17:54:37Z</time>
  <course>247.54</course>
  <speed>0.1131370849898476</speed>
  <fix>3d</fix>
</trkpt>
<trkpt lat="40.0712393" lon="-105.2301866">
  <ele>1583.81</ele>
  <time>2026-08-28T17:54:37Z</time>
  <course>247.54</course>
  <speed>0.1131370849898476</speed>
  <fix>3d</fix>
</trkpt>
<trkpt lat="40.0712393" lon="-105.2301866">
  <ele>1583.81</ele>
  <time>2026-08-28T17:54:37Z</time>
  <course>247.53</course>
  <speed>0.1063014581273465</speed>
  <fix>3d</fix>
</trkpt>
<trkpt lat="40.0712392" lon="-105.2301866">
  <ele>1583.81</ele>
  <time>2026-08-28T17:54:37Z</time>
  <course>247.52</course>
  <speed>0.1063014581273465</speed>
  <fix>3d</fix>
</trkpt>
<trkpt lat="40.0712391" lon="-105.2301866">
  <ele>1583.82</ele>
  <time>2026-08-28T17:54:37Z</time>
  <course>247.52</course>
  <speed>0.1</speed>
  <fix>3d</fix>
</trkpt>
<trkpt lat="40.071239" lon="-105.2301866">
  <ele>1583.82</ele>
  <time>2026-08-28T17:54:37Z</time>
  <course>247.51</course>
  <speed>0.1</speed>
  <fix>3d</fix>
</trkpt>
<trkpt lat="40.0712389" lon="-105.2301866">
  <ele>1583.82</ele>
  <time>2026-08-28T17:54:37Z</time>
  <course>247.51</course>
  <speed>0.09433981132056603</speed>
  <fix>3d</fix>
</trkpt>
<trkpt lat="40.0712388" lon="-105.2301866">
  <ele>1583.83</ele>
  <time>2026-08-28T17:54:37Z</time>
  <course>247.5</course>
  <speed>0.08944271909999159</speed>
  <fix>3d</fix>
</trkpt>
<trkpt lat="40.0712387" lon="-105.2301866">
  <ele>1583.83</ele>
  <time>2026-08-28T17:54:37Z</time>
  <course>247.5</course>
  <speed>0.08944271909999159</speed>
  <fix>3d</fix>
</trkpt>
<trkpt lat="40.0712386" lon="-105.2301866">
  <ele>1583.84</ele>
  <time>2026-08-28T17:54:37Z</time>
  <course>247.49</course>
  <speed>0.0854400374531753</speed>
  <fix>3d</fix>
</trkpt>
<trkpt lat="40.0712385" lon="-105.2301867">
  <ele>1583.84</ele>
  <time>2026-08-28T17:54:37Z</time>
  <course>247.49</course>
  <speed>0.0854400374531753</speed>
  <fix>3d</fix>
</trkpt>
<trkpt lat="40.0712384" lon="-105.2301867">
  <ele>1583.84</ele>
  <time>2026-08-28T17:54:37Z</time>
  <course>247.48</course>
  <speed>0.0824621125123532</speed>
  <fix>3d</fix>
</trkpt>
<trkpt lat="40.0712383" lon="-105.2301867">
  <ele>1583.84</ele>
  <time>2026-08-28T17:54:37Z</time>
  <course>247.48</course>
  <speed>0.0824621125123532</speed>
  <fix>3d</fix>
</trkpt>
<trkpt lat="40.0712382" lon="-105.2301867">
  <ele>1583.84</ele>
  <time>2026-08-28T17:54:37Z</time>
  <course>247.47</course>
  <speed>0.08062257748298549</speed>
  <fix>3d</fix>
</trkpt>
<trkpt lat="40.0712381" lon="-105.2301868">
  <ele>1583.84</ele>
  <time>2026-08-28T17:54:37Z</time>
  <course>247.47</course>
  <speed>0.08062257748298549</speed>
  <fix>3d</fix>
</trkpt>
<trkpt lat="40.071238" lon="-105.2301868">
  <ele>1583.84</ele>
  <time>2026-08-28T17:54:37Z</time>
  <course>247.46</course>
  <speed>0.08</speed>
  <fix>3d</fix>
</trkpt>
<trkpt lat="40.0712379" lon="-105.2301868">
  <ele>1583.84</ele>
  <time>2026-08-28T17:54:37Z</time>
  <course>247.46</course>
  <speed>0.08</speed>
  <fix>3d</fix>
</trkpt>
<trkpt lat="40.0712378" lon="-105.2301869">
  <ele>1583.85</ele>
  <time>2026-08-28T17:54:37Z</time>
  <course>247.45</course>
  <speed>0.07</speed>
  <fix>3d</fix>
</trkpt>
<trkpt lat="40.0712377" lon="-105.2301869">
  <ele>1583.85</ele>
  <time>2026-08-28T17:54:37Z</time>
  <course>247.45</course>
  <speed>0.07</speed>
  <fix>3d</fix>
</trkpt>
<trkpt lat="40.0712376" lon="-105.2301869">
  <ele>1583.86</ele>
  <time>2026-08-28T17:54:37Z</time>
  <course>247.44</course>
  <speed>0.08</speed>
  <fix>3d</fix>
</trkpt>
<trkpt lat="40.0712375" lon="-105.230187">
  <ele>1583.86</ele>
  <time>2026-08-28T17:54:37Z</time>
  <course>247.44</course>
  <speed>0.08062257748298549</speed>
  <fix>3d</fix>
</trkpt>
<trkpt lat="40.0712375" lon="-105.230187">
  <ele>1583.86</ele>
  <time>2026-08-28T17:54:37Z</time>
  <course>247.44</course>
  <speed>0.07071067811865475</speed>
  <fix>3d</fix>
</trkpt>
<trkpt lat="40.0712374" lon="-105.230187">
  <ele>1583.86</ele>
  <time>2026-08-28T17:54:37Z</time>
  <course>247.43</course>
  <speed>0.07280109889280519</speed>
  <fix>3d</fix>
</trkpt>
<trkpt lat="40.0712373" lon="-105.2301871">
  <ele>1583.86</ele>
  <time>2026-08-28T17:54:37Z</time>
  <course>247.43</course>
  <speed>0.07280109889280519</speed>
  <fix>3d</fix>
</trkpt>
<trkpt lat="40.0712372" lon="-105.2301871">
  <ele>1583.87</ele>
  <time>2026-08-28T17:54:37Z</time>
  <course>247.42</course>
  <speed>0.07280109889280519</speed>
  <fix>3d</fix>
</trkpt>
<trkpt lat="40.0712371" lon="-105.2301871">
  <ele>1583.87</ele>
  <time>2026-08-28T17:54:37Z</time>
  <course>247.42</course>
  <speed>0.07615773105863909</speed>
  <fix>3d</fix>
</trkpt>
<trkpt lat="40.071237" lon="-105.2301871">
  <ele>1583.87</ele>
  <time>2026-08-28T17:54:37Z</time>
  <course>247.42</course>
  <speed>0.07615773105863909</speed>
  <fix>3d</fix>
</trkpt>
<trkpt lat="40.0712369" lon="-105.2301872">
  <ele>1583.87</ele>
  <time>2026-08-28T17:54:37Z</time>
  <course>247.41</course>
  <speed>0.07615773105863909</speed>
  <fix>3d</fix>
</trkpt>
<trkpt lat="40.0712368" lon="-105.2301872">
  <ele>1583.87</ele>
  <time>2026-08-28T17:54:37Z</time>
  <course>247.41</course>
  <speed>0.08062257748298549</speed>
  <fix>3d</fix>
</trkpt>
<trkpt lat="40.0712367" lon="-105.2301872">
  <ele>1583.87</ele>
  <time>2026-08-28T17:54:37Z</time>
  <course>247.41</course>
  <speed>0.08062257748298549</speed>
  <fix>3d</fix>
</trkpt>
<trkpt lat="40.0712366" lon="-105.2301872">
  <ele>1583.87</ele>
  <time>2026-08-28T17:54:37Z</time>
  <course>247.4</course>
  <speed>0.08602325267042626</speed>
  <fix>3d</fix>
</trkpt>
<trkpt lat="40.0712365" lon="-105.2301873">
  <ele>1583.87</ele>
  <time>2026-08-28T17:54:37Z</time>
  <course>247.4</course>
  <speed>0.08602325267042626</speed>
  <fix>3d</fix>
</trkpt>
<trkpt lat="40.0712364" lon="-105.2301873">
  <ele>1583.87</ele>
  <time>2026-08-28T17:54:37Z</time>
  <course>247.4</course>
  <speed>0.08602325267042626</speed>
  <fix>3d</fix>
</trkpt>
<trkpt lat="40.0712363" lon="-105.2301873">
  <ele>1583.87</ele>
  <time>2026-08-28T17:54:37Z</time>
  <course>247.4</course>
  <speed>0.08602325267042626</speed>
  <fix>3d</fix>
</trkpt>
<trkpt lat="40.0712362" lon="-105.2301874">
  <ele>1583.87</ele>
  <time>2026-08-28T17:54:37Z</time>
  <course>247.39</course>
  <speed>0.0848528137423857</speed>
  <fix>3d</fix>
</trkpt>
<trkpt lat="40.0712361" lon="-105.2301874">
  <ele>1583.87</ele>
  <time>2026-08-28T17:54:37Z</time>
  <course>247.39</course>
  <speed>0.0848528137423857</speed>
  <fix>3d</fix>
</trkpt>
<trkpt lat="40.071236" lon="-105.2301874">
  <ele>1583.87</ele>
  <time>2026-08-28T17:54:37Z</time>
  <course>247.39</course>
  <speed>0.0848528137423857</speed>
  <fix>3d</fix>
</trkpt>
<trkpt lat="40.0712359" lon="-105.2301875">
  <ele>1583.87</ele>
  <time>2026-08-28T17:54:37Z</time>
  <course>247.39</course>
  <speed>0.09219544457292887</speed>
  <fix>3d</fix>
</trkpt>
<trkpt lat="40.0712358" lon="-105.2301875">
  <ele>1583.87</ele>
  <time>2026-08-28T17:54:37Z</time>
  <course>247.38</course>
  <speed>0.09219544457292887</speed>
  <fix>3d</fix>
</trkpt>
<trkpt lat="40.0712357" lon="-105.2301875">
  <ele>1583.87</ele>
  <time>2026-08-28T17:54:37Z</time>
  <course>247.38</course>
  <speed>0.09219544457292887</speed>
  <fix>3d</fix>
</trkpt>
<trkpt lat="40.0712356" lon="-105.2301876">
  <ele>1583.87</ele>
  <time>2026-08-28T17:54:37Z</time>
  <course>247.38</course>
  <speed>0.09219544457292887</speed>
  <fix>3d</fix>
</trkpt>
<trkpt lat="40.0712355" lon="-105.2301876">
  <ele>1583.87</ele>
  <time>2026-08-28T17:54:37Z</time>
  <course>247.38</course>
  <speed>0.1</speed>
  <fix>3d</fix>
</trkpt>
<trkpt lat="40.0712354" lon="-105.2301876">
  <ele>1583.87</ele>
  <time>2026-08-28T17:54:37Z</time>
  <course>247.38</course>
  <speed>0.1</speed>
  <fix>3d</fix>
</trkpt>
<trkpt lat="40.0712353" lon="-105.2301877">
  <ele>1583.86</ele>
  <time>2026-08-28T17:54:37Z</time>
  <course>247.38</course>
  <speed>0.1</speed>
  <fix>3d</fix>
</trkpt>
<trkpt lat="40.0712352" lon="-105.2301877">
  <ele>1583.87</ele>
  <time>2026-08-28T17:54:37Z</time>
  <course>247.37</course>
  <speed>0.1</speed>
  <fix>3d</fix>
</trkpt>
<trkpt lat="40.0712351" lon="-105.2301877">
  <ele>1583.87</ele>
  <time>2026-08-28T17:54:37Z</time>
  <course>247.37</course>
  <speed>0.09433981132056603</speed>
  <fix>3d</fix>
</trkpt>
<trkpt lat="40.071235" lon="-105.2301877">
  <ele>1583.87</ele>
  <time>2026-08-28T17:54:37Z</time>
  <course>247.37</course>
  <speed>0.09433981132056603</speed>
  <fix>3d</fix>
</trkpt>
<trkpt lat="40.0712349" lon="-105.2301878">
  <ele>1583.86</ele>
  <time>2026-08-28T17:54:37Z</time>
  <course>247.37</course>
  <speed>0.10295630140987001</speed>
  <fix>3d</fix>
</trkpt>
<trkpt lat="40.0712348" lon="-105.2301878">
  <ele>1583.86</ele>
  <time>2026-08-28T17:54:37Z</time>
  <course>247.37</course>
  <speed>0.10295630140987001</speed>
  <fix>3d</fix>
</trkpt>
<trkpt lat="40.0712348" lon="-105.2301878">
  <ele>1583.85</ele>
  <time>2026-08-28T17:54:37Z</time>
  <course>247.37</course>
  <speed>0.10295630140987001</speed>
  <fix>3d</fix>
</trkpt>
<trkpt lat="40.0712347" lon="-105.2301878">
  <ele>1583.85</ele>
  <time>2026-08-28T17:54:37Z</time>
  <course>247.37</course>
  <speed>0.10295630140987001</speed>
  <fix>3d</fix>
</trkpt>
<trkpt lat="40.0712346" lon="-105.2301879">
  <ele>1583.85</ele>
  <time>2026-08-28T17:54:37Z</time>
  <course>247.36</course>
  <speed>0.10295630140987001</speed>
  <fix>3d</fix>
</trkpt>
<trkpt lat="40.0712345" lon="-105.2301879">
  <ele>1583.86</ele>
  <time>2026-08-28T17:54:37Z</time>
  <course>247.36</course>
  <speed>0.09848857801796104</speed>
  <fix>3d</fix>
</trkpt>
<trkpt lat="40.0712344" lon="-105.2301879">
  <ele>1583.86</ele>
  <time>2026-08-28T17:54:37Z</time>
  <course>247.36</course>
  <speed>0.09848857801796104</speed>
  <fix>3d</fix>
</trkpt>
<trkpt lat="40.0712343" lon="-105.2301879">
  <ele>1583.86</ele>
  <time>2026-08-28T17:54:37Z</time>
  <course>247.36</course>
  <speed>0.09848857801796104</speed>
  <fix>3d</fix>
</trkpt>
<trkpt lat="40.0712342" lon="-105.230188">
  <ele>1583.86</ele>
  <time>2026-08-28T17:54:37Z</time>
  <course>247.36</course>
  <speed>0.10770329614269007</speed>
  <fix>3d</fix>
</trkpt>
<trkpt lat="40.0712342" lon="-105.230188">
  <ele>1583.86</ele>
  <time>2026-08-28T17:54:37Z</time>
  <course>247.36</course>
  <speed>0.10770329614269007</speed>
  <fix>3d</fix>
</trkpt>
<trkpt lat="40.0712341" lon="-105.230188">
  <ele>1583.86</ele>
  <time>2026-08-28T17:54:37Z</time>
  <course>247.36</course>
  <speed>0.10770329614269007</speed>
  <fix>3d</fix>
</trkpt>
<trkpt lat="40.071234" lon="-105.230188">
  <ele>1583.86</ele>
  <time>2026-08-28T17:54:37Z</time>
  <course>247.36</course>
  <speed>0.10770329614269007</speed>
  <fix>3d</fix>
</trkpt>
<trkpt lat="40.0712339" lon="-105.230188">
  <ele>1583.86</ele>
  <time>2026-08-28T17:54:37Z</time>
  <course>247.36</course>
  <speed>0.1044030650891055</speed>
  <fix>3d</fix>
</trkpt>
<trkpt lat="40.0712339" lon="-105.2301881">
  <ele>1583.87</ele>
  <time>2026-08-28T17:54:37Z</time>
  <course>247.36</course>
  <speed>0.1044030650891055</speed>
  <fix>3d</fix>
</trkpt>
<trkpt lat="40.0712338" lon="-105.2301881">
  <ele>1583.87</ele>
  <time>2026-08-28T17:54:37Z</time>
  <course>247.36</course>
  <speed>0.1044030650891055</speed>
  <fix>3d</fix>
</trkpt>
<trkpt lat="40.0712337" lon="-105.2301881">
  <ele>1583.87</ele>
  <time>2026-08-28T17:54:37Z</time>
  <course>247.36</course>
  <speed>0.1044030650891055</speed>
  <fix>3d</fix>
</trkpt>
<trkpt lat="40.0712337" lon="-105.2301881">
  <ele>1583.87</ele>
  <time>2026-08-28T17:54:37Z</time>
  <course>247.36</course>
  <speed>0.1044030650891055</speed>
  <fix>3d</fix>
</trkpt>
<trkpt lat="40.0712336" lon="-105.2301882">
  <ele>1583.88</ele>
  <time>2026-08-28T17:54:37Z</time>
  <course>247.36</course>
  <speed>0.1044030650891055</speed>
  <fix>3d</fix>
</trkpt>
<trkpt lat="40.0712335" lon="-105.2301882">
  <ele>1583.88</ele>
  <time>2026-08-28T17:54:37Z</time>
  <course>247.36</course>
  <speed>0.1044030650891055</speed>
  <fix>3d</fix>
</trkpt>
<trkpt lat="40.0712335" lon="-105.2301882">
  <ele>1583.88</ele>
  <time>2026-08-28T17:54:37Z</time>
  <course>247.36</course>
  <speed>0.1019803902718557</speed>
  <fix>3d</fix>
</trkpt>
<trkpt lat="40.0712334" lon="-105.2301882">
  <ele>1583.88</ele>
  <time>2026-08-28T17:54:37Z</time>
  <course>247.35</course>
  <speed>0.1019803902718557</speed>
  <fix>3d</fix>
</trkpt>
<trkpt lat="40.0712334" lon="-105.2301882">
  <ele>1583.88</ele>
  <time>2026-08-28T17:54:37Z</time>
  <course>247.35</course>
  <speed>0.1019803902718557</speed>
  <fix>3d</fix>
</trkpt>
<trkpt lat="40.0712333" lon="-105.2301882">
  <ele>1583.87</ele>
  <time>2026-08-28T17:54:37Z</time>
  <course>247.35</course>
  <speed>0.1019803902718557</speed>
  <fix>3d</fix>
</trkpt>
<trkpt lat="40.0712332" lon="-105.2301883">
  <ele>1583.87</ele>
  <time>2026-08-28T17:54:37Z</time>
  <course>247.35</course>
  <speed>0.09219544457292887</speed>
  <fix>3d</fix>
</trkpt>
<trkpt lat="40.0712332" lon="-105.2301883">
  <ele>1583.87</ele>
  <time>2026-08-28T17:54:37Z</time>
  <course>247.35</course>
  <speed>0.09219544457292887</speed>
  <fix>3d</fix>
</trkpt>
<trkpt lat="40.0712331" lon="-105.2301883">
  <ele>1583.87</ele>
  <time>2026-08-28T17:54:37Z</time>
  <course>247.35</course>
  <speed>0.09055385138137417</speed>
  <fix>3d</fix>
</trkpt>
<trkpt lat="40.0712331" lon="-105.2301883">
  <ele>1583.87</ele>
  <time>2026-08-28T17:54:37Z</time>
  <course>247.35</course>
  <speed>0.09055385138137417</speed>
  <fix>3d</fix>
</trkpt>
<trkpt lat="40.071233" lon="-105.2301883">
  <ele>1583.86</ele>
  <time>2026-08-28T17:54:37Z</time>
  <course>247.35</course>
  <speed>0.09055385138137417</speed>
  <fix>3d</fix>
</trkpt>
<trkpt lat="40.071233" lon="-105.2301883">
  <ele>1583.86</ele>
  <time>2026-08-28T17:54:37Z</time>
  <course>247.35</course>
  <speed>0.09055385138137417</speed>
  <fix>3d</fix>
</trkpt>
<trkpt lat="40.0712329" lon="-105.2301883">
  <ele>1583.85</ele>
  <time>2026-08-28T17:54:37Z</time>
  <course>247.35</course>
  <speed>0.09055385138137417</speed>
  <fix>3d</fix>
</trkpt>
<trkpt lat="40.0712329" lon="-105.2301883">
  <ele>1583.85</ele>
  <time>2026-08-28T17:54:37Z</time>
  <course>247.35</course>
  <speed>0.09055385138137417</speed>
  <fix>3d</fix>
</trkpt>
<trkpt lat="40.0712329" lon="-105.2301884">
  <ele>1583.85</ele>
  <time>2026-08-28T17:54:37Z</time>
  <course>247.35</course>
  <speed>0.09055385138137417</speed>
  <fix>3d</fix>
</trkpt>
<trkpt lat="40.0712328" lon="-105.2301884">
  <ele>1583.84</ele>
  <time>2026-08-28T17:54:37Z</time>
  <course>247.35</course>
  <speed>0.09</speed>
  <fix>3d</fix>
</trkpt>
<trkpt lat="40.0712328" lon="-105.2301884">
  <ele>1583.84</ele>
  <time>2026-08-28T17:54:37Z</time>
  <course>247.35</course>
  <speed>0.08</speed>
  <fix>3d</fix>
</trkpt>
<trkpt lat="40.0712327" lon="-105.2301884">
  <ele>1583.84</ele>
  <time>2026-08-28T17:54:37Z</time>
  <course>247.35</course>
  <speed>0.08</speed>
  <fix>3d</fix>
</trkpt>
<trkpt lat="40.0712327" lon="-105.2301884">
  <ele>1583.84</ele>
  <time>2026-08-28T17:54:37Z</time>
  <course>247.35</course>
  <speed>0.08</speed>
  <fix>3d</fix>
</trkpt>
<trkpt lat="40.0712327" lon="-105.2301884">
  <ele>1583.84</ele>
  <time>2026-08-28T17:54:37Z</time>
  <course>247.35</course>
  <speed>0.08</speed>
  <fix>3d</fix>
</trkpt>
<trkpt lat="40.0712326" lon="-105.2301884">
  <ele>1583.84</ele>
  <time>2026-08-28T17:54:37Z</time>
  <course>247.35</course>
  <speed>0.08</speed>
  <fix>3d</fix>
</trkpt>
<trkpt lat="40.0712326" lon="-105.2301884">
  <ele>1583.84</ele>
  <time>2026-08-28T17:54:37Z</time>
  <course>247.35</course>
  <speed>0.08</speed>
  <fix>3d</fix>
</trkpt>
<trkpt lat="40.0712326" lon="-105.2301884">
  <ele>1583.84</ele>
  <time>2026-08-28T17:54:37Z</time>
  <course>247.35</course>
  <speed>0.08</speed>
  <fix>3d</fix>
</trkpt>
<trkpt lat="40.0712325" lon="-105.2301884">
  <ele>1583.84</ele>
  <time>2026-08-28T17:54:37Z</time>
  <course>247.35</course>
  <speed>0.07</speed>
  <fix>3d</fix>
</trkpt>
<trkpt lat="40.0712325" lon="-105.2301884">
  <ele>1583.85</ele>
  <time>2026-08-28T17:54:37Z</time>
  <course>247.35</course>
  <speed>0.07</speed>
  <fix>3d</fix>
</trkpt>
<trkpt lat="40.0712325" lon="-105.2301884">
  <ele>1583.86</ele>
  <time>2026-08-28T17:54:37Z</time>
  <course>247.35</course>
  <speed>0.07</speed>
  <fix>3d</fix>
</trkpt>
<trkpt lat="40.0712325" lon="-105.2301884">
  <ele>1583.86</ele>
  <time>2026-08-28T17:54:37Z</time>
  <course>247.35</course>
  <speed>0.07</speed>
  <fix>3d</fix>
</trkpt>
<trkpt lat="40.0712325" lon="-105.2301884">
  <ele>1583.87</ele>
  <time>2026-08-28T17:54:37Z</time>
  <course>247.35</course>
  <speed>0.07</speed>
  <fix>3d</fix>
</trkpt>
<trkpt lat="40.0712325" lon="-105.2301885">
  <ele>1583.87</ele>
  <time>2026-08-28T17:54:37Z</time>
  <course>247.35</course>
  <speed>0.06082762530298219</speed>
  <fix>3d</fix>
</trkpt>
<trkpt lat="40.0712324" lon="-105.2301885">
  <ele>1583.87</ele>
  <time>2026-08-28T17:54:37Z</time>
  <course>247.35</course>
  <speed>0.06082762530298219</speed>
  <fix>3d</fix>
</trkpt>
<trkpt lat="40.0712324" lon="-105.2301885">
  <ele>1583.87</ele>
  <time>2026-08-28T17:54:37Z</time>
  <course>247.35</course>
  <speed>0.06082762530298219</speed>
  <fix>3d</fix>
</trkpt>
<trkpt lat="40.0712324" lon="-105.2301885">
  <ele>1583.87</ele>
  <time>2026-08-28T17:54:37Z</time>
  <course>247.35</course>
  <speed>0.06082762530298219</speed>
  <fix>3d</fix>
</trkpt>
<trkpt lat="40.0712324" lon="-105.2301885">
  <ele>1583.87</ele>
  <time>2026-08-28T17:54:37Z</time>
  <course>247.35</course>
  <speed>0.05099019513592785</speed>
  <fix>3d</fix>
</trkpt>
<trkpt lat="40.0712324" lon="-105.2301885">
  <ele>1583.88</ele>
  <time>2026-08-28T17:54:37Z</time>
  <course>247.35</course>
  <speed>0.05099019513592785</speed>
  <fix>3d</fix>
</trkpt>
<trkpt lat="40.0712324" lon="-105.2301885">
  <ele>1583.88</ele>
  <time>2026-08-28T17:54:37Z</time>
  <course>247.35</course>
  <speed>0.05099019513592785</speed>
  <fix>3d</fix>
</trkpt>
<trkpt lat="40.0712324" lon="-105.2301885">
  <ele>1583.89</ele>
  <time>2026-08-28T17:54:37Z</time>
  <course>247.35</course>
  <speed>0.05099019513592785</speed>
  <fix>3d</fix>
</trkpt>
<trkpt lat="40.0712324" lon="-105.2301885">
  <ele>1583.89</ele>
  <time>2026-08-28T17:54:37Z</time>
  <course>247.35</course>
  <speed>0.05099019513592785</speed>
  <fix>3d</fix>
</trkpt>
<trkpt lat="40.0712324" lon="-105.2301885">
  <ele>1583.89</ele>
  <time>2026-08-28T17:54:37Z</time>
  <course>247.35</course>
  <speed>0.044721359549995794</speed>
  <fix>3d</fix>
</trkpt>
<trkpt lat="40.0712324" lon="-105.2301885">
  <ele>1583.9</ele>
  <time>2026-08-28T17:54:37Z</time>
  <course>247.35</course>
  <speed>0.044721359549995794</speed>
  <fix>3d</fix>
</trkpt>
<trkpt lat="40.0712324" lon="-105.2301885">
  <ele>1583.9</ele>
  <time>2026-08-28T17:54:37Z</time>
  <course>247.35</course>
  <speed>0.044721359549995794</speed>
  <fix>3d</fix>
</trkpt>
<trkpt lat="40.0712324" lon="-105.2301885">
  <ele>1583.91</ele>
  <time>2026-08-28T17:54:37Z</time>
  <course>247.35</course>
  <speed>0.044721359549995794</speed>
  <fix>3d</fix>
</trkpt>
<trkpt lat="40.0712324" lon="-105.2301885">
  <ele>1583.91</ele>
  <time>2026-08-28T17:54:37Z</time>
  <course>247.35</course>
  <speed>0.03605551275463989</speed>
  <fix>3d</fix>
</trkpt>
<trkpt lat="40.0712324" lon="-105.2301885">
  <ele>1583.91</ele>
  <time>2026-08-28T17:54:37Z</time>
  <course>247.35</course>
  <speed>0.03605551275463989</speed>
  <fix>3d</fix>
</trkpt>
<trkpt lat="40.0712324" lon="-105.2301884">
  <ele>1583.91</ele>
  <time>2026-08-28T17:54:37Z</time>
  <course>247.35</course>
  <speed>0.03605551275463989</speed>
  <fix>3d</fix>
</trkpt>
<trkpt lat="40.0712324" lon="-105.2301884">
  <ele>1583.91</ele>
  <time>2026-08-28T17:54:37Z</time>
  <course>247.35</course>
  <speed>0.03605551275463989</speed>
  <fix>3d</fix>
</trkpt>
<trkpt lat="40.0712324" lon="-105.2301884">
  <ele>1583.91</ele>
  <time>2026-08-28T17:54:37Z</time>
  <course>247.35</course>
  <speed>0.0282842712474619</speed>
  <fix>3d</fix>
</trkpt>
<trkpt lat="40.0712325" lon="-105.2301884">
  <ele>1583.91</ele>
  <time>2026-08-28T17:54:37Z</time>
  <course>247.35</course>
  <speed>0.0282842712474619</speed>
  <fix>3d</fix>
</trkpt>
<trkpt lat="40.0712325" lon="-105.2301884">
  <ele>1583.91</ele>
  <time>2026-08-28T17:54:37Z</time>
  <course>247.34</course>
  <speed>0.0282842712474619</speed>
  <fix>3d</fix>
</trkpt>
<trkpt lat="40.0712325" lon="-105.2301884">
  <ele>1583.91</ele>
  <time>2026-08-28T17:54:37Z</time>
  <course>247.34</course>
  <speed>0.03605551275463989</speed>
  <fix>3d</fix>
</trkpt>
<trkpt lat="40.0712325" lon="-105.2301884">
  <ele>1583.91</ele>
  <time>2026-08-28T17:54:37Z</time>
  <course>247.34</course>
  <speed>0.0316227766016838</speed>
  <fix>3d</fix>
</trkpt>
<trkpt lat="40.0712325" lon="-105.2301884">
  <ele>1583.91</ele>
  <time>2026-08-28T17:54:37Z</time>
  <course>247.34</course>
  <speed>0.0316227766016838</speed>
  <fix>3d</fix>
</trkpt>
<trkpt lat="40.0712325" lon="-105.2301884">
  <ele>1583.91</ele>
  <time>2026-08-28T17:54:37Z</time>
  <course>247.34</course>
  <speed>0.0316227766016838</speed>
  <fix>3d</fix>
</trkpt>
<trkpt lat="40.0712326" lon="-105.2301884">
  <ele>1583.91</ele>
  <time>2026-08-28T17:54:37Z</time>
  <course>247.34</course>
  <speed>0.0316227766016838</speed>
  <fix>3d</fix>
</trkpt>
<trkpt lat="40.0712326" lon="-105.2301884">
  <ele>1583.91</ele>
  <time>2026-08-28T17:54:37Z</time>
  <course>247.34</course>
  <speed>0.03</speed>
  <fix>3d</fix>
</trkpt>
<trkpt lat="40.0712326" lon="-105.2301884">
  <ele>1583.91</ele>
  <time>2026-08-28T17:54:37Z</time>
  <course>247.34</course>
  <speed>0.03</speed>
  <fix>3d</fix>
</trkpt>
<trkpt lat="40.0712326" lon="-105.2301884">
  <ele>1583.91</ele>
  <time>2026-08-28T17:54:37Z</time>
  <course>247.34</course>
  <speed>0.03</speed>
  <fix>3d</fix>
</trkpt>
<trkpt lat="40.0712327" lon="-105.2301884">
  <ele>1583.91</ele>
  <time>2026-08-28T17:54:37Z</time>
  <course>247.34</course>
  <speed>0.03</speed>
  <fix>3d</fix>
</trkpt>
<trkpt lat="40.0712327" lon="-105.2301884">
  <ele>1583.91</ele>
  <time>2026-08-28T17:54:37Z</time>
  <course>247.34</course>
  <speed>0.03</speed>
  <fix>3d</fix>
</trkpt>
<trkpt lat="40.0712327" lon="-105.2301884">
  <ele>1583.9</ele>
  <time>2026-08-28T17:54:37Z</time>
  <course>247.34</course>
  <speed>0.03</speed>
  <fix>3d</fix>
</trkpt>
<trkpt lat="40.0712327" lon="-105.2301884">
  <ele>1583.9</ele>
  <time>2026-08-28T17:54:37Z</time>
  <course>247.34</course>
  <speed>0.03</speed>
  <fix>3d</fix>
</trkpt>
<trkpt lat="40.0712328" lon="-105.2301884">
  <ele>1583.9</ele>
  <time>2026-08-28T17:54:37Z</time>
  <course>247.34</course>
  <speed>0.03</speed>
  <fix>3d</fix>
</trkpt>
<trkpt lat="40.0712328" lon="-105.2301884">
  <ele>1583.9</ele>
  <time>2026-08-28T17:54:37Z</time>
  <course>247.33</course>
  <speed>0.0316227766016838</speed>
  <fix>3d</fix>
</trkpt>
<trkpt lat="40.0712328" lon="-105.2301884">
  <ele>1583.9</ele>
  <time>2026-08-28T17:54:37Z</time>
  <course>247.33</course>
  <speed>0.0316227766016838</speed>
  <fix>3d</fix>
</trkpt>
<trkpt lat="40.0712328" lon="-105.2301884">
  <ele>1583.9</ele>
  <time>2026-08-28T17:54:37Z</time>
  <course>247.33</course>
  <speed>0.0316227766016838</speed>
  <fix>3d</fix>
</trkpt>
<trkpt lat="40.0712329" lon="-105.2301884">
  <ele>1583.89</ele>
  <time>2026-08-28T17:54:37Z</time>
  <course>247.33</course>
  <speed>0.0316227766016838</speed>
  <fix>3d</fix>
</trkpt>
<trkpt lat="40.0712329" lon="-105.2301884">
  <ele>1583.89</ele>
  <time>2026-08-28T17:54:37Z</time>
  <course>247.33</course>
  <speed>0.03605551275463989</speed>
  <fix>3d</fix>
</trkpt>
<trkpt lat="40.0712329" lon="-105.2301884">
  <ele>1583.89</ele>
  <time>2026-08-28T17:54:37Z</time>
  <course>247.33</course>
  <speed>0.03605551275463989</speed>
  <fix>3d</fix>
</trkpt>
<trkpt lat="40.071233" lon="-105.2301884">
  <ele>1583.89</ele>
  <time>2026-08-28T17:54:37Z</time>
  <course>247.33</course>
  <speed>0.03605551275463989</speed>
  <fix>3d</fix>
</trkpt>
<trkpt lat="40.071233" lon="-105.2301884">
  <ele>1583.89</ele>
  <time>2026-08-28T17:54:37Z</time>
  <course>247.33</course>
  <speed>0.03605551275463989</speed>
  <fix>3d</fix>
</trkpt>
<trkpt lat="40.071233" lon="-105.2301884">
  <ele>1583.88</ele>
  <time>2026-08-28T17:54:37Z</time>
  <course>247.33</course>
  <speed>0.03605551275463989</speed>
  <fix>3d</fix>
</trkpt>
<trkpt lat="40.0712331" lon="-105.2301884">
  <ele>1583.88</ele>
  <time>2026-08-28T17:54:37Z</time>
  <course>247.33</course>
  <speed>0.04242640687119285</speed>
  <fix>3d</fix>
</trkpt>
<trkpt lat="40.0712331" lon="-105.2301884">
  <ele>1583.88</ele>
  <time>2026-08-28T17:54:37Z</time>
  <course>247.32</course>
  <speed>0.04242640687119285</speed>
  <fix>3d</fix>
</trkpt>
<trkpt lat="40.0712331" lon="-105.2301884">
  <ele>1583.88</ele>
  <time>2026-08-28T17:54:37Z</time>
  <course>247.32</course>
  <speed>0.04242640687119285</speed>
  <fix>3d</fix>
</trkpt>
<trkpt lat="40.0712332" lon="-105.2301884">
  <ele>1583.88</ele>
  <time>2026-08-28T17:54:37Z</time>
  <course>247.32</course>
  <speed>0.04242640687119285</speed>
  <fix>3d</fix>
</trkpt>
<trkpt lat="40.0712332" lon="-105.2301884">
  <ele>1583.87</ele>
  <time>2026-08-28T17:54:37Z</time>
  <course>247.32</course>
  <speed>0.04242640687119285</speed>
  <fix>3d</fix>
</trkpt>
<trkpt lat="40.0712333" lon="-105.2301884">
  <ele>1583.87</ele>
  <time>2026-08-28T17:54:37Z</time>
  <course>247.32</course>
  <speed>0.05</speed>
  <fix>3d</fix>
</trkpt>
<trkpt lat="40.0712333" lon="-105.2301884">
  <ele>1583.87</ele>
  <time>2026-08-28T17:54:37Z</time>
  <course>247.32</course>
  <speed>0.05</speed>
  <fix>3d</fix>
</trkpt>
<trkpt lat="40.0712333" lon="-105.2301884">
  <ele>1583.87</ele>
  <time>2026-08-28T17:54:37Z</time>
  <course>247.32</course>
  <speed>0.05</speed>
  <fix>3d</fix>
</trkpt>
<trkpt lat="40.0712334" lon="-105.2301884">
  <ele>1583.86</ele>
  <time>2026-08-28T17:54:37Z</time>
  <course>247.32</course>
  <speed>0.05</speed>
  <fix>3d</fix>
</trkpt>
<trkpt lat="40.0712334" lon="-105.2301884">
  <ele>1583.86</ele>
  <time>2026-08-28T17:54:37Z</time>
  <course>247.32</course>
  <speed>0.05</speed>
  <fix>3d</fix>
</trkpt>
<trkpt lat="40.0712334" lon="-105.2301884">
  <ele>1583.85</ele>
  <time>2026-08-28T17:54:37Z</time>
  <course>247.31</course>
  <speed>0.05830951894845301</speed>
  <fix>3d</fix>
</trkpt>
<trkpt lat="40.0712335" lon="-105.2301884">
  <ele>1583.85</ele>
  <time>2026-08-28T17:54:37Z</time>
  <course>247.31</course>
  <speed>0.05830951894845301</speed>
  <fix>3d</fix>
</trkpt>
<trkpt lat="40.0712335" lon="-105.2301884">
  <ele>1583.84</ele>
  <time>2026-08-28T17:54:37Z</time>
  <course>247.31</course>
  <speed>0.05830951894845301</speed>
  <fix>3d</fix>
</trkpt>
<trkpt lat="40.0712336" lon="-105.2301884">
  <ele>1583.84</ele>
  <time>2026-08-28T17:54:37Z</time>
  <course>247.31</course>
  <speed>0.05830951894845301</speed>
  <fix>3d</fix>
</trkpt>
<trkpt lat="40.0712336" lon="-105.2301884">
  <ele>1583.84</ele>
  <time>2026-08-28T17:54:37Z</time>
  <course>247.31</course>
  <speed>0.05830951894845301</speed>
  <fix>3d</fix>
</trkpt>
<trkpt lat="40.0712337" lon="-105.2301884">
  <ele>1583.84</ele>
  <time>2026-08-28T17:54:37Z</time>
  <course>247.31</course>
  <speed>0.0632455532033676</speed>
  <fix>3d</fix>
</trkpt>
<trkpt lat="40.0712337" lon="-105.2301884">
  <ele>1583.84</ele>
  <time>2026-08-28T17:54:37Z</time>
  <course>247.31</course>
  <speed>0.0632455532033676</speed>
  <fix>3d</fix>
</trkpt>
<trkpt lat="40.0712337" lon="-105.2301884">
  <ele>1583.84</ele>
  <time>2026-08-28T17:54:37Z</time>
  <course>247.3</course>
  <speed>0.0632455532033676</speed>
  <fix>3d</fix>
</trkpt>
<trkpt lat="40.0712338" lon="-105.2301884">
  <ele>1583.84</ele>
  <time>2026-08-28T17:54:37Z</time>
  <course>247.3</course>
  <speed>0.0632455532033676</speed>
  <fix>3d</fix>
</trkpt>
<trkpt lat="40.0712338" lon="-105.2301884">
  <ele>1583.84</ele>
  <time>2026-08-28T17:54:37Z</time>
  <course>247.3</course>
  <speed>0.0632455532033676</speed>
  <fix>3d</fix>
</trkpt>
<trkpt lat="40.0712338" lon="-105.2301884">
  <ele>1583.84</ele>
  <time>2026-08-28T17:54:37Z</time>
  <course>247.3</course>
  <speed>0.0632455532033676</speed>
  <fix>3d</fix>
</trkpt>
<trkpt lat="40.0712339" lon="-105.2301884">
  <ele>1583.83</ele>
  <time>2026-08-28T17:54:37Z</time>
  <course>247.3</course>
  <speed>0.07280109889280519</speed>
  <fix>3d</fix>
</trkpt>
<trkpt lat="40.0712339" lon="-105.2301883">
  <ele>1583.83</ele>
  <time>2026-08-28T17:54:37Z</time>
  <course>247.3</course>
  <speed>0.07280109889280519</speed>
  <fix>3d</fix>
</trkpt>
<trkpt lat="40.0712339" lon="-105.2301883">
  <ele>1583.83</ele>
  <time>2026-08-28T17:54:37Z</time>
  <course>247.3</course>
  <speed>0.07280109889280519</speed>
  <fix>3d</fix>
</trkpt>
<trkpt lat="40.0712339" lon="-105.2301883">
  <ele>1583.83</ele>
  <time>2026-08-28T17:54:37Z</time>
  <course>247.3</course>
  <speed>0.07280109889280519</speed>
  <fix>3d</fix>
</trkpt>
<trkpt lat="40.071234" lon="-105.2301883">
  <ele>1583.83</ele>
  <time>2026-08-28T17:54:37Z</time>
  <course>247.29</course>
  <speed>0.07280109889280519</speed>
  <fix>3d</fix>
</trkpt>
<trkpt lat="40.071234" lon="-105.2301883">
  <ele>1583.82</ele>
  <time>2026-08-28T17:54:37Z</time>
  <course>247.29</course>
  <speed>0.07280109889280519</speed>
  <fix>3d</fix>
</trkpt>
<trkpt lat="40.071234" lon="-105.2301883">
  <ele>1583.82</ele>
  <time>2026-08-28T17:54:38Z</time>
  <course>247.29</course>
  <speed>0.07280109889280519</speed>
  <fix>3d</fix>
</trkpt>
<trkpt lat="40.0712341" lon="-105.2301883">
  <ele>1583.82</ele>
  <time>2026-08-28T17:54:38Z</time>
  <course>247.29</course>
  <speed>0.07280109889280519</speed>
  <fix>3d</fix>
</trkpt>
<trkpt lat="40.0712341" lon="-105.2301883">
  <ele>1583.82</ele>
  <time>2026-08-28T17:54:38Z</time>
  <course>247.29</course>
  <speed>0.07280109889280519</speed>
  <fix>3d</fix>
</trkpt>
<trkpt lat="40.0712342" lon="-105.2301883">
  <ele>1583.82</ele>
  <time>2026-08-28T17:54:38Z</time>
  <course>247.29</course>
  <speed>0.07280109889280519</speed>
  <fix>3d</fix>
</trkpt>
<trkpt lat="40.0712342" lon="-105.2301883">
  <ele>1583.82</ele>
  <time>2026-08-28T17:54:38Z</time>
  <course>247.28</course>
  <speed>0.0824621125123532</speed>
  <fix>3d</fix>
</trkpt>
<trkpt lat="40.0712342" lon="-105.2301883">
  <ele>1583.82</ele>
  <time>2026-08-28T17:54:38Z</time>
  <course>247.28</course>
  <speed>0.0824621125123532</speed>
  <fix>3d</fix>
</trkpt>
<trkpt lat="40.0712343" lon="-105.2301882">
  <ele>1583.81</ele>
  <time>2026-08-28T17:54:38Z</time>
  <course>247.28</course>
  <speed>0.0824621125123532</speed>
  <fix>3d</fix>
</trkpt>
<trkpt lat="40.0712343" lon="-105.2301882">
  <ele>1583.81</ele>
  <time>2026-08-28T17:54:38Z</time>
  <course>247.28</course>
  <speed>0.0824621125123532</speed>
  <fix>3d</fix>
</trkpt>
<trkpt lat="40.0712343" lon="-105.2301882">
  <ele>1583.8</ele>
  <time>2026-08-28T17:54:38Z</time>
  <course>247.28</course>
  <speed>0.0824621125123532</speed>
  <fix>3d</fix>
</trkpt>
<trkpt lat="40.0712343" lon="-105.2301882">
  <ele>1583.79</ele>
  <time>2026-08-28T17:54:38Z</time>
  <course>247.28</course>
  <speed>0.08062257748298549</speed>
  <fix>3d</fix>
</trkpt>
<trkpt lat="40.0712344" lon="-105.2301882">
  <ele>1583.79</ele>
  <time>2026-08-28T17:54:38Z</time>
  <course>247.27</course>
  <speed>0.08062257748298549</speed>
  <fix>3d</fix>
</trkpt>
<trkpt lat="40.0712344" lon="-105.2301882">
  <ele>1583.78</ele>
  <time>2026-08-28T17:54:38Z</time>
  <course>247.27</course>
  <speed>0.08062257748298549</speed>
  <fix>3d</fix>
</trkpt>
<trkpt lat="40.0712344" lon="-105.2301882">
  <ele>1583.78</ele>
  <time>2026-08-28T17:54:38Z</time>
  <course>247.27</course>
  <speed>0.08062257748298549</speed>
  <fix>3d</fix>
</trkpt>
<trkpt lat="40.0712345" lon="-105.2301882">
  <ele>1583.77</ele>
  <time>2026-08-28T17:54:38Z</time>
  <course>247.27</course>
  <speed>0.08062257748298549</speed>
  <fix>3d</fix>
</trkpt>
<trkpt lat="40.0712345" lon="-105.2301882">
  <ele>1583.77</ele>
  <time>2026-08-28T17:54:38Z</time>
  <course>247.27</course>
  <speed>0.08062257748298549</speed>
  <fix>3d</fix>
</trkpt>
<trkpt lat="40.0712345" lon="-105.2301883">
  <ele>1583.76</ele>
  <time>2026-08-28T17:54:38Z</time>
  <course>247.27</course>
  <speed>0.08062257748298549</speed>
  <fix>3d</fix>
</trkpt>
<trkpt lat="40.0712345" lon="-105.2301882">
  <ele>1583.75</ele>
  <time>2026-08-28T17:54:38Z</time>
  <course>247.26</course>
  <speed>0.08062257748298549</speed>
  <fix>3d</fix>
</trkpt>
<trkpt lat="40.0712345" lon="-105.2301882">
  <ele>1583.74</ele>
  <time>2026-08-28T17:54:38Z</time>
  <course>247.26</course>
  <speed>0.08</speed>
  <fix>3d</fix>
</trkpt>
<trkpt lat="40.0712345" lon="-105.2301882">
  <ele>1583.73</ele>
  <time>2026-08-28T17:54:38Z</time>
  <course>247.26</course>
  <speed>0.07</speed>
  <fix>3d</fix>
</trkpt>
<trkpt lat="40.0712346" lon="-105.2301882">
  <ele>1583.72</ele>
  <time>2026-08-28T17:54:38Z</time>
  <course>247.26</course>
  <speed>0.07</speed>
  <fix>3d</fix>
</trkpt>
<trkpt lat="40.0712346" lon="-105.2301883">
  <ele>1583.71</ele>
  <time>2026-08-28T17:54:38Z</time>
  <course>247.26</course>
  <speed>0.07</speed>
  <fix>3d</fix>
</trkpt>
<trkpt lat="40.0712346" lon="-105.2301883">
  <ele>1583.71</ele>
  <time>2026-08-28T17:54:38Z</time>
  <course>247.26</course>
  <speed>0.07</speed>
  <fix>3d</fix>
</trkpt>
<trkpt lat="40.0712346" lon="-105.2301883">
  <ele>1583.7</ele>
  <time>2026-08-28T17:54:38Z</time>
  <course>247.25</course>
  <speed>0.07</speed>
  <fix>3d</fix>
</trkpt>
<trkpt lat="40.0712346" lon="-105.2301883">
  <ele>1583.69</ele>
  <time>2026-08-28T17:54:38Z</time>
  <course>247.25</course>
  <speed>0.07</speed>
  <fix>3d</fix>
</trkpt>
<trkpt lat="40.0712347" lon="-105.2301883">
  <ele>1583.68</ele>
  <time>2026-08-28T17:54:38Z</time>
  <course>247.25</course>
  <speed>0.07</speed>
  <fix>3d</fix>
</trkpt>
<trkpt lat="40.0712347" lon="-105.2301883">
  <ele>1583.67</ele>
  <time>2026-08-28T17:54:38Z</time>
  <course>247.25</course>
  <speed>0.07</speed>
  <fix>3d</fix>
</trkpt>
<trkpt lat="40.0712347" lon="-105.2301883">
  <ele>1583.67</ele>
  <time>2026-08-28T17:54:38Z</time>
  <course>247.25</course>
  <speed>0.07</speed>
  <fix>3d</fix>
</trkpt>
<trkpt lat="40.0712347" lon="-105.2301883">
  <ele>1583.66</ele>
  <time>2026-08-28T17:54:38Z</time>
  <course>247.24</course>
  <speed>0.07</speed>
  <fix>3d</fix>
</trkpt>
<trkpt lat="40.0712347" lon="-105.2301883">
  <ele>1583.65</ele>
  <time>2026-08-28T17:54:38Z</time>
  <course>247.24</course>
  <speed>0.07</speed>
  <fix>3d</fix>
</trkpt>
<trkpt lat="40.0712347" lon="-105.2301883">
  <ele>1583.64</ele>
  <time>2026-08-28T17:54:38Z</time>
  <course>247.24</course>
  <speed>0.07</speed>
  <fix>3d</fix>
</trkpt>
<trkpt lat="40.0712347" lon="-105.2301883">
  <ele>1583.63</ele>
  <time>2026-08-28T17:54:38Z</time>
  <course>247.24</course>
  <speed>0.07</speed>
  <fix>3d</fix>
</trkpt>
<trkpt lat="40.0712347" lon="-105.2301883">
  <ele>1583.63</ele>
  <time>2026-08-28T17:54:38Z</time>
  <course>247.24</course>
  <speed>0.06</speed>
  <fix>3d</fix>
</trkpt>
<trkpt lat="40.0712347" lon="-105.2301884">
  <ele>1583.62</ele>
  <time>2026-08-28T17:54:38Z</time>
  <course>247.23</course>
  <speed>0.06</speed>
  <fix>3d</fix>
</trkpt>
<trkpt lat="40.0712347" lon="-105.2301884">
  <ele>1583.61</ele>
  <time>2026-08-28T17:54:38Z</time>
  <course>247.23</course>
  <speed>0.06082762530298219</speed>
  <fix>3d</fix>
</trkpt>
<trkpt lat="40.0712347" lon="-105.2301884">
  <ele>1583.61</ele>
  <time>2026-08-28T17:54:38Z</time>
  <course>247.23</course>
  <speed>0.06082762530298219</speed>
  <fix>3d</fix>
</trkpt>
<trkpt lat="40.0712348" lon="-105.2301884">
  <ele>1583.6</ele>
  <time>2026-08-28T17:54:38Z</time>
  <course>247.23</course>
  <speed>0.06082762530298219</speed>
  <fix>3d</fix>
</trkpt>
<trkpt lat="40.0712348" lon="-105.2301884">
  <ele>1583.6</ele>
  <time>2026-08-28T17:54:38Z</time>
  <course>247.22</course>
  <speed>0.06082762530298219</speed>
  <fix>3d</fix>
</trkpt>
<trkpt lat="40.0712347" lon="-105.2301884">
  <ele>1583.6</ele>
  <time>2026-08-28T17:54:38Z</time>
  <course>247.22</course>
  <speed>0.06082762530298219</speed>
  <fix>3d</fix>
</trkpt>
<trkpt lat="40.0712347" lon="-105.2301884">
  <ele>1583.6</ele>
  <time>2026-08-28T17:54:38Z</time>
  <course>247.22</course>
  <speed>0.06082762530298219</speed>
  <fix>3d</fix>
</trkpt>
<trkpt lat="40.0712347" lon="-105.2301884">
  <ele>1583.6</ele>
  <time>2026-08-28T17:54:38Z</time>
  <course>247.22</course>
  <speed>0.06082762530298219</speed>
  <fix>3d</fix>
</trkpt>
<trkpt lat="40.0712347" lon="-105.2301884">
  <ele>1583.6</ele>
  <time>2026-08-28T17:54:38Z</time>
  <course>247.22</course>
  <speed>0.06082762530298219</speed>
  <fix>3d</fix>
</trkpt>
<trkpt lat="40.0712347" lon="-105.2301884">
  <ele>1583.6</ele>
  <time>2026-08-28T17:54:38Z</time>
  <course>247.21</course>
  <speed>0.05099019513592785</speed>
  <fix>3d</fix>
</trkpt>
<trkpt lat="40.0712347" lon="-105.2301884">
  <ele>1583.6</ele>
  <time>2026-08-28T17:54:38Z</time>
  <course>247.21</course>
  <speed>0.05099019513592785</speed>
  <fix>3d</fix>
</trkpt>
<trkpt lat="40.0712347" lon="-105.2301884">
  <ele>1583.6</ele>
  <time>2026-08-28T17:54:38Z</time>
  <course>247.21</course>
  <speed>0.05099019513592785</speed>
  <fix>3d</fix>
</trkpt>
<trkpt lat="40.0712347" lon="-105.2301884">
  <ele>1583.6</ele>
  <time>2026-08-28T17:54:38Z</time>
  <course>247.21</course>
  <speed>0.05099019513592785</speed>
  <fix>3d</fix>
</trkpt>
<trkpt lat="40.0712347" lon="-105.2301884">
  <ele>1583.6</ele>
  <time>2026-08-28T17:54:38Z</time>
  <course>247.21</course>
  <speed>0.05099019513592785</speed>
  <fix>3d</fix>
</trkpt>
<trkpt lat="40.0712348" lon="-105.2301884">
  <ele>1583.6</ele>
  <time>2026-08-28T17:54:38Z</time>
  <course>247.2</course>
  <speed>0.05099019513592785</speed>
  <fix>3d</fix>
</trkpt>
<trkpt lat="40.0712347" lon="-105.2301884">
  <ele>1583.6</ele>
  <time>2026-08-28T17:54:38Z</time>
  <course>247.2</course>
  <speed>0.05099019513592785</speed>
  <fix>3d</fix>
</trkpt>
<trkpt lat="40.0712347" lon="-105.2301884">
  <ele>1583.61</ele>
  <time>2026-08-28T17:54:38Z</time>
  <course>247.2</course>
  <speed>0.05099019513592785</speed>
  <fix>3d</fix>
</trkpt>
<trkpt lat="40.0712347" lon="-105.2301884">
  <ele>1583.61</ele>
  <time>2026-08-28T17:54:38Z</time>
  <course>247.2</course>
  <speed>0.05099019513592785</speed>
  <fix>3d</fix>
</trkpt>
<trkpt lat="40.0712347" lon="-105.2301884">
  <ele>1583.62</ele>
  <time>2026-08-28T17:54:38Z</time>
  <course>247.2</course>
  <speed>0.05099019513592785</speed>
  <fix>3d</fix>
</trkpt>
<trkpt lat="40.0712347" lon="-105.2301884">
  <ele>1583.63</ele>
  <time>2026-08-28T17:54:38Z</time>
  <course>247.19</course>
  <speed>0.05099019513592785</speed>
  <fix>3d</fix>
</trkpt>
<trkpt lat="40.0712347" lon="-105.2301884">
  <ele>1583.63</ele>
  <time>2026-08-28T17:54:38Z</time>
  <course>247.19</course>
  <speed>0.05099019513592785</speed>
  <fix>3d</fix>
</trkpt>
<trkpt lat="40.0712347" lon="-105.2301884">
  <ele>1583.63</ele>
  <time>2026-08-28T17:54:38Z</time>
  <course>247.19</course>
  <speed>0.05099019513592785</speed>
  <fix>3d</fix>
</trkpt>
<trkpt lat="40.0712347" lon="-105.2301884">
  <ele>1583.64</ele>
  <time>2026-08-28T17:54:38Z</time>
  <course>247.19</course>
  <speed>0.05099019513592785</speed>
  <fix>3d</fix>
</trkpt>
<trkpt lat="40.0712347" lon="-105.2301884">
  <ele>1583.64</ele>
  <time>2026-08-28T17:54:38Z</time>
  <course>247.19</course>
  <speed>0.05099019513592785</speed>
  <fix>3d</fix>
</trkpt>
<trkpt lat="40.0712347" lon="-105.2301884">
  <ele>1583.65</ele>
  <time>2026-08-28T17:54:38Z</time>
  <course>247.18</course>
  <speed>0.05099019513592785</speed>
  <fix>3d</fix>
</trkpt>
<trkpt lat="40.0712347" lon="-105.2301884">
  <ele>1583.65</ele>
  <time>2026-08-28T17:54:38Z</time>
  <course>247.18</course>
  <speed>0.05099019513592785</speed>
  <fix>3d</fix>
</trkpt>
<trkpt lat="40.0712347" lon="-105.2301883">
  <ele>1583.65</ele>
  <time>2026-08-28T17:54:38Z</time>
  <course>247.18</course>
  <speed>0.0412310562561766</speed>
  <fix>3d</fix>
</trkpt>
<trkpt lat="40.0712347" lon="-105.2301883">
  <ele>1583.65</ele>
  <time>2026-08-28T17:54:38Z</time>
  <course>247.18</course>
  <speed>0.0412310562561766</speed>
  <fix>3d</fix>
</trkpt>
<trkpt lat="40.0712347" lon="-105.2301883">
  <ele>1583.65</ele>
  <time>2026-08-28T17:54:38Z</time>
  <course>247.18</course>
  <speed>0.0412310562561766</speed>
  <fix>3d</fix>
</trkpt>
<trkpt lat="40.0712347" lon="-105.2301883">
  <ele>1583.65</ele>
  <time>2026-08-28T17:54:38Z</time>
  <course>247.18</course>
  <speed>0.0412310562561766</speed>
  <fix>3d</fix>
</trkpt>
<trkpt lat="40.0712346" lon="-105.2301883">
  <ele>1583.65</ele>
  <time>2026-08-28T17:54:38Z</time>
  <course>247.17</course>
  <speed>0.04</speed>
  <fix>3d</fix>
</trkpt>
<trkpt lat="40.0712346" lon="-105.2301883">
  <ele>1583.65</ele>
  <time>2026-08-28T17:54:38Z</time>
  <course>247.17</course>
  <speed>0.04</speed>
  <fix>3d</fix>
</trkpt>
<trkpt lat="40.0712346" lon="-105.2301883">
  <ele>1583.65</ele>
  <time>2026-08-28T17:54:38Z</time>
  <course>247.17</course>
  <speed>0.04</speed>
  <fix>3d</fix>
</trkpt>
<trkpt lat="40.0712346" lon="-105.2301883">
  <ele>1583.65</ele>
  <time>2026-08-28T17:54:38Z</time>
  <course>247.17</course>
  <speed>0.04</speed>
  <fix>3d</fix>
</trkpt>
<trkpt lat="40.0712347" lon="-105.2301883">
  <ele>1583.65</ele>
  <time>2026-08-28T17:54:38Z</time>
  <course>247.17</course>
  <speed>0.04</speed>
  <fix>3d</fix>
</trkpt>
<trkpt lat="40.0712347" lon="-105.2301883">
  <ele>1583.65</ele>
  <time>2026-08-28T17:54:38Z</time>
  <course>247.16</course>
  <speed>0.04</speed>
  <fix>3d</fix>
</trkpt>
<trkpt lat="40.0712347" lon="-105.2301883">
  <ele>1583.66</ele>
  <time>2026-08-28T17:54:38Z</time>
  <course>247.16</course>
  <speed>0.04</speed>
  <fix>3d</fix>
</trkpt>
<trkpt lat="40.0712346" lon="-105.2301883">
  <ele>1583.66</ele>
  <time>2026-08-28T17:54:38Z</time>
  <course>247.16</course>
  <speed>0.04</speed>
  <fix>3d</fix>
</trkpt>
<trkpt lat="40.0712346" lon="-105.2301883">
  <ele>1583.67</ele>
  <time>2026-08-28T17:54:38Z</time>
  <course>247.16</course>
  <speed>0.04</speed>
  <fix>3d</fix>
</trkpt>
<trkpt lat="40.0712346" lon="-105.2301883">
  <ele>1583.68</ele>
  <time>2026-08-28T17:54:38Z</time>
  <course>247.16</course>
  <speed>0.04</speed>
  <fix>3d</fix>
</trkpt>
<trkpt lat="40.0712346" lon="-105.2301883">
  <ele>1583.69</ele>
  <time>2026-08-28T17:54:38Z</time>
  <course>247.16</course>
  <speed>0.04</speed>
  <fix>3d</fix>
</trkpt>
<trkpt lat="40.0712346" lon="-105.2301883">
  <ele>1583.7</ele>
  <time>2026-08-28T17:54:38Z</time>
  <course>247.15</course>
  <speed>0.04</speed>
  <fix>3d</fix>
</trkpt>
<trkpt lat="40.0712346" lon="-105.2301883">
  <ele>1583.71</ele>
  <time>2026-08-28T17:54:38Z</time>
  <course>247.15</course>
  <speed>0.04</speed>
  <fix>3d</fix>
</trkpt>
<trkpt lat="40.0712346" lon="-105.2301883">
  <ele>1583.71</ele>
  <time>2026-08-28T17:54:38Z</time>
  <course>247.15</course>
  <speed>0.04</speed>
  <fix>3d</fix>
</trkpt>
<trkpt lat="40.0712346" lon="-105.2301883">
  <ele>1583.71</ele>
  <time>2026-08-28T17:54:38Z</time>
  <course>247.15</course>
  <speed>0.04</speed>
  <fix>3d</fix>
</trkpt>
<trkpt lat="40.0712346" lon="-105.2301883">
  <ele>1583.71</ele>
  <time>2026-08-28T17:54:38Z</time>
  <course>247.15</course>
  <speed>0.04</speed>
  <fix>3d</fix>
</trkpt>
<trkpt lat="40.0712346" lon="-105.2301883">
  <ele>1583.71</ele>
  <time>2026-08-28T17:54:38Z</time>
  <course>247.15</course>
  <speed>0.04</speed>
  <fix>3d</fix>
</trkpt>
<trkpt lat="40.0712346" lon="-105.2301883">
  <ele>1583.71</ele>
  <time>2026-08-28T17:54:38Z</time>
  <course>247.14</course>
  <speed>0.04</speed>
  <fix>3d</fix>
</trkpt>
<trkpt lat="40.0712346" lon="-105.2301882">
  <ele>1583.71</ele>
  <time>2026-08-28T17:54:38Z</time>
  <course>247.14</course>
  <speed>0.04</speed>
  <fix>3d</fix>
</trkpt>
<trkpt lat="40.0712346" lon="-105.2301882">
  <ele>1583.71</ele>
  <time>2026-08-28T17:54:38Z</time>
  <course>247.14</course>
  <speed>0.04</speed>
  <fix>3d</fix>
</trkpt>
<trkpt lat="40.0712346" lon="-105.2301882">
  <ele>1583.71</ele>
  <time>2026-08-28T17:54:38Z</time>
  <course>247.14</course>
  <speed>0.04</speed>
  <fix>3d</fix>
</trkpt>
<trkpt lat="40.0712346" lon="-105.2301882">
  <ele>1583.71</ele>
  <time>2026-08-28T17:54:38Z</time>
  <course>247.14</course>
  <speed>0.04</speed>
  <fix>3d</fix>
</trkpt>
<trkpt lat="40.0712346" lon="-105.2301882">
  <ele>1583.72</ele>
  <time>2026-08-28T17:54:38Z</time>
  <course>247.14</course>
  <speed>0.04</speed>
  <fix>3d</fix>
</trkpt>
<trkpt lat="40.0712346" lon="-105.2301882">
  <ele>1583.71</ele>
  <time>2026-08-28T17:54:38Z</time>
  <course>247.13</course>
  <speed>0.04</speed>
  <fix>3d</fix>
</trkpt>
<trkpt lat="40.0712346" lon="-105.2301882">
  <ele>1583.71</ele>
  <time>2026-08-28T17:54:38Z</time>
  <course>247.13</course>
  <speed>0.04</speed>
  <fix>3d</fix>
</trkpt>
<trkpt lat="40.0712346" lon="-105.2301882">
  <ele>1583.71</ele>
  <time>2026-08-28T17:54:38Z</time>
  <course>247.13</course>
  <speed>0.04</speed>
  <fix>3d</fix>
</trkpt>
<trkpt lat="40.0712346" lon="-105.2301882">
  <ele>1583.71</ele>
  <time>2026-08-28T17:54:38Z</time>
  <course>247.13</course>
  <speed>0.04</speed>
  <fix>3d</fix>
</trkpt>
<trkpt lat="40.0712346" lon="-105.2301882">
  <ele>1583.7</ele>
  <time>2026-08-28T17:54:38Z</time>
  <course>247.13</course>
  <speed>0.04</speed>
  <fix>3d</fix>
</trkpt>
<trkpt lat="40.0712346" lon="-105.2301882">
  <ele>1583.7</ele>
  <time>2026-08-28T17:54:38Z</time>
  <course>247.13</course>
  <speed>0.04</speed>
  <fix>3d</fix>
</trkpt>
<trkpt lat="40.0712346" lon="-105.2301882">
  <ele>1583.69</ele>
  <time>2026-08-28T17:54:38Z</time>
  <course>247.13</course>
  <speed>0.04</speed>
  <fix>3d</fix>
</trkpt>
<trkpt lat="40.0712346" lon="-105.2301882">
  <ele>1583.69</ele>
  <time>2026-08-28T17:54:38Z</time>
  <course>247.12</course>
  <speed>0.04</speed>
  <fix>3d</fix>
</trkpt>
<trkpt lat="40.0712346" lon="-105.2301882">
  <ele>1583.69</ele>
  <time>2026-08-28T17:54:38Z</time>
  <course>247.12</course>
  <speed>0.04</speed>
  <fix>3d</fix>
</trkpt>
<trkpt lat="40.0712346" lon="-105.2301882">
  <ele>1583.69</ele>
  <time>2026-08-28T17:54:38Z</time>
  <course>247.12</course>
  <speed>0.04</speed>
  <fix>3d</fix>
</trkpt>
<trkpt lat="40.0712346" lon="-105.2301882">
  <ele>1583.69</ele>
  <time>2026-08-28T17:54:38Z</time>
  <course>247.12</course>
  <speed>0.04</speed>
  <fix>3d</fix>
</trkpt>
<trkpt lat="40.0712346" lon="-105.2301882">
  <ele>1583.69</ele>
  <time>2026-08-28T17:54:38Z</time>
  <course>247.12</course>
  <speed>0.04</speed>
  <fix>3d</fix>
</trkpt>
<trkpt lat="40.0712346" lon="-105.2301882">
  <ele>1583.69</ele>
  <time>2026-08-28T17:54:38Z</time>
  <course>247.12</course>
  <speed>0.04</speed>
  <fix>3d</fix>
</trkpt>
<trkpt lat="40.0712346" lon="-105.2301882">
  <ele>1583.69</ele>
  <time>2026-08-28T17:54:38Z</time>
  <course>247.11</course>
  <speed>0.04</speed>
  <fix>3d</fix>
</trkpt>
<trkpt lat="40.0712347" lon="-105.2301882">
  <ele>1583.69</ele>
  <time>2026-08-28T17:54:38Z</time>
  <course>247.11</course>
  <speed>0.04</speed>
  <fix>3d</fix>
</trkpt>
<trkpt lat="40.0712346" lon="-105.2301882">
  <ele>1583.69</ele>
  <time>2026-08-28T17:54:38Z</time>
  <course>247.11</course>
  <speed>0.04</speed>
  <fix>3d</fix>
</trkpt>
<trkpt lat="40.0712346" lon="-105.2301882">
  <ele>1583.69</ele>
  <time>2026-08-28T17:54:38Z</time>
  <course>247.11</course>
  <speed>0.04</speed>
  <fix>3d</fix>
</trkpt>
<trkpt lat="40.0712346" lon="-105.2301882">
  <ele>1583.68</ele>
  <time>2026-08-28T17:54:38Z</time>
  <course>247.11</course>
  <speed>0.04</speed>
  <fix>3d</fix>
</trkpt>
<trkpt lat="40.0712346" lon="-105.2301882">
  <ele>1583.68</ele>
  <time>2026-08-28T17:54:38Z</time>
  <course>247.11</course>
  <speed>0.04</speed>
  <fix>3d</fix>
</trkpt>
<trkpt lat="40.0712346" lon="-105.2301882">
  <ele>1583.68</ele>
  <time>2026-08-28T17:54:38Z</time>
  <course>247.11</course>
  <speed>0.04</speed>
  <fix>3d</fix>
</trkpt>
<trkpt lat="40.0712347" lon="-105.2301882">
  <ele>1583.68</ele>
  <time>2026-08-28T17:54:38Z</time>
  <course>247.1</course>
  <speed>0.04</speed>
  <fix>3d</fix>
</trkpt>
<trkpt lat="40.0712347" lon="-105.2301882">
  <ele>1583.69</ele>
  <time>2026-08-28T17:54:38Z</time>
  <course>247.1</course>
  <speed>0.04</speed>
  <fix>3d</fix>
</trkpt>
<trkpt lat="40.0712347" lon="-105.2301882">
  <ele>1583.7</ele>
  <time>2026-08-28T17:54:38Z</time>
  <course>247.1</course>
  <speed>0.04</speed>
  <fix>3d</fix>
</trkpt>
<trkpt lat="40.0712347" lon="-105.2301882">
  <ele>1583.7</ele>
  <time>2026-08-28T17:54:38Z</time>
  <course>247.1</course>
  <speed>0.05</speed>
  <fix>3d</fix>
</trkpt>
<trkpt lat="40.0712347" lon="-105.2301881">
  <ele>1583.71</ele>
  <time>2026-08-28T17:54:38Z</time>
  <course>247.1</course>
  <speed>0.05</speed>
  <fix>3d</fix>
</trkpt>
<trkpt lat="40.0712347" lon="-105.2301881">
  <ele>1583.71</ele>
  <time>2026-08-28T17:54:38Z</time>
  <course>247.1</course>
  <speed>0.05</speed>
  <fix>3d</fix>
</trkpt>
<trkpt lat="40.0712347" lon="-105.2301881">
  <ele>1583.72</ele>
  <time>2026-08-28T17:54:38Z</time>
  <course>247.1</course>
  <speed>0.05</speed>
  <fix>3d</fix>
</trkpt>
<trkpt lat="40.0712347" lon="-105.2301881">
  <ele>1583.72</ele>
  <time>2026-08-28T17:54:38Z</time>
  <course>247.09</course>
  <speed>0.05</speed>
  <fix>3d</fix>
</trkpt>
<trkpt lat="40.0712347" lon="-105.2301881">
  <ele>1583.72</ele>
  <time>2026-08-28T17:54:38Z</time>
  <course>247.09</course>
  <speed>0.05</speed>
  <fix>3d</fix>
</trkpt>
<trkpt lat="40.0712347" lon="-105.2301881">
  <ele>1583.72</ele>
  <time>2026-08-28T17:54:38Z</time>
  <course>247.09</course>
  <speed>0.05</speed>
  <fix>3d</fix>
</trkpt>
<trkpt lat="40.0712347" lon="-105.2301881">
  <ele>1583.73</ele>
  <time>2026-08-28T17:54:38Z</time>
  <course>247.09</course>
  <speed>0.05</speed>
  <fix>3d</fix>
</trkpt>
<trkpt lat="40.0712347" lon="-105.2301881">
  <ele>1583.73</ele>
  <time>2026-08-28T17:54:38Z</time>
  <course>247.09</course>
  <speed>0.05</speed>
  <fix>3d</fix>
</trkpt>
<trkpt lat="40.0712347" lon="-105.2301881">
  <ele>1583.73</ele>
  <time>2026-08-28T17:54:38Z</time>
  <course>247.09</course>
  <speed>0.05</speed>
  <fix>3d</fix>
</trkpt>
<trkpt lat="40.0712348" lon="-105.2301881">
  <ele>1583.74</ele>
  <time>2026-08-28T17:54:38Z</time>
  <course>247.09</course>
  <speed>0.05</speed>
  <fix>3d</fix>
</trkpt>
<trkpt lat="40.0712348" lon="-105.2301881">
  <ele>1583.74</ele>
  <time>2026-08-28T17:54:38Z</time>
  <course>247.08</course>
  <speed>0.05</speed>
  <fix>3d</fix>
</trkpt>
<trkpt lat="40.0712348" lon="-105.2301881">
  <ele>1583.73</ele>
  <time>2026-08-28T17:54:38Z</time>
  <course>247.08</course>
  <speed>0.05</speed>
  <fix>3d</fix>
</trkpt>
<trkpt lat="40.0712348" lon="-105.2301881">
  <ele>1583.73</ele>
  <time>2026-08-28T17:54:38Z</time>
  <course>247.08</course>
  <speed>0.05</speed>
  <fix>3d</fix>
</trkpt>
<trkpt lat="40.0712348" lon="-105.2301881">
  <ele>1583.73</ele>
  <time>2026-08-28T17:54:38Z</time>
  <course>247.08</course>
  <speed>0.05</speed>
  <fix>3d</fix>
</trkpt>
<trkpt lat="40.0712348" lon="-105.2301881">
  <ele>1583.73</ele>
  <time>2026-08-28T17:54:38Z</time>
  <course>247.08</course>
  <speed>0.05</speed>
  <fix>3d</fix>
</trkpt>
<trkpt lat="40.0712348" lon="-105.2301881">
  <ele>1583.73</ele>
  <time>2026-08-28T17:54:38Z</time>
  <course>247.08</course>
  <speed>0.05</speed>
  <fix>3d</fix>
</trkpt>
<trkpt lat="40.0712349" lon="-105.2301881">
  <ele>1583.73</ele>
  <time>2026-08-28T17:54:38Z</time>
  <course>247.08</course>
  <speed>0.05</speed>
  <fix>3d</fix>
</trkpt>
<trkpt lat="40.0712349" lon="-105.2301881">
  <ele>1583.73</ele>
  <time>2026-08-28T17:54:38Z</time>
  <course>247.08</course>
  <speed>0.05</speed>
  <fix>3d</fix>
</trkpt>
<trkpt lat="40.0712349" lon="-105.2301881">
  <ele>1583.73</ele>
  <time>2026-08-28T17:54:38Z</time>
  <course>247.07</course>
  <speed>0.06</speed>
  <fix>3d</fix>
</trkpt>
<trkpt lat="40.071235" lon="-105.230188">
  <ele>1583.73</ele>
  <time>2026-08-28T17:54:38Z</time>
  <course>247.07</course>
  <speed>0.06</speed>
  <fix>3d</fix>
</trkpt>
<trkpt lat="40.0712351" lon="-105.230188">
  <ele>1583.73</ele>
  <time>2026-08-28T17:54:38Z</time>
  <course>247.07</course>
  <speed>0.06</speed>
  <fix>3d</fix>
</trkpt>
<trkpt lat="40.0712351" lon="-105.230188">
  <ele>1583.73</ele>
  <time>2026-08-28T17:54:38Z</time>
  <course>247.07</course>
  <speed>0.06</speed>
  <fix>3d</fix>
</trkpt>
<trkpt lat="40.0712352" lon="-105.230188">
  <ele>1583.73</ele>
  <time>2026-08-28T17:54:38Z</time>
  <course>247.07</course>
  <speed>0.06</speed>
  <fix>3d</fix>
</trkpt>
<trkpt lat="40.0712352" lon="-105.230188">
  <ele>1583.73</ele>
  <time>2026-08-28T17:54:38Z</time>
  <course>247.07</course>
  <speed>0.07</speed>
  <fix>3d</fix>
</trkpt>
<trkpt lat="40.0712352" lon="-105.230188">
  <ele>1583.73</ele>
  <time>2026-08-28T17:54:38Z</time>
  <course>247.07</course>
  <speed>0.07</speed>
  <fix>3d</fix>
</trkpt>
<trkpt lat="40.0712353" lon="-105.2301879">
  <ele>1583.73</ele>
  <time>2026-08-28T17:54:38Z</time>
  <course>247.07</course>
  <speed>0.07071067811865475</speed>
  <fix>3d</fix>
</trkpt>
<trkpt lat="40.0712354" lon="-105.2301879">
  <ele>1583.73</ele>
  <time>2026-08-28T17:54:38Z</time>
  <course>247.07</course>
  <speed>0.07071067811865475</speed>
  <fix>3d</fix>
</trkpt>
<trkpt lat="40.0712354" lon="-105.2301879">
  <ele>1583.74</ele>
  <time>2026-08-28T17:54:38Z</time>
  <course>247.06</course>
  <speed>0.07071067811865475</speed>
  <fix>3d</fix>
</trkpt>
<trkpt lat="40.0712355" lon="-105.2301879">
  <ele>1583.75</ele>
  <time>2026-08-28T17:54:38Z</time>
  <course>247.06</course>
  <speed>0.08062257748298549</speed>
  <fix>3d</fix>
</trkpt>
<trkpt lat="40.0712356" lon="-105.2301879">
  <ele>1583.76</ele>
  <time>2026-08-28T17:54:38Z</time>
  <course>247.06</course>
  <speed>0.08062257748298549</speed>
  <fix>3d</fix>
</trkpt>
<trkpt lat="40.0712356" lon="-105.2301878">
  <ele>1583.77</ele>
  <time>2026-08-28T17:54:38Z</time>
  <course>247.06</course>
  <speed>0.08062257748298549</speed>
  <fix>3d</fix>
</trkpt>
<trkpt lat="40.0712357" lon="-105.2301878">
  <ele>1583.78</ele>
  <time>2026-08-28T17:54:38Z</time>
  <course>247.06</course>
  <speed>0.08062257748298549</speed>
  <fix>3d</fix>
</trkpt>
<trkpt lat="40.0712358" lon="-105.2301878">
  <ele>1583.79</ele>
  <time>2026-08-28T17:54:38Z</time>
  <course>247.06</course>
  <speed>0.09055385138137417</speed>
  <fix>3d</fix>
</trkpt>
<trkpt lat="40.0712358" lon="-105.2301878">
  <ele>1583.8</ele>
  <time>2026-08-28T17:54:38Z</time>
  <course>247.06</course>
  <speed>0.09055385138137417</speed>
  <fix>3d</fix>
</trkpt>
<trkpt lat="39.655741" lon="-104.1383097">
  <ele>1566.58</ele>
  <time>2026-08-28T17:54:38Z</time>
  <course>0.0</course>
  <speed>0.0</speed>
  <fix>3d</fix>
</trkpt>
<trkpt lat="40.0713749" lon="-105.229789">
  <ele>1583.0</ele>
  <time>2026-08-28T17:54:38Z</time>
  <course>0.0</course>
  <speed>0.0</speed>
  <fix>3d</fix>
</trkpt>
<trkpt lat="40.0713749" lon="-105.229789">
  <ele>1583.0</ele>
  <time>2026-08-28T17:54:38Z</time>
  <course>238.36</course>
  <speed>0.0</speed>
  <fix>3d</fix>
</trkpt>
<trkpt lat="40.0713749" lon="-105.229789">
  <ele>1583.0</ele>
  <time>2026-08-28T17:54:38Z</time>
  <course>0.0</course>
  <speed>0.0</speed>
  <fix>3d</fix>
</trkpt>
<trkpt lat="40.0713749" lon="-105.229789">
  <ele>1583.0</ele>
  <time>2026-08-28T17:54:38Z</time>
  <course>238.44</course>
  <speed>0.0</speed>
  <fix>3d</fix>
</trkpt>
<trkpt lat="40.0713749" lon="-105.229789">
  <ele>1583.0</ele>
  <time>2026-08-28T17:54:38Z</time>
  <course>0.0</course>
  <speed>0.0</speed>
  <fix>3d</fix>
</trkpt>
<trkpt lat="40.0713749" lon="-105.229789">
  <ele>1583.0</ele>
  <time>2026-08-28T17:54:38Z</time>
  <course>238.64</course>
  <speed>0.0</speed>
  <fix>3d</fix>
</trkpt>
<trkpt lat="40.0713749" lon="-105.229789">
  <ele>1583.0</ele>
  <time>2026-08-28T17:54:38Z</time>
  <course>0.0</course>
  <speed>0.0</speed>
  <fix>3d</fix>
</trkpt>
<trkpt lat="40.0713749" lon="-105.229789">
  <ele>1583.0</ele>
  <time>2026-08-28T17:54:38Z</time>
  <course>238.93</course>
  <speed>0.0</speed>
  <fix>3d</fix>
</trkpt>
<trkpt lat="40.0713749" lon="-105.229789">
  <ele>1583.0</ele>
  <time>2026-08-28T17:54:38Z</time>
  <course>0.0</course>
  <speed>0.0</speed>
  <fix>3d</fix>
</trkpt>
<trkpt lat="40.0713749" lon="-105.229789">
  <ele>1583.0</ele>
  <time>2026-08-28T17:54:38Z</time>
  <course>239.26</course>
  <speed>0.0</speed>
  <fix>3d</fix>
</trkpt>
<trkpt lat="40.0713749" lon="-105.229789">
  <ele>1583.0</ele>
  <time>2026-08-28T17:54:38Z</time>
  <course>0.0</course>
  <speed>0.0</speed>
  <fix>3d</fix>
</trkpt>
<trkpt lat="40.0713749" lon="-105.229789">
  <ele>1583.0</ele>
  <time>2026-08-28T17:54:38Z</time>
  <course>239.61</course>
  <speed>0.0</speed>
  <fix>3d</fix>
</trkpt>
<trkpt lat="40.0713749" lon="-105.229789">
  <ele>1583.0</ele>
  <time>2026-08-28T17:54:38Z</time>
  <course>0.0</course>
  <speed>0.0</speed>
  <fix>3d</fix>
</trkpt>
<trkpt lat="40.0713749" lon="-105.229789">
  <ele>1583.0</ele>
  <time>2026-08-28T17:54:38Z</time>
  <course>239.96</course>
  <speed>0.0</speed>
  <fix>3d</fix>
</trkpt>
<trkpt lat="40.0713749" lon="-105.229789">
  <ele>1583.0</ele>
  <time>2026-08-28T17:54:38Z</time>
  <course>0.0</course>
  <speed>0.0</speed>
  <fix>3d</fix>
</trkpt>
<trkpt lat="40.0713749" lon="-105.229789">
  <ele>1583.0</ele>
  <time>2026-08-28T17:54:38Z</time>
  <course>240.29</course>
  <speed>0.0</speed>
  <fix>3d</fix>
</trkpt>
<trkpt lat="40.0713749" lon="-105.229789">
  <ele>1583.0</ele>
  <time>2026-08-28T17:54:38Z</time>
  <course>0.0</course>
  <speed>0.0</speed>
  <fix>3d</fix>
</trkpt>
<trkpt lat="40.0713749" lon="-105.229789">
  <ele>1583.0</ele>
  <time>2026-08-28T17:54:38Z</time>
  <course>240.61</course>
  <speed>0.0</speed>
  <fix>3d</fix>
</trkpt>
<trkpt lat="40.0713749" lon="-105.229789">
  <ele>1583.0</ele>
  <time>2026-08-28T17:54:38Z</time>
  <course>0.0</course>
  <speed>0.0</speed>
  <fix>3d</fix>
</trkpt>
<trkpt lat="40.0713749" lon="-105.229789">
  <ele>1583.0</ele>
  <time>2026-08-28T17:54:38Z</time>
  <course>240.92</course>
  <speed>0.0</speed>
  <fix>3d</fix>
</trkpt>
<trkpt lat="40.0713749" lon="-105.229789">
  <ele>1583.0</ele>
  <time>2026-08-28T17:54:38Z</time>
  <course>0.0</course>
  <speed>0.0</speed>
  <fix>3d</fix>
</trkpt>
<trkpt lat="40.0713749" lon="-105.229789">
  <ele>1583.0</ele>
  <time>2026-08-28T17:54:38Z</time>
  <course>241.21</course>
  <speed>0.0</speed>
  <fix>3d</fix>
</trkpt>
<trkpt lat="40.0713749" lon="-105.229789">
  <ele>1583.0</ele>
  <time>2026-08-28T17:54:38Z</time>
  <course>0.0</course>
  <speed>0.0</speed>
  <fix>3d</fix>
</trkpt>
<trkpt lat="40.0713749" lon="-105.229789">
  <ele>1583.0</ele>
  <time>2026-08-28T17:54:38Z</time>
  <course>241.49</course>
  <speed>0.0</speed>
  <fix>3d</fix>
</trkpt>
<trkpt lat="40.0713749" lon="-105.229789">
  <ele>1583.0</ele>
  <time>2026-08-28T17:54:38Z</time>
  <course>0.0</course>
  <speed>0.0</speed>
  <fix>3d</fix>
</trkpt>
<trkpt lat="40.0713749" lon="-105.229789">
  <ele>1583.0</ele>
  <time>2026-08-28T17:54:38Z</time>
  <course>241.77</course>
  <speed>0.0</speed>
  <fix>3d</fix>
</trkpt>
<trkpt lat="40.0713749" lon="-105.229789">
  <ele>1583.0</ele>
  <time>2026-08-28T17:54:38Z</time>
  <course>0.0</course>
  <speed>0.0</speed>
  <fix>3d</fix>
</trkpt>
<trkpt lat="40.0713749" lon="-105.229789">
  <ele>1583.0</ele>
  <time>2026-08-28T17:54:38Z</time>
  <course>242.03</course>
  <speed>0.0</speed>
  <fix>3d</fix>
</trkpt>
<trkpt lat="40.0713749" lon="-105.229789">
  <ele>1583.0</ele>
  <time>2026-08-28T17:54:38Z</time>
  <course>0.0</course>
  <speed>0.0</speed>
  <fix>3d</fix>
</trkpt>
<trkpt lat="40.0713749" lon="-105.229789">
  <ele>1583.0</ele>
  <time>2026-08-28T17:54:38Z</time>
  <course>242.29</course>
  <speed>0.0</speed>
  <fix>3d</fix>
</trkpt>
<trkpt lat="40.0713749" lon="-105.229789">
  <ele>1583.0</ele>
  <time>2026-08-28T17:54:38Z</time>
  <course>0.0</course>
  <speed>0.0</speed>
  <fix>3d</fix>
</trkpt>
<trkpt lat="40.0713749" lon="-105.229789">
  <ele>1583.0</ele>
  <time>2026-08-28T17:54:38Z</time>
  <course>242.54</course>
  <speed>0.0</speed>
  <fix>3d</fix>
</trkpt>
<trkpt lat="40.0713749" lon="-105.229789">
  <ele>1583.0</ele>
  <time>2026-08-28T17:54:38Z</time>
  <course>0.0</course>
  <speed>0.0</speed>
  <fix>3d</fix>
</trkpt>
<trkpt lat="40.0713749" lon="-105.229789">
  <ele>1583.0</ele>
  <time>2026-08-28T17:54:38Z</time>
  <course>242.79</course>
  <speed>0.0</speed>
  <fix>3d</fix>
</trkpt>
<trkpt lat="40.0713749" lon="-105.229789">
  <ele>1583.0</ele>
  <time>2026-08-28T17:54:38Z</time>
  <course>0.0</course>
  <speed>0.0</speed>
  <fix>3d</fix>
</trkpt>
<trkpt lat="40.0713749" lon="-105.229789">
  <ele>1583.0</ele>
  <time>2026-08-28T17:54:38Z</time>
  <course>243.02</course>
  <speed>0.0</speed>
  <fix>3d</fix>
</trkpt>
<trkpt lat="40.0713749" lon="-105.229789">
  <ele>1583.0</ele>
  <time>2026-08-28T17:54:38Z</time>
  <course>0.0</course>
  <speed>0.0</speed>
  <fix>3d</fix>
</trkpt>
<trkpt lat="40.0713749" lon="-105.229789">
  <ele>1583.0</ele>
  <time>2026-08-28T17:54:38Z</time>
  <course>243.25</course>
  <speed>0.0</speed>
  <fix>3d</fix>
</trkpt>
<trkpt lat="40.0713749" lon="-105.229789">
  <ele>1583.0</ele>
  <time>2026-08-28T17:54:38Z</time>
  <course>0.0</course>
  <speed>0.0</speed>
  <fix>3d</fix>
</trkpt>
<trkpt lat="40.0713749" lon="-105.229789">
  <ele>1583.0</ele>
  <time>2026-08-28T17:54:38Z</time>
  <course>243.47</course>
  <speed>0.0</speed>
  <fix>3d</fix>
</trkpt>
<trkpt lat="40.0713749" lon="-105.229789">
  <ele>1583.0</ele>
  <time>2026-08-28T17:54:38Z</time>
  <course>0.0</course>
  <speed>0.0</speed>
  <fix>3d</fix>
</trkpt>
<trkpt lat="40.0713749" lon="-105.229789">
  <ele>1583.0</ele>
  <time>2026-08-28T17:54:38Z</time>
  <course>243.68</course>
  <speed>0.0</speed>
  <fix>3d</fix>
</trkpt>
<trkpt lat="40.0713749" lon="-105.229789">
  <ele>1583.0</ele>
  <time>2026-08-28T17:54:38Z</time>
  <course>0.0</course>
  <speed>0.0</speed>
  <fix>3d</fix>
</trkpt>
<trkpt lat="40.0713749" lon="-105.229789">
  <ele>1583.0</ele>
  <time>2026-08-28T17:54:38Z</time>
  <course>243.89</course>
  <speed>0.0</speed>
  <fix>3d</fix>
</trkpt>
<trkpt lat="40.0713749" lon="-105.229789">
  <ele>1583.0</ele>
  <time>2026-08-28T17:54:38Z</time>
  <course>0.0</course>
  <speed>0.0</speed>
  <fix>3d</fix>
</trkpt>
<trkpt lat="40.0713749" lon="-105.229789">
  <ele>1583.0</ele>
  <time>2026-08-28T17:54:38Z</time>
  <course>244.09</course>
  <speed>0.0</speed>
  <fix>3d</fix>
</trkpt>
<trkpt lat="40.0713749" lon="-105.229789">
  <ele>1583.0</ele>
  <time>2026-08-28T17:54:38Z</time>
  <course>0.0</course>
  <speed>0.0</speed>
  <fix>3d</fix>
</trkpt>
<trkpt lat="40.0713749" lon="-105.229789">
  <ele>1583.0</ele>
  <time>2026-08-28T17:54:38Z</time>
  <course>244.28</course>
  <speed>0.0</speed>
  <fix>3d</fix>
</trkpt>
<trkpt lat="40.0713749" lon="-105.229789">
  <ele>1583.0</ele>
  <time>2026-08-28T17:54:38Z</time>
  <course>0.0</course>
  <speed>0.0</speed>
  <fix>3d</fix>
</trkpt>
<trkpt lat="40.0713749" lon="-105.229789">
  <ele>1583.0</ele>
  <time>2026-08-28T17:54:38Z</time>
  <course>244.46</course>
  <speed>0.0</speed>
  <fix>3d</fix>
</trkpt>
<trkpt lat="40.0713749" lon="-105.229789">
  <ele>1583.0</ele>
  <time>2026-08-28T17:54:38Z</time>
  <course>0.0</course>
  <speed>0.0</speed>
  <fix>3d</fix>
</trkpt>
<trkpt lat="40.0713749" lon="-105.229789">
  <ele>1583.0</ele>
  <time>2026-08-28T17:54:38Z</time>
  <course>244.64</course>
  <speed>0.0</speed>
  <fix>3d</fix>
</trkpt>
<trkpt lat="40.0713749" lon="-105.229789">
  <ele>1583.0</ele>
  <time>2026-08-28T17:54:38Z</time>
  <course>0.0</course>
  <speed>0.0</speed>
  <fix>3d</fix>
</trkpt>
<trkpt lat="40.0713749" lon="-105.229789">
  <ele>1583.0</ele>
  <time>2026-08-28T17:54:38Z</time>
  <course>244.81</course>
  <speed>0.0</speed>
  <fix>3d</fix>
</trkpt>
<trkpt lat="40.0713749" lon="-105.229789">
  <ele>1583.0</ele>
  <time>2026-08-28T17:54:38Z</time>
  <course>0.0</course>
  <speed>0.0</speed>
  <fix>3d</fix>
</trkpt>
<trkpt lat="40.0713749" lon="-105.229789">
  <ele>1583.0</ele>
  <time>2026-08-28T17:54:38Z</time>
  <course>244.97</course>
  <speed>0.0</speed>
  <fix>3d</fix>
</trkpt>
<trkpt lat="40.0713749" lon="-105.229789">
  <ele>1583.0</ele>
  <time>2026-08-28T17:54:38Z</time>
  <course>0.0</course>
  <speed>0.0</speed>
  <fix>3d</fix>
</trkpt>
<trkpt lat="40.0713749" lon="-105.229789">
  <ele>1583.0</ele>
  <time>2026-08-28T17:54:38Z</time>
  <course>245.13</course>
  <speed>0.0</speed>
  <fix>3d</fix>
</trkpt>
<trkpt lat="40.0713749" lon="-105.229789">
  <ele>1583.0</ele>
  <time>2026-08-28T17:54:38Z</time>
  <course>0.0</course>
  <speed>0.0</speed>
  <fix>3d</fix>
</trkpt>
<trkpt lat="40.0713749" lon="-105.229789">
  <ele>1583.0</ele>
  <time>2026-08-28T17:54:38Z</time>
  <course>245.29</course>
  <speed>0.0</speed>
  <fix>3d</fix>
</trkpt>
<trkpt lat="40.0713749" lon="-105.229789">
  <ele>1583.0</ele>
  <time>2026-08-28T17:54:38Z</time>
  <course>0.0</course>
  <speed>0.0</speed>
  <fix>3d</fix>
</trkpt>
<trkpt lat="40.0713749" lon="-105.229789">
  <ele>1583.0</ele>
  <time>2026-08-28T17:54:38Z</time>
  <course>245.43</course>
  <speed>0.0</speed>
  <fix>3d</fix>
</trkpt>
<trkpt lat="40.0713749" lon="-105.229789">
  <ele>1583.0</ele>
  <time>2026-08-28T17:54:38Z</time>
  <course>0.0</course>
  <speed>0.0</speed>
  <fix>3d</fix>
</trkpt>
<trkpt lat="40.0713749" lon="-105.229789">
  <ele>1583.0</ele>
  <time>2026-08-28T17:54:38Z</time>
  <course>245.57</course>
  <speed>0.0</speed>
  <fix>3d</fix>
</trkpt>
<trkpt lat="40.0713749" lon="-105.229789">
  <ele>1583.0</ele>
  <time>2026-08-28T17:54:38Z</time>
  <course>0.0</course>
  <speed>0.0</speed>
  <fix>3d</fix>
</trkpt>
<trkpt lat="40.0713749" lon="-105.229789">
  <ele>1583.0</ele>
  <time>2026-08-28T17:54:38Z</time>
  <course>245.71</course>
  <speed>0.0</speed>
  <fix>3d</fix>
</trkpt>
<trkpt lat="40.0713749" lon="-105.229789">
  <ele>1583.0</ele>
  <time>2026-08-28T17:54:38Z</time>
  <course>0.0</course>
  <speed>0.0</speed>
  <fix>3d</fix>
</trkpt>
<trkpt lat="40.0713749" lon="-105.229789">
  <ele>1583.0</ele>
  <time>2026-08-28T17:54:38Z</time>
  <course>245.84</course>
  <speed>0.0</speed>
  <fix>3d</fix>
</trkpt>
<trkpt lat="40.0713749" lon="-105.229789">
  <ele>1583.0</ele>
  <time>2026-08-28T17:54:38Z</time>
  <course>0.0</course>
  <speed>0.0</speed>
  <fix>3d</fix>
</trkpt>
<trkpt lat="40.0713749" lon="-105.229789">
  <ele>1583.0</ele>
  <time>2026-08-28T17:54:38Z</time>
  <course>245.96</course>
  <speed>0.0</speed>
  <fix>3d</fix>
</trkpt>
<trkpt lat="40.0713749" lon="-105.229789">
  <ele>1583.0</ele>
  <time>2026-08-28T17:54:38Z</time>
  <course>0.0</course>
  <speed>0.0</speed>
  <fix>3d</fix>
</trkpt>
<trkpt lat="40.0713749" lon="-105.229789">
  <ele>1583.0</ele>
  <time>2026-08-28T17:54:38Z</time>
  <course>246.08</course>
  <speed>0.0</speed>
  <fix>3d</fix>
</trkpt>
<trkpt lat="40.0713749" lon="-105.229789">
  <ele>1583.0</ele>
  <time>2026-08-28T17:54:38Z</time>
  <course>0.0</course>
  <speed>0.0</speed>
  <fix>3d</fix>
</trkpt>
<trkpt lat="40.0713749" lon="-105.229789">
  <ele>1583.0</ele>
  <time>2026-08-28T17:54:38Z</time>
  <course>246.19</course>
  <speed>0.0</speed>
  <fix>3d</fix>
</trkpt>
<trkpt lat="40.0713749" lon="-105.229789">
  <ele>1583.0</ele>
  <time>2026-08-28T17:54:38Z</time>
  <course>0.0</course>
  <speed>0.0</speed>
  <fix>3d</fix>
</trkpt>
<trkpt lat="40.0713749" lon="-105.229789">
  <ele>1583.0</ele>
  <time>2026-08-28T17:54:38Z</time>
  <course>246.3</course>
  <speed>0.0</speed>
  <fix>3d</fix>
</trkpt>
<trkpt lat="40.0713749" lon="-105.229789">
  <ele>1583.0</ele>
  <time>2026-08-28T17:54:38Z</time>
  <course>0.0</course>
  <speed>0.0</speed>
  <fix>3d</fix>
</trkpt>
<trkpt lat="40.0713749" lon="-105.229789">
  <ele>1583.0</ele>
  <time>2026-08-28T17:54:38Z</time>
  <course>246.41</course>
  <speed>0.0</speed>
  <fix>3d</fix>
</trkpt>
<trkpt lat="40.0713749" lon="-105.229789">
  <ele>1583.0</ele>
  <time>2026-08-28T17:54:38Z</time>
  <course>0.0</course>
  <speed>0.0</speed>
  <fix>3d</fix>
</trkpt>
<trkpt lat="40.0713749" lon="-105.229789">
  <ele>1583.0</ele>
  <time>2026-08-28T17:54:38Z</time>
  <course>246.51</course>
  <speed>0.0</speed>
  <fix>3d</fix>
</trkpt>
<trkpt lat="40.0713749" lon="-105.229789">
  <ele>1583.0</ele>
  <time>2026-08-28T17:54:38Z</time>
  <course>0.0</course>
  <speed>0.0</speed>
  <fix>3d</fix>
</trkpt>
<trkpt lat="40.0713749" lon="-105.229789">
  <ele>1583.0</ele>
  <time>2026-08-28T17:54:38Z</time>
  <course>246.6</course>
  <speed>0.0</speed>
  <fix>3d</fix>
</trkpt>
<trkpt lat="40.0713749" lon="-105.229789">
  <ele>1583.0</ele>
  <time>2026-08-28T17:54:38Z</time>
  <course>0.0</course>
  <speed>0.0</speed>
  <fix>3d</fix>
</trkpt>
<trkpt lat="40.0713749" lon="-105.229789">
  <ele>1583.0</ele>
  <time>2026-08-28T17:54:38Z</time>
  <course>246.7</course>
  <speed>0.0</speed>
  <fix>3d</fix>
</trkpt>
<trkpt lat="40.0713749" lon="-105.229789">
  <ele>1583.0</ele>
  <time>2026-08-28T17:54:38Z</time>
  <course>0.0</course>
  <speed>0.0</speed>
  <fix>3d</fix>
</trkpt>
<trkpt lat="40.0713749" lon="-105.229789">
  <ele>1583.0</ele>
  <time>2026-08-28T17:54:38Z</time>
  <course>246.78</course>
  <speed>0.0</speed>
  <fix>3d</fix>
</trkpt>
<trkpt lat="40.0713749" lon="-105.229789">
  <ele>1583.0</ele>
  <time>2026-08-28T17:54:38Z</time>
  <course>0.0</course>
  <speed>0.0</speed>
  <fix>3d</fix>
</trkpt>
<trkpt lat="40.0713749" lon="-105.229789">
  <ele>1583.0</ele>
  <time>2026-08-28T17:54:38Z</time>
  <course>246.87</course>
  <speed>0.0</speed>
  <fix>3d</fix>
</trkpt>
<trkpt lat="40.0713749" lon="-105.229789">
  <ele>1583.0</ele>
  <time>2026-08-28T17:54:38Z</time>
  <course>0.0</course>
  <speed>0.0</speed>
  <fix>3d</fix>
</trkpt>
<trkpt lat="40.0713749" lon="-105.229789">
  <ele>1583.0</ele>
  <time>2026-08-28T17:54:38Z</time>
  <course>246.95</course>
  <speed>0.0</speed>
  <fix>3d</fix>
</trkpt>
<trkpt lat="40.0713749" lon="-105.229789">
  <ele>1583.0</ele>
  <time>2026-08-28T17:54:38Z</time>
  <course>0.0</course>
  <speed>0.0</speed>
  <fix>3d</fix>
</trkpt>
<trkpt lat="40.0713749" lon="-105.229789">
  <ele>1583.0</ele>
  <time>2026-08-28T17:54:38Z</time>
  <course>247.02</course>
  <speed>0.0</speed>
  <fix>3d</fix>
</trkpt>
<trkpt lat="40.0713749" lon="-105.229789">
  <ele>1583.0</ele>
  <time>2026-08-28T17:54:38Z</time>
  <course>0.0</course>
  <speed>0.0</speed>
  <fix>3d</fix>
</trkpt>
<trkpt lat="40.0713749" lon="-105.229789">
  <ele>1583.0</ele>
  <time>2026-08-28T17:54:38Z</time>
  <course>247.1</course>
  <speed>0.0</speed>
  <fix>3d</fix>
</trkpt>
<trkpt lat="40.0713749" lon="-105.229789">
  <ele>1583.0</ele>
  <time>2026-08-28T17:54:38Z</time>
  <course>0.0</course>
  <speed>0.0</speed>
  <fix>3d</fix>
</trkpt>
<trkpt lat="40.0713749" lon="-105.229789">
  <ele>1583.0</ele>
  <time>2026-08-28T17:54:38Z</time>
  <course>247.17</course>
  <speed>0.0</speed>
  <fix>3d</fix>
</trkpt>
<trkpt lat="40.0713749" lon="-105.229789">
  <ele>1583.0</ele>
  <time>2026-08-28T17:54:38Z</time>
  <course>0.0</course>
  <speed>0.0</speed>
  <fix>3d</fix>
</trkpt>
<trkpt lat="40.0713749" lon="-105.229789">
  <ele>1583.0</ele>
  <time>2026-08-28T17:54:38Z</time>
  <course>247.24</course>
  <speed>0.0</speed>
  <fix>3d</fix>
</trkpt>
<trkpt lat="40.0713749" lon="-105.229789">
  <ele>1583.0</ele>
  <time>2026-08-28T17:54:38Z</time>
  <course>0.0</course>
  <speed>0.0</speed>
  <fix>3d</fix>
</trkpt>
<trkpt lat="40.0713749" lon="-105.229789">
  <ele>1583.0</ele>
  <time>2026-08-28T17:54:38Z</time>
  <course>247.3</course>
  <speed>0.0</speed>
  <fix>3d</fix>
</trkpt>
<trkpt lat="40.0713749" lon="-105.229789">
  <ele>1583.0</ele>
  <time>2026-08-28T17:54:38Z</time>
  <course>0.0</course>
  <speed>0.0</speed>
  <fix>3d</fix>
</trkpt>
<trkpt lat="40.0713749" lon="-105.229789">
  <ele>1583.0</ele>
  <time>2026-08-28T17:54:38Z</time>
  <course>247.36</course>
  <speed>0.0</speed>
  <fix>3d</fix>
</trkpt>
<trkpt lat="40.0713749" lon="-105.229789">
  <ele>1583.0</ele>
  <time>2026-08-28T17:54:38Z</time>
  <course>0.0</course>
  <speed>0.0</speed>
  <fix>3d</fix>
</trkpt>
<trkpt lat="40.0713749" lon="-105.229789">
  <ele>1583.0</ele>
  <time>2026-08-28T17:54:38Z</time>
  <course>247.42</course>
  <speed>0.0</speed>
  <fix>3d</fix>
</trkpt>
<trkpt lat="40.0713749" lon="-105.229789">
  <ele>1583.0</ele>
  <time>2026-08-28T17:54:38Z</time>
  <course>0.0</course>
  <speed>0.0</speed>
  <fix>3d</fix>
</trkpt>
<trkpt lat="40.0713749" lon="-105.229789">
  <ele>1583.0</ele>
  <time>2026-08-28T17:54:38Z</time>
  <course>247.47</course>
  <speed>0.0</speed>
  <fix>3d</fix>
</trkpt>
<trkpt lat="40.0713749" lon="-105.229789">
  <ele>1583.0</ele>
  <time>2026-08-28T17:54:38Z</time>
  <course>0.0</course>
  <speed>0.0</speed>
  <fix>3d</fix>
</trkpt>
<trkpt lat="40.0713749" lon="-105.229789">
  <ele>1583.0</ele>
  <time>2026-08-28T17:54:38Z</time>
  <course>247.53</course>
  <speed>0.0</speed>
  <fix>3d</fix>
</trkpt>
<trkpt lat="40.0713749" lon="-105.229789">
  <ele>1583.0</ele>
  <time>2026-08-28T17:54:38Z</time>
  <course>0.0</course>
  <speed>0.0</speed>
  <fix>3d</fix>
</trkpt>
<trkpt lat="40.0713749" lon="-105.229789">
  <ele>1583.0</ele>
  <time>2026-08-28T17:54:38Z</time>
  <course>247.58</course>
  <speed>0.0</speed>
  <fix>3d</fix>
</trkpt>
<trkpt lat="40.0713749" lon="-105.229789">
  <ele>1583.0</ele>
  <time>2026-08-28T17:54:38Z</time>
  <course>0.0</course>
  <speed>0.0</speed>
  <fix>3d</fix>
</trkpt>
<trkpt lat="40.0713749" lon="-105.229789">
  <ele>1583.0</ele>
  <time>2026-08-28T17:54:38Z</time>
  <course>247.63</course>
  <speed>0.0</speed>
  <fix>3d</fix>
</trkpt>
<trkpt lat="40.0713749" lon="-105.229789">
  <ele>1583.0</ele>
  <time>2026-08-28T17:54:38Z</time>
  <course>0.0</course>
  <speed>0.0</speed>
  <fix>3d</fix>
</trkpt>
<trkpt lat="40.0713749" lon="-105.229789">
  <ele>1583.0</ele>
  <time>2026-08-28T17:54:38Z</time>
  <course>247.67</course>
  <speed>0.0</speed>
  <fix>3d</fix>
</trkpt>
<trkpt lat="40.0713749" lon="-105.229789">
  <ele>1583.0</ele>
  <time>2026-08-28T17:54:38Z</time>
  <course>0.0</course>
  <speed>0.0</speed>
  <fix>3d</fix>
</trkpt>
<trkpt lat="40.0713749" lon="-105.229789">
  <ele>1583.0</ele>
  <time>2026-08-28T17:54:38Z</time>
  <course>247.72</course>
  <speed>0.0</speed>
  <fix>3d</fix>
</trkpt>
<trkpt lat="40.0713749" lon="-105.229789">
  <ele>1583.0</ele>
  <time>2026-08-28T17:54:38Z</time>
  <course>0.0</course>
  <speed>0.0</speed>
  <fix>3d</fix>
</trkpt>
<trkpt lat="40.0713749" lon="-105.229789">
  <ele>1583.0</ele>
  <time>2026-08-28T17:54:38Z</time>
  <course>247.76</course>
  <speed>0.0</speed>
  <fix>3d</fix>
</trkpt>
<trkpt lat="40.0713749" lon="-105.229789">
  <ele>1583.0</ele>
  <time>2026-08-28T17:54:38Z</time>
  <course>0.0</course>
  <speed>0.0</speed>
  <fix>3d</fix>
</trkpt>
<trkpt lat="40.0713749" lon="-105.229789">
  <ele>1583.0</ele>
  <time>2026-08-28T17:54:38Z</time>
  <course>247.8</course>
  <speed>0.0</speed>
  <fix>3d</fix>
</trkpt>
<trkpt lat="40.0713749" lon="-105.229789">
  <ele>1583.0</ele>
  <time>2026-08-28T17:54:38Z</time>
  <course>0.0</course>
  <speed>0.0</speed>
  <fix>3d</fix>
</trkpt>
<trkpt lat="40.0713749" lon="-105.229789">
  <ele>1583.0</ele>
  <time>2026-08-28T17:54:38Z</time>
  <course>247.83</course>
  <speed>0.0</speed>
  <fix>3d</fix>
</trkpt>
<trkpt lat="40.0713749" lon="-105.229789">
  <ele>1583.0</ele>
  <time>2026-08-28T17:54:38Z</time>
  <course>0.0</course>
  <speed>0.0</speed>
  <fix>3d</fix>
</trkpt>
<trkpt lat="40.0713749" lon="-105.229789">
  <ele>1583.0</ele>
  <time>2026-08-28T17:54:38Z</time>
  <course>247.87</course>
  <speed>0.0</speed>
  <fix>3d</fix>
</trkpt>
<trkpt lat="40.0713749" lon="-105.229789">
  <ele>1583.0</ele>
  <time>2026-08-28T17:54:38Z</time>
  <course>0.0</course>
  <speed>0.0</speed>
  <fix>3d</fix>
</trkpt>
<trkpt lat="40.0713749" lon="-105.229789">
  <ele>1583.0</ele>
  <time>2026-08-28T17:54:38Z</time>
  <course>247.9</course>
  <speed>0.0</speed>
  <fix>3d</fix>
</trkpt>
<trkpt lat="40.0713749" lon="-105.229789">
  <ele>1583.0</ele>
  <time>2026-08-28T17:54:38Z</time>
  <course>0.0</course>
  <speed>0.0</speed>
  <fix>3d</fix>
</trkpt>
<trkpt lat="40.0713749" lon="-105.229789">
  <ele>1583.0</ele>
  <time>2026-08-28T17:54:38Z</time>
  <course>247.94</course>
  <speed>0.0</speed>
  <fix>3d</fix>
</trkpt>
<trkpt lat="40.0713749" lon="-105.229789">
  <ele>1583.0</ele>
  <time>2026-08-28T17:54:38Z</time>
  <course>0.0</course>
  <speed>0.0</speed>
  <fix>3d</fix>
</trkpt>
<trkpt lat="40.0713749" lon="-105.229789">
  <ele>1583.0</ele>
  <time>2026-08-28T17:54:38Z</time>
  <course>247.97</course>
  <speed>0.0</speed>
  <fix>3d</fix>
</trkpt>
<trkpt lat="40.0713749" lon="-105.229789">
  <ele>1583.0</ele>
  <time>2026-08-28T17:54:38Z</time>
  <course>0.0</course>
  <speed>0.0</speed>
  <fix>3d</fix>
</trkpt>
<trkpt lat="40.0713749" lon="-105.229789">
  <ele>1583.0</ele>
  <time>2026-08-28T17:54:38Z</time>
  <course>248.0</course>
  <speed>0.0</speed>
  <fix>3d</fix>
</trkpt>
<trkpt lat="40.0713749" lon="-105.229789">
  <ele>1583.0</ele>
  <time>2026-08-28T17:54:38Z</time>
  <course>0.0</course>
  <speed>0.0</speed>
  <fix>3d</fix>
</trkpt>
<trkpt lat="40.0713749" lon="-105.229789">
  <ele>1583.0</ele>
  <time>2026-08-28T17:54:38Z</time>
  <course>248.02</course>
  <speed>0.0</speed>
  <fix>3d</fix>
</trkpt>
<trkpt lat="40.0713749" lon="-105.229789">
  <ele>1583.0</ele>
  <time>2026-08-28T17:54:38Z</time>
  <course>0.0</course>
  <speed>0.0</speed>
  <fix>3d</fix>
</trkpt>
<trkpt lat="40.0713749" lon="-105.229789">
  <ele>1583.0</ele>
  <time>2026-08-28T17:54:38Z</time>
  <course>248.05</course>
  <speed>0.0</speed>
  <fix>3d</fix>
</trkpt>
<trkpt lat="40.0713749" lon="-105.229789">
  <ele>1583.0</ele>
  <time>2026-08-28T17:54:38Z</time>
  <course>0.0</course>
  <speed>0.0</speed>
  <fix>3d</fix>
</trkpt>
<trkpt lat="40.0713749" lon="-105.229789">
  <ele>1583.0</ele>
  <time>2026-08-28T17:54:38Z</time>
  <course>248.08</course>
  <speed>0.0</speed>
  <fix>3d</fix>
</trkpt>
<trkpt lat="40.0713749" lon="-105.229789">
  <ele>1583.0</ele>
  <time>2026-08-28T17:54:38Z</time>
  <course>0.0</course>
  <speed>0.0</speed>
  <fix>3d</fix>
</trkpt>
<trkpt lat="40.0713749" lon="-105.229789">
  <ele>1583.0</ele>
  <time>2026-08-28T17:54:38Z</time>
  <course>248.1</course>
  <speed>0.0</speed>
  <fix>3d</fix>
</trkpt>
<trkpt lat="40.0713749" lon="-105.229789">
  <ele>1583.0</ele>
  <time>2026-08-28T17:54:38Z</time>
  <course>0.0</course>
  <speed>0.0</speed>
  <fix>3d</fix>
</trkpt>
<trkpt lat="40.0713749" lon="-105.229789">
  <ele>1583.0</ele>
  <time>2026-08-28T17:54:38Z</time>
  <course>248.12</course>
  <speed>0.0</speed>
  <fix>3d</fix>
</trkpt>
<trkpt lat="40.0713749" lon="-105.229789">
  <ele>1583.0</ele>
  <time>2026-08-28T17:54:38Z</time>
  <course>0.0</course>
  <speed>0.0</speed>
  <fix>3d</fix>
</trkpt>
<trkpt lat="40.0713749" lon="-105.229789">
  <ele>1583.0</ele>
  <time>2026-08-28T17:54:38Z</time>
  <course>248.14</course>
  <speed>0.0</speed>
  <fix>3d</fix>
</trkpt>
<trkpt lat="40.0713749" lon="-105.229789">
  <ele>1583.0</ele>
  <time>2026-08-28T17:54:38Z</time>
  <course>0.0</course>
  <speed>0.0</speed>
  <fix>3d</fix>
</trkpt>
<trkpt lat="40.0713749" lon="-105.229789">
  <ele>1583.0</ele>
  <time>2026-08-28T17:54:38Z</time>
  <course>248.16</course>
  <speed>0.0</speed>
  <fix>3d</fix>
</trkpt>
<trkpt lat="40.0713749" lon="-105.229789">
  <ele>1583.0</ele>
  <time>2026-08-28T17:54:38Z</time>
  <course>0.0</course>
  <speed>0.0</speed>
  <fix>3d</fix>
</trkpt>
<trkpt lat="40.0713749" lon="-105.229789">
  <ele>1583.0</ele>
  <time>2026-08-28T17:54:38Z</time>
  <course>248.18</course>
  <speed>0.0</speed>
  <fix>3d</fix>
</trkpt>
<trkpt lat="40.0713749" lon="-105.229789">
  <ele>1583.0</ele>
  <time>2026-08-28T17:54:38Z</time>
  <course>0.0</course>
  <speed>0.0</speed>
  <fix>3d</fix>
</trkpt>
<trkpt lat="40.0713749" lon="-105.229789">
  <ele>1583.0</ele>
  <time>2026-08-28T17:54:38Z</time>
  <course>248.2</course>
  <speed>0.0</speed>
  <fix>3d</fix>
</trkpt>
<trkpt lat="40.0713749" lon="-105.229789">
  <ele>1583.0</ele>
  <time>2026-08-28T17:54:38Z</time>
  <course>0.0</course>
  <speed>0.0</speed>
  <fix>3d</fix>
</trkpt>
<trkpt lat="40.0713749" lon="-105.229789">
  <ele>1583.0</ele>
  <time>2026-08-28T17:54:38Z</time>
  <course>248.22</course>
  <speed>0.0</speed>
  <fix>3d</fix>
</trkpt>
<trkpt lat="40.0713749" lon="-105.229789">
  <ele>1583.0</ele>
  <time>2026-08-28T17:54:38Z</time>
  <course>0.0</course>
  <speed>0.0</speed>
  <fix>3d</fix>
</trkpt>
<trkpt lat="40.0713749" lon="-105.229789">
  <ele>1583.0</ele>
  <time>2026-08-28T17:54:38Z</time>
  <course>248.23</course>
  <speed>0.0</speed>
  <fix>3d</fix>
</trkpt>
<trkpt lat="40.0713749" lon="-105.229789">
  <ele>1583.0</ele>
  <time>2026-08-28T17:54:38Z</time>
  <course>0.0</course>
  <speed>0.0</speed>
  <fix>3d</fix>
</trkpt>
<trkpt lat="40.0713749" lon="-105.229789">
  <ele>1583.0</ele>
  <time>2026-08-28T17:54:38Z</time>
  <course>248.25</course>
  <speed>0.0</speed>
  <fix>3d</fix>
</trkpt>
<trkpt lat="40.0713749" lon="-105.229789">
  <ele>1583.0</ele>
  <time>2026-08-28T17:54:38Z</time>
  <course>0.0</course>
  <speed>0.0</speed>
  <fix>3d</fix>
</trkpt>
<trkpt lat="40.0713749" lon="-105.229789">
  <ele>1583.0</ele>
  <time>2026-08-28T17:54:38Z</time>
  <course>248.26</course>
  <speed>0.0</speed>
  <fix>3d</fix>
</trkpt>
<trkpt lat="40.0713749" lon="-105.229789">
  <ele>1583.0</ele>
  <time>2026-08-28T17:54:38Z</time>
  <course>0.0</course>
  <speed>0.0</speed>
  <fix>3d</fix>
</trkpt>
<trkpt lat="40.0713749" lon="-105.229789">
  <ele>1583.0</ele>
  <time>2026-08-28T17:54:38Z</time>
  <course>248.28</course>
  <speed>0.0</speed>
  <fix>3d</fix>
</trkpt>
<trkpt lat="40.0713749" lon="-105.229789">
  <ele>1583.0</ele>
  <time>2026-08-28T17:54:38Z</time>
  <course>0.0</course>
  <speed>0.0</speed>
  <fix>3d</fix>
</trkpt>
<trkpt lat="40.0713749" lon="-105.229789">
  <ele>1583.0</ele>
  <time>2026-08-28T17:54:38Z</time>
  <course>248.29</course>
  <speed>0.0</speed>
  <fix>3d</fix>
</trkpt>
<trkpt lat="40.0713749" lon="-105.229789">
  <ele>1583.0</ele>
  <time>2026-08-28T17:54:38Z</time>
  <course>0.0</course>
  <speed>0.0</speed>
  <fix>3d</fix>
</trkpt>
<trkpt lat="40.0713749" lon="-105.229789">
  <ele>1583.0</ele>
  <time>2026-08-28T17:54:38Z</time>
  <course>248.3</course>
  <speed>0.0</speed>
  <fix>3d</fix>
</trkpt>
<trkpt lat="40.0713749" lon="-105.229789">
  <ele>1583.0</ele>
  <time>2026-08-28T17:54:38Z</time>
  <course>0.0</course>
  <speed>0.0</speed>
  <fix>3d</fix>
</trkpt>
<trkpt lat="40.0713749" lon="-105.229789">
  <ele>1583.0</ele>
  <time>2026-08-28T17:54:38Z</time>
  <course>248.31</course>
  <speed>0.0</speed>
  <fix>3d</fix>
</trkpt>
<trkpt lat="40.0713749" lon="-105.229789">
  <ele>1583.0</ele>
  <time>2026-08-28T17:54:38Z</time>
  <course>0.0</course>
  <speed>0.0</speed>
  <fix>3d</fix>
</trkpt>
<trkpt lat="40.0713749" lon="-105.229789">
  <ele>1583.0</ele>
  <time>2026-08-28T17:54:38Z</time>
  <course>248.32</course>
  <speed>0.0</speed>
  <fix>3d</fix>
</trkpt>
<trkpt lat="40.0713749" lon="-105.229789">
  <ele>1583.0</ele>
  <time>2026-08-28T17:54:38Z</time>
  <course>0.0</course>
  <speed>0.0</speed>
  <fix>3d</fix>
</trkpt>
<trkpt lat="40.0713749" lon="-105.229789">
  <ele>1583.0</ele>
  <time>2026-08-28T17:54:38Z</time>
  <course>248.33</course>
  <speed>0.0</speed>
  <fix>3d</fix>
</trkpt>
<trkpt lat="40.0713749" lon="-105.229789">
  <ele>1583.0</ele>
  <time>2026-08-28T17:54:38Z</time>
  <course>0.0</course>
  <speed>0.0</speed>
  <fix>3d</fix>
</trkpt>
<trkpt lat="40.0713749" lon="-105.229789">
  <ele>1583.0</ele>
  <time>2026-08-28T17:54:38Z</time>
  <course>248.34</course>
  <speed>0.0</speed>
  <fix>3d</fix>
</trkpt>
<trkpt lat="40.0713749" lon="-105.229789">
  <ele>1583.0</ele>
  <time>2026-08-28T17:54:38Z</time>
  <course>0.0</course>
  <speed>0.0</speed>
  <fix>3d</fix>
</trkpt>
<trkpt lat="40.0713749" lon="-105.229789">
  <ele>1583.0</ele>
  <time>2026-08-28T17:54:38Z</time>
  <course>248.35</course>
  <speed>0.0</speed>
  <fix>3d</fix>
</trkpt>
<trkpt lat="40.0713749" lon="-105.229789">
  <ele>1583.0</ele>
  <time>2026-08-28T17:54:38Z</time>
  <course>0.0</course>
  <speed>0.0</speed>
  <fix>3d</fix>
</trkpt>
<trkpt lat="40.0713749" lon="-105.229789">
  <ele>1583.0</ele>
  <time>2026-08-28T17:54:38Z</time>
  <course>248.35</course>
  <speed>0.0</speed>
  <fix>3d</fix>
</trkpt>
<trkpt lat="40.0713749" lon="-105.229789">
  <ele>1583.0</ele>
  <time>2026-08-28T17:54:38Z</time>
  <course>0.0</course>
  <speed>0.0</speed>
  <fix>3d</fix>
</trkpt>
<trkpt lat="40.0713749" lon="-105.229789">
  <ele>1583.0</ele>
  <time>2026-08-28T17:54:38Z</time>
  <course>248.36</course>
  <speed>0.0</speed>
  <fix>3d</fix>
</trkpt>
<trkpt lat="40.0713749" lon="-105.229789">
  <ele>1583.0</ele>
  <time>2026-08-28T17:54:38Z</time>
  <course>0.0</course>
  <speed>0.0</speed>
  <fix>3d</fix>
</trkpt>
<trkpt lat="40.0713749" lon="-105.229789">
  <ele>1583.0</ele>
  <time>2026-08-28T17:54:38Z</time>
  <course>248.37</course>
  <speed>0.0</speed>
  <fix>3d</fix>
</trkpt>
<trkpt lat="40.0713749" lon="-105.229789">
  <ele>1583.0</ele>
  <time>2026-08-28T17:54:38Z</time>
  <course>0.0</course>
  <speed>0.0</speed>
  <fix>3d</fix>
</trkpt>
<trkpt lat="40.0713749" lon="-105.229789">
  <ele>1583.0</ele>
  <time>2026-08-28T17:54:38Z</time>
  <course>248.37</course>
  <speed>0.0</speed>
  <fix>3d</fix>
</trkpt>
<trkpt lat="40.0713749" lon="-105.229789">
  <ele>1583.0</ele>
  <time>2026-08-28T17:54:38Z</time>
  <course>0.0</course>
  <speed>0.0</speed>
  <fix>3d</fix>
</trkpt>
<trkpt lat="40.0713749" lon="-105.229789">
  <ele>1583.0</ele>
  <time>2026-08-28T17:54:38Z</time>
  <course>248.38</course>
  <speed>0.0</speed>
  <fix>3d</fix>
</trkpt>
<trkpt lat="40.0713749" lon="-105.229789">
  <ele>1583.0</ele>
  <time>2026-08-28T17:54:38Z</time>
  <course>0.0</course>
  <speed>0.0</speed>
  <fix>3d</fix>
</trkpt>
<trkpt lat="40.0713749" lon="-105.229789">
  <ele>1583.0</ele>
  <time>2026-08-28T17:54:38Z</time>
  <course>248.38</course>
  <speed>0.0</speed>
  <fix>3d</fix>
</trkpt>
<trkpt lat="40.0713749" lon="-105.229789">
  <ele>1583.0</ele>
  <time>2026-08-28T17:54:38Z</time>
  <course>0.0</course>
  <speed>0.0</speed>
  <fix>3d</fix>
</trkpt>
<trkpt lat="40.0713749" lon="-105.229789">
  <ele>1583.0</ele>
  <time>2026-08-28T17:54:38Z</time>
  <course>248.39</course>
  <speed>0.0</speed>
  <fix>3d</fix>
</trkpt>
<trkpt lat="40.0713749" lon="-105.229789">
  <ele>1583.0</ele>
  <time>2026-08-28T17:54:38Z</time>
  <course>0.0</course>
  <speed>0.0</speed>
  <fix>3d</fix>
</trkpt>
<trkpt lat="40.0713749" lon="-105.229789">
  <ele>1583.0</ele>
  <time>2026-08-28T17:54:38Z</time>
  <course>248.39</course>
  <speed>0.0</speed>
  <fix>3d</fix>
</trkpt>
<trkpt lat="40.0713749" lon="-105.229789">
  <ele>1583.0</ele>
  <time>2026-08-28T17:54:38Z</time>
  <course>0.0</course>
  <speed>0.0</speed>
  <fix>3d</fix>
</trkpt>
<trkpt lat="40.0713749" lon="-105.229789">
  <ele>1583.0</ele>
  <time>2026-08-28T17:54:38Z</time>
  <course>248.4</course>
  <speed>0.0</speed>
  <fix>3d</fix>
</trkpt>
<trkpt lat="40.0713749" lon="-105.229789">
  <ele>1583.0</ele>
  <time>2026-08-28T17:54:38Z</time>
  <course>0.0</course>
  <speed>0.0</speed>
  <fix>3d</fix>
</trkpt>
<trkpt lat="40.0713749" lon="-105.229789">
  <ele>1583.0</ele>
  <time>2026-08-28T17:54:38Z</time>
  <course>248.4</course>
  <speed>0.0</speed>
  <fix>3d</fix>
</trkpt>
<trkpt lat="40.0713749" lon="-105.229789">
  <ele>1583.0</ele>
  <time>2026-08-28T17:54:38Z</time>
  <course>0.0</course>
  <speed>0.0</speed>
  <fix>3d</fix>
</trkpt>
<trkpt lat="40.0713749" lon="-105.229789">
  <ele>1583.0</ele>
  <time>2026-08-28T17:54:38Z</time>
  <course>248.4</course>
  <speed>0.0</speed>
  <fix>3d</fix>
</trkpt>
<trkpt lat="40.0713749" lon="-105.229789">
  <ele>1583.0</ele>
  <time>2026-08-28T17:54:38Z</time>
  <course>0.0</course>
  <speed>0.0</speed>
  <fix>3d</fix>
</trkpt>
<trkpt lat="40.0713749" lon="-105.229789">
  <ele>1583.0</ele>
  <time>2026-08-28T17:54:38Z</time>
  <course>248.4</course>
  <speed>0.0</speed>
  <fix>3d</fix>
</trkpt>
<trkpt lat="40.0713749" lon="-105.229789">
  <ele>1583.0</ele>
  <time>2026-08-28T17:54:38Z</time>
  <course>0.0</course>
  <speed>0.0</speed>
  <fix>3d</fix>
</trkpt>
<trkpt lat="40.0713749" lon="-105.229789">
  <ele>1583.0</ele>
  <time>2026-08-28T17:54:38Z</time>
  <course>248.41</course>
  <speed>0.0</speed>
  <fix>3d</fix>
</trkpt>
<trkpt lat="40.0713749" lon="-105.229789">
  <ele>1583.0</ele>
  <time>2026-08-28T17:54:38Z</time>
  <course>0.0</course>
  <speed>0.0</speed>
  <fix>3d</fix>
</trkpt>
<trkpt lat="40.0713749" lon="-105.229789">
  <ele>1583.0</ele>
  <time>2026-08-28T17:54:38Z</time>
  <course>248.41</course>
  <speed>0.0</speed>
  <fix>3d</fix>
</trkpt>
<trkpt lat="40.0713749" lon="-105.229789">
  <ele>1583.0</ele>
  <time>2026-08-28T17:54:38Z</time>
  <course>0.0</course>
  <speed>0.0</speed>
  <fix>3d</fix>
</trkpt>
<trkpt lat="40.0713749" lon="-105.229789">
  <ele>1583.0</ele>
  <time>2026-08-28T17:54:38Z</time>
  <course>248.41</course>
  <speed>0.0</speed>
  <fix>3d</fix>
</trkpt>
<trkpt lat="40.0713749" lon="-105.229789">
  <ele>1583.0</ele>
  <time>2026-08-28T17:54:38Z</time>
  <course>0.0</course>
  <speed>0.0</speed>
  <fix>3d</fix>
</trkpt>
<trkpt lat="40.0713749" lon="-105.229789">
  <ele>1583.0</ele>
  <time>2026-08-28T17:54:38Z</time>
  <course>248.41</course>
  <speed>0.0</speed>
  <fix>3d</fix>
</trkpt>
<trkpt lat="40.0713749" lon="-105.229789">
  <ele>1583.0</ele>
  <time>2026-08-28T17:54:38Z</time>
  <course>0.0</course>
  <speed>0.0</speed>
  <fix>3d</fix>
</trkpt>
<trkpt lat="40.0713749" lon="-105.229789">
  <ele>1583.0</ele>
  <time>2026-08-28T17:54:38Z</time>
  <course>248.41</course>
  <speed>0.0</speed>
  <fix>3d</fix>
</trkpt>
<trkpt lat="40.0713749" lon="-105.229789">
  <ele>1583.0</ele>
  <time>2026-08-28T17:54:38Z</time>
  <course>0.0</course>
  <speed>0.0</speed>
  <fix>3d</fix>
</trkpt>
<trkpt lat="40.0713749" lon="-105.229789">
  <ele>1583.0</ele>
  <time>2026-08-28T17:54:38Z</time>
  <course>248.41</course>
  <speed>0.0</speed>
  <fix>3d</fix>
</trkpt>
<trkpt lat="40.0713749" lon="-105.229789">
  <ele>1583.0</ele>
  <time>2026-08-28T17:54:38Z</time>
  <course>0.0</course>
  <speed>0.0</speed>
  <fix>3d</fix>
</trkpt>
<trkpt lat="39.655741" lon="-104.1383097">
  <ele>1566.58</ele>
  <time>2026-08-28T17:54:39Z</time>
  <course>0.0</course>
  <speed>0.0</speed>
  <fix>3d</fix>
</trkpt>
<trkpt lat="40.0713749" lon="-105.229789">
  <ele>1583.0</ele>
  <time>2026-08-28T17:54:39Z</time>
  <course>0.0</course>
  <speed>0.0</speed>
  <fix>3d</fix>
</trkpt>
<trkpt lat="40.0713749" lon="-105.229789">
  <ele>1583.0</ele>
  <time>2026-08-28T17:54:39Z</time>
  <course>238.36</course>
  <speed>0.0</speed>
  <fix>3d</fix>
</trkpt>
<trkpt lat="40.0713749" lon="-105.229789">
  <ele>1583.0</ele>
  <time>2026-08-28T17:54:39Z</time>
  <course>0.0</course>
  <speed>0.0</speed>
  <fix>3d</fix>
</trkpt>
<trkpt lat="40.0713749" lon="-105.229789">
  <ele>1583.0</ele>
  <time>2026-08-28T17:54:39Z</time>
  <course>238.44</course>
  <speed>0.0</speed>
  <fix>3d</fix>
</trkpt>
<trkpt lat="40.0713749" lon="-105.229789">
  <ele>1583.0</ele>
  <time>2026-08-28T17:54:39Z</time>
  <course>0.0</course>
  <speed>0.0</speed>
  <fix>3d</fix>
</trkpt>
<trkpt lat="40.0713749" lon="-105.229789">
  <ele>1583.0</ele>
  <time>2026-08-28T17:54:39Z</time>
  <course>238.64</course>
  <speed>0.0</speed>
  <fix>3d</fix>
</trkpt>
<trkpt lat="40.0713749" lon="-105.229789">
  <ele>1583.0</ele>
  <time>2026-08-28T17:54:39Z</time>
  <course>0.0</course>
  <speed>0.0</speed>
  <fix>3d</fix>
</trkpt>
<trkpt lat="40.0713749" lon="-105.229789">
  <ele>1583.0</ele>
  <time>2026-08-28T17:54:39Z</time>
  <course>238.93</course>
  <speed>0.0</speed>
  <fix>3d</fix>
</trkpt>
<trkpt lat="40.0713749" lon="-105.229789">
  <ele>1583.0</ele>
  <time>2026-08-28T17:54:39Z</time>
  <course>0.0</course>
  <speed>0.0</speed>
  <fix>3d</fix>
</trkpt>
<trkpt lat="40.0713749" lon="-105.229789">
  <ele>1583.0</ele>
  <time>2026-08-28T17:54:39Z</time>
  <course>239.26</course>
  <speed>0.0</speed>
  <fix>3d</fix>
</trkpt>
<trkpt lat="40.0713749" lon="-105.229789">
  <ele>1583.0</ele>
  <time>2026-08-28T17:54:39Z</time>
  <course>0.0</course>
  <speed>0.0</speed>
  <fix>3d</fix>
</trkpt>
<trkpt lat="40.0713749" lon="-105.229789">
  <ele>1583.0</ele>
  <time>2026-08-28T17:54:39Z</time>
  <course>239.61</course>
  <speed>0.0</speed>
  <fix>3d</fix>
</trkpt>
<trkpt lat="40.0713749" lon="-105.229789">
  <ele>1583.0</ele>
  <time>2026-08-28T17:54:39Z</time>
  <course>0.0</course>
  <speed>0.0</speed>
  <fix>3d</fix>
</trkpt>
<trkpt lat="40.0713749" lon="-105.229789">
  <ele>1583.0</ele>
  <time>2026-08-28T17:54:39Z</time>
  <course>239.96</course>
  <speed>0.0</speed>
  <fix>3d</fix>
</trkpt>
<trkpt lat="40.0713749" lon="-105.229789">
  <ele>1583.0</ele>
  <time>2026-08-28T17:54:39Z</time>
  <course>0.0</course>
  <speed>0.0</speed>
  <fix>3d</fix>
</trkpt>
<trkpt lat="40.0713749" lon="-105.229789">
  <ele>1583.0</ele>
  <time>2026-08-28T17:54:39Z</time>
  <course>240.29</course>
  <speed>0.0</speed>
  <fix>3d</fix>
</trkpt>
<trkpt lat="40.0713749" lon="-105.229789">
  <ele>1583.0</ele>
  <time>2026-08-28T17:54:39Z</time>
  <course>0.0</course>
  <speed>0.0</speed>
  <fix>3d</fix>
</trkpt>
<trkpt lat="40.0713749" lon="-105.229789">
  <ele>1583.0</ele>
  <time>2026-08-28T17:54:39Z</time>
  <course>240.61</course>
  <speed>0.0</speed>
  <fix>3d</fix>
</trkpt>
<trkpt lat="40.0713749" lon="-105.229789">
  <ele>1583.0</ele>
  <time>2026-08-28T17:54:39Z</time>
  <course>0.0</course>
  <speed>0.0</speed>
  <fix>3d</fix>
</trkpt>
<trkpt lat="40.0713749" lon="-105.229789">
  <ele>1583.0</ele>
  <time>2026-08-28T17:54:39Z</time>
  <course>240.92</course>
  <speed>0.0</speed>
  <fix>3d</fix>
</trkpt>
<trkpt lat="40.0713749" lon="-105.229789">
  <ele>1583.0</ele>
  <time>2026-08-28T17:54:39Z</time>
  <course>0.0</course>
  <speed>0.0</speed>
  <fix>3d</fix>
</trkpt>
<trkpt lat="40.0713749" lon="-105.229789">
  <ele>1583.0</ele>
  <time>2026-08-28T17:54:39Z</time>
  <course>241.21</course>
  <speed>0.0</speed>
  <fix>3d</fix>
</trkpt>
<trkpt lat="40.0713749" lon="-105.229789">
  <ele>1583.0</ele>
  <time>2026-08-28T17:54:39Z</time>
  <course>0.0</course>
  <speed>0.0</speed>
  <fix>3d</fix>
</trkpt>
<trkpt lat="40.0713749" lon="-105.229789">
  <ele>1583.0</ele>
  <time>2026-08-28T17:54:39Z</time>
  <course>241.49</course>
  <speed>0.0</speed>
  <fix>3d</fix>
</trkpt>
<trkpt lat="40.0713749" lon="-105.229789">
  <ele>1583.0</ele>
  <time>2026-08-28T17:54:39Z</time>
  <course>0.0</course>
  <speed>0.0</speed>
  <fix>3d</fix>
</trkpt>
<trkpt lat="40.0713749" lon="-105.229789">
  <ele>1583.0</ele>
  <time>2026-08-28T17:54:39Z</time>
  <course>241.77</course>
  <speed>0.0</speed>
  <fix>3d</fix>
</trkpt>
<trkpt lat="40.0713749" lon="-105.229789">
  <ele>1583.0</ele>
  <time>2026-08-28T17:54:39Z</time>
  <course>0.0</course>
  <speed>0.0</speed>
  <fix>3d</fix>
</trkpt>
<trkpt lat="40.0713749" lon="-105.229789">
  <ele>1583.0</ele>
  <time>2026-08-28T17:54:39Z</time>
  <course>242.03</course>
  <speed>0.0</speed>
  <fix>3d</fix>
</trkpt>
<trkpt lat="40.0713749" lon="-105.229789">
  <ele>1583.0</ele>
  <time>2026-08-28T17:54:39Z</time>
  <course>0.0</course>
  <speed>0.0</speed>
  <fix>3d</fix>
</trkpt>
<trkpt lat="40.0713749" lon="-105.229789">
  <ele>1583.0</ele>
  <time>2026-08-28T17:54:39Z</time>
  <course>242.29</course>
  <speed>0.0</speed>
  <fix>3d</fix>
</trkpt>
<trkpt lat="40.0713749" lon="-105.229789">
  <ele>1583.0</ele>
  <time>2026-08-28T17:54:39Z</time>
  <course>0.0</course>
  <speed>0.0</speed>
  <fix>3d</fix>
</trkpt>
<trkpt lat="40.0713749" lon="-105.229789">
  <ele>1583.0</ele>
  <time>2026-08-28T17:54:39Z</time>
  <course>242.54</course>
  <speed>0.0</speed>
  <fix>3d</fix>
</trkpt>
<trkpt lat="40.0713749" lon="-105.229789">
  <ele>1583.0</ele>
  <time>2026-08-28T17:54:39Z</time>
  <course>0.0</course>
  <speed>0.0</speed>
  <fix>3d</fix>
</trkpt>
<trkpt lat="40.0713749" lon="-105.229789">
  <ele>1583.0</ele>
  <time>2026-08-28T17:54:39Z</time>
  <course>242.79</course>
  <speed>0.0</speed>
  <fix>3d</fix>
</trkpt>
<trkpt lat="40.0713749" lon="-105.229789">
  <ele>1583.0</ele>
  <time>2026-08-28T17:54:39Z</time>
  <course>0.0</course>
  <speed>0.0</speed>
  <fix>3d</fix>
</trkpt>
<trkpt lat="40.0713749" lon="-105.229789">
  <ele>1583.0</ele>
  <time>2026-08-28T17:54:39Z</time>
  <course>243.02</course>
  <speed>0.0</speed>
  <fix>3d</fix>
</trkpt>
<trkpt lat="40.0713749" lon="-105.229789">
  <ele>1583.0</ele>
  <time>2026-08-28T17:54:39Z</time>
  <course>0.0</course>
  <speed>0.0</speed>
  <fix>3d</fix>
</trkpt>
<trkpt lat="40.0713749" lon="-105.229789">
  <ele>1583.0</ele>
  <time>2026-08-28T17:54:39Z</time>
  <course>243.25</course>
  <speed>0.0</speed>
  <fix>3d</fix>
</trkpt>
<trkpt lat="40.0713749" lon="-105.229789">
  <ele>1583.0</ele>
  <time>2026-08-28T17:54:39Z</time>
  <course>0.0</course>
  <speed>0.0</speed>
  <fix>3d</fix>
</trkpt>
<trkpt lat="40.0713749" lon="-105.229789">
  <ele>1583.0</ele>
  <time>2026-08-28T17:54:39Z</time>
  <course>243.47</course>
  <speed>0.0</speed>
  <fix>3d</fix>
</trkpt>
<trkpt lat="40.0713749" lon="-105.229789">
  <ele>1583.0</ele>
  <time>2026-08-28T17:54:39Z</time>
  <course>0.0</course>
  <speed>0.0</speed>
  <fix>3d</fix>
</trkpt>
<trkpt lat="40.0713749" lon="-105.229789">
  <ele>1583.0</ele>
  <time>2026-08-28T17:54:39Z</time>
  <course>243.68</course>
  <speed>0.0</speed>
  <fix>3d</fix>
</trkpt>
<trkpt lat="40.0713749" lon="-105.229789">
  <ele>1583.0</ele>
  <time>2026-08-28T17:54:39Z</time>
  <course>0.0</course>
  <speed>0.0</speed>
  <fix>3d</fix>
</trkpt>
<trkpt lat="40.0713749" lon="-105.229789">
  <ele>1583.0</ele>
  <time>2026-08-28T17:54:39Z</time>
  <course>243.89</course>
  <speed>0.0</speed>
  <fix>3d</fix>
</trkpt>
<trkpt lat="40.0713749" lon="-105.229789">
  <ele>1583.0</ele>
  <time>2026-08-28T17:54:39Z</time>
  <course>0.0</course>
  <speed>0.0</speed>
  <fix>3d</fix>
</trkpt>
<trkpt lat="40.0713749" lon="-105.229789">
  <ele>1583.0</ele>
  <time>2026-08-28T17:54:39Z</time>
  <course>244.09</course>
  <speed>0.0</speed>
  <fix>3d</fix>
</trkpt>
<trkpt lat="40.0713749" lon="-105.229789">
  <ele>1583.0</ele>
  <time>2026-08-28T17:54:39Z</time>
  <course>0.0</course>
  <speed>0.0</speed>
  <fix>3d</fix>
</trkpt>
<trkpt lat="40.0713749" lon="-105.229789">
  <ele>1583.0</ele>
  <time>2026-08-28T17:54:39Z</time>
  <course>244.28</course>
  <speed>0.0</speed>
  <fix>3d</fix>
</trkpt>
<trkpt lat="40.0713749" lon="-105.229789">
  <ele>1583.0</ele>
  <time>2026-08-28T17:54:39Z</time>
  <course>0.0</course>
  <speed>0.0</speed>
  <fix>3d</fix>
</trkpt>
<trkpt lat="40.0713749" lon="-105.229789">
  <ele>1583.0</ele>
  <time>2026-08-28T17:54:39Z</time>
  <course>244.46</course>
  <speed>0.0</speed>
  <fix>3d</fix>
</trkpt>
<trkpt lat="40.0713749" lon="-105.229789">
  <ele>1583.0</ele>
  <time>2026-08-28T17:54:39Z</time>
  <course>0.0</course>
  <speed>0.0</speed>
  <fix>3d</fix>
</trkpt>
<trkpt lat="40.0713749" lon="-105.229789">
  <ele>1583.0</ele>
  <time>2026-08-28T17:54:39Z</time>
  <course>244.64</course>
  <speed>0.0</speed>
  <fix>3d</fix>
</trkpt>
<trkpt lat="40.0713749" lon="-105.229789">
  <ele>1583.0</ele>
  <time>2026-08-28T17:54:39Z</time>
  <course>0.0</course>
  <speed>0.0</speed>
  <fix>3d</fix>
</trkpt>
<trkpt lat="40.0713749" lon="-105.229789">
  <ele>1583.0</ele>
  <time>2026-08-28T17:54:39Z</time>
  <course>244.81</course>
  <speed>0.0</speed>
  <fix>3d</fix>
</trkpt>
<trkpt lat="40.0713749" lon="-105.229789">
  <ele>1583.0</ele>
  <time>2026-08-28T17:54:39Z</time>
  <course>0.0</course>
  <speed>0.0</speed>
  <fix>3d</fix>
</trkpt>
<trkpt lat="40.0713749" lon="-105.229789">
  <ele>1583.0</ele>
  <time>2026-08-28T17:54:39Z</time>
  <course>244.97</course>
  <speed>0.0</speed>
  <fix>3d</fix>
</trkpt>
<trkpt lat="40.0713749" lon="-105.229789">
  <ele>1583.0</ele>
  <time>2026-08-28T17:54:39Z</time>
  <course>0.0</course>
  <speed>0.0</speed>
  <fix>3d</fix>
</trkpt>
<trkpt lat="40.0713749" lon="-105.229789">
  <ele>1583.0</ele>
  <time>2026-08-28T17:54:39Z</time>
  <course>245.13</course>
  <speed>0.0</speed>
  <fix>3d</fix>
</trkpt>
<trkpt lat="40.0713749" lon="-105.229789">
  <ele>1583.0</ele>
  <time>2026-08-28T17:54:39Z</time>
  <course>0.0</course>
  <speed>0.0</speed>
  <fix>3d</fix>
</trkpt>
<trkpt lat="40.0713749" lon="-105.229789">
  <ele>1583.0</ele>
  <time>2026-08-28T17:54:39Z</time>
  <course>245.29</course>
  <speed>0.0</speed>
  <fix>3d</fix>
</trkpt>
<trkpt lat="40.0713749" lon="-105.229789">
  <ele>1583.0</ele>
  <time>2026-08-28T17:54:39Z</time>
  <course>0.0</course>
  <speed>0.0</speed>
  <fix>3d</fix>
</trkpt>
<trkpt lat="40.0713749" lon="-105.229789">
  <ele>1583.0</ele>
  <time>2026-08-28T17:54:39Z</time>
  <course>245.43</course>
  <speed>0.0</speed>
  <fix>3d</fix>
</trkpt>
<trkpt lat="40.0713749" lon="-105.229789">
  <ele>1583.0</ele>
  <time>2026-08-28T17:54:39Z</time>
  <course>0.0</course>
  <speed>0.0</speed>
  <fix>3d</fix>
</trkpt>
<trkpt lat="40.0713749" lon="-105.229789">
  <ele>1583.0</ele>
  <time>2026-08-28T17:54:39Z</time>
  <course>245.57</course>
  <speed>0.0</speed>
  <fix>3d</fix>
</trkpt>
<trkpt lat="40.0713749" lon="-105.229789">
  <ele>1583.0</ele>
  <time>2026-08-28T17:54:39Z</time>
  <course>0.0</course>
  <speed>0.0</speed>
  <fix>3d</fix>
</trkpt>
<trkpt lat="40.0713749" lon="-105.229789">
  <ele>1583.0</ele>
  <time>2026-08-28T17:54:39Z</time>
  <course>245.71</course>
  <speed>0.0</speed>
  <fix>3d</fix>
</trkpt>
<trkpt lat="40.0713749" lon="-105.229789">
  <ele>1583.0</ele>
  <time>2026-08-28T17:54:39Z</time>
  <course>0.0</course>
  <speed>0.0</speed>
  <fix>3d</fix>
</trkpt>
<trkpt lat="40.0713749" lon="-105.229789">
  <ele>1583.0</ele>
  <time>2026-08-28T17:54:39Z</time>
  <course>245.84</course>
  <speed>0.0</speed>
  <fix>3d</fix>
</trkpt>
<trkpt lat="40.0713749" lon="-105.229789">
  <ele>1583.0</ele>
  <time>2026-08-28T17:54:39Z</time>
  <course>0.0</course>
  <speed>0.0</speed>
  <fix>3d</fix>
</trkpt>
<trkpt lat="40.0713749" lon="-105.229789">
  <ele>1583.0</ele>
  <time>2026-08-28T17:54:39Z</time>
  <course>245.96</course>
  <speed>0.0</speed>
  <fix>3d</fix>
</trkpt>
<trkpt lat="40.0713749" lon="-105.229789">
  <ele>1583.0</ele>
  <time>2026-08-28T17:54:39Z</time>
  <course>0.0</course>
  <speed>0.0</speed>
  <fix>3d</fix>
</trkpt>
<trkpt lat="40.0713749" lon="-105.229789">
  <ele>1583.0</ele>
  <time>2026-08-28T17:54:39Z</time>
  <course>246.08</course>
  <speed>0.0</speed>
  <fix>3d</fix>
</trkpt>
<trkpt lat="40.0713749" lon="-105.229789">
  <ele>1583.0</ele>
  <time>2026-08-28T17:54:39Z</time>
  <course>0.0</course>
  <speed>0.0</speed>
  <fix>3d</fix>
</trkpt>
<trkpt lat="40.0713749" lon="-105.229789">
  <ele>1583.0</ele>
  <time>2026-08-28T17:54:39Z</time>
  <course>246.19</course>
  <speed>0.0</speed>
  <fix>3d</fix>
</trkpt>
<trkpt lat="40.0713749" lon="-105.229789">
  <ele>1583.0</ele>
  <time>2026-08-28T17:54:39Z</time>
  <course>0.0</course>
  <speed>0.0</speed>
  <fix>3d</fix>
</trkpt>
<trkpt lat="40.0713749" lon="-105.229789">
  <ele>1583.0</ele>
  <time>2026-08-28T17:54:39Z</time>
  <course>246.3</course>
  <speed>0.0</speed>
  <fix>3d</fix>
</trkpt>
<trkpt lat="40.0713749" lon="-105.229789">
  <ele>1583.0</ele>
  <time>2026-08-28T17:54:39Z</time>
  <course>0.0</course>
  <speed>0.0</speed>
  <fix>3d</fix>
</trkpt>
<trkpt lat="40.0713749" lon="-105.229789">
  <ele>1583.0</ele>
  <time>2026-08-28T17:54:39Z</time>
  <course>246.41</course>
  <speed>0.0</speed>
  <fix>3d</fix>
</trkpt>
<trkpt lat="40.0713749" lon="-105.229789">
  <ele>1583.0</ele>
  <time>2026-08-28T17:54:39Z</time>
  <course>0.0</course>
  <speed>0.0</speed>
  <fix>3d</fix>
</trkpt>
<trkpt lat="40.0713749" lon="-105.229789">
  <ele>1583.0</ele>
  <time>2026-08-28T17:54:39Z</time>
  <course>246.51</course>
  <speed>0.0</speed>
  <fix>3d</fix>
</trkpt>
<trkpt lat="40.0713749" lon="-105.229789">
  <ele>1583.0</ele>
  <time>2026-08-28T17:54:39Z</time>
  <course>0.0</course>
  <speed>0.0</speed>
  <fix>3d</fix>
</trkpt>
<trkpt lat="40.0713749" lon="-105.229789">
  <ele>1583.0</ele>
  <time>2026-08-28T17:54:39Z</time>
  <course>246.6</course>
  <speed>0.0</speed>
  <fix>3d</fix>
</trkpt>
<trkpt lat="40.0713749" lon="-105.229789">
  <ele>1583.0</ele>
  <time>2026-08-28T17:54:39Z</time>
  <course>0.0</course>
  <speed>0.0</speed>
  <fix>3d</fix>
</trkpt>
<trkpt lat="40.0713749" lon="-105.229789">
  <ele>1583.0</ele>
  <time>2026-08-28T17:54:39Z</time>
  <course>246.7</course>
  <speed>0.0</speed>
  <fix>3d</fix>
</trkpt>
<trkpt lat="40.0713749" lon="-105.229789">
  <ele>1583.0</ele>
  <time>2026-08-28T17:54:39Z</time>
  <course>0.0</course>
  <speed>0.0</speed>
  <fix>3d</fix>
</trkpt>
<trkpt lat="40.0713749" lon="-105.229789">
  <ele>1583.0</ele>
  <time>2026-08-28T17:54:39Z</time>
  <course>246.78</course>
  <speed>0.0</speed>
  <fix>3d</fix>
</trkpt>
<trkpt lat="40.0713749" lon="-105.229789">
  <ele>1583.0</ele>
  <time>2026-08-28T17:54:39Z</time>
  <course>0.0</course>
  <speed>0.0</speed>
  <fix>3d</fix>
</trkpt>
<trkpt lat="40.0713749" lon="-105.229789">
  <ele>1583.0</ele>
  <time>2026-08-28T17:54:39Z</time>
  <course>246.87</course>
  <speed>0.0</speed>
  <fix>3d</fix>
</trkpt>
<trkpt lat="40.0713749" lon="-105.229789">
  <ele>1583.0</ele>
  <time>2026-08-28T17:54:39Z</time>
  <course>0.0</course>
  <speed>0.0</speed>
  <fix>3d</fix>
</trkpt>
<trkpt lat="40.0713749" lon="-105.229789">
  <ele>1583.0</ele>
  <time>2026-08-28T17:54:39Z</time>
  <course>246.95</course>
  <speed>0.0</speed>
  <fix>3d</fix>
</trkpt>
<trkpt lat="40.0713749" lon="-105.229789">
  <ele>1583.0</ele>
  <time>2026-08-28T17:54:39Z</time>
  <course>0.0</course>
  <speed>0.0</speed>
  <fix>3d</fix>
</trkpt>
<trkpt lat="40.0713749" lon="-105.229789">
  <ele>1583.0</ele>
  <time>2026-08-28T17:54:39Z</time>
  <course>247.02</course>
  <speed>0.0</speed>
  <fix>3d</fix>
</trkpt>
<trkpt lat="40.0713749" lon="-105.229789">
  <ele>1583.0</ele>
  <time>2026-08-28T17:54:39Z</time>
  <course>0.0</course>
  <speed>0.0</speed>
  <fix>3d</fix>
</trkpt>
<trkpt lat="40.0713749" lon="-105.229789">
  <ele>1583.0</ele>
  <time>2026-08-28T17:54:39Z</time>
  <course>247.1</course>
  <speed>0.0</speed>
  <fix>3d</fix>
</trkpt>
<trkpt lat="40.0713749" lon="-105.229789">
  <ele>1583.0</ele>
  <time>2026-08-28T17:54:39Z</time>
  <course>0.0</course>
  <speed>0.0</speed>
  <fix>3d</fix>
</trkpt>
<trkpt lat="40.0713749" lon="-105.229789">
  <ele>1583.0</ele>
  <time>2026-08-28T17:54:39Z</time>
  <course>247.17</course>
  <speed>0.0</speed>
  <fix>3d</fix>
</trkpt>
<trkpt lat="40.0713749" lon="-105.229789">
  <ele>1583.0</ele>
  <time>2026-08-28T17:54:39Z</time>
  <course>0.0</course>
  <speed>0.0</speed>
  <fix>3d</fix>
</trkpt>
<trkpt lat="40.0713749" lon="-105.229789">
  <ele>1583.0</ele>
  <time>2026-08-28T17:54:39Z</time>
  <course>247.24</course>
  <speed>0.0</speed>
  <fix>3d</fix>
</trkpt>
<trkpt lat="40.0713749" lon="-105.229789">
  <ele>1583.0</ele>
  <time>2026-08-28T17:54:39Z</time>
  <course>0.0</course>
  <speed>0.0</speed>
  <fix>3d</fix>
</trkpt>
<trkpt lat="40.0713749" lon="-105.229789">
  <ele>1583.0</ele>
  <time>2026-08-28T17:54:39Z</time>
  <course>247.3</course>
  <speed>0.0</speed>
  <fix>3d</fix>
</trkpt>
<trkpt lat="40.0713749" lon="-105.229789">
  <ele>1583.0</ele>
  <time>2026-08-28T17:54:39Z</time>
  <course>0.0</course>
  <speed>0.0</speed>
  <fix>3d</fix>
</trkpt>
<trkpt lat="40.0713749" lon="-105.229789">
  <ele>1583.0</ele>
  <time>2026-08-28T17:54:39Z</time>
  <course>247.36</course>
  <speed>0.0</speed>
  <fix>3d</fix>
</trkpt>
<trkpt lat="40.0713749" lon="-105.229789">
  <ele>1583.0</ele>
  <time>2026-08-28T17:54:39Z</time>
  <course>0.0</course>
  <speed>0.0</speed>
  <fix>3d</fix>
</trkpt>
<trkpt lat="40.0713749" lon="-105.229789">
  <ele>1583.0</ele>
  <time>2026-08-28T17:54:39Z</time>
  <course>247.42</course>
  <speed>0.0</speed>
  <fix>3d</fix>
</trkpt>
<trkpt lat="40.0713749" lon="-105.229789">
  <ele>1583.0</ele>
  <time>2026-08-28T17:54:39Z</time>
  <course>0.0</course>
  <speed>0.0</speed>
  <fix>3d</fix>
</trkpt>
<trkpt lat="40.0713749" lon="-105.229789">
  <ele>1583.0</ele>
  <time>2026-08-28T17:54:39Z</time>
  <course>247.47</course>
  <speed>0.0</speed>
  <fix>3d</fix>
</trkpt>
<trkpt lat="40.0713749" lon="-105.229789">
  <ele>1583.0</ele>
  <time>2026-08-28T17:54:39Z</time>
  <course>0.0</course>
  <speed>0.0</speed>
  <fix>3d</fix>
</trkpt>
<trkpt lat="40.0713749" lon="-105.229789">
  <ele>1583.0</ele>
  <time>2026-08-28T17:54:39Z</time>
  <course>247.53</course>
  <speed>0.0</speed>
  <fix>3d</fix>
</trkpt>
<trkpt lat="40.0713749" lon="-105.229789">
  <ele>1583.0</ele>
  <time>2026-08-28T17:54:39Z</time>
  <course>0.0</course>
  <speed>0.0</speed>
  <fix>3d</fix>
</trkpt>
<trkpt lat="40.0713749" lon="-105.229789">
  <ele>1583.0</ele>
  <time>2026-08-28T17:54:39Z</time>
  <course>247.58</course>
  <speed>0.0</speed>
  <fix>3d</fix>
</trkpt>
<trkpt lat="40.0713749" lon="-105.229789">
  <ele>1583.0</ele>
  <time>2026-08-28T17:54:39Z</time>
  <course>0.0</course>
  <speed>0.0</speed>
  <fix>3d</fix>
</trkpt>
<trkpt lat="40.0713749" lon="-105.229789">
  <ele>1583.0</ele>
  <time>2026-08-28T17:54:39Z</time>
  <course>247.63</course>
  <speed>0.0</speed>
  <fix>3d</fix>
</trkpt>
<trkpt lat="40.0713749" lon="-105.229789">
  <ele>1583.0</ele>
  <time>2026-08-28T17:54:39Z</time>
  <course>0.0</course>
  <speed>0.0</speed>
  <fix>3d</fix>
</trkpt>
<trkpt lat="40.0713749" lon="-105.229789">
  <ele>1583.0</ele>
  <time>2026-08-28T17:54:39Z</time>
  <course>247.67</course>
  <speed>0.0</speed>
  <fix>3d</fix>
</trkpt>
<trkpt lat="40.0713749" lon="-105.229789">
  <ele>1583.0</ele>
  <time>2026-08-28T17:54:39Z</time>
  <course>0.0</course>
  <speed>0.0</speed>
  <fix>3d</fix>
</trkpt>
<trkpt lat="40.0713749" lon="-105.229789">
  <ele>1583.0</ele>
  <time>2026-08-28T17:54:39Z</time>
  <course>247.72</course>
  <speed>0.0</speed>
  <fix>3d</fix>
</trkpt>
<trkpt lat="40.0713749" lon="-105.229789">
  <ele>1583.0</ele>
  <time>2026-08-28T17:54:39Z</time>
  <course>0.0</course>
  <speed>0.0</speed>
  <fix>3d</fix>
</trkpt>
<trkpt lat="40.0713749" lon="-105.229789">
  <ele>1583.0</ele>
  <time>2026-08-28T17:54:39Z</time>
  <course>247.76</course>
  <speed>0.0</speed>
  <fix>3d</fix>
</trkpt>
<trkpt lat="40.0713749" lon="-105.229789">
  <ele>1583.0</ele>
  <time>2026-08-28T17:54:39Z</time>
  <course>0.0</course>
  <speed>0.0</speed>
  <fix>3d</fix>
</trkpt>
<trkpt lat="40.0713749" lon="-105.229789">
  <ele>1583.0</ele>
  <time>2026-08-28T17:54:39Z</time>
  <course>247.8</course>
  <speed>0.0</speed>
  <fix>3d</fix>
</trkpt>
<trkpt lat="40.0713749" lon="-105.229789">
  <ele>1583.0</ele>
  <time>2026-08-28T17:54:39Z</time>
  <course>0.0</course>
  <speed>0.0</speed>
  <fix>3d</fix>
</trkpt>
<trkpt lat="40.0713749" lon="-105.229789">
  <ele>1583.0</ele>
  <time>2026-08-28T17:54:39Z</time>
  <course>247.83</course>
  <speed>0.0</speed>
  <fix>3d</fix>
</trkpt>
<trkpt lat="40.0713749" lon="-105.229789">
  <ele>1583.0</ele>
  <time>2026-08-28T17:54:39Z</time>
  <course>0.0</course>
  <speed>0.0</speed>
  <fix>3d</fix>
</trkpt>
<trkpt lat="40.0713749" lon="-105.229789">
  <ele>1583.0</ele>
  <time>2026-08-28T17:54:39Z</time>
  <course>247.87</course>
  <speed>0.0</speed>
  <fix>3d</fix>
</trkpt>
<trkpt lat="40.0713749" lon="-105.229789">
  <ele>1583.0</ele>
  <time>2026-08-28T17:54:39Z</time>
  <course>0.0</course>
  <speed>0.0</speed>
  <fix>3d</fix>
</trkpt>
<trkpt lat="40.0713749" lon="-105.229789">
  <ele>1583.0</ele>
  <time>2026-08-28T17:54:39Z</time>
  <course>247.9</course>
  <speed>0.0</speed>
  <fix>3d</fix>
</trkpt>
<trkpt lat="40.0713749" lon="-105.229789">
  <ele>1583.0</ele>
  <time>2026-08-28T17:54:39Z</time>
  <course>0.0</course>
  <speed>0.0</speed>
  <fix>3d</fix>
</trkpt>
<trkpt lat="40.0713749" lon="-105.229789">
  <ele>1583.0</ele>
  <time>2026-08-28T17:54:39Z</time>
  <course>247.94</course>
  <speed>0.0</speed>
  <fix>3d</fix>
</trkpt>
<trkpt lat="40.0713749" lon="-105.229789">
  <ele>1583.0</ele>
  <time>2026-08-28T17:54:39Z</time>
  <course>0.0</course>
  <speed>0.0</speed>
  <fix>3d</fix>
</trkpt>
<trkpt lat="40.0713749" lon="-105.229789">
  <ele>1583.0</ele>
  <time>2026-08-28T17:54:39Z</time>
  <course>247.97</course>
  <speed>0.0</speed>
  <fix>3d</fix>
</trkpt>
<trkpt lat="40.0713749" lon="-105.229789">
  <ele>1583.0</ele>
  <time>2026-08-28T17:54:39Z</time>
  <course>0.0</course>
  <speed>0.0</speed>
  <fix>3d</fix>
</trkpt>
<trkpt lat="40.0713749" lon="-105.229789">
  <ele>1583.0</ele>
  <time>2026-08-28T17:54:39Z</time>
  <course>248.0</course>
  <speed>0.0</speed>
  <fix>3d</fix>
</trkpt>
<trkpt lat="40.0713749" lon="-105.229789">
  <ele>1583.0</ele>
  <time>2026-08-28T17:54:39Z</time>
  <course>0.0</course>
  <speed>0.0</speed>
  <fix>3d</fix>
</trkpt>
<trkpt lat="40.0713749" lon="-105.229789">
  <ele>1583.0</ele>
  <time>2026-08-28T17:54:39Z</time>
  <course>248.02</course>
  <speed>0.0</speed>
  <fix>3d</fix>
</trkpt>
<trkpt lat="40.0713749" lon="-105.229789">
  <ele>1583.0</ele>
  <time>2026-08-28T17:54:39Z</time>
  <course>0.0</course>
  <speed>0.0</speed>
  <fix>3d</fix>
</trkpt>
<trkpt lat="40.0713749" lon="-105.229789">
  <ele>1583.0</ele>
  <time>2026-08-28T17:54:39Z</time>
  <course>248.05</course>
  <speed>0.0</speed>
  <fix>3d</fix>
</trkpt>
<trkpt lat="40.0713749" lon="-105.229789">
  <ele>1583.0</ele>
  <time>2026-08-28T17:54:39Z</time>
  <course>0.0</course>
  <speed>0.0</speed>
  <fix>3d</fix>
</trkpt>
<trkpt lat="40.0713749" lon="-105.229789">
  <ele>1583.0</ele>
  <time>2026-08-28T17:54:39Z</time>
  <course>248.08</course>
  <speed>0.0</speed>
  <fix>3d</fix>
</trkpt>
<trkpt lat="40.0713749" lon="-105.229789">
  <ele>1583.0</ele>
  <time>2026-08-28T17:54:39Z</time>
  <course>0.0</course>
  <speed>0.0</speed>
  <fix>3d</fix>
</trkpt>
<trkpt lat="40.0713749" lon="-105.229789">
  <ele>1583.0</ele>
  <time>2026-08-28T17:54:39Z</time>
  <course>248.1</course>
  <speed>0.0</speed>
  <fix>3d</fix>
</trkpt>
<trkpt lat="40.0713749" lon="-105.229789">
  <ele>1583.0</ele>
  <time>2026-08-28T17:54:39Z</time>
  <course>0.0</course>
  <speed>0.0</speed>
  <fix>3d</fix>
</trkpt>
<trkpt lat="40.0713749" lon="-105.229789">
  <ele>1583.0</ele>
  <time>2026-08-28T17:54:39Z</time>
  <course>248.12</course>
  <speed>0.0</speed>
  <fix>3d</fix>
</trkpt>
<trkpt lat="40.0713749" lon="-105.229789">
  <ele>1583.0</ele>
  <time>2026-08-28T17:54:39Z</time>
  <course>0.0</course>
  <speed>0.0</speed>
  <fix>3d</fix>
</trkpt>
<trkpt lat="40.0713749" lon="-105.229789">
  <ele>1583.0</ele>
  <time>2026-08-28T17:54:39Z</time>
  <course>248.14</course>
  <speed>0.0</speed>
  <fix>3d</fix>
</trkpt>
<trkpt lat="40.0713749" lon="-105.229789">
  <ele>1583.0</ele>
  <time>2026-08-28T17:54:39Z</time>
  <course>0.0</course>
  <speed>0.0</speed>
  <fix>3d</fix>
</trkpt>
<trkpt lat="40.0713749" lon="-105.229789">
  <ele>1583.0</ele>
  <time>2026-08-28T17:54:39Z</time>
  <course>248.16</course>
  <speed>0.0</speed>
  <fix>3d</fix>
</trkpt>
<trkpt lat="40.0713749" lon="-105.229789">
  <ele>1583.0</ele>
  <time>2026-08-28T17:54:39Z</time>
  <course>0.0</course>
  <speed>0.0</speed>
  <fix>3d</fix>
</trkpt>
<trkpt lat="40.0713749" lon="-105.229789">
  <ele>1583.0</ele>
  <time>2026-08-28T17:54:39Z</time>
  <course>248.18</course>
  <speed>0.0</speed>
  <fix>3d</fix>
</trkpt>
<trkpt lat="40.0713749" lon="-105.229789">
  <ele>1583.0</ele>
  <time>2026-08-28T17:54:39Z</time>
  <course>0.0</course>
  <speed>0.0</speed>
  <fix>3d</fix>
</trkpt>
<trkpt lat="40.0713749" lon="-105.229789">
  <ele>1583.0</ele>
  <time>2026-08-28T17:54:39Z</time>
  <course>248.2</course>
  <speed>0.0</speed>
  <fix>3d</fix>
</trkpt>
<trkpt lat="40.0713749" lon="-105.229789">
  <ele>1583.0</ele>
  <time>2026-08-28T17:54:39Z</time>
  <course>0.0</course>
  <speed>0.0</speed>
  <fix>3d</fix>
</trkpt>
<trkpt lat="40.0713749" lon="-105.229789">
  <ele>1583.0</ele>
  <time>2026-08-28T17:54:39Z</time>
  <course>248.22</course>
  <speed>0.0</speed>
  <fix>3d</fix>
</trkpt>
<trkpt lat="40.0713749" lon="-105.229789">
  <ele>1583.0</ele>
  <time>2026-08-28T17:54:39Z</time>
  <course>0.0</course>
  <speed>0.0</speed>
  <fix>3d</fix>
</trkpt>
<trkpt lat="40.0713749" lon="-105.229789">
  <ele>1583.0</ele>
  <time>2026-08-28T17:54:39Z</time>
  <course>248.23</course>
  <speed>0.0</speed>
  <fix>3d</fix>
</trkpt>
<trkpt lat="40.0713749" lon="-105.229789">
  <ele>1583.0</ele>
  <time>2026-08-28T17:54:39Z</time>
  <course>0.0</course>
  <speed>0.0</speed>
  <fix>3d</fix>
</trkpt>
<trkpt lat="40.0713749" lon="-105.229789">
  <ele>1583.0</ele>
  <time>2026-08-28T17:54:39Z</time>
  <course>248.25</course>
  <speed>0.0</speed>
  <fix>3d</fix>
</trkpt>
<trkpt lat="40.0713749" lon="-105.229789">
  <ele>1583.0</ele>
  <time>2026-08-28T17:54:39Z</time>
  <course>0.0</course>
  <speed>0.0</speed>
  <fix>3d</fix>
</trkpt>
<trkpt lat="40.0713749" lon="-105.229789">
  <ele>1583.0</ele>
  <time>2026-08-28T17:54:39Z</time>
  <course>248.26</course>
  <speed>0.0</speed>
  <fix>3d</fix>
</trkpt>
<trkpt lat="40.0713749" lon="-105.229789">
  <ele>1583.0</ele>
  <time>2026-08-28T17:54:39Z</time>
  <course>0.0</course>
  <speed>0.0</speed>
  <fix>3d</fix>
</trkpt>
<trkpt lat="40.0713749" lon="-105.229789">
  <ele>1583.0</ele>
  <time>2026-08-28T17:54:39Z</time>
  <course>248.28</course>
  <speed>0.0</speed>
  <fix>3d</fix>
</trkpt>
<trkpt lat="40.0713749" lon="-105.229789">
  <ele>1583.0</ele>
  <time>2026-08-28T17:54:39Z</time>
  <course>0.0</course>
  <speed>0.0</speed>
  <fix>3d</fix>
</trkpt>
<trkpt lat="40.0713749" lon="-105.229789">
  <ele>1583.0</ele>
  <time>2026-08-28T17:54:39Z</time>
  <course>248.29</course>
  <speed>0.0</speed>
  <fix>3d</fix>
</trkpt>
<trkpt lat="40.0713749" lon="-105.229789">
  <ele>1583.0</ele>
  <time>2026-08-28T17:54:39Z</time>
  <course>0.0</course>
  <speed>0.0</speed>
  <fix>3d</fix>
</trkpt>
<trkpt lat="40.0713749" lon="-105.229789">
  <ele>1583.0</ele>
  <time>2026-08-28T17:54:39Z</time>
  <course>248.3</course>
  <speed>0.0</speed>
  <fix>3d</fix>
</trkpt>
<trkpt lat="40.0713749" lon="-105.229789">
  <ele>1583.0</ele>
  <time>2026-08-28T17:54:39Z</time>
  <course>0.0</course>
  <speed>0.0</speed>
  <fix>3d</fix>
</trkpt>
<trkpt lat="40.0713749" lon="-105.229789">
  <ele>1583.0</ele>
  <time>2026-08-28T17:54:39Z</time>
  <course>248.31</course>
  <speed>0.0</speed>
  <fix>3d</fix>
</trkpt>
<trkpt lat="40.0713749" lon="-105.229789">
  <ele>1583.0</ele>
  <time>2026-08-28T17:54:39Z</time>
  <course>0.0</course>
  <speed>0.0</speed>
  <fix>3d</fix>
</trkpt>
<trkpt lat="40.0713749" lon="-105.229789">
  <ele>1583.0</ele>
  <time>2026-08-28T17:54:39Z</time>
  <course>248.32</course>
  <speed>0.0</speed>
  <fix>3d</fix>
</trkpt>
<trkpt lat="40.0713749" lon="-105.229789">
  <ele>1583.0</ele>
  <time>2026-08-28T17:54:39Z</time>
  <course>0.0</course>
  <speed>0.0</speed>
  <fix>3d</fix>
</trkpt>
<trkpt lat="40.0713749" lon="-105.229789">
  <ele>1583.0</ele>
  <time>2026-08-28T17:54:39Z</time>
  <course>248.33</course>
  <speed>0.0</speed>
  <fix>3d</fix>
</trkpt>
<trkpt lat="40.0713749" lon="-105.229789">
  <ele>1583.0</ele>
  <time>2026-08-28T17:54:39Z</time>
  <course>0.0</course>
  <speed>0.0</speed>
  <fix>3d</fix>
</trkpt>
<trkpt lat="40.0713749" lon="-105.229789">
  <ele>1583.0</ele>
  <time>2026-08-28T17:54:39Z</time>
  <course>248.34</course>
  <speed>0.0</speed>
  <fix>3d</fix>
</trkpt>
<trkpt lat="40.0713749" lon="-105.229789">
  <ele>1583.0</ele>
  <time>2026-08-28T17:54:39Z</time>
  <course>0.0</course>
  <speed>0.0</speed>
  <fix>3d</fix>
</trkpt>
<trkpt lat="40.0713749" lon="-105.229789">
  <ele>1583.0</ele>
  <time>2026-08-28T17:54:39Z</time>
  <course>248.35</course>
  <speed>0.0</speed>
  <fix>3d</fix>
</trkpt>
<trkpt lat="40.0713749" lon="-105.229789">
  <ele>1583.0</ele>
  <time>2026-08-28T17:54:39Z</time>
  <course>0.0</course>
  <speed>0.0</speed>
  <fix>3d</fix>
</trkpt>
<trkpt lat="40.0713749" lon="-105.229789">
  <ele>1583.0</ele>
  <time>2026-08-28T17:54:39Z</time>
  <course>248.35</course>
  <speed>0.0</speed>
  <fix>3d</fix>
</trkpt>
<trkpt lat="40.0713749" lon="-105.229789">
  <ele>1583.0</ele>
  <time>2026-08-28T17:54:39Z</time>
  <course>0.0</course>
  <speed>0.0</speed>
  <fix>3d</fix>
</trkpt>
<trkpt lat="40.0713749" lon="-105.229789">
  <ele>1583.0</ele>
  <time>2026-08-28T17:54:39Z</time>
  <course>248.36</course>
  <speed>0.0</speed>
  <fix>3d</fix>
</trkpt>
<trkpt lat="40.0713749" lon="-105.229789">
  <ele>1583.0</ele>
  <time>2026-08-28T17:54:39Z</time>
  <course>0.0</course>
  <speed>0.0</speed>
  <fix>3d</fix>
</trkpt>
<trkpt lat="40.0713749" lon="-105.229789">
  <ele>1583.0</ele>
  <time>2026-08-28T17:54:39Z</time>
  <course>248.37</course>
  <speed>0.0</speed>
  <fix>3d</fix>
</trkpt>
<trkpt lat="40.0713749" lon="-105.229789">
  <ele>1583.0</ele>
  <time>2026-08-28T17:54:39Z</time>
  <course>0.0</course>
  <speed>0.0</speed>
  <fix>3d</fix>
</trkpt>
<trkpt lat="40.0713749" lon="-105.229789">
  <ele>1583.0</ele>
  <time>2026-08-28T17:54:39Z</time>
  <course>248.37</course>
  <speed>0.0</speed>
  <fix>3d</fix>
</trkpt>
<trkpt lat="40.0713749" lon="-105.229789">
  <ele>1583.0</ele>
  <time>2026-08-28T17:54:39Z</time>
  <course>0.0</course>
  <speed>0.0</speed>
  <fix>3d</fix>
</trkpt>
<trkpt lat="40.0713749" lon="-105.229789">
  <ele>1583.0</ele>
  <time>2026-08-28T17:54:39Z</time>
  <course>248.38</course>
  <speed>0.0</speed>
  <fix>3d</fix>
</trkpt>
<trkpt lat="40.0713749" lon="-105.229789">
  <ele>1583.0</ele>
  <time>2026-08-28T17:54:39Z</time>
  <course>0.0</course>
  <speed>0.0</speed>
  <fix>3d</fix>
</trkpt>
<trkpt lat="40.0713749" lon="-105.229789">
  <ele>1583.0</ele>
  <time>2026-08-28T17:54:39Z</time>
  <course>248.38</course>
  <speed>0.0</speed>
  <fix>3d</fix>
</trkpt>
<trkpt lat="40.0713749" lon="-105.229789">
  <ele>1583.0</ele>
  <time>2026-08-28T17:54:39Z</time>
  <course>0.0</course>
  <speed>0.0</speed>
  <fix>3d</fix>
</trkpt>
<trkpt lat="40.0713749" lon="-105.229789">
  <ele>1583.0</ele>
  <time>2026-08-28T17:54:39Z</time>
  <course>248.39</course>
  <speed>0.0</speed>
  <fix>3d</fix>
</trkpt>
<trkpt lat="40.0713749" lon="-105.229789">
  <ele>1583.0</ele>
  <time>2026-08-28T17:54:39Z</time>
  <course>0.0</course>
  <speed>0.0</speed>
  <fix>3d</fix>
</trkpt>
<trkpt lat="40.0713749" lon="-105.229789">
  <ele>1583.0</ele>
  <time>2026-08-28T17:54:39Z</time>
  <course>248.39</course>
  <speed>0.0</speed>
  <fix>3d</fix>
</trkpt>
<trkpt lat="40.0713749" lon="-105.229789">
  <ele>1583.0</ele>
  <time>2026-08-28T17:54:39Z</time>
  <course>0.0</course>
  <speed>0.0</speed>
  <fix>3d</fix>
</trkpt>
<trkpt lat="40.0713749" lon="-105.229789">
  <ele>1583.0</ele>
  <time>2026-08-28T17:54:39Z</time>
  <course>248.4</course>
  <speed>0.0</speed>
  <fix>3d</fix>
</trkpt>
<trkpt lat="40.0713749" lon="-105.229789">
  <ele>1583.0</ele>
  <time>2026-08-28T17:54:39Z</time>
  <course>0.0</course>
  <speed>0.0</speed>
  <fix>3d</fix>
</trkpt>
<trkpt lat="40.0713749" lon="-105.229789">
  <ele>1583.0</ele>
  <time>2026-08-28T17:54:39Z</time>
  <course>248.4</course>
  <speed>0.0</speed>
  <fix>3d</fix>
</trkpt>
<trkpt lat="40.0713749" lon="-105.229789">
  <ele>1583.0</ele>
  <time>2026-08-28T17:54:39Z</time>
  <course>0.0</course>
  <speed>0.0</speed>
  <fix>3d</fix>
</trkpt>
<trkpt lat="40.0713749" lon="-105.229789">
  <ele>1583.0</ele>
  <time>2026-08-28T17:54:39Z</time>
  <course>248.4</course>
  <speed>0.0</speed>
  <fix>3d</fix>
</trkpt>
<trkpt lat="40.0713749" lon="-105.229789">
  <ele>1583.0</ele>
  <time>2026-08-28T17:54:39Z</time>
  <course>0.0</course>
  <speed>0.0</speed>
  <fix>3d</fix>
</trkpt>
<trkpt lat="40.0713749" lon="-105.229789">
  <ele>1583.0</ele>
  <time>2026-08-28T17:54:39Z</time>
  <course>248.4</course>
  <speed>0.0</speed>
  <fix>3d</fix>
</trkpt>
<trkpt lat="40.0713749" lon="-105.229789">
  <ele>1583.0</ele>
  <time>2026-08-28T17:54:39Z</time>
  <course>0.0</course>
  <speed>0.0</speed>
  <fix>3d</fix>
</trkpt>
<trkpt lat="40.0713749" lon="-105.229789">
  <ele>1583.0</ele>
  <time>2026-08-28T17:54:39Z</time>
  <course>248.41</course>
  <speed>0.0</speed>
  <fix>3d</fix>
</trkpt>
<trkpt lat="40.0713749" lon="-105.229789">
  <ele>1583.0</ele>
  <time>2026-08-28T17:54:39Z</time>
  <course>0.0</course>
  <speed>0.0</speed>
  <fix>3d</fix>
</trkpt>
<trkpt lat="40.0713749" lon="-105.229789">
  <ele>1583.0</ele>
  <time>2026-08-28T17:54:39Z</time>
  <course>248.41</course>
  <speed>0.0</speed>
  <fix>3d</fix>
</trkpt>
<trkpt lat="40.0713749" lon="-105.229789">
  <ele>1583.0</ele>
  <time>2026-08-28T17:54:39Z</time>
  <course>0.0</course>
  <speed>0.0</speed>
  <fix>3d</fix>
</trkpt>
<trkpt lat="40.0713749" lon="-105.229789">
  <ele>1583.0</ele>
  <time>2026-08-28T17:54:39Z</time>
  <course>248.41</course>
  <speed>0.0</speed>
  <fix>3d</fix>
</trkpt>
<trkpt lat="40.0713749" lon="-105.229789">
  <ele>1583.0</ele>
  <time>2026-08-28T17:54:39Z</time>
  <course>0.0</course>
  <speed>0.0</speed>
  <fix>3d</fix>
</trkpt>
<trkpt lat="40.0713749" lon="-105.229789">
  <ele>1583.0</ele>
  <time>2026-08-28T17:54:39Z</time>
  <course>248.41</course>
  <speed>0.0</speed>
  <fix>3d</fix>
</trkpt>
<trkpt lat="40.0713749" lon="-105.229789">
  <ele>1583.0</ele>
  <time>2026-08-28T17:54:39Z</time>
  <course>0.0</course>
  <speed>0.0</speed>
  <fix>3d</fix>
</trkpt>
<trkpt lat="40.0713749" lon="-105.229789">
  <ele>1583.0</ele>
  <time>2026-08-28T17:54:39Z</time>
  <course>248.41</course>
  <speed>0.0</speed>
  <fix>3d</fix>
</trkpt>
<trkpt lat="40.0713749" lon="-105.229789">
  <ele>1583.0</ele>
  <time>2026-08-28T17:54:39Z</time>
  <course>0.0</course>
  <speed>0.0</speed>
  <fix>3d</fix>
</trkpt>
<trkpt lat="40.0713749" lon="-105.229789">
  <ele>1583.0</ele>
  <time>2026-08-28T17:54:39Z</time>
  <course>248.41</course>
  <speed>0.0</speed>
  <fix>3d</fix>
</trkpt>
<trkpt lat="40.0713749" lon="-105.229789">
  <ele>1583.0</ele>
  <time>2026-08-28T17:54:39Z</time>
  <course>0.0</course>
  <speed>0.0</speed>
  <fix>3d</fix>
</trkpt>
<trkpt lat="40.0713749" lon="-105.229789">
  <ele>1583.0</ele>
  <time>2026-08-28T17:54:39Z</time>
  <course>248.41</course>
  <speed>0.0</speed>
  <fix>3d</fix>
</trkpt>
<trkpt lat="40.0713749" lon="-105.229789">
  <ele>1583.0</ele>
  <time>2026-08-28T17:54:39Z</time>
  <course>0.0</course>
  <speed>0.0</speed>
  <fix>3d</fix>
</trkpt>
<trkpt lat="40.0713749" lon="-105.229789">
  <ele>1583.0</ele>
  <time>2026-08-28T17:54:39Z</time>
  <course>248.41</course>
  <speed>0.0</speed>
  <fix>3d</fix>
</trkpt>
<trkpt lat="40.0713749" lon="-105.229789">
  <ele>1583.0</ele>
  <time>2026-08-28T17:54:39Z</time>
  <course>0.0</course>
  <speed>0.0</speed>
  <fix>3d</fix>
</trkpt>
<trkpt lat="40.0713749" lon="-105.229789">
  <ele>1583.0</ele>
  <time>2026-08-28T17:54:39Z</time>
  <course>248.41</course>
  <speed>0.0</speed>
  <fix>3d</fix>
</trkpt>
<trkpt lat="40.0713749" lon="-105.229789">
  <ele>1583.0</ele>
  <time>2026-08-28T17:54:39Z</time>
  <course>0.0</course>
  <speed>0.0</speed>
  <fix>3d</fix>
</trkpt>
<trkpt lat="40.0713749" lon="-105.229789">
  <ele>1583.0</ele>
  <time>2026-08-28T17:54:39Z</time>
  <course>248.41</course>
  <speed>0.0</speed>
  <fix>3d</fix>
</trkpt>
<trkpt lat="40.0713749" lon="-105.229789">
  <ele>1583.0</ele>
  <time>2026-08-28T17:54:39Z</time>
  <course>0.0</course>
  <speed>0.0</speed>
  <fix>3d</fix>
</trkpt>
<trkpt lat="40.0713749" lon="-105.229789">
  <ele>1583.0</ele>
  <time>2026-08-28T17:54:39Z</time>
  <course>248.41</course>
  <speed>0.0</speed>
  <fix>3d</fix>
</trkpt>
<trkpt lat="40.0713749" lon="-105.229789">
  <ele>1583.0</ele>
  <time>2026-08-28T17:54:39Z</time>
  <course>0.0</course>
  <speed>0.0</speed>
  <fix>3d</fix>
</trkpt>
<trkpt lat="40.0713749" lon="-105.229789">
  <ele>1583.0</ele>
  <time>2026-08-28T17:54:39Z</time>
  <course>248.41</course>
  <speed>0.0</speed>
  <fix>3d</fix>
</trkpt>
<trkpt lat="40.0713749" lon="-105.229789">
  <ele>1583.0</ele>
  <time>2026-08-28T17:54:39Z</time>
  <course>0.0</course>
  <speed>0.0</speed>
  <fix>3d</fix>
</trkpt>
<trkpt lat="40.0713749" lon="-105.229789">
  <ele>1583.0</ele>
  <time>2026-08-28T17:54:39Z</time>
  <course>248.41</course>
  <speed>0.0</speed>
  <fix>3d</fix>
</trkpt>
<trkpt lat="40.0713749" lon="-105.229789">
  <ele>1583.0</ele>
  <time>2026-08-28T17:54:39Z</time>
  <course>0.0</course>
  <speed>0.0</speed>
  <fix>3d</fix>
</trkpt>
<trkpt lat="40.0713749" lon="-105.229789">
  <ele>1583.0</ele>
  <time>2026-08-28T17:54:39Z</time>
  <course>248.41</course>
  <speed>0.0</speed>
  <fix>3d</fix>
</trkpt>
<trkpt lat="40.0713749" lon="-105.229789">
  <ele>1583.0</ele>
  <time>2026-08-28T17:54:39Z</time>
  <course>0.0</course>
  <speed>0.0</speed>
  <fix>3d</fix>
</trkpt>
<trkpt lat="40.0713749" lon="-105.229789">
  <ele>1583.0</ele>
  <time>2026-08-28T17:54:39Z</time>
  <course>248.41</course>
  <speed>0.0</speed>
  <fix>3d</fix>
</trkpt>
<trkpt lat="40.0713749" lon="-105.229789">
  <ele>1583.0</ele>
  <time>2026-08-28T17:54:39Z</time>
  <course>0.0</course>
  <speed>0.0</speed>
  <fix>3d</fix>
</trkpt>
<trkpt lat="40.0713749" lon="-105.229789">
  <ele>1583.0</ele>
  <time>2026-08-28T17:54:39Z</time>
  <course>248.41</course>
  <speed>0.0</speed>
  <fix>3d</fix>
</trkpt>
<trkpt lat="40.0713749" lon="-105.229789">
  <ele>1583.0</ele>
  <time>2026-08-28T17:54:39Z</time>
  <course>0.0</course>
  <speed>0.0</speed>
  <fix>3d</fix>
</trkpt>
<trkpt lat="40.0713749" lon="-105.229789">
  <ele>1583.0</ele>
  <time>2026-08-28T17:54:39Z</time>
  <course>248.4</course>
  <speed>0.0</speed>
  <fix>3d</fix>
</trkpt>
<trkpt lat="40.0713749" lon="-105.229789">
  <ele>1583.0</ele>
  <time>2026-08-28T17:54:39Z</time>
  <course>0.0</course>
  <speed>0.0</speed>
  <fix>3d</fix>
</trkpt>
<trkpt lat="40.0713749" lon="-105.229789">
  <ele>1583.0</ele>
  <time>2026-08-28T17:54:39Z</time>
  <course>248.4</course>
  <speed>0.01</speed>
  <fix>3d</fix>
</trkpt>
<trkpt lat="40.0713749" lon="-105.229789">
  <ele>1583.0</ele>
  <time>2026-08-28T17:54:39Z</time>
  <course>0.0</course>
  <speed>0.0</speed>
  <fix>3d</fix>
</trkpt>
<trkpt lat="40.0713749" lon="-105.229789">
  <ele>1583.0</ele>
  <time>2026-08-28T17:54:39Z</time>
  <course>248.4</course>
  <speed>0.01</speed>
  <fix>3d</fix>
</trkpt>
<trkpt lat="40.0713749" lon="-105.229789">
  <ele>1583.0</ele>
  <time>2026-08-28T17:54:39Z</time>
  <course>0.0</course>
  <speed>0.0</speed>
  <fix>3d</fix>
</trkpt>
<trkpt lat="40.0713749" lon="-105.229789">
  <ele>1583.0</ele>
  <time>2026-08-28T17:54:39Z</time>
  <course>248.4</course>
  <speed>0.01</speed>
  <fix>3d</fix>
</trkpt>
<trkpt lat="40.0713749" lon="-105.229789">
  <ele>1583.0</ele>
  <time>2026-08-28T17:54:39Z</time>
  <course>0.0</course>
  <speed>0.0</speed>
  <fix>3d</fix>
</trkpt>
<trkpt lat="40.0713749" lon="-105.229789">
  <ele>1583.0</ele>
  <time>2026-08-28T17:54:39Z</time>
  <course>248.4</course>
  <speed>0.01</speed>
  <fix>3d</fix>
</trkpt>
<trkpt lat="40.0713749" lon="-105.229789">
  <ele>1583.0</ele>
  <time>2026-08-28T17:54:39Z</time>
  <course>0.0</course>
  <speed>0.0</speed>
  <fix>3d</fix>
</trkpt>
<trkpt lat="40.0713749" lon="-105.229789">
  <ele>1583.0</ele>
  <time>2026-08-28T17:54:39Z</time>
  <course>248.39</course>
  <speed>0.01</speed>
  <fix>3d</fix>
</trkpt>
<trkpt lat="40.0713749" lon="-105.229789">
  <ele>1583.0</ele>
  <time>2026-08-28T17:54:39Z</time>
  <course>0.0</course>
  <speed>0.0</speed>
  <fix>3d</fix>
</trkpt>
<trkpt lat="40.0713749" lon="-105.229789">
  <ele>1583.0</ele>
  <time>2026-08-28T17:54:39Z</time>
  <course>248.39</course>
  <speed>0.01</speed>
  <fix>3d</fix>
</trkpt>
<trkpt lat="40.0713749" lon="-105.229789">
  <ele>1583.0</ele>
  <time>2026-08-28T17:54:39Z</time>
  <course>0.0</course>
  <speed>0.0</speed>
  <fix>3d</fix>
</trkpt>
<trkpt lat="40.0713749" lon="-105.229789">
  <ele>1583.0</ele>
  <time>2026-08-28T17:54:39Z</time>
  <course>248.39</course>
  <speed>0.01</speed>
  <fix>3d</fix>
</trkpt>
<trkpt lat="40.0713749" lon="-105.229789">
  <ele>1583.0</ele>
  <time>2026-08-28T17:54:39Z</time>
  <course>0.0</course>
  <speed>0.0</speed>
  <fix>3d</fix>
</trkpt>
<trkpt lat="40.0713749" lon="-105.229789">
  <ele>1583.0</ele>
  <time>2026-08-28T17:54:39Z</time>
  <course>248.38</course>
  <speed>0.01</speed>
  <fix>3d</fix>
</trkpt>
<trkpt lat="40.0713749" lon="-105.229789">
  <ele>1583.0</ele>
  <time>2026-08-28T17:54:39Z</time>
  <course>0.0</course>
  <speed>0.0</speed>
  <fix>3d</fix>
</trkpt>
<trkpt lat="40.0713749" lon="-105.229789">
  <ele>1583.0</ele>
  <time>2026-08-28T17:54:39Z</time>
  <course>248.38</course>
  <speed>0.01</speed>
  <fix>3d</fix>
</trkpt>
<trkpt lat="40.0713749" lon="-105.229789">
  <ele>1583.0</ele>
  <time>2026-08-28T17:54:39Z</time>
  <course>0.0</course>
  <speed>0.0</speed>
  <fix>3d</fix>
</trkpt>
<trkpt lat="40.0713749" lon="-105.229789">
  <ele>1583.0</ele>
  <time>2026-08-28T17:54:39Z</time>
  <course>248.38</course>
  <speed>0.01</speed>
  <fix>3d</fix>
</trkpt>
<trkpt lat="40.0713749" lon="-105.229789">
  <ele>1583.0</ele>
  <time>2026-08-28T17:54:39Z</time>
  <course>0.0</course>
  <speed>0.0</speed>
  <fix>3d</fix>
</trkpt>
<trkpt lat="40.0713749" lon="-105.229789">
  <ele>1583.0</ele>
  <time>2026-08-28T17:54:39Z</time>
  <course>248.37</course>
  <speed>0.01</speed>
  <fix>3d</fix>
</trkpt>
<trkpt lat="40.0713749" lon="-105.229789">
  <ele>1583.0</ele>
  <time>2026-08-28T17:54:39Z</time>
  <course>0.0</course>
  <speed>0.0</speed>
  <fix>3d</fix>
</trkpt>
<trkpt lat="40.0713749" lon="-105.229789">
  <ele>1583.0</ele>
  <time>2026-08-28T17:54:39Z</time>
  <course>248.37</course>
  <speed>0.01</speed>
  <fix>3d</fix>
</trkpt>
<trkpt lat="40.0713749" lon="-105.229789">
  <ele>1583.0</ele>
  <time>2026-08-28T17:54:39Z</time>
  <course>0.0</course>
  <speed>0.0</speed>
  <fix>3d</fix>
</trkpt>
<trkpt lat="40.0713749" lon="-105.229789">
  <ele>1583.0</ele>
  <time>2026-08-28T17:54:39Z</time>
  <course>248.37</course>
  <speed>0.01</speed>
  <fix>3d</fix>
</trkpt>
<trkpt lat="40.0713749" lon="-105.229789">
  <ele>1583.0</ele>
  <time>2026-08-28T17:54:39Z</time>
  <course>0.0</course>
  <speed>0.0</speed>
  <fix>3d</fix>
</trkpt>
<trkpt lat="40.0713749" lon="-105.229789">
  <ele>1583.0</ele>
  <time>2026-08-28T17:54:39Z</time>
  <course>248.36</course>
  <speed>0.01</speed>
  <fix>3d</fix>
</trkpt>
<trkpt lat="40.0713749" lon="-105.229789">
  <ele>1583.0</ele>
  <time>2026-08-28T17:54:39Z</time>
  <course>0.0</course>
  <speed>0.0</speed>
  <fix>3d</fix>
</trkpt>
<trkpt lat="40.0713749" lon="-105.229789">
  <ele>1583.0</ele>
  <time>2026-08-28T17:54:39Z</time>
  <course>248.36</course>
  <speed>0.01</speed>
  <fix>3d</fix>
</trkpt>
<trkpt lat="40.0713749" lon="-105.229789">
  <ele>1583.0</ele>
  <time>2026-08-28T17:54:39Z</time>
  <course>0.0</course>
  <speed>0.0</speed>
  <fix>3d</fix>
</trkpt>
<trkpt lat="40.0713749" lon="-105.229789">
  <ele>1583.0</ele>
  <time>2026-08-28T17:54:39Z</time>
  <course>248.36</course>
  <speed>0.01</speed>
  <fix>3d</fix>
</trkpt>
<trkpt lat="40.0713749" lon="-105.229789">
  <ele>1583.0</ele>
  <time>2026-08-28T17:54:39Z</time>
  <course>0.0</course>
  <speed>0.0</speed>
  <fix>3d</fix>
</trkpt>
<trkpt lat="40.0713749" lon="-105.229789">
  <ele>1583.0</ele>
  <time>2026-08-28T17:54:39Z</time>
  <course>248.35</course>
  <speed>0.01</speed>
  <fix>3d</fix>
</trkpt>
<trkpt lat="40.0713749" lon="-105.229789">
  <ele>1583.0</ele>
  <time>2026-08-28T17:54:39Z</time>
  <course>0.0</course>
  <speed>0.0</speed>
  <fix>3d</fix>
</trkpt>
<trkpt lat="40.0713749" lon="-105.229789">
  <ele>1583.0</ele>
  <time>2026-08-28T17:54:39Z</time>
  <course>248.35</course>
  <speed>0.01</speed>
  <fix>3d</fix>
</trkpt>
<trkpt lat="40.0713749" lon="-105.229789">
  <ele>1583.0</ele>
  <time>2026-08-28T17:54:39Z</time>
  <course>0.0</course>
  <speed>0.0</speed>
  <fix>3d</fix>
</trkpt>
<trkpt lat="40.0713749" lon="-105.229789">
  <ele>1583.0</ele>
  <time>2026-08-28T17:54:39Z</time>
  <course>248.35</course>
  <speed>0.01</speed>
  <fix>3d</fix>
</trkpt>
<trkpt lat="40.0713749" lon="-105.229789">
  <ele>1583.0</ele>
  <time>2026-08-28T17:54:39Z</time>
  <course>0.0</course>
  <speed>0.0</speed>
  <fix>3d</fix>
</trkpt>
<trkpt lat="40.0713749" lon="-105.229789">
  <ele>1583.0</ele>
  <time>2026-08-28T17:54:39Z</time>
  <course>248.34</course>
  <speed>0.01</speed>
  <fix>3d</fix>
</trkpt>
<trkpt lat="40.0713749" lon="-105.229789">
  <ele>1583.0</ele>
  <time>2026-08-28T17:54:39Z</time>
  <course>0.0</course>
  <speed>0.0</speed>
  <fix>3d</fix>
</trkpt>
<trkpt lat="40.0713749" lon="-105.229789">
  <ele>1583.0</ele>
  <time>2026-08-28T17:54:39Z</time>
  <course>248.34</course>
  <speed>0.01</speed>
  <fix>3d</fix>
</trkpt>
<trkpt lat="40.0713749" lon="-105.229789">
  <ele>1583.0</ele>
  <time>2026-08-28T17:54:39Z</time>
  <course>0.0</course>
  <speed>0.0</speed>
  <fix>3d</fix>
</trkpt>
<trkpt lat="40.0713749" lon="-105.229789">
  <ele>1583.0</ele>
  <time>2026-08-28T17:54:39Z</time>
  <course>248.33</course>
  <speed>0.01</speed>
  <fix>3d</fix>
</trkpt>
<trkpt lat="40.0713749" lon="-105.229789">
  <ele>1583.0</ele>
  <time>2026-08-28T17:54:39Z</time>
  <course>0.0</course>
  <speed>0.0</speed>
  <fix>3d</fix>
</trkpt>
<trkpt lat="40.0713749" lon="-105.229789">
  <ele>1583.0</ele>
  <time>2026-08-28T17:54:39Z</time>
  <course>248.33</course>
  <speed>0.01</speed>
  <fix>3d</fix>
</trkpt>
<trkpt lat="40.0713749" lon="-105.229789">
  <ele>1583.0</ele>
  <time>2026-08-28T17:54:39Z</time>
  <course>0.0</course>
  <speed>0.0</speed>
  <fix>3d</fix>
</trkpt>
<trkpt lat="40.0713749" lon="-105.229789">
  <ele>1583.0</ele>
  <time>2026-08-28T17:54:39Z</time>
  <course>248.32</course>
  <speed>0.01</speed>
  <fix>3d</fix>
</trkpt>
<trkpt lat="40.0713749" lon="-105.229789">
  <ele>1583.0</ele>
  <time>2026-08-28T17:54:39Z</time>
  <course>0.0</course>
  <speed>0.0</speed>
  <fix>3d</fix>
</trkpt>
<trkpt lat="40.0713749" lon="-105.229789">
  <ele>1583.0</ele>
  <time>2026-08-28T17:54:39Z</time>
  <course>248.32</course>
  <speed>0.01</speed>
  <fix>3d</fix>
</trkpt>
<trkpt lat="40.0713749" lon="-105.229789">
  <ele>1583.0</ele>
  <time>2026-08-28T17:54:39Z</time>
  <course>0.0</course>
  <speed>0.0</speed>
  <fix>3d</fix>
</trkpt>
<trkpt lat="40.0713749" lon="-105.229789">
  <ele>1583.0</ele>
  <time>2026-08-28T17:54:39Z</time>
  <course>248.32</course>
  <speed>0.01</speed>
  <fix>3d</fix>
</trkpt>
<trkpt lat="40.0713749" lon="-105.229789">
  <ele>1583.0</ele>
  <time>2026-08-28T17:54:39Z</time>
  <course>0.0</course>
  <speed>0.0</speed>
  <fix>3d</fix>
</trkpt>
<trkpt lat="40.0713749" lon="-105.229789">
  <ele>1583.0</ele>
  <time>2026-08-28T17:54:39Z</time>
  <course>248.31</course>
  <speed>0.01</speed>
  <fix>3d</fix>
</trkpt>
<trkpt lat="40.0713749" lon="-105.229789">
  <ele>1583.0</ele>
  <time>2026-08-28T17:54:39Z</time>
  <course>0.0</course>
  <speed>0.0</speed>
  <fix>3d</fix>
</trkpt>
<trkpt lat="40.0713749" lon="-105.229789">
  <ele>1583.0</ele>
  <time>2026-08-28T17:54:39Z</time>
  <course>248.31</course>
  <speed>0.01</speed>
  <fix>3d</fix>
</trkpt>
<trkpt lat="40.0713749" lon="-105.229789">
  <ele>1583.0</ele>
  <time>2026-08-28T17:54:39Z</time>
  <course>0.0</course>
  <speed>0.0</speed>
  <fix>3d</fix>
</trkpt>
<trkpt lat="40.0713749" lon="-105.229789">
  <ele>1583.0</ele>
  <time>2026-08-28T17:54:39Z</time>
  <course>248.3</course>
  <speed>0.01</speed>
  <fix>3d</fix>
</trkpt>
<trkpt lat="40.0713749" lon="-105.229789">
  <ele>1583.0</ele>
  <time>2026-08-28T17:54:39Z</time>
  <course>0.0</course>
  <speed>0.0</speed>
  <fix>3d</fix>
</trkpt>
<trkpt lat="40.0713749" lon="-105.229789">
  <ele>1583.0</ele>
  <time>2026-08-28T17:54:39Z</time>
  <course>248.3</course>
  <speed>0.01</speed>
  <fix>3d</fix>
</trkpt>
<trkpt lat="40.0713749" lon="-105.229789">
  <ele>1583.0</ele>
  <time>2026-08-28T17:54:39Z</time>
  <course>0.0</course>
  <speed>0.0</speed>
  <fix>3d</fix>
</trkpt>
<trkpt lat="40.0713749" lon="-105.229789">
  <ele>1583.0</ele>
  <time>2026-08-28T17:54:39Z</time>
  <course>248.29</course>
  <speed>0.01</speed>
  <fix>3d</fix>
</trkpt>
<trkpt lat="40.0713749" lon="-105.229789">
  <ele>1583.0</ele>
  <time>2026-08-28T17:54:39Z</time>
  <course>0.0</course>
  <speed>0.0</speed>
  <fix>3d</fix>
</trkpt>
<trkpt lat="40.0713749" lon="-105.229789">
  <ele>1583.0</ele>
  <time>2026-08-28T17:54:39Z</time>
  <course>248.29</course>
  <speed>0.01</speed>
  <fix>3d</fix>
</trkpt>
<trkpt lat="40.0713749" lon="-105.229789">
  <ele>1583.0</ele>
  <time>2026-08-28T17:54:39Z</time>
  <course>0.0</course>
  <speed>0.0</speed>
  <fix>3d</fix>
</trkpt>
<trkpt lat="40.0713749" lon="-105.229789">
  <ele>1583.0</ele>
  <time>2026-08-28T17:54:39Z</time>
  <course>248.28</course>
  <speed>0.01</speed>
  <fix>3d</fix>
</trkpt>
<trkpt lat="40.0713749" lon="-105.229789">
  <ele>1583.0</ele>
  <time>2026-08-28T17:54:39Z</time>
  <course>0.0</course>
  <speed>0.0</speed>
  <fix>3d</fix>
</trkpt>
<trkpt lat="40.0713749" lon="-105.229789">
  <ele>1583.0</ele>
  <time>2026-08-28T17:54:39Z</time>
  <course>248.28</course>
  <speed>0.01</speed>
  <fix>3d</fix>
</trkpt>
<trkpt lat="40.0713749" lon="-105.229789">
  <ele>1583.0</ele>
  <time>2026-08-28T17:54:39Z</time>
  <course>0.0</course>
  <speed>0.0</speed>
  <fix>3d</fix>
</trkpt>
<trkpt lat="40.0713749" lon="-105.229789">
  <ele>1583.0</ele>
  <time>2026-08-28T17:54:39Z</time>
  <course>248.27</course>
  <speed>0.01</speed>
  <fix>3d</fix>
</trkpt>
<trkpt lat="40.0713749" lon="-105.229789">
  <ele>1583.0</ele>
  <time>2026-08-28T17:54:39Z</time>
  <course>0.0</course>
  <speed>0.0</speed>
  <fix>3d</fix>
</trkpt>
<trkpt lat="40.0713749" lon="-105.229789">
  <ele>1583.0</ele>
  <time>2026-08-28T17:54:39Z</time>
  <course>248.27</course>
  <speed>0.01</speed>
  <fix>3d</fix>
</trkpt>
<trkpt lat="40.0713749" lon="-105.229789">
  <ele>1583.0</ele>
  <time>2026-08-28T17:54:39Z</time>
  <course>0.0</course>
  <speed>0.0</speed>
  <fix>3d</fix>
</trkpt>
<trkpt lat="40.0713749" lon="-105.229789">
  <ele>1583.0</ele>
  <time>2026-08-28T17:54:39Z</time>
  <course>248.26</course>
  <speed>0.01</speed>
  <fix>3d</fix>
</trkpt>
<trkpt lat="40.0713749" lon="-105.229789">
  <ele>1583.0</ele>
  <time>2026-08-28T17:54:39Z</time>
  <course>0.0</course>
  <speed>0.0</speed>
  <fix>3d</fix>
</trkpt>
<trkpt lat="40.0713749" lon="-105.229789">
  <ele>1583.0</ele>
  <time>2026-08-28T17:54:39Z</time>
  <course>248.26</course>
  <speed>0.01</speed>
  <fix>3d</fix>
</trkpt>
<trkpt lat="40.0713749" lon="-105.229789">
  <ele>1583.0</ele>
  <time>2026-08-28T17:54:39Z</time>
  <course>0.0</course>
  <speed>0.0</speed>
  <fix>3d</fix>
</trkpt>
<trkpt lat="40.0713749" lon="-105.229789">
  <ele>1583.0</ele>
  <time>2026-08-28T17:54:39Z</time>
  <course>248.26</course>
  <speed>0.01</speed>
  <fix>3d</fix>
</trkpt>
<trkpt lat="40.0713749" lon="-105.229789">
  <ele>1583.0</ele>
  <time>2026-08-28T17:54:39Z</time>
  <course>0.0</course>
  <speed>0.0</speed>
  <fix>3d</fix>
</trkpt>
<trkpt lat="40.0713749" lon="-105.229789">
  <ele>1583.0</ele>
  <time>2026-08-28T17:54:39Z</time>
  <course>248.25</course>
  <speed>0.01</speed>
  <fix>3d</fix>
</trkpt>
<trkpt lat="40.0713749" lon="-105.229789">
  <ele>1583.0</ele>
  <time>2026-08-28T17:54:39Z</time>
  <course>0.0</course>
  <speed>0.0</speed>
  <fix>3d</fix>
</trkpt>
<trkpt lat="40.0713749" lon="-105.229789">
  <ele>1583.0</ele>
  <time>2026-08-28T17:54:39Z</time>
  <course>248.25</course>
  <speed>0.01</speed>
  <fix>3d</fix>
</trkpt>
<trkpt lat="40.0713749" lon="-105.229789">
  <ele>1583.0</ele>
  <time>2026-08-28T17:54:39Z</time>
  <course>0.0</course>
  <speed>0.0</speed>
  <fix>3d</fix>
</trkpt>
<trkpt lat="40.0713749" lon="-105.229789">
  <ele>1583.0</ele>
  <time>2026-08-28T17:54:39Z</time>
  <course>248.24</course>
  <speed>0.01</speed>
  <fix>3d</fix>
</trkpt>
<trkpt lat="40.0713749" lon="-105.229789">
  <ele>1583.0</ele>
  <time>2026-08-28T17:54:39Z</time>
  <course>0.0</course>
  <speed>0.0</speed>
  <fix>3d</fix>
</trkpt>
<trkpt lat="40.0713749" lon="-105.229789">
  <ele>1583.0</ele>
  <time>2026-08-28T17:54:39Z</time>
  <course>248.24</course>
  <speed>0.01</speed>
  <fix>3d</fix>
</trkpt>
<trkpt lat="40.0713749" lon="-105.229789">
  <ele>1583.0</ele>
  <time>2026-08-28T17:54:39Z</time>
  <course>0.0</course>
  <speed>0.0</speed>
  <fix>3d</fix>
</trkpt>
<trkpt lat="40.0713749" lon="-105.229789">
  <ele>1583.0</ele>
  <time>2026-08-28T17:54:39Z</time>
  <course>248.23</course>
  <speed>0.01</speed>
  <fix>3d</fix>
</trkpt>
<trkpt lat="40.0713749" lon="-105.229789">
  <ele>1583.0</ele>
  <time>2026-08-28T17:54:39Z</time>
  <course>0.0</course>
  <speed>0.0</speed>
  <fix>3d</fix>
</trkpt>
<trkpt lat="40.0713749" lon="-105.229789">
  <ele>1583.0</ele>
  <time>2026-08-28T17:54:39Z</time>
  <course>248.23</course>
  <speed>0.01</speed>
  <fix>3d</fix>
</trkpt>
<trkpt lat="40.0713749" lon="-105.229789">
  <ele>1583.0</ele>
  <time>2026-08-28T17:54:39Z</time>
  <course>0.0</course>
  <speed>0.0</speed>
  <fix>3d</fix>
</trkpt>
<trkpt lat="40.0713749" lon="-105.229789">
  <ele>1583.0</ele>
  <time>2026-08-28T17:54:39Z</time>
  <course>248.22</course>
  <speed>0.01</speed>
  <fix>3d</fix>
</trkpt>
<trkpt lat="40.0713749" lon="-105.229789">
  <ele>1583.0</ele>
  <time>2026-08-28T17:54:39Z</time>
  <course>0.0</course>
  <speed>0.0</speed>
  <fix>3d</fix>
</trkpt>
<trkpt lat="40.0713749" lon="-105.229789">
  <ele>1583.0</ele>
  <time>2026-08-28T17:54:39Z</time>
  <course>248.22</course>
  <speed>0.01</speed>
  <fix>3d</fix>
</trkpt>
<trkpt lat="40.0713749" lon="-105.229789">
  <ele>1583.0</ele>
  <time>2026-08-28T17:54:39Z</time>
  <course>0.0</course>
  <speed>0.0</speed>
  <fix>3d</fix>
</trkpt>
<trkpt lat="40.0713749" lon="-105.229789">
  <ele>1583.0</ele>
  <time>2026-08-28T17:54:39Z</time>
  <course>248.21</course>
  <speed>0.01</speed>
  <fix>3d</fix>
</trkpt>
<trkpt lat="40.0713749" lon="-105.229789">
  <ele>1583.0</ele>
  <time>2026-08-28T17:54:39Z</time>
  <course>0.0</course>
  <speed>0.0</speed>
  <fix>3d</fix>
</trkpt>
<trkpt lat="40.0713749" lon="-105.229789">
  <ele>1583.0</ele>
  <time>2026-08-28T17:54:39Z</time>
  <course>248.21</course>
  <speed>0.01</speed>
  <fix>3d</fix>
</trkpt>
<trkpt lat="40.0713749" lon="-105.229789">
  <ele>1583.0</ele>
  <time>2026-08-28T17:54:39Z</time>
  <course>0.0</course>
  <speed>0.0</speed>
  <fix>3d</fix>
</trkpt>
<trkpt lat="40.0713749" lon="-105.229789">
  <ele>1583.0</ele>
  <time>2026-08-28T17:54:39Z</time>
  <course>248.2</course>
  <speed>0.01</speed>
  <fix>3d</fix>
</trkpt>
<trkpt lat="40.0713749" lon="-105.229789">
  <ele>1583.0</ele>
  <time>2026-08-28T17:54:39Z</time>
  <course>0.0</course>
  <speed>0.0</speed>
  <fix>3d</fix>
</trkpt>
<trkpt lat="40.0713749" lon="-105.229789">
  <ele>1583.0</ele>
  <time>2026-08-28T17:54:39Z</time>
  <course>248.2</course>
  <speed>0.01</speed>
  <fix>3d</fix>
</trkpt>
<trkpt lat="40.0713749" lon="-105.229789">
  <ele>1583.0</ele>
  <time>2026-08-28T17:54:39Z</time>
  <course>0.0</course>
  <speed>0.0</speed>
  <fix>3d</fix>
</trkpt>
<trkpt lat="40.0713749" lon="-105.229789">
  <ele>1583.0</ele>
  <time>2026-08-28T17:54:39Z</time>
  <course>248.19</course>
  <speed>0.01</speed>
  <fix>3d</fix>
</trkpt>
<trkpt lat="40.0713749" lon="-105.229789">
  <ele>1583.0</ele>
  <time>2026-08-28T17:54:39Z</time>
  <course>0.0</course>
  <speed>0.0</speed>
  <fix>3d</fix>
</trkpt>
<trkpt lat="40.0713749" lon="-105.229789">
  <ele>1583.0</ele>
  <time>2026-08-28T17:54:39Z</time>
  <course>248.19</course>
  <speed>0.01</speed>
  <fix>3d</fix>
</trkpt>
<trkpt lat="40.0713749" lon="-105.229789">
  <ele>1583.0</ele>
  <time>2026-08-28T17:54:39Z</time>
  <course>0.0</course>
  <speed>0.0</speed>
  <fix>3d</fix>
</trkpt>
<trkpt lat="40.0713749" lon="-105.229789">
  <ele>1583.0</ele>
  <time>2026-08-28T17:54:39Z</time>
  <course>248.18</course>
  <speed>0.01</speed>
  <fix>3d</fix>
</trkpt>
<trkpt lat="40.0713749" lon="-105.229789">
  <ele>1583.0</ele>
  <time>2026-08-28T17:54:39Z</time>
  <course>0.0</course>
  <speed>0.0</speed>
  <fix>3d</fix>
</trkpt>
<trkpt lat="40.0713749" lon="-105.229789">
  <ele>1583.0</ele>
  <time>2026-08-28T17:54:39Z</time>
  <course>248.18</course>
  <speed>0.01</speed>
  <fix>3d</fix>
</trkpt>
<trkpt lat="40.0713749" lon="-105.229789">
  <ele>1583.0</ele>
  <time>2026-08-28T17:54:39Z</time>
  <course>0.0</course>
  <speed>0.0</speed>
  <fix>3d</fix>
</trkpt>
<trkpt lat="40.0713749" lon="-105.229789">
  <ele>1583.0</ele>
  <time>2026-08-28T17:54:39Z</time>
  <course>248.17</course>
  <speed>0.022360679774997897</speed>
  <fix>3d</fix>
</trkpt>
<trkpt lat="40.0713749" lon="-105.229789">
  <ele>1583.0</ele>
  <time>2026-08-28T17:54:39Z</time>
  <course>0.0</course>
  <speed>0.0</speed>
  <fix>3d</fix>
</trkpt>
<trkpt lat="40.0713749" lon="-105.229789">
  <ele>1583.0</ele>
  <time>2026-08-28T17:54:39Z</time>
  <course>248.17</course>
  <speed>0.022360679774997897</speed>
  <fix>3d</fix>
</trkpt>
<trkpt lat="40.0713749" lon="-105.229789">
  <ele>1583.0</ele>
  <time>2026-08-28T17:54:39Z</time>
  <course>0.0</course>
  <speed>0.0</speed>
  <fix>3d</fix>
</trkpt>
<trkpt lat="40.0713749" lon="-105.229789">
  <ele>1583.0</ele>
  <time>2026-08-28T17:54:39Z</time>
  <course>248.16</course>
  <speed>0.022360679774997897</speed>
  <fix>3d</fix>
</trkpt>
<trkpt lat="40.0713749" lon="-105.229789">
  <ele>1583.0</ele>
  <time>2026-08-28T17:54:39Z</time>
  <course>0.0</course>
  <speed>0.0</speed>
  <fix>3d</fix>
</trkpt>
<trkpt lat="40.0713749" lon="-105.229789">
  <ele>1583.0</ele>
  <time>2026-08-28T17:54:39Z</time>
  <course>248.16</course>
  <speed>0.022360679774997897</speed>
  <fix>3d</fix>
</trkpt>
<trkpt lat="40.0713749" lon="-105.229789">
  <ele>1583.0</ele>
  <time>2026-08-28T17:54:39Z</time>
  <course>0.0</course>
  <speed>0.0</speed>
  <fix>3d</fix>
</trkpt>
<trkpt lat="40.0713749" lon="-105.229789">
  <ele>1583.0</ele>
  <time>2026-08-28T17:54:39Z</time>
  <course>248.15</course>
  <speed>0.022360679774997897</speed>
  <fix>3d</fix>
</trkpt>
<trkpt lat="40.0713749" lon="-105.229789">
  <ele>1583.0</ele>
  <time>2026-08-28T17:54:39Z</time>
  <course>0.0</course>
  <speed>0.0</speed>
  <fix>3d</fix>
</trkpt>
<trkpt lat="40.0713749" lon="-105.229789">
  <ele>1583.0</ele>
  <time>2026-08-28T17:54:39Z</time>
  <course>248.15</course>
  <speed>0.022360679774997897</speed>
  <fix>3d</fix>
</trkpt>
<trkpt lat="40.0713749" lon="-105.229789">
  <ele>1583.0</ele>
  <time>2026-08-28T17:54:39Z</time>
  <course>0.0</course>
  <speed>0.0</speed>
  <fix>3d</fix>
</trkpt>
<trkpt lat="40.0713749" lon="-105.229789">
  <ele>1583.0</ele>
  <time>2026-08-28T17:54:39Z</time>
  <course>248.14</course>
  <speed>0.022360679774997897</speed>
  <fix>3d</fix>
</trkpt>
<trkpt lat="40.0713749" lon="-105.229789">
  <ele>1583.0</ele>
  <time>2026-08-28T17:54:39Z</time>
  <course>0.0</course>
  <speed>0.0</speed>
  <fix>3d</fix>
</trkpt>
<trkpt lat="40.0713749" lon="-105.229789">
  <ele>1583.0</ele>
  <time>2026-08-28T17:54:39Z</time>
  <course>248.14</course>
  <speed>0.022360679774997897</speed>
  <fix>3d</fix>
</trkpt>
<trkpt lat="40.0713749" lon="-105.229789">
  <ele>1583.0</ele>
  <time>2026-08-28T17:54:39Z</time>
  <course>0.0</course>
  <speed>0.0</speed>
  <fix>3d</fix>
</trkpt>
<trkpt lat="40.0713749" lon="-105.229789">
  <ele>1583.0</ele>
  <time>2026-08-28T17:54:39Z</time>
  <course>248.13</course>
  <speed>0.022360679774997897</speed>
  <fix>3d</fix>
</trkpt>
<trkpt lat="40.0713749" lon="-105.229789">
  <ele>1583.0</ele>
  <time>2026-08-28T17:54:39Z</time>
  <course>0.0</course>
  <speed>0.0</speed>
  <fix>3d</fix>
</trkpt>
<trkpt lat="40.0713749" lon="-105.229789">
  <ele>1583.0</ele>
  <time>2026-08-28T17:54:39Z</time>
  <course>248.13</course>
  <speed>0.022360679774997897</speed>
  <fix>3d</fix>
</trkpt>
<trkpt lat="40.0713749" lon="-105.229789">
  <ele>1583.0</ele>
  <time>2026-08-28T17:54:39Z</time>
  <course>0.0</course>
  <speed>0.0</speed>
  <fix>3d</fix>
</trkpt>
<trkpt lat="40.0713749" lon="-105.229789">
  <ele>1583.0</ele>
  <time>2026-08-28T17:54:39Z</time>
  <course>248.12</course>
  <speed>0.022360679774997897</speed>
  <fix>3d</fix>
</trkpt>
<trkpt lat="40.0713749" lon="-105.229789">
  <ele>1583.0</ele>
  <time>2026-08-28T17:54:39Z</time>
  <course>0.0</course>
  <speed>0.0</speed>
  <fix>3d</fix>
</trkpt>
<trkpt lat="40.0713749" lon="-105.229789">
  <ele>1583.0</ele>
  <time>2026-08-28T17:54:39Z</time>
  <course>248.12</course>
  <speed>0.022360679774997897</speed>
  <fix>3d</fix>
</trkpt>
<trkpt lat="40.0713749" lon="-105.229789">
  <ele>1583.0</ele>
  <time>2026-08-28T17:54:39Z</time>
  <course>0.0</course>
  <speed>0.0</speed>
  <fix>3d</fix>
</trkpt>
<trkpt lat="40.0713749" lon="-105.229789">
  <ele>1583.0</ele>
  <time>2026-08-28T17:54:39Z</time>
  <course>248.11</course>
  <speed>0.022360679774997897</speed>
  <fix>3d</fix>
</trkpt>
<trkpt lat="40.0713749" lon="-105.229789">
  <ele>1583.0</ele>
  <time>2026-08-28T17:54:39Z</time>
  <course>0.0</course>
  <speed>0.0</speed>
  <fix>3d</fix>
</trkpt>
<trkpt lat="40.0713749" lon="-105.229789">
  <ele>1583.0</ele>
  <time>2026-08-28T17:54:39Z</time>
  <course>248.11</course>
  <speed>0.022360679774997897</speed>
  <fix>3d</fix>
</trkpt>
<trkpt lat="40.0713749" lon="-105.229789">
  <ele>1583.0</ele>
  <time>2026-08-28T17:54:39Z</time>
  <course>0.0</course>
  <speed>0.0</speed>
  <fix>3d</fix>
</trkpt>
<trkpt lat="40.0713749" lon="-105.229789">
  <ele>1583.0</ele>
  <time>2026-08-28T17:54:39Z</time>
  <course>248.1</course>
  <speed>0.022360679774997897</speed>
  <fix>3d</fix>
</trkpt>
<trkpt lat="40.0713749" lon="-105.229789">
  <ele>1583.0</ele>
  <time>2026-08-28T17:54:39Z</time>
  <course>0.0</course>
  <speed>0.0</speed>
  <fix>3d</fix>
</trkpt>
<trkpt lat="40.0713749" lon="-105.229789">
  <ele>1583.0</ele>
  <time>2026-08-28T17:54:39Z</time>
  <course>248.1</course>
  <speed>0.022360679774997897</speed>
  <fix>3d</fix>
</trkpt>
<trkpt lat="40.0713749" lon="-105.229789">
  <ele>1583.0</ele>
  <time>2026-08-28T17:54:39Z</time>
  <course>0.0</course>
  <speed>0.0</speed>
  <fix>3d</fix>
</trkpt>
<trkpt lat="40.0713749" lon="-105.229789">
  <ele>1583.0</ele>
  <time>2026-08-28T17:54:39Z</time>
  <course>248.09</course>
  <speed>0.022360679774997897</speed>
  <fix>3d</fix>
</trkpt>
<trkpt lat="40.0713749" lon="-105.229789">
  <ele>1583.0</ele>
  <time>2026-08-28T17:54:39Z</time>
  <course>0.0</course>
  <speed>0.0</speed>
  <fix>3d</fix>
</trkpt>
<trkpt lat="40.0713749" lon="-105.229789">
  <ele>1583.0</ele>
  <time>2026-08-28T17:54:39Z</time>
  <course>248.09</course>
  <speed>0.022360679774997897</speed>
  <fix>3d</fix>
</trkpt>
<trkpt lat="40.0713749" lon="-105.229789">
  <ele>1583.0</ele>
  <time>2026-08-28T17:54:39Z</time>
  <course>0.0</course>
  <speed>0.0</speed>
  <fix>3d</fix>
</trkpt>
<trkpt lat="40.0713749" lon="-105.229789">
  <ele>1583.0</ele>
  <time>2026-08-28T17:54:39Z</time>
  <course>248.08</course>
  <speed>0.022360679774997897</speed>
  <fix>3d</fix>
</trkpt>
<trkpt lat="40.0713749" lon="-105.229789">
  <ele>1583.0</ele>
  <time>2026-08-28T17:54:39Z</time>
  <course>0.0</course>
  <speed>0.0</speed>
  <fix>3d</fix>
</trkpt>
<trkpt lat="40.0713749" lon="-105.229789">
  <ele>1583.0</ele>
  <time>2026-08-28T17:54:39Z</time>
  <course>248.08</course>
  <speed>0.022360679774997897</speed>
  <fix>3d</fix>
</trkpt>
<trkpt lat="40.0713749" lon="-105.229789">
  <ele>1583.0</ele>
  <time>2026-08-28T17:54:39Z</time>
  <course>0.0</course>
  <speed>0.0</speed>
  <fix>3d</fix>
</trkpt>
<trkpt lat="40.0713749" lon="-105.229789">
  <ele>1583.0</ele>
  <time>2026-08-28T17:54:39Z</time>
  <course>248.07</course>
  <speed>0.022360679774997897</speed>
  <fix>3d</fix>
</trkpt>
<trkpt lat="40.0713749" lon="-105.229789">
  <ele>1583.0</ele>
  <time>2026-08-28T17:54:39Z</time>
  <course>0.0</course>
  <speed>0.0</speed>
  <fix>3d</fix>
</trkpt>
<trkpt lat="40.0713749" lon="-105.229789">
  <ele>1583.0</ele>
  <time>2026-08-28T17:54:39Z</time>
  <course>248.07</course>
  <speed>0.022360679774997897</speed>
  <fix>3d</fix>
</trkpt>
<trkpt lat="40.0713749" lon="-105.229789">
  <ele>1583.0</ele>
  <time>2026-08-28T17:54:39Z</time>
  <course>0.0</course>
  <speed>0.0</speed>
  <fix>3d</fix>
</trkpt>
<trkpt lat="40.0713749" lon="-105.229789">
  <ele>1583.0</ele>
  <time>2026-08-28T17:54:39Z</time>
  <course>248.06</course>
  <speed>0.022360679774997897</speed>
  <fix>3d</fix>
</trkpt>
<trkpt lat="40.0713749" lon="-105.229789">
  <ele>1583.0</ele>
  <time>2026-08-28T17:54:39Z</time>
  <course>0.0</course>
  <speed>0.0</speed>
  <fix>3d</fix>
</trkpt>
<trkpt lat="40.0713749" lon="-105.229789">
  <ele>1583.0</ele>
  <time>2026-08-28T17:54:39Z</time>
  <course>248.06</course>
  <speed>0.022360679774997897</speed>
  <fix>3d</fix>
</trkpt>
<trkpt lat="40.0713749" lon="-105.229789">
  <ele>1583.0</ele>
  <time>2026-08-28T17:54:39Z</time>
  <course>0.0</course>
  <speed>0.0</speed>
  <fix>3d</fix>
</trkpt>
<trkpt lat="40.0713749" lon="-105.229789">
  <ele>1583.0</ele>
  <time>2026-08-28T17:54:39Z</time>
  <course>248.05</course>
  <speed>0.022360679774997897</speed>
  <fix>3d</fix>
</trkpt>
<trkpt lat="40.0713749" lon="-105.229789">
  <ele>1583.0</ele>
  <time>2026-08-28T17:54:39Z</time>
  <course>0.0</course>
  <speed>0.0</speed>
  <fix>3d</fix>
</trkpt>
<trkpt lat="40.0713749" lon="-105.229789">
  <ele>1583.0</ele>
  <time>2026-08-28T17:54:39Z</time>
  <course>248.05</course>
  <speed>0.022360679774997897</speed>
  <fix>3d</fix>
</trkpt>
<trkpt lat="40.0713749" lon="-105.229789">
  <ele>1583.0</ele>
  <time>2026-08-28T17:54:39Z</time>
  <course>0.0</course>
  <speed>0.0</speed>
  <fix>3d</fix>
</trkpt>
<trkpt lat="40.0713749" lon="-105.229789">
  <ele>1583.0</ele>
  <time>2026-08-28T17:54:39Z</time>
  <course>248.05</course>
  <speed>0.022360679774997897</speed>
  <fix>3d</fix>
</trkpt>
<trkpt lat="40.0713749" lon="-105.229789">
  <ele>1583.0</ele>
  <time>2026-08-28T17:54:39Z</time>
  <course>0.0</course>
  <speed>0.0</speed>
  <fix>3d</fix>
</trkpt>
<trkpt lat="40.0713749" lon="-105.229789">
  <ele>1583.0</ele>
  <time>2026-08-28T17:54:39Z</time>
  <course>248.04</course>
  <speed>0.022360679774997897</speed>
  <fix>3d</fix>
</trkpt>
<trkpt lat="40.0713749" lon="-105.229789">
  <ele>1583.0</ele>
  <time>2026-08-28T17:54:39Z</time>
  <course>0.0</course>
  <speed>0.0</speed>
  <fix>3d</fix>
</trkpt>
<trkpt lat="40.0713749" lon="-105.229789">
  <ele>1583.0</ele>
  <time>2026-08-28T17:54:39Z</time>
  <course>248.04</course>
  <speed>0.022360679774997897</speed>
  <fix>3d</fix>
</trkpt>
<trkpt lat="40.0713749" lon="-105.229789">
  <ele>1583.0</ele>
  <time>2026-08-28T17:54:39Z</time>
  <course>0.0</course>
  <speed>0.0</speed>
  <fix>3d</fix>
</trkpt>
<trkpt lat="40.0713749" lon="-105.229789">
  <ele>1583.0</ele>
  <time>2026-08-28T17:54:39Z</time>
  <course>248.03</course>
  <speed>0.022360679774997897</speed>
  <fix>3d</fix>
</trkpt>
<trkpt lat="40.0713749" lon="-105.229789">
  <ele>1583.0</ele>
  <time>2026-08-28T17:54:39Z</time>
  <course>0.0</course>
  <speed>0.0</speed>
  <fix>3d</fix>
</trkpt>
<trkpt lat="40.0713749" lon="-105.229789">
  <ele>1583.0</ele>
  <time>2026-08-28T17:54:39Z</time>
  <course>248.03</course>
  <speed>0.022360679774997897</speed>
  <fix>3d</fix>
</trkpt>
<trkpt lat="40.0713749" lon="-105.229789">
  <ele>1583.0</ele>
  <time>2026-08-28T17:54:39Z</time>
  <course>0.0</course>
  <speed>0.0</speed>
  <fix>3d</fix>
</trkpt>
<trkpt lat="40.0713749" lon="-105.229789">
  <ele>1583.0</ele>
  <time>2026-08-28T17:54:39Z</time>
  <course>248.02</course>
  <speed>0.022360679774997897</speed>
  <fix>3d</fix>
</trkpt>
<trkpt lat="40.0713749" lon="-105.229789">
  <ele>1583.0</ele>
  <time>2026-08-28T17:54:39Z</time>
  <course>0.0</course>
  <speed>0.0</speed>
  <fix>3d</fix>
</trkpt>
<trkpt lat="40.0713749" lon="-105.229789">
  <ele>1583.0</ele>
  <time>2026-08-28T17:54:39Z</time>
  <course>248.02</course>
  <speed>0.022360679774997897</speed>
  <fix>3d</fix>
</trkpt>
<trkpt lat="40.0713749" lon="-105.229789">
  <ele>1583.0</ele>
  <time>2026-08-28T17:54:39Z</time>
  <course>0.0</course>
  <speed>0.0</speed>
  <fix>3d</fix>
</trkpt>
<trkpt lat="40.0713749" lon="-105.229789">
  <ele>1583.0</ele>
  <time>2026-08-28T17:54:39Z</time>
  <course>248.01</course>
  <speed>0.022360679774997897</speed>
  <fix>3d</fix>
</trkpt>
<trkpt lat="40.0713749" lon="-105.229789">
  <ele>1583.0</ele>
  <time>2026-08-28T17:54:39Z</time>
  <course>0.0</course>
  <speed>0.0</speed>
  <fix>3d</fix>
</trkpt>
<trkpt lat="40.0713749" lon="-105.229789">
  <ele>1583.0</ele>
  <time>2026-08-28T17:54:39Z</time>
  <course>248.01</course>
  <speed>0.022360679774997897</speed>
  <fix>3d</fix>
</trkpt>
<trkpt lat="40.0713749" lon="-105.229789">
  <ele>1583.0</ele>
  <time>2026-08-28T17:54:39Z</time>
  <course>0.0</course>
  <speed>0.0</speed>
  <fix>3d</fix>
</trkpt>
<trkpt lat="40.0713749" lon="-105.229789">
  <ele>1583.0</ele>
  <time>2026-08-28T17:54:39Z</time>
  <course>248.0</course>
  <speed>0.022360679774997897</speed>
  <fix>3d</fix>
</trkpt>
<trkpt lat="40.0713749" lon="-105.229789">
  <ele>1583.0</ele>
  <time>2026-08-28T17:54:39Z</time>
  <course>0.0</course>
  <speed>0.0</speed>
  <fix>3d</fix>
</trkpt>
<trkpt lat="40.0713749" lon="-105.229789">
  <ele>1583.0</ele>
  <time>2026-08-28T17:54:39Z</time>
  <course>248.0</course>
  <speed>0.022360679774997897</speed>
  <fix>3d</fix>
</trkpt>
<trkpt lat="40.0713749" lon="-105.229789">
  <ele>1583.0</ele>
  <time>2026-08-28T17:54:39Z</time>
  <course>0.0</course>
  <speed>0.0</speed>
  <fix>3d</fix>
</trkpt>
<trkpt lat="40.0713749" lon="-105.229789">
  <ele>1583.0</ele>
  <time>2026-08-28T17:54:39Z</time>
  <course>247.99</course>
  <speed>0.022360679774997897</speed>
  <fix>3d</fix>
</trkpt>
<trkpt lat="40.0713749" lon="-105.229789">
  <ele>1583.0</ele>
  <time>2026-08-28T17:54:39Z</time>
  <course>0.0</course>
  <speed>0.0</speed>
  <fix>3d</fix>
</trkpt>
<trkpt lat="40.0713749" lon="-105.229789">
  <ele>1583.0</ele>
  <time>2026-08-28T17:54:39Z</time>
  <course>247.99</course>
  <speed>0.022360679774997897</speed>
  <fix>3d</fix>
</trkpt>
<trkpt lat="40.0713749" lon="-105.229789">
  <ele>1583.0</ele>
  <time>2026-08-28T17:54:39Z</time>
  <course>0.0</course>
  <speed>0.0</speed>
  <fix>3d</fix>
</trkpt>
<trkpt lat="40.0713749" lon="-105.229789">
  <ele>1583.0</ele>
  <time>2026-08-28T17:54:39Z</time>
  <course>247.99</course>
  <speed>0.022360679774997897</speed>
  <fix>3d</fix>
</trkpt>
<trkpt lat="40.0713749" lon="-105.229789">
  <ele>1583.0</ele>
  <time>2026-08-28T17:54:39Z</time>
  <course>0.0</course>
  <speed>0.0</speed>
  <fix>3d</fix>
</trkpt>
<trkpt lat="40.0713749" lon="-105.229789">
  <ele>1583.0</ele>
  <time>2026-08-28T17:54:39Z</time>
  <course>247.98</course>
  <speed>0.022360679774997897</speed>
  <fix>3d</fix>
</trkpt>
<trkpt lat="40.0713749" lon="-105.229789">
  <ele>1583.0</ele>
  <time>2026-08-28T17:54:39Z</time>
  <course>0.0</course>
  <speed>0.0</speed>
  <fix>3d</fix>
</trkpt>
<trkpt lat="40.0713749" lon="-105.229789">
  <ele>1583.0</ele>
  <time>2026-08-28T17:54:39Z</time>
  <course>247.98</course>
  <speed>0.022360679774997897</speed>
  <fix>3d</fix>
</trkpt>
<trkpt lat="40.0713749" lon="-105.229789">
  <ele>1583.0</ele>
  <time>2026-08-28T17:54:39Z</time>
  <course>0.0</course>
  <speed>0.0</speed>
  <fix>3d</fix>
</trkpt>
<trkpt lat="40.0713749" lon="-105.229789">
  <ele>1583.0</ele>
  <time>2026-08-28T17:54:39Z</time>
  <course>247.97</course>
  <speed>0.022360679774997897</speed>
  <fix>3d</fix>
</trkpt>
<trkpt lat="40.0713749" lon="-105.229789">
  <ele>1583.0</ele>
  <time>2026-08-28T17:54:39Z</time>
  <course>0.0</course>
  <speed>0.0</speed>
  <fix>3d</fix>
</trkpt>
<trkpt lat="40.0713749" lon="-105.229789">
  <ele>1583.0</ele>
  <time>2026-08-28T17:54:39Z</time>
  <course>247.97</course>
  <speed>0.022360679774997897</speed>
  <fix>3d</fix>
</trkpt>
<trkpt lat="40.0713749" lon="-105.229789">
  <ele>1583.0</ele>
  <time>2026-08-28T17:54:39Z</time>
  <course>0.0</course>
  <speed>0.0</speed>
  <fix>3d</fix>
</trkpt>
<trkpt lat="40.0713749" lon="-105.229789">
  <ele>1583.0</ele>
  <time>2026-08-28T17:54:39Z</time>
  <course>247.96</course>
  <speed>0.022360679774997897</speed>
  <fix>3d</fix>
</trkpt>
<trkpt lat="40.0713749" lon="-105.229789">
  <ele>1583.0</ele>
  <time>2026-08-28T17:54:39Z</time>
  <course>0.0</course>
  <speed>0.0</speed>
  <fix>3d</fix>
</trkpt>
<trkpt lat="40.0713749" lon="-105.229789">
  <ele>1583.0</ele>
  <time>2026-08-28T17:54:39Z</time>
  <course>247.96</course>
  <speed>0.022360679774997897</speed>
  <fix>3d</fix>
</trkpt>
<trkpt lat="40.0713749" lon="-105.229789">
  <ele>1583.0</ele>
  <time>2026-08-28T17:54:39Z</time>
  <course>0.0</course>
  <speed>0.0</speed>
  <fix>3d</fix>
</trkpt>
<trkpt lat="40.0713749" lon="-105.229789">
  <ele>1583.0</ele>
  <time>2026-08-28T17:54:39Z</time>
  <course>247.95</course>
  <speed>0.022360679774997897</speed>
  <fix>3d</fix>
</trkpt>
<trkpt lat="40.0713749" lon="-105.229789">
  <ele>1583.0</ele>
  <time>2026-08-28T17:54:39Z</time>
  <course>0.0</course>
  <speed>0.0</speed>
  <fix>3d</fix>
</trkpt>
<trkpt lat="40.0713749" lon="-105.229789">
  <ele>1583.0</ele>
  <time>2026-08-28T17:54:39Z</time>
  <course>247.95</course>
  <speed>0.022360679774997897</speed>
  <fix>3d</fix>
</trkpt>
<trkpt lat="40.0713749" lon="-105.229789">
  <ele>1583.0</ele>
  <time>2026-08-28T17:54:39Z</time>
  <course>0.0</course>
  <speed>0.0</speed>
  <fix>3d</fix>
</trkpt>
<trkpt lat="40.0713749" lon="-105.229789">
  <ele>1583.0</ele>
  <time>2026-08-28T17:54:39Z</time>
  <course>247.95</course>
  <speed>0.022360679774997897</speed>
  <fix>3d</fix>
</trkpt>
<trkpt lat="40.0713749" lon="-105.229789">
  <ele>1583.0</ele>
  <time>2026-08-28T17:54:39Z</time>
  <course>0.0</course>
  <speed>0.0</speed>
  <fix>3d</fix>
</trkpt>
<trkpt lat="40.0713749" lon="-105.229789">
  <ele>1583.0</ele>
  <time>2026-08-28T17:54:39Z</time>
  <course>247.94</course>
  <speed>0.022360679774997897</speed>
  <fix>3d</fix>
</trkpt>
<trkpt lat="40.0713749" lon="-105.229789">
  <ele>1583.0</ele>
  <time>2026-08-28T17:54:39Z</time>
  <course>0.0</course>
  <speed>0.0</speed>
  <fix>3d</fix>
</trkpt>
<trkpt lat="40.0713749" lon="-105.229789">
  <ele>1583.0</ele>
  <time>2026-08-28T17:54:39Z</time>
  <course>247.94</course>
  <speed>0.022360679774997897</speed>
  <fix>3d</fix>
</trkpt>
<trkpt lat="40.0713749" lon="-105.229789">
  <ele>1583.0</ele>
  <time>2026-08-28T17:54:39Z</time>
  <course>0.0</course>
  <speed>0.0</speed>
  <fix>3d</fix>
</trkpt>
<trkpt lat="40.0713749" lon="-105.229789">
  <ele>1583.0</ele>
  <time>2026-08-28T17:54:39Z</time>
  <course>247.93</course>
  <speed>0.022360679774997897</speed>
  <fix>3d</fix>
</trkpt>
<trkpt lat="40.0713749" lon="-105.229789">
  <ele>1583.0</ele>
  <time>2026-08-28T17:54:39Z</time>
  <course>0.0</course>
  <speed>0.0</speed>
  <fix>3d</fix>
</trkpt>
<trkpt lat="40.0713749" lon="-105.229789">
  <ele>1583.0</ele>
  <time>2026-08-28T17:54:39Z</time>
  <course>247.93</course>
  <speed>0.022360679774997897</speed>
  <fix>3d</fix>
</trkpt>
<trkpt lat="40.0713749" lon="-105.229789">
  <ele>1583.0</ele>
  <time>2026-08-28T17:54:39Z</time>
  <course>0.0</course>
  <speed>0.0</speed>
  <fix>3d</fix>
</trkpt>
<trkpt lat="40.0713749" lon="-105.229789">
  <ele>1583.0</ele>
  <time>2026-08-28T17:54:39Z</time>
  <course>247.92</course>
  <speed>0.022360679774997897</speed>
  <fix>3d</fix>
</trkpt>
<trkpt lat="40.0713749" lon="-105.229789">
  <ele>1583.0</ele>
  <time>2026-08-28T17:54:39Z</time>
  <course>0.0</course>
  <speed>0.0</speed>
  <fix>3d</fix>
</trkpt>
<trkpt lat="39.655741" lon="-104.1383097">
  <ele>1566.58</ele>
  <time>2026-08-28T17:54:40Z</time>
  <course>0.0</course>
  <speed>0.0</speed>
  <fix>3d</fix>
</trkpt>
<trkpt lat="40.0713749" lon="-105.229789">
  <ele>1583.0</ele>
  <time>2026-08-28T17:54:40Z</time>
  <course>0.0</course>
  <speed>0.0</speed>
  <fix>3d</fix>
</trkpt>
<trkpt lat="40.0713749" lon="-105.229789">
  <ele>1583.0</ele>
  <time>2026-08-28T17:54:40Z</time>
  <course>238.36</course>
  <speed>0.0</speed>
  <fix>3d</fix>
</trkpt>
<trkpt lat="40.0713749" lon="-105.229789">
  <ele>1583.0</ele>
  <time>2026-08-28T17:54:40Z</time>
  <course>0.0</course>
  <speed>0.0</speed>
  <fix>3d</fix>
</trkpt>
<trkpt lat="40.0713749" lon="-105.229789">
  <ele>1583.0</ele>
  <time>2026-08-28T17:54:40Z</time>
  <course>238.44</course>
  <speed>0.0</speed>
  <fix>3d</fix>
</trkpt>
<trkpt lat="40.0713749" lon="-105.229789">
  <ele>1583.0</ele>
  <time>2026-08-28T17:54:40Z</time>
  <course>0.0</course>
  <speed>0.0</speed>
  <fix>3d</fix>
</trkpt>
<trkpt lat="40.0713749" lon="-105.229789">
  <ele>1583.0</ele>
  <time>2026-08-28T17:54:40Z</time>
  <course>238.64</course>
  <speed>0.0</speed>
  <fix>3d</fix>
</trkpt>
<trkpt lat="40.0713749" lon="-105.229789">
  <ele>1583.0</ele>
  <time>2026-08-28T17:54:40Z</time>
  <course>0.0</course>
  <speed>0.0</speed>
  <fix>3d</fix>
</trkpt>
<trkpt lat="40.0713749" lon="-105.229789">
  <ele>1583.0</ele>
  <time>2026-08-28T17:54:40Z</time>
  <course>238.93</course>
  <speed>0.0</speed>
  <fix>3d</fix>
</trkpt>
<trkpt lat="40.0713749" lon="-105.229789">
  <ele>1583.0</ele>
  <time>2026-08-28T17:54:40Z</time>
  <course>0.0</course>
  <speed>0.0</speed>
  <fix>3d</fix>
</trkpt>
<trkpt lat="40.0713749" lon="-105.229789">
  <ele>1583.0</ele>
  <time>2026-08-28T17:54:40Z</time>
  <course>239.26</course>
  <speed>0.0</speed>
  <fix>3d</fix>
</trkpt>
<trkpt lat="40.0713749" lon="-105.229789">
  <ele>1583.0</ele>
  <time>2026-08-28T17:54:40Z</time>
  <course>0.0</course>
  <speed>0.0</speed>
  <fix>3d</fix>
</trkpt>
<trkpt lat="40.0713749" lon="-105.229789">
  <ele>1583.0</ele>
  <time>2026-08-28T17:54:40Z</time>
  <course>239.61</course>
  <speed>0.0</speed>
  <fix>3d</fix>
</trkpt>
<trkpt lat="40.0713749" lon="-105.229789">
  <ele>1583.0</ele>
  <time>2026-08-28T17:54:40Z</time>
  <course>0.0</course>
  <speed>0.0</speed>
  <fix>3d</fix>
</trkpt>
<trkpt lat="40.0713749" lon="-105.229789">
  <ele>1583.0</ele>
  <time>2026-08-28T17:54:40Z</time>
  <course>239.96</course>
  <speed>0.0</speed>
  <fix>3d</fix>
</trkpt>
<trkpt lat="40.0713749" lon="-105.229789">
  <ele>1583.0</ele>
  <time>2026-08-28T17:54:40Z</time>
  <course>0.0</course>
  <speed>0.0</speed>
  <fix>3d</fix>
</trkpt>
<trkpt lat="40.0713749" lon="-105.229789">
  <ele>1583.0</ele>
  <time>2026-08-28T17:54:40Z</time>
  <course>240.29</course>
  <speed>0.0</speed>
  <fix>3d</fix>
</trkpt>
<trkpt lat="40.0713749" lon="-105.229789">
  <ele>1583.0</ele>
  <time>2026-08-28T17:54:40Z</time>
  <course>0.0</course>
  <speed>0.0</speed>
  <fix>3d</fix>
</trkpt>
<trkpt lat="40.0713749" lon="-105.229789">
  <ele>1583.0</ele>
  <time>2026-08-28T17:54:40Z</time>
  <course>240.61</course>
  <speed>0.0</speed>
  <fix>3d</fix>
</trkpt>
<trkpt lat="40.0713749" lon="-105.229789">
  <ele>1583.0</ele>
  <time>2026-08-28T17:54:40Z</time>
  <course>0.0</course>
  <speed>0.0</speed>
  <fix>3d</fix>
</trkpt>
<trkpt lat="40.0713749" lon="-105.229789">
  <ele>1583.0</ele>
  <time>2026-08-28T17:54:40Z</time>
  <course>240.92</course>
  <speed>0.0</speed>
  <fix>3d</fix>
</trkpt>
<trkpt lat="40.0713749" lon="-105.229789">
  <ele>1583.0</ele>
  <time>2026-08-28T17:54:40Z</time>
  <course>0.0</course>
  <speed>0.0</speed>
  <fix>3d</fix>
</trkpt>
<trkpt lat="40.0713749" lon="-105.229789">
  <ele>1583.0</ele>
  <time>2026-08-28T17:54:40Z</time>
  <course>241.21</course>
  <speed>0.0</speed>
  <fix>3d</fix>
</trkpt>
<trkpt lat="40.0713749" lon="-105.229789">
  <ele>1583.0</ele>
  <time>2026-08-28T17:54:40Z</time>
  <course>0.0</course>
  <speed>0.0</speed>
  <fix>3d</fix>
</trkpt>
<trkpt lat="40.0713749" lon="-105.229789">
  <ele>1583.0</ele>
  <time>2026-08-28T17:54:40Z</time>
  <course>241.49</course>
  <speed>0.0</speed>
  <fix>3d</fix>
</trkpt>
<trkpt lat="40.0713749" lon="-105.229789">
  <ele>1583.0</ele>
  <time>2026-08-28T17:54:40Z</time>
  <course>0.0</course>
  <speed>0.0</speed>
  <fix>3d</fix>
</trkpt>
<trkpt lat="40.0713749" lon="-105.229789">
  <ele>1583.0</ele>
  <time>2026-08-28T17:54:40Z</time>
  <course>241.77</course>
  <speed>0.0</speed>
  <fix>3d</fix>
</trkpt>
<trkpt lat="40.0713749" lon="-105.229789">
  <ele>1583.0</ele>
  <time>2026-08-28T17:54:40Z</time>
  <course>0.0</course>
  <speed>0.0</speed>
  <fix>3d</fix>
</trkpt>
<trkpt lat="40.0713749" lon="-105.229789">
  <ele>1583.0</ele>
  <time>2026-08-28T17:54:40Z</time>
  <course>242.03</course>
  <speed>0.0</speed>
  <fix>3d</fix>
</trkpt>
<trkpt lat="40.0713749" lon="-105.229789">
  <ele>1583.0</ele>
  <time>2026-08-28T17:54:40Z</time>
  <course>0.0</course>
  <speed>0.0</speed>
  <fix>3d</fix>
</trkpt>
<trkpt lat="40.0713749" lon="-105.229789">
  <ele>1583.0</ele>
  <time>2026-08-28T17:54:40Z</time>
  <course>242.29</course>
  <speed>0.0</speed>
  <fix>3d</fix>
</trkpt>
<trkpt lat="40.0713749" lon="-105.229789">
  <ele>1583.0</ele>
  <time>2026-08-28T17:54:40Z</time>
  <course>0.0</course>
  <speed>0.0</speed>
  <fix>3d</fix>
</trkpt>
<trkpt lat="40.0713749" lon="-105.229789">
  <ele>1583.0</ele>
  <time>2026-08-28T17:54:40Z</time>
  <course>242.54</course>
  <speed>0.0</speed>
  <fix>3d</fix>
</trkpt>
<trkpt lat="40.0713749" lon="-105.229789">
  <ele>1583.0</ele>
  <time>2026-08-28T17:54:40Z</time>
  <course>0.0</course>
  <speed>0.0</speed>
  <fix>3d</fix>
</trkpt>
<trkpt lat="40.0713749" lon="-105.229789">
  <ele>1583.0</ele>
  <time>2026-08-28T17:54:40Z</time>
  <course>242.79</course>
  <speed>0.0</speed>
  <fix>3d</fix>
</trkpt>
<trkpt lat="40.0713749" lon="-105.229789">
  <ele>1583.0</ele>
  <time>2026-08-28T17:54:40Z</time>
  <course>0.0</course>
  <speed>0.0</speed>
  <fix>3d</fix>
</trkpt>
<trkpt lat="40.0713749" lon="-105.229789">
  <ele>1583.0</ele>
  <time>2026-08-28T17:54:40Z</time>
  <course>243.02</course>
  <speed>0.0</speed>
  <fix>3d</fix>
</trkpt>
<trkpt lat="40.0713749" lon="-105.229789">
  <ele>1583.0</ele>
  <time>2026-08-28T17:54:40Z</time>
  <course>0.0</course>
  <speed>0.0</speed>
  <fix>3d</fix>
</trkpt>
<trkpt lat="40.0713749" lon="-105.229789">
  <ele>1583.0</ele>
  <time>2026-08-28T17:54:40Z</time>
  <course>243.25</course>
  <speed>0.0</speed>
  <fix>3d</fix>
</trkpt>
<trkpt lat="40.0713749" lon="-105.229789">
  <ele>1583.0</ele>
  <time>2026-08-28T17:54:40Z</time>
  <course>0.0</course>
  <speed>0.0</speed>
  <fix>3d</fix>
</trkpt>
<trkpt lat="40.0713749" lon="-105.229789">
  <ele>1583.0</ele>
  <time>2026-08-28T17:54:40Z</time>
  <course>243.47</course>
  <speed>0.0</speed>
  <fix>3d</fix>
</trkpt>
<trkpt lat="40.0713749" lon="-105.229789">
  <ele>1583.0</ele>
  <time>2026-08-28T17:54:40Z</time>
  <course>0.0</course>
  <speed>0.0</speed>
  <fix>3d</fix>
</trkpt>
<trkpt lat="40.0713749" lon="-105.229789">
  <ele>1583.0</ele>
  <time>2026-08-28T17:54:40Z</time>
  <course>243.68</course>
  <speed>0.0</speed>
  <fix>3d</fix>
</trkpt>
<trkpt lat="40.0713749" lon="-105.229789">
  <ele>1583.0</ele>
  <time>2026-08-28T17:54:40Z</time>
  <course>0.0</course>
  <speed>0.0</speed>
  <fix>3d</fix>
</trkpt>
<trkpt lat="40.0713749" lon="-105.229789">
  <ele>1583.0</ele>
  <time>2026-08-28T17:54:40Z</time>
  <course>243.89</course>
  <speed>0.0</speed>
  <fix>3d</fix>
</trkpt>
<trkpt lat="40.0713749" lon="-105.229789">
  <ele>1583.0</ele>
  <time>2026-08-28T17:54:40Z</time>
  <course>0.0</course>
  <speed>0.0</speed>
  <fix>3d</fix>
</trkpt>
<trkpt lat="40.0713749" lon="-105.229789">
  <ele>1583.0</ele>
  <time>2026-08-28T17:54:40Z</time>
  <course>244.09</course>
  <speed>0.0</speed>
  <fix>3d</fix>
</trkpt>
<trkpt lat="40.0713749" lon="-105.229789">
  <ele>1583.0</ele>
  <time>2026-08-28T17:54:40Z</time>
  <course>0.0</course>
  <speed>0.0</speed>
  <fix>3d</fix>
</trkpt>
<trkpt lat="40.0713749" lon="-105.229789">
  <ele>1583.0</ele>
  <time>2026-08-28T17:54:40Z</time>
  <course>244.28</course>
  <speed>0.0</speed>
  <fix>3d</fix>
</trkpt>
<trkpt lat="40.0713749" lon="-105.229789">
  <ele>1583.0</ele>
  <time>2026-08-28T17:54:40Z</time>
  <course>0.0</course>
  <speed>0.0</speed>
  <fix>3d</fix>
</trkpt>
<trkpt lat="40.0713749" lon="-105.229789">
  <ele>1583.0</ele>
  <time>2026-08-28T17:54:40Z</time>
  <course>244.46</course>
  <speed>0.0</speed>
  <fix>3d</fix>
</trkpt>
<trkpt lat="40.0713749" lon="-105.229789">
  <ele>1583.0</ele>
  <time>2026-08-28T17:54:40Z</time>
  <course>0.0</course>
  <speed>0.0</speed>
  <fix>3d</fix>
</trkpt>
<trkpt lat="40.0713749" lon="-105.229789">
  <ele>1583.0</ele>
  <time>2026-08-28T17:54:40Z</time>
  <course>244.64</course>
  <speed>0.0</speed>
  <fix>3d</fix>
</trkpt>
<trkpt lat="40.0713749" lon="-105.229789">
  <ele>1583.0</ele>
  <time>2026-08-28T17:54:40Z</time>
  <course>0.0</course>
  <speed>0.0</speed>
  <fix>3d</fix>
</trkpt>
<trkpt lat="40.0713749" lon="-105.229789">
  <ele>1583.0</ele>
  <time>2026-08-28T17:54:40Z</time>
  <course>244.81</course>
  <speed>0.0</speed>
  <fix>3d</fix>
</trkpt>
<trkpt lat="40.0713749" lon="-105.229789">
  <ele>1583.0</ele>
  <time>2026-08-28T17:54:40Z</time>
  <course>0.0</course>
  <speed>0.0</speed>
  <fix>3d</fix>
</trkpt>
<trkpt lat="40.0713749" lon="-105.229789">
  <ele>1583.0</ele>
  <time>2026-08-28T17:54:40Z</time>
  <course>244.97</course>
  <speed>0.0</speed>
  <fix>3d</fix>
</trkpt>
<trkpt lat="40.0713749" lon="-105.229789">
  <ele>1583.0</ele>
  <time>2026-08-28T17:54:40Z</time>
  <course>0.0</course>
  <speed>0.0</speed>
  <fix>3d</fix>
</trkpt>
<trkpt lat="40.0713749" lon="-105.229789">
  <ele>1583.0</ele>
  <time>2026-08-28T17:54:40Z</time>
  <course>245.13</course>
  <speed>0.0</speed>
  <fix>3d</fix>
</trkpt>
<trkpt lat="40.0713749" lon="-105.229789">
  <ele>1583.0</ele>
  <time>2026-08-28T17:54:40Z</time>
  <course>0.0</course>
  <speed>0.0</speed>
  <fix>3d</fix>
</trkpt>
<trkpt lat="40.0713749" lon="-105.229789">
  <ele>1583.0</ele>
  <time>2026-08-28T17:54:40Z</time>
  <course>245.29</course>
  <speed>0.0</speed>
  <fix>3d</fix>
</trkpt>
<trkpt lat="40.0713749" lon="-105.229789">
  <ele>1583.0</ele>
  <time>2026-08-28T17:54:40Z</time>
  <course>0.0</course>
  <speed>0.0</speed>
  <fix>3d</fix>
</trkpt>
<trkpt lat="40.0713749" lon="-105.229789">
  <ele>1583.0</ele>
  <time>2026-08-28T17:54:40Z</time>
  <course>245.43</course>
  <speed>0.0</speed>
  <fix>3d</fix>
</trkpt>
<trkpt lat="40.0713749" lon="-105.229789">
  <ele>1583.0</ele>
  <time>2026-08-28T17:54:40Z</time>
  <course>0.0</course>
  <speed>0.0</speed>
  <fix>3d</fix>
</trkpt>
<trkpt lat="40.0713749" lon="-105.229789">
  <ele>1583.0</ele>
  <time>2026-08-28T17:54:40Z</time>
  <course>245.57</course>
  <speed>0.0</speed>
  <fix>3d</fix>
</trkpt>
<trkpt lat="40.0713749" lon="-105.229789">
  <ele>1583.0</ele>
  <time>2026-08-28T17:54:40Z</time>
  <course>0.0</course>
  <speed>0.0</speed>
  <fix>3d</fix>
</trkpt>
<trkpt lat="40.0713749" lon="-105.229789">
  <ele>1583.0</ele>
  <time>2026-08-28T17:54:40Z</time>
  <course>245.71</course>
  <speed>0.0</speed>
  <fix>3d</fix>
</trkpt>
<trkpt lat="40.0713749" lon="-105.229789">
  <ele>1583.0</ele>
  <time>2026-08-28T17:54:40Z</time>
  <course>0.0</course>
  <speed>0.0</speed>
  <fix>3d</fix>
</trkpt>
<trkpt lat="40.0713749" lon="-105.229789">
  <ele>1583.0</ele>
  <time>2026-08-28T17:54:40Z</time>
  <course>245.84</course>
  <speed>0.0</speed>
  <fix>3d</fix>
</trkpt>
<trkpt lat="40.0713749" lon="-105.229789">
  <ele>1583.0</ele>
  <time>2026-08-28T17:54:40Z</time>
  <course>0.0</course>
  <speed>0.0</speed>
  <fix>3d</fix>
</trkpt>
<trkpt lat="40.0713749" lon="-105.229789">
  <ele>1583.0</ele>
  <time>2026-08-28T17:54:40Z</time>
  <course>245.96</course>
  <speed>0.0</speed>
  <fix>3d</fix>
</trkpt>
<trkpt lat="40.0713749" lon="-105.229789">
  <ele>1583.0</ele>
  <time>2026-08-28T17:54:40Z</time>
  <course>0.0</course>
  <speed>0.0</speed>
  <fix>3d</fix>
</trkpt>
<trkpt lat="40.0713749" lon="-105.229789">
  <ele>1583.0</ele>
  <time>2026-08-28T17:54:40Z</time>
  <course>246.08</course>
  <speed>0.0</speed>
  <fix>3d</fix>
</trkpt>
<trkpt lat="40.0713749" lon="-105.229789">
  <ele>1583.0</ele>
  <time>2026-08-28T17:54:40Z</time>
  <course>0.0</course>
  <speed>0.0</speed>
  <fix>3d</fix>
</trkpt>
<trkpt lat="40.0713749" lon="-105.229789">
  <ele>1583.0</ele>
  <time>2026-08-28T17:54:40Z</time>
  <course>246.19</course>
  <speed>0.0</speed>
  <fix>3d</fix>
</trkpt>
<trkpt lat="40.0713749" lon="-105.229789">
  <ele>1583.0</ele>
  <time>2026-08-28T17:54:40Z</time>
  <course>0.0</course>
  <speed>0.0</speed>
  <fix>3d</fix>
</trkpt>
<trkpt lat="40.0713749" lon="-105.229789">
  <ele>1583.0</ele>
  <time>2026-08-28T17:54:40Z</time>
  <course>246.3</course>
  <speed>0.0</speed>
  <fix>3d</fix>
</trkpt>
<trkpt lat="40.0713749" lon="-105.229789">
  <ele>1583.0</ele>
  <time>2026-08-28T17:54:40Z</time>
  <course>0.0</course>
  <speed>0.0</speed>
  <fix>3d</fix>
</trkpt>
<trkpt lat="40.0713749" lon="-105.229789">
  <ele>1583.0</ele>
  <time>2026-08-28T17:54:40Z</time>
  <course>246.41</course>
  <speed>0.0</speed>
  <fix>3d</fix>
</trkpt>
<trkpt lat="40.0713749" lon="-105.229789">
  <ele>1583.0</ele>
  <time>2026-08-28T17:54:40Z</time>
  <course>0.0</course>
  <speed>0.0</speed>
  <fix>3d</fix>
</trkpt>
<trkpt lat="40.0713749" lon="-105.229789">
  <ele>1583.0</ele>
  <time>2026-08-28T17:54:40Z</time>
  <course>246.51</course>
  <speed>0.0</speed>
  <fix>3d</fix>
</trkpt>
<trkpt lat="40.0713749" lon="-105.229789">
  <ele>1583.0</ele>
  <time>2026-08-28T17:54:40Z</time>
  <course>0.0</course>
  <speed>0.0</speed>
  <fix>3d</fix>
</trkpt>
<trkpt lat="40.0713749" lon="-105.229789">
  <ele>1583.0</ele>
  <time>2026-08-28T17:54:40Z</time>
  <course>246.6</course>
  <speed>0.0</speed>
  <fix>3d</fix>
</trkpt>
<trkpt lat="40.0713749" lon="-105.229789">
  <ele>1583.0</ele>
  <time>2026-08-28T17:54:40Z</time>
  <course>0.0</course>
  <speed>0.0</speed>
  <fix>3d</fix>
</trkpt>
<trkpt lat="40.0713749" lon="-105.229789">
  <ele>1583.0</ele>
  <time>2026-08-28T17:54:40Z</time>
  <course>246.7</course>
  <speed>0.0</speed>
  <fix>3d</fix>
</trkpt>
<trkpt lat="40.0713749" lon="-105.229789">
  <ele>1583.0</ele>
  <time>2026-08-28T17:54:40Z</time>
  <course>0.0</course>
  <speed>0.0</speed>
  <fix>3d</fix>
</trkpt>
<trkpt lat="40.0713749" lon="-105.229789">
  <ele>1583.0</ele>
  <time>2026-08-28T17:54:40Z</time>
  <course>246.78</course>
  <speed>0.0</speed>
  <fix>3d</fix>
</trkpt>
<trkpt lat="40.0713749" lon="-105.229789">
  <ele>1583.0</ele>
  <time>2026-08-28T17:54:40Z</time>
  <course>0.0</course>
  <speed>0.0</speed>
  <fix>3d</fix>
</trkpt>
<trkpt lat="40.0713749" lon="-105.229789">
  <ele>1583.0</ele>
  <time>2026-08-28T17:54:40Z</time>
  <course>246.87</course>
  <speed>0.0</speed>
  <fix>3d</fix>
</trkpt>
<trkpt lat="40.0713749" lon="-105.229789">
  <ele>1583.0</ele>
  <time>2026-08-28T17:54:40Z</time>
  <course>0.0</course>
  <speed>0.0</speed>
  <fix>3d</fix>
</trkpt>
<trkpt lat="40.0713749" lon="-105.229789">
  <ele>1583.0</ele>
  <time>2026-08-28T17:54:40Z</time>
  <course>246.95</course>
  <speed>0.0</speed>
  <fix>3d</fix>
</trkpt>
<trkpt lat="40.0713749" lon="-105.229789">
  <ele>1583.0</ele>
  <time>2026-08-28T17:54:40Z</time>
  <course>0.0</course>
  <speed>0.0</speed>
  <fix>3d</fix>
</trkpt>
<trkpt lat="40.0713749" lon="-105.229789">
  <ele>1583.0</ele>
  <time>2026-08-28T17:54:40Z</time>
  <course>247.02</course>
  <speed>0.0</speed>
  <fix>3d</fix>
</trkpt>
<trkpt lat="40.0713749" lon="-105.229789">
  <ele>1583.0</ele>
  <time>2026-08-28T17:54:40Z</time>
  <course>0.0</course>
  <speed>0.0</speed>
  <fix>3d</fix>
</trkpt>
<trkpt lat="40.0713749" lon="-105.229789">
  <ele>1583.0</ele>
  <time>2026-08-28T17:54:40Z</time>
  <course>247.1</course>
  <speed>0.0</speed>
  <fix>3d</fix>
</trkpt>
<trkpt lat="40.0713749" lon="-105.229789">
  <ele>1583.0</ele>
  <time>2026-08-28T17:54:40Z</time>
  <course>0.0</course>
  <speed>0.0</speed>
  <fix>3d</fix>
</trkpt>
<trkpt lat="40.0713749" lon="-105.229789">
  <ele>1583.0</ele>
  <time>2026-08-28T17:54:40Z</time>
  <course>247.17</course>
  <speed>0.0</speed>
  <fix>3d</fix>
</trkpt>
<trkpt lat="40.0713749" lon="-105.229789">
  <ele>1583.0</ele>
  <time>2026-08-28T17:54:40Z</time>
  <course>0.0</course>
  <speed>0.0</speed>
  <fix>3d</fix>
</trkpt>
<trkpt lat="40.0713749" lon="-105.229789">
  <ele>1583.0</ele>
  <time>2026-08-28T17:54:40Z</time>
  <course>247.24</course>
  <speed>0.0</speed>
  <fix>3d</fix>
</trkpt>
<trkpt lat="40.0713749" lon="-105.229789">
  <ele>1583.0</ele>
  <time>2026-08-28T17:54:40Z</time>
  <course>0.0</course>
  <speed>0.0</speed>
  <fix>3d</fix>
</trkpt>
<trkpt lat="40.0713749" lon="-105.229789">
  <ele>1583.0</ele>
  <time>2026-08-28T17:54:40Z</time>
  <course>247.3</course>
  <speed>0.0</speed>
  <fix>3d</fix>
</trkpt>
<trkpt lat="40.0713749" lon="-105.229789">
  <ele>1583.0</ele>
  <time>2026-08-28T17:54:40Z</time>
  <course>0.0</course>
  <speed>0.0</speed>
  <fix>3d</fix>
</trkpt>
<trkpt lat="40.0713749" lon="-105.229789">
  <ele>1583.0</ele>
  <time>2026-08-28T17:54:40Z</time>
  <course>247.36</course>
  <speed>0.0</speed>
  <fix>3d</fix>
</trkpt>
<trkpt lat="40.0713749" lon="-105.229789">
  <ele>1583.0</ele>
  <time>2026-08-28T17:54:40Z</time>
  <course>0.0</course>
  <speed>0.0</speed>
  <fix>3d</fix>
</trkpt>
<trkpt lat="40.0713749" lon="-105.229789">
  <ele>1583.0</ele>
  <time>2026-08-28T17:54:40Z</time>
  <course>247.42</course>
  <speed>0.0</speed>
  <fix>3d</fix>
</trkpt>
<trkpt lat="40.0713749" lon="-105.229789">
  <ele>1583.0</ele>
  <time>2026-08-28T17:54:40Z</time>
  <course>0.0</course>
  <speed>0.0</speed>
  <fix>3d</fix>
</trkpt>
<trkpt lat="40.0713749" lon="-105.229789">
  <ele>1583.0</ele>
  <time>2026-08-28T17:54:40Z</time>
  <course>247.47</course>
  <speed>0.0</speed>
  <fix>3d</fix>
</trkpt>
<trkpt lat="40.0713749" lon="-105.229789">
  <ele>1583.0</ele>
  <time>2026-08-28T17:54:40Z</time>
  <course>0.0</course>
  <speed>0.0</speed>
  <fix>3d</fix>
</trkpt>
<trkpt lat="40.0713749" lon="-105.229789">
  <ele>1583.0</ele>
  <time>2026-08-28T17:54:40Z</time>
  <course>247.53</course>
  <speed>0.0</speed>
  <fix>3d</fix>
</trkpt>
<trkpt lat="40.0713749" lon="-105.229789">
  <ele>1583.0</ele>
  <time>2026-08-28T17:54:40Z</time>
  <course>0.0</course>
  <speed>0.0</speed>
  <fix>3d</fix>
</trkpt>
<trkpt lat="40.0713749" lon="-105.229789">
  <ele>1583.0</ele>
  <time>2026-08-28T17:54:40Z</time>
  <course>247.58</course>
  <speed>0.0</speed>
  <fix>3d</fix>
</trkpt>
<trkpt lat="40.0713749" lon="-105.229789">
  <ele>1583.0</ele>
  <time>2026-08-28T17:54:40Z</time>
  <course>0.0</course>
  <speed>0.0</speed>
  <fix>3d</fix>
</trkpt>
<trkpt lat="40.0713749" lon="-105.229789">
  <ele>1583.0</ele>
  <time>2026-08-28T17:54:40Z</time>
  <course>247.63</course>
  <speed>0.0</speed>
  <fix>3d</fix>
</trkpt>
<trkpt lat="40.0713749" lon="-105.229789">
  <ele>1583.0</ele>
  <time>2026-08-28T17:54:40Z</time>
  <course>0.0</course>
  <speed>0.0</speed>
  <fix>3d</fix>
</trkpt>
<trkpt lat="40.0713749" lon="-105.229789">
  <ele>1583.0</ele>
  <time>2026-08-28T17:54:40Z</time>
  <course>247.67</course>
  <speed>0.0</speed>
  <fix>3d</fix>
</trkpt>
<trkpt lat="40.0713749" lon="-105.229789">
  <ele>1583.0</ele>
  <time>2026-08-28T17:54:40Z</time>
  <course>0.0</course>
  <speed>0.0</speed>
  <fix>3d</fix>
</trkpt>
<trkpt lat="40.0713749" lon="-105.229789">
  <ele>1583.0</ele>
  <time>2026-08-28T17:54:40Z</time>
  <course>247.72</course>
  <speed>0.0</speed>
  <fix>3d</fix>
</trkpt>
<trkpt lat="40.0713749" lon="-105.229789">
  <ele>1583.0</ele>
  <time>2026-08-28T17:54:40Z</time>
  <course>0.0</course>
  <speed>0.0</speed>
  <fix>3d</fix>
</trkpt>
<trkpt lat="40.0713749" lon="-105.229789">
  <ele>1583.0</ele>
  <time>2026-08-28T17:54:40Z</time>
  <course>247.76</course>
  <speed>0.0</speed>
  <fix>3d</fix>
</trkpt>
<trkpt lat="40.0713749" lon="-105.229789">
  <ele>1583.0</ele>
  <time>2026-08-28T17:54:40Z</time>
  <course>0.0</course>
  <speed>0.0</speed>
  <fix>3d</fix>
</trkpt>
<trkpt lat="40.0713749" lon="-105.229789">
  <ele>1583.0</ele>
  <time>2026-08-28T17:54:40Z</time>
  <course>247.8</course>
  <speed>0.0</speed>
  <fix>3d</fix>
</trkpt>
<trkpt lat="40.0713749" lon="-105.229789">
  <ele>1583.0</ele>
  <time>2026-08-28T17:54:40Z</time>
  <course>0.0</course>
  <speed>0.0</speed>
  <fix>3d</fix>
</trkpt>
<trkpt lat="40.0713749" lon="-105.229789">
  <ele>1583.0</ele>
  <time>2026-08-28T17:54:40Z</time>
  <course>247.83</course>
  <speed>0.0</speed>
  <fix>3d</fix>
</trkpt>
<trkpt lat="40.0713749" lon="-105.229789">
  <ele>1583.0</ele>
  <time>2026-08-28T17:54:40Z</time>
  <course>0.0</course>
  <speed>0.0</speed>
  <fix>3d</fix>
</trkpt>
<trkpt lat="40.0713749" lon="-105.229789">
  <ele>1583.0</ele>
  <time>2026-08-28T17:54:40Z</time>
  <course>247.87</course>
  <speed>0.0</speed>
  <fix>3d</fix>
</trkpt>
<trkpt lat="40.0713749" lon="-105.229789">
  <ele>1583.0</ele>
  <time>2026-08-28T17:54:40Z</time>
  <course>0.0</course>
  <speed>0.0</speed>
  <fix>3d</fix>
</trkpt>
<trkpt lat="40.0713749" lon="-105.229789">
  <ele>1583.0</ele>
  <time>2026-08-28T17:54:40Z</time>
  <course>247.9</course>
  <speed>0.0</speed>
  <fix>3d</fix>
</trkpt>
<trkpt lat="40.0713749" lon="-105.229789">
  <ele>1583.0</ele>
  <time>2026-08-28T17:54:40Z</time>
  <course>0.0</course>
  <speed>0.0</speed>
  <fix>3d</fix>
</trkpt>
<trkpt lat="40.0713749" lon="-105.229789">
  <ele>1583.0</ele>
  <time>2026-08-28T17:54:40Z</time>
  <course>247.94</course>
  <speed>0.0</speed>
  <fix>3d</fix>
</trkpt>
<trkpt lat="40.0713749" lon="-105.229789">
  <ele>1583.0</ele>
  <time>2026-08-28T17:54:40Z</time>
  <course>0.0</course>
  <speed>0.0</speed>
  <fix>3d</fix>
</trkpt>
<trkpt lat="40.0713749" lon="-105.229789">
  <ele>1583.0</ele>
  <time>2026-08-28T17:54:40Z</time>
  <course>247.97</course>
  <speed>0.0</speed>
  <fix>3d</fix>
</trkpt>
<trkpt lat="40.0713749" lon="-105.229789">
  <ele>1583.0</ele>
  <time>2026-08-28T17:54:40Z</time>
  <course>0.0</course>
  <speed>0.0</speed>
  <fix>3d</fix>
</trkpt>
<trkpt lat="40.0713749" lon="-105.229789">
  <ele>1583.0</ele>
  <time>2026-08-28T17:54:40Z</time>
  <course>248.0</course>
  <speed>0.0</speed>
  <fix>3d</fix>
</trkpt>
<trkpt lat="40.0713749" lon="-105.229789">
  <ele>1583.0</ele>
  <time>2026-08-28T17:54:40Z</time>
  <course>0.0</course>
  <speed>0.0</speed>
  <fix>3d</fix>
</trkpt>
<trkpt lat="40.0713749" lon="-105.229789">
  <ele>1583.0</ele>
  <time>2026-08-28T17:54:40Z</time>
  <course>248.02</course>
  <speed>0.0</speed>
  <fix>3d</fix>
</trkpt>
<trkpt lat="40.0713749" lon="-105.229789">
  <ele>1583.0</ele>
  <time>2026-08-28T17:54:40Z</time>
  <course>0.0</course>
  <speed>0.0</speed>
  <fix>3d</fix>
</trkpt>
<trkpt lat="40.0713749" lon="-105.229789">
  <ele>1583.0</ele>
  <time>2026-08-28T17:54:40Z</time>
  <course>248.05</course>
  <speed>0.0</speed>
  <fix>3d</fix>
</trkpt>
<trkpt lat="40.0713749" lon="-105.229789">
  <ele>1583.0</ele>
  <time>2026-08-28T17:54:40Z</time>
  <course>0.0</course>
  <speed>0.0</speed>
  <fix>3d</fix>
</trkpt>
<trkpt lat="40.0713749" lon="-105.229789">
  <ele>1583.0</ele>
  <time>2026-08-28T17:54:40Z</time>
  <course>248.08</course>
  <speed>0.0</speed>
  <fix>3d</fix>
</trkpt>
<trkpt lat="40.0713749" lon="-105.229789">
  <ele>1583.0</ele>
  <time>2026-08-28T17:54:40Z</time>
  <course>0.0</course>
  <speed>0.0</speed>
  <fix>3d</fix>
</trkpt>
<trkpt lat="40.0713749" lon="-105.229789">
  <ele>1583.0</ele>
  <time>2026-08-28T17:54:40Z</time>
  <course>248.1</course>
  <speed>0.0</speed>
  <fix>3d</fix>
</trkpt>
<trkpt lat="40.0713749" lon="-105.229789">
  <ele>1583.0</ele>
  <time>2026-08-28T17:54:40Z</time>
  <course>0.0</course>
  <speed>0.0</speed>
  <fix>3d</fix>
</trkpt>
<trkpt lat="40.0713749" lon="-105.229789">
  <ele>1583.0</ele>
  <time>2026-08-28T17:54:40Z</time>
  <course>248.12</course>
  <speed>0.0</speed>
  <fix>3d</fix>
</trkpt>
<trkpt lat="40.0713749" lon="-105.229789">
  <ele>1583.0</ele>
  <time>2026-08-28T17:54:40Z</time>
  <course>0.0</course>
  <speed>0.0</speed>
  <fix>3d</fix>
</trkpt>
<trkpt lat="40.0713749" lon="-105.229789">
  <ele>1583.0</ele>
  <time>2026-08-28T17:54:40Z</time>
  <course>248.14</course>
  <speed>0.0</speed>
  <fix>3d</fix>
</trkpt>
<trkpt lat="40.0713749" lon="-105.229789">
  <ele>1583.0</ele>
  <time>2026-08-28T17:54:40Z</time>
  <course>0.0</course>
  <speed>0.0</speed>
  <fix>3d</fix>
</trkpt>
<trkpt lat="40.0713749" lon="-105.229789">
  <ele>1583.0</ele>
  <time>2026-08-28T17:54:40Z</time>
  <course>248.16</course>
  <speed>0.0</speed>
  <fix>3d</fix>
</trkpt>
<trkpt lat="40.0713749" lon="-105.229789">
  <ele>1583.0</ele>
  <time>2026-08-28T17:54:40Z</time>
  <course>0.0</course>
  <speed>0.0</speed>
  <fix>3d</fix>
</trkpt>
<trkpt lat="40.0713749" lon="-105.229789">
  <ele>1583.0</ele>
  <time>2026-08-28T17:54:40Z</time>
  <course>248.18</course>
  <speed>0.0</speed>
  <fix>3d</fix>
</trkpt>
<trkpt lat="40.0713749" lon="-105.229789">
  <ele>1583.0</ele>
  <time>2026-08-28T17:54:40Z</time>
  <course>0.0</course>
  <speed>0.0</speed>
  <fix>3d</fix>
</trkpt>
<trkpt lat="40.0713749" lon="-105.229789">
  <ele>1583.0</ele>
  <time>2026-08-28T17:54:40Z</time>
  <course>248.2</course>
  <speed>0.0</speed>
  <fix>3d</fix>
</trkpt>
<trkpt lat="40.0713749" lon="-105.229789">
  <ele>1583.0</ele>
  <time>2026-08-28T17:54:40Z</time>
  <course>0.0</course>
  <speed>0.0</speed>
  <fix>3d</fix>
</trkpt>
<trkpt lat="40.0713749" lon="-105.229789">
  <ele>1583.0</ele>
  <time>2026-08-28T17:54:40Z</time>
  <course>248.22</course>
  <speed>0.0</speed>
  <fix>3d</fix>
</trkpt>
<trkpt lat="40.0713749" lon="-105.229789">
  <ele>1583.0</ele>
  <time>2026-08-28T17:54:40Z</time>
  <course>0.0</course>
  <speed>0.0</speed>
  <fix>3d</fix>
</trkpt>
<trkpt lat="40.0713749" lon="-105.229789">
  <ele>1583.0</ele>
  <time>2026-08-28T17:54:40Z</time>
  <course>248.23</course>
  <speed>0.0</speed>
  <fix>3d</fix>
</trkpt>
<trkpt lat="40.0713749" lon="-105.229789">
  <ele>1583.0</ele>
  <time>2026-08-28T17:54:40Z</time>
  <course>0.0</course>
  <speed>0.0</speed>
  <fix>3d</fix>
</trkpt>
<trkpt lat="40.0713749" lon="-105.229789">
  <ele>1583.0</ele>
  <time>2026-08-28T17:54:40Z</time>
  <course>248.25</course>
  <speed>0.0</speed>
  <fix>3d</fix>
</trkpt>
<trkpt lat="40.0713749" lon="-105.229789">
  <ele>1583.0</ele>
  <time>2026-08-28T17:54:40Z</time>
  <course>0.0</course>
  <speed>0.0</speed>
  <fix>3d</fix>
</trkpt>
<trkpt lat="40.0713749" lon="-105.229789">
  <ele>1583.0</ele>
  <time>2026-08-28T17:54:40Z</time>
  <course>248.26</course>
  <speed>0.0</speed>
  <fix>3d</fix>
</trkpt>
<trkpt lat="40.0713749" lon="-105.229789">
  <ele>1583.0</ele>
  <time>2026-08-28T17:54:40Z</time>
  <course>0.0</course>
  <speed>0.0</speed>
  <fix>3d</fix>
</trkpt>
<trkpt lat="40.0713749" lon="-105.229789">
  <ele>1583.0</ele>
  <time>2026-08-28T17:54:40Z</time>
  <course>248.28</course>
  <speed>0.0</speed>
  <fix>3d</fix>
</trkpt>
<trkpt lat="40.0713749" lon="-105.229789">
  <ele>1583.0</ele>
  <time>2026-08-28T17:54:40Z</time>
  <course>0.0</course>
  <speed>0.0</speed>
  <fix>3d</fix>
</trkpt>
<trkpt lat="40.0713749" lon="-105.229789">
  <ele>1583.0</ele>
  <time>2026-08-28T17:54:40Z</time>
  <course>248.29</course>
  <speed>0.0</speed>
  <fix>3d</fix>
</trkpt>
<trkpt lat="40.0713749" lon="-105.229789">
  <ele>1583.0</ele>
  <time>2026-08-28T17:54:40Z</time>
  <course>0.0</course>
  <speed>0.0</speed>
  <fix>3d</fix>
</trkpt>
<trkpt lat="40.0713749" lon="-105.229789">
  <ele>1583.0</ele>
  <time>2026-08-28T17:54:40Z</time>
  <course>248.3</course>
  <speed>0.0</speed>
  <fix>3d</fix>
</trkpt>
<trkpt lat="40.0713749" lon="-105.229789">
  <ele>1583.0</ele>
  <time>2026-08-28T17:54:40Z</time>
  <course>0.0</course>
  <speed>0.0</speed>
  <fix>3d</fix>
</trkpt>
<trkpt lat="40.0713749" lon="-105.229789">
  <ele>1583.0</ele>
  <time>2026-08-28T17:54:40Z</time>
  <course>248.31</course>
  <speed>0.0</speed>
  <fix>3d</fix>
</trkpt>
<trkpt lat="40.0713749" lon="-105.229789">
  <ele>1583.0</ele>
  <time>2026-08-28T17:54:40Z</time>
  <course>0.0</course>
  <speed>0.0</speed>
  <fix>3d</fix>
</trkpt>
<trkpt lat="40.0713749" lon="-105.229789">
  <ele>1583.0</ele>
  <time>2026-08-28T17:54:40Z</time>
  <course>248.32</course>
  <speed>0.0</speed>
  <fix>3d</fix>
</trkpt>
<trkpt lat="40.0713749" lon="-105.229789">
  <ele>1583.0</ele>
  <time>2026-08-28T17:54:40Z</time>
  <course>0.0</course>
  <speed>0.0</speed>
  <fix>3d</fix>
</trkpt>
<trkpt lat="40.0713749" lon="-105.229789">
  <ele>1583.0</ele>
  <time>2026-08-28T17:54:40Z</time>
  <course>248.33</course>
  <speed>0.0</speed>
  <fix>3d</fix>
</trkpt>
<trkpt lat="40.0713749" lon="-105.229789">
  <ele>1583.0</ele>
  <time>2026-08-28T17:54:40Z</time>
  <course>0.0</course>
  <speed>0.0</speed>
  <fix>3d</fix>
</trkpt>
<trkpt lat="40.0713749" lon="-105.229789">
  <ele>1583.0</ele>
  <time>2026-08-28T17:54:40Z</time>
  <course>248.34</course>
  <speed>0.0</speed>
  <fix>3d</fix>
</trkpt>
<trkpt lat="40.0713749" lon="-105.229789">
  <ele>1583.0</ele>
  <time>2026-08-28T17:54:40Z</time>
  <course>0.0</course>
  <speed>0.0</speed>
  <fix>3d</fix>
</trkpt>
<trkpt lat="40.0713749" lon="-105.229789">
  <ele>1583.0</ele>
  <time>2026-08-28T17:54:40Z</time>
  <course>248.35</course>
  <speed>0.0</speed>
  <fix>3d</fix>
</trkpt>
<trkpt lat="40.0713749" lon="-105.229789">
  <ele>1583.0</ele>
  <time>2026-08-28T17:54:40Z</time>
  <course>0.0</course>
  <speed>0.0</speed>
  <fix>3d</fix>
</trkpt>
<trkpt lat="40.0713749" lon="-105.229789">
  <ele>1583.0</ele>
  <time>2026-08-28T17:54:40Z</time>
  <course>248.35</course>
  <speed>0.0</speed>
  <fix>3d</fix>
</trkpt>
<trkpt lat="40.0713749" lon="-105.229789">
  <ele>1583.0</ele>
  <time>2026-08-28T17:54:40Z</time>
  <course>0.0</course>
  <speed>0.0</speed>
  <fix>3d</fix>
</trkpt>
<trkpt lat="40.0713749" lon="-105.229789">
  <ele>1583.0</ele>
  <time>2026-08-28T17:54:40Z</time>
  <course>248.36</course>
  <speed>0.0</speed>
  <fix>3d</fix>
</trkpt>
<trkpt lat="40.0713749" lon="-105.229789">
  <ele>1583.0</ele>
  <time>2026-08-28T17:54:40Z</time>
  <course>0.0</course>
  <speed>0.0</speed>
  <fix>3d</fix>
</trkpt>
<trkpt lat="40.0713749" lon="-105.229789">
  <ele>1583.0</ele>
  <time>2026-08-28T17:54:40Z</time>
  <course>248.37</course>
  <speed>0.0</speed>
  <fix>3d</fix>
</trkpt>
<trkpt lat="40.0713749" lon="-105.229789">
  <ele>1583.0</ele>
  <time>2026-08-28T17:54:40Z</time>
  <course>0.0</course>
  <speed>0.0</speed>
  <fix>3d</fix>
</trkpt>
<trkpt lat="40.0713749" lon="-105.229789">
  <ele>1583.0</ele>
  <time>2026-08-28T17:54:40Z</time>
  <course>248.37</course>
  <speed>0.0</speed>
  <fix>3d</fix>
</trkpt>
<trkpt lat="40.0713749" lon="-105.229789">
  <ele>1583.0</ele>
  <time>2026-08-28T17:54:40Z</time>
  <course>0.0</course>
  <speed>0.0</speed>
  <fix>3d</fix>
</trkpt>
<trkpt lat="40.0713749" lon="-105.229789">
  <ele>1583.0</ele>
  <time>2026-08-28T17:54:40Z</time>
  <course>248.38</course>
  <speed>0.0</speed>
  <fix>3d</fix>
</trkpt>
<trkpt lat="40.0713749" lon="-105.229789">
  <ele>1583.0</ele>
  <time>2026-08-28T17:54:40Z</time>
  <course>0.0</course>
  <speed>0.0</speed>
  <fix>3d</fix>
</trkpt>
<trkpt lat="40.0713749" lon="-105.229789">
  <ele>1583.0</ele>
  <time>2026-08-28T17:54:40Z</time>
  <course>248.38</course>
  <speed>0.0</speed>
  <fix>3d</fix>
</trkpt>
<trkpt lat="40.0713749" lon="-105.229789">
  <ele>1583.0</ele>
  <time>2026-08-28T17:54:40Z</time>
  <course>0.0</course>
  <speed>0.0</speed>
  <fix>3d</fix>
</trkpt>
<trkpt lat="40.0713749" lon="-105.229789">
  <ele>1583.0</ele>
  <time>2026-08-28T17:54:40Z</time>
  <course>248.39</course>
  <speed>0.0</speed>
  <fix>3d</fix>
</trkpt>
<trkpt lat="40.0713749" lon="-105.229789">
  <ele>1583.0</ele>
  <time>2026-08-28T17:54:40Z</time>
  <course>0.0</course>
  <speed>0.0</speed>
  <fix>3d</fix>
</trkpt>
<trkpt lat="40.0713749" lon="-105.229789">
  <ele>1583.0</ele>
  <time>2026-08-28T17:54:40Z</time>
  <course>248.39</course>
  <speed>0.0</speed>
  <fix>3d</fix>
</trkpt>
<trkpt lat="40.0713749" lon="-105.229789">
  <ele>1583.0</ele>
  <time>2026-08-28T17:54:40Z</time>
  <course>0.0</course>
  <speed>0.0</speed>
  <fix>3d</fix>
</trkpt>
<trkpt lat="40.0713749" lon="-105.229789">
  <ele>1583.0</ele>
  <time>2026-08-28T17:54:40Z</time>
  <course>248.4</course>
  <speed>0.0</speed>
  <fix>3d</fix>
</trkpt>
<trkpt lat="40.0713749" lon="-105.229789">
  <ele>1583.0</ele>
  <time>2026-08-28T17:54:40Z</time>
  <course>0.0</course>
  <speed>0.0</speed>
  <fix>3d</fix>
</trkpt>
<trkpt lat="40.0713749" lon="-105.229789">
  <ele>1583.0</ele>
  <time>2026-08-28T17:54:40Z</time>
  <course>248.4</course>
  <speed>0.0</speed>
  <fix>3d</fix>
</trkpt>
<trkpt lat="40.0713749" lon="-105.229789">
  <ele>1583.0</ele>
  <time>2026-08-28T17:54:40Z</time>
  <course>0.0</course>
  <speed>0.0</speed>
  <fix>3d</fix>
</trkpt>
<trkpt lat="40.0713749" lon="-105.229789">
  <ele>1583.0</ele>
  <time>2026-08-28T17:54:40Z</time>
  <course>248.4</course>
  <speed>0.0</speed>
  <fix>3d</fix>
</trkpt>
<trkpt lat="40.0713749" lon="-105.229789">
  <ele>1583.0</ele>
  <time>2026-08-28T17:54:40Z</time>
  <course>0.0</course>
  <speed>0.0</speed>
  <fix>3d</fix>
</trkpt>
<trkpt lat="40.0713749" lon="-105.229789">
  <ele>1583.0</ele>
  <time>2026-08-28T17:54:40Z</time>
  <course>248.4</course>
  <speed>0.0</speed>
  <fix>3d</fix>
</trkpt>
<trkpt lat="40.0713749" lon="-105.229789">
  <ele>1583.0</ele>
  <time>2026-08-28T17:54:40Z</time>
  <course>0.0</course>
  <speed>0.0</speed>
  <fix>3d</fix>
</trkpt>
<trkpt lat="40.0713749" lon="-105.229789">
  <ele>1583.0</ele>
  <time>2026-08-28T17:54:40Z</time>
  <course>248.41</course>
  <speed>0.0</speed>
  <fix>3d</fix>
</trkpt>
<trkpt lat="40.0713749" lon="-105.229789">
  <ele>1583.0</ele>
  <time>2026-08-28T17:54:40Z</time>
  <course>0.0</course>
  <speed>0.0</speed>
  <fix>3d</fix>
</trkpt>
<trkpt lat="40.0713749" lon="-105.229789">
  <ele>1583.0</ele>
  <time>2026-08-28T17:54:40Z</time>
  <course>248.41</course>
  <speed>0.0</speed>
  <fix>3d</fix>
</trkpt>
<trkpt lat="40.0713749" lon="-105.229789">
  <ele>1583.0</ele>
  <time>2026-08-28T17:54:40Z</time>
  <course>0.0</course>
  <speed>0.0</speed>
  <fix>3d</fix>
</trkpt>
<trkpt lat="40.0713749" lon="-105.229789">
  <ele>1583.0</ele>
  <time>2026-08-28T17:54:40Z</time>
  <course>248.41</course>
  <speed>0.0</speed>
  <fix>3d</fix>
</trkpt>
<trkpt lat="40.0713749" lon="-105.229789">
  <ele>1583.0</ele>
  <time>2026-08-28T17:54:40Z</time>
  <course>0.0</course>
  <speed>0.0</speed>
  <fix>3d</fix>
</trkpt>
<trkpt lat="40.0713749" lon="-105.229789">
  <ele>1583.0</ele>
  <time>2026-08-28T17:54:40Z</time>
  <course>248.41</course>
  <speed>0.0</speed>
  <fix>3d</fix>
</trkpt>
<trkpt lat="40.0713749" lon="-105.229789">
  <ele>1583.0</ele>
  <time>2026-08-28T17:54:40Z</time>
  <course>0.0</course>
  <speed>0.0</speed>
  <fix>3d</fix>
</trkpt>
<trkpt lat="40.0713749" lon="-105.229789">
  <ele>1583.0</ele>
  <time>2026-08-28T17:54:40Z</time>
  <course>248.41</course>
  <speed>0.0</speed>
  <fix>3d</fix>
</trkpt>
<trkpt lat="40.0713749" lon="-105.229789">
  <ele>1583.0</ele>
  <time>2026-08-28T17:54:40Z</time>
  <course>0.0</course>
  <speed>0.0</speed>
  <fix>3d</fix>
</trkpt>
<trkpt lat="40.0713749" lon="-105.229789">
  <ele>1583.0</ele>
  <time>2026-08-28T17:54:40Z</time>
  <course>248.41</course>
  <speed>0.0</speed>
  <fix>3d</fix>
</trkpt>
<trkpt lat="40.0713749" lon="-105.229789">
  <ele>1583.0</ele>
  <time>2026-08-28T17:54:40Z</time>
  <course>0.0</course>
  <speed>0.0</speed>
  <fix>3d</fix>
</trkpt>
<trkpt lat="40.0713749" lon="-105.229789">
  <ele>1583.0</ele>
  <time>2026-08-28T17:54:40Z</time>
  <course>248.41</course>
  <speed>0.0</speed>
  <fix>3d</fix>
</trkpt>
<trkpt lat="40.0713749" lon="-105.229789">
  <ele>1583.0</ele>
  <time>2026-08-28T17:54:40Z</time>
  <course>0.0</course>
  <speed>0.0</speed>
  <fix>3d</fix>
</trkpt>
<trkpt lat="40.0713749" lon="-105.229789">
  <ele>1583.0</ele>
  <time>2026-08-28T17:54:40Z</time>
  <course>248.41</course>
  <speed>0.0</speed>
  <fix>3d</fix>
</trkpt>
<trkpt lat="40.0713749" lon="-105.229789">
  <ele>1583.0</ele>
  <time>2026-08-28T17:54:40Z</time>
  <course>0.0</course>
  <speed>0.0</speed>
  <fix>3d</fix>
</trkpt>
<trkpt lat="40.0713749" lon="-105.229789">
  <ele>1583.0</ele>
  <time>2026-08-28T17:54:40Z</time>
  <course>248.41</course>
  <speed>0.0</speed>
  <fix>3d</fix>
</trkpt>
<trkpt lat="40.0713749" lon="-105.229789">
  <ele>1583.0</ele>
  <time>2026-08-28T17:54:40Z</time>
  <course>0.0</course>
  <speed>0.0</speed>
  <fix>3d</fix>
</trkpt>
<trkpt lat="40.0713749" lon="-105.229789">
  <ele>1583.0</ele>
  <time>2026-08-28T17:54:40Z</time>
  <course>248.41</course>
  <speed>0.0</speed>
  <fix>3d</fix>
</trkpt>
<trkpt lat="40.0713749" lon="-105.229789">
  <ele>1583.0</ele>
  <time>2026-08-28T17:54:40Z</time>
  <course>0.0</course>
  <speed>0.0</speed>
  <fix>3d</fix>
</trkpt>
<trkpt lat="40.0713749" lon="-105.229789">
  <ele>1583.0</ele>
  <time>2026-08-28T17:54:40Z</time>
  <course>248.41</course>
  <speed>0.0</speed>
  <fix>3d</fix>
</trkpt>
<trkpt lat="40.0713749" lon="-105.229789">
  <ele>1583.0</ele>
  <time>2026-08-28T17:54:40Z</time>
  <course>0.0</course>
  <speed>0.0</speed>
  <fix>3d</fix>
</trkpt>
<trkpt lat="40.0713749" lon="-105.229789">
  <ele>1583.0</ele>
  <time>2026-08-28T17:54:40Z</time>
  <course>248.41</course>
  <speed>0.0</speed>
  <fix>3d</fix>
</trkpt>
<trkpt lat="40.0713749" lon="-105.229789">
  <ele>1583.0</ele>
  <time>2026-08-28T17:54:40Z</time>
  <course>0.0</course>
  <speed>0.0</speed>
  <fix>3d</fix>
</trkpt>
<trkpt lat="40.0713749" lon="-105.229789">
  <ele>1583.0</ele>
  <time>2026-08-28T17:54:40Z</time>
  <course>248.41</course>
  <speed>0.0</speed>
  <fix>3d</fix>
</trkpt>
<trkpt lat="40.0713749" lon="-105.229789">
  <ele>1583.0</ele>
  <time>2026-08-28T17:54:40Z</time>
  <course>0.0</course>
  <speed>0.0</speed>
  <fix>3d</fix>
</trkpt>
<trkpt lat="40.0713749" lon="-105.229789">
  <ele>1583.0</ele>
  <time>2026-08-28T17:54:40Z</time>
  <course>248.41</course>
  <speed>0.0</speed>
  <fix>3d</fix>
</trkpt>
<trkpt lat="40.0713749" lon="-105.229789">
  <ele>1583.0</ele>
  <time>2026-08-28T17:54:40Z</time>
  <course>0.0</course>
  <speed>0.0</speed>
  <fix>3d</fix>
</trkpt>
<trkpt lat="40.0713749" lon="-105.229789">
  <ele>1583.0</ele>
  <time>2026-08-28T17:54:40Z</time>
  <course>248.41</course>
  <speed>0.0</speed>
  <fix>3d</fix>
</trkpt>
<trkpt lat="40.0713749" lon="-105.229789">
  <ele>1583.0</ele>
  <time>2026-08-28T17:54:40Z</time>
  <course>0.0</course>
  <speed>0.0</speed>
  <fix>3d</fix>
</trkpt>
<trkpt lat="40.0713749" lon="-105.229789">
  <ele>1583.0</ele>
  <time>2026-08-28T17:54:40Z</time>
  <course>248.41</course>
  <speed>0.0</speed>
  <fix>3d</fix>
</trkpt>
<trkpt lat="40.0713749" lon="-105.229789">
  <ele>1583.0</ele>
  <time>2026-08-28T17:54:40Z</time>
  <course>0.0</course>
  <speed>0.0</speed>
  <fix>3d</fix>
</trkpt>
<trkpt lat="40.0713749" lon="-105.229789">
  <ele>1583.0</ele>
  <time>2026-08-28T17:54:40Z</time>
  <course>248.4</course>
  <speed>0.0</speed>
  <fix>3d</fix>
</trkpt>
<trkpt lat="40.0713749" lon="-105.229789">
  <ele>1583.0</ele>
  <time>2026-08-28T17:54:40Z</time>
  <course>0.0</course>
  <speed>0.0</speed>
  <fix>3d</fix>
</trkpt>
<trkpt lat="40.0713749" lon="-105.229789">
  <ele>1583.0</ele>
  <time>2026-08-28T17:54:40Z</time>
  <course>248.4</course>
  <speed>0.01</speed>
  <fix>3d</fix>
</trkpt>
<trkpt lat="40.0713749" lon="-105.229789">
  <ele>1583.0</ele>
  <time>2026-08-28T17:54:40Z</time>
  <course>0.0</course>
  <speed>0.0</speed>
  <fix>3d</fix>
</trkpt>
<trkpt lat="40.0713749" lon="-105.229789">
  <ele>1583.0</ele>
  <time>2026-08-28T17:54:40Z</time>
  <course>248.4</course>
  <speed>0.01</speed>
  <fix>3d</fix>
</trkpt>
<trkpt lat="40.0713749" lon="-105.229789">
  <ele>1583.0</ele>
  <time>2026-08-28T17:54:40Z</time>
  <course>0.0</course>
  <speed>0.0</speed>
  <fix>3d</fix>
</trkpt>
<trkpt lat="40.0713749" lon="-105.229789">
  <ele>1583.0</ele>
  <time>2026-08-28T17:54:40Z</time>
  <course>248.4</course>
  <speed>0.01</speed>
  <fix>3d</fix>
</trkpt>
<trkpt lat="40.0713749" lon="-105.229789">
  <ele>1583.0</ele>
  <time>2026-08-28T17:54:40Z</time>
  <course>0.0</course>
  <speed>0.0</speed>
  <fix>3d</fix>
</trkpt>
<trkpt lat="40.0713749" lon="-105.229789">
  <ele>1583.0</ele>
  <time>2026-08-28T17:54:40Z</time>
  <course>248.4</course>
  <speed>0.01</speed>
  <fix>3d</fix>
</trkpt>
<trkpt lat="40.0713749" lon="-105.229789">
  <ele>1583.0</ele>
  <time>2026-08-28T17:54:40Z</time>
  <course>0.0</course>
  <speed>0.0</speed>
  <fix>3d</fix>
</trkpt>
<trkpt lat="40.0713749" lon="-105.229789">
  <ele>1583.0</ele>
  <time>2026-08-28T17:54:40Z</time>
  <course>248.39</course>
  <speed>0.01</speed>
  <fix>3d</fix>
</trkpt>
<trkpt lat="40.0713749" lon="-105.229789">
  <ele>1583.0</ele>
  <time>2026-08-28T17:54:40Z</time>
  <course>0.0</course>
  <speed>0.0</speed>
  <fix>3d</fix>
</trkpt>
<trkpt lat="40.0713749" lon="-105.229789">
  <ele>1583.0</ele>
  <time>2026-08-28T17:54:40Z</time>
  <course>248.39</course>
  <speed>0.01</speed>
  <fix>3d</fix>
</trkpt>
<trkpt lat="40.0713749" lon="-105.229789">
  <ele>1583.0</ele>
  <time>2026-08-28T17:54:40Z</time>
  <course>0.0</course>
  <speed>0.0</speed>
  <fix>3d</fix>
</trkpt>
<trkpt lat="40.0713749" lon="-105.229789">
  <ele>1583.0</ele>
  <time>2026-08-28T17:54:40Z</time>
  <course>248.39</course>
  <speed>0.01</speed>
  <fix>3d</fix>
</trkpt>
<trkpt lat="40.0713749" lon="-105.229789">
  <ele>1583.0</ele>
  <time>2026-08-28T17:54:40Z</time>
  <course>0.0</course>
  <speed>0.0</speed>
  <fix>3d</fix>
</trkpt>
<trkpt lat="40.0713749" lon="-105.229789">
  <ele>1583.0</ele>
  <time>2026-08-28T17:54:40Z</time>
  <course>248.38</course>
  <speed>0.01</speed>
  <fix>3d</fix>
</trkpt>
<trkpt lat="40.0713749" lon="-105.229789">
  <ele>1583.0</ele>
  <time>2026-08-28T17:54:40Z</time>
  <course>0.0</course>
  <speed>0.0</speed>
  <fix>3d</fix>
</trkpt>
<trkpt lat="40.0713749" lon="-105.229789">
  <ele>1583.0</ele>
  <time>2026-08-28T17:54:40Z</time>
  <course>248.38</course>
  <speed>0.01</speed>
  <fix>3d</fix>
</trkpt>
<trkpt lat="40.0713749" lon="-105.229789">
  <ele>1583.0</ele>
  <time>2026-08-28T17:54:40Z</time>
  <course>0.0</course>
  <speed>0.0</speed>
  <fix>3d</fix>
</trkpt>
<trkpt lat="40.0713749" lon="-105.229789">
  <ele>1583.0</ele>
  <time>2026-08-28T17:54:40Z</time>
  <course>248.38</course>
  <speed>0.01</speed>
  <fix>3d</fix>
</trkpt>
<trkpt lat="40.0713749" lon="-105.229789">
  <ele>1583.0</ele>
  <time>2026-08-28T17:54:40Z</time>
  <course>0.0</course>
  <speed>0.0</speed>
  <fix>3d</fix>
</trkpt>
<trkpt lat="40.0713749" lon="-105.229789">
  <ele>1583.0</ele>
  <time>2026-08-28T17:54:40Z</time>
  <course>248.37</course>
  <speed>0.01</speed>
  <fix>3d</fix>
</trkpt>
<trkpt lat="40.0713749" lon="-105.229789">
  <ele>1583.0</ele>
  <time>2026-08-28T17:54:40Z</time>
  <course>0.0</course>
  <speed>0.0</speed>
  <fix>3d</fix>
</trkpt>
<trkpt lat="40.0713749" lon="-105.229789">
  <ele>1583.0</ele>
  <time>2026-08-28T17:54:40Z</time>
  <course>248.37</course>
  <speed>0.01</speed>
  <fix>3d</fix>
</trkpt>
<trkpt lat="40.0713749" lon="-105.229789">
  <ele>1583.0</ele>
  <time>2026-08-28T17:54:40Z</time>
  <course>0.0</course>
  <speed>0.0</speed>
  <fix>3d</fix>
</trkpt>
<trkpt lat="40.0713749" lon="-105.229789">
  <ele>1583.0</ele>
  <time>2026-08-28T17:54:40Z</time>
  <course>248.37</course>
  <speed>0.01</speed>
  <fix>3d</fix>
</trkpt>
<trkpt lat="40.0713749" lon="-105.229789">
  <ele>1583.0</ele>
  <time>2026-08-28T17:54:40Z</time>
  <course>0.0</course>
  <speed>0.0</speed>
  <fix>3d</fix>
</trkpt>
<trkpt lat="40.0713749" lon="-105.229789">
  <ele>1583.0</ele>
  <time>2026-08-28T17:54:40Z</time>
  <course>248.36</course>
  <speed>0.01</speed>
  <fix>3d</fix>
</trkpt>
<trkpt lat="40.0713749" lon="-105.229789">
  <ele>1583.0</ele>
  <time>2026-08-28T17:54:40Z</time>
  <course>0.0</course>
  <speed>0.0</speed>
  <fix>3d</fix>
</trkpt>
<trkpt lat="40.0713749" lon="-105.229789">
  <ele>1583.0</ele>
  <time>2026-08-28T17:54:40Z</time>
  <course>248.36</course>
  <speed>0.01</speed>
  <fix>3d</fix>
</trkpt>
<trkpt lat="40.0713749" lon="-105.229789">
  <ele>1583.0</ele>
  <time>2026-08-28T17:54:40Z</time>
  <course>0.0</course>
  <speed>0.0</speed>
  <fix>3d</fix>
</trkpt>
<trkpt lat="40.0713749" lon="-105.229789">
  <ele>1583.0</ele>
  <time>2026-08-28T17:54:40Z</time>
  <course>248.36</course>
  <speed>0.01</speed>
  <fix>3d</fix>
</trkpt>
<trkpt lat="40.0713749" lon="-105.229789">
  <ele>1583.0</ele>
  <time>2026-08-28T17:54:40Z</time>
  <course>0.0</course>
  <speed>0.0</speed>
  <fix>3d</fix>
</trkpt>
<trkpt lat="40.0713749" lon="-105.229789">
  <ele>1583.0</ele>
  <time>2026-08-28T17:54:40Z</time>
  <course>248.35</course>
  <speed>0.01</speed>
  <fix>3d</fix>
</trkpt>
<trkpt lat="40.0713749" lon="-105.229789">
  <ele>1583.0</ele>
  <time>2026-08-28T17:54:40Z</time>
  <course>0.0</course>
  <speed>0.0</speed>
  <fix>3d</fix>
</trkpt>
<trkpt lat="40.0713749" lon="-105.229789">
  <ele>1583.0</ele>
  <time>2026-08-28T17:54:40Z</time>
  <course>248.35</course>
  <speed>0.01</speed>
  <fix>3d</fix>
</trkpt>
<trkpt lat="40.0713749" lon="-105.229789">
  <ele>1583.0</ele>
  <time>2026-08-28T17:54:40Z</time>
  <course>0.0</course>
  <speed>0.0</speed>
  <fix>3d</fix>
</trkpt>
<trkpt lat="40.0713749" lon="-105.229789">
  <ele>1583.0</ele>
  <time>2026-08-28T17:54:40Z</time>
  <course>248.35</course>
  <speed>0.01</speed>
  <fix>3d</fix>
</trkpt>
<trkpt lat="40.0713749" lon="-105.229789">
  <ele>1583.0</ele>
  <time>2026-08-28T17:54:40Z</time>
  <course>0.0</course>
  <speed>0.0</speed>
  <fix>3d</fix>
</trkpt>
<trkpt lat="40.0713749" lon="-105.229789">
  <ele>1583.0</ele>
  <time>2026-08-28T17:54:40Z</time>
  <course>248.34</course>
  <speed>0.01</speed>
  <fix>3d</fix>
</trkpt>
<trkpt lat="40.0713749" lon="-105.229789">
  <ele>1583.0</ele>
  <time>2026-08-28T17:54:40Z</time>
  <course>0.0</course>
  <speed>0.0</speed>
  <fix>3d</fix>
</trkpt>
<trkpt lat="40.0713749" lon="-105.229789">
  <ele>1583.0</ele>
  <time>2026-08-28T17:54:40Z</time>
  <course>248.34</course>
  <speed>0.01</speed>
  <fix>3d</fix>
</trkpt>
<trkpt lat="40.0713749" lon="-105.229789">
  <ele>1583.0</ele>
  <time>2026-08-28T17:54:40Z</time>
  <course>0.0</course>
  <speed>0.0</speed>
  <fix>3d</fix>
</trkpt>
<trkpt lat="40.0713749" lon="-105.229789">
  <ele>1583.0</ele>
  <time>2026-08-28T17:54:40Z</time>
  <course>248.33</course>
  <speed>0.01</speed>
  <fix>3d</fix>
</trkpt>
<trkpt lat="40.0713749" lon="-105.229789">
  <ele>1583.0</ele>
  <time>2026-08-28T17:54:40Z</time>
  <course>0.0</course>
  <speed>0.0</speed>
  <fix>3d</fix>
</trkpt>
<trkpt lat="40.0713749" lon="-105.229789">
  <ele>1583.0</ele>
  <time>2026-08-28T17:54:40Z</time>
  <course>248.33</course>
  <speed>0.01</speed>
  <fix>3d</fix>
</trkpt>
<trkpt lat="40.0713749" lon="-105.229789">
  <ele>1583.0</ele>
  <time>2026-08-28T17:54:40Z</time>
  <course>0.0</course>
  <speed>0.0</speed>
  <fix>3d</fix>
</trkpt>
<trkpt lat="40.0713749" lon="-105.229789">
  <ele>1583.0</ele>
  <time>2026-08-28T17:54:40Z</time>
  <course>248.32</course>
  <speed>0.01</speed>
  <fix>3d</fix>
</trkpt>
<trkpt lat="40.0713749" lon="-105.229789">
  <ele>1583.0</ele>
  <time>2026-08-28T17:54:40Z</time>
  <course>0.0</course>
  <speed>0.0</speed>
  <fix>3d</fix>
</trkpt>
<trkpt lat="40.0713749" lon="-105.229789">
  <ele>1583.0</ele>
  <time>2026-08-28T17:54:40Z</time>
  <course>248.32</course>
  <speed>0.01</speed>
  <fix>3d</fix>
</trkpt>
<trkpt lat="40.0713749" lon="-105.229789">
  <ele>1583.0</ele>
  <time>2026-08-28T17:54:40Z</time>
  <course>0.0</course>
  <speed>0.0</speed>
  <fix>3d</fix>
</trkpt>
<trkpt lat="40.0713749" lon="-105.229789">
  <ele>1583.0</ele>
  <time>2026-08-28T17:54:40Z</time>
  <course>248.32</course>
  <speed>0.01</speed>
  <fix>3d</fix>
</trkpt>
<trkpt lat="40.0713749" lon="-105.229789">
  <ele>1583.0</ele>
  <time>2026-08-28T17:54:40Z</time>
  <course>0.0</course>
  <speed>0.0</speed>
  <fix>3d</fix>
</trkpt>
<trkpt lat="40.0713749" lon="-105.229789">
  <ele>1583.0</ele>
  <time>2026-08-28T17:54:40Z</time>
  <course>248.31</course>
  <speed>0.01</speed>
  <fix>3d</fix>
</trkpt>
<trkpt lat="40.0713749" lon="-105.229789">
  <ele>1583.0</ele>
  <time>2026-08-28T17:54:40Z</time>
  <course>0.0</course>
  <speed>0.0</speed>
  <fix>3d</fix>
</trkpt>
<trkpt lat="40.0713749" lon="-105.229789">
  <ele>1583.0</ele>
  <time>2026-08-28T17:54:40Z</time>
  <course>248.31</course>
  <speed>0.01</speed>
  <fix>3d</fix>
</trkpt>
<trkpt lat="40.0713749" lon="-105.229789">
  <ele>1583.0</ele>
  <time>2026-08-28T17:54:40Z</time>
  <course>0.0</course>
  <speed>0.0</speed>
  <fix>3d</fix>
</trkpt>
<trkpt lat="40.0713749" lon="-105.229789">
  <ele>1583.0</ele>
  <time>2026-08-28T17:54:40Z</time>
  <course>248.3</course>
  <speed>0.01</speed>
  <fix>3d</fix>
</trkpt>
<trkpt lat="40.0713749" lon="-105.229789">
  <ele>1583.0</ele>
  <time>2026-08-28T17:54:40Z</time>
  <course>0.0</course>
  <speed>0.0</speed>
  <fix>3d</fix>
</trkpt>
<trkpt lat="40.0713749" lon="-105.229789">
  <ele>1583.0</ele>
  <time>2026-08-28T17:54:40Z</time>
  <course>248.3</course>
  <speed>0.01</speed>
  <fix>3d</fix>
</trkpt>
<trkpt lat="40.0713749" lon="-105.229789">
  <ele>1583.0</ele>
  <time>2026-08-28T17:54:40Z</time>
  <course>0.0</course>
  <speed>0.0</speed>
  <fix>3d</fix>
</trkpt>
<trkpt lat="40.0713749" lon="-105.229789">
  <ele>1583.0</ele>
  <time>2026-08-28T17:54:40Z</time>
  <course>248.29</course>
  <speed>0.01</speed>
  <fix>3d</fix>
</trkpt>
<trkpt lat="40.0713749" lon="-105.229789">
  <ele>1583.0</ele>
  <time>2026-08-28T17:54:40Z</time>
  <course>0.0</course>
  <speed>0.0</speed>
  <fix>3d</fix>
</trkpt>
<trkpt lat="40.0713749" lon="-105.229789">
  <ele>1583.0</ele>
  <time>2026-08-28T17:54:40Z</time>
  <course>248.29</course>
  <speed>0.01</speed>
  <fix>3d</fix>
</trkpt>
<trkpt lat="40.0713749" lon="-105.229789">
  <ele>1583.0</ele>
  <time>2026-08-28T17:54:40Z</time>
  <course>0.0</course>
  <speed>0.0</speed>
  <fix>3d</fix>
</trkpt>
<trkpt lat="40.0713749" lon="-105.229789">
  <ele>1583.0</ele>
  <time>2026-08-28T17:54:40Z</time>
  <course>248.28</course>
  <speed>0.01</speed>
  <fix>3d</fix>
</trkpt>
<trkpt lat="40.0713749" lon="-105.229789">
  <ele>1583.0</ele>
  <time>2026-08-28T17:54:40Z</time>
  <course>0.0</course>
  <speed>0.0</speed>
  <fix>3d</fix>
</trkpt>
<trkpt lat="40.0713749" lon="-105.229789">
  <ele>1583.0</ele>
  <time>2026-08-28T17:54:40Z</time>
  <course>248.28</course>
  <speed>0.01</speed>
  <fix>3d</fix>
</trkpt>
<trkpt lat="40.0713749" lon="-105.229789">
  <ele>1583.0</ele>
  <time>2026-08-28T17:54:40Z</time>
  <course>0.0</course>
  <speed>0.0</speed>
  <fix>3d</fix>
</trkpt>
<trkpt lat="40.0713749" lon="-105.229789">
  <ele>1583.0</ele>
  <time>2026-08-28T17:54:40Z</time>
  <course>248.27</course>
  <speed>0.01</speed>
  <fix>3d</fix>
</trkpt>
<trkpt lat="40.0713749" lon="-105.229789">
  <ele>1583.0</ele>
  <time>2026-08-28T17:54:40Z</time>
  <course>0.0</course>
  <speed>0.0</speed>
  <fix>3d</fix>
</trkpt>
<trkpt lat="40.0713749" lon="-105.229789">
  <ele>1583.0</ele>
  <time>2026-08-28T17:54:40Z</time>
  <course>248.27</course>
  <speed>0.01</speed>
  <fix>3d</fix>
</trkpt>
<trkpt lat="40.0713749" lon="-105.229789">
  <ele>1583.0</ele>
  <time>2026-08-28T17:54:40Z</time>
  <course>0.0</course>
  <speed>0.0</speed>
  <fix>3d</fix>
</trkpt>
<trkpt lat="40.0713749" lon="-105.229789">
  <ele>1583.0</ele>
  <time>2026-08-28T17:54:40Z</time>
  <course>248.26</course>
  <speed>0.01</speed>
  <fix>3d</fix>
</trkpt>
<trkpt lat="40.0713749" lon="-105.229789">
  <ele>1583.0</ele>
  <time>2026-08-28T17:54:40Z</time>
  <course>0.0</course>
  <speed>0.0</speed>
  <fix>3d</fix>
</trkpt>
<trkpt lat="40.0713749" lon="-105.229789">
  <ele>1583.0</ele>
  <time>2026-08-28T17:54:40Z</time>
  <course>248.26</course>
  <speed>0.01</speed>
  <fix>3d</fix>
</trkpt>
<trkpt lat="40.0713749" lon="-105.229789">
  <ele>1583.0</ele>
  <time>2026-08-28T17:54:40Z</time>
  <course>0.0</course>
  <speed>0.0</speed>
  <fix>3d</fix>
</trkpt>
<trkpt lat="40.0713749" lon="-105.229789">
  <ele>1583.0</ele>
  <time>2026-08-28T17:54:40Z</time>
  <course>248.26</course>
  <speed>0.01</speed>
  <fix>3d</fix>
</trkpt>
<trkpt lat="40.0713749" lon="-105.229789">
  <ele>1583.0</ele>
  <time>2026-08-28T17:54:40Z</time>
  <course>0.0</course>
  <speed>0.0</speed>
  <fix>3d</fix>
</trkpt>
<trkpt lat="40.0713749" lon="-105.229789">
  <ele>1583.0</ele>
  <time>2026-08-28T17:54:40Z</time>
  <course>248.25</course>
  <speed>0.01</speed>
  <fix>3d</fix>
</trkpt>
<trkpt lat="40.0713749" lon="-105.229789">
  <ele>1583.0</ele>
  <time>2026-08-28T17:54:40Z</time>
  <course>0.0</course>
  <speed>0.0</speed>
  <fix>3d</fix>
</trkpt>
<trkpt lat="40.0713749" lon="-105.229789">
  <ele>1583.0</ele>
  <time>2026-08-28T17:54:40Z</time>
  <course>248.25</course>
  <speed>0.01</speed>
  <fix>3d</fix>
</trkpt>
<trkpt lat="40.0713749" lon="-105.229789">
  <ele>1583.0</ele>
  <time>2026-08-28T17:54:40Z</time>
  <course>0.0</course>
  <speed>0.0</speed>
  <fix>3d</fix>
</trkpt>
<trkpt lat="40.0713749" lon="-105.229789">
  <ele>1583.0</ele>
  <time>2026-08-28T17:54:40Z</time>
  <course>248.24</course>
  <speed>0.01</speed>
  <fix>3d</fix>
</trkpt>
<trkpt lat="40.0713749" lon="-105.229789">
  <ele>1583.0</ele>
  <time>2026-08-28T17:54:40Z</time>
  <course>0.0</course>
  <speed>0.0</speed>
  <fix>3d</fix>
</trkpt>
<trkpt lat="40.0713749" lon="-105.229789">
  <ele>1583.0</ele>
  <time>2026-08-28T17:54:40Z</time>
  <course>248.24</course>
  <speed>0.01</speed>
  <fix>3d</fix>
</trkpt>
<trkpt lat="40.0713749" lon="-105.229789">
  <ele>1583.0</ele>
  <time>2026-08-28T17:54:40Z</time>
  <course>0.0</course>
  <speed>0.0</speed>
  <fix>3d</fix>
</trkpt>
<trkpt lat="40.0713749" lon="-105.229789">
  <ele>1583.0</ele>
  <time>2026-08-28T17:54:40Z</time>
  <course>248.23</course>
  <speed>0.01</speed>
  <fix>3d</fix>
</trkpt>
<trkpt lat="40.0713749" lon="-105.229789">
  <ele>1583.0</ele>
  <time>2026-08-28T17:54:40Z</time>
  <course>0.0</course>
  <speed>0.0</speed>
  <fix>3d</fix>
</trkpt>
<trkpt lat="40.0713749" lon="-105.229789">
  <ele>1583.0</ele>
  <time>2026-08-28T17:54:40Z</time>
  <course>248.23</course>
  <speed>0.01</speed>
  <fix>3d</fix>
</trkpt>
<trkpt lat="40.0713749" lon="-105.229789">
  <ele>1583.0</ele>
  <time>2026-08-28T17:54:40Z</time>
  <course>0.0</course>
  <speed>0.0</speed>
  <fix>3d</fix>
</trkpt>
<trkpt lat="40.0713749" lon="-105.229789">
  <ele>1583.0</ele>
  <time>2026-08-28T17:54:40Z</time>
  <course>248.22</course>
  <speed>0.01</speed>
  <fix>3d</fix>
</trkpt>
<trkpt lat="40.0713749" lon="-105.229789">
  <ele>1583.0</ele>
  <time>2026-08-28T17:54:40Z</time>
  <course>0.0</course>
  <speed>0.0</speed>
  <fix>3d</fix>
</trkpt>
<trkpt lat="40.0713749" lon="-105.229789">
  <ele>1583.0</ele>
  <time>2026-08-28T17:54:40Z</time>
  <course>248.22</course>
  <speed>0.01</speed>
  <fix>3d</fix>
</trkpt>
<trkpt lat="40.0713749" lon="-105.229789">
  <ele>1583.0</ele>
  <time>2026-08-28T17:54:40Z</time>
  <course>0.0</course>
  <speed>0.0</speed>
  <fix>3d</fix>
</trkpt>
<trkpt lat="40.0713749" lon="-105.229789">
  <ele>1583.0</ele>
  <time>2026-08-28T17:54:40Z</time>
  <course>248.21</course>
  <speed>0.01</speed>
  <fix>3d</fix>
</trkpt>
<trkpt lat="40.0713749" lon="-105.229789">
  <ele>1583.0</ele>
  <time>2026-08-28T17:54:40Z</time>
  <course>0.0</course>
  <speed>0.0</speed>
  <fix>3d</fix>
</trkpt>
<trkpt lat="40.0713749" lon="-105.229789">
  <ele>1583.0</ele>
  <time>2026-08-28T17:54:40Z</time>
  <course>248.21</course>
  <speed>0.01</speed>
  <fix>3d</fix>
</trkpt>
<trkpt lat="40.0713749" lon="-105.229789">
  <ele>1583.0</ele>
  <time>2026-08-28T17:54:40Z</time>
  <course>0.0</course>
  <speed>0.0</speed>
  <fix>3d</fix>
</trkpt>
<trkpt lat="40.0713749" lon="-105.229789">
  <ele>1583.0</ele>
  <time>2026-08-28T17:54:40Z</time>
  <course>248.2</course>
  <speed>0.01</speed>
  <fix>3d</fix>
</trkpt>
<trkpt lat="40.0713749" lon="-105.229789">
  <ele>1583.0</ele>
  <time>2026-08-28T17:54:40Z</time>
  <course>0.0</course>
  <speed>0.0</speed>
  <fix>3d</fix>
</trkpt>
<trkpt lat="40.0713749" lon="-105.229789">
  <ele>1583.0</ele>
  <time>2026-08-28T17:54:40Z</time>
  <course>248.2</course>
  <speed>0.01</speed>
  <fix>3d</fix>
</trkpt>
<trkpt lat="40.0713749" lon="-105.229789">
  <ele>1583.0</ele>
  <time>2026-08-28T17:54:40Z</time>
  <course>0.0</course>
  <speed>0.0</speed>
  <fix>3d</fix>
</trkpt>
<trkpt lat="40.0713749" lon="-105.229789">
  <ele>1583.0</ele>
  <time>2026-08-28T17:54:40Z</time>
  <course>248.19</course>
  <speed>0.01</speed>
  <fix>3d</fix>
</trkpt>
<trkpt lat="40.0713749" lon="-105.229789">
  <ele>1583.0</ele>
  <time>2026-08-28T17:54:40Z</time>
  <course>0.0</course>
  <speed>0.0</speed>
  <fix>3d</fix>
</trkpt>
<trkpt lat="40.0713749" lon="-105.229789">
  <ele>1583.0</ele>
  <time>2026-08-28T17:54:40Z</time>
  <course>248.19</course>
  <speed>0.01</speed>
  <fix>3d</fix>
</trkpt>
<trkpt lat="40.0713749" lon="-105.229789">
  <ele>1583.0</ele>
  <time>2026-08-28T17:54:40Z</time>
  <course>0.0</course>
  <speed>0.0</speed>
  <fix>3d</fix>
</trkpt>
<trkpt lat="40.0713749" lon="-105.229789">
  <ele>1583.0</ele>
  <time>2026-08-28T17:54:40Z</time>
  <course>248.18</course>
  <speed>0.01</speed>
  <fix>3d</fix>
</trkpt>
<trkpt lat="40.0713749" lon="-105.229789">
  <ele>1583.0</ele>
  <time>2026-08-28T17:54:40Z</time>
  <course>0.0</course>
  <speed>0.0</speed>
  <fix>3d</fix>
</trkpt>
<trkpt lat="40.0713749" lon="-105.229789">
  <ele>1583.0</ele>
  <time>2026-08-28T17:54:40Z</time>
  <course>248.18</course>
  <speed>0.01</speed>
  <fix>3d</fix>
</trkpt>
<trkpt lat="40.0713749" lon="-105.229789">
  <ele>1583.0</ele>
  <time>2026-08-28T17:54:40Z</time>
  <course>0.0</course>
  <speed>0.0</speed>
  <fix>3d</fix>
</trkpt>
<trkpt lat="40.0713749" lon="-105.229789">
  <ele>1583.0</ele>
  <time>2026-08-28T17:54:40Z</time>
  <course>248.17</course>
  <speed>0.022360679774997897</speed>
  <fix>3d</fix>
</trkpt>
<trkpt lat="40.0713749" lon="-105.229789">
  <ele>1583.0</ele>
  <time>2026-08-28T17:54:40Z</time>
  <course>0.0</course>
  <speed>0.0</speed>
  <fix>3d</fix>
</trkpt>
<trkpt lat="40.0713749" lon="-105.229789">
  <ele>1583.0</ele>
  <time>2026-08-28T17:54:40Z</time>
  <course>248.17</course>
  <speed>0.022360679774997897</speed>
  <fix>3d</fix>
</trkpt>
<trkpt lat="40.0713749" lon="-105.229789">
  <ele>1583.0</ele>
  <time>2026-08-28T17:54:40Z</time>
  <course>0.0</course>
  <speed>0.0</speed>
  <fix>3d</fix>
</trkpt>
<trkpt lat="40.0713749" lon="-105.229789">
  <ele>1583.0</ele>
  <time>2026-08-28T17:54:40Z</time>
  <course>248.16</course>
  <speed>0.022360679774997897</speed>
  <fix>3d</fix>
</trkpt>
<trkpt lat="40.0713749" lon="-105.229789">
  <ele>1583.0</ele>
  <time>2026-08-28T17:54:40Z</time>
  <course>0.0</course>
  <speed>0.0</speed>
  <fix>3d</fix>
</trkpt>
<trkpt lat="40.0713749" lon="-105.229789">
  <ele>1583.0</ele>
  <time>2026-08-28T17:54:40Z</time>
  <course>248.16</course>
  <speed>0.022360679774997897</speed>
  <fix>3d</fix>
</trkpt>
<trkpt lat="40.0713749" lon="-105.229789">
  <ele>1583.0</ele>
  <time>2026-08-28T17:54:40Z</time>
  <course>0.0</course>
  <speed>0.0</speed>
  <fix>3d</fix>
</trkpt>
<trkpt lat="40.0713749" lon="-105.229789">
  <ele>1583.0</ele>
  <time>2026-08-28T17:54:40Z</time>
  <course>248.15</course>
  <speed>0.022360679774997897</speed>
  <fix>3d</fix>
</trkpt>
<trkpt lat="40.0713749" lon="-105.229789">
  <ele>1583.0</ele>
  <time>2026-08-28T17:54:40Z</time>
  <course>0.0</course>
  <speed>0.0</speed>
  <fix>3d</fix>
</trkpt>
<trkpt lat="40.0713749" lon="-105.229789">
  <ele>1583.0</ele>
  <time>2026-08-28T17:54:40Z</time>
  <course>248.15</course>
  <speed>0.022360679774997897</speed>
  <fix>3d</fix>
</trkpt>
<trkpt lat="40.0713749" lon="-105.229789">
  <ele>1583.0</ele>
  <time>2026-08-28T17:54:40Z</time>
  <course>0.0</course>
  <speed>0.0</speed>
  <fix>3d</fix>
</trkpt>
<trkpt lat="40.0713749" lon="-105.229789">
  <ele>1583.0</ele>
  <time>2026-08-28T17:54:40Z</time>
  <course>248.14</course>
  <speed>0.022360679774997897</speed>
  <fix>3d</fix>
</trkpt>
<trkpt lat="40.0713749" lon="-105.229789">
  <ele>1583.0</ele>
  <time>2026-08-28T17:54:40Z</time>
  <course>0.0</course>
  <speed>0.0</speed>
  <fix>3d</fix>
</trkpt>
<trkpt lat="40.0713749" lon="-105.229789">
  <ele>1583.0</ele>
  <time>2026-08-28T17:54:40Z</time>
  <course>248.14</course>
  <speed>0.022360679774997897</speed>
  <fix>3d</fix>
</trkpt>
<trkpt lat="40.0713749" lon="-105.229789">
  <ele>1583.0</ele>
  <time>2026-08-28T17:54:40Z</time>
  <course>0.0</course>
  <speed>0.0</speed>
  <fix>3d</fix>
</trkpt>
<trkpt lat="40.0713749" lon="-105.229789">
  <ele>1583.0</ele>
  <time>2026-08-28T17:54:40Z</time>
  <course>248.13</course>
  <speed>0.022360679774997897</speed>
  <fix>3d</fix>
</trkpt>
<trkpt lat="40.0713749" lon="-105.229789">
  <ele>1583.0</ele>
  <time>2026-08-28T17:54:40Z</time>
  <course>0.0</course>
  <speed>0.0</speed>
  <fix>3d</fix>
</trkpt>
<trkpt lat="40.0713749" lon="-105.229789">
  <ele>1583.0</ele>
  <time>2026-08-28T17:54:40Z</time>
  <course>248.13</course>
  <speed>0.022360679774997897</speed>
  <fix>3d</fix>
</trkpt>
<trkpt lat="40.0713749" lon="-105.229789">
  <ele>1583.0</ele>
  <time>2026-08-28T17:54:40Z</time>
  <course>0.0</course>
  <speed>0.0</speed>
  <fix>3d</fix>
</trkpt>
<trkpt lat="40.0713749" lon="-105.229789">
  <ele>1583.0</ele>
  <time>2026-08-28T17:54:40Z</time>
  <course>248.12</course>
  <speed>0.022360679774997897</speed>
  <fix>3d</fix>
</trkpt>
<trkpt lat="40.0713749" lon="-105.229789">
  <ele>1583.0</ele>
  <time>2026-08-28T17:54:40Z</time>
  <course>0.0</course>
  <speed>0.0</speed>
  <fix>3d</fix>
</trkpt>
<trkpt lat="40.0713749" lon="-105.229789">
  <ele>1583.0</ele>
  <time>2026-08-28T17:54:40Z</time>
  <course>248.12</course>
  <speed>0.022360679774997897</speed>
  <fix>3d</fix>
</trkpt>
<trkpt lat="40.0713749" lon="-105.229789">
  <ele>1583.0</ele>
  <time>2026-08-28T17:54:40Z</time>
  <course>0.0</course>
  <speed>0.0</speed>
  <fix>3d</fix>
</trkpt>
<trkpt lat="40.0713749" lon="-105.229789">
  <ele>1583.0</ele>
  <time>2026-08-28T17:54:40Z</time>
  <course>248.11</course>
  <speed>0.022360679774997897</speed>
  <fix>3d</fix>
</trkpt>
<trkpt lat="40.0713749" lon="-105.229789">
  <ele>1583.0</ele>
  <time>2026-08-28T17:54:40Z</time>
  <course>0.0</course>
  <speed>0.0</speed>
  <fix>3d</fix>
</trkpt>
<trkpt lat="40.0713749" lon="-105.229789">
  <ele>1583.0</ele>
  <time>2026-08-28T17:54:40Z</time>
  <course>248.11</course>
  <speed>0.022360679774997897</speed>
  <fix>3d</fix>
</trkpt>
<trkpt lat="40.0713749" lon="-105.229789">
  <ele>1583.0</ele>
  <time>2026-08-28T17:54:40Z</time>
  <course>0.0</course>
  <speed>0.0</speed>
  <fix>3d</fix>
</trkpt>
<trkpt lat="40.0713749" lon="-105.229789">
  <ele>1583.0</ele>
  <time>2026-08-28T17:54:40Z</time>
  <course>248.1</course>
  <speed>0.022360679774997897</speed>
  <fix>3d</fix>
</trkpt>
<trkpt lat="40.0713749" lon="-105.229789">
  <ele>1583.0</ele>
  <time>2026-08-28T17:54:40Z</time>
  <course>0.0</course>
  <speed>0.0</speed>
  <fix>3d</fix>
</trkpt>
<trkpt lat="40.0713749" lon="-105.229789">
  <ele>1583.0</ele>
  <time>2026-08-28T17:54:40Z</time>
  <course>248.1</course>
  <speed>0.022360679774997897</speed>
  <fix>3d</fix>
</trkpt>
<trkpt lat="40.0713749" lon="-105.229789">
  <ele>1583.0</ele>
  <time>2026-08-28T17:54:40Z</time>
  <course>0.0</course>
  <speed>0.0</speed>
  <fix>3d</fix>
</trkpt>
<trkpt lat="40.0713749" lon="-105.229789">
  <ele>1583.0</ele>
  <time>2026-08-28T17:54:40Z</time>
  <course>248.09</course>
  <speed>0.022360679774997897</speed>
  <fix>3d</fix>
</trkpt>
<trkpt lat="40.0713749" lon="-105.229789">
  <ele>1583.0</ele>
  <time>2026-08-28T17:54:40Z</time>
  <course>0.0</course>
  <speed>0.0</speed>
  <fix>3d</fix>
</trkpt>
<trkpt lat="40.0713749" lon="-105.229789">
  <ele>1583.0</ele>
  <time>2026-08-28T17:54:40Z</time>
  <course>248.09</course>
  <speed>0.022360679774997897</speed>
  <fix>3d</fix>
</trkpt>
<trkpt lat="40.0713749" lon="-105.229789">
  <ele>1583.0</ele>
  <time>2026-08-28T17:54:40Z</time>
  <course>0.0</course>
  <speed>0.0</speed>
  <fix>3d</fix>
</trkpt>
<trkpt lat="40.0713749" lon="-105.229789">
  <ele>1583.0</ele>
  <time>2026-08-28T17:54:40Z</time>
  <course>248.08</course>
  <speed>0.022360679774997897</speed>
  <fix>3d</fix>
</trkpt>
<trkpt lat="40.0713749" lon="-105.229789">
  <ele>1583.0</ele>
  <time>2026-08-28T17:54:40Z</time>
  <course>0.0</course>
  <speed>0.0</speed>
  <fix>3d</fix>
</trkpt>
<trkpt lat="40.0713749" lon="-105.229789">
  <ele>1583.0</ele>
  <time>2026-08-28T17:54:40Z</time>
  <course>248.08</course>
  <speed>0.022360679774997897</speed>
  <fix>3d</fix>
</trkpt>
<trkpt lat="40.0713749" lon="-105.229789">
  <ele>1583.0</ele>
  <time>2026-08-28T17:54:40Z</time>
  <course>0.0</course>
  <speed>0.0</speed>
  <fix>3d</fix>
</trkpt>
<trkpt lat="40.0713749" lon="-105.229789">
  <ele>1583.0</ele>
  <time>2026-08-28T17:54:40Z</time>
  <course>248.07</course>
  <speed>0.022360679774997897</speed>
  <fix>3d</fix>
</trkpt>
<trkpt lat="40.0713749" lon="-105.229789">
  <ele>1583.0</ele>
  <time>2026-08-28T17:54:40Z</time>
  <course>0.0</course>
  <speed>0.0</speed>
  <fix>3d</fix>
</trkpt>
<trkpt lat="40.0713749" lon="-105.229789">
  <ele>1583.0</ele>
  <time>2026-08-28T17:54:40Z</time>
  <course>248.07</course>
  <speed>0.022360679774997897</speed>
  <fix>3d</fix>
</trkpt>
<trkpt lat="40.0713749" lon="-105.229789">
  <ele>1583.0</ele>
  <time>2026-08-28T17:54:40Z</time>
  <course>0.0</course>
  <speed>0.0</speed>
  <fix>3d</fix>
</trkpt>
<trkpt lat="40.0713749" lon="-105.229789">
  <ele>1583.0</ele>
  <time>2026-08-28T17:54:40Z</time>
  <course>248.06</course>
  <speed>0.022360679774997897</speed>
  <fix>3d</fix>
</trkpt>
<trkpt lat="40.0713749" lon="-105.229789">
  <ele>1583.0</ele>
  <time>2026-08-28T17:54:40Z</time>
  <course>0.0</course>
  <speed>0.0</speed>
  <fix>3d</fix>
</trkpt>
<trkpt lat="40.0713749" lon="-105.229789">
  <ele>1583.0</ele>
  <time>2026-08-28T17:54:41Z</time>
  <course>248.06</course>
  <speed>0.022360679774997897</speed>
  <fix>3d</fix>
</trkpt>
<trkpt lat="40.0713749" lon="-105.229789">
  <ele>1583.0</ele>
  <time>2026-08-28T17:54:41Z</time>
  <course>0.0</course>
  <speed>0.0</speed>
  <fix>3d</fix>
</trkpt>
<trkpt lat="40.0713749" lon="-105.229789">
  <ele>1583.0</ele>
  <time>2026-08-28T17:54:41Z</time>
  <course>248.05</course>
  <speed>0.022360679774997897</speed>
  <fix>3d</fix>
</trkpt>
<trkpt lat="40.0713749" lon="-105.229789">
  <ele>1583.0</ele>
  <time>2026-08-28T17:54:41Z</time>
  <course>0.0</course>
  <speed>0.0</speed>
  <fix>3d</fix>
</trkpt>
<trkpt lat="40.0713749" lon="-105.229789">
  <ele>1583.0</ele>
  <time>2026-08-28T17:54:41Z</time>
  <course>248.05</course>
  <speed>0.022360679774997897</speed>
  <fix>3d</fix>
</trkpt>
<trkpt lat="40.0713749" lon="-105.229789">
  <ele>1583.0</ele>
  <time>2026-08-28T17:54:41Z</time>
  <course>0.0</course>
  <speed>0.0</speed>
  <fix>3d</fix>
</trkpt>
<trkpt lat="40.0713749" lon="-105.229789">
  <ele>1583.0</ele>
  <time>2026-08-28T17:54:41Z</time>
  <course>248.05</course>
  <speed>0.022360679774997897</speed>
  <fix>3d</fix>
</trkpt>
<trkpt lat="40.0713749" lon="-105.229789">
  <ele>1583.0</ele>
  <time>2026-08-28T17:54:41Z</time>
  <course>0.0</course>
  <speed>0.0</speed>
  <fix>3d</fix>
</trkpt>
<trkpt lat="40.0713749" lon="-105.229789">
  <ele>1583.0</ele>
  <time>2026-08-28T17:54:41Z</time>
  <course>248.04</course>
  <speed>0.022360679774997897</speed>
  <fix>3d</fix>
</trkpt>
<trkpt lat="40.0713749" lon="-105.229789">
  <ele>1583.0</ele>
  <time>2026-08-28T17:54:41Z</time>
  <course>0.0</course>
  <speed>0.0</speed>
  <fix>3d</fix>
</trkpt>
<trkpt lat="40.0713749" lon="-105.229789">
  <ele>1583.0</ele>
  <time>2026-08-28T17:54:41Z</time>
  <course>248.04</course>
  <speed>0.022360679774997897</speed>
  <fix>3d</fix>
</trkpt>
<trkpt lat="40.0713749" lon="-105.229789">
  <ele>1583.0</ele>
  <time>2026-08-28T17:54:41Z</time>
  <course>0.0</course>
  <speed>0.0</speed>
  <fix>3d</fix>
</trkpt>
<trkpt lat="40.0713749" lon="-105.229789">
  <ele>1583.0</ele>
  <time>2026-08-28T17:54:41Z</time>
  <course>248.03</course>
  <speed>0.022360679774997897</speed>
  <fix>3d</fix>
</trkpt>
<trkpt lat="40.0713749" lon="-105.229789">
  <ele>1583.0</ele>
  <time>2026-08-28T17:54:41Z</time>
  <course>0.0</course>
  <speed>0.0</speed>
  <fix>3d</fix>
</trkpt>
<trkpt lat="40.0713749" lon="-105.229789">
  <ele>1583.0</ele>
  <time>2026-08-28T17:54:41Z</time>
  <course>248.03</course>
  <speed>0.022360679774997897</speed>
  <fix>3d</fix>
</trkpt>
<trkpt lat="40.0713749" lon="-105.229789">
  <ele>1583.0</ele>
  <time>2026-08-28T17:54:41Z</time>
  <course>0.0</course>
  <speed>0.0</speed>
  <fix>3d</fix>
</trkpt>
<trkpt lat="40.0713749" lon="-105.229789">
  <ele>1583.0</ele>
  <time>2026-08-28T17:54:41Z</time>
  <course>248.02</course>
  <speed>0.022360679774997897</speed>
  <fix>3d</fix>
</trkpt>
<trkpt lat="40.0713749" lon="-105.229789">
  <ele>1583.0</ele>
  <time>2026-08-28T17:54:41Z</time>
  <course>0.0</course>
  <speed>0.0</speed>
  <fix>3d</fix>
</trkpt>
<trkpt lat="40.0713749" lon="-105.229789">
  <ele>1583.0</ele>
  <time>2026-08-28T17:54:41Z</time>
  <course>248.02</course>
  <speed>0.022360679774997897</speed>
  <fix>3d</fix>
</trkpt>
<trkpt lat="40.0713749" lon="-105.229789">
  <ele>1583.0</ele>
  <time>2026-08-28T17:54:41Z</time>
  <course>0.0</course>
  <speed>0.0</speed>
  <fix>3d</fix>
</trkpt>
<trkpt lat="40.0713749" lon="-105.229789">
  <ele>1583.0</ele>
  <time>2026-08-28T17:54:41Z</time>
  <course>248.01</course>
  <speed>0.022360679774997897</speed>
  <fix>3d</fix>
</trkpt>
<trkpt lat="40.0713749" lon="-105.229789">
  <ele>1583.0</ele>
  <time>2026-08-28T17:54:41Z</time>
  <course>0.0</course>
  <speed>0.0</speed>
  <fix>3d</fix>
</trkpt>
<trkpt lat="40.0713749" lon="-105.229789">
  <ele>1583.0</ele>
  <time>2026-08-28T17:54:41Z</time>
  <course>248.01</course>
  <speed>0.022360679774997897</speed>
  <fix>3d</fix>
</trkpt>
<trkpt lat="40.0713749" lon="-105.229789">
  <ele>1583.0</ele>
  <time>2026-08-28T17:54:41Z</time>
  <course>0.0</course>
  <speed>0.0</speed>
  <fix>3d</fix>
</trkpt>
<trkpt lat="40.0713749" lon="-105.229789">
  <ele>1583.0</ele>
  <time>2026-08-28T17:54:41Z</time>
  <course>248.0</course>
  <speed>0.022360679774997897</speed>
  <fix>3d</fix>
</trkpt>
<trkpt lat="40.0713749" lon="-105.229789">
  <ele>1583.0</ele>
  <time>2026-08-28T17:54:41Z</time>
  <course>0.0</course>
  <speed>0.0</speed>
  <fix>3d</fix>
</trkpt>
<trkpt lat="40.0713749" lon="-105.229789">
  <ele>1583.0</ele>
  <time>2026-08-28T17:54:41Z</time>
  <course>248.0</course>
  <speed>0.022360679774997897</speed>
  <fix>3d</fix>
</trkpt>
<trkpt lat="40.0713749" lon="-105.229789">
  <ele>1583.0</ele>
  <time>2026-08-28T17:54:41Z</time>
  <course>0.0</course>
  <speed>0.0</speed>
  <fix>3d</fix>
</trkpt>
<trkpt lat="40.0713749" lon="-105.229789">
  <ele>1583.0</ele>
  <time>2026-08-28T17:54:41Z</time>
  <course>247.99</course>
  <speed>0.022360679774997897</speed>
  <fix>3d</fix>
</trkpt>
<trkpt lat="40.0713749" lon="-105.229789">
  <ele>1583.0</ele>
  <time>2026-08-28T17:54:41Z</time>
  <course>0.0</course>
  <speed>0.0</speed>
  <fix>3d</fix>
</trkpt>
<trkpt lat="40.0713749" lon="-105.229789">
  <ele>1583.0</ele>
  <time>2026-08-28T17:54:41Z</time>
  <course>247.99</course>
  <speed>0.022360679774997897</speed>
  <fix>3d</fix>
</trkpt>
<trkpt lat="40.0713749" lon="-105.229789">
  <ele>1583.0</ele>
  <time>2026-08-28T17:54:41Z</time>
  <course>0.0</course>
  <speed>0.0</speed>
  <fix>3d</fix>
</trkpt>
<trkpt lat="40.0713749" lon="-105.229789">
  <ele>1583.0</ele>
  <time>2026-08-28T17:54:41Z</time>
  <course>247.99</course>
  <speed>0.022360679774997897</speed>
  <fix>3d</fix>
</trkpt>
<trkpt lat="40.0713749" lon="-105.229789">
  <ele>1583.0</ele>
  <time>2026-08-28T17:54:41Z</time>
  <course>0.0</course>
  <speed>0.0</speed>
  <fix>3d</fix>
</trkpt>
<trkpt lat="40.0713749" lon="-105.229789">
  <ele>1583.0</ele>
  <time>2026-08-28T17:54:41Z</time>
  <course>247.98</course>
  <speed>0.022360679774997897</speed>
  <fix>3d</fix>
</trkpt>
<trkpt lat="40.0713749" lon="-105.229789">
  <ele>1583.0</ele>
  <time>2026-08-28T17:54:41Z</time>
  <course>0.0</course>
  <speed>0.0</speed>
  <fix>3d</fix>
</trkpt>
<trkpt lat="40.0713749" lon="-105.229789">
  <ele>1583.0</ele>
  <time>2026-08-28T17:54:41Z</time>
  <course>247.98</course>
  <speed>0.022360679774997897</speed>
  <fix>3d</fix>
</trkpt>
<trkpt lat="40.0713749" lon="-105.229789">
  <ele>1583.0</ele>
  <time>2026-08-28T17:54:41Z</time>
  <course>0.0</course>
  <speed>0.0</speed>
  <fix>3d</fix>
</trkpt>
<trkpt lat="40.0713749" lon="-105.229789">
  <ele>1583.0</ele>
  <time>2026-08-28T17:54:41Z</time>
  <course>247.97</course>
  <speed>0.022360679774997897</speed>
  <fix>3d</fix>
</trkpt>
<trkpt lat="40.0713749" lon="-105.229789">
  <ele>1583.0</ele>
  <time>2026-08-28T17:54:41Z</time>
  <course>0.0</course>
  <speed>0.0</speed>
  <fix>3d</fix>
</trkpt>
<trkpt lat="40.0713749" lon="-105.229789">
  <ele>1583.0</ele>
  <time>2026-08-28T17:54:41Z</time>
  <course>247.97</course>
  <speed>0.022360679774997897</speed>
  <fix>3d</fix>
</trkpt>
<trkpt lat="40.0713749" lon="-105.229789">
  <ele>1583.0</ele>
  <time>2026-08-28T17:54:41Z</time>
  <course>0.0</course>
  <speed>0.0</speed>
  <fix>3d</fix>
</trkpt>
<trkpt lat="40.0713749" lon="-105.229789">
  <ele>1583.0</ele>
  <time>2026-08-28T17:54:41Z</time>
  <course>247.96</course>
  <speed>0.022360679774997897</speed>
  <fix>3d</fix>
</trkpt>
<trkpt lat="40.0713749" lon="-105.229789">
  <ele>1583.0</ele>
  <time>2026-08-28T17:54:41Z</time>
  <course>0.0</course>
  <speed>0.0</speed>
  <fix>3d</fix>
</trkpt>
<trkpt lat="40.0713749" lon="-105.229789">
  <ele>1583.0</ele>
  <time>2026-08-28T17:54:41Z</time>
  <course>247.96</course>
  <speed>0.022360679774997897</speed>
  <fix>3d</fix>
</trkpt>
<trkpt lat="40.0713749" lon="-105.229789">
  <ele>1583.0</ele>
  <time>2026-08-28T17:54:41Z</time>
  <course>0.0</course>
  <speed>0.0</speed>
  <fix>3d</fix>
</trkpt>
<trkpt lat="40.0713749" lon="-105.229789">
  <ele>1583.0</ele>
  <time>2026-08-28T17:54:41Z</time>
  <course>247.95</course>
  <speed>0.022360679774997897</speed>
  <fix>3d</fix>
</trkpt>
<trkpt lat="40.0713749" lon="-105.229789">
  <ele>1583.0</ele>
  <time>2026-08-28T17:54:41Z</time>
  <course>0.0</course>
  <speed>0.0</speed>
  <fix>3d</fix>
</trkpt>
<trkpt lat="40.0713749" lon="-105.229789">
  <ele>1583.0</ele>
  <time>2026-08-28T17:54:41Z</time>
  <course>247.95</course>
  <speed>0.022360679774997897</speed>
  <fix>3d</fix>
</trkpt>
<trkpt lat="40.0713749" lon="-105.229789">
  <ele>1583.0</ele>
  <time>2026-08-28T17:54:41Z</time>
  <course>0.0</course>
  <speed>0.0</speed>
  <fix>3d</fix>
</trkpt>
<trkpt lat="40.0713749" lon="-105.229789">
  <ele>1583.0</ele>
  <time>2026-08-28T17:54:41Z</time>
  <course>247.95</course>
  <speed>0.022360679774997897</speed>
  <fix>3d</fix>
</trkpt>
<trkpt lat="40.0713749" lon="-105.229789">
  <ele>1583.0</ele>
  <time>2026-08-28T17:54:41Z</time>
  <course>0.0</course>
  <speed>0.0</speed>
  <fix>3d</fix>
</trkpt>
<trkpt lat="40.0713749" lon="-105.229789">
  <ele>1583.0</ele>
  <time>2026-08-28T17:54:41Z</time>
  <course>247.94</course>
  <speed>0.022360679774997897</speed>
  <fix>3d</fix>
</trkpt>
<trkpt lat="40.0713749" lon="-105.229789">
  <ele>1583.0</ele>
  <time>2026-08-28T17:54:41Z</time>
  <course>0.0</course>
  <speed>0.0</speed>
  <fix>3d</fix>
</trkpt>
<trkpt lat="40.0713749" lon="-105.229789">
  <ele>1583.0</ele>
  <time>2026-08-28T17:54:41Z</time>
  <course>247.94</course>
  <speed>0.022360679774997897</speed>
  <fix>3d</fix>
</trkpt>
<trkpt lat="40.0713749" lon="-105.229789">
  <ele>1583.0</ele>
  <time>2026-08-28T17:54:41Z</time>
  <course>0.0</course>
  <speed>0.0</speed>
  <fix>3d</fix>
</trkpt>
<trkpt lat="40.0713749" lon="-105.229789">
  <ele>1583.0</ele>
  <time>2026-08-28T17:54:41Z</time>
  <course>247.93</course>
  <speed>0.022360679774997897</speed>
  <fix>3d</fix>
</trkpt>
<trkpt lat="40.0713749" lon="-105.229789">
  <ele>1583.0</ele>
  <time>2026-08-28T17:54:41Z</time>
  <course>0.0</course>
  <speed>0.0</speed>
  <fix>3d</fix>
</trkpt>
<trkpt lat="40.0713749" lon="-105.229789">
  <ele>1583.0</ele>
  <time>2026-08-28T17:54:41Z</time>
  <course>247.93</course>
  <speed>0.022360679774997897</speed>
  <fix>3d</fix>
</trkpt>
<trkpt lat="40.0713749" lon="-105.229789">
  <ele>1583.0</ele>
  <time>2026-08-28T17:54:41Z</time>
  <course>0.0</course>
  <speed>0.0</speed>
  <fix>3d</fix>
</trkpt>
<trkpt lat="40.0713749" lon="-105.229789">
  <ele>1583.0</ele>
  <time>2026-08-28T17:54:41Z</time>
  <course>247.92</course>
  <speed>0.022360679774997897</speed>
  <fix>3d</fix>
</trkpt>
<trkpt lat="40.0713749" lon="-105.229789">
  <ele>1583.0</ele>
  <time>2026-08-28T17:54:41Z</time>
  <course>0.0</course>
  <speed>0.0</speed>
  <fix>3d</fix>
</trkpt>
<trkpt lat="40.0713749" lon="-105.229789">
  <ele>1583.0</ele>
  <time>2026-08-28T17:54:41Z</time>
  <course>247.92</course>
  <speed>0.022360679774997897</speed>
  <fix>3d</fix>
</trkpt>
<trkpt lat="40.0713749" lon="-105.229789">
  <ele>1583.0</ele>
  <time>2026-08-28T17:54:41Z</time>
  <course>0.0</course>
  <speed>0.0</speed>
  <fix>3d</fix>
</trkpt>
<trkpt lat="40.0713749" lon="-105.229789">
  <ele>1583.0</ele>
  <time>2026-08-28T17:54:41Z</time>
  <course>247.92</course>
  <speed>0.022360679774997897</speed>
  <fix>3d</fix>
</trkpt>
<trkpt lat="40.0713749" lon="-105.229789">
  <ele>1583.0</ele>
  <time>2026-08-28T17:54:41Z</time>
  <course>0.0</course>
  <speed>0.0</speed>
  <fix>3d</fix>
</trkpt>
<trkpt lat="40.0713749" lon="-105.229789">
  <ele>1583.0</ele>
  <time>2026-08-28T17:54:41Z</time>
  <course>247.91</course>
  <speed>0.022360679774997897</speed>
  <fix>3d</fix>
</trkpt>
<trkpt lat="40.0713749" lon="-105.229789">
  <ele>1583.0</ele>
  <time>2026-08-28T17:54:41Z</time>
  <course>0.0</course>
  <speed>0.0</speed>
  <fix>3d</fix>
</trkpt>
<trkpt lat="40.0713749" lon="-105.229789">
  <ele>1583.0</ele>
  <time>2026-08-28T17:54:41Z</time>
  <course>247.91</course>
  <speed>0.022360679774997897</speed>
  <fix>3d</fix>
</trkpt>
<trkpt lat="40.0713749" lon="-105.229789">
  <ele>1583.0</ele>
  <time>2026-08-28T17:54:41Z</time>
  <course>0.0</course>
  <speed>0.0</speed>
  <fix>3d</fix>
</trkpt>
<trkpt lat="40.0713749" lon="-105.229789">
  <ele>1583.0</ele>
  <time>2026-08-28T17:54:41Z</time>
  <course>247.9</course>
  <speed>0.022360679774997897</speed>
  <fix>3d</fix>
</trkpt>
<trkpt lat="40.0713749" lon="-105.229789">
  <ele>1583.0</ele>
  <time>2026-08-28T17:54:41Z</time>
  <course>0.0</course>
  <speed>0.0</speed>
  <fix>3d</fix>
</trkpt>
<trkpt lat="40.0713749" lon="-105.229789">
  <ele>1583.0</ele>
  <time>2026-08-28T17:54:41Z</time>
  <course>247.9</course>
  <speed>0.022360679774997897</speed>
  <fix>3d</fix>
</trkpt>
<trkpt lat="40.0713749" lon="-105.229789">
  <ele>1583.0</ele>
  <time>2026-08-28T17:54:41Z</time>
  <course>0.0</course>
  <speed>0.0</speed>
  <fix>3d</fix>
</trkpt>
<trkpt lat="40.0713749" lon="-105.229789">
  <ele>1583.0</ele>
  <time>2026-08-28T17:54:41Z</time>
  <course>247.89</course>
  <speed>0.022360679774997897</speed>
  <fix>3d</fix>
</trkpt>
<trkpt lat="40.0713749" lon="-105.229789">
  <ele>1583.0</ele>
  <time>2026-08-28T17:54:41Z</time>
  <course>0.0</course>
  <speed>0.0</speed>
  <fix>3d</fix>
</trkpt>
<trkpt lat="40.0713749" lon="-105.229789">
  <ele>1583.0</ele>
  <time>2026-08-28T17:54:41Z</time>
  <course>247.89</course>
  <speed>0.022360679774997897</speed>
  <fix>3d</fix>
</trkpt>
<trkpt lat="40.0713749" lon="-105.229789">
  <ele>1583.0</ele>
  <time>2026-08-28T17:54:41Z</time>
  <course>0.0</course>
  <speed>0.0</speed>
  <fix>3d</fix>
</trkpt>
<trkpt lat="40.0713749" lon="-105.229789">
  <ele>1583.0</ele>
  <time>2026-08-28T17:54:41Z</time>
  <course>247.89</course>
  <speed>0.022360679774997897</speed>
  <fix>3d</fix>
</trkpt>
<trkpt lat="40.0713749" lon="-105.229789">
  <ele>1583.0</ele>
  <time>2026-08-28T17:54:41Z</time>
  <course>0.0</course>
  <speed>0.0</speed>
  <fix>3d</fix>
</trkpt>
<trkpt lat="40.0713749" lon="-105.229789">
  <ele>1583.0</ele>
  <time>2026-08-28T17:54:41Z</time>
  <course>247.88</course>
  <speed>0.0316227766016838</speed>
  <fix>3d</fix>
</trkpt>
<trkpt lat="40.0713749" lon="-105.229789">
  <ele>1583.0</ele>
  <time>2026-08-28T17:54:41Z</time>
  <course>0.0</course>
  <speed>0.0</speed>
  <fix>3d</fix>
</trkpt>
<trkpt lat="40.0713749" lon="-105.229789">
  <ele>1583.0</ele>
  <time>2026-08-28T17:54:41Z</time>
  <course>247.88</course>
  <speed>0.0316227766016838</speed>
  <fix>3d</fix>
</trkpt>
<trkpt lat="40.0713749" lon="-105.229789">
  <ele>1583.0</ele>
  <time>2026-08-28T17:54:41Z</time>
  <course>0.0</course>
  <speed>0.0</speed>
  <fix>3d</fix>
</trkpt>
<trkpt lat="40.0713749" lon="-105.229789">
  <ele>1583.0</ele>
  <time>2026-08-28T17:54:41Z</time>
  <course>247.87</course>
  <speed>0.0316227766016838</speed>
  <fix>3d</fix>
</trkpt>
<trkpt lat="40.0713749" lon="-105.229789">
  <ele>1583.0</ele>
  <time>2026-08-28T17:54:41Z</time>
  <course>0.0</course>
  <speed>0.0</speed>
  <fix>3d</fix>
</trkpt>
<trkpt lat="40.0713749" lon="-105.229789">
  <ele>1583.0</ele>
  <time>2026-08-28T17:54:41Z</time>
  <course>247.87</course>
  <speed>0.0316227766016838</speed>
  <fix>3d</fix>
</trkpt>
<trkpt lat="40.0713749" lon="-105.229789">
  <ele>1583.0</ele>
  <time>2026-08-28T17:54:41Z</time>
  <course>0.0</course>
  <speed>0.0</speed>
  <fix>3d</fix>
</trkpt>
<trkpt lat="40.0713749" lon="-105.229789">
  <ele>1583.0</ele>
  <time>2026-08-28T17:54:41Z</time>
  <course>247.87</course>
  <speed>0.0316227766016838</speed>
  <fix>3d</fix>
</trkpt>
<trkpt lat="40.0713749" lon="-105.229789">
  <ele>1583.0</ele>
  <time>2026-08-28T17:54:41Z</time>
  <course>0.0</course>
  <speed>0.0</speed>
  <fix>3d</fix>
</trkpt>
<trkpt lat="40.0713749" lon="-105.229789">
  <ele>1583.0</ele>
  <time>2026-08-28T17:54:41Z</time>
  <course>247.86</course>
  <speed>0.0316227766016838</speed>
  <fix>3d</fix>
</trkpt>
<trkpt lat="40.0713749" lon="-105.229789">
  <ele>1583.0</ele>
  <time>2026-08-28T17:54:41Z</time>
  <course>0.0</course>
  <speed>0.0</speed>
  <fix>3d</fix>
</trkpt>
<trkpt lat="40.0713749" lon="-105.229789">
  <ele>1583.0</ele>
  <time>2026-08-28T17:54:41Z</time>
  <course>247.86</course>
  <speed>0.0316227766016838</speed>
  <fix>3d</fix>
</trkpt>
<trkpt lat="40.0713749" lon="-105.229789">
  <ele>1583.0</ele>
  <time>2026-08-28T17:54:41Z</time>
  <course>0.0</course>
  <speed>0.0</speed>
  <fix>3d</fix>
</trkpt>
<trkpt lat="40.0713749" lon="-105.229789">
  <ele>1583.0</ele>
  <time>2026-08-28T17:54:41Z</time>
  <course>247.85</course>
  <speed>0.0316227766016838</speed>
  <fix>3d</fix>
</trkpt>
<trkpt lat="40.0713749" lon="-105.229789">
  <ele>1583.0</ele>
  <time>2026-08-28T17:54:41Z</time>
  <course>0.0</course>
  <speed>0.0</speed>
  <fix>3d</fix>
</trkpt>
<trkpt lat="40.0713749" lon="-105.229789">
  <ele>1583.0</ele>
  <time>2026-08-28T17:54:41Z</time>
  <course>247.85</course>
  <speed>0.0316227766016838</speed>
  <fix>3d</fix>
</trkpt>
<trkpt lat="40.0713749" lon="-105.229789">
  <ele>1583.0</ele>
  <time>2026-08-28T17:54:41Z</time>
  <course>0.0</course>
  <speed>0.0</speed>
  <fix>3d</fix>
</trkpt>
<trkpt lat="40.0713749" lon="-105.229789">
  <ele>1583.0</ele>
  <time>2026-08-28T17:54:41Z</time>
  <course>247.85</course>
  <speed>0.0316227766016838</speed>
  <fix>3d</fix>
</trkpt>
<trkpt lat="40.0713749" lon="-105.229789">
  <ele>1583.0</ele>
  <time>2026-08-28T17:54:41Z</time>
  <course>0.0</course>
  <speed>0.0</speed>
  <fix>3d</fix>
</trkpt>
<trkpt lat="40.0713749" lon="-105.229789">
  <ele>1583.0</ele>
  <time>2026-08-28T17:54:41Z</time>
  <course>247.84</course>
  <speed>0.0316227766016838</speed>
  <fix>3d</fix>
</trkpt>
<trkpt lat="40.0713749" lon="-105.229789">
  <ele>1583.0</ele>
  <time>2026-08-28T17:54:41Z</time>
  <course>0.0</course>
  <speed>0.0</speed>
  <fix>3d</fix>
</trkpt>
<trkpt lat="40.0713749" lon="-105.229789">
  <ele>1583.0</ele>
  <time>2026-08-28T17:54:41Z</time>
  <course>247.84</course>
  <speed>0.0316227766016838</speed>
  <fix>3d</fix>
</trkpt>
<trkpt lat="40.0713749" lon="-105.229789">
  <ele>1583.0</ele>
  <time>2026-08-28T17:54:41Z</time>
  <course>0.0</course>
  <speed>0.0</speed>
  <fix>3d</fix>
</trkpt>
<trkpt lat="40.0713749" lon="-105.229789">
  <ele>1583.0</ele>
  <time>2026-08-28T17:54:41Z</time>
  <course>247.83</course>
  <speed>0.0316227766016838</speed>
  <fix>3d</fix>
</trkpt>
<trkpt lat="40.0713749" lon="-105.229789">
  <ele>1583.0</ele>
  <time>2026-08-28T17:54:41Z</time>
  <course>0.0</course>
  <speed>0.0</speed>
  <fix>3d</fix>
</trkpt>
<trkpt lat="40.0713749" lon="-105.229789">
  <ele>1583.0</ele>
  <time>2026-08-28T17:54:41Z</time>
  <course>247.83</course>
  <speed>0.0316227766016838</speed>
  <fix>3d</fix>
</trkpt>
<trkpt lat="40.0713749" lon="-105.229789">
  <ele>1583.0</ele>
  <time>2026-08-28T17:54:41Z</time>
  <course>0.0</course>
  <speed>0.0</speed>
  <fix>3d</fix>
</trkpt>
<trkpt lat="40.0713749" lon="-105.229789">
  <ele>1583.0</ele>
  <time>2026-08-28T17:54:41Z</time>
  <course>247.83</course>
  <speed>0.0316227766016838</speed>
  <fix>3d</fix>
</trkpt>
<trkpt lat="40.0713749" lon="-105.229789">
  <ele>1583.0</ele>
  <time>2026-08-28T17:54:41Z</time>
  <course>0.0</course>
  <speed>0.0</speed>
  <fix>3d</fix>
</trkpt>
<trkpt lat="40.0713749" lon="-105.229789">
  <ele>1583.0</ele>
  <time>2026-08-28T17:54:41Z</time>
  <course>247.82</course>
  <speed>0.0316227766016838</speed>
  <fix>3d</fix>
</trkpt>
<trkpt lat="40.0713749" lon="-105.229789">
  <ele>1583.0</ele>
  <time>2026-08-28T17:54:41Z</time>
  <course>0.0</course>
  <speed>0.0</speed>
  <fix>3d</fix>
</trkpt>
<trkpt lat="40.0713749" lon="-105.229789">
  <ele>1583.0</ele>
  <time>2026-08-28T17:54:41Z</time>
  <course>247.82</course>
  <speed>0.0316227766016838</speed>
  <fix>3d</fix>
</trkpt>
<trkpt lat="40.0713749" lon="-105.229789">
  <ele>1583.0</ele>
  <time>2026-08-28T17:54:41Z</time>
  <course>0.0</course>
  <speed>0.0</speed>
  <fix>3d</fix>
</trkpt>
<trkpt lat="40.0713749" lon="-105.229789">
  <ele>1583.0</ele>
  <time>2026-08-28T17:54:41Z</time>
  <course>247.82</course>
  <speed>0.0316227766016838</speed>
  <fix>3d</fix>
</trkpt>
<trkpt lat="40.0713749" lon="-105.229789">
  <ele>1583.0</ele>
  <time>2026-08-28T17:54:41Z</time>
  <course>0.0</course>
  <speed>0.0</speed>
  <fix>3d</fix>
</trkpt>
<trkpt lat="40.0713749" lon="-105.229789">
  <ele>1583.0</ele>
  <time>2026-08-28T17:54:41Z</time>
  <course>247.81</course>
  <speed>0.0316227766016838</speed>
  <fix>3d</fix>
</trkpt>
<trkpt lat="40.0713749" lon="-105.229789">
  <ele>1583.0</ele>
  <time>2026-08-28T17:54:41Z</time>
  <course>0.0</course>
  <speed>0.0</speed>
  <fix>3d</fix>
</trkpt>
<trkpt lat="40.0713749" lon="-105.229789">
  <ele>1583.0</ele>
  <time>2026-08-28T17:54:41Z</time>
  <course>247.81</course>
  <speed>0.0316227766016838</speed>
  <fix>3d</fix>
</trkpt>
<trkpt lat="40.0713749" lon="-105.229789">
  <ele>1583.0</ele>
  <time>2026-08-28T17:54:41Z</time>
  <course>0.0</course>
  <speed>0.0</speed>
  <fix>3d</fix>
</trkpt>
<trkpt lat="40.0713749" lon="-105.229789">
  <ele>1583.0</ele>
  <time>2026-08-28T17:54:41Z</time>
  <course>247.8</course>
  <speed>0.0316227766016838</speed>
  <fix>3d</fix>
</trkpt>
<trkpt lat="40.0713749" lon="-105.229789">
  <ele>1583.0</ele>
  <time>2026-08-28T17:54:41Z</time>
  <course>0.0</course>
  <speed>0.0</speed>
  <fix>3d</fix>
</trkpt>
<trkpt lat="40.0713749" lon="-105.229789">
  <ele>1583.0</ele>
  <time>2026-08-28T17:54:41Z</time>
  <course>247.8</course>
  <speed>0.0316227766016838</speed>
  <fix>3d</fix>
</trkpt>
<trkpt lat="40.0713749" lon="-105.229789">
  <ele>1583.0</ele>
  <time>2026-08-28T17:54:41Z</time>
  <course>0.0</course>
  <speed>0.0</speed>
  <fix>3d</fix>
</trkpt>
<trkpt lat="40.0713749" lon="-105.229789">
  <ele>1583.0</ele>
  <time>2026-08-28T17:54:41Z</time>
  <course>247.8</course>
  <speed>0.0316227766016838</speed>
  <fix>3d</fix>
</trkpt>
<trkpt lat="40.0713749" lon="-105.229789">
  <ele>1583.0</ele>
  <time>2026-08-28T17:54:41Z</time>
  <course>0.0</course>
  <speed>0.0</speed>
  <fix>3d</fix>
</trkpt>
<trkpt lat="40.0713749" lon="-105.229789">
  <ele>1583.0</ele>
  <time>2026-08-28T17:54:41Z</time>
  <course>247.79</course>
  <speed>0.0316227766016838</speed>
  <fix>3d</fix>
</trkpt>
<trkpt lat="40.0713749" lon="-105.229789">
  <ele>1583.0</ele>
  <time>2026-08-28T17:54:41Z</time>
  <course>0.0</course>
  <speed>0.0</speed>
  <fix>3d</fix>
</trkpt>
<trkpt lat="40.0713749" lon="-105.229789">
  <ele>1583.0</ele>
  <time>2026-08-28T17:54:41Z</time>
  <course>247.79</course>
  <speed>0.0316227766016838</speed>
  <fix>3d</fix>
</trkpt>
<trkpt lat="40.0713749" lon="-105.229789">
  <ele>1583.0</ele>
  <time>2026-08-28T17:54:41Z</time>
  <course>0.0</course>
  <speed>0.0</speed>
  <fix>3d</fix>
</trkpt>
<trkpt lat="40.0713749" lon="-105.229789">
  <ele>1583.0</ele>
  <time>2026-08-28T17:54:41Z</time>
  <course>247.79</course>
  <speed>0.0316227766016838</speed>
  <fix>3d</fix>
</trkpt>
<trkpt lat="40.0713749" lon="-105.229789">
  <ele>1583.0</ele>
  <time>2026-08-28T17:54:41Z</time>
  <course>0.0</course>
  <speed>0.0</speed>
  <fix>3d</fix>
</trkpt>
<trkpt lat="40.0713749" lon="-105.229789">
  <ele>1583.0</ele>
  <time>2026-08-28T17:54:41Z</time>
  <course>247.78</course>
  <speed>0.0316227766016838</speed>
  <fix>3d</fix>
</trkpt>
<trkpt lat="40.0713749" lon="-105.229789">
  <ele>1583.0</ele>
  <time>2026-08-28T17:54:41Z</time>
  <course>0.0</course>
  <speed>0.0</speed>
  <fix>3d</fix>
</trkpt>
<trkpt lat="40.0713749" lon="-105.229789">
  <ele>1583.0</ele>
  <time>2026-08-28T17:54:41Z</time>
  <course>247.78</course>
  <speed>0.0316227766016838</speed>
  <fix>3d</fix>
</trkpt>
<trkpt lat="40.0713749" lon="-105.229789">
  <ele>1583.0</ele>
  <time>2026-08-28T17:54:41Z</time>
  <course>0.0</course>
  <speed>0.0</speed>
  <fix>3d</fix>
</trkpt>
<trkpt lat="40.0713749" lon="-105.229789">
  <ele>1583.0</ele>
  <time>2026-08-28T17:54:41Z</time>
  <course>247.78</course>
  <speed>0.0316227766016838</speed>
  <fix>3d</fix>
</trkpt>
<trkpt lat="40.0713749" lon="-105.229789">
  <ele>1583.0</ele>
  <time>2026-08-28T17:54:41Z</time>
  <course>0.0</course>
  <speed>0.0</speed>
  <fix>3d</fix>
</trkpt>
<trkpt lat="40.0713749" lon="-105.229789">
  <ele>1583.0</ele>
  <time>2026-08-28T17:54:41Z</time>
  <course>247.77</course>
  <speed>0.0316227766016838</speed>
  <fix>3d</fix>
</trkpt>
<trkpt lat="40.0713749" lon="-105.229789">
  <ele>1583.0</ele>
  <time>2026-08-28T17:54:41Z</time>
  <course>0.0</course>
  <speed>0.0</speed>
  <fix>3d</fix>
</trkpt>
<trkpt lat="40.0713749" lon="-105.229789">
  <ele>1583.0</ele>
  <time>2026-08-28T17:54:41Z</time>
  <course>247.77</course>
  <speed>0.0316227766016838</speed>
  <fix>3d</fix>
</trkpt>
<trkpt lat="40.0713749" lon="-105.229789">
  <ele>1583.0</ele>
  <time>2026-08-28T17:54:41Z</time>
  <course>0.0</course>
  <speed>0.0</speed>
  <fix>3d</fix>
</trkpt>
<trkpt lat="40.0713749" lon="-105.229789">
  <ele>1583.0</ele>
  <time>2026-08-28T17:54:41Z</time>
  <course>247.76</course>
  <speed>0.0316227766016838</speed>
  <fix>3d</fix>
</trkpt>
<trkpt lat="40.0713749" lon="-105.229789">
  <ele>1583.0</ele>
  <time>2026-08-28T17:54:41Z</time>
  <course>0.0</course>
  <speed>0.0</speed>
  <fix>3d</fix>
</trkpt>
<trkpt lat="40.0713749" lon="-105.229789">
  <ele>1583.0</ele>
  <time>2026-08-28T17:54:41Z</time>
  <course>247.76</course>
  <speed>0.0316227766016838</speed>
  <fix>3d</fix>
</trkpt>
<trkpt lat="40.0713749" lon="-105.229789">
  <ele>1583.0</ele>
  <time>2026-08-28T17:54:41Z</time>
  <course>0.0</course>
  <speed>0.0</speed>
  <fix>3d</fix>
</trkpt>
<trkpt lat="40.0713749" lon="-105.229789">
  <ele>1583.0</ele>
  <time>2026-08-28T17:54:41Z</time>
  <course>247.76</course>
  <speed>0.0316227766016838</speed>
  <fix>3d</fix>
</trkpt>
<trkpt lat="40.0713749" lon="-105.229789">
  <ele>1583.0</ele>
  <time>2026-08-28T17:54:41Z</time>
  <course>0.0</course>
  <speed>0.0</speed>
  <fix>3d</fix>
</trkpt>
<trkpt lat="40.0713749" lon="-105.229789">
  <ele>1583.0</ele>
  <time>2026-08-28T17:54:41Z</time>
  <course>247.75</course>
  <speed>0.0316227766016838</speed>
  <fix>3d</fix>
</trkpt>
<trkpt lat="40.0713749" lon="-105.229789">
  <ele>1583.0</ele>
  <time>2026-08-28T17:54:41Z</time>
  <course>0.0</course>
  <speed>0.0</speed>
  <fix>3d</fix>
</trkpt>
<trkpt lat="40.0713749" lon="-105.229789">
  <ele>1583.0</ele>
  <time>2026-08-28T17:54:41Z</time>
  <course>247.75</course>
  <speed>0.0316227766016838</speed>
  <fix>3d</fix>
</trkpt>
<trkpt lat="40.0713749" lon="-105.229789">
  <ele>1583.0</ele>
  <time>2026-08-28T17:54:41Z</time>
  <course>0.0</course>
  <speed>0.0</speed>
  <fix>3d</fix>
</trkpt>
<trkpt lat="40.0713749" lon="-105.229789">
  <ele>1583.0</ele>
  <time>2026-08-28T17:54:41Z</time>
  <course>247.75</course>
  <speed>0.0316227766016838</speed>
  <fix>3d</fix>
</trkpt>
<trkpt lat="40.0713749" lon="-105.229789">
  <ele>1583.0</ele>
  <time>2026-08-28T17:54:41Z</time>
  <course>0.0</course>
  <speed>0.0</speed>
  <fix>3d</fix>
</trkpt>
<trkpt lat="40.0713749" lon="-105.229789">
  <ele>1583.0</ele>
  <time>2026-08-28T17:54:41Z</time>
  <course>247.74</course>
  <speed>0.0316227766016838</speed>
  <fix>3d</fix>
</trkpt>
<trkpt lat="40.0713749" lon="-105.229789">
  <ele>1583.0</ele>
  <time>2026-08-28T17:54:41Z</time>
  <course>0.0</course>
  <speed>0.0</speed>
  <fix>3d</fix>
</trkpt>
<trkpt lat="40.0713749" lon="-105.229789">
  <ele>1583.0</ele>
  <time>2026-08-28T17:54:41Z</time>
  <course>247.74</course>
  <speed>0.0316227766016838</speed>
  <fix>3d</fix>
</trkpt>
<trkpt lat="40.0713749" lon="-105.229789">
  <ele>1583.0</ele>
  <time>2026-08-28T17:54:41Z</time>
  <course>0.0</course>
  <speed>0.0</speed>
  <fix>3d</fix>
</trkpt>
<trkpt lat="40.0713749" lon="-105.229789">
  <ele>1583.0</ele>
  <time>2026-08-28T17:54:41Z</time>
  <course>247.74</course>
  <speed>0.0316227766016838</speed>
  <fix>3d</fix>
</trkpt>
<trkpt lat="40.0713749" lon="-105.229789">
  <ele>1583.0</ele>
  <time>2026-08-28T17:54:41Z</time>
  <course>0.0</course>
  <speed>0.0</speed>
  <fix>3d</fix>
</trkpt>
<trkpt lat="40.0713749" lon="-105.229789">
  <ele>1583.0</ele>
  <time>2026-08-28T17:54:41Z</time>
  <course>247.73</course>
  <speed>0.0316227766016838</speed>
  <fix>3d</fix>
</trkpt>
<trkpt lat="40.0713749" lon="-105.229789">
  <ele>1583.0</ele>
  <time>2026-08-28T17:54:41Z</time>
  <course>0.0</course>
  <speed>0.0</speed>
  <fix>3d</fix>
</trkpt>
<trkpt lat="40.0713749" lon="-105.229789">
  <ele>1583.0</ele>
  <time>2026-08-28T17:54:41Z</time>
  <course>247.73</course>
  <speed>0.0316227766016838</speed>
  <fix>3d</fix>
</trkpt>
<trkpt lat="40.0713749" lon="-105.229789">
  <ele>1583.0</ele>
  <time>2026-08-28T17:54:41Z</time>
  <course>0.0</course>
  <speed>0.0</speed>
  <fix>3d</fix>
</trkpt>
<trkpt lat="40.0713749" lon="-105.229789">
  <ele>1583.0</ele>
  <time>2026-08-28T17:54:41Z</time>
  <course>247.73</course>
  <speed>0.0316227766016838</speed>
  <fix>3d</fix>
</trkpt>
<trkpt lat="40.0713749" lon="-105.229789">
  <ele>1583.0</ele>
  <time>2026-08-28T17:54:41Z</time>
  <course>0.0</course>
  <speed>0.0</speed>
  <fix>3d</fix>
</trkpt>
<trkpt lat="40.0713749" lon="-105.229789">
  <ele>1583.0</ele>
  <time>2026-08-28T17:54:41Z</time>
  <course>247.72</course>
  <speed>0.0316227766016838</speed>
  <fix>3d</fix>
</trkpt>
<trkpt lat="40.0713749" lon="-105.229789">
  <ele>1583.0</ele>
  <time>2026-08-28T17:54:41Z</time>
  <course>0.0</course>
  <speed>0.0</speed>
  <fix>3d</fix>
</trkpt>
<trkpt lat="40.0713749" lon="-105.229789">
  <ele>1583.0</ele>
  <time>2026-08-28T17:54:41Z</time>
  <course>247.72</course>
  <speed>0.0316227766016838</speed>
  <fix>3d</fix>
</trkpt>
<trkpt lat="40.0713749" lon="-105.229789">
  <ele>1583.0</ele>
  <time>2026-08-28T17:54:41Z</time>
  <course>0.0</course>
  <speed>0.0</speed>
  <fix>3d</fix>
</trkpt>
<trkpt lat="40.0713749" lon="-105.229789">
  <ele>1583.0</ele>
  <time>2026-08-28T17:54:41Z</time>
  <course>247.72</course>
  <speed>0.0316227766016838</speed>
  <fix>3d</fix>
</trkpt>
<trkpt lat="40.0713749" lon="-105.229789">
  <ele>1583.0</ele>
  <time>2026-08-28T17:54:41Z</time>
  <course>0.0</course>
  <speed>0.0</speed>
  <fix>3d</fix>
</trkpt>
<trkpt lat="40.0713749" lon="-105.229789">
  <ele>1583.0</ele>
  <time>2026-08-28T17:54:41Z</time>
  <course>247.71</course>
  <speed>0.0316227766016838</speed>
  <fix>3d</fix>
</trkpt>
<trkpt lat="40.0713749" lon="-105.229789">
  <ele>1583.0</ele>
  <time>2026-08-28T17:54:41Z</time>
  <course>0.0</course>
  <speed>0.0</speed>
  <fix>3d</fix>
</trkpt>
<trkpt lat="40.0713749" lon="-105.229789">
  <ele>1583.0</ele>
  <time>2026-08-28T17:54:41Z</time>
  <course>247.71</course>
  <speed>0.0316227766016838</speed>
  <fix>3d</fix>
</trkpt>
<trkpt lat="40.0713749" lon="-105.229789">
  <ele>1583.0</ele>
  <time>2026-08-28T17:54:41Z</time>
  <course>0.0</course>
  <speed>0.0</speed>
  <fix>3d</fix>
</trkpt>
<trkpt lat="40.0713749" lon="-105.229789">
  <ele>1583.0</ele>
  <time>2026-08-28T17:54:41Z</time>
  <course>247.71</course>
  <speed>0.0316227766016838</speed>
  <fix>3d</fix>
</trkpt>
<trkpt lat="40.0713749" lon="-105.229789">
  <ele>1583.0</ele>
  <time>2026-08-28T17:54:41Z</time>
  <course>0.0</course>
  <speed>0.0</speed>
  <fix>3d</fix>
</trkpt>
<trkpt lat="40.0713749" lon="-105.229789">
  <ele>1583.0</ele>
  <time>2026-08-28T17:54:41Z</time>
  <course>247.7</course>
  <speed>0.0316227766016838</speed>
  <fix>3d</fix>
</trkpt>
<trkpt lat="40.0713749" lon="-105.229789">
  <ele>1583.0</ele>
  <time>2026-08-28T17:54:41Z</time>
  <course>0.0</course>
  <speed>0.0</speed>
  <fix>3d</fix>
</trkpt>
<trkpt lat="40.0713749" lon="-105.229789">
  <ele>1583.0</ele>
  <time>2026-08-28T17:54:41Z</time>
  <course>247.7</course>
  <speed>0.0316227766016838</speed>
  <fix>3d</fix>
</trkpt>
<trkpt lat="40.0713749" lon="-105.229789">
  <ele>1583.0</ele>
  <time>2026-08-28T17:54:41Z</time>
  <course>0.0</course>
  <speed>0.0</speed>
  <fix>3d</fix>
</trkpt>
<trkpt lat="40.0713749" lon="-105.229789">
  <ele>1583.0</ele>
  <time>2026-08-28T17:54:41Z</time>
  <course>247.7</course>
  <speed>0.0316227766016838</speed>
  <fix>3d</fix>
</trkpt>
<trkpt lat="40.0713749" lon="-105.229789">
  <ele>1583.0</ele>
  <time>2026-08-28T17:54:41Z</time>
  <course>0.0</course>
  <speed>0.0</speed>
  <fix>3d</fix>
</trkpt>
<trkpt lat="40.0713749" lon="-105.229789">
  <ele>1583.0</ele>
  <time>2026-08-28T17:54:41Z</time>
  <course>247.69</course>
  <speed>0.0316227766016838</speed>
  <fix>3d</fix>
</trkpt>
<trkpt lat="40.0713749" lon="-105.229789">
  <ele>1583.0</ele>
  <time>2026-08-28T17:54:41Z</time>
  <course>0.0</course>
  <speed>0.0</speed>
  <fix>3d</fix>
</trkpt>
<trkpt lat="40.0713749" lon="-105.229789">
  <ele>1583.0</ele>
  <time>2026-08-28T17:54:41Z</time>
  <course>247.69</course>
  <speed>0.0316227766016838</speed>
  <fix>3d</fix>
</trkpt>
<trkpt lat="40.0713749" lon="-105.229789">
  <ele>1583.0</ele>
  <time>2026-08-28T17:54:41Z</time>
  <course>0.0</course>
  <speed>0.0</speed>
  <fix>3d</fix>
</trkpt>
<trkpt lat="40.0713749" lon="-105.229789">
  <ele>1583.0</ele>
  <time>2026-08-28T17:54:41Z</time>
  <course>247.69</course>
  <speed>0.0316227766016838</speed>
  <fix>3d</fix>
</trkpt>
<trkpt lat="40.0713749" lon="-105.229789">
  <ele>1583.0</ele>
  <time>2026-08-28T17:54:41Z</time>
  <course>0.0</course>
  <speed>0.0</speed>
  <fix>3d</fix>
</trkpt>
<trkpt lat="40.0713749" lon="-105.229789">
  <ele>1583.0</ele>
  <time>2026-08-28T17:54:41Z</time>
  <course>247.68</course>
  <speed>0.0316227766016838</speed>
  <fix>3d</fix>
</trkpt>
<trkpt lat="40.0713749" lon="-105.229789">
  <ele>1583.0</ele>
  <time>2026-08-28T17:54:41Z</time>
  <course>0.0</course>
  <speed>0.0</speed>
  <fix>3d</fix>
</trkpt>
<trkpt lat="40.0713749" lon="-105.229789">
  <ele>1583.0</ele>
  <time>2026-08-28T17:54:41Z</time>
  <course>247.68</course>
  <speed>0.0316227766016838</speed>
  <fix>3d</fix>
</trkpt>
<trkpt lat="40.0713749" lon="-105.229789">
  <ele>1583.0</ele>
  <time>2026-08-28T17:54:41Z</time>
  <course>0.0</course>
  <speed>0.0</speed>
  <fix>3d</fix>
</trkpt>
<trkpt lat="40.0713749" lon="-105.229789">
  <ele>1583.0</ele>
  <time>2026-08-28T17:54:41Z</time>
  <course>247.68</course>
  <speed>0.0316227766016838</speed>
  <fix>3d</fix>
</trkpt>
<trkpt lat="40.0713749" lon="-105.229789">
  <ele>1583.0</ele>
  <time>2026-08-28T17:54:41Z</time>
  <course>0.0</course>
  <speed>0.0</speed>
  <fix>3d</fix>
</trkpt>
<trkpt lat="40.0713749" lon="-105.229789">
  <ele>1583.0</ele>
  <time>2026-08-28T17:54:41Z</time>
  <course>247.67</course>
  <speed>0.0316227766016838</speed>
  <fix>3d</fix>
</trkpt>
<trkpt lat="40.0713749" lon="-105.229789">
  <ele>1583.0</ele>
  <time>2026-08-28T17:54:41Z</time>
  <course>0.0</course>
  <speed>0.0</speed>
  <fix>3d</fix>
</trkpt>
<trkpt lat="40.0713749" lon="-105.229789">
  <ele>1583.0</ele>
  <time>2026-08-28T17:54:41Z</time>
  <course>247.67</course>
  <speed>0.0316227766016838</speed>
  <fix>3d</fix>
</trkpt>
<trkpt lat="40.0713749" lon="-105.229789">
  <ele>1583.0</ele>
  <time>2026-08-28T17:54:41Z</time>
  <course>0.0</course>
  <speed>0.0</speed>
  <fix>3d</fix>
</trkpt>
<trkpt lat="40.0713749" lon="-105.229789">
  <ele>1583.0</ele>
  <time>2026-08-28T17:54:41Z</time>
  <course>247.67</course>
  <speed>0.0316227766016838</speed>
  <fix>3d</fix>
</trkpt>
<trkpt lat="40.0713749" lon="-105.229789">
  <ele>1583.0</ele>
  <time>2026-08-28T17:54:41Z</time>
  <course>0.0</course>
  <speed>0.0</speed>
  <fix>3d</fix>
</trkpt>
<trkpt lat="40.0713749" lon="-105.229789">
  <ele>1583.0</ele>
  <time>2026-08-28T17:54:41Z</time>
  <course>247.66</course>
  <speed>0.0316227766016838</speed>
  <fix>3d</fix>
</trkpt>
<trkpt lat="40.0713749" lon="-105.229789">
  <ele>1583.0</ele>
  <time>2026-08-28T17:54:41Z</time>
  <course>0.0</course>
  <speed>0.0</speed>
  <fix>3d</fix>
</trkpt>
<trkpt lat="40.0713749" lon="-105.229789">
  <ele>1583.0</ele>
  <time>2026-08-28T17:54:41Z</time>
  <course>247.66</course>
  <speed>0.0316227766016838</speed>
  <fix>3d</fix>
</trkpt>
<trkpt lat="40.0713749" lon="-105.229789">
  <ele>1583.0</ele>
  <time>2026-08-28T17:54:41Z</time>
  <course>0.0</course>
  <speed>0.0</speed>
  <fix>3d</fix>
</trkpt>
<trkpt lat="40.0713749" lon="-105.229789">
  <ele>1583.0</ele>
  <time>2026-08-28T17:54:41Z</time>
  <course>247.66</course>
  <speed>0.0316227766016838</speed>
  <fix>3d</fix>
</trkpt>
<trkpt lat="40.0713749" lon="-105.229789">
  <ele>1583.0</ele>
  <time>2026-08-28T17:54:41Z</time>
  <course>0.0</course>
  <speed>0.0</speed>
  <fix>3d</fix>
</trkpt>
<trkpt lat="40.0713749" lon="-105.229789">
  <ele>1583.0</ele>
  <time>2026-08-28T17:54:41Z</time>
  <course>247.65</course>
  <speed>0.0316227766016838</speed>
  <fix>3d</fix>
</trkpt>
<trkpt lat="40.0713749" lon="-105.229789">
  <ele>1583.0</ele>
  <time>2026-08-28T17:54:41Z</time>
  <course>0.0</course>
  <speed>0.0</speed>
  <fix>3d</fix>
</trkpt>
<trkpt lat="40.0713749" lon="-105.229789">
  <ele>1583.0</ele>
  <time>2026-08-28T17:54:41Z</time>
  <course>247.65</course>
  <speed>0.0316227766016838</speed>
  <fix>3d</fix>
</trkpt>
<trkpt lat="40.0713749" lon="-105.229789">
  <ele>1583.0</ele>
  <time>2026-08-28T17:54:41Z</time>
  <course>0.0</course>
  <speed>0.0</speed>
  <fix>3d</fix>
</trkpt>
<trkpt lat="40.0713749" lon="-105.229789">
  <ele>1583.0</ele>
  <time>2026-08-28T17:54:41Z</time>
  <course>247.65</course>
  <speed>0.0316227766016838</speed>
  <fix>3d</fix>
</trkpt>
<trkpt lat="40.0713749" lon="-105.229789">
  <ele>1583.0</ele>
  <time>2026-08-28T17:54:41Z</time>
  <course>0.0</course>
  <speed>0.0</speed>
  <fix>3d</fix>
</trkpt>
<trkpt lat="40.0713749" lon="-105.229789">
  <ele>1583.0</ele>
  <time>2026-08-28T17:54:41Z</time>
  <course>247.64</course>
  <speed>0.0316227766016838</speed>
  <fix>3d</fix>
</trkpt>
<trkpt lat="40.0713749" lon="-105.229789">
  <ele>1583.0</ele>
  <time>2026-08-28T17:54:41Z</time>
  <course>0.0</course>
  <speed>0.0</speed>
  <fix>3d</fix>
</trkpt>
<trkpt lat="40.0713749" lon="-105.229789">
  <ele>1583.0</ele>
  <time>2026-08-28T17:54:41Z</time>
  <course>247.64</course>
  <speed>0.0316227766016838</speed>
  <fix>3d</fix>
</trkpt>
<trkpt lat="40.0713749" lon="-105.229789">
  <ele>1583.0</ele>
  <time>2026-08-28T17:54:41Z</time>
  <course>0.0</course>
  <speed>0.0</speed>
  <fix>3d</fix>
</trkpt>
<trkpt lat="40.0713749" lon="-105.229789">
  <ele>1583.0</ele>
  <time>2026-08-28T17:54:41Z</time>
  <course>247.64</course>
  <speed>0.0316227766016838</speed>
  <fix>3d</fix>
</trkpt>
<trkpt lat="40.0713749" lon="-105.229789">
  <ele>1583.0</ele>
  <time>2026-08-28T17:54:41Z</time>
  <course>0.0</course>
  <speed>0.0</speed>
  <fix>3d</fix>
</trkpt>
<trkpt lat="40.0713749" lon="-105.229789">
  <ele>1583.0</ele>
  <time>2026-08-28T17:54:41Z</time>
  <course>247.64</course>
  <speed>0.0316227766016838</speed>
  <fix>3d</fix>
</trkpt>
<trkpt lat="40.0713749" lon="-105.229789">
  <ele>1583.0</ele>
  <time>2026-08-28T17:54:41Z</time>
  <course>0.0</course>
  <speed>0.0</speed>
  <fix>3d</fix>
</trkpt>
<trkpt lat="40.0713749" lon="-105.229789">
  <ele>1583.0</ele>
  <time>2026-08-28T17:54:41Z</time>
  <course>247.63</course>
  <speed>0.0316227766016838</speed>
  <fix>3d</fix>
</trkpt>
<trkpt lat="40.0713749" lon="-105.229789">
  <ele>1583.0</ele>
  <time>2026-08-28T17:54:41Z</time>
  <course>0.0</course>
  <speed>0.0</speed>
  <fix>3d</fix>
</trkpt>
<trkpt lat="40.0713749" lon="-105.229789">
  <ele>1583.0</ele>
  <time>2026-08-28T17:54:41Z</time>
  <course>247.63</course>
  <speed>0.0316227766016838</speed>
  <fix>3d</fix>
</trkpt>
<trkpt lat="40.0713749" lon="-105.229789">
  <ele>1583.0</ele>
  <time>2026-08-28T17:54:41Z</time>
  <course>0.0</course>
  <speed>0.0</speed>
  <fix>3d</fix>
</trkpt>
<trkpt lat="40.0713749" lon="-105.229789">
  <ele>1583.0</ele>
  <time>2026-08-28T17:54:41Z</time>
  <course>247.63</course>
  <speed>0.0316227766016838</speed>
  <fix>3d</fix>
</trkpt>
<trkpt lat="40.0713749" lon="-105.229789">
  <ele>1583.0</ele>
  <time>2026-08-28T17:54:41Z</time>
  <course>0.0</course>
  <speed>0.0</speed>
  <fix>3d</fix>
</trkpt>
<trkpt lat="40.0713749" lon="-105.229789">
  <ele>1583.0</ele>
  <time>2026-08-28T17:54:41Z</time>
  <course>247.62</course>
  <speed>0.0316227766016838</speed>
  <fix>3d</fix>
</trkpt>
<trkpt lat="40.0713749" lon="-105.229789">
  <ele>1583.0</ele>
  <time>2026-08-28T17:54:41Z</time>
  <course>0.0</course>
  <speed>0.0</speed>
  <fix>3d</fix>
</trkpt>
<trkpt lat="40.0713749" lon="-105.229789">
  <ele>1583.0</ele>
  <time>2026-08-28T17:54:41Z</time>
  <course>247.62</course>
  <speed>0.0316227766016838</speed>
  <fix>3d</fix>
</trkpt>
<trkpt lat="40.0713749" lon="-105.229789">
  <ele>1583.0</ele>
  <time>2026-08-28T17:54:41Z</time>
  <course>0.0</course>
  <speed>0.0</speed>
  <fix>3d</fix>
</trkpt>
<trkpt lat="40.0713749" lon="-105.229789">
  <ele>1583.0</ele>
  <time>2026-08-28T17:54:41Z</time>
  <course>247.62</course>
  <speed>0.0316227766016838</speed>
  <fix>3d</fix>
</trkpt>
<trkpt lat="40.0713749" lon="-105.229789">
  <ele>1583.0</ele>
  <time>2026-08-28T17:54:41Z</time>
  <course>0.0</course>
  <speed>0.0</speed>
  <fix>3d</fix>
</trkpt>
<trkpt lat="40.0713749" lon="-105.229789">
  <ele>1583.0</ele>
  <time>2026-08-28T17:54:41Z</time>
  <course>247.62</course>
  <speed>0.0316227766016838</speed>
  <fix>3d</fix>
</trkpt>
<trkpt lat="40.0713749" lon="-105.229789">
  <ele>1583.0</ele>
  <time>2026-08-28T17:54:41Z</time>
  <course>0.0</course>
  <speed>0.0</speed>
  <fix>3d</fix>
</trkpt>
<trkpt lat="40.0713749" lon="-105.229789">
  <ele>1583.0</ele>
  <time>2026-08-28T17:54:41Z</time>
  <course>247.61</course>
  <speed>0.0316227766016838</speed>
  <fix>3d</fix>
</trkpt>
<trkpt lat="40.0713749" lon="-105.229789">
  <ele>1583.0</ele>
  <time>2026-08-28T17:54:41Z</time>
  <course>0.0</course>
  <speed>0.0</speed>
  <fix>3d</fix>
</trkpt>
<trkpt lat="40.0713749" lon="-105.229789">
  <ele>1583.0</ele>
  <time>2026-08-28T17:54:41Z</time>
  <course>247.61</course>
  <speed>0.0316227766016838</speed>
  <fix>3d</fix>
</trkpt>
<trkpt lat="40.0713749" lon="-105.229789">
  <ele>1583.0</ele>
  <time>2026-08-28T17:54:41Z</time>
  <course>0.0</course>
  <speed>0.0</speed>
  <fix>3d</fix>
</trkpt>
<trkpt lat="40.0713749" lon="-105.229789">
  <ele>1583.0</ele>
  <time>2026-08-28T17:54:41Z</time>
  <course>247.61</course>
  <speed>0.0316227766016838</speed>
  <fix>3d</fix>
</trkpt>
<trkpt lat="40.0713749" lon="-105.229789">
  <ele>1583.0</ele>
  <time>2026-08-28T17:54:41Z</time>
  <course>0.0</course>
  <speed>0.0</speed>
  <fix>3d</fix>
</trkpt>
<trkpt lat="40.0713749" lon="-105.229789">
  <ele>1583.0</ele>
  <time>2026-08-28T17:54:41Z</time>
  <course>247.6</course>
  <speed>0.0316227766016838</speed>
  <fix>3d</fix>
</trkpt>
<trkpt lat="40.0713749" lon="-105.229789">
  <ele>1583.0</ele>
  <time>2026-08-28T17:54:41Z</time>
  <course>0.0</course>
  <speed>0.0</speed>
  <fix>3d</fix>
</trkpt>
<trkpt lat="40.0713749" lon="-105.229789">
  <ele>1583.0</ele>
  <time>2026-08-28T17:54:41Z</time>
  <course>247.6</course>
  <speed>0.0316227766016838</speed>
  <fix>3d</fix>
</trkpt>
<trkpt lat="40.0713749" lon="-105.229789">
  <ele>1583.0</ele>
  <time>2026-08-28T17:54:41Z</time>
  <course>0.0</course>
  <speed>0.0</speed>
  <fix>3d</fix>
</trkpt>
<trkpt lat="40.0713749" lon="-105.229789">
  <ele>1583.0</ele>
  <time>2026-08-28T17:54:41Z</time>
  <course>247.6</course>
  <speed>0.0316227766016838</speed>
  <fix>3d</fix>
</trkpt>
<trkpt lat="40.0713749" lon="-105.229789">
  <ele>1583.0</ele>
  <time>2026-08-28T17:54:41Z</time>
  <course>0.0</course>
  <speed>0.0</speed>
  <fix>3d</fix>
</trkpt>
<trkpt lat="40.0713749" lon="-105.229789">
  <ele>1583.0</ele>
  <time>2026-08-28T17:54:41Z</time>
  <course>247.6</course>
  <speed>0.0316227766016838</speed>
  <fix>3d</fix>
</trkpt>
<trkpt lat="40.0713749" lon="-105.229789">
  <ele>1583.0</ele>
  <time>2026-08-28T17:54:41Z</time>
  <course>0.0</course>
  <speed>0.0</speed>
  <fix>3d</fix>
</trkpt>
<trkpt lat="40.0713749" lon="-105.229789">
  <ele>1583.0</ele>
  <time>2026-08-28T17:54:41Z</time>
  <course>247.59</course>
  <speed>0.0316227766016838</speed>
  <fix>3d</fix>
</trkpt>
<trkpt lat="40.0713749" lon="-105.229789">
  <ele>1583.0</ele>
  <time>2026-08-28T17:54:41Z</time>
  <course>0.0</course>
  <speed>0.0</speed>
  <fix>3d</fix>
</trkpt>
<trkpt lat="40.0713749" lon="-105.229789">
  <ele>1582.92</ele>
  <time>2026-08-28T17:54:41Z</time>
  <course>247.59</course>
  <speed>0.0</speed>
  <fix>3d</fix>
</trkpt>
<trkpt lat="40.0713749" lon="-105.229789">
  <ele>1583.0</ele>
  <time>2026-08-28T17:54:41Z</time>
  <course>0.0</course>
  <speed>0.0</speed>
  <fix>3d</fix>
</trkpt>
<trkpt lat="40.0713749" lon="-105.229789">
  <ele>1582.92</ele>
  <time>2026-08-28T17:54:41Z</time>
  <course>247.59</course>
  <speed>0.0</speed>
  <fix>3d</fix>
</trkpt>
<trkpt lat="40.0713749" lon="-105.229789">
  <ele>1583.0</ele>
  <time>2026-08-28T17:54:41Z</time>
  <course>0.0</course>
  <speed>0.0</speed>
  <fix>3d</fix>
</trkpt>
<trkpt lat="40.0713749" lon="-105.229789">
  <ele>1582.91</ele>
  <time>2026-08-28T17:54:41Z</time>
  <course>247.58</course>
  <speed>0.0</speed>
  <fix>3d</fix>
</trkpt>
<trkpt lat="40.0713749" lon="-105.229789">
  <ele>1583.0</ele>
  <time>2026-08-28T17:54:41Z</time>
  <course>0.0</course>
  <speed>0.0</speed>
  <fix>3d</fix>
</trkpt>
<trkpt lat="40.0713749" lon="-105.229789">
  <ele>1582.91</ele>
  <time>2026-08-28T17:54:41Z</time>
  <course>247.58</course>
  <speed>0.0</speed>
  <fix>3d</fix>
</trkpt>
<trkpt lat="40.0713749" lon="-105.229789">
  <ele>1583.0</ele>
  <time>2026-08-28T17:54:41Z</time>
  <course>0.0</course>
  <speed>0.0</speed>
  <fix>3d</fix>
</trkpt>
<trkpt lat="40.0713749" lon="-105.229789">
  <ele>1582.9</ele>
  <time>2026-08-28T17:54:41Z</time>
  <course>247.58</course>
  <speed>0.0</speed>
  <fix>3d</fix>
</trkpt>
<trkpt lat="40.0713749" lon="-105.229789">
  <ele>1583.0</ele>
  <time>2026-08-28T17:54:41Z</time>
  <course>0.0</course>
  <speed>0.0</speed>
  <fix>3d</fix>
</trkpt>
<trkpt lat="40.0713749" lon="-105.229789">
  <ele>1582.9</ele>
  <time>2026-08-28T17:54:41Z</time>
  <course>247.58</course>
  <speed>0.0</speed>
  <fix>3d</fix>
</trkpt>
<trkpt lat="40.0713749" lon="-105.229789">
  <ele>1583.0</ele>
  <time>2026-08-28T17:54:41Z</time>
  <course>0.0</course>
  <speed>0.0</speed>
  <fix>3d</fix>
</trkpt>
<trkpt lat="40.0713749" lon="-105.229789">
  <ele>1582.9</ele>
  <time>2026-08-28T17:54:41Z</time>
  <course>247.57</course>
  <speed>0.0</speed>
  <fix>3d</fix>
</trkpt>
<trkpt lat="40.0713749" lon="-105.229789">
  <ele>1583.0</ele>
  <time>2026-08-28T17:54:41Z</time>
  <course>0.0</course>
  <speed>0.0</speed>
  <fix>3d</fix>
</trkpt>
<trkpt lat="40.0713749" lon="-105.229789">
  <ele>1582.9</ele>
  <time>2026-08-28T17:54:41Z</time>
  <course>247.57</course>
  <speed>0.0</speed>
  <fix>3d</fix>
</trkpt>
<trkpt lat="40.0713749" lon="-105.229789">
  <ele>1583.0</ele>
  <time>2026-08-28T17:54:41Z</time>
  <course>0.0</course>
  <speed>0.0</speed>
  <fix>3d</fix>
</trkpt>
<trkpt lat="40.0713749" lon="-105.229789">
  <ele>1582.9</ele>
  <time>2026-08-28T17:54:41Z</time>
  <course>247.57</course>
  <speed>0.0</speed>
  <fix>3d</fix>
</trkpt>
<trkpt lat="40.0713749" lon="-105.229789">
  <ele>1583.0</ele>
  <time>2026-08-28T17:54:41Z</time>
  <course>0.0</course>
  <speed>0.0</speed>
  <fix>3d</fix>
</trkpt>
<trkpt lat="40.0713749" lon="-105.229789">
  <ele>1582.9</ele>
  <time>2026-08-28T17:54:41Z</time>
  <course>247.57</course>
  <speed>0.01</speed>
  <fix>3d</fix>
</trkpt>
<trkpt lat="40.0713749" lon="-105.229789">
  <ele>1583.0</ele>
  <time>2026-08-28T17:54:41Z</time>
  <course>0.0</course>
  <speed>0.0</speed>
  <fix>3d</fix>
</trkpt>
<trkpt lat="40.0713749" lon="-105.229789">
  <ele>1582.9</ele>
  <time>2026-08-28T17:54:41Z</time>
  <course>247.56</course>
  <speed>0.01</speed>
  <fix>3d</fix>
</trkpt>
<trkpt lat="40.0713749" lon="-105.229789">
  <ele>1583.0</ele>
  <time>2026-08-28T17:54:41Z</time>
  <course>0.0</course>
  <speed>0.0</speed>
  <fix>3d</fix>
</trkpt>
<trkpt lat="40.0713749" lon="-105.229789">
  <ele>1582.91</ele>
  <time>2026-08-28T17:54:41Z</time>
  <course>247.56</course>
  <speed>0.01</speed>
  <fix>3d</fix>
</trkpt>
<trkpt lat="40.0713749" lon="-105.229789">
  <ele>1583.0</ele>
  <time>2026-08-28T17:54:41Z</time>
  <course>0.0</course>
  <speed>0.0</speed>
  <fix>3d</fix>
</trkpt>
<trkpt lat="40.0713749" lon="-105.229789">
  <ele>1582.91</ele>
  <time>2026-08-28T17:54:41Z</time>
  <course>247.56</course>
  <speed>0.01</speed>
  <fix>3d</fix>
</trkpt>
<trkpt lat="40.0713749" lon="-105.229789">
  <ele>1583.0</ele>
  <time>2026-08-28T17:54:41Z</time>
  <course>0.0</course>
  <speed>0.0</speed>
  <fix>3d</fix>
</trkpt>
<trkpt lat="40.0713749" lon="-105.229789">
  <ele>1582.92</ele>
  <time>2026-08-28T17:54:41Z</time>
  <course>247.56</course>
  <speed>0.12369316876852982</speed>
  <fix>3d</fix>
</trkpt>
<trkpt lat="40.0713749" lon="-105.229789">
  <ele>1583.0</ele>
  <time>2026-08-28T17:54:41Z</time>
  <course>246.0</course>
  <speed>0.06</speed>
  <fix>3d</fix>
</trkpt>
<trkpt lat="40.0713748" lon="-105.2297893">
  <ele>1582.92</ele>
  <time>2026-08-28T17:54:41Z</time>
  <course>247.55</course>
  <speed>0.3289376840679705</speed>
  <fix>3d</fix>
</trkpt>
<trkpt lat="40.0713749" lon="-105.229789">
  <ele>1583.0</ele>
  <time>2026-08-28T17:54:41Z</time>
  <course>246.0</course>
  <speed>0.06</speed>
  <fix>3d</fix>
</trkpt>
<trkpt lat="40.0713747" lon="-105.2297899">
  <ele>1582.92</ele>
  <time>2026-08-28T17:54:41Z</time>
  <course>247.55</course>
  <speed>0.6332456079595026</speed>
  <fix>3d</fix>
</trkpt>
<trkpt lat="40.0713749" lon="-105.229789">
  <ele>1583.0</ele>
  <time>2026-08-28T17:54:41Z</time>
  <course>246.0</course>
  <speed>0.06</speed>
  <fix>3d</fix>
</trkpt>
<trkpt lat="40.0713744" lon="-105.2297908">
  <ele>1582.93</ele>
  <time>2026-08-28T17:54:41Z</time>
  <course>247.55</course>
  <speed>1.010198000393982</speed>
  <fix>3d</fix>
</trkpt>
<trkpt lat="40.0713748" lon="-105.2297893">
  <ele>1583.0</ele>
  <time>2026-08-28T17:54:41Z</time>
  <course>246.0</course>
  <speed>0.39</speed>
  <fix>3d</fix>
</trkpt>
<trkpt lat="40.071374" lon="-105.2297922">
  <ele>1582.93</ele>
  <time>2026-08-28T17:54:41Z</time>
  <course>247.54</course>
  <speed>1.476279106402309</speed>
  <fix>3d</fix>
</trkpt>
<trkpt lat="40.0713748" lon="-105.2297893">
  <ele>1583.0</ele>
  <time>2026-08-28T17:54:41Z</time>
  <course>246.0</course>
  <speed>0.39</speed>
  <fix>3d</fix>
</trkpt>
<trkpt lat="40.0713733" lon="-105.2297941">
  <ele>1582.93</ele>
  <time>2026-08-28T17:54:41Z</time>
  <course>247.54</course>
  <speed>2.018539075668341</speed>
  <fix>3d</fix>
</trkpt>
<trkpt lat="40.0713743" lon="-105.2297909">
  <ele>1583.0</ele>
  <time>2026-08-28T17:54:41Z</time>
  <course>246.0</course>
  <speed>1.06</speed>
  <fix>3d</fix>
</trkpt>
<trkpt lat="40.0713725" lon="-105.2297967">
  <ele>1582.93</ele>
  <time>2026-08-28T17:54:41Z</time>
  <course>247.53</course>
  <speed>2.633191979328511</speed>
  <fix>3d</fix>
</trkpt>
<trkpt lat="40.0713743" lon="-105.2297909">
  <ele>1583.0</ele>
  <time>2026-08-28T17:54:41Z</time>
  <course>246.0</course>
  <speed>1.06</speed>
  <fix>3d</fix>
</trkpt>
<trkpt lat="40.0713714" lon="-105.2298">
  <ele>1582.94</ele>
  <time>2026-08-28T17:54:41Z</time>
  <course>247.51</course>
  <speed>3.3185087012090237</speed>
  <fix>3d</fix>
</trkpt>
<trkpt lat="40.0713732" lon="-105.2297942">
  <ele>1583.0</ele>
  <time>2026-08-28T17:54:41Z</time>
  <course>246.0</course>
  <speed>2.05</speed>
  <fix>3d</fix>
</trkpt>
<trkpt lat="40.0713701" lon="-105.2298042">
  <ele>1582.94</ele>
  <time>2026-08-28T17:54:41Z</time>
  <course>247.48</course>
  <speed>4.066952175769958</speed>
  <fix>3d</fix>
</trkpt>
<trkpt lat="40.0713712" lon="-105.2297999">
  <ele>1583.0</ele>
  <time>2026-08-28T17:54:41Z</time>
  <course>246.0</course>
  <speed>3.32</speed>
  <fix>3d</fix>
</trkpt>
<trkpt lat="40.0713684" lon="-105.2298092">
  <ele>1582.94</ele>
  <time>2026-08-28T17:54:41Z</time>
  <course>247.43</course>
  <speed>4.873079108736078</speed>
  <fix>3d</fix>
</trkpt>
<trkpt lat="40.0713712" lon="-105.2297999">
  <ele>1583.0</ele>
  <time>2026-08-28T17:54:41Z</time>
  <course>246.0</course>
  <speed>3.32</speed>
  <fix>3d</fix>
</trkpt>
<trkpt lat="40.0713665" lon="-105.2298151">
  <ele>1582.95</ele>
  <time>2026-08-28T17:54:41Z</time>
  <course>247.39</course>
  <speed>5.634616224730838</speed>
  <fix>3d</fix>
</trkpt>
<trkpt lat="40.0713683" lon="-105.2298086">
  <ele>1583.0</ele>
  <time>2026-08-28T17:54:41Z</time>
  <course>245.99</course>
  <speed>4.79</speed>
  <fix>3d</fix>
</trkpt>
<trkpt lat="40.0713643" lon="-105.2298217">
  <ele>1582.95</ele>
  <time>2026-08-28T17:54:41Z</time>
  <course>247.31</course>
  <speed>6.368500608463503</speed>
  <fix>3d</fix>
</trkpt>
<trkpt lat="40.0713683" lon="-105.2298086">
  <ele>1583.0</ele>
  <time>2026-08-28T17:54:41Z</time>
  <course>245.99</course>
  <speed>4.79</speed>
  <fix>3d</fix>
</trkpt>
<trkpt lat="40.0713618" lon="-105.2298292">
  <ele>1582.96</ele>
  <time>2026-08-28T17:54:41Z</time>
  <course>247.24</course>
  <speed>7.057797106746552</speed>
  <fix>3d</fix>
</trkpt>
<trkpt lat="40.0713643" lon="-105.2298204">
  <ele>1583.0</ele>
  <time>2026-08-28T17:54:41Z</time>
  <course>246.0</course>
  <speed>6.23</speed>
  <fix>3d</fix>
</trkpt>
<trkpt lat="40.071359" lon="-105.2298373">
  <ele>1582.96</ele>
  <time>2026-08-28T17:54:41Z</time>
  <course>247.15</course>
  <speed>7.724797731979782</speed>
  <fix>3d</fix>
</trkpt>
<trkpt lat="40.0713643" lon="-105.2298204">
  <ele>1583.0</ele>
  <time>2026-08-28T17:54:41Z</time>
  <course>246.0</course>
  <speed>6.23</speed>
  <fix>3d</fix>
</trkpt>
<trkpt lat="40.0713561" lon="-105.2298462">
  <ele>1582.96</ele>
  <time>2026-08-28T17:54:41Z</time>
  <course>247.08</course>
  <speed>8.351095736488716</speed>
  <fix>3d</fix>
</trkpt>
<trkpt lat="40.0713592" lon="-105.2298352">
  <ele>1583.0</ele>
  <time>2026-08-28T17:54:41Z</time>
  <course>246.0</course>
  <speed>7.54</speed>
  <fix>3d</fix>
</trkpt>
<trkpt lat="40.0713528" lon="-105.2298557">
  <ele>1582.96</ele>
  <time>2026-08-28T17:54:41Z</time>
  <course>247.0</course>
  <speed>8.959045708109764</speed>
  <fix>3d</fix>
</trkpt>
<trkpt lat="40.0713592" lon="-105.2298352">
  <ele>1583.0</ele>
  <time>2026-08-28T17:54:41Z</time>
  <course>246.0</course>
  <speed>7.54</speed>
  <fix>3d</fix>
</trkpt>
<trkpt lat="40.0713494" lon="-105.2298658">
  <ele>1582.96</ele>
  <time>2026-08-28T17:54:41Z</time>
  <course>246.93</course>
  <speed>9.53157384695728</speed>
  <fix>3d</fix>
</trkpt>
<trkpt lat="40.0713533" lon="-105.2298528">
  <ele>1583.0</ele>
  <time>2026-08-28T17:54:41Z</time>
  <course>246.0</course>
  <speed>8.73</speed>
  <fix>3d</fix>
</trkpt>
<trkpt lat="40.0713457" lon="-105.2298765">
  <ele>1582.96</ele>
  <time>2026-08-28T17:54:41Z</time>
  <course>246.86</course>
  <speed>10.0726213072864</speed>
  <fix>3d</fix>
</trkpt>
<trkpt lat="40.0713533" lon="-105.2298528">
  <ele>1583.0</ele>
  <time>2026-08-28T17:54:41Z</time>
  <course>246.0</course>
  <speed>8.73</speed>
  <fix>3d</fix>
</trkpt>
<trkpt lat="40.0713419" lon="-105.2298876">
  <ele>1582.96</ele>
  <time>2026-08-28T17:54:41Z</time>
  <course>246.81</course>
  <speed>10.57820400635193</speed>
  <fix>3d</fix>
</trkpt>
<trkpt lat="40.0713465" lon="-105.2298726">
  <ele>1583.0</ele>
  <time>2026-08-28T17:54:41Z</time>
  <course>246.0</course>
  <speed>9.8</speed>
  <fix>3d</fix>
</trkpt>
<trkpt lat="40.0713379" lon="-105.2298993">
  <ele>1582.95</ele>
  <time>2026-08-28T17:54:41Z</time>
  <course>246.77</course>
  <speed>11.065464292111741</speed>
  <fix>3d</fix>
</trkpt>
<trkpt lat="40.0713465" lon="-105.2298726">
  <ele>1583.0</ele>
  <time>2026-08-28T17:54:41Z</time>
  <course>246.0</course>
  <speed>9.8</speed>
  <fix>3d</fix>
</trkpt>
<trkpt lat="40.0713337" lon="-105.2299115">
  <ele>1582.95</ele>
  <time>2026-08-28T17:54:41Z</time>
  <course>246.73</course>
  <speed>11.517243593846576</speed>
  <fix>3d</fix>
</trkpt>
<trkpt lat="40.0713389" lon="-105.2298947">
  <ele>1583.0</ele>
  <time>2026-08-28T17:54:41Z</time>
  <course>246.0</course>
  <speed>10.77</speed>
  <fix>3d</fix>
</trkpt>
<trkpt lat="40.0713294" lon="-105.229924">
  <ele>1582.95</ele>
  <time>2026-08-28T17:54:41Z</time>
  <course>246.7</course>
  <speed>11.950719643603058</speed>
  <fix>3d</fix>
</trkpt>
<trkpt lat="40.0713389" lon="-105.2298947">
  <ele>1583.0</ele>
  <time>2026-08-28T17:54:41Z</time>
  <course>246.0</course>
  <speed>10.77</speed>
  <fix>3d</fix>
</trkpt>
<trkpt lat="40.0713249" lon="-105.229937">
  <ele>1582.95</ele>
  <time>2026-08-28T17:54:41Z</time>
  <course>246.68</course>
  <speed>12.367004487748844</speed>
  <fix>3d</fix>
</trkpt>
<trkpt lat="40.0713389" lon="-105.2298947">
  <ele>1583.0</ele>
  <time>2026-08-28T17:54:41Z</time>
  <course>246.0</course>
  <speed>10.77</speed>
  <fix>3d</fix>
</trkpt>
<trkpt lat="40.0713203" lon="-105.2299503">
  <ele>1582.95</ele>
  <time>2026-08-28T17:54:41Z</time>
  <course>246.67</course>
  <speed>12.74265278503656</speed>
  <fix>3d</fix>
</trkpt>
<trkpt lat="40.0713308" lon="-105.2299188">
  <ele>1583.0</ele>
  <time>2026-08-28T17:54:41Z</time>
  <course>246.0</course>
  <speed>11.65</speed>
  <fix>3d</fix>
</trkpt>
<trkpt lat="40.0713157" lon="-105.229964">
  <ele>1582.95</ele>
  <time>2026-08-28T17:54:41Z</time>
  <course>246.66</course>
  <speed>13.095972663380143</speed>
  <fix>3d</fix>
</trkpt>
<trkpt lat="40.0713308" lon="-105.2299188">
  <ele>1583.0</ele>
  <time>2026-08-28T17:54:41Z</time>
  <course>246.0</course>
  <speed>11.65</speed>
  <fix>3d</fix>
</trkpt>
<trkpt lat="40.0713109" lon="-105.2299779">
  <ele>1582.95</ele>
  <time>2026-08-28T17:54:41Z</time>
  <course>246.65</course>
  <speed>13.426961681631479</speed>
  <fix>3d</fix>
</trkpt>
<trkpt lat="40.0713219" lon="-105.2299447">
  <ele>1583.0</ele>
  <time>2026-08-28T17:54:41Z</time>
  <course>246.0</course>
  <speed>12.44</speed>
  <fix>3d</fix>
</trkpt>
<trkpt lat="40.071306" lon="-105.2299921">
  <ele>1582.95</ele>
  <time>2026-08-28T17:54:41Z</time>
  <course>246.65</course>
  <speed>13.744762638910865</speed>
  <fix>3d</fix>
</trkpt>
<trkpt lat="40.0713219" lon="-105.2299447">
  <ele>1583.0</ele>
  <time>2026-08-28T17:54:41Z</time>
  <course>246.0</course>
  <speed>12.44</speed>
  <fix>3d</fix>
</trkpt>
<trkpt lat="40.071301" lon="-105.2300067">
  <ele>1582.95</ele>
  <time>2026-08-28T17:54:41Z</time>
  <course>246.64</course>
  <speed>14.040227918377964</speed>
  <fix>3d</fix>
</trkpt>
<trkpt lat="40.0713126" lon="-105.2299722">
  <ele>1583.0</ele>
  <time>2026-08-28T17:54:41Z</time>
  <course>246.0</course>
  <speed>13.16</speed>
  <fix>3d</fix>
</trkpt>
<trkpt lat="40.0712959" lon="-105.2300216">
  <ele>1582.95</ele>
  <time>2026-08-28T17:54:41Z</time>
  <course>246.64</course>
  <speed>14.326548781894402</speed>
  <fix>3d</fix>
</trkpt>
<trkpt lat="40.0713126" lon="-105.2299722">
  <ele>1583.0</ele>
  <time>2026-08-28T17:54:41Z</time>
  <course>246.0</course>
  <speed>13.16</speed>
  <fix>3d</fix>
</trkpt>
<trkpt lat="40.0712907" lon="-105.2300369">
  <ele>1582.96</ele>
  <time>2026-08-28T17:54:41Z</time>
  <course>246.64</course>
  <speed>14.603728975847229</speed>
  <fix>3d</fix>
</trkpt>
<trkpt lat="40.0713027" lon="-105.2300012">
  <ele>1583.0</ele>
  <time>2026-08-28T17:54:41Z</time>
  <course>246.0</course>
  <speed>13.81</speed>
  <fix>3d</fix>
</trkpt>
<trkpt lat="40.0712854" lon="-105.2300524">
  <ele>1582.96</ele>
  <time>2026-08-28T17:54:41Z</time>
  <course>246.64</course>
  <speed>14.854521197265163</speed>
  <fix>3d</fix>
</trkpt>
<trkpt lat="40.0712924" lon="-105.2300314">
  <ele>1583.0</ele>
  <time>2026-08-28T17:54:41Z</time>
  <course>246.0</course>
  <speed>14.4</speed>
  <fix>3d</fix>
</trkpt>
<trkpt lat="40.07128" lon="-105.2300683">
  <ele>1582.97</ele>
  <time>2026-08-28T17:54:41Z</time>
  <course>246.64</course>
  <speed>15.10936795501387</speed>
  <fix>3d</fix>
</trkpt>
<trkpt lat="40.0712924" lon="-105.2300314">
  <ele>1583.0</ele>
  <time>2026-08-28T17:54:41Z</time>
  <course>246.0</course>
  <speed>14.4</speed>
  <fix>3d</fix>
</trkpt>
<trkpt lat="40.0712745" lon="-105.2300844">
  <ele>1582.98</ele>
  <time>2026-08-28T17:54:41Z</time>
  <course>246.64</course>
  <speed>15.351019510117235</speed>
  <fix>3d</fix>
</trkpt>
<trkpt lat="40.0712817" lon="-105.2300628">
  <ele>1583.0</ele>
  <time>2026-08-28T17:54:41Z</time>
  <course>246.0</course>
  <speed>14.93</speed>
  <fix>3d</fix>
</trkpt>
<trkpt lat="40.0712688" lon="-105.2301009">
  <ele>1582.98</ele>
  <time>2026-08-28T17:54:41Z</time>
  <course>246.64</course>
  <speed>15.583532975548259</speed>
  <fix>3d</fix>
</trkpt>
<trkpt lat="40.0712817" lon="-105.2300628">
  <ele>1583.0</ele>
  <time>2026-08-28T17:54:41Z</time>
  <course>246.0</course>
  <speed>14.93</speed>
  <fix>3d</fix>
</trkpt>
<trkpt lat="40.0712631" lon="-105.2301177">
  <ele>1582.99</ele>
  <time>2026-08-28T17:54:41Z</time>
  <course>246.64</course>
  <speed>15.802847844613325</speed>
  <fix>3d</fix>
</trkpt>
<trkpt lat="40.0712706" lon="-105.2300954">
  <ele>1583.0</ele>
  <time>2026-08-28T17:54:41Z</time>
  <course>246.0</course>
  <speed>15.41</speed>
  <fix>3d</fix>
</trkpt>
<trkpt lat="40.0712572" lon="-105.2301348">
  <ele>1582.99</ele>
  <time>2026-08-28T17:54:41Z</time>
  <course>246.65</course>
  <speed>16.013025947646497</speed>
  <fix>3d</fix>
</trkpt>
<trkpt lat="40.0712706" lon="-105.2300954">
  <ele>1583.0</ele>
  <time>2026-08-28T17:54:41Z</time>
  <course>246.0</course>
  <speed>15.41</speed>
  <fix>3d</fix>
</trkpt>
<trkpt lat="40.0712513" lon="-105.2301523">
  <ele>1582.99</ele>
  <time>2026-08-28T17:54:41Z</time>
  <course>246.65</course>
  <speed>16.219139927875336</speed>
  <fix>3d</fix>
</trkpt>
<trkpt lat="40.0712592" lon="-105.2301289">
  <ele>1583.0</ele>
  <time>2026-08-28T17:54:41Z</time>
  <course>246.0</course>
  <speed>15.85</speed>
  <fix>3d</fix>
</trkpt>
<trkpt lat="40.0712453" lon="-105.2301698">
  <ele>1582.99</ele>
  <time>2026-08-28T17:54:41Z</time>
  <course>246.65</course>
  <speed>16.41611708047917</speed>
  <fix>3d</fix>
</trkpt>
<trkpt lat="40.0712592" lon="-105.2301289">
  <ele>1583.0</ele>
  <time>2026-08-28T17:54:41Z</time>
  <course>246.0</course>
  <speed>15.85</speed>
  <fix>3d</fix>
</trkpt>
<trkpt lat="40.0712393" lon="-105.2301875">
  <ele>1582.99</ele>
  <time>2026-08-28T17:54:41Z</time>
  <course>246.66</course>
  <speed>16.594821481414016</speed>
  <fix>3d</fix>
</trkpt>
<trkpt lat="40.0712474" lon="-105.2301634">
  <ele>1583.0</ele>
  <time>2026-08-28T17:54:41Z</time>
  <course>246.0</course>
  <speed>16.24</speed>
  <fix>3d</fix>
</trkpt>
<trkpt lat="40.0712332" lon="-105.2302054">
  <ele>1582.99</ele>
  <time>2026-08-28T17:54:41Z</time>
  <course>246.66</course>
  <speed>16.76946033717245</speed>
  <fix>3d</fix>
</trkpt>
<trkpt lat="40.0712474" lon="-105.2301634">
  <ele>1583.0</ele>
  <time>2026-08-28T17:54:41Z</time>
  <course>246.0</course>
  <speed>16.24</speed>
  <fix>3d</fix>
</trkpt>
<trkpt lat="40.071227" lon="-105.2302235">
  <ele>1582.99</ele>
  <time>2026-08-28T17:54:41Z</time>
  <course>246.67</course>
  <speed>16.93496383226135</speed>
  <fix>3d</fix>
</trkpt>
<trkpt lat="40.0712354" lon="-105.2301986">
  <ele>1583.0</ele>
  <time>2026-08-28T17:54:41Z</time>
  <course>246.0</course>
  <speed>16.6</speed>
  <fix>3d</fix>
</trkpt>
<trkpt lat="40.0712208" lon="-105.2302417">
  <ele>1582.99</ele>
  <time>2026-08-28T17:54:41Z</time>
  <course>246.67</course>
  <speed>17.087264263187365</speed>
  <fix>3d</fix>
</trkpt>
<trkpt lat="40.0712354" lon="-105.2301986">
  <ele>1583.0</ele>
  <time>2026-08-28T17:54:41Z</time>
  <course>246.0</course>
  <speed>16.6</speed>
  <fix>3d</fix>
</trkpt>
<trkpt lat="40.0712145" lon="-105.2302601">
  <ele>1582.99</ele>
  <time>2026-08-28T17:54:41Z</time>
  <course>246.68</course>
  <speed>17.23042947810646</speed>
  <fix>3d</fix>
</trkpt>
<trkpt lat="40.0712232" lon="-105.2302346">
  <ele>1583.0</ele>
  <time>2026-08-28T17:54:41Z</time>
  <course>246.0</course>
  <speed>16.92</speed>
  <fix>3d</fix>
</trkpt>
<trkpt lat="40.0712082" lon="-105.2302786">
  <ele>1582.99</ele>
  <time>2026-08-28T17:54:41Z</time>
  <course>246.68</course>
  <speed>17.373594907214798</speed>
  <fix>3d</fix>
</trkpt>
<trkpt lat="40.0712232" lon="-105.2302346">
  <ele>1583.0</ele>
  <time>2026-08-28T17:54:41Z</time>
  <course>246.0</course>
  <speed>16.92</speed>
  <fix>3d</fix>
</trkpt>
<trkpt lat="40.0712018" lon="-105.2302973">
  <ele>1583.0</ele>
  <time>2026-08-28T17:54:41Z</time>
  <course>246.69</course>
  <speed>17.503556781408744</speed>
  <fix>3d</fix>
</trkpt>
<trkpt lat="40.0712232" lon="-105.2302346">
  <ele>1583.0</ele>
  <time>2026-08-28T17:54:41Z</time>
  <course>246.0</course>
  <speed>16.92</speed>
  <fix>3d</fix>
</trkpt>
<trkpt lat="40.0711955" lon="-105.2303159">
  <ele>1583.0</ele>
  <time>2026-08-28T17:54:41Z</time>
  <course>246.7</course>
  <speed>17.61524907572981</speed>
  <fix>3d</fix>
</trkpt>
<trkpt lat="40.0712106" lon="-105.2302713">
  <ele>1583.0</ele>
  <time>2026-08-28T17:54:41Z</time>
  <course>246.0</course>
  <speed>17.22</speed>
  <fix>3d</fix>
</trkpt>
<trkpt lat="40.0711891" lon="-105.2303346">
  <ele>1583.0</ele>
  <time>2026-08-28T17:54:41Z</time>
  <course>246.7</course>
  <speed>17.726942770822046</speed>
  <fix>3d</fix>
</trkpt>
<trkpt lat="40.0712106" lon="-105.2302713">
  <ele>1583.0</ele>
  <time>2026-08-28T17:54:41Z</time>
  <course>246.0</course>
  <speed>17.22</speed>
  <fix>3d</fix>
</trkpt>
<trkpt lat="40.0711827" lon="-105.2303534">
  <ele>1583.0</ele>
  <time>2026-08-28T17:54:41Z</time>
  <course>246.71</course>
  <speed>17.82543127108009</speed>
  <fix>3d</fix>
</trkpt>
<trkpt lat="40.0711979" lon="-105.2303086">
  <ele>1583.0</ele>
  <time>2026-08-28T17:54:41Z</time>
  <course>246.0</course>
  <speed>17.48</speed>
  <fix>3d</fix>
</trkpt>
<trkpt lat="40.0711762" lon="-105.2303723">
  <ele>1583.0</ele>
  <time>2026-08-28T17:54:41Z</time>
  <course>246.71</course>
  <speed>17.92391977219269</speed>
  <fix>3d</fix>
</trkpt>
<trkpt lat="40.0711979" lon="-105.2303086">
  <ele>1583.0</ele>
  <time>2026-08-28T17:54:41Z</time>
  <course>246.0</course>
  <speed>17.48</speed>
  <fix>3d</fix>
</trkpt>
<trkpt lat="40.0711698" lon="-105.2303912">
  <ele>1583.0</ele>
  <time>2026-08-28T17:54:41Z</time>
  <course>246.72</course>
  <speed>18.009203202807168</speed>
  <fix>3d</fix>
</trkpt>
<trkpt lat="40.0711851" lon="-105.2303464">
  <ele>1583.0</ele>
  <time>2026-08-28T17:54:41Z</time>
  <course>246.0</course>
  <speed>17.72</speed>
  <fix>3d</fix>
</trkpt>
<trkpt lat="40.0711632" lon="-105.2304105">
  <ele>1583.0</ele>
  <time>2026-08-28T17:54:41Z</time>
  <course>246.72</course>
  <speed>18.098557953605034</speed>
  <fix>3d</fix>
</trkpt>
<trkpt lat="40.0711721" lon="-105.2303845">
  <ele>1583.0</ele>
  <time>2026-08-28T17:54:41Z</time>
  <course>246.0</course>
  <speed>17.94</speed>
  <fix>3d</fix>
</trkpt>
<trkpt lat="40.0711566" lon="-105.2304298">
  <ele>1583.0</ele>
  <time>2026-08-28T17:54:41Z</time>
  <course>246.73</course>
  <speed>18.18384172830373</speed>
  <fix>3d</fix>
</trkpt>
<trkpt lat="40.0711721" lon="-105.2303845">
  <ele>1583.0</ele>
  <time>2026-08-28T17:54:41Z</time>
  <course>246.0</course>
  <speed>17.94</speed>
  <fix>3d</fix>
</trkpt>
<trkpt lat="40.07115" lon="-105.2304493">
  <ele>1583.0</ele>
  <time>2026-08-28T17:54:41Z</time>
  <course>246.73</course>
  <speed>18.250857514100538</speed>
  <fix>3d</fix>
</trkpt>
<trkpt lat="40.0711589" lon="-105.2304232">
  <ele>1583.0</ele>
  <time>2026-08-28T17:54:41Z</time>
  <course>246.0</course>
  <speed>18.13</speed>
  <fix>3d</fix>
</trkpt>
<trkpt lat="40.0711434" lon="-105.2304687">
  <ele>1583.0</ele>
  <time>2026-08-28T17:54:41Z</time>
  <course>246.74</course>
  <speed>18.241724150967748</speed>
  <fix>3d</fix>
</trkpt>
<trkpt lat="40.0711589" lon="-105.2304232">
  <ele>1583.0</ele>
  <time>2026-08-28T17:54:41Z</time>
  <course>246.0</course>
  <speed>18.13</speed>
  <fix>3d</fix>
</trkpt>
<trkpt lat="40.0711367" lon="-105.2304882">
  <ele>1583.01</ele>
  <time>2026-08-28T17:54:41Z</time>
  <course>246.75</course>
  <speed>18.13410323120501</speed>
  <fix>3d</fix>
</trkpt>
<trkpt lat="40.0711456" lon="-105.2304622">
  <ele>1583.0</ele>
  <time>2026-08-28T17:54:41Z</time>
  <course>246.0</course>
  <speed>18.15</speed>
  <fix>3d</fix>
</trkpt>
<trkpt lat="40.0711301" lon="-105.2305076">
  <ele>1583.01</ele>
  <time>2026-08-28T17:54:41Z</time>
  <course>246.75</course>
  <speed>17.927994868361605</speed>
  <fix>3d</fix>
</trkpt>
<trkpt lat="40.0711456" lon="-105.2304622">
  <ele>1583.0</ele>
  <time>2026-08-28T17:54:41Z</time>
  <course>246.0</course>
  <speed>18.15</speed>
  <fix>3d</fix>
</trkpt>
<trkpt lat="40.0711236" lon="-105.2305267">
  <ele>1583.02</ele>
  <time>2026-08-28T17:54:41Z</time>
  <course>246.75</course>
  <speed>17.636609651517496</speed>
  <fix>3d</fix>
</trkpt>
<trkpt lat="40.0711325" lon="-105.2305009">
  <ele>1583.0</ele>
  <time>2026-08-28T17:54:41Z</time>
  <course>246.0</course>
  <speed>17.85</speed>
  <fix>3d</fix>
</trkpt>
<trkpt lat="40.0711171" lon="-105.2305456">
  <ele>1583.02</ele>
  <time>2026-08-28T17:54:41Z</time>
  <course>246.76</course>
  <speed>17.255868566954256</speed>
  <fix>3d</fix>
</trkpt>
<trkpt lat="40.0711325" lon="-105.2305009">
  <ele>1583.0</ele>
  <time>2026-08-28T17:54:41Z</time>
  <course>246.0</course>
  <speed>17.85</speed>
  <fix>3d</fix>
</trkpt>
<trkpt lat="40.0711109" lon="-105.2305638">
  <ele>1583.02</ele>
  <time>2026-08-28T17:54:41Z</time>
  <course>246.76</course>
  <speed>16.798982112020955</speed>
  <fix>3d</fix>
</trkpt>
<trkpt lat="40.0711196" lon="-105.2305385">
  <ele>1583.0</ele>
  <time>2026-08-28T17:54:41Z</time>
  <course>246.0</course>
  <speed>17.2</speed>
  <fix>3d</fix>
</trkpt>
<trkpt lat="40.0711049" lon="-105.2305815">
  <ele>1583.02</ele>
  <time>2026-08-28T17:54:41Z</time>
  <course>246.75</course>
  <speed>16.261860287187318</speed>
  <fix>3d</fix>
</trkpt>
<trkpt lat="40.0711196" lon="-105.2305385">
  <ele>1583.0</ele>
  <time>2026-08-28T17:54:41Z</time>
  <course>246.0</course>
  <speed>17.2</speed>
  <fix>3d</fix>
</trkpt>
<trkpt lat="40.071099" lon="-105.2305986">
  <ele>1583.02</ele>
  <time>2026-08-28T17:54:41Z</time>
  <course>246.75</course>
  <speed>15.661807047719622</speed>
  <fix>3d</fix>
</trkpt>
<trkpt lat="40.0711074" lon="-105.2305744">
  <ele>1583.0</ele>
  <time>2026-08-28T17:54:41Z</time>
  <course>246.0</course>
  <speed>16.22</speed>
  <fix>3d</fix>
</trkpt>
<trkpt lat="40.0710934" lon="-105.2306149">
  <ele>1583.03</ele>
  <time>2026-08-28T17:54:41Z</time>
  <course>246.73</course>
  <speed>14.976488239904574</speed>
  <fix>3d</fix>
</trkpt>
<trkpt lat="40.0711074" lon="-105.2305744">
  <ele>1583.0</ele>
  <time>2026-08-28T17:54:41Z</time>
  <course>246.0</course>
  <speed>16.22</speed>
  <fix>3d</fix>
</trkpt>
<trkpt lat="40.0710881" lon="-105.2306305">
  <ele>1583.03</ele>
  <time>2026-08-28T17:54:41Z</time>
  <course>246.72</course>
  <speed>14.246494305617787</speed>
  <fix>3d</fix>
</trkpt>
<trkpt lat="40.071096" lon="-105.2306079">
  <ele>1583.0</ele>
  <time>2026-08-28T17:54:41Z</time>
  <course>246.0</course>
  <speed>14.97</speed>
  <fix>3d</fix>
</trkpt>
<trkpt lat="40.0710831" lon="-105.2306452">
  <ele>1583.03</ele>
  <time>2026-08-28T17:54:41Z</time>
  <course>246.7</course>
  <speed>13.534740485136759</speed>
  <fix>3d</fix>
</trkpt>
<trkpt lat="40.071096" lon="-105.2306079">
  <ele>1583.0</ele>
  <time>2026-08-28T17:54:41Z</time>
  <course>246.0</course>
  <speed>14.97</speed>
  <fix>3d</fix>
</trkpt>
<trkpt lat="40.0710783" lon="-105.2306592">
  <ele>1583.03</ele>
  <time>2026-08-28T17:54:41Z</time>
  <course>246.68</course>
  <speed>12.85855746186173</speed>
  <fix>3d</fix>
</trkpt>
<trkpt lat="40.071096" lon="-105.2306079">
  <ele>1583.0</ele>
  <time>2026-08-28T17:54:41Z</time>
  <course>246.0</course>
  <speed>14.97</speed>
  <fix>3d</fix>
</trkpt>
<trkpt lat="40.0710738" lon="-105.2306724">
  <ele>1583.03</ele>
  <time>2026-08-28T17:54:41Z</time>
  <course>246.66</course>
  <speed>12.204724495046989</speed>
  <fix>3d</fix>
</trkpt>
<trkpt lat="40.0710855" lon="-105.2306385">
  <ele>1583.0</ele>
  <time>2026-08-28T17:54:41Z</time>
  <course>246.0</course>
  <speed>13.59</speed>
  <fix>3d</fix>
</trkpt>
<trkpt lat="40.0710695" lon="-105.2306849">
  <ele>1583.02</ele>
  <time>2026-08-28T17:54:41Z</time>
  <course>246.64</course>
  <speed>11.591462375386463</speed>
  <fix>3d</fix>
</trkpt>
<trkpt lat="40.0710855" lon="-105.2306385">
  <ele>1583.0</ele>
  <time>2026-08-28T17:54:41Z</time>
  <course>246.0</course>
  <speed>13.59</speed>
  <fix>3d</fix>
</trkpt>
<trkpt lat="40.0710655" lon="-105.2306967">
  <ele>1583.02</ele>
  <time>2026-08-28T17:54:41Z</time>
  <course>246.61</course>
  <speed>10.996422145407115</speed>
  <fix>3d</fix>
</trkpt>
<trkpt lat="40.0710761" lon="-105.2306663">
  <ele>1583.0</ele>
  <time>2026-08-28T17:54:41Z</time>
  <course>246.0</course>
  <speed>12.29</speed>
  <fix>3d</fix>
</trkpt>
<trkpt lat="40.0710616" lon="-105.2307079">
  <ele>1583.02</ele>
  <time>2026-08-28T17:54:41Z</time>
  <course>246.59</course>
  <speed>10.43695836918017</speed>
  <fix>3d</fix>
</trkpt>
<trkpt lat="40.0710761" lon="-105.2306663">
  <ele>1583.0</ele>
  <time>2026-08-28T17:54:41Z</time>
  <course>246.0</course>
  <speed>12.29</speed>
  <fix>3d</fix>
</trkpt>
<trkpt lat="40.071058" lon="-105.2307185">
  <ele>1583.02</ele>
  <time>2026-08-28T17:54:41Z</time>
  <course>246.57</course>
  <speed>9.899838382519182</speed>
  <fix>3d</fix>
</trkpt>
<trkpt lat="40.0710675" lon="-105.2306914">
  <ele>1583.0</ele>
  <time>2026-08-28T17:54:41Z</time>
  <course>246.0</course>
  <speed>11.12</speed>
  <fix>3d</fix>
</trkpt>
<trkpt lat="40.0710545" lon="-105.2307287">
  <ele>1583.02</ele>
  <time>2026-08-28T17:54:41Z</time>
  <course>246.55</course>
  <speed>9.394173726305045</speed>
  <fix>3d</fix>
</trkpt>
<trkpt lat="40.0710675" lon="-105.2306914">
  <ele>1583.0</ele>
  <time>2026-08-28T17:54:41Z</time>
  <course>246.0</course>
  <speed>11.12</speed>
  <fix>3d</fix>
</trkpt>
<trkpt lat="40.0710513" lon="-105.2307384">
  <ele>1583.01</ele>
  <time>2026-08-28T17:54:41Z</time>
  <course>246.54</course>
  <speed>8.910852933361655</speed>
  <fix>3d</fix>
</trkpt>
<trkpt lat="40.0710598" lon="-105.2307141">
  <ele>1583.0</ele>
  <time>2026-08-28T17:54:41Z</time>
  <course>246.0</course>
  <speed>10.07</speed>
  <fix>3d</fix>
</trkpt>
<trkpt lat="40.0710482" lon="-105.2307475">
  <ele>1583.01</ele>
  <time>2026-08-28T17:54:41Z</time>
  <course>246.53</course>
  <speed>8.44987573873131</speed>
  <fix>3d</fix>
</trkpt>
<trkpt lat="40.0710528" lon="-105.2307347">
  <ele>1583.0</ele>
  <time>2026-08-28T17:54:41Z</time>
  <course>246.0</course>
  <speed>9.11</speed>
  <fix>3d</fix>
</trkpt>
<trkpt lat="40.0710452" lon="-105.2307562">
  <ele>1583.01</ele>
  <time>2026-08-28T17:54:41Z</time>
  <course>246.51</course>
  <speed>8.020355353723424</speed>
  <fix>3d</fix>
</trkpt>
<trkpt lat="40.0710528" lon="-105.2307347">
  <ele>1583.0</ele>
  <time>2026-08-28T17:54:41Z</time>
  <course>246.0</course>
  <speed>9.11</speed>
  <fix>3d</fix>
</trkpt>
<trkpt lat="40.0710424" lon="-105.2307645">
  <ele>1583.0</ele>
  <time>2026-08-28T17:54:41Z</time>
  <course>246.51</course>
  <speed>7.6131793621324855</speed>
  <fix>3d</fix>
</trkpt>
<trkpt lat="40.0710464" lon="-105.2307533">
  <ele>1583.0</ele>
  <time>2026-08-28T17:54:41Z</time>
  <course>246.0</course>
  <speed>8.24</speed>
  <fix>3d</fix>
</trkpt>
<trkpt lat="40.0710397" lon="-105.2307724">
  <ele>1583.0</ele>
  <time>2026-08-28T17:54:41Z</time>
  <course>246.5</course>
  <speed>7.219231261013877</speed>
  <fix>3d</fix>
</trkpt>
<trkpt lat="40.0710464" lon="-105.2307533">
  <ele>1583.0</ele>
  <time>2026-08-28T17:54:41Z</time>
  <course>246.0</course>
  <speed>8.24</speed>
  <fix>3d</fix>
</trkpt>
<trkpt lat="40.0710371" lon="-105.23078">
  <ele>1582.99</ele>
  <time>2026-08-28T17:54:41Z</time>
  <course>246.49</course>
  <speed>6.847627326307997</speed>
  <fix>3d</fix>
</trkpt>
<trkpt lat="40.0710407" lon="-105.2307701">
  <ele>1583.0</ele>
  <time>2026-08-28T17:54:41Z</time>
  <course>246.0</course>
  <speed>7.46</speed>
  <fix>3d</fix>
</trkpt>
<trkpt lat="40.0710347" lon="-105.2307872">
  <ele>1582.99</ele>
  <time>2026-08-28T17:54:41Z</time>
  <course>246.49</course>
  <speed>6.503368358012639</speed>
  <fix>3d</fix>
</trkpt>
<trkpt lat="40.0710407" lon="-105.2307701">
  <ele>1583.0</ele>
  <time>2026-08-28T17:54:41Z</time>
  <course>246.0</course>
  <speed>7.46</speed>
  <fix>3d</fix>
</trkpt>
<trkpt lat="40.0710324" lon="-105.2307941">
  <ele>1582.99</ele>
  <time>2026-08-28T17:54:41Z</time>
  <course>246.49</course>
  <speed>6.167333297301193</speed>
  <fix>3d</fix>
</trkpt>
<trkpt lat="40.0710355" lon="-105.2307853">
  <ele>1583.0</ele>
  <time>2026-08-28T17:54:41Z</time>
  <course>246.0</course>
  <speed>6.75</speed>
  <fix>3d</fix>
</trkpt>
<trkpt lat="40.0710302" lon="-105.2308006">
  <ele>1582.99</ele>
  <time>2026-08-28T17:54:41Z</time>
  <course>246.49</course>
  <speed>5.845417008221055</speed>
  <fix>3d</fix>
</trkpt>
<trkpt lat="40.0710355" lon="-105.2307853">
  <ele>1583.0</ele>
  <time>2026-08-28T17:54:41Z</time>
  <course>246.0</course>
  <speed>6.75</speed>
  <fix>3d</fix>
</trkpt>
<trkpt lat="40.0710281" lon="-105.2308068">
  <ele>1582.99</ele>
  <time>2026-08-28T17:54:41Z</time>
  <course>246.49</course>
  <speed>5.549954954772155</speed>
  <fix>3d</fix>
</trkpt>
<trkpt lat="40.0710308" lon="-105.2307991">
  <ele>1583.0</ele>
  <time>2026-08-28T17:54:41Z</time>
  <course>246.0</course>
  <speed>6.1</speed>
  <fix>3d</fix>
</trkpt>
<trkpt lat="40.071026" lon="-105.2308127">
  <ele>1582.99</ele>
  <time>2026-08-28T17:54:41Z</time>
  <course>246.49</course>
  <speed>5.2636109278707135</speed>
  <fix>3d</fix>
</trkpt>
<trkpt lat="40.0710308" lon="-105.2307991">
  <ele>1583.0</ele>
  <time>2026-08-28T17:54:41Z</time>
  <course>246.0</course>
  <speed>6.1</speed>
  <fix>3d</fix>
</trkpt>
<trkpt lat="40.0710241" lon="-105.2308183">
  <ele>1582.98</ele>
  <time>2026-08-28T17:54:41Z</time>
  <course>246.49</course>
  <speed>4.990490957811666</speed>
  <fix>3d</fix>
</trkpt>
<trkpt lat="40.0710266" lon="-105.2308115">
  <ele>1583.0</ele>
  <time>2026-08-28T17:54:41Z</time>
  <course>246.0</course>
  <speed>5.52</speed>
  <fix>3d</fix>
</trkpt>
<trkpt lat="40.0710223" lon="-105.2308237">
  <ele>1582.98</ele>
  <time>2026-08-28T17:54:41Z</time>
  <course>246.49</course>
  <speed>4.735609781221422</speed>
  <fix>3d</fix>
</trkpt>
<trkpt lat="40.0710266" lon="-105.2308115">
  <ele>1583.0</ele>
  <time>2026-08-28T17:54:41Z</time>
  <course>246.0</course>
  <speed>5.52</speed>
  <fix>3d</fix>
</trkpt>
<trkpt lat="40.0710206" lon="-105.2308287">
  <ele>1582.98</ele>
  <time>2026-08-28T17:54:41Z</time>
  <course>246.49</course>
  <speed>4.484829985629333</speed>
  <fix>3d</fix>
</trkpt>
<trkpt lat="40.0710227" lon="-105.2308228">
  <ele>1583.0</ele>
  <time>2026-08-28T17:54:41Z</time>
  <course>246.0</course>
  <speed>5.0</speed>
  <fix>3d</fix>
</trkpt>
<trkpt lat="40.071019" lon="-105.2308336">
  <ele>1582.98</ele>
  <time>2026-08-28T17:54:41Z</time>
  <course>246.5</course>
  <speed>4.256395188419421</speed>
  <fix>3d</fix>
</trkpt>
<trkpt lat="40.0710227" lon="-105.2308228">
  <ele>1583.0</ele>
  <time>2026-08-28T17:54:41Z</time>
  <course>246.0</course>
  <speed>5.0</speed>
  <fix>3d</fix>
</trkpt>
<trkpt lat="40.0710174" lon="-105.2308381">
  <ele>1582.98</ele>
  <time>2026-08-28T17:54:41Z</time>
  <course>246.5</course>
  <speed>4.032976568243361</speed>
  <fix>3d</fix>
</trkpt>
<trkpt lat="40.0710227" lon="-105.2308228">
  <ele>1583.0</ele>
  <time>2026-08-28T17:54:41Z</time>
  <course>246.0</course>
  <speed>5.0</speed>
  <fix>3d</fix>
</trkpt>
<trkpt lat="40.071016" lon="-105.2308425">
  <ele>1582.98</ele>
  <time>2026-08-28T17:54:41Z</time>
  <course>246.5</course>
  <speed>3.8268786236304906</speed>
  <fix>3d</fix>
</trkpt>
<trkpt lat="40.0710193" lon="-105.230833">
  <ele>1583.0</ele>
  <time>2026-08-28T17:54:41Z</time>
  <course>246.0</course>
  <speed>4.52</speed>
  <fix>3d</fix>
</trkpt>
<trkpt lat="40.0710146" lon="-105.2308466">
  <ele>1582.99</ele>
  <time>2026-08-28T17:54:41Z</time>
  <course>246.51</course>
  <speed>3.6258102542742083</speed>
  <fix>3d</fix>
</trkpt>
<trkpt lat="40.0710193" lon="-105.230833">
  <ele>1583.0</ele>
  <time>2026-08-28T17:54:41Z</time>
  <course>246.0</course>
  <speed>4.52</speed>
  <fix>3d</fix>
</trkpt>
<trkpt lat="40.0710132" lon="-105.2308505">
  <ele>1582.99</ele>
  <time>2026-08-28T17:54:41Z</time>
  <course>246.51</course>
  <speed>3.437964514069335</speed>
  <fix>3d</fix>
</trkpt>
<trkpt lat="40.0710162" lon="-105.2308423">
  <ele>1583.0</ele>
  <time>2026-08-28T17:54:41Z</time>
  <course>246.0</course>
  <speed>4.09</speed>
  <fix>3d</fix>
</trkpt>
<trkpt lat="40.071012" lon="-105.2308542">
  <ele>1582.99</ele>
  <time>2026-08-28T17:54:41Z</time>
  <course>246.52</course>
  <speed>3.263326523656497</speed>
  <fix>3d</fix>
</trkpt>
<trkpt lat="40.0710162" lon="-105.2308423">
  <ele>1583.0</ele>
  <time>2026-08-28T17:54:41Z</time>
  <course>246.0</course>
  <speed>4.09</speed>
  <fix>3d</fix>
</trkpt>
<trkpt lat="40.0710108" lon="-105.2308578">
  <ele>1582.99</ele>
  <time>2026-08-28T17:54:41Z</time>
  <course>246.52</course>
  <speed>3.0886890422961</speed>
  <fix>3d</fix>
</trkpt>
<trkpt lat="40.0710133" lon="-105.2308506">
  <ele>1583.0</ele>
  <time>2026-08-28T17:54:41Z</time>
  <course>246.0</course>
  <speed>3.7</speed>
  <fix>3d</fix>
</trkpt>
<trkpt lat="40.0710096" lon="-105.2308612">
  <ele>1582.99</ele>
  <time>2026-08-28T17:54:41Z</time>
  <course>246.52</course>
  <speed>2.9231831964486936</speed>
  <fix>3d</fix>
</trkpt>
<trkpt lat="40.0710107" lon="-105.2308582">
  <ele>1583.0</ele>
  <time>2026-08-28T17:54:41Z</time>
  <course>246.0</course>
  <speed>3.35</speed>
  <fix>3d</fix>
</trkpt>
<trkpt lat="40.0710086" lon="-105.2308644">
  <ele>1582.99</ele>
  <time>2026-08-28T17:54:41Z</time>
  <course>246.53</course>
  <speed>2.780017985553331</speed>
  <fix>3d</fix>
</trkpt>
<trkpt lat="40.0710107" lon="-105.2308582">
  <ele>1583.0</ele>
  <time>2026-08-28T17:54:41Z</time>
  <course>246.0</course>
  <speed>3.35</speed>
  <fix>3d</fix>
</trkpt>
<trkpt lat="40.0710075" lon="-105.2308675">
  <ele>1582.99</ele>
  <time>2026-08-28T17:54:41Z</time>
  <course>246.53</course>
  <speed>2.6368541863364383</speed>
  <fix>3d</fix>
</trkpt>
<trkpt lat="40.0710083" lon="-105.230865">
  <ele>1583.0</ele>
  <time>2026-08-28T17:54:41Z</time>
  <course>246.0</course>
  <speed>3.03</speed>
  <fix>3d</fix>
</trkpt>
<trkpt lat="40.0710065" lon="-105.2308705">
  <ele>1583.0</ele>
  <time>2026-08-28T17:54:41Z</time>
  <course>246.54</course>
  <speed>2.502838388709906</speed>
  <fix>3d</fix>
</trkpt>
<trkpt lat="40.0710083" lon="-105.230865">
  <ele>1583.0</ele>
  <time>2026-08-28T17:54:41Z</time>
  <course>246.0</course>
  <speed>3.03</speed>
  <fix>3d</fix>
</trkpt>
<trkpt lat="40.0710056" lon="-105.2308732">
  <ele>1583.0</ele>
  <time>2026-08-28T17:54:41Z</time>
  <course>246.55</course>
  <speed>2.3728674636397202</speed>
  <fix>3d</fix>
</trkpt>
<trkpt lat="40.0710062" lon="-105.2308712">
  <ele>1583.0</ele>
  <time>2026-08-28T17:54:41Z</time>
  <course>246.0</course>
  <speed>2.74</speed>
  <fix>3d</fix>
</trkpt>
<trkpt lat="40.0710047" lon="-105.2308759">
  <ele>1583.0</ele>
  <time>2026-08-28T17:54:41Z</time>
  <course>246.55</course>
  <speed>2.2520435164534454</speed>
  <fix>3d</fix>
</trkpt>
<trkpt lat="40.0710062" lon="-105.2308712">
  <ele>1583.0</ele>
  <time>2026-08-28T17:54:41Z</time>
  <course>246.0</course>
  <speed>2.74</speed>
  <fix>3d</fix>
</trkpt>
<trkpt lat="40.0710038" lon="-105.2308785">
  <ele>1583.0</ele>
  <time>2026-08-28T17:54:41Z</time>
  <course>246.56</course>
  <speed>2.1312203077110543</speed>
  <fix>3d</fix>
</trkpt>
<trkpt lat="40.0710043" lon="-105.2308768">
  <ele>1583.0</ele>
  <time>2026-08-28T17:54:41Z</time>
  <course>246.0</course>
  <speed>2.48</speed>
  <fix>3d</fix>
</trkpt>
<trkpt lat="40.071003" lon="-105.230881">
  <ele>1583.01</ele>
  <time>2026-08-28T17:54:41Z</time>
  <course>246.57</course>
  <speed>2.0287188075236053</speed>
  <fix>3d</fix>
</trkpt>
<trkpt lat="40.0710043" lon="-105.2308768">
  <ele>1583.0</ele>
  <time>2026-08-28T17:54:41Z</time>
  <course>246.0</course>
  <speed>2.48</speed>
  <fix>3d</fix>
</trkpt>
<trkpt lat="40.0710022" lon="-105.2308833">
  <ele>1583.01</ele>
  <time>2026-08-28T17:54:41Z</time>
  <course>246.58</course>
  <speed>1.921067411623028</speed>
  <fix>3d</fix>
</trkpt>
<trkpt lat="40.0710026" lon="-105.2308819">
  <ele>1583.0</ele>
  <time>2026-08-28T17:54:41Z</time>
  <course>246.0</course>
  <speed>2.24</speed>
  <fix>3d</fix>
</trkpt>
<trkpt lat="40.0710014" lon="-105.2308855">
  <ele>1583.01</ele>
  <time>2026-08-28T17:54:41Z</time>
  <course>246.58</course>
  <speed>1.8225805880673698</speed>
  <fix>3d</fix>
</trkpt>
<trkpt lat="40.0710026" lon="-105.2308819">
  <ele>1583.0</ele>
  <time>2026-08-28T17:54:41Z</time>
  <course>246.0</course>
  <speed>2.24</speed>
  <fix>3d</fix>
</trkpt>
<trkpt lat="40.0710007" lon="-105.2308876">
  <ele>1583.02</ele>
  <time>2026-08-28T17:54:41Z</time>
  <course>246.59</course>
  <speed>1.7332628190785146</speed>
  <fix>3d</fix>
</trkpt>
<trkpt lat="40.0710011" lon="-105.2308865">
  <ele>1583.0</ele>
  <time>2026-08-28T17:54:41Z</time>
  <course>246.0</course>
  <speed>2.03</speed>
  <fix>3d</fix>
</trkpt>
<trkpt lat="40.0710001" lon="-105.2308896">
  <ele>1583.02</ele>
  <time>2026-08-28T17:54:41Z</time>
  <course>246.59</course>
  <speed>1.6439586369492392</speed>
  <fix>3d</fix>
</trkpt>
<trkpt lat="40.0710011" lon="-105.2308865">
  <ele>1583.0</ele>
  <time>2026-08-28T17:54:41Z</time>
  <course>246.0</course>
  <speed>2.03</speed>
  <fix>3d</fix>
</trkpt>
<trkpt lat="40.0709994" lon="-105.2308915">
  <ele>1583.02</ele>
  <time>2026-08-28T17:54:41Z</time>
  <course>246.6</course>
  <speed>1.5546703830716015</speed>
  <fix>3d</fix>
</trkpt>
<trkpt lat="40.0709997" lon="-105.2308906">
  <ele>1583.0</ele>
  <time>2026-08-28T17:54:41Z</time>
  <course>246.0</course>
  <speed>1.83</speed>
  <fix>3d</fix>
</trkpt>
<trkpt lat="40.0709988" lon="-105.2308934">
  <ele>1583.03</ele>
  <time>2026-08-28T17:54:41Z</time>
  <course>246.61</course>
  <speed>1.4785127662620976</speed>
  <fix>3d</fix>
</trkpt>
<trkpt lat="40.0709997" lon="-105.2308906">
  <ele>1583.0</ele>
  <time>2026-08-28T17:54:41Z</time>
  <course>246.0</course>
  <speed>1.83</speed>
  <fix>3d</fix>
</trkpt>
<trkpt lat="40.0709982" lon="-105.2308951">
  <ele>1583.03</ele>
  <time>2026-08-28T17:54:41Z</time>
  <course>246.61</course>
  <speed>1.402355161861645</speed>
  <fix>3d</fix>
</trkpt>
<trkpt lat="40.0709997" lon="-105.2308906">
  <ele>1583.0</ele>
  <time>2026-08-28T17:54:41Z</time>
  <course>246.0</course>
  <speed>1.83</speed>
  <fix>3d</fix>
</trkpt>
<trkpt lat="40.0709977" lon="-105.2308968">
  <ele>1583.03</ele>
  <time>2026-08-28T17:54:41Z</time>
  <course>246.62</course>
  <speed>1.335402561027947</speed>
  <fix>3d</fix>
</trkpt>
<trkpt lat="40.0709984" lon="-105.2308943">
  <ele>1583.0</ele>
  <time>2026-08-28T17:54:41Z</time>
  <course>246.0</course>
  <speed>1.66</speed>
  <fix>3d</fix>
</trkpt>
<trkpt lat="40.0709972" lon="-105.2308983">
  <ele>1583.04</ele>
  <time>2026-08-28T17:54:41Z</time>
  <course>246.63</course>
  <speed>1.2684636376341263</speed>
  <fix>3d</fix>
</trkpt>
<trkpt lat="40.0709984" lon="-105.2308943">
  <ele>1583.0</ele>
  <time>2026-08-28T17:54:41Z</time>
  <course>246.0</course>
  <speed>1.66</speed>
  <fix>3d</fix>
</trkpt>
<trkpt lat="40.0709967" lon="-105.2308998">
  <ele>1583.04</ele>
  <time>2026-08-28T17:54:41Z</time>
  <course>246.63</course>
  <speed>1.2015406776301834</speed>
  <fix>3d</fix>
</trkpt>
<trkpt lat="40.0709972" lon="-105.2308977">
  <ele>1583.0</ele>
  <time>2026-08-28T17:54:41Z</time>
  <course>246.0</course>
  <speed>1.5</speed>
  <fix>3d</fix>
</trkpt>
<trkpt lat="40.0709962" lon="-105.2309012">
  <ele>1583.04</ele>
  <time>2026-08-28T17:54:41Z</time>
  <course>246.64</course>
  <speed>1.1438968484964018</speed>
  <fix>3d</fix>
</trkpt>
<trkpt lat="40.0709972" lon="-105.2308977">
  <ele>1583.0</ele>
  <time>2026-08-28T17:54:41Z</time>
  <course>246.0</course>
  <speed>1.5</speed>
  <fix>3d</fix>
</trkpt>
<trkpt lat="40.0709958" lon="-105.2309026">
  <ele>1583.05</ele>
  <time>2026-08-28T17:54:41Z</time>
  <course>246.64</course>
  <speed>1.0900458705944442</speed>
  <fix>3d</fix>
</trkpt>
<trkpt lat="40.0709961" lon="-105.2309008">
  <ele>1583.0</ele>
  <time>2026-08-28T17:54:41Z</time>
  <course>246.0</course>
  <speed>1.36</speed>
  <fix>3d</fix>
</trkpt>
<trkpt lat="40.0709953" lon="-105.2309039">
  <ele>1583.05</ele>
  <time>2026-08-28T17:54:41Z</time>
  <course>246.65</course>
  <speed>1.0361949623502327</speed>
  <fix>3d</fix>
</trkpt>
<trkpt lat="40.0709952" lon="-105.2309036">
  <ele>1583.0</ele>
  <time>2026-08-28T17:54:41Z</time>
  <course>246.0</course>
  <speed>1.23</speed>
  <fix>3d</fix>
</trkpt>
<trkpt lat="40.0709949" lon="-105.2309052">
  <ele>1583.06</ele>
  <time>2026-08-28T17:54:41Z</time>
  <course>246.66</course>
  <speed>0.982344135219425</speed>
  <fix>3d</fix>
</trkpt>
<trkpt lat="40.0709952" lon="-105.2309036">
  <ele>1583.0</ele>
  <time>2026-08-28T17:54:41Z</time>
  <course>246.0</course>
  <speed>1.23</speed>
  <fix>3d</fix>
</trkpt>
<trkpt lat="40.0709945" lon="-105.2309064">
  <ele>1583.06</ele>
  <time>2026-08-28T17:54:41Z</time>
  <course>246.66</course>
  <speed>0.9340770846134703</speed>
  <fix>3d</fix>
</trkpt>
<trkpt lat="40.0709944" lon="-105.2309061">
  <ele>1583.0</ele>
  <time>2026-08-28T17:54:41Z</time>
  <course>246.0</course>
  <speed>1.11</speed>
  <fix>3d</fix>
</trkpt>
<trkpt lat="40.0709941" lon="-105.2309075">
  <ele>1583.07</ele>
  <time>2026-08-28T17:54:41Z</time>
  <course>246.67</course>
  <speed>0.8931965069345043</speed>
  <fix>3d</fix>
</trkpt>
<trkpt lat="40.0709944" lon="-105.2309061">
  <ele>1583.0</ele>
  <time>2026-08-28T17:54:41Z</time>
  <course>246.0</course>
  <speed>1.11</speed>
  <fix>3d</fix>
</trkpt>
<trkpt lat="40.0709938" lon="-105.2309086">
  <ele>1583.07</ele>
  <time>2026-08-28T17:54:41Z</time>
  <course>246.68</course>
  <speed>0.8486459803710851</speed>
  <fix>3d</fix>
</trkpt>
<trkpt lat="40.0709936" lon="-105.2309084">
  <ele>1583.0</ele>
  <time>2026-08-28T17:54:41Z</time>
  <course>246.0</course>
  <speed>1.0</speed>
  <fix>3d</fix>
</trkpt>
<trkpt lat="40.0709934" lon="-105.2309096">
  <ele>1583.08</ele>
  <time>2026-08-28T17:54:41Z</time>
  <course>246.68</course>
  <speed>0.804114419718985</speed>
  <fix>3d</fix>
</trkpt>
<trkpt lat="40.0709936" lon="-105.2309084">
  <ele>1583.0</ele>
  <time>2026-08-28T17:54:41Z</time>
  <course>246.0</course>
  <speed>1.0</speed>
  <fix>3d</fix>
</trkpt>
<trkpt lat="40.0709931" lon="-105.2309106">
  <ele>1583.08</ele>
  <time>2026-08-28T17:54:41Z</time>
  <course>246.69</course>
  <speed>0.7689603370785778</speed>
  <fix>3d</fix>
</trkpt>
<trkpt lat="40.0709929" lon="-105.2309104">
  <ele>1583.0</ele>
  <time>2026-08-28T17:54:41Z</time>
  <course>246.0</course>
  <speed>0.91</speed>
  <fix>3d</fix>
</trkpt>
<trkpt lat="40.0709928" lon="-105.2309116">
  <ele>1583.08</ele>
  <time>2026-08-28T17:54:41Z</time>
  <course>246.69</course>
  <speed>0.7373601562330311</speed>
  <fix>3d</fix>
</trkpt>
<trkpt lat="40.0709929" lon="-105.2309104">
  <ele>1583.0</ele>
  <time>2026-08-28T17:54:41Z</time>
  <course>246.0</course>
  <speed>0.91</speed>
  <fix>3d</fix>
</trkpt>
<trkpt lat="40.0709925" lon="-105.2309125">
  <ele>1583.09</ele>
  <time>2026-08-28T17:54:41Z</time>
  <course>246.69</course>
  <speed>0.7022819946431775</speed>
  <fix>3d</fix>
</trkpt>
<trkpt lat="40.0709923" lon="-105.2309123">
  <ele>1583.0</ele>
  <time>2026-08-28T17:54:41Z</time>
  <course>246.0</course>
  <speed>0.82</speed>
  <fix>3d</fix>
</trkpt>
<trkpt lat="40.0709922" lon="-105.2309134">
  <ele>1583.08</ele>
  <time>2026-08-28T17:54:41Z</time>
  <course>246.7</course>
  <speed>0.6706713054842887</speed>
  <fix>3d</fix>
</trkpt>
<trkpt lat="40.0709923" lon="-105.2309123">
  <ele>1583.0</ele>
  <time>2026-08-28T17:54:41Z</time>
  <course>246.0</course>
  <speed>0.82</speed>
  <fix>3d</fix>
</trkpt>
<trkpt lat="40.070992" lon="-105.2309142">
  <ele>1583.08</ele>
  <time>2026-08-28T17:54:41Z</time>
  <course>246.7</course>
  <speed>0.6390618123468184</speed>
  <fix>3d</fix>
</trkpt>
<trkpt lat="40.0709917" lon="-105.2309139">
  <ele>1583.0</ele>
  <time>2026-08-28T17:54:41Z</time>
  <course>246.0</course>
  <speed>0.74</speed>
  <fix>3d</fix>
</trkpt>
<trkpt lat="40.0709917" lon="-105.230915">
  <ele>1583.09</ele>
  <time>2026-08-28T17:54:41Z</time>
  <course>246.71</course>
  <speed>0.6040695324215583</speed>
  <fix>3d</fix>
</trkpt>
<trkpt lat="40.0709917" lon="-105.2309139">
  <ele>1583.0</ele>
  <time>2026-08-28T17:54:41Z</time>
  <course>246.0</course>
  <speed>0.74</speed>
  <fix>3d</fix>
</trkpt>
<trkpt lat="40.0709915" lon="-105.2309157">
  <ele>1583.09</ele>
  <time>2026-08-28T17:54:41Z</time>
  <course>246.71</course>
  <speed>0.5818934610390462</speed>
  <fix>3d</fix>
</trkpt>
<trkpt lat="40.0709912" lon="-105.2309155">
  <ele>1583.0</ele>
  <time>2026-08-28T17:54:41Z</time>
  <course>246.0</course>
  <speed>0.67</speed>
  <fix>3d</fix>
</trkpt>
<trkpt lat="40.0709912" lon="-105.2309164">
  <ele>1583.09</ele>
  <time>2026-08-28T17:54:41Z</time>
  <course>246.71</course>
  <speed>0.5502726596879042</speed>
  <fix>3d</fix>
</trkpt>
<trkpt lat="40.0709912" lon="-105.2309155">
  <ele>1583.0</ele>
  <time>2026-08-28T17:54:41Z</time>
  <course>246.0</course>
  <speed>0.67</speed>
  <fix>3d</fix>
</trkpt>
<trkpt lat="40.070991" lon="-105.2309171">
  <ele>1583.09</ele>
  <time>2026-08-28T17:54:41Z</time>
  <course>246.72</course>
  <speed>0.5281098370604357</speed>
  <fix>3d</fix>
</trkpt>
<trkpt lat="40.0709912" lon="-105.2309155">
  <ele>1583.0</ele>
  <time>2026-08-28T17:54:41Z</time>
  <course>246.0</course>
  <speed>0.67</speed>
  <fix>3d</fix>
</trkpt>
<trkpt lat="40.0709908" lon="-105.2309177">
  <ele>1583.09</ele>
  <time>2026-08-28T17:54:41Z</time>
  <course>246.72</course>
  <speed>0.5059644256269408</speed>
  <fix>3d</fix>
</trkpt>
<trkpt lat="40.0709907" lon="-105.2309169">
  <ele>1583.0</ele>
  <time>2026-08-28T17:54:41Z</time>
  <course>246.0</course>
  <speed>0.61</speed>
  <fix>3d</fix>
</trkpt>
<trkpt lat="40.0709906" lon="-105.2309183">
  <ele>1583.08</ele>
  <time>2026-08-28T17:54:41Z</time>
  <course>246.72</course>
  <speed>0.4838388161361178</speed>
  <fix>3d</fix>
</trkpt>
<trkpt lat="40.0709907" lon="-105.2309169">
  <ele>1583.0</ele>
  <time>2026-08-28T17:54:41Z</time>
  <course>246.0</course>
  <speed>0.61</speed>
  <fix>3d</fix>
</trkpt>
<trkpt lat="40.0709904" lon="-105.2309189">
  <ele>1583.08</ele>
  <time>2026-08-28T17:54:41Z</time>
  <course>246.73</course>
  <speed>0.4617358552246078</speed>
  <fix>3d</fix>
</trkpt>
<trkpt lat="40.0709903" lon="-105.2309181">
  <ele>1583.0</ele>
  <time>2026-08-28T17:54:41Z</time>
  <course>246.0</course>
  <speed>0.55</speed>
  <fix>3d</fix>
</trkpt>
<trkpt lat="40.0709902" lon="-105.2309195">
  <ele>1583.08</ele>
  <time>2026-08-28T17:54:41Z</time>
  <course>246.73</course>
  <speed>0.43965895873961214</speed>
  <fix>3d</fix>
</trkpt>
<trkpt lat="40.0709903" lon="-105.2309181">
  <ele>1583.0</ele>
  <time>2026-08-28T17:54:41Z</time>
  <course>246.0</course>
  <speed>0.55</speed>
  <fix>3d</fix>
</trkpt>
<trkpt lat="40.07099" lon="-105.23092">
  <ele>1583.08</ele>
  <time>2026-08-28T17:54:41Z</time>
  <course>246.73</course>
  <speed>0.4205948168962618</speed>
  <fix>3d</fix>
</trkpt>
<trkpt lat="40.0709899" lon="-105.2309193">
  <ele>1583.0</ele>
  <time>2026-08-28T17:54:41Z</time>
  <course>246.0</course>
  <speed>0.5</speed>
  <fix>3d</fix>
</trkpt>
<trkpt lat="40.0709899" lon="-105.2309205">
  <ele>1583.08</ele>
  <time>2026-08-28T17:54:41Z</time>
  <course>246.73</course>
  <speed>0.4080441152620633</speed>
  <fix>3d</fix>
</trkpt>
<trkpt lat="40.0709899" lon="-105.2309193">
  <ele>1583.0</ele>
  <time>2026-08-28T17:54:41Z</time>
  <course>246.0</course>
  <speed>0.5</speed>
  <fix>3d</fix>
</trkpt>
<trkpt lat="40.0709897" lon="-105.230921">
  <ele>1583.08</ele>
  <time>2026-08-28T17:54:41Z</time>
  <course>246.74</course>
  <speed>0.38600518131237566</speed>
  <fix>3d</fix>
</trkpt>
<trkpt lat="40.0709895" lon="-105.2309203">
  <ele>1583.0</ele>
  <time>2026-08-28T17:54:41Z</time>
  <course>246.0</course>
  <speed>0.45</speed>
  <fix>3d</fix>
</trkpt>
<trkpt lat="40.0709895" lon="-105.2309215">
  <ele>1583.08</ele>
  <time>2026-08-28T17:54:41Z</time>
  <course>246.74</course>
  <speed>0.3736308338453881</speed>
  <fix>3d</fix>
</trkpt>
<trkpt lat="40.0709892" lon="-105.2309212">
  <ele>1583.0</ele>
  <time>2026-08-28T17:54:41Z</time>
  <course>246.0</course>
  <speed>0.41</speed>
  <fix>3d</fix>
</trkpt>
<trkpt lat="40.0709894" lon="-105.2309219">
  <ele>1583.08</ele>
  <time>2026-08-28T17:54:41Z</time>
  <course>246.74</course>
  <speed>0.354400902933387</speed>
  <fix>3d</fix>
</trkpt>
<trkpt lat="40.0709892" lon="-105.2309212">
  <ele>1583.0</ele>
  <time>2026-08-28T17:54:41Z</time>
  <course>246.0</course>
  <speed>0.41</speed>
  <fix>3d</fix>
</trkpt>
<trkpt lat="40.0709892" lon="-105.2309223">
  <ele>1583.08</ele>
  <time>2026-08-28T17:54:41Z</time>
  <course>246.74</course>
  <speed>0.3420526275297414</speed>
  <fix>3d</fix>
</trkpt>
<trkpt lat="40.0709889" lon="-105.230922">
  <ele>1583.0</ele>
  <time>2026-08-28T17:54:41Z</time>
  <course>246.0</course>
  <speed>0.37</speed>
  <fix>3d</fix>
</trkpt>
<trkpt lat="40.0709891" lon="-105.2309227">
  <ele>1583.08</ele>
  <time>2026-08-28T17:54:41Z</time>
  <course>246.74</course>
  <speed>0.33241540277189324</speed>
  <fix>3d</fix>
</trkpt>
<trkpt lat="40.0709889" lon="-105.230922">
  <ele>1583.0</ele>
  <time>2026-08-28T17:54:41Z</time>
  <course>246.0</course>
  <speed>0.37</speed>
  <fix>3d</fix>
</trkpt>
<trkpt lat="40.070989" lon="-105.2309231">
  <ele>1583.08</ele>
  <time>2026-08-28T17:54:41Z</time>
  <course>246.74</course>
  <speed>0.31048349392520047</speed>
  <fix>3d</fix>
</trkpt>
<trkpt lat="40.0709887" lon="-105.2309228">
  <ele>1583.0</ele>
  <time>2026-08-28T17:54:41Z</time>
  <course>246.0</course>
  <speed>0.33</speed>
  <fix>3d</fix>
</trkpt>
<trkpt lat="40.0709888" lon="-105.2309235">
  <ele>1583.07</ele>
  <time>2026-08-28T17:54:41Z</time>
  <course>246.74</course>
  <speed>0.30083217912982646</speed>
  <fix>3d</fix>
</trkpt>
<trkpt lat="40.0709887" lon="-105.2309228">
  <ele>1583.0</ele>
  <time>2026-08-28T17:54:41Z</time>
  <course>246.0</course>
  <speed>0.33</speed>
  <fix>3d</fix>
</trkpt>
<trkpt lat="40.0709887" lon="-105.2309238">
  <ele>1583.07</ele>
  <time>2026-08-28T17:54:41Z</time>
  <course>246.75</course>
  <speed>0.28861739379323625</speed>
  <fix>3d</fix>
</trkpt>
<trkpt lat="40.0709885" lon="-105.2309235">
  <ele>1583.0</ele>
  <time>2026-08-28T17:54:41Z</time>
  <course>246.0</course>
  <speed>0.3</speed>
  <fix>3d</fix>
</trkpt>
<trkpt lat="40.0709886" lon="-105.2309242">
  <ele>1583.07</ele>
  <time>2026-08-28T17:54:41Z</time>
  <course>246.75</course>
  <speed>0.27892651361962706</speed>
  <fix>3d</fix>
</trkpt>
<trkpt lat="40.0709885" lon="-105.2309235">
  <ele>1583.0</ele>
  <time>2026-08-28T17:54:41Z</time>
  <course>246.0</course>
  <speed>0.3</speed>
  <fix>3d</fix>
</trkpt>
<trkpt lat="40.0709885" lon="-105.2309245">
  <ele>1583.07</ele>
  <time>2026-08-28T17:54:41Z</time>
  <course>246.75</course>
  <speed>0.2692582403567252</speed>
  <fix>3d</fix>
</trkpt>
<trkpt lat="40.0709882" lon="-105.2309242">
  <ele>1583.0</ele>
  <time>2026-08-28T17:54:41Z</time>
  <course>246.0</course>
  <speed>0.27</speed>
  <fix>3d</fix>
</trkpt>
<trkpt lat="40.0709884" lon="-105.2309248">
  <ele>1583.06</ele>
  <time>2026-08-28T17:54:41Z</time>
  <course>246.75</course>
  <speed>0.2570992026436488</speed>
  <fix>3d</fix>
</trkpt>
<trkpt lat="40.0709882" lon="-105.2309242">
  <ele>1583.0</ele>
  <time>2026-08-28T17:54:41Z</time>
  <course>246.0</course>
  <speed>0.27</speed>
  <fix>3d</fix>
</trkpt>
<trkpt lat="40.0709883" lon="-105.2309251">
  <ele>1583.06</ele>
  <time>2026-08-28T17:54:41Z</time>
  <course>246.75</course>
  <speed>0.24738633753705963</speed>
  <fix>3d</fix>
</trkpt>
<trkpt lat="40.070988" lon="-105.2309247">
  <ele>1583.0</ele>
  <time>2026-08-28T17:54:41Z</time>
  <course>246.0</course>
  <speed>0.24</speed>
  <fix>3d</fix>
</trkpt>
<trkpt lat="40.0709882" lon="-105.2309253">
  <ele>1583.06</ele>
  <time>2026-08-28T17:54:41Z</time>
  <course>246.75</course>
  <speed>0.23769728648009425</speed>
  <fix>3d</fix>
</trkpt>
<trkpt lat="40.070988" lon="-105.2309247">
  <ele>1583.0</ele>
  <time>2026-08-28T17:54:41Z</time>
  <course>246.0</course>
  <speed>0.24</speed>
  <fix>3d</fix>
</trkpt>
<trkpt lat="40.0709881" lon="-105.2309256">
  <ele>1583.05</ele>
  <time>2026-08-28T17:54:41Z</time>
  <course>246.75</course>
  <speed>0.22561028345356957</speed>
  <fix>3d</fix>
</trkpt>
<trkpt lat="40.0709879" lon="-105.2309252">
  <ele>1583.0</ele>
  <time>2026-08-28T17:54:41Z</time>
  <course>246.0</course>
  <speed>0.22</speed>
  <fix>3d</fix>
</trkpt>
<trkpt lat="40.070988" lon="-105.2309259">
  <ele>1583.05</ele>
  <time>2026-08-28T17:54:41Z</time>
  <course>246.76</course>
  <speed>0.215870331449229</speed>
  <fix>3d</fix>
</trkpt>
<trkpt lat="40.0709879" lon="-105.2309252">
  <ele>1583.0</ele>
  <time>2026-08-28T17:54:41Z</time>
  <course>246.0</course>
  <speed>0.22</speed>
  <fix>3d</fix>
</trkpt>
<trkpt lat="40.0709879" lon="-105.2309261">
  <ele>1583.05</ele>
  <time>2026-08-28T17:54:41Z</time>
  <course>246.76</course>
  <speed>0.215870331449229</speed>
  <fix>3d</fix>
</trkpt>
<trkpt lat="40.0709879" lon="-105.2309252">
  <ele>1583.0</ele>
  <time>2026-08-28T17:54:41Z</time>
  <course>246.0</course>
  <speed>0.22</speed>
  <fix>3d</fix>
</trkpt>
<trkpt lat="40.0709879" lon="-105.2309263">
  <ele>1583.05</ele>
  <time>2026-08-28T17:54:41Z</time>
  <course>246.76</course>
  <speed>0.2039607805437114</speed>
  <fix>3d</fix>
</trkpt>
<trkpt lat="40.0709877" lon="-105.2309257">
  <ele>1583.0</ele>
  <time>2026-08-28T17:54:41Z</time>
  <course>246.0</course>
  <speed>0.2</speed>
  <fix>3d</fix>
</trkpt>
<trkpt lat="40.0709878" lon="-105.2309265">
  <ele>1583.04</ele>
  <time>2026-08-28T17:54:41Z</time>
  <course>246.76</course>
  <speed>0.194164878389476</speed>
  <fix>3d</fix>
</trkpt>
<trkpt lat="40.0709877" lon="-105.2309257">
  <ele>1583.0</ele>
  <time>2026-08-28T17:54:41Z</time>
  <course>246.0</course>
  <speed>0.2</speed>
  <fix>3d</fix>
</trkpt>
<trkpt lat="40.0709877" lon="-105.2309267">
  <ele>1583.04</ele>
  <time>2026-08-28T17:54:41Z</time>
  <course>246.76</course>
  <speed>0.18439088914585774</speed>
  <fix>3d</fix>
</trkpt>
<trkpt lat="40.0709875" lon="-105.230926">
  <ele>1583.0</ele>
  <time>2026-08-28T17:54:41Z</time>
  <course>246.0</course>
  <speed>0.18</speed>
  <fix>3d</fix>
</trkpt>
<trkpt lat="40.0709876" lon="-105.2309269">
  <ele>1583.03</ele>
  <time>2026-08-28T17:54:41Z</time>
  <course>246.76</course>
  <speed>0.18439088914585774</speed>
  <fix>3d</fix>
</trkpt>
<trkpt lat="40.0709875" lon="-105.230926">
  <ele>1583.0</ele>
  <time>2026-08-28T17:54:41Z</time>
  <course>246.0</course>
  <speed>0.18</speed>
  <fix>3d</fix>
</trkpt>
<trkpt lat="40.0709876" lon="-105.2309271">
  <ele>1583.03</ele>
  <time>2026-08-28T17:54:41Z</time>
  <course>246.76</course>
  <speed>0.17464249196572978</speed>
  <fix>3d</fix>
</trkpt>
<trkpt lat="40.0709874" lon="-105.2309265">
  <ele>1583.0</ele>
  <time>2026-08-28T17:54:41Z</time>
  <course>246.0</course>
  <speed>0.16</speed>
  <fix>3d</fix>
</trkpt>
<trkpt lat="40.0709875" lon="-105.2309273">
  <ele>1583.03</ele>
  <time>2026-08-28T17:54:41Z</time>
  <course>246.77</course>
  <speed>0.16278820596099705</speed>
  <fix>3d</fix>
</trkpt>
<trkpt lat="40.0709873" lon="-105.2309268">
  <ele>1583.0</ele>
  <time>2026-08-28T17:54:41Z</time>
  <course>246.0</course>
  <speed>0.15</speed>
  <fix>3d</fix>
</trkpt>
<trkpt lat="40.0709874" lon="-105.2309274">
  <ele>1583.02</ele>
  <time>2026-08-28T17:54:41Z</time>
  <course>246.77</course>
  <speed>0.16278820596099705</speed>
  <fix>3d</fix>
</trkpt>
<trkpt lat="40.0709873" lon="-105.2309268">
  <ele>1583.0</ele>
  <time>2026-08-28T17:54:41Z</time>
  <course>246.0</course>
  <speed>0.15</speed>
  <fix>3d</fix>
</trkpt>
<trkpt lat="40.0709874" lon="-105.2309276">
  <ele>1583.02</ele>
  <time>2026-08-28T17:54:41Z</time>
  <course>246.77</course>
  <speed>0.15297058540778355</speed>
  <fix>3d</fix>
</trkpt>
<trkpt lat="40.0709872" lon="-105.2309271">
  <ele>1583.0</ele>
  <time>2026-08-28T17:54:41Z</time>
  <course>246.0</course>
  <speed>0.13</speed>
  <fix>3d</fix>
</trkpt>
<trkpt lat="40.0709873" lon="-105.2309277">
  <ele>1583.01</ele>
  <time>2026-08-28T17:54:41Z</time>
  <course>246.77</course>
  <speed>0.15297058540778355</speed>
  <fix>3d</fix>
</trkpt>
<trkpt lat="40.0709872" lon="-105.2309271">
  <ele>1583.0</ele>
  <time>2026-08-28T17:54:41Z</time>
  <course>246.0</course>
  <speed>0.13</speed>
  <fix>3d</fix>
</trkpt>
<trkpt lat="40.0709873" lon="-105.2309278">
  <ele>1583.01</ele>
  <time>2026-08-28T17:54:41Z</time>
  <course>246.77</course>
  <speed>0.14317821063276354</speed>
  <fix>3d</fix>
</trkpt>
<trkpt lat="40.0709871" lon="-105.2309273">
  <ele>1583.0</ele>
  <time>2026-08-28T17:54:41Z</time>
  <course>246.0</course>
  <speed>0.12</speed>
  <fix>3d</fix>
</trkpt>
<trkpt lat="40.0709872" lon="-105.230928">
  <ele>1583.01</ele>
  <time>2026-08-28T17:54:41Z</time>
  <course>246.77</course>
  <speed>0.1414213562373095</speed>
  <fix>3d</fix>
</trkpt>
<trkpt lat="40.0709871" lon="-105.2309273">
  <ele>1583.0</ele>
  <time>2026-08-28T17:54:41Z</time>
  <course>246.0</course>
  <speed>0.12</speed>
  <fix>3d</fix>
</trkpt>
<trkpt lat="40.0709872" lon="-105.2309281">
  <ele>1583.01</ele>
  <time>2026-08-28T17:54:41Z</time>
  <course>246.77</course>
  <speed>0.13152946437965907</speed>
  <fix>3d</fix>
</trkpt>
<trkpt lat="40.070987" lon="-105.2309276">
  <ele>1583.0</ele>
  <time>2026-08-28T17:54:41Z</time>
  <course>246.0</course>
  <speed>0.11</speed>
  <fix>3d</fix>
</trkpt>
<trkpt lat="40.0709871" lon="-105.2309282">
  <ele>1583.01</ele>
  <time>2026-08-28T17:54:41Z</time>
  <course>246.78</course>
  <speed>0.13152946437965907</speed>
  <fix>3d</fix>
</trkpt>
<trkpt lat="40.070987" lon="-105.2309276">
  <ele>1583.0</ele>
  <time>2026-08-28T17:54:41Z</time>
  <course>246.0</course>
  <speed>0.11</speed>
  <fix>3d</fix>
</trkpt>
<trkpt lat="40.0709871" lon="-105.2309283">
  <ele>1583.01</ele>
  <time>2026-08-28T17:54:41Z</time>
  <course>246.78</course>
  <speed>0.12165525060596438</speed>
  <fix>3d</fix>
</trkpt>
<trkpt lat="40.0709869" lon="-105.2309278">
  <ele>1583.0</ele>
  <time>2026-08-28T17:54:41Z</time>
  <course>246.0</course>
  <speed>0.1</speed>
  <fix>3d</fix>
</trkpt>
<trkpt lat="40.070987" lon="-105.2309284">
  <ele>1583.01</ele>
  <time>2026-08-28T17:54:41Z</time>
  <course>246.78</course>
  <speed>0.12165525060596438</speed>
  <fix>3d</fix>
</trkpt>
<trkpt lat="40.0709869" lon="-105.2309278">
  <ele>1583.0</ele>
  <time>2026-08-28T17:54:41Z</time>
  <course>246.0</course>
  <speed>0.1</speed>
  <fix>3d</fix>
</trkpt>
<trkpt lat="40.070987" lon="-105.2309285">
  <ele>1583.01</ele>
  <time>2026-08-28T17:54:41Z</time>
  <course>246.78</course>
  <speed>0.1118033988749895</speed>
  <fix>3d</fix>
</trkpt>
<trkpt lat="40.0709869" lon="-105.2309281">
  <ele>1583.0</ele>
  <time>2026-08-28T17:54:41Z</time>
  <course>246.0</course>
  <speed>0.09</speed>
  <fix>3d</fix>
</trkpt>
<trkpt lat="40.070987" lon="-105.2309286">
  <ele>1583.01</ele>
  <time>2026-08-28T17:54:41Z</time>
  <course>246.78</course>
  <speed>0.1118033988749895</speed>
  <fix>3d</fix>
</trkpt>
<trkpt lat="40.0709869" lon="-105.2309281">
  <ele>1583.0</ele>
  <time>2026-08-28T17:54:41Z</time>
  <course>246.0</course>
  <speed>0.09</speed>
  <fix>3d</fix>
</trkpt>
<trkpt lat="40.0709869" lon="-105.2309287">
  <ele>1583.01</ele>
  <time>2026-08-28T17:54:41Z</time>
  <course>246.79</course>
  <speed>0.1004987562112089</speed>
  <fix>3d</fix>
</trkpt>
<trkpt lat="40.0709868" lon="-105.2309282">
  <ele>1583.0</ele>
  <time>2026-08-28T17:54:41Z</time>
  <course>246.0</course>
  <speed>0.08</speed>
  <fix>3d</fix>
</trkpt>
<trkpt lat="40.0709869" lon="-105.2309288">
  <ele>1583.01</ele>
  <time>2026-08-28T17:54:41Z</time>
  <course>246.79</course>
  <speed>0.1004987562112089</speed>
  <fix>3d</fix>
</trkpt>
<trkpt lat="40.0709868" lon="-105.2309282">
  <ele>1583.0</ele>
  <time>2026-08-28T17:54:41Z</time>
  <course>246.0</course>
  <speed>0.08</speed>
  <fix>3d</fix>
</trkpt>
<trkpt lat="40.0709869" lon="-105.2309288">
  <ele>1583.01</ele>
  <time>2026-08-28T17:54:42Z</time>
  <course>246.79</course>
  <speed>0.1004987562112089</speed>
  <fix>3d</fix>
</trkpt>
<trkpt lat="40.0709868" lon="-105.2309282">
  <ele>1583.0</ele>
  <time>2026-08-28T17:54:42Z</time>
  <course>246.0</course>
  <speed>0.08</speed>
  <fix>3d</fix>
</trkpt>
<trkpt lat="40.0709868" lon="-105.2309289">
  <ele>1583.0</ele>
  <time>2026-08-28T17:54:42Z</time>
  <course>246.79</course>
  <speed>0.09055385138137417</speed>
  <fix>3d</fix>
</trkpt>
<trkpt lat="40.0709868" lon="-105.2309284">
  <ele>1583.0</ele>
  <time>2026-08-28T17:54:42Z</time>
  <course>246.0</course>
  <speed>0.07</speed>
  <fix>3d</fix>
</trkpt>
<trkpt lat="40.0709868" lon="-105.230929">
  <ele>1583.0</ele>
  <time>2026-08-28T17:54:42Z</time>
  <course>246.8</course>
  <speed>0.09055385138137417</speed>
  <fix>3d</fix>
</trkpt>
<trkpt lat="40.0709868" lon="-105.2309284">
  <ele>1583.0</ele>
  <time>2026-08-28T17:54:42Z</time>
  <course>246.0</course>
  <speed>0.07</speed>
  <fix>3d</fix>
</trkpt>
<trkpt lat="40.0709868" lon="-105.230929">
  <ele>1583.0</ele>
  <time>2026-08-28T17:54:42Z</time>
  <course>246.8</course>
  <speed>0.08062257748298549</speed>
  <fix>3d</fix>
</trkpt>
<trkpt lat="40.0709867" lon="-105.2309286">
  <ele>1583.0</ele>
  <time>2026-08-28T17:54:42Z</time>
  <course>246.0</course>
  <speed>0.06</speed>
  <fix>3d</fix>
</trkpt>
<trkpt lat="40.0709868" lon="-105.2309291">
  <ele>1583.0</ele>
  <time>2026-08-28T17:54:42Z</time>
  <course>246.8</course>
  <speed>0.08062257748298549</speed>
  <fix>3d</fix>
</trkpt>
<trkpt lat="40.0709867" lon="-105.2309286">
  <ele>1583.0</ele>
  <time>2026-08-28T17:54:42Z</time>
  <course>246.0</course>
  <speed>0.06</speed>
  <fix>3d</fix>
</trkpt>
<trkpt lat="40.0709868" lon="-105.2309292">
  <ele>1583.0</ele>
  <time>2026-08-28T17:54:42Z</time>
  <course>246.8</course>
  <speed>0.08062257748298549</speed>
  <fix>3d</fix>
</trkpt>
<trkpt lat="40.0709867" lon="-105.2309287">
  <ele>1583.0</ele>
  <time>2026-08-28T17:54:42Z</time>
  <course>246.0</course>
  <speed>0.06</speed>
  <fix>3d</fix>
</trkpt>
<trkpt lat="40.0709867" lon="-105.2309292">
  <ele>1583.0</ele>
  <time>2026-08-28T17:54:42Z</time>
  <course>246.81</course>
  <speed>0.07</speed>
  <fix>3d</fix>
</trkpt>
<trkpt lat="40.0709867" lon="-105.2309287">
  <ele>1583.0</ele>
  <time>2026-08-28T17:54:42Z</time>
  <course>246.0</course>
  <speed>0.06</speed>
  <fix>3d</fix>
</trkpt>
<trkpt lat="40.0709867" lon="-105.2309293">
  <ele>1583.0</ele>
  <time>2026-08-28T17:54:42Z</time>
  <course>246.81</course>
  <speed>0.07</speed>
  <fix>3d</fix>
</trkpt>
<trkpt lat="40.0709866" lon="-105.2309288">
  <ele>1583.0</ele>
  <time>2026-08-28T17:54:42Z</time>
  <course>246.0</course>
  <speed>0.05</speed>
  <fix>3d</fix>
</trkpt>
<trkpt lat="40.0709867" lon="-105.2309293">
  <ele>1583.01</ele>
  <time>2026-08-28T17:54:42Z</time>
  <course>246.81</course>
  <speed>0.07</speed>
  <fix>3d</fix>
</trkpt>
<trkpt lat="40.0709866" lon="-105.2309289">
  <ele>1583.0</ele>
  <time>2026-08-28T17:54:42Z</time>
  <course>246.0</course>
  <speed>0.05</speed>
  <fix>3d</fix>
</trkpt>
<trkpt lat="40.0709867" lon="-105.2309293">
  <ele>1583.01</ele>
  <time>2026-08-28T17:54:42Z</time>
  <course>246.82</course>
  <speed>0.06</speed>
  <fix>3d</fix>
</trkpt>
<trkpt lat="40.0709866" lon="-105.2309289">
  <ele>1583.0</ele>
  <time>2026-08-28T17:54:42Z</time>
  <course>246.0</course>
  <speed>0.05</speed>
  <fix>3d</fix>
</trkpt>
<trkpt lat="40.0709867" lon="-105.2309294">
  <ele>1583.01</ele>
  <time>2026-08-28T17:54:42Z</time>
  <course>246.82</course>
  <speed>0.06</speed>
  <fix>3d</fix>
</trkpt>
<trkpt lat="40.0709866" lon="-105.230929">
  <ele>1583.0</ele>
  <time>2026-08-28T17:54:42Z</time>
  <course>246.0</course>
  <speed>0.04</speed>
  <fix>3d</fix>
</trkpt>
<trkpt lat="40.0709867" lon="-105.2309294">
  <ele>1583.01</ele>
  <time>2026-08-28T17:54:42Z</time>
  <course>246.82</course>
  <speed>0.06</speed>
  <fix>3d</fix>
</trkpt>
<trkpt lat="40.0709866" lon="-105.230929">
  <ele>1583.0</ele>
  <time>2026-08-28T17:54:42Z</time>
  <course>246.0</course>
  <speed>0.04</speed>
  <fix>3d</fix>
</trkpt>
<trkpt lat="40.0709866" lon="-105.2309295">
  <ele>1583.01</ele>
  <time>2026-08-28T17:54:42Z</time>
  <course>246.82</course>
  <speed>0.06</speed>
  <fix>3d</fix>
</trkpt>
<trkpt lat="40.0709865" lon="-105.2309291">
  <ele>1583.0</ele>
  <time>2026-08-28T17:54:42Z</time>
  <course>246.0</course>
  <speed>0.04</speed>
  <fix>3d</fix>
</trkpt>
<trkpt lat="40.0709866" lon="-105.2309295">
  <ele>1583.01</ele>
  <time>2026-08-28T17:54:42Z</time>
  <course>246.83</course>
  <speed>0.05</speed>
  <fix>3d</fix>
</trkpt>
<trkpt lat="40.0709865" lon="-105.2309291">
  <ele>1583.0</ele>
  <time>2026-08-28T17:54:42Z</time>
  <course>246.0</course>
  <speed>0.04</speed>
  <fix>3d</fix>
</trkpt>
<trkpt lat="40.0709866" lon="-105.2309295">
  <ele>1583.01</ele>
  <time>2026-08-28T17:54:42Z</time>
  <course>246.83</course>
  <speed>0.05</speed>
  <fix>3d</fix>
</trkpt>
<trkpt lat="40.0709864" lon="-105.2309292">
  <ele>1583.0</ele>
  <time>2026-08-28T17:54:42Z</time>
  <course>246.0</course>
  <speed>0.03</speed>
  <fix>3d</fix>
</trkpt>
<trkpt lat="40.0709866" lon="-105.2309295">
  <ele>1583.01</ele>
  <time>2026-08-28T17:54:42Z</time>
  <course>246.83</course>
  <speed>0.05</speed>
  <fix>3d</fix>
</trkpt>
<trkpt lat="40.0709864" lon="-105.2309292">
  <ele>1583.0</ele>
  <time>2026-08-28T17:54:42Z</time>
  <course>246.0</course>
  <speed>0.03</speed>
  <fix>3d</fix>
</trkpt>
<trkpt lat="40.0709866" lon="-105.2309296">
  <ele>1583.01</ele>
  <time>2026-08-28T17:54:42Z</time>
  <course>246.84</course>
  <speed>0.05</speed>
  <fix>3d</fix>
</trkpt>
<trkpt lat="40.0709864" lon="-105.2309293">
  <ele>1583.0</ele>
  <time>2026-08-28T17:54:42Z</time>
  <course>246.01</course>
  <speed>0.03</speed>
  <fix>3d</fix>
</trkpt>
<trkpt lat="40.0709866" lon="-105.2309296">
  <ele>1583.01</ele>
  <time>2026-08-28T17:54:42Z</time>
  <course>246.84</course>
  <speed>0.04</speed>
  <fix>3d</fix>
</trkpt>
<trkpt lat="40.0709864" lon="-105.2309293">
  <ele>1583.0</ele>
  <time>2026-08-28T17:54:42Z</time>
  <course>246.01</course>
  <speed>0.03</speed>
  <fix>3d</fix>
</trkpt>
<trkpt lat="40.0709866" lon="-105.2309296">
  <ele>1583.01</ele>
  <time>2026-08-28T17:54:42Z</time>
  <course>246.84</course>
  <speed>0.04</speed>
  <fix>3d</fix>
</trkpt>
<trkpt lat="40.0709864" lon="-105.2309293">
  <ele>1583.0</ele>
  <time>2026-08-28T17:54:42Z</time>
  <course>246.01</course>
  <speed>0.03</speed>
  <fix>3d</fix>
</trkpt>
<trkpt lat="40.0709865" lon="-105.2309296">
  <ele>1583.02</ele>
  <time>2026-08-28T17:54:42Z</time>
  <course>246.84</course>
  <speed>0.04</speed>
  <fix>3d</fix>
</trkpt>
<trkpt lat="40.0709864" lon="-105.2309293">
  <ele>1583.0</ele>
  <time>2026-08-28T17:54:42Z</time>
  <course>246.01</course>
  <speed>0.03</speed>
  <fix>3d</fix>
</trkpt>
<trkpt lat="40.0709865" lon="-105.2309297">
  <ele>1583.02</ele>
  <time>2026-08-28T17:54:42Z</time>
  <course>246.85</course>
  <speed>0.04</speed>
  <fix>3d</fix>
</trkpt>
<trkpt lat="40.0709864" lon="-105.2309294">
  <ele>1583.0</ele>
  <time>2026-08-28T17:54:42Z</time>
  <course>246.01</course>
  <speed>0.02</speed>
  <fix>3d</fix>
</trkpt>
<trkpt lat="40.0709865" lon="-105.2309297">
  <ele>1583.02</ele>
  <time>2026-08-28T17:54:42Z</time>
  <course>246.85</course>
  <speed>0.03</speed>
  <fix>3d</fix>
</trkpt>
<trkpt lat="40.0709864" lon="-105.2309294">
  <ele>1583.0</ele>
  <time>2026-08-28T17:54:42Z</time>
  <course>246.01</course>
  <speed>0.02</speed>
  <fix>3d</fix>
</trkpt>
<trkpt lat="40.0709865" lon="-105.2309297">
  <ele>1583.03</ele>
  <time>2026-08-28T17:54:42Z</time>
  <course>246.85</course>
  <speed>0.03</speed>
  <fix>3d</fix>
</trkpt>
<trkpt lat="40.0709864" lon="-105.2309294">
  <ele>1583.0</ele>
  <time>2026-08-28T17:54:42Z</time>
  <course>246.01</course>
  <speed>0.02</speed>
  <fix>3d</fix>
</trkpt>
<trkpt lat="40.0709865" lon="-105.2309297">
  <ele>1583.03</ele>
  <time>2026-08-28T17:54:42Z</time>
  <course>246.86</course>
  <speed>0.03</speed>
  <fix>3d</fix>
</trkpt>
<trkpt lat="40.0709864" lon="-105.2309295">
  <ele>1583.0</ele>
  <time>2026-08-28T17:54:42Z</time>
  <course>246.01</course>
  <speed>0.02</speed>
  <fix>3d</fix>
</trkpt>
<trkpt lat="40.0709865" lon="-105.2309297">
  <ele>1583.03</ele>
  <time>2026-08-28T17:54:42Z</time>
  <course>246.86</course>
  <speed>0.07071067811865475</speed>
  <fix>3d</fix>
</trkpt>
<trkpt lat="40.0709864" lon="-105.2309295">
  <ele>1583.0</ele>
  <time>2026-08-28T17:54:42Z</time>
  <course>246.01</course>
  <speed>0.02</speed>
  <fix>3d</fix>
</trkpt>
<trkpt lat="40.0709864" lon="-105.2309299">
  <ele>1583.03</ele>
  <time>2026-08-28T17:54:42Z</time>
  <course>246.86</course>
  <speed>0.19924858845171275</speed>
  <fix>3d</fix>
</trkpt>
<trkpt lat="40.0709863" lon="-105.2309296">
  <ele>1583.0</ele>
  <time>2026-08-28T17:54:42Z</time>
  <course>246.0</course>
  <speed>0.04</speed>
  <fix>3d</fix>
</trkpt>
<trkpt lat="40.0709863" lon="-105.2309302">
  <ele>1583.03</ele>
  <time>2026-08-28T17:54:42Z</time>
  <course>246.87</course>
  <speed>0.42720018726587655</speed>
  <fix>3d</fix>
</trkpt>
<trkpt lat="40.0709863" lon="-105.2309296">
  <ele>1583.0</ele>
  <time>2026-08-28T17:54:42Z</time>
  <course>246.0</course>
  <speed>0.04</speed>
  <fix>3d</fix>
</trkpt>
<trkpt lat="40.0709861" lon="-105.2309308">
  <ele>1583.02</ele>
  <time>2026-08-28T17:54:42Z</time>
  <course>246.87</course>
  <speed>0.7316419889536138</speed>
  <fix>3d</fix>
</trkpt>
<trkpt lat="40.0709863" lon="-105.2309298">
  <ele>1583.0</ele>
  <time>2026-08-28T17:54:42Z</time>
  <course>246.0</course>
  <speed>0.24</speed>
  <fix>3d</fix>
</trkpt>
<trkpt lat="40.0709858" lon="-105.2309318">
  <ele>1583.02</ele>
  <time>2026-08-28T17:54:42Z</time>
  <course>246.87</course>
  <speed>1.1346365056704284</speed>
  <fix>3d</fix>
</trkpt>
<trkpt lat="40.070986" lon="-105.2309309">
  <ele>1583.0</ele>
  <time>2026-08-28T17:54:42Z</time>
  <course>246.0</course>
  <speed>0.77</speed>
  <fix>3d</fix>
</trkpt>
<trkpt lat="40.0709853" lon="-105.2309334">
  <ele>1583.02</ele>
  <time>2026-08-28T17:54:42Z</time>
  <course>246.88</course>
  <speed>1.6100310556011024</speed>
  <fix>3d</fix>
</trkpt>
<trkpt lat="40.070986" lon="-105.2309309">
  <ele>1583.0</ele>
  <time>2026-08-28T17:54:42Z</time>
  <course>246.0</course>
  <speed>0.77</speed>
  <fix>3d</fix>
</trkpt>
<trkpt lat="40.0709846" lon="-105.2309355">
  <ele>1583.01</ele>
  <time>2026-08-28T17:54:42Z</time>
  <course>246.88</course>
  <speed>2.1561539833694625</speed>
  <fix>3d</fix>
</trkpt>
<trkpt lat="40.0709851" lon="-105.2309334">
  <ele>1583.0</ele>
  <time>2026-08-28T17:54:42Z</time>
  <course>246.0</course>
  <speed>1.63</speed>
  <fix>3d</fix>
</trkpt>
<trkpt lat="40.0709837" lon="-105.2309382">
  <ele>1583.01</ele>
  <time>2026-08-28T17:54:42Z</time>
  <course>246.88</course>
  <speed>2.778488797889961</speed>
  <fix>3d</fix>
</trkpt>
<trkpt lat="40.0709851" lon="-105.2309334">
  <ele>1583.0</ele>
  <time>2026-08-28T17:54:42Z</time>
  <course>246.0</course>
  <speed>1.63</speed>
  <fix>3d</fix>
</trkpt>
<trkpt lat="40.0709826" lon="-105.2309417">
  <ele>1583.0</ele>
  <time>2026-08-28T17:54:42Z</time>
  <course>246.88</course>
  <speed>3.4731109973624514</speed>
  <fix>3d</fix>
</trkpt>
<trkpt lat="40.0709834" lon="-105.2309381">
  <ele>1583.0</ele>
  <time>2026-08-28T17:54:42Z</time>
  <course>246.0</course>
  <speed>2.79</speed>
  <fix>3d</fix>
</trkpt>
<trkpt lat="40.0709811" lon="-105.230946">
  <ele>1583.0</ele>
  <time>2026-08-28T17:54:42Z</time>
  <course>246.88</course>
  <speed>4.234678264047932</speed>
  <fix>3d</fix>
</trkpt>
<trkpt lat="40.0709834" lon="-105.2309381">
  <ele>1583.0</ele>
  <time>2026-08-28T17:54:42Z</time>
  <course>246.0</course>
  <speed>2.79</speed>
  <fix>3d</fix>
</trkpt>
<trkpt lat="40.0709794" lon="-105.2309511">
  <ele>1583.0</ele>
  <time>2026-08-28T17:54:42Z</time>
  <course>246.88</course>
  <speed>5.0185655321017775</speed>
  <fix>3d</fix>
</trkpt>
<trkpt lat="40.0709809" lon="-105.2309456">
  <ele>1583.0</ele>
  <time>2026-08-28T17:54:42Z</time>
  <course>246.0</course>
  <speed>4.2</speed>
  <fix>3d</fix>
</trkpt>
<trkpt lat="40.0709774" lon="-105.2309572">
  <ele>1583.0</ele>
  <time>2026-08-28T17:54:42Z</time>
  <course>246.87</course>
  <speed>5.770935799330989</speed>
  <fix>3d</fix>
</trkpt>
<trkpt lat="40.0709809" lon="-105.2309456">
  <ele>1583.0</ele>
  <time>2026-08-28T17:54:42Z</time>
  <course>246.0</course>
  <speed>4.2</speed>
  <fix>3d</fix>
</trkpt>
<trkpt lat="40.0709752" lon="-105.230964">
  <ele>1583.0</ele>
  <time>2026-08-28T17:54:42Z</time>
  <course>246.86</course>
  <speed>6.478672703571311</speed>
  <fix>3d</fix>
</trkpt>
<trkpt lat="40.0709773" lon="-105.2309562">
  <ele>1583.0</ele>
  <time>2026-08-28T17:54:42Z</time>
  <course>246.0</course>
  <speed>5.68</speed>
  <fix>3d</fix>
</trkpt>
<trkpt lat="40.0709726" lon="-105.2309715">
  <ele>1583.0</ele>
  <time>2026-08-28T17:54:42Z</time>
  <course>246.85</course>
  <speed>7.1548934303733684</speed>
  <fix>3d</fix>
</trkpt>
<trkpt lat="40.0709773" lon="-105.2309562">
  <ele>1583.0</ele>
  <time>2026-08-28T17:54:42Z</time>
  <course>246.0</course>
  <speed>5.68</speed>
  <fix>3d</fix>
</trkpt>
<trkpt lat="40.0709699" lon="-105.2309798">
  <ele>1582.99</ele>
  <time>2026-08-28T17:54:42Z</time>
  <course>246.83</course>
  <speed>7.79567187611177</speed>
  <fix>3d</fix>
</trkpt>
<trkpt lat="40.0709727" lon="-105.2309698">
  <ele>1583.0</ele>
  <time>2026-08-28T17:54:42Z</time>
  <course>246.0</course>
  <speed>7.04</speed>
  <fix>3d</fix>
</trkpt>
<trkpt lat="40.0709669" lon="-105.2309887">
  <ele>1582.99</ele>
  <time>2026-08-28T17:54:42Z</time>
  <course>246.81</course>
  <speed>8.408864370412928</speed>
  <fix>3d</fix>
</trkpt>
<trkpt lat="40.0709727" lon="-105.2309698">
  <ele>1583.0</ele>
  <time>2026-08-28T17:54:42Z</time>
  <course>246.0</course>
  <speed>7.04</speed>
  <fix>3d</fix>
</trkpt>
<trkpt lat="40.0709637" lon="-105.2309982">
  <ele>1582.98</ele>
  <time>2026-08-28T17:54:42Z</time>
  <course>246.79</course>
  <speed>8.990556156323144</speed>
  <fix>3d</fix>
</trkpt>
<trkpt lat="40.0709671" lon="-105.2309863">
  <ele>1583.0</ele>
  <time>2026-08-28T17:54:42Z</time>
  <course>246.0</course>
  <speed>8.27</speed>
  <fix>3d</fix>
</trkpt>
<trkpt lat="40.0709602" lon="-105.2310083">
  <ele>1582.98</ele>
  <time>2026-08-28T17:54:42Z</time>
  <course>246.76</course>
  <speed>9.549937172568205</speed>
  <fix>3d</fix>
</trkpt>
<trkpt lat="40.0709671" lon="-105.2309863">
  <ele>1583.0</ele>
  <time>2026-08-28T17:54:42Z</time>
  <course>246.0</course>
  <speed>8.27</speed>
  <fix>3d</fix>
</trkpt>
<trkpt lat="40.0709566" lon="-105.231019">
  <ele>1582.97</ele>
  <time>2026-08-28T17:54:42Z</time>
  <course>246.73</course>
  <speed>10.073857255292037</speed>
  <fix>3d</fix>
</trkpt>
<trkpt lat="40.0709671" lon="-105.2309863">
  <ele>1583.0</ele>
  <time>2026-08-28T17:54:42Z</time>
  <course>246.0</course>
  <speed>8.27</speed>
  <fix>3d</fix>
</trkpt>
<trkpt lat="40.0709529" lon="-105.2310301">
  <ele>1582.96</ele>
  <time>2026-08-28T17:54:43Z</time>
  <course>246.7</course>
  <speed>10.566271811760286</speed>
  <fix>3d</fix>
</trkpt>
<trkpt lat="40.0709606" lon="-105.2310053">
  <ele>1583.0</ele>
  <time>2026-08-28T17:54:43Z</time>
  <course>246.0</course>
  <speed>9.39</speed>
  <fix>3d</fix>
</trkpt>
<trkpt lat="40.0709489" lon="-105.2310417">
  <ele>1582.96</ele>
  <time>2026-08-28T17:54:43Z</time>
  <course>246.67</course>
  <speed>11.040335139840638</speed>
  <fix>3d</fix>
</trkpt>
<trkpt lat="40.0709606" lon="-105.2310053">
  <ele>1583.0</ele>
  <time>2026-08-28T17:54:43Z</time>
  <course>246.0</course>
  <speed>9.39</speed>
  <fix>3d</fix>
</trkpt>
<trkpt lat="40.0709448" lon="-105.2310538">
  <ele>1582.95</ele>
  <time>2026-08-28T17:54:43Z</time>
  <course>246.64</course>
  <speed>11.488102541325091</speed>
  <fix>3d</fix>
</trkpt>
<trkpt lat="40.0709533" lon="-105.2310266">
  <ele>1583.0</ele>
  <time>2026-08-28T17:54:43Z</time>
  <course>246.0</course>
  <speed>10.4</speed>
  <fix>3d</fix>
</trkpt>
<trkpt lat="40.0709406" lon="-105.2310663">
  <ele>1582.95</ele>
  <time>2026-08-28T17:54:43Z</time>
  <course>246.62</course>
  <speed>11.908354210385246</speed>
  <fix>3d</fix>
</trkpt>
<trkpt lat="40.0709533" lon="-105.2310266">
  <ele>1583.0</ele>
  <time>2026-08-28T17:54:43Z</time>
  <course>246.0</course>
  <speed>10.4</speed>
  <fix>3d</fix>
</trkpt>
<trkpt lat="40.0709362" lon="-105.2310791">
  <ele>1582.95</ele>
  <time>2026-08-28T17:54:43Z</time>
  <course>246.59</course>
  <speed>12.306291074080768</speed>
  <fix>3d</fix>
</trkpt>
<trkpt lat="40.0709454" lon="-105.2310499">
  <ele>1583.0</ele>
  <time>2026-08-28T17:54:43Z</time>
  <course>246.0</course>
  <speed>11.31</speed>
  <fix>3d</fix>
</trkpt>
<trkpt lat="40.0709316" lon="-105.2310926">
  <ele>1582.94</ele>
  <time>2026-08-28T17:54:43Z</time>
  <course>246.56</course>
  <speed>12.691071664757079</speed>
  <fix>3d</fix>
</trkpt>
<trkpt lat="40.0709368" lon="-105.2310751">
  <ele>1583.0</ele>
  <time>2026-08-28T17:54:43Z</time>
  <course>246.0</course>
  <speed>12.14</speed>
  <fix>3d</fix>
</trkpt>
<trkpt lat="40.0709268" lon="-105.2311064">
  <ele>1582.94</ele>
  <time>2026-08-28T17:54:43Z</time>
  <course>246.53</course>
  <speed>13.062687319231063</speed>
  <fix>3d</fix>
</trkpt>
<trkpt lat="40.0709368" lon="-105.2310751">
  <ele>1583.0</ele>
  <time>2026-08-28T17:54:43Z</time>
  <course>246.0</course>
  <speed>12.14</speed>
  <fix>3d</fix>
</trkpt>
<trkpt lat="40.070922" lon="-105.2311206">
  <ele>1582.93</ele>
  <time>2026-08-28T17:54:43Z</time>
  <course>246.51</course>
  <speed>13.406819160412361</speed>
  <fix>3d</fix>
</trkpt>
<trkpt lat="40.0709277" lon="-105.2311019">
  <ele>1583.0</ele>
  <time>2026-08-28T17:54:43Z</time>
  <course>246.0</course>
  <speed>12.89</speed>
  <fix>3d</fix>
</trkpt>
<trkpt lat="40.070917" lon="-105.2311352">
  <ele>1582.92</ele>
  <time>2026-08-28T17:54:43Z</time>
  <course>246.49</course>
  <speed>13.746945115188318</speed>
  <fix>3d</fix>
</trkpt>
<trkpt lat="40.0709277" lon="-105.2311019">
  <ele>1583.0</ele>
  <time>2026-08-28T17:54:43Z</time>
  <course>246.0</course>
  <speed>12.89</speed>
  <fix>3d</fix>
</trkpt>
<trkpt lat="40.0709119" lon="-105.23115">
  <ele>1582.92</ele>
  <time>2026-08-28T17:54:43Z</time>
  <course>246.47</course>
  <speed>14.055582520834916</speed>
  <fix>3d</fix>
</trkpt>
<trkpt lat="40.070918" lon="-105.2311303">
  <ele>1583.0</ele>
  <time>2026-08-28T17:54:43Z</time>
  <course>246.0</course>
  <speed>13.56</speed>
  <fix>3d</fix>
</trkpt>
<trkpt lat="40.0709066" lon="-105.2311653">
  <ele>1582.91</ele>
  <time>2026-08-28T17:54:43Z</time>
  <course>246.45</course>
  <speed>14.364222916677393</speed>
  <fix>3d</fix>
</trkpt>
<trkpt lat="40.070918" lon="-105.2311303">
  <ele>1583.0</ele>
  <time>2026-08-28T17:54:43Z</time>
  <course>246.0</course>
  <speed>13.56</speed>
  <fix>3d</fix>
</trkpt>
<trkpt lat="40.0709013" lon="-105.2311809">
  <ele>1582.91</ele>
  <time>2026-08-28T17:54:43Z</time>
  <course>246.44</course>
  <speed>14.650532413533647</speed>
  <fix>3d</fix>
</trkpt>
<trkpt lat="40.0709078" lon="-105.23116">
  <ele>1583.0</ele>
  <time>2026-08-28T17:54:43Z</time>
  <course>246.0</course>
  <speed>14.18</speed>
  <fix>3d</fix>
</trkpt>
<trkpt lat="40.0708959" lon="-105.2311968">
  <ele>1582.91</ele>
  <time>2026-08-28T17:54:43Z</time>
  <course>246.42</course>
  <speed>14.92769238696993</speed>
  <fix>3d</fix>
</trkpt>
<trkpt lat="40.0709078" lon="-105.23116">
  <ele>1583.0</ele>
  <time>2026-08-28T17:54:43Z</time>
  <course>246.0</course>
  <speed>14.18</speed>
  <fix>3d</fix>
</trkpt>
<trkpt lat="40.0708903" lon="-105.2312131">
  <ele>1582.9</ele>
  <time>2026-08-28T17:54:43Z</time>
  <course>246.41</course>
  <speed>15.182522847010636</speed>
  <fix>3d</fix>
</trkpt>
<trkpt lat="40.0708973" lon="-105.231191">
  <ele>1583.0</ele>
  <time>2026-08-28T17:54:43Z</time>
  <course>246.0</course>
  <speed>14.73</speed>
  <fix>3d</fix>
</trkpt>
<trkpt lat="40.0708846" lon="-105.2312296">
  <ele>1582.9</ele>
  <time>2026-08-28T17:54:43Z</time>
  <course>246.4</course>
  <speed>15.433317854563873</speed>
  <fix>3d</fix>
</trkpt>
<trkpt lat="40.0708973" lon="-105.231191">
  <ele>1583.0</ele>
  <time>2026-08-28T17:54:43Z</time>
  <course>246.0</course>
  <speed>14.73</speed>
  <fix>3d</fix>
</trkpt>
<trkpt lat="40.0708789" lon="-105.2312463">
  <ele>1582.9</ele>
  <time>2026-08-28T17:54:43Z</time>
  <course>246.39</course>
  <speed>15.66581628897773</speed>
  <fix>3d</fix>
</trkpt>
<trkpt lat="40.0708863" lon="-105.2312232">
  <ele>1583.0</ele>
  <time>2026-08-28T17:54:43Z</time>
  <course>246.0</course>
  <speed>15.23</speed>
  <fix>3d</fix>
</trkpt>
<trkpt lat="40.0708731" lon="-105.2312632">
  <ele>1582.9</ele>
  <time>2026-08-28T17:54:43Z</time>
  <course>246.38</course>
  <speed>15.885128265141581</speed>
  <fix>3d</fix>
</trkpt>
<trkpt lat="40.0708863" lon="-105.2312232">
  <ele>1583.0</ele>
  <time>2026-08-28T17:54:43Z</time>
  <course>246.0</course>
  <speed>15.23</speed>
  <fix>3d</fix>
</trkpt>
<trkpt lat="40.0708673" lon="-105.2312803">
  <ele>1582.9</ele>
  <time>2026-08-28T17:54:43Z</time>
  <course>246.37</course>
  <speed>16.09529434337875</speed>
  <fix>3d</fix>
</trkpt>
<trkpt lat="40.070875" lon="-105.2312564">
  <ele>1583.0</ele>
  <time>2026-08-28T17:54:43Z</time>
  <course>246.0</course>
  <speed>15.68</speed>
  <fix>3d</fix>
</trkpt>
<trkpt lat="40.0708613" lon="-105.2312977">
  <ele>1582.9</ele>
  <time>2026-08-28T17:54:43Z</time>
  <course>246.36</course>
  <speed>16.296318602678337</speed>
  <fix>3d</fix>
</trkpt>
<trkpt lat="40.070875" lon="-105.2312564">
  <ele>1583.0</ele>
  <time>2026-08-28T17:54:43Z</time>
  <course>246.0</course>
  <speed>15.68</speed>
  <fix>3d</fix>
</trkpt>
<trkpt lat="40.0708553" lon="-105.2313152">
  <ele>1582.9</ele>
  <time>2026-08-28T17:54:43Z</time>
  <course>246.35</course>
  <speed>16.48924801196222</speed>
  <fix>3d</fix>
</trkpt>
<trkpt lat="40.070875" lon="-105.2312564">
  <ele>1583.0</ele>
  <time>2026-08-28T17:54:43Z</time>
  <course>246.0</course>
  <speed>15.68</speed>
  <fix>3d</fix>
</trkpt>
<trkpt lat="40.0708493" lon="-105.2313328">
  <ele>1582.91</ele>
  <time>2026-08-28T17:54:43Z</time>
  <course>246.35</course>
  <speed>16.65879347371832</speed>
  <fix>3d</fix>
</trkpt>
<trkpt lat="40.0708633" lon="-105.2312906">
  <ele>1583.0</ele>
  <time>2026-08-28T17:54:43Z</time>
  <course>246.0</course>
  <speed>16.09</speed>
  <fix>3d</fix>
</trkpt>
<trkpt lat="40.0708433" lon="-105.2313506">
  <ele>1582.91</ele>
  <time>2026-08-28T17:54:43Z</time>
  <course>246.34</course>
  <speed>16.824291961327823</speed>
  <fix>3d</fix>
</trkpt>
<trkpt lat="40.0708633" lon="-105.2312906">
  <ele>1583.0</ele>
  <time>2026-08-28T17:54:43Z</time>
  <course>246.0</course>
  <speed>16.09</speed>
  <fix>3d</fix>
</trkpt>
<trkpt lat="40.0708372" lon="-105.2313684">
  <ele>1582.92</ele>
  <time>2026-08-28T17:54:43Z</time>
  <course>246.34</course>
  <speed>16.976595654017327</speed>
  <fix>3d</fix>
</trkpt>
<trkpt lat="40.0708514" lon="-105.2313255">
  <ele>1583.0</ele>
  <time>2026-08-28T17:54:43Z</time>
  <course>246.0</course>
  <speed>16.47</speed>
  <fix>3d</fix>
</trkpt>
<trkpt lat="40.070831" lon="-105.2313864">
  <ele>1582.92</ele>
  <time>2026-08-28T17:54:43Z</time>
  <course>246.33</course>
  <speed>17.11975759174177</speed>
  <fix>3d</fix>
</trkpt>
<trkpt lat="40.0708514" lon="-105.2313255">
  <ele>1583.0</ele>
  <time>2026-08-28T17:54:43Z</time>
  <course>246.0</course>
  <speed>16.47</speed>
  <fix>3d</fix>
</trkpt>
<trkpt lat="40.0708248" lon="-105.2314045">
  <ele>1582.93</ele>
  <time>2026-08-28T17:54:43Z</time>
  <course>246.33</course>
  <speed>17.25377929614263</speed>
  <fix>3d</fix>
</trkpt>
<trkpt lat="40.0708393" lon="-105.2313613">
  <ele>1583.0</ele>
  <time>2026-08-28T17:54:43Z</time>
  <course>246.0</course>
  <speed>16.8</speed>
  <fix>3d</fix>
</trkpt>
<trkpt lat="40.0708186" lon="-105.2314228">
  <ele>1582.94</ele>
  <time>2026-08-28T17:54:43Z</time>
  <course>246.33</course>
  <speed>17.383745281152734</speed>
  <fix>3d</fix>
</trkpt>
<trkpt lat="40.0708393" lon="-105.2313613">
  <ele>1583.0</ele>
  <time>2026-08-28T17:54:43Z</time>
  <course>246.0</course>
  <speed>16.8</speed>
  <fix>3d</fix>
</trkpt>
<trkpt lat="40.0708122" lon="-105.2314414">
  <ele>1582.94</ele>
  <time>2026-08-28T17:54:43Z</time>
  <course>246.33</course>
  <speed>17.504570831642802</speed>
  <fix>3d</fix>
</trkpt>
<trkpt lat="40.0708269" lon="-105.2313976">
  <ele>1583.0</ele>
  <time>2026-08-28T17:54:43Z</time>
  <course>246.0</course>
  <speed>17.11</speed>
  <fix>3d</fix>
</trkpt>
<trkpt lat="40.0708059" lon="-105.23146">
  <ele>1582.95</ele>
  <time>2026-08-28T17:54:43Z</time>
  <course>246.32</course>
  <speed>17.625396449441926</speed>
  <fix>3d</fix>
</trkpt>
<trkpt lat="40.0708143" lon="-105.2314346">
  <ele>1583.0</ele>
  <time>2026-08-28T17:54:43Z</time>
  <course>246.0</course>
  <speed>17.38</speed>
  <fix>3d</fix>
</trkpt>
<trkpt lat="40.0707995" lon="-105.2314788">
  <ele>1582.95</ele>
  <time>2026-08-28T17:54:43Z</time>
  <course>246.32</course>
  <speed>17.737082623701113</speed>
  <fix>3d</fix>
</trkpt>
<trkpt lat="40.0708143" lon="-105.2314346">
  <ele>1583.0</ele>
  <time>2026-08-28T17:54:43Z</time>
  <course>246.0</course>
  <speed>17.38</speed>
  <fix>3d</fix>
</trkpt>
<trkpt lat="40.070793" lon="-105.2314976">
  <ele>1582.95</ele>
  <time>2026-08-28T17:54:43Z</time>
  <course>246.32</course>
  <speed>17.844710700933202</speed>
  <fix>3d</fix>
</trkpt>
<trkpt lat="40.0708015" lon="-105.2314722">
  <ele>1583.0</ele>
  <time>2026-08-28T17:54:43Z</time>
  <course>246.0</course>
  <speed>17.63</speed>
  <fix>3d</fix>
</trkpt>
<trkpt lat="40.0707865" lon="-105.2315168">
  <ele>1582.96</ele>
  <time>2026-08-28T17:54:43Z</time>
  <course>246.32</course>
  <speed>17.956397188745854</speed>
  <fix>3d</fix>
</trkpt>
<trkpt lat="40.0708015" lon="-105.2314722">
  <ele>1583.0</ele>
  <time>2026-08-28T17:54:43Z</time>
  <course>246.0</course>
  <speed>17.63</speed>
  <fix>3d</fix>
</trkpt>
<trkpt lat="40.0707799" lon="-105.2315361">
  <ele>1582.96</ele>
  <time>2026-08-28T17:54:43Z</time>
  <course>246.32</course>
  <speed>18.054885765354484</speed>
  <fix>3d</fix>
</trkpt>
<trkpt lat="40.0707886" lon="-105.2315102">
  <ele>1583.0</ele>
  <time>2026-08-28T17:54:43Z</time>
  <course>246.0</course>
  <speed>17.85</speed>
  <fix>3d</fix>
</trkpt>
<trkpt lat="40.0707733" lon="-105.2315555">
  <ele>1582.96</ele>
  <time>2026-08-28T17:54:43Z</time>
  <course>246.33</course>
  <speed>18.15337434197841</speed>
  <fix>3d</fix>
</trkpt>
<trkpt lat="40.0707886" lon="-105.2315102">
  <ele>1583.0</ele>
  <time>2026-08-28T17:54:43Z</time>
  <course>246.0</course>
  <speed>17.85</speed>
  <fix>3d</fix>
</trkpt>
<trkpt lat="40.0707666" lon="-105.2315751">
  <ele>1582.96</ele>
  <time>2026-08-28T17:54:43Z</time>
  <course>246.33</course>
  <speed>18.251862918617377</speed>
  <fix>3d</fix>
</trkpt>
<trkpt lat="40.0707754" lon="-105.2315487">
  <ele>1583.0</ele>
  <time>2026-08-28T17:54:43Z</time>
  <course>246.0</course>
  <speed>18.06</speed>
  <fix>3d</fix>
</trkpt>
<trkpt lat="40.0707599" lon="-105.2315949">
  <ele>1582.97</ele>
  <time>2026-08-28T17:54:43Z</time>
  <course>246.33</course>
  <speed>18.29653792388057</speed>
  <fix>3d</fix>
</trkpt>
<trkpt lat="40.0707754" lon="-105.2315487">
  <ele>1583.0</ele>
  <time>2026-08-28T17:54:43Z</time>
  <course>246.0</course>
  <speed>18.06</speed>
  <fix>3d</fix>
</trkpt>
<trkpt lat="40.0707532" lon="-105.2316145">
  <ele>1582.97</ele>
  <time>2026-08-28T17:54:43Z</time>
  <course>246.33</course>
  <speed>18.251862918617377</speed>
  <fix>3d</fix>
</trkpt>
<trkpt lat="40.0707622" lon="-105.2315875">
  <ele>1583.0</ele>
  <time>2026-08-28T17:54:43Z</time>
  <course>246.0</course>
  <speed>18.16</speed>
  <fix>3d</fix>
</trkpt>
<trkpt lat="40.0707465" lon="-105.231634">
  <ele>1582.97</ele>
  <time>2026-08-28T17:54:43Z</time>
  <course>246.33</course>
  <speed>18.103623946602514</speed>
  <fix>3d</fix>
</trkpt>
<trkpt lat="40.0707622" lon="-105.2315875">
  <ele>1583.0</ele>
  <time>2026-08-28T17:54:43Z</time>
  <course>246.0</course>
  <speed>18.16</speed>
  <fix>3d</fix>
</trkpt>
<trkpt lat="40.0707399" lon="-105.2316533">
  <ele>1582.97</ele>
  <time>2026-08-28T17:54:43Z</time>
  <course>246.34</course>
  <speed>17.861970775925034</speed>
  <fix>3d</fix>
</trkpt>
<trkpt lat="40.070749" lon="-105.2316264">
  <ele>1583.0</ele>
  <time>2026-08-28T17:54:43Z</time>
  <course>246.0</course>
  <speed>17.97</speed>
  <fix>3d</fix>
</trkpt>
<trkpt lat="40.0707335" lon="-105.2316723">
  <ele>1582.97</ele>
  <time>2026-08-28T17:54:43Z</time>
  <course>246.34</course>
  <speed>17.535030652952962</speed>
  <fix>3d</fix>
</trkpt>
<trkpt lat="40.070749" lon="-105.2316264">
  <ele>1583.0</ele>
  <time>2026-08-28T17:54:43Z</time>
  <course>246.0</course>
  <speed>17.97</speed>
  <fix>3d</fix>
</trkpt>
<trkpt lat="40.0707271" lon="-105.2316908">
  <ele>1582.97</ele>
  <time>2026-08-28T17:54:43Z</time>
  <course>246.34</course>
  <speed>17.131940929153355</speed>
  <fix>3d</fix>
</trkpt>
<trkpt lat="40.070736" lon="-105.2316644">
  <ele>1583.0</ele>
  <time>2026-08-28T17:54:43Z</time>
  <course>246.0</course>
  <speed>17.41</speed>
  <fix>3d</fix>
</trkpt>
<trkpt lat="40.070721" lon="-105.2317088">
  <ele>1582.98</ele>
  <time>2026-08-28T17:54:44Z</time>
  <course>246.34</course>
  <speed>16.639498189548867</speed>
  <fix>3d</fix>
</trkpt>
<trkpt lat="40.070736" lon="-105.2316644">
  <ele>1583.0</ele>
  <time>2026-08-28T17:54:44Z</time>
  <course>246.0</course>
  <speed>17.41</speed>
  <fix>3d</fix>
</trkpt>
<trkpt lat="40.070715" lon="-105.2317263">
  <ele>1582.98</ele>
  <time>2026-08-28T17:54:44Z</time>
  <course>246.35</course>
  <speed>16.07497744943986</speed>
  <fix>3d</fix>
</trkpt>
<trkpt lat="40.070736" lon="-105.2316644">
  <ele>1583.0</ele>
  <time>2026-08-28T17:54:44Z</time>
  <course>246.0</course>
  <speed>17.41</speed>
  <fix>3d</fix>
</trkpt>
<trkpt lat="40.0707093" lon="-105.2317429">
  <ele>1582.99</ele>
  <time>2026-08-28T17:54:44Z</time>
  <course>246.35</course>
  <speed>15.430236550357872</speed>
  <fix>3d</fix>
</trkpt>
<trkpt lat="40.0707236" lon="-105.2317009">
  <ele>1583.0</ele>
  <time>2026-08-28T17:54:44Z</time>
  <course>246.0</course>
  <speed>16.53</speed>
  <fix>3d</fix>
</trkpt>
<trkpt lat="40.0707039" lon="-105.2317588">
  <ele>1582.99</ele>
  <time>2026-08-28T17:54:44Z</time>
  <course>246.35</course>
  <speed>14.722557522387204</speed>
  <fix>3d</fix>
</trkpt>
<trkpt lat="40.0707236" lon="-105.2317009">
  <ele>1583.0</ele>
  <time>2026-08-28T17:54:44Z</time>
  <course>246.0</course>
  <speed>16.53</speed>
  <fix>3d</fix>
</trkpt>
<trkpt lat="40.0706988" lon="-105.2317738">
  <ele>1583.0</ele>
  <time>2026-08-28T17:54:44Z</time>
  <course>246.36</course>
  <speed>13.98845952919763</speed>
  <fix>3d</fix>
</trkpt>
<trkpt lat="40.0707119" lon="-105.2317352">
  <ele>1583.0</ele>
  <time>2026-08-28T17:54:44Z</time>
  <course>246.0</course>
  <speed>15.35</speed>
  <fix>3d</fix>
</trkpt>
<trkpt lat="40.0706939" lon="-105.2317881">
  <ele>1583.0</ele>
  <time>2026-08-28T17:54:44Z</time>
  <course>246.36</course>
  <speed>13.280786874278194</speed>
  <fix>3d</fix>
</trkpt>
<trkpt lat="40.0707119" lon="-105.2317352">
  <ele>1583.0</ele>
  <time>2026-08-28T17:54:44Z</time>
  <course>246.0</course>
  <speed>15.35</speed>
  <fix>3d</fix>
</trkpt>
<trkpt lat="40.0706892" lon="-105.2318016">
  <ele>1583.0</ele>
  <time>2026-08-28T17:54:44Z</time>
  <course>246.36</course>
  <speed>12.613710794211194</speed>
  <fix>3d</fix>
</trkpt>
<trkpt lat="40.0707012" lon="-105.2317667">
  <ele>1583.0</ele>
  <time>2026-08-28T17:54:44Z</time>
  <course>246.0</course>
  <speed>13.99</speed>
  <fix>3d</fix>
</trkpt>
<trkpt lat="40.0706848" lon="-105.2318145">
  <ele>1583.0</ele>
  <time>2026-08-28T17:54:44Z</time>
  <course>246.36</course>
  <speed>11.968976564435241</speed>
  <fix>3d</fix>
</trkpt>
<trkpt lat="40.0706914" lon="-105.2317952">
  <ele>1583.0</ele>
  <time>2026-08-28T17:54:44Z</time>
  <course>246.0</course>
  <speed>12.66</speed>
  <fix>3d</fix>
</trkpt>
<trkpt lat="40.0706806" lon="-105.2318268">
  <ele>1583.0</ele>
  <time>2026-08-28T17:54:44Z</time>
  <course>246.36</course>
  <speed>11.368926950244688</speed>
  <fix>3d</fix>
</trkpt>
<trkpt lat="40.0706914" lon="-105.2317952">
  <ele>1583.0</ele>
  <time>2026-08-28T17:54:44Z</time>
  <course>246.0</course>
  <speed>12.66</speed>
  <fix>3d</fix>
</trkpt>
<trkpt lat="40.0706766" lon="-105.2318384">
  <ele>1583.0</ele>
  <time>2026-08-28T17:54:44Z</time>
  <course>246.36</course>
  <speed>10.791223285615029</speed>
  <fix>3d</fix>
</trkpt>
<trkpt lat="40.0706827" lon="-105.231821">
  <ele>1583.0</ele>
  <time>2026-08-28T17:54:44Z</time>
  <course>246.0</course>
  <speed>11.46</speed>
  <fix>3d</fix>
</trkpt>
<trkpt lat="40.0706729" lon="-105.2318494">
  <ele>1582.99</ele>
  <time>2026-08-28T17:54:44Z</time>
  <course>246.36</course>
  <speed>10.254101618376913</speed>
  <fix>3d</fix>
</trkpt>
<trkpt lat="40.0706827" lon="-105.231821">
  <ele>1583.0</ele>
  <time>2026-08-28T17:54:44Z</time>
  <course>246.0</course>
  <speed>11.46</speed>
  <fix>3d</fix>
</trkpt>
<trkpt lat="40.0706692" lon="-105.2318599">
  <ele>1582.99</ele>
  <time>2026-08-28T17:54:44Z</time>
  <course>246.36</course>
  <speed>9.730205547674725</speed>
  <fix>3d</fix>
</trkpt>
<trkpt lat="40.0706747" lon="-105.2318444">
  <ele>1583.0</ele>
  <time>2026-08-28T17:54:44Z</time>
  <course>246.0</course>
  <speed>10.36</speed>
  <fix>3d</fix>
</trkpt>
<trkpt lat="40.0706658" lon="-105.23187">
  <ele>1582.99</ele>
  <time>2026-08-28T17:54:44Z</time>
  <course>246.35</course>
  <speed>9.23777029374513</speed>
  <fix>3d</fix>
</trkpt>
<trkpt lat="40.0706747" lon="-105.2318444">
  <ele>1583.0</ele>
  <time>2026-08-28T17:54:44Z</time>
  <course>246.0</course>
  <speed>10.36</speed>
  <fix>3d</fix>
</trkpt>
<trkpt lat="40.0706625" lon="-105.2318795">
  <ele>1582.98</ele>
  <time>2026-08-28T17:54:44Z</time>
  <course>246.35</course>
  <speed>8.767679282455534</speed>
  <fix>3d</fix>
</trkpt>
<trkpt lat="40.0706675" lon="-105.2318656">
  <ele>1583.0</ele>
  <time>2026-08-28T17:54:44Z</time>
  <course>246.0</course>
  <speed>9.38</speed>
  <fix>3d</fix>
</trkpt>
<trkpt lat="40.0706594" lon="-105.2318886">
  <ele>1582.98</ele>
  <time>2026-08-28T17:54:44Z</time>
  <course>246.34</course>
  <speed>8.31581625578632</speed>
  <fix>3d</fix>
</trkpt>
<trkpt lat="40.0706675" lon="-105.2318656">
  <ele>1583.0</ele>
  <time>2026-08-28T17:54:44Z</time>
  <course>246.0</course>
  <speed>9.38</speed>
  <fix>3d</fix>
</trkpt>
<trkpt lat="40.0706565" lon="-105.2318973">
  <ele>1582.98</ele>
  <time>2026-08-28T17:54:44Z</time>
  <course>246.34</course>
  <speed>7.899525302193797</speed>
  <fix>3d</fix>
</trkpt>
<trkpt lat="40.070661" lon="-105.2318847">
  <ele>1583.0</ele>
  <time>2026-08-28T17:54:44Z</time>
  <course>246.0</course>
  <speed>8.49</speed>
  <fix>3d</fix>
</trkpt>
<trkpt lat="40.0706537" lon="-105.2319054">
  <ele>1582.97</ele>
  <time>2026-08-28T17:54:44Z</time>
  <course>246.33</course>
  <speed>7.4923494312531895</speed>
  <fix>3d</fix>
</trkpt>
<trkpt lat="40.070661" lon="-105.2318847">
  <ele>1583.0</ele>
  <time>2026-08-28T17:54:44Z</time>
  <course>246.0</course>
  <speed>8.49</speed>
  <fix>3d</fix>
</trkpt>
<trkpt lat="40.070651" lon="-105.2319132">
  <ele>1582.97</ele>
  <time>2026-08-28T17:54:44Z</time>
  <course>246.33</course>
  <speed>7.11163131777794</speed>
  <fix>3d</fix>
</trkpt>
<trkpt lat="40.070655" lon="-105.231902">
  <ele>1583.0</ele>
  <time>2026-08-28T17:54:44Z</time>
  <course>246.0</course>
  <speed>7.68</speed>
  <fix>3d</fix>
</trkpt>
<trkpt lat="40.0706485" lon="-105.2319206">
  <ele>1582.96</ele>
  <time>2026-08-28T17:54:44Z</time>
  <course>246.32</course>
  <speed>6.749140686042928</speed>
  <fix>3d</fix>
</trkpt>
<trkpt lat="40.070655" lon="-105.231902">
  <ele>1583.0</ele>
  <time>2026-08-28T17:54:44Z</time>
  <course>246.0</course>
  <speed>7.68</speed>
  <fix>3d</fix>
</trkpt>
<trkpt lat="40.0706461" lon="-105.2319276">
  <ele>1582.96</ele>
  <time>2026-08-28T17:54:44Z</time>
  <course>246.32</course>
  <speed>6.395764223296541</speed>
  <fix>3d</fix>
</trkpt>
<trkpt lat="40.0706497" lon="-105.2319177">
  <ele>1583.0</ele>
  <time>2026-08-28T17:54:44Z</time>
  <course>246.0</course>
  <speed>6.95</speed>
  <fix>3d</fix>
</trkpt>
<trkpt lat="40.0706439" lon="-105.2319343">
  <ele>1582.95</ele>
  <time>2026-08-28T17:54:44Z</time>
  <course>246.32</course>
  <speed>6.06884667791171</speed>
  <fix>3d</fix>
</trkpt>
<trkpt lat="40.0706497" lon="-105.2319177">
  <ele>1583.0</ele>
  <time>2026-08-28T17:54:44Z</time>
  <course>246.0</course>
  <speed>6.95</speed>
  <fix>3d</fix>
</trkpt>
<trkpt lat="40.0706417" lon="-105.2319406">
  <ele>1582.95</ele>
  <time>2026-08-28T17:54:44Z</time>
  <course>246.32</course>
  <speed>5.760156247880781</speed>
  <fix>3d</fix>
</trkpt>
<trkpt lat="40.0706497" lon="-105.2319177">
  <ele>1583.0</ele>
  <time>2026-08-28T17:54:44Z</time>
  <course>246.0</course>
  <speed>6.95</speed>
  <fix>3d</fix>
</trkpt>
<trkpt lat="40.0706397" lon="-105.2319466">
  <ele>1582.95</ele>
  <time>2026-08-28T17:54:44Z</time>
  <course>246.31</course>
  <speed>5.464695782932478</speed>
  <fix>3d</fix>
</trkpt>
<trkpt lat="40.0706449" lon="-105.2319319">
  <ele>1583.0</ele>
  <time>2026-08-28T17:54:44Z</time>
  <course>246.0</course>
  <speed>6.28</speed>
  <fix>3d</fix>
</trkpt>
<trkpt lat="40.0706377" lon="-105.2319523">
  <ele>1582.95</ele>
  <time>2026-08-28T17:54:44Z</time>
  <course>246.31</course>
  <speed>5.178349157791506</speed>
  <fix>3d</fix>
</trkpt>
<trkpt lat="40.0706449" lon="-105.2319319">
  <ele>1583.0</ele>
  <time>2026-08-28T17:54:44Z</time>
  <course>246.0</course>
  <speed>6.28</speed>
  <fix>3d</fix>
</trkpt>
<trkpt lat="40.0706359" lon="-105.2319577">
  <ele>1582.94</ele>
  <time>2026-08-28T17:54:44Z</time>
  <course>246.31</course>
  <speed>4.905231900736193</speed>
  <fix>3d</fix>
</trkpt>
<trkpt lat="40.0706405" lon="-105.2319448">
  <ele>1583.0</ele>
  <time>2026-08-28T17:54:44Z</time>
  <course>246.0</course>
  <speed>5.68</speed>
  <fix>3d</fix>
</trkpt>
<trkpt lat="40.0706342" lon="-105.2319629">
  <ele>1582.94</ele>
  <time>2026-08-28T17:54:44Z</time>
  <course>246.31</course>
  <speed>4.650344073291782</speed>
  <fix>3d</fix>
</trkpt>
<trkpt lat="40.0706405" lon="-105.2319448">
  <ele>1583.0</ele>
  <time>2026-08-28T17:54:44Z</time>
  <course>246.0</course>
  <speed>5.68</speed>
  <fix>3d</fix>
</trkpt>
<trkpt lat="40.0706325" lon="-105.2319677">
  <ele>1582.94</ele>
  <time>2026-08-28T17:54:44Z</time>
  <course>246.31</course>
  <speed>4.408684611082993</speed>
  <fix>3d</fix>
</trkpt>
<trkpt lat="40.0706366" lon="-105.2319564">
  <ele>1583.0</ele>
  <time>2026-08-28T17:54:44Z</time>
  <course>246.0</course>
  <speed>5.14</speed>
  <fix>3d</fix>
</trkpt>
<trkpt lat="40.0706309" lon="-105.2319724">
  <ele>1582.94</ele>
  <time>2026-08-28T17:54:44Z</time>
  <course>246.3</course>
  <speed>4.1761465491526994</speed>
  <fix>3d</fix>
</trkpt>
<trkpt lat="40.0706366" lon="-105.2319564">
  <ele>1583.0</ele>
  <time>2026-08-28T17:54:44Z</time>
  <course>246.0</course>
  <speed>5.14</speed>
  <fix>3d</fix>
</trkpt>
<trkpt lat="40.0706294" lon="-105.2319768">
  <ele>1582.95</ele>
  <time>2026-08-28T17:54:44Z</time>
  <course>246.3</course>
  <speed>3.956829538911172</speed>
  <fix>3d</fix>
</trkpt>
<trkpt lat="40.070633" lon="-105.2319669">
  <ele>1583.0</ele>
  <time>2026-08-28T17:54:44Z</time>
  <course>246.0</course>
  <speed>4.65</speed>
  <fix>3d</fix>
</trkpt>
<trkpt lat="40.070628" lon="-105.231981">
  <ele>1582.95</ele>
  <time>2026-08-28T17:54:44Z</time>
  <course>246.3</course>
  <speed>3.750733261643648</speed>
  <fix>3d</fix>
</trkpt>
<trkpt lat="40.0706297" lon="-105.2319763">
  <ele>1583.0</ele>
  <time>2026-08-28T17:54:44Z</time>
  <course>246.0</course>
  <speed>4.21</speed>
  <fix>3d</fix>
</trkpt>
<trkpt lat="40.0706267" lon="-105.2319851">
  <ele>1582.95</ele>
  <time>2026-08-28T17:54:44Z</time>
  <course>246.3</course>
  <speed>3.5537585736794224</speed>
  <fix>3d</fix>
</trkpt>
<trkpt lat="40.0706297" lon="-105.2319763">
  <ele>1583.0</ele>
  <time>2026-08-28T17:54:44Z</time>
  <course>246.0</course>
  <speed>4.21</speed>
  <fix>3d</fix>
</trkpt>
<trkpt lat="40.0706254" lon="-105.2319889">
  <ele>1582.95</ele>
  <time>2026-08-28T17:54:44Z</time>
  <course>246.3</course>
  <speed>3.3659025535508302</speed>
  <fix>3d</fix>
</trkpt>
<trkpt lat="40.0706268" lon="-105.231985">
  <ele>1583.0</ele>
  <time>2026-08-28T17:54:44Z</time>
  <course>246.0</course>
  <speed>3.81</speed>
  <fix>3d</fix>
</trkpt>
<trkpt lat="40.0706241" lon="-105.2319925">
  <ele>1582.95</ele>
  <time>2026-08-28T17:54:44Z</time>
  <course>246.3</course>
  <speed>3.200390601161052</speed>
  <fix>3d</fix>
</trkpt>
<trkpt lat="40.0706268" lon="-105.231985">
  <ele>1583.0</ele>
  <time>2026-08-28T17:54:44Z</time>
  <course>246.0</course>
  <speed>3.81</speed>
  <fix>3d</fix>
</trkpt>
<trkpt lat="40.070623" lon="-105.231996">
  <ele>1582.95</ele>
  <time>2026-08-28T17:54:44Z</time>
  <course>246.31</course>
  <speed>3.025756103852391</speed>
  <fix>3d</fix>
</trkpt>
<trkpt lat="40.0706241" lon="-105.2319928">
  <ele>1583.0</ele>
  <time>2026-08-28T17:54:44Z</time>
  <course>246.0</course>
  <speed>3.45</speed>
  <fix>3d</fix>
</trkpt>
<trkpt lat="40.0706218" lon="-105.2319994">
  <ele>1582.95</ele>
  <time>2026-08-28T17:54:44Z</time>
  <course>246.31</course>
  <speed>2.869372753756472</speed>
  <fix>3d</fix>
</trkpt>
<trkpt lat="40.0706241" lon="-105.2319928">
  <ele>1583.0</ele>
  <time>2026-08-28T17:54:44Z</time>
  <course>246.0</course>
  <speed>3.45</speed>
  <fix>3d</fix>
</trkpt>
<trkpt lat="40.0706207" lon="-105.2320026">
  <ele>1582.95</ele>
  <time>2026-08-28T17:54:44Z</time>
  <course>246.31</course>
  <speed>2.717075633838705</speed>
  <fix>3d</fix>
</trkpt>
<trkpt lat="40.0706217" lon="-105.2319998">
  <ele>1583.0</ele>
  <time>2026-08-28T17:54:44Z</time>
  <course>246.0</course>
  <speed>3.12</speed>
  <fix>3d</fix>
</trkpt>
<trkpt lat="40.0706197" lon="-105.2320056">
  <ele>1582.95</ele>
  <time>2026-08-28T17:54:44Z</time>
  <course>246.31</course>
  <speed>2.5830408436569483</speed>
  <fix>3d</fix>
</trkpt>
<trkpt lat="40.0706217" lon="-105.2319998">
  <ele>1583.0</ele>
  <time>2026-08-28T17:54:44Z</time>
  <course>246.0</course>
  <speed>3.12</speed>
  <fix>3d</fix>
</trkpt>
<trkpt lat="40.0706187" lon="-105.2320085">
  <ele>1582.95</ele>
  <time>2026-08-28T17:54:44Z</time>
  <course>246.31</course>
  <speed>2.4490202122481555</speed>
  <fix>3d</fix>
</trkpt>
<trkpt lat="40.0706196" lon="-105.2320062">
  <ele>1583.0</ele>
  <time>2026-08-28T17:54:44Z</time>
  <course>246.0</course>
  <speed>2.82</speed>
  <fix>3d</fix>
</trkpt>
<trkpt lat="40.0706178" lon="-105.2320112">
  <ele>1582.95</ele>
  <time>2026-08-28T17:54:44Z</time>
  <course>246.31</course>
  <speed>2.319051530259731</speed>
  <fix>3d</fix>
</trkpt>
<trkpt lat="40.0706196" lon="-105.2320062">
  <ele>1583.0</ele>
  <time>2026-08-28T17:54:44Z</time>
  <course>246.0</course>
  <speed>2.82</speed>
  <fix>3d</fix>
</trkpt>
<trkpt lat="40.0706169" lon="-105.2320138">
  <ele>1582.95</ele>
  <time>2026-08-28T17:54:44Z</time>
  <course>246.32</course>
  <speed>2.198226557932553</speed>
  <fix>3d</fix>
</trkpt>
<trkpt lat="40.0706176" lon="-105.2320119">
  <ele>1583.0</ele>
  <time>2026-08-28T17:54:44Z</time>
  <course>246.0</course>
  <speed>2.55</speed>
  <fix>3d</fix>
</trkpt>
<trkpt lat="40.0706161" lon="-105.2320164">
  <ele>1582.95</ele>
  <time>2026-08-28T17:54:45Z</time>
  <course>246.32</course>
  <speed>2.086552180032889</speed>
  <fix>3d</fix>
</trkpt>
<trkpt lat="40.0706176" lon="-105.2320119">
  <ele>1583.0</ele>
  <time>2026-08-28T17:54:45Z</time>
  <course>246.0</course>
  <speed>2.55</speed>
  <fix>3d</fix>
</trkpt>
<trkpt lat="40.0706153" lon="-105.2320187">
  <ele>1582.95</ele>
  <time>2026-08-28T17:54:45Z</time>
  <course>246.32</course>
  <speed>1.9789138435010252</speed>
  <fix>3d</fix>
</trkpt>
<trkpt lat="40.0706158" lon="-105.2320172">
  <ele>1583.0</ele>
  <time>2026-08-28T17:54:45Z</time>
  <course>246.0</course>
  <speed>2.31</speed>
  <fix>3d</fix>
</trkpt>
<trkpt lat="40.0706145" lon="-105.232021">
  <ele>1582.96</ele>
  <time>2026-08-28T17:54:45Z</time>
  <course>246.32</course>
  <speed>1.8804254837669054</speed>
  <fix>3d</fix>
</trkpt>
<trkpt lat="40.0706158" lon="-105.2320172">
  <ele>1583.0</ele>
  <time>2026-08-28T17:54:45Z</time>
  <course>246.0</course>
  <speed>2.31</speed>
  <fix>3d</fix>
</trkpt>
<trkpt lat="40.0706138" lon="-105.2320231">
  <ele>1582.96</ele>
  <time>2026-08-28T17:54:45Z</time>
  <course>246.33</course>
  <speed>1.7779201331893397</speed>
  <fix>3d</fix>
</trkpt>
<trkpt lat="40.0706158" lon="-105.2320172">
  <ele>1583.0</ele>
  <time>2026-08-28T17:54:45Z</time>
  <course>246.0</course>
  <speed>2.31</speed>
  <fix>3d</fix>
</trkpt>
<trkpt lat="40.0706131" lon="-105.2320252">
  <ele>1582.97</ele>
  <time>2026-08-28T17:54:45Z</time>
  <course>246.33</course>
  <speed>1.6926015479137433</speed>
  <fix>3d</fix>
</trkpt>
<trkpt lat="40.0706142" lon="-105.2320219">
  <ele>1583.0</ele>
  <time>2026-08-28T17:54:45Z</time>
  <course>246.0</course>
  <speed>2.09</speed>
  <fix>3d</fix>
</trkpt>
<trkpt lat="40.0706125" lon="-105.2320271">
  <ele>1582.98</ele>
  <time>2026-08-28T17:54:45Z</time>
  <course>246.33</course>
  <speed>1.603277892319357</speed>
  <fix>3d</fix>
</trkpt>
<trkpt lat="40.0706142" lon="-105.2320219">
  <ele>1583.0</ele>
  <time>2026-08-28T17:54:45Z</time>
  <course>246.0</course>
  <speed>2.09</speed>
  <fix>3d</fix>
</trkpt>
<trkpt lat="40.0706119" lon="-105.232029">
  <ele>1582.98</ele>
  <time>2026-08-28T17:54:45Z</time>
  <course>246.33</course>
  <speed>1.513968295572929</speed>
  <fix>3d</fix>
</trkpt>
<trkpt lat="40.0706128" lon="-105.2320262">
  <ele>1583.0</ele>
  <time>2026-08-28T17:54:45Z</time>
  <course>246.0</course>
  <speed>1.89</speed>
  <fix>3d</fix>
</trkpt>
<trkpt lat="40.0706113" lon="-105.2320307">
  <ele>1582.99</ele>
  <time>2026-08-28T17:54:45Z</time>
  <course>246.34</course>
  <speed>1.437810835958611</speed>
  <fix>3d</fix>
</trkpt>
<trkpt lat="40.0706128" lon="-105.2320262">
  <ele>1583.0</ele>
  <time>2026-08-28T17:54:45Z</time>
  <course>246.0</course>
  <speed>1.89</speed>
  <fix>3d</fix>
</trkpt>
<trkpt lat="40.0706107" lon="-105.2320324">
  <ele>1582.99</ele>
  <time>2026-08-28T17:54:45Z</time>
  <course>246.34</course>
  <speed>1.3708391590555036</speed>
  <fix>3d</fix>
</trkpt>
<trkpt lat="40.0706115" lon="-105.23203">
  <ele>1583.0</ele>
  <time>2026-08-28T17:54:45Z</time>
  <course>246.0</course>
  <speed>1.71</speed>
  <fix>3d</fix>
</trkpt>
<trkpt lat="40.0706102" lon="-105.232034">
  <ele>1582.99</ele>
  <time>2026-08-28T17:54:45Z</time>
  <course>246.34</course>
  <speed>1.2946814279968644</speed>
  <fix>3d</fix>
</trkpt>
<trkpt lat="40.0706103" lon="-105.2320335">
  <ele>1583.0</ele>
  <time>2026-08-28T17:54:45Z</time>
  <course>246.0</course>
  <speed>1.55</speed>
  <fix>3d</fix>
</trkpt>
<trkpt lat="40.0706097" lon="-105.2320356">
  <ele>1583.0</ele>
  <time>2026-08-28T17:54:45Z</time>
  <course>246.34</course>
  <speed>1.2277214667830811</speed>
  <fix>3d</fix>
</trkpt>
<trkpt lat="40.0706103" lon="-105.2320335">
  <ele>1583.0</ele>
  <time>2026-08-28T17:54:45Z</time>
  <course>246.0</course>
  <speed>1.55</speed>
  <fix>3d</fix>
</trkpt>
<trkpt lat="40.0706092" lon="-105.232037">
  <ele>1583.0</ele>
  <time>2026-08-28T17:54:45Z</time>
  <course>246.35</course>
  <speed>1.17</speed>
  <fix>3d</fix>
</trkpt>
<trkpt lat="40.0706092" lon="-105.2320367">
  <ele>1583.0</ele>
  <time>2026-08-28T17:54:45Z</time>
  <course>246.0</course>
  <speed>1.4</speed>
  <fix>3d</fix>
</trkpt>
<trkpt lat="40.0706087" lon="-105.2320385">
  <ele>1583.01</ele>
  <time>2026-08-28T17:54:45Z</time>
  <course>246.35</course>
  <speed>1.1069326989478627</speed>
  <fix>3d</fix>
</trkpt>
<trkpt lat="40.0706092" lon="-105.2320367">
  <ele>1583.0</ele>
  <time>2026-08-28T17:54:45Z</time>
  <course>246.0</course>
  <speed>1.4</speed>
  <fix>3d</fix>
</trkpt>
<trkpt lat="40.0706083" lon="-105.2320398">
  <ele>1583.01</ele>
  <time>2026-08-28T17:54:45Z</time>
  <course>246.35</course>
  <speed>1.0530906893520615</speed>
  <fix>3d</fix>
</trkpt>
<trkpt lat="40.0706082" lon="-105.2320395">
  <ele>1583.0</ele>
  <time>2026-08-28T17:54:45Z</time>
  <course>246.0</course>
  <speed>1.26</speed>
  <fix>3d</fix>
</trkpt>
<trkpt lat="40.0706078" lon="-105.2320411">
  <ele>1583.01</ele>
  <time>2026-08-28T17:54:45Z</time>
  <course>246.36</course>
  <speed>1.0046392387319938</speed>
  <fix>3d</fix>
</trkpt>
<trkpt lat="40.0706082" lon="-105.2320395">
  <ele>1583.0</ele>
  <time>2026-08-28T17:54:45Z</time>
  <course>246.0</course>
  <speed>1.26</speed>
  <fix>3d</fix>
</trkpt>
<trkpt lat="40.0706074" lon="-105.2320423">
  <ele>1583.01</ele>
  <time>2026-08-28T17:54:45Z</time>
  <course>246.36</course>
  <speed>0.950789145920377</speed>
  <fix>3d</fix>
</trkpt>
<trkpt lat="40.0706073" lon="-105.2320421">
  <ele>1583.0</ele>
  <time>2026-08-28T17:54:45Z</time>
  <course>246.0</course>
  <speed>1.14</speed>
  <fix>3d</fix>
</trkpt>
<trkpt lat="40.070607" lon="-105.2320435">
  <ele>1583.01</ele>
  <time>2026-08-28T17:54:45Z</time>
  <course>246.36</course>
  <speed>0.9062008607367353</speed>
  <fix>3d</fix>
</trkpt>
<trkpt lat="40.0706073" lon="-105.2320421">
  <ele>1583.0</ele>
  <time>2026-08-28T17:54:45Z</time>
  <course>246.0</course>
  <speed>1.14</speed>
  <fix>3d</fix>
</trkpt>
<trkpt lat="40.0706067" lon="-105.2320446">
  <ele>1583.01</ele>
  <time>2026-08-28T17:54:45Z</time>
  <course>246.36</course>
  <speed>0.8616263691415206</speed>
  <fix>3d</fix>
</trkpt>
<trkpt lat="40.0706065" lon="-105.2320445">
  <ele>1583.0</ele>
  <time>2026-08-28T17:54:45Z</time>
  <course>246.0</course>
  <speed>1.03</speed>
  <fix>3d</fix>
</trkpt>
<trkpt lat="40.0706063" lon="-105.2320457">
  <ele>1583.02</ele>
  <time>2026-08-28T17:54:45Z</time>
  <course>246.37</course>
  <speed>0.8207923001588161</speed>
  <fix>3d</fix>
</trkpt>
<trkpt lat="40.0706065" lon="-105.2320445">
  <ele>1583.0</ele>
  <time>2026-08-28T17:54:45Z</time>
  <course>246.0</course>
  <speed>1.03</speed>
  <fix>3d</fix>
</trkpt>
<trkpt lat="40.070606" lon="-105.2320467">
  <ele>1583.02</ele>
  <time>2026-08-28T17:54:45Z</time>
  <course>246.37</course>
  <speed>0.7762087348130012</speed>
  <fix>3d</fix>
</trkpt>
<trkpt lat="40.0706058" lon="-105.2320465">
  <ele>1583.0</ele>
  <time>2026-08-28T17:54:45Z</time>
  <course>246.0</course>
  <speed>0.94</speed>
  <fix>3d</fix>
</trkpt>
<trkpt lat="40.0706057" lon="-105.2320477">
  <ele>1583.02</ele>
  <time>2026-08-28T17:54:45Z</time>
  <course>246.37</course>
  <speed>0.7409453421137081</speed>
  <fix>3d</fix>
</trkpt>
<trkpt lat="40.0706058" lon="-105.2320465">
  <ele>1583.0</ele>
  <time>2026-08-28T17:54:45Z</time>
  <course>246.0</course>
  <speed>0.94</speed>
  <fix>3d</fix>
</trkpt>
<trkpt lat="40.0706054" lon="-105.2320486">
  <ele>1583.02</ele>
  <time>2026-08-28T17:54:45Z</time>
  <course>246.38</course>
  <speed>0.709365914038728</speed>
  <fix>3d</fix>
</trkpt>
<trkpt lat="40.0706052" lon="-105.2320485">
  <ele>1583.0</ele>
  <time>2026-08-28T17:54:45Z</time>
  <course>246.0</course>
  <speed>0.85</speed>
  <fix>3d</fix>
</trkpt>
<trkpt lat="40.0706051" lon="-105.2320495">
  <ele>1583.02</ele>
  <time>2026-08-28T17:54:45Z</time>
  <course>246.3</course>
  <speed>0.696419413859206</speed>
  <fix>3d</fix>
</trkpt>
<trkpt lat="40.0706052" lon="-105.2320485">
  <ele>1583.0</ele>
  <time>2026-08-28T17:54:45Z</time>
  <course>246.0</course>
  <speed>0.85</speed>
  <fix>3d</fix>
</trkpt>
<trkpt lat="40.0706048" lon="-105.2320503">
  <ele>1583.02</ele>
  <time>2026-08-28T17:54:45Z</time>
  <course>246.21</course>
  <speed>0.6777905281132217</speed>
  <fix>3d</fix>
</trkpt>
<trkpt lat="40.0706052" lon="-105.2320485">
  <ele>1583.0</ele>
  <time>2026-08-28T17:54:45Z</time>
  <course>246.0</course>
  <speed>0.85</speed>
  <fix>3d</fix>
</trkpt>
<trkpt lat="40.0706045" lon="-105.2320512">
  <ele>1583.03</ele>
  <time>2026-08-28T17:54:45Z</time>
  <course>246.16</course>
  <speed>0.6555150646628953</speed>
  <fix>3d</fix>
</trkpt>
<trkpt lat="40.0706045" lon="-105.2320503">
  <ele>1583.0</ele>
  <time>2026-08-28T17:54:45Z</time>
  <course>245.91</course>
  <speed>0.79</speed>
  <fix>3d</fix>
</trkpt>
<trkpt lat="40.0706042" lon="-105.232052">
  <ele>1583.03</ele>
  <time>2026-08-28T17:54:45Z</time>
  <course>246.16</course>
  <speed>0.620322496770833</speed>
  <fix>3d</fix>
</trkpt>
<trkpt lat="40.0706045" lon="-105.2320503">
  <ele>1583.0</ele>
  <time>2026-08-28T17:54:45Z</time>
  <course>245.91</course>
  <speed>0.79</speed>
  <fix>3d</fix>
</trkpt>
<trkpt lat="40.070604" lon="-105.2320527">
  <ele>1583.03</ele>
  <time>2026-08-28T17:54:45Z</time>
  <course>246.16</course>
  <speed>0.5887274411814011</speed>
  <fix>3d</fix>
</trkpt>
<trkpt lat="40.070604" lon="-105.2320519">
  <ele>1583.0</ele>
  <time>2026-08-28T17:54:45Z</time>
  <course>245.8</course>
  <speed>0.73</speed>
  <fix>3d</fix>
</trkpt>
<trkpt lat="40.0706037" lon="-105.2320535">
  <ele>1583.02</ele>
  <time>2026-08-28T17:54:45Z</time>
  <course>246.16</course>
  <speed>0.5664803615307419</speed>
  <fix>3d</fix>
</trkpt>
<trkpt lat="40.070604" lon="-105.2320519">
  <ele>1583.0</ele>
  <time>2026-08-28T17:54:45Z</time>
  <course>245.8</course>
  <speed>0.73</speed>
  <fix>3d</fix>
</trkpt>
<trkpt lat="40.0706035" lon="-105.2320542">
  <ele>1583.02</ele>
  <time>2026-08-28T17:54:45Z</time>
  <course>246.16</course>
  <speed>0.5348831648126533</speed>
  <fix>3d</fix>
</trkpt>
<trkpt lat="40.0706035" lon="-105.2320534">
  <ele>1583.0</ele>
  <time>2026-08-28T17:54:45Z</time>
  <course>245.77</course>
  <speed>0.66</speed>
  <fix>3d</fix>
</trkpt>
<trkpt lat="40.0706033" lon="-105.2320548">
  <ele>1583.02</ele>
  <time>2026-08-28T17:54:45Z</time>
  <course>246.16</course>
  <speed>0.5126402247190519</speed>
  <fix>3d</fix>
</trkpt>
<trkpt lat="40.0706035" lon="-105.2320534">
  <ele>1583.0</ele>
  <time>2026-08-28T17:54:45Z</time>
  <course>245.77</course>
  <speed>0.66</speed>
  <fix>3d</fix>
</trkpt>
<trkpt lat="40.0706031" lon="-105.2320555">
  <ele>1583.02</ele>
  <time>2026-08-28T17:54:45Z</time>
  <course>246.17</course>
  <speed>0.49040799340956914</speed>
  <fix>3d</fix>
</trkpt>
<trkpt lat="40.070603" lon="-105.2320548">
  <ele>1583.0</ele>
  <time>2026-08-28T17:54:45Z</time>
  <course>245.77</course>
  <speed>0.6</speed>
  <fix>3d</fix>
</trkpt>
<trkpt lat="40.0706029" lon="-105.2320561">
  <ele>1583.02</ele>
  <time>2026-08-28T17:54:45Z</time>
  <course>246.17</course>
  <speed>0.468187996428785</speed>
  <fix>3d</fix>
</trkpt>
<trkpt lat="40.0706026" lon="-105.232056">
  <ele>1583.0</ele>
  <time>2026-08-28T17:54:45Z</time>
  <course>245.77</course>
  <speed>0.54</speed>
  <fix>3d</fix>
</trkpt>
<trkpt lat="40.0706027" lon="-105.2320567">
  <ele>1583.02</ele>
  <time>2026-08-28T17:54:45Z</time>
  <course>246.17</course>
  <speed>0.4459820624195552</speed>
  <fix>3d</fix>
</trkpt>
<trkpt lat="40.0706026" lon="-105.232056">
  <ele>1583.0</ele>
  <time>2026-08-28T17:54:45Z</time>
  <course>245.77</course>
  <speed>0.54</speed>
  <fix>3d</fix>
</trkpt>
<trkpt lat="40.0706025" lon="-105.2320572">
  <ele>1583.02</ele>
  <time>2026-08-28T17:54:45Z</time>
  <course>246.17</course>
  <speed>0.42379240200834184</speed>
  <fix>3d</fix>
</trkpt>
<trkpt lat="40.0706021" lon="-105.2320571">
  <ele>1583.0</ele>
  <time>2026-08-28T17:54:45Z</time>
  <course>245.77</course>
  <speed>0.49</speed>
  <fix>3d</fix>
</trkpt>
<trkpt lat="40.0706023" lon="-105.2320577">
  <ele>1583.02</ele>
  <time>2026-08-28T17:54:45Z</time>
  <course>246.17</course>
  <speed>0.41109609582188933</speed>
  <fix>3d</fix>
</trkpt>
<trkpt lat="40.0706021" lon="-105.2320571">
  <ele>1583.0</ele>
  <time>2026-08-28T17:54:45Z</time>
  <course>245.77</course>
  <speed>0.49</speed>
  <fix>3d</fix>
</trkpt>
<trkpt lat="40.0706021" lon="-105.2320582">
  <ele>1583.02</ele>
  <time>2026-08-28T17:54:45Z</time>
  <course>246.17</course>
  <speed>0.3921734310225516</speed>
  <fix>3d</fix>
</trkpt>
<trkpt lat="40.0706018" lon="-105.2320581">
  <ele>1583.0</ele>
  <time>2026-08-28T17:54:45Z</time>
  <course>245.77</course>
  <speed>0.44</speed>
  <fix>3d</fix>
</trkpt>
<trkpt lat="40.0706019" lon="-105.2320587">
  <ele>1583.01</ele>
  <time>2026-08-28T17:54:45Z</time>
  <course>246.17</course>
  <speed>0.37</speed>
  <fix>3d</fix>
</trkpt>
<trkpt lat="40.0706018" lon="-105.2320581">
  <ele>1583.0</ele>
  <time>2026-08-28T17:54:45Z</time>
  <course>245.77</course>
  <speed>0.44</speed>
  <fix>3d</fix>
</trkpt>
<trkpt lat="40.0706018" lon="-105.2320592">
  <ele>1583.01</ele>
  <time>2026-08-28T17:54:45Z</time>
  <course>246.17</course>
  <speed>0.35735136770411274</speed>
  <fix>3d</fix>
</trkpt>
<trkpt lat="40.0706015" lon="-105.232059">
  <ele>1583.0</ele>
  <time>2026-08-28T17:54:45Z</time>
  <course>245.77</course>
  <speed>0.4</speed>
  <fix>3d</fix>
</trkpt>
<trkpt lat="40.0706016" lon="-105.2320596">
  <ele>1583.01</ele>
  <time>2026-08-28T17:54:45Z</time>
  <course>246.17</course>
  <speed>0.3478505426185217</speed>
  <fix>3d</fix>
</trkpt>
<trkpt lat="40.0706015" lon="-105.232059">
  <ele>1583.0</ele>
  <time>2026-08-28T17:54:45Z</time>
  <course>245.77</course>
  <speed>0.4</speed>
  <fix>3d</fix>
</trkpt>
<trkpt lat="40.0706015" lon="-105.23206">
  <ele>1583.01</ele>
  <time>2026-08-28T17:54:45Z</time>
  <course>246.18</course>
  <speed>0.32572994949804657</speed>
  <fix>3d</fix>
</trkpt>
<trkpt lat="40.0706012" lon="-105.2320599">
  <ele>1583.0</ele>
  <time>2026-08-28T17:54:45Z</time>
  <course>245.77</course>
  <speed>0.36</speed>
  <fix>3d</fix>
</trkpt>
<trkpt lat="40.0706013" lon="-105.2320604">
  <ele>1583.01</ele>
  <time>2026-08-28T17:54:46Z</time>
  <course>246.18</course>
  <speed>0.31622776601683794</speed>
  <fix>3d</fix>
</trkpt>
<trkpt lat="40.0706012" lon="-105.2320599">
  <ele>1583.0</ele>
  <time>2026-08-28T17:54:46Z</time>
  <course>245.77</course>
  <speed>0.36</speed>
  <fix>3d</fix>
</trkpt>
<trkpt lat="40.0706012" lon="-105.2320608">
  <ele>1583.01</ele>
  <time>2026-08-28T17:54:46Z</time>
  <course>246.18</course>
  <speed>0.30364452901377953</speed>
  <fix>3d</fix>
</trkpt>
<trkpt lat="40.0706009" lon="-105.2320606">
  <ele>1583.0</ele>
  <time>2026-08-28T17:54:46Z</time>
  <course>245.77</course>
  <speed>0.33</speed>
  <fix>3d</fix>
</trkpt>
<trkpt lat="40.0706011" lon="-105.2320612">
  <ele>1583.01</ele>
  <time>2026-08-28T17:54:46Z</time>
  <course>246.18</course>
  <speed>0.29410882339705485</speed>
  <fix>3d</fix>
</trkpt>
<trkpt lat="40.0706009" lon="-105.2320606">
  <ele>1583.0</ele>
  <time>2026-08-28T17:54:46Z</time>
  <course>245.77</course>
  <speed>0.33</speed>
  <fix>3d</fix>
</trkpt>
<trkpt lat="40.070601" lon="-105.2320615">
  <ele>1583.02</ele>
  <time>2026-08-28T17:54:46Z</time>
  <course>246.18</course>
  <speed>0.2720294101747089</speed>
  <fix>3d</fix>
</trkpt>
<trkpt lat="40.0706009" lon="-105.2320606">
  <ele>1583.0</ele>
  <time>2026-08-28T17:54:46Z</time>
  <course>245.77</course>
  <speed>0.33</speed>
  <fix>3d</fix>
</trkpt>
<trkpt lat="40.0706009" lon="-105.2320618">
  <ele>1583.02</ele>
  <time>2026-08-28T17:54:46Z</time>
  <course>246.18</course>
  <speed>0.26248809496813374</speed>
  <fix>3d</fix>
</trkpt>
<trkpt lat="40.0706007" lon="-105.2320613">
  <ele>1583.0</ele>
  <time>2026-08-28T17:54:46Z</time>
  <course>245.77</course>
  <speed>0.3</speed>
  <fix>3d</fix>
</trkpt>
<trkpt lat="40.0706007" lon="-105.2320621">
  <ele>1583.02</ele>
  <time>2026-08-28T17:54:46Z</time>
  <course>246.18</course>
  <speed>0.25</speed>
  <fix>3d</fix>
</trkpt>
<trkpt lat="40.0706007" lon="-105.2320613">
  <ele>1583.0</ele>
  <time>2026-08-28T17:54:46Z</time>
  <course>245.77</course>
  <speed>0.3</speed>
  <fix>3d</fix>
</trkpt>
<trkpt lat="40.0706006" lon="-105.2320624">
  <ele>1583.02</ele>
  <time>2026-08-28T17:54:46Z</time>
  <course>246.18</course>
  <speed>0.24041630560342614</speed>
  <fix>3d</fix>
</trkpt>
<trkpt lat="40.0706006" lon="-105.2320618">
  <ele>1583.0</ele>
  <time>2026-08-28T17:54:46Z</time>
  <course>245.77</course>
  <speed>0.27</speed>
  <fix>3d</fix>
</trkpt>
<trkpt lat="40.0706006" lon="-105.2320627">
  <ele>1583.02</ele>
  <time>2026-08-28T17:54:46Z</time>
  <course>246.18</course>
  <speed>0.22803508501982758</speed>
  <fix>3d</fix>
</trkpt>
<trkpt lat="40.0706006" lon="-105.2320618">
  <ele>1583.0</ele>
  <time>2026-08-28T17:54:46Z</time>
  <course>245.77</course>
  <speed>0.27</speed>
  <fix>3d</fix>
</trkpt>
<trkpt lat="40.0706005" lon="-105.232063">
  <ele>1583.02</ele>
  <time>2026-08-28T17:54:46Z</time>
  <course>246.18</course>
  <speed>0.22803508501982758</speed>
  <fix>3d</fix>
</trkpt>
<trkpt lat="40.0706003" lon="-105.2320624">
  <ele>1583.0</ele>
  <time>2026-08-28T17:54:46Z</time>
  <course>245.77</course>
  <speed>0.24</speed>
  <fix>3d</fix>
</trkpt>
<trkpt lat="40.0706004" lon="-105.2320632">
  <ele>1583.02</ele>
  <time>2026-08-28T17:54:46Z</time>
  <course>246.18</course>
  <speed>0.21840329667841554</speed>
  <fix>3d</fix>
</trkpt>
<trkpt lat="40.0706003" lon="-105.2320624">
  <ele>1583.0</ele>
  <time>2026-08-28T17:54:46Z</time>
  <course>245.77</course>
  <speed>0.24</speed>
  <fix>3d</fix>
</trkpt>
<trkpt lat="40.0706003" lon="-105.2320635">
  <ele>1583.01</ele>
  <time>2026-08-28T17:54:46Z</time>
  <course>246.18</course>
  <speed>0.20615528128088303</speed>
  <fix>3d</fix>
</trkpt>
<trkpt lat="40.0706002" lon="-105.2320629">
  <ele>1583.0</ele>
  <time>2026-08-28T17:54:46Z</time>
  <course>245.77</course>
  <speed>0.22</speed>
  <fix>3d</fix>
</trkpt>
<trkpt lat="40.0706002" lon="-105.2320637">
  <ele>1583.01</ele>
  <time>2026-08-28T17:54:46Z</time>
  <course>246.18</course>
  <speed>0.196468827043885</speed>
  <fix>3d</fix>
</trkpt>
<trkpt lat="40.0706" lon="-105.2320634">
  <ele>1583.0</ele>
  <time>2026-08-28T17:54:46Z</time>
  <course>245.77</course>
  <speed>0.2</speed>
  <fix>3d</fix>
</trkpt>
<trkpt lat="40.0706001" lon="-105.2320639">
  <ele>1583.01</ele>
  <time>2026-08-28T17:54:46Z</time>
  <course>246.18</course>
  <speed>0.18681541692269404</speed>
  <fix>3d</fix>
</trkpt>
<trkpt lat="40.0706" lon="-105.2320634">
  <ele>1583.0</ele>
  <time>2026-08-28T17:54:46Z</time>
  <course>245.77</course>
  <speed>0.2</speed>
  <fix>3d</fix>
</trkpt>
<trkpt lat="40.0706001" lon="-105.2320641">
  <ele>1583.02</ele>
  <time>2026-08-28T17:54:46Z</time>
  <course>246.18</course>
  <speed>0.18439088914585774</speed>
  <fix>3d</fix>
</trkpt>
<trkpt lat="40.0705999" lon="-105.2320638">
  <ele>1583.0</ele>
  <time>2026-08-28T17:54:46Z</time>
  <course>245.77</course>
  <speed>0.18</speed>
  <fix>3d</fix>
</trkpt>
<trkpt lat="40.0706" lon="-105.2320643">
  <ele>1583.02</ele>
  <time>2026-08-28T17:54:46Z</time>
  <course>246.18</course>
  <speed>0.17464249196572978</speed>
  <fix>3d</fix>
</trkpt>
<trkpt lat="40.0705999" lon="-105.2320638">
  <ele>1583.0</ele>
  <time>2026-08-28T17:54:46Z</time>
  <course>245.77</course>
  <speed>0.18</speed>
  <fix>3d</fix>
</trkpt>
<trkpt lat="40.0705999" lon="-105.2320645">
  <ele>1583.02</ele>
  <time>2026-08-28T17:54:46Z</time>
  <course>246.19</course>
  <speed>0.1649242250247064</speed>
  <fix>3d</fix>
</trkpt>
<trkpt lat="40.0705997" lon="-105.2320642">
  <ele>1583.0</ele>
  <time>2026-08-28T17:54:46Z</time>
  <course>245.77</course>
  <speed>0.16</speed>
  <fix>3d</fix>
</trkpt>
<trkpt lat="40.0705999" lon="-105.2320647">
  <ele>1583.01</ele>
  <time>2026-08-28T17:54:46Z</time>
  <course>246.19</course>
  <speed>0.1649242250247064</speed>
  <fix>3d</fix>
</trkpt>
<trkpt lat="40.0705997" lon="-105.2320642">
  <ele>1583.0</ele>
  <time>2026-08-28T17:54:46Z</time>
  <course>245.77</course>
  <speed>0.16</speed>
  <fix>3d</fix>
</trkpt>
<trkpt lat="40.0705998" lon="-105.2320648">
  <ele>1583.02</ele>
  <time>2026-08-28T17:54:46Z</time>
  <course>246.19</course>
  <speed>0.15297058540778355</speed>
  <fix>3d</fix>
</trkpt>
<trkpt lat="40.0705996" lon="-105.2320645">
  <ele>1583.0</ele>
  <time>2026-08-28T17:54:46Z</time>
  <course>245.77</course>
  <speed>0.14</speed>
  <fix>3d</fix>
</trkpt>
<trkpt lat="40.0705997" lon="-105.232065">
  <ele>1583.02</ele>
  <time>2026-08-28T17:54:46Z</time>
  <course>246.19</course>
  <speed>0.14317821063276354</speed>
  <fix>3d</fix>
</trkpt>
<trkpt lat="40.0705996" lon="-105.2320645">
  <ele>1583.0</ele>
  <time>2026-08-28T17:54:46Z</time>
  <course>245.77</course>
  <speed>0.14</speed>
  <fix>3d</fix>
</trkpt>
<trkpt lat="40.0705997" lon="-105.2320651">
  <ele>1583.02</ele>
  <time>2026-08-28T17:54:46Z</time>
  <course>246.19</course>
  <speed>0.14317821063276354</speed>
  <fix>3d</fix>
</trkpt>
<trkpt lat="40.0705995" lon="-105.2320648">
  <ele>1583.0</ele>
  <time>2026-08-28T17:54:46Z</time>
  <course>245.77</course>
  <speed>0.13</speed>
  <fix>3d</fix>
</trkpt>
<trkpt lat="40.0705996" lon="-105.2320653">
  <ele>1583.02</ele>
  <time>2026-08-28T17:54:46Z</time>
  <course>246.19</course>
  <speed>0.13341664064126335</speed>
  <fix>3d</fix>
</trkpt>
<trkpt lat="40.0705995" lon="-105.2320648">
  <ele>1583.0</ele>
  <time>2026-08-28T17:54:46Z</time>
  <course>245.77</course>
  <speed>0.13</speed>
  <fix>3d</fix>
</trkpt>
<trkpt lat="40.0705996" lon="-105.2320654">
  <ele>1583.03</ele>
  <time>2026-08-28T17:54:46Z</time>
  <course>246.19</course>
  <speed>0.13152946437965907</speed>
  <fix>3d</fix>
</trkpt>
<trkpt lat="40.0705994" lon="-105.2320651">
  <ele>1583.0</ele>
  <time>2026-08-28T17:54:46Z</time>
  <course>245.77</course>
  <speed>0.12</speed>
  <fix>3d</fix>
</trkpt>
<trkpt lat="40.0705995" lon="-105.2320656">
  <ele>1583.03</ele>
  <time>2026-08-28T17:54:46Z</time>
  <course>246.19</course>
  <speed>0.12165525060596438</speed>
  <fix>3d</fix>
</trkpt>
<trkpt lat="40.0705994" lon="-105.2320651">
  <ele>1583.0</ele>
  <time>2026-08-28T17:54:46Z</time>
  <course>245.77</course>
  <speed>0.12</speed>
  <fix>3d</fix>
</trkpt>
<trkpt lat="40.0705995" lon="-105.2320657">
  <ele>1583.03</ele>
  <time>2026-08-28T17:54:46Z</time>
  <course>246.19</course>
  <speed>0.12165525060596438</speed>
  <fix>3d</fix>
</trkpt>
<trkpt lat="40.0705994" lon="-105.2320654">
  <ele>1583.0</ele>
  <time>2026-08-28T17:54:46Z</time>
  <course>245.78</course>
  <speed>0.11</speed>
  <fix>3d</fix>
</trkpt>
<trkpt lat="40.0705994" lon="-105.2320658">
  <ele>1583.04</ele>
  <time>2026-08-28T17:54:46Z</time>
  <course>246.19</course>
  <speed>0.1118033988749895</speed>
  <fix>3d</fix>
</trkpt>
<trkpt lat="40.0705994" lon="-105.2320654">
  <ele>1583.0</ele>
  <time>2026-08-28T17:54:46Z</time>
  <course>245.78</course>
  <speed>0.11</speed>
  <fix>3d</fix>
</trkpt>
<trkpt lat="40.0705994" lon="-105.2320659">
  <ele>1583.04</ele>
  <time>2026-08-28T17:54:46Z</time>
  <course>246.19</course>
  <speed>0.1118033988749895</speed>
  <fix>3d</fix>
</trkpt>
<trkpt lat="40.0705994" lon="-105.2320654">
  <ele>1583.0</ele>
  <time>2026-08-28T17:54:46Z</time>
  <course>245.78</course>
  <speed>0.11</speed>
  <fix>3d</fix>
</trkpt>
<trkpt lat="40.0705994" lon="-105.232066">
  <ele>1583.04</ele>
  <time>2026-08-28T17:54:46Z</time>
  <course>246.19</course>
  <speed>0.1118033988749895</speed>
  <fix>3d</fix>
</trkpt>
<trkpt lat="40.0705993" lon="-105.2320656">
  <ele>1583.0</ele>
  <time>2026-08-28T17:54:46Z</time>
  <course>245.78</course>
  <speed>0.09</speed>
  <fix>3d</fix>
</trkpt>
<trkpt lat="40.0705993" lon="-105.2320661">
  <ele>1583.03</ele>
  <time>2026-08-28T17:54:46Z</time>
  <course>246.19</course>
  <speed>0.1004987562112089</speed>
  <fix>3d</fix>
</trkpt>
<trkpt lat="40.0705993" lon="-105.2320656">
  <ele>1583.0</ele>
  <time>2026-08-28T17:54:46Z</time>
  <course>245.78</course>
  <speed>0.09</speed>
  <fix>3d</fix>
</trkpt>
<trkpt lat="40.0705993" lon="-105.2320662">
  <ele>1583.03</ele>
  <time>2026-08-28T17:54:46Z</time>
  <course>246.2</course>
  <speed>0.1004987562112089</speed>
  <fix>3d</fix>
</trkpt>
<trkpt lat="40.0705992" lon="-105.2320657">
  <ele>1583.0</ele>
  <time>2026-08-28T17:54:46Z</time>
  <course>245.78</course>
  <speed>0.09</speed>
  <fix>3d</fix>
</trkpt>
<trkpt lat="40.0705993" lon="-105.2320663">
  <ele>1583.03</ele>
  <time>2026-08-28T17:54:46Z</time>
  <course>246.2</course>
  <speed>0.09055385138137417</speed>
  <fix>3d</fix>
</trkpt>
<trkpt lat="40.0705992" lon="-105.2320657">
  <ele>1583.0</ele>
  <time>2026-08-28T17:54:46Z</time>
  <course>245.78</course>
  <speed>0.09</speed>
  <fix>3d</fix>
</trkpt>
<trkpt lat="40.0705993" lon="-105.2320664">
  <ele>1583.03</ele>
  <time>2026-08-28T17:54:46Z</time>
  <course>246.2</course>
  <speed>0.09055385138137417</speed>
  <fix>3d</fix>
</trkpt>
<trkpt lat="40.0705991" lon="-105.232066">
  <ele>1583.0</ele>
  <time>2026-08-28T17:54:46Z</time>
  <course>245.78</course>
  <speed>0.08</speed>
  <fix>3d</fix>
</trkpt>
<trkpt lat="40.0705992" lon="-105.2320665">
  <ele>1583.02</ele>
  <time>2026-08-28T17:54:46Z</time>
  <course>246.2</course>
  <speed>0.09055385138137417</speed>
  <fix>3d</fix>
</trkpt>
<trkpt lat="40.0705991" lon="-105.2320661">
  <ele>1583.0</ele>
  <time>2026-08-28T17:54:46Z</time>
  <course>245.78</course>
  <speed>0.07</speed>
  <fix>3d</fix>
</trkpt>
<trkpt lat="40.0705992" lon="-105.2320665">
  <ele>1583.02</ele>
  <time>2026-08-28T17:54:46Z</time>
  <course>246.2</course>
  <speed>0.08062257748298549</speed>
  <fix>3d</fix>
</trkpt>
<trkpt lat="40.0705991" lon="-105.2320661">
  <ele>1583.0</ele>
  <time>2026-08-28T17:54:46Z</time>
  <course>245.78</course>
  <speed>0.07</speed>
  <fix>3d</fix>
</trkpt>
<trkpt lat="40.0705992" lon="-105.2320666">
  <ele>1583.01</ele>
  <time>2026-08-28T17:54:46Z</time>
  <course>246.2</course>
  <speed>0.08062257748298549</speed>
  <fix>3d</fix>
</trkpt>
<trkpt lat="40.070599" lon="-105.2320662">
  <ele>1583.0</ele>
  <time>2026-08-28T17:54:46Z</time>
  <course>245.78</course>
  <speed>0.06</speed>
  <fix>3d</fix>
</trkpt>
<trkpt lat="40.0705991" lon="-105.2320666">
  <ele>1583.01</ele>
  <time>2026-08-28T17:54:46Z</time>
  <course>246.2</course>
  <speed>0.07</speed>
  <fix>3d</fix>
</trkpt>
<trkpt lat="40.070599" lon="-105.2320662">
  <ele>1583.0</ele>
  <time>2026-08-28T17:54:46Z</time>
  <course>245.78</course>
  <speed>0.06</speed>
  <fix>3d</fix>
</trkpt>
<trkpt lat="40.0705991" lon="-105.2320667">
  <ele>1583.01</ele>
  <time>2026-08-28T17:54:46Z</time>
  <course>246.2</course>
  <speed>0.07</speed>
  <fix>3d</fix>
</trkpt>
<trkpt lat="40.070599" lon="-105.2320664">
  <ele>1583.0</ele>
  <time>2026-08-28T17:54:46Z</time>
  <course>245.78</course>
  <speed>0.06</speed>
  <fix>3d</fix>
</trkpt>
<trkpt lat="40.0705991" lon="-105.2320668">
  <ele>1583.01</ele>
  <time>2026-08-28T17:54:46Z</time>
  <course>246.2</course>
  <speed>0.07</speed>
  <fix>3d</fix>
</trkpt>
<trkpt lat="40.070599" lon="-105.2320664">
  <ele>1583.0</ele>
  <time>2026-08-28T17:54:46Z</time>
  <course>245.78</course>
  <speed>0.06</speed>
  <fix>3d</fix>
</trkpt>
<trkpt lat="40.0705991" lon="-105.2320668">
  <ele>1583.01</ele>
  <time>2026-08-28T17:54:46Z</time>
  <course>246.21</course>
  <speed>0.06</speed>
  <fix>3d</fix>
</trkpt>
<trkpt lat="40.070599" lon="-105.2320665">
  <ele>1583.0</ele>
  <time>2026-08-28T17:54:46Z</time>
  <course>245.78</course>
  <speed>0.05</speed>
  <fix>3d</fix>
</trkpt>
<trkpt lat="40.0705991" lon="-105.2320669">
  <ele>1583.01</ele>
  <time>2026-08-28T17:54:46Z</time>
  <course>246.21</course>
  <speed>0.06</speed>
  <fix>3d</fix>
</trkpt>
<trkpt lat="40.070599" lon="-105.2320665">
  <ele>1583.0</ele>
  <time>2026-08-28T17:54:46Z</time>
  <course>245.78</course>
  <speed>0.05</speed>
  <fix>3d</fix>
</trkpt>
<trkpt lat="40.0705991" lon="-105.2320669">
  <ele>1583.01</ele>
  <time>2026-08-28T17:54:46Z</time>
  <course>246.21</course>
  <speed>0.06</speed>
  <fix>3d</fix>
</trkpt>
<trkpt lat="40.0705989" lon="-105.2320666">
  <ele>1583.0</ele>
  <time>2026-08-28T17:54:46Z</time>
  <course>245.78</course>
  <speed>0.04</speed>
  <fix>3d</fix>
</trkpt>
<trkpt lat="40.070599" lon="-105.2320669">
  <ele>1583.02</ele>
  <time>2026-08-28T17:54:47Z</time>
  <course>246.21</course>
  <speed>0.06</speed>
  <fix>3d</fix>
</trkpt>
<trkpt lat="40.0705989" lon="-105.2320666">
  <ele>1583.0</ele>
  <time>2026-08-28T17:54:47Z</time>
  <course>245.78</course>
  <speed>0.04</speed>
  <fix>3d</fix>
</trkpt>
<trkpt lat="40.070599" lon="-105.232067">
  <ele>1583.02</ele>
  <time>2026-08-28T17:54:47Z</time>
  <course>246.21</course>
  <speed>0.05</speed>
  <fix>3d</fix>
</trkpt>
<trkpt lat="40.0705989" lon="-105.2320667">
  <ele>1583.0</ele>
  <time>2026-08-28T17:54:47Z</time>
  <course>245.79</course>
  <speed>0.04</speed>
  <fix>3d</fix>
</trkpt>
<trkpt lat="40.070599" lon="-105.232067">
  <ele>1583.02</ele>
  <time>2026-08-28T17:54:47Z</time>
  <course>246.21</course>
  <speed>0.05</speed>
  <fix>3d</fix>
</trkpt>
<trkpt lat="40.0705989" lon="-105.2320667">
  <ele>1583.0</ele>
  <time>2026-08-28T17:54:47Z</time>
  <course>245.79</course>
  <speed>0.04</speed>
  <fix>3d</fix>
</trkpt>
<trkpt lat="40.070599" lon="-105.2320671">
  <ele>1583.02</ele>
  <time>2026-08-28T17:54:47Z</time>
  <course>246.21</course>
  <speed>0.05</speed>
  <fix>3d</fix>
</trkpt>
<trkpt lat="40.0705989" lon="-105.2320668">
  <ele>1583.0</ele>
  <time>2026-08-28T17:54:47Z</time>
  <course>245.79</course>
  <speed>0.04</speed>
  <fix>3d</fix>
</trkpt>
<trkpt lat="40.070599" lon="-105.2320671">
  <ele>1583.02</ele>
  <time>2026-08-28T17:54:47Z</time>
  <course>246.22</course>
  <speed>0.04</speed>
  <fix>3d</fix>
</trkpt>
<trkpt lat="40.0705989" lon="-105.2320668">
  <ele>1583.0</ele>
  <time>2026-08-28T17:54:47Z</time>
  <course>245.79</course>
  <speed>0.04</speed>
  <fix>3d</fix>
</trkpt>
<trkpt lat="40.070599" lon="-105.2320671">
  <ele>1583.02</ele>
  <time>2026-08-28T17:54:47Z</time>
  <course>246.22</course>
  <speed>0.04</speed>
  <fix>3d</fix>
</trkpt>
<trkpt lat="40.0705989" lon="-105.2320668">
  <ele>1583.0</ele>
  <time>2026-08-28T17:54:47Z</time>
  <course>245.79</course>
  <speed>0.04</speed>
  <fix>3d</fix>
</trkpt>
<trkpt lat="40.070599" lon="-105.2320671">
  <ele>1583.02</ele>
  <time>2026-08-28T17:54:47Z</time>
  <course>246.22</course>
  <speed>0.04</speed>
  <fix>3d</fix>
</trkpt>
<trkpt lat="40.0705988" lon="-105.2320669">
  <ele>1583.0</ele>
  <time>2026-08-28T17:54:47Z</time>
  <course>245.79</course>
  <speed>0.03</speed>
  <fix>3d</fix>
</trkpt>
<trkpt lat="40.070599" lon="-105.2320672">
  <ele>1583.03</ele>
  <time>2026-08-28T17:54:47Z</time>
  <course>246.22</course>
  <speed>0.04</speed>
  <fix>3d</fix>
</trkpt>
<trkpt lat="40.0705988" lon="-105.2320669">
  <ele>1583.0</ele>
  <time>2026-08-28T17:54:47Z</time>
  <course>245.79</course>
  <speed>0.03</speed>
  <fix>3d</fix>
</trkpt>
<trkpt lat="40.070599" lon="-105.2320672">
  <ele>1583.03</ele>
  <time>2026-08-28T17:54:47Z</time>
  <course>246.22</course>
  <speed>0.04</speed>
  <fix>3d</fix>
</trkpt>
<trkpt lat="40.0705988" lon="-105.232067">
  <ele>1583.0</ele>
  <time>2026-08-28T17:54:47Z</time>
  <course>245.79</course>
  <speed>0.03</speed>
  <fix>3d</fix>
</trkpt>
<trkpt lat="40.0705989" lon="-105.2320672">
  <ele>1583.03</ele>
  <time>2026-08-28T17:54:47Z</time>
  <course>246.22</course>
  <speed>0.03</speed>
  <fix>3d</fix>
</trkpt>
<trkpt lat="40.0705988" lon="-105.232067">
  <ele>1583.0</ele>
  <time>2026-08-28T17:54:47Z</time>
  <course>245.79</course>
  <speed>0.03</speed>
  <fix>3d</fix>
</trkpt>
<trkpt lat="40.0705989" lon="-105.2320673">
  <ele>1583.03</ele>
  <time>2026-08-28T17:54:47Z</time>
  <course>246.23</course>
  <speed>0.03</speed>
  <fix>3d</fix>
</trkpt>
<trkpt lat="40.0705988" lon="-105.2320671">
  <ele>1583.0</ele>
  <time>2026-08-28T17:54:47Z</time>
  <course>245.79</course>
  <speed>0.03</speed>
  <fix>3d</fix>
</trkpt>
<trkpt lat="40.0705989" lon="-105.2320673">
  <ele>1583.03</ele>
  <time>2026-08-28T17:54:47Z</time>
  <course>246.23</course>
  <speed>0.03</speed>
  <fix>3d</fix>
</trkpt>
<trkpt lat="40.0705988" lon="-105.2320671">
  <ele>1583.0</ele>
  <time>2026-08-28T17:54:47Z</time>
  <course>245.79</course>
  <speed>0.03</speed>
  <fix>3d</fix>
</trkpt>
<trkpt lat="40.0705989" lon="-105.2320673">
  <ele>1583.03</ele>
  <time>2026-08-28T17:54:47Z</time>
  <course>246.23</course>
  <speed>0.03</speed>
  <fix>3d</fix>
</trkpt>
<trkpt lat="40.0705988" lon="-105.2320671">
  <ele>1583.0</ele>
  <time>2026-08-28T17:54:47Z</time>
  <course>245.8</course>
  <speed>0.02</speed>
  <fix>3d</fix>
</trkpt>
<trkpt lat="40.0705989" lon="-105.2320673">
  <ele>1583.04</ele>
  <time>2026-08-28T17:54:47Z</time>
  <course>246.23</course>
  <speed>0.022360679774997897</speed>
  <fix>3d</fix>
</trkpt>
<trkpt lat="40.0705988" lon="-105.2320671">
  <ele>1583.0</ele>
  <time>2026-08-28T17:54:47Z</time>
  <course>245.8</course>
  <speed>0.02</speed>
  <fix>3d</fix>
</trkpt>
<trkpt lat="40.0705989" lon="-105.2320673">
  <ele>1583.04</ele>
  <time>2026-08-28T17:54:47Z</time>
  <course>246.23</course>
  <speed>0.022360679774997897</speed>
  <fix>3d</fix>
</trkpt>
<trkpt lat="40.0705988" lon="-105.2320671">
  <ele>1583.0</ele>
  <time>2026-08-28T17:54:47Z</time>
  <course>245.8</course>
  <speed>0.02</speed>
  <fix>3d</fix>
</trkpt>
<trkpt lat="40.0705989" lon="-105.2320673">
  <ele>1583.05</ele>
  <time>2026-08-28T17:54:47Z</time>
  <course>246.23</course>
  <speed>0.022360679774997897</speed>
  <fix>3d</fix>
</trkpt>
<trkpt lat="40.0705987" lon="-105.2320672">
  <ele>1583.0</ele>
  <time>2026-08-28T17:54:47Z</time>
  <course>245.8</course>
  <speed>0.01</speed>
  <fix>3d</fix>
</trkpt>
<trkpt lat="40.0705989" lon="-105.2320673">
  <ele>1583.05</ele>
  <time>2026-08-28T17:54:47Z</time>
  <course>246.23</course>
  <speed>0.022360679774997897</speed>
  <fix>3d</fix>
</trkpt>
<trkpt lat="40.0705987" lon="-105.2320672">
  <ele>1583.0</ele>
  <time>2026-08-28T17:54:47Z</time>
  <course>245.8</course>
  <speed>0.01</speed>
  <fix>3d</fix>
</trkpt>
<trkpt lat="40.0705989" lon="-105.2320674">
  <ele>1583.05</ele>
  <time>2026-08-28T17:54:47Z</time>
  <course>246.22</course>
  <speed>0.03</speed>
  <fix>3d</fix>
</trkpt>
<trkpt lat="40.0705987" lon="-105.2320673">
  <ele>1583.0</ele>
  <time>2026-08-28T17:54:47Z</time>
  <course>245.79</course>
  <speed>0.02</speed>
  <fix>3d</fix>
</trkpt>
<trkpt lat="40.0705989" lon="-105.2320674">
  <ele>1583.05</ele>
  <time>2026-08-28T17:54:47Z</time>
  <course>246.22</course>
  <speed>0.04</speed>
  <fix>3d</fix>
</trkpt>
<trkpt lat="40.0705987" lon="-105.2320673">
  <ele>1583.0</ele>
  <time>2026-08-28T17:54:47Z</time>
  <course>245.79</course>
  <speed>0.02</speed>
  <fix>3d</fix>
</trkpt>
<trkpt lat="40.0705989" lon="-105.2320674">
  <ele>1583.05</ele>
  <time>2026-08-28T17:54:47Z</time>
  <course>246.22</course>
  <speed>0.05</speed>
  <fix>3d</fix>
</trkpt>
<trkpt lat="40.0705987" lon="-105.2320673">
  <ele>1583.0</ele>
  <time>2026-08-28T17:54:47Z</time>
  <course>245.77</course>
  <speed>0.04</speed>
  <fix>3d</fix>
</trkpt>
<trkpt lat="40.0705989" lon="-105.2320675">
  <ele>1583.05</ele>
  <time>2026-08-28T17:54:47Z</time>
  <course>246.21</course>
  <speed>0.06</speed>
  <fix>3d</fix>
</trkpt>
<trkpt lat="40.0705987" lon="-105.2320673">
  <ele>1583.0</ele>
  <time>2026-08-28T17:54:47Z</time>
  <course>245.77</course>
  <speed>0.04</speed>
  <fix>3d</fix>
</trkpt>
<trkpt lat="40.0705988" lon="-105.2320676">
  <ele>1583.05</ele>
  <time>2026-08-28T17:54:47Z</time>
  <course>246.21</course>
  <speed>0.08062257748298549</speed>
  <fix>3d</fix>
</trkpt>
<trkpt lat="40.0705986" lon="-105.2320675">
  <ele>1583.0</ele>
  <time>2026-08-28T17:54:47Z</time>
  <course>245.75</course>
  <speed>0.06</speed>
  <fix>3d</fix>
</trkpt>
<trkpt lat="40.0705988" lon="-105.2320677">
  <ele>1583.05</ele>
  <time>2026-08-28T17:54:47Z</time>
  <course>246.2</course>
  <speed>0.1019803902718557</speed>
  <fix>3d</fix>
</trkpt>
<trkpt lat="40.0705986" lon="-105.2320675">
  <ele>1583.0</ele>
  <time>2026-08-28T17:54:47Z</time>
  <course>245.75</course>
  <speed>0.06</speed>
  <fix>3d</fix>
</trkpt>
<trkpt lat="40.0705987" lon="-105.2320678">
  <ele>1583.05</ele>
  <time>2026-08-28T17:54:47Z</time>
  <course>246.19</course>
  <speed>0.12369316876852982</speed>
  <fix>3d</fix>
</trkpt>
<trkpt lat="40.0705985" lon="-105.2320676">
  <ele>1583.0</ele>
  <time>2026-08-28T17:54:47Z</time>
  <course>245.72</course>
  <speed>0.11</speed>
  <fix>3d</fix>
</trkpt>
<trkpt lat="40.0705987" lon="-105.232068">
  <ele>1583.05</ele>
  <time>2026-08-28T17:54:47Z</time>
  <course>246.18</course>
  <speed>0.15524174696260024</speed>
  <fix>3d</fix>
</trkpt>
<trkpt lat="40.0705985" lon="-105.2320676">
  <ele>1583.0</ele>
  <time>2026-08-28T17:54:47Z</time>
  <course>245.72</course>
  <speed>0.11</speed>
  <fix>3d</fix>
</trkpt>
<trkpt lat="40.0705986" lon="-105.2320682">
  <ele>1583.05</ele>
  <time>2026-08-28T17:54:47Z</time>
  <course>246.16</course>
  <speed>0.1772004514666935</speed>
  <fix>3d</fix>
</trkpt>
<trkpt lat="40.0705985" lon="-105.2320679">
  <ele>1583.0</ele>
  <time>2026-08-28T17:54:47Z</time>
  <course>245.69</course>
  <speed>0.16</speed>
  <fix>3d</fix>
</trkpt>
<trkpt lat="40.0705985" lon="-105.2320684">
  <ele>1583.05</ele>
  <time>2026-08-28T17:54:47Z</time>
  <course>246.14</course>
  <speed>0.208806130178211</speed>
  <fix>3d</fix>
</trkpt>
<trkpt lat="40.0705985" lon="-105.2320679">
  <ele>1583.0</ele>
  <time>2026-08-28T17:54:47Z</time>
  <course>245.69</course>
  <speed>0.16</speed>
  <fix>3d</fix>
</trkpt>
<trkpt lat="40.0705985" lon="-105.2320686">
  <ele>1583.04</ele>
  <time>2026-08-28T17:54:47Z</time>
  <course>246.12</course>
  <speed>0.2308679276123039</speed>
  <fix>3d</fix>
</trkpt>
<trkpt lat="40.0705985" lon="-105.2320679">
  <ele>1583.0</ele>
  <time>2026-08-28T17:54:47Z</time>
  <course>245.69</course>
  <speed>0.16</speed>
  <fix>3d</fix>
</trkpt>
<trkpt lat="40.0705984" lon="-105.2320689">
  <ele>1583.04</ele>
  <time>2026-08-28T17:54:47Z</time>
  <course>246.1</course>
  <speed>0.26570660511172844</speed>
  <fix>3d</fix>
</trkpt>
<trkpt lat="40.0705983" lon="-105.2320683">
  <ele>1583.0</ele>
  <time>2026-08-28T17:54:47Z</time>
  <course>245.65</course>
  <speed>0.21</speed>
  <fix>3d</fix>
</trkpt>
<trkpt lat="40.0705982" lon="-105.2320692">
  <ele>1583.04</ele>
  <time>2026-08-28T17:54:47Z</time>
  <course>246.08</course>
  <speed>0.2879236009777594</speed>
  <fix>3d</fix>
</trkpt>
<trkpt lat="40.0705983" lon="-105.2320683">
  <ele>1583.0</ele>
  <time>2026-08-28T17:54:47Z</time>
  <course>245.65</course>
  <speed>0.21</speed>
  <fix>3d</fix>
</trkpt>
<trkpt lat="40.0705981" lon="-105.2320695">
  <ele>1583.04</ele>
  <time>2026-08-28T17:54:47Z</time>
  <course>246.05</course>
  <speed>0.3195309061734092</speed>
  <fix>3d</fix>
</trkpt>
<trkpt lat="40.0705982" lon="-105.2320689">
  <ele>1583.0</ele>
  <time>2026-08-28T17:54:47Z</time>
  <course>245.61</course>
  <speed>0.27</speed>
  <fix>3d</fix>
</trkpt>
<trkpt lat="40.070598" lon="-105.2320699">
  <ele>1583.04</ele>
  <time>2026-08-28T17:54:47Z</time>
  <course>246.02</course>
  <speed>0.35114099732158877</speed>
  <fix>3d</fix>
</trkpt>
<trkpt lat="40.0705982" lon="-105.2320689">
  <ele>1583.0</ele>
  <time>2026-08-28T17:54:47Z</time>
  <course>245.61</course>
  <speed>0.27</speed>
  <fix>3d</fix>
</trkpt>
<trkpt lat="40.0705979" lon="-105.2320703">
  <ele>1583.04</ele>
  <time>2026-08-28T17:54:47Z</time>
  <course>245.98</course>
  <speed>0.37336309405188944</speed>
  <fix>3d</fix>
</trkpt>
<trkpt lat="40.0705979" lon="-105.2320695">
  <ele>1583.0</ele>
  <time>2026-08-28T17:54:47Z</time>
  <course>245.55</course>
  <speed>0.33</speed>
  <fix>3d</fix>
</trkpt>
<trkpt lat="40.0705977" lon="-105.2320708">
  <ele>1583.04</ele>
  <time>2026-08-28T17:54:47Z</time>
  <course>245.94</course>
  <speed>0.4085339643163099</speed>
  <fix>3d</fix>
</trkpt>
<trkpt lat="40.0705976" lon="-105.2320703">
  <ele>1583.0</ele>
  <time>2026-08-28T17:54:47Z</time>
  <course>245.47</course>
  <speed>0.38</speed>
  <fix>3d</fix>
</trkpt>
<trkpt lat="40.0705975" lon="-105.2320712">
  <ele>1583.04</ele>
  <time>2026-08-28T17:54:47Z</time>
  <course>245.89</course>
  <speed>0.4308131845707603</speed>
  <fix>3d</fix>
</trkpt>
<trkpt lat="40.0705976" lon="-105.2320703">
  <ele>1583.0</ele>
  <time>2026-08-28T17:54:47Z</time>
  <course>245.47</course>
  <speed>0.38</speed>
  <fix>3d</fix>
</trkpt>
<trkpt lat="40.0705974" lon="-105.2320717">
  <ele>1583.04</ele>
  <time>2026-08-28T17:54:47Z</time>
  <course>245.85</course>
  <speed>0.45310043036836767</speed>
  <fix>3d</fix>
</trkpt>
<trkpt lat="40.0705973" lon="-105.2320711">
  <ele>1583.0</ele>
  <time>2026-08-28T17:54:47Z</time>
  <course>245.39</course>
  <speed>0.44</speed>
  <fix>3d</fix>
</trkpt>
<trkpt lat="40.0705972" lon="-105.2320722">
  <ele>1583.04</ele>
  <time>2026-08-28T17:54:47Z</time>
  <course>245.8</course>
  <speed>0.48466483264210536</speed>
  <fix>3d</fix>
</trkpt>
<trkpt lat="40.0705973" lon="-105.2320711">
  <ele>1583.0</ele>
  <time>2026-08-28T17:54:47Z</time>
  <course>245.39</course>
  <speed>0.44</speed>
  <fix>3d</fix>
</trkpt>
<trkpt lat="40.070597" lon="-105.2320728">
  <ele>1583.04</ele>
  <time>2026-08-28T17:54:47Z</time>
  <course>245.74</course>
  <speed>0.5069516742254631</speed>
  <fix>3d</fix>
</trkpt>
<trkpt lat="40.070597" lon="-105.2320721">
  <ele>1583.0</ele>
  <time>2026-08-28T17:54:47Z</time>
  <course>245.28</course>
  <speed>0.49</speed>
  <fix>3d</fix>
</trkpt>
<trkpt lat="40.0705968" lon="-105.2320733">
  <ele>1583.04</ele>
  <time>2026-08-28T17:54:47Z</time>
  <course>245.67</course>
  <speed>0.5292447448959696</speed>
  <fix>3d</fix>
</trkpt>
<trkpt lat="40.070597" lon="-105.2320721">
  <ele>1583.0</ele>
  <time>2026-08-28T17:54:47Z</time>
  <course>245.28</course>
  <speed>0.49</speed>
  <fix>3d</fix>
</trkpt>
<trkpt lat="40.0705966" lon="-105.2320739">
  <ele>1583.04</ele>
  <time>2026-08-28T17:54:47Z</time>
  <course>245.61</course>
  <speed>0.54230987451825</speed>
  <fix>3d</fix>
</trkpt>
<trkpt lat="40.0705966" lon="-105.2320733">
  <ele>1583.0</ele>
  <time>2026-08-28T17:54:47Z</time>
  <course>245.16</course>
  <speed>0.53</speed>
  <fix>3d</fix>
</trkpt>
<trkpt lat="40.0705963" lon="-105.2320746">
  <ele>1583.04</ele>
  <time>2026-08-28T17:54:48Z</time>
  <course>245.53</course>
  <speed>0.5646237685397242</speed>
  <fix>3d</fix>
</trkpt>
<trkpt lat="40.0705966" lon="-105.2320733">
  <ele>1583.0</ele>
  <time>2026-08-28T17:54:48Z</time>
  <course>245.16</course>
  <speed>0.53</speed>
  <fix>3d</fix>
</trkpt>
<trkpt lat="40.0705961" lon="-105.2320752">
  <ele>1583.04</ele>
  <time>2026-08-28T17:54:48Z</time>
  <course>245.45</course>
  <speed>0.5869412236331676</speed>
  <fix>3d</fix>
</trkpt>
<trkpt lat="40.0705962" lon="-105.2320744">
  <ele>1583.0</ele>
  <time>2026-08-28T17:54:48Z</time>
  <course>245.01</course>
  <speed>0.57</speed>
  <fix>3d</fix>
</trkpt>
<trkpt lat="40.0705959" lon="-105.2320759">
  <ele>1583.04</ele>
  <time>2026-08-28T17:54:48Z</time>
  <course>245.35</course>
  <speed>0.6092618484691127</speed>
  <fix>3d</fix>
</trkpt>
<trkpt lat="40.0705962" lon="-105.2320744">
  <ele>1583.0</ele>
  <time>2026-08-28T17:54:48Z</time>
  <course>245.01</course>
  <speed>0.57</speed>
  <fix>3d</fix>
</trkpt>
<trkpt lat="40.0705956" lon="-105.2320765">
  <ele>1583.04</ele>
  <time>2026-08-28T17:54:48Z</time>
  <course>245.25</course>
  <speed>0.6315853069855251</speed>
  <fix>3d</fix>
</trkpt>
<trkpt lat="40.0705957" lon="-105.2320757">
  <ele>1583.0</ele>
  <time>2026-08-28T17:54:48Z</time>
  <course>244.82</course>
  <speed>0.61</speed>
  <fix>3d</fix>
</trkpt>
<trkpt lat="40.0705954" lon="-105.2320772">
  <ele>1583.04</ele>
  <time>2026-08-28T17:54:48Z</time>
  <course>245.14</course>
  <speed>0.6407807737440318</speed>
  <fix>3d</fix>
</trkpt>
<trkpt lat="40.0705957" lon="-105.2320757">
  <ele>1583.0</ele>
  <time>2026-08-28T17:54:48Z</time>
  <course>244.82</course>
  <speed>0.61</speed>
  <fix>3d</fix>
</trkpt>
<trkpt lat="40.0705951" lon="-105.2320779">
  <ele>1583.04</ele>
  <time>2026-08-28T17:54:48Z</time>
  <course>245.01</course>
  <speed>0.6539113089708727</speed>
  <fix>3d</fix>
</trkpt>
<trkpt lat="40.0705952" lon="-105.2320771">
  <ele>1583.0</ele>
  <time>2026-08-28T17:54:48Z</time>
  <course>244.6</course>
  <speed>0.65</speed>
  <fix>3d</fix>
</trkpt>
<trkpt lat="40.0705949" lon="-105.2320787">
  <ele>1583.04</ele>
  <time>2026-08-28T17:54:48Z</time>
  <course>244.86</course>
  <speed>0.6762396025078685</speed>
  <fix>3d</fix>
</trkpt>
<trkpt lat="40.0705952" lon="-105.2320771">
  <ele>1583.0</ele>
  <time>2026-08-28T17:54:48Z</time>
  <course>244.6</course>
  <speed>0.65</speed>
  <fix>3d</fix>
</trkpt>
<trkpt lat="40.0705946" lon="-105.2320794">
  <ele>1583.04</ele>
  <time>2026-08-28T17:54:48Z</time>
  <course>244.7</course>
  <speed>0.6894200461257273</speed>
  <fix>3d</fix>
</trkpt>
<trkpt lat="40.0705952" lon="-105.2320771">
  <ele>1583.0</ele>
  <time>2026-08-28T17:54:48Z</time>
  <course>244.6</course>
  <speed>0.65</speed>
  <fix>3d</fix>
</trkpt>
<trkpt lat="40.0705943" lon="-105.2320802">
  <ele>1583.03</ele>
  <time>2026-08-28T17:54:48Z</time>
  <course>244.51</course>
  <speed>0.7026378868236469</speed>
  <fix>3d</fix>
</trkpt>
<trkpt lat="40.0705947" lon="-105.2320785">
  <ele>1583.0</ele>
  <time>2026-08-28T17:54:48Z</time>
  <course>244.32</course>
  <speed>0.68</speed>
  <fix>3d</fix>
</trkpt>
<trkpt lat="40.070594" lon="-105.2320809">
  <ele>1583.03</ele>
  <time>2026-08-28T17:54:48Z</time>
  <course>244.31</course>
  <speed>0.7158910531638176</speed>
  <fix>3d</fix>
</trkpt>
<trkpt lat="40.0705947" lon="-105.2320785">
  <ele>1583.0</ele>
  <time>2026-08-28T17:54:48Z</time>
  <course>244.32</course>
  <speed>0.68</speed>
  <fix>3d</fix>
</trkpt>
<trkpt lat="40.0705937" lon="-105.2320817">
  <ele>1583.02</ele>
  <time>2026-08-28T17:54:48Z</time>
  <course>244.07</course>
  <speed>0.7382411530116699</speed>
  <fix>3d</fix>
</trkpt>
<trkpt lat="40.0705942" lon="-105.23208">
  <ele>1583.0</ele>
  <time>2026-08-28T17:54:48Z</time>
  <course>243.96</course>
  <speed>0.71</speed>
  <fix>3d</fix>
</trkpt>
<trkpt lat="40.0705934" lon="-105.2320825">
  <ele>1583.02</ele>
  <time>2026-08-28T17:54:48Z</time>
  <course>243.81</course>
  <speed>0.7515317691222374</speed>
  <fix>3d</fix>
</trkpt>
<trkpt lat="40.0705942" lon="-105.23208">
  <ele>1583.0</ele>
  <time>2026-08-28T17:54:48Z</time>
  <course>243.96</course>
  <speed>0.71</speed>
  <fix>3d</fix>
</trkpt>
<trkpt lat="40.0705931" lon="-105.2320833">
  <ele>1583.01</ele>
  <time>2026-08-28T17:54:48Z</time>
  <course>243.5</course>
  <speed>0.7648529270389177</speed>
  <fix>3d</fix>
</trkpt>
<trkpt lat="40.0705935" lon="-105.2320815">
  <ele>1583.0</ele>
  <time>2026-08-28T17:54:48Z</time>
  <course>243.51</course>
  <speed>0.74</speed>
  <fix>3d</fix>
</trkpt>
<trkpt lat="40.0705928" lon="-105.2320841">
  <ele>1583.01</ele>
  <time>2026-08-28T17:54:48Z</time>
  <course>243.15</course>
  <speed>0.7782030583337487</speed>
  <fix>3d</fix>
</trkpt>
<trkpt lat="40.0705935" lon="-105.2320815">
  <ele>1583.0</ele>
  <time>2026-08-28T17:54:48Z</time>
  <course>243.51</course>
  <speed>0.74</speed>
  <fix>3d</fix>
</trkpt>
<trkpt lat="40.0705924" lon="-105.2320849">
  <ele>1583.01</ele>
  <time>2026-08-28T17:54:48Z</time>
  <course>242.74</course>
  <speed>0.791580697086532</speed>
  <fix>3d</fix>
</trkpt>
<trkpt lat="40.070593" lon="-105.2320831">
  <ele>1583.0</ele>
  <time>2026-08-28T17:54:48Z</time>
  <course>242.93</course>
  <speed>0.77</speed>
  <fix>3d</fix>
</trkpt>
<trkpt lat="40.0705921" lon="-105.2320858">
  <ele>1583.01</ele>
  <time>2026-08-28T17:54:48Z</time>
  <course>242.28</course>
  <speed>0.8049844718999243</speed>
  <fix>3d</fix>
</trkpt>
<trkpt lat="40.0705923" lon="-105.2320847">
  <ele>1583.0</ele>
  <time>2026-08-28T17:54:48Z</time>
  <course>242.16</course>
  <speed>0.8</speed>
  <fix>3d</fix>
</trkpt>
<trkpt lat="40.0705917" lon="-105.2320866">
  <ele>1583.01</ele>
  <time>2026-08-28T17:54:48Z</time>
  <course>241.74</course>
  <speed>0.8229823813423954</speed>
  <fix>3d</fix>
</trkpt>
<trkpt lat="40.0705923" lon="-105.2320847">
  <ele>1583.0</ele>
  <time>2026-08-28T17:54:48Z</time>
  <course>242.16</course>
  <speed>0.8</speed>
  <fix>3d</fix>
</trkpt>
<trkpt lat="40.0705914" lon="-105.2320875">
  <ele>1583.01</ele>
  <time>2026-08-28T17:54:48Z</time>
  <course>241.13</course>
  <speed>0.8364807230295268</speed>
  <fix>3d</fix>
</trkpt>
<trkpt lat="40.0705916" lon="-105.2320864">
  <ele>1583.0</ele>
  <time>2026-08-28T17:54:48Z</time>
  <course>241.14</course>
  <speed>0.83</speed>
  <fix>3d</fix>
</trkpt>
<trkpt lat="40.070591" lon="-105.2320884">
  <ele>1583.01</ele>
  <time>2026-08-28T17:54:48Z</time>
  <course>240.4</course>
  <speed>0.8459905436823747</speed>
  <fix>3d</fix>
</trkpt>
<trkpt lat="40.0705916" lon="-105.2320864">
  <ele>1583.0</ele>
  <time>2026-08-28T17:54:48Z</time>
  <course>241.14</course>
  <speed>0.83</speed>
  <fix>3d</fix>
</trkpt>
<trkpt lat="40.0705906" lon="-105.2320893">
  <ele>1583.01</ele>
  <time>2026-08-28T17:54:48Z</time>
  <course>239.55</course>
  <speed>0.8645229898620395</speed>
  <fix>3d</fix>
</trkpt>
<trkpt lat="40.0705909" lon="-105.2320881">
  <ele>1583.0</ele>
  <time>2026-08-28T17:54:48Z</time>
  <course>239.76</course>
  <speed>0.86</speed>
  <fix>3d</fix>
</trkpt>
<trkpt lat="40.0705902" lon="-105.2320901">
  <ele>1583.01</ele>
  <time>2026-08-28T17:54:48Z</time>
  <course>238.55</course>
  <speed>0.8832326986700617</speed>
  <fix>3d</fix>
</trkpt>
<trkpt lat="40.0705909" lon="-105.2320881">
  <ele>1583.0</ele>
  <time>2026-08-28T17:54:48Z</time>
  <course>239.76</course>
  <speed>0.86</speed>
  <fix>3d</fix>
</trkpt>
<trkpt lat="40.0705897" lon="-105.2320911">
  <ele>1583.01</ele>
  <time>2026-08-28T17:54:48Z</time>
  <course>237.35</course>
  <speed>0.8988882021697693</speed>
  <fix>3d</fix>
</trkpt>
<trkpt lat="40.0705901" lon="-105.23209">
  <ele>1583.0</ele>
  <time>2026-08-28T17:54:48Z</time>
  <course>237.87</course>
  <speed>0.89</speed>
  <fix>3d</fix>
</trkpt>
<trkpt lat="40.0705892" lon="-105.232092">
  <ele>1583.0</ele>
  <time>2026-08-28T17:54:48Z</time>
  <course>235.95</course>
  <speed>0.9152595260361949</speed>
  <fix>3d</fix>
</trkpt>
<trkpt lat="40.0705901" lon="-105.23209">
  <ele>1583.0</ele>
  <time>2026-08-28T17:54:48Z</time>
  <course>237.87</course>
  <speed>0.89</speed>
  <fix>3d</fix>
</trkpt>
<trkpt lat="40.0705888" lon="-105.2320929">
  <ele>1583.0</ele>
  <time>2026-08-28T17:54:48Z</time>
  <course>234.28</course>
  <speed>0.9323089616645333</speed>
  <fix>3d</fix>
</trkpt>
<trkpt lat="40.0705892" lon="-105.2320917">
  <ele>1583.0</ele>
  <time>2026-08-28T17:54:48Z</time>
  <course>235.22</course>
  <speed>0.93</speed>
  <fix>3d</fix>
</trkpt>
<trkpt lat="40.0705882" lon="-105.2320938">
  <ele>1583.0</ele>
  <time>2026-08-28T17:54:48Z</time>
  <course>232.28</course>
  <speed>0.9560334722173696</speed>
  <fix>3d</fix>
</trkpt>
<trkpt lat="40.0705892" lon="-105.2320917">
  <ele>1583.0</ele>
  <time>2026-08-28T17:54:48Z</time>
  <course>235.22</course>
  <speed>0.93</speed>
  <fix>3d</fix>
</trkpt>
<trkpt lat="40.0705877" lon="-105.2320947">
  <ele>1582.99</ele>
  <time>2026-08-28T17:54:48Z</time>
  <course>229.89</course>
  <speed>0.9730878685915265</speed>
  <fix>3d</fix>
</trkpt>
<trkpt lat="40.0705881" lon="-105.2320936">
  <ele>1583.0</ele>
  <time>2026-08-28T17:54:48Z</time>
  <course>231.46</course>
  <speed>0.97</speed>
  <fix>3d</fix>
</trkpt>
<trkpt lat="40.070587" lon="-105.2320956">
  <ele>1582.99</ele>
  <time>2026-08-28T17:54:48Z</time>
  <course>227.02</course>
  <speed>0.9908582138732059</speed>
  <fix>3d</fix>
</trkpt>
<trkpt lat="40.0705881" lon="-105.2320936">
  <ele>1583.0</ele>
  <time>2026-08-28T17:54:48Z</time>
  <course>231.46</course>
  <speed>0.97</speed>
  <fix>3d</fix>
</trkpt>
<trkpt lat="40.0705864" lon="-105.2320964">
  <ele>1582.99</ele>
  <time>2026-08-28T17:54:48Z</time>
  <course>223.63</course>
  <speed>1.0113851887386922</speed>
  <fix>3d</fix>
</trkpt>
<trkpt lat="40.0705869" lon="-105.2320953">
  <ele>1583.0</ele>
  <time>2026-08-28T17:54:48Z</time>
  <course>226.12</course>
  <speed>1.0</speed>
  <fix>3d</fix>
</trkpt>
<trkpt lat="40.0705857" lon="-105.2320972">
  <ele>1582.98</ele>
  <time>2026-08-28T17:54:48Z</time>
  <course>219.73</course>
  <speed>1.029417310909429</speed>
  <fix>3d</fix>
</trkpt>
<trkpt lat="40.0705869" lon="-105.2320953">
  <ele>1583.0</ele>
  <time>2026-08-28T17:54:48Z</time>
  <course>226.12</course>
  <speed>1.0</speed>
  <fix>3d</fix>
</trkpt>
<trkpt lat="40.0705849" lon="-105.232098">
  <ele>1582.98</ele>
  <time>2026-08-28T17:54:48Z</time>
  <course>215.26</course>
  <speed>1.054371850914088</speed>
  <fix>3d</fix>
</trkpt>
<trkpt lat="40.0705869" lon="-105.2320953">
  <ele>1583.0</ele>
  <time>2026-08-28T17:54:48Z</time>
  <course>226.12</course>
  <speed>1.0</speed>
  <fix>3d</fix>
</trkpt>
<trkpt lat="40.070584" lon="-105.2320986">
  <ele>1582.98</ele>
  <time>2026-08-28T17:54:48Z</time>
  <course>210.16</course>
  <speed>1.0704204781299729</speed>
  <fix>3d</fix>
</trkpt>
<trkpt lat="40.0705856" lon="-105.2320969">
  <ele>1583.0</ele>
  <time>2026-08-28T17:54:48Z</time>
  <course>218.75</course>
  <speed>1.04</speed>
  <fix>3d</fix>
</trkpt>
<trkpt lat="40.0705832" lon="-105.2320992">
  <ele>1582.98</ele>
  <time>2026-08-28T17:54:48Z</time>
  <course>204.42</course>
  <speed>1.0874741376235115</speed>
  <fix>3d</fix>
</trkpt>
<trkpt lat="40.0705856" lon="-105.2320969">
  <ele>1583.0</ele>
  <time>2026-08-28T17:54:48Z</time>
  <course>218.75</course>
  <speed>1.04</speed>
  <fix>3d</fix>
</trkpt>
<trkpt lat="40.0705822" lon="-105.2320996">
  <ele>1582.98</ele>
  <time>2026-08-28T17:54:48Z</time>
  <course>198.01</course>
  <speed>1.110180165558726</speed>
  <fix>3d</fix>
</trkpt>
<trkpt lat="40.070584" lon="-105.2320983">
  <ele>1583.0</ele>
  <time>2026-08-28T17:54:48Z</time>
  <course>209.08</course>
  <speed>1.08</speed>
  <fix>3d</fix>
</trkpt>
<trkpt lat="40.0705812" lon="-105.2320999">
  <ele>1582.98</ele>
  <time>2026-08-28T17:54:48Z</time>
  <course>190.96</course>
  <speed>1.1278741064498288</speed>
  <fix>3d</fix>
</trkpt>
<trkpt lat="40.070584" lon="-105.2320983">
  <ele>1583.0</ele>
  <time>2026-08-28T17:54:48Z</time>
  <course>209.08</course>
  <speed>1.08</speed>
  <fix>3d</fix>
</trkpt>
<trkpt lat="40.0705802" lon="-105.2321001">
  <ele>1582.98</ele>
  <time>2026-08-28T17:54:48Z</time>
  <course>183.57</course>
  <speed>1.1515641536623134</speed>
  <fix>3d</fix>
</trkpt>
<trkpt lat="40.0705822" lon="-105.2320994">
  <ele>1583.0</ele>
  <time>2026-08-28T17:54:48Z</time>
  <course>196.89</course>
  <speed>1.12</speed>
  <fix>3d</fix>
</trkpt>
<trkpt lat="40.0705791" lon="-105.2321">
  <ele>1582.97</ele>
  <time>2026-08-28T17:54:48Z</time>
  <course>175.99</course>
  <speed>1.163486140871476</speed>
  <fix>3d</fix>
</trkpt>
<trkpt lat="40.0705802" lon="-105.2320998">
  <ele>1583.0</ele>
  <time>2026-08-28T17:54:48Z</time>
  <course>182.69</course>
  <speed>1.16</speed>
  <fix>3d</fix>
</trkpt>
<trkpt lat="40.070578" lon="-105.2320998">
  <ele>1582.97</ele>
  <time>2026-08-28T17:54:48Z</time>
  <course>168.36</course>
  <speed>1.1866338946785566</speed>
  <fix>3d</fix>
</trkpt>
<trkpt lat="40.0705802" lon="-105.2320998">
  <ele>1583.0</ele>
  <time>2026-08-28T17:54:48Z</time>
  <course>182.69</course>
  <speed>1.16</speed>
  <fix>3d</fix>
</trkpt>
<trkpt lat="40.070577" lon="-105.2320993">
  <ele>1582.97</ele>
  <time>2026-08-28T17:54:48Z</time>
  <course>160.62</course>
  <speed>1.2020815280171309</speed>
  <fix>3d</fix>
</trkpt>
<trkpt lat="40.0705781" lon="-105.2320996">
  <ele>1583.0</ele>
  <time>2026-08-28T17:54:48Z</time>
  <course>167.56</course>
  <speed>1.19</speed>
  <fix>3d</fix>
</trkpt>
<trkpt lat="40.0705759" lon="-105.2320987">
  <ele>1582.97</ele>
  <time>2026-08-28T17:54:48Z</time>
  <course>152.85</course>
  <speed>1.212353083882744</speed>
  <fix>3d</fix>
</trkpt>
<trkpt lat="40.0705781" lon="-105.2320996">
  <ele>1583.0</ele>
  <time>2026-08-28T17:54:48Z</time>
  <course>167.56</course>
  <speed>1.19</speed>
  <fix>3d</fix>
</trkpt>
<trkpt lat="40.070575" lon="-105.232098">
  <ele>1582.97</ele>
  <time>2026-08-28T17:54:48Z</time>
  <course>144.93</course>
  <speed>1.2300406497347964</speed>
  <fix>3d</fix>
</trkpt>
<trkpt lat="40.070576" lon="-105.2320987">
  <ele>1583.0</ele>
  <time>2026-08-28T17:54:48Z</time>
  <course>152.02</course>
  <speed>1.22</speed>
  <fix>3d</fix>
</trkpt>
<trkpt lat="40.0705741" lon="-105.232097">
  <ele>1582.97</ele>
  <time>2026-08-28T17:54:49Z</time>
  <course>136.94</course>
  <speed>1.2445882853377659</speed>
  <fix>3d</fix>
</trkpt>
<trkpt lat="40.070576" lon="-105.2320987">
  <ele>1583.0</ele>
  <time>2026-08-28T17:54:49Z</time>
  <course>152.02</course>
  <speed>1.22</speed>
  <fix>3d</fix>
</trkpt>
<trkpt lat="40.0705734" lon="-105.2320958">
  <ele>1582.97</ele>
  <time>2026-08-28T17:54:49Z</time>
  <course>128.9</course>
  <speed>1.2480785231707179</speed>
  <fix>3d</fix>
</trkpt>
<trkpt lat="40.0705742" lon="-105.232097">
  <ele>1583.0</ele>
  <time>2026-08-28T17:54:49Z</time>
  <course>136.16</course>
  <speed>1.24</speed>
  <fix>3d</fix>
</trkpt>
<trkpt lat="40.0705727" lon="-105.2320946">
  <ele>1582.97</ele>
  <time>2026-08-28T17:54:49Z</time>
  <course>120.77</course>
  <speed>1.2578155667664477</speed>
  <fix>3d</fix>
</trkpt>
<trkpt lat="40.0705742" lon="-105.232097">
  <ele>1583.0</ele>
  <time>2026-08-28T17:54:49Z</time>
  <course>136.16</course>
  <speed>1.24</speed>
  <fix>3d</fix>
</trkpt>
<trkpt lat="40.0705722" lon="-105.2320932">
  <ele>1582.97</ele>
  <time>2026-08-28T17:54:49Z</time>
  <course>112.85</course>
  <speed>1.2535549449465708</speed>
  <fix>3d</fix>
</trkpt>
<trkpt lat="40.0705728" lon="-105.2320947">
  <ele>1583.0</ele>
  <time>2026-08-28T17:54:49Z</time>
  <course>120.19</course>
  <speed>1.25</speed>
  <fix>3d</fix>
</trkpt>
<trkpt lat="40.0705719" lon="-105.2320917">
  <ele>1582.97</ele>
  <time>2026-08-28T17:54:49Z</time>
  <course>105.49</course>
  <speed>1.2539936203984452</speed>
  <fix>3d</fix>
</trkpt>
<trkpt lat="40.0705728" lon="-105.2320947">
  <ele>1583.0</ele>
  <time>2026-08-28T17:54:49Z</time>
  <course>120.19</course>
  <speed>1.25</speed>
  <fix>3d</fix>
</trkpt>
<trkpt lat="40.0705717" lon="-105.2320902">
  <ele>1582.97</ele>
  <time>2026-08-28T17:54:49Z</time>
  <course>98.76</course>
  <speed>1.2490396310766123</speed>
  <fix>3d</fix>
</trkpt>
<trkpt lat="40.070572" lon="-105.232092">
  <ele>1583.0</ele>
  <time>2026-08-28T17:54:49Z</time>
  <course>105.18</course>
  <speed>1.25</speed>
  <fix>3d</fix>
</trkpt>
<trkpt lat="40.0705716" lon="-105.2320887">
  <ele>1582.97</ele>
  <time>2026-08-28T17:54:49Z</time>
  <course>92.67</course>
  <speed>1.2500399993600204</speed>
  <fix>3d</fix>
</trkpt>
<trkpt lat="40.070572" lon="-105.232092">
  <ele>1583.0</ele>
  <time>2026-08-28T17:54:49Z</time>
  <course>105.18</course>
  <speed>1.25</speed>
  <fix>3d</fix>
</trkpt>
<trkpt lat="40.0705717" lon="-105.2320872">
  <ele>1582.97</ele>
  <time>2026-08-28T17:54:49Z</time>
  <course>87.26</course>
  <speed>1.244025723206719</speed>
  <fix>3d</fix>
</trkpt>
<trkpt lat="40.0705716" lon="-105.2320891">
  <ele>1583.0</ele>
  <time>2026-08-28T17:54:49Z</time>
  <course>92.4</course>
  <speed>1.24</speed>
  <fix>3d</fix>
</trkpt>
<trkpt lat="40.0705718" lon="-105.2320858">
  <ele>1582.97</ele>
  <time>2026-08-28T17:54:49Z</time>
  <course>82.54</course>
  <speed>1.2362847568420472</speed>
  <fix>3d</fix>
</trkpt>
<trkpt lat="40.0705716" lon="-105.2320891">
  <ele>1583.0</ele>
  <time>2026-08-28T17:54:49Z</time>
  <course>92.4</course>
  <speed>1.24</speed>
  <fix>3d</fix>
</trkpt>
<trkpt lat="40.070572" lon="-105.2320843">
  <ele>1582.97</ele>
  <time>2026-08-28T17:54:49Z</time>
  <course>78.48</course>
  <speed>1.2345444503945575</speed>
  <fix>3d</fix>
</trkpt>
<trkpt lat="40.0705716" lon="-105.2320891">
  <ele>1583.0</ele>
  <time>2026-08-28T17:54:49Z</time>
  <course>92.4</course>
  <speed>1.24</speed>
  <fix>3d</fix>
</trkpt>
<trkpt lat="40.0705723" lon="-105.2320829">
  <ele>1582.97</ele>
  <time>2026-08-28T17:54:49Z</time>
  <course>75.02</course>
  <speed>1.2336936410632908</speed>
  <fix>3d</fix>
</trkpt>
<trkpt lat="40.0705717" lon="-105.2320862">
  <ele>1583.0</ele>
  <time>2026-08-28T17:54:49Z</time>
  <course>82.22</course>
  <speed>1.23</speed>
  <fix>3d</fix>
</trkpt>
<trkpt lat="40.0705726" lon="-105.2320815">
  <ele>1582.97</ele>
  <time>2026-08-28T17:54:49Z</time>
  <course>72.08</course>
  <speed>1.2431009613060398</speed>
  <fix>3d</fix>
</trkpt>
<trkpt lat="40.0705717" lon="-105.2320862">
  <ele>1583.0</ele>
  <time>2026-08-28T17:54:49Z</time>
  <course>82.22</course>
  <speed>1.23</speed>
  <fix>3d</fix>
</trkpt>
<trkpt lat="40.070573" lon="-105.2320802">
  <ele>1582.97</ele>
  <time>2026-08-28T17:54:49Z</time>
  <course>69.61</course>
  <speed>1.2553883861180173</speed>
  <fix>3d</fix>
</trkpt>
<trkpt lat="40.0705722" lon="-105.2320833">
  <ele>1583.0</ele>
  <time>2026-08-28T17:54:49Z</time>
  <course>74.6</course>
  <speed>1.24</speed>
  <fix>3d</fix>
</trkpt>
<trkpt lat="40.0705735" lon="-105.2320788">
  <ele>1582.97</ele>
  <time>2026-08-28T17:54:49Z</time>
  <course>67.53</course>
  <speed>1.2712198865656563</speed>
  <fix>3d</fix>
</trkpt>
<trkpt lat="40.0705722" lon="-105.2320833">
  <ele>1583.0</ele>
  <time>2026-08-28T17:54:49Z</time>
  <course>74.6</course>
  <speed>1.24</speed>
  <fix>3d</fix>
</trkpt>
<trkpt lat="40.0705739" lon="-105.2320775">
  <ele>1582.97</ele>
  <time>2026-08-28T17:54:49Z</time>
  <course>65.79</course>
  <speed>1.2924782396620842</speed>
  <fix>3d</fix>
</trkpt>
<trkpt lat="40.0705729" lon="-105.2320805">
  <ele>1583.0</ele>
  <time>2026-08-28T17:54:49Z</time>
  <course>69.11</course>
  <speed>1.26</speed>
  <fix>3d</fix>
</trkpt>
<trkpt lat="40.0705745" lon="-105.2320761">
  <ele>1582.97</ele>
  <time>2026-08-28T17:54:49Z</time>
  <course>64.34</course>
  <speed>1.3283448347473634</speed>
  <fix>3d</fix>
</trkpt>
<trkpt lat="40.0705738" lon="-105.2320778">
  <ele>1583.0</ele>
  <time>2026-08-28T17:54:49Z</time>
  <course>65.24</course>
  <speed>1.3</speed>
  <fix>3d</fix>
</trkpt>
<trkpt lat="40.070575" lon="-105.2320747">
  <ele>1582.97</ele>
  <time>2026-08-28T17:54:49Z</time>
  <course>63.14</course>
  <speed>1.364734406395618</speed>
  <fix>3d</fix>
</trkpt>
<trkpt lat="40.0705738" lon="-105.2320778">
  <ele>1583.0</ele>
  <time>2026-08-28T17:54:49Z</time>
  <course>65.24</course>
  <speed>1.3</speed>
  <fix>3d</fix>
</trkpt>
<trkpt lat="40.0705756" lon="-105.2320732">
  <ele>1582.97</ele>
  <time>2026-08-28T17:54:49Z</time>
  <course>62.16</course>
  <speed>1.4016062214473792</speed>
  <fix>3d</fix>
</trkpt>
<trkpt lat="40.0705748" lon="-105.2320749">
  <ele>1583.0</ele>
  <time>2026-08-28T17:54:49Z</time>
  <course>62.56</course>
  <speed>1.37</speed>
  <fix>3d</fix>
</trkpt>
<trkpt lat="40.0705762" lon="-105.2320717">
  <ele>1582.96</ele>
  <time>2026-08-28T17:54:49Z</time>
  <course>61.37</course>
  <speed>1.456193668438371</speed>
  <fix>3d</fix>
</trkpt>
<trkpt lat="40.0705748" lon="-105.2320749">
  <ele>1583.0</ele>
  <time>2026-08-28T17:54:49Z</time>
  <course>62.56</course>
  <speed>1.37</speed>
  <fix>3d</fix>
</trkpt>
<trkpt lat="40.0705769" lon="-105.2320702">
  <ele>1582.96</ele>
  <time>2026-08-28T17:54:49Z</time>
  <course>60.72</course>
  <speed>1.497230777134908</speed>
  <fix>3d</fix>
</trkpt>
<trkpt lat="40.070576" lon="-105.2320719">
  <ele>1583.0</ele>
  <time>2026-08-28T17:54:49Z</time>
  <course>60.75</course>
  <speed>1.46</speed>
  <fix>3d</fix>
</trkpt>
<trkpt lat="40.0705776" lon="-105.2320686">
  <ele>1582.96</ele>
  <time>2026-08-28T17:54:49Z</time>
  <course>60.19</course>
  <speed>1.5606408939919525</speed>
  <fix>3d</fix>
</trkpt>
<trkpt lat="40.070576" lon="-105.2320719">
  <ele>1583.0</ele>
  <time>2026-08-28T17:54:49Z</time>
  <course>60.75</course>
  <speed>1.46</speed>
  <fix>3d</fix>
</trkpt>
<trkpt lat="40.0705784" lon="-105.232067">
  <ele>1582.96</ele>
  <time>2026-08-28T17:54:49Z</time>
  <course>59.78</course>
  <speed>1.6292943257741985</speed>
  <fix>3d</fix>
</trkpt>
<trkpt lat="40.0705774" lon="-105.2320689">
  <ele>1583.0</ele>
  <time>2026-08-28T17:54:49Z</time>
  <course>59.55</course>
  <speed>1.58</speed>
  <fix>3d</fix>
</trkpt>
<trkpt lat="40.0705791" lon="-105.2320653">
  <ele>1582.96</ele>
  <time>2026-08-28T17:54:49Z</time>
  <course>59.47</course>
  <speed>1.7013524032369074</speed>
  <fix>3d</fix>
</trkpt>
<trkpt lat="40.0705774" lon="-105.2320689">
  <ele>1583.0</ele>
  <time>2026-08-28T17:54:49Z</time>
  <course>59.55</course>
  <speed>1.58</speed>
  <fix>3d</fix>
</trkpt>
<trkpt lat="40.07058" lon="-105.2320635">
  <ele>1582.97</ele>
  <time>2026-08-28T17:54:49Z</time>
  <course>59.22</course>
  <speed>1.7734147850968198</speed>
  <fix>3d</fix>
</trkpt>
<trkpt lat="40.0705789" lon="-105.2320656">
  <ele>1583.0</ele>
  <time>2026-08-28T17:54:49Z</time>
  <course>58.81</course>
  <speed>1.71</speed>
  <fix>3d</fix>
</trkpt>
<trkpt lat="40.0705808" lon="-105.2320616">
  <ele>1582.97</ele>
  <time>2026-08-28T17:54:49Z</time>
  <course>59.05</course>
  <speed>1.859247159470736</speed>
  <fix>3d</fix>
</trkpt>
<trkpt lat="40.0705789" lon="-105.2320656">
  <ele>1583.0</ele>
  <time>2026-08-28T17:54:49Z</time>
  <course>58.81</course>
  <speed>1.71</speed>
  <fix>3d</fix>
</trkpt>
<trkpt lat="40.0705817" lon="-105.2320597">
  <ele>1582.97</ele>
  <time>2026-08-28T17:54:49Z</time>
  <course>58.94</course>
  <speed>1.9398195792392654</speed>
  <fix>3d</fix>
</trkpt>
<trkpt lat="40.0705806" lon="-105.232062">
  <ele>1583.0</ele>
  <time>2026-08-28T17:54:49Z</time>
  <course>58.39</course>
  <speed>1.87</speed>
  <fix>3d</fix>
</trkpt>
<trkpt lat="40.0705827" lon="-105.2320576">
  <ele>1582.97</ele>
  <time>2026-08-28T17:54:49Z</time>
  <course>58.87</course>
  <speed>2.025660386145713</speed>
  <fix>3d</fix>
</trkpt>
<trkpt lat="40.0705806" lon="-105.232062">
  <ele>1583.0</ele>
  <time>2026-08-28T17:54:49Z</time>
  <course>58.39</course>
  <speed>1.87</speed>
  <fix>3d</fix>
</trkpt>
<trkpt lat="40.0705837" lon="-105.2320555">
  <ele>1582.98</ele>
  <time>2026-08-28T17:54:49Z</time>
  <course>58.85</course>
  <speed>2.114734025829253</speed>
  <fix>3d</fix>
</trkpt>
<trkpt lat="40.0705824" lon="-105.232058">
  <ele>1583.0</ele>
  <time>2026-08-28T17:54:49Z</time>
  <course>58.2</course>
  <speed>2.04</speed>
  <fix>3d</fix>
</trkpt>
<trkpt lat="40.0705847" lon="-105.2320533">
  <ele>1582.98</ele>
  <time>2026-08-28T17:54:49Z</time>
  <course>58.85</course>
  <speed>2.209072203437452</speed>
  <fix>3d</fix>
</trkpt>
<trkpt lat="40.0705824" lon="-105.232058">
  <ele>1583.0</ele>
  <time>2026-08-28T17:54:49Z</time>
  <course>58.2</course>
  <speed>2.04</speed>
  <fix>3d</fix>
</trkpt>
<trkpt lat="40.0705858" lon="-105.232051">
  <ele>1582.99</ele>
  <time>2026-08-28T17:54:49Z</time>
  <course>58.86</course>
  <speed>2.3034105148670307</speed>
  <fix>3d</fix>
</trkpt>
<trkpt lat="40.0705824" lon="-105.232058">
  <ele>1583.0</ele>
  <time>2026-08-28T17:54:49Z</time>
  <course>58.2</course>
  <speed>2.04</speed>
  <fix>3d</fix>
</trkpt>
<trkpt lat="40.0705869" lon="-105.2320486">
  <ele>1582.99</ele>
  <time>2026-08-28T17:54:49Z</time>
  <course>58.9</course>
  <speed>2.3977489443225704</speed>
  <fix>3d</fix>
</trkpt>
<trkpt lat="40.0705844" lon="-105.2320538">
  <ele>1583.0</ele>
  <time>2026-08-28T17:54:49Z</time>
  <course>58.16</course>
  <speed>2.22</speed>
  <fix>3d</fix>
</trkpt>
<trkpt lat="40.0705881" lon="-105.2320461">
  <ele>1583.0</ele>
  <time>2026-08-28T17:54:49Z</time>
  <course>58.97</course>
  <speed>2.495375723212839</speed>
  <fix>3d</fix>
</trkpt>
<trkpt lat="40.0705844" lon="-105.2320538">
  <ele>1583.0</ele>
  <time>2026-08-28T17:54:49Z</time>
  <course>58.16</course>
  <speed>2.22</speed>
  <fix>3d</fix>
</trkpt>
<trkpt lat="40.0705893" lon="-105.2320436">
  <ele>1583.0</ele>
  <time>2026-08-28T17:54:49Z</time>
  <course>59.05</course>
  <speed>2.589710408520613</speed>
  <fix>3d</fix>
</trkpt>
<trkpt lat="40.0705867" lon="-105.2320491">
  <ele>1583.0</ele>
  <time>2026-08-28T17:54:49Z</time>
  <course>58.22</course>
  <speed>2.41</speed>
  <fix>3d</fix>
</trkpt>
<trkpt lat="40.0705905" lon="-105.2320409">
  <ele>1583.0</ele>
  <time>2026-08-28T17:54:49Z</time>
  <course>59.16</course>
  <speed>2.6873965096353016</speed>
  <fix>3d</fix>
</trkpt>
<trkpt lat="40.0705867" lon="-105.2320491">
  <ele>1583.0</ele>
  <time>2026-08-28T17:54:49Z</time>
  <course>58.22</course>
  <speed>2.41</speed>
  <fix>3d</fix>
</trkpt>
<trkpt lat="40.0705918" lon="-105.2320382">
  <ele>1582.99</ele>
  <time>2026-08-28T17:54:49Z</time>
  <course>59.28</course>
  <speed>2.781726082848561</speed>
  <fix>3d</fix>
</trkpt>
<trkpt lat="40.070589" lon="-105.2320441">
  <ele>1583.0</ele>
  <time>2026-08-28T17:54:49Z</time>
  <course>58.36</course>
  <speed>2.6</speed>
  <fix>3d</fix>
</trkpt>
<trkpt lat="40.0705931" lon="-105.2320353">
  <ele>1582.99</ele>
  <time>2026-08-28T17:54:49Z</time>
  <course>59.39</course>
  <speed>2.8794617552591317</speed>
  <fix>3d</fix>
</trkpt>
<trkpt lat="40.070589" lon="-105.2320441">
  <ele>1583.0</ele>
  <time>2026-08-28T17:54:49Z</time>
  <course>58.36</course>
  <speed>2.6</speed>
  <fix>3d</fix>
</trkpt>
<trkpt lat="40.0705945" lon="-105.2320323">
  <ele>1582.99</ele>
  <time>2026-08-28T17:54:49Z</time>
  <course>59.52</course>
  <speed>2.9772470505485433</speed>
  <fix>3d</fix>
</trkpt>
<trkpt lat="40.0705916" lon="-105.2320388">
  <ele>1583.0</ele>
  <time>2026-08-28T17:54:49Z</time>
  <course>58.57</course>
  <speed>2.8</speed>
  <fix>3d</fix>
</trkpt>
<trkpt lat="40.0705959" lon="-105.2320292">
  <ele>1582.99</ele>
  <time>2026-08-28T17:54:49Z</time>
  <course>59.64</course>
  <speed>3.080162333384395</speed>
  <fix>3d</fix>
</trkpt>
<trkpt lat="40.0705942" lon="-105.2320329">
  <ele>1583.0</ele>
  <time>2026-08-28T17:54:49Z</time>
  <course>58.81</course>
  <speed>3.0</speed>
  <fix>3d</fix>
</trkpt>
<trkpt lat="40.0705973" lon="-105.232026">
  <ele>1582.99</ele>
  <time>2026-08-28T17:54:49Z</time>
  <course>59.79</course>
  <speed>3.178002517305485</speed>
  <fix>3d</fix>
</trkpt>
<trkpt lat="40.0705942" lon="-105.2320329">
  <ele>1583.0</ele>
  <time>2026-08-28T17:54:49Z</time>
  <course>58.81</course>
  <speed>3.0</speed>
  <fix>3d</fix>
</trkpt>
<trkpt lat="40.0705988" lon="-105.2320227">
  <ele>1582.98</ele>
  <time>2026-08-28T17:54:49Z</time>
  <course>59.94</course>
  <speed>3.2758815607405594</speed>
  <fix>3d</fix>
</trkpt>
<trkpt lat="40.0705971" lon="-105.2320267">
  <ele>1583.0</ele>
  <time>2026-08-28T17:54:49Z</time>
  <course>59.08</course>
  <speed>3.19</speed>
  <fix>3d</fix>
</trkpt>
<trkpt lat="40.0706004" lon="-105.2320193">
  <ele>1582.98</ele>
  <time>2026-08-28T17:54:50Z</time>
  <course>60.09</course>
  <speed>3.3788163607985564</speed>
  <fix>3d</fix>
</trkpt>
<trkpt lat="40.0705971" lon="-105.2320267">
  <ele>1583.0</ele>
  <time>2026-08-28T17:54:50Z</time>
  <course>59.08</course>
  <speed>3.19</speed>
  <fix>3d</fix>
</trkpt>
<trkpt lat="40.0706019" lon="-105.2320158">
  <ele>1582.99</ele>
  <time>2026-08-28T17:54:50Z</time>
  <course>60.23</course>
  <speed>3.4767369759589233</speed>
  <fix>3d</fix>
</trkpt>
<trkpt lat="40.0706002" lon="-105.23202">
  <ele>1583.0</ele>
  <time>2026-08-28T17:54:50Z</time>
  <course>59.37</course>
  <speed>3.39</speed>
  <fix>3d</fix>
</trkpt>
<trkpt lat="40.0706036" lon="-105.2320121">
  <ele>1582.99</ele>
  <time>2026-08-28T17:54:50Z</time>
  <course>60.39</course>
  <speed>3.5746887976437893</speed>
  <fix>3d</fix>
</trkpt>
<trkpt lat="40.0706002" lon="-105.23202">
  <ele>1583.0</ele>
  <time>2026-08-28T17:54:50Z</time>
  <course>59.37</course>
  <speed>3.39</speed>
  <fix>3d</fix>
</trkpt>
<trkpt lat="40.0706052" lon="-105.2320083">
  <ele>1582.99</ele>
  <time>2026-08-28T17:54:50Z</time>
  <course>60.54</course>
  <speed>3.6726693289758607</speed>
  <fix>3d</fix>
</trkpt>
<trkpt lat="40.0706033" lon="-105.232013">
  <ele>1583.0</ele>
  <time>2026-08-28T17:54:50Z</time>
  <course>59.67</course>
  <speed>3.58</speed>
  <fix>3d</fix>
</trkpt>
<trkpt lat="40.0706069" lon="-105.2320045">
  <ele>1582.99</ele>
  <time>2026-08-28T17:54:50Z</time>
  <course>60.69</course>
  <speed>3.7706763319065186</speed>
  <fix>3d</fix>
</trkpt>
<trkpt lat="40.0706033" lon="-105.232013">
  <ele>1583.0</ele>
  <time>2026-08-28T17:54:50Z</time>
  <course>59.67</course>
  <speed>3.58</speed>
  <fix>3d</fix>
</trkpt>
<trkpt lat="40.0706087" lon="-105.2320005">
  <ele>1582.99</ele>
  <time>2026-08-28T17:54:50Z</time>
  <course>60.85</course>
  <speed>3.8687077946001556</speed>
  <fix>3d</fix>
</trkpt>
<trkpt lat="40.0706067" lon="-105.2320055">
  <ele>1583.0</ele>
  <time>2026-08-28T17:54:50Z</time>
  <course>59.97</course>
  <speed>3.77</speed>
  <fix>3d</fix>
</trkpt>
<trkpt lat="40.0706104" lon="-105.2319965">
  <ele>1582.99</ele>
  <time>2026-08-28T17:54:50Z</time>
  <course>61.01</course>
  <speed>3.953150642209325</speed>
  <fix>3d</fix>
</trkpt>
<trkpt lat="40.0706067" lon="-105.2320055">
  <ele>1583.0</ele>
  <time>2026-08-28T17:54:50Z</time>
  <course>59.97</course>
  <speed>3.77</speed>
  <fix>3d</fix>
</trkpt>
<trkpt lat="40.0706122" lon="-105.2319923">
  <ele>1582.99</ele>
  <time>2026-08-28T17:54:50Z</time>
  <course>61.17</course>
  <speed>4.05123437979093</speed>
  <fix>3d</fix>
</trkpt>
<trkpt lat="40.0706101" lon="-105.2319976">
  <ele>1583.0</ele>
  <time>2026-08-28T17:54:50Z</time>
  <course>60.29</course>
  <speed>3.96</speed>
  <fix>3d</fix>
</trkpt>
<trkpt lat="40.0706141" lon="-105.231988">
  <ele>1582.99</ele>
  <time>2026-08-28T17:54:50Z</time>
  <course>61.34</course>
  <speed>4.149337296484825</speed>
  <fix>3d</fix>
</trkpt>
<trkpt lat="40.0706101" lon="-105.2319976">
  <ele>1583.0</ele>
  <time>2026-08-28T17:54:50Z</time>
  <course>60.29</course>
  <speed>3.96</speed>
  <fix>3d</fix>
</trkpt>
<trkpt lat="40.0706159" lon="-105.2319837">
  <ele>1582.99</ele>
  <time>2026-08-28T17:54:50Z</time>
  <course>61.51</course>
  <speed>4.242640687119286</speed>
  <fix>3d</fix>
</trkpt>
<trkpt lat="40.0706137" lon="-105.2319893">
  <ele>1583.0</ele>
  <time>2026-08-28T17:54:50Z</time>
  <course>60.62</course>
  <speed>4.14</speed>
  <fix>3d</fix>
</trkpt>
<trkpt lat="40.0706178" lon="-105.2319792">
  <ele>1582.99</ele>
  <time>2026-08-28T17:54:50Z</time>
  <course>61.68</course>
  <speed>4.32722774995724</speed>
  <fix>3d</fix>
</trkpt>
<trkpt lat="40.0706137" lon="-105.2319893">
  <ele>1583.0</ele>
  <time>2026-08-28T17:54:50Z</time>
  <course>60.62</course>
  <speed>4.14</speed>
  <fix>3d</fix>
</trkpt>
<trkpt lat="40.0706197" lon="-105.2319747">
  <ele>1583.0</ele>
  <time>2026-08-28T17:54:50Z</time>
  <course>61.86</course>
  <speed>4.420644749355008</speed>
  <fix>3d</fix>
</trkpt>
<trkpt lat="40.0706137" lon="-105.2319893">
  <ele>1583.0</ele>
  <time>2026-08-28T17:54:50Z</time>
  <course>60.62</course>
  <speed>4.14</speed>
  <fix>3d</fix>
</trkpt>
<trkpt lat="40.0706217" lon="-105.23197">
  <ele>1583.0</ele>
  <time>2026-08-28T17:54:50Z</time>
  <course>62.01</course>
  <speed>4.518849411078001</speed>
  <fix>3d</fix>
</trkpt>
<trkpt lat="40.0706175" lon="-105.2319806">
  <ele>1583.0</ele>
  <time>2026-08-28T17:54:50Z</time>
  <course>60.96</course>
  <speed>4.33</speed>
  <fix>3d</fix>
</trkpt>
<trkpt lat="40.0706236" lon="-105.2319653">
  <ele>1583.0</ele>
  <time>2026-08-28T17:54:50Z</time>
  <course>62.13</course>
  <speed>4.603531253288067</speed>
  <fix>3d</fix>
</trkpt>
<trkpt lat="40.0706175" lon="-105.2319806">
  <ele>1583.0</ele>
  <time>2026-08-28T17:54:50Z</time>
  <course>60.96</course>
  <speed>4.33</speed>
  <fix>3d</fix>
</trkpt>
<trkpt lat="40.0706256" lon="-105.2319605">
  <ele>1583.0</ele>
  <time>2026-08-28T17:54:50Z</time>
  <course>62.26</course>
  <speed>4.692941508265365</speed>
  <fix>3d</fix>
</trkpt>
<trkpt lat="40.0706213" lon="-105.2319715">
  <ele>1583.0</ele>
  <time>2026-08-28T17:54:50Z</time>
  <course>61.27</course>
  <speed>4.51</speed>
  <fix>3d</fix>
</trkpt>
<trkpt lat="40.0706276" lon="-105.2319557">
  <ele>1583.0</ele>
  <time>2026-08-28T17:54:50Z</time>
  <course>62.39</course>
  <speed>4.786491408119312</speed>
  <fix>3d</fix>
</trkpt>
<trkpt lat="40.0706213" lon="-105.2319715">
  <ele>1583.0</ele>
  <time>2026-08-28T17:54:50Z</time>
  <course>61.27</course>
  <speed>4.51</speed>
  <fix>3d</fix>
</trkpt>
<trkpt lat="40.0706297" lon="-105.2319507">
  <ele>1583.0</ele>
  <time>2026-08-28T17:54:50Z</time>
  <course>62.52</course>
  <speed>4.871242141384474</speed>
  <fix>3d</fix>
</trkpt>
<trkpt lat="40.0706253" lon="-105.231962">
  <ele>1583.0</ele>
  <time>2026-08-28T17:54:50Z</time>
  <course>61.53</course>
  <speed>4.69</speed>
  <fix>3d</fix>
</trkpt>
<trkpt lat="40.0706318" lon="-105.2319456">
  <ele>1583.0</ele>
  <time>2026-08-28T17:54:50Z</time>
  <course>62.66</course>
  <speed>4.956016545573672</speed>
  <fix>3d</fix>
</trkpt>
<trkpt lat="40.0706294" lon="-105.2319521">
  <ele>1583.0</ele>
  <time>2026-08-28T17:54:50Z</time>
  <course>61.79</course>
  <speed>4.88</speed>
  <fix>3d</fix>
</trkpt>
<trkpt lat="40.0706339" lon="-105.2319403">
  <ele>1583.0</ele>
  <time>2026-08-28T17:54:50Z</time>
  <course>62.79</course>
  <speed>5.049683158377365</speed>
  <fix>3d</fix>
</trkpt>
<trkpt lat="40.0706294" lon="-105.2319521">
  <ele>1583.0</ele>
  <time>2026-08-28T17:54:50Z</time>
  <course>61.79</course>
  <speed>4.88</speed>
  <fix>3d</fix>
</trkpt>
<trkpt lat="40.070636" lon="-105.231935">
  <ele>1583.0</ele>
  <time>2026-08-28T17:54:50Z</time>
  <course>62.91</course>
  <speed>5.125631668389761</speed>
  <fix>3d</fix>
</trkpt>
<trkpt lat="40.0706335" lon="-105.2319418">
  <ele>1583.0</ele>
  <time>2026-08-28T17:54:50Z</time>
  <course>62.06</course>
  <speed>5.05</speed>
  <fix>3d</fix>
</trkpt>
<trkpt lat="40.0706382" lon="-105.2319296">
  <ele>1583.0</ele>
  <time>2026-08-28T17:54:50Z</time>
  <course>63.01</course>
  <speed>5.196999134115764</speed>
  <fix>3d</fix>
</trkpt>
<trkpt lat="40.0706335" lon="-105.2319418">
  <ele>1583.0</ele>
  <time>2026-08-28T17:54:50Z</time>
  <course>62.06</course>
  <speed>5.05</speed>
  <fix>3d</fix>
</trkpt>
<trkpt lat="40.0706404" lon="-105.2319241">
  <ele>1583.0</ele>
  <time>2026-08-28T17:54:50Z</time>
  <course>63.08</course>
  <speed>5.255187912910442</speed>
  <fix>3d</fix>
</trkpt>
<trkpt lat="40.0706378" lon="-105.2319311">
  <ele>1583.0</ele>
  <time>2026-08-28T17:54:50Z</time>
  <course>62.27</course>
  <speed>5.2</speed>
  <fix>3d</fix>
</trkpt>
<trkpt lat="40.0706426" lon="-105.2319186">
  <ele>1582.99</ele>
  <time>2026-08-28T17:54:50Z</time>
  <course>63.15</course>
  <speed>5.295328129587439</speed>
  <fix>3d</fix>
</trkpt>
<trkpt lat="40.0706378" lon="-105.2319311">
  <ele>1583.0</ele>
  <time>2026-08-28T17:54:50Z</time>
  <course>62.27</course>
  <speed>5.2</speed>
  <fix>3d</fix>
</trkpt>
<trkpt lat="40.0706448" lon="-105.231913">
  <ele>1582.99</ele>
  <time>2026-08-28T17:54:50Z</time>
  <course>63.22</course>
  <speed>5.33548498264216</speed>
  <fix>3d</fix>
</trkpt>
<trkpt lat="40.0706423" lon="-105.2319203">
  <ele>1583.0</ele>
  <time>2026-08-28T17:54:50Z</time>
  <course>62.43</course>
  <speed>5.3</speed>
  <fix>3d</fix>
</trkpt>
<trkpt lat="40.0706471" lon="-105.2319073">
  <ele>1582.99</ele>
  <time>2026-08-28T17:54:50Z</time>
  <course>63.3</course>
  <speed>5.357844715928224</speed>
  <fix>3d</fix>
</trkpt>
<trkpt lat="40.0706423" lon="-105.2319203">
  <ele>1583.0</ele>
  <time>2026-08-28T17:54:50Z</time>
  <course>62.43</course>
  <speed>5.3</speed>
  <fix>3d</fix>
</trkpt>
<trkpt lat="40.0706493" lon="-105.2319017">
  <ele>1582.99</ele>
  <time>2026-08-28T17:54:50Z</time>
  <course>63.37</course>
  <speed>5.362210365138615</speed>
  <fix>3d</fix>
</trkpt>
<trkpt lat="40.0706467" lon="-105.2319091">
  <ele>1583.0</ele>
  <time>2026-08-28T17:54:50Z</time>
  <course>62.57</course>
  <speed>5.35</speed>
  <fix>3d</fix>
</trkpt>
<trkpt lat="40.0706516" lon="-105.231896">
  <ele>1582.98</ele>
  <time>2026-08-28T17:54:50Z</time>
  <course>63.44</course>
  <speed>5.362210365138615</speed>
  <fix>3d</fix>
</trkpt>
<trkpt lat="40.0706467" lon="-105.2319091">
  <ele>1583.0</ele>
  <time>2026-08-28T17:54:50Z</time>
  <course>62.57</course>
  <speed>5.35</speed>
  <fix>3d</fix>
</trkpt>
<trkpt lat="40.0706538" lon="-105.2318904">
  <ele>1582.98</ele>
  <time>2026-08-28T17:54:50Z</time>
  <course>63.51</course>
  <speed>5.357686067697509</speed>
  <fix>3d</fix>
</trkpt>
<trkpt lat="40.070651" lon="-105.231898">
  <ele>1583.0</ele>
  <time>2026-08-28T17:54:50Z</time>
  <course>62.71</course>
  <speed>5.36</speed>
  <fix>3d</fix>
</trkpt>
<trkpt lat="40.070656" lon="-105.2318847">
  <ele>1582.98</ele>
  <time>2026-08-28T17:54:50Z</time>
  <course>63.6</course>
  <speed>5.353176627013161</speed>
  <fix>3d</fix>
</trkpt>
<trkpt lat="40.070651" lon="-105.231898">
  <ele>1583.0</ele>
  <time>2026-08-28T17:54:50Z</time>
  <course>62.71</course>
  <speed>5.36</speed>
  <fix>3d</fix>
</trkpt>
<trkpt lat="40.0706582" lon="-105.2318791">
  <ele>1582.98</ele>
  <time>2026-08-28T17:54:50Z</time>
  <course>63.69</course>
  <speed>5.330816072610271</speed>
  <fix>3d</fix>
</trkpt>
<trkpt lat="40.0706555" lon="-105.2318867">
  <ele>1583.0</ele>
  <time>2026-08-28T17:54:50Z</time>
  <course>62.87</course>
  <speed>5.35</speed>
  <fix>3d</fix>
</trkpt>
<trkpt lat="40.0706604" lon="-105.2318735">
  <ele>1582.98</ele>
  <time>2026-08-28T17:54:50Z</time>
  <course>63.79</course>
  <speed>5.312899396751269</speed>
  <fix>3d</fix>
</trkpt>
<trkpt lat="40.0706555" lon="-105.2318867">
  <ele>1583.0</ele>
  <time>2026-08-28T17:54:50Z</time>
  <course>62.87</course>
  <speed>5.35</speed>
  <fix>3d</fix>
</trkpt>
<trkpt lat="40.0706625" lon="-105.2318679">
  <ele>1582.98</ele>
  <time>2026-08-28T17:54:50Z</time>
  <course>63.86</course>
  <speed>5.2860665905756425</speed>
  <fix>3d</fix>
</trkpt>
<trkpt lat="40.0706555" lon="-105.2318867">
  <ele>1583.0</ele>
  <time>2026-08-28T17:54:50Z</time>
  <course>62.87</course>
  <speed>5.35</speed>
  <fix>3d</fix>
</trkpt>
<trkpt lat="40.0706647" lon="-105.2318624">
  <ele>1582.98</ele>
  <time>2026-08-28T17:54:50Z</time>
  <course>63.97</course>
  <speed>5.250295229794226</speed>
  <fix>3d</fix>
</trkpt>
<trkpt lat="40.0706598" lon="-105.2318756">
  <ele>1583.0</ele>
  <time>2026-08-28T17:54:50Z</time>
  <course>63.05</course>
  <speed>5.31</speed>
  <fix>3d</fix>
</trkpt>
<trkpt lat="40.0706668" lon="-105.231857">
  <ele>1582.98</ele>
  <time>2026-08-28T17:54:50Z</time>
  <course>64.07</course>
  <speed>5.223485426417882</speed>
  <fix>3d</fix>
</trkpt>
<trkpt lat="40.0706598" lon="-105.2318756">
  <ele>1583.0</ele>
  <time>2026-08-28T17:54:50Z</time>
  <course>63.05</course>
  <speed>5.31</speed>
  <fix>3d</fix>
</trkpt>
<trkpt lat="40.0706689" lon="-105.2318516">
  <ele>1582.98</ele>
  <time>2026-08-28T17:54:50Z</time>
  <course>64.14</course>
  <speed>5.1966912550198705</speed>
  <fix>3d</fix>
</trkpt>
<trkpt lat="40.0706641" lon="-105.2318645">
  <ele>1583.0</ele>
  <time>2026-08-28T17:54:50Z</time>
  <course>63.23</course>
  <speed>5.26</speed>
  <fix>3d</fix>
</trkpt>
<trkpt lat="40.0706709" lon="-105.2318462">
  <ele>1582.98</ele>
  <time>2026-08-28T17:54:50Z</time>
  <course>64.25</course>
  <speed>5.160939836890176</speed>
  <fix>3d</fix>
</trkpt>
<trkpt lat="40.0706641" lon="-105.2318645">
  <ele>1583.0</ele>
  <time>2026-08-28T17:54:50Z</time>
  <course>63.23</course>
  <speed>5.26</speed>
  <fix>3d</fix>
</trkpt>
<trkpt lat="40.070673" lon="-105.2318408">
  <ele>1582.98</ele>
  <time>2026-08-28T17:54:50Z</time>
  <course>64.32</course>
  <speed>5.138579570270369</speed>
  <fix>3d</fix>
</trkpt>
<trkpt lat="40.0706684" lon="-105.2318535">
  <ele>1583.0</ele>
  <time>2026-08-28T17:54:50Z</time>
  <course>63.42</course>
  <speed>5.21</speed>
  <fix>3d</fix>
</trkpt>
<trkpt lat="40.070675" lon="-105.2318355">
  <ele>1582.98</ele>
  <time>2026-08-28T17:54:50Z</time>
  <course>64.42</course>
  <speed>5.102832546733236</speed>
  <fix>3d</fix>
</trkpt>
<trkpt lat="40.0706684" lon="-105.2318535">
  <ele>1583.0</ele>
  <time>2026-08-28T17:54:50Z</time>
  <course>63.42</course>
  <speed>5.21</speed>
  <fix>3d</fix>
</trkpt>
<trkpt lat="40.070677" lon="-105.2318301">
  <ele>1582.98</ele>
  <time>2026-08-28T17:54:50Z</time>
  <course>64.5</course>
  <speed>5.076071315495873</speed>
  <fix>3d</fix>
</trkpt>
<trkpt lat="40.0706725" lon="-105.2318426">
  <ele>1583.0</ele>
  <time>2026-08-28T17:54:50Z</time>
  <course>63.59</course>
  <speed>5.16</speed>
  <fix>3d</fix>
</trkpt>
<trkpt lat="40.070679" lon="-105.2318248">
  <ele>1582.98</ele>
  <time>2026-08-28T17:54:50Z</time>
  <course>64.58</course>
  <speed>5.049326687787195</speed>
  <fix>3d</fix>
</trkpt>
<trkpt lat="40.0706766" lon="-105.2318318">
  <ele>1583.0</ele>
  <time>2026-08-28T17:54:50Z</time>
  <course>63.75</course>
  <speed>5.11</speed>
  <fix>3d</fix>
</trkpt>
<trkpt lat="40.070681" lon="-105.2318195">
  <ele>1582.98</ele>
  <time>2026-08-28T17:54:51Z</time>
  <course>64.65</course>
  <speed>5.035960682928333</speed>
  <fix>3d</fix>
</trkpt>
<trkpt lat="40.0706766" lon="-105.2318318">
  <ele>1583.0</ele>
  <time>2026-08-28T17:54:51Z</time>
  <course>63.75</course>
  <speed>5.11</speed>
  <fix>3d</fix>
</trkpt>
<trkpt lat="40.070683" lon="-105.2318142">
  <ele>1582.99</ele>
  <time>2026-08-28T17:54:51Z</time>
  <course>64.72</course>
  <speed>5.013601499919993</speed>
  <fix>3d</fix>
</trkpt>
<trkpt lat="40.0706806" lon="-105.2318211">
  <ele>1583.0</ele>
  <time>2026-08-28T17:54:51Z</time>
  <course>63.89</course>
  <speed>5.07</speed>
  <fix>3d</fix>
</trkpt>
<trkpt lat="40.070685" lon="-105.2318089">
  <ele>1582.99</ele>
  <time>2026-08-28T17:54:51Z</time>
  <course>64.79</course>
  <speed>4.9958883094000415</speed>
  <fix>3d</fix>
</trkpt>
<trkpt lat="40.0706806" lon="-105.2318211">
  <ele>1583.0</ele>
  <time>2026-08-28T17:54:51Z</time>
  <course>63.89</course>
  <speed>5.07</speed>
  <fix>3d</fix>
</trkpt>
<trkpt lat="40.070687" lon="-105.2318036">
  <ele>1582.99</ele>
  <time>2026-08-28T17:54:51Z</time>
  <course>64.86</course>
  <speed>4.98253951313986</speed>
  <fix>3d</fix>
</trkpt>
<trkpt lat="40.0706847" lon="-105.2318104">
  <ele>1583.0</ele>
  <time>2026-08-28T17:54:51Z</time>
  <course>64.03</course>
  <speed>5.04</speed>
  <fix>3d</fix>
</trkpt>
<trkpt lat="40.070689" lon="-105.2317983">
  <ele>1582.99</ele>
  <time>2026-08-28T17:54:51Z</time>
  <course>64.93</course>
  <speed>4.969195105849638</speed>
  <fix>3d</fix>
</trkpt>
<trkpt lat="40.0706847" lon="-105.2318104">
  <ele>1583.0</ele>
  <time>2026-08-28T17:54:51Z</time>
  <course>64.03</course>
  <speed>5.04</speed>
  <fix>3d</fix>
</trkpt>
<trkpt lat="40.0706909" lon="-105.231793">
  <ele>1582.99</ele>
  <time>2026-08-28T17:54:51Z</time>
  <course>65.0</course>
  <speed>4.964876634922564</speed>
  <fix>3d</fix>
</trkpt>
<trkpt lat="40.0706886" lon="-105.2317997">
  <ele>1583.0</ele>
  <time>2026-08-28T17:54:51Z</time>
  <course>64.17</course>
  <speed>5.02</speed>
  <fix>3d</fix>
</trkpt>
<trkpt lat="40.0706929" lon="-105.2317876">
  <ele>1582.99</ele>
  <time>2026-08-28T17:54:51Z</time>
  <course>65.07</course>
  <speed>4.955855122983318</speed>
  <fix>3d</fix>
</trkpt>
<trkpt lat="40.0706886" lon="-105.2317997">
  <ele>1583.0</ele>
  <time>2026-08-28T17:54:51Z</time>
  <course>64.17</course>
  <speed>5.02</speed>
  <fix>3d</fix>
</trkpt>
<trkpt lat="40.0706948" lon="-105.2317823">
  <ele>1582.98</ele>
  <time>2026-08-28T17:54:51Z</time>
  <course>65.13</course>
  <speed>4.951545213365218</speed>
  <fix>3d</fix>
</trkpt>
<trkpt lat="40.0706925" lon="-105.2317892">
  <ele>1583.0</ele>
  <time>2026-08-28T17:54:51Z</time>
  <course>64.3</course>
  <speed>5.0</speed>
  <fix>3d</fix>
</trkpt>
<trkpt lat="40.0706968" lon="-105.231777">
  <ele>1582.98</ele>
  <time>2026-08-28T17:54:51Z</time>
  <course>65.2</course>
  <speed>4.947251762342401</speed>
  <fix>3d</fix>
</trkpt>
<trkpt lat="40.0706925" lon="-105.2317892">
  <ele>1583.0</ele>
  <time>2026-08-28T17:54:51Z</time>
  <course>64.3</course>
  <speed>5.0</speed>
  <fix>3d</fix>
</trkpt>
<trkpt lat="40.0706987" lon="-105.2317717">
  <ele>1582.98</ele>
  <time>2026-08-28T17:54:51Z</time>
  <course>65.27</course>
  <speed>4.947251762342401</speed>
  <fix>3d</fix>
</trkpt>
<trkpt lat="40.0706964" lon="-105.2317786">
  <ele>1583.0</ele>
  <time>2026-08-28T17:54:51Z</time>
  <course>64.44</course>
  <speed>4.99</speed>
  <fix>3d</fix>
</trkpt>
<trkpt lat="40.0707007" lon="-105.2317664">
  <ele>1582.98</ele>
  <time>2026-08-28T17:54:51Z</time>
  <course>65.34</course>
  <speed>4.942974812802509</speed>
  <fix>3d</fix>
</trkpt>
<trkpt lat="40.0706964" lon="-105.2317786">
  <ele>1583.0</ele>
  <time>2026-08-28T17:54:51Z</time>
  <course>64.44</course>
  <speed>4.99</speed>
  <fix>3d</fix>
</trkpt>
<trkpt lat="40.0707026" lon="-105.2317611">
  <ele>1582.98</ele>
  <time>2026-08-28T17:54:51Z</time>
  <course>65.41</course>
  <speed>4.952019789944301</speed>
  <fix>3d</fix>
</trkpt>
<trkpt lat="40.0707003" lon="-105.231768">
  <ele>1583.0</ele>
  <time>2026-08-28T17:54:51Z</time>
  <course>64.57</course>
  <speed>4.99</speed>
  <fix>3d</fix>
</trkpt>
<trkpt lat="40.0707045" lon="-105.2317558">
  <ele>1582.98</ele>
  <time>2026-08-28T17:54:51Z</time>
  <course>65.48</course>
  <speed>4.9477671731802415</speed>
  <fix>3d</fix>
</trkpt>
<trkpt lat="40.0707003" lon="-105.231768">
  <ele>1583.0</ele>
  <time>2026-08-28T17:54:51Z</time>
  <course>64.57</course>
  <speed>4.99</speed>
  <fix>3d</fix>
</trkpt>
<trkpt lat="40.0707064" lon="-105.2317505">
  <ele>1582.98</ele>
  <time>2026-08-28T17:54:51Z</time>
  <course>65.55</course>
  <speed>4.9477671731802415</speed>
  <fix>3d</fix>
</trkpt>
<trkpt lat="40.0707003" lon="-105.231768">
  <ele>1583.0</ele>
  <time>2026-08-28T17:54:51Z</time>
  <course>64.57</course>
  <speed>4.99</speed>
  <fix>3d</fix>
</trkpt>
<trkpt lat="40.0707083" lon="-105.2317452">
  <ele>1582.98</ele>
  <time>2026-08-28T17:54:51Z</time>
  <course>65.62</course>
  <speed>4.952595279245014</speed>
  <fix>3d</fix>
</trkpt>
<trkpt lat="40.0707041" lon="-105.2317574">
  <ele>1583.0</ele>
  <time>2026-08-28T17:54:51Z</time>
  <course>64.71</course>
  <speed>4.99</speed>
  <fix>3d</fix>
</trkpt>
<trkpt lat="40.0707102" lon="-105.23174">
  <ele>1582.98</ele>
  <time>2026-08-28T17:54:51Z</time>
  <course>65.69</course>
  <speed>4.952595279245014</speed>
  <fix>3d</fix>
</trkpt>
<trkpt lat="40.0707041" lon="-105.2317574">
  <ele>1583.0</ele>
  <time>2026-08-28T17:54:51Z</time>
  <course>64.71</course>
  <speed>4.99</speed>
  <fix>3d</fix>
</trkpt>
<trkpt lat="40.0707121" lon="-105.2317347">
  <ele>1582.99</ele>
  <time>2026-08-28T17:54:51Z</time>
  <course>65.76</course>
  <speed>4.948383574461462</speed>
  <fix>3d</fix>
</trkpt>
<trkpt lat="40.0707079" lon="-105.2317468">
  <ele>1583.0</ele>
  <time>2026-08-28T17:54:51Z</time>
  <course>64.85</course>
  <speed>4.99</speed>
  <fix>3d</fix>
</trkpt>
<trkpt lat="40.070714" lon="-105.2317294">
  <ele>1582.99</ele>
  <time>2026-08-28T17:54:51Z</time>
  <course>65.83</course>
  <speed>4.957459026557859</speed>
  <fix>3d</fix>
</trkpt>
<trkpt lat="40.0707079" lon="-105.2317468">
  <ele>1583.0</ele>
  <time>2026-08-28T17:54:51Z</time>
  <course>64.85</course>
  <speed>4.99</speed>
  <fix>3d</fix>
</trkpt>
<trkpt lat="40.0707159" lon="-105.2317242">
  <ele>1582.99</ele>
  <time>2026-08-28T17:54:51Z</time>
  <course>65.9</course>
  <speed>4.953271646094125</speed>
  <fix>3d</fix>
</trkpt>
<trkpt lat="40.0707118" lon="-105.2317362">
  <ele>1583.0</ele>
  <time>2026-08-28T17:54:51Z</time>
  <course>64.98</course>
  <speed>5.0</speed>
  <fix>3d</fix>
</trkpt>
<trkpt lat="40.0707178" lon="-105.2317188">
  <ele>1583.0</ele>
  <time>2026-08-28T17:54:51Z</time>
  <course>65.97</course>
  <speed>4.962358310319802</speed>
  <fix>3d</fix>
</trkpt>
<trkpt lat="40.0707156" lon="-105.2317255">
  <ele>1583.0</ele>
  <time>2026-08-28T17:54:51Z</time>
  <course>65.12</course>
  <speed>5.01</speed>
  <fix>3d</fix>
</trkpt>
<trkpt lat="40.0707196" lon="-105.2317135">
  <ele>1583.0</ele>
  <time>2026-08-28T17:54:51Z</time>
  <course>66.04</course>
  <speed>4.95819523617213</speed>
  <fix>3d</fix>
</trkpt>
<trkpt lat="40.0707156" lon="-105.2317255">
  <ele>1583.0</ele>
  <time>2026-08-28T17:54:51Z</time>
  <course>65.12</course>
  <speed>5.01</speed>
  <fix>3d</fix>
</trkpt>
<trkpt lat="40.0707215" lon="-105.2317082">
  <ele>1583.0</ele>
  <time>2026-08-28T17:54:51Z</time>
  <course>66.1</course>
  <speed>4.967293025381128</speed>
  <fix>3d</fix>
</trkpt>
<trkpt lat="40.0707193" lon="-105.2317148">
  <ele>1583.0</ele>
  <time>2026-08-28T17:54:51Z</time>
  <course>65.25</course>
  <speed>5.02</speed>
  <fix>3d</fix>
</trkpt>
<trkpt lat="40.0707234" lon="-105.2317028">
  <ele>1582.99</ele>
  <time>2026-08-28T17:54:51Z</time>
  <course>66.15</course>
  <speed>4.97639427698409</speed>
  <fix>3d</fix>
</trkpt>
<trkpt lat="40.0707193" lon="-105.2317148">
  <ele>1583.0</ele>
  <time>2026-08-28T17:54:51Z</time>
  <course>65.25</course>
  <speed>5.02</speed>
  <fix>3d</fix>
</trkpt>
<trkpt lat="40.0707253" lon="-105.2316975">
  <ele>1582.99</ele>
  <time>2026-08-28T17:54:51Z</time>
  <course>66.18</course>
  <speed>4.97639427698409</speed>
  <fix>3d</fix>
</trkpt>
<trkpt lat="40.070723" lon="-105.2317041">
  <ele>1583.0</ele>
  <time>2026-08-28T17:54:51Z</time>
  <course>65.35</course>
  <speed>5.03</speed>
  <fix>3d</fix>
</trkpt>
<trkpt lat="40.0707272" lon="-105.2316921">
  <ele>1582.99</ele>
  <time>2026-08-28T17:54:51Z</time>
  <course>66.2</course>
  <speed>4.985498972018749</speed>
  <fix>3d</fix>
</trkpt>
<trkpt lat="40.070723" lon="-105.2317041">
  <ele>1583.0</ele>
  <time>2026-08-28T17:54:51Z</time>
  <course>65.35</course>
  <speed>5.03</speed>
  <fix>3d</fix>
</trkpt>
<trkpt lat="40.0707291" lon="-105.2316867">
  <ele>1582.98</ele>
  <time>2026-08-28T17:54:51Z</time>
  <course>66.24</course>
  <speed>4.985498972018749</speed>
  <fix>3d</fix>
</trkpt>
<trkpt lat="40.0707268" lon="-105.2316933">
  <ele>1583.0</ele>
  <time>2026-08-28T17:54:51Z</time>
  <course>65.42</course>
  <speed>5.03</speed>
  <fix>3d</fix>
</trkpt>
<trkpt lat="40.070731" lon="-105.2316812">
  <ele>1582.98</ele>
  <time>2026-08-28T17:54:51Z</time>
  <course>66.27</course>
  <speed>4.9946070916539576</speed>
  <fix>3d</fix>
</trkpt>
<trkpt lat="40.0707268" lon="-105.2316933">
  <ele>1583.0</ele>
  <time>2026-08-28T17:54:51Z</time>
  <course>65.42</course>
  <speed>5.03</speed>
  <fix>3d</fix>
</trkpt>
<trkpt lat="40.0707328" lon="-105.2316758">
  <ele>1582.98</ele>
  <time>2026-08-28T17:54:51Z</time>
  <course>66.27</course>
  <speed>4.9946070916539576</speed>
  <fix>3d</fix>
</trkpt>
<trkpt lat="40.0707306" lon="-105.2316826">
  <ele>1583.0</ele>
  <time>2026-08-28T17:54:51Z</time>
  <course>65.46</course>
  <speed>5.04</speed>
  <fix>3d</fix>
</trkpt>
<trkpt lat="40.0707347" lon="-105.2316703">
  <ele>1582.98</ele>
  <time>2026-08-28T17:54:51Z</time>
  <course>66.3</course>
  <speed>5.00371861718862</speed>
  <fix>3d</fix>
</trkpt>
<trkpt lat="40.0707306" lon="-105.2316826">
  <ele>1583.0</ele>
  <time>2026-08-28T17:54:51Z</time>
  <course>65.46</course>
  <speed>5.04</speed>
  <fix>3d</fix>
</trkpt>
<trkpt lat="40.0707366" lon="-105.2316649">
  <ele>1582.97</ele>
  <time>2026-08-28T17:54:51Z</time>
  <course>66.31</course>
  <speed>5.00371861718862</speed>
  <fix>3d</fix>
</trkpt>
<trkpt lat="40.0707344" lon="-105.2316717">
  <ele>1583.0</ele>
  <time>2026-08-28T17:54:51Z</time>
  <course>65.49</course>
  <speed>5.04</speed>
  <fix>3d</fix>
</trkpt>
<trkpt lat="40.0707385" lon="-105.2316595">
  <ele>1582.97</ele>
  <time>2026-08-28T17:54:51Z</time>
  <course>66.33</course>
  <speed>5.00371861718862</speed>
  <fix>3d</fix>
</trkpt>
<trkpt lat="40.0707344" lon="-105.2316717">
  <ele>1583.0</ele>
  <time>2026-08-28T17:54:51Z</time>
  <course>65.49</course>
  <speed>5.04</speed>
  <fix>3d</fix>
</trkpt>
<trkpt lat="40.0707404" lon="-105.2316541">
  <ele>1582.97</ele>
  <time>2026-08-28T17:54:51Z</time>
  <course>66.34</course>
  <speed>5.00371861718862</speed>
  <fix>3d</fix>
</trkpt>
<trkpt lat="40.0707381" lon="-105.231661">
  <ele>1583.0</ele>
  <time>2026-08-28T17:54:51Z</time>
  <course>65.53</course>
  <speed>5.04</speed>
  <fix>3d</fix>
</trkpt>
<trkpt lat="40.0707423" lon="-105.2316487">
  <ele>1582.97</ele>
  <time>2026-08-28T17:54:51Z</time>
  <course>66.37</course>
  <speed>4.999609984788814</speed>
  <fix>3d</fix>
</trkpt>
<trkpt lat="40.0707381" lon="-105.231661">
  <ele>1583.0</ele>
  <time>2026-08-28T17:54:51Z</time>
  <course>65.53</course>
  <speed>5.04</speed>
  <fix>3d</fix>
</trkpt>
<trkpt lat="40.0707441" lon="-105.2316432">
  <ele>1582.96</ele>
  <time>2026-08-28T17:54:51Z</time>
  <course>66.37</course>
  <speed>4.999609984788814</speed>
  <fix>3d</fix>
</trkpt>
<trkpt lat="40.0707381" lon="-105.231661">
  <ele>1583.0</ele>
  <time>2026-08-28T17:54:51Z</time>
  <course>65.53</course>
  <speed>5.04</speed>
  <fix>3d</fix>
</trkpt>
<trkpt lat="40.070746" lon="-105.2316379">
  <ele>1582.97</ele>
  <time>2026-08-28T17:54:51Z</time>
  <course>66.39</course>
  <speed>4.999609984788814</speed>
  <fix>3d</fix>
</trkpt>
<trkpt lat="40.0707419" lon="-105.2316502">
  <ele>1583.0</ele>
  <time>2026-08-28T17:54:51Z</time>
  <course>65.55</course>
  <speed>5.04</speed>
  <fix>3d</fix>
</trkpt>
<trkpt lat="40.0707479" lon="-105.2316325">
  <ele>1582.97</ele>
  <time>2026-08-28T17:54:51Z</time>
  <course>66.4</course>
  <speed>4.999609984788814</speed>
  <fix>3d</fix>
</trkpt>
<trkpt lat="40.0707419" lon="-105.2316502">
  <ele>1583.0</ele>
  <time>2026-08-28T17:54:51Z</time>
  <course>65.55</course>
  <speed>5.04</speed>
  <fix>3d</fix>
</trkpt>
<trkpt lat="40.0707497" lon="-105.2316272">
  <ele>1582.97</ele>
  <time>2026-08-28T17:54:51Z</time>
  <course>66.42</course>
  <speed>4.986391480820575</speed>
  <fix>3d</fix>
</trkpt>
<trkpt lat="40.0707456" lon="-105.2316394">
  <ele>1583.0</ele>
  <time>2026-08-28T17:54:51Z</time>
  <course>65.58</course>
  <speed>5.04</speed>
  <fix>3d</fix>
</trkpt>
<trkpt lat="40.0707516" lon="-105.2316218">
  <ele>1582.97</ele>
  <time>2026-08-28T17:54:51Z</time>
  <course>66.44</course>
  <speed>4.986391480820575</speed>
  <fix>3d</fix>
</trkpt>
<trkpt lat="40.0707456" lon="-105.2316394">
  <ele>1583.0</ele>
  <time>2026-08-28T17:54:51Z</time>
  <course>65.58</course>
  <speed>5.04</speed>
  <fix>3d</fix>
</trkpt>
<trkpt lat="40.0707534" lon="-105.2316165">
  <ele>1582.98</ele>
  <time>2026-08-28T17:54:51Z</time>
  <course>66.44</course>
  <speed>4.986391480820575</speed>
  <fix>3d</fix>
</trkpt>
<trkpt lat="40.0707494" lon="-105.2316286">
  <ele>1583.0</ele>
  <time>2026-08-28T17:54:51Z</time>
  <course>65.61</course>
  <speed>5.03</speed>
  <fix>3d</fix>
</trkpt>
<trkpt lat="40.0707553" lon="-105.2316111">
  <ele>1582.98</ele>
  <time>2026-08-28T17:54:51Z</time>
  <course>66.46</course>
  <speed>4.986391480820575</speed>
  <fix>3d</fix>
</trkpt>
<trkpt lat="40.0707531" lon="-105.2316179">
  <ele>1583.0</ele>
  <time>2026-08-28T17:54:51Z</time>
  <course>65.63</course>
  <speed>5.03</speed>
  <fix>3d</fix>
</trkpt>
<trkpt lat="40.0707571" lon="-105.2316058">
  <ele>1582.99</ele>
  <time>2026-08-28T17:54:52Z</time>
  <course>66.49</course>
  <speed>4.986391480820575</speed>
  <fix>3d</fix>
</trkpt>
<trkpt lat="40.0707531" lon="-105.2316179">
  <ele>1583.0</ele>
  <time>2026-08-28T17:54:52Z</time>
  <course>65.63</course>
  <speed>5.03</speed>
  <fix>3d</fix>
</trkpt>
<trkpt lat="40.070759" lon="-105.2316004">
  <ele>1582.99</ele>
  <time>2026-08-28T17:54:52Z</time>
  <course>66.49</course>
  <speed>4.986391480820575</speed>
  <fix>3d</fix>
</trkpt>
<trkpt lat="40.0707569" lon="-105.2316071">
  <ele>1583.0</ele>
  <time>2026-08-28T17:54:52Z</time>
  <course>65.65</course>
  <speed>5.03</speed>
  <fix>3d</fix>
</trkpt>
<trkpt lat="40.0707609" lon="-105.231595">
  <ele>1583.0</ele>
  <time>2026-08-28T17:54:52Z</time>
  <course>66.5</course>
  <speed>4.982308701796788</speed>
  <fix>3d</fix>
</trkpt>
<trkpt lat="40.0707569" lon="-105.2316071">
  <ele>1583.0</ele>
  <time>2026-08-28T17:54:52Z</time>
  <course>65.65</course>
  <speed>5.03</speed>
  <fix>3d</fix>
</trkpt>
<trkpt lat="40.0707627" lon="-105.2315896">
  <ele>1583.0</ele>
  <time>2026-08-28T17:54:52Z</time>
  <course>66.53</course>
  <speed>4.982308701796788</speed>
  <fix>3d</fix>
</trkpt>
<trkpt lat="40.0707606" lon="-105.2315964">
  <ele>1583.0</ele>
  <time>2026-08-28T17:54:52Z</time>
  <course>65.68</course>
  <speed>5.03</speed>
  <fix>3d</fix>
</trkpt>
<trkpt lat="40.0707646" lon="-105.2315842">
  <ele>1583.0</ele>
  <time>2026-08-28T17:54:52Z</time>
  <course>66.54</course>
  <speed>4.982308701796788</speed>
  <fix>3d</fix>
</trkpt>
<trkpt lat="40.0707606" lon="-105.2315964">
  <ele>1583.0</ele>
  <time>2026-08-28T17:54:52Z</time>
  <course>65.68</course>
  <speed>5.03</speed>
  <fix>3d</fix>
</trkpt>
<trkpt lat="40.0707665" lon="-105.2315788">
  <ele>1583.0</ele>
  <time>2026-08-28T17:54:52Z</time>
  <course>66.55</course>
  <speed>4.982308701796788</speed>
  <fix>3d</fix>
</trkpt>
<trkpt lat="40.0707643" lon="-105.2315855">
  <ele>1583.0</ele>
  <time>2026-08-28T17:54:52Z</time>
  <course>65.71</course>
  <speed>5.02</speed>
  <fix>3d</fix>
</trkpt>
<trkpt lat="40.0707683" lon="-105.2315734">
  <ele>1583.0</ele>
  <time>2026-08-28T17:54:52Z</time>
  <course>66.57</course>
  <speed>4.982308701796788</speed>
  <fix>3d</fix>
</trkpt>
<trkpt lat="40.0707643" lon="-105.2315855">
  <ele>1583.0</ele>
  <time>2026-08-28T17:54:52Z</time>
  <course>65.71</course>
  <speed>5.02</speed>
  <fix>3d</fix>
</trkpt>
<trkpt lat="40.0707702" lon="-105.231568">
  <ele>1583.0</ele>
  <time>2026-08-28T17:54:52Z</time>
  <course>66.57</course>
  <speed>4.982308701796788</speed>
  <fix>3d</fix>
</trkpt>
<trkpt lat="40.070768" lon="-105.2315748">
  <ele>1583.0</ele>
  <time>2026-08-28T17:54:52Z</time>
  <course>65.72</course>
  <speed>5.02</speed>
  <fix>3d</fix>
</trkpt>
<trkpt lat="40.0707721" lon="-105.2315625">
  <ele>1583.0</ele>
  <time>2026-08-28T17:54:52Z</time>
  <course>66.6</course>
  <speed>4.982308701796788</speed>
  <fix>3d</fix>
</trkpt>
<trkpt lat="40.070768" lon="-105.2315748">
  <ele>1583.0</ele>
  <time>2026-08-28T17:54:52Z</time>
  <course>65.72</course>
  <speed>5.02</speed>
  <fix>3d</fix>
</trkpt>
<trkpt lat="40.0707739" lon="-105.2315571">
  <ele>1583.01</ele>
  <time>2026-08-28T17:54:52Z</time>
  <course>66.6</course>
  <speed>4.982308701796788</speed>
  <fix>3d</fix>
</trkpt>
<trkpt lat="40.0707717" lon="-105.231564">
  <ele>1583.0</ele>
  <time>2026-08-28T17:54:52Z</time>
  <course>65.75</course>
  <speed>5.02</speed>
  <fix>3d</fix>
</trkpt>
<trkpt lat="40.0707758" lon="-105.2315517">
  <ele>1583.01</ele>
  <time>2026-08-28T17:54:52Z</time>
  <course>66.62</course>
  <speed>4.982308701796788</speed>
  <fix>3d</fix>
</trkpt>
<trkpt lat="40.0707717" lon="-105.231564">
  <ele>1583.0</ele>
  <time>2026-08-28T17:54:52Z</time>
  <course>65.75</course>
  <speed>5.02</speed>
  <fix>3d</fix>
</trkpt>
<trkpt lat="40.0707776" lon="-105.2315463">
  <ele>1583.01</ele>
  <time>2026-08-28T17:54:52Z</time>
  <course>66.62</course>
  <speed>4.982308701796788</speed>
  <fix>3d</fix>
</trkpt>
<trkpt lat="40.0707754" lon="-105.2315533">
  <ele>1583.0</ele>
  <time>2026-08-28T17:54:52Z</time>
  <course>65.77</course>
  <speed>5.01</speed>
  <fix>3d</fix>
</trkpt>
<trkpt lat="40.0707795" lon="-105.2315409">
  <ele>1583.02</ele>
  <time>2026-08-28T17:54:52Z</time>
  <course>66.63</course>
  <speed>4.978242661823547</speed>
  <fix>3d</fix>
</trkpt>
<trkpt lat="40.0707754" lon="-105.2315533">
  <ele>1583.0</ele>
  <time>2026-08-28T17:54:52Z</time>
  <course>65.77</course>
  <speed>5.01</speed>
  <fix>3d</fix>
</trkpt>
<trkpt lat="40.0707814" lon="-105.2315355">
  <ele>1583.02</ele>
  <time>2026-08-28T17:54:52Z</time>
  <course>66.65</course>
  <speed>4.978242661823547</speed>
  <fix>3d</fix>
</trkpt>
<trkpt lat="40.0707754" lon="-105.2315533">
  <ele>1583.0</ele>
  <time>2026-08-28T17:54:52Z</time>
  <course>65.77</course>
  <speed>5.01</speed>
  <fix>3d</fix>
</trkpt>
<trkpt lat="40.0707832" lon="-105.2315302">
  <ele>1583.02</ele>
  <time>2026-08-28T17:54:52Z</time>
  <course>66.65</course>
  <speed>4.969104547099004</speed>
  <fix>3d</fix>
</trkpt>
<trkpt lat="40.0707791" lon="-105.2315425">
  <ele>1583.0</ele>
  <time>2026-08-28T17:54:52Z</time>
  <course>65.79</course>
  <speed>5.01</speed>
  <fix>3d</fix>
</trkpt>
<trkpt lat="40.070785" lon="-105.2315249">
  <ele>1583.02</ele>
  <time>2026-08-28T17:54:52Z</time>
  <course>66.67</course>
  <speed>4.969104547099004</speed>
  <fix>3d</fix>
</trkpt>
<trkpt lat="40.0707791" lon="-105.2315425">
  <ele>1583.0</ele>
  <time>2026-08-28T17:54:52Z</time>
  <course>65.79</course>
  <speed>5.01</speed>
  <fix>3d</fix>
</trkpt>
<trkpt lat="40.0707868" lon="-105.2315195">
  <ele>1583.02</ele>
  <time>2026-08-28T17:54:52Z</time>
  <course>66.67</course>
  <speed>4.969104547099004</speed>
  <fix>3d</fix>
</trkpt>
<trkpt lat="40.0707828" lon="-105.2315318">
  <ele>1583.0</ele>
  <time>2026-08-28T17:54:52Z</time>
  <course>65.81</course>
  <speed>5.0</speed>
  <fix>3d</fix>
</trkpt>
<trkpt lat="40.0707887" lon="-105.2315142">
  <ele>1583.01</ele>
  <time>2026-08-28T17:54:52Z</time>
  <course>66.68</course>
  <speed>4.965047834613479</speed>
  <fix>3d</fix>
</trkpt>
<trkpt lat="40.0707828" lon="-105.2315318">
  <ele>1583.0</ele>
  <time>2026-08-28T17:54:52Z</time>
  <course>65.81</course>
  <speed>5.0</speed>
  <fix>3d</fix>
</trkpt>
<trkpt lat="40.0707905" lon="-105.2315089">
  <ele>1583.01</ele>
  <time>2026-08-28T17:54:52Z</time>
  <course>66.68</course>
  <speed>4.9559055681076085</speed>
  <fix>3d</fix>
</trkpt>
<trkpt lat="40.0707865" lon="-105.2315211">
  <ele>1583.0</ele>
  <time>2026-08-28T17:54:52Z</time>
  <course>65.82</course>
  <speed>5.0</speed>
  <fix>3d</fix>
</trkpt>
<trkpt lat="40.0707923" lon="-105.2315036">
  <ele>1583.01</ele>
  <time>2026-08-28T17:54:52Z</time>
  <course>66.7</course>
  <speed>4.9559055681076085</speed>
  <fix>3d</fix>
</trkpt>
<trkpt lat="40.0707865" lon="-105.2315211">
  <ele>1583.0</ele>
  <time>2026-08-28T17:54:52Z</time>
  <course>65.82</course>
  <speed>5.0</speed>
  <fix>3d</fix>
</trkpt>
<trkpt lat="40.0707941" lon="-105.2314983">
  <ele>1583.0</ele>
  <time>2026-08-28T17:54:52Z</time>
  <course>66.7</course>
  <speed>4.9559055681076085</speed>
  <fix>3d</fix>
</trkpt>
<trkpt lat="40.0707902" lon="-105.2315104">
  <ele>1583.0</ele>
  <time>2026-08-28T17:54:52Z</time>
  <course>65.83</course>
  <speed>5.0</speed>
  <fix>3d</fix>
</trkpt>
<trkpt lat="40.070796" lon="-105.231493">
  <ele>1583.0</ele>
  <time>2026-08-28T17:54:52Z</time>
  <course>66.72</course>
  <speed>4.9559055681076085</speed>
  <fix>3d</fix>
</trkpt>
<trkpt lat="40.0707939" lon="-105.2314997">
  <ele>1583.0</ele>
  <time>2026-08-28T17:54:52Z</time>
  <course>65.85</course>
  <speed>5.0</speed>
  <fix>3d</fix>
</trkpt>
<trkpt lat="40.0707978" lon="-105.2314876">
  <ele>1583.0</ele>
  <time>2026-08-28T17:54:52Z</time>
  <course>66.72</course>
  <speed>4.965047834613479</speed>
  <fix>3d</fix>
</trkpt>
<trkpt lat="40.0707939" lon="-105.2314997">
  <ele>1583.0</ele>
  <time>2026-08-28T17:54:52Z</time>
  <course>65.85</course>
  <speed>5.0</speed>
  <fix>3d</fix>
</trkpt>
<trkpt lat="40.0707996" lon="-105.2314823">
  <ele>1582.99</ele>
  <time>2026-08-28T17:54:52Z</time>
  <course>66.73</course>
  <speed>4.965047834613479</speed>
  <fix>3d</fix>
</trkpt>
<trkpt lat="40.0707975" lon="-105.2314889">
  <ele>1583.0</ele>
  <time>2026-08-28T17:54:52Z</time>
  <course>65.86</course>
  <speed>5.0</speed>
  <fix>3d</fix>
</trkpt>
<trkpt lat="40.0708015" lon="-105.2314769">
  <ele>1582.99</ele>
  <time>2026-08-28T17:54:52Z</time>
  <course>66.74</course>
  <speed>4.965047834613479</speed>
  <fix>3d</fix>
</trkpt>
<trkpt lat="40.0707975" lon="-105.2314889">
  <ele>1583.0</ele>
  <time>2026-08-28T17:54:52Z</time>
  <course>65.86</course>
  <speed>5.0</speed>
  <fix>3d</fix>
</trkpt>
<trkpt lat="40.0708033" lon="-105.2314715">
  <ele>1582.99</ele>
  <time>2026-08-28T17:54:52Z</time>
  <course>66.75</course>
  <speed>4.965047834613479</speed>
  <fix>3d</fix>
</trkpt>
<trkpt lat="40.0708012" lon="-105.2314782">
  <ele>1583.0</ele>
  <time>2026-08-28T17:54:52Z</time>
  <course>65.87</course>
  <speed>5.01</speed>
  <fix>3d</fix>
</trkpt>
<trkpt lat="40.0708052" lon="-105.2314661">
  <ele>1582.99</ele>
  <time>2026-08-28T17:54:52Z</time>
  <course>66.75</course>
  <speed>4.974193401949707</speed>
  <fix>3d</fix>
</trkpt>
<trkpt lat="40.0708012" lon="-105.2314782">
  <ele>1583.0</ele>
  <time>2026-08-28T17:54:52Z</time>
  <course>65.87</course>
  <speed>5.01</speed>
  <fix>3d</fix>
</trkpt>
<trkpt lat="40.070807" lon="-105.2314607">
  <ele>1582.99</ele>
  <time>2026-08-28T17:54:52Z</time>
  <course>66.76</course>
  <speed>4.974193401949707</speed>
  <fix>3d</fix>
</trkpt>
<trkpt lat="40.0708049" lon="-105.2314675">
  <ele>1583.0</ele>
  <time>2026-08-28T17:54:52Z</time>
  <course>65.88</course>
  <speed>5.01</speed>
  <fix>3d</fix>
</trkpt>
<trkpt lat="40.0708089" lon="-105.2314553">
  <ele>1582.99</ele>
  <time>2026-08-28T17:54:52Z</time>
  <course>66.77</course>
  <speed>4.974193401949707</speed>
  <fix>3d</fix>
</trkpt>
<trkpt lat="40.0708049" lon="-105.2314675">
  <ele>1583.0</ele>
  <time>2026-08-28T17:54:52Z</time>
  <course>65.88</course>
  <speed>5.01</speed>
  <fix>3d</fix>
</trkpt>
<trkpt lat="40.0708107" lon="-105.2314499">
  <ele>1582.99</ele>
  <time>2026-08-28T17:54:52Z</time>
  <course>66.77</course>
  <speed>4.974193401949707</speed>
  <fix>3d</fix>
</trkpt>
<trkpt lat="40.0708086" lon="-105.2314567">
  <ele>1583.0</ele>
  <time>2026-08-28T17:54:52Z</time>
  <course>65.89</course>
  <speed>5.01</speed>
  <fix>3d</fix>
</trkpt>
<trkpt lat="40.0708126" lon="-105.2314444">
  <ele>1583.0</ele>
  <time>2026-08-28T17:54:52Z</time>
  <course>66.79</course>
  <speed>4.974193401949707</speed>
  <fix>3d</fix>
</trkpt>
<trkpt lat="40.0708086" lon="-105.2314567">
  <ele>1583.0</ele>
  <time>2026-08-28T17:54:52Z</time>
  <course>65.89</course>
  <speed>5.01</speed>
  <fix>3d</fix>
</trkpt>
<trkpt lat="40.0708144" lon="-105.231439">
  <ele>1583.0</ele>
  <time>2026-08-28T17:54:52Z</time>
  <course>66.79</course>
  <speed>4.974193401949707</speed>
  <fix>3d</fix>
</trkpt>
<trkpt lat="40.0708123" lon="-105.231446">
  <ele>1583.0</ele>
  <time>2026-08-28T17:54:52Z</time>
  <course>65.9</course>
  <speed>5.01</speed>
  <fix>3d</fix>
</trkpt>
<trkpt lat="40.0708163" lon="-105.2314336">
  <ele>1583.0</ele>
  <time>2026-08-28T17:54:52Z</time>
  <course>66.8</course>
  <speed>4.974193401949707</speed>
  <fix>3d</fix>
</trkpt>
<trkpt lat="40.0708123" lon="-105.231446">
  <ele>1583.0</ele>
  <time>2026-08-28T17:54:52Z</time>
  <course>65.9</course>
  <speed>5.01</speed>
  <fix>3d</fix>
</trkpt>
<trkpt lat="40.0708181" lon="-105.2314282">
  <ele>1583.0</ele>
  <time>2026-08-28T17:54:52Z</time>
  <course>66.81</course>
  <speed>4.974193401949707</speed>
  <fix>3d</fix>
</trkpt>
<trkpt lat="40.0708159" lon="-105.2314352">
  <ele>1583.0</ele>
  <time>2026-08-28T17:54:52Z</time>
  <course>65.92</course>
  <speed>5.01</speed>
  <fix>3d</fix>
</trkpt>
<trkpt lat="40.07082" lon="-105.2314228">
  <ele>1583.01</ele>
  <time>2026-08-28T17:54:52Z</time>
  <course>66.82</course>
  <speed>4.974193401949707</speed>
  <fix>3d</fix>
</trkpt>
<trkpt lat="40.0708159" lon="-105.2314352">
  <ele>1583.0</ele>
  <time>2026-08-28T17:54:52Z</time>
  <course>65.92</course>
  <speed>5.01</speed>
  <fix>3d</fix>
</trkpt>
<trkpt lat="40.0708218" lon="-105.2314175">
  <ele>1583.01</ele>
  <time>2026-08-28T17:54:52Z</time>
  <course>66.82</course>
  <speed>4.974193401949707</speed>
  <fix>3d</fix>
</trkpt>
<trkpt lat="40.0708159" lon="-105.2314352">
  <ele>1583.0</ele>
  <time>2026-08-28T17:54:52Z</time>
  <course>65.92</course>
  <speed>5.01</speed>
  <fix>3d</fix>
</trkpt>
<trkpt lat="40.0708237" lon="-105.2314121">
  <ele>1583.01</ele>
  <time>2026-08-28T17:54:52Z</time>
  <course>66.82</course>
  <speed>4.974193401949707</speed>
  <fix>3d</fix>
</trkpt>
<trkpt lat="40.0708196" lon="-105.2314245">
  <ele>1583.0</ele>
  <time>2026-08-28T17:54:52Z</time>
  <course>65.93</course>
  <speed>5.0</speed>
  <fix>3d</fix>
</trkpt>
<trkpt lat="40.0708255" lon="-105.2314068">
  <ele>1583.01</ele>
  <time>2026-08-28T17:54:52Z</time>
  <course>66.83</course>
  <speed>4.974193401949707</speed>
  <fix>3d</fix>
</trkpt>
<trkpt lat="40.0708196" lon="-105.2314245">
  <ele>1583.0</ele>
  <time>2026-08-28T17:54:52Z</time>
  <course>65.93</course>
  <speed>5.0</speed>
  <fix>3d</fix>
</trkpt>
<trkpt lat="40.0708273" lon="-105.2314015">
  <ele>1583.01</ele>
  <time>2026-08-28T17:54:52Z</time>
  <course>66.84</course>
  <speed>4.961007962098026</speed>
  <fix>3d</fix>
</trkpt>
<trkpt lat="40.0708233" lon="-105.2314137">
  <ele>1583.0</ele>
  <time>2026-08-28T17:54:52Z</time>
  <course>65.94</course>
  <speed>5.0</speed>
  <fix>3d</fix>
</trkpt>
<trkpt lat="40.0708291" lon="-105.2313961">
  <ele>1583.01</ele>
  <time>2026-08-28T17:54:52Z</time>
  <course>66.84</course>
  <speed>4.961007962098026</speed>
  <fix>3d</fix>
</trkpt>
<trkpt lat="40.0708233" lon="-105.2314137">
  <ele>1583.0</ele>
  <time>2026-08-28T17:54:52Z</time>
  <course>65.94</course>
  <speed>5.0</speed>
  <fix>3d</fix>
</trkpt>
<trkpt lat="40.0708309" lon="-105.2313908">
  <ele>1583.01</ele>
  <time>2026-08-28T17:54:52Z</time>
  <course>66.84</course>
  <speed>4.961007962098026</speed>
  <fix>3d</fix>
</trkpt>
<trkpt lat="40.0708269" lon="-105.231403">
  <ele>1583.0</ele>
  <time>2026-08-28T17:54:52Z</time>
  <course>65.94</course>
  <speed>4.99</speed>
  <fix>3d</fix>
</trkpt>
<trkpt lat="40.0708327" lon="-105.2313855">
  <ele>1583.0</ele>
  <time>2026-08-28T17:54:53Z</time>
  <course>66.84</course>
  <speed>4.961007962098026</speed>
  <fix>3d</fix>
</trkpt>
<trkpt lat="40.0708306" lon="-105.2313923">
  <ele>1583.0</ele>
  <time>2026-08-28T17:54:53Z</time>
  <course>65.95</course>
  <speed>4.99</speed>
  <fix>3d</fix>
</trkpt>
<trkpt lat="40.0708346" lon="-105.2313801">
  <ele>1583.0</ele>
  <time>2026-08-28T17:54:53Z</time>
  <course>66.86</course>
  <speed>4.961007962098026</speed>
  <fix>3d</fix>
</trkpt>
<trkpt lat="40.0708306" lon="-105.2313923">
  <ele>1583.0</ele>
  <time>2026-08-28T17:54:53Z</time>
  <course>65.95</course>
  <speed>4.99</speed>
  <fix>3d</fix>
</trkpt>
<trkpt lat="40.0708364" lon="-105.2313748">
  <ele>1583.01</ele>
  <time>2026-08-28T17:54:53Z</time>
  <course>66.86</course>
  <speed>4.961007962098026</speed>
  <fix>3d</fix>
</trkpt>
<trkpt lat="40.0708343" lon="-105.2313816">
  <ele>1583.0</ele>
  <time>2026-08-28T17:54:53Z</time>
  <course>65.96</course>
  <speed>4.99</speed>
  <fix>3d</fix>
</trkpt>
<trkpt lat="40.0708382" lon="-105.2313695">
  <ele>1583.01</ele>
  <time>2026-08-28T17:54:53Z</time>
  <course>66.86</course>
  <speed>4.961007962098026</speed>
  <fix>3d</fix>
</trkpt>
<trkpt lat="40.0708343" lon="-105.2313816">
  <ele>1583.0</ele>
  <time>2026-08-28T17:54:53Z</time>
  <course>65.96</course>
  <speed>4.99</speed>
  <fix>3d</fix>
</trkpt>
<trkpt lat="40.07084" lon="-105.2313641">
  <ele>1583.01</ele>
  <time>2026-08-28T17:54:53Z</time>
  <course>66.87</course>
  <speed>4.961007962098026</speed>
  <fix>3d</fix>
</trkpt>
<trkpt lat="40.0708379" lon="-105.2313709">
  <ele>1583.0</ele>
  <time>2026-08-28T17:54:53Z</time>
  <course>65.97</course>
  <speed>4.99</speed>
  <fix>3d</fix>
</trkpt>
<trkpt lat="40.0708419" lon="-105.2313587">
  <ele>1583.01</ele>
  <time>2026-08-28T17:54:53Z</time>
  <course>66.88</course>
  <speed>4.961007962098026</speed>
  <fix>3d</fix>
</trkpt>
<trkpt lat="40.0708379" lon="-105.2313709">
  <ele>1583.0</ele>
  <time>2026-08-28T17:54:53Z</time>
  <course>65.97</course>
  <speed>4.99</speed>
  <fix>3d</fix>
</trkpt>
<trkpt lat="40.0708437" lon="-105.2313533">
  <ele>1583.0</ele>
  <time>2026-08-28T17:54:53Z</time>
  <course>66.88</course>
  <speed>4.961007962098026</speed>
  <fix>3d</fix>
</trkpt>
<trkpt lat="40.0708416" lon="-105.2313601">
  <ele>1583.0</ele>
  <time>2026-08-28T17:54:53Z</time>
  <course>65.98</course>
  <speed>4.99</speed>
  <fix>3d</fix>
</trkpt>
<trkpt lat="40.0708456" lon="-105.2313479">
  <ele>1583.0</ele>
  <time>2026-08-28T17:54:53Z</time>
  <course>66.88</course>
  <speed>4.970160963188214</speed>
  <fix>3d</fix>
</trkpt>
<trkpt lat="40.0708416" lon="-105.2313601">
  <ele>1583.0</ele>
  <time>2026-08-28T17:54:53Z</time>
  <course>65.98</course>
  <speed>4.99</speed>
  <fix>3d</fix>
</trkpt>
<trkpt lat="40.0708474" lon="-105.2313425">
  <ele>1583.0</ele>
  <time>2026-08-28T17:54:53Z</time>
  <course>66.89</course>
  <speed>4.970160963188214</speed>
  <fix>3d</fix>
</trkpt>
<trkpt lat="40.0708452" lon="-105.2313494">
  <ele>1583.0</ele>
  <time>2026-08-28T17:54:53Z</time>
  <course>65.98</course>
  <speed>4.99</speed>
  <fix>3d</fix>
</trkpt>
<trkpt lat="40.0708492" lon="-105.2313371">
  <ele>1583.0</ele>
  <time>2026-08-28T17:54:53Z</time>
  <course>66.89</course>
  <speed>4.970160963188214</speed>
  <fix>3d</fix>
</trkpt>
<trkpt lat="40.0708452" lon="-105.2313494">
  <ele>1583.0</ele>
  <time>2026-08-28T17:54:53Z</time>
  <course>65.98</course>
  <speed>4.99</speed>
  <fix>3d</fix>
</trkpt>
<trkpt lat="40.0708511" lon="-105.2313317">
  <ele>1583.0</ele>
  <time>2026-08-28T17:54:53Z</time>
  <course>66.9</course>
  <speed>4.970160963188214</speed>
  <fix>3d</fix>
</trkpt>
<trkpt lat="40.0708489" lon="-105.2313387">
  <ele>1583.0</ele>
  <time>2026-08-28T17:54:53Z</time>
  <course>65.99</course>
  <speed>4.99</speed>
  <fix>3d</fix>
</trkpt>
<trkpt lat="40.0708529" lon="-105.2313263">
  <ele>1583.0</ele>
  <time>2026-08-28T17:54:53Z</time>
  <course>66.9</course>
  <speed>4.970160963188214</speed>
  <fix>3d</fix>
</trkpt>
<trkpt lat="40.0708489" lon="-105.2313387">
  <ele>1583.0</ele>
  <time>2026-08-28T17:54:53Z</time>
  <course>65.99</course>
  <speed>4.99</speed>
  <fix>3d</fix>
</trkpt>
<trkpt lat="40.0708548" lon="-105.2313209">
  <ele>1583.0</ele>
  <time>2026-08-28T17:54:53Z</time>
  <course>66.9</course>
  <speed>4.970160963188214</speed>
  <fix>3d</fix>
</trkpt>
<trkpt lat="40.0708525" lon="-105.231328">
  <ele>1583.0</ele>
  <time>2026-08-28T17:54:53Z</time>
  <course>65.99</course>
  <speed>4.99</speed>
  <fix>3d</fix>
</trkpt>
<trkpt lat="40.0708566" lon="-105.2313155">
  <ele>1583.0</ele>
  <time>2026-08-28T17:54:53Z</time>
  <course>66.91</course>
  <speed>4.970160963188214</speed>
  <fix>3d</fix>
</trkpt>
<trkpt lat="40.0708525" lon="-105.231328">
  <ele>1583.0</ele>
  <time>2026-08-28T17:54:53Z</time>
  <course>65.99</course>
  <speed>4.99</speed>
  <fix>3d</fix>
</trkpt>
<trkpt lat="40.0708584" lon="-105.2313102">
  <ele>1582.99</ele>
  <time>2026-08-28T17:54:53Z</time>
  <course>66.91</course>
  <speed>4.970160963188214</speed>
  <fix>3d</fix>
</trkpt>
<trkpt lat="40.0708525" lon="-105.231328">
  <ele>1583.0</ele>
  <time>2026-08-28T17:54:53Z</time>
  <course>65.99</course>
  <speed>4.99</speed>
  <fix>3d</fix>
</trkpt>
<trkpt lat="40.0708602" lon="-105.2313048">
  <ele>1582.99</ele>
  <time>2026-08-28T17:54:53Z</time>
  <course>66.91</course>
  <speed>4.970160963188214</speed>
  <fix>3d</fix>
</trkpt>
<trkpt lat="40.0708561" lon="-105.2313173">
  <ele>1583.0</ele>
  <time>2026-08-28T17:54:53Z</time>
  <course>66.0</course>
  <speed>4.99</speed>
  <fix>3d</fix>
</trkpt>
<trkpt lat="40.070862" lon="-105.2312995">
  <ele>1582.99</ele>
  <time>2026-08-28T17:54:53Z</time>
  <course>66.91</course>
  <speed>4.961007962098026</speed>
  <fix>3d</fix>
</trkpt>
<trkpt lat="40.0708561" lon="-105.2313173">
  <ele>1583.0</ele>
  <time>2026-08-28T17:54:53Z</time>
  <course>66.0</course>
  <speed>4.99</speed>
  <fix>3d</fix>
</trkpt>
<trkpt lat="40.0708638" lon="-105.2312942">
  <ele>1582.99</ele>
  <time>2026-08-28T17:54:53Z</time>
  <course>66.92</course>
  <speed>4.961007962098026</speed>
  <fix>3d</fix>
</trkpt>
<trkpt lat="40.0708598" lon="-105.2313065">
  <ele>1583.0</ele>
  <time>2026-08-28T17:54:53Z</time>
  <course>66.0</course>
  <speed>4.99</speed>
  <fix>3d</fix>
</trkpt>
<trkpt lat="40.0708656" lon="-105.2312889">
  <ele>1582.99</ele>
  <time>2026-08-28T17:54:53Z</time>
  <course>66.92</course>
  <speed>4.961007962098026</speed>
  <fix>3d</fix>
</trkpt>
<trkpt lat="40.0708598" lon="-105.2313065">
  <ele>1583.0</ele>
  <time>2026-08-28T17:54:53Z</time>
  <course>66.0</course>
  <speed>4.99</speed>
  <fix>3d</fix>
</trkpt>
<trkpt lat="40.0708674" lon="-105.2312836">
  <ele>1582.99</ele>
  <time>2026-08-28T17:54:53Z</time>
  <course>66.92</course>
  <speed>4.961007962098026</speed>
  <fix>3d</fix>
</trkpt>
<trkpt lat="40.0708635" lon="-105.2312958">
  <ele>1583.0</ele>
  <time>2026-08-28T17:54:53Z</time>
  <course>66.0</course>
  <speed>4.99</speed>
  <fix>3d</fix>
</trkpt>
<trkpt lat="40.0708692" lon="-105.2312783">
  <ele>1583.0</ele>
  <time>2026-08-28T17:54:53Z</time>
  <course>66.92</course>
  <speed>4.961007962098026</speed>
  <fix>3d</fix>
</trkpt>
<trkpt lat="40.0708635" lon="-105.2312958">
  <ele>1583.0</ele>
  <time>2026-08-28T17:54:53Z</time>
  <course>66.0</course>
  <speed>4.99</speed>
  <fix>3d</fix>
</trkpt>
<trkpt lat="40.0708711" lon="-105.231273">
  <ele>1583.0</ele>
  <time>2026-08-28T17:54:53Z</time>
  <course>66.92</course>
  <speed>4.961007962098026</speed>
  <fix>3d</fix>
</trkpt>
<trkpt lat="40.0708671" lon="-105.2312851">
  <ele>1583.0</ele>
  <time>2026-08-28T17:54:53Z</time>
  <course>66.0</course>
  <speed>4.99</speed>
  <fix>3d</fix>
</trkpt>
<trkpt lat="40.0708729" lon="-105.2312677">
  <ele>1583.0</ele>
  <time>2026-08-28T17:54:53Z</time>
  <course>66.92</course>
  <speed>4.961007962098026</speed>
  <fix>3d</fix>
</trkpt>
<trkpt lat="40.0708707" lon="-105.2312744">
  <ele>1583.0</ele>
  <time>2026-08-28T17:54:53Z</time>
  <course>66.0</course>
  <speed>4.99</speed>
  <fix>3d</fix>
</trkpt>
<trkpt lat="40.0708747" lon="-105.2312623">
  <ele>1583.0</ele>
  <time>2026-08-28T17:54:53Z</time>
  <course>66.92</course>
  <speed>4.961007962098026</speed>
  <fix>3d</fix>
</trkpt>
<trkpt lat="40.0708707" lon="-105.2312744">
  <ele>1583.0</ele>
  <time>2026-08-28T17:54:53Z</time>
  <course>66.0</course>
  <speed>4.99</speed>
  <fix>3d</fix>
</trkpt>
<trkpt lat="40.0708765" lon="-105.231257">
  <ele>1583.0</ele>
  <time>2026-08-28T17:54:53Z</time>
  <course>66.92</course>
  <speed>4.961007962098026</speed>
  <fix>3d</fix>
</trkpt>
<trkpt lat="40.0708744" lon="-105.2312637">
  <ele>1583.0</ele>
  <time>2026-08-28T17:54:53Z</time>
  <course>66.0</course>
  <speed>4.99</speed>
  <fix>3d</fix>
</trkpt>
<trkpt lat="40.0708783" lon="-105.2312516">
  <ele>1583.0</ele>
  <time>2026-08-28T17:54:53Z</time>
  <course>66.92</course>
  <speed>4.970160963188214</speed>
  <fix>3d</fix>
</trkpt>
<trkpt lat="40.0708744" lon="-105.2312637">
  <ele>1583.0</ele>
  <time>2026-08-28T17:54:53Z</time>
  <course>66.0</course>
  <speed>4.99</speed>
  <fix>3d</fix>
</trkpt>
<trkpt lat="40.0708801" lon="-105.2312462">
  <ele>1583.0</ele>
  <time>2026-08-28T17:54:53Z</time>
  <course>66.92</course>
  <speed>4.970160963188214</speed>
  <fix>3d</fix>
</trkpt>
<trkpt lat="40.0708781" lon="-105.231253">
  <ele>1583.0</ele>
  <time>2026-08-28T17:54:53Z</time>
  <course>66.0</course>
  <speed>5.0</speed>
  <fix>3d</fix>
</trkpt>
<trkpt lat="40.070882" lon="-105.2312408">
  <ele>1583.01</ele>
  <time>2026-08-28T17:54:53Z</time>
  <course>66.92</course>
  <speed>4.970160963188214</speed>
  <fix>3d</fix>
</trkpt>
<trkpt lat="40.0708781" lon="-105.231253">
  <ele>1583.0</ele>
  <time>2026-08-28T17:54:53Z</time>
  <course>66.0</course>
  <speed>5.0</speed>
  <fix>3d</fix>
</trkpt>
<trkpt lat="40.0708838" lon="-105.2312354">
  <ele>1583.01</ele>
  <time>2026-08-28T17:54:53Z</time>
  <course>66.92</course>
  <speed>4.970160963188214</speed>
  <fix>3d</fix>
</trkpt>
<trkpt lat="40.0708817" lon="-105.2312423">
  <ele>1583.0</ele>
  <time>2026-08-28T17:54:53Z</time>
  <course>66.0</course>
  <speed>5.0</speed>
  <fix>3d</fix>
</trkpt>
<trkpt lat="40.0708857" lon="-105.23123">
  <ele>1583.01</ele>
  <time>2026-08-28T17:54:53Z</time>
  <course>66.92</course>
  <speed>4.970160963188214</speed>
  <fix>3d</fix>
</trkpt>
<trkpt lat="40.0708817" lon="-105.2312423">
  <ele>1583.0</ele>
  <time>2026-08-28T17:54:53Z</time>
  <course>66.0</course>
  <speed>5.0</speed>
  <fix>3d</fix>
</trkpt>
<trkpt lat="40.0708875" lon="-105.2312246">
  <ele>1583.01</ele>
  <time>2026-08-28T17:54:53Z</time>
  <course>66.94</course>
  <speed>4.979317222270539</speed>
  <fix>3d</fix>
</trkpt>
<trkpt lat="40.0708853" lon="-105.2312316">
  <ele>1583.0</ele>
  <time>2026-08-28T17:54:53Z</time>
  <course>66.01</course>
  <speed>5.0</speed>
  <fix>3d</fix>
</trkpt>
<trkpt lat="40.0708894" lon="-105.2312192">
  <ele>1583.01</ele>
  <time>2026-08-28T17:54:53Z</time>
  <course>66.94</course>
  <speed>4.979317222270539</speed>
  <fix>3d</fix>
</trkpt>
<trkpt lat="40.0708853" lon="-105.2312316">
  <ele>1583.0</ele>
  <time>2026-08-28T17:54:53Z</time>
  <course>66.01</course>
  <speed>5.0</speed>
  <fix>3d</fix>
</trkpt>
<trkpt lat="40.0708912" lon="-105.2312138">
  <ele>1583.01</ele>
  <time>2026-08-28T17:54:53Z</time>
  <course>66.94</course>
  <speed>4.979317222270539</speed>
  <fix>3d</fix>
</trkpt>
<trkpt lat="40.070889" lon="-105.2312208">
  <ele>1583.0</ele>
  <time>2026-08-28T17:54:53Z</time>
  <course>66.02</course>
  <speed>5.0</speed>
  <fix>3d</fix>
</trkpt>
<trkpt lat="40.070893" lon="-105.2312084">
  <ele>1583.01</ele>
  <time>2026-08-28T17:54:53Z</time>
  <course>66.94</course>
  <speed>4.979317222270539</speed>
  <fix>3d</fix>
</trkpt>
<trkpt lat="40.070889" lon="-105.2312208">
  <ele>1583.0</ele>
  <time>2026-08-28T17:54:53Z</time>
  <course>66.02</course>
  <speed>5.0</speed>
  <fix>3d</fix>
</trkpt>
<trkpt lat="40.0708949" lon="-105.231203">
  <ele>1583.01</ele>
  <time>2026-08-28T17:54:53Z</time>
  <course>66.94</course>
  <speed>4.979317222270539</speed>
  <fix>3d</fix>
</trkpt>
<trkpt lat="40.0708927" lon="-105.2312101">
  <ele>1583.0</ele>
  <time>2026-08-28T17:54:53Z</time>
  <course>66.02</course>
  <speed>5.0</speed>
  <fix>3d</fix>
</trkpt>
<trkpt lat="40.0708967" lon="-105.2311976">
  <ele>1583.01</ele>
  <time>2026-08-28T17:54:53Z</time>
  <course>66.94</course>
  <speed>4.970160963188214</speed>
  <fix>3d</fix>
</trkpt>
<trkpt lat="40.0708927" lon="-105.2312101">
  <ele>1583.0</ele>
  <time>2026-08-28T17:54:53Z</time>
  <course>66.02</course>
  <speed>5.0</speed>
  <fix>3d</fix>
</trkpt>
<trkpt lat="40.0708985" lon="-105.2311922">
  <ele>1583.01</ele>
  <time>2026-08-28T17:54:53Z</time>
  <course>66.94</course>
  <speed>4.970160963188214</speed>
  <fix>3d</fix>
</trkpt>
<trkpt lat="40.0708927" lon="-105.2312101">
  <ele>1583.0</ele>
  <time>2026-08-28T17:54:53Z</time>
  <course>66.02</course>
  <speed>5.0</speed>
  <fix>3d</fix>
</trkpt>
<trkpt lat="40.0709004" lon="-105.2311869">
  <ele>1583.01</ele>
  <time>2026-08-28T17:54:53Z</time>
  <course>66.96</course>
  <speed>4.970160963188214</speed>
  <fix>3d</fix>
</trkpt>
<trkpt lat="40.0708963" lon="-105.2311994">
  <ele>1583.0</ele>
  <time>2026-08-28T17:54:53Z</time>
  <course>66.02</course>
  <speed>4.99</speed>
  <fix>3d</fix>
</trkpt>
<trkpt lat="40.0709022" lon="-105.2311816">
  <ele>1583.01</ele>
  <time>2026-08-28T17:54:53Z</time>
  <course>66.96</course>
  <speed>4.970160963188214</speed>
  <fix>3d</fix>
</trkpt>
<trkpt lat="40.0708963" lon="-105.2311994">
  <ele>1583.0</ele>
  <time>2026-08-28T17:54:53Z</time>
  <course>66.02</course>
  <speed>4.99</speed>
  <fix>3d</fix>
</trkpt>
<trkpt lat="40.070904" lon="-105.2311763">
  <ele>1583.01</ele>
  <time>2026-08-28T17:54:54Z</time>
  <course>66.96</course>
  <speed>4.970160963188214</speed>
  <fix>3d</fix>
</trkpt>
<trkpt lat="40.0709" lon="-105.2311886">
  <ele>1583.0</ele>
  <time>2026-08-28T17:54:54Z</time>
  <course>66.02</course>
  <speed>4.99</speed>
  <fix>3d</fix>
</trkpt>
<trkpt lat="40.0709058" lon="-105.2311709">
  <ele>1583.02</ele>
  <time>2026-08-28T17:54:54Z</time>
  <course>66.96</course>
  <speed>4.961007962098026</speed>
  <fix>3d</fix>
</trkpt>
<trkpt lat="40.0709" lon="-105.2311886">
  <ele>1583.0</ele>
  <time>2026-08-28T17:54:54Z</time>
  <course>66.02</course>
  <speed>4.99</speed>
  <fix>3d</fix>
</trkpt>
<trkpt lat="40.0709076" lon="-105.2311657">
  <ele>1583.02</ele>
  <time>2026-08-28T17:54:54Z</time>
  <course>66.96</course>
  <speed>4.961007962098026</speed>
  <fix>3d</fix>
</trkpt>
<trkpt lat="40.0709036" lon="-105.2311779">
  <ele>1583.0</ele>
  <time>2026-08-28T17:54:54Z</time>
  <course>66.03</course>
  <speed>4.99</speed>
  <fix>3d</fix>
</trkpt>
<trkpt lat="40.0709094" lon="-105.2311603">
  <ele>1583.01</ele>
  <time>2026-08-28T17:54:54Z</time>
  <course>66.96</course>
  <speed>4.956984970725653</speed>
  <fix>3d</fix>
</trkpt>
<trkpt lat="40.0709073" lon="-105.2311672">
  <ele>1583.0</ele>
  <time>2026-08-28T17:54:54Z</time>
  <course>66.03</course>
  <speed>4.99</speed>
  <fix>3d</fix>
</trkpt>
<trkpt lat="40.0709112" lon="-105.231155">
  <ele>1583.01</ele>
  <time>2026-08-28T17:54:54Z</time>
  <course>66.96</course>
  <speed>4.961007962098026</speed>
  <fix>3d</fix>
</trkpt>
<trkpt lat="40.0709073" lon="-105.2311672">
  <ele>1583.0</ele>
  <time>2026-08-28T17:54:54Z</time>
  <course>66.03</course>
  <speed>4.99</speed>
  <fix>3d</fix>
</trkpt>
<trkpt lat="40.070913" lon="-105.2311496">
  <ele>1583.01</ele>
  <time>2026-08-28T17:54:54Z</time>
  <course>66.97</course>
  <speed>4.956984970725653</speed>
  <fix>3d</fix>
</trkpt>
<trkpt lat="40.0709109" lon="-105.2311565">
  <ele>1583.0</ele>
  <time>2026-08-28T17:54:54Z</time>
  <course>66.04</course>
  <speed>4.99</speed>
  <fix>3d</fix>
</trkpt>
<trkpt lat="40.0709149" lon="-105.2311443">
  <ele>1583.01</ele>
  <time>2026-08-28T17:54:54Z</time>
  <course>66.97</course>
  <speed>4.961007962098026</speed>
  <fix>3d</fix>
</trkpt>
<trkpt lat="40.0709109" lon="-105.2311565">
  <ele>1583.0</ele>
  <time>2026-08-28T17:54:54Z</time>
  <course>66.04</course>
  <speed>4.99</speed>
  <fix>3d</fix>
</trkpt>
<trkpt lat="40.0709167" lon="-105.2311389">
  <ele>1583.0</ele>
  <time>2026-08-28T17:54:54Z</time>
  <course>66.97</course>
  <speed>4.970160963188214</speed>
  <fix>3d</fix>
</trkpt>
<trkpt lat="40.0709145" lon="-105.2311457">
  <ele>1583.0</ele>
  <time>2026-08-28T17:54:54Z</time>
  <course>66.04</course>
  <speed>4.99</speed>
  <fix>3d</fix>
</trkpt>
<trkpt lat="40.0709185" lon="-105.2311335">
  <ele>1583.0</ele>
  <time>2026-08-28T17:54:54Z</time>
  <course>66.97</course>
  <speed>4.970160963188214</speed>
  <fix>3d</fix>
</trkpt>
<trkpt lat="40.0709145" lon="-105.2311457">
  <ele>1583.0</ele>
  <time>2026-08-28T17:54:54Z</time>
  <course>66.04</course>
  <speed>4.99</speed>
  <fix>3d</fix>
</trkpt>
<trkpt lat="40.0709203" lon="-105.2311281">
  <ele>1583.0</ele>
  <time>2026-08-28T17:54:54Z</time>
  <course>66.97</course>
  <speed>4.970160963188214</speed>
  <fix>3d</fix>
</trkpt>
<trkpt lat="40.0709182" lon="-105.231135">
  <ele>1583.0</ele>
  <time>2026-08-28T17:54:54Z</time>
  <course>66.04</course>
  <speed>4.99</speed>
  <fix>3d</fix>
</trkpt>
<trkpt lat="40.0709222" lon="-105.2311227">
  <ele>1583.0</ele>
  <time>2026-08-28T17:54:54Z</time>
  <course>66.97</course>
  <speed>4.970160963188214</speed>
  <fix>3d</fix>
</trkpt>
<trkpt lat="40.0709182" lon="-105.231135">
  <ele>1583.0</ele>
  <time>2026-08-28T17:54:54Z</time>
  <course>66.04</course>
  <speed>4.99</speed>
  <fix>3d</fix>
</trkpt>
<trkpt lat="40.070924" lon="-105.2311173">
  <ele>1583.0</ele>
  <time>2026-08-28T17:54:54Z</time>
  <course>66.97</course>
  <speed>4.970160963188214</speed>
  <fix>3d</fix>
</trkpt>
<trkpt lat="40.0709219" lon="-105.2311243">
  <ele>1583.0</ele>
  <time>2026-08-28T17:54:54Z</time>
  <course>66.04</course>
  <speed>4.99</speed>
  <fix>3d</fix>
</trkpt>
<trkpt lat="40.0709259" lon="-105.2311119">
  <ele>1583.0</ele>
  <time>2026-08-28T17:54:54Z</time>
  <course>66.97</course>
  <speed>4.970160963188214</speed>
  <fix>3d</fix>
</trkpt>
<trkpt lat="40.0709219" lon="-105.2311243">
  <ele>1583.0</ele>
  <time>2026-08-28T17:54:54Z</time>
  <course>66.04</course>
  <speed>4.99</speed>
  <fix>3d</fix>
</trkpt>
<trkpt lat="40.0709277" lon="-105.2311065">
  <ele>1583.0</ele>
  <time>2026-08-28T17:54:54Z</time>
  <course>66.98</course>
  <speed>4.970160963188214</speed>
  <fix>3d</fix>
</trkpt>
<trkpt lat="40.0709255" lon="-105.2311136">
  <ele>1583.0</ele>
  <time>2026-08-28T17:54:54Z</time>
  <course>66.04</course>
  <speed>4.99</speed>
  <fix>3d</fix>
</trkpt>
<trkpt lat="40.0709295" lon="-105.2311011">
  <ele>1583.01</ele>
  <time>2026-08-28T17:54:54Z</time>
  <course>66.98</course>
  <speed>4.970160963188214</speed>
  <fix>3d</fix>
</trkpt>
<trkpt lat="40.0709255" lon="-105.2311136">
  <ele>1583.0</ele>
  <time>2026-08-28T17:54:54Z</time>
  <course>66.04</course>
  <speed>4.99</speed>
  <fix>3d</fix>
</trkpt>
<trkpt lat="40.0709314" lon="-105.2310957">
  <ele>1583.01</ele>
  <time>2026-08-28T17:54:54Z</time>
  <course>66.99</course>
  <speed>4.970160963188214</speed>
  <fix>3d</fix>
</trkpt>
<trkpt lat="40.0709291" lon="-105.2311029">
  <ele>1583.0</ele>
  <time>2026-08-28T17:54:54Z</time>
  <course>66.05</course>
  <speed>4.99</speed>
  <fix>3d</fix>
</trkpt>
<trkpt lat="40.0709332" lon="-105.2310904">
  <ele>1583.01</ele>
  <time>2026-08-28T17:54:54Z</time>
  <course>66.99</course>
  <speed>4.970160963188214</speed>
  <fix>3d</fix>
</trkpt>
<trkpt lat="40.0709291" lon="-105.2311029">
  <ele>1583.0</ele>
  <time>2026-08-28T17:54:54Z</time>
  <course>66.05</course>
  <speed>4.99</speed>
  <fix>3d</fix>
</trkpt>
<trkpt lat="40.070935" lon="-105.231085">
  <ele>1583.01</ele>
  <time>2026-08-28T17:54:54Z</time>
  <course>66.99</course>
  <speed>4.970160963188214</speed>
  <fix>3d</fix>
</trkpt>
<trkpt lat="40.0709291" lon="-105.2311029">
  <ele>1583.0</ele>
  <time>2026-08-28T17:54:54Z</time>
  <course>66.05</course>
  <speed>4.99</speed>
  <fix>3d</fix>
</trkpt>
<trkpt lat="40.0709368" lon="-105.2310797">
  <ele>1583.01</ele>
  <time>2026-08-28T17:54:54Z</time>
  <course>66.99</course>
  <speed>4.970160963188214</speed>
  <fix>3d</fix>
</trkpt>
<trkpt lat="40.0709328" lon="-105.2310921">
  <ele>1583.0</ele>
  <time>2026-08-28T17:54:54Z</time>
  <course>66.06</course>
  <speed>4.99</speed>
  <fix>3d</fix>
</trkpt>
<trkpt lat="40.0709386" lon="-105.2310743">
  <ele>1583.01</ele>
  <time>2026-08-28T17:54:54Z</time>
  <course>66.99</course>
  <speed>4.970160963188214</speed>
  <fix>3d</fix>
</trkpt>
<trkpt lat="40.0709328" lon="-105.2310921">
  <ele>1583.0</ele>
  <time>2026-08-28T17:54:54Z</time>
  <course>66.06</course>
  <speed>4.99</speed>
  <fix>3d</fix>
</trkpt>
<trkpt lat="40.0709404" lon="-105.231069">
  <ele>1583.02</ele>
  <time>2026-08-28T17:54:54Z</time>
  <course>66.99</course>
  <speed>4.970160963188214</speed>
  <fix>3d</fix>
</trkpt>
<trkpt lat="40.0709365" lon="-105.2310814">
  <ele>1583.0</ele>
  <time>2026-08-28T17:54:54Z</time>
  <course>66.06</course>
  <speed>4.99</speed>
  <fix>3d</fix>
</trkpt>
<trkpt lat="40.0709422" lon="-105.2310637">
  <ele>1583.02</ele>
  <time>2026-08-28T17:54:54Z</time>
  <course>66.99</course>
  <speed>4.961007962098026</speed>
  <fix>3d</fix>
</trkpt>
<trkpt lat="40.0709365" lon="-105.2310814">
  <ele>1583.0</ele>
  <time>2026-08-28T17:54:54Z</time>
  <course>66.06</course>
  <speed>4.99</speed>
  <fix>3d</fix>
</trkpt>
<trkpt lat="40.070944" lon="-105.2310584">
  <ele>1583.02</ele>
  <time>2026-08-28T17:54:54Z</time>
  <course>66.99</course>
  <speed>4.956984970725653</speed>
  <fix>3d</fix>
</trkpt>
<trkpt lat="40.0709401" lon="-105.2310707">
  <ele>1583.0</ele>
  <time>2026-08-28T17:54:54Z</time>
  <course>66.06</course>
  <speed>4.99</speed>
  <fix>3d</fix>
</trkpt>
<trkpt lat="40.0709459" lon="-105.2310531">
  <ele>1583.02</ele>
  <time>2026-08-28T17:54:54Z</time>
  <course>66.99</course>
  <speed>4.956984970725653</speed>
  <fix>3d</fix>
</trkpt>
<trkpt lat="40.0709401" lon="-105.2310707">
  <ele>1583.0</ele>
  <time>2026-08-28T17:54:54Z</time>
  <course>66.06</course>
  <speed>4.99</speed>
  <fix>3d</fix>
</trkpt>
<trkpt lat="40.0709477" lon="-105.2310478">
  <ele>1583.02</ele>
  <time>2026-08-28T17:54:54Z</time>
  <course>66.99</course>
  <speed>4.956984970725653</speed>
  <fix>3d</fix>
</trkpt>
<trkpt lat="40.0709437" lon="-105.2310599">
  <ele>1583.0</ele>
  <time>2026-08-28T17:54:54Z</time>
  <course>66.06</course>
  <speed>4.99</speed>
  <fix>3d</fix>
</trkpt>
<trkpt lat="40.0709495" lon="-105.2310425">
  <ele>1583.02</ele>
  <time>2026-08-28T17:54:54Z</time>
  <course>67.01</course>
  <speed>4.956984970725653</speed>
  <fix>3d</fix>
</trkpt>
<trkpt lat="40.0709474" lon="-105.2310492">
  <ele>1583.0</ele>
  <time>2026-08-28T17:54:54Z</time>
  <course>66.06</course>
  <speed>4.99</speed>
  <fix>3d</fix>
</trkpt>
<trkpt lat="40.0709513" lon="-105.2310371">
  <ele>1583.02</ele>
  <time>2026-08-28T17:54:54Z</time>
  <course>67.01</course>
  <speed>4.956984970725653</speed>
  <fix>3d</fix>
</trkpt>
<trkpt lat="40.0709474" lon="-105.2310492">
  <ele>1583.0</ele>
  <time>2026-08-28T17:54:54Z</time>
  <course>66.06</course>
  <speed>4.99</speed>
  <fix>3d</fix>
</trkpt>
<trkpt lat="40.0709531" lon="-105.2310318">
  <ele>1583.02</ele>
  <time>2026-08-28T17:54:54Z</time>
  <course>67.01</course>
  <speed>4.970160963188214</speed>
  <fix>3d</fix>
</trkpt>
<trkpt lat="40.070951" lon="-105.2310385">
  <ele>1583.0</ele>
  <time>2026-08-28T17:54:54Z</time>
  <course>66.07</course>
  <speed>4.99</speed>
  <fix>3d</fix>
</trkpt>
<trkpt lat="40.0709549" lon="-105.2310264">
  <ele>1583.02</ele>
  <time>2026-08-28T17:54:54Z</time>
  <course>67.01</course>
  <speed>4.970160963188214</speed>
  <fix>3d</fix>
</trkpt>
<trkpt lat="40.070951" lon="-105.2310385">
  <ele>1583.0</ele>
  <time>2026-08-28T17:54:54Z</time>
  <course>66.07</course>
  <speed>4.99</speed>
  <fix>3d</fix>
</trkpt>
<trkpt lat="40.0709568" lon="-105.231021">
  <ele>1583.02</ele>
  <time>2026-08-28T17:54:54Z</time>
  <course>67.01</course>
  <speed>4.970160963188214</speed>
  <fix>3d</fix>
</trkpt>
<trkpt lat="40.0709547" lon="-105.2310278">
  <ele>1583.0</ele>
  <time>2026-08-28T17:54:54Z</time>
  <course>66.07</course>
  <speed>5.0</speed>
  <fix>3d</fix>
</trkpt>
<trkpt lat="40.0709586" lon="-105.2310156">
  <ele>1583.02</ele>
  <time>2026-08-28T17:54:54Z</time>
  <course>67.01</course>
  <speed>4.970160963188214</speed>
  <fix>3d</fix>
</trkpt>
<trkpt lat="40.0709547" lon="-105.2310278">
  <ele>1583.0</ele>
  <time>2026-08-28T17:54:54Z</time>
  <course>66.07</course>
  <speed>5.0</speed>
  <fix>3d</fix>
</trkpt>
<trkpt lat="40.0709604" lon="-105.2310102">
  <ele>1583.01</ele>
  <time>2026-08-28T17:54:54Z</time>
  <course>67.01</course>
  <speed>4.979317222270539</speed>
  <fix>3d</fix>
</trkpt>
<trkpt lat="40.0709583" lon="-105.2310171">
  <ele>1583.0</ele>
  <time>2026-08-28T17:54:54Z</time>
  <course>66.07</course>
  <speed>5.0</speed>
  <fix>3d</fix>
</trkpt>
<trkpt lat="40.0709623" lon="-105.2310048">
  <ele>1583.01</ele>
  <time>2026-08-28T17:54:54Z</time>
  <course>67.01</course>
  <speed>4.979317222270539</speed>
  <fix>3d</fix>
</trkpt>
<trkpt lat="40.0709583" lon="-105.2310171">
  <ele>1583.0</ele>
  <time>2026-08-28T17:54:54Z</time>
  <course>66.07</course>
  <speed>5.0</speed>
  <fix>3d</fix>
</trkpt>
<trkpt lat="40.0709641" lon="-105.2309994">
  <ele>1583.01</ele>
  <time>2026-08-28T17:54:54Z</time>
  <course>67.01</course>
  <speed>4.979317222270539</speed>
  <fix>3d</fix>
</trkpt>
<trkpt lat="40.0709619" lon="-105.2310063">
  <ele>1583.0</ele>
  <time>2026-08-28T17:54:54Z</time>
  <course>66.07</course>
  <speed>5.0</speed>
  <fix>3d</fix>
</trkpt>
<trkpt lat="40.070966" lon="-105.230994">
  <ele>1583.01</ele>
  <time>2026-08-28T17:54:54Z</time>
  <course>67.01</course>
  <speed>4.979317222270539</speed>
  <fix>3d</fix>
</trkpt>
<trkpt lat="40.0709619" lon="-105.2310063">
  <ele>1583.0</ele>
  <time>2026-08-28T17:54:54Z</time>
  <course>66.07</course>
  <speed>5.0</speed>
  <fix>3d</fix>
</trkpt>
<trkpt lat="40.0709678" lon="-105.2309886">
  <ele>1583.0</ele>
  <time>2026-08-28T17:54:54Z</time>
  <course>67.01</course>
  <speed>4.979317222270539</speed>
  <fix>3d</fix>
</trkpt>
<trkpt lat="40.0709656" lon="-105.2309956">
  <ele>1583.0</ele>
  <time>2026-08-28T17:54:54Z</time>
  <course>66.07</course>
  <speed>5.0</speed>
  <fix>3d</fix>
</trkpt>
<trkpt lat="40.0709696" lon="-105.2309832">
  <ele>1583.0</ele>
  <time>2026-08-28T17:54:54Z</time>
  <course>67.01</course>
  <speed>4.979317222270539</speed>
  <fix>3d</fix>
</trkpt>
<trkpt lat="40.0709656" lon="-105.2309956">
  <ele>1583.0</ele>
  <time>2026-08-28T17:54:54Z</time>
  <course>66.07</course>
  <speed>5.0</speed>
  <fix>3d</fix>
</trkpt>
<trkpt lat="40.0709715" lon="-105.2309778">
  <ele>1583.0</ele>
  <time>2026-08-28T17:54:54Z</time>
  <course>67.01</course>
  <speed>4.979317222270539</speed>
  <fix>3d</fix>
</trkpt>
<trkpt lat="40.0709656" lon="-105.2309956">
  <ele>1583.0</ele>
  <time>2026-08-28T17:54:54Z</time>
  <course>66.07</course>
  <speed>5.0</speed>
  <fix>3d</fix>
</trkpt>
<trkpt lat="40.0709733" lon="-105.2309724">
  <ele>1583.0</ele>
  <time>2026-08-28T17:54:54Z</time>
  <course>67.01</course>
  <speed>4.970160963188214</speed>
  <fix>3d</fix>
</trkpt>
<trkpt lat="40.0709692" lon="-105.2309849">
  <ele>1583.0</ele>
  <time>2026-08-28T17:54:54Z</time>
  <course>66.07</course>
  <speed>5.0</speed>
  <fix>3d</fix>
</trkpt>
<trkpt lat="40.0709751" lon="-105.2309671">
  <ele>1583.0</ele>
  <time>2026-08-28T17:54:54Z</time>
  <course>67.01</course>
  <speed>4.970160963188214</speed>
  <fix>3d</fix>
</trkpt>
<trkpt lat="40.0709692" lon="-105.2309849">
  <ele>1583.0</ele>
  <time>2026-08-28T17:54:54Z</time>
  <course>66.07</course>
  <speed>5.0</speed>
  <fix>3d</fix>
</trkpt>
<trkpt lat="40.0709769" lon="-105.2309618">
  <ele>1583.0</ele>
  <time>2026-08-28T17:54:54Z</time>
  <course>67.01</course>
  <speed>4.970160963188214</speed>
  <fix>3d</fix>
</trkpt>
<trkpt lat="40.0709729" lon="-105.2309741">
  <ele>1583.0</ele>
  <time>2026-08-28T17:54:54Z</time>
  <course>66.07</course>
  <speed>4.99</speed>
  <fix>3d</fix>
</trkpt>
<trkpt lat="40.0709787" lon="-105.2309565">
  <ele>1583.0</ele>
  <time>2026-08-28T17:54:55Z</time>
  <course>67.01</course>
  <speed>4.970160963188214</speed>
  <fix>3d</fix>
</trkpt>
<trkpt lat="40.0709729" lon="-105.2309741">
  <ele>1583.0</ele>
  <time>2026-08-28T17:54:55Z</time>
  <course>66.07</course>
  <speed>4.99</speed>
  <fix>3d</fix>
</trkpt>
<trkpt lat="40.0709805" lon="-105.2309512">
  <ele>1583.0</ele>
  <time>2026-08-28T17:54:55Z</time>
  <course>67.01</course>
  <speed>4.970160963188214</speed>
  <fix>3d</fix>
</trkpt>
<trkpt lat="40.0709765" lon="-105.2309634">
  <ele>1583.0</ele>
  <time>2026-08-28T17:54:55Z</time>
  <course>66.07</course>
  <speed>4.99</speed>
  <fix>3d</fix>
</trkpt>
<trkpt lat="40.0709823" lon="-105.2309458">
  <ele>1582.99</ele>
  <time>2026-08-28T17:54:55Z</time>
  <course>67.01</course>
  <speed>4.956984970725653</speed>
  <fix>3d</fix>
</trkpt>
<trkpt lat="40.0709765" lon="-105.2309634">
  <ele>1583.0</ele>
  <time>2026-08-28T17:54:55Z</time>
  <course>66.07</course>
  <speed>4.99</speed>
  <fix>3d</fix>
</trkpt>
<trkpt lat="40.0709841" lon="-105.2309405">
  <ele>1582.99</ele>
  <time>2026-08-28T17:54:55Z</time>
  <course>67.01</course>
  <speed>4.956984970725653</speed>
  <fix>3d</fix>
</trkpt>
<trkpt lat="40.0709802" lon="-105.2309526">
  <ele>1583.0</ele>
  <time>2026-08-28T17:54:55Z</time>
  <course>66.07</course>
  <speed>4.99</speed>
  <fix>3d</fix>
</trkpt>
<trkpt lat="40.0709859" lon="-105.2309352">
  <ele>1582.99</ele>
  <time>2026-08-28T17:54:55Z</time>
  <course>67.01</course>
  <speed>4.956984970725653</speed>
  <fix>3d</fix>
</trkpt>
<trkpt lat="40.0709838" lon="-105.2309419">
  <ele>1583.0</ele>
  <time>2026-08-28T17:54:55Z</time>
  <course>66.07</course>
  <speed>4.99</speed>
  <fix>3d</fix>
</trkpt>
<trkpt lat="40.0709877" lon="-105.2309298">
  <ele>1582.99</ele>
  <time>2026-08-28T17:54:55Z</time>
  <course>67.01</course>
  <speed>4.970160963188214</speed>
  <fix>3d</fix>
</trkpt>
<trkpt lat="40.0709838" lon="-105.2309419">
  <ele>1583.0</ele>
  <time>2026-08-28T17:54:55Z</time>
  <course>66.07</course>
  <speed>4.99</speed>
  <fix>3d</fix>
</trkpt>
<trkpt lat="40.0709895" lon="-105.2309245">
  <ele>1582.99</ele>
  <time>2026-08-28T17:54:55Z</time>
  <course>67.01</course>
  <speed>4.970160963188214</speed>
  <fix>3d</fix>
</trkpt>
<trkpt lat="40.0709875" lon="-105.2309312">
  <ele>1583.0</ele>
  <time>2026-08-28T17:54:55Z</time>
  <course>66.07</course>
  <speed>5.0</speed>
  <fix>3d</fix>
</trkpt>
<trkpt lat="40.0709914" lon="-105.2309191">
  <ele>1583.0</ele>
  <time>2026-08-28T17:54:55Z</time>
  <course>67.01</course>
  <speed>4.970160963188214</speed>
  <fix>3d</fix>
</trkpt>
<trkpt lat="40.0709875" lon="-105.2309312">
  <ele>1583.0</ele>
  <time>2026-08-28T17:54:55Z</time>
  <course>66.07</course>
  <speed>5.0</speed>
  <fix>3d</fix>
</trkpt>
<trkpt lat="40.0709932" lon="-105.2309137">
  <ele>1583.0</ele>
  <time>2026-08-28T17:54:55Z</time>
  <course>67.01</course>
  <speed>4.970160963188214</speed>
  <fix>3d</fix>
</trkpt>
<trkpt lat="40.0709911" lon="-105.2309205">
  <ele>1583.0</ele>
  <time>2026-08-28T17:54:55Z</time>
  <course>66.07</course>
  <speed>5.0</speed>
  <fix>3d</fix>
</trkpt>
<trkpt lat="40.070995" lon="-105.2309083">
  <ele>1583.0</ele>
  <time>2026-08-28T17:54:55Z</time>
  <course>67.01</course>
  <speed>4.970160963188214</speed>
  <fix>3d</fix>
</trkpt>
<trkpt lat="40.0709911" lon="-105.2309205">
  <ele>1583.0</ele>
  <time>2026-08-28T17:54:55Z</time>
  <course>66.07</course>
  <speed>5.0</speed>
  <fix>3d</fix>
</trkpt>
<trkpt lat="40.0709969" lon="-105.2309029">
  <ele>1583.0</ele>
  <time>2026-08-28T17:54:55Z</time>
  <course>67.01</course>
  <speed>4.970160963188214</speed>
  <fix>3d</fix>
</trkpt>
<trkpt lat="40.0709947" lon="-105.2309097">
  <ele>1583.0</ele>
  <time>2026-08-28T17:54:55Z</time>
  <course>66.07</course>
  <speed>5.0</speed>
  <fix>3d</fix>
</trkpt>
<trkpt lat="40.0709987" lon="-105.2308975">
  <ele>1583.0</ele>
  <time>2026-08-28T17:54:55Z</time>
  <course>67.01</course>
  <speed>4.979317222270539</speed>
  <fix>3d</fix>
</trkpt>
<trkpt lat="40.0709947" lon="-105.2309097">
  <ele>1583.0</ele>
  <time>2026-08-28T17:54:55Z</time>
  <course>66.07</course>
  <speed>5.0</speed>
  <fix>3d</fix>
</trkpt>
<trkpt lat="40.0710006" lon="-105.2308921">
  <ele>1583.0</ele>
  <time>2026-08-28T17:54:55Z</time>
  <course>67.01</course>
  <speed>4.979317222270539</speed>
  <fix>3d</fix>
</trkpt>
<trkpt lat="40.0709984" lon="-105.2308989">
  <ele>1583.0</ele>
  <time>2026-08-28T17:54:55Z</time>
  <course>66.07</course>
  <speed>5.0</speed>
  <fix>3d</fix>
</trkpt>
<trkpt lat="40.0710024" lon="-105.2308866">
  <ele>1583.0</ele>
  <time>2026-08-28T17:54:55Z</time>
  <course>67.01</course>
  <speed>4.979317222270539</speed>
  <fix>3d</fix>
</trkpt>
<trkpt lat="40.0709984" lon="-105.2308989">
  <ele>1583.0</ele>
  <time>2026-08-28T17:54:55Z</time>
  <course>66.07</course>
  <speed>5.0</speed>
  <fix>3d</fix>
</trkpt>
<trkpt lat="40.0710042" lon="-105.2308812">
  <ele>1582.99</ele>
  <time>2026-08-28T17:54:55Z</time>
  <course>67.01</course>
  <speed>4.979317222270539</speed>
  <fix>3d</fix>
</trkpt>
<trkpt lat="40.071002" lon="-105.2308882">
  <ele>1583.0</ele>
  <time>2026-08-28T17:54:55Z</time>
  <course>66.07</course>
  <speed>5.0</speed>
  <fix>3d</fix>
</trkpt>
<trkpt lat="40.0710061" lon="-105.2308758">
  <ele>1582.99</ele>
  <time>2026-08-28T17:54:55Z</time>
  <course>67.01</course>
  <speed>4.979317222270539</speed>
  <fix>3d</fix>
</trkpt>
<trkpt lat="40.071002" lon="-105.2308882">
  <ele>1583.0</ele>
  <time>2026-08-28T17:54:55Z</time>
  <course>66.07</course>
  <speed>5.0</speed>
  <fix>3d</fix>
</trkpt>
<trkpt lat="40.0710079" lon="-105.2308704">
  <ele>1582.99</ele>
  <time>2026-08-28T17:54:55Z</time>
  <course>67.01</course>
  <speed>4.979317222270539</speed>
  <fix>3d</fix>
</trkpt>
<trkpt lat="40.0710057" lon="-105.2308775">
  <ele>1583.0</ele>
  <time>2026-08-28T17:54:55Z</time>
  <course>66.07</course>
  <speed>5.0</speed>
  <fix>3d</fix>
</trkpt>
<trkpt lat="40.0710097" lon="-105.230865">
  <ele>1582.99</ele>
  <time>2026-08-28T17:54:55Z</time>
  <course>67.02</course>
  <speed>4.979317222270539</speed>
  <fix>3d</fix>
</trkpt>
<trkpt lat="40.0710057" lon="-105.2308775">
  <ele>1583.0</ele>
  <time>2026-08-28T17:54:55Z</time>
  <course>66.07</course>
  <speed>5.0</speed>
  <fix>3d</fix>
</trkpt>
<trkpt lat="40.0710115" lon="-105.2308596">
  <ele>1582.99</ele>
  <time>2026-08-28T17:54:55Z</time>
  <course>67.02</course>
  <speed>4.979317222270539</speed>
  <fix>3d</fix>
</trkpt>
<trkpt lat="40.0710057" lon="-105.2308775">
  <ele>1583.0</ele>
  <time>2026-08-28T17:54:55Z</time>
  <course>66.07</course>
  <speed>5.0</speed>
  <fix>3d</fix>
</trkpt>
<trkpt lat="40.0710134" lon="-105.2308543">
  <ele>1582.99</ele>
  <time>2026-08-28T17:54:55Z</time>
  <course>67.02</course>
  <speed>4.970160963188214</speed>
  <fix>3d</fix>
</trkpt>
<trkpt lat="40.0710093" lon="-105.2308668">
  <ele>1583.0</ele>
  <time>2026-08-28T17:54:55Z</time>
  <course>66.07</course>
  <speed>4.99</speed>
  <fix>3d</fix>
</trkpt>
<trkpt lat="40.0710152" lon="-105.230849">
  <ele>1582.98</ele>
  <time>2026-08-28T17:54:55Z</time>
  <course>67.02</course>
  <speed>4.970160963188214</speed>
  <fix>3d</fix>
</trkpt>
<trkpt lat="40.0710093" lon="-105.2308668">
  <ele>1583.0</ele>
  <time>2026-08-28T17:54:55Z</time>
  <course>66.07</course>
  <speed>4.99</speed>
  <fix>3d</fix>
</trkpt>
<trkpt lat="40.071017" lon="-105.2308437">
  <ele>1582.98</ele>
  <time>2026-08-28T17:54:55Z</time>
  <course>67.02</course>
  <speed>4.966145386514575</speed>
  <fix>3d</fix>
</trkpt>
<trkpt lat="40.071013" lon="-105.230856">
  <ele>1583.0</ele>
  <time>2026-08-28T17:54:55Z</time>
  <course>66.07</course>
  <speed>4.99</speed>
  <fix>3d</fix>
</trkpt>
<trkpt lat="40.0710188" lon="-105.2308384">
  <ele>1582.99</ele>
  <time>2026-08-28T17:54:55Z</time>
  <course>67.02</course>
  <speed>4.956984970725653</speed>
  <fix>3d</fix>
</trkpt>
<trkpt lat="40.071013" lon="-105.230856">
  <ele>1583.0</ele>
  <time>2026-08-28T17:54:55Z</time>
  <course>66.07</course>
  <speed>4.99</speed>
  <fix>3d</fix>
</trkpt>
<trkpt lat="40.0710206" lon="-105.2308331">
  <ele>1582.99</ele>
  <time>2026-08-28T17:54:55Z</time>
  <course>67.02</course>
  <speed>4.956984970725653</speed>
  <fix>3d</fix>
</trkpt>
<trkpt lat="40.0710166" lon="-105.2308453">
  <ele>1583.0</ele>
  <time>2026-08-28T17:54:55Z</time>
  <course>66.07</course>
  <speed>4.99</speed>
  <fix>3d</fix>
</trkpt>
<trkpt lat="40.0710224" lon="-105.2308277">
  <ele>1582.99</ele>
  <time>2026-08-28T17:54:55Z</time>
  <course>67.02</course>
  <speed>4.956984970725653</speed>
  <fix>3d</fix>
</trkpt>
<trkpt lat="40.0710202" lon="-105.2308346">
  <ele>1583.0</ele>
  <time>2026-08-28T17:54:55Z</time>
  <course>66.07</course>
  <speed>4.98</speed>
  <fix>3d</fix>
</trkpt>
<trkpt lat="40.0710242" lon="-105.2308224">
  <ele>1583.0</ele>
  <time>2026-08-28T17:54:55Z</time>
  <course>67.02</course>
  <speed>4.956984970725653</speed>
  <fix>3d</fix>
</trkpt>
<trkpt lat="40.0710202" lon="-105.2308346">
  <ele>1583.0</ele>
  <time>2026-08-28T17:54:55Z</time>
  <course>66.07</course>
  <speed>4.98</speed>
  <fix>3d</fix>
</trkpt>
<trkpt lat="40.071026" lon="-105.230817">
  <ele>1583.0</ele>
  <time>2026-08-28T17:54:55Z</time>
  <course>67.02</course>
  <speed>4.956984970725653</speed>
  <fix>3d</fix>
</trkpt>
<trkpt lat="40.0710239" lon="-105.2308239">
  <ele>1583.0</ele>
  <time>2026-08-28T17:54:55Z</time>
  <course>66.07</course>
  <speed>4.99</speed>
  <fix>3d</fix>
</trkpt>
<trkpt lat="40.0710278" lon="-105.2308117">
  <ele>1583.0</ele>
  <time>2026-08-28T17:54:55Z</time>
  <course>67.02</course>
  <speed>4.956984970725653</speed>
  <fix>3d</fix>
</trkpt>
<trkpt lat="40.0710239" lon="-105.2308239">
  <ele>1583.0</ele>
  <time>2026-08-28T17:54:55Z</time>
  <course>66.07</course>
  <speed>4.99</speed>
  <fix>3d</fix>
</trkpt>
<trkpt lat="40.0710296" lon="-105.2308063">
  <ele>1583.0</ele>
  <time>2026-08-28T17:54:55Z</time>
  <course>67.02</course>
  <speed>4.956984970725653</speed>
  <fix>3d</fix>
</trkpt>
<trkpt lat="40.0710275" lon="-105.2308132">
  <ele>1583.0</ele>
  <time>2026-08-28T17:54:55Z</time>
  <course>66.07</course>
  <speed>4.99</speed>
  <fix>3d</fix>
</trkpt>
<trkpt lat="40.0710315" lon="-105.2308009">
  <ele>1582.99</ele>
  <time>2026-08-28T17:54:55Z</time>
  <course>67.02</course>
  <speed>4.966145386514575</speed>
  <fix>3d</fix>
</trkpt>
<trkpt lat="40.0710275" lon="-105.2308132">
  <ele>1583.0</ele>
  <time>2026-08-28T17:54:55Z</time>
  <course>66.07</course>
  <speed>4.99</speed>
  <fix>3d</fix>
</trkpt>
<trkpt lat="40.0710333" lon="-105.2307956">
  <ele>1582.99</ele>
  <time>2026-08-28T17:54:55Z</time>
  <course>67.02</course>
  <speed>4.966145386514575</speed>
  <fix>3d</fix>
</trkpt>
<trkpt lat="40.0710312" lon="-105.2308025">
  <ele>1583.0</ele>
  <time>2026-08-28T17:54:55Z</time>
  <course>66.07</course>
  <speed>4.99</speed>
  <fix>3d</fix>
</trkpt>
<trkpt lat="40.0710351" lon="-105.2307901">
  <ele>1582.99</ele>
  <time>2026-08-28T17:54:55Z</time>
  <course>67.02</course>
  <speed>4.970160963188214</speed>
  <fix>3d</fix>
</trkpt>
<trkpt lat="40.0710312" lon="-105.2308025">
  <ele>1583.0</ele>
  <time>2026-08-28T17:54:55Z</time>
  <course>66.07</course>
  <speed>4.99</speed>
  <fix>3d</fix>
</trkpt>
<trkpt lat="40.071037" lon="-105.2307848">
  <ele>1583.0</ele>
  <time>2026-08-28T17:54:55Z</time>
  <course>67.02</course>
  <speed>4.970160963188214</speed>
  <fix>3d</fix>
</trkpt>
<trkpt lat="40.0710348" lon="-105.2307918">
  <ele>1583.0</ele>
  <time>2026-08-28T17:54:55Z</time>
  <course>66.07</course>
  <speed>4.99</speed>
  <fix>3d</fix>
</trkpt>
<trkpt lat="40.0710388" lon="-105.2307794">
  <ele>1583.0</ele>
  <time>2026-08-28T17:54:55Z</time>
  <course>67.02</course>
  <speed>4.970160963188214</speed>
  <fix>3d</fix>
</trkpt>
<trkpt lat="40.0710348" lon="-105.2307918">
  <ele>1583.0</ele>
  <time>2026-08-28T17:54:55Z</time>
  <course>66.07</course>
  <speed>4.99</speed>
  <fix>3d</fix>
</trkpt>
<trkpt lat="40.0710406" lon="-105.230774">
  <ele>1583.0</ele>
  <time>2026-08-28T17:54:55Z</time>
  <course>67.02</course>
  <speed>4.970160963188214</speed>
  <fix>3d</fix>
</trkpt>
<trkpt lat="40.0710384" lon="-105.2307811">
  <ele>1583.0</ele>
  <time>2026-08-28T17:54:55Z</time>
  <course>66.07</course>
  <speed>4.99</speed>
  <fix>3d</fix>
</trkpt>
<trkpt lat="40.0710425" lon="-105.2307686">
  <ele>1583.0</ele>
  <time>2026-08-28T17:54:55Z</time>
  <course>67.02</course>
  <speed>4.970160963188214</speed>
  <fix>3d</fix>
</trkpt>
<trkpt lat="40.0710384" lon="-105.2307811">
  <ele>1583.0</ele>
  <time>2026-08-28T17:54:55Z</time>
  <course>66.07</course>
  <speed>4.99</speed>
  <fix>3d</fix>
</trkpt>
<trkpt lat="40.0710443" lon="-105.2307632">
  <ele>1583.01</ele>
  <time>2026-08-28T17:54:55Z</time>
  <course>67.02</course>
  <speed>4.970160963188214</speed>
  <fix>3d</fix>
</trkpt>
<trkpt lat="40.0710421" lon="-105.2307703">
  <ele>1583.0</ele>
  <time>2026-08-28T17:54:55Z</time>
  <course>66.07</course>
  <speed>4.99</speed>
  <fix>3d</fix>
</trkpt>
<trkpt lat="40.0710461" lon="-105.2307578">
  <ele>1583.01</ele>
  <time>2026-08-28T17:54:55Z</time>
  <course>67.02</course>
  <speed>4.979317222270539</speed>
  <fix>3d</fix>
</trkpt>
<trkpt lat="40.0710421" lon="-105.2307703">
  <ele>1583.0</ele>
  <time>2026-08-28T17:54:55Z</time>
  <course>66.07</course>
  <speed>4.99</speed>
  <fix>3d</fix>
</trkpt>
<trkpt lat="40.0710479" lon="-105.2307525">
  <ele>1583.01</ele>
  <time>2026-08-28T17:54:55Z</time>
  <course>67.02</course>
  <speed>4.970160963188214</speed>
  <fix>3d</fix>
</trkpt>
<trkpt lat="40.0710421" lon="-105.2307703">
  <ele>1583.0</ele>
  <time>2026-08-28T17:54:55Z</time>
  <course>66.07</course>
  <speed>4.99</speed>
  <fix>3d</fix>
</trkpt>
<trkpt lat="40.0710498" lon="-105.2307471">
  <ele>1583.01</ele>
  <time>2026-08-28T17:54:55Z</time>
  <course>67.02</course>
  <speed>4.970160963188214</speed>
  <fix>3d</fix>
</trkpt>
<trkpt lat="40.0710457" lon="-105.2307596">
  <ele>1583.0</ele>
  <time>2026-08-28T17:54:55Z</time>
  <course>66.07</course>
  <speed>4.99</speed>
  <fix>3d</fix>
</trkpt>
<trkpt lat="40.0710516" lon="-105.2307418">
  <ele>1583.01</ele>
  <time>2026-08-28T17:54:56Z</time>
  <course>67.02</course>
  <speed>4.970160963188214</speed>
  <fix>3d</fix>
</trkpt>
<trkpt lat="40.0710457" lon="-105.2307596">
  <ele>1583.0</ele>
  <time>2026-08-28T17:54:56Z</time>
  <course>66.07</course>
  <speed>4.99</speed>
  <fix>3d</fix>
</trkpt>
<trkpt lat="40.0710534" lon="-105.2307365">
  <ele>1583.01</ele>
  <time>2026-08-28T17:54:56Z</time>
  <course>67.02</course>
  <speed>4.970160963188214</speed>
  <fix>3d</fix>
</trkpt>
<trkpt lat="40.0710494" lon="-105.2307489">
  <ele>1583.0</ele>
  <time>2026-08-28T17:54:56Z</time>
  <course>66.07</course>
  <speed>4.99</speed>
  <fix>3d</fix>
</trkpt>
<trkpt lat="40.0710552" lon="-105.2307312">
  <ele>1583.01</ele>
  <time>2026-08-28T17:54:56Z</time>
  <course>67.02</course>
  <speed>4.970160963188214</speed>
  <fix>3d</fix>
</trkpt>
<trkpt lat="40.0710494" lon="-105.2307489">
  <ele>1583.0</ele>
  <time>2026-08-28T17:54:56Z</time>
  <course>66.07</course>
  <speed>4.99</speed>
  <fix>3d</fix>
</trkpt>
<trkpt lat="40.071057" lon="-105.2307259">
  <ele>1583.02</ele>
  <time>2026-08-28T17:54:56Z</time>
  <course>67.02</course>
  <speed>4.970160963188214</speed>
  <fix>3d</fix>
</trkpt>
<trkpt lat="40.071053" lon="-105.2307381">
  <ele>1583.0</ele>
  <time>2026-08-28T17:54:56Z</time>
  <course>66.07</course>
  <speed>4.99</speed>
  <fix>3d</fix>
</trkpt>
<trkpt lat="40.0710588" lon="-105.2307206">
  <ele>1583.02</ele>
  <time>2026-08-28T17:54:56Z</time>
  <course>67.02</course>
  <speed>4.956984970725653</speed>
  <fix>3d</fix>
</trkpt>
<trkpt lat="40.071053" lon="-105.2307381">
  <ele>1583.0</ele>
  <time>2026-08-28T17:54:56Z</time>
  <course>66.07</course>
  <speed>4.99</speed>
  <fix>3d</fix>
</trkpt>
<trkpt lat="40.0710606" lon="-105.2307152">
  <ele>1583.02</ele>
  <time>2026-08-28T17:54:56Z</time>
  <course>67.02</course>
  <speed>4.956984970725653</speed>
  <fix>3d</fix>
</trkpt>
<trkpt lat="40.0710566" lon="-105.2307274">
  <ele>1583.0</ele>
  <time>2026-08-28T17:54:56Z</time>
  <course>66.07</course>
  <speed>4.99</speed>
  <fix>3d</fix>
</trkpt>
<trkpt lat="40.0710624" lon="-105.2307099">
  <ele>1583.02</ele>
  <time>2026-08-28T17:54:56Z</time>
  <course>67.02</course>
  <speed>4.956984970725653</speed>
  <fix>3d</fix>
</trkpt>
<trkpt lat="40.0710603" lon="-105.2307167">
  <ele>1583.0</ele>
  <time>2026-08-28T17:54:56Z</time>
  <course>66.07</course>
  <speed>4.99</speed>
  <fix>3d</fix>
</trkpt>
<trkpt lat="40.0710642" lon="-105.2307046">
  <ele>1583.03</ele>
  <time>2026-08-28T17:54:56Z</time>
  <course>67.02</course>
  <speed>4.966145386514575</speed>
  <fix>3d</fix>
</trkpt>
<trkpt lat="40.0710603" lon="-105.2307167">
  <ele>1583.0</ele>
  <time>2026-08-28T17:54:56Z</time>
  <course>66.07</course>
  <speed>4.99</speed>
  <fix>3d</fix>
</trkpt>
<trkpt lat="40.071066" lon="-105.2306992">
  <ele>1583.03</ele>
  <time>2026-08-28T17:54:56Z</time>
  <course>67.02</course>
  <speed>4.970160963188214</speed>
  <fix>3d</fix>
</trkpt>
<trkpt lat="40.0710639" lon="-105.230706">
  <ele>1583.0</ele>
  <time>2026-08-28T17:54:56Z</time>
  <course>66.07</course>
  <speed>5.0</speed>
  <fix>3d</fix>
</trkpt>
<trkpt lat="40.0710678" lon="-105.2306939">
  <ele>1583.03</ele>
  <time>2026-08-28T17:54:56Z</time>
  <course>67.02</course>
  <speed>4.970160963188214</speed>
  <fix>3d</fix>
</trkpt>
<trkpt lat="40.0710639" lon="-105.230706">
  <ele>1583.0</ele>
  <time>2026-08-28T17:54:56Z</time>
  <course>66.07</course>
  <speed>5.0</speed>
  <fix>3d</fix>
</trkpt>
<trkpt lat="40.0710697" lon="-105.2306885">
  <ele>1583.03</ele>
  <time>2026-08-28T17:54:56Z</time>
  <course>67.02</course>
  <speed>4.970160963188214</speed>
  <fix>3d</fix>
</trkpt>
<trkpt lat="40.0710675" lon="-105.2306953">
  <ele>1583.0</ele>
  <time>2026-08-28T17:54:56Z</time>
  <course>66.07</course>
  <speed>5.0</speed>
  <fix>3d</fix>
</trkpt>
<trkpt lat="40.0710715" lon="-105.2306831">
  <ele>1583.03</ele>
  <time>2026-08-28T17:54:56Z</time>
  <course>67.02</course>
  <speed>4.979317222270539</speed>
  <fix>3d</fix>
</trkpt>
<trkpt lat="40.0710675" lon="-105.2306953">
  <ele>1583.0</ele>
  <time>2026-08-28T17:54:56Z</time>
  <course>66.07</course>
  <speed>5.0</speed>
  <fix>3d</fix>
</trkpt>
<trkpt lat="40.0710733" lon="-105.2306776">
  <ele>1583.03</ele>
  <time>2026-08-28T17:54:56Z</time>
  <course>67.02</course>
  <speed>4.979317222270539</speed>
  <fix>3d</fix>
</trkpt>
<trkpt lat="40.0710712" lon="-105.2306845">
  <ele>1583.0</ele>
  <time>2026-08-28T17:54:56Z</time>
  <course>66.07</course>
  <speed>5.0</speed>
  <fix>3d</fix>
</trkpt>
<trkpt lat="40.0710752" lon="-105.2306722">
  <ele>1583.03</ele>
  <time>2026-08-28T17:54:56Z</time>
  <course>67.02</course>
  <speed>4.979317222270539</speed>
  <fix>3d</fix>
</trkpt>
<trkpt lat="40.0710712" lon="-105.2306845">
  <ele>1583.0</ele>
  <time>2026-08-28T17:54:56Z</time>
  <course>66.07</course>
  <speed>5.0</speed>
  <fix>3d</fix>
</trkpt>
<trkpt lat="40.071077" lon="-105.2306668">
  <ele>1583.03</ele>
  <time>2026-08-28T17:54:56Z</time>
  <course>67.02</course>
  <speed>4.979317222270539</speed>
  <fix>3d</fix>
</trkpt>
<trkpt lat="40.0710748" lon="-105.2306738">
  <ele>1583.0</ele>
  <time>2026-08-28T17:54:56Z</time>
  <course>66.07</course>
  <speed>5.0</speed>
  <fix>3d</fix>
</trkpt>
<trkpt lat="40.0710789" lon="-105.2306614">
  <ele>1583.03</ele>
  <time>2026-08-28T17:54:56Z</time>
  <course>67.02</course>
  <speed>4.979317222270539</speed>
  <fix>3d</fix>
</trkpt>
<trkpt lat="40.0710748" lon="-105.2306738">
  <ele>1583.0</ele>
  <time>2026-08-28T17:54:56Z</time>
  <course>66.07</course>
  <speed>5.0</speed>
  <fix>3d</fix>
</trkpt>
<trkpt lat="40.0710807" lon="-105.230656">
  <ele>1583.03</ele>
  <time>2026-08-28T17:54:56Z</time>
  <course>67.02</course>
  <speed>4.979317222270539</speed>
  <fix>3d</fix>
</trkpt>
<trkpt lat="40.0710785" lon="-105.230663">
  <ele>1583.0</ele>
  <time>2026-08-28T17:54:56Z</time>
  <course>66.07</course>
  <speed>5.0</speed>
  <fix>3d</fix>
</trkpt>
<trkpt lat="40.0710825" lon="-105.2306506">
  <ele>1583.03</ele>
  <time>2026-08-28T17:54:56Z</time>
  <course>67.02</course>
  <speed>4.979317222270539</speed>
  <fix>3d</fix>
</trkpt>
<trkpt lat="40.0710785" lon="-105.230663">
  <ele>1583.0</ele>
  <time>2026-08-28T17:54:56Z</time>
  <course>66.07</course>
  <speed>5.0</speed>
  <fix>3d</fix>
</trkpt>
<trkpt lat="40.0710843" lon="-105.2306452">
  <ele>1583.03</ele>
  <time>2026-08-28T17:54:56Z</time>
  <course>67.02</course>
  <speed>4.979317222270539</speed>
  <fix>3d</fix>
</trkpt>
<trkpt lat="40.0710821" lon="-105.2306523">
  <ele>1583.0</ele>
  <time>2026-08-28T17:54:56Z</time>
  <course>66.07</course>
  <speed>5.0</speed>
  <fix>3d</fix>
</trkpt>
<trkpt lat="40.0710862" lon="-105.2306398">
  <ele>1583.03</ele>
  <time>2026-08-28T17:54:56Z</time>
  <course>67.02</course>
  <speed>4.979317222270539</speed>
  <fix>3d</fix>
</trkpt>
<trkpt lat="40.0710821" lon="-105.2306523">
  <ele>1583.0</ele>
  <time>2026-08-28T17:54:56Z</time>
  <course>66.07</course>
  <speed>5.0</speed>
  <fix>3d</fix>
</trkpt>
<trkpt lat="40.071088" lon="-105.2306344">
  <ele>1583.03</ele>
  <time>2026-08-28T17:54:56Z</time>
  <course>67.02</course>
  <speed>4.979317222270539</speed>
  <fix>3d</fix>
</trkpt>
<trkpt lat="40.0710821" lon="-105.2306523">
  <ele>1583.0</ele>
  <time>2026-08-28T17:54:56Z</time>
  <course>66.07</course>
  <speed>5.0</speed>
  <fix>3d</fix>
</trkpt>
<trkpt lat="40.0710898" lon="-105.2306291">
  <ele>1583.03</ele>
  <time>2026-08-28T17:54:56Z</time>
  <course>67.02</course>
  <speed>4.970160963188214</speed>
  <fix>3d</fix>
</trkpt>
<trkpt lat="40.0710858" lon="-105.2306415">
  <ele>1583.0</ele>
  <time>2026-08-28T17:54:56Z</time>
  <course>66.07</course>
  <speed>4.99</speed>
  <fix>3d</fix>
</trkpt>
<trkpt lat="40.0710916" lon="-105.2306237">
  <ele>1583.03</ele>
  <time>2026-08-28T17:54:56Z</time>
  <course>67.02</course>
  <speed>4.970160963188214</speed>
  <fix>3d</fix>
</trkpt>
<trkpt lat="40.0710858" lon="-105.2306415">
  <ele>1583.0</ele>
  <time>2026-08-28T17:54:56Z</time>
  <course>66.07</course>
  <speed>4.99</speed>
  <fix>3d</fix>
</trkpt>
<trkpt lat="40.0710934" lon="-105.2306184">
  <ele>1583.03</ele>
  <time>2026-08-28T17:54:56Z</time>
  <course>67.02</course>
  <speed>4.966145386514575</speed>
  <fix>3d</fix>
</trkpt>
<trkpt lat="40.0710894" lon="-105.2306308">
  <ele>1583.0</ele>
  <time>2026-08-28T17:54:56Z</time>
  <course>66.07</course>
  <speed>4.99</speed>
  <fix>3d</fix>
</trkpt>
<trkpt lat="40.0710952" lon="-105.2306131">
  <ele>1583.03</ele>
  <time>2026-08-28T17:54:56Z</time>
  <course>67.02</course>
  <speed>4.966145386514575</speed>
  <fix>3d</fix>
</trkpt>
<trkpt lat="40.0710894" lon="-105.2306308">
  <ele>1583.0</ele>
  <time>2026-08-28T17:54:56Z</time>
  <course>66.07</course>
  <speed>4.99</speed>
  <fix>3d</fix>
</trkpt>
<trkpt lat="40.071097" lon="-105.2306078">
  <ele>1583.03</ele>
  <time>2026-08-28T17:54:56Z</time>
  <course>67.02</course>
  <speed>4.966145386514575</speed>
  <fix>3d</fix>
</trkpt>
<trkpt lat="40.0710931" lon="-105.2306201">
  <ele>1583.0</ele>
  <time>2026-08-28T17:54:56Z</time>
  <course>66.07</course>
  <speed>4.99</speed>
  <fix>3d</fix>
</trkpt>
<trkpt lat="40.0710988" lon="-105.2306025">
  <ele>1583.03</ele>
  <time>2026-08-28T17:54:56Z</time>
  <course>67.02</course>
  <speed>4.956984970725653</speed>
  <fix>3d</fix>
</trkpt>
<trkpt lat="40.0710967" lon="-105.2306094">
  <ele>1583.0</ele>
  <time>2026-08-28T17:54:56Z</time>
  <course>66.07</course>
  <speed>4.99</speed>
  <fix>3d</fix>
</trkpt>
<trkpt lat="40.0711007" lon="-105.2305971">
  <ele>1583.03</ele>
  <time>2026-08-28T17:54:56Z</time>
  <course>67.02</course>
  <speed>4.956984970725653</speed>
  <fix>3d</fix>
</trkpt>
<trkpt lat="40.0710967" lon="-105.2306094">
  <ele>1583.0</ele>
  <time>2026-08-28T17:54:56Z</time>
  <course>66.07</course>
  <speed>4.99</speed>
  <fix>3d</fix>
</trkpt>
<trkpt lat="40.0711025" lon="-105.2305918">
  <ele>1583.03</ele>
  <time>2026-08-28T17:54:56Z</time>
  <course>67.02</course>
  <speed>4.956984970725653</speed>
  <fix>3d</fix>
</trkpt>
<trkpt lat="40.0711003" lon="-105.2305987">
  <ele>1583.0</ele>
  <time>2026-08-28T17:54:56Z</time>
  <course>66.07</course>
  <speed>4.99</speed>
  <fix>3d</fix>
</trkpt>
<trkpt lat="40.0711043" lon="-105.2305865">
  <ele>1583.03</ele>
  <time>2026-08-28T17:54:56Z</time>
  <course>67.02</course>
  <speed>4.966145386514575</speed>
  <fix>3d</fix>
</trkpt>
<trkpt lat="40.0711003" lon="-105.2305987">
  <ele>1583.0</ele>
  <time>2026-08-28T17:54:56Z</time>
  <course>66.07</course>
  <speed>4.99</speed>
  <fix>3d</fix>
</trkpt>
<trkpt lat="40.0711061" lon="-105.2305811">
  <ele>1583.02</ele>
  <time>2026-08-28T17:54:56Z</time>
  <course>67.02</course>
  <speed>4.966145386514575</speed>
  <fix>3d</fix>
</trkpt>
<trkpt lat="40.071104" lon="-105.230588">
  <ele>1583.0</ele>
  <time>2026-08-28T17:54:56Z</time>
  <course>66.07</course>
  <speed>4.99</speed>
  <fix>3d</fix>
</trkpt>
<trkpt lat="40.0711079" lon="-105.2305757">
  <ele>1583.02</ele>
  <time>2026-08-28T17:54:56Z</time>
  <course>67.02</course>
  <speed>4.970160963188214</speed>
  <fix>3d</fix>
</trkpt>
<trkpt lat="40.071104" lon="-105.230588">
  <ele>1583.0</ele>
  <time>2026-08-28T17:54:56Z</time>
  <course>66.07</course>
  <speed>4.99</speed>
  <fix>3d</fix>
</trkpt>
<trkpt lat="40.0711098" lon="-105.2305703">
  <ele>1583.01</ele>
  <time>2026-08-28T17:54:56Z</time>
  <course>67.02</course>
  <speed>4.970160963188214</speed>
  <fix>3d</fix>
</trkpt>
<trkpt lat="40.0711076" lon="-105.2305772">
  <ele>1583.0</ele>
  <time>2026-08-28T17:54:56Z</time>
  <course>66.07</course>
  <speed>4.99</speed>
  <fix>3d</fix>
</trkpt>
<trkpt lat="40.0711116" lon="-105.2305649">
  <ele>1583.01</ele>
  <time>2026-08-28T17:54:56Z</time>
  <course>67.02</course>
  <speed>4.970160963188214</speed>
  <fix>3d</fix>
</trkpt>
<trkpt lat="40.0711076" lon="-105.2305772">
  <ele>1583.0</ele>
  <time>2026-08-28T17:54:56Z</time>
  <course>66.07</course>
  <speed>4.99</speed>
  <fix>3d</fix>
</trkpt>
<trkpt lat="40.0711134" lon="-105.2305595">
  <ele>1583.01</ele>
  <time>2026-08-28T17:54:56Z</time>
  <course>67.02</course>
  <speed>4.970160963188214</speed>
  <fix>3d</fix>
</trkpt>
<trkpt lat="40.0711113" lon="-105.2305665">
  <ele>1583.0</ele>
  <time>2026-08-28T17:54:56Z</time>
  <course>66.07</course>
  <speed>4.99</speed>
  <fix>3d</fix>
</trkpt>
<trkpt lat="40.0711153" lon="-105.2305541">
  <ele>1583.0</ele>
  <time>2026-08-28T17:54:56Z</time>
  <course>67.02</course>
  <speed>4.970160963188214</speed>
  <fix>3d</fix>
</trkpt>
<trkpt lat="40.0711113" lon="-105.2305665">
  <ele>1583.0</ele>
  <time>2026-08-28T17:54:56Z</time>
  <course>66.07</course>
  <speed>4.99</speed>
  <fix>3d</fix>
</trkpt>
<trkpt lat="40.0711171" lon="-105.2305487">
  <ele>1583.0</ele>
  <time>2026-08-28T17:54:56Z</time>
  <course>67.02</course>
  <speed>4.979317222270539</speed>
  <fix>3d</fix>
</trkpt>
<trkpt lat="40.0711149" lon="-105.2305558">
  <ele>1583.0</ele>
  <time>2026-08-28T17:54:56Z</time>
  <course>66.07</course>
  <speed>4.99</speed>
  <fix>3d</fix>
</trkpt>
<trkpt lat="40.0711189" lon="-105.2305433">
  <ele>1583.0</ele>
  <time>2026-08-28T17:54:56Z</time>
  <course>67.02</course>
  <speed>4.979317222270539</speed>
  <fix>3d</fix>
</trkpt>
<trkpt lat="40.0711149" lon="-105.2305558">
  <ele>1583.0</ele>
  <time>2026-08-28T17:54:56Z</time>
  <course>66.07</course>
  <speed>4.99</speed>
  <fix>3d</fix>
</trkpt>
<trkpt lat="40.0711208" lon="-105.2305379">
  <ele>1583.01</ele>
  <time>2026-08-28T17:54:56Z</time>
  <course>67.02</course>
  <speed>4.979317222270539</speed>
  <fix>3d</fix>
</trkpt>
<trkpt lat="40.0711185" lon="-105.2305451">
  <ele>1583.0</ele>
  <time>2026-08-28T17:54:56Z</time>
  <course>66.07</course>
  <speed>4.99</speed>
  <fix>3d</fix>
</trkpt>
<trkpt lat="40.0711226" lon="-105.2305325">
  <ele>1583.01</ele>
  <time>2026-08-28T17:54:56Z</time>
  <course>67.02</course>
  <speed>4.979317222270539</speed>
  <fix>3d</fix>
</trkpt>
<trkpt lat="40.0711185" lon="-105.2305451">
  <ele>1583.0</ele>
  <time>2026-08-28T17:54:56Z</time>
  <course>66.07</course>
  <speed>4.99</speed>
  <fix>3d</fix>
</trkpt>
<trkpt lat="40.0711244" lon="-105.2305272">
  <ele>1583.0</ele>
  <time>2026-08-28T17:54:57Z</time>
  <course>67.02</course>
  <speed>4.979317222270539</speed>
  <fix>3d</fix>
</trkpt>
<trkpt lat="40.0711185" lon="-105.2305451">
  <ele>1583.0</ele>
  <time>2026-08-28T17:54:57Z</time>
  <course>66.07</course>
  <speed>4.99</speed>
  <fix>3d</fix>
</trkpt>
<trkpt lat="40.0711262" lon="-105.2305218">
  <ele>1583.0</ele>
  <time>2026-08-28T17:54:57Z</time>
  <course>67.02</course>
  <speed>4.970160963188214</speed>
  <fix>3d</fix>
</trkpt>
<trkpt lat="40.0711222" lon="-105.2305343">
  <ele>1583.0</ele>
  <time>2026-08-28T17:54:57Z</time>
  <course>66.07</course>
  <speed>4.99</speed>
  <fix>3d</fix>
</trkpt>
<trkpt lat="40.071128" lon="-105.2305165">
  <ele>1583.0</ele>
  <time>2026-08-28T17:54:57Z</time>
  <course>67.02</course>
  <speed>4.970160963188214</speed>
  <fix>3d</fix>
</trkpt>
<trkpt lat="40.0711222" lon="-105.2305343">
  <ele>1583.0</ele>
  <time>2026-08-28T17:54:57Z</time>
  <course>66.07</course>
  <speed>4.99</speed>
  <fix>3d</fix>
</trkpt>
<trkpt lat="40.0711298" lon="-105.2305112">
  <ele>1583.0</ele>
  <time>2026-08-28T17:54:57Z</time>
  <course>67.02</course>
  <speed>4.970160963188214</speed>
  <fix>3d</fix>
</trkpt>
<trkpt lat="40.0711258" lon="-105.2305236">
  <ele>1583.0</ele>
  <time>2026-08-28T17:54:57Z</time>
  <course>66.07</course>
  <speed>4.99</speed>
  <fix>3d</fix>
</trkpt>
<trkpt lat="40.0711316" lon="-105.2305059">
  <ele>1583.0</ele>
  <time>2026-08-28T17:54:57Z</time>
  <course>67.02</course>
  <speed>4.970160963188214</speed>
  <fix>3d</fix>
</trkpt>
<trkpt lat="40.0711258" lon="-105.2305236">
  <ele>1583.0</ele>
  <time>2026-08-28T17:54:57Z</time>
  <course>66.07</course>
  <speed>4.99</speed>
  <fix>3d</fix>
</trkpt>
<trkpt lat="40.0711334" lon="-105.2305006">
  <ele>1583.01</ele>
  <time>2026-08-28T17:54:57Z</time>
  <course>67.02</course>
  <speed>4.966145386514575</speed>
  <fix>3d</fix>
</trkpt>
<trkpt lat="40.0711295" lon="-105.2305129">
  <ele>1583.0</ele>
  <time>2026-08-28T17:54:57Z</time>
  <course>66.07</course>
  <speed>4.99</speed>
  <fix>3d</fix>
</trkpt>
<trkpt lat="40.0711352" lon="-105.2304953">
  <ele>1583.01</ele>
  <time>2026-08-28T17:54:57Z</time>
  <course>67.02</course>
  <speed>4.956984970725653</speed>
  <fix>3d</fix>
</trkpt>
<trkpt lat="40.0711295" lon="-105.2305129">
  <ele>1583.0</ele>
  <time>2026-08-28T17:54:57Z</time>
  <course>66.07</course>
  <speed>4.99</speed>
  <fix>3d</fix>
</trkpt>
<trkpt lat="40.0711371" lon="-105.2304899">
  <ele>1583.01</ele>
  <time>2026-08-28T17:54:57Z</time>
  <course>67.02</course>
  <speed>4.956984970725653</speed>
  <fix>3d</fix>
</trkpt>
<trkpt lat="40.0711331" lon="-105.2305022">
  <ele>1583.0</ele>
  <time>2026-08-28T17:54:57Z</time>
  <course>66.07</course>
  <speed>4.99</speed>
  <fix>3d</fix>
</trkpt>
<trkpt lat="40.0711389" lon="-105.2304846">
  <ele>1583.01</ele>
  <time>2026-08-28T17:54:57Z</time>
  <course>67.02</course>
  <speed>4.956984970725653</speed>
  <fix>3d</fix>
</trkpt>
<trkpt lat="40.0711367" lon="-105.2304915">
  <ele>1583.0</ele>
  <time>2026-08-28T17:54:57Z</time>
  <course>66.07</course>
  <speed>4.99</speed>
  <fix>3d</fix>
</trkpt>
<trkpt lat="40.0711407" lon="-105.2304793">
  <ele>1583.01</ele>
  <time>2026-08-28T17:54:57Z</time>
  <course>67.02</course>
  <speed>4.966145386514575</speed>
  <fix>3d</fix>
</trkpt>
<trkpt lat="40.0711367" lon="-105.2304915">
  <ele>1583.0</ele>
  <time>2026-08-28T17:54:57Z</time>
  <course>66.07</course>
  <speed>4.99</speed>
  <fix>3d</fix>
</trkpt>
<trkpt lat="40.0711425" lon="-105.230474">
  <ele>1583.01</ele>
  <time>2026-08-28T17:54:57Z</time>
  <course>67.02</course>
  <speed>4.970160963188214</speed>
  <fix>3d</fix>
</trkpt>
<trkpt lat="40.0711404" lon="-105.2304807">
  <ele>1583.0</ele>
  <time>2026-08-28T17:54:57Z</time>
  <course>66.07</course>
  <speed>5.0</speed>
  <fix>3d</fix>
</trkpt>
<trkpt lat="40.0711443" lon="-105.2304686">
  <ele>1583.01</ele>
  <time>2026-08-28T17:54:57Z</time>
  <course>67.02</course>
  <speed>4.970160963188214</speed>
  <fix>3d</fix>
</trkpt>
<trkpt lat="40.0711404" lon="-105.2304807">
  <ele>1583.0</ele>
  <time>2026-08-28T17:54:57Z</time>
  <course>66.07</course>
  <speed>5.0</speed>
  <fix>3d</fix>
</trkpt>
<trkpt lat="40.0711461" lon="-105.2304632">
  <ele>1583.01</ele>
  <time>2026-08-28T17:54:57Z</time>
  <course>67.02</course>
  <speed>4.970160963188214</speed>
  <fix>3d</fix>
</trkpt>
<trkpt lat="40.071144" lon="-105.23047">
  <ele>1583.0</ele>
  <time>2026-08-28T17:54:57Z</time>
  <course>66.07</course>
  <speed>5.0</speed>
  <fix>3d</fix>
</trkpt>
<trkpt lat="40.071148" lon="-105.2304578">
  <ele>1583.01</ele>
  <time>2026-08-28T17:54:57Z</time>
  <course>67.02</course>
  <speed>4.979317222270539</speed>
  <fix>3d</fix>
</trkpt>
<trkpt lat="40.071144" lon="-105.23047">
  <ele>1583.0</ele>
  <time>2026-08-28T17:54:57Z</time>
  <course>66.07</course>
  <speed>5.0</speed>
  <fix>3d</fix>
</trkpt>
<trkpt lat="40.0711498" lon="-105.2304524">
  <ele>1583.01</ele>
  <time>2026-08-28T17:54:57Z</time>
  <course>67.02</course>
  <speed>4.979317222270539</speed>
  <fix>3d</fix>
</trkpt>
<trkpt lat="40.0711477" lon="-105.2304593">
  <ele>1583.0</ele>
  <time>2026-08-28T17:54:57Z</time>
  <course>66.07</course>
  <speed>5.0</speed>
  <fix>3d</fix>
</trkpt>
<trkpt lat="40.0711517" lon="-105.230447">
  <ele>1583.01</ele>
  <time>2026-08-28T17:54:57Z</time>
  <course>67.02</course>
  <speed>4.979317222270539</speed>
  <fix>3d</fix>
</trkpt>
<trkpt lat="40.0711477" lon="-105.2304593">
  <ele>1583.0</ele>
  <time>2026-08-28T17:54:57Z</time>
  <course>66.07</course>
  <speed>5.0</speed>
  <fix>3d</fix>
</trkpt>
<trkpt lat="40.0711535" lon="-105.2304416">
  <ele>1583.01</ele>
  <time>2026-08-28T17:54:57Z</time>
  <course>67.02</course>
  <speed>4.979317222270539</speed>
  <fix>3d</fix>
</trkpt>
<trkpt lat="40.0711513" lon="-105.2304485">
  <ele>1583.0</ele>
  <time>2026-08-28T17:54:57Z</time>
  <course>66.07</course>
  <speed>5.0</speed>
  <fix>3d</fix>
</trkpt>
<trkpt lat="40.0711553" lon="-105.2304361">
  <ele>1583.01</ele>
  <time>2026-08-28T17:54:57Z</time>
  <course>67.02</course>
  <speed>4.979317222270539</speed>
  <fix>3d</fix>
</trkpt>
<trkpt lat="40.0711513" lon="-105.2304485">
  <ele>1583.0</ele>
  <time>2026-08-28T17:54:57Z</time>
  <course>66.07</course>
  <speed>5.0</speed>
  <fix>3d</fix>
</trkpt>
<trkpt lat="40.0711572" lon="-105.2304307">
  <ele>1583.02</ele>
  <time>2026-08-28T17:54:57Z</time>
  <course>67.02</course>
  <speed>4.979317222270539</speed>
  <fix>3d</fix>
</trkpt>
<trkpt lat="40.071155" lon="-105.2304378">
  <ele>1583.0</ele>
  <time>2026-08-28T17:54:57Z</time>
  <course>66.07</course>
  <speed>5.0</speed>
  <fix>3d</fix>
</trkpt>
<trkpt lat="40.071159" lon="-105.2304253">
  <ele>1583.02</ele>
  <time>2026-08-28T17:54:57Z</time>
  <course>67.02</course>
  <speed>4.979317222270539</speed>
  <fix>3d</fix>
</trkpt>
<trkpt lat="40.071155" lon="-105.2304378">
  <ele>1583.0</ele>
  <time>2026-08-28T17:54:57Z</time>
  <course>66.07</course>
  <speed>5.0</speed>
  <fix>3d</fix>
</trkpt>
<trkpt lat="40.0711608" lon="-105.2304199">
  <ele>1583.02</ele>
  <time>2026-08-28T17:54:57Z</time>
  <course>67.02</course>
  <speed>4.979317222270539</speed>
  <fix>3d</fix>
</trkpt>
<trkpt lat="40.0711586" lon="-105.230427">
  <ele>1583.0</ele>
  <time>2026-08-28T17:54:57Z</time>
  <course>66.07</course>
  <speed>5.0</speed>
  <fix>3d</fix>
</trkpt>
<trkpt lat="40.0711627" lon="-105.2304145">
  <ele>1583.02</ele>
  <time>2026-08-28T17:54:57Z</time>
  <course>67.02</course>
  <speed>4.979317222270539</speed>
  <fix>3d</fix>
</trkpt>
<trkpt lat="40.0711586" lon="-105.230427">
  <ele>1583.0</ele>
  <time>2026-08-28T17:54:57Z</time>
  <course>66.07</course>
  <speed>5.0</speed>
  <fix>3d</fix>
</trkpt>
<trkpt lat="40.0711645" lon="-105.2304092">
  <ele>1583.02</ele>
  <time>2026-08-28T17:54:57Z</time>
  <course>67.02</course>
  <speed>4.979317222270539</speed>
  <fix>3d</fix>
</trkpt>
<trkpt lat="40.0711586" lon="-105.230427">
  <ele>1583.0</ele>
  <time>2026-08-28T17:54:57Z</time>
  <course>66.07</course>
  <speed>5.0</speed>
  <fix>3d</fix>
</trkpt>
<trkpt lat="40.0711663" lon="-105.2304038">
  <ele>1583.02</ele>
  <time>2026-08-28T17:54:57Z</time>
  <course>67.02</course>
  <speed>4.979317222270539</speed>
  <fix>3d</fix>
</trkpt>
<trkpt lat="40.0711623" lon="-105.2304163">
  <ele>1583.0</ele>
  <time>2026-08-28T17:54:57Z</time>
  <course>66.07</course>
  <speed>5.0</speed>
  <fix>3d</fix>
</trkpt>
<trkpt lat="40.0711681" lon="-105.2303985">
  <ele>1583.02</ele>
  <time>2026-08-28T17:54:57Z</time>
  <course>67.02</course>
  <speed>4.970160963188214</speed>
  <fix>3d</fix>
</trkpt>
<trkpt lat="40.0711623" lon="-105.2304163">
  <ele>1583.0</ele>
  <time>2026-08-28T17:54:57Z</time>
  <course>66.07</course>
  <speed>5.0</speed>
  <fix>3d</fix>
</trkpt>
<trkpt lat="40.0711699" lon="-105.2303932">
  <ele>1583.02</ele>
  <time>2026-08-28T17:54:57Z</time>
  <course>67.02</course>
  <speed>4.970160963188214</speed>
  <fix>3d</fix>
</trkpt>
<trkpt lat="40.0711659" lon="-105.2304055">
  <ele>1583.0</ele>
  <time>2026-08-28T17:54:57Z</time>
  <course>66.07</course>
  <speed>4.99</speed>
  <fix>3d</fix>
</trkpt>
<trkpt lat="40.0711717" lon="-105.2303878">
  <ele>1583.02</ele>
  <time>2026-08-28T17:54:57Z</time>
  <course>67.02</course>
  <speed>4.970160963188214</speed>
  <fix>3d</fix>
</trkpt>
<trkpt lat="40.0711659" lon="-105.2304055">
  <ele>1583.0</ele>
  <time>2026-08-28T17:54:57Z</time>
  <course>66.07</course>
  <speed>4.99</speed>
  <fix>3d</fix>
</trkpt>
<trkpt lat="40.0711735" lon="-105.2303825">
  <ele>1583.02</ele>
  <time>2026-08-28T17:54:57Z</time>
  <course>67.02</course>
  <speed>4.970160963188214</speed>
  <fix>3d</fix>
</trkpt>
<trkpt lat="40.0711696" lon="-105.2303948">
  <ele>1583.0</ele>
  <time>2026-08-28T17:54:57Z</time>
  <course>66.07</course>
  <speed>4.99</speed>
  <fix>3d</fix>
</trkpt>
<trkpt lat="40.0711754" lon="-105.2303772">
  <ele>1583.02</ele>
  <time>2026-08-28T17:54:57Z</time>
  <course>67.02</course>
  <speed>4.966145386514575</speed>
  <fix>3d</fix>
</trkpt>
<trkpt lat="40.0711731" lon="-105.2303841">
  <ele>1583.0</ele>
  <time>2026-08-28T17:54:57Z</time>
  <course>66.07</course>
  <speed>4.99</speed>
  <fix>3d</fix>
</trkpt>
<trkpt lat="40.0711772" lon="-105.2303718">
  <ele>1583.02</ele>
  <time>2026-08-28T17:54:57Z</time>
  <course>67.02</course>
  <speed>4.970160963188214</speed>
  <fix>3d</fix>
</trkpt>
<trkpt lat="40.0711731" lon="-105.2303841">
  <ele>1583.0</ele>
  <time>2026-08-28T17:54:57Z</time>
  <course>66.07</course>
  <speed>4.99</speed>
  <fix>3d</fix>
</trkpt>
<trkpt lat="40.071179" lon="-105.2303665">
  <ele>1583.02</ele>
  <time>2026-08-28T17:54:57Z</time>
  <course>67.02</course>
  <speed>4.966145386514575</speed>
  <fix>3d</fix>
</trkpt>
<trkpt lat="40.0711768" lon="-105.2303733">
  <ele>1583.0</ele>
  <time>2026-08-28T17:54:57Z</time>
  <course>66.07</course>
  <speed>4.99</speed>
  <fix>3d</fix>
</trkpt>
<trkpt lat="40.0711808" lon="-105.2303612">
  <ele>1583.02</ele>
  <time>2026-08-28T17:54:57Z</time>
  <course>67.02</course>
  <speed>4.970160963188214</speed>
  <fix>3d</fix>
</trkpt>
<trkpt lat="40.0711768" lon="-105.2303733">
  <ele>1583.0</ele>
  <time>2026-08-28T17:54:57Z</time>
  <course>66.07</course>
  <speed>4.99</speed>
  <fix>3d</fix>
</trkpt>
<trkpt lat="40.0711826" lon="-105.2303558">
  <ele>1583.02</ele>
  <time>2026-08-28T17:54:57Z</time>
  <course>67.02</course>
  <speed>4.970160963188214</speed>
  <fix>3d</fix>
</trkpt>
<trkpt lat="40.0711804" lon="-105.2303626">
  <ele>1583.0</ele>
  <time>2026-08-28T17:54:57Z</time>
  <course>66.07</course>
  <speed>4.99</speed>
  <fix>3d</fix>
</trkpt>
<trkpt lat="40.0711844" lon="-105.2303504">
  <ele>1583.02</ele>
  <time>2026-08-28T17:54:57Z</time>
  <course>67.02</course>
  <speed>4.970160963188214</speed>
  <fix>3d</fix>
</trkpt>
<trkpt lat="40.0711804" lon="-105.2303626">
  <ele>1583.0</ele>
  <time>2026-08-28T17:54:57Z</time>
  <course>66.07</course>
  <speed>4.99</speed>
  <fix>3d</fix>
</trkpt>
<trkpt lat="40.0711863" lon="-105.230345">
  <ele>1583.02</ele>
  <time>2026-08-28T17:54:57Z</time>
  <course>67.02</course>
  <speed>4.970160963188214</speed>
  <fix>3d</fix>
</trkpt>
<trkpt lat="40.0711841" lon="-105.2303519">
  <ele>1583.0</ele>
  <time>2026-08-28T17:54:57Z</time>
  <course>66.07</course>
  <speed>4.99</speed>
  <fix>3d</fix>
</trkpt>
<trkpt lat="40.0711881" lon="-105.2303396">
  <ele>1583.02</ele>
  <time>2026-08-28T17:54:57Z</time>
  <course>67.02</course>
  <speed>4.970160963188214</speed>
  <fix>3d</fix>
</trkpt>
<trkpt lat="40.0711841" lon="-105.2303519">
  <ele>1583.0</ele>
  <time>2026-08-28T17:54:57Z</time>
  <course>66.07</course>
  <speed>4.99</speed>
  <fix>3d</fix>
</trkpt>
<trkpt lat="40.0711899" lon="-105.2303342">
  <ele>1583.02</ele>
  <time>2026-08-28T17:54:57Z</time>
  <course>67.02</course>
  <speed>4.970160963188214</speed>
  <fix>3d</fix>
</trkpt>
<trkpt lat="40.0711878" lon="-105.2303412">
  <ele>1583.0</ele>
  <time>2026-08-28T17:54:57Z</time>
  <course>66.07</course>
  <speed>4.99</speed>
  <fix>3d</fix>
</trkpt>
<trkpt lat="40.0711918" lon="-105.2303288">
  <ele>1583.02</ele>
  <time>2026-08-28T17:54:57Z</time>
  <course>67.02</course>
  <speed>4.979317222270539</speed>
  <fix>3d</fix>
</trkpt>
<trkpt lat="40.0711878" lon="-105.2303412">
  <ele>1583.0</ele>
  <time>2026-08-28T17:54:57Z</time>
  <course>66.07</course>
  <speed>4.99</speed>
  <fix>3d</fix>
</trkpt>
<trkpt lat="40.0711936" lon="-105.2303234">
  <ele>1583.02</ele>
  <time>2026-08-28T17:54:57Z</time>
  <course>67.02</course>
  <speed>4.979317222270539</speed>
  <fix>3d</fix>
</trkpt>
<trkpt lat="40.0711913" lon="-105.2303305">
  <ele>1583.0</ele>
  <time>2026-08-28T17:54:57Z</time>
  <course>66.07</course>
  <speed>4.99</speed>
  <fix>3d</fix>
</trkpt>
<trkpt lat="40.0711954" lon="-105.230318">
  <ele>1583.02</ele>
  <time>2026-08-28T17:54:57Z</time>
  <course>67.02</course>
  <speed>4.979317222270539</speed>
  <fix>3d</fix>
</trkpt>
<trkpt lat="40.0711913" lon="-105.2303305">
  <ele>1583.0</ele>
  <time>2026-08-28T17:54:57Z</time>
  <course>66.07</course>
  <speed>4.99</speed>
  <fix>3d</fix>
</trkpt>
<trkpt lat="40.0711972" lon="-105.2303126">
  <ele>1583.02</ele>
  <time>2026-08-28T17:54:58Z</time>
  <course>67.02</course>
  <speed>4.979317222270539</speed>
  <fix>3d</fix>
</trkpt>
<trkpt lat="40.071195" lon="-105.2303197">
  <ele>1583.0</ele>
  <time>2026-08-28T17:54:58Z</time>
  <course>66.07</course>
  <speed>4.99</speed>
  <fix>3d</fix>
</trkpt>
<trkpt lat="40.0711991" lon="-105.2303072">
  <ele>1583.02</ele>
  <time>2026-08-28T17:54:58Z</time>
  <course>67.02</course>
  <speed>4.979317222270539</speed>
  <fix>3d</fix>
</trkpt>
<trkpt lat="40.071195" lon="-105.2303197">
  <ele>1583.0</ele>
  <time>2026-08-28T17:54:58Z</time>
  <course>66.07</course>
  <speed>4.99</speed>
  <fix>3d</fix>
</trkpt>
<trkpt lat="40.0712009" lon="-105.2303018">
  <ele>1583.01</ele>
  <time>2026-08-28T17:54:58Z</time>
  <course>67.02</course>
  <speed>4.979317222270539</speed>
  <fix>3d</fix>
</trkpt>
<trkpt lat="40.071195" lon="-105.2303197">
  <ele>1583.0</ele>
  <time>2026-08-28T17:54:58Z</time>
  <course>66.07</course>
  <speed>4.99</speed>
  <fix>3d</fix>
</trkpt>
<trkpt lat="40.0712027" lon="-105.2302965">
  <ele>1583.02</ele>
  <time>2026-08-28T17:54:58Z</time>
  <course>67.02</course>
  <speed>4.970160963188214</speed>
  <fix>3d</fix>
</trkpt>
<trkpt lat="40.0711986" lon="-105.230309">
  <ele>1583.0</ele>
  <time>2026-08-28T17:54:58Z</time>
  <course>66.07</course>
  <speed>4.99</speed>
  <fix>3d</fix>
</trkpt>
<trkpt lat="40.0712045" lon="-105.2302912">
  <ele>1583.02</ele>
  <time>2026-08-28T17:54:58Z</time>
  <course>67.02</course>
  <speed>4.970160963188214</speed>
  <fix>3d</fix>
</trkpt>
<trkpt lat="40.0711986" lon="-105.230309">
  <ele>1583.0</ele>
  <time>2026-08-28T17:54:58Z</time>
  <course>66.07</course>
  <speed>4.99</speed>
  <fix>3d</fix>
</trkpt>
<trkpt lat="40.0712063" lon="-105.2302859">
  <ele>1583.02</ele>
  <time>2026-08-28T17:54:58Z</time>
  <course>67.02</course>
  <speed>4.970160963188214</speed>
  <fix>3d</fix>
</trkpt>
<trkpt lat="40.0712023" lon="-105.2302983">
  <ele>1583.0</ele>
  <time>2026-08-28T17:54:58Z</time>
  <course>66.07</course>
  <speed>4.99</speed>
  <fix>3d</fix>
</trkpt>
<trkpt lat="40.0712081" lon="-105.2302806">
  <ele>1583.02</ele>
  <time>2026-08-28T17:54:58Z</time>
  <course>67.02</course>
  <speed>4.966145386514575</speed>
  <fix>3d</fix>
</trkpt>
<trkpt lat="40.0712023" lon="-105.2302983">
  <ele>1583.0</ele>
  <time>2026-08-28T17:54:58Z</time>
  <course>66.07</course>
  <speed>4.99</speed>
  <fix>3d</fix>
</trkpt>
<trkpt lat="40.0712099" lon="-105.2302753">
  <ele>1583.02</ele>
  <time>2026-08-28T17:54:58Z</time>
  <course>67.02</course>
  <speed>4.966145386514575</speed>
  <fix>3d</fix>
</trkpt>
<trkpt lat="40.0712059" lon="-105.2302876">
  <ele>1583.0</ele>
  <time>2026-08-28T17:54:58Z</time>
  <course>66.07</course>
  <speed>4.99</speed>
  <fix>3d</fix>
</trkpt>
<trkpt lat="40.0712117" lon="-105.2302699">
  <ele>1583.02</ele>
  <time>2026-08-28T17:54:58Z</time>
  <course>67.02</course>
  <speed>4.956984970725653</speed>
  <fix>3d</fix>
</trkpt>
<trkpt lat="40.0712095" lon="-105.2302768">
  <ele>1583.0</ele>
  <time>2026-08-28T17:54:58Z</time>
  <course>66.07</course>
  <speed>4.99</speed>
  <fix>3d</fix>
</trkpt>
<trkpt lat="40.0712135" lon="-105.2302646">
  <ele>1583.02</ele>
  <time>2026-08-28T17:54:58Z</time>
  <course>67.02</course>
  <speed>4.966145386514575</speed>
  <fix>3d</fix>
</trkpt>
<trkpt lat="40.0712095" lon="-105.2302768">
  <ele>1583.0</ele>
  <time>2026-08-28T17:54:58Z</time>
  <course>66.07</course>
  <speed>4.99</speed>
  <fix>3d</fix>
</trkpt>
<trkpt lat="40.0712153" lon="-105.2302592">
  <ele>1583.02</ele>
  <time>2026-08-28T17:54:58Z</time>
  <course>67.02</course>
  <speed>4.966145386514575</speed>
  <fix>3d</fix>
</trkpt>
<trkpt lat="40.0712132" lon="-105.2302661">
  <ele>1583.0</ele>
  <time>2026-08-28T17:54:58Z</time>
  <course>66.07</course>
  <speed>4.99</speed>
  <fix>3d</fix>
</trkpt>
<trkpt lat="40.0712172" lon="-105.2302539">
  <ele>1583.02</ele>
  <time>2026-08-28T17:54:58Z</time>
  <course>67.02</course>
  <speed>4.970160963188214</speed>
  <fix>3d</fix>
</trkpt>
<trkpt lat="40.0712132" lon="-105.2302661">
  <ele>1583.0</ele>
  <time>2026-08-28T17:54:58Z</time>
  <course>66.07</course>
  <speed>4.99</speed>
  <fix>3d</fix>
</trkpt>
<trkpt lat="40.071219" lon="-105.2302485">
  <ele>1583.02</ele>
  <time>2026-08-28T17:54:58Z</time>
  <course>67.02</course>
  <speed>4.970160963188214</speed>
  <fix>3d</fix>
</trkpt>
<trkpt lat="40.0712168" lon="-105.2302554">
  <ele>1583.0</ele>
  <time>2026-08-28T17:54:58Z</time>
  <course>66.07</course>
  <speed>5.0</speed>
  <fix>3d</fix>
</trkpt>
<trkpt lat="40.0712208" lon="-105.2302431">
  <ele>1583.01</ele>
  <time>2026-08-28T17:54:58Z</time>
  <course>67.02</course>
  <speed>4.970160963188214</speed>
  <fix>3d</fix>
</trkpt>
<trkpt lat="40.0712168" lon="-105.2302554">
  <ele>1583.0</ele>
  <time>2026-08-28T17:54:58Z</time>
  <course>66.07</course>
  <speed>5.0</speed>
  <fix>3d</fix>
</trkpt>
<trkpt lat="40.0712226" lon="-105.2302377">
  <ele>1583.01</ele>
  <time>2026-08-28T17:54:58Z</time>
  <course>67.02</course>
  <speed>4.979317222270539</speed>
  <fix>3d</fix>
</trkpt>
<trkpt lat="40.0712205" lon="-105.2302446">
  <ele>1583.0</ele>
  <time>2026-08-28T17:54:58Z</time>
  <course>66.07</course>
  <speed>5.0</speed>
  <fix>3d</fix>
</trkpt>
<trkpt lat="40.0712245" lon="-105.2302323">
  <ele>1583.01</ele>
  <time>2026-08-28T17:54:58Z</time>
  <course>67.02</course>
  <speed>4.979317222270539</speed>
  <fix>3d</fix>
</trkpt>
<trkpt lat="40.0712205" lon="-105.2302446">
  <ele>1583.0</ele>
  <time>2026-08-28T17:54:58Z</time>
  <course>66.07</course>
  <speed>5.0</speed>
  <fix>3d</fix>
</trkpt>
<trkpt lat="40.0712263" lon="-105.2302269">
  <ele>1583.01</ele>
  <time>2026-08-28T17:54:58Z</time>
  <course>67.02</course>
  <speed>4.979317222270539</speed>
  <fix>3d</fix>
</trkpt>
<trkpt lat="40.0712241" lon="-105.2302339">
  <ele>1583.0</ele>
  <time>2026-08-28T17:54:58Z</time>
  <course>66.07</course>
  <speed>5.0</speed>
  <fix>3d</fix>
</trkpt>
<trkpt lat="40.0712281" lon="-105.2302215">
  <ele>1583.01</ele>
  <time>2026-08-28T17:54:58Z</time>
  <course>67.02</course>
  <speed>4.979317222270539</speed>
  <fix>3d</fix>
</trkpt>
<trkpt lat="40.0712241" lon="-105.2302339">
  <ele>1583.0</ele>
  <time>2026-08-28T17:54:58Z</time>
  <course>66.07</course>
  <speed>5.0</speed>
  <fix>3d</fix>
</trkpt>
<trkpt lat="40.07123" lon="-105.2302161">
  <ele>1583.01</ele>
  <time>2026-08-28T17:54:58Z</time>
  <course>67.02</course>
  <speed>4.979317222270539</speed>
  <fix>3d</fix>
</trkpt>
<trkpt lat="40.0712278" lon="-105.2302232">
  <ele>1583.0</ele>
  <time>2026-08-28T17:54:58Z</time>
  <course>66.07</course>
  <speed>5.0</speed>
  <fix>3d</fix>
</trkpt>
<trkpt lat="40.0712318" lon="-105.2302107">
  <ele>1583.01</ele>
  <time>2026-08-28T17:54:58Z</time>
  <course>67.02</course>
  <speed>4.979317222270539</speed>
  <fix>3d</fix>
</trkpt>
<trkpt lat="40.0712278" lon="-105.2302232">
  <ele>1583.0</ele>
  <time>2026-08-28T17:54:58Z</time>
  <course>66.07</course>
  <speed>5.0</speed>
  <fix>3d</fix>
</trkpt>
<trkpt lat="40.0712336" lon="-105.2302053">
  <ele>1583.02</ele>
  <time>2026-08-28T17:54:58Z</time>
  <course>67.02</course>
  <speed>4.979317222270539</speed>
  <fix>3d</fix>
</trkpt>
<trkpt lat="40.0712314" lon="-105.2302125">
  <ele>1583.0</ele>
  <time>2026-08-28T17:54:58Z</time>
  <course>66.07</course>
  <speed>5.0</speed>
  <fix>3d</fix>
</trkpt>
<trkpt lat="40.0712355" lon="-105.2301999">
  <ele>1583.01</ele>
  <time>2026-08-28T17:54:58Z</time>
  <course>67.02</course>
  <speed>4.979317222270539</speed>
  <fix>3d</fix>
</trkpt>
<trkpt lat="40.0712314" lon="-105.2302125">
  <ele>1583.0</ele>
  <time>2026-08-28T17:54:58Z</time>
  <course>66.07</course>
  <speed>5.0</speed>
  <fix>3d</fix>
</trkpt>
<trkpt lat="40.0712373" lon="-105.2301945">
  <ele>1583.01</ele>
  <time>2026-08-28T17:54:58Z</time>
  <course>67.02</course>
  <speed>4.979317222270539</speed>
  <fix>3d</fix>
</trkpt>
<trkpt lat="40.0712314" lon="-105.2302125">
  <ele>1583.0</ele>
  <time>2026-08-28T17:54:58Z</time>
  <course>66.07</course>
  <speed>5.0</speed>
  <fix>3d</fix>
</trkpt>
<trkpt lat="40.0712391" lon="-105.2301892">
  <ele>1583.01</ele>
  <time>2026-08-28T17:54:58Z</time>
  <course>67.02</course>
  <speed>4.970160963188214</speed>
  <fix>3d</fix>
</trkpt>
<trkpt lat="40.0712351" lon="-105.2302018">
  <ele>1583.0</ele>
  <time>2026-08-28T17:54:58Z</time>
  <course>66.07</course>
  <speed>4.99</speed>
  <fix>3d</fix>
</trkpt>
<trkpt lat="40.0712409" lon="-105.2301839">
  <ele>1583.01</ele>
  <time>2026-08-28T17:54:58Z</time>
  <course>67.02</course>
  <speed>4.970160963188214</speed>
  <fix>3d</fix>
</trkpt>
<trkpt lat="40.0712351" lon="-105.2302018">
  <ele>1583.0</ele>
  <time>2026-08-28T17:54:58Z</time>
  <course>66.07</course>
  <speed>4.99</speed>
  <fix>3d</fix>
</trkpt>
<trkpt lat="40.0712427" lon="-105.2301786">
  <ele>1583.01</ele>
  <time>2026-08-28T17:54:58Z</time>
  <course>67.02</course>
  <speed>4.970160963188214</speed>
  <fix>3d</fix>
</trkpt>
<trkpt lat="40.0712387" lon="-105.230191">
  <ele>1583.0</ele>
  <time>2026-08-28T17:54:58Z</time>
  <course>66.07</course>
  <speed>4.99</speed>
  <fix>3d</fix>
</trkpt>
<trkpt lat="40.0712445" lon="-105.2301733">
  <ele>1583.01</ele>
  <time>2026-08-28T17:54:58Z</time>
  <course>67.02</course>
  <speed>4.966145386514575</speed>
  <fix>3d</fix>
</trkpt>
<trkpt lat="40.0712387" lon="-105.230191">
  <ele>1583.0</ele>
  <time>2026-08-28T17:54:58Z</time>
  <course>66.07</course>
  <speed>4.99</speed>
  <fix>3d</fix>
</trkpt>
<trkpt lat="40.0712463" lon="-105.230168">
  <ele>1583.01</ele>
  <time>2026-08-28T17:54:58Z</time>
  <course>67.02</course>
  <speed>4.966145386514575</speed>
  <fix>3d</fix>
</trkpt>
<trkpt lat="40.0712423" lon="-105.2301803">
  <ele>1583.0</ele>
  <time>2026-08-28T17:54:58Z</time>
  <course>66.07</course>
  <speed>4.99</speed>
  <fix>3d</fix>
</trkpt>
<trkpt lat="40.0712481" lon="-105.2301627">
  <ele>1583.01</ele>
  <time>2026-08-28T17:54:58Z</time>
  <course>67.02</course>
  <speed>4.956984970725653</speed>
  <fix>3d</fix>
</trkpt>
<trkpt lat="40.0712423" lon="-105.2301803">
  <ele>1583.0</ele>
  <time>2026-08-28T17:54:58Z</time>
  <course>66.07</course>
  <speed>4.99</speed>
  <fix>3d</fix>
</trkpt>
<trkpt lat="40.0712499" lon="-105.2301573">
  <ele>1583.01</ele>
  <time>2026-08-28T17:54:58Z</time>
  <course>67.02</course>
  <speed>4.956984970725653</speed>
  <fix>3d</fix>
</trkpt>
<trkpt lat="40.071246" lon="-105.2301695">
  <ele>1583.0</ele>
  <time>2026-08-28T17:54:58Z</time>
  <course>66.07</course>
  <speed>4.99</speed>
  <fix>3d</fix>
</trkpt>
<trkpt lat="40.0712517" lon="-105.230152">
  <ele>1583.0</ele>
  <time>2026-08-28T17:54:58Z</time>
  <course>67.02</course>
  <speed>4.956984970725653</speed>
  <fix>3d</fix>
</trkpt>
<trkpt lat="40.0712496" lon="-105.2301588">
  <ele>1583.0</ele>
  <time>2026-08-28T17:54:58Z</time>
  <course>66.07</course>
  <speed>4.99</speed>
  <fix>3d</fix>
</trkpt>
<trkpt lat="40.0712535" lon="-105.2301467">
  <ele>1583.0</ele>
  <time>2026-08-28T17:54:58Z</time>
  <course>67.02</course>
  <speed>4.966145386514575</speed>
  <fix>3d</fix>
</trkpt>
<trkpt lat="40.0712496" lon="-105.2301588">
  <ele>1583.0</ele>
  <time>2026-08-28T17:54:58Z</time>
  <course>66.07</course>
  <speed>4.99</speed>
  <fix>3d</fix>
</trkpt>
<trkpt lat="40.0712553" lon="-105.2301414">
  <ele>1583.0</ele>
  <time>2026-08-28T17:54:58Z</time>
  <course>67.02</course>
  <speed>4.966145386514575</speed>
  <fix>3d</fix>
</trkpt>
<trkpt lat="40.0712532" lon="-105.2301481">
  <ele>1583.0</ele>
  <time>2026-08-28T17:54:58Z</time>
  <course>66.07</course>
  <speed>5.0</speed>
  <fix>3d</fix>
</trkpt>
<trkpt lat="40.0712572" lon="-105.230136">
  <ele>1583.0</ele>
  <time>2026-08-28T17:54:58Z</time>
  <course>67.02</course>
  <speed>4.970160963188214</speed>
  <fix>3d</fix>
</trkpt>
<trkpt lat="40.0712532" lon="-105.2301481">
  <ele>1583.0</ele>
  <time>2026-08-28T17:54:58Z</time>
  <course>66.07</course>
  <speed>5.0</speed>
  <fix>3d</fix>
</trkpt>
<trkpt lat="40.071259" lon="-105.2301306">
  <ele>1583.01</ele>
  <time>2026-08-28T17:54:58Z</time>
  <course>67.02</course>
  <speed>4.970160963188214</speed>
  <fix>3d</fix>
</trkpt>
<trkpt lat="40.0712569" lon="-105.2301373">
  <ele>1583.0</ele>
  <time>2026-08-28T17:54:58Z</time>
  <course>66.07</course>
  <speed>5.0</speed>
  <fix>3d</fix>
</trkpt>
<trkpt lat="40.0712608" lon="-105.2301252">
  <ele>1583.01</ele>
  <time>2026-08-28T17:54:58Z</time>
  <course>67.02</course>
  <speed>4.979317222270539</speed>
  <fix>3d</fix>
</trkpt>
<trkpt lat="40.0712569" lon="-105.2301373">
  <ele>1583.0</ele>
  <time>2026-08-28T17:54:58Z</time>
  <course>66.07</course>
  <speed>5.0</speed>
  <fix>3d</fix>
</trkpt>
<trkpt lat="40.0712627" lon="-105.2301197">
  <ele>1583.01</ele>
  <time>2026-08-28T17:54:58Z</time>
  <course>67.02</course>
  <speed>4.979317222270539</speed>
  <fix>3d</fix>
</trkpt>
<trkpt lat="40.0712605" lon="-105.2301266">
  <ele>1583.0</ele>
  <time>2026-08-28T17:54:58Z</time>
  <course>66.07</course>
  <speed>5.0</speed>
  <fix>3d</fix>
</trkpt>
<trkpt lat="40.0712645" lon="-105.2301143">
  <ele>1583.01</ele>
  <time>2026-08-28T17:54:58Z</time>
  <course>67.02</course>
  <speed>4.979317222270539</speed>
  <fix>3d</fix>
</trkpt>
<trkpt lat="40.0712605" lon="-105.2301266">
  <ele>1583.0</ele>
  <time>2026-08-28T17:54:58Z</time>
  <course>66.07</course>
  <speed>5.0</speed>
  <fix>3d</fix>
</trkpt>
<trkpt lat="40.0712663" lon="-105.2301089">
  <ele>1583.01</ele>
  <time>2026-08-28T17:54:58Z</time>
  <course>67.02</course>
  <speed>4.979317222270539</speed>
  <fix>3d</fix>
</trkpt>
<trkpt lat="40.0712642" lon="-105.2301159">
  <ele>1583.0</ele>
  <time>2026-08-28T17:54:58Z</time>
  <course>66.07</course>
  <speed>5.0</speed>
  <fix>3d</fix>
</trkpt>
<trkpt lat="40.0712682" lon="-105.2301035">
  <ele>1583.01</ele>
  <time>2026-08-28T17:54:58Z</time>
  <course>67.02</course>
  <speed>4.979317222270539</speed>
  <fix>3d</fix>
</trkpt>
<trkpt lat="40.0712642" lon="-105.2301159">
  <ele>1583.0</ele>
  <time>2026-08-28T17:54:58Z</time>
  <course>66.07</course>
  <speed>5.0</speed>
  <fix>3d</fix>
</trkpt>
<trkpt lat="40.07127" lon="-105.2300981">
  <ele>1583.02</ele>
  <time>2026-08-28T17:54:59Z</time>
  <course>67.02</course>
  <speed>4.979317222270539</speed>
  <fix>3d</fix>
</trkpt>
<trkpt lat="40.0712678" lon="-105.2301052">
  <ele>1583.0</ele>
  <time>2026-08-28T17:54:59Z</time>
  <course>66.07</course>
  <speed>5.0</speed>
  <fix>3d</fix>
</trkpt>
<trkpt lat="40.0712719" lon="-105.2300927">
  <ele>1583.02</ele>
  <time>2026-08-28T17:54:59Z</time>
  <course>67.02</course>
  <speed>4.979317222270539</speed>
  <fix>3d</fix>
</trkpt>
<trkpt lat="40.0712678" lon="-105.2301052">
  <ele>1583.0</ele>
  <time>2026-08-28T17:54:59Z</time>
  <course>66.07</course>
  <speed>5.0</speed>
  <fix>3d</fix>
</trkpt>
<trkpt lat="40.0712737" lon="-105.2300873">
  <ele>1583.01</ele>
  <time>2026-08-28T17:54:59Z</time>
  <course>67.02</course>
  <speed>4.979317222270539</speed>
  <fix>3d</fix>
</trkpt>
<trkpt lat="40.0712715" lon="-105.2300944">
  <ele>1583.0</ele>
  <time>2026-08-28T17:54:59Z</time>
  <course>66.07</course>
  <speed>5.0</speed>
  <fix>3d</fix>
</trkpt>
<trkpt lat="40.0712755" lon="-105.2300819">
  <ele>1583.02</ele>
  <time>2026-08-28T17:54:59Z</time>
  <course>67.02</course>
  <speed>4.979317222270539</speed>
  <fix>3d</fix>
</trkpt>
<trkpt lat="40.0712715" lon="-105.2300944">
  <ele>1583.0</ele>
  <time>2026-08-28T17:54:59Z</time>
  <course>66.07</course>
  <speed>5.0</speed>
  <fix>3d</fix>
</trkpt>
<trkpt lat="40.0712773" lon="-105.2300765">
  <ele>1583.02</ele>
  <time>2026-08-28T17:54:59Z</time>
  <course>67.02</course>
  <speed>4.979317222270539</speed>
  <fix>3d</fix>
</trkpt>
<trkpt lat="40.0712715" lon="-105.2300944">
  <ele>1583.0</ele>
  <time>2026-08-28T17:54:59Z</time>
  <course>66.07</course>
  <speed>5.0</speed>
  <fix>3d</fix>
</trkpt>
<trkpt lat="40.0712792" lon="-105.2300712">
  <ele>1583.02</ele>
  <time>2026-08-28T17:54:59Z</time>
  <course>67.02</course>
  <speed>4.979317222270539</speed>
  <fix>3d</fix>
</trkpt>
<trkpt lat="40.0712751" lon="-105.2300837">
  <ele>1583.0</ele>
  <time>2026-08-28T17:54:59Z</time>
  <course>66.07</course>
  <speed>5.0</speed>
  <fix>3d</fix>
</trkpt>
<trkpt lat="40.071281" lon="-105.2300658">
  <ele>1583.02</ele>
  <time>2026-08-28T17:54:59Z</time>
  <course>67.02</course>
  <speed>4.970160963188214</speed>
  <fix>3d</fix>
</trkpt>
<trkpt lat="40.0712751" lon="-105.2300837">
  <ele>1583.0</ele>
  <time>2026-08-28T17:54:59Z</time>
  <course>66.07</course>
  <speed>5.0</speed>
  <fix>3d</fix>
</trkpt>
<trkpt lat="40.0712828" lon="-105.2300605">
  <ele>1583.03</ele>
  <time>2026-08-28T17:54:59Z</time>
  <course>67.02</course>
  <speed>4.970160963188214</speed>
  <fix>3d</fix>
</trkpt>
<trkpt lat="40.0712788" lon="-105.2300729">
  <ele>1583.0</ele>
  <time>2026-08-28T17:54:59Z</time>
  <course>66.07</course>
  <speed>4.99</speed>
  <fix>3d</fix>
</trkpt>
<trkpt lat="40.0712846" lon="-105.2300552">
  <ele>1583.03</ele>
  <time>2026-08-28T17:54:59Z</time>
  <course>67.02</course>
  <speed>4.970160963188214</speed>
  <fix>3d</fix>
</trkpt>
<trkpt lat="40.0712788" lon="-105.2300729">
  <ele>1583.0</ele>
  <time>2026-08-28T17:54:59Z</time>
  <course>66.07</course>
  <speed>4.99</speed>
  <fix>3d</fix>
</trkpt>
<trkpt lat="40.0712864" lon="-105.2300499">
  <ele>1583.03</ele>
  <time>2026-08-28T17:54:59Z</time>
  <course>67.02</course>
  <speed>4.966145386514575</speed>
  <fix>3d</fix>
</trkpt>
<trkpt lat="40.0712824" lon="-105.2300622">
  <ele>1583.0</ele>
  <time>2026-08-28T17:54:59Z</time>
  <course>66.07</course>
  <speed>4.99</speed>
  <fix>3d</fix>
</trkpt>
<trkpt lat="40.0712882" lon="-105.2300446">
  <ele>1583.03</ele>
  <time>2026-08-28T17:54:59Z</time>
  <course>67.02</course>
  <speed>4.966145386514575</speed>
  <fix>3d</fix>
</trkpt>
<trkpt lat="40.0712861" lon="-105.2300515">
  <ele>1583.0</ele>
  <time>2026-08-28T17:54:59Z</time>
  <course>66.07</course>
  <speed>4.99</speed>
  <fix>3d</fix>
</trkpt>
<trkpt lat="40.07129" lon="-105.2300392">
  <ele>1583.03</ele>
  <time>2026-08-28T17:54:59Z</time>
  <course>67.02</course>
  <speed>4.966145386514575</speed>
  <fix>3d</fix>
</trkpt>
<trkpt lat="40.0712861" lon="-105.2300515">
  <ele>1583.0</ele>
  <time>2026-08-28T17:54:59Z</time>
  <course>66.07</course>
  <speed>4.99</speed>
  <fix>3d</fix>
</trkpt>
<trkpt lat="40.0712918" lon="-105.2300339">
  <ele>1583.03</ele>
  <time>2026-08-28T17:54:59Z</time>
  <course>67.02</course>
  <speed>4.966145386514575</speed>
  <fix>3d</fix>
</trkpt>
<trkpt lat="40.0712897" lon="-105.2300407">
  <ele>1583.0</ele>
  <time>2026-08-28T17:54:59Z</time>
  <course>66.07</course>
  <speed>4.99</speed>
  <fix>3d</fix>
</trkpt>
<trkpt lat="40.0712936" lon="-105.2300285">
  <ele>1583.03</ele>
  <time>2026-08-28T17:54:59Z</time>
  <course>67.02</course>
  <speed>4.970160963188214</speed>
  <fix>3d</fix>
</trkpt>
<trkpt lat="40.0712897" lon="-105.2300407">
  <ele>1583.0</ele>
  <time>2026-08-28T17:54:59Z</time>
  <course>66.07</course>
  <speed>4.99</speed>
  <fix>3d</fix>
</trkpt>
<trkpt lat="40.0712955" lon="-105.2300232">
  <ele>1583.03</ele>
  <time>2026-08-28T17:54:59Z</time>
  <course>67.02</course>
  <speed>4.970160963188214</speed>
  <fix>3d</fix>
</trkpt>
<trkpt lat="40.0712934" lon="-105.23003">
  <ele>1583.0</ele>
  <time>2026-08-28T17:54:59Z</time>
  <course>66.07</course>
  <speed>4.99</speed>
  <fix>3d</fix>
</trkpt>
<trkpt lat="40.0712973" lon="-105.2300178">
  <ele>1583.03</ele>
  <time>2026-08-28T17:54:59Z</time>
  <course>67.02</course>
  <speed>4.970160963188214</speed>
  <fix>3d</fix>
</trkpt>
<trkpt lat="40.0712934" lon="-105.23003">
  <ele>1583.0</ele>
  <time>2026-08-28T17:54:59Z</time>
  <course>66.07</course>
  <speed>4.99</speed>
  <fix>3d</fix>
</trkpt>
<trkpt lat="40.0712991" lon="-105.2300124">
  <ele>1583.03</ele>
  <time>2026-08-28T17:54:59Z</time>
  <course>67.02</course>
  <speed>4.970160963188214</speed>
  <fix>3d</fix>
</trkpt>
<trkpt lat="40.071297" lon="-105.2300193">
  <ele>1583.0</ele>
  <time>2026-08-28T17:54:59Z</time>
  <course>66.07</course>
  <speed>4.99</speed>
  <fix>3d</fix>
</trkpt>
<trkpt lat="40.071301" lon="-105.2300069">
  <ele>1583.03</ele>
  <time>2026-08-28T17:54:59Z</time>
  <course>67.02</course>
  <speed>4.970160963188214</speed>
  <fix>3d</fix>
</trkpt>
<trkpt lat="40.071297" lon="-105.2300193">
  <ele>1583.0</ele>
  <time>2026-08-28T17:54:59Z</time>
  <course>66.07</course>
  <speed>4.99</speed>
  <fix>3d</fix>
</trkpt>
<trkpt lat="40.0713028" lon="-105.2300015">
  <ele>1583.03</ele>
  <time>2026-08-28T17:54:59Z</time>
  <course>67.02</course>
  <speed>4.979317222270539</speed>
  <fix>3d</fix>
</trkpt>
<trkpt lat="40.0713006" lon="-105.2300085">
  <ele>1583.0</ele>
  <time>2026-08-28T17:54:59Z</time>
  <course>66.07</course>
  <speed>4.99</speed>
  <fix>3d</fix>
</trkpt>
<trkpt lat="40.0713047" lon="-105.2299961">
  <ele>1583.03</ele>
  <time>2026-08-28T17:54:59Z</time>
  <course>67.02</course>
  <speed>4.979317222270539</speed>
  <fix>3d</fix>
</trkpt>
<trkpt lat="40.0713006" lon="-105.2300085">
  <ele>1583.0</ele>
  <time>2026-08-28T17:54:59Z</time>
  <course>66.07</course>
  <speed>4.99</speed>
  <fix>3d</fix>
</trkpt>
<trkpt lat="40.0713065" lon="-105.2299907">
  <ele>1583.03</ele>
  <time>2026-08-28T17:54:59Z</time>
  <course>67.02</course>
  <speed>4.979317222270539</speed>
  <fix>3d</fix>
</trkpt>
<trkpt lat="40.0713043" lon="-105.2299978">
  <ele>1583.0</ele>
  <time>2026-08-28T17:54:59Z</time>
  <course>66.07</course>
  <speed>4.99</speed>
  <fix>3d</fix>
</trkpt>
<trkpt lat="40.0713083" lon="-105.2299853">
  <ele>1583.03</ele>
  <time>2026-08-28T17:54:59Z</time>
  <course>67.02</course>
  <speed>4.979317222270539</speed>
  <fix>3d</fix>
</trkpt>
<trkpt lat="40.0713043" lon="-105.2299978">
  <ele>1583.0</ele>
  <time>2026-08-28T17:54:59Z</time>
  <course>66.07</course>
  <speed>4.99</speed>
  <fix>3d</fix>
</trkpt>
<trkpt lat="40.0713101" lon="-105.22998">
  <ele>1583.03</ele>
  <time>2026-08-28T17:54:59Z</time>
  <course>67.02</course>
  <speed>4.979317222270539</speed>
  <fix>3d</fix>
</trkpt>
<trkpt lat="40.071308" lon="-105.2299871">
  <ele>1583.0</ele>
  <time>2026-08-28T17:54:59Z</time>
  <course>66.07</course>
  <speed>4.99</speed>
  <fix>3d</fix>
</trkpt>
<trkpt lat="40.071312" lon="-105.2299746">
  <ele>1583.03</ele>
  <time>2026-08-28T17:54:59Z</time>
  <course>67.02</course>
  <speed>4.979317222270539</speed>
  <fix>3d</fix>
</trkpt>
<trkpt lat="40.071308" lon="-105.2299871">
  <ele>1583.0</ele>
  <time>2026-08-28T17:54:59Z</time>
  <course>66.07</course>
  <speed>4.99</speed>
  <fix>3d</fix>
</trkpt>
<trkpt lat="40.0713138" lon="-105.2299692">
  <ele>1583.03</ele>
  <time>2026-08-28T17:54:59Z</time>
  <course>67.02</course>
  <speed>4.979317222270539</speed>
  <fix>3d</fix>
</trkpt>
<trkpt lat="40.071308" lon="-105.2299871">
  <ele>1583.0</ele>
  <time>2026-08-28T17:54:59Z</time>
  <course>66.07</course>
  <speed>4.99</speed>
  <fix>3d</fix>
</trkpt>
<trkpt lat="40.0713156" lon="-105.2299639">
  <ele>1583.03</ele>
  <time>2026-08-28T17:54:59Z</time>
  <course>67.02</course>
  <speed>4.970160963188214</speed>
  <fix>3d</fix>
</trkpt>
<trkpt lat="40.0713116" lon="-105.2299764">
  <ele>1583.0</ele>
  <time>2026-08-28T17:54:59Z</time>
  <course>66.07</course>
  <speed>4.99</speed>
  <fix>3d</fix>
</trkpt>
<trkpt lat="40.0713174" lon="-105.2299585">
  <ele>1583.03</ele>
  <time>2026-08-28T17:54:59Z</time>
  <course>67.02</course>
  <speed>4.970160963188214</speed>
  <fix>3d</fix>
</trkpt>
<trkpt lat="40.0713116" lon="-105.2299764">
  <ele>1583.0</ele>
  <time>2026-08-28T17:54:59Z</time>
  <course>66.07</course>
  <speed>4.99</speed>
  <fix>3d</fix>
</trkpt>
<trkpt lat="40.0713192" lon="-105.2299532">
  <ele>1583.03</ele>
  <time>2026-08-28T17:54:59Z</time>
  <course>67.02</course>
  <speed>4.970160963188214</speed>
  <fix>3d</fix>
</trkpt>
<trkpt lat="40.0713152" lon="-105.2299656">
  <ele>1583.0</ele>
  <time>2026-08-28T17:54:59Z</time>
  <course>66.07</course>
  <speed>4.99</speed>
  <fix>3d</fix>
</trkpt>
<trkpt lat="40.071321" lon="-105.2299479">
  <ele>1583.04</ele>
  <time>2026-08-28T17:54:59Z</time>
  <course>67.02</course>
  <speed>4.970160963188214</speed>
  <fix>3d</fix>
</trkpt>
<trkpt lat="40.0713152" lon="-105.2299656">
  <ele>1583.0</ele>
  <time>2026-08-28T17:54:59Z</time>
  <course>66.07</course>
  <speed>4.99</speed>
  <fix>3d</fix>
</trkpt>
<trkpt lat="40.0713228" lon="-105.2299426">
  <ele>1583.04</ele>
  <time>2026-08-28T17:54:59Z</time>
  <course>67.02</course>
  <speed>4.970160963188214</speed>
  <fix>3d</fix>
</trkpt>
<trkpt lat="40.0713189" lon="-105.2299549">
  <ele>1583.0</ele>
  <time>2026-08-28T17:54:59Z</time>
  <course>66.07</course>
  <speed>4.99</speed>
  <fix>3d</fix>
</trkpt>
<trkpt lat="40.0713246" lon="-105.2299373">
  <ele>1583.04</ele>
  <time>2026-08-28T17:54:59Z</time>
  <course>67.02</course>
  <speed>4.956984970725653</speed>
  <fix>3d</fix>
</trkpt>
<trkpt lat="40.0713189" lon="-105.2299549">
  <ele>1583.0</ele>
  <time>2026-08-28T17:54:59Z</time>
  <course>66.07</course>
  <speed>4.99</speed>
  <fix>3d</fix>
</trkpt>
<trkpt lat="40.0713265" lon="-105.229932">
  <ele>1583.04</ele>
  <time>2026-08-28T17:54:59Z</time>
  <course>67.02</course>
  <speed>4.956984970725653</speed>
  <fix>3d</fix>
</trkpt>
<trkpt lat="40.0713225" lon="-105.2299442">
  <ele>1583.0</ele>
  <time>2026-08-28T17:54:59Z</time>
  <course>66.07</course>
  <speed>4.99</speed>
  <fix>3d</fix>
</trkpt>
<trkpt lat="40.0713283" lon="-105.2299267">
  <ele>1583.04</ele>
  <time>2026-08-28T17:54:59Z</time>
  <course>67.02</course>
  <speed>4.947827806219614</speed>
  <fix>3d</fix>
</trkpt>
<trkpt lat="40.0713262" lon="-105.2299335">
  <ele>1583.0</ele>
  <time>2026-08-28T17:54:59Z</time>
  <course>66.07</course>
  <speed>4.98</speed>
  <fix>3d</fix>
</trkpt>
<trkpt lat="40.0713301" lon="-105.2299214">
  <ele>1583.04</ele>
  <time>2026-08-28T17:54:59Z</time>
  <course>67.02</course>
  <speed>4.9346529766539815</speed>
  <fix>3d</fix>
</trkpt>
<trkpt lat="40.0713262" lon="-105.2299335">
  <ele>1583.0</ele>
  <time>2026-08-28T17:54:59Z</time>
  <course>66.07</course>
  <speed>4.98</speed>
  <fix>3d</fix>
</trkpt>
<trkpt lat="40.0713319" lon="-105.2299161">
  <ele>1583.03</ele>
  <time>2026-08-28T17:54:59Z</time>
  <course>67.02</course>
  <speed>4.912321243567037</speed>
  <fix>3d</fix>
</trkpt>
<trkpt lat="40.0713298" lon="-105.2299228">
  <ele>1583.0</ele>
  <time>2026-08-28T17:54:59Z</time>
  <course>66.07</course>
  <speed>4.96</speed>
  <fix>3d</fix>
</trkpt>
<trkpt lat="40.0713337" lon="-105.2299108">
  <ele>1583.03</ele>
  <time>2026-08-28T17:54:59Z</time>
  <course>67.02</course>
  <speed>4.88082984747471</speed>
  <fix>3d</fix>
</trkpt>
<trkpt lat="40.0713298" lon="-105.2299228">
  <ele>1583.0</ele>
  <time>2026-08-28T17:54:59Z</time>
  <course>66.07</course>
  <speed>4.96</speed>
  <fix>3d</fix>
</trkpt>
<trkpt lat="40.0713355" lon="-105.2299055">
  <ele>1583.03</ele>
  <time>2026-08-28T17:54:59Z</time>
  <course>67.02</course>
  <speed>4.840185946841299</speed>
  <fix>3d</fix>
</trkpt>
<trkpt lat="40.0713334" lon="-105.2299123">
  <ele>1583.0</ele>
  <time>2026-08-28T17:54:59Z</time>
  <course>66.07</course>
  <speed>4.9</speed>
  <fix>3d</fix>
</trkpt>
<trkpt lat="40.0713372" lon="-105.2299003">
  <ele>1583.03</ele>
  <time>2026-08-28T17:54:59Z</time>
  <course>67.02</course>
  <speed>4.795518741491894</speed>
  <fix>3d</fix>
</trkpt>
<trkpt lat="40.0713334" lon="-105.2299123">
  <ele>1583.0</ele>
  <time>2026-08-28T17:54:59Z</time>
  <course>66.07</course>
  <speed>4.9</speed>
  <fix>3d</fix>
</trkpt>
<trkpt lat="40.071339" lon="-105.2298951">
  <ele>1583.03</ele>
  <time>2026-08-28T17:54:59Z</time>
  <course>67.02</course>
  <speed>4.72851985297725</speed>
  <fix>3d</fix>
</trkpt>
<trkpt lat="40.0713369" lon="-105.2299018">
  <ele>1583.0</ele>
  <time>2026-08-28T17:54:59Z</time>
  <course>66.07</course>
  <speed>4.81</speed>
  <fix>3d</fix>
</trkpt>
<trkpt lat="40.0713407" lon="-105.22989">
  <ele>1583.02</ele>
  <time>2026-08-28T17:54:59Z</time>
  <course>67.02</course>
  <speed>4.652364989980902</speed>
  <fix>3d</fix>
</trkpt>
<trkpt lat="40.0713369" lon="-105.2299018">
  <ele>1583.0</ele>
  <time>2026-08-28T17:54:59Z</time>
  <course>66.07</course>
  <speed>4.81</speed>
  <fix>3d</fix>
</trkpt>
<trkpt lat="40.0713424" lon="-105.2298851">
  <ele>1583.02</ele>
  <time>2026-08-28T17:55:00Z</time>
  <course>67.02</course>
  <speed>4.567055944478894</speed>
  <fix>3d</fix>
</trkpt>
<trkpt lat="40.0713403" lon="-105.2298916">
  <ele>1583.0</ele>
  <time>2026-08-28T17:55:00Z</time>
  <course>66.07</course>
  <speed>4.67</speed>
  <fix>3d</fix>
</trkpt>
<trkpt lat="40.0713441" lon="-105.2298802">
  <ele>1583.02</ele>
  <time>2026-08-28T17:55:00Z</time>
  <course>67.02</course>
  <speed>4.468568003286959</speed>
  <fix>3d</fix>
</trkpt>
<trkpt lat="40.0713403" lon="-105.2298916">
  <ele>1583.0</ele>
  <time>2026-08-28T17:55:00Z</time>
  <course>66.07</course>
  <speed>4.67</speed>
  <fix>3d</fix>
</trkpt>
<trkpt lat="40.0713457" lon="-105.2298754">
  <ele>1583.02</ele>
  <time>2026-08-28T17:55:00Z</time>
  <course>67.02</course>
  <speed>4.370080090799252</speed>
  <fix>3d</fix>
</trkpt>
<trkpt lat="40.0713437" lon="-105.2298818">
  <ele>1583.0</ele>
  <time>2026-08-28T17:55:00Z</time>
  <course>66.07</course>
  <speed>4.49</speed>
  <fix>3d</fix>
</trkpt>
<trkpt lat="40.0713473" lon="-105.2298707">
  <ele>1583.01</ele>
  <time>2026-08-28T17:55:00Z</time>
  <course>67.02</course>
  <speed>4.262440615422109</speed>
  <fix>3d</fix>
</trkpt>
<trkpt lat="40.0713437" lon="-105.2298818">
  <ele>1583.0</ele>
  <time>2026-08-28T17:55:00Z</time>
  <course>66.07</course>
  <speed>4.49</speed>
  <fix>3d</fix>
</trkpt>
<trkpt lat="40.0713489" lon="-105.2298662">
  <ele>1583.01</ele>
  <time>2026-08-28T17:55:00Z</time>
  <course>67.02</course>
  <speed>4.141618041297386</speed>
  <fix>3d</fix>
</trkpt>
<trkpt lat="40.0713469" lon="-105.2298724">
  <ele>1583.0</ele>
  <time>2026-08-28T17:55:00Z</time>
  <course>66.07</course>
  <speed>4.28</speed>
  <fix>3d</fix>
</trkpt>
<trkpt lat="40.0713504" lon="-105.2298618">
  <ele>1583.01</ele>
  <time>2026-08-28T17:55:00Z</time>
  <course>67.02</course>
  <speed>4.024835400361113</speed>
  <fix>3d</fix>
</trkpt>
<trkpt lat="40.0713469" lon="-105.2298724">
  <ele>1583.0</ele>
  <time>2026-08-28T17:55:00Z</time>
  <course>66.07</course>
  <speed>4.28</speed>
  <fix>3d</fix>
</trkpt>
<trkpt lat="40.0713518" lon="-105.2298575">
  <ele>1583.02</ele>
  <time>2026-08-28T17:55:00Z</time>
  <course>67.02</course>
  <speed>3.8948684188300895</speed>
  <fix>3d</fix>
</trkpt>
<trkpt lat="40.0713469" lon="-105.2298724">
  <ele>1583.0</ele>
  <time>2026-08-28T17:55:00Z</time>
  <course>66.07</course>
  <speed>4.28</speed>
  <fix>3d</fix>
</trkpt>
<trkpt lat="40.0713532" lon="-105.2298535">
  <ele>1583.02</ele>
  <time>2026-08-28T17:55:00Z</time>
  <course>67.04</course>
  <speed>3.77</speed>
  <fix>3d</fix>
</trkpt>
<trkpt lat="40.0713499" lon="-105.2298634">
  <ele>1583.0</ele>
  <time>2026-08-28T17:55:00Z</time>
  <course>66.07</course>
  <speed>4.05</speed>
  <fix>3d</fix>
</trkpt>
<trkpt lat="40.0713546" lon="-105.2298495">
  <ele>1583.02</ele>
  <time>2026-08-28T17:55:00Z</time>
  <course>67.05</course>
  <speed>3.6400274724238004</speed>
  <fix>3d</fix>
</trkpt>
<trkpt lat="40.0713499" lon="-105.2298634">
  <ele>1583.0</ele>
  <time>2026-08-28T17:55:00Z</time>
  <course>66.07</course>
  <speed>4.05</speed>
  <fix>3d</fix>
</trkpt>
<trkpt lat="40.0713558" lon="-105.2298457">
  <ele>1583.02</ele>
  <time>2026-08-28T17:55:00Z</time>
  <course>67.1</course>
  <speed>3.510056979594491</speed>
  <fix>3d</fix>
</trkpt>
<trkpt lat="40.0713528" lon="-105.2298549">
  <ele>1583.0</ele>
  <time>2026-08-28T17:55:00Z</time>
  <course>66.09</course>
  <speed>3.8</speed>
  <fix>3d</fix>
</trkpt>
<trkpt lat="40.0713571" lon="-105.229842">
  <ele>1583.02</ele>
  <time>2026-08-28T17:55:00Z</time>
  <course>67.13</course>
  <speed>3.376047985440965</speed>
  <fix>3d</fix>
</trkpt>
<trkpt lat="40.0713528" lon="-105.2298549">
  <ele>1583.0</ele>
  <time>2026-08-28T17:55:00Z</time>
  <course>66.09</course>
  <speed>3.8</speed>
  <fix>3d</fix>
</trkpt>
<trkpt lat="40.0713583" lon="-105.2298385">
  <ele>1583.02</ele>
  <time>2026-08-28T17:55:00Z</time>
  <course>67.17</course>
  <speed>3.246074552440224</speed>
  <fix>3d</fix>
</trkpt>
<trkpt lat="40.0713554" lon="-105.2298471">
  <ele>1583.0</ele>
  <time>2026-08-28T17:55:00Z</time>
  <course>66.14</course>
  <speed>3.54</speed>
  <fix>3d</fix>
</trkpt>
<trkpt lat="40.0713594" lon="-105.2298351">
  <ele>1583.02</ele>
  <time>2026-08-28T17:55:00Z</time>
  <course>67.22</course>
  <speed>3.1161033358988597</speed>
  <fix>3d</fix>
</trkpt>
<trkpt lat="40.0713579" lon="-105.2298397">
  <ele>1583.0</ele>
  <time>2026-08-28T17:55:00Z</time>
  <course>66.22</course>
  <speed>3.29</speed>
  <fix>3d</fix>
</trkpt>
<trkpt lat="40.0713605" lon="-105.2298319">
  <ele>1583.02</ele>
  <time>2026-08-28T17:55:00Z</time>
  <course>67.26</course>
  <speed>2.982096577912929</speed>
  <fix>3d</fix>
</trkpt>
<trkpt lat="40.0713579" lon="-105.2298397">
  <ele>1583.0</ele>
  <time>2026-08-28T17:55:00Z</time>
  <course>66.22</course>
  <speed>3.29</speed>
  <fix>3d</fix>
</trkpt>
<trkpt lat="40.0713616" lon="-105.2298287">
  <ele>1583.01</ele>
  <time>2026-08-28T17:55:00Z</time>
  <course>67.3</course>
  <speed>2.8612759391572142</speed>
  <fix>3d</fix>
</trkpt>
<trkpt lat="40.0713602" lon="-105.2298328">
  <ele>1583.0</ele>
  <time>2026-08-28T17:55:00Z</time>
  <course>66.31</course>
  <speed>3.04</speed>
  <fix>3d</fix>
</trkpt>
<trkpt lat="40.0713626" lon="-105.2298257">
  <ele>1583.01</ele>
  <time>2026-08-28T17:55:00Z</time>
  <course>67.34</course>
  <speed>2.7404561664073372</speed>
  <fix>3d</fix>
</trkpt>
<trkpt lat="40.0713602" lon="-105.2298328">
  <ele>1583.0</ele>
  <time>2026-08-28T17:55:00Z</time>
  <course>66.31</course>
  <speed>3.04</speed>
  <fix>3d</fix>
</trkpt>
<trkpt lat="40.0713636" lon="-105.2298228">
  <ele>1583.01</ele>
  <time>2026-08-28T17:55:00Z</time>
  <course>67.37</course>
  <speed>2.619637379485947</speed>
  <fix>3d</fix>
</trkpt>
<trkpt lat="40.0713624" lon="-105.2298266">
  <ele>1583.0</ele>
  <time>2026-08-28T17:55:00Z</time>
  <course>66.39</course>
  <speed>2.8</speed>
  <fix>3d</fix>
</trkpt>
<trkpt lat="40.0713645" lon="-105.2298201">
  <ele>1583.01</ele>
  <time>2026-08-28T17:55:00Z</time>
  <course>67.41</course>
  <speed>2.4988197213884797</speed>
  <fix>3d</fix>
</trkpt>
<trkpt lat="40.0713624" lon="-105.2298266">
  <ele>1583.0</ele>
  <time>2026-08-28T17:55:00Z</time>
  <course>66.39</course>
  <speed>2.8</speed>
  <fix>3d</fix>
</trkpt>
<trkpt lat="40.0713654" lon="-105.2298174">
  <ele>1583.01</ele>
  <time>2026-08-28T17:55:00Z</time>
  <course>67.44</course>
  <speed>2.3911712611187013</speed>
  <fix>3d</fix>
</trkpt>
<trkpt lat="40.0713643" lon="-105.2298208">
  <ele>1583.0</ele>
  <time>2026-08-28T17:55:00Z</time>
  <course>66.46</course>
  <speed>2.56</speed>
  <fix>3d</fix>
</trkpt>
<trkpt lat="40.0713662" lon="-105.2298148">
  <ele>1583.0</ele>
  <time>2026-08-28T17:55:00Z</time>
  <course>67.47</course>
  <speed>2.2703523955544878</speed>
  <fix>3d</fix>
</trkpt>
<trkpt lat="40.0713643" lon="-105.2298208">
  <ele>1583.0</ele>
  <time>2026-08-28T17:55:00Z</time>
  <course>66.46</course>
  <speed>2.56</speed>
  <fix>3d</fix>
</trkpt>
<trkpt lat="40.0713671" lon="-105.2298124">
  <ele>1583.0</ele>
  <time>2026-08-28T17:55:00Z</time>
  <course>67.5</course>
  <speed>2.1587033144922905</speed>
  <fix>3d</fix>
</trkpt>
<trkpt lat="40.0713661" lon="-105.2298156">
  <ele>1583.0</ele>
  <time>2026-08-28T17:55:00Z</time>
  <course>66.53</course>
  <speed>2.33</speed>
  <fix>3d</fix>
</trkpt>
<trkpt lat="40.0713678" lon="-105.2298101">
  <ele>1583.0</ele>
  <time>2026-08-28T17:55:00Z</time>
  <course>67.53</course>
  <speed>2.0510485123467945</speed>
  <fix>3d</fix>
</trkpt>
<trkpt lat="40.0713661" lon="-105.2298156">
  <ele>1583.0</ele>
  <time>2026-08-28T17:55:00Z</time>
  <course>66.53</course>
  <speed>2.33</speed>
  <fix>3d</fix>
</trkpt>
<trkpt lat="40.0713686" lon="-105.229808">
  <ele>1583.0</ele>
  <time>2026-08-28T17:55:00Z</time>
  <course>67.58</course>
  <speed>1.9433990840792326</speed>
  <fix>3d</fix>
</trkpt>
<trkpt lat="40.0713676" lon="-105.2298108">
  <ele>1583.0</ele>
  <time>2026-08-28T17:55:00Z</time>
  <course>66.6</course>
  <speed>2.12</speed>
  <fix>3d</fix>
</trkpt>
<trkpt lat="40.0713692" lon="-105.2298059">
  <ele>1583.0</ele>
  <time>2026-08-28T17:55:00Z</time>
  <course>67.64</course>
  <speed>1.8409236811991962</speed>
  <fix>3d</fix>
</trkpt>
<trkpt lat="40.0713676" lon="-105.2298108">
  <ele>1583.0</ele>
  <time>2026-08-28T17:55:00Z</time>
  <course>66.6</course>
  <speed>2.12</speed>
  <fix>3d</fix>
</trkpt>
<trkpt lat="40.0713699" lon="-105.2298039">
  <ele>1583.0</ele>
  <time>2026-08-28T17:55:00Z</time>
  <course>67.69</course>
  <speed>1.7424408167854653</speed>
  <fix>3d</fix>
</trkpt>
<trkpt lat="40.0713691" lon="-105.2298064">
  <ele>1583.0</ele>
  <time>2026-08-28T17:55:00Z</time>
  <course>66.69</course>
  <speed>1.91</speed>
  <fix>3d</fix>
</trkpt>
<trkpt lat="40.0713705" lon="-105.2298021">
  <ele>1583.0</ele>
  <time>2026-08-28T17:55:00Z</time>
  <course>67.73</course>
  <speed>1.6347782724271815</speed>
  <fix>3d</fix>
</trkpt>
<trkpt lat="40.0713691" lon="-105.2298064">
  <ele>1583.0</ele>
  <time>2026-08-28T17:55:00Z</time>
  <course>66.69</course>
  <speed>1.91</speed>
  <fix>3d</fix>
</trkpt>
<trkpt lat="40.0713711" lon="-105.2298004">
  <ele>1583.0</ele>
  <time>2026-08-28T17:55:00Z</time>
  <course>67.78</course>
  <speed>1.5362942426501507</speed>
  <fix>3d</fix>
</trkpt>
<trkpt lat="40.0713691" lon="-105.2298064">
  <ele>1583.0</ele>
  <time>2026-08-28T17:55:00Z</time>
  <course>66.69</course>
  <speed>1.91</speed>
  <fix>3d</fix>
</trkpt>
<trkpt lat="40.0713716" lon="-105.2297987">
  <ele>1583.0</ele>
  <time>2026-08-28T17:55:00Z</time>
  <course>67.83</course>
  <speed>1.437810835958611</speed>
  <fix>3d</fix>
</trkpt>
<trkpt lat="40.0713704" lon="-105.2298025">
  <ele>1583.0</ele>
  <time>2026-08-28T17:55:00Z</time>
  <course>66.79</course>
  <speed>1.7</speed>
  <fix>3d</fix>
</trkpt>
<trkpt lat="40.0713721" lon="-105.2297972">
  <ele>1583.0</ele>
  <time>2026-08-28T17:55:00Z</time>
  <course>67.89</course>
  <speed>1.339328189802634</speed>
  <fix>3d</fix>
</trkpt>
<trkpt lat="40.0713704" lon="-105.2298025">
  <ele>1583.0</ele>
  <time>2026-08-28T17:55:00Z</time>
  <course>66.79</course>
  <speed>1.7</speed>
  <fix>3d</fix>
</trkpt>
<trkpt lat="40.0713726" lon="-105.2297958">
  <ele>1583.0</ele>
  <time>2026-08-28T17:55:00Z</time>
  <course>67.96</course>
  <speed>1.2408464852672147</speed>
  <fix>3d</fix>
</trkpt>
<trkpt lat="40.0713715" lon="-105.229799">
  <ele>1583.0</ele>
  <time>2026-08-28T17:55:00Z</time>
  <course>66.89</course>
  <speed>1.51</speed>
  <fix>3d</fix>
</trkpt>
<trkpt lat="40.071373" lon="-105.2297945">
  <ele>1583.0</ele>
  <time>2026-08-28T17:55:00Z</time>
  <course>68.03</course>
  <speed>1.1423659658795864</speed>
  <fix>3d</fix>
</trkpt>
<trkpt lat="40.0713715" lon="-105.229799">
  <ele>1583.0</ele>
  <time>2026-08-28T17:55:00Z</time>
  <course>66.89</course>
  <speed>1.51</speed>
  <fix>3d</fix>
</trkpt>
<trkpt lat="40.0713734" lon="-105.2297933">
  <ele>1582.99</ele>
  <time>2026-08-28T17:55:00Z</time>
  <course>68.11</course>
  <speed>1.0530906893520615</speed>
  <fix>3d</fix>
</trkpt>
<trkpt lat="40.0713725" lon="-105.2297959">
  <ele>1583.0</ele>
  <time>2026-08-28T17:55:00Z</time>
  <course>67.02</course>
  <speed>1.31</speed>
  <fix>3d</fix>
</trkpt>
<trkpt lat="40.0713737" lon="-105.2297922">
  <ele>1582.99</ele>
  <time>2026-08-28T17:55:00Z</time>
  <course>68.2</course>
  <speed>0.9546203433826455</speed>
  <fix>3d</fix>
</trkpt>
<trkpt lat="40.0713725" lon="-105.2297959">
  <ele>1583.0</ele>
  <time>2026-08-28T17:55:00Z</time>
  <course>67.02</course>
  <speed>1.31</speed>
  <fix>3d</fix>
</trkpt>
<trkpt lat="40.0713741" lon="-105.2297911">
  <ele>1582.99</ele>
  <time>2026-08-28T17:55:00Z</time>
  <course>68.3</course>
  <speed>0.8561541917201597</speed>
  <fix>3d</fix>
</trkpt>
<trkpt lat="40.0713734" lon="-105.2297933">
  <ele>1583.0</ele>
  <time>2026-08-28T17:55:00Z</time>
  <course>67.17</course>
  <speed>1.12</speed>
  <fix>3d</fix>
</trkpt>
<trkpt lat="40.0713743" lon="-105.2297902">
  <ele>1582.99</ele>
  <time>2026-08-28T17:55:00Z</time>
  <course>68.39</course>
  <speed>0.7576938695805846</speed>
  <fix>3d</fix>
</trkpt>
<trkpt lat="40.0713741" lon="-105.2297911">
  <ele>1583.0</ele>
  <time>2026-08-28T17:55:00Z</time>
  <course>67.35</course>
  <speed>0.93</speed>
  <fix>3d</fix>
</trkpt>
<trkpt lat="40.0713746" lon="-105.2297894">
  <ele>1582.99</ele>
  <time>2026-08-28T17:55:00Z</time>
  <course>68.48</course>
  <speed>0.6592419889539803</speed>
  <fix>3d</fix>
</trkpt>
<trkpt lat="40.0713741" lon="-105.2297911">
  <ele>1583.0</ele>
  <time>2026-08-28T17:55:00Z</time>
  <course>67.35</course>
  <speed>0.93</speed>
  <fix>3d</fix>
</trkpt>
<trkpt lat="40.0713748" lon="-105.2297887">
  <ele>1582.99</ele>
  <time>2026-08-28T17:55:00Z</time>
  <course>68.57</course>
  <speed>0.570087712549569</speed>
  <fix>3d</fix>
</trkpt>
<trkpt lat="40.0713746" lon="-105.2297893">
  <ele>1583.0</ele>
  <time>2026-08-28T17:55:00Z</time>
  <course>67.54</course>
  <speed>0.73</speed>
  <fix>3d</fix>
</trkpt>
<trkpt lat="40.071375" lon="-105.2297881">
  <ele>1582.99</ele>
  <time>2026-08-28T17:55:00Z</time>
  <course>68.66</course>
  <speed>0.4753945729601885</speed>
  <fix>3d</fix>
</trkpt>
<trkpt lat="40.0713746" lon="-105.2297893">
  <ele>1583.0</ele>
  <time>2026-08-28T17:55:00Z</time>
  <course>67.54</course>
  <speed>0.73</speed>
  <fix>3d</fix>
</trkpt>
<trkpt lat="40.0713752" lon="-105.2297876">
  <ele>1582.99</ele>
  <time>2026-08-28T17:55:00Z</time>
  <course>68.74</course>
  <speed>0.3769615364994153</speed>
  <fix>3d</fix>
</trkpt>
<trkpt lat="40.0713751" lon="-105.2297879">
  <ele>1583.0</ele>
  <time>2026-08-28T17:55:00Z</time>
  <course>67.71</course>
  <speed>0.54</speed>
  <fix>3d</fix>
</trkpt>
<trkpt lat="40.0713753" lon="-105.2297872">
  <ele>1582.99</ele>
  <time>2026-08-28T17:55:00Z</time>
  <course>68.8</course>
  <speed>0.2785677655436824</speed>
  <fix>3d</fix>
</trkpt>
<trkpt lat="40.0713751" lon="-105.2297879">
  <ele>1583.0</ele>
  <time>2026-08-28T17:55:00Z</time>
  <course>67.71</course>
  <speed>0.54</speed>
  <fix>3d</fix>
</trkpt>
<trkpt lat="40.0713754" lon="-105.2297869">
  <ele>1582.99</ele>
  <time>2026-08-28T17:55:01Z</time>
  <course>68.85</course>
  <speed>0.18027756377319945</speed>
  <fix>3d</fix>
</trkpt>
<trkpt lat="40.0713753" lon="-105.2297869">
  <ele>1583.0</ele>
  <time>2026-08-28T17:55:01Z</time>
  <course>67.85</course>
  <speed>0.35</speed>
  <fix>3d</fix>
</trkpt>
<trkpt lat="40.0713754" lon="-105.2297867">
  <ele>1582.99</ele>
  <time>2026-08-28T17:55:01Z</time>
  <course>68.88</course>
  <speed>0.0854400374531753</speed>
  <fix>3d</fix>
</trkpt>
<trkpt lat="40.0713753" lon="-105.2297869">
  <ele>1583.0</ele>
  <time>2026-08-28T17:55:01Z</time>
  <course>67.85</course>
  <speed>0.35</speed>
  <fix>3d</fix>
</trkpt>
<trkpt lat="40.0713754" lon="-105.2297866">
  <ele>1582.98</ele>
  <time>2026-08-28T17:55:01Z</time>
  <course>68.89</course>
  <speed>0.0</speed>
  <fix>3d</fix>
</trkpt>
<trkpt lat="40.0713755" lon="-105.2297864">
  <ele>1583.0</ele>
  <time>2026-08-28T17:55:01Z</time>
  <course>67.94</course>
  <speed>0.16</speed>
  <fix>3d</fix>
</trkpt>
<trkpt lat="40.0713754" lon="-105.2297866">
  <ele>1582.98</ele>
  <time>2026-08-28T17:55:01Z</time>
  <course>68.89</course>
  <speed>0.0670820393249937</speed>
  <fix>3d</fix>
</trkpt>
<trkpt lat="40.0713755" lon="-105.2297864">
  <ele>1583.0</ele>
  <time>2026-08-28T17:55:01Z</time>
  <course>67.94</course>
  <speed>0.16</speed>
  <fix>3d</fix>
</trkpt>
<trkpt lat="40.0713754" lon="-105.2297866">
  <ele>1582.99</ele>
  <time>2026-08-28T17:55:01Z</time>
  <course>68.89</course>
  <speed>0.14317821063276354</speed>
  <fix>3d</fix>
</trkpt>
<trkpt lat="40.0713756" lon="-105.2297861">
  <ele>1583.0</ele>
  <time>2026-08-28T17:55:01Z</time>
  <course>70.82</course>
  <speed>0.0</speed>
  <fix>3d</fix>
</trkpt>
<trkpt lat="40.0713754" lon="-105.2297867">
  <ele>1582.99</ele>
  <time>2026-08-28T17:55:01Z</time>
  <course>68.9</course>
  <speed>0.20615528128088303</speed>
  <fix>3d</fix>
</trkpt>
<trkpt lat="40.0713756" lon="-105.2297861">
  <ele>1583.0</ele>
  <time>2026-08-28T17:55:01Z</time>
  <course>70.82</course>
  <speed>0.0</speed>
  <fix>3d</fix>
</trkpt>
<trkpt lat="40.0713754" lon="-105.2297869">
  <ele>1582.99</ele>
  <time>2026-08-28T17:55:01Z</time>
  <course>68.9</course>
  <speed>0.25079872407968906</speed>
  <fix>3d</fix>
</trkpt>
<trkpt lat="40.0713756" lon="-105.2297861">
  <ele>1583.0</ele>
  <time>2026-08-28T17:55:01Z</time>
  <course>70.82</course>
  <speed>0.0</speed>
  <fix>3d</fix>
</trkpt>
<trkpt lat="40.0713753" lon="-105.2297872">
  <ele>1582.98</ele>
  <time>2026-08-28T17:55:01Z</time>
  <course>68.9</course>
  <speed>0.29546573405388316</speed>
  <fix>3d</fix>
</trkpt>
<trkpt lat="40.0713755" lon="-105.2297863">
  <ele>1583.0</ele>
  <time>2026-08-28T17:55:01Z</time>
  <course>247.95</course>
  <speed>0.13</speed>
  <fix>3d</fix>
</trkpt>
<trkpt lat="40.0713752" lon="-105.2297875">
  <ele>1582.98</ele>
  <time>2026-08-28T17:55:01Z</time>
  <course>68.89</course>
  <speed>0.32695565448543634</speed>
  <fix>3d</fix>
</trkpt>
<trkpt lat="40.0713755" lon="-105.2297863">
  <ele>1583.0</ele>
  <time>2026-08-28T17:55:01Z</time>
  <course>247.95</course>
  <speed>0.13</speed>
  <fix>3d</fix>
</trkpt>
<trkpt lat="40.0713751" lon="-105.2297878">
  <ele>1582.98</ele>
  <time>2026-08-28T17:55:01Z</time>
  <course>68.87</course>
  <speed>0.34928498393145957</speed>
  <fix>3d</fix>
</trkpt>
<trkpt lat="40.0713755" lon="-105.2297866">
  <ele>1583.0</ele>
  <time>2026-08-28T17:55:01Z</time>
  <course>247.94</course>
  <speed>0.23</speed>
  <fix>3d</fix>
</trkpt>
<trkpt lat="40.071375" lon="-105.2297881">
  <ele>1582.98</ele>
  <time>2026-08-28T17:55:01Z</time>
  <course>68.84</course>
  <speed>0.3624913792078372</speed>
  <fix>3d</fix>
</trkpt>
<trkpt lat="40.0713755" lon="-105.2297866">
  <ele>1583.0</ele>
  <time>2026-08-28T17:55:01Z</time>
  <course>247.94</course>
  <speed>0.23</speed>
  <fix>3d</fix>
</trkpt>
<trkpt lat="40.0713748" lon="-105.2297884">
  <ele>1582.98</ele>
  <time>2026-08-28T17:55:01Z</time>
  <course>68.8</course>
  <speed>0.35341194094144585</speed>
  <fix>3d</fix>
</trkpt>
<trkpt lat="40.0713753" lon="-105.2297872">
  <ele>1583.0</ele>
  <time>2026-08-28T17:55:01Z</time>
  <course>247.91</course>
  <speed>0.28</speed>
  <fix>3d</fix>
</trkpt>
<trkpt lat="40.0713747" lon="-105.2297888">
  <ele>1582.98</ele>
  <time>2026-08-28T17:55:01Z</time>
  <course>68.76</course>
  <speed>0.35341194094144585</speed>
  <fix>3d</fix>
</trkpt>
<trkpt lat="40.0713753" lon="-105.2297872">
  <ele>1583.0</ele>
  <time>2026-08-28T17:55:01Z</time>
  <course>247.91</course>
  <speed>0.28</speed>
  <fix>3d</fix>
</trkpt>
<trkpt lat="40.0713746" lon="-105.2297891">
  <ele>1582.97</ele>
  <time>2026-08-28T17:55:01Z</time>
  <course>68.71</course>
  <speed>0.34438350715445126</speed>
  <fix>3d</fix>
</trkpt>
<trkpt lat="40.0713752" lon="-105.2297878">
  <ele>1583.0</ele>
  <time>2026-08-28T17:55:01Z</time>
  <course>247.85</course>
  <speed>0.29</speed>
  <fix>3d</fix>
</trkpt>
<trkpt lat="40.0713745" lon="-105.2297894">
  <ele>1582.97</ele>
  <time>2026-08-28T17:55:01Z</time>
  <course>68.66</course>
  <speed>0.32202484376209234</speed>
  <fix>3d</fix>
</trkpt>
<trkpt lat="40.0713749" lon="-105.2297885">
  <ele>1583.0</ele>
  <time>2026-08-28T17:55:01Z</time>
  <course>247.76</course>
  <speed>0.28</speed>
  <fix>3d</fix>
</trkpt>
<trkpt lat="40.0713744" lon="-105.2297896">
  <ele>1582.97</ele>
  <time>2026-08-28T17:55:01Z</time>
  <course>68.61</course>
  <speed>0.29966648127543394</speed>
  <fix>3d</fix>
</trkpt>
<trkpt lat="40.0713749" lon="-105.2297885">
  <ele>1583.0</ele>
  <time>2026-08-28T17:55:01Z</time>
  <course>247.76</course>
  <speed>0.28</speed>
  <fix>3d</fix>
</trkpt>
<trkpt lat="40.0713744" lon="-105.2297899">
  <ele>1582.97</ele>
  <time>2026-08-28T17:55:01Z</time>
  <course>68.57</course>
  <speed>0.28178005607210743</speed>
  <fix>3d</fix>
</trkpt>
<trkpt lat="40.0713748" lon="-105.2297891">
  <ele>1583.0</ele>
  <time>2026-08-28T17:55:01Z</time>
  <course>247.66</course>
  <speed>0.25</speed>
  <fix>3d</fix>
</trkpt>
<trkpt lat="40.0713743" lon="-105.2297901">
  <ele>1582.97</ele>
  <time>2026-08-28T17:55:01Z</time>
  <course>68.57</course>
  <speed>0.25059928172283336</speed>
  <fix>3d</fix>
</trkpt>
<trkpt lat="40.0713748" lon="-105.2297891">
  <ele>1583.0</ele>
  <time>2026-08-28T17:55:01Z</time>
  <course>247.66</course>
  <speed>0.25</speed>
  <fix>3d</fix>
</trkpt>
<trkpt lat="40.0713742" lon="-105.2297903">
  <ele>1582.97</ele>
  <time>2026-08-28T17:55:01Z</time>
  <course>68.57</course>
  <speed>0.22825424421026652</speed>
  <fix>3d</fix>
</trkpt>
<trkpt lat="40.0713746" lon="-105.2297896">
  <ele>1583.0</ele>
  <time>2026-08-28T17:55:01Z</time>
  <course>247.61</course>
  <speed>0.2</speed>
  <fix>3d</fix>
</trkpt>
<trkpt lat="40.0713742" lon="-105.2297905">
  <ele>1582.97</ele>
  <time>2026-08-28T17:55:01Z</time>
  <course>68.57</course>
  <speed>0.1972308292331602</speed>
  <fix>3d</fix>
</trkpt>
<trkpt lat="40.0713746" lon="-105.2297896">
  <ele>1583.0</ele>
  <time>2026-08-28T17:55:01Z</time>
  <course>247.61</course>
  <speed>0.2</speed>
  <fix>3d</fix>
</trkpt>
<trkpt lat="40.0713741" lon="-105.2297906">
  <ele>1582.97</ele>
  <time>2026-08-28T17:55:01Z</time>
  <course>68.57</course>
  <speed>0.17492855684535902</speed>
  <fix>3d</fix>
</trkpt>
<trkpt lat="40.0713745" lon="-105.22979">
  <ele>1583.0</ele>
  <time>2026-08-28T17:55:01Z</time>
  <course>247.6</course>
  <speed>0.16</speed>
  <fix>3d</fix>
</trkpt>
<trkpt lat="40.0713741" lon="-105.2297907">
  <ele>1582.97</ele>
  <time>2026-08-28T17:55:01Z</time>
  <course>68.57</course>
  <speed>0.14422205101855956</speed>
  <fix>3d</fix>
</trkpt>
<trkpt lat="40.0713745" lon="-105.22979">
  <ele>1583.0</ele>
  <time>2026-08-28T17:55:01Z</time>
  <course>247.6</course>
  <speed>0.16</speed>
  <fix>3d</fix>
</trkpt>
<trkpt lat="40.071374" lon="-105.2297908">
  <ele>1582.98</ele>
  <time>2026-08-28T17:55:01Z</time>
  <course>68.57</course>
  <speed>0.12806248474865697</speed>
  <fix>3d</fix>
</trkpt>
<trkpt lat="40.0713744" lon="-105.2297902">
  <ele>1583.0</ele>
  <time>2026-08-28T17:55:01Z</time>
  <course>247.6</course>
  <speed>0.11</speed>
  <fix>3d</fix>
</trkpt>
<trkpt lat="40.071374" lon="-105.2297909">
  <ele>1582.98</ele>
  <time>2026-08-28T17:55:01Z</time>
  <course>68.57</course>
  <speed>0.12806248474865697</speed>
  <fix>3d</fix>
</trkpt>
<trkpt lat="40.0713744" lon="-105.2297902">
  <ele>1583.0</ele>
  <time>2026-08-28T17:55:01Z</time>
  <course>247.6</course>
  <speed>0.11</speed>
  <fix>3d</fix>
</trkpt>
<trkpt lat="40.071374" lon="-105.2297909">
  <ele>1582.98</ele>
  <time>2026-08-28T17:55:01Z</time>
  <course>68.57</course>
  <speed>0.11401754250991379</speed>
  <fix>3d</fix>
</trkpt>
<trkpt lat="40.0713743" lon="-105.2297905">
  <ele>1583.0</ele>
  <time>2026-08-28T17:55:01Z</time>
  <course>247.59</course>
  <speed>0.09</speed>
  <fix>3d</fix>
</trkpt>
<trkpt lat="40.0713739" lon="-105.229791">
  <ele>1582.99</ele>
  <time>2026-08-28T17:55:01Z</time>
  <course>68.57</course>
  <speed>0.1063014581273465</speed>
  <fix>3d</fix>
</trkpt>
<trkpt lat="40.0713743" lon="-105.2297905">
  <ele>1583.0</ele>
  <time>2026-08-28T17:55:01Z</time>
  <course>247.59</course>
  <speed>0.09</speed>
  <fix>3d</fix>
</trkpt>
<trkpt lat="40.0713739" lon="-105.2297911">
  <ele>1582.98</ele>
  <time>2026-08-28T17:55:01Z</time>
  <course>68.56</course>
  <speed>0.1063014581273465</speed>
  <fix>3d</fix>
</trkpt>
<trkpt lat="40.0713742" lon="-105.2297907">
  <ele>1583.0</ele>
  <time>2026-08-28T17:55:01Z</time>
  <course>247.59</course>
  <speed>0.08</speed>
  <fix>3d</fix>
</trkpt>
<trkpt lat="40.0713739" lon="-105.2297911">
  <ele>1582.98</ele>
  <time>2026-08-28T17:55:01Z</time>
  <course>68.56</course>
  <speed>0.09899494936611665</speed>
  <fix>3d</fix>
</trkpt>
<trkpt lat="40.0713742" lon="-105.2297907">
  <ele>1583.0</ele>
  <time>2026-08-28T17:55:01Z</time>
  <course>247.59</course>
  <speed>0.08</speed>
  <fix>3d</fix>
</trkpt>
<trkpt lat="40.0713738" lon="-105.2297912">
  <ele>1582.98</ele>
  <time>2026-08-28T17:55:01Z</time>
  <course>68.56</course>
  <speed>0.09899494936611665</speed>
  <fix>3d</fix>
</trkpt>
<trkpt lat="40.0713742" lon="-105.2297907">
  <ele>1583.0</ele>
  <time>2026-08-28T17:55:01Z</time>
  <course>247.59</course>
  <speed>0.08</speed>
  <fix>3d</fix>
</trkpt>
<trkpt lat="40.0713738" lon="-105.2297912">
  <ele>1582.98</ele>
  <time>2026-08-28T17:55:01Z</time>
  <course>68.55</course>
  <speed>0.09219544457292887</speed>
  <fix>3d</fix>
</trkpt>
<trkpt lat="40.0713742" lon="-105.2297908">
  <ele>1583.0</ele>
  <time>2026-08-28T17:55:01Z</time>
  <course>247.59</course>
  <speed>0.07</speed>
  <fix>3d</fix>
</trkpt>
<trkpt lat="40.0713738" lon="-105.2297913">
  <ele>1582.99</ele>
  <time>2026-08-28T17:55:01Z</time>
  <course>68.55</course>
  <speed>0.09219544457292887</speed>
  <fix>3d</fix>
</trkpt>
<trkpt lat="40.0713742" lon="-105.2297908">
  <ele>1583.0</ele>
  <time>2026-08-28T17:55:01Z</time>
  <course>247.59</course>
  <speed>0.07</speed>
  <fix>3d</fix>
</trkpt>
<trkpt lat="40.0713738" lon="-105.2297913">
  <ele>1582.99</ele>
  <time>2026-08-28T17:55:01Z</time>
  <course>68.55</course>
  <speed>0.07810249675906654</speed>
  <fix>3d</fix>
</trkpt>
<trkpt lat="40.0713742" lon="-105.229791">
  <ele>1583.0</ele>
  <time>2026-08-28T17:55:01Z</time>
  <course>247.59</course>
  <speed>0.06</speed>
  <fix>3d</fix>
</trkpt>
<trkpt lat="40.0713738" lon="-105.2297914">
  <ele>1582.99</ele>
  <time>2026-08-28T17:55:01Z</time>
  <course>68.54</course>
  <speed>0.07810249675906654</speed>
  <fix>3d</fix>
</trkpt>
<trkpt lat="40.0713742" lon="-105.229791">
  <ele>1583.0</ele>
  <time>2026-08-28T17:55:01Z</time>
  <course>247.59</course>
  <speed>0.06</speed>
  <fix>3d</fix>
</trkpt>
<trkpt lat="40.0713737" lon="-105.2297914">
  <ele>1583.0</ele>
  <time>2026-08-28T17:55:01Z</time>
  <course>68.54</course>
  <speed>0.07810249675906654</speed>
  <fix>3d</fix>
</trkpt>
<trkpt lat="40.0713741" lon="-105.2297911">
  <ele>1583.0</ele>
  <time>2026-08-28T17:55:01Z</time>
  <course>247.58</course>
  <speed>0.06</speed>
  <fix>3d</fix>
</trkpt>
<trkpt lat="40.0713737" lon="-105.2297914">
  <ele>1583.0</ele>
  <time>2026-08-28T17:55:01Z</time>
  <course>68.53</course>
  <speed>0.07211102550927978</speed>
  <fix>3d</fix>
</trkpt>
<trkpt lat="40.0713741" lon="-105.2297913">
  <ele>1583.0</ele>
  <time>2026-08-28T17:55:01Z</time>
  <course>247.58</course>
  <speed>0.05</speed>
  <fix>3d</fix>
</trkpt>
<trkpt lat="40.0713737" lon="-105.2297915">
  <ele>1583.0</ele>
  <time>2026-08-28T17:55:01Z</time>
  <course>68.53</course>
  <speed>0.04</speed>
  <fix>3d</fix>
</trkpt>
<trkpt lat="40.0713741" lon="-105.2297913">
  <ele>1583.0</ele>
  <time>2026-08-28T17:55:01Z</time>
  <course>247.58</course>
  <speed>0.05</speed>
  <fix>3d</fix>
</trkpt>
<trkpt lat="40.0713737" lon="-105.2297914">
  <ele>1583.0</ele>
  <time>2026-08-28T17:55:01Z</time>
  <course>68.52</course>
  <speed>0.12</speed>
  <fix>3d</fix>
</trkpt>
<trkpt lat="40.0713741" lon="-105.2297914">
  <ele>1583.0</ele>
  <time>2026-08-28T17:55:01Z</time>
  <course>67.67</course>
  <speed>0.03</speed>
  <fix>3d</fix>
</trkpt>
<trkpt lat="40.0713738" lon="-105.2297912">
  <ele>1583.0</ele>
  <time>2026-08-28T17:55:01Z</time>
  <course>68.52</course>
  <speed>0.33955853692699295</speed>
  <fix>3d</fix>
</trkpt>
<trkpt lat="40.0713741" lon="-105.2297914">
  <ele>1583.0</ele>
  <time>2026-08-28T17:55:01Z</time>
  <course>67.67</course>
  <speed>0.03</speed>
  <fix>3d</fix>
</trkpt>
<trkpt lat="40.0713739" lon="-105.2297906">
  <ele>1583.0</ele>
  <time>2026-08-28T17:55:01Z</time>
  <course>68.51</course>
  <speed>0.6609841147864296</speed>
  <fix>3d</fix>
</trkpt>
<trkpt lat="40.0713741" lon="-105.229791">
  <ele>1583.0</ele>
  <time>2026-08-28T17:55:01Z</time>
  <course>67.62</course>
  <speed>0.39</speed>
  <fix>3d</fix>
</trkpt>
<trkpt lat="40.0713742" lon="-105.2297896">
  <ele>1583.0</ele>
  <time>2026-08-28T17:55:01Z</time>
  <course>68.51</course>
  <speed>1.0594810050208545</speed>
  <fix>3d</fix>
</trkpt>
<trkpt lat="40.0713741" lon="-105.229791">
  <ele>1583.0</ele>
  <time>2026-08-28T17:55:01Z</time>
  <course>67.62</course>
  <speed>0.39</speed>
  <fix>3d</fix>
</trkpt>
<trkpt lat="40.0713747" lon="-105.2297881">
  <ele>1583.0</ele>
  <time>2026-08-28T17:55:02Z</time>
  <course>68.5</course>
  <speed>1.54042202009709</speed>
  <fix>3d</fix>
</trkpt>
<trkpt lat="40.0713746" lon="-105.2297895">
  <ele>1583.0</ele>
  <time>2026-08-28T17:55:02Z</time>
  <course>67.62</course>
  <speed>1.1</speed>
  <fix>3d</fix>
</trkpt>
<trkpt lat="40.0713753" lon="-105.229786">
  <ele>1582.99</ele>
  <time>2026-08-28T17:55:02Z</time>
  <course>68.49</course>
  <speed>2.1009045670853306</speed>
  <fix>3d</fix>
</trkpt>
<trkpt lat="40.0713746" lon="-105.2297895">
  <ele>1583.0</ele>
  <time>2026-08-28T17:55:02Z</time>
  <course>67.62</course>
  <speed>1.1</speed>
  <fix>3d</fix>
</trkpt>
<trkpt lat="40.0713761" lon="-105.2297833">
  <ele>1582.99</ele>
  <time>2026-08-28T17:55:02Z</time>
  <course>68.48</course>
  <speed>2.7247201691182896</speed>
  <fix>3d</fix>
</trkpt>
<trkpt lat="40.0713757" lon="-105.2297859">
  <ele>1583.0</ele>
  <time>2026-08-28T17:55:02Z</time>
  <course>67.62</course>
  <speed>2.12</speed>
  <fix>3d</fix>
</trkpt>
<trkpt lat="40.0713772" lon="-105.2297797">
  <ele>1582.99</ele>
  <time>2026-08-28T17:55:02Z</time>
  <course>68.47</course>
  <speed>3.424675167077894</speed>
  <fix>3d</fix>
</trkpt>
<trkpt lat="40.0713757" lon="-105.2297859">
  <ele>1583.0</ele>
  <time>2026-08-28T17:55:02Z</time>
  <course>67.62</course>
  <speed>2.12</speed>
  <fix>3d</fix>
</trkpt>
<trkpt lat="40.0713785" lon="-105.2297755">
  <ele>1582.99</ele>
  <time>2026-08-28T17:55:02Z</time>
  <course>68.45</course>
  <speed>4.187851477786671</speed>
  <fix>3d</fix>
</trkpt>
<trkpt lat="40.0713776" lon="-105.22978">
  <ele>1583.0</ele>
  <time>2026-08-28T17:55:02Z</time>
  <course>67.62</course>
  <speed>3.43</speed>
  <fix>3d</fix>
</trkpt>
<trkpt lat="40.0713801" lon="-105.2297703">
  <ele>1582.98</ele>
  <time>2026-08-28T17:55:02Z</time>
  <course>68.43</course>
  <speed>4.976906669810074</speed>
  <fix>3d</fix>
</trkpt>
<trkpt lat="40.0713776" lon="-105.22978">
  <ele>1583.0</ele>
  <time>2026-08-28T17:55:02Z</time>
  <course>67.62</course>
  <speed>3.43</speed>
  <fix>3d</fix>
</trkpt>
<trkpt lat="40.071382" lon="-105.2297643">
  <ele>1582.98</ele>
  <time>2026-08-28T17:55:02Z</time>
  <course>68.4</course>
  <speed>5.717849246001507</speed>
  <fix>3d</fix>
</trkpt>
<trkpt lat="40.0713804" lon="-105.229771">
  <ele>1583.0</ele>
  <time>2026-08-28T17:55:02Z</time>
  <course>67.62</course>
  <speed>4.9</speed>
  <fix>3d</fix>
</trkpt>
<trkpt lat="40.0713841" lon="-105.2297574">
  <ele>1582.98</ele>
  <time>2026-08-28T17:55:02Z</time>
  <course>68.37</course>
  <speed>6.4308397585385375</speed>
  <fix>3d</fix>
</trkpt>
<trkpt lat="40.0713804" lon="-105.229771">
  <ele>1583.0</ele>
  <time>2026-08-28T17:55:02Z</time>
  <course>67.62</course>
  <speed>4.9</speed>
  <fix>3d</fix>
</trkpt>
<trkpt lat="40.0713864" lon="-105.2297499">
  <ele>1582.98</ele>
  <time>2026-08-28T17:55:02Z</time>
  <course>68.33</course>
  <speed>7.11227108594716</speed>
  <fix>3d</fix>
</trkpt>
<trkpt lat="40.0713804" lon="-105.229771">
  <ele>1583.0</ele>
  <time>2026-08-28T17:55:02Z</time>
  <course>67.62</course>
  <speed>4.9</speed>
  <fix>3d</fix>
</trkpt>
<trkpt lat="40.071389" lon="-105.2297417">
  <ele>1582.98</ele>
  <time>2026-08-28T17:55:02Z</time>
  <course>68.29</course>
  <speed>7.749174149546518</speed>
  <fix>3d</fix>
</trkpt>
<trkpt lat="40.0713843" lon="-105.2297587">
  <ele>1583.0</ele>
  <time>2026-08-28T17:55:02Z</time>
  <course>67.62</course>
  <speed>6.34</speed>
  <fix>3d</fix>
</trkpt>
<trkpt lat="40.0713918" lon="-105.2297328">
  <ele>1582.98</ele>
  <time>2026-08-28T17:55:02Z</time>
  <course>68.25</course>
  <speed>8.358187602584666</speed>
  <fix>3d</fix>
</trkpt>
<trkpt lat="40.0713843" lon="-105.2297587">
  <ele>1583.0</ele>
  <time>2026-08-28T17:55:02Z</time>
  <course>67.62</course>
  <speed>6.34</speed>
  <fix>3d</fix>
</trkpt>
<trkpt lat="40.0713947" lon="-105.2297234">
  <ele>1582.98</ele>
  <time>2026-08-28T17:55:02Z</time>
  <course>68.21</course>
  <speed>8.941258300709135</speed>
  <fix>3d</fix>
</trkpt>
<trkpt lat="40.0713891" lon="-105.2297434">
  <ele>1583.0</ele>
  <time>2026-08-28T17:55:02Z</time>
  <course>67.62</course>
  <speed>7.64</speed>
  <fix>3d</fix>
</trkpt>
<trkpt lat="40.0713979" lon="-105.2297133">
  <ele>1582.98</ele>
  <time>2026-08-28T17:55:02Z</time>
  <course>68.16</course>
  <speed>9.483469829129</speed>
  <fix>3d</fix>
</trkpt>
<trkpt lat="40.0713891" lon="-105.2297434">
  <ele>1583.0</ele>
  <time>2026-08-28T17:55:02Z</time>
  <course>67.62</course>
  <speed>7.64</speed>
  <fix>3d</fix>
</trkpt>
<trkpt lat="40.0714013" lon="-105.2297027">
  <ele>1582.99</ele>
  <time>2026-08-28T17:55:02Z</time>
  <course>68.12</course>
  <speed>10.007122463525667</speed>
  <fix>3d</fix>
</trkpt>
<trkpt lat="40.0713947" lon="-105.2297256">
  <ele>1583.0</ele>
  <time>2026-08-28T17:55:02Z</time>
  <course>67.62</course>
  <speed>8.82</speed>
  <fix>3d</fix>
</trkpt>
<trkpt lat="40.0714048" lon="-105.2296916">
  <ele>1582.99</ele>
  <time>2026-08-28T17:55:02Z</time>
  <course>68.08</course>
  <speed>10.504789383895329</speed>
  <fix>3d</fix>
</trkpt>
<trkpt lat="40.0713947" lon="-105.2297256">
  <ele>1583.0</ele>
  <time>2026-08-28T17:55:02Z</time>
  <course>67.62</course>
  <speed>8.82</speed>
  <fix>3d</fix>
</trkpt>
<trkpt lat="40.0714085" lon="-105.2296798">
  <ele>1582.99</ele>
  <time>2026-08-28T17:55:02Z</time>
  <course>68.04</course>
  <speed>10.983901856808446</speed>
  <fix>3d</fix>
</trkpt>
<trkpt lat="40.0714011" lon="-105.2297052">
  <ele>1583.0</ele>
  <time>2026-08-28T17:55:02Z</time>
  <course>67.62</course>
  <speed>9.88</speed>
  <fix>3d</fix>
</trkpt>
<trkpt lat="40.0714124" lon="-105.2296677">
  <ele>1582.98</ele>
  <time>2026-08-28T17:55:02Z</time>
  <course>68.01</course>
  <speed>11.427725057945697</speed>
  <fix>3d</fix>
</trkpt>
<trkpt lat="40.0714082" lon="-105.2296827">
  <ele>1583.0</ele>
  <time>2026-08-28T17:55:02Z</time>
  <course>67.62</course>
  <speed>10.84</speed>
  <fix>3d</fix>
</trkpt>
<trkpt lat="40.0714164" lon="-105.2296549">
  <ele>1582.98</ele>
  <time>2026-08-28T17:55:02Z</time>
  <course>67.98</course>
  <speed>11.866022922613963</speed>
  <fix>3d</fix>
</trkpt>
<trkpt lat="40.0714082" lon="-105.2296827">
  <ele>1583.0</ele>
  <time>2026-08-28T17:55:02Z</time>
  <course>67.62</course>
  <speed>10.84</speed>
  <fix>3d</fix>
</trkpt>
<trkpt lat="40.0714205" lon="-105.2296419">
  <ele>1582.98</ele>
  <time>2026-08-28T17:55:02Z</time>
  <course>67.95</course>
  <speed>12.265272112758037</speed>
  <fix>3d</fix>
</trkpt>
<trkpt lat="40.071416" lon="-105.2296582">
  <ele>1583.0</ele>
  <time>2026-08-28T17:55:02Z</time>
  <course>67.62</course>
  <speed>11.71</speed>
  <fix>3d</fix>
</trkpt>
<trkpt lat="40.0714249" lon="-105.2296282">
  <ele>1582.98</ele>
  <time>2026-08-28T17:55:02Z</time>
  <course>67.92</course>
  <speed>12.659008649969396</speed>
  <fix>3d</fix>
</trkpt>
<trkpt lat="40.071416" lon="-105.2296582">
  <ele>1583.0</ele>
  <time>2026-08-28T17:55:02Z</time>
  <course>67.62</course>
  <speed>11.71</speed>
  <fix>3d</fix>
</trkpt>
<trkpt lat="40.0714293" lon="-105.2296141">
  <ele>1582.97</ele>
  <time>2026-08-28T17:55:02Z</time>
  <course>67.9</course>
  <speed>13.030464304851153</speed>
  <fix>3d</fix>
</trkpt>
<trkpt lat="40.0714242" lon="-105.2296319">
  <ele>1583.0</ele>
  <time>2026-08-28T17:55:02Z</time>
  <course>67.62</course>
  <speed>12.5</speed>
  <fix>3d</fix>
</trkpt>
<trkpt lat="40.0714339" lon="-105.2295997">
  <ele>1582.97</ele>
  <time>2026-08-28T17:55:02Z</time>
  <course>67.88</course>
  <speed>13.388894651912082</speed>
  <fix>3d</fix>
</trkpt>
<trkpt lat="40.0714242" lon="-105.2296319">
  <ele>1583.0</ele>
  <time>2026-08-28T17:55:02Z</time>
  <course>67.62</course>
  <speed>12.5</speed>
  <fix>3d</fix>
</trkpt>
<trkpt lat="40.0714387" lon="-105.2295847">
  <ele>1582.97</ele>
  <time>2026-08-28T17:55:02Z</time>
  <course>67.87</course>
  <speed>13.725031876101419</speed>
  <fix>3d</fix>
</trkpt>
<trkpt lat="40.071433" lon="-105.229604">
  <ele>1583.0</ele>
  <time>2026-08-28T17:55:02Z</time>
  <course>67.62</course>
  <speed>13.21</speed>
  <fix>3d</fix>
</trkpt>
<trkpt lat="40.0714435" lon="-105.2295695">
  <ele>1582.96</ele>
  <time>2026-08-28T17:55:02Z</time>
  <course>67.85</course>
  <speed>14.051910902080188</speed>
  <fix>3d</fix>
</trkpt>
<trkpt lat="40.071433" lon="-105.229604">
  <ele>1583.0</ele>
  <time>2026-08-28T17:55:02Z</time>
  <course>67.62</course>
  <speed>13.21</speed>
  <fix>3d</fix>
</trkpt>
<trkpt lat="40.0714484" lon="-105.229554">
  <ele>1582.96</ele>
  <time>2026-08-28T17:55:02Z</time>
  <course>67.84</course>
  <speed>14.356496787169215</speed>
  <fix>3d</fix>
</trkpt>
<trkpt lat="40.0714423" lon="-105.2295746">
  <ele>1583.0</ele>
  <time>2026-08-28T17:55:02Z</time>
  <course>67.62</course>
  <speed>13.86</speed>
  <fix>3d</fix>
</trkpt>
<trkpt lat="40.0714534" lon="-105.2295382">
  <ele>1582.96</ele>
  <time>2026-08-28T17:55:02Z</time>
  <course>67.83</course>
  <speed>14.648044238054444</speed>
  <fix>3d</fix>
</trkpt>
<trkpt lat="40.0714423" lon="-105.2295746">
  <ele>1583.0</ele>
  <time>2026-08-28T17:55:02Z</time>
  <course>67.62</course>
  <speed>13.86</speed>
  <fix>3d</fix>
</trkpt>
<trkpt lat="40.0714585" lon="-105.2295221">
  <ele>1582.96</ele>
  <time>2026-08-28T17:55:02Z</time>
  <course>67.82</course>
  <speed>14.921079049452155</speed>
  <fix>3d</fix>
</trkpt>
<trkpt lat="40.071452" lon="-105.2295439">
  <ele>1583.0</ele>
  <time>2026-08-28T17:55:02Z</time>
  <course>67.62</course>
  <speed>14.44</speed>
  <fix>3d</fix>
</trkpt>
<trkpt lat="40.0714637" lon="-105.2295057">
  <ele>1582.96</ele>
  <time>2026-08-28T17:55:02Z</time>
  <course>67.81</course>
  <speed>15.181073743316052</speed>
  <fix>3d</fix>
</trkpt>
<trkpt lat="40.071452" lon="-105.2295439">
  <ele>1583.0</ele>
  <time>2026-08-28T17:55:02Z</time>
  <course>67.62</course>
  <speed>14.44</speed>
  <fix>3d</fix>
</trkpt>
<trkpt lat="40.071469" lon="-105.2294891">
  <ele>1582.95</ele>
  <time>2026-08-28T17:55:02Z</time>
  <course>67.8</course>
  <speed>15.42802644540124</speed>
  <fix>3d</fix>
</trkpt>
<trkpt lat="40.0714621" lon="-105.2295119">
  <ele>1583.0</ele>
  <time>2026-08-28T17:55:02Z</time>
  <course>67.62</course>
  <speed>14.97</speed>
  <fix>3d</fix>
</trkpt>
<trkpt lat="40.0714743" lon="-105.2294722">
  <ele>1582.95</ele>
  <time>2026-08-28T17:55:02Z</time>
  <course>67.79</course>
  <speed>15.66951179839372</speed>
  <fix>3d</fix>
</trkpt>
<trkpt lat="40.0714621" lon="-105.2295119">
  <ele>1583.0</ele>
  <time>2026-08-28T17:55:02Z</time>
  <course>67.62</course>
  <speed>14.97</speed>
  <fix>3d</fix>
</trkpt>
<trkpt lat="40.0714797" lon="-105.2294551">
  <ele>1582.95</ele>
  <time>2026-08-28T17:55:02Z</time>
  <course>67.78</course>
  <speed>15.884911079385997</speed>
  <fix>3d</fix>
</trkpt>
<trkpt lat="40.0714621" lon="-105.2295119">
  <ele>1583.0</ele>
  <time>2026-08-28T17:55:02Z</time>
  <course>67.62</course>
  <speed>14.97</speed>
  <fix>3d</fix>
</trkpt>
<trkpt lat="40.0714851" lon="-105.2294379">
  <ele>1582.95</ele>
  <time>2026-08-28T17:55:02Z</time>
  <course>67.78</course>
  <speed>16.091056522180263</speed>
  <fix>3d</fix>
</trkpt>
<trkpt lat="40.0714725" lon="-105.2294788">
  <ele>1583.0</ele>
  <time>2026-08-28T17:55:02Z</time>
  <course>67.62</course>
  <speed>15.45</speed>
  <fix>3d</fix>
</trkpt>
<trkpt lat="40.0714906" lon="-105.2294205">
  <ele>1582.95</ele>
  <time>2026-08-28T17:55:02Z</time>
  <course>67.77</course>
  <speed>16.28794953332064</speed>
  <fix>3d</fix>
</trkpt>
<trkpt lat="40.0714725" lon="-105.2294788">
  <ele>1583.0</ele>
  <time>2026-08-28T17:55:02Z</time>
  <course>67.62</course>
  <speed>15.45</speed>
  <fix>3d</fix>
</trkpt>
<trkpt lat="40.0714962" lon="-105.2294029">
  <ele>1582.95</ele>
  <time>2026-08-28T17:55:02Z</time>
  <course>67.77</course>
  <speed>16.471797108998157</speed>
  <fix>3d</fix>
</trkpt>
<trkpt lat="40.0714832" lon="-105.2294447">
  <ele>1583.0</ele>
  <time>2026-08-28T17:55:02Z</time>
  <course>67.62</course>
  <speed>15.88</speed>
  <fix>3d</fix>
</trkpt>
<trkpt lat="40.0715018" lon="-105.2293852">
  <ele>1582.96</ele>
  <time>2026-08-28T17:55:02Z</time>
  <course>67.77</course>
  <speed>16.63334602537926</speed>
  <fix>3d</fix>
</trkpt>
<trkpt lat="40.0714832" lon="-105.2294447">
  <ele>1583.0</ele>
  <time>2026-08-28T17:55:02Z</time>
  <course>67.62</course>
  <speed>15.88</speed>
  <fix>3d</fix>
</trkpt>
<trkpt lat="40.0715074" lon="-105.2293674">
  <ele>1582.96</ele>
  <time>2026-08-28T17:55:02Z</time>
  <course>67.77</course>
  <speed>16.798690425149218</speed>
  <fix>3d</fix>
</trkpt>
<trkpt lat="40.0714942" lon="-105.2294098">
  <ele>1583.0</ele>
  <time>2026-08-28T17:55:02Z</time>
  <course>67.62</course>
  <speed>16.27</speed>
  <fix>3d</fix>
</trkpt>
<trkpt lat="40.0715131" lon="-105.2293492">
  <ele>1582.97</ele>
  <time>2026-08-28T17:55:02Z</time>
  <course>67.76</course>
  <speed>16.947191507739564</speed>
  <fix>3d</fix>
</trkpt>
<trkpt lat="40.0715055" lon="-105.2293741">
  <ele>1583.0</ele>
  <time>2026-08-28T17:55:02Z</time>
  <course>67.62</course>
  <speed>16.63</speed>
  <fix>3d</fix>
</trkpt>
<trkpt lat="40.0715189" lon="-105.2293308">
  <ele>1582.97</ele>
  <time>2026-08-28T17:55:02Z</time>
  <course>67.76</course>
  <speed>17.09948829643741</speed>
  <fix>3d</fix>
</trkpt>
<trkpt lat="40.0715055" lon="-105.2293741">
  <ele>1583.0</ele>
  <time>2026-08-28T17:55:02Z</time>
  <course>67.62</course>
  <speed>16.63</speed>
  <fix>3d</fix>
</trkpt>
<trkpt lat="40.0715248" lon="-105.2293123">
  <ele>1582.98</ele>
  <time>2026-08-28T17:55:02Z</time>
  <course>67.76</course>
  <speed>17.251785414849095</speed>
  <fix>3d</fix>
</trkpt>
<trkpt lat="40.071517" lon="-105.2293377">
  <ele>1583.0</ele>
  <time>2026-08-28T17:55:02Z</time>
  <course>67.62</course>
  <speed>16.95</speed>
  <fix>3d</fix>
</trkpt>
<trkpt lat="40.0715306" lon="-105.2292937">
  <ele>1582.98</ele>
  <time>2026-08-28T17:55:02Z</time>
  <course>67.76</course>
  <speed>17.381783567862072</speed>
  <fix>3d</fix>
</trkpt>
<trkpt lat="40.071517" lon="-105.2293377">
  <ele>1583.0</ele>
  <time>2026-08-28T17:55:02Z</time>
  <course>67.62</course>
  <speed>16.95</speed>
  <fix>3d</fix>
</trkpt>
<trkpt lat="40.0715366" lon="-105.2292748">
  <ele>1582.98</ele>
  <time>2026-08-28T17:55:03Z</time>
  <course>67.76</course>
  <speed>17.521033074564983</speed>
  <fix>3d</fix>
</trkpt>
<trkpt lat="40.0715287" lon="-105.2293005">
  <ele>1583.0</ele>
  <time>2026-08-28T17:55:03Z</time>
  <course>67.62</course>
  <speed>17.24</speed>
  <fix>3d</fix>
</trkpt>
<trkpt lat="40.0715426" lon="-105.2292557">
  <ele>1582.98</ele>
  <time>2026-08-28T17:55:03Z</time>
  <course>67.76</course>
  <speed>17.641779955548703</speed>
  <fix>3d</fix>
</trkpt>
<trkpt lat="40.0715287" lon="-105.2293005">
  <ele>1583.0</ele>
  <time>2026-08-28T17:55:03Z</time>
  <course>67.62</course>
  <speed>17.24</speed>
  <fix>3d</fix>
</trkpt>
<trkpt lat="40.0715487" lon="-105.2292365">
  <ele>1582.98</ele>
  <time>2026-08-28T17:55:03Z</time>
  <course>67.75</course>
  <speed>17.762527973236242</speed>
  <fix>3d</fix>
</trkpt>
<trkpt lat="40.0715406" lon="-105.2292629">
  <ele>1583.0</ele>
  <time>2026-08-28T17:55:03Z</time>
  <course>67.62</course>
  <speed>17.5</speed>
  <fix>3d</fix>
</trkpt>
<trkpt lat="40.0715548" lon="-105.229217">
  <ele>1582.98</ele>
  <time>2026-08-28T17:55:03Z</time>
  <course>67.75</course>
  <speed>17.879477061704016</speed>
  <fix>3d</fix>
</trkpt>
<trkpt lat="40.0715406" lon="-105.2292629">
  <ele>1583.0</ele>
  <time>2026-08-28T17:55:03Z</time>
  <course>67.62</course>
  <speed>17.5</speed>
  <fix>3d</fix>
</trkpt>
<trkpt lat="40.071561" lon="-105.2291976">
  <ele>1582.98</ele>
  <time>2026-08-28T17:55:03Z</time>
  <course>67.75</course>
  <speed>17.987175987352767</speed>
  <fix>3d</fix>
</trkpt>
<trkpt lat="40.0715526" lon="-105.2292246">
  <ele>1583.0</ele>
  <time>2026-08-28T17:55:03Z</time>
  <course>67.62</course>
  <speed>17.74</speed>
  <fix>3d</fix>
</trkpt>
<trkpt lat="40.0715671" lon="-105.229178">
  <ele>1582.98</ele>
  <time>2026-08-28T17:55:03Z</time>
  <course>67.75</course>
  <speed>18.094874965028083</speed>
  <fix>3d</fix>
</trkpt>
<trkpt lat="40.0715526" lon="-105.2292246">
  <ele>1583.0</ele>
  <time>2026-08-28T17:55:03Z</time>
  <course>67.62</course>
  <speed>17.74</speed>
  <fix>3d</fix>
</trkpt>
<trkpt lat="40.0715733" lon="-105.2291583">
  <ele>1582.98</ele>
  <time>2026-08-28T17:55:03Z</time>
  <course>67.75</course>
  <speed>18.193322951016945</speed>
  <fix>3d</fix>
</trkpt>
<trkpt lat="40.0715648" lon="-105.2291859">
  <ele>1583.0</ele>
  <time>2026-08-28T17:55:03Z</time>
  <course>67.62</course>
  <speed>17.95</speed>
  <fix>3d</fix>
</trkpt>
<trkpt lat="40.0715796" lon="-105.2291386">
  <ele>1582.99</ele>
  <time>2026-08-28T17:55:03Z</time>
  <course>67.76</course>
  <speed>18.28252170790452</speed>
  <fix>3d</fix>
</trkpt>
<trkpt lat="40.0715648" lon="-105.2291859">
  <ele>1583.0</ele>
  <time>2026-08-28T17:55:03Z</time>
  <course>67.62</course>
  <speed>17.95</speed>
  <fix>3d</fix>
</trkpt>
<trkpt lat="40.0715858" lon="-105.2291187">
  <ele>1582.99</ele>
  <time>2026-08-28T17:55:03Z</time>
  <course>67.76</course>
  <speed>18.367920404879808</speed>
  <fix>3d</fix>
</trkpt>
<trkpt lat="40.0715772" lon="-105.2291467">
  <ele>1583.0</ele>
  <time>2026-08-28T17:55:03Z</time>
  <course>67.62</course>
  <speed>18.15</speed>
  <fix>3d</fix>
</trkpt>
<trkpt lat="40.0715921" lon="-105.2290988">
  <ele>1582.99</ele>
  <time>2026-08-28T17:55:03Z</time>
  <course>67.76</course>
  <speed>18.412520196866044</speed>
  <fix>3d</fix>
</trkpt>
<trkpt lat="40.0715772" lon="-105.2291467">
  <ele>1583.0</ele>
  <time>2026-08-28T17:55:03Z</time>
  <course>67.62</course>
  <speed>18.15</speed>
  <fix>3d</fix>
</trkpt>
<trkpt lat="40.0715984" lon="-105.2290789">
  <ele>1582.99</ele>
  <time>2026-08-28T17:55:03Z</time>
  <course>67.76</course>
  <speed>18.354871288025965</speed>
  <fix>3d</fix>
</trkpt>
<trkpt lat="40.0715772" lon="-105.2291467">
  <ele>1583.0</ele>
  <time>2026-08-28T17:55:03Z</time>
  <course>67.62</course>
  <speed>18.15</speed>
  <fix>3d</fix>
</trkpt>
<trkpt lat="40.0716046" lon="-105.2290593">
  <ele>1582.99</ele>
  <time>2026-08-28T17:55:03Z</time>
  <course>67.76</course>
  <speed>18.193322951016945</speed>
  <fix>3d</fix>
</trkpt>
<trkpt lat="40.0715896" lon="-105.229107">
  <ele>1583.0</ele>
  <time>2026-08-28T17:55:03Z</time>
  <course>67.62</course>
  <speed>18.24</speed>
  <fix>3d</fix>
</trkpt>
<trkpt lat="40.0716107" lon="-105.2290399">
  <ele>1583.0</ele>
  <time>2026-08-28T17:55:03Z</time>
  <course>67.76</course>
  <speed>17.946375678671167</speed>
  <fix>3d</fix>
</trkpt>
<trkpt lat="40.0715896" lon="-105.229107">
  <ele>1583.0</ele>
  <time>2026-08-28T17:55:03Z</time>
  <course>67.62</course>
  <speed>18.24</speed>
  <fix>3d</fix>
</trkpt>
<trkpt lat="40.0716166" lon="-105.2290209">
  <ele>1583.0</ele>
  <time>2026-08-28T17:55:03Z</time>
  <course>67.77</course>
  <speed>17.600980086347466</speed>
  <fix>3d</fix>
</trkpt>
<trkpt lat="40.0716021" lon="-105.2290675">
  <ele>1583.0</ele>
  <time>2026-08-28T17:55:03Z</time>
  <course>67.62</course>
  <speed>18.04</speed>
  <fix>3d</fix>
</trkpt>
<trkpt lat="40.0716225" lon="-105.2290023">
  <ele>1583.01</ele>
  <time>2026-08-28T17:55:03Z</time>
  <course>67.77</course>
  <speed>17.179435380710274</speed>
  <fix>3d</fix>
</trkpt>
<trkpt lat="40.0716021" lon="-105.2290675">
  <ele>1583.0</ele>
  <time>2026-08-28T17:55:03Z</time>
  <course>67.62</course>
  <speed>18.04</speed>
  <fix>3d</fix>
</trkpt>
<trkpt lat="40.0716282" lon="-105.2289843">
  <ele>1583.02</ele>
  <time>2026-08-28T17:55:03Z</time>
  <course>67.77</course>
  <speed>16.672492315187913</speed>
  <fix>3d</fix>
</trkpt>
<trkpt lat="40.0716143" lon="-105.229029">
  <ele>1583.0</ele>
  <time>2026-08-28T17:55:03Z</time>
  <course>67.62</course>
  <speed>17.48</speed>
  <fix>3d</fix>
</trkpt>
<trkpt lat="40.0716337" lon="-105.2289669">
  <ele>1583.02</ele>
  <time>2026-08-28T17:55:03Z</time>
  <course>67.77</course>
  <speed>16.0986490116407</speed>
  <fix>3d</fix>
</trkpt>
<trkpt lat="40.0716143" lon="-105.229029">
  <ele>1583.0</ele>
  <time>2026-08-28T17:55:03Z</time>
  <course>67.62</course>
  <speed>17.48</speed>
  <fix>3d</fix>
</trkpt>
<trkpt lat="40.071639" lon="-105.22895">
  <ele>1583.03</ele>
  <time>2026-08-28T17:55:03Z</time>
  <course>67.78</course>
  <speed>15.439407372046375</speed>
  <fix>3d</fix>
</trkpt>
<trkpt lat="40.0716259" lon="-105.2289919">
  <ele>1583.0</ele>
  <time>2026-08-28T17:55:03Z</time>
  <course>67.62</course>
  <speed>16.59</speed>
  <fix>3d</fix>
</trkpt>
<trkpt lat="40.0716441" lon="-105.228934">
  <ele>1583.04</ele>
  <time>2026-08-28T17:55:03Z</time>
  <course>67.78</course>
  <speed>14.72631657951166</speed>
  <fix>3d</fix>
</trkpt>
<trkpt lat="40.0716369" lon="-105.2289571">
  <ele>1583.0</ele>
  <time>2026-08-28T17:55:03Z</time>
  <course>67.62</course>
  <speed>15.41</speed>
  <fix>3d</fix>
</trkpt>
<trkpt lat="40.0716489" lon="-105.2289187">
  <ele>1583.04</ele>
  <time>2026-08-28T17:55:03Z</time>
  <course>67.78</course>
  <speed>13.99473115140123</speed>
  <fix>3d</fix>
</trkpt>
<trkpt lat="40.0716369" lon="-105.2289571">
  <ele>1583.0</ele>
  <time>2026-08-28T17:55:03Z</time>
  <course>67.62</course>
  <speed>15.41</speed>
  <fix>3d</fix>
</trkpt>
<trkpt lat="40.0716535" lon="-105.2289042">
  <ele>1583.04</ele>
  <time>2026-08-28T17:55:03Z</time>
  <course>67.79</course>
  <speed>13.300135337657283</speed>
  <fix>3d</fix>
</trkpt>
<trkpt lat="40.071647" lon="-105.2289251">
  <ele>1583.0</ele>
  <time>2026-08-28T17:55:03Z</time>
  <course>67.62</course>
  <speed>14.04</speed>
  <fix>3d</fix>
</trkpt>
<trkpt lat="40.0716579" lon="-105.2288903">
  <ele>1583.04</ele>
  <time>2026-08-28T17:55:03Z</time>
  <course>67.79</course>
  <speed>12.631646765168822</speed>
  <fix>3d</fix>
</trkpt>
<trkpt lat="40.071647" lon="-105.2289251">
  <ele>1583.0</ele>
  <time>2026-08-28T17:55:03Z</time>
  <course>67.62</course>
  <speed>14.04</speed>
  <fix>3d</fix>
</trkpt>
<trkpt lat="40.071662" lon="-105.2288771">
  <ele>1583.04</ele>
  <time>2026-08-28T17:55:03Z</time>
  <course>67.79</course>
  <speed>11.994707166079545</speed>
  <fix>3d</fix>
</trkpt>
<trkpt lat="40.0716561" lon="-105.2288962">
  <ele>1583.0</ele>
  <time>2026-08-28T17:55:03Z</time>
  <course>67.62</course>
  <speed>12.71</speed>
  <fix>3d</fix>
</trkpt>
<trkpt lat="40.071666" lon="-105.2288646">
  <ele>1583.03</ele>
  <time>2026-08-28T17:55:03Z</time>
  <course>67.79</course>
  <speed>11.389315168174074</speed>
  <fix>3d</fix>
</trkpt>
<trkpt lat="40.0716561" lon="-105.2288962">
  <ele>1583.0</ele>
  <time>2026-08-28T17:55:03Z</time>
  <course>67.62</course>
  <speed>12.71</speed>
  <fix>3d</fix>
</trkpt>
<trkpt lat="40.0716698" lon="-105.2288525">
  <ele>1583.03</ele>
  <time>2026-08-28T17:55:03Z</time>
  <course>67.8</course>
  <speed>10.819283710116858</speed>
  <fix>3d</fix>
</trkpt>
<trkpt lat="40.0716643" lon="-105.2288699">
  <ele>1583.0</ele>
  <time>2026-08-28T17:55:03Z</time>
  <course>67.62</course>
  <speed>11.5</speed>
  <fix>3d</fix>
</trkpt>
<trkpt lat="40.0716734" lon="-105.2288412">
  <ele>1583.03</ele>
  <time>2026-08-28T17:55:03Z</time>
  <course>67.8</course>
  <speed>10.26774074468186</speed>
  <fix>3d</fix>
</trkpt>
<trkpt lat="40.0716643" lon="-105.2288699">
  <ele>1583.0</ele>
  <time>2026-08-28T17:55:03Z</time>
  <course>67.62</course>
  <speed>11.5</speed>
  <fix>3d</fix>
</trkpt>
<trkpt lat="40.0716768" lon="-105.2288304">
  <ele>1583.03</ele>
  <time>2026-08-28T17:55:03Z</time>
  <course>67.8</course>
  <speed>9.756987239921962</speed>
  <fix>3d</fix>
</trkpt>
<trkpt lat="40.0716718" lon="-105.2288461">
  <ele>1583.0</ele>
  <time>2026-08-28T17:55:03Z</time>
  <course>67.62</course>
  <speed>10.4</speed>
  <fix>3d</fix>
</trkpt>
<trkpt lat="40.07168" lon="-105.2288202">
  <ele>1583.03</ele>
  <time>2026-08-28T17:55:03Z</time>
  <course>67.8</course>
  <speed>9.259292629569496</speed>
  <fix>3d</fix>
</trkpt>
<trkpt lat="40.0716718" lon="-105.2288461">
  <ele>1583.0</ele>
  <time>2026-08-28T17:55:03Z</time>
  <course>67.62</course>
  <speed>10.4</speed>
  <fix>3d</fix>
</trkpt>
<trkpt lat="40.0716831" lon="-105.2288105">
  <ele>1583.03</ele>
  <time>2026-08-28T17:55:03Z</time>
  <course>67.8</course>
  <speed>8.78771870282612</speed>
  <fix>3d</fix>
</trkpt>
<trkpt lat="40.0716786" lon="-105.2288246">
  <ele>1583.0</ele>
  <time>2026-08-28T17:55:03Z</time>
  <course>67.62</course>
  <speed>9.41</speed>
  <fix>3d</fix>
</trkpt>
<trkpt lat="40.071686" lon="-105.2288013">
  <ele>1583.03</ele>
  <time>2026-08-28T17:55:03Z</time>
  <course>67.8</course>
  <speed>8.340053956659993</speed>
  <fix>3d</fix>
</trkpt>
<trkpt lat="40.0716786" lon="-105.2288246">
  <ele>1583.0</ele>
  <time>2026-08-28T17:55:03Z</time>
  <course>67.62</course>
  <speed>9.41</speed>
  <fix>3d</fix>
</trkpt>
<trkpt lat="40.0716887" lon="-105.2287925">
  <ele>1583.03</ele>
  <time>2026-08-28T17:55:03Z</time>
  <course>67.8</course>
  <speed>7.918509960844906</speed>
  <fix>3d</fix>
</trkpt>
<trkpt lat="40.0716847" lon="-105.2288052">
  <ele>1583.0</ele>
  <time>2026-08-28T17:55:03Z</time>
  <course>67.62</course>
  <speed>8.52</speed>
  <fix>3d</fix>
</trkpt>
<trkpt lat="40.0716914" lon="-105.2287842">
  <ele>1583.03</ele>
  <time>2026-08-28T17:55:03Z</time>
  <course>67.8</course>
  <speed>7.510026631111238</speed>
  <fix>3d</fix>
</trkpt>
<trkpt lat="40.0716847" lon="-105.2288052">
  <ele>1583.0</ele>
  <time>2026-08-28T17:55:03Z</time>
  <course>67.62</course>
  <speed>8.52</speed>
  <fix>3d</fix>
</trkpt>
<trkpt lat="40.0716939" lon="-105.2287762">
  <ele>1583.03</ele>
  <time>2026-08-28T17:55:03Z</time>
  <course>67.8</course>
  <speed>7.129270649933273</speed>
  <fix>3d</fix>
</trkpt>
<trkpt lat="40.0716847" lon="-105.2288052">
  <ele>1583.0</ele>
  <time>2026-08-28T17:55:03Z</time>
  <course>67.62</course>
  <speed>8.52</speed>
  <fix>3d</fix>
</trkpt>
<trkpt lat="40.0716962" lon="-105.2287688">
  <ele>1583.03</ele>
  <time>2026-08-28T17:55:03Z</time>
  <course>67.81</course>
  <speed>6.761575260248162</speed>
  <fix>3d</fix>
</trkpt>
<trkpt lat="40.0716903" lon="-105.2287876">
  <ele>1583.0</ele>
  <time>2026-08-28T17:55:03Z</time>
  <course>67.62</course>
  <speed>7.7</speed>
  <fix>3d</fix>
</trkpt>
<trkpt lat="40.0716985" lon="-105.2287617">
  <ele>1583.03</ele>
  <time>2026-08-28T17:55:03Z</time>
  <course>67.81</course>
  <speed>6.416182665728899</speed>
  <fix>3d</fix>
</trkpt>
<trkpt lat="40.0716903" lon="-105.2287876">
  <ele>1583.0</ele>
  <time>2026-08-28T17:55:03Z</time>
  <course>67.62</course>
  <speed>7.7</speed>
  <fix>3d</fix>
</trkpt>
<trkpt lat="40.0717006" lon="-105.228755">
  <ele>1583.02</ele>
  <time>2026-08-28T17:55:03Z</time>
  <course>67.81</course>
  <speed>6.080032894647856</speed>
  <fix>3d</fix>
</trkpt>
<trkpt lat="40.0716953" lon="-105.2287717">
  <ele>1583.0</ele>
  <time>2026-08-28T17:55:03Z</time>
  <course>67.62</course>
  <speed>6.97</speed>
  <fix>3d</fix>
</trkpt>
<trkpt lat="40.0717026" lon="-105.2287486">
  <ele>1583.02</ele>
  <time>2026-08-28T17:55:03Z</time>
  <course>67.81</course>
  <speed>5.766185914449863</speed>
  <fix>3d</fix>
</trkpt>
<trkpt lat="40.0716953" lon="-105.2287717">
  <ele>1583.0</ele>
  <time>2026-08-28T17:55:03Z</time>
  <course>67.62</course>
  <speed>6.97</speed>
  <fix>3d</fix>
</trkpt>
<trkpt lat="40.0717045" lon="-105.2287425">
  <ele>1583.02</ele>
  <time>2026-08-28T17:55:03Z</time>
  <course>67.81</course>
  <speed>5.465400259816293</speed>
  <fix>3d</fix>
</trkpt>
<trkpt lat="40.0716998" lon="-105.2287572">
  <ele>1583.0</ele>
  <time>2026-08-28T17:55:03Z</time>
  <course>67.62</course>
  <speed>6.31</speed>
  <fix>3d</fix>
</trkpt>
<trkpt lat="40.0717063" lon="-105.2287367">
  <ele>1583.02</ele>
  <time>2026-08-28T17:55:03Z</time>
  <course>67.81</course>
  <speed>5.183097529470191</speed>
  <fix>3d</fix>
</trkpt>
<trkpt lat="40.0717039" lon="-105.2287442">
  <ele>1583.0</ele>
  <time>2026-08-28T17:55:03Z</time>
  <course>67.62</course>
  <speed>5.7</speed>
  <fix>3d</fix>
</trkpt>
<trkpt lat="40.0717081" lon="-105.2287312">
  <ele>1583.02</ele>
  <time>2026-08-28T17:55:03Z</time>
  <course>67.81</course>
  <speed>4.910040733028597</speed>
  <fix>3d</fix>
</trkpt>
<trkpt lat="40.0717039" lon="-105.2287442">
  <ele>1583.0</ele>
  <time>2026-08-28T17:55:03Z</time>
  <course>67.62</course>
  <speed>5.7</speed>
  <fix>3d</fix>
</trkpt>
<trkpt lat="40.0717097" lon="-105.228726">
  <ele>1583.01</ele>
  <time>2026-08-28T17:55:04Z</time>
  <course>67.82</course>
  <speed>4.663099827368057</speed>
  <fix>3d</fix>
</trkpt>
<trkpt lat="40.0717077" lon="-105.2287325">
  <ele>1583.0</ele>
  <time>2026-08-28T17:55:04Z</time>
  <course>67.62</course>
  <speed>5.16</speed>
  <fix>3d</fix>
</trkpt>
<trkpt lat="40.0717113" lon="-105.228721">
  <ele>1583.01</ele>
  <time>2026-08-28T17:55:04Z</time>
  <course>67.82</course>
  <speed>4.421594734934445</speed>
  <fix>3d</fix>
</trkpt>
<trkpt lat="40.0717077" lon="-105.2287325">
  <ele>1583.0</ele>
  <time>2026-08-28T17:55:04Z</time>
  <course>67.62</course>
  <speed>5.16</speed>
  <fix>3d</fix>
</trkpt>
<trkpt lat="40.0717128" lon="-105.2287162">
  <ele>1583.01</ele>
  <time>2026-08-28T17:55:04Z</time>
  <course>67.82</course>
  <speed>4.187708203779247</speed>
  <fix>3d</fix>
</trkpt>
<trkpt lat="40.071711" lon="-105.2287217">
  <ele>1583.0</ele>
  <time>2026-08-28T17:55:04Z</time>
  <course>67.62</course>
  <speed>4.67</speed>
  <fix>3d</fix>
</trkpt>
<trkpt lat="40.0717142" lon="-105.2287117">
  <ele>1583.01</ele>
  <time>2026-08-28T17:55:04Z</time>
  <course>67.82</course>
  <speed>3.9685009764393406</speed>
  <fix>3d</fix>
</trkpt>
<trkpt lat="40.071711" lon="-105.2287217">
  <ele>1583.0</ele>
  <time>2026-08-28T17:55:04Z</time>
  <course>67.62</course>
  <speed>4.67</speed>
  <fix>3d</fix>
</trkpt>
<trkpt lat="40.0717156" lon="-105.2287074">
  <ele>1583.01</ele>
  <time>2026-08-28T17:55:04Z</time>
  <course>67.83</course>
  <speed>3.762352987161093</speed>
  <fix>3d</fix>
</trkpt>
<trkpt lat="40.071714" lon="-105.2287121">
  <ele>1583.0</ele>
  <time>2026-08-28T17:55:04Z</time>
  <course>67.62</course>
  <speed>4.23</speed>
  <fix>3d</fix>
</trkpt>
<trkpt lat="40.0717169" lon="-105.2287032">
  <ele>1583.01</ele>
  <time>2026-08-28T17:55:04Z</time>
  <course>67.83</course>
  <speed>3.5692576258936537</speed>
  <fix>3d</fix>
</trkpt>
<trkpt lat="40.071714" lon="-105.2287121">
  <ele>1583.0</ele>
  <time>2026-08-28T17:55:04Z</time>
  <course>67.62</course>
  <speed>4.23</speed>
  <fix>3d</fix>
</trkpt>
<trkpt lat="40.0717181" lon="-105.2286993">
  <ele>1583.0</ele>
  <time>2026-08-28T17:55:04Z</time>
  <course>67.83</course>
  <speed>3.3816120416156554</speed>
  <fix>3d</fix>
</trkpt>
<trkpt lat="40.0717168" lon="-105.2287034">
  <ele>1583.0</ele>
  <time>2026-08-28T17:55:04Z</time>
  <course>67.62</course>
  <speed>3.82</speed>
  <fix>3d</fix>
</trkpt>
<trkpt lat="40.0717193" lon="-105.2286955">
  <ele>1583.0</ele>
  <time>2026-08-28T17:55:04Z</time>
  <course>67.83</course>
  <speed>3.2108098666847282</speed>
  <fix>3d</fix>
</trkpt>
<trkpt lat="40.0717168" lon="-105.2287034">
  <ele>1583.0</ele>
  <time>2026-08-28T17:55:04Z</time>
  <course>67.62</course>
  <speed>3.82</speed>
  <fix>3d</fix>
</trkpt>
<trkpt lat="40.0717204" lon="-105.228692">
  <ele>1583.0</ele>
  <time>2026-08-28T17:55:04Z</time>
  <course>67.83</course>
  <speed>3.0362147486632103</speed>
  <fix>3d</fix>
</trkpt>
<trkpt lat="40.0717193" lon="-105.2286955">
  <ele>1583.0</ele>
  <time>2026-08-28T17:55:04Z</time>
  <course>67.62</course>
  <speed>3.46</speed>
  <fix>3d</fix>
</trkpt>
<trkpt lat="40.0717214" lon="-105.2286886">
  <ele>1582.99</ele>
  <time>2026-08-28T17:55:04Z</time>
  <course>67.84</course>
  <speed>2.8839209420509433</speed>
  <fix>3d</fix>
</trkpt>
<trkpt lat="40.0717193" lon="-105.2286955">
  <ele>1583.0</ele>
  <time>2026-08-28T17:55:04Z</time>
  <course>67.62</course>
  <speed>3.46</speed>
  <fix>3d</fix>
</trkpt>
<trkpt lat="40.0717224" lon="-105.2286854">
  <ele>1582.99</ele>
  <time>2026-08-28T17:55:04Z</time>
  <course>67.84</course>
  <speed>2.7316295502867884</speed>
  <fix>3d</fix>
</trkpt>
<trkpt lat="40.0717215" lon="-105.2286884">
  <ele>1583.0</ele>
  <time>2026-08-28T17:55:04Z</time>
  <course>67.62</course>
  <speed>3.13</speed>
  <fix>3d</fix>
</trkpt>
<trkpt lat="40.0717234" lon="-105.2286823">
  <ele>1582.99</ele>
  <time>2026-08-28T17:55:04Z</time>
  <course>67.84</course>
  <speed>2.5923734298900687</speed>
  <fix>3d</fix>
</trkpt>
<trkpt lat="40.0717215" lon="-105.2286884">
  <ele>1583.0</ele>
  <time>2026-08-28T17:55:04Z</time>
  <course>67.62</course>
  <speed>3.13</speed>
  <fix>3d</fix>
</trkpt>
<trkpt lat="40.0717243" lon="-105.2286794">
  <ele>1582.99</ele>
  <time>2026-08-28T17:55:04Z</time>
  <course>67.85</course>
  <speed>2.4531204617792417</speed>
  <fix>3d</fix>
</trkpt>
<trkpt lat="40.0717215" lon="-105.2286884">
  <ele>1583.0</ele>
  <time>2026-08-28T17:55:04Z</time>
  <course>67.62</course>
  <speed>3.13</speed>
  <fix>3d</fix>
</trkpt>
<trkpt lat="40.0717252" lon="-105.2286766">
  <ele>1582.99</ele>
  <time>2026-08-28T17:55:04Z</time>
  <course>67.85</course>
  <speed>2.33238075793812</speed>
  <fix>3d</fix>
</trkpt>
<trkpt lat="40.0717236" lon="-105.2286819">
  <ele>1583.0</ele>
  <time>2026-08-28T17:55:04Z</time>
  <course>67.62</course>
  <speed>2.83</speed>
  <fix>3d</fix>
</trkpt>
<trkpt lat="40.071726" lon="-105.228674">
  <ele>1583.0</ele>
  <time>2026-08-28T17:55:04Z</time>
  <course>67.85</course>
  <speed>2.20238507078122</speed>
  <fix>3d</fix>
</trkpt>
<trkpt lat="40.0717236" lon="-105.2286819">
  <ele>1583.0</ele>
  <time>2026-08-28T17:55:04Z</time>
  <course>67.62</course>
  <speed>2.83</speed>
  <fix>3d</fix>
</trkpt>
<trkpt lat="40.0717268" lon="-105.2286715">
  <ele>1583.0</ele>
  <time>2026-08-28T17:55:04Z</time>
  <course>67.86</course>
  <speed>2.09093280618962</speed>
  <fix>3d</fix>
</trkpt>
<trkpt lat="40.0717255" lon="-105.2286759">
  <ele>1583.0</ele>
  <time>2026-08-28T17:55:04Z</time>
  <course>67.62</course>
  <speed>2.56</speed>
  <fix>3d</fix>
</trkpt>
<trkpt lat="40.0717275" lon="-105.2286691">
  <ele>1583.0</ele>
  <time>2026-08-28T17:55:04Z</time>
  <course>67.86</course>
  <speed>1.9832296891686552</speed>
  <fix>3d</fix>
</trkpt>
<trkpt lat="40.0717255" lon="-105.2286759">
  <ele>1583.0</ele>
  <time>2026-08-28T17:55:04Z</time>
  <course>67.62</course>
  <speed>2.56</speed>
  <fix>3d</fix>
</trkpt>
<trkpt lat="40.0717282" lon="-105.2286669">
  <ele>1583.0</ele>
  <time>2026-08-28T17:55:04Z</time>
  <course>67.86</course>
  <speed>1.8755265927200286</speed>
  <fix>3d</fix>
</trkpt>
<trkpt lat="40.0717271" lon="-105.2286707">
  <ele>1583.0</ele>
  <time>2026-08-28T17:55:04Z</time>
  <course>67.62</course>
  <speed>2.32</speed>
  <fix>3d</fix>
</trkpt>
<trkpt lat="40.0717289" lon="-105.2286647">
  <ele>1583.0</ele>
  <time>2026-08-28T17:55:04Z</time>
  <course>67.87</course>
  <speed>1.7771043863543863</speed>
  <fix>3d</fix>
</trkpt>
<trkpt lat="40.0717286" lon="-105.2286659">
  <ele>1583.0</ele>
  <time>2026-08-28T17:55:04Z</time>
  <course>67.62</course>
  <speed>2.1</speed>
  <fix>3d</fix>
</trkpt>
<trkpt lat="40.0717296" lon="-105.2286626">
  <ele>1583.0</ele>
  <time>2026-08-28T17:55:04Z</time>
  <course>67.87</course>
  <speed>1.691685549976709</speed>
  <fix>3d</fix>
</trkpt>
<trkpt lat="40.0717286" lon="-105.2286659">
  <ele>1583.0</ele>
  <time>2026-08-28T17:55:04Z</time>
  <course>67.62</course>
  <speed>2.1</speed>
  <fix>3d</fix>
</trkpt>
<trkpt lat="40.0717302" lon="-105.2286606">
  <ele>1583.0</ele>
  <time>2026-08-28T17:55:04Z</time>
  <course>67.87</course>
  <speed>1.6025604512778917</speed>
  <fix>3d</fix>
</trkpt>
<trkpt lat="40.07173" lon="-105.2286616">
  <ele>1583.0</ele>
  <time>2026-08-28T17:55:04Z</time>
  <course>67.62</course>
  <speed>1.9</speed>
  <fix>3d</fix>
</trkpt>
<trkpt lat="40.0717308" lon="-105.2286587">
  <ele>1583.0</ele>
  <time>2026-08-28T17:55:04Z</time>
  <course>67.88</course>
  <speed>1.5171354586852157</speed>
  <fix>3d</fix>
</trkpt>
<trkpt lat="40.07173" lon="-105.2286616">
  <ele>1583.0</ele>
  <time>2026-08-28T17:55:04Z</time>
  <course>67.62</course>
  <speed>1.9</speed>
  <fix>3d</fix>
</trkpt>
<trkpt lat="40.0717313" lon="-105.2286569">
  <ele>1583.0</ele>
  <time>2026-08-28T17:55:04Z</time>
  <course>67.88</course>
  <speed>1.4410065926289164</speed>
  <fix>3d</fix>
</trkpt>
<trkpt lat="40.0717312" lon="-105.2286576">
  <ele>1583.0</ele>
  <time>2026-08-28T17:55:04Z</time>
  <course>67.62</course>
  <speed>1.71</speed>
  <fix>3d</fix>
</trkpt>
<trkpt lat="40.0717319" lon="-105.2286552">
  <ele>1583.0</ele>
  <time>2026-08-28T17:55:04Z</time>
  <course>67.88</course>
  <speed>1.3648809471891679</speed>
  <fix>3d</fix>
</trkpt>
<trkpt lat="40.0717312" lon="-105.2286576">
  <ele>1583.0</ele>
  <time>2026-08-28T17:55:04Z</time>
  <course>67.62</course>
  <speed>1.71</speed>
  <fix>3d</fix>
</trkpt>
<trkpt lat="40.0717324" lon="-105.2286536">
  <ele>1583.0</ele>
  <time>2026-08-28T17:55:04Z</time>
  <course>67.89</course>
  <speed>1.298075498574717</speed>
  <fix>3d</fix>
</trkpt>
<trkpt lat="40.0717323" lon="-105.2286541">
  <ele>1583.0</ele>
  <time>2026-08-28T17:55:04Z</time>
  <course>67.62</course>
  <speed>1.55</speed>
  <fix>3d</fix>
</trkpt>
<trkpt lat="40.0717329" lon="-105.228652">
  <ele>1583.0</ele>
  <time>2026-08-28T17:55:04Z</time>
  <course>67.89</course>
  <speed>1.2349089035228469</speed>
  <fix>3d</fix>
</trkpt>
<trkpt lat="40.0717323" lon="-105.2286541">
  <ele>1583.0</ele>
  <time>2026-08-28T17:55:04Z</time>
  <course>67.62</course>
  <speed>1.55</speed>
  <fix>3d</fix>
</trkpt>
<trkpt lat="40.0717333" lon="-105.2286505">
  <ele>1583.0</ele>
  <time>2026-08-28T17:55:04Z</time>
  <course>67.89</course>
  <speed>1.1681181447096864</speed>
  <fix>3d</fix>
</trkpt>
<trkpt lat="40.0717334" lon="-105.2286508">
  <ele>1583.0</ele>
  <time>2026-08-28T17:55:04Z</time>
  <course>67.62</course>
  <speed>1.4</speed>
  <fix>3d</fix>
</trkpt>
<trkpt lat="40.0717338" lon="-105.228649">
  <ele>1583.0</ele>
  <time>2026-08-28T17:55:04Z</time>
  <course>67.9</course>
  <speed>1.1142710621747296</speed>
  <fix>3d</fix>
</trkpt>
<trkpt lat="40.0717334" lon="-105.2286508">
  <ele>1583.0</ele>
  <time>2026-08-28T17:55:04Z</time>
  <course>67.62</course>
  <speed>1.4</speed>
  <fix>3d</fix>
</trkpt>
<trkpt lat="40.0717342" lon="-105.2286477">
  <ele>1583.0</ele>
  <time>2026-08-28T17:55:04Z</time>
  <course>67.9</course>
  <speed>1.0604244433244643</speed>
  <fix>3d</fix>
</trkpt>
<trkpt lat="40.0717343" lon="-105.2286479">
  <ele>1583.0</ele>
  <time>2026-08-28T17:55:04Z</time>
  <course>67.62</course>
  <speed>1.27</speed>
  <fix>3d</fix>
</trkpt>
<trkpt lat="40.0717346" lon="-105.2286464">
  <ele>1583.0</ele>
  <time>2026-08-28T17:55:04Z</time>
  <course>67.9</course>
  <speed>1.0065783625729297</speed>
  <fix>3d</fix>
</trkpt>
<trkpt lat="40.0717343" lon="-105.2286479">
  <ele>1583.0</ele>
  <time>2026-08-28T17:55:04Z</time>
  <course>67.62</course>
  <speed>1.27</speed>
  <fix>3d</fix>
</trkpt>
<trkpt lat="40.071735" lon="-105.2286451">
  <ele>1583.01</ele>
  <time>2026-08-28T17:55:04Z</time>
  <course>67.91</course>
  <speed>0.952732911156112</speed>
  <fix>3d</fix>
</trkpt>
<trkpt lat="40.0717351" lon="-105.2286453">
  <ele>1583.0</ele>
  <time>2026-08-28T17:55:04Z</time>
  <course>67.62</course>
  <speed>1.15</speed>
  <fix>3d</fix>
</trkpt>
<trkpt lat="40.0717354" lon="-105.2286439">
  <ele>1583.01</ele>
  <time>2026-08-28T17:55:04Z</time>
  <course>67.91</course>
  <speed>0.9082400563727632</speed>
  <fix>3d</fix>
</trkpt>
<trkpt lat="40.0717351" lon="-105.2286453">
  <ele>1583.0</ele>
  <time>2026-08-28T17:55:04Z</time>
  <course>67.62</course>
  <speed>1.15</speed>
  <fix>3d</fix>
</trkpt>
<trkpt lat="40.0717357" lon="-105.2286428">
  <ele>1583.01</ele>
  <time>2026-08-28T17:55:04Z</time>
  <course>67.91</course>
  <speed>0.8637708029332781</speed>
  <fix>3d</fix>
</trkpt>
<trkpt lat="40.0717351" lon="-105.2286453">
  <ele>1583.0</ele>
  <time>2026-08-28T17:55:04Z</time>
  <course>67.62</course>
  <speed>1.15</speed>
  <fix>3d</fix>
</trkpt>
<trkpt lat="40.071736" lon="-105.2286417">
  <ele>1583.01</ele>
  <time>2026-08-28T17:55:04Z</time>
  <course>67.91</course>
  <speed>0.8228000972289685</speed>
  <fix>3d</fix>
</trkpt>
<trkpt lat="40.0717358" lon="-105.228643">
  <ele>1583.0</ele>
  <time>2026-08-28T17:55:04Z</time>
  <course>67.62</course>
  <speed>1.04</speed>
  <fix>3d</fix>
</trkpt>
<trkpt lat="40.0717363" lon="-105.2286407">
  <ele>1583.01</ele>
  <time>2026-08-28T17:55:04Z</time>
  <course>67.92</course>
  <speed>0.7783315488916018</speed>
  <fix>3d</fix>
</trkpt>
<trkpt lat="40.0717358" lon="-105.228643">
  <ele>1583.0</ele>
  <time>2026-08-28T17:55:04Z</time>
  <course>67.62</course>
  <speed>1.04</speed>
  <fix>3d</fix>
</trkpt>
<trkpt lat="40.0717366" lon="-105.2286397">
  <ele>1583.01</ele>
  <time>2026-08-28T17:55:04Z</time>
  <course>67.92</course>
  <speed>0.7433034373659253</speed>
  <fix>3d</fix>
</trkpt>
<trkpt lat="40.0717365" lon="-105.2286408">
  <ele>1583.0</ele>
  <time>2026-08-28T17:55:04Z</time>
  <course>67.62</course>
  <speed>0.94</speed>
  <fix>3d</fix>
</trkpt>
<trkpt lat="40.0717369" lon="-105.2286388">
  <ele>1583.01</ele>
  <time>2026-08-28T17:55:04Z</time>
  <course>67.92</course>
  <speed>0.7022819946431775</speed>
  <fix>3d</fix>
</trkpt>
<trkpt lat="40.0717365" lon="-105.2286408">
  <ele>1583.0</ele>
  <time>2026-08-28T17:55:04Z</time>
  <course>67.62</course>
  <speed>0.94</speed>
  <fix>3d</fix>
</trkpt>
<trkpt lat="40.0717372" lon="-105.2286379">
  <ele>1583.01</ele>
  <time>2026-08-28T17:55:04Z</time>
  <course>67.85</course>
  <speed>0.6928924880528002</speed>
  <fix>3d</fix>
</trkpt>
<trkpt lat="40.0717372" lon="-105.2286388">
  <ele>1583.0</ele>
  <time>2026-08-28T17:55:04Z</time>
  <course>67.62</course>
  <speed>0.85</speed>
  <fix>3d</fix>
</trkpt>
<trkpt lat="40.0717375" lon="-105.2286371">
  <ele>1583.01</ele>
  <time>2026-08-28T17:55:04Z</time>
  <course>67.76</course>
  <speed>0.6800735254367721</speed>
  <fix>3d</fix>
</trkpt>
<trkpt lat="40.0717372" lon="-105.2286388">
  <ele>1583.0</ele>
  <time>2026-08-28T17:55:04Z</time>
  <course>67.62</course>
  <speed>0.85</speed>
  <fix>3d</fix>
</trkpt>
<trkpt lat="40.0717377" lon="-105.2286362">
  <ele>1583.01</ele>
  <time>2026-08-28T17:55:04Z</time>
  <course>67.68</course>
  <speed>0.648459713474939</speed>
  <fix>3d</fix>
</trkpt>
<trkpt lat="40.0717377" lon="-105.228637">
  <ele>1583.0</ele>
  <time>2026-08-28T17:55:04Z</time>
  <course>67.54</course>
  <speed>0.79</speed>
  <fix>3d</fix>
</trkpt>
<trkpt lat="40.071738" lon="-105.2286354">
  <ele>1583.01</ele>
  <time>2026-08-28T17:55:05Z</time>
  <course>67.6</course>
  <speed>0.6040695324215583</speed>
  <fix>3d</fix>
</trkpt>
<trkpt lat="40.0717382" lon="-105.2286354">
  <ele>1583.0</ele>
  <time>2026-08-28T17:55:05Z</time>
  <course>67.38</course>
  <speed>0.73</speed>
  <fix>3d</fix>
</trkpt>
<trkpt lat="40.0717382" lon="-105.2286346">
  <ele>1583.01</ele>
  <time>2026-08-28T17:55:05Z</time>
  <course>67.53</course>
  <speed>0.5502726596879042</speed>
  <fix>3d</fix>
</trkpt>
<trkpt lat="40.0717382" lon="-105.2286354">
  <ele>1583.0</ele>
  <time>2026-08-28T17:55:05Z</time>
  <course>67.38</course>
  <speed>0.73</speed>
  <fix>3d</fix>
</trkpt>
<trkpt lat="40.0717384" lon="-105.228634">
  <ele>1583.01</ele>
  <time>2026-08-28T17:55:05Z</time>
  <course>67.45</course>
  <speed>0.4743416490252569</speed>
  <fix>3d</fix>
</trkpt>
<trkpt lat="40.0717387" lon="-105.2286339">
  <ele>1583.0</ele>
  <time>2026-08-28T17:55:05Z</time>
  <course>67.22</course>
  <speed>0.61</speed>
  <fix>3d</fix>
</trkpt>
<trkpt lat="40.0717386" lon="-105.2286334">
  <ele>1583.01</ele>
  <time>2026-08-28T17:55:05Z</time>
  <course>67.39</course>
  <speed>0.4016217125604641</speed>
  <fix>3d</fix>
</trkpt>
<trkpt lat="40.0717387" lon="-105.2286339">
  <ele>1583.0</ele>
  <time>2026-08-28T17:55:05Z</time>
  <course>67.22</course>
  <speed>0.61</speed>
  <fix>3d</fix>
</trkpt>
<trkpt lat="40.0717388" lon="-105.2286329">
  <ele>1583.01</ele>
  <time>2026-08-28T17:55:05Z</time>
  <course>67.32</course>
  <speed>0.3352610922848042</speed>
  <fix>3d</fix>
</trkpt>
<trkpt lat="40.0717391" lon="-105.2286328">
  <ele>1583.0</ele>
  <time>2026-08-28T17:55:05Z</time>
  <course>67.08</course>
  <speed>0.47</speed>
  <fix>3d</fix>
</trkpt>
<trkpt lat="40.0717389" lon="-105.2286324">
  <ele>1583.02</ele>
  <time>2026-08-28T17:55:05Z</time>
  <course>67.27</course>
  <speed>0.2816025568065745</speed>
  <fix>3d</fix>
</trkpt>
<trkpt lat="40.0717391" lon="-105.2286328">
  <ele>1583.0</ele>
  <time>2026-08-28T17:55:05Z</time>
  <course>67.08</course>
  <speed>0.47</speed>
  <fix>3d</fix>
</trkpt>
<trkpt lat="40.071739" lon="-105.2286321">
  <ele>1583.02</ele>
  <time>2026-08-28T17:55:05Z</time>
  <course>67.21</course>
  <speed>0.25</speed>
  <fix>3d</fix>
</trkpt>
<trkpt lat="40.0717394" lon="-105.2286319">
  <ele>1583.0</ele>
  <time>2026-08-28T17:55:05Z</time>
  <course>66.95</course>
  <speed>0.35</speed>
  <fix>3d</fix>
</trkpt>
<trkpt lat="40.0717391" lon="-105.2286317">
  <ele>1583.02</ele>
  <time>2026-08-28T17:55:05Z</time>
  <course>67.16</course>
  <speed>0.215870331449229</speed>
  <fix>3d</fix>
</trkpt>
<trkpt lat="40.0717394" lon="-105.2286319">
  <ele>1583.0</ele>
  <time>2026-08-28T17:55:05Z</time>
  <course>66.95</course>
  <speed>0.35</speed>
  <fix>3d</fix>
</trkpt>
<trkpt lat="40.0717392" lon="-105.2286314">
  <ele>1583.02</ele>
  <time>2026-08-28T17:55:05Z</time>
  <course>67.12</course>
  <speed>0.194164878389476</speed>
  <fix>3d</fix>
</trkpt>
<trkpt lat="40.0717396" lon="-105.2286312">
  <ele>1583.0</ele>
  <time>2026-08-28T17:55:05Z</time>
  <course>66.85</course>
  <speed>0.26</speed>
  <fix>3d</fix>
</trkpt>
<trkpt lat="40.0717393" lon="-105.2286311">
  <ele>1583.02</ele>
  <time>2026-08-28T17:55:05Z</time>
  <course>67.07</course>
  <speed>0.18439088914585774</speed>
  <fix>3d</fix>
</trkpt>
<trkpt lat="40.0717396" lon="-105.2286312">
  <ele>1583.0</ele>
  <time>2026-08-28T17:55:05Z</time>
  <course>66.85</course>
  <speed>0.26</speed>
  <fix>3d</fix>
</trkpt>
<trkpt lat="40.0717394" lon="-105.2286309">
  <ele>1583.02</ele>
  <time>2026-08-28T17:55:05Z</time>
  <course>67.03</course>
  <speed>0.17464249196572978</speed>
  <fix>3d</fix>
</trkpt>
<trkpt lat="40.0717397" lon="-105.2286307">
  <ele>1583.0</ele>
  <time>2026-08-28T17:55:05Z</time>
  <course>66.75</course>
  <speed>0.22</speed>
  <fix>3d</fix>
</trkpt>
<trkpt lat="40.0717395" lon="-105.2286306">
  <ele>1583.02</ele>
  <time>2026-08-28T17:55:05Z</time>
  <course>66.99</course>
  <speed>0.17464249196572978</speed>
  <fix>3d</fix>
</trkpt>
<trkpt lat="40.0717397" lon="-105.2286307">
  <ele>1583.0</ele>
  <time>2026-08-28T17:55:05Z</time>
  <course>66.75</course>
  <speed>0.22</speed>
  <fix>3d</fix>
</trkpt>
<trkpt lat="40.0717396" lon="-105.2286304">
  <ele>1583.02</ele>
  <time>2026-08-28T17:55:05Z</time>
  <course>66.94</course>
  <speed>0.18439088914585774</speed>
  <fix>3d</fix>
</trkpt>
<trkpt lat="40.0717399" lon="-105.2286302">
  <ele>1583.0</ele>
  <time>2026-08-28T17:55:05Z</time>
  <course>66.65</course>
  <speed>0.21</speed>
  <fix>3d</fix>
</trkpt>
<trkpt lat="40.0717397" lon="-105.2286301">
  <ele>1583.02</ele>
  <time>2026-08-28T17:55:05Z</time>
  <course>66.89</course>
  <speed>0.20615528128088303</speed>
  <fix>3d</fix>
</trkpt>
<trkpt lat="40.0717399" lon="-105.2286302">
  <ele>1583.0</ele>
  <time>2026-08-28T17:55:05Z</time>
  <course>66.65</course>
  <speed>0.21</speed>
  <fix>3d</fix>
</trkpt>
<trkpt lat="40.0717398" lon="-105.2286298">
  <ele>1583.02</ele>
  <time>2026-08-28T17:55:05Z</time>
  <course>66.83</course>
  <speed>0.21840329667841554</speed>
  <fix>3d</fix>
</trkpt>
<trkpt lat="40.0717399" lon="-105.2286302">
  <ele>1583.0</ele>
  <time>2026-08-28T17:55:05Z</time>
  <course>66.65</course>
  <speed>0.21</speed>
  <fix>3d</fix>
</trkpt>
<trkpt lat="40.0717399" lon="-105.2286295">
  <ele>1583.02</ele>
  <time>2026-08-28T17:55:05Z</time>
  <course>66.76</course>
  <speed>0.25</speed>
  <fix>3d</fix>
</trkpt>
<trkpt lat="40.0717401" lon="-105.2286297">
  <ele>1583.0</ele>
  <time>2026-08-28T17:55:05Z</time>
  <course>66.55</course>
  <speed>0.23</speed>
  <fix>3d</fix>
</trkpt>
<trkpt lat="40.07174" lon="-105.2286292">
  <ele>1583.02</ele>
  <time>2026-08-28T17:55:05Z</time>
  <course>66.69</course>
  <speed>0.2720294101747089</speed>
  <fix>3d</fix>
</trkpt>
<trkpt lat="40.0717401" lon="-105.2286297">
  <ele>1583.0</ele>
  <time>2026-08-28T17:55:05Z</time>
  <course>66.55</course>
  <speed>0.23</speed>
  <fix>3d</fix>
</trkpt>
<trkpt lat="40.0717401" lon="-105.2286288">
  <ele>1583.02</ele>
  <time>2026-08-28T17:55:05Z</time>
  <course>66.6</course>
  <speed>0.30364452901377953</speed>
  <fix>3d</fix>
</trkpt>
<trkpt lat="40.0717403" lon="-105.2286292">
  <ele>1583.0</ele>
  <time>2026-08-28T17:55:05Z</time>
  <course>66.41</course>
  <speed>0.27</speed>
  <fix>3d</fix>
</trkpt>
<trkpt lat="40.0717402" lon="-105.2286284">
  <ele>1583.03</ele>
  <time>2026-08-28T17:55:05Z</time>
  <course>66.5</course>
  <speed>0.3352610922848042</speed>
  <fix>3d</fix>
</trkpt>
<trkpt lat="40.0717403" lon="-105.2286292">
  <ele>1583.0</ele>
  <time>2026-08-28T17:55:05Z</time>
  <course>66.41</course>
  <speed>0.27</speed>
  <fix>3d</fix>
</trkpt>
<trkpt lat="40.0717404" lon="-105.228628">
  <ele>1583.03</ele>
  <time>2026-08-28T17:55:05Z</time>
  <course>66.39</course>
  <speed>0.37</speed>
  <fix>3d</fix>
</trkpt>
<trkpt lat="40.0717405" lon="-105.2286285">
  <ele>1583.0</ele>
  <time>2026-08-28T17:55:05Z</time>
  <course>66.25</course>
  <speed>0.32</speed>
  <fix>3d</fix>
</trkpt>
<trkpt lat="40.0717405" lon="-105.2286275">
  <ele>1583.03</ele>
  <time>2026-08-28T17:55:05Z</time>
  <course>66.26</course>
  <speed>0.4016217125604641</speed>
  <fix>3d</fix>
</trkpt>
<trkpt lat="40.0717407" lon="-105.2286278">
  <ele>1583.0</ele>
  <time>2026-08-28T17:55:05Z</time>
  <course>66.03</course>
  <speed>0.38</speed>
  <fix>3d</fix>
</trkpt>
<trkpt lat="40.0717407" lon="-105.228627">
  <ele>1583.03</ele>
  <time>2026-08-28T17:55:05Z</time>
  <course>66.11</course>
  <speed>0.4459820624195552</speed>
  <fix>3d</fix>
</trkpt>
<trkpt lat="40.0717407" lon="-105.2286278">
  <ele>1583.0</ele>
  <time>2026-08-28T17:55:05Z</time>
  <course>66.03</course>
  <speed>0.38</speed>
  <fix>3d</fix>
</trkpt>
<trkpt lat="40.0717409" lon="-105.2286265">
  <ele>1583.03</ele>
  <time>2026-08-28T17:55:05Z</time>
  <course>65.94</course>
  <speed>0.48104053883222775</speed>
  <fix>3d</fix>
</trkpt>
<trkpt lat="40.071741" lon="-105.2286269">
  <ele>1583.0</ele>
  <time>2026-08-28T17:55:05Z</time>
  <course>65.74</course>
  <speed>0.44</speed>
  <fix>3d</fix>
</trkpt>
<trkpt lat="40.0717411" lon="-105.2286259">
  <ele>1583.03</ele>
  <time>2026-08-28T17:55:05Z</time>
  <course>65.74</course>
  <speed>0.5126402247190519</speed>
  <fix>3d</fix>
</trkpt>
<trkpt lat="40.071741" lon="-105.2286269">
  <ele>1583.0</ele>
  <time>2026-08-28T17:55:05Z</time>
  <course>65.74</course>
  <speed>0.44</speed>
  <fix>3d</fix>
</trkpt>
<trkpt lat="40.0717413" lon="-105.2286253">
  <ele>1583.03</ele>
  <time>2026-08-28T17:55:05Z</time>
  <course>65.52</course>
  <speed>0.5478138369920935</speed>
  <fix>3d</fix>
</trkpt>
<trkpt lat="40.0717413" lon="-105.2286259">
  <ele>1583.0</ele>
  <time>2026-08-28T17:55:05Z</time>
  <course>65.36</course>
  <speed>0.51</speed>
  <fix>3d</fix>
</trkpt>
<trkpt lat="40.0717415" lon="-105.2286246">
  <ele>1583.02</ele>
  <time>2026-08-28T17:55:05Z</time>
  <course>65.26</course>
  <speed>0.579396237474839</speed>
  <fix>3d</fix>
</trkpt>
<trkpt lat="40.0717413" lon="-105.2286259">
  <ele>1583.0</ele>
  <time>2026-08-28T17:55:05Z</time>
  <course>65.36</course>
  <speed>0.51</speed>
  <fix>3d</fix>
</trkpt>
<trkpt lat="40.0717417" lon="-105.228624">
  <ele>1583.02</ele>
  <time>2026-08-28T17:55:05Z</time>
  <course>64.96</course>
  <speed>0.6146543744251723</speed>
  <fix>3d</fix>
</trkpt>
<trkpt lat="40.0717418" lon="-105.2286247">
  <ele>1583.0</ele>
  <time>2026-08-28T17:55:05Z</time>
  <course>64.87</course>
  <speed>0.57</speed>
  <fix>3d</fix>
</trkpt>
<trkpt lat="40.071742" lon="-105.2286233">
  <ele>1583.02</ele>
  <time>2026-08-28T17:55:05Z</time>
  <course>64.61</course>
  <speed>0.6407807737440318</speed>
  <fix>3d</fix>
</trkpt>
<trkpt lat="40.0717418" lon="-105.2286247">
  <ele>1583.0</ele>
  <time>2026-08-28T17:55:05Z</time>
  <course>64.87</course>
  <speed>0.57</speed>
  <fix>3d</fix>
</trkpt>
<trkpt lat="40.0717423" lon="-105.2286225">
  <ele>1583.03</ele>
  <time>2026-08-28T17:55:05Z</time>
  <course>64.22</course>
  <speed>0.6723094525588644</speed>
  <fix>3d</fix>
</trkpt>
<trkpt lat="40.0717423" lon="-105.2286234">
  <ele>1583.0</ele>
  <time>2026-08-28T17:55:05Z</time>
  <course>64.21</course>
  <speed>0.63</speed>
  <fix>3d</fix>
</trkpt>
<trkpt lat="40.0717426" lon="-105.2286218">
  <ele>1583.03</ele>
  <time>2026-08-28T17:55:05Z</time>
  <course>63.76</course>
  <speed>0.6985699678629191</speed>
  <fix>3d</fix>
</trkpt>
<trkpt lat="40.0717423" lon="-105.2286234">
  <ele>1583.0</ele>
  <time>2026-08-28T17:55:05Z</time>
  <course>64.21</course>
  <speed>0.63</speed>
  <fix>3d</fix>
</trkpt>
<trkpt lat="40.0717429" lon="-105.228621">
  <ele>1583.02</ele>
  <time>2026-08-28T17:55:05Z</time>
  <course>63.23</course>
  <speed>0.7249827584156744</speed>
  <fix>3d</fix>
</trkpt>
<trkpt lat="40.0717428" lon="-105.228622">
  <ele>1583.0</ele>
  <time>2026-08-28T17:55:05Z</time>
  <course>63.34</course>
  <speed>0.68</speed>
  <fix>3d</fix>
</trkpt>
<trkpt lat="40.0717432" lon="-105.2286202">
  <ele>1583.02</ele>
  <time>2026-08-28T17:55:05Z</time>
  <course>62.61</course>
  <speed>0.7515317691222374</speed>
  <fix>3d</fix>
</trkpt>
<trkpt lat="40.0717428" lon="-105.228622">
  <ele>1583.0</ele>
  <time>2026-08-28T17:55:05Z</time>
  <course>63.34</course>
  <speed>0.68</speed>
  <fix>3d</fix>
</trkpt>
<trkpt lat="40.0717435" lon="-105.2286194">
  <ele>1583.02</ele>
  <time>2026-08-28T17:55:05Z</time>
  <course>61.9</course>
  <speed>0.7782030583337487</speed>
  <fix>3d</fix>
</trkpt>
<trkpt lat="40.0717434" lon="-105.2286205">
  <ele>1583.0</ele>
  <time>2026-08-28T17:55:05Z</time>
  <course>62.18</course>
  <speed>0.74</speed>
  <fix>3d</fix>
</trkpt>
<trkpt lat="40.0717439" lon="-105.2286186">
  <ele>1583.02</ele>
  <time>2026-08-28T17:55:05Z</time>
  <course>61.07</course>
  <speed>0.8049844718999243</speed>
  <fix>3d</fix>
</trkpt>
<trkpt lat="40.0717434" lon="-105.2286205">
  <ele>1583.0</ele>
  <time>2026-08-28T17:55:05Z</time>
  <course>62.18</course>
  <speed>0.74</speed>
  <fix>3d</fix>
</trkpt>
<trkpt lat="40.0717442" lon="-105.2286177">
  <ele>1583.02</ele>
  <time>2026-08-28T17:55:05Z</time>
  <course>60.1</course>
  <speed>0.8276472678623424</speed>
  <fix>3d</fix>
</trkpt>
<trkpt lat="40.0717434" lon="-105.2286205">
  <ele>1583.0</ele>
  <time>2026-08-28T17:55:05Z</time>
  <course>62.18</course>
  <speed>0.74</speed>
  <fix>3d</fix>
</trkpt>
<trkpt lat="40.0717446" lon="-105.2286169">
  <ele>1583.01</ele>
  <time>2026-08-28T17:55:05Z</time>
  <course>58.97</course>
  <speed>0.8459905436823747</speed>
  <fix>3d</fix>
</trkpt>
<trkpt lat="40.071744" lon="-105.228619">
  <ele>1583.0</ele>
  <time>2026-08-28T17:55:05Z</time>
  <course>60.61</course>
  <speed>0.78</speed>
  <fix>3d</fix>
</trkpt>
<trkpt lat="40.071745" lon="-105.228616">
  <ele>1583.01</ele>
  <time>2026-08-28T17:55:05Z</time>
  <course>57.63</course>
  <speed>0.8695401083331349</speed>
  <fix>3d</fix>
</trkpt>
<trkpt lat="40.071744" lon="-105.228619">
  <ele>1583.0</ele>
  <time>2026-08-28T17:55:05Z</time>
  <course>60.61</course>
  <speed>0.78</speed>
  <fix>3d</fix>
</trkpt>
<trkpt lat="40.0717455" lon="-105.2286152">
  <ele>1583.01</ele>
  <time>2026-08-28T17:55:05Z</time>
  <course>56.06</course>
  <speed>0.8850988645343524</speed>
  <fix>3d</fix>
</trkpt>
<trkpt lat="40.0717448" lon="-105.2286173">
  <ele>1583.0</ele>
  <time>2026-08-28T17:55:05Z</time>
  <course>58.46</course>
  <speed>0.83</speed>
  <fix>3d</fix>
</trkpt>
<trkpt lat="40.0717459" lon="-105.2286143">
  <ele>1583.01</ele>
  <time>2026-08-28T17:55:05Z</time>
  <course>54.22</course>
  <speed>0.9013878188659973</speed>
  <fix>3d</fix>
</trkpt>
<trkpt lat="40.0717448" lon="-105.2286173">
  <ele>1583.0</ele>
  <time>2026-08-28T17:55:05Z</time>
  <course>58.46</course>
  <speed>0.83</speed>
  <fix>3d</fix>
</trkpt>
<trkpt lat="40.0717464" lon="-105.2286135">
  <ele>1583.01</ele>
  <time>2026-08-28T17:55:05Z</time>
  <course>52.03</course>
  <speed>0.9160785992479029</speed>
  <fix>3d</fix>
</trkpt>
<trkpt lat="40.0717456" lon="-105.2286156">
  <ele>1583.0</ele>
  <time>2026-08-28T17:55:05Z</time>
  <course>55.5</course>
  <speed>0.86</speed>
  <fix>3d</fix>
</trkpt>
<trkpt lat="40.071747" lon="-105.2286126">
  <ele>1583.0</ele>
  <time>2026-08-28T17:55:06Z</time>
  <course>49.45</course>
  <speed>0.9386160024205852</speed>
  <fix>3d</fix>
</trkpt>
<trkpt lat="40.0717456" lon="-105.2286156">
  <ele>1583.0</ele>
  <time>2026-08-28T17:55:06Z</time>
  <course>55.5</course>
  <speed>0.86</speed>
  <fix>3d</fix>
</trkpt>
<trkpt lat="40.0717476" lon="-105.2286118">
  <ele>1583.0</ele>
  <time>2026-08-28T17:55:06Z</time>
  <course>46.37</course>
  <speed>0.9558765610684259</speed>
  <fix>3d</fix>
</trkpt>
<trkpt lat="40.0717466" lon="-105.2286139">
  <ele>1583.0</ele>
  <time>2026-08-28T17:55:06Z</time>
  <course>51.39</course>
  <speed>0.9</speed>
  <fix>3d</fix>
</trkpt>
<trkpt lat="40.0717482" lon="-105.228611">
  <ele>1583.0</ele>
  <time>2026-08-28T17:55:06Z</time>
  <course>42.75</course>
  <speed>0.9687620966986684</speed>
  <fix>3d</fix>
</trkpt>
<trkpt lat="40.0717476" lon="-105.2286124">
  <ele>1583.0</ele>
  <time>2026-08-28T17:55:06Z</time>
  <course>45.64</course>
  <speed>0.94</speed>
  <fix>3d</fix>
</trkpt>
<trkpt lat="40.0717489" lon="-105.2286103">
  <ele>1583.0</ele>
  <time>2026-08-28T17:55:06Z</time>
  <course>38.49</course>
  <speed>0.9871676655968833</speed>
  <fix>3d</fix>
</trkpt>
<trkpt lat="40.0717476" lon="-105.2286124">
  <ele>1583.0</ele>
  <time>2026-08-28T17:55:06Z</time>
  <course>45.64</course>
  <speed>0.94</speed>
  <fix>3d</fix>
</trkpt>
<trkpt lat="40.0717496" lon="-105.2286096">
  <ele>1583.0</ele>
  <time>2026-08-28T17:55:06Z</time>
  <course>33.54</course>
  <speed>1.0043903623591774</speed>
  <fix>3d</fix>
</trkpt>
<trkpt lat="40.0717489" lon="-105.2286108">
  <ele>1583.0</ele>
  <time>2026-08-28T17:55:06Z</time>
  <course>37.65</course>
  <speed>0.97</speed>
  <fix>3d</fix>
</trkpt>
<trkpt lat="40.0717504" lon="-105.228609">
  <ele>1583.0</ele>
  <time>2026-08-28T17:55:06Z</time>
  <course>27.8</course>
  <speed>1.0208329931972222</speed>
  <fix>3d</fix>
</trkpt>
<trkpt lat="40.0717489" lon="-105.2286108">
  <ele>1583.0</ele>
  <time>2026-08-28T17:55:06Z</time>
  <course>37.65</course>
  <speed>0.97</speed>
  <fix>3d</fix>
</trkpt>
<trkpt lat="40.0717513" lon="-105.2286085">
  <ele>1582.99</ele>
  <time>2026-08-28T17:55:06Z</time>
  <course>21.38</course>
  <speed>1.0307764064044151</speed>
  <fix>3d</fix>
</trkpt>
<trkpt lat="40.0717504" lon="-105.2286096">
  <ele>1583.0</ele>
  <time>2026-08-28T17:55:06Z</time>
  <course>26.91</course>
  <speed>1.01</speed>
  <fix>3d</fix>
</trkpt>
<trkpt lat="40.0717522" lon="-105.2286082">
  <ele>1582.99</ele>
  <time>2026-08-28T17:55:06Z</time>
  <course>14.74</course>
  <speed>1.0508092119885513</speed>
  <fix>3d</fix>
</trkpt>
<trkpt lat="40.0717504" lon="-105.2286096">
  <ele>1583.0</ele>
  <time>2026-08-28T17:55:06Z</time>
  <course>26.91</course>
  <speed>1.01</speed>
  <fix>3d</fix>
</trkpt>
<trkpt lat="40.0717531" lon="-105.228608">
  <ele>1582.99</ele>
  <time>2026-08-28T17:55:06Z</time>
  <course>7.92</course>
  <speed>1.0621205204683695</speed>
  <fix>3d</fix>
</trkpt>
<trkpt lat="40.0717521" lon="-105.2286087">
  <ele>1583.0</ele>
  <time>2026-08-28T17:55:06Z</time>
  <course>14.11</course>
  <speed>1.04</speed>
  <fix>3d</fix>
</trkpt>
<trkpt lat="40.0717541" lon="-105.2286079">
  <ele>1582.99</ele>
  <time>2026-08-28T17:55:06Z</time>
  <course>1.04</course>
  <speed>1.0804165863221464</speed>
  <fix>3d</fix>
</trkpt>
<trkpt lat="40.0717521" lon="-105.2286087">
  <ele>1583.0</ele>
  <time>2026-08-28T17:55:06Z</time>
  <course>14.11</course>
  <speed>1.04</speed>
  <fix>3d</fix>
</trkpt>
<trkpt lat="40.0717551" lon="-105.228608">
  <ele>1582.99</ele>
  <time>2026-08-28T17:55:06Z</time>
  <course>354.06</course>
  <speed>1.0937092849564731</speed>
  <fix>3d</fix>
</trkpt>
<trkpt lat="40.071754" lon="-105.2286084">
  <ele>1583.0</ele>
  <time>2026-08-28T17:55:06Z</time>
  <course>0.48</course>
  <speed>1.08</speed>
  <fix>3d</fix>
</trkpt>
<trkpt lat="40.0717561" lon="-105.2286083">
  <ele>1582.99</ele>
  <time>2026-08-28T17:55:06Z</time>
  <course>346.97</course>
  <speed>1.1063453348751464</speed>
  <fix>3d</fix>
</trkpt>
<trkpt lat="40.071754" lon="-105.2286084">
  <ele>1583.0</ele>
  <time>2026-08-28T17:55:06Z</time>
  <course>0.48</course>
  <speed>1.08</speed>
  <fix>3d</fix>
</trkpt>
<trkpt lat="40.0717571" lon="-105.2286087">
  <ele>1582.99</ele>
  <time>2026-08-28T17:55:06Z</time>
  <course>339.77</course>
  <speed>1.1166467659918242</speed>
  <fix>3d</fix>
</trkpt>
<trkpt lat="40.071756" lon="-105.2286087">
  <ele>1583.0</ele>
  <time>2026-08-28T17:55:06Z</time>
  <course>346.41</course>
  <speed>1.11</speed>
  <fix>3d</fix>
</trkpt>
<trkpt lat="40.0717581" lon="-105.2286093">
  <ele>1582.99</ele>
  <time>2026-08-28T17:55:06Z</time>
  <course>332.49</course>
  <speed>1.1271202242884297</speed>
  <fix>3d</fix>
</trkpt>
<trkpt lat="40.071756" lon="-105.2286087">
  <ele>1583.0</ele>
  <time>2026-08-28T17:55:06Z</time>
  <course>346.41</course>
  <speed>1.11</speed>
  <fix>3d</fix>
</trkpt>
<trkpt lat="40.071759" lon="-105.2286101">
  <ele>1582.99</ele>
  <time>2026-08-28T17:55:06Z</time>
  <course>325.13</course>
  <speed>1.1346365056704284</speed>
  <fix>3d</fix>
</trkpt>
<trkpt lat="40.0717578" lon="-105.2286096">
  <ele>1583.0</ele>
  <time>2026-08-28T17:55:06Z</time>
  <course>331.96</course>
  <speed>1.14</speed>
  <fix>3d</fix>
</trkpt>
<trkpt lat="40.0717598" lon="-105.2286109">
  <ele>1582.99</ele>
  <time>2026-08-28T17:55:06Z</time>
  <course>317.7</course>
  <speed>1.1536463929644993</speed>
  <fix>3d</fix>
</trkpt>
<trkpt lat="40.0717578" lon="-105.2286096">
  <ele>1583.0</ele>
  <time>2026-08-28T17:55:06Z</time>
  <course>331.96</course>
  <speed>1.14</speed>
  <fix>3d</fix>
</trkpt>
<trkpt lat="40.0717605" lon="-105.2286119">
  <ele>1582.99</ele>
  <time>2026-08-28T17:55:06Z</time>
  <course>310.23</course>
  <speed>1.1574541027617467</speed>
  <fix>3d</fix>
</trkpt>
<trkpt lat="40.0717578" lon="-105.2286096">
  <ele>1583.0</ele>
  <time>2026-08-28T17:55:06Z</time>
  <course>331.96</course>
  <speed>1.14</speed>
  <fix>3d</fix>
</trkpt>
<trkpt lat="40.0717611" lon="-105.2286131">
  <ele>1582.99</ele>
  <time>2026-08-28T17:55:06Z</time>
  <course>302.72</course>
  <speed>1.1543396380615194</speed>
  <fix>3d</fix>
</trkpt>
<trkpt lat="40.0717595" lon="-105.2286111">
  <ele>1583.0</ele>
  <time>2026-08-28T17:55:06Z</time>
  <course>317.18</course>
  <speed>1.16</speed>
  <fix>3d</fix>
</trkpt>
<trkpt lat="40.0717616" lon="-105.2286144">
  <ele>1582.99</ele>
  <time>2026-08-28T17:55:06Z</time>
  <course>295.21</course>
  <speed>1.1595257651298656</speed>
  <fix>3d</fix>
</trkpt>
<trkpt lat="40.0717595" lon="-105.2286111">
  <ele>1583.0</ele>
  <time>2026-08-28T17:55:06Z</time>
  <course>317.18</course>
  <speed>1.16</speed>
  <fix>3d</fix>
</trkpt>
<trkpt lat="40.0717619" lon="-105.2286157">
  <ele>1582.99</ele>
  <time>2026-08-28T17:55:06Z</time>
  <course>287.7</course>
  <speed>1.158015543937127</speed>
  <fix>3d</fix>
</trkpt>
<trkpt lat="40.0717609" lon="-105.2286132">
  <ele>1583.0</ele>
  <time>2026-08-28T17:55:06Z</time>
  <course>302.22</course>
  <speed>1.16</speed>
  <fix>3d</fix>
</trkpt>
<trkpt lat="40.0717622" lon="-105.2286171">
  <ele>1582.99</ele>
  <time>2026-08-28T17:55:06Z</time>
  <course>280.67</course>
  <speed>1.1541230437002807</speed>
  <fix>3d</fix>
</trkpt>
<trkpt lat="40.0717609" lon="-105.2286132">
  <ele>1583.0</ele>
  <time>2026-08-28T17:55:06Z</time>
  <course>302.22</course>
  <speed>1.16</speed>
  <fix>3d</fix>
</trkpt>
<trkpt lat="40.0717622" lon="-105.2286184">
  <ele>1583.0</ele>
  <time>2026-08-28T17:55:06Z</time>
  <course>274.37</course>
  <speed>1.161077086157504</speed>
  <fix>3d</fix>
</trkpt>
<trkpt lat="40.0717618" lon="-105.2286157">
  <ele>1583.0</ele>
  <time>2026-08-28T17:55:06Z</time>
  <course>287.47</course>
  <speed>1.16</speed>
  <fix>3d</fix>
</trkpt>
<trkpt lat="40.0717622" lon="-105.2286198">
  <ele>1583.0</ele>
  <time>2026-08-28T17:55:06Z</time>
  <course>268.76</course>
  <speed>1.151086443322134</speed>
  <fix>3d</fix>
</trkpt>
<trkpt lat="40.0717621" lon="-105.2286184">
  <ele>1583.0</ele>
  <time>2026-08-28T17:55:06Z</time>
  <course>274.28</course>
  <speed>1.16</speed>
  <fix>3d</fix>
</trkpt>
<trkpt lat="40.0717621" lon="-105.2286212">
  <ele>1583.0</ele>
  <time>2026-08-28T17:55:06Z</time>
  <course>263.96</course>
  <speed>1.1597413504743201</speed>
  <fix>3d</fix>
</trkpt>
<trkpt lat="40.0717621" lon="-105.2286184">
  <ele>1583.0</ele>
  <time>2026-08-28T17:55:06Z</time>
  <course>274.28</course>
  <speed>1.16</speed>
  <fix>3d</fix>
</trkpt>
<trkpt lat="40.0717619" lon="-105.2286226">
  <ele>1583.01</ele>
  <time>2026-08-28T17:55:06Z</time>
  <course>259.86</course>
  <speed>1.1649892703368558</speed>
  <fix>3d</fix>
</trkpt>
<trkpt lat="40.0717621" lon="-105.2286211">
  <ele>1583.0</ele>
  <time>2026-08-28T17:55:06Z</time>
  <course>263.89</course>
  <speed>1.16</speed>
  <fix>3d</fix>
</trkpt>
<trkpt lat="40.0717618" lon="-105.228624">
  <ele>1583.01</ele>
  <time>2026-08-28T17:55:06Z</time>
  <course>256.43</course>
  <speed>1.1717508267545622</speed>
  <fix>3d</fix>
</trkpt>
<trkpt lat="40.0717621" lon="-105.2286211">
  <ele>1583.0</ele>
  <time>2026-08-28T17:55:06Z</time>
  <course>263.89</course>
  <speed>1.16</speed>
  <fix>3d</fix>
</trkpt>
<trkpt lat="40.0717614" lon="-105.2286253">
  <ele>1583.02</ele>
  <time>2026-08-28T17:55:06Z</time>
  <course>253.51</course>
  <speed>1.1795338062132852</speed>
  <fix>3d</fix>
</trkpt>
<trkpt lat="40.0717619" lon="-105.2286238">
  <ele>1583.0</ele>
  <time>2026-08-28T17:55:06Z</time>
  <course>256.23</course>
  <speed>1.17</speed>
  <fix>3d</fix>
</trkpt>
<trkpt lat="40.0717611" lon="-105.2286267">
  <ele>1583.02</ele>
  <time>2026-08-28T17:55:06Z</time>
  <course>251.08</course>
  <speed>1.1961605243444544</speed>
  <fix>3d</fix>
</trkpt>
<trkpt lat="40.0717619" lon="-105.2286238">
  <ele>1583.0</ele>
  <time>2026-08-28T17:55:06Z</time>
  <course>256.23</course>
  <speed>1.17</speed>
  <fix>3d</fix>
</trkpt>
<trkpt lat="40.0717607" lon="-105.228628">
  <ele>1583.02</ele>
  <time>2026-08-28T17:55:06Z</time>
  <course>249.06</course>
  <speed>1.2146192819151194</speed>
  <fix>3d</fix>
</trkpt>
<trkpt lat="40.0717613" lon="-105.2286265">
  <ele>1583.0</ele>
  <time>2026-08-28T17:55:06Z</time>
  <course>250.8</course>
  <speed>1.2</speed>
  <fix>3d</fix>
</trkpt>
<trkpt lat="40.0717602" lon="-105.2286294">
  <ele>1583.02</ele>
  <time>2026-08-28T17:55:06Z</time>
  <course>247.38</course>
  <speed>1.239758040909596</speed>
  <fix>3d</fix>
</trkpt>
<trkpt lat="40.0717613" lon="-105.2286265">
  <ele>1583.0</ele>
  <time>2026-08-28T17:55:06Z</time>
  <course>250.8</course>
  <speed>1.2</speed>
  <fix>3d</fix>
</trkpt>
<trkpt lat="40.0717598" lon="-105.2286307">
  <ele>1583.01</ele>
  <time>2026-08-28T17:55:06Z</time>
  <course>246.0</course>
  <speed>1.2747548783981961</speed>
  <fix>3d</fix>
</trkpt>
<trkpt lat="40.0717604" lon="-105.2286292">
  <ele>1583.0</ele>
  <time>2026-08-28T17:55:06Z</time>
  <course>247.05</course>
  <speed>1.24</speed>
  <fix>3d</fix>
</trkpt>
<trkpt lat="40.0717593" lon="-105.2286321">
  <ele>1583.01</ele>
  <time>2026-08-28T17:55:06Z</time>
  <course>244.88</course>
  <speed>1.3103434664239755</speed>
  <fix>3d</fix>
</trkpt>
<trkpt lat="40.0717604" lon="-105.2286292">
  <ele>1583.0</ele>
  <time>2026-08-28T17:55:06Z</time>
  <course>247.05</course>
  <speed>1.24</speed>
  <fix>3d</fix>
</trkpt>
<trkpt lat="40.0717587" lon="-105.2286336">
  <ele>1583.01</ele>
  <time>2026-08-28T17:55:06Z</time>
  <course>243.96</course>
  <speed>1.3553228397691819</speed>
  <fix>3d</fix>
</trkpt>
<trkpt lat="40.0717595" lon="-105.2286319">
  <ele>1583.0</ele>
  <time>2026-08-28T17:55:06Z</time>
  <course>244.51</course>
  <speed>1.31</speed>
  <fix>3d</fix>
</trkpt>
<trkpt lat="40.0717581" lon="-105.228635">
  <ele>1583.0</ele>
  <time>2026-08-28T17:55:06Z</time>
  <course>243.22</course>
  <speed>1.409432509913121</speed>
  <fix>3d</fix>
</trkpt>
<trkpt lat="40.0717595" lon="-105.2286319">
  <ele>1583.0</ele>
  <time>2026-08-28T17:55:06Z</time>
  <course>244.51</course>
  <speed>1.31</speed>
  <fix>3d</fix>
</trkpt>
<trkpt lat="40.0717575" lon="-105.2286366">
  <ele>1583.0</ele>
  <time>2026-08-28T17:55:06Z</time>
  <course>242.62</course>
  <speed>1.4676852523616908</speed>
  <fix>3d</fix>
</trkpt>
<trkpt lat="40.0717584" lon="-105.2286348">
  <ele>1583.0</ele>
  <time>2026-08-28T17:55:06Z</time>
  <course>242.82</course>
  <speed>1.41</speed>
  <fix>3d</fix>
</trkpt>
<trkpt lat="40.0717569" lon="-105.2286381">
  <ele>1582.99</ele>
  <time>2026-08-28T17:55:06Z</time>
  <course>242.15</course>
  <speed>1.5220052562327109</speed>
  <fix>3d</fix>
</trkpt>
<trkpt lat="40.0717584" lon="-105.2286348">
  <ele>1583.0</ele>
  <time>2026-08-28T17:55:06Z</time>
  <course>242.82</course>
  <speed>1.41</speed>
  <fix>3d</fix>
</trkpt>
<trkpt lat="40.0717562" lon="-105.2286398">
  <ele>1582.99</ele>
  <time>2026-08-28T17:55:06Z</time>
  <course>241.77</course>
  <speed>1.5938946012832844</speed>
  <fix>3d</fix>
</trkpt>
<trkpt lat="40.0717584" lon="-105.2286348">
  <ele>1583.0</ele>
  <time>2026-08-28T17:55:06Z</time>
  <course>242.82</course>
  <speed>1.41</speed>
  <fix>3d</fix>
</trkpt>
<trkpt lat="40.0717555" lon="-105.2286414">
  <ele>1582.99</ele>
  <time>2026-08-28T17:55:06Z</time>
  <course>241.49</course>
  <speed>1.657105910918189</speed>
  <fix>3d</fix>
</trkpt>
<trkpt lat="40.0717572" lon="-105.2286378">
  <ele>1583.0</ele>
  <time>2026-08-28T17:55:06Z</time>
  <course>241.72</course>
  <speed>1.52</speed>
  <fix>3d</fix>
</trkpt>
<trkpt lat="40.0717548" lon="-105.2286432">
  <ele>1582.99</ele>
  <time>2026-08-28T17:55:06Z</time>
  <course>241.28</course>
  <speed>1.7377284022539312</speed>
  <fix>3d</fix>
</trkpt>
<trkpt lat="40.0717572" lon="-105.2286378">
  <ele>1583.0</ele>
  <time>2026-08-28T17:55:06Z</time>
  <course>241.72</course>
  <speed>1.52</speed>
  <fix>3d</fix>
</trkpt>
<trkpt lat="40.071754" lon="-105.228645">
  <ele>1582.99</ele>
  <time>2026-08-28T17:55:06Z</time>
  <course>241.14</course>
  <speed>1.818350901228913</speed>
  <fix>3d</fix>
</trkpt>
<trkpt lat="40.0717558" lon="-105.228641">
  <ele>1583.0</ele>
  <time>2026-08-28T17:55:06Z</time>
  <course>241.05</course>
  <speed>1.66</speed>
  <fix>3d</fix>
</trkpt>
<trkpt lat="40.0717532" lon="-105.2286469">
  <ele>1582.99</ele>
  <time>2026-08-28T17:55:07Z</time>
  <course>241.04</course>
  <speed>1.8989734068701436</speed>
  <fix>3d</fix>
</trkpt>
<trkpt lat="40.0717558" lon="-105.228641">
  <ele>1583.0</ele>
  <time>2026-08-28T17:55:07Z</time>
  <course>241.05</course>
  <speed>1.66</speed>
  <fix>3d</fix>
</trkpt>
<trkpt lat="40.0717523" lon="-105.2286489">
  <ele>1582.99</ele>
  <time>2026-08-28T17:55:07Z</time>
  <course>241.0</course>
  <speed>1.979595918363139</speed>
  <fix>3d</fix>
</trkpt>
<trkpt lat="40.0717543" lon="-105.2286446">
  <ele>1583.0</ele>
  <time>2026-08-28T17:55:07Z</time>
  <course>240.69</course>
  <speed>1.81</speed>
  <fix>3d</fix>
</trkpt>
<trkpt lat="40.0717514" lon="-105.228651">
  <ele>1582.99</ele>
  <time>2026-08-28T17:55:07Z</time>
  <course>240.98</course>
  <speed>2.073861133248801</speed>
  <fix>3d</fix>
</trkpt>
<trkpt lat="40.0717527" lon="-105.2286485">
  <ele>1583.0</ele>
  <time>2026-08-28T17:55:07Z</time>
  <course>240.54</course>
  <speed>1.98</speed>
  <fix>3d</fix>
</trkpt>
<trkpt lat="40.0717505" lon="-105.2286532">
  <ele>1582.99</ele>
  <time>2026-08-28T17:55:07Z</time>
  <course>240.99</course>
  <speed>2.171865557533431</speed>
  <fix>3d</fix>
</trkpt>
<trkpt lat="40.0717527" lon="-105.2286485">
  <ele>1583.0</ele>
  <time>2026-08-28T17:55:07Z</time>
  <course>240.54</course>
  <speed>1.98</speed>
  <fix>3d</fix>
</trkpt>
<trkpt lat="40.0717495" lon="-105.2286555">
  <ele>1582.98</ele>
  <time>2026-08-28T17:55:07Z</time>
  <course>241.01</course>
  <speed>2.2661200321253947</speed>
  <fix>3d</fix>
</trkpt>
<trkpt lat="40.0717508" lon="-105.2286527">
  <ele>1583.0</ele>
  <time>2026-08-28T17:55:07Z</time>
  <course>240.51</course>
  <speed>2.17</speed>
  <fix>3d</fix>
</trkpt>
<trkpt lat="40.0717485" lon="-105.2286579">
  <ele>1582.99</ele>
  <time>2026-08-28T17:55:07Z</time>
  <course>241.05</course>
  <speed>2.364148895480147</speed>
  <fix>3d</fix>
</trkpt>
<trkpt lat="40.0717508" lon="-105.2286527">
  <ele>1583.0</ele>
  <time>2026-08-28T17:55:07Z</time>
  <course>240.51</course>
  <speed>2.17</speed>
  <fix>3d</fix>
</trkpt>
<trkpt lat="40.0717474" lon="-105.2286604">
  <ele>1582.99</ele>
  <time>2026-08-28T17:55:07Z</time>
  <course>241.12</course>
  <speed>2.4671035649116964</speed>
  <fix>3d</fix>
</trkpt>
<trkpt lat="40.0717488" lon="-105.2286574">
  <ele>1583.0</ele>
  <time>2026-08-28T17:55:07Z</time>
  <course>240.57</course>
  <speed>2.36</speed>
  <fix>3d</fix>
</trkpt>
<trkpt lat="40.0717463" lon="-105.228663">
  <ele>1582.98</ele>
  <time>2026-08-28T17:55:07Z</time>
  <course>241.19</course>
  <speed>2.5651705596314645</speed>
  <fix>3d</fix>
</trkpt>
<trkpt lat="40.0717488" lon="-105.2286574">
  <ele>1583.0</ele>
  <time>2026-08-28T17:55:07Z</time>
  <course>240.57</course>
  <speed>2.36</speed>
  <fix>3d</fix>
</trkpt>
<trkpt lat="40.0717452" lon="-105.2286657">
  <ele>1582.98</ele>
  <time>2026-08-28T17:55:07Z</time>
  <course>241.3</course>
  <speed>2.6632686683847724</speed>
  <fix>3d</fix>
</trkpt>
<trkpt lat="40.0717466" lon="-105.2286625">
  <ele>1583.0</ele>
  <time>2026-08-28T17:55:07Z</time>
  <course>240.71</course>
  <speed>2.56</speed>
  <fix>3d</fix>
</trkpt>
<trkpt lat="40.071744" lon="-105.2286686">
  <ele>1582.98</ele>
  <time>2026-08-28T17:55:07Z</time>
  <course>241.41</course>
  <speed>2.766224864323217</speed>
  <fix>3d</fix>
</trkpt>
<trkpt lat="40.0717466" lon="-105.2286625">
  <ele>1583.0</ele>
  <time>2026-08-28T17:55:07Z</time>
  <course>240.71</course>
  <speed>2.56</speed>
  <fix>3d</fix>
</trkpt>
<trkpt lat="40.0717427" lon="-105.2286716">
  <ele>1582.98</ele>
  <time>2026-08-28T17:55:07Z</time>
  <course>241.53</course>
  <speed>2.8731167745150907</speed>
  <fix>3d</fix>
</trkpt>
<trkpt lat="40.0717443" lon="-105.2286679">
  <ele>1583.0</ele>
  <time>2026-08-28T17:55:07Z</time>
  <course>240.91</course>
  <speed>2.76</speed>
  <fix>3d</fix>
</trkpt>
<trkpt lat="40.0717415" lon="-105.2286746">
  <ele>1582.98</ele>
  <time>2026-08-28T17:55:07Z</time>
  <course>241.65</course>
  <speed>2.971279185805333</speed>
  <fix>3d</fix>
</trkpt>
<trkpt lat="40.0717443" lon="-105.2286679">
  <ele>1583.0</ele>
  <time>2026-08-28T17:55:07Z</time>
  <course>240.91</course>
  <speed>2.76</speed>
  <fix>3d</fix>
</trkpt>
<trkpt lat="40.0717401" lon="-105.2286778">
  <ele>1582.98</ele>
  <time>2026-08-28T17:55:07Z</time>
  <course>241.78</course>
  <speed>3.0694624936623676</speed>
  <fix>3d</fix>
</trkpt>
<trkpt lat="40.0717418" lon="-105.2286738">
  <ele>1583.0</ele>
  <time>2026-08-28T17:55:07Z</time>
  <course>241.15</course>
  <speed>2.95</speed>
  <fix>3d</fix>
</trkpt>
<trkpt lat="40.0717388" lon="-105.228681">
  <ele>1582.98</ele>
  <time>2026-08-28T17:55:07Z</time>
  <course>241.91</course>
  <speed>3.1676647549890755</speed>
  <fix>3d</fix>
</trkpt>
<trkpt lat="40.0717418" lon="-105.2286738">
  <ele>1583.0</ele>
  <time>2026-08-28T17:55:07Z</time>
  <course>241.15</course>
  <speed>2.95</speed>
  <fix>3d</fix>
</trkpt>
<trkpt lat="40.0717374" lon="-105.2286844">
  <ele>1582.98</ele>
  <time>2026-08-28T17:55:07Z</time>
  <course>242.04</course>
  <speed>3.2658842600435185</speed>
  <fix>3d</fix>
</trkpt>
<trkpt lat="40.0717391" lon="-105.2286801">
  <ele>1583.0</ele>
  <time>2026-08-28T17:55:07Z</time>
  <course>241.4</course>
  <speed>3.15</speed>
  <fix>3d</fix>
</trkpt>
<trkpt lat="40.071736" lon="-105.2286879">
  <ele>1582.99</ele>
  <time>2026-08-28T17:55:07Z</time>
  <course>242.18</course>
  <speed>3.3729512300061497</speed>
  <fix>3d</fix>
</trkpt>
<trkpt lat="40.0717391" lon="-105.2286801">
  <ele>1583.0</ele>
  <time>2026-08-28T17:55:07Z</time>
  <course>241.4</course>
  <speed>3.15</speed>
  <fix>3d</fix>
</trkpt>
<trkpt lat="40.0717345" lon="-105.2286915">
  <ele>1582.99</ele>
  <time>2026-08-28T17:55:07Z</time>
  <course>242.32</course>
  <speed>3.471210163617294</speed>
  <fix>3d</fix>
</trkpt>
<trkpt lat="40.0717391" lon="-105.2286801">
  <ele>1583.0</ele>
  <time>2026-08-28T17:55:07Z</time>
  <course>241.4</course>
  <speed>3.15</speed>
  <fix>3d</fix>
</trkpt>
<trkpt lat="40.071733" lon="-105.2286951">
  <ele>1582.99</ele>
  <time>2026-08-28T17:55:07Z</time>
  <course>242.46</course>
  <speed>3.560631966379002</speed>
  <fix>3d</fix>
</trkpt>
<trkpt lat="40.0717364" lon="-105.2286868">
  <ele>1583.0</ele>
  <time>2026-08-28T17:55:07Z</time>
  <course>241.66</course>
  <speed>3.35</speed>
  <fix>3d</fix>
</trkpt>
<trkpt lat="40.0717315" lon="-105.2286989">
  <ele>1582.99</ele>
  <time>2026-08-28T17:55:07Z</time>
  <course>242.61</course>
  <speed>3.6542714732214407</speed>
  <fix>3d</fix>
</trkpt>
<trkpt lat="40.0717364" lon="-105.2286868">
  <ele>1583.0</ele>
  <time>2026-08-28T17:55:07Z</time>
  <course>241.66</course>
  <speed>3.35</speed>
  <fix>3d</fix>
</trkpt>
<trkpt lat="40.07173" lon="-105.2287027">
  <ele>1583.0</ele>
  <time>2026-08-28T17:55:07Z</time>
  <course>242.77</course>
  <speed>3.7525724509994474</speed>
  <fix>3d</fix>
</trkpt>
<trkpt lat="40.0717334" lon="-105.2286939">
  <ele>1583.0</ele>
  <time>2026-08-28T17:55:07Z</time>
  <course>241.94</course>
  <speed>3.54</speed>
  <fix>3d</fix>
</trkpt>
<trkpt lat="40.0717284" lon="-105.2287066">
  <ele>1583.0</ele>
  <time>2026-08-28T17:55:07Z</time>
  <course>242.92</course>
  <speed>3.8462969204157913</speed>
  <fix>3d</fix>
</trkpt>
<trkpt lat="40.0717334" lon="-105.2286939">
  <ele>1583.0</ele>
  <time>2026-08-28T17:55:07Z</time>
  <course>241.94</course>
  <speed>3.54</speed>
  <fix>3d</fix>
</trkpt>
<trkpt lat="40.0717268" lon="-105.2287107">
  <ele>1583.0</ele>
  <time>2026-08-28T17:55:07Z</time>
  <course>243.08</course>
  <speed>3.940076141396255</speed>
  <fix>3d</fix>
</trkpt>
<trkpt lat="40.0717304" lon="-105.2287015">
  <ele>1583.0</ele>
  <time>2026-08-28T17:55:07Z</time>
  <course>242.24</course>
  <speed>3.73</speed>
  <fix>3d</fix>
</trkpt>
<trkpt lat="40.0717252" lon="-105.2287148">
  <ele>1583.0</ele>
  <time>2026-08-28T17:55:07Z</time>
  <course>243.22</course>
  <speed>4.038427911947915</speed>
  <fix>3d</fix>
</trkpt>
<trkpt lat="40.0717304" lon="-105.2287015">
  <ele>1583.0</ele>
  <time>2026-08-28T17:55:07Z</time>
  <course>242.24</course>
  <speed>3.73</speed>
  <fix>3d</fix>
</trkpt>
<trkpt lat="40.0717235" lon="-105.2287191">
  <ele>1583.0</ele>
  <time>2026-08-28T17:55:07Z</time>
  <course>243.36</course>
  <speed>4.132275402245112</speed>
  <fix>3d</fix>
</trkpt>
<trkpt lat="40.0717272" lon="-105.2287094">
  <ele>1583.0</ele>
  <time>2026-08-28T17:55:07Z</time>
  <course>242.54</course>
  <speed>3.92</speed>
  <fix>3d</fix>
</trkpt>
<trkpt lat="40.0717218" lon="-105.2287234">
  <ele>1583.0</ele>
  <time>2026-08-28T17:55:07Z</time>
  <course>243.49</course>
  <speed>4.217226576791909</speed>
  <fix>3d</fix>
</trkpt>
<trkpt lat="40.0717238" lon="-105.2287178">
  <ele>1583.0</ele>
  <time>2026-08-28T17:55:07Z</time>
  <course>242.81</course>
  <speed>4.11</speed>
  <fix>3d</fix>
</trkpt>
<trkpt lat="40.0717201" lon="-105.2287279">
  <ele>1583.0</ele>
  <time>2026-08-28T17:55:07Z</time>
  <course>243.6</course>
  <speed>4.324557780860373</speed>
  <fix>3d</fix>
</trkpt>
<trkpt lat="40.0717238" lon="-105.2287178">
  <ele>1583.0</ele>
  <time>2026-08-28T17:55:07Z</time>
  <course>242.81</course>
  <speed>4.11</speed>
  <fix>3d</fix>
</trkpt>
<trkpt lat="40.0717183" lon="-105.2287325">
  <ele>1583.0</ele>
  <time>2026-08-28T17:55:07Z</time>
  <course>243.72</course>
  <speed>4.409546461939141</speed>
  <fix>3d</fix>
</trkpt>
<trkpt lat="40.0717204" lon="-105.2287267">
  <ele>1583.0</ele>
  <time>2026-08-28T17:55:07Z</time>
  <course>243.06</course>
  <speed>4.31</speed>
  <fix>3d</fix>
</trkpt>
<trkpt lat="40.0717165" lon="-105.2287372">
  <ele>1583.0</ele>
  <time>2026-08-28T17:55:07Z</time>
  <course>243.85</course>
  <speed>4.516912662427734</speed>
  <fix>3d</fix>
</trkpt>
<trkpt lat="40.0717204" lon="-105.2287267">
  <ele>1583.0</ele>
  <time>2026-08-28T17:55:07Z</time>
  <course>243.06</course>
  <speed>4.31</speed>
  <fix>3d</fix>
</trkpt>
<trkpt lat="40.0717147" lon="-105.228742">
  <ele>1583.0</ele>
  <time>2026-08-28T17:55:07Z</time>
  <course>243.97</course>
  <speed>4.610910972898957</speed>
  <fix>3d</fix>
</trkpt>
<trkpt lat="40.0717169" lon="-105.2287359">
  <ele>1583.0</ele>
  <time>2026-08-28T17:55:07Z</time>
  <course>243.3</course>
  <speed>4.5</speed>
  <fix>3d</fix>
</trkpt>
<trkpt lat="40.0717128" lon="-105.228747">
  <ele>1583.01</ele>
  <time>2026-08-28T17:55:07Z</time>
  <course>244.1</course>
  <speed>4.709331162702407</speed>
  <fix>3d</fix>
</trkpt>
<trkpt lat="40.0717169" lon="-105.2287359">
  <ele>1583.0</ele>
  <time>2026-08-28T17:55:07Z</time>
  <course>243.3</course>
  <speed>4.5</speed>
  <fix>3d</fix>
</trkpt>
<trkpt lat="40.0717109" lon="-105.2287521">
  <ele>1583.01</ele>
  <time>2026-08-28T17:55:07Z</time>
  <course>244.23</course>
  <speed>4.803373814310104</speed>
  <fix>3d</fix>
</trkpt>
<trkpt lat="40.0717132" lon="-105.2287456">
  <ele>1583.0</ele>
  <time>2026-08-28T17:55:07Z</time>
  <course>243.55</course>
  <speed>4.69</speed>
  <fix>3d</fix>
</trkpt>
<trkpt lat="40.0717089" lon="-105.2287573">
  <ele>1583.01</ele>
  <time>2026-08-28T17:55:07Z</time>
  <course>244.36</course>
  <speed>4.897448315194352</speed>
  <fix>3d</fix>
</trkpt>
<trkpt lat="40.0717132" lon="-105.2287456">
  <ele>1583.0</ele>
  <time>2026-08-28T17:55:07Z</time>
  <course>243.55</course>
  <speed>4.69</speed>
  <fix>3d</fix>
</trkpt>
<trkpt lat="40.071707" lon="-105.2287625">
  <ele>1583.01</ele>
  <time>2026-08-28T17:55:07Z</time>
  <course>244.47</course>
  <speed>4.9915528645903375</speed>
  <fix>3d</fix>
</trkpt>
<trkpt lat="40.0717093" lon="-105.2287556">
  <ele>1583.0</ele>
  <time>2026-08-28T17:55:07Z</time>
  <course>243.79</course>
  <speed>4.87</speed>
  <fix>3d</fix>
</trkpt>
<trkpt lat="40.071705" lon="-105.2287679">
  <ele>1583.01</ele>
  <time>2026-08-28T17:55:07Z</time>
  <course>244.55</course>
  <speed>5.067642449897191</speed>
  <fix>3d</fix>
</trkpt>
<trkpt lat="40.0717093" lon="-105.2287556">
  <ele>1583.0</ele>
  <time>2026-08-28T17:55:07Z</time>
  <course>243.79</course>
  <speed>4.87</speed>
  <fix>3d</fix>
</trkpt>
<trkpt lat="40.071703" lon="-105.2287733">
  <ele>1583.01</ele>
  <time>2026-08-28T17:55:07Z</time>
  <course>244.63</course>
  <speed>5.152756543831661</speed>
  <fix>3d</fix>
</trkpt>
<trkpt lat="40.0717054" lon="-105.2287661">
  <ele>1583.0</ele>
  <time>2026-08-28T17:55:07Z</time>
  <course>243.99</course>
  <speed>5.04</speed>
  <fix>3d</fix>
</trkpt>
<trkpt lat="40.0717009" lon="-105.2287789">
  <ele>1583.01</ele>
  <time>2026-08-28T17:55:07Z</time>
  <course>244.7</course>
  <speed>5.2155249016757645</speed>
  <fix>3d</fix>
</trkpt>
<trkpt lat="40.0717054" lon="-105.2287661">
  <ele>1583.0</ele>
  <time>2026-08-28T17:55:07Z</time>
  <course>243.99</course>
  <speed>5.04</speed>
  <fix>3d</fix>
</trkpt>
<trkpt lat="40.0716989" lon="-105.2287845">
  <ele>1583.01</ele>
  <time>2026-08-28T17:55:07Z</time>
  <course>244.77</course>
  <speed>5.269269399072323</speed>
  <fix>3d</fix>
</trkpt>
<trkpt lat="40.0717014" lon="-105.2287769">
  <ele>1583.0</ele>
  <time>2026-08-28T17:55:07Z</time>
  <course>244.13</course>
  <speed>5.18</speed>
  <fix>3d</fix>
</trkpt>
<trkpt lat="40.0716968" lon="-105.2287901">
  <ele>1583.01</ele>
  <time>2026-08-28T17:55:07Z</time>
  <course>244.84</course>
  <speed>5.309698673182877</speed>
  <fix>3d</fix>
</trkpt>
<trkpt lat="40.0717014" lon="-105.2287769">
  <ele>1583.0</ele>
  <time>2026-08-28T17:55:07Z</time>
  <course>244.13</course>
  <speed>5.18</speed>
  <fix>3d</fix>
</trkpt>
<trkpt lat="40.0716947" lon="-105.2287958">
  <ele>1583.01</ele>
  <time>2026-08-28T17:55:07Z</time>
  <course>244.92</course>
  <speed>5.341095393269062</speed>
  <fix>3d</fix>
</trkpt>
<trkpt lat="40.0717014" lon="-105.2287769">
  <ele>1583.0</ele>
  <time>2026-08-28T17:55:07Z</time>
  <course>244.13</course>
  <speed>5.18</speed>
  <fix>3d</fix>
</trkpt>
<trkpt lat="40.0716926" lon="-105.2288014">
  <ele>1583.01</ele>
  <time>2026-08-28T17:55:07Z</time>
  <course>244.99</course>
  <speed>5.3591883713861</speed>
  <fix>3d</fix>
</trkpt>
<trkpt lat="40.0716973" lon="-105.228788">
  <ele>1583.0</ele>
  <time>2026-08-28T17:55:07Z</time>
  <course>244.27</course>
  <speed>5.28</speed>
  <fix>3d</fix>
</trkpt>
<trkpt lat="40.0716906" lon="-105.2288071">
  <ele>1583.01</ele>
  <time>2026-08-28T17:55:08Z</time>
  <course>245.07</course>
  <speed>5.368239935025259</speed>
  <fix>3d</fix>
</trkpt>
<trkpt lat="40.0716973" lon="-105.228788">
  <ele>1583.0</ele>
  <time>2026-08-28T17:55:08Z</time>
  <course>244.27</course>
  <speed>5.28</speed>
  <fix>3d</fix>
</trkpt>
<trkpt lat="40.0716885" lon="-105.2288127">
  <ele>1583.0</ele>
  <time>2026-08-28T17:55:08Z</time>
  <course>245.14</course>
  <speed>5.364000372856065</speed>
  <fix>3d</fix>
</trkpt>
<trkpt lat="40.0716932" lon="-105.2287993">
  <ele>1583.0</ele>
  <time>2026-08-28T17:55:08Z</time>
  <course>244.42</course>
  <speed>5.33</speed>
  <fix>3d</fix>
</trkpt>
<trkpt lat="40.0716865" lon="-105.2288183">
  <ele>1583.0</ele>
  <time>2026-08-28T17:55:08Z</time>
  <course>245.22</course>
  <speed>5.350710233230725</speed>
  <fix>3d</fix>
</trkpt>
<trkpt lat="40.0716932" lon="-105.2287993">
  <ele>1583.0</ele>
  <time>2026-08-28T17:55:08Z</time>
  <course>244.42</course>
  <speed>5.33</speed>
  <fix>3d</fix>
</trkpt>
<trkpt lat="40.0716845" lon="-105.2288239">
  <ele>1583.0</ele>
  <time>2026-08-28T17:55:08Z</time>
  <course>245.29</course>
  <speed>5.337424472533546</speed>
  <fix>3d</fix>
</trkpt>
<trkpt lat="40.071689" lon="-105.2288106">
  <ele>1583.0</ele>
  <time>2026-08-28T17:55:08Z</time>
  <course>244.56</course>
  <speed>5.34</speed>
  <fix>3d</fix>
</trkpt>
<trkpt lat="40.0716824" lon="-105.2288296">
  <ele>1583.0</ele>
  <time>2026-08-28T17:55:08Z</time>
  <course>245.37</course>
  <speed>5.324143123545797</speed>
  <fix>3d</fix>
</trkpt>
<trkpt lat="40.0716849" lon="-105.2288219">
  <ele>1583.0</ele>
  <time>2026-08-28T17:55:08Z</time>
  <course>244.71</course>
  <speed>5.32</speed>
  <fix>3d</fix>
</trkpt>
<trkpt lat="40.0716804" lon="-105.2288352">
  <ele>1583.0</ele>
  <time>2026-08-28T17:55:08Z</time>
  <course>245.44</course>
  <speed>5.297593793412251</speed>
  <fix>3d</fix>
</trkpt>
<trkpt lat="40.0716849" lon="-105.2288219">
  <ele>1583.0</ele>
  <time>2026-08-28T17:55:08Z</time>
  <course>244.71</course>
  <speed>5.32</speed>
  <fix>3d</fix>
</trkpt>
<trkpt lat="40.0716784" lon="-105.2288408">
  <ele>1582.99</ele>
  <time>2026-08-28T17:55:08Z</time>
  <course>245.52</course>
  <speed>5.275244070182914</speed>
  <fix>3d</fix>
</trkpt>
<trkpt lat="40.0716808" lon="-105.2288332">
  <ele>1583.0</ele>
  <time>2026-08-28T17:55:08Z</time>
  <course>244.85</course>
  <speed>5.29</speed>
  <fix>3d</fix>
</trkpt>
<trkpt lat="40.0716764" lon="-105.2288464">
  <ele>1582.99</ele>
  <time>2026-08-28T17:55:08Z</time>
  <course>245.59</course>
  <speed>5.248714128241317</speed>
  <fix>3d</fix>
</trkpt>
<trkpt lat="40.0716808" lon="-105.2288332">
  <ele>1583.0</ele>
  <time>2026-08-28T17:55:08Z</time>
  <course>244.85</course>
  <speed>5.29</speed>
  <fix>3d</fix>
</trkpt>
<trkpt lat="40.0716744" lon="-105.2288519">
  <ele>1582.99</ele>
  <time>2026-08-28T17:55:08Z</time>
  <course>245.66</course>
  <speed>5.22220260043595</speed>
  <fix>3d</fix>
</trkpt>
<trkpt lat="40.0716769" lon="-105.2288444">
  <ele>1583.0</ele>
  <time>2026-08-28T17:55:08Z</time>
  <course>244.99</course>
  <speed>5.24</speed>
  <fix>3d</fix>
</trkpt>
<trkpt lat="40.0716725" lon="-105.2288575">
  <ele>1582.99</ele>
  <time>2026-08-28T17:55:08Z</time>
  <course>245.74</course>
  <speed>5.1907610232026675</speed>
  <fix>3d</fix>
</trkpt>
<trkpt lat="40.0716769" lon="-105.2288444">
  <ele>1583.0</ele>
  <time>2026-08-28T17:55:08Z</time>
  <course>244.99</course>
  <speed>5.24</speed>
  <fix>3d</fix>
</trkpt>
<trkpt lat="40.0716705" lon="-105.228863">
  <ele>1582.99</ele>
  <time>2026-08-28T17:55:08Z</time>
  <course>245.81</course>
  <speed>5.164261805911857</speed>
  <fix>3d</fix>
</trkpt>
<trkpt lat="40.0716729" lon="-105.2288555">
  <ele>1583.0</ele>
  <time>2026-08-28T17:55:08Z</time>
  <course>245.14</course>
  <speed>5.19</speed>
  <fix>3d</fix>
</trkpt>
<trkpt lat="40.0716685" lon="-105.2288686">
  <ele>1582.99</ele>
  <time>2026-08-28T17:55:08Z</time>
  <course>245.88</course>
  <speed>5.137781622451464</speed>
  <fix>3d</fix>
</trkpt>
<trkpt lat="40.0716729" lon="-105.2288555">
  <ele>1583.0</ele>
  <time>2026-08-28T17:55:08Z</time>
  <course>245.14</course>
  <speed>5.19</speed>
  <fix>3d</fix>
</trkpt>
<trkpt lat="40.0716666" lon="-105.2288741">
  <ele>1582.99</ele>
  <time>2026-08-28T17:55:08Z</time>
  <course>245.96</course>
  <speed>5.115437420201718</speed>
  <fix>3d</fix>
</trkpt>
<trkpt lat="40.071669" lon="-105.2288665">
  <ele>1583.0</ele>
  <time>2026-08-28T17:55:08Z</time>
  <course>245.28</course>
  <speed>5.14</speed>
  <fix>3d</fix>
</trkpt>
<trkpt lat="40.0716647" lon="-105.2288795">
  <ele>1582.99</ele>
  <time>2026-08-28T17:55:08Z</time>
  <course>246.03</course>
  <speed>5.079862202855506</speed>
  <fix>3d</fix>
</trkpt>
<trkpt lat="40.071669" lon="-105.2288665">
  <ele>1583.0</ele>
  <time>2026-08-28T17:55:08Z</time>
  <course>245.28</course>
  <speed>5.14</speed>
  <fix>3d</fix>
</trkpt>
<trkpt lat="40.0716628" lon="-105.2288849">
  <ele>1582.99</ele>
  <time>2026-08-28T17:55:08Z</time>
  <course>246.1</course>
  <speed>5.053414687119988</speed>
  <fix>3d</fix>
</trkpt>
<trkpt lat="40.0716652" lon="-105.2288775">
  <ele>1583.0</ele>
  <time>2026-08-28T17:55:08Z</time>
  <course>245.41</course>
  <speed>5.09</speed>
  <fix>3d</fix>
</trkpt>
<trkpt lat="40.0716609" lon="-105.2288904">
  <ele>1582.99</ele>
  <time>2026-08-28T17:55:08Z</time>
  <course>246.17</course>
  <speed>5.0310734441071325</speed>
  <fix>3d</fix>
</trkpt>
<trkpt lat="40.0716652" lon="-105.2288775">
  <ele>1583.0</ele>
  <time>2026-08-28T17:55:08Z</time>
  <course>245.41</course>
  <speed>5.09</speed>
  <fix>3d</fix>
</trkpt>
<trkpt lat="40.071659" lon="-105.2288957">
  <ele>1582.99</ele>
  <time>2026-08-28T17:55:08Z</time>
  <course>246.24</course>
  <speed>5.017858108795027</speed>
  <fix>3d</fix>
</trkpt>
<trkpt lat="40.0716614" lon="-105.2288883">
  <ele>1583.0</ele>
  <time>2026-08-28T17:55:08Z</time>
  <course>245.55</course>
  <speed>5.04</speed>
  <fix>3d</fix>
</trkpt>
<trkpt lat="40.0716572" lon="-105.2289011">
  <ele>1582.99</ele>
  <time>2026-08-28T17:55:08Z</time>
  <course>246.31</course>
  <speed>4.991442677222689</speed>
  <fix>3d</fix>
</trkpt>
<trkpt lat="40.0716614" lon="-105.2288883">
  <ele>1583.0</ele>
  <time>2026-08-28T17:55:08Z</time>
  <course>245.55</course>
  <speed>5.04</speed>
  <fix>3d</fix>
</trkpt>
<trkpt lat="40.0716553" lon="-105.2289065">
  <ele>1582.99</ele>
  <time>2026-08-28T17:55:08Z</time>
  <course>246.39</course>
  <speed>4.978242661823547</speed>
  <fix>3d</fix>
</trkpt>
<trkpt lat="40.0716614" lon="-105.2288883">
  <ele>1583.0</ele>
  <time>2026-08-28T17:55:08Z</time>
  <course>245.55</course>
  <speed>5.04</speed>
  <fix>3d</fix>
</trkpt>
<trkpt lat="40.0716535" lon="-105.2289117">
  <ele>1582.99</ele>
  <time>2026-08-28T17:55:08Z</time>
  <course>246.46</course>
  <speed>4.9559055681076085</speed>
  <fix>3d</fix>
</trkpt>
<trkpt lat="40.0716576" lon="-105.228899">
  <ele>1583.0</ele>
  <time>2026-08-28T17:55:08Z</time>
  <course>245.69</course>
  <speed>5.0</speed>
  <fix>3d</fix>
</trkpt>
<trkpt lat="40.0716517" lon="-105.228917">
  <ele>1582.99</ele>
  <time>2026-08-28T17:55:08Z</time>
  <course>246.53</course>
  <speed>4.9427118062861</speed>
  <fix>3d</fix>
</trkpt>
<trkpt lat="40.0716576" lon="-105.228899">
  <ele>1583.0</ele>
  <time>2026-08-28T17:55:08Z</time>
  <course>245.69</course>
  <speed>5.0</speed>
  <fix>3d</fix>
</trkpt>
<trkpt lat="40.0716499" lon="-105.2289223">
  <ele>1583.0</ele>
  <time>2026-08-28T17:55:08Z</time>
  <course>246.6</course>
  <speed>4.929523303525403</speed>
  <fix>3d</fix>
</trkpt>
<trkpt lat="40.0716539" lon="-105.2289097">
  <ele>1583.0</ele>
  <time>2026-08-28T17:55:08Z</time>
  <course>245.82</course>
  <speed>4.97</speed>
  <fix>3d</fix>
</trkpt>
<trkpt lat="40.0716481" lon="-105.2289275">
  <ele>1583.0</ele>
  <time>2026-08-28T17:55:08Z</time>
  <course>246.67</course>
  <speed>4.925494898992384</speed>
  <fix>3d</fix>
</trkpt>
<trkpt lat="40.0716539" lon="-105.2289097">
  <ele>1583.0</ele>
  <time>2026-08-28T17:55:08Z</time>
  <course>245.82</course>
  <speed>4.97</speed>
  <fix>3d</fix>
</trkpt>
<trkpt lat="40.0716463" lon="-105.2289327">
  <ele>1583.0</ele>
  <time>2026-08-28T17:55:08Z</time>
  <course>246.74</course>
  <speed>4.912321243567037</speed>
  <fix>3d</fix>
</trkpt>
<trkpt lat="40.0716503" lon="-105.2289203">
  <ele>1583.0</ele>
  <time>2026-08-28T17:55:08Z</time>
  <course>245.96</course>
  <speed>4.95</speed>
  <fix>3d</fix>
</trkpt>
<trkpt lat="40.0716446" lon="-105.2289379">
  <ele>1583.01</ele>
  <time>2026-08-28T17:55:08Z</time>
  <course>246.82</course>
  <speed>4.908319468005318</speed>
  <fix>3d</fix>
</trkpt>
<trkpt lat="40.0716503" lon="-105.2289203">
  <ele>1583.0</ele>
  <time>2026-08-28T17:55:08Z</time>
  <course>245.96</course>
  <speed>4.95</speed>
  <fix>3d</fix>
</trkpt>
<trkpt lat="40.0716428" lon="-105.2289432">
  <ele>1583.01</ele>
  <time>2026-08-28T17:55:08Z</time>
  <course>246.89</course>
  <speed>4.908319468005318</speed>
  <fix>3d</fix>
</trkpt>
<trkpt lat="40.0716467" lon="-105.2289309">
  <ele>1583.0</ele>
  <time>2026-08-28T17:55:08Z</time>
  <course>246.09</course>
  <speed>4.94</speed>
  <fix>3d</fix>
</trkpt>
<trkpt lat="40.071641" lon="-105.2289485">
  <ele>1583.01</ele>
  <time>2026-08-28T17:55:08Z</time>
  <course>246.96</course>
  <speed>4.91351198227907</speed>
  <fix>3d</fix>
</trkpt>
<trkpt lat="40.0716431" lon="-105.2289416">
  <ele>1583.0</ele>
  <time>2026-08-28T17:55:08Z</time>
  <course>246.23</course>
  <speed>4.95</speed>
  <fix>3d</fix>
</trkpt>
<trkpt lat="40.0716392" lon="-105.2289538">
  <ele>1583.01</ele>
  <time>2026-08-28T17:55:08Z</time>
  <course>247.03</course>
  <speed>4.91351198227907</speed>
  <fix>3d</fix>
</trkpt>
<trkpt lat="40.0716431" lon="-105.2289416">
  <ele>1583.0</ele>
  <time>2026-08-28T17:55:08Z</time>
  <course>246.23</course>
  <speed>4.95</speed>
  <fix>3d</fix>
</trkpt>
<trkpt lat="40.0716375" lon="-105.228959">
  <ele>1583.01</ele>
  <time>2026-08-28T17:55:08Z</time>
  <course>247.1</course>
  <speed>4.922692352767944</speed>
  <fix>3d</fix>
</trkpt>
<trkpt lat="40.0716396" lon="-105.2289523">
  <ele>1583.0</ele>
  <time>2026-08-28T17:55:08Z</time>
  <course>246.36</course>
  <speed>4.95</speed>
  <fix>3d</fix>
</trkpt>
<trkpt lat="40.0716357" lon="-105.2289644">
  <ele>1583.01</ele>
  <time>2026-08-28T17:55:08Z</time>
  <course>247.17</course>
  <speed>4.92793060016068</speed>
  <fix>3d</fix>
</trkpt>
<trkpt lat="40.0716396" lon="-105.2289523">
  <ele>1583.0</ele>
  <time>2026-08-28T17:55:08Z</time>
  <course>246.36</course>
  <speed>4.95</speed>
  <fix>3d</fix>
</trkpt>
<trkpt lat="40.0716339" lon="-105.2289697">
  <ele>1583.01</ele>
  <time>2026-08-28T17:55:08Z</time>
  <course>247.22</course>
  <speed>4.937124669278669</speed>
  <fix>3d</fix>
</trkpt>
<trkpt lat="40.071636" lon="-105.2289629">
  <ele>1583.0</ele>
  <time>2026-08-28T17:55:08Z</time>
  <course>246.48</course>
  <speed>4.97</speed>
  <fix>3d</fix>
</trkpt>
<trkpt lat="40.0716321" lon="-105.2289751">
  <ele>1583.01</ele>
  <time>2026-08-28T17:55:08Z</time>
  <course>247.27</course>
  <speed>4.9463218657907815</speed>
  <fix>3d</fix>
</trkpt>
<trkpt lat="40.071636" lon="-105.2289629">
  <ele>1583.0</ele>
  <time>2026-08-28T17:55:08Z</time>
  <course>246.48</course>
  <speed>4.97</speed>
  <fix>3d</fix>
</trkpt>
<trkpt lat="40.0716303" lon="-105.2289805">
  <ele>1583.01</ele>
  <time>2026-08-28T17:55:08Z</time>
  <course>247.32</course>
  <speed>4.9463218657907815</speed>
  <fix>3d</fix>
</trkpt>
<trkpt lat="40.0716324" lon="-105.2289736">
  <ele>1583.0</ele>
  <time>2026-08-28T17:55:08Z</time>
  <course>246.58</course>
  <speed>4.98</speed>
  <fix>3d</fix>
</trkpt>
<trkpt lat="40.0716285" lon="-105.228986">
  <ele>1583.02</ele>
  <time>2026-08-28T17:55:08Z</time>
  <course>247.35</course>
  <speed>4.955522172284168</speed>
  <fix>3d</fix>
</trkpt>
<trkpt lat="40.0716324" lon="-105.2289736">
  <ele>1583.0</ele>
  <time>2026-08-28T17:55:08Z</time>
  <course>246.58</course>
  <speed>4.98</speed>
  <fix>3d</fix>
</trkpt>
<trkpt lat="40.0716268" lon="-105.2289914">
  <ele>1583.02</ele>
  <time>2026-08-28T17:55:08Z</time>
  <course>247.36</course>
  <speed>4.964725571469183</speed>
  <fix>3d</fix>
</trkpt>
<trkpt lat="40.0716289" lon="-105.2289844">
  <ele>1583.0</ele>
  <time>2026-08-28T17:55:08Z</time>
  <course>246.65</course>
  <speed>4.99</speed>
  <fix>3d</fix>
</trkpt>
<trkpt lat="40.071625" lon="-105.2289968">
  <ele>1583.02</ele>
  <time>2026-08-28T17:55:08Z</time>
  <course>247.41</course>
  <speed>4.973932046178355</speed>
  <fix>3d</fix>
</trkpt>
<trkpt lat="40.0716289" lon="-105.2289844">
  <ele>1583.0</ele>
  <time>2026-08-28T17:55:08Z</time>
  <course>246.65</course>
  <speed>4.99</speed>
  <fix>3d</fix>
</trkpt>
<trkpt lat="40.0716232" lon="-105.2290022">
  <ele>1583.02</ele>
  <time>2026-08-28T17:55:08Z</time>
  <course>247.44</course>
  <speed>4.973932046178355</speed>
  <fix>3d</fix>
</trkpt>
<trkpt lat="40.0716253" lon="-105.2289951">
  <ele>1583.0</ele>
  <time>2026-08-28T17:55:08Z</time>
  <course>246.71</course>
  <speed>5.0</speed>
  <fix>3d</fix>
</trkpt>
<trkpt lat="40.0716214" lon="-105.2290077">
  <ele>1583.02</ele>
  <time>2026-08-28T17:55:08Z</time>
  <course>247.46</course>
  <speed>4.9870432121649</speed>
  <fix>3d</fix>
</trkpt>
<trkpt lat="40.0716253" lon="-105.2289951">
  <ele>1583.0</ele>
  <time>2026-08-28T17:55:08Z</time>
  <course>246.71</course>
  <speed>5.0</speed>
  <fix>3d</fix>
</trkpt>
<trkpt lat="40.0716196" lon="-105.2290131">
  <ele>1583.02</ele>
  <time>2026-08-28T17:55:08Z</time>
  <course>247.49</course>
  <speed>4.992354154104054</speed>
  <fix>3d</fix>
</trkpt>
<trkpt lat="40.0716217" lon="-105.229006">
  <ele>1583.0</ele>
  <time>2026-08-28T17:55:08Z</time>
  <course>246.76</course>
  <speed>5.01</speed>
  <fix>3d</fix>
</trkpt>
<trkpt lat="40.0716178" lon="-105.2290185">
  <ele>1583.03</ele>
  <time>2026-08-28T17:55:08Z</time>
  <course>247.52</course>
  <speed>4.992354154104054</speed>
  <fix>3d</fix>
</trkpt>
<trkpt lat="40.0716217" lon="-105.229006">
  <ele>1583.0</ele>
  <time>2026-08-28T17:55:08Z</time>
  <course>246.76</course>
  <speed>5.01</speed>
  <fix>3d</fix>
</trkpt>
<trkpt lat="40.0716161" lon="-105.229024">
  <ele>1583.03</ele>
  <time>2026-08-28T17:55:09Z</time>
  <course>247.55</course>
  <speed>4.992354154104054</speed>
  <fix>3d</fix>
</trkpt>
<trkpt lat="40.0716217" lon="-105.229006">
  <ele>1583.0</ele>
  <time>2026-08-28T17:55:09Z</time>
  <course>246.76</course>
  <speed>5.01</speed>
  <fix>3d</fix>
</trkpt>
<trkpt lat="40.0716143" lon="-105.2290294">
  <ele>1583.03</ele>
  <time>2026-08-28T17:55:09Z</time>
  <course>247.55</course>
  <speed>5.0015697535873676</speed>
  <fix>3d</fix>
</trkpt>
<trkpt lat="40.0716182" lon="-105.2290169">
  <ele>1583.0</ele>
  <time>2026-08-28T17:55:09Z</time>
  <course>246.81</course>
  <speed>5.02</speed>
  <fix>3d</fix>
</trkpt>
<trkpt lat="40.0716125" lon="-105.2290348">
  <ele>1583.04</ele>
  <time>2026-08-28T17:55:09Z</time>
  <course>247.6</course>
  <speed>5.0015697535873676</speed>
  <fix>3d</fix>
</trkpt>
<trkpt lat="40.0716182" lon="-105.2290169">
  <ele>1583.0</ele>
  <time>2026-08-28T17:55:09Z</time>
  <course>246.81</course>
  <speed>5.02</speed>
  <fix>3d</fix>
</trkpt>
<trkpt lat="40.0716108" lon="-105.2290402">
  <ele>1583.04</ele>
  <time>2026-08-28T17:55:09Z</time>
  <course>247.61</course>
  <speed>5.0015697535873676</speed>
  <fix>3d</fix>
</trkpt>
<trkpt lat="40.0716147" lon="-105.2290277">
  <ele>1583.0</ele>
  <time>2026-08-28T17:55:09Z</time>
  <course>246.86</course>
  <speed>5.03</speed>
  <fix>3d</fix>
</trkpt>
<trkpt lat="40.071609" lon="-105.2290456">
  <ele>1583.04</ele>
  <time>2026-08-28T17:55:09Z</time>
  <course>247.63</course>
  <speed>5.0015697535873676</speed>
  <fix>3d</fix>
</trkpt>
<trkpt lat="40.0716147" lon="-105.2290277">
  <ele>1583.0</ele>
  <time>2026-08-28T17:55:09Z</time>
  <course>246.86</course>
  <speed>5.03</speed>
  <fix>3d</fix>
</trkpt>
<trkpt lat="40.0716073" lon="-105.2290509">
  <ele>1583.04</ele>
  <time>2026-08-28T17:55:09Z</time>
  <course>247.66</course>
  <speed>4.99769947075652</speed>
  <fix>3d</fix>
</trkpt>
<trkpt lat="40.0716111" lon="-105.2290386">
  <ele>1583.0</ele>
  <time>2026-08-28T17:55:09Z</time>
  <course>246.89</course>
  <speed>5.03</speed>
  <fix>3d</fix>
</trkpt>
<trkpt lat="40.0716055" lon="-105.2290564">
  <ele>1583.04</ele>
  <time>2026-08-28T17:55:09Z</time>
  <course>247.67</course>
  <speed>4.99769947075652</speed>
  <fix>3d</fix>
</trkpt>
<trkpt lat="40.0716076" lon="-105.2290495">
  <ele>1583.0</ele>
  <time>2026-08-28T17:55:09Z</time>
  <course>246.92</course>
  <speed>5.03</speed>
  <fix>3d</fix>
</trkpt>
<trkpt lat="40.0716037" lon="-105.2290618">
  <ele>1583.04</ele>
  <time>2026-08-28T17:55:09Z</time>
  <course>247.7</course>
  <speed>4.99769947075652</speed>
  <fix>3d</fix>
</trkpt>
<trkpt lat="40.0716076" lon="-105.2290495">
  <ele>1583.0</ele>
  <time>2026-08-28T17:55:09Z</time>
  <course>246.92</course>
  <speed>5.03</speed>
  <fix>3d</fix>
</trkpt>
<trkpt lat="40.071602" lon="-105.2290672">
  <ele>1583.04</ele>
  <time>2026-08-28T17:55:09Z</time>
  <course>247.73</course>
  <speed>4.99769947075652</speed>
  <fix>3d</fix>
</trkpt>
<trkpt lat="40.071604" lon="-105.2290603">
  <ele>1583.0</ele>
  <time>2026-08-28T17:55:09Z</time>
  <course>246.96</course>
  <speed>5.03</speed>
  <fix>3d</fix>
</trkpt>
<trkpt lat="40.0716002" lon="-105.2290727">
  <ele>1583.04</ele>
  <time>2026-08-28T17:55:09Z</time>
  <course>247.73</course>
  <speed>4.99769947075652</speed>
  <fix>3d</fix>
</trkpt>
<trkpt lat="40.071604" lon="-105.2290603">
  <ele>1583.0</ele>
  <time>2026-08-28T17:55:09Z</time>
  <course>246.96</course>
  <speed>5.03</speed>
  <fix>3d</fix>
</trkpt>
<trkpt lat="40.0715985" lon="-105.2290781">
  <ele>1583.04</ele>
  <time>2026-08-28T17:55:09Z</time>
  <course>247.76</course>
  <speed>4.99769947075652</speed>
  <fix>3d</fix>
</trkpt>
<trkpt lat="40.0716004" lon="-105.2290712">
  <ele>1583.0</ele>
  <time>2026-08-28T17:55:09Z</time>
  <course>247.0</course>
  <speed>5.03</speed>
  <fix>3d</fix>
</trkpt>
<trkpt lat="40.0715967" lon="-105.2290836">
  <ele>1583.03</ele>
  <time>2026-08-28T17:55:09Z</time>
  <course>247.78</course>
  <speed>4.99769947075652</speed>
  <fix>3d</fix>
</trkpt>
<trkpt lat="40.0716004" lon="-105.2290712">
  <ele>1583.0</ele>
  <time>2026-08-28T17:55:09Z</time>
  <course>247.0</course>
  <speed>5.03</speed>
  <fix>3d</fix>
</trkpt>
<trkpt lat="40.0715949" lon="-105.229089">
  <ele>1583.03</ele>
  <time>2026-08-28T17:55:09Z</time>
  <course>247.8</course>
  <speed>4.99769947075652</speed>
  <fix>3d</fix>
</trkpt>
<trkpt lat="40.0715969" lon="-105.2290821">
  <ele>1583.0</ele>
  <time>2026-08-28T17:55:09Z</time>
  <course>247.03</course>
  <speed>5.03</speed>
  <fix>3d</fix>
</trkpt>
<trkpt lat="40.0715931" lon="-105.2290946">
  <ele>1583.03</ele>
  <time>2026-08-28T17:55:09Z</time>
  <course>247.83</course>
  <speed>4.993846213090667</speed>
  <fix>3d</fix>
</trkpt>
<trkpt lat="40.0715969" lon="-105.2290821">
  <ele>1583.0</ele>
  <time>2026-08-28T17:55:09Z</time>
  <course>247.03</course>
  <speed>5.03</speed>
  <fix>3d</fix>
</trkpt>
<trkpt lat="40.0715913" lon="-105.2291">
  <ele>1583.02</ele>
  <time>2026-08-28T17:55:09Z</time>
  <course>247.83</course>
  <speed>4.993846213090667</speed>
  <fix>3d</fix>
</trkpt>
<trkpt lat="40.0715934" lon="-105.229093">
  <ele>1583.0</ele>
  <time>2026-08-28T17:55:09Z</time>
  <course>247.05</course>
  <speed>5.03</speed>
  <fix>3d</fix>
</trkpt>
<trkpt lat="40.0715896" lon="-105.2291055">
  <ele>1583.02</ele>
  <time>2026-08-28T17:55:09Z</time>
  <course>247.86</course>
  <speed>5.003079051943913</speed>
  <fix>3d</fix>
</trkpt>
<trkpt lat="40.0715934" lon="-105.229093">
  <ele>1583.0</ele>
  <time>2026-08-28T17:55:09Z</time>
  <course>247.05</course>
  <speed>5.03</speed>
  <fix>3d</fix>
</trkpt>
<trkpt lat="40.0715878" lon="-105.229111">
  <ele>1583.02</ele>
  <time>2026-08-28T17:55:09Z</time>
  <course>247.89</course>
  <speed>4.993846213090667</speed>
  <fix>3d</fix>
</trkpt>
<trkpt lat="40.0715899" lon="-105.2291039">
  <ele>1583.0</ele>
  <time>2026-08-28T17:55:09Z</time>
  <course>247.09</course>
  <speed>5.03</speed>
  <fix>3d</fix>
</trkpt>
<trkpt lat="40.071586" lon="-105.2291165">
  <ele>1583.02</ele>
  <time>2026-08-28T17:55:09Z</time>
  <course>247.9</course>
  <speed>4.993846213090667</speed>
  <fix>3d</fix>
</trkpt>
<trkpt lat="40.0715899" lon="-105.2291039">
  <ele>1583.0</ele>
  <time>2026-08-28T17:55:09Z</time>
  <course>247.09</course>
  <speed>5.03</speed>
  <fix>3d</fix>
</trkpt>
<trkpt lat="40.0715843" lon="-105.2291219">
  <ele>1583.02</ele>
  <time>2026-08-28T17:55:09Z</time>
  <course>247.93</course>
  <speed>4.993846213090667</speed>
  <fix>3d</fix>
</trkpt>
<trkpt lat="40.0715864" lon="-105.2291147">
  <ele>1583.0</ele>
  <time>2026-08-28T17:55:09Z</time>
  <course>247.13</course>
  <speed>5.02</speed>
  <fix>3d</fix>
</trkpt>
<trkpt lat="40.0715825" lon="-105.2291274">
  <ele>1583.02</ele>
  <time>2026-08-28T17:55:09Z</time>
  <course>247.93</course>
  <speed>4.99001002003002</speed>
  <fix>3d</fix>
</trkpt>
<trkpt lat="40.0715864" lon="-105.2291147">
  <ele>1583.0</ele>
  <time>2026-08-28T17:55:09Z</time>
  <course>247.13</course>
  <speed>5.02</speed>
  <fix>3d</fix>
</trkpt>
<trkpt lat="40.0715808" lon="-105.2291328">
  <ele>1583.02</ele>
  <time>2026-08-28T17:55:09Z</time>
  <course>247.96</course>
  <speed>4.99001002003002</speed>
  <fix>3d</fix>
</trkpt>
<trkpt lat="40.0715864" lon="-105.2291147">
  <ele>1583.0</ele>
  <time>2026-08-28T17:55:09Z</time>
  <course>247.13</course>
  <speed>5.02</speed>
  <fix>3d</fix>
</trkpt>
<trkpt lat="40.071579" lon="-105.2291382">
  <ele>1583.03</ele>
  <time>2026-08-28T17:55:09Z</time>
  <course>247.98</course>
  <speed>4.99001002003002</speed>
  <fix>3d</fix>
</trkpt>
<trkpt lat="40.0715828" lon="-105.2291256">
  <ele>1583.0</ele>
  <time>2026-08-28T17:55:09Z</time>
  <course>247.16</course>
  <speed>5.01</speed>
  <fix>3d</fix>
</trkpt>
<trkpt lat="40.0715773" lon="-105.2291436">
  <ele>1583.03</ele>
  <time>2026-08-28T17:55:09Z</time>
  <course>247.99</course>
  <speed>4.980773032371582</speed>
  <fix>3d</fix>
</trkpt>
<trkpt lat="40.0715828" lon="-105.2291256">
  <ele>1583.0</ele>
  <time>2026-08-28T17:55:09Z</time>
  <course>247.16</course>
  <speed>5.01</speed>
  <fix>3d</fix>
</trkpt>
<trkpt lat="40.0715756" lon="-105.229149">
  <ele>1583.03</ele>
  <time>2026-08-28T17:55:09Z</time>
  <course>248.01</course>
  <speed>4.976946855251722</speed>
  <fix>3d</fix>
</trkpt>
<trkpt lat="40.0715793" lon="-105.2291365">
  <ele>1583.0</ele>
  <time>2026-08-28T17:55:09Z</time>
  <course>247.19</course>
  <speed>5.01</speed>
  <fix>3d</fix>
</trkpt>
<trkpt lat="40.0715738" lon="-105.2291544">
  <ele>1583.04</ele>
  <time>2026-08-28T17:55:09Z</time>
  <course>248.03</course>
  <speed>4.976946855251722</speed>
  <fix>3d</fix>
</trkpt>
<trkpt lat="40.0715793" lon="-105.2291365">
  <ele>1583.0</ele>
  <time>2026-08-28T17:55:09Z</time>
  <course>247.19</course>
  <speed>5.01</speed>
  <fix>3d</fix>
</trkpt>
<trkpt lat="40.0715721" lon="-105.2291597">
  <ele>1583.04</ele>
  <time>2026-08-28T17:55:09Z</time>
  <course>248.03</course>
  <speed>4.967705707869579</speed>
  <fix>3d</fix>
</trkpt>
<trkpt lat="40.0715759" lon="-105.2291473">
  <ele>1583.0</ele>
  <time>2026-08-28T17:55:09Z</time>
  <course>247.22</course>
  <speed>5.0</speed>
  <fix>3d</fix>
</trkpt>
<trkpt lat="40.0715704" lon="-105.2291651">
  <ele>1583.04</ele>
  <time>2026-08-28T17:55:09Z</time>
  <course>248.05</course>
  <speed>4.967705707869579</speed>
  <fix>3d</fix>
</trkpt>
<trkpt lat="40.0715759" lon="-105.2291473">
  <ele>1583.0</ele>
  <time>2026-08-28T17:55:09Z</time>
  <course>247.22</course>
  <speed>5.0</speed>
  <fix>3d</fix>
</trkpt>
<trkpt lat="40.0715687" lon="-105.2291705">
  <ele>1583.04</ele>
  <time>2026-08-28T17:55:09Z</time>
  <course>248.06</course>
  <speed>4.967705707869579</speed>
  <fix>3d</fix>
</trkpt>
<trkpt lat="40.0715724" lon="-105.2291582">
  <ele>1583.0</ele>
  <time>2026-08-28T17:55:09Z</time>
  <course>247.24</course>
  <speed>5.0</speed>
  <fix>3d</fix>
</trkpt>
<trkpt lat="40.0715669" lon="-105.2291758">
  <ele>1583.04</ele>
  <time>2026-08-28T17:55:09Z</time>
  <course>248.08</course>
  <speed>4.967705707869579</speed>
  <fix>3d</fix>
</trkpt>
<trkpt lat="40.0715689" lon="-105.2291691">
  <ele>1583.0</ele>
  <time>2026-08-28T17:55:09Z</time>
  <course>247.26</course>
  <speed>5.0</speed>
  <fix>3d</fix>
</trkpt>
<trkpt lat="40.0715652" lon="-105.2291813">
  <ele>1583.04</ele>
  <time>2026-08-28T17:55:09Z</time>
  <course>248.1</course>
  <speed>4.967705707869579</speed>
  <fix>3d</fix>
</trkpt>
<trkpt lat="40.0715689" lon="-105.2291691">
  <ele>1583.0</ele>
  <time>2026-08-28T17:55:09Z</time>
  <course>247.26</course>
  <speed>5.0</speed>
  <fix>3d</fix>
</trkpt>
<trkpt lat="40.0715635" lon="-105.2291866">
  <ele>1583.04</ele>
  <time>2026-08-28T17:55:09Z</time>
  <course>248.11</course>
  <speed>4.963889603929563</speed>
  <fix>3d</fix>
</trkpt>
<trkpt lat="40.0715654" lon="-105.2291798">
  <ele>1583.0</ele>
  <time>2026-08-28T17:55:09Z</time>
  <course>247.28</course>
  <speed>5.0</speed>
  <fix>3d</fix>
</trkpt>
<trkpt lat="40.0715617" lon="-105.2291921">
  <ele>1583.05</ele>
  <time>2026-08-28T17:55:09Z</time>
  <course>248.12</course>
  <speed>4.976946855251722</speed>
  <fix>3d</fix>
</trkpt>
<trkpt lat="40.0715654" lon="-105.2291798">
  <ele>1583.0</ele>
  <time>2026-08-28T17:55:09Z</time>
  <course>247.28</course>
  <speed>5.0</speed>
  <fix>3d</fix>
</trkpt>
<trkpt lat="40.07156" lon="-105.2291975">
  <ele>1583.05</ele>
  <time>2026-08-28T17:55:09Z</time>
  <course>248.13</course>
  <speed>4.976946855251722</speed>
  <fix>3d</fix>
</trkpt>
<trkpt lat="40.071562" lon="-105.2291907">
  <ele>1583.0</ele>
  <time>2026-08-28T17:55:09Z</time>
  <course>247.3</course>
  <speed>5.01</speed>
  <fix>3d</fix>
</trkpt>
<trkpt lat="40.0715583" lon="-105.229203">
  <ele>1583.05</ele>
  <time>2026-08-28T17:55:09Z</time>
  <course>248.16</course>
  <speed>4.973137842449171</speed>
  <fix>3d</fix>
</trkpt>
<trkpt lat="40.071562" lon="-105.2291907">
  <ele>1583.0</ele>
  <time>2026-08-28T17:55:09Z</time>
  <course>247.3</course>
  <speed>5.01</speed>
  <fix>3d</fix>
</trkpt>
<trkpt lat="40.0715565" lon="-105.2292085">
  <ele>1583.05</ele>
  <time>2026-08-28T17:55:09Z</time>
  <course>248.16</course>
  <speed>4.986190930961228</speed>
  <fix>3d</fix>
</trkpt>
<trkpt lat="40.0715585" lon="-105.2292015">
  <ele>1583.0</ele>
  <time>2026-08-28T17:55:09Z</time>
  <course>247.32</course>
  <speed>5.01</speed>
  <fix>3d</fix>
</trkpt>
<trkpt lat="40.0715547" lon="-105.229214">
  <ele>1583.04</ele>
  <time>2026-08-28T17:55:09Z</time>
  <course>248.18</course>
  <speed>4.982388985215827</speed>
  <fix>3d</fix>
</trkpt>
<trkpt lat="40.0715585" lon="-105.2292015">
  <ele>1583.0</ele>
  <time>2026-08-28T17:55:09Z</time>
  <course>247.32</course>
  <speed>5.01</speed>
  <fix>3d</fix>
</trkpt>
<trkpt lat="40.071553" lon="-105.2292194">
  <ele>1583.04</ele>
  <time>2026-08-28T17:55:09Z</time>
  <course>248.18</course>
  <speed>4.982388985215827</speed>
  <fix>3d</fix>
</trkpt>
<trkpt lat="40.071555" lon="-105.2292124">
  <ele>1583.0</ele>
  <time>2026-08-28T17:55:09Z</time>
  <course>247.35</course>
  <speed>5.01</speed>
  <fix>3d</fix>
</trkpt>
<trkpt lat="40.0715513" lon="-105.2292249">
  <ele>1583.04</ele>
  <time>2026-08-28T17:55:09Z</time>
  <course>248.2</course>
  <speed>4.982388985215827</speed>
  <fix>3d</fix>
</trkpt>
<trkpt lat="40.071555" lon="-105.2292124">
  <ele>1583.0</ele>
  <time>2026-08-28T17:55:09Z</time>
  <course>247.35</course>
  <speed>5.01</speed>
  <fix>3d</fix>
</trkpt>
<trkpt lat="40.0715495" lon="-105.2292303">
  <ele>1583.04</ele>
  <time>2026-08-28T17:55:09Z</time>
  <course>248.22</course>
  <speed>4.982388985215827</speed>
  <fix>3d</fix>
</trkpt>
<trkpt lat="40.0715516" lon="-105.2292233">
  <ele>1583.0</ele>
  <time>2026-08-28T17:55:09Z</time>
  <course>247.37</course>
  <speed>5.01</speed>
  <fix>3d</fix>
</trkpt>
<trkpt lat="40.0715478" lon="-105.2292358">
  <ele>1583.04</ele>
  <time>2026-08-28T17:55:09Z</time>
  <course>248.22</course>
  <speed>4.982388985215827</speed>
  <fix>3d</fix>
</trkpt>
<trkpt lat="40.0715516" lon="-105.2292233">
  <ele>1583.0</ele>
  <time>2026-08-28T17:55:09Z</time>
  <course>247.37</course>
  <speed>5.01</speed>
  <fix>3d</fix>
</trkpt>
<trkpt lat="40.071546" lon="-105.2292413">
  <ele>1583.04</ele>
  <time>2026-08-28T17:55:10Z</time>
  <course>248.23</course>
  <speed>4.982388985215827</speed>
  <fix>3d</fix>
</trkpt>
<trkpt lat="40.0715516" lon="-105.2292233">
  <ele>1583.0</ele>
  <time>2026-08-28T17:55:10Z</time>
  <course>247.37</course>
  <speed>5.01</speed>
  <fix>3d</fix>
</trkpt>
<trkpt lat="40.0715443" lon="-105.2292467">
  <ele>1583.04</ele>
  <time>2026-08-28T17:55:10Z</time>
  <course>248.25</course>
  <speed>4.982388985215827</speed>
  <fix>3d</fix>
</trkpt>
<trkpt lat="40.0715481" lon="-105.2292342">
  <ele>1583.0</ele>
  <time>2026-08-28T17:55:10Z</time>
  <course>247.39</course>
  <speed>5.0</speed>
  <fix>3d</fix>
</trkpt>
<trkpt lat="40.0715426" lon="-105.2292521">
  <ele>1583.04</ele>
  <time>2026-08-28T17:55:10Z</time>
  <course>248.25</course>
  <speed>4.973137842449171</speed>
  <fix>3d</fix>
</trkpt>
<trkpt lat="40.0715481" lon="-105.2292342">
  <ele>1583.0</ele>
  <time>2026-08-28T17:55:10Z</time>
  <course>247.39</course>
  <speed>5.0</speed>
  <fix>3d</fix>
</trkpt>
<trkpt lat="40.0715409" lon="-105.2292575">
  <ele>1583.04</ele>
  <time>2026-08-28T17:55:10Z</time>
  <course>248.27</course>
  <speed>4.973137842449171</speed>
  <fix>3d</fix>
</trkpt>
<trkpt lat="40.0715446" lon="-105.229245">
  <ele>1583.0</ele>
  <time>2026-08-28T17:55:10Z</time>
  <course>247.4</course>
  <speed>5.0</speed>
  <fix>3d</fix>
</trkpt>
<trkpt lat="40.0715392" lon="-105.2292629">
  <ele>1583.04</ele>
  <time>2026-08-28T17:55:10Z</time>
  <course>248.27</course>
  <speed>4.973137842449171</speed>
  <fix>3d</fix>
</trkpt>
<trkpt lat="40.0715446" lon="-105.229245">
  <ele>1583.0</ele>
  <time>2026-08-28T17:55:10Z</time>
  <course>247.4</course>
  <speed>5.0</speed>
  <fix>3d</fix>
</trkpt>
<trkpt lat="40.0715375" lon="-105.2292682">
  <ele>1583.04</ele>
  <time>2026-08-28T17:55:10Z</time>
  <course>248.29</course>
  <speed>4.969346033433373</speed>
  <fix>3d</fix>
</trkpt>
<trkpt lat="40.0715412" lon="-105.2292559">
  <ele>1583.0</ele>
  <time>2026-08-28T17:55:10Z</time>
  <course>247.41</course>
  <speed>5.0</speed>
  <fix>3d</fix>
</trkpt>
<trkpt lat="40.0715358" lon="-105.2292736">
  <ele>1583.04</ele>
  <time>2026-08-28T17:55:10Z</time>
  <course>248.3</course>
  <speed>4.969346033433373</speed>
  <fix>3d</fix>
</trkpt>
<trkpt lat="40.0715412" lon="-105.2292559">
  <ele>1583.0</ele>
  <time>2026-08-28T17:55:10Z</time>
  <course>247.41</course>
  <speed>5.0</speed>
  <fix>3d</fix>
</trkpt>
<trkpt lat="40.071534" lon="-105.229279">
  <ele>1583.04</ele>
  <time>2026-08-28T17:55:10Z</time>
  <course>248.3</course>
  <speed>4.969346033433373</speed>
  <fix>3d</fix>
</trkpt>
<trkpt lat="40.0715377" lon="-105.2292667">
  <ele>1583.0</ele>
  <time>2026-08-28T17:55:10Z</time>
  <course>247.43</course>
  <speed>5.0</speed>
  <fix>3d</fix>
</trkpt>
<trkpt lat="40.0715323" lon="-105.2292844">
  <ele>1583.04</ele>
  <time>2026-08-28T17:55:10Z</time>
  <course>248.32</course>
  <speed>4.969346033433373</speed>
  <fix>3d</fix>
</trkpt>
<trkpt lat="40.0715342" lon="-105.2292775">
  <ele>1583.0</ele>
  <time>2026-08-28T17:55:10Z</time>
  <course>247.45</course>
  <speed>5.0</speed>
  <fix>3d</fix>
</trkpt>
<trkpt lat="40.0715306" lon="-105.2292898">
  <ele>1583.04</ele>
  <time>2026-08-28T17:55:10Z</time>
  <course>248.32</course>
  <speed>4.969346033433373</speed>
  <fix>3d</fix>
</trkpt>
<trkpt lat="40.0715342" lon="-105.2292775">
  <ele>1583.0</ele>
  <time>2026-08-28T17:55:10Z</time>
  <course>247.45</course>
  <speed>5.0</speed>
  <fix>3d</fix>
</trkpt>
<trkpt lat="40.0715289" lon="-105.2292952">
  <ele>1583.04</ele>
  <time>2026-08-28T17:55:10Z</time>
  <course>248.34</course>
  <speed>4.969346033433373</speed>
  <fix>3d</fix>
</trkpt>
<trkpt lat="40.0715309" lon="-105.2292884">
  <ele>1583.0</ele>
  <time>2026-08-28T17:55:10Z</time>
  <course>247.47</course>
  <speed>5.0</speed>
  <fix>3d</fix>
</trkpt>
<trkpt lat="40.0715272" lon="-105.2293006">
  <ele>1583.04</ele>
  <time>2026-08-28T17:55:10Z</time>
  <course>248.35</course>
  <speed>4.978604222068672</speed>
  <fix>3d</fix>
</trkpt>
<trkpt lat="40.0715309" lon="-105.2292884">
  <ele>1583.0</ele>
  <time>2026-08-28T17:55:10Z</time>
  <course>247.47</course>
  <speed>5.0</speed>
  <fix>3d</fix>
</trkpt>
<trkpt lat="40.0715254" lon="-105.2293061">
  <ele>1583.04</ele>
  <time>2026-08-28T17:55:10Z</time>
  <course>248.36</course>
  <speed>4.978604222068672</speed>
  <fix>3d</fix>
</trkpt>
<trkpt lat="40.0715274" lon="-105.2292993">
  <ele>1583.0</ele>
  <time>2026-08-28T17:55:10Z</time>
  <course>247.48</course>
  <speed>5.0</speed>
  <fix>3d</fix>
</trkpt>
<trkpt lat="40.0715237" lon="-105.2293116">
  <ele>1583.04</ele>
  <time>2026-08-28T17:55:10Z</time>
  <course>248.37</course>
  <speed>4.978604222068672</speed>
  <fix>3d</fix>
</trkpt>
<trkpt lat="40.0715274" lon="-105.2292993">
  <ele>1583.0</ele>
  <time>2026-08-28T17:55:10Z</time>
  <course>247.48</course>
  <speed>5.0</speed>
  <fix>3d</fix>
</trkpt>
<trkpt lat="40.071522" lon="-105.229317">
  <ele>1583.04</ele>
  <time>2026-08-28T17:55:10Z</time>
  <course>248.37</course>
  <speed>4.978604222068672</speed>
  <fix>3d</fix>
</trkpt>
<trkpt lat="40.0715239" lon="-105.2293101">
  <ele>1583.0</ele>
  <time>2026-08-28T17:55:10Z</time>
  <course>247.49</course>
  <speed>5.0</speed>
  <fix>3d</fix>
</trkpt>
<trkpt lat="40.0715202" lon="-105.2293225">
  <ele>1583.04</ele>
  <time>2026-08-28T17:55:10Z</time>
  <course>248.39</course>
  <speed>4.978604222068672</speed>
  <fix>3d</fix>
</trkpt>
<trkpt lat="40.0715239" lon="-105.2293101">
  <ele>1583.0</ele>
  <time>2026-08-28T17:55:10Z</time>
  <course>247.49</course>
  <speed>5.0</speed>
  <fix>3d</fix>
</trkpt>
<trkpt lat="40.0715185" lon="-105.229328">
  <ele>1583.03</ele>
  <time>2026-08-28T17:55:10Z</time>
  <course>248.39</course>
  <speed>4.978604222068672</speed>
  <fix>3d</fix>
</trkpt>
<trkpt lat="40.0715205" lon="-105.229321">
  <ele>1583.0</ele>
  <time>2026-08-28T17:55:10Z</time>
  <course>247.51</course>
  <speed>5.0</speed>
  <fix>3d</fix>
</trkpt>
<trkpt lat="40.0715168" lon="-105.2293335">
  <ele>1583.03</ele>
  <time>2026-08-28T17:55:10Z</time>
  <course>248.41</course>
  <speed>4.978604222068672</speed>
  <fix>3d</fix>
</trkpt>
<trkpt lat="40.0715205" lon="-105.229321">
  <ele>1583.0</ele>
  <time>2026-08-28T17:55:10Z</time>
  <course>247.51</course>
  <speed>5.0</speed>
  <fix>3d</fix>
</trkpt>
<trkpt lat="40.071515" lon="-105.2293389">
  <ele>1583.03</ele>
  <time>2026-08-28T17:55:10Z</time>
  <course>248.41</course>
  <speed>4.978604222068672</speed>
  <fix>3d</fix>
</trkpt>
<trkpt lat="40.071517" lon="-105.2293318">
  <ele>1583.0</ele>
  <time>2026-08-28T17:55:10Z</time>
  <course>247.52</course>
  <speed>5.0</speed>
  <fix>3d</fix>
</trkpt>
<trkpt lat="40.0715133" lon="-105.2293444">
  <ele>1583.03</ele>
  <time>2026-08-28T17:55:10Z</time>
  <course>248.41</course>
  <speed>4.978604222068672</speed>
  <fix>3d</fix>
</trkpt>
<trkpt lat="40.071517" lon="-105.2293318">
  <ele>1583.0</ele>
  <time>2026-08-28T17:55:10Z</time>
  <course>247.52</course>
  <speed>5.0</speed>
  <fix>3d</fix>
</trkpt>
<trkpt lat="40.0715116" lon="-105.2293499">
  <ele>1583.03</ele>
  <time>2026-08-28T17:55:10Z</time>
  <course>248.43</course>
  <speed>4.978604222068672</speed>
  <fix>3d</fix>
</trkpt>
<trkpt lat="40.0715136" lon="-105.2293426">
  <ele>1583.0</ele>
  <time>2026-08-28T17:55:10Z</time>
  <course>247.54</course>
  <speed>5.0</speed>
  <fix>3d</fix>
</trkpt>
<trkpt lat="40.0715098" lon="-105.2293553">
  <ele>1583.02</ele>
  <time>2026-08-28T17:55:10Z</time>
  <course>248.43</course>
  <speed>4.978604222068672</speed>
  <fix>3d</fix>
</trkpt>
<trkpt lat="40.0715136" lon="-105.2293426">
  <ele>1583.0</ele>
  <time>2026-08-28T17:55:10Z</time>
  <course>247.54</course>
  <speed>5.0</speed>
  <fix>3d</fix>
</trkpt>
<trkpt lat="40.0715081" lon="-105.2293608">
  <ele>1583.02</ele>
  <time>2026-08-28T17:55:10Z</time>
  <course>248.44</course>
  <speed>4.978604222068672</speed>
  <fix>3d</fix>
</trkpt>
<trkpt lat="40.0715136" lon="-105.2293426">
  <ele>1583.0</ele>
  <time>2026-08-28T17:55:10Z</time>
  <course>247.54</course>
  <speed>5.0</speed>
  <fix>3d</fix>
</trkpt>
<trkpt lat="40.0715064" lon="-105.2293662">
  <ele>1583.02</ele>
  <time>2026-08-28T17:55:10Z</time>
  <course>248.45</course>
  <speed>4.978604222068672</speed>
  <fix>3d</fix>
</trkpt>
<trkpt lat="40.0715102" lon="-105.2293535">
  <ele>1583.0</ele>
  <time>2026-08-28T17:55:10Z</time>
  <course>247.55</course>
  <speed>4.99</speed>
  <fix>3d</fix>
</trkpt>
<trkpt lat="40.0715047" lon="-105.2293716">
  <ele>1583.02</ele>
  <time>2026-08-28T17:55:10Z</time>
  <course>248.46</course>
  <speed>4.974836680736363</speed>
  <fix>3d</fix>
</trkpt>
<trkpt lat="40.0715102" lon="-105.2293535">
  <ele>1583.0</ele>
  <time>2026-08-28T17:55:10Z</time>
  <course>247.55</course>
  <speed>4.99</speed>
  <fix>3d</fix>
</trkpt>
<trkpt lat="40.071503" lon="-105.2293769">
  <ele>1583.01</ele>
  <time>2026-08-28T17:55:10Z</time>
  <course>248.46</course>
  <speed>4.965571467615787</speed>
  <fix>3d</fix>
</trkpt>
<trkpt lat="40.0715067" lon="-105.2293644">
  <ele>1583.0</ele>
  <time>2026-08-28T17:55:10Z</time>
  <course>247.56</course>
  <speed>4.99</speed>
  <fix>3d</fix>
</trkpt>
<trkpt lat="40.0715013" lon="-105.2293823">
  <ele>1583.01</ele>
  <time>2026-08-28T17:55:10Z</time>
  <course>248.48</course>
  <speed>4.965571467615787</speed>
  <fix>3d</fix>
</trkpt>
<trkpt lat="40.0715067" lon="-105.2293644">
  <ele>1583.0</ele>
  <time>2026-08-28T17:55:10Z</time>
  <course>247.56</course>
  <speed>4.99</speed>
  <fix>3d</fix>
</trkpt>
<trkpt lat="40.0714996" lon="-105.2293876">
  <ele>1583.01</ele>
  <time>2026-08-28T17:55:10Z</time>
  <course>248.48</course>
  <speed>4.965571467615787</speed>
  <fix>3d</fix>
</trkpt>
<trkpt lat="40.0715034" lon="-105.2293752">
  <ele>1583.0</ele>
  <time>2026-08-28T17:55:10Z</time>
  <course>247.58</course>
  <speed>4.99</speed>
  <fix>3d</fix>
</trkpt>
<trkpt lat="40.0714979" lon="-105.2293931">
  <ele>1583.01</ele>
  <time>2026-08-28T17:55:10Z</time>
  <course>248.48</course>
  <speed>4.965571467615787</speed>
  <fix>3d</fix>
</trkpt>
<trkpt lat="40.0715" lon="-105.2293861">
  <ele>1583.0</ele>
  <time>2026-08-28T17:55:10Z</time>
  <course>247.58</course>
  <speed>4.98</speed>
  <fix>3d</fix>
</trkpt>
<trkpt lat="40.0714962" lon="-105.2293985">
  <ele>1583.01</ele>
  <time>2026-08-28T17:55:10Z</time>
  <course>248.48</course>
  <speed>4.965571467615787</speed>
  <fix>3d</fix>
</trkpt>
<trkpt lat="40.0715" lon="-105.2293861">
  <ele>1583.0</ele>
  <time>2026-08-28T17:55:10Z</time>
  <course>247.58</course>
  <speed>4.98</speed>
  <fix>3d</fix>
</trkpt>
<trkpt lat="40.0714945" lon="-105.2294039">
  <ele>1583.01</ele>
  <time>2026-08-28T17:55:10Z</time>
  <course>248.48</course>
  <speed>4.965571467615787</speed>
  <fix>3d</fix>
</trkpt>
<trkpt lat="40.0714965" lon="-105.2293968">
  <ele>1583.0</ele>
  <time>2026-08-28T17:55:10Z</time>
  <course>247.58</course>
  <speed>4.99</speed>
  <fix>3d</fix>
</trkpt>
<trkpt lat="40.0714928" lon="-105.2294093">
  <ele>1583.01</ele>
  <time>2026-08-28T17:55:10Z</time>
  <course>248.49</course>
  <speed>4.965571467615787</speed>
  <fix>3d</fix>
</trkpt>
<trkpt lat="40.0714965" lon="-105.2293968">
  <ele>1583.0</ele>
  <time>2026-08-28T17:55:10Z</time>
  <course>247.58</course>
  <speed>4.99</speed>
  <fix>3d</fix>
</trkpt>
<trkpt lat="40.0714911" lon="-105.2294147">
  <ele>1583.01</ele>
  <time>2026-08-28T17:55:10Z</time>
  <course>248.5</course>
  <speed>4.965571467615787</speed>
  <fix>3d</fix>
</trkpt>
<trkpt lat="40.0714931" lon="-105.2294077">
  <ele>1583.0</ele>
  <time>2026-08-28T17:55:10Z</time>
  <course>247.59</course>
  <speed>4.99</speed>
  <fix>3d</fix>
</trkpt>
<trkpt lat="40.0714894" lon="-105.2294201">
  <ele>1583.0</ele>
  <time>2026-08-28T17:55:10Z</time>
  <course>248.5</course>
  <speed>4.965571467615787</speed>
  <fix>3d</fix>
</trkpt>
<trkpt lat="40.0714931" lon="-105.2294077">
  <ele>1583.0</ele>
  <time>2026-08-28T17:55:10Z</time>
  <course>247.59</course>
  <speed>4.99</speed>
  <fix>3d</fix>
</trkpt>
<trkpt lat="40.0714877" lon="-105.2294256">
  <ele>1583.0</ele>
  <time>2026-08-28T17:55:10Z</time>
  <course>248.5</course>
  <speed>4.965571467615787</speed>
  <fix>3d</fix>
</trkpt>
<trkpt lat="40.0714897" lon="-105.2294186">
  <ele>1583.0</ele>
  <time>2026-08-28T17:55:10Z</time>
  <course>247.6</course>
  <speed>4.99</speed>
  <fix>3d</fix>
</trkpt>
<trkpt lat="40.0714859" lon="-105.2294311">
  <ele>1583.0</ele>
  <time>2026-08-28T17:55:10Z</time>
  <course>248.51</course>
  <speed>4.974836680736363</speed>
  <fix>3d</fix>
</trkpt>
<trkpt lat="40.0714897" lon="-105.2294186">
  <ele>1583.0</ele>
  <time>2026-08-28T17:55:10Z</time>
  <course>247.6</course>
  <speed>4.99</speed>
  <fix>3d</fix>
</trkpt>
<trkpt lat="40.0714842" lon="-105.2294365">
  <ele>1583.0</ele>
  <time>2026-08-28T17:55:10Z</time>
  <course>248.51</course>
  <speed>4.974836680736363</speed>
  <fix>3d</fix>
</trkpt>
<trkpt lat="40.0714862" lon="-105.2294293">
  <ele>1583.0</ele>
  <time>2026-08-28T17:55:10Z</time>
  <course>247.6</course>
  <speed>4.99</speed>
  <fix>3d</fix>
</trkpt>
<trkpt lat="40.0714825" lon="-105.229442">
  <ele>1583.0</ele>
  <time>2026-08-28T17:55:10Z</time>
  <course>248.51</course>
  <speed>4.974836680736363</speed>
  <fix>3d</fix>
</trkpt>
<trkpt lat="40.0714862" lon="-105.2294293">
  <ele>1583.0</ele>
  <time>2026-08-28T17:55:10Z</time>
  <course>247.6</course>
  <speed>4.99</speed>
  <fix>3d</fix>
</trkpt>
<trkpt lat="40.0714808" lon="-105.2294474">
  <ele>1583.01</ele>
  <time>2026-08-28T17:55:10Z</time>
  <course>248.52</course>
  <speed>4.974836680736363</speed>
  <fix>3d</fix>
</trkpt>
<trkpt lat="40.0714829" lon="-105.2294402">
  <ele>1583.0</ele>
  <time>2026-08-28T17:55:10Z</time>
  <course>247.6</course>
  <speed>4.99</speed>
  <fix>3d</fix>
</trkpt>
<trkpt lat="40.0714791" lon="-105.2294529">
  <ele>1583.01</ele>
  <time>2026-08-28T17:55:10Z</time>
  <course>248.53</course>
  <speed>4.974836680736363</speed>
  <fix>3d</fix>
</trkpt>
<trkpt lat="40.0714829" lon="-105.2294402">
  <ele>1583.0</ele>
  <time>2026-08-28T17:55:10Z</time>
  <course>247.6</course>
  <speed>4.99</speed>
  <fix>3d</fix>
</trkpt>
<trkpt lat="40.0714774" lon="-105.2294583">
  <ele>1583.01</ele>
  <time>2026-08-28T17:55:11Z</time>
  <course>248.53</course>
  <speed>4.974836680736363</speed>
  <fix>3d</fix>
</trkpt>
<trkpt lat="40.0714794" lon="-105.2294511">
  <ele>1583.0</ele>
  <time>2026-08-28T17:55:11Z</time>
  <course>247.61</course>
  <speed>4.99</speed>
  <fix>3d</fix>
</trkpt>
<trkpt lat="40.0714756" lon="-105.2294638">
  <ele>1583.01</ele>
  <time>2026-08-28T17:55:11Z</time>
  <course>248.53</course>
  <speed>4.974836680736363</speed>
  <fix>3d</fix>
</trkpt>
<trkpt lat="40.0714794" lon="-105.2294511">
  <ele>1583.0</ele>
  <time>2026-08-28T17:55:11Z</time>
  <course>247.61</course>
  <speed>4.99</speed>
  <fix>3d</fix>
</trkpt>
<trkpt lat="40.0714739" lon="-105.2294692">
  <ele>1583.0</ele>
  <time>2026-08-28T17:55:11Z</time>
  <course>248.54</course>
  <speed>4.974836680736363</speed>
  <fix>3d</fix>
</trkpt>
<trkpt lat="40.0714794" lon="-105.2294511">
  <ele>1583.0</ele>
  <time>2026-08-28T17:55:11Z</time>
  <course>247.61</course>
  <speed>4.99</speed>
  <fix>3d</fix>
</trkpt>
<trkpt lat="40.0714722" lon="-105.2294746">
  <ele>1583.0</ele>
  <time>2026-08-28T17:55:11Z</time>
  <course>248.54</course>
  <speed>4.974836680736363</speed>
  <fix>3d</fix>
</trkpt>
<trkpt lat="40.071476" lon="-105.2294619">
  <ele>1583.0</ele>
  <time>2026-08-28T17:55:11Z</time>
  <course>247.62</course>
  <speed>4.99</speed>
  <fix>3d</fix>
</trkpt>
<trkpt lat="40.0714705" lon="-105.22948">
  <ele>1583.0</ele>
  <time>2026-08-28T17:55:11Z</time>
  <course>248.55</course>
  <speed>4.974836680736363</speed>
  <fix>3d</fix>
</trkpt>
<trkpt lat="40.071476" lon="-105.2294619">
  <ele>1583.0</ele>
  <time>2026-08-28T17:55:11Z</time>
  <course>247.62</course>
  <speed>4.99</speed>
  <fix>3d</fix>
</trkpt>
<trkpt lat="40.0714688" lon="-105.2294854">
  <ele>1583.0</ele>
  <time>2026-08-28T17:55:11Z</time>
  <course>248.55</course>
  <speed>4.974836680736363</speed>
  <fix>3d</fix>
</trkpt>
<trkpt lat="40.0714726" lon="-105.2294728">
  <ele>1583.0</ele>
  <time>2026-08-28T17:55:11Z</time>
  <course>247.62</course>
  <speed>4.99</speed>
  <fix>3d</fix>
</trkpt>
<trkpt lat="40.0714672" lon="-105.2294907">
  <ele>1583.0</ele>
  <time>2026-08-28T17:55:11Z</time>
  <course>248.55</course>
  <speed>4.974836680736363</speed>
  <fix>3d</fix>
</trkpt>
<trkpt lat="40.0714726" lon="-105.2294728">
  <ele>1583.0</ele>
  <time>2026-08-28T17:55:11Z</time>
  <course>247.62</course>
  <speed>4.99</speed>
  <fix>3d</fix>
</trkpt>
<trkpt lat="40.0714655" lon="-105.2294961">
  <ele>1583.0</ele>
  <time>2026-08-28T17:55:11Z</time>
  <course>248.55</course>
  <speed>4.965571467615787</speed>
  <fix>3d</fix>
</trkpt>
<trkpt lat="40.0714691" lon="-105.2294836">
  <ele>1583.0</ele>
  <time>2026-08-28T17:55:11Z</time>
  <course>247.62</course>
  <speed>4.99</speed>
  <fix>3d</fix>
</trkpt>
<trkpt lat="40.0714638" lon="-105.2295015">
  <ele>1583.0</ele>
  <time>2026-08-28T17:55:11Z</time>
  <course>248.56</course>
  <speed>4.965571467615787</speed>
  <fix>3d</fix>
</trkpt>
<trkpt lat="40.0714691" lon="-105.2294836">
  <ele>1583.0</ele>
  <time>2026-08-28T17:55:11Z</time>
  <course>247.62</course>
  <speed>4.99</speed>
  <fix>3d</fix>
</trkpt>
<trkpt lat="40.0714621" lon="-105.2295069">
  <ele>1583.0</ele>
  <time>2026-08-28T17:55:11Z</time>
  <course>248.57</course>
  <speed>4.965571467615787</speed>
  <fix>3d</fix>
</trkpt>
<trkpt lat="40.0714658" lon="-105.2294944">
  <ele>1583.0</ele>
  <time>2026-08-28T17:55:11Z</time>
  <course>247.63</course>
  <speed>4.99</speed>
  <fix>3d</fix>
</trkpt>
<trkpt lat="40.0714604" lon="-105.2295122">
  <ele>1582.99</ele>
  <time>2026-08-28T17:55:11Z</time>
  <course>248.57</course>
  <speed>4.965571467615787</speed>
  <fix>3d</fix>
</trkpt>
<trkpt lat="40.0714624" lon="-105.2295053">
  <ele>1583.0</ele>
  <time>2026-08-28T17:55:11Z</time>
  <course>247.64</course>
  <speed>4.99</speed>
  <fix>3d</fix>
</trkpt>
<trkpt lat="40.0714587" lon="-105.2295176">
  <ele>1583.0</ele>
  <time>2026-08-28T17:55:11Z</time>
  <course>248.57</course>
  <speed>4.974836680736363</speed>
  <fix>3d</fix>
</trkpt>
<trkpt lat="40.0714624" lon="-105.2295053">
  <ele>1583.0</ele>
  <time>2026-08-28T17:55:11Z</time>
  <course>247.64</course>
  <speed>4.99</speed>
  <fix>3d</fix>
</trkpt>
<trkpt lat="40.071457" lon="-105.229523">
  <ele>1583.0</ele>
  <time>2026-08-28T17:55:11Z</time>
  <course>248.57</course>
  <speed>4.974836680736363</speed>
  <fix>3d</fix>
</trkpt>
<trkpt lat="40.071459" lon="-105.2295161">
  <ele>1583.0</ele>
  <time>2026-08-28T17:55:11Z</time>
  <course>247.64</course>
  <speed>5.0</speed>
  <fix>3d</fix>
</trkpt>
<trkpt lat="40.0714553" lon="-105.2295285">
  <ele>1583.0</ele>
  <time>2026-08-28T17:55:11Z</time>
  <course>248.57</course>
  <speed>4.974836680736363</speed>
  <fix>3d</fix>
</trkpt>
<trkpt lat="40.071459" lon="-105.2295161">
  <ele>1583.0</ele>
  <time>2026-08-28T17:55:11Z</time>
  <course>247.64</course>
  <speed>5.0</speed>
  <fix>3d</fix>
</trkpt>
<trkpt lat="40.0714536" lon="-105.2295339">
  <ele>1583.0</ele>
  <time>2026-08-28T17:55:11Z</time>
  <course>248.57</course>
  <speed>4.974836680736363</speed>
  <fix>3d</fix>
</trkpt>
<trkpt lat="40.0714556" lon="-105.2295269">
  <ele>1583.0</ele>
  <time>2026-08-28T17:55:11Z</time>
  <course>247.64</course>
  <speed>5.0</speed>
  <fix>3d</fix>
</trkpt>
<trkpt lat="40.0714518" lon="-105.2295394">
  <ele>1583.0</ele>
  <time>2026-08-28T17:55:11Z</time>
  <course>248.57</course>
  <speed>4.984104734052044</speed>
  <fix>3d</fix>
</trkpt>
<trkpt lat="40.0714556" lon="-105.2295269">
  <ele>1583.0</ele>
  <time>2026-08-28T17:55:11Z</time>
  <course>247.64</course>
  <speed>5.0</speed>
  <fix>3d</fix>
</trkpt>
<trkpt lat="40.0714501" lon="-105.2295449">
  <ele>1583.0</ele>
  <time>2026-08-28T17:55:11Z</time>
  <course>248.57</course>
  <speed>4.984104734052044</speed>
  <fix>3d</fix>
</trkpt>
<trkpt lat="40.0714521" lon="-105.2295378">
  <ele>1583.0</ele>
  <time>2026-08-28T17:55:11Z</time>
  <course>247.64</course>
  <speed>5.0</speed>
  <fix>3d</fix>
</trkpt>
<trkpt lat="40.0714484" lon="-105.2295503">
  <ele>1583.0</ele>
  <time>2026-08-28T17:55:11Z</time>
  <course>248.58</course>
  <speed>4.984104734052044</speed>
  <fix>3d</fix>
</trkpt>
<trkpt lat="40.0714521" lon="-105.2295378">
  <ele>1583.0</ele>
  <time>2026-08-28T17:55:11Z</time>
  <course>247.64</course>
  <speed>5.0</speed>
  <fix>3d</fix>
</trkpt>
<trkpt lat="40.0714467" lon="-105.2295558">
  <ele>1583.01</ele>
  <time>2026-08-28T17:55:11Z</time>
  <course>248.58</course>
  <speed>4.984104734052044</speed>
  <fix>3d</fix>
</trkpt>
<trkpt lat="40.0714487" lon="-105.2295487">
  <ele>1583.0</ele>
  <time>2026-08-28T17:55:11Z</time>
  <course>247.64</course>
  <speed>5.0</speed>
  <fix>3d</fix>
</trkpt>
<trkpt lat="40.071445" lon="-105.2295613">
  <ele>1583.01</ele>
  <time>2026-08-28T17:55:11Z</time>
  <course>248.59</course>
  <speed>4.984104734052044</speed>
  <fix>3d</fix>
</trkpt>
<trkpt lat="40.0714487" lon="-105.2295487">
  <ele>1583.0</ele>
  <time>2026-08-28T17:55:11Z</time>
  <course>247.64</course>
  <speed>5.0</speed>
  <fix>3d</fix>
</trkpt>
<trkpt lat="40.0714432" lon="-105.2295667">
  <ele>1583.01</ele>
  <time>2026-08-28T17:55:11Z</time>
  <course>248.59</course>
  <speed>4.984104734052044</speed>
  <fix>3d</fix>
</trkpt>
<trkpt lat="40.0714452" lon="-105.2295596">
  <ele>1583.0</ele>
  <time>2026-08-28T17:55:11Z</time>
  <course>247.64</course>
  <speed>5.0</speed>
  <fix>3d</fix>
</trkpt>
<trkpt lat="40.0714415" lon="-105.2295722">
  <ele>1583.01</ele>
  <time>2026-08-28T17:55:11Z</time>
  <course>248.59</course>
  <speed>4.984104734052044</speed>
  <fix>3d</fix>
</trkpt>
<trkpt lat="40.0714452" lon="-105.2295596">
  <ele>1583.0</ele>
  <time>2026-08-28T17:55:11Z</time>
  <course>247.64</course>
  <speed>5.0</speed>
  <fix>3d</fix>
</trkpt>
<trkpt lat="40.0714398" lon="-105.2295777">
  <ele>1583.01</ele>
  <time>2026-08-28T17:55:11Z</time>
  <course>248.6</course>
  <speed>4.984104734052044</speed>
  <fix>3d</fix>
</trkpt>
<trkpt lat="40.0714418" lon="-105.2295705">
  <ele>1583.0</ele>
  <time>2026-08-28T17:55:11Z</time>
  <course>247.65</course>
  <speed>5.0</speed>
  <fix>3d</fix>
</trkpt>
<trkpt lat="40.0714381" lon="-105.2295831">
  <ele>1583.01</ele>
  <time>2026-08-28T17:55:11Z</time>
  <course>248.61</course>
  <speed>4.984104734052044</speed>
  <fix>3d</fix>
</trkpt>
<trkpt lat="40.0714418" lon="-105.2295705">
  <ele>1583.0</ele>
  <time>2026-08-28T17:55:11Z</time>
  <course>247.65</course>
  <speed>5.0</speed>
  <fix>3d</fix>
</trkpt>
<trkpt lat="40.0714364" lon="-105.2295886">
  <ele>1583.0</ele>
  <time>2026-08-28T17:55:11Z</time>
  <course>248.61</course>
  <speed>4.984104734052044</speed>
  <fix>3d</fix>
</trkpt>
<trkpt lat="40.0714418" lon="-105.2295705">
  <ele>1583.0</ele>
  <time>2026-08-28T17:55:11Z</time>
  <course>247.65</course>
  <speed>5.0</speed>
  <fix>3d</fix>
</trkpt>
<trkpt lat="40.0714347" lon="-105.229594">
  <ele>1583.0</ele>
  <time>2026-08-28T17:55:11Z</time>
  <course>248.61</course>
  <speed>4.984104734052044</speed>
  <fix>3d</fix>
</trkpt>
<trkpt lat="40.0714384" lon="-105.2295813">
  <ele>1583.0</ele>
  <time>2026-08-28T17:55:11Z</time>
  <course>247.66</course>
  <speed>5.0</speed>
  <fix>3d</fix>
</trkpt>
<trkpt lat="40.071433" lon="-105.2295994">
  <ele>1583.0</ele>
  <time>2026-08-28T17:55:11Z</time>
  <course>248.61</course>
  <speed>4.974836680736363</speed>
  <fix>3d</fix>
</trkpt>
<trkpt lat="40.0714384" lon="-105.2295813">
  <ele>1583.0</ele>
  <time>2026-08-28T17:55:11Z</time>
  <course>247.66</course>
  <speed>5.0</speed>
  <fix>3d</fix>
</trkpt>
<trkpt lat="40.0714313" lon="-105.2296048">
  <ele>1583.0</ele>
  <time>2026-08-28T17:55:11Z</time>
  <course>248.63</course>
  <speed>4.974836680736363</speed>
  <fix>3d</fix>
</trkpt>
<trkpt lat="40.0714349" lon="-105.2295922">
  <ele>1583.0</ele>
  <time>2026-08-28T17:55:11Z</time>
  <course>247.66</course>
  <speed>4.99</speed>
  <fix>3d</fix>
</trkpt>
<trkpt lat="40.0714296" lon="-105.2296101">
  <ele>1583.0</ele>
  <time>2026-08-28T17:55:11Z</time>
  <course>248.63</course>
  <speed>4.974836680736363</speed>
  <fix>3d</fix>
</trkpt>
<trkpt lat="40.0714349" lon="-105.2295922">
  <ele>1583.0</ele>
  <time>2026-08-28T17:55:11Z</time>
  <course>247.66</course>
  <speed>4.99</speed>
  <fix>3d</fix>
</trkpt>
<trkpt lat="40.0714279" lon="-105.2296155">
  <ele>1583.0</ele>
  <time>2026-08-28T17:55:11Z</time>
  <course>248.64</course>
  <speed>4.974836680736363</speed>
  <fix>3d</fix>
</trkpt>
<trkpt lat="40.0714315" lon="-105.229603">
  <ele>1583.0</ele>
  <time>2026-08-28T17:55:11Z</time>
  <course>247.67</course>
  <speed>4.99</speed>
  <fix>3d</fix>
</trkpt>
<trkpt lat="40.0714262" lon="-105.2296209">
  <ele>1583.01</ele>
  <time>2026-08-28T17:55:11Z</time>
  <course>248.65</course>
  <speed>4.9618141843483015</speed>
  <fix>3d</fix>
</trkpt>
<trkpt lat="40.0714282" lon="-105.2296139">
  <ele>1583.0</ele>
  <time>2026-08-28T17:55:11Z</time>
  <course>247.68</course>
  <speed>4.99</speed>
  <fix>3d</fix>
</trkpt>
<trkpt lat="40.0714245" lon="-105.2296263">
  <ele>1583.01</ele>
  <time>2026-08-28T17:55:11Z</time>
  <course>248.65</course>
  <speed>4.9618141843483015</speed>
  <fix>3d</fix>
</trkpt>
<trkpt lat="40.0714282" lon="-105.2296139">
  <ele>1583.0</ele>
  <time>2026-08-28T17:55:11Z</time>
  <course>247.68</course>
  <speed>4.99</speed>
  <fix>3d</fix>
</trkpt>
<trkpt lat="40.0714228" lon="-105.2296317">
  <ele>1583.01</ele>
  <time>2026-08-28T17:55:11Z</time>
  <course>248.66</course>
  <speed>4.9618141843483015</speed>
  <fix>3d</fix>
</trkpt>
<trkpt lat="40.0714248" lon="-105.2296247">
  <ele>1583.0</ele>
  <time>2026-08-28T17:55:11Z</time>
  <course>247.7</course>
  <speed>4.99</speed>
  <fix>3d</fix>
</trkpt>
<trkpt lat="40.0714211" lon="-105.2296371">
  <ele>1583.01</ele>
  <time>2026-08-28T17:55:11Z</time>
  <course>248.69</course>
  <speed>4.971086400375676</speed>
  <fix>3d</fix>
</trkpt>
<trkpt lat="40.0714248" lon="-105.2296247">
  <ele>1583.0</ele>
  <time>2026-08-28T17:55:11Z</time>
  <course>247.7</course>
  <speed>4.99</speed>
  <fix>3d</fix>
</trkpt>
<trkpt lat="40.0714194" lon="-105.2296426">
  <ele>1583.01</ele>
  <time>2026-08-28T17:55:11Z</time>
  <course>248.69</course>
  <speed>4.9618141843483015</speed>
  <fix>3d</fix>
</trkpt>
<trkpt lat="40.0714214" lon="-105.2296356">
  <ele>1583.0</ele>
  <time>2026-08-28T17:55:11Z</time>
  <course>247.72</course>
  <speed>4.99</speed>
  <fix>3d</fix>
</trkpt>
<trkpt lat="40.0714177" lon="-105.229648">
  <ele>1583.0</ele>
  <time>2026-08-28T17:55:11Z</time>
  <course>248.72</course>
  <speed>4.9618141843483015</speed>
  <fix>3d</fix>
</trkpt>
<trkpt lat="40.0714214" lon="-105.2296356">
  <ele>1583.0</ele>
  <time>2026-08-28T17:55:11Z</time>
  <course>247.72</course>
  <speed>4.99</speed>
  <fix>3d</fix>
</trkpt>
<trkpt lat="40.071416" lon="-105.2296534">
  <ele>1583.0</ele>
  <time>2026-08-28T17:55:11Z</time>
  <course>248.75</course>
  <speed>4.948797833817825</speed>
  <fix>3d</fix>
</trkpt>
<trkpt lat="40.0714179" lon="-105.2296465">
  <ele>1583.0</ele>
  <time>2026-08-28T17:55:11Z</time>
  <course>247.76</course>
  <speed>4.98</speed>
  <fix>3d</fix>
</trkpt>
<trkpt lat="40.0714143" lon="-105.2296589">
  <ele>1583.0</ele>
  <time>2026-08-28T17:55:11Z</time>
  <course>248.76</course>
  <speed>4.926509920826304</speed>
  <fix>3d</fix>
</trkpt>
<trkpt lat="40.0714179" lon="-105.2296465">
  <ele>1583.0</ele>
  <time>2026-08-28T17:55:11Z</time>
  <course>247.76</course>
  <speed>4.98</speed>
  <fix>3d</fix>
</trkpt>
<trkpt lat="40.0714126" lon="-105.2296643">
  <ele>1583.0</ele>
  <time>2026-08-28T17:55:11Z</time>
  <course>248.8</course>
  <speed>4.8949463735571195</speed>
  <fix>3d</fix>
</trkpt>
<trkpt lat="40.0714146" lon="-105.2296572">
  <ele>1583.0</ele>
  <time>2026-08-28T17:55:11Z</time>
  <course>247.81</course>
  <speed>4.94</speed>
  <fix>3d</fix>
</trkpt>
<trkpt lat="40.0714109" lon="-105.2296697">
  <ele>1583.0</ele>
  <time>2026-08-28T17:55:11Z</time>
  <course>248.86</course>
  <speed>4.859650193172344</speed>
  <fix>3d</fix>
</trkpt>
<trkpt lat="40.0714146" lon="-105.2296572">
  <ele>1583.0</ele>
  <time>2026-08-28T17:55:11Z</time>
  <course>247.81</course>
  <speed>4.94</speed>
  <fix>3d</fix>
</trkpt>
<trkpt lat="40.0714093" lon="-105.229675">
  <ele>1583.0</ele>
  <time>2026-08-28T17:55:12Z</time>
  <course>248.88</course>
  <speed>4.805798580881225</speed>
  <fix>3d</fix>
</trkpt>
<trkpt lat="40.0714113" lon="-105.2296679">
  <ele>1583.0</ele>
  <time>2026-08-28T17:55:12Z</time>
  <course>247.88</course>
  <speed>4.87</speed>
  <fix>3d</fix>
</trkpt>
<trkpt lat="40.0714076" lon="-105.2296802">
  <ele>1583.0</ele>
  <time>2026-08-28T17:55:12Z</time>
  <course>248.92</course>
  <speed>4.738945030278364</speed>
  <fix>3d</fix>
</trkpt>
<trkpt lat="40.0714113" lon="-105.2296679">
  <ele>1583.0</ele>
  <time>2026-08-28T17:55:12Z</time>
  <course>247.88</course>
  <speed>4.87</speed>
  <fix>3d</fix>
</trkpt>
<trkpt lat="40.0714061" lon="-105.2296853">
  <ele>1583.0</ele>
  <time>2026-08-28T17:55:12Z</time>
  <course>248.99</course>
  <speed>4.662810311389474</speed>
  <fix>3d</fix>
</trkpt>
<trkpt lat="40.0714081" lon="-105.2296784">
  <ele>1583.0</ele>
  <time>2026-08-28T17:55:12Z</time>
  <course>247.97</course>
  <speed>4.75</speed>
  <fix>3d</fix>
</trkpt>
<trkpt lat="40.0714045" lon="-105.2296904">
  <ele>1583.0</ele>
  <time>2026-08-28T17:55:12Z</time>
  <course>249.03</course>
  <speed>4.586676356578912</speed>
  <fix>3d</fix>
</trkpt>
<trkpt lat="40.0714081" lon="-105.2296784">
  <ele>1583.0</ele>
  <time>2026-08-28T17:55:12Z</time>
  <course>247.97</course>
  <speed>4.75</speed>
  <fix>3d</fix>
</trkpt>
<trkpt lat="40.071403" lon="-105.2296954">
  <ele>1583.0</ele>
  <time>2026-08-28T17:55:12Z</time>
  <course>249.07</course>
  <speed>4.4882624700433915</speed>
  <fix>3d</fix>
</trkpt>
<trkpt lat="40.0714081" lon="-105.2296784">
  <ele>1583.0</ele>
  <time>2026-08-28T17:55:12Z</time>
  <course>247.97</course>
  <speed>4.75</speed>
  <fix>3d</fix>
</trkpt>
<trkpt lat="40.0714015" lon="-105.2297002">
  <ele>1583.0</ele>
  <time>2026-08-28T17:55:12Z</time>
  <course>249.12</course>
  <speed>4.380559325017754</speed>
  <fix>3d</fix>
</trkpt>
<trkpt lat="40.0714049" lon="-105.2296886">
  <ele>1583.0</ele>
  <time>2026-08-28T17:55:12Z</time>
  <course>248.06</course>
  <speed>4.59</speed>
  <fix>3d</fix>
</trkpt>
<trkpt lat="40.0714" lon="-105.2297049">
  <ele>1583.0</ele>
  <time>2026-08-28T17:55:12Z</time>
  <course>249.16</course>
  <speed>4.2691685373149655</speed>
  <fix>3d</fix>
</trkpt>
<trkpt lat="40.0714049" lon="-105.2296886">
  <ele>1583.0</ele>
  <time>2026-08-28T17:55:12Z</time>
  <course>248.06</course>
  <speed>4.59</speed>
  <fix>3d</fix>
</trkpt>
<trkpt lat="40.0713987" lon="-105.2297094">
  <ele>1583.0</ele>
  <time>2026-08-28T17:55:12Z</time>
  <course>249.2</course>
  <speed>4.152168108350143</speed>
  <fix>3d</fix>
</trkpt>
<trkpt lat="40.0714019" lon="-105.2296983">
  <ele>1583.0</ele>
  <time>2026-08-28T17:55:12Z</time>
  <course>248.14</course>
  <speed>4.4</speed>
  <fix>3d</fix>
</trkpt>
<trkpt lat="40.0713973" lon="-105.2297138">
  <ele>1583.0</ele>
  <time>2026-08-28T17:55:12Z</time>
  <course>249.26</course>
  <speed>4.031488558832829</speed>
  <fix>3d</fix>
</trkpt>
<trkpt lat="40.0714019" lon="-105.2296983">
  <ele>1583.0</ele>
  <time>2026-08-28T17:55:12Z</time>
  <course>248.14</course>
  <speed>4.4</speed>
  <fix>3d</fix>
</trkpt>
<trkpt lat="40.071396" lon="-105.2297181">
  <ele>1583.0</ele>
  <time>2026-08-28T17:55:12Z</time>
  <course>249.29</course>
  <speed>3.9015125272130042</speed>
  <fix>3d</fix>
</trkpt>
<trkpt lat="40.071399" lon="-105.2297077">
  <ele>1583.0</ele>
  <time>2026-08-28T17:55:12Z</time>
  <course>248.24</course>
  <speed>4.17</speed>
  <fix>3d</fix>
</trkpt>
<trkpt lat="40.0713947" lon="-105.2297222">
  <ele>1582.99</ele>
  <time>2026-08-28T17:55:12Z</time>
  <course>249.35</course>
  <speed>3.7752086035078904</speed>
  <fix>3d</fix>
</trkpt>
<trkpt lat="40.071399" lon="-105.2297077">
  <ele>1583.0</ele>
  <time>2026-08-28T17:55:12Z</time>
  <course>248.24</course>
  <speed>4.17</speed>
  <fix>3d</fix>
</trkpt>
<trkpt lat="40.0713935" lon="-105.2297263">
  <ele>1582.99</ele>
  <time>2026-08-28T17:55:12Z</time>
  <course>249.4</course>
  <speed>3.645229759562489</speed>
  <fix>3d</fix>
</trkpt>
<trkpt lat="40.0713962" lon="-105.2297165">
  <ele>1583.0</ele>
  <time>2026-08-28T17:55:12Z</time>
  <course>248.32</course>
  <speed>3.94</speed>
  <fix>3d</fix>
</trkpt>
<trkpt lat="40.0713923" lon="-105.2297301">
  <ele>1582.99</ele>
  <time>2026-08-28T17:55:12Z</time>
  <course>249.45</course>
  <speed>3.515252480263687</speed>
  <fix>3d</fix>
</trkpt>
<trkpt lat="40.0713937" lon="-105.2297249">
  <ele>1583.0</ele>
  <time>2026-08-28T17:55:12Z</time>
  <course>248.42</course>
  <speed>3.69</speed>
  <fix>3d</fix>
</trkpt>
<trkpt lat="40.0713912" lon="-105.2297339">
  <ele>1583.0</ele>
  <time>2026-08-28T17:55:12Z</time>
  <course>249.5</course>
  <speed>3.3852769458347125</speed>
  <fix>3d</fix>
</trkpt>
<trkpt lat="40.0713937" lon="-105.2297249">
  <ele>1583.0</ele>
  <time>2026-08-28T17:55:12Z</time>
  <course>248.42</course>
  <speed>3.69</speed>
  <fix>3d</fix>
</trkpt>
<trkpt lat="40.0713901" lon="-105.2297375">
  <ele>1583.0</ele>
  <time>2026-08-28T17:55:12Z</time>
  <course>249.55</course>
  <speed>3.2646133002240862</speed>
  <fix>3d</fix>
</trkpt>
<trkpt lat="40.0713914" lon="-105.2297327">
  <ele>1583.0</ele>
  <time>2026-08-28T17:55:12Z</time>
  <course>248.51</course>
  <speed>3.43</speed>
  <fix>3d</fix>
</trkpt>
<trkpt lat="40.071389" lon="-105.229741">
  <ele>1583.0</ele>
  <time>2026-08-28T17:55:12Z</time>
  <course>249.59</course>
  <speed>3.134645115479582</speed>
  <fix>3d</fix>
</trkpt>
<trkpt lat="40.0713914" lon="-105.2297327">
  <ele>1583.0</ele>
  <time>2026-08-28T17:55:12Z</time>
  <course>248.51</course>
  <speed>3.43</speed>
  <fix>3d</fix>
</trkpt>
<trkpt lat="40.071388" lon="-105.2297443">
  <ele>1583.0</ele>
  <time>2026-08-28T17:55:12Z</time>
  <course>249.64</course>
  <speed>3.0083217912982643</speed>
  <fix>3d</fix>
</trkpt>
<trkpt lat="40.0713892" lon="-105.2297399">
  <ele>1583.0</ele>
  <time>2026-08-28T17:55:12Z</time>
  <course>248.6</course>
  <speed>3.18</speed>
  <fix>3d</fix>
</trkpt>
<trkpt lat="40.071387" lon="-105.2297476">
  <ele>1583.01</ele>
  <time>2026-08-28T17:55:12Z</time>
  <course>249.68</course>
  <speed>2.887663415289254</speed>
  <fix>3d</fix>
</trkpt>
<trkpt lat="40.0713892" lon="-105.2297399">
  <ele>1583.0</ele>
  <time>2026-08-28T17:55:12Z</time>
  <course>248.6</course>
  <speed>3.18</speed>
  <fix>3d</fix>
</trkpt>
<trkpt lat="40.0713861" lon="-105.2297507">
  <ele>1583.01</ele>
  <time>2026-08-28T17:55:12Z</time>
  <course>249.72</course>
  <speed>2.757698315624826</speed>
  <fix>3d</fix>
</trkpt>
<trkpt lat="40.0713873" lon="-105.2297466">
  <ele>1583.0</ele>
  <time>2026-08-28T17:55:12Z</time>
  <course>248.69</course>
  <speed>2.93</speed>
  <fix>3d</fix>
</trkpt>
<trkpt lat="40.0713852" lon="-105.2297537">
  <ele>1583.01</ele>
  <time>2026-08-28T17:55:12Z</time>
  <course>249.76</course>
  <speed>2.6406817301598466</speed>
  <fix>3d</fix>
</trkpt>
<trkpt lat="40.0713873" lon="-105.2297466">
  <ele>1583.0</ele>
  <time>2026-08-28T17:55:12Z</time>
  <course>248.69</course>
  <speed>2.93</speed>
  <fix>3d</fix>
</trkpt>
<trkpt lat="40.0713843" lon="-105.2297565">
  <ele>1583.01</ele>
  <time>2026-08-28T17:55:12Z</time>
  <course>249.79</course>
  <speed>2.5236679654819887</speed>
  <fix>3d</fix>
</trkpt>
<trkpt lat="40.0713854" lon="-105.2297528">
  <ele>1583.0</ele>
  <time>2026-08-28T17:55:12Z</time>
  <course>248.76</course>
  <speed>2.7</speed>
  <fix>3d</fix>
</trkpt>
<trkpt lat="40.0713835" lon="-105.2297592">
  <ele>1583.01</ele>
  <time>2026-08-28T17:55:12Z</time>
  <course>249.83</course>
  <speed>2.403018934590404</speed>
  <fix>3d</fix>
</trkpt>
<trkpt lat="40.0713854" lon="-105.2297528">
  <ele>1583.0</ele>
  <time>2026-08-28T17:55:12Z</time>
  <course>248.76</course>
  <speed>2.7</speed>
  <fix>3d</fix>
</trkpt>
<trkpt lat="40.0713827" lon="-105.2297618">
  <ele>1583.01</ele>
  <time>2026-08-28T17:55:12Z</time>
  <course>249.87</course>
  <speed>2.2953213282675695</speed>
  <fix>3d</fix>
</trkpt>
<trkpt lat="40.0713837" lon="-105.2297585">
  <ele>1583.0</ele>
  <time>2026-08-28T17:55:12Z</time>
  <course>248.84</course>
  <speed>2.46</speed>
  <fix>3d</fix>
</trkpt>
<trkpt lat="40.071382" lon="-105.2297643">
  <ele>1583.01</ele>
  <time>2026-08-28T17:55:12Z</time>
  <course>249.93</course>
  <speed>2.1783020910791966</speed>
  <fix>3d</fix>
</trkpt>
<trkpt lat="40.0713837" lon="-105.2297585">
  <ele>1583.0</ele>
  <time>2026-08-28T17:55:12Z</time>
  <course>248.84</course>
  <speed>2.46</speed>
  <fix>3d</fix>
</trkpt>
<trkpt lat="40.0713813" lon="-105.2297666">
  <ele>1583.01</ele>
  <time>2026-08-28T17:55:12Z</time>
  <course>249.98</course>
  <speed>2.0706037766796426</speed>
  <fix>3d</fix>
</trkpt>
<trkpt lat="40.0713822" lon="-105.2297636">
  <ele>1583.0</ele>
  <time>2026-08-28T17:55:12Z</time>
  <course>248.93</course>
  <speed>2.24</speed>
  <fix>3d</fix>
</trkpt>
<trkpt lat="40.0713806" lon="-105.2297689">
  <ele>1583.01</ele>
  <time>2026-08-28T17:55:12Z</time>
  <course>250.04</course>
  <speed>1.9629060089571277</speed>
  <fix>3d</fix>
</trkpt>
<trkpt lat="40.0713822" lon="-105.2297636">
  <ele>1583.0</ele>
  <time>2026-08-28T17:55:12Z</time>
  <course>248.93</course>
  <speed>2.24</speed>
  <fix>3d</fix>
</trkpt>
<trkpt lat="40.07138" lon="-105.229771">
  <ele>1583.01</ele>
  <time>2026-08-28T17:55:12Z</time>
  <course>250.09</course>
  <speed>1.8645374761586317</speed>
  <fix>3d</fix>
</trkpt>
<trkpt lat="40.0713822" lon="-105.2297636">
  <ele>1583.0</ele>
  <time>2026-08-28T17:55:12Z</time>
  <course>248.93</course>
  <speed>2.24</speed>
  <fix>3d</fix>
</trkpt>
<trkpt lat="40.0713794" lon="-105.229773">
  <ele>1583.0</ele>
  <time>2026-08-28T17:55:12Z</time>
  <course>250.14</course>
  <speed>1.7568437608393068</speed>
  <fix>3d</fix>
</trkpt>
<trkpt lat="40.0713808" lon="-105.2297683">
  <ele>1583.0</ele>
  <time>2026-08-28T17:55:12Z</time>
  <course>249.04</course>
  <speed>2.03</speed>
  <fix>3d</fix>
</trkpt>
<trkpt lat="40.0713789" lon="-105.2297749">
  <ele>1583.0</ele>
  <time>2026-08-28T17:55:12Z</time>
  <course>250.21</course>
  <speed>1.658493292117879</speed>
  <fix>3d</fix>
</trkpt>
<trkpt lat="40.0713808" lon="-105.2297683">
  <ele>1583.0</ele>
  <time>2026-08-28T17:55:12Z</time>
  <course>249.04</course>
  <speed>2.03</speed>
  <fix>3d</fix>
</trkpt>
<trkpt lat="40.0713784" lon="-105.2297767">
  <ele>1583.0</ele>
  <time>2026-08-28T17:55:12Z</time>
  <course>250.28</course>
  <speed>1.5508062419270823</speed>
  <fix>3d</fix>
</trkpt>
<trkpt lat="40.0713796" lon="-105.2297725">
  <ele>1583.0</ele>
  <time>2026-08-28T17:55:12Z</time>
  <course>249.15</course>
  <speed>1.82</speed>
  <fix>3d</fix>
</trkpt>
<trkpt lat="40.0713779" lon="-105.2297783">
  <ele>1583.0</ele>
  <time>2026-08-28T17:55:12Z</time>
  <course>250.34</course>
  <speed>1.4560219778561037</speed>
  <fix>3d</fix>
</trkpt>
<trkpt lat="40.0713796" lon="-105.2297725">
  <ele>1583.0</ele>
  <time>2026-08-28T17:55:12Z</time>
  <course>249.15</course>
  <speed>1.82</speed>
  <fix>3d</fix>
</trkpt>
<trkpt lat="40.0713774" lon="-105.2297799">
  <ele>1583.0</ele>
  <time>2026-08-28T17:55:12Z</time>
  <course>250.42</course>
  <speed>1.3576818478568535</speed>
  <fix>3d</fix>
</trkpt>
<trkpt lat="40.0713785" lon="-105.2297763">
  <ele>1583.0</ele>
  <time>2026-08-28T17:55:12Z</time>
  <course>249.27</course>
  <speed>1.62</speed>
  <fix>3d</fix>
</trkpt>
<trkpt lat="40.071377" lon="-105.2297813">
  <ele>1583.0</ele>
  <time>2026-08-28T17:55:12Z</time>
  <course>250.5</course>
  <speed>1.2593649193144933</speed>
  <fix>3d</fix>
</trkpt>
<trkpt lat="40.0713775" lon="-105.2297797">
  <ele>1583.0</ele>
  <time>2026-08-28T17:55:12Z</time>
  <course>249.41</course>
  <speed>1.42</speed>
  <fix>3d</fix>
</trkpt>
<trkpt lat="40.0713766" lon="-105.2297827">
  <ele>1583.0</ele>
  <time>2026-08-28T17:55:12Z</time>
  <course>250.6</course>
  <speed>1.164560002747819</speed>
  <fix>3d</fix>
</trkpt>
<trkpt lat="40.0713775" lon="-105.2297797">
  <ele>1583.0</ele>
  <time>2026-08-28T17:55:12Z</time>
  <course>249.41</course>
  <speed>1.42</speed>
  <fix>3d</fix>
</trkpt>
<trkpt lat="40.0713763" lon="-105.229784">
  <ele>1583.0</ele>
  <time>2026-08-28T17:55:12Z</time>
  <course>250.7</course>
  <speed>1.0662551289442879</speed>
  <fix>3d</fix>
</trkpt>
<trkpt lat="40.0713767" lon="-105.2297826">
  <ele>1583.0</ele>
  <time>2026-08-28T17:55:12Z</time>
  <course>249.59</course>
  <speed>1.23</speed>
  <fix>3d</fix>
</trkpt>
<trkpt lat="40.071376" lon="-105.2297851">
  <ele>1583.0</ele>
  <time>2026-08-28T17:55:12Z</time>
  <course>250.83</course>
  <speed>0.9679876032264049</speed>
  <fix>3d</fix>
</trkpt>
<trkpt lat="40.0713767" lon="-105.2297826">
  <ele>1583.0</ele>
  <time>2026-08-28T17:55:12Z</time>
  <course>249.59</course>
  <speed>1.23</speed>
  <fix>3d</fix>
</trkpt>
<trkpt lat="40.0713757" lon="-105.2297862">
  <ele>1583.0</ele>
  <time>2026-08-28T17:55:12Z</time>
  <course>250.96</course>
  <speed>0.8731551981177229</speed>
  <fix>3d</fix>
</trkpt>
<trkpt lat="40.071376" lon="-105.2297851">
  <ele>1583.0</ele>
  <time>2026-08-28T17:55:12Z</time>
  <course>249.82</course>
  <speed>1.04</speed>
  <fix>3d</fix>
</trkpt>
<trkpt lat="40.0713754" lon="-105.2297871">
  <ele>1583.0</ele>
  <time>2026-08-28T17:55:12Z</time>
  <course>251.09</course>
  <speed>0.7749193506423749</speed>
  <fix>3d</fix>
</trkpt>
<trkpt lat="40.071376" lon="-105.2297851">
  <ele>1583.0</ele>
  <time>2026-08-28T17:55:12Z</time>
  <course>249.82</course>
  <speed>1.04</speed>
  <fix>3d</fix>
</trkpt>
<trkpt lat="40.0713752" lon="-105.229788">
  <ele>1583.0</ele>
  <time>2026-08-28T17:55:12Z</time>
  <course>251.23</course>
  <speed>0.6800735254367721</speed>
  <fix>3d</fix>
</trkpt>
<trkpt lat="40.0713754" lon="-105.2297872">
  <ele>1583.0</ele>
  <time>2026-08-28T17:55:12Z</time>
  <course>250.07</course>
  <speed>0.84</speed>
  <fix>3d</fix>
</trkpt>
<trkpt lat="40.071375" lon="-105.2297887">
  <ele>1583.01</ele>
  <time>2026-08-28T17:55:12Z</time>
  <course>251.36</course>
  <speed>0.5818934610390462</speed>
  <fix>3d</fix>
</trkpt>
<trkpt lat="40.0713754" lon="-105.2297872">
  <ele>1583.0</ele>
  <time>2026-08-28T17:55:12Z</time>
  <course>250.07</course>
  <speed>0.84</speed>
  <fix>3d</fix>
</trkpt>
<trkpt lat="40.0713748" lon="-105.2297894">
  <ele>1583.01</ele>
  <time>2026-08-28T17:55:13Z</time>
  <course>251.49</course>
  <speed>0.48703182647543686</speed>
  <fix>3d</fix>
</trkpt>
<trkpt lat="40.071375" lon="-105.2297888">
  <ele>1583.0</ele>
  <time>2026-08-28T17:55:13Z</time>
  <course>250.33</course>
  <speed>0.65</speed>
  <fix>3d</fix>
</trkpt>
<trkpt lat="40.0713747" lon="-105.2297899">
  <ele>1583.01</ele>
  <time>2026-08-28T17:55:13Z</time>
  <course>251.61</course>
  <speed>0.3889730067755345</speed>
  <fix>3d</fix>
</trkpt>
<trkpt lat="40.071375" lon="-105.2297888">
  <ele>1583.0</ele>
  <time>2026-08-28T17:55:13Z</time>
  <course>250.33</course>
  <speed>0.65</speed>
  <fix>3d</fix>
</trkpt>
<trkpt lat="40.0713746" lon="-105.2297903">
  <ele>1583.01</ele>
  <time>2026-08-28T17:55:13Z</time>
  <course>251.72</course>
  <speed>0.29410882339705485</speed>
  <fix>3d</fix>
</trkpt>
<trkpt lat="40.0713746" lon="-105.2297901">
  <ele>1583.0</ele>
  <time>2026-08-28T17:55:13Z</time>
  <course>250.57</course>
  <speed>0.46</speed>
  <fix>3d</fix>
</trkpt>
<trkpt lat="40.0713745" lon="-105.2297906">
  <ele>1583.01</ele>
  <time>2026-08-28T17:55:13Z</time>
  <course>251.79</course>
  <speed>0.19924858845171275</speed>
  <fix>3d</fix>
</trkpt>
<trkpt lat="40.0713746" lon="-105.2297901">
  <ele>1583.0</ele>
  <time>2026-08-28T17:55:13Z</time>
  <course>250.57</course>
  <speed>0.46</speed>
  <fix>3d</fix>
</trkpt>
<trkpt lat="40.0713745" lon="-105.2297908">
  <ele>1583.0</ele>
  <time>2026-08-28T17:55:13Z</time>
  <course>251.85</course>
  <speed>0.1044030650891055</speed>
  <fix>3d</fix>
</trkpt>
<trkpt lat="40.0713744" lon="-105.2297909">
  <ele>1583.0</ele>
  <time>2026-08-28T17:55:13Z</time>
  <course>250.75</course>
  <speed>0.27</speed>
  <fix>3d</fix>
</trkpt>
<trkpt lat="40.0713744" lon="-105.229791">
  <ele>1583.0</ele>
  <time>2026-08-28T17:55:13Z</time>
  <course>251.88</course>
  <speed>0.02</speed>
  <fix>3d</fix>
</trkpt>
<trkpt lat="40.0713744" lon="-105.2297909">
  <ele>1583.0</ele>
  <time>2026-08-28T17:55:13Z</time>
  <course>250.75</course>
  <speed>0.27</speed>
  <fix>3d</fix>
</trkpt>
<trkpt lat="40.0713744" lon="-105.229791">
  <ele>1583.0</ele>
  <time>2026-08-28T17:55:13Z</time>
  <course>251.88</course>
  <speed>0.044721359549995794</speed>
  <fix>3d</fix>
</trkpt>
<trkpt lat="40.0713744" lon="-105.2297909">
  <ele>1583.0</ele>
  <time>2026-08-28T17:55:13Z</time>
  <course>250.75</course>
  <speed>0.27</speed>
  <fix>3d</fix>
</trkpt>
<trkpt lat="40.0713744" lon="-105.229791">
  <ele>1583.01</ele>
  <time>2026-08-28T17:55:13Z</time>
  <course>251.88</course>
  <speed>0.11704699910719625</speed>
  <fix>3d</fix>
</trkpt>
<trkpt lat="40.0713743" lon="-105.2297912">
  <ele>1583.0</ele>
  <time>2026-08-28T17:55:13Z</time>
  <course>250.84</course>
  <speed>0.09</speed>
  <fix>3d</fix>
</trkpt>
<trkpt lat="40.0713744" lon="-105.2297909">
  <ele>1583.0</ele>
  <time>2026-08-28T17:55:13Z</time>
  <course>251.9</course>
  <speed>0.18384776310850234</speed>
  <fix>3d</fix>
</trkpt>
<trkpt lat="40.0713743" lon="-105.2297912">
  <ele>1583.0</ele>
  <time>2026-08-28T17:55:13Z</time>
  <course>250.84</course>
  <speed>0.09</speed>
  <fix>3d</fix>
</trkpt>
<trkpt lat="40.0713744" lon="-105.2297907">
  <ele>1583.0</ele>
  <time>2026-08-28T17:55:13Z</time>
  <course>251.91</course>
  <speed>0.2340939982143925</speed>
  <fix>3d</fix>
</trkpt>
<trkpt lat="40.0713742" lon="-105.2297914">
  <ele>1583.0</ele>
  <time>2026-08-28T17:55:13Z</time>
  <course>70.88</course>
  <speed>0.05</speed>
  <fix>3d</fix>
</trkpt>
<trkpt lat="40.0713745" lon="-105.2297904">
  <ele>1583.0</ele>
  <time>2026-08-28T17:55:13Z</time>
  <course>251.92</course>
  <speed>0.2785677655436824</speed>
  <fix>3d</fix>
</trkpt>
<trkpt lat="40.0713742" lon="-105.2297914">
  <ele>1583.0</ele>
  <time>2026-08-28T17:55:13Z</time>
  <course>70.88</course>
  <speed>0.05</speed>
  <fix>3d</fix>
</trkpt>
<trkpt lat="40.0713746" lon="-105.2297902">
  <ele>1583.0</ele>
  <time>2026-08-28T17:55:13Z</time>
  <course>251.93</course>
  <speed>0.3101612483854165</speed>
  <fix>3d</fix>
</trkpt>
<trkpt lat="40.0713742" lon="-105.2297911">
  <ele>1583.0</ele>
  <time>2026-08-28T17:55:13Z</time>
  <course>70.89</course>
  <speed>0.17</speed>
  <fix>3d</fix>
</trkpt>
<trkpt lat="40.0713747" lon="-105.2297898">
  <ele>1582.99</ele>
  <time>2026-08-28T17:55:13Z</time>
  <course>251.93</course>
  <speed>0.33241540277189324</speed>
  <fix>3d</fix>
</trkpt>
<trkpt lat="40.0713743" lon="-105.2297907">
  <ele>1583.0</ele>
  <time>2026-08-28T17:55:13Z</time>
  <course>70.9</course>
  <speed>0.25</speed>
  <fix>3d</fix>
</trkpt>
<trkpt lat="40.0713748" lon="-105.2297895">
  <ele>1582.99</ele>
  <time>2026-08-28T17:55:13Z</time>
  <course>251.93</course>
  <speed>0.3453983207834109</speed>
  <fix>3d</fix>
</trkpt>
<trkpt lat="40.0713743" lon="-105.2297907">
  <ele>1583.0</ele>
  <time>2026-08-28T17:55:13Z</time>
  <course>70.9</course>
  <speed>0.25</speed>
  <fix>3d</fix>
</trkpt>
<trkpt lat="40.0713749" lon="-105.2297892">
  <ele>1582.99</ele>
  <time>2026-08-28T17:55:13Z</time>
  <course>251.91</course>
  <speed>0.354682957019364</speed>
  <fix>3d</fix>
</trkpt>
<trkpt lat="40.0713746" lon="-105.2297901">
  <ele>1583.0</ele>
  <time>2026-08-28T17:55:13Z</time>
  <course>70.89</course>
  <speed>0.28</speed>
  <fix>3d</fix>
</trkpt>
<trkpt lat="40.0713749" lon="-105.2297889">
  <ele>1582.99</ele>
  <time>2026-08-28T17:55:13Z</time>
  <course>251.89</course>
  <speed>0.3453983207834109</speed>
  <fix>3d</fix>
</trkpt>
<trkpt lat="40.0713746" lon="-105.2297901">
  <ele>1583.0</ele>
  <time>2026-08-28T17:55:13Z</time>
  <course>70.89</course>
  <speed>0.28</speed>
  <fix>3d</fix>
</trkpt>
<trkpt lat="40.071375" lon="-105.2297885">
  <ele>1582.99</ele>
  <time>2026-08-28T17:55:13Z</time>
  <course>251.86</course>
  <speed>0.3361547262794322</speed>
  <fix>3d</fix>
</trkpt>
<trkpt lat="40.0713747" lon="-105.2297894">
  <ele>1583.0</ele>
  <time>2026-08-28T17:55:13Z</time>
  <course>70.85</course>
  <speed>0.29</speed>
  <fix>3d</fix>
</trkpt>
<trkpt lat="40.0713751" lon="-105.2297882">
  <ele>1582.99</ele>
  <time>2026-08-28T17:55:13Z</time>
  <course>251.82</course>
  <speed>0.3231098884280702</speed>
  <fix>3d</fix>
</trkpt>
<trkpt lat="40.0713747" lon="-105.2297894">
  <ele>1583.0</ele>
  <time>2026-08-28T17:55:13Z</time>
  <course>70.85</course>
  <speed>0.29</speed>
  <fix>3d</fix>
</trkpt>
<trkpt lat="40.0713752" lon="-105.2297879">
  <ele>1582.99</ele>
  <time>2026-08-28T17:55:13Z</time>
  <course>251.78</course>
  <speed>0.30463092423455634</speed>
  <fix>3d</fix>
</trkpt>
<trkpt lat="40.0713748" lon="-105.2297888">
  <ele>1583.0</ele>
  <time>2026-08-28T17:55:13Z</time>
  <course>70.79</course>
  <speed>0.27</speed>
  <fix>3d</fix>
</trkpt>
<trkpt lat="40.0713753" lon="-105.2297877">
  <ele>1582.99</ele>
  <time>2026-08-28T17:55:13Z</time>
  <course>251.74</course>
  <speed>0.27313000567495327</speed>
  <fix>3d</fix>
</trkpt>
<trkpt lat="40.0713748" lon="-105.2297888">
  <ele>1583.0</ele>
  <time>2026-08-28T17:55:13Z</time>
  <course>70.79</course>
  <speed>0.27</speed>
  <fix>3d</fix>
</trkpt>
<trkpt lat="40.0713754" lon="-105.2297874">
  <ele>1582.99</ele>
  <time>2026-08-28T17:55:13Z</time>
  <course>251.72</course>
  <speed>0.25495097567963926</speed>
  <fix>3d</fix>
</trkpt>
<trkpt lat="40.071375" lon="-105.2297882">
  <ele>1583.0</ele>
  <time>2026-08-28T17:55:13Z</time>
  <course>70.71</course>
  <speed>0.23</speed>
  <fix>3d</fix>
</trkpt>
<trkpt lat="40.0713754" lon="-105.2297872">
  <ele>1582.99</ele>
  <time>2026-08-28T17:55:13Z</time>
  <course>251.72</course>
  <speed>0.223606797749979</speed>
  <fix>3d</fix>
</trkpt>
<trkpt lat="40.071375" lon="-105.2297882">
  <ele>1583.0</ele>
  <time>2026-08-28T17:55:13Z</time>
  <course>70.71</course>
  <speed>0.23</speed>
  <fix>3d</fix>
</trkpt>
<trkpt lat="40.0713755" lon="-105.2297871">
  <ele>1582.99</ele>
  <time>2026-08-28T17:55:13Z</time>
  <course>251.72</course>
  <speed>0.20124611797498107</speed>
  <fix>3d</fix>
</trkpt>
<trkpt lat="40.0713751" lon="-105.2297878">
  <ele>1583.0</ele>
  <time>2026-08-28T17:55:13Z</time>
  <course>70.68</course>
  <speed>0.18</speed>
  <fix>3d</fix>
</trkpt>
<trkpt lat="40.0713755" lon="-105.2297869">
  <ele>1582.99</ele>
  <time>2026-08-28T17:55:13Z</time>
  <course>251.72</course>
  <speed>0.17492855684535902</speed>
  <fix>3d</fix>
</trkpt>
<trkpt lat="40.0713751" lon="-105.2297878">
  <ele>1583.0</ele>
  <time>2026-08-28T17:55:13Z</time>
  <course>70.68</course>
  <speed>0.18</speed>
  <fix>3d</fix>
</trkpt>
<trkpt lat="40.0713756" lon="-105.2297868">
  <ele>1582.99</ele>
  <time>2026-08-28T17:55:13Z</time>
  <course>251.72</course>
  <speed>0.16124515496597097</speed>
  <fix>3d</fix>
</trkpt>
<trkpt lat="40.0713752" lon="-105.2297874">
  <ele>1583.0</ele>
  <time>2026-08-28T17:55:13Z</time>
  <course>70.68</course>
  <speed>0.14</speed>
  <fix>3d</fix>
</trkpt>
<trkpt lat="40.0713756" lon="-105.2297867">
  <ele>1582.99</ele>
  <time>2026-08-28T17:55:13Z</time>
  <course>251.72</course>
  <speed>0.15264337522473748</speed>
  <fix>3d</fix>
</trkpt>
<trkpt lat="40.0713752" lon="-105.2297874">
  <ele>1583.0</ele>
  <time>2026-08-28T17:55:13Z</time>
  <course>70.68</course>
  <speed>0.14</speed>
  <fix>3d</fix>
</trkpt>
<trkpt lat="40.0713756" lon="-105.2297866">
  <ele>1582.99</ele>
  <time>2026-08-28T17:55:13Z</time>
  <course>251.72</course>
  <speed>0.14422205101855956</speed>
  <fix>3d</fix>
</trkpt>
<trkpt lat="40.0713752" lon="-105.2297874">
  <ele>1583.0</ele>
  <time>2026-08-28T17:55:13Z</time>
  <course>70.68</course>
  <speed>0.14</speed>
  <fix>3d</fix>
</trkpt>
<trkpt lat="40.0713757" lon="-105.2297865">
  <ele>1583.0</ele>
  <time>2026-08-28T17:55:13Z</time>
  <course>251.72</course>
  <speed>0.13601470508735444</speed>
  <fix>3d</fix>
</trkpt>
<trkpt lat="40.0713753" lon="-105.2297871">
  <ele>1583.0</ele>
  <time>2026-08-28T17:55:13Z</time>
  <course>70.68</course>
  <speed>0.11</speed>
  <fix>3d</fix>
</trkpt>
<trkpt lat="40.0713757" lon="-105.2297864">
  <ele>1583.0</ele>
  <time>2026-08-28T17:55:13Z</time>
  <course>251.72</course>
  <speed>0.12206555615733702</speed>
  <fix>3d</fix>
</trkpt>
<trkpt lat="40.0713753" lon="-105.2297871">
  <ele>1583.0</ele>
  <time>2026-08-28T17:55:13Z</time>
  <course>70.68</course>
  <speed>0.11</speed>
  <fix>3d</fix>
</trkpt>
<trkpt lat="40.0713757" lon="-105.2297863">
  <ele>1582.99</ele>
  <time>2026-08-28T17:55:13Z</time>
  <course>251.71</course>
  <speed>0.12206555615733702</speed>
  <fix>3d</fix>
</trkpt>
<trkpt lat="40.0713754" lon="-105.2297868">
  <ele>1583.0</ele>
  <time>2026-08-28T17:55:13Z</time>
  <course>70.68</course>
  <speed>0.1</speed>
  <fix>3d</fix>
</trkpt>
<trkpt lat="40.0713758" lon="-105.2297862">
  <ele>1582.99</ele>
  <time>2026-08-28T17:55:13Z</time>
  <course>251.71</course>
  <speed>0.11401754250991379</speed>
  <fix>3d</fix>
</trkpt>
<trkpt lat="40.0713754" lon="-105.2297868">
  <ele>1583.0</ele>
  <time>2026-08-28T17:55:13Z</time>
  <course>70.68</course>
  <speed>0.1</speed>
  <fix>3d</fix>
</trkpt>
<trkpt lat="40.0713758" lon="-105.2297862">
  <ele>1582.99</ele>
  <time>2026-08-28T17:55:13Z</time>
  <course>251.71</course>
  <speed>0.11401754250991379</speed>
  <fix>3d</fix>
</trkpt>
<trkpt lat="40.0713754" lon="-105.2297867">
  <ele>1583.0</ele>
  <time>2026-08-28T17:55:13Z</time>
  <course>70.68</course>
  <speed>0.09</speed>
  <fix>3d</fix>
</trkpt>
<trkpt lat="40.0713758" lon="-105.2297861">
  <ele>1582.99</ele>
  <time>2026-08-28T17:55:13Z</time>
  <course>251.71</course>
  <speed>0.1063014581273465</speed>
  <fix>3d</fix>
</trkpt>
<trkpt lat="40.0713754" lon="-105.2297867">
  <ele>1583.0</ele>
  <time>2026-08-28T17:55:13Z</time>
  <course>70.68</course>
  <speed>0.09</speed>
  <fix>3d</fix>
</trkpt>
<trkpt lat="40.0713758" lon="-105.229786">
  <ele>1582.99</ele>
  <time>2026-08-28T17:55:13Z</time>
  <course>251.7</course>
  <speed>0.09899494936611665</speed>
  <fix>3d</fix>
</trkpt>
<trkpt lat="40.0713755" lon="-105.2297864">
  <ele>1583.0</ele>
  <time>2026-08-28T17:55:13Z</time>
  <course>70.68</course>
  <speed>0.08</speed>
  <fix>3d</fix>
</trkpt>
<trkpt lat="40.0713759" lon="-105.229786">
  <ele>1583.0</ele>
  <time>2026-08-28T17:55:13Z</time>
  <course>251.7</course>
  <speed>0.09899494936611665</speed>
  <fix>3d</fix>
</trkpt>
<trkpt lat="40.0713755" lon="-105.2297863">
  <ele>1583.0</ele>
  <time>2026-08-28T17:55:13Z</time>
  <course>70.68</course>
  <speed>0.08</speed>
  <fix>3d</fix>
</trkpt>
<trkpt lat="40.0713759" lon="-105.2297859">
  <ele>1583.0</ele>
  <time>2026-08-28T17:55:13Z</time>
  <course>251.69</course>
  <speed>0.0848528137423857</speed>
  <fix>3d</fix>
</trkpt>
<trkpt lat="40.0713755" lon="-105.2297863">
  <ele>1583.0</ele>
  <time>2026-08-28T17:55:13Z</time>
  <course>70.68</course>
  <speed>0.08</speed>
  <fix>3d</fix>
</trkpt>
<trkpt lat="40.0713759" lon="-105.2297859">
  <ele>1583.01</ele>
  <time>2026-08-28T17:55:13Z</time>
  <course>251.69</course>
  <speed>0.0848528137423857</speed>
  <fix>3d</fix>
</trkpt>
<trkpt lat="40.0713756" lon="-105.229786">
  <ele>1583.0</ele>
  <time>2026-08-28T17:55:13Z</time>
  <course>70.68</course>
  <speed>0.07</speed>
  <fix>3d</fix>
</trkpt>
<trkpt lat="40.0713759" lon="-105.2297858">
  <ele>1583.01</ele>
  <time>2026-08-28T17:55:13Z</time>
  <course>251.68</course>
  <speed>0.07810249675906654</speed>
  <fix>3d</fix>
</trkpt>
<trkpt lat="40.0713756" lon="-105.229786">
  <ele>1583.0</ele>
  <time>2026-08-28T17:55:13Z</time>
  <course>70.68</course>
  <speed>0.07</speed>
  <fix>3d</fix>
</trkpt>
<trkpt lat="40.0713759" lon="-105.2297858">
  <ele>1583.02</ele>
  <time>2026-08-28T17:55:13Z</time>
  <course>251.68</course>
  <speed>0.07810249675906654</speed>
  <fix>3d</fix>
</trkpt>
<trkpt lat="40.0713757" lon="-105.2297859">
  <ele>1583.0</ele>
  <time>2026-08-28T17:55:13Z</time>
  <course>70.68</course>
  <speed>0.06</speed>
  <fix>3d</fix>
</trkpt>
<trkpt lat="40.071376" lon="-105.2297857">
  <ele>1583.02</ele>
  <time>2026-08-28T17:55:13Z</time>
  <course>251.67</course>
  <speed>0.07810249675906654</speed>
  <fix>3d</fix>
</trkpt>
<trkpt lat="40.0713757" lon="-105.2297859">
  <ele>1583.0</ele>
  <time>2026-08-28T17:55:13Z</time>
  <course>70.68</course>
  <speed>0.06</speed>
  <fix>3d</fix>
</trkpt>
<trkpt lat="40.071376" lon="-105.2297857">
  <ele>1583.03</ele>
  <time>2026-08-28T17:55:14Z</time>
  <course>251.67</course>
  <speed>0.07211102550927978</speed>
  <fix>3d</fix>
</trkpt>
<trkpt lat="40.0713757" lon="-105.2297858">
  <ele>1583.0</ele>
  <time>2026-08-28T17:55:14Z</time>
  <course>70.68</course>
  <speed>0.05</speed>
  <fix>3d</fix>
</trkpt>
<trkpt lat="40.071376" lon="-105.2297856">
  <ele>1583.03</ele>
  <time>2026-08-28T17:55:14Z</time>
  <course>251.67</course>
  <speed>0.06403124237432849</speed>
  <fix>3d</fix>
</trkpt>
<trkpt lat="40.0713757" lon="-105.2297858">
  <ele>1583.0</ele>
  <time>2026-08-28T17:55:14Z</time>
  <course>70.68</course>
  <speed>0.05</speed>
  <fix>3d</fix>
</trkpt>
<trkpt lat="40.071376" lon="-105.2297856">
  <ele>1583.03</ele>
  <time>2026-08-28T17:55:14Z</time>
  <course>251.66</course>
  <speed>0.06403124237432849</speed>
  <fix>3d</fix>
</trkpt>
<trkpt lat="40.0713757" lon="-105.2297857">
  <ele>1583.0</ele>
  <time>2026-08-28T17:55:14Z</time>
  <course>70.68</course>
  <speed>0.05</speed>
  <fix>3d</fix>
</trkpt>
<trkpt lat="40.071376" lon="-105.2297855">
  <ele>1583.04</ele>
  <time>2026-08-28T17:55:14Z</time>
  <course>251.66</course>
  <speed>0.05830951894845301</speed>
  <fix>3d</fix>
</trkpt>
<trkpt lat="40.0713757" lon="-105.2297857">
  <ele>1583.0</ele>
  <time>2026-08-28T17:55:14Z</time>
  <course>70.68</course>
  <speed>0.05</speed>
  <fix>3d</fix>
</trkpt>
<trkpt lat="40.071376" lon="-105.2297855">
  <ele>1583.03</ele>
  <time>2026-08-28T17:55:14Z</time>
  <course>251.65</course>
  <speed>0.05830951894845301</speed>
  <fix>3d</fix>
</trkpt>
<trkpt lat="40.0713758" lon="-105.2297855">
  <ele>1583.0</ele>
  <time>2026-08-28T17:55:14Z</time>
  <course>70.68</course>
  <speed>0.04</speed>
  <fix>3d</fix>
</trkpt>
<trkpt lat="40.071376" lon="-105.2297855">
  <ele>1583.03</ele>
  <time>2026-08-28T17:55:14Z</time>
  <course>251.65</course>
  <speed>0.05830951894845301</speed>
  <fix>3d</fix>
</trkpt>
<trkpt lat="40.0713758" lon="-105.2297855">
  <ele>1583.0</ele>
  <time>2026-08-28T17:55:14Z</time>
  <course>70.68</course>
  <speed>0.04</speed>
  <fix>3d</fix>
</trkpt>
<trkpt lat="40.0713761" lon="-105.2297854">
  <ele>1583.03</ele>
  <time>2026-08-28T17:55:14Z</time>
  <course>251.64</course>
  <speed>0.053851648071345036</speed>
  <fix>3d</fix>
</trkpt>
<trkpt lat="40.0713758" lon="-105.2297854">
  <ele>1583.0</ele>
  <time>2026-08-28T17:55:14Z</time>
  <course>70.68</course>
  <speed>0.04</speed>
  <fix>3d</fix>
</trkpt>
<trkpt lat="40.0713761" lon="-105.2297854">
  <ele>1583.03</ele>
  <time>2026-08-28T17:55:14Z</time>
  <course>251.64</course>
  <speed>0.053851648071345036</speed>
  <fix>3d</fix>
</trkpt>
<trkpt lat="40.0713758" lon="-105.2297854">
  <ele>1583.0</ele>
  <time>2026-08-28T17:55:14Z</time>
  <course>70.68</course>
  <speed>0.04</speed>
  <fix>3d</fix>
</trkpt>
<trkpt lat="40.0713761" lon="-105.2297854">
  <ele>1583.02</ele>
  <time>2026-08-28T17:55:14Z</time>
  <course>251.63</course>
  <speed>0.044721359549995794</speed>
  <fix>3d</fix>
</trkpt>
<trkpt lat="40.0713758" lon="-105.2297854">
  <ele>1583.0</ele>
  <time>2026-08-28T17:55:14Z</time>
  <course>70.68</course>
  <speed>0.04</speed>
  <fix>3d</fix>
</trkpt>
<trkpt lat="40.0713761" lon="-105.2297853">
  <ele>1583.02</ele>
  <time>2026-08-28T17:55:14Z</time>
  <course>251.63</course>
  <speed>0.044721359549995794</speed>
  <fix>3d</fix>
</trkpt>
<trkpt lat="40.0713758" lon="-105.2297853">
  <ele>1583.0</ele>
  <time>2026-08-28T17:55:14Z</time>
  <course>70.68</course>
  <speed>0.03</speed>
  <fix>3d</fix>
</trkpt>
<trkpt lat="40.0713761" lon="-105.2297853">
  <ele>1583.02</ele>
  <time>2026-08-28T17:55:14Z</time>
  <course>251.62</course>
  <speed>0.044721359549995794</speed>
  <fix>3d</fix>
</trkpt>
<trkpt lat="40.0713758" lon="-105.2297853">
  <ele>1583.0</ele>
  <time>2026-08-28T17:55:14Z</time>
  <course>70.68</course>
  <speed>0.03</speed>
  <fix>3d</fix>
</trkpt>
<trkpt lat="40.0713761" lon="-105.2297853">
  <ele>1583.02</ele>
  <time>2026-08-28T17:55:14Z</time>
  <course>251.62</course>
  <speed>0.044721359549995794</speed>
  <fix>3d</fix>
</trkpt>
<trkpt lat="40.0713759" lon="-105.2297852">
  <ele>1583.0</ele>
  <time>2026-08-28T17:55:14Z</time>
  <course>70.68</course>
  <speed>0.03</speed>
  <fix>3d</fix>
</trkpt>
<trkpt lat="40.0713761" lon="-105.2297852">
  <ele>1583.01</ele>
  <time>2026-08-28T17:55:14Z</time>
  <course>251.61</course>
  <speed>0.0412310562561766</speed>
  <fix>3d</fix>
</trkpt>
<trkpt lat="40.0713759" lon="-105.2297852">
  <ele>1583.0</ele>
  <time>2026-08-28T17:55:14Z</time>
  <course>70.68</course>
  <speed>0.03</speed>
  <fix>3d</fix>
</trkpt>
<trkpt lat="40.0713761" lon="-105.2297852">
  <ele>1583.0</ele>
  <time>2026-08-28T17:55:14Z</time>
  <course>251.61</course>
  <speed>0.0412310562561766</speed>
  <fix>3d</fix>
</trkpt>
<trkpt lat="40.0713759" lon="-105.2297852">
  <ele>1583.0</ele>
  <time>2026-08-28T17:55:14Z</time>
  <course>70.68</course>
  <speed>0.03</speed>
  <fix>3d</fix>
</trkpt>
<trkpt lat="40.0713761" lon="-105.2297852">
  <ele>1583.0</ele>
  <time>2026-08-28T17:55:14Z</time>
  <course>251.61</course>
  <speed>0.0412310562561766</speed>
  <fix>3d</fix>
</trkpt>
<trkpt lat="40.0713759" lon="-105.2297851">
  <ele>1583.0</ele>
  <time>2026-08-28T17:55:14Z</time>
  <course>70.68</course>
  <speed>0.02</speed>
  <fix>3d</fix>
</trkpt>
<trkpt lat="40.0713761" lon="-105.2297851">
  <ele>1582.99</ele>
  <time>2026-08-28T17:55:14Z</time>
  <course>251.6</course>
  <speed>0.0412310562561766</speed>
  <fix>3d</fix>
</trkpt>
<trkpt lat="40.0713759" lon="-105.2297851">
  <ele>1583.0</ele>
  <time>2026-08-28T17:55:14Z</time>
  <course>70.68</course>
  <speed>0.02</speed>
  <fix>3d</fix>
</trkpt>
<trkpt lat="40.0713761" lon="-105.2297851">
  <ele>1582.99</ele>
  <time>2026-08-28T17:55:14Z</time>
  <course>251.6</course>
  <speed>0.0412310562561766</speed>
  <fix>3d</fix>
</trkpt>
<trkpt lat="40.0713759" lon="-105.2297851">
  <ele>1583.0</ele>
  <time>2026-08-28T17:55:14Z</time>
  <course>70.68</course>
  <speed>0.02</speed>
  <fix>3d</fix>
</trkpt>
<trkpt lat="40.0713761" lon="-105.2297851">
  <ele>1582.98</ele>
  <time>2026-08-28T17:55:14Z</time>
  <course>251.59</course>
  <speed>0.0316227766016838</speed>
  <fix>3d</fix>
</trkpt>
<trkpt lat="40.0713759" lon="-105.2297851">
  <ele>1583.0</ele>
  <time>2026-08-28T17:55:14Z</time>
  <course>70.68</course>
  <speed>0.02</speed>
  <fix>3d</fix>
</trkpt>
<trkpt lat="40.0713761" lon="-105.2297851">
  <ele>1582.98</ele>
  <time>2026-08-28T17:55:14Z</time>
  <course>251.59</course>
  <speed>0.0316227766016838</speed>
  <fix>3d</fix>
</trkpt>
<trkpt lat="40.0713759" lon="-105.229785">
  <ele>1583.0</ele>
  <time>2026-08-28T17:55:14Z</time>
  <course>70.68</course>
  <speed>0.02</speed>
  <fix>3d</fix>
</trkpt>
<trkpt lat="40.0713761" lon="-105.2297851">
  <ele>1582.98</ele>
  <time>2026-08-28T17:55:14Z</time>
  <course>251.58</course>
  <speed>0.0316227766016838</speed>
  <fix>3d</fix>
</trkpt>
<trkpt lat="40.0713759" lon="-105.229785">
  <ele>1583.0</ele>
  <time>2026-08-28T17:55:14Z</time>
  <course>70.68</course>
  <speed>0.02</speed>
  <fix>3d</fix>
</trkpt>
<trkpt lat="40.0713761" lon="-105.229785">
  <ele>1582.98</ele>
  <time>2026-08-28T17:55:14Z</time>
  <course>251.58</course>
  <speed>0.0316227766016838</speed>
  <fix>3d</fix>
</trkpt>
<trkpt lat="40.0713759" lon="-105.2297849">
  <ele>1583.0</ele>
  <time>2026-08-28T17:55:14Z</time>
  <course>70.68</course>
  <speed>0.02</speed>
  <fix>3d</fix>
</trkpt>
<trkpt lat="40.0713761" lon="-105.229785">
  <ele>1582.98</ele>
  <time>2026-08-28T17:55:14Z</time>
  <course>251.58</course>
  <speed>0.03</speed>
  <fix>3d</fix>
</trkpt>
<trkpt lat="40.0713759" lon="-105.2297849">
  <ele>1583.0</ele>
  <time>2026-08-28T17:55:14Z</time>
  <course>70.68</course>
  <speed>0.02</speed>
  <fix>3d</fix>
</trkpt>
<trkpt lat="40.0713761" lon="-105.229785">
  <ele>1582.97</ele>
  <time>2026-08-28T17:55:14Z</time>
  <course>251.58</course>
  <speed>0.03</speed>
  <fix>3d</fix>
</trkpt>
<trkpt lat="40.071376" lon="-105.2297849">
  <ele>1583.0</ele>
  <time>2026-08-28T17:55:14Z</time>
  <course>70.68</course>
  <speed>0.01</speed>
  <fix>3d</fix>
</trkpt>
<trkpt lat="40.0713761" lon="-105.229785">
  <ele>1582.97</ele>
  <time>2026-08-28T17:55:14Z</time>
  <course>251.57</course>
  <speed>0.03</speed>
  <fix>3d</fix>
</trkpt>
<trkpt lat="40.071376" lon="-105.2297849">
  <ele>1583.0</ele>
  <time>2026-08-28T17:55:14Z</time>
  <course>70.68</course>
  <speed>0.01</speed>
  <fix>3d</fix>
</trkpt>
<trkpt lat="40.0713761" lon="-105.229785">
  <ele>1582.96</ele>
  <time>2026-08-28T17:55:14Z</time>
  <course>251.57</course>
  <speed>0.03</speed>
  <fix>3d</fix>
</trkpt>
<trkpt lat="40.071376" lon="-105.2297849">
  <ele>1583.0</ele>
  <time>2026-08-28T17:55:14Z</time>
  <course>70.68</course>
  <speed>0.01</speed>
  <fix>3d</fix>
</trkpt>
<trkpt lat="40.0713761" lon="-105.2297849">
  <ele>1582.96</ele>
  <time>2026-08-28T17:55:14Z</time>
  <course>251.57</course>
  <speed>0.03</speed>
  <fix>3d</fix>
</trkpt>
<trkpt lat="40.071376" lon="-105.2297849">
  <ele>1583.0</ele>
  <time>2026-08-28T17:55:14Z</time>
  <course>70.68</course>
  <speed>0.01</speed>
  <fix>3d</fix>
</trkpt>
<trkpt lat="40.0713762" lon="-105.2297849">
  <ele>1582.95</ele>
  <time>2026-08-28T17:55:14Z</time>
  <course>251.57</course>
  <speed>0.03</speed>
  <fix>3d</fix>
</trkpt>
<trkpt lat="40.071376" lon="-105.2297848">
  <ele>1583.0</ele>
  <time>2026-08-28T17:55:14Z</time>
  <course>70.68</course>
  <speed>0.01</speed>
  <fix>3d</fix>
</trkpt>
<trkpt lat="40.0713762" lon="-105.2297849">
  <ele>1582.94</ele>
  <time>2026-08-28T17:55:14Z</time>
  <course>251.56</course>
  <speed>0.03</speed>
  <fix>3d</fix>
</trkpt>
<trkpt lat="40.071376" lon="-105.2297848">
  <ele>1583.0</ele>
  <time>2026-08-28T17:55:14Z</time>
  <course>70.68</course>
  <speed>0.01</speed>
  <fix>3d</fix>
</trkpt>
<trkpt lat="40.0713762" lon="-105.2297849">
  <ele>1582.94</ele>
  <time>2026-08-28T17:55:14Z</time>
  <course>251.56</course>
  <speed>0.03</speed>
  <fix>3d</fix>
</trkpt>
<trkpt lat="40.071376" lon="-105.2297848">
  <ele>1583.0</ele>
  <time>2026-08-28T17:55:14Z</time>
  <course>70.68</course>
  <speed>0.01</speed>
  <fix>3d</fix>
</trkpt>
<trkpt lat="40.0713762" lon="-105.2297849">
  <ele>1582.93</ele>
  <time>2026-08-28T17:55:14Z</time>
  <course>251.56</course>
  <speed>0.03</speed>
  <fix>3d</fix>
</trkpt>
<trkpt lat="40.071376" lon="-105.2297847">
  <ele>1583.0</ele>
  <time>2026-08-28T17:55:14Z</time>
  <course>70.68</course>
  <speed>0.01</speed>
  <fix>3d</fix>
</trkpt>
<trkpt lat="40.0713762" lon="-105.2297849">
  <ele>1582.93</ele>
  <time>2026-08-28T17:55:14Z</time>
  <course>251.56</course>
  <speed>0.03</speed>
  <fix>3d</fix>
</trkpt>
<trkpt lat="40.071376" lon="-105.2297847">
  <ele>1583.0</ele>
  <time>2026-08-28T17:55:14Z</time>
  <course>70.68</course>
  <speed>0.01</speed>
  <fix>3d</fix>
</trkpt>
<trkpt lat="40.0713762" lon="-105.2297848">
  <ele>1582.92</ele>
  <time>2026-08-28T17:55:14Z</time>
  <course>251.56</course>
  <speed>0.02</speed>
  <fix>3d</fix>
</trkpt>
<trkpt lat="40.071376" lon="-105.2297847">
  <ele>1583.0</ele>
  <time>2026-08-28T17:55:14Z</time>
  <course>70.68</course>
  <speed>0.01</speed>
  <fix>3d</fix>
</trkpt>
<trkpt lat="40.0713762" lon="-105.2297848">
  <ele>1582.92</ele>
  <time>2026-08-28T17:55:14Z</time>
  <course>251.55</course>
  <speed>0.02</speed>
  <fix>3d</fix>
</trkpt>
<trkpt lat="40.071376" lon="-105.2297847">
  <ele>1583.0</ele>
  <time>2026-08-28T17:55:14Z</time>
  <course>70.68</course>
  <speed>0.01</speed>
  <fix>3d</fix>
</trkpt>
<trkpt lat="40.0713762" lon="-105.2297848">
  <ele>1582.92</ele>
  <time>2026-08-28T17:55:14Z</time>
  <course>251.55</course>
  <speed>0.02</speed>
  <fix>3d</fix>
</trkpt>
<trkpt lat="40.071376" lon="-105.2297847">
  <ele>1583.0</ele>
  <time>2026-08-28T17:55:14Z</time>
  <course>70.68</course>
  <speed>0.01</speed>
  <fix>3d</fix>
</trkpt>
<trkpt lat="40.0713762" lon="-105.2297848">
  <ele>1582.92</ele>
  <time>2026-08-28T17:55:14Z</time>
  <course>251.55</course>
  <speed>0.02</speed>
  <fix>3d</fix>
</trkpt>
<trkpt lat="40.071376" lon="-105.2297847">
  <ele>1583.0</ele>
  <time>2026-08-28T17:55:14Z</time>
  <course>70.68</course>
  <speed>0.01</speed>
  <fix>3d</fix>
</trkpt>
<trkpt lat="40.0713762" lon="-105.2297848">
  <ele>1582.92</ele>
  <time>2026-08-28T17:55:14Z</time>
  <course>251.55</course>
  <speed>0.02</speed>
  <fix>3d</fix>
</trkpt>
<trkpt lat="40.071376" lon="-105.2297847">
  <ele>1583.0</ele>
  <time>2026-08-28T17:55:14Z</time>
  <course>70.68</course>
  <speed>0.01</speed>
  <fix>3d</fix>
</trkpt>
<trkpt lat="40.0713762" lon="-105.2297847">
  <ele>1582.92</ele>
  <time>2026-08-28T17:55:14Z</time>
  <course>251.55</course>
  <speed>0.02</speed>
  <fix>3d</fix>
</trkpt>
<trkpt lat="40.071376" lon="-105.2297847">
  <ele>1583.0</ele>
  <time>2026-08-28T17:55:14Z</time>
  <course>70.67</course>
  <speed>0.0</speed>
  <fix>3d</fix>
</trkpt>
<trkpt lat="40.0713762" lon="-105.2297847">
  <ele>1582.92</ele>
  <time>2026-08-28T17:55:14Z</time>
  <course>251.55</course>
  <speed>0.02</speed>
  <fix>3d</fix>
</trkpt>
<trkpt lat="40.071376" lon="-105.2297847">
  <ele>1583.0</ele>
  <time>2026-08-28T17:55:14Z</time>
  <course>70.67</course>
  <speed>0.0</speed>
  <fix>3d</fix>
</trkpt>
<trkpt lat="40.0713762" lon="-105.2297847">
  <ele>1582.92</ele>
  <time>2026-08-28T17:55:14Z</time>
  <course>251.55</course>
  <speed>0.02</speed>
  <fix>3d</fix>
</trkpt>
<trkpt lat="40.071376" lon="-105.2297847">
  <ele>1583.0</ele>
  <time>2026-08-28T17:55:14Z</time>
  <course>70.67</course>
  <speed>0.0</speed>
  <fix>3d</fix>
</trkpt>
<trkpt lat="40.0713762" lon="-105.2297847">
  <ele>1582.92</ele>
  <time>2026-08-28T17:55:14Z</time>
  <course>251.55</course>
  <speed>0.02</speed>
  <fix>3d</fix>
</trkpt>
<trkpt lat="40.071376" lon="-105.2297847">
  <ele>1583.0</ele>
  <time>2026-08-28T17:55:14Z</time>
  <course>70.67</course>
  <speed>0.0</speed>
  <fix>3d</fix>
</trkpt>
<trkpt lat="40.0713762" lon="-105.2297847">
  <ele>1582.92</ele>
  <time>2026-08-28T17:55:15Z</time>
  <course>251.55</course>
  <speed>0.02</speed>
  <fix>3d</fix>
</trkpt>
<trkpt lat="40.071376" lon="-105.2297847">
  <ele>1583.0</ele>
  <time>2026-08-28T17:55:15Z</time>
  <course>70.67</course>
  <speed>0.0</speed>
  <fix>3d</fix>
</trkpt>
<trkpt lat="40.0713762" lon="-105.2297847">
  <ele>1582.92</ele>
  <time>2026-08-28T17:55:15Z</time>
  <course>251.54</course>
  <speed>0.02</speed>
  <fix>3d</fix>
</trkpt>
<trkpt lat="40.071376" lon="-105.2297847">
  <ele>1583.0</ele>
  <time>2026-08-28T17:55:15Z</time>
  <course>70.67</course>
  <speed>0.0</speed>
  <fix>3d</fix>
</trkpt>
<trkpt lat="40.0713762" lon="-105.2297847">
  <ele>1582.93</ele>
  <time>2026-08-28T17:55:15Z</time>
  <course>251.54</course>
  <speed>0.02</speed>
  <fix>3d</fix>
</trkpt>
<trkpt lat="40.071376" lon="-105.2297847">
  <ele>1583.0</ele>
  <time>2026-08-28T17:55:15Z</time>
  <course>70.67</course>
  <speed>0.0</speed>
  <fix>3d</fix>
</trkpt>
<trkpt lat="40.0713762" lon="-105.2297847">
  <ele>1582.93</ele>
  <time>2026-08-28T17:55:15Z</time>
  <course>251.54</course>
  <speed>0.02</speed>
  <fix>3d</fix>
</trkpt>
<trkpt lat="40.071376" lon="-105.2297847">
  <ele>1583.0</ele>
  <time>2026-08-28T17:55:15Z</time>
  <course>70.67</course>
  <speed>0.0</speed>
  <fix>3d</fix>
</trkpt>
<trkpt lat="40.0713762" lon="-105.2297847">
  <ele>1582.94</ele>
  <time>2026-08-28T17:55:15Z</time>
  <course>251.54</course>
  <speed>0.02</speed>
  <fix>3d</fix>
</trkpt>
<trkpt lat="40.071376" lon="-105.2297846">
  <ele>1583.0</ele>
  <time>2026-08-28T17:55:15Z</time>
  <course>70.67</course>
  <speed>0.0</speed>
  <fix>3d</fix>
</trkpt>
<trkpt lat="40.0713762" lon="-105.2297847">
  <ele>1582.95</ele>
  <time>2026-08-28T17:55:15Z</time>
  <course>251.54</course>
  <speed>0.02</speed>
  <fix>3d</fix>
</trkpt>
<trkpt lat="40.071376" lon="-105.2297846">
  <ele>1583.0</ele>
  <time>2026-08-28T17:55:15Z</time>
  <course>70.67</course>
  <speed>0.0</speed>
  <fix>3d</fix>
</trkpt>
<trkpt lat="40.0713762" lon="-105.2297847">
  <ele>1582.95</ele>
  <time>2026-08-28T17:55:15Z</time>
  <course>251.54</course>
  <speed>0.02</speed>
  <fix>3d</fix>
</trkpt>
<trkpt lat="40.071376" lon="-105.2297846">
  <ele>1583.0</ele>
  <time>2026-08-28T17:55:15Z</time>
  <course>70.67</course>
  <speed>0.0</speed>
  <fix>3d</fix>
</trkpt>
<trkpt lat="40.0713762" lon="-105.2297847">
  <ele>1582.96</ele>
  <time>2026-08-28T17:55:15Z</time>
  <course>251.54</course>
  <speed>0.02</speed>
  <fix>3d</fix>
</trkpt>
<trkpt lat="40.071376" lon="-105.2297846">
  <ele>1583.0</ele>
  <time>2026-08-28T17:55:15Z</time>
  <course>70.67</course>
  <speed>0.0</speed>
  <fix>3d</fix>
</trkpt>
<trkpt lat="40.0713762" lon="-105.2297846">
  <ele>1582.97</ele>
  <time>2026-08-28T17:55:15Z</time>
  <course>251.54</course>
  <speed>0.02</speed>
  <fix>3d</fix>
</trkpt>
<trkpt lat="40.071376" lon="-105.2297846">
  <ele>1583.0</ele>
  <time>2026-08-28T17:55:15Z</time>
  <course>70.67</course>
  <speed>0.0</speed>
  <fix>3d</fix>
</trkpt>
<trkpt lat="40.0713762" lon="-105.2297846">
  <ele>1582.97</ele>
  <time>2026-08-28T17:55:15Z</time>
  <course>251.54</course>
  <speed>0.02</speed>
  <fix>3d</fix>
</trkpt>
<trkpt lat="40.071376" lon="-105.2297846">
  <ele>1583.0</ele>
  <time>2026-08-28T17:55:15Z</time>
  <course>70.67</course>
  <speed>0.0</speed>
  <fix>3d</fix>
</trkpt>
<trkpt lat="40.0713762" lon="-105.2297846">
  <ele>1582.98</ele>
  <time>2026-08-28T17:55:15Z</time>
  <course>251.54</course>
  <speed>0.02</speed>
  <fix>3d</fix>
</trkpt>
<trkpt lat="40.071376" lon="-105.2297846">
  <ele>1583.0</ele>
  <time>2026-08-28T17:55:15Z</time>
  <course>70.67</course>
  <speed>0.0</speed>
  <fix>3d</fix>
</trkpt>
<trkpt lat="40.0713762" lon="-105.2297846">
  <ele>1582.98</ele>
  <time>2026-08-28T17:55:15Z</time>
  <course>251.54</course>
  <speed>0.02</speed>
  <fix>3d</fix>
</trkpt>
<trkpt lat="40.071376" lon="-105.2297846">
  <ele>1583.0</ele>
  <time>2026-08-28T17:55:15Z</time>
  <course>70.67</course>
  <speed>0.0</speed>
  <fix>3d</fix>
</trkpt>
<trkpt lat="40.0713762" lon="-105.2297846">
  <ele>1582.98</ele>
  <time>2026-08-28T17:55:15Z</time>
  <course>251.54</course>
  <speed>0.02</speed>
  <fix>3d</fix>
</trkpt>
<trkpt lat="40.071376" lon="-105.2297846">
  <ele>1583.0</ele>
  <time>2026-08-28T17:55:15Z</time>
  <course>70.67</course>
  <speed>0.0</speed>
  <fix>3d</fix>
</trkpt>
<trkpt lat="40.0713762" lon="-105.2297846">
  <ele>1582.98</ele>
  <time>2026-08-28T17:55:15Z</time>
  <course>251.54</course>
  <speed>0.02</speed>
  <fix>3d</fix>
</trkpt>
<trkpt lat="40.071376" lon="-105.2297846">
  <ele>1583.0</ele>
  <time>2026-08-28T17:55:15Z</time>
  <course>70.67</course>
  <speed>0.0</speed>
  <fix>3d</fix>
</trkpt>
<trkpt lat="40.0713762" lon="-105.2297846">
  <ele>1582.99</ele>
  <time>2026-08-28T17:55:15Z</time>
  <course>251.54</course>
  <speed>0.02</speed>
  <fix>3d</fix>
</trkpt>
<trkpt lat="40.071376" lon="-105.2297846">
  <ele>1583.0</ele>
  <time>2026-08-28T17:55:15Z</time>
  <course>70.67</course>
  <speed>0.0</speed>
  <fix>3d</fix>
</trkpt>
<trkpt lat="40.0713762" lon="-105.2297846">
  <ele>1582.99</ele>
  <time>2026-08-28T17:55:15Z</time>
  <course>251.54</course>
  <speed>0.02</speed>
  <fix>3d</fix>
</trkpt>
<trkpt lat="40.071376" lon="-105.2297846">
  <ele>1583.0</ele>
  <time>2026-08-28T17:55:15Z</time>
  <course>70.67</course>
  <speed>0.0</speed>
  <fix>3d</fix>
</trkpt>
<trkpt lat="40.0713762" lon="-105.2297846">
  <ele>1582.99</ele>
  <time>2026-08-28T17:55:15Z</time>
  <course>251.54</course>
  <speed>0.02</speed>
  <fix>3d</fix>
</trkpt>
<trkpt lat="40.071376" lon="-105.2297846">
  <ele>1583.0</ele>
  <time>2026-08-28T17:55:15Z</time>
  <course>70.67</course>
  <speed>0.0</speed>
  <fix>3d</fix>
</trkpt>
<trkpt lat="40.0713762" lon="-105.2297846">
  <ele>1582.99</ele>
  <time>2026-08-28T17:55:15Z</time>
  <course>251.55</course>
  <speed>0.02</speed>
  <fix>3d</fix>
</trkpt>
<trkpt lat="40.071376" lon="-105.2297846">
  <ele>1583.0</ele>
  <time>2026-08-28T17:55:15Z</time>
  <course>70.67</course>
  <speed>0.0</speed>
  <fix>3d</fix>
</trkpt>
<trkpt lat="40.0713762" lon="-105.2297846">
  <ele>1582.99</ele>
  <time>2026-08-28T17:55:15Z</time>
  <course>251.55</course>
  <speed>0.02</speed>
  <fix>3d</fix>
</trkpt>
<trkpt lat="40.071376" lon="-105.2297846">
  <ele>1583.0</ele>
  <time>2026-08-28T17:55:15Z</time>
  <course>70.67</course>
  <speed>0.0</speed>
  <fix>3d</fix>
</trkpt>
<trkpt lat="40.0713762" lon="-105.2297846">
  <ele>1582.98</ele>
  <time>2026-08-28T17:55:15Z</time>
  <course>251.55</course>
  <speed>0.02</speed>
  <fix>3d</fix>
</trkpt>
<trkpt lat="40.071376" lon="-105.2297846">
  <ele>1583.0</ele>
  <time>2026-08-28T17:55:15Z</time>
  <course>70.67</course>
  <speed>0.0</speed>
  <fix>3d</fix>
</trkpt>
<trkpt lat="40.0713762" lon="-105.2297846">
  <ele>1582.98</ele>
  <time>2026-08-28T17:55:15Z</time>
  <course>251.55</course>
  <speed>0.02</speed>
  <fix>3d</fix>
</trkpt>
<trkpt lat="40.071376" lon="-105.2297846">
  <ele>1583.0</ele>
  <time>2026-08-28T17:55:15Z</time>
  <course>70.67</course>
  <speed>0.0</speed>
  <fix>3d</fix>
</trkpt>
<trkpt lat="40.0713762" lon="-105.2297846">
  <ele>1582.98</ele>
  <time>2026-08-28T17:55:15Z</time>
  <course>251.55</course>
  <speed>0.02</speed>
  <fix>3d</fix>
</trkpt>
<trkpt lat="40.071376" lon="-105.2297846">
  <ele>1583.0</ele>
  <time>2026-08-28T17:55:15Z</time>
  <course>70.67</course>
  <speed>0.0</speed>
  <fix>3d</fix>
</trkpt>
<trkpt lat="40.0713762" lon="-105.2297846">
  <ele>1582.98</ele>
  <time>2026-08-28T17:55:15Z</time>
  <course>251.55</course>
  <speed>0.02</speed>
  <fix>3d</fix>
</trkpt>
<trkpt lat="40.071376" lon="-105.2297846">
  <ele>1583.0</ele>
  <time>2026-08-28T17:55:15Z</time>
  <course>70.67</course>
  <speed>0.0</speed>
  <fix>3d</fix>
</trkpt>
<trkpt lat="40.0713762" lon="-105.2297846">
  <ele>1582.98</ele>
  <time>2026-08-28T17:55:15Z</time>
  <course>251.55</course>
  <speed>0.02</speed>
  <fix>3d</fix>
</trkpt>
<trkpt lat="40.071376" lon="-105.2297846">
  <ele>1583.0</ele>
  <time>2026-08-28T17:55:15Z</time>
  <course>70.67</course>
  <speed>0.0</speed>
  <fix>3d</fix>
</trkpt>
<trkpt lat="40.0713762" lon="-105.2297846">
  <ele>1582.98</ele>
  <time>2026-08-28T17:55:15Z</time>
  <course>251.55</course>
  <speed>0.02</speed>
  <fix>3d</fix>
</trkpt>
<trkpt lat="40.071376" lon="-105.2297845">
  <ele>1583.0</ele>
  <time>2026-08-28T17:55:15Z</time>
  <course>70.67</course>
  <speed>0.0</speed>
  <fix>3d</fix>
</trkpt>
<trkpt lat="40.0713762" lon="-105.2297846">
  <ele>1582.98</ele>
  <time>2026-08-28T17:55:15Z</time>
  <course>251.55</course>
  <speed>0.02</speed>
  <fix>3d</fix>
</trkpt>
<trkpt lat="40.071376" lon="-105.2297845">
  <ele>1583.0</ele>
  <time>2026-08-28T17:55:15Z</time>
  <course>70.67</course>
  <speed>0.0</speed>
  <fix>3d</fix>
</trkpt>
<trkpt lat="40.0713762" lon="-105.2297845">
  <ele>1582.99</ele>
  <time>2026-08-28T17:55:15Z</time>
  <course>251.55</course>
  <speed>0.02</speed>
  <fix>3d</fix>
</trkpt>
<trkpt lat="40.071376" lon="-105.2297844">
  <ele>1583.0</ele>
  <time>2026-08-28T17:55:15Z</time>
  <course>70.67</course>
  <speed>0.0</speed>
  <fix>3d</fix>
</trkpt>
<trkpt lat="40.0713762" lon="-105.2297845">
  <ele>1582.99</ele>
  <time>2026-08-28T17:55:15Z</time>
  <course>251.55</course>
  <speed>0.022360679774997897</speed>
  <fix>3d</fix>
</trkpt>
<trkpt lat="40.071376" lon="-105.2297844">
  <ele>1583.0</ele>
  <time>2026-08-28T17:55:15Z</time>
  <course>70.67</course>
  <speed>0.0</speed>
  <fix>3d</fix>
</trkpt>
<trkpt lat="40.0713762" lon="-105.2297845">
  <ele>1582.99</ele>
  <time>2026-08-28T17:55:15Z</time>
  <course>251.55</course>
  <speed>0.022360679774997897</speed>
  <fix>3d</fix>
</trkpt>
<trkpt lat="40.071376" lon="-105.2297844">
  <ele>1583.0</ele>
  <time>2026-08-28T17:55:15Z</time>
  <course>70.67</course>
  <speed>0.0</speed>
  <fix>3d</fix>
</trkpt>
<trkpt lat="40.0713762" lon="-105.2297845">
  <ele>1582.99</ele>
  <time>2026-08-28T17:55:15Z</time>
  <course>251.55</course>
  <speed>0.022360679774997897</speed>
  <fix>3d</fix>
</trkpt>
<trkpt lat="40.071376" lon="-105.2297844">
  <ele>1583.0</ele>
  <time>2026-08-28T17:55:15Z</time>
  <course>70.67</course>
  <speed>0.0</speed>
  <fix>3d</fix>
</trkpt>
<trkpt lat="40.0713762" lon="-105.2297845">
  <ele>1582.99</ele>
  <time>2026-08-28T17:55:15Z</time>
  <course>251.55</course>
  <speed>0.022360679774997897</speed>
  <fix>3d</fix>
</trkpt>
<trkpt lat="40.071376" lon="-105.2297844">
  <ele>1583.0</ele>
  <time>2026-08-28T17:55:15Z</time>
  <course>70.67</course>
  <speed>0.0</speed>
  <fix>3d</fix>
</trkpt>
<trkpt lat="40.0713762" lon="-105.2297845">
  <ele>1582.99</ele>
  <time>2026-08-28T17:55:15Z</time>
  <course>251.55</course>
  <speed>0.022360679774997897</speed>
  <fix>3d</fix>
</trkpt>
<trkpt lat="40.071376" lon="-105.2297844">
  <ele>1583.0</ele>
  <time>2026-08-28T17:55:15Z</time>
  <course>70.67</course>
  <speed>0.0</speed>
  <fix>3d</fix>
</trkpt>
<trkpt lat="40.0713762" lon="-105.2297845">
  <ele>1582.99</ele>
  <time>2026-08-28T17:55:15Z</time>
  <course>251.56</course>
  <speed>0.022360679774997897</speed>
  <fix>3d</fix>
</trkpt>
<trkpt lat="40.071376" lon="-105.2297844">
  <ele>1583.0</ele>
  <time>2026-08-28T17:55:15Z</time>
  <course>70.67</course>
  <speed>0.0</speed>
  <fix>3d</fix>
</trkpt>
<trkpt lat="40.0713762" lon="-105.2297844">
  <ele>1582.99</ele>
  <time>2026-08-28T17:55:15Z</time>
  <course>251.56</course>
  <speed>0.022360679774997897</speed>
  <fix>3d</fix>
</trkpt>
<trkpt lat="40.071376" lon="-105.2297844">
  <ele>1583.0</ele>
  <time>2026-08-28T17:55:15Z</time>
  <course>70.67</course>
  <speed>0.0</speed>
  <fix>3d</fix>
</trkpt>
<trkpt lat="40.0713762" lon="-105.2297844">
  <ele>1583.0</ele>
  <time>2026-08-28T17:55:15Z</time>
  <course>251.56</course>
  <speed>0.022360679774997897</speed>
  <fix>3d</fix>
</trkpt>
<trkpt lat="40.071376" lon="-105.2297844">
  <ele>1583.0</ele>
  <time>2026-08-28T17:55:15Z</time>
  <course>70.67</course>
  <speed>0.0</speed>
  <fix>3d</fix>
</trkpt>
<trkpt lat="40.0713762" lon="-105.2297844">
  <ele>1583.0</ele>
  <time>2026-08-28T17:55:15Z</time>
  <course>251.56</course>
  <speed>0.022360679774997897</speed>
  <fix>3d</fix>
</trkpt>
<trkpt lat="40.071376" lon="-105.2297844">
  <ele>1583.0</ele>
  <time>2026-08-28T17:55:15Z</time>
  <course>70.67</course>
  <speed>0.0</speed>
  <fix>3d</fix>
</trkpt>
<trkpt lat="40.0713762" lon="-105.2297844">
  <ele>1583.01</ele>
  <time>2026-08-28T17:55:15Z</time>
  <course>251.56</course>
  <speed>0.022360679774997897</speed>
  <fix>3d</fix>
</trkpt>
<trkpt lat="40.071376" lon="-105.2297844">
  <ele>1583.0</ele>
  <time>2026-08-28T17:55:15Z</time>
  <course>70.67</course>
  <speed>0.0</speed>
  <fix>3d</fix>
</trkpt>
<trkpt lat="40.0713762" lon="-105.2297844">
  <ele>1583.01</ele>
  <time>2026-08-28T17:55:15Z</time>
  <course>251.56</course>
  <speed>0.022360679774997897</speed>
  <fix>3d</fix>
</trkpt>
<trkpt lat="40.071376" lon="-105.2297844">
  <ele>1583.0</ele>
  <time>2026-08-28T17:55:15Z</time>
  <course>70.67</course>
  <speed>0.0</speed>
  <fix>3d</fix>
</trkpt>
<trkpt lat="40.0713762" lon="-105.2297844">
  <ele>1583.02</ele>
  <time>2026-08-28T17:55:15Z</time>
  <course>251.56</course>
  <speed>0.022360679774997897</speed>
  <fix>3d</fix>
</trkpt>
<trkpt lat="40.071376" lon="-105.2297844">
  <ele>1583.0</ele>
  <time>2026-08-28T17:55:15Z</time>
  <course>70.67</course>
  <speed>0.0</speed>
  <fix>3d</fix>
</trkpt>
<trkpt lat="40.0713762" lon="-105.2297844">
  <ele>1583.02</ele>
  <time>2026-08-28T17:55:15Z</time>
  <course>251.56</course>
  <speed>0.022360679774997897</speed>
  <fix>3d</fix>
</trkpt>
<trkpt lat="40.071376" lon="-105.2297844">
  <ele>1583.0</ele>
  <time>2026-08-28T17:55:15Z</time>
  <course>70.67</course>
  <speed>0.0</speed>
  <fix>3d</fix>
</trkpt>
<trkpt lat="40.0713762" lon="-105.2297844">
  <ele>1583.03</ele>
  <time>2026-08-28T17:55:16Z</time>
  <course>251.56</course>
  <speed>0.022360679774997897</speed>
  <fix>3d</fix>
</trkpt>
<trkpt lat="40.071376" lon="-105.2297844">
  <ele>1583.0</ele>
  <time>2026-08-28T17:55:16Z</time>
  <course>70.67</course>
  <speed>0.0</speed>
  <fix>3d</fix>
</trkpt>
<trkpt lat="40.0713762" lon="-105.2297844">
  <ele>1583.04</ele>
  <time>2026-08-28T17:55:16Z</time>
  <course>251.56</course>
  <speed>0.022360679774997897</speed>
  <fix>3d</fix>
</trkpt>
<trkpt lat="40.071376" lon="-105.2297844">
  <ele>1583.0</ele>
  <time>2026-08-28T17:55:16Z</time>
  <course>70.67</course>
  <speed>0.0</speed>
  <fix>3d</fix>
</trkpt>
<trkpt lat="40.0713762" lon="-105.2297843">
  <ele>1583.04</ele>
  <time>2026-08-28T17:55:16Z</time>
  <course>251.56</course>
  <speed>0.022360679774997897</speed>
  <fix>3d</fix>
</trkpt>
<trkpt lat="40.071376" lon="-105.2297844">
  <ele>1583.0</ele>
  <time>2026-08-28T17:55:16Z</time>
  <course>70.66</course>
  <speed>0.0</speed>
  <fix>3d</fix>
</trkpt>
<trkpt lat="40.0713762" lon="-105.2297843">
  <ele>1583.04</ele>
  <time>2026-08-28T17:55:16Z</time>
  <course>251.57</course>
  <speed>0.022360679774997897</speed>
  <fix>3d</fix>
</trkpt>
<trkpt lat="40.071376" lon="-105.2297844">
  <ele>1583.0</ele>
  <time>2026-08-28T17:55:16Z</time>
  <course>70.66</course>
  <speed>0.0</speed>
  <fix>3d</fix>
</trkpt>
<trkpt lat="40.0713762" lon="-105.2297843">
  <ele>1583.04</ele>
  <time>2026-08-28T17:55:16Z</time>
  <course>251.57</course>
  <speed>0.022360679774997897</speed>
  <fix>3d</fix>
</trkpt>
<trkpt lat="40.071376" lon="-105.2297844">
  <ele>1583.0</ele>
  <time>2026-08-28T17:55:16Z</time>
  <course>70.66</course>
  <speed>0.0</speed>
  <fix>3d</fix>
</trkpt>
<trkpt lat="40.0713762" lon="-105.2297843">
  <ele>1583.03</ele>
  <time>2026-08-28T17:55:16Z</time>
  <course>251.57</course>
  <speed>0.022360679774997897</speed>
  <fix>3d</fix>
</trkpt>
<trkpt lat="40.071376" lon="-105.2297844">
  <ele>1583.0</ele>
  <time>2026-08-28T17:55:16Z</time>
  <course>70.66</course>
  <speed>0.0</speed>
  <fix>3d</fix>
</trkpt>
<trkpt lat="40.0713762" lon="-105.2297843">
  <ele>1583.03</ele>
  <time>2026-08-28T17:55:16Z</time>
  <course>251.57</course>
  <speed>0.022360679774997897</speed>
  <fix>3d</fix>
</trkpt>
<trkpt lat="40.071376" lon="-105.2297844">
  <ele>1583.0</ele>
  <time>2026-08-28T17:55:16Z</time>
  <course>70.66</course>
  <speed>0.0</speed>
  <fix>3d</fix>
</trkpt>
<trkpt lat="40.0713762" lon="-105.2297843">
  <ele>1583.03</ele>
  <time>2026-08-28T17:55:16Z</time>
  <course>251.57</course>
  <speed>0.022360679774997897</speed>
  <fix>3d</fix>
</trkpt>
<trkpt lat="40.071376" lon="-105.2297844">
  <ele>1583.0</ele>
  <time>2026-08-28T17:55:16Z</time>
  <course>70.66</course>
  <speed>0.0</speed>
  <fix>3d</fix>
</trkpt>
<trkpt lat="40.0713762" lon="-105.2297843">
  <ele>1583.03</ele>
  <time>2026-08-28T17:55:16Z</time>
  <course>251.57</course>
  <speed>0.022360679774997897</speed>
  <fix>3d</fix>
</trkpt>
<trkpt lat="40.071376" lon="-105.2297844">
  <ele>1583.0</ele>
  <time>2026-08-28T17:55:16Z</time>
  <course>70.66</course>
  <speed>0.0</speed>
  <fix>3d</fix>
</trkpt>
<trkpt lat="40.0713762" lon="-105.2297843">
  <ele>1583.04</ele>
  <time>2026-08-28T17:55:16Z</time>
  <course>251.57</course>
  <speed>0.022360679774997897</speed>
  <fix>3d</fix>
</trkpt>
<trkpt lat="40.071376" lon="-105.2297844">
  <ele>1583.0</ele>
  <time>2026-08-28T17:55:16Z</time>
  <course>70.66</course>
  <speed>0.0</speed>
  <fix>3d</fix>
</trkpt>
<trkpt lat="40.0713762" lon="-105.2297843">
  <ele>1583.03</ele>
  <time>2026-08-28T17:55:16Z</time>
  <course>251.57</course>
  <speed>0.022360679774997897</speed>
  <fix>3d</fix>
</trkpt>
<trkpt lat="40.071376" lon="-105.2297844">
  <ele>1583.0</ele>
  <time>2026-08-28T17:55:16Z</time>
  <course>70.66</course>
  <speed>0.0</speed>
  <fix>3d</fix>
</trkpt>
<trkpt lat="40.0713762" lon="-105.2297843">
  <ele>1583.03</ele>
  <time>2026-08-28T17:55:16Z</time>
  <course>251.57</course>
  <speed>0.022360679774997897</speed>
  <fix>3d</fix>
</trkpt>
<trkpt lat="40.071376" lon="-105.2297844">
  <ele>1583.0</ele>
  <time>2026-08-28T17:55:16Z</time>
  <course>70.66</course>
  <speed>0.0</speed>
  <fix>3d</fix>
</trkpt>
<trkpt lat="40.0713762" lon="-105.2297843">
  <ele>1583.03</ele>
  <time>2026-08-28T17:55:16Z</time>
  <course>251.57</course>
  <speed>0.022360679774997897</speed>
  <fix>3d</fix>
</trkpt>
<trkpt lat="40.071376" lon="-105.2297844">
  <ele>1583.0</ele>
  <time>2026-08-28T17:55:16Z</time>
  <course>70.66</course>
  <speed>0.0</speed>
  <fix>3d</fix>
</trkpt>
<trkpt lat="40.0713762" lon="-105.2297843">
  <ele>1583.03</ele>
  <time>2026-08-28T17:55:16Z</time>
  <course>251.58</course>
  <speed>0.022360679774997897</speed>
  <fix>3d</fix>
</trkpt>
<trkpt lat="40.071376" lon="-105.2297844">
  <ele>1583.0</ele>
  <time>2026-08-28T17:55:16Z</time>
  <course>70.66</course>
  <speed>0.0</speed>
  <fix>3d</fix>
</trkpt>
<trkpt lat="40.0713762" lon="-105.2297843">
  <ele>1583.02</ele>
  <time>2026-08-28T17:55:16Z</time>
  <course>251.58</course>
  <speed>0.022360679774997897</speed>
  <fix>3d</fix>
</trkpt>
<trkpt lat="40.071376" lon="-105.2297844">
  <ele>1583.0</ele>
  <time>2026-08-28T17:55:16Z</time>
  <course>70.66</course>
  <speed>0.0</speed>
  <fix>3d</fix>
</trkpt>
<trkpt lat="40.0713762" lon="-105.2297843">
  <ele>1583.02</ele>
  <time>2026-08-28T17:55:16Z</time>
  <course>251.58</course>
  <speed>0.022360679774997897</speed>
  <fix>3d</fix>
</trkpt>
<trkpt lat="40.071376" lon="-105.2297844">
  <ele>1583.0</ele>
  <time>2026-08-28T17:55:16Z</time>
  <course>70.66</course>
  <speed>0.0</speed>
  <fix>3d</fix>
</trkpt>
<trkpt lat="40.0713762" lon="-105.2297843">
  <ele>1583.02</ele>
  <time>2026-08-28T17:55:16Z</time>
  <course>251.58</course>
  <speed>0.022360679774997897</speed>
  <fix>3d</fix>
</trkpt>
<trkpt lat="40.071376" lon="-105.2297844">
  <ele>1583.0</ele>
  <time>2026-08-28T17:55:16Z</time>
  <course>70.66</course>
  <speed>0.0</speed>
  <fix>3d</fix>
</trkpt>
<trkpt lat="40.0713762" lon="-105.2297843">
  <ele>1583.01</ele>
  <time>2026-08-28T17:55:16Z</time>
  <course>251.58</course>
  <speed>0.022360679774997897</speed>
  <fix>3d</fix>
</trkpt>
<trkpt lat="40.071376" lon="-105.2297844">
  <ele>1583.0</ele>
  <time>2026-08-28T17:55:16Z</time>
  <course>70.65</course>
  <speed>0.0</speed>
  <fix>3d</fix>
</trkpt>
<trkpt lat="40.0713762" lon="-105.2297843">
  <ele>1583.01</ele>
  <time>2026-08-28T17:55:16Z</time>
  <course>251.58</course>
  <speed>0.022360679774997897</speed>
  <fix>3d</fix>
</trkpt>
<trkpt lat="40.071376" lon="-105.2297844">
  <ele>1583.0</ele>
  <time>2026-08-28T17:55:16Z</time>
  <course>70.65</course>
  <speed>0.0</speed>
  <fix>3d</fix>
</trkpt>
<trkpt lat="40.0713762" lon="-105.2297843">
  <ele>1583.0</ele>
  <time>2026-08-28T17:55:16Z</time>
  <course>251.58</course>
  <speed>0.022360679774997897</speed>
  <fix>3d</fix>
</trkpt>
<trkpt lat="40.071376" lon="-105.2297844">
  <ele>1583.0</ele>
  <time>2026-08-28T17:55:16Z</time>
  <course>70.65</course>
  <speed>0.0</speed>
  <fix>3d</fix>
</trkpt>
<trkpt lat="40.0713762" lon="-105.2297843">
  <ele>1583.0</ele>
  <time>2026-08-28T17:55:16Z</time>
  <course>251.58</course>
  <speed>0.022360679774997897</speed>
  <fix>3d</fix>
</trkpt>
<trkpt lat="40.071376" lon="-105.2297844">
  <ele>1583.0</ele>
  <time>2026-08-28T17:55:16Z</time>
  <course>70.65</course>
  <speed>0.0</speed>
  <fix>3d</fix>
</trkpt>
<trkpt lat="40.0713762" lon="-105.2297843">
  <ele>1583.0</ele>
  <time>2026-08-28T17:55:16Z</time>
  <course>251.58</course>
  <speed>0.022360679774997897</speed>
  <fix>3d</fix>
</trkpt>
<trkpt lat="40.071376" lon="-105.2297844">
  <ele>1583.0</ele>
  <time>2026-08-28T17:55:16Z</time>
  <course>70.65</course>
  <speed>0.0</speed>
  <fix>3d</fix>
</trkpt>
<trkpt lat="40.0713762" lon="-105.2297843">
  <ele>1582.99</ele>
  <time>2026-08-28T17:55:16Z</time>
  <course>251.58</course>
  <speed>0.022360679774997897</speed>
  <fix>3d</fix>
</trkpt>
<trkpt lat="40.071376" lon="-105.2297844">
  <ele>1583.0</ele>
  <time>2026-08-28T17:55:16Z</time>
  <course>70.65</course>
  <speed>0.0</speed>
  <fix>3d</fix>
</trkpt>
<trkpt lat="40.0713762" lon="-105.2297843">
  <ele>1582.99</ele>
  <time>2026-08-28T17:55:16Z</time>
  <course>251.58</course>
  <speed>0.022360679774997897</speed>
  <fix>3d</fix>
</trkpt>
<trkpt lat="40.071376" lon="-105.2297844">
  <ele>1583.0</ele>
  <time>2026-08-28T17:55:16Z</time>
  <course>70.65</course>
  <speed>0.0</speed>
  <fix>3d</fix>
</trkpt>
<trkpt lat="40.0713762" lon="-105.2297843">
  <ele>1582.99</ele>
  <time>2026-08-28T17:55:16Z</time>
  <course>251.59</course>
  <speed>0.022360679774997897</speed>
  <fix>3d</fix>
</trkpt>
<trkpt lat="40.071376" lon="-105.2297844">
  <ele>1583.0</ele>
  <time>2026-08-28T17:55:16Z</time>
  <course>70.64</course>
  <speed>0.0</speed>
  <fix>3d</fix>
</trkpt>
<trkpt lat="40.0713762" lon="-105.2297843">
  <ele>1582.98</ele>
  <time>2026-08-28T17:55:16Z</time>
  <course>251.59</course>
  <speed>0.022360679774997897</speed>
  <fix>3d</fix>
</trkpt>
<trkpt lat="40.071376" lon="-105.2297844">
  <ele>1583.0</ele>
  <time>2026-08-28T17:55:16Z</time>
  <course>70.64</course>
  <speed>0.0</speed>
  <fix>3d</fix>
</trkpt>
<trkpt lat="40.0713762" lon="-105.2297843">
  <ele>1582.98</ele>
  <time>2026-08-28T17:55:16Z</time>
  <course>251.59</course>
  <speed>0.022360679774997897</speed>
  <fix>3d</fix>
</trkpt>
<trkpt lat="40.071376" lon="-105.2297844">
  <ele>1583.0</ele>
  <time>2026-08-28T17:55:16Z</time>
  <course>70.64</course>
  <speed>0.0</speed>
  <fix>3d</fix>
</trkpt>
<trkpt lat="40.0713762" lon="-105.2297843">
  <ele>1582.97</ele>
  <time>2026-08-28T17:55:16Z</time>
  <course>251.59</course>
  <speed>0.022360679774997897</speed>
  <fix>3d</fix>
</trkpt>
<trkpt lat="40.071376" lon="-105.2297844">
  <ele>1583.0</ele>
  <time>2026-08-28T17:55:16Z</time>
  <course>70.64</course>
  <speed>0.0</speed>
  <fix>3d</fix>
</trkpt>
<trkpt lat="40.0713762" lon="-105.2297843">
  <ele>1582.97</ele>
  <time>2026-08-28T17:55:16Z</time>
  <course>251.59</course>
  <speed>0.022360679774997897</speed>
  <fix>3d</fix>
</trkpt>
<trkpt lat="40.071376" lon="-105.2297844">
  <ele>1583.0</ele>
  <time>2026-08-28T17:55:16Z</time>
  <course>70.64</course>
  <speed>0.0</speed>
  <fix>3d</fix>
</trkpt>
<trkpt lat="40.0713762" lon="-105.2297843">
  <ele>1582.97</ele>
  <time>2026-08-28T17:55:16Z</time>
  <course>251.59</course>
  <speed>0.022360679774997897</speed>
  <fix>3d</fix>
</trkpt>
<trkpt lat="40.071376" lon="-105.2297844">
  <ele>1583.0</ele>
  <time>2026-08-28T17:55:16Z</time>
  <course>70.64</course>
  <speed>0.0</speed>
  <fix>3d</fix>
</trkpt>
<trkpt lat="40.0713762" lon="-105.2297843">
  <ele>1582.96</ele>
  <time>2026-08-28T17:55:16Z</time>
  <course>251.59</course>
  <speed>0.022360679774997897</speed>
  <fix>3d</fix>
</trkpt>
<trkpt lat="40.071376" lon="-105.2297844">
  <ele>1583.0</ele>
  <time>2026-08-28T17:55:16Z</time>
  <course>70.63</course>
  <speed>0.0</speed>
  <fix>3d</fix>
</trkpt>
<trkpt lat="40.0713762" lon="-105.2297843">
  <ele>1582.96</ele>
  <time>2026-08-28T17:55:16Z</time>
  <course>251.59</course>
  <speed>0.022360679774997897</speed>
  <fix>3d</fix>
</trkpt>
<trkpt lat="40.071376" lon="-105.2297844">
  <ele>1583.0</ele>
  <time>2026-08-28T17:55:16Z</time>
  <course>70.63</course>
  <speed>0.0</speed>
  <fix>3d</fix>
</trkpt>
<trkpt lat="40.0713762" lon="-105.2297843">
  <ele>1582.96</ele>
  <time>2026-08-28T17:55:16Z</time>
  <course>251.59</course>
  <speed>0.022360679774997897</speed>
  <fix>3d</fix>
</trkpt>
<trkpt lat="40.071376" lon="-105.2297844">
  <ele>1583.0</ele>
  <time>2026-08-28T17:55:16Z</time>
  <course>70.63</course>
  <speed>0.0</speed>
  <fix>3d</fix>
</trkpt>
<trkpt lat="40.0713762" lon="-105.2297843">
  <ele>1582.95</ele>
  <time>2026-08-28T17:55:16Z</time>
  <course>251.59</course>
  <speed>0.022360679774997897</speed>
  <fix>3d</fix>
</trkpt>
<trkpt lat="40.071376" lon="-105.2297844">
  <ele>1583.0</ele>
  <time>2026-08-28T17:55:16Z</time>
  <course>70.63</course>
  <speed>0.0</speed>
  <fix>3d</fix>
</trkpt>
<trkpt lat="40.0713762" lon="-105.2297843">
  <ele>1582.95</ele>
  <time>2026-08-28T17:55:16Z</time>
  <course>251.59</course>
  <speed>0.022360679774997897</speed>
  <fix>3d</fix>
</trkpt>
<trkpt lat="40.071376" lon="-105.2297844">
  <ele>1583.0</ele>
  <time>2026-08-28T17:55:16Z</time>
  <course>70.63</course>
  <speed>0.0</speed>
  <fix>3d</fix>
</trkpt>
<trkpt lat="40.0713762" lon="-105.2297843">
  <ele>1582.95</ele>
  <time>2026-08-28T17:55:16Z</time>
  <course>251.59</course>
  <speed>0.022360679774997897</speed>
  <fix>3d</fix>
</trkpt>
<trkpt lat="40.071376" lon="-105.2297844">
  <ele>1583.0</ele>
  <time>2026-08-28T17:55:16Z</time>
  <course>70.62</course>
  <speed>0.0</speed>
  <fix>3d</fix>
</trkpt>
<trkpt lat="40.0713762" lon="-105.2297843">
  <ele>1582.95</ele>
  <time>2026-08-28T17:55:16Z</time>
  <course>251.6</course>
  <speed>0.022360679774997897</speed>
  <fix>3d</fix>
</trkpt>
<trkpt lat="40.071376" lon="-105.2297844">
  <ele>1583.0</ele>
  <time>2026-08-28T17:55:16Z</time>
  <course>70.62</course>
  <speed>0.0</speed>
  <fix>3d</fix>
</trkpt>
<trkpt lat="40.0713762" lon="-105.2297843">
  <ele>1582.95</ele>
  <time>2026-08-28T17:55:16Z</time>
  <course>251.6</course>
  <speed>0.022360679774997897</speed>
  <fix>3d</fix>
</trkpt>
<trkpt lat="40.071376" lon="-105.2297844">
  <ele>1583.0</ele>
  <time>2026-08-28T17:55:16Z</time>
  <course>70.61</course>
  <speed>0.0</speed>
  <fix>3d</fix>
</trkpt>
<trkpt lat="40.0713762" lon="-105.2297843">
  <ele>1582.95</ele>
  <time>2026-08-28T17:55:16Z</time>
  <course>251.6</course>
  <speed>0.022360679774997897</speed>
  <fix>3d</fix>
</trkpt>
<trkpt lat="40.071376" lon="-105.2297844">
  <ele>1583.0</ele>
  <time>2026-08-28T17:55:16Z</time>
  <course>70.61</course>
  <speed>0.0</speed>
  <fix>3d</fix>
</trkpt>
<trkpt lat="40.0713762" lon="-105.2297843">
  <ele>1582.94</ele>
  <time>2026-08-28T17:55:16Z</time>
  <course>251.6</course>
  <speed>0.022360679774997897</speed>
  <fix>3d</fix>
</trkpt>
<trkpt lat="40.071376" lon="-105.2297844">
  <ele>1583.0</ele>
  <time>2026-08-28T17:55:16Z</time>
  <course>70.61</course>
  <speed>0.0</speed>
  <fix>3d</fix>
</trkpt>
<trkpt lat="40.0713762" lon="-105.2297843">
  <ele>1582.94</ele>
  <time>2026-08-28T17:55:17Z</time>
  <course>251.6</course>
  <speed>0.022360679774997897</speed>
  <fix>3d</fix>
</trkpt>
<trkpt lat="40.071376" lon="-105.2297844">
  <ele>1583.0</ele>
  <time>2026-08-28T17:55:17Z</time>
  <course>70.6</course>
  <speed>0.0</speed>
  <fix>3d</fix>
</trkpt>
<trkpt lat="40.0713762" lon="-105.2297843">
  <ele>1582.94</ele>
  <time>2026-08-28T17:55:17Z</time>
  <course>251.6</course>
  <speed>0.022360679774997897</speed>
  <fix>3d</fix>
</trkpt>
<trkpt lat="40.071376" lon="-105.2297844">
  <ele>1583.0</ele>
  <time>2026-08-28T17:55:17Z</time>
  <course>70.6</course>
  <speed>0.0</speed>
  <fix>3d</fix>
</trkpt>
<trkpt lat="40.0713762" lon="-105.2297843">
  <ele>1582.94</ele>
  <time>2026-08-28T17:55:17Z</time>
  <course>251.6</course>
  <speed>0.022360679774997897</speed>
  <fix>3d</fix>
</trkpt>
<trkpt lat="40.071376" lon="-105.2297844">
  <ele>1583.0</ele>
  <time>2026-08-28T17:55:17Z</time>
  <course>70.59</course>
  <speed>0.0</speed>
  <fix>3d</fix>
</trkpt>
<trkpt lat="40.0713762" lon="-105.2297843">
  <ele>1582.94</ele>
  <time>2026-08-28T17:55:17Z</time>
  <course>251.6</course>
  <speed>0.022360679774997897</speed>
  <fix>3d</fix>
</trkpt>
<trkpt lat="40.071376" lon="-105.2297844">
  <ele>1583.0</ele>
  <time>2026-08-28T17:55:17Z</time>
  <course>70.59</course>
  <speed>0.0</speed>
  <fix>3d</fix>
</trkpt>
<trkpt lat="40.0713762" lon="-105.2297843">
  <ele>1582.93</ele>
  <time>2026-08-28T17:55:17Z</time>
  <course>251.6</course>
  <speed>0.022360679774997897</speed>
  <fix>3d</fix>
</trkpt>
<trkpt lat="40.071376" lon="-105.2297844">
  <ele>1583.0</ele>
  <time>2026-08-28T17:55:17Z</time>
  <course>70.58</course>
  <speed>0.0</speed>
  <fix>3d</fix>
</trkpt>
<trkpt lat="40.0713762" lon="-105.2297843">
  <ele>1582.92</ele>
  <time>2026-08-28T17:55:17Z</time>
  <course>251.6</course>
  <speed>0.022360679774997897</speed>
  <fix>3d</fix>
</trkpt>
<trkpt lat="40.071376" lon="-105.2297844">
  <ele>1583.0</ele>
  <time>2026-08-28T17:55:17Z</time>
  <course>70.58</course>
  <speed>0.0</speed>
  <fix>3d</fix>
</trkpt>
<trkpt lat="40.0713762" lon="-105.2297843">
  <ele>1582.92</ele>
  <time>2026-08-28T17:55:17Z</time>
  <course>251.6</course>
  <speed>0.022360679774997897</speed>
  <fix>3d</fix>
</trkpt>
<trkpt lat="40.071376" lon="-105.2297844">
  <ele>1583.0</ele>
  <time>2026-08-28T17:55:17Z</time>
  <course>70.58</course>
  <speed>0.0</speed>
  <fix>3d</fix>
</trkpt>
<trkpt lat="40.0713762" lon="-105.2297843">
  <ele>1582.92</ele>
  <time>2026-08-28T17:55:17Z</time>
  <course>251.6</course>
  <speed>0.022360679774997897</speed>
  <fix>3d</fix>
</trkpt>
<trkpt lat="40.071376" lon="-105.2297844">
  <ele>1583.0</ele>
  <time>2026-08-28T17:55:17Z</time>
  <course>70.58</course>
  <speed>0.0</speed>
  <fix>3d</fix>
</trkpt>
<trkpt lat="40.0713762" lon="-105.2297843">
  <ele>1582.91</ele>
  <time>2026-08-28T17:55:17Z</time>
  <course>251.6</course>
  <speed>0.022360679774997897</speed>
  <fix>3d</fix>
</trkpt>
<trkpt lat="40.071376" lon="-105.2297844">
  <ele>1583.0</ele>
  <time>2026-08-28T17:55:17Z</time>
  <course>70.56</course>
  <speed>0.0</speed>
  <fix>3d</fix>
</trkpt>
<trkpt lat="40.0713762" lon="-105.2297843">
  <ele>1582.91</ele>
  <time>2026-08-28T17:55:17Z</time>
  <course>251.61</course>
  <speed>0.022360679774997897</speed>
  <fix>3d</fix>
</trkpt>
<trkpt lat="40.071376" lon="-105.2297844">
  <ele>1583.0</ele>
  <time>2026-08-28T17:55:17Z</time>
  <course>70.56</course>
  <speed>0.0</speed>
  <fix>3d</fix>
</trkpt>
<trkpt lat="40.0713762" lon="-105.2297843">
  <ele>1582.9</ele>
  <time>2026-08-28T17:55:17Z</time>
  <course>251.61</course>
  <speed>0.022360679774997897</speed>
  <fix>3d</fix>
</trkpt>
<trkpt lat="40.071376" lon="-105.2297844">
  <ele>1583.0</ele>
  <time>2026-08-28T17:55:17Z</time>
  <course>70.55</course>
  <speed>0.0</speed>
  <fix>3d</fix>
</trkpt>
<trkpt lat="40.0713762" lon="-105.2297843">
  <ele>1582.9</ele>
  <time>2026-08-28T17:55:17Z</time>
  <course>251.61</course>
  <speed>0.022360679774997897</speed>
  <fix>3d</fix>
</trkpt>
<trkpt lat="40.071376" lon="-105.2297844">
  <ele>1583.0</ele>
  <time>2026-08-28T17:55:17Z</time>
  <course>70.55</course>
  <speed>0.0</speed>
  <fix>3d</fix>
</trkpt>
<trkpt lat="40.0713762" lon="-105.2297843">
  <ele>1582.9</ele>
  <time>2026-08-28T17:55:17Z</time>
  <course>251.61</course>
  <speed>0.022360679774997897</speed>
  <fix>3d</fix>
</trkpt>
<trkpt lat="40.071376" lon="-105.2297844">
  <ele>1583.0</ele>
  <time>2026-08-28T17:55:17Z</time>
  <course>70.55</course>
  <speed>0.0</speed>
  <fix>3d</fix>
</trkpt>
<trkpt lat="40.0713762" lon="-105.2297843">
  <ele>1582.9</ele>
  <time>2026-08-28T17:55:17Z</time>
  <course>251.61</course>
  <speed>0.022360679774997897</speed>
  <fix>3d</fix>
</trkpt>
<trkpt lat="40.071376" lon="-105.2297844">
  <ele>1583.0</ele>
  <time>2026-08-28T17:55:17Z</time>
  <course>70.54</course>
  <speed>0.0</speed>
  <fix>3d</fix>
</trkpt>
<trkpt lat="40.0713762" lon="-105.2297843">
  <ele>1582.9</ele>
  <time>2026-08-28T17:55:17Z</time>
  <course>251.61</course>
  <speed>0.022360679774997897</speed>
  <fix>3d</fix>
</trkpt>
<trkpt lat="40.071376" lon="-105.2297844">
  <ele>1583.0</ele>
  <time>2026-08-28T17:55:17Z</time>
  <course>70.54</course>
  <speed>0.0</speed>
  <fix>3d</fix>
</trkpt>
<trkpt lat="40.0713762" lon="-105.2297843">
  <ele>1582.91</ele>
  <time>2026-08-28T17:55:17Z</time>
  <course>251.61</course>
  <speed>0.022360679774997897</speed>
  <fix>3d</fix>
</trkpt>
<trkpt lat="40.071376" lon="-105.2297844">
  <ele>1583.0</ele>
  <time>2026-08-28T17:55:17Z</time>
  <course>70.53</course>
  <speed>0.0</speed>
  <fix>3d</fix>
</trkpt>
<trkpt lat="40.0713762" lon="-105.2297843">
  <ele>1582.91</ele>
  <time>2026-08-28T17:55:17Z</time>
  <course>251.61</course>
  <speed>0.022360679774997897</speed>
  <fix>3d</fix>
</trkpt>
<trkpt lat="40.071376" lon="-105.2297844">
  <ele>1583.0</ele>
  <time>2026-08-28T17:55:17Z</time>
  <course>70.53</course>
  <speed>0.0</speed>
  <fix>3d</fix>
</trkpt>
<trkpt lat="40.0713762" lon="-105.2297843">
  <ele>1582.91</ele>
  <time>2026-08-28T17:55:17Z</time>
  <course>251.61</course>
  <speed>0.022360679774997897</speed>
  <fix>3d</fix>
</trkpt>
<trkpt lat="40.071376" lon="-105.2297844">
  <ele>1583.0</ele>
  <time>2026-08-28T17:55:17Z</time>
  <course>70.51</course>
  <speed>0.0</speed>
  <fix>3d</fix>
</trkpt>
<trkpt lat="40.0713762" lon="-105.2297843">
  <ele>1582.92</ele>
  <time>2026-08-28T17:55:17Z</time>
  <course>251.61</course>
  <speed>0.022360679774997897</speed>
  <fix>3d</fix>
</trkpt>
<trkpt lat="40.071376" lon="-105.2297844">
  <ele>1583.0</ele>
  <time>2026-08-28T17:55:17Z</time>
  <course>70.51</course>
  <speed>0.0</speed>
  <fix>3d</fix>
</trkpt>
<trkpt lat="40.0713762" lon="-105.2297843">
  <ele>1582.92</ele>
  <time>2026-08-28T17:55:17Z</time>
  <course>251.61</course>
  <speed>0.022360679774997897</speed>
  <fix>3d</fix>
</trkpt>
<trkpt lat="40.071376" lon="-105.2297844">
  <ele>1583.0</ele>
  <time>2026-08-28T17:55:17Z</time>
  <course>70.49</course>
  <speed>0.0</speed>
  <fix>3d</fix>
</trkpt>
<trkpt lat="40.0713762" lon="-105.2297843">
  <ele>1582.92</ele>
  <time>2026-08-28T17:55:17Z</time>
  <course>251.61</course>
  <speed>0.022360679774997897</speed>
  <fix>3d</fix>
</trkpt>
<trkpt lat="40.071376" lon="-105.2297844">
  <ele>1583.0</ele>
  <time>2026-08-28T17:55:17Z</time>
  <course>70.47</course>
  <speed>0.0</speed>
  <fix>3d</fix>
</trkpt>
<trkpt lat="40.0713762" lon="-105.2297843">
  <ele>1582.92</ele>
  <time>2026-08-28T17:55:17Z</time>
  <course>251.61</course>
  <speed>0.022360679774997897</speed>
  <fix>3d</fix>
</trkpt>
<trkpt lat="40.071376" lon="-105.2297844">
  <ele>1583.0</ele>
  <time>2026-08-28T17:55:17Z</time>
  <course>70.47</course>
  <speed>0.0</speed>
  <fix>3d</fix>
</trkpt>
<trkpt lat="40.0713762" lon="-105.2297843">
  <ele>1582.92</ele>
  <time>2026-08-28T17:55:17Z</time>
  <course>251.61</course>
  <speed>0.022360679774997897</speed>
  <fix>3d</fix>
</trkpt>
<trkpt lat="40.071376" lon="-105.2297844">
  <ele>1583.0</ele>
  <time>2026-08-28T17:55:17Z</time>
  <course>70.45</course>
  <speed>0.0</speed>
  <fix>3d</fix>
</trkpt>
<trkpt lat="40.0713762" lon="-105.2297843">
  <ele>1582.92</ele>
  <time>2026-08-28T17:55:17Z</time>
  <course>251.61</course>
  <speed>0.022360679774997897</speed>
  <fix>3d</fix>
</trkpt>
<trkpt lat="40.071376" lon="-105.2297844">
  <ele>1583.0</ele>
  <time>2026-08-28T17:55:17Z</time>
  <course>70.45</course>
  <speed>0.0</speed>
  <fix>3d</fix>
</trkpt>
<trkpt lat="40.0713762" lon="-105.2297843">
  <ele>1582.92</ele>
  <time>2026-08-28T17:55:17Z</time>
  <course>251.61</course>
  <speed>0.022360679774997897</speed>
  <fix>3d</fix>
</trkpt>
<trkpt lat="40.071376" lon="-105.2297844">
  <ele>1583.0</ele>
  <time>2026-08-28T17:55:17Z</time>
  <course>70.43</course>
  <speed>0.0</speed>
  <fix>3d</fix>
</trkpt>
<trkpt lat="40.0713762" lon="-105.2297843">
  <ele>1582.93</ele>
  <time>2026-08-28T17:55:17Z</time>
  <course>251.61</course>
  <speed>0.022360679774997897</speed>
  <fix>3d</fix>
</trkpt>
<trkpt lat="40.071376" lon="-105.2297844">
  <ele>1583.0</ele>
  <time>2026-08-28T17:55:17Z</time>
  <course>70.43</course>
  <speed>0.0</speed>
  <fix>3d</fix>
</trkpt>
<trkpt lat="40.0713762" lon="-105.2297843">
  <ele>1582.93</ele>
  <time>2026-08-28T17:55:17Z</time>
  <course>251.61</course>
  <speed>0.022360679774997897</speed>
  <fix>3d</fix>
</trkpt>
<trkpt lat="40.071376" lon="-105.2297844">
  <ele>1583.0</ele>
  <time>2026-08-28T17:55:17Z</time>
  <course>70.4</course>
  <speed>0.0</speed>
  <fix>3d</fix>
</trkpt>
<trkpt lat="40.0713762" lon="-105.2297843">
  <ele>1582.93</ele>
  <time>2026-08-28T17:55:17Z</time>
  <course>251.62</course>
  <speed>0.022360679774997897</speed>
  <fix>3d</fix>
</trkpt>
<trkpt lat="40.071376" lon="-105.2297844">
  <ele>1583.0</ele>
  <time>2026-08-28T17:55:17Z</time>
  <course>70.4</course>
  <speed>0.0</speed>
  <fix>3d</fix>
</trkpt>
<trkpt lat="40.0713762" lon="-105.2297843">
  <ele>1582.93</ele>
  <time>2026-08-28T17:55:17Z</time>
  <course>251.62</course>
  <speed>0.022360679774997897</speed>
  <fix>3d</fix>
</trkpt>
<trkpt lat="40.071376" lon="-105.2297844">
  <ele>1583.0</ele>
  <time>2026-08-28T17:55:17Z</time>
  <course>70.37</course>
  <speed>0.0</speed>
  <fix>3d</fix>
</trkpt>
<trkpt lat="40.0713762" lon="-105.2297843">
  <ele>1582.93</ele>
  <time>2026-08-28T17:55:17Z</time>
  <course>251.62</course>
  <speed>0.022360679774997897</speed>
  <fix>3d</fix>
</trkpt>
<trkpt lat="40.071376" lon="-105.2297844">
  <ele>1583.0</ele>
  <time>2026-08-28T17:55:17Z</time>
  <course>70.37</course>
  <speed>0.0</speed>
  <fix>3d</fix>
</trkpt>
<trkpt lat="40.0713762" lon="-105.2297843">
  <ele>1582.94</ele>
  <time>2026-08-28T17:55:17Z</time>
  <course>251.62</course>
  <speed>0.022360679774997897</speed>
  <fix>3d</fix>
</trkpt>
<trkpt lat="40.071376" lon="-105.2297844">
  <ele>1583.0</ele>
  <time>2026-08-28T17:55:17Z</time>
  <course>70.34</course>
  <speed>0.0</speed>
  <fix>3d</fix>
</trkpt>
<trkpt lat="40.0713762" lon="-105.2297843">
  <ele>1582.94</ele>
  <time>2026-08-28T17:55:17Z</time>
  <course>251.62</course>
  <speed>0.022360679774997897</speed>
  <fix>3d</fix>
</trkpt>
<trkpt lat="40.071376" lon="-105.2297844">
  <ele>1583.0</ele>
  <time>2026-08-28T17:55:17Z</time>
  <course>70.34</course>
  <speed>0.0</speed>
  <fix>3d</fix>
</trkpt>
<trkpt lat="40.0713762" lon="-105.2297843">
  <ele>1582.94</ele>
  <time>2026-08-28T17:55:17Z</time>
  <course>251.62</course>
  <speed>0.022360679774997897</speed>
  <fix>3d</fix>
</trkpt>
<trkpt lat="40.071376" lon="-105.2297844">
  <ele>1583.0</ele>
  <time>2026-08-28T17:55:17Z</time>
  <course>70.31</course>
  <speed>0.0</speed>
  <fix>3d</fix>
</trkpt>
<trkpt lat="40.0713762" lon="-105.2297843">
  <ele>1582.94</ele>
  <time>2026-08-28T17:55:17Z</time>
  <course>251.62</course>
  <speed>0.022360679774997897</speed>
  <fix>3d</fix>
</trkpt>
<trkpt lat="40.071376" lon="-105.2297844">
  <ele>1583.0</ele>
  <time>2026-08-28T17:55:17Z</time>
  <course>70.31</course>
  <speed>0.0</speed>
  <fix>3d</fix>
</trkpt>
<trkpt lat="40.0713762" lon="-105.2297843">
  <ele>1582.94</ele>
  <time>2026-08-28T17:55:17Z</time>
  <course>251.62</course>
  <speed>0.022360679774997897</speed>
  <fix>3d</fix>
</trkpt>
<trkpt lat="40.071376" lon="-105.2297844">
  <ele>1583.0</ele>
  <time>2026-08-28T17:55:17Z</time>
  <course>70.31</course>
  <speed>0.0</speed>
  <fix>3d</fix>
</trkpt>
<trkpt lat="40.0713762" lon="-105.2297843">
  <ele>1582.94</ele>
  <time>2026-08-28T17:55:17Z</time>
  <course>251.62</course>
  <speed>0.022360679774997897</speed>
  <fix>3d</fix>
</trkpt>
<trkpt lat="40.071376" lon="-105.2297844">
  <ele>1583.0</ele>
  <time>2026-08-28T17:55:17Z</time>
  <course>70.27</course>
  <speed>0.0</speed>
  <fix>3d</fix>
</trkpt>
<trkpt lat="40.0713762" lon="-105.2297843">
  <ele>1582.94</ele>
  <time>2026-08-28T17:55:17Z</time>
  <course>251.62</course>
  <speed>0.022360679774997897</speed>
  <fix>3d</fix>
</trkpt>
<trkpt lat="40.071376" lon="-105.2297844">
  <ele>1583.0</ele>
  <time>2026-08-28T17:55:17Z</time>
  <course>70.27</course>
  <speed>0.0</speed>
  <fix>3d</fix>
</trkpt>
<trkpt lat="40.0713762" lon="-105.2297843">
  <ele>1582.94</ele>
  <time>2026-08-28T17:55:17Z</time>
  <course>251.62</course>
  <speed>0.022360679774997897</speed>
  <fix>3d</fix>
</trkpt>
<trkpt lat="40.071376" lon="-105.2297844">
  <ele>1583.0</ele>
  <time>2026-08-28T17:55:17Z</time>
  <course>70.22</course>
  <speed>0.0</speed>
  <fix>3d</fix>
</trkpt>
<trkpt lat="40.0713762" lon="-105.2297843">
  <ele>1582.94</ele>
  <time>2026-08-28T17:55:17Z</time>
  <course>251.62</course>
  <speed>0.022360679774997897</speed>
  <fix>3d</fix>
</trkpt>
<trkpt lat="40.071376" lon="-105.2297844">
  <ele>1583.0</ele>
  <time>2026-08-28T17:55:17Z</time>
  <course>70.22</course>
  <speed>0.0</speed>
  <fix>3d</fix>
</trkpt>
<trkpt lat="40.0713762" lon="-105.2297843">
  <ele>1582.94</ele>
  <time>2026-08-28T17:55:17Z</time>
  <course>251.62</course>
  <speed>0.022360679774997897</speed>
  <fix>3d</fix>
</trkpt>
<trkpt lat="40.071376" lon="-105.2297844">
  <ele>1583.0</ele>
  <time>2026-08-28T17:55:17Z</time>
  <course>70.18</course>
  <speed>0.0</speed>
  <fix>3d</fix>
</trkpt>
<trkpt lat="40.0713762" lon="-105.2297843">
  <ele>1582.94</ele>
  <time>2026-08-28T17:55:18Z</time>
  <course>251.62</course>
  <speed>0.022360679774997897</speed>
  <fix>3d</fix>
</trkpt>
<trkpt lat="40.071376" lon="-105.2297844">
  <ele>1583.0</ele>
  <time>2026-08-28T17:55:18Z</time>
  <course>70.12</course>
  <speed>0.0</speed>
  <fix>3d</fix>
</trkpt>
<trkpt lat="40.0713762" lon="-105.2297843">
  <ele>1582.94</ele>
  <time>2026-08-28T17:55:18Z</time>
  <course>251.62</course>
  <speed>0.022360679774997897</speed>
  <fix>3d</fix>
</trkpt>
<trkpt lat="40.071376" lon="-105.2297844">
  <ele>1583.0</ele>
  <time>2026-08-28T17:55:18Z</time>
  <course>70.12</course>
  <speed>0.0</speed>
  <fix>3d</fix>
</trkpt>
<trkpt lat="40.0713762" lon="-105.2297843">
  <ele>1582.94</ele>
  <time>2026-08-28T17:55:18Z</time>
  <course>251.62</course>
  <speed>0.022360679774997897</speed>
  <fix>3d</fix>
</trkpt>
<trkpt lat="40.071376" lon="-105.2297844">
  <ele>1583.0</ele>
  <time>2026-08-28T17:55:18Z</time>
  <course>70.06</course>
  <speed>0.0</speed>
  <fix>3d</fix>
</trkpt>
<trkpt lat="40.0713762" lon="-105.2297843">
  <ele>1582.94</ele>
  <time>2026-08-28T17:55:18Z</time>
  <course>251.62</course>
  <speed>0.022360679774997897</speed>
  <fix>3d</fix>
</trkpt>
<trkpt lat="40.071376" lon="-105.2297844">
  <ele>1583.0</ele>
  <time>2026-08-28T17:55:18Z</time>
  <course>70.06</course>
  <speed>0.0</speed>
  <fix>3d</fix>
</trkpt>
<trkpt lat="40.0713762" lon="-105.2297843">
  <ele>1582.95</ele>
  <time>2026-08-28T17:55:18Z</time>
  <course>251.62</course>
  <speed>0.022360679774997897</speed>
  <fix>3d</fix>
</trkpt>
<trkpt lat="40.071376" lon="-105.2297844">
  <ele>1583.0</ele>
  <time>2026-08-28T17:55:18Z</time>
  <course>70.0</course>
  <speed>0.0</speed>
  <fix>3d</fix>
</trkpt>
<trkpt lat="40.0713762" lon="-105.2297843">
  <ele>1582.96</ele>
  <time>2026-08-28T17:55:18Z</time>
  <course>251.62</course>
  <speed>0.022360679774997897</speed>
  <fix>3d</fix>
</trkpt>
<trkpt lat="40.071376" lon="-105.2297844">
  <ele>1583.0</ele>
  <time>2026-08-28T17:55:18Z</time>
  <course>70.0</course>
  <speed>0.0</speed>
  <fix>3d</fix>
</trkpt>
<trkpt lat="40.0713762" lon="-105.2297843">
  <ele>1582.97</ele>
  <time>2026-08-28T17:55:18Z</time>
  <course>251.62</course>
  <speed>0.022360679774997897</speed>
  <fix>3d</fix>
</trkpt>
<trkpt lat="40.071376" lon="-105.2297844">
  <ele>1583.0</ele>
  <time>2026-08-28T17:55:18Z</time>
  <course>69.93</course>
  <speed>0.0</speed>
  <fix>3d</fix>
</trkpt>
<trkpt lat="40.0713762" lon="-105.2297843">
  <ele>1582.98</ele>
  <time>2026-08-28T17:55:18Z</time>
  <course>251.62</course>
  <speed>0.022360679774997897</speed>
  <fix>3d</fix>
</trkpt>
<trkpt lat="40.071376" lon="-105.2297844">
  <ele>1583.0</ele>
  <time>2026-08-28T17:55:18Z</time>
  <course>69.93</course>
  <speed>0.0</speed>
  <fix>3d</fix>
</trkpt>
<trkpt lat="40.0713762" lon="-105.2297843">
  <ele>1582.99</ele>
  <time>2026-08-28T17:55:18Z</time>
  <course>251.63</course>
  <speed>0.022360679774997897</speed>
  <fix>3d</fix>
</trkpt>
<trkpt lat="40.071376" lon="-105.2297844">
  <ele>1583.0</ele>
  <time>2026-08-28T17:55:18Z</time>
  <course>69.85</course>
  <speed>0.0</speed>
  <fix>3d</fix>
</trkpt>
<trkpt lat="40.0713762" lon="-105.2297843">
  <ele>1583.0</ele>
  <time>2026-08-28T17:55:18Z</time>
  <course>251.63</course>
  <speed>0.022360679774997897</speed>
  <fix>3d</fix>
</trkpt>
<trkpt lat="40.071376" lon="-105.2297844">
  <ele>1583.0</ele>
  <time>2026-08-28T17:55:18Z</time>
  <course>69.85</course>
  <speed>0.0</speed>
  <fix>3d</fix>
</trkpt>
<trkpt lat="40.0713762" lon="-105.2297843">
  <ele>1583.01</ele>
  <time>2026-08-28T17:55:18Z</time>
  <course>251.63</course>
  <speed>0.022360679774997897</speed>
  <fix>3d</fix>
</trkpt>
<trkpt lat="40.071376" lon="-105.2297844">
  <ele>1583.0</ele>
  <time>2026-08-28T17:55:18Z</time>
  <course>69.76</course>
  <speed>0.0</speed>
  <fix>3d</fix>
</trkpt>
<trkpt lat="40.0713762" lon="-105.2297843">
  <ele>1583.01</ele>
  <time>2026-08-28T17:55:18Z</time>
  <course>251.63</course>
  <speed>0.022360679774997897</speed>
  <fix>3d</fix>
</trkpt>
<trkpt lat="40.071376" lon="-105.2297844">
  <ele>1583.0</ele>
  <time>2026-08-28T17:55:18Z</time>
  <course>69.76</course>
  <speed>0.0</speed>
  <fix>3d</fix>
</trkpt>
<trkpt lat="40.0713762" lon="-105.2297843">
  <ele>1583.02</ele>
  <time>2026-08-28T17:55:18Z</time>
  <course>251.63</course>
  <speed>0.022360679774997897</speed>
  <fix>3d</fix>
</trkpt>
<trkpt lat="40.071376" lon="-105.2297844">
  <ele>1583.0</ele>
  <time>2026-08-28T17:55:18Z</time>
  <course>69.67</course>
  <speed>0.0</speed>
  <fix>3d</fix>
</trkpt>
<trkpt lat="40.0713762" lon="-105.2297843">
  <ele>1583.03</ele>
  <time>2026-08-28T17:55:18Z</time>
  <course>251.63</course>
  <speed>0.022360679774997897</speed>
  <fix>3d</fix>
</trkpt>
<trkpt lat="40.071376" lon="-105.2297844">
  <ele>1583.0</ele>
  <time>2026-08-28T17:55:18Z</time>
  <course>69.67</course>
  <speed>0.0</speed>
  <fix>3d</fix>
</trkpt>
<trkpt lat="40.0713762" lon="-105.2297843">
  <ele>1583.03</ele>
  <time>2026-08-28T17:55:18Z</time>
  <course>251.63</course>
  <speed>0.022360679774997897</speed>
  <fix>3d</fix>
</trkpt>
<trkpt lat="40.071376" lon="-105.2297844">
  <ele>1583.0</ele>
  <time>2026-08-28T17:55:18Z</time>
  <course>69.67</course>
  <speed>0.0</speed>
  <fix>3d</fix>
</trkpt>
<trkpt lat="40.0713762" lon="-105.2297843">
  <ele>1583.03</ele>
  <time>2026-08-28T17:55:18Z</time>
  <course>251.63</course>
  <speed>0.022360679774997897</speed>
  <fix>3d</fix>
</trkpt>
<trkpt lat="40.071376" lon="-105.2297844">
  <ele>1583.0</ele>
  <time>2026-08-28T17:55:18Z</time>
  <course>69.56</course>
  <speed>0.0</speed>
  <fix>3d</fix>
</trkpt>
<trkpt lat="40.0713762" lon="-105.2297843">
  <ele>1583.04</ele>
  <time>2026-08-28T17:55:18Z</time>
  <course>251.63</course>
  <speed>0.022360679774997897</speed>
  <fix>3d</fix>
</trkpt>
<trkpt lat="40.071376" lon="-105.2297844">
  <ele>1583.0</ele>
  <time>2026-08-28T17:55:18Z</time>
  <course>69.56</course>
  <speed>0.0</speed>
  <fix>3d</fix>
</trkpt>
<trkpt lat="40.0713762" lon="-105.2297843">
  <ele>1583.04</ele>
  <time>2026-08-28T17:55:18Z</time>
  <course>251.63</course>
  <speed>0.022360679774997897</speed>
  <fix>3d</fix>
</trkpt>
<trkpt lat="40.071376" lon="-105.2297844">
  <ele>1583.0</ele>
  <time>2026-08-28T17:55:18Z</time>
  <course>69.44</course>
  <speed>0.0</speed>
  <fix>3d</fix>
</trkpt>
<trkpt lat="40.0713762" lon="-105.2297843">
  <ele>1583.04</ele>
  <time>2026-08-28T17:55:18Z</time>
  <course>251.63</course>
  <speed>0.022360679774997897</speed>
  <fix>3d</fix>
</trkpt>
<trkpt lat="40.071376" lon="-105.2297844">
  <ele>1583.0</ele>
  <time>2026-08-28T17:55:18Z</time>
  <course>69.44</course>
  <speed>0.0</speed>
  <fix>3d</fix>
</trkpt>
<trkpt lat="40.0713762" lon="-105.2297843">
  <ele>1583.04</ele>
  <time>2026-08-28T17:55:18Z</time>
  <course>251.63</course>
  <speed>0.022360679774997897</speed>
  <fix>3d</fix>
</trkpt>
<trkpt lat="40.071376" lon="-105.2297844">
  <ele>1583.0</ele>
  <time>2026-08-28T17:55:18Z</time>
  <course>69.32</course>
  <speed>0.0</speed>
  <fix>3d</fix>
</trkpt>
<trkpt lat="40.0713762" lon="-105.2297843">
  <ele>1583.04</ele>
  <time>2026-08-28T17:55:18Z</time>
  <course>251.63</course>
  <speed>0.022360679774997897</speed>
  <fix>3d</fix>
</trkpt>
<trkpt lat="40.071376" lon="-105.2297844">
  <ele>1583.0</ele>
  <time>2026-08-28T17:55:18Z</time>
  <course>69.32</course>
  <speed>0.0</speed>
  <fix>3d</fix>
</trkpt>
<trkpt lat="40.0713762" lon="-105.2297843">
  <ele>1583.04</ele>
  <time>2026-08-28T17:55:18Z</time>
  <course>251.63</course>
  <speed>0.022360679774997897</speed>
  <fix>3d</fix>
</trkpt>
<trkpt lat="40.071376" lon="-105.2297844">
  <ele>1583.0</ele>
  <time>2026-08-28T17:55:18Z</time>
  <course>69.17</course>
  <speed>0.0</speed>
  <fix>3d</fix>
</trkpt>
<trkpt lat="40.0713762" lon="-105.2297843">
  <ele>1583.04</ele>
  <time>2026-08-28T17:55:18Z</time>
  <course>251.63</course>
  <speed>0.022360679774997897</speed>
  <fix>3d</fix>
</trkpt>
<trkpt lat="40.071376" lon="-105.2297844">
  <ele>1583.0</ele>
  <time>2026-08-28T17:55:18Z</time>
  <course>69.01</course>
  <speed>0.0</speed>
  <fix>3d</fix>
</trkpt>
<trkpt lat="40.0713762" lon="-105.2297843">
  <ele>1583.04</ele>
  <time>2026-08-28T17:55:18Z</time>
  <course>251.63</course>
  <speed>0.022360679774997897</speed>
  <fix>3d</fix>
</trkpt>
<trkpt lat="40.071376" lon="-105.2297844">
  <ele>1583.0</ele>
  <time>2026-08-28T17:55:18Z</time>
  <course>69.01</course>
  <speed>0.0</speed>
  <fix>3d</fix>
</trkpt>
<trkpt lat="40.0713762" lon="-105.2297843">
  <ele>1583.04</ele>
  <time>2026-08-28T17:55:18Z</time>
  <course>251.63</course>
  <speed>0.022360679774997897</speed>
  <fix>3d</fix>
</trkpt>
<trkpt lat="40.071376" lon="-105.2297844">
  <ele>1583.0</ele>
  <time>2026-08-28T17:55:18Z</time>
  <course>68.84</course>
  <speed>0.0</speed>
  <fix>3d</fix>
</trkpt>
<trkpt lat="40.0713762" lon="-105.2297843">
  <ele>1583.05</ele>
  <time>2026-08-28T17:55:18Z</time>
  <course>251.63</course>
  <speed>0.022360679774997897</speed>
  <fix>3d</fix>
</trkpt>
<trkpt lat="40.071376" lon="-105.2297844">
  <ele>1583.0</ele>
  <time>2026-08-28T17:55:18Z</time>
  <course>68.84</course>
  <speed>0.0</speed>
  <fix>3d</fix>
</trkpt>
<trkpt lat="40.0713762" lon="-105.2297843">
  <ele>1583.05</ele>
  <time>2026-08-28T17:55:18Z</time>
  <course>251.63</course>
  <speed>0.022360679774997897</speed>
  <fix>3d</fix>
</trkpt>
<trkpt lat="40.071376" lon="-105.2297844">
  <ele>1583.0</ele>
  <time>2026-08-28T17:55:18Z</time>
  <course>68.65</course>
  <speed>0.0</speed>
  <fix>3d</fix>
</trkpt>
<trkpt lat="40.0713762" lon="-105.2297843">
  <ele>1583.05</ele>
  <time>2026-08-28T17:55:18Z</time>
  <course>251.63</course>
  <speed>0.022360679774997897</speed>
  <fix>3d</fix>
</trkpt>
<trkpt lat="40.071376" lon="-105.2297844">
  <ele>1583.0</ele>
  <time>2026-08-28T17:55:18Z</time>
  <course>68.65</course>
  <speed>0.0</speed>
  <fix>3d</fix>
</trkpt>
<trkpt lat="40.0713762" lon="-105.2297843">
  <ele>1583.06</ele>
  <time>2026-08-28T17:55:18Z</time>
  <course>251.63</course>
  <speed>0.022360679774997897</speed>
  <fix>3d</fix>
</trkpt>
<trkpt lat="40.071376" lon="-105.2297844">
  <ele>1583.0</ele>
  <time>2026-08-28T17:55:18Z</time>
  <course>68.43</course>
  <speed>0.0</speed>
  <fix>3d</fix>
</trkpt>
<trkpt lat="40.0713762" lon="-105.2297843">
  <ele>1583.06</ele>
  <time>2026-08-28T17:55:18Z</time>
  <course>251.63</course>
  <speed>0.022360679774997897</speed>
  <fix>3d</fix>
</trkpt>
<trkpt lat="40.071376" lon="-105.2297844">
  <ele>1583.0</ele>
  <time>2026-08-28T17:55:18Z</time>
  <course>68.43</course>
  <speed>0.0</speed>
  <fix>3d</fix>
</trkpt>
<trkpt lat="40.0713762" lon="-105.2297843">
  <ele>1583.07</ele>
  <time>2026-08-28T17:55:18Z</time>
  <course>251.63</course>
  <speed>0.022360679774997897</speed>
  <fix>3d</fix>
</trkpt>
<trkpt lat="40.071376" lon="-105.2297844">
  <ele>1583.0</ele>
  <time>2026-08-28T17:55:18Z</time>
  <course>68.2</course>
  <speed>0.0</speed>
  <fix>3d</fix>
</trkpt>
<trkpt lat="40.0713762" lon="-105.2297843">
  <ele>1583.07</ele>
  <time>2026-08-28T17:55:18Z</time>
  <course>251.63</course>
  <speed>0.022360679774997897</speed>
  <fix>3d</fix>
</trkpt>
<trkpt lat="40.071376" lon="-105.2297844">
  <ele>1583.0</ele>
  <time>2026-08-28T17:55:18Z</time>
  <course>68.2</course>
  <speed>0.0</speed>
  <fix>3d</fix>
</trkpt>
<trkpt lat="40.0713762" lon="-105.2297843">
  <ele>1583.08</ele>
  <time>2026-08-28T17:55:18Z</time>
  <course>251.63</course>
  <speed>0.022360679774997897</speed>
  <fix>3d</fix>
</trkpt>
<trkpt lat="40.071376" lon="-105.2297844">
  <ele>1583.0</ele>
  <time>2026-08-28T17:55:18Z</time>
  <course>67.94</course>
  <speed>0.0</speed>
  <fix>3d</fix>
</trkpt>
<trkpt lat="40.0713762" lon="-105.2297843">
  <ele>1583.09</ele>
  <time>2026-08-28T17:55:18Z</time>
  <course>251.63</course>
  <speed>0.022360679774997897</speed>
  <fix>3d</fix>
</trkpt>
<trkpt lat="40.071376" lon="-105.2297844">
  <ele>1583.0</ele>
  <time>2026-08-28T17:55:18Z</time>
  <course>67.94</course>
  <speed>0.0</speed>
  <fix>3d</fix>
</trkpt>
<trkpt lat="40.0713762" lon="-105.2297843">
  <ele>1583.09</ele>
  <time>2026-08-28T17:55:18Z</time>
  <course>251.63</course>
  <speed>0.022360679774997897</speed>
  <fix>3d</fix>
</trkpt>
<trkpt lat="40.071376" lon="-105.2297844">
  <ele>1583.0</ele>
  <time>2026-08-28T17:55:18Z</time>
  <course>67.94</course>
  <speed>0.0</speed>
  <fix>3d</fix>
</trkpt>
<trkpt lat="40.0713762" lon="-105.2297843">
  <ele>1583.1</ele>
  <time>2026-08-28T17:55:18Z</time>
  <course>251.63</course>
  <speed>0.022360679774997897</speed>
  <fix>3d</fix>
</trkpt>
<trkpt lat="40.071376" lon="-105.2297844">
  <ele>1583.0</ele>
  <time>2026-08-28T17:55:18Z</time>
  <course>67.65</course>
  <speed>0.0</speed>
  <fix>3d</fix>
</trkpt>
<trkpt lat="40.0713762" lon="-105.2297843">
  <ele>1583.11</ele>
  <time>2026-08-28T17:55:18Z</time>
  <course>251.64</course>
  <speed>0.022360679774997897</speed>
  <fix>3d</fix>
</trkpt>
<trkpt lat="40.071376" lon="-105.2297844">
  <ele>1583.0</ele>
  <time>2026-08-28T17:55:18Z</time>
  <course>67.65</course>
  <speed>0.0</speed>
  <fix>3d</fix>
</trkpt>
<trkpt lat="40.0713762" lon="-105.2297843">
  <ele>1583.11</ele>
  <time>2026-08-28T17:55:18Z</time>
  <course>251.64</course>
  <speed>0.022360679774997897</speed>
  <fix>3d</fix>
</trkpt>
<trkpt lat="40.071376" lon="-105.2297844">
  <ele>1583.0</ele>
  <time>2026-08-28T17:55:18Z</time>
  <course>67.33</course>
  <speed>0.0</speed>
  <fix>3d</fix>
</trkpt>
<trkpt lat="40.0713762" lon="-105.2297843">
  <ele>1583.12</ele>
  <time>2026-08-28T17:55:18Z</time>
  <course>251.64</course>
  <speed>0.15297058540778355</speed>
  <fix>3d</fix>
</trkpt>
<trkpt lat="40.071376" lon="-105.2297844">
  <ele>1583.0</ele>
  <time>2026-08-28T17:55:18Z</time>
  <course>67.33</course>
  <speed>0.0</speed>
  <fix>3d</fix>
</trkpt>
<trkpt lat="40.0713761" lon="-105.2297847">
  <ele>1583.12</ele>
  <time>2026-08-28T17:55:18Z</time>
  <course>251.64</course>
  <speed>0.3736308338453881</speed>
  <fix>3d</fix>
</trkpt>
<trkpt lat="40.071376" lon="-105.2297844">
  <ele>1583.0</ele>
  <time>2026-08-28T17:55:18Z</time>
  <course>250.68</course>
  <speed>0.08</speed>
  <fix>3d</fix>
</trkpt>
<trkpt lat="40.071376" lon="-105.2297853">
  <ele>1583.12</ele>
  <time>2026-08-28T17:55:19Z</time>
  <course>251.64</course>
  <speed>0.6896375859826667</speed>
  <fix>3d</fix>
</trkpt>
<trkpt lat="40.071376" lon="-105.2297844">
  <ele>1583.0</ele>
  <time>2026-08-28T17:55:19Z</time>
  <course>250.68</course>
  <speed>0.08</speed>
  <fix>3d</fix>
</trkpt>
<trkpt lat="40.0713757" lon="-105.2297864">
  <ele>1583.12</ele>
  <time>2026-08-28T17:55:19Z</time>
  <course>251.64</course>
  <speed>1.0881176406988355</speed>
  <fix>3d</fix>
</trkpt>
<trkpt lat="40.071376" lon="-105.2297849">
  <ele>1583.0</ele>
  <time>2026-08-28T17:55:19Z</time>
  <course>250.68</course>
  <speed>0.44</speed>
  <fix>3d</fix>
</trkpt>
<trkpt lat="40.0713753" lon="-105.2297879">
  <ele>1583.12</ele>
  <time>2026-08-28T17:55:19Z</time>
  <course>251.64</course>
  <speed>1.56236999459155</speed>
  <fix>3d</fix>
</trkpt>
<trkpt lat="40.0713755" lon="-105.2297866">
  <ele>1583.0</ele>
  <time>2026-08-28T17:55:19Z</time>
  <course>250.68</course>
  <speed>1.14</speed>
  <fix>3d</fix>
</trkpt>
<trkpt lat="40.0713748" lon="-105.2297901">
  <ele>1583.12</ele>
  <time>2026-08-28T17:55:19Z</time>
  <course>251.63</course>
  <speed>2.1220037700249264</speed>
  <fix>3d</fix>
</trkpt>
<trkpt lat="40.0713755" lon="-105.2297866">
  <ele>1583.0</ele>
  <time>2026-08-28T17:55:19Z</time>
  <course>250.68</course>
  <speed>1.14</speed>
  <fix>3d</fix>
</trkpt>
<trkpt lat="40.0713741" lon="-105.2297928">
  <ele>1583.12</ele>
  <time>2026-08-28T17:55:19Z</time>
  <course>251.63</course>
  <speed>2.74184244623939</speed>
  <fix>3d</fix>
</trkpt>
<trkpt lat="40.0713745" lon="-105.2297902">
  <ele>1583.0</ele>
  <time>2026-08-28T17:55:19Z</time>
  <course>250.68</course>
  <speed>2.16</speed>
  <fix>3d</fix>
</trkpt>
<trkpt lat="40.0713731" lon="-105.2297965">
  <ele>1583.12</ele>
  <time>2026-08-28T17:55:19Z</time>
  <course>251.62</course>
  <speed>3.4406104109590787</speed>
  <fix>3d</fix>
</trkpt>
<trkpt lat="40.0713745" lon="-105.2297902">
  <ele>1583.0</ele>
  <time>2026-08-28T17:55:19Z</time>
  <course>250.68</course>
  <speed>2.16</speed>
  <fix>3d</fix>
</trkpt>
<trkpt lat="40.071372" lon="-105.2298008">
  <ele>1583.12</ele>
  <time>2026-08-28T17:55:19Z</time>
  <course>251.62</course>
  <speed>4.199547594682075</speed>
  <fix>3d</fix>
</trkpt>
<trkpt lat="40.0713729" lon="-105.2297964">
  <ele>1583.0</ele>
  <time>2026-08-28T17:55:19Z</time>
  <course>250.68</course>
  <speed>3.46</speed>
  <fix>3d</fix>
</trkpt>
<trkpt lat="40.0713706" lon="-105.2298062">
  <ele>1583.12</ele>
  <time>2026-08-28T17:55:19Z</time>
  <course>251.6</course>
  <speed>4.980612412143711</speed>
  <fix>3d</fix>
</trkpt>
<trkpt lat="40.0713729" lon="-105.2297964">
  <ele>1583.0</ele>
  <time>2026-08-28T17:55:19Z</time>
  <course>250.68</course>
  <speed>3.46</speed>
  <fix>3d</fix>
</trkpt>
<trkpt lat="40.071369" lon="-105.2298123">
  <ele>1583.12</ele>
  <time>2026-08-28T17:55:19Z</time>
  <course>251.58</course>
  <speed>5.726927623080285</speed>
  <fix>3d</fix>
</trkpt>
<trkpt lat="40.0713704" lon="-105.2298058">
  <ele>1583.0</ele>
  <time>2026-08-28T17:55:19Z</time>
  <course>250.68</course>
  <speed>4.93</speed>
  <fix>3d</fix>
</trkpt>
<trkpt lat="40.0713672" lon="-105.2298194">
  <ele>1583.12</ele>
  <time>2026-08-28T17:55:19Z</time>
  <course>251.55</course>
  <speed>6.447891128113128</speed>
  <fix>3d</fix>
</trkpt>
<trkpt lat="40.0713704" lon="-105.2298058">
  <ele>1583.0</ele>
  <time>2026-08-28T17:55:19Z</time>
  <course>250.68</course>
  <speed>4.93</speed>
  <fix>3d</fix>
</trkpt>
<trkpt lat="40.0713652" lon="-105.2298271">
  <ele>1583.12</ele>
  <time>2026-08-28T17:55:19Z</time>
  <course>251.52</course>
  <speed>7.12461227015197</speed>
  <fix>3d</fix>
</trkpt>
<trkpt lat="40.071367" lon="-105.2298183">
  <ele>1583.0</ele>
  <time>2026-08-28T17:55:19Z</time>
  <course>250.68</course>
  <speed>6.37</speed>
  <fix>3d</fix>
</trkpt>
<trkpt lat="40.0713629" lon="-105.2298357">
  <ele>1583.12</ele>
  <time>2026-08-28T17:55:19Z</time>
  <course>251.48</course>
  <speed>7.769716854557829</speed>
  <fix>3d</fix>
</trkpt>
<trkpt lat="40.071367" lon="-105.2298183">
  <ele>1583.0</ele>
  <time>2026-08-28T17:55:19Z</time>
  <course>250.68</course>
  <speed>6.37</speed>
  <fix>3d</fix>
</trkpt>
<trkpt lat="40.0713605" lon="-105.2298448">
  <ele>1583.13</ele>
  <time>2026-08-28T17:55:19Z</time>
  <course>251.43</course>
  <speed>8.3832034449845</speed>
  <fix>3d</fix>
</trkpt>
<trkpt lat="40.0713628" lon="-105.2298339">
  <ele>1583.0</ele>
  <time>2026-08-28T17:55:19Z</time>
  <course>250.68</course>
  <speed>7.66</speed>
  <fix>3d</fix>
</trkpt>
<trkpt lat="40.0713579" lon="-105.2298547">
  <ele>1583.13</ele>
  <time>2026-08-28T17:55:19Z</time>
  <course>251.38</course>
  <speed>8.968255125719828</speed>
  <fix>3d</fix>
</trkpt>
<trkpt lat="40.0713628" lon="-105.2298339">
  <ele>1583.0</ele>
  <time>2026-08-28T17:55:19Z</time>
  <course>250.68</course>
  <speed>7.66</speed>
  <fix>3d</fix>
</trkpt>
<trkpt lat="40.0713551" lon="-105.2298651">
  <ele>1583.13</ele>
  <time>2026-08-28T17:55:19Z</time>
  <course>251.34</course>
  <speed>9.527985096545859</speed>
  <fix>3d</fix>
</trkpt>
<trkpt lat="40.0713579" lon="-105.2298522">
  <ele>1583.0</ele>
  <time>2026-08-28T17:55:19Z</time>
  <course>250.68</course>
  <speed>8.84</speed>
  <fix>3d</fix>
</trkpt>
<trkpt lat="40.0713521" lon="-105.2298762">
  <ele>1583.13</ele>
  <time>2026-08-28T17:55:19Z</time>
  <course>251.28</course>
  <speed>10.053024420541313</speed>
  <fix>3d</fix>
</trkpt>
<trkpt lat="40.0713579" lon="-105.2298522">
  <ele>1583.0</ele>
  <time>2026-08-28T17:55:19Z</time>
  <course>250.68</course>
  <speed>8.84</speed>
  <fix>3d</fix>
</trkpt>
<trkpt lat="40.071349" lon="-105.2298878">
  <ele>1583.13</ele>
  <time>2026-08-28T17:55:19Z</time>
  <course>251.24</course>
  <speed>10.562196741208716</speed>
  <fix>3d</fix>
</trkpt>
<trkpt lat="40.0713579" lon="-105.2298522">
  <ele>1583.0</ele>
  <time>2026-08-28T17:55:19Z</time>
  <course>250.68</course>
  <speed>8.84</speed>
  <fix>3d</fix>
</trkpt>
<trkpt lat="40.0713458" lon="-105.2298998">
  <ele>1583.13</ele>
  <time>2026-08-28T17:55:19Z</time>
  <course>251.2</course>
  <speed>11.03028558107178</speed>
  <fix>3d</fix>
</trkpt>
<trkpt lat="40.0713523" lon="-105.229873">
  <ele>1583.0</ele>
  <time>2026-08-28T17:55:19Z</time>
  <course>250.68</course>
  <speed>9.9</speed>
  <fix>3d</fix>
</trkpt>
<trkpt lat="40.0713424" lon="-105.2299123">
  <ele>1583.13</ele>
  <time>2026-08-28T17:55:19Z</time>
  <course>251.16</course>
  <speed>11.476223246347207</speed>
  <fix>3d</fix>
</trkpt>
<trkpt lat="40.0713523" lon="-105.229873">
  <ele>1583.0</ele>
  <time>2026-08-28T17:55:19Z</time>
  <course>250.68</course>
  <speed>9.9</speed>
  <fix>3d</fix>
</trkpt>
<trkpt lat="40.0713389" lon="-105.2299252">
  <ele>1583.13</ele>
  <time>2026-08-28T17:55:19Z</time>
  <course>251.12</course>
  <speed>11.903243255516541</speed>
  <fix>3d</fix>
</trkpt>
<trkpt lat="40.0713461" lon="-105.2298961">
  <ele>1583.0</ele>
  <time>2026-08-28T17:55:19Z</time>
  <course>250.68</course>
  <speed>10.86</speed>
  <fix>3d</fix>
</trkpt>
<trkpt lat="40.0713353" lon="-105.2299385">
  <ele>1583.12</ele>
  <time>2026-08-28T17:55:19Z</time>
  <course>251.09</course>
  <speed>12.308111146719469</speed>
  <fix>3d</fix>
</trkpt>
<trkpt lat="40.0713461" lon="-105.2298961">
  <ele>1583.0</ele>
  <time>2026-08-28T17:55:19Z</time>
  <course>250.68</course>
  <speed>10.86</speed>
  <fix>3d</fix>
</trkpt>
<trkpt lat="40.0713316" lon="-105.2299522">
  <ele>1583.12</ele>
  <time>2026-08-28T17:55:19Z</time>
  <course>251.06</course>
  <speed>12.690819516485135</speed>
  <fix>3d</fix>
</trkpt>
<trkpt lat="40.0713394" lon="-105.2299211">
  <ele>1583.0</ele>
  <time>2026-08-28T17:55:19Z</time>
  <course>250.68</course>
  <speed>11.73</speed>
  <fix>3d</fix>
</trkpt>
<trkpt lat="40.0713278" lon="-105.2299665">
  <ele>1583.12</ele>
  <time>2026-08-28T17:55:19Z</time>
  <course>251.03</course>
  <speed>13.054623701968588</speed>
  <fix>3d</fix>
</trkpt>
<trkpt lat="40.0713322" lon="-105.2299481">
  <ele>1583.0</ele>
  <time>2026-08-28T17:55:19Z</time>
  <course>250.68</course>
  <speed>12.52</speed>
  <fix>3d</fix>
</trkpt>
<trkpt lat="40.0713238" lon="-105.2299812">
  <ele>1583.12</ele>
  <time>2026-08-28T17:55:19Z</time>
  <course>251.0</course>
  <speed>13.405718928875094</speed>
  <fix>3d</fix>
</trkpt>
<trkpt lat="40.0713322" lon="-105.2299481">
  <ele>1583.0</ele>
  <time>2026-08-28T17:55:19Z</time>
  <course>250.68</course>
  <speed>12.52</speed>
  <fix>3d</fix>
</trkpt>
<trkpt lat="40.0713197" lon="-105.2299962">
  <ele>1583.12</ele>
  <time>2026-08-28T17:55:19Z</time>
  <course>250.98</course>
  <speed>13.734645972867302</speed>
  <fix>3d</fix>
</trkpt>
<trkpt lat="40.0713245" lon="-105.2299766">
  <ele>1583.0</ele>
  <time>2026-08-28T17:55:19Z</time>
  <course>250.68</course>
  <speed>13.23</speed>
  <fix>3d</fix>
</trkpt>
<trkpt lat="40.0713156" lon="-105.2300115">
  <ele>1583.11</ele>
  <time>2026-08-28T17:55:19Z</time>
  <course>250.96</course>
  <speed>14.054123949930142</speed>
  <fix>3d</fix>
</trkpt>
<trkpt lat="40.0713245" lon="-105.2299766">
  <ele>1583.0</ele>
  <time>2026-08-28T17:55:19Z</time>
  <course>250.68</course>
  <speed>13.23</speed>
  <fix>3d</fix>
</trkpt>
<trkpt lat="40.0713113" lon="-105.2300273">
  <ele>1583.11</ele>
  <time>2026-08-28T17:55:19Z</time>
  <course>250.95</course>
  <speed>14.351431984300381</speed>
  <fix>3d</fix>
</trkpt>
<trkpt lat="40.0713165" lon="-105.2300066">
  <ele>1583.0</ele>
  <time>2026-08-28T17:55:19Z</time>
  <course>250.68</course>
  <speed>13.87</speed>
  <fix>3d</fix>
</trkpt>
<trkpt lat="40.071307" lon="-105.2300434">
  <ele>1583.11</ele>
  <time>2026-08-28T17:55:19Z</time>
  <course>250.93</course>
  <speed>14.639293015716298</speed>
  <fix>3d</fix>
</trkpt>
<trkpt lat="40.0713165" lon="-105.2300066">
  <ele>1583.0</ele>
  <time>2026-08-28T17:55:19Z</time>
  <course>250.68</course>
  <speed>13.87</speed>
  <fix>3d</fix>
</trkpt>
<trkpt lat="40.0713025" lon="-105.2300599">
  <ele>1583.11</ele>
  <time>2026-08-28T17:55:19Z</time>
  <course>250.92</course>
  <speed>14.917710950410589</speed>
  <fix>3d</fix>
</trkpt>
<trkpt lat="40.071308" lon="-105.230038">
  <ele>1583.0</ele>
  <time>2026-08-28T17:55:19Z</time>
  <course>250.68</course>
  <speed>14.45</speed>
  <fix>3d</fix>
</trkpt>
<trkpt lat="40.071298" lon="-105.2300767">
  <ele>1583.11</ele>
  <time>2026-08-28T17:55:19Z</time>
  <course>250.9</course>
  <speed>15.1834021220542</speed>
  <fix>3d</fix>
</trkpt>
<trkpt lat="40.071308" lon="-105.230038">
  <ele>1583.0</ele>
  <time>2026-08-28T17:55:19Z</time>
  <course>250.68</course>
  <speed>14.45</speed>
  <fix>3d</fix>
</trkpt>
<trkpt lat="40.0712934" lon="-105.2300937">
  <ele>1583.1</ele>
  <time>2026-08-28T17:55:19Z</time>
  <course>250.89</course>
  <speed>15.426918033100456</speed>
  <fix>3d</fix>
</trkpt>
<trkpt lat="40.0712993" lon="-105.2300707">
  <ele>1583.0</ele>
  <time>2026-08-28T17:55:19Z</time>
  <course>250.68</course>
  <speed>14.98</speed>
  <fix>3d</fix>
</trkpt>
<trkpt lat="40.0712887" lon="-105.230111">
  <ele>1583.1</ele>
  <time>2026-08-28T17:55:19Z</time>
  <course>250.88</course>
  <speed>15.66098975160893</speed>
  <fix>3d</fix>
</trkpt>
<trkpt lat="40.0712993" lon="-105.2300707">
  <ele>1583.0</ele>
  <time>2026-08-28T17:55:19Z</time>
  <course>250.68</course>
  <speed>14.98</speed>
  <fix>3d</fix>
</trkpt>
<trkpt lat="40.071284" lon="-105.2301285">
  <ele>1583.1</ele>
  <time>2026-08-28T17:55:19Z</time>
  <course>250.88</course>
  <speed>15.885619282860835</speed>
  <fix>3d</fix>
</trkpt>
<trkpt lat="40.0712903" lon="-105.2301043">
  <ele>1583.0</ele>
  <time>2026-08-28T17:55:19Z</time>
  <course>250.68</course>
  <speed>15.46</speed>
  <fix>3d</fix>
</trkpt>
<trkpt lat="40.0712793" lon="-105.2301462">
  <ele>1583.1</ele>
  <time>2026-08-28T17:55:19Z</time>
  <course>250.87</course>
  <speed>16.09751533622503</speed>
  <fix>3d</fix>
</trkpt>
<trkpt lat="40.0712903" lon="-105.2301043">
  <ele>1583.0</ele>
  <time>2026-08-28T17:55:19Z</time>
  <course>250.68</course>
  <speed>15.46</speed>
  <fix>3d</fix>
</trkpt>
<trkpt lat="40.0712745" lon="-105.2301641">
  <ele>1583.1</ele>
  <time>2026-08-28T17:55:19Z</time>
  <course>250.86</course>
  <speed>16.29996932512451</speed>
  <fix>3d</fix>
</trkpt>
<trkpt lat="40.071281" lon="-105.2301391">
  <ele>1583.0</ele>
  <time>2026-08-28T17:55:19Z</time>
  <course>250.68</course>
  <speed>15.89</speed>
  <fix>3d</fix>
</trkpt>
<trkpt lat="40.0712696" lon="-105.2301823">
  <ele>1583.09</ele>
  <time>2026-08-28T17:55:19Z</time>
  <course>250.86</course>
  <speed>16.489687686551253</speed>
  <fix>3d</fix>
</trkpt>
<trkpt lat="40.071281" lon="-105.2301391">
  <ele>1583.0</ele>
  <time>2026-08-28T17:55:19Z</time>
  <course>250.68</course>
  <speed>15.89</speed>
  <fix>3d</fix>
</trkpt>
<trkpt lat="40.0712647" lon="-105.2302006">
  <ele>1583.09</ele>
  <time>2026-08-28T17:55:19Z</time>
  <course>250.85</course>
  <speed>16.669964007159702</speed>
  <fix>3d</fix>
</trkpt>
<trkpt lat="40.071281" lon="-105.2301391">
  <ele>1583.0</ele>
  <time>2026-08-28T17:55:19Z</time>
  <course>250.68</course>
  <speed>15.89</speed>
  <fix>3d</fix>
</trkpt>
<trkpt lat="40.0712597" lon="-105.230219">
  <ele>1583.1</ele>
  <time>2026-08-28T17:55:19Z</time>
  <course>250.85</course>
  <speed>16.83135763983405</speed>
  <fix>3d</fix>
</trkpt>
<trkpt lat="40.0712714" lon="-105.2301748">
  <ele>1583.0</ele>
  <time>2026-08-28T17:55:19Z</time>
  <course>250.68</course>
  <speed>16.28</speed>
  <fix>3d</fix>
</trkpt>
<trkpt lat="40.0712548" lon="-105.2302375">
  <ele>1583.1</ele>
  <time>2026-08-28T17:55:19Z</time>
  <course>250.85</course>
  <speed>16.98945555337192</speed>
  <fix>3d</fix>
</trkpt>
<trkpt lat="40.0712714" lon="-105.2301748">
  <ele>1583.0</ele>
  <time>2026-08-28T17:55:19Z</time>
  <course>250.68</course>
  <speed>16.28</speed>
  <fix>3d</fix>
</trkpt>
<trkpt lat="40.0712498" lon="-105.2302561">
  <ele>1583.1</ele>
  <time>2026-08-28T17:55:19Z</time>
  <course>250.85</course>
  <speed>17.128671869120502</speed>
  <fix>3d</fix>
</trkpt>
<trkpt lat="40.0712616" lon="-105.2302114">
  <ele>1583.0</ele>
  <time>2026-08-28T17:55:19Z</time>
  <course>250.68</course>
  <speed>16.64</speed>
  <fix>3d</fix>
</trkpt>
<trkpt lat="40.0712447" lon="-105.2302749">
  <ele>1583.1</ele>
  <time>2026-08-28T17:55:20Z</time>
  <course>250.85</course>
  <speed>17.264590930572318</speed>
  <fix>3d</fix>
</trkpt>
<trkpt lat="40.0712616" lon="-105.2302114">
  <ele>1583.0</ele>
  <time>2026-08-28T17:55:20Z</time>
  <course>250.68</course>
  <speed>16.64</speed>
  <fix>3d</fix>
</trkpt>
<trkpt lat="40.0712397" lon="-105.2302937">
  <ele>1583.1</ele>
  <time>2026-08-28T17:55:20Z</time>
  <course>250.84</course>
  <speed>17.39106954732802</speed>
  <fix>3d</fix>
</trkpt>
<trkpt lat="40.0712516" lon="-105.2302485">
  <ele>1583.0</ele>
  <time>2026-08-28T17:55:20Z</time>
  <course>250.68</course>
  <speed>16.96</speed>
  <fix>3d</fix>
</trkpt>
<trkpt lat="40.0712346" lon="-105.2303128">
  <ele>1583.1</ele>
  <time>2026-08-28T17:55:20Z</time>
  <course>250.84</course>
  <speed>17.520844728494115</speed>
  <fix>3d</fix>
</trkpt>
<trkpt lat="40.0712516" lon="-105.2302485">
  <ele>1583.0</ele>
  <time>2026-08-28T17:55:20Z</time>
  <course>250.68</course>
  <speed>16.96</speed>
  <fix>3d</fix>
</trkpt>
<trkpt lat="40.0712294" lon="-105.230332">
  <ele>1583.1</ele>
  <time>2026-08-28T17:55:20Z</time>
  <course>250.84</course>
  <speed>17.625143971043187</speed>
  <fix>3d</fix>
</trkpt>
<trkpt lat="40.0712415" lon="-105.2302864">
  <ele>1583.0</ele>
  <time>2026-08-28T17:55:20Z</time>
  <course>250.68</course>
  <speed>17.24</speed>
  <fix>3d</fix>
</trkpt>
<trkpt lat="40.0712242" lon="-105.2303514">
  <ele>1583.1</ele>
  <time>2026-08-28T17:55:20Z</time>
  <course>250.84</course>
  <speed>17.742181376595155</speed>
  <fix>3d</fix>
</trkpt>
<trkpt lat="40.0712311" lon="-105.2303249">
  <ele>1583.0</ele>
  <time>2026-08-28T17:55:20Z</time>
  <course>250.68</course>
  <speed>17.51</speed>
  <fix>3d</fix>
</trkpt>
<trkpt lat="40.0712189" lon="-105.2303709">
  <ele>1583.1</ele>
  <time>2026-08-28T17:55:20Z</time>
  <course>250.84</course>
  <speed>17.849778710112908</speed>
  <fix>3d</fix>
</trkpt>
<trkpt lat="40.0712311" lon="-105.2303249">
  <ele>1583.0</ele>
  <time>2026-08-28T17:55:20Z</time>
  <course>250.68</course>
  <speed>17.51</speed>
  <fix>3d</fix>
</trkpt>
<trkpt lat="40.0712137" lon="-105.2303905">
  <ele>1583.11</ele>
  <time>2026-08-28T17:55:20Z</time>
  <course>250.84</course>
  <speed>17.954077531301905</speed>
  <fix>3d</fix>
</trkpt>
<trkpt lat="40.0712206" lon="-105.230364">
  <ele>1583.0</ele>
  <time>2026-08-28T17:55:20Z</time>
  <course>250.68</course>
  <speed>17.74</speed>
  <fix>3d</fix>
</trkpt>
<trkpt lat="40.0712084" lon="-105.2304104">
  <ele>1583.11</ele>
  <time>2026-08-28T17:55:20Z</time>
  <course>250.84</course>
  <speed>18.052235318652368</speed>
  <fix>3d</fix>
</trkpt>
<trkpt lat="40.0712206" lon="-105.230364">
  <ele>1583.0</ele>
  <time>2026-08-28T17:55:20Z</time>
  <course>250.68</course>
  <speed>17.74</speed>
  <fix>3d</fix>
</trkpt>
<trkpt lat="40.071203" lon="-105.2304304">
  <ele>1583.1</ele>
  <time>2026-08-28T17:55:20Z</time>
  <course>250.84</course>
  <speed>18.147093431180654</speed>
  <fix>3d</fix>
</trkpt>
<trkpt lat="40.07121" lon="-105.2304035">
  <ele>1583.0</ele>
  <time>2026-08-28T17:55:20Z</time>
  <course>250.68</course>
  <speed>17.96</speed>
  <fix>3d</fix>
</trkpt>
<trkpt lat="40.0711976" lon="-105.2304506">
  <ele>1583.1</ele>
  <time>2026-08-28T17:55:20Z</time>
  <course>250.84</course>
  <speed>18.241951649974297</speed>
  <fix>3d</fix>
</trkpt>
<trkpt lat="40.07121" lon="-105.2304035">
  <ele>1583.0</ele>
  <time>2026-08-28T17:55:20Z</time>
  <course>250.68</course>
  <speed>17.96</speed>
  <fix>3d</fix>
</trkpt>
<trkpt lat="40.0711921" lon="-105.2304711">
  <ele>1583.1</ele>
  <time>2026-08-28T17:55:20Z</time>
  <course>250.84</course>
  <speed>18.33680997338414</speed>
  <fix>3d</fix>
</trkpt>
<trkpt lat="40.0711992" lon="-105.2304436">
  <ele>1583.0</ele>
  <time>2026-08-28T17:55:20Z</time>
  <course>250.68</course>
  <speed>18.15</speed>
  <fix>3d</fix>
</trkpt>
<trkpt lat="40.0711866" lon="-105.2304915">
  <ele>1583.1</ele>
  <time>2026-08-28T17:55:20Z</time>
  <course>250.84</course>
  <speed>18.42222842112213</speed>
  <fix>3d</fix>
</trkpt>
<trkpt lat="40.0711992" lon="-105.2304436">
  <ele>1583.0</ele>
  <time>2026-08-28T17:55:20Z</time>
  <course>250.68</course>
  <speed>18.15</speed>
  <fix>3d</fix>
</trkpt>
<trkpt lat="40.0711811" lon="-105.2305119">
  <ele>1583.09</ele>
  <time>2026-08-28T17:55:20Z</time>
  <course>250.85</course>
  <speed>18.50764706817158</speed>
  <fix>3d</fix>
</trkpt>
<trkpt lat="40.0711884" lon="-105.2304839">
  <ele>1583.0</ele>
  <time>2026-08-28T17:55:20Z</time>
  <course>250.68</course>
  <speed>18.33</speed>
  <fix>3d</fix>
</trkpt>
<trkpt lat="40.0711756" lon="-105.2305325">
  <ele>1583.09</ele>
  <time>2026-08-28T17:55:20Z</time>
  <course>250.85</course>
  <speed>18.57088581624474</speed>
  <fix>3d</fix>
</trkpt>
<trkpt lat="40.0711884" lon="-105.2304839">
  <ele>1583.0</ele>
  <time>2026-08-28T17:55:20Z</time>
  <course>250.68</course>
  <speed>18.33</speed>
  <fix>3d</fix>
</trkpt>
<trkpt lat="40.07117" lon="-105.2305531">
  <ele>1583.09</ele>
  <time>2026-08-28T17:55:20Z</time>
  <course>250.85</course>
  <speed>18.53926643640465</speed>
  <fix>3d</fix>
</trkpt>
<trkpt lat="40.0711775" lon="-105.2305247">
  <ele>1583.0</ele>
  <time>2026-08-28T17:55:20Z</time>
  <course>250.68</course>
  <speed>18.43</speed>
  <fix>3d</fix>
</trkpt>
<trkpt lat="40.0711645" lon="-105.2305736">
  <ele>1583.1</ele>
  <time>2026-08-28T17:55:20Z</time>
  <course>250.85</course>
  <speed>18.42222842112213</speed>
  <fix>3d</fix>
</trkpt>
<trkpt lat="40.0711775" lon="-105.2305247">
  <ele>1583.0</ele>
  <time>2026-08-28T17:55:20Z</time>
  <course>250.68</course>
  <speed>18.43</speed>
  <fix>3d</fix>
</trkpt>
<trkpt lat="40.0711591" lon="-105.2305939">
  <ele>1583.1</ele>
  <time>2026-08-28T17:55:20Z</time>
  <course>250.85</course>
  <speed>18.200892835243</speed>
  <fix>3d</fix>
</trkpt>
<trkpt lat="40.0711666" lon="-105.2305655">
  <ele>1583.0</ele>
  <time>2026-08-28T17:55:20Z</time>
  <course>250.68</course>
  <speed>18.29</speed>
  <fix>3d</fix>
</trkpt>
<trkpt lat="40.0711537" lon="-105.2306138">
  <ele>1583.1</ele>
  <time>2026-08-28T17:55:20Z</time>
  <course>250.86</course>
  <speed>17.894138705173827</speed>
  <fix>3d</fix>
</trkpt>
<trkpt lat="40.0711666" lon="-105.2305655">
  <ele>1583.0</ele>
  <time>2026-08-28T17:55:20Z</time>
  <course>250.68</course>
  <speed>18.29</speed>
  <fix>3d</fix>
</trkpt>
<trkpt lat="40.0711485" lon="-105.2306334">
  <ele>1583.1</ele>
  <time>2026-08-28T17:55:20Z</time>
  <course>250.86</course>
  <speed>17.511404855122276</speed>
  <fix>3d</fix>
</trkpt>
<trkpt lat="40.0711666" lon="-105.2305655">
  <ele>1583.0</ele>
  <time>2026-08-28T17:55:20Z</time>
  <course>250.68</course>
  <speed>18.29</speed>
  <fix>3d</fix>
</trkpt>
<trkpt lat="40.0711434" lon="-105.2306523">
  <ele>1583.11</ele>
  <time>2026-08-28T17:55:20Z</time>
  <course>250.86</course>
  <speed>17.037115366164542</speed>
  <fix>3d</fix>
</trkpt>
<trkpt lat="40.0711558" lon="-105.2306055">
  <ele>1583.0</ele>
  <time>2026-08-28T17:55:20Z</time>
  <course>250.68</course>
  <speed>17.78</speed>
  <fix>3d</fix>
</trkpt>
<trkpt lat="40.0711385" lon="-105.2306706">
  <ele>1583.11</ele>
  <time>2026-08-28T17:55:20Z</time>
  <course>250.87</course>
  <speed>16.486846272104316</speed>
  <fix>3d</fix>
</trkpt>
<trkpt lat="40.0711558" lon="-105.2306055">
  <ele>1583.0</ele>
  <time>2026-08-28T17:55:20Z</time>
  <course>250.68</course>
  <speed>17.78</speed>
  <fix>3d</fix>
</trkpt>
<trkpt lat="40.0711338" lon="-105.2306882">
  <ele>1583.12</ele>
  <time>2026-08-28T17:55:20Z</time>
  <course>250.87</course>
  <speed>15.860595827395642</speed>
  <fix>3d</fix>
</trkpt>
<trkpt lat="40.0711455" lon="-105.2306442">
  <ele>1583.0</ele>
  <time>2026-08-28T17:55:20Z</time>
  <course>250.68</course>
  <speed>16.94</speed>
  <fix>3d</fix>
</trkpt>
<trkpt lat="40.0711292" lon="-105.2307051">
  <ele>1583.12</ele>
  <time>2026-08-28T17:55:20Z</time>
  <course>250.87</course>
  <speed>15.161668773588216</speed>
  <fix>3d</fix>
</trkpt>
<trkpt lat="40.0711455" lon="-105.2306442">
  <ele>1583.0</ele>
  <time>2026-08-28T17:55:20Z</time>
  <course>250.68</course>
  <speed>16.94</speed>
  <fix>3d</fix>
</trkpt>
<trkpt lat="40.0711249" lon="-105.2307211">
  <ele>1583.13</ele>
  <time>2026-08-28T17:55:20Z</time>
  <course>250.88</course>
  <speed>14.412248263196133</speed>
  <fix>3d</fix>
</trkpt>
<trkpt lat="40.0711357" lon="-105.2306804">
  <ele>1583.0</ele>
  <time>2026-08-28T17:55:20Z</time>
  <course>250.68</course>
  <speed>15.8</speed>
  <fix>3d</fix>
</trkpt>
<trkpt lat="40.0711208" lon="-105.2307364">
  <ele>1583.13</ele>
  <time>2026-08-28T17:55:20Z</time>
  <course>250.88</course>
  <speed>13.68170311035874</speed>
  <fix>3d</fix>
</trkpt>
<trkpt lat="40.0711268" lon="-105.2307139">
  <ele>1583.0</ele>
  <time>2026-08-28T17:55:20Z</time>
  <course>250.68</course>
  <speed>14.44</speed>
  <fix>3d</fix>
</trkpt>
<trkpt lat="40.0711169" lon="-105.2307509">
  <ele>1583.13</ele>
  <time>2026-08-28T17:55:20Z</time>
  <course>250.88</course>
  <speed>12.992213052440297</speed>
  <fix>3d</fix>
</trkpt>
<trkpt lat="40.0711268" lon="-105.2307139">
  <ele>1583.0</ele>
  <time>2026-08-28T17:55:20Z</time>
  <course>250.68</course>
  <speed>14.44</speed>
  <fix>3d</fix>
</trkpt>
<trkpt lat="40.0711132" lon="-105.2307647">
  <ele>1583.13</ele>
  <time>2026-08-28T17:55:20Z</time>
  <course>250.89</course>
  <speed>12.347088725687524</speed>
  <fix>3d</fix>
</trkpt>
<trkpt lat="40.0711186" lon="-105.2307444">
  <ele>1583.0</ele>
  <time>2026-08-28T17:55:20Z</time>
  <course>250.68</course>
  <speed>13.07</speed>
  <fix>3d</fix>
</trkpt>
<trkpt lat="40.0711097" lon="-105.2307777">
  <ele>1583.13</ele>
  <time>2026-08-28T17:55:20Z</time>
  <course>250.89</course>
  <speed>11.72415028904014</speed>
  <fix>3d</fix>
</trkpt>
<trkpt lat="40.0711186" lon="-105.2307444">
  <ele>1583.0</ele>
  <time>2026-08-28T17:55:20Z</time>
  <course>250.68</course>
  <speed>13.07</speed>
  <fix>3d</fix>
</trkpt>
<trkpt lat="40.0711063" lon="-105.2307902">
  <ele>1583.12</ele>
  <time>2026-08-28T17:55:20Z</time>
  <course>250.89</course>
  <speed>11.138949681186284</speed>
  <fix>3d</fix>
</trkpt>
<trkpt lat="40.0711112" lon="-105.230772">
  <ele>1583.0</ele>
  <time>2026-08-28T17:55:20Z</time>
  <course>250.68</course>
  <speed>11.82</speed>
  <fix>3d</fix>
</trkpt>
<trkpt lat="40.0711031" lon="-105.2308021">
  <ele>1583.12</ele>
  <time>2026-08-28T17:55:20Z</time>
  <course>250.89</course>
  <speed>10.579248555544956</speed>
  <fix>3d</fix>
</trkpt>
<trkpt lat="40.0711112" lon="-105.230772">
  <ele>1583.0</ele>
  <time>2026-08-28T17:55:20Z</time>
  <course>250.68</course>
  <speed>11.82</speed>
  <fix>3d</fix>
</trkpt>
<trkpt lat="40.0711001" lon="-105.2308134">
  <ele>1583.12</ele>
  <time>2026-08-28T17:55:20Z</time>
  <course>250.89</course>
  <speed>10.038416209741454</speed>
  <fix>3d</fix>
</trkpt>
<trkpt lat="40.0711045" lon="-105.2307969">
  <ele>1583.0</ele>
  <time>2026-08-28T17:55:20Z</time>
  <course>250.68</course>
  <speed>10.7</speed>
  <fix>3d</fix>
</trkpt>
<trkpt lat="40.0710972" lon="-105.2308242">
  <ele>1583.12</ele>
  <time>2026-08-28T17:55:20Z</time>
  <course>250.9</course>
  <speed>9.529202484993169</speed>
  <fix>3d</fix>
</trkpt>
<trkpt lat="40.0711045" lon="-105.2307969">
  <ele>1583.0</ele>
  <time>2026-08-28T17:55:20Z</time>
  <course>250.68</course>
  <speed>10.7</speed>
  <fix>3d</fix>
</trkpt>
<trkpt lat="40.0710944" lon="-105.2308344">
  <ele>1583.12</ele>
  <time>2026-08-28T17:55:20Z</time>
  <course>250.9</course>
  <speed>9.042173411298856</speed>
  <fix>3d</fix>
</trkpt>
<trkpt lat="40.0710985" lon="-105.2308194">
  <ele>1583.0</ele>
  <time>2026-08-28T17:55:20Z</time>
  <course>250.68</course>
  <speed>9.68</speed>
  <fix>3d</fix>
</trkpt>
<trkpt lat="40.0710918" lon="-105.230844">
  <ele>1583.12</ele>
  <time>2026-08-28T17:55:20Z</time>
  <course>250.9</course>
  <speed>8.586763068817026</speed>
  <fix>3d</fix>
</trkpt>
<trkpt lat="40.0710985" lon="-105.2308194">
  <ele>1583.0</ele>
  <time>2026-08-28T17:55:20Z</time>
  <course>250.68</course>
  <speed>9.68</speed>
  <fix>3d</fix>
</trkpt>
<trkpt lat="40.0710894" lon="-105.2308533">
  <ele>1583.12</ele>
  <time>2026-08-28T17:55:20Z</time>
  <course>250.9</course>
  <speed>8.153539108877812</speed>
  <fix>3d</fix>
</trkpt>
<trkpt lat="40.071093" lon="-105.2308399">
  <ele>1583.0</ele>
  <time>2026-08-28T17:55:20Z</time>
  <course>250.68</course>
  <speed>8.76</speed>
  <fix>3d</fix>
</trkpt>
<trkpt lat="40.071087" lon="-105.230862">
  <ele>1583.11</ele>
  <time>2026-08-28T17:55:20Z</time>
  <course>250.9</course>
  <speed>7.729747731976769</speed>
  <fix>3d</fix>
</trkpt>
<trkpt lat="40.071093" lon="-105.2308399">
  <ele>1583.0</ele>
  <time>2026-08-28T17:55:20Z</time>
  <course>250.68</course>
  <speed>8.76</speed>
  <fix>3d</fix>
</trkpt>
<trkpt lat="40.0710848" lon="-105.2308703">
  <ele>1583.11</ele>
  <time>2026-08-28T17:55:20Z</time>
  <course>250.9</course>
  <speed>7.337574531137657</speed>
  <fix>3d</fix>
</trkpt>
<trkpt lat="40.071088" lon="-105.2308583">
  <ele>1583.0</ele>
  <time>2026-08-28T17:55:20Z</time>
  <course>250.68</course>
  <speed>7.93</speed>
  <fix>3d</fix>
</trkpt>
<trkpt lat="40.0710827" lon="-105.2308782">
  <ele>1583.12</ele>
  <time>2026-08-28T17:55:20Z</time>
  <course>250.9</course>
  <speed>6.964265934037844</speed>
  <fix>3d</fix>
</trkpt>
<trkpt lat="40.071088" lon="-105.2308583">
  <ele>1583.0</ele>
  <time>2026-08-28T17:55:20Z</time>
  <course>250.68</course>
  <speed>7.93</speed>
  <fix>3d</fix>
</trkpt>
<trkpt lat="40.0710807" lon="-105.2308857">
  <ele>1583.11</ele>
  <time>2026-08-28T17:55:20Z</time>
  <course>250.9</course>
  <speed>6.607034130379531</speed>
  <fix>3d</fix>
</trkpt>
<trkpt lat="40.071088" lon="-105.2308583">
  <ele>1583.0</ele>
  <time>2026-08-28T17:55:20Z</time>
  <course>250.68</course>
  <speed>7.93</speed>
  <fix>3d</fix>
</trkpt>
<trkpt lat="40.0710787" lon="-105.2308927">
  <ele>1583.11</ele>
  <time>2026-08-28T17:55:20Z</time>
  <course>250.9</course>
  <speed>6.265341171875638</speed>
  <fix>3d</fix>
</trkpt>
<trkpt lat="40.0710835" lon="-105.230875">
  <ele>1583.0</ele>
  <time>2026-08-28T17:55:20Z</time>
  <course>250.68</course>
  <speed>7.17</speed>
  <fix>3d</fix>
</trkpt>
<trkpt lat="40.0710769" lon="-105.2308995">
  <ele>1583.11</ele>
  <time>2026-08-28T17:55:21Z</time>
  <course>250.9</course>
  <speed>5.9364046358044025</speed>
  <fix>3d</fix>
</trkpt>
<trkpt lat="40.0710835" lon="-105.230875">
  <ele>1583.0</ele>
  <time>2026-08-28T17:55:21Z</time>
  <course>250.68</course>
  <speed>7.17</speed>
  <fix>3d</fix>
</trkpt>
<trkpt lat="40.0710752" lon="-105.2309058">
  <ele>1583.11</ele>
  <time>2026-08-28T17:55:21Z</time>
  <course>250.9</course>
  <speed>5.629653630553126</speed>
  <fix>3d</fix>
</trkpt>
<trkpt lat="40.0710794" lon="-105.2308901">
  <ele>1583.0</ele>
  <time>2026-08-28T17:55:21Z</time>
  <course>250.68</course>
  <speed>6.49</speed>
  <fix>3d</fix>
</trkpt>
<trkpt lat="40.0710736" lon="-105.2309119">
  <ele>1583.11</ele>
  <time>2026-08-28T17:55:21Z</time>
  <course>250.91</course>
  <speed>5.335663032838562</speed>
  <fix>3d</fix>
</trkpt>
<trkpt lat="40.0710794" lon="-105.2308901">
  <ele>1583.0</ele>
  <time>2026-08-28T17:55:21Z</time>
  <course>250.68</course>
  <speed>6.49</speed>
  <fix>3d</fix>
</trkpt>
<trkpt lat="40.0710721" lon="-105.2309176">
  <ele>1583.11</ele>
  <time>2026-08-28T17:55:21Z</time>
  <course>250.91</course>
  <speed>5.057202784148565</speed>
  <fix>3d</fix>
</trkpt>
<trkpt lat="40.0710758" lon="-105.2309038">
  <ele>1583.0</ele>
  <time>2026-08-28T17:55:21Z</time>
  <course>250.68</course>
  <speed>5.87</speed>
  <fix>3d</fix>
</trkpt>
<trkpt lat="40.0710706" lon="-105.2309231">
  <ele>1583.1</ele>
  <time>2026-08-28T17:55:21Z</time>
  <course>250.91</course>
  <speed>4.7915028957520205</speed>
  <fix>3d</fix>
</trkpt>
<trkpt lat="40.0710758" lon="-105.2309038">
  <ele>1583.0</ele>
  <time>2026-08-28T17:55:21Z</time>
  <course>250.68</course>
  <speed>5.87</speed>
  <fix>3d</fix>
</trkpt>
<trkpt lat="40.0710692" lon="-105.2309283">
  <ele>1583.1</ele>
  <time>2026-08-28T17:55:21Z</time>
  <course>250.91</course>
  <speed>4.547988566388443</speed>
  <fix>3d</fix>
</trkpt>
<trkpt lat="40.0710725" lon="-105.2309162">
  <ele>1583.0</ele>
  <time>2026-08-28T17:55:21Z</time>
  <course>250.68</course>
  <speed>5.31</speed>
  <fix>3d</fix>
</trkpt>
<trkpt lat="40.0710679" lon="-105.2309332">
  <ele>1583.09</ele>
  <time>2026-08-28T17:55:21Z</time>
  <course>250.91</course>
  <speed>4.304474416232486</speed>
  <fix>3d</fix>
</trkpt>
<trkpt lat="40.0710695" lon="-105.2309274">
  <ele>1583.0</ele>
  <time>2026-08-28T17:55:21Z</time>
  <course>250.68</course>
  <speed>4.8</speed>
  <fix>3d</fix>
</trkpt>
<trkpt lat="40.0710666" lon="-105.230938">
  <ele>1583.09</ele>
  <time>2026-08-28T17:55:21Z</time>
  <course>250.92</course>
  <speed>4.083148295127181</speed>
  <fix>3d</fix>
</trkpt>
<trkpt lat="40.0710695" lon="-105.2309274">
  <ele>1583.0</ele>
  <time>2026-08-28T17:55:21Z</time>
  <course>250.68</course>
  <speed>4.8</speed>
  <fix>3d</fix>
</trkpt>
<trkpt lat="40.0710654" lon="-105.2309425">
  <ele>1583.08</ele>
  <time>2026-08-28T17:55:21Z</time>
  <course>250.92</course>
  <speed>3.867932264143208</speed>
  <fix>3d</fix>
</trkpt>
<trkpt lat="40.0710667" lon="-105.2309375">
  <ele>1583.0</ele>
  <time>2026-08-28T17:55:21Z</time>
  <course>250.68</course>
  <speed>4.35</speed>
  <fix>3d</fix>
</trkpt>
<trkpt lat="40.0710642" lon="-105.2309468">
  <ele>1583.08</ele>
  <time>2026-08-28T17:55:21Z</time>
  <course>250.92</course>
  <speed>3.6687872655688283</speed>
  <fix>3d</fix>
</trkpt>
<trkpt lat="40.0710667" lon="-105.2309375">
  <ele>1583.0</ele>
  <time>2026-08-28T17:55:21Z</time>
  <course>250.68</course>
  <speed>4.35</speed>
  <fix>3d</fix>
</trkpt>
<trkpt lat="40.0710631" lon="-105.2309509">
  <ele>1583.08</ele>
  <time>2026-08-28T17:55:21Z</time>
  <course>250.92</course>
  <speed>3.4757589099360735</speed>
  <fix>3d</fix>
</trkpt>
<trkpt lat="40.0710643" lon="-105.2309467">
  <ele>1583.0</ele>
  <time>2026-08-28T17:55:21Z</time>
  <course>250.68</course>
  <speed>3.93</speed>
  <fix>3d</fix>
</trkpt>
<trkpt lat="40.0710621" lon="-105.2309548">
  <ele>1583.08</ele>
  <time>2026-08-28T17:55:21Z</time>
  <course>250.92</course>
  <speed>3.3049205739321486</speed>
  <fix>3d</fix>
</trkpt>
<trkpt lat="40.0710643" lon="-105.2309467">
  <ele>1583.0</ele>
  <time>2026-08-28T17:55:21Z</time>
  <course>250.68</course>
  <speed>3.93</speed>
  <fix>3d</fix>
</trkpt>
<trkpt lat="40.0710611" lon="-105.2309586">
  <ele>1583.08</ele>
  <time>2026-08-28T17:55:21Z</time>
  <course>250.93</course>
  <speed>3.12464397971993</speed>
  <fix>3d</fix>
</trkpt>
<trkpt lat="40.0710621" lon="-105.230955">
  <ele>1583.0</ele>
  <time>2026-08-28T17:55:21Z</time>
  <course>250.68</course>
  <speed>3.56</speed>
  <fix>3d</fix>
</trkpt>
<trkpt lat="40.0710601" lon="-105.2309621">
  <ele>1583.08</ele>
  <time>2026-08-28T17:55:21Z</time>
  <course>250.93</course>
  <speed>2.9665468140583924</speed>
  <fix>3d</fix>
</trkpt>
<trkpt lat="40.0710621" lon="-105.230955">
  <ele>1583.0</ele>
  <time>2026-08-28T17:55:21Z</time>
  <course>250.68</course>
  <speed>3.56</speed>
  <fix>3d</fix>
</trkpt>
<trkpt lat="40.0710592" lon="-105.2309655">
  <ele>1583.09</ele>
  <time>2026-08-28T17:55:21Z</time>
  <course>250.93</course>
  <speed>2.8084515306481617</speed>
  <fix>3d</fix>
</trkpt>
<trkpt lat="40.0710601" lon="-105.2309625">
  <ele>1583.0</ele>
  <time>2026-08-28T17:55:21Z</time>
  <course>250.68</course>
  <speed>3.22</speed>
  <fix>3d</fix>
</trkpt>
<trkpt lat="40.0710584" lon="-105.2309688">
  <ele>1583.09</ele>
  <time>2026-08-28T17:55:21Z</time>
  <course>250.93</course>
  <speed>2.669232099312459</speed>
  <fix>3d</fix>
</trkpt>
<trkpt lat="40.0710601" lon="-105.2309625">
  <ele>1583.0</ele>
  <time>2026-08-28T17:55:21Z</time>
  <course>250.68</course>
  <speed>3.22</speed>
  <fix>3d</fix>
</trkpt>
<trkpt lat="40.0710576" lon="-105.2309718">
  <ele>1583.09</ele>
  <time>2026-08-28T17:55:21Z</time>
  <course>250.94</course>
  <speed>2.5300197627686627</speed>
  <fix>3d</fix>
</trkpt>
<trkpt lat="40.0710583" lon="-105.2309693">
  <ele>1583.0</ele>
  <time>2026-08-28T17:55:21Z</time>
  <course>250.68</course>
  <speed>2.91</speed>
  <fix>3d</fix>
</trkpt>
<trkpt lat="40.0710568" lon="-105.2309748">
  <ele>1583.09</ele>
  <time>2026-08-28T17:55:21Z</time>
  <course>250.94</course>
  <speed>2.4035390573069537</speed>
  <fix>3d</fix>
</trkpt>
<trkpt lat="40.0710583" lon="-105.2309693">
  <ele>1583.0</ele>
  <time>2026-08-28T17:55:21Z</time>
  <course>250.68</course>
  <speed>2.91</speed>
  <fix>3d</fix>
</trkpt>
<trkpt lat="40.0710561" lon="-105.2309775">
  <ele>1583.09</ele>
  <time>2026-08-28T17:55:21Z</time>
  <course>250.94</course>
  <speed>2.2737853900489378</speed>
  <fix>3d</fix>
</trkpt>
<trkpt lat="40.0710566" lon="-105.2309755">
  <ele>1583.0</ele>
  <time>2026-08-28T17:55:21Z</time>
  <course>250.68</course>
  <speed>2.63</speed>
  <fix>3d</fix>
</trkpt>
<trkpt lat="40.0710554" lon="-105.2309802">
  <ele>1583.09</ele>
  <time>2026-08-28T17:55:21Z</time>
  <course>250.94</course>
  <speed>2.1567568244936655</speed>
  <fix>3d</fix>
</trkpt>
<trkpt lat="40.0710566" lon="-105.2309755">
  <ele>1583.0</ele>
  <time>2026-08-28T17:55:21Z</time>
  <course>250.68</course>
  <speed>2.63</speed>
  <fix>3d</fix>
</trkpt>
<trkpt lat="40.0710547" lon="-105.2309827">
  <ele>1583.09</ele>
  <time>2026-08-28T17:55:21Z</time>
  <course>250.95</course>
  <speed>2.039730374338726</speed>
  <fix>3d</fix>
</trkpt>
<trkpt lat="40.0710566" lon="-105.2309755">
  <ele>1583.0</ele>
  <time>2026-08-28T17:55:21Z</time>
  <course>250.68</course>
  <speed>2.63</speed>
  <fix>3d</fix>
</trkpt>
<trkpt lat="40.0710541" lon="-105.2309851">
  <ele>1583.09</ele>
  <time>2026-08-28T17:55:21Z</time>
  <course>250.95</course>
  <speed>1.9354069339547175</speed>
  <fix>3d</fix>
</trkpt>
<trkpt lat="40.0710551" lon="-105.230981">
  <ele>1583.0</ele>
  <time>2026-08-28T17:55:21Z</time>
  <course>250.68</course>
  <speed>2.38</speed>
  <fix>3d</fix>
</trkpt>
<trkpt lat="40.0710535" lon="-105.2309874">
  <ele>1583.09</ele>
  <time>2026-08-28T17:55:21Z</time>
  <course>250.95</course>
  <speed>1.8373078130786906</speed>
  <fix>3d</fix>
</trkpt>
<trkpt lat="40.0710551" lon="-105.230981">
  <ele>1583.0</ele>
  <time>2026-08-28T17:55:21Z</time>
  <course>250.68</course>
  <speed>2.38</speed>
  <fix>3d</fix>
</trkpt>
<trkpt lat="40.0710529" lon="-105.2309896">
  <ele>1583.09</ele>
  <time>2026-08-28T17:55:21Z</time>
  <course>250.96</course>
  <speed>1.7424408167854653</speed>
  <fix>3d</fix>
</trkpt>
<trkpt lat="40.0710538" lon="-105.2309861">
  <ele>1583.0</ele>
  <time>2026-08-28T17:55:21Z</time>
  <course>250.68</course>
  <speed>2.16</speed>
  <fix>3d</fix>
</trkpt>
<trkpt lat="40.0710523" lon="-105.2309916">
  <ele>1583.1</ele>
  <time>2026-08-28T17:55:21Z</time>
  <course>250.96</course>
  <speed>1.657045563646335</speed>
  <fix>3d</fix>
</trkpt>
<trkpt lat="40.0710538" lon="-105.2309861">
  <ele>1583.0</ele>
  <time>2026-08-28T17:55:21Z</time>
  <course>250.68</course>
  <speed>2.16</speed>
  <fix>3d</fix>
</trkpt>
<trkpt lat="40.0710518" lon="-105.2309936">
  <ele>1583.1</ele>
  <time>2026-08-28T17:55:21Z</time>
  <course>250.96</course>
  <speed>1.5716551784663197</speed>
  <fix>3d</fix>
</trkpt>
<trkpt lat="40.0710526" lon="-105.2309906">
  <ele>1583.0</ele>
  <time>2026-08-28T17:55:21Z</time>
  <course>250.68</course>
  <speed>1.95</speed>
  <fix>3d</fix>
</trkpt>
<trkpt lat="40.0710513" lon="-105.2309955">
  <ele>1583.1</ele>
  <time>2026-08-28T17:55:21Z</time>
  <course>250.96</course>
  <speed>1.4862705002791383</speed>
  <fix>3d</fix>
</trkpt>
<trkpt lat="40.0710514" lon="-105.2309947">
  <ele>1583.0</ele>
  <time>2026-08-28T17:55:21Z</time>
  <course>250.68</course>
  <speed>1.76</speed>
  <fix>3d</fix>
</trkpt>
<trkpt lat="40.0710509" lon="-105.2309973">
  <ele>1583.11</ele>
  <time>2026-08-28T17:55:21Z</time>
  <course>250.97</course>
  <speed>1.4135416513141734</speed>
  <fix>3d</fix>
</trkpt>
<trkpt lat="40.0710514" lon="-105.2309947">
  <ele>1583.0</ele>
  <time>2026-08-28T17:55:21Z</time>
  <course>250.68</course>
  <speed>1.76</speed>
  <fix>3d</fix>
</trkpt>
<trkpt lat="40.0710504" lon="-105.230999">
  <ele>1583.11</ele>
  <time>2026-08-28T17:55:21Z</time>
  <course>250.97</course>
  <speed>1.3376471881628578</speed>
  <fix>3d</fix>
</trkpt>
<trkpt lat="40.0710504" lon="-105.2309985">
  <ele>1583.0</ele>
  <time>2026-08-28T17:55:21Z</time>
  <course>250.68</course>
  <speed>1.6</speed>
  <fix>3d</fix>
</trkpt>
<trkpt lat="40.07105" lon="-105.2310007">
  <ele>1583.11</ele>
  <time>2026-08-28T17:55:21Z</time>
  <course>250.97</course>
  <speed>1.274401820463232</speed>
  <fix>3d</fix>
</trkpt>
<trkpt lat="40.0710504" lon="-105.2309985">
  <ele>1583.0</ele>
  <time>2026-08-28T17:55:21Z</time>
  <course>250.68</course>
  <speed>1.6</speed>
  <fix>3d</fix>
</trkpt>
<trkpt lat="40.0710496" lon="-105.2310022">
  <ele>1583.11</ele>
  <time>2026-08-28T17:55:21Z</time>
  <course>250.98</course>
  <speed>1.211156472137271</speed>
  <fix>3d</fix>
</trkpt>
<trkpt lat="40.0710495" lon="-105.2310019">
  <ele>1583.0</ele>
  <time>2026-08-28T17:55:21Z</time>
  <course>250.68</course>
  <speed>1.44</speed>
  <fix>3d</fix>
</trkpt>
<trkpt lat="40.0710492" lon="-105.2310038">
  <ele>1583.12</ele>
  <time>2026-08-28T17:55:21Z</time>
  <course>250.98</course>
  <speed>1.1479111463872105</speed>
  <fix>3d</fix>
</trkpt>
<trkpt lat="40.0710495" lon="-105.2310019">
  <ele>1583.0</ele>
  <time>2026-08-28T17:55:21Z</time>
  <course>250.68</course>
  <speed>1.44</speed>
  <fix>3d</fix>
</trkpt>
<trkpt lat="40.0710488" lon="-105.2310052">
  <ele>1583.12</ele>
  <time>2026-08-28T17:55:21Z</time>
  <course>250.98</course>
  <speed>1.0941663493271945</speed>
  <fix>3d</fix>
</trkpt>
<trkpt lat="40.0710487" lon="-105.2310049">
  <ele>1583.0</ele>
  <time>2026-08-28T17:55:21Z</time>
  <course>250.68</course>
  <speed>1.31</speed>
  <fix>3d</fix>
</trkpt>
<trkpt lat="40.0710484" lon="-105.2310066">
  <ele>1583.13</ele>
  <time>2026-08-28T17:55:21Z</time>
  <course>250.99</course>
  <speed>1.0404326023342407</speed>
  <fix>3d</fix>
</trkpt>
<trkpt lat="40.0710487" lon="-105.2310049">
  <ele>1583.0</ele>
  <time>2026-08-28T17:55:21Z</time>
  <course>250.68</course>
  <speed>1.31</speed>
  <fix>3d</fix>
</trkpt>
<trkpt lat="40.0710481" lon="-105.2310079">
  <ele>1583.13</ele>
  <time>2026-08-28T17:55:21Z</time>
  <course>250.99</course>
  <speed>0.9867117106835208</speed>
  <fix>3d</fix>
</trkpt>
<trkpt lat="40.071048" lon="-105.2310076">
  <ele>1583.0</ele>
  <time>2026-08-28T17:55:21Z</time>
  <course>250.68</course>
  <speed>1.18</speed>
  <fix>3d</fix>
</trkpt>
<trkpt lat="40.0710478" lon="-105.2310091">
  <ele>1583.14</ele>
  <time>2026-08-28T17:55:21Z</time>
  <course>250.99</course>
  <speed>0.9330058949438638</speed>
  <fix>3d</fix>
</trkpt>
<trkpt lat="40.071048" lon="-105.2310076">
  <ele>1583.0</ele>
  <time>2026-08-28T17:55:21Z</time>
  <course>250.68</course>
  <speed>1.18</speed>
  <fix>3d</fix>
</trkpt>
<trkpt lat="40.0710475" lon="-105.2310103">
  <ele>1583.14</ele>
  <time>2026-08-28T17:55:21Z</time>
  <course>250.99</course>
  <speed>0.8918520056601319</speed>
  <fix>3d</fix>
</trkpt>
<trkpt lat="40.0710473" lon="-105.2310102">
  <ele>1583.0</ele>
  <time>2026-08-28T17:55:21Z</time>
  <course>250.68</course>
  <speed>1.07</speed>
  <fix>3d</fix>
</trkpt>
<trkpt lat="40.0710472" lon="-105.2310115">
  <ele>1583.14</ele>
  <time>2026-08-28T17:55:21Z</time>
  <course>251.0</course>
  <speed>0.8477027781009095</speed>
  <fix>3d</fix>
</trkpt>
<trkpt lat="40.0710473" lon="-105.2310102">
  <ele>1583.0</ele>
  <time>2026-08-28T17:55:21Z</time>
  <course>250.68</course>
  <speed>1.07</speed>
  <fix>3d</fix>
</trkpt>
<trkpt lat="40.0710469" lon="-105.2310125">
  <ele>1583.15</ele>
  <time>2026-08-28T17:55:21Z</time>
  <course>251.0</course>
  <speed>0.8065358020571685</speed>
  <fix>3d</fix>
</trkpt>
<trkpt lat="40.0710466" lon="-105.2310124">
  <ele>1583.0</ele>
  <time>2026-08-28T17:55:21Z</time>
  <course>250.68</course>
  <speed>0.97</speed>
  <fix>3d</fix>
</trkpt>
<trkpt lat="40.0710466" lon="-105.2310136">
  <ele>1583.15</ele>
  <time>2026-08-28T17:55:21Z</time>
  <course>251.0</course>
  <speed>0.7720103626247513</speed>
  <fix>3d</fix>
</trkpt>
<trkpt lat="40.0710466" lon="-105.2310124">
  <ele>1583.0</ele>
  <time>2026-08-28T17:55:21Z</time>
  <course>250.68</course>
  <speed>0.97</speed>
  <fix>3d</fix>
</trkpt>
<trkpt lat="40.0710464" lon="-105.2310145">
  <ele>1583.15</ele>
  <time>2026-08-28T17:55:22Z</time>
  <course>251.0</course>
  <speed>0.7308214556237386</speed>
  <fix>3d</fix>
</trkpt>
<trkpt lat="40.0710466" lon="-105.2310124">
  <ele>1583.0</ele>
  <time>2026-08-28T17:55:22Z</time>
  <course>250.68</course>
  <speed>0.97</speed>
  <fix>3d</fix>
</trkpt>
<trkpt lat="40.0710461" lon="-105.2310155">
  <ele>1583.15</ele>
  <time>2026-08-28T17:55:22Z</time>
  <course>251.01</course>
  <speed>0.6992138442565335</speed>
  <fix>3d</fix>
</trkpt>
<trkpt lat="40.0710461" lon="-105.2310144">
  <ele>1583.0</ele>
  <time>2026-08-28T17:55:22Z</time>
  <course>250.68</course>
  <speed>0.87</speed>
  <fix>3d</fix>
</trkpt>
<trkpt lat="40.0710459" lon="-105.2310163">
  <ele>1583.15</ele>
  <time>2026-08-28T17:55:22Z</time>
  <course>251.01</course>
  <speed>0.6676076692189806</speed>
  <fix>3d</fix>
</trkpt>
<trkpt lat="40.0710461" lon="-105.2310144">
  <ele>1583.0</ele>
  <time>2026-08-28T17:55:22Z</time>
  <course>250.68</course>
  <speed>0.87</speed>
  <fix>3d</fix>
</trkpt>
<trkpt lat="40.0710456" lon="-105.2310172">
  <ele>1583.16</ele>
  <time>2026-08-28T17:55:22Z</time>
  <course>251.01</course>
  <speed>0.6360031446463138</speed>
  <fix>3d</fix>
</trkpt>
<trkpt lat="40.0710456" lon="-105.2310163">
  <ele>1583.0</ele>
  <time>2026-08-28T17:55:22Z</time>
  <course>250.68</course>
  <speed>0.79</speed>
  <fix>3d</fix>
</trkpt>
<trkpt lat="40.0710454" lon="-105.231018">
  <ele>1583.16</ele>
  <time>2026-08-28T17:55:22Z</time>
  <course>251.01</course>
  <speed>0.6044005294504631</speed>
  <fix>3d</fix>
</trkpt>
<trkpt lat="40.0710456" lon="-105.2310163">
  <ele>1583.0</ele>
  <time>2026-08-28T17:55:22Z</time>
  <course>250.68</course>
  <speed>0.79</speed>
  <fix>3d</fix>
</trkpt>
<trkpt lat="40.0710452" lon="-105.2310188">
  <ele>1583.16</ele>
  <time>2026-08-28T17:55:22Z</time>
  <course>251.01</course>
  <speed>0.5728001396647874</speed>
  <fix>3d</fix>
</trkpt>
<trkpt lat="40.0710452" lon="-105.231018">
  <ele>1583.0</ele>
  <time>2026-08-28T17:55:22Z</time>
  <course>250.68</course>
  <speed>0.71</speed>
  <fix>3d</fix>
</trkpt>
<trkpt lat="40.071045" lon="-105.2310195">
  <ele>1583.16</ele>
  <time>2026-08-28T17:55:22Z</time>
  <course>251.02</course>
  <speed>0.5508175741568164</speed>
  <fix>3d</fix>
</trkpt>
<trkpt lat="40.0710447" lon="-105.2310195">
  <ele>1583.0</ele>
  <time>2026-08-28T17:55:22Z</time>
  <course>250.68</course>
  <speed>0.65</speed>
  <fix>3d</fix>
</trkpt>
<trkpt lat="40.0710448" lon="-105.2310202">
  <ele>1583.17</ele>
  <time>2026-08-28T17:55:22Z</time>
  <course>251.02</course>
  <speed>0.5192301994298868</speed>
  <fix>3d</fix>
</trkpt>
<trkpt lat="40.0710447" lon="-105.2310195">
  <ele>1583.0</ele>
  <time>2026-08-28T17:55:22Z</time>
  <course>250.68</course>
  <speed>0.65</speed>
  <fix>3d</fix>
</trkpt>
<trkpt lat="40.0710447" lon="-105.2310209">
  <ele>1583.17</ele>
  <time>2026-08-28T17:55:22Z</time>
  <course>251.02</course>
  <speed>0.49729267036625424</speed>
  <fix>3d</fix>
</trkpt>
<trkpt lat="40.0710444" lon="-105.2310209">
  <ele>1583.0</ele>
  <time>2026-08-28T17:55:22Z</time>
  <course>250.68</course>
  <speed>0.58</speed>
  <fix>3d</fix>
</trkpt>
<trkpt lat="40.0710445" lon="-105.2310216">
  <ele>1583.17</ele>
  <time>2026-08-28T17:55:22Z</time>
  <course>251.02</course>
  <speed>0.4753945729601885</speed>
  <fix>3d</fix>
</trkpt>
<trkpt lat="40.0710444" lon="-105.2310209">
  <ele>1583.0</ele>
  <time>2026-08-28T17:55:22Z</time>
  <course>250.68</course>
  <speed>0.58</speed>
  <fix>3d</fix>
</trkpt>
<trkpt lat="40.0710443" lon="-105.2310222">
  <ele>1583.17</ele>
  <time>2026-08-28T17:55:22Z</time>
  <course>251.02</course>
  <speed>0.45607017003965516</speed>
  <fix>3d</fix>
</trkpt>
<trkpt lat="40.0710441" lon="-105.2310221">
  <ele>1583.0</ele>
  <time>2026-08-28T17:55:22Z</time>
  <course>250.68</course>
  <speed>0.53</speed>
  <fix>3d</fix>
</trkpt>
<trkpt lat="40.0710442" lon="-105.2310228">
  <ele>1583.17</ele>
  <time>2026-08-28T17:55:22Z</time>
  <course>251.02</course>
  <speed>0.4341658669218482</speed>
  <fix>3d</fix>
</trkpt>
<trkpt lat="40.0710441" lon="-105.2310221">
  <ele>1583.0</ele>
  <time>2026-08-28T17:55:22Z</time>
  <course>250.68</course>
  <speed>0.53</speed>
  <fix>3d</fix>
</trkpt>
<trkpt lat="40.071044" lon="-105.2310233">
  <ele>1583.17</ele>
  <time>2026-08-28T17:55:22Z</time>
  <course>251.02</course>
  <speed>0.41231056256176607</speed>
  <fix>3d</fix>
</trkpt>
<trkpt lat="40.0710438" lon="-105.2310232">
  <ele>1583.0</ele>
  <time>2026-08-28T17:55:22Z</time>
  <course>250.68</course>
  <speed>0.48</speed>
  <fix>3d</fix>
</trkpt>
<trkpt lat="40.0710439" lon="-105.2310238">
  <ele>1583.17</ele>
  <time>2026-08-28T17:55:22Z</time>
  <course>251.02</course>
  <speed>0.4026164427839479</speed>
  <fix>3d</fix>
</trkpt>
<trkpt lat="40.0710438" lon="-105.2310232">
  <ele>1583.0</ele>
  <time>2026-08-28T17:55:22Z</time>
  <course>250.68</course>
  <speed>0.48</speed>
  <fix>3d</fix>
</trkpt>
<trkpt lat="40.0710438" lon="-105.2310243">
  <ele>1583.17</ele>
  <time>2026-08-28T17:55:22Z</time>
  <course>251.03</course>
  <speed>0.38078865529319544</speed>
  <fix>3d</fix>
</trkpt>
<trkpt lat="40.0710435" lon="-105.2310243">
  <ele>1583.0</ele>
  <time>2026-08-28T17:55:22Z</time>
  <course>250.68</course>
  <speed>0.43</speed>
  <fix>3d</fix>
</trkpt>
<trkpt lat="40.0710436" lon="-105.2310248">
  <ele>1583.17</ele>
  <time>2026-08-28T17:55:22Z</time>
  <course>251.03</course>
  <speed>0.36138621999185305</speed>
  <fix>3d</fix>
</trkpt>
<trkpt lat="40.0710435" lon="-105.2310243">
  <ele>1583.0</ele>
  <time>2026-08-28T17:55:22Z</time>
  <course>250.68</course>
  <speed>0.43</speed>
  <fix>3d</fix>
</trkpt>
<trkpt lat="40.0710435" lon="-105.2310253">
  <ele>1583.17</ele>
  <time>2026-08-28T17:55:22Z</time>
  <course>251.03</course>
  <speed>0.34928498393145957</speed>
  <fix>3d</fix>
</trkpt>
<trkpt lat="40.0710433" lon="-105.2310252">
  <ele>1583.0</ele>
  <time>2026-08-28T17:55:22Z</time>
  <course>250.68</course>
  <speed>0.39</speed>
  <fix>3d</fix>
</trkpt>
<trkpt lat="40.0710434" lon="-105.2310258">
  <ele>1583.17</ele>
  <time>2026-08-28T17:55:22Z</time>
  <course>251.03</course>
  <speed>0.33734255586865997</speed>
  <fix>3d</fix>
</trkpt>
<trkpt lat="40.0710433" lon="-105.2310252">
  <ele>1583.0</ele>
  <time>2026-08-28T17:55:22Z</time>
  <course>250.68</course>
  <speed>0.39</speed>
  <fix>3d</fix>
</trkpt>
<trkpt lat="40.0710433" lon="-105.2310262">
  <ele>1583.17</ele>
  <time>2026-08-28T17:55:22Z</time>
  <course>251.03</course>
  <speed>0.3178049716414141</speed>
  <fix>3d</fix>
</trkpt>
<trkpt lat="40.0710431" lon="-105.231026">
  <ele>1583.0</ele>
  <time>2026-08-28T17:55:22Z</time>
  <course>250.68</course>
  <speed>0.35</speed>
  <fix>3d</fix>
</trkpt>
<trkpt lat="40.0710432" lon="-105.2310266">
  <ele>1583.17</ele>
  <time>2026-08-28T17:55:22Z</time>
  <course>251.03</course>
  <speed>0.3080584360149873</speed>
  <fix>3d</fix>
</trkpt>
<trkpt lat="40.0710431" lon="-105.231026">
  <ele>1583.0</ele>
  <time>2026-08-28T17:55:22Z</time>
  <course>250.68</course>
  <speed>0.35</speed>
  <fix>3d</fix>
</trkpt>
<trkpt lat="40.0710431" lon="-105.231027">
  <ele>1583.17</ele>
  <time>2026-08-28T17:55:22Z</time>
  <course>251.03</course>
  <speed>0.29614185789921693</speed>
  <fix>3d</fix>
</trkpt>
<trkpt lat="40.0710431" lon="-105.231026">
  <ele>1583.0</ele>
  <time>2026-08-28T17:55:22Z</time>
  <course>250.68</course>
  <speed>0.35</speed>
  <fix>3d</fix>
</trkpt>
<trkpt lat="40.071043" lon="-105.2310273">
  <ele>1583.17</ele>
  <time>2026-08-28T17:55:22Z</time>
  <course>251.03</course>
  <speed>0.2863564212655271</speed>
  <fix>3d</fix>
</trkpt>
<trkpt lat="40.0710428" lon="-105.2310268">
  <ele>1583.0</ele>
  <time>2026-08-28T17:55:22Z</time>
  <course>250.67</course>
  <speed>0.32</speed>
  <fix>3d</fix>
</trkpt>
<trkpt lat="40.0710429" lon="-105.2310277">
  <ele>1583.17</ele>
  <time>2026-08-28T17:55:22Z</time>
  <course>251.03</course>
  <speed>0.26476404589747454</speed>
  <fix>3d</fix>
</trkpt>
<trkpt lat="40.0710428" lon="-105.2310268">
  <ele>1583.0</ele>
  <time>2026-08-28T17:55:22Z</time>
  <course>250.67</course>
  <speed>0.32</speed>
  <fix>3d</fix>
</trkpt>
<trkpt lat="40.0710428" lon="-105.231028">
  <ele>1583.17</ele>
  <time>2026-08-28T17:55:22Z</time>
  <course>251.03</course>
  <speed>0.25495097567963926</speed>
  <fix>3d</fix>
</trkpt>
<trkpt lat="40.0710427" lon="-105.2310275">
  <ele>1583.0</ele>
  <time>2026-08-28T17:55:22Z</time>
  <course>250.67</course>
  <speed>0.29</speed>
  <fix>3d</fix>
</trkpt>
<trkpt lat="40.0710428" lon="-105.2310283">
  <ele>1583.16</ele>
  <time>2026-08-28T17:55:22Z</time>
  <course>251.03</course>
  <speed>0.24515301344262524</speed>
  <fix>3d</fix>
</trkpt>
<trkpt lat="40.0710427" lon="-105.2310275">
  <ele>1583.0</ele>
  <time>2026-08-28T17:55:22Z</time>
  <course>250.67</course>
  <speed>0.29</speed>
  <fix>3d</fix>
</trkpt>
<trkpt lat="40.0710427" lon="-105.2310286">
  <ele>1583.16</ele>
  <time>2026-08-28T17:55:22Z</time>
  <course>251.03</course>
  <speed>0.23345235059857505</speed>
  <fix>3d</fix>
</trkpt>
<trkpt lat="40.0710425" lon="-105.2310281">
  <ele>1583.0</ele>
  <time>2026-08-28T17:55:22Z</time>
  <course>250.67</course>
  <speed>0.26</speed>
  <fix>3d</fix>
</trkpt>
<trkpt lat="40.0710426" lon="-105.2310289">
  <ele>1583.16</ele>
  <time>2026-08-28T17:55:22Z</time>
  <course>251.03</course>
  <speed>0.223606797749979</speed>
  <fix>3d</fix>
</trkpt>
<trkpt lat="40.0710425" lon="-105.2310281">
  <ele>1583.0</ele>
  <time>2026-08-28T17:55:22Z</time>
  <course>250.67</course>
  <speed>0.26</speed>
  <fix>3d</fix>
</trkpt>
<trkpt lat="40.0710425" lon="-105.2310292">
  <ele>1583.16</ele>
  <time>2026-08-28T17:55:22Z</time>
  <course>251.03</course>
  <speed>0.223606797749979</speed>
  <fix>3d</fix>
</trkpt>
<trkpt lat="40.0710423" lon="-105.2310286">
  <ele>1583.0</ele>
  <time>2026-08-28T17:55:22Z</time>
  <course>250.67</course>
  <speed>0.23</speed>
  <fix>3d</fix>
</trkpt>
<trkpt lat="40.0710425" lon="-105.2310294">
  <ele>1583.16</ele>
  <time>2026-08-28T17:55:22Z</time>
  <course>251.03</course>
  <speed>0.21213203435596426</speed>
  <fix>3d</fix>
</trkpt>
<trkpt lat="40.0710422" lon="-105.2310291">
  <ele>1583.0</ele>
  <time>2026-08-28T17:55:22Z</time>
  <course>250.67</course>
  <speed>0.21</speed>
  <fix>3d</fix>
</trkpt>
<trkpt lat="40.0710424" lon="-105.2310296">
  <ele>1583.16</ele>
  <time>2026-08-28T17:55:22Z</time>
  <course>251.03</course>
  <speed>0.20223748416156684</speed>
  <fix>3d</fix>
</trkpt>
<trkpt lat="40.0710422" lon="-105.2310291">
  <ele>1583.0</ele>
  <time>2026-08-28T17:55:22Z</time>
  <course>250.67</course>
  <speed>0.21</speed>
  <fix>3d</fix>
</trkpt>
<trkpt lat="40.0710423" lon="-105.2310299">
  <ele>1583.16</ele>
  <time>2026-08-28T17:55:22Z</time>
  <course>251.03</course>
  <speed>0.19235384061671343</speed>
  <fix>3d</fix>
</trkpt>
<trkpt lat="40.0710421" lon="-105.2310296">
  <ele>1583.0</ele>
  <time>2026-08-28T17:55:22Z</time>
  <course>250.67</course>
  <speed>0.19</speed>
  <fix>3d</fix>
</trkpt>
<trkpt lat="40.0710423" lon="-105.2310301">
  <ele>1583.16</ele>
  <time>2026-08-28T17:55:22Z</time>
  <course>251.03</course>
  <speed>0.1824828759089466</speed>
  <fix>3d</fix>
</trkpt>
<trkpt lat="40.0710421" lon="-105.2310296">
  <ele>1583.0</ele>
  <time>2026-08-28T17:55:22Z</time>
  <course>250.67</course>
  <speed>0.19</speed>
  <fix>3d</fix>
</trkpt>
<trkpt lat="40.0710422" lon="-105.2310303">
  <ele>1583.15</ele>
  <time>2026-08-28T17:55:22Z</time>
  <course>251.03</course>
  <speed>0.1824828759089466</speed>
  <fix>3d</fix>
</trkpt>
<trkpt lat="40.071042" lon="-105.23103">
  <ele>1583.0</ele>
  <time>2026-08-28T17:55:22Z</time>
  <course>250.67</course>
  <speed>0.17</speed>
  <fix>3d</fix>
</trkpt>
<trkpt lat="40.0710421" lon="-105.2310305">
  <ele>1583.15</ele>
  <time>2026-08-28T17:55:22Z</time>
  <course>251.03</course>
  <speed>0.1711724276862369</speed>
  <fix>3d</fix>
</trkpt>
<trkpt lat="40.071042" lon="-105.23103">
  <ele>1583.0</ele>
  <time>2026-08-28T17:55:22Z</time>
  <course>250.67</course>
  <speed>0.17</speed>
  <fix>3d</fix>
</trkpt>
<trkpt lat="40.0710421" lon="-105.2310307">
  <ele>1583.15</ele>
  <time>2026-08-28T17:55:22Z</time>
  <course>251.04</course>
  <speed>0.16124515496597097</speed>
  <fix>3d</fix>
</trkpt>
<trkpt lat="40.0710419" lon="-105.2310304">
  <ele>1583.0</ele>
  <time>2026-08-28T17:55:22Z</time>
  <course>250.67</course>
  <speed>0.16</speed>
  <fix>3d</fix>
</trkpt>
<trkpt lat="40.071042" lon="-105.2310309">
  <ele>1583.16</ele>
  <time>2026-08-28T17:55:22Z</time>
  <course>251.04</course>
  <speed>0.16124515496597097</speed>
  <fix>3d</fix>
</trkpt>
<trkpt lat="40.0710419" lon="-105.2310304">
  <ele>1583.0</ele>
  <time>2026-08-28T17:55:22Z</time>
  <course>250.67</course>
  <speed>0.16</speed>
  <fix>3d</fix>
</trkpt>
<trkpt lat="40.071042" lon="-105.231031">
  <ele>1583.16</ele>
  <time>2026-08-28T17:55:22Z</time>
  <course>251.04</course>
  <speed>0.15132745950421556</speed>
  <fix>3d</fix>
</trkpt>
<trkpt lat="40.0710418" lon="-105.2310307">
  <ele>1583.0</ele>
  <time>2026-08-28T17:55:22Z</time>
  <course>250.67</course>
  <speed>0.14</speed>
  <fix>3d</fix>
</trkpt>
<trkpt lat="40.071042" lon="-105.2310312">
  <ele>1583.16</ele>
  <time>2026-08-28T17:55:22Z</time>
  <course>251.04</course>
  <speed>0.1414213562373095</speed>
  <fix>3d</fix>
</trkpt>
<trkpt lat="40.0710418" lon="-105.2310307">
  <ele>1583.0</ele>
  <time>2026-08-28T17:55:22Z</time>
  <course>250.67</course>
  <speed>0.14</speed>
  <fix>3d</fix>
</trkpt>
<trkpt lat="40.0710419" lon="-105.2310314">
  <ele>1583.16</ele>
  <time>2026-08-28T17:55:22Z</time>
  <course>251.04</course>
  <speed>0.140356688476182</speed>
  <fix>3d</fix>
</trkpt>
<trkpt lat="40.0710417" lon="-105.231031">
  <ele>1583.0</ele>
  <time>2026-08-28T17:55:22Z</time>
  <course>250.67</course>
  <speed>0.13</speed>
  <fix>3d</fix>
</trkpt>
<trkpt lat="40.0710419" lon="-105.2310315">
  <ele>1583.16</ele>
  <time>2026-08-28T17:55:22Z</time>
  <course>251.04</course>
  <speed>0.130384048104053</speed>
  <fix>3d</fix>
</trkpt>
<trkpt lat="40.0710417" lon="-105.231031">
  <ele>1583.0</ele>
  <time>2026-08-28T17:55:22Z</time>
  <course>250.67</course>
  <speed>0.13</speed>
  <fix>3d</fix>
</trkpt>
<trkpt lat="40.0710418" lon="-105.2310316">
  <ele>1583.16</ele>
  <time>2026-08-28T17:55:22Z</time>
  <course>251.04</course>
  <speed>0.130384048104053</speed>
  <fix>3d</fix>
</trkpt>
<trkpt lat="40.0710416" lon="-105.2310313">
  <ele>1583.0</ele>
  <time>2026-08-28T17:55:22Z</time>
  <course>250.67</course>
  <speed>0.11</speed>
  <fix>3d</fix>
</trkpt>
<trkpt lat="40.0710418" lon="-105.2310318">
  <ele>1583.15</ele>
  <time>2026-08-28T17:55:23Z</time>
  <course>251.04</course>
  <speed>0.12041594578792296</speed>
  <fix>3d</fix>
</trkpt>
<trkpt lat="40.0710416" lon="-105.2310313">
  <ele>1583.0</ele>
  <time>2026-08-28T17:55:23Z</time>
  <course>250.67</course>
  <speed>0.11</speed>
  <fix>3d</fix>
</trkpt>
<trkpt lat="40.0710418" lon="-105.2310319">
  <ele>1583.15</ele>
  <time>2026-08-28T17:55:23Z</time>
  <course>251.04</course>
  <speed>0.12041594578792296</speed>
  <fix>3d</fix>
</trkpt>
<trkpt lat="40.0710416" lon="-105.2310313">
  <ele>1583.0</ele>
  <time>2026-08-28T17:55:23Z</time>
  <course>250.67</course>
  <speed>0.11</speed>
  <fix>3d</fix>
</trkpt>
<trkpt lat="40.0710417" lon="-105.231032">
  <ele>1583.15</ele>
  <time>2026-08-28T17:55:23Z</time>
  <course>251.04</course>
  <speed>0.11045361017187261</speed>
  <fix>3d</fix>
</trkpt>
<trkpt lat="40.0710416" lon="-105.2310316">
  <ele>1583.0</ele>
  <time>2026-08-28T17:55:23Z</time>
  <course>250.67</course>
  <speed>0.1</speed>
  <fix>3d</fix>
</trkpt>
<trkpt lat="40.0710417" lon="-105.2310321">
  <ele>1583.15</ele>
  <time>2026-08-28T17:55:23Z</time>
  <course>251.04</course>
  <speed>0.11045361017187261</speed>
  <fix>3d</fix>
</trkpt>
<trkpt lat="40.0710416" lon="-105.2310316">
  <ele>1583.0</ele>
  <time>2026-08-28T17:55:23Z</time>
  <course>250.67</course>
  <speed>0.1</speed>
  <fix>3d</fix>
</trkpt>
<trkpt lat="40.0710417" lon="-105.2310322">
  <ele>1583.15</ele>
  <time>2026-08-28T17:55:23Z</time>
  <course>251.04</course>
  <speed>0.1</speed>
  <fix>3d</fix>
</trkpt>
<trkpt lat="40.0710415" lon="-105.2310317">
  <ele>1583.0</ele>
  <time>2026-08-28T17:55:23Z</time>
  <course>250.67</course>
  <speed>0.09</speed>
  <fix>3d</fix>
</trkpt>
<trkpt lat="40.0710416" lon="-105.2310323">
  <ele>1583.15</ele>
  <time>2026-08-28T17:55:23Z</time>
  <course>251.04</course>
  <speed>0.1</speed>
  <fix>3d</fix>
</trkpt>
<trkpt lat="40.0710415" lon="-105.2310317">
  <ele>1583.0</ele>
  <time>2026-08-28T17:55:23Z</time>
  <course>250.67</course>
  <speed>0.09</speed>
  <fix>3d</fix>
</trkpt>
<trkpt lat="40.0710416" lon="-105.2310324">
  <ele>1583.15</ele>
  <time>2026-08-28T17:55:23Z</time>
  <course>251.04</course>
  <speed>0.1</speed>
  <fix>3d</fix>
</trkpt>
<trkpt lat="40.0710415" lon="-105.231032">
  <ele>1583.0</ele>
  <time>2026-08-28T17:55:23Z</time>
  <course>250.67</course>
  <speed>0.08</speed>
  <fix>3d</fix>
</trkpt>
<trkpt lat="40.0710416" lon="-105.2310325">
  <ele>1583.15</ele>
  <time>2026-08-28T17:55:23Z</time>
  <course>251.05</course>
  <speed>0.09</speed>
  <fix>3d</fix>
</trkpt>
<trkpt lat="40.0710414" lon="-105.2310321">
  <ele>1583.0</ele>
  <time>2026-08-28T17:55:23Z</time>
  <course>250.67</course>
  <speed>0.07</speed>
  <fix>3d</fix>
</trkpt>
<trkpt lat="40.0710416" lon="-105.2310326">
  <ele>1583.15</ele>
  <time>2026-08-28T17:55:23Z</time>
  <course>251.05</course>
  <speed>0.09</speed>
  <fix>3d</fix>
</trkpt>
<trkpt lat="40.0710414" lon="-105.2310321">
  <ele>1583.0</ele>
  <time>2026-08-28T17:55:23Z</time>
  <course>250.67</course>
  <speed>0.07</speed>
  <fix>3d</fix>
</trkpt>
<trkpt lat="40.0710415" lon="-105.2310326">
  <ele>1583.15</ele>
  <time>2026-08-28T17:55:23Z</time>
  <course>251.05</course>
  <speed>0.08</speed>
  <fix>3d</fix>
</trkpt>
<trkpt lat="40.0710414" lon="-105.2310323">
  <ele>1583.0</ele>
  <time>2026-08-28T17:55:23Z</time>
  <course>250.67</course>
  <speed>0.07</speed>
  <fix>3d</fix>
</trkpt>
<trkpt lat="40.0710415" lon="-105.2310327">
  <ele>1583.15</ele>
  <time>2026-08-28T17:55:23Z</time>
  <course>251.04</course>
  <speed>0.08</speed>
  <fix>3d</fix>
</trkpt>
<trkpt lat="40.0710414" lon="-105.2310323">
  <ele>1583.0</ele>
  <time>2026-08-28T17:55:23Z</time>
  <course>250.67</course>
  <speed>0.07</speed>
  <fix>3d</fix>
</trkpt>
<trkpt lat="40.0710415" lon="-105.2310328">
  <ele>1583.14</ele>
  <time>2026-08-28T17:55:23Z</time>
  <course>251.03</course>
  <speed>0.07</speed>
  <fix>3d</fix>
</trkpt>
<trkpt lat="40.0710413" lon="-105.2310325">
  <ele>1583.0</ele>
  <time>2026-08-28T17:55:23Z</time>
  <course>250.66</course>
  <speed>0.06</speed>
  <fix>3d</fix>
</trkpt>
<trkpt lat="40.0710415" lon="-105.2310328">
  <ele>1583.14</ele>
  <time>2026-08-28T17:55:23Z</time>
  <course>251.03</course>
  <speed>0.06</speed>
  <fix>3d</fix>
</trkpt>
<trkpt lat="40.0710413" lon="-105.2310325">
  <ele>1583.0</ele>
  <time>2026-08-28T17:55:23Z</time>
  <course>250.66</course>
  <speed>0.06</speed>
  <fix>3d</fix>
</trkpt>
<trkpt lat="40.0710415" lon="-105.2310329">
  <ele>1583.14</ele>
  <time>2026-08-28T17:55:23Z</time>
  <course>251.02</course>
  <speed>0.05</speed>
  <fix>3d</fix>
</trkpt>
<trkpt lat="40.0710413" lon="-105.2310326">
  <ele>1583.0</ele>
  <time>2026-08-28T17:55:23Z</time>
  <course>250.65</course>
  <speed>0.04</speed>
  <fix>3d</fix>
</trkpt>
<trkpt lat="40.0710415" lon="-105.2310329">
  <ele>1583.13</ele>
  <time>2026-08-28T17:55:23Z</time>
  <course>251.02</course>
  <speed>0.05</speed>
  <fix>3d</fix>
</trkpt>
<trkpt lat="40.0710413" lon="-105.2310326">
  <ele>1583.0</ele>
  <time>2026-08-28T17:55:23Z</time>
  <course>250.65</course>
  <speed>0.04</speed>
  <fix>3d</fix>
</trkpt>
<trkpt lat="40.0710415" lon="-105.2310329">
  <ele>1583.13</ele>
  <time>2026-08-28T17:55:23Z</time>
  <course>251.01</course>
  <speed>0.05</speed>
  <fix>3d</fix>
</trkpt>
<trkpt lat="40.0710413" lon="-105.2310327">
  <ele>1583.0</ele>
  <time>2026-08-28T17:55:23Z</time>
  <course>250.63</course>
  <speed>0.03</speed>
  <fix>3d</fix>
</trkpt>
<trkpt lat="40.0710414" lon="-105.231033">
  <ele>1583.13</ele>
  <time>2026-08-28T17:55:23Z</time>
  <course>251.01</course>
  <speed>0.05</speed>
  <fix>3d</fix>
</trkpt>
<trkpt lat="40.0710413" lon="-105.2310327">
  <ele>1583.0</ele>
  <time>2026-08-28T17:55:23Z</time>
  <course>250.63</course>
  <speed>0.03</speed>
  <fix>3d</fix>
</trkpt>
<trkpt lat="40.0710414" lon="-105.231033">
  <ele>1583.13</ele>
  <time>2026-08-28T17:55:23Z</time>
  <course>251.01</course>
  <speed>0.06</speed>
  <fix>3d</fix>
</trkpt>
<trkpt lat="40.0710413" lon="-105.2310328">
  <ele>1583.0</ele>
  <time>2026-08-28T17:55:23Z</time>
  <course>250.62</course>
  <speed>0.04</speed>
  <fix>3d</fix>
</trkpt>
<trkpt lat="40.0710414" lon="-105.2310331">
  <ele>1583.13</ele>
  <time>2026-08-28T17:55:23Z</time>
  <course>251.0</course>
  <speed>0.07</speed>
  <fix>3d</fix>
</trkpt>
<trkpt lat="40.0710413" lon="-105.2310328">
  <ele>1583.0</ele>
  <time>2026-08-28T17:55:23Z</time>
  <course>250.62</course>
  <speed>0.04</speed>
  <fix>3d</fix>
</trkpt>
<trkpt lat="40.0710414" lon="-105.2310332">
  <ele>1583.14</ele>
  <time>2026-08-28T17:55:23Z</time>
  <course>250.99</course>
  <speed>0.09</speed>
  <fix>3d</fix>
</trkpt>
<trkpt lat="40.0710412" lon="-105.2310329">
  <ele>1583.0</ele>
  <time>2026-08-28T17:55:23Z</time>
  <course>250.61</course>
  <speed>0.06</speed>
  <fix>3d</fix>
</trkpt>
<trkpt lat="40.0710414" lon="-105.2310333">
  <ele>1583.14</ele>
  <time>2026-08-28T17:55:23Z</time>
  <course>250.98</course>
  <speed>0.11045361017187261</speed>
  <fix>3d</fix>
</trkpt>
<trkpt lat="40.0710412" lon="-105.2310329">
  <ele>1583.0</ele>
  <time>2026-08-28T17:55:23Z</time>
  <course>250.61</course>
  <speed>0.06</speed>
  <fix>3d</fix>
</trkpt>
<trkpt lat="40.0710413" lon="-105.2310334">
  <ele>1583.15</ele>
  <time>2026-08-28T17:55:23Z</time>
  <course>250.97</course>
  <speed>0.13152946437965907</speed>
  <fix>3d</fix>
</trkpt>
<trkpt lat="40.0710412" lon="-105.2310329">
  <ele>1583.0</ele>
  <time>2026-08-28T17:55:23Z</time>
  <course>250.61</course>
  <speed>0.06</speed>
  <fix>3d</fix>
</trkpt>
<trkpt lat="40.0710413" lon="-105.2310335">
  <ele>1583.15</ele>
  <time>2026-08-28T17:55:23Z</time>
  <course>250.96</course>
  <speed>0.15132745950421556</speed>
  <fix>3d</fix>
</trkpt>
<trkpt lat="40.0710411" lon="-105.231033">
  <ele>1583.0</ele>
  <time>2026-08-28T17:55:23Z</time>
  <course>250.59</course>
  <speed>0.1</speed>
  <fix>3d</fix>
</trkpt>
<trkpt lat="40.0710412" lon="-105.2310337">
  <ele>1583.16</ele>
  <time>2026-08-28T17:55:23Z</time>
  <course>250.94</course>
  <speed>0.17262676501632068</speed>
  <fix>3d</fix>
</trkpt>
<trkpt lat="40.0710411" lon="-105.231033">
  <ele>1583.0</ele>
  <time>2026-08-28T17:55:23Z</time>
  <course>250.59</course>
  <speed>0.1</speed>
  <fix>3d</fix>
</trkpt>
<trkpt lat="40.0710412" lon="-105.2310339">
  <ele>1583.16</ele>
  <time>2026-08-28T17:55:23Z</time>
  <course>250.93</course>
  <speed>0.2039607805437114</speed>
  <fix>3d</fix>
</trkpt>
<trkpt lat="40.0710411" lon="-105.2310334">
  <ele>1583.0</ele>
  <time>2026-08-28T17:55:23Z</time>
  <course>250.56</course>
  <speed>0.14</speed>
  <fix>3d</fix>
</trkpt>
<trkpt lat="40.0710411" lon="-105.2310342">
  <ele>1583.16</ele>
  <time>2026-08-28T17:55:23Z</time>
  <course>250.9</course>
  <speed>0.2353720459187964</speed>
  <fix>3d</fix>
</trkpt>
<trkpt lat="40.0710411" lon="-105.2310334">
  <ele>1583.0</ele>
  <time>2026-08-28T17:55:23Z</time>
  <course>250.56</course>
  <speed>0.14</speed>
  <fix>3d</fix>
</trkpt>
<trkpt lat="40.071041" lon="-105.2310344">
  <ele>1583.16</ele>
  <time>2026-08-28T17:55:23Z</time>
  <course>250.88</course>
  <speed>0.2668332812825267</speed>
  <fix>3d</fix>
</trkpt>
<trkpt lat="40.0710409" lon="-105.2310337">
  <ele>1583.0</ele>
  <time>2026-08-28T17:55:23Z</time>
  <course>250.53</course>
  <speed>0.2</speed>
  <fix>3d</fix>
</trkpt>
<trkpt lat="40.071041" lon="-105.2310347">
  <ele>1583.16</ele>
  <time>2026-08-28T17:55:23Z</time>
  <course>250.85</course>
  <speed>0.28861739379323625</speed>
  <fix>3d</fix>
</trkpt>
<trkpt lat="40.0710409" lon="-105.2310337">
  <ele>1583.0</ele>
  <time>2026-08-28T17:55:23Z</time>
  <course>250.53</course>
  <speed>0.2</speed>
  <fix>3d</fix>
</trkpt>
<trkpt lat="40.0710409" lon="-105.2310351">
  <ele>1583.16</ele>
  <time>2026-08-28T17:55:23Z</time>
  <course>250.82</course>
  <speed>0.32015621187164245</speed>
  <fix>3d</fix>
</trkpt>
<trkpt lat="40.0710408" lon="-105.2310343">
  <ele>1583.0</ele>
  <time>2026-08-28T17:55:23Z</time>
  <course>250.48</course>
  <speed>0.26</speed>
  <fix>3d</fix>
</trkpt>
<trkpt lat="40.0710407" lon="-105.2310354">
  <ele>1583.17</ele>
  <time>2026-08-28T17:55:23Z</time>
  <course>250.78</course>
  <speed>0.35171010790137947</speed>
  <fix>3d</fix>
</trkpt>
<trkpt lat="40.0710407" lon="-105.2310349">
  <ele>1583.0</ele>
  <time>2026-08-28T17:55:23Z</time>
  <course>250.41</course>
  <speed>0.32</speed>
  <fix>3d</fix>
</trkpt>
<trkpt lat="40.0710406" lon="-105.2310359">
  <ele>1583.17</ele>
  <time>2026-08-28T17:55:23Z</time>
  <course>250.75</course>
  <speed>0.383275357934736</speed>
  <fix>3d</fix>
</trkpt>
<trkpt lat="40.0710407" lon="-105.2310349">
  <ele>1583.0</ele>
  <time>2026-08-28T17:55:23Z</time>
  <course>250.41</course>
  <speed>0.32</speed>
  <fix>3d</fix>
</trkpt>
<trkpt lat="40.0710405" lon="-105.2310363">
  <ele>1583.17</ele>
  <time>2026-08-28T17:55:23Z</time>
  <course>250.7</course>
  <speed>0.4052159917870962</speed>
  <fix>3d</fix>
</trkpt>
<trkpt lat="40.0710404" lon="-105.2310357">
  <ele>1583.0</ele>
  <time>2026-08-28T17:55:23Z</time>
  <course>250.34</course>
  <speed>0.38</speed>
  <fix>3d</fix>
</trkpt>
<trkpt lat="40.0710404" lon="-105.2310368">
  <ele>1583.17</ele>
  <time>2026-08-28T17:55:23Z</time>
  <course>250.66</course>
  <speed>0.4368065933568311</speed>
  <fix>3d</fix>
</trkpt>
<trkpt lat="40.0710404" lon="-105.2310357">
  <ele>1583.0</ele>
  <time>2026-08-28T17:55:23Z</time>
  <course>250.34</course>
  <speed>0.38</speed>
  <fix>3d</fix>
</trkpt>
<trkpt lat="40.0710402" lon="-105.2310373">
  <ele>1583.17</ele>
  <time>2026-08-28T17:55:23Z</time>
  <course>250.61</course>
  <speed>0.46840153714521476</speed>
  <fix>3d</fix>
</trkpt>
<trkpt lat="40.0710402" lon="-105.2310366">
  <ele>1583.0</ele>
  <time>2026-08-28T17:55:23Z</time>
  <course>250.25</course>
  <speed>0.43</speed>
  <fix>3d</fix>
</trkpt>
<trkpt lat="40.0710401" lon="-105.2310378">
  <ele>1583.17</ele>
  <time>2026-08-28T17:55:23Z</time>
  <course>250.56</course>
  <speed>0.49040799340956914</speed>
  <fix>3d</fix>
</trkpt>
<trkpt lat="40.0710402" lon="-105.2310366">
  <ele>1583.0</ele>
  <time>2026-08-28T17:55:23Z</time>
  <course>250.25</course>
  <speed>0.43</speed>
  <fix>3d</fix>
</trkpt>
<trkpt lat="40.0710399" lon="-105.2310384">
  <ele>1583.17</ele>
  <time>2026-08-28T17:55:23Z</time>
  <course>250.5</course>
  <speed>0.5124451190127582</speed>
  <fix>3d</fix>
</trkpt>
<trkpt lat="40.0710399" lon="-105.2310376">
  <ele>1583.0</ele>
  <time>2026-08-28T17:55:23Z</time>
  <course>250.14</course>
  <speed>0.49</speed>
  <fix>3d</fix>
</trkpt>
<trkpt lat="40.0710398" lon="-105.231039">
  <ele>1583.17</ele>
  <time>2026-08-28T17:55:23Z</time>
  <course>250.43</course>
  <speed>0.5440588203494178</speed>
  <fix>3d</fix>
</trkpt>
<trkpt lat="40.0710399" lon="-105.2310376">
  <ele>1583.0</ele>
  <time>2026-08-28T17:55:23Z</time>
  <course>250.14</course>
  <speed>0.49</speed>
  <fix>3d</fix>
</trkpt>
<trkpt lat="40.0710396" lon="-105.2310396">
  <ele>1583.17</ele>
  <time>2026-08-28T17:55:23Z</time>
  <course>250.36</course>
  <speed>0.5661271941887265</speed>
  <fix>3d</fix>
</trkpt>
<trkpt lat="40.0710396" lon="-105.2310387">
  <ele>1583.0</ele>
  <time>2026-08-28T17:55:23Z</time>
  <course>250.01</course>
  <speed>0.54</speed>
  <fix>3d</fix>
</trkpt>
<trkpt lat="40.0710394" lon="-105.2310402">
  <ele>1583.17</ele>
  <time>2026-08-28T17:55:23Z</time>
  <course>250.27</course>
  <speed>0.5882176467941097</speed>
  <fix>3d</fix>
</trkpt>
<trkpt lat="40.0710396" lon="-105.2310387">
  <ele>1583.0</ele>
  <time>2026-08-28T17:55:23Z</time>
  <course>250.01</course>
  <speed>0.54</speed>
  <fix>3d</fix>
</trkpt>
<trkpt lat="40.0710392" lon="-105.2310409">
  <ele>1583.17</ele>
  <time>2026-08-28T17:55:23Z</time>
  <course>250.18</course>
  <speed>0.5977457653551382</speed>
  <fix>3d</fix>
</trkpt>
<trkpt lat="40.0710392" lon="-105.23104">
  <ele>1583.0</ele>
  <time>2026-08-28T17:55:24Z</time>
  <course>249.85</course>
  <speed>0.58</speed>
  <fix>3d</fix>
</trkpt>
<trkpt lat="40.071039" lon="-105.2310416">
  <ele>1583.16</ele>
  <time>2026-08-28T17:55:24Z</time>
  <course>250.08</course>
  <speed>0.6198386886924694</speed>
  <fix>3d</fix>
</trkpt>
<trkpt lat="40.0710392" lon="-105.23104">
  <ele>1583.0</ele>
  <time>2026-08-28T17:55:24Z</time>
  <course>249.85</course>
  <speed>0.58</speed>
  <fix>3d</fix>
</trkpt>
<trkpt lat="40.0710388" lon="-105.2310423">
  <ele>1583.16</ele>
  <time>2026-08-28T17:55:24Z</time>
  <course>249.97</course>
  <speed>0.6419501538281613</speed>
  <fix>3d</fix>
</trkpt>
<trkpt lat="40.0710389" lon="-105.2310414">
  <ele>1583.0</ele>
  <time>2026-08-28T17:55:24Z</time>
  <course>249.65</course>
  <speed>0.62</speed>
  <fix>3d</fix>
</trkpt>
<trkpt lat="40.0710386" lon="-105.231043">
  <ele>1583.16</ele>
  <time>2026-08-28T17:55:24Z</time>
  <course>249.85</course>
  <speed>0.6640783086353597</speed>
  <fix>3d</fix>
</trkpt>
<trkpt lat="40.0710389" lon="-105.2310414">
  <ele>1583.0</ele>
  <time>2026-08-28T17:55:24Z</time>
  <course>249.65</course>
  <speed>0.62</speed>
  <fix>3d</fix>
</trkpt>
<trkpt lat="40.0710384" lon="-105.2310438">
  <ele>1583.16</ele>
  <time>2026-08-28T17:55:24Z</time>
  <course>249.7</course>
  <speed>0.6862215385719105</speed>
  <fix>3d</fix>
</trkpt>
<trkpt lat="40.0710389" lon="-105.2310414">
  <ele>1583.0</ele>
  <time>2026-08-28T17:55:24Z</time>
  <course>249.65</course>
  <speed>0.62</speed>
  <fix>3d</fix>
</trkpt>
<trkpt lat="40.0710382" lon="-105.2310445">
  <ele>1583.16</ele>
  <time>2026-08-28T17:55:24Z</time>
  <course>249.54</course>
  <speed>0.6989277502002621</speed>
  <fix>3d</fix>
</trkpt>
<trkpt lat="40.0710385" lon="-105.2310428">
  <ele>1583.0</ele>
  <time>2026-08-28T17:55:24Z</time>
  <course>249.41</course>
  <speed>0.66</speed>
  <fix>3d</fix>
</trkpt>
<trkpt lat="40.0710379" lon="-105.2310453">
  <ele>1583.16</ele>
  <time>2026-08-28T17:55:24Z</time>
  <course>249.36</course>
  <speed>0.7083784299369935</speed>
  <fix>3d</fix>
</trkpt>
<trkpt lat="40.0710385" lon="-105.2310428">
  <ele>1583.0</ele>
  <time>2026-08-28T17:55:24Z</time>
  <course>249.41</course>
  <speed>0.66</speed>
  <fix>3d</fix>
</trkpt>
<trkpt lat="40.0710377" lon="-105.2310461">
  <ele>1583.16</ele>
  <time>2026-08-28T17:55:24Z</time>
  <course>249.14</course>
  <speed>0.7305477397131552</speed>
  <fix>3d</fix>
</trkpt>
<trkpt lat="40.071038" lon="-105.2310442">
  <ele>1583.0</ele>
  <time>2026-08-28T17:55:24Z</time>
  <course>249.1</course>
  <speed>0.7</speed>
  <fix>3d</fix>
</trkpt>
<trkpt lat="40.0710375" lon="-105.2310469">
  <ele>1583.16</ele>
  <time>2026-08-28T17:55:24Z</time>
  <course>248.9</course>
  <speed>0.7433034373659253</speed>
  <fix>3d</fix>
</trkpt>
<trkpt lat="40.071038" lon="-105.2310442">
  <ele>1583.0</ele>
  <time>2026-08-28T17:55:24Z</time>
  <course>249.1</course>
  <speed>0.7</speed>
  <fix>3d</fix>
</trkpt>
<trkpt lat="40.0710372" lon="-105.2310477">
  <ele>1583.16</ele>
  <time>2026-08-28T17:55:24Z</time>
  <course>248.63</course>
  <speed>0.7561084578286372</speed>
  <fix>3d</fix>
</trkpt>
<trkpt lat="40.0710375" lon="-105.2310459">
  <ele>1583.0</ele>
  <time>2026-08-28T17:55:24Z</time>
  <course>248.69</course>
  <speed>0.73</speed>
  <fix>3d</fix>
</trkpt>
<trkpt lat="40.071037" lon="-105.2310486">
  <ele>1583.16</ele>
  <time>2026-08-28T17:55:24Z</time>
  <course>248.32</course>
  <speed>0.7689603370785778</speed>
  <fix>3d</fix>
</trkpt>
<trkpt lat="40.0710371" lon="-105.2310475">
  <ele>1583.0</ele>
  <time>2026-08-28T17:55:24Z</time>
  <course>248.17</course>
  <speed>0.76</speed>
  <fix>3d</fix>
</trkpt>
<trkpt lat="40.0710367" lon="-105.2310494">
  <ele>1583.16</ele>
  <time>2026-08-28T17:55:24Z</time>
  <course>247.96</course>
  <speed>0.7912016177940993</speed>
  <fix>3d</fix>
</trkpt>
<trkpt lat="40.0710371" lon="-105.2310475">
  <ele>1583.0</ele>
  <time>2026-08-28T17:55:24Z</time>
  <course>248.17</course>
  <speed>0.76</speed>
  <fix>3d</fix>
</trkpt>
<trkpt lat="40.0710364" lon="-105.2310503">
  <ele>1583.16</ele>
  <time>2026-08-28T17:55:24Z</time>
  <course>247.55</course>
  <speed>0.804114419718985</speed>
  <fix>3d</fix>
</trkpt>
<trkpt lat="40.0710365" lon="-105.2310492">
  <ele>1583.0</ele>
  <time>2026-08-28T17:55:24Z</time>
  <course>247.48</course>
  <speed>0.79</speed>
  <fix>3d</fix>
</trkpt>
<trkpt lat="40.0710361" lon="-105.2310512">
  <ele>1583.16</ele>
  <time>2026-08-28T17:55:24Z</time>
  <course>247.07</course>
  <speed>0.8170679286326198</speed>
  <fix>3d</fix>
</trkpt>
<trkpt lat="40.0710365" lon="-105.2310492">
  <ele>1583.0</ele>
  <time>2026-08-28T17:55:24Z</time>
  <course>247.48</course>
  <speed>0.79</speed>
  <fix>3d</fix>
</trkpt>
<trkpt lat="40.0710358" lon="-105.2310521">
  <ele>1583.16</ele>
  <time>2026-08-28T17:55:24Z</time>
  <course>246.52</course>
  <speed>0.8338465086573187</speed>
  <fix>3d</fix>
</trkpt>
<trkpt lat="40.0710359" lon="-105.2310509">
  <ele>1583.0</ele>
  <time>2026-08-28T17:55:24Z</time>
  <course>246.57</course>
  <speed>0.82</speed>
  <fix>3d</fix>
</trkpt>
<trkpt lat="40.0710355" lon="-105.231053">
  <ele>1583.16</ele>
  <time>2026-08-28T17:55:24Z</time>
  <course>245.87</course>
  <speed>0.8469356528095863</speed>
  <fix>3d</fix>
</trkpt>
<trkpt lat="40.0710359" lon="-105.2310509">
  <ele>1583.0</ele>
  <time>2026-08-28T17:55:24Z</time>
  <course>246.57</course>
  <speed>0.82</speed>
  <fix>3d</fix>
</trkpt>
<trkpt lat="40.0710351" lon="-105.2310539">
  <ele>1583.16</ele>
  <time>2026-08-28T17:55:24Z</time>
  <course>245.11</course>
  <speed>0.8640601830891179</speed>
  <fix>3d</fix>
</trkpt>
<trkpt lat="40.0710354" lon="-105.2310527">
  <ele>1583.0</ele>
  <time>2026-08-28T17:55:24Z</time>
  <course>245.35</course>
  <speed>0.85</speed>
  <fix>3d</fix>
</trkpt>
<trkpt lat="40.0710348" lon="-105.2310549">
  <ele>1583.16</ele>
  <time>2026-08-28T17:55:24Z</time>
  <course>244.22</course>
  <speed>0.8814193099768123</speed>
  <fix>3d</fix>
</trkpt>
<trkpt lat="40.0710354" lon="-105.2310527">
  <ele>1583.0</ele>
  <time>2026-08-28T17:55:24Z</time>
  <course>245.35</course>
  <speed>0.85</speed>
  <fix>3d</fix>
</trkpt>
<trkpt lat="40.0710344" lon="-105.2310558">
  <ele>1583.16</ele>
  <time>2026-08-28T17:55:24Z</time>
  <course>243.16</course>
  <speed>0.8989994438263018</speed>
  <fix>3d</fix>
</trkpt>
<trkpt lat="40.0710347" lon="-105.2310546">
  <ele>1583.0</ele>
  <time>2026-08-28T17:55:24Z</time>
  <course>243.66</course>
  <speed>0.89</speed>
  <fix>3d</fix>
</trkpt>
<trkpt lat="40.071034" lon="-105.2310568">
  <ele>1583.16</ele>
  <time>2026-08-28T17:55:24Z</time>
  <course>241.91</course>
  <speed>0.912414379544733</speed>
  <fix>3d</fix>
</trkpt>
<trkpt lat="40.0710347" lon="-105.2310546">
  <ele>1583.0</ele>
  <time>2026-08-28T17:55:24Z</time>
  <course>243.66</course>
  <speed>0.89</speed>
  <fix>3d</fix>
</trkpt>
<trkpt lat="40.0710336" lon="-105.2310577">
  <ele>1583.16</ele>
  <time>2026-08-28T17:55:24Z</time>
  <course>240.43</course>
  <speed>0.9266067126888301</speed>
  <fix>3d</fix>
</trkpt>
<trkpt lat="40.071034" lon="-105.2310565">
  <ele>1583.0</ele>
  <time>2026-08-28T17:55:25Z</time>
  <course>241.31</course>
  <speed>0.92</speed>
  <fix>3d</fix>
</trkpt>
<trkpt lat="40.0710332" lon="-105.2310587">
  <ele>1583.16</ele>
  <time>2026-08-28T17:55:25Z</time>
  <course>238.65</course>
  <speed>0.9415412895885129</speed>
  <fix>3d</fix>
</trkpt>
<trkpt lat="40.071034" lon="-105.2310565">
  <ele>1583.0</ele>
  <time>2026-08-28T17:55:25Z</time>
  <course>241.31</course>
  <speed>0.92</speed>
  <fix>3d</fix>
</trkpt>
<trkpt lat="40.0710327" lon="-105.2310597">
  <ele>1583.15</ele>
  <time>2026-08-28T17:55:25Z</time>
  <course>236.53</course>
  <speed>0.9625487000666512</speed>
  <fix>3d</fix>
</trkpt>
<trkpt lat="40.071033" lon="-105.2310584">
  <ele>1583.0</ele>
  <time>2026-08-28T17:55:25Z</time>
  <course>237.97</course>
  <speed>0.96</speed>
  <fix>3d</fix>
</trkpt>
<trkpt lat="40.0710322" lon="-105.2310606">
  <ele>1583.15</ele>
  <time>2026-08-28T17:55:25Z</time>
  <course>233.97</course>
  <speed>0.9822932352408826</speed>
  <fix>3d</fix>
</trkpt>
<trkpt lat="40.071033" lon="-105.2310584">
  <ele>1583.0</ele>
  <time>2026-08-28T17:55:25Z</time>
  <course>237.97</course>
  <speed>0.96</speed>
  <fix>3d</fix>
</trkpt>
<trkpt lat="40.0710316" lon="-105.2310616">
  <ele>1583.15</ele>
  <time>2026-08-28T17:55:25Z</time>
  <course>230.92</course>
  <speed>1.002646498024104</speed>
  <fix>3d</fix>
</trkpt>
<trkpt lat="40.071033" lon="-105.2310584">
  <ele>1583.0</ele>
  <time>2026-08-28T17:55:25Z</time>
  <course>237.97</course>
  <speed>0.96</speed>
  <fix>3d</fix>
</trkpt>
<trkpt lat="40.071031" lon="-105.2310625">
  <ele>1583.14</ele>
  <time>2026-08-28T17:55:25Z</time>
  <course>227.37</course>
  <speed>1.0191172650877818</speed>
  <fix>3d</fix>
</trkpt>
<trkpt lat="40.071032" lon="-105.2310603">
  <ele>1583.0</ele>
  <time>2026-08-28T17:55:25Z</time>
  <course>233.18</course>
  <speed>0.99</speed>
  <fix>3d</fix>
</trkpt>
<trkpt lat="40.0710303" lon="-105.2310633">
  <ele>1583.14</ele>
  <time>2026-08-28T17:55:25Z</time>
  <course>223.27</course>
  <speed>1.0400480758118829</speed>
  <fix>3d</fix>
</trkpt>
<trkpt lat="40.071032" lon="-105.2310603">
  <ele>1583.0</ele>
  <time>2026-08-28T17:55:25Z</time>
  <course>233.18</course>
  <speed>0.99</speed>
  <fix>3d</fix>
</trkpt>
<trkpt lat="40.0710296" lon="-105.2310641">
  <ele>1583.13</ele>
  <time>2026-08-28T17:55:25Z</time>
  <course>218.58</course>
  <speed>1.0604244433244643</speed>
  <fix>3d</fix>
</trkpt>
<trkpt lat="40.0710309" lon="-105.2310622">
  <ele>1583.0</ele>
  <time>2026-08-28T17:55:25Z</time>
  <course>226.5</course>
  <speed>1.03</speed>
  <fix>3d</fix>
</trkpt>
<trkpt lat="40.0710288" lon="-105.2310648">
  <ele>1583.13</ele>
  <time>2026-08-28T17:55:25Z</time>
  <course>213.25</course>
  <speed>1.0761505470890214</speed>
  <fix>3d</fix>
</trkpt>
<trkpt lat="40.0710309" lon="-105.2310622">
  <ele>1583.0</ele>
  <time>2026-08-28T17:55:25Z</time>
  <course>226.5</course>
  <speed>1.03</speed>
  <fix>3d</fix>
</trkpt>
<trkpt lat="40.0710279" lon="-105.2310655">
  <ele>1583.13</ele>
  <time>2026-08-28T17:55:25Z</time>
  <course>207.26</course>
  <speed>1.095673308974897</speed>
  <fix>3d</fix>
</trkpt>
<trkpt lat="40.0710295" lon="-105.2310638">
  <ele>1583.0</ele>
  <time>2026-08-28T17:55:25Z</time>
  <course>217.63</course>
  <speed>1.07</speed>
  <fix>3d</fix>
</trkpt>
<trkpt lat="40.0710269" lon="-105.231066">
  <ele>1583.13</ele>
  <time>2026-08-28T17:55:25Z</time>
  <course>200.54</course>
  <speed>1.1166467659918242</speed>
  <fix>3d</fix>
</trkpt>
<trkpt lat="40.0710279" lon="-105.2310651">
  <ele>1583.0</ele>
  <time>2026-08-28T17:55:25Z</time>
  <course>206.25</course>
  <speed>1.11</speed>
  <fix>3d</fix>
</trkpt>
<trkpt lat="40.0710259" lon="-105.2310663">
  <ele>1583.13</ele>
  <time>2026-08-28T17:55:25Z</time>
  <course>193.28</course>
  <speed>1.135649593844862</speed>
  <fix>3d</fix>
</trkpt>
<trkpt lat="40.0710279" lon="-105.2310651">
  <ele>1583.0</ele>
  <time>2026-08-28T17:55:25Z</time>
  <course>206.25</course>
  <speed>1.11</speed>
  <fix>3d</fix>
</trkpt>
<trkpt lat="40.0710249" lon="-105.2310665">
  <ele>1583.13</ele>
  <time>2026-08-28T17:55:25Z</time>
  <course>185.82</course>
  <speed>1.163486140871476</speed>
  <fix>3d</fix>
</trkpt>
<trkpt lat="40.0710259" lon="-105.231066">
  <ele>1583.0</ele>
  <time>2026-08-28T17:55:25Z</time>
  <course>192.53</course>
  <speed>1.15</speed>
  <fix>3d</fix>
</trkpt>
<trkpt lat="40.0710238" lon="-105.2310665">
  <ele>1583.13</ele>
  <time>2026-08-28T17:55:25Z</time>
  <course>178.23</course>
  <speed>1.1815244390193544</speed>
  <fix>3d</fix>
</trkpt>
<trkpt lat="40.0710259" lon="-105.231066">
  <ele>1583.0</ele>
  <time>2026-08-28T17:55:25Z</time>
  <course>192.53</course>
  <speed>1.15</speed>
  <fix>3d</fix>
</trkpt>
<trkpt lat="40.0710227" lon="-105.2310663">
  <ele>1583.13</ele>
  <time>2026-08-28T17:55:25Z</time>
  <course>170.6</course>
  <speed>1.2003332870498926</speed>
  <fix>3d</fix>
</trkpt>
<trkpt lat="40.0710238" lon="-105.2310663">
  <ele>1583.0</ele>
  <time>2026-08-28T17:55:25Z</time>
  <course>177.54</course>
  <speed>1.19</speed>
  <fix>3d</fix>
</trkpt>
<trkpt lat="40.0710216" lon="-105.2310659">
  <ele>1583.14</ele>
  <time>2026-08-28T17:55:25Z</time>
  <course>162.8</course>
  <speed>1.2143310915891101</speed>
  <fix>3d</fix>
</trkpt>
<trkpt lat="40.0710238" lon="-105.2310663">
  <ele>1583.0</ele>
  <time>2026-08-28T17:55:25Z</time>
  <course>177.54</course>
  <speed>1.19</speed>
  <fix>3d</fix>
</trkpt>
<trkpt lat="40.0710206" lon="-105.2310654">
  <ele>1583.14</ele>
  <time>2026-08-28T17:55:25Z</time>
  <course>154.91</course>
  <speed>1.2343419299367577</speed>
  <fix>3d</fix>
</trkpt>
<trkpt lat="40.0710217" lon="-105.2310659">
  <ele>1583.0</ele>
  <time>2026-08-28T17:55:25Z</time>
  <course>162.07</course>
  <speed>1.22</speed>
  <fix>3d</fix>
</trkpt>
<trkpt lat="40.0710196" lon="-105.2310646">
  <ele>1583.14</ele>
  <time>2026-08-28T17:55:25Z</time>
  <course>146.95</course>
  <speed>1.2485191228010886</speed>
  <fix>3d</fix>
</trkpt>
<trkpt lat="40.0710217" lon="-105.2310659">
  <ele>1583.0</ele>
  <time>2026-08-28T17:55:25Z</time>
  <course>162.07</course>
  <speed>1.22</speed>
  <fix>3d</fix>
</trkpt>
<trkpt lat="40.0710187" lon="-105.2310636">
  <ele>1583.14</ele>
  <time>2026-08-28T17:55:25Z</time>
  <course>138.87</course>
  <speed>1.2593649193144933</speed>
  <fix>3d</fix>
</trkpt>
<trkpt lat="40.0710197" lon="-105.2310646">
  <ele>1583.0</ele>
  <time>2026-08-28T17:55:25Z</time>
  <course>146.27</course>
  <speed>1.24</speed>
  <fix>3d</fix>
</trkpt>
<trkpt lat="40.0710179" lon="-105.2310625">
  <ele>1583.14</ele>
  <time>2026-08-28T17:55:25Z</time>
  <course>130.82</course>
  <speed>1.2665701717630966</speed>
  <fix>3d</fix>
</trkpt>
<trkpt lat="40.0710197" lon="-105.2310646">
  <ele>1583.0</ele>
  <time>2026-08-28T17:55:25Z</time>
  <course>146.27</course>
  <speed>1.24</speed>
  <fix>3d</fix>
</trkpt>
<trkpt lat="40.0710172" lon="-105.2310612">
  <ele>1583.15</ele>
  <time>2026-08-28T17:55:25Z</time>
  <course>122.77</course>
  <speed>1.2726350615946427</speed>
  <fix>3d</fix>
</trkpt>
<trkpt lat="40.071018" lon="-105.2310627">
  <ele>1583.0</ele>
  <time>2026-08-28T17:55:25Z</time>
  <course>130.27</course>
  <speed>1.25</speed>
  <fix>3d</fix>
</trkpt>
<trkpt lat="40.0710167" lon="-105.2310598">
  <ele>1583.15</ele>
  <time>2026-08-28T17:55:25Z</time>
  <course>115.12</course>
  <speed>1.2684636376341263</speed>
  <fix>3d</fix>
</trkpt>
<trkpt lat="40.071018" lon="-105.2310627">
  <ele>1583.0</ele>
  <time>2026-08-28T17:55:25Z</time>
  <course>130.27</course>
  <speed>1.25</speed>
  <fix>3d</fix>
</trkpt>
<trkpt lat="40.0710163" lon="-105.2310584">
  <ele>1583.15</ele>
  <time>2026-08-28T17:55:25Z</time>
  <course>108.05</course>
  <speed>1.2664912159190052</speed>
  <fix>3d</fix>
</trkpt>
<trkpt lat="40.0710168" lon="-105.2310602">
  <ele>1583.0</ele>
  <time>2026-08-28T17:55:25Z</time>
  <course>114.9</course>
  <speed>1.25</speed>
  <fix>3d</fix>
</trkpt>
<trkpt lat="40.0710161" lon="-105.2310569">
  <ele>1583.15</ele>
  <time>2026-08-28T17:55:25Z</time>
  <course>101.6</course>
  <speed>1.2658988901172163</speed>
  <fix>3d</fix>
</trkpt>
<trkpt lat="40.0710168" lon="-105.2310602">
  <ele>1583.0</ele>
  <time>2026-08-28T17:55:25Z</time>
  <course>114.9</course>
  <speed>1.25</speed>
  <fix>3d</fix>
</trkpt>
<trkpt lat="40.071016" lon="-105.2310554">
  <ele>1583.15</ele>
  <time>2026-08-28T17:55:25Z</time>
  <course>95.83</course>
  <speed>1.2619429464123961</speed>
  <fix>3d</fix>
</trkpt>
<trkpt lat="40.0710168" lon="-105.2310602">
  <ele>1583.0</ele>
  <time>2026-08-28T17:55:25Z</time>
  <course>114.9</course>
  <speed>1.25</speed>
  <fix>3d</fix>
</trkpt>
<trkpt lat="40.0710159" lon="-105.231054">
  <ele>1583.15</ele>
  <time>2026-08-28T17:55:25Z</time>
  <course>90.73</course>
  <speed>1.2603570922560003</speed>
  <fix>3d</fix>
</trkpt>
<trkpt lat="40.0710162" lon="-105.2310574">
  <ele>1583.0</ele>
  <time>2026-08-28T17:55:25Z</time>
  <course>101.42</course>
  <speed>1.24</speed>
  <fix>3d</fix>
</trkpt>
<trkpt lat="40.071016" lon="-105.2310525">
  <ele>1583.15</ele>
  <time>2026-08-28T17:55:25Z</time>
  <course>86.3</course>
  <speed>1.2567418191498205</speed>
  <fix>3d</fix>
</trkpt>
<trkpt lat="40.0710162" lon="-105.2310574">
  <ele>1583.0</ele>
  <time>2026-08-28T17:55:25Z</time>
  <course>101.42</course>
  <speed>1.24</speed>
  <fix>3d</fix>
</trkpt>
<trkpt lat="40.0710162" lon="-105.2310511">
  <ele>1583.15</ele>
  <time>2026-08-28T17:55:25Z</time>
  <course>82.47</course>
  <speed>1.257656550891379</speed>
  <fix>3d</fix>
</trkpt>
<trkpt lat="40.0710159" lon="-105.2310545">
  <ele>1583.0</ele>
  <time>2026-08-28T17:55:25Z</time>
  <course>90.5</course>
  <speed>1.22</speed>
  <fix>3d</fix>
</trkpt>
<trkpt lat="40.0710164" lon="-105.2310496">
  <ele>1583.15</ele>
  <time>2026-08-28T17:55:25Z</time>
  <course>79.21</course>
  <speed>1.2614673994994876</speed>
  <fix>3d</fix>
</trkpt>
<trkpt lat="40.0710159" lon="-105.2310545">
  <ele>1583.0</ele>
  <time>2026-08-28T17:55:25Z</time>
  <course>90.5</course>
  <speed>1.22</speed>
  <fix>3d</fix>
</trkpt>
<trkpt lat="40.0710167" lon="-105.2310482">
  <ele>1583.15</ele>
  <time>2026-08-28T17:55:25Z</time>
  <course>76.43</course>
  <speed>1.2664912159190052</speed>
  <fix>3d</fix>
</trkpt>
<trkpt lat="40.071016" lon="-105.2310517">
  <ele>1583.0</ele>
  <time>2026-08-28T17:55:25Z</time>
  <course>82.18</course>
  <speed>1.22</speed>
  <fix>3d</fix>
</trkpt>
<trkpt lat="40.071017" lon="-105.2310468">
  <ele>1583.15</ele>
  <time>2026-08-28T17:55:25Z</time>
  <course>74.08</course>
  <speed>1.2808200498118385</speed>
  <fix>3d</fix>
</trkpt>
<trkpt lat="40.071016" lon="-105.2310517">
  <ele>1583.0</ele>
  <time>2026-08-28T17:55:25Z</time>
  <course>82.18</course>
  <speed>1.22</speed>
  <fix>3d</fix>
</trkpt>
<trkpt lat="40.0710173" lon="-105.2310454">
  <ele>1583.15</ele>
  <time>2026-08-28T17:55:25Z</time>
  <course>72.09</course>
  <speed>1.296919426949878</speed>
  <fix>3d</fix>
</trkpt>
<trkpt lat="40.0710164" lon="-105.2310488">
  <ele>1583.0</ele>
  <time>2026-08-28T17:55:25Z</time>
  <course>76.05</course>
  <speed>1.23</speed>
  <fix>3d</fix>
</trkpt>
<trkpt lat="40.0710177" lon="-105.231044">
  <ele>1583.15</ele>
  <time>2026-08-28T17:55:25Z</time>
  <course>70.44</course>
  <speed>1.3240090634130872</speed>
  <fix>3d</fix>
</trkpt>
<trkpt lat="40.071017" lon="-105.231046">
  <ele>1583.0</ele>
  <time>2026-08-28T17:55:25Z</time>
  <course>71.67</course>
  <speed>1.27</speed>
  <fix>3d</fix>
</trkpt>
<trkpt lat="40.0710181" lon="-105.2310426">
  <ele>1583.15</ele>
  <time>2026-08-28T17:55:25Z</time>
  <course>69.07</course>
  <speed>1.3577186748365804</speed>
  <fix>3d</fix>
</trkpt>
<trkpt lat="40.071017" lon="-105.231046">
  <ele>1583.0</ele>
  <time>2026-08-28T17:55:25Z</time>
  <course>71.67</course>
  <speed>1.27</speed>
  <fix>3d</fix>
</trkpt>
<trkpt lat="40.0710186" lon="-105.2310411">
  <ele>1583.15</ele>
  <time>2026-08-28T17:55:25Z</time>
  <course>67.93</course>
  <speed>1.387984149765407</speed>
  <fix>3d</fix>
</trkpt>
<trkpt lat="40.0710178" lon="-105.2310431">
  <ele>1583.0</ele>
  <time>2026-08-28T17:55:25Z</time>
  <course>68.59</course>
  <speed>1.33</speed>
  <fix>3d</fix>
</trkpt>
<trkpt lat="40.0710191" lon="-105.2310396">
  <ele>1583.15</ele>
  <time>2026-08-28T17:55:25Z</time>
  <course>67.0</course>
  <speed>1.4408677940741128</speed>
  <fix>3d</fix>
</trkpt>
<trkpt lat="40.0710178" lon="-105.2310431">
  <ele>1583.0</ele>
  <time>2026-08-28T17:55:25Z</time>
  <course>68.59</course>
  <speed>1.33</speed>
  <fix>3d</fix>
</trkpt>
<trkpt lat="40.0710196" lon="-105.2310381">
  <ele>1583.15</ele>
  <time>2026-08-28T17:55:25Z</time>
  <course>66.22</course>
  <speed>1.4940214188558343</speed>
  <fix>3d</fix>
</trkpt>
<trkpt lat="40.0710188" lon="-105.2310402">
  <ele>1583.0</ele>
  <time>2026-08-28T17:55:25Z</time>
  <course>66.48</course>
  <speed>1.42</speed>
  <fix>3d</fix>
</trkpt>
<trkpt lat="40.0710202" lon="-105.2310365">
  <ele>1583.15</ele>
  <time>2026-08-28T17:55:25Z</time>
  <course>65.59</course>
  <speed>1.5474172029546525</speed>
  <fix>3d</fix>
</trkpt>
<trkpt lat="40.0710188" lon="-105.2310402">
  <ele>1583.0</ele>
  <time>2026-08-28T17:55:25Z</time>
  <course>66.48</course>
  <speed>1.42</speed>
  <fix>3d</fix>
</trkpt>
<trkpt lat="40.0710208" lon="-105.2310348">
  <ele>1583.14</ele>
  <time>2026-08-28T17:55:25Z</time>
  <course>65.09</course>
  <speed>1.6099689437998486</speed>
  <fix>3d</fix>
</trkpt>
<trkpt lat="40.0710198" lon="-105.231037">
  <ele>1583.0</ele>
  <time>2026-08-28T17:55:25Z</time>
  <course>65.06</course>
  <speed>1.52</speed>
  <fix>3d</fix>
</trkpt>
<trkpt lat="40.0710214" lon="-105.2310331">
  <ele>1583.14</ele>
  <time>2026-08-28T17:55:25Z</time>
  <course>64.7</course>
  <speed>1.6770509831248424</speed>
  <fix>3d</fix>
</trkpt>
<trkpt lat="40.0710198" lon="-105.231037">
  <ele>1583.0</ele>
  <time>2026-08-28T17:55:25Z</time>
  <course>65.06</course>
  <speed>1.52</speed>
  <fix>3d</fix>
</trkpt>
<trkpt lat="40.0710221" lon="-105.2310313">
  <ele>1583.14</ele>
  <time>2026-08-28T17:55:25Z</time>
  <course>64.4</course>
  <speed>1.7486280336309377</speed>
  <fix>3d</fix>
</trkpt>
<trkpt lat="40.0710211" lon="-105.2310336">
  <ele>1583.0</ele>
  <time>2026-08-28T17:55:25Z</time>
  <course>64.16</course>
  <speed>1.65</speed>
  <fix>3d</fix>
</trkpt>
<trkpt lat="40.0710228" lon="-105.2310294">
  <ele>1583.14</ele>
  <time>2026-08-28T17:55:25Z</time>
  <course>64.17</course>
  <speed>1.8291528093628484</speed>
  <fix>3d</fix>
</trkpt>
<trkpt lat="40.0710211" lon="-105.2310336">
  <ele>1583.0</ele>
  <time>2026-08-28T17:55:25Z</time>
  <course>64.16</course>
  <speed>1.65</speed>
  <fix>3d</fix>
</trkpt>
<trkpt lat="40.0710236" lon="-105.2310274">
  <ele>1583.14</ele>
  <time>2026-08-28T17:55:25Z</time>
  <course>64.01</course>
  <speed>1.909685838037241</speed>
  <fix>3d</fix>
</trkpt>
<trkpt lat="40.0710225" lon="-105.2310299">
  <ele>1583.0</ele>
  <time>2026-08-28T17:55:25Z</time>
  <course>63.61</course>
  <speed>1.81</speed>
  <fix>3d</fix>
</trkpt>
<trkpt lat="40.0710244" lon="-105.2310253">
  <ele>1583.14</ele>
  <time>2026-08-28T17:55:25Z</time>
  <course>63.9</course>
  <speed>1.990226117806718</speed>
  <fix>3d</fix>
</trkpt>
<trkpt lat="40.0710225" lon="-105.2310299">
  <ele>1583.0</ele>
  <time>2026-08-28T17:55:25Z</time>
  <course>63.61</course>
  <speed>1.81</speed>
  <fix>3d</fix>
</trkpt>
<trkpt lat="40.0710252" lon="-105.2310232">
  <ele>1583.14</ele>
  <time>2026-08-28T17:55:25Z</time>
  <course>63.84</course>
  <speed>2.079663434308542</speed>
  <fix>3d</fix>
</trkpt>
<trkpt lat="40.0710239" lon="-105.231026">
  <ele>1583.0</ele>
  <time>2026-08-28T17:55:25Z</time>
  <course>63.33</course>
  <speed>1.98</speed>
  <fix>3d</fix>
</trkpt>
<trkpt lat="40.0710261" lon="-105.2310209">
  <ele>1583.14</ele>
  <time>2026-08-28T17:55:25Z</time>
  <course>63.82</course>
  <speed>2.178003673091485</speed>
  <fix>3d</fix>
</trkpt>
<trkpt lat="40.0710239" lon="-105.231026">
  <ele>1583.0</ele>
  <time>2026-08-28T17:55:25Z</time>
  <course>63.33</course>
  <speed>1.98</speed>
  <fix>3d</fix>
</trkpt>
<trkpt lat="40.071027" lon="-105.2310186">
  <ele>1583.14</ele>
  <time>2026-08-28T17:55:25Z</time>
  <course>63.82</course>
  <speed>2.272003521124032</speed>
  <fix>3d</fix>
</trkpt>
<trkpt lat="40.0710239" lon="-105.231026">
  <ele>1583.0</ele>
  <time>2026-08-28T17:55:25Z</time>
  <course>63.33</course>
  <speed>1.98</speed>
  <fix>3d</fix>
</trkpt>
<trkpt lat="40.0710279" lon="-105.2310162">
  <ele>1583.14</ele>
  <time>2026-08-28T17:55:25Z</time>
  <course>63.83</course>
  <speed>2.3703375287076733</speed>
  <fix>3d</fix>
</trkpt>
<trkpt lat="40.0710256" lon="-105.2310216">
  <ele>1583.0</ele>
  <time>2026-08-28T17:55:25Z</time>
  <course>63.23</course>
  <speed>2.16</speed>
  <fix>3d</fix>
</trkpt>
<trkpt lat="40.0710289" lon="-105.2310136">
  <ele>1583.14</ele>
  <time>2026-08-28T17:55:25Z</time>
  <course>63.87</course>
  <speed>2.4597764126033894</speed>
  <fix>3d</fix>
</trkpt>
<trkpt lat="40.0710256" lon="-105.2310216">
  <ele>1583.0</ele>
  <time>2026-08-28T17:55:25Z</time>
  <course>63.23</course>
  <speed>2.16</speed>
  <fix>3d</fix>
</trkpt>
<trkpt lat="40.0710299" lon="-105.231011">
  <ele>1583.14</ele>
  <time>2026-08-28T17:55:25Z</time>
  <course>63.93</course>
  <speed>2.553605294480727</speed>
  <fix>3d</fix>
</trkpt>
<trkpt lat="40.0710275" lon="-105.2310169">
  <ele>1583.0</ele>
  <time>2026-08-28T17:55:25Z</time>
  <course>63.24</course>
  <speed>2.35</speed>
  <fix>3d</fix>
</trkpt>
<trkpt lat="40.0710309" lon="-105.2310083">
  <ele>1583.15</ele>
  <time>2026-08-28T17:55:25Z</time>
  <course>64.0</course>
  <speed>2.651980392084376</speed>
  <fix>3d</fix>
</trkpt>
<trkpt lat="40.0710275" lon="-105.2310169">
  <ele>1583.0</ele>
  <time>2026-08-28T17:55:25Z</time>
  <course>63.24</course>
  <speed>2.35</speed>
  <fix>3d</fix>
</trkpt>
<trkpt lat="40.071032" lon="-105.2310055">
  <ele>1583.15</ele>
  <time>2026-08-28T17:55:25Z</time>
  <course>64.1</course>
  <speed>2.7503636123247412</speed>
  <fix>3d</fix>
</trkpt>
<trkpt lat="40.0710294" lon="-105.2310118">
  <ele>1583.0</ele>
  <time>2026-08-28T17:55:25Z</time>
  <course>63.33</course>
  <speed>2.55</speed>
  <fix>3d</fix>
</trkpt>
<trkpt lat="40.0710331" lon="-105.2310025">
  <ele>1583.15</ele>
  <time>2026-08-28T17:55:25Z</time>
  <course>64.22</course>
  <speed>2.8487541136433663</speed>
  <fix>3d</fix>
</trkpt>
<trkpt lat="40.0710316" lon="-105.2310062">
  <ele>1583.0</ele>
  <time>2026-08-28T17:55:25Z</time>
  <course>63.5</course>
  <speed>2.75</speed>
  <fix>3d</fix>
</trkpt>
<trkpt lat="40.0710342" lon="-105.2309994">
  <ele>1583.15</ele>
  <time>2026-08-28T17:55:25Z</time>
  <course>64.34</course>
  <speed>2.9561123118041372</speed>
  <fix>3d</fix>
</trkpt>
<trkpt lat="40.0710316" lon="-105.2310062">
  <ele>1583.0</ele>
  <time>2026-08-28T17:55:25Z</time>
  <course>63.5</course>
  <speed>2.75</speed>
  <fix>3d</fix>
</trkpt>
<trkpt lat="40.0710354" lon="-105.2309962">
  <ele>1583.15</ele>
  <time>2026-08-28T17:55:25Z</time>
  <course>64.47</course>
  <speed>3.050114751939671</speed>
  <fix>3d</fix>
</trkpt>
<trkpt lat="40.0710338" lon="-105.2310002">
  <ele>1583.0</ele>
  <time>2026-08-28T17:55:25Z</time>
  <course>63.73</course>
  <speed>2.95</speed>
  <fix>3d</fix>
</trkpt>
<trkpt lat="40.0710366" lon="-105.230993">
  <ele>1583.15</ele>
  <time>2026-08-28T17:55:25Z</time>
  <course>64.59</course>
  <speed>3.157530680769389</speed>
  <fix>3d</fix>
</trkpt>
<trkpt lat="40.0710338" lon="-105.2310002">
  <ele>1583.0</ele>
  <time>2026-08-28T17:55:25Z</time>
  <course>63.73</course>
  <speed>2.95</speed>
  <fix>3d</fix>
</trkpt>
<trkpt lat="40.0710379" lon="-105.2309895">
  <ele>1583.14</ele>
  <time>2026-08-28T17:55:25Z</time>
  <course>64.73</course>
  <speed>3.2559637590120682</speed>
  <fix>3d</fix>
</trkpt>
<trkpt lat="40.0710363" lon="-105.2309937">
  <ele>1583.0</ele>
  <time>2026-08-28T17:55:25Z</time>
  <course>63.98</course>
  <speed>3.15</speed>
  <fix>3d</fix>
</trkpt>
<trkpt lat="40.0710392" lon="-105.230986">
  <ele>1583.15</ele>
  <time>2026-08-28T17:55:25Z</time>
  <course>64.87</course>
  <speed>3.350059700960567</speed>
  <fix>3d</fix>
</trkpt>
<trkpt lat="40.0710363" lon="-105.2309937">
  <ele>1583.0</ele>
  <time>2026-08-28T17:55:25Z</time>
  <course>63.98</course>
  <speed>3.15</speed>
  <fix>3d</fix>
</trkpt>
<trkpt lat="40.0710405" lon="-105.2309823">
  <ele>1583.15</ele>
  <time>2026-08-28T17:55:25Z</time>
  <course>65.01</course>
  <speed>3.453230371695465</speed>
  <fix>3d</fix>
</trkpt>
<trkpt lat="40.0710389" lon="-105.2309869">
  <ele>1583.0</ele>
  <time>2026-08-28T17:55:25Z</time>
  <course>64.24</course>
  <speed>3.35</speed>
  <fix>3d</fix>
</trkpt>
<trkpt lat="40.0710419" lon="-105.2309785">
  <ele>1583.15</ele>
  <time>2026-08-28T17:55:25Z</time>
  <course>65.15</course>
  <speed>3.551689738701848</speed>
  <fix>3d</fix>
</trkpt>
<trkpt lat="40.0710389" lon="-105.2309869">
  <ele>1583.0</ele>
  <time>2026-08-28T17:55:25Z</time>
  <course>64.24</course>
  <speed>3.35</speed>
  <fix>3d</fix>
</trkpt>
<trkpt lat="40.0710433" lon="-105.2309747">
  <ele>1583.14</ele>
  <time>2026-08-28T17:55:25Z</time>
  <course>65.3</course>
  <speed>3.6458880948268284</speed>
  <fix>3d</fix>
</trkpt>
<trkpt lat="40.0710415" lon="-105.2309796">
  <ele>1583.0</ele>
  <time>2026-08-28T17:55:25Z</time>
  <course>64.52</course>
  <speed>3.54</speed>
  <fix>3d</fix>
</trkpt>
<trkpt lat="40.0710447" lon="-105.2309707">
  <ele>1583.14</ele>
  <time>2026-08-28T17:55:26Z</time>
  <course>65.45</course>
  <speed>3.7491865784460496</speed>
  <fix>3d</fix>
</trkpt>
<trkpt lat="40.0710415" lon="-105.2309796">
  <ele>1583.0</ele>
  <time>2026-08-28T17:55:26Z</time>
  <course>64.52</course>
  <speed>3.54</speed>
  <fix>3d</fix>
</trkpt>
<trkpt lat="40.0710462" lon="-105.2309666">
  <ele>1583.14</ele>
  <time>2026-08-28T17:55:26Z</time>
  <course>65.61</course>
  <speed>3.8434619810790376</speed>
  <fix>3d</fix>
</trkpt>
<trkpt lat="40.0710443" lon="-105.2309718">
  <ele>1583.0</ele>
  <time>2026-08-28T17:55:26Z</time>
  <course>64.82</course>
  <speed>3.74</speed>
  <fix>3d</fix>
</trkpt>
<trkpt lat="40.0710476" lon="-105.2309624">
  <ele>1583.15</ele>
  <time>2026-08-28T17:55:26Z</time>
  <course>65.77</course>
  <speed>3.9377658640401667</speed>
  <fix>3d</fix>
</trkpt>
<trkpt lat="40.0710443" lon="-105.2309718">
  <ele>1583.0</ele>
  <time>2026-08-28T17:55:26Z</time>
  <course>64.82</course>
  <speed>3.74</speed>
  <fix>3d</fix>
</trkpt>
<trkpt lat="40.0710491" lon="-105.2309581">
  <ele>1583.15</ele>
  <time>2026-08-28T17:55:26Z</time>
  <course>65.93</course>
  <speed>4.032096229010413</speed>
  <fix>3d</fix>
</trkpt>
<trkpt lat="40.0710473" lon="-105.2309637">
  <ele>1583.0</ele>
  <time>2026-08-28T17:55:26Z</time>
  <course>65.13</course>
  <speed>3.93</speed>
  <fix>3d</fix>
</trkpt>
<trkpt lat="40.0710507" lon="-105.2309537">
  <ele>1583.15</ele>
  <time>2026-08-28T17:55:26Z</time>
  <course>66.08</course>
  <speed>4.126451259859978</speed>
  <fix>3d</fix>
</trkpt>
<trkpt lat="40.0710473" lon="-105.2309637">
  <ele>1583.0</ele>
  <time>2026-08-28T17:55:26Z</time>
  <course>65.13</course>
  <speed>3.93</speed>
  <fix>3d</fix>
</trkpt>
<trkpt lat="40.0710522" lon="-105.2309492">
  <ele>1583.15</ele>
  <time>2026-08-28T17:55:26Z</time>
  <course>66.21</course>
  <speed>4.2208293024001815</speed>
  <fix>3d</fix>
</trkpt>
<trkpt lat="40.0710473" lon="-105.2309637">
  <ele>1583.0</ele>
  <time>2026-08-28T17:55:26Z</time>
  <course>65.13</course>
  <speed>3.93</speed>
  <fix>3d</fix>
</trkpt>
<trkpt lat="40.0710538" lon="-105.2309446">
  <ele>1583.15</ele>
  <time>2026-08-28T17:55:26Z</time>
  <course>66.35</course>
  <speed>4.31522884677047</speed>
  <fix>3d</fix>
</trkpt>
<trkpt lat="40.0710503" lon="-105.2309551">
  <ele>1583.0</ele>
  <time>2026-08-28T17:55:26Z</time>
  <course>65.42</course>
  <speed>4.11</speed>
  <fix>3d</fix>
</trkpt>
<trkpt lat="40.0710554" lon="-105.23094">
  <ele>1583.15</ele>
  <time>2026-08-28T17:55:26Z</time>
  <course>66.47</course>
  <speed>4.396453115865106</speed>
  <fix>3d</fix>
</trkpt>
<trkpt lat="40.0710503" lon="-105.2309551">
  <ele>1583.0</ele>
  <time>2026-08-28T17:55:26Z</time>
  <course>65.42</course>
  <speed>4.11</speed>
  <fix>3d</fix>
</trkpt>
<trkpt lat="40.071057" lon="-105.2309352">
  <ele>1583.15</ele>
  <time>2026-08-28T17:55:26Z</time>
  <course>66.59</course>
  <speed>4.490901913869863</speed>
  <fix>3d</fix>
</trkpt>
<trkpt lat="40.0710534" lon="-105.2309461">
  <ele>1583.0</ele>
  <time>2026-08-28T17:55:26Z</time>
  <course>65.68</course>
  <speed>4.3</speed>
  <fix>3d</fix>
</trkpt>
<trkpt lat="40.0710587" lon="-105.2309304">
  <ele>1583.15</ele>
  <time>2026-08-28T17:55:26Z</time>
  <course>66.71</course>
  <speed>4.585368033211729</speed>
  <fix>3d</fix>
</trkpt>
<trkpt lat="40.0710534" lon="-105.2309461">
  <ele>1583.0</ele>
  <time>2026-08-28T17:55:26Z</time>
  <course>65.68</course>
  <speed>4.3</speed>
  <fix>3d</fix>
</trkpt>
<trkpt lat="40.0710603" lon="-105.2309254">
  <ele>1583.15</ele>
  <time>2026-08-28T17:55:26Z</time>
  <course>66.84</course>
  <speed>4.666690476129737</speed>
  <fix>3d</fix>
</trkpt>
<trkpt lat="40.0710566" lon="-105.2309367">
  <ele>1583.0</ele>
  <time>2026-08-28T17:55:26Z</time>
  <course>65.93</course>
  <speed>4.48</speed>
  <fix>3d</fix>
</trkpt>
<trkpt lat="40.071062" lon="-105.2309204">
  <ele>1583.15</ele>
  <time>2026-08-28T17:55:26Z</time>
  <course>66.97</course>
  <speed>4.7611973284038545</speed>
  <fix>3d</fix>
</trkpt>
<trkpt lat="40.0710566" lon="-105.2309367">
  <ele>1583.0</ele>
  <time>2026-08-28T17:55:26Z</time>
  <course>65.93</course>
  <speed>4.48</speed>
  <fix>3d</fix>
</trkpt>
<trkpt lat="40.0710637" lon="-105.2309152">
  <ele>1583.14</ele>
  <time>2026-08-28T17:55:26Z</time>
  <course>67.1</course>
  <speed>4.855718278483627</speed>
  <fix>3d</fix>
</trkpt>
<trkpt lat="40.07106" lon="-105.2309269">
  <ele>1583.0</ele>
  <time>2026-08-28T17:55:26Z</time>
  <course>66.18</course>
  <speed>4.67</speed>
  <fix>3d</fix>
</trkpt>
<trkpt lat="40.0710655" lon="-105.2309099">
  <ele>1583.14</ele>
  <time>2026-08-28T17:55:26Z</time>
  <course>67.24</course>
  <speed>4.9463218657907815</speed>
  <fix>3d</fix>
</trkpt>
<trkpt lat="40.0710634" lon="-105.2309166">
  <ele>1583.0</ele>
  <time>2026-08-28T17:55:26Z</time>
  <course>66.44</course>
  <speed>4.86</speed>
  <fix>3d</fix>
</trkpt>
<trkpt lat="40.0710673" lon="-105.2309045">
  <ele>1583.14</ele>
  <time>2026-08-28T17:55:26Z</time>
  <course>67.36</course>
  <speed>5.031679640040689</speed>
  <fix>3d</fix>
</trkpt>
<trkpt lat="40.0710634" lon="-105.2309166">
  <ele>1583.0</ele>
  <time>2026-08-28T17:55:26Z</time>
  <course>66.44</course>
  <speed>4.86</speed>
  <fix>3d</fix>
</trkpt>
<trkpt lat="40.071069" lon="-105.2308991">
  <ele>1583.15</ele>
  <time>2026-08-28T17:55:26Z</time>
  <course>67.46</course>
  <speed>5.113139935499516</speed>
  <fix>3d</fix>
</trkpt>
<trkpt lat="40.071067" lon="-105.2309059">
  <ele>1583.0</ele>
  <time>2026-08-28T17:55:26Z</time>
  <course>66.68</course>
  <speed>5.04</speed>
  <fix>3d</fix>
</trkpt>
<trkpt lat="40.0710709" lon="-105.2308934">
  <ele>1583.15</ele>
  <time>2026-08-28T17:55:26Z</time>
  <course>67.53</course>
  <speed>5.185412230478885</speed>
  <fix>3d</fix>
</trkpt>
<trkpt lat="40.071067" lon="-105.2309059">
  <ele>1583.0</ele>
  <time>2026-08-28T17:55:26Z</time>
  <course>66.68</course>
  <speed>5.04</speed>
  <fix>3d</fix>
</trkpt>
<trkpt lat="40.0710727" lon="-105.2308877">
  <ele>1583.14</ele>
  <time>2026-08-28T17:55:26Z</time>
  <course>67.6</course>
  <speed>5.248475969269556</speed>
  <fix>3d</fix>
</trkpt>
<trkpt lat="40.0710706" lon="-105.2308949">
  <ele>1583.0</ele>
  <time>2026-08-28T17:55:26Z</time>
  <course>66.86</course>
  <speed>5.19</speed>
  <fix>3d</fix>
</trkpt>
<trkpt lat="40.0710746" lon="-105.230882">
  <ele>1583.14</ele>
  <time>2026-08-28T17:55:26Z</time>
  <course>67.67</course>
  <speed>5.298462041007749</speed>
  <fix>3d</fix>
</trkpt>
<trkpt lat="40.0710706" lon="-105.2308949">
  <ele>1583.0</ele>
  <time>2026-08-28T17:55:26Z</time>
  <course>66.86</course>
  <speed>5.19</speed>
  <fix>3d</fix>
</trkpt>
<trkpt lat="40.0710765" lon="-105.2308761">
  <ele>1583.15</ele>
  <time>2026-08-28T17:55:26Z</time>
  <course>67.74</course>
  <speed>5.33</speed>
  <fix>3d</fix>
</trkpt>
<trkpt lat="40.0710743" lon="-105.2308835">
  <ele>1583.0</ele>
  <time>2026-08-28T17:55:26Z</time>
  <course>67.0</course>
  <speed>5.3</speed>
  <fix>3d</fix>
</trkpt>
<trkpt lat="40.0710784" lon="-105.2308702">
  <ele>1583.15</ele>
  <time>2026-08-28T17:55:26Z</time>
  <course>67.82</course>
  <speed>5.357704732439069</speed>
  <fix>3d</fix>
</trkpt>
<trkpt lat="40.0710743" lon="-105.2308835">
  <ele>1583.0</ele>
  <time>2026-08-28T17:55:26Z</time>
  <course>67.0</course>
  <speed>5.3</speed>
  <fix>3d</fix>
</trkpt>
<trkpt lat="40.0710803" lon="-105.2308644">
  <ele>1583.15</ele>
  <time>2026-08-28T17:55:26Z</time>
  <course>67.89</course>
  <speed>5.366945127351313</speed>
  <fix>3d</fix>
</trkpt>
<trkpt lat="40.071078" lon="-105.230872">
  <ele>1583.0</ele>
  <time>2026-08-28T17:55:26Z</time>
  <course>67.15</course>
  <speed>5.35</speed>
  <fix>3d</fix>
</trkpt>
<trkpt lat="40.0710821" lon="-105.2308585">
  <ele>1583.15</ele>
  <time>2026-08-28T17:55:26Z</time>
  <course>67.96</course>
  <speed>5.376188240751992</speed>
  <fix>3d</fix>
</trkpt>
<trkpt lat="40.071078" lon="-105.230872">
  <ele>1583.0</ele>
  <time>2026-08-28T17:55:26Z</time>
  <course>67.15</course>
  <speed>5.35</speed>
  <fix>3d</fix>
</trkpt>
<trkpt lat="40.071084" lon="-105.2308526">
  <ele>1583.15</ele>
  <time>2026-08-28T17:55:26Z</time>
  <course>68.04</course>
  <speed>5.372383083883725</speed>
  <fix>3d</fix>
</trkpt>
<trkpt lat="40.0710817" lon="-105.2308604">
  <ele>1583.0</ele>
  <time>2026-08-28T17:55:26Z</time>
  <course>67.29</course>
  <speed>5.37</speed>
  <fix>3d</fix>
</trkpt>
<trkpt lat="40.0710859" lon="-105.2308468">
  <ele>1583.15</ele>
  <time>2026-08-28T17:55:26Z</time>
  <course>68.11</course>
  <speed>5.359337645642416</speed>
  <fix>3d</fix>
</trkpt>
<trkpt lat="40.0710817" lon="-105.2308604">
  <ele>1583.0</ele>
  <time>2026-08-28T17:55:26Z</time>
  <course>67.29</course>
  <speed>5.37</speed>
  <fix>3d</fix>
</trkpt>
<trkpt lat="40.0710877" lon="-105.2308409">
  <ele>1583.14</ele>
  <time>2026-08-28T17:55:26Z</time>
  <course>68.19</course>
  <speed>5.337040378337042</speed>
  <fix>3d</fix>
</trkpt>
<trkpt lat="40.0710854" lon="-105.2308487">
  <ele>1583.0</ele>
  <time>2026-08-28T17:55:26Z</time>
  <course>67.44</course>
  <speed>5.36</speed>
  <fix>3d</fix>
</trkpt>
<trkpt lat="40.0710896" lon="-105.2308351">
  <ele>1583.14</ele>
  <time>2026-08-28T17:55:26Z</time>
  <course>68.26</course>
  <speed>5.324002253943926</speed>
  <fix>3d</fix>
</trkpt>
<trkpt lat="40.0710854" lon="-105.2308487">
  <ele>1583.0</ele>
  <time>2026-08-28T17:55:26Z</time>
  <course>67.44</course>
  <speed>5.36</speed>
  <fix>3d</fix>
</trkpt>
<trkpt lat="40.0710914" lon="-105.2308293">
  <ele>1583.15</ele>
  <time>2026-08-28T17:55:26Z</time>
  <course>68.33</course>
  <speed>5.2979429970508365</speed>
  <fix>3d</fix>
</trkpt>
<trkpt lat="40.0710854" lon="-105.2308487">
  <ele>1583.0</ele>
  <time>2026-08-28T17:55:26Z</time>
  <course>67.44</course>
  <speed>5.36</speed>
  <fix>3d</fix>
</trkpt>
<trkpt lat="40.0710932" lon="-105.2308236">
  <ele>1583.15</ele>
  <time>2026-08-28T17:55:26Z</time>
  <course>68.42</course>
  <speed>5.262632421136783</speed>
  <fix>3d</fix>
</trkpt>
<trkpt lat="40.0710891" lon="-105.2308372">
  <ele>1583.0</ele>
  <time>2026-08-28T17:55:26Z</time>
  <course>67.58</course>
  <speed>5.32</speed>
  <fix>3d</fix>
</trkpt>
<trkpt lat="40.0710949" lon="-105.2308179">
  <ele>1583.15</ele>
  <time>2026-08-28T17:55:26Z</time>
  <course>68.51</course>
  <speed>5.236611499815506</speed>
  <fix>3d</fix>
</trkpt>
<trkpt lat="40.0710891" lon="-105.2308372">
  <ele>1583.0</ele>
  <time>2026-08-28T17:55:26Z</time>
  <course>67.58</course>
  <speed>5.32</speed>
  <fix>3d</fix>
</trkpt>
<trkpt lat="40.0710967" lon="-105.2308123">
  <ele>1583.15</ele>
  <time>2026-08-28T17:55:26Z</time>
  <course>68.61</course>
  <speed>5.201326753819644</speed>
  <fix>3d</fix>
</trkpt>
<trkpt lat="40.0710927" lon="-105.2308256">
  <ele>1583.0</ele>
  <time>2026-08-28T17:55:26Z</time>
  <course>67.74</course>
  <speed>5.27</speed>
  <fix>3d</fix>
</trkpt>
<trkpt lat="40.0710984" lon="-105.2308067">
  <ele>1583.15</ele>
  <time>2026-08-28T17:55:26Z</time>
  <course>68.69</course>
  <speed>5.169758214849123</speed>
  <fix>3d</fix>
</trkpt>
<trkpt lat="40.0710927" lon="-105.2308256">
  <ele>1583.0</ele>
  <time>2026-08-28T17:55:26Z</time>
  <course>67.74</course>
  <speed>5.27</speed>
  <fix>3d</fix>
</trkpt>
<trkpt lat="40.0711001" lon="-105.2308011">
  <ele>1583.15</ele>
  <time>2026-08-28T17:55:26Z</time>
  <course>68.79</course>
  <speed>5.143772934335263</speed>
  <fix>3d</fix>
</trkpt>
<trkpt lat="40.0710963" lon="-105.2308142">
  <ele>1583.0</ele>
  <time>2026-08-28T17:55:26Z</time>
  <course>67.91</course>
  <speed>5.22</speed>
  <fix>3d</fix>
</trkpt>
<trkpt lat="40.0711019" lon="-105.2307955">
  <ele>1583.15</ele>
  <time>2026-08-28T17:55:26Z</time>
  <course>68.86</course>
  <speed>5.108512503655051</speed>
  <fix>3d</fix>
</trkpt>
<trkpt lat="40.0710998" lon="-105.2308028">
  <ele>1583.0</ele>
  <time>2026-08-28T17:55:26Z</time>
  <course>68.08</course>
  <speed>5.16</speed>
  <fix>3d</fix>
</trkpt>
<trkpt lat="40.0711036" lon="-105.23079">
  <ele>1583.15</ele>
  <time>2026-08-28T17:55:26Z</time>
  <course>68.95</course>
  <speed>5.086236329546633</speed>
  <fix>3d</fix>
</trkpt>
<trkpt lat="40.0710998" lon="-105.2308028">
  <ele>1583.0</ele>
  <time>2026-08-28T17:55:26Z</time>
  <course>68.08</course>
  <speed>5.16</speed>
  <fix>3d</fix>
</trkpt>
<trkpt lat="40.0711053" lon="-105.2307844">
  <ele>1583.15</ele>
  <time>2026-08-28T17:55:26Z</time>
  <course>69.02</course>
  <speed>5.060296434004632</speed>
  <fix>3d</fix>
</trkpt>
<trkpt lat="40.0711033" lon="-105.2307917">
  <ele>1583.0</ele>
  <time>2026-08-28T17:55:26Z</time>
  <course>68.24</course>
  <speed>5.12</speed>
  <fix>3d</fix>
</trkpt>
<trkpt lat="40.0711069" lon="-105.2307789">
  <ele>1583.15</ele>
  <time>2026-08-28T17:55:26Z</time>
  <course>69.1</course>
  <speed>5.038025406843439</speed>
  <fix>3d</fix>
</trkpt>
<trkpt lat="40.0711033" lon="-105.2307917">
  <ele>1583.0</ele>
  <time>2026-08-28T17:55:26Z</time>
  <course>68.24</course>
  <speed>5.12</speed>
  <fix>3d</fix>
</trkpt>
<trkpt lat="40.0711086" lon="-105.2307734">
  <ele>1583.15</ele>
  <time>2026-08-28T17:55:26Z</time>
  <course>69.17</course>
  <speed>5.025067163730252</speed>
  <fix>3d</fix>
</trkpt>
<trkpt lat="40.0711067" lon="-105.2307805">
  <ele>1583.0</ele>
  <time>2026-08-28T17:55:26Z</time>
  <course>68.39</course>
  <speed>5.07</speed>
  <fix>3d</fix>
</trkpt>
<trkpt lat="40.0711103" lon="-105.2307679">
  <ele>1583.15</ele>
  <time>2026-08-28T17:55:26Z</time>
  <course>69.24</course>
  <speed>5.002799216438733</speed>
  <fix>3d</fix>
</trkpt>
<trkpt lat="40.0711067" lon="-105.2307805">
  <ele>1583.0</ele>
  <time>2026-08-28T17:55:26Z</time>
  <course>68.39</course>
  <speed>5.07</speed>
  <fix>3d</fix>
</trkpt>
<trkpt lat="40.0711119" lon="-105.2307624">
  <ele>1583.15</ele>
  <time>2026-08-28T17:55:26Z</time>
  <course>69.31</course>
  <speed>4.986231041578399</speed>
  <fix>3d</fix>
</trkpt>
<trkpt lat="40.07111" lon="-105.2307694">
  <ele>1583.0</ele>
  <time>2026-08-28T17:55:27Z</time>
  <course>68.54</course>
  <speed>5.04</speed>
  <fix>3d</fix>
</trkpt>
<trkpt lat="40.0711136" lon="-105.2307568">
  <ele>1583.15</ele>
  <time>2026-08-28T17:55:27Z</time>
  <course>69.38</course>
  <speed>4.976906669810074</speed>
  <fix>3d</fix>
</trkpt>
<trkpt lat="40.07111" lon="-105.2307694">
  <ele>1583.0</ele>
  <time>2026-08-28T17:55:27Z</time>
  <course>68.54</course>
  <speed>5.04</speed>
  <fix>3d</fix>
</trkpt>
<trkpt lat="40.0711152" lon="-105.2307513">
  <ele>1583.15</ele>
  <time>2026-08-28T17:55:27Z</time>
  <course>69.45</course>
  <speed>4.9732987040796175</speed>
  <fix>3d</fix>
</trkpt>
<trkpt lat="40.0711132" lon="-105.2307585">
  <ele>1583.0</ele>
  <time>2026-08-28T17:55:27Z</time>
  <course>68.67</course>
  <speed>5.02</speed>
  <fix>3d</fix>
</trkpt>
<trkpt lat="40.0711169" lon="-105.2307458">
  <ele>1583.15</ele>
  <time>2026-08-28T17:55:27Z</time>
  <course>69.52</course>
  <speed>4.960372969848135</speed>
  <fix>3d</fix>
</trkpt>
<trkpt lat="40.0711132" lon="-105.2307585">
  <ele>1583.0</ele>
  <time>2026-08-28T17:55:27Z</time>
  <course>68.67</course>
  <speed>5.02</speed>
  <fix>3d</fix>
</trkpt>
<trkpt lat="40.0711185" lon="-105.2307403">
  <ele>1583.16</ele>
  <time>2026-08-28T17:55:27Z</time>
  <course>69.59</course>
  <speed>4.956793318265348</speed>
  <fix>3d</fix>
</trkpt>
<trkpt lat="40.0711165" lon="-105.2307476">
  <ele>1583.0</ele>
  <time>2026-08-28T17:55:27Z</time>
  <course>68.81</course>
  <speed>5.0</speed>
  <fix>3d</fix>
</trkpt>
<trkpt lat="40.0711201" lon="-105.2307349">
  <ele>1583.16</ele>
  <time>2026-08-28T17:55:27Z</time>
  <course>69.66</course>
  <speed>4.9532312685761</speed>
  <fix>3d</fix>
</trkpt>
<trkpt lat="40.0711165" lon="-105.2307476">
  <ele>1583.0</ele>
  <time>2026-08-28T17:55:27Z</time>
  <course>68.81</course>
  <speed>5.0</speed>
  <fix>3d</fix>
</trkpt>
<trkpt lat="40.0711217" lon="-105.2307294">
  <ele>1583.16</ele>
  <time>2026-08-28T17:55:27Z</time>
  <course>69.73</course>
  <speed>4.9438851119337315</speed>
  <fix>3d</fix>
</trkpt>
<trkpt lat="40.0711198" lon="-105.2307366">
  <ele>1583.0</ele>
  <time>2026-08-28T17:55:27Z</time>
  <course>68.95</course>
  <speed>4.99</speed>
  <fix>3d</fix>
</trkpt>
<trkpt lat="40.0711233" lon="-105.2307239">
  <ele>1583.16</ele>
  <time>2026-08-28T17:55:27Z</time>
  <course>69.8</course>
  <speed>4.940333996806289</speed>
  <fix>3d</fix>
</trkpt>
<trkpt lat="40.0711198" lon="-105.2307366">
  <ele>1583.0</ele>
  <time>2026-08-28T17:55:27Z</time>
  <course>68.95</course>
  <speed>4.99</speed>
  <fix>3d</fix>
</trkpt>
<trkpt lat="40.0711249" lon="-105.2307184">
  <ele>1583.16</ele>
  <time>2026-08-28T17:55:27Z</time>
  <course>69.87</course>
  <speed>4.9368005833738104</speed>
  <fix>3d</fix>
</trkpt>
<trkpt lat="40.0711198" lon="-105.2307366">
  <ele>1583.0</ele>
  <time>2026-08-28T17:55:27Z</time>
  <course>68.95</course>
  <speed>4.99</speed>
  <fix>3d</fix>
</trkpt>
<trkpt lat="40.0711265" lon="-105.230713">
  <ele>1583.16</ele>
  <time>2026-08-28T17:55:27Z</time>
  <course>69.94</course>
  <speed>4.946160126805439</speed>
  <fix>3d</fix>
</trkpt>
<trkpt lat="40.071123" lon="-105.2307256">
  <ele>1583.0</ele>
  <time>2026-08-28T17:55:27Z</time>
  <course>69.08</course>
  <speed>4.98</speed>
  <fix>3d</fix>
</trkpt>
<trkpt lat="40.0711281" lon="-105.2307076">
  <ele>1583.16</ele>
  <time>2026-08-28T17:55:27Z</time>
  <course>70.01</course>
  <speed>4.942651110487165</speed>
  <fix>3d</fix>
</trkpt>
<trkpt lat="40.071123" lon="-105.2307256">
  <ele>1583.0</ele>
  <time>2026-08-28T17:55:27Z</time>
  <course>69.08</course>
  <speed>4.98</speed>
  <fix>3d</fix>
</trkpt>
<trkpt lat="40.0711296" lon="-105.2307022">
  <ele>1583.15</ele>
  <time>2026-08-28T17:55:27Z</time>
  <course>70.08</course>
  <speed>4.942651110487165</speed>
  <fix>3d</fix>
</trkpt>
<trkpt lat="40.0711261" lon="-105.2307147">
  <ele>1583.0</ele>
  <time>2026-08-28T17:55:27Z</time>
  <course>69.22</course>
  <speed>4.98</speed>
  <fix>3d</fix>
</trkpt>
<trkpt lat="40.0711312" lon="-105.2306968">
  <ele>1583.15</ele>
  <time>2026-08-28T17:55:27Z</time>
  <course>70.15</course>
  <speed>4.939159847585417</speed>
  <fix>3d</fix>
</trkpt>
<trkpt lat="40.0711261" lon="-105.2307147">
  <ele>1583.0</ele>
  <time>2026-08-28T17:55:27Z</time>
  <course>69.22</course>
  <speed>4.98</speed>
  <fix>3d</fix>
</trkpt>
<trkpt lat="40.0711327" lon="-105.2306913">
  <ele>1583.14</ele>
  <time>2026-08-28T17:55:27Z</time>
  <course>70.22</course>
  <speed>4.948535136785431</speed>
  <fix>3d</fix>
</trkpt>
<trkpt lat="40.0711294" lon="-105.2307038">
  <ele>1583.0</ele>
  <time>2026-08-28T17:55:27Z</time>
  <course>69.35</course>
  <speed>4.99</speed>
  <fix>3d</fix>
</trkpt>
<trkpt lat="40.0711343" lon="-105.2306859">
  <ele>1583.13</ele>
  <time>2026-08-28T17:55:27Z</time>
  <course>70.29</course>
  <speed>4.945068250287351</speed>
  <fix>3d</fix>
</trkpt>
<trkpt lat="40.0711294" lon="-105.2307038">
  <ele>1583.0</ele>
  <time>2026-08-28T17:55:27Z</time>
  <course>69.35</course>
  <speed>4.99</speed>
  <fix>3d</fix>
</trkpt>
<trkpt lat="40.0711359" lon="-105.2306804">
  <ele>1583.13</ele>
  <time>2026-08-28T17:55:27Z</time>
  <course>70.36</course>
  <speed>4.945068250287351</speed>
  <fix>3d</fix>
</trkpt>
<trkpt lat="40.0711325" lon="-105.2306928">
  <ele>1583.0</ele>
  <time>2026-08-28T17:55:27Z</time>
  <course>69.49</course>
  <speed>4.99</speed>
  <fix>3d</fix>
</trkpt>
<trkpt lat="40.0711374" lon="-105.230675">
  <ele>1583.12</ele>
  <time>2026-08-28T17:55:27Z</time>
  <course>70.43</course>
  <speed>4.951009997970111</speed>
  <fix>3d</fix>
</trkpt>
<trkpt lat="40.0711356" lon="-105.2306818">
  <ele>1583.0</ele>
  <time>2026-08-28T17:55:27Z</time>
  <course>69.62</course>
  <speed>5.0</speed>
  <fix>3d</fix>
</trkpt>
<trkpt lat="40.071139" lon="-105.2306695">
  <ele>1583.12</ele>
  <time>2026-08-28T17:55:27Z</time>
  <course>70.5</course>
  <speed>4.9604032094175565</speed>
  <fix>3d</fix>
</trkpt>
<trkpt lat="40.0711356" lon="-105.2306818">
  <ele>1583.0</ele>
  <time>2026-08-28T17:55:27Z</time>
  <course>69.62</course>
  <speed>5.0</speed>
  <fix>3d</fix>
</trkpt>
<trkpt lat="40.0711405" lon="-105.230664">
  <ele>1583.11</ele>
  <time>2026-08-28T17:55:27Z</time>
  <course>70.57</course>
  <speed>4.956984970725653</speed>
  <fix>3d</fix>
</trkpt>
<trkpt lat="40.0711387" lon="-105.2306707">
  <ele>1583.0</ele>
  <time>2026-08-28T17:55:27Z</time>
  <course>69.76</course>
  <speed>5.01</speed>
  <fix>3d</fix>
</trkpt>
<trkpt lat="40.0711421" lon="-105.2306585">
  <ele>1583.11</ele>
  <time>2026-08-28T17:55:27Z</time>
  <course>70.64</course>
  <speed>4.966387016735607</speed>
  <fix>3d</fix>
</trkpt>
<trkpt lat="40.0711387" lon="-105.2306707">
  <ele>1583.0</ele>
  <time>2026-08-28T17:55:27Z</time>
  <course>69.76</course>
  <speed>5.01</speed>
  <fix>3d</fix>
</trkpt>
<trkpt lat="40.0711436" lon="-105.2306529">
  <ele>1583.11</ele>
  <time>2026-08-28T17:55:27Z</time>
  <course>70.68</course>
  <speed>4.975791394341206</speed>
  <fix>3d</fix>
</trkpt>
<trkpt lat="40.0711419" lon="-105.2306596">
  <ele>1583.0</ele>
  <time>2026-08-28T17:55:27Z</time>
  <course>69.88</course>
  <speed>5.03</speed>
  <fix>3d</fix>
</trkpt>
<trkpt lat="40.0711452" lon="-105.2306473">
  <ele>1583.11</ele>
  <time>2026-08-28T17:55:27Z</time>
  <course>70.72</course>
  <speed>4.985198090347063</speed>
  <fix>3d</fix>
</trkpt>
<trkpt lat="40.0711419" lon="-105.2306596">
  <ele>1583.0</ele>
  <time>2026-08-28T17:55:27Z</time>
  <course>69.88</course>
  <speed>5.03</speed>
  <fix>3d</fix>
</trkpt>
<trkpt lat="40.0711467" lon="-105.2306417">
  <ele>1583.11</ele>
  <time>2026-08-28T17:55:27Z</time>
  <course>70.77</course>
  <speed>4.985198090347063</speed>
  <fix>3d</fix>
</trkpt>
<trkpt lat="40.071145" lon="-105.2306486">
  <ele>1583.0</ele>
  <time>2026-08-28T17:55:27Z</time>
  <course>69.98</course>
  <speed>5.03</speed>
  <fix>3d</fix>
</trkpt>
<trkpt lat="40.0711483" lon="-105.2306361">
  <ele>1583.11</ele>
  <time>2026-08-28T17:55:27Z</time>
  <course>70.8</course>
  <speed>4.9946070916539576</speed>
  <fix>3d</fix>
</trkpt>
<trkpt lat="40.071145" lon="-105.2306486">
  <ele>1583.0</ele>
  <time>2026-08-28T17:55:27Z</time>
  <course>69.98</course>
  <speed>5.03</speed>
  <fix>3d</fix>
</trkpt>
<trkpt lat="40.0711498" lon="-105.2306305">
  <ele>1583.11</ele>
  <time>2026-08-28T17:55:27Z</time>
  <course>70.81</course>
  <speed>4.9946070916539576</speed>
  <fix>3d</fix>
</trkpt>
<trkpt lat="40.0711481" lon="-105.2306374">
  <ele>1583.0</ele>
  <time>2026-08-28T17:55:27Z</time>
  <course>70.04</course>
  <speed>5.04</speed>
  <fix>3d</fix>
</trkpt>
<trkpt lat="40.0711514" lon="-105.2306249">
  <ele>1583.12</ele>
  <time>2026-08-28T17:55:27Z</time>
  <course>70.85</course>
  <speed>5.000649957755492</speed>
  <fix>3d</fix>
</trkpt>
<trkpt lat="40.0711481" lon="-105.2306374">
  <ele>1583.0</ele>
  <time>2026-08-28T17:55:27Z</time>
  <course>70.04</course>
  <speed>5.04</speed>
  <fix>3d</fix>
</trkpt>
<trkpt lat="40.0711529" lon="-105.2306193">
  <ele>1583.12</ele>
  <time>2026-08-28T17:55:27Z</time>
  <course>70.86</course>
  <speed>5.000649957755492</speed>
  <fix>3d</fix>
</trkpt>
<trkpt lat="40.0711511" lon="-105.2306263">
  <ele>1583.0</ele>
  <time>2026-08-28T17:55:27Z</time>
  <course>70.08</course>
  <speed>5.05</speed>
  <fix>3d</fix>
</trkpt>
<trkpt lat="40.0711545" lon="-105.2306136">
  <ele>1583.12</ele>
  <time>2026-08-28T17:55:27Z</time>
  <course>70.88</course>
  <speed>5.0100698597923765</speed>
  <fix>3d</fix>
</trkpt>
<trkpt lat="40.0711511" lon="-105.2306263">
  <ele>1583.0</ele>
  <time>2026-08-28T17:55:27Z</time>
  <course>70.08</course>
  <speed>5.05</speed>
  <fix>3d</fix>
</trkpt>
<trkpt lat="40.071156" lon="-105.230608">
  <ele>1583.13</ele>
  <time>2026-08-28T17:55:27Z</time>
  <course>70.91</course>
  <speed>5.0100698597923765</speed>
  <fix>3d</fix>
</trkpt>
<trkpt lat="40.0711511" lon="-105.2306263">
  <ele>1583.0</ele>
  <time>2026-08-28T17:55:27Z</time>
  <course>70.08</course>
  <speed>5.05</speed>
  <fix>3d</fix>
</trkpt>
<trkpt lat="40.0711576" lon="-105.2306025">
  <ele>1583.13</ele>
  <time>2026-08-28T17:55:27Z</time>
  <course>70.92</course>
  <speed>5.0100698597923765</speed>
  <fix>3d</fix>
</trkpt>
<trkpt lat="40.0711542" lon="-105.2306151">
  <ele>1583.0</ele>
  <time>2026-08-28T17:55:27Z</time>
  <course>70.13</course>
  <speed>5.05</speed>
  <fix>3d</fix>
</trkpt>
<trkpt lat="40.0711591" lon="-105.2305969">
  <ele>1583.13</ele>
  <time>2026-08-28T17:55:27Z</time>
  <course>70.95</course>
  <speed>5.0100698597923765</speed>
  <fix>3d</fix>
</trkpt>
<trkpt lat="40.0711542" lon="-105.2306151">
  <ele>1583.0</ele>
  <time>2026-08-28T17:55:27Z</time>
  <course>70.13</course>
  <speed>5.05</speed>
  <fix>3d</fix>
</trkpt>
<trkpt lat="40.0711606" lon="-105.2305914">
  <ele>1583.14</ele>
  <time>2026-08-28T17:55:27Z</time>
  <course>70.96</course>
  <speed>5.0100698597923765</speed>
  <fix>3d</fix>
</trkpt>
<trkpt lat="40.0711573" lon="-105.230604">
  <ele>1583.0</ele>
  <time>2026-08-28T17:55:27Z</time>
  <course>70.17</course>
  <speed>5.05</speed>
  <fix>3d</fix>
</trkpt>
<trkpt lat="40.0711621" lon="-105.2305858">
  <ele>1583.14</ele>
  <time>2026-08-28T17:55:27Z</time>
  <course>70.98</course>
  <speed>4.997299270606074</speed>
  <fix>3d</fix>
</trkpt>
<trkpt lat="40.0711573" lon="-105.230604">
  <ele>1583.0</ele>
  <time>2026-08-28T17:55:27Z</time>
  <course>70.17</course>
  <speed>5.05</speed>
  <fix>3d</fix>
</trkpt>
<trkpt lat="40.0711637" lon="-105.2305803">
  <ele>1583.14</ele>
  <time>2026-08-28T17:55:27Z</time>
  <course>71.01</course>
  <speed>4.997299270606074</speed>
  <fix>3d</fix>
</trkpt>
<trkpt lat="40.0711604" lon="-105.2305928">
  <ele>1583.0</ele>
  <time>2026-08-28T17:55:27Z</time>
  <course>70.2</course>
  <speed>5.05</speed>
  <fix>3d</fix>
</trkpt>
<trkpt lat="40.0711652" lon="-105.2305748">
  <ele>1583.14</ele>
  <time>2026-08-28T17:55:27Z</time>
  <course>71.01</course>
  <speed>4.997299270606074</speed>
  <fix>3d</fix>
</trkpt>
<trkpt lat="40.0711604" lon="-105.2305928">
  <ele>1583.0</ele>
  <time>2026-08-28T17:55:27Z</time>
  <course>70.2</course>
  <speed>5.05</speed>
  <fix>3d</fix>
</trkpt>
<trkpt lat="40.0711667" lon="-105.2305692">
  <ele>1583.14</ele>
  <time>2026-08-28T17:55:27Z</time>
  <course>71.03</course>
  <speed>4.997299270606074</speed>
  <fix>3d</fix>
</trkpt>
<trkpt lat="40.0711635" lon="-105.2305816">
  <ele>1583.0</ele>
  <time>2026-08-28T17:55:27Z</time>
  <course>70.22</course>
  <speed>5.05</speed>
  <fix>3d</fix>
</trkpt>
<trkpt lat="40.0711682" lon="-105.2305637">
  <ele>1583.14</ele>
  <time>2026-08-28T17:55:27Z</time>
  <course>71.04</course>
  <speed>4.997299270606074</speed>
  <fix>3d</fix>
</trkpt>
<trkpt lat="40.0711666" lon="-105.2305705">
  <ele>1583.0</ele>
  <time>2026-08-28T17:55:27Z</time>
  <course>70.25</course>
  <speed>5.05</speed>
  <fix>3d</fix>
</trkpt>
<trkpt lat="40.0711698" lon="-105.2305581">
  <ele>1583.14</ele>
  <time>2026-08-28T17:55:27Z</time>
  <course>71.06</course>
  <speed>4.997299270606074</speed>
  <fix>3d</fix>
</trkpt>
<trkpt lat="40.0711666" lon="-105.2305705">
  <ele>1583.0</ele>
  <time>2026-08-28T17:55:27Z</time>
  <course>70.25</course>
  <speed>5.05</speed>
  <fix>3d</fix>
</trkpt>
<trkpt lat="40.0711713" lon="-105.2305526">
  <ele>1583.14</ele>
  <time>2026-08-28T17:55:27Z</time>
  <course>71.08</course>
  <speed>4.993966359518254</speed>
  <fix>3d</fix>
</trkpt>
<trkpt lat="40.0711696" lon="-105.2305593">
  <ele>1583.0</ele>
  <time>2026-08-28T17:55:27Z</time>
  <course>70.28</course>
  <speed>5.05</speed>
  <fix>3d</fix>
</trkpt>
<trkpt lat="40.0711728" lon="-105.2305469">
  <ele>1583.14</ele>
  <time>2026-08-28T17:55:27Z</time>
  <course>71.11</course>
  <speed>4.993966359518254</speed>
  <fix>3d</fix>
</trkpt>
<trkpt lat="40.0711696" lon="-105.2305593">
  <ele>1583.0</ele>
  <time>2026-08-28T17:55:27Z</time>
  <course>70.28</course>
  <speed>5.05</speed>
  <fix>3d</fix>
</trkpt>
<trkpt lat="40.0711743" lon="-105.2305413">
  <ele>1583.14</ele>
  <time>2026-08-28T17:55:27Z</time>
  <course>71.11</course>
  <speed>4.993966359518254</speed>
  <fix>3d</fix>
</trkpt>
<trkpt lat="40.0711727" lon="-105.2305481">
  <ele>1583.0</ele>
  <time>2026-08-28T17:55:27Z</time>
  <course>70.31</course>
  <speed>5.05</speed>
  <fix>3d</fix>
</trkpt>
<trkpt lat="40.0711759" lon="-105.2305357">
  <ele>1583.14</ele>
  <time>2026-08-28T17:55:28Z</time>
  <course>71.14</course>
  <speed>5.003398844785412</speed>
  <fix>3d</fix>
</trkpt>
<trkpt lat="40.0711727" lon="-105.2305481">
  <ele>1583.0</ele>
  <time>2026-08-28T17:55:28Z</time>
  <course>70.31</course>
  <speed>5.05</speed>
  <fix>3d</fix>
</trkpt>
<trkpt lat="40.0711774" lon="-105.2305301">
  <ele>1583.14</ele>
  <time>2026-08-28T17:55:28Z</time>
  <course>71.14</course>
  <speed>5.003398844785412</speed>
  <fix>3d</fix>
</trkpt>
<trkpt lat="40.0711757" lon="-105.230537">
  <ele>1583.0</ele>
  <time>2026-08-28T17:55:28Z</time>
  <course>70.33</course>
  <speed>5.05</speed>
  <fix>3d</fix>
</trkpt>
<trkpt lat="40.071179" lon="-105.2305244">
  <ele>1583.14</ele>
  <time>2026-08-28T17:55:28Z</time>
  <course>71.15</course>
  <speed>5.003398844785412</speed>
  <fix>3d</fix>
</trkpt>
<trkpt lat="40.0711757" lon="-105.230537">
  <ele>1583.0</ele>
  <time>2026-08-28T17:55:28Z</time>
  <course>70.33</course>
  <speed>5.05</speed>
  <fix>3d</fix>
</trkpt>
<trkpt lat="40.0711805" lon="-105.2305188">
  <ele>1583.14</ele>
  <time>2026-08-28T17:55:28Z</time>
  <course>71.17</course>
  <speed>5.003398844785412</speed>
  <fix>3d</fix>
</trkpt>
<trkpt lat="40.0711788" lon="-105.2305258">
  <ele>1583.0</ele>
  <time>2026-08-28T17:55:28Z</time>
  <course>70.36</course>
  <speed>5.04</speed>
  <fix>3d</fix>
</trkpt>
<trkpt lat="40.071182" lon="-105.2305132">
  <ele>1583.14</ele>
  <time>2026-08-28T17:55:28Z</time>
  <course>71.19</course>
  <speed>5.003398844785412</speed>
  <fix>3d</fix>
</trkpt>
<trkpt lat="40.0711788" lon="-105.2305258">
  <ele>1583.0</ele>
  <time>2026-08-28T17:55:28Z</time>
  <course>70.36</course>
  <speed>5.04</speed>
  <fix>3d</fix>
</trkpt>
<trkpt lat="40.0711836" lon="-105.2305076">
  <ele>1583.14</ele>
  <time>2026-08-28T17:55:28Z</time>
  <course>71.2</course>
  <speed>4.993966359518254</speed>
  <fix>3d</fix>
</trkpt>
<trkpt lat="40.0711818" lon="-105.2305146">
  <ele>1583.0</ele>
  <time>2026-08-28T17:55:28Z</time>
  <course>70.39</course>
  <speed>5.04</speed>
  <fix>3d</fix>
</trkpt>
<trkpt lat="40.0711851" lon="-105.230502">
  <ele>1583.14</ele>
  <time>2026-08-28T17:55:28Z</time>
  <course>71.22</course>
  <speed>4.99065126010624</speed>
  <fix>3d</fix>
</trkpt>
<trkpt lat="40.0711818" lon="-105.2305146">
  <ele>1583.0</ele>
  <time>2026-08-28T17:55:28Z</time>
  <course>70.39</course>
  <speed>5.04</speed>
  <fix>3d</fix>
</trkpt>
<trkpt lat="40.0711866" lon="-105.2304964">
  <ele>1583.14</ele>
  <time>2026-08-28T17:55:28Z</time>
  <course>71.22</course>
  <speed>4.99065126010624</speed>
  <fix>3d</fix>
</trkpt>
<trkpt lat="40.0711848" lon="-105.2305035">
  <ele>1583.0</ele>
  <time>2026-08-28T17:55:28Z</time>
  <course>70.41</course>
  <speed>5.03</speed>
  <fix>3d</fix>
</trkpt>
<trkpt lat="40.0711881" lon="-105.2304908">
  <ele>1583.14</ele>
  <time>2026-08-28T17:55:28Z</time>
  <course>71.23</course>
  <speed>4.99065126010624</speed>
  <fix>3d</fix>
</trkpt>
<trkpt lat="40.0711848" lon="-105.2305035">
  <ele>1583.0</ele>
  <time>2026-08-28T17:55:28Z</time>
  <course>70.41</course>
  <speed>5.03</speed>
  <fix>3d</fix>
</trkpt>
<trkpt lat="40.0711896" lon="-105.2304852">
  <ele>1583.14</ele>
  <time>2026-08-28T17:55:28Z</time>
  <course>71.25</course>
  <speed>4.99065126010624</speed>
  <fix>3d</fix>
</trkpt>
<trkpt lat="40.0711848" lon="-105.2305035">
  <ele>1583.0</ele>
  <time>2026-08-28T17:55:28Z</time>
  <course>70.41</course>
  <speed>5.03</speed>
  <fix>3d</fix>
</trkpt>
<trkpt lat="40.0711912" lon="-105.2304796">
  <ele>1583.13</ele>
  <time>2026-08-28T17:55:28Z</time>
  <course>71.27</course>
  <speed>4.981214711292819</speed>
  <fix>3d</fix>
</trkpt>
<trkpt lat="40.0711879" lon="-105.2304924">
  <ele>1583.0</ele>
  <time>2026-08-28T17:55:28Z</time>
  <course>70.43</course>
  <speed>5.02</speed>
  <fix>3d</fix>
</trkpt>
<trkpt lat="40.0711926" lon="-105.2304741">
  <ele>1583.13</ele>
  <time>2026-08-28T17:55:28Z</time>
  <course>71.27</course>
  <speed>4.981214711292819</speed>
  <fix>3d</fix>
</trkpt>
<trkpt lat="40.0711879" lon="-105.2304924">
  <ele>1583.0</ele>
  <time>2026-08-28T17:55:28Z</time>
  <course>70.43</course>
  <speed>5.02</speed>
  <fix>3d</fix>
</trkpt>
<trkpt lat="40.0711941" lon="-105.2304686">
  <ele>1583.13</ele>
  <time>2026-08-28T17:55:28Z</time>
  <course>71.28</course>
  <speed>4.977911208529136</speed>
  <fix>3d</fix>
</trkpt>
<trkpt lat="40.0711909" lon="-105.2304812">
  <ele>1583.0</ele>
  <time>2026-08-28T17:55:28Z</time>
  <course>70.45</course>
  <speed>5.01</speed>
  <fix>3d</fix>
</trkpt>
<trkpt lat="40.0711956" lon="-105.2304631">
  <ele>1583.13</ele>
  <time>2026-08-28T17:55:28Z</time>
  <course>71.28</course>
  <speed>4.9684705896281605</speed>
  <fix>3d</fix>
</trkpt>
<trkpt lat="40.0711909" lon="-105.2304812">
  <ele>1583.0</ele>
  <time>2026-08-28T17:55:28Z</time>
  <course>70.45</course>
  <speed>5.01</speed>
  <fix>3d</fix>
</trkpt>
<trkpt lat="40.0711971" lon="-105.2304576">
  <ele>1583.13</ele>
  <time>2026-08-28T17:55:28Z</time>
  <course>71.3</course>
  <speed>4.9684705896281605</speed>
  <fix>3d</fix>
</trkpt>
<trkpt lat="40.0711939" lon="-105.2304701">
  <ele>1583.0</ele>
  <time>2026-08-28T17:55:28Z</time>
  <course>70.46</course>
  <speed>5.01</speed>
  <fix>3d</fix>
</trkpt>
<trkpt lat="40.0711986" lon="-105.2304521">
  <ele>1583.13</ele>
  <time>2026-08-28T17:55:28Z</time>
  <course>71.32</course>
  <speed>4.9684705896281605</speed>
  <fix>3d</fix>
</trkpt>
<trkpt lat="40.071197" lon="-105.230459">
  <ele>1583.0</ele>
  <time>2026-08-28T17:55:28Z</time>
  <course>70.48</course>
  <speed>5.0</speed>
  <fix>3d</fix>
</trkpt>
<trkpt lat="40.0712001" lon="-105.2304465">
  <ele>1583.13</ele>
  <time>2026-08-28T17:55:28Z</time>
  <course>71.32</course>
  <speed>4.9684705896281605</speed>
  <fix>3d</fix>
</trkpt>
<trkpt lat="40.071197" lon="-105.230459">
  <ele>1583.0</ele>
  <time>2026-08-28T17:55:28Z</time>
  <course>70.48</course>
  <speed>5.0</speed>
  <fix>3d</fix>
</trkpt>
<trkpt lat="40.0712016" lon="-105.230441">
  <ele>1583.13</ele>
  <time>2026-08-28T17:55:28Z</time>
  <course>71.33</course>
  <speed>4.9684705896281605</speed>
  <fix>3d</fix>
</trkpt>
<trkpt lat="40.0712" lon="-105.230448">
  <ele>1583.0</ele>
  <time>2026-08-28T17:55:28Z</time>
  <course>70.5</course>
  <speed>5.0</speed>
  <fix>3d</fix>
</trkpt>
<trkpt lat="40.0712031" lon="-105.2304355">
  <ele>1583.13</ele>
  <time>2026-08-28T17:55:28Z</time>
  <course>71.35</course>
  <speed>4.9684705896281605</speed>
  <fix>3d</fix>
</trkpt>
<trkpt lat="40.0712" lon="-105.230448">
  <ele>1583.0</ele>
  <time>2026-08-28T17:55:28Z</time>
  <course>70.5</course>
  <speed>5.0</speed>
  <fix>3d</fix>
</trkpt>
<trkpt lat="40.0712046" lon="-105.2304299">
  <ele>1583.13</ele>
  <time>2026-08-28T17:55:28Z</time>
  <course>71.35</course>
  <speed>4.9684705896281605</speed>
  <fix>3d</fix>
</trkpt>
<trkpt lat="40.0712029" lon="-105.2304369">
  <ele>1583.0</ele>
  <time>2026-08-28T17:55:28Z</time>
  <course>70.52</course>
  <speed>5.0</speed>
  <fix>3d</fix>
</trkpt>
<trkpt lat="40.0712061" lon="-105.2304244">
  <ele>1583.12</ele>
  <time>2026-08-28T17:55:28Z</time>
  <course>71.37</course>
  <speed>4.965178748041202</speed>
  <fix>3d</fix>
</trkpt>
<trkpt lat="40.0712029" lon="-105.2304369">
  <ele>1583.0</ele>
  <time>2026-08-28T17:55:28Z</time>
  <course>70.52</course>
  <speed>5.0</speed>
  <fix>3d</fix>
</trkpt>
<trkpt lat="40.0712076" lon="-105.2304188">
  <ele>1583.12</ele>
  <time>2026-08-28T17:55:28Z</time>
  <course>71.38</course>
  <speed>4.965178748041202</speed>
  <fix>3d</fix>
</trkpt>
<trkpt lat="40.071206" lon="-105.2304258">
  <ele>1583.0</ele>
  <time>2026-08-28T17:55:28Z</time>
  <course>70.54</course>
  <speed>5.0</speed>
  <fix>3d</fix>
</trkpt>
<trkpt lat="40.0712092" lon="-105.2304132">
  <ele>1583.12</ele>
  <time>2026-08-28T17:55:28Z</time>
  <course>71.39</course>
  <speed>4.965178748041202</speed>
  <fix>3d</fix>
</trkpt>
<trkpt lat="40.071206" lon="-105.2304258">
  <ele>1583.0</ele>
  <time>2026-08-28T17:55:28Z</time>
  <course>70.54</course>
  <speed>5.0</speed>
  <fix>3d</fix>
</trkpt>
<trkpt lat="40.0712107" lon="-105.2304076">
  <ele>1583.12</ele>
  <time>2026-08-28T17:55:28Z</time>
  <course>71.4</course>
  <speed>4.974625614053785</speed>
  <fix>3d</fix>
</trkpt>
<trkpt lat="40.0712089" lon="-105.2304147">
  <ele>1583.0</ele>
  <time>2026-08-28T17:55:28Z</time>
  <course>70.56</course>
  <speed>5.0</speed>
  <fix>3d</fix>
</trkpt>
<trkpt lat="40.0712122" lon="-105.230402">
  <ele>1583.11</ele>
  <time>2026-08-28T17:55:28Z</time>
  <course>71.42</course>
  <speed>4.974625614053785</speed>
  <fix>3d</fix>
</trkpt>
<trkpt lat="40.0712089" lon="-105.2304147">
  <ele>1583.0</ele>
  <time>2026-08-28T17:55:28Z</time>
  <course>70.56</course>
  <speed>5.0</speed>
  <fix>3d</fix>
</trkpt>
<trkpt lat="40.0712137" lon="-105.2303964">
  <ele>1583.11</ele>
  <time>2026-08-28T17:55:28Z</time>
  <course>71.42</course>
  <speed>4.974625614053785</speed>
  <fix>3d</fix>
</trkpt>
<trkpt lat="40.0712119" lon="-105.2304037">
  <ele>1583.0</ele>
  <time>2026-08-28T17:55:28Z</time>
  <course>70.57</course>
  <speed>5.0</speed>
  <fix>3d</fix>
</trkpt>
<trkpt lat="40.0712152" lon="-105.2303909">
  <ele>1583.11</ele>
  <time>2026-08-28T17:55:28Z</time>
  <course>71.43</course>
  <speed>4.974625614053785</speed>
  <fix>3d</fix>
</trkpt>
<trkpt lat="40.0712119" lon="-105.2304037">
  <ele>1583.0</ele>
  <time>2026-08-28T17:55:28Z</time>
  <course>70.57</course>
  <speed>5.0</speed>
  <fix>3d</fix>
</trkpt>
<trkpt lat="40.0712167" lon="-105.2303853">
  <ele>1583.11</ele>
  <time>2026-08-28T17:55:28Z</time>
  <course>71.43</course>
  <speed>4.974625614053785</speed>
  <fix>3d</fix>
</trkpt>
<trkpt lat="40.0712149" lon="-105.2303926">
  <ele>1583.0</ele>
  <time>2026-08-28T17:55:28Z</time>
  <course>70.59</course>
  <speed>5.0</speed>
  <fix>3d</fix>
</trkpt>
<trkpt lat="40.0712182" lon="-105.2303797">
  <ele>1583.11</ele>
  <time>2026-08-28T17:55:28Z</time>
  <course>71.45</course>
  <speed>4.974625614053785</speed>
  <fix>3d</fix>
</trkpt>
<trkpt lat="40.0712149" lon="-105.2303926">
  <ele>1583.0</ele>
  <time>2026-08-28T17:55:28Z</time>
  <course>70.59</course>
  <speed>5.0</speed>
  <fix>3d</fix>
</trkpt>
<trkpt lat="40.0712197" lon="-105.2303742">
  <ele>1583.11</ele>
  <time>2026-08-28T17:55:28Z</time>
  <course>71.45</course>
  <speed>4.965178748041202</speed>
  <fix>3d</fix>
</trkpt>
<trkpt lat="40.0712149" lon="-105.2303926">
  <ele>1583.0</ele>
  <time>2026-08-28T17:55:28Z</time>
  <course>70.59</course>
  <speed>5.0</speed>
  <fix>3d</fix>
</trkpt>
<trkpt lat="40.0712211" lon="-105.2303687">
  <ele>1583.11</ele>
  <time>2026-08-28T17:55:28Z</time>
  <course>71.45</course>
  <speed>4.965178748041202</speed>
  <fix>3d</fix>
</trkpt>
<trkpt lat="40.0712178" lon="-105.2303815">
  <ele>1583.0</ele>
  <time>2026-08-28T17:55:28Z</time>
  <course>70.6</course>
  <speed>4.99</speed>
  <fix>3d</fix>
</trkpt>
<trkpt lat="40.0712226" lon="-105.2303632">
  <ele>1583.12</ele>
  <time>2026-08-28T17:55:28Z</time>
  <course>71.47</course>
  <speed>4.965178748041202</speed>
  <fix>3d</fix>
</trkpt>
<trkpt lat="40.0712178" lon="-105.2303815">
  <ele>1583.0</ele>
  <time>2026-08-28T17:55:28Z</time>
  <course>70.6</course>
  <speed>4.99</speed>
  <fix>3d</fix>
</trkpt>
<trkpt lat="40.0712241" lon="-105.2303577">
  <ele>1583.12</ele>
  <time>2026-08-28T17:55:28Z</time>
  <course>71.47</course>
  <speed>4.965178748041202</speed>
  <fix>3d</fix>
</trkpt>
<trkpt lat="40.0712209" lon="-105.2303704">
  <ele>1583.0</ele>
  <time>2026-08-28T17:55:28Z</time>
  <course>70.61</course>
  <speed>4.99</speed>
  <fix>3d</fix>
</trkpt>
<trkpt lat="40.0712256" lon="-105.2303522">
  <ele>1583.12</ele>
  <time>2026-08-28T17:55:28Z</time>
  <course>71.47</course>
  <speed>4.965178748041202</speed>
  <fix>3d</fix>
</trkpt>
<trkpt lat="40.0712209" lon="-105.2303704">
  <ele>1583.0</ele>
  <time>2026-08-28T17:55:28Z</time>
  <course>70.61</course>
  <speed>4.99</speed>
  <fix>3d</fix>
</trkpt>
<trkpt lat="40.071227" lon="-105.2303468">
  <ele>1583.12</ele>
  <time>2026-08-28T17:55:28Z</time>
  <course>71.47</course>
  <speed>4.961904876153915</speed>
  <fix>3d</fix>
</trkpt>
<trkpt lat="40.0712238" lon="-105.2303594">
  <ele>1583.0</ele>
  <time>2026-08-28T17:55:28Z</time>
  <course>70.62</course>
  <speed>4.99</speed>
  <fix>3d</fix>
</trkpt>
<trkpt lat="40.0712285" lon="-105.2303413">
  <ele>1583.12</ele>
  <time>2026-08-28T17:55:28Z</time>
  <course>71.47</course>
  <speed>4.961904876153915</speed>
  <fix>3d</fix>
</trkpt>
<trkpt lat="40.0712238" lon="-105.2303594">
  <ele>1583.0</ele>
  <time>2026-08-28T17:55:28Z</time>
  <course>70.62</course>
  <speed>4.99</speed>
  <fix>3d</fix>
</trkpt>
<trkpt lat="40.07123" lon="-105.2303358">
  <ele>1583.12</ele>
  <time>2026-08-28T17:55:28Z</time>
  <course>71.49</course>
  <speed>4.961904876153915</speed>
  <fix>3d</fix>
</trkpt>
<trkpt lat="40.0712268" lon="-105.2303483">
  <ele>1583.0</ele>
  <time>2026-08-28T17:55:28Z</time>
  <course>70.62</course>
  <speed>4.99</speed>
  <fix>3d</fix>
</trkpt>
<trkpt lat="40.0712315" lon="-105.2303303">
  <ele>1583.13</ele>
  <time>2026-08-28T17:55:28Z</time>
  <course>71.49</course>
  <speed>4.961904876153915</speed>
  <fix>3d</fix>
</trkpt>
<trkpt lat="40.0712298" lon="-105.2303372">
  <ele>1583.0</ele>
  <time>2026-08-28T17:55:28Z</time>
  <course>70.63</course>
  <speed>4.99</speed>
  <fix>3d</fix>
</trkpt>
<trkpt lat="40.071233" lon="-105.2303248">
  <ele>1583.13</ele>
  <time>2026-08-28T17:55:28Z</time>
  <course>71.49</course>
  <speed>4.961904876153915</speed>
  <fix>3d</fix>
</trkpt>
<trkpt lat="40.0712298" lon="-105.2303372">
  <ele>1583.0</ele>
  <time>2026-08-28T17:55:28Z</time>
  <course>70.63</course>
  <speed>4.99</speed>
  <fix>3d</fix>
</trkpt>
<trkpt lat="40.0712344" lon="-105.2303193">
  <ele>1583.13</ele>
  <time>2026-08-28T17:55:28Z</time>
  <course>71.49</course>
  <speed>4.961904876153915</speed>
  <fix>3d</fix>
</trkpt>
<trkpt lat="40.0712328" lon="-105.2303261">
  <ele>1583.0</ele>
  <time>2026-08-28T17:55:28Z</time>
  <course>70.63</course>
  <speed>5.0</speed>
  <fix>3d</fix>
</trkpt>
<trkpt lat="40.0712359" lon="-105.2303137">
  <ele>1583.12</ele>
  <time>2026-08-28T17:55:29Z</time>
  <course>71.51</course>
  <speed>4.961904876153915</speed>
  <fix>3d</fix>
</trkpt>
<trkpt lat="40.0712328" lon="-105.2303261">
  <ele>1583.0</ele>
  <time>2026-08-28T17:55:29Z</time>
  <course>70.63</course>
  <speed>5.0</speed>
  <fix>3d</fix>
</trkpt>
<trkpt lat="40.0712374" lon="-105.2303081">
  <ele>1583.12</ele>
  <time>2026-08-28T17:55:29Z</time>
  <course>71.51</course>
  <speed>4.974625614053785</speed>
  <fix>3d</fix>
</trkpt>
<trkpt lat="40.0712357" lon="-105.2303151">
  <ele>1583.0</ele>
  <time>2026-08-28T17:55:29Z</time>
  <course>70.64</course>
  <speed>5.0</speed>
  <fix>3d</fix>
</trkpt>
<trkpt lat="40.0712389" lon="-105.2303025">
  <ele>1583.12</ele>
  <time>2026-08-28T17:55:29Z</time>
  <course>71.51</course>
  <speed>4.974625614053785</speed>
  <fix>3d</fix>
</trkpt>
<trkpt lat="40.0712357" lon="-105.2303151">
  <ele>1583.0</ele>
  <time>2026-08-28T17:55:29Z</time>
  <course>70.64</course>
  <speed>5.0</speed>
  <fix>3d</fix>
</trkpt>
<trkpt lat="40.0712404" lon="-105.2302969">
  <ele>1583.11</ele>
  <time>2026-08-28T17:55:29Z</time>
  <course>71.52</course>
  <speed>4.974625614053785</speed>
  <fix>3d</fix>
</trkpt>
<trkpt lat="40.0712388" lon="-105.230304">
  <ele>1583.0</ele>
  <time>2026-08-28T17:55:29Z</time>
  <course>70.65</course>
  <speed>5.0</speed>
  <fix>3d</fix>
</trkpt>
<trkpt lat="40.0712419" lon="-105.2302913">
  <ele>1583.11</ele>
  <time>2026-08-28T17:55:29Z</time>
  <course>71.53</course>
  <speed>4.984074638285426</speed>
  <fix>3d</fix>
</trkpt>
<trkpt lat="40.0712388" lon="-105.230304">
  <ele>1583.0</ele>
  <time>2026-08-28T17:55:29Z</time>
  <course>70.65</course>
  <speed>5.0</speed>
  <fix>3d</fix>
</trkpt>
<trkpt lat="40.0712434" lon="-105.2302858">
  <ele>1583.11</ele>
  <time>2026-08-28T17:55:29Z</time>
  <course>71.53</course>
  <speed>4.984074638285426</speed>
  <fix>3d</fix>
</trkpt>
<trkpt lat="40.0712417" lon="-105.2302929">
  <ele>1583.0</ele>
  <time>2026-08-28T17:55:29Z</time>
  <course>70.66</course>
  <speed>5.01</speed>
  <fix>3d</fix>
</trkpt>
<trkpt lat="40.0712449" lon="-105.2302802">
  <ele>1583.11</ele>
  <time>2026-08-28T17:55:29Z</time>
  <course>71.54</course>
  <speed>4.984074638285426</speed>
  <fix>3d</fix>
</trkpt>
<trkpt lat="40.0712417" lon="-105.2302929">
  <ele>1583.0</ele>
  <time>2026-08-28T17:55:29Z</time>
  <course>70.66</course>
  <speed>5.01</speed>
  <fix>3d</fix>
</trkpt>
<trkpt lat="40.0712464" lon="-105.2302746">
  <ele>1583.11</ele>
  <time>2026-08-28T17:55:29Z</time>
  <course>71.54</course>
  <speed>4.984074638285426</speed>
  <fix>3d</fix>
</trkpt>
<trkpt lat="40.0712446" lon="-105.2302818">
  <ele>1583.0</ele>
  <time>2026-08-28T17:55:29Z</time>
  <course>70.67</course>
  <speed>5.01</speed>
  <fix>3d</fix>
</trkpt>
<trkpt lat="40.0712479" lon="-105.230269">
  <ele>1583.11</ele>
  <time>2026-08-28T17:55:29Z</time>
  <course>71.54</course>
  <speed>4.984074638285426</speed>
  <fix>3d</fix>
</trkpt>
<trkpt lat="40.0712446" lon="-105.2302818">
  <ele>1583.0</ele>
  <time>2026-08-28T17:55:29Z</time>
  <course>70.67</course>
  <speed>5.01</speed>
  <fix>3d</fix>
</trkpt>
<trkpt lat="40.0712494" lon="-105.2302634">
  <ele>1583.11</ele>
  <time>2026-08-28T17:55:29Z</time>
  <course>71.54</course>
  <speed>4.984074638285426</speed>
  <fix>3d</fix>
</trkpt>
<trkpt lat="40.0712477" lon="-105.2302707">
  <ele>1583.0</ele>
  <time>2026-08-28T17:55:29Z</time>
  <course>70.67</course>
  <speed>5.0</speed>
  <fix>3d</fix>
</trkpt>
<trkpt lat="40.0712509" lon="-105.2302578">
  <ele>1583.11</ele>
  <time>2026-08-28T17:55:29Z</time>
  <course>71.56</course>
  <speed>4.984074638285426</speed>
  <fix>3d</fix>
</trkpt>
<trkpt lat="40.0712477" lon="-105.2302707">
  <ele>1583.0</ele>
  <time>2026-08-28T17:55:29Z</time>
  <course>70.67</course>
  <speed>5.0</speed>
  <fix>3d</fix>
</trkpt>
<trkpt lat="40.0712524" lon="-105.2302523">
  <ele>1583.11</ele>
  <time>2026-08-28T17:55:29Z</time>
  <course>71.56</course>
  <speed>4.980813186619229</speed>
  <fix>3d</fix>
</trkpt>
<trkpt lat="40.0712477" lon="-105.2302707">
  <ele>1583.0</ele>
  <time>2026-08-28T17:55:29Z</time>
  <course>70.67</course>
  <speed>5.0</speed>
  <fix>3d</fix>
</trkpt>
<trkpt lat="40.0712539" lon="-105.2302468">
  <ele>1583.12</ele>
  <time>2026-08-28T17:55:29Z</time>
  <course>71.56</course>
  <speed>4.97135796337379</speed>
  <fix>3d</fix>
</trkpt>
<trkpt lat="40.0712506" lon="-105.2302596">
  <ele>1583.0</ele>
  <time>2026-08-28T17:55:29Z</time>
  <course>70.68</course>
  <speed>5.0</speed>
  <fix>3d</fix>
</trkpt>
<trkpt lat="40.0712554" lon="-105.2302412">
  <ele>1583.12</ele>
  <time>2026-08-28T17:55:29Z</time>
  <course>71.56</course>
  <speed>4.97135796337379</speed>
  <fix>3d</fix>
</trkpt>
<trkpt lat="40.0712506" lon="-105.2302596">
  <ele>1583.0</ele>
  <time>2026-08-28T17:55:29Z</time>
  <course>70.68</course>
  <speed>5.0</speed>
  <fix>3d</fix>
</trkpt>
<trkpt lat="40.0712568" lon="-105.2302358">
  <ele>1583.12</ele>
  <time>2026-08-28T17:55:29Z</time>
  <course>71.56</course>
  <speed>4.97135796337379</speed>
  <fix>3d</fix>
</trkpt>
<trkpt lat="40.0712537" lon="-105.2302485">
  <ele>1583.0</ele>
  <time>2026-08-28T17:55:29Z</time>
  <course>70.69</course>
  <speed>5.0</speed>
  <fix>3d</fix>
</trkpt>
<trkpt lat="40.0712583" lon="-105.2302303">
  <ele>1583.12</ele>
  <time>2026-08-28T17:55:29Z</time>
  <course>71.58</course>
  <speed>4.97135796337379</speed>
  <fix>3d</fix>
</trkpt>
<trkpt lat="40.0712537" lon="-105.2302485">
  <ele>1583.0</ele>
  <time>2026-08-28T17:55:29Z</time>
  <course>70.69</course>
  <speed>5.0</speed>
  <fix>3d</fix>
</trkpt>
<trkpt lat="40.0712598" lon="-105.2302248">
  <ele>1583.11</ele>
  <time>2026-08-28T17:55:29Z</time>
  <course>71.58</course>
  <speed>4.961904876153915</speed>
  <fix>3d</fix>
</trkpt>
<trkpt lat="40.0712566" lon="-105.2302374">
  <ele>1583.0</ele>
  <time>2026-08-28T17:55:29Z</time>
  <course>70.69</course>
  <speed>4.99</speed>
  <fix>3d</fix>
</trkpt>
<trkpt lat="40.0712613" lon="-105.2302193">
  <ele>1583.11</ele>
  <time>2026-08-28T17:55:29Z</time>
  <course>71.58</course>
  <speed>4.961904876153915</speed>
  <fix>3d</fix>
</trkpt>
<trkpt lat="40.0712596" lon="-105.2302263">
  <ele>1583.0</ele>
  <time>2026-08-28T17:55:29Z</time>
  <course>70.7</course>
  <speed>4.99</speed>
  <fix>3d</fix>
</trkpt>
<trkpt lat="40.0712627" lon="-105.2302137">
  <ele>1583.11</ele>
  <time>2026-08-28T17:55:29Z</time>
  <course>71.58</course>
  <speed>4.961904876153915</speed>
  <fix>3d</fix>
</trkpt>
<trkpt lat="40.0712596" lon="-105.2302263">
  <ele>1583.0</ele>
  <time>2026-08-28T17:55:29Z</time>
  <course>70.7</course>
  <speed>4.99</speed>
  <fix>3d</fix>
</trkpt>
<trkpt lat="40.0712642" lon="-105.2302082">
  <ele>1583.11</ele>
  <time>2026-08-28T17:55:29Z</time>
  <course>71.59</course>
  <speed>4.961904876153915</speed>
  <fix>3d</fix>
</trkpt>
<trkpt lat="40.0712626" lon="-105.2302153">
  <ele>1583.0</ele>
  <time>2026-08-28T17:55:29Z</time>
  <course>70.71</course>
  <speed>4.99</speed>
  <fix>3d</fix>
</trkpt>
<trkpt lat="40.0712657" lon="-105.2302027">
  <ele>1583.11</ele>
  <time>2026-08-28T17:55:29Z</time>
  <course>71.59</course>
  <speed>4.961904876153915</speed>
  <fix>3d</fix>
</trkpt>
<trkpt lat="40.0712626" lon="-105.2302153">
  <ele>1583.0</ele>
  <time>2026-08-28T17:55:29Z</time>
  <course>70.71</course>
  <speed>4.99</speed>
  <fix>3d</fix>
</trkpt>
<trkpt lat="40.0712672" lon="-105.2301972">
  <ele>1583.11</ele>
  <time>2026-08-28T17:55:29Z</time>
  <course>71.6</course>
  <speed>4.961904876153915</speed>
  <fix>3d</fix>
</trkpt>
<trkpt lat="40.0712655" lon="-105.2302042">
  <ele>1583.0</ele>
  <time>2026-08-28T17:55:29Z</time>
  <course>70.71</course>
  <speed>4.99</speed>
  <fix>3d</fix>
</trkpt>
<trkpt lat="40.0712687" lon="-105.2301916">
  <ele>1583.11</ele>
  <time>2026-08-28T17:55:29Z</time>
  <course>71.61</course>
  <speed>4.97135796337379</speed>
  <fix>3d</fix>
</trkpt>
<trkpt lat="40.0712655" lon="-105.2302042">
  <ele>1583.0</ele>
  <time>2026-08-28T17:55:29Z</time>
  <course>70.71</course>
  <speed>4.99</speed>
  <fix>3d</fix>
</trkpt>
<trkpt lat="40.0712702" lon="-105.230186">
  <ele>1583.1</ele>
  <time>2026-08-28T17:55:29Z</time>
  <course>71.61</course>
  <speed>4.97135796337379</speed>
  <fix>3d</fix>
</trkpt>
<trkpt lat="40.0712685" lon="-105.2301931">
  <ele>1583.0</ele>
  <time>2026-08-28T17:55:29Z</time>
  <course>70.72</course>
  <speed>4.99</speed>
  <fix>3d</fix>
</trkpt>
<trkpt lat="40.0712717" lon="-105.2301804">
  <ele>1583.1</ele>
  <time>2026-08-28T17:55:29Z</time>
  <course>71.61</course>
  <speed>4.97135796337379</speed>
  <fix>3d</fix>
</trkpt>
<trkpt lat="40.0712685" lon="-105.2301931">
  <ele>1583.0</ele>
  <time>2026-08-28T17:55:29Z</time>
  <course>70.72</course>
  <speed>4.99</speed>
  <fix>3d</fix>
</trkpt>
<trkpt lat="40.0712732" lon="-105.2301748">
  <ele>1583.11</ele>
  <time>2026-08-28T17:55:29Z</time>
  <course>71.61</course>
  <speed>4.97135796337379</speed>
  <fix>3d</fix>
</trkpt>
<trkpt lat="40.0712714" lon="-105.230182">
  <ele>1583.0</ele>
  <time>2026-08-28T17:55:29Z</time>
  <course>70.73</course>
  <speed>4.99</speed>
  <fix>3d</fix>
</trkpt>
<trkpt lat="40.0712747" lon="-105.2301693">
  <ele>1583.11</ele>
  <time>2026-08-28T17:55:29Z</time>
  <course>71.63</course>
  <speed>4.97135796337379</speed>
  <fix>3d</fix>
</trkpt>
<trkpt lat="40.0712714" lon="-105.230182">
  <ele>1583.0</ele>
  <time>2026-08-28T17:55:29Z</time>
  <course>70.73</course>
  <speed>4.99</speed>
  <fix>3d</fix>
</trkpt>
<trkpt lat="40.0712761" lon="-105.2301637">
  <ele>1583.11</ele>
  <time>2026-08-28T17:55:29Z</time>
  <course>71.63</course>
  <speed>4.97135796337379</speed>
  <fix>3d</fix>
</trkpt>
<trkpt lat="40.0712743" lon="-105.230171">
  <ele>1583.0</ele>
  <time>2026-08-28T17:55:29Z</time>
  <course>70.73</course>
  <speed>4.99</speed>
  <fix>3d</fix>
</trkpt>
<trkpt lat="40.0712776" lon="-105.2301581">
  <ele>1583.12</ele>
  <time>2026-08-28T17:55:29Z</time>
  <course>71.63</course>
  <speed>4.97135796337379</speed>
  <fix>3d</fix>
</trkpt>
<trkpt lat="40.0712743" lon="-105.230171">
  <ele>1583.0</ele>
  <time>2026-08-28T17:55:29Z</time>
  <course>70.73</course>
  <speed>4.99</speed>
  <fix>3d</fix>
</trkpt>
<trkpt lat="40.0712791" lon="-105.2301526">
  <ele>1583.12</ele>
  <time>2026-08-28T17:55:29Z</time>
  <course>71.63</course>
  <speed>4.97135796337379</speed>
  <fix>3d</fix>
</trkpt>
<trkpt lat="40.0712774" lon="-105.2301599">
  <ele>1583.0</ele>
  <time>2026-08-28T17:55:29Z</time>
  <course>70.74</course>
  <speed>4.99</speed>
  <fix>3d</fix>
</trkpt>
<trkpt lat="40.0712806" lon="-105.230147">
  <ele>1583.12</ele>
  <time>2026-08-28T17:55:29Z</time>
  <course>71.63</course>
  <speed>4.97135796337379</speed>
  <fix>3d</fix>
</trkpt>
<trkpt lat="40.0712774" lon="-105.2301599">
  <ele>1583.0</ele>
  <time>2026-08-28T17:55:29Z</time>
  <course>70.74</course>
  <speed>4.99</speed>
  <fix>3d</fix>
</trkpt>
<trkpt lat="40.0712821" lon="-105.2301414">
  <ele>1583.11</ele>
  <time>2026-08-28T17:55:29Z</time>
  <course>71.63</course>
  <speed>4.97135796337379</speed>
  <fix>3d</fix>
</trkpt>
<trkpt lat="40.0712774" lon="-105.2301599">
  <ele>1583.0</ele>
  <time>2026-08-28T17:55:29Z</time>
  <course>70.74</course>
  <speed>4.99</speed>
  <fix>3d</fix>
</trkpt>
<trkpt lat="40.0712836" lon="-105.2301359">
  <ele>1583.12</ele>
  <time>2026-08-28T17:55:29Z</time>
  <course>71.63</course>
  <speed>4.97135796337379</speed>
  <fix>3d</fix>
</trkpt>
<trkpt lat="40.0712803" lon="-105.2301488">
  <ele>1583.0</ele>
  <time>2026-08-28T17:55:29Z</time>
  <course>70.74</course>
  <speed>4.99</speed>
  <fix>3d</fix>
</trkpt>
<trkpt lat="40.071285" lon="-105.2301304">
  <ele>1583.12</ele>
  <time>2026-08-28T17:55:29Z</time>
  <course>71.63</course>
  <speed>4.97135796337379</speed>
  <fix>3d</fix>
</trkpt>
<trkpt lat="40.0712803" lon="-105.2301488">
  <ele>1583.0</ele>
  <time>2026-08-28T17:55:29Z</time>
  <course>70.74</course>
  <speed>4.99</speed>
  <fix>3d</fix>
</trkpt>
<trkpt lat="40.0712865" lon="-105.2301249">
  <ele>1583.12</ele>
  <time>2026-08-28T17:55:29Z</time>
  <course>71.63</course>
  <speed>4.97135796337379</speed>
  <fix>3d</fix>
</trkpt>
<trkpt lat="40.0712833" lon="-105.2301377">
  <ele>1583.0</ele>
  <time>2026-08-28T17:55:29Z</time>
  <course>70.74</course>
  <speed>4.99</speed>
  <fix>3d</fix>
</trkpt>
<trkpt lat="40.071288" lon="-105.2301195">
  <ele>1583.13</ele>
  <time>2026-08-28T17:55:29Z</time>
  <course>71.63</course>
  <speed>4.961904876153915</speed>
  <fix>3d</fix>
</trkpt>
<trkpt lat="40.0712833" lon="-105.2301377">
  <ele>1583.0</ele>
  <time>2026-08-28T17:55:29Z</time>
  <course>70.74</course>
  <speed>4.99</speed>
  <fix>3d</fix>
</trkpt>
<trkpt lat="40.0712894" lon="-105.230114">
  <ele>1583.13</ele>
  <time>2026-08-28T17:55:29Z</time>
  <course>71.64</course>
  <speed>4.961904876153915</speed>
  <fix>3d</fix>
</trkpt>
<trkpt lat="40.0712862" lon="-105.2301267">
  <ele>1583.0</ele>
  <time>2026-08-28T17:55:29Z</time>
  <course>70.74</course>
  <speed>4.99</speed>
  <fix>3d</fix>
</trkpt>
<trkpt lat="40.0712909" lon="-105.2301085">
  <ele>1583.13</ele>
  <time>2026-08-28T17:55:29Z</time>
  <course>71.64</course>
  <speed>4.961904876153915</speed>
  <fix>3d</fix>
</trkpt>
<trkpt lat="40.0712862" lon="-105.2301267">
  <ele>1583.0</ele>
  <time>2026-08-28T17:55:29Z</time>
  <course>70.74</course>
  <speed>4.99</speed>
  <fix>3d</fix>
</trkpt>
<trkpt lat="40.0712924" lon="-105.230103">
  <ele>1583.13</ele>
  <time>2026-08-28T17:55:29Z</time>
  <course>71.64</course>
  <speed>4.958649009558955</speed>
  <fix>3d</fix>
</trkpt>
<trkpt lat="40.0712891" lon="-105.2301156">
  <ele>1583.0</ele>
  <time>2026-08-28T17:55:29Z</time>
  <course>70.74</course>
  <speed>4.99</speed>
  <fix>3d</fix>
</trkpt>
<trkpt lat="40.0712938" lon="-105.2300975">
  <ele>1583.14</ele>
  <time>2026-08-28T17:55:29Z</time>
  <course>71.64</course>
  <speed>4.958649009558955</speed>
  <fix>3d</fix>
</trkpt>
<trkpt lat="40.0712922" lon="-105.2301045">
  <ele>1583.0</ele>
  <time>2026-08-28T17:55:29Z</time>
  <course>70.74</course>
  <speed>4.99</speed>
  <fix>3d</fix>
</trkpt>
<trkpt lat="40.0712953" lon="-105.230092">
  <ele>1583.14</ele>
  <time>2026-08-28T17:55:30Z</time>
  <course>71.64</course>
  <speed>4.961904876153915</speed>
  <fix>3d</fix>
</trkpt>
<trkpt lat="40.0712922" lon="-105.2301045">
  <ele>1583.0</ele>
  <time>2026-08-28T17:55:30Z</time>
  <course>70.74</course>
  <speed>4.99</speed>
  <fix>3d</fix>
</trkpt>
<trkpt lat="40.0712968" lon="-105.2300865">
  <ele>1583.14</ele>
  <time>2026-08-28T17:55:30Z</time>
  <course>71.64</course>
  <speed>4.961904876153915</speed>
  <fix>3d</fix>
</trkpt>
<trkpt lat="40.0712951" lon="-105.2300935">
  <ele>1583.0</ele>
  <time>2026-08-28T17:55:30Z</time>
  <course>70.74</course>
  <speed>5.0</speed>
  <fix>3d</fix>
</trkpt>
<trkpt lat="40.0712982" lon="-105.2300809">
  <ele>1583.14</ele>
  <time>2026-08-28T17:55:30Z</time>
  <course>71.64</course>
  <speed>4.97135796337379</speed>
  <fix>3d</fix>
</trkpt>
<trkpt lat="40.0712951" lon="-105.2300935">
  <ele>1583.0</ele>
  <time>2026-08-28T17:55:30Z</time>
  <course>70.74</course>
  <speed>5.0</speed>
  <fix>3d</fix>
</trkpt>
<trkpt lat="40.0712997" lon="-105.2300754">
  <ele>1583.14</ele>
  <time>2026-08-28T17:55:30Z</time>
  <course>71.64</course>
  <speed>4.97135796337379</speed>
  <fix>3d</fix>
</trkpt>
<trkpt lat="40.071298" lon="-105.2300824">
  <ele>1583.0</ele>
  <time>2026-08-28T17:55:30Z</time>
  <course>70.74</course>
  <speed>5.0</speed>
  <fix>3d</fix>
</trkpt>
<trkpt lat="40.0713012" lon="-105.2300698">
  <ele>1583.14</ele>
  <time>2026-08-28T17:55:30Z</time>
  <course>71.64</course>
  <speed>4.97135796337379</speed>
  <fix>3d</fix>
</trkpt>
<trkpt lat="40.071298" lon="-105.2300824">
  <ele>1583.0</ele>
  <time>2026-08-28T17:55:30Z</time>
  <course>70.74</course>
  <speed>5.0</speed>
  <fix>3d</fix>
</trkpt>
<trkpt lat="40.0713027" lon="-105.2300642">
  <ele>1583.15</ele>
  <time>2026-08-28T17:55:30Z</time>
  <course>71.64</course>
  <speed>4.980813186619229</speed>
  <fix>3d</fix>
</trkpt>
<trkpt lat="40.0713011" lon="-105.2300713">
  <ele>1583.0</ele>
  <time>2026-08-28T17:55:30Z</time>
  <course>70.74</course>
  <speed>5.0</speed>
  <fix>3d</fix>
</trkpt>
<trkpt lat="40.0713042" lon="-105.2300586">
  <ele>1583.15</ele>
  <time>2026-08-28T17:55:30Z</time>
  <course>71.64</course>
  <speed>4.980813186619229</speed>
  <fix>3d</fix>
</trkpt>
<trkpt lat="40.0713011" lon="-105.2300713">
  <ele>1583.0</ele>
  <time>2026-08-28T17:55:30Z</time>
  <course>70.74</course>
  <speed>5.0</speed>
  <fix>3d</fix>
</trkpt>
<trkpt lat="40.0713057" lon="-105.230053">
  <ele>1583.15</ele>
  <time>2026-08-28T17:55:30Z</time>
  <course>71.64</course>
  <speed>4.980813186619229</speed>
  <fix>3d</fix>
</trkpt>
<trkpt lat="40.071304" lon="-105.2300602">
  <ele>1583.0</ele>
  <time>2026-08-28T17:55:30Z</time>
  <course>70.74</course>
  <speed>5.0</speed>
  <fix>3d</fix>
</trkpt>
<trkpt lat="40.0713072" lon="-105.2300474">
  <ele>1583.15</ele>
  <time>2026-08-28T17:55:30Z</time>
  <course>71.64</course>
  <speed>4.980813186619229</speed>
  <fix>3d</fix>
</trkpt>
<trkpt lat="40.071304" lon="-105.2300602">
  <ele>1583.0</ele>
  <time>2026-08-28T17:55:30Z</time>
  <course>70.74</course>
  <speed>5.0</speed>
  <fix>3d</fix>
</trkpt>
<trkpt lat="40.0713087" lon="-105.2300419">
  <ele>1583.14</ele>
  <time>2026-08-28T17:55:30Z</time>
  <course>71.64</course>
  <speed>4.980813186619229</speed>
  <fix>3d</fix>
</trkpt>
<trkpt lat="40.071307" lon="-105.2300491">
  <ele>1583.0</ele>
  <time>2026-08-28T17:55:30Z</time>
  <course>70.74</course>
  <speed>5.0</speed>
  <fix>3d</fix>
</trkpt>
<trkpt lat="40.0713102" lon="-105.2300363">
  <ele>1583.14</ele>
  <time>2026-08-28T17:55:30Z</time>
  <course>71.64</course>
  <speed>4.980813186619229</speed>
  <fix>3d</fix>
</trkpt>
<trkpt lat="40.071307" lon="-105.2300491">
  <ele>1583.0</ele>
  <time>2026-08-28T17:55:30Z</time>
  <course>70.74</course>
  <speed>5.0</speed>
  <fix>3d</fix>
</trkpt>
<trkpt lat="40.0713117" lon="-105.2300307">
  <ele>1583.14</ele>
  <time>2026-08-28T17:55:30Z</time>
  <course>71.66</course>
  <speed>4.980813186619229</speed>
  <fix>3d</fix>
</trkpt>
<trkpt lat="40.0713099" lon="-105.230038">
  <ele>1583.0</ele>
  <time>2026-08-28T17:55:30Z</time>
  <course>70.75</course>
  <speed>5.0</speed>
  <fix>3d</fix>
</trkpt>
<trkpt lat="40.0713132" lon="-105.2300251">
  <ele>1583.14</ele>
  <time>2026-08-28T17:55:30Z</time>
  <course>71.66</course>
  <speed>4.980813186619229</speed>
  <fix>3d</fix>
</trkpt>
<trkpt lat="40.0713099" lon="-105.230038">
  <ele>1583.0</ele>
  <time>2026-08-28T17:55:30Z</time>
  <course>70.75</course>
  <speed>5.0</speed>
  <fix>3d</fix>
</trkpt>
<trkpt lat="40.0713147" lon="-105.2300196">
  <ele>1583.14</ele>
  <time>2026-08-28T17:55:30Z</time>
  <course>71.66</course>
  <speed>4.980813186619229</speed>
  <fix>3d</fix>
</trkpt>
<trkpt lat="40.0713099" lon="-105.230038">
  <ele>1583.0</ele>
  <time>2026-08-28T17:55:30Z</time>
  <course>70.75</course>
  <speed>5.0</speed>
  <fix>3d</fix>
</trkpt>
<trkpt lat="40.0713161" lon="-105.230014">
  <ele>1583.15</ele>
  <time>2026-08-28T17:55:30Z</time>
  <course>71.66</course>
  <speed>4.97135796337379</speed>
  <fix>3d</fix>
</trkpt>
<trkpt lat="40.0713128" lon="-105.2300269">
  <ele>1583.0</ele>
  <time>2026-08-28T17:55:30Z</time>
  <course>70.75</course>
  <speed>5.0</speed>
  <fix>3d</fix>
</trkpt>
<trkpt lat="40.0713176" lon="-105.2300085">
  <ele>1583.15</ele>
  <time>2026-08-28T17:55:30Z</time>
  <course>71.66</course>
  <speed>4.97135796337379</speed>
  <fix>3d</fix>
</trkpt>
<trkpt lat="40.0713128" lon="-105.2300269">
  <ele>1583.0</ele>
  <time>2026-08-28T17:55:30Z</time>
  <course>70.75</course>
  <speed>5.0</speed>
  <fix>3d</fix>
</trkpt>
<trkpt lat="40.0713191" lon="-105.230003">
  <ele>1583.15</ele>
  <time>2026-08-28T17:55:30Z</time>
  <course>71.66</course>
  <speed>4.97135796337379</speed>
  <fix>3d</fix>
</trkpt>
<trkpt lat="40.0713159" lon="-105.2300158">
  <ele>1583.0</ele>
  <time>2026-08-28T17:55:30Z</time>
  <course>70.75</course>
  <speed>4.99</speed>
  <fix>3d</fix>
</trkpt>
<trkpt lat="40.0713205" lon="-105.2299976">
  <ele>1583.15</ele>
  <time>2026-08-28T17:55:30Z</time>
  <course>71.66</course>
  <speed>4.97135796337379</speed>
  <fix>3d</fix>
</trkpt>
<trkpt lat="40.0713159" lon="-105.2300158">
  <ele>1583.0</ele>
  <time>2026-08-28T17:55:30Z</time>
  <course>70.75</course>
  <speed>4.99</speed>
  <fix>3d</fix>
</trkpt>
<trkpt lat="40.071322" lon="-105.2299921">
  <ele>1583.15</ele>
  <time>2026-08-28T17:55:30Z</time>
  <course>71.66</course>
  <speed>4.961904876153915</speed>
  <fix>3d</fix>
</trkpt>
<trkpt lat="40.0713188" lon="-105.2300047">
  <ele>1583.0</ele>
  <time>2026-08-28T17:55:30Z</time>
  <course>70.75</course>
  <speed>4.99</speed>
  <fix>3d</fix>
</trkpt>
<trkpt lat="40.0713235" lon="-105.2299866">
  <ele>1583.15</ele>
  <time>2026-08-28T17:55:30Z</time>
  <course>71.66</course>
  <speed>4.958649009558955</speed>
  <fix>3d</fix>
</trkpt>
<trkpt lat="40.0713217" lon="-105.2299936">
  <ele>1583.0</ele>
  <time>2026-08-28T17:55:30Z</time>
  <course>70.76</course>
  <speed>4.99</speed>
  <fix>3d</fix>
</trkpt>
<trkpt lat="40.0713249" lon="-105.229981">
  <ele>1583.15</ele>
  <time>2026-08-28T17:55:30Z</time>
  <course>71.66</course>
  <speed>4.958649009558955</speed>
  <fix>3d</fix>
</trkpt>
<trkpt lat="40.0713217" lon="-105.2299936">
  <ele>1583.0</ele>
  <time>2026-08-28T17:55:30Z</time>
  <course>70.76</course>
  <speed>4.99</speed>
  <fix>3d</fix>
</trkpt>
<trkpt lat="40.0713264" lon="-105.2299755">
  <ele>1583.15</ele>
  <time>2026-08-28T17:55:30Z</time>
  <course>71.66</course>
  <speed>4.958649009558955</speed>
  <fix>3d</fix>
</trkpt>
<trkpt lat="40.0713248" lon="-105.2299826">
  <ele>1583.0</ele>
  <time>2026-08-28T17:55:30Z</time>
  <course>70.76</course>
  <speed>4.99</speed>
  <fix>3d</fix>
</trkpt>
<trkpt lat="40.0713279" lon="-105.22997">
  <ele>1583.15</ele>
  <time>2026-08-28T17:55:30Z</time>
  <course>71.66</course>
  <speed>4.97135796337379</speed>
  <fix>3d</fix>
</trkpt>
<trkpt lat="40.0713248" lon="-105.2299826">
  <ele>1583.0</ele>
  <time>2026-08-28T17:55:30Z</time>
  <course>70.76</course>
  <speed>4.99</speed>
  <fix>3d</fix>
</trkpt>
<trkpt lat="40.0713294" lon="-105.2299644">
  <ele>1583.15</ele>
  <time>2026-08-28T17:55:30Z</time>
  <course>71.66</course>
  <speed>4.97135796337379</speed>
  <fix>3d</fix>
</trkpt>
<trkpt lat="40.0713277" lon="-105.2299715">
  <ele>1583.0</ele>
  <time>2026-08-28T17:55:30Z</time>
  <course>70.76</course>
  <speed>4.99</speed>
  <fix>3d</fix>
</trkpt>
<trkpt lat="40.0713309" lon="-105.2299589">
  <ele>1583.15</ele>
  <time>2026-08-28T17:55:30Z</time>
  <course>71.67</course>
  <speed>4.97135796337379</speed>
  <fix>3d</fix>
</trkpt>
<trkpt lat="40.0713277" lon="-105.2299715">
  <ele>1583.0</ele>
  <time>2026-08-28T17:55:30Z</time>
  <course>70.76</course>
  <speed>4.99</speed>
  <fix>3d</fix>
</trkpt>
<trkpt lat="40.0713323" lon="-105.2299533">
  <ele>1583.15</ele>
  <time>2026-08-28T17:55:30Z</time>
  <course>71.67</course>
  <speed>4.97135796337379</speed>
  <fix>3d</fix>
</trkpt>
<trkpt lat="40.0713307" lon="-105.2299604">
  <ele>1583.0</ele>
  <time>2026-08-28T17:55:30Z</time>
  <course>70.76</course>
  <speed>4.99</speed>
  <fix>3d</fix>
</trkpt>
<trkpt lat="40.0713339" lon="-105.2299477">
  <ele>1583.15</ele>
  <time>2026-08-28T17:55:30Z</time>
  <course>71.68</course>
  <speed>4.97135796337379</speed>
  <fix>3d</fix>
</trkpt>
<trkpt lat="40.0713307" lon="-105.2299604">
  <ele>1583.0</ele>
  <time>2026-08-28T17:55:30Z</time>
  <course>70.76</course>
  <speed>4.99</speed>
  <fix>3d</fix>
</trkpt>
<trkpt lat="40.0713353" lon="-105.2299421">
  <ele>1583.15</ele>
  <time>2026-08-28T17:55:30Z</time>
  <course>71.68</course>
  <speed>4.97135796337379</speed>
  <fix>3d</fix>
</trkpt>
<trkpt lat="40.0713336" lon="-105.2299493">
  <ele>1583.0</ele>
  <time>2026-08-28T17:55:30Z</time>
  <course>70.76</course>
  <speed>4.99</speed>
  <fix>3d</fix>
</trkpt>
<trkpt lat="40.0713368" lon="-105.2299365">
  <ele>1583.15</ele>
  <time>2026-08-28T17:55:30Z</time>
  <course>71.69</course>
  <speed>4.968108291895417</speed>
  <fix>3d</fix>
</trkpt>
<trkpt lat="40.0713336" lon="-105.2299493">
  <ele>1583.0</ele>
  <time>2026-08-28T17:55:30Z</time>
  <course>70.76</course>
  <speed>4.99</speed>
  <fix>3d</fix>
</trkpt>
<trkpt lat="40.0713383" lon="-105.229931">
  <ele>1583.15</ele>
  <time>2026-08-28T17:55:30Z</time>
  <course>71.72</course>
  <speed>4.958649009558955</speed>
  <fix>3d</fix>
</trkpt>
<trkpt lat="40.0713365" lon="-105.2299383">
  <ele>1583.0</ele>
  <time>2026-08-28T17:55:30Z</time>
  <course>70.79</course>
  <speed>4.98</speed>
  <fix>3d</fix>
</trkpt>
<trkpt lat="40.0713398" lon="-105.2299254">
  <ele>1583.15</ele>
  <time>2026-08-28T17:55:30Z</time>
  <course>71.76</course>
  <speed>4.936486604863828</speed>
  <fix>3d</fix>
</trkpt>
<trkpt lat="40.0713365" lon="-105.2299383">
  <ele>1583.0</ele>
  <time>2026-08-28T17:55:30Z</time>
  <course>70.79</course>
  <speed>4.98</speed>
  <fix>3d</fix>
</trkpt>
<trkpt lat="40.0713412" lon="-105.2299199">
  <ele>1583.15</ele>
  <time>2026-08-28T17:55:30Z</time>
  <course>71.78</course>
  <speed>4.914325996512645</speed>
  <fix>3d</fix>
</trkpt>
<trkpt lat="40.0713395" lon="-105.2299273">
  <ele>1583.0</ele>
  <time>2026-08-28T17:55:30Z</time>
  <course>70.84</course>
  <speed>4.96</speed>
  <fix>3d</fix>
</trkpt>
<trkpt lat="40.0713427" lon="-105.2299145">
  <ele>1583.15</ele>
  <time>2026-08-28T17:55:30Z</time>
  <course>71.8</course>
  <speed>4.882704168798269</speed>
  <fix>3d</fix>
</trkpt>
<trkpt lat="40.0713395" lon="-105.2299273">
  <ele>1583.0</ele>
  <time>2026-08-28T17:55:30Z</time>
  <course>70.84</course>
  <speed>4.96</speed>
  <fix>3d</fix>
</trkpt>
<trkpt lat="40.0713441" lon="-105.229909">
  <ele>1583.15</ele>
  <time>2026-08-28T17:55:30Z</time>
  <course>71.84</course>
  <speed>4.838388161361178</speed>
  <fix>3d</fix>
</trkpt>
<trkpt lat="40.0713395" lon="-105.2299273">
  <ele>1583.0</ele>
  <time>2026-08-28T17:55:30Z</time>
  <course>70.84</course>
  <speed>4.96</speed>
  <fix>3d</fix>
</trkpt>
<trkpt lat="40.0713455" lon="-105.2299037">
  <ele>1583.15</ele>
  <time>2026-08-28T17:55:30Z</time>
  <course>71.9</course>
  <speed>4.784610746967824</speed>
  <fix>3d</fix>
</trkpt>
<trkpt lat="40.0713424" lon="-105.2299163">
  <ele>1583.0</ele>
  <time>2026-08-28T17:55:30Z</time>
  <course>70.9</course>
  <speed>4.89</speed>
  <fix>3d</fix>
</trkpt>
<trkpt lat="40.0713469" lon="-105.2298984">
  <ele>1583.15</ele>
  <time>2026-08-28T17:55:30Z</time>
  <course>71.94</course>
  <speed>4.711899829155964</speed>
  <fix>3d</fix>
</trkpt>
<trkpt lat="40.0713424" lon="-105.2299163">
  <ele>1583.0</ele>
  <time>2026-08-28T17:55:30Z</time>
  <course>70.9</course>
  <speed>4.89</speed>
  <fix>3d</fix>
</trkpt>
<trkpt lat="40.0713483" lon="-105.2298933">
  <ele>1583.16</ele>
  <time>2026-08-28T17:55:30Z</time>
  <course>71.98</course>
  <speed>4.6359680758176065</speed>
  <fix>3d</fix>
</trkpt>
<trkpt lat="40.0713453" lon="-105.2299055">
  <ele>1583.0</ele>
  <time>2026-08-28T17:55:30Z</time>
  <course>70.98</course>
  <speed>4.8</speed>
  <fix>3d</fix>
</trkpt>
<trkpt lat="40.0713496" lon="-105.2298882">
  <ele>1583.16</ele>
  <time>2026-08-28T17:55:30Z</time>
  <course>72.04</course>
  <speed>4.550571392693449</speed>
  <fix>3d</fix>
</trkpt>
<trkpt lat="40.0713453" lon="-105.2299055">
  <ele>1583.0</ele>
  <time>2026-08-28T17:55:30Z</time>
  <course>70.98</course>
  <speed>4.8</speed>
  <fix>3d</fix>
</trkpt>
<trkpt lat="40.0713509" lon="-105.2298833">
  <ele>1583.16</ele>
  <time>2026-08-28T17:55:30Z</time>
  <course>72.08</course>
  <speed>4.443028246590382</speed>
  <fix>3d</fix>
</trkpt>
<trkpt lat="40.071348" lon="-105.229895">
  <ele>1583.0</ele>
  <time>2026-08-28T17:55:30Z</time>
  <course>71.07</course>
  <speed>4.65</speed>
  <fix>3d</fix>
</trkpt>
<trkpt lat="40.0713522" lon="-105.2298784">
  <ele>1583.16</ele>
  <time>2026-08-28T17:55:30Z</time>
  <course>72.11</course>
  <speed>4.338686437160446</speed>
  <fix>3d</fix>
</trkpt>
<trkpt lat="40.0713506" lon="-105.2298848">
  <ele>1583.0</ele>
  <time>2026-08-28T17:55:30Z</time>
  <course>71.16</course>
  <speed>4.47</speed>
  <fix>3d</fix>
</trkpt>
<trkpt lat="40.0713534" lon="-105.2298736">
  <ele>1583.16</ele>
  <time>2026-08-28T17:55:31Z</time>
  <course>72.17</course>
  <speed>4.231146416752793</speed>
  <fix>3d</fix>
</trkpt>
<trkpt lat="40.0713506" lon="-105.2298848">
  <ele>1583.0</ele>
  <time>2026-08-28T17:55:31Z</time>
  <course>71.16</course>
  <speed>4.47</speed>
  <fix>3d</fix>
</trkpt>
<trkpt lat="40.0713546" lon="-105.229869">
  <ele>1583.16</ele>
  <time>2026-08-28T17:55:31Z</time>
  <course>72.21</course>
  <speed>4.114134173796475</speed>
  <fix>3d</fix>
</trkpt>
<trkpt lat="40.0713532" lon="-105.2298751">
  <ele>1583.0</ele>
  <time>2026-08-28T17:55:31Z</time>
  <course>71.24</course>
  <speed>4.26</speed>
  <fix>3d</fix>
</trkpt>
<trkpt lat="40.0713558" lon="-105.2298645">
  <ele>1583.16</ele>
  <time>2026-08-28T17:55:31Z</time>
  <course>72.25</course>
  <speed>3.9971239660535924</speed>
  <fix>3d</fix>
</trkpt>
<trkpt lat="40.0713532" lon="-105.2298751">
  <ele>1583.0</ele>
  <time>2026-08-28T17:55:31Z</time>
  <course>71.24</course>
  <speed>4.26</speed>
  <fix>3d</fix>
</trkpt>
<trkpt lat="40.071357" lon="-105.2298601">
  <ele>1583.16</ele>
  <time>2026-08-28T17:55:31Z</time>
  <course>72.3</course>
  <speed>3.8706330231630073</speed>
  <fix>3d</fix>
</trkpt>
<trkpt lat="40.0713556" lon="-105.2298658">
  <ele>1583.0</ele>
  <time>2026-08-28T17:55:31Z</time>
  <course>71.33</course>
  <speed>4.03</speed>
  <fix>3d</fix>
</trkpt>
<trkpt lat="40.0713581" lon="-105.2298558">
  <ele>1583.16</ele>
  <time>2026-08-28T17:55:31Z</time>
  <course>72.35</course>
  <speed>3.7441420913207875</speed>
  <fix>3d</fix>
</trkpt>
<trkpt lat="40.0713556" lon="-105.2298658">
  <ele>1583.0</ele>
  <time>2026-08-28T17:55:31Z</time>
  <course>71.33</course>
  <speed>4.03</speed>
  <fix>3d</fix>
</trkpt>
<trkpt lat="40.0713591" lon="-105.2298517">
  <ele>1583.15</ele>
  <time>2026-08-28T17:55:31Z</time>
  <course>72.4</course>
  <speed>3.6176511716858495</speed>
  <fix>3d</fix>
</trkpt>
<trkpt lat="40.0713578" lon="-105.2298572">
  <ele>1583.0</ele>
  <time>2026-08-28T17:55:31Z</time>
  <course>71.43</course>
  <speed>3.79</speed>
  <fix>3d</fix>
</trkpt>
<trkpt lat="40.0713601" lon="-105.2298477">
  <ele>1583.15</ele>
  <time>2026-08-28T17:55:31Z</time>
  <course>72.45</course>
  <speed>3.4879936926548476</speed>
  <fix>3d</fix>
</trkpt>
<trkpt lat="40.0713578" lon="-105.2298572">
  <ele>1583.0</ele>
  <time>2026-08-28T17:55:31Z</time>
  <course>71.43</course>
  <speed>3.79</speed>
  <fix>3d</fix>
</trkpt>
<trkpt lat="40.0713611" lon="-105.2298439">
  <ele>1583.15</ele>
  <time>2026-08-28T17:55:31Z</time>
  <course>72.5</course>
  <speed>3.3615026401893546</speed>
  <fix>3d</fix>
</trkpt>
<trkpt lat="40.07136" lon="-105.229849">
  <ele>1583.0</ele>
  <time>2026-08-28T17:55:31Z</time>
  <course>71.52</course>
  <speed>3.53</speed>
  <fix>3d</fix>
</trkpt>
<trkpt lat="40.0713621" lon="-105.2298402">
  <ele>1583.15</ele>
  <time>2026-08-28T17:55:31Z</time>
  <course>72.55</course>
  <speed>3.235011591942137</speed>
  <fix>3d</fix>
</trkpt>
<trkpt lat="40.07136" lon="-105.229849">
  <ele>1583.0</ele>
  <time>2026-08-28T17:55:31Z</time>
  <course>71.52</course>
  <speed>3.53</speed>
  <fix>3d</fix>
</trkpt>
<trkpt lat="40.071363" lon="-105.2298366">
  <ele>1583.15</ele>
  <time>2026-08-28T17:55:31Z</time>
  <course>72.59</course>
  <speed>3.1085205484281424</speed>
  <fix>3d</fix>
</trkpt>
<trkpt lat="40.0713619" lon="-105.2298414">
  <ele>1583.0</ele>
  <time>2026-08-28T17:55:31Z</time>
  <course>71.62</course>
  <speed>3.28</speed>
  <fix>3d</fix>
</trkpt>
<trkpt lat="40.0713639" lon="-105.2298332">
  <ele>1583.15</ele>
  <time>2026-08-28T17:55:31Z</time>
  <course>72.63</course>
  <speed>2.982029510249689</speed>
  <fix>3d</fix>
</trkpt>
<trkpt lat="40.0713619" lon="-105.2298414">
  <ele>1583.0</ele>
  <time>2026-08-28T17:55:31Z</time>
  <course>71.62</course>
  <speed>3.28</speed>
  <fix>3d</fix>
</trkpt>
<trkpt lat="40.0713647" lon="-105.2298299">
  <ele>1583.15</ele>
  <time>2026-08-28T17:55:31Z</time>
  <course>72.67</course>
  <speed>2.8555384781158177</speed>
  <fix>3d</fix>
</trkpt>
<trkpt lat="40.0713636" lon="-105.2298343">
  <ele>1583.0</ele>
  <time>2026-08-28T17:55:31Z</time>
  <course>71.7</course>
  <speed>3.03</speed>
  <fix>3d</fix>
</trkpt>
<trkpt lat="40.0713655" lon="-105.2298268">
  <ele>1583.15</ele>
  <time>2026-08-28T17:55:31Z</time>
  <course>72.71</course>
  <speed>2.7385397568777416</speed>
  <fix>3d</fix>
</trkpt>
<trkpt lat="40.0713636" lon="-105.2298343">
  <ele>1583.0</ele>
  <time>2026-08-28T17:55:31Z</time>
  <course>71.7</course>
  <speed>3.03</speed>
  <fix>3d</fix>
</trkpt>
<trkpt lat="40.0713663" lon="-105.2298238">
  <ele>1583.15</ele>
  <time>2026-08-28T17:55:31Z</time>
  <course>72.75</course>
  <speed>2.6120490041344935</speed>
  <fix>3d</fix>
</trkpt>
<trkpt lat="40.0713636" lon="-105.2298343">
  <ele>1583.0</ele>
  <time>2026-08-28T17:55:31Z</time>
  <course>71.7</course>
  <speed>3.03</speed>
  <fix>3d</fix>
</trkpt>
<trkpt lat="40.071367" lon="-105.229821">
  <ele>1583.16</ele>
  <time>2026-08-28T17:55:31Z</time>
  <course>72.79</course>
  <speed>2.49505510961181</speed>
  <fix>3d</fix>
</trkpt>
<trkpt lat="40.0713653" lon="-105.2298278">
  <ele>1583.0</ele>
  <time>2026-08-28T17:55:31Z</time>
  <course>71.78</course>
  <speed>2.79</speed>
  <fix>3d</fix>
</trkpt>
<trkpt lat="40.0713677" lon="-105.2298183">
  <ele>1583.16</ele>
  <time>2026-08-28T17:55:31Z</time>
  <course>72.82</course>
  <speed>2.3780664414603727</speed>
  <fix>3d</fix>
</trkpt>
<trkpt lat="40.0713653" lon="-105.2298278">
  <ele>1583.0</ele>
  <time>2026-08-28T17:55:31Z</time>
  <course>71.78</course>
  <speed>2.79</speed>
  <fix>3d</fix>
</trkpt>
<trkpt lat="40.0713683" lon="-105.2298157">
  <ele>1583.16</ele>
  <time>2026-08-28T17:55:31Z</time>
  <course>72.85</course>
  <speed>2.264199637841151</speed>
  <fix>3d</fix>
</trkpt>
<trkpt lat="40.0713668" lon="-105.2298219">
  <ele>1583.0</ele>
  <time>2026-08-28T17:55:31Z</time>
  <course>71.85</course>
  <speed>2.55</speed>
  <fix>3d</fix>
</trkpt>
<trkpt lat="40.0713689" lon="-105.2298132">
  <ele>1583.15</ele>
  <time>2026-08-28T17:55:31Z</time>
  <course>72.88</course>
  <speed>2.1472074888095936</speed>
  <fix>3d</fix>
</trkpt>
<trkpt lat="40.0713668" lon="-105.2298219">
  <ele>1583.0</ele>
  <time>2026-08-28T17:55:31Z</time>
  <course>71.85</course>
  <speed>2.55</speed>
  <fix>3d</fix>
</trkpt>
<trkpt lat="40.0713695" lon="-105.2298109">
  <ele>1583.15</ele>
  <time>2026-08-28T17:55:31Z</time>
  <course>72.93</course>
  <speed>2.039730374338726</speed>
  <fix>3d</fix>
</trkpt>
<trkpt lat="40.0713681" lon="-105.2298165">
  <ele>1583.0</ele>
  <time>2026-08-28T17:55:31Z</time>
  <course>71.92</course>
  <speed>2.32</speed>
  <fix>3d</fix>
</trkpt>
<trkpt lat="40.0713701" lon="-105.2298087">
  <ele>1583.15</ele>
  <time>2026-08-28T17:55:31Z</time>
  <course>72.99</course>
  <speed>1.9353552645444712</speed>
  <fix>3d</fix>
</trkpt>
<trkpt lat="40.0713681" lon="-105.2298165">
  <ele>1583.0</ele>
  <time>2026-08-28T17:55:31Z</time>
  <course>71.92</course>
  <speed>2.32</speed>
  <fix>3d</fix>
</trkpt>
<trkpt lat="40.0713706" lon="-105.2298066">
  <ele>1583.15</ele>
  <time>2026-08-28T17:55:31Z</time>
  <course>73.04</course>
  <speed>1.8278949641595932</speed>
  <fix>3d</fix>
</trkpt>
<trkpt lat="40.0713693" lon="-105.2298115">
  <ele>1583.0</ele>
  <time>2026-08-28T17:55:31Z</time>
  <course>72.0</course>
  <speed>2.1</speed>
  <fix>3d</fix>
</trkpt>
<trkpt lat="40.0713711" lon="-105.2298046">
  <ele>1583.15</ele>
  <time>2026-08-28T17:55:31Z</time>
  <course>73.09</course>
  <speed>1.7235138525698017</speed>
  <fix>3d</fix>
</trkpt>
<trkpt lat="40.0713705" lon="-105.229807">
  <ele>1583.0</ele>
  <time>2026-08-28T17:55:31Z</time>
  <course>72.11</course>
  <speed>1.89</speed>
  <fix>3d</fix>
</trkpt>
<trkpt lat="40.0713715" lon="-105.2298027">
  <ele>1583.15</ele>
  <time>2026-08-28T17:55:31Z</time>
  <course>73.13</course>
  <speed>1.6191355718407276</speed>
  <fix>3d</fix>
</trkpt>
<trkpt lat="40.0713705" lon="-105.229807">
  <ele>1583.0</ele>
  <time>2026-08-28T17:55:31Z</time>
  <course>72.11</course>
  <speed>1.89</speed>
  <fix>3d</fix>
</trkpt>
<trkpt lat="40.071372" lon="-105.2298009">
  <ele>1583.15</ele>
  <time>2026-08-28T17:55:31Z</time>
  <course>73.18</course>
  <speed>1.5242703172337904</speed>
  <fix>3d</fix>
</trkpt>
<trkpt lat="40.0713715" lon="-105.2298031">
  <ele>1583.0</ele>
  <time>2026-08-28T17:55:31Z</time>
  <course>72.2</course>
  <speed>1.69</speed>
  <fix>3d</fix>
</trkpt>
<trkpt lat="40.0713724" lon="-105.2297992">
  <ele>1583.14</ele>
  <time>2026-08-28T17:55:31Z</time>
  <course>73.25</course>
  <speed>1.4263590010933433</speed>
  <fix>3d</fix>
</trkpt>
<trkpt lat="40.0713715" lon="-105.2298031">
  <ele>1583.0</ele>
  <time>2026-08-28T17:55:31Z</time>
  <course>72.2</course>
  <speed>1.69</speed>
  <fix>3d</fix>
</trkpt>
<trkpt lat="40.0713728" lon="-105.2297977">
  <ele>1583.14</ele>
  <time>2026-08-28T17:55:31Z</time>
  <course>73.3</course>
  <speed>1.3219682295728592</speed>
  <fix>3d</fix>
</trkpt>
<trkpt lat="40.0713724" lon="-105.2297995">
  <ele>1583.0</ele>
  <time>2026-08-28T17:55:31Z</time>
  <course>72.31</course>
  <speed>1.5</speed>
  <fix>3d</fix>
</trkpt>
<trkpt lat="40.0713731" lon="-105.2297962">
  <ele>1583.14</ele>
  <time>2026-08-28T17:55:31Z</time>
  <course>73.38</course>
  <speed>1.2271104269787623</speed>
  <fix>3d</fix>
</trkpt>
<trkpt lat="40.0713724" lon="-105.2297995">
  <ele>1583.0</ele>
  <time>2026-08-28T17:55:31Z</time>
  <course>72.31</course>
  <speed>1.5</speed>
  <fix>3d</fix>
</trkpt>
<trkpt lat="40.0713735" lon="-105.2297948">
  <ele>1583.14</ele>
  <time>2026-08-28T17:55:31Z</time>
  <course>73.46</course>
  <speed>1.132254388377453</speed>
  <fix>3d</fix>
</trkpt>
<trkpt lat="40.0713731" lon="-105.2297963">
  <ele>1583.0</ele>
  <time>2026-08-28T17:55:31Z</time>
  <course>72.45</course>
  <speed>1.3</speed>
  <fix>3d</fix>
</trkpt>
<trkpt lat="40.0713738" lon="-105.2297936">
  <ele>1583.14</ele>
  <time>2026-08-28T17:55:31Z</time>
  <course>73.56</course>
  <speed>1.0374005976477938</speed>
  <fix>3d</fix>
</trkpt>
<trkpt lat="40.0713731" lon="-105.2297963">
  <ele>1583.0</ele>
  <time>2026-08-28T17:55:31Z</time>
  <course>72.45</course>
  <speed>1.3</speed>
  <fix>3d</fix>
</trkpt>
<trkpt lat="40.071374" lon="-105.2297924">
  <ele>1583.14</ele>
  <time>2026-08-28T17:55:31Z</time>
  <course>73.67</course>
  <speed>0.9425497334358544</speed>
  <fix>3d</fix>
</trkpt>
<trkpt lat="40.0713738" lon="-105.2297936">
  <ele>1583.0</ele>
  <time>2026-08-28T17:55:31Z</time>
  <course>72.63</course>
  <speed>1.11</speed>
  <fix>3d</fix>
</trkpt>
<trkpt lat="40.0713743" lon="-105.2297914">
  <ele>1583.14</ele>
  <time>2026-08-28T17:55:31Z</time>
  <course>73.79</course>
  <speed>0.8477027781009095</speed>
  <fix>3d</fix>
</trkpt>
<trkpt lat="40.0713738" lon="-105.2297936">
  <ele>1583.0</ele>
  <time>2026-08-28T17:55:31Z</time>
  <course>72.63</course>
  <speed>1.11</speed>
  <fix>3d</fix>
</trkpt>
<trkpt lat="40.0713745" lon="-105.2297904">
  <ele>1583.14</ele>
  <time>2026-08-28T17:55:31Z</time>
  <course>73.91</course>
  <speed>0.7528612089887484</speed>
  <fix>3d</fix>
</trkpt>
<trkpt lat="40.0713743" lon="-105.2297913">
  <ele>1583.0</ele>
  <time>2026-08-28T17:55:31Z</time>
  <course>72.85</course>
  <speed>0.92</speed>
  <fix>3d</fix>
</trkpt>
<trkpt lat="40.0713747" lon="-105.2297896">
  <ele>1583.14</ele>
  <time>2026-08-28T17:55:31Z</time>
  <course>74.03</course>
  <speed>0.6580273550544841</speed>
  <fix>3d</fix>
</trkpt>
<trkpt lat="40.0713743" lon="-105.2297913">
  <ele>1583.0</ele>
  <time>2026-08-28T17:55:31Z</time>
  <course>72.85</course>
  <speed>0.92</speed>
  <fix>3d</fix>
</trkpt>
<trkpt lat="40.0713749" lon="-105.2297889">
  <ele>1583.14</ele>
  <time>2026-08-28T17:55:31Z</time>
  <course>74.15</course>
  <speed>0.5536244214266564</speed>
  <fix>3d</fix>
</trkpt>
<trkpt lat="40.0713748" lon="-105.2297895">
  <ele>1583.0</ele>
  <time>2026-08-28T17:55:31Z</time>
  <course>73.08</course>
  <speed>0.73</speed>
  <fix>3d</fix>
</trkpt>
<trkpt lat="40.071375" lon="-105.2297882">
  <ele>1583.14</ele>
  <time>2026-08-28T17:55:31Z</time>
  <course>74.27</course>
  <speed>0.45880278987817846</speed>
  <fix>3d</fix>
</trkpt>
<trkpt lat="40.0713748" lon="-105.2297895">
  <ele>1583.0</ele>
  <time>2026-08-28T17:55:31Z</time>
  <course>73.08</course>
  <speed>0.73</speed>
  <fix>3d</fix>
</trkpt>
<trkpt lat="40.0713751" lon="-105.2297877">
  <ele>1583.14</ele>
  <time>2026-08-28T17:55:31Z</time>
  <course>74.38</course>
  <speed>0.3640054944640259</speed>
  <fix>3d</fix>
</trkpt>
<trkpt lat="40.0713748" lon="-105.2297895">
  <ele>1583.0</ele>
  <time>2026-08-28T17:55:31Z</time>
  <course>73.08</course>
  <speed>0.73</speed>
  <fix>3d</fix>
</trkpt>
<trkpt lat="40.0713752" lon="-105.2297873">
  <ele>1583.14</ele>
  <time>2026-08-28T17:55:31Z</time>
  <course>74.47</course>
  <speed>0.2692582403567252</speed>
  <fix>3d</fix>
</trkpt>
<trkpt lat="40.0713751" lon="-105.2297881">
  <ele>1583.0</ele>
  <time>2026-08-28T17:55:31Z</time>
  <course>73.31</course>
  <speed>0.53</speed>
  <fix>3d</fix>
</trkpt>
<trkpt lat="40.0713753" lon="-105.229787">
  <ele>1583.14</ele>
  <time>2026-08-28T17:55:31Z</time>
  <course>74.54</course>
  <speed>0.17464249196572978</speed>
  <fix>3d</fix>
</trkpt>
<trkpt lat="40.0713751" lon="-105.2297881">
  <ele>1583.0</ele>
  <time>2026-08-28T17:55:31Z</time>
  <course>73.31</course>
  <speed>0.53</speed>
  <fix>3d</fix>
</trkpt>
<trkpt lat="40.0713753" lon="-105.2297868">
  <ele>1583.14</ele>
  <time>2026-08-28T17:55:31Z</time>
  <course>74.58</course>
  <speed>0.0824621125123532</speed>
  <fix>3d</fix>
</trkpt>
<trkpt lat="40.0713753" lon="-105.2297871">
  <ele>1583.0</ele>
  <time>2026-08-28T17:55:31Z</time>
  <course>73.5</course>
  <speed>0.34</speed>
  <fix>3d</fix>
</trkpt>
<trkpt lat="40.0713753" lon="-105.2297868">
  <ele>1583.14</ele>
  <time>2026-08-28T17:55:31Z</time>
  <course>74.61</course>
  <speed>0.0</speed>
  <fix>3d</fix>
</trkpt>
<trkpt lat="40.0713753" lon="-105.2297871">
  <ele>1583.0</ele>
  <time>2026-08-28T17:55:31Z</time>
  <course>73.5</course>
  <speed>0.34</speed>
  <fix>3d</fix>
</trkpt>
<trkpt lat="40.0713753" lon="-105.2297867">
  <ele>1583.14</ele>
  <time>2026-08-28T17:55:32Z</time>
  <course>74.6</course>
  <speed>0.0632455532033676</speed>
  <fix>3d</fix>
</trkpt>
<trkpt lat="40.0713754" lon="-105.2297864">
  <ele>1583.0</ele>
  <time>2026-08-28T17:55:32Z</time>
  <course>73.62</course>
  <speed>0.16</speed>
  <fix>3d</fix>
</trkpt>
<trkpt lat="40.0713753" lon="-105.2297868">
  <ele>1583.14</ele>
  <time>2026-08-28T17:55:32Z</time>
  <course>74.61</course>
  <speed>0.13601470508735444</speed>
  <fix>3d</fix>
</trkpt>
<trkpt lat="40.0713754" lon="-105.2297863">
  <ele>1583.0</ele>
  <time>2026-08-28T17:55:32Z</time>
  <course>73.29</course>
  <speed>0.0</speed>
  <fix>3d</fix>
</trkpt>
<trkpt lat="40.0713753" lon="-105.229787">
  <ele>1583.14</ele>
  <time>2026-08-28T17:55:32Z</time>
  <course>74.62</course>
  <speed>0.19924858845171275</speed>
  <fix>3d</fix>
</trkpt>
<trkpt lat="40.0713754" lon="-105.2297863">
  <ele>1583.0</ele>
  <time>2026-08-28T17:55:32Z</time>
  <course>73.29</course>
  <speed>0.0</speed>
  <fix>3d</fix>
</trkpt>
<trkpt lat="40.0713752" lon="-105.2297872">
  <ele>1583.14</ele>
  <time>2026-08-28T17:55:32Z</time>
  <course>74.63</course>
  <speed>0.2529822128134704</speed>
  <fix>3d</fix>
</trkpt>
<trkpt lat="40.0713754" lon="-105.2297864">
  <ele>1583.0</ele>
  <time>2026-08-28T17:55:32Z</time>
  <course>253.69</course>
  <speed>0.12</speed>
  <fix>3d</fix>
</trkpt>
<trkpt lat="40.0713752" lon="-105.2297873">
  <ele>1583.14</ele>
  <time>2026-08-28T17:55:32Z</time>
  <course>74.64</course>
  <speed>0.29410882339705485</speed>
  <fix>3d</fix>
</trkpt>
<trkpt lat="40.0713754" lon="-105.2297864">
  <ele>1583.0</ele>
  <time>2026-08-28T17:55:32Z</time>
  <course>253.69</course>
  <speed>0.12</speed>
  <fix>3d</fix>
</trkpt>
<trkpt lat="40.0713752" lon="-105.2297876">
  <ele>1583.14</ele>
  <time>2026-08-28T17:55:32Z</time>
  <course>74.65</course>
  <speed>0.32572994949804657</speed>
  <fix>3d</fix>
</trkpt>
<trkpt lat="40.0713754" lon="-105.2297868">
  <ele>1583.0</ele>
  <time>2026-08-28T17:55:32Z</time>
  <course>253.71</course>
  <speed>0.22</speed>
  <fix>3d</fix>
</trkpt>
<trkpt lat="40.0713751" lon="-105.2297879">
  <ele>1583.14</ele>
  <time>2026-08-28T17:55:32Z</time>
  <course>74.65</course>
  <speed>0.33837848631377265</speed>
  <fix>3d</fix>
</trkpt>
<trkpt lat="40.0713754" lon="-105.2297868">
  <ele>1583.0</ele>
  <time>2026-08-28T17:55:32Z</time>
  <course>253.71</course>
  <speed>0.22</speed>
  <fix>3d</fix>
</trkpt>
<trkpt lat="40.071375" lon="-105.2297883">
  <ele>1583.15</ele>
  <time>2026-08-28T17:55:32Z</time>
  <course>74.64</course>
  <speed>0.3478505426185217</speed>
  <fix>3d</fix>
</trkpt>
<trkpt lat="40.0713753" lon="-105.2297873">
  <ele>1583.0</ele>
  <time>2026-08-28T17:55:32Z</time>
  <course>253.7</course>
  <speed>0.27</speed>
  <fix>3d</fix>
</trkpt>
<trkpt lat="40.0713749" lon="-105.2297886">
  <ele>1583.15</ele>
  <time>2026-08-28T17:55:32Z</time>
  <course>74.62</course>
  <speed>0.3478505426185217</speed>
  <fix>3d</fix>
</trkpt>
<trkpt lat="40.0713753" lon="-105.2297873">
  <ele>1583.0</ele>
  <time>2026-08-28T17:55:32Z</time>
  <course>253.7</course>
  <speed>0.27</speed>
  <fix>3d</fix>
</trkpt>
<trkpt lat="40.0713748" lon="-105.229789">
  <ele>1583.15</ele>
  <time>2026-08-28T17:55:32Z</time>
  <course>74.59</course>
  <speed>0.3478505426185217</speed>
  <fix>3d</fix>
</trkpt>
<trkpt lat="40.0713752" lon="-105.2297879">
  <ele>1583.0</ele>
  <time>2026-08-28T17:55:32Z</time>
  <course>253.67</course>
  <speed>0.29</speed>
  <fix>3d</fix>
</trkpt>
<trkpt lat="40.0713748" lon="-105.2297893">
  <ele>1583.14</ele>
  <time>2026-08-28T17:55:32Z</time>
  <course>74.56</course>
  <speed>0.33837848631377265</speed>
  <fix>3d</fix>
</trkpt>
<trkpt lat="40.0713752" lon="-105.2297879">
  <ele>1583.0</ele>
  <time>2026-08-28T17:55:32Z</time>
  <course>253.67</course>
  <speed>0.29</speed>
  <fix>3d</fix>
</trkpt>
<trkpt lat="40.0713747" lon="-105.2297896">
  <ele>1583.14</ele>
  <time>2026-08-28T17:55:32Z</time>
  <course>74.52</course>
  <speed>0.3195309061734092</speed>
  <fix>3d</fix>
</trkpt>
<trkpt lat="40.0713751" lon="-105.2297886">
  <ele>1583.0</ele>
  <time>2026-08-28T17:55:32Z</time>
  <course>253.61</course>
  <speed>0.28</speed>
  <fix>3d</fix>
</trkpt>
<trkpt lat="40.0713746" lon="-105.2297899">
  <ele>1583.14</ele>
  <time>2026-08-28T17:55:32Z</time>
  <course>74.48</course>
  <speed>0.2973213749463701</speed>
  <fix>3d</fix>
</trkpt>
<trkpt lat="40.0713751" lon="-105.2297886">
  <ele>1583.0</ele>
  <time>2026-08-28T17:55:32Z</time>
  <course>253.61</course>
  <speed>0.28</speed>
  <fix>3d</fix>
</trkpt>
<trkpt lat="40.0713745" lon="-105.2297901">
  <ele>1583.13</ele>
  <time>2026-08-28T17:55:32Z</time>
  <course>74.44</course>
  <speed>0.2785677655436824</speed>
  <fix>3d</fix>
</trkpt>
<trkpt lat="40.0713749" lon="-105.2297892">
  <ele>1583.0</ele>
  <time>2026-08-28T17:55:32Z</time>
  <course>253.53</course>
  <speed>0.24</speed>
  <fix>3d</fix>
</trkpt>
<trkpt lat="40.0713745" lon="-105.2297903">
  <ele>1583.13</ele>
  <time>2026-08-28T17:55:32Z</time>
  <course>74.42</course>
  <speed>0.24698178070456936</speed>
  <fix>3d</fix>
</trkpt>
<trkpt lat="40.0713749" lon="-105.2297892">
  <ele>1583.0</ele>
  <time>2026-08-28T17:55:32Z</time>
  <course>253.53</course>
  <speed>0.24</speed>
  <fix>3d</fix>
</trkpt>
<trkpt lat="40.0713744" lon="-105.2297905">
  <ele>1583.13</ele>
  <time>2026-08-28T17:55:32Z</time>
  <course>74.42</course>
  <speed>0.2193171219946131</speed>
  <fix>3d</fix>
</trkpt>
<trkpt lat="40.0713749" lon="-105.2297892">
  <ele>1583.0</ele>
  <time>2026-08-28T17:55:32Z</time>
  <course>253.53</course>
  <speed>0.24</speed>
  <fix>3d</fix>
</trkpt>
<trkpt lat="40.0713744" lon="-105.2297907">
  <ele>1583.13</ele>
  <time>2026-08-28T17:55:32Z</time>
  <course>74.42</course>
  <speed>0.19697715603592209</speed>
  <fix>3d</fix>
</trkpt>
<trkpt lat="40.0713748" lon="-105.2297897">
  <ele>1583.0</ele>
  <time>2026-08-28T17:55:32Z</time>
  <course>253.48</course>
  <speed>0.2</speed>
  <fix>3d</fix>
</trkpt>
<trkpt lat="40.0713744" lon="-105.2297908">
  <ele>1583.13</ele>
  <time>2026-08-28T17:55:32Z</time>
  <course>74.42</course>
  <speed>0.16552945357246848</speed>
  <fix>3d</fix>
</trkpt>
<trkpt lat="40.0713748" lon="-105.2297897">
  <ele>1583.0</ele>
  <time>2026-08-28T17:55:32Z</time>
  <course>253.48</course>
  <speed>0.2</speed>
  <fix>3d</fix>
</trkpt>
<trkpt lat="40.0713743" lon="-105.2297909">
  <ele>1583.13</ele>
  <time>2026-08-28T17:55:32Z</time>
  <course>74.42</course>
  <speed>0.147648230602334</speed>
  <fix>3d</fix>
</trkpt>
<trkpt lat="40.0713747" lon="-105.2297901">
  <ele>1583.0</ele>
  <time>2026-08-28T17:55:32Z</time>
  <course>253.46</course>
  <speed>0.15</speed>
  <fix>3d</fix>
</trkpt>
<trkpt lat="40.0713743" lon="-105.229791">
  <ele>1583.12</ele>
  <time>2026-08-28T17:55:32Z</time>
  <course>74.42</course>
  <speed>0.147648230602334</speed>
  <fix>3d</fix>
</trkpt>
<trkpt lat="40.0713747" lon="-105.2297901">
  <ele>1583.0</ele>
  <time>2026-08-28T17:55:32Z</time>
  <course>253.46</course>
  <speed>0.15</speed>
  <fix>3d</fix>
</trkpt>
<trkpt lat="40.0713743" lon="-105.2297911">
  <ele>1583.12</ele>
  <time>2026-08-28T17:55:32Z</time>
  <course>74.42</course>
  <speed>0.13892443989449804</speed>
  <fix>3d</fix>
</trkpt>
<trkpt lat="40.0713746" lon="-105.2297904">
  <ele>1583.0</ele>
  <time>2026-08-28T17:55:32Z</time>
  <course>253.47</course>
  <speed>0.11</speed>
  <fix>3d</fix>
</trkpt>
<trkpt lat="40.0713742" lon="-105.2297912">
  <ele>1583.12</ele>
  <time>2026-08-28T17:55:32Z</time>
  <course>74.42</course>
  <speed>0.130384048104053</speed>
  <fix>3d</fix>
</trkpt>
<trkpt lat="40.0713746" lon="-105.2297904">
  <ele>1583.0</ele>
  <time>2026-08-28T17:55:32Z</time>
  <course>253.47</course>
  <speed>0.11</speed>
  <fix>3d</fix>
</trkpt>
<trkpt lat="40.0713742" lon="-105.2297913">
  <ele>1583.12</ele>
  <time>2026-08-28T17:55:32Z</time>
  <course>74.42</course>
  <speed>0.12206555615733702</speed>
  <fix>3d</fix>
</trkpt>
<trkpt lat="40.0713746" lon="-105.2297907">
  <ele>1583.0</ele>
  <time>2026-08-28T17:55:32Z</time>
  <course>253.47</course>
  <speed>0.1</speed>
  <fix>3d</fix>
</trkpt>
<trkpt lat="40.0713742" lon="-105.2297914">
  <ele>1583.11</ele>
  <time>2026-08-28T17:55:32Z</time>
  <course>74.41</course>
  <speed>0.11661903789690602</speed>
  <fix>3d</fix>
</trkpt>
<trkpt lat="40.0713745" lon="-105.2297908">
  <ele>1583.0</ele>
  <time>2026-08-28T17:55:32Z</time>
  <course>253.47</course>
  <speed>0.09</speed>
  <fix>3d</fix>
</trkpt>
<trkpt lat="40.0713742" lon="-105.2297914">
  <ele>1583.11</ele>
  <time>2026-08-28T17:55:32Z</time>
  <course>74.41</course>
  <speed>0.10816653826391968</speed>
  <fix>3d</fix>
</trkpt>
<trkpt lat="40.0713745" lon="-105.2297908">
  <ele>1583.0</ele>
  <time>2026-08-28T17:55:32Z</time>
  <course>253.47</course>
  <speed>0.09</speed>
  <fix>3d</fix>
</trkpt>
<trkpt lat="40.0713741" lon="-105.2297915">
  <ele>1583.1</ele>
  <time>2026-08-28T17:55:32Z</time>
  <course>74.41</course>
  <speed>0.10816653826391968</speed>
  <fix>3d</fix>
</trkpt>
<trkpt lat="40.0713745" lon="-105.2297911">
  <ele>1583.0</ele>
  <time>2026-08-28T17:55:32Z</time>
  <course>253.47</course>
  <speed>0.08</speed>
  <fix>3d</fix>
</trkpt>
<trkpt lat="40.0713741" lon="-105.2297916">
  <ele>1583.1</ele>
  <time>2026-08-28T17:55:32Z</time>
  <course>74.4</course>
  <speed>0.1</speed>
  <fix>3d</fix>
</trkpt>
<trkpt lat="40.0713745" lon="-105.2297911">
  <ele>1583.0</ele>
  <time>2026-08-28T17:55:32Z</time>
  <course>253.47</course>
  <speed>0.08</speed>
  <fix>3d</fix>
</trkpt>
<trkpt lat="40.0713741" lon="-105.2297916">
  <ele>1583.09</ele>
  <time>2026-08-28T17:55:32Z</time>
  <course>74.4</course>
  <speed>0.09219544457292887</speed>
  <fix>3d</fix>
</trkpt>
<trkpt lat="40.0713745" lon="-105.2297912">
  <ele>1583.0</ele>
  <time>2026-08-28T17:55:32Z</time>
  <course>253.47</course>
  <speed>0.07</speed>
  <fix>3d</fix>
</trkpt>
<trkpt lat="40.0713741" lon="-105.2297917">
  <ele>1583.09</ele>
  <time>2026-08-28T17:55:32Z</time>
  <course>74.4</course>
  <speed>0.09219544457292887</speed>
  <fix>3d</fix>
</trkpt>
<trkpt lat="40.0713745" lon="-105.2297912">
  <ele>1583.0</ele>
  <time>2026-08-28T17:55:32Z</time>
  <course>253.47</course>
  <speed>0.07</speed>
  <fix>3d</fix>
</trkpt>
<trkpt lat="40.0713741" lon="-105.2297917">
  <ele>1583.08</ele>
  <time>2026-08-28T17:55:32Z</time>
  <course>74.39</course>
  <speed>0.0848528137423857</speed>
  <fix>3d</fix>
</trkpt>
<trkpt lat="40.0713744" lon="-105.2297915">
  <ele>1583.0</ele>
  <time>2026-08-28T17:55:32Z</time>
  <course>253.47</course>
  <speed>0.07</speed>
  <fix>3d</fix>
</trkpt>
<trkpt lat="40.0713741" lon="-105.2297918">
  <ele>1583.08</ele>
  <time>2026-08-28T17:55:32Z</time>
  <course>74.39</course>
  <speed>0.07810249675906654</speed>
  <fix>3d</fix>
</trkpt>
<trkpt lat="40.0713744" lon="-105.2297915">
  <ele>1583.0</ele>
  <time>2026-08-28T17:55:32Z</time>
  <course>253.47</course>
  <speed>0.07</speed>
  <fix>3d</fix>
</trkpt>
<trkpt lat="40.0713741" lon="-105.2297918">
  <ele>1583.07</ele>
  <time>2026-08-28T17:55:32Z</time>
  <course>74.39</course>
  <speed>0.07810249675906654</speed>
  <fix>3d</fix>
</trkpt>
<trkpt lat="40.0713743" lon="-105.2297916">
  <ele>1583.0</ele>
  <time>2026-08-28T17:55:32Z</time>
  <course>253.47</course>
  <speed>0.06</speed>
  <fix>3d</fix>
</trkpt>
<trkpt lat="40.071374" lon="-105.2297919">
  <ele>1583.07</ele>
  <time>2026-08-28T17:55:32Z</time>
  <course>74.38</course>
  <speed>0.07071067811865475</speed>
  <fix>3d</fix>
</trkpt>
<trkpt lat="40.0713743" lon="-105.2297916">
  <ele>1583.0</ele>
  <time>2026-08-28T17:55:32Z</time>
  <course>253.47</course>
  <speed>0.06</speed>
  <fix>3d</fix>
</trkpt>
<trkpt lat="40.071374" lon="-105.2297919">
  <ele>1583.07</ele>
  <time>2026-08-28T17:55:32Z</time>
  <course>74.38</course>
  <speed>0.07071067811865475</speed>
  <fix>3d</fix>
</trkpt>
<trkpt lat="40.0713743" lon="-105.2297917">
  <ele>1583.0</ele>
  <time>2026-08-28T17:55:32Z</time>
  <course>253.47</course>
  <speed>0.05</speed>
  <fix>3d</fix>
</trkpt>
<trkpt lat="40.071374" lon="-105.229792">
  <ele>1583.07</ele>
  <time>2026-08-28T17:55:32Z</time>
  <course>74.37</course>
  <speed>0.06403124237432849</speed>
  <fix>3d</fix>
</trkpt>
<trkpt lat="40.0713743" lon="-105.2297917">
  <ele>1583.0</ele>
  <time>2026-08-28T17:55:32Z</time>
  <course>253.47</course>
  <speed>0.05</speed>
  <fix>3d</fix>
</trkpt>
<trkpt lat="40.071374" lon="-105.229792">
  <ele>1583.07</ele>
  <time>2026-08-28T17:55:32Z</time>
  <course>74.37</course>
  <speed>0.06403124237432849</speed>
  <fix>3d</fix>
</trkpt>
<trkpt lat="40.0713743" lon="-105.2297919">
  <ele>1583.0</ele>
  <time>2026-08-28T17:55:32Z</time>
  <course>253.47</course>
  <speed>0.05</speed>
  <fix>3d</fix>
</trkpt>
<trkpt lat="40.071374" lon="-105.229792">
  <ele>1583.07</ele>
  <time>2026-08-28T17:55:32Z</time>
  <course>74.37</course>
  <speed>0.06403124237432849</speed>
  <fix>3d</fix>
</trkpt>
<trkpt lat="40.0713743" lon="-105.2297919">
  <ele>1583.0</ele>
  <time>2026-08-28T17:55:32Z</time>
  <course>253.47</course>
  <speed>0.05</speed>
  <fix>3d</fix>
</trkpt>
<trkpt lat="40.071374" lon="-105.2297921">
  <ele>1583.07</ele>
  <time>2026-08-28T17:55:32Z</time>
  <course>74.36</course>
  <speed>0.06403124237432849</speed>
  <fix>3d</fix>
</trkpt>
<trkpt lat="40.0713743" lon="-105.2297919">
  <ele>1583.0</ele>
  <time>2026-08-28T17:55:32Z</time>
  <course>253.47</course>
  <speed>0.05</speed>
  <fix>3d</fix>
</trkpt>
<trkpt lat="40.071374" lon="-105.2297921">
  <ele>1583.08</ele>
  <time>2026-08-28T17:55:32Z</time>
  <course>74.36</course>
  <speed>0.05</speed>
  <fix>3d</fix>
</trkpt>
<trkpt lat="40.0713742" lon="-105.229792">
  <ele>1583.0</ele>
  <time>2026-08-28T17:55:32Z</time>
  <course>253.47</course>
  <speed>0.04</speed>
  <fix>3d</fix>
</trkpt>
<trkpt lat="40.071374" lon="-105.2297922">
  <ele>1583.08</ele>
  <time>2026-08-28T17:55:32Z</time>
  <course>74.35</course>
  <speed>0.05</speed>
  <fix>3d</fix>
</trkpt>
<trkpt lat="40.0713742" lon="-105.229792">
  <ele>1583.0</ele>
  <time>2026-08-28T17:55:32Z</time>
  <course>253.47</course>
  <speed>0.04</speed>
  <fix>3d</fix>
</trkpt>
<trkpt lat="40.071374" lon="-105.2297922">
  <ele>1583.08</ele>
  <time>2026-08-28T17:55:32Z</time>
  <course>74.35</course>
  <speed>0.05</speed>
  <fix>3d</fix>
</trkpt>
<trkpt lat="40.0713742" lon="-105.2297921">
  <ele>1583.0</ele>
  <time>2026-08-28T17:55:32Z</time>
  <course>253.47</course>
  <speed>0.04</speed>
  <fix>3d</fix>
</trkpt>
<trkpt lat="40.0713739" lon="-105.2297922">
  <ele>1583.08</ele>
  <time>2026-08-28T17:55:32Z</time>
  <course>74.35</course>
  <speed>0.05</speed>
  <fix>3d</fix>
</trkpt>
<trkpt lat="40.0713742" lon="-105.2297921">
  <ele>1583.0</ele>
  <time>2026-08-28T17:55:32Z</time>
  <course>253.47</course>
  <speed>0.04</speed>
  <fix>3d</fix>
</trkpt>
<trkpt lat="40.0713739" lon="-105.2297923">
  <ele>1583.08</ele>
  <time>2026-08-28T17:55:32Z</time>
  <course>74.34</course>
  <speed>0.044721359549995794</speed>
  <fix>3d</fix>
</trkpt>
<trkpt lat="40.0713742" lon="-105.2297921">
  <ele>1583.0</ele>
  <time>2026-08-28T17:55:32Z</time>
  <course>253.47</course>
  <speed>0.03</speed>
  <fix>3d</fix>
</trkpt>
<trkpt lat="40.0713739" lon="-105.2297923">
  <ele>1583.08</ele>
  <time>2026-08-28T17:55:32Z</time>
  <course>74.34</course>
  <speed>0.044721359549995794</speed>
  <fix>3d</fix>
</trkpt>
<trkpt lat="40.0713742" lon="-105.2297922">
  <ele>1583.0</ele>
  <time>2026-08-28T17:55:32Z</time>
  <course>253.48</course>
  <speed>0.03</speed>
  <fix>3d</fix>
</trkpt>
<trkpt lat="40.0713739" lon="-105.2297923">
  <ele>1583.08</ele>
  <time>2026-08-28T17:55:32Z</time>
  <course>74.33</course>
  <speed>0.044721359549995794</speed>
  <fix>3d</fix>
</trkpt>
<trkpt lat="40.0713742" lon="-105.2297922">
  <ele>1583.0</ele>
  <time>2026-08-28T17:55:32Z</time>
  <course>253.48</course>
  <speed>0.03</speed>
  <fix>3d</fix>
</trkpt>
<trkpt lat="40.0713739" lon="-105.2297923">
  <ele>1583.08</ele>
  <time>2026-08-28T17:55:32Z</time>
  <course>74.33</course>
  <speed>0.044721359549995794</speed>
  <fix>3d</fix>
</trkpt>
<trkpt lat="40.0713742" lon="-105.2297923">
  <ele>1583.0</ele>
  <time>2026-08-28T17:55:32Z</time>
  <course>253.48</course>
  <speed>0.03</speed>
  <fix>3d</fix>
</trkpt>
<trkpt lat="40.0713739" lon="-105.2297924">
  <ele>1583.07</ele>
  <time>2026-08-28T17:55:33Z</time>
  <course>74.31</course>
  <speed>0.0316227766016838</speed>
  <fix>3d</fix>
</trkpt>
<trkpt lat="40.0713742" lon="-105.2297925">
  <ele>1583.0</ele>
  <time>2026-08-28T17:55:33Z</time>
  <course>253.48</course>
  <speed>0.02</speed>
  <fix>3d</fix>
</trkpt>
<trkpt lat="40.0713739" lon="-105.2297925">
  <ele>1583.06</ele>
  <time>2026-08-28T17:55:33Z</time>
  <course>74.3</course>
  <speed>0.0316227766016838</speed>
  <fix>3d</fix>
</trkpt>
<trkpt lat="40.0713742" lon="-105.2297925">
  <ele>1583.0</ele>
  <time>2026-08-28T17:55:33Z</time>
  <course>253.48</course>
  <speed>0.02</speed>
  <fix>3d</fix>
</trkpt>
<trkpt lat="40.0713739" lon="-105.2297925">
  <ele>1583.06</ele>
  <time>2026-08-28T17:55:33Z</time>
  <course>74.3</course>
  <speed>0.0316227766016838</speed>
  <fix>3d</fix>
</trkpt>
<trkpt lat="40.0713742" lon="-105.2297925">
  <ele>1583.0</ele>
  <time>2026-08-28T17:55:33Z</time>
  <course>253.48</course>
  <speed>0.02</speed>
  <fix>3d</fix>
</trkpt>
<trkpt lat="40.0713739" lon="-105.2297925">
  <ele>1583.06</ele>
  <time>2026-08-28T17:55:33Z</time>
  <course>74.3</course>
  <speed>0.0316227766016838</speed>
  <fix>3d</fix>
</trkpt>
<trkpt lat="40.0713742" lon="-105.2297926">
  <ele>1583.0</ele>
  <time>2026-08-28T17:55:33Z</time>
  <course>253.49</course>
  <speed>0.02</speed>
  <fix>3d</fix>
</trkpt>
<trkpt lat="40.071374" lon="-105.2297926">
  <ele>1583.06</ele>
  <time>2026-08-28T17:55:33Z</time>
  <course>74.29</course>
  <speed>0.0316227766016838</speed>
  <fix>3d</fix>
</trkpt>
<trkpt lat="40.0713742" lon="-105.2297926">
  <ele>1583.0</ele>
  <time>2026-08-28T17:55:33Z</time>
  <course>253.49</course>
  <speed>0.02</speed>
  <fix>3d</fix>
</trkpt>
<trkpt lat="40.071374" lon="-105.2297926">
  <ele>1583.06</ele>
  <time>2026-08-28T17:55:33Z</time>
  <course>74.29</course>
  <speed>0.0316227766016838</speed>
  <fix>3d</fix>
</trkpt>
<trkpt lat="40.0713742" lon="-105.2297926">
  <ele>1583.0</ele>
  <time>2026-08-28T17:55:33Z</time>
  <course>253.49</course>
  <speed>0.01</speed>
  <fix>3d</fix>
</trkpt>
<trkpt lat="40.071374" lon="-105.2297926">
  <ele>1583.06</ele>
  <time>2026-08-28T17:55:33Z</time>
  <course>74.29</course>
  <speed>0.022360679774997897</speed>
  <fix>3d</fix>
</trkpt>
<trkpt lat="40.0713742" lon="-105.2297926">
  <ele>1583.0</ele>
  <time>2026-08-28T17:55:33Z</time>
  <course>253.49</course>
  <speed>0.01</speed>
  <fix>3d</fix>
</trkpt>
<trkpt lat="40.071374" lon="-105.2297926">
  <ele>1583.07</ele>
  <time>2026-08-28T17:55:33Z</time>
  <course>74.28</course>
  <speed>0.022360679774997897</speed>
  <fix>3d</fix>
</trkpt>
<trkpt lat="40.0713742" lon="-105.2297926">
  <ele>1583.0</ele>
  <time>2026-08-28T17:55:33Z</time>
  <course>253.49</course>
  <speed>0.01</speed>
  <fix>3d</fix>
</trkpt>
<trkpt lat="40.071374" lon="-105.2297926">
  <ele>1583.07</ele>
  <time>2026-08-28T17:55:33Z</time>
  <course>74.28</course>
  <speed>0.022360679774997897</speed>
  <fix>3d</fix>
</trkpt>
<trkpt lat="40.0713742" lon="-105.2297926">
  <ele>1583.0</ele>
  <time>2026-08-28T17:55:33Z</time>
  <course>253.5</course>
  <speed>0.01</speed>
  <fix>3d</fix>
</trkpt>
<trkpt lat="40.071374" lon="-105.2297926">
  <ele>1583.07</ele>
  <time>2026-08-28T17:55:33Z</time>
  <course>74.28</course>
  <speed>0.02</speed>
  <fix>3d</fix>
</trkpt>
<trkpt lat="40.0713742" lon="-105.2297926">
  <ele>1583.0</ele>
  <time>2026-08-28T17:55:33Z</time>
  <course>253.5</course>
  <speed>0.01</speed>
  <fix>3d</fix>
</trkpt>
<trkpt lat="40.071374" lon="-105.2297926">
  <ele>1583.07</ele>
  <time>2026-08-28T17:55:33Z</time>
  <course>74.28</course>
  <speed>0.02</speed>
  <fix>3d</fix>
</trkpt>
<trkpt lat="40.0713741" lon="-105.2297927">
  <ele>1583.0</ele>
  <time>2026-08-28T17:55:33Z</time>
  <course>253.5</course>
  <speed>0.01</speed>
  <fix>3d</fix>
</trkpt>
<trkpt lat="40.071374" lon="-105.2297927">
  <ele>1583.07</ele>
  <time>2026-08-28T17:55:33Z</time>
  <course>74.27</course>
  <speed>0.02</speed>
  <fix>3d</fix>
</trkpt>
<trkpt lat="40.0713741" lon="-105.2297927">
  <ele>1583.0</ele>
  <time>2026-08-28T17:55:33Z</time>
  <course>253.5</course>
  <speed>0.01</speed>
  <fix>3d</fix>
</trkpt>
<trkpt lat="40.071374" lon="-105.2297927">
  <ele>1583.07</ele>
  <time>2026-08-28T17:55:33Z</time>
  <course>74.27</course>
  <speed>0.02</speed>
  <fix>3d</fix>
</trkpt>
<trkpt lat="40.0713741" lon="-105.2297928">
  <ele>1583.0</ele>
  <time>2026-08-28T17:55:33Z</time>
  <course>253.5</course>
  <speed>0.01</speed>
  <fix>3d</fix>
</trkpt>
<trkpt lat="40.071374" lon="-105.2297927">
  <ele>1583.07</ele>
  <time>2026-08-28T17:55:33Z</time>
  <course>74.27</course>
  <speed>0.02</speed>
  <fix>3d</fix>
</trkpt>
<trkpt lat="40.0713741" lon="-105.2297928">
  <ele>1583.0</ele>
  <time>2026-08-28T17:55:33Z</time>
  <course>253.5</course>
  <speed>0.01</speed>
  <fix>3d</fix>
</trkpt>
<trkpt lat="40.071374" lon="-105.2297927">
  <ele>1583.07</ele>
  <time>2026-08-28T17:55:33Z</time>
  <course>74.27</course>
  <speed>0.02</speed>
  <fix>3d</fix>
</trkpt>
<trkpt lat="40.0713741" lon="-105.2297928">
  <ele>1583.0</ele>
  <time>2026-08-28T17:55:33Z</time>
  <course>253.51</course>
  <speed>0.01</speed>
  <fix>3d</fix>
</trkpt>
<trkpt lat="40.071374" lon="-105.2297927">
  <ele>1583.08</ele>
  <time>2026-08-28T17:55:33Z</time>
  <course>74.27</course>
  <speed>0.02</speed>
  <fix>3d</fix>
</trkpt>
<trkpt lat="40.0713741" lon="-105.2297928">
  <ele>1583.0</ele>
  <time>2026-08-28T17:55:33Z</time>
  <course>253.51</course>
  <speed>0.01</speed>
  <fix>3d</fix>
</trkpt>
<trkpt lat="40.071374" lon="-105.2297927">
  <ele>1583.08</ele>
  <time>2026-08-28T17:55:33Z</time>
  <course>74.27</course>
  <speed>0.02</speed>
  <fix>3d</fix>
</trkpt>
<trkpt lat="40.0713741" lon="-105.2297928">
  <ele>1583.0</ele>
  <time>2026-08-28T17:55:33Z</time>
  <course>253.51</course>
  <speed>0.01</speed>
  <fix>3d</fix>
</trkpt>
<trkpt lat="40.071374" lon="-105.2297927">
  <ele>1583.08</ele>
  <time>2026-08-28T17:55:33Z</time>
  <course>74.27</course>
  <speed>0.02</speed>
  <fix>3d</fix>
</trkpt>
<trkpt lat="40.0713741" lon="-105.2297928">
  <ele>1583.0</ele>
  <time>2026-08-28T17:55:33Z</time>
  <course>253.51</course>
  <speed>0.01</speed>
  <fix>3d</fix>
</trkpt>
<trkpt lat="40.071374" lon="-105.2297928">
  <ele>1583.08</ele>
  <time>2026-08-28T17:55:33Z</time>
  <course>74.27</course>
  <speed>0.02</speed>
  <fix>3d</fix>
</trkpt>
<trkpt lat="40.0713741" lon="-105.2297928">
  <ele>1583.0</ele>
  <time>2026-08-28T17:55:33Z</time>
  <course>253.52</course>
  <speed>0.0</speed>
  <fix>3d</fix>
</trkpt>
<trkpt lat="40.071374" lon="-105.2297928">
  <ele>1583.08</ele>
  <time>2026-08-28T17:55:33Z</time>
  <course>74.27</course>
  <speed>0.02</speed>
  <fix>3d</fix>
</trkpt>
<trkpt lat="40.0713741" lon="-105.2297928">
  <ele>1583.0</ele>
  <time>2026-08-28T17:55:33Z</time>
  <course>253.52</course>
  <speed>0.0</speed>
  <fix>3d</fix>
</trkpt>
<trkpt lat="40.071374" lon="-105.2297928">
  <ele>1583.08</ele>
  <time>2026-08-28T17:55:33Z</time>
  <course>74.27</course>
  <speed>0.02</speed>
  <fix>3d</fix>
</trkpt>
<trkpt lat="40.0713741" lon="-105.2297928">
  <ele>1583.0</ele>
  <time>2026-08-28T17:55:33Z</time>
  <course>253.52</course>
  <speed>0.0</speed>
  <fix>3d</fix>
</trkpt>
<trkpt lat="40.071374" lon="-105.2297928">
  <ele>1583.07</ele>
  <time>2026-08-28T17:55:33Z</time>
  <course>74.27</course>
  <speed>0.02</speed>
  <fix>3d</fix>
</trkpt>
<trkpt lat="40.0713741" lon="-105.2297928">
  <ele>1583.0</ele>
  <time>2026-08-28T17:55:33Z</time>
  <course>253.52</course>
  <speed>0.0</speed>
  <fix>3d</fix>
</trkpt>
<trkpt lat="40.071374" lon="-105.2297928">
  <ele>1583.07</ele>
  <time>2026-08-28T17:55:33Z</time>
  <course>74.27</course>
  <speed>0.02</speed>
  <fix>3d</fix>
</trkpt>
<trkpt lat="40.0713741" lon="-105.2297928">
  <ele>1583.0</ele>
  <time>2026-08-28T17:55:33Z</time>
  <course>253.53</course>
  <speed>0.0</speed>
  <fix>3d</fix>
</trkpt>
<trkpt lat="40.071374" lon="-105.2297928">
  <ele>1583.06</ele>
  <time>2026-08-28T17:55:33Z</time>
  <course>74.26</course>
  <speed>0.02</speed>
  <fix>3d</fix>
</trkpt>
<trkpt lat="40.0713741" lon="-105.2297928">
  <ele>1583.0</ele>
  <time>2026-08-28T17:55:33Z</time>
  <course>253.53</course>
  <speed>0.0</speed>
  <fix>3d</fix>
</trkpt>
<trkpt lat="40.071374" lon="-105.2297928">
  <ele>1583.06</ele>
  <time>2026-08-28T17:55:33Z</time>
  <course>74.26</course>
  <speed>0.02</speed>
  <fix>3d</fix>
</trkpt>
<trkpt lat="40.0713741" lon="-105.2297928">
  <ele>1583.0</ele>
  <time>2026-08-28T17:55:33Z</time>
  <course>253.54</course>
  <speed>0.0</speed>
  <fix>3d</fix>
</trkpt>
<trkpt lat="40.071374" lon="-105.2297928">
  <ele>1583.05</ele>
  <time>2026-08-28T17:55:33Z</time>
  <course>74.26</course>
  <speed>0.02</speed>
  <fix>3d</fix>
</trkpt>
<trkpt lat="40.0713741" lon="-105.2297928">
  <ele>1583.0</ele>
  <time>2026-08-28T17:55:33Z</time>
  <course>253.54</course>
  <speed>0.0</speed>
  <fix>3d</fix>
</trkpt>
<trkpt lat="40.071374" lon="-105.2297928">
  <ele>1583.05</ele>
  <time>2026-08-28T17:55:33Z</time>
  <course>74.26</course>
  <speed>0.02</speed>
  <fix>3d</fix>
</trkpt>
<trkpt lat="40.0713741" lon="-105.2297928">
  <ele>1583.0</ele>
  <time>2026-08-28T17:55:33Z</time>
  <course>253.55</course>
  <speed>0.0</speed>
  <fix>3d</fix>
</trkpt>
<trkpt lat="40.071374" lon="-105.2297928">
  <ele>1583.04</ele>
  <time>2026-08-28T17:55:33Z</time>
  <course>74.26</course>
  <speed>0.02</speed>
  <fix>3d</fix>
</trkpt>
<trkpt lat="40.0713741" lon="-105.2297928">
  <ele>1583.0</ele>
  <time>2026-08-28T17:55:33Z</time>
  <course>253.55</course>
  <speed>0.0</speed>
  <fix>3d</fix>
</trkpt>
<trkpt lat="40.071374" lon="-105.2297928">
  <ele>1583.04</ele>
  <time>2026-08-28T17:55:33Z</time>
  <course>74.26</course>
  <speed>0.02</speed>
  <fix>3d</fix>
</trkpt>
<trkpt lat="40.0713741" lon="-105.2297929">
  <ele>1583.0</ele>
  <time>2026-08-28T17:55:33Z</time>
  <course>253.56</course>
  <speed>0.0</speed>
  <fix>3d</fix>
</trkpt>
<trkpt lat="40.071374" lon="-105.2297929">
  <ele>1583.03</ele>
  <time>2026-08-28T17:55:33Z</time>
  <course>74.26</course>
  <speed>0.02</speed>
  <fix>3d</fix>
</trkpt>
<trkpt lat="40.0713741" lon="-105.2297929">
  <ele>1583.0</ele>
  <time>2026-08-28T17:55:33Z</time>
  <course>253.56</course>
  <speed>0.0</speed>
  <fix>3d</fix>
</trkpt>
<trkpt lat="40.071374" lon="-105.2297929">
  <ele>1583.03</ele>
  <time>2026-08-28T17:55:33Z</time>
  <course>74.26</course>
  <speed>0.02</speed>
  <fix>3d</fix>
</trkpt>
<trkpt lat="40.0713741" lon="-105.229793">
  <ele>1583.0</ele>
  <time>2026-08-28T17:55:33Z</time>
  <course>253.57</course>
  <speed>0.0</speed>
  <fix>3d</fix>
</trkpt>
<trkpt lat="40.071374" lon="-105.2297929">
  <ele>1583.03</ele>
  <time>2026-08-28T17:55:33Z</time>
  <course>74.26</course>
  <speed>0.02</speed>
  <fix>3d</fix>
</trkpt>
<trkpt lat="40.0713741" lon="-105.229793">
  <ele>1583.0</ele>
  <time>2026-08-28T17:55:33Z</time>
  <course>253.57</course>
  <speed>0.0</speed>
  <fix>3d</fix>
</trkpt>
<trkpt lat="40.071374" lon="-105.2297929">
  <ele>1583.03</ele>
  <time>2026-08-28T17:55:33Z</time>
  <course>74.26</course>
  <speed>0.022360679774997897</speed>
  <fix>3d</fix>
</trkpt>
<trkpt lat="40.0713741" lon="-105.229793">
  <ele>1583.0</ele>
  <time>2026-08-28T17:55:33Z</time>
  <course>253.58</course>
  <speed>0.0</speed>
  <fix>3d</fix>
</trkpt>
<trkpt lat="40.071374" lon="-105.2297929">
  <ele>1583.02</ele>
  <time>2026-08-28T17:55:33Z</time>
  <course>74.26</course>
  <speed>0.022360679774997897</speed>
  <fix>3d</fix>
</trkpt>
<trkpt lat="40.0713741" lon="-105.229793">
  <ele>1583.0</ele>
  <time>2026-08-28T17:55:33Z</time>
  <course>253.58</course>
  <speed>0.0</speed>
  <fix>3d</fix>
</trkpt>
<trkpt lat="40.071374" lon="-105.2297929">
  <ele>1583.02</ele>
  <time>2026-08-28T17:55:33Z</time>
  <course>74.26</course>
  <speed>0.022360679774997897</speed>
  <fix>3d</fix>
</trkpt>
<trkpt lat="40.0713741" lon="-105.229793">
  <ele>1583.0</ele>
  <time>2026-08-28T17:55:33Z</time>
  <course>253.59</course>
  <speed>0.0</speed>
  <fix>3d</fix>
</trkpt>
<trkpt lat="40.071374" lon="-105.2297929">
  <ele>1583.02</ele>
  <time>2026-08-28T17:55:33Z</time>
  <course>74.26</course>
  <speed>0.022360679774997897</speed>
  <fix>3d</fix>
</trkpt>
<trkpt lat="40.0713741" lon="-105.229793">
  <ele>1583.0</ele>
  <time>2026-08-28T17:55:33Z</time>
  <course>253.59</course>
  <speed>0.0</speed>
  <fix>3d</fix>
</trkpt>
<trkpt lat="40.071374" lon="-105.229793">
  <ele>1583.02</ele>
  <time>2026-08-28T17:55:33Z</time>
  <course>74.26</course>
  <speed>0.022360679774997897</speed>
  <fix>3d</fix>
</trkpt>
<trkpt lat="40.0713741" lon="-105.229793">
  <ele>1583.0</ele>
  <time>2026-08-28T17:55:33Z</time>
  <course>253.6</course>
  <speed>0.0</speed>
  <fix>3d</fix>
</trkpt>
<trkpt lat="40.071374" lon="-105.229793">
  <ele>1583.01</ele>
  <time>2026-08-28T17:55:33Z</time>
  <course>74.26</course>
  <speed>0.022360679774997897</speed>
  <fix>3d</fix>
</trkpt>
<trkpt lat="40.0713741" lon="-105.229793">
  <ele>1583.0</ele>
  <time>2026-08-28T17:55:33Z</time>
  <course>253.6</course>
  <speed>0.0</speed>
  <fix>3d</fix>
</trkpt>
<trkpt lat="40.071374" lon="-105.229793">
  <ele>1583.01</ele>
  <time>2026-08-28T17:55:33Z</time>
  <course>74.27</course>
  <speed>0.022360679774997897</speed>
  <fix>3d</fix>
</trkpt>
<trkpt lat="40.0713741" lon="-105.229793">
  <ele>1583.0</ele>
  <time>2026-08-28T17:55:33Z</time>
  <course>253.62</course>
  <speed>0.0</speed>
  <fix>3d</fix>
</trkpt>
<trkpt lat="40.071374" lon="-105.229793">
  <ele>1583.01</ele>
  <time>2026-08-28T17:55:33Z</time>
  <course>74.27</course>
  <speed>0.022360679774997897</speed>
  <fix>3d</fix>
</trkpt>
<trkpt lat="40.0713741" lon="-105.229793">
  <ele>1583.0</ele>
  <time>2026-08-28T17:55:33Z</time>
  <course>253.62</course>
  <speed>0.0</speed>
  <fix>3d</fix>
</trkpt>
<trkpt lat="40.071374" lon="-105.229793">
  <ele>1583.01</ele>
  <time>2026-08-28T17:55:33Z</time>
  <course>74.27</course>
  <speed>0.022360679774997897</speed>
  <fix>3d</fix>
</trkpt>
<trkpt lat="40.0713741" lon="-105.229793">
  <ele>1583.0</ele>
  <time>2026-08-28T17:55:33Z</time>
  <course>253.63</course>
  <speed>0.0</speed>
  <fix>3d</fix>
</trkpt>
<trkpt lat="40.071374" lon="-105.229793">
  <ele>1583.01</ele>
  <time>2026-08-28T17:55:33Z</time>
  <course>74.27</course>
  <speed>0.022360679774997897</speed>
  <fix>3d</fix>
</trkpt>
<trkpt lat="40.0713741" lon="-105.229793">
  <ele>1583.0</ele>
  <time>2026-08-28T17:55:33Z</time>
  <course>253.63</course>
  <speed>0.0</speed>
  <fix>3d</fix>
</trkpt>
<trkpt lat="40.071374" lon="-105.229793">
  <ele>1583.01</ele>
  <time>2026-08-28T17:55:33Z</time>
  <course>74.27</course>
  <speed>0.022360679774997897</speed>
  <fix>3d</fix>
</trkpt>
<trkpt lat="40.0713741" lon="-105.229793">
  <ele>1583.0</ele>
  <time>2026-08-28T17:55:33Z</time>
  <course>253.65</course>
  <speed>0.0</speed>
  <fix>3d</fix>
</trkpt>
<trkpt lat="40.071374" lon="-105.229793">
  <ele>1583.01</ele>
  <time>2026-08-28T17:55:33Z</time>
  <course>74.27</course>
  <speed>0.022360679774997897</speed>
  <fix>3d</fix>
</trkpt>
<trkpt lat="40.0713741" lon="-105.229793">
  <ele>1583.0</ele>
  <time>2026-08-28T17:55:33Z</time>
  <course>253.65</course>
  <speed>0.0</speed>
  <fix>3d</fix>
</trkpt>
<trkpt lat="40.071374" lon="-105.229793">
  <ele>1583.01</ele>
  <time>2026-08-28T17:55:33Z</time>
  <course>74.27</course>
  <speed>0.022360679774997897</speed>
  <fix>3d</fix>
</trkpt>
<trkpt lat="40.0713741" lon="-105.229793">
  <ele>1583.0</ele>
  <time>2026-08-28T17:55:33Z</time>
  <course>253.67</course>
  <speed>0.0</speed>
  <fix>3d</fix>
</trkpt>
<trkpt lat="40.071374" lon="-105.2297931">
  <ele>1583.01</ele>
  <time>2026-08-28T17:55:33Z</time>
  <course>74.27</course>
  <speed>0.022360679774997897</speed>
  <fix>3d</fix>
</trkpt>
<trkpt lat="40.0713741" lon="-105.229793">
  <ele>1583.0</ele>
  <time>2026-08-28T17:55:33Z</time>
  <course>253.67</course>
  <speed>0.0</speed>
  <fix>3d</fix>
</trkpt>
<trkpt lat="40.071374" lon="-105.2297931">
  <ele>1583.01</ele>
  <time>2026-08-28T17:55:33Z</time>
  <course>74.27</course>
  <speed>0.022360679774997897</speed>
  <fix>3d</fix>
</trkpt>
<trkpt lat="40.0713741" lon="-105.229793">
  <ele>1583.0</ele>
  <time>2026-08-28T17:55:33Z</time>
  <course>253.69</course>
  <speed>0.0</speed>
  <fix>3d</fix>
</trkpt>
<trkpt lat="40.071374" lon="-105.2297931">
  <ele>1583.01</ele>
  <time>2026-08-28T17:55:33Z</time>
  <course>74.27</course>
  <speed>0.022360679774997897</speed>
  <fix>3d</fix>
</trkpt>
<trkpt lat="40.0713741" lon="-105.229793">
  <ele>1583.0</ele>
  <time>2026-08-28T17:55:33Z</time>
  <course>253.69</course>
  <speed>0.0</speed>
  <fix>3d</fix>
</trkpt>
<trkpt lat="40.071374" lon="-105.2297931">
  <ele>1583.01</ele>
  <time>2026-08-28T17:55:33Z</time>
  <course>74.27</course>
  <speed>0.022360679774997897</speed>
  <fix>3d</fix>
</trkpt>
<trkpt lat="40.0713741" lon="-105.229793">
  <ele>1583.0</ele>
  <time>2026-08-28T17:55:33Z</time>
  <course>253.72</course>
  <speed>0.0</speed>
  <fix>3d</fix>
</trkpt>
<trkpt lat="40.071374" lon="-105.2297931">
  <ele>1583.01</ele>
  <time>2026-08-28T17:55:33Z</time>
  <course>74.27</course>
  <speed>0.022360679774997897</speed>
  <fix>3d</fix>
</trkpt>
<trkpt lat="40.0713741" lon="-105.229793">
  <ele>1583.0</ele>
  <time>2026-08-28T17:55:33Z</time>
  <course>253.72</course>
  <speed>0.0</speed>
  <fix>3d</fix>
</trkpt>
<trkpt lat="40.071374" lon="-105.2297931">
  <ele>1583.01</ele>
  <time>2026-08-28T17:55:33Z</time>
  <course>74.27</course>
  <speed>0.022360679774997897</speed>
  <fix>3d</fix>
</trkpt>
<trkpt lat="40.0713741" lon="-105.229793">
  <ele>1583.0</ele>
  <time>2026-08-28T17:55:33Z</time>
  <course>253.75</course>
  <speed>0.0</speed>
  <fix>3d</fix>
</trkpt>
<trkpt lat="40.071374" lon="-105.2297931">
  <ele>1583.01</ele>
  <time>2026-08-28T17:55:33Z</time>
  <course>74.27</course>
  <speed>0.022360679774997897</speed>
  <fix>3d</fix>
</trkpt>
<trkpt lat="40.0713741" lon="-105.229793">
  <ele>1583.0</ele>
  <time>2026-08-28T17:55:33Z</time>
  <course>253.75</course>
  <speed>0.0</speed>
  <fix>3d</fix>
</trkpt>
<trkpt lat="40.071374" lon="-105.2297931">
  <ele>1583.01</ele>
  <time>2026-08-28T17:55:33Z</time>
  <course>74.27</course>
  <speed>0.022360679774997897</speed>
  <fix>3d</fix>
</trkpt>
<trkpt lat="40.0713741" lon="-105.229793">
  <ele>1583.0</ele>
  <time>2026-08-28T17:55:33Z</time>
  <course>253.78</course>
  <speed>0.0</speed>
  <fix>3d</fix>
</trkpt>
<trkpt lat="40.071374" lon="-105.2297931">
  <ele>1583.01</ele>
  <time>2026-08-28T17:55:33Z</time>
  <course>74.27</course>
  <speed>0.022360679774997897</speed>
  <fix>3d</fix>
</trkpt>
<trkpt lat="40.0713741" lon="-105.229793">
  <ele>1583.0</ele>
  <time>2026-08-28T17:55:33Z</time>
  <course>253.78</course>
  <speed>0.0</speed>
  <fix>3d</fix>
</trkpt>
<trkpt lat="40.071374" lon="-105.2297931">
  <ele>1583.01</ele>
  <time>2026-08-28T17:55:33Z</time>
  <course>74.27</course>
  <speed>0.022360679774997897</speed>
  <fix>3d</fix>
</trkpt>
<trkpt lat="40.0713741" lon="-105.229793">
  <ele>1583.0</ele>
  <time>2026-08-28T17:55:33Z</time>
  <course>253.81</course>
  <speed>0.0</speed>
  <fix>3d</fix>
</trkpt>
<trkpt lat="40.071374" lon="-105.2297931">
  <ele>1583.02</ele>
  <time>2026-08-28T17:55:33Z</time>
  <course>74.27</course>
  <speed>0.022360679774997897</speed>
  <fix>3d</fix>
</trkpt>
<trkpt lat="40.0713741" lon="-105.229793">
  <ele>1583.0</ele>
  <time>2026-08-28T17:55:33Z</time>
  <course>253.81</course>
  <speed>0.0</speed>
  <fix>3d</fix>
</trkpt>
<trkpt lat="40.071374" lon="-105.2297931">
  <ele>1583.02</ele>
  <time>2026-08-28T17:55:33Z</time>
  <course>74.28</course>
  <speed>0.022360679774997897</speed>
  <fix>3d</fix>
</trkpt>
<trkpt lat="40.0713741" lon="-105.229793">
  <ele>1583.0</ele>
  <time>2026-08-28T17:55:33Z</time>
  <course>253.85</course>
  <speed>0.0</speed>
  <fix>3d</fix>
</trkpt>
<trkpt lat="40.071374" lon="-105.2297931">
  <ele>1583.02</ele>
  <time>2026-08-28T17:55:33Z</time>
  <course>74.28</course>
  <speed>0.022360679774997897</speed>
  <fix>3d</fix>
</trkpt>
<trkpt lat="40.0713741" lon="-105.229793">
  <ele>1583.0</ele>
  <time>2026-08-28T17:55:33Z</time>
  <course>253.85</course>
  <speed>0.0</speed>
  <fix>3d</fix>
</trkpt>
<trkpt lat="40.071374" lon="-105.2297931">
  <ele>1583.03</ele>
  <time>2026-08-28T17:55:33Z</time>
  <course>74.28</course>
  <speed>0.022360679774997897</speed>
  <fix>3d</fix>
</trkpt>
<trkpt lat="40.0713741" lon="-105.229793">
  <ele>1583.0</ele>
  <time>2026-08-28T17:55:33Z</time>
  <course>253.89</course>
  <speed>0.0</speed>
  <fix>3d</fix>
</trkpt>
<trkpt lat="40.071374" lon="-105.2297931">
  <ele>1583.03</ele>
  <time>2026-08-28T17:55:33Z</time>
  <course>74.28</course>
  <speed>0.022360679774997897</speed>
  <fix>3d</fix>
</trkpt>
<trkpt lat="40.0713741" lon="-105.229793">
  <ele>1583.0</ele>
  <time>2026-08-28T17:55:33Z</time>
  <course>253.89</course>
  <speed>0.0</speed>
  <fix>3d</fix>
</trkpt>
<trkpt lat="40.071374" lon="-105.2297931">
  <ele>1583.03</ele>
  <time>2026-08-28T17:55:33Z</time>
  <course>74.28</course>
  <speed>0.022360679774997897</speed>
  <fix>3d</fix>
</trkpt>
<trkpt lat="40.0713741" lon="-105.229793">
  <ele>1583.0</ele>
  <time>2026-08-28T17:55:33Z</time>
  <course>253.93</course>
  <speed>0.0</speed>
  <fix>3d</fix>
</trkpt>
<trkpt lat="40.071374" lon="-105.2297931">
  <ele>1583.03</ele>
  <time>2026-08-28T17:55:33Z</time>
  <course>74.28</course>
  <speed>0.022360679774997897</speed>
  <fix>3d</fix>
</trkpt>
<trkpt lat="40.0713741" lon="-105.229793">
  <ele>1583.0</ele>
  <time>2026-08-28T17:55:33Z</time>
  <course>253.93</course>
  <speed>0.0</speed>
  <fix>3d</fix>
</trkpt>
<trkpt lat="40.071374" lon="-105.2297931">
  <ele>1583.03</ele>
  <time>2026-08-28T17:55:33Z</time>
  <course>74.28</course>
  <speed>0.022360679774997897</speed>
  <fix>3d</fix>
</trkpt>
<trkpt lat="40.0713741" lon="-105.2297931">
  <ele>1583.0</ele>
  <time>2026-08-28T17:55:33Z</time>
  <course>253.98</course>
  <speed>0.0</speed>
  <fix>3d</fix>
</trkpt>
<trkpt lat="40.071374" lon="-105.2297931">
  <ele>1583.03</ele>
  <time>2026-08-28T17:55:33Z</time>
  <course>74.28</course>
  <speed>0.022360679774997897</speed>
  <fix>3d</fix>
</trkpt>
<trkpt lat="40.0713741" lon="-105.2297931">
  <ele>1583.0</ele>
  <time>2026-08-28T17:55:33Z</time>
  <course>253.98</course>
  <speed>0.0</speed>
  <fix>3d</fix>
</trkpt>
<trkpt lat="40.071374" lon="-105.2297931">
  <ele>1583.02</ele>
  <time>2026-08-28T17:55:33Z</time>
  <course>74.28</course>
  <speed>0.022360679774997897</speed>
  <fix>3d</fix>
</trkpt>
<trkpt lat="40.0713741" lon="-105.2297931">
  <ele>1583.0</ele>
  <time>2026-08-28T17:55:33Z</time>
  <course>254.04</course>
  <speed>0.0</speed>
  <fix>3d</fix>
</trkpt>
<trkpt lat="40.071374" lon="-105.2297931">
  <ele>1583.02</ele>
  <time>2026-08-28T17:55:33Z</time>
  <course>74.28</course>
  <speed>0.022360679774997897</speed>
  <fix>3d</fix>
</trkpt>
<trkpt lat="40.0713741" lon="-105.2297931">
  <ele>1583.0</ele>
  <time>2026-08-28T17:55:33Z</time>
  <course>254.04</course>
  <speed>0.0</speed>
  <fix>3d</fix>
</trkpt>
<trkpt lat="40.071374" lon="-105.2297931">
  <ele>1583.02</ele>
  <time>2026-08-28T17:55:33Z</time>
  <course>74.28</course>
  <speed>0.022360679774997897</speed>
  <fix>3d</fix>
</trkpt>
<trkpt lat="40.0713741" lon="-105.2297931">
  <ele>1583.0</ele>
  <time>2026-08-28T17:55:33Z</time>
  <course>254.1</course>
  <speed>0.0</speed>
  <fix>3d</fix>
</trkpt>
<trkpt lat="40.071374" lon="-105.2297931">
  <ele>1583.01</ele>
  <time>2026-08-28T17:55:33Z</time>
  <course>74.28</course>
  <speed>0.022360679774997897</speed>
  <fix>3d</fix>
</trkpt>
<trkpt lat="40.0713741" lon="-105.2297931">
  <ele>1583.0</ele>
  <time>2026-08-28T17:55:33Z</time>
  <course>254.1</course>
  <speed>0.0</speed>
  <fix>3d</fix>
</trkpt>
<trkpt lat="40.071374" lon="-105.2297932">
  <ele>1583.01</ele>
  <time>2026-08-28T17:55:33Z</time>
  <course>74.28</course>
  <speed>0.022360679774997897</speed>
  <fix>3d</fix>
</trkpt>
<trkpt lat="40.0713741" lon="-105.2297931">
  <ele>1583.0</ele>
  <time>2026-08-28T17:55:33Z</time>
  <course>254.17</course>
  <speed>0.0</speed>
  <fix>3d</fix>
</trkpt>
<trkpt lat="39.655741" lon="-104.1383097">
  <ele>1566.58</ele>
  <time>2026-08-28T17:55:33Z</time>
  <course>0.0</course>
  <speed>0.0</speed>
  <fix>3d</fix>
</trkpt>
<trkpt lat="40.0713749" lon="-105.229789">
  <ele>1583.0</ele>
  <time>2026-08-28T17:55:33Z</time>
  <course>0.0</course>
  <speed>0.0</speed>
  <fix>3d</fix>
</trkpt>
<trkpt lat="40.0713749" lon="-105.229789">
  <ele>1583.0</ele>
  <time>2026-08-28T17:55:33Z</time>
  <course>238.36</course>
  <speed>0.0</speed>
  <fix>3d</fix>
</trkpt>
<trkpt lat="40.0713749" lon="-105.229789">
  <ele>1583.0</ele>
  <time>2026-08-28T17:55:33Z</time>
  <course>0.0</course>
  <speed>0.0</speed>
  <fix>3d</fix>
</trkpt>
<trkpt lat="40.0713749" lon="-105.229789">
  <ele>1583.0</ele>
  <time>2026-08-28T17:55:33Z</time>
  <course>238.44</course>
  <speed>0.0</speed>
  <fix>3d</fix>
</trkpt>
<trkpt lat="40.0713749" lon="-105.229789">
  <ele>1583.0</ele>
  <time>2026-08-28T17:55:33Z</time>
  <course>0.0</course>
  <speed>0.0</speed>
  <fix>3d</fix>
</trkpt>
<trkpt lat="40.0713749" lon="-105.229789">
  <ele>1583.0</ele>
  <time>2026-08-28T17:55:33Z</time>
  <course>238.64</course>
  <speed>0.0</speed>
  <fix>3d</fix>
</trkpt>
<trkpt lat="40.0713749" lon="-105.229789">
  <ele>1583.0</ele>
  <time>2026-08-28T17:55:33Z</time>
  <course>0.0</course>
  <speed>0.0</speed>
  <fix>3d</fix>
</trkpt>
<trkpt lat="40.0713749" lon="-105.229789">
  <ele>1583.0</ele>
  <time>2026-08-28T17:55:33Z</time>
  <course>238.93</course>
  <speed>0.0</speed>
  <fix>3d</fix>
</trkpt>
<trkpt lat="40.0713749" lon="-105.229789">
  <ele>1583.0</ele>
  <time>2026-08-28T17:55:33Z</time>
  <course>0.0</course>
  <speed>0.0</speed>
  <fix>3d</fix>
</trkpt>
<trkpt lat="40.0713749" lon="-105.229789">
  <ele>1583.0</ele>
  <time>2026-08-28T17:55:33Z</time>
  <course>239.26</course>
  <speed>0.0</speed>
  <fix>3d</fix>
</trkpt>
<trkpt lat="40.0713749" lon="-105.229789">
  <ele>1583.0</ele>
  <time>2026-08-28T17:55:33Z</time>
  <course>0.0</course>
  <speed>0.0</speed>
  <fix>3d</fix>
</trkpt>
<trkpt lat="40.0713749" lon="-105.229789">
  <ele>1583.0</ele>
  <time>2026-08-28T17:55:33Z</time>
  <course>239.61</course>
  <speed>0.0</speed>
  <fix>3d</fix>
</trkpt>
<trkpt lat="40.0713749" lon="-105.229789">
  <ele>1583.0</ele>
  <time>2026-08-28T17:55:33Z</time>
  <course>0.0</course>
  <speed>0.0</speed>
  <fix>3d</fix>
</trkpt>
<trkpt lat="40.0713749" lon="-105.229789">
  <ele>1583.0</ele>
  <time>2026-08-28T17:55:33Z</time>
  <course>239.96</course>
  <speed>0.0</speed>
  <fix>3d</fix>
</trkpt>
<trkpt lat="40.0713749" lon="-105.229789">
  <ele>1583.0</ele>
  <time>2026-08-28T17:55:33Z</time>
  <course>0.0</course>
  <speed>0.0</speed>
  <fix>3d</fix>
</trkpt>
<trkpt lat="40.0713749" lon="-105.229789">
  <ele>1583.0</ele>
  <time>2026-08-28T17:55:33Z</time>
  <course>240.29</course>
  <speed>0.0</speed>
  <fix>3d</fix>
</trkpt>
<trkpt lat="40.0713749" lon="-105.229789">
  <ele>1583.0</ele>
  <time>2026-08-28T17:55:33Z</time>
  <course>0.0</course>
  <speed>0.0</speed>
  <fix>3d</fix>
</trkpt>
<trkpt lat="40.0713749" lon="-105.229789">
  <ele>1583.0</ele>
  <time>2026-08-28T17:55:33Z</time>
  <course>240.61</course>
  <speed>0.0</speed>
  <fix>3d</fix>
</trkpt>
<trkpt lat="40.0713749" lon="-105.229789">
  <ele>1583.0</ele>
  <time>2026-08-28T17:55:33Z</time>
  <course>0.0</course>
  <speed>0.0</speed>
  <fix>3d</fix>
</trkpt>
<trkpt lat="40.0713749" lon="-105.229789">
  <ele>1583.0</ele>
  <time>2026-08-28T17:55:33Z</time>
  <course>240.92</course>
  <speed>0.0</speed>
  <fix>3d</fix>
</trkpt>
<trkpt lat="40.0713749" lon="-105.229789">
  <ele>1583.0</ele>
  <time>2026-08-28T17:55:33Z</time>
  <course>0.0</course>
  <speed>0.0</speed>
  <fix>3d</fix>
</trkpt>
<trkpt lat="40.0713749" lon="-105.229789">
  <ele>1583.0</ele>
  <time>2026-08-28T17:55:33Z</time>
  <course>241.21</course>
  <speed>0.0</speed>
  <fix>3d</fix>
</trkpt>
<trkpt lat="40.0713749" lon="-105.229789">
  <ele>1583.0</ele>
  <time>2026-08-28T17:55:33Z</time>
  <course>0.0</course>
  <speed>0.0</speed>
  <fix>3d</fix>
</trkpt>
<trkpt lat="40.0713749" lon="-105.229789">
  <ele>1583.0</ele>
  <time>2026-08-28T17:55:33Z</time>
  <course>241.49</course>
  <speed>0.0</speed>
  <fix>3d</fix>
</trkpt>
<trkpt lat="40.0713749" lon="-105.229789">
  <ele>1583.0</ele>
  <time>2026-08-28T17:55:33Z</time>
  <course>0.0</course>
  <speed>0.0</speed>
  <fix>3d</fix>
</trkpt>
<trkpt lat="40.0713749" lon="-105.229789">
  <ele>1583.0</ele>
  <time>2026-08-28T17:55:33Z</time>
  <course>241.77</course>
  <speed>0.0</speed>
  <fix>3d</fix>
</trkpt>
<trkpt lat="40.0713749" lon="-105.229789">
  <ele>1583.0</ele>
  <time>2026-08-28T17:55:33Z</time>
  <course>0.0</course>
  <speed>0.0</speed>
  <fix>3d</fix>
</trkpt>
<trkpt lat="40.0713749" lon="-105.229789">
  <ele>1583.0</ele>
  <time>2026-08-28T17:55:33Z</time>
  <course>242.03</course>
  <speed>0.0</speed>
  <fix>3d</fix>
</trkpt>
<trkpt lat="40.0713749" lon="-105.229789">
  <ele>1583.0</ele>
  <time>2026-08-28T17:55:33Z</time>
  <course>0.0</course>
  <speed>0.0</speed>
  <fix>3d</fix>
</trkpt>
<trkpt lat="40.0713749" lon="-105.229789">
  <ele>1583.0</ele>
  <time>2026-08-28T17:55:33Z</time>
  <course>242.29</course>
  <speed>0.0</speed>
  <fix>3d</fix>
</trkpt>
<trkpt lat="40.0713749" lon="-105.229789">
  <ele>1583.0</ele>
  <time>2026-08-28T17:55:33Z</time>
  <course>0.0</course>
  <speed>0.0</speed>
  <fix>3d</fix>
</trkpt>
<trkpt lat="40.0713749" lon="-105.229789">
  <ele>1583.0</ele>
  <time>2026-08-28T17:55:33Z</time>
  <course>242.54</course>
  <speed>0.0</speed>
  <fix>3d</fix>
</trkpt>
<trkpt lat="40.0713749" lon="-105.229789">
  <ele>1583.0</ele>
  <time>2026-08-28T17:55:33Z</time>
  <course>0.0</course>
  <speed>0.0</speed>
  <fix>3d</fix>
</trkpt>
<trkpt lat="40.0713749" lon="-105.229789">
  <ele>1583.0</ele>
  <time>2026-08-28T17:55:33Z</time>
  <course>242.79</course>
  <speed>0.0</speed>
  <fix>3d</fix>
</trkpt>
<trkpt lat="40.0713749" lon="-105.229789">
  <ele>1583.0</ele>
  <time>2026-08-28T17:55:33Z</time>
  <course>0.0</course>
  <speed>0.0</speed>
  <fix>3d</fix>
</trkpt>
<trkpt lat="40.0713749" lon="-105.229789">
  <ele>1583.0</ele>
  <time>2026-08-28T17:55:33Z</time>
  <course>243.02</course>
  <speed>0.0</speed>
  <fix>3d</fix>
</trkpt>
<trkpt lat="40.0713749" lon="-105.229789">
  <ele>1583.0</ele>
  <time>2026-08-28T17:55:33Z</time>
  <course>0.0</course>
  <speed>0.0</speed>
  <fix>3d</fix>
</trkpt>
<trkpt lat="40.0713749" lon="-105.229789">
  <ele>1583.0</ele>
  <time>2026-08-28T17:55:33Z</time>
  <course>243.25</course>
  <speed>0.0</speed>
  <fix>3d</fix>
</trkpt>
<trkpt lat="40.0713749" lon="-105.229789">
  <ele>1583.0</ele>
  <time>2026-08-28T17:55:33Z</time>
  <course>0.0</course>
  <speed>0.0</speed>
  <fix>3d</fix>
</trkpt>
<trkpt lat="40.0713749" lon="-105.229789">
  <ele>1583.0</ele>
  <time>2026-08-28T17:55:33Z</time>
  <course>243.47</course>
  <speed>0.0</speed>
  <fix>3d</fix>
</trkpt>
<trkpt lat="40.0713749" lon="-105.229789">
  <ele>1583.0</ele>
  <time>2026-08-28T17:55:33Z</time>
  <course>0.0</course>
  <speed>0.0</speed>
  <fix>3d</fix>
</trkpt>
<trkpt lat="40.0713749" lon="-105.229789">
  <ele>1583.0</ele>
  <time>2026-08-28T17:55:33Z</time>
  <course>243.68</course>
  <speed>0.0</speed>
  <fix>3d</fix>
</trkpt>
<trkpt lat="40.0713749" lon="-105.229789">
  <ele>1583.0</ele>
  <time>2026-08-28T17:55:33Z</time>
  <course>0.0</course>
  <speed>0.0</speed>
  <fix>3d</fix>
</trkpt>
<trkpt lat="40.0713749" lon="-105.229789">
  <ele>1583.0</ele>
  <time>2026-08-28T17:55:33Z</time>
  <course>243.89</course>
  <speed>0.0</speed>
  <fix>3d</fix>
</trkpt>
<trkpt lat="40.0713749" lon="-105.229789">
  <ele>1583.0</ele>
  <time>2026-08-28T17:55:33Z</time>
  <course>0.0</course>
  <speed>0.0</speed>
  <fix>3d</fix>
</trkpt>
<trkpt lat="40.0713749" lon="-105.229789">
  <ele>1583.0</ele>
  <time>2026-08-28T17:55:33Z</time>
  <course>244.09</course>
  <speed>0.0</speed>
  <fix>3d</fix>
</trkpt>
<trkpt lat="40.0713749" lon="-105.229789">
  <ele>1583.0</ele>
  <time>2026-08-28T17:55:33Z</time>
  <course>0.0</course>
  <speed>0.0</speed>
  <fix>3d</fix>
</trkpt>
<trkpt lat="40.0713749" lon="-105.229789">
  <ele>1583.0</ele>
  <time>2026-08-28T17:55:33Z</time>
  <course>244.28</course>
  <speed>0.0</speed>
  <fix>3d</fix>
</trkpt>
<trkpt lat="40.0713749" lon="-105.229789">
  <ele>1583.0</ele>
  <time>2026-08-28T17:55:33Z</time>
  <course>0.0</course>
  <speed>0.0</speed>
  <fix>3d</fix>
</trkpt>
<trkpt lat="40.0713749" lon="-105.229789">
  <ele>1583.0</ele>
  <time>2026-08-28T17:55:33Z</time>
  <course>244.46</course>
  <speed>0.0</speed>
  <fix>3d</fix>
</trkpt>
<trkpt lat="40.0713749" lon="-105.229789">
  <ele>1583.0</ele>
  <time>2026-08-28T17:55:33Z</time>
  <course>0.0</course>
  <speed>0.0</speed>
  <fix>3d</fix>
</trkpt>
<trkpt lat="40.0713749" lon="-105.229789">
  <ele>1583.0</ele>
  <time>2026-08-28T17:55:33Z</time>
  <course>244.64</course>
  <speed>0.0</speed>
  <fix>3d</fix>
</trkpt>
<trkpt lat="40.0713749" lon="-105.229789">
  <ele>1583.0</ele>
  <time>2026-08-28T17:55:33Z</time>
  <course>0.0</course>
  <speed>0.0</speed>
  <fix>3d</fix>
</trkpt>
<trkpt lat="40.0713749" lon="-105.229789">
  <ele>1583.0</ele>
  <time>2026-08-28T17:55:33Z</time>
  <course>244.81</course>
  <speed>0.0</speed>
  <fix>3d</fix>
</trkpt>
<trkpt lat="40.0713749" lon="-105.229789">
  <ele>1583.0</ele>
  <time>2026-08-28T17:55:33Z</time>
  <course>0.0</course>
  <speed>0.0</speed>
  <fix>3d</fix>
</trkpt>
<trkpt lat="40.0713749" lon="-105.229789">
  <ele>1583.0</ele>
  <time>2026-08-28T17:55:33Z</time>
  <course>244.97</course>
  <speed>0.0</speed>
  <fix>3d</fix>
</trkpt>
<trkpt lat="40.0713749" lon="-105.229789">
  <ele>1583.0</ele>
  <time>2026-08-28T17:55:33Z</time>
  <course>0.0</course>
  <speed>0.0</speed>
  <fix>3d</fix>
</trkpt>
<trkpt lat="40.0713749" lon="-105.229789">
  <ele>1583.0</ele>
  <time>2026-08-28T17:55:33Z</time>
  <course>245.13</course>
  <speed>0.0</speed>
  <fix>3d</fix>
</trkpt>
<trkpt lat="40.0713749" lon="-105.229789">
  <ele>1583.0</ele>
  <time>2026-08-28T17:55:33Z</time>
  <course>0.0</course>
  <speed>0.0</speed>
  <fix>3d</fix>
</trkpt>
<trkpt lat="40.0713749" lon="-105.229789">
  <ele>1583.0</ele>
  <time>2026-08-28T17:55:33Z</time>
  <course>245.29</course>
  <speed>0.0</speed>
  <fix>3d</fix>
</trkpt>
<trkpt lat="40.0713749" lon="-105.229789">
  <ele>1583.0</ele>
  <time>2026-08-28T17:55:33Z</time>
  <course>0.0</course>
  <speed>0.0</speed>
  <fix>3d</fix>
</trkpt>
<trkpt lat="40.0713749" lon="-105.229789">
  <ele>1583.0</ele>
  <time>2026-08-28T17:55:33Z</time>
  <course>245.43</course>
  <speed>0.0</speed>
  <fix>3d</fix>
</trkpt>
<trkpt lat="40.0713749" lon="-105.229789">
  <ele>1583.0</ele>
  <time>2026-08-28T17:55:33Z</time>
  <course>0.0</course>
  <speed>0.0</speed>
  <fix>3d</fix>
</trkpt>
<trkpt lat="40.0713749" lon="-105.229789">
  <ele>1583.0</ele>
  <time>2026-08-28T17:55:33Z</time>
  <course>245.57</course>
  <speed>0.0</speed>
  <fix>3d</fix>
</trkpt>
<trkpt lat="40.0713749" lon="-105.229789">
  <ele>1583.0</ele>
  <time>2026-08-28T17:55:33Z</time>
  <course>0.0</course>
  <speed>0.0</speed>
  <fix>3d</fix>
</trkpt>
<trkpt lat="40.0713749" lon="-105.229789">
  <ele>1583.0</ele>
  <time>2026-08-28T17:55:33Z</time>
  <course>245.71</course>
  <speed>0.0</speed>
  <fix>3d</fix>
</trkpt>
<trkpt lat="40.0713749" lon="-105.229789">
  <ele>1583.0</ele>
  <time>2026-08-28T17:55:33Z</time>
  <course>0.0</course>
  <speed>0.0</speed>
  <fix>3d</fix>
</trkpt>
<trkpt lat="40.0713749" lon="-105.229789">
  <ele>1583.0</ele>
  <time>2026-08-28T17:55:33Z</time>
  <course>245.84</course>
  <speed>0.0</speed>
  <fix>3d</fix>
</trkpt>
<trkpt lat="40.0713749" lon="-105.229789">
  <ele>1583.0</ele>
  <time>2026-08-28T17:55:33Z</time>
  <course>0.0</course>
  <speed>0.0</speed>
  <fix>3d</fix>
</trkpt>
<trkpt lat="40.0713749" lon="-105.229789">
  <ele>1583.0</ele>
  <time>2026-08-28T17:55:33Z</time>
  <course>245.96</course>
  <speed>0.0</speed>
  <fix>3d</fix>
</trkpt>
<trkpt lat="40.0713749" lon="-105.229789">
  <ele>1583.0</ele>
  <time>2026-08-28T17:55:33Z</time>
  <course>0.0</course>
  <speed>0.0</speed>
  <fix>3d</fix>
</trkpt>
<trkpt lat="40.0713749" lon="-105.229789">
  <ele>1583.0</ele>
  <time>2026-08-28T17:55:33Z</time>
  <course>246.08</course>
  <speed>0.0</speed>
  <fix>3d</fix>
</trkpt>
<trkpt lat="40.0713749" lon="-105.229789">
  <ele>1583.0</ele>
  <time>2026-08-28T17:55:33Z</time>
  <course>0.0</course>
  <speed>0.0</speed>
  <fix>3d</fix>
</trkpt>
<trkpt lat="40.0713749" lon="-105.229789">
  <ele>1583.0</ele>
  <time>2026-08-28T17:55:33Z</time>
  <course>246.19</course>
  <speed>0.0</speed>
  <fix>3d</fix>
</trkpt>
<trkpt lat="40.0713749" lon="-105.229789">
  <ele>1583.0</ele>
  <time>2026-08-28T17:55:33Z</time>
  <course>0.0</course>
  <speed>0.0</speed>
  <fix>3d</fix>
</trkpt>
<trkpt lat="40.0713749" lon="-105.229789">
  <ele>1583.0</ele>
  <time>2026-08-28T17:55:33Z</time>
  <course>246.3</course>
  <speed>0.0</speed>
  <fix>3d</fix>
</trkpt>
<trkpt lat="40.0713749" lon="-105.229789">
  <ele>1583.0</ele>
  <time>2026-08-28T17:55:33Z</time>
  <course>0.0</course>
  <speed>0.0</speed>
  <fix>3d</fix>
</trkpt>
<trkpt lat="40.0713749" lon="-105.229789">
  <ele>1583.0</ele>
  <time>2026-08-28T17:55:33Z</time>
  <course>246.41</course>
  <speed>0.0</speed>
  <fix>3d</fix>
</trkpt>
<trkpt lat="40.0713749" lon="-105.229789">
  <ele>1583.0</ele>
  <time>2026-08-28T17:55:33Z</time>
  <course>0.0</course>
  <speed>0.0</speed>
  <fix>3d</fix>
</trkpt>
<trkpt lat="40.0713749" lon="-105.229789">
  <ele>1583.0</ele>
  <time>2026-08-28T17:55:33Z</time>
  <course>246.51</course>
  <speed>0.0</speed>
  <fix>3d</fix>
</trkpt>
<trkpt lat="40.0713749" lon="-105.229789">
  <ele>1583.0</ele>
  <time>2026-08-28T17:55:33Z</time>
  <course>0.0</course>
  <speed>0.0</speed>
  <fix>3d</fix>
</trkpt>
<trkpt lat="40.0713749" lon="-105.229789">
  <ele>1583.0</ele>
  <time>2026-08-28T17:55:33Z</time>
  <course>246.6</course>
  <speed>0.0</speed>
  <fix>3d</fix>
</trkpt>
<trkpt lat="40.0713749" lon="-105.229789">
  <ele>1583.0</ele>
  <time>2026-08-28T17:55:33Z</time>
  <course>0.0</course>
  <speed>0.0</speed>
  <fix>3d</fix>
</trkpt>
<trkpt lat="40.0713749" lon="-105.229789">
  <ele>1583.0</ele>
  <time>2026-08-28T17:55:33Z</time>
  <course>246.7</course>
  <speed>0.0</speed>
  <fix>3d</fix>
</trkpt>
<trkpt lat="40.0713749" lon="-105.229789">
  <ele>1583.0</ele>
  <time>2026-08-28T17:55:33Z</time>
  <course>0.0</course>
  <speed>0.0</speed>
  <fix>3d</fix>
</trkpt>
<trkpt lat="40.0713749" lon="-105.229789">
  <ele>1583.0</ele>
  <time>2026-08-28T17:55:33Z</time>
  <course>246.78</course>
  <speed>0.0</speed>
  <fix>3d</fix>
</trkpt>
<trkpt lat="40.0713749" lon="-105.229789">
  <ele>1583.0</ele>
  <time>2026-08-28T17:55:33Z</time>
  <course>0.0</course>
  <speed>0.0</speed>
  <fix>3d</fix>
</trkpt>
<trkpt lat="40.0713749" lon="-105.229789">
  <ele>1583.0</ele>
  <time>2026-08-28T17:55:33Z</time>
  <course>246.87</course>
  <speed>0.0</speed>
  <fix>3d</fix>
</trkpt>
<trkpt lat="40.0713749" lon="-105.229789">
  <ele>1583.0</ele>
  <time>2026-08-28T17:55:33Z</time>
  <course>0.0</course>
  <speed>0.0</speed>
  <fix>3d</fix>
</trkpt>
<trkpt lat="40.0713749" lon="-105.229789">
  <ele>1583.0</ele>
  <time>2026-08-28T17:55:33Z</time>
  <course>246.95</course>
  <speed>0.0</speed>
  <fix>3d</fix>
</trkpt>
<trkpt lat="40.0713749" lon="-105.229789">
  <ele>1583.0</ele>
  <time>2026-08-28T17:55:33Z</time>
  <course>0.0</course>
  <speed>0.0</speed>
  <fix>3d</fix>
</trkpt>
<trkpt lat="40.0713749" lon="-105.229789">
  <ele>1583.0</ele>
  <time>2026-08-28T17:55:33Z</time>
  <course>247.02</course>
  <speed>0.0</speed>
  <fix>3d</fix>
</trkpt>
<trkpt lat="40.0713749" lon="-105.229789">
  <ele>1583.0</ele>
  <time>2026-08-28T17:55:33Z</time>
  <course>0.0</course>
  <speed>0.0</speed>
  <fix>3d</fix>
</trkpt>
<trkpt lat="40.0713749" lon="-105.229789">
  <ele>1583.0</ele>
  <time>2026-08-28T17:55:33Z</time>
  <course>247.1</course>
  <speed>0.0</speed>
  <fix>3d</fix>
</trkpt>
<trkpt lat="40.0713749" lon="-105.229789">
  <ele>1583.0</ele>
  <time>2026-08-28T17:55:33Z</time>
  <course>0.0</course>
  <speed>0.0</speed>
  <fix>3d</fix>
</trkpt>
<trkpt lat="40.0713749" lon="-105.229789">
  <ele>1583.0</ele>
  <time>2026-08-28T17:55:33Z</time>
  <course>247.17</course>
  <speed>0.0</speed>
  <fix>3d</fix>
</trkpt>
<trkpt lat="40.0713749" lon="-105.229789">
  <ele>1583.0</ele>
  <time>2026-08-28T17:55:33Z</time>
  <course>0.0</course>
  <speed>0.0</speed>
  <fix>3d</fix>
</trkpt>
<trkpt lat="40.0713749" lon="-105.229789">
  <ele>1583.0</ele>
  <time>2026-08-28T17:55:33Z</time>
  <course>247.24</course>
  <speed>0.0</speed>
  <fix>3d</fix>
</trkpt>
<trkpt lat="40.0713749" lon="-105.229789">
  <ele>1583.0</ele>
  <time>2026-08-28T17:55:33Z</time>
  <course>0.0</course>
  <speed>0.0</speed>
  <fix>3d</fix>
</trkpt>
<trkpt lat="40.0713749" lon="-105.229789">
  <ele>1583.0</ele>
  <time>2026-08-28T17:55:33Z</time>
  <course>247.3</course>
  <speed>0.0</speed>
  <fix>3d</fix>
</trkpt>
<trkpt lat="40.0713749" lon="-105.229789">
  <ele>1583.0</ele>
  <time>2026-08-28T17:55:33Z</time>
  <course>0.0</course>
  <speed>0.0</speed>
  <fix>3d</fix>
</trkpt>
<trkpt lat="40.0713749" lon="-105.229789">
  <ele>1583.0</ele>
  <time>2026-08-28T17:55:33Z</time>
  <course>247.36</course>
  <speed>0.0</speed>
  <fix>3d</fix>
</trkpt>
<trkpt lat="40.0713749" lon="-105.229789">
  <ele>1583.0</ele>
  <time>2026-08-28T17:55:33Z</time>
  <course>0.0</course>
  <speed>0.0</speed>
  <fix>3d</fix>
</trkpt>
<trkpt lat="40.0713749" lon="-105.229789">
  <ele>1583.0</ele>
  <time>2026-08-28T17:55:33Z</time>
  <course>247.42</course>
  <speed>0.0</speed>
  <fix>3d</fix>
</trkpt>
<trkpt lat="40.0713749" lon="-105.229789">
  <ele>1583.0</ele>
  <time>2026-08-28T17:55:33Z</time>
  <course>0.0</course>
  <speed>0.0</speed>
  <fix>3d</fix>
</trkpt>
<trkpt lat="40.0713749" lon="-105.229789">
  <ele>1583.0</ele>
  <time>2026-08-28T17:55:33Z</time>
  <course>247.47</course>
  <speed>0.0</speed>
  <fix>3d</fix>
</trkpt>
<trkpt lat="40.0713749" lon="-105.229789">
  <ele>1583.0</ele>
  <time>2026-08-28T17:55:33Z</time>
  <course>0.0</course>
  <speed>0.0</speed>
  <fix>3d</fix>
</trkpt>
<trkpt lat="40.0713749" lon="-105.229789">
  <ele>1583.0</ele>
  <time>2026-08-28T17:55:33Z</time>
  <course>247.53</course>
  <speed>0.0</speed>
  <fix>3d</fix>
</trkpt>
<trkpt lat="40.0713749" lon="-105.229789">
  <ele>1583.0</ele>
  <time>2026-08-28T17:55:33Z</time>
  <course>0.0</course>
  <speed>0.0</speed>
  <fix>3d</fix>
</trkpt>
<trkpt lat="40.0713749" lon="-105.229789">
  <ele>1583.0</ele>
  <time>2026-08-28T17:55:33Z</time>
  <course>247.58</course>
  <speed>0.0</speed>
  <fix>3d</fix>
</trkpt>
<trkpt lat="40.0713749" lon="-105.229789">
  <ele>1583.0</ele>
  <time>2026-08-28T17:55:33Z</time>
  <course>0.0</course>
  <speed>0.0</speed>
  <fix>3d</fix>
</trkpt>
<trkpt lat="40.0713749" lon="-105.229789">
  <ele>1583.0</ele>
  <time>2026-08-28T17:55:33Z</time>
  <course>247.63</course>
  <speed>0.0</speed>
  <fix>3d</fix>
</trkpt>
<trkpt lat="40.0713749" lon="-105.229789">
  <ele>1583.0</ele>
  <time>2026-08-28T17:55:33Z</time>
  <course>0.0</course>
  <speed>0.0</speed>
  <fix>3d</fix>
</trkpt>
<trkpt lat="40.0713749" lon="-105.229789">
  <ele>1583.0</ele>
  <time>2026-08-28T17:55:33Z</time>
  <course>247.67</course>
  <speed>0.0</speed>
  <fix>3d</fix>
</trkpt>
<trkpt lat="40.0713749" lon="-105.229789">
  <ele>1583.0</ele>
  <time>2026-08-28T17:55:33Z</time>
  <course>0.0</course>
  <speed>0.0</speed>
  <fix>3d</fix>
</trkpt>
<trkpt lat="40.0713749" lon="-105.229789">
  <ele>1583.0</ele>
  <time>2026-08-28T17:55:33Z</time>
  <course>247.72</course>
  <speed>0.0</speed>
  <fix>3d</fix>
</trkpt>
<trkpt lat="40.0713749" lon="-105.229789">
  <ele>1583.0</ele>
  <time>2026-08-28T17:55:33Z</time>
  <course>0.0</course>
  <speed>0.0</speed>
  <fix>3d</fix>
</trkpt>
<trkpt lat="40.0713749" lon="-105.229789">
  <ele>1583.0</ele>
  <time>2026-08-28T17:55:33Z</time>
  <course>247.76</course>
  <speed>0.0</speed>
  <fix>3d</fix>
</trkpt>
<trkpt lat="40.0713749" lon="-105.229789">
  <ele>1583.0</ele>
  <time>2026-08-28T17:55:33Z</time>
  <course>0.0</course>
  <speed>0.0</speed>
  <fix>3d</fix>
</trkpt>
<trkpt lat="40.0713749" lon="-105.229789">
  <ele>1583.0</ele>
  <time>2026-08-28T17:55:33Z</time>
  <course>247.8</course>
  <speed>0.0</speed>
  <fix>3d</fix>
</trkpt>
<trkpt lat="40.0713749" lon="-105.229789">
  <ele>1583.0</ele>
  <time>2026-08-28T17:55:33Z</time>
  <course>0.0</course>
  <speed>0.0</speed>
  <fix>3d</fix>
</trkpt>
<trkpt lat="40.0713749" lon="-105.229789">
  <ele>1583.0</ele>
  <time>2026-08-28T17:55:33Z</time>
  <course>247.83</course>
  <speed>0.0</speed>
  <fix>3d</fix>
</trkpt>
<trkpt lat="40.0713749" lon="-105.229789">
  <ele>1583.0</ele>
  <time>2026-08-28T17:55:33Z</time>
  <course>0.0</course>
  <speed>0.0</speed>
  <fix>3d</fix>
</trkpt>
<trkpt lat="40.0713749" lon="-105.229789">
  <ele>1583.0</ele>
  <time>2026-08-28T17:55:33Z</time>
  <course>247.87</course>
  <speed>0.0</speed>
  <fix>3d</fix>
</trkpt>
<trkpt lat="40.0713749" lon="-105.229789">
  <ele>1583.0</ele>
  <time>2026-08-28T17:55:33Z</time>
  <course>0.0</course>
  <speed>0.0</speed>
  <fix>3d</fix>
</trkpt>
<trkpt lat="40.0713749" lon="-105.229789">
  <ele>1583.0</ele>
  <time>2026-08-28T17:55:33Z</time>
  <course>247.9</course>
  <speed>0.0</speed>
  <fix>3d</fix>
</trkpt>
<trkpt lat="40.0713749" lon="-105.229789">
  <ele>1583.0</ele>
  <time>2026-08-28T17:55:33Z</time>
  <course>0.0</course>
  <speed>0.0</speed>
  <fix>3d</fix>
</trkpt>
<trkpt lat="40.0713749" lon="-105.229789">
  <ele>1583.0</ele>
  <time>2026-08-28T17:55:33Z</time>
  <course>247.94</course>
  <speed>0.0</speed>
  <fix>3d</fix>
</trkpt>
<trkpt lat="40.0713749" lon="-105.229789">
  <ele>1583.0</ele>
  <time>2026-08-28T17:55:33Z</time>
  <course>0.0</course>
  <speed>0.0</speed>
  <fix>3d</fix>
</trkpt>
<trkpt lat="40.0713749" lon="-105.229789">
  <ele>1583.0</ele>
  <time>2026-08-28T17:55:33Z</time>
  <course>247.97</course>
  <speed>0.0</speed>
  <fix>3d</fix>
</trkpt>
<trkpt lat="40.0713749" lon="-105.229789">
  <ele>1583.0</ele>
  <time>2026-08-28T17:55:33Z</time>
  <course>0.0</course>
  <speed>0.0</speed>
  <fix>3d</fix>
</trkpt>
<trkpt lat="39.655741" lon="-104.1383097">
  <ele>1566.58</ele>
  <time>2026-08-28T17:55:34Z</time>
  <course>0.0</course>
  <speed>0.0</speed>
  <fix>3d</fix>
</trkpt>
<trkpt lat="40.0713749" lon="-105.229789">
  <ele>1583.0</ele>
  <time>2026-08-28T17:55:34Z</time>
  <course>238.36</course>
  <speed>0.0</speed>
  <fix>3d</fix>
</trkpt>
<trkpt lat="40.0713749" lon="-105.229789">
  <ele>1583.0</ele>
  <time>2026-08-28T17:55:34Z</time>
  <course>0.0</course>
  <speed>0.0</speed>
  <fix>3d</fix>
</trkpt>
<trkpt lat="40.0713749" lon="-105.229789">
  <ele>1583.0</ele>
  <time>2026-08-28T17:55:34Z</time>
  <course>238.36</course>
  <speed>0.0</speed>
  <fix>3d</fix>
</trkpt>
<trkpt lat="40.0713749" lon="-105.229789">
  <ele>1583.0</ele>
  <time>2026-08-28T17:55:34Z</time>
  <course>0.0</course>
  <speed>0.0</speed>
  <fix>3d</fix>
</trkpt>
<trkpt lat="40.0713749" lon="-105.229789">
  <ele>1583.0</ele>
  <time>2026-08-28T17:55:34Z</time>
  <course>238.47</course>
  <speed>0.0</speed>
  <fix>3d</fix>
</trkpt>
<trkpt lat="40.0713749" lon="-105.229789">
  <ele>1583.0</ele>
  <time>2026-08-28T17:55:34Z</time>
  <course>0.0</course>
  <speed>0.0</speed>
  <fix>3d</fix>
</trkpt>
<trkpt lat="40.0713749" lon="-105.229789">
  <ele>1583.0</ele>
  <time>2026-08-28T17:55:34Z</time>
  <course>238.69</course>
  <speed>0.0</speed>
  <fix>3d</fix>
</trkpt>
<trkpt lat="40.0713749" lon="-105.229789">
  <ele>1583.0</ele>
  <time>2026-08-28T17:55:34Z</time>
  <course>0.0</course>
  <speed>0.0</speed>
  <fix>3d</fix>
</trkpt>
<trkpt lat="40.0713749" lon="-105.229789">
  <ele>1583.0</ele>
  <time>2026-08-28T17:55:34Z</time>
  <course>238.98</course>
  <speed>0.0</speed>
  <fix>3d</fix>
</trkpt>
<trkpt lat="40.0713749" lon="-105.229789">
  <ele>1583.0</ele>
  <time>2026-08-28T17:55:34Z</time>
  <course>0.0</course>
  <speed>0.0</speed>
  <fix>3d</fix>
</trkpt>
<trkpt lat="40.0713749" lon="-105.229789">
  <ele>1583.0</ele>
  <time>2026-08-28T17:55:34Z</time>
  <course>239.32</course>
  <speed>0.0</speed>
  <fix>3d</fix>
</trkpt>
<trkpt lat="40.0713749" lon="-105.229789">
  <ele>1583.0</ele>
  <time>2026-08-28T17:55:34Z</time>
  <course>0.0</course>
  <speed>0.0</speed>
  <fix>3d</fix>
</trkpt>
<trkpt lat="40.0713749" lon="-105.229789">
  <ele>1583.0</ele>
  <time>2026-08-28T17:55:34Z</time>
  <course>239.67</course>
  <speed>0.0</speed>
  <fix>3d</fix>
</trkpt>
<trkpt lat="40.0713749" lon="-105.229789">
  <ele>1583.0</ele>
  <time>2026-08-28T17:55:34Z</time>
  <course>0.0</course>
  <speed>0.0</speed>
  <fix>3d</fix>
</trkpt>
<trkpt lat="40.0713749" lon="-105.229789">
  <ele>1583.0</ele>
  <time>2026-08-28T17:55:34Z</time>
  <course>240.02</course>
  <speed>0.0</speed>
  <fix>3d</fix>
</trkpt>
<trkpt lat="40.0713749" lon="-105.229789">
  <ele>1583.0</ele>
  <time>2026-08-28T17:55:34Z</time>
  <course>0.0</course>
  <speed>0.0</speed>
  <fix>3d</fix>
</trkpt>
<trkpt lat="40.0713749" lon="-105.229789">
  <ele>1583.0</ele>
  <time>2026-08-28T17:55:34Z</time>
  <course>240.35</course>
  <speed>0.0</speed>
  <fix>3d</fix>
</trkpt>
<trkpt lat="40.0713749" lon="-105.229789">
  <ele>1583.0</ele>
  <time>2026-08-28T17:55:34Z</time>
  <course>0.0</course>
  <speed>0.0</speed>
  <fix>3d</fix>
</trkpt>
<trkpt lat="40.0713749" lon="-105.229789">
  <ele>1583.0</ele>
  <time>2026-08-28T17:55:34Z</time>
  <course>240.61</course>
  <speed>0.0</speed>
  <fix>3d</fix>
</trkpt>
<trkpt lat="40.0713749" lon="-105.229789">
  <ele>1583.0</ele>
  <time>2026-08-28T17:55:34Z</time>
  <course>0.0</course>
  <speed>0.0</speed>
  <fix>3d</fix>
</trkpt>
<trkpt lat="40.0713749" lon="-105.229789">
  <ele>1583.0</ele>
  <time>2026-08-28T17:55:34Z</time>
  <course>240.92</course>
  <speed>0.0</speed>
  <fix>3d</fix>
</trkpt>
<trkpt lat="40.0713749" lon="-105.229789">
  <ele>1583.0</ele>
  <time>2026-08-28T17:55:34Z</time>
  <course>0.0</course>
  <speed>0.0</speed>
  <fix>3d</fix>
</trkpt>
<trkpt lat="40.0713749" lon="-105.229789">
  <ele>1583.0</ele>
  <time>2026-08-28T17:55:34Z</time>
  <course>241.21</course>
  <speed>0.0</speed>
  <fix>3d</fix>
</trkpt>
<trkpt lat="40.0713749" lon="-105.229789">
  <ele>1583.0</ele>
  <time>2026-08-28T17:55:34Z</time>
  <course>0.0</course>
  <speed>0.0</speed>
  <fix>3d</fix>
</trkpt>
<trkpt lat="40.0713749" lon="-105.229789">
  <ele>1583.0</ele>
  <time>2026-08-28T17:55:34Z</time>
  <course>241.49</course>
  <speed>0.0</speed>
  <fix>3d</fix>
</trkpt>
<trkpt lat="40.0713749" lon="-105.229789">
  <ele>1583.0</ele>
  <time>2026-08-28T17:55:34Z</time>
  <course>0.0</course>
  <speed>0.0</speed>
  <fix>3d</fix>
</trkpt>
<trkpt lat="40.0713749" lon="-105.229789">
  <ele>1583.0</ele>
  <time>2026-08-28T17:55:34Z</time>
  <course>241.77</course>
  <speed>0.0</speed>
  <fix>3d</fix>
</trkpt>
<trkpt lat="40.0713749" lon="-105.229789">
  <ele>1583.0</ele>
  <time>2026-08-28T17:55:34Z</time>
  <course>0.0</course>
  <speed>0.0</speed>
  <fix>3d</fix>
</trkpt>
<trkpt lat="40.0713749" lon="-105.229789">
  <ele>1583.0</ele>
  <time>2026-08-28T17:55:34Z</time>
  <course>242.03</course>
  <speed>0.0</speed>
  <fix>3d</fix>
</trkpt>
<trkpt lat="40.0713749" lon="-105.229789">
  <ele>1583.0</ele>
  <time>2026-08-28T17:55:34Z</time>
  <course>0.0</course>
  <speed>0.0</speed>
  <fix>3d</fix>
</trkpt>
<trkpt lat="40.0713749" lon="-105.229789">
  <ele>1583.0</ele>
  <time>2026-08-28T17:55:34Z</time>
  <course>242.29</course>
  <speed>0.0</speed>
  <fix>3d</fix>
</trkpt>
<trkpt lat="40.0713749" lon="-105.229789">
  <ele>1583.0</ele>
  <time>2026-08-28T17:55:34Z</time>
  <course>0.0</course>
  <speed>0.0</speed>
  <fix>3d</fix>
</trkpt>
<trkpt lat="40.0713749" lon="-105.229789">
  <ele>1583.0</ele>
  <time>2026-08-28T17:55:34Z</time>
  <course>242.54</course>
  <speed>0.0</speed>
  <fix>3d</fix>
</trkpt>
<trkpt lat="40.0713749" lon="-105.229789">
  <ele>1583.0</ele>
  <time>2026-08-28T17:55:34Z</time>
  <course>0.0</course>
  <speed>0.0</speed>
  <fix>3d</fix>
</trkpt>
<trkpt lat="40.0713749" lon="-105.229789">
  <ele>1583.0</ele>
  <time>2026-08-28T17:55:34Z</time>
  <course>242.79</course>
  <speed>0.0</speed>
  <fix>3d</fix>
</trkpt>
<trkpt lat="40.0713749" lon="-105.229789">
  <ele>1583.0</ele>
  <time>2026-08-28T17:55:34Z</time>
  <course>0.0</course>
  <speed>0.0</speed>
  <fix>3d</fix>
</trkpt>
<trkpt lat="40.0713749" lon="-105.229789">
  <ele>1583.0</ele>
  <time>2026-08-28T17:55:34Z</time>
  <course>243.02</course>
  <speed>0.0</speed>
  <fix>3d</fix>
</trkpt>
<trkpt lat="40.0713749" lon="-105.229789">
  <ele>1583.0</ele>
  <time>2026-08-28T17:55:34Z</time>
  <course>0.0</course>
  <speed>0.0</speed>
  <fix>3d</fix>
</trkpt>
<trkpt lat="40.0713749" lon="-105.229789">
  <ele>1583.0</ele>
  <time>2026-08-28T17:55:34Z</time>
  <course>243.29</course>
  <speed>0.0</speed>
  <fix>3d</fix>
</trkpt>
<trkpt lat="40.0713749" lon="-105.229789">
  <ele>1583.0</ele>
  <time>2026-08-28T17:55:34Z</time>
  <course>0.0</course>
  <speed>0.0</speed>
  <fix>3d</fix>
</trkpt>
<trkpt lat="40.0713749" lon="-105.229789">
  <ele>1583.0</ele>
  <time>2026-08-28T17:55:34Z</time>
  <course>243.51</course>
  <speed>0.0</speed>
  <fix>3d</fix>
</trkpt>
<trkpt lat="40.0713749" lon="-105.229789">
  <ele>1583.0</ele>
  <time>2026-08-28T17:55:34Z</time>
  <course>0.0</course>
  <speed>0.0</speed>
  <fix>3d</fix>
</trkpt>
<trkpt lat="40.0713749" lon="-105.229789">
  <ele>1583.0</ele>
  <time>2026-08-28T17:55:34Z</time>
  <course>243.72</course>
  <speed>0.0</speed>
  <fix>3d</fix>
</trkpt>
<trkpt lat="40.0713749" lon="-105.229789">
  <ele>1583.0</ele>
  <time>2026-08-28T17:55:34Z</time>
  <course>0.0</course>
  <speed>0.0</speed>
  <fix>3d</fix>
</trkpt>
<trkpt lat="40.0713749" lon="-105.229789">
  <ele>1583.0</ele>
  <time>2026-08-28T17:55:34Z</time>
  <course>243.93</course>
  <speed>0.0</speed>
  <fix>3d</fix>
</trkpt>
<trkpt lat="40.0713749" lon="-105.229789">
  <ele>1583.0</ele>
  <time>2026-08-28T17:55:34Z</time>
  <course>0.0</course>
  <speed>0.0</speed>
  <fix>3d</fix>
</trkpt>
<trkpt lat="40.0713749" lon="-105.229789">
  <ele>1583.0</ele>
  <time>2026-08-28T17:55:34Z</time>
  <course>244.12</course>
  <speed>0.0</speed>
  <fix>3d</fix>
</trkpt>
<trkpt lat="40.0713749" lon="-105.229789">
  <ele>1583.0</ele>
  <time>2026-08-28T17:55:34Z</time>
  <course>0.0</course>
  <speed>0.0</speed>
  <fix>3d</fix>
</trkpt>
<trkpt lat="40.0713749" lon="-105.229789">
  <ele>1583.0</ele>
  <time>2026-08-28T17:55:34Z</time>
  <course>244.31</course>
  <speed>0.0</speed>
  <fix>3d</fix>
</trkpt>
<trkpt lat="40.0713749" lon="-105.229789">
  <ele>1583.0</ele>
  <time>2026-08-28T17:55:34Z</time>
  <course>0.0</course>
  <speed>0.0</speed>
  <fix>3d</fix>
</trkpt>
<trkpt lat="40.0713749" lon="-105.229789">
  <ele>1583.0</ele>
  <time>2026-08-28T17:55:34Z</time>
  <course>244.5</course>
  <speed>0.0</speed>
  <fix>3d</fix>
</trkpt>
<trkpt lat="40.0713749" lon="-105.229789">
  <ele>1583.0</ele>
  <time>2026-08-28T17:55:34Z</time>
  <course>0.0</course>
  <speed>0.0</speed>
  <fix>3d</fix>
</trkpt>
<trkpt lat="40.0713749" lon="-105.229789">
  <ele>1583.0</ele>
  <time>2026-08-28T17:55:34Z</time>
  <course>244.67</course>
  <speed>0.0</speed>
  <fix>3d</fix>
</trkpt>
<trkpt lat="40.0713749" lon="-105.229789">
  <ele>1583.0</ele>
  <time>2026-08-28T17:55:34Z</time>
  <course>0.0</course>
  <speed>0.0</speed>
  <fix>3d</fix>
</trkpt>
<trkpt lat="40.0713749" lon="-105.229789">
  <ele>1583.0</ele>
  <time>2026-08-28T17:55:34Z</time>
  <course>244.84</course>
  <speed>0.0</speed>
  <fix>3d</fix>
</trkpt>
<trkpt lat="40.0713749" lon="-105.229789">
  <ele>1583.0</ele>
  <time>2026-08-28T17:55:34Z</time>
  <course>0.0</course>
  <speed>0.0</speed>
  <fix>3d</fix>
</trkpt>
<trkpt lat="40.0713749" lon="-105.229789">
  <ele>1583.0</ele>
  <time>2026-08-28T17:55:34Z</time>
  <course>245.01</course>
  <speed>0.0</speed>
  <fix>3d</fix>
</trkpt>
<trkpt lat="40.0713749" lon="-105.229789">
  <ele>1583.0</ele>
  <time>2026-08-28T17:55:34Z</time>
  <course>0.0</course>
  <speed>0.0</speed>
  <fix>3d</fix>
</trkpt>
<trkpt lat="40.0713749" lon="-105.229789">
  <ele>1583.0</ele>
  <time>2026-08-28T17:55:34Z</time>
  <course>245.16</course>
  <speed>0.0</speed>
  <fix>3d</fix>
</trkpt>
<trkpt lat="40.0713749" lon="-105.229789">
  <ele>1583.0</ele>
  <time>2026-08-28T17:55:34Z</time>
  <course>0.0</course>
  <speed>0.0</speed>
  <fix>3d</fix>
</trkpt>
<trkpt lat="40.0713749" lon="-105.229789">
  <ele>1583.0</ele>
  <time>2026-08-28T17:55:34Z</time>
  <course>245.29</course>
  <speed>0.0</speed>
  <fix>3d</fix>
</trkpt>
<trkpt lat="40.0713749" lon="-105.229789">
  <ele>1583.0</ele>
  <time>2026-08-28T17:55:34Z</time>
  <course>0.0</course>
  <speed>0.0</speed>
  <fix>3d</fix>
</trkpt>
<trkpt lat="40.0713749" lon="-105.229789">
  <ele>1583.0</ele>
  <time>2026-08-28T17:55:34Z</time>
  <course>245.43</course>
  <speed>0.0</speed>
  <fix>3d</fix>
</trkpt>
<trkpt lat="40.0713749" lon="-105.229789">
  <ele>1583.0</ele>
  <time>2026-08-28T17:55:34Z</time>
  <course>0.0</course>
  <speed>0.0</speed>
  <fix>3d</fix>
</trkpt>
<trkpt lat="40.0713749" lon="-105.229789">
  <ele>1583.0</ele>
  <time>2026-08-28T17:55:34Z</time>
  <course>245.57</course>
  <speed>0.0</speed>
  <fix>3d</fix>
</trkpt>
<trkpt lat="40.0713749" lon="-105.229789">
  <ele>1583.0</ele>
  <time>2026-08-28T17:55:34Z</time>
  <course>0.0</course>
  <speed>0.0</speed>
  <fix>3d</fix>
</trkpt>
<trkpt lat="40.0713749" lon="-105.229789">
  <ele>1583.0</ele>
  <time>2026-08-28T17:55:34Z</time>
  <course>245.71</course>
  <speed>0.0</speed>
  <fix>3d</fix>
</trkpt>
<trkpt lat="40.0713749" lon="-105.229789">
  <ele>1583.0</ele>
  <time>2026-08-28T17:55:34Z</time>
  <course>0.0</course>
  <speed>0.0</speed>
  <fix>3d</fix>
</trkpt>
<trkpt lat="40.0713749" lon="-105.229789">
  <ele>1583.0</ele>
  <time>2026-08-28T17:55:34Z</time>
  <course>245.84</course>
  <speed>0.0</speed>
  <fix>3d</fix>
</trkpt>
<trkpt lat="40.0713749" lon="-105.229789">
  <ele>1583.0</ele>
  <time>2026-08-28T17:55:34Z</time>
  <course>0.0</course>
  <speed>0.0</speed>
  <fix>3d</fix>
</trkpt>
<trkpt lat="40.0713749" lon="-105.229789">
  <ele>1583.0</ele>
  <time>2026-08-28T17:55:34Z</time>
  <course>245.96</course>
  <speed>0.0</speed>
  <fix>3d</fix>
</trkpt>
<trkpt lat="40.0713749" lon="-105.229789">
  <ele>1583.0</ele>
  <time>2026-08-28T17:55:34Z</time>
  <course>0.0</course>
  <speed>0.0</speed>
  <fix>3d</fix>
</trkpt>
<trkpt lat="40.0713749" lon="-105.229789">
  <ele>1583.0</ele>
  <time>2026-08-28T17:55:34Z</time>
  <course>246.08</course>
  <speed>0.0</speed>
  <fix>3d</fix>
</trkpt>
<trkpt lat="40.0713749" lon="-105.229789">
  <ele>1583.0</ele>
  <time>2026-08-28T17:55:34Z</time>
  <course>0.0</course>
  <speed>0.0</speed>
  <fix>3d</fix>
</trkpt>
<trkpt lat="40.0713749" lon="-105.229789">
  <ele>1583.0</ele>
  <time>2026-08-28T17:55:34Z</time>
  <course>246.19</course>
  <speed>0.0</speed>
  <fix>3d</fix>
</trkpt>
<trkpt lat="40.0713749" lon="-105.229789">
  <ele>1583.0</ele>
  <time>2026-08-28T17:55:34Z</time>
  <course>0.0</course>
  <speed>0.0</speed>
  <fix>3d</fix>
</trkpt>
<trkpt lat="40.0713749" lon="-105.229789">
  <ele>1583.0</ele>
  <time>2026-08-28T17:55:34Z</time>
  <course>246.3</course>
  <speed>0.0</speed>
  <fix>3d</fix>
</trkpt>
<trkpt lat="40.0713749" lon="-105.229789">
  <ele>1583.0</ele>
  <time>2026-08-28T17:55:34Z</time>
  <course>0.0</course>
  <speed>0.0</speed>
  <fix>3d</fix>
</trkpt>
<trkpt lat="40.0713749" lon="-105.229789">
  <ele>1583.0</ele>
  <time>2026-08-28T17:55:34Z</time>
  <course>246.41</course>
  <speed>0.0</speed>
  <fix>3d</fix>
</trkpt>
<trkpt lat="40.0713749" lon="-105.229789">
  <ele>1583.0</ele>
  <time>2026-08-28T17:55:34Z</time>
  <course>0.0</course>
  <speed>0.0</speed>
  <fix>3d</fix>
</trkpt>
<trkpt lat="40.0713749" lon="-105.229789">
  <ele>1583.0</ele>
  <time>2026-08-28T17:55:34Z</time>
  <course>246.53</course>
  <speed>0.0</speed>
  <fix>3d</fix>
</trkpt>
<trkpt lat="40.0713749" lon="-105.229789">
  <ele>1583.0</ele>
  <time>2026-08-28T17:55:34Z</time>
  <course>0.0</course>
  <speed>0.0</speed>
  <fix>3d</fix>
</trkpt>
<trkpt lat="40.0713749" lon="-105.229789">
  <ele>1583.0</ele>
  <time>2026-08-28T17:55:34Z</time>
  <course>246.62</course>
  <speed>0.0</speed>
  <fix>3d</fix>
</trkpt>
<trkpt lat="40.0713749" lon="-105.229789">
  <ele>1583.0</ele>
  <time>2026-08-28T17:55:34Z</time>
  <course>0.0</course>
  <speed>0.0</speed>
  <fix>3d</fix>
</trkpt>
<trkpt lat="40.0713749" lon="-105.229789">
  <ele>1583.0</ele>
  <time>2026-08-28T17:55:34Z</time>
  <course>246.71</course>
  <speed>0.0</speed>
  <fix>3d</fix>
</trkpt>
<trkpt lat="40.0713749" lon="-105.229789">
  <ele>1583.0</ele>
  <time>2026-08-28T17:55:34Z</time>
  <course>0.0</course>
  <speed>0.0</speed>
  <fix>3d</fix>
</trkpt>
<trkpt lat="40.0713749" lon="-105.229789">
  <ele>1583.0</ele>
  <time>2026-08-28T17:55:34Z</time>
  <course>246.8</course>
  <speed>0.0</speed>
  <fix>3d</fix>
</trkpt>
<trkpt lat="40.0713749" lon="-105.229789">
  <ele>1583.0</ele>
  <time>2026-08-28T17:55:34Z</time>
  <course>0.0</course>
  <speed>0.0</speed>
  <fix>3d</fix>
</trkpt>
<trkpt lat="40.0713749" lon="-105.229789">
  <ele>1583.0</ele>
  <time>2026-08-28T17:55:34Z</time>
  <course>246.88</course>
  <speed>0.0</speed>
  <fix>3d</fix>
</trkpt>
<trkpt lat="40.0713749" lon="-105.229789">
  <ele>1583.0</ele>
  <time>2026-08-28T17:55:34Z</time>
  <course>0.0</course>
  <speed>0.0</speed>
  <fix>3d</fix>
</trkpt>
<trkpt lat="40.0713749" lon="-105.229789">
  <ele>1583.0</ele>
  <time>2026-08-28T17:55:34Z</time>
  <course>246.96</course>
  <speed>0.0</speed>
  <fix>3d</fix>
</trkpt>
<trkpt lat="40.0713749" lon="-105.229789">
  <ele>1583.0</ele>
  <time>2026-08-28T17:55:34Z</time>
  <course>0.0</course>
  <speed>0.0</speed>
  <fix>3d</fix>
</trkpt>
<trkpt lat="40.0713749" lon="-105.229789">
  <ele>1583.0</ele>
  <time>2026-08-28T17:55:34Z</time>
  <course>247.04</course>
  <speed>0.0</speed>
  <fix>3d</fix>
</trkpt>
<trkpt lat="40.0713749" lon="-105.229789">
  <ele>1583.0</ele>
  <time>2026-08-28T17:55:34Z</time>
  <course>0.0</course>
  <speed>0.0</speed>
  <fix>3d</fix>
</trkpt>
<trkpt lat="40.0713749" lon="-105.229789">
  <ele>1583.0</ele>
  <time>2026-08-28T17:55:34Z</time>
  <course>247.11</course>
  <speed>0.0</speed>
  <fix>3d</fix>
</trkpt>
<trkpt lat="40.0713749" lon="-105.229789">
  <ele>1583.0</ele>
  <time>2026-08-28T17:55:34Z</time>
  <course>0.0</course>
  <speed>0.0</speed>
  <fix>3d</fix>
</trkpt>
<trkpt lat="40.0713749" lon="-105.229789">
  <ele>1583.0</ele>
  <time>2026-08-28T17:55:34Z</time>
  <course>247.18</course>
  <speed>0.0</speed>
  <fix>3d</fix>
</trkpt>
<trkpt lat="40.0713749" lon="-105.229789">
  <ele>1583.0</ele>
  <time>2026-08-28T17:55:34Z</time>
  <course>0.0</course>
  <speed>0.0</speed>
  <fix>3d</fix>
</trkpt>
<trkpt lat="40.0713749" lon="-105.229789">
  <ele>1583.0</ele>
  <time>2026-08-28T17:55:34Z</time>
  <course>247.25</course>
  <speed>0.0</speed>
  <fix>3d</fix>
</trkpt>
<trkpt lat="40.0713749" lon="-105.229789">
  <ele>1583.0</ele>
  <time>2026-08-28T17:55:34Z</time>
  <course>0.0</course>
  <speed>0.0</speed>
  <fix>3d</fix>
</trkpt>
<trkpt lat="40.0713749" lon="-105.229789">
  <ele>1583.0</ele>
  <time>2026-08-28T17:55:34Z</time>
  <course>247.31</course>
  <speed>0.0</speed>
  <fix>3d</fix>
</trkpt>
<trkpt lat="40.0713749" lon="-105.229789">
  <ele>1583.0</ele>
  <time>2026-08-28T17:55:34Z</time>
  <course>0.0</course>
  <speed>0.0</speed>
  <fix>3d</fix>
</trkpt>
<trkpt lat="40.0713749" lon="-105.229789">
  <ele>1583.0</ele>
  <time>2026-08-28T17:55:34Z</time>
  <course>247.36</course>
  <speed>0.0</speed>
  <fix>3d</fix>
</trkpt>
<trkpt lat="40.0713749" lon="-105.229789">
  <ele>1583.0</ele>
  <time>2026-08-28T17:55:34Z</time>
  <course>0.0</course>
  <speed>0.0</speed>
  <fix>3d</fix>
</trkpt>
<trkpt lat="40.0713749" lon="-105.229789">
  <ele>1583.0</ele>
  <time>2026-08-28T17:55:34Z</time>
  <course>247.42</course>
  <speed>0.0</speed>
  <fix>3d</fix>
</trkpt>
<trkpt lat="40.0713749" lon="-105.229789">
  <ele>1583.0</ele>
  <time>2026-08-28T17:55:34Z</time>
  <course>0.0</course>
  <speed>0.0</speed>
  <fix>3d</fix>
</trkpt>
<trkpt lat="40.0713749" lon="-105.229789">
  <ele>1583.0</ele>
  <time>2026-08-28T17:55:34Z</time>
  <course>247.47</course>
  <speed>0.0</speed>
  <fix>3d</fix>
</trkpt>
<trkpt lat="40.0713749" lon="-105.229789">
  <ele>1583.0</ele>
  <time>2026-08-28T17:55:34Z</time>
  <course>0.0</course>
  <speed>0.0</speed>
  <fix>3d</fix>
</trkpt>
<trkpt lat="40.0713749" lon="-105.229789">
  <ele>1583.0</ele>
  <time>2026-08-28T17:55:34Z</time>
  <course>247.53</course>
  <speed>0.0</speed>
  <fix>3d</fix>
</trkpt>
<trkpt lat="40.0713749" lon="-105.229789">
  <ele>1583.0</ele>
  <time>2026-08-28T17:55:34Z</time>
  <course>0.0</course>
  <speed>0.0</speed>
  <fix>3d</fix>
</trkpt>
<trkpt lat="40.0713749" lon="-105.229789">
  <ele>1583.0</ele>
  <time>2026-08-28T17:55:34Z</time>
  <course>247.58</course>
  <speed>0.0</speed>
  <fix>3d</fix>
</trkpt>
<trkpt lat="40.0713749" lon="-105.229789">
  <ele>1583.0</ele>
  <time>2026-08-28T17:55:34Z</time>
  <course>0.0</course>
  <speed>0.0</speed>
  <fix>3d</fix>
</trkpt>
<trkpt lat="40.0713749" lon="-105.229789">
  <ele>1583.0</ele>
  <time>2026-08-28T17:55:34Z</time>
  <course>247.63</course>
  <speed>0.0</speed>
  <fix>3d</fix>
</trkpt>
<trkpt lat="40.0713749" lon="-105.229789">
  <ele>1583.0</ele>
  <time>2026-08-28T17:55:34Z</time>
  <course>0.0</course>
  <speed>0.0</speed>
  <fix>3d</fix>
</trkpt>
<trkpt lat="40.0713749" lon="-105.229789">
  <ele>1583.0</ele>
  <time>2026-08-28T17:55:34Z</time>
  <course>247.67</course>
  <speed>0.0</speed>
  <fix>3d</fix>
</trkpt>
<trkpt lat="40.0713749" lon="-105.229789">
  <ele>1583.0</ele>
  <time>2026-08-28T17:55:34Z</time>
  <course>0.0</course>
  <speed>0.0</speed>
  <fix>3d</fix>
</trkpt>
<trkpt lat="40.0713749" lon="-105.229789">
  <ele>1583.0</ele>
  <time>2026-08-28T17:55:34Z</time>
  <course>247.72</course>
  <speed>0.0</speed>
  <fix>3d</fix>
</trkpt>
<trkpt lat="40.0713749" lon="-105.229789">
  <ele>1583.0</ele>
  <time>2026-08-28T17:55:34Z</time>
  <course>0.0</course>
  <speed>0.0</speed>
  <fix>3d</fix>
</trkpt>
<trkpt lat="40.0713749" lon="-105.229789">
  <ele>1583.0</ele>
  <time>2026-08-28T17:55:34Z</time>
  <course>247.76</course>
  <speed>0.0</speed>
  <fix>3d</fix>
</trkpt>
<trkpt lat="40.0713749" lon="-105.229789">
  <ele>1583.0</ele>
  <time>2026-08-28T17:55:34Z</time>
  <course>0.0</course>
  <speed>0.0</speed>
  <fix>3d</fix>
</trkpt>
<trkpt lat="40.0713749" lon="-105.229789">
  <ele>1583.0</ele>
  <time>2026-08-28T17:55:34Z</time>
  <course>247.81</course>
  <speed>0.0</speed>
  <fix>3d</fix>
</trkpt>
<trkpt lat="40.0713749" lon="-105.229789">
  <ele>1583.0</ele>
  <time>2026-08-28T17:55:34Z</time>
  <course>0.0</course>
  <speed>0.0</speed>
  <fix>3d</fix>
</trkpt>
<trkpt lat="40.0713749" lon="-105.229789">
  <ele>1583.0</ele>
  <time>2026-08-28T17:55:34Z</time>
  <course>247.84</course>
  <speed>0.0</speed>
  <fix>3d</fix>
</trkpt>
<trkpt lat="40.0713749" lon="-105.229789">
  <ele>1583.0</ele>
  <time>2026-08-28T17:55:34Z</time>
  <course>0.0</course>
  <speed>0.0</speed>
  <fix>3d</fix>
</trkpt>
<trkpt lat="40.0713749" lon="-105.229789">
  <ele>1583.0</ele>
  <time>2026-08-28T17:55:34Z</time>
  <course>247.88</course>
  <speed>0.0</speed>
  <fix>3d</fix>
</trkpt>
<trkpt lat="40.0713749" lon="-105.229789">
  <ele>1583.0</ele>
  <time>2026-08-28T17:55:34Z</time>
  <course>0.0</course>
  <speed>0.0</speed>
  <fix>3d</fix>
</trkpt>
<trkpt lat="40.0713749" lon="-105.229789">
  <ele>1583.0</ele>
  <time>2026-08-28T17:55:34Z</time>
  <course>247.91</course>
  <speed>0.0</speed>
  <fix>3d</fix>
</trkpt>
<trkpt lat="40.0713749" lon="-105.229789">
  <ele>1583.0</ele>
  <time>2026-08-28T17:55:34Z</time>
  <course>0.0</course>
  <speed>0.0</speed>
  <fix>3d</fix>
</trkpt>
<trkpt lat="40.0713749" lon="-105.229789">
  <ele>1583.0</ele>
  <time>2026-08-28T17:55:34Z</time>
  <course>247.94</course>
  <speed>0.0</speed>
  <fix>3d</fix>
</trkpt>
<trkpt lat="40.0713749" lon="-105.229789">
  <ele>1583.0</ele>
  <time>2026-08-28T17:55:34Z</time>
  <course>0.0</course>
  <speed>0.0</speed>
  <fix>3d</fix>
</trkpt>
<trkpt lat="40.0713749" lon="-105.229789">
  <ele>1583.0</ele>
  <time>2026-08-28T17:55:34Z</time>
  <course>247.97</course>
  <speed>0.0</speed>
  <fix>3d</fix>
</trkpt>
<trkpt lat="40.0713749" lon="-105.229789">
  <ele>1583.0</ele>
  <time>2026-08-28T17:55:34Z</time>
  <course>0.0</course>
  <speed>0.0</speed>
  <fix>3d</fix>
</trkpt>
<trkpt lat="40.0713749" lon="-105.229789">
  <ele>1583.0</ele>
  <time>2026-08-28T17:55:34Z</time>
  <course>248.0</course>
  <speed>0.0</speed>
  <fix>3d</fix>
</trkpt>
<trkpt lat="40.0713749" lon="-105.229789">
  <ele>1583.0</ele>
  <time>2026-08-28T17:55:34Z</time>
  <course>0.0</course>
  <speed>0.0</speed>
  <fix>3d</fix>
</trkpt>
<trkpt lat="40.0713749" lon="-105.229789">
  <ele>1583.0</ele>
  <time>2026-08-28T17:55:34Z</time>
  <course>248.03</course>
  <speed>0.0</speed>
  <fix>3d</fix>
</trkpt>
<trkpt lat="40.0713749" lon="-105.229789">
  <ele>1583.0</ele>
  <time>2026-08-28T17:55:34Z</time>
  <course>0.0</course>
  <speed>0.0</speed>
  <fix>3d</fix>
</trkpt>
<trkpt lat="40.0713749" lon="-105.229789">
  <ele>1583.0</ele>
  <time>2026-08-28T17:55:34Z</time>
  <course>248.06</course>
  <speed>0.0</speed>
  <fix>3d</fix>
</trkpt>
<trkpt lat="40.0713749" lon="-105.229789">
  <ele>1583.0</ele>
  <time>2026-08-28T17:55:34Z</time>
  <course>0.0</course>
  <speed>0.0</speed>
  <fix>3d</fix>
</trkpt>
<trkpt lat="40.0713749" lon="-105.229789">
  <ele>1583.0</ele>
  <time>2026-08-28T17:55:34Z</time>
  <course>248.08</course>
  <speed>0.0</speed>
  <fix>3d</fix>
</trkpt>
<trkpt lat="40.0713749" lon="-105.229789">
  <ele>1583.0</ele>
  <time>2026-08-28T17:55:34Z</time>
  <course>0.0</course>
  <speed>0.0</speed>
  <fix>3d</fix>
</trkpt>
<trkpt lat="40.0713749" lon="-105.229789">
  <ele>1583.0</ele>
  <time>2026-08-28T17:55:34Z</time>
  <course>248.11</course>
  <speed>0.0</speed>
  <fix>3d</fix>
</trkpt>
<trkpt lat="40.0713749" lon="-105.229789">
  <ele>1583.0</ele>
  <time>2026-08-28T17:55:34Z</time>
  <course>0.0</course>
  <speed>0.0</speed>
  <fix>3d</fix>
</trkpt>
<trkpt lat="40.0713749" lon="-105.229789">
  <ele>1583.0</ele>
  <time>2026-08-28T17:55:34Z</time>
  <course>248.12</course>
  <speed>0.0</speed>
  <fix>3d</fix>
</trkpt>
<trkpt lat="40.0713749" lon="-105.229789">
  <ele>1583.0</ele>
  <time>2026-08-28T17:55:34Z</time>
  <course>0.0</course>
  <speed>0.0</speed>
  <fix>3d</fix>
</trkpt>
<trkpt lat="40.0713749" lon="-105.229789">
  <ele>1583.0</ele>
  <time>2026-08-28T17:55:34Z</time>
  <course>248.14</course>
  <speed>0.0</speed>
  <fix>3d</fix>
</trkpt>
<trkpt lat="40.0713749" lon="-105.229789">
  <ele>1583.0</ele>
  <time>2026-08-28T17:55:34Z</time>
  <course>0.0</course>
  <speed>0.0</speed>
  <fix>3d</fix>
</trkpt>
<trkpt lat="40.0713749" lon="-105.229789">
  <ele>1583.0</ele>
  <time>2026-08-28T17:55:34Z</time>
  <course>248.16</course>
  <speed>0.0</speed>
  <fix>3d</fix>
</trkpt>
<trkpt lat="40.0713749" lon="-105.229789">
  <ele>1583.0</ele>
  <time>2026-08-28T17:55:34Z</time>
  <course>0.0</course>
  <speed>0.0</speed>
  <fix>3d</fix>
</trkpt>
<trkpt lat="40.0713749" lon="-105.229789">
  <ele>1583.0</ele>
  <time>2026-08-28T17:55:34Z</time>
  <course>248.18</course>
  <speed>0.0</speed>
  <fix>3d</fix>
</trkpt>
<trkpt lat="40.0713749" lon="-105.229789">
  <ele>1583.0</ele>
  <time>2026-08-28T17:55:34Z</time>
  <course>0.0</course>
  <speed>0.0</speed>
  <fix>3d</fix>
</trkpt>
<trkpt lat="40.0713749" lon="-105.229789">
  <ele>1583.0</ele>
  <time>2026-08-28T17:55:34Z</time>
  <course>248.2</course>
  <speed>0.0</speed>
  <fix>3d</fix>
</trkpt>
<trkpt lat="40.0713749" lon="-105.229789">
  <ele>1583.0</ele>
  <time>2026-08-28T17:55:34Z</time>
  <course>0.0</course>
  <speed>0.0</speed>
  <fix>3d</fix>
</trkpt>
<trkpt lat="40.0713749" lon="-105.229789">
  <ele>1583.0</ele>
  <time>2026-08-28T17:55:34Z</time>
  <course>248.22</course>
  <speed>0.0</speed>
  <fix>3d</fix>
</trkpt>
<trkpt lat="40.0713749" lon="-105.229789">
  <ele>1583.0</ele>
  <time>2026-08-28T17:55:34Z</time>
  <course>0.0</course>
  <speed>0.0</speed>
  <fix>3d</fix>
</trkpt>
<trkpt lat="40.0713749" lon="-105.229789">
  <ele>1583.0</ele>
  <time>2026-08-28T17:55:34Z</time>
  <course>248.23</course>
  <speed>0.0</speed>
  <fix>3d</fix>
</trkpt>
<trkpt lat="40.0713749" lon="-105.229789">
  <ele>1583.0</ele>
  <time>2026-08-28T17:55:34Z</time>
  <course>0.0</course>
  <speed>0.0</speed>
  <fix>3d</fix>
</trkpt>
<trkpt lat="40.0713749" lon="-105.229789">
  <ele>1583.0</ele>
  <time>2026-08-28T17:55:34Z</time>
  <course>248.25</course>
  <speed>0.0</speed>
  <fix>3d</fix>
</trkpt>
<trkpt lat="40.0713749" lon="-105.229789">
  <ele>1583.0</ele>
  <time>2026-08-28T17:55:34Z</time>
  <course>0.0</course>
  <speed>0.0</speed>
  <fix>3d</fix>
</trkpt>
<trkpt lat="40.0713749" lon="-105.229789">
  <ele>1583.0</ele>
  <time>2026-08-28T17:55:34Z</time>
  <course>248.26</course>
  <speed>0.0</speed>
  <fix>3d</fix>
</trkpt>
<trkpt lat="40.0713749" lon="-105.229789">
  <ele>1583.0</ele>
  <time>2026-08-28T17:55:34Z</time>
  <course>0.0</course>
  <speed>0.0</speed>
  <fix>3d</fix>
</trkpt>
<trkpt lat="40.0713749" lon="-105.229789">
  <ele>1583.0</ele>
  <time>2026-08-28T17:55:34Z</time>
  <course>248.28</course>
  <speed>0.0</speed>
  <fix>3d</fix>
</trkpt>
<trkpt lat="40.0713749" lon="-105.229789">
  <ele>1583.0</ele>
  <time>2026-08-28T17:55:34Z</time>
  <course>0.0</course>
  <speed>0.0</speed>
  <fix>3d</fix>
</trkpt>
<trkpt lat="40.0713749" lon="-105.229789">
  <ele>1583.0</ele>
  <time>2026-08-28T17:55:34Z</time>
  <course>248.29</course>
  <speed>0.0</speed>
  <fix>3d</fix>
</trkpt>
<trkpt lat="40.0713749" lon="-105.229789">
  <ele>1583.0</ele>
  <time>2026-08-28T17:55:34Z</time>
  <course>0.0</course>
  <speed>0.0</speed>
  <fix>3d</fix>
</trkpt>
<trkpt lat="40.0713749" lon="-105.229789">
  <ele>1583.0</ele>
  <time>2026-08-28T17:55:34Z</time>
  <course>248.3</course>
  <speed>0.0</speed>
  <fix>3d</fix>
</trkpt>
<trkpt lat="40.0713749" lon="-105.229789">
  <ele>1583.0</ele>
  <time>2026-08-28T17:55:34Z</time>
  <course>0.0</course>
  <speed>0.0</speed>
  <fix>3d</fix>
</trkpt>
<trkpt lat="40.0713749" lon="-105.229789">
  <ele>1583.0</ele>
  <time>2026-08-28T17:55:34Z</time>
  <course>248.31</course>
  <speed>0.0</speed>
  <fix>3d</fix>
</trkpt>
<trkpt lat="40.0713749" lon="-105.229789">
  <ele>1583.0</ele>
  <time>2026-08-28T17:55:34Z</time>
  <course>0.0</course>
  <speed>0.0</speed>
  <fix>3d</fix>
</trkpt>
<trkpt lat="40.0713749" lon="-105.229789">
  <ele>1583.0</ele>
  <time>2026-08-28T17:55:34Z</time>
  <course>248.32</course>
  <speed>0.0</speed>
  <fix>3d</fix>
</trkpt>
<trkpt lat="40.0713749" lon="-105.229789">
  <ele>1583.0</ele>
  <time>2026-08-28T17:55:34Z</time>
  <course>0.0</course>
  <speed>0.0</speed>
  <fix>3d</fix>
</trkpt>
<trkpt lat="40.0713749" lon="-105.229789">
  <ele>1583.0</ele>
  <time>2026-08-28T17:55:34Z</time>
  <course>248.33</course>
  <speed>0.0</speed>
  <fix>3d</fix>
</trkpt>
<trkpt lat="40.0713749" lon="-105.229789">
  <ele>1583.0</ele>
  <time>2026-08-28T17:55:34Z</time>
  <course>0.0</course>
  <speed>0.0</speed>
  <fix>3d</fix>
</trkpt>
<trkpt lat="40.0713749" lon="-105.229789">
  <ele>1583.0</ele>
  <time>2026-08-28T17:55:34Z</time>
  <course>248.34</course>
  <speed>0.0</speed>
  <fix>3d</fix>
</trkpt>
<trkpt lat="40.0713749" lon="-105.229789">
  <ele>1583.0</ele>
  <time>2026-08-28T17:55:34Z</time>
  <course>0.0</course>
  <speed>0.0</speed>
  <fix>3d</fix>
</trkpt>
<trkpt lat="40.0713749" lon="-105.229789">
  <ele>1583.0</ele>
  <time>2026-08-28T17:55:34Z</time>
  <course>248.35</course>
  <speed>0.0</speed>
  <fix>3d</fix>
</trkpt>
<trkpt lat="40.0713749" lon="-105.229789">
  <ele>1583.0</ele>
  <time>2026-08-28T17:55:34Z</time>
  <course>0.0</course>
  <speed>0.0</speed>
  <fix>3d</fix>
</trkpt>
<trkpt lat="40.0713749" lon="-105.229789">
  <ele>1583.0</ele>
  <time>2026-08-28T17:55:34Z</time>
  <course>248.36</course>
  <speed>0.0</speed>
  <fix>3d</fix>
</trkpt>
<trkpt lat="40.0713749" lon="-105.229789">
  <ele>1583.0</ele>
  <time>2026-08-28T17:55:34Z</time>
  <course>0.0</course>
  <speed>0.0</speed>
  <fix>3d</fix>
</trkpt>
<trkpt lat="40.0713749" lon="-105.229789">
  <ele>1583.0</ele>
  <time>2026-08-28T17:55:34Z</time>
  <course>248.36</course>
  <speed>0.0</speed>
  <fix>3d</fix>
</trkpt>
<trkpt lat="40.0713749" lon="-105.229789">
  <ele>1583.0</ele>
  <time>2026-08-28T17:55:34Z</time>
  <course>0.0</course>
  <speed>0.0</speed>
  <fix>3d</fix>
</trkpt>
<trkpt lat="40.0713749" lon="-105.229789">
  <ele>1583.0</ele>
  <time>2026-08-28T17:55:34Z</time>
  <course>248.37</course>
  <speed>0.0</speed>
  <fix>3d</fix>
</trkpt>
<trkpt lat="40.0713749" lon="-105.229789">
  <ele>1583.0</ele>
  <time>2026-08-28T17:55:34Z</time>
  <course>0.0</course>
  <speed>0.0</speed>
  <fix>3d</fix>
</trkpt>
<trkpt lat="40.0713749" lon="-105.229789">
  <ele>1583.0</ele>
  <time>2026-08-28T17:55:34Z</time>
  <course>248.38</course>
  <speed>0.0</speed>
  <fix>3d</fix>
</trkpt>
<trkpt lat="40.0713749" lon="-105.229789">
  <ele>1583.0</ele>
  <time>2026-08-28T17:55:34Z</time>
  <course>0.0</course>
  <speed>0.0</speed>
  <fix>3d</fix>
</trkpt>
<trkpt lat="40.0713749" lon="-105.229789">
  <ele>1583.0</ele>
  <time>2026-08-28T17:55:34Z</time>
  <course>248.38</course>
  <speed>0.0</speed>
  <fix>3d</fix>
</trkpt>
<trkpt lat="40.0713749" lon="-105.229789">
  <ele>1583.0</ele>
  <time>2026-08-28T17:55:34Z</time>
  <course>0.0</course>
  <speed>0.0</speed>
  <fix>3d</fix>
</trkpt>
<trkpt lat="40.0713749" lon="-105.229789">
  <ele>1583.0</ele>
  <time>2026-08-28T17:55:34Z</time>
  <course>248.38</course>
  <speed>0.0</speed>
  <fix>3d</fix>
</trkpt>
<trkpt lat="40.0713749" lon="-105.229789">
  <ele>1583.0</ele>
  <time>2026-08-28T17:55:34Z</time>
  <course>0.0</course>
  <speed>0.0</speed>
  <fix>3d</fix>
</trkpt>
<trkpt lat="40.0713749" lon="-105.229789">
  <ele>1583.0</ele>
  <time>2026-08-28T17:55:34Z</time>
  <course>248.39</course>
  <speed>0.0</speed>
  <fix>3d</fix>
</trkpt>
<trkpt lat="40.0713749" lon="-105.229789">
  <ele>1583.0</ele>
  <time>2026-08-28T17:55:34Z</time>
  <course>0.0</course>
  <speed>0.0</speed>
  <fix>3d</fix>
</trkpt>
<trkpt lat="40.0713749" lon="-105.229789">
  <ele>1583.0</ele>
  <time>2026-08-28T17:55:34Z</time>
  <course>248.39</course>
  <speed>0.0</speed>
  <fix>3d</fix>
</trkpt>
<trkpt lat="40.0713749" lon="-105.229789">
  <ele>1583.0</ele>
  <time>2026-08-28T17:55:34Z</time>
  <course>0.0</course>
  <speed>0.0</speed>
  <fix>3d</fix>
</trkpt>
<trkpt lat="40.0713749" lon="-105.229789">
  <ele>1583.0</ele>
  <time>2026-08-28T17:55:34Z</time>
  <course>248.4</course>
  <speed>0.0</speed>
  <fix>3d</fix>
</trkpt>
<trkpt lat="40.0713749" lon="-105.229789">
  <ele>1583.0</ele>
  <time>2026-08-28T17:55:34Z</time>
  <course>0.0</course>
  <speed>0.0</speed>
  <fix>3d</fix>
</trkpt>
<trkpt lat="40.0713749" lon="-105.229789">
  <ele>1583.0</ele>
  <time>2026-08-28T17:55:34Z</time>
  <course>248.4</course>
  <speed>0.0</speed>
  <fix>3d</fix>
</trkpt>
<trkpt lat="40.0713749" lon="-105.229789">
  <ele>1583.0</ele>
  <time>2026-08-28T17:55:34Z</time>
  <course>0.0</course>
  <speed>0.0</speed>
  <fix>3d</fix>
</trkpt>
<trkpt lat="40.0713749" lon="-105.229789">
  <ele>1583.0</ele>
  <time>2026-08-28T17:55:34Z</time>
  <course>248.4</course>
  <speed>0.0</speed>
  <fix>3d</fix>
</trkpt>
<trkpt lat="40.0713749" lon="-105.229789">
  <ele>1583.0</ele>
  <time>2026-08-28T17:55:34Z</time>
  <course>0.0</course>
  <speed>0.0</speed>
  <fix>3d</fix>
</trkpt>
<trkpt lat="40.0713749" lon="-105.229789">
  <ele>1583.0</ele>
  <time>2026-08-28T17:55:34Z</time>
  <course>248.4</course>
  <speed>0.0</speed>
  <fix>3d</fix>
</trkpt>
<trkpt lat="40.0713749" lon="-105.229789">
  <ele>1583.0</ele>
  <time>2026-08-28T17:55:34Z</time>
  <course>0.0</course>
  <speed>0.0</speed>
  <fix>3d</fix>
</trkpt>
<trkpt lat="40.0713749" lon="-105.229789">
  <ele>1583.0</ele>
  <time>2026-08-28T17:55:34Z</time>
  <course>248.41</course>
  <speed>0.0</speed>
  <fix>3d</fix>
</trkpt>
<trkpt lat="40.0713749" lon="-105.229789">
  <ele>1583.0</ele>
  <time>2026-08-28T17:55:34Z</time>
  <course>0.0</course>
  <speed>0.0</speed>
  <fix>3d</fix>
</trkpt>
<trkpt lat="40.0713749" lon="-105.229789">
  <ele>1583.0</ele>
  <time>2026-08-28T17:55:34Z</time>
  <course>248.41</course>
  <speed>0.0</speed>
  <fix>3d</fix>
</trkpt>
<trkpt lat="40.0713749" lon="-105.229789">
  <ele>1583.0</ele>
  <time>2026-08-28T17:55:34Z</time>
  <course>0.0</course>
  <speed>0.0</speed>
  <fix>3d</fix>
</trkpt>
<trkpt lat="40.0713749" lon="-105.229789">
  <ele>1583.0</ele>
  <time>2026-08-28T17:55:34Z</time>
  <course>248.41</course>
  <speed>0.0</speed>
  <fix>3d</fix>
</trkpt>
<trkpt lat="40.0713749" lon="-105.229789">
  <ele>1583.0</ele>
  <time>2026-08-28T17:55:34Z</time>
  <course>0.0</course>
  <speed>0.0</speed>
  <fix>3d</fix>
</trkpt>
<trkpt lat="40.0713749" lon="-105.229789">
  <ele>1583.0</ele>
  <time>2026-08-28T17:55:34Z</time>
  <course>248.41</course>
  <speed>0.0</speed>
  <fix>3d</fix>
</trkpt>
<trkpt lat="40.0713749" lon="-105.229789">
  <ele>1583.0</ele>
  <time>2026-08-28T17:55:34Z</time>
  <course>0.0</course>
  <speed>0.0</speed>
  <fix>3d</fix>
</trkpt>
<trkpt lat="40.0713749" lon="-105.229789">
  <ele>1583.0</ele>
  <time>2026-08-28T17:55:34Z</time>
  <course>248.41</course>
  <speed>0.0</speed>
  <fix>3d</fix>
</trkpt>
<trkpt lat="40.0713749" lon="-105.229789">
  <ele>1583.0</ele>
  <time>2026-08-28T17:55:34Z</time>
  <course>0.0</course>
  <speed>0.0</speed>
  <fix>3d</fix>
</trkpt>
<trkpt lat="40.0713749" lon="-105.229789">
  <ele>1583.0</ele>
  <time>2026-08-28T17:55:34Z</time>
  <course>248.41</course>
  <speed>0.0</speed>
  <fix>3d</fix>
</trkpt>
<trkpt lat="40.0713749" lon="-105.229789">
  <ele>1583.0</ele>
  <time>2026-08-28T17:55:34Z</time>
  <course>0.0</course>
  <speed>0.0</speed>
  <fix>3d</fix>
</trkpt>
<trkpt lat="40.0713749" lon="-105.229789">
  <ele>1583.0</ele>
  <time>2026-08-28T17:55:34Z</time>
  <course>248.41</course>
  <speed>0.0</speed>
  <fix>3d</fix>
</trkpt>
<trkpt lat="40.0713749" lon="-105.229789">
  <ele>1583.0</ele>
  <time>2026-08-28T17:55:34Z</time>
  <course>0.0</course>
  <speed>0.0</speed>
  <fix>3d</fix>
</trkpt>
<trkpt lat="40.0713749" lon="-105.229789">
  <ele>1583.0</ele>
  <time>2026-08-28T17:55:34Z</time>
  <course>248.41</course>
  <speed>0.0</speed>
  <fix>3d</fix>
</trkpt>
<trkpt lat="40.0713749" lon="-105.229789">
  <ele>1583.0</ele>
  <time>2026-08-28T17:55:34Z</time>
  <course>0.0</course>
  <speed>0.0</speed>
  <fix>3d</fix>
</trkpt>
<trkpt lat="40.0713749" lon="-105.229789">
  <ele>1583.0</ele>
  <time>2026-08-28T17:55:34Z</time>
  <course>248.41</course>
  <speed>0.0</speed>
  <fix>3d</fix>
</trkpt>
<trkpt lat="40.0713749" lon="-105.229789">
  <ele>1583.0</ele>
  <time>2026-08-28T17:55:34Z</time>
  <course>0.0</course>
  <speed>0.0</speed>
  <fix>3d</fix>
</trkpt>
<trkpt lat="40.0713749" lon="-105.229789">
  <ele>1583.0</ele>
  <time>2026-08-28T17:55:34Z</time>
  <course>248.41</course>
  <speed>0.0</speed>
  <fix>3d</fix>
</trkpt>
<trkpt lat="40.0713749" lon="-105.229789">
  <ele>1583.0</ele>
  <time>2026-08-28T17:55:34Z</time>
  <course>0.0</course>
  <speed>0.0</speed>
  <fix>3d</fix>
</trkpt>
<trkpt lat="40.0713749" lon="-105.229789">
  <ele>1583.0</ele>
  <time>2026-08-28T17:55:34Z</time>
  <course>248.41</course>
  <speed>0.0</speed>
  <fix>3d</fix>
</trkpt>
<trkpt lat="40.0713749" lon="-105.229789">
  <ele>1583.0</ele>
  <time>2026-08-28T17:55:34Z</time>
  <course>0.0</course>
  <speed>0.0</speed>
  <fix>3d</fix>
</trkpt>
<trkpt lat="40.0713749" lon="-105.229789">
  <ele>1583.0</ele>
  <time>2026-08-28T17:55:34Z</time>
  <course>248.41</course>
  <speed>0.0</speed>
  <fix>3d</fix>
</trkpt>
<trkpt lat="40.0713749" lon="-105.229789">
  <ele>1583.0</ele>
  <time>2026-08-28T17:55:34Z</time>
  <course>0.0</course>
  <speed>0.0</speed>
  <fix>3d</fix>
</trkpt>
<trkpt lat="40.0713749" lon="-105.229789">
  <ele>1583.0</ele>
  <time>2026-08-28T17:55:34Z</time>
  <course>248.41</course>
  <speed>0.0</speed>
  <fix>3d</fix>
</trkpt>
<trkpt lat="40.0713749" lon="-105.229789">
  <ele>1583.0</ele>
  <time>2026-08-28T17:55:34Z</time>
  <course>0.0</course>
  <speed>0.0</speed>
  <fix>3d</fix>
</trkpt>
<trkpt lat="40.0713749" lon="-105.229789">
  <ele>1583.0</ele>
  <time>2026-08-28T17:55:34Z</time>
  <course>248.41</course>
  <speed>0.0</speed>
  <fix>3d</fix>
</trkpt>
<trkpt lat="40.0713749" lon="-105.229789">
  <ele>1583.0</ele>
  <time>2026-08-28T17:55:34Z</time>
  <course>0.0</course>
  <speed>0.0</speed>
  <fix>3d</fix>
</trkpt>
<trkpt lat="40.0713749" lon="-105.229789">
  <ele>1583.0</ele>
  <time>2026-08-28T17:55:34Z</time>
  <course>248.41</course>
  <speed>0.0</speed>
  <fix>3d</fix>
</trkpt>
<trkpt lat="40.0713749" lon="-105.229789">
  <ele>1583.0</ele>
  <time>2026-08-28T17:55:34Z</time>
  <course>0.0</course>
  <speed>0.0</speed>
  <fix>3d</fix>
</trkpt>
<trkpt lat="40.0713749" lon="-105.229789">
  <ele>1583.0</ele>
  <time>2026-08-28T17:55:34Z</time>
  <course>248.41</course>
  <speed>0.0</speed>
  <fix>3d</fix>
</trkpt>
<trkpt lat="40.0713749" lon="-105.229789">
  <ele>1583.0</ele>
  <time>2026-08-28T17:55:34Z</time>
  <course>0.0</course>
  <speed>0.0</speed>
  <fix>3d</fix>
</trkpt>
<trkpt lat="40.0713749" lon="-105.229789">
  <ele>1583.0</ele>
  <time>2026-08-28T17:55:34Z</time>
  <course>248.4</course>
  <speed>0.0</speed>
  <fix>3d</fix>
</trkpt>
<trkpt lat="40.0713749" lon="-105.229789">
  <ele>1583.0</ele>
  <time>2026-08-28T17:55:34Z</time>
  <course>0.0</course>
  <speed>0.0</speed>
  <fix>3d</fix>
</trkpt>
<trkpt lat="40.0713749" lon="-105.229789">
  <ele>1583.0</ele>
  <time>2026-08-28T17:55:34Z</time>
  <course>248.4</course>
  <speed>0.01</speed>
  <fix>3d</fix>
</trkpt>
<trkpt lat="40.0713749" lon="-105.229789">
  <ele>1583.0</ele>
  <time>2026-08-28T17:55:34Z</time>
  <course>0.0</course>
  <speed>0.0</speed>
  <fix>3d</fix>
</trkpt>
<trkpt lat="40.0713749" lon="-105.229789">
  <ele>1583.0</ele>
  <time>2026-08-28T17:55:34Z</time>
  <course>248.4</course>
  <speed>0.01</speed>
  <fix>3d</fix>
</trkpt>
<trkpt lat="40.0713749" lon="-105.229789">
  <ele>1583.0</ele>
  <time>2026-08-28T17:55:34Z</time>
  <course>0.0</course>
  <speed>0.0</speed>
  <fix>3d</fix>
</trkpt>
<trkpt lat="40.0713749" lon="-105.229789">
  <ele>1583.0</ele>
  <time>2026-08-28T17:55:34Z</time>
  <course>248.4</course>
  <speed>0.01</speed>
  <fix>3d</fix>
</trkpt>
<trkpt lat="40.0713749" lon="-105.229789">
  <ele>1583.0</ele>
  <time>2026-08-28T17:55:34Z</time>
  <course>0.0</course>
  <speed>0.0</speed>
  <fix>3d</fix>
</trkpt>
<trkpt lat="40.0713749" lon="-105.229789">
  <ele>1583.0</ele>
  <time>2026-08-28T17:55:34Z</time>
  <course>248.4</course>
  <speed>0.01</speed>
  <fix>3d</fix>
</trkpt>
<trkpt lat="40.0713749" lon="-105.229789">
  <ele>1583.0</ele>
  <time>2026-08-28T17:55:34Z</time>
  <course>0.0</course>
  <speed>0.0</speed>
  <fix>3d</fix>
</trkpt>
<trkpt lat="40.0713749" lon="-105.229789">
  <ele>1583.0</ele>
  <time>2026-08-28T17:55:34Z</time>
  <course>248.39</course>
  <speed>0.01</speed>
  <fix>3d</fix>
</trkpt>
<trkpt lat="40.0713749" lon="-105.229789">
  <ele>1583.0</ele>
  <time>2026-08-28T17:55:34Z</time>
  <course>0.0</course>
  <speed>0.0</speed>
  <fix>3d</fix>
</trkpt>
<trkpt lat="40.0713749" lon="-105.229789">
  <ele>1583.0</ele>
  <time>2026-08-28T17:55:34Z</time>
  <course>248.39</course>
  <speed>0.01</speed>
  <fix>3d</fix>
</trkpt>
<trkpt lat="40.0713749" lon="-105.229789">
  <ele>1583.0</ele>
  <time>2026-08-28T17:55:34Z</time>
  <course>0.0</course>
  <speed>0.0</speed>
  <fix>3d</fix>
</trkpt>
<trkpt lat="40.0713749" lon="-105.229789">
  <ele>1583.0</ele>
  <time>2026-08-28T17:55:34Z</time>
  <course>248.39</course>
  <speed>0.01</speed>
  <fix>3d</fix>
</trkpt>
<trkpt lat="40.0713749" lon="-105.229789">
  <ele>1583.0</ele>
  <time>2026-08-28T17:55:34Z</time>
  <course>0.0</course>
  <speed>0.0</speed>
  <fix>3d</fix>
</trkpt>
<trkpt lat="40.0713749" lon="-105.229789">
  <ele>1583.0</ele>
  <time>2026-08-28T17:55:34Z</time>
  <course>248.38</course>
  <speed>0.01</speed>
  <fix>3d</fix>
</trkpt>
<trkpt lat="40.0713749" lon="-105.229789">
  <ele>1583.0</ele>
  <time>2026-08-28T17:55:34Z</time>
  <course>0.0</course>
  <speed>0.0</speed>
  <fix>3d</fix>
</trkpt>
<trkpt lat="40.0713749" lon="-105.229789">
  <ele>1583.0</ele>
  <time>2026-08-28T17:55:34Z</time>
  <course>248.38</course>
  <speed>0.01</speed>
  <fix>3d</fix>
</trkpt>
<trkpt lat="40.0713749" lon="-105.229789">
  <ele>1583.0</ele>
  <time>2026-08-28T17:55:34Z</time>
  <course>0.0</course>
  <speed>0.0</speed>
  <fix>3d</fix>
</trkpt>
<trkpt lat="40.0713749" lon="-105.229789">
  <ele>1583.0</ele>
  <time>2026-08-28T17:55:34Z</time>
  <course>248.38</course>
  <speed>0.01</speed>
  <fix>3d</fix>
</trkpt>
<trkpt lat="40.0713749" lon="-105.229789">
  <ele>1583.0</ele>
  <time>2026-08-28T17:55:34Z</time>
  <course>0.0</course>
  <speed>0.0</speed>
  <fix>3d</fix>
</trkpt>
<trkpt lat="40.0713749" lon="-105.229789">
  <ele>1583.0</ele>
  <time>2026-08-28T17:55:34Z</time>
  <course>248.38</course>
  <speed>0.01</speed>
  <fix>3d</fix>
</trkpt>
<trkpt lat="40.0713749" lon="-105.229789">
  <ele>1583.0</ele>
  <time>2026-08-28T17:55:34Z</time>
  <course>0.0</course>
  <speed>0.0</speed>
  <fix>3d</fix>
</trkpt>
<trkpt lat="40.0713749" lon="-105.229789">
  <ele>1583.0</ele>
  <time>2026-08-28T17:55:34Z</time>
  <course>248.37</course>
  <speed>0.01</speed>
  <fix>3d</fix>
</trkpt>
<trkpt lat="40.0713749" lon="-105.229789">
  <ele>1583.0</ele>
  <time>2026-08-28T17:55:34Z</time>
  <course>0.0</course>
  <speed>0.0</speed>
  <fix>3d</fix>
</trkpt>
<trkpt lat="40.0713749" lon="-105.229789">
  <ele>1583.0</ele>
  <time>2026-08-28T17:55:34Z</time>
  <course>248.37</course>
  <speed>0.01</speed>
  <fix>3d</fix>
</trkpt>
<trkpt lat="40.0713749" lon="-105.229789">
  <ele>1583.0</ele>
  <time>2026-08-28T17:55:34Z</time>
  <course>0.0</course>
  <speed>0.0</speed>
  <fix>3d</fix>
</trkpt>
<trkpt lat="40.0713749" lon="-105.229789">
  <ele>1583.0</ele>
  <time>2026-08-28T17:55:34Z</time>
  <course>248.37</course>
  <speed>0.01</speed>
  <fix>3d</fix>
</trkpt>
<trkpt lat="40.0713749" lon="-105.229789">
  <ele>1583.0</ele>
  <time>2026-08-28T17:55:34Z</time>
  <course>0.0</course>
  <speed>0.0</speed>
  <fix>3d</fix>
</trkpt>
<trkpt lat="40.0713749" lon="-105.229789">
  <ele>1583.0</ele>
  <time>2026-08-28T17:55:34Z</time>
  <course>248.36</course>
  <speed>0.01</speed>
  <fix>3d</fix>
</trkpt>
<trkpt lat="40.0713749" lon="-105.229789">
  <ele>1583.0</ele>
  <time>2026-08-28T17:55:34Z</time>
  <course>0.0</course>
  <speed>0.0</speed>
  <fix>3d</fix>
</trkpt>
<trkpt lat="40.0713749" lon="-105.229789">
  <ele>1583.0</ele>
  <time>2026-08-28T17:55:34Z</time>
  <course>248.36</course>
  <speed>0.01</speed>
  <fix>3d</fix>
</trkpt>
<trkpt lat="40.0713749" lon="-105.229789">
  <ele>1583.0</ele>
  <time>2026-08-28T17:55:34Z</time>
  <course>0.0</course>
  <speed>0.0</speed>
  <fix>3d</fix>
</trkpt>
<trkpt lat="40.0713749" lon="-105.229789">
  <ele>1583.0</ele>
  <time>2026-08-28T17:55:34Z</time>
  <course>248.35</course>
  <speed>0.01</speed>
  <fix>3d</fix>
</trkpt>
<trkpt lat="40.0713749" lon="-105.229789">
  <ele>1583.0</ele>
  <time>2026-08-28T17:55:34Z</time>
  <course>0.0</course>
  <speed>0.0</speed>
  <fix>3d</fix>
</trkpt>
<trkpt lat="40.0713749" lon="-105.229789">
  <ele>1583.0</ele>
  <time>2026-08-28T17:55:34Z</time>
  <course>248.35</course>
  <speed>0.01</speed>
  <fix>3d</fix>
</trkpt>
<trkpt lat="40.0713749" lon="-105.229789">
  <ele>1583.0</ele>
  <time>2026-08-28T17:55:34Z</time>
  <course>0.0</course>
  <speed>0.0</speed>
  <fix>3d</fix>
</trkpt>
<trkpt lat="40.0713749" lon="-105.229789">
  <ele>1583.0</ele>
  <time>2026-08-28T17:55:34Z</time>
  <course>248.35</course>
  <speed>0.01</speed>
  <fix>3d</fix>
</trkpt>
<trkpt lat="40.0713749" lon="-105.229789">
  <ele>1583.0</ele>
  <time>2026-08-28T17:55:34Z</time>
  <course>0.0</course>
  <speed>0.0</speed>
  <fix>3d</fix>
</trkpt>
<trkpt lat="40.0713749" lon="-105.229789">
  <ele>1583.0</ele>
  <time>2026-08-28T17:55:34Z</time>
  <course>248.34</course>
  <speed>0.01</speed>
  <fix>3d</fix>
</trkpt>
<trkpt lat="40.0713749" lon="-105.229789">
  <ele>1583.0</ele>
  <time>2026-08-28T17:55:34Z</time>
  <course>0.0</course>
  <speed>0.0</speed>
  <fix>3d</fix>
</trkpt>
<trkpt lat="40.0713749" lon="-105.229789">
  <ele>1583.0</ele>
  <time>2026-08-28T17:55:34Z</time>
  <course>248.34</course>
  <speed>0.01</speed>
  <fix>3d</fix>
</trkpt>
<trkpt lat="40.0713749" lon="-105.229789">
  <ele>1583.0</ele>
  <time>2026-08-28T17:55:34Z</time>
  <course>0.0</course>
  <speed>0.0</speed>
  <fix>3d</fix>
</trkpt>
<trkpt lat="40.0713749" lon="-105.229789">
  <ele>1583.0</ele>
  <time>2026-08-28T17:55:34Z</time>
  <course>248.33</course>
  <speed>0.01</speed>
  <fix>3d</fix>
</trkpt>
<trkpt lat="40.0713749" lon="-105.229789">
  <ele>1583.0</ele>
  <time>2026-08-28T17:55:34Z</time>
  <course>0.0</course>
  <speed>0.0</speed>
  <fix>3d</fix>
</trkpt>
<trkpt lat="40.0713749" lon="-105.229789">
  <ele>1583.0</ele>
  <time>2026-08-28T17:55:34Z</time>
  <course>248.33</course>
  <speed>0.01</speed>
  <fix>3d</fix>
</trkpt>
<trkpt lat="40.0713749" lon="-105.229789">
  <ele>1583.0</ele>
  <time>2026-08-28T17:55:34Z</time>
  <course>0.0</course>
  <speed>0.0</speed>
  <fix>3d</fix>
</trkpt>
<trkpt lat="40.0713749" lon="-105.229789">
  <ele>1583.0</ele>
  <time>2026-08-28T17:55:34Z</time>
  <course>248.32</course>
  <speed>0.01</speed>
  <fix>3d</fix>
</trkpt>
<trkpt lat="40.0713749" lon="-105.229789">
  <ele>1583.0</ele>
  <time>2026-08-28T17:55:34Z</time>
  <course>0.0</course>
  <speed>0.0</speed>
  <fix>3d</fix>
</trkpt>
<trkpt lat="40.0713749" lon="-105.229789">
  <ele>1583.0</ele>
  <time>2026-08-28T17:55:34Z</time>
  <course>248.32</course>
  <speed>0.01</speed>
  <fix>3d</fix>
</trkpt>
<trkpt lat="40.0713749" lon="-105.229789">
  <ele>1583.0</ele>
  <time>2026-08-28T17:55:34Z</time>
  <course>0.0</course>
  <speed>0.0</speed>
  <fix>3d</fix>
</trkpt>
<trkpt lat="40.0713749" lon="-105.229789">
  <ele>1583.0</ele>
  <time>2026-08-28T17:55:34Z</time>
  <course>248.32</course>
  <speed>0.01</speed>
  <fix>3d</fix>
</trkpt>
<trkpt lat="40.0713749" lon="-105.229789">
  <ele>1583.0</ele>
  <time>2026-08-28T17:55:34Z</time>
  <course>0.0</course>
  <speed>0.0</speed>
  <fix>3d</fix>
</trkpt>
<trkpt lat="40.0713749" lon="-105.229789">
  <ele>1583.0</ele>
  <time>2026-08-28T17:55:34Z</time>
  <course>248.31</course>
  <speed>0.01</speed>
  <fix>3d</fix>
</trkpt>
<trkpt lat="40.0713749" lon="-105.229789">
  <ele>1583.0</ele>
  <time>2026-08-28T17:55:34Z</time>
  <course>0.0</course>
  <speed>0.0</speed>
  <fix>3d</fix>
</trkpt>
<trkpt lat="40.0713749" lon="-105.229789">
  <ele>1583.0</ele>
  <time>2026-08-28T17:55:34Z</time>
  <course>248.31</course>
  <speed>0.01</speed>
  <fix>3d</fix>
</trkpt>
<trkpt lat="40.0713749" lon="-105.229789">
  <ele>1583.0</ele>
  <time>2026-08-28T17:55:34Z</time>
  <course>0.0</course>
  <speed>0.0</speed>
  <fix>3d</fix>
</trkpt>
<trkpt lat="40.0713749" lon="-105.229789">
  <ele>1583.0</ele>
  <time>2026-08-28T17:55:34Z</time>
  <course>248.3</course>
  <speed>0.01</speed>
  <fix>3d</fix>
</trkpt>
<trkpt lat="40.0713749" lon="-105.229789">
  <ele>1583.0</ele>
  <time>2026-08-28T17:55:34Z</time>
  <course>0.0</course>
  <speed>0.0</speed>
  <fix>3d</fix>
</trkpt>
<trkpt lat="40.0713749" lon="-105.229789">
  <ele>1583.0</ele>
  <time>2026-08-28T17:55:34Z</time>
  <course>248.3</course>
  <speed>0.01</speed>
  <fix>3d</fix>
</trkpt>
<trkpt lat="40.0713749" lon="-105.229789">
  <ele>1583.0</ele>
  <time>2026-08-28T17:55:34Z</time>
  <course>0.0</course>
  <speed>0.0</speed>
  <fix>3d</fix>
</trkpt>
<trkpt lat="40.0713749" lon="-105.229789">
  <ele>1583.0</ele>
  <time>2026-08-28T17:55:34Z</time>
  <course>248.29</course>
  <speed>0.01</speed>
  <fix>3d</fix>
</trkpt>
<trkpt lat="40.0713749" lon="-105.229789">
  <ele>1583.0</ele>
  <time>2026-08-28T17:55:34Z</time>
  <course>0.0</course>
  <speed>0.0</speed>
  <fix>3d</fix>
</trkpt>
<trkpt lat="40.0713749" lon="-105.229789">
  <ele>1583.0</ele>
  <time>2026-08-28T17:55:34Z</time>
  <course>248.29</course>
  <speed>0.01</speed>
  <fix>3d</fix>
</trkpt>
<trkpt lat="40.0713749" lon="-105.229789">
  <ele>1583.0</ele>
  <time>2026-08-28T17:55:34Z</time>
  <course>0.0</course>
  <speed>0.0</speed>
  <fix>3d</fix>
</trkpt>
<trkpt lat="40.0713749" lon="-105.229789">
  <ele>1583.0</ele>
  <time>2026-08-28T17:55:34Z</time>
  <course>248.28</course>
  <speed>0.01</speed>
  <fix>3d</fix>
</trkpt>
<trkpt lat="40.0713749" lon="-105.229789">
  <ele>1583.0</ele>
  <time>2026-08-28T17:55:34Z</time>
  <course>0.0</course>
  <speed>0.0</speed>
  <fix>3d</fix>
</trkpt>
<trkpt lat="40.0713749" lon="-105.229789">
  <ele>1583.0</ele>
  <time>2026-08-28T17:55:34Z</time>
  <course>248.28</course>
  <speed>0.01</speed>
  <fix>3d</fix>
</trkpt>
<trkpt lat="40.0713749" lon="-105.229789">
  <ele>1583.0</ele>
  <time>2026-08-28T17:55:34Z</time>
  <course>0.0</course>
  <speed>0.0</speed>
  <fix>3d</fix>
</trkpt>
<trkpt lat="40.0713749" lon="-105.229789">
  <ele>1583.0</ele>
  <time>2026-08-28T17:55:34Z</time>
  <course>248.27</course>
  <speed>0.01</speed>
  <fix>3d</fix>
</trkpt>
<trkpt lat="40.0713749" lon="-105.229789">
  <ele>1583.0</ele>
  <time>2026-08-28T17:55:34Z</time>
  <course>0.0</course>
  <speed>0.0</speed>
  <fix>3d</fix>
</trkpt>
<trkpt lat="40.0713749" lon="-105.229789">
  <ele>1583.0</ele>
  <time>2026-08-28T17:55:34Z</time>
  <course>248.27</course>
  <speed>0.01</speed>
  <fix>3d</fix>
</trkpt>
<trkpt lat="40.0713749" lon="-105.229789">
  <ele>1583.0</ele>
  <time>2026-08-28T17:55:34Z</time>
  <course>0.0</course>
  <speed>0.0</speed>
  <fix>3d</fix>
</trkpt>
<trkpt lat="40.0713749" lon="-105.229789">
  <ele>1583.0</ele>
  <time>2026-08-28T17:55:34Z</time>
  <course>248.27</course>
  <speed>0.01</speed>
  <fix>3d</fix>
</trkpt>
<trkpt lat="40.0713749" lon="-105.229789">
  <ele>1583.0</ele>
  <time>2026-08-28T17:55:34Z</time>
  <course>0.0</course>
  <speed>0.0</speed>
  <fix>3d</fix>
</trkpt>
<trkpt lat="40.0713749" lon="-105.229789">
  <ele>1583.0</ele>
  <time>2026-08-28T17:55:34Z</time>
  <course>248.26</course>
  <speed>0.01</speed>
  <fix>3d</fix>
</trkpt>
<trkpt lat="40.0713749" lon="-105.229789">
  <ele>1583.0</ele>
  <time>2026-08-28T17:55:34Z</time>
  <course>0.0</course>
  <speed>0.0</speed>
  <fix>3d</fix>
</trkpt>
<trkpt lat="40.0713749" lon="-105.229789">
  <ele>1583.0</ele>
  <time>2026-08-28T17:55:34Z</time>
  <course>248.26</course>
  <speed>0.01</speed>
  <fix>3d</fix>
</trkpt>
<trkpt lat="40.0713749" lon="-105.229789">
  <ele>1583.0</ele>
  <time>2026-08-28T17:55:34Z</time>
  <course>0.0</course>
  <speed>0.0</speed>
  <fix>3d</fix>
</trkpt>
<trkpt lat="40.0713749" lon="-105.229789">
  <ele>1583.0</ele>
  <time>2026-08-28T17:55:34Z</time>
  <course>248.25</course>
  <speed>0.01</speed>
  <fix>3d</fix>
</trkpt>
<trkpt lat="40.0713749" lon="-105.229789">
  <ele>1583.0</ele>
  <time>2026-08-28T17:55:34Z</time>
  <course>0.0</course>
  <speed>0.0</speed>
  <fix>3d</fix>
</trkpt>
<trkpt lat="40.0713749" lon="-105.229789">
  <ele>1583.0</ele>
  <time>2026-08-28T17:55:34Z</time>
  <course>248.25</course>
  <speed>0.01</speed>
  <fix>3d</fix>
</trkpt>
<trkpt lat="40.0713749" lon="-105.229789">
  <ele>1583.0</ele>
  <time>2026-08-28T17:55:34Z</time>
  <course>0.0</course>
  <speed>0.0</speed>
  <fix>3d</fix>
</trkpt>
<trkpt lat="40.0713749" lon="-105.229789">
  <ele>1583.0</ele>
  <time>2026-08-28T17:55:34Z</time>
  <course>248.24</course>
  <speed>0.01</speed>
  <fix>3d</fix>
</trkpt>
<trkpt lat="40.0713749" lon="-105.229789">
  <ele>1583.0</ele>
  <time>2026-08-28T17:55:34Z</time>
  <course>0.0</course>
  <speed>0.0</speed>
  <fix>3d</fix>
</trkpt>
<trkpt lat="40.0713749" lon="-105.229789">
  <ele>1583.0</ele>
  <time>2026-08-28T17:55:34Z</time>
  <course>248.24</course>
  <speed>0.01</speed>
  <fix>3d</fix>
</trkpt>
<trkpt lat="40.0713749" lon="-105.229789">
  <ele>1583.0</ele>
  <time>2026-08-28T17:55:34Z</time>
  <course>0.0</course>
  <speed>0.0</speed>
  <fix>3d</fix>
</trkpt>
<trkpt lat="40.0713749" lon="-105.229789">
  <ele>1583.0</ele>
  <time>2026-08-28T17:55:34Z</time>
  <course>248.23</course>
  <speed>0.01</speed>
  <fix>3d</fix>
</trkpt>
<trkpt lat="40.0713749" lon="-105.229789">
  <ele>1583.0</ele>
  <time>2026-08-28T17:55:34Z</time>
  <course>0.0</course>
  <speed>0.0</speed>
  <fix>3d</fix>
</trkpt>
<trkpt lat="40.0713749" lon="-105.229789">
  <ele>1583.0</ele>
  <time>2026-08-28T17:55:34Z</time>
  <course>248.23</course>
  <speed>0.01</speed>
  <fix>3d</fix>
</trkpt>
<trkpt lat="40.0713749" lon="-105.229789">
  <ele>1583.0</ele>
  <time>2026-08-28T17:55:34Z</time>
  <course>0.0</course>
  <speed>0.0</speed>
  <fix>3d</fix>
</trkpt>
<trkpt lat="40.0713749" lon="-105.229789">
  <ele>1583.0</ele>
  <time>2026-08-28T17:55:34Z</time>
  <course>248.22</course>
  <speed>0.01</speed>
  <fix>3d</fix>
</trkpt>
<trkpt lat="40.0713749" lon="-105.229789">
  <ele>1583.0</ele>
  <time>2026-08-28T17:55:34Z</time>
  <course>0.0</course>
  <speed>0.0</speed>
  <fix>3d</fix>
</trkpt>
<trkpt lat="40.0713749" lon="-105.229789">
  <ele>1583.0</ele>
  <time>2026-08-28T17:55:34Z</time>
  <course>248.22</course>
  <speed>0.01</speed>
  <fix>3d</fix>
</trkpt>
<trkpt lat="40.0713749" lon="-105.229789">
  <ele>1583.0</ele>
  <time>2026-08-28T17:55:34Z</time>
  <course>0.0</course>
  <speed>0.0</speed>
  <fix>3d</fix>
</trkpt>
<trkpt lat="40.0713749" lon="-105.229789">
  <ele>1583.0</ele>
  <time>2026-08-28T17:55:34Z</time>
  <course>248.21</course>
  <speed>0.01</speed>
  <fix>3d</fix>
</trkpt>
<trkpt lat="40.0713749" lon="-105.229789">
  <ele>1583.0</ele>
  <time>2026-08-28T17:55:34Z</time>
  <course>0.0</course>
  <speed>0.0</speed>
  <fix>3d</fix>
</trkpt>
<trkpt lat="40.0713749" lon="-105.229789">
  <ele>1583.0</ele>
  <time>2026-08-28T17:55:34Z</time>
  <course>248.21</course>
  <speed>0.01</speed>
  <fix>3d</fix>
</trkpt>
<trkpt lat="40.0713749" lon="-105.229789">
  <ele>1583.0</ele>
  <time>2026-08-28T17:55:34Z</time>
  <course>0.0</course>
  <speed>0.0</speed>
  <fix>3d</fix>
</trkpt>
<trkpt lat="40.0713749" lon="-105.229789">
  <ele>1583.0</ele>
  <time>2026-08-28T17:55:34Z</time>
  <course>248.2</course>
  <speed>0.01</speed>
  <fix>3d</fix>
</trkpt>
<trkpt lat="40.0713749" lon="-105.229789">
  <ele>1583.0</ele>
  <time>2026-08-28T17:55:34Z</time>
  <course>0.0</course>
  <speed>0.0</speed>
  <fix>3d</fix>
</trkpt>
<trkpt lat="40.0713749" lon="-105.229789">
  <ele>1583.0</ele>
  <time>2026-08-28T17:55:34Z</time>
  <course>248.2</course>
  <speed>0.01</speed>
  <fix>3d</fix>
</trkpt>
<trkpt lat="40.0713749" lon="-105.229789">
  <ele>1583.0</ele>
  <time>2026-08-28T17:55:34Z</time>
  <course>0.0</course>
  <speed>0.0</speed>
  <fix>3d</fix>
</trkpt>
<trkpt lat="40.0713749" lon="-105.229789">
  <ele>1583.0</ele>
  <time>2026-08-28T17:55:34Z</time>
  <course>248.19</course>
  <speed>0.01</speed>
  <fix>3d</fix>
</trkpt>
<trkpt lat="40.0713749" lon="-105.229789">
  <ele>1583.0</ele>
  <time>2026-08-28T17:55:34Z</time>
  <course>0.0</course>
  <speed>0.0</speed>
  <fix>3d</fix>
</trkpt>
<trkpt lat="40.0713749" lon="-105.229789">
  <ele>1583.0</ele>
  <time>2026-08-28T17:55:34Z</time>
  <course>248.19</course>
  <speed>0.01</speed>
  <fix>3d</fix>
</trkpt>
<trkpt lat="40.0713749" lon="-105.229789">
  <ele>1583.0</ele>
  <time>2026-08-28T17:55:34Z</time>
  <course>0.0</course>
  <speed>0.0</speed>
  <fix>3d</fix>
</trkpt>
<trkpt lat="40.0713749" lon="-105.229789">
  <ele>1583.0</ele>
  <time>2026-08-28T17:55:34Z</time>
  <course>248.18</course>
  <speed>0.01</speed>
  <fix>3d</fix>
</trkpt>
<trkpt lat="40.0713749" lon="-105.229789">
  <ele>1583.0</ele>
  <time>2026-08-28T17:55:34Z</time>
  <course>0.0</course>
  <speed>0.0</speed>
  <fix>3d</fix>
</trkpt>
<trkpt lat="40.0713749" lon="-105.229789">
  <ele>1583.0</ele>
  <time>2026-08-28T17:55:34Z</time>
  <course>248.18</course>
  <speed>0.01</speed>
  <fix>3d</fix>
</trkpt>
<trkpt lat="40.0713749" lon="-105.229789">
  <ele>1583.0</ele>
  <time>2026-08-28T17:55:34Z</time>
  <course>0.0</course>
  <speed>0.0</speed>
  <fix>3d</fix>
</trkpt>
<trkpt lat="40.0713749" lon="-105.229789">
  <ele>1583.0</ele>
  <time>2026-08-28T17:55:34Z</time>
  <course>248.17</course>
  <speed>0.022360679774997897</speed>
  <fix>3d</fix>
</trkpt>
<trkpt lat="40.0713749" lon="-105.229789">
  <ele>1583.0</ele>
  <time>2026-08-28T17:55:34Z</time>
  <course>0.0</course>
  <speed>0.0</speed>
  <fix>3d</fix>
</trkpt>
<trkpt lat="40.0713749" lon="-105.229789">
  <ele>1583.0</ele>
  <time>2026-08-28T17:55:34Z</time>
  <course>248.17</course>
  <speed>0.022360679774997897</speed>
  <fix>3d</fix>
</trkpt>
<trkpt lat="40.0713749" lon="-105.229789">
  <ele>1583.0</ele>
  <time>2026-08-28T17:55:34Z</time>
  <course>0.0</course>
  <speed>0.0</speed>
  <fix>3d</fix>
</trkpt>
<trkpt lat="40.0713749" lon="-105.229789">
  <ele>1583.0</ele>
  <time>2026-08-28T17:55:34Z</time>
  <course>248.16</course>
  <speed>0.022360679774997897</speed>
  <fix>3d</fix>
</trkpt>
<trkpt lat="40.0713749" lon="-105.229789">
  <ele>1583.0</ele>
  <time>2026-08-28T17:55:34Z</time>
  <course>0.0</course>
  <speed>0.0</speed>
  <fix>3d</fix>
</trkpt>
<trkpt lat="40.0713749" lon="-105.229789">
  <ele>1583.0</ele>
  <time>2026-08-28T17:55:34Z</time>
  <course>248.16</course>
  <speed>0.022360679774997897</speed>
  <fix>3d</fix>
</trkpt>
<trkpt lat="40.0713749" lon="-105.229789">
  <ele>1583.0</ele>
  <time>2026-08-28T17:55:34Z</time>
  <course>0.0</course>
  <speed>0.0</speed>
  <fix>3d</fix>
</trkpt>
<trkpt lat="40.0713749" lon="-105.229789">
  <ele>1583.0</ele>
  <time>2026-08-28T17:55:34Z</time>
  <course>248.15</course>
  <speed>0.022360679774997897</speed>
  <fix>3d</fix>
</trkpt>
<trkpt lat="40.0713749" lon="-105.229789">
  <ele>1583.0</ele>
  <time>2026-08-28T17:55:34Z</time>
  <course>0.0</course>
  <speed>0.0</speed>
  <fix>3d</fix>
</trkpt>
<trkpt lat="40.0713749" lon="-105.229789">
  <ele>1583.0</ele>
  <time>2026-08-28T17:55:34Z</time>
  <course>248.15</course>
  <speed>0.022360679774997897</speed>
  <fix>3d</fix>
</trkpt>
<trkpt lat="40.0713749" lon="-105.229789">
  <ele>1583.0</ele>
  <time>2026-08-28T17:55:34Z</time>
  <course>0.0</course>
  <speed>0.0</speed>
  <fix>3d</fix>
</trkpt>
<trkpt lat="40.0713749" lon="-105.229789">
  <ele>1583.0</ele>
  <time>2026-08-28T17:55:34Z</time>
  <course>248.14</course>
  <speed>0.022360679774997897</speed>
  <fix>3d</fix>
</trkpt>
<trkpt lat="40.0713749" lon="-105.229789">
  <ele>1583.0</ele>
  <time>2026-08-28T17:55:34Z</time>
  <course>0.0</course>
  <speed>0.0</speed>
  <fix>3d</fix>
</trkpt>
<trkpt lat="40.0713749" lon="-105.229789">
  <ele>1583.0</ele>
  <time>2026-08-28T17:55:34Z</time>
  <course>248.14</course>
  <speed>0.022360679774997897</speed>
  <fix>3d</fix>
</trkpt>
<trkpt lat="40.0713749" lon="-105.229789">
  <ele>1583.0</ele>
  <time>2026-08-28T17:55:34Z</time>
  <course>0.0</course>
  <speed>0.0</speed>
  <fix>3d</fix>
</trkpt>
<trkpt lat="40.0713749" lon="-105.229789">
  <ele>1583.0</ele>
  <time>2026-08-28T17:55:34Z</time>
  <course>248.13</course>
  <speed>0.022360679774997897</speed>
  <fix>3d</fix>
</trkpt>
<trkpt lat="40.0713749" lon="-105.229789">
  <ele>1583.0</ele>
  <time>2026-08-28T17:55:34Z</time>
  <course>0.0</course>
  <speed>0.0</speed>
  <fix>3d</fix>
</trkpt>
<trkpt lat="40.0713749" lon="-105.229789">
  <ele>1583.0</ele>
  <time>2026-08-28T17:55:34Z</time>
  <course>248.13</course>
  <speed>0.022360679774997897</speed>
  <fix>3d</fix>
</trkpt>
<trkpt lat="40.0713749" lon="-105.229789">
  <ele>1583.0</ele>
  <time>2026-08-28T17:55:34Z</time>
  <course>0.0</course>
  <speed>0.0</speed>
  <fix>3d</fix>
</trkpt>
<trkpt lat="40.0713749" lon="-105.229789">
  <ele>1583.0</ele>
  <time>2026-08-28T17:55:34Z</time>
  <course>248.12</course>
  <speed>0.022360679774997897</speed>
  <fix>3d</fix>
</trkpt>
<trkpt lat="40.0713749" lon="-105.229789">
  <ele>1583.0</ele>
  <time>2026-08-28T17:55:34Z</time>
  <course>0.0</course>
  <speed>0.0</speed>
  <fix>3d</fix>
</trkpt>
<trkpt lat="40.0713749" lon="-105.229789">
  <ele>1583.0</ele>
  <time>2026-08-28T17:55:34Z</time>
  <course>248.12</course>
  <speed>0.022360679774997897</speed>
  <fix>3d</fix>
</trkpt>
<trkpt lat="40.0713749" lon="-105.229789">
  <ele>1583.0</ele>
  <time>2026-08-28T17:55:34Z</time>
  <course>0.0</course>
  <speed>0.0</speed>
  <fix>3d</fix>
</trkpt>
<trkpt lat="40.0713749" lon="-105.229789">
  <ele>1583.0</ele>
  <time>2026-08-28T17:55:34Z</time>
  <course>248.11</course>
  <speed>0.022360679774997897</speed>
  <fix>3d</fix>
</trkpt>
<trkpt lat="40.0713749" lon="-105.229789">
  <ele>1583.0</ele>
  <time>2026-08-28T17:55:34Z</time>
  <course>0.0</course>
  <speed>0.0</speed>
  <fix>3d</fix>
</trkpt>
<trkpt lat="40.0713749" lon="-105.229789">
  <ele>1583.0</ele>
  <time>2026-08-28T17:55:34Z</time>
  <course>248.11</course>
  <speed>0.022360679774997897</speed>
  <fix>3d</fix>
</trkpt>
<trkpt lat="40.0713749" lon="-105.229789">
  <ele>1583.0</ele>
  <time>2026-08-28T17:55:34Z</time>
  <course>0.0</course>
  <speed>0.0</speed>
  <fix>3d</fix>
</trkpt>
<trkpt lat="40.0713749" lon="-105.229789">
  <ele>1583.0</ele>
  <time>2026-08-28T17:55:34Z</time>
  <course>248.1</course>
  <speed>0.022360679774997897</speed>
  <fix>3d</fix>
</trkpt>
<trkpt lat="40.0713749" lon="-105.229789">
  <ele>1583.0</ele>
  <time>2026-08-28T17:55:34Z</time>
  <course>0.0</course>
  <speed>0.0</speed>
  <fix>3d</fix>
</trkpt>
<trkpt lat="40.0713749" lon="-105.229789">
  <ele>1583.0</ele>
  <time>2026-08-28T17:55:34Z</time>
  <course>248.1</course>
  <speed>0.022360679774997897</speed>
  <fix>3d</fix>
</trkpt>
<trkpt lat="40.0713749" lon="-105.229789">
  <ele>1583.0</ele>
  <time>2026-08-28T17:55:34Z</time>
  <course>0.0</course>
  <speed>0.0</speed>
  <fix>3d</fix>
</trkpt>
<trkpt lat="40.0713749" lon="-105.229789">
  <ele>1583.0</ele>
  <time>2026-08-28T17:55:34Z</time>
  <course>248.09</course>
  <speed>0.022360679774997897</speed>
  <fix>3d</fix>
</trkpt>
<trkpt lat="40.0713749" lon="-105.229789">
  <ele>1583.0</ele>
  <time>2026-08-28T17:55:34Z</time>
  <course>0.0</course>
  <speed>0.0</speed>
  <fix>3d</fix>
</trkpt>
<trkpt lat="40.0713749" lon="-105.229789">
  <ele>1583.0</ele>
  <time>2026-08-28T17:55:34Z</time>
  <course>248.09</course>
  <speed>0.022360679774997897</speed>
  <fix>3d</fix>
</trkpt>
<trkpt lat="40.0713749" lon="-105.229789">
  <ele>1583.0</ele>
  <time>2026-08-28T17:55:34Z</time>
  <course>0.0</course>
  <speed>0.0</speed>
  <fix>3d</fix>
</trkpt>
<trkpt lat="40.0713749" lon="-105.229789">
  <ele>1583.0</ele>
  <time>2026-08-28T17:55:34Z</time>
  <course>248.08</course>
  <speed>0.022360679774997897</speed>
  <fix>3d</fix>
</trkpt>
<trkpt lat="40.0713749" lon="-105.229789">
  <ele>1583.0</ele>
  <time>2026-08-28T17:55:34Z</time>
  <course>0.0</course>
  <speed>0.0</speed>
  <fix>3d</fix>
</trkpt>
<trkpt lat="40.0713749" lon="-105.229789">
  <ele>1583.0</ele>
  <time>2026-08-28T17:55:34Z</time>
  <course>248.08</course>
  <speed>0.022360679774997897</speed>
  <fix>3d</fix>
</trkpt>
<trkpt lat="40.0713749" lon="-105.229789">
  <ele>1583.0</ele>
  <time>2026-08-28T17:55:34Z</time>
  <course>0.0</course>
  <speed>0.0</speed>
  <fix>3d</fix>
</trkpt>
<trkpt lat="40.0713749" lon="-105.229789">
  <ele>1583.0</ele>
  <time>2026-08-28T17:55:34Z</time>
  <course>248.07</course>
  <speed>0.022360679774997897</speed>
  <fix>3d</fix>
</trkpt>
<trkpt lat="40.0713749" lon="-105.229789">
  <ele>1583.0</ele>
  <time>2026-08-28T17:55:34Z</time>
  <course>0.0</course>
  <speed>0.0</speed>
  <fix>3d</fix>
</trkpt>
<trkpt lat="40.0713749" lon="-105.229789">
  <ele>1583.0</ele>
  <time>2026-08-28T17:55:34Z</time>
  <course>248.07</course>
  <speed>0.022360679774997897</speed>
  <fix>3d</fix>
</trkpt>
<trkpt lat="40.0713749" lon="-105.229789">
  <ele>1583.0</ele>
  <time>2026-08-28T17:55:34Z</time>
  <course>0.0</course>
  <speed>0.0</speed>
  <fix>3d</fix>
</trkpt>
<trkpt lat="40.0713749" lon="-105.229789">
  <ele>1583.0</ele>
  <time>2026-08-28T17:55:34Z</time>
  <course>248.06</course>
  <speed>0.022360679774997897</speed>
  <fix>3d</fix>
</trkpt>
<trkpt lat="40.0713749" lon="-105.229789">
  <ele>1583.0</ele>
  <time>2026-08-28T17:55:34Z</time>
  <course>0.0</course>
  <speed>0.0</speed>
  <fix>3d</fix>
</trkpt>
<trkpt lat="40.0713749" lon="-105.229789">
  <ele>1583.0</ele>
  <time>2026-08-28T17:55:34Z</time>
  <course>248.06</course>
  <speed>0.022360679774997897</speed>
  <fix>3d</fix>
</trkpt>
<trkpt lat="40.0713749" lon="-105.229789">
  <ele>1583.0</ele>
  <time>2026-08-28T17:55:34Z</time>
  <course>0.0</course>
  <speed>0.0</speed>
  <fix>3d</fix>
</trkpt>
<trkpt lat="40.0713749" lon="-105.229789">
  <ele>1583.0</ele>
  <time>2026-08-28T17:55:34Z</time>
  <course>248.05</course>
  <speed>0.022360679774997897</speed>
  <fix>3d</fix>
</trkpt>
<trkpt lat="40.0713749" lon="-105.229789">
  <ele>1583.0</ele>
  <time>2026-08-28T17:55:34Z</time>
  <course>0.0</course>
  <speed>0.0</speed>
  <fix>3d</fix>
</trkpt>
<trkpt lat="40.0713749" lon="-105.229789">
  <ele>1583.0</ele>
  <time>2026-08-28T17:55:34Z</time>
  <course>248.05</course>
  <speed>0.022360679774997897</speed>
  <fix>3d</fix>
</trkpt>
<trkpt lat="40.0713749" lon="-105.229789">
  <ele>1583.0</ele>
  <time>2026-08-28T17:55:34Z</time>
  <course>0.0</course>
  <speed>0.0</speed>
  <fix>3d</fix>
</trkpt>
<trkpt lat="40.0713749" lon="-105.229789">
  <ele>1583.0</ele>
  <time>2026-08-28T17:55:34Z</time>
  <course>248.05</course>
  <speed>0.022360679774997897</speed>
  <fix>3d</fix>
</trkpt>
<trkpt lat="40.0713749" lon="-105.229789">
  <ele>1583.0</ele>
  <time>2026-08-28T17:55:34Z</time>
  <course>0.0</course>
  <speed>0.0</speed>
  <fix>3d</fix>
</trkpt>
<trkpt lat="40.0713749" lon="-105.229789">
  <ele>1583.0</ele>
  <time>2026-08-28T17:55:34Z</time>
  <course>248.04</course>
  <speed>0.022360679774997897</speed>
  <fix>3d</fix>
</trkpt>
<trkpt lat="40.0713749" lon="-105.229789">
  <ele>1583.0</ele>
  <time>2026-08-28T17:55:34Z</time>
  <course>0.0</course>
  <speed>0.0</speed>
  <fix>3d</fix>
</trkpt>
<trkpt lat="40.0713749" lon="-105.229789">
  <ele>1583.0</ele>
  <time>2026-08-28T17:55:34Z</time>
  <course>248.04</course>
  <speed>0.022360679774997897</speed>
  <fix>3d</fix>
</trkpt>
<trkpt lat="40.0713749" lon="-105.229789">
  <ele>1583.0</ele>
  <time>2026-08-28T17:55:34Z</time>
  <course>0.0</course>
  <speed>0.0</speed>
  <fix>3d</fix>
</trkpt>
<trkpt lat="40.0713749" lon="-105.229789">
  <ele>1583.0</ele>
  <time>2026-08-28T17:55:34Z</time>
  <course>248.03</course>
  <speed>0.022360679774997897</speed>
  <fix>3d</fix>
</trkpt>
<trkpt lat="40.0713749" lon="-105.229789">
  <ele>1583.0</ele>
  <time>2026-08-28T17:55:34Z</time>
  <course>0.0</course>
  <speed>0.0</speed>
  <fix>3d</fix>
</trkpt>
<trkpt lat="40.0713749" lon="-105.229789">
  <ele>1583.0</ele>
  <time>2026-08-28T17:55:34Z</time>
  <course>248.03</course>
  <speed>0.022360679774997897</speed>
  <fix>3d</fix>
</trkpt>
<trkpt lat="40.0713749" lon="-105.229789">
  <ele>1583.0</ele>
  <time>2026-08-28T17:55:34Z</time>
  <course>0.0</course>
  <speed>0.0</speed>
  <fix>3d</fix>
</trkpt>
<trkpt lat="40.0713749" lon="-105.229789">
  <ele>1583.0</ele>
  <time>2026-08-28T17:55:34Z</time>
  <course>248.02</course>
  <speed>0.022360679774997897</speed>
  <fix>3d</fix>
</trkpt>
<trkpt lat="40.0713749" lon="-105.229789">
  <ele>1583.0</ele>
  <time>2026-08-28T17:55:34Z</time>
  <course>0.0</course>
  <speed>0.0</speed>
  <fix>3d</fix>
</trkpt>
<trkpt lat="40.0713749" lon="-105.229789">
  <ele>1583.0</ele>
  <time>2026-08-28T17:55:34Z</time>
  <course>248.02</course>
  <speed>0.022360679774997897</speed>
  <fix>3d</fix>
</trkpt>
<trkpt lat="40.0713749" lon="-105.229789">
  <ele>1583.0</ele>
  <time>2026-08-28T17:55:34Z</time>
  <course>0.0</course>
  <speed>0.0</speed>
  <fix>3d</fix>
</trkpt>
<trkpt lat="40.0713749" lon="-105.229789">
  <ele>1583.0</ele>
  <time>2026-08-28T17:55:34Z</time>
  <course>248.01</course>
  <speed>0.022360679774997897</speed>
  <fix>3d</fix>
</trkpt>
<trkpt lat="40.0713749" lon="-105.229789">
  <ele>1583.0</ele>
  <time>2026-08-28T17:55:34Z</time>
  <course>0.0</course>
  <speed>0.0</speed>
  <fix>3d</fix>
</trkpt>
<trkpt lat="40.0713749" lon="-105.229789">
  <ele>1583.0</ele>
  <time>2026-08-28T17:55:34Z</time>
  <course>248.01</course>
  <speed>0.022360679774997897</speed>
  <fix>3d</fix>
</trkpt>
<trkpt lat="40.0713749" lon="-105.229789">
  <ele>1583.0</ele>
  <time>2026-08-28T17:55:34Z</time>
  <course>0.0</course>
  <speed>0.0</speed>
  <fix>3d</fix>
</trkpt>
<trkpt lat="40.0713749" lon="-105.229789">
  <ele>1583.0</ele>
  <time>2026-08-28T17:55:34Z</time>
  <course>248.0</course>
  <speed>0.022360679774997897</speed>
  <fix>3d</fix>
</trkpt>
<trkpt lat="40.0713749" lon="-105.229789">
  <ele>1583.0</ele>
  <time>2026-08-28T17:55:34Z</time>
  <course>0.0</course>
  <speed>0.0</speed>
  <fix>3d</fix>
</trkpt>
<trkpt lat="40.0713749" lon="-105.229789">
  <ele>1583.0</ele>
  <time>2026-08-28T17:55:34Z</time>
  <course>248.0</course>
  <speed>0.022360679774997897</speed>
  <fix>3d</fix>
</trkpt>
<trkpt lat="40.0713749" lon="-105.229789">
  <ele>1583.0</ele>
  <time>2026-08-28T17:55:34Z</time>
  <course>0.0</course>
  <speed>0.0</speed>
  <fix>3d</fix>
</trkpt>
<trkpt lat="40.0713749" lon="-105.229789">
  <ele>1583.0</ele>
  <time>2026-08-28T17:55:34Z</time>
  <course>247.99</course>
  <speed>0.022360679774997897</speed>
  <fix>3d</fix>
</trkpt>
<trkpt lat="40.0713749" lon="-105.229789">
  <ele>1583.0</ele>
  <time>2026-08-28T17:55:34Z</time>
  <course>0.0</course>
  <speed>0.0</speed>
  <fix>3d</fix>
</trkpt>
<trkpt lat="40.0713749" lon="-105.229789">
  <ele>1583.0</ele>
  <time>2026-08-28T17:55:34Z</time>
  <course>247.99</course>
  <speed>0.022360679774997897</speed>
  <fix>3d</fix>
</trkpt>
<trkpt lat="40.0713749" lon="-105.229789">
  <ele>1583.0</ele>
  <time>2026-08-28T17:55:34Z</time>
  <course>0.0</course>
  <speed>0.0</speed>
  <fix>3d</fix>
</trkpt>
<trkpt lat="40.0713749" lon="-105.229789">
  <ele>1583.0</ele>
  <time>2026-08-28T17:55:34Z</time>
  <course>247.99</course>
  <speed>0.022360679774997897</speed>
  <fix>3d</fix>
</trkpt>
<trkpt lat="40.0713749" lon="-105.229789">
  <ele>1583.0</ele>
  <time>2026-08-28T17:55:34Z</time>
  <course>0.0</course>
  <speed>0.0</speed>
  <fix>3d</fix>
</trkpt>
<trkpt lat="40.0713749" lon="-105.229789">
  <ele>1583.0</ele>
  <time>2026-08-28T17:55:34Z</time>
  <course>247.98</course>
  <speed>0.022360679774997897</speed>
  <fix>3d</fix>
</trkpt>
<trkpt lat="40.0713749" lon="-105.229789">
  <ele>1583.0</ele>
  <time>2026-08-28T17:55:34Z</time>
  <course>0.0</course>
  <speed>0.0</speed>
  <fix>3d</fix>
</trkpt>
<trkpt lat="40.0713749" lon="-105.229789">
  <ele>1583.0</ele>
  <time>2026-08-28T17:55:34Z</time>
  <course>247.98</course>
  <speed>0.022360679774997897</speed>
  <fix>3d</fix>
</trkpt>
<trkpt lat="40.0713749" lon="-105.229789">
  <ele>1583.0</ele>
  <time>2026-08-28T17:55:34Z</time>
  <course>0.0</course>
  <speed>0.0</speed>
  <fix>3d</fix>
</trkpt>
<trkpt lat="40.0713749" lon="-105.229789">
  <ele>1583.0</ele>
  <time>2026-08-28T17:55:34Z</time>
  <course>247.97</course>
  <speed>0.022360679774997897</speed>
  <fix>3d</fix>
</trkpt>
<trkpt lat="40.0713749" lon="-105.229789">
  <ele>1583.0</ele>
  <time>2026-08-28T17:55:34Z</time>
  <course>0.0</course>
  <speed>0.0</speed>
  <fix>3d</fix>
</trkpt>
<trkpt lat="40.0713749" lon="-105.229789">
  <ele>1583.0</ele>
  <time>2026-08-28T17:55:34Z</time>
  <course>247.97</course>
  <speed>0.022360679774997897</speed>
  <fix>3d</fix>
</trkpt>
<trkpt lat="40.0713749" lon="-105.229789">
  <ele>1583.0</ele>
  <time>2026-08-28T17:55:34Z</time>
  <course>0.0</course>
  <speed>0.0</speed>
  <fix>3d</fix>
</trkpt>
<trkpt lat="40.0713749" lon="-105.229789">
  <ele>1583.0</ele>
  <time>2026-08-28T17:55:34Z</time>
  <course>247.96</course>
  <speed>0.022360679774997897</speed>
  <fix>3d</fix>
</trkpt>
<trkpt lat="40.0713749" lon="-105.229789">
  <ele>1583.0</ele>
  <time>2026-08-28T17:55:34Z</time>
  <course>0.0</course>
  <speed>0.0</speed>
  <fix>3d</fix>
</trkpt>
<trkpt lat="40.0713749" lon="-105.229789">
  <ele>1583.0</ele>
  <time>2026-08-28T17:55:34Z</time>
  <course>247.96</course>
  <speed>0.022360679774997897</speed>
  <fix>3d</fix>
</trkpt>
<trkpt lat="40.0713749" lon="-105.229789">
  <ele>1583.0</ele>
  <time>2026-08-28T17:55:34Z</time>
  <course>0.0</course>
  <speed>0.0</speed>
  <fix>3d</fix>
</trkpt>
<trkpt lat="40.0713749" lon="-105.229789">
  <ele>1583.0</ele>
  <time>2026-08-28T17:55:34Z</time>
  <course>247.95</course>
  <speed>0.022360679774997897</speed>
  <fix>3d</fix>
</trkpt>
<trkpt lat="40.0713749" lon="-105.229789">
  <ele>1583.0</ele>
  <time>2026-08-28T17:55:34Z</time>
  <course>0.0</course>
  <speed>0.0</speed>
  <fix>3d</fix>
</trkpt>
<trkpt lat="40.0713749" lon="-105.229789">
  <ele>1583.0</ele>
  <time>2026-08-28T17:55:34Z</time>
  <course>247.95</course>
  <speed>0.022360679774997897</speed>
  <fix>3d</fix>
</trkpt>
<trkpt lat="40.0713749" lon="-105.229789">
  <ele>1583.0</ele>
  <time>2026-08-28T17:55:34Z</time>
  <course>0.0</course>
  <speed>0.0</speed>
  <fix>3d</fix>
</trkpt>
<trkpt lat="40.0713749" lon="-105.229789">
  <ele>1583.0</ele>
  <time>2026-08-28T17:55:34Z</time>
  <course>247.95</course>
  <speed>0.022360679774997897</speed>
  <fix>3d</fix>
</trkpt>
<trkpt lat="40.0713749" lon="-105.229789">
  <ele>1583.0</ele>
  <time>2026-08-28T17:55:34Z</time>
  <course>0.0</course>
  <speed>0.0</speed>
  <fix>3d</fix>
</trkpt>
<trkpt lat="40.0713749" lon="-105.229789">
  <ele>1583.0</ele>
  <time>2026-08-28T17:55:34Z</time>
  <course>247.94</course>
  <speed>0.022360679774997897</speed>
  <fix>3d</fix>
</trkpt>
<trkpt lat="40.0713749" lon="-105.229789">
  <ele>1583.0</ele>
  <time>2026-08-28T17:55:34Z</time>
  <course>0.0</course>
  <speed>0.0</speed>
  <fix>3d</fix>
</trkpt>
<trkpt lat="40.0713749" lon="-105.229789">
  <ele>1583.0</ele>
  <time>2026-08-28T17:55:34Z</time>
  <course>247.94</course>
  <speed>0.022360679774997897</speed>
  <fix>3d</fix>
</trkpt>
<trkpt lat="40.0713749" lon="-105.229789">
  <ele>1583.0</ele>
  <time>2026-08-28T17:55:34Z</time>
  <course>0.0</course>
  <speed>0.0</speed>
  <fix>3d</fix>
</trkpt>
<trkpt lat="40.0713749" lon="-105.229789">
  <ele>1583.0</ele>
  <time>2026-08-28T17:55:34Z</time>
  <course>247.93</course>
  <speed>0.022360679774997897</speed>
  <fix>3d</fix>
</trkpt>
<trkpt lat="40.0713749" lon="-105.229789">
  <ele>1583.0</ele>
  <time>2026-08-28T17:55:34Z</time>
  <course>0.0</course>
  <speed>0.0</speed>
  <fix>3d</fix>
</trkpt>
<trkpt lat="40.0713749" lon="-105.229789">
  <ele>1583.0</ele>
  <time>2026-08-28T17:55:34Z</time>
  <course>247.93</course>
  <speed>0.022360679774997897</speed>
  <fix>3d</fix>
</trkpt>
<trkpt lat="40.0713749" lon="-105.229789">
  <ele>1583.0</ele>
  <time>2026-08-28T17:55:34Z</time>
  <course>0.0</course>
  <speed>0.0</speed>
  <fix>3d</fix>
</trkpt>
<trkpt lat="40.0713749" lon="-105.229789">
  <ele>1583.0</ele>
  <time>2026-08-28T17:55:34Z</time>
  <course>247.92</course>
  <speed>0.022360679774997897</speed>
  <fix>3d</fix>
</trkpt>
<trkpt lat="40.0713749" lon="-105.229789">
  <ele>1583.0</ele>
  <time>2026-08-28T17:55:34Z</time>
  <course>0.0</course>
  <speed>0.0</speed>
  <fix>3d</fix>
</trkpt>
<trkpt lat="40.0713749" lon="-105.229789">
  <ele>1583.0</ele>
  <time>2026-08-28T17:55:34Z</time>
  <course>247.92</course>
  <speed>0.022360679774997897</speed>
  <fix>3d</fix>
</trkpt>
<trkpt lat="40.0713749" lon="-105.229789">
  <ele>1583.0</ele>
  <time>2026-08-28T17:55:34Z</time>
  <course>0.0</course>
  <speed>0.0</speed>
  <fix>3d</fix>
</trkpt>
<trkpt lat="40.0713749" lon="-105.229789">
  <ele>1583.0</ele>
  <time>2026-08-28T17:55:34Z</time>
  <course>247.92</course>
  <speed>0.022360679774997897</speed>
  <fix>3d</fix>
</trkpt>
<trkpt lat="40.0713749" lon="-105.229789">
  <ele>1583.0</ele>
  <time>2026-08-28T17:55:34Z</time>
  <course>0.0</course>
  <speed>0.0</speed>
  <fix>3d</fix>
</trkpt>
<trkpt lat="40.0713749" lon="-105.229789">
  <ele>1583.0</ele>
  <time>2026-08-28T17:55:34Z</time>
  <course>247.91</course>
  <speed>0.022360679774997897</speed>
  <fix>3d</fix>
</trkpt>
<trkpt lat="40.0713749" lon="-105.229789">
  <ele>1583.0</ele>
  <time>2026-08-28T17:55:34Z</time>
  <course>0.0</course>
  <speed>0.0</speed>
  <fix>3d</fix>
</trkpt>
<trkpt lat="40.0713749" lon="-105.229789">
  <ele>1583.0</ele>
  <time>2026-08-28T17:55:34Z</time>
  <course>247.91</course>
  <speed>0.022360679774997897</speed>
  <fix>3d</fix>
</trkpt>
<trkpt lat="40.0713749" lon="-105.229789">
  <ele>1583.0</ele>
  <time>2026-08-28T17:55:34Z</time>
  <course>0.0</course>
  <speed>0.0</speed>
  <fix>3d</fix>
</trkpt>
<trkpt lat="40.0713749" lon="-105.229789">
  <ele>1583.0</ele>
  <time>2026-08-28T17:55:34Z</time>
  <course>247.9</course>
  <speed>0.022360679774997897</speed>
  <fix>3d</fix>
</trkpt>
<trkpt lat="40.0713749" lon="-105.229789">
  <ele>1583.0</ele>
  <time>2026-08-28T17:55:34Z</time>
  <course>0.0</course>
  <speed>0.0</speed>
  <fix>3d</fix>
</trkpt>
<trkpt lat="40.0713749" lon="-105.229789">
  <ele>1583.0</ele>
  <time>2026-08-28T17:55:34Z</time>
  <course>247.9</course>
  <speed>0.022360679774997897</speed>
  <fix>3d</fix>
</trkpt>
<trkpt lat="40.0713749" lon="-105.229789">
  <ele>1583.0</ele>
  <time>2026-08-28T17:55:34Z</time>
  <course>0.0</course>
  <speed>0.0</speed>
  <fix>3d</fix>
</trkpt>
<trkpt lat="40.0713749" lon="-105.229789">
  <ele>1583.0</ele>
  <time>2026-08-28T17:55:34Z</time>
  <course>247.89</course>
  <speed>0.022360679774997897</speed>
  <fix>3d</fix>
</trkpt>
<trkpt lat="40.0713749" lon="-105.229789">
  <ele>1583.0</ele>
  <time>2026-08-28T17:55:34Z</time>
  <course>0.0</course>
  <speed>0.0</speed>
  <fix>3d</fix>
</trkpt>
<trkpt lat="40.0713749" lon="-105.229789">
  <ele>1583.0</ele>
  <time>2026-08-28T17:55:34Z</time>
  <course>247.89</course>
  <speed>0.022360679774997897</speed>
  <fix>3d</fix>
</trkpt>
<trkpt lat="40.0713749" lon="-105.229789">
  <ele>1583.0</ele>
  <time>2026-08-28T17:55:34Z</time>
  <course>0.0</course>
  <speed>0.0</speed>
  <fix>3d</fix>
</trkpt>
<trkpt lat="40.0713749" lon="-105.229789">
  <ele>1583.0</ele>
  <time>2026-08-28T17:55:34Z</time>
  <course>247.89</course>
  <speed>0.022360679774997897</speed>
  <fix>3d</fix>
</trkpt>
<trkpt lat="40.0713749" lon="-105.229789">
  <ele>1583.0</ele>
  <time>2026-08-28T17:55:34Z</time>
  <course>0.0</course>
  <speed>0.0</speed>
  <fix>3d</fix>
</trkpt>
<trkpt lat="40.0713749" lon="-105.229789">
  <ele>1583.0</ele>
  <time>2026-08-28T17:55:34Z</time>
  <course>247.88</course>
  <speed>0.0316227766016838</speed>
  <fix>3d</fix>
</trkpt>
<trkpt lat="40.0713749" lon="-105.229789">
  <ele>1583.0</ele>
  <time>2026-08-28T17:55:34Z</time>
  <course>0.0</course>
  <speed>0.0</speed>
  <fix>3d</fix>
</trkpt>
<trkpt lat="40.0713749" lon="-105.229789">
  <ele>1583.0</ele>
  <time>2026-08-28T17:55:34Z</time>
  <course>247.88</course>
  <speed>0.0316227766016838</speed>
  <fix>3d</fix>
</trkpt>
<trkpt lat="40.0713749" lon="-105.229789">
  <ele>1583.0</ele>
  <time>2026-08-28T17:55:34Z</time>
  <course>0.0</course>
  <speed>0.0</speed>
  <fix>3d</fix>
</trkpt>
<trkpt lat="40.0713749" lon="-105.229789">
  <ele>1583.0</ele>
  <time>2026-08-28T17:55:34Z</time>
  <course>247.87</course>
  <speed>0.0316227766016838</speed>
  <fix>3d</fix>
</trkpt>
<trkpt lat="40.0713749" lon="-105.229789">
  <ele>1583.0</ele>
  <time>2026-08-28T17:55:34Z</time>
  <course>0.0</course>
  <speed>0.0</speed>
  <fix>3d</fix>
</trkpt>
<trkpt lat="40.0713749" lon="-105.229789">
  <ele>1583.0</ele>
  <time>2026-08-28T17:55:34Z</time>
  <course>247.87</course>
  <speed>0.0316227766016838</speed>
  <fix>3d</fix>
</trkpt>
<trkpt lat="40.0713749" lon="-105.229789">
  <ele>1583.0</ele>
  <time>2026-08-28T17:55:34Z</time>
  <course>0.0</course>
  <speed>0.0</speed>
  <fix>3d</fix>
</trkpt>
<trkpt lat="40.0713749" lon="-105.229789">
  <ele>1583.0</ele>
  <time>2026-08-28T17:55:34Z</time>
  <course>247.87</course>
  <speed>0.0316227766016838</speed>
  <fix>3d</fix>
</trkpt>
<trkpt lat="40.0713749" lon="-105.229789">
  <ele>1583.0</ele>
  <time>2026-08-28T17:55:34Z</time>
  <course>0.0</course>
  <speed>0.0</speed>
  <fix>3d</fix>
</trkpt>
<trkpt lat="40.0713749" lon="-105.229789">
  <ele>1583.0</ele>
  <time>2026-08-28T17:55:34Z</time>
  <course>247.86</course>
  <speed>0.0316227766016838</speed>
  <fix>3d</fix>
</trkpt>
<trkpt lat="40.0713749" lon="-105.229789">
  <ele>1583.0</ele>
  <time>2026-08-28T17:55:34Z</time>
  <course>0.0</course>
  <speed>0.0</speed>
  <fix>3d</fix>
</trkpt>
<trkpt lat="40.0713749" lon="-105.229789">
  <ele>1583.0</ele>
  <time>2026-08-28T17:55:34Z</time>
  <course>247.86</course>
  <speed>0.0316227766016838</speed>
  <fix>3d</fix>
</trkpt>
<trkpt lat="40.0713749" lon="-105.229789">
  <ele>1583.0</ele>
  <time>2026-08-28T17:55:34Z</time>
  <course>0.0</course>
  <speed>0.0</speed>
  <fix>3d</fix>
</trkpt>
<trkpt lat="40.0713749" lon="-105.229789">
  <ele>1583.0</ele>
  <time>2026-08-28T17:55:34Z</time>
  <course>247.85</course>
  <speed>0.0316227766016838</speed>
  <fix>3d</fix>
</trkpt>
<trkpt lat="40.0713749" lon="-105.229789">
  <ele>1583.0</ele>
  <time>2026-08-28T17:55:34Z</time>
  <course>0.0</course>
  <speed>0.0</speed>
  <fix>3d</fix>
</trkpt>
<trkpt lat="40.0713749" lon="-105.229789">
  <ele>1583.0</ele>
  <time>2026-08-28T17:55:34Z</time>
  <course>247.85</course>
  <speed>0.0316227766016838</speed>
  <fix>3d</fix>
</trkpt>
<trkpt lat="40.0713749" lon="-105.229789">
  <ele>1583.0</ele>
  <time>2026-08-28T17:55:34Z</time>
  <course>0.0</course>
  <speed>0.0</speed>
  <fix>3d</fix>
</trkpt>
<trkpt lat="40.0713749" lon="-105.229789">
  <ele>1583.0</ele>
  <time>2026-08-28T17:55:34Z</time>
  <course>247.85</course>
  <speed>0.0316227766016838</speed>
  <fix>3d</fix>
</trkpt>
<trkpt lat="40.0713749" lon="-105.229789">
  <ele>1583.0</ele>
  <time>2026-08-28T17:55:34Z</time>
  <course>0.0</course>
  <speed>0.0</speed>
  <fix>3d</fix>
</trkpt>
<trkpt lat="40.0713749" lon="-105.229789">
  <ele>1583.0</ele>
  <time>2026-08-28T17:55:34Z</time>
  <course>247.84</course>
  <speed>0.0316227766016838</speed>
  <fix>3d</fix>
</trkpt>
<trkpt lat="40.0713749" lon="-105.229789">
  <ele>1583.0</ele>
  <time>2026-08-28T17:55:34Z</time>
  <course>0.0</course>
  <speed>0.0</speed>
  <fix>3d</fix>
</trkpt>
<trkpt lat="40.0713749" lon="-105.229789">
  <ele>1583.0</ele>
  <time>2026-08-28T17:55:34Z</time>
  <course>247.84</course>
  <speed>0.0316227766016838</speed>
  <fix>3d</fix>
</trkpt>
<trkpt lat="40.0713749" lon="-105.229789">
  <ele>1583.0</ele>
  <time>2026-08-28T17:55:34Z</time>
  <course>0.0</course>
  <speed>0.0</speed>
  <fix>3d</fix>
</trkpt>
<trkpt lat="40.0713749" lon="-105.229789">
  <ele>1583.0</ele>
  <time>2026-08-28T17:55:34Z</time>
  <course>247.83</course>
  <speed>0.0316227766016838</speed>
  <fix>3d</fix>
</trkpt>
<trkpt lat="40.0713749" lon="-105.229789">
  <ele>1583.0</ele>
  <time>2026-08-28T17:55:34Z</time>
  <course>0.0</course>
  <speed>0.0</speed>
  <fix>3d</fix>
</trkpt>
<trkpt lat="40.0713749" lon="-105.229789">
  <ele>1583.0</ele>
  <time>2026-08-28T17:55:34Z</time>
  <course>247.83</course>
  <speed>0.0316227766016838</speed>
  <fix>3d</fix>
</trkpt>
<trkpt lat="40.0713749" lon="-105.229789">
  <ele>1583.0</ele>
  <time>2026-08-28T17:55:34Z</time>
  <course>0.0</course>
  <speed>0.0</speed>
  <fix>3d</fix>
</trkpt>
<trkpt lat="40.0713749" lon="-105.229789">
  <ele>1583.0</ele>
  <time>2026-08-28T17:55:34Z</time>
  <course>247.83</course>
  <speed>0.0316227766016838</speed>
  <fix>3d</fix>
</trkpt>
<trkpt lat="40.0713749" lon="-105.229789">
  <ele>1583.0</ele>
  <time>2026-08-28T17:55:34Z</time>
  <course>0.0</course>
  <speed>0.0</speed>
  <fix>3d</fix>
</trkpt>
<trkpt lat="40.0713749" lon="-105.229789">
  <ele>1583.0</ele>
  <time>2026-08-28T17:55:34Z</time>
  <course>247.82</course>
  <speed>0.0316227766016838</speed>
  <fix>3d</fix>
</trkpt>
<trkpt lat="40.0713749" lon="-105.229789">
  <ele>1583.0</ele>
  <time>2026-08-28T17:55:34Z</time>
  <course>0.0</course>
  <speed>0.0</speed>
  <fix>3d</fix>
</trkpt>
<trkpt lat="40.0713749" lon="-105.229789">
  <ele>1583.0</ele>
  <time>2026-08-28T17:55:34Z</time>
  <course>247.82</course>
  <speed>0.0316227766016838</speed>
  <fix>3d</fix>
</trkpt>
<trkpt lat="40.0713749" lon="-105.229789">
  <ele>1583.0</ele>
  <time>2026-08-28T17:55:34Z</time>
  <course>0.0</course>
  <speed>0.0</speed>
  <fix>3d</fix>
</trkpt>
<trkpt lat="40.0713749" lon="-105.229789">
  <ele>1583.0</ele>
  <time>2026-08-28T17:55:34Z</time>
  <course>247.82</course>
  <speed>0.0316227766016838</speed>
  <fix>3d</fix>
</trkpt>
<trkpt lat="40.0713749" lon="-105.229789">
  <ele>1583.0</ele>
  <time>2026-08-28T17:55:34Z</time>
  <course>0.0</course>
  <speed>0.0</speed>
  <fix>3d</fix>
</trkpt>
<trkpt lat="40.0713749" lon="-105.229789">
  <ele>1583.0</ele>
  <time>2026-08-28T17:55:34Z</time>
  <course>247.81</course>
  <speed>0.0316227766016838</speed>
  <fix>3d</fix>
</trkpt>
<trkpt lat="40.0713749" lon="-105.229789">
  <ele>1583.0</ele>
  <time>2026-08-28T17:55:34Z</time>
  <course>0.0</course>
  <speed>0.0</speed>
  <fix>3d</fix>
</trkpt>
<trkpt lat="40.0713749" lon="-105.229789">
  <ele>1583.0</ele>
  <time>2026-08-28T17:55:34Z</time>
  <course>247.81</course>
  <speed>0.0316227766016838</speed>
  <fix>3d</fix>
</trkpt>
<trkpt lat="40.0713749" lon="-105.229789">
  <ele>1583.0</ele>
  <time>2026-08-28T17:55:34Z</time>
  <course>0.0</course>
  <speed>0.0</speed>
  <fix>3d</fix>
</trkpt>
<trkpt lat="40.0713749" lon="-105.229789">
  <ele>1583.0</ele>
  <time>2026-08-28T17:55:34Z</time>
  <course>247.8</course>
  <speed>0.0316227766016838</speed>
  <fix>3d</fix>
</trkpt>
<trkpt lat="40.0713749" lon="-105.229789">
  <ele>1583.0</ele>
  <time>2026-08-28T17:55:34Z</time>
  <course>0.0</course>
  <speed>0.0</speed>
  <fix>3d</fix>
</trkpt>
<trkpt lat="40.0713749" lon="-105.229789">
  <ele>1583.0</ele>
  <time>2026-08-28T17:55:34Z</time>
  <course>247.8</course>
  <speed>0.0316227766016838</speed>
  <fix>3d</fix>
</trkpt>
<trkpt lat="40.0713749" lon="-105.229789">
  <ele>1583.0</ele>
  <time>2026-08-28T17:55:34Z</time>
  <course>0.0</course>
  <speed>0.0</speed>
  <fix>3d</fix>
</trkpt>
<trkpt lat="40.0713749" lon="-105.229789">
  <ele>1583.0</ele>
  <time>2026-08-28T17:55:34Z</time>
  <course>247.8</course>
  <speed>0.0316227766016838</speed>
  <fix>3d</fix>
</trkpt>
<trkpt lat="40.0713749" lon="-105.229789">
  <ele>1583.0</ele>
  <time>2026-08-28T17:55:34Z</time>
  <course>0.0</course>
  <speed>0.0</speed>
  <fix>3d</fix>
</trkpt>
<trkpt lat="40.0713749" lon="-105.229789">
  <ele>1583.0</ele>
  <time>2026-08-28T17:55:34Z</time>
  <course>247.79</course>
  <speed>0.0316227766016838</speed>
  <fix>3d</fix>
</trkpt>
<trkpt lat="40.0713749" lon="-105.229789">
  <ele>1583.0</ele>
  <time>2026-08-28T17:55:34Z</time>
  <course>0.0</course>
  <speed>0.0</speed>
  <fix>3d</fix>
</trkpt>
<trkpt lat="40.0713749" lon="-105.229789">
  <ele>1583.0</ele>
  <time>2026-08-28T17:55:34Z</time>
  <course>247.79</course>
  <speed>0.0316227766016838</speed>
  <fix>3d</fix>
</trkpt>
<trkpt lat="40.0713749" lon="-105.229789">
  <ele>1583.0</ele>
  <time>2026-08-28T17:55:34Z</time>
  <course>0.0</course>
  <speed>0.0</speed>
  <fix>3d</fix>
</trkpt>
<trkpt lat="40.0713749" lon="-105.229789">
  <ele>1583.0</ele>
  <time>2026-08-28T17:55:34Z</time>
  <course>247.79</course>
  <speed>0.0316227766016838</speed>
  <fix>3d</fix>
</trkpt>
<trkpt lat="40.0713749" lon="-105.229789">
  <ele>1583.0</ele>
  <time>2026-08-28T17:55:34Z</time>
  <course>0.0</course>
  <speed>0.0</speed>
  <fix>3d</fix>
</trkpt>
<trkpt lat="40.0713749" lon="-105.229789">
  <ele>1583.0</ele>
  <time>2026-08-28T17:55:34Z</time>
  <course>247.78</course>
  <speed>0.0316227766016838</speed>
  <fix>3d</fix>
</trkpt>
<trkpt lat="40.0713749" lon="-105.229789">
  <ele>1583.0</ele>
  <time>2026-08-28T17:55:34Z</time>
  <course>0.0</course>
  <speed>0.0</speed>
  <fix>3d</fix>
</trkpt>
<trkpt lat="40.0713749" lon="-105.229789">
  <ele>1583.0</ele>
  <time>2026-08-28T17:55:34Z</time>
  <course>247.78</course>
  <speed>0.0316227766016838</speed>
  <fix>3d</fix>
</trkpt>
<trkpt lat="40.0713749" lon="-105.229789">
  <ele>1583.0</ele>
  <time>2026-08-28T17:55:34Z</time>
  <course>0.0</course>
  <speed>0.0</speed>
  <fix>3d</fix>
</trkpt>
<trkpt lat="40.0713749" lon="-105.229789">
  <ele>1583.0</ele>
  <time>2026-08-28T17:55:34Z</time>
  <course>247.78</course>
  <speed>0.0316227766016838</speed>
  <fix>3d</fix>
</trkpt>
<trkpt lat="40.0713749" lon="-105.229789">
  <ele>1583.0</ele>
  <time>2026-08-28T17:55:34Z</time>
  <course>0.0</course>
  <speed>0.0</speed>
  <fix>3d</fix>
</trkpt>
<trkpt lat="40.0713749" lon="-105.229789">
  <ele>1583.0</ele>
  <time>2026-08-28T17:55:34Z</time>
  <course>247.77</course>
  <speed>0.0316227766016838</speed>
  <fix>3d</fix>
</trkpt>
<trkpt lat="40.0713749" lon="-105.229789">
  <ele>1583.0</ele>
  <time>2026-08-28T17:55:34Z</time>
  <course>0.0</course>
  <speed>0.0</speed>
  <fix>3d</fix>
</trkpt>
<trkpt lat="40.0713749" lon="-105.229789">
  <ele>1583.0</ele>
  <time>2026-08-28T17:55:34Z</time>
  <course>247.77</course>
  <speed>0.0316227766016838</speed>
  <fix>3d</fix>
</trkpt>
<trkpt lat="40.0713749" lon="-105.229789">
  <ele>1583.0</ele>
  <time>2026-08-28T17:55:34Z</time>
  <course>0.0</course>
  <speed>0.0</speed>
  <fix>3d</fix>
</trkpt>
<trkpt lat="40.0713749" lon="-105.229789">
  <ele>1583.0</ele>
  <time>2026-08-28T17:55:34Z</time>
  <course>247.76</course>
  <speed>0.0316227766016838</speed>
  <fix>3d</fix>
</trkpt>
<trkpt lat="40.0713749" lon="-105.229789">
  <ele>1583.0</ele>
  <time>2026-08-28T17:55:34Z</time>
  <course>0.0</course>
  <speed>0.0</speed>
  <fix>3d</fix>
</trkpt>
<trkpt lat="40.0713749" lon="-105.229789">
  <ele>1583.0</ele>
  <time>2026-08-28T17:55:34Z</time>
  <course>247.76</course>
  <speed>0.0316227766016838</speed>
  <fix>3d</fix>
</trkpt>
<trkpt lat="40.0713749" lon="-105.229789">
  <ele>1583.0</ele>
  <time>2026-08-28T17:55:34Z</time>
  <course>0.0</course>
  <speed>0.0</speed>
  <fix>3d</fix>
</trkpt>
<trkpt lat="40.0713749" lon="-105.229789">
  <ele>1583.0</ele>
  <time>2026-08-28T17:55:34Z</time>
  <course>247.76</course>
  <speed>0.0316227766016838</speed>
  <fix>3d</fix>
</trkpt>
<trkpt lat="40.0713749" lon="-105.229789">
  <ele>1583.0</ele>
  <time>2026-08-28T17:55:34Z</time>
  <course>0.0</course>
  <speed>0.0</speed>
  <fix>3d</fix>
</trkpt>
<trkpt lat="40.0713749" lon="-105.229789">
  <ele>1583.0</ele>
  <time>2026-08-28T17:55:34Z</time>
  <course>247.75</course>
  <speed>0.0316227766016838</speed>
  <fix>3d</fix>
</trkpt>
<trkpt lat="40.0713749" lon="-105.229789">
  <ele>1583.0</ele>
  <time>2026-08-28T17:55:34Z</time>
  <course>0.0</course>
  <speed>0.0</speed>
  <fix>3d</fix>
</trkpt>
<trkpt lat="40.0713749" lon="-105.229789">
  <ele>1583.0</ele>
  <time>2026-08-28T17:55:34Z</time>
  <course>247.75</course>
  <speed>0.0316227766016838</speed>
  <fix>3d</fix>
</trkpt>
<trkpt lat="40.0713749" lon="-105.229789">
  <ele>1583.0</ele>
  <time>2026-08-28T17:55:34Z</time>
  <course>0.0</course>
  <speed>0.0</speed>
  <fix>3d</fix>
</trkpt>
<trkpt lat="40.0713749" lon="-105.229789">
  <ele>1583.0</ele>
  <time>2026-08-28T17:55:34Z</time>
  <course>247.75</course>
  <speed>0.0316227766016838</speed>
  <fix>3d</fix>
</trkpt>
<trkpt lat="40.0713749" lon="-105.229789">
  <ele>1583.0</ele>
  <time>2026-08-28T17:55:34Z</time>
  <course>0.0</course>
  <speed>0.0</speed>
  <fix>3d</fix>
</trkpt>
<trkpt lat="40.0713749" lon="-105.229789">
  <ele>1583.0</ele>
  <time>2026-08-28T17:55:34Z</time>
  <course>247.74</course>
  <speed>0.0316227766016838</speed>
  <fix>3d</fix>
</trkpt>
<trkpt lat="40.0713749" lon="-105.229789">
  <ele>1583.0</ele>
  <time>2026-08-28T17:55:34Z</time>
  <course>0.0</course>
  <speed>0.0</speed>
  <fix>3d</fix>
</trkpt>
<trkpt lat="40.0713749" lon="-105.229789">
  <ele>1583.0</ele>
  <time>2026-08-28T17:55:34Z</time>
  <course>247.74</course>
  <speed>0.0316227766016838</speed>
  <fix>3d</fix>
</trkpt>
<trkpt lat="40.0713749" lon="-105.229789">
  <ele>1583.0</ele>
  <time>2026-08-28T17:55:34Z</time>
  <course>0.0</course>
  <speed>0.0</speed>
  <fix>3d</fix>
</trkpt>
<trkpt lat="40.0713749" lon="-105.229789">
  <ele>1583.0</ele>
  <time>2026-08-28T17:55:34Z</time>
  <course>247.74</course>
  <speed>0.0316227766016838</speed>
  <fix>3d</fix>
</trkpt>
<trkpt lat="40.0713749" lon="-105.229789">
  <ele>1583.0</ele>
  <time>2026-08-28T17:55:34Z</time>
  <course>0.0</course>
  <speed>0.0</speed>
  <fix>3d</fix>
</trkpt>
<trkpt lat="40.0713749" lon="-105.229789">
  <ele>1583.0</ele>
  <time>2026-08-28T17:55:34Z</time>
  <course>247.73</course>
  <speed>0.0316227766016838</speed>
  <fix>3d</fix>
</trkpt>
<trkpt lat="40.0713749" lon="-105.229789">
  <ele>1583.0</ele>
  <time>2026-08-28T17:55:34Z</time>
  <course>0.0</course>
  <speed>0.0</speed>
  <fix>3d</fix>
</trkpt>
<trkpt lat="40.0713749" lon="-105.229789">
  <ele>1583.0</ele>
  <time>2026-08-28T17:55:34Z</time>
  <course>247.73</course>
  <speed>0.0316227766016838</speed>
  <fix>3d</fix>
</trkpt>
<trkpt lat="40.0713749" lon="-105.229789">
  <ele>1583.0</ele>
  <time>2026-08-28T17:55:34Z</time>
  <course>0.0</course>
  <speed>0.0</speed>
  <fix>3d</fix>
</trkpt>
<trkpt lat="40.0713749" lon="-105.229789">
  <ele>1583.0</ele>
  <time>2026-08-28T17:55:34Z</time>
  <course>247.73</course>
  <speed>0.0316227766016838</speed>
  <fix>3d</fix>
</trkpt>
<trkpt lat="40.0713749" lon="-105.229789">
  <ele>1583.0</ele>
  <time>2026-08-28T17:55:34Z</time>
  <course>0.0</course>
  <speed>0.0</speed>
  <fix>3d</fix>
</trkpt>
<trkpt lat="40.0713749" lon="-105.229789">
  <ele>1583.0</ele>
  <time>2026-08-28T17:55:34Z</time>
  <course>247.72</course>
  <speed>0.0316227766016838</speed>
  <fix>3d</fix>
</trkpt>
<trkpt lat="40.0713749" lon="-105.229789">
  <ele>1583.0</ele>
  <time>2026-08-28T17:55:34Z</time>
  <course>0.0</course>
  <speed>0.0</speed>
  <fix>3d</fix>
</trkpt>
<trkpt lat="40.0713749" lon="-105.229789">
  <ele>1583.0</ele>
  <time>2026-08-28T17:55:34Z</time>
  <course>247.72</course>
  <speed>0.0316227766016838</speed>
  <fix>3d</fix>
</trkpt>
<trkpt lat="40.0713749" lon="-105.229789">
  <ele>1583.0</ele>
  <time>2026-08-28T17:55:34Z</time>
  <course>0.0</course>
  <speed>0.0</speed>
  <fix>3d</fix>
</trkpt>
<trkpt lat="40.0713749" lon="-105.229789">
  <ele>1583.0</ele>
  <time>2026-08-28T17:55:34Z</time>
  <course>247.72</course>
  <speed>0.0316227766016838</speed>
  <fix>3d</fix>
</trkpt>
<trkpt lat="40.0713749" lon="-105.229789">
  <ele>1583.0</ele>
  <time>2026-08-28T17:55:34Z</time>
  <course>0.0</course>
  <speed>0.0</speed>
  <fix>3d</fix>
</trkpt>
<trkpt lat="40.0713749" lon="-105.229789">
  <ele>1583.0</ele>
  <time>2026-08-28T17:55:34Z</time>
  <course>247.71</course>
  <speed>0.0316227766016838</speed>
  <fix>3d</fix>
</trkpt>
<trkpt lat="40.0713749" lon="-105.229789">
  <ele>1583.0</ele>
  <time>2026-08-28T17:55:34Z</time>
  <course>0.0</course>
  <speed>0.0</speed>
  <fix>3d</fix>
</trkpt>
<trkpt lat="40.0713749" lon="-105.229789">
  <ele>1583.0</ele>
  <time>2026-08-28T17:55:35Z</time>
  <course>247.71</course>
  <speed>0.0316227766016838</speed>
  <fix>3d</fix>
</trkpt>
<trkpt lat="40.0713749" lon="-105.229789">
  <ele>1583.0</ele>
  <time>2026-08-28T17:55:35Z</time>
  <course>0.0</course>
  <speed>0.0</speed>
  <fix>3d</fix>
</trkpt>
<trkpt lat="40.0713749" lon="-105.229789">
  <ele>1583.0</ele>
  <time>2026-08-28T17:55:35Z</time>
  <course>247.71</course>
  <speed>0.0316227766016838</speed>
  <fix>3d</fix>
</trkpt>
<trkpt lat="40.0713749" lon="-105.229789">
  <ele>1583.0</ele>
  <time>2026-08-28T17:55:35Z</time>
  <course>0.0</course>
  <speed>0.0</speed>
  <fix>3d</fix>
</trkpt>
<trkpt lat="40.0713749" lon="-105.229789">
  <ele>1583.0</ele>
  <time>2026-08-28T17:55:35Z</time>
  <course>247.7</course>
  <speed>0.0316227766016838</speed>
  <fix>3d</fix>
</trkpt>
<trkpt lat="40.0713749" lon="-105.229789">
  <ele>1583.0</ele>
  <time>2026-08-28T17:55:35Z</time>
  <course>0.0</course>
  <speed>0.0</speed>
  <fix>3d</fix>
</trkpt>
<trkpt lat="40.0713749" lon="-105.229789">
  <ele>1583.0</ele>
  <time>2026-08-28T17:55:35Z</time>
  <course>247.7</course>
  <speed>0.0316227766016838</speed>
  <fix>3d</fix>
</trkpt>
<trkpt lat="40.0713749" lon="-105.229789">
  <ele>1583.0</ele>
  <time>2026-08-28T17:55:35Z</time>
  <course>0.0</course>
  <speed>0.0</speed>
  <fix>3d</fix>
</trkpt>
<trkpt lat="40.0713749" lon="-105.229789">
  <ele>1583.0</ele>
  <time>2026-08-28T17:55:35Z</time>
  <course>247.7</course>
  <speed>0.0316227766016838</speed>
  <fix>3d</fix>
</trkpt>
<trkpt lat="40.0713749" lon="-105.229789">
  <ele>1583.0</ele>
  <time>2026-08-28T17:55:35Z</time>
  <course>0.0</course>
  <speed>0.0</speed>
  <fix>3d</fix>
</trkpt>
<trkpt lat="40.0713749" lon="-105.229789">
  <ele>1583.0</ele>
  <time>2026-08-28T17:55:35Z</time>
  <course>247.69</course>
  <speed>0.0316227766016838</speed>
  <fix>3d</fix>
</trkpt>
<trkpt lat="40.0713749" lon="-105.229789">
  <ele>1583.0</ele>
  <time>2026-08-28T17:55:35Z</time>
  <course>0.0</course>
  <speed>0.0</speed>
  <fix>3d</fix>
</trkpt>
<trkpt lat="40.0713749" lon="-105.229789">
  <ele>1583.0</ele>
  <time>2026-08-28T17:55:35Z</time>
  <course>247.69</course>
  <speed>0.0316227766016838</speed>
  <fix>3d</fix>
</trkpt>
<trkpt lat="40.0713749" lon="-105.229789">
  <ele>1583.0</ele>
  <time>2026-08-28T17:55:35Z</time>
  <course>0.0</course>
  <speed>0.0</speed>
  <fix>3d</fix>
</trkpt>
<trkpt lat="40.0713749" lon="-105.229789">
  <ele>1583.0</ele>
  <time>2026-08-28T17:55:35Z</time>
  <course>247.69</course>
  <speed>0.0316227766016838</speed>
  <fix>3d</fix>
</trkpt>
<trkpt lat="40.0713749" lon="-105.229789">
  <ele>1583.0</ele>
  <time>2026-08-28T17:55:35Z</time>
  <course>0.0</course>
  <speed>0.0</speed>
  <fix>3d</fix>
</trkpt>
<trkpt lat="40.0713749" lon="-105.229789">
  <ele>1583.0</ele>
  <time>2026-08-28T17:55:35Z</time>
  <course>247.68</course>
  <speed>0.0316227766016838</speed>
  <fix>3d</fix>
</trkpt>
<trkpt lat="40.0713749" lon="-105.229789">
  <ele>1583.0</ele>
  <time>2026-08-28T17:55:35Z</time>
  <course>0.0</course>
  <speed>0.0</speed>
  <fix>3d</fix>
</trkpt>
<trkpt lat="40.0713749" lon="-105.229789">
  <ele>1583.0</ele>
  <time>2026-08-28T17:55:35Z</time>
  <course>247.68</course>
  <speed>0.0316227766016838</speed>
  <fix>3d</fix>
</trkpt>
<trkpt lat="40.0713749" lon="-105.229789">
  <ele>1583.0</ele>
  <time>2026-08-28T17:55:35Z</time>
  <course>0.0</course>
  <speed>0.0</speed>
  <fix>3d</fix>
</trkpt>
<trkpt lat="40.0713749" lon="-105.229789">
  <ele>1583.0</ele>
  <time>2026-08-28T17:55:35Z</time>
  <course>247.68</course>
  <speed>0.0316227766016838</speed>
  <fix>3d</fix>
</trkpt>
<trkpt lat="40.0713749" lon="-105.229789">
  <ele>1583.0</ele>
  <time>2026-08-28T17:55:35Z</time>
  <course>0.0</course>
  <speed>0.0</speed>
  <fix>3d</fix>
</trkpt>
<trkpt lat="40.0713749" lon="-105.229789">
  <ele>1583.0</ele>
  <time>2026-08-28T17:55:35Z</time>
  <course>247.67</course>
  <speed>0.0316227766016838</speed>
  <fix>3d</fix>
</trkpt>
<trkpt lat="40.0713749" lon="-105.229789">
  <ele>1583.0</ele>
  <time>2026-08-28T17:55:35Z</time>
  <course>0.0</course>
  <speed>0.0</speed>
  <fix>3d</fix>
</trkpt>
<trkpt lat="40.0713749" lon="-105.229789">
  <ele>1583.0</ele>
  <time>2026-08-28T17:55:35Z</time>
  <course>247.67</course>
  <speed>0.0316227766016838</speed>
  <fix>3d</fix>
</trkpt>
<trkpt lat="40.0713749" lon="-105.229789">
  <ele>1583.0</ele>
  <time>2026-08-28T17:55:35Z</time>
  <course>0.0</course>
  <speed>0.0</speed>
  <fix>3d</fix>
</trkpt>
<trkpt lat="40.0713749" lon="-105.229789">
  <ele>1583.0</ele>
  <time>2026-08-28T17:55:35Z</time>
  <course>247.67</course>
  <speed>0.0316227766016838</speed>
  <fix>3d</fix>
</trkpt>
<trkpt lat="40.0713749" lon="-105.229789">
  <ele>1583.0</ele>
  <time>2026-08-28T17:55:35Z</time>
  <course>0.0</course>
  <speed>0.0</speed>
  <fix>3d</fix>
</trkpt>
<trkpt lat="40.0713749" lon="-105.229789">
  <ele>1583.0</ele>
  <time>2026-08-28T17:55:35Z</time>
  <course>247.66</course>
  <speed>0.0316227766016838</speed>
  <fix>3d</fix>
</trkpt>
<trkpt lat="40.0713749" lon="-105.229789">
  <ele>1583.0</ele>
  <time>2026-08-28T17:55:35Z</time>
  <course>0.0</course>
  <speed>0.0</speed>
  <fix>3d</fix>
</trkpt>
<trkpt lat="40.0713749" lon="-105.229789">
  <ele>1583.0</ele>
  <time>2026-08-28T17:55:35Z</time>
  <course>247.66</course>
  <speed>0.0316227766016838</speed>
  <fix>3d</fix>
</trkpt>
<trkpt lat="40.0713749" lon="-105.229789">
  <ele>1583.0</ele>
  <time>2026-08-28T17:55:35Z</time>
  <course>0.0</course>
  <speed>0.0</speed>
  <fix>3d</fix>
</trkpt>
<trkpt lat="40.0713749" lon="-105.229789">
  <ele>1583.0</ele>
  <time>2026-08-28T17:55:35Z</time>
  <course>247.66</course>
  <speed>0.0316227766016838</speed>
  <fix>3d</fix>
</trkpt>
<trkpt lat="40.0713749" lon="-105.229789">
  <ele>1583.0</ele>
  <time>2026-08-28T17:55:35Z</time>
  <course>0.0</course>
  <speed>0.0</speed>
  <fix>3d</fix>
</trkpt>
<trkpt lat="40.0713749" lon="-105.229789">
  <ele>1583.0</ele>
  <time>2026-08-28T17:55:35Z</time>
  <course>247.65</course>
  <speed>0.0316227766016838</speed>
  <fix>3d</fix>
</trkpt>
<trkpt lat="40.0713749" lon="-105.229789">
  <ele>1583.0</ele>
  <time>2026-08-28T17:55:35Z</time>
  <course>0.0</course>
  <speed>0.0</speed>
  <fix>3d</fix>
</trkpt>
<trkpt lat="40.0713749" lon="-105.229789">
  <ele>1583.0</ele>
  <time>2026-08-28T17:55:35Z</time>
  <course>247.65</course>
  <speed>0.0316227766016838</speed>
  <fix>3d</fix>
</trkpt>
<trkpt lat="40.0713749" lon="-105.229789">
  <ele>1583.0</ele>
  <time>2026-08-28T17:55:35Z</time>
  <course>0.0</course>
  <speed>0.0</speed>
  <fix>3d</fix>
</trkpt>
<trkpt lat="40.0713749" lon="-105.229789">
  <ele>1583.0</ele>
  <time>2026-08-28T17:55:35Z</time>
  <course>247.65</course>
  <speed>0.0316227766016838</speed>
  <fix>3d</fix>
</trkpt>
<trkpt lat="40.0713749" lon="-105.229789">
  <ele>1583.0</ele>
  <time>2026-08-28T17:55:35Z</time>
  <course>0.0</course>
  <speed>0.0</speed>
  <fix>3d</fix>
</trkpt>
<trkpt lat="40.0713749" lon="-105.229789">
  <ele>1583.0</ele>
  <time>2026-08-28T17:55:35Z</time>
  <course>247.64</course>
  <speed>0.0316227766016838</speed>
  <fix>3d</fix>
</trkpt>
<trkpt lat="40.0713749" lon="-105.229789">
  <ele>1583.0</ele>
  <time>2026-08-28T17:55:35Z</time>
  <course>0.0</course>
  <speed>0.0</speed>
  <fix>3d</fix>
</trkpt>
<trkpt lat="40.0713749" lon="-105.229789">
  <ele>1583.0</ele>
  <time>2026-08-28T17:55:35Z</time>
  <course>247.64</course>
  <speed>0.0316227766016838</speed>
  <fix>3d</fix>
</trkpt>
<trkpt lat="40.0713749" lon="-105.229789">
  <ele>1583.0</ele>
  <time>2026-08-28T17:55:35Z</time>
  <course>0.0</course>
  <speed>0.0</speed>
  <fix>3d</fix>
</trkpt>
<trkpt lat="40.0713749" lon="-105.229789">
  <ele>1583.0</ele>
  <time>2026-08-28T17:55:35Z</time>
  <course>247.64</course>
  <speed>0.0316227766016838</speed>
  <fix>3d</fix>
</trkpt>
<trkpt lat="40.0713749" lon="-105.229789">
  <ele>1583.0</ele>
  <time>2026-08-28T17:55:35Z</time>
  <course>0.0</course>
  <speed>0.0</speed>
  <fix>3d</fix>
</trkpt>
<trkpt lat="40.0713749" lon="-105.229789">
  <ele>1583.0</ele>
  <time>2026-08-28T17:55:35Z</time>
  <course>247.64</course>
  <speed>0.0316227766016838</speed>
  <fix>3d</fix>
</trkpt>
<trkpt lat="40.0713749" lon="-105.229789">
  <ele>1583.0</ele>
  <time>2026-08-28T17:55:35Z</time>
  <course>0.0</course>
  <speed>0.0</speed>
  <fix>3d</fix>
</trkpt>
<trkpt lat="40.0713749" lon="-105.229789">
  <ele>1583.0</ele>
  <time>2026-08-28T17:55:35Z</time>
  <course>247.63</course>
  <speed>0.0316227766016838</speed>
  <fix>3d</fix>
</trkpt>
<trkpt lat="40.0713749" lon="-105.229789">
  <ele>1583.0</ele>
  <time>2026-08-28T17:55:35Z</time>
  <course>0.0</course>
  <speed>0.0</speed>
  <fix>3d</fix>
</trkpt>
<trkpt lat="40.0713749" lon="-105.229789">
  <ele>1583.0</ele>
  <time>2026-08-28T17:55:35Z</time>
  <course>247.63</course>
  <speed>0.0316227766016838</speed>
  <fix>3d</fix>
</trkpt>
<trkpt lat="40.0713749" lon="-105.229789">
  <ele>1583.0</ele>
  <time>2026-08-28T17:55:35Z</time>
  <course>0.0</course>
  <speed>0.0</speed>
  <fix>3d</fix>
</trkpt>
<trkpt lat="40.0713749" lon="-105.229789">
  <ele>1583.0</ele>
  <time>2026-08-28T17:55:35Z</time>
  <course>247.63</course>
  <speed>0.0316227766016838</speed>
  <fix>3d</fix>
</trkpt>
<trkpt lat="40.0713749" lon="-105.229789">
  <ele>1583.0</ele>
  <time>2026-08-28T17:55:35Z</time>
  <course>0.0</course>
  <speed>0.0</speed>
  <fix>3d</fix>
</trkpt>
<trkpt lat="40.0713749" lon="-105.229789">
  <ele>1583.0</ele>
  <time>2026-08-28T17:55:35Z</time>
  <course>247.62</course>
  <speed>0.0316227766016838</speed>
  <fix>3d</fix>
</trkpt>
<trkpt lat="40.0713749" lon="-105.229789">
  <ele>1583.0</ele>
  <time>2026-08-28T17:55:35Z</time>
  <course>0.0</course>
  <speed>0.0</speed>
  <fix>3d</fix>
</trkpt>
<trkpt lat="40.0713749" lon="-105.229789">
  <ele>1583.0</ele>
  <time>2026-08-28T17:55:35Z</time>
  <course>247.62</course>
  <speed>0.0316227766016838</speed>
  <fix>3d</fix>
</trkpt>
<trkpt lat="40.0713749" lon="-105.229789">
  <ele>1583.0</ele>
  <time>2026-08-28T17:55:35Z</time>
  <course>0.0</course>
  <speed>0.0</speed>
  <fix>3d</fix>
</trkpt>
<trkpt lat="40.0713749" lon="-105.229789">
  <ele>1583.0</ele>
  <time>2026-08-28T17:55:35Z</time>
  <course>247.62</course>
  <speed>0.0316227766016838</speed>
  <fix>3d</fix>
</trkpt>
<trkpt lat="40.0713749" lon="-105.229789">
  <ele>1583.0</ele>
  <time>2026-08-28T17:55:35Z</time>
  <course>0.0</course>
  <speed>0.0</speed>
  <fix>3d</fix>
</trkpt>
<trkpt lat="40.0713749" lon="-105.229789">
  <ele>1583.0</ele>
  <time>2026-08-28T17:55:35Z</time>
  <course>247.61</course>
  <speed>0.0316227766016838</speed>
  <fix>3d</fix>
</trkpt>
<trkpt lat="40.0713749" lon="-105.229789">
  <ele>1583.0</ele>
  <time>2026-08-28T17:55:35Z</time>
  <course>0.0</course>
  <speed>0.0</speed>
  <fix>3d</fix>
</trkpt>
<trkpt lat="40.0713749" lon="-105.229789">
  <ele>1583.0</ele>
  <time>2026-08-28T17:55:35Z</time>
  <course>247.61</course>
  <speed>0.0316227766016838</speed>
  <fix>3d</fix>
</trkpt>
<trkpt lat="40.0713749" lon="-105.229789">
  <ele>1583.0</ele>
  <time>2026-08-28T17:55:35Z</time>
  <course>0.0</course>
  <speed>0.0</speed>
  <fix>3d</fix>
</trkpt>
<trkpt lat="40.0713749" lon="-105.229789">
  <ele>1583.0</ele>
  <time>2026-08-28T17:55:35Z</time>
  <course>247.61</course>
  <speed>0.0316227766016838</speed>
  <fix>3d</fix>
</trkpt>
<trkpt lat="40.0713749" lon="-105.229789">
  <ele>1583.0</ele>
  <time>2026-08-28T17:55:35Z</time>
  <course>0.0</course>
  <speed>0.0</speed>
  <fix>3d</fix>
</trkpt>
<trkpt lat="40.0713749" lon="-105.229789">
  <ele>1583.0</ele>
  <time>2026-08-28T17:55:35Z</time>
  <course>247.61</course>
  <speed>0.0316227766016838</speed>
  <fix>3d</fix>
</trkpt>
<trkpt lat="40.0713749" lon="-105.229789">
  <ele>1583.0</ele>
  <time>2026-08-28T17:55:35Z</time>
  <course>0.0</course>
  <speed>0.0</speed>
  <fix>3d</fix>
</trkpt>
<trkpt lat="40.0713749" lon="-105.229789">
  <ele>1583.0</ele>
  <time>2026-08-28T17:55:35Z</time>
  <course>247.6</course>
  <speed>0.0316227766016838</speed>
  <fix>3d</fix>
</trkpt>
<trkpt lat="40.0713749" lon="-105.229789">
  <ele>1583.0</ele>
  <time>2026-08-28T17:55:35Z</time>
  <course>0.0</course>
  <speed>0.0</speed>
  <fix>3d</fix>
</trkpt>
<trkpt lat="40.0713749" lon="-105.229789">
  <ele>1583.0</ele>
  <time>2026-08-28T17:55:35Z</time>
  <course>247.6</course>
  <speed>0.0316227766016838</speed>
  <fix>3d</fix>
</trkpt>
<trkpt lat="40.0713749" lon="-105.229789">
  <ele>1583.0</ele>
  <time>2026-08-28T17:55:35Z</time>
  <course>0.0</course>
  <speed>0.0</speed>
  <fix>3d</fix>
</trkpt>
<trkpt lat="40.0713749" lon="-105.229789">
  <ele>1583.0</ele>
  <time>2026-08-28T17:55:35Z</time>
  <course>247.6</course>
  <speed>0.0316227766016838</speed>
  <fix>3d</fix>
</trkpt>
<trkpt lat="40.0713749" lon="-105.229789">
  <ele>1583.0</ele>
  <time>2026-08-28T17:55:35Z</time>
  <course>0.0</course>
  <speed>0.0</speed>
  <fix>3d</fix>
</trkpt>
<trkpt lat="40.0713749" lon="-105.229789">
  <ele>1583.0</ele>
  <time>2026-08-28T17:55:35Z</time>
  <course>247.6</course>
  <speed>0.0316227766016838</speed>
  <fix>3d</fix>
</trkpt>
<trkpt lat="40.0713749" lon="-105.229789">
  <ele>1583.0</ele>
  <time>2026-08-28T17:55:35Z</time>
  <course>0.0</course>
  <speed>0.0</speed>
  <fix>3d</fix>
</trkpt>
<trkpt lat="40.0713749" lon="-105.229789">
  <ele>1583.0</ele>
  <time>2026-08-28T17:55:35Z</time>
  <course>247.59</course>
  <speed>0.0316227766016838</speed>
  <fix>3d</fix>
</trkpt>
<trkpt lat="40.0713749" lon="-105.229789">
  <ele>1583.0</ele>
  <time>2026-08-28T17:55:35Z</time>
  <course>0.0</course>
  <speed>0.0</speed>
  <fix>3d</fix>
</trkpt>
<trkpt lat="40.0713749" lon="-105.229789">
  <ele>1582.92</ele>
  <time>2026-08-28T17:55:35Z</time>
  <course>247.59</course>
  <speed>0.0</speed>
  <fix>3d</fix>
</trkpt>
<trkpt lat="40.0713749" lon="-105.229789">
  <ele>1583.0</ele>
  <time>2026-08-28T17:55:35Z</time>
  <course>0.0</course>
  <speed>0.0</speed>
  <fix>3d</fix>
</trkpt>
<trkpt lat="40.0713749" lon="-105.229789">
  <ele>1582.92</ele>
  <time>2026-08-28T17:55:35Z</time>
  <course>247.59</course>
  <speed>0.0</speed>
  <fix>3d</fix>
</trkpt>
<trkpt lat="40.0713749" lon="-105.229789">
  <ele>1583.0</ele>
  <time>2026-08-28T17:55:35Z</time>
  <course>0.0</course>
  <speed>0.0</speed>
  <fix>3d</fix>
</trkpt>
<trkpt lat="40.0713749" lon="-105.229789">
  <ele>1582.91</ele>
  <time>2026-08-28T17:55:35Z</time>
  <course>247.58</course>
  <speed>0.0</speed>
  <fix>3d</fix>
</trkpt>
<trkpt lat="40.0713749" lon="-105.229789">
  <ele>1583.0</ele>
  <time>2026-08-28T17:55:35Z</time>
  <course>0.0</course>
  <speed>0.0</speed>
  <fix>3d</fix>
</trkpt>
<trkpt lat="40.0713749" lon="-105.229789">
  <ele>1582.91</ele>
  <time>2026-08-28T17:55:35Z</time>
  <course>247.58</course>
  <speed>0.0</speed>
  <fix>3d</fix>
</trkpt>
<trkpt lat="40.0713749" lon="-105.229789">
  <ele>1583.0</ele>
  <time>2026-08-28T17:55:35Z</time>
  <course>0.0</course>
  <speed>0.0</speed>
  <fix>3d</fix>
</trkpt>
<trkpt lat="40.0713749" lon="-105.229789">
  <ele>1582.9</ele>
  <time>2026-08-28T17:55:35Z</time>
  <course>247.58</course>
  <speed>0.0</speed>
  <fix>3d</fix>
</trkpt>
<trkpt lat="40.0713749" lon="-105.229789">
  <ele>1583.0</ele>
  <time>2026-08-28T17:55:35Z</time>
  <course>0.0</course>
  <speed>0.0</speed>
  <fix>3d</fix>
</trkpt>
<trkpt lat="40.0713749" lon="-105.229789">
  <ele>1582.9</ele>
  <time>2026-08-28T17:55:35Z</time>
  <course>247.58</course>
  <speed>0.0</speed>
  <fix>3d</fix>
</trkpt>
<trkpt lat="40.0713749" lon="-105.229789">
  <ele>1583.0</ele>
  <time>2026-08-28T17:55:35Z</time>
  <course>0.0</course>
  <speed>0.0</speed>
  <fix>3d</fix>
</trkpt>
<trkpt lat="40.0713749" lon="-105.229789">
  <ele>1582.9</ele>
  <time>2026-08-28T17:55:35Z</time>
  <course>247.57</course>
  <speed>0.0</speed>
  <fix>3d</fix>
</trkpt>
<trkpt lat="40.0713749" lon="-105.229789">
  <ele>1583.0</ele>
  <time>2026-08-28T17:55:35Z</time>
  <course>0.0</course>
  <speed>0.0</speed>
  <fix>3d</fix>
</trkpt>
<trkpt lat="40.0713749" lon="-105.229789">
  <ele>1582.9</ele>
  <time>2026-08-28T17:55:35Z</time>
  <course>247.57</course>
  <speed>0.0</speed>
  <fix>3d</fix>
</trkpt>
<trkpt lat="40.0713749" lon="-105.229789">
  <ele>1583.0</ele>
  <time>2026-08-28T17:55:35Z</time>
  <course>0.0</course>
  <speed>0.0</speed>
  <fix>3d</fix>
</trkpt>
<trkpt lat="40.0713749" lon="-105.229789">
  <ele>1582.9</ele>
  <time>2026-08-28T17:55:35Z</time>
  <course>247.57</course>
  <speed>0.0</speed>
  <fix>3d</fix>
</trkpt>
<trkpt lat="40.0713749" lon="-105.229789">
  <ele>1583.0</ele>
  <time>2026-08-28T17:55:35Z</time>
  <course>0.0</course>
  <speed>0.0</speed>
  <fix>3d</fix>
</trkpt>
<trkpt lat="40.0713749" lon="-105.229789">
  <ele>1582.9</ele>
  <time>2026-08-28T17:55:35Z</time>
  <course>247.57</course>
  <speed>0.01</speed>
  <fix>3d</fix>
</trkpt>
<trkpt lat="40.0713749" lon="-105.229789">
  <ele>1583.0</ele>
  <time>2026-08-28T17:55:35Z</time>
  <course>0.0</course>
  <speed>0.0</speed>
  <fix>3d</fix>
</trkpt>
<trkpt lat="40.0713749" lon="-105.229789">
  <ele>1582.91</ele>
  <time>2026-08-28T17:55:35Z</time>
  <course>247.56</course>
  <speed>0.01</speed>
  <fix>3d</fix>
</trkpt>
<trkpt lat="40.0713749" lon="-105.229789">
  <ele>1583.0</ele>
  <time>2026-08-28T17:55:35Z</time>
  <course>0.0</course>
  <speed>0.0</speed>
  <fix>3d</fix>
</trkpt>
<trkpt lat="40.0713749" lon="-105.229789">
  <ele>1582.91</ele>
  <time>2026-08-28T17:55:35Z</time>
  <course>247.56</course>
  <speed>0.01</speed>
  <fix>3d</fix>
</trkpt>
<trkpt lat="40.0713749" lon="-105.229789">
  <ele>1583.0</ele>
  <time>2026-08-28T17:55:35Z</time>
  <course>0.0</course>
  <speed>0.0</speed>
  <fix>3d</fix>
</trkpt>
<trkpt lat="40.0713749" lon="-105.229789">
  <ele>1582.91</ele>
  <time>2026-08-28T17:55:35Z</time>
  <course>247.56</course>
  <speed>0.0</speed>
  <fix>3d</fix>
</trkpt>
<trkpt lat="40.0713749" lon="-105.229789">
  <ele>1583.0</ele>
  <time>2026-08-28T17:55:35Z</time>
  <course>0.0</course>
  <speed>0.0</speed>
  <fix>3d</fix>
</trkpt>
<trkpt lat="40.0713749" lon="-105.229789">
  <ele>1582.92</ele>
  <time>2026-08-28T17:55:35Z</time>
  <course>247.56</course>
  <speed>0.09219544457292887</speed>
  <fix>3d</fix>
</trkpt>
<trkpt lat="40.0713749" lon="-105.229789">
  <ele>1583.0</ele>
  <time>2026-08-28T17:55:35Z</time>
  <course>246.0</course>
  <speed>0.04</speed>
  <fix>3d</fix>
</trkpt>
<trkpt lat="40.0713749" lon="-105.2297892">
  <ele>1582.92</ele>
  <time>2026-08-28T17:55:35Z</time>
  <course>246.91</course>
  <speed>0.2879236009777594</speed>
  <fix>3d</fix>
</trkpt>
<trkpt lat="40.0713749" lon="-105.229789">
  <ele>1583.0</ele>
  <time>2026-08-28T17:55:35Z</time>
  <course>246.0</course>
  <speed>0.04</speed>
  <fix>3d</fix>
</trkpt>
<trkpt lat="40.0713747" lon="-105.2297897">
  <ele>1582.92</ele>
  <time>2026-08-28T17:55:35Z</time>
  <course>244.18</course>
  <speed>0.5594640292279746</speed>
  <fix>3d</fix>
</trkpt>
<trkpt lat="40.0713748" lon="-105.2297892">
  <ele>1583.0</ele>
  <time>2026-08-28T17:55:35Z</time>
  <course>243.65</course>
  <speed>0.29</speed>
  <fix>3d</fix>
</trkpt>
<trkpt lat="40.0713744" lon="-105.2297905">
  <ele>1582.93</ele>
  <time>2026-08-28T17:55:35Z</time>
  <course>239.41</course>
  <speed>0.9228217596047462</speed>
  <fix>3d</fix>
</trkpt>
<trkpt lat="40.0713748" lon="-105.2297892">
  <ele>1583.0</ele>
  <time>2026-08-28T17:55:35Z</time>
  <course>243.65</course>
  <speed>0.29</speed>
  <fix>3d</fix>
</trkpt>
<trkpt lat="40.0713738" lon="-105.2297916">
  <ele>1582.93</ele>
  <time>2026-08-28T17:55:35Z</time>
  <course>232.08</course>
  <speed>1.3682105101189657</speed>
  <fix>3d</fix>
</trkpt>
<trkpt lat="40.0713743" lon="-105.2297904">
  <ele>1583.0</ele>
  <time>2026-08-28T17:55:35Z</time>
  <course>235.31</course>
  <speed>0.9</speed>
  <fix>3d</fix>
</trkpt>
<trkpt lat="40.0713727" lon="-105.2297931">
  <ele>1582.93</ele>
  <time>2026-08-28T17:55:35Z</time>
  <course>221.69</course>
  <speed>1.8917980864775183</speed>
  <fix>3d</fix>
</trkpt>
<trkpt lat="40.0713743" lon="-105.2297904">
  <ele>1583.0</ele>
  <time>2026-08-28T17:55:35Z</time>
  <course>235.31</course>
  <speed>0.9</speed>
  <fix>3d</fix>
</trkpt>
<trkpt lat="40.071371" lon="-105.2297946">
  <ele>1582.93</ele>
  <time>2026-08-28T17:55:35Z</time>
  <course>207.77</course>
  <speed>2.482136176763878</speed>
  <fix>3d</fix>
</trkpt>
<trkpt lat="40.0713727" lon="-105.2297926">
  <ele>1583.0</ele>
  <time>2026-08-28T17:55:35Z</time>
  <course>217.2</course>
  <speed>1.79</speed>
  <fix>3d</fix>
</trkpt>
<trkpt lat="40.0713685" lon="-105.2297955">
  <ele>1582.94</ele>
  <time>2026-08-28T17:55:35Z</time>
  <course>189.84</course>
  <speed>3.145313974788527</speed>
  <fix>3d</fix>
</trkpt>
<trkpt lat="40.0713727" lon="-105.2297926">
  <ele>1583.0</ele>
  <time>2026-08-28T17:55:35Z</time>
  <course>217.2</course>
  <speed>1.79</speed>
  <fix>3d</fix>
</trkpt>
<trkpt lat="40.071366" lon="-105.2297955">
  <ele>1582.94</ele>
  <time>2026-08-28T17:55:35Z</time>
  <course>172.15</course>
  <speed>3.718722899060913</speed>
  <fix>3d</fix>
</trkpt>
<trkpt lat="40.0713688" lon="-105.2297946">
  <ele>1583.0</ele>
  <time>2026-08-28T17:55:35Z</time>
  <course>185.46</course>
  <speed>2.88</speed>
  <fix>3d</fix>
</trkpt>
<trkpt lat="40.0713624" lon="-105.2297934">
  <ele>1582.94</ele>
  <time>2026-08-28T17:55:35Z</time>
  <course>145.79</course>
  <speed>4.508347812669293</speed>
  <fix>3d</fix>
</trkpt>
<trkpt lat="40.0713688" lon="-105.2297946">
  <ele>1583.0</ele>
  <time>2026-08-28T17:55:35Z</time>
  <course>185.46</course>
  <speed>2.88</speed>
  <fix>3d</fix>
</trkpt>
<trkpt lat="40.0713595" lon="-105.2297888">
  <ele>1582.95</ele>
  <time>2026-08-28T17:55:35Z</time>
  <course>114.55</course>
  <speed>5.246189093046495</speed>
  <fix>3d</fix>
</trkpt>
<trkpt lat="40.0713632" lon="-105.2297921">
  <ele>1583.0</ele>
  <time>2026-08-28T17:55:35Z</time>
  <course>136.84</course>
  <speed>3.95</speed>
  <fix>3d</fix>
</trkpt>
<trkpt lat="40.0713593" lon="-105.2297817">
  <ele>1582.95</ele>
  <time>2026-08-28T17:55:35Z</time>
  <course>78.94</course>
  <speed>5.97396016056351</speed>
  <fix>3d</fix>
</trkpt>
<trkpt lat="40.0713632" lon="-105.2297921">
  <ele>1583.0</ele>
  <time>2026-08-28T17:55:35Z</time>
  <course>136.84</course>
  <speed>3.95</speed>
  <fix>3d</fix>
</trkpt>
<trkpt lat="40.0713624" lon="-105.229775">
  <ele>1582.95</ele>
  <time>2026-08-28T17:55:35Z</time>
  <course>42.24</course>
  <speed>6.636211268487465</speed>
  <fix>3d</fix>
</trkpt>
<trkpt lat="40.0713613" lon="-105.2297827">
  <ele>1583.0</ele>
  <time>2026-08-28T17:55:35Z</time>
  <course>73.16</course>
  <speed>4.84</speed>
  <fix>3d</fix>
</trkpt>
<trkpt lat="40.0713688" lon="-105.2297719">
  <ele>1582.95</ele>
  <time>2026-08-28T17:55:35Z</time>
  <course>5.12</course>
  <speed>7.319357895334808</speed>
  <fix>3d</fix>
</trkpt>
<trkpt lat="40.0713613" lon="-105.2297827">
  <ele>1583.0</ele>
  <time>2026-08-28T17:55:35Z</time>
  <course>73.16</course>
  <speed>4.84</speed>
  <fix>3d</fix>
</trkpt>
<trkpt lat="40.0713758" lon="-105.2297743">
  <ele>1582.95</ele>
  <time>2026-08-28T17:55:35Z</time>
  <course>328.09</course>
  <speed>7.904479742525754</speed>
  <fix>3d</fix>
</trkpt>
<trkpt lat="40.0713685" lon="-105.2297756">
  <ele>1583.0</ele>
  <time>2026-08-28T17:55:35Z</time>
  <course>2.76</course>
  <speed>5.88</speed>
  <fix>3d</fix>
</trkpt>
<trkpt lat="40.0713805" lon="-105.2297827">
  <ele>1582.96</ele>
  <time>2026-08-28T17:55:35Z</time>
  <course>290.49</course>
  <speed>8.481379604757707</speed>
  <fix>3d</fix>
</trkpt>
<trkpt lat="40.0713685" lon="-105.2297756">
  <ele>1583.0</ele>
  <time>2026-08-28T17:55:35Z</time>
  <course>2.76</course>
  <speed>5.88</speed>
  <fix>3d</fix>
</trkpt>
<trkpt lat="40.0713807" lon="-105.2297935">
  <ele>1582.96</ele>
  <time>2026-08-28T17:55:35Z</time>
  <course>253.4</course>
  <speed>8.97468662405546</speed>
  <fix>3d</fix>
</trkpt>
<trkpt lat="40.0713773" lon="-105.2297835">
  <ele>1583.0</ele>
  <time>2026-08-28T17:55:35Z</time>
  <course>291.59</course>
  <speed>6.83</speed>
  <fix>3d</fix>
</trkpt>
<trkpt lat="40.0713753" lon="-105.2298026">
  <ele>1582.96</ele>
  <time>2026-08-28T17:55:35Z</time>
  <course>215.96</course>
  <speed>9.518928511129811</speed>
  <fix>3d</fix>
</trkpt>
<trkpt lat="40.0713773" lon="-105.2297835">
  <ele>1583.0</ele>
  <time>2026-08-28T17:55:35Z</time>
  <course>291.59</course>
  <speed>6.83</speed>
  <fix>3d</fix>
</trkpt>
<trkpt lat="40.0713644" lon="-105.2298057">
  <ele>1582.95</ele>
  <time>2026-08-28T17:55:35Z</time>
  <course>171.29</course>
  <speed>10.122356445018127</speed>
  <fix>3d</fix>
</trkpt>
<trkpt lat="40.0713742" lon="-105.2297988">
  <ele>1583.0</ele>
  <time>2026-08-28T17:55:35Z</time>
  <course>220.18</course>
  <speed>7.7</speed>
  <fix>3d</fix>
</trkpt>
<trkpt lat="40.0713559" lon="-105.2297992">
  <ele>1582.95</ele>
  <time>2026-08-28T17:55:35Z</time>
  <course>134.05</course>
  <speed>10.626913945261812</speed>
  <fix>3d</fix>
</trkpt>
<trkpt lat="40.0713742" lon="-105.2297988">
  <ele>1583.0</ele>
  <time>2026-08-28T17:55:35Z</time>
  <course>220.18</course>
  <speed>7.7</speed>
  <fix>3d</fix>
</trkpt>
<trkpt lat="40.0713517" lon="-105.229787">
  <ele>1582.95</ele>
  <time>2026-08-28T17:55:35Z</time>
  <course>97.23</course>
  <speed>11.05</speed>
  <fix>3d</fix>
</trkpt>
<trkpt lat="40.0713607" lon="-105.2298">
  <ele>1583.0</ele>
  <time>2026-08-28T17:55:35Z</time>
  <course>148.61</course>
  <speed>8.48</speed>
  <fix>3d</fix>
</trkpt>
<trkpt lat="40.0713542" lon="-105.2297739">
  <ele>1582.96</ele>
  <time>2026-08-28T17:55:35Z</time>
  <course>60.9</course>
  <speed>11.3738735706003</speed>
  <fix>3d</fix>
</trkpt>
<trkpt lat="40.0713607" lon="-105.2298">
  <ele>1583.0</ele>
  <time>2026-08-28T17:55:35Z</time>
  <course>148.61</course>
  <speed>8.48</speed>
  <fix>3d</fix>
</trkpt>
<trkpt lat="40.0713623" lon="-105.2297647">
  <ele>1582.96</ele>
  <time>2026-08-28T17:55:35Z</time>
  <course>24.85</course>
  <speed>11.727105354690048</speed>
  <fix>3d</fix>
</trkpt>
<trkpt lat="40.0713551" lon="-105.229782">
  <ele>1583.0</ele>
  <time>2026-08-28T17:55:35Z</time>
  <course>76.78</course>
  <speed>9.17</speed>
  <fix>3d</fix>
</trkpt>
<trkpt lat="40.0713728" lon="-105.2297646">
  <ele>1582.95</ele>
  <time>2026-08-28T17:55:35Z</time>
  <course>349.43</course>
  <speed>11.981652640600128</speed>
  <fix>3d</fix>
</trkpt>
<trkpt lat="40.0713551" lon="-105.229782">
  <ele>1583.0</ele>
  <time>2026-08-28T17:55:35Z</time>
  <course>76.78</course>
  <speed>9.17</speed>
  <fix>3d</fix>
</trkpt>
<trkpt lat="40.0713818" lon="-105.2297729">
  <ele>1582.95</ele>
  <time>2026-08-28T17:55:35Z</time>
  <course>314.14</course>
  <speed>12.50224379861471</speed>
  <fix>3d</fix>
</trkpt>
<trkpt lat="40.0713673" lon="-105.2297685">
  <ele>1583.0</ele>
  <time>2026-08-28T17:55:35Z</time>
  <course>4.91</course>
  <speed>9.82</speed>
  <fix>3d</fix>
</trkpt>
<trkpt lat="40.0713853" lon="-105.229787">
  <ele>1582.94</ele>
  <time>2026-08-28T17:55:35Z</time>
  <course>278.79</course>
  <speed>13.055152239633209</speed>
  <fix>3d</fix>
</trkpt>
<trkpt lat="40.0713673" lon="-105.2297685">
  <ele>1583.0</ele>
  <time>2026-08-28T17:55:35Z</time>
  <course>4.91</course>
  <speed>9.82</speed>
  <fix>3d</fix>
</trkpt>
<trkpt lat="40.0713821" lon="-105.2298021">
  <ele>1582.95</ele>
  <time>2026-08-28T17:55:35Z</time>
  <course>243.23</course>
  <speed>13.570987436439545</speed>
  <fix>3d</fix>
</trkpt>
<trkpt lat="40.0713817" lon="-105.2297801">
  <ele>1583.0</ele>
  <time>2026-08-28T17:55:35Z</time>
  <course>293.12</course>
  <speed>10.4</speed>
  <fix>3d</fix>
</trkpt>
<trkpt lat="40.0713727" lon="-105.2298117">
  <ele>1582.95</ele>
  <time>2026-08-28T17:55:35Z</time>
  <course>207.15</course>
  <speed>13.940807006769731</speed>
  <fix>3d</fix>
</trkpt>
<trkpt lat="40.0713817" lon="-105.2297801">
  <ele>1583.0</ele>
  <time>2026-08-28T17:55:35Z</time>
  <course>293.12</course>
  <speed>10.4</speed>
  <fix>3d</fix>
</trkpt>
<trkpt lat="40.0713602" lon="-105.2298125">
  <ele>1582.96</ele>
  <time>2026-08-28T17:55:35Z</time>
  <course>170.83</course>
  <speed>14.2221693141377</speed>
  <fix>3d</fix>
</trkpt>
<trkpt lat="40.0713777" lon="-105.2298028">
  <ele>1583.0</ele>
  <time>2026-08-28T17:55:35Z</time>
  <course>221.31</course>
  <speed>10.92</speed>
  <fix>3d</fix>
</trkpt>
<trkpt lat="40.0713515" lon="-105.2298056">
  <ele>1582.96</ele>
  <time>2026-08-28T17:55:35Z</time>
  <course>141.48</course>
  <speed>14.33565136294825</speed>
  <fix>3d</fix>
</trkpt>
<trkpt lat="40.0713777" lon="-105.2298028">
  <ele>1583.0</ele>
  <time>2026-08-28T17:55:35Z</time>
  <course>221.31</course>
  <speed>10.92</speed>
  <fix>3d</fix>
</trkpt>
<trkpt lat="40.0713456" lon="-105.2297904">
  <ele>1582.95</ele>
  <time>2026-08-28T17:55:35Z</time>
  <course>105.26</course>
  <speed>14.502927290723068</speed>
  <fix>3d</fix>
</trkpt>
<trkpt lat="40.071359" lon="-105.229805">
  <ele>1583.0</ele>
  <time>2026-08-28T17:55:35Z</time>
  <course>149.46</course>
  <speed>11.38</speed>
  <fix>3d</fix>
</trkpt>
<trkpt lat="40.071348" lon="-105.2297731">
  <ele>1582.94</ele>
  <time>2026-08-28T17:55:35Z</time>
  <course>69.14</course>
  <speed>14.683139991159928</speed>
  <fix>3d</fix>
</trkpt>
<trkpt lat="40.071359" lon="-105.229805">
  <ele>1583.0</ele>
  <time>2026-08-28T17:55:35Z</time>
  <course>149.46</course>
  <speed>11.38</speed>
  <fix>3d</fix>
</trkpt>
<trkpt lat="40.0713576" lon="-105.2297602">
  <ele>1582.93</ele>
  <time>2026-08-28T17:55:35Z</time>
  <course>33.39</course>
  <speed>14.92769238696993</speed>
  <fix>3d</fix>
</trkpt>
<trkpt lat="40.0713513" lon="-105.2297816">
  <ele>1583.0</ele>
  <time>2026-08-28T17:55:35Z</time>
  <course>77.59</course>
  <speed>11.8</speed>
  <fix>3d</fix>
</trkpt>
<trkpt lat="40.0713714" lon="-105.2297577">
  <ele>1582.93</ele>
  <time>2026-08-28T17:55:35Z</time>
  <course>357.57</course>
  <speed>15.096714874435431</speed>
  <fix>3d</fix>
</trkpt>
<trkpt lat="40.0713513" lon="-105.2297816">
  <ele>1583.0</ele>
  <time>2026-08-28T17:55:35Z</time>
  <course>77.59</course>
  <speed>11.8</speed>
  <fix>3d</fix>
</trkpt>
<trkpt lat="40.0713843" lon="-105.2297658">
  <ele>1582.93</ele>
  <time>2026-08-28T17:55:35Z</time>
  <course>321.81</course>
  <speed>15.390831686429424</speed>
  <fix>3d</fix>
</trkpt>
<trkpt lat="40.0713664" lon="-105.2297641">
  <ele>1583.0</ele>
  <time>2026-08-28T17:55:35Z</time>
  <course>5.71</course>
  <speed>12.18</speed>
  <fix>3d</fix>
</trkpt>
<trkpt lat="40.0713909" lon="-105.2297825">
  <ele>1582.95</ele>
  <time>2026-08-28T17:55:35Z</time>
  <course>286.04</course>
  <speed>15.668899131719497</speed>
  <fix>3d</fix>
</trkpt>
<trkpt lat="40.0713664" lon="-105.2297641">
  <ele>1583.0</ele>
  <time>2026-08-28T17:55:35Z</time>
  <course>5.71</course>
  <speed>12.18</speed>
  <fix>3d</fix>
</trkpt>
<trkpt lat="40.0713894" lon="-105.2298018">
  <ele>1582.97</ele>
  <time>2026-08-28T17:55:35Z</time>
  <course>249.9</course>
  <speed>15.898584842683327</speed>
  <fix>3d</fix>
</trkpt>
<trkpt lat="40.0713843" lon="-105.229778">
  <ele>1583.0</ele>
  <time>2026-08-28T17:55:35Z</time>
  <course>293.82</course>
  <speed>12.53</speed>
  <fix>3d</fix>
</trkpt>
<trkpt lat="40.0713794" lon="-105.2298153">
  <ele>1582.99</ele>
  <time>2026-08-28T17:55:35Z</time>
  <course>213.7</course>
  <speed>16.028505856754084</speed>
  <fix>3d</fix>
</trkpt>
<trkpt lat="40.0713843" lon="-105.229778">
  <ele>1583.0</ele>
  <time>2026-08-28T17:55:35Z</time>
  <course>293.82</course>
  <speed>12.53</speed>
  <fix>3d</fix>
</trkpt>
<trkpt lat="40.0713649" lon="-105.229819">
  <ele>1583.0</ele>
  <time>2026-08-28T17:55:35Z</time>
  <course>177.37</course>
  <speed>16.16258023955334</speed>
  <fix>3d</fix>
</trkpt>
<trkpt lat="40.0713797" lon="-105.2298051">
  <ele>1583.0</ele>
  <time>2026-08-28T17:55:35Z</time>
  <course>221.91</course>
  <speed>12.84</speed>
  <fix>3d</fix>
</trkpt>
<trkpt lat="40.0713495" lon="-105.2298066">
  <ele>1582.98</ele>
  <time>2026-08-28T17:55:35Z</time>
  <course>133.58</course>
  <speed>16.4259794228533</speed>
  <fix>3d</fix>
</trkpt>
<trkpt lat="40.0713797" lon="-105.2298051">
  <ele>1583.0</ele>
  <time>2026-08-28T17:55:35Z</time>
  <course>221.91</course>
  <speed>12.84</speed>
  <fix>3d</fix>
</trkpt>
<trkpt lat="40.071344" lon="-105.2297876">
  <ele>1582.95</ele>
  <time>2026-08-28T17:55:35Z</time>
  <course>97.14</course>
  <speed>16.631671593679332</speed>
  <fix>3d</fix>
</trkpt>
<trkpt lat="40.0713581" lon="-105.2298079">
  <ele>1583.0</ele>
  <time>2026-08-28T17:55:35Z</time>
  <course>149.99</course>
  <speed>13.12</speed>
  <fix>3d</fix>
</trkpt>
<trkpt lat="40.0713482" lon="-105.2297683">
  <ele>1582.94</ele>
  <time>2026-08-28T17:55:35Z</time>
  <course>60.91</course>
  <speed>16.680731398832606</speed>
  <fix>3d</fix>
</trkpt>
<trkpt lat="40.0713581" lon="-105.2298079">
  <ele>1583.0</ele>
  <time>2026-08-28T17:55:35Z</time>
  <course>149.99</course>
  <speed>13.12</speed>
  <fix>3d</fix>
</trkpt>
<trkpt lat="40.0713601" lon="-105.2297557">
  <ele>1582.94</ele>
  <time>2026-08-28T17:55:35Z</time>
  <course>24.83</course>
  <speed>16.698598743607203</speed>
  <fix>3d</fix>
</trkpt>
<trkpt lat="40.0713491" lon="-105.2297814">
  <ele>1583.0</ele>
  <time>2026-08-28T17:55:35Z</time>
  <course>78.07</course>
  <speed>13.37</speed>
  <fix>3d</fix>
</trkpt>
<trkpt lat="40.0713753" lon="-105.2297556">
  <ele>1582.95</ele>
  <time>2026-08-28T17:55:35Z</time>
  <course>348.98</course>
  <speed>16.72527428773591</speed>
  <fix>3d</fix>
</trkpt>
<trkpt lat="40.0713491" lon="-105.2297814">
  <ele>1583.0</ele>
  <time>2026-08-28T17:55:35Z</time>
  <course>78.07</course>
  <speed>13.37</speed>
  <fix>3d</fix>
</trkpt>
<trkpt lat="40.0713882" lon="-105.2297671">
  <ele>1582.96</ele>
  <time>2026-08-28T17:55:35Z</time>
  <course>313.14</course>
  <speed>16.91759439163855</speed>
  <fix>3d</fix>
</trkpt>
<trkpt lat="40.071366" lon="-105.2297616">
  <ele>1583.0</ele>
  <time>2026-08-28T17:55:35Z</time>
  <course>5.99</course>
  <speed>13.57</speed>
  <fix>3d</fix>
</trkpt>
<trkpt lat="40.0713929" lon="-105.2297858">
  <ele>1582.97</ele>
  <time>2026-08-28T17:55:35Z</time>
  <course>277.32</course>
  <speed>17.052357608260508</speed>
  <fix>3d</fix>
</trkpt>
<trkpt lat="40.071366" lon="-105.2297616">
  <ele>1583.0</ele>
  <time>2026-08-28T17:55:35Z</time>
  <course>5.99</course>
  <speed>13.57</speed>
  <fix>3d</fix>
</trkpt>
<trkpt lat="40.0713886" lon="-105.2298055">
  <ele>1582.99</ele>
  <time>2026-08-28T17:55:35Z</time>
  <course>241.46</course>
  <speed>17.236850060263333</speed>
  <fix>3d</fix>
</trkpt>
<trkpt lat="40.0713858" lon="-105.2297768">
  <ele>1583.0</ele>
  <time>2026-08-28T17:55:35Z</time>
  <course>293.91</course>
  <speed>13.81</speed>
  <fix>3d</fix>
</trkpt>
<trkpt lat="40.0713765" lon="-105.2298169">
  <ele>1583.0</ele>
  <time>2026-08-28T17:55:35Z</time>
  <course>205.46</course>
  <speed>17.334918517258743</speed>
  <fix>3d</fix>
</trkpt>
<trkpt lat="40.0713858" lon="-105.2297768">
  <ele>1583.0</ele>
  <time>2026-08-28T17:55:35Z</time>
  <course>293.91</course>
  <speed>13.81</speed>
  <fix>3d</fix>
</trkpt>
<trkpt lat="40.0713608" lon="-105.229817">
  <ele>1583.01</ele>
  <time>2026-08-28T17:55:35Z</time>
  <course>169.38</course>
  <speed>17.533653355761313</speed>
  <fix>3d</fix>
</trkpt>
<trkpt lat="40.0713809" lon="-105.2298066">
  <ele>1583.0</ele>
  <time>2026-08-28T17:55:35Z</time>
  <course>221.97</course>
  <speed>13.99</speed>
  <fix>3d</fix>
</trkpt>
<trkpt lat="40.0713483" lon="-105.2298049">
  <ele>1583.0</ele>
  <time>2026-08-28T17:55:35Z</time>
  <course>133.35</course>
  <speed>17.68356581688207</speed>
  <fix>3d</fix>
</trkpt>
<trkpt lat="40.0713809" lon="-105.2298066">
  <ele>1583.0</ele>
  <time>2026-08-28T17:55:35Z</time>
  <course>221.97</course>
  <speed>13.99</speed>
  <fix>3d</fix>
</trkpt>
<trkpt lat="40.0713434" lon="-105.2297891">
  <ele>1582.98</ele>
  <time>2026-08-28T17:55:35Z</time>
  <course>104.24</course>
  <speed>17.838556555954856</speed>
  <fix>3d</fix>
</trkpt>
<trkpt lat="40.0713575" lon="-105.2298097">
  <ele>1583.0</ele>
  <time>2026-08-28T17:55:35Z</time>
  <course>150.02</course>
  <speed>14.16</speed>
  <fix>3d</fix>
</trkpt>
<trkpt lat="40.0713466" lon="-105.2297686">
  <ele>1582.94</ele>
  <time>2026-08-28T17:55:35Z</time>
  <course>68.24</course>
  <speed>17.98300586665088</speed>
  <fix>3d</fix>
</trkpt>
<trkpt lat="40.0713575" lon="-105.2298097">
  <ele>1583.0</ele>
  <time>2026-08-28T17:55:35Z</time>
  <course>150.02</course>
  <speed>14.16</speed>
  <fix>3d</fix>
</trkpt>
<trkpt lat="40.0713583" lon="-105.2297534">
  <ele>1582.9</ele>
  <time>2026-08-28T17:55:35Z</time>
  <course>32.24</course>
  <speed>18.088463174078665</speed>
  <fix>3d</fix>
</trkpt>
<trkpt lat="40.0713478" lon="-105.2297811">
  <ele>1583.0</ele>
  <time>2026-08-28T17:55:35Z</time>
  <course>78.08</course>
  <speed>14.31</speed>
  <fix>3d</fix>
</trkpt>
<trkpt lat="40.0713744" lon="-105.229751">
  <ele>1582.87</ele>
  <time>2026-08-28T17:55:35Z</time>
  <course>356.6</course>
  <speed>18.054531287186606</speed>
  <fix>3d</fix>
</trkpt>
<trkpt lat="40.0713478" lon="-105.2297811">
  <ele>1583.0</ele>
  <time>2026-08-28T17:55:35Z</time>
  <course>78.08</course>
  <speed>14.31</speed>
  <fix>3d</fix>
</trkpt>
<trkpt lat="40.0713892" lon="-105.229761">
  <ele>1582.87</ele>
  <time>2026-08-28T17:55:35Z</time>
  <course>320.67</course>
  <speed>18.043486359348627</speed>
  <fix>3d</fix>
</trkpt>
<trkpt lat="40.0713657" lon="-105.22976">
  <ele>1583.0</ele>
  <time>2026-08-28T17:55:35Z</time>
  <course>6.13</course>
  <speed>14.45</speed>
  <fix>3d</fix>
</trkpt>
<trkpt lat="40.0713964" lon="-105.2297806">
  <ele>1582.91</ele>
  <time>2026-08-28T17:55:35Z</time>
  <course>284.73</course>
  <speed>17.990911594469026</speed>
  <fix>3d</fix>
</trkpt>
<trkpt lat="40.0713657" lon="-105.22976">
  <ele>1583.0</ele>
  <time>2026-08-28T17:55:35Z</time>
  <course>6.13</course>
  <speed>14.45</speed>
  <fix>3d</fix>
</trkpt>
<trkpt lat="40.071394" lon="-105.2298026">
  <ele>1582.98</ele>
  <time>2026-08-28T17:55:35Z</time>
  <course>248.73</course>
  <speed>17.976754434546855</speed>
  <fix>3d</fix>
</trkpt>
<trkpt lat="40.0713868" lon="-105.229776">
  <ele>1583.0</ele>
  <time>2026-08-28T17:55:35Z</time>
  <course>294.18</course>
  <speed>14.57</speed>
  <fix>3d</fix>
</trkpt>
<trkpt lat="40.0713821" lon="-105.2298178">
  <ele>1583.05</ele>
  <time>2026-08-28T17:55:35Z</time>
  <course>212.28</course>
  <speed>17.989210655278903</speed>
  <fix>3d</fix>
</trkpt>
<trkpt lat="40.0713868" lon="-105.229776">
  <ele>1583.0</ele>
  <time>2026-08-28T17:55:35Z</time>
  <course>294.18</course>
  <speed>14.57</speed>
  <fix>3d</fix>
</trkpt>
<trkpt lat="40.0713655" lon="-105.2298215">
  <ele>1583.08</ele>
  <time>2026-08-28T17:55:35Z</time>
  <course>176.12</course>
  <speed>18.132923095849716</speed>
  <fix>3d</fix>
</trkpt>
<trkpt lat="40.0713817" lon="-105.2298074">
  <ele>1583.0</ele>
  <time>2026-08-28T17:55:35Z</time>
  <course>222.22</course>
  <speed>14.69</speed>
  <fix>3d</fix>
</trkpt>
<trkpt lat="40.0713507" lon="-105.2298109">
  <ele>1583.03</ele>
  <time>2026-08-28T17:55:35Z</time>
  <course>139.91</course>
  <speed>18.359896513869572</speed>
  <fix>3d</fix>
</trkpt>
<trkpt lat="40.0713817" lon="-105.2298074">
  <ele>1583.0</ele>
  <time>2026-08-28T17:55:35Z</time>
  <course>222.22</course>
  <speed>14.69</speed>
  <fix>3d</fix>
</trkpt>
<trkpt lat="40.0713425" lon="-105.2297865">
  <ele>1582.93</ele>
  <time>2026-08-28T17:55:35Z</time>
  <course>96.43</course>
  <speed>18.59854295368323</speed>
  <fix>3d</fix>
</trkpt>
<trkpt lat="40.0713571" lon="-105.2298108">
  <ele>1583.0</ele>
  <time>2026-08-28T17:55:35Z</time>
  <course>150.27</course>
  <speed>14.79</speed>
  <fix>3d</fix>
</trkpt>
<trkpt lat="40.0713473" lon="-105.2297656">
  <ele>1582.87</ele>
  <time>2026-08-28T17:55:35Z</time>
  <course>60.29</course>
  <speed>18.620386676973173</speed>
  <fix>3d</fix>
</trkpt>
<trkpt lat="40.0713571" lon="-105.2298108">
  <ele>1583.0</ele>
  <time>2026-08-28T17:55:35Z</time>
  <course>150.27</course>
  <speed>14.79</speed>
  <fix>3d</fix>
</trkpt>
<trkpt lat="40.0713604" lon="-105.2297521">
  <ele>1582.86</ele>
  <time>2026-08-28T17:55:35Z</time>
  <course>24.25</course>
  <speed>18.534319518126367</speed>
  <fix>3d</fix>
</trkpt>
<trkpt lat="40.071347" lon="-105.2297811">
  <ele>1583.0</ele>
  <time>2026-08-28T17:55:35Z</time>
  <course>78.31</course>
  <speed>14.88</speed>
  <fix>3d</fix>
</trkpt>
<trkpt lat="40.0713769" lon="-105.2297522">
  <ele>1582.9</ele>
  <time>2026-08-28T17:55:35Z</time>
  <course>348.3</course>
  <speed>18.364923087233443</speed>
  <fix>3d</fix>
</trkpt>
<trkpt lat="40.071347" lon="-105.2297811">
  <ele>1583.0</ele>
  <time>2026-08-28T17:55:35Z</time>
  <course>78.31</course>
  <speed>14.88</speed>
  <fix>3d</fix>
</trkpt>
<trkpt lat="40.0713907" lon="-105.2297648">
  <ele>1582.95</ele>
  <time>2026-08-28T17:55:35Z</time>
  <course>312.32</course>
  <speed>18.32382329100562</speed>
  <fix>3d</fix>
</trkpt>
<trkpt lat="40.0713656" lon="-105.2297591">
  <ele>1583.0</ele>
  <time>2026-08-28T17:55:35Z</time>
  <course>6.2</course>
  <speed>14.93</speed>
  <fix>3d</fix>
</trkpt>
<trkpt lat="40.0713955" lon="-105.229785">
  <ele>1582.99</ele>
  <time>2026-08-28T17:55:35Z</time>
  <course>276.41</course>
  <speed>18.272673586533525</speed>
  <fix>3d</fix>
</trkpt>
<trkpt lat="40.0713656" lon="-105.2297591">
  <ele>1583.0</ele>
  <time>2026-08-28T17:55:35Z</time>
  <course>6.2</course>
  <speed>14.93</speed>
  <fix>3d</fix>
</trkpt>
<trkpt lat="40.0713905" lon="-105.2298059">
  <ele>1583.02</ele>
  <time>2026-08-28T17:55:35Z</time>
  <course>240.5</course>
  <speed>18.391152764304906</speed>
  <fix>3d</fix>
</trkpt>
<trkpt lat="40.0713874" lon="-105.2297756">
  <ele>1583.0</ele>
  <time>2026-08-28T17:55:35Z</time>
  <course>294.09</course>
  <speed>15.04</speed>
  <fix>3d</fix>
</trkpt>
<trkpt lat="40.0713772" lon="-105.2298179">
  <ele>1583.03</ele>
  <time>2026-08-28T17:55:35Z</time>
  <course>204.57</course>
  <speed>18.53188063851049</speed>
  <fix>3d</fix>
</trkpt>
<trkpt lat="40.0713874" lon="-105.2297756">
  <ele>1583.0</ele>
  <time>2026-08-28T17:55:35Z</time>
  <course>294.09</course>
  <speed>15.04</speed>
  <fix>3d</fix>
</trkpt>
<trkpt lat="40.0713603" lon="-105.2298177">
  <ele>1583.03</ele>
  <time>2026-08-28T17:55:35Z</time>
  <course>168.59</course>
  <speed>18.79780040323867</speed>
  <fix>3d</fix>
</trkpt>
<trkpt lat="40.0713822" lon="-105.2298079">
  <ele>1583.0</ele>
  <time>2026-08-28T17:55:35Z</time>
  <course>222.13</course>
  <speed>15.11</speed>
  <fix>3d</fix>
</trkpt>
<trkpt lat="40.0713471" lon="-105.2298047">
  <ele>1583.01</ele>
  <time>2026-08-28T17:55:35Z</time>
  <course>132.68</course>
  <speed>18.980121179802833</speed>
  <fix>3d</fix>
</trkpt>
<trkpt lat="40.0713822" lon="-105.2298079">
  <ele>1583.0</ele>
  <time>2026-08-28T17:55:35Z</time>
  <course>222.13</course>
  <speed>15.11</speed>
  <fix>3d</fix>
</trkpt>
<trkpt lat="40.0713417" lon="-105.2297833">
  <ele>1582.96</ele>
  <time>2026-08-28T17:55:35Z</time>
  <course>96.46</course>
  <speed>19.16068109436614</speed>
  <fix>3d</fix>
</trkpt>
<trkpt lat="40.0713569" lon="-105.2298114">
  <ele>1583.0</ele>
  <time>2026-08-28T17:55:35Z</time>
  <course>150.16</course>
  <speed>15.17</speed>
  <fix>3d</fix>
</trkpt>
<trkpt lat="40.0713452" lon="-105.229767">
  <ele>1582.92</ele>
  <time>2026-08-28T17:55:35Z</time>
  <course>67.81</course>
  <speed>19.08994499730159</speed>
  <fix>3d</fix>
</trkpt>
<trkpt lat="40.0713569" lon="-105.2298114">
  <ele>1583.0</ele>
  <time>2026-08-28T17:55:35Z</time>
  <course>150.16</course>
  <speed>15.17</speed>
  <fix>3d</fix>
</trkpt>
<trkpt lat="40.0713575" lon="-105.2297521">
  <ele>1582.85</ele>
  <time>2026-08-28T17:55:35Z</time>
  <course>32.01</course>
  <speed>19.045957576346744</speed>
  <fix>3d</fix>
</trkpt>
<trkpt lat="40.0713465" lon="-105.229781">
  <ele>1583.0</ele>
  <time>2026-08-28T17:55:35Z</time>
  <course>78.2</course>
  <speed>15.22</speed>
  <fix>3d</fix>
</trkpt>
<trkpt lat="40.0713744" lon="-105.2297502">
  <ele>1582.8</ele>
  <time>2026-08-28T17:55:35Z</time>
  <course>356.18</course>
  <speed>18.972696171077004</speed>
  <fix>3d</fix>
</trkpt>
<trkpt lat="40.0713465" lon="-105.229781">
  <ele>1583.0</ele>
  <time>2026-08-28T17:55:35Z</time>
  <course>78.2</course>
  <speed>15.22</speed>
  <fix>3d</fix>
</trkpt>
<trkpt lat="40.0713896" lon="-105.229761">
  <ele>1582.8</ele>
  <time>2026-08-28T17:55:35Z</time>
  <course>320.61</course>
  <speed>18.92434675226598</speed>
  <fix>3d</fix>
</trkpt>
<trkpt lat="40.0713655" lon="-105.2297586">
  <ele>1583.0</ele>
  <time>2026-08-28T17:55:35Z</time>
  <course>6.24</course>
  <speed>15.27</speed>
  <fix>3d</fix>
</trkpt>
<trkpt lat="40.0713971" lon="-105.2297815">
  <ele>1582.86</ele>
  <time>2026-08-28T17:55:35Z</time>
  <course>284.65</course>
  <speed>18.81193238346343</speed>
  <fix>3d</fix>
</trkpt>
<trkpt lat="40.0713655" lon="-105.2297586">
  <ele>1583.0</ele>
  <time>2026-08-28T17:55:35Z</time>
  <course>6.24</course>
  <speed>15.27</speed>
  <fix>3d</fix>
</trkpt>
<trkpt lat="40.0713946" lon="-105.2298043">
  <ele>1582.98</ele>
  <time>2026-08-28T17:55:35Z</time>
  <course>248.59</course>
  <speed>18.75025333162195</speed>
  <fix>3d</fix>
</trkpt>
<trkpt lat="40.0713877" lon="-105.2297753">
  <ele>1583.0</ele>
  <time>2026-08-28T17:55:35Z</time>
  <course>294.27</course>
  <speed>15.32</speed>
  <fix>3d</fix>
</trkpt>
<trkpt lat="40.0713823" lon="-105.22982">
  <ele>1583.08</ele>
  <time>2026-08-28T17:55:35Z</time>
  <course>212.41</course>
  <speed>18.774250983727686</speed>
  <fix>3d</fix>
</trkpt>
<trkpt lat="40.0713877" lon="-105.2297753">
  <ele>1583.0</ele>
  <time>2026-08-28T17:55:35Z</time>
  <course>294.27</course>
  <speed>15.32</speed>
  <fix>3d</fix>
</trkpt>
<trkpt lat="40.0713648" lon="-105.2298237">
  <ele>1583.11</ele>
  <time>2026-08-28T17:55:35Z</time>
  <course>175.98</course>
  <speed>18.950593658247225</speed>
  <fix>3d</fix>
</trkpt>
<trkpt lat="40.0713825" lon="-105.2298082">
  <ele>1583.0</ele>
  <time>2026-08-28T17:55:35Z</time>
  <course>222.31</course>
  <speed>15.36</speed>
  <fix>3d</fix>
</trkpt>
<trkpt lat="40.0713494" lon="-105.2298128">
  <ele>1583.04</ele>
  <time>2026-08-28T17:55:35Z</time>
  <course>139.85</course>
  <speed>19.185997498175592</speed>
  <fix>3d</fix>
</trkpt>
<trkpt lat="40.0713825" lon="-105.2298082">
  <ele>1583.0</ele>
  <time>2026-08-28T17:55:35Z</time>
  <course>222.31</course>
  <speed>15.36</speed>
  <fix>3d</fix>
</trkpt>
<trkpt lat="40.0713408" lon="-105.2297874">
  <ele>1582.87</ele>
  <time>2026-08-28T17:55:35Z</time>
  <course>96.4</course>
  <speed>19.410628531812154</speed>
  <fix>3d</fix>
</trkpt>
<trkpt lat="40.0713568" lon="-105.2298119">
  <ele>1583.0</ele>
  <time>2026-08-28T17:55:35Z</time>
  <course>150.34</course>
  <speed>15.4</speed>
  <fix>3d</fix>
</trkpt>
<trkpt lat="40.0713458" lon="-105.2297655">
  <ele>1582.77</ele>
  <time>2026-08-28T17:55:35Z</time>
  <course>60.25</course>
  <speed>19.388463064410235</speed>
  <fix>3d</fix>
</trkpt>
<trkpt lat="40.0713568" lon="-105.2298119">
  <ele>1583.0</ele>
  <time>2026-08-28T17:55:35Z</time>
  <course>150.34</course>
  <speed>15.4</speed>
  <fix>3d</fix>
</trkpt>
<trkpt lat="40.0713593" lon="-105.2297513">
  <ele>1582.74</ele>
  <time>2026-08-28T17:55:35Z</time>
  <course>24.24</course>
  <speed>19.189280861981253</speed>
  <fix>3d</fix>
</trkpt>
<trkpt lat="40.0713462" lon="-105.2297811">
  <ele>1583.0</ele>
  <time>2026-08-28T17:55:35Z</time>
  <course>78.37</course>
  <speed>15.43</speed>
  <fix>3d</fix>
</trkpt>
<trkpt lat="40.0713764" lon="-105.2297509">
  <ele>1582.8</ele>
  <time>2026-08-28T17:55:35Z</time>
  <course>348.3</course>
  <speed>18.860076882133857</speed>
  <fix>3d</fix>
</trkpt>
<trkpt lat="40.0713462" lon="-105.2297811">
  <ele>1583.0</ele>
  <time>2026-08-28T17:55:35Z</time>
  <course>78.37</course>
  <speed>15.43</speed>
  <fix>3d</fix>
</trkpt>
<trkpt lat="40.0713905" lon="-105.2297636">
  <ele>1582.89</ele>
  <time>2026-08-28T17:55:35Z</time>
  <course>312.29</course>
  <speed>18.648608527179714</speed>
  <fix>3d</fix>
</trkpt>
<trkpt lat="40.0713654" lon="-105.2297582">
  <ele>1583.0</ele>
  <time>2026-08-28T17:55:35Z</time>
  <course>6.4</course>
  <speed>15.47</speed>
  <fix>3d</fix>
</trkpt>
<trkpt lat="40.0713958" lon="-105.2297849">
  <ele>1582.97</ele>
  <time>2026-08-28T17:55:35Z</time>
  <course>276.23</course>
  <speed>18.629401493338424</speed>
  <fix>3d</fix>
</trkpt>
<trkpt lat="40.0713654" lon="-105.2297582">
  <ele>1583.0</ele>
  <time>2026-08-28T17:55:35Z</time>
  <course>6.4</course>
  <speed>15.47</speed>
  <fix>3d</fix>
</trkpt>
<trkpt lat="40.0713909" lon="-105.2298067">
  <ele>1583.01</ele>
  <time>2026-08-28T17:55:35Z</time>
  <course>240.19</course>
  <speed>18.81592144966597</speed>
  <fix>3d</fix>
</trkpt>
<trkpt lat="40.0713879" lon="-105.2297752">
  <ele>1583.0</ele>
  <time>2026-08-28T17:55:35Z</time>
  <course>294.29</course>
  <speed>15.46</speed>
  <fix>3d</fix>
</trkpt>
<trkpt lat="40.0713772" lon="-105.2298194">
  <ele>1583.01</ele>
  <time>2026-08-28T17:55:35Z</time>
  <course>204.19</course>
  <speed>19.020672963909558</speed>
  <fix>3d</fix>
</trkpt>
<trkpt lat="40.0713879" lon="-105.2297752">
  <ele>1583.0</ele>
  <time>2026-08-28T17:55:35Z</time>
  <course>294.29</course>
  <speed>15.46</speed>
  <fix>3d</fix>
</trkpt>
<trkpt lat="40.07136" lon="-105.2298194">
  <ele>1583.0</ele>
  <time>2026-08-28T17:55:35Z</time>
  <course>168.18</course>
  <speed>19.331864886761444</speed>
  <fix>3d</fix>
</trkpt>
<trkpt lat="40.0713825" lon="-105.2298085">
  <ele>1583.0</ele>
  <time>2026-08-28T17:55:35Z</time>
  <course>222.17</course>
  <speed>15.52</speed>
  <fix>3d</fix>
</trkpt>
<trkpt lat="40.0713466" lon="-105.2298061">
  <ele>1582.97</ele>
  <time>2026-08-28T17:55:35Z</time>
  <course>132.26</course>
  <speed>19.504894257595964</speed>
  <fix>3d</fix>
</trkpt>
<trkpt lat="40.0713825" lon="-105.2298085">
  <ele>1583.0</ele>
  <time>2026-08-28T17:55:35Z</time>
  <course>222.17</course>
  <speed>15.52</speed>
  <fix>3d</fix>
</trkpt>
<trkpt lat="40.0713412" lon="-105.2297844">
  <ele>1582.93</ele>
  <time>2026-08-28T17:55:35Z</time>
  <course>96.37</course>
  <speed>19.660155136722597</speed>
  <fix>3d</fix>
</trkpt>
<trkpt lat="40.0713566" lon="-105.2298121">
  <ele>1583.0</ele>
  <time>2026-08-28T17:55:35Z</time>
  <course>150.2</course>
  <speed>15.54</speed>
  <fix>3d</fix>
</trkpt>
<trkpt lat="40.0713468" lon="-105.2297638">
  <ele>1582.87</ele>
  <time>2026-08-28T17:55:35Z</time>
  <course>60.29</course>
  <speed>19.54667490904783</speed>
  <fix>3d</fix>
</trkpt>
<trkpt lat="40.0713566" lon="-105.2298121">
  <ele>1583.0</ele>
  <time>2026-08-28T17:55:35Z</time>
  <course>150.2</course>
  <speed>15.54</speed>
  <fix>3d</fix>
</trkpt>
<trkpt lat="40.0713575" lon="-105.2297522">
  <ele>1582.81</ele>
  <time>2026-08-28T17:55:35Z</time>
  <course>31.65</course>
  <speed>19.473461428313147</speed>
  <fix>3d</fix>
</trkpt>
<trkpt lat="40.071346" lon="-105.2297809">
  <ele>1583.0</ele>
  <time>2026-08-28T17:55:35Z</time>
  <course>78.23</course>
  <speed>15.57</speed>
  <fix>3d</fix>
</trkpt>
<trkpt lat="40.0713747" lon="-105.2297501">
  <ele>1582.76</ele>
  <time>2026-08-28T17:55:35Z</time>
  <course>355.83</course>
  <speed>19.33846167615201</speed>
  <fix>3d</fix>
</trkpt>
<trkpt lat="40.071346" lon="-105.2297809">
  <ele>1583.0</ele>
  <time>2026-08-28T17:55:35Z</time>
  <course>78.23</course>
  <speed>15.57</speed>
  <fix>3d</fix>
</trkpt>
<trkpt lat="40.0713905" lon="-105.229761">
  <ele>1582.74</ele>
  <time>2026-08-28T17:55:35Z</time>
  <course>319.95</course>
  <speed>19.208399204514677</speed>
  <fix>3d</fix>
</trkpt>
<trkpt lat="40.0713654" lon="-105.229758">
  <ele>1583.0</ele>
  <time>2026-08-28T17:55:35Z</time>
  <course>6.26</course>
  <speed>15.59</speed>
  <fix>3d</fix>
</trkpt>
<trkpt lat="40.0713978" lon="-105.2297815">
  <ele>1582.81</ele>
  <time>2026-08-28T17:55:35Z</time>
  <course>284.29</course>
  <speed>19.023396121618244</speed>
  <fix>3d</fix>
</trkpt>
<trkpt lat="40.0713654" lon="-105.229758">
  <ele>1583.0</ele>
  <time>2026-08-28T17:55:35Z</time>
  <course>6.26</course>
  <speed>15.59</speed>
  <fix>3d</fix>
</trkpt>
<trkpt lat="40.0713952" lon="-105.2298043">
  <ele>1582.95</ele>
  <time>2026-08-28T17:55:35Z</time>
  <course>248.22</course>
  <speed>18.910835518294796</speed>
  <fix>3d</fix>
</trkpt>
<trkpt lat="40.0713881" lon="-105.229775">
  <ele>1583.0</ele>
  <time>2026-08-28T17:55:35Z</time>
  <course>294.29</course>
  <speed>15.6</speed>
  <fix>3d</fix>
</trkpt>
<trkpt lat="40.0713827" lon="-105.22982">
  <ele>1583.07</ele>
  <time>2026-08-28T17:55:35Z</time>
  <course>212.01</course>
  <speed>18.97650125813502</speed>
  <fix>3d</fix>
</trkpt>
<trkpt lat="40.0713881" lon="-105.229775">
  <ele>1583.0</ele>
  <time>2026-08-28T17:55:35Z</time>
  <course>294.29</course>
  <speed>15.6</speed>
  <fix>3d</fix>
</trkpt>
<trkpt lat="40.0713651" lon="-105.2298235">
  <ele>1583.13</ele>
  <time>2026-08-28T17:55:35Z</time>
  <course>175.89</course>
  <speed>19.252119363851865</speed>
  <fix>3d</fix>
</trkpt>
<trkpt lat="40.0713827" lon="-105.2298085">
  <ele>1583.0</ele>
  <time>2026-08-28T17:55:35Z</time>
  <course>222.32</course>
  <speed>15.62</speed>
  <fix>3d</fix>
</trkpt>
<trkpt lat="40.0713494" lon="-105.2298122">
  <ele>1583.05</ele>
  <time>2026-08-28T17:55:35Z</time>
  <course>139.52</course>
  <speed>19.565676579152584</speed>
  <fix>3d</fix>
</trkpt>
<trkpt lat="40.0713827" lon="-105.2298085">
  <ele>1583.0</ele>
  <time>2026-08-28T17:55:35Z</time>
  <course>222.32</course>
  <speed>15.62</speed>
  <fix>3d</fix>
</trkpt>
<trkpt lat="40.0713411" lon="-105.229791">
  <ele>1582.89</ele>
  <time>2026-08-28T17:55:35Z</time>
  <course>103.35</course>
  <speed>19.816924584808813</speed>
  <fix>3d</fix>
</trkpt>
<trkpt lat="40.0713566" lon="-105.2298122">
  <ele>1583.0</ele>
  <time>2026-08-28T17:55:35Z</time>
  <course>150.35</course>
  <speed>15.64</speed>
  <fix>3d</fix>
</trkpt>
<trkpt lat="40.071346" lon="-105.2297642">
  <ele>1582.72</ele>
  <time>2026-08-28T17:55:35Z</time>
  <course>59.96</course>
  <speed>19.803131065566376</speed>
  <fix>3d</fix>
</trkpt>
<trkpt lat="40.0713566" lon="-105.2298122">
  <ele>1583.0</ele>
  <time>2026-08-28T17:55:35Z</time>
  <course>150.35</course>
  <speed>15.64</speed>
  <fix>3d</fix>
</trkpt>
<trkpt lat="40.0713597" lon="-105.2297497">
  <ele>1582.67</ele>
  <time>2026-08-28T17:55:35Z</time>
  <course>24.0</course>
  <speed>19.54077019976439</speed>
  <fix>3d</fix>
</trkpt>
<trkpt lat="40.0713459" lon="-105.229781">
  <ele>1583.0</ele>
  <time>2026-08-28T17:55:35Z</time>
  <course>78.38</course>
  <speed>15.65</speed>
  <fix>3d</fix>
</trkpt>
<trkpt lat="40.071377" lon="-105.2297493">
  <ele>1582.75</ele>
  <time>2026-08-28T17:55:35Z</time>
  <course>348.12</course>
  <speed>19.093883837501473</speed>
  <fix>3d</fix>
</trkpt>
<trkpt lat="40.0713459" lon="-105.229781">
  <ele>1583.0</ele>
  <time>2026-08-28T17:55:35Z</time>
  <course>78.38</course>
  <speed>15.65</speed>
  <fix>3d</fix>
</trkpt>
<trkpt lat="40.0713913" lon="-105.2297621">
  <ele>1582.87</ele>
  <time>2026-08-28T17:55:35Z</time>
  <course>312.12</course>
  <speed>18.74973333143701</speed>
  <fix>3d</fix>
</trkpt>
<trkpt lat="40.0713653" lon="-105.2297579">
  <ele>1583.0</ele>
  <time>2026-08-28T17:55:35Z</time>
  <course>6.41</course>
  <speed>15.66</speed>
  <fix>3d</fix>
</trkpt>
<trkpt lat="40.0713965" lon="-105.2297835">
  <ele>1582.97</ele>
  <time>2026-08-28T17:55:35Z</time>
  <course>276.04</course>
  <speed>18.687562708924887</speed>
  <fix>3d</fix>
</trkpt>
<trkpt lat="40.0713653" lon="-105.2297579">
  <ele>1583.0</ele>
  <time>2026-08-28T17:55:35Z</time>
  <course>6.41</course>
  <speed>15.66</speed>
  <fix>3d</fix>
</trkpt>
<trkpt lat="40.0713915" lon="-105.2298054">
  <ele>1583.01</ele>
  <time>2026-08-28T17:55:35Z</time>
  <course>240.01</course>
  <speed>18.897857021366207</speed>
  <fix>3d</fix>
</trkpt>
<trkpt lat="40.0713881" lon="-105.229775">
  <ele>1583.0</ele>
  <time>2026-08-28T17:55:35Z</time>
  <course>294.29</course>
  <speed>15.65</speed>
  <fix>3d</fix>
</trkpt>
<trkpt lat="40.0713776" lon="-105.2298183">
  <ele>1582.99</ele>
  <time>2026-08-28T17:55:35Z</time>
  <course>204.01</course>
  <speed>19.185976649626156</speed>
  <fix>3d</fix>
</trkpt>
<trkpt lat="40.0713881" lon="-105.229775">
  <ele>1583.0</ele>
  <time>2026-08-28T17:55:35Z</time>
  <course>294.29</course>
  <speed>15.65</speed>
  <fix>3d</fix>
</trkpt>
<trkpt lat="40.0713602" lon="-105.2298182">
  <ele>1582.96</ele>
  <time>2026-08-28T17:55:35Z</time>
  <course>167.99</course>
  <speed>19.56406143928198</speed>
  <fix>3d</fix>
</trkpt>
<trkpt lat="40.0713827" lon="-105.2298087">
  <ele>1583.0</ele>
  <time>2026-08-28T17:55:35Z</time>
  <course>222.17</course>
  <speed>15.69</speed>
  <fix>3d</fix>
</trkpt>
<trkpt lat="40.0713467" lon="-105.2298048">
  <ele>1582.93</ele>
  <time>2026-08-28T17:55:35Z</time>
  <course>132.08</course>
  <speed>19.785135834762418</speed>
  <fix>3d</fix>
</trkpt>
<trkpt lat="40.0713827" lon="-105.2298087">
  <ele>1583.0</ele>
  <time>2026-08-28T17:55:35Z</time>
  <course>222.17</course>
  <speed>15.69</speed>
  <fix>3d</fix>
</trkpt>
<trkpt lat="40.0713413" lon="-105.229783">
  <ele>1582.91</ele>
  <time>2026-08-28T17:55:35Z</time>
  <course>96.19</course>
  <speed>19.93728416811076</speed>
  <fix>3d</fix>
</trkpt>
<trkpt lat="40.0713566" lon="-105.2298123">
  <ele>1583.0</ele>
  <time>2026-08-28T17:55:35Z</time>
  <course>150.2</course>
  <speed>15.7</speed>
  <fix>3d</fix>
</trkpt>
<trkpt lat="40.0713469" lon="-105.2297624">
  <ele>1582.88</ele>
  <time>2026-08-28T17:55:35Z</time>
  <course>60.43</course>
  <speed>19.803156314082866</speed>
  <fix>3d</fix>
</trkpt>
<trkpt lat="40.0713566" lon="-105.2298123">
  <ele>1583.0</ele>
  <time>2026-08-28T17:55:35Z</time>
  <course>150.2</course>
  <speed>15.7</speed>
  <fix>3d</fix>
</trkpt>
<trkpt lat="40.0713578" lon="-105.2297506">
  <ele>1582.82</ele>
  <time>2026-08-28T17:55:35Z</time>
  <course>31.51</course>
  <speed>19.69295559330798</speed>
  <fix>3d</fix>
</trkpt>
<trkpt lat="40.0713458" lon="-105.2297809">
  <ele>1583.0</ele>
  <time>2026-08-28T17:55:35Z</time>
  <course>78.23</course>
  <speed>15.71</speed>
  <fix>3d</fix>
</trkpt>
<trkpt lat="40.0713752" lon="-105.2297486">
  <ele>1582.76</ele>
  <time>2026-08-28T17:55:35Z</time>
  <course>355.68</course>
  <speed>19.50725506061783</speed>
  <fix>3d</fix>
</trkpt>
<trkpt lat="40.0713458" lon="-105.2297809">
  <ele>1583.0</ele>
  <time>2026-08-28T17:55:35Z</time>
  <course>78.23</course>
  <speed>15.71</speed>
  <fix>3d</fix>
</trkpt>
<trkpt lat="40.071391" lon="-105.2297596">
  <ele>1582.73</ele>
  <time>2026-08-28T17:55:35Z</time>
  <course>319.8</course>
  <speed>19.336168182967377</speed>
  <fix>3d</fix>
</trkpt>
<trkpt lat="40.0713654" lon="-105.2297577">
  <ele>1583.0</ele>
  <time>2026-08-28T17:55:35Z</time>
  <course>6.26</course>
  <speed>15.72</speed>
  <fix>3d</fix>
</trkpt>
<trkpt lat="40.0713984" lon="-105.2297803">
  <ele>1582.78</ele>
  <time>2026-08-28T17:55:35Z</time>
  <course>284.15</course>
  <speed>19.12338097722262</speed>
  <fix>3d</fix>
</trkpt>
<trkpt lat="40.0713654" lon="-105.2297577">
  <ele>1583.0</ele>
  <time>2026-08-28T17:55:35Z</time>
  <course>6.26</course>
  <speed>15.72</speed>
  <fix>3d</fix>
</trkpt>
<trkpt lat="40.0713958" lon="-105.2298033">
  <ele>1582.92</ele>
  <time>2026-08-28T17:55:35Z</time>
  <course>248.1</course>
  <speed>18.98153313091437</speed>
  <fix>3d</fix>
</trkpt>
<trkpt lat="40.0713882" lon="-105.2297749">
  <ele>1583.0</ele>
  <time>2026-08-28T17:55:35Z</time>
  <course>294.29</course>
  <speed>15.72</speed>
  <fix>3d</fix>
</trkpt>
<trkpt lat="40.0713832" lon="-105.2298191">
  <ele>1583.07</ele>
  <time>2026-08-28T17:55:35Z</time>
  <course>211.88</course>
  <speed>19.033194687177453</speed>
  <fix>3d</fix>
</trkpt>
<trkpt lat="40.0713882" lon="-105.2297749">
  <ele>1583.0</ele>
  <time>2026-08-28T17:55:35Z</time>
  <course>294.29</course>
  <speed>15.72</speed>
  <fix>3d</fix>
</trkpt>
<trkpt lat="40.0713655" lon="-105.2298225">
  <ele>1583.15</ele>
  <time>2026-08-28T17:55:35Z</time>
  <course>175.75</course>
  <speed>19.34095395785844</speed>
  <fix>3d</fix>
</trkpt>
<trkpt lat="40.0713828" lon="-105.2298087">
  <ele>1583.0</ele>
  <time>2026-08-28T17:55:35Z</time>
  <course>222.32</course>
  <speed>15.73</speed>
  <fix>3d</fix>
</trkpt>
<trkpt lat="40.0713498" lon="-105.2298113">
  <ele>1583.08</ele>
  <time>2026-08-28T17:55:35Z</time>
  <course>139.72</course>
  <speed>19.69293528146579</speed>
  <fix>3d</fix>
</trkpt>
<trkpt lat="40.0713828" lon="-105.2298087">
  <ele>1583.0</ele>
  <time>2026-08-28T17:55:35Z</time>
  <course>222.32</course>
  <speed>15.73</speed>
  <fix>3d</fix>
</trkpt>
<trkpt lat="40.0713415" lon="-105.2297899">
  <ele>1582.91</ele>
  <time>2026-08-28T17:55:35Z</time>
  <course>103.29</course>
  <speed>19.984346374099903</speed>
  <fix>3d</fix>
</trkpt>
<trkpt lat="40.0713566" lon="-105.2298124">
  <ele>1583.0</ele>
  <time>2026-08-28T17:55:35Z</time>
  <course>150.35</course>
  <speed>15.74</speed>
  <fix>3d</fix>
</trkpt>
<trkpt lat="40.0713445" lon="-105.2297671">
  <ele>1582.74</ele>
  <time>2026-08-28T17:55:35Z</time>
  <course>67.1</course>
  <speed>20.012118828349983</speed>
  <fix>3d</fix>
</trkpt>
<trkpt lat="40.0713566" lon="-105.2298124">
  <ele>1583.0</ele>
  <time>2026-08-28T17:55:35Z</time>
  <course>150.35</course>
  <speed>15.74</speed>
  <fix>3d</fix>
</trkpt>
<trkpt lat="40.0713602" lon="-105.2297485">
  <ele>1582.66</ele>
  <time>2026-08-28T17:55:35Z</time>
  <course>23.93</course>
  <speed>19.72846167343009</speed>
  <fix>3d</fix>
</trkpt>
<trkpt lat="40.0713458" lon="-105.229781">
  <ele>1583.0</ele>
  <time>2026-08-28T17:55:35Z</time>
  <course>78.38</course>
  <speed>15.75</speed>
  <fix>3d</fix>
</trkpt>
<trkpt lat="40.0713776" lon="-105.2297481">
  <ele>1582.74</ele>
  <time>2026-08-28T17:55:35Z</time>
  <course>348.09</course>
  <speed>19.235313878385245</speed>
  <fix>3d</fix>
</trkpt>
<trkpt lat="40.0713458" lon="-105.229781">
  <ele>1583.0</ele>
  <time>2026-08-28T17:55:35Z</time>
  <course>78.38</course>
  <speed>15.75</speed>
  <fix>3d</fix>
</trkpt>
<trkpt lat="40.0713919" lon="-105.2297609">
  <ele>1582.87</ele>
  <time>2026-08-28T17:55:35Z</time>
  <course>312.09</course>
  <speed>18.830520438904497</speed>
  <fix>3d</fix>
</trkpt>
<trkpt lat="40.0713652" lon="-105.2297577">
  <ele>1583.0</ele>
  <time>2026-08-28T17:55:35Z</time>
  <course>6.41</course>
  <speed>15.75</speed>
  <fix>3d</fix>
</trkpt>
<trkpt lat="40.0713971" lon="-105.2297825">
  <ele>1582.99</ele>
  <time>2026-08-28T17:55:35Z</time>
  <course>275.99</course>
  <speed>18.73839107287496</speed>
  <fix>3d</fix>
</trkpt>
<trkpt lat="40.0713652" lon="-105.2297577">
  <ele>1583.0</ele>
  <time>2026-08-28T17:55:35Z</time>
  <course>6.41</course>
  <speed>15.75</speed>
  <fix>3d</fix>
</trkpt>
<trkpt lat="40.0713921" lon="-105.2298045">
  <ele>1583.03</ele>
  <time>2026-08-28T17:55:35Z</time>
  <course>239.97</course>
  <speed>18.95092609874251</speed>
  <fix>3d</fix>
</trkpt>
<trkpt lat="40.0713882" lon="-105.2297749">
  <ele>1583.0</ele>
  <time>2026-08-28T17:55:35Z</time>
  <course>294.29</course>
  <speed>15.73</speed>
  <fix>3d</fix>
</trkpt>
<trkpt lat="40.0713781" lon="-105.2298175">
  <ele>1582.99</ele>
  <time>2026-08-28T17:55:35Z</time>
  <course>203.98</course>
  <speed>19.26171591525532</speed>
  <fix>3d</fix>
</trkpt>
<trkpt lat="40.0713882" lon="-105.2297749">
  <ele>1583.0</ele>
  <time>2026-08-28T17:55:35Z</time>
  <course>294.29</course>
  <speed>15.73</speed>
  <fix>3d</fix>
</trkpt>
<trkpt lat="40.0713606" lon="-105.2298175">
  <ele>1582.94</ele>
  <time>2026-08-28T17:55:35Z</time>
  <course>167.95</course>
  <speed>19.66774516816811</speed>
  <fix>3d</fix>
</trkpt>
<trkpt lat="40.0713828" lon="-105.2298088">
  <ele>1583.0</ele>
  <time>2026-08-28T17:55:35Z</time>
  <course>222.17</course>
  <speed>15.77</speed>
  <fix>3d</fix>
</trkpt>
<trkpt lat="40.0713469" lon="-105.2298042">
  <ele>1582.9</ele>
  <time>2026-08-28T17:55:35Z</time>
  <course>132.03</course>
  <speed>19.886985694166928</speed>
  <fix>3d</fix>
</trkpt>
<trkpt lat="40.0713828" lon="-105.2298088">
  <ele>1583.0</ele>
  <time>2026-08-28T17:55:35Z</time>
  <course>222.17</course>
  <speed>15.77</speed>
  <fix>3d</fix>
</trkpt>
<trkpt lat="40.0713415" lon="-105.2297823">
  <ele>1582.89</ele>
  <time>2026-08-28T17:55:35Z</time>
  <course>96.14</course>
  <speed>20.02720649516552</speed>
  <fix>3d</fix>
</trkpt>
<trkpt lat="40.0713566" lon="-105.2298124">
  <ele>1583.0</ele>
  <time>2026-08-28T17:55:35Z</time>
  <course>150.2</course>
  <speed>15.77</speed>
  <fix>3d</fix>
</trkpt>
<trkpt lat="40.0713471" lon="-105.2297617">
  <ele>1582.88</ele>
  <time>2026-08-28T17:55:35Z</time>
  <course>60.38</course>
  <speed>19.88606044444198</speed>
  <fix>3d</fix>
</trkpt>
<trkpt lat="40.0713566" lon="-105.2298124">
  <ele>1583.0</ele>
  <time>2026-08-28T17:55:35Z</time>
  <course>150.2</course>
  <speed>15.77</speed>
  <fix>3d</fix>
</trkpt>
<trkpt lat="40.0713613" lon="-105.2297483">
  <ele>1582.82</ele>
  <time>2026-08-28T17:55:35Z</time>
  <course>24.6</course>
  <speed>19.750615180292485</speed>
  <fix>3d</fix>
</trkpt>
<trkpt lat="40.0713457" lon="-105.2297808">
  <ele>1583.0</ele>
  <time>2026-08-28T17:55:35Z</time>
  <course>78.23</course>
  <speed>15.78</speed>
  <fix>3d</fix>
</trkpt>
<trkpt lat="40.071375" lon="-105.2297479">
  <ele>1582.76</ele>
  <time>2026-08-28T17:55:35Z</time>
  <course>355.7</course>
  <speed>19.539419131591398</speed>
  <fix>3d</fix>
</trkpt>
<trkpt lat="40.0713457" lon="-105.2297808">
  <ele>1583.0</ele>
  <time>2026-08-28T17:55:35Z</time>
  <course>78.23</course>
  <speed>15.78</speed>
  <fix>3d</fix>
</trkpt>
<trkpt lat="40.0713904" lon="-105.2297591">
  <ele>1582.7</ele>
  <time>2026-08-28T17:55:35Z</time>
  <course>319.92</course>
  <speed>19.354722937825795</speed>
  <fix>3d</fix>
</trkpt>
<trkpt lat="40.0713653" lon="-105.2297576">
  <ele>1583.0</ele>
  <time>2026-08-28T17:55:35Z</time>
  <course>6.25</course>
  <speed>15.78</speed>
  <fix>3d</fix>
</trkpt>
<trkpt lat="40.0713975" lon="-105.2297803">
  <ele>1582.74</ele>
  <time>2026-08-28T17:55:35Z</time>
  <course>284.09</course>
  <speed>19.213758091534306</speed>
  <fix>3d</fix>
</trkpt>
<trkpt lat="40.0713653" lon="-105.2297576">
  <ele>1583.0</ele>
  <time>2026-08-28T17:55:35Z</time>
  <course>6.25</course>
  <speed>15.78</speed>
  <fix>3d</fix>
</trkpt>
<trkpt lat="40.0713947" lon="-105.2298032">
  <ele>1582.88</ele>
  <time>2026-08-28T17:55:35Z</time>
  <course>248.42</course>
  <speed>19.142251696182452</speed>
  <fix>3d</fix>
</trkpt>
<trkpt lat="40.0713882" lon="-105.2297749">
  <ele>1583.0</ele>
  <time>2026-08-28T17:55:35Z</time>
  <course>294.28</course>
  <speed>15.79</speed>
  <fix>3d</fix>
</trkpt>
<trkpt lat="40.0713819" lon="-105.2298193">
  <ele>1583.05</ele>
  <time>2026-08-28T17:55:35Z</time>
  <course>212.22</course>
  <speed>19.240608098498342</speed>
  <fix>3d</fix>
</trkpt>
<trkpt lat="40.0713882" lon="-105.2297749">
  <ele>1583.0</ele>
  <time>2026-08-28T17:55:35Z</time>
  <course>294.28</course>
  <speed>15.79</speed>
  <fix>3d</fix>
</trkpt>
<trkpt lat="40.0713641" lon="-105.2298229">
  <ele>1583.14</ele>
  <time>2026-08-28T17:55:35Z</time>
  <course>176.08</course>
  <speed>19.527621462943202</speed>
  <fix>3d</fix>
</trkpt>
<trkpt lat="40.0713828" lon="-105.2298088">
  <ele>1583.0</ele>
  <time>2026-08-28T17:55:35Z</time>
  <course>222.31</course>
  <speed>15.79</speed>
  <fix>3d</fix>
</trkpt>
<trkpt lat="40.0713482" lon="-105.2298118">
  <ele>1583.07</ele>
  <time>2026-08-28T17:55:35Z</time>
  <course>140.09</course>
  <speed>19.835889191059724</speed>
  <fix>3d</fix>
</trkpt>
<trkpt lat="40.0713828" lon="-105.2298088">
  <ele>1583.0</ele>
  <time>2026-08-28T17:55:35Z</time>
  <course>222.31</course>
  <speed>15.79</speed>
  <fix>3d</fix>
</trkpt>
<trkpt lat="40.0713397" lon="-105.2297904">
  <ele>1582.87</ele>
  <time>2026-08-28T17:55:35Z</time>
  <course>103.66</course>
  <speed>20.05667220652519</speed>
  <fix>3d</fix>
</trkpt>
<trkpt lat="40.0713566" lon="-105.2298126">
  <ele>1583.0</ele>
  <time>2026-08-28T17:55:35Z</time>
  <course>150.34</course>
  <speed>15.79</speed>
  <fix>3d</fix>
</trkpt>
<trkpt lat="40.0713427" lon="-105.2297675">
  <ele>1582.68</ele>
  <time>2026-08-28T17:55:35Z</time>
  <course>67.43</course>
  <speed>20.030988492832797</speed>
  <fix>3d</fix>
</trkpt>
<trkpt lat="40.0713566" lon="-105.2298126">
  <ele>1583.0</ele>
  <time>2026-08-28T17:55:35Z</time>
  <course>150.34</course>
  <speed>15.79</speed>
  <fix>3d</fix>
</trkpt>
<trkpt lat="40.0713551" lon="-105.2297503">
  <ele>1582.59</ele>
  <time>2026-08-28T17:55:35Z</time>
  <course>31.43</course>
  <speed>19.802853329760335</speed>
  <fix>3d</fix>
</trkpt>
<trkpt lat="40.0713457" lon="-105.229781">
  <ele>1583.0</ele>
  <time>2026-08-28T17:55:35Z</time>
  <course>78.37</course>
  <speed>15.8</speed>
  <fix>3d</fix>
</trkpt>
<trkpt lat="40.0713759" lon="-105.229748">
  <ele>1582.69</ele>
  <time>2026-08-28T17:55:35Z</time>
  <course>348.42</course>
  <speed>19.198593698497813</speed>
  <fix>3d</fix>
</trkpt>
<trkpt lat="40.0713457" lon="-105.229781">
  <ele>1583.0</ele>
  <time>2026-08-28T17:55:35Z</time>
  <course>78.37</course>
  <speed>15.8</speed>
  <fix>3d</fix>
</trkpt>
<trkpt lat="40.0713904" lon="-105.2297607">
  <ele>1582.85</ele>
  <time>2026-08-28T17:55:35Z</time>
  <course>312.38</course>
  <speed>18.812796177070542</speed>
  <fix>3d</fix>
</trkpt>
<trkpt lat="40.0713653" lon="-105.2297576">
  <ele>1583.0</ele>
  <time>2026-08-28T17:55:35Z</time>
  <course>6.4</course>
  <speed>15.8</speed>
  <fix>3d</fix>
</trkpt>
<trkpt lat="40.0713958" lon="-105.2297823">
  <ele>1582.98</ele>
  <time>2026-08-28T17:55:35Z</time>
  <course>276.26</course>
  <speed>18.78834213016146</speed>
  <fix>3d</fix>
</trkpt>
<trkpt lat="40.0713653" lon="-105.2297576">
  <ele>1583.0</ele>
  <time>2026-08-28T17:55:35Z</time>
  <course>6.4</course>
  <speed>15.8</speed>
  <fix>3d</fix>
</trkpt>
<trkpt lat="40.0713908" lon="-105.2298044">
  <ele>1583.0</ele>
  <time>2026-08-28T17:55:35Z</time>
  <course>240.25</course>
  <speed>19.07554717432766</speed>
  <fix>3d</fix>
</trkpt>
<trkpt lat="40.0713883" lon="-105.2297748">
  <ele>1583.0</ele>
  <time>2026-08-28T17:55:35Z</time>
  <course>294.43</course>
  <speed>15.81</speed>
  <fix>3d</fix>
</trkpt>
<trkpt lat="40.0713765" lon="-105.2298181">
  <ele>1582.94</ele>
  <time>2026-08-28T17:55:35Z</time>
  <course>204.17</course>
  <speed>19.496217581879826</speed>
  <fix>3d</fix>
</trkpt>
<trkpt lat="40.0713883" lon="-105.2297748">
  <ele>1583.0</ele>
  <time>2026-08-28T17:55:35Z</time>
  <course>294.43</course>
  <speed>15.81</speed>
  <fix>3d</fix>
</trkpt>
<trkpt lat="40.0713585" lon="-105.2298186">
  <ele>1582.87</ele>
  <time>2026-08-28T17:55:35Z</time>
  <course>168.01</course>
  <speed>19.894059414810243</speed>
  <fix>3d</fix>
</trkpt>
<trkpt lat="40.0713829" lon="-105.2298088">
  <ele>1583.0</ele>
  <time>2026-08-28T17:55:35Z</time>
  <course>222.31</course>
  <speed>15.78</speed>
  <fix>3d</fix>
</trkpt>
<trkpt lat="40.0713446" lon="-105.2298056">
  <ele>1582.83</ele>
  <time>2026-08-28T17:55:35Z</time>
  <course>132.0</course>
  <speed>19.997199803972556</speed>
  <fix>3d</fix>
</trkpt>
<trkpt lat="40.0713829" lon="-105.2298088">
  <ele>1583.0</ele>
  <time>2026-08-28T17:55:35Z</time>
  <course>222.31</course>
  <speed>15.78</speed>
  <fix>3d</fix>
</trkpt>
<trkpt lat="40.0713389" lon="-105.2297838">
  <ele>1582.84</ele>
  <time>2026-08-28T17:55:35Z</time>
  <course>96.07</course>
  <speed>19.987598655166156</speed>
  <fix>3d</fix>
</trkpt>
<trkpt lat="40.0713565" lon="-105.2298125">
  <ele>1583.0</ele>
  <time>2026-08-28T17:55:35Z</time>
  <course>150.19</course>
  <speed>15.81</speed>
  <fix>3d</fix>
</trkpt>
<trkpt lat="40.0713445" lon="-105.2297633">
  <ele>1582.86</ele>
  <time>2026-08-28T17:55:35Z</time>
  <course>60.27</course>
  <speed>19.727110786934816</speed>
  <fix>3d</fix>
</trkpt>
<trkpt lat="40.0713565" lon="-105.2298125">
  <ele>1583.0</ele>
  <time>2026-08-28T17:55:35Z</time>
  <course>150.19</course>
  <speed>15.81</speed>
  <fix>3d</fix>
</trkpt>
<trkpt lat="40.0713587" lon="-105.2297499">
  <ele>1582.81</ele>
  <time>2026-08-28T17:55:35Z</time>
  <course>24.48</course>
  <speed>19.589002016437693</speed>
  <fix>3d</fix>
</trkpt>
<trkpt lat="40.0713456" lon="-105.2297809">
  <ele>1583.0</ele>
  <time>2026-08-28T17:55:35Z</time>
  <course>78.21</course>
  <speed>15.82</speed>
  <fix>3d</fix>
</trkpt>
<trkpt lat="40.0713759" lon="-105.2297507">
  <ele>1582.73</ele>
  <time>2026-08-28T17:55:35Z</time>
  <course>348.72</course>
  <speed>19.41507919118539</speed>
  <fix>3d</fix>
</trkpt>
<trkpt lat="40.0713456" lon="-105.2297809">
  <ele>1583.0</ele>
  <time>2026-08-28T17:55:35Z</time>
  <course>78.21</course>
  <speed>15.82</speed>
  <fix>3d</fix>
</trkpt>
<trkpt lat="40.0713881" lon="-105.2297608">
  <ele>1582.67</ele>
  <time>2026-08-28T17:55:35Z</time>
  <course>319.77</course>
  <speed>19.36157276669434</speed>
  <fix>3d</fix>
</trkpt>
<trkpt lat="40.0713654" lon="-105.2297576">
  <ele>1583.0</ele>
  <time>2026-08-28T17:55:35Z</time>
  <course>6.24</course>
  <speed>15.82</speed>
  <fix>3d</fix>
</trkpt>
<trkpt lat="40.0713953" lon="-105.2297821">
  <ele>1582.68</ele>
  <time>2026-08-28T17:55:35Z</time>
  <course>283.92</course>
  <speed>19.321493213517428</speed>
  <fix>3d</fix>
</trkpt>
<trkpt lat="40.0713654" lon="-105.2297576">
  <ele>1583.0</ele>
  <time>2026-08-28T17:55:35Z</time>
  <course>6.24</course>
  <speed>15.82</speed>
  <fix>3d</fix>
</trkpt>
<trkpt lat="40.0713926" lon="-105.2298051">
  <ele>1582.81</ele>
  <time>2026-08-28T17:55:35Z</time>
  <course>247.98</course>
  <speed>19.30813818057039</speed>
  <fix>3d</fix>
</trkpt>
<trkpt lat="40.0713883" lon="-105.2297749">
  <ele>1583.0</ele>
  <time>2026-08-28T17:55:35Z</time>
  <course>294.27</course>
  <speed>15.83</speed>
  <fix>3d</fix>
</trkpt>
<trkpt lat="40.0713799" lon="-105.2298209">
  <ele>1582.99</ele>
  <time>2026-08-28T17:55:35Z</time>
  <course>212.08</course>
  <speed>19.387710024652215</speed>
  <fix>3d</fix>
</trkpt>
<trkpt lat="40.0713883" lon="-105.2297749">
  <ele>1583.0</ele>
  <time>2026-08-28T17:55:35Z</time>
  <course>294.27</course>
  <speed>15.83</speed>
  <fix>3d</fix>
</trkpt>
<trkpt lat="40.0713622" lon="-105.2298244">
  <ele>1583.09</ele>
  <time>2026-08-28T17:55:35Z</time>
  <course>175.93</course>
  <speed>19.636458438323345</speed>
  <fix>3d</fix>
</trkpt>
<trkpt lat="40.0713829" lon="-105.2298088">
  <ele>1583.0</ele>
  <time>2026-08-28T17:55:35Z</time>
  <course>222.3</course>
  <speed>15.83</speed>
  <fix>3d</fix>
</trkpt>
<trkpt lat="40.0713465" lon="-105.2298131">
  <ele>1583.03</ele>
  <time>2026-08-28T17:55:35Z</time>
  <course>139.98</course>
  <speed>19.899994974873735</speed>
  <fix>3d</fix>
</trkpt>
<trkpt lat="40.0713829" lon="-105.2298088">
  <ele>1583.0</ele>
  <time>2026-08-28T17:55:35Z</time>
  <course>222.3</course>
  <speed>15.83</speed>
  <fix>3d</fix>
</trkpt>
<trkpt lat="40.0713381" lon="-105.2297917">
  <ele>1582.83</ele>
  <time>2026-08-28T17:55:35Z</time>
  <course>103.89</course>
  <speed>20.081924708553213</speed>
  <fix>3d</fix>
</trkpt>
<trkpt lat="40.0713565" lon="-105.2298126">
  <ele>1583.0</ele>
  <time>2026-08-28T17:55:35Z</time>
  <course>150.33</course>
  <speed>15.83</speed>
  <fix>3d</fix>
</trkpt>
<trkpt lat="40.0713412" lon="-105.2297684">
  <ele>1582.62</ele>
  <time>2026-08-28T17:55:35Z</time>
  <course>67.33</course>
  <speed>20.040064870154488</speed>
  <fix>3d</fix>
</trkpt>
<trkpt lat="40.0713565" lon="-105.2298126">
  <ele>1583.0</ele>
  <time>2026-08-28T17:55:35Z</time>
  <course>150.33</course>
  <speed>15.83</speed>
  <fix>3d</fix>
</trkpt>
<trkpt lat="40.0713538" lon="-105.2297512">
  <ele>1582.52</ele>
  <time>2026-08-28T17:55:35Z</time>
  <course>31.32</course>
  <speed>19.80646359146428</speed>
  <fix>3d</fix>
</trkpt>
<trkpt lat="40.0713456" lon="-105.2297809">
  <ele>1583.0</ele>
  <time>2026-08-28T17:55:35Z</time>
  <course>78.36</course>
  <speed>15.84</speed>
  <fix>3d</fix>
</trkpt>
<trkpt lat="40.0713713" lon="-105.2297478">
  <ele>1582.61</ele>
  <time>2026-08-28T17:55:35Z</time>
  <course>355.54</course>
  <speed>19.302751099260437</speed>
  <fix>3d</fix>
</trkpt>
<trkpt lat="40.0713456" lon="-105.2297809">
  <ele>1583.0</ele>
  <time>2026-08-28T17:55:35Z</time>
  <course>78.36</course>
  <speed>15.84</speed>
  <fix>3d</fix>
</trkpt>
<trkpt lat="40.0713894" lon="-105.2297614">
  <ele>1582.83</ele>
  <time>2026-08-28T17:55:35Z</time>
  <course>312.3</course>
  <speed>18.81643164896044</speed>
  <fix>3d</fix>
</trkpt>
<trkpt lat="40.0713652" lon="-105.2297575">
  <ele>1583.0</ele>
  <time>2026-08-28T17:55:35Z</time>
  <course>6.39</course>
  <speed>15.84</speed>
  <fix>3d</fix>
</trkpt>
<trkpt lat="40.0713949" lon="-105.2297831">
  <ele>1582.97</ele>
  <time>2026-08-28T17:55:35Z</time>
  <course>276.15</course>
  <speed>18.815762009549335</speed>
  <fix>3d</fix>
</trkpt>
<trkpt lat="40.0713652" lon="-105.2297575">
  <ele>1583.0</ele>
  <time>2026-08-28T17:55:35Z</time>
  <course>6.39</course>
  <speed>15.84</speed>
  <fix>3d</fix>
</trkpt>
<trkpt lat="40.0713899" lon="-105.229805">
  <ele>1583.0</ele>
  <time>2026-08-28T17:55:35Z</time>
  <course>240.18</course>
  <speed>19.143171106167337</speed>
  <fix>3d</fix>
</trkpt>
<trkpt lat="40.0713883" lon="-105.2297748">
  <ele>1583.0</ele>
  <time>2026-08-28T17:55:35Z</time>
  <course>294.42</course>
  <speed>15.84</speed>
  <fix>3d</fix>
</trkpt>
<trkpt lat="40.0713756" lon="-105.2298187">
  <ele>1582.92</ele>
  <time>2026-08-28T17:55:35Z</time>
  <course>204.11</course>
  <speed>19.57813321029357</speed>
  <fix>3d</fix>
</trkpt>
<trkpt lat="40.0713883" lon="-105.2297748">
  <ele>1583.0</ele>
  <time>2026-08-28T17:55:35Z</time>
  <course>294.42</course>
  <speed>15.84</speed>
  <fix>3d</fix>
</trkpt>
<trkpt lat="40.0713576" lon="-105.2298192">
  <ele>1582.82</ele>
  <time>2026-08-28T17:55:35Z</time>
  <course>167.94</course>
  <speed>19.988881909701703</speed>
  <fix>3d</fix>
</trkpt>
<trkpt lat="40.0713829" lon="-105.2298088">
  <ele>1583.0</ele>
  <time>2026-08-28T17:55:35Z</time>
  <course>222.29</course>
  <speed>15.81</speed>
  <fix>3d</fix>
</trkpt>
<trkpt lat="40.0713437" lon="-105.2298061">
  <ele>1582.78</ele>
  <time>2026-08-28T17:55:35Z</time>
  <course>131.94</course>
  <speed>20.065741949900584</speed>
  <fix>3d</fix>
</trkpt>
<trkpt lat="40.0713829" lon="-105.2298088">
  <ele>1583.0</ele>
  <time>2026-08-28T17:55:35Z</time>
  <course>222.29</course>
  <speed>15.81</speed>
  <fix>3d</fix>
</trkpt>
<trkpt lat="40.0713381" lon="-105.2297844">
  <ele>1582.81</ele>
  <time>2026-08-28T17:55:35Z</time>
  <course>96.02</course>
  <speed>20.019153328749944</speed>
  <fix>3d</fix>
</trkpt>
<trkpt lat="40.0713564" lon="-105.2298126">
  <ele>1583.0</ele>
  <time>2026-08-28T17:55:35Z</time>
  <course>150.17</course>
  <speed>15.85</speed>
  <fix>3d</fix>
</trkpt>
<trkpt lat="40.0713438" lon="-105.2297637">
  <ele>1582.86</ele>
  <time>2026-08-28T17:55:35Z</time>
  <course>60.2</course>
  <speed>19.740914365854486</speed>
  <fix>3d</fix>
</trkpt>
<trkpt lat="40.0713564" lon="-105.2298126">
  <ele>1583.0</ele>
  <time>2026-08-28T17:55:35Z</time>
  <course>150.17</course>
  <speed>15.85</speed>
  <fix>3d</fix>
</trkpt>
<trkpt lat="40.0713581" lon="-105.2297503">
  <ele>1582.83</ele>
  <time>2026-08-28T17:55:35Z</time>
  <course>24.42</course>
  <speed>19.59647162118732</speed>
  <fix>3d</fix>
</trkpt>
<trkpt lat="40.0713456" lon="-105.2297808">
  <ele>1583.0</ele>
  <time>2026-08-28T17:55:35Z</time>
  <course>78.2</course>
  <speed>15.85</speed>
  <fix>3d</fix>
</trkpt>
<trkpt lat="40.0713754" lon="-105.2297512">
  <ele>1582.74</ele>
  <time>2026-08-28T17:55:35Z</time>
  <course>348.66</course>
  <speed>19.45176598666558</speed>
  <fix>3d</fix>
</trkpt>
<trkpt lat="40.0713456" lon="-105.2297808">
  <ele>1583.0</ele>
  <time>2026-08-28T17:55:35Z</time>
  <course>78.2</course>
  <speed>15.85</speed>
  <fix>3d</fix>
</trkpt>
<trkpt lat="40.0713899" lon="-105.2297648">
  <ele>1582.65</ele>
  <time>2026-08-28T17:55:35Z</time>
  <course>312.82</course>
  <speed>19.43094439290072</speed>
  <fix>3d</fix>
</trkpt>
<trkpt lat="40.0713654" lon="-105.2297575">
  <ele>1583.0</ele>
  <time>2026-08-28T17:55:35Z</time>
  <course>6.23</course>
  <speed>15.85</speed>
  <fix>3d</fix>
</trkpt>
<trkpt lat="40.0713949" lon="-105.2297819">
  <ele>1582.65</ele>
  <time>2026-08-28T17:55:35Z</time>
  <course>283.9</course>
  <speed>19.344800334973737</speed>
  <fix>3d</fix>
</trkpt>
<trkpt lat="40.0713654" lon="-105.2297575">
  <ele>1583.0</ele>
  <time>2026-08-28T17:55:35Z</time>
  <course>6.23</course>
  <speed>15.85</speed>
  <fix>3d</fix>
</trkpt>
<trkpt lat="40.071392" lon="-105.2298044">
  <ele>1582.79</ele>
  <time>2026-08-28T17:55:35Z</time>
  <course>248.09</course>
  <speed>19.26808760619486</speed>
  <fix>3d</fix>
</trkpt>
<trkpt lat="40.0713884" lon="-105.2297748">
  <ele>1583.0</ele>
  <time>2026-08-28T17:55:35Z</time>
  <course>294.26</course>
  <speed>15.86</speed>
  <fix>3d</fix>
</trkpt>
<trkpt lat="40.0713792" lon="-105.2298199">
  <ele>1582.99</ele>
  <time>2026-08-28T17:55:35Z</time>
  <course>211.96</course>
  <speed>19.34452118818142</speed>
  <fix>3d</fix>
</trkpt>
<trkpt lat="40.0713884" lon="-105.2297748">
  <ele>1583.0</ele>
  <time>2026-08-28T17:55:35Z</time>
  <course>294.26</course>
  <speed>15.86</speed>
  <fix>3d</fix>
</trkpt>
<trkpt lat="40.0713616" lon="-105.2298229">
  <ele>1583.14</ele>
  <time>2026-08-28T17:55:35Z</time>
  <course>176.12</course>
  <speed>19.67785557422353</speed>
  <fix>3d</fix>
</trkpt>
<trkpt lat="40.071383" lon="-105.2298089">
  <ele>1583.0</ele>
  <time>2026-08-28T17:55:35Z</time>
  <course>222.29</course>
  <speed>15.86</speed>
  <fix>3d</fix>
</trkpt>
<trkpt lat="40.0713459" lon="-105.2298115">
  <ele>1583.09</ele>
  <time>2026-08-28T17:55:35Z</time>
  <course>140.24</course>
  <speed>20.026881934040556</speed>
  <fix>3d</fix>
</trkpt>
<trkpt lat="40.071383" lon="-105.2298089">
  <ele>1583.0</ele>
  <time>2026-08-28T17:55:35Z</time>
  <course>222.29</course>
  <speed>15.86</speed>
  <fix>3d</fix>
</trkpt>
<trkpt lat="40.0713374" lon="-105.2297899">
  <ele>1582.87</ele>
  <time>2026-08-28T17:55:35Z</time>
  <course>104.23</course>
  <speed>20.25396010660631</speed>
  <fix>3d</fix>
</trkpt>
<trkpt lat="40.0713565" lon="-105.2298126">
  <ele>1583.0</ele>
  <time>2026-08-28T17:55:35Z</time>
  <course>150.32</course>
  <speed>15.86</speed>
  <fix>3d</fix>
</trkpt>
<trkpt lat="40.0713405" lon="-105.2297667">
  <ele>1582.63</ele>
  <time>2026-08-28T17:55:35Z</time>
  <course>67.92</course>
  <speed>20.227815008052648</speed>
  <fix>3d</fix>
</trkpt>
<trkpt lat="40.0713565" lon="-105.2298126">
  <ele>1583.0</ele>
  <time>2026-08-28T17:55:35Z</time>
  <course>150.32</course>
  <speed>15.86</speed>
  <fix>3d</fix>
</trkpt>
<trkpt lat="40.0713531" lon="-105.2297491">
  <ele>1582.49</ele>
  <time>2026-08-28T17:55:35Z</time>
  <course>31.59</course>
  <speed>19.96590093133791</speed>
  <fix>3d</fix>
</trkpt>
<trkpt lat="40.0713456" lon="-105.2297809">
  <ele>1583.0</ele>
  <time>2026-08-28T17:55:35Z</time>
  <course>78.35</course>
  <speed>15.87</speed>
  <fix>3d</fix>
</trkpt>
<trkpt lat="40.0713707" lon="-105.2297455">
  <ele>1582.58</ele>
  <time>2026-08-28T17:55:35Z</time>
  <course>355.88</course>
  <speed>19.36620768245554</speed>
  <fix>3d</fix>
</trkpt>
<trkpt lat="40.0713456" lon="-105.2297809">
  <ele>1583.0</ele>
  <time>2026-08-28T17:55:35Z</time>
  <course>78.35</course>
  <speed>15.87</speed>
  <fix>3d</fix>
</trkpt>
<trkpt lat="40.0713867" lon="-105.2297554">
  <ele>1582.8</ele>
  <time>2026-08-28T17:55:35Z</time>
  <course>319.88</course>
  <speed>18.805650746517653</speed>
  <fix>3d</fix>
</trkpt>
<trkpt lat="40.0713653" lon="-105.2297575">
  <ele>1583.0</ele>
  <time>2026-08-28T17:55:35Z</time>
  <course>6.37</course>
  <speed>15.87</speed>
  <fix>3d</fix>
</trkpt>
<trkpt lat="40.0713946" lon="-105.2297807">
  <ele>1583.02</ele>
  <time>2026-08-28T17:55:35Z</time>
  <course>276.44</course>
  <speed>18.71117847704949</speed>
  <fix>3d</fix>
</trkpt>
<trkpt lat="40.0713653" lon="-105.2297575">
  <ele>1583.0</ele>
  <time>2026-08-28T17:55:35Z</time>
  <course>6.37</course>
  <speed>15.87</speed>
  <fix>3d</fix>
</trkpt>
<trkpt lat="40.0713897" lon="-105.2298029">
  <ele>1583.05</ele>
  <time>2026-08-28T17:55:35Z</time>
  <course>240.49</course>
  <speed>19.078668716658402</speed>
  <fix>3d</fix>
</trkpt>
<trkpt lat="40.0713884" lon="-105.2297748">
  <ele>1583.0</ele>
  <time>2026-08-28T17:55:35Z</time>
  <course>294.4</course>
  <speed>15.87</speed>
  <fix>3d</fix>
</trkpt>
<trkpt lat="40.0713755" lon="-105.2298169">
  <ele>1582.95</ele>
  <time>2026-08-28T17:55:35Z</time>
  <course>204.45</course>
  <speed>19.5940603244963</speed>
  <fix>3d</fix>
</trkpt>
<trkpt lat="40.0713884" lon="-105.2297748">
  <ele>1583.0</ele>
  <time>2026-08-28T17:55:35Z</time>
  <course>294.4</course>
  <speed>15.87</speed>
  <fix>3d</fix>
</trkpt>
<trkpt lat="40.0713576" lon="-105.2298175">
  <ele>1582.83</ele>
  <time>2026-08-28T17:55:35Z</time>
  <course>168.24</course>
  <speed>20.05595422810892</speed>
  <fix>3d</fix>
</trkpt>
<trkpt lat="40.071383" lon="-105.2298088">
  <ele>1583.0</ele>
  <time>2026-08-28T17:55:35Z</time>
  <course>222.43</course>
  <speed>15.87</speed>
  <fix>3d</fix>
</trkpt>
<trkpt lat="40.0713431" lon="-105.2298041">
  <ele>1582.78</ele>
  <time>2026-08-28T17:55:35Z</time>
  <course>132.11</course>
  <speed>20.287188075236056</speed>
  <fix>3d</fix>
</trkpt>
<trkpt lat="40.071383" lon="-105.2298088">
  <ele>1583.0</ele>
  <time>2026-08-28T17:55:35Z</time>
  <course>222.43</course>
  <speed>15.87</speed>
  <fix>3d</fix>
</trkpt>
<trkpt lat="40.0713369" lon="-105.2297819">
  <ele>1582.83</ele>
  <time>2026-08-28T17:55:35Z</time>
  <course>96.06</course>
  <speed>20.249239491892034</speed>
  <fix>3d</fix>
</trkpt>
<trkpt lat="40.0713565" lon="-105.2298126">
  <ele>1583.0</ele>
  <time>2026-08-28T17:55:35Z</time>
  <course>150.31</course>
  <speed>15.85</speed>
  <fix>3d</fix>
</trkpt>
<trkpt lat="40.0713423" lon="-105.2297609">
  <ele>1582.91</ele>
  <time>2026-08-28T17:55:35Z</time>
  <course>60.13</course>
  <speed>19.84964735203122</speed>
  <fix>3d</fix>
</trkpt>
<trkpt lat="40.0713565" lon="-105.2298126">
  <ele>1583.0</ele>
  <time>2026-08-28T17:55:35Z</time>
  <course>150.31</course>
  <speed>15.85</speed>
  <fix>3d</fix>
</trkpt>
<trkpt lat="40.0713564" lon="-105.2297473">
  <ele>1582.89</ele>
  <time>2026-08-28T17:55:35Z</time>
  <course>24.29</course>
  <speed>19.576580395973146</speed>
  <fix>3d</fix>
</trkpt>
<trkpt lat="40.0713456" lon="-105.2297808">
  <ele>1583.0</ele>
  <time>2026-08-28T17:55:35Z</time>
  <course>78.19</course>
  <speed>15.88</speed>
  <fix>3d</fix>
</trkpt>
<trkpt lat="40.0713737" lon="-105.2297482">
  <ele>1582.8</ele>
  <time>2026-08-28T17:55:35Z</time>
  <course>348.52</course>
  <speed>19.33496573568208</speed>
  <fix>3d</fix>
</trkpt>
<trkpt lat="40.0713456" lon="-105.2297808">
  <ele>1583.0</ele>
  <time>2026-08-28T17:55:35Z</time>
  <course>78.19</course>
  <speed>15.88</speed>
  <fix>3d</fix>
</trkpt>
<trkpt lat="40.0713882" lon="-105.2297619">
  <ele>1582.68</ele>
  <time>2026-08-28T17:55:35Z</time>
  <course>312.65</course>
  <speed>19.299183920570318</speed>
  <fix>3d</fix>
</trkpt>
<trkpt lat="40.0713653" lon="-105.2297575">
  <ele>1583.0</ele>
  <time>2026-08-28T17:55:35Z</time>
  <course>6.22</course>
  <speed>15.88</speed>
  <fix>3d</fix>
</trkpt>
<trkpt lat="40.0713935" lon="-105.2297839">
  <ele>1582.67</ele>
  <time>2026-08-28T17:55:35Z</time>
  <course>276.58</course>
  <speed>19.23549323516296</speed>
  <fix>3d</fix>
</trkpt>
<trkpt lat="40.0713653" lon="-105.2297575">
  <ele>1583.0</ele>
  <time>2026-08-28T17:55:35Z</time>
  <course>6.22</course>
  <speed>15.88</speed>
  <fix>3d</fix>
</trkpt>
<trkpt lat="40.0713904" lon="-105.2298018">
  <ele>1582.79</ele>
  <time>2026-08-28T17:55:35Z</time>
  <course>247.96</course>
  <speed>19.226245083218927</speed>
  <fix>3d</fix>
</trkpt>
<trkpt lat="40.0713884" lon="-105.2297749">
  <ele>1583.0</ele>
  <time>2026-08-28T17:55:35Z</time>
  <course>294.25</course>
  <speed>15.88</speed>
  <fix>3d</fix>
</trkpt>
<trkpt lat="40.0713776" lon="-105.2298175">
  <ele>1583.01</ele>
  <time>2026-08-28T17:55:35Z</time>
  <course>211.83</course>
  <speed>19.356073982086347</speed>
  <fix>3d</fix>
</trkpt>
<trkpt lat="40.0713884" lon="-105.2297749">
  <ele>1583.0</ele>
  <time>2026-08-28T17:55:35Z</time>
  <course>294.25</course>
  <speed>15.88</speed>
  <fix>3d</fix>
</trkpt>
<trkpt lat="40.0713599" lon="-105.2298206">
  <ele>1583.18</ele>
  <time>2026-08-28T17:55:35Z</time>
  <course>175.65</course>
  <speed>19.757590946266703</speed>
  <fix>3d</fix>
</trkpt>
<trkpt lat="40.071383" lon="-105.2298089">
  <ele>1583.0</ele>
  <time>2026-08-28T17:55:35Z</time>
  <course>222.28</course>
  <speed>15.89</speed>
  <fix>3d</fix>
</trkpt>
<trkpt lat="40.0713444" lon="-105.2298092">
  <ele>1583.14</ele>
  <time>2026-08-28T17:55:35Z</time>
  <course>140.12</course>
  <speed>20.146128660365495</speed>
  <fix>3d</fix>
</trkpt>
<trkpt lat="40.071383" lon="-105.2298089">
  <ele>1583.0</ele>
  <time>2026-08-28T17:55:35Z</time>
  <course>222.28</course>
  <speed>15.89</speed>
  <fix>3d</fix>
</trkpt>
<trkpt lat="40.0713361" lon="-105.2297878">
  <ele>1582.9</ele>
  <time>2026-08-28T17:55:35Z</time>
  <course>104.16</course>
  <speed>20.389683666011102</speed>
  <fix>3d</fix>
</trkpt>
<trkpt lat="40.0713564" lon="-105.2298127">
  <ele>1583.0</ele>
  <time>2026-08-28T17:55:35Z</time>
  <course>150.3</course>
  <speed>15.89</speed>
  <fix>3d</fix>
</trkpt>
<trkpt lat="40.0713393" lon="-105.2297646">
  <ele>1582.62</ele>
  <time>2026-08-28T17:55:35Z</time>
  <course>67.82</course>
  <speed>20.34047442907859</speed>
  <fix>3d</fix>
</trkpt>
<trkpt lat="40.0713564" lon="-105.2298127">
  <ele>1583.0</ele>
  <time>2026-08-28T17:55:35Z</time>
  <course>150.3</course>
  <speed>15.89</speed>
  <fix>3d</fix>
</trkpt>
<trkpt lat="40.0713519" lon="-105.2297472">
  <ele>1582.47</ele>
  <time>2026-08-28T17:55:35Z</time>
  <course>31.79</course>
  <speed>20.05546808229616</speed>
  <fix>3d</fix>
</trkpt>
<trkpt lat="40.0713456" lon="-105.2297809">
  <ele>1583.0</ele>
  <time>2026-08-28T17:55:35Z</time>
  <course>78.33</course>
  <speed>15.89</speed>
  <fix>3d</fix>
</trkpt>
<trkpt lat="40.0713698" lon="-105.2297437">
  <ele>1582.56</ele>
  <time>2026-08-28T17:55:35Z</time>
  <course>355.86</course>
  <speed>19.37891895849714</speed>
  <fix>3d</fix>
</trkpt>
<trkpt lat="40.0713456" lon="-105.2297809">
  <ele>1583.0</ele>
  <time>2026-08-28T17:55:35Z</time>
  <course>78.33</course>
  <speed>15.89</speed>
  <fix>3d</fix>
</trkpt>
<trkpt lat="40.0713859" lon="-105.2297537">
  <ele>1582.8</ele>
  <time>2026-08-28T17:55:35Z</time>
  <course>319.88</course>
  <speed>18.752570490468766</speed>
  <fix>3d</fix>
</trkpt>
<trkpt lat="40.0713653" lon="-105.2297574">
  <ele>1583.0</ele>
  <time>2026-08-28T17:55:35Z</time>
  <course>6.36</course>
  <speed>15.9</speed>
  <fix>3d</fix>
</trkpt>
<trkpt lat="40.0713939" lon="-105.2297792">
  <ele>1583.06</ele>
  <time>2026-08-28T17:55:35Z</time>
  <course>276.39</course>
  <speed>18.659828509394185</speed>
  <fix>3d</fix>
</trkpt>
<trkpt lat="40.0713653" lon="-105.2297574">
  <ele>1583.0</ele>
  <time>2026-08-28T17:55:35Z</time>
  <course>6.36</course>
  <speed>15.9</speed>
  <fix>3d</fix>
</trkpt>
<trkpt lat="40.071389" lon="-105.2298015">
  <ele>1583.09</ele>
  <time>2026-08-28T17:55:35Z</time>
  <course>240.48</course>
  <speed>19.082478874611652</speed>
  <fix>3d</fix>
</trkpt>
<trkpt lat="40.0713884" lon="-105.2297748">
  <ele>1583.0</ele>
  <time>2026-08-28T17:55:35Z</time>
  <course>294.39</course>
  <speed>15.9</speed>
  <fix>3d</fix>
</trkpt>
<trkpt lat="40.0713747" lon="-105.2298156">
  <ele>1582.95</ele>
  <time>2026-08-28T17:55:35Z</time>
  <course>204.47</course>
  <speed>19.641183772878865</speed>
  <fix>3d</fix>
</trkpt>
<trkpt lat="40.0713884" lon="-105.2297748">
  <ele>1583.0</ele>
  <time>2026-08-28T17:55:35Z</time>
  <course>294.39</course>
  <speed>15.9</speed>
  <fix>3d</fix>
</trkpt>
<trkpt lat="40.0713568" lon="-105.2298164">
  <ele>1582.8</ele>
  <time>2026-08-28T17:55:35Z</time>
  <course>168.22</course>
  <speed>20.13734093667781</speed>
  <fix>3d</fix>
</trkpt>
<trkpt lat="40.071383" lon="-105.2298089">
  <ele>1583.0</ele>
  <time>2026-08-28T17:55:35Z</time>
  <course>222.42</course>
  <speed>15.9</speed>
  <fix>3d</fix>
</trkpt>
<trkpt lat="40.0713423" lon="-105.2298031">
  <ele>1582.74</ele>
  <time>2026-08-28T17:55:35Z</time>
  <course>132.11</course>
  <speed>20.36986499709804</speed>
  <fix>3d</fix>
</trkpt>
<trkpt lat="40.071383" lon="-105.2298089">
  <ele>1583.0</ele>
  <time>2026-08-28T17:55:35Z</time>
  <course>222.42</course>
  <speed>15.9</speed>
  <fix>3d</fix>
</trkpt>
<trkpt lat="40.0713361" lon="-105.2297809">
  <ele>1582.8</ele>
  <time>2026-08-28T17:55:35Z</time>
  <course>96.08</course>
  <speed>20.302307750598207</speed>
  <fix>3d</fix>
</trkpt>
<trkpt lat="40.0713565" lon="-105.2298126">
  <ele>1583.0</ele>
  <time>2026-08-28T17:55:35Z</time>
  <course>150.3</course>
  <speed>15.87</speed>
  <fix>3d</fix>
</trkpt>
<trkpt lat="40.0713416" lon="-105.2297601">
  <ele>1582.91</ele>
  <time>2026-08-28T17:55:35Z</time>
  <course>60.13</course>
  <speed>19.864631886848546</speed>
  <fix>3d</fix>
</trkpt>
<trkpt lat="40.0713565" lon="-105.2298126">
  <ele>1583.0</ele>
  <time>2026-08-28T17:55:35Z</time>
  <course>150.3</course>
  <speed>15.87</speed>
  <fix>3d</fix>
</trkpt>
<trkpt lat="40.0713558" lon="-105.2297466">
  <ele>1582.91</ele>
  <time>2026-08-28T17:55:35Z</time>
  <course>24.3</course>
  <speed>19.589622252611203</speed>
  <fix>3d</fix>
</trkpt>
<trkpt lat="40.0713456" lon="-105.2297807">
  <ele>1583.0</ele>
  <time>2026-08-28T17:55:35Z</time>
  <course>78.18</course>
  <speed>15.91</speed>
  <fix>3d</fix>
</trkpt>
<trkpt lat="40.0713732" lon="-105.2297476">
  <ele>1582.8</ele>
  <time>2026-08-28T17:55:35Z</time>
  <course>348.55</course>
  <speed>19.37139385795457</speed>
  <fix>3d</fix>
</trkpt>
<trkpt lat="40.0713456" lon="-105.2297807">
  <ele>1583.0</ele>
  <time>2026-08-28T17:55:35Z</time>
  <course>78.18</course>
  <speed>15.91</speed>
  <fix>3d</fix>
</trkpt>
<trkpt lat="40.0713878" lon="-105.2297614">
  <ele>1582.65</ele>
  <time>2026-08-28T17:55:35Z</time>
  <course>312.65</course>
  <speed>19.370918925027794</speed>
  <fix>3d</fix>
</trkpt>
<trkpt lat="40.0713654" lon="-105.2297573">
  <ele>1583.0</ele>
  <time>2026-08-28T17:55:35Z</time>
  <course>6.21</course>
  <speed>15.91</speed>
  <fix>3d</fix>
</trkpt>
<trkpt lat="40.0713932" lon="-105.2297833">
  <ele>1582.61</ele>
  <time>2026-08-28T17:55:35Z</time>
  <course>276.88</course>
  <speed>19.33363907804219</speed>
  <fix>3d</fix>
</trkpt>
<trkpt lat="40.0713654" lon="-105.2297573">
  <ele>1583.0</ele>
  <time>2026-08-28T17:55:35Z</time>
  <course>6.21</course>
  <speed>15.91</speed>
  <fix>3d</fix>
</trkpt>
<trkpt lat="40.07139" lon="-105.2298016">
  <ele>1582.73</ele>
  <time>2026-08-28T17:55:35Z</time>
  <course>248.0</course>
  <speed>19.285198987824835</speed>
  <fix>3d</fix>
</trkpt>
<trkpt lat="40.0713885" lon="-105.2297748">
  <ele>1583.0</ele>
  <time>2026-08-28T17:55:35Z</time>
  <course>294.23</course>
  <speed>15.91</speed>
  <fix>3d</fix>
</trkpt>
<trkpt lat="40.0713775" lon="-105.2298173">
  <ele>1582.98</ele>
  <time>2026-08-28T17:55:35Z</time>
  <course>211.88</course>
  <speed>19.352439122756593</speed>
  <fix>3d</fix>
</trkpt>
<trkpt lat="40.0713885" lon="-105.2297748">
  <ele>1583.0</ele>
  <time>2026-08-28T17:55:35Z</time>
  <course>294.23</course>
  <speed>15.91</speed>
  <fix>3d</fix>
</trkpt>
<trkpt lat="40.0713598" lon="-105.2298205">
  <ele>1583.18</ele>
  <time>2026-08-28T17:55:35Z</time>
  <course>175.63</course>
  <speed>19.71170210813871</speed>
  <fix>3d</fix>
</trkpt>
<trkpt lat="40.071383" lon="-105.2298089">
  <ele>1583.0</ele>
  <time>2026-08-28T17:55:35Z</time>
  <course>222.26</course>
  <speed>15.91</speed>
  <fix>3d</fix>
</trkpt>
<trkpt lat="40.0713443" lon="-105.2298091">
  <ele>1583.16</ele>
  <time>2026-08-28T17:55:35Z</time>
  <course>139.84</course>
  <speed>20.13139091071454</speed>
  <fix>3d</fix>
</trkpt>
<trkpt lat="40.071383" lon="-105.2298089">
  <ele>1583.0</ele>
  <time>2026-08-28T17:55:35Z</time>
  <course>222.26</course>
  <speed>15.91</speed>
  <fix>3d</fix>
</trkpt>
<trkpt lat="40.0713361" lon="-105.2297877">
  <ele>1582.9</ele>
  <time>2026-08-28T17:55:35Z</time>
  <course>104.26</course>
  <speed>20.39583535920998</speed>
  <fix>3d</fix>
</trkpt>
<trkpt lat="40.0713564" lon="-105.2298127">
  <ele>1583.0</ele>
  <time>2026-08-28T17:55:35Z</time>
  <course>150.29</course>
  <speed>15.92</speed>
  <fix>3d</fix>
</trkpt>
<trkpt lat="40.0713393" lon="-105.2297645">
  <ele>1582.59</ele>
  <time>2026-08-28T17:55:35Z</time>
  <course>67.86</course>
  <speed>20.38829320958476</speed>
  <fix>3d</fix>
</trkpt>
<trkpt lat="40.0713564" lon="-105.2298127">
  <ele>1583.0</ele>
  <time>2026-08-28T17:55:35Z</time>
  <course>150.29</course>
  <speed>15.92</speed>
  <fix>3d</fix>
</trkpt>
<trkpt lat="40.071352" lon="-105.2297471">
  <ele>1582.41</ele>
  <time>2026-08-28T17:55:35Z</time>
  <course>31.8</course>
  <speed>20.149801487855903</speed>
  <fix>3d</fix>
</trkpt>
<trkpt lat="40.0713455" lon="-105.2297808">
  <ele>1583.0</ele>
  <time>2026-08-28T17:55:35Z</time>
  <course>78.32</course>
  <speed>15.92</speed>
  <fix>3d</fix>
</trkpt>
<trkpt lat="40.0713697" lon="-105.2297435">
  <ele>1582.5</ele>
  <time>2026-08-28T17:55:35Z</time>
  <course>356.26</course>
  <speed>19.486128399453804</speed>
  <fix>3d</fix>
</trkpt>
<trkpt lat="40.0713455" lon="-105.2297808">
  <ele>1583.0</ele>
  <time>2026-08-28T17:55:35Z</time>
  <course>78.32</course>
  <speed>15.92</speed>
  <fix>3d</fix>
</trkpt>
<trkpt lat="40.071386" lon="-105.2297534">
  <ele>1582.77</ele>
  <time>2026-08-28T17:55:35Z</time>
  <course>320.02</course>
  <speed>18.780553772453036</speed>
  <fix>3d</fix>
</trkpt>
<trkpt lat="40.0713652" lon="-105.2297573">
  <ele>1583.0</ele>
  <time>2026-08-28T17:55:35Z</time>
  <course>6.35</course>
  <speed>15.92</speed>
  <fix>3d</fix>
</trkpt>
<trkpt lat="40.0713937" lon="-105.2297742">
  <ele>1583.03</ele>
  <time>2026-08-28T17:55:35Z</time>
  <course>283.68</course>
  <speed>18.6095244431447</speed>
  <fix>3d</fix>
</trkpt>
<trkpt lat="40.0713652" lon="-105.2297573">
  <ele>1583.0</ele>
  <time>2026-08-28T17:55:35Z</time>
  <course>6.35</course>
  <speed>15.92</speed>
  <fix>3d</fix>
</trkpt>
<trkpt lat="40.0713891" lon="-105.2298014">
  <ele>1583.09</ele>
  <time>2026-08-28T17:55:35Z</time>
  <course>240.6</course>
  <speed>19.09257971045296</speed>
  <fix>3d</fix>
</trkpt>
<trkpt lat="40.0713885" lon="-105.2297748">
  <ele>1583.0</ele>
  <time>2026-08-28T17:55:35Z</time>
  <course>294.38</course>
  <speed>15.92</speed>
  <fix>3d</fix>
</trkpt>
<trkpt lat="40.0713749" lon="-105.2298156">
  <ele>1582.93</ele>
  <time>2026-08-28T17:55:35Z</time>
  <course>204.62</course>
  <speed>19.67000254194188</speed>
  <fix>3d</fix>
</trkpt>
<trkpt lat="40.0713885" lon="-105.2297748">
  <ele>1583.0</ele>
  <time>2026-08-28T17:55:35Z</time>
  <course>294.38</course>
  <speed>15.92</speed>
  <fix>3d</fix>
</trkpt>
<trkpt lat="40.071357" lon="-105.2298166">
  <ele>1582.75</ele>
  <time>2026-08-28T17:55:35Z</time>
  <course>168.32</course>
  <speed>20.173824624993646</speed>
  <fix>3d</fix>
</trkpt>
<trkpt lat="40.0713831" lon="-105.2298089">
  <ele>1583.0</ele>
  <time>2026-08-28T17:55:35Z</time>
  <course>222.41</course>
  <speed>15.93</speed>
  <fix>3d</fix>
</trkpt>
<trkpt lat="40.0713423" lon="-105.2298033">
  <ele>1582.68</ele>
  <time>2026-08-28T17:55:35Z</time>
  <course>132.2</course>
  <speed>20.411910738585938</speed>
  <fix>3d</fix>
</trkpt>
<trkpt lat="40.0713831" lon="-105.2298089">
  <ele>1583.0</ele>
  <time>2026-08-28T17:55:35Z</time>
  <course>222.41</course>
  <speed>15.93</speed>
  <fix>3d</fix>
</trkpt>
<trkpt lat="40.0713361" lon="-105.2297812">
  <ele>1582.77</ele>
  <time>2026-08-28T17:55:35Z</time>
  <course>96.21</course>
  <speed>20.317603205102714</speed>
  <fix>3d</fix>
</trkpt>
<trkpt lat="40.0713564" lon="-105.2298127">
  <ele>1583.0</ele>
  <time>2026-08-28T17:55:35Z</time>
  <course>150.29</course>
  <speed>15.9</speed>
  <fix>3d</fix>
</trkpt>
<trkpt lat="40.0713415" lon="-105.2297603">
  <ele>1582.92</ele>
  <time>2026-08-28T17:55:35Z</time>
  <course>60.23</course>
  <speed>19.86067471160031</speed>
  <fix>3d</fix>
</trkpt>
<trkpt lat="40.0713564" lon="-105.2298127">
  <ele>1583.0</ele>
  <time>2026-08-28T17:55:35Z</time>
  <course>150.29</course>
  <speed>15.9</speed>
  <fix>3d</fix>
</trkpt>
<trkpt lat="40.0713557" lon="-105.2297467">
  <ele>1582.94</ele>
  <time>2026-08-28T17:55:35Z</time>
  <course>24.38</course>
  <speed>19.602665635060962</speed>
  <fix>3d</fix>
</trkpt>
<trkpt lat="40.0713455" lon="-105.2297808">
  <ele>1583.0</ele>
  <time>2026-08-28T17:55:35Z</time>
  <course>78.16</course>
  <speed>15.93</speed>
  <fix>3d</fix>
</trkpt>
<trkpt lat="40.0713731" lon="-105.2297477">
  <ele>1582.83</ele>
  <time>2026-08-28T17:55:35Z</time>
  <course>348.68</course>
  <speed>19.422319634894283</speed>
  <fix>3d</fix>
</trkpt>
<trkpt lat="40.0713455" lon="-105.2297808">
  <ele>1583.0</ele>
  <time>2026-08-28T17:55:35Z</time>
  <course>78.16</course>
  <speed>15.93</speed>
  <fix>3d</fix>
</trkpt>
<trkpt lat="40.0713878" lon="-105.2297616">
  <ele>1582.65</ele>
  <time>2026-08-28T17:55:35Z</time>
  <course>312.74</course>
  <speed>19.46175737183053</speed>
  <fix>3d</fix>
</trkpt>
<trkpt lat="40.0713654" lon="-105.2297573">
  <ele>1583.0</ele>
  <time>2026-08-28T17:55:35Z</time>
  <course>6.19</course>
  <speed>15.93</speed>
  <fix>3d</fix>
</trkpt>
<trkpt lat="40.0713933" lon="-105.2297836">
  <ele>1582.59</ele>
  <time>2026-08-28T17:55:35Z</time>
  <course>276.93</course>
  <speed>19.43832297293159</speed>
  <fix>3d</fix>
</trkpt>
<trkpt lat="40.0713654" lon="-105.2297573">
  <ele>1583.0</ele>
  <time>2026-08-28T17:55:35Z</time>
  <course>6.19</course>
  <speed>15.93</speed>
  <fix>3d</fix>
</trkpt>
<trkpt lat="40.0713886" lon="-105.2298059">
  <ele>1582.75</ele>
  <time>2026-08-28T17:55:35Z</time>
  <course>241.26</course>
  <speed>19.346692223736852</speed>
  <fix>3d</fix>
</trkpt>
<trkpt lat="40.0713885" lon="-105.2297748">
  <ele>1583.0</ele>
  <time>2026-08-28T17:55:35Z</time>
  <course>294.22</course>
  <speed>15.94</speed>
  <fix>3d</fix>
</trkpt>
<trkpt lat="40.0713782" lon="-105.2298176">
  <ele>1582.98</ele>
  <time>2026-08-28T17:55:35Z</time>
  <course>212.1</course>
  <speed>19.27025946893295</speed>
  <fix>3d</fix>
</trkpt>
<trkpt lat="40.0713885" lon="-105.2297748">
  <ele>1583.0</ele>
  <time>2026-08-28T17:55:35Z</time>
  <course>294.22</course>
  <speed>15.94</speed>
  <fix>3d</fix>
</trkpt>
<trkpt lat="40.071361" lon="-105.2298204">
  <ele>1583.23</ele>
  <time>2026-08-28T17:55:35Z</time>
  <course>175.85</course>
  <speed>19.56239504764179</speed>
  <fix>3d</fix>
</trkpt>
<trkpt lat="40.071383" lon="-105.229809">
  <ele>1583.0</ele>
  <time>2026-08-28T17:55:35Z</time>
  <course>222.25</course>
  <speed>15.94</speed>
  <fix>3d</fix>
</trkpt>
<trkpt lat="40.0713457" lon="-105.2298087">
  <ele>1583.23</ele>
  <time>2026-08-28T17:55:35Z</time>
  <course>140.15</course>
  <speed>20.04647849374049</speed>
  <fix>3d</fix>
</trkpt>
<trkpt lat="40.071383" lon="-105.229809">
  <ele>1583.0</ele>
  <time>2026-08-28T17:55:35Z</time>
  <course>222.25</course>
  <speed>15.94</speed>
  <fix>3d</fix>
</trkpt>
<trkpt lat="40.0713376" lon="-105.2297872">
  <ele>1582.98</ele>
  <time>2026-08-28T17:55:35Z</time>
  <course>104.73</course>
  <speed>20.435902231122558</speed>
  <fix>3d</fix>
</trkpt>
<trkpt lat="40.0713564" lon="-105.2298127">
  <ele>1583.0</ele>
  <time>2026-08-28T17:55:35Z</time>
  <course>150.28</course>
  <speed>15.94</speed>
  <fix>3d</fix>
</trkpt>
<trkpt lat="40.0713408" lon="-105.2297637">
  <ele>1582.63</ele>
  <time>2026-08-28T17:55:35Z</time>
  <course>68.3</course>
  <speed>20.548783418976413</speed>
  <fix>3d</fix>
</trkpt>
<trkpt lat="40.0713564" lon="-105.2298127">
  <ele>1583.0</ele>
  <time>2026-08-28T17:55:35Z</time>
  <course>150.28</course>
  <speed>15.94</speed>
  <fix>3d</fix>
</trkpt>
<trkpt lat="40.0713535" lon="-105.229746">
  <ele>1582.4</ele>
  <time>2026-08-28T17:55:35Z</time>
  <course>32.14</course>
  <speed>20.401149477419157</speed>
  <fix>3d</fix>
</trkpt>
<trkpt lat="40.0713454" lon="-105.2297809">
  <ele>1583.0</ele>
  <time>2026-08-28T17:55:35Z</time>
  <course>78.31</course>
  <speed>15.94</speed>
  <fix>3d</fix>
</trkpt>
<trkpt lat="40.0713713" lon="-105.2297421">
  <ele>1582.48</ele>
  <time>2026-08-28T17:55:35Z</time>
  <course>356.69</course>
  <speed>19.71959685186287</speed>
  <fix>3d</fix>
</trkpt>
<trkpt lat="40.0713454" lon="-105.2297809">
  <ele>1583.0</ele>
  <time>2026-08-28T17:55:35Z</time>
  <course>78.31</course>
  <speed>15.94</speed>
  <fix>3d</fix>
</trkpt>
<trkpt lat="40.0713877" lon="-105.2297517">
  <ele>1582.77</ele>
  <time>2026-08-28T17:55:35Z</time>
  <course>320.82</course>
  <speed>18.88930385165107</speed>
  <fix>3d</fix>
</trkpt>
<trkpt lat="40.0713652" lon="-105.2297573">
  <ele>1583.0</ele>
  <time>2026-08-28T17:55:35Z</time>
  <course>6.34</course>
  <speed>15.95</speed>
  <fix>3d</fix>
</trkpt>
<trkpt lat="40.0713956" lon="-105.2297725">
  <ele>1583.08</ele>
  <time>2026-08-28T17:55:35Z</time>
  <course>284.09</course>
  <speed>18.560501070822415</speed>
  <fix>3d</fix>
</trkpt>
<trkpt lat="40.0713652" lon="-105.2297573">
  <ele>1583.0</ele>
  <time>2026-08-28T17:55:35Z</time>
  <course>6.34</course>
  <speed>15.95</speed>
  <fix>3d</fix>
</trkpt>
<trkpt lat="40.0713929" lon="-105.2297958">
  <ele>1583.18</ele>
  <time>2026-08-28T17:55:35Z</time>
  <course>248.14</course>
  <speed>18.881377068423795</speed>
  <fix>3d</fix>
</trkpt>
<trkpt lat="40.0713885" lon="-105.2297747">
  <ele>1583.0</ele>
  <time>2026-08-28T17:55:35Z</time>
  <course>294.37</course>
  <speed>15.95</speed>
  <fix>3d</fix>
</trkpt>
<trkpt lat="40.0713768" lon="-105.2298144">
  <ele>1582.99</ele>
  <time>2026-08-28T17:55:35Z</time>
  <course>205.09</course>
  <speed>19.57986976463327</speed>
  <fix>3d</fix>
</trkpt>
<trkpt lat="40.0713885" lon="-105.2297747">
  <ele>1583.0</ele>
  <time>2026-08-28T17:55:35Z</time>
  <course>294.37</course>
  <speed>15.95</speed>
  <fix>3d</fix>
</trkpt>
<trkpt lat="40.0713587" lon="-105.2298156">
  <ele>1582.77</ele>
  <time>2026-08-28T17:55:35Z</time>
  <course>168.73</course>
  <speed>20.13880334081447</speed>
  <fix>3d</fix>
</trkpt>
<trkpt lat="40.0713831" lon="-105.2298089">
  <ele>1583.0</ele>
  <time>2026-08-28T17:55:35Z</time>
  <course>222.4</course>
  <speed>15.95</speed>
  <fix>3d</fix>
</trkpt>
<trkpt lat="40.0713438" lon="-105.2298026">
  <ele>1582.68</ele>
  <time>2026-08-28T17:55:35Z</time>
  <course>132.57</course>
  <speed>20.4541878352576</speed>
  <fix>3d</fix>
</trkpt>
<trkpt lat="40.0713831" lon="-105.2298089">
  <ele>1583.0</ele>
  <time>2026-08-28T17:55:35Z</time>
  <course>222.4</course>
  <speed>15.95</speed>
  <fix>3d</fix>
</trkpt>
<trkpt lat="40.0713375" lon="-105.2297807">
  <ele>1582.78</ele>
  <time>2026-08-28T17:55:35Z</time>
  <course>96.62</course>
  <speed>20.374555209869</speed>
  <fix>3d</fix>
</trkpt>
<trkpt lat="40.0713564" lon="-105.2298127">
  <ele>1583.0</ele>
  <time>2026-08-28T17:55:35Z</time>
  <course>150.42</course>
  <speed>15.95</speed>
  <fix>3d</fix>
</trkpt>
<trkpt lat="40.0713427" lon="-105.2297587">
  <ele>1582.96</ele>
  <time>2026-08-28T17:55:35Z</time>
  <course>60.5</course>
  <speed>20.03988273418784</speed>
  <fix>3d</fix>
</trkpt>
<trkpt lat="40.0713564" lon="-105.2298127">
  <ele>1583.0</ele>
  <time>2026-08-28T17:55:35Z</time>
  <course>150.42</course>
  <speed>15.95</speed>
  <fix>3d</fix>
</trkpt>
<trkpt lat="40.071357" lon="-105.2297442">
  <ele>1583.01</ele>
  <time>2026-08-28T17:55:35Z</time>
  <course>24.49</course>
  <speed>19.8001237369871</speed>
  <fix>3d</fix>
</trkpt>
<trkpt lat="40.0713455" lon="-105.2297808">
  <ele>1583.0</ele>
  <time>2026-08-28T17:55:35Z</time>
  <course>78.3</course>
  <speed>15.92</speed>
  <fix>3d</fix>
</trkpt>
<trkpt lat="40.0713745" lon="-105.2297447">
  <ele>1582.89</ele>
  <time>2026-08-28T17:55:35Z</time>
  <course>348.71</course>
  <speed>19.517758580328838</speed>
  <fix>3d</fix>
</trkpt>
<trkpt lat="40.0713455" lon="-105.2297808">
  <ele>1583.0</ele>
  <time>2026-08-28T17:55:35Z</time>
  <course>78.3</course>
  <speed>15.92</speed>
  <fix>3d</fix>
</trkpt>
<trkpt lat="40.0713892" lon="-105.2297581">
  <ele>1582.68</ele>
  <time>2026-08-28T17:55:35Z</time>
  <course>312.68</course>
  <speed>19.421135394203915</speed>
  <fix>3d</fix>
</trkpt>
<trkpt lat="40.0713654" lon="-105.2297573">
  <ele>1583.0</ele>
  <time>2026-08-28T17:55:35Z</time>
  <course>6.18</course>
  <speed>15.96</speed>
  <fix>3d</fix>
</trkpt>
<trkpt lat="40.0713949" lon="-105.2297801">
  <ele>1582.58</ele>
  <time>2026-08-28T17:55:36Z</time>
  <course>276.8</course>
  <speed>19.32651029027227</speed>
  <fix>3d</fix>
</trkpt>
<trkpt lat="40.0713654" lon="-105.2297573">
  <ele>1583.0</ele>
  <time>2026-08-28T17:55:36Z</time>
  <course>6.18</course>
  <speed>15.96</speed>
  <fix>3d</fix>
</trkpt>
<trkpt lat="40.0713901" lon="-105.2298024">
  <ele>1582.73</ele>
  <time>2026-08-28T17:55:36Z</time>
  <course>241.2</course>
  <speed>19.17570337692988</speed>
  <fix>3d</fix>
</trkpt>
<trkpt lat="40.0713885" lon="-105.2297748">
  <ele>1583.0</ele>
  <time>2026-08-28T17:55:36Z</time>
  <course>294.21</course>
  <speed>15.96</speed>
  <fix>3d</fix>
</trkpt>
<trkpt lat="40.0713766" lon="-105.2298158">
  <ele>1583.04</ele>
  <time>2026-08-28T17:55:36Z</time>
  <course>205.1</course>
  <speed>19.12805531150514</speed>
  <fix>3d</fix>
</trkpt>
<trkpt lat="40.0713885" lon="-105.2297748">
  <ele>1583.0</ele>
  <time>2026-08-28T17:55:36Z</time>
  <course>294.21</course>
  <speed>15.96</speed>
  <fix>3d</fix>
</trkpt>
<trkpt lat="40.0713625" lon="-105.2298171">
  <ele>1583.26</ele>
  <time>2026-08-28T17:55:36Z</time>
  <course>175.73</course>
  <speed>19.446760655697904</speed>
  <fix>3d</fix>
</trkpt>
<trkpt lat="40.071383" lon="-105.229809">
  <ele>1583.0</ele>
  <time>2026-08-28T17:55:36Z</time>
  <course>222.24</course>
  <speed>15.96</speed>
  <fix>3d</fix>
</trkpt>
<trkpt lat="40.0713471" lon="-105.2298056">
  <ele>1583.3</ele>
  <time>2026-08-28T17:55:36Z</time>
  <course>140.04</course>
  <speed>20.068532582129667</speed>
  <fix>3d</fix>
</trkpt>
<trkpt lat="40.071383" lon="-105.229809">
  <ele>1583.0</ele>
  <time>2026-08-28T17:55:36Z</time>
  <course>222.24</course>
  <speed>15.96</speed>
  <fix>3d</fix>
</trkpt>
<trkpt lat="40.0713389" lon="-105.2297839">
  <ele>1583.03</ele>
  <time>2026-08-28T17:55:36Z</time>
  <course>104.46</course>
  <speed>20.555011554363087</speed>
  <fix>3d</fix>
</trkpt>
<trkpt lat="40.0713564" lon="-105.2298128">
  <ele>1583.0</ele>
  <time>2026-08-28T17:55:36Z</time>
  <course>150.27</course>
  <speed>15.96</speed>
  <fix>3d</fix>
</trkpt>
<trkpt lat="40.0713421" lon="-105.2297608">
  <ele>1582.63</ele>
  <time>2026-08-28T17:55:36Z</time>
  <course>68.32</course>
  <speed>20.698429892143995</speed>
  <fix>3d</fix>
</trkpt>
<trkpt lat="40.0713564" lon="-105.2298128">
  <ele>1583.0</ele>
  <time>2026-08-28T17:55:36Z</time>
  <course>150.27</course>
  <speed>15.96</speed>
  <fix>3d</fix>
</trkpt>
<trkpt lat="40.0713548" lon="-105.2297431">
  <ele>1582.37</ele>
  <time>2026-08-28T17:55:36Z</time>
  <course>32.07</course>
  <speed>20.597070180003758</speed>
  <fix>3d</fix>
</trkpt>
<trkpt lat="40.0713454" lon="-105.2297809">
  <ele>1583.0</ele>
  <time>2026-08-28T17:55:36Z</time>
  <course>78.3</course>
  <speed>15.97</speed>
  <fix>3d</fix>
</trkpt>
<trkpt lat="40.0713725" lon="-105.2297394">
  <ele>1582.43</ele>
  <time>2026-08-28T17:55:36Z</time>
  <course>356.75</course>
  <speed>19.871773952015456</speed>
  <fix>3d</fix>
</trkpt>
<trkpt lat="40.0713454" lon="-105.2297809">
  <ele>1583.0</ele>
  <time>2026-08-28T17:55:36Z</time>
  <course>78.3</course>
  <speed>15.97</speed>
  <fix>3d</fix>
</trkpt>
<trkpt lat="40.0713888" lon="-105.2297491">
  <ele>1582.74</ele>
  <time>2026-08-28T17:55:36Z</time>
  <course>320.98</course>
  <speed>18.902256479055616</speed>
  <fix>3d</fix>
</trkpt>
<trkpt lat="40.0713653" lon="-105.2297573">
  <ele>1583.0</ele>
  <time>2026-08-28T17:55:36Z</time>
  <course>6.33</course>
  <speed>15.97</speed>
  <fix>3d</fix>
</trkpt>
<trkpt lat="40.0713967" lon="-105.2297701">
  <ele>1583.09</ele>
  <time>2026-08-28T17:55:36Z</time>
  <course>284.15</course>
  <speed>18.475020974277676</speed>
  <fix>3d</fix>
</trkpt>
<trkpt lat="40.0713653" lon="-105.2297573">
  <ele>1583.0</ele>
  <time>2026-08-28T17:55:36Z</time>
  <course>6.33</course>
  <speed>15.97</speed>
  <fix>3d</fix>
</trkpt>
<trkpt lat="40.071394" lon="-105.2297936">
  <ele>1583.22</ele>
  <time>2026-08-28T17:55:36Z</time>
  <course>248.2</course>
  <speed>18.818852249805246</speed>
  <fix>3d</fix>
</trkpt>
<trkpt lat="40.0713886" lon="-105.2297747">
  <ele>1583.0</ele>
  <time>2026-08-28T17:55:36Z</time>
  <course>294.35</course>
  <speed>15.97</speed>
  <fix>3d</fix>
</trkpt>
<trkpt lat="40.0713811" lon="-105.2298105">
  <ele>1583.06</ele>
  <time>2026-08-28T17:55:36Z</time>
  <course>212.49</course>
  <speed>19.431430724473174</speed>
  <fix>3d</fix>
</trkpt>
<trkpt lat="40.0713886" lon="-105.2297747">
  <ele>1583.0</ele>
  <time>2026-08-28T17:55:36Z</time>
  <course>294.35</course>
  <speed>15.97</speed>
  <fix>3d</fix>
</trkpt>
<trkpt lat="40.0713594" lon="-105.229814">
  <ele>1582.74</ele>
  <time>2026-08-28T17:55:36Z</time>
  <course>168.85</course>
  <speed>20.18000247770054</speed>
  <fix>3d</fix>
</trkpt>
<trkpt lat="40.0713831" lon="-105.229809">
  <ele>1583.0</ele>
  <time>2026-08-28T17:55:36Z</time>
  <course>222.38</course>
  <speed>15.97</speed>
  <fix>3d</fix>
</trkpt>
<trkpt lat="40.0713443" lon="-105.2298013">
  <ele>1582.61</ele>
  <time>2026-08-28T17:55:36Z</time>
  <course>132.64</course>
  <speed>20.548133735208168</speed>
  <fix>3d</fix>
</trkpt>
<trkpt lat="40.0713831" lon="-105.229809">
  <ele>1583.0</ele>
  <time>2026-08-28T17:55:36Z</time>
  <course>222.38</course>
  <speed>15.97</speed>
  <fix>3d</fix>
</trkpt>
<trkpt lat="40.0713378" lon="-105.2297794">
  <ele>1582.72</ele>
  <time>2026-08-28T17:55:36Z</time>
  <course>96.77</course>
  <speed>20.443495298015943</speed>
  <fix>3d</fix>
</trkpt>
<trkpt lat="40.0713564" lon="-105.2298128">
  <ele>1583.0</ele>
  <time>2026-08-28T17:55:36Z</time>
  <course>150.41</course>
  <speed>15.98</speed>
  <fix>3d</fix>
</trkpt>
<trkpt lat="40.0713429" lon="-105.2297576">
  <ele>1582.93</ele>
  <time>2026-08-28T17:55:36Z</time>
  <course>60.63</course>
  <speed>20.04475492491739</speed>
  <fix>3d</fix>
</trkpt>
<trkpt lat="40.0713564" lon="-105.2298128">
  <ele>1583.0</ele>
  <time>2026-08-28T17:55:36Z</time>
  <course>150.41</course>
  <speed>15.98</speed>
  <fix>3d</fix>
</trkpt>
<trkpt lat="40.0713571" lon="-105.2297431">
  <ele>1583.02</ele>
  <time>2026-08-28T17:55:36Z</time>
  <course>24.56</course>
  <speed>19.788046897053786</speed>
  <fix>3d</fix>
</trkpt>
<trkpt lat="40.0713454" lon="-105.2297809">
  <ele>1583.0</ele>
  <time>2026-08-28T17:55:36Z</time>
  <course>78.29</course>
  <speed>15.95</speed>
  <fix>3d</fix>
</trkpt>
<trkpt lat="40.0713746" lon="-105.2297437">
  <ele>1582.91</ele>
  <time>2026-08-28T17:55:36Z</time>
  <course>348.87</course>
  <speed>19.532559996068102</speed>
  <fix>3d</fix>
</trkpt>
<trkpt lat="40.0713454" lon="-105.2297809">
  <ele>1583.0</ele>
  <time>2026-08-28T17:55:36Z</time>
  <course>78.29</course>
  <speed>15.95</speed>
  <fix>3d</fix>
</trkpt>
<trkpt lat="40.0713894" lon="-105.2297572">
  <ele>1582.65</ele>
  <time>2026-08-28T17:55:36Z</time>
  <course>312.83</course>
  <speed>19.47750754075069</speed>
  <fix>3d</fix>
</trkpt>
<trkpt lat="40.0713653" lon="-105.2297572">
  <ele>1583.0</ele>
  <time>2026-08-28T17:55:36Z</time>
  <course>6.17</course>
  <speed>15.98</speed>
  <fix>3d</fix>
</trkpt>
<trkpt lat="40.0713951" lon="-105.2297795">
  <ele>1582.51</ele>
  <time>2026-08-28T17:55:36Z</time>
  <course>276.86</course>
  <speed>19.429071001980514</speed>
  <fix>3d</fix>
</trkpt>
<trkpt lat="40.0713653" lon="-105.2297572">
  <ele>1583.0</ele>
  <time>2026-08-28T17:55:36Z</time>
  <course>6.17</course>
  <speed>15.98</speed>
  <fix>3d</fix>
</trkpt>
<trkpt lat="40.0713904" lon="-105.2298021">
  <ele>1582.64</ele>
  <time>2026-08-28T17:55:36Z</time>
  <course>241.33</course>
  <speed>19.29514187561211</speed>
  <fix>3d</fix>
</trkpt>
<trkpt lat="40.0713886" lon="-105.2297748">
  <ele>1583.0</ele>
  <time>2026-08-28T17:55:36Z</time>
  <course>294.2</course>
  <speed>15.98</speed>
  <fix>3d</fix>
</trkpt>
<trkpt lat="40.0713769" lon="-105.2298157">
  <ele>1582.98</ele>
  <time>2026-08-28T17:55:36Z</time>
  <course>205.29</course>
  <speed>19.153007596719632</speed>
  <fix>3d</fix>
</trkpt>
<trkpt lat="40.0713886" lon="-105.2297748">
  <ele>1583.0</ele>
  <time>2026-08-28T17:55:36Z</time>
  <course>294.2</course>
  <speed>15.98</speed>
  <fix>3d</fix>
</trkpt>
<trkpt lat="40.0713594" lon="-105.229816">
  <ele>1583.29</ele>
  <time>2026-08-28T17:55:36Z</time>
  <course>168.89</course>
  <speed>19.532823656604286</speed>
  <fix>3d</fix>
</trkpt>
<trkpt lat="40.0713831" lon="-105.229809">
  <ele>1583.0</ele>
  <time>2026-08-28T17:55:36Z</time>
  <course>222.23</course>
  <speed>15.99</speed>
  <fix>3d</fix>
</trkpt>
<trkpt lat="40.0713477" lon="-105.2298062">
  <ele>1583.33</ele>
  <time>2026-08-28T17:55:36Z</time>
  <course>140.17</course>
  <speed>19.94763394490685</speed>
  <fix>3d</fix>
</trkpt>
<trkpt lat="40.0713831" lon="-105.229809">
  <ele>1583.0</ele>
  <time>2026-08-28T17:55:36Z</time>
  <course>222.23</course>
  <speed>15.99</speed>
  <fix>3d</fix>
</trkpt>
<trkpt lat="40.0713399" lon="-105.2297851">
  <ele>1583.07</ele>
  <time>2026-08-28T17:55:36Z</time>
  <course>104.88</course>
  <speed>20.399029388674354</speed>
  <fix>3d</fix>
</trkpt>
<trkpt lat="40.0713564" lon="-105.2298128">
  <ele>1583.0</ele>
  <time>2026-08-28T17:55:36Z</time>
  <course>150.26</course>
  <speed>15.99</speed>
  <fix>3d</fix>
</trkpt>
<trkpt lat="40.0713432" lon="-105.2297621">
  <ele>1582.64</ele>
  <time>2026-08-28T17:55:36Z</time>
  <course>68.54</course>
  <speed>20.621854911719264</speed>
  <fix>3d</fix>
</trkpt>
<trkpt lat="40.0713564" lon="-105.2298128">
  <ele>1583.0</ele>
  <time>2026-08-28T17:55:36Z</time>
  <course>150.26</course>
  <speed>15.99</speed>
  <fix>3d</fix>
</trkpt>
<trkpt lat="40.071356" lon="-105.2297448">
  <ele>1582.33</ele>
  <time>2026-08-28T17:55:36Z</time>
  <course>32.51</course>
  <speed>20.69071772558893</speed>
  <fix>3d</fix>
</trkpt>
<trkpt lat="40.0713454" lon="-105.2297808">
  <ele>1583.0</ele>
  <time>2026-08-28T17:55:36Z</time>
  <course>78.29</course>
  <speed>15.99</speed>
  <fix>3d</fix>
</trkpt>
<trkpt lat="40.071374" lon="-105.229741">
  <ele>1582.37</ele>
  <time>2026-08-28T17:55:36Z</time>
  <course>357.28</course>
  <speed>20.108828906726515</speed>
  <fix>3d</fix>
</trkpt>
<trkpt lat="40.0713454" lon="-105.2297808">
  <ele>1583.0</ele>
  <time>2026-08-28T17:55:36Z</time>
  <course>78.29</course>
  <speed>15.99</speed>
  <fix>3d</fix>
</trkpt>
<trkpt lat="40.0713904" lon="-105.2297505">
  <ele>1582.71</ele>
  <time>2026-08-28T17:55:36Z</time>
  <course>321.64</course>
  <speed>19.13463874756981</speed>
  <fix>3d</fix>
</trkpt>
<trkpt lat="40.0713653" lon="-105.2297572">
  <ele>1583.0</ele>
  <time>2026-08-28T17:55:36Z</time>
  <course>6.31</course>
  <speed>15.99</speed>
  <fix>3d</fix>
</trkpt>
<trkpt lat="40.0713986" lon="-105.2297713">
  <ele>1583.09</ele>
  <time>2026-08-28T17:55:36Z</time>
  <course>285.01</course>
  <speed>18.61919708258119</speed>
  <fix>3d</fix>
</trkpt>
<trkpt lat="40.0713653" lon="-105.2297572">
  <ele>1583.0</ele>
  <time>2026-08-28T17:55:36Z</time>
  <course>6.31</course>
  <speed>15.99</speed>
  <fix>3d</fix>
</trkpt>
<trkpt lat="40.071396" lon="-105.229795">
  <ele>1583.25</ele>
  <time>2026-08-28T17:55:36Z</time>
  <course>248.7</course>
  <speed>18.885743300172223</speed>
  <fix>3d</fix>
</trkpt>
<trkpt lat="40.0713886" lon="-105.2297746">
  <ele>1583.0</ele>
  <time>2026-08-28T17:55:36Z</time>
  <course>294.34</course>
  <speed>15.99</speed>
  <fix>3d</fix>
</trkpt>
<trkpt lat="40.0713831" lon="-105.2298122">
  <ele>1583.1</ele>
  <time>2026-08-28T17:55:36Z</time>
  <course>213.09</course>
  <speed>19.438953161114412</speed>
  <fix>3d</fix>
</trkpt>
<trkpt lat="40.0713886" lon="-105.2297746">
  <ele>1583.0</ele>
  <time>2026-08-28T17:55:36Z</time>
  <course>294.34</course>
  <speed>15.99</speed>
  <fix>3d</fix>
</trkpt>
<trkpt lat="40.0713649" lon="-105.2298169">
  <ele>1582.79</ele>
  <time>2026-08-28T17:55:36Z</time>
  <course>176.72</course>
  <speed>20.02404804229155</speed>
  <fix>3d</fix>
</trkpt>
<trkpt lat="40.0713831" lon="-105.229809">
  <ele>1583.0</ele>
  <time>2026-08-28T17:55:36Z</time>
  <course>222.37</course>
  <speed>16.0</speed>
  <fix>3d</fix>
</trkpt>
<trkpt lat="40.0713459" lon="-105.2298033">
  <ele>1582.58</ele>
  <time>2026-08-28T17:55:36Z</time>
  <course>133.11</course>
  <speed>20.503914260452806</speed>
  <fix>3d</fix>
</trkpt>
<trkpt lat="40.0713831" lon="-105.229809">
  <ele>1583.0</ele>
  <time>2026-08-28T17:55:36Z</time>
  <course>222.37</course>
  <speed>16.0</speed>
  <fix>3d</fix>
</trkpt>
<trkpt lat="40.071339" lon="-105.2297815">
  <ele>1582.69</ele>
  <time>2026-08-28T17:55:36Z</time>
  <course>97.3</course>
  <speed>20.400453426333446</speed>
  <fix>3d</fix>
</trkpt>
<trkpt lat="40.0713564" lon="-105.2298128">
  <ele>1583.0</ele>
  <time>2026-08-28T17:55:36Z</time>
  <course>150.4</course>
  <speed>16.0</speed>
  <fix>3d</fix>
</trkpt>
<trkpt lat="40.0713437" lon="-105.2297593">
  <ele>1582.94</ele>
  <time>2026-08-28T17:55:36Z</time>
  <course>61.13</course>
  <speed>19.997384829022018</speed>
  <fix>3d</fix>
</trkpt>
<trkpt lat="40.0713564" lon="-105.2298128">
  <ele>1583.0</ele>
  <time>2026-08-28T17:55:36Z</time>
  <course>150.4</course>
  <speed>16.0</speed>
  <fix>3d</fix>
</trkpt>
<trkpt lat="40.0713577" lon="-105.2297449">
  <ele>1583.07</ele>
  <time>2026-08-28T17:55:36Z</time>
  <course>24.98</course>
  <speed>19.765558428741645</speed>
  <fix>3d</fix>
</trkpt>
<trkpt lat="40.0713454" lon="-105.2297809">
  <ele>1583.0</ele>
  <time>2026-08-28T17:55:36Z</time>
  <course>78.43</course>
  <speed>16.0</speed>
  <fix>3d</fix>
</trkpt>
<trkpt lat="40.0713759" lon="-105.229745">
  <ele>1582.97</ele>
  <time>2026-08-28T17:55:36Z</time>
  <course>349.25</course>
  <speed>19.669331457881327</speed>
  <fix>3d</fix>
</trkpt>
<trkpt lat="40.0713454" lon="-105.2297809">
  <ele>1583.0</ele>
  <time>2026-08-28T17:55:36Z</time>
  <course>78.43</course>
  <speed>16.0</speed>
  <fix>3d</fix>
</trkpt>
<trkpt lat="40.0713913" lon="-105.2297582">
  <ele>1582.69</ele>
  <time>2026-08-28T17:55:36Z</time>
  <course>313.1</course>
  <speed>19.670205896227927</speed>
  <fix>3d</fix>
</trkpt>
<trkpt lat="40.0713653" lon="-105.2297573">
  <ele>1583.0</ele>
  <time>2026-08-28T17:55:36Z</time>
  <course>6.31</course>
  <speed>15.97</speed>
  <fix>3d</fix>
</trkpt>
<trkpt lat="40.0713974" lon="-105.2297803">
  <ele>1582.5</ele>
  <time>2026-08-28T17:55:36Z</time>
  <course>276.92</course>
  <speed>19.577972315845173</speed>
  <fix>3d</fix>
</trkpt>
<trkpt lat="40.0713653" lon="-105.2297573">
  <ele>1583.0</ele>
  <time>2026-08-28T17:55:36Z</time>
  <course>6.31</course>
  <speed>15.97</speed>
  <fix>3d</fix>
</trkpt>
<trkpt lat="40.071393" lon="-105.2298029">
  <ele>1582.61</ele>
  <time>2026-08-28T17:55:36Z</time>
  <course>241.4</course>
  <speed>19.322828467902934</speed>
  <fix>3d</fix>
</trkpt>
<trkpt lat="40.0713886" lon="-105.2297748">
  <ele>1583.0</ele>
  <time>2026-08-28T17:55:36Z</time>
  <course>294.19</course>
  <speed>16.01</speed>
  <fix>3d</fix>
</trkpt>
<trkpt lat="40.0713797" lon="-105.2298166">
  <ele>1582.97</ele>
  <time>2026-08-28T17:55:36Z</time>
  <course>205.44</course>
  <speed>19.01339790779123</speed>
  <fix>3d</fix>
</trkpt>
<trkpt lat="40.0713886" lon="-105.2297748">
  <ele>1583.0</ele>
  <time>2026-08-28T17:55:36Z</time>
  <course>294.19</course>
  <speed>16.01</speed>
  <fix>3d</fix>
</trkpt>
<trkpt lat="40.0713623" lon="-105.229817">
  <ele>1583.33</ele>
  <time>2026-08-28T17:55:36Z</time>
  <course>168.89</course>
  <speed>19.30740790473957</speed>
  <fix>3d</fix>
</trkpt>
<trkpt lat="40.0713831" lon="-105.2298091">
  <ele>1583.0</ele>
  <time>2026-08-28T17:55:36Z</time>
  <course>222.22</course>
  <speed>16.01</speed>
  <fix>3d</fix>
</trkpt>
<trkpt lat="40.0713483" lon="-105.2298037">
  <ele>1583.39</ele>
  <time>2026-08-28T17:55:36Z</time>
  <course>133.4</course>
  <speed>19.90838265655952</speed>
  <fix>3d</fix>
</trkpt>
<trkpt lat="40.0713831" lon="-105.2298091">
  <ele>1583.0</ele>
  <time>2026-08-28T17:55:36Z</time>
  <course>222.22</course>
  <speed>16.01</speed>
  <fix>3d</fix>
</trkpt>
<trkpt lat="40.0713426" lon="-105.2297858">
  <ele>1583.16</ele>
  <time>2026-08-28T17:55:36Z</time>
  <course>104.99</course>
  <speed>20.33779978267069</speed>
  <fix>3d</fix>
</trkpt>
<trkpt lat="40.0713564" lon="-105.2298129">
  <ele>1583.0</ele>
  <time>2026-08-28T17:55:36Z</time>
  <course>150.24</course>
  <speed>16.01</speed>
  <fix>3d</fix>
</trkpt>
<trkpt lat="40.0713458" lon="-105.2297627">
  <ele>1582.7</ele>
  <time>2026-08-28T17:55:36Z</time>
  <course>68.69</course>
  <speed>20.662867661580762</speed>
  <fix>3d</fix>
</trkpt>
<trkpt lat="40.0713564" lon="-105.2298129">
  <ele>1583.0</ele>
  <time>2026-08-28T17:55:36Z</time>
  <course>150.24</course>
  <speed>16.01</speed>
  <fix>3d</fix>
</trkpt>
<trkpt lat="40.0713586" lon="-105.2297451">
  <ele>1582.34</ele>
  <time>2026-08-28T17:55:36Z</time>
  <course>32.17</course>
  <speed>20.84051822772169</speed>
  <fix>3d</fix>
</trkpt>
<trkpt lat="40.0713454" lon="-105.2297808">
  <ele>1583.0</ele>
  <time>2026-08-28T17:55:36Z</time>
  <course>78.27</course>
  <speed>16.01</speed>
  <fix>3d</fix>
</trkpt>
<trkpt lat="40.0713764" lon="-105.2297413">
  <ele>1582.35</ele>
  <time>2026-08-28T17:55:36Z</time>
  <course>357.3</course>
  <speed>20.32695255073913</speed>
  <fix>3d</fix>
</trkpt>
<trkpt lat="40.0713454" lon="-105.2297808">
  <ele>1583.0</ele>
  <time>2026-08-28T17:55:36Z</time>
  <course>78.27</course>
  <speed>16.01</speed>
  <fix>3d</fix>
</trkpt>
<trkpt lat="40.0713928" lon="-105.2297506">
  <ele>1582.7</ele>
  <time>2026-08-28T17:55:36Z</time>
  <course>321.84</course>
  <speed>19.26636706802816</speed>
  <fix>3d</fix>
</trkpt>
<trkpt lat="40.0713652" lon="-105.2297572">
  <ele>1583.0</ele>
  <time>2026-08-28T17:55:36Z</time>
  <course>6.3</course>
  <speed>16.01</speed>
  <fix>3d</fix>
</trkpt>
<trkpt lat="40.0714009" lon="-105.2297712">
  <ele>1583.13</ele>
  <time>2026-08-28T17:55:36Z</time>
  <course>285.12</course>
  <speed>18.60510145094619</speed>
  <fix>3d</fix>
</trkpt>
<trkpt lat="40.0713652" lon="-105.2297572">
  <ele>1583.0</ele>
  <time>2026-08-28T17:55:36Z</time>
  <course>6.3</course>
  <speed>16.01</speed>
  <fix>3d</fix>
</trkpt>
<trkpt lat="40.0713983" lon="-105.2297948">
  <ele>1583.34</ele>
  <time>2026-08-28T17:55:36Z</time>
  <course>249.03</course>
  <speed>18.802491856134388</speed>
  <fix>3d</fix>
</trkpt>
<trkpt lat="40.0713886" lon="-105.2297747">
  <ele>1583.0</ele>
  <time>2026-08-28T17:55:36Z</time>
  <course>294.36</course>
  <speed>16.01</speed>
  <fix>3d</fix>
</trkpt>
<trkpt lat="40.0713852" lon="-105.2298121">
  <ele>1583.19</ele>
  <time>2026-08-28T17:55:36Z</time>
  <course>213.28</course>
  <speed>19.239056629679116</speed>
  <fix>3d</fix>
</trkpt>
<trkpt lat="40.0713886" lon="-105.2297747">
  <ele>1583.0</ele>
  <time>2026-08-28T17:55:36Z</time>
  <course>294.36</course>
  <speed>16.01</speed>
  <fix>3d</fix>
</trkpt>
<trkpt lat="40.071367" lon="-105.229818">
  <ele>1582.85</ele>
  <time>2026-08-28T17:55:36Z</time>
  <course>191.3</course>
  <speed>19.514827695882943</speed>
  <fix>3d</fix>
</trkpt>
<trkpt lat="40.0713834" lon="-105.2298096">
  <ele>1583.0</ele>
  <time>2026-08-28T17:55:36Z</time>
  <course>229.81</course>
  <speed>17.19</speed>
  <fix>3d</fix>
</trkpt>
<trkpt lat="40.0713457" lon="-105.229822">
  <ele>1582.58</ele>
  <time>2026-08-28T17:55:36Z</time>
  <course>190.98</course>
  <speed>19.29030844750804</speed>
  <fix>3d</fix>
</trkpt>
<trkpt lat="40.0713834" lon="-105.2298096">
  <ele>1583.0</ele>
  <time>2026-08-28T17:55:36Z</time>
  <course>229.81</course>
  <speed>17.19</speed>
  <fix>3d</fix>
</trkpt>
<trkpt lat="40.0713284" lon="-105.2298254">
  <ele>1582.54</ele>
  <time>2026-08-28T17:55:36Z</time>
  <course>190.79</course>
  <speed>18.93021394490828</speed>
  <fix>3d</fix>
</trkpt>
<trkpt lat="40.0713552" lon="-105.2298326">
  <ele>1583.0</ele>
  <time>2026-08-28T17:55:36Z</time>
  <course>200.77</course>
  <speed>19.13</speed>
  <fix>3d</fix>
</trkpt>
<trkpt lat="40.071312" lon="-105.2298306">
  <ele>1582.6</ele>
  <time>2026-08-28T17:55:36Z</time>
  <course>190.94</course>
  <speed>18.17864956480541</speed>
  <fix>3d</fix>
</trkpt>
<trkpt lat="40.0713552" lon="-105.2298326">
  <ele>1583.0</ele>
  <time>2026-08-28T17:55:36Z</time>
  <course>200.77</course>
  <speed>19.13</speed>
  <fix>3d</fix>
</trkpt>
<trkpt lat="40.0712967" lon="-105.2298357">
  <ele>1582.71</ele>
  <time>2026-08-28T17:55:36Z</time>
  <course>191.12</course>
  <speed>17.26048956432001</speed>
  <fix>3d</fix>
</trkpt>
<trkpt lat="40.071324" lon="-105.2298481">
  <ele>1583.0</ele>
  <time>2026-08-28T17:55:36Z</time>
  <course>200.76</course>
  <speed>18.04</speed>
  <fix>3d</fix>
</trkpt>
<trkpt lat="40.0712824" lon="-105.2298422">
  <ele>1582.82</ele>
  <time>2026-08-28T17:55:36Z</time>
  <course>191.47</course>
  <speed>16.37769519804298</speed>
  <fix>3d</fix>
</trkpt>
<trkpt lat="40.071324" lon="-105.2298481">
  <ele>1583.0</ele>
  <time>2026-08-28T17:55:36Z</time>
  <course>200.76</course>
  <speed>18.04</speed>
  <fix>3d</fix>
</trkpt>
<trkpt lat="40.0712688" lon="-105.2298479">
  <ele>1582.93</ele>
  <time>2026-08-28T17:55:36Z</time>
  <course>191.77</course>
  <speed>15.560777615530657</speed>
  <fix>3d</fix>
</trkpt>
<trkpt lat="40.0712949" lon="-105.2298625">
  <ele>1583.0</ele>
  <time>2026-08-28T17:55:36Z</time>
  <course>200.75</course>
  <speed>16.46</speed>
  <fix>3d</fix>
</trkpt>
<trkpt lat="40.0712564" lon="-105.229855">
  <ele>1583.02</ele>
  <time>2026-08-28T17:55:36Z</time>
  <course>192.08</course>
  <speed>14.793218040710412</speed>
  <fix>3d</fix>
</trkpt>
<trkpt lat="40.0712949" lon="-105.2298625">
  <ele>1583.0</ele>
  <time>2026-08-28T17:55:36Z</time>
  <course>200.75</course>
  <speed>16.46</speed>
  <fix>3d</fix>
</trkpt>
<trkpt lat="40.0712444" lon="-105.2298612">
  <ele>1583.09</ele>
  <time>2026-08-28T17:55:36Z</time>
  <course>192.31</course>
  <speed>14.085978844226624</speed>
  <fix>3d</fix>
</trkpt>
<trkpt lat="40.0712685" lon="-105.2298756">
  <ele>1583.0</ele>
  <time>2026-08-28T17:55:36Z</time>
  <course>200.74</course>
  <speed>14.89</speed>
  <fix>3d</fix>
</trkpt>
<trkpt lat="40.0712333" lon="-105.2298684">
  <ele>1583.15</ele>
  <time>2026-08-28T17:55:36Z</time>
  <course>192.53</course>
  <speed>13.423431007011583</speed>
  <fix>3d</fix>
</trkpt>
<trkpt lat="40.0712685" lon="-105.2298756">
  <ele>1583.0</ele>
  <time>2026-08-28T17:55:36Z</time>
  <course>200.74</course>
  <speed>14.89</speed>
  <fix>3d</fix>
</trkpt>
<trkpt lat="40.0712225" lon="-105.2298747">
  <ele>1583.2</ele>
  <time>2026-08-28T17:55:36Z</time>
  <course>192.67</course>
  <speed>12.801081985519819</speed>
  <fix>3d</fix>
</trkpt>
<trkpt lat="40.0712446" lon="-105.2298873">
  <ele>1583.0</ele>
  <time>2026-08-28T17:55:36Z</time>
  <course>200.72</course>
  <speed>13.47</speed>
  <fix>3d</fix>
</trkpt>
<trkpt lat="40.0712125" lon="-105.2298817">
  <ele>1583.23</ele>
  <time>2026-08-28T17:55:36Z</time>
  <course>192.79</course>
  <speed>12.213128182410927</speed>
  <fix>3d</fix>
</trkpt>
<trkpt lat="40.0712446" lon="-105.2298873">
  <ele>1583.0</ele>
  <time>2026-08-28T17:55:36Z</time>
  <course>200.72</course>
  <speed>13.47</speed>
  <fix>3d</fix>
</trkpt>
<trkpt lat="40.0712028" lon="-105.2298879">
  <ele>1583.26</ele>
  <time>2026-08-28T17:55:36Z</time>
  <course>192.88</course>
  <speed>11.668247511944541</speed>
  <fix>3d</fix>
</trkpt>
<trkpt lat="40.0712231" lon="-105.2298979">
  <ele>1583.0</ele>
  <time>2026-08-28T17:55:36Z</time>
  <course>200.7</course>
  <speed>12.19</speed>
  <fix>3d</fix>
</trkpt>
<trkpt lat="40.0711956" lon="-105.2298933">
  <ele>1583.28</ele>
  <time>2026-08-28T17:55:36Z</time>
  <course>192.93</course>
  <speed>11.242797694524258</speed>
  <fix>3d</fix>
</trkpt>
<trkpt lat="40.0712231" lon="-105.2298979">
  <ele>1583.0</ele>
  <time>2026-08-28T17:55:36Z</time>
  <course>200.7</course>
  <speed>12.19</speed>
  <fix>3d</fix>
</trkpt>
<trkpt lat="40.0711868" lon="-105.2298994">
  <ele>1583.3</ele>
  <time>2026-08-28T17:55:36Z</time>
  <course>192.98</course>
  <speed>10.752162573175688</speed>
  <fix>3d</fix>
</trkpt>
<trkpt lat="40.0712036" lon="-105.2299076">
  <ele>1583.0</ele>
  <time>2026-08-28T17:55:36Z</time>
  <course>200.68</course>
  <speed>11.03</speed>
  <fix>3d</fix>
</trkpt>
<trkpt lat="40.0711786" lon="-105.2299058">
  <ele>1583.32</ele>
  <time>2026-08-28T17:55:36Z</time>
  <course>193.03</course>
  <speed>10.283287412107084</speed>
  <fix>3d</fix>
</trkpt>
<trkpt lat="40.0712036" lon="-105.2299076">
  <ele>1583.0</ele>
  <time>2026-08-28T17:55:36Z</time>
  <course>200.68</course>
  <speed>11.03</speed>
  <fix>3d</fix>
</trkpt>
<trkpt lat="40.0711708" lon="-105.2299115">
  <ele>1583.33</ele>
  <time>2026-08-28T17:55:36Z</time>
  <course>193.06</course>
  <speed>9.84374928571426</speed>
  <fix>3d</fix>
</trkpt>
<trkpt lat="40.071186" lon="-105.2299163">
  <ele>1583.0</ele>
  <time>2026-08-28T17:55:36Z</time>
  <course>200.66</course>
  <speed>9.98</speed>
  <fix>3d</fix>
</trkpt>
<trkpt lat="40.0711633" lon="-105.2299174">
  <ele>1583.34</ele>
  <time>2026-08-28T17:55:36Z</time>
  <course>193.08</course>
  <speed>9.431781379993918</speed>
  <fix>3d</fix>
</trkpt>
<trkpt lat="40.071186" lon="-105.2299163">
  <ele>1583.0</ele>
  <time>2026-08-28T17:55:36Z</time>
  <course>200.66</course>
  <speed>9.98</speed>
  <fix>3d</fix>
</trkpt>
<trkpt lat="40.0711562" lon="-105.2299228">
  <ele>1583.34</ele>
  <time>2026-08-28T17:55:36Z</time>
  <course>193.1</course>
  <speed>9.035806549500714</speed>
  <fix>3d</fix>
</trkpt>
<trkpt lat="40.0711701" lon="-105.2299242">
  <ele>1583.0</ele>
  <time>2026-08-28T17:55:36Z</time>
  <course>200.64</course>
  <speed>9.03</speed>
  <fix>3d</fix>
</trkpt>
<trkpt lat="40.0711495" lon="-105.2299282">
  <ele>1583.34</ele>
  <time>2026-08-28T17:55:36Z</time>
  <course>193.12</course>
  <speed>8.658960676663222</speed>
  <fix>3d</fix>
</trkpt>
<trkpt lat="40.0711701" lon="-105.2299242">
  <ele>1583.0</ele>
  <time>2026-08-28T17:55:36Z</time>
  <course>200.64</course>
  <speed>9.03</speed>
  <fix>3d</fix>
</trkpt>
<trkpt lat="40.071143" lon="-105.2299333">
  <ele>1583.34</ele>
  <time>2026-08-28T17:55:36Z</time>
  <course>193.14</course>
  <speed>8.31409044935163</speed>
  <fix>3d</fix>
</trkpt>
<trkpt lat="40.0711556" lon="-105.2299313">
  <ele>1583.0</ele>
  <time>2026-08-28T17:55:36Z</time>
  <course>200.61</course>
  <speed>8.17</speed>
  <fix>3d</fix>
</trkpt>
<trkpt lat="40.071137" lon="-105.2299381">
  <ele>1583.33</ele>
  <time>2026-08-28T17:55:36Z</time>
  <course>193.16</course>
  <speed>7.973713062306669</speed>
  <fix>3d</fix>
</trkpt>
<trkpt lat="40.0711556" lon="-105.2299313">
  <ele>1583.0</ele>
  <time>2026-08-28T17:55:36Z</time>
  <course>200.61</course>
  <speed>8.17</speed>
  <fix>3d</fix>
</trkpt>
<trkpt lat="40.07113" lon="-105.2299437">
  <ele>1583.33</ele>
  <time>2026-08-28T17:55:36Z</time>
  <course>193.17</course>
  <speed>7.589789193383436</speed>
  <fix>3d</fix>
</trkpt>
<trkpt lat="40.0711425" lon="-105.2299377">
  <ele>1583.0</ele>
  <time>2026-08-28T17:55:36Z</time>
  <course>200.59</course>
  <speed>7.39</speed>
  <fix>3d</fix>
</trkpt>
<trkpt lat="40.0711247" lon="-105.229948">
  <ele>1583.33</ele>
  <time>2026-08-28T17:55:36Z</time>
  <course>193.2</course>
  <speed>7.287063880603765</speed>
  <fix>3d</fix>
</trkpt>
<trkpt lat="40.0711425" lon="-105.2299377">
  <ele>1583.0</ele>
  <time>2026-08-28T17:55:36Z</time>
  <course>200.59</course>
  <speed>7.39</speed>
  <fix>3d</fix>
</trkpt>
<trkpt lat="40.0711195" lon="-105.2299521">
  <ele>1583.33</ele>
  <time>2026-08-28T17:55:36Z</time>
  <course>193.22</course>
  <speed>6.996256141680349</speed>
  <fix>3d</fix>
</trkpt>
<trkpt lat="40.0711307" lon="-105.2299435">
  <ele>1583.0</ele>
  <time>2026-08-28T17:55:36Z</time>
  <course>200.55</course>
  <speed>6.69</speed>
  <fix>3d</fix>
</trkpt>
<trkpt lat="40.0711146" lon="-105.2299559">
  <ele>1583.32</ele>
  <time>2026-08-28T17:55:36Z</time>
  <course>193.25</course>
  <speed>6.7146481665088</speed>
  <fix>3d</fix>
</trkpt>
<trkpt lat="40.0711307" lon="-105.2299435">
  <ele>1583.0</ele>
  <time>2026-08-28T17:55:36Z</time>
  <course>200.55</course>
  <speed>6.69</speed>
  <fix>3d</fix>
</trkpt>
<trkpt lat="40.07111" lon="-105.2299597">
  <ele>1583.32</ele>
  <time>2026-08-28T17:55:36Z</time>
  <course>193.28</course>
  <speed>6.4637450444769255</speed>
  <fix>3d</fix>
</trkpt>
<trkpt lat="40.0711199" lon="-105.2299487">
  <ele>1583.0</ele>
  <time>2026-08-28T17:55:36Z</time>
  <course>200.52</course>
  <speed>6.05</speed>
  <fix>3d</fix>
</trkpt>
<trkpt lat="40.0711056" lon="-105.2299629">
  <ele>1583.32</ele>
  <time>2026-08-28T17:55:36Z</time>
  <course>193.31</course>
  <speed>6.194941484792249</speed>
  <fix>3d</fix>
</trkpt>
<trkpt lat="40.0711199" lon="-105.2299487">
  <ele>1583.0</ele>
  <time>2026-08-28T17:55:36Z</time>
  <course>200.52</course>
  <speed>6.05</speed>
  <fix>3d</fix>
</trkpt>
<trkpt lat="40.0711015" lon="-105.2299662">
  <ele>1583.31</ele>
  <time>2026-08-28T17:55:36Z</time>
  <course>193.34</course>
  <speed>5.94801647610361</speed>
  <fix>3d</fix>
</trkpt>
<trkpt lat="40.0711103" lon="-105.2299535">
  <ele>1583.0</ele>
  <time>2026-08-28T17:55:36Z</time>
  <course>200.48</course>
  <speed>5.47</speed>
  <fix>3d</fix>
</trkpt>
<trkpt lat="40.0710976" lon="-105.2299689">
  <ele>1583.31</ele>
  <time>2026-08-28T17:55:36Z</time>
  <course>193.38</course>
  <speed>5.692986913738692</speed>
  <fix>3d</fix>
</trkpt>
<trkpt lat="40.0711103" lon="-105.2299535">
  <ele>1583.0</ele>
  <time>2026-08-28T17:55:36Z</time>
  <course>200.48</course>
  <speed>5.47</speed>
  <fix>3d</fix>
</trkpt>
<trkpt lat="40.0710938" lon="-105.2299718">
  <ele>1583.31</ele>
  <time>2026-08-28T17:55:36Z</time>
  <course>193.42</course>
  <speed>5.461446694787014</speed>
  <fix>3d</fix>
</trkpt>
<trkpt lat="40.0711015" lon="-105.2299577">
  <ele>1583.0</ele>
  <time>2026-08-28T17:55:36Z</time>
  <course>200.44</course>
  <speed>4.95</speed>
  <fix>3d</fix>
</trkpt>
<trkpt lat="40.0710903" lon="-105.2299741">
  <ele>1583.3</ele>
  <time>2026-08-28T17:55:36Z</time>
  <course>193.47</course>
  <speed>5.220086206184721</speed>
  <fix>3d</fix>
</trkpt>
<trkpt lat="40.0711015" lon="-105.2299577">
  <ele>1583.0</ele>
  <time>2026-08-28T17:55:36Z</time>
  <course>200.44</course>
  <speed>4.95</speed>
  <fix>3d</fix>
</trkpt>
<trkpt lat="40.071087" lon="-105.2299765">
  <ele>1583.3</ele>
  <time>2026-08-28T17:55:36Z</time>
  <course>193.51</course>
  <speed>5.014349409444859</speed>
  <fix>3d</fix>
</trkpt>
<trkpt lat="40.0710935" lon="-105.2299616">
  <ele>1583.0</ele>
  <time>2026-08-28T17:55:36Z</time>
  <course>200.39</course>
  <speed>4.48</speed>
  <fix>3d</fix>
</trkpt>
<trkpt lat="40.0710844" lon="-105.229978">
  <ele>1583.29</ele>
  <time>2026-08-28T17:55:36Z</time>
  <course>193.55</course>
  <speed>4.820290447680513</speed>
  <fix>3d</fix>
</trkpt>
<trkpt lat="40.0710935" lon="-105.2299616">
  <ele>1583.0</ele>
  <time>2026-08-28T17:55:36Z</time>
  <course>200.39</course>
  <speed>4.48</speed>
  <fix>3d</fix>
</trkpt>
<trkpt lat="40.0710813" lon="-105.2299801">
  <ele>1583.29</ele>
  <time>2026-08-28T17:55:36Z</time>
  <course>193.59</course>
  <speed>4.617358552246078</speed>
  <fix>3d</fix>
</trkpt>
<trkpt lat="40.0710864" lon="-105.2299651">
  <ele>1583.0</ele>
  <time>2026-08-28T17:55:36Z</time>
  <course>200.34</course>
  <speed>4.05</speed>
  <fix>3d</fix>
</trkpt>
<trkpt lat="40.0710784" lon="-105.2299816">
  <ele>1583.28</ele>
  <time>2026-08-28T17:55:36Z</time>
  <course>193.65</course>
  <speed>4.396600959832494</speed>
  <fix>3d</fix>
</trkpt>
<trkpt lat="40.0710864" lon="-105.2299651">
  <ele>1583.0</ele>
  <time>2026-08-28T17:55:36Z</time>
  <course>200.34</course>
  <speed>4.05</speed>
  <fix>3d</fix>
</trkpt>
<trkpt lat="40.0710756" lon="-105.2299833">
  <ele>1583.27</ele>
  <time>2026-08-28T17:55:36Z</time>
  <course>193.69</course>
  <speed>4.20990498705137</speed>
  <fix>3d</fix>
</trkpt>
<trkpt lat="40.0710799" lon="-105.2299683">
  <ele>1583.0</ele>
  <time>2026-08-28T17:55:36Z</time>
  <course>200.28</course>
  <speed>3.67</speed>
  <fix>3d</fix>
</trkpt>
<trkpt lat="40.071073" lon="-105.2299845">
  <ele>1583.26</ele>
  <time>2026-08-28T17:55:36Z</time>
  <course>193.74</course>
  <speed>3.996961345822599</speed>
  <fix>3d</fix>
</trkpt>
<trkpt lat="40.0710799" lon="-105.2299683">
  <ele>1583.0</ele>
  <time>2026-08-28T17:55:36Z</time>
  <course>200.28</course>
  <speed>3.67</speed>
  <fix>3d</fix>
</trkpt>
<trkpt lat="40.0710704" lon="-105.2299861">
  <ele>1583.25</ele>
  <time>2026-08-28T17:55:36Z</time>
  <course>193.79</course>
  <speed>3.825976999408125</speed>
  <fix>3d</fix>
</trkpt>
<trkpt lat="40.0710739" lon="-105.2299711">
  <ele>1583.0</ele>
  <time>2026-08-28T17:55:36Z</time>
  <course>200.22</course>
  <speed>3.32</speed>
  <fix>3d</fix>
</trkpt>
<trkpt lat="40.071068" lon="-105.229987">
  <ele>1583.23</ele>
  <time>2026-08-28T17:55:36Z</time>
  <course>193.84</course>
  <speed>3.6277954738380718</speed>
  <fix>3d</fix>
</trkpt>
<trkpt lat="40.0710739" lon="-105.2299711">
  <ele>1583.0</ele>
  <time>2026-08-28T17:55:36Z</time>
  <course>200.22</course>
  <speed>3.32</speed>
  <fix>3d</fix>
</trkpt>
<trkpt lat="40.0710657" lon="-105.2299884">
  <ele>1583.22</ele>
  <time>2026-08-28T17:55:36Z</time>
  <course>193.88</course>
  <speed>3.4648520891951504</speed>
  <fix>3d</fix>
</trkpt>
<trkpt lat="40.0710686" lon="-105.2299736">
  <ele>1583.0</ele>
  <time>2026-08-28T17:55:36Z</time>
  <course>200.15</course>
  <speed>3.0</speed>
  <fix>3d</fix>
</trkpt>
<trkpt lat="40.0710635" lon="-105.2299891">
  <ele>1583.21</ele>
  <time>2026-08-28T17:55:36Z</time>
  <course>193.92</course>
  <speed>3.2880541358073776</speed>
  <fix>3d</fix>
</trkpt>
<trkpt lat="40.0710686" lon="-105.2299736">
  <ele>1583.0</ele>
  <time>2026-08-28T17:55:36Z</time>
  <course>200.15</course>
  <speed>3.0</speed>
  <fix>3d</fix>
</trkpt>
<trkpt lat="40.0710614" lon="-105.2299902">
  <ele>1583.19</ele>
  <time>2026-08-28T17:55:36Z</time>
  <course>193.96</course>
  <speed>3.132554867835518</speed>
  <fix>3d</fix>
</trkpt>
<trkpt lat="40.0710638" lon="-105.2299759">
  <ele>1583.0</ele>
  <time>2026-08-28T17:55:36Z</time>
  <course>200.07</course>
  <speed>2.72</speed>
  <fix>3d</fix>
</trkpt>
<trkpt lat="40.071059" lon="-105.2299909">
  <ele>1583.18</ele>
  <time>2026-08-28T17:55:36Z</time>
  <course>194.02</course>
  <speed>2.9347061181658374</speed>
  <fix>3d</fix>
</trkpt>
<trkpt lat="40.0710638" lon="-105.2299759">
  <ele>1583.0</ele>
  <time>2026-08-28T17:55:36Z</time>
  <course>200.07</course>
  <speed>2.72</speed>
  <fix>3d</fix>
</trkpt>
<trkpt lat="40.0710571" lon="-105.2299917">
  <ele>1583.17</ele>
  <time>2026-08-28T17:55:36Z</time>
  <course>194.05</course>
  <speed>2.7863237428554495</speed>
  <fix>3d</fix>
</trkpt>
<trkpt lat="40.0710594" lon="-105.2299781">
  <ele>1583.0</ele>
  <time>2026-08-28T17:55:36Z</time>
  <course>199.99</course>
  <speed>2.46</speed>
  <fix>3d</fix>
</trkpt>
<trkpt lat="40.0710553" lon="-105.2299922">
  <ele>1583.16</ele>
  <time>2026-08-28T17:55:36Z</time>
  <course>194.09</course>
  <speed>2.6307793522072505</speed>
  <fix>3d</fix>
</trkpt>
<trkpt lat="40.0710594" lon="-105.2299781">
  <ele>1583.0</ele>
  <time>2026-08-28T17:55:36Z</time>
  <course>199.99</course>
  <speed>2.46</speed>
  <fix>3d</fix>
</trkpt>
<trkpt lat="40.0710536" lon="-105.2299929">
  <ele>1583.15</ele>
  <time>2026-08-28T17:55:36Z</time>
  <course>194.13</course>
  <speed>2.4965776575143823</speed>
  <fix>3d</fix>
</trkpt>
<trkpt lat="40.0710555" lon="-105.22998">
  <ele>1583.0</ele>
  <time>2026-08-28T17:55:36Z</time>
  <course>199.9</course>
  <speed>2.22</speed>
  <fix>3d</fix>
</trkpt>
<trkpt lat="40.071052" lon="-105.2299932">
  <ele>1583.14</ele>
  <time>2026-08-28T17:55:36Z</time>
  <course>194.16</course>
  <speed>2.355185767620041</speed>
  <fix>3d</fix>
</trkpt>
<trkpt lat="40.0710555" lon="-105.22998">
  <ele>1583.0</ele>
  <time>2026-08-28T17:55:36Z</time>
  <course>199.9</course>
  <speed>2.22</speed>
  <fix>3d</fix>
</trkpt>
<trkpt lat="40.0710505" lon="-105.2299939">
  <ele>1583.13</ele>
  <time>2026-08-28T17:55:36Z</time>
  <course>194.19</course>
  <speed>2.2351733713517614</speed>
  <fix>3d</fix>
</trkpt>
<trkpt lat="40.0710519" lon="-105.2299817">
  <ele>1583.0</ele>
  <time>2026-08-28T17:55:36Z</time>
  <course>199.79</course>
  <speed>2.01</speed>
  <fix>3d</fix>
</trkpt>
<trkpt lat="40.071049" lon="-105.2299941">
  <ele>1583.12</ele>
  <time>2026-08-28T17:55:36Z</time>
  <course>194.23</course>
  <speed>2.1076052761368764</speed>
  <fix>3d</fix>
</trkpt>
<trkpt lat="40.0710519" lon="-105.2299817">
  <ele>1583.0</ele>
  <time>2026-08-28T17:55:36Z</time>
  <course>199.79</course>
  <speed>2.01</speed>
  <fix>3d</fix>
</trkpt>
<trkpt lat="40.0710476" lon="-105.2299946">
  <ele>1583.11</ele>
  <time>2026-08-28T17:55:36Z</time>
  <course>194.25</course>
  <speed>1.9875864761061341</speed>
  <fix>3d</fix>
</trkpt>
<trkpt lat="40.0710486" lon="-105.2299831">
  <ele>1583.0</ele>
  <time>2026-08-28T17:55:36Z</time>
  <course>199.68</course>
  <speed>1.82</speed>
  <fix>3d</fix>
</trkpt>
<trkpt lat="40.0710463" lon="-105.2299947">
  <ele>1583.1</ele>
  <time>2026-08-28T17:55:36Z</time>
  <course>194.28</course>
  <speed>1.8669761648183942</speed>
  <fix>3d</fix>
</trkpt>
<trkpt lat="40.0710486" lon="-105.2299831">
  <ele>1583.0</ele>
  <time>2026-08-28T17:55:36Z</time>
  <course>199.68</course>
  <speed>1.82</speed>
  <fix>3d</fix>
</trkpt>
<trkpt lat="40.071045" lon="-105.229995">
  <ele>1583.09</ele>
  <time>2026-08-28T17:55:36Z</time>
  <course>194.31</course>
  <speed>1.761050822662424</speed>
  <fix>3d</fix>
</trkpt>
<trkpt lat="40.0710457" lon="-105.2299845">
  <ele>1583.0</ele>
  <time>2026-08-28T17:55:36Z</time>
  <course>199.55</course>
  <speed>1.65</speed>
  <fix>3d</fix>
</trkpt>
<trkpt lat="40.0710438" lon="-105.229995">
  <ele>1583.08</ele>
  <time>2026-08-28T17:55:36Z</time>
  <course>194.33</course>
  <speed>1.6405486887014356</speed>
  <fix>3d</fix>
</trkpt>
<trkpt lat="40.0710457" lon="-105.2299845">
  <ele>1583.0</ele>
  <time>2026-08-28T17:55:36Z</time>
  <course>199.55</course>
  <speed>1.65</speed>
  <fix>3d</fix>
</trkpt>
<trkpt lat="40.0710429" lon="-105.2299952">
  <ele>1583.07</ele>
  <time>2026-08-28T17:55:36Z</time>
  <course>194.35</course>
  <speed>1.5627219842313604</speed>
  <fix>3d</fix>
</trkpt>
<trkpt lat="40.0710431" lon="-105.2299858">
  <ele>1583.0</ele>
  <time>2026-08-28T17:55:36Z</time>
  <course>199.41</course>
  <speed>1.49</speed>
  <fix>3d</fix>
</trkpt>
<trkpt lat="40.0710417" lon="-105.2299951">
  <ele>1583.06</ele>
  <time>2026-08-28T17:55:36Z</time>
  <course>194.38</course>
  <speed>1.4567086187704115</speed>
  <fix>3d</fix>
</trkpt>
<trkpt lat="40.0710431" lon="-105.2299858">
  <ele>1583.0</ele>
  <time>2026-08-28T17:55:36Z</time>
  <course>199.41</course>
  <speed>1.49</speed>
  <fix>3d</fix>
</trkpt>
<trkpt lat="40.0710407" lon="-105.2299953">
  <ele>1583.06</ele>
  <time>2026-08-28T17:55:36Z</time>
  <course>194.4</course>
  <speed>1.3648809471891679</speed>
  <fix>3d</fix>
</trkpt>
<trkpt lat="40.0710406" lon="-105.2299869">
  <ele>1583.0</ele>
  <time>2026-08-28T17:55:36Z</time>
  <course>199.26</course>
  <speed>1.35</speed>
  <fix>3d</fix>
</trkpt>
<trkpt lat="40.0710397" lon="-105.2299952">
  <ele>1583.06</ele>
  <time>2026-08-28T17:55:36Z</time>
  <course>194.42</course>
  <speed>1.2734991166074674</speed>
  <fix>3d</fix>
</trkpt>
<trkpt lat="40.0710406" lon="-105.2299869">
  <ele>1583.0</ele>
  <time>2026-08-28T17:55:36Z</time>
  <course>199.26</course>
  <speed>1.35</speed>
  <fix>3d</fix>
</trkpt>
<trkpt lat="40.0710387" lon="-105.2299953">
  <ele>1583.06</ele>
  <time>2026-08-28T17:55:36Z</time>
  <course>194.44</course>
  <speed>1.181905241548577</speed>
  <fix>3d</fix>
</trkpt>
<trkpt lat="40.0710385" lon="-105.2299878">
  <ele>1583.0</ele>
  <time>2026-08-28T17:55:36Z</time>
  <course>199.08</course>
  <speed>1.22</speed>
  <fix>3d</fix>
</trkpt>
<trkpt lat="40.0710377" lon="-105.2299952">
  <ele>1583.07</ele>
  <time>2026-08-28T17:55:36Z</time>
  <course>194.46</course>
  <speed>1.105350623105628</speed>
  <fix>3d</fix>
</trkpt>
<trkpt lat="40.0710385" lon="-105.2299878">
  <ele>1583.0</ele>
  <time>2026-08-28T17:55:36Z</time>
  <course>199.08</course>
  <speed>1.22</speed>
  <fix>3d</fix>
</trkpt>
<trkpt lat="40.0710369" lon="-105.2299953">
  <ele>1583.08</ele>
  <time>2026-08-28T17:55:36Z</time>
  <course>194.47</course>
  <speed>1.0217631819555841</speed>
  <fix>3d</fix>
</trkpt>
<trkpt lat="40.0710365" lon="-105.2299887">
  <ele>1583.0</ele>
  <time>2026-08-28T17:55:36Z</time>
  <course>198.9</course>
  <speed>1.1</speed>
  <fix>3d</fix>
</trkpt>
<trkpt lat="40.071036" lon="-105.2299951">
  <ele>1583.1</ele>
  <time>2026-08-28T17:55:36Z</time>
  <course>194.49</course>
  <speed>0.9464142856064675</speed>
  <fix>3d</fix>
</trkpt>
<trkpt lat="40.0710365" lon="-105.2299887">
  <ele>1583.0</ele>
  <time>2026-08-28T17:55:36Z</time>
  <course>198.9</course>
  <speed>1.1</speed>
  <fix>3d</fix>
</trkpt>
<trkpt lat="40.0710352" lon="-105.2299951">
  <ele>1583.11</ele>
  <time>2026-08-28T17:55:36Z</time>
  <course>194.5</course>
  <speed>0.8700574693662483</speed>
  <fix>3d</fix>
</trkpt>
<trkpt lat="40.0710347" lon="-105.2299895">
  <ele>1583.0</ele>
  <time>2026-08-28T17:55:36Z</time>
  <course>198.69</course>
  <speed>1.0</speed>
  <fix>3d</fix>
</trkpt>
<trkpt lat="40.0710344" lon="-105.229995">
  <ele>1583.12</ele>
  <time>2026-08-28T17:55:36Z</time>
  <course>194.52</course>
  <speed>0.8102468759581859</speed>
  <fix>3d</fix>
</trkpt>
<trkpt lat="40.0710347" lon="-105.2299895">
  <ele>1583.0</ele>
  <time>2026-08-28T17:55:36Z</time>
  <course>198.69</course>
  <speed>1.0</speed>
  <fix>3d</fix>
</trkpt>
<trkpt lat="40.0710335" lon="-105.2299949">
  <ele>1583.14</ele>
  <time>2026-08-28T17:55:36Z</time>
  <course>194.53</course>
  <speed>0.7294518489934754</speed>
  <fix>3d</fix>
</trkpt>
<trkpt lat="40.071033" lon="-105.2299902">
  <ele>1583.0</ele>
  <time>2026-08-28T17:55:36Z</time>
  <course>198.46</course>
  <speed>0.9</speed>
  <fix>3d</fix>
</trkpt>
<trkpt lat="40.0710328" lon="-105.2299947">
  <ele>1583.15</ele>
  <time>2026-08-28T17:55:36Z</time>
  <course>194.55</course>
  <speed>0.6723094525588644</speed>
  <fix>3d</fix>
</trkpt>
<trkpt lat="40.071033" lon="-105.2299902">
  <ele>1583.0</ele>
  <time>2026-08-28T17:55:36Z</time>
  <course>198.46</course>
  <speed>0.9</speed>
  <fix>3d</fix>
</trkpt>
<trkpt lat="40.0710321" lon="-105.2299946">
  <ele>1583.16</ele>
  <time>2026-08-28T17:55:36Z</time>
  <course>194.56</course>
  <speed>0.6171709649683789</speed>
  <fix>3d</fix>
</trkpt>
<trkpt lat="40.0710316" lon="-105.2299908">
  <ele>1583.0</ele>
  <time>2026-08-28T17:55:36Z</time>
  <course>198.2</course>
  <speed>0.82</speed>
  <fix>3d</fix>
</trkpt>
<trkpt lat="40.0710314" lon="-105.2299945">
  <ele>1583.17</ele>
  <time>2026-08-28T17:55:36Z</time>
  <course>194.57</course>
  <speed>0.56859475903318</speed>
  <fix>3d</fix>
</trkpt>
<trkpt lat="40.0710316" lon="-105.2299908">
  <ele>1583.0</ele>
  <time>2026-08-28T17:55:36Z</time>
  <course>198.2</course>
  <speed>0.82</speed>
  <fix>3d</fix>
</trkpt>
<trkpt lat="40.0710308" lon="-105.2299944">
  <ele>1583.18</ele>
  <time>2026-08-28T17:55:36Z</time>
  <course>194.58</course>
  <speed>0.5220153254455275</speed>
  <fix>3d</fix>
</trkpt>
<trkpt lat="40.0710302" lon="-105.2299914">
  <ele>1583.0</ele>
  <time>2026-08-28T17:55:36Z</time>
  <course>197.92</course>
  <speed>0.74</speed>
  <fix>3d</fix>
</trkpt>
<trkpt lat="40.0710302" lon="-105.2299942">
  <ele>1583.19</ele>
  <time>2026-08-28T17:55:36Z</time>
  <course>194.59</course>
  <speed>0.4780167361086848</speed>
  <fix>3d</fix>
</trkpt>
<trkpt lat="40.0710302" lon="-105.2299914">
  <ele>1583.0</ele>
  <time>2026-08-28T17:55:36Z</time>
  <course>197.92</course>
  <speed>0.74</speed>
  <fix>3d</fix>
</trkpt>
<trkpt lat="40.0710297" lon="-105.2299941">
  <ele>1583.2</ele>
  <time>2026-08-28T17:55:36Z</time>
  <course>194.61</course>
  <speed>0.447213595499958</speed>
  <fix>3d</fix>
</trkpt>
<trkpt lat="40.071029" lon="-105.2299919">
  <ele>1583.0</ele>
  <time>2026-08-28T17:55:36Z</time>
  <course>197.61</course>
  <speed>0.67</speed>
  <fix>3d</fix>
</trkpt>
<trkpt lat="40.0710291" lon="-105.229994">
  <ele>1583.2</ele>
  <time>2026-08-28T17:55:36Z</time>
  <course>194.62</course>
  <speed>0.4119465984809196</speed>
  <fix>3d</fix>
</trkpt>
<trkpt lat="40.071029" lon="-105.2299919">
  <ele>1583.0</ele>
  <time>2026-08-28T17:55:36Z</time>
  <course>197.61</course>
  <speed>0.67</speed>
  <fix>3d</fix>
</trkpt>
<trkpt lat="40.0710286" lon="-105.2299938">
  <ele>1583.21</ele>
  <time>2026-08-28T17:55:36Z</time>
  <course>194.63</course>
  <speed>0.39</speed>
  <fix>3d</fix>
</trkpt>
<trkpt lat="40.071028" lon="-105.2299923">
  <ele>1583.0</ele>
  <time>2026-08-28T17:55:36Z</time>
  <course>197.26</course>
  <speed>0.6</speed>
  <fix>3d</fix>
</trkpt>
<trkpt lat="40.0710281" lon="-105.2299936">
  <ele>1583.22</ele>
  <time>2026-08-28T17:55:36Z</time>
  <course>194.64</course>
  <speed>0.3721558813185679</speed>
  <fix>3d</fix>
</trkpt>
<trkpt lat="40.071028" lon="-105.2299923">
  <ele>1583.0</ele>
  <time>2026-08-28T17:55:36Z</time>
  <course>197.26</course>
  <speed>0.6</speed>
  <fix>3d</fix>
</trkpt>
<trkpt lat="40.0710276" lon="-105.2299934">
  <ele>1583.23</ele>
  <time>2026-08-28T17:55:36Z</time>
  <course>194.66</course>
  <speed>0.3590264614203248</speed>
  <fix>3d</fix>
</trkpt>
<trkpt lat="40.071027" lon="-105.2299927">
  <ele>1583.0</ele>
  <time>2026-08-28T17:55:36Z</time>
  <course>196.88</course>
  <speed>0.55</speed>
  <fix>3d</fix>
</trkpt>
<trkpt lat="40.0710272" lon="-105.2299933">
  <ele>1583.24</ele>
  <time>2026-08-28T17:55:36Z</time>
  <course>194.67</course>
  <speed>0.35735136770411274</speed>
  <fix>3d</fix>
</trkpt>
<trkpt lat="40.071027" lon="-105.2299927">
  <ele>1583.0</ele>
  <time>2026-08-28T17:55:36Z</time>
  <course>196.88</course>
  <speed>0.55</speed>
  <fix>3d</fix>
</trkpt>
<trkpt lat="40.0710268" lon="-105.2299931">
  <ele>1583.24</ele>
  <time>2026-08-28T17:55:36Z</time>
  <course>194.68</course>
  <speed>0.35341194094144585</speed>
  <fix>3d</fix>
</trkpt>
<trkpt lat="40.0710261" lon="-105.2299932">
  <ele>1583.0</ele>
  <time>2026-08-28T17:55:36Z</time>
  <course>196.47</course>
  <speed>0.49</speed>
  <fix>3d</fix>
</trkpt>
<trkpt lat="40.0710264" lon="-105.2299929">
  <ele>1583.25</ele>
  <time>2026-08-28T17:55:36Z</time>
  <course>194.69</course>
  <speed>0.35510561809129404</speed>
  <fix>3d</fix>
</trkpt>
<trkpt lat="40.0710261" lon="-105.2299932">
  <ele>1583.0</ele>
  <time>2026-08-28T17:55:36Z</time>
  <course>196.47</course>
  <speed>0.49</speed>
  <fix>3d</fix>
</trkpt>
<trkpt lat="40.071026" lon="-105.2299927">
  <ele>1583.26</ele>
  <time>2026-08-28T17:55:36Z</time>
  <course>194.71</course>
  <speed>0.3640054944640259</speed>
  <fix>3d</fix>
</trkpt>
<trkpt lat="40.0710253" lon="-105.2299935">
  <ele>1583.0</ele>
  <time>2026-08-28T17:55:36Z</time>
  <course>196.0</course>
  <speed>0.45</speed>
  <fix>3d</fix>
</trkpt>
<trkpt lat="40.0710256" lon="-105.2299925">
  <ele>1583.26</ele>
  <time>2026-08-28T17:55:36Z</time>
  <course>194.72</course>
  <speed>0.36796738985948196</speed>
  <fix>3d</fix>
</trkpt>
<trkpt lat="40.0710253" lon="-105.2299935">
  <ele>1583.0</ele>
  <time>2026-08-28T17:55:36Z</time>
  <course>196.0</course>
  <speed>0.45</speed>
  <fix>3d</fix>
</trkpt>
<trkpt lat="40.0710252" lon="-105.2299923">
  <ele>1583.26</ele>
  <time>2026-08-28T17:55:36Z</time>
  <course>194.74</course>
  <speed>0.382099463490856</speed>
  <fix>3d</fix>
</trkpt>
<trkpt lat="40.0710245" lon="-105.2299937">
  <ele>1583.0</ele>
  <time>2026-08-28T17:55:36Z</time>
  <course>195.49</course>
  <speed>0.4</speed>
  <fix>3d</fix>
</trkpt>
<trkpt lat="40.0710249" lon="-105.2299921">
  <ele>1583.26</ele>
  <time>2026-08-28T17:55:36Z</time>
  <course>194.75</course>
  <speed>0.3920459156782532</speed>
  <fix>3d</fix>
</trkpt>
<trkpt lat="40.0710245" lon="-105.2299937">
  <ele>1583.0</ele>
  <time>2026-08-28T17:55:36Z</time>
  <course>195.49</course>
  <speed>0.4</speed>
  <fix>3d</fix>
</trkpt>
<trkpt lat="40.0710245" lon="-105.2299919">
  <ele>1583.26</ele>
  <time>2026-08-28T17:55:36Z</time>
  <course>194.77</course>
  <speed>0.41048751503547587</speed>
  <fix>3d</fix>
</trkpt>
<trkpt lat="40.0710239" lon="-105.229994">
  <ele>1583.0</ele>
  <time>2026-08-28T17:55:36Z</time>
  <course>194.93</course>
  <speed>0.37</speed>
  <fix>3d</fix>
</trkpt>
<trkpt lat="40.0710242" lon="-105.2299918">
  <ele>1583.26</ele>
  <time>2026-08-28T17:55:36Z</time>
  <course>194.79</course>
  <speed>0.4219004621945798</speed>
  <fix>3d</fix>
</trkpt>
<trkpt lat="40.0710239" lon="-105.229994">
  <ele>1583.0</ele>
  <time>2026-08-28T17:55:36Z</time>
  <course>194.93</course>
  <speed>0.37</speed>
  <fix>3d</fix>
</trkpt>
<trkpt lat="40.0710239" lon="-105.2299916">
  <ele>1583.26</ele>
  <time>2026-08-28T17:55:36Z</time>
  <course>194.81</course>
  <speed>0.442944691807002</speed>
  <fix>3d</fix>
</trkpt>
<trkpt lat="40.0710232" lon="-105.2299941">
  <ele>1583.0</ele>
  <time>2026-08-28T17:55:36Z</time>
  <course>194.31</course>
  <speed>0.33</speed>
  <fix>3d</fix>
</trkpt>
<trkpt lat="40.0710235" lon="-105.2299914">
  <ele>1583.27</ele>
  <time>2026-08-28T17:55:36Z</time>
  <course>194.83</course>
  <speed>0.45188494110780014</speed>
  <fix>3d</fix>
</trkpt>
<trkpt lat="40.0710232" lon="-105.2299941">
  <ele>1583.0</ele>
  <time>2026-08-28T17:55:36Z</time>
  <course>194.31</course>
  <speed>0.33</speed>
  <fix>3d</fix>
</trkpt>
<trkpt lat="40.0710233" lon="-105.2299913">
  <ele>1583.27</ele>
  <time>2026-08-28T17:55:36Z</time>
  <course>194.85</course>
  <speed>0.4661544808322666</speed>
  <fix>3d</fix>
</trkpt>
<trkpt lat="40.0710227" lon="-105.2299944">
  <ele>1583.0</ele>
  <time>2026-08-28T17:55:36Z</time>
  <course>193.63</course>
  <speed>0.3</speed>
  <fix>3d</fix>
</trkpt>
<trkpt lat="40.071023" lon="-105.2299911">
  <ele>1583.27</ele>
  <time>2026-08-28T17:55:36Z</time>
  <course>194.87</course>
  <speed>0.48104053883222775</speed>
  <fix>3d</fix>
</trkpt>
<trkpt lat="40.0710227" lon="-105.2299944">
  <ele>1583.0</ele>
  <time>2026-08-28T17:55:36Z</time>
  <course>193.63</course>
  <speed>0.3</speed>
  <fix>3d</fix>
</trkpt>
<trkpt lat="40.0710227" lon="-105.229991">
  <ele>1583.27</ele>
  <time>2026-08-28T17:55:36Z</time>
  <course>194.89</course>
  <speed>0.49648766349225637</speed>
  <fix>3d</fix>
</trkpt>
<trkpt lat="40.0710222" lon="-105.2299945">
  <ele>1583.0</ele>
  <time>2026-08-28T17:55:36Z</time>
  <course>192.87</course>
  <speed>0.27</speed>
  <fix>3d</fix>
</trkpt>
<trkpt lat="40.0710225" lon="-105.2299909">
  <ele>1583.27</ele>
  <time>2026-08-28T17:55:36Z</time>
  <course>194.91</course>
  <speed>0.5059644256269408</speed>
  <fix>3d</fix>
</trkpt>
<trkpt lat="40.0710222" lon="-105.2299945">
  <ele>1583.0</ele>
  <time>2026-08-28T17:55:36Z</time>
  <course>192.87</course>
  <speed>0.27</speed>
  <fix>3d</fix>
</trkpt>
<trkpt lat="40.0710223" lon="-105.2299906">
  <ele>1583.27</ele>
  <time>2026-08-28T17:55:36Z</time>
  <course>194.93</course>
  <speed>0.5220153254455275</speed>
  <fix>3d</fix>
</trkpt>
<trkpt lat="40.0710217" lon="-105.2299946">
  <ele>1583.0</ele>
  <time>2026-08-28T17:55:36Z</time>
  <course>192.04</course>
  <speed>0.24</speed>
  <fix>3d</fix>
</trkpt>
<trkpt lat="40.071022" lon="-105.2299906">
  <ele>1583.27</ele>
  <time>2026-08-28T17:55:36Z</time>
  <course>194.96</course>
  <speed>0.5288667128870941</speed>
  <fix>3d</fix>
</trkpt>
<trkpt lat="40.0710217" lon="-105.2299946">
  <ele>1583.0</ele>
  <time>2026-08-28T17:55:36Z</time>
  <course>192.04</course>
  <speed>0.24</speed>
  <fix>3d</fix>
</trkpt>
<trkpt lat="40.0710218" lon="-105.2299904">
  <ele>1583.28</ele>
  <time>2026-08-28T17:55:36Z</time>
  <course>194.98</course>
  <speed>0.5457105459856901</speed>
  <fix>3d</fix>
</trkpt>
<trkpt lat="40.0710213" lon="-105.2299948">
  <ele>1583.0</ele>
  <time>2026-08-28T17:55:36Z</time>
  <course>191.13</course>
  <speed>0.22</speed>
  <fix>3d</fix>
</trkpt>
<trkpt lat="40.0710216" lon="-105.2299903">
  <ele>1583.28</ele>
  <time>2026-08-28T17:55:36Z</time>
  <course>195.0</course>
  <speed>0.5434151267677411</speed>
  <fix>3d</fix>
</trkpt>
<trkpt lat="40.0710213" lon="-105.2299948">
  <ele>1583.0</ele>
  <time>2026-08-28T17:55:36Z</time>
  <course>191.13</course>
  <speed>0.22</speed>
  <fix>3d</fix>
</trkpt>
<trkpt lat="40.0710214" lon="-105.2299902">
  <ele>1583.28</ele>
  <time>2026-08-28T17:55:36Z</time>
  <course>195.03</course>
  <speed>0.5629387178015027</speed>
  <fix>3d</fix>
</trkpt>
<trkpt lat="40.0710209" lon="-105.2299949">
  <ele>1583.0</ele>
  <time>2026-08-28T17:55:36Z</time>
  <course>190.12</course>
  <speed>0.2</speed>
  <fix>3d</fix>
</trkpt>
<trkpt lat="40.0710212" lon="-105.2299902">
  <ele>1583.28</ele>
  <time>2026-08-28T17:55:36Z</time>
  <course>195.06</course>
  <speed>0.5608921464952064</speed>
  <fix>3d</fix>
</trkpt>
<trkpt lat="40.0710209" lon="-105.2299949">
  <ele>1583.0</ele>
  <time>2026-08-28T17:55:36Z</time>
  <course>190.12</course>
  <speed>0.2</speed>
  <fix>3d</fix>
</trkpt>
<trkpt lat="40.0710211" lon="-105.22999">
  <ele>1583.28</ele>
  <time>2026-08-28T17:55:36Z</time>
  <course>195.08</course>
  <speed>0.5688585061331157</speed>
  <fix>3d</fix>
</trkpt>
<trkpt lat="40.0710206" lon="-105.2299949">
  <ele>1583.0</ele>
  <time>2026-08-28T17:55:36Z</time>
  <course>189.02</course>
  <speed>0.18</speed>
  <fix>3d</fix>
</trkpt>
<trkpt lat="40.0710209" lon="-105.2299901">
  <ele>1583.29</ele>
  <time>2026-08-28T17:55:36Z</time>
  <course>195.11</course>
  <speed>0.5688585061331157</speed>
  <fix>3d</fix>
</trkpt>
<trkpt lat="40.0710206" lon="-105.2299949">
  <ele>1583.0</ele>
  <time>2026-08-28T17:55:36Z</time>
  <course>189.02</course>
  <speed>0.18</speed>
  <fix>3d</fix>
</trkpt>
<trkpt lat="40.0710208" lon="-105.2299899">
  <ele>1583.3</ele>
  <time>2026-08-28T17:55:36Z</time>
  <course>195.13</course>
  <speed>0.5770615218501404</speed>
  <fix>3d</fix>
</trkpt>
<trkpt lat="40.0710202" lon="-105.229995">
  <ele>1583.0</ele>
  <time>2026-08-28T17:55:36Z</time>
  <course>187.82</course>
  <speed>0.16</speed>
  <fix>3d</fix>
</trkpt>
<trkpt lat="40.0710206" lon="-105.2299899">
  <ele>1583.3</ele>
  <time>2026-08-28T17:55:36Z</time>
  <course>195.16</course>
  <speed>0.5770615218501404</speed>
  <fix>3d</fix>
</trkpt>
<trkpt lat="40.0710202" lon="-105.229995">
  <ele>1583.0</ele>
  <time>2026-08-28T17:55:36Z</time>
  <course>187.82</course>
  <speed>0.16</speed>
  <fix>3d</fix>
</trkpt>
<trkpt lat="40.0710204" lon="-105.2299898">
  <ele>1583.31</ele>
  <time>2026-08-28T17:55:36Z</time>
  <course>195.19</course>
  <speed>0.5755866572463264</speed>
  <fix>3d</fix>
</trkpt>
<trkpt lat="40.0710199" lon="-105.2299951">
  <ele>1583.0</ele>
  <time>2026-08-28T17:55:36Z</time>
  <course>186.5</course>
  <speed>0.15</speed>
  <fix>3d</fix>
</trkpt>
<trkpt lat="40.0710203" lon="-105.2299899">
  <ele>1583.32</ele>
  <time>2026-08-28T17:55:36Z</time>
  <course>195.22</course>
  <speed>0.5755866572463264</speed>
  <fix>3d</fix>
</trkpt>
<trkpt lat="40.0710199" lon="-105.2299951">
  <ele>1583.0</ele>
  <time>2026-08-28T17:55:36Z</time>
  <course>186.5</course>
  <speed>0.15</speed>
  <fix>3d</fix>
</trkpt>
<trkpt lat="40.0710201" lon="-105.2299897">
  <ele>1583.33</ele>
  <time>2026-08-28T17:55:36Z</time>
  <course>195.25</course>
  <speed>0.5842088667591412</speed>
  <fix>3d</fix>
</trkpt>
<trkpt lat="40.0710196" lon="-105.2299951">
  <ele>1583.0</ele>
  <time>2026-08-28T17:55:36Z</time>
  <course>185.06</course>
  <speed>0.14</speed>
  <fix>3d</fix>
</trkpt>
<trkpt lat="40.07102" lon="-105.2299898">
  <ele>1583.33</ele>
  <time>2026-08-28T17:55:36Z</time>
  <course>195.28</course>
  <speed>0.5742821606144493</speed>
  <fix>3d</fix>
</trkpt>
<trkpt lat="40.0710196" lon="-105.2299951">
  <ele>1583.0</ele>
  <time>2026-08-28T17:55:36Z</time>
  <course>185.06</course>
  <speed>0.14</speed>
  <fix>3d</fix>
</trkpt>
<trkpt lat="40.0710199" lon="-105.2299896">
  <ele>1583.35</ele>
  <time>2026-08-28T17:55:36Z</time>
  <course>195.31</course>
  <speed>0.58309518948453</speed>
  <fix>3d</fix>
</trkpt>
<trkpt lat="40.0710195" lon="-105.2299951">
  <ele>1583.0</ele>
  <time>2026-08-28T17:55:36Z</time>
  <course>183.49</course>
  <speed>0.12</speed>
  <fix>3d</fix>
</trkpt>
<trkpt lat="40.0710197" lon="-105.2299897">
  <ele>1583.35</ele>
  <time>2026-08-28T17:55:36Z</time>
  <course>195.34</course>
  <speed>0.5731491952362839</speed>
  <fix>3d</fix>
</trkpt>
<trkpt lat="40.0710195" lon="-105.2299951">
  <ele>1583.0</ele>
  <time>2026-08-28T17:55:36Z</time>
  <course>183.49</course>
  <speed>0.12</speed>
  <fix>3d</fix>
</trkpt>
<trkpt lat="40.0710196" lon="-105.2299896">
  <ele>1583.36</ele>
  <time>2026-08-28T17:55:36Z</time>
  <course>195.37</course>
  <speed>0.5721887800367987</speed>
  <fix>3d</fix>
</trkpt>
<trkpt lat="40.0710192" lon="-105.2299951">
  <ele>1583.0</ele>
  <time>2026-08-28T17:55:36Z</time>
  <course>181.79</course>
  <speed>0.11</speed>
  <fix>3d</fix>
</trkpt>
<trkpt lat="40.0710195" lon="-105.2299897">
  <ele>1583.37</ele>
  <time>2026-08-28T17:55:36Z</time>
  <course>195.41</course>
  <speed>0.5721887800367987</speed>
  <fix>3d</fix>
</trkpt>
<trkpt lat="40.0710192" lon="-105.2299951">
  <ele>1583.0</ele>
  <time>2026-08-28T17:55:36Z</time>
  <course>181.79</course>
  <speed>0.11</speed>
  <fix>3d</fix>
</trkpt>
<trkpt lat="40.0710194" lon="-105.2299896">
  <ele>1583.37</ele>
  <time>2026-08-28T17:55:36Z</time>
  <course>195.44</course>
  <speed>0.5714017850864661</speed>
  <fix>3d</fix>
</trkpt>
<trkpt lat="40.0710191" lon="-105.2299951">
  <ele>1583.0</ele>
  <time>2026-08-28T17:55:36Z</time>
  <course>179.94</course>
  <speed>0.1</speed>
  <fix>3d</fix>
</trkpt>
<trkpt lat="40.0710193" lon="-105.2299896">
  <ele>1583.37</ele>
  <time>2026-08-28T17:55:36Z</time>
  <course>195.47</course>
  <speed>0.561426753904728</speed>
  <fix>3d</fix>
</trkpt>
<trkpt lat="40.0710191" lon="-105.2299951">
  <ele>1583.0</ele>
  <time>2026-08-28T17:55:36Z</time>
  <course>179.94</course>
  <speed>0.1</speed>
  <fix>3d</fix>
</trkpt>
<trkpt lat="40.0710192" lon="-105.2299895">
  <ele>1583.37</ele>
  <time>2026-08-28T17:55:36Z</time>
  <course>195.5</course>
  <speed>0.5714017850864661</speed>
  <fix>3d</fix>
</trkpt>
<trkpt lat="40.0710189" lon="-105.2299951">
  <ele>1583.0</ele>
  <time>2026-08-28T17:55:36Z</time>
  <course>177.96</course>
  <speed>0.09</speed>
  <fix>3d</fix>
</trkpt>
<trkpt lat="40.0710191" lon="-105.2299896">
  <ele>1583.37</ele>
  <time>2026-08-28T17:55:36Z</time>
  <course>195.53</course>
  <speed>0.5608029957123981</speed>
  <fix>3d</fix>
</trkpt>
<trkpt lat="40.0710189" lon="-105.2299951">
  <ele>1583.0</ele>
  <time>2026-08-28T17:55:36Z</time>
  <course>177.96</course>
  <speed>0.09</speed>
  <fix>3d</fix>
</trkpt>
<trkpt lat="40.0710191" lon="-105.2299895">
  <ele>1583.37</ele>
  <time>2026-08-28T17:55:36Z</time>
  <course>195.56</course>
  <speed>0.5608029957123981</speed>
  <fix>3d</fix>
</trkpt>
<trkpt lat="40.0710186" lon="-105.2299951">
  <ele>1583.0</ele>
  <time>2026-08-28T17:55:36Z</time>
  <course>175.83</course>
  <speed>0.09</speed>
  <fix>3d</fix>
</trkpt>
<trkpt lat="40.071019" lon="-105.2299896">
  <ele>1583.37</ele>
  <time>2026-08-28T17:55:36Z</time>
  <course>195.59</course>
  <speed>0.5503635162326805</speed>
  <fix>3d</fix>
</trkpt>
<trkpt lat="40.0710186" lon="-105.2299951">
  <ele>1583.0</ele>
  <time>2026-08-28T17:55:36Z</time>
  <course>175.83</course>
  <speed>0.09</speed>
  <fix>3d</fix>
</trkpt>
<trkpt lat="40.0710189" lon="-105.2299895">
  <ele>1583.36</ele>
  <time>2026-08-28T17:55:36Z</time>
  <course>195.63</course>
  <speed>0.5503635162326805</speed>
  <fix>3d</fix>
</trkpt>
<trkpt lat="40.0710185" lon="-105.2299951">
  <ele>1583.0</ele>
  <time>2026-08-28T17:55:36Z</time>
  <course>173.56</course>
  <speed>0.08</speed>
  <fix>3d</fix>
</trkpt>
<trkpt lat="40.0710188" lon="-105.2299896">
  <ele>1583.36</ele>
  <time>2026-08-28T17:55:36Z</time>
  <course>195.66</course>
  <speed>0.5403702434442519</speed>
  <fix>3d</fix>
</trkpt>
<trkpt lat="40.0710185" lon="-105.2299951">
  <ele>1583.0</ele>
  <time>2026-08-28T17:55:36Z</time>
  <course>173.56</course>
  <speed>0.08</speed>
  <fix>3d</fix>
</trkpt>
<trkpt lat="40.0710188" lon="-105.2299896">
  <ele>1583.37</ele>
  <time>2026-08-28T17:55:36Z</time>
  <course>195.69</course>
  <speed>0.540092584655631</speed>
  <fix>3d</fix>
</trkpt>
<trkpt lat="40.0710184" lon="-105.2299951">
  <ele>1583.0</ele>
  <time>2026-08-28T17:55:36Z</time>
  <course>171.16</course>
  <speed>0.07</speed>
  <fix>3d</fix>
</trkpt>
<trkpt lat="40.0710187" lon="-105.2299897">
  <ele>1583.37</ele>
  <time>2026-08-28T17:55:36Z</time>
  <course>195.72</course>
  <speed>0.5200961449578337</speed>
  <fix>3d</fix>
</trkpt>
<trkpt lat="40.0710184" lon="-105.2299951">
  <ele>1583.0</ele>
  <time>2026-08-28T17:55:36Z</time>
  <course>171.16</course>
  <speed>0.07</speed>
  <fix>3d</fix>
</trkpt>
<trkpt lat="40.0710186" lon="-105.2299897">
  <ele>1583.38</ele>
  <time>2026-08-28T17:55:36Z</time>
  <course>195.75</course>
  <speed>0.5200961449578337</speed>
  <fix>3d</fix>
</trkpt>
<trkpt lat="40.0710182" lon="-105.2299951">
  <ele>1583.0</ele>
  <time>2026-08-28T17:55:36Z</time>
  <course>168.63</course>
  <speed>0.07</speed>
  <fix>3d</fix>
</trkpt>
<trkpt lat="40.0710186" lon="-105.2299898">
  <ele>1583.39</ele>
  <time>2026-08-28T17:55:36Z</time>
  <course>195.78</course>
  <speed>0.510098029794274</speed>
  <fix>3d</fix>
</trkpt>
<trkpt lat="40.0710182" lon="-105.2299951">
  <ele>1583.0</ele>
  <time>2026-08-28T17:55:36Z</time>
  <course>168.63</course>
  <speed>0.07</speed>
  <fix>3d</fix>
</trkpt>
<trkpt lat="40.0710185" lon="-105.2299898">
  <ele>1583.4</ele>
  <time>2026-08-28T17:55:36Z</time>
  <course>195.82</course>
  <speed>0.5</speed>
  <fix>3d</fix>
</trkpt>
<trkpt lat="40.0710181" lon="-105.2299951">
  <ele>1583.0</ele>
  <time>2026-08-28T17:55:36Z</time>
  <course>165.99</course>
  <speed>0.06</speed>
  <fix>3d</fix>
</trkpt>
<trkpt lat="40.0710185" lon="-105.2299899">
  <ele>1583.41</ele>
  <time>2026-08-28T17:55:36Z</time>
  <course>195.85</course>
  <speed>0.49</speed>
  <fix>3d</fix>
</trkpt>
<trkpt lat="40.0710181" lon="-105.2299951">
  <ele>1583.0</ele>
  <time>2026-08-28T17:55:36Z</time>
  <course>165.99</course>
  <speed>0.06</speed>
  <fix>3d</fix>
</trkpt>
<trkpt lat="40.0710184" lon="-105.2299899">
  <ele>1583.42</ele>
  <time>2026-08-28T17:55:36Z</time>
  <course>195.88</course>
  <speed>0.49</speed>
  <fix>3d</fix>
</trkpt>
<trkpt lat="40.071018" lon="-105.2299951">
  <ele>1583.0</ele>
  <time>2026-08-28T17:55:36Z</time>
  <course>163.26</course>
  <speed>0.06</speed>
  <fix>3d</fix>
</trkpt>
<trkpt lat="40.0710183" lon="-105.22999">
  <ele>1583.43</ele>
  <time>2026-08-28T17:55:36Z</time>
  <course>195.92</course>
  <speed>0.48</speed>
  <fix>3d</fix>
</trkpt>
<trkpt lat="40.071018" lon="-105.2299951">
  <ele>1583.0</ele>
  <time>2026-08-28T17:55:36Z</time>
  <course>163.26</course>
  <speed>0.06</speed>
  <fix>3d</fix>
</trkpt>
<trkpt lat="40.0710183" lon="-105.22999">
  <ele>1583.44</ele>
  <time>2026-08-28T17:55:36Z</time>
  <course>195.95</course>
  <speed>0.47</speed>
  <fix>3d</fix>
</trkpt>
<trkpt lat="40.0710179" lon="-105.229995">
  <ele>1583.0</ele>
  <time>2026-08-28T17:55:36Z</time>
  <course>160.46</course>
  <speed>0.05</speed>
  <fix>3d</fix>
</trkpt>
<trkpt lat="40.0710183" lon="-105.2299901">
  <ele>1583.45</ele>
  <time>2026-08-28T17:55:36Z</time>
  <course>195.98</course>
  <speed>0.46</speed>
  <fix>3d</fix>
</trkpt>
<trkpt lat="40.0710179" lon="-105.229995">
  <ele>1583.0</ele>
  <time>2026-08-28T17:55:36Z</time>
  <course>160.46</course>
  <speed>0.05</speed>
  <fix>3d</fix>
</trkpt>
<trkpt lat="40.0710182" lon="-105.2299901">
  <ele>1583.46</ele>
  <time>2026-08-28T17:55:36Z</time>
  <course>196.02</course>
  <speed>0.46</speed>
  <fix>3d</fix>
</trkpt>
<trkpt lat="40.0710178" lon="-105.2299949">
  <ele>1583.0</ele>
  <time>2026-08-28T17:55:36Z</time>
  <course>157.61</course>
  <speed>0.05</speed>
  <fix>3d</fix>
</trkpt>
<trkpt lat="40.0710182" lon="-105.2299902">
  <ele>1583.46</ele>
  <time>2026-08-28T17:55:36Z</time>
  <course>196.05</course>
  <speed>0.44011362169330775</speed>
  <fix>3d</fix>
</trkpt>
<trkpt lat="40.0710178" lon="-105.2299949">
  <ele>1583.0</ele>
  <time>2026-08-28T17:55:36Z</time>
  <course>157.61</course>
  <speed>0.05</speed>
  <fix>3d</fix>
</trkpt>
<trkpt lat="40.0710181" lon="-105.2299902">
  <ele>1583.47</ele>
  <time>2026-08-28T17:55:36Z</time>
  <course>196.08</course>
  <speed>0.44011362169330775</speed>
  <fix>3d</fix>
</trkpt>
<trkpt lat="40.0710177" lon="-105.2299949">
  <ele>1583.0</ele>
  <time>2026-08-28T17:55:36Z</time>
  <course>154.75</course>
  <speed>0.05</speed>
  <fix>3d</fix>
</trkpt>
<trkpt lat="40.0710181" lon="-105.2299903">
  <ele>1583.47</ele>
  <time>2026-08-28T17:55:36Z</time>
  <course>196.11</course>
  <speed>0.4301162633521314</speed>
  <fix>3d</fix>
</trkpt>
<trkpt lat="40.0710177" lon="-105.2299949">
  <ele>1583.0</ele>
  <time>2026-08-28T17:55:36Z</time>
  <course>154.75</course>
  <speed>0.05</speed>
  <fix>3d</fix>
</trkpt>
<trkpt lat="40.0710181" lon="-105.2299903">
  <ele>1583.48</ele>
  <time>2026-08-28T17:55:36Z</time>
  <course>196.14</course>
  <speed>0.4301162633521314</speed>
  <fix>3d</fix>
</trkpt>
<trkpt lat="40.0710176" lon="-105.2299949">
  <ele>1583.0</ele>
  <time>2026-08-28T17:55:36Z</time>
  <course>151.9</course>
  <speed>0.05</speed>
  <fix>3d</fix>
</trkpt>
<trkpt lat="40.071018" lon="-105.2299904">
  <ele>1583.48</ele>
  <time>2026-08-28T17:55:36Z</time>
  <course>196.18</course>
  <speed>0.4204759208325728</speed>
  <fix>3d</fix>
</trkpt>
<trkpt lat="40.0710176" lon="-105.2299949">
  <ele>1583.0</ele>
  <time>2026-08-28T17:55:36Z</time>
  <course>151.9</course>
  <speed>0.05</speed>
  <fix>3d</fix>
</trkpt>
<trkpt lat="40.071018" lon="-105.2299903">
  <ele>1583.48</ele>
  <time>2026-08-28T17:55:36Z</time>
  <course>196.21</course>
  <speed>0.41048751503547587</speed>
  <fix>3d</fix>
</trkpt>
<trkpt lat="40.0710176" lon="-105.2299948">
  <ele>1583.0</ele>
  <time>2026-08-28T17:55:36Z</time>
  <course>149.08</course>
  <speed>0.04</speed>
  <fix>3d</fix>
</trkpt>
<trkpt lat="40.071018" lon="-105.2299904">
  <ele>1583.49</ele>
  <time>2026-08-28T17:55:36Z</time>
  <course>196.24</course>
  <speed>0.4004996878900158</speed>
  <fix>3d</fix>
</trkpt>
<trkpt lat="40.0710176" lon="-105.2299948">
  <ele>1583.0</ele>
  <time>2026-08-28T17:55:36Z</time>
  <course>149.08</course>
  <speed>0.04</speed>
  <fix>3d</fix>
</trkpt>
<trkpt lat="40.0710179" lon="-105.2299904">
  <ele>1583.5</ele>
  <time>2026-08-28T17:55:36Z</time>
  <course>196.27</course>
  <speed>0.4004996878900158</speed>
  <fix>3d</fix>
</trkpt>
<trkpt lat="40.0710175" lon="-105.2299947">
  <ele>1583.0</ele>
  <time>2026-08-28T17:55:36Z</time>
  <course>146.33</course>
  <speed>0.04</speed>
  <fix>3d</fix>
</trkpt>
<trkpt lat="40.0710179" lon="-105.2299905">
  <ele>1583.5</ele>
  <time>2026-08-28T17:55:36Z</time>
  <course>196.3</course>
  <speed>0.3905124837953327</speed>
  <fix>3d</fix>
</trkpt>
<trkpt lat="40.0710175" lon="-105.2299947">
  <ele>1583.0</ele>
  <time>2026-08-28T17:55:36Z</time>
  <course>146.33</course>
  <speed>0.04</speed>
  <fix>3d</fix>
</trkpt>
<trkpt lat="40.0710179" lon="-105.2299905">
  <ele>1583.5</ele>
  <time>2026-08-28T17:55:36Z</time>
  <course>196.33</course>
  <speed>0.3911521443121589</speed>
  <fix>3d</fix>
</trkpt>
<trkpt lat="40.0710174" lon="-105.2299946">
  <ele>1583.0</ele>
  <time>2026-08-28T17:55:36Z</time>
  <course>143.67</course>
  <speed>0.04</speed>
  <fix>3d</fix>
</trkpt>
<trkpt lat="40.0710179" lon="-105.2299906">
  <ele>1583.51</ele>
  <time>2026-08-28T17:55:36Z</time>
  <course>196.37</course>
  <speed>0.3712142238654117</speed>
  <fix>3d</fix>
</trkpt>
<trkpt lat="40.0710174" lon="-105.2299946">
  <ele>1583.0</ele>
  <time>2026-08-28T17:55:36Z</time>
  <course>143.67</course>
  <speed>0.04</speed>
  <fix>3d</fix>
</trkpt>
<trkpt lat="40.0710178" lon="-105.2299906">
  <ele>1583.51</ele>
  <time>2026-08-28T17:55:36Z</time>
  <course>196.39</course>
  <speed>0.3712142238654117</speed>
  <fix>3d</fix>
</trkpt>
<trkpt lat="40.0710173" lon="-105.2299946">
  <ele>1583.0</ele>
  <time>2026-08-28T17:55:36Z</time>
  <course>141.12</course>
  <speed>0.04</speed>
  <fix>3d</fix>
</trkpt>
<trkpt lat="40.0710178" lon="-105.2299907">
  <ele>1583.51</ele>
  <time>2026-08-28T17:55:36Z</time>
  <course>196.42</course>
  <speed>0.36124783736376886</speed>
  <fix>3d</fix>
</trkpt>
<trkpt lat="40.0710173" lon="-105.2299946">
  <ele>1583.0</ele>
  <time>2026-08-28T17:55:36Z</time>
  <course>141.12</course>
  <speed>0.04</speed>
  <fix>3d</fix>
</trkpt>
<trkpt lat="40.0710178" lon="-105.2299907">
  <ele>1583.51</ele>
  <time>2026-08-28T17:55:36Z</time>
  <course>196.46</course>
  <speed>0.36124783736376886</speed>
  <fix>3d</fix>
</trkpt>
<trkpt lat="40.0710173" lon="-105.2299945">
  <ele>1583.0</ele>
  <time>2026-08-28T17:55:36Z</time>
  <course>138.69</course>
  <speed>0.04</speed>
  <fix>3d</fix>
</trkpt>
<trkpt lat="40.0710178" lon="-105.2299908">
  <ele>1583.51</ele>
  <time>2026-08-28T17:55:36Z</time>
  <course>196.49</course>
  <speed>0.35128336140500593</speed>
  <fix>3d</fix>
</trkpt>
<trkpt lat="40.0710173" lon="-105.2299945">
  <ele>1583.0</ele>
  <time>2026-08-28T17:55:36Z</time>
  <course>138.69</course>
  <speed>0.04</speed>
  <fix>3d</fix>
</trkpt>
<trkpt lat="40.0710177" lon="-105.2299908">
  <ele>1583.51</ele>
  <time>2026-08-28T17:55:36Z</time>
  <course>196.52</course>
  <speed>0.3423448553724738</speed>
  <fix>3d</fix>
</trkpt>
<trkpt lat="40.0710172" lon="-105.2299944">
  <ele>1583.0</ele>
  <time>2026-08-28T17:55:36Z</time>
  <course>136.39</course>
  <speed>0.04</speed>
  <fix>3d</fix>
</trkpt>
<trkpt lat="40.0710177" lon="-105.2299909">
  <ele>1583.51</ele>
  <time>2026-08-28T17:55:36Z</time>
  <course>196.55</course>
  <speed>0.33241540277189324</speed>
  <fix>3d</fix>
</trkpt>
<trkpt lat="40.0710172" lon="-105.2299944">
  <ele>1583.0</ele>
  <time>2026-08-28T17:55:36Z</time>
  <course>136.39</course>
  <speed>0.04</speed>
  <fix>3d</fix>
</trkpt>
<trkpt lat="40.0710177" lon="-105.2299908">
  <ele>1583.51</ele>
  <time>2026-08-28T17:55:36Z</time>
  <course>196.58</course>
  <speed>0.33241540277189324</speed>
  <fix>3d</fix>
</trkpt>
<trkpt lat="40.0710172" lon="-105.2299944">
  <ele>1583.0</ele>
  <time>2026-08-28T17:55:36Z</time>
  <course>134.24</course>
  <speed>0.04</speed>
  <fix>3d</fix>
</trkpt>
<trkpt lat="40.0710177" lon="-105.2299909">
  <ele>1583.51</ele>
  <time>2026-08-28T17:55:36Z</time>
  <course>196.61</course>
  <speed>0.32249030993194194</speed>
  <fix>3d</fix>
</trkpt>
<trkpt lat="40.0710172" lon="-105.2299944">
  <ele>1583.0</ele>
  <time>2026-08-28T17:55:36Z</time>
  <course>134.24</course>
  <speed>0.04</speed>
  <fix>3d</fix>
</trkpt>
<trkpt lat="40.0710177" lon="-105.2299909">
  <ele>1583.51</ele>
  <time>2026-08-28T17:55:36Z</time>
  <course>196.64</course>
  <speed>0.32249030993194194</speed>
  <fix>3d</fix>
</trkpt>
<trkpt lat="40.0710171" lon="-105.2299943">
  <ele>1583.0</ele>
  <time>2026-08-28T17:55:36Z</time>
  <course>132.22</course>
  <speed>0.04</speed>
  <fix>3d</fix>
</trkpt>
<trkpt lat="40.0710176" lon="-105.229991">
  <ele>1583.51</ele>
  <time>2026-08-28T17:55:36Z</time>
  <course>196.68</course>
  <speed>0.3125699921617557</speed>
  <fix>3d</fix>
</trkpt>
<trkpt lat="40.0710171" lon="-105.2299943">
  <ele>1583.0</ele>
  <time>2026-08-28T17:55:36Z</time>
  <course>132.22</course>
  <speed>0.04</speed>
  <fix>3d</fix>
</trkpt>
<trkpt lat="40.0710176" lon="-105.229991">
  <ele>1583.51</ele>
  <time>2026-08-28T17:55:36Z</time>
  <course>196.71</course>
  <speed>0.3026549190084311</speed>
  <fix>3d</fix>
</trkpt>
<trkpt lat="40.0710171" lon="-105.2299943">
  <ele>1583.0</ele>
  <time>2026-08-28T17:55:36Z</time>
  <course>130.35</course>
  <speed>0.04</speed>
  <fix>3d</fix>
</trkpt>
<trkpt lat="40.0710176" lon="-105.2299911">
  <ele>1583.51</ele>
  <time>2026-08-28T17:55:36Z</time>
  <course>196.74</course>
  <speed>0.3026549190084311</speed>
  <fix>3d</fix>
</trkpt>
<trkpt lat="40.0710171" lon="-105.2299943">
  <ele>1583.0</ele>
  <time>2026-08-28T17:55:36Z</time>
  <course>130.35</course>
  <speed>0.04</speed>
  <fix>3d</fix>
</trkpt>
<trkpt lat="40.0710176" lon="-105.229991">
  <ele>1583.51</ele>
  <time>2026-08-28T17:55:36Z</time>
  <course>196.77</course>
  <speed>0.2942787793912432</speed>
  <fix>3d</fix>
</trkpt>
<trkpt lat="40.071017" lon="-105.2299942">
  <ele>1583.0</ele>
  <time>2026-08-28T17:55:36Z</time>
  <course>128.62</course>
  <speed>0.04</speed>
  <fix>3d</fix>
</trkpt>
<trkpt lat="40.0710176" lon="-105.2299911">
  <ele>1583.51</ele>
  <time>2026-08-28T17:55:36Z</time>
  <course>196.81</course>
  <speed>0.2942787793912432</speed>
  <fix>3d</fix>
</trkpt>
<trkpt lat="40.071017" lon="-105.2299942">
  <ele>1583.0</ele>
  <time>2026-08-28T17:55:36Z</time>
  <course>128.62</course>
  <speed>0.04</speed>
  <fix>3d</fix>
</trkpt>
<trkpt lat="40.0710175" lon="-105.229991">
  <ele>1583.51</ele>
  <time>2026-08-28T17:55:36Z</time>
  <course>196.84</course>
  <speed>0.2942787793912432</speed>
  <fix>3d</fix>
</trkpt>
<trkpt lat="40.071017" lon="-105.2299941">
  <ele>1583.0</ele>
  <time>2026-08-28T17:55:36Z</time>
  <course>127.02</course>
  <speed>0.03</speed>
  <fix>3d</fix>
</trkpt>
<trkpt lat="40.0710175" lon="-105.2299911">
  <ele>1583.51</ele>
  <time>2026-08-28T17:55:36Z</time>
  <course>196.87</course>
  <speed>0.28442925306655786</speed>
  <fix>3d</fix>
</trkpt>
<trkpt lat="40.071017" lon="-105.2299941">
  <ele>1583.0</ele>
  <time>2026-08-28T17:55:36Z</time>
  <course>127.02</course>
  <speed>0.03</speed>
  <fix>3d</fix>
</trkpt>
<trkpt lat="40.0710175" lon="-105.2299911">
  <ele>1583.51</ele>
  <time>2026-08-28T17:55:36Z</time>
  <course>196.9</course>
  <speed>0.28442925306655786</speed>
  <fix>3d</fix>
</trkpt>
<trkpt lat="40.071017" lon="-105.229994">
  <ele>1583.0</ele>
  <time>2026-08-28T17:55:36Z</time>
  <course>125.55</course>
  <speed>0.03</speed>
  <fix>3d</fix>
</trkpt>
<trkpt lat="40.0710175" lon="-105.2299911">
  <ele>1583.51</ele>
  <time>2026-08-28T17:55:36Z</time>
  <course>196.93</course>
  <speed>0.2745906043549196</speed>
  <fix>3d</fix>
</trkpt>
<trkpt lat="40.071017" lon="-105.229994">
  <ele>1583.0</ele>
  <time>2026-08-28T17:55:36Z</time>
  <course>125.55</course>
  <speed>0.03</speed>
  <fix>3d</fix>
</trkpt>
<trkpt lat="40.0710175" lon="-105.2299911">
  <ele>1583.51</ele>
  <time>2026-08-28T17:55:36Z</time>
  <course>196.96</course>
  <speed>0.2745906043549196</speed>
  <fix>3d</fix>
</trkpt>
<trkpt lat="40.0710169" lon="-105.2299939">
  <ele>1583.0</ele>
  <time>2026-08-28T17:55:36Z</time>
  <course>124.21</course>
  <speed>0.03</speed>
  <fix>3d</fix>
</trkpt>
<trkpt lat="40.0710175" lon="-105.2299911">
  <ele>1583.5</ele>
  <time>2026-08-28T17:55:36Z</time>
  <course>197.0</course>
  <speed>0.26476404589747454</speed>
  <fix>3d</fix>
</trkpt>
<trkpt lat="40.0710169" lon="-105.2299939">
  <ele>1583.0</ele>
  <time>2026-08-28T17:55:36Z</time>
  <course>124.21</course>
  <speed>0.03</speed>
  <fix>3d</fix>
</trkpt>
<trkpt lat="40.0710175" lon="-105.2299911">
  <ele>1583.5</ele>
  <time>2026-08-28T17:55:36Z</time>
  <course>197.02</course>
  <speed>0.26476404589747454</speed>
  <fix>3d</fix>
</trkpt>
<trkpt lat="40.0710168" lon="-105.2299939">
  <ele>1583.0</ele>
  <time>2026-08-28T17:55:36Z</time>
  <course>122.98</course>
  <speed>0.03</speed>
  <fix>3d</fix>
</trkpt>
<trkpt lat="40.0710175" lon="-105.2299911">
  <ele>1583.5</ele>
  <time>2026-08-28T17:55:36Z</time>
  <course>197.05</course>
  <speed>0.25495097567963926</speed>
  <fix>3d</fix>
</trkpt>
<trkpt lat="40.0710168" lon="-105.2299939">
  <ele>1583.0</ele>
  <time>2026-08-28T17:55:36Z</time>
  <course>122.98</course>
  <speed>0.03</speed>
  <fix>3d</fix>
</trkpt>
<trkpt lat="40.0710174" lon="-105.2299911">
  <ele>1583.5</ele>
  <time>2026-08-28T17:55:36Z</time>
  <course>197.09</course>
  <speed>0.25495097567963926</speed>
  <fix>3d</fix>
</trkpt>
<trkpt lat="40.0710168" lon="-105.2299938">
  <ele>1583.0</ele>
  <time>2026-08-28T17:55:36Z</time>
  <course>121.86</course>
  <speed>0.03</speed>
  <fix>3d</fix>
</trkpt>
<trkpt lat="40.0710174" lon="-105.2299912">
  <ele>1583.49</ele>
  <time>2026-08-28T17:55:36Z</time>
  <course>197.12</course>
  <speed>0.24515301344262524</speed>
  <fix>3d</fix>
</trkpt>
<trkpt lat="40.0710168" lon="-105.2299938">
  <ele>1583.0</ele>
  <time>2026-08-28T17:55:36Z</time>
  <course>121.86</course>
  <speed>0.03</speed>
  <fix>3d</fix>
</trkpt>
<trkpt lat="40.0710174" lon="-105.2299911">
  <ele>1583.49</ele>
  <time>2026-08-28T17:55:36Z</time>
  <course>197.15</course>
  <speed>0.24515301344262524</speed>
  <fix>3d</fix>
</trkpt>
<trkpt lat="40.0710167" lon="-105.2299937">
  <ele>1583.0</ele>
  <time>2026-08-28T17:55:36Z</time>
  <course>120.84</course>
  <speed>0.03</speed>
  <fix>3d</fix>
</trkpt>
<trkpt lat="40.0710174" lon="-105.2299912">
  <ele>1583.49</ele>
  <time>2026-08-28T17:55:36Z</time>
  <course>197.18</course>
  <speed>0.2353720459187964</speed>
  <fix>3d</fix>
</trkpt>
<trkpt lat="40.0710167" lon="-105.2299937">
  <ele>1583.0</ele>
  <time>2026-08-28T17:55:36Z</time>
  <course>120.84</course>
  <speed>0.03</speed>
  <fix>3d</fix>
</trkpt>
<trkpt lat="40.0710174" lon="-105.2299912">
  <ele>1583.49</ele>
  <time>2026-08-28T17:55:36Z</time>
  <course>197.21</course>
  <speed>0.2353720459187964</speed>
  <fix>3d</fix>
</trkpt>
<trkpt lat="40.0710167" lon="-105.2299937">
  <ele>1583.0</ele>
  <time>2026-08-28T17:55:36Z</time>
  <course>119.91</course>
  <speed>0.03</speed>
  <fix>3d</fix>
</trkpt>
<trkpt lat="40.0710173" lon="-105.2299912">
  <ele>1583.49</ele>
  <time>2026-08-28T17:55:36Z</time>
  <course>197.25</course>
  <speed>0.2353720459187964</speed>
  <fix>3d</fix>
</trkpt>
<trkpt lat="40.0710167" lon="-105.2299937">
  <ele>1583.0</ele>
  <time>2026-08-28T17:55:36Z</time>
  <course>119.91</course>
  <speed>0.03</speed>
  <fix>3d</fix>
</trkpt>
<trkpt lat="40.0710173" lon="-105.2299912">
  <ele>1583.49</ele>
  <time>2026-08-28T17:55:36Z</time>
  <course>197.28</course>
  <speed>0.22803508501982758</speed>
  <fix>3d</fix>
</trkpt>
<trkpt lat="40.0710167" lon="-105.2299936">
  <ele>1583.0</ele>
  <time>2026-08-28T17:55:36Z</time>
  <course>119.06</course>
  <speed>0.03</speed>
  <fix>3d</fix>
</trkpt>
<trkpt lat="40.0710173" lon="-105.2299912">
  <ele>1583.49</ele>
  <time>2026-08-28T17:55:36Z</time>
  <course>197.31</course>
  <speed>0.22561028345356957</speed>
  <fix>3d</fix>
</trkpt>
<trkpt lat="40.0710167" lon="-105.2299936">
  <ele>1583.0</ele>
  <time>2026-08-28T17:55:36Z</time>
  <course>119.06</course>
  <speed>0.03</speed>
  <fix>3d</fix>
</trkpt>
<trkpt lat="40.0710173" lon="-105.2299912">
  <ele>1583.48</ele>
  <time>2026-08-28T17:55:36Z</time>
  <course>197.35</course>
  <speed>0.22803508501982758</speed>
  <fix>3d</fix>
</trkpt>
<trkpt lat="40.0710167" lon="-105.2299935">
  <ele>1583.0</ele>
  <time>2026-08-28T17:55:36Z</time>
  <course>118.29</course>
  <speed>0.03</speed>
  <fix>3d</fix>
</trkpt>
<trkpt lat="40.0710173" lon="-105.2299912">
  <ele>1583.48</ele>
  <time>2026-08-28T17:55:36Z</time>
  <course>197.38</course>
  <speed>0.21840329667841554</speed>
  <fix>3d</fix>
</trkpt>
<trkpt lat="40.0710167" lon="-105.2299935">
  <ele>1583.0</ele>
  <time>2026-08-28T17:55:36Z</time>
  <course>118.29</course>
  <speed>0.03</speed>
  <fix>3d</fix>
</trkpt>
<trkpt lat="40.0710173" lon="-105.2299912">
  <ele>1583.48</ele>
  <time>2026-08-28T17:55:36Z</time>
  <course>197.42</course>
  <speed>0.21840329667841554</speed>
  <fix>3d</fix>
</trkpt>
<trkpt lat="40.0710167" lon="-105.2299934">
  <ele>1583.0</ele>
  <time>2026-08-28T17:55:36Z</time>
  <course>117.59</course>
  <speed>0.03</speed>
  <fix>3d</fix>
</trkpt>
<trkpt lat="40.0710172" lon="-105.2299912">
  <ele>1583.48</ele>
  <time>2026-08-28T17:55:36Z</time>
  <course>197.45</course>
  <speed>0.21840329667841554</speed>
  <fix>3d</fix>
</trkpt>
<trkpt lat="40.0710167" lon="-105.2299934">
  <ele>1583.0</ele>
  <time>2026-08-28T17:55:36Z</time>
  <course>117.59</course>
  <speed>0.03</speed>
  <fix>3d</fix>
</trkpt>
<trkpt lat="40.0710172" lon="-105.2299911">
  <ele>1583.48</ele>
  <time>2026-08-28T17:55:36Z</time>
  <course>197.48</course>
  <speed>0.21840329667841554</speed>
  <fix>3d</fix>
</trkpt>
<trkpt lat="40.0710166" lon="-105.2299933">
  <ele>1583.0</ele>
  <time>2026-08-28T17:55:36Z</time>
  <course>116.96</course>
  <speed>0.03</speed>
  <fix>3d</fix>
</trkpt>
<trkpt lat="40.0710172" lon="-105.2299912">
  <ele>1583.48</ele>
  <time>2026-08-28T17:55:36Z</time>
  <course>197.52</course>
  <speed>0.208806130178211</speed>
  <fix>3d</fix>
</trkpt>
<trkpt lat="40.0710166" lon="-105.2299933">
  <ele>1583.0</ele>
  <time>2026-08-28T17:55:36Z</time>
  <course>116.96</course>
  <speed>0.03</speed>
  <fix>3d</fix>
</trkpt>
<trkpt lat="40.0710172" lon="-105.2299911">
  <ele>1583.48</ele>
  <time>2026-08-28T17:55:36Z</time>
  <course>197.55</course>
  <speed>0.208806130178211</speed>
  <fix>3d</fix>
</trkpt>
<trkpt lat="40.0710166" lon="-105.2299932">
  <ele>1583.0</ele>
  <time>2026-08-28T17:55:36Z</time>
  <course>116.38</course>
  <speed>0.03</speed>
  <fix>3d</fix>
</trkpt>
<trkpt lat="40.0710172" lon="-105.2299912">
  <ele>1583.47</ele>
  <time>2026-08-28T17:55:36Z</time>
  <course>197.59</course>
  <speed>0.208806130178211</speed>
  <fix>3d</fix>
</trkpt>
<trkpt lat="40.0710166" lon="-105.2299932">
  <ele>1583.0</ele>
  <time>2026-08-28T17:55:36Z</time>
  <course>116.38</course>
  <speed>0.03</speed>
  <fix>3d</fix>
</trkpt>
<trkpt lat="40.0710172" lon="-105.2299911">
  <ele>1583.47</ele>
  <time>2026-08-28T17:55:36Z</time>
  <course>197.62</course>
  <speed>0.208806130178211</speed>
  <fix>3d</fix>
</trkpt>
<trkpt lat="40.0710166" lon="-105.2299932">
  <ele>1583.0</ele>
  <time>2026-08-28T17:55:36Z</time>
  <course>115.86</course>
  <speed>0.03</speed>
  <fix>3d</fix>
</trkpt>
<trkpt lat="40.0710172" lon="-105.2299911">
  <ele>1583.46</ele>
  <time>2026-08-28T17:55:36Z</time>
  <course>197.65</course>
  <speed>0.19924858845171275</speed>
  <fix>3d</fix>
</trkpt>
<trkpt lat="40.0710166" lon="-105.2299932">
  <ele>1583.0</ele>
  <time>2026-08-28T17:55:36Z</time>
  <course>115.86</course>
  <speed>0.03</speed>
  <fix>3d</fix>
</trkpt>
<trkpt lat="40.0710172" lon="-105.2299911">
  <ele>1583.46</ele>
  <time>2026-08-28T17:55:36Z</time>
  <course>197.69</course>
  <speed>0.19924858845171275</speed>
  <fix>3d</fix>
</trkpt>
<trkpt lat="40.0710166" lon="-105.2299931">
  <ele>1583.0</ele>
  <time>2026-08-28T17:55:36Z</time>
  <course>115.39</course>
  <speed>0.03</speed>
  <fix>3d</fix>
</trkpt>
<trkpt lat="40.0710172" lon="-105.2299911">
  <ele>1583.46</ele>
  <time>2026-08-28T17:55:36Z</time>
  <course>197.72</course>
  <speed>0.19924858845171275</speed>
  <fix>3d</fix>
</trkpt>
<trkpt lat="40.0710166" lon="-105.2299931">
  <ele>1583.0</ele>
  <time>2026-08-28T17:55:36Z</time>
  <course>115.39</course>
  <speed>0.03</speed>
  <fix>3d</fix>
</trkpt>
<trkpt lat="40.0710172" lon="-105.2299911">
  <ele>1583.46</ele>
  <time>2026-08-28T17:55:36Z</time>
  <course>197.75</course>
  <speed>0.19924858845171275</speed>
  <fix>3d</fix>
</trkpt>
<trkpt lat="40.0710165" lon="-105.229993">
  <ele>1583.0</ele>
  <time>2026-08-28T17:55:36Z</time>
  <course>114.96</course>
  <speed>0.03</speed>
  <fix>3d</fix>
</trkpt>
<trkpt lat="40.0710171" lon="-105.2299911">
  <ele>1583.45</ele>
  <time>2026-08-28T17:55:36Z</time>
  <course>197.79</course>
  <speed>0.18973665961010278</speed>
  <fix>3d</fix>
</trkpt>
<trkpt lat="40.0710165" lon="-105.229993">
  <ele>1583.0</ele>
  <time>2026-08-28T17:55:36Z</time>
  <course>114.96</course>
  <speed>0.03</speed>
  <fix>3d</fix>
</trkpt>
<trkpt lat="40.0710171" lon="-105.2299911">
  <ele>1583.45</ele>
  <time>2026-08-28T17:55:36Z</time>
  <course>197.82</course>
  <speed>0.18973665961010278</speed>
  <fix>3d</fix>
</trkpt>
<trkpt lat="40.0710165" lon="-105.2299929">
  <ele>1583.0</ele>
  <time>2026-08-28T17:55:36Z</time>
  <course>114.58</course>
  <speed>0.03</speed>
  <fix>3d</fix>
</trkpt>
<trkpt lat="40.0710171" lon="-105.2299911">
  <ele>1583.45</ele>
  <time>2026-08-28T17:55:36Z</time>
  <course>197.86</course>
  <speed>0.18973665961010278</speed>
  <fix>3d</fix>
</trkpt>
<trkpt lat="40.0710165" lon="-105.2299929">
  <ele>1583.0</ele>
  <time>2026-08-28T17:55:36Z</time>
  <course>114.58</course>
  <speed>0.03</speed>
  <fix>3d</fix>
</trkpt>
<trkpt lat="40.0710171" lon="-105.2299911">
  <ele>1583.45</ele>
  <time>2026-08-28T17:55:36Z</time>
  <course>197.89</course>
  <speed>0.18973665961010278</speed>
  <fix>3d</fix>
</trkpt>
<trkpt lat="40.0710165" lon="-105.2299928">
  <ele>1583.0</ele>
  <time>2026-08-28T17:55:36Z</time>
  <course>114.23</course>
  <speed>0.03</speed>
  <fix>3d</fix>
</trkpt>
<trkpt lat="40.0710171" lon="-105.2299911">
  <ele>1583.45</ele>
  <time>2026-08-28T17:55:36Z</time>
  <course>197.93</course>
  <speed>0.18027756377319945</speed>
  <fix>3d</fix>
</trkpt>
<trkpt lat="40.0710165" lon="-105.2299928">
  <ele>1583.0</ele>
  <time>2026-08-28T17:55:36Z</time>
  <course>114.23</course>
  <speed>0.03</speed>
  <fix>3d</fix>
</trkpt>
<trkpt lat="40.0710171" lon="-105.2299911">
  <ele>1583.45</ele>
  <time>2026-08-28T17:55:36Z</time>
  <course>197.96</course>
  <speed>0.18027756377319945</speed>
  <fix>3d</fix>
</trkpt>
<trkpt lat="40.0710164" lon="-105.2299927">
  <ele>1583.0</ele>
  <time>2026-08-28T17:55:36Z</time>
  <course>113.91</course>
  <speed>0.03</speed>
  <fix>3d</fix>
</trkpt>
<trkpt lat="40.0710171" lon="-105.2299911">
  <ele>1583.45</ele>
  <time>2026-08-28T17:55:36Z</time>
  <course>198.0</course>
  <speed>0.18027756377319945</speed>
  <fix>3d</fix>
</trkpt>
<trkpt lat="40.0710164" lon="-105.2299927">
  <ele>1583.0</ele>
  <time>2026-08-28T17:55:36Z</time>
  <course>113.91</course>
  <speed>0.03</speed>
  <fix>3d</fix>
</trkpt>
<trkpt lat="40.0710171" lon="-105.2299911">
  <ele>1583.45</ele>
  <time>2026-08-28T17:55:36Z</time>
  <course>198.03</course>
  <speed>0.18027756377319945</speed>
  <fix>3d</fix>
</trkpt>
<trkpt lat="40.0710164" lon="-105.2299927">
  <ele>1583.0</ele>
  <time>2026-08-28T17:55:36Z</time>
  <course>113.62</course>
  <speed>0.03</speed>
  <fix>3d</fix>
</trkpt>
<trkpt lat="40.071017" lon="-105.2299911">
  <ele>1583.44</ele>
  <time>2026-08-28T17:55:36Z</time>
  <course>198.08</course>
  <speed>0.18027756377319945</speed>
  <fix>3d</fix>
</trkpt>
<trkpt lat="40.0710164" lon="-105.2299927">
  <ele>1583.0</ele>
  <time>2026-08-28T17:55:36Z</time>
  <course>113.62</course>
  <speed>0.03</speed>
  <fix>3d</fix>
</trkpt>
<trkpt lat="40.071017" lon="-105.229991">
  <ele>1583.44</ele>
  <time>2026-08-28T17:55:36Z</time>
  <course>198.11</course>
  <speed>0.18027756377319945</speed>
  <fix>3d</fix>
</trkpt>
<trkpt lat="40.0710164" lon="-105.2299926">
  <ele>1583.0</ele>
  <time>2026-08-28T17:55:36Z</time>
  <course>113.36</course>
  <speed>0.03</speed>
  <fix>3d</fix>
</trkpt>
<trkpt lat="40.071017" lon="-105.229991">
  <ele>1583.43</ele>
  <time>2026-08-28T17:55:36Z</time>
  <course>198.15</course>
  <speed>0.18027756377319945</speed>
  <fix>3d</fix>
</trkpt>
<trkpt lat="40.0710164" lon="-105.2299926">
  <ele>1583.0</ele>
  <time>2026-08-28T17:55:36Z</time>
  <course>113.36</course>
  <speed>0.03</speed>
  <fix>3d</fix>
</trkpt>
<trkpt lat="40.0710169" lon="-105.229991">
  <ele>1583.43</ele>
  <time>2026-08-28T17:55:36Z</time>
  <course>198.19</course>
  <speed>0.18027756377319945</speed>
  <fix>3d</fix>
</trkpt>
<trkpt lat="40.0710164" lon="-105.2299925">
  <ele>1583.0</ele>
  <time>2026-08-28T17:55:36Z</time>
  <course>113.13</course>
  <speed>0.03</speed>
  <fix>3d</fix>
</trkpt>
<trkpt lat="40.0710169" lon="-105.229991">
  <ele>1583.43</ele>
  <time>2026-08-28T17:55:36Z</time>
  <course>198.22</course>
  <speed>0.1708800749063506</speed>
  <fix>3d</fix>
</trkpt>
<trkpt lat="40.0710164" lon="-105.2299925">
  <ele>1583.0</ele>
  <time>2026-08-28T17:55:36Z</time>
  <course>113.13</course>
  <speed>0.03</speed>
  <fix>3d</fix>
</trkpt>
<trkpt lat="40.0710169" lon="-105.2299909">
  <ele>1583.43</ele>
  <time>2026-08-28T17:55:36Z</time>
  <course>198.26</course>
  <speed>0.1708800749063506</speed>
  <fix>3d</fix>
</trkpt>
<trkpt lat="40.0710163" lon="-105.2299924">
  <ele>1583.0</ele>
  <time>2026-08-28T17:55:36Z</time>
  <course>112.91</course>
  <speed>0.03</speed>
  <fix>3d</fix>
</trkpt>
<trkpt lat="40.0710169" lon="-105.2299909">
  <ele>1583.42</ele>
  <time>2026-08-28T17:55:36Z</time>
  <course>198.3</course>
  <speed>0.1708800749063506</speed>
  <fix>3d</fix>
</trkpt>
<trkpt lat="40.0710163" lon="-105.2299924">
  <ele>1583.0</ele>
  <time>2026-08-28T17:55:36Z</time>
  <course>112.91</course>
  <speed>0.03</speed>
  <fix>3d</fix>
</trkpt>
<trkpt lat="40.0710169" lon="-105.2299908">
  <ele>1583.42</ele>
  <time>2026-08-28T17:55:36Z</time>
  <course>198.34</course>
  <speed>0.1708800749063506</speed>
  <fix>3d</fix>
</trkpt>
<trkpt lat="40.0710162" lon="-105.2299923">
  <ele>1583.0</ele>
  <time>2026-08-28T17:55:36Z</time>
  <course>112.72</course>
  <speed>0.03</speed>
  <fix>3d</fix>
</trkpt>
<trkpt lat="40.0710169" lon="-105.2299908">
  <ele>1583.41</ele>
  <time>2026-08-28T17:55:36Z</time>
  <course>198.37</course>
  <speed>0.1676305461424021</speed>
  <fix>3d</fix>
</trkpt>
<trkpt lat="40.0710162" lon="-105.2299923">
  <ele>1583.0</ele>
  <time>2026-08-28T17:55:36Z</time>
  <course>112.72</course>
  <speed>0.03</speed>
  <fix>3d</fix>
</trkpt>
<trkpt lat="40.0710169" lon="-105.2299908">
  <ele>1583.41</ele>
  <time>2026-08-28T17:55:36Z</time>
  <course>198.41</course>
  <speed>0.1676305461424021</speed>
  <fix>3d</fix>
</trkpt>
<trkpt lat="40.0710162" lon="-105.2299922">
  <ele>1583.0</ele>
  <time>2026-08-28T17:55:36Z</time>
  <course>112.54</course>
  <speed>0.03</speed>
  <fix>3d</fix>
</trkpt>
<trkpt lat="40.0710169" lon="-105.2299908">
  <ele>1583.4</ele>
  <time>2026-08-28T17:55:36Z</time>
  <course>198.45</course>
  <speed>0.1676305461424021</speed>
  <fix>3d</fix>
</trkpt>
<trkpt lat="40.0710162" lon="-105.2299922">
  <ele>1583.0</ele>
  <time>2026-08-28T17:55:36Z</time>
  <course>112.54</course>
  <speed>0.03</speed>
  <fix>3d</fix>
</trkpt>
<trkpt lat="40.0710169" lon="-105.2299907">
  <ele>1583.4</ele>
  <time>2026-08-28T17:55:36Z</time>
  <course>198.48</course>
  <speed>0.1676305461424021</speed>
  <fix>3d</fix>
</trkpt>
<trkpt lat="40.0710162" lon="-105.2299922">
  <ele>1583.0</ele>
  <time>2026-08-28T17:55:36Z</time>
  <course>112.39</course>
  <speed>0.03</speed>
  <fix>3d</fix>
</trkpt>
<trkpt lat="40.0710168" lon="-105.2299908">
  <ele>1583.39</ele>
  <time>2026-08-28T17:55:36Z</time>
  <course>198.52</course>
  <speed>0.15811388300841897</speed>
  <fix>3d</fix>
</trkpt>
<trkpt lat="40.0710162" lon="-105.2299922">
  <ele>1583.0</ele>
  <time>2026-08-28T17:55:36Z</time>
  <course>112.39</course>
  <speed>0.03</speed>
  <fix>3d</fix>
</trkpt>
<trkpt lat="40.0710168" lon="-105.2299907">
  <ele>1583.38</ele>
  <time>2026-08-28T17:55:36Z</time>
  <course>198.56</course>
  <speed>0.15811388300841897</speed>
  <fix>3d</fix>
</trkpt>
<trkpt lat="40.0710162" lon="-105.2299921">
  <ele>1583.0</ele>
  <time>2026-08-28T17:55:36Z</time>
  <course>112.24</course>
  <speed>0.03</speed>
  <fix>3d</fix>
</trkpt>
<trkpt lat="40.0710167" lon="-105.2299907">
  <ele>1583.38</ele>
  <time>2026-08-28T17:55:36Z</time>
  <course>198.6</course>
  <speed>0.15811388300841897</speed>
  <fix>3d</fix>
</trkpt>
<trkpt lat="40.0710162" lon="-105.2299921">
  <ele>1583.0</ele>
  <time>2026-08-28T17:55:36Z</time>
  <course>112.24</course>
  <speed>0.03</speed>
  <fix>3d</fix>
</trkpt>
<trkpt lat="40.0710167" lon="-105.2299906">
  <ele>1583.37</ele>
  <time>2026-08-28T17:55:36Z</time>
  <course>198.64</course>
  <speed>0.15811388300841897</speed>
  <fix>3d</fix>
</trkpt>
<trkpt lat="40.0710161" lon="-105.229992">
  <ele>1583.0</ele>
  <time>2026-08-28T17:55:36Z</time>
  <course>112.11</course>
  <speed>0.03</speed>
  <fix>3d</fix>
</trkpt>
<trkpt lat="40.0710167" lon="-105.2299907">
  <ele>1583.36</ele>
  <time>2026-08-28T17:55:36Z</time>
  <course>198.68</course>
  <speed>0.15811388300841897</speed>
  <fix>3d</fix>
</trkpt>
<trkpt lat="40.0710161" lon="-105.229992">
  <ele>1583.0</ele>
  <time>2026-08-28T17:55:36Z</time>
  <course>112.11</course>
  <speed>0.03</speed>
  <fix>3d</fix>
</trkpt>
<trkpt lat="40.0710167" lon="-105.2299906">
  <ele>1583.36</ele>
  <time>2026-08-28T17:55:36Z</time>
  <course>198.72</course>
  <speed>0.15811388300841897</speed>
  <fix>3d</fix>
</trkpt>
<trkpt lat="40.0710161" lon="-105.2299919">
  <ele>1583.0</ele>
  <time>2026-08-28T17:55:36Z</time>
  <course>112.0</course>
  <speed>0.03</speed>
  <fix>3d</fix>
</trkpt>
<trkpt lat="40.0710167" lon="-105.2299906">
  <ele>1583.36</ele>
  <time>2026-08-28T17:55:36Z</time>
  <course>198.76</course>
  <speed>0.15811388300841897</speed>
  <fix>3d</fix>
</trkpt>
<trkpt lat="40.0710161" lon="-105.2299919">
  <ele>1583.0</ele>
  <time>2026-08-28T17:55:36Z</time>
  <course>112.0</course>
  <speed>0.03</speed>
  <fix>3d</fix>
</trkpt>
<trkpt lat="40.0710167" lon="-105.2299905">
  <ele>1583.36</ele>
  <time>2026-08-28T17:55:36Z</time>
  <course>198.8</course>
  <speed>0.15811388300841897</speed>
  <fix>3d</fix>
</trkpt>
<trkpt lat="40.0710161" lon="-105.2299918">
  <ele>1583.0</ele>
  <time>2026-08-28T17:55:36Z</time>
  <course>111.89</course>
  <speed>0.03</speed>
  <fix>3d</fix>
</trkpt>
<trkpt lat="40.0710167" lon="-105.2299905">
  <ele>1583.36</ele>
  <time>2026-08-28T17:55:36Z</time>
  <course>198.84</course>
  <speed>0.15811388300841897</speed>
  <fix>3d</fix>
</trkpt>
<trkpt lat="40.0710161" lon="-105.2299918">
  <ele>1583.0</ele>
  <time>2026-08-28T17:55:36Z</time>
  <course>111.89</course>
  <speed>0.03</speed>
  <fix>3d</fix>
</trkpt>
<trkpt lat="40.0710167" lon="-105.2299905">
  <ele>1583.36</ele>
  <time>2026-08-28T17:55:36Z</time>
  <course>198.88</course>
  <speed>0.15811388300841897</speed>
  <fix>3d</fix>
</trkpt>
<trkpt lat="40.0710161" lon="-105.2299917">
  <ele>1583.0</ele>
  <time>2026-08-28T17:55:36Z</time>
  <course>111.79</course>
  <speed>0.03</speed>
  <fix>3d</fix>
</trkpt>
<trkpt lat="40.0710165" lon="-105.2299903">
  <ele>1583.38</ele>
  <time>2026-08-28T17:55:36Z</time>
  <course>199.05</course>
  <speed>0.14866068747318506</speed>
  <fix>3d</fix>
</trkpt>
<trkpt lat="40.0710161" lon="-105.2299916">
  <ele>1583.0</ele>
  <time>2026-08-28T17:55:36Z</time>
  <course>111.63</course>
  <speed>0.03</speed>
  <fix>3d</fix>
</trkpt>
<trkpt lat="40.0710165" lon="-105.2299902">
  <ele>1583.38</ele>
  <time>2026-08-28T17:55:37Z</time>
  <course>199.16</course>
  <speed>0.14866068747318506</speed>
  <fix>3d</fix>
</trkpt>
<trkpt lat="40.071016" lon="-105.2299915">
  <ele>1583.0</ele>
  <time>2026-08-28T17:55:37Z</time>
  <course>111.56</course>
  <speed>0.03</speed>
  <fix>3d</fix>
</trkpt>
<trkpt lat="40.0710165" lon="-105.2299902">
  <ele>1583.38</ele>
  <time>2026-08-28T17:55:37Z</time>
  <course>199.21</course>
  <speed>0.14866068747318506</speed>
  <fix>3d</fix>
</trkpt>
<trkpt lat="40.071016" lon="-105.2299915">
  <ele>1583.0</ele>
  <time>2026-08-28T17:55:37Z</time>
  <course>111.56</course>
  <speed>0.03</speed>
  <fix>3d</fix>
</trkpt>
<trkpt lat="40.0710165" lon="-105.2299902">
  <ele>1583.38</ele>
  <time>2026-08-28T17:55:37Z</time>
  <course>199.25</course>
  <speed>0.14560219778561037</speed>
  <fix>3d</fix>
</trkpt>
<trkpt lat="40.071016" lon="-105.2299914">
  <ele>1583.0</ele>
  <time>2026-08-28T17:55:37Z</time>
  <course>111.49</course>
  <speed>0.03</speed>
  <fix>3d</fix>
</trkpt>
<trkpt lat="40.0710165" lon="-105.2299901">
  <ele>1583.38</ele>
  <time>2026-08-28T17:55:37Z</time>
  <course>199.29</course>
  <speed>0.14560219778561037</speed>
  <fix>3d</fix>
</trkpt>
<trkpt lat="40.071016" lon="-105.2299914">
  <ele>1583.0</ele>
  <time>2026-08-28T17:55:37Z</time>
  <course>111.49</course>
  <speed>0.03</speed>
  <fix>3d</fix>
</trkpt>
<trkpt lat="40.0710165" lon="-105.2299901">
  <ele>1583.37</ele>
  <time>2026-08-28T17:55:37Z</time>
  <course>199.33</course>
  <speed>0.14560219778561037</speed>
  <fix>3d</fix>
</trkpt>
<trkpt lat="40.071016" lon="-105.2299913">
  <ele>1583.0</ele>
  <time>2026-08-28T17:55:37Z</time>
  <course>111.44</course>
  <speed>0.03</speed>
  <fix>3d</fix>
</trkpt>
<trkpt lat="40.0710164" lon="-105.2299901">
  <ele>1583.37</ele>
  <time>2026-08-28T17:55:37Z</time>
  <course>199.42</course>
  <speed>0.13601470508735444</speed>
  <fix>3d</fix>
</trkpt>
<trkpt lat="40.071016" lon="-105.2299913">
  <ele>1583.0</ele>
  <time>2026-08-28T17:55:37Z</time>
  <course>111.38</course>
  <speed>0.03</speed>
  <fix>3d</fix>
</trkpt>
<trkpt lat="40.0710164" lon="-105.22999">
  <ele>1583.37</ele>
  <time>2026-08-28T17:55:37Z</time>
  <course>199.46</course>
  <speed>0.14560219778561037</speed>
  <fix>3d</fix>
</trkpt>
<trkpt lat="40.0710159" lon="-105.2299912">
  <ele>1583.0</ele>
  <time>2026-08-28T17:55:37Z</time>
  <course>111.34</course>
  <speed>0.03</speed>
  <fix>3d</fix>
</trkpt>
<trkpt lat="40.0710164" lon="-105.22999">
  <ele>1583.37</ele>
  <time>2026-08-28T17:55:37Z</time>
  <course>199.51</course>
  <speed>0.13601470508735444</speed>
  <fix>3d</fix>
</trkpt>
<trkpt lat="40.0710159" lon="-105.2299912">
  <ele>1583.0</ele>
  <time>2026-08-28T17:55:37Z</time>
  <course>111.34</course>
  <speed>0.03</speed>
  <fix>3d</fix>
</trkpt>
<trkpt lat="40.0710164" lon="-105.22999">
  <ele>1583.37</ele>
  <time>2026-08-28T17:55:37Z</time>
  <course>199.55</course>
  <speed>0.13601470508735444</speed>
  <fix>3d</fix>
</trkpt>
<trkpt lat="40.0710159" lon="-105.2299911">
  <ele>1583.0</ele>
  <time>2026-08-28T17:55:37Z</time>
  <course>111.29</course>
  <speed>0.03</speed>
  <fix>3d</fix>
</trkpt>
<trkpt lat="40.0710164" lon="-105.22999">
  <ele>1583.37</ele>
  <time>2026-08-28T17:55:37Z</time>
  <course>199.59</course>
  <speed>0.13601470508735444</speed>
  <fix>3d</fix>
</trkpt>
<trkpt lat="40.0710159" lon="-105.2299911">
  <ele>1583.0</ele>
  <time>2026-08-28T17:55:37Z</time>
  <course>111.29</course>
  <speed>0.03</speed>
  <fix>3d</fix>
</trkpt>
<trkpt lat="40.0710164" lon="-105.2299899">
  <ele>1583.37</ele>
  <time>2026-08-28T17:55:37Z</time>
  <course>199.64</course>
  <speed>0.13601470508735444</speed>
  <fix>3d</fix>
</trkpt>
<trkpt lat="40.0710159" lon="-105.229991">
  <ele>1583.0</ele>
  <time>2026-08-28T17:55:37Z</time>
  <course>111.25</course>
  <speed>0.03</speed>
  <fix>3d</fix>
</trkpt>
<trkpt lat="40.0710164" lon="-105.2299899">
  <ele>1583.37</ele>
  <time>2026-08-28T17:55:37Z</time>
  <course>199.68</course>
  <speed>0.13601470508735444</speed>
  <fix>3d</fix>
</trkpt>
<trkpt lat="40.0710159" lon="-105.229991">
  <ele>1583.0</ele>
  <time>2026-08-28T17:55:37Z</time>
  <course>111.25</course>
  <speed>0.03</speed>
  <fix>3d</fix>
</trkpt>
<trkpt lat="40.0710164" lon="-105.2299898">
  <ele>1583.37</ele>
  <time>2026-08-28T17:55:37Z</time>
  <course>199.73</course>
  <speed>0.13601470508735444</speed>
  <fix>3d</fix>
</trkpt>
<trkpt lat="40.0710159" lon="-105.2299909">
  <ele>1583.0</ele>
  <time>2026-08-28T17:55:37Z</time>
  <course>111.22</course>
  <speed>0.03</speed>
  <fix>3d</fix>
</trkpt>
<trkpt lat="40.0710164" lon="-105.2299898">
  <ele>1583.37</ele>
  <time>2026-08-28T17:55:37Z</time>
  <course>199.77</course>
  <speed>0.13601470508735444</speed>
  <fix>3d</fix>
</trkpt>
<trkpt lat="40.0710159" lon="-105.2299909">
  <ele>1583.0</ele>
  <time>2026-08-28T17:55:37Z</time>
  <course>111.22</course>
  <speed>0.03</speed>
  <fix>3d</fix>
</trkpt>
<trkpt lat="40.0710164" lon="-105.2299898">
  <ele>1583.37</ele>
  <time>2026-08-28T17:55:37Z</time>
  <course>199.82</course>
  <speed>0.13601470508735444</speed>
  <fix>3d</fix>
</trkpt>
<trkpt lat="40.0710158" lon="-105.2299908">
  <ele>1583.0</ele>
  <time>2026-08-28T17:55:37Z</time>
  <course>111.19</course>
  <speed>0.03</speed>
  <fix>3d</fix>
</trkpt>
<trkpt lat="40.0710163" lon="-105.2299897">
  <ele>1583.37</ele>
  <time>2026-08-28T17:55:37Z</time>
  <course>199.86</course>
  <speed>0.13601470508735444</speed>
  <fix>3d</fix>
</trkpt>
<trkpt lat="40.0710158" lon="-105.2299908">
  <ele>1583.0</ele>
  <time>2026-08-28T17:55:37Z</time>
  <course>111.19</course>
  <speed>0.03</speed>
  <fix>3d</fix>
</trkpt>
<trkpt lat="40.0710163" lon="-105.2299897">
  <ele>1583.37</ele>
  <time>2026-08-28T17:55:37Z</time>
  <course>199.91</course>
  <speed>0.13601470508735444</speed>
  <fix>3d</fix>
</trkpt>
<trkpt lat="40.0710158" lon="-105.2299908">
  <ele>1583.0</ele>
  <time>2026-08-28T17:55:37Z</time>
  <course>111.16</course>
  <speed>0.03</speed>
  <fix>3d</fix>
</trkpt>
<trkpt lat="40.0710163" lon="-105.2299896">
  <ele>1583.37</ele>
  <time>2026-08-28T17:55:37Z</time>
  <course>199.97</course>
  <speed>0.13601470508735444</speed>
  <fix>3d</fix>
</trkpt>
<trkpt lat="40.0710158" lon="-105.2299908">
  <ele>1583.0</ele>
  <time>2026-08-28T17:55:37Z</time>
  <course>111.16</course>
  <speed>0.03</speed>
  <fix>3d</fix>
</trkpt>
<trkpt lat="40.0710163" lon="-105.2299896">
  <ele>1583.38</ele>
  <time>2026-08-28T17:55:37Z</time>
  <course>200.0</course>
  <speed>0.13601470508735444</speed>
  <fix>3d</fix>
</trkpt>
<trkpt lat="40.0710158" lon="-105.2299908">
  <ele>1583.0</ele>
  <time>2026-08-28T17:55:37Z</time>
  <course>111.16</course>
  <speed>0.03</speed>
  <fix>3d</fix>
</trkpt>
<trkpt lat="40.0710163" lon="-105.2299896">
  <ele>1583.38</ele>
  <time>2026-08-28T17:55:37Z</time>
  <course>200.04</course>
  <speed>0.13601470508735444</speed>
  <fix>3d</fix>
</trkpt>
<trkpt lat="40.0710158" lon="-105.2299907">
  <ele>1583.0</ele>
  <time>2026-08-28T17:55:37Z</time>
  <course>111.13</course>
  <speed>0.03</speed>
  <fix>3d</fix>
</trkpt>
<trkpt lat="40.0710163" lon="-105.2299895">
  <ele>1583.38</ele>
  <time>2026-08-28T17:55:37Z</time>
  <course>200.09</course>
  <speed>0.13601470508735444</speed>
  <fix>3d</fix>
</trkpt>
<trkpt lat="40.0710158" lon="-105.2299907">
  <ele>1583.0</ele>
  <time>2026-08-28T17:55:37Z</time>
  <course>111.13</course>
  <speed>0.03</speed>
  <fix>3d</fix>
</trkpt>
<trkpt lat="40.0710163" lon="-105.2299895">
  <ele>1583.38</ele>
  <time>2026-08-28T17:55:37Z</time>
  <course>200.13</course>
  <speed>0.1264911064067352</speed>
  <fix>3d</fix>
</trkpt>
<trkpt lat="40.0710158" lon="-105.2299906">
  <ele>1583.0</ele>
  <time>2026-08-28T17:55:37Z</time>
  <course>111.11</course>
  <speed>0.03</speed>
  <fix>3d</fix>
</trkpt>
<trkpt lat="40.0710163" lon="-105.2299895">
  <ele>1583.39</ele>
  <time>2026-08-28T17:55:37Z</time>
  <course>200.18</course>
  <speed>0.1264911064067352</speed>
  <fix>3d</fix>
</trkpt>
<trkpt lat="40.0710158" lon="-105.2299906">
  <ele>1583.0</ele>
  <time>2026-08-28T17:55:37Z</time>
  <course>111.11</course>
  <speed>0.03</speed>
  <fix>3d</fix>
</trkpt>
<trkpt lat="40.0710162" lon="-105.2299894">
  <ele>1583.39</ele>
  <time>2026-08-28T17:55:37Z</time>
  <course>200.23</course>
  <speed>0.1264911064067352</speed>
  <fix>3d</fix>
</trkpt>
<trkpt lat="40.0710157" lon="-105.2299905">
  <ele>1583.0</ele>
  <time>2026-08-28T17:55:37Z</time>
  <course>111.09</course>
  <speed>0.03</speed>
  <fix>3d</fix>
</trkpt>
<trkpt lat="40.0710162" lon="-105.2299894">
  <ele>1583.39</ele>
  <time>2026-08-28T17:55:37Z</time>
  <course>200.27</course>
  <speed>0.1264911064067352</speed>
  <fix>3d</fix>
</trkpt>
<trkpt lat="40.0710156" lon="-105.2299904">
  <ele>1583.0</ele>
  <time>2026-08-28T17:55:37Z</time>
  <course>111.07</course>
  <speed>0.03</speed>
  <fix>3d</fix>
</trkpt>
<trkpt lat="40.0710161" lon="-105.2299894">
  <ele>1583.39</ele>
  <time>2026-08-28T17:55:37Z</time>
  <course>200.32</course>
  <speed>0.1264911064067352</speed>
  <fix>3d</fix>
</trkpt>
<trkpt lat="40.0710156" lon="-105.2299904">
  <ele>1583.0</ele>
  <time>2026-08-28T17:55:37Z</time>
  <course>111.07</course>
  <speed>0.03</speed>
  <fix>3d</fix>
</trkpt>
<trkpt lat="40.0710161" lon="-105.2299893">
  <ele>1583.39</ele>
  <time>2026-08-28T17:55:37Z</time>
  <course>200.37</course>
  <speed>0.1264911064067352</speed>
  <fix>3d</fix>
</trkpt>
<trkpt lat="40.0710156" lon="-105.2299903">
  <ele>1583.0</ele>
  <time>2026-08-28T17:55:37Z</time>
  <course>111.05</course>
  <speed>0.03</speed>
  <fix>3d</fix>
</trkpt>
<trkpt lat="40.0710161" lon="-105.2299893">
  <ele>1583.38</ele>
  <time>2026-08-28T17:55:37Z</time>
  <course>200.41</course>
  <speed>0.1264911064067352</speed>
  <fix>3d</fix>
</trkpt>
<trkpt lat="40.0710156" lon="-105.2299903">
  <ele>1583.0</ele>
  <time>2026-08-28T17:55:37Z</time>
  <course>111.05</course>
  <speed>0.03</speed>
  <fix>3d</fix>
</trkpt>
<trkpt lat="40.0710161" lon="-105.2299893">
  <ele>1583.38</ele>
  <time>2026-08-28T17:55:37Z</time>
  <course>200.46</course>
  <speed>0.1264911064067352</speed>
  <fix>3d</fix>
</trkpt>
<trkpt lat="40.0710156" lon="-105.2299902">
  <ele>1583.0</ele>
  <time>2026-08-28T17:55:37Z</time>
  <course>111.03</course>
  <speed>0.03</speed>
  <fix>3d</fix>
</trkpt>
<trkpt lat="40.0710161" lon="-105.2299893">
  <ele>1583.38</ele>
  <time>2026-08-28T17:55:37Z</time>
  <course>200.51</course>
  <speed>0.12369316876852982</speed>
  <fix>3d</fix>
</trkpt>
<trkpt lat="40.0710156" lon="-105.2299902">
  <ele>1583.0</ele>
  <time>2026-08-28T17:55:37Z</time>
  <course>111.03</course>
  <speed>0.03</speed>
  <fix>3d</fix>
</trkpt>
<trkpt lat="40.0710161" lon="-105.2299892">
  <ele>1583.38</ele>
  <time>2026-08-28T17:55:37Z</time>
  <course>200.56</course>
  <speed>0.12369316876852982</speed>
  <fix>3d</fix>
</trkpt>
<trkpt lat="40.0710156" lon="-105.2299901">
  <ele>1583.0</ele>
  <time>2026-08-28T17:55:37Z</time>
  <course>111.02</course>
  <speed>0.03</speed>
  <fix>3d</fix>
</trkpt>
<trkpt lat="40.0710161" lon="-105.2299892">
  <ele>1583.38</ele>
  <time>2026-08-28T17:55:37Z</time>
  <course>200.6</course>
  <speed>0.12369316876852982</speed>
  <fix>3d</fix>
</trkpt>
<trkpt lat="40.0710156" lon="-105.2299901">
  <ele>1583.0</ele>
  <time>2026-08-28T17:55:37Z</time>
  <course>111.02</course>
  <speed>0.03</speed>
  <fix>3d</fix>
</trkpt>
<trkpt lat="40.0710161" lon="-105.2299891">
  <ele>1583.38</ele>
  <time>2026-08-28T17:55:37Z</time>
  <course>200.65</course>
  <speed>0.12369316876852982</speed>
  <fix>3d</fix>
</trkpt>
<trkpt lat="40.0710155" lon="-105.2299901">
  <ele>1583.0</ele>
  <time>2026-08-28T17:55:37Z</time>
  <course>111.01</course>
  <speed>0.03</speed>
  <fix>3d</fix>
</trkpt>
<trkpt lat="40.071016" lon="-105.2299891">
  <ele>1583.38</ele>
  <time>2026-08-28T17:55:37Z</time>
  <course>200.7</course>
  <speed>0.12369316876852982</speed>
  <fix>3d</fix>
</trkpt>
<trkpt lat="40.0710155" lon="-105.2299901">
  <ele>1583.0</ele>
  <time>2026-08-28T17:55:37Z</time>
  <course>111.01</course>
  <speed>0.03</speed>
  <fix>3d</fix>
</trkpt>
<trkpt lat="40.071016" lon="-105.229989">
  <ele>1583.38</ele>
  <time>2026-08-28T17:55:37Z</time>
  <course>200.75</course>
  <speed>0.12369316876852982</speed>
  <fix>3d</fix>
</trkpt>
<trkpt lat="40.0710155" lon="-105.22999">
  <ele>1583.0</ele>
  <time>2026-08-28T17:55:37Z</time>
  <course>110.99</course>
  <speed>0.03</speed>
  <fix>3d</fix>
</trkpt>
<trkpt lat="40.071016" lon="-105.229989">
  <ele>1583.37</ele>
  <time>2026-08-28T17:55:37Z</time>
  <course>200.8</course>
  <speed>0.12369316876852982</speed>
  <fix>3d</fix>
</trkpt>
<trkpt lat="40.0710155" lon="-105.22999">
  <ele>1583.0</ele>
  <time>2026-08-28T17:55:37Z</time>
  <course>110.99</course>
  <speed>0.03</speed>
  <fix>3d</fix>
</trkpt>
<trkpt lat="40.071016" lon="-105.229989">
  <ele>1583.38</ele>
  <time>2026-08-28T17:55:37Z</time>
  <course>200.85</course>
  <speed>0.12369316876852982</speed>
  <fix>3d</fix>
</trkpt>
<trkpt lat="40.0710155" lon="-105.2299899">
  <ele>1583.0</ele>
  <time>2026-08-28T17:55:37Z</time>
  <course>110.98</course>
  <speed>0.03</speed>
  <fix>3d</fix>
</trkpt>
<trkpt lat="40.071016" lon="-105.2299889">
  <ele>1583.37</ele>
  <time>2026-08-28T17:55:37Z</time>
  <course>200.9</course>
  <speed>0.11401754250991379</speed>
  <fix>3d</fix>
</trkpt>
<trkpt lat="40.0710155" lon="-105.2299899">
  <ele>1583.0</ele>
  <time>2026-08-28T17:55:37Z</time>
  <course>110.98</course>
  <speed>0.03</speed>
  <fix>3d</fix>
</trkpt>
<trkpt lat="40.0710159" lon="-105.2299889">
  <ele>1583.37</ele>
  <time>2026-08-28T17:55:37Z</time>
  <course>200.94</course>
  <speed>0.12369316876852982</speed>
  <fix>3d</fix>
</trkpt>
<trkpt lat="40.0710155" lon="-105.2299899">
  <ele>1583.0</ele>
  <time>2026-08-28T17:55:37Z</time>
  <course>110.98</course>
  <speed>0.03</speed>
  <fix>3d</fix>
</trkpt>
<trkpt lat="40.0710159" lon="-105.2299889">
  <ele>1583.37</ele>
  <time>2026-08-28T17:55:37Z</time>
  <course>200.99</course>
  <speed>0.11401754250991379</speed>
  <fix>3d</fix>
</trkpt>
<trkpt lat="40.0710155" lon="-105.2299898">
  <ele>1583.0</ele>
  <time>2026-08-28T17:55:37Z</time>
  <course>110.97</course>
  <speed>0.03</speed>
  <fix>3d</fix>
</trkpt>
<trkpt lat="40.0710159" lon="-105.2299888">
  <ele>1583.38</ele>
  <time>2026-08-28T17:55:37Z</time>
  <course>201.04</course>
  <speed>0.11401754250991379</speed>
  <fix>3d</fix>
</trkpt>
<trkpt lat="40.0710155" lon="-105.2299898">
  <ele>1583.0</ele>
  <time>2026-08-28T17:55:37Z</time>
  <course>110.97</course>
  <speed>0.03</speed>
  <fix>3d</fix>
</trkpt>
<trkpt lat="40.0710159" lon="-105.2299888">
  <ele>1583.38</ele>
  <time>2026-08-28T17:55:37Z</time>
  <course>201.09</course>
  <speed>0.11401754250991379</speed>
  <fix>3d</fix>
</trkpt>
<trkpt lat="40.0710155" lon="-105.2299897">
  <ele>1583.0</ele>
  <time>2026-08-28T17:55:37Z</time>
  <course>110.97</course>
  <speed>0.03</speed>
  <fix>3d</fix>
</trkpt>
<trkpt lat="40.0710159" lon="-105.2299887">
  <ele>1583.38</ele>
  <time>2026-08-28T17:55:37Z</time>
  <course>201.14</course>
  <speed>0.11401754250991379</speed>
  <fix>3d</fix>
</trkpt>
<trkpt lat="40.0710155" lon="-105.2299897">
  <ele>1583.0</ele>
  <time>2026-08-28T17:55:37Z</time>
  <course>110.97</course>
  <speed>0.03</speed>
  <fix>3d</fix>
</trkpt>
<trkpt lat="40.0710158" lon="-105.2299886">
  <ele>1583.39</ele>
  <time>2026-08-28T17:55:37Z</time>
  <course>201.34</course>
  <speed>0.11401754250991379</speed>
  <fix>3d</fix>
</trkpt>
<trkpt lat="40.0710154" lon="-105.2299895">
  <ele>1583.0</ele>
  <time>2026-08-28T17:55:37Z</time>
  <course>110.94</course>
  <speed>0.03</speed>
  <fix>3d</fix>
</trkpt>
<trkpt lat="40.0710158" lon="-105.2299885">
  <ele>1583.38</ele>
  <time>2026-08-28T17:55:37Z</time>
  <course>201.49</course>
  <speed>0.11401754250991379</speed>
  <fix>3d</fix>
</trkpt>
<trkpt lat="40.0710154" lon="-105.2299894">
  <ele>1583.0</ele>
  <time>2026-08-28T17:55:37Z</time>
  <course>110.94</course>
  <speed>0.03</speed>
  <fix>3d</fix>
</trkpt>
<trkpt lat="40.0710158" lon="-105.2299885">
  <ele>1583.37</ele>
  <time>2026-08-28T17:55:37Z</time>
  <course>201.55</course>
  <speed>0.11401754250991379</speed>
  <fix>3d</fix>
</trkpt>
<trkpt lat="40.0710154" lon="-105.2299893">
  <ele>1583.0</ele>
  <time>2026-08-28T17:55:37Z</time>
  <course>110.93</course>
  <speed>0.03</speed>
  <fix>3d</fix>
</trkpt>
<trkpt lat="40.0710158" lon="-105.2299884">
  <ele>1583.36</ele>
  <time>2026-08-28T17:55:37Z</time>
  <course>201.6</course>
  <speed>0.11401754250991379</speed>
  <fix>3d</fix>
</trkpt>
<trkpt lat="40.0710154" lon="-105.2299893">
  <ele>1583.0</ele>
  <time>2026-08-28T17:55:37Z</time>
  <course>110.93</course>
  <speed>0.03</speed>
  <fix>3d</fix>
</trkpt>
<trkpt lat="40.0710158" lon="-105.2299884">
  <ele>1583.35</ele>
  <time>2026-08-28T17:55:37Z</time>
  <course>201.65</course>
  <speed>0.11401754250991379</speed>
  <fix>3d</fix>
</trkpt>
<trkpt lat="40.0710154" lon="-105.2299892">
  <ele>1583.0</ele>
  <time>2026-08-28T17:55:37Z</time>
  <course>110.93</course>
  <speed>0.03</speed>
  <fix>3d</fix>
</trkpt>
<trkpt lat="40.0710158" lon="-105.2299884">
  <ele>1583.34</ele>
  <time>2026-08-28T17:55:37Z</time>
  <course>201.7</course>
  <speed>0.11401754250991379</speed>
  <fix>3d</fix>
</trkpt>
<trkpt lat="40.0710154" lon="-105.2299892">
  <ele>1583.0</ele>
  <time>2026-08-28T17:55:37Z</time>
  <course>110.93</course>
  <speed>0.03</speed>
  <fix>3d</fix>
</trkpt>
<trkpt lat="40.0710157" lon="-105.2299883">
  <ele>1583.33</ele>
  <time>2026-08-28T17:55:37Z</time>
  <course>201.81</course>
  <speed>0.1044030650891055</speed>
  <fix>3d</fix>
</trkpt>
<trkpt lat="40.0710154" lon="-105.2299891">
  <ele>1583.0</ele>
  <time>2026-08-28T17:55:37Z</time>
  <course>110.92</course>
  <speed>0.03</speed>
  <fix>3d</fix>
</trkpt>
<trkpt lat="40.0710157" lon="-105.2299882">
  <ele>1583.32</ele>
  <time>2026-08-28T17:55:37Z</time>
  <course>201.86</course>
  <speed>0.1044030650891055</speed>
  <fix>3d</fix>
</trkpt>
<trkpt lat="40.0710153" lon="-105.2299891">
  <ele>1583.0</ele>
  <time>2026-08-28T17:55:37Z</time>
  <course>110.92</course>
  <speed>0.03</speed>
  <fix>3d</fix>
</trkpt>
<trkpt lat="40.0710157" lon="-105.2299882">
  <ele>1583.31</ele>
  <time>2026-08-28T17:55:37Z</time>
  <course>201.92</course>
  <speed>0.1044030650891055</speed>
  <fix>3d</fix>
</trkpt>
<trkpt lat="40.0710153" lon="-105.2299891">
  <ele>1583.0</ele>
  <time>2026-08-28T17:55:37Z</time>
  <course>110.92</course>
  <speed>0.03</speed>
  <fix>3d</fix>
</trkpt>
<trkpt lat="40.0710157" lon="-105.2299881">
  <ele>1583.31</ele>
  <time>2026-08-28T17:55:37Z</time>
  <course>201.97</course>
  <speed>0.1044030650891055</speed>
  <fix>3d</fix>
</trkpt>
<trkpt lat="40.0710153" lon="-105.229989">
  <ele>1583.0</ele>
  <time>2026-08-28T17:55:37Z</time>
  <course>110.92</course>
  <speed>0.03</speed>
  <fix>3d</fix>
</trkpt>
<trkpt lat="40.0710157" lon="-105.2299881">
  <ele>1583.3</ele>
  <time>2026-08-28T17:55:37Z</time>
  <course>202.02</course>
  <speed>0.1044030650891055</speed>
  <fix>3d</fix>
</trkpt>
<trkpt lat="40.0710153" lon="-105.229989">
  <ele>1583.0</ele>
  <time>2026-08-28T17:55:37Z</time>
  <course>110.92</course>
  <speed>0.03</speed>
  <fix>3d</fix>
</trkpt>
<trkpt lat="40.0710157" lon="-105.2299881">
  <ele>1583.29</ele>
  <time>2026-08-28T17:55:37Z</time>
  <course>202.07</course>
  <speed>0.1044030650891055</speed>
  <fix>3d</fix>
</trkpt>
<trkpt lat="40.0710153" lon="-105.2299889">
  <ele>1583.0</ele>
  <time>2026-08-28T17:55:37Z</time>
  <course>110.91</course>
  <speed>0.03</speed>
  <fix>3d</fix>
</trkpt>
<trkpt lat="40.0710157" lon="-105.2299881">
  <ele>1583.29</ele>
  <time>2026-08-28T17:55:37Z</time>
  <course>202.13</course>
  <speed>0.1044030650891055</speed>
  <fix>3d</fix>
</trkpt>
<trkpt lat="40.0710153" lon="-105.2299889">
  <ele>1583.0</ele>
  <time>2026-08-28T17:55:37Z</time>
  <course>110.91</course>
  <speed>0.03</speed>
  <fix>3d</fix>
</trkpt>
<trkpt lat="40.0710157" lon="-105.229988">
  <ele>1583.28</ele>
  <time>2026-08-28T17:55:37Z</time>
  <course>202.18</course>
  <speed>0.1044030650891055</speed>
  <fix>3d</fix>
</trkpt>
<trkpt lat="40.0710153" lon="-105.2299888">
  <ele>1583.0</ele>
  <time>2026-08-28T17:55:37Z</time>
  <course>110.91</course>
  <speed>0.03</speed>
  <fix>3d</fix>
</trkpt>
<trkpt lat="40.0710157" lon="-105.229988">
  <ele>1583.28</ele>
  <time>2026-08-28T17:55:37Z</time>
  <course>202.23</course>
  <speed>0.1044030650891055</speed>
  <fix>3d</fix>
</trkpt>
<trkpt lat="40.0710153" lon="-105.2299888">
  <ele>1583.0</ele>
  <time>2026-08-28T17:55:37Z</time>
  <course>110.91</course>
  <speed>0.03</speed>
  <fix>3d</fix>
</trkpt>
<trkpt lat="40.0710157" lon="-105.2299879">
  <ele>1583.27</ele>
  <time>2026-08-28T17:55:37Z</time>
  <course>202.28</course>
  <speed>0.1044030650891055</speed>
  <fix>3d</fix>
</trkpt>
<trkpt lat="40.0710152" lon="-105.2299887">
  <ele>1583.0</ele>
  <time>2026-08-28T17:55:37Z</time>
  <course>110.91</course>
  <speed>0.03</speed>
  <fix>3d</fix>
</trkpt>
<trkpt lat="40.0710156" lon="-105.2299879">
  <ele>1583.26</ele>
  <time>2026-08-28T17:55:37Z</time>
  <course>202.33</course>
  <speed>0.1044030650891055</speed>
  <fix>3d</fix>
</trkpt>
<trkpt lat="40.0710152" lon="-105.2299887">
  <ele>1583.0</ele>
  <time>2026-08-28T17:55:37Z</time>
  <course>110.91</course>
  <speed>0.03</speed>
  <fix>3d</fix>
</trkpt>
<trkpt lat="40.0710156" lon="-105.2299879">
  <ele>1583.26</ele>
  <time>2026-08-28T17:55:37Z</time>
  <course>202.38</course>
  <speed>0.1044030650891055</speed>
  <fix>3d</fix>
</trkpt>
<trkpt lat="40.0710152" lon="-105.2299886">
  <ele>1583.0</ele>
  <time>2026-08-28T17:55:37Z</time>
  <course>110.9</course>
  <speed>0.03</speed>
  <fix>3d</fix>
</trkpt>
<trkpt lat="40.0710156" lon="-105.2299879">
  <ele>1583.25</ele>
  <time>2026-08-28T17:55:37Z</time>
  <course>202.43</course>
  <speed>0.1044030650891055</speed>
  <fix>3d</fix>
</trkpt>
<trkpt lat="40.0710152" lon="-105.2299886">
  <ele>1583.0</ele>
  <time>2026-08-28T17:55:37Z</time>
  <course>110.9</course>
  <speed>0.03</speed>
  <fix>3d</fix>
</trkpt>
<trkpt lat="40.0710156" lon="-105.2299878">
  <ele>1583.25</ele>
  <time>2026-08-28T17:55:37Z</time>
  <course>202.49</course>
  <speed>0.1044030650891055</speed>
  <fix>3d</fix>
</trkpt>
<trkpt lat="40.0710152" lon="-105.2299886">
  <ele>1583.0</ele>
  <time>2026-08-28T17:55:37Z</time>
  <course>110.9</course>
  <speed>0.03</speed>
  <fix>3d</fix>
</trkpt>
<trkpt lat="40.0710156" lon="-105.2299878">
  <ele>1583.24</ele>
  <time>2026-08-28T17:55:37Z</time>
  <course>202.54</course>
  <speed>0.1044030650891055</speed>
  <fix>3d</fix>
</trkpt>
<trkpt lat="40.0710152" lon="-105.2299886">
  <ele>1583.0</ele>
  <time>2026-08-28T17:55:37Z</time>
  <course>110.9</course>
  <speed>0.03</speed>
  <fix>3d</fix>
</trkpt>
<trkpt lat="40.0710156" lon="-105.2299877">
  <ele>1583.24</ele>
  <time>2026-08-28T17:55:37Z</time>
  <course>202.6</course>
  <speed>0.1044030650891055</speed>
  <fix>3d</fix>
</trkpt>
<trkpt lat="40.0710152" lon="-105.2299885">
  <ele>1583.0</ele>
  <time>2026-08-28T17:55:37Z</time>
  <course>110.9</course>
  <speed>0.03</speed>
  <fix>3d</fix>
</trkpt>
<trkpt lat="40.0710156" lon="-105.2299877">
  <ele>1583.24</ele>
  <time>2026-08-28T17:55:37Z</time>
  <course>202.65</course>
  <speed>0.1044030650891055</speed>
  <fix>3d</fix>
</trkpt>
<trkpt lat="40.0710152" lon="-105.2299885">
  <ele>1583.0</ele>
  <time>2026-08-28T17:55:37Z</time>
  <course>110.9</course>
  <speed>0.03</speed>
  <fix>3d</fix>
</trkpt>
<trkpt lat="40.0710156" lon="-105.2299877">
  <ele>1583.24</ele>
  <time>2026-08-28T17:55:37Z</time>
  <course>202.7</course>
  <speed>0.1044030650891055</speed>
  <fix>3d</fix>
</trkpt>
<trkpt lat="40.0710151" lon="-105.2299884">
  <ele>1583.0</ele>
  <time>2026-08-28T17:55:37Z</time>
  <course>110.9</course>
  <speed>0.03</speed>
  <fix>3d</fix>
</trkpt>
<trkpt lat="40.0710155" lon="-105.2299876">
  <ele>1583.24</ele>
  <time>2026-08-28T17:55:37Z</time>
  <course>202.76</course>
  <speed>0.09486832980505139</speed>
  <fix>3d</fix>
</trkpt>
<trkpt lat="40.0710151" lon="-105.2299884">
  <ele>1583.0</ele>
  <time>2026-08-28T17:55:37Z</time>
  <course>110.9</course>
  <speed>0.03</speed>
  <fix>3d</fix>
</trkpt>
<trkpt lat="40.0710155" lon="-105.2299876">
  <ele>1583.24</ele>
  <time>2026-08-28T17:55:37Z</time>
  <course>202.81</course>
  <speed>0.09486832980505139</speed>
  <fix>3d</fix>
</trkpt>
<trkpt lat="40.071015" lon="-105.2299883">
  <ele>1583.0</ele>
  <time>2026-08-28T17:55:37Z</time>
  <course>110.9</course>
  <speed>0.03</speed>
  <fix>3d</fix>
</trkpt>
<trkpt lat="40.0710155" lon="-105.2299876">
  <ele>1583.25</ele>
  <time>2026-08-28T17:55:37Z</time>
  <course>202.88</course>
  <speed>0.09486832980505139</speed>
  <fix>3d</fix>
</trkpt>
<trkpt lat="40.071015" lon="-105.2299883">
  <ele>1583.0</ele>
  <time>2026-08-28T17:55:37Z</time>
  <course>110.9</course>
  <speed>0.03</speed>
  <fix>3d</fix>
</trkpt>
<trkpt lat="40.0710155" lon="-105.2299875">
  <ele>1583.25</ele>
  <time>2026-08-28T17:55:37Z</time>
  <course>202.93</course>
  <speed>0.09486832980505139</speed>
  <fix>3d</fix>
</trkpt>
<trkpt lat="40.071015" lon="-105.2299882">
  <ele>1583.0</ele>
  <time>2026-08-28T17:55:37Z</time>
  <course>110.9</course>
  <speed>0.03</speed>
  <fix>3d</fix>
</trkpt>
<trkpt lat="40.0710155" lon="-105.2299875">
  <ele>1583.25</ele>
  <time>2026-08-28T17:55:37Z</time>
  <course>202.99</course>
  <speed>0.09486832980505139</speed>
  <fix>3d</fix>
</trkpt>
<trkpt lat="40.071015" lon="-105.2299882">
  <ele>1583.0</ele>
  <time>2026-08-28T17:55:37Z</time>
  <course>110.9</course>
  <speed>0.03</speed>
  <fix>3d</fix>
</trkpt>
<trkpt lat="40.0710154" lon="-105.2299874">
  <ele>1583.25</ele>
  <time>2026-08-28T17:55:37Z</time>
  <course>203.04</course>
  <speed>0.09486832980505139</speed>
  <fix>3d</fix>
</trkpt>
<trkpt lat="40.071015" lon="-105.2299881">
  <ele>1583.0</ele>
  <time>2026-08-28T17:55:37Z</time>
  <course>110.9</course>
  <speed>0.03</speed>
  <fix>3d</fix>
</trkpt>
<trkpt lat="40.0710154" lon="-105.2299874">
  <ele>1583.25</ele>
  <time>2026-08-28T17:55:37Z</time>
  <course>203.09</course>
  <speed>0.09219544457292887</speed>
  <fix>3d</fix>
</trkpt>
<trkpt lat="40.071015" lon="-105.2299881">
  <ele>1583.0</ele>
  <time>2026-08-28T17:55:37Z</time>
  <course>110.9</course>
  <speed>0.03</speed>
  <fix>3d</fix>
</trkpt>
<trkpt lat="40.0710154" lon="-105.2299874">
  <ele>1583.25</ele>
  <time>2026-08-28T17:55:37Z</time>
  <course>203.15</course>
  <speed>0.09219544457292887</speed>
  <fix>3d</fix>
</trkpt>
<trkpt lat="40.071015" lon="-105.2299881">
  <ele>1583.0</ele>
  <time>2026-08-28T17:55:37Z</time>
  <course>110.89</course>
  <speed>0.03</speed>
  <fix>3d</fix>
</trkpt>
<trkpt lat="40.0710154" lon="-105.2299873">
  <ele>1583.25</ele>
  <time>2026-08-28T17:55:37Z</time>
  <course>203.2</course>
  <speed>0.09219544457292887</speed>
  <fix>3d</fix>
</trkpt>
<trkpt lat="40.071015" lon="-105.2299881">
  <ele>1583.0</ele>
  <time>2026-08-28T17:55:37Z</time>
  <course>110.89</course>
  <speed>0.03</speed>
  <fix>3d</fix>
</trkpt>
<trkpt lat="40.0710154" lon="-105.2299873">
  <ele>1583.24</ele>
  <time>2026-08-28T17:55:37Z</time>
  <course>203.26</course>
  <speed>0.09219544457292887</speed>
  <fix>3d</fix>
</trkpt>
<trkpt lat="40.0710149" lon="-105.229988">
  <ele>1583.0</ele>
  <time>2026-08-28T17:55:37Z</time>
  <course>110.89</course>
  <speed>0.03</speed>
  <fix>3d</fix>
</trkpt>
<trkpt lat="40.0710153" lon="-105.2299871">
  <ele>1583.22</ele>
  <time>2026-08-28T17:55:37Z</time>
  <course>203.47</course>
  <speed>0.09219544457292887</speed>
  <fix>3d</fix>
</trkpt>
<trkpt lat="40.0710149" lon="-105.2299878">
  <ele>1583.0</ele>
  <time>2026-08-28T17:55:37Z</time>
  <course>110.89</course>
  <speed>0.03</speed>
  <fix>3d</fix>
</trkpt>
<trkpt lat="40.0710152" lon="-105.2299871">
  <ele>1583.2</ele>
  <time>2026-08-28T17:55:37Z</time>
  <course>203.64</course>
  <speed>0.09219544457292887</speed>
  <fix>3d</fix>
</trkpt>
<trkpt lat="40.0710149" lon="-105.2299877">
  <ele>1583.0</ele>
  <time>2026-08-28T17:55:37Z</time>
  <course>110.89</course>
  <speed>0.03</speed>
  <fix>3d</fix>
</trkpt>
<trkpt lat="40.0710152" lon="-105.229987">
  <ele>1583.2</ele>
  <time>2026-08-28T17:55:37Z</time>
  <course>203.69</course>
  <speed>0.09219544457292887</speed>
  <fix>3d</fix>
</trkpt>
<trkpt lat="40.0710149" lon="-105.2299876">
  <ele>1583.0</ele>
  <time>2026-08-28T17:55:37Z</time>
  <course>110.89</course>
  <speed>0.03</speed>
  <fix>3d</fix>
</trkpt>
<trkpt lat="40.0710152" lon="-105.229987">
  <ele>1583.19</ele>
  <time>2026-08-28T17:55:37Z</time>
  <course>203.75</course>
  <speed>0.09219544457292887</speed>
  <fix>3d</fix>
</trkpt>
<trkpt lat="40.0710149" lon="-105.2299876">
  <ele>1583.0</ele>
  <time>2026-08-28T17:55:37Z</time>
  <course>110.89</course>
  <speed>0.03</speed>
  <fix>3d</fix>
</trkpt>
<trkpt lat="40.0710152" lon="-105.2299869">
  <ele>1583.18</ele>
  <time>2026-08-28T17:55:37Z</time>
  <course>203.81</course>
  <speed>0.09219544457292887</speed>
  <fix>3d</fix>
</trkpt>
<trkpt lat="40.0710149" lon="-105.2299876">
  <ele>1583.0</ele>
  <time>2026-08-28T17:55:37Z</time>
  <course>110.89</course>
  <speed>0.03</speed>
  <fix>3d</fix>
</trkpt>
<trkpt lat="40.0710152" lon="-105.2299869">
  <ele>1583.17</ele>
  <time>2026-08-28T17:55:37Z</time>
  <course>203.92</course>
  <speed>0.09219544457292887</speed>
  <fix>3d</fix>
</trkpt>
<trkpt lat="40.0710149" lon="-105.2299875">
  <ele>1583.0</ele>
  <time>2026-08-28T17:55:37Z</time>
  <course>110.89</course>
  <speed>0.03</speed>
  <fix>3d</fix>
</trkpt>
<trkpt lat="40.0710152" lon="-105.2299868">
  <ele>1583.17</ele>
  <time>2026-08-28T17:55:37Z</time>
  <course>203.97</course>
  <speed>0.0824621125123532</speed>
  <fix>3d</fix>
</trkpt>
<trkpt lat="40.0710149" lon="-105.2299875">
  <ele>1583.0</ele>
  <time>2026-08-28T17:55:37Z</time>
  <course>110.89</course>
  <speed>0.03</speed>
  <fix>3d</fix>
</trkpt>
<trkpt lat="40.0710152" lon="-105.2299868">
  <ele>1583.16</ele>
  <time>2026-08-28T17:55:37Z</time>
  <course>204.04</course>
  <speed>0.0824621125123532</speed>
  <fix>3d</fix>
</trkpt>
<trkpt lat="40.0710148" lon="-105.2299874">
  <ele>1583.0</ele>
  <time>2026-08-28T17:55:37Z</time>
  <course>110.89</course>
  <speed>0.03</speed>
  <fix>3d</fix>
</trkpt>
<trkpt lat="40.0710152" lon="-105.2299868">
  <ele>1583.15</ele>
  <time>2026-08-28T17:55:37Z</time>
  <course>204.1</course>
  <speed>0.0824621125123532</speed>
  <fix>3d</fix>
</trkpt>
<trkpt lat="40.0710148" lon="-105.2299874">
  <ele>1583.0</ele>
  <time>2026-08-28T17:55:37Z</time>
  <course>110.89</course>
  <speed>0.03</speed>
  <fix>3d</fix>
</trkpt>
<trkpt lat="40.0710151" lon="-105.2299867">
  <ele>1583.15</ele>
  <time>2026-08-28T17:55:37Z</time>
  <course>204.15</course>
  <speed>0.0824621125123532</speed>
  <fix>3d</fix>
</trkpt>
<trkpt lat="40.0710148" lon="-105.2299873">
  <ele>1583.0</ele>
  <time>2026-08-28T17:55:37Z</time>
  <course>110.89</course>
  <speed>0.03</speed>
  <fix>3d</fix>
</trkpt>
<trkpt lat="40.0710151" lon="-105.2299867">
  <ele>1583.15</ele>
  <time>2026-08-28T17:55:37Z</time>
  <course>204.21</course>
  <speed>0.0824621125123532</speed>
  <fix>3d</fix>
</trkpt>
<trkpt lat="40.0710148" lon="-105.2299873">
  <ele>1583.0</ele>
  <time>2026-08-28T17:55:37Z</time>
  <course>110.89</course>
  <speed>0.03</speed>
  <fix>3d</fix>
</trkpt>
<trkpt lat="40.0710151" lon="-105.2299866">
  <ele>1583.15</ele>
  <time>2026-08-28T17:55:37Z</time>
  <course>204.27</course>
  <speed>0.0824621125123532</speed>
  <fix>3d</fix>
</trkpt>
<trkpt lat="40.0710148" lon="-105.2299872">
  <ele>1583.0</ele>
  <time>2026-08-28T17:55:37Z</time>
  <course>110.89</course>
  <speed>0.03</speed>
  <fix>3d</fix>
</trkpt>
<trkpt lat="40.0710151" lon="-105.2299866">
  <ele>1583.15</ele>
  <time>2026-08-28T17:55:37Z</time>
  <course>204.32</course>
  <speed>0.0824621125123532</speed>
  <fix>3d</fix>
</trkpt>
<trkpt lat="40.0710148" lon="-105.2299872">
  <ele>1583.0</ele>
  <time>2026-08-28T17:55:37Z</time>
  <course>110.89</course>
  <speed>0.03</speed>
  <fix>3d</fix>
</trkpt>
<trkpt lat="40.0710151" lon="-105.2299865">
  <ele>1583.15</ele>
  <time>2026-08-28T17:55:37Z</time>
  <course>204.38</course>
  <speed>0.0824621125123532</speed>
  <fix>3d</fix>
</trkpt>
<trkpt lat="40.0710148" lon="-105.2299871">
  <ele>1583.0</ele>
  <time>2026-08-28T17:55:37Z</time>
  <course>110.89</course>
  <speed>0.03</speed>
  <fix>3d</fix>
</trkpt>
<trkpt lat="40.0710151" lon="-105.2299865">
  <ele>1583.15</ele>
  <time>2026-08-28T17:55:37Z</time>
  <course>204.44</course>
  <speed>0.0824621125123532</speed>
  <fix>3d</fix>
</trkpt>
<trkpt lat="40.0710148" lon="-105.2299871">
  <ele>1583.0</ele>
  <time>2026-08-28T17:55:37Z</time>
  <course>110.89</course>
  <speed>0.03</speed>
  <fix>3d</fix>
</trkpt>
<trkpt lat="40.0710151" lon="-105.2299865">
  <ele>1583.15</ele>
  <time>2026-08-28T17:55:37Z</time>
  <course>204.49</course>
  <speed>0.0824621125123532</speed>
  <fix>3d</fix>
</trkpt>
<trkpt lat="40.0710147" lon="-105.229987">
  <ele>1583.0</ele>
  <time>2026-08-28T17:55:37Z</time>
  <course>110.89</course>
  <speed>0.03</speed>
  <fix>3d</fix>
</trkpt>
<trkpt lat="40.0710151" lon="-105.2299864">
  <ele>1583.16</ele>
  <time>2026-08-28T17:55:37Z</time>
  <course>204.55</course>
  <speed>0.0824621125123532</speed>
  <fix>3d</fix>
</trkpt>
<trkpt lat="40.0710147" lon="-105.229987">
  <ele>1583.0</ele>
  <time>2026-08-28T17:55:37Z</time>
  <course>110.89</course>
  <speed>0.03</speed>
  <fix>3d</fix>
</trkpt>
<trkpt lat="40.0710151" lon="-105.2299864">
  <ele>1583.16</ele>
  <time>2026-08-28T17:55:37Z</time>
  <course>204.61</course>
  <speed>0.0824621125123532</speed>
  <fix>3d</fix>
</trkpt>
<trkpt lat="40.0710147" lon="-105.229987">
  <ele>1583.0</ele>
  <time>2026-08-28T17:55:37Z</time>
  <course>110.89</course>
  <speed>0.03</speed>
  <fix>3d</fix>
</trkpt>
<trkpt lat="40.071015" lon="-105.2299864">
  <ele>1583.16</ele>
  <time>2026-08-28T17:55:37Z</time>
  <course>204.66</course>
  <speed>0.0824621125123532</speed>
  <fix>3d</fix>
</trkpt>
<trkpt lat="40.0710147" lon="-105.229987">
  <ele>1583.0</ele>
  <time>2026-08-28T17:55:37Z</time>
  <course>110.89</course>
  <speed>0.03</speed>
  <fix>3d</fix>
</trkpt>
<trkpt lat="40.071015" lon="-105.2299863">
  <ele>1583.16</ele>
  <time>2026-08-28T17:55:37Z</time>
  <course>204.71</course>
  <speed>0.0824621125123532</speed>
  <fix>3d</fix>
</trkpt>
<trkpt lat="40.0710147" lon="-105.2299869">
  <ele>1583.0</ele>
  <time>2026-08-28T17:55:37Z</time>
  <course>110.89</course>
  <speed>0.03</speed>
  <fix>3d</fix>
</trkpt>
<trkpt lat="40.071015" lon="-105.2299863">
  <ele>1583.16</ele>
  <time>2026-08-28T17:55:37Z</time>
  <course>204.77</course>
  <speed>0.0824621125123532</speed>
  <fix>3d</fix>
</trkpt>
<trkpt lat="40.0710147" lon="-105.2299869">
  <ele>1583.0</ele>
  <time>2026-08-28T17:55:37Z</time>
  <course>110.89</course>
  <speed>0.03</speed>
  <fix>3d</fix>
</trkpt>
<trkpt lat="40.071015" lon="-105.2299863">
  <ele>1583.16</ele>
  <time>2026-08-28T17:55:37Z</time>
  <course>204.83</course>
  <speed>0.0824621125123532</speed>
  <fix>3d</fix>
</trkpt>
<trkpt lat="40.0710147" lon="-105.2299868">
  <ele>1583.0</ele>
  <time>2026-08-28T17:55:37Z</time>
  <course>110.89</course>
  <speed>0.03</speed>
  <fix>3d</fix>
</trkpt>
<trkpt lat="40.071015" lon="-105.2299862">
  <ele>1583.16</ele>
  <time>2026-08-28T17:55:37Z</time>
  <course>204.88</course>
  <speed>0.0824621125123532</speed>
  <fix>3d</fix>
</trkpt>
<trkpt lat="40.0710147" lon="-105.2299868">
  <ele>1583.0</ele>
  <time>2026-08-28T17:55:37Z</time>
  <course>110.89</course>
  <speed>0.03</speed>
  <fix>3d</fix>
</trkpt>
<trkpt lat="40.071015" lon="-105.2299862">
  <ele>1583.15</ele>
  <time>2026-08-28T17:55:37Z</time>
  <course>204.94</course>
  <speed>0.0824621125123532</speed>
  <fix>3d</fix>
</trkpt>
<trkpt lat="40.0710146" lon="-105.2299867">
  <ele>1583.0</ele>
  <time>2026-08-28T17:55:37Z</time>
  <course>110.89</course>
  <speed>0.03</speed>
  <fix>3d</fix>
</trkpt>
<trkpt lat="40.071015" lon="-105.2299862">
  <ele>1583.15</ele>
  <time>2026-08-28T17:55:37Z</time>
  <course>205.0</course>
  <speed>0.0824621125123532</speed>
  <fix>3d</fix>
</trkpt>
<trkpt lat="40.0710146" lon="-105.2299867">
  <ele>1583.0</ele>
  <time>2026-08-28T17:55:37Z</time>
  <course>110.89</course>
  <speed>0.03</speed>
  <fix>3d</fix>
</trkpt>
<trkpt lat="40.071015" lon="-105.2299861">
  <ele>1583.14</ele>
  <time>2026-08-28T17:55:37Z</time>
  <course>205.06</course>
  <speed>0.0824621125123532</speed>
  <fix>3d</fix>
</trkpt>
<trkpt lat="40.0710146" lon="-105.2299866">
  <ele>1583.0</ele>
  <time>2026-08-28T17:55:37Z</time>
  <course>110.89</course>
  <speed>0.03</speed>
  <fix>3d</fix>
</trkpt>
<trkpt lat="40.0710149" lon="-105.2299861">
  <ele>1583.14</ele>
  <time>2026-08-28T17:55:37Z</time>
  <course>205.12</course>
  <speed>0.0824621125123532</speed>
  <fix>3d</fix>
</trkpt>
<trkpt lat="40.0710146" lon="-105.2299866">
  <ele>1583.0</ele>
  <time>2026-08-28T17:55:37Z</time>
  <course>110.89</course>
  <speed>0.03</speed>
  <fix>3d</fix>
</trkpt>
<trkpt lat="40.0710149" lon="-105.229986">
  <ele>1583.13</ele>
  <time>2026-08-28T17:55:37Z</time>
  <course>205.17</course>
  <speed>0.0824621125123532</speed>
  <fix>3d</fix>
</trkpt>
<trkpt lat="40.0710146" lon="-105.2299865">
  <ele>1583.0</ele>
  <time>2026-08-28T17:55:37Z</time>
  <course>110.89</course>
  <speed>0.03</speed>
  <fix>3d</fix>
</trkpt>
<trkpt lat="40.0710149" lon="-105.229986">
  <ele>1583.13</ele>
  <time>2026-08-28T17:55:37Z</time>
  <course>205.24</course>
  <speed>0.0824621125123532</speed>
  <fix>3d</fix>
</trkpt>
<trkpt lat="40.0710146" lon="-105.2299865">
  <ele>1583.0</ele>
  <time>2026-08-28T17:55:37Z</time>
  <course>110.89</course>
  <speed>0.03</speed>
  <fix>3d</fix>
</trkpt>
<trkpt lat="40.0710149" lon="-105.2299859">
  <ele>1583.13</ele>
  <time>2026-08-28T17:55:37Z</time>
  <course>205.3</course>
  <speed>0.0824621125123532</speed>
  <fix>3d</fix>
</trkpt>
<trkpt lat="40.0710146" lon="-105.2299865">
  <ele>1583.0</ele>
  <time>2026-08-28T17:55:37Z</time>
  <course>110.88</course>
  <speed>0.03</speed>
  <fix>3d</fix>
</trkpt>
<trkpt lat="40.0710149" lon="-105.2299859">
  <ele>1583.13</ele>
  <time>2026-08-28T17:55:37Z</time>
  <course>205.36</course>
  <speed>0.0824621125123532</speed>
  <fix>3d</fix>
</trkpt>
<trkpt lat="40.0710146" lon="-105.2299865">
  <ele>1583.0</ele>
  <time>2026-08-28T17:55:37Z</time>
  <course>110.88</course>
  <speed>0.03</speed>
  <fix>3d</fix>
</trkpt>
<trkpt lat="40.0710149" lon="-105.2299859">
  <ele>1583.13</ele>
  <time>2026-08-28T17:55:37Z</time>
  <course>205.41</course>
  <speed>0.0824621125123532</speed>
  <fix>3d</fix>
</trkpt>
<trkpt lat="40.0710145" lon="-105.2299864">
  <ele>1583.0</ele>
  <time>2026-08-28T17:55:37Z</time>
  <course>110.88</course>
  <speed>0.03</speed>
  <fix>3d</fix>
</trkpt>
<trkpt lat="40.0710149" lon="-105.2299858">
  <ele>1583.14</ele>
  <time>2026-08-28T17:55:37Z</time>
  <course>205.47</course>
  <speed>0.0824621125123532</speed>
  <fix>3d</fix>
</trkpt>
<trkpt lat="40.0710145" lon="-105.2299864">
  <ele>1583.0</ele>
  <time>2026-08-28T17:55:37Z</time>
  <course>110.88</course>
  <speed>0.03</speed>
  <fix>3d</fix>
</trkpt>
<trkpt lat="40.0710149" lon="-105.2299858">
  <ele>1583.14</ele>
  <time>2026-08-28T17:55:37Z</time>
  <course>205.53</course>
  <speed>0.0824621125123532</speed>
  <fix>3d</fix>
</trkpt>
<trkpt lat="40.0710144" lon="-105.2299863">
  <ele>1583.0</ele>
  <time>2026-08-28T17:55:37Z</time>
  <course>110.88</course>
  <speed>0.03</speed>
  <fix>3d</fix>
</trkpt>
<trkpt lat="40.0710148" lon="-105.2299857">
  <ele>1583.15</ele>
  <time>2026-08-28T17:55:37Z</time>
  <course>205.59</course>
  <speed>0.0824621125123532</speed>
  <fix>3d</fix>
</trkpt>
<trkpt lat="40.0710144" lon="-105.2299863">
  <ele>1583.0</ele>
  <time>2026-08-28T17:55:37Z</time>
  <course>110.88</course>
  <speed>0.03</speed>
  <fix>3d</fix>
</trkpt>
<trkpt lat="40.0710148" lon="-105.2299857">
  <ele>1583.15</ele>
  <time>2026-08-28T17:55:37Z</time>
  <course>205.65</course>
  <speed>0.0824621125123532</speed>
  <fix>3d</fix>
</trkpt>
<trkpt lat="40.0710144" lon="-105.2299862">
  <ele>1583.0</ele>
  <time>2026-08-28T17:55:37Z</time>
  <course>110.88</course>
  <speed>0.03</speed>
  <fix>3d</fix>
</trkpt>
<trkpt lat="40.0710148" lon="-105.2299857">
  <ele>1583.16</ele>
  <time>2026-08-28T17:55:37Z</time>
  <course>205.7</course>
  <speed>0.07280109889280519</speed>
  <fix>3d</fix>
</trkpt>
<trkpt lat="40.0710144" lon="-105.2299862">
  <ele>1583.0</ele>
  <time>2026-08-28T17:55:37Z</time>
  <course>110.88</course>
  <speed>0.03</speed>
  <fix>3d</fix>
</trkpt>
<trkpt lat="40.0710148" lon="-105.2299856">
  <ele>1583.17</ele>
  <time>2026-08-28T17:55:37Z</time>
  <course>205.76</course>
  <speed>0.07280109889280519</speed>
  <fix>3d</fix>
</trkpt>
<trkpt lat="40.0710144" lon="-105.2299861">
  <ele>1583.0</ele>
  <time>2026-08-28T17:55:37Z</time>
  <course>110.88</course>
  <speed>0.03</speed>
  <fix>3d</fix>
</trkpt>
<trkpt lat="40.0710148" lon="-105.2299856">
  <ele>1583.17</ele>
  <time>2026-08-28T17:55:37Z</time>
  <course>205.82</course>
  <speed>0.07280109889280519</speed>
  <fix>3d</fix>
</trkpt>
<trkpt lat="40.0710144" lon="-105.2299861">
  <ele>1583.0</ele>
  <time>2026-08-28T17:55:37Z</time>
  <course>110.88</course>
  <speed>0.03</speed>
  <fix>3d</fix>
</trkpt>
<trkpt lat="40.0710148" lon="-105.2299856">
  <ele>1583.18</ele>
  <time>2026-08-28T17:55:37Z</time>
  <course>205.87</course>
  <speed>0.07280109889280519</speed>
  <fix>3d</fix>
</trkpt>
<trkpt lat="40.0710144" lon="-105.229986">
  <ele>1583.0</ele>
  <time>2026-08-28T17:55:37Z</time>
  <course>110.88</course>
  <speed>0.03</speed>
  <fix>3d</fix>
</trkpt>
<trkpt lat="40.0710147" lon="-105.2299855">
  <ele>1583.18</ele>
  <time>2026-08-28T17:55:37Z</time>
  <course>205.93</course>
  <speed>0.07280109889280519</speed>
  <fix>3d</fix>
</trkpt>
<trkpt lat="40.0710144" lon="-105.229986">
  <ele>1583.0</ele>
  <time>2026-08-28T17:55:37Z</time>
  <course>110.88</course>
  <speed>0.03</speed>
  <fix>3d</fix>
</trkpt>
<trkpt lat="40.0710147" lon="-105.2299855">
  <ele>1583.18</ele>
  <time>2026-08-28T17:55:37Z</time>
  <course>205.98</course>
  <speed>0.07280109889280519</speed>
  <fix>3d</fix>
</trkpt>
<trkpt lat="40.0710143" lon="-105.229986">
  <ele>1583.0</ele>
  <time>2026-08-28T17:55:37Z</time>
  <course>110.88</course>
  <speed>0.03</speed>
  <fix>3d</fix>
</trkpt>
<trkpt lat="40.0710147" lon="-105.2299855">
  <ele>1583.18</ele>
  <time>2026-08-28T17:55:37Z</time>
  <course>206.04</course>
  <speed>0.07280109889280519</speed>
  <fix>3d</fix>
</trkpt>
<trkpt lat="40.0710143" lon="-105.229986">
  <ele>1583.0</ele>
  <time>2026-08-28T17:55:37Z</time>
  <course>110.88</course>
  <speed>0.03</speed>
  <fix>3d</fix>
</trkpt>
<trkpt lat="40.0710147" lon="-105.2299854">
  <ele>1583.19</ele>
  <time>2026-08-28T17:55:37Z</time>
  <course>206.1</course>
  <speed>0.07280109889280519</speed>
  <fix>3d</fix>
</trkpt>
<trkpt lat="40.0710143" lon="-105.2299859">
  <ele>1583.0</ele>
  <time>2026-08-28T17:55:37Z</time>
  <course>110.88</course>
  <speed>0.03</speed>
  <fix>3d</fix>
</trkpt>
<trkpt lat="40.0710147" lon="-105.2299854">
  <ele>1583.19</ele>
  <time>2026-08-28T17:55:37Z</time>
  <course>206.16</course>
  <speed>0.07280109889280519</speed>
  <fix>3d</fix>
</trkpt>
<trkpt lat="40.0710143" lon="-105.2299859">
  <ele>1583.0</ele>
  <time>2026-08-28T17:55:37Z</time>
  <course>110.88</course>
  <speed>0.03</speed>
  <fix>3d</fix>
</trkpt>
<trkpt lat="40.0710146" lon="-105.2299853">
  <ele>1583.19</ele>
  <time>2026-08-28T17:55:37Z</time>
  <course>206.22</course>
  <speed>0.07280109889280519</speed>
  <fix>3d</fix>
</trkpt>
<trkpt lat="40.0710143" lon="-105.2299858">
  <ele>1583.0</ele>
  <time>2026-08-28T17:55:37Z</time>
  <course>110.88</course>
  <speed>0.03</speed>
  <fix>3d</fix>
</trkpt>
<trkpt lat="40.0710146" lon="-105.2299853">
  <ele>1583.2</ele>
  <time>2026-08-28T17:55:37Z</time>
  <course>206.27</course>
  <speed>0.07280109889280519</speed>
  <fix>3d</fix>
</trkpt>
<trkpt lat="40.0710143" lon="-105.2299858">
  <ele>1583.0</ele>
  <time>2026-08-28T17:55:37Z</time>
  <course>110.88</course>
  <speed>0.03</speed>
  <fix>3d</fix>
</trkpt>
<trkpt lat="40.0710146" lon="-105.2299853">
  <ele>1583.2</ele>
  <time>2026-08-28T17:55:37Z</time>
  <course>206.33</course>
  <speed>0.07280109889280519</speed>
  <fix>3d</fix>
</trkpt>
<trkpt lat="40.0710143" lon="-105.2299857">
  <ele>1583.0</ele>
  <time>2026-08-28T17:55:37Z</time>
  <course>110.88</course>
  <speed>0.03</speed>
  <fix>3d</fix>
</trkpt>
<trkpt lat="40.0710146" lon="-105.2299852">
  <ele>1583.21</ele>
  <time>2026-08-28T17:55:37Z</time>
  <course>206.4</course>
  <speed>0.07280109889280519</speed>
  <fix>3d</fix>
</trkpt>
<trkpt lat="40.0710143" lon="-105.2299857">
  <ele>1583.0</ele>
  <time>2026-08-28T17:55:37Z</time>
  <course>110.88</course>
  <speed>0.03</speed>
  <fix>3d</fix>
</trkpt>
<trkpt lat="40.0710146" lon="-105.2299852">
  <ele>1583.21</ele>
  <time>2026-08-28T17:55:37Z</time>
  <course>206.46</course>
  <speed>0.07280109889280519</speed>
  <fix>3d</fix>
</trkpt>
<trkpt lat="40.0710143" lon="-105.2299856">
  <ele>1583.0</ele>
  <time>2026-08-28T17:55:37Z</time>
  <course>110.88</course>
  <speed>0.03</speed>
  <fix>3d</fix>
</trkpt>
<trkpt lat="40.0710146" lon="-105.2299851">
  <ele>1583.21</ele>
  <time>2026-08-28T17:55:37Z</time>
  <course>206.52</course>
  <speed>0.07280109889280519</speed>
  <fix>3d</fix>
</trkpt>
<trkpt lat="40.0710143" lon="-105.2299856">
  <ele>1583.0</ele>
  <time>2026-08-28T17:55:37Z</time>
  <course>110.88</course>
  <speed>0.03</speed>
  <fix>3d</fix>
</trkpt>
<trkpt lat="40.0710146" lon="-105.2299851">
  <ele>1583.21</ele>
  <time>2026-08-28T17:55:37Z</time>
  <course>206.58</course>
  <speed>0.07280109889280519</speed>
  <fix>3d</fix>
</trkpt>
<trkpt lat="40.0710143" lon="-105.2299855">
  <ele>1583.0</ele>
  <time>2026-08-28T17:55:37Z</time>
  <course>110.88</course>
  <speed>0.03</speed>
  <fix>3d</fix>
</trkpt>
<trkpt lat="40.0710145" lon="-105.2299851">
  <ele>1583.21</ele>
  <time>2026-08-28T17:55:37Z</time>
  <course>206.63</course>
  <speed>0.07280109889280519</speed>
  <fix>3d</fix>
</trkpt>
<trkpt lat="40.0710143" lon="-105.2299855">
  <ele>1583.0</ele>
  <time>2026-08-28T17:55:37Z</time>
  <course>110.88</course>
  <speed>0.03</speed>
  <fix>3d</fix>
</trkpt>
<trkpt lat="40.0710145" lon="-105.229985">
  <ele>1583.2</ele>
  <time>2026-08-28T17:55:37Z</time>
  <course>206.69</course>
  <speed>0.07280109889280519</speed>
  <fix>3d</fix>
</trkpt>
<trkpt lat="40.0710143" lon="-105.2299855">
  <ele>1583.0</ele>
  <time>2026-08-28T17:55:37Z</time>
  <course>110.88</course>
  <speed>0.03</speed>
  <fix>3d</fix>
</trkpt>
<trkpt lat="40.0710145" lon="-105.229985">
  <ele>1583.2</ele>
  <time>2026-08-28T17:55:37Z</time>
  <course>206.75</course>
  <speed>0.07280109889280519</speed>
  <fix>3d</fix>
</trkpt>
<trkpt lat="40.0710143" lon="-105.2299855">
  <ele>1583.0</ele>
  <time>2026-08-28T17:55:37Z</time>
  <course>110.88</course>
  <speed>0.03</speed>
  <fix>3d</fix>
</trkpt>
<trkpt lat="40.0710145" lon="-105.2299849">
  <ele>1583.19</ele>
  <time>2026-08-28T17:55:37Z</time>
  <course>206.81</course>
  <speed>0.07280109889280519</speed>
  <fix>3d</fix>
</trkpt>
<trkpt lat="40.0710142" lon="-105.2299854">
  <ele>1583.0</ele>
  <time>2026-08-28T17:55:37Z</time>
  <course>110.88</course>
  <speed>0.03</speed>
  <fix>3d</fix>
</trkpt>
<trkpt lat="40.0710145" lon="-105.2299849">
  <ele>1583.18</ele>
  <time>2026-08-28T17:55:37Z</time>
  <course>206.87</course>
  <speed>0.07280109889280519</speed>
  <fix>3d</fix>
</trkpt>
<trkpt lat="40.0710142" lon="-105.2299854">
  <ele>1583.0</ele>
  <time>2026-08-28T17:55:37Z</time>
  <course>110.88</course>
  <speed>0.03</speed>
  <fix>3d</fix>
</trkpt>
<trkpt lat="40.0710145" lon="-105.2299849">
  <ele>1583.18</ele>
  <time>2026-08-28T17:55:37Z</time>
  <course>206.93</course>
  <speed>0.07280109889280519</speed>
  <fix>3d</fix>
</trkpt>
<trkpt lat="40.0710142" lon="-105.2299853">
  <ele>1583.0</ele>
  <time>2026-08-28T17:55:37Z</time>
  <course>110.88</course>
  <speed>0.03</speed>
  <fix>3d</fix>
</trkpt>
<trkpt lat="40.0710145" lon="-105.2299848">
  <ele>1583.17</ele>
  <time>2026-08-28T17:55:37Z</time>
  <course>206.98</course>
  <speed>0.07280109889280519</speed>
  <fix>3d</fix>
</trkpt>
<trkpt lat="40.0710142" lon="-105.2299853">
  <ele>1583.0</ele>
  <time>2026-08-28T17:55:37Z</time>
  <course>110.88</course>
  <speed>0.03</speed>
  <fix>3d</fix>
</trkpt>
<trkpt lat="40.0710145" lon="-105.2299848">
  <ele>1583.16</ele>
  <time>2026-08-28T17:55:37Z</time>
  <course>207.04</course>
  <speed>0.07280109889280519</speed>
  <fix>3d</fix>
</trkpt>
<trkpt lat="40.0710142" lon="-105.2299852">
  <ele>1583.0</ele>
  <time>2026-08-28T17:55:37Z</time>
  <course>110.88</course>
  <speed>0.03</speed>
  <fix>3d</fix>
</trkpt>
<trkpt lat="40.0710145" lon="-105.2299848">
  <ele>1583.16</ele>
  <time>2026-08-28T17:55:37Z</time>
  <course>207.09</course>
  <speed>0.07280109889280519</speed>
  <fix>3d</fix>
</trkpt>
<trkpt lat="40.0710142" lon="-105.2299852">
  <ele>1583.0</ele>
  <time>2026-08-28T17:55:37Z</time>
  <course>110.88</course>
  <speed>0.03</speed>
  <fix>3d</fix>
</trkpt>
<trkpt lat="40.0710145" lon="-105.2299847">
  <ele>1583.15</ele>
  <time>2026-08-28T17:55:37Z</time>
  <course>207.15</course>
  <speed>0.07280109889280519</speed>
  <fix>3d</fix>
</trkpt>
<trkpt lat="40.0710142" lon="-105.2299851">
  <ele>1583.0</ele>
  <time>2026-08-28T17:55:37Z</time>
  <course>110.88</course>
  <speed>0.03</speed>
  <fix>3d</fix>
</trkpt>
<trkpt lat="40.0710144" lon="-105.2299847">
  <ele>1583.14</ele>
  <time>2026-08-28T17:55:37Z</time>
  <course>207.21</course>
  <speed>0.07280109889280519</speed>
  <fix>3d</fix>
</trkpt>
<trkpt lat="40.0710142" lon="-105.2299851">
  <ele>1583.0</ele>
  <time>2026-08-28T17:55:37Z</time>
  <course>110.88</course>
  <speed>0.03</speed>
  <fix>3d</fix>
</trkpt>
<trkpt lat="40.0710144" lon="-105.2299846">
  <ele>1583.14</ele>
  <time>2026-08-28T17:55:37Z</time>
  <course>207.26</course>
  <speed>0.07280109889280519</speed>
  <fix>3d</fix>
</trkpt>
<trkpt lat="40.0710141" lon="-105.229985">
  <ele>1583.0</ele>
  <time>2026-08-28T17:55:37Z</time>
  <course>110.88</course>
  <speed>0.03</speed>
  <fix>3d</fix>
</trkpt>
<trkpt lat="40.0710144" lon="-105.2299846">
  <ele>1583.13</ele>
  <time>2026-08-28T17:55:37Z</time>
  <course>207.32</course>
  <speed>0.07280109889280519</speed>
  <fix>3d</fix>
</trkpt>
<trkpt lat="40.0710141" lon="-105.229985">
  <ele>1583.0</ele>
  <time>2026-08-28T17:55:37Z</time>
  <course>110.88</course>
  <speed>0.03</speed>
  <fix>3d</fix>
</trkpt>
<trkpt lat="40.0710144" lon="-105.2299846">
  <ele>1583.12</ele>
  <time>2026-08-28T17:55:37Z</time>
  <course>207.38</course>
  <speed>0.07280109889280519</speed>
  <fix>3d</fix>
</trkpt>
<trkpt lat="40.0710141" lon="-105.2299849">
  <ele>1583.0</ele>
  <time>2026-08-28T17:55:37Z</time>
  <course>110.88</course>
  <speed>0.03</speed>
  <fix>3d</fix>
</trkpt>
<trkpt lat="40.0710144" lon="-105.2299845">
  <ele>1583.11</ele>
  <time>2026-08-28T17:55:37Z</time>
  <course>207.44</course>
  <speed>0.07280109889280519</speed>
  <fix>3d</fix>
</trkpt>
<trkpt lat="40.0710141" lon="-105.2299849">
  <ele>1583.0</ele>
  <time>2026-08-28T17:55:37Z</time>
  <course>110.88</course>
  <speed>0.03</speed>
  <fix>3d</fix>
</trkpt>
<trkpt lat="40.0710144" lon="-105.2299845">
  <ele>1583.1</ele>
  <time>2026-08-28T17:55:37Z</time>
  <course>207.5</course>
  <speed>0.07280109889280519</speed>
  <fix>3d</fix>
</trkpt>
<trkpt lat="40.0710141" lon="-105.2299848">
  <ele>1583.0</ele>
  <time>2026-08-28T17:55:37Z</time>
  <course>110.88</course>
  <speed>0.03</speed>
  <fix>3d</fix>
</trkpt>
<trkpt lat="40.0710144" lon="-105.2299844">
  <ele>1583.09</ele>
  <time>2026-08-28T17:55:37Z</time>
  <course>207.55</course>
  <speed>0.07280109889280519</speed>
  <fix>3d</fix>
</trkpt>
<trkpt lat="40.0710141" lon="-105.2299848">
  <ele>1583.0</ele>
  <time>2026-08-28T17:55:37Z</time>
  <course>110.88</course>
  <speed>0.03</speed>
  <fix>3d</fix>
</trkpt>
<trkpt lat="40.0710144" lon="-105.2299844">
  <ele>1583.08</ele>
  <time>2026-08-28T17:55:37Z</time>
  <course>207.62</course>
  <speed>0.07280109889280519</speed>
  <fix>3d</fix>
</trkpt>
<trkpt lat="40.0710141" lon="-105.2299848">
  <ele>1583.0</ele>
  <time>2026-08-28T17:55:37Z</time>
  <course>110.88</course>
  <speed>0.03</speed>
  <fix>3d</fix>
</trkpt>
<trkpt lat="40.0710144" lon="-105.2299843">
  <ele>1583.08</ele>
  <time>2026-08-28T17:55:37Z</time>
  <course>207.68</course>
  <speed>0.07280109889280519</speed>
  <fix>3d</fix>
</trkpt>
<trkpt lat="40.0710141" lon="-105.2299848">
  <ele>1583.0</ele>
  <time>2026-08-28T17:55:37Z</time>
  <course>110.88</course>
  <speed>0.03</speed>
  <fix>3d</fix>
</trkpt>
<trkpt lat="40.0710143" lon="-105.2299843">
  <ele>1583.07</ele>
  <time>2026-08-28T17:55:37Z</time>
  <course>207.74</course>
  <speed>0.07280109889280519</speed>
  <fix>3d</fix>
</trkpt>
<trkpt lat="40.071014" lon="-105.2299847">
  <ele>1583.0</ele>
  <time>2026-08-28T17:55:37Z</time>
  <course>110.88</course>
  <speed>0.03</speed>
  <fix>3d</fix>
</trkpt>
<trkpt lat="40.0710143" lon="-105.2299843">
  <ele>1583.06</ele>
  <time>2026-08-28T17:55:37Z</time>
  <course>207.8</course>
  <speed>0.0632455532033676</speed>
  <fix>3d</fix>
</trkpt>
<trkpt lat="40.071014" lon="-105.2299847">
  <ele>1583.0</ele>
  <time>2026-08-28T17:55:37Z</time>
  <course>110.88</course>
  <speed>0.03</speed>
  <fix>3d</fix>
</trkpt>
<trkpt lat="40.0710143" lon="-105.2299842">
  <ele>1583.06</ele>
  <time>2026-08-28T17:55:37Z</time>
  <course>207.85</course>
  <speed>0.07280109889280519</speed>
  <fix>3d</fix>
</trkpt>
<trkpt lat="40.071014" lon="-105.2299846">
  <ele>1583.0</ele>
  <time>2026-08-28T17:55:37Z</time>
  <course>110.88</course>
  <speed>0.03</speed>
  <fix>3d</fix>
</trkpt>
<trkpt lat="40.0710143" lon="-105.2299842">
  <ele>1583.06</ele>
  <time>2026-08-28T17:55:37Z</time>
  <course>207.91</course>
  <speed>0.0632455532033676</speed>
  <fix>3d</fix>
</trkpt>
<trkpt lat="40.071014" lon="-105.2299846">
  <ele>1583.0</ele>
  <time>2026-08-28T17:55:37Z</time>
  <course>110.88</course>
  <speed>0.03</speed>
  <fix>3d</fix>
</trkpt>
<trkpt lat="40.0710143" lon="-105.2299841">
  <ele>1583.05</ele>
  <time>2026-08-28T17:55:37Z</time>
  <course>207.97</course>
  <speed>0.0632455532033676</speed>
  <fix>3d</fix>
</trkpt>
<trkpt lat="40.071014" lon="-105.2299845">
  <ele>1583.0</ele>
  <time>2026-08-28T17:55:37Z</time>
  <course>110.88</course>
  <speed>0.03</speed>
  <fix>3d</fix>
</trkpt>
<trkpt lat="40.0710143" lon="-105.2299841">
  <ele>1583.05</ele>
  <time>2026-08-28T17:55:37Z</time>
  <course>208.03</course>
  <speed>0.0632455532033676</speed>
  <fix>3d</fix>
</trkpt>
<trkpt lat="40.071014" lon="-105.2299845">
  <ele>1583.0</ele>
  <time>2026-08-28T17:55:37Z</time>
  <course>110.88</course>
  <speed>0.03</speed>
  <fix>3d</fix>
</trkpt>
<trkpt lat="40.0710143" lon="-105.2299841">
  <ele>1583.05</ele>
  <time>2026-08-28T17:55:37Z</time>
  <course>208.09</course>
  <speed>0.0632455532033676</speed>
  <fix>3d</fix>
</trkpt>
<trkpt lat="40.071014" lon="-105.2299844">
  <ele>1583.0</ele>
  <time>2026-08-28T17:55:37Z</time>
  <course>110.88</course>
  <speed>0.03</speed>
  <fix>3d</fix>
</trkpt>
<trkpt lat="40.0710143" lon="-105.229984">
  <ele>1583.04</ele>
  <time>2026-08-28T17:55:37Z</time>
  <course>208.14</course>
  <speed>0.0632455532033676</speed>
  <fix>3d</fix>
</trkpt>
<trkpt lat="40.071014" lon="-105.2299844">
  <ele>1583.0</ele>
  <time>2026-08-28T17:55:37Z</time>
  <course>110.88</course>
  <speed>0.03</speed>
  <fix>3d</fix>
</trkpt>
<trkpt lat="40.0710143" lon="-105.229984">
  <ele>1583.04</ele>
  <time>2026-08-28T17:55:37Z</time>
  <course>208.2</course>
  <speed>0.0632455532033676</speed>
  <fix>3d</fix>
</trkpt>
<trkpt lat="40.0710139" lon="-105.2299843">
  <ele>1583.0</ele>
  <time>2026-08-28T17:55:37Z</time>
  <course>110.88</course>
  <speed>0.03</speed>
  <fix>3d</fix>
</trkpt>
<trkpt lat="40.0710142" lon="-105.2299839">
  <ele>1583.04</ele>
  <time>2026-08-28T17:55:37Z</time>
  <course>208.25</course>
  <speed>0.0632455532033676</speed>
  <fix>3d</fix>
</trkpt>
<trkpt lat="40.0710139" lon="-105.2299843">
  <ele>1583.0</ele>
  <time>2026-08-28T17:55:37Z</time>
  <course>110.88</course>
  <speed>0.03</speed>
  <fix>3d</fix>
</trkpt>
<trkpt lat="40.0710142" lon="-105.2299839">
  <ele>1583.05</ele>
  <time>2026-08-28T17:55:37Z</time>
  <course>208.31</course>
  <speed>0.0632455532033676</speed>
  <fix>3d</fix>
</trkpt>
<trkpt lat="40.0710138" lon="-105.2299843">
  <ele>1583.0</ele>
  <time>2026-08-28T17:55:37Z</time>
  <course>110.88</course>
  <speed>0.03</speed>
  <fix>3d</fix>
</trkpt>
<trkpt lat="40.0710142" lon="-105.2299839">
  <ele>1583.06</ele>
  <time>2026-08-28T17:55:37Z</time>
  <course>208.36</course>
  <speed>0.0632455532033676</speed>
  <fix>3d</fix>
</trkpt>
<trkpt lat="40.0710138" lon="-105.2299843">
  <ele>1583.0</ele>
  <time>2026-08-28T17:55:37Z</time>
  <course>110.88</course>
  <speed>0.03</speed>
  <fix>3d</fix>
</trkpt>
<trkpt lat="40.0710142" lon="-105.2299838">
  <ele>1583.06</ele>
  <time>2026-08-28T17:55:37Z</time>
  <course>208.42</course>
  <speed>0.0632455532033676</speed>
  <fix>3d</fix>
</trkpt>
<trkpt lat="40.0710138" lon="-105.2299842">
  <ele>1583.0</ele>
  <time>2026-08-28T17:55:37Z</time>
  <course>110.88</course>
  <speed>0.03</speed>
  <fix>3d</fix>
</trkpt>
<trkpt lat="40.0710142" lon="-105.2299838">
  <ele>1583.07</ele>
  <time>2026-08-28T17:55:37Z</time>
  <course>208.48</course>
  <speed>0.06082762530298219</speed>
  <fix>3d</fix>
</trkpt>
<trkpt lat="40.0710138" lon="-105.2299842">
  <ele>1583.0</ele>
  <time>2026-08-28T17:55:37Z</time>
  <course>110.88</course>
  <speed>0.03</speed>
  <fix>3d</fix>
</trkpt>
<trkpt lat="40.0710142" lon="-105.2299837">
  <ele>1583.08</ele>
  <time>2026-08-28T17:55:37Z</time>
  <course>208.54</course>
  <speed>0.06082762530298219</speed>
  <fix>3d</fix>
</trkpt>
<trkpt lat="40.0710138" lon="-105.2299841">
  <ele>1583.0</ele>
  <time>2026-08-28T17:55:37Z</time>
  <course>110.88</course>
  <speed>0.03</speed>
  <fix>3d</fix>
</trkpt>
<trkpt lat="40.0710141" lon="-105.2299837">
  <ele>1583.08</ele>
  <time>2026-08-28T17:55:37Z</time>
  <course>208.59</course>
  <speed>0.06082762530298219</speed>
  <fix>3d</fix>
</trkpt>
<trkpt lat="40.0710138" lon="-105.2299841">
  <ele>1583.0</ele>
  <time>2026-08-28T17:55:37Z</time>
  <course>110.88</course>
  <speed>0.03</speed>
  <fix>3d</fix>
</trkpt>
<trkpt lat="39.655741" lon="-104.1383097">
  <ele>1566.58</ele>
  <time>2026-08-28T17:55:39Z</time>
  <course>0.0</course>
  <speed>0.0</speed>
  <fix>3d</fix>
</trkpt>
<trkpt lat="40.0713749" lon="-105.229789">
  <ele>1583.0</ele>
  <time>2026-08-28T17:55:39Z</time>
  <course>0.0</course>
  <speed>0.0</speed>
  <fix>3d</fix>
</trkpt>
<trkpt lat="40.0713749" lon="-105.229789">
  <ele>1583.0</ele>
  <time>2026-08-28T17:55:39Z</time>
  <course>238.36</course>
  <speed>0.0</speed>
  <fix>3d</fix>
</trkpt>
<trkpt lat="40.0713749" lon="-105.229789">
  <ele>1583.0</ele>
  <time>2026-08-28T17:55:39Z</time>
  <course>0.0</course>
  <speed>0.0</speed>
  <fix>3d</fix>
</trkpt>
<trkpt lat="40.0713749" lon="-105.229789">
  <ele>1583.0</ele>
  <time>2026-08-28T17:55:39Z</time>
  <course>238.44</course>
  <speed>0.0</speed>
  <fix>3d</fix>
</trkpt>
<trkpt lat="40.0713749" lon="-105.229789">
  <ele>1583.0</ele>
  <time>2026-08-28T17:55:39Z</time>
  <course>0.0</course>
  <speed>0.0</speed>
  <fix>3d</fix>
</trkpt>
<trkpt lat="40.0713749" lon="-105.229789">
  <ele>1583.0</ele>
  <time>2026-08-28T17:55:39Z</time>
  <course>238.64</course>
  <speed>0.0</speed>
  <fix>3d</fix>
</trkpt>
<trkpt lat="40.0713749" lon="-105.229789">
  <ele>1583.0</ele>
  <time>2026-08-28T17:55:39Z</time>
  <course>0.0</course>
  <speed>0.0</speed>
  <fix>3d</fix>
</trkpt>
<trkpt lat="40.0713749" lon="-105.229789">
  <ele>1583.0</ele>
  <time>2026-08-28T17:55:39Z</time>
  <course>238.93</course>
  <speed>0.0</speed>
  <fix>3d</fix>
</trkpt>
<trkpt lat="40.0713749" lon="-105.229789">
  <ele>1583.0</ele>
  <time>2026-08-28T17:55:39Z</time>
  <course>0.0</course>
  <speed>0.0</speed>
  <fix>3d</fix>
</trkpt>
<trkpt lat="40.0713749" lon="-105.229789">
  <ele>1583.0</ele>
  <time>2026-08-28T17:55:39Z</time>
  <course>239.26</course>
  <speed>0.0</speed>
  <fix>3d</fix>
</trkpt>
<trkpt lat="40.0713749" lon="-105.229789">
  <ele>1583.0</ele>
  <time>2026-08-28T17:55:39Z</time>
  <course>0.0</course>
  <speed>0.0</speed>
  <fix>3d</fix>
</trkpt>
<trkpt lat="40.0713749" lon="-105.229789">
  <ele>1583.0</ele>
  <time>2026-08-28T17:55:39Z</time>
  <course>239.61</course>
  <speed>0.0</speed>
  <fix>3d</fix>
</trkpt>
<trkpt lat="40.0713749" lon="-105.229789">
  <ele>1583.0</ele>
  <time>2026-08-28T17:55:39Z</time>
  <course>0.0</course>
  <speed>0.0</speed>
  <fix>3d</fix>
</trkpt>
<trkpt lat="40.0713749" lon="-105.229789">
  <ele>1583.0</ele>
  <time>2026-08-28T17:55:39Z</time>
  <course>239.96</course>
  <speed>0.0</speed>
  <fix>3d</fix>
</trkpt>
<trkpt lat="40.0713749" lon="-105.229789">
  <ele>1583.0</ele>
  <time>2026-08-28T17:55:39Z</time>
  <course>0.0</course>
  <speed>0.0</speed>
  <fix>3d</fix>
</trkpt>
<trkpt lat="40.0713749" lon="-105.229789">
  <ele>1583.0</ele>
  <time>2026-08-28T17:55:39Z</time>
  <course>240.29</course>
  <speed>0.0</speed>
  <fix>3d</fix>
</trkpt>
<trkpt lat="40.0713749" lon="-105.229789">
  <ele>1583.0</ele>
  <time>2026-08-28T17:55:39Z</time>
  <course>0.0</course>
  <speed>0.0</speed>
  <fix>3d</fix>
</trkpt>
<trkpt lat="40.0713749" lon="-105.229789">
  <ele>1583.0</ele>
  <time>2026-08-28T17:55:39Z</time>
  <course>240.61</course>
  <speed>0.0</speed>
  <fix>3d</fix>
</trkpt>
<trkpt lat="40.0713749" lon="-105.229789">
  <ele>1583.0</ele>
  <time>2026-08-28T17:55:39Z</time>
  <course>0.0</course>
  <speed>0.0</speed>
  <fix>3d</fix>
</trkpt>
<trkpt lat="40.0713749" lon="-105.229789">
  <ele>1583.0</ele>
  <time>2026-08-28T17:55:39Z</time>
  <course>240.92</course>
  <speed>0.0</speed>
  <fix>3d</fix>
</trkpt>
<trkpt lat="40.0713749" lon="-105.229789">
  <ele>1583.0</ele>
  <time>2026-08-28T17:55:39Z</time>
  <course>0.0</course>
  <speed>0.0</speed>
  <fix>3d</fix>
</trkpt>
<trkpt lat="40.0713749" lon="-105.229789">
  <ele>1583.0</ele>
  <time>2026-08-28T17:55:39Z</time>
  <course>241.21</course>
  <speed>0.0</speed>
  <fix>3d</fix>
</trkpt>
<trkpt lat="40.0713749" lon="-105.229789">
  <ele>1583.0</ele>
  <time>2026-08-28T17:55:39Z</time>
  <course>0.0</course>
  <speed>0.0</speed>
  <fix>3d</fix>
</trkpt>
<trkpt lat="40.0713749" lon="-105.229789">
  <ele>1583.0</ele>
  <time>2026-08-28T17:55:39Z</time>
  <course>241.49</course>
  <speed>0.0</speed>
  <fix>3d</fix>
</trkpt>
<trkpt lat="40.0713749" lon="-105.229789">
  <ele>1583.0</ele>
  <time>2026-08-28T17:55:39Z</time>
  <course>0.0</course>
  <speed>0.0</speed>
  <fix>3d</fix>
</trkpt>
<trkpt lat="40.0713749" lon="-105.229789">
  <ele>1583.0</ele>
  <time>2026-08-28T17:55:39Z</time>
  <course>241.77</course>
  <speed>0.0</speed>
  <fix>3d</fix>
</trkpt>
<trkpt lat="40.0713749" lon="-105.229789">
  <ele>1583.0</ele>
  <time>2026-08-28T17:55:39Z</time>
  <course>0.0</course>
  <speed>0.0</speed>
  <fix>3d</fix>
</trkpt>
<trkpt lat="40.0713749" lon="-105.229789">
  <ele>1583.0</ele>
  <time>2026-08-28T17:55:39Z</time>
  <course>242.03</course>
  <speed>0.0</speed>
  <fix>3d</fix>
</trkpt>
<trkpt lat="40.0713749" lon="-105.229789">
  <ele>1583.0</ele>
  <time>2026-08-28T17:55:39Z</time>
  <course>0.0</course>
  <speed>0.0</speed>
  <fix>3d</fix>
</trkpt>
<trkpt lat="40.0713749" lon="-105.229789">
  <ele>1583.0</ele>
  <time>2026-08-28T17:55:39Z</time>
  <course>242.29</course>
  <speed>0.0</speed>
  <fix>3d</fix>
</trkpt>
<trkpt lat="40.0713749" lon="-105.229789">
  <ele>1583.0</ele>
  <time>2026-08-28T17:55:39Z</time>
  <course>0.0</course>
  <speed>0.0</speed>
  <fix>3d</fix>
</trkpt>
<trkpt lat="40.0713749" lon="-105.229789">
  <ele>1583.0</ele>
  <time>2026-08-28T17:55:39Z</time>
  <course>242.54</course>
  <speed>0.0</speed>
  <fix>3d</fix>
</trkpt>
<trkpt lat="40.0713749" lon="-105.229789">
  <ele>1583.0</ele>
  <time>2026-08-28T17:55:39Z</time>
  <course>0.0</course>
  <speed>0.0</speed>
  <fix>3d</fix>
</trkpt>
<trkpt lat="40.0713749" lon="-105.229789">
  <ele>1583.0</ele>
  <time>2026-08-28T17:55:39Z</time>
  <course>242.79</course>
  <speed>0.0</speed>
  <fix>3d</fix>
</trkpt>
<trkpt lat="40.0713749" lon="-105.229789">
  <ele>1583.0</ele>
  <time>2026-08-28T17:55:39Z</time>
  <course>0.0</course>
  <speed>0.0</speed>
  <fix>3d</fix>
</trkpt>
<trkpt lat="40.0713749" lon="-105.229789">
  <ele>1583.0</ele>
  <time>2026-08-28T17:55:39Z</time>
  <course>243.02</course>
  <speed>0.0</speed>
  <fix>3d</fix>
</trkpt>
<trkpt lat="40.0713749" lon="-105.229789">
  <ele>1583.0</ele>
  <time>2026-08-28T17:55:39Z</time>
  <course>0.0</course>
  <speed>0.0</speed>
  <fix>3d</fix>
</trkpt>
<trkpt lat="40.0713749" lon="-105.229789">
  <ele>1583.0</ele>
  <time>2026-08-28T17:55:39Z</time>
  <course>243.25</course>
  <speed>0.0</speed>
  <fix>3d</fix>
</trkpt>
<trkpt lat="40.0713749" lon="-105.229789">
  <ele>1583.0</ele>
  <time>2026-08-28T17:55:39Z</time>
  <course>0.0</course>
  <speed>0.0</speed>
  <fix>3d</fix>
</trkpt>
<trkpt lat="40.0713749" lon="-105.229789">
  <ele>1583.0</ele>
  <time>2026-08-28T17:55:39Z</time>
  <course>243.47</course>
  <speed>0.0</speed>
  <fix>3d</fix>
</trkpt>
<trkpt lat="40.0713749" lon="-105.229789">
  <ele>1583.0</ele>
  <time>2026-08-28T17:55:39Z</time>
  <course>0.0</course>
  <speed>0.0</speed>
  <fix>3d</fix>
</trkpt>
<trkpt lat="40.0713749" lon="-105.229789">
  <ele>1583.0</ele>
  <time>2026-08-28T17:55:39Z</time>
  <course>243.68</course>
  <speed>0.0</speed>
  <fix>3d</fix>
</trkpt>
<trkpt lat="40.0713749" lon="-105.229789">
  <ele>1583.0</ele>
  <time>2026-08-28T17:55:39Z</time>
  <course>0.0</course>
  <speed>0.0</speed>
  <fix>3d</fix>
</trkpt>
<trkpt lat="40.0713749" lon="-105.229789">
  <ele>1583.0</ele>
  <time>2026-08-28T17:55:39Z</time>
  <course>243.89</course>
  <speed>0.0</speed>
  <fix>3d</fix>
</trkpt>
<trkpt lat="40.0713749" lon="-105.229789">
  <ele>1583.0</ele>
  <time>2026-08-28T17:55:39Z</time>
  <course>0.0</course>
  <speed>0.0</speed>
  <fix>3d</fix>
</trkpt>
<trkpt lat="40.0713749" lon="-105.229789">
  <ele>1583.0</ele>
  <time>2026-08-28T17:55:39Z</time>
  <course>244.09</course>
  <speed>0.0</speed>
  <fix>3d</fix>
</trkpt>
<trkpt lat="40.0713749" lon="-105.229789">
  <ele>1583.0</ele>
  <time>2026-08-28T17:55:39Z</time>
  <course>0.0</course>
  <speed>0.0</speed>
  <fix>3d</fix>
</trkpt>
<trkpt lat="40.0713749" lon="-105.229789">
  <ele>1583.0</ele>
  <time>2026-08-28T17:55:39Z</time>
  <course>244.28</course>
  <speed>0.0</speed>
  <fix>3d</fix>
</trkpt>
<trkpt lat="40.0713749" lon="-105.229789">
  <ele>1583.0</ele>
  <time>2026-08-28T17:55:39Z</time>
  <course>0.0</course>
  <speed>0.0</speed>
  <fix>3d</fix>
</trkpt>
<trkpt lat="40.0713749" lon="-105.229789">
  <ele>1583.0</ele>
  <time>2026-08-28T17:55:39Z</time>
  <course>244.46</course>
  <speed>0.0</speed>
  <fix>3d</fix>
</trkpt>
<trkpt lat="40.0713749" lon="-105.229789">
  <ele>1583.0</ele>
  <time>2026-08-28T17:55:39Z</time>
  <course>0.0</course>
  <speed>0.0</speed>
  <fix>3d</fix>
</trkpt>
<trkpt lat="40.0713749" lon="-105.229789">
  <ele>1583.0</ele>
  <time>2026-08-28T17:55:39Z</time>
  <course>244.64</course>
  <speed>0.0</speed>
  <fix>3d</fix>
</trkpt>
<trkpt lat="40.0713749" lon="-105.229789">
  <ele>1583.0</ele>
  <time>2026-08-28T17:55:39Z</time>
  <course>0.0</course>
  <speed>0.0</speed>
  <fix>3d</fix>
</trkpt>
<trkpt lat="40.0713749" lon="-105.229789">
  <ele>1583.0</ele>
  <time>2026-08-28T17:55:39Z</time>
  <course>244.81</course>
  <speed>0.0</speed>
  <fix>3d</fix>
</trkpt>
<trkpt lat="40.0713749" lon="-105.229789">
  <ele>1583.0</ele>
  <time>2026-08-28T17:55:39Z</time>
  <course>0.0</course>
  <speed>0.0</speed>
  <fix>3d</fix>
</trkpt>
<trkpt lat="40.0713749" lon="-105.229789">
  <ele>1583.0</ele>
  <time>2026-08-28T17:55:39Z</time>
  <course>244.97</course>
  <speed>0.0</speed>
  <fix>3d</fix>
</trkpt>
<trkpt lat="40.0713749" lon="-105.229789">
  <ele>1583.0</ele>
  <time>2026-08-28T17:55:39Z</time>
  <course>0.0</course>
  <speed>0.0</speed>
  <fix>3d</fix>
</trkpt>
<trkpt lat="40.0713749" lon="-105.229789">
  <ele>1583.0</ele>
  <time>2026-08-28T17:55:39Z</time>
  <course>245.13</course>
  <speed>0.0</speed>
  <fix>3d</fix>
</trkpt>
<trkpt lat="40.0713749" lon="-105.229789">
  <ele>1583.0</ele>
  <time>2026-08-28T17:55:39Z</time>
  <course>0.0</course>
  <speed>0.0</speed>
  <fix>3d</fix>
</trkpt>
<trkpt lat="40.0713749" lon="-105.229789">
  <ele>1583.0</ele>
  <time>2026-08-28T17:55:39Z</time>
  <course>245.29</course>
  <speed>0.0</speed>
  <fix>3d</fix>
</trkpt>
<trkpt lat="40.0713749" lon="-105.229789">
  <ele>1583.0</ele>
  <time>2026-08-28T17:55:39Z</time>
  <course>0.0</course>
  <speed>0.0</speed>
  <fix>3d</fix>
</trkpt>
<trkpt lat="40.0713749" lon="-105.229789">
  <ele>1583.0</ele>
  <time>2026-08-28T17:55:39Z</time>
  <course>245.43</course>
  <speed>0.0</speed>
  <fix>3d</fix>
</trkpt>
<trkpt lat="40.0713749" lon="-105.229789">
  <ele>1583.0</ele>
  <time>2026-08-28T17:55:39Z</time>
  <course>0.0</course>
  <speed>0.0</speed>
  <fix>3d</fix>
</trkpt>
<trkpt lat="40.0713749" lon="-105.229789">
  <ele>1583.0</ele>
  <time>2026-08-28T17:55:39Z</time>
  <course>245.57</course>
  <speed>0.0</speed>
  <fix>3d</fix>
</trkpt>
<trkpt lat="40.0713749" lon="-105.229789">
  <ele>1583.0</ele>
  <time>2026-08-28T17:55:39Z</time>
  <course>0.0</course>
  <speed>0.0</speed>
  <fix>3d</fix>
</trkpt>
<trkpt lat="40.0713749" lon="-105.229789">
  <ele>1583.0</ele>
  <time>2026-08-28T17:55:39Z</time>
  <course>245.71</course>
  <speed>0.0</speed>
  <fix>3d</fix>
</trkpt>
<trkpt lat="40.0713749" lon="-105.229789">
  <ele>1583.0</ele>
  <time>2026-08-28T17:55:39Z</time>
  <course>0.0</course>
  <speed>0.0</speed>
  <fix>3d</fix>
</trkpt>
<trkpt lat="40.0713749" lon="-105.229789">
  <ele>1583.0</ele>
  <time>2026-08-28T17:55:39Z</time>
  <course>245.84</course>
  <speed>0.0</speed>
  <fix>3d</fix>
</trkpt>
<trkpt lat="40.0713749" lon="-105.229789">
  <ele>1583.0</ele>
  <time>2026-08-28T17:55:39Z</time>
  <course>0.0</course>
  <speed>0.0</speed>
  <fix>3d</fix>
</trkpt>
<trkpt lat="40.0713749" lon="-105.229789">
  <ele>1583.0</ele>
  <time>2026-08-28T17:55:39Z</time>
  <course>245.96</course>
  <speed>0.0</speed>
  <fix>3d</fix>
</trkpt>
<trkpt lat="40.0713749" lon="-105.229789">
  <ele>1583.0</ele>
  <time>2026-08-28T17:55:39Z</time>
  <course>0.0</course>
  <speed>0.0</speed>
  <fix>3d</fix>
</trkpt>
<trkpt lat="40.0713749" lon="-105.229789">
  <ele>1583.0</ele>
  <time>2026-08-28T17:55:39Z</time>
  <course>246.08</course>
  <speed>0.0</speed>
  <fix>3d</fix>
</trkpt>
<trkpt lat="40.0713749" lon="-105.229789">
  <ele>1583.0</ele>
  <time>2026-08-28T17:55:39Z</time>
  <course>0.0</course>
  <speed>0.0</speed>
  <fix>3d</fix>
</trkpt>
<trkpt lat="40.0713749" lon="-105.229789">
  <ele>1583.0</ele>
  <time>2026-08-28T17:55:39Z</time>
  <course>246.19</course>
  <speed>0.0</speed>
  <fix>3d</fix>
</trkpt>
<trkpt lat="40.0713749" lon="-105.229789">
  <ele>1583.0</ele>
  <time>2026-08-28T17:55:39Z</time>
  <course>0.0</course>
  <speed>0.0</speed>
  <fix>3d</fix>
</trkpt>
<trkpt lat="40.0713749" lon="-105.229789">
  <ele>1583.0</ele>
  <time>2026-08-28T17:55:39Z</time>
  <course>246.3</course>
  <speed>0.0</speed>
  <fix>3d</fix>
</trkpt>
<trkpt lat="40.0713749" lon="-105.229789">
  <ele>1583.0</ele>
  <time>2026-08-28T17:55:39Z</time>
  <course>0.0</course>
  <speed>0.0</speed>
  <fix>3d</fix>
</trkpt>
<trkpt lat="40.0713749" lon="-105.229789">
  <ele>1583.0</ele>
  <time>2026-08-28T17:55:39Z</time>
  <course>246.41</course>
  <speed>0.0</speed>
  <fix>3d</fix>
</trkpt>
<trkpt lat="40.0713749" lon="-105.229789">
  <ele>1583.0</ele>
  <time>2026-08-28T17:55:39Z</time>
  <course>0.0</course>
  <speed>0.0</speed>
  <fix>3d</fix>
</trkpt>
<trkpt lat="40.0713749" lon="-105.229789">
  <ele>1583.0</ele>
  <time>2026-08-28T17:55:39Z</time>
  <course>246.51</course>
  <speed>0.0</speed>
  <fix>3d</fix>
</trkpt>
<trkpt lat="40.0713749" lon="-105.229789">
  <ele>1583.0</ele>
  <time>2026-08-28T17:55:39Z</time>
  <course>0.0</course>
  <speed>0.0</speed>
  <fix>3d</fix>
</trkpt>
<trkpt lat="40.0713749" lon="-105.229789">
  <ele>1583.0</ele>
  <time>2026-08-28T17:55:39Z</time>
  <course>246.6</course>
  <speed>0.0</speed>
  <fix>3d</fix>
</trkpt>
<trkpt lat="40.0713749" lon="-105.229789">
  <ele>1583.0</ele>
  <time>2026-08-28T17:55:39Z</time>
  <course>0.0</course>
  <speed>0.0</speed>
  <fix>3d</fix>
</trkpt>
<trkpt lat="40.0713749" lon="-105.229789">
  <ele>1583.0</ele>
  <time>2026-08-28T17:55:39Z</time>
  <course>246.7</course>
  <speed>0.0</speed>
  <fix>3d</fix>
</trkpt>
<trkpt lat="40.0713749" lon="-105.229789">
  <ele>1583.0</ele>
  <time>2026-08-28T17:55:39Z</time>
  <course>0.0</course>
  <speed>0.0</speed>
  <fix>3d</fix>
</trkpt>
<trkpt lat="40.0713749" lon="-105.229789">
  <ele>1583.0</ele>
  <time>2026-08-28T17:55:39Z</time>
  <course>246.78</course>
  <speed>0.0</speed>
  <fix>3d</fix>
</trkpt>
<trkpt lat="40.0713749" lon="-105.229789">
  <ele>1583.0</ele>
  <time>2026-08-28T17:55:39Z</time>
  <course>0.0</course>
  <speed>0.0</speed>
  <fix>3d</fix>
</trkpt>
<trkpt lat="40.0713749" lon="-105.229789">
  <ele>1583.0</ele>
  <time>2026-08-28T17:55:39Z</time>
  <course>246.87</course>
  <speed>0.0</speed>
  <fix>3d</fix>
</trkpt>
<trkpt lat="40.0713749" lon="-105.229789">
  <ele>1583.0</ele>
  <time>2026-08-28T17:55:39Z</time>
  <course>0.0</course>
  <speed>0.0</speed>
  <fix>3d</fix>
</trkpt>
<trkpt lat="40.0713749" lon="-105.229789">
  <ele>1583.0</ele>
  <time>2026-08-28T17:55:39Z</time>
  <course>246.95</course>
  <speed>0.0</speed>
  <fix>3d</fix>
</trkpt>
<trkpt lat="40.0713749" lon="-105.229789">
  <ele>1583.0</ele>
  <time>2026-08-28T17:55:39Z</time>
  <course>0.0</course>
  <speed>0.0</speed>
  <fix>3d</fix>
</trkpt>
<trkpt lat="40.0713749" lon="-105.229789">
  <ele>1583.0</ele>
  <time>2026-08-28T17:55:39Z</time>
  <course>247.02</course>
  <speed>0.0</speed>
  <fix>3d</fix>
</trkpt>
<trkpt lat="40.0713749" lon="-105.229789">
  <ele>1583.0</ele>
  <time>2026-08-28T17:55:39Z</time>
  <course>0.0</course>
  <speed>0.0</speed>
  <fix>3d</fix>
</trkpt>
<trkpt lat="40.0713749" lon="-105.229789">
  <ele>1583.0</ele>
  <time>2026-08-28T17:55:39Z</time>
  <course>247.1</course>
  <speed>0.0</speed>
  <fix>3d</fix>
</trkpt>
<trkpt lat="40.0713749" lon="-105.229789">
  <ele>1583.0</ele>
  <time>2026-08-28T17:55:39Z</time>
  <course>0.0</course>
  <speed>0.0</speed>
  <fix>3d</fix>
</trkpt>
<trkpt lat="40.0713749" lon="-105.229789">
  <ele>1583.0</ele>
  <time>2026-08-28T17:55:39Z</time>
  <course>247.17</course>
  <speed>0.0</speed>
  <fix>3d</fix>
</trkpt>
<trkpt lat="40.0713749" lon="-105.229789">
  <ele>1583.0</ele>
  <time>2026-08-28T17:55:39Z</time>
  <course>0.0</course>
  <speed>0.0</speed>
  <fix>3d</fix>
</trkpt>
<trkpt lat="40.0713749" lon="-105.229789">
  <ele>1583.0</ele>
  <time>2026-08-28T17:55:39Z</time>
  <course>247.24</course>
  <speed>0.0</speed>
  <fix>3d</fix>
</trkpt>
<trkpt lat="40.0713749" lon="-105.229789">
  <ele>1583.0</ele>
  <time>2026-08-28T17:55:39Z</time>
  <course>0.0</course>
  <speed>0.0</speed>
  <fix>3d</fix>
</trkpt>
<trkpt lat="40.0713749" lon="-105.229789">
  <ele>1583.0</ele>
  <time>2026-08-28T17:55:39Z</time>
  <course>247.3</course>
  <speed>0.0</speed>
  <fix>3d</fix>
</trkpt>
<trkpt lat="40.0713749" lon="-105.229789">
  <ele>1583.0</ele>
  <time>2026-08-28T17:55:39Z</time>
  <course>0.0</course>
  <speed>0.0</speed>
  <fix>3d</fix>
</trkpt>
<trkpt lat="40.0713749" lon="-105.229789">
  <ele>1583.0</ele>
  <time>2026-08-28T17:55:39Z</time>
  <course>247.36</course>
  <speed>0.0</speed>
  <fix>3d</fix>
</trkpt>
<trkpt lat="40.0713749" lon="-105.229789">
  <ele>1583.0</ele>
  <time>2026-08-28T17:55:39Z</time>
  <course>0.0</course>
  <speed>0.0</speed>
  <fix>3d</fix>
</trkpt>
<trkpt lat="40.0713749" lon="-105.229789">
  <ele>1583.0</ele>
  <time>2026-08-28T17:55:39Z</time>
  <course>247.42</course>
  <speed>0.0</speed>
  <fix>3d</fix>
</trkpt>
<trkpt lat="40.0713749" lon="-105.229789">
  <ele>1583.0</ele>
  <time>2026-08-28T17:55:39Z</time>
  <course>0.0</course>
  <speed>0.0</speed>
  <fix>3d</fix>
</trkpt>
<trkpt lat="40.0713749" lon="-105.229789">
  <ele>1583.0</ele>
  <time>2026-08-28T17:55:39Z</time>
  <course>247.47</course>
  <speed>0.0</speed>
  <fix>3d</fix>
</trkpt>
<trkpt lat="40.0713749" lon="-105.229789">
  <ele>1583.0</ele>
  <time>2026-08-28T17:55:39Z</time>
  <course>0.0</course>
  <speed>0.0</speed>
  <fix>3d</fix>
</trkpt>
<trkpt lat="40.0713749" lon="-105.229789">
  <ele>1583.0</ele>
  <time>2026-08-28T17:55:39Z</time>
  <course>247.53</course>
  <speed>0.0</speed>
  <fix>3d</fix>
</trkpt>
<trkpt lat="40.0713749" lon="-105.229789">
  <ele>1583.0</ele>
  <time>2026-08-28T17:55:39Z</time>
  <course>0.0</course>
  <speed>0.0</speed>
  <fix>3d</fix>
</trkpt>
<trkpt lat="40.0713749" lon="-105.229789">
  <ele>1583.0</ele>
  <time>2026-08-28T17:55:39Z</time>
  <course>247.58</course>
  <speed>0.0</speed>
  <fix>3d</fix>
</trkpt>
<trkpt lat="40.0713749" lon="-105.229789">
  <ele>1583.0</ele>
  <time>2026-08-28T17:55:39Z</time>
  <course>0.0</course>
  <speed>0.0</speed>
  <fix>3d</fix>
</trkpt>
<trkpt lat="40.0713749" lon="-105.229789">
  <ele>1583.0</ele>
  <time>2026-08-28T17:55:39Z</time>
  <course>247.63</course>
  <speed>0.0</speed>
  <fix>3d</fix>
</trkpt>
<trkpt lat="40.0713749" lon="-105.229789">
  <ele>1583.0</ele>
  <time>2026-08-28T17:55:39Z</time>
  <course>0.0</course>
  <speed>0.0</speed>
  <fix>3d</fix>
</trkpt>
<trkpt lat="40.0713749" lon="-105.229789">
  <ele>1583.0</ele>
  <time>2026-08-28T17:55:39Z</time>
  <course>247.67</course>
  <speed>0.0</speed>
  <fix>3d</fix>
</trkpt>
<trkpt lat="40.0713749" lon="-105.229789">
  <ele>1583.0</ele>
  <time>2026-08-28T17:55:39Z</time>
  <course>0.0</course>
  <speed>0.0</speed>
  <fix>3d</fix>
</trkpt>
<trkpt lat="40.0713749" lon="-105.229789">
  <ele>1583.0</ele>
  <time>2026-08-28T17:55:39Z</time>
  <course>247.72</course>
  <speed>0.0</speed>
  <fix>3d</fix>
</trkpt>
<trkpt lat="40.0713749" lon="-105.229789">
  <ele>1583.0</ele>
  <time>2026-08-28T17:55:39Z</time>
  <course>0.0</course>
  <speed>0.0</speed>
  <fix>3d</fix>
</trkpt>
<trkpt lat="40.0713749" lon="-105.229789">
  <ele>1583.0</ele>
  <time>2026-08-28T17:55:39Z</time>
  <course>247.76</course>
  <speed>0.0</speed>
  <fix>3d</fix>
</trkpt>
<trkpt lat="40.0713749" lon="-105.229789">
  <ele>1583.0</ele>
  <time>2026-08-28T17:55:39Z</time>
  <course>0.0</course>
  <speed>0.0</speed>
  <fix>3d</fix>
</trkpt>
<trkpt lat="40.0713749" lon="-105.229789">
  <ele>1583.0</ele>
  <time>2026-08-28T17:55:39Z</time>
  <course>247.8</course>
  <speed>0.0</speed>
  <fix>3d</fix>
</trkpt>
<trkpt lat="40.0713749" lon="-105.229789">
  <ele>1583.0</ele>
  <time>2026-08-28T17:55:39Z</time>
  <course>0.0</course>
  <speed>0.0</speed>
  <fix>3d</fix>
</trkpt>
<trkpt lat="40.0713749" lon="-105.229789">
  <ele>1583.0</ele>
  <time>2026-08-28T17:55:39Z</time>
  <course>247.83</course>
  <speed>0.0</speed>
  <fix>3d</fix>
</trkpt>
<trkpt lat="40.0713749" lon="-105.229789">
  <ele>1583.0</ele>
  <time>2026-08-28T17:55:39Z</time>
  <course>0.0</course>
  <speed>0.0</speed>
  <fix>3d</fix>
</trkpt>
<trkpt lat="40.0713749" lon="-105.229789">
  <ele>1583.0</ele>
  <time>2026-08-28T17:55:39Z</time>
  <course>247.87</course>
  <speed>0.0</speed>
  <fix>3d</fix>
</trkpt>
<trkpt lat="40.0713749" lon="-105.229789">
  <ele>1583.0</ele>
  <time>2026-08-28T17:55:39Z</time>
  <course>0.0</course>
  <speed>0.0</speed>
  <fix>3d</fix>
</trkpt>
<trkpt lat="40.0713749" lon="-105.229789">
  <ele>1583.0</ele>
  <time>2026-08-28T17:55:39Z</time>
  <course>247.9</course>
  <speed>0.0</speed>
  <fix>3d</fix>
</trkpt>
<trkpt lat="40.0713749" lon="-105.229789">
  <ele>1583.0</ele>
  <time>2026-08-28T17:55:39Z</time>
  <course>0.0</course>
  <speed>0.0</speed>
  <fix>3d</fix>
</trkpt>
<trkpt lat="40.0713749" lon="-105.229789">
  <ele>1583.0</ele>
  <time>2026-08-28T17:55:39Z</time>
  <course>247.94</course>
  <speed>0.0</speed>
  <fix>3d</fix>
</trkpt>
<trkpt lat="40.0713749" lon="-105.229789">
  <ele>1583.0</ele>
  <time>2026-08-28T17:55:39Z</time>
  <course>0.0</course>
  <speed>0.0</speed>
  <fix>3d</fix>
</trkpt>
<trkpt lat="40.0713749" lon="-105.229789">
  <ele>1583.0</ele>
  <time>2026-08-28T17:55:39Z</time>
  <course>247.97</course>
  <speed>0.0</speed>
  <fix>3d</fix>
</trkpt>
<trkpt lat="40.0713749" lon="-105.229789">
  <ele>1583.0</ele>
  <time>2026-08-28T17:55:39Z</time>
  <course>0.0</course>
  <speed>0.0</speed>
  <fix>3d</fix>
</trkpt>
<trkpt lat="40.0713749" lon="-105.229789">
  <ele>1583.0</ele>
  <time>2026-08-28T17:55:39Z</time>
  <course>248.0</course>
  <speed>0.0</speed>
  <fix>3d</fix>
</trkpt>
<trkpt lat="40.0713749" lon="-105.229789">
  <ele>1583.0</ele>
  <time>2026-08-28T17:55:39Z</time>
  <course>0.0</course>
  <speed>0.0</speed>
  <fix>3d</fix>
</trkpt>
<trkpt lat="40.0713749" lon="-105.229789">
  <ele>1583.0</ele>
  <time>2026-08-28T17:55:39Z</time>
  <course>248.02</course>
  <speed>0.0</speed>
  <fix>3d</fix>
</trkpt>
<trkpt lat="40.0713749" lon="-105.229789">
  <ele>1583.0</ele>
  <time>2026-08-28T17:55:39Z</time>
  <course>0.0</course>
  <speed>0.0</speed>
  <fix>3d</fix>
</trkpt>
<trkpt lat="40.0713749" lon="-105.229789">
  <ele>1583.0</ele>
  <time>2026-08-28T17:55:39Z</time>
  <course>248.05</course>
  <speed>0.0</speed>
  <fix>3d</fix>
</trkpt>
<trkpt lat="40.0713749" lon="-105.229789">
  <ele>1583.0</ele>
  <time>2026-08-28T17:55:39Z</time>
  <course>0.0</course>
  <speed>0.0</speed>
  <fix>3d</fix>
</trkpt>
<trkpt lat="40.0713749" lon="-105.229789">
  <ele>1583.0</ele>
  <time>2026-08-28T17:55:39Z</time>
  <course>248.08</course>
  <speed>0.0</speed>
  <fix>3d</fix>
</trkpt>
<trkpt lat="40.0713749" lon="-105.229789">
  <ele>1583.0</ele>
  <time>2026-08-28T17:55:39Z</time>
  <course>0.0</course>
  <speed>0.0</speed>
  <fix>3d</fix>
</trkpt>
<trkpt lat="40.0713749" lon="-105.229789">
  <ele>1583.0</ele>
  <time>2026-08-28T17:55:39Z</time>
  <course>248.1</course>
  <speed>0.0</speed>
  <fix>3d</fix>
</trkpt>
<trkpt lat="40.0713749" lon="-105.229789">
  <ele>1583.0</ele>
  <time>2026-08-28T17:55:39Z</time>
  <course>0.0</course>
  <speed>0.0</speed>
  <fix>3d</fix>
</trkpt>
<trkpt lat="40.0713749" lon="-105.229789">
  <ele>1583.0</ele>
  <time>2026-08-28T17:55:39Z</time>
  <course>248.12</course>
  <speed>0.0</speed>
  <fix>3d</fix>
</trkpt>
<trkpt lat="40.0713749" lon="-105.229789">
  <ele>1583.0</ele>
  <time>2026-08-28T17:55:39Z</time>
  <course>0.0</course>
  <speed>0.0</speed>
  <fix>3d</fix>
</trkpt>
<trkpt lat="40.0713749" lon="-105.229789">
  <ele>1583.0</ele>
  <time>2026-08-28T17:55:39Z</time>
  <course>248.14</course>
  <speed>0.0</speed>
  <fix>3d</fix>
</trkpt>
<trkpt lat="40.0713749" lon="-105.229789">
  <ele>1583.0</ele>
  <time>2026-08-28T17:55:39Z</time>
  <course>0.0</course>
  <speed>0.0</speed>
  <fix>3d</fix>
</trkpt>
<trkpt lat="40.0713749" lon="-105.229789">
  <ele>1583.0</ele>
  <time>2026-08-28T17:55:39Z</time>
  <course>248.16</course>
  <speed>0.0</speed>
  <fix>3d</fix>
</trkpt>
<trkpt lat="40.0713749" lon="-105.229789">
  <ele>1583.0</ele>
  <time>2026-08-28T17:55:39Z</time>
  <course>0.0</course>
  <speed>0.0</speed>
  <fix>3d</fix>
</trkpt>
<trkpt lat="40.0713749" lon="-105.229789">
  <ele>1583.0</ele>
  <time>2026-08-28T17:55:39Z</time>
  <course>248.18</course>
  <speed>0.0</speed>
  <fix>3d</fix>
</trkpt>
<trkpt lat="40.0713749" lon="-105.229789">
  <ele>1583.0</ele>
  <time>2026-08-28T17:55:39Z</time>
  <course>0.0</course>
  <speed>0.0</speed>
  <fix>3d</fix>
</trkpt>
<trkpt lat="40.0713749" lon="-105.229789">
  <ele>1583.0</ele>
  <time>2026-08-28T17:55:39Z</time>
  <course>248.2</course>
  <speed>0.0</speed>
  <fix>3d</fix>
</trkpt>
<trkpt lat="40.0713749" lon="-105.229789">
  <ele>1583.0</ele>
  <time>2026-08-28T17:55:39Z</time>
  <course>0.0</course>
  <speed>0.0</speed>
  <fix>3d</fix>
</trkpt>
<trkpt lat="40.0713749" lon="-105.229789">
  <ele>1583.0</ele>
  <time>2026-08-28T17:55:39Z</time>
  <course>248.22</course>
  <speed>0.0</speed>
  <fix>3d</fix>
</trkpt>
<trkpt lat="40.0713749" lon="-105.229789">
  <ele>1583.0</ele>
  <time>2026-08-28T17:55:39Z</time>
  <course>0.0</course>
  <speed>0.0</speed>
  <fix>3d</fix>
</trkpt>
<trkpt lat="40.0713749" lon="-105.229789">
  <ele>1583.0</ele>
  <time>2026-08-28T17:55:39Z</time>
  <course>248.23</course>
  <speed>0.0</speed>
  <fix>3d</fix>
</trkpt>
<trkpt lat="40.0713749" lon="-105.229789">
  <ele>1583.0</ele>
  <time>2026-08-28T17:55:39Z</time>
  <course>0.0</course>
  <speed>0.0</speed>
  <fix>3d</fix>
</trkpt>
<trkpt lat="40.0713749" lon="-105.229789">
  <ele>1583.0</ele>
  <time>2026-08-28T17:55:39Z</time>
  <course>248.25</course>
  <speed>0.0</speed>
  <fix>3d</fix>
</trkpt>
<trkpt lat="40.0713749" lon="-105.229789">
  <ele>1583.0</ele>
  <time>2026-08-28T17:55:39Z</time>
  <course>0.0</course>
  <speed>0.0</speed>
  <fix>3d</fix>
</trkpt>
<trkpt lat="40.0713749" lon="-105.229789">
  <ele>1583.0</ele>
  <time>2026-08-28T17:55:39Z</time>
  <course>248.26</course>
  <speed>0.0</speed>
  <fix>3d</fix>
</trkpt>
<trkpt lat="40.0713749" lon="-105.229789">
  <ele>1583.0</ele>
  <time>2026-08-28T17:55:39Z</time>
  <course>0.0</course>
  <speed>0.0</speed>
  <fix>3d</fix>
</trkpt>
<trkpt lat="40.0713749" lon="-105.229789">
  <ele>1583.0</ele>
  <time>2026-08-28T17:55:39Z</time>
  <course>248.28</course>
  <speed>0.0</speed>
  <fix>3d</fix>
</trkpt>
<trkpt lat="40.0713749" lon="-105.229789">
  <ele>1583.0</ele>
  <time>2026-08-28T17:55:39Z</time>
  <course>0.0</course>
  <speed>0.0</speed>
  <fix>3d</fix>
</trkpt>
<trkpt lat="40.0713749" lon="-105.229789">
  <ele>1583.0</ele>
  <time>2026-08-28T17:55:39Z</time>
  <course>248.29</course>
  <speed>0.0</speed>
  <fix>3d</fix>
</trkpt>
<trkpt lat="40.0713749" lon="-105.229789">
  <ele>1583.0</ele>
  <time>2026-08-28T17:55:39Z</time>
  <course>0.0</course>
  <speed>0.0</speed>
  <fix>3d</fix>
</trkpt>
<trkpt lat="40.0713749" lon="-105.229789">
  <ele>1583.0</ele>
  <time>2026-08-28T17:55:39Z</time>
  <course>248.3</course>
  <speed>0.0</speed>
  <fix>3d</fix>
</trkpt>
<trkpt lat="40.0713749" lon="-105.229789">
  <ele>1583.0</ele>
  <time>2026-08-28T17:55:39Z</time>
  <course>0.0</course>
  <speed>0.0</speed>
  <fix>3d</fix>
</trkpt>
<trkpt lat="40.0713749" lon="-105.229789">
  <ele>1583.0</ele>
  <time>2026-08-28T17:55:39Z</time>
  <course>248.31</course>
  <speed>0.0</speed>
  <fix>3d</fix>
</trkpt>
<trkpt lat="40.0713749" lon="-105.229789">
  <ele>1583.0</ele>
  <time>2026-08-28T17:55:39Z</time>
  <course>0.0</course>
  <speed>0.0</speed>
  <fix>3d</fix>
</trkpt>
<trkpt lat="40.0713749" lon="-105.229789">
  <ele>1583.0</ele>
  <time>2026-08-28T17:55:39Z</time>
  <course>248.32</course>
  <speed>0.0</speed>
  <fix>3d</fix>
</trkpt>
<trkpt lat="40.0713749" lon="-105.229789">
  <ele>1583.0</ele>
  <time>2026-08-28T17:55:39Z</time>
  <course>0.0</course>
  <speed>0.0</speed>
  <fix>3d</fix>
</trkpt>
<trkpt lat="40.0713749" lon="-105.229789">
  <ele>1583.0</ele>
  <time>2026-08-28T17:55:39Z</time>
  <course>248.33</course>
  <speed>0.0</speed>
  <fix>3d</fix>
</trkpt>
<trkpt lat="40.0713749" lon="-105.229789">
  <ele>1583.0</ele>
  <time>2026-08-28T17:55:39Z</time>
  <course>0.0</course>
  <speed>0.0</speed>
  <fix>3d</fix>
</trkpt>
<trkpt lat="40.0713749" lon="-105.229789">
  <ele>1583.0</ele>
  <time>2026-08-28T17:55:39Z</time>
  <course>248.34</course>
  <speed>0.0</speed>
  <fix>3d</fix>
</trkpt>
<trkpt lat="40.0713749" lon="-105.229789">
  <ele>1583.0</ele>
  <time>2026-08-28T17:55:39Z</time>
  <course>0.0</course>
  <speed>0.0</speed>
  <fix>3d</fix>
</trkpt>
<trkpt lat="40.0713749" lon="-105.229789">
  <ele>1583.0</ele>
  <time>2026-08-28T17:55:39Z</time>
  <course>248.35</course>
  <speed>0.0</speed>
  <fix>3d</fix>
</trkpt>
<trkpt lat="40.0713749" lon="-105.229789">
  <ele>1583.0</ele>
  <time>2026-08-28T17:55:39Z</time>
  <course>0.0</course>
  <speed>0.0</speed>
  <fix>3d</fix>
</trkpt>
<trkpt lat="40.0713749" lon="-105.229789">
  <ele>1583.0</ele>
  <time>2026-08-28T17:55:39Z</time>
  <course>248.35</course>
  <speed>0.0</speed>
  <fix>3d</fix>
</trkpt>
<trkpt lat="40.0713749" lon="-105.229789">
  <ele>1583.0</ele>
  <time>2026-08-28T17:55:39Z</time>
  <course>0.0</course>
  <speed>0.0</speed>
  <fix>3d</fix>
</trkpt>
<trkpt lat="40.0713749" lon="-105.229789">
  <ele>1583.0</ele>
  <time>2026-08-28T17:55:39Z</time>
  <course>248.36</course>
  <speed>0.0</speed>
  <fix>3d</fix>
</trkpt>
<trkpt lat="40.0713749" lon="-105.229789">
  <ele>1583.0</ele>
  <time>2026-08-28T17:55:39Z</time>
  <course>0.0</course>
  <speed>0.0</speed>
  <fix>3d</fix>
</trkpt>
<trkpt lat="40.0713749" lon="-105.229789">
  <ele>1583.0</ele>
  <time>2026-08-28T17:55:39Z</time>
  <course>248.37</course>
  <speed>0.0</speed>
  <fix>3d</fix>
</trkpt>
<trkpt lat="40.0713749" lon="-105.229789">
  <ele>1583.0</ele>
  <time>2026-08-28T17:55:39Z</time>
  <course>0.0</course>
  <speed>0.0</speed>
  <fix>3d</fix>
</trkpt>
<trkpt lat="40.0713749" lon="-105.229789">
  <ele>1583.0</ele>
  <time>2026-08-28T17:55:39Z</time>
  <course>248.37</course>
  <speed>0.0</speed>
  <fix>3d</fix>
</trkpt>
<trkpt lat="40.0713749" lon="-105.229789">
  <ele>1583.0</ele>
  <time>2026-08-28T17:55:39Z</time>
  <course>0.0</course>
  <speed>0.0</speed>
  <fix>3d</fix>
</trkpt>
<trkpt lat="40.0713749" lon="-105.229789">
  <ele>1583.0</ele>
  <time>2026-08-28T17:55:39Z</time>
  <course>248.38</course>
  <speed>0.0</speed>
  <fix>3d</fix>
</trkpt>
<trkpt lat="40.0713749" lon="-105.229789">
  <ele>1583.0</ele>
  <time>2026-08-28T17:55:39Z</time>
  <course>0.0</course>
  <speed>0.0</speed>
  <fix>3d</fix>
</trkpt>
<trkpt lat="40.0713749" lon="-105.229789">
  <ele>1583.0</ele>
  <time>2026-08-28T17:55:39Z</time>
  <course>248.38</course>
  <speed>0.0</speed>
  <fix>3d</fix>
</trkpt>
<trkpt lat="40.0713749" lon="-105.229789">
  <ele>1583.0</ele>
  <time>2026-08-28T17:55:39Z</time>
  <course>0.0</course>
  <speed>0.0</speed>
  <fix>3d</fix>
</trkpt>
<trkpt lat="40.0713749" lon="-105.229789">
  <ele>1583.0</ele>
  <time>2026-08-28T17:55:39Z</time>
  <course>248.39</course>
  <speed>0.0</speed>
  <fix>3d</fix>
</trkpt>
<trkpt lat="40.0713749" lon="-105.229789">
  <ele>1583.0</ele>
  <time>2026-08-28T17:55:39Z</time>
  <course>0.0</course>
  <speed>0.0</speed>
  <fix>3d</fix>
</trkpt>
<trkpt lat="40.0713749" lon="-105.229789">
  <ele>1583.0</ele>
  <time>2026-08-28T17:55:39Z</time>
  <course>248.39</course>
  <speed>0.0</speed>
  <fix>3d</fix>
</trkpt>
<trkpt lat="40.0713749" lon="-105.229789">
  <ele>1583.0</ele>
  <time>2026-08-28T17:55:39Z</time>
  <course>0.0</course>
  <speed>0.0</speed>
  <fix>3d</fix>
</trkpt>
<trkpt lat="40.0713749" lon="-105.229789">
  <ele>1583.0</ele>
  <time>2026-08-28T17:55:39Z</time>
  <course>248.4</course>
  <speed>0.0</speed>
  <fix>3d</fix>
</trkpt>
<trkpt lat="40.0713749" lon="-105.229789">
  <ele>1583.0</ele>
  <time>2026-08-28T17:55:39Z</time>
  <course>0.0</course>
  <speed>0.0</speed>
  <fix>3d</fix>
</trkpt>
<trkpt lat="40.0713749" lon="-105.229789">
  <ele>1583.0</ele>
  <time>2026-08-28T17:55:39Z</time>
  <course>248.4</course>
  <speed>0.0</speed>
  <fix>3d</fix>
</trkpt>
<trkpt lat="40.0713749" lon="-105.229789">
  <ele>1583.0</ele>
  <time>2026-08-28T17:55:39Z</time>
  <course>0.0</course>
  <speed>0.0</speed>
  <fix>3d</fix>
</trkpt>
<trkpt lat="40.0713749" lon="-105.229789">
  <ele>1583.0</ele>
  <time>2026-08-28T17:55:39Z</time>
  <course>248.4</course>
  <speed>0.0</speed>
  <fix>3d</fix>
</trkpt>
<trkpt lat="40.0713749" lon="-105.229789">
  <ele>1583.0</ele>
  <time>2026-08-28T17:55:39Z</time>
  <course>0.0</course>
  <speed>0.0</speed>
  <fix>3d</fix>
</trkpt>
<trkpt lat="40.0713749" lon="-105.229789">
  <ele>1583.0</ele>
  <time>2026-08-28T17:55:39Z</time>
  <course>248.4</course>
  <speed>0.0</speed>
  <fix>3d</fix>
</trkpt>
<trkpt lat="40.0713749" lon="-105.229789">
  <ele>1583.0</ele>
  <time>2026-08-28T17:55:39Z</time>
  <course>0.0</course>
  <speed>0.0</speed>
  <fix>3d</fix>
</trkpt>
<trkpt lat="40.0713749" lon="-105.229789">
  <ele>1583.0</ele>
  <time>2026-08-28T17:55:39Z</time>
  <course>248.41</course>
  <speed>0.0</speed>
  <fix>3d</fix>
</trkpt>
<trkpt lat="40.0713749" lon="-105.229789">
  <ele>1583.0</ele>
  <time>2026-08-28T17:55:39Z</time>
  <course>0.0</course>
  <speed>0.0</speed>
  <fix>3d</fix>
</trkpt>
<trkpt lat="40.0713749" lon="-105.229789">
  <ele>1583.0</ele>
  <time>2026-08-28T17:55:39Z</time>
  <course>248.41</course>
  <speed>0.0</speed>
  <fix>3d</fix>
</trkpt>
<trkpt lat="40.0713749" lon="-105.229789">
  <ele>1583.0</ele>
  <time>2026-08-28T17:55:39Z</time>
  <course>0.0</course>
  <speed>0.0</speed>
  <fix>3d</fix>
</trkpt>
<trkpt lat="40.0713749" lon="-105.229789">
  <ele>1583.0</ele>
  <time>2026-08-28T17:55:39Z</time>
  <course>248.41</course>
  <speed>0.0</speed>
  <fix>3d</fix>
</trkpt>
<trkpt lat="40.0713749" lon="-105.229789">
  <ele>1583.0</ele>
  <time>2026-08-28T17:55:39Z</time>
  <course>0.0</course>
  <speed>0.0</speed>
  <fix>3d</fix>
</trkpt>
<trkpt lat="40.0713749" lon="-105.229789">
  <ele>1583.0</ele>
  <time>2026-08-28T17:55:39Z</time>
  <course>248.41</course>
  <speed>0.0</speed>
  <fix>3d</fix>
</trkpt>
<trkpt lat="40.0713749" lon="-105.229789">
  <ele>1583.0</ele>
  <time>2026-08-28T17:55:39Z</time>
  <course>0.0</course>
  <speed>0.0</speed>
  <fix>3d</fix>
</trkpt>
<trkpt lat="40.0713749" lon="-105.229789">
  <ele>1583.0</ele>
  <time>2026-08-28T17:55:39Z</time>
  <course>248.41</course>
  <speed>0.0</speed>
  <fix>3d</fix>
</trkpt>
<trkpt lat="40.0713749" lon="-105.229789">
  <ele>1583.0</ele>
  <time>2026-08-28T17:55:39Z</time>
  <course>0.0</course>
  <speed>0.0</speed>
  <fix>3d</fix>
</trkpt>
<trkpt lat="40.0713749" lon="-105.229789">
  <ele>1583.0</ele>
  <time>2026-08-28T17:55:39Z</time>
  <course>248.41</course>
  <speed>0.0</speed>
  <fix>3d</fix>
</trkpt>
<trkpt lat="40.0713749" lon="-105.229789">
  <ele>1583.0</ele>
  <time>2026-08-28T17:55:39Z</time>
  <course>0.0</course>
  <speed>0.0</speed>
  <fix>3d</fix>
</trkpt>
<trkpt lat="40.0713749" lon="-105.229789">
  <ele>1583.0</ele>
  <time>2026-08-28T17:55:39Z</time>
  <course>248.41</course>
  <speed>0.0</speed>
  <fix>3d</fix>
</trkpt>
<trkpt lat="40.0713749" lon="-105.229789">
  <ele>1583.0</ele>
  <time>2026-08-28T17:55:39Z</time>
  <course>0.0</course>
  <speed>0.0</speed>
  <fix>3d</fix>
</trkpt>
<trkpt lat="40.0713749" lon="-105.229789">
  <ele>1583.0</ele>
  <time>2026-08-28T17:55:39Z</time>
  <course>248.41</course>
  <speed>0.0</speed>
  <fix>3d</fix>
</trkpt>
<trkpt lat="40.0713749" lon="-105.229789">
  <ele>1583.0</ele>
  <time>2026-08-28T17:55:39Z</time>
  <course>0.0</course>
  <speed>0.0</speed>
  <fix>3d</fix>
</trkpt>
<trkpt lat="40.0713749" lon="-105.229789">
  <ele>1583.0</ele>
  <time>2026-08-28T17:55:39Z</time>
  <course>248.41</course>
  <speed>0.0</speed>
  <fix>3d</fix>
</trkpt>
<trkpt lat="40.0713749" lon="-105.229789">
  <ele>1583.0</ele>
  <time>2026-08-28T17:55:39Z</time>
  <course>0.0</course>
  <speed>0.0</speed>
  <fix>3d</fix>
</trkpt>
<trkpt lat="40.0713749" lon="-105.229789">
  <ele>1583.0</ele>
  <time>2026-08-28T17:55:39Z</time>
  <course>248.41</course>
  <speed>0.0</speed>
  <fix>3d</fix>
</trkpt>
<trkpt lat="40.0713749" lon="-105.229789">
  <ele>1583.0</ele>
  <time>2026-08-28T17:55:39Z</time>
  <course>0.0</course>
  <speed>0.0</speed>
  <fix>3d</fix>
</trkpt>
<trkpt lat="40.0713749" lon="-105.229789">
  <ele>1583.0</ele>
  <time>2026-08-28T17:55:39Z</time>
  <course>248.41</course>
  <speed>0.0</speed>
  <fix>3d</fix>
</trkpt>
<trkpt lat="40.0713749" lon="-105.229789">
  <ele>1583.0</ele>
  <time>2026-08-28T17:55:39Z</time>
  <course>0.0</course>
  <speed>0.0</speed>
  <fix>3d</fix>
</trkpt>
<trkpt lat="40.0713749" lon="-105.229789">
  <ele>1583.0</ele>
  <time>2026-08-28T17:55:39Z</time>
  <course>248.41</course>
  <speed>0.0</speed>
  <fix>3d</fix>
</trkpt>
<trkpt lat="40.0713749" lon="-105.229789">
  <ele>1583.0</ele>
  <time>2026-08-28T17:55:39Z</time>
  <course>0.0</course>
  <speed>0.0</speed>
  <fix>3d</fix>
</trkpt>
<trkpt lat="40.0713749" lon="-105.229789">
  <ele>1583.0</ele>
  <time>2026-08-28T17:55:39Z</time>
  <course>248.41</course>
  <speed>0.0</speed>
  <fix>3d</fix>
</trkpt>
<trkpt lat="40.0713749" lon="-105.229789">
  <ele>1583.0</ele>
  <time>2026-08-28T17:55:39Z</time>
  <course>0.0</course>
  <speed>0.0</speed>
  <fix>3d</fix>
</trkpt>
<trkpt lat="40.0713749" lon="-105.229789">
  <ele>1583.0</ele>
  <time>2026-08-28T17:55:39Z</time>
  <course>248.41</course>
  <speed>0.0</speed>
  <fix>3d</fix>
</trkpt>
<trkpt lat="40.0713749" lon="-105.229789">
  <ele>1583.0</ele>
  <time>2026-08-28T17:55:39Z</time>
  <course>0.0</course>
  <speed>0.0</speed>
  <fix>3d</fix>
</trkpt>
<trkpt lat="40.0713749" lon="-105.229789">
  <ele>1583.0</ele>
  <time>2026-08-28T17:55:39Z</time>
  <course>248.41</course>
  <speed>0.0</speed>
  <fix>3d</fix>
</trkpt>
<trkpt lat="40.0713749" lon="-105.229789">
  <ele>1583.0</ele>
  <time>2026-08-28T17:55:39Z</time>
  <course>0.0</course>
  <speed>0.0</speed>
  <fix>3d</fix>
</trkpt>
<trkpt lat="40.0713749" lon="-105.229789">
  <ele>1583.0</ele>
  <time>2026-08-28T17:55:39Z</time>
  <course>248.41</course>
  <speed>0.0</speed>
  <fix>3d</fix>
</trkpt>
<trkpt lat="40.0713749" lon="-105.229789">
  <ele>1583.0</ele>
  <time>2026-08-28T17:55:39Z</time>
  <course>0.0</course>
  <speed>0.0</speed>
  <fix>3d</fix>
</trkpt>
<trkpt lat="40.0713749" lon="-105.229789">
  <ele>1583.0</ele>
  <time>2026-08-28T17:55:39Z</time>
  <course>248.4</course>
  <speed>0.0</speed>
  <fix>3d</fix>
</trkpt>
<trkpt lat="40.0713749" lon="-105.229789">
  <ele>1583.0</ele>
  <time>2026-08-28T17:55:39Z</time>
  <course>0.0</course>
  <speed>0.0</speed>
  <fix>3d</fix>
</trkpt>
<trkpt lat="40.0713749" lon="-105.229789">
  <ele>1583.0</ele>
  <time>2026-08-28T17:55:39Z</time>
  <course>248.4</course>
  <speed>0.01</speed>
  <fix>3d</fix>
</trkpt>
<trkpt lat="40.0713749" lon="-105.229789">
  <ele>1583.0</ele>
  <time>2026-08-28T17:55:39Z</time>
  <course>0.0</course>
  <speed>0.0</speed>
  <fix>3d</fix>
</trkpt>
<trkpt lat="40.0713749" lon="-105.229789">
  <ele>1583.0</ele>
  <time>2026-08-28T17:55:39Z</time>
  <course>248.4</course>
  <speed>0.01</speed>
  <fix>3d</fix>
</trkpt>
<trkpt lat="40.0713749" lon="-105.229789">
  <ele>1583.0</ele>
  <time>2026-08-28T17:55:39Z</time>
  <course>0.0</course>
  <speed>0.0</speed>
  <fix>3d</fix>
</trkpt>
<trkpt lat="40.0713749" lon="-105.229789">
  <ele>1583.0</ele>
  <time>2026-08-28T17:55:39Z</time>
  <course>248.4</course>
  <speed>0.01</speed>
  <fix>3d</fix>
</trkpt>
<trkpt lat="40.0713749" lon="-105.229789">
  <ele>1583.0</ele>
  <time>2026-08-28T17:55:39Z</time>
  <course>0.0</course>
  <speed>0.0</speed>
  <fix>3d</fix>
</trkpt>
<trkpt lat="40.0713749" lon="-105.229789">
  <ele>1583.0</ele>
  <time>2026-08-28T17:55:39Z</time>
  <course>248.4</course>
  <speed>0.01</speed>
  <fix>3d</fix>
</trkpt>
<trkpt lat="40.0713749" lon="-105.229789">
  <ele>1583.0</ele>
  <time>2026-08-28T17:55:39Z</time>
  <course>0.0</course>
  <speed>0.0</speed>
  <fix>3d</fix>
</trkpt>
<trkpt lat="40.0713749" lon="-105.229789">
  <ele>1583.0</ele>
  <time>2026-08-28T17:55:39Z</time>
  <course>248.39</course>
  <speed>0.01</speed>
  <fix>3d</fix>
</trkpt>
<trkpt lat="40.0713749" lon="-105.229789">
  <ele>1583.0</ele>
  <time>2026-08-28T17:55:39Z</time>
  <course>0.0</course>
  <speed>0.0</speed>
  <fix>3d</fix>
</trkpt>
<trkpt lat="40.0713749" lon="-105.229789">
  <ele>1583.0</ele>
  <time>2026-08-28T17:55:39Z</time>
  <course>248.39</course>
  <speed>0.01</speed>
  <fix>3d</fix>
</trkpt>
<trkpt lat="40.0713749" lon="-105.229789">
  <ele>1583.0</ele>
  <time>2026-08-28T17:55:39Z</time>
  <course>0.0</course>
  <speed>0.0</speed>
  <fix>3d</fix>
</trkpt>
<trkpt lat="40.0713749" lon="-105.229789">
  <ele>1583.0</ele>
  <time>2026-08-28T17:55:39Z</time>
  <course>248.39</course>
  <speed>0.01</speed>
  <fix>3d</fix>
</trkpt>
<trkpt lat="40.0713749" lon="-105.229789">
  <ele>1583.0</ele>
  <time>2026-08-28T17:55:39Z</time>
  <course>0.0</course>
  <speed>0.0</speed>
  <fix>3d</fix>
</trkpt>
<trkpt lat="40.0713749" lon="-105.229789">
  <ele>1583.0</ele>
  <time>2026-08-28T17:55:39Z</time>
  <course>248.38</course>
  <speed>0.01</speed>
  <fix>3d</fix>
</trkpt>
<trkpt lat="40.0713749" lon="-105.229789">
  <ele>1583.0</ele>
  <time>2026-08-28T17:55:39Z</time>
  <course>0.0</course>
  <speed>0.0</speed>
  <fix>3d</fix>
</trkpt>
<trkpt lat="40.0713749" lon="-105.229789">
  <ele>1583.0</ele>
  <time>2026-08-28T17:55:39Z</time>
  <course>248.38</course>
  <speed>0.01</speed>
  <fix>3d</fix>
</trkpt>
<trkpt lat="40.0713749" lon="-105.229789">
  <ele>1583.0</ele>
  <time>2026-08-28T17:55:39Z</time>
  <course>0.0</course>
  <speed>0.0</speed>
  <fix>3d</fix>
</trkpt>
<trkpt lat="40.0713749" lon="-105.229789">
  <ele>1583.0</ele>
  <time>2026-08-28T17:55:39Z</time>
  <course>248.38</course>
  <speed>0.01</speed>
  <fix>3d</fix>
</trkpt>
<trkpt lat="40.0713749" lon="-105.229789">
  <ele>1583.0</ele>
  <time>2026-08-28T17:55:39Z</time>
  <course>0.0</course>
  <speed>0.0</speed>
  <fix>3d</fix>
</trkpt>
<trkpt lat="40.0713749" lon="-105.229789">
  <ele>1583.0</ele>
  <time>2026-08-28T17:55:39Z</time>
  <course>248.37</course>
  <speed>0.01</speed>
  <fix>3d</fix>
</trkpt>
<trkpt lat="40.0713749" lon="-105.229789">
  <ele>1583.0</ele>
  <time>2026-08-28T17:55:39Z</time>
  <course>0.0</course>
  <speed>0.0</speed>
  <fix>3d</fix>
</trkpt>
<trkpt lat="40.0713749" lon="-105.229789">
  <ele>1583.0</ele>
  <time>2026-08-28T17:55:39Z</time>
  <course>248.37</course>
  <speed>0.01</speed>
  <fix>3d</fix>
</trkpt>
<trkpt lat="40.0713749" lon="-105.229789">
  <ele>1583.0</ele>
  <time>2026-08-28T17:55:39Z</time>
  <course>0.0</course>
  <speed>0.0</speed>
  <fix>3d</fix>
</trkpt>
<trkpt lat="40.0713749" lon="-105.229789">
  <ele>1583.0</ele>
  <time>2026-08-28T17:55:39Z</time>
  <course>248.37</course>
  <speed>0.01</speed>
  <fix>3d</fix>
</trkpt>
<trkpt lat="40.0713749" lon="-105.229789">
  <ele>1583.0</ele>
  <time>2026-08-28T17:55:39Z</time>
  <course>0.0</course>
  <speed>0.0</speed>
  <fix>3d</fix>
</trkpt>
<trkpt lat="40.0713749" lon="-105.229789">
  <ele>1583.0</ele>
  <time>2026-08-28T17:55:39Z</time>
  <course>248.36</course>
  <speed>0.01</speed>
  <fix>3d</fix>
</trkpt>
<trkpt lat="40.0713749" lon="-105.229789">
  <ele>1583.0</ele>
  <time>2026-08-28T17:55:39Z</time>
  <course>0.0</course>
  <speed>0.0</speed>
  <fix>3d</fix>
</trkpt>
<trkpt lat="40.0713749" lon="-105.229789">
  <ele>1583.0</ele>
  <time>2026-08-28T17:55:39Z</time>
  <course>248.36</course>
  <speed>0.01</speed>
  <fix>3d</fix>
</trkpt>
<trkpt lat="40.0713749" lon="-105.229789">
  <ele>1583.0</ele>
  <time>2026-08-28T17:55:39Z</time>
  <course>0.0</course>
  <speed>0.0</speed>
  <fix>3d</fix>
</trkpt>
<trkpt lat="40.0713749" lon="-105.229789">
  <ele>1583.0</ele>
  <time>2026-08-28T17:55:39Z</time>
  <course>248.36</course>
  <speed>0.01</speed>
  <fix>3d</fix>
</trkpt>
<trkpt lat="40.0713749" lon="-105.229789">
  <ele>1583.0</ele>
  <time>2026-08-28T17:55:39Z</time>
  <course>0.0</course>
  <speed>0.0</speed>
  <fix>3d</fix>
</trkpt>
<trkpt lat="40.0713749" lon="-105.229789">
  <ele>1583.0</ele>
  <time>2026-08-28T17:55:39Z</time>
  <course>248.35</course>
  <speed>0.01</speed>
  <fix>3d</fix>
</trkpt>
<trkpt lat="40.0713749" lon="-105.229789">
  <ele>1583.0</ele>
  <time>2026-08-28T17:55:39Z</time>
  <course>0.0</course>
  <speed>0.0</speed>
  <fix>3d</fix>
</trkpt>
<trkpt lat="40.0713749" lon="-105.229789">
  <ele>1583.0</ele>
  <time>2026-08-28T17:55:39Z</time>
  <course>248.35</course>
  <speed>0.01</speed>
  <fix>3d</fix>
</trkpt>
<trkpt lat="40.0713749" lon="-105.229789">
  <ele>1583.0</ele>
  <time>2026-08-28T17:55:39Z</time>
  <course>0.0</course>
  <speed>0.0</speed>
  <fix>3d</fix>
</trkpt>
<trkpt lat="40.0713749" lon="-105.229789">
  <ele>1583.0</ele>
  <time>2026-08-28T17:55:39Z</time>
  <course>248.35</course>
  <speed>0.01</speed>
  <fix>3d</fix>
</trkpt>
<trkpt lat="40.0713749" lon="-105.229789">
  <ele>1583.0</ele>
  <time>2026-08-28T17:55:39Z</time>
  <course>0.0</course>
  <speed>0.0</speed>
  <fix>3d</fix>
</trkpt>
<trkpt lat="40.0713749" lon="-105.229789">
  <ele>1583.0</ele>
  <time>2026-08-28T17:55:39Z</time>
  <course>248.34</course>
  <speed>0.01</speed>
  <fix>3d</fix>
</trkpt>
<trkpt lat="40.0713749" lon="-105.229789">
  <ele>1583.0</ele>
  <time>2026-08-28T17:55:39Z</time>
  <course>0.0</course>
  <speed>0.0</speed>
  <fix>3d</fix>
</trkpt>
<trkpt lat="40.0713749" lon="-105.229789">
  <ele>1583.0</ele>
  <time>2026-08-28T17:55:39Z</time>
  <course>248.34</course>
  <speed>0.01</speed>
  <fix>3d</fix>
</trkpt>
<trkpt lat="40.0713749" lon="-105.229789">
  <ele>1583.0</ele>
  <time>2026-08-28T17:55:39Z</time>
  <course>0.0</course>
  <speed>0.0</speed>
  <fix>3d</fix>
</trkpt>
<trkpt lat="40.0713749" lon="-105.229789">
  <ele>1583.0</ele>
  <time>2026-08-28T17:55:39Z</time>
  <course>248.33</course>
  <speed>0.01</speed>
  <fix>3d</fix>
</trkpt>
<trkpt lat="40.0713749" lon="-105.229789">
  <ele>1583.0</ele>
  <time>2026-08-28T17:55:39Z</time>
  <course>0.0</course>
  <speed>0.0</speed>
  <fix>3d</fix>
</trkpt>
<trkpt lat="40.0713749" lon="-105.229789">
  <ele>1583.0</ele>
  <time>2026-08-28T17:55:39Z</time>
  <course>248.33</course>
  <speed>0.01</speed>
  <fix>3d</fix>
</trkpt>
<trkpt lat="40.0713749" lon="-105.229789">
  <ele>1583.0</ele>
  <time>2026-08-28T17:55:39Z</time>
  <course>0.0</course>
  <speed>0.0</speed>
  <fix>3d</fix>
</trkpt>
<trkpt lat="40.0713749" lon="-105.229789">
  <ele>1583.0</ele>
  <time>2026-08-28T17:55:39Z</time>
  <course>248.32</course>
  <speed>0.01</speed>
  <fix>3d</fix>
</trkpt>
<trkpt lat="40.0713749" lon="-105.229789">
  <ele>1583.0</ele>
  <time>2026-08-28T17:55:39Z</time>
  <course>0.0</course>
  <speed>0.0</speed>
  <fix>3d</fix>
</trkpt>
<trkpt lat="40.0713749" lon="-105.229789">
  <ele>1583.0</ele>
  <time>2026-08-28T17:55:39Z</time>
  <course>248.32</course>
  <speed>0.01</speed>
  <fix>3d</fix>
</trkpt>
<trkpt lat="40.0713749" lon="-105.229789">
  <ele>1583.0</ele>
  <time>2026-08-28T17:55:39Z</time>
  <course>0.0</course>
  <speed>0.0</speed>
  <fix>3d</fix>
</trkpt>
<trkpt lat="40.0713749" lon="-105.229789">
  <ele>1583.0</ele>
  <time>2026-08-28T17:55:39Z</time>
  <course>248.32</course>
  <speed>0.01</speed>
  <fix>3d</fix>
</trkpt>
<trkpt lat="40.0713749" lon="-105.229789">
  <ele>1583.0</ele>
  <time>2026-08-28T17:55:39Z</time>
  <course>0.0</course>
  <speed>0.0</speed>
  <fix>3d</fix>
</trkpt>
<trkpt lat="40.0713749" lon="-105.229789">
  <ele>1583.0</ele>
  <time>2026-08-28T17:55:39Z</time>
  <course>248.31</course>
  <speed>0.01</speed>
  <fix>3d</fix>
</trkpt>
<trkpt lat="40.0713749" lon="-105.229789">
  <ele>1583.0</ele>
  <time>2026-08-28T17:55:39Z</time>
  <course>0.0</course>
  <speed>0.0</speed>
  <fix>3d</fix>
</trkpt>
<trkpt lat="40.0713749" lon="-105.229789">
  <ele>1583.0</ele>
  <time>2026-08-28T17:55:39Z</time>
  <course>248.31</course>
  <speed>0.01</speed>
  <fix>3d</fix>
</trkpt>
<trkpt lat="40.0713749" lon="-105.229789">
  <ele>1583.0</ele>
  <time>2026-08-28T17:55:39Z</time>
  <course>0.0</course>
  <speed>0.0</speed>
  <fix>3d</fix>
</trkpt>
<trkpt lat="40.0713749" lon="-105.229789">
  <ele>1583.0</ele>
  <time>2026-08-28T17:55:39Z</time>
  <course>248.3</course>
  <speed>0.01</speed>
  <fix>3d</fix>
</trkpt>
<trkpt lat="40.0713749" lon="-105.229789">
  <ele>1583.0</ele>
  <time>2026-08-28T17:55:39Z</time>
  <course>0.0</course>
  <speed>0.0</speed>
  <fix>3d</fix>
</trkpt>
<trkpt lat="40.0713749" lon="-105.229789">
  <ele>1583.0</ele>
  <time>2026-08-28T17:55:39Z</time>
  <course>248.3</course>
  <speed>0.01</speed>
  <fix>3d</fix>
</trkpt>
<trkpt lat="40.0713749" lon="-105.229789">
  <ele>1583.0</ele>
  <time>2026-08-28T17:55:39Z</time>
  <course>0.0</course>
  <speed>0.0</speed>
  <fix>3d</fix>
</trkpt>
<trkpt lat="40.0713749" lon="-105.229789">
  <ele>1583.0</ele>
  <time>2026-08-28T17:55:39Z</time>
  <course>248.29</course>
  <speed>0.01</speed>
  <fix>3d</fix>
</trkpt>
<trkpt lat="40.0713749" lon="-105.229789">
  <ele>1583.0</ele>
  <time>2026-08-28T17:55:39Z</time>
  <course>0.0</course>
  <speed>0.0</speed>
  <fix>3d</fix>
</trkpt>
<trkpt lat="40.0713749" lon="-105.229789">
  <ele>1583.0</ele>
  <time>2026-08-28T17:55:39Z</time>
  <course>248.29</course>
  <speed>0.01</speed>
  <fix>3d</fix>
</trkpt>
<trkpt lat="40.0713749" lon="-105.229789">
  <ele>1583.0</ele>
  <time>2026-08-28T17:55:39Z</time>
  <course>0.0</course>
  <speed>0.0</speed>
  <fix>3d</fix>
</trkpt>
<trkpt lat="40.0713749" lon="-105.229789">
  <ele>1583.0</ele>
  <time>2026-08-28T17:55:39Z</time>
  <course>248.28</course>
  <speed>0.01</speed>
  <fix>3d</fix>
</trkpt>
<trkpt lat="40.0713749" lon="-105.229789">
  <ele>1583.0</ele>
  <time>2026-08-28T17:55:39Z</time>
  <course>0.0</course>
  <speed>0.0</speed>
  <fix>3d</fix>
</trkpt>
<trkpt lat="40.0713749" lon="-105.229789">
  <ele>1583.0</ele>
  <time>2026-08-28T17:55:39Z</time>
  <course>248.28</course>
  <speed>0.01</speed>
  <fix>3d</fix>
</trkpt>
<trkpt lat="40.0713749" lon="-105.229789">
  <ele>1583.0</ele>
  <time>2026-08-28T17:55:39Z</time>
  <course>0.0</course>
  <speed>0.0</speed>
  <fix>3d</fix>
</trkpt>
<trkpt lat="40.0713749" lon="-105.229789">
  <ele>1583.0</ele>
  <time>2026-08-28T17:55:39Z</time>
  <course>248.27</course>
  <speed>0.01</speed>
  <fix>3d</fix>
</trkpt>
<trkpt lat="40.0713749" lon="-105.229789">
  <ele>1583.0</ele>
  <time>2026-08-28T17:55:39Z</time>
  <course>0.0</course>
  <speed>0.0</speed>
  <fix>3d</fix>
</trkpt>
<trkpt lat="40.0713749" lon="-105.229789">
  <ele>1583.0</ele>
  <time>2026-08-28T17:55:39Z</time>
  <course>248.27</course>
  <speed>0.01</speed>
  <fix>3d</fix>
</trkpt>
<trkpt lat="40.0713749" lon="-105.229789">
  <ele>1583.0</ele>
  <time>2026-08-28T17:55:39Z</time>
  <course>0.0</course>
  <speed>0.0</speed>
  <fix>3d</fix>
</trkpt>
<trkpt lat="40.0713749" lon="-105.229789">
  <ele>1583.0</ele>
  <time>2026-08-28T17:55:39Z</time>
  <course>248.26</course>
  <speed>0.01</speed>
  <fix>3d</fix>
</trkpt>
<trkpt lat="40.0713749" lon="-105.229789">
  <ele>1583.0</ele>
  <time>2026-08-28T17:55:39Z</time>
  <course>0.0</course>
  <speed>0.0</speed>
  <fix>3d</fix>
</trkpt>
<trkpt lat="40.0713749" lon="-105.229789">
  <ele>1583.0</ele>
  <time>2026-08-28T17:55:39Z</time>
  <course>248.26</course>
  <speed>0.01</speed>
  <fix>3d</fix>
</trkpt>
<trkpt lat="40.0713749" lon="-105.229789">
  <ele>1583.0</ele>
  <time>2026-08-28T17:55:39Z</time>
  <course>0.0</course>
  <speed>0.0</speed>
  <fix>3d</fix>
</trkpt>
<trkpt lat="40.0713749" lon="-105.229789">
  <ele>1583.0</ele>
  <time>2026-08-28T17:55:39Z</time>
  <course>248.26</course>
  <speed>0.01</speed>
  <fix>3d</fix>
</trkpt>
<trkpt lat="40.0713749" lon="-105.229789">
  <ele>1583.0</ele>
  <time>2026-08-28T17:55:39Z</time>
  <course>0.0</course>
  <speed>0.0</speed>
  <fix>3d</fix>
</trkpt>
<trkpt lat="40.0713749" lon="-105.229789">
  <ele>1583.0</ele>
  <time>2026-08-28T17:55:39Z</time>
  <course>248.25</course>
  <speed>0.01</speed>
  <fix>3d</fix>
</trkpt>
<trkpt lat="40.0713749" lon="-105.229789">
  <ele>1583.0</ele>
  <time>2026-08-28T17:55:39Z</time>
  <course>0.0</course>
  <speed>0.0</speed>
  <fix>3d</fix>
</trkpt>
<trkpt lat="40.0713749" lon="-105.229789">
  <ele>1583.0</ele>
  <time>2026-08-28T17:55:39Z</time>
  <course>248.25</course>
  <speed>0.01</speed>
  <fix>3d</fix>
</trkpt>
<trkpt lat="40.0713749" lon="-105.229789">
  <ele>1583.0</ele>
  <time>2026-08-28T17:55:39Z</time>
  <course>0.0</course>
  <speed>0.0</speed>
  <fix>3d</fix>
</trkpt>
<trkpt lat="40.0713749" lon="-105.229789">
  <ele>1583.0</ele>
  <time>2026-08-28T17:55:39Z</time>
  <course>248.24</course>
  <speed>0.01</speed>
  <fix>3d</fix>
</trkpt>
<trkpt lat="40.0713749" lon="-105.229789">
  <ele>1583.0</ele>
  <time>2026-08-28T17:55:39Z</time>
  <course>0.0</course>
  <speed>0.0</speed>
  <fix>3d</fix>
</trkpt>
<trkpt lat="40.0713749" lon="-105.229789">
  <ele>1583.0</ele>
  <time>2026-08-28T17:55:39Z</time>
  <course>248.24</course>
  <speed>0.01</speed>
  <fix>3d</fix>
</trkpt>
<trkpt lat="40.0713749" lon="-105.229789">
  <ele>1583.0</ele>
  <time>2026-08-28T17:55:39Z</time>
  <course>0.0</course>
  <speed>0.0</speed>
  <fix>3d</fix>
</trkpt>
<trkpt lat="40.0713749" lon="-105.229789">
  <ele>1583.0</ele>
  <time>2026-08-28T17:55:39Z</time>
  <course>248.23</course>
  <speed>0.01</speed>
  <fix>3d</fix>
</trkpt>
<trkpt lat="40.0713749" lon="-105.229789">
  <ele>1583.0</ele>
  <time>2026-08-28T17:55:39Z</time>
  <course>0.0</course>
  <speed>0.0</speed>
  <fix>3d</fix>
</trkpt>
<trkpt lat="40.0713749" lon="-105.229789">
  <ele>1583.0</ele>
  <time>2026-08-28T17:55:39Z</time>
  <course>248.23</course>
  <speed>0.01</speed>
  <fix>3d</fix>
</trkpt>
<trkpt lat="40.0713749" lon="-105.229789">
  <ele>1583.0</ele>
  <time>2026-08-28T17:55:39Z</time>
  <course>0.0</course>
  <speed>0.0</speed>
  <fix>3d</fix>
</trkpt>
<trkpt lat="40.0713749" lon="-105.229789">
  <ele>1583.0</ele>
  <time>2026-08-28T17:55:39Z</time>
  <course>248.22</course>
  <speed>0.01</speed>
  <fix>3d</fix>
</trkpt>
<trkpt lat="40.0713749" lon="-105.229789">
  <ele>1583.0</ele>
  <time>2026-08-28T17:55:39Z</time>
  <course>0.0</course>
  <speed>0.0</speed>
  <fix>3d</fix>
</trkpt>
<trkpt lat="40.0713749" lon="-105.229789">
  <ele>1583.0</ele>
  <time>2026-08-28T17:55:39Z</time>
  <course>248.22</course>
  <speed>0.01</speed>
  <fix>3d</fix>
</trkpt>
<trkpt lat="40.0713749" lon="-105.229789">
  <ele>1583.0</ele>
  <time>2026-08-28T17:55:39Z</time>
  <course>0.0</course>
  <speed>0.0</speed>
  <fix>3d</fix>
</trkpt>
<trkpt lat="40.0713749" lon="-105.229789">
  <ele>1583.0</ele>
  <time>2026-08-28T17:55:39Z</time>
  <course>248.21</course>
  <speed>0.01</speed>
  <fix>3d</fix>
</trkpt>
<trkpt lat="40.0713749" lon="-105.229789">
  <ele>1583.0</ele>
  <time>2026-08-28T17:55:39Z</time>
  <course>0.0</course>
  <speed>0.0</speed>
  <fix>3d</fix>
</trkpt>
<trkpt lat="40.0713749" lon="-105.229789">
  <ele>1583.0</ele>
  <time>2026-08-28T17:55:39Z</time>
  <course>248.21</course>
  <speed>0.01</speed>
  <fix>3d</fix>
</trkpt>
<trkpt lat="40.0713749" lon="-105.229789">
  <ele>1583.0</ele>
  <time>2026-08-28T17:55:39Z</time>
  <course>0.0</course>
  <speed>0.0</speed>
  <fix>3d</fix>
</trkpt>
<trkpt lat="40.0713749" lon="-105.229789">
  <ele>1583.0</ele>
  <time>2026-08-28T17:55:39Z</time>
  <course>248.2</course>
  <speed>0.01</speed>
  <fix>3d</fix>
</trkpt>
<trkpt lat="40.0713749" lon="-105.229789">
  <ele>1583.0</ele>
  <time>2026-08-28T17:55:39Z</time>
  <course>0.0</course>
  <speed>0.0</speed>
  <fix>3d</fix>
</trkpt>
<trkpt lat="40.0713749" lon="-105.229789">
  <ele>1583.0</ele>
  <time>2026-08-28T17:55:39Z</time>
  <course>248.2</course>
  <speed>0.01</speed>
  <fix>3d</fix>
</trkpt>
<trkpt lat="40.0713749" lon="-105.229789">
  <ele>1583.0</ele>
  <time>2026-08-28T17:55:39Z</time>
  <course>0.0</course>
  <speed>0.0</speed>
  <fix>3d</fix>
</trkpt>
<trkpt lat="40.0713749" lon="-105.229789">
  <ele>1583.0</ele>
  <time>2026-08-28T17:55:39Z</time>
  <course>248.19</course>
  <speed>0.01</speed>
  <fix>3d</fix>
</trkpt>
<trkpt lat="40.0713749" lon="-105.229789">
  <ele>1583.0</ele>
  <time>2026-08-28T17:55:39Z</time>
  <course>0.0</course>
  <speed>0.0</speed>
  <fix>3d</fix>
</trkpt>
<trkpt lat="40.0713749" lon="-105.229789">
  <ele>1583.0</ele>
  <time>2026-08-28T17:55:39Z</time>
  <course>248.19</course>
  <speed>0.01</speed>
  <fix>3d</fix>
</trkpt>
<trkpt lat="40.0713749" lon="-105.229789">
  <ele>1583.0</ele>
  <time>2026-08-28T17:55:39Z</time>
  <course>0.0</course>
  <speed>0.0</speed>
  <fix>3d</fix>
</trkpt>
<trkpt lat="40.0713749" lon="-105.229789">
  <ele>1583.0</ele>
  <time>2026-08-28T17:55:39Z</time>
  <course>248.18</course>
  <speed>0.01</speed>
  <fix>3d</fix>
</trkpt>
<trkpt lat="40.0713749" lon="-105.229789">
  <ele>1583.0</ele>
  <time>2026-08-28T17:55:39Z</time>
  <course>0.0</course>
  <speed>0.0</speed>
  <fix>3d</fix>
</trkpt>
<trkpt lat="40.0713749" lon="-105.229789">
  <ele>1583.0</ele>
  <time>2026-08-28T17:55:39Z</time>
  <course>248.18</course>
  <speed>0.01</speed>
  <fix>3d</fix>
</trkpt>
<trkpt lat="40.0713749" lon="-105.229789">
  <ele>1583.0</ele>
  <time>2026-08-28T17:55:39Z</time>
  <course>0.0</course>
  <speed>0.0</speed>
  <fix>3d</fix>
</trkpt>
<trkpt lat="40.0713749" lon="-105.229789">
  <ele>1583.0</ele>
  <time>2026-08-28T17:55:39Z</time>
  <course>248.17</course>
  <speed>0.022360679774997897</speed>
  <fix>3d</fix>
</trkpt>
<trkpt lat="40.0713749" lon="-105.229789">
  <ele>1583.0</ele>
  <time>2026-08-28T17:55:39Z</time>
  <course>0.0</course>
  <speed>0.0</speed>
  <fix>3d</fix>
</trkpt>
<trkpt lat="40.0713749" lon="-105.229789">
  <ele>1583.0</ele>
  <time>2026-08-28T17:55:39Z</time>
  <course>248.17</course>
  <speed>0.022360679774997897</speed>
  <fix>3d</fix>
</trkpt>
<trkpt lat="40.0713749" lon="-105.229789">
  <ele>1583.0</ele>
  <time>2026-08-28T17:55:39Z</time>
  <course>0.0</course>
  <speed>0.0</speed>
  <fix>3d</fix>
</trkpt>
<trkpt lat="40.0713749" lon="-105.229789">
  <ele>1583.0</ele>
  <time>2026-08-28T17:55:39Z</time>
  <course>248.16</course>
  <speed>0.022360679774997897</speed>
  <fix>3d</fix>
</trkpt>
<trkpt lat="40.0713749" lon="-105.229789">
  <ele>1583.0</ele>
  <time>2026-08-28T17:55:39Z</time>
  <course>0.0</course>
  <speed>0.0</speed>
  <fix>3d</fix>
</trkpt>
<trkpt lat="40.0713749" lon="-105.229789">
  <ele>1583.0</ele>
  <time>2026-08-28T17:55:39Z</time>
  <course>248.16</course>
  <speed>0.022360679774997897</speed>
  <fix>3d</fix>
</trkpt>
<trkpt lat="40.0713749" lon="-105.229789">
  <ele>1583.0</ele>
  <time>2026-08-28T17:55:39Z</time>
  <course>0.0</course>
  <speed>0.0</speed>
  <fix>3d</fix>
</trkpt>
<trkpt lat="40.0713749" lon="-105.229789">
  <ele>1583.0</ele>
  <time>2026-08-28T17:55:39Z</time>
  <course>248.15</course>
  <speed>0.022360679774997897</speed>
  <fix>3d</fix>
</trkpt>
<trkpt lat="40.0713749" lon="-105.229789">
  <ele>1583.0</ele>
  <time>2026-08-28T17:55:39Z</time>
  <course>0.0</course>
  <speed>0.0</speed>
  <fix>3d</fix>
</trkpt>
<trkpt lat="40.0713749" lon="-105.229789">
  <ele>1583.0</ele>
  <time>2026-08-28T17:55:39Z</time>
  <course>248.15</course>
  <speed>0.022360679774997897</speed>
  <fix>3d</fix>
</trkpt>
<trkpt lat="40.0713749" lon="-105.229789">
  <ele>1583.0</ele>
  <time>2026-08-28T17:55:39Z</time>
  <course>0.0</course>
  <speed>0.0</speed>
  <fix>3d</fix>
</trkpt>
<trkpt lat="40.0713749" lon="-105.229789">
  <ele>1583.0</ele>
  <time>2026-08-28T17:55:39Z</time>
  <course>248.14</course>
  <speed>0.022360679774997897</speed>
  <fix>3d</fix>
</trkpt>
<trkpt lat="40.0713749" lon="-105.229789">
  <ele>1583.0</ele>
  <time>2026-08-28T17:55:39Z</time>
  <course>0.0</course>
  <speed>0.0</speed>
  <fix>3d</fix>
</trkpt>
<trkpt lat="40.0713749" lon="-105.229789">
  <ele>1583.0</ele>
  <time>2026-08-28T17:55:39Z</time>
  <course>248.14</course>
  <speed>0.022360679774997897</speed>
  <fix>3d</fix>
</trkpt>
<trkpt lat="40.0713749" lon="-105.229789">
  <ele>1583.0</ele>
  <time>2026-08-28T17:55:39Z</time>
  <course>0.0</course>
  <speed>0.0</speed>
  <fix>3d</fix>
</trkpt>
<trkpt lat="40.0713749" lon="-105.229789">
  <ele>1583.0</ele>
  <time>2026-08-28T17:55:39Z</time>
  <course>248.13</course>
  <speed>0.022360679774997897</speed>
  <fix>3d</fix>
</trkpt>
<trkpt lat="40.0713749" lon="-105.229789">
  <ele>1583.0</ele>
  <time>2026-08-28T17:55:39Z</time>
  <course>0.0</course>
  <speed>0.0</speed>
  <fix>3d</fix>
</trkpt>
<trkpt lat="40.0713749" lon="-105.229789">
  <ele>1583.0</ele>
  <time>2026-08-28T17:55:39Z</time>
  <course>248.13</course>
  <speed>0.022360679774997897</speed>
  <fix>3d</fix>
</trkpt>
<trkpt lat="40.0713749" lon="-105.229789">
  <ele>1583.0</ele>
  <time>2026-08-28T17:55:39Z</time>
  <course>0.0</course>
  <speed>0.0</speed>
  <fix>3d</fix>
</trkpt>
<trkpt lat="40.0713749" lon="-105.229789">
  <ele>1583.0</ele>
  <time>2026-08-28T17:55:40Z</time>
  <course>248.12</course>
  <speed>0.022360679774997897</speed>
  <fix>3d</fix>
</trkpt>
<trkpt lat="40.0713749" lon="-105.229789">
  <ele>1583.0</ele>
  <time>2026-08-28T17:55:40Z</time>
  <course>0.0</course>
  <speed>0.0</speed>
  <fix>3d</fix>
</trkpt>
<trkpt lat="40.0713749" lon="-105.229789">
  <ele>1583.0</ele>
  <time>2026-08-28T17:55:40Z</time>
  <course>248.12</course>
  <speed>0.022360679774997897</speed>
  <fix>3d</fix>
</trkpt>
<trkpt lat="40.0713749" lon="-105.229789">
  <ele>1583.0</ele>
  <time>2026-08-28T17:55:40Z</time>
  <course>0.0</course>
  <speed>0.0</speed>
  <fix>3d</fix>
</trkpt>
<trkpt lat="40.0713749" lon="-105.229789">
  <ele>1583.0</ele>
  <time>2026-08-28T17:55:40Z</time>
  <course>248.11</course>
  <speed>0.022360679774997897</speed>
  <fix>3d</fix>
</trkpt>
<trkpt lat="40.0713749" lon="-105.229789">
  <ele>1583.0</ele>
  <time>2026-08-28T17:55:40Z</time>
  <course>0.0</course>
  <speed>0.0</speed>
  <fix>3d</fix>
</trkpt>
<trkpt lat="40.0713749" lon="-105.229789">
  <ele>1583.0</ele>
  <time>2026-08-28T17:55:40Z</time>
  <course>248.11</course>
  <speed>0.022360679774997897</speed>
  <fix>3d</fix>
</trkpt>
<trkpt lat="40.0713749" lon="-105.229789">
  <ele>1583.0</ele>
  <time>2026-08-28T17:55:40Z</time>
  <course>0.0</course>
  <speed>0.0</speed>
  <fix>3d</fix>
</trkpt>
<trkpt lat="40.0713749" lon="-105.229789">
  <ele>1583.0</ele>
  <time>2026-08-28T17:55:40Z</time>
  <course>248.1</course>
  <speed>0.022360679774997897</speed>
  <fix>3d</fix>
</trkpt>
<trkpt lat="40.0713749" lon="-105.229789">
  <ele>1583.0</ele>
  <time>2026-08-28T17:55:40Z</time>
  <course>0.0</course>
  <speed>0.0</speed>
  <fix>3d</fix>
</trkpt>
<trkpt lat="40.0713749" lon="-105.229789">
  <ele>1583.0</ele>
  <time>2026-08-28T17:55:40Z</time>
  <course>248.1</course>
  <speed>0.022360679774997897</speed>
  <fix>3d</fix>
</trkpt>
<trkpt lat="40.0713749" lon="-105.229789">
  <ele>1583.0</ele>
  <time>2026-08-28T17:55:40Z</time>
  <course>0.0</course>
  <speed>0.0</speed>
  <fix>3d</fix>
</trkpt>
<trkpt lat="40.0713749" lon="-105.229789">
  <ele>1583.0</ele>
  <time>2026-08-28T17:55:40Z</time>
  <course>248.09</course>
  <speed>0.022360679774997897</speed>
  <fix>3d</fix>
</trkpt>
<trkpt lat="40.0713749" lon="-105.229789">
  <ele>1583.0</ele>
  <time>2026-08-28T17:55:40Z</time>
  <course>0.0</course>
  <speed>0.0</speed>
  <fix>3d</fix>
</trkpt>
<trkpt lat="40.0713749" lon="-105.229789">
  <ele>1583.0</ele>
  <time>2026-08-28T17:55:40Z</time>
  <course>248.09</course>
  <speed>0.022360679774997897</speed>
  <fix>3d</fix>
</trkpt>
<trkpt lat="40.0713749" lon="-105.229789">
  <ele>1583.0</ele>
  <time>2026-08-28T17:55:40Z</time>
  <course>0.0</course>
  <speed>0.0</speed>
  <fix>3d</fix>
</trkpt>
<trkpt lat="40.0713749" lon="-105.229789">
  <ele>1583.0</ele>
  <time>2026-08-28T17:55:40Z</time>
  <course>248.08</course>
  <speed>0.022360679774997897</speed>
  <fix>3d</fix>
</trkpt>
<trkpt lat="40.0713749" lon="-105.229789">
  <ele>1583.0</ele>
  <time>2026-08-28T17:55:40Z</time>
  <course>0.0</course>
  <speed>0.0</speed>
  <fix>3d</fix>
</trkpt>
<trkpt lat="40.0713749" lon="-105.229789">
  <ele>1583.0</ele>
  <time>2026-08-28T17:55:40Z</time>
  <course>248.08</course>
  <speed>0.022360679774997897</speed>
  <fix>3d</fix>
</trkpt>
<trkpt lat="40.0713749" lon="-105.229789">
  <ele>1583.0</ele>
  <time>2026-08-28T17:55:40Z</time>
  <course>0.0</course>
  <speed>0.0</speed>
  <fix>3d</fix>
</trkpt>
<trkpt lat="40.0713749" lon="-105.229789">
  <ele>1583.0</ele>
  <time>2026-08-28T17:55:40Z</time>
  <course>248.07</course>
  <speed>0.022360679774997897</speed>
  <fix>3d</fix>
</trkpt>
<trkpt lat="40.0713749" lon="-105.229789">
  <ele>1583.0</ele>
  <time>2026-08-28T17:55:40Z</time>
  <course>0.0</course>
  <speed>0.0</speed>
  <fix>3d</fix>
</trkpt>
<trkpt lat="40.0713749" lon="-105.229789">
  <ele>1583.0</ele>
  <time>2026-08-28T17:55:40Z</time>
  <course>248.07</course>
  <speed>0.022360679774997897</speed>
  <fix>3d</fix>
</trkpt>
<trkpt lat="40.0713749" lon="-105.229789">
  <ele>1583.0</ele>
  <time>2026-08-28T17:55:40Z</time>
  <course>0.0</course>
  <speed>0.0</speed>
  <fix>3d</fix>
</trkpt>
<trkpt lat="40.0713749" lon="-105.229789">
  <ele>1583.0</ele>
  <time>2026-08-28T17:55:40Z</time>
  <course>248.06</course>
  <speed>0.022360679774997897</speed>
  <fix>3d</fix>
</trkpt>
<trkpt lat="40.0713749" lon="-105.229789">
  <ele>1583.0</ele>
  <time>2026-08-28T17:55:40Z</time>
  <course>0.0</course>
  <speed>0.0</speed>
  <fix>3d</fix>
</trkpt>
<trkpt lat="40.0713749" lon="-105.229789">
  <ele>1583.0</ele>
  <time>2026-08-28T17:55:40Z</time>
  <course>248.06</course>
  <speed>0.022360679774997897</speed>
  <fix>3d</fix>
</trkpt>
<trkpt lat="40.0713749" lon="-105.229789">
  <ele>1583.0</ele>
  <time>2026-08-28T17:55:40Z</time>
  <course>0.0</course>
  <speed>0.0</speed>
  <fix>3d</fix>
</trkpt>
<trkpt lat="40.0713749" lon="-105.229789">
  <ele>1583.0</ele>
  <time>2026-08-28T17:55:40Z</time>
  <course>248.05</course>
  <speed>0.022360679774997897</speed>
  <fix>3d</fix>
</trkpt>
<trkpt lat="40.0713749" lon="-105.229789">
  <ele>1583.0</ele>
  <time>2026-08-28T17:55:40Z</time>
  <course>0.0</course>
  <speed>0.0</speed>
  <fix>3d</fix>
</trkpt>
<trkpt lat="40.0713749" lon="-105.229789">
  <ele>1583.0</ele>
  <time>2026-08-28T17:55:40Z</time>
  <course>248.05</course>
  <speed>0.022360679774997897</speed>
  <fix>3d</fix>
</trkpt>
<trkpt lat="40.0713749" lon="-105.229789">
  <ele>1583.0</ele>
  <time>2026-08-28T17:55:40Z</time>
  <course>0.0</course>
  <speed>0.0</speed>
  <fix>3d</fix>
</trkpt>
<trkpt lat="40.0713749" lon="-105.229789">
  <ele>1583.0</ele>
  <time>2026-08-28T17:55:40Z</time>
  <course>248.05</course>
  <speed>0.022360679774997897</speed>
  <fix>3d</fix>
</trkpt>
<trkpt lat="40.0713749" lon="-105.229789">
  <ele>1583.0</ele>
  <time>2026-08-28T17:55:40Z</time>
  <course>0.0</course>
  <speed>0.0</speed>
  <fix>3d</fix>
</trkpt>
<trkpt lat="40.0713749" lon="-105.229789">
  <ele>1583.0</ele>
  <time>2026-08-28T17:55:40Z</time>
  <course>248.04</course>
  <speed>0.022360679774997897</speed>
  <fix>3d</fix>
</trkpt>
<trkpt lat="40.0713749" lon="-105.229789">
  <ele>1583.0</ele>
  <time>2026-08-28T17:55:40Z</time>
  <course>0.0</course>
  <speed>0.0</speed>
  <fix>3d</fix>
</trkpt>
<trkpt lat="40.0713749" lon="-105.229789">
  <ele>1583.0</ele>
  <time>2026-08-28T17:55:40Z</time>
  <course>248.04</course>
  <speed>0.022360679774997897</speed>
  <fix>3d</fix>
</trkpt>
<trkpt lat="40.0713749" lon="-105.229789">
  <ele>1583.0</ele>
  <time>2026-08-28T17:55:40Z</time>
  <course>0.0</course>
  <speed>0.0</speed>
  <fix>3d</fix>
</trkpt>
<trkpt lat="40.0713749" lon="-105.229789">
  <ele>1583.0</ele>
  <time>2026-08-28T17:55:40Z</time>
  <course>248.03</course>
  <speed>0.022360679774997897</speed>
  <fix>3d</fix>
</trkpt>
<trkpt lat="40.0713749" lon="-105.229789">
  <ele>1583.0</ele>
  <time>2026-08-28T17:55:40Z</time>
  <course>0.0</course>
  <speed>0.0</speed>
  <fix>3d</fix>
</trkpt>
<trkpt lat="40.0713749" lon="-105.229789">
  <ele>1583.0</ele>
  <time>2026-08-28T17:55:40Z</time>
  <course>248.03</course>
  <speed>0.022360679774997897</speed>
  <fix>3d</fix>
</trkpt>
<trkpt lat="40.0713749" lon="-105.229789">
  <ele>1583.0</ele>
  <time>2026-08-28T17:55:40Z</time>
  <course>0.0</course>
  <speed>0.0</speed>
  <fix>3d</fix>
</trkpt>
<trkpt lat="40.0713749" lon="-105.229789">
  <ele>1583.0</ele>
  <time>2026-08-28T17:55:40Z</time>
  <course>248.02</course>
  <speed>0.022360679774997897</speed>
  <fix>3d</fix>
</trkpt>
<trkpt lat="40.0713749" lon="-105.229789">
  <ele>1583.0</ele>
  <time>2026-08-28T17:55:40Z</time>
  <course>0.0</course>
  <speed>0.0</speed>
  <fix>3d</fix>
</trkpt>
<trkpt lat="40.0713749" lon="-105.229789">
  <ele>1583.0</ele>
  <time>2026-08-28T17:55:40Z</time>
  <course>248.02</course>
  <speed>0.022360679774997897</speed>
  <fix>3d</fix>
</trkpt>
<trkpt lat="40.0713749" lon="-105.229789">
  <ele>1583.0</ele>
  <time>2026-08-28T17:55:40Z</time>
  <course>0.0</course>
  <speed>0.0</speed>
  <fix>3d</fix>
</trkpt>
<trkpt lat="40.0713749" lon="-105.229789">
  <ele>1583.0</ele>
  <time>2026-08-28T17:55:40Z</time>
  <course>248.01</course>
  <speed>0.022360679774997897</speed>
  <fix>3d</fix>
</trkpt>
<trkpt lat="40.0713749" lon="-105.229789">
  <ele>1583.0</ele>
  <time>2026-08-28T17:55:40Z</time>
  <course>0.0</course>
  <speed>0.0</speed>
  <fix>3d</fix>
</trkpt>
<trkpt lat="40.0713749" lon="-105.229789">
  <ele>1583.0</ele>
  <time>2026-08-28T17:55:40Z</time>
  <course>248.01</course>
  <speed>0.022360679774997897</speed>
  <fix>3d</fix>
</trkpt>
<trkpt lat="40.0713749" lon="-105.229789">
  <ele>1583.0</ele>
  <time>2026-08-28T17:55:40Z</time>
  <course>0.0</course>
  <speed>0.0</speed>
  <fix>3d</fix>
</trkpt>
<trkpt lat="40.0713749" lon="-105.229789">
  <ele>1583.0</ele>
  <time>2026-08-28T17:55:40Z</time>
  <course>248.0</course>
  <speed>0.022360679774997897</speed>
  <fix>3d</fix>
</trkpt>
<trkpt lat="40.0713749" lon="-105.229789">
  <ele>1583.0</ele>
  <time>2026-08-28T17:55:40Z</time>
  <course>0.0</course>
  <speed>0.0</speed>
  <fix>3d</fix>
</trkpt>
<trkpt lat="40.0713749" lon="-105.229789">
  <ele>1583.0</ele>
  <time>2026-08-28T17:55:40Z</time>
  <course>248.0</course>
  <speed>0.022360679774997897</speed>
  <fix>3d</fix>
</trkpt>
<trkpt lat="40.0713749" lon="-105.229789">
  <ele>1583.0</ele>
  <time>2026-08-28T17:55:40Z</time>
  <course>0.0</course>
  <speed>0.0</speed>
  <fix>3d</fix>
</trkpt>
<trkpt lat="40.0713749" lon="-105.229789">
  <ele>1583.0</ele>
  <time>2026-08-28T17:55:40Z</time>
  <course>247.99</course>
  <speed>0.022360679774997897</speed>
  <fix>3d</fix>
</trkpt>
<trkpt lat="40.0713749" lon="-105.229789">
  <ele>1583.0</ele>
  <time>2026-08-28T17:55:40Z</time>
  <course>0.0</course>
  <speed>0.0</speed>
  <fix>3d</fix>
</trkpt>
<trkpt lat="40.0713749" lon="-105.229789">
  <ele>1583.0</ele>
  <time>2026-08-28T17:55:40Z</time>
  <course>247.99</course>
  <speed>0.022360679774997897</speed>
  <fix>3d</fix>
</trkpt>
<trkpt lat="40.0713749" lon="-105.229789">
  <ele>1583.0</ele>
  <time>2026-08-28T17:55:40Z</time>
  <course>0.0</course>
  <speed>0.0</speed>
  <fix>3d</fix>
</trkpt>
<trkpt lat="40.0713749" lon="-105.229789">
  <ele>1583.0</ele>
  <time>2026-08-28T17:55:40Z</time>
  <course>247.99</course>
  <speed>0.022360679774997897</speed>
  <fix>3d</fix>
</trkpt>
<trkpt lat="40.0713749" lon="-105.229789">
  <ele>1583.0</ele>
  <time>2026-08-28T17:55:40Z</time>
  <course>0.0</course>
  <speed>0.0</speed>
  <fix>3d</fix>
</trkpt>
<trkpt lat="40.0713749" lon="-105.229789">
  <ele>1583.0</ele>
  <time>2026-08-28T17:55:40Z</time>
  <course>247.98</course>
  <speed>0.022360679774997897</speed>
  <fix>3d</fix>
</trkpt>
<trkpt lat="40.0713749" lon="-105.229789">
  <ele>1583.0</ele>
  <time>2026-08-28T17:55:40Z</time>
  <course>0.0</course>
  <speed>0.0</speed>
  <fix>3d</fix>
</trkpt>
<trkpt lat="40.0713749" lon="-105.229789">
  <ele>1583.0</ele>
  <time>2026-08-28T17:55:40Z</time>
  <course>247.98</course>
  <speed>0.022360679774997897</speed>
  <fix>3d</fix>
</trkpt>
<trkpt lat="40.0713749" lon="-105.229789">
  <ele>1583.0</ele>
  <time>2026-08-28T17:55:40Z</time>
  <course>0.0</course>
  <speed>0.0</speed>
  <fix>3d</fix>
</trkpt>
<trkpt lat="40.0713749" lon="-105.229789">
  <ele>1583.0</ele>
  <time>2026-08-28T17:55:40Z</time>
  <course>247.97</course>
  <speed>0.022360679774997897</speed>
  <fix>3d</fix>
</trkpt>
<trkpt lat="40.0713749" lon="-105.229789">
  <ele>1583.0</ele>
  <time>2026-08-28T17:55:40Z</time>
  <course>0.0</course>
  <speed>0.0</speed>
  <fix>3d</fix>
</trkpt>
<trkpt lat="40.0713749" lon="-105.229789">
  <ele>1583.0</ele>
  <time>2026-08-28T17:55:40Z</time>
  <course>247.97</course>
  <speed>0.022360679774997897</speed>
  <fix>3d</fix>
</trkpt>
<trkpt lat="40.0713749" lon="-105.229789">
  <ele>1583.0</ele>
  <time>2026-08-28T17:55:40Z</time>
  <course>0.0</course>
  <speed>0.0</speed>
  <fix>3d</fix>
</trkpt>
<trkpt lat="40.0713749" lon="-105.229789">
  <ele>1583.0</ele>
  <time>2026-08-28T17:55:40Z</time>
  <course>247.96</course>
  <speed>0.022360679774997897</speed>
  <fix>3d</fix>
</trkpt>
<trkpt lat="40.0713749" lon="-105.229789">
  <ele>1583.0</ele>
  <time>2026-08-28T17:55:40Z</time>
  <course>0.0</course>
  <speed>0.0</speed>
  <fix>3d</fix>
</trkpt>
<trkpt lat="40.0713749" lon="-105.229789">
  <ele>1583.0</ele>
  <time>2026-08-28T17:55:40Z</time>
  <course>247.96</course>
  <speed>0.022360679774997897</speed>
  <fix>3d</fix>
</trkpt>
<trkpt lat="40.0713749" lon="-105.229789">
  <ele>1583.0</ele>
  <time>2026-08-28T17:55:40Z</time>
  <course>0.0</course>
  <speed>0.0</speed>
  <fix>3d</fix>
</trkpt>
<trkpt lat="40.0713749" lon="-105.229789">
  <ele>1583.0</ele>
  <time>2026-08-28T17:55:40Z</time>
  <course>247.95</course>
  <speed>0.022360679774997897</speed>
  <fix>3d</fix>
</trkpt>
<trkpt lat="40.0713749" lon="-105.229789">
  <ele>1583.0</ele>
  <time>2026-08-28T17:55:40Z</time>
  <course>0.0</course>
  <speed>0.0</speed>
  <fix>3d</fix>
</trkpt>
<trkpt lat="40.0713749" lon="-105.229789">
  <ele>1583.0</ele>
  <time>2026-08-28T17:55:40Z</time>
  <course>247.95</course>
  <speed>0.022360679774997897</speed>
  <fix>3d</fix>
</trkpt>
<trkpt lat="40.0713749" lon="-105.229789">
  <ele>1583.0</ele>
  <time>2026-08-28T17:55:40Z</time>
  <course>0.0</course>
  <speed>0.0</speed>
  <fix>3d</fix>
</trkpt>
<trkpt lat="40.0713749" lon="-105.229789">
  <ele>1583.0</ele>
  <time>2026-08-28T17:55:40Z</time>
  <course>247.95</course>
  <speed>0.022360679774997897</speed>
  <fix>3d</fix>
</trkpt>
<trkpt lat="40.0713749" lon="-105.229789">
  <ele>1583.0</ele>
  <time>2026-08-28T17:55:40Z</time>
  <course>0.0</course>
  <speed>0.0</speed>
  <fix>3d</fix>
</trkpt>
<trkpt lat="40.0713749" lon="-105.229789">
  <ele>1583.0</ele>
  <time>2026-08-28T17:55:40Z</time>
  <course>247.94</course>
  <speed>0.022360679774997897</speed>
  <fix>3d</fix>
</trkpt>
<trkpt lat="40.0713749" lon="-105.229789">
  <ele>1583.0</ele>
  <time>2026-08-28T17:55:40Z</time>
  <course>0.0</course>
  <speed>0.0</speed>
  <fix>3d</fix>
</trkpt>
<trkpt lat="40.0713749" lon="-105.229789">
  <ele>1583.0</ele>
  <time>2026-08-28T17:55:40Z</time>
  <course>247.94</course>
  <speed>0.022360679774997897</speed>
  <fix>3d</fix>
</trkpt>
<trkpt lat="40.0713749" lon="-105.229789">
  <ele>1583.0</ele>
  <time>2026-08-28T17:55:40Z</time>
  <course>0.0</course>
  <speed>0.0</speed>
  <fix>3d</fix>
</trkpt>
<trkpt lat="40.0713749" lon="-105.229789">
  <ele>1583.0</ele>
  <time>2026-08-28T17:55:40Z</time>
  <course>247.93</course>
  <speed>0.022360679774997897</speed>
  <fix>3d</fix>
</trkpt>
<trkpt lat="40.0713749" lon="-105.229789">
  <ele>1583.0</ele>
  <time>2026-08-28T17:55:40Z</time>
  <course>0.0</course>
  <speed>0.0</speed>
  <fix>3d</fix>
</trkpt>
<trkpt lat="40.0713749" lon="-105.229789">
  <ele>1583.0</ele>
  <time>2026-08-28T17:55:40Z</time>
  <course>247.93</course>
  <speed>0.022360679774997897</speed>
  <fix>3d</fix>
</trkpt>
<trkpt lat="40.0713749" lon="-105.229789">
  <ele>1583.0</ele>
  <time>2026-08-28T17:55:40Z</time>
  <course>0.0</course>
  <speed>0.0</speed>
  <fix>3d</fix>
</trkpt>
<trkpt lat="40.0713749" lon="-105.229789">
  <ele>1583.0</ele>
  <time>2026-08-28T17:55:40Z</time>
  <course>247.92</course>
  <speed>0.022360679774997897</speed>
  <fix>3d</fix>
</trkpt>
<trkpt lat="40.0713749" lon="-105.229789">
  <ele>1583.0</ele>
  <time>2026-08-28T17:55:40Z</time>
  <course>0.0</course>
  <speed>0.0</speed>
  <fix>3d</fix>
</trkpt>
<trkpt lat="40.0713749" lon="-105.229789">
  <ele>1583.0</ele>
  <time>2026-08-28T17:55:40Z</time>
  <course>247.92</course>
  <speed>0.022360679774997897</speed>
  <fix>3d</fix>
</trkpt>
<trkpt lat="40.0713749" lon="-105.229789">
  <ele>1583.0</ele>
  <time>2026-08-28T17:55:40Z</time>
  <course>0.0</course>
  <speed>0.0</speed>
  <fix>3d</fix>
</trkpt>
<trkpt lat="40.0713749" lon="-105.229789">
  <ele>1583.0</ele>
  <time>2026-08-28T17:55:40Z</time>
  <course>247.92</course>
  <speed>0.022360679774997897</speed>
  <fix>3d</fix>
</trkpt>
<trkpt lat="40.0713749" lon="-105.229789">
  <ele>1583.0</ele>
  <time>2026-08-28T17:55:40Z</time>
  <course>0.0</course>
  <speed>0.0</speed>
  <fix>3d</fix>
</trkpt>
<trkpt lat="40.0713749" lon="-105.229789">
  <ele>1583.0</ele>
  <time>2026-08-28T17:55:40Z</time>
  <course>247.91</course>
  <speed>0.022360679774997897</speed>
  <fix>3d</fix>
</trkpt>
<trkpt lat="40.0713749" lon="-105.229789">
  <ele>1583.0</ele>
  <time>2026-08-28T17:55:40Z</time>
  <course>0.0</course>
  <speed>0.0</speed>
  <fix>3d</fix>
</trkpt>
<trkpt lat="40.0713749" lon="-105.229789">
  <ele>1583.0</ele>
  <time>2026-08-28T17:55:40Z</time>
  <course>247.91</course>
  <speed>0.022360679774997897</speed>
  <fix>3d</fix>
</trkpt>
<trkpt lat="40.0713749" lon="-105.229789">
  <ele>1583.0</ele>
  <time>2026-08-28T17:55:40Z</time>
  <course>0.0</course>
  <speed>0.0</speed>
  <fix>3d</fix>
</trkpt>
<trkpt lat="40.0713749" lon="-105.229789">
  <ele>1583.0</ele>
  <time>2026-08-28T17:55:40Z</time>
  <course>247.9</course>
  <speed>0.022360679774997897</speed>
  <fix>3d</fix>
</trkpt>
<trkpt lat="40.0713749" lon="-105.229789">
  <ele>1583.0</ele>
  <time>2026-08-28T17:55:40Z</time>
  <course>0.0</course>
  <speed>0.0</speed>
  <fix>3d</fix>
</trkpt>
<trkpt lat="40.0713749" lon="-105.229789">
  <ele>1583.0</ele>
  <time>2026-08-28T17:55:40Z</time>
  <course>247.9</course>
  <speed>0.022360679774997897</speed>
  <fix>3d</fix>
</trkpt>
<trkpt lat="40.0713749" lon="-105.229789">
  <ele>1583.0</ele>
  <time>2026-08-28T17:55:40Z</time>
  <course>0.0</course>
  <speed>0.0</speed>
  <fix>3d</fix>
</trkpt>
<trkpt lat="40.0713749" lon="-105.229789">
  <ele>1583.0</ele>
  <time>2026-08-28T17:55:40Z</time>
  <course>247.89</course>
  <speed>0.022360679774997897</speed>
  <fix>3d</fix>
</trkpt>
<trkpt lat="40.0713749" lon="-105.229789">
  <ele>1583.0</ele>
  <time>2026-08-28T17:55:40Z</time>
  <course>0.0</course>
  <speed>0.0</speed>
  <fix>3d</fix>
</trkpt>
<trkpt lat="40.0713749" lon="-105.229789">
  <ele>1583.0</ele>
  <time>2026-08-28T17:55:40Z</time>
  <course>247.89</course>
  <speed>0.022360679774997897</speed>
  <fix>3d</fix>
</trkpt>
<trkpt lat="40.0713749" lon="-105.229789">
  <ele>1583.0</ele>
  <time>2026-08-28T17:55:40Z</time>
  <course>0.0</course>
  <speed>0.0</speed>
  <fix>3d</fix>
</trkpt>
<trkpt lat="40.0713749" lon="-105.229789">
  <ele>1583.0</ele>
  <time>2026-08-28T17:55:40Z</time>
  <course>247.89</course>
  <speed>0.022360679774997897</speed>
  <fix>3d</fix>
</trkpt>
<trkpt lat="40.0713749" lon="-105.229789">
  <ele>1583.0</ele>
  <time>2026-08-28T17:55:40Z</time>
  <course>0.0</course>
  <speed>0.0</speed>
  <fix>3d</fix>
</trkpt>
<trkpt lat="40.0713749" lon="-105.229789">
  <ele>1583.0</ele>
  <time>2026-08-28T17:55:40Z</time>
  <course>247.88</course>
  <speed>0.0316227766016838</speed>
  <fix>3d</fix>
</trkpt>
<trkpt lat="40.0713749" lon="-105.229789">
  <ele>1583.0</ele>
  <time>2026-08-28T17:55:40Z</time>
  <course>0.0</course>
  <speed>0.0</speed>
  <fix>3d</fix>
</trkpt>
<trkpt lat="40.0713749" lon="-105.229789">
  <ele>1583.0</ele>
  <time>2026-08-28T17:55:40Z</time>
  <course>247.88</course>
  <speed>0.0316227766016838</speed>
  <fix>3d</fix>
</trkpt>
<trkpt lat="40.0713749" lon="-105.229789">
  <ele>1583.0</ele>
  <time>2026-08-28T17:55:40Z</time>
  <course>0.0</course>
  <speed>0.0</speed>
  <fix>3d</fix>
</trkpt>
<trkpt lat="40.0713749" lon="-105.229789">
  <ele>1583.0</ele>
  <time>2026-08-28T17:55:40Z</time>
  <course>247.87</course>
  <speed>0.0316227766016838</speed>
  <fix>3d</fix>
</trkpt>
<trkpt lat="40.0713749" lon="-105.229789">
  <ele>1583.0</ele>
  <time>2026-08-28T17:55:40Z</time>
  <course>0.0</course>
  <speed>0.0</speed>
  <fix>3d</fix>
</trkpt>
<trkpt lat="40.0713749" lon="-105.229789">
  <ele>1583.0</ele>
  <time>2026-08-28T17:55:40Z</time>
  <course>247.87</course>
  <speed>0.0316227766016838</speed>
  <fix>3d</fix>
</trkpt>
<trkpt lat="40.0713749" lon="-105.229789">
  <ele>1583.0</ele>
  <time>2026-08-28T17:55:40Z</time>
  <course>0.0</course>
  <speed>0.0</speed>
  <fix>3d</fix>
</trkpt>
<trkpt lat="40.0713749" lon="-105.229789">
  <ele>1583.0</ele>
  <time>2026-08-28T17:55:40Z</time>
  <course>247.87</course>
  <speed>0.0316227766016838</speed>
  <fix>3d</fix>
</trkpt>
<trkpt lat="40.0713749" lon="-105.229789">
  <ele>1583.0</ele>
  <time>2026-08-28T17:55:40Z</time>
  <course>0.0</course>
  <speed>0.0</speed>
  <fix>3d</fix>
</trkpt>
<trkpt lat="40.0713749" lon="-105.229789">
  <ele>1583.0</ele>
  <time>2026-08-28T17:55:40Z</time>
  <course>247.86</course>
  <speed>0.0316227766016838</speed>
  <fix>3d</fix>
</trkpt>
<trkpt lat="40.0713749" lon="-105.229789">
  <ele>1583.0</ele>
  <time>2026-08-28T17:55:40Z</time>
  <course>0.0</course>
  <speed>0.0</speed>
  <fix>3d</fix>
</trkpt>
<trkpt lat="40.0713749" lon="-105.229789">
  <ele>1583.0</ele>
  <time>2026-08-28T17:55:40Z</time>
  <course>247.86</course>
  <speed>0.0316227766016838</speed>
  <fix>3d</fix>
</trkpt>
<trkpt lat="40.0713749" lon="-105.229789">
  <ele>1583.0</ele>
  <time>2026-08-28T17:55:40Z</time>
  <course>0.0</course>
  <speed>0.0</speed>
  <fix>3d</fix>
</trkpt>
<trkpt lat="40.0713749" lon="-105.229789">
  <ele>1583.0</ele>
  <time>2026-08-28T17:55:40Z</time>
  <course>247.85</course>
  <speed>0.0316227766016838</speed>
  <fix>3d</fix>
</trkpt>
<trkpt lat="40.0713749" lon="-105.229789">
  <ele>1583.0</ele>
  <time>2026-08-28T17:55:40Z</time>
  <course>0.0</course>
  <speed>0.0</speed>
  <fix>3d</fix>
</trkpt>
<trkpt lat="40.0713749" lon="-105.229789">
  <ele>1583.0</ele>
  <time>2026-08-28T17:55:40Z</time>
  <course>247.85</course>
  <speed>0.0316227766016838</speed>
  <fix>3d</fix>
</trkpt>
<trkpt lat="40.0713749" lon="-105.229789">
  <ele>1583.0</ele>
  <time>2026-08-28T17:55:40Z</time>
  <course>0.0</course>
  <speed>0.0</speed>
  <fix>3d</fix>
</trkpt>
<trkpt lat="40.0713749" lon="-105.229789">
  <ele>1583.0</ele>
  <time>2026-08-28T17:55:40Z</time>
  <course>247.85</course>
  <speed>0.0316227766016838</speed>
  <fix>3d</fix>
</trkpt>
<trkpt lat="40.0713749" lon="-105.229789">
  <ele>1583.0</ele>
  <time>2026-08-28T17:55:40Z</time>
  <course>0.0</course>
  <speed>0.0</speed>
  <fix>3d</fix>
</trkpt>
<trkpt lat="40.0713749" lon="-105.229789">
  <ele>1583.0</ele>
  <time>2026-08-28T17:55:40Z</time>
  <course>247.84</course>
  <speed>0.0316227766016838</speed>
  <fix>3d</fix>
</trkpt>
<trkpt lat="40.0713749" lon="-105.229789">
  <ele>1583.0</ele>
  <time>2026-08-28T17:55:40Z</time>
  <course>0.0</course>
  <speed>0.0</speed>
  <fix>3d</fix>
</trkpt>
<trkpt lat="40.0713749" lon="-105.229789">
  <ele>1583.0</ele>
  <time>2026-08-28T17:55:40Z</time>
  <course>247.84</course>
  <speed>0.0316227766016838</speed>
  <fix>3d</fix>
</trkpt>
<trkpt lat="40.0713749" lon="-105.229789">
  <ele>1583.0</ele>
  <time>2026-08-28T17:55:40Z</time>
  <course>0.0</course>
  <speed>0.0</speed>
  <fix>3d</fix>
</trkpt>
<trkpt lat="40.0713749" lon="-105.229789">
  <ele>1583.0</ele>
  <time>2026-08-28T17:55:40Z</time>
  <course>247.83</course>
  <speed>0.0316227766016838</speed>
  <fix>3d</fix>
</trkpt>
<trkpt lat="40.0713749" lon="-105.229789">
  <ele>1583.0</ele>
  <time>2026-08-28T17:55:40Z</time>
  <course>0.0</course>
  <speed>0.0</speed>
  <fix>3d</fix>
</trkpt>
<trkpt lat="40.0713749" lon="-105.229789">
  <ele>1583.0</ele>
  <time>2026-08-28T17:55:40Z</time>
  <course>247.83</course>
  <speed>0.0316227766016838</speed>
  <fix>3d</fix>
</trkpt>
<trkpt lat="40.0713749" lon="-105.229789">
  <ele>1583.0</ele>
  <time>2026-08-28T17:55:40Z</time>
  <course>0.0</course>
  <speed>0.0</speed>
  <fix>3d</fix>
</trkpt>
<trkpt lat="40.0713749" lon="-105.229789">
  <ele>1583.0</ele>
  <time>2026-08-28T17:55:40Z</time>
  <course>247.83</course>
  <speed>0.0316227766016838</speed>
  <fix>3d</fix>
</trkpt>
<trkpt lat="40.0713749" lon="-105.229789">
  <ele>1583.0</ele>
  <time>2026-08-28T17:55:40Z</time>
  <course>0.0</course>
  <speed>0.0</speed>
  <fix>3d</fix>
</trkpt>
<trkpt lat="40.0713749" lon="-105.229789">
  <ele>1583.0</ele>
  <time>2026-08-28T17:55:40Z</time>
  <course>247.82</course>
  <speed>0.0316227766016838</speed>
  <fix>3d</fix>
</trkpt>
<trkpt lat="40.0713749" lon="-105.229789">
  <ele>1583.0</ele>
  <time>2026-08-28T17:55:40Z</time>
  <course>0.0</course>
  <speed>0.0</speed>
  <fix>3d</fix>
</trkpt>
<trkpt lat="40.0713749" lon="-105.229789">
  <ele>1583.0</ele>
  <time>2026-08-28T17:55:40Z</time>
  <course>247.82</course>
  <speed>0.0316227766016838</speed>
  <fix>3d</fix>
</trkpt>
<trkpt lat="40.0713749" lon="-105.229789">
  <ele>1583.0</ele>
  <time>2026-08-28T17:55:40Z</time>
  <course>0.0</course>
  <speed>0.0</speed>
  <fix>3d</fix>
</trkpt>
<trkpt lat="40.0713749" lon="-105.229789">
  <ele>1583.0</ele>
  <time>2026-08-28T17:55:40Z</time>
  <course>247.82</course>
  <speed>0.0316227766016838</speed>
  <fix>3d</fix>
</trkpt>
<trkpt lat="40.0713749" lon="-105.229789">
  <ele>1583.0</ele>
  <time>2026-08-28T17:55:40Z</time>
  <course>0.0</course>
  <speed>0.0</speed>
  <fix>3d</fix>
</trkpt>
<trkpt lat="40.0713749" lon="-105.229789">
  <ele>1583.0</ele>
  <time>2026-08-28T17:55:40Z</time>
  <course>247.81</course>
  <speed>0.0316227766016838</speed>
  <fix>3d</fix>
</trkpt>
<trkpt lat="40.0713749" lon="-105.229789">
  <ele>1583.0</ele>
  <time>2026-08-28T17:55:40Z</time>
  <course>0.0</course>
  <speed>0.0</speed>
  <fix>3d</fix>
</trkpt>
<trkpt lat="40.0713749" lon="-105.229789">
  <ele>1583.0</ele>
  <time>2026-08-28T17:55:40Z</time>
  <course>247.81</course>
  <speed>0.0316227766016838</speed>
  <fix>3d</fix>
</trkpt>
<trkpt lat="40.0713749" lon="-105.229789">
  <ele>1583.0</ele>
  <time>2026-08-28T17:55:40Z</time>
  <course>0.0</course>
  <speed>0.0</speed>
  <fix>3d</fix>
</trkpt>
<trkpt lat="40.0713749" lon="-105.229789">
  <ele>1583.0</ele>
  <time>2026-08-28T17:55:40Z</time>
  <course>247.8</course>
  <speed>0.0316227766016838</speed>
  <fix>3d</fix>
</trkpt>
<trkpt lat="40.0713749" lon="-105.229789">
  <ele>1583.0</ele>
  <time>2026-08-28T17:55:40Z</time>
  <course>0.0</course>
  <speed>0.0</speed>
  <fix>3d</fix>
</trkpt>
<trkpt lat="40.0713749" lon="-105.229789">
  <ele>1583.0</ele>
  <time>2026-08-28T17:55:40Z</time>
  <course>247.8</course>
  <speed>0.0316227766016838</speed>
  <fix>3d</fix>
</trkpt>
<trkpt lat="40.0713749" lon="-105.229789">
  <ele>1583.0</ele>
  <time>2026-08-28T17:55:40Z</time>
  <course>0.0</course>
  <speed>0.0</speed>
  <fix>3d</fix>
</trkpt>
<trkpt lat="40.0713749" lon="-105.229789">
  <ele>1583.0</ele>
  <time>2026-08-28T17:55:40Z</time>
  <course>247.8</course>
  <speed>0.0316227766016838</speed>
  <fix>3d</fix>
</trkpt>
<trkpt lat="40.0713749" lon="-105.229789">
  <ele>1583.0</ele>
  <time>2026-08-28T17:55:40Z</time>
  <course>0.0</course>
  <speed>0.0</speed>
  <fix>3d</fix>
</trkpt>
<trkpt lat="40.0713749" lon="-105.229789">
  <ele>1583.0</ele>
  <time>2026-08-28T17:55:40Z</time>
  <course>247.79</course>
  <speed>0.0316227766016838</speed>
  <fix>3d</fix>
</trkpt>
<trkpt lat="40.0713749" lon="-105.229789">
  <ele>1583.0</ele>
  <time>2026-08-28T17:55:40Z</time>
  <course>0.0</course>
  <speed>0.0</speed>
  <fix>3d</fix>
</trkpt>
<trkpt lat="40.0713749" lon="-105.229789">
  <ele>1583.0</ele>
  <time>2026-08-28T17:55:40Z</time>
  <course>247.79</course>
  <speed>0.0316227766016838</speed>
  <fix>3d</fix>
</trkpt>
<trkpt lat="40.0713749" lon="-105.229789">
  <ele>1583.0</ele>
  <time>2026-08-28T17:55:40Z</time>
  <course>0.0</course>
  <speed>0.0</speed>
  <fix>3d</fix>
</trkpt>
<trkpt lat="40.0713749" lon="-105.229789">
  <ele>1583.0</ele>
  <time>2026-08-28T17:55:40Z</time>
  <course>247.79</course>
  <speed>0.0316227766016838</speed>
  <fix>3d</fix>
</trkpt>
<trkpt lat="40.0713749" lon="-105.229789">
  <ele>1583.0</ele>
  <time>2026-08-28T17:55:40Z</time>
  <course>0.0</course>
  <speed>0.0</speed>
  <fix>3d</fix>
</trkpt>
<trkpt lat="40.0713749" lon="-105.229789">
  <ele>1583.0</ele>
  <time>2026-08-28T17:55:40Z</time>
  <course>247.78</course>
  <speed>0.0316227766016838</speed>
  <fix>3d</fix>
</trkpt>
<trkpt lat="40.0713749" lon="-105.229789">
  <ele>1583.0</ele>
  <time>2026-08-28T17:55:40Z</time>
  <course>0.0</course>
  <speed>0.0</speed>
  <fix>3d</fix>
</trkpt>
<trkpt lat="40.0713749" lon="-105.229789">
  <ele>1583.0</ele>
  <time>2026-08-28T17:55:40Z</time>
  <course>247.78</course>
  <speed>0.0316227766016838</speed>
  <fix>3d</fix>
</trkpt>
<trkpt lat="40.0713749" lon="-105.229789">
  <ele>1583.0</ele>
  <time>2026-08-28T17:55:40Z</time>
  <course>0.0</course>
  <speed>0.0</speed>
  <fix>3d</fix>
</trkpt>
<trkpt lat="40.0713749" lon="-105.229789">
  <ele>1583.0</ele>
  <time>2026-08-28T17:55:40Z</time>
  <course>247.78</course>
  <speed>0.0316227766016838</speed>
  <fix>3d</fix>
</trkpt>
<trkpt lat="40.0713749" lon="-105.229789">
  <ele>1583.0</ele>
  <time>2026-08-28T17:55:40Z</time>
  <course>0.0</course>
  <speed>0.0</speed>
  <fix>3d</fix>
</trkpt>
<trkpt lat="40.0713749" lon="-105.229789">
  <ele>1583.0</ele>
  <time>2026-08-28T17:55:40Z</time>
  <course>247.77</course>
  <speed>0.0316227766016838</speed>
  <fix>3d</fix>
</trkpt>
<trkpt lat="40.0713749" lon="-105.229789">
  <ele>1583.0</ele>
  <time>2026-08-28T17:55:40Z</time>
  <course>0.0</course>
  <speed>0.0</speed>
  <fix>3d</fix>
</trkpt>
<trkpt lat="40.0713749" lon="-105.229789">
  <ele>1583.0</ele>
  <time>2026-08-28T17:55:40Z</time>
  <course>247.77</course>
  <speed>0.0316227766016838</speed>
  <fix>3d</fix>
</trkpt>
<trkpt lat="40.0713749" lon="-105.229789">
  <ele>1583.0</ele>
  <time>2026-08-28T17:55:40Z</time>
  <course>0.0</course>
  <speed>0.0</speed>
  <fix>3d</fix>
</trkpt>
<trkpt lat="40.0713749" lon="-105.229789">
  <ele>1583.0</ele>
  <time>2026-08-28T17:55:40Z</time>
  <course>247.76</course>
  <speed>0.0316227766016838</speed>
  <fix>3d</fix>
</trkpt>
<trkpt lat="40.0713749" lon="-105.229789">
  <ele>1583.0</ele>
  <time>2026-08-28T17:55:40Z</time>
  <course>0.0</course>
  <speed>0.0</speed>
  <fix>3d</fix>
</trkpt>
<trkpt lat="40.0713749" lon="-105.229789">
  <ele>1583.0</ele>
  <time>2026-08-28T17:55:40Z</time>
  <course>247.76</course>
  <speed>0.0316227766016838</speed>
  <fix>3d</fix>
</trkpt>
<trkpt lat="40.0713749" lon="-105.229789">
  <ele>1583.0</ele>
  <time>2026-08-28T17:55:40Z</time>
  <course>0.0</course>
  <speed>0.0</speed>
  <fix>3d</fix>
</trkpt>
<trkpt lat="40.0713749" lon="-105.229789">
  <ele>1583.0</ele>
  <time>2026-08-28T17:55:40Z</time>
  <course>247.76</course>
  <speed>0.0316227766016838</speed>
  <fix>3d</fix>
</trkpt>
<trkpt lat="40.0713749" lon="-105.229789">
  <ele>1583.0</ele>
  <time>2026-08-28T17:55:40Z</time>
  <course>0.0</course>
  <speed>0.0</speed>
  <fix>3d</fix>
</trkpt>
<trkpt lat="40.0713749" lon="-105.229789">
  <ele>1583.0</ele>
  <time>2026-08-28T17:55:40Z</time>
  <course>247.75</course>
  <speed>0.0316227766016838</speed>
  <fix>3d</fix>
</trkpt>
<trkpt lat="40.0713749" lon="-105.229789">
  <ele>1583.0</ele>
  <time>2026-08-28T17:55:40Z</time>
  <course>0.0</course>
  <speed>0.0</speed>
  <fix>3d</fix>
</trkpt>
<trkpt lat="40.0713749" lon="-105.229789">
  <ele>1583.0</ele>
  <time>2026-08-28T17:55:40Z</time>
  <course>247.75</course>
  <speed>0.0316227766016838</speed>
  <fix>3d</fix>
</trkpt>
<trkpt lat="40.0713749" lon="-105.229789">
  <ele>1583.0</ele>
  <time>2026-08-28T17:55:40Z</time>
  <course>0.0</course>
  <speed>0.0</speed>
  <fix>3d</fix>
</trkpt>
<trkpt lat="40.0713749" lon="-105.229789">
  <ele>1583.0</ele>
  <time>2026-08-28T17:55:40Z</time>
  <course>247.75</course>
  <speed>0.0316227766016838</speed>
  <fix>3d</fix>
</trkpt>
<trkpt lat="40.0713749" lon="-105.229789">
  <ele>1583.0</ele>
  <time>2026-08-28T17:55:40Z</time>
  <course>0.0</course>
  <speed>0.0</speed>
  <fix>3d</fix>
</trkpt>
<trkpt lat="40.0713749" lon="-105.229789">
  <ele>1583.0</ele>
  <time>2026-08-28T17:55:40Z</time>
  <course>247.74</course>
  <speed>0.0316227766016838</speed>
  <fix>3d</fix>
</trkpt>
<trkpt lat="40.0713749" lon="-105.229789">
  <ele>1583.0</ele>
  <time>2026-08-28T17:55:40Z</time>
  <course>0.0</course>
  <speed>0.0</speed>
  <fix>3d</fix>
</trkpt>
<trkpt lat="40.0713749" lon="-105.229789">
  <ele>1583.0</ele>
  <time>2026-08-28T17:55:40Z</time>
  <course>247.74</course>
  <speed>0.0316227766016838</speed>
  <fix>3d</fix>
</trkpt>
<trkpt lat="40.0713749" lon="-105.229789">
  <ele>1583.0</ele>
  <time>2026-08-28T17:55:40Z</time>
  <course>0.0</course>
  <speed>0.0</speed>
  <fix>3d</fix>
</trkpt>
<trkpt lat="40.0713749" lon="-105.229789">
  <ele>1583.0</ele>
  <time>2026-08-28T17:55:40Z</time>
  <course>247.74</course>
  <speed>0.0316227766016838</speed>
  <fix>3d</fix>
</trkpt>
<trkpt lat="40.0713749" lon="-105.229789">
  <ele>1583.0</ele>
  <time>2026-08-28T17:55:40Z</time>
  <course>0.0</course>
  <speed>0.0</speed>
  <fix>3d</fix>
</trkpt>
<trkpt lat="40.0713749" lon="-105.229789">
  <ele>1583.0</ele>
  <time>2026-08-28T17:55:40Z</time>
  <course>247.73</course>
  <speed>0.0316227766016838</speed>
  <fix>3d</fix>
</trkpt>
<trkpt lat="40.0713749" lon="-105.229789">
  <ele>1583.0</ele>
  <time>2026-08-28T17:55:40Z</time>
  <course>0.0</course>
  <speed>0.0</speed>
  <fix>3d</fix>
</trkpt>
<trkpt lat="40.0713749" lon="-105.229789">
  <ele>1583.0</ele>
  <time>2026-08-28T17:55:40Z</time>
  <course>247.73</course>
  <speed>0.0316227766016838</speed>
  <fix>3d</fix>
</trkpt>
<trkpt lat="40.0713749" lon="-105.229789">
  <ele>1583.0</ele>
  <time>2026-08-28T17:55:40Z</time>
  <course>0.0</course>
  <speed>0.0</speed>
  <fix>3d</fix>
</trkpt>
<trkpt lat="40.0713749" lon="-105.229789">
  <ele>1583.0</ele>
  <time>2026-08-28T17:55:40Z</time>
  <course>247.73</course>
  <speed>0.0316227766016838</speed>
  <fix>3d</fix>
</trkpt>
<trkpt lat="40.0713749" lon="-105.229789">
  <ele>1583.0</ele>
  <time>2026-08-28T17:55:40Z</time>
  <course>0.0</course>
  <speed>0.0</speed>
  <fix>3d</fix>
</trkpt>
<trkpt lat="40.0713749" lon="-105.229789">
  <ele>1583.0</ele>
  <time>2026-08-28T17:55:40Z</time>
  <course>247.72</course>
  <speed>0.0316227766016838</speed>
  <fix>3d</fix>
</trkpt>
<trkpt lat="40.0713749" lon="-105.229789">
  <ele>1583.0</ele>
  <time>2026-08-28T17:55:40Z</time>
  <course>0.0</course>
  <speed>0.0</speed>
  <fix>3d</fix>
</trkpt>
<trkpt lat="40.0713749" lon="-105.229789">
  <ele>1583.0</ele>
  <time>2026-08-28T17:55:40Z</time>
  <course>247.72</course>
  <speed>0.0316227766016838</speed>
  <fix>3d</fix>
</trkpt>
<trkpt lat="40.0713749" lon="-105.229789">
  <ele>1583.0</ele>
  <time>2026-08-28T17:55:40Z</time>
  <course>0.0</course>
  <speed>0.0</speed>
  <fix>3d</fix>
</trkpt>
<trkpt lat="40.0713749" lon="-105.229789">
  <ele>1583.0</ele>
  <time>2026-08-28T17:55:40Z</time>
  <course>247.72</course>
  <speed>0.0316227766016838</speed>
  <fix>3d</fix>
</trkpt>
<trkpt lat="40.0713749" lon="-105.229789">
  <ele>1583.0</ele>
  <time>2026-08-28T17:55:40Z</time>
  <course>0.0</course>
  <speed>0.0</speed>
  <fix>3d</fix>
</trkpt>
<trkpt lat="40.0713749" lon="-105.229789">
  <ele>1583.0</ele>
  <time>2026-08-28T17:55:40Z</time>
  <course>247.71</course>
  <speed>0.0316227766016838</speed>
  <fix>3d</fix>
</trkpt>
<trkpt lat="40.0713749" lon="-105.229789">
  <ele>1583.0</ele>
  <time>2026-08-28T17:55:40Z</time>
  <course>0.0</course>
  <speed>0.0</speed>
  <fix>3d</fix>
</trkpt>
<trkpt lat="40.0713749" lon="-105.229789">
  <ele>1583.0</ele>
  <time>2026-08-28T17:55:40Z</time>
  <course>247.71</course>
  <speed>0.0316227766016838</speed>
  <fix>3d</fix>
</trkpt>
<trkpt lat="40.0713749" lon="-105.229789">
  <ele>1583.0</ele>
  <time>2026-08-28T17:55:40Z</time>
  <course>0.0</course>
  <speed>0.0</speed>
  <fix>3d</fix>
</trkpt>
<trkpt lat="40.0713749" lon="-105.229789">
  <ele>1583.0</ele>
  <time>2026-08-28T17:55:40Z</time>
  <course>247.71</course>
  <speed>0.0316227766016838</speed>
  <fix>3d</fix>
</trkpt>
<trkpt lat="40.0713749" lon="-105.229789">
  <ele>1583.0</ele>
  <time>2026-08-28T17:55:40Z</time>
  <course>0.0</course>
  <speed>0.0</speed>
  <fix>3d</fix>
</trkpt>
<trkpt lat="40.0713749" lon="-105.229789">
  <ele>1583.0</ele>
  <time>2026-08-28T17:55:40Z</time>
  <course>247.7</course>
  <speed>0.0316227766016838</speed>
  <fix>3d</fix>
</trkpt>
<trkpt lat="40.0713749" lon="-105.229789">
  <ele>1583.0</ele>
  <time>2026-08-28T17:55:40Z</time>
  <course>0.0</course>
  <speed>0.0</speed>
  <fix>3d</fix>
</trkpt>
<trkpt lat="40.0713749" lon="-105.229789">
  <ele>1583.0</ele>
  <time>2026-08-28T17:55:40Z</time>
  <course>247.7</course>
  <speed>0.0316227766016838</speed>
  <fix>3d</fix>
</trkpt>
<trkpt lat="40.0713749" lon="-105.229789">
  <ele>1583.0</ele>
  <time>2026-08-28T17:55:40Z</time>
  <course>0.0</course>
  <speed>0.0</speed>
  <fix>3d</fix>
</trkpt>
<trkpt lat="40.0713749" lon="-105.229789">
  <ele>1583.0</ele>
  <time>2026-08-28T17:55:40Z</time>
  <course>247.7</course>
  <speed>0.0316227766016838</speed>
  <fix>3d</fix>
</trkpt>
<trkpt lat="40.0713749" lon="-105.229789">
  <ele>1583.0</ele>
  <time>2026-08-28T17:55:40Z</time>
  <course>0.0</course>
  <speed>0.0</speed>
  <fix>3d</fix>
</trkpt>
<trkpt lat="40.0713749" lon="-105.229789">
  <ele>1583.0</ele>
  <time>2026-08-28T17:55:40Z</time>
  <course>247.69</course>
  <speed>0.0316227766016838</speed>
  <fix>3d</fix>
</trkpt>
<trkpt lat="40.0713749" lon="-105.229789">
  <ele>1583.0</ele>
  <time>2026-08-28T17:55:40Z</time>
  <course>0.0</course>
  <speed>0.0</speed>
  <fix>3d</fix>
</trkpt>
<trkpt lat="40.0713749" lon="-105.229789">
  <ele>1583.0</ele>
  <time>2026-08-28T17:55:40Z</time>
  <course>247.69</course>
  <speed>0.0316227766016838</speed>
  <fix>3d</fix>
</trkpt>
<trkpt lat="40.0713749" lon="-105.229789">
  <ele>1583.0</ele>
  <time>2026-08-28T17:55:40Z</time>
  <course>0.0</course>
  <speed>0.0</speed>
  <fix>3d</fix>
</trkpt>
<trkpt lat="40.0713749" lon="-105.229789">
  <ele>1583.0</ele>
  <time>2026-08-28T17:55:40Z</time>
  <course>247.69</course>
  <speed>0.0316227766016838</speed>
  <fix>3d</fix>
</trkpt>
<trkpt lat="40.0713749" lon="-105.229789">
  <ele>1583.0</ele>
  <time>2026-08-28T17:55:40Z</time>
  <course>0.0</course>
  <speed>0.0</speed>
  <fix>3d</fix>
</trkpt>
<trkpt lat="40.0713749" lon="-105.229789">
  <ele>1583.0</ele>
  <time>2026-08-28T17:55:40Z</time>
  <course>247.68</course>
  <speed>0.0316227766016838</speed>
  <fix>3d</fix>
</trkpt>
<trkpt lat="40.0713749" lon="-105.229789">
  <ele>1583.0</ele>
  <time>2026-08-28T17:55:40Z</time>
  <course>0.0</course>
  <speed>0.0</speed>
  <fix>3d</fix>
</trkpt>
<trkpt lat="40.0713749" lon="-105.229789">
  <ele>1583.0</ele>
  <time>2026-08-28T17:55:40Z</time>
  <course>247.68</course>
  <speed>0.0316227766016838</speed>
  <fix>3d</fix>
</trkpt>
<trkpt lat="40.0713749" lon="-105.229789">
  <ele>1583.0</ele>
  <time>2026-08-28T17:55:40Z</time>
  <course>0.0</course>
  <speed>0.0</speed>
  <fix>3d</fix>
</trkpt>
<trkpt lat="40.0713749" lon="-105.229789">
  <ele>1583.0</ele>
  <time>2026-08-28T17:55:40Z</time>
  <course>247.68</course>
  <speed>0.0316227766016838</speed>
  <fix>3d</fix>
</trkpt>
<trkpt lat="40.0713749" lon="-105.229789">
  <ele>1583.0</ele>
  <time>2026-08-28T17:55:40Z</time>
  <course>0.0</course>
  <speed>0.0</speed>
  <fix>3d</fix>
</trkpt>
<trkpt lat="40.0713749" lon="-105.229789">
  <ele>1583.0</ele>
  <time>2026-08-28T17:55:40Z</time>
  <course>247.67</course>
  <speed>0.0316227766016838</speed>
  <fix>3d</fix>
</trkpt>
<trkpt lat="40.0713749" lon="-105.229789">
  <ele>1583.0</ele>
  <time>2026-08-28T17:55:40Z</time>
  <course>0.0</course>
  <speed>0.0</speed>
  <fix>3d</fix>
</trkpt>
<trkpt lat="40.0713749" lon="-105.229789">
  <ele>1583.0</ele>
  <time>2026-08-28T17:55:40Z</time>
  <course>247.67</course>
  <speed>0.0316227766016838</speed>
  <fix>3d</fix>
</trkpt>
<trkpt lat="40.0713749" lon="-105.229789">
  <ele>1583.0</ele>
  <time>2026-08-28T17:55:40Z</time>
  <course>0.0</course>
  <speed>0.0</speed>
  <fix>3d</fix>
</trkpt>
<trkpt lat="40.0713749" lon="-105.229789">
  <ele>1583.0</ele>
  <time>2026-08-28T17:55:40Z</time>
  <course>247.67</course>
  <speed>0.0316227766016838</speed>
  <fix>3d</fix>
</trkpt>
<trkpt lat="40.0713749" lon="-105.229789">
  <ele>1583.0</ele>
  <time>2026-08-28T17:55:40Z</time>
  <course>0.0</course>
  <speed>0.0</speed>
  <fix>3d</fix>
</trkpt>
<trkpt lat="40.0713749" lon="-105.229789">
  <ele>1583.0</ele>
  <time>2026-08-28T17:55:40Z</time>
  <course>247.66</course>
  <speed>0.0316227766016838</speed>
  <fix>3d</fix>
</trkpt>
<trkpt lat="40.0713749" lon="-105.229789">
  <ele>1583.0</ele>
  <time>2026-08-28T17:55:40Z</time>
  <course>0.0</course>
  <speed>0.0</speed>
  <fix>3d</fix>
</trkpt>
<trkpt lat="40.0713749" lon="-105.229789">
  <ele>1583.0</ele>
  <time>2026-08-28T17:55:40Z</time>
  <course>247.66</course>
  <speed>0.0316227766016838</speed>
  <fix>3d</fix>
</trkpt>
<trkpt lat="40.0713749" lon="-105.229789">
  <ele>1583.0</ele>
  <time>2026-08-28T17:55:40Z</time>
  <course>0.0</course>
  <speed>0.0</speed>
  <fix>3d</fix>
</trkpt>
<trkpt lat="40.0713749" lon="-105.229789">
  <ele>1583.0</ele>
  <time>2026-08-28T17:55:40Z</time>
  <course>247.66</course>
  <speed>0.0316227766016838</speed>
  <fix>3d</fix>
</trkpt>
<trkpt lat="40.0713749" lon="-105.229789">
  <ele>1583.0</ele>
  <time>2026-08-28T17:55:40Z</time>
  <course>0.0</course>
  <speed>0.0</speed>
  <fix>3d</fix>
</trkpt>
<trkpt lat="40.0713749" lon="-105.229789">
  <ele>1583.0</ele>
  <time>2026-08-28T17:55:40Z</time>
  <course>247.65</course>
  <speed>0.0316227766016838</speed>
  <fix>3d</fix>
</trkpt>
<trkpt lat="40.0713749" lon="-105.229789">
  <ele>1583.0</ele>
  <time>2026-08-28T17:55:40Z</time>
  <course>0.0</course>
  <speed>0.0</speed>
  <fix>3d</fix>
</trkpt>
<trkpt lat="40.0713749" lon="-105.229789">
  <ele>1583.0</ele>
  <time>2026-08-28T17:55:40Z</time>
  <course>247.65</course>
  <speed>0.0316227766016838</speed>
  <fix>3d</fix>
</trkpt>
<trkpt lat="40.0713749" lon="-105.229789">
  <ele>1583.0</ele>
  <time>2026-08-28T17:55:40Z</time>
  <course>0.0</course>
  <speed>0.0</speed>
  <fix>3d</fix>
</trkpt>
<trkpt lat="40.0713749" lon="-105.229789">
  <ele>1583.0</ele>
  <time>2026-08-28T17:55:40Z</time>
  <course>247.65</course>
  <speed>0.0316227766016838</speed>
  <fix>3d</fix>
</trkpt>
<trkpt lat="40.0713749" lon="-105.229789">
  <ele>1583.0</ele>
  <time>2026-08-28T17:55:40Z</time>
  <course>0.0</course>
  <speed>0.0</speed>
  <fix>3d</fix>
</trkpt>
<trkpt lat="40.0713749" lon="-105.229789">
  <ele>1583.0</ele>
  <time>2026-08-28T17:55:40Z</time>
  <course>247.64</course>
  <speed>0.0316227766016838</speed>
  <fix>3d</fix>
</trkpt>
<trkpt lat="40.0713749" lon="-105.229789">
  <ele>1583.0</ele>
  <time>2026-08-28T17:55:40Z</time>
  <course>0.0</course>
  <speed>0.0</speed>
  <fix>3d</fix>
</trkpt>
<trkpt lat="40.0713749" lon="-105.229789">
  <ele>1583.0</ele>
  <time>2026-08-28T17:55:40Z</time>
  <course>247.64</course>
  <speed>0.0316227766016838</speed>
  <fix>3d</fix>
</trkpt>
<trkpt lat="40.0713749" lon="-105.229789">
  <ele>1583.0</ele>
  <time>2026-08-28T17:55:40Z</time>
  <course>0.0</course>
  <speed>0.0</speed>
  <fix>3d</fix>
</trkpt>
<trkpt lat="40.0713749" lon="-105.229789">
  <ele>1583.0</ele>
  <time>2026-08-28T17:55:40Z</time>
  <course>247.64</course>
  <speed>0.0316227766016838</speed>
  <fix>3d</fix>
</trkpt>
<trkpt lat="40.0713749" lon="-105.229789">
  <ele>1583.0</ele>
  <time>2026-08-28T17:55:40Z</time>
  <course>0.0</course>
  <speed>0.0</speed>
  <fix>3d</fix>
</trkpt>
<trkpt lat="40.0713749" lon="-105.229789">
  <ele>1583.0</ele>
  <time>2026-08-28T17:55:40Z</time>
  <course>247.64</course>
  <speed>0.0316227766016838</speed>
  <fix>3d</fix>
</trkpt>
<trkpt lat="40.0713749" lon="-105.229789">
  <ele>1583.0</ele>
  <time>2026-08-28T17:55:40Z</time>
  <course>0.0</course>
  <speed>0.0</speed>
  <fix>3d</fix>
</trkpt>
<trkpt lat="40.0713749" lon="-105.229789">
  <ele>1583.0</ele>
  <time>2026-08-28T17:55:40Z</time>
  <course>247.63</course>
  <speed>0.0316227766016838</speed>
  <fix>3d</fix>
</trkpt>
<trkpt lat="40.0713749" lon="-105.229789">
  <ele>1583.0</ele>
  <time>2026-08-28T17:55:40Z</time>
  <course>0.0</course>
  <speed>0.0</speed>
  <fix>3d</fix>
</trkpt>
<trkpt lat="40.0713749" lon="-105.229789">
  <ele>1583.0</ele>
  <time>2026-08-28T17:55:40Z</time>
  <course>247.63</course>
  <speed>0.0316227766016838</speed>
  <fix>3d</fix>
</trkpt>
<trkpt lat="40.0713749" lon="-105.229789">
  <ele>1583.0</ele>
  <time>2026-08-28T17:55:40Z</time>
  <course>0.0</course>
  <speed>0.0</speed>
  <fix>3d</fix>
</trkpt>
<trkpt lat="40.0713749" lon="-105.229789">
  <ele>1583.0</ele>
  <time>2026-08-28T17:55:40Z</time>
  <course>247.63</course>
  <speed>0.0316227766016838</speed>
  <fix>3d</fix>
</trkpt>
<trkpt lat="40.0713749" lon="-105.229789">
  <ele>1583.0</ele>
  <time>2026-08-28T17:55:40Z</time>
  <course>0.0</course>
  <speed>0.0</speed>
  <fix>3d</fix>
</trkpt>
<trkpt lat="40.0713749" lon="-105.229789">
  <ele>1583.0</ele>
  <time>2026-08-28T17:55:40Z</time>
  <course>247.62</course>
  <speed>0.0316227766016838</speed>
  <fix>3d</fix>
</trkpt>
<trkpt lat="40.0713749" lon="-105.229789">
  <ele>1583.0</ele>
  <time>2026-08-28T17:55:40Z</time>
  <course>0.0</course>
  <speed>0.0</speed>
  <fix>3d</fix>
</trkpt>
<trkpt lat="40.0713749" lon="-105.229789">
  <ele>1583.0</ele>
  <time>2026-08-28T17:55:40Z</time>
  <course>247.62</course>
  <speed>0.0316227766016838</speed>
  <fix>3d</fix>
</trkpt>
<trkpt lat="40.0713749" lon="-105.229789">
  <ele>1583.0</ele>
  <time>2026-08-28T17:55:40Z</time>
  <course>0.0</course>
  <speed>0.0</speed>
  <fix>3d</fix>
</trkpt>
<trkpt lat="40.0713749" lon="-105.229789">
  <ele>1583.0</ele>
  <time>2026-08-28T17:55:40Z</time>
  <course>247.62</course>
  <speed>0.0316227766016838</speed>
  <fix>3d</fix>
</trkpt>
<trkpt lat="40.0713749" lon="-105.229789">
  <ele>1583.0</ele>
  <time>2026-08-28T17:55:40Z</time>
  <course>0.0</course>
  <speed>0.0</speed>
  <fix>3d</fix>
</trkpt>
<trkpt lat="40.0713749" lon="-105.229789">
  <ele>1583.0</ele>
  <time>2026-08-28T17:55:40Z</time>
  <course>247.62</course>
  <speed>0.0316227766016838</speed>
  <fix>3d</fix>
</trkpt>
<trkpt lat="40.0713749" lon="-105.229789">
  <ele>1583.0</ele>
  <time>2026-08-28T17:55:40Z</time>
  <course>0.0</course>
  <speed>0.0</speed>
  <fix>3d</fix>
</trkpt>
<trkpt lat="40.0713749" lon="-105.229789">
  <ele>1583.0</ele>
  <time>2026-08-28T17:55:40Z</time>
  <course>247.61</course>
  <speed>0.0316227766016838</speed>
  <fix>3d</fix>
</trkpt>
<trkpt lat="40.0713749" lon="-105.229789">
  <ele>1583.0</ele>
  <time>2026-08-28T17:55:40Z</time>
  <course>0.0</course>
  <speed>0.0</speed>
  <fix>3d</fix>
</trkpt>
<trkpt lat="40.0713749" lon="-105.229789">
  <ele>1583.0</ele>
  <time>2026-08-28T17:55:40Z</time>
  <course>247.61</course>
  <speed>0.0316227766016838</speed>
  <fix>3d</fix>
</trkpt>
<trkpt lat="40.0713749" lon="-105.229789">
  <ele>1583.0</ele>
  <time>2026-08-28T17:55:40Z</time>
  <course>0.0</course>
  <speed>0.0</speed>
  <fix>3d</fix>
</trkpt>
<trkpt lat="40.0713749" lon="-105.229789">
  <ele>1583.0</ele>
  <time>2026-08-28T17:55:40Z</time>
  <course>247.61</course>
  <speed>0.0316227766016838</speed>
  <fix>3d</fix>
</trkpt>
<trkpt lat="40.0713749" lon="-105.229789">
  <ele>1583.0</ele>
  <time>2026-08-28T17:55:40Z</time>
  <course>0.0</course>
  <speed>0.0</speed>
  <fix>3d</fix>
</trkpt>
<trkpt lat="40.0713749" lon="-105.229789">
  <ele>1583.0</ele>
  <time>2026-08-28T17:55:40Z</time>
  <course>247.6</course>
  <speed>0.0316227766016838</speed>
  <fix>3d</fix>
</trkpt>
<trkpt lat="40.0713749" lon="-105.229789">
  <ele>1583.0</ele>
  <time>2026-08-28T17:55:40Z</time>
  <course>0.0</course>
  <speed>0.0</speed>
  <fix>3d</fix>
</trkpt>
<trkpt lat="40.0713749" lon="-105.229789">
  <ele>1583.0</ele>
  <time>2026-08-28T17:55:40Z</time>
  <course>247.6</course>
  <speed>0.0316227766016838</speed>
  <fix>3d</fix>
</trkpt>
<trkpt lat="40.0713749" lon="-105.229789">
  <ele>1583.0</ele>
  <time>2026-08-28T17:55:40Z</time>
  <course>0.0</course>
  <speed>0.0</speed>
  <fix>3d</fix>
</trkpt>
<trkpt lat="40.0713749" lon="-105.229789">
  <ele>1583.0</ele>
  <time>2026-08-28T17:55:40Z</time>
  <course>247.6</course>
  <speed>0.0316227766016838</speed>
  <fix>3d</fix>
</trkpt>
<trkpt lat="40.0713749" lon="-105.229789">
  <ele>1583.0</ele>
  <time>2026-08-28T17:55:40Z</time>
  <course>0.0</course>
  <speed>0.0</speed>
  <fix>3d</fix>
</trkpt>
<trkpt lat="40.0713749" lon="-105.229789">
  <ele>1583.0</ele>
  <time>2026-08-28T17:55:40Z</time>
  <course>247.6</course>
  <speed>0.0316227766016838</speed>
  <fix>3d</fix>
</trkpt>
<trkpt lat="40.0713749" lon="-105.229789">
  <ele>1583.0</ele>
  <time>2026-08-28T17:55:40Z</time>
  <course>0.0</course>
  <speed>0.0</speed>
  <fix>3d</fix>
</trkpt>
<trkpt lat="40.0713749" lon="-105.229789">
  <ele>1583.0</ele>
  <time>2026-08-28T17:55:40Z</time>
  <course>247.59</course>
  <speed>0.0316227766016838</speed>
  <fix>3d</fix>
</trkpt>
<trkpt lat="40.0713749" lon="-105.229789">
  <ele>1583.0</ele>
  <time>2026-08-28T17:55:40Z</time>
  <course>0.0</course>
  <speed>0.0</speed>
  <fix>3d</fix>
</trkpt>
<trkpt lat="40.0713749" lon="-105.229789">
  <ele>1582.92</ele>
  <time>2026-08-28T17:55:40Z</time>
  <course>247.59</course>
  <speed>0.0</speed>
  <fix>3d</fix>
</trkpt>
<trkpt lat="40.0713749" lon="-105.229789">
  <ele>1583.0</ele>
  <time>2026-08-28T17:55:40Z</time>
  <course>0.0</course>
  <speed>0.0</speed>
  <fix>3d</fix>
</trkpt>
<trkpt lat="40.0713749" lon="-105.229789">
  <ele>1582.92</ele>
  <time>2026-08-28T17:55:40Z</time>
  <course>247.59</course>
  <speed>0.0</speed>
  <fix>3d</fix>
</trkpt>
<trkpt lat="40.0713749" lon="-105.229789">
  <ele>1583.0</ele>
  <time>2026-08-28T17:55:40Z</time>
  <course>0.0</course>
  <speed>0.0</speed>
  <fix>3d</fix>
</trkpt>
<trkpt lat="40.0713749" lon="-105.229789">
  <ele>1582.91</ele>
  <time>2026-08-28T17:55:40Z</time>
  <course>247.58</course>
  <speed>0.0</speed>
  <fix>3d</fix>
</trkpt>
<trkpt lat="40.0713749" lon="-105.229789">
  <ele>1583.0</ele>
  <time>2026-08-28T17:55:40Z</time>
  <course>0.0</course>
  <speed>0.0</speed>
  <fix>3d</fix>
</trkpt>
<trkpt lat="40.0713749" lon="-105.229789">
  <ele>1582.91</ele>
  <time>2026-08-28T17:55:40Z</time>
  <course>247.58</course>
  <speed>0.0</speed>
  <fix>3d</fix>
</trkpt>
<trkpt lat="40.0713749" lon="-105.229789">
  <ele>1583.0</ele>
  <time>2026-08-28T17:55:40Z</time>
  <course>0.0</course>
  <speed>0.0</speed>
  <fix>3d</fix>
</trkpt>
<trkpt lat="40.0713749" lon="-105.229789">
  <ele>1582.9</ele>
  <time>2026-08-28T17:55:40Z</time>
  <course>247.58</course>
  <speed>0.0</speed>
  <fix>3d</fix>
</trkpt>
<trkpt lat="40.0713749" lon="-105.229789">
  <ele>1583.0</ele>
  <time>2026-08-28T17:55:40Z</time>
  <course>0.0</course>
  <speed>0.0</speed>
  <fix>3d</fix>
</trkpt>
<trkpt lat="40.0713749" lon="-105.229789">
  <ele>1582.9</ele>
  <time>2026-08-28T17:55:40Z</time>
  <course>247.58</course>
  <speed>0.0</speed>
  <fix>3d</fix>
</trkpt>
<trkpt lat="40.0713749" lon="-105.229789">
  <ele>1583.0</ele>
  <time>2026-08-28T17:55:40Z</time>
  <course>0.0</course>
  <speed>0.0</speed>
  <fix>3d</fix>
</trkpt>
<trkpt lat="40.0713749" lon="-105.229789">
  <ele>1582.9</ele>
  <time>2026-08-28T17:55:40Z</time>
  <course>247.57</course>
  <speed>0.0</speed>
  <fix>3d</fix>
</trkpt>
<trkpt lat="40.0713749" lon="-105.229789">
  <ele>1583.0</ele>
  <time>2026-08-28T17:55:40Z</time>
  <course>0.0</course>
  <speed>0.0</speed>
  <fix>3d</fix>
</trkpt>
<trkpt lat="40.0713749" lon="-105.229789">
  <ele>1582.9</ele>
  <time>2026-08-28T17:55:40Z</time>
  <course>247.57</course>
  <speed>0.0</speed>
  <fix>3d</fix>
</trkpt>
<trkpt lat="40.0713749" lon="-105.229789">
  <ele>1583.0</ele>
  <time>2026-08-28T17:55:40Z</time>
  <course>0.0</course>
  <speed>0.0</speed>
  <fix>3d</fix>
</trkpt>
<trkpt lat="40.0713749" lon="-105.229789">
  <ele>1582.9</ele>
  <time>2026-08-28T17:55:40Z</time>
  <course>247.57</course>
  <speed>0.0</speed>
  <fix>3d</fix>
</trkpt>
<trkpt lat="40.0713749" lon="-105.229789">
  <ele>1583.0</ele>
  <time>2026-08-28T17:55:40Z</time>
  <course>0.0</course>
  <speed>0.0</speed>
  <fix>3d</fix>
</trkpt>
<trkpt lat="40.0713749" lon="-105.229789">
  <ele>1582.9</ele>
  <time>2026-08-28T17:55:40Z</time>
  <course>247.57</course>
  <speed>0.01</speed>
  <fix>3d</fix>
</trkpt>
<trkpt lat="40.0713749" lon="-105.229789">
  <ele>1583.0</ele>
  <time>2026-08-28T17:55:40Z</time>
  <course>0.0</course>
  <speed>0.0</speed>
  <fix>3d</fix>
</trkpt>
<trkpt lat="40.0713749" lon="-105.229789">
  <ele>1582.9</ele>
  <time>2026-08-28T17:55:40Z</time>
  <course>247.56</course>
  <speed>0.01</speed>
  <fix>3d</fix>
</trkpt>
<trkpt lat="40.0713749" lon="-105.229789">
  <ele>1583.0</ele>
  <time>2026-08-28T17:55:40Z</time>
  <course>0.0</course>
  <speed>0.0</speed>
  <fix>3d</fix>
</trkpt>
<trkpt lat="40.0713749" lon="-105.229789">
  <ele>1582.91</ele>
  <time>2026-08-28T17:55:40Z</time>
  <course>247.56</course>
  <speed>0.01</speed>
  <fix>3d</fix>
</trkpt>
<trkpt lat="40.0713749" lon="-105.229789">
  <ele>1583.0</ele>
  <time>2026-08-28T17:55:40Z</time>
  <course>0.0</course>
  <speed>0.0</speed>
  <fix>3d</fix>
</trkpt>
<trkpt lat="40.0713749" lon="-105.229789">
  <ele>1582.91</ele>
  <time>2026-08-28T17:55:40Z</time>
  <course>247.56</course>
  <speed>0.01</speed>
  <fix>3d</fix>
</trkpt>
<trkpt lat="40.0713749" lon="-105.229789">
  <ele>1582.91</ele>
  <time>2026-08-28T17:55:40Z</time>
  <course>247.56</course>
  <speed>0.01</speed>
  <fix>3d</fix>
</trkpt>
<trkpt lat="40.0713749" lon="-105.229789">
  <ele>1583.0</ele>
  <time>2026-08-28T17:55:40Z</time>
  <course>0.0</course>
  <speed>0.0</speed>
  <fix>3d</fix>
</trkpt>
<trkpt lat="40.0713749" lon="-105.229789">
  <ele>1582.92</ele>
  <time>2026-08-28T17:55:40Z</time>
  <course>247.56</course>
  <speed>0.01</speed>
  <fix>3d</fix>
</trkpt>
<trkpt lat="40.0713749" lon="-105.229789">
  <ele>1583.0</ele>
  <time>2026-08-28T17:55:40Z</time>
  <course>245.99</course>
  <speed>0.0</speed>
  <fix>3d</fix>
</trkpt>
<trkpt lat="40.0713749" lon="-105.229789">
  <ele>1582.92</ele>
  <time>2026-08-28T17:55:40Z</time>
  <course>247.55</course>
  <speed>0.01</speed>
  <fix>3d</fix>
</trkpt>
<trkpt lat="40.0713749" lon="-105.229789">
  <ele>1583.0</ele>
  <time>2026-08-28T17:55:40Z</time>
  <course>245.99</course>
  <speed>0.0</speed>
  <fix>3d</fix>
</trkpt>
<trkpt lat="40.0713749" lon="-105.229789">
  <ele>1582.92</ele>
  <time>2026-08-28T17:55:40Z</time>
  <course>247.53</course>
  <speed>0.01</speed>
  <fix>3d</fix>
</trkpt>
<trkpt lat="40.0713749" lon="-105.229789">
  <ele>1583.0</ele>
  <time>2026-08-28T17:55:40Z</time>
  <course>245.99</course>
  <speed>0.0</speed>
  <fix>3d</fix>
</trkpt>
<trkpt lat="40.0713749" lon="-105.229789">
  <ele>1582.93</ele>
  <time>2026-08-28T17:55:40Z</time>
  <course>247.57</course>
  <speed>0.01</speed>
  <fix>3d</fix>
</trkpt>
<trkpt lat="40.0713749" lon="-105.229789">
  <ele>1583.0</ele>
  <time>2026-08-28T17:55:40Z</time>
  <course>245.98</course>
  <speed>0.0</speed>
  <fix>3d</fix>
</trkpt>
<trkpt lat="40.0713749" lon="-105.229789">
  <ele>1582.93</ele>
  <time>2026-08-28T17:55:40Z</time>
  <course>247.68</course>
  <speed>0.03</speed>
  <fix>3d</fix>
</trkpt>
<trkpt lat="40.0713749" lon="-105.229789">
  <ele>1583.0</ele>
  <time>2026-08-28T17:55:40Z</time>
  <course>245.98</course>
  <speed>0.0</speed>
  <fix>3d</fix>
</trkpt>
<trkpt lat="40.0713749" lon="-105.2297891">
  <ele>1582.93</ele>
  <time>2026-08-28T17:55:40Z</time>
  <course>247.9</course>
  <speed>0.05</speed>
  <fix>3d</fix>
</trkpt>
<trkpt lat="40.0713749" lon="-105.229789">
  <ele>1583.0</ele>
  <time>2026-08-28T17:55:40Z</time>
  <course>246.09</course>
  <speed>0.02</speed>
  <fix>3d</fix>
</trkpt>
<trkpt lat="40.0713749" lon="-105.2297892">
  <ele>1582.93</ele>
  <time>2026-08-28T17:55:40Z</time>
  <course>248.3</course>
  <speed>0.08062257748298549</speed>
  <fix>3d</fix>
</trkpt>
<trkpt lat="40.0713749" lon="-105.229789">
  <ele>1583.0</ele>
  <time>2026-08-28T17:55:40Z</time>
  <course>246.09</course>
  <speed>0.02</speed>
  <fix>3d</fix>
</trkpt>
<trkpt lat="40.0713749" lon="-105.2297893">
  <ele>1582.94</ele>
  <time>2026-08-28T17:55:40Z</time>
  <course>249.0</course>
  <speed>0.12369316876852982</speed>
  <fix>3d</fix>
</trkpt>
<trkpt lat="40.0713749" lon="-105.2297891">
  <ele>1583.0</ele>
  <time>2026-08-28T17:55:40Z</time>
  <course>246.57</course>
  <speed>0.07</speed>
  <fix>3d</fix>
</trkpt>
<trkpt lat="40.0713749" lon="-105.2297895">
  <ele>1582.94</ele>
  <time>2026-08-28T17:55:40Z</time>
  <course>250.09</course>
  <speed>0.18439088914585774</speed>
  <fix>3d</fix>
</trkpt>
<trkpt lat="40.0713749" lon="-105.2297893">
  <ele>1583.0</ele>
  <time>2026-08-28T17:55:40Z</time>
  <course>247.95</course>
  <speed>0.15</speed>
  <fix>3d</fix>
</trkpt>
<trkpt lat="40.0713748" lon="-105.2297897">
  <ele>1582.94</ele>
  <time>2026-08-28T17:55:40Z</time>
  <course>251.57</course>
  <speed>0.24738633753705963</speed>
  <fix>3d</fix>
</trkpt>
<trkpt lat="40.0713749" lon="-105.2297893">
  <ele>1583.0</ele>
  <time>2026-08-28T17:55:40Z</time>
  <course>247.95</course>
  <speed>0.15</speed>
  <fix>3d</fix>
</trkpt>
<trkpt lat="40.0713747" lon="-105.2297901">
  <ele>1582.95</ele>
  <time>2026-08-28T17:55:40Z</time>
  <course>253.5</course>
  <speed>0.327566787083184</speed>
  <fix>3d</fix>
</trkpt>
<trkpt lat="40.0713748" lon="-105.2297897">
  <ele>1583.0</ele>
  <time>2026-08-28T17:55:40Z</time>
  <course>250.71</course>
  <speed>0.27</speed>
  <fix>3d</fix>
</trkpt>
<trkpt lat="40.0713746" lon="-105.2297905">
  <ele>1582.95</ele>
  <time>2026-08-28T17:55:40Z</time>
  <course>255.93</course>
  <speed>0.41773197148410846</speed>
  <fix>3d</fix>
</trkpt>
<trkpt lat="40.0713748" lon="-105.2297897">
  <ele>1583.0</ele>
  <time>2026-08-28T17:55:40Z</time>
  <course>250.71</course>
  <speed>0.27</speed>
  <fix>3d</fix>
</trkpt>
<trkpt lat="40.0713745" lon="-105.2297911">
  <ele>1582.95</ele>
  <time>2026-08-28T17:55:40Z</time>
  <course>258.95</course>
  <speed>0.5162363799656123</speed>
  <fix>3d</fix>
</trkpt>
<trkpt lat="40.0713746" lon="-105.2297906">
  <ele>1583.0</ele>
  <time>2026-08-28T17:55:40Z</time>
  <course>255.3</course>
  <speed>0.43</speed>
  <fix>3d</fix>
</trkpt>
<trkpt lat="40.0713745" lon="-105.2297918">
  <ele>1582.96</ele>
  <time>2026-08-28T17:55:40Z</time>
  <course>262.61</course>
  <speed>0.6228964600958975</speed>
  <fix>3d</fix>
</trkpt>
<trkpt lat="40.0713746" lon="-105.2297906">
  <ele>1583.0</ele>
  <time>2026-08-28T17:55:40Z</time>
  <course>255.3</course>
  <speed>0.43</speed>
  <fix>3d</fix>
</trkpt>
<trkpt lat="40.0713744" lon="-105.2297927">
  <ele>1582.96</ele>
  <time>2026-08-28T17:55:40Z</time>
  <course>266.93</course>
  <speed>0.7402702209328699</speed>
  <fix>3d</fix>
</trkpt>
<trkpt lat="40.0713743" lon="-105.2297918">
  <ele>1583.0</ele>
  <time>2026-08-28T17:55:40Z</time>
  <course>262.15</course>
  <speed>0.63</speed>
  <fix>3d</fix>
</trkpt>
<trkpt lat="40.0713744" lon="-105.2297937">
  <ele>1582.96</ele>
  <time>2026-08-28T17:55:40Z</time>
  <course>272.02</course>
  <speed>0.8609297300012354</speed>
  <fix>3d</fix>
</trkpt>
<trkpt lat="40.0713743" lon="-105.2297918">
  <ele>1583.0</ele>
  <time>2026-08-28T17:55:40Z</time>
  <course>262.15</course>
  <speed>0.63</speed>
  <fix>3d</fix>
</trkpt>
<trkpt lat="40.0713744" lon="-105.2297948">
  <ele>1582.96</ele>
  <time>2026-08-28T17:55:40Z</time>
  <course>277.8</course>
  <speed>0.9815294188153507</speed>
  <fix>3d</fix>
</trkpt>
<trkpt lat="40.0713743" lon="-105.2297935">
  <ele>1583.0</ele>
  <time>2026-08-28T17:55:40Z</time>
  <course>271.65</course>
  <speed>0.85</speed>
  <fix>3d</fix>
</trkpt>
<trkpt lat="40.0713746" lon="-105.229796">
  <ele>1582.96</ele>
  <time>2026-08-28T17:55:40Z</time>
  <course>284.35</course>
  <speed>1.1086027241532468</speed>
  <fix>3d</fix>
</trkpt>
<trkpt lat="40.0713743" lon="-105.2297935">
  <ele>1583.0</ele>
  <time>2026-08-28T17:55:40Z</time>
  <course>271.65</course>
  <speed>0.85</speed>
  <fix>3d</fix>
</trkpt>
<trkpt lat="40.0713749" lon="-105.2297974">
  <ele>1582.96</ele>
  <time>2026-08-28T17:55:40Z</time>
  <course>291.66</course>
  <speed>1.233085560697229</speed>
  <fix>3d</fix>
</trkpt>
<trkpt lat="40.0713745" lon="-105.2297957">
  <ele>1583.0</ele>
  <time>2026-08-28T17:55:40Z</time>
  <course>284.05</course>
  <speed>1.08</speed>
  <fix>3d</fix>
</trkpt>
<trkpt lat="40.0713754" lon="-105.2297988">
  <ele>1582.95</ele>
  <time>2026-08-28T17:55:40Z</time>
  <course>299.66</course>
  <speed>1.3669308687713508</speed>
  <fix>3d</fix>
</trkpt>
<trkpt lat="40.0713745" lon="-105.2297957">
  <ele>1583.0</ele>
  <time>2026-08-28T17:55:40Z</time>
  <course>284.05</course>
  <speed>1.08</speed>
  <fix>3d</fix>
</trkpt>
<trkpt lat="40.0713761" lon="-105.2298002">
  <ele>1582.95</ele>
  <time>2026-08-28T17:55:40Z</time>
  <course>307.24</course>
  <speed>1.4901342221424216</speed>
  <fix>3d</fix>
</trkpt>
<trkpt lat="40.0713753" lon="-105.2297983">
  <ele>1583.0</ele>
  <time>2026-08-28T17:55:40Z</time>
  <course>298.73</course>
  <speed>1.32</speed>
  <fix>3d</fix>
</trkpt>
<trkpt lat="40.0713771" lon="-105.2298016">
  <ele>1582.95</ele>
  <time>2026-08-28T17:55:40Z</time>
  <course>314.43</course>
  <speed>1.6122034611053282</speed>
  <fix>3d</fix>
</trkpt>
<trkpt lat="40.0713753" lon="-105.2297983">
  <ele>1583.0</ele>
  <time>2026-08-28T17:55:40Z</time>
  <course>298.73</course>
  <speed>1.32</speed>
  <fix>3d</fix>
</trkpt>
<trkpt lat="40.0713782" lon="-105.2298029">
  <ele>1582.95</ele>
  <time>2026-08-28T17:55:40Z</time>
  <course>321.28</course>
  <speed>1.7164206943520577</speed>
  <fix>3d</fix>
</trkpt>
<trkpt lat="40.0713753" lon="-105.2297983">
  <ele>1583.0</ele>
  <time>2026-08-28T17:55:40Z</time>
  <course>298.73</course>
  <speed>1.32</speed>
  <fix>3d</fix>
</trkpt>
<trkpt lat="40.0713795" lon="-105.2298041">
  <ele>1582.95</ele>
  <time>2026-08-28T17:55:40Z</time>
  <course>327.62</course>
  <speed>1.8009441968034434</speed>
  <fix>3d</fix>
</trkpt>
<trkpt lat="40.0713768" lon="-105.2298011">
  <ele>1583.0</ele>
  <time>2026-08-28T17:55:40Z</time>
  <course>313.34</course>
  <speed>1.55</speed>
  <fix>3d</fix>
</trkpt>
<trkpt lat="40.071381" lon="-105.2298051">
  <ele>1582.95</ele>
  <time>2026-08-28T17:55:40Z</time>
  <course>333.12</course>
  <speed>1.8782971010998233</speed>
  <fix>3d</fix>
</trkpt>
<trkpt lat="40.0713768" lon="-105.2298011">
  <ele>1583.0</ele>
  <time>2026-08-28T17:55:40Z</time>
  <course>313.34</course>
  <speed>1.55</speed>
  <fix>3d</fix>
</trkpt>
<trkpt lat="40.0713825" lon="-105.229806">
  <ele>1582.95</ele>
  <time>2026-08-28T17:55:40Z</time>
  <course>337.8</course>
  <speed>1.960943650388761</speed>
  <fix>3d</fix>
</trkpt>
<trkpt lat="40.0713791" lon="-105.2298036">
  <ele>1583.0</ele>
  <time>2026-08-28T17:55:40Z</time>
  <course>326.1</course>
  <speed>1.75</speed>
  <fix>3d</fix>
</trkpt>
<trkpt lat="40.0713842" lon="-105.2298068">
  <ele>1582.95</ele>
  <time>2026-08-28T17:55:40Z</time>
  <course>341.8</course>
  <speed>2.049243762952568</speed>
  <fix>3d</fix>
</trkpt>
<trkpt lat="40.0713791" lon="-105.2298036">
  <ele>1583.0</ele>
  <time>2026-08-28T17:55:40Z</time>
  <course>326.1</course>
  <speed>1.75</speed>
  <fix>3d</fix>
</trkpt>
<trkpt lat="40.0713859" lon="-105.2298074">
  <ele>1582.95</ele>
  <time>2026-08-28T17:55:40Z</time>
  <course>345.19</course>
  <speed>2.1296009015775703</speed>
  <fix>3d</fix>
</trkpt>
<trkpt lat="40.071382" lon="-105.2298056">
  <ele>1583.0</ele>
  <time>2026-08-28T17:55:40Z</time>
  <course>336.27</course>
  <speed>1.91</speed>
  <fix>3d</fix>
</trkpt>
<trkpt lat="40.0713878" lon="-105.229808">
  <ele>1582.95</ele>
  <time>2026-08-28T17:55:40Z</time>
  <course>348.07</course>
  <speed>2.216167863678201</speed>
  <fix>3d</fix>
</trkpt>
<trkpt lat="40.071382" lon="-105.2298056">
  <ele>1583.0</ele>
  <time>2026-08-28T17:55:40Z</time>
  <course>336.27</course>
  <speed>1.91</speed>
  <fix>3d</fix>
</trkpt>
<trkpt lat="40.0713898" lon="-105.2298085">
  <ele>1582.95</ele>
  <time>2026-08-28T17:55:40Z</time>
  <course>350.54</course>
  <speed>2.301586409414168</speed>
  <fix>3d</fix>
</trkpt>
<trkpt lat="40.0713853" lon="-105.2298072">
  <ele>1583.0</ele>
  <time>2026-08-28T17:55:40Z</time>
  <course>343.69</course>
  <speed>2.08</speed>
  <fix>3d</fix>
</trkpt>
<trkpt lat="40.0713918" lon="-105.2298089">
  <ele>1582.95</ele>
  <time>2026-08-28T17:55:40Z</time>
  <course>352.62</course>
  <speed>2.400104164406203</speed>
  <fix>3d</fix>
</trkpt>
<trkpt lat="40.0713892" lon="-105.2298084">
  <ele>1583.0</ele>
  <time>2026-08-28T17:55:40Z</time>
  <course>349.07</course>
  <speed>2.26</speed>
  <fix>3d</fix>
</trkpt>
<trkpt lat="40.071394" lon="-105.2298092">
  <ele>1582.96</ele>
  <time>2026-08-28T17:55:40Z</time>
  <course>354.38</course>
  <speed>2.4925689559167665</speed>
  <fix>3d</fix>
</trkpt>
<trkpt lat="40.0713892" lon="-105.2298084">
  <ele>1583.0</ele>
  <time>2026-08-28T17:55:40Z</time>
  <course>349.07</course>
  <speed>2.26</speed>
  <fix>3d</fix>
</trkpt>
<trkpt lat="40.0713963" lon="-105.2298095">
  <ele>1582.96</ele>
  <time>2026-08-28T17:55:40Z</time>
  <course>355.87</course>
  <speed>2.5869866640553054</speed>
  <fix>3d</fix>
</trkpt>
<trkpt lat="40.0713933" lon="-105.2298092">
  <ele>1583.0</ele>
  <time>2026-08-28T17:55:40Z</time>
  <course>352.95</course>
  <speed>2.44</speed>
  <fix>3d</fix>
</trkpt>
<trkpt lat="40.0713986" lon="-105.2298097">
  <ele>1582.97</ele>
  <time>2026-08-28T17:55:40Z</time>
  <course>357.15</course>
  <speed>2.6836542251191755</speed>
  <fix>3d</fix>
</trkpt>
<trkpt lat="40.0713933" lon="-105.2298092">
  <ele>1583.0</ele>
  <time>2026-08-28T17:55:40Z</time>
  <course>352.95</course>
  <speed>2.44</speed>
  <fix>3d</fix>
</trkpt>
<trkpt lat="40.0714011" lon="-105.2298099">
  <ele>1582.97</ele>
  <time>2026-08-28T17:55:40Z</time>
  <course>358.24</course>
  <speed>2.7814564530116233</speed>
  <fix>3d</fix>
</trkpt>
<trkpt lat="40.0713979" lon="-105.2298098">
  <ele>1583.0</ele>
  <time>2026-08-28T17:55:40Z</time>
  <course>355.75</course>
  <speed>2.63</speed>
  <fix>3d</fix>
</trkpt>
<trkpt lat="40.0714036" lon="-105.22981">
  <ele>1582.97</ele>
  <time>2026-08-28T17:55:40Z</time>
  <course>359.17</course>
  <speed>2.880433995077825</speed>
  <fix>3d</fix>
</trkpt>
<trkpt lat="40.0713979" lon="-105.2298098">
  <ele>1583.0</ele>
  <time>2026-08-28T17:55:40Z</time>
  <course>355.75</course>
  <speed>2.63</speed>
  <fix>3d</fix>
</trkpt>
<trkpt lat="40.0714063" lon="-105.2298101">
  <ele>1582.97</ele>
  <time>2026-08-28T17:55:40Z</time>
  <course>359.96</course>
  <speed>2.980067113338221</speed>
  <fix>3d</fix>
</trkpt>
<trkpt lat="40.0714028" lon="-105.2298102">
  <ele>1583.0</ele>
  <time>2026-08-28T17:55:40Z</time>
  <course>357.79</course>
  <speed>2.82</speed>
  <fix>3d</fix>
</trkpt>
<trkpt lat="40.071409" lon="-105.2298101">
  <ele>1582.97</ele>
  <time>2026-08-28T17:55:40Z</time>
  <course>0.6</course>
  <speed>3.0800162337234527</speed>
  <fix>3d</fix>
</trkpt>
<trkpt lat="40.0714028" lon="-105.2298102">
  <ele>1583.0</ele>
  <time>2026-08-28T17:55:40Z</time>
  <course>357.79</course>
  <speed>2.82</speed>
  <fix>3d</fix>
</trkpt>
<trkpt lat="40.0714118" lon="-105.2298101">
  <ele>1582.97</ele>
  <time>2026-08-28T17:55:40Z</time>
  <course>1.17</course>
  <speed>3.180251562376788</speed>
  <fix>3d</fix>
</trkpt>
<trkpt lat="40.071408" lon="-105.2298103">
  <ele>1583.0</ele>
  <time>2026-08-28T17:55:40Z</time>
  <course>359.27</course>
  <speed>3.02</speed>
  <fix>3d</fix>
</trkpt>
<trkpt lat="40.0714147" lon="-105.2298101">
  <ele>1582.97</ele>
  <time>2026-08-28T17:55:40Z</time>
  <course>1.64</course>
  <speed>3.280548734586944</speed>
  <fix>3d</fix>
</trkpt>
<trkpt lat="40.071408" lon="-105.2298103">
  <ele>1583.0</ele>
  <time>2026-08-28T17:55:40Z</time>
  <course>359.27</course>
  <speed>3.02</speed>
  <fix>3d</fix>
</trkpt>
<trkpt lat="40.0714177" lon="-105.22981">
  <ele>1582.97</ele>
  <time>2026-08-28T17:55:40Z</time>
  <course>2.03</course>
  <speed>3.381198012539343</speed>
  <fix>3d</fix>
</trkpt>
<trkpt lat="40.0714136" lon="-105.2298103">
  <ele>1583.0</ele>
  <time>2026-08-28T17:55:40Z</time>
  <course>0.32</course>
  <speed>3.22</speed>
  <fix>3d</fix>
</trkpt>
<trkpt lat="40.0714208" lon="-105.2298099">
  <ele>1582.97</ele>
  <time>2026-08-28T17:55:40Z</time>
  <course>2.37</course>
  <speed>3.481738071710737</speed>
  <fix>3d</fix>
</trkpt>
<trkpt lat="40.0714136" lon="-105.2298103">
  <ele>1583.0</ele>
  <time>2026-08-28T17:55:40Z</time>
  <course>0.32</course>
  <speed>3.22</speed>
  <fix>3d</fix>
</trkpt>
<trkpt lat="40.071424" lon="-105.2298099">
  <ele>1582.97</ele>
  <time>2026-08-28T17:55:40Z</time>
  <course>2.66</course>
  <speed>3.5923529893372113</speed>
  <fix>3d</fix>
</trkpt>
<trkpt lat="40.0714196" lon="-105.2298103">
  <ele>1583.0</ele>
  <time>2026-08-28T17:55:40Z</time>
  <course>1.07</course>
  <speed>3.42</speed>
  <fix>3d</fix>
</trkpt>
<trkpt lat="40.0714272" lon="-105.2298098">
  <ele>1582.97</ele>
  <time>2026-08-28T17:55:40Z</time>
  <course>2.89</course>
  <speed>3.692654871498283</speed>
  <fix>3d</fix>
</trkpt>
<trkpt lat="40.0714196" lon="-105.2298103">
  <ele>1583.0</ele>
  <time>2026-08-28T17:55:40Z</time>
  <course>1.07</course>
  <speed>3.42</speed>
  <fix>3d</fix>
</trkpt>
<trkpt lat="40.0714306" lon="-105.2298096">
  <ele>1582.97</ele>
  <time>2026-08-28T17:55:40Z</time>
  <course>3.09</course>
  <speed>3.793375805268969</speed>
  <fix>3d</fix>
</trkpt>
<trkpt lat="40.0714196" lon="-105.2298103">
  <ele>1583.0</ele>
  <time>2026-08-28T17:55:40Z</time>
  <course>1.07</course>
  <speed>3.42</speed>
  <fix>3d</fix>
</trkpt>
<trkpt lat="40.071434" lon="-105.2298095">
  <ele>1582.97</ele>
  <time>2026-08-28T17:55:40Z</time>
  <course>3.24</course>
  <speed>3.893712881042977</speed>
  <fix>3d</fix>
</trkpt>
<trkpt lat="40.0714259" lon="-105.2298102">
  <ele>1583.0</ele>
  <time>2026-08-28T17:55:40Z</time>
  <course>1.61</course>
  <speed>3.62</speed>
  <fix>3d</fix>
</trkpt>
<trkpt lat="40.0714375" lon="-105.2298093">
  <ele>1582.98</ele>
  <time>2026-08-28T17:55:40Z</time>
  <course>3.39</course>
  <speed>3.9940580867083044</speed>
  <fix>3d</fix>
</trkpt>
<trkpt lat="40.0714259" lon="-105.2298102">
  <ele>1583.0</ele>
  <time>2026-08-28T17:55:40Z</time>
  <course>1.61</course>
  <speed>3.62</speed>
  <fix>3d</fix>
</trkpt>
<trkpt lat="40.071441" lon="-105.2298092">
  <ele>1582.97</ele>
  <time>2026-08-28T17:55:40Z</time>
  <course>3.51</course>
  <speed>4.084421623681865</speed>
  <fix>3d</fix>
</trkpt>
<trkpt lat="40.0714326" lon="-105.2298099">
  <ele>1583.0</ele>
  <time>2026-08-28T17:55:40Z</time>
  <course>1.99</course>
  <speed>3.82</speed>
  <fix>3d</fix>
</trkpt>
<trkpt lat="40.0714447" lon="-105.229809">
  <ele>1582.97</ele>
  <time>2026-08-28T17:55:40Z</time>
  <course>3.61</course>
  <speed>4.184781953698424</speed>
  <fix>3d</fix>
</trkpt>
<trkpt lat="40.0714326" lon="-105.2298099">
  <ele>1583.0</ele>
  <time>2026-08-28T17:55:40Z</time>
  <course>1.99</course>
  <speed>3.82</speed>
  <fix>3d</fix>
</trkpt>
<trkpt lat="40.0714484" lon="-105.2298088">
  <ele>1582.97</ele>
  <time>2026-08-28T17:55:40Z</time>
  <course>3.72</course>
  <speed>4.285148772213166</speed>
  <fix>3d</fix>
</trkpt>
<trkpt lat="40.0714397" lon="-105.2298096">
  <ele>1583.0</ele>
  <time>2026-08-28T17:55:40Z</time>
  <course>2.26</course>
  <speed>4.02</speed>
  <fix>3d</fix>
</trkpt>
<trkpt lat="40.0714523" lon="-105.2298086">
  <ele>1582.97</ele>
  <time>2026-08-28T17:55:40Z</time>
  <course>3.79</course>
  <speed>4.385031356786403</speed>
  <fix>3d</fix>
</trkpt>
<trkpt lat="40.0714471" lon="-105.2298091">
  <ele>1583.0</ele>
  <time>2026-08-28T17:55:40Z</time>
  <course>2.47</course>
  <speed>4.23</speed>
  <fix>3d</fix>
</trkpt>
<trkpt lat="40.0714562" lon="-105.2298084">
  <ele>1582.97</ele>
  <time>2026-08-28T17:55:40Z</time>
  <course>3.85</course>
  <speed>4.485398533017997</speed>
  <fix>3d</fix>
</trkpt>
<trkpt lat="40.0714471" lon="-105.2298091">
  <ele>1583.0</ele>
  <time>2026-08-28T17:55:40Z</time>
  <course>2.47</course>
  <speed>4.23</speed>
  <fix>3d</fix>
</trkpt>
<trkpt lat="40.0714603" lon="-105.2298082">
  <ele>1582.97</ele>
  <time>2026-08-28T17:55:40Z</time>
  <course>3.9</course>
  <speed>4.595758914477564</speed>
  <fix>3d</fix>
</trkpt>
<trkpt lat="40.0714548" lon="-105.2298087">
  <ele>1583.0</ele>
  <time>2026-08-28T17:55:40Z</time>
  <course>2.63</course>
  <speed>4.44</speed>
  <fix>3d</fix>
</trkpt>
<trkpt lat="40.0714644" lon="-105.2298079">
  <ele>1582.97</ele>
  <time>2026-08-28T17:55:40Z</time>
  <course>3.96</course>
  <speed>4.696136710105446</speed>
  <fix>3d</fix>
</trkpt>
<trkpt lat="40.0714548" lon="-105.2298087">
  <ele>1583.0</ele>
  <time>2026-08-28T17:55:40Z</time>
  <course>2.63</course>
  <speed>4.44</speed>
  <fix>3d</fix>
</trkpt>
<trkpt lat="40.0714686" lon="-105.2298077">
  <ele>1582.98</ele>
  <time>2026-08-28T17:55:40Z</time>
  <course>4.02</course>
  <speed>4.796008757289752</speed>
  <fix>3d</fix>
</trkpt>
<trkpt lat="40.071463" lon="-105.2298082">
  <ele>1583.0</ele>
  <time>2026-08-28T17:55:40Z</time>
  <course>2.75</course>
  <speed>4.64</speed>
  <fix>3d</fix>
</trkpt>
<trkpt lat="40.071473" lon="-105.2298074">
  <ele>1582.98</ele>
  <time>2026-08-28T17:55:40Z</time>
  <course>4.08</course>
  <speed>4.906373406091306</speed>
  <fix>3d</fix>
</trkpt>
<trkpt lat="40.071463" lon="-105.2298082">
  <ele>1583.0</ele>
  <time>2026-08-28T17:55:40Z</time>
  <course>2.75</course>
  <speed>4.64</speed>
  <fix>3d</fix>
</trkpt>
<trkpt lat="40.0714775" lon="-105.2298071">
  <ele>1582.98</ele>
  <time>2026-08-28T17:55:40Z</time>
  <course>4.12</course>
  <speed>5.006755436407894</speed>
  <fix>3d</fix>
</trkpt>
<trkpt lat="40.0714715" lon="-105.2298077">
  <ele>1583.0</ele>
  <time>2026-08-28T17:55:40Z</time>
  <course>2.87</course>
  <speed>4.85</speed>
  <fix>3d</fix>
</trkpt>
<trkpt lat="40.071482" lon="-105.2298068">
  <ele>1582.99</ele>
  <time>2026-08-28T17:55:40Z</time>
  <course>4.15</course>
  <speed>5.107142057941996</speed>
  <fix>3d</fix>
</trkpt>
<trkpt lat="40.0714715" lon="-105.2298077">
  <ele>1583.0</ele>
  <time>2026-08-28T17:55:40Z</time>
  <course>2.87</course>
  <speed>4.85</speed>
  <fix>3d</fix>
</trkpt>
<trkpt lat="40.0714867" lon="-105.2298065">
  <ele>1582.99</ele>
  <time>2026-08-28T17:55:40Z</time>
  <course>4.15</course>
  <speed>5.197018375953658</speed>
  <fix>3d</fix>
</trkpt>
<trkpt lat="40.0714804" lon="-105.229807">
  <ele>1583.0</ele>
  <time>2026-08-28T17:55:40Z</time>
  <course>2.94</course>
  <speed>5.05</speed>
  <fix>3d</fix>
</trkpt>
<trkpt lat="40.0714914" lon="-105.2298062">
  <ele>1582.99</ele>
  <time>2026-08-28T17:55:40Z</time>
  <course>4.14</course>
  <speed>5.266925099144661</speed>
  <fix>3d</fix>
</trkpt>
<trkpt lat="40.0714804" lon="-105.229807">
  <ele>1583.0</ele>
  <time>2026-08-28T17:55:40Z</time>
  <course>2.94</course>
  <speed>5.05</speed>
  <fix>3d</fix>
</trkpt>
<trkpt lat="40.0714961" lon="-105.2298059">
  <ele>1582.99</ele>
  <time>2026-08-28T17:55:40Z</time>
  <course>4.14</course>
  <speed>5.327363325323326</speed>
  <fix>3d</fix>
</trkpt>
<trkpt lat="40.0714896" lon="-105.2298065">
  <ele>1583.0</ele>
  <time>2026-08-28T17:55:40Z</time>
  <course>2.96</course>
  <speed>5.2</speed>
  <fix>3d</fix>
</trkpt>
<trkpt lat="40.0715009" lon="-105.2298056">
  <ele>1582.99</ele>
  <time>2026-08-28T17:55:40Z</time>
  <course>4.13</course>
  <speed>5.367308450238351</speed>
  <fix>3d</fix>
</trkpt>
<trkpt lat="40.0714896" lon="-105.2298065">
  <ele>1583.0</ele>
  <time>2026-08-28T17:55:40Z</time>
  <course>2.96</course>
  <speed>5.2</speed>
  <fix>3d</fix>
</trkpt>
<trkpt lat="40.0715057" lon="-105.2298053">
  <ele>1583.0</ele>
  <time>2026-08-28T17:55:40Z</time>
  <course>4.13</course>
  <speed>5.387281318067584</speed>
  <fix>3d</fix>
</trkpt>
<trkpt lat="40.071499" lon="-105.2298058">
  <ele>1583.0</ele>
  <time>2026-08-28T17:55:40Z</time>
  <course>2.96</course>
  <speed>5.3</speed>
  <fix>3d</fix>
</trkpt>
<trkpt lat="40.0715106" lon="-105.229805">
  <ele>1583.0</ele>
  <time>2026-08-28T17:55:40Z</time>
  <course>4.12</course>
  <speed>5.406745786515212</speed>
  <fix>3d</fix>
</trkpt>
<trkpt lat="40.071499" lon="-105.2298058">
  <ele>1583.0</ele>
  <time>2026-08-28T17:55:40Z</time>
  <course>2.96</course>
  <speed>5.3</speed>
  <fix>3d</fix>
</trkpt>
<trkpt lat="40.0715154" lon="-105.2298047">
  <ele>1583.0</ele>
  <time>2026-08-28T17:55:40Z</time>
  <course>4.12</course>
  <speed>5.406745786515212</speed>
  <fix>3d</fix>
</trkpt>
<trkpt lat="40.071499" lon="-105.2298058">
  <ele>1583.0</ele>
  <time>2026-08-28T17:55:40Z</time>
  <course>2.96</course>
  <speed>5.3</speed>
  <fix>3d</fix>
</trkpt>
<trkpt lat="40.0715202" lon="-105.2298044">
  <ele>1583.0</ele>
  <time>2026-08-28T17:55:40Z</time>
  <course>4.11</course>
  <speed>5.406745786515212</speed>
  <fix>3d</fix>
</trkpt>
<trkpt lat="40.0715086" lon="-105.2298051">
  <ele>1583.0</ele>
  <time>2026-08-28T17:55:40Z</time>
  <course>2.96</course>
  <speed>5.35</speed>
  <fix>3d</fix>
</trkpt>
<trkpt lat="40.071525" lon="-105.2298041">
  <ele>1583.0</ele>
  <time>2026-08-28T17:55:40Z</time>
  <course>4.1</course>
  <speed>5.386770832326172</speed>
  <fix>3d</fix>
</trkpt>
<trkpt lat="40.0715086" lon="-105.2298051">
  <ele>1583.0</ele>
  <time>2026-08-28T17:55:40Z</time>
  <course>2.96</course>
  <speed>5.35</speed>
  <fix>3d</fix>
</trkpt>
<trkpt lat="40.0715297" lon="-105.2298037">
  <ele>1583.0</ele>
  <time>2026-08-28T17:55:40Z</time>
  <course>4.09</course>
  <speed>5.366302265061111</speed>
  <fix>3d</fix>
</trkpt>
<trkpt lat="40.0715182" lon="-105.2298045">
  <ele>1583.0</ele>
  <time>2026-08-28T17:55:40Z</time>
  <course>2.96</course>
  <speed>5.35</speed>
  <fix>3d</fix>
</trkpt>
<trkpt lat="40.0715344" lon="-105.2298034">
  <ele>1583.0</ele>
  <time>2026-08-28T17:55:40Z</time>
  <course>4.08</course>
  <speed>5.3463258411735435</speed>
  <fix>3d</fix>
</trkpt>
<trkpt lat="40.0715182" lon="-105.2298045">
  <ele>1583.0</ele>
  <time>2026-08-28T17:55:40Z</time>
  <course>2.96</course>
  <speed>5.35</speed>
  <fix>3d</fix>
</trkpt>
<trkpt lat="40.0715391" lon="-105.2298031">
  <ele>1583.0</ele>
  <time>2026-08-28T17:55:40Z</time>
  <course>4.07</course>
  <speed>5.3163615377436475</speed>
  <fix>3d</fix>
</trkpt>
<trkpt lat="40.0715279" lon="-105.2298038">
  <ele>1583.0</ele>
  <time>2026-08-28T17:55:40Z</time>
  <course>2.96</course>
  <speed>5.33</speed>
  <fix>3d</fix>
</trkpt>
<trkpt lat="40.0715438" lon="-105.2298028">
  <ele>1583.0</ele>
  <time>2026-08-28T17:55:40Z</time>
  <course>4.06</course>
  <speed>5.2859152471450015</speed>
  <fix>3d</fix>
</trkpt>
<trkpt lat="40.0715279" lon="-105.2298038">
  <ele>1583.0</ele>
  <time>2026-08-28T17:55:40Z</time>
  <course>2.96</course>
  <speed>5.33</speed>
  <fix>3d</fix>
</trkpt>
<trkpt lat="40.0715485" lon="-105.2298025">
  <ele>1583.0</ele>
  <time>2026-08-28T17:55:40Z</time>
  <course>4.05</course>
  <speed>5.245960350593588</speed>
  <fix>3d</fix>
</trkpt>
<trkpt lat="40.0715374" lon="-105.2298032">
  <ele>1583.0</ele>
  <time>2026-08-28T17:55:40Z</time>
  <course>2.96</course>
  <speed>5.29</speed>
  <fix>3d</fix>
</trkpt>
<trkpt lat="40.0715531" lon="-105.2298022">
  <ele>1583.0</ele>
  <time>2026-08-28T17:55:40Z</time>
  <course>4.04</course>
  <speed>5.215994631899078</speed>
  <fix>3d</fix>
</trkpt>
<trkpt lat="40.0715469" lon="-105.2298026">
  <ele>1583.0</ele>
  <time>2026-08-28T17:55:40Z</time>
  <course>2.96</course>
  <speed>5.24</speed>
  <fix>3d</fix>
</trkpt>
<trkpt lat="40.0715577" lon="-105.2298019">
  <ele>1583.0</ele>
  <time>2026-08-28T17:55:40Z</time>
  <course>4.04</course>
  <speed>5.18555686498567</speed>
  <fix>3d</fix>
</trkpt>
<trkpt lat="40.0715469" lon="-105.2298026">
  <ele>1583.0</ele>
  <time>2026-08-28T17:55:40Z</time>
  <course>2.96</course>
  <speed>5.24</speed>
  <fix>3d</fix>
</trkpt>
<trkpt lat="40.0715623" lon="-105.2298017">
  <ele>1583.0</ele>
  <time>2026-08-28T17:55:40Z</time>
  <course>4.03</course>
  <speed>5.15558920008179</speed>
  <fix>3d</fix>
</trkpt>
<trkpt lat="40.0715562" lon="-105.2298019">
  <ele>1583.0</ele>
  <time>2026-08-28T17:55:40Z</time>
  <course>2.96</course>
  <speed>5.19</speed>
  <fix>3d</fix>
</trkpt>
<trkpt lat="40.0715669" lon="-105.2298014">
  <ele>1583.0</ele>
  <time>2026-08-28T17:55:40Z</time>
  <course>4.03</course>
  <speed>5.135610966574474</speed>
  <fix>3d</fix>
</trkpt>
<trkpt lat="40.0715562" lon="-105.2298019">
  <ele>1583.0</ele>
  <time>2026-08-28T17:55:40Z</time>
  <course>2.96</course>
  <speed>5.19</speed>
  <fix>3d</fix>
</trkpt>
<trkpt lat="40.0715715" lon="-105.2298011">
  <ele>1583.0</ele>
  <time>2026-08-28T17:55:40Z</time>
  <course>4.03</course>
  <speed>5.105643935881154</speed>
  <fix>3d</fix>
</trkpt>
<trkpt lat="40.0715655" lon="-105.2298013">
  <ele>1583.0</ele>
  <time>2026-08-28T17:55:40Z</time>
  <course>2.96</course>
  <speed>5.13</speed>
  <fix>3d</fix>
</trkpt>
<trkpt lat="40.0715761" lon="-105.2298008">
  <ele>1583.0</ele>
  <time>2026-08-28T17:55:40Z</time>
  <course>4.03</course>
  <speed>5.08520402737196</speed>
  <fix>3d</fix>
</trkpt>
<trkpt lat="40.0715655" lon="-105.2298013">
  <ele>1583.0</ele>
  <time>2026-08-28T17:55:40Z</time>
  <course>2.96</course>
  <speed>5.13</speed>
  <fix>3d</fix>
</trkpt>
<trkpt lat="40.0715807" lon="-105.2298005">
  <ele>1583.0</ele>
  <time>2026-08-28T17:55:40Z</time>
  <course>4.03</course>
  <speed>5.0552349104665755</speed>
  <fix>3d</fix>
</trkpt>
<trkpt lat="40.0715746" lon="-105.2298007">
  <ele>1583.0</ele>
  <time>2026-08-28T17:55:40Z</time>
  <course>2.96</course>
  <speed>5.09</speed>
  <fix>3d</fix>
</trkpt>
<trkpt lat="40.0715853" lon="-105.2298002">
  <ele>1583.0</ele>
  <time>2026-08-28T17:55:40Z</time>
  <course>4.02</course>
  <speed>5.035255703536812</speed>
  <fix>3d</fix>
</trkpt>
<trkpt lat="40.0715746" lon="-105.2298007">
  <ele>1583.0</ele>
  <time>2026-08-28T17:55:40Z</time>
  <course>2.96</course>
  <speed>5.09</speed>
  <fix>3d</fix>
</trkpt>
<trkpt lat="40.0715898" lon="-105.2297999">
  <ele>1583.0</ele>
  <time>2026-08-28T17:55:40Z</time>
  <course>4.02</course>
  <speed>5.015276662358718</speed>
  <fix>3d</fix>
</trkpt>
<trkpt lat="40.0715837" lon="-105.2298001">
  <ele>1583.0</ele>
  <time>2026-08-28T17:55:40Z</time>
  <course>2.96</course>
  <speed>5.05</speed>
  <fix>3d</fix>
</trkpt>
<trkpt lat="40.0715943" lon="-105.2297996">
  <ele>1583.0</ele>
  <time>2026-08-28T17:55:40Z</time>
  <course>4.02</course>
  <speed>5.005287204546808</speed>
  <fix>3d</fix>
</trkpt>
<trkpt lat="40.0715837" lon="-105.2298001">
  <ele>1583.0</ele>
  <time>2026-08-28T17:55:40Z</time>
  <course>2.96</course>
  <speed>5.05</speed>
  <fix>3d</fix>
</trkpt>
<trkpt lat="40.0715988" lon="-105.2297993">
  <ele>1583.0</ele>
  <time>2026-08-28T17:55:40Z</time>
  <course>4.02</course>
  <speed>4.985308415735179</speed>
  <fix>3d</fix>
</trkpt>
<trkpt lat="40.0715928" lon="-105.2297995">
  <ele>1583.0</ele>
  <time>2026-08-28T17:55:40Z</time>
  <course>2.96</course>
  <speed>5.01</speed>
  <fix>3d</fix>
</trkpt>
<trkpt lat="40.0716033" lon="-105.229799">
  <ele>1583.01</ele>
  <time>2026-08-28T17:55:40Z</time>
  <course>4.01</course>
  <speed>4.975319085244684</speed>
  <fix>3d</fix>
</trkpt>
<trkpt lat="40.0715928" lon="-105.2297995">
  <ele>1583.0</ele>
  <time>2026-08-28T17:55:40Z</time>
  <course>2.96</course>
  <speed>5.01</speed>
  <fix>3d</fix>
</trkpt>
<trkpt lat="40.0716078" lon="-105.2297987">
  <ele>1583.01</ele>
  <time>2026-08-28T17:55:40Z</time>
  <course>4.01</course>
  <speed>4.965329797707298</speed>
  <fix>3d</fix>
</trkpt>
<trkpt lat="40.0716017" lon="-105.2297988">
  <ele>1583.0</ele>
  <time>2026-08-28T17:55:40Z</time>
  <course>2.96</course>
  <speed>4.99</speed>
  <fix>3d</fix>
</trkpt>
<trkpt lat="40.0716122" lon="-105.2297984">
  <ele>1583.01</ele>
  <time>2026-08-28T17:55:40Z</time>
  <course>3.97</course>
  <speed>4.955340553382785</speed>
  <fix>3d</fix>
</trkpt>
<trkpt lat="40.0716017" lon="-105.2297988">
  <ele>1583.0</ele>
  <time>2026-08-28T17:55:40Z</time>
  <course>2.96</course>
  <speed>4.99</speed>
  <fix>3d</fix>
</trkpt>
<trkpt lat="40.0716167" lon="-105.2297981">
  <ele>1583.01</ele>
  <time>2026-08-28T17:55:40Z</time>
  <course>3.91</course>
  <speed>4.94489635887346</speed>
  <fix>3d</fix>
</trkpt>
<trkpt lat="40.0716017" lon="-105.2297988">
  <ele>1583.0</ele>
  <time>2026-08-28T17:55:40Z</time>
  <course>2.96</course>
  <speed>4.99</speed>
  <fix>3d</fix>
</trkpt>
<trkpt lat="40.0716211" lon="-105.2297978">
  <ele>1583.01</ele>
  <time>2026-08-28T17:55:40Z</time>
  <course>3.85</course>
  <speed>4.94489635887346</speed>
  <fix>3d</fix>
</trkpt>
<trkpt lat="40.0716107" lon="-105.2297983">
  <ele>1583.0</ele>
  <time>2026-08-28T17:55:40Z</time>
  <course>2.91</course>
  <speed>4.97</speed>
  <fix>3d</fix>
</trkpt>
<trkpt lat="40.0716255" lon="-105.2297975">
  <ele>1583.01</ele>
  <time>2026-08-28T17:55:40Z</time>
  <course>3.78</course>
  <speed>4.934470589637757</speed>
  <fix>3d</fix>
</trkpt>
<trkpt lat="40.0716107" lon="-105.2297983">
  <ele>1583.0</ele>
  <time>2026-08-28T17:55:40Z</time>
  <course>2.91</course>
  <speed>4.97</speed>
  <fix>3d</fix>
</trkpt>
<trkpt lat="40.0716299" lon="-105.2297972">
  <ele>1583.01</ele>
  <time>2026-08-28T17:55:40Z</time>
  <course>3.72</course>
  <speed>4.934470589637757</speed>
  <fix>3d</fix>
</trkpt>
<trkpt lat="40.0716196" lon="-105.2297976">
  <ele>1583.0</ele>
  <time>2026-08-28T17:55:40Z</time>
  <course>2.8</course>
  <speed>4.96</speed>
  <fix>3d</fix>
</trkpt>
<trkpt lat="40.0716343" lon="-105.229797">
  <ele>1583.01</ele>
  <time>2026-08-28T17:55:40Z</time>
  <course>3.65</course>
  <speed>4.93405512737748</speed>
  <fix>3d</fix>
</trkpt>
<trkpt lat="40.0716196" lon="-105.2297976">
  <ele>1583.0</ele>
  <time>2026-08-28T17:55:40Z</time>
  <course>2.8</course>
  <speed>4.96</speed>
  <fix>3d</fix>
</trkpt>
<trkpt lat="40.0716387" lon="-105.2297967">
  <ele>1583.01</ele>
  <time>2026-08-28T17:55:40Z</time>
  <course>3.58</course>
  <speed>4.924063362711736</speed>
  <fix>3d</fix>
</trkpt>
<trkpt lat="40.0716285" lon="-105.2297971">
  <ele>1583.0</ele>
  <time>2026-08-28T17:55:40Z</time>
  <course>2.68</course>
  <speed>4.96</speed>
  <fix>3d</fix>
</trkpt>
<trkpt lat="40.0716431" lon="-105.2297964">
  <ele>1583.02</ele>
  <time>2026-08-28T17:55:40Z</time>
  <course>3.51</course>
  <speed>4.93405512737748</speed>
  <fix>3d</fix>
</trkpt>
<trkpt lat="40.0716374" lon="-105.2297966">
  <ele>1583.0</ele>
  <time>2026-08-28T17:55:40Z</time>
  <course>2.55</course>
  <speed>4.96</speed>
  <fix>3d</fix>
</trkpt>
<trkpt lat="40.0716476" lon="-105.2297962">
  <ele>1583.02</ele>
  <time>2026-08-28T17:55:40Z</time>
  <course>3.44</course>
  <speed>4.933659899101275</speed>
  <fix>3d</fix>
</trkpt>
<trkpt lat="40.0716374" lon="-105.2297966">
  <ele>1583.0</ele>
  <time>2026-08-28T17:55:40Z</time>
  <course>2.55</course>
  <speed>4.96</speed>
  <fix>3d</fix>
</trkpt>
<trkpt lat="40.071652" lon="-105.2297959">
  <ele>1583.02</ele>
  <time>2026-08-28T17:55:40Z</time>
  <course>3.37</course>
  <speed>4.923667332385485</speed>
  <fix>3d</fix>
</trkpt>
<trkpt lat="40.0716463" lon="-105.2297961">
  <ele>1583.0</ele>
  <time>2026-08-28T17:55:40Z</time>
  <course>2.42</course>
  <speed>4.96</speed>
  <fix>3d</fix>
</trkpt>
<trkpt lat="40.0716564" lon="-105.2297957">
  <ele>1583.02</ele>
  <time>2026-08-28T17:55:40Z</time>
  <course>3.31</course>
  <speed>4.913298281195637</speed>
  <fix>3d</fix>
</trkpt>
<trkpt lat="40.0716463" lon="-105.2297961">
  <ele>1583.0</ele>
  <time>2026-08-28T17:55:40Z</time>
  <course>2.42</course>
  <speed>4.96</speed>
  <fix>3d</fix>
</trkpt>
<trkpt lat="40.0716608" lon="-105.2297955">
  <ele>1583.02</ele>
  <time>2026-08-28T17:55:40Z</time>
  <course>3.25</course>
  <speed>4.872966242444123</speed>
  <fix>3d</fix>
</trkpt>
<trkpt lat="40.0716552" lon="-105.2297956">
  <ele>1583.0</ele>
  <time>2026-08-28T17:55:40Z</time>
  <course>2.29</course>
  <speed>4.94</speed>
  <fix>3d</fix>
</trkpt>
<trkpt lat="40.0716652" lon="-105.2297953">
  <ele>1583.02</ele>
  <time>2026-08-28T17:55:40Z</time>
  <course>3.19</course>
  <speed>4.832990792459675</speed>
  <fix>3d</fix>
</trkpt>
<trkpt lat="40.0716552" lon="-105.2297956">
  <ele>1583.0</ele>
  <time>2026-08-28T17:55:40Z</time>
  <course>2.29</course>
  <speed>4.94</speed>
  <fix>3d</fix>
</trkpt>
<trkpt lat="40.0716696" lon="-105.229795">
  <ele>1583.02</ele>
  <time>2026-08-28T17:55:40Z</time>
  <course>3.13</course>
  <speed>4.7726826837743985</speed>
  <fix>3d</fix>
</trkpt>
<trkpt lat="40.0716641" lon="-105.2297952">
  <ele>1583.0</ele>
  <time>2026-08-28T17:55:40Z</time>
  <course>2.15</course>
  <speed>4.86</speed>
  <fix>3d</fix>
</trkpt>
<trkpt lat="40.0716739" lon="-105.2297948">
  <ele>1583.02</ele>
  <time>2026-08-28T17:55:40Z</time>
  <course>3.07</course>
  <speed>4.69239810757783</speed>
  <fix>3d</fix>
</trkpt>
<trkpt lat="40.0716641" lon="-105.2297952">
  <ele>1583.0</ele>
  <time>2026-08-28T17:55:40Z</time>
  <course>2.15</course>
  <speed>4.86</speed>
  <fix>3d</fix>
</trkpt>
<trkpt lat="40.0716781" lon="-105.2297947">
  <ele>1583.02</ele>
  <time>2026-08-28T17:55:40Z</time>
  <course>3.01</course>
  <speed>4.6121253235357775</speed>
  <fix>3d</fix>
</trkpt>
<trkpt lat="40.0716727" lon="-105.2297947">
  <ele>1583.0</ele>
  <time>2026-08-28T17:55:40Z</time>
  <course>2.02</course>
  <speed>4.73</speed>
  <fix>3d</fix>
</trkpt>
<trkpt lat="40.0716823" lon="-105.2297945">
  <ele>1583.02</ele>
  <time>2026-08-28T17:55:40Z</time>
  <course>2.95</course>
  <speed>4.521869082580786</speed>
  <fix>3d</fix>
</trkpt>
<trkpt lat="40.0716727" lon="-105.2297947">
  <ele>1583.0</ele>
  <time>2026-08-28T17:55:40Z</time>
  <course>2.02</course>
  <speed>4.73</speed>
  <fix>3d</fix>
</trkpt>
<trkpt lat="40.0716863" lon="-105.2297943">
  <ele>1583.02</ele>
  <time>2026-08-28T17:55:40Z</time>
  <course>2.89</course>
  <speed>4.411632350955823</speed>
  <fix>3d</fix>
</trkpt>
<trkpt lat="40.071681" lon="-105.2297944">
  <ele>1583.0</ele>
  <time>2026-08-28T17:55:40Z</time>
  <course>1.9</course>
  <speed>4.55</speed>
  <fix>3d</fix>
</trkpt>
<trkpt lat="40.0716903" lon="-105.2297941">
  <ele>1583.02</ele>
  <time>2026-08-28T17:55:40Z</time>
  <course>2.83</course>
  <speed>4.301406746635338</speed>
  <fix>3d</fix>
</trkpt>
<trkpt lat="40.071681" lon="-105.2297944">
  <ele>1583.0</ele>
  <time>2026-08-28T17:55:40Z</time>
  <course>1.9</course>
  <speed>4.55</speed>
  <fix>3d</fix>
</trkpt>
<trkpt lat="40.0716941" lon="-105.229794">
  <ele>1583.03</ele>
  <time>2026-08-28T17:55:40Z</time>
  <course>2.78</course>
  <speed>4.19119314754164</speed>
  <fix>3d</fix>
</trkpt>
<trkpt lat="40.0716889" lon="-105.229794">
  <ele>1583.0</ele>
  <time>2026-08-28T17:55:40Z</time>
  <course>1.78</course>
  <speed>4.34</speed>
  <fix>3d</fix>
</trkpt>
<trkpt lat="40.0716978" lon="-105.2297939">
  <ele>1583.03</ele>
  <time>2026-08-28T17:55:40Z</time>
  <course>2.72</course>
  <speed>4.071228315877163</speed>
  <fix>3d</fix>
</trkpt>
<trkpt lat="40.0716889" lon="-105.229794">
  <ele>1583.0</ele>
  <time>2026-08-28T17:55:40Z</time>
  <course>1.78</course>
  <speed>4.34</speed>
  <fix>3d</fix>
</trkpt>
<trkpt lat="40.0717015" lon="-105.2297937">
  <ele>1583.03</ele>
  <time>2026-08-28T17:55:40Z</time>
  <course>2.67</course>
  <speed>3.9410277847282424</speed>
  <fix>3d</fix>
</trkpt>
<trkpt lat="40.0716889" lon="-105.229794">
  <ele>1583.0</ele>
  <time>2026-08-28T17:55:40Z</time>
  <course>1.78</course>
  <speed>4.34</speed>
  <fix>3d</fix>
</trkpt>
<trkpt lat="40.0717049" lon="-105.2297936">
  <ele>1583.03</ele>
  <time>2026-08-28T17:55:40Z</time>
  <course>2.61</course>
  <speed>3.8108398024582453</speed>
  <fix>3d</fix>
</trkpt>
<trkpt lat="40.0716966" lon="-105.2297937">
  <ele>1583.0</ele>
  <time>2026-08-28T17:55:40Z</time>
  <course>1.66</course>
  <speed>4.11</speed>
  <fix>3d</fix>
</trkpt>
<trkpt lat="40.0717083" lon="-105.2297935">
  <ele>1583.03</ele>
  <time>2026-08-28T17:55:40Z</time>
  <course>2.54</course>
  <speed>3.6806657006579666</speed>
  <fix>3d</fix>
</trkpt>
<trkpt lat="40.0716966" lon="-105.2297937">
  <ele>1583.0</ele>
  <time>2026-08-28T17:55:40Z</time>
  <course>1.66</course>
  <speed>4.11</speed>
  <fix>3d</fix>
</trkpt>
<trkpt lat="40.0717115" lon="-105.2297934">
  <ele>1583.03</ele>
  <time>2026-08-28T17:55:40Z</time>
  <course>2.45</course>
  <speed>3.550507006048573</speed>
  <fix>3d</fix>
</trkpt>
<trkpt lat="40.0717038" lon="-105.2297935">
  <ele>1583.0</ele>
  <time>2026-08-28T17:55:40Z</time>
  <course>1.54</course>
  <speed>3.86</speed>
  <fix>3d</fix>
</trkpt>
<trkpt lat="40.0717146" lon="-105.2297933">
  <ele>1583.03</ele>
  <time>2026-08-28T17:55:40Z</time>
  <course>2.36</course>
  <speed>3.4203654775476844</speed>
  <fix>3d</fix>
</trkpt>
<trkpt lat="40.0717038" lon="-105.2297935">
  <ele>1583.0</ele>
  <time>2026-08-28T17:55:40Z</time>
  <course>1.54</course>
  <speed>3.86</speed>
  <fix>3d</fix>
</trkpt>
<trkpt lat="40.0717176" lon="-105.2297932">
  <ele>1583.04</ele>
  <time>2026-08-28T17:55:40Z</time>
  <course>2.28</course>
  <speed>3.2903799172739916</speed>
  <fix>3d</fix>
</trkpt>
<trkpt lat="40.0717105" lon="-105.2297932">
  <ele>1583.0</ele>
  <time>2026-08-28T17:55:40Z</time>
  <course>1.4</course>
  <speed>3.6</speed>
  <fix>3d</fix>
</trkpt>
<trkpt lat="40.0717205" lon="-105.2297931">
  <ele>1583.04</ele>
  <time>2026-08-28T17:55:40Z</time>
  <course>2.19</course>
  <speed>3.160253154416589</speed>
  <fix>3d</fix>
</trkpt>
<trkpt lat="40.0717168" lon="-105.2297931">
  <ele>1583.0</ele>
  <time>2026-08-28T17:55:40Z</time>
  <course>1.23</course>
  <speed>3.35</speed>
  <fix>3d</fix>
</trkpt>
<trkpt lat="40.0717233" lon="-105.2297931">
  <ele>1583.04</ele>
  <time>2026-08-28T17:55:40Z</time>
  <course>2.11</course>
  <speed>3.03014851121195</speed>
  <fix>3d</fix>
</trkpt>
<trkpt lat="40.0717168" lon="-105.2297931">
  <ele>1583.0</ele>
  <time>2026-08-28T17:55:40Z</time>
  <course>1.23</course>
  <speed>3.35</speed>
  <fix>3d</fix>
</trkpt>
<trkpt lat="40.071726" lon="-105.229793">
  <ele>1583.05</ele>
  <time>2026-08-28T17:55:40Z</time>
  <course>2.02</course>
  <speed>2.9000689646972186</speed>
  <fix>3d</fix>
</trkpt>
<trkpt lat="40.0717226" lon="-105.2297929">
  <ele>1583.0</ele>
  <time>2026-08-28T17:55:40Z</time>
  <course>1.07</course>
  <speed>3.1</speed>
  <fix>3d</fix>
</trkpt>
<trkpt lat="40.0717285" lon="-105.229793">
  <ele>1583.05</ele>
  <time>2026-08-28T17:55:40Z</time>
  <course>1.95</course>
  <speed>2.780071941515183</speed>
  <fix>3d</fix>
</trkpt>
<trkpt lat="40.0717226" lon="-105.2297929">
  <ele>1583.0</ele>
  <time>2026-08-28T17:55:40Z</time>
  <course>1.07</course>
  <speed>3.1</speed>
  <fix>3d</fix>
</trkpt>
<trkpt lat="40.071731" lon="-105.2297929">
  <ele>1583.05</ele>
  <time>2026-08-28T17:55:40Z</time>
  <course>1.88</course>
  <speed>2.660018796926067</speed>
  <fix>3d</fix>
</trkpt>
<trkpt lat="40.0717279" lon="-105.2297928">
  <ele>1583.0</ele>
  <time>2026-08-28T17:55:40Z</time>
  <course>0.91</course>
  <speed>2.85</speed>
  <fix>3d</fix>
</trkpt>
<trkpt lat="40.0717334" lon="-105.2297929">
  <ele>1583.05</ele>
  <time>2026-08-28T17:55:40Z</time>
  <course>1.81</course>
  <speed>2.540019684963091</speed>
  <fix>3d</fix>
</trkpt>
<trkpt lat="40.0717279" lon="-105.2297928">
  <ele>1583.0</ele>
  <time>2026-08-28T17:55:40Z</time>
  <course>0.91</course>
  <speed>2.85</speed>
  <fix>3d</fix>
</trkpt>
<trkpt lat="40.0717356" lon="-105.2297929">
  <ele>1583.05</ele>
  <time>2026-08-28T17:55:40Z</time>
  <course>1.74</course>
  <speed>2.43</speed>
  <fix>3d</fix>
</trkpt>
<trkpt lat="40.0717328" lon="-105.2297927">
  <ele>1583.0</ele>
  <time>2026-08-28T17:55:40Z</time>
  <course>0.77</course>
  <speed>2.61</speed>
  <fix>3d</fix>
</trkpt>
<trkpt lat="40.0717378" lon="-105.2297928">
  <ele>1583.06</ele>
  <time>2026-08-28T17:55:40Z</time>
  <course>1.67</course>
  <speed>2.31</speed>
  <fix>3d</fix>
</trkpt>
<trkpt lat="40.0717328" lon="-105.2297927">
  <ele>1583.0</ele>
  <time>2026-08-28T17:55:40Z</time>
  <course>0.77</course>
  <speed>2.61</speed>
  <fix>3d</fix>
</trkpt>
<trkpt lat="40.0717399" lon="-105.2297928">
  <ele>1583.06</ele>
  <time>2026-08-28T17:55:40Z</time>
  <course>1.61</course>
  <speed>2.2</speed>
  <fix>3d</fix>
</trkpt>
<trkpt lat="40.0717373" lon="-105.2297926">
  <ele>1583.0</ele>
  <time>2026-08-28T17:55:40Z</time>
  <course>0.63</course>
  <speed>2.38</speed>
  <fix>3d</fix>
</trkpt>
<trkpt lat="40.0717418" lon="-105.2297928">
  <ele>1583.06</ele>
  <time>2026-08-28T17:55:40Z</time>
  <course>1.55</course>
  <speed>2.09</speed>
  <fix>3d</fix>
</trkpt>
<trkpt lat="40.0717373" lon="-105.2297926">
  <ele>1583.0</ele>
  <time>2026-08-28T17:55:40Z</time>
  <course>0.63</course>
  <speed>2.38</speed>
  <fix>3d</fix>
</trkpt>
<trkpt lat="40.0717437" lon="-105.2297928">
  <ele>1583.05</ele>
  <time>2026-08-28T17:55:40Z</time>
  <course>1.49</course>
  <speed>1.98</speed>
  <fix>3d</fix>
</trkpt>
<trkpt lat="40.0717414" lon="-105.2297926">
  <ele>1583.0</ele>
  <time>2026-08-28T17:55:40Z</time>
  <course>0.51</course>
  <speed>2.17</speed>
  <fix>3d</fix>
</trkpt>
<trkpt lat="40.0717454" lon="-105.2297927">
  <ele>1583.06</ele>
  <time>2026-08-28T17:55:40Z</time>
  <course>1.43</course>
  <speed>1.88</speed>
  <fix>3d</fix>
</trkpt>
<trkpt lat="40.0717414" lon="-105.2297926">
  <ele>1583.0</ele>
  <time>2026-08-28T17:55:40Z</time>
  <course>0.51</course>
  <speed>2.17</speed>
  <fix>3d</fix>
</trkpt>
<trkpt lat="40.0717471" lon="-105.2297927">
  <ele>1583.06</ele>
  <time>2026-08-28T17:55:40Z</time>
  <course>1.38</course>
  <speed>1.77</speed>
  <fix>3d</fix>
</trkpt>
<trkpt lat="40.0717451" lon="-105.2297925">
  <ele>1583.0</ele>
  <time>2026-08-28T17:55:40Z</time>
  <course>0.39</course>
  <speed>1.95</speed>
  <fix>3d</fix>
</trkpt>
<trkpt lat="40.0717487" lon="-105.2297927">
  <ele>1583.06</ele>
  <time>2026-08-28T17:55:40Z</time>
  <course>1.34</course>
  <speed>1.67</speed>
  <fix>3d</fix>
</trkpt>
<trkpt lat="40.0717451" lon="-105.2297925">
  <ele>1583.0</ele>
  <time>2026-08-28T17:55:40Z</time>
  <course>0.39</course>
  <speed>1.95</speed>
  <fix>3d</fix>
</trkpt>
<trkpt lat="40.0717502" lon="-105.2297927">
  <ele>1583.06</ele>
  <time>2026-08-28T17:55:40Z</time>
  <course>1.28</course>
  <speed>1.57</speed>
  <fix>3d</fix>
</trkpt>
<trkpt lat="40.0717451" lon="-105.2297925">
  <ele>1583.0</ele>
  <time>2026-08-28T17:55:40Z</time>
  <course>0.39</course>
  <speed>1.95</speed>
  <fix>3d</fix>
</trkpt>
<trkpt lat="40.0717516" lon="-105.2297927">
  <ele>1583.05</ele>
  <time>2026-08-28T17:55:40Z</time>
  <course>1.21</course>
  <speed>1.47</speed>
  <fix>3d</fix>
</trkpt>
<trkpt lat="40.0717485" lon="-105.2297925">
  <ele>1583.0</ele>
  <time>2026-08-28T17:55:40Z</time>
  <course>0.29</course>
  <speed>1.75</speed>
  <fix>3d</fix>
</trkpt>
<trkpt lat="40.0717529" lon="-105.2297927">
  <ele>1583.05</ele>
  <time>2026-08-28T17:55:40Z</time>
  <course>1.15</course>
  <speed>1.3700364958642524</speed>
  <fix>3d</fix>
</trkpt>
<trkpt lat="40.0717485" lon="-105.2297925">
  <ele>1583.0</ele>
  <time>2026-08-28T17:55:40Z</time>
  <course>0.29</course>
  <speed>1.75</speed>
  <fix>3d</fix>
</trkpt>
<trkpt lat="40.0717541" lon="-105.2297927">
  <ele>1583.05</ele>
  <time>2026-08-28T17:55:40Z</time>
  <course>1.1</course>
  <speed>1.2800390619039717</speed>
  <fix>3d</fix>
</trkpt>
<trkpt lat="40.0717515" lon="-105.2297925">
  <ele>1583.0</ele>
  <time>2026-08-28T17:55:40Z</time>
  <course>0.17</course>
  <speed>1.55</speed>
  <fix>3d</fix>
</trkpt>
<trkpt lat="40.0717553" lon="-105.2297927">
  <ele>1583.05</ele>
  <time>2026-08-28T17:55:40Z</time>
  <course>1.04</course>
  <speed>1.1800423721205946</speed>
  <fix>3d</fix>
</trkpt>
<trkpt lat="40.0717515" lon="-105.2297925">
  <ele>1583.0</ele>
  <time>2026-08-28T17:55:40Z</time>
  <course>0.17</course>
  <speed>1.55</speed>
  <fix>3d</fix>
</trkpt>
<trkpt lat="40.0717563" lon="-105.2297927">
  <ele>1583.05</ele>
  <time>2026-08-28T17:55:40Z</time>
  <course>1.0</course>
  <speed>1.0800462953040486</speed>
  <fix>3d</fix>
</trkpt>
<trkpt lat="40.0717541" lon="-105.2297925">
  <ele>1583.0</ele>
  <time>2026-08-28T17:55:40Z</time>
  <course>0.05</course>
  <speed>1.36</speed>
  <fix>3d</fix>
</trkpt>
<trkpt lat="40.0717573" lon="-105.2297927">
  <ele>1583.04</ele>
  <time>2026-08-28T17:55:40Z</time>
  <course>0.94</course>
  <speed>0.9900505037623081</speed>
  <fix>3d</fix>
</trkpt>
<trkpt lat="40.0717541" lon="-105.2297925">
  <ele>1583.0</ele>
  <time>2026-08-28T17:55:40Z</time>
  <course>0.05</course>
  <speed>1.36</speed>
  <fix>3d</fix>
</trkpt>
<trkpt lat="40.0717582" lon="-105.2297927">
  <ele>1583.04</ele>
  <time>2026-08-28T17:55:40Z</time>
  <course>0.89</course>
  <speed>0.8900561780022652</speed>
  <fix>3d</fix>
</trkpt>
<trkpt lat="40.0717563" lon="-105.2297925">
  <ele>1583.0</ele>
  <time>2026-08-28T17:55:40Z</time>
  <course>359.94</course>
  <speed>1.16</speed>
  <fix>3d</fix>
</trkpt>
<trkpt lat="40.0717589" lon="-105.2297927">
  <ele>1583.05</ele>
  <time>2026-08-28T17:55:40Z</time>
  <course>0.85</course>
  <speed>0.79</speed>
  <fix>3d</fix>
</trkpt>
<trkpt lat="40.0717583" lon="-105.2297925">
  <ele>1583.0</ele>
  <time>2026-08-28T17:55:40Z</time>
  <course>359.84</course>
  <speed>0.97</speed>
  <fix>3d</fix>
</trkpt>
<trkpt lat="40.0717597" lon="-105.2297926">
  <ele>1583.05</ele>
  <time>2026-08-28T17:55:40Z</time>
  <course>0.81</course>
  <speed>0.7</speed>
  <fix>3d</fix>
</trkpt>
<trkpt lat="40.0717583" lon="-105.2297925">
  <ele>1583.0</ele>
  <time>2026-08-28T17:55:40Z</time>
  <course>359.84</course>
  <speed>0.97</speed>
  <fix>3d</fix>
</trkpt>
<trkpt lat="40.0717603" lon="-105.2297926">
  <ele>1583.05</ele>
  <time>2026-08-28T17:55:40Z</time>
  <course>0.77</course>
  <speed>0.6</speed>
  <fix>3d</fix>
</trkpt>
<trkpt lat="40.0717598" lon="-105.2297925">
  <ele>1583.0</ele>
  <time>2026-08-28T17:55:40Z</time>
  <course>359.75</course>
  <speed>0.78</speed>
  <fix>3d</fix>
</trkpt>
<trkpt lat="40.0717608" lon="-105.2297926">
  <ele>1583.05</ele>
  <time>2026-08-28T17:55:40Z</time>
  <course>0.74</course>
  <speed>0.51</speed>
  <fix>3d</fix>
</trkpt>
<trkpt lat="40.0717598" lon="-105.2297925">
  <ele>1583.0</ele>
  <time>2026-08-28T17:55:40Z</time>
  <course>359.75</course>
  <speed>0.78</speed>
  <fix>3d</fix>
</trkpt>
<trkpt lat="40.0717613" lon="-105.2297926">
  <ele>1583.05</ele>
  <time>2026-08-28T17:55:40Z</time>
  <course>0.72</course>
  <speed>0.41</speed>
  <fix>3d</fix>
</trkpt>
<trkpt lat="40.071761" lon="-105.2297925">
  <ele>1583.0</ele>
  <time>2026-08-28T17:55:40Z</time>
  <course>359.68</course>
  <speed>0.59</speed>
  <fix>3d</fix>
</trkpt>
<trkpt lat="40.0717617" lon="-105.2297926">
  <ele>1583.05</ele>
  <time>2026-08-28T17:55:40Z</time>
  <course>0.69</course>
  <speed>0.31</speed>
  <fix>3d</fix>
</trkpt>
<trkpt lat="40.071761" lon="-105.2297925">
  <ele>1583.0</ele>
  <time>2026-08-28T17:55:40Z</time>
  <course>359.68</course>
  <speed>0.59</speed>
  <fix>3d</fix>
</trkpt>
<trkpt lat="40.0717619" lon="-105.2297926">
  <ele>1583.04</ele>
  <time>2026-08-28T17:55:40Z</time>
  <course>0.67</course>
  <speed>0.22</speed>
  <fix>3d</fix>
</trkpt>
<trkpt lat="40.0717619" lon="-105.2297925">
  <ele>1583.0</ele>
  <time>2026-08-28T17:55:40Z</time>
  <course>359.62</course>
  <speed>0.39</speed>
  <fix>3d</fix>
</trkpt>
<trkpt lat="40.0717621" lon="-105.2297926">
  <ele>1583.04</ele>
  <time>2026-08-28T17:55:40Z</time>
  <course>0.65</course>
  <speed>0.12</speed>
  <fix>3d</fix>
</trkpt>
<trkpt lat="40.0717619" lon="-105.2297925">
  <ele>1583.0</ele>
  <time>2026-08-28T17:55:40Z</time>
  <course>359.62</course>
  <speed>0.39</speed>
  <fix>3d</fix>
</trkpt>
<trkpt lat="40.0717622" lon="-105.2297926">
  <ele>1583.04</ele>
  <time>2026-08-28T17:55:40Z</time>
  <course>0.64</course>
  <speed>0.02</speed>
  <fix>3d</fix>
</trkpt>
<trkpt lat="40.0717625" lon="-105.2297925">
  <ele>1583.0</ele>
  <time>2026-08-28T17:55:40Z</time>
  <course>359.58</course>
  <speed>0.2</speed>
  <fix>3d</fix>
</trkpt>
<trkpt lat="40.0717623" lon="-105.2297926">
  <ele>1583.04</ele>
  <time>2026-08-28T17:55:40Z</time>
  <course>0.64</course>
  <speed>0.07</speed>
  <fix>3d</fix>
</trkpt>
<trkpt lat="40.0717625" lon="-105.2297925">
  <ele>1583.0</ele>
  <time>2026-08-28T17:55:40Z</time>
  <course>359.58</course>
  <speed>0.2</speed>
  <fix>3d</fix>
</trkpt>
<trkpt lat="40.0717622" lon="-105.2297926">
  <ele>1583.04</ele>
  <time>2026-08-28T17:55:40Z</time>
  <course>0.65</course>
  <speed>0.16</speed>
  <fix>3d</fix>
</trkpt>
<trkpt lat="40.0717627" lon="-105.2297925">
  <ele>1583.0</ele>
  <time>2026-08-28T17:55:40Z</time>
  <course>359.57</course>
  <speed>0.01</speed>
  <fix>3d</fix>
</trkpt>
<trkpt lat="40.071762" lon="-105.2297926">
  <ele>1583.03</ele>
  <time>2026-08-28T17:55:40Z</time>
  <course>0.68</course>
  <speed>0.26</speed>
  <fix>3d</fix>
</trkpt>
<trkpt lat="40.0717627" lon="-105.2297925">
  <ele>1583.0</ele>
  <time>2026-08-28T17:55:40Z</time>
  <course>359.57</course>
  <speed>0.01</speed>
  <fix>3d</fix>
</trkpt>
<trkpt lat="40.0717618" lon="-105.2297926">
  <ele>1583.03</ele>
  <time>2026-08-28T17:55:40Z</time>
  <course>0.73</course>
  <speed>0.36</speed>
  <fix>3d</fix>
</trkpt>
<trkpt lat="40.0717625" lon="-105.2297925">
  <ele>1583.0</ele>
  <time>2026-08-28T17:55:40Z</time>
  <course>179.6</course>
  <speed>0.18</speed>
  <fix>3d</fix>
</trkpt>
<trkpt lat="40.0717616" lon="-105.2297926">
  <ele>1583.03</ele>
  <time>2026-08-28T17:55:40Z</time>
  <course>0.83</course>
  <speed>0.46</speed>
  <fix>3d</fix>
</trkpt>
<trkpt lat="40.0717625" lon="-105.2297925">
  <ele>1583.0</ele>
  <time>2026-08-28T17:55:40Z</time>
  <course>179.6</course>
  <speed>0.18</speed>
  <fix>3d</fix>
</trkpt>
<trkpt lat="40.0717611" lon="-105.2297925">
  <ele>1583.03</ele>
  <time>2026-08-28T17:55:40Z</time>
  <course>0.98</course>
  <speed>0.56</speed>
  <fix>3d</fix>
</trkpt>
<trkpt lat="40.0717625" lon="-105.2297925">
  <ele>1583.0</ele>
  <time>2026-08-28T17:55:40Z</time>
  <course>179.6</course>
  <speed>0.18</speed>
  <fix>3d</fix>
</trkpt>
<trkpt lat="40.0717606" lon="-105.2297925">
  <ele>1583.03</ele>
  <time>2026-08-28T17:55:40Z</time>
  <course>1.22</course>
  <speed>0.66</speed>
  <fix>3d</fix>
</trkpt>
<trkpt lat="40.0717621" lon="-105.2297925">
  <ele>1583.0</ele>
  <time>2026-08-28T17:55:40Z</time>
  <course>179.77</course>
  <speed>0.38</speed>
  <fix>3d</fix>
</trkpt>
<trkpt lat="40.07176" lon="-105.2297925">
  <ele>1583.02</ele>
  <time>2026-08-28T17:55:40Z</time>
  <course>1.62</course>
  <speed>0.76</speed>
  <fix>3d</fix>
</trkpt>
<trkpt lat="40.0717621" lon="-105.2297925">
  <ele>1583.0</ele>
  <time>2026-08-28T17:55:40Z</time>
  <course>179.77</course>
  <speed>0.38</speed>
  <fix>3d</fix>
</trkpt>
<trkpt lat="40.0717594" lon="-105.2297925">
  <ele>1583.02</ele>
  <time>2026-08-28T17:55:40Z</time>
  <course>2.27</course>
  <speed>0.86</speed>
  <fix>3d</fix>
</trkpt>
<trkpt lat="40.0717613" lon="-105.2297925">
  <ele>1583.0</ele>
  <time>2026-08-28T17:55:40Z</time>
  <course>180.23</course>
  <speed>0.58</speed>
  <fix>3d</fix>
</trkpt>
<trkpt lat="40.0717586" lon="-105.2297926">
  <ele>1583.02</ele>
  <time>2026-08-28T17:55:40Z</time>
  <course>3.35</course>
  <speed>0.9502105029939419</speed>
  <fix>3d</fix>
</trkpt>
<trkpt lat="40.0717613" lon="-105.2297925">
  <ele>1583.0</ele>
  <time>2026-08-28T17:55:40Z</time>
  <course>180.23</course>
  <speed>0.58</speed>
  <fix>3d</fix>
</trkpt>
<trkpt lat="40.0717578" lon="-105.2297926">
  <ele>1583.01</ele>
  <time>2026-08-28T17:55:40Z</time>
  <course>5.17</course>
  <speed>1.0517128885774862</speed>
  <fix>3d</fix>
</trkpt>
<trkpt lat="40.07176" lon="-105.2297925">
  <ele>1583.0</ele>
  <time>2026-08-28T17:55:40Z</time>
  <course>181.47</course>
  <speed>0.78</speed>
  <fix>3d</fix>
</trkpt>
<trkpt lat="40.0717568" lon="-105.2297926">
  <ele>1583.01</ele>
  <time>2026-08-28T17:55:40Z</time>
  <course>7.88</course>
  <speed>1.145294721894762</speed>
  <fix>3d</fix>
</trkpt>
<trkpt lat="40.0717584" lon="-105.2297926">
  <ele>1583.0</ele>
  <time>2026-08-28T17:55:40Z</time>
  <course>184.72</course>
  <speed>0.98</speed>
  <fix>3d</fix>
</trkpt>
<trkpt lat="40.0717558" lon="-105.2297928">
  <ele>1583.01</ele>
  <time>2026-08-28T17:55:41Z</time>
  <course>11.54</course>
  <speed>1.2461540835707277</speed>
  <fix>3d</fix>
</trkpt>
<trkpt lat="40.0717584" lon="-105.2297926">
  <ele>1583.0</ele>
  <time>2026-08-28T17:55:41Z</time>
  <course>184.72</course>
  <speed>0.98</speed>
  <fix>3d</fix>
</trkpt>
<trkpt lat="40.0717547" lon="-105.2297931">
  <ele>1583.01</ele>
  <time>2026-08-28T17:55:41Z</time>
  <course>16.28</course>
  <speed>1.3412307780542465</speed>
  <fix>3d</fix>
</trkpt>
<trkpt lat="40.0717565" lon="-105.2297929">
  <ele>1583.0</ele>
  <time>2026-08-28T17:55:41Z</time>
  <course>191.31</course>
  <speed>1.18</speed>
  <fix>3d</fix>
</trkpt>
<trkpt lat="40.0717535" lon="-105.2297937">
  <ele>1583.0</ele>
  <time>2026-08-28T17:55:41Z</time>
  <course>22.05</course>
  <speed>1.436175476743702</speed>
  <fix>3d</fix>
</trkpt>
<trkpt lat="40.0717565" lon="-105.2297929">
  <ele>1583.0</ele>
  <time>2026-08-28T17:55:41Z</time>
  <course>191.31</course>
  <speed>1.18</speed>
  <fix>3d</fix>
</trkpt>
<trkpt lat="40.0717524" lon="-105.2297944">
  <ele>1583.0</ele>
  <time>2026-08-28T17:55:41Z</time>
  <course>28.93</course>
  <speed>1.5339491516996253</speed>
  <fix>3d</fix>
</trkpt>
<trkpt lat="40.0717542" lon="-105.2297937">
  <ele>1583.0</ele>
  <time>2026-08-28T17:55:41Z</time>
  <course>201.98</course>
  <speed>1.39</speed>
  <fix>3d</fix>
</trkpt>
<trkpt lat="40.0717512" lon="-105.2297954">
  <ele>1583.0</ele>
  <time>2026-08-28T17:55:41Z</time>
  <course>36.9</course>
  <speed>1.622898641320523</speed>
  <fix>3d</fix>
</trkpt>
<trkpt lat="40.0717542" lon="-105.2297937">
  <ele>1583.0</ele>
  <time>2026-08-28T17:55:41Z</time>
  <course>201.98</course>
  <speed>1.39</speed>
  <fix>3d</fix>
</trkpt>
<trkpt lat="40.07175" lon="-105.2297967">
  <ele>1583.0</ele>
  <time>2026-08-28T17:55:41Z</time>
  <course>45.97</course>
  <speed>1.7114321488157223</speed>
  <fix>3d</fix>
</trkpt>
<trkpt lat="40.0717519" lon="-105.2297955">
  <ele>1583.0</ele>
  <time>2026-08-28T17:55:41Z</time>
  <course>216.94</course>
  <speed>1.58</speed>
  <fix>3d</fix>
</trkpt>
<trkpt lat="40.0717491" lon="-105.2297983">
  <ele>1583.0</ele>
  <time>2026-08-28T17:55:41Z</time>
  <course>56.21</course>
  <speed>1.7925400971805345</speed>
  <fix>3d</fix>
</trkpt>
<trkpt lat="40.0717519" lon="-105.2297955">
  <ele>1583.0</ele>
  <time>2026-08-28T17:55:41Z</time>
  <course>216.94</course>
  <speed>1.58</speed>
  <fix>3d</fix>
</trkpt>
<trkpt lat="40.0717483" lon="-105.2298002">
  <ele>1583.0</ele>
  <time>2026-08-28T17:55:41Z</time>
  <course>67.04</course>
  <speed>1.8439088914585775</speed>
  <fix>3d</fix>
</trkpt>
<trkpt lat="40.0717499" lon="-105.2297983">
  <ele>1583.0</ele>
  <time>2026-08-28T17:55:41Z</time>
  <course>235.88</course>
  <speed>1.76</speed>
  <fix>3d</fix>
</trkpt>
<trkpt lat="40.0717478" lon="-105.2298024">
  <ele>1583.0</ele>
  <time>2026-08-28T17:55:41Z</time>
  <course>77.9</course>
  <speed>1.8993156662334991</speed>
  <fix>3d</fix>
</trkpt>
<trkpt lat="40.0717499" lon="-105.2297983">
  <ele>1583.0</ele>
  <time>2026-08-28T17:55:41Z</time>
  <course>235.88</course>
  <speed>1.76</speed>
  <fix>3d</fix>
</trkpt>
<trkpt lat="40.0717477" lon="-105.2298047">
  <ele>1583.01</ele>
  <time>2026-08-28T17:55:41Z</time>
  <course>88.86</course>
  <speed>1.9309324172533848</speed>
  <fix>3d</fix>
</trkpt>
<trkpt lat="40.0717485" lon="-105.2298022">
  <ele>1583.0</ele>
  <time>2026-08-28T17:55:41Z</time>
  <course>257.1</course>
  <speed>1.89</speed>
  <fix>3d</fix>
</trkpt>
<trkpt lat="40.0717479" lon="-105.2298071">
  <ele>1583.01</ele>
  <time>2026-08-28T17:55:41Z</time>
  <course>99.88</course>
  <speed>1.9678668654154428</speed>
  <fix>3d</fix>
</trkpt>
<trkpt lat="40.0717485" lon="-105.2298022">
  <ele>1583.0</ele>
  <time>2026-08-28T17:55:41Z</time>
  <course>257.1</course>
  <speed>1.89</speed>
  <fix>3d</fix>
</trkpt>
<trkpt lat="40.0717484" lon="-105.2298094">
  <ele>1583.01</ele>
  <time>2026-08-28T17:55:41Z</time>
  <course>110.94</course>
  <speed>1.9815650380444243</speed>
  <fix>3d</fix>
</trkpt>
<trkpt lat="40.0717485" lon="-105.2298067">
  <ele>1583.0</ele>
  <time>2026-08-28T17:55:41Z</time>
  <course>278.88</course>
  <speed>1.97</speed>
  <fix>3d</fix>
</trkpt>
<trkpt lat="40.0717492" lon="-105.2298115">
  <ele>1583.01</ele>
  <time>2026-08-28T17:55:41Z</time>
  <course>122.04</course>
  <speed>2.005617112013158</speed>
  <fix>3d</fix>
</trkpt>
<trkpt lat="40.0717485" lon="-105.2298067">
  <ele>1583.0</ele>
  <time>2026-08-28T17:55:41Z</time>
  <course>278.88</course>
  <speed>1.97</speed>
  <fix>3d</fix>
</trkpt>
<trkpt lat="40.0717504" lon="-105.2298134">
  <ele>1583.01</ele>
  <time>2026-08-28T17:55:41Z</time>
  <course>133.15</course>
  <speed>2.036663938896155</speed>
  <fix>3d</fix>
</trkpt>
<trkpt lat="40.0717485" lon="-105.2298067">
  <ele>1583.0</ele>
  <time>2026-08-28T17:55:41Z</time>
  <course>278.88</course>
  <speed>1.97</speed>
  <fix>3d</fix>
</trkpt>
<trkpt lat="40.0717519" lon="-105.229815">
  <ele>1583.01</ele>
  <time>2026-08-28T17:55:41Z</time>
  <course>143.8</course>
  <speed>2.0776188293332343</speed>
  <fix>3d</fix>
</trkpt>
<trkpt lat="40.0717497" lon="-105.2298111">
  <ele>1583.0</ele>
  <time>2026-08-28T17:55:41Z</time>
  <course>300.99</course>
  <speed>2.02</speed>
  <fix>3d</fix>
</trkpt>
<trkpt lat="40.0717536" lon="-105.2298162">
  <ele>1583.01</ele>
  <time>2026-08-28T17:55:41Z</time>
  <course>153.32</course>
  <speed>2.129530464679949</speed>
  <fix>3d</fix>
</trkpt>
<trkpt lat="40.0717497" lon="-105.2298111">
  <ele>1583.0</ele>
  <time>2026-08-28T17:55:41Z</time>
  <course>300.99</course>
  <speed>2.02</speed>
  <fix>3d</fix>
</trkpt>
<trkpt lat="40.0717555" lon="-105.2298171">
  <ele>1583.01</ele>
  <time>2026-08-28T17:55:41Z</time>
  <course>161.79</course>
  <speed>2.1868013169924696</speed>
  <fix>3d</fix>
</trkpt>
<trkpt lat="40.0717521" lon="-105.2298146">
  <ele>1583.0</ele>
  <time>2026-08-28T17:55:41Z</time>
  <course>322.23</course>
  <speed>2.09</speed>
  <fix>3d</fix>
</trkpt>
<trkpt lat="40.0717575" lon="-105.2298177">
  <ele>1583.01</ele>
  <time>2026-08-28T17:55:41Z</time>
  <course>169.17</course>
  <speed>2.247420743875076</speed>
  <fix>3d</fix>
</trkpt>
<trkpt lat="40.0717521" lon="-105.2298146">
  <ele>1583.0</ele>
  <time>2026-08-28T17:55:41Z</time>
  <course>322.23</course>
  <speed>2.09</speed>
  <fix>3d</fix>
</trkpt>
<trkpt lat="40.0717596" lon="-105.229818">
  <ele>1583.01</ele>
  <time>2026-08-28T17:55:41Z</time>
  <course>175.45</course>
  <speed>2.3226062946612367</speed>
  <fix>3d</fix>
</trkpt>
<trkpt lat="40.0717554" lon="-105.229817">
  <ele>1583.0</ele>
  <time>2026-08-28T17:55:41Z</time>
  <course>340.21</course>
  <speed>2.19</speed>
  <fix>3d</fix>
</trkpt>
<trkpt lat="40.0717617" lon="-105.229818">
  <ele>1583.01</ele>
  <time>2026-08-28T17:55:41Z</time>
  <course>180.64</course>
  <speed>2.391693960355296</speed>
  <fix>3d</fix>
</trkpt>
<trkpt lat="40.0717554" lon="-105.229817">
  <ele>1583.0</ele>
  <time>2026-08-28T17:55:41Z</time>
  <course>340.21</course>
  <speed>2.19</speed>
  <fix>3d</fix>
</trkpt>
<trkpt lat="40.0717639" lon="-105.2298179">
  <ele>1583.01</ele>
  <time>2026-08-28T17:55:41Z</time>
  <course>184.76</course>
  <speed>2.4648326515201795</speed>
  <fix>3d</fix>
</trkpt>
<trkpt lat="40.0717593" lon="-105.2298182">
  <ele>1583.0</ele>
  <time>2026-08-28T17:55:41Z</time>
  <course>353.84</course>
  <speed>2.31</speed>
  <fix>3d</fix>
</trkpt>
<trkpt lat="40.0717662" lon="-105.2298175">
  <ele>1583.01</ele>
  <time>2026-08-28T17:55:41Z</time>
  <course>187.75</course>
  <speed>2.512050954897213</speed>
  <fix>3d</fix>
</trkpt>
<trkpt lat="40.0717636" lon="-105.2298183">
  <ele>1583.0</ele>
  <time>2026-08-28T17:55:41Z</time>
  <course>3.05</course>
  <speed>2.43</speed>
  <fix>3d</fix>
</trkpt>
<trkpt lat="40.0717684" lon="-105.2298172">
  <ele>1583.01</ele>
  <time>2026-08-28T17:55:41Z</time>
  <course>189.63</course>
  <speed>2.5358430550804996</speed>
  <fix>3d</fix>
</trkpt>
<trkpt lat="40.0717636" lon="-105.2298183">
  <ele>1583.0</ele>
  <time>2026-08-28T17:55:41Z</time>
  <course>3.05</course>
  <speed>2.43</speed>
  <fix>3d</fix>
</trkpt>
<trkpt lat="40.0717707" lon="-105.2298166">
  <ele>1583.01</ele>
  <time>2026-08-28T17:55:41Z</time>
  <course>190.42</course>
  <speed>2.5299011838409817</speed>
  <fix>3d</fix>
</trkpt>
<trkpt lat="40.071768" lon="-105.2298178">
  <ele>1583.0</ele>
  <time>2026-08-28T17:55:41Z</time>
  <course>7.89</course>
  <speed>2.49</speed>
  <fix>3d</fix>
</trkpt>
<trkpt lat="40.0717729" lon="-105.2298162">
  <ele>1583.01</ele>
  <time>2026-08-28T17:55:41Z</time>
  <course>190.13</course>
  <speed>2.5063918289046505</speed>
  <fix>3d</fix>
</trkpt>
<trkpt lat="40.071768" lon="-105.2298178">
  <ele>1583.0</ele>
  <time>2026-08-28T17:55:41Z</time>
  <course>7.89</course>
  <speed>2.49</speed>
  <fix>3d</fix>
</trkpt>
<trkpt lat="40.0717751" lon="-105.2298157">
  <ele>1583.01</ele>
  <time>2026-08-28T17:55:41Z</time>
  <course>188.8</course>
  <speed>2.4544856895080893</speed>
  <fix>3d</fix>
</trkpt>
<trkpt lat="40.0717724" lon="-105.2298169">
  <ele>1583.0</ele>
  <time>2026-08-28T17:55:41Z</time>
  <course>8.46</course>
  <speed>2.45</speed>
  <fix>3d</fix>
</trkpt>
<trkpt lat="40.0717773" lon="-105.2298154">
  <ele>1583.01</ele>
  <time>2026-08-28T17:55:41Z</time>
  <course>187.4</course>
  <speed>2.382960343774105</speed>
  <fix>3d</fix>
</trkpt>
<trkpt lat="40.0717724" lon="-105.2298169">
  <ele>1583.0</ele>
  <time>2026-08-28T17:55:41Z</time>
  <course>8.46</course>
  <speed>2.45</speed>
  <fix>3d</fix>
</trkpt>
<trkpt lat="40.0717794" lon="-105.2298151">
  <ele>1583.01</ele>
  <time>2026-08-28T17:55:41Z</time>
  <course>186.3</course>
  <speed>2.295931183637698</speed>
  <fix>3d</fix>
</trkpt>
<trkpt lat="40.0717767" lon="-105.2298161">
  <ele>1583.0</ele>
  <time>2026-08-28T17:55:41Z</time>
  <course>6.47</course>
  <speed>2.33</speed>
  <fix>3d</fix>
</trkpt>
<trkpt lat="40.0717814" lon="-105.229815">
  <ele>1583.01</ele>
  <time>2026-08-28T17:55:41Z</time>
  <course>185.41</course>
  <speed>2.190091322296858</speed>
  <fix>3d</fix>
</trkpt>
<trkpt lat="40.0717767" lon="-105.2298161">
  <ele>1583.0</ele>
  <time>2026-08-28T17:55:41Z</time>
  <course>6.47</course>
  <speed>2.33</speed>
  <fix>3d</fix>
</trkpt>
<trkpt lat="40.0717834" lon="-105.2298148">
  <ele>1583.01</ele>
  <time>2026-08-28T17:55:41Z</time>
  <course>184.7</course>
  <speed>2.076968945362448</speed>
  <fix>3d</fix>
</trkpt>
<trkpt lat="40.0717807" lon="-105.2298156">
  <ele>1583.0</ele>
  <time>2026-08-28T17:55:41Z</time>
  <course>4.47</course>
  <speed>2.14</speed>
  <fix>3d</fix>
</trkpt>
<trkpt lat="40.0717851" lon="-105.2298148">
  <ele>1583.02</ele>
  <time>2026-08-28T17:55:41Z</time>
  <course>184.14</course>
  <speed>1.954328529188478</speed>
  <fix>3d</fix>
</trkpt>
<trkpt lat="40.0717807" lon="-105.2298156">
  <ele>1583.0</ele>
  <time>2026-08-28T17:55:41Z</time>
  <course>4.47</course>
  <speed>2.14</speed>
  <fix>3d</fix>
</trkpt>
<trkpt lat="40.0717868" lon="-105.2298147">
  <ele>1583.02</ele>
  <time>2026-08-28T17:55:41Z</time>
  <course>183.72</course>
  <speed>1.8227451824103116</speed>
  <fix>3d</fix>
</trkpt>
<trkpt lat="40.0717844" lon="-105.2298154">
  <ele>1583.0</ele>
  <time>2026-08-28T17:55:41Z</time>
  <course>3.19</course>
  <speed>1.9</speed>
  <fix>3d</fix>
</trkpt>
<trkpt lat="40.0717884" lon="-105.2298147">
  <ele>1583.02</ele>
  <time>2026-08-28T17:55:41Z</time>
  <course>183.4</course>
  <speed>1.6819036833302912</speed>
  <fix>3d</fix>
</trkpt>
<trkpt lat="40.0717844" lon="-105.2298154">
  <ele>1583.0</ele>
  <time>2026-08-28T17:55:41Z</time>
  <course>3.19</course>
  <speed>1.9</speed>
  <fix>3d</fix>
</trkpt>
<trkpt lat="40.0717898" lon="-105.2298147">
  <ele>1583.03</ele>
  <time>2026-08-28T17:55:41Z</time>
  <course>183.17</course>
  <speed>1.5308167754502824</speed>
  <fix>3d</fix>
</trkpt>
<trkpt lat="40.0717875" lon="-105.2298151">
  <ele>1583.0</ele>
  <time>2026-08-28T17:55:41Z</time>
  <course>2.43</course>
  <speed>1.63</speed>
  <fix>3d</fix>
</trkpt>
<trkpt lat="40.071791" lon="-105.2298147">
  <ele>1583.03</ele>
  <time>2026-08-28T17:55:41Z</time>
  <course>183.0</course>
  <speed>1.3805795884337855</speed>
  <fix>3d</fix>
</trkpt>
<trkpt lat="40.0717875" lon="-105.2298151">
  <ele>1583.0</ele>
  <time>2026-08-28T17:55:41Z</time>
  <course>2.43</course>
  <speed>1.63</speed>
  <fix>3d</fix>
</trkpt>
<trkpt lat="40.0717922" lon="-105.2298147">
  <ele>1583.03</ele>
  <time>2026-08-28T17:55:41Z</time>
  <course>182.91</course>
  <speed>1.2301625908797584</speed>
  <fix>3d</fix>
</trkpt>
<trkpt lat="40.0717875" lon="-105.2298151">
  <ele>1583.0</ele>
  <time>2026-08-28T17:55:41Z</time>
  <course>2.43</course>
  <speed>1.63</speed>
  <fix>3d</fix>
</trkpt>
<trkpt lat="40.0717931" lon="-105.2298147">
  <ele>1583.03</ele>
  <time>2026-08-28T17:55:41Z</time>
  <course>182.85</course>
  <speed>1.0800462953040486</speed>
  <fix>3d</fix>
</trkpt>
<trkpt lat="40.0717902" lon="-105.229815">
  <ele>1583.0</ele>
  <time>2026-08-28T17:55:41Z</time>
  <course>2.01</course>
  <speed>1.34</speed>
  <fix>3d</fix>
</trkpt>
<trkpt lat="40.071794" lon="-105.2298148">
  <ele>1583.03</ele>
  <time>2026-08-28T17:55:41Z</time>
  <course>182.83</course>
  <speed>0.92</speed>
  <fix>3d</fix>
</trkpt>
<trkpt lat="40.0717902" lon="-105.229815">
  <ele>1583.0</ele>
  <time>2026-08-28T17:55:41Z</time>
  <course>2.01</course>
  <speed>1.34</speed>
  <fix>3d</fix>
</trkpt>
<trkpt lat="40.0717947" lon="-105.2298148">
  <ele>1583.03</ele>
  <time>2026-08-28T17:55:41Z</time>
  <course>182.83</course>
  <speed>0.7700649323271382</speed>
  <fix>3d</fix>
</trkpt>
<trkpt lat="40.0717924" lon="-105.229815">
  <ele>1583.0</ele>
  <time>2026-08-28T17:55:41Z</time>
  <course>1.83</course>
  <speed>1.04</speed>
  <fix>3d</fix>
</trkpt>
<trkpt lat="40.0717952" lon="-105.2298148">
  <ele>1583.03</ele>
  <time>2026-08-28T17:55:41Z</time>
  <course>182.83</course>
  <speed>0.620322496770833</speed>
  <fix>3d</fix>
</trkpt>
<trkpt lat="40.0717924" lon="-105.229815">
  <ele>1583.0</ele>
  <time>2026-08-28T17:55:41Z</time>
  <course>1.83</course>
  <speed>1.04</speed>
  <fix>3d</fix>
</trkpt>
<trkpt lat="40.0717956" lon="-105.2298149">
  <ele>1583.03</ele>
  <time>2026-08-28T17:55:41Z</time>
  <course>182.83</course>
  <speed>0.480936586256442</speed>
  <fix>3d</fix>
</trkpt>
<trkpt lat="40.071794" lon="-105.2298149">
  <ele>1583.0</ele>
  <time>2026-08-28T17:55:41Z</time>
  <course>1.79</course>
  <speed>0.74</speed>
  <fix>3d</fix>
</trkpt>
<trkpt lat="40.0717959" lon="-105.2298149">
  <ele>1583.03</ele>
  <time>2026-08-28T17:55:41Z</time>
  <course>182.83</course>
  <speed>0.33241540277189324</speed>
  <fix>3d</fix>
</trkpt>
<trkpt lat="40.0717951" lon="-105.2298148">
  <ele>1583.0</ele>
  <time>2026-08-28T17:55:41Z</time>
  <course>1.79</course>
  <speed>0.46</speed>
  <fix>3d</fix>
</trkpt>
<trkpt lat="40.0717961" lon="-105.2298149">
  <ele>1583.02</ele>
  <time>2026-08-28T17:55:41Z</time>
  <course>182.83</course>
  <speed>0.196468827043885</speed>
  <fix>3d</fix>
</trkpt>
<trkpt lat="40.0717951" lon="-105.2298148">
  <ele>1583.0</ele>
  <time>2026-08-28T17:55:41Z</time>
  <course>1.79</course>
  <speed>0.46</speed>
  <fix>3d</fix>
</trkpt>
<trkpt lat="40.0717962" lon="-105.2298149">
  <ele>1583.02</ele>
  <time>2026-08-28T17:55:41Z</time>
  <course>182.82</course>
  <speed>0.0848528137423857</speed>
  <fix>3d</fix>
</trkpt>
<trkpt lat="40.0717956" lon="-105.2298148">
  <ele>1583.0</ele>
  <time>2026-08-28T17:55:41Z</time>
  <course>1.79</course>
  <speed>0.18</speed>
  <fix>3d</fix>
</trkpt>
<trkpt lat="40.0717961" lon="-105.229815">
  <ele>1583.02</ele>
  <time>2026-08-28T17:55:41Z</time>
  <course>182.82</course>
  <speed>0.0848528137423857</speed>
  <fix>3d</fix>
</trkpt>
<trkpt lat="40.0717956" lon="-105.2298148">
  <ele>1583.0</ele>
  <time>2026-08-28T17:55:41Z</time>
  <course>1.79</course>
  <speed>0.18</speed>
  <fix>3d</fix>
</trkpt>
<trkpt lat="40.0717959" lon="-105.229815">
  <ele>1583.01</ele>
  <time>2026-08-28T17:55:41Z</time>
  <course>182.88</course>
  <speed>0.20248456731316586</speed>
  <fix>3d</fix>
</trkpt>
<trkpt lat="40.0717958" lon="-105.2298148">
  <ele>1583.0</ele>
  <time>2026-08-28T17:55:41Z</time>
  <course>181.87</course>
  <speed>0.07</speed>
  <fix>3d</fix>
</trkpt>
<trkpt lat="40.0717956" lon="-105.2298151">
  <ele>1583.01</ele>
  <time>2026-08-28T17:55:41Z</time>
  <course>182.99</course>
  <speed>0.32015621187164245</speed>
  <fix>3d</fix>
</trkpt>
<trkpt lat="40.0717958" lon="-105.2298148">
  <ele>1583.0</ele>
  <time>2026-08-28T17:55:41Z</time>
  <course>181.87</course>
  <speed>0.07</speed>
  <fix>3d</fix>
</trkpt>
<trkpt lat="40.0717953" lon="-105.2298152">
  <ele>1583.01</ele>
  <time>2026-08-28T17:55:41Z</time>
  <course>183.19</course>
  <speed>0.4393176527297759</speed>
  <fix>3d</fix>
</trkpt>
<trkpt lat="40.0717955" lon="-105.2298148">
  <ele>1583.0</ele>
  <time>2026-08-28T17:55:41Z</time>
  <course>182.08</course>
  <speed>0.31</speed>
  <fix>3d</fix>
</trkpt>
<trkpt lat="40.0717948" lon="-105.2298152">
  <ele>1583.01</ele>
  <time>2026-08-28T17:55:41Z</time>
  <course>183.52</course>
  <speed>0.5573149917237109</speed>
  <fix>3d</fix>
</trkpt>
<trkpt lat="40.0717955" lon="-105.2298148">
  <ele>1583.0</ele>
  <time>2026-08-28T17:55:41Z</time>
  <course>182.08</course>
  <speed>0.31</speed>
  <fix>3d</fix>
</trkpt>
<trkpt lat="40.0717942" lon="-105.2298153">
  <ele>1583.02</ele>
  <time>2026-08-28T17:55:41Z</time>
  <course>184.06</course>
  <speed>0.669103878332804</speed>
  <fix>3d</fix>
</trkpt>
<trkpt lat="40.0717948" lon="-105.2298148">
  <ele>1583.0</ele>
  <time>2026-08-28T17:55:41Z</time>
  <course>182.71</course>
  <speed>0.54</speed>
  <fix>3d</fix>
</trkpt>
<trkpt lat="40.0717936" lon="-105.2298154">
  <ele>1583.02</ele>
  <time>2026-08-28T17:55:41Z</time>
  <course>184.91</course>
  <speed>0.7694153624668537</speed>
  <fix>3d</fix>
</trkpt>
<trkpt lat="40.0717948" lon="-105.2298148">
  <ele>1583.0</ele>
  <time>2026-08-28T17:55:41Z</time>
  <course>182.71</course>
  <speed>0.54</speed>
  <fix>3d</fix>
</trkpt>
<trkpt lat="40.0717928" lon="-105.2298155">
  <ele>1583.02</ele>
  <time>2026-08-28T17:55:41Z</time>
  <course>186.32</course>
  <speed>0.8729833904490967</speed>
  <fix>3d</fix>
</trkpt>
<trkpt lat="40.0717936" lon="-105.2298149">
  <ele>1583.0</ele>
  <time>2026-08-28T17:55:41Z</time>
  <course>184.36</course>
  <speed>0.75</speed>
  <fix>3d</fix>
</trkpt>
<trkpt lat="40.0717919" lon="-105.2298156">
  <ele>1583.01</ele>
  <time>2026-08-28T17:55:41Z</time>
  <course>188.66</course>
  <speed>0.980612053770501</speed>
  <fix>3d</fix>
</trkpt>
<trkpt lat="40.0717936" lon="-105.2298149">
  <ele>1583.0</ele>
  <time>2026-08-28T17:55:41Z</time>
  <course>184.36</course>
  <speed>0.75</speed>
  <fix>3d</fix>
</trkpt>
<trkpt lat="40.071791" lon="-105.2298158">
  <ele>1583.01</ele>
  <time>2026-08-28T17:55:41Z</time>
  <course>192.21</course>
  <speed>1.0770329614269007</speed>
  <fix>3d</fix>
</trkpt>
<trkpt lat="40.071792" lon="-105.2298151">
  <ele>1583.0</ele>
  <time>2026-08-28T17:55:41Z</time>
  <course>188.6</course>
  <speed>0.95</speed>
  <fix>3d</fix>
</trkpt>
<trkpt lat="40.07179" lon="-105.2298162">
  <ele>1583.01</ele>
  <time>2026-08-28T17:55:41Z</time>
  <course>196.78</course>
  <speed>1.1765202930676546</speed>
  <fix>3d</fix>
</trkpt>
<trkpt lat="40.071792" lon="-105.2298151">
  <ele>1583.0</ele>
  <time>2026-08-28T17:55:41Z</time>
  <course>188.6</course>
  <speed>0.95</speed>
  <fix>3d</fix>
</trkpt>
<trkpt lat="40.0717889" lon="-105.2298166">
  <ele>1583.01</ele>
  <time>2026-08-28T17:55:41Z</time>
  <course>202.38</course>
  <speed>1.27534309109353</speed>
  <fix>3d</fix>
</trkpt>
<trkpt lat="40.071792" lon="-105.2298151">
  <ele>1583.0</ele>
  <time>2026-08-28T17:55:41Z</time>
  <course>188.6</course>
  <speed>0.95</speed>
  <fix>3d</fix>
</trkpt>
<trkpt lat="40.0717879" lon="-105.2298173">
  <ele>1583.01</ele>
  <time>2026-08-28T17:55:41Z</time>
  <course>208.99</course>
  <speed>1.3771347065556077</speed>
  <fix>3d</fix>
</trkpt>
<trkpt lat="40.0717901" lon="-105.2298156">
  <ele>1583.0</ele>
  <time>2026-08-28T17:55:41Z</time>
  <course>196.8</course>
  <speed>1.14</speed>
  <fix>3d</fix>
</trkpt>
<trkpt lat="40.0717868" lon="-105.2298182">
  <ele>1583.01</ele>
  <time>2026-08-28T17:55:41Z</time>
  <course>216.62</course>
  <speed>1.4664924138910505</speed>
  <fix>3d</fix>
</trkpt>
<trkpt lat="40.0717901" lon="-105.2298156">
  <ele>1583.0</ele>
  <time>2026-08-28T17:55:41Z</time>
  <course>196.8</course>
  <speed>1.14</speed>
  <fix>3d</fix>
</trkpt>
<trkpt lat="40.0717858" lon="-105.2298193">
  <ele>1583.0</ele>
  <time>2026-08-28T17:55:41Z</time>
  <course>225.25</course>
  <speed>1.5562133529821673</speed>
  <fix>3d</fix>
</trkpt>
<trkpt lat="40.0717881" lon="-105.2298167">
  <ele>1583.0</ele>
  <time>2026-08-28T17:55:41Z</time>
  <course>209.13</course>
  <speed>1.32</speed>
  <fix>3d</fix>
</trkpt>
<trkpt lat="40.0717849" lon="-105.2298208">
  <ele>1583.0</ele>
  <time>2026-08-28T17:55:41Z</time>
  <course>234.89</course>
  <speed>1.6502424064360968</speed>
  <fix>3d</fix>
</trkpt>
<trkpt lat="40.0717881" lon="-105.2298167">
  <ele>1583.0</ele>
  <time>2026-08-28T17:55:41Z</time>
  <course>209.13</course>
  <speed>1.32</speed>
  <fix>3d</fix>
</trkpt>
<trkpt lat="40.0717842" lon="-105.2298225">
  <ele>1583.0</ele>
  <time>2026-08-28T17:55:41Z</time>
  <course>245.35</course>
  <speed>1.7372679701185998</speed>
  <fix>3d</fix>
</trkpt>
<trkpt lat="40.0717861" lon="-105.2298187">
  <ele>1583.0</ele>
  <time>2026-08-28T17:55:41Z</time>
  <course>225.47</course>
  <speed>1.49</speed>
  <fix>3d</fix>
</trkpt>
<trkpt lat="40.0717837" lon="-105.2298244">
  <ele>1583.0</ele>
  <time>2026-08-28T17:55:41Z</time>
  <course>256.03</course>
  <speed>1.816865432551349</speed>
  <fix>3d</fix>
</trkpt>
<trkpt lat="40.0717845" lon="-105.2298218">
  <ele>1583.0</ele>
  <time>2026-08-28T17:55:41Z</time>
  <course>245.15</course>
  <speed>1.66</speed>
  <fix>3d</fix>
</trkpt>
<trkpt lat="40.0717835" lon="-105.2298265">
  <ele>1582.99</ele>
  <time>2026-08-28T17:55:41Z</time>
  <course>266.7</course>
  <speed>1.8916923639957952</speed>
  <fix>3d</fix>
</trkpt>
<trkpt lat="40.0717845" lon="-105.2298218">
  <ele>1583.0</ele>
  <time>2026-08-28T17:55:41Z</time>
  <course>245.15</course>
  <speed>1.66</speed>
  <fix>3d</fix>
</trkpt>
<trkpt lat="40.0717836" lon="-105.2298288">
  <ele>1582.99</ele>
  <time>2026-08-28T17:55:41Z</time>
  <course>277.43</course>
  <speed>1.9375241933973368</speed>
  <fix>3d</fix>
</trkpt>
<trkpt lat="40.0717837" lon="-105.2298257">
  <ele>1583.0</ele>
  <time>2026-08-28T17:55:41Z</time>
  <course>266.19</course>
  <speed>1.8</speed>
  <fix>3d</fix>
</trkpt>
<trkpt lat="40.071784" lon="-105.229831">
  <ele>1582.99</ele>
  <time>2026-08-28T17:55:41Z</time>
  <course>288.21</course>
  <speed>1.9827506146764904</speed>
  <fix>3d</fix>
</trkpt>
<trkpt lat="40.0717837" lon="-105.2298257">
  <ele>1583.0</ele>
  <time>2026-08-28T17:55:41Z</time>
  <course>266.19</course>
  <speed>1.8</speed>
  <fix>3d</fix>
</trkpt>
<trkpt lat="40.0717847" lon="-105.2298331">
  <ele>1582.98</ele>
  <time>2026-08-28T17:55:41Z</time>
  <course>298.94</course>
  <speed>2.005716829465216</speed>
  <fix>3d</fix>
</trkpt>
<trkpt lat="40.0717841" lon="-105.22983">
  <ele>1583.0</ele>
  <time>2026-08-28T17:55:41Z</time>
  <course>287.52</course>
  <speed>1.9</speed>
  <fix>3d</fix>
</trkpt>
<trkpt lat="40.0717858" lon="-105.229835">
  <ele>1582.98</ele>
  <time>2026-08-28T17:55:41Z</time>
  <course>309.82</course>
  <speed>2.0435263639111683</speed>
  <fix>3d</fix>
</trkpt>
<trkpt lat="40.0717841" lon="-105.22983">
  <ele>1583.0</ele>
  <time>2026-08-28T17:55:41Z</time>
  <course>287.52</course>
  <speed>1.9</speed>
  <fix>3d</fix>
</trkpt>
<trkpt lat="40.0717872" lon="-105.2298367">
  <ele>1582.98</ele>
  <time>2026-08-28T17:55:41Z</time>
  <course>320.55</course>
  <speed>2.075620389184882</speed>
  <fix>3d</fix>
</trkpt>
<trkpt lat="40.0717857" lon="-105.229834">
  <ele>1583.0</ele>
  <time>2026-08-28T17:55:41Z</time>
  <course>309.09</course>
  <speed>1.97</speed>
  <fix>3d</fix>
</trkpt>
<trkpt lat="40.0717888" lon="-105.229838">
  <ele>1582.98</ele>
  <time>2026-08-28T17:55:41Z</time>
  <course>330.33</course>
  <speed>2.122286502807762</speed>
  <fix>3d</fix>
</trkpt>
<trkpt lat="40.0717857" lon="-105.229834">
  <ele>1583.0</ele>
  <time>2026-08-28T17:55:41Z</time>
  <course>309.09</course>
  <speed>1.97</speed>
  <fix>3d</fix>
</trkpt>
<trkpt lat="40.0717906" lon="-105.229839">
  <ele>1582.98</ele>
  <time>2026-08-28T17:55:41Z</time>
  <course>339.18</course>
  <speed>2.1769703718700444</speed>
  <fix>3d</fix>
</trkpt>
<trkpt lat="40.0717884" lon="-105.2298371">
  <ele>1583.0</ele>
  <time>2026-08-28T17:55:41Z</time>
  <course>329.15</course>
  <speed>2.07</speed>
  <fix>3d</fix>
</trkpt>
<trkpt lat="40.0717926" lon="-105.2298397">
  <ele>1582.98</ele>
  <time>2026-08-28T17:55:41Z</time>
  <course>346.95</course>
  <speed>2.234390297150433</speed>
  <fix>3d</fix>
</trkpt>
<trkpt lat="40.0717884" lon="-105.2298371">
  <ele>1583.0</ele>
  <time>2026-08-28T17:55:41Z</time>
  <course>329.15</course>
  <speed>2.07</speed>
  <fix>3d</fix>
</trkpt>
<trkpt lat="40.0717946" lon="-105.22984">
  <ele>1582.97</ele>
  <time>2026-08-28T17:55:41Z</time>
  <course>353.67</course>
  <speed>2.3025420734483877</speed>
  <fix>3d</fix>
</trkpt>
<trkpt lat="40.071792" lon="-105.229839">
  <ele>1583.0</ele>
  <time>2026-08-28T17:55:41Z</time>
  <course>345.62</course>
  <speed>2.19</speed>
  <fix>3d</fix>
</trkpt>
<trkpt lat="40.0717967" lon="-105.2298401">
  <ele>1582.97</ele>
  <time>2026-08-28T17:55:41Z</time>
  <course>359.33</course>
  <speed>2.3700210969525144</speed>
  <fix>3d</fix>
</trkpt>
<trkpt lat="40.071792" lon="-105.229839">
  <ele>1583.0</ele>
  <time>2026-08-28T17:55:41Z</time>
  <course>345.62</course>
  <speed>2.19</speed>
  <fix>3d</fix>
</trkpt>
<trkpt lat="40.0717989" lon="-105.22984">
  <ele>1582.97</ele>
  <time>2026-08-28T17:55:41Z</time>
  <course>3.91</course>
  <speed>2.4566033460858105</speed>
  <fix>3d</fix>
</trkpt>
<trkpt lat="40.071796" lon="-105.2298398">
  <ele>1583.0</ele>
  <time>2026-08-28T17:55:41Z</time>
  <course>357.91</course>
  <speed>2.34</speed>
  <fix>3d</fix>
</trkpt>
<trkpt lat="40.0718011" lon="-105.2298397">
  <ele>1582.98</ele>
  <time>2026-08-28T17:55:41Z</time>
  <course>7.4</course>
  <speed>2.531600284405103</speed>
  <fix>3d</fix>
</trkpt>
<trkpt lat="40.071796" lon="-105.2298398">
  <ele>1583.0</ele>
  <time>2026-08-28T17:55:41Z</time>
  <course>357.91</course>
  <speed>2.34</speed>
  <fix>3d</fix>
</trkpt>
<trkpt lat="40.0718034" lon="-105.2298392">
  <ele>1582.98</ele>
  <time>2026-08-28T17:55:41Z</time>
  <course>9.79</course>
  <speed>2.61895017134729</speed>
  <fix>3d</fix>
</trkpt>
<trkpt lat="40.071796" lon="-105.2298398">
  <ele>1583.0</ele>
  <time>2026-08-28T17:55:41Z</time>
  <course>357.91</course>
  <speed>2.34</speed>
  <fix>3d</fix>
</trkpt>
<trkpt lat="40.0718058" lon="-105.2298386">
  <ele>1582.98</ele>
  <time>2026-08-28T17:55:41Z</time>
  <course>11.1</course>
  <speed>2.712286857985342</speed>
  <fix>3d</fix>
</trkpt>
<trkpt lat="40.0718004" lon="-105.2298395">
  <ele>1583.0</ele>
  <time>2026-08-28T17:55:41Z</time>
  <course>5.89</course>
  <speed>2.5</speed>
  <fix>3d</fix>
</trkpt>
<trkpt lat="40.0718082" lon="-105.2298379">
  <ele>1582.98</ele>
  <time>2026-08-28T17:55:41Z</time>
  <course>11.29</course>
  <speed>2.806439024814186</speed>
  <fix>3d</fix>
</trkpt>
<trkpt lat="40.0718004" lon="-105.2298395">
  <ele>1583.0</ele>
  <time>2026-08-28T17:55:41Z</time>
  <course>5.89</course>
  <speed>2.5</speed>
  <fix>3d</fix>
</trkpt>
<trkpt lat="40.0718107" lon="-105.2298373">
  <ele>1582.99</ele>
  <time>2026-08-28T17:55:41Z</time>
  <course>10.5</course>
  <speed>2.9086938649503833</speed>
  <fix>3d</fix>
</trkpt>
<trkpt lat="40.071805" lon="-105.2298387">
  <ele>1583.0</ele>
  <time>2026-08-28T17:55:41Z</time>
  <course>9.5</course>
  <speed>2.68</speed>
  <fix>3d</fix>
</trkpt>
<trkpt lat="40.0718133" lon="-105.2298367">
  <ele>1582.99</ele>
  <time>2026-08-28T17:55:41Z</time>
  <course>9.71</course>
  <speed>3.0036144892445833</speed>
  <fix>3d</fix>
</trkpt>
<trkpt lat="40.071805" lon="-105.2298387">
  <ele>1583.0</ele>
  <time>2026-08-28T17:55:41Z</time>
  <course>9.5</course>
  <speed>2.68</speed>
  <fix>3d</fix>
</trkpt>
<trkpt lat="40.071816" lon="-105.2298361">
  <ele>1582.99</ele>
  <time>2026-08-28T17:55:41Z</time>
  <course>9.07</course>
  <speed>3.108858311341963</speed>
  <fix>3d</fix>
</trkpt>
<trkpt lat="40.0718099" lon="-105.2298376">
  <ele>1583.0</ele>
  <time>2026-08-28T17:55:41Z</time>
  <course>9.4</course>
  <speed>2.88</speed>
  <fix>3d</fix>
</trkpt>
<trkpt lat="40.0718188" lon="-105.2298356">
  <ele>1582.99</ele>
  <time>2026-08-28T17:55:41Z</time>
  <course>8.54</course>
  <speed>3.216022387981775</speed>
  <fix>3d</fix>
</trkpt>
<trkpt lat="40.0718099" lon="-105.2298376">
  <ele>1583.0</ele>
  <time>2026-08-28T17:55:41Z</time>
  <course>9.4</course>
  <speed>2.88</speed>
  <fix>3d</fix>
</trkpt>
<trkpt lat="40.0718217" lon="-105.2298351">
  <ele>1582.99</ele>
  <time>2026-08-28T17:55:41Z</time>
  <course>8.08</course>
  <speed>3.3220024081869655</speed>
  <fix>3d</fix>
</trkpt>
<trkpt lat="40.0718152" lon="-105.2298366">
  <ele>1583.0</ele>
  <time>2026-08-28T17:55:41Z</time>
  <course>8.05</course>
  <speed>3.08</speed>
  <fix>3d</fix>
</trkpt>
<trkpt lat="40.0718247" lon="-105.2298346">
  <ele>1583.0</ele>
  <time>2026-08-28T17:55:41Z</time>
  <course>7.71</course>
  <speed>3.4296501279285034</speed>
  <fix>3d</fix>
</trkpt>
<trkpt lat="40.0718209" lon="-105.2298356">
  <ele>1583.0</ele>
  <time>2026-08-28T17:55:41Z</time>
  <course>7.08</course>
  <speed>3.29</speed>
  <fix>3d</fix>
</trkpt>
<trkpt lat="40.0718278" lon="-105.2298341">
  <ele>1583.0</ele>
  <time>2026-08-28T17:55:41Z</time>
  <course>7.39</course>
  <speed>3.5374708479364183</speed>
  <fix>3d</fix>
</trkpt>
<trkpt lat="40.0718209" lon="-105.2298356">
  <ele>1583.0</ele>
  <time>2026-08-28T17:55:41Z</time>
  <course>7.08</course>
  <speed>3.29</speed>
  <fix>3d</fix>
</trkpt>
<trkpt lat="40.071831" lon="-105.2298337">
  <ele>1583.0</ele>
  <time>2026-08-28T17:55:41Z</time>
  <course>7.12</course>
  <speed>3.6565694304908254</speed>
  <fix>3d</fix>
</trkpt>
<trkpt lat="40.071827" lon="-105.2298346">
  <ele>1583.0</ele>
  <time>2026-08-28T17:55:41Z</time>
  <course>6.39</course>
  <speed>3.51</speed>
  <fix>3d</fix>
</trkpt>
<trkpt lat="40.0718343" lon="-105.2298332">
  <ele>1583.0</ele>
  <time>2026-08-28T17:55:41Z</time>
  <course>6.89</course>
  <speed>3.7646380968162134</speed>
  <fix>3d</fix>
</trkpt>
<trkpt lat="40.071827" lon="-105.2298346">
  <ele>1583.0</ele>
  <time>2026-08-28T17:55:41Z</time>
  <course>6.39</course>
  <speed>3.51</speed>
  <fix>3d</fix>
</trkpt>
<trkpt lat="40.0718378" lon="-105.2298327">
  <ele>1583.0</ele>
  <time>2026-08-28T17:55:41Z</time>
  <course>6.7</course>
  <speed>3.883876929049117</speed>
  <fix>3d</fix>
</trkpt>
<trkpt lat="40.0718334" lon="-105.2298337">
  <ele>1583.0</ele>
  <time>2026-08-28T17:55:41Z</time>
  <course>5.91</course>
  <speed>3.73</speed>
  <fix>3d</fix>
</trkpt>
<trkpt lat="40.0718413" lon="-105.2298323">
  <ele>1583.0</ele>
  <time>2026-08-28T17:55:41Z</time>
  <course>6.53</course>
  <speed>3.9932192526832284</speed>
  <fix>3d</fix>
</trkpt>
<trkpt lat="40.0718334" lon="-105.2298337">
  <ele>1583.0</ele>
  <time>2026-08-28T17:55:41Z</time>
  <course>5.91</course>
  <speed>3.73</speed>
  <fix>3d</fix>
</trkpt>
<trkpt lat="40.071845" lon="-105.2298318">
  <ele>1583.0</ele>
  <time>2026-08-28T17:55:41Z</time>
  <course>6.41</course>
  <speed>4.102596738652241</speed>
  <fix>3d</fix>
</trkpt>
<trkpt lat="40.0718403" lon="-105.2298328">
  <ele>1583.0</ele>
  <time>2026-08-28T17:55:41Z</time>
  <course>5.57</course>
  <speed>3.96</speed>
  <fix>3d</fix>
</trkpt>
<trkpt lat="40.0718488" lon="-105.2298314">
  <ele>1583.0</ele>
  <time>2026-08-28T17:55:41Z</time>
  <course>6.29</course>
  <speed>4.212006647668068</speed>
  <fix>3d</fix>
</trkpt>
<trkpt lat="40.0718403" lon="-105.2298328">
  <ele>1583.0</ele>
  <time>2026-08-28T17:55:41Z</time>
  <course>5.57</course>
  <speed>3.96</speed>
  <fix>3d</fix>
</trkpt>
<trkpt lat="40.0718526" lon="-105.2298309">
  <ele>1583.0</ele>
  <time>2026-08-28T17:55:41Z</time>
  <course>6.19</course>
  <speed>4.321446517081983</speed>
  <fix>3d</fix>
</trkpt>
<trkpt lat="40.0718476" lon="-105.2298319">
  <ele>1583.0</ele>
  <time>2026-08-28T17:55:41Z</time>
  <course>5.33</course>
  <speed>4.17</speed>
  <fix>3d</fix>
</trkpt>
<trkpt lat="40.0718566" lon="-105.2298304">
  <ele>1583.0</ele>
  <time>2026-08-28T17:55:41Z</time>
  <course>6.12</course>
  <speed>4.430914126904289</speed>
  <fix>3d</fix>
</trkpt>
<trkpt lat="40.0718476" lon="-105.2298319">
  <ele>1583.0</ele>
  <time>2026-08-28T17:55:41Z</time>
  <course>5.33</course>
  <speed>4.17</speed>
  <fix>3d</fix>
</trkpt>
<trkpt lat="40.0718606" lon="-105.22983">
  <ele>1583.0</ele>
  <time>2026-08-28T17:55:41Z</time>
  <course>6.06</course>
  <speed>4.541365433435192</speed>
  <fix>3d</fix>
</trkpt>
<trkpt lat="40.0718553" lon="-105.229831">
  <ele>1583.0</ele>
  <time>2026-08-28T17:55:41Z</time>
  <course>5.17</course>
  <speed>4.39</speed>
  <fix>3d</fix>
</trkpt>
<trkpt lat="40.0718647" lon="-105.2298295">
  <ele>1583.0</ele>
  <time>2026-08-28T17:55:41Z</time>
  <course>5.99</course>
  <speed>4.650860135501819</speed>
  <fix>3d</fix>
</trkpt>
<trkpt lat="40.0718553" lon="-105.229831">
  <ele>1583.0</ele>
  <time>2026-08-28T17:55:41Z</time>
  <course>5.17</course>
  <speed>4.39</speed>
  <fix>3d</fix>
</trkpt>
<trkpt lat="40.071869" lon="-105.229829">
  <ele>1583.01</ele>
  <time>2026-08-28T17:55:41Z</time>
  <course>5.92</course>
  <speed>4.76037813624086</speed>
  <fix>3d</fix>
</trkpt>
<trkpt lat="40.0718634" lon="-105.2298301">
  <ele>1583.0</ele>
  <time>2026-08-28T17:55:41Z</time>
  <course>5.05</course>
  <speed>4.6</speed>
  <fix>3d</fix>
</trkpt>
<trkpt lat="40.0718733" lon="-105.2298286">
  <ele>1583.01</ele>
  <time>2026-08-28T17:55:41Z</time>
  <course>5.87</course>
  <speed>4.859958847562395</speed>
  <fix>3d</fix>
</trkpt>
<trkpt lat="40.0718634" lon="-105.2298301">
  <ele>1583.0</ele>
  <time>2026-08-28T17:55:41Z</time>
  <course>5.05</course>
  <speed>4.6</speed>
  <fix>3d</fix>
</trkpt>
<trkpt lat="40.0718777" lon="-105.2298281">
  <ele>1583.01</ele>
  <time>2026-08-28T17:55:41Z</time>
  <course>5.8</course>
  <speed>4.92967544570634</speed>
  <fix>3d</fix>
</trkpt>
<trkpt lat="40.0718634" lon="-105.2298301">
  <ele>1583.0</ele>
  <time>2026-08-28T17:55:41Z</time>
  <course>5.05</course>
  <speed>4.6</speed>
  <fix>3d</fix>
</trkpt>
<trkpt lat="40.0718821" lon="-105.2298276">
  <ele>1583.01</ele>
  <time>2026-08-28T17:55:41Z</time>
  <course>5.73</course>
  <speed>4.979477884276624</speed>
  <fix>3d</fix>
</trkpt>
<trkpt lat="40.0718718" lon="-105.229829">
  <ele>1583.0</ele>
  <time>2026-08-28T17:55:41Z</time>
  <course>4.93</course>
  <speed>4.8</speed>
  <fix>3d</fix>
</trkpt>
<trkpt lat="40.0718865" lon="-105.2298271">
  <ele>1583.02</ele>
  <time>2026-08-28T17:55:41Z</time>
  <course>5.66</course>
  <speed>4.988566928487579</speed>
  <fix>3d</fix>
</trkpt>
<trkpt lat="40.0718718" lon="-105.229829">
  <ele>1583.0</ele>
  <time>2026-08-28T17:55:41Z</time>
  <course>4.93</course>
  <speed>4.8</speed>
  <fix>3d</fix>
</trkpt>
<trkpt lat="40.0718909" lon="-105.2298267">
  <ele>1583.02</ele>
  <time>2026-08-28T17:55:41Z</time>
  <course>5.59</course>
  <speed>4.967786227284745</speed>
  <fix>3d</fix>
</trkpt>
<trkpt lat="40.0718806" lon="-105.2298281">
  <ele>1583.0</ele>
  <time>2026-08-28T17:55:41Z</time>
  <course>4.8</course>
  <speed>4.91</speed>
  <fix>3d</fix>
</trkpt>
<trkpt lat="40.0718953" lon="-105.2298262">
  <ele>1583.02</ele>
  <time>2026-08-28T17:55:41Z</time>
  <course>5.53</course>
  <speed>4.917123142651605</speed>
  <fix>3d</fix>
</trkpt>
<trkpt lat="40.0718806" lon="-105.2298281">
  <ele>1583.0</ele>
  <time>2026-08-28T17:55:41Z</time>
  <course>4.8</course>
  <speed>4.91</speed>
  <fix>3d</fix>
</trkpt>
<trkpt lat="40.0718996" lon="-105.2298258">
  <ele>1583.01</ele>
  <time>2026-08-28T17:55:41Z</time>
  <course>5.46</course>
  <speed>4.8556873869721064</speed>
  <fix>3d</fix>
</trkpt>
<trkpt lat="40.0718893" lon="-105.2298271">
  <ele>1583.0</ele>
  <time>2026-08-28T17:55:41Z</time>
  <course>4.67</course>
  <speed>4.91</speed>
  <fix>3d</fix>
</trkpt>
<trkpt lat="40.0719039" lon="-105.2298254">
  <ele>1583.01</ele>
  <time>2026-08-28T17:55:41Z</time>
  <course>5.4</course>
  <speed>4.764388733090532</speed>
  <fix>3d</fix>
</trkpt>
<trkpt lat="40.0718981" lon="-105.2298262">
  <ele>1583.0</ele>
  <time>2026-08-28T17:55:41Z</time>
  <course>4.54</course>
  <speed>4.81</speed>
  <fix>3d</fix>
</trkpt>
<trkpt lat="40.0719081" lon="-105.229825">
  <ele>1583.01</ele>
  <time>2026-08-28T17:55:41Z</time>
  <course>5.34</course>
  <speed>4.653944563485904</speed>
  <fix>3d</fix>
</trkpt>
<trkpt lat="40.0718981" lon="-105.2298262">
  <ele>1583.0</ele>
  <time>2026-08-28T17:55:41Z</time>
  <course>4.54</course>
  <speed>4.81</speed>
  <fix>3d</fix>
</trkpt>
<trkpt lat="40.0719122" lon="-105.2298246">
  <ele>1583.01</ele>
  <time>2026-08-28T17:55:41Z</time>
  <course>5.24</course>
  <speed>4.5320304500300965</speed>
  <fix>3d</fix>
</trkpt>
<trkpt lat="40.0719065" lon="-105.2298254">
  <ele>1583.0</ele>
  <time>2026-08-28T17:55:41Z</time>
  <course>4.39</course>
  <speed>4.62</speed>
  <fix>3d</fix>
</trkpt>
<trkpt lat="40.0719161" lon="-105.2298243">
  <ele>1583.01</ele>
  <time>2026-08-28T17:55:41Z</time>
  <course>5.16</course>
  <speed>4.400931719533944</speed>
  <fix>3d</fix>
</trkpt>
<trkpt lat="40.0719065" lon="-105.2298254">
  <ele>1583.0</ele>
  <time>2026-08-28T17:55:41Z</time>
  <course>4.39</course>
  <speed>4.62</speed>
  <fix>3d</fix>
</trkpt>
<trkpt lat="40.07192" lon="-105.2298239">
  <ele>1583.01</ele>
  <time>2026-08-28T17:55:41Z</time>
  <course>5.04</course>
  <speed>4.259882627491043</speed>
  <fix>3d</fix>
</trkpt>
<trkpt lat="40.0719146" lon="-105.2298246">
  <ele>1583.0</ele>
  <time>2026-08-28T17:55:41Z</time>
  <course>4.21</course>
  <speed>4.38</speed>
  <fix>3d</fix>
</trkpt>
<trkpt lat="40.0719237" lon="-105.2298236">
  <ele>1583.0</ele>
  <time>2026-08-28T17:55:41Z</time>
  <course>4.93</course>
  <speed>4.108880626155985</speed>
  <fix>3d</fix>
</trkpt>
<trkpt lat="40.0719146" lon="-105.2298246">
  <ele>1583.0</ele>
  <time>2026-08-28T17:55:41Z</time>
  <course>4.21</course>
  <speed>4.38</speed>
  <fix>3d</fix>
</trkpt>
<trkpt lat="40.0719273" lon="-105.2298233">
  <ele>1583.0</ele>
  <time>2026-08-28T17:55:41Z</time>
  <course>4.82</course>
  <speed>3.957284422429098</speed>
  <fix>3d</fix>
</trkpt>
<trkpt lat="40.0719222" lon="-105.2298238">
  <ele>1583.0</ele>
  <time>2026-08-28T17:55:41Z</time>
  <course>4.0</course>
  <speed>4.09</speed>
  <fix>3d</fix>
</trkpt>
<trkpt lat="40.0719308" lon="-105.2298231">
  <ele>1583.0</ele>
  <time>2026-08-28T17:55:41Z</time>
  <course>4.71</course>
  <speed>3.7863967039918043</speed>
  <fix>3d</fix>
</trkpt>
<trkpt lat="40.0719222" lon="-105.2298238">
  <ele>1583.0</ele>
  <time>2026-08-28T17:55:41Z</time>
  <course>4.0</course>
  <speed>4.09</speed>
  <fix>3d</fix>
</trkpt>
<trkpt lat="40.0719341" lon="-105.2298228">
  <ele>1583.0</ele>
  <time>2026-08-28T17:55:41Z</time>
  <course>4.61</course>
  <speed>3.6255206522649956</speed>
  <fix>3d</fix>
</trkpt>
<trkpt lat="40.0719292" lon="-105.2298232">
  <ele>1583.0</ele>
  <time>2026-08-28T17:55:41Z</time>
  <course>3.79</course>
  <speed>3.79</speed>
  <fix>3d</fix>
</trkpt>
<trkpt lat="40.0719372" lon="-105.2298226">
  <ele>1582.99</ele>
  <time>2026-08-28T17:55:41Z</time>
  <course>4.52</course>
  <speed>3.4646789173024386</speed>
  <fix>3d</fix>
</trkpt>
<trkpt lat="40.0719292" lon="-105.2298232">
  <ele>1583.0</ele>
  <time>2026-08-28T17:55:41Z</time>
  <course>3.79</course>
  <speed>3.79</speed>
  <fix>3d</fix>
</trkpt>
<trkpt lat="40.0719402" lon="-105.2298224">
  <ele>1582.99</ele>
  <time>2026-08-28T17:55:41Z</time>
  <course>4.43</course>
  <speed>3.2938882798297815</speed>
  <fix>3d</fix>
</trkpt>
<trkpt lat="40.0719358" lon="-105.2298227">
  <ele>1583.0</ele>
  <time>2026-08-28T17:55:41Z</time>
  <course>3.59</course>
  <speed>3.47</speed>
  <fix>3d</fix>
</trkpt>
<trkpt lat="40.0719431" lon="-105.2298222">
  <ele>1582.99</ele>
  <time>2026-08-28T17:55:41Z</time>
  <course>4.34</course>
  <speed>3.1335921878891644</speed>
  <fix>3d</fix>
</trkpt>
<trkpt lat="40.0719358" lon="-105.2298227">
  <ele>1583.0</ele>
  <time>2026-08-28T17:55:41Z</time>
  <course>3.59</course>
  <speed>3.47</speed>
  <fix>3d</fix>
</trkpt>
<trkpt lat="40.0719458" lon="-105.2298221">
  <ele>1582.99</ele>
  <time>2026-08-28T17:55:41Z</time>
  <course>4.22</course>
  <speed>2.9728437564056405</speed>
  <fix>3d</fix>
</trkpt>
<trkpt lat="40.0719417" lon="-105.2298222">
  <ele>1583.0</ele>
  <time>2026-08-28T17:55:41Z</time>
  <course>3.39</course>
  <speed>3.15</speed>
  <fix>3d</fix>
</trkpt>
<trkpt lat="40.0719483" lon="-105.2298219">
  <ele>1582.98</ele>
  <time>2026-08-28T17:55:41Z</time>
  <course>4.1</course>
  <speed>2.8221445746098834</speed>
  <fix>3d</fix>
</trkpt>
<trkpt lat="40.0719417" lon="-105.2298222">
  <ele>1583.0</ele>
  <time>2026-08-28T17:55:41Z</time>
  <course>3.39</course>
  <speed>3.15</speed>
  <fix>3d</fix>
</trkpt>
<trkpt lat="40.0719508" lon="-105.2298218">
  <ele>1582.98</ele>
  <time>2026-08-28T17:55:41Z</time>
  <course>3.99</course>
  <speed>2.671516423307182</speed>
  <fix>3d</fix>
</trkpt>
<trkpt lat="40.0719417" lon="-105.2298222">
  <ele>1583.0</ele>
  <time>2026-08-28T17:55:41Z</time>
  <course>3.39</course>
  <speed>3.15</speed>
  <fix>3d</fix>
</trkpt>
<trkpt lat="40.0719531" lon="-105.2298216">
  <ele>1582.99</ele>
  <time>2026-08-28T17:55:41Z</time>
  <course>3.88</course>
  <speed>2.521269521491108</speed>
  <fix>3d</fix>
</trkpt>
<trkpt lat="40.0719471" lon="-105.2298218">
  <ele>1583.0</ele>
  <time>2026-08-28T17:55:41Z</time>
  <course>3.17</course>
  <speed>2.85</speed>
  <fix>3d</fix>
</trkpt>
<trkpt lat="40.0719552" lon="-105.2298215">
  <ele>1582.98</ele>
  <time>2026-08-28T17:55:41Z</time>
  <course>3.78</course>
  <speed>2.381029189237293</speed>
  <fix>3d</fix>
</trkpt>
<trkpt lat="40.0719471" lon="-105.2298218">
  <ele>1583.0</ele>
  <time>2026-08-28T17:55:41Z</time>
  <course>3.17</course>
  <speed>2.85</speed>
  <fix>3d</fix>
</trkpt>
<trkpt lat="40.0719572" lon="-105.2298214">
  <ele>1582.98</ele>
  <time>2026-08-28T17:55:41Z</time>
  <course>3.68</course>
  <speed>2.2507998578283233</speed>
  <fix>3d</fix>
</trkpt>
<trkpt lat="40.0719519" lon="-105.2298215">
  <ele>1583.0</ele>
  <time>2026-08-28T17:55:41Z</time>
  <course>2.95</course>
  <speed>2.56</speed>
  <fix>3d</fix>
</trkpt>
<trkpt lat="40.0719592" lon="-105.2298213">
  <ele>1582.98</ele>
  <time>2026-08-28T17:55:41Z</time>
  <course>3.56</course>
  <speed>2.1103791128610045</speed>
  <fix>3d</fix>
</trkpt>
<trkpt lat="40.0719519" lon="-105.2298215">
  <ele>1583.0</ele>
  <time>2026-08-28T17:55:41Z</time>
  <course>2.95</course>
  <speed>2.56</speed>
  <fix>3d</fix>
</trkpt>
<trkpt lat="40.0719609" lon="-105.2298213">
  <ele>1582.98</ele>
  <time>2026-08-28T17:55:41Z</time>
  <course>3.45</course>
  <speed>1.990226117806718</speed>
  <fix>3d</fix>
</trkpt>
<trkpt lat="40.0719563" lon="-105.2298212">
  <ele>1583.0</ele>
  <time>2026-08-28T17:55:41Z</time>
  <course>2.75</course>
  <speed>2.29</speed>
  <fix>3d</fix>
</trkpt>
<trkpt lat="40.0719626" lon="-105.2298212">
  <ele>1582.99</ele>
  <time>2026-08-28T17:55:41Z</time>
  <course>3.34</course>
  <speed>1.8602419197512996</speed>
  <fix>3d</fix>
</trkpt>
<trkpt lat="40.0719563" lon="-105.2298212">
  <ele>1583.0</ele>
  <time>2026-08-28T17:55:41Z</time>
  <course>2.75</course>
  <speed>2.29</speed>
  <fix>3d</fix>
</trkpt>
<trkpt lat="40.0719642" lon="-105.2298211">
  <ele>1582.99</ele>
  <time>2026-08-28T17:55:41Z</time>
  <course>3.23</course>
  <speed>1.7401149387324966</speed>
  <fix>3d</fix>
</trkpt>
<trkpt lat="40.0719602" lon="-105.2298209">
  <ele>1583.0</ele>
  <time>2026-08-28T17:55:41Z</time>
  <course>2.53</course>
  <speed>2.04</speed>
  <fix>3d</fix>
</trkpt>
<trkpt lat="40.0719657" lon="-105.229821">
  <ele>1582.99</ele>
  <time>2026-08-28T17:55:41Z</time>
  <course>3.12</course>
  <speed>1.6300306745579973</speed>
  <fix>3d</fix>
</trkpt>
<trkpt lat="40.0719637" lon="-105.2298208">
  <ele>1583.0</ele>
  <time>2026-08-28T17:55:41Z</time>
  <course>2.32</course>
  <speed>1.81</speed>
  <fix>3d</fix>
</trkpt>
<trkpt lat="40.0719671" lon="-105.229821">
  <ele>1582.99</ele>
  <time>2026-08-28T17:55:41Z</time>
  <course>3.01</course>
  <speed>1.52</speed>
  <fix>3d</fix>
</trkpt>
<trkpt lat="40.0719637" lon="-105.2298208">
  <ele>1583.0</ele>
  <time>2026-08-28T17:55:41Z</time>
  <course>2.32</course>
  <speed>1.81</speed>
  <fix>3d</fix>
</trkpt>
<trkpt lat="40.0719684" lon="-105.2298209">
  <ele>1582.99</ele>
  <time>2026-08-28T17:55:41Z</time>
  <course>2.9</course>
  <speed>1.42</speed>
  <fix>3d</fix>
</trkpt>
<trkpt lat="40.0719667" lon="-105.2298206">
  <ele>1583.0</ele>
  <time>2026-08-28T17:55:41Z</time>
  <course>2.11</course>
  <speed>1.59</speed>
  <fix>3d</fix>
</trkpt>
<trkpt lat="40.0719697" lon="-105.2298209">
  <ele>1582.99</ele>
  <time>2026-08-28T17:55:41Z</time>
  <course>2.8</course>
  <speed>1.31</speed>
  <fix>3d</fix>
</trkpt>
<trkpt lat="40.0719667" lon="-105.2298206">
  <ele>1583.0</ele>
  <time>2026-08-28T17:55:41Z</time>
  <course>2.11</course>
  <speed>1.59</speed>
  <fix>3d</fix>
</trkpt>
<trkpt lat="40.0719708" lon="-105.2298209">
  <ele>1582.99</ele>
  <time>2026-08-28T17:55:41Z</time>
  <course>2.68</course>
  <speed>1.21</speed>
  <fix>3d</fix>
</trkpt>
<trkpt lat="40.0719694" lon="-105.2298205">
  <ele>1583.0</ele>
  <time>2026-08-28T17:55:41Z</time>
  <course>1.9</course>
  <speed>1.39</speed>
  <fix>3d</fix>
</trkpt>
<trkpt lat="40.0719719" lon="-105.2298208">
  <ele>1582.99</ele>
  <time>2026-08-28T17:55:41Z</time>
  <course>2.58</course>
  <speed>1.12</speed>
  <fix>3d</fix>
</trkpt>
<trkpt lat="40.0719694" lon="-105.2298205">
  <ele>1583.0</ele>
  <time>2026-08-28T17:55:41Z</time>
  <course>1.9</course>
  <speed>1.39</speed>
  <fix>3d</fix>
</trkpt>
<trkpt lat="40.0719729" lon="-105.2298208">
  <ele>1582.98</ele>
  <time>2026-08-28T17:55:41Z</time>
  <course>2.47</course>
  <speed>1.0200490184299968</speed>
  <fix>3d</fix>
</trkpt>
<trkpt lat="40.0719717" lon="-105.2298204">
  <ele>1583.0</ele>
  <time>2026-08-28T17:55:41Z</time>
  <course>1.69</course>
  <speed>1.19</speed>
  <fix>3d</fix>
</trkpt>
<trkpt lat="40.0719738" lon="-105.2298207">
  <ele>1582.98</ele>
  <time>2026-08-28T17:55:41Z</time>
  <course>2.37</course>
  <speed>0.9300537618869137</speed>
  <fix>3d</fix>
</trkpt>
<trkpt lat="40.0719717" lon="-105.2298204">
  <ele>1583.0</ele>
  <time>2026-08-28T17:55:41Z</time>
  <course>1.69</course>
  <speed>1.19</speed>
  <fix>3d</fix>
</trkpt>
<trkpt lat="40.0719746" lon="-105.2298206">
  <ele>1582.98</ele>
  <time>2026-08-28T17:55:41Z</time>
  <course>2.27</course>
  <speed>0.8300602387778854</speed>
  <fix>3d</fix>
</trkpt>
<trkpt lat="40.0719737" lon="-105.2298203">
  <ele>1583.0</ele>
  <time>2026-08-28T17:55:41Z</time>
  <course>1.49</course>
  <speed>1.01</speed>
  <fix>3d</fix>
</trkpt>
<trkpt lat="40.0719753" lon="-105.2298206">
  <ele>1582.98</ele>
  <time>2026-08-28T17:55:41Z</time>
  <course>2.2</course>
  <speed>0.7400675644831355</speed>
  <fix>3d</fix>
</trkpt>
<trkpt lat="40.0719737" lon="-105.2298203">
  <ele>1583.0</ele>
  <time>2026-08-28T17:55:41Z</time>
  <course>1.49</course>
  <speed>1.01</speed>
  <fix>3d</fix>
</trkpt>
<trkpt lat="40.071976" lon="-105.2298206">
  <ele>1582.98</ele>
  <time>2026-08-28T17:55:41Z</time>
  <course>2.13</course>
  <speed>0.6500769185258002</speed>
  <fix>3d</fix>
</trkpt>
<trkpt lat="40.0719753" lon="-105.2298203">
  <ele>1583.0</ele>
  <time>2026-08-28T17:55:41Z</time>
  <course>1.33</course>
  <speed>0.82</speed>
  <fix>3d</fix>
</trkpt>
<trkpt lat="40.0719766" lon="-105.2298206">
  <ele>1582.98</ele>
  <time>2026-08-28T17:55:41Z</time>
  <course>2.08</course>
  <speed>0.560357029044876</speed>
  <fix>3d</fix>
</trkpt>
<trkpt lat="40.0719753" lon="-105.2298203">
  <ele>1583.0</ele>
  <time>2026-08-28T17:55:41Z</time>
  <course>1.33</course>
  <speed>0.82</speed>
  <fix>3d</fix>
</trkpt>
<trkpt lat="40.071977" lon="-105.2298206">
  <ele>1582.98</ele>
  <time>2026-08-28T17:55:41Z</time>
  <course>2.03</course>
  <speed>0.470425339453563</speed>
  <fix>3d</fix>
</trkpt>
<trkpt lat="40.0719767" lon="-105.2298202">
  <ele>1583.0</ele>
  <time>2026-08-28T17:55:41Z</time>
  <course>1.21</course>
  <speed>0.65</speed>
  <fix>3d</fix>
</trkpt>
<trkpt lat="40.0719775" lon="-105.2298206">
  <ele>1582.98</ele>
  <time>2026-08-28T17:55:41Z</time>
  <course>1.98</course>
  <speed>0.38052595180880894</speed>
  <fix>3d</fix>
</trkpt>
<trkpt lat="40.0719767" lon="-105.2298202">
  <ele>1583.0</ele>
  <time>2026-08-28T17:55:41Z</time>
  <course>1.21</course>
  <speed>0.65</speed>
  <fix>3d</fix>
</trkpt>
<trkpt lat="40.0719778" lon="-105.2298206">
  <ele>1582.99</ele>
  <time>2026-08-28T17:55:41Z</time>
  <course>1.95</course>
  <speed>0.2906888370749727</speed>
  <fix>3d</fix>
</trkpt>
<trkpt lat="40.0719767" lon="-105.2298202">
  <ele>1583.0</ele>
  <time>2026-08-28T17:55:41Z</time>
  <course>1.21</course>
  <speed>0.65</speed>
  <fix>3d</fix>
</trkpt>
<trkpt lat="40.0719781" lon="-105.2298206">
  <ele>1582.99</ele>
  <time>2026-08-28T17:55:41Z</time>
  <course>1.91</course>
  <speed>0.2009975124224178</speed>
  <fix>3d</fix>
</trkpt>
<trkpt lat="40.0719777" lon="-105.2298201">
  <ele>1583.0</ele>
  <time>2026-08-28T17:55:41Z</time>
  <course>1.12</course>
  <speed>0.47</speed>
  <fix>3d</fix>
</trkpt>
<trkpt lat="40.0719782" lon="-105.2298205">
  <ele>1582.99</ele>
  <time>2026-08-28T17:55:41Z</time>
  <course>1.89</course>
  <speed>0.1118033988749895</speed>
  <fix>3d</fix>
</trkpt>
<trkpt lat="40.0719777" lon="-105.2298201">
  <ele>1583.0</ele>
  <time>2026-08-28T17:55:41Z</time>
  <course>1.12</course>
  <speed>0.47</speed>
  <fix>3d</fix>
</trkpt>
<trkpt lat="40.0719783" lon="-105.2298205">
  <ele>1583.0</ele>
  <time>2026-08-28T17:55:41Z</time>
  <course>1.86</course>
  <speed>0.022360679774997897</speed>
  <fix>3d</fix>
</trkpt>
<trkpt lat="40.0719783" lon="-105.2298201">
  <ele>1583.0</ele>
  <time>2026-08-28T17:55:41Z</time>
  <course>1.05</course>
  <speed>0.29</speed>
  <fix>3d</fix>
</trkpt>
<trkpt lat="40.0719783" lon="-105.2298205">
  <ele>1583.0</ele>
  <time>2026-08-28T17:55:41Z</time>
  <course>1.87</course>
  <speed>0.07280109889280519</speed>
  <fix>3d</fix>
</trkpt>
<trkpt lat="40.0719783" lon="-105.2298201">
  <ele>1583.0</ele>
  <time>2026-08-28T17:55:41Z</time>
  <course>1.05</course>
  <speed>0.29</speed>
  <fix>3d</fix>
</trkpt>
<trkpt lat="40.0719784" lon="-105.2298204">
  <ele>1583.0</ele>
  <time>2026-08-28T17:55:41Z</time>
  <course>1.88</course>
  <speed>0.16031219541881397</speed>
  <fix>3d</fix>
</trkpt>
<trkpt lat="40.0719787" lon="-105.2298201">
  <ele>1583.0</ele>
  <time>2026-08-28T17:55:41Z</time>
  <course>1.01</course>
  <speed>0.1</speed>
  <fix>3d</fix>
</trkpt>
<trkpt lat="40.0719782" lon="-105.2298204">
  <ele>1583.0</ele>
  <time>2026-08-28T17:55:41Z</time>
  <course>1.94</course>
  <speed>0.2601922366251538</speed>
  <fix>3d</fix>
</trkpt>
<trkpt lat="40.0719788" lon="-105.2298201">
  <ele>1583.0</ele>
  <time>2026-08-28T17:55:41Z</time>
  <course>181.07</course>
  <speed>0.07</speed>
  <fix>3d</fix>
</trkpt>
<trkpt lat="40.071978" lon="-105.2298204">
  <ele>1583.01</ele>
  <time>2026-08-28T17:55:41Z</time>
  <course>2.05</course>
  <speed>0.35014282800023194</speed>
  <fix>3d</fix>
</trkpt>
<trkpt lat="40.0719788" lon="-105.2298201">
  <ele>1583.0</ele>
  <time>2026-08-28T17:55:41Z</time>
  <course>181.07</course>
  <speed>0.07</speed>
  <fix>3d</fix>
</trkpt>
<trkpt lat="40.0719777" lon="-105.2298204">
  <ele>1583.01</ele>
  <time>2026-08-28T17:55:41Z</time>
  <course>2.24</course>
  <speed>0.45044422518220834</speed>
  <fix>3d</fix>
</trkpt>
<trkpt lat="40.0719785" lon="-105.2298201">
  <ele>1583.0</ele>
  <time>2026-08-28T17:55:41Z</time>
  <course>181.27</course>
  <speed>0.26</speed>
  <fix>3d</fix>
</trkpt>
<trkpt lat="40.0719773" lon="-105.2298204">
  <ele>1583.01</ele>
  <time>2026-08-28T17:55:41Z</time>
  <course>2.53</course>
  <speed>0.5403702434442519</speed>
  <fix>3d</fix>
</trkpt>
<trkpt lat="40.0719785" lon="-105.2298201">
  <ele>1583.0</ele>
  <time>2026-08-28T17:55:41Z</time>
  <course>181.27</course>
  <speed>0.26</speed>
  <fix>3d</fix>
</trkpt>
<trkpt lat="40.0719768" lon="-105.2298204">
  <ele>1583.01</ele>
  <time>2026-08-28T17:55:41Z</time>
  <course>3.01</course>
  <speed>0.6403124237432849</speed>
  <fix>3d</fix>
</trkpt>
<trkpt lat="40.0719778" lon="-105.2298201">
  <ele>1583.0</ele>
  <time>2026-08-28T17:55:41Z</time>
  <course>181.83</course>
  <speed>0.46</speed>
  <fix>3d</fix>
</trkpt>
<trkpt lat="40.0719762" lon="-105.2298204">
  <ele>1583.01</ele>
  <time>2026-08-28T17:55:41Z</time>
  <course>3.76</course>
  <speed>0.7410802925459562</speed>
  <fix>3d</fix>
</trkpt>
<trkpt lat="40.0719778" lon="-105.2298201">
  <ele>1583.0</ele>
  <time>2026-08-28T17:55:41Z</time>
  <course>181.83</course>
  <speed>0.46</speed>
  <fix>3d</fix>
</trkpt>
<trkpt lat="40.0719756" lon="-105.2298204">
  <ele>1583.01</ele>
  <time>2026-08-28T17:55:41Z</time>
  <course>4.97</course>
  <speed>0.8321658488546619</speed>
  <fix>3d</fix>
</trkpt>
<trkpt lat="40.0719768" lon="-105.2298201">
  <ele>1583.0</ele>
  <time>2026-08-28T17:55:41Z</time>
  <course>183.27</course>
  <speed>0.65</speed>
  <fix>3d</fix>
</trkpt>
<trkpt lat="40.0719748" lon="-105.2298204">
  <ele>1583.01</ele>
  <time>2026-08-28T17:55:41Z</time>
  <course>6.97</course>
  <speed>0.9343446901438461</speed>
  <fix>3d</fix>
</trkpt>
<trkpt lat="40.0719768" lon="-105.2298201">
  <ele>1583.0</ele>
  <time>2026-08-28T17:55:41Z</time>
  <course>183.27</course>
  <speed>0.65</speed>
  <fix>3d</fix>
</trkpt>
<trkpt lat="40.071974" lon="-105.2298206">
  <ele>1583.01</ele>
  <time>2026-08-28T17:55:41Z</time>
  <course>10.11</course>
  <speed>1.0309704166463751</speed>
  <fix>3d</fix>
</trkpt>
<trkpt lat="40.0719755" lon="-105.2298203">
  <ele>1583.0</ele>
  <time>2026-08-28T17:55:41Z</time>
  <course>186.97</course>
  <speed>0.85</speed>
  <fix>3d</fix>
</trkpt>
<trkpt lat="40.071973" lon="-105.2298208">
  <ele>1583.01</ele>
  <time>2026-08-28T17:55:41Z</time>
  <course>14.32</course>
  <speed>1.1258774356030055</speed>
  <fix>3d</fix>
</trkpt>
<trkpt lat="40.0719755" lon="-105.2298203">
  <ele>1583.0</ele>
  <time>2026-08-28T17:55:41Z</time>
  <course>186.97</course>
  <speed>0.85</speed>
  <fix>3d</fix>
</trkpt>
<trkpt lat="40.0719721" lon="-105.2298211">
  <ele>1583.01</ele>
  <time>2026-08-28T17:55:41Z</time>
  <course>19.57</course>
  <speed>1.2271104269787623</speed>
  <fix>3d</fix>
</trkpt>
<trkpt lat="40.0719739" lon="-105.2298208">
  <ele>1583.0</ele>
  <time>2026-08-28T17:55:41Z</time>
  <course>194.42</course>
  <speed>1.05</speed>
  <fix>3d</fix>
</trkpt>
<trkpt lat="40.071971" lon="-105.2298217">
  <ele>1583.01</ele>
  <time>2026-08-28T17:55:41Z</time>
  <course>25.87</course>
  <speed>1.3209844813622906</speed>
  <fix>3d</fix>
</trkpt>
<trkpt lat="40.0719739" lon="-105.2298208">
  <ele>1583.0</ele>
  <time>2026-08-28T17:55:41Z</time>
  <course>194.42</course>
  <speed>1.05</speed>
  <fix>3d</fix>
</trkpt>
<trkpt lat="40.07197" lon="-105.2298224">
  <ele>1583.01</ele>
  <time>2026-08-28T17:55:41Z</time>
  <course>33.23</course>
  <speed>1.41315250415516</speed>
  <fix>3d</fix>
</trkpt>
<trkpt lat="40.0719719" lon="-105.2298217">
  <ele>1583.0</ele>
  <time>2026-08-28T17:55:41Z</time>
  <course>206.08</course>
  <speed>1.24</speed>
  <fix>3d</fix>
</trkpt>
<trkpt lat="40.071969" lon="-105.2298235">
  <ele>1583.01</ele>
  <time>2026-08-28T17:55:41Z</time>
  <course>41.67</course>
  <speed>1.5134397906755326</speed>
  <fix>3d</fix>
</trkpt>
<trkpt lat="40.0719719" lon="-105.2298217">
  <ele>1583.0</ele>
  <time>2026-08-28T17:55:41Z</time>
  <course>206.08</course>
  <speed>1.24</speed>
  <fix>3d</fix>
</trkpt>
<trkpt lat="40.071968" lon="-105.2298248">
  <ele>1583.01</ele>
  <time>2026-08-28T17:55:41Z</time>
  <course>51.18</course>
  <speed>1.5945218719101972</speed>
  <fix>3d</fix>
</trkpt>
<trkpt lat="40.0719719" lon="-105.2298217">
  <ele>1583.0</ele>
  <time>2026-08-28T17:55:41Z</time>
  <course>206.08</course>
  <speed>1.24</speed>
  <fix>3d</fix>
</trkpt>
<trkpt lat="40.0719672" lon="-105.2298264">
  <ele>1583.01</ele>
  <time>2026-08-28T17:55:41Z</time>
  <course>61.52</course>
  <speed>1.685852899869974</speed>
  <fix>3d</fix>
</trkpt>
<trkpt lat="40.0719699" lon="-105.2298234">
  <ele>1583.0</ele>
  <time>2026-08-28T17:55:41Z</time>
  <course>222.02</course>
  <speed>1.44</speed>
  <fix>3d</fix>
</trkpt>
<trkpt lat="40.0719667" lon="-105.2298282">
  <ele>1583.01</ele>
  <time>2026-08-28T17:55:41Z</time>
  <course>72.23</course>
  <speed>1.7617321022221284</speed>
  <fix>3d</fix>
</trkpt>
<trkpt lat="40.0719699" lon="-105.2298234">
  <ele>1583.0</ele>
  <time>2026-08-28T17:55:41Z</time>
  <course>222.02</course>
  <speed>1.44</speed>
  <fix>3d</fix>
</trkpt>
<trkpt lat="40.0719664" lon="-105.2298303">
  <ele>1583.01</ele>
  <time>2026-08-28T17:55:41Z</time>
  <course>83.05</course>
  <speed>1.8201373574541018</speed>
  <fix>3d</fix>
</trkpt>
<trkpt lat="40.0719682" lon="-105.2298263">
  <ele>1583.0</ele>
  <time>2026-08-28T17:55:41Z</time>
  <course>241.52</course>
  <speed>1.64</speed>
  <fix>3d</fix>
</trkpt>
<trkpt lat="40.0719664" lon="-105.2298325">
  <ele>1583.01</ele>
  <time>2026-08-28T17:55:41Z</time>
  <course>93.99</course>
  <speed>1.8717104476921635</speed>
  <fix>3d</fix>
</trkpt>
<trkpt lat="40.0719682" lon="-105.2298263">
  <ele>1583.0</ele>
  <time>2026-08-28T17:55:41Z</time>
  <course>241.52</course>
  <speed>1.64</speed>
  <fix>3d</fix>
</trkpt>
<trkpt lat="40.0719667" lon="-105.2298347">
  <ele>1583.0</ele>
  <time>2026-08-28T17:55:41Z</time>
  <course>105.03</course>
  <speed>1.9063315556324403</speed>
  <fix>3d</fix>
</trkpt>
<trkpt lat="40.0719673" lon="-105.2298301">
  <ele>1583.0</ele>
  <time>2026-08-28T17:55:41Z</time>
  <course>262.71</course>
  <speed>1.8</speed>
  <fix>3d</fix>
</trkpt>
<trkpt lat="40.0719673" lon="-105.2298369">
  <ele>1583.0</ele>
  <time>2026-08-28T17:55:41Z</time>
  <course>116.14</course>
  <speed>1.9411594473406868</speed>
  <fix>3d</fix>
</trkpt>
<trkpt lat="40.0719673" lon="-105.2298301">
  <ele>1583.0</ele>
  <time>2026-08-28T17:55:41Z</time>
  <course>262.71</course>
  <speed>1.8</speed>
  <fix>3d</fix>
</trkpt>
<trkpt lat="40.0719683" lon="-105.2298389">
  <ele>1583.0</ele>
  <time>2026-08-28T17:55:41Z</time>
  <course>127.41</course>
  <speed>1.9821705274773913</speed>
  <fix>3d</fix>
</trkpt>
<trkpt lat="40.0719674" lon="-105.2298345">
  <ele>1583.0</ele>
  <time>2026-08-28T17:55:41Z</time>
  <course>284.49</course>
  <speed>1.91</speed>
  <fix>3d</fix>
</trkpt>
<trkpt lat="40.0719697" lon="-105.2298406">
  <ele>1583.01</ele>
  <time>2026-08-28T17:55:41Z</time>
  <course>138.5</course>
  <speed>2.020717694285869</speed>
  <fix>3d</fix>
</trkpt>
<trkpt lat="40.0719689" lon="-105.2298385">
  <ele>1583.0</ele>
  <time>2026-08-28T17:55:41Z</time>
  <course>306.66</course>
  <speed>2.01</speed>
  <fix>3d</fix>
</trkpt>
<trkpt lat="40.0719713" lon="-105.229842">
  <ele>1583.01</ele>
  <time>2026-08-28T17:55:41Z</time>
  <course>148.61</course>
  <speed>2.0838665984174707</speed>
  <fix>3d</fix>
</trkpt>
<trkpt lat="40.0719689" lon="-105.2298385">
  <ele>1583.0</ele>
  <time>2026-08-28T17:55:41Z</time>
  <course>306.66</course>
  <speed>2.01</speed>
  <fix>3d</fix>
</trkpt>
<trkpt lat="40.0719731" lon="-105.2298431">
  <ele>1583.01</ele>
  <time>2026-08-28T17:55:41Z</time>
  <course>157.57</course>
  <speed>2.1524404753674373</speed>
  <fix>3d</fix>
</trkpt>
<trkpt lat="40.0719716" lon="-105.2298418">
  <ele>1583.0</ele>
  <time>2026-08-28T17:55:41Z</time>
  <course>327.33</course>
  <speed>2.12</speed>
  <fix>3d</fix>
</trkpt>
<trkpt lat="40.0719751" lon="-105.2298438">
  <ele>1583.01</ele>
  <time>2026-08-28T17:55:41Z</time>
  <course>165.53</course>
  <speed>2.2246348014898985</speed>
  <fix>3d</fix>
</trkpt>
<trkpt lat="40.0719716" lon="-105.2298418">
  <ele>1583.0</ele>
  <time>2026-08-28T17:55:41Z</time>
  <course>327.33</course>
  <speed>2.12</speed>
  <fix>3d</fix>
</trkpt>
<trkpt lat="40.0719772" lon="-105.2298443">
  <ele>1583.0</ele>
  <time>2026-08-28T17:55:41Z</time>
  <course>172.38</course>
  <speed>2.3015212360523636</speed>
  <fix>3d</fix>
</trkpt>
<trkpt lat="40.0719752" lon="-105.2298438">
  <ele>1583.0</ele>
  <time>2026-08-28T17:55:41Z</time>
  <course>344.23</course>
  <speed>2.25</speed>
  <fix>3d</fix>
</trkpt>
<trkpt lat="40.0719794" lon="-105.2298444">
  <ele>1583.0</ele>
  <time>2026-08-28T17:55:41Z</time>
  <course>178.12</course>
  <speed>2.39</speed>
  <fix>3d</fix>
</trkpt>
<trkpt lat="40.0719752" lon="-105.2298438">
  <ele>1583.0</ele>
  <time>2026-08-28T17:55:41Z</time>
  <course>344.23</course>
  <speed>2.25</speed>
  <fix>3d</fix>
</trkpt>
<trkpt lat="40.0719817" lon="-105.2298443">
  <ele>1583.0</ele>
  <time>2026-08-28T17:55:41Z</time>
  <course>182.79</course>
  <speed>2.4772969139770065</speed>
  <fix>3d</fix>
</trkpt>
<trkpt lat="40.0719793" lon="-105.2298448">
  <ele>1583.0</ele>
  <time>2026-08-28T17:55:41Z</time>
  <course>356.72</course>
  <speed>2.4</speed>
  <fix>3d</fix>
</trkpt>
<trkpt lat="40.071984" lon="-105.2298441">
  <ele>1582.99</ele>
  <time>2026-08-28T17:55:41Z</time>
  <course>186.28</course>
  <speed>2.5640007800310824</speed>
  <fix>3d</fix>
</trkpt>
<trkpt lat="40.0719793" lon="-105.2298448">
  <ele>1583.0</ele>
  <time>2026-08-28T17:55:41Z</time>
  <course>356.72</course>
  <speed>2.4</speed>
  <fix>3d</fix>
</trkpt>
<trkpt lat="40.0719864" lon="-105.2298437">
  <ele>1582.99</ele>
  <time>2026-08-28T17:55:41Z</time>
  <course>188.66</course>
  <speed>2.620686932847951</speed>
  <fix>3d</fix>
</trkpt>
<trkpt lat="40.0719838" lon="-105.2298447">
  <ele>1583.0</ele>
  <time>2026-08-28T17:55:41Z</time>
  <course>4.74</course>
  <speed>2.55</speed>
  <fix>3d</fix>
</trkpt>
<trkpt lat="40.0719888" lon="-105.2298432">
  <ele>1583.0</ele>
  <time>2026-08-28T17:55:41Z</time>
  <course>189.92</course>
  <speed>2.651490147068248</speed>
  <fix>3d</fix>
</trkpt>
<trkpt lat="40.0719838" lon="-105.2298447">
  <ele>1583.0</ele>
  <time>2026-08-28T17:55:41Z</time>
  <course>4.74</course>
  <speed>2.55</speed>
  <fix>3d</fix>
</trkpt>
<trkpt lat="40.0719912" lon="-105.2298426">
  <ele>1583.0</ele>
  <time>2026-08-28T17:55:41Z</time>
  <course>190.1</course>
  <speed>2.661296676434253</speed>
  <fix>3d</fix>
</trkpt>
<trkpt lat="40.0719884" lon="-105.229844">
  <ele>1583.0</ele>
  <time>2026-08-28T17:55:41Z</time>
  <course>8.34</course>
  <speed>2.63</speed>
  <fix>3d</fix>
</trkpt>
<trkpt lat="40.0719936" lon="-105.2298421">
  <ele>1583.0</ele>
  <time>2026-08-28T17:55:41Z</time>
  <course>189.19</course>
  <speed>2.632299375071156</speed>
  <fix>3d</fix>
</trkpt>
<trkpt lat="40.0719884" lon="-105.229844">
  <ele>1583.0</ele>
  <time>2026-08-28T17:55:41Z</time>
  <course>8.34</course>
  <speed>2.63</speed>
  <fix>3d</fix>
</trkpt>
<trkpt lat="40.0719959" lon="-105.2298417">
  <ele>1583.0</ele>
  <time>2026-08-28T17:55:41Z</time>
  <course>187.67</course>
  <speed>2.58953663808798</speed>
  <fix>3d</fix>
</trkpt>
<trkpt lat="40.0719884" lon="-105.229844">
  <ele>1583.0</ele>
  <time>2026-08-28T17:55:41Z</time>
  <course>8.34</course>
  <speed>2.63</speed>
  <fix>3d</fix>
</trkpt>
<trkpt lat="40.0719982" lon="-105.2298414">
  <ele>1583.0</ele>
  <time>2026-08-28T17:55:41Z</time>
  <course>186.47</course>
  <speed>2.5216859439668533</speed>
  <fix>3d</fix>
</trkpt>
<trkpt lat="40.0719931" lon="-105.2298431">
  <ele>1583.0</ele>
  <time>2026-08-28T17:55:41Z</time>
  <course>7.87</course>
  <speed>2.6</speed>
  <fix>3d</fix>
</trkpt>
<trkpt lat="40.0720005" lon="-105.2298411">
  <ele>1583.0</ele>
  <time>2026-08-28T17:55:41Z</time>
  <course>185.47</course>
  <speed>2.4350154003619773</speed>
  <fix>3d</fix>
</trkpt>
<trkpt lat="40.0719931" lon="-105.2298431">
  <ele>1583.0</ele>
  <time>2026-08-28T17:55:41Z</time>
  <course>7.87</course>
  <speed>2.6</speed>
  <fix>3d</fix>
</trkpt>
<trkpt lat="40.0720026" lon="-105.2298409">
  <ele>1583.0</ele>
  <time>2026-08-28T17:55:41Z</time>
  <course>184.65</course>
  <speed>2.330407689654323</speed>
  <fix>3d</fix>
</trkpt>
<trkpt lat="40.0719977" lon="-105.2298424">
  <ele>1583.0</ele>
  <time>2026-08-28T17:55:41Z</time>
  <course>5.61</course>
  <speed>2.49</speed>
  <fix>3d</fix>
</trkpt>
<trkpt lat="40.0720046" lon="-105.2298408">
  <ele>1583.0</ele>
  <time>2026-08-28T17:55:41Z</time>
  <course>184.0</course>
  <speed>2.2173181999884455</speed>
  <fix>3d</fix>
</trkpt>
<trkpt lat="40.0719977" lon="-105.2298424">
  <ele>1583.0</ele>
  <time>2026-08-28T17:55:41Z</time>
  <course>5.61</course>
  <speed>2.49</speed>
  <fix>3d</fix>
</trkpt>
<trkpt lat="40.0720066" lon="-105.2298408">
  <ele>1583.0</ele>
  <time>2026-08-28T17:55:41Z</time>
  <course>183.49</course>
  <speed>2.0946837470128994</speed>
  <fix>3d</fix>
</trkpt>
<trkpt lat="40.072002" lon="-105.2298419">
  <ele>1583.0</ele>
  <time>2026-08-28T17:55:41Z</time>
  <course>3.81</course>
  <speed>2.31</speed>
  <fix>3d</fix>
</trkpt>
<trkpt lat="40.0720084" lon="-105.2298407">
  <ele>1583.0</ele>
  <time>2026-08-28T17:55:41Z</time>
  <course>183.09</course>
  <speed>1.9630843079195555</speed>
  <fix>3d</fix>
</trkpt>
<trkpt lat="40.072002" lon="-105.2298419">
  <ele>1583.0</ele>
  <time>2026-08-28T17:55:41Z</time>
  <course>3.81</course>
  <speed>2.31</speed>
  <fix>3d</fix>
</trkpt>
<trkpt lat="40.07201" lon="-105.2298407">
  <ele>1583.0</ele>
  <time>2026-08-28T17:55:41Z</time>
  <course>182.78</course>
  <speed>1.8122361876973982</speed>
  <fix>3d</fix>
</trkpt>
<trkpt lat="40.0720059" lon="-105.2298417">
  <ele>1583.0</ele>
  <time>2026-08-28T17:55:41Z</time>
  <course>2.64</course>
  <speed>2.07</speed>
  <fix>3d</fix>
</trkpt>
<trkpt lat="40.0720116" lon="-105.2298407">
  <ele>1583.0</ele>
  <time>2026-08-28T17:55:41Z</time>
  <course>182.55</course>
  <speed>1.6714664220378463</speed>
  <fix>3d</fix>
</trkpt>
<trkpt lat="40.0720094" lon="-105.2298414">
  <ele>1583.0</ele>
  <time>2026-08-28T17:55:41Z</time>
  <course>1.92</course>
  <speed>1.79</speed>
  <fix>3d</fix>
</trkpt>
<trkpt lat="40.072013" lon="-105.2298407">
  <ele>1583.0</ele>
  <time>2026-08-28T17:55:41Z</time>
  <course>182.38</course>
  <speed>1.5108275877809487</speed>
  <fix>3d</fix>
</trkpt>
<trkpt lat="40.0720094" lon="-105.2298414">
  <ele>1583.0</ele>
  <time>2026-08-28T17:55:41Z</time>
  <course>1.92</course>
  <speed>1.79</speed>
  <fix>3d</fix>
</trkpt>
<trkpt lat="40.0720142" lon="-105.2298407">
  <ele>1583.0</ele>
  <time>2026-08-28T17:55:41Z</time>
  <course>182.27</course>
  <speed>1.360588108135596</speed>
  <fix>3d</fix>
</trkpt>
<trkpt lat="40.0720123" lon="-105.2298413">
  <ele>1583.0</ele>
  <time>2026-08-28T17:55:41Z</time>
  <course>1.51</course>
  <speed>1.5</speed>
  <fix>3d</fix>
</trkpt>
<trkpt lat="40.0720154" lon="-105.2298408">
  <ele>1583.0</ele>
  <time>2026-08-28T17:55:41Z</time>
  <course>182.21</course>
  <speed>1.2101652779682617</speed>
  <fix>3d</fix>
</trkpt>
<trkpt lat="40.0720123" lon="-105.2298413">
  <ele>1583.0</ele>
  <time>2026-08-28T17:55:41Z</time>
  <course>1.51</course>
  <speed>1.5</speed>
  <fix>3d</fix>
</trkpt>
<trkpt lat="40.0720163" lon="-105.2298408">
  <ele>1583.0</ele>
  <time>2026-08-28T17:55:41Z</time>
  <course>182.19</course>
  <speed>1.050047617967871</speed>
  <fix>3d</fix>
</trkpt>
<trkpt lat="40.0720148" lon="-105.2298412">
  <ele>1583.0</ele>
  <time>2026-08-28T17:55:41Z</time>
  <course>1.32</course>
  <speed>1.19</speed>
  <fix>3d</fix>
</trkpt>
<trkpt lat="40.0720172" lon="-105.2298409">
  <ele>1583.0</ele>
  <time>2026-08-28T17:55:41Z</time>
  <course>182.19</course>
  <speed>0.9</speed>
  <fix>3d</fix>
</trkpt>
<trkpt lat="40.0720148" lon="-105.2298412">
  <ele>1583.0</ele>
  <time>2026-08-28T17:55:41Z</time>
  <course>1.32</course>
  <speed>1.19</speed>
  <fix>3d</fix>
</trkpt>
<trkpt lat="40.0720179" lon="-105.2298409">
  <ele>1583.0</ele>
  <time>2026-08-28T17:55:41Z</time>
  <course>182.19</course>
  <speed>0.74</speed>
  <fix>3d</fix>
</trkpt>
<trkpt lat="40.0720167" lon="-105.2298412">
  <ele>1583.0</ele>
  <time>2026-08-28T17:55:41Z</time>
  <course>1.28</course>
  <speed>0.88</speed>
  <fix>3d</fix>
</trkpt>
<trkpt lat="40.0720184" lon="-105.2298409">
  <ele>1583.01</ele>
  <time>2026-08-28T17:55:41Z</time>
  <course>182.2</course>
  <speed>0.5900847396772771</speed>
  <fix>3d</fix>
</trkpt>
<trkpt lat="40.0720167" lon="-105.2298412">
  <ele>1583.0</ele>
  <time>2026-08-28T17:55:41Z</time>
  <course>1.28</course>
  <speed>0.88</speed>
  <fix>3d</fix>
</trkpt>
<trkpt lat="40.0720189" lon="-105.2298409">
  <ele>1583.01</ele>
  <time>2026-08-28T17:55:41Z</time>
  <course>182.22</course>
  <speed>0.45044422518220834</speed>
  <fix>3d</fix>
</trkpt>
<trkpt lat="40.072018" lon="-105.2298412">
  <ele>1583.0</ele>
  <time>2026-08-28T17:55:41Z</time>
  <course>1.29</course>
  <speed>0.59</speed>
  <fix>3d</fix>
</trkpt>
<trkpt lat="40.0720192" lon="-105.229841">
  <ele>1583.01</ele>
  <time>2026-08-28T17:55:41Z</time>
  <course>182.23</course>
  <speed>0.30066592756745814</speed>
  <fix>3d</fix>
</trkpt>
<trkpt lat="40.072018" lon="-105.2298412">
  <ele>1583.0</ele>
  <time>2026-08-28T17:55:41Z</time>
  <course>1.29</course>
  <speed>0.59</speed>
  <fix>3d</fix>
</trkpt>
<trkpt lat="40.0720194" lon="-105.229841">
  <ele>1583.02</ele>
  <time>2026-08-28T17:55:41Z</time>
  <course>182.24</course>
  <speed>0.17262676501632068</speed>
  <fix>3d</fix>
</trkpt>
<trkpt lat="40.0720187" lon="-105.2298412">
  <ele>1583.0</ele>
  <time>2026-08-28T17:55:41Z</time>
  <course>1.31</course>
  <speed>0.3</speed>
  <fix>3d</fix>
</trkpt>
<trkpt lat="40.0720194" lon="-105.2298411">
  <ele>1583.02</ele>
  <time>2026-08-28T17:55:41Z</time>
  <course>182.25</course>
  <speed>0.05</speed>
  <fix>3d</fix>
</trkpt>
<trkpt lat="40.0720187" lon="-105.2298412">
  <ele>1583.0</ele>
  <time>2026-08-28T17:55:41Z</time>
  <course>1.31</course>
  <speed>0.3</speed>
  <fix>3d</fix>
</trkpt>
<trkpt lat="40.0720193" lon="-105.2298411">
  <ele>1583.02</ele>
  <time>2026-08-28T17:55:41Z</time>
  <course>182.25</course>
  <speed>0.10295630140987001</speed>
  <fix>3d</fix>
</trkpt>
<trkpt lat="40.0720191" lon="-105.2298412">
  <ele>1583.0</ele>
  <time>2026-08-28T17:55:41Z</time>
  <course>1.31</course>
  <speed>0.03</speed>
  <fix>3d</fix>
</trkpt>
<trkpt lat="40.0720191" lon="-105.2298412">
  <ele>1583.03</ele>
  <time>2026-08-28T17:55:41Z</time>
  <course>182.31</course>
  <speed>0.21840329667841554</speed>
  <fix>3d</fix>
</trkpt>
<trkpt lat="40.0720191" lon="-105.2298412">
  <ele>1583.0</ele>
  <time>2026-08-28T17:55:41Z</time>
  <course>1.31</course>
  <speed>0.03</speed>
  <fix>3d</fix>
</trkpt>
<trkpt lat="40.0720189" lon="-105.2298413">
  <ele>1583.03</ele>
  <time>2026-08-28T17:55:41Z</time>
  <course>182.43</course>
  <speed>0.33541019662496846</speed>
  <fix>3d</fix>
</trkpt>
<trkpt lat="40.0720191" lon="-105.2298412">
  <ele>1583.0</ele>
  <time>2026-08-28T17:55:41Z</time>
  <course>1.31</course>
  <speed>0.03</speed>
  <fix>3d</fix>
</trkpt>
<trkpt lat="40.0720185" lon="-105.2298413">
  <ele>1583.03</ele>
  <time>2026-08-28T17:55:41Z</time>
  <course>182.61</course>
  <speed>0.455411901469428</speed>
  <fix>3d</fix>
</trkpt>
<trkpt lat="40.0720189" lon="-105.2298412">
  <ele>1583.0</ele>
  <time>2026-08-28T17:55:41Z</time>
  <course>181.47</course>
  <speed>0.21</speed>
  <fix>3d</fix>
</trkpt>
<trkpt lat="40.072018" lon="-105.2298414">
  <ele>1583.03</ele>
  <time>2026-08-28T17:55:41Z</time>
  <course>182.89</course>
  <speed>0.565685424949238</speed>
  <fix>3d</fix>
</trkpt>
<trkpt lat="40.0720189" lon="-105.2298412">
  <ele>1583.0</ele>
  <time>2026-08-28T17:55:41Z</time>
  <course>181.47</course>
  <speed>0.21</speed>
  <fix>3d</fix>
</trkpt>
<trkpt lat="40.0720175" lon="-105.2298415">
  <ele>1583.02</ele>
  <time>2026-08-28T17:55:41Z</time>
  <course>183.34</course>
  <speed>0.6760177512462228</speed>
  <fix>3d</fix>
</trkpt>
<trkpt lat="40.0720183" lon="-105.2298412">
  <ele>1583.0</ele>
  <time>2026-08-28T17:55:41Z</time>
  <course>181.8</course>
  <speed>0.44</speed>
  <fix>3d</fix>
</trkpt>
<trkpt lat="40.0720168" lon="-105.2298416">
  <ele>1583.02</ele>
  <time>2026-08-28T17:55:41Z</time>
  <course>184.06</course>
  <speed>0.7877182237323191</speed>
  <fix>3d</fix>
</trkpt>
<trkpt lat="40.0720183" lon="-105.2298412">
  <ele>1583.0</ele>
  <time>2026-08-28T17:55:41Z</time>
  <course>181.8</course>
  <speed>0.44</speed>
  <fix>3d</fix>
</trkpt>
<trkpt lat="40.072016" lon="-105.2298417">
  <ele>1583.02</ele>
  <time>2026-08-28T17:55:41Z</time>
  <course>185.22</course>
  <speed>0.8895504482602434</speed>
  <fix>3d</fix>
</trkpt>
<trkpt lat="40.0720174" lon="-105.2298412">
  <ele>1583.0</ele>
  <time>2026-08-28T17:55:41Z</time>
  <course>182.66</course>
  <speed>0.66</speed>
  <fix>3d</fix>
</trkpt>
<trkpt lat="40.0720152" lon="-105.2298418">
  <ele>1583.02</ele>
  <time>2026-08-28T17:55:41Z</time>
  <course>187.19</course>
  <speed>0.9865596788841515</speed>
  <fix>3d</fix>
</trkpt>
<trkpt lat="40.072016" lon="-105.2298413">
  <ele>1583.0</ele>
  <time>2026-08-28T17:55:41Z</time>
  <course>184.91</course>
  <speed>0.87</speed>
  <fix>3d</fix>
</trkpt>
<trkpt lat="40.0720142" lon="-105.229842">
  <ele>1583.01</ele>
  <time>2026-08-28T17:55:41Z</time>
  <course>190.28</course>
  <speed>1.0890821823902914</speed>
  <fix>3d</fix>
</trkpt>
<trkpt lat="40.072016" lon="-105.2298413">
  <ele>1583.0</ele>
  <time>2026-08-28T17:55:41Z</time>
  <course>184.91</course>
  <speed>0.87</speed>
  <fix>3d</fix>
</trkpt>
<trkpt lat="40.0720132" lon="-105.2298423">
  <ele>1583.01</ele>
  <time>2026-08-28T17:55:41Z</time>
  <course>194.41</course>
  <speed>1.1925183436744276</speed>
  <fix>3d</fix>
</trkpt>
<trkpt lat="40.0720143" lon="-105.2298415">
  <ele>1583.0</ele>
  <time>2026-08-28T17:55:41Z</time>
  <course>190.25</course>
  <speed>1.07</speed>
  <fix>3d</fix>
</trkpt>
<trkpt lat="40.0720121" lon="-105.2298428">
  <ele>1583.0</ele>
  <time>2026-08-28T17:55:41Z</time>
  <course>199.54</course>
  <speed>1.283160161476345</speed>
  <fix>3d</fix>
</trkpt>
<trkpt lat="40.0720143" lon="-105.2298415">
  <ele>1583.0</ele>
  <time>2026-08-28T17:55:41Z</time>
  <course>190.25</course>
  <speed>1.07</speed>
  <fix>3d</fix>
</trkpt>
<trkpt lat="40.072011" lon="-105.2298434">
  <ele>1583.0</ele>
  <time>2026-08-28T17:55:41Z</time>
  <course>205.73</course>
  <speed>1.3823530663329107</speed>
  <fix>3d</fix>
</trkpt>
<trkpt lat="40.0720123" lon="-105.2298422">
  <ele>1583.0</ele>
  <time>2026-08-28T17:55:41Z</time>
  <course>199.66</course>
  <speed>1.25</speed>
  <fix>3d</fix>
</trkpt>
<trkpt lat="40.0720099" lon="-105.2298442">
  <ele>1583.0</ele>
  <time>2026-08-28T17:55:41Z</time>
  <course>212.94</course>
  <speed>1.4729901561110312</speed>
  <fix>3d</fix>
</trkpt>
<trkpt lat="40.0720123" lon="-105.2298422">
  <ele>1583.0</ele>
  <time>2026-08-28T17:55:41Z</time>
  <course>199.66</course>
  <speed>1.25</speed>
  <fix>3d</fix>
</trkpt>
<trkpt lat="40.0720088" lon="-105.2298453">
  <ele>1583.01</ele>
  <time>2026-08-28T17:55:41Z</time>
  <course>221.16</course>
  <speed>1.5707959765672945</speed>
  <fix>3d</fix>
</trkpt>
<trkpt lat="40.0720101" lon="-105.2298436">
  <ele>1583.0</ele>
  <time>2026-08-28T17:55:41Z</time>
  <course>213.14</course>
  <speed>1.43</speed>
  <fix>3d</fix>
</trkpt>
<trkpt lat="40.0720078" lon="-105.2298467">
  <ele>1583.01</ele>
  <time>2026-08-28T17:55:41Z</time>
  <course>230.46</course>
  <speed>1.666433316997713</speed>
  <fix>3d</fix>
</trkpt>
<trkpt lat="40.0720101" lon="-105.2298436">
  <ele>1583.0</ele>
  <time>2026-08-28T17:55:41Z</time>
  <course>213.14</course>
  <speed>1.43</speed>
  <fix>3d</fix>
</trkpt>
<trkpt lat="40.0720069" lon="-105.2298484">
  <ele>1583.01</ele>
  <time>2026-08-28T17:55:41Z</time>
  <course>240.69</course>
  <speed>1.7535392781457733</speed>
  <fix>3d</fix>
</trkpt>
<trkpt lat="40.0720081" lon="-105.229846">
  <ele>1583.0</ele>
  <time>2026-08-28T17:55:41Z</time>
  <course>230.65</course>
  <speed>1.59</speed>
  <fix>3d</fix>
</trkpt>
<trkpt lat="40.0720063" lon="-105.2298503">
  <ele>1583.01</ele>
  <time>2026-08-28T17:55:41Z</time>
  <course>251.31</course>
  <speed>1.8374166647769363</speed>
  <fix>3d</fix>
</trkpt>
<trkpt lat="40.0720081" lon="-105.229846">
  <ele>1583.0</ele>
  <time>2026-08-28T17:55:41Z</time>
  <course>230.65</course>
  <speed>1.59</speed>
  <fix>3d</fix>
</trkpt>
<trkpt lat="40.072006" lon="-105.2298524">
  <ele>1583.02</ele>
  <time>2026-08-28T17:55:41Z</time>
  <course>261.95</course>
  <speed>1.9051771571168914</speed>
  <fix>3d</fix>
</trkpt>
<trkpt lat="40.0720066" lon="-105.2298494">
  <ele>1583.0</ele>
  <time>2026-08-28T17:55:41Z</time>
  <course>250.91</course>
  <speed>1.75</speed>
  <fix>3d</fix>
</trkpt>
<trkpt lat="40.0720059" lon="-105.2298547">
  <ele>1583.02</ele>
  <time>2026-08-28T17:55:41Z</time>
  <course>272.65</course>
  <speed>1.9630843079195555</speed>
  <fix>3d</fix>
</trkpt>
<trkpt lat="40.0720066" lon="-105.2298494">
  <ele>1583.0</ele>
  <time>2026-08-28T17:55:41Z</time>
  <course>250.91</course>
  <speed>1.75</speed>
  <fix>3d</fix>
</trkpt>
<trkpt lat="40.0720062" lon="-105.229857">
  <ele>1583.02</ele>
  <time>2026-08-28T17:55:41Z</time>
  <course>283.38</course>
  <speed>1.996121238802894</speed>
  <fix>3d</fix>
</trkpt>
<trkpt lat="40.0720061" lon="-105.2298536">
  <ele>1583.0</ele>
  <time>2026-08-28T17:55:41Z</time>
  <course>272.05</course>
  <speed>1.87</speed>
  <fix>3d</fix>
</trkpt>
<trkpt lat="40.0720069" lon="-105.2298592">
  <ele>1583.02</ele>
  <time>2026-08-28T17:55:41Z</time>
  <course>294.17</course>
  <speed>2.022671500763285</speed>
  <fix>3d</fix>
</trkpt>
<trkpt lat="40.0720061" lon="-105.2298536">
  <ele>1583.0</ele>
  <time>2026-08-28T17:55:41Z</time>
  <course>272.05</course>
  <speed>1.87</speed>
  <fix>3d</fix>
</trkpt>
<trkpt lat="40.0720078" lon="-105.2298612">
  <ele>1583.02</ele>
  <time>2026-08-28T17:55:41Z</time>
  <course>304.99</course>
  <speed>2.0448227307030797</speed>
  <fix>3d</fix>
</trkpt>
<trkpt lat="40.0720061" lon="-105.2298536">
  <ele>1583.0</ele>
  <time>2026-08-28T17:55:41Z</time>
  <course>272.05</course>
  <speed>1.87</speed>
  <fix>3d</fix>
</trkpt>
<trkpt lat="40.0720091" lon="-105.229863">
  <ele>1583.02</ele>
  <time>2026-08-28T17:55:41Z</time>
  <course>315.84</course>
  <speed>2.07212451363329</speed>
  <fix>3d</fix>
</trkpt>
<trkpt lat="40.0720069" lon="-105.2298579">
  <ele>1583.0</ele>
  <time>2026-08-28T17:55:41Z</time>
  <course>293.49</course>
  <speed>1.93</speed>
  <fix>3d</fix>
</trkpt>
<trkpt lat="40.0720104" lon="-105.2298644">
  <ele>1583.02</ele>
  <time>2026-08-28T17:55:41Z</time>
  <course>326.02</course>
  <speed>2.096783250600786</speed>
  <fix>3d</fix>
</trkpt>
<trkpt lat="40.0720069" lon="-105.2298579">
  <ele>1583.0</ele>
  <time>2026-08-28T17:55:41Z</time>
  <course>293.49</course>
  <speed>1.93</speed>
  <fix>3d</fix>
</trkpt>
<trkpt lat="40.0720121" lon="-105.2298656">
  <ele>1583.02</ele>
  <time>2026-08-28T17:55:41Z</time>
  <course>335.2</course>
  <speed>2.1476731594914527</speed>
  <fix>3d</fix>
</trkpt>
<trkpt lat="40.0720088" lon="-105.2298618">
  <ele>1583.0</ele>
  <time>2026-08-28T17:55:41Z</time>
  <course>314.88</course>
  <speed>2.0</speed>
  <fix>3d</fix>
</trkpt>
<trkpt lat="40.072014" lon="-105.2298664">
  <ele>1583.02</ele>
  <time>2026-08-28T17:55:41Z</time>
  <course>343.4</course>
  <speed>2.18961183774659</speed>
  <fix>3d</fix>
</trkpt>
<trkpt lat="40.0720088" lon="-105.2298618">
  <ele>1583.0</ele>
  <time>2026-08-28T17:55:41Z</time>
  <course>314.88</course>
  <speed>2.0</speed>
  <fix>3d</fix>
</trkpt>
<trkpt lat="40.0720159" lon="-105.2298669">
  <ele>1583.03</ele>
  <time>2026-08-28T17:55:41Z</time>
  <course>350.57</course>
  <speed>2.248999777678957</speed>
  <fix>3d</fix>
</trkpt>
<trkpt lat="40.0720118" lon="-105.2298645">
  <ele>1583.0</ele>
  <time>2026-08-28T17:55:41Z</time>
  <course>334.08</course>
  <speed>2.09</speed>
  <fix>3d</fix>
</trkpt>
<trkpt lat="40.0720179" lon="-105.2298671">
  <ele>1583.03</ele>
  <time>2026-08-28T17:55:41Z</time>
  <course>356.69</course>
  <speed>2.32363938682404</speed>
  <fix>3d</fix>
</trkpt>
<trkpt lat="40.0720118" lon="-105.2298645">
  <ele>1583.0</ele>
  <time>2026-08-28T17:55:41Z</time>
  <course>334.08</course>
  <speed>2.09</speed>
  <fix>3d</fix>
</trkpt>
<trkpt lat="40.0720201" lon="-105.229867">
  <ele>1583.03</ele>
  <time>2026-08-28T17:55:41Z</time>
  <course>1.78</course>
  <speed>2.3910248848558644</speed>
  <fix>3d</fix>
</trkpt>
<trkpt lat="40.0720155" lon="-105.2298661">
  <ele>1583.0</ele>
  <time>2026-08-28T17:55:41Z</time>
  <course>349.37</course>
  <speed>2.22</speed>
  <fix>3d</fix>
</trkpt>
<trkpt lat="40.0720223" lon="-105.2298668">
  <ele>1583.03</ele>
  <time>2026-08-28T17:55:41Z</time>
  <course>5.76</course>
  <speed>2.472670621008791</speed>
  <fix>3d</fix>
</trkpt>
<trkpt lat="40.0720196" lon="-105.2298665">
  <ele>1583.0</ele>
  <time>2026-08-28T17:55:41Z</time>
  <course>0.46</course>
  <speed>2.37</speed>
  <fix>3d</fix>
</trkpt>
<trkpt lat="40.0720244" lon="-105.2298663">
  <ele>1583.04</ele>
  <time>2026-08-28T17:55:41Z</time>
  <course>12.07</course>
  <speed>2.3516164653276266</speed>
  <fix>3d</fix>
</trkpt>
<trkpt lat="40.0720196" lon="-105.2298665">
  <ele>1583.0</ele>
  <time>2026-08-28T17:55:41Z</time>
  <course>0.46</course>
  <speed>2.37</speed>
  <fix>3d</fix>
</trkpt>
<trkpt lat="40.0720264" lon="-105.2298656">
  <ele>1583.04</ele>
  <time>2026-08-28T17:55:41Z</time>
  <course>14.69</course>
  <speed>2.241093483101497</speed>
  <fix>3d</fix>
</trkpt>
<trkpt lat="40.0720237" lon="-105.2298659">
  <ele>1583.0</ele>
  <time>2026-08-28T17:55:41Z</time>
  <course>9.06</course>
  <speed>2.33</speed>
  <fix>3d</fix>
</trkpt>
<trkpt lat="40.0720283" lon="-105.2298649">
  <ele>1583.04</ele>
  <time>2026-08-28T17:55:41Z</time>
  <course>15.57</course>
  <speed>2.127768784431241</speed>
  <fix>3d</fix>
</trkpt>
<trkpt lat="40.0720237" lon="-105.2298659">
  <ele>1583.0</ele>
  <time>2026-08-28T17:55:41Z</time>
  <course>9.06</course>
  <speed>2.33</speed>
  <fix>3d</fix>
</trkpt>
<trkpt lat="40.0720301" lon="-105.2298642">
  <ele>1583.04</ele>
  <time>2026-08-28T17:55:41Z</time>
  <course>16.17</course>
  <speed>2.02881738951538</speed>
  <fix>3d</fix>
</trkpt>
<trkpt lat="40.0720277" lon="-105.2298649">
  <ele>1583.0</ele>
  <time>2026-08-28T17:55:41Z</time>
  <course>14.45</course>
  <speed>2.11</speed>
  <fix>3d</fix>
</trkpt>
<trkpt lat="40.0720318" lon="-105.2298636">
  <ele>1583.04</ele>
  <time>2026-08-28T17:55:41Z</time>
  <course>16.8</course>
  <speed>1.9300259065618783</speed>
  <fix>3d</fix>
</trkpt>
<trkpt lat="40.0720277" lon="-105.2298649">
  <ele>1583.0</ele>
  <time>2026-08-28T17:55:41Z</time>
  <course>14.45</course>
  <speed>2.11</speed>
  <fix>3d</fix>
</trkpt>
<trkpt lat="40.0720334" lon="-105.2298629">
  <ele>1583.05</ele>
  <time>2026-08-28T17:55:41Z</time>
  <course>17.36</course>
  <speed>1.831420213932346</speed>
  <fix>3d</fix>
</trkpt>
<trkpt lat="40.0720312" lon="-105.2298636">
  <ele>1583.0</ele>
  <time>2026-08-28T17:55:41Z</time>
  <course>15.78</course>
  <speed>1.91</speed>
  <fix>3d</fix>
</trkpt>
<trkpt lat="40.072035" lon="-105.2298623">
  <ele>1583.04</ele>
  <time>2026-08-28T17:55:41Z</time>
  <course>17.9</course>
  <speed>1.7425555945220228</speed>
  <fix>3d</fix>
</trkpt>
<trkpt lat="40.0720312" lon="-105.2298636">
  <ele>1583.0</ele>
  <time>2026-08-28T17:55:41Z</time>
  <course>15.78</course>
  <speed>1.91</speed>
  <fix>3d</fix>
</trkpt>
<trkpt lat="40.0720364" lon="-105.2298617">
  <ele>1583.05</ele>
  <time>2026-08-28T17:55:41Z</time>
  <course>18.38</course>
  <speed>1.6507574019219178</speed>
  <fix>3d</fix>
</trkpt>
<trkpt lat="40.0720343" lon="-105.2298625">
  <ele>1583.0</ele>
  <time>2026-08-28T17:55:41Z</time>
  <course>16.88</course>
  <speed>1.73</speed>
  <fix>3d</fix>
</trkpt>
<trkpt lat="40.0720378" lon="-105.2298611">
  <ele>1583.05</ele>
  <time>2026-08-28T17:55:41Z</time>
  <course>18.84</course>
  <speed>1.5716551784663197</speed>
  <fix>3d</fix>
</trkpt>
<trkpt lat="40.0720343" lon="-105.2298625">
  <ele>1583.0</ele>
  <time>2026-08-28T17:55:41Z</time>
  <course>16.88</course>
  <speed>1.73</speed>
  <fix>3d</fix>
</trkpt>
<trkpt lat="40.0720391" lon="-105.2298605">
  <ele>1583.05</ele>
  <time>2026-08-28T17:55:41Z</time>
  <course>19.28</course>
  <speed>1.4989329538041387</speed>
  <fix>3d</fix>
</trkpt>
<trkpt lat="40.0720371" lon="-105.2298613">
  <ele>1583.0</ele>
  <time>2026-08-28T17:55:41Z</time>
  <course>17.83</course>
  <speed>1.56</speed>
  <fix>3d</fix>
</trkpt>
<trkpt lat="40.0720403" lon="-105.2298599">
  <ele>1583.04</ele>
  <time>2026-08-28T17:55:41Z</time>
  <course>19.68</course>
  <speed>1.4200352108310554</speed>
  <fix>3d</fix>
</trkpt>
<trkpt lat="40.0720371" lon="-105.2298613">
  <ele>1583.0</ele>
  <time>2026-08-28T17:55:41Z</time>
  <course>17.83</course>
  <speed>1.56</speed>
  <fix>3d</fix>
</trkpt>
<trkpt lat="40.0720414" lon="-105.2298594">
  <ele>1583.04</ele>
  <time>2026-08-28T17:55:41Z</time>
  <course>20.06</course>
  <speed>1.3473678042761748</speed>
  <fix>3d</fix>
</trkpt>
<trkpt lat="40.0720397" lon="-105.2298602">
  <ele>1583.0</ele>
  <time>2026-08-28T17:55:41Z</time>
  <course>18.67</course>
  <speed>1.42</speed>
  <fix>3d</fix>
</trkpt>
<trkpt lat="40.0720425" lon="-105.2298589">
  <ele>1583.03</ele>
  <time>2026-08-28T17:55:41Z</time>
  <course>20.42</course>
  <speed>1.2841339493993607</speed>
  <fix>3d</fix>
</trkpt>
<trkpt lat="40.0720397" lon="-105.2298602">
  <ele>1583.0</ele>
  <time>2026-08-28T17:55:41Z</time>
  <course>18.67</course>
  <speed>1.42</speed>
  <fix>3d</fix>
</trkpt>
<trkpt lat="40.0720436" lon="-105.2298584">
  <ele>1583.03</ele>
  <time>2026-08-28T17:55:41Z</time>
  <course>20.77</course>
  <speed>1.2149074038789953</speed>
  <fix>3d</fix>
</trkpt>
<trkpt lat="40.0720397" lon="-105.2298602">
  <ele>1583.0</ele>
  <time>2026-08-28T17:55:41Z</time>
  <course>18.67</course>
  <speed>1.42</speed>
  <fix>3d</fix>
</trkpt>
<trkpt lat="40.0720445" lon="-105.2298579">
  <ele>1583.02</ele>
  <time>2026-08-28T17:55:41Z</time>
  <course>21.08</course>
  <speed>1.1516944039110375</speed>
  <fix>3d</fix>
</trkpt>
<trkpt lat="40.0720419" lon="-105.2298591">
  <ele>1583.0</ele>
  <time>2026-08-28T17:55:41Z</time>
  <course>19.41</course>
  <speed>1.28</speed>
  <fix>3d</fix>
</trkpt>
<trkpt lat="40.0720455" lon="-105.2298575">
  <ele>1583.02</ele>
  <time>2026-08-28T17:55:41Z</time>
  <course>21.38</course>
  <speed>1.0978615577567146</speed>
  <fix>3d</fix>
</trkpt>
<trkpt lat="40.0720419" lon="-105.2298591">
  <ele>1583.0</ele>
  <time>2026-08-28T17:55:41Z</time>
  <course>19.41</course>
  <speed>1.28</speed>
  <fix>3d</fix>
</trkpt>
<trkpt lat="40.0720463" lon="-105.2298571">
  <ele>1583.01</ele>
  <time>2026-08-28T17:55:41Z</time>
  <course>21.66</course>
  <speed>1.0381714694596456</speed>
  <fix>3d</fix>
</trkpt>
<trkpt lat="40.0720441" lon="-105.2298582">
  <ele>1583.0</ele>
  <time>2026-08-28T17:55:41Z</time>
  <course>20.06</course>
  <speed>1.16</speed>
  <fix>3d</fix>
</trkpt>
<trkpt lat="40.0720472" lon="-105.2298567">
  <ele>1583.0</ele>
  <time>2026-08-28T17:55:41Z</time>
  <course>21.92</course>
  <speed>0.9843271813782245</speed>
  <fix>3d</fix>
</trkpt>
<trkpt lat="40.0720441" lon="-105.2298582">
  <ele>1583.0</ele>
  <time>2026-08-28T17:55:41Z</time>
  <course>20.06</course>
  <speed>1.16</speed>
  <fix>3d</fix>
</trkpt>
<trkpt lat="40.072048" lon="-105.2298563">
  <ele>1583.0</ele>
  <time>2026-08-28T17:55:41Z</time>
  <course>22.18</course>
  <speed>0.9304837451562494</speed>
  <fix>3d</fix>
</trkpt>
<trkpt lat="40.0720459" lon="-105.2298573">
  <ele>1583.0</ele>
  <time>2026-08-28T17:55:41Z</time>
  <course>20.63</course>
  <speed>1.05</speed>
  <fix>3d</fix>
</trkpt>
<trkpt lat="40.0720487" lon="-105.2298559">
  <ele>1583.0</ele>
  <time>2026-08-28T17:55:41Z</time>
  <course>22.41</course>
  <speed>0.8895504482602434</speed>
  <fix>3d</fix>
</trkpt>
<trkpt lat="40.0720476" lon="-105.2298565">
  <ele>1583.0</ele>
  <time>2026-08-28T17:55:41Z</time>
  <course>21.15</course>
  <speed>0.95</speed>
  <fix>3d</fix>
</trkpt>
<trkpt lat="40.0720494" lon="-105.2298555">
  <ele>1582.99</ele>
  <time>2026-08-28T17:55:41Z</time>
  <course>22.63</course>
  <speed>0.8357032966310471</speed>
  <fix>3d</fix>
</trkpt>
<trkpt lat="40.0720476" lon="-105.2298565">
  <ele>1583.0</ele>
  <time>2026-08-28T17:55:41Z</time>
  <course>21.15</course>
  <speed>0.95</speed>
  <fix>3d</fix>
</trkpt>
<trkpt lat="40.0720501" lon="-105.2298552">
  <ele>1583.0</ele>
  <time>2026-08-28T17:55:41Z</time>
  <course>22.84</course>
  <speed>0.7947955712005447</speed>
  <fix>3d</fix>
</trkpt>
<trkpt lat="40.0720491" lon="-105.2298557">
  <ele>1583.0</ele>
  <time>2026-08-28T17:55:41Z</time>
  <course>21.6</course>
  <speed>0.86</speed>
  <fix>3d</fix>
</trkpt>
<trkpt lat="40.0720507" lon="-105.2298549">
  <ele>1583.0</ele>
  <time>2026-08-28T17:55:41Z</time>
  <course>23.03</course>
  <speed>0.7539230729988305</speed>
  <fix>3d</fix>
</trkpt>
<trkpt lat="40.0720491" lon="-105.2298557">
  <ele>1583.0</ele>
  <time>2026-08-28T17:55:41Z</time>
  <course>21.6</course>
  <speed>0.86</speed>
  <fix>3d</fix>
</trkpt>
<trkpt lat="40.0720513" lon="-105.2298545">
  <ele>1582.99</ele>
  <time>2026-08-28T17:55:41Z</time>
  <course>23.22</course>
  <speed>0.709365914038728</speed>
  <fix>3d</fix>
</trkpt>
<trkpt lat="40.0720505" lon="-105.229855">
  <ele>1583.0</ele>
  <time>2026-08-28T17:55:41Z</time>
  <course>22.0</course>
  <speed>0.77</speed>
  <fix>3d</fix>
</trkpt>
<trkpt lat="40.0720535" lon="-105.2298534">
  <ele>1583.0</ele>
  <time>2026-08-28T17:55:41Z</time>
  <course>23.87</course>
  <speed>0.570087712549569</speed>
  <fix>3d</fix>
</trkpt>
<trkpt lat="40.0720528" lon="-105.2298538">
  <ele>1583.0</ele>
  <time>2026-08-28T17:55:41Z</time>
  <course>22.68</course>
  <speed>0.63</speed>
  <fix>3d</fix>
</trkpt>
<trkpt lat="40.0720548" lon="-105.2298527">
  <ele>1583.0</ele>
  <time>2026-08-28T17:55:41Z</time>
  <course>24.27</course>
  <speed>0.48466483264210536</speed>
  <fix>3d</fix>
</trkpt>
<trkpt lat="40.0720538" lon="-105.2298531">
  <ele>1583.0</ele>
  <time>2026-08-28T17:55:41Z</time>
  <course>22.96</course>
  <speed>0.57</speed>
  <fix>3d</fix>
</trkpt>
<trkpt lat="40.0720552" lon="-105.2298525">
  <ele>1583.0</ele>
  <time>2026-08-28T17:55:41Z</time>
  <course>24.38</course>
  <speed>0.46238512086787564</speed>
  <fix>3d</fix>
</trkpt>
<trkpt lat="40.0720547" lon="-105.2298527">
  <ele>1583.0</ele>
  <time>2026-08-28T17:55:41Z</time>
  <course>23.21</course>
  <speed>0.52</speed>
  <fix>3d</fix>
</trkpt>
<trkpt lat="40.0720556" lon="-105.2298523">
  <ele>1583.0</ele>
  <time>2026-08-28T17:55:41Z</time>
  <course>24.5</course>
  <speed>0.4308131845707603</speed>
  <fix>3d</fix>
</trkpt>
<trkpt lat="40.0720547" lon="-105.2298527">
  <ele>1583.0</ele>
  <time>2026-08-28T17:55:41Z</time>
  <course>23.21</course>
  <speed>0.52</speed>
  <fix>3d</fix>
</trkpt>
<trkpt lat="40.072056" lon="-105.2298521">
  <ele>1582.99</ele>
  <time>2026-08-28T17:55:41Z</time>
  <course>24.61</course>
  <speed>0.41231056256176607</speed>
  <fix>3d</fix>
</trkpt>
<trkpt lat="40.0720547" lon="-105.2298527">
  <ele>1583.0</ele>
  <time>2026-08-28T17:55:41Z</time>
  <course>23.21</course>
  <speed>0.52</speed>
  <fix>3d</fix>
</trkpt>
<trkpt lat="40.0720563" lon="-105.2298519">
  <ele>1582.99</ele>
  <time>2026-08-28T17:55:41Z</time>
  <course>24.71</course>
  <speed>0.39</speed>
  <fix>3d</fix>
</trkpt>
<trkpt lat="40.0720556" lon="-105.2298522">
  <ele>1583.0</ele>
  <time>2026-08-28T17:55:41Z</time>
  <course>23.44</course>
  <speed>0.47</speed>
  <fix>3d</fix>
</trkpt>
<trkpt lat="40.0720569" lon="-105.2298515">
  <ele>1582.97</ele>
  <time>2026-08-28T17:55:41Z</time>
  <course>24.89</course>
  <speed>0.3453983207834109</speed>
  <fix>3d</fix>
</trkpt>
<trkpt lat="40.0720563" lon="-105.2298517">
  <ele>1583.0</ele>
  <time>2026-08-28T17:55:41Z</time>
  <course>23.65</course>
  <speed>0.42</speed>
  <fix>3d</fix>
</trkpt>
<trkpt lat="40.0720572" lon="-105.2298513">
  <ele>1582.96</ele>
  <time>2026-08-28T17:55:41Z</time>
  <course>24.98</course>
  <speed>0.3231098884280702</speed>
  <fix>3d</fix>
</trkpt>
<trkpt lat="40.0720563" lon="-105.2298517">
  <ele>1583.0</ele>
  <time>2026-08-28T17:55:41Z</time>
  <course>23.65</course>
  <speed>0.42</speed>
  <fix>3d</fix>
</trkpt>
<trkpt lat="40.0720575" lon="-105.2298512">
  <ele>1582.96</ele>
  <time>2026-08-28T17:55:41Z</time>
  <course>25.06</course>
  <speed>0.30463092423455634</speed>
  <fix>3d</fix>
</trkpt>
<trkpt lat="40.072057" lon="-105.2298514">
  <ele>1583.0</ele>
  <time>2026-08-28T17:55:41Z</time>
  <course>23.83</course>
  <speed>0.38</speed>
  <fix>3d</fix>
</trkpt>
<trkpt lat="40.0720578" lon="-105.229851">
  <ele>1582.96</ele>
  <time>2026-08-28T17:55:41Z</time>
  <course>25.13</course>
  <speed>0.291547594742265</speed>
  <fix>3d</fix>
</trkpt>
<trkpt lat="40.072057" lon="-105.2298514">
  <ele>1583.0</ele>
  <time>2026-08-28T17:55:41Z</time>
  <course>23.83</course>
  <speed>0.38</speed>
  <fix>3d</fix>
</trkpt>
<trkpt lat="40.072058" lon="-105.2298509">
  <ele>1582.96</ele>
  <time>2026-08-28T17:55:41Z</time>
  <course>25.21</course>
  <speed>0.27313000567495327</speed>
  <fix>3d</fix>
</trkpt>
<trkpt lat="40.0720575" lon="-105.229851">
  <ele>1583.0</ele>
  <time>2026-08-28T17:55:41Z</time>
  <course>23.99</course>
  <speed>0.35</speed>
  <fix>3d</fix>
</trkpt>
<trkpt lat="40.0720582" lon="-105.2298507">
  <ele>1582.96</ele>
  <time>2026-08-28T17:55:42Z</time>
  <course>25.28</course>
  <speed>0.25079872407968906</speed>
  <fix>3d</fix>
</trkpt>
<trkpt lat="40.0720581" lon="-105.2298507">
  <ele>1583.0</ele>
  <time>2026-08-28T17:55:42Z</time>
  <course>24.14</course>
  <speed>0.31</speed>
  <fix>3d</fix>
</trkpt>
<trkpt lat="40.0720585" lon="-105.2298506">
  <ele>1582.97</ele>
  <time>2026-08-28T17:55:42Z</time>
  <course>25.28</course>
  <speed>0.24166091947189144</speed>
  <fix>3d</fix>
</trkpt>
<trkpt lat="40.0720581" lon="-105.2298507">
  <ele>1583.0</ele>
  <time>2026-08-28T17:55:42Z</time>
  <course>24.14</course>
  <speed>0.31</speed>
  <fix>3d</fix>
</trkpt>
<trkpt lat="40.0720587" lon="-105.2298504">
  <ele>1582.97</ele>
  <time>2026-08-28T17:55:42Z</time>
  <course>25.34</course>
  <speed>0.22847319317591727</speed>
  <fix>3d</fix>
</trkpt>
<trkpt lat="40.0720586" lon="-105.2298504">
  <ele>1583.0</ele>
  <time>2026-08-28T17:55:42Z</time>
  <course>24.24</course>
  <speed>0.28</speed>
  <fix>3d</fix>
</trkpt>
<trkpt lat="40.0720589" lon="-105.2298503">
  <ele>1582.98</ele>
  <time>2026-08-28T17:55:42Z</time>
  <course>25.4</course>
  <speed>0.2102379604162864</speed>
  <fix>3d</fix>
</trkpt>
<trkpt lat="40.0720586" lon="-105.2298504">
  <ele>1583.0</ele>
  <time>2026-08-28T17:55:42Z</time>
  <course>24.24</course>
  <speed>0.28</speed>
  <fix>3d</fix>
</trkpt>
<trkpt lat="40.0720591" lon="-105.2298502">
  <ele>1582.98</ele>
  <time>2026-08-28T17:55:42Z</time>
  <course>25.45</course>
  <speed>0.19697715603592209</speed>
  <fix>3d</fix>
</trkpt>
<trkpt lat="40.0720591" lon="-105.2298501">
  <ele>1583.0</ele>
  <time>2026-08-28T17:55:42Z</time>
  <course>24.32</course>
  <speed>0.25</speed>
  <fix>3d</fix>
</trkpt>
<trkpt lat="40.0720593" lon="-105.2298501">
  <ele>1582.99</ele>
  <time>2026-08-28T17:55:42Z</time>
  <course>25.49</course>
  <speed>0.18788294228055935</speed>
  <fix>3d</fix>
</trkpt>
<trkpt lat="40.0720591" lon="-105.2298501">
  <ele>1583.0</ele>
  <time>2026-08-28T17:55:42Z</time>
  <course>24.32</course>
  <speed>0.25</speed>
  <fix>3d</fix>
</trkpt>
<trkpt lat="40.0720594" lon="-105.22985">
  <ele>1582.99</ele>
  <time>2026-08-28T17:55:42Z</time>
  <course>25.53</course>
  <speed>0.17464249196572978</speed>
  <fix>3d</fix>
</trkpt>
<trkpt lat="40.0720594" lon="-105.22985">
  <ele>1583.0</ele>
  <time>2026-08-28T17:55:42Z</time>
  <course>24.41</course>
  <speed>0.23</speed>
  <fix>3d</fix>
</trkpt>
<trkpt lat="40.0720596" lon="-105.2298499">
  <ele>1583.0</ele>
  <time>2026-08-28T17:55:42Z</time>
  <course>25.57</course>
  <speed>0.16552945357246848</speed>
  <fix>3d</fix>
</trkpt>
<trkpt lat="40.0720594" lon="-105.22985">
  <ele>1583.0</ele>
  <time>2026-08-28T17:55:42Z</time>
  <course>24.41</course>
  <speed>0.23</speed>
  <fix>3d</fix>
</trkpt>
<trkpt lat="40.0720598" lon="-105.2298498">
  <ele>1583.0</ele>
  <time>2026-08-28T17:55:42Z</time>
  <course>25.6</course>
  <speed>0.15652475842498528</speed>
  <fix>3d</fix>
</trkpt>
<trkpt lat="40.0720598" lon="-105.2298497">
  <ele>1583.0</ele>
  <time>2026-08-28T17:55:42Z</time>
  <course>24.48</course>
  <speed>0.21</speed>
  <fix>3d</fix>
</trkpt>
<trkpt lat="40.0720599" lon="-105.2298497">
  <ele>1583.0</ele>
  <time>2026-08-28T17:55:42Z</time>
  <course>25.63</course>
  <speed>0.14317821063276354</speed>
  <fix>3d</fix>
</trkpt>
<trkpt lat="40.0720598" lon="-105.2298497">
  <ele>1583.0</ele>
  <time>2026-08-28T17:55:42Z</time>
  <course>24.48</course>
  <speed>0.21</speed>
  <fix>3d</fix>
</trkpt>
<trkpt lat="40.07206" lon="-105.2298496">
  <ele>1583.0</ele>
  <time>2026-08-28T17:55:42Z</time>
  <course>25.66</course>
  <speed>0.1341640786499874</speed>
  <fix>3d</fix>
</trkpt>
<trkpt lat="40.0720601" lon="-105.2298496">
  <ele>1583.0</ele>
  <time>2026-08-28T17:55:42Z</time>
  <course>24.54</course>
  <speed>0.19</speed>
  <fix>3d</fix>
</trkpt>
<trkpt lat="40.0720602" lon="-105.2298495">
  <ele>1583.0</ele>
  <time>2026-08-28T17:55:42Z</time>
  <course>25.68</course>
  <speed>0.12529964086141668</speed>
  <fix>3d</fix>
</trkpt>
<trkpt lat="40.0720601" lon="-105.2298496">
  <ele>1583.0</ele>
  <time>2026-08-28T17:55:42Z</time>
  <course>24.54</course>
  <speed>0.19</speed>
  <fix>3d</fix>
</trkpt>
<trkpt lat="40.0720603" lon="-105.2298494">
  <ele>1583.01</ele>
  <time>2026-08-28T17:55:42Z</time>
  <course>25.7</course>
  <speed>0.1118033988749895</speed>
  <fix>3d</fix>
</trkpt>
<trkpt lat="40.0720604" lon="-105.2298494">
  <ele>1583.0</ele>
  <time>2026-08-28T17:55:42Z</time>
  <course>24.59</course>
  <speed>0.17</speed>
  <fix>3d</fix>
</trkpt>
<trkpt lat="40.0720604" lon="-105.2298493">
  <ele>1583.01</ele>
  <time>2026-08-28T17:55:42Z</time>
  <course>25.72</course>
  <speed>0.1118033988749895</speed>
  <fix>3d</fix>
</trkpt>
<trkpt lat="40.0720604" lon="-105.2298494">
  <ele>1583.0</ele>
  <time>2026-08-28T17:55:42Z</time>
  <course>24.59</course>
  <speed>0.17</speed>
  <fix>3d</fix>
</trkpt>
<trkpt lat="40.0720605" lon="-105.2298492">
  <ele>1583.01</ele>
  <time>2026-08-28T17:55:42Z</time>
  <course>25.74</course>
  <speed>0.10295630140987001</speed>
  <fix>3d</fix>
</trkpt>
<trkpt lat="40.0720604" lon="-105.2298494">
  <ele>1583.0</ele>
  <time>2026-08-28T17:55:42Z</time>
  <course>24.59</course>
  <speed>0.17</speed>
  <fix>3d</fix>
</trkpt>
<trkpt lat="40.0720607" lon="-105.2298492">
  <ele>1583.01</ele>
  <time>2026-08-28T17:55:42Z</time>
  <course>25.76</course>
  <speed>0.09433981132056603</speed>
  <fix>3d</fix>
</trkpt>
<trkpt lat="40.0720607" lon="-105.2298491">
  <ele>1583.0</ele>
  <time>2026-08-28T17:55:42Z</time>
  <course>24.62</course>
  <speed>0.15</speed>
  <fix>3d</fix>
</trkpt>
<trkpt lat="40.0720608" lon="-105.2298491">
  <ele>1583.01</ele>
  <time>2026-08-28T17:55:42Z</time>
  <course>25.77</course>
  <speed>0.09433981132056603</speed>
  <fix>3d</fix>
</trkpt>
<trkpt lat="40.0720607" lon="-105.2298491">
  <ele>1583.0</ele>
  <time>2026-08-28T17:55:42Z</time>
  <course>24.62</course>
  <speed>0.15</speed>
  <fix>3d</fix>
</trkpt>
<trkpt lat="40.0720609" lon="-105.229849">
  <ele>1583.01</ele>
  <time>2026-08-28T17:55:42Z</time>
  <course>25.79</course>
  <speed>0.08062257748298549</speed>
  <fix>3d</fix>
</trkpt>
<trkpt lat="40.072061" lon="-105.229849">
  <ele>1583.0</ele>
  <time>2026-08-28T17:55:42Z</time>
  <course>24.65</course>
  <speed>0.14</speed>
  <fix>3d</fix>
</trkpt>
<trkpt lat="40.0720609" lon="-105.229849">
  <ele>1583.01</ele>
  <time>2026-08-28T17:55:42Z</time>
  <course>25.8</course>
  <speed>0.07211102550927978</speed>
  <fix>3d</fix>
</trkpt>
<trkpt lat="40.072061" lon="-105.229849">
  <ele>1583.0</ele>
  <time>2026-08-28T17:55:42Z</time>
  <course>24.65</course>
  <speed>0.14</speed>
  <fix>3d</fix>
</trkpt>
<trkpt lat="40.072061" lon="-105.2298489">
  <ele>1583.01</ele>
  <time>2026-08-28T17:55:42Z</time>
  <course>25.81</course>
  <speed>0.07211102550927978</speed>
  <fix>3d</fix>
</trkpt>
<trkpt lat="40.0720612" lon="-105.2298489">
  <ele>1583.0</ele>
  <time>2026-08-28T17:55:42Z</time>
  <course>24.68</course>
  <speed>0.12</speed>
  <fix>3d</fix>
</trkpt>
<trkpt lat="40.0720611" lon="-105.2298488">
  <ele>1583.01</ele>
  <time>2026-08-28T17:55:42Z</time>
  <course>25.82</course>
  <speed>0.06403124237432849</speed>
  <fix>3d</fix>
</trkpt>
<trkpt lat="40.0720613" lon="-105.2298488">
  <ele>1583.0</ele>
  <time>2026-08-28T17:55:42Z</time>
  <course>24.7</course>
  <speed>0.11</speed>
  <fix>3d</fix>
</trkpt>
<trkpt lat="40.0720612" lon="-105.2298488">
  <ele>1583.01</ele>
  <time>2026-08-28T17:55:42Z</time>
  <course>25.83</course>
  <speed>0.06403124237432849</speed>
  <fix>3d</fix>
</trkpt>
<trkpt lat="40.0720613" lon="-105.2298488">
  <ele>1583.0</ele>
  <time>2026-08-28T17:55:42Z</time>
  <course>24.7</course>
  <speed>0.11</speed>
  <fix>3d</fix>
</trkpt>
<trkpt lat="40.0720613" lon="-105.2298487">
  <ele>1583.01</ele>
  <time>2026-08-28T17:55:42Z</time>
  <course>25.84</course>
  <speed>0.0565685424949238</speed>
  <fix>3d</fix>
</trkpt>
<trkpt lat="40.0720616" lon="-105.2298487">
  <ele>1583.0</ele>
  <time>2026-08-28T17:55:42Z</time>
  <course>24.71</course>
  <speed>0.1</speed>
  <fix>3d</fix>
</trkpt>
<trkpt lat="40.0720614" lon="-105.2298487">
  <ele>1583.01</ele>
  <time>2026-08-28T17:55:42Z</time>
  <course>25.85</course>
  <speed>0.0565685424949238</speed>
  <fix>3d</fix>
</trkpt>
<trkpt lat="40.0720616" lon="-105.2298487">
  <ele>1583.0</ele>
  <time>2026-08-28T17:55:42Z</time>
  <course>24.71</course>
  <speed>0.1</speed>
  <fix>3d</fix>
</trkpt>
<trkpt lat="40.0720614" lon="-105.2298486">
  <ele>1583.01</ele>
  <time>2026-08-28T17:55:42Z</time>
  <course>25.86</course>
  <speed>0.0565685424949238</speed>
  <fix>3d</fix>
</trkpt>
<trkpt lat="40.0720617" lon="-105.2298486">
  <ele>1583.0</ele>
  <time>2026-08-28T17:55:42Z</time>
  <course>24.72</course>
  <speed>0.09</speed>
  <fix>3d</fix>
</trkpt>
<trkpt lat="40.0720615" lon="-105.2298486">
  <ele>1583.01</ele>
  <time>2026-08-28T17:55:42Z</time>
  <course>25.86</course>
  <speed>0.04242640687119285</speed>
  <fix>3d</fix>
</trkpt>
<trkpt lat="40.0720617" lon="-105.2298486">
  <ele>1583.0</ele>
  <time>2026-08-28T17:55:42Z</time>
  <course>24.72</course>
  <speed>0.09</speed>
  <fix>3d</fix>
</trkpt>
<trkpt lat="40.0720616" lon="-105.2298485">
  <ele>1583.01</ele>
  <time>2026-08-28T17:55:42Z</time>
  <course>25.87</course>
  <speed>0.04242640687119285</speed>
  <fix>3d</fix>
</trkpt>
<trkpt lat="40.0720618" lon="-105.2298485">
  <ele>1583.0</ele>
  <time>2026-08-28T17:55:42Z</time>
  <course>24.73</course>
  <speed>0.08</speed>
  <fix>3d</fix>
</trkpt>
<trkpt lat="40.0720616" lon="-105.2298485">
  <ele>1583.01</ele>
  <time>2026-08-28T17:55:42Z</time>
  <course>25.88</course>
  <speed>0.03605551275463989</speed>
  <fix>3d</fix>
</trkpt>
<trkpt lat="40.0720618" lon="-105.2298485">
  <ele>1583.0</ele>
  <time>2026-08-28T17:55:42Z</time>
  <course>24.73</course>
  <speed>0.08</speed>
  <fix>3d</fix>
</trkpt>
<trkpt lat="40.0720617" lon="-105.2298484">
  <ele>1583.01</ele>
  <time>2026-08-28T17:55:42Z</time>
  <course>25.88</course>
  <speed>0.03605551275463989</speed>
  <fix>3d</fix>
</trkpt>
<trkpt lat="40.072062" lon="-105.2298484">
  <ele>1583.0</ele>
  <time>2026-08-28T17:55:42Z</time>
  <course>24.74</course>
  <speed>0.07</speed>
  <fix>3d</fix>
</trkpt>
<trkpt lat="40.0720618" lon="-105.2298484">
  <ele>1583.01</ele>
  <time>2026-08-28T17:55:42Z</time>
  <course>25.89</course>
  <speed>0.03605551275463989</speed>
  <fix>3d</fix>
</trkpt>
<trkpt lat="40.072062" lon="-105.2298484">
  <ele>1583.0</ele>
  <time>2026-08-28T17:55:42Z</time>
  <course>24.74</course>
  <speed>0.07</speed>
  <fix>3d</fix>
</trkpt>
<trkpt lat="40.0720618" lon="-105.2298483">
  <ele>1583.01</ele>
  <time>2026-08-28T17:55:42Z</time>
  <course>25.89</course>
  <speed>0.0316227766016838</speed>
  <fix>3d</fix>
</trkpt>
<trkpt lat="40.0720621" lon="-105.2298483">
  <ele>1583.0</ele>
  <time>2026-08-28T17:55:42Z</time>
  <course>24.74</course>
  <speed>0.07</speed>
  <fix>3d</fix>
</trkpt>
<trkpt lat="40.0720619" lon="-105.2298483">
  <ele>1583.0</ele>
  <time>2026-08-28T17:55:42Z</time>
  <course>25.89</course>
  <speed>0.0316227766016838</speed>
  <fix>3d</fix>
</trkpt>
<trkpt lat="40.0720621" lon="-105.2298483">
  <ele>1583.0</ele>
  <time>2026-08-28T17:55:42Z</time>
  <course>24.74</course>
  <speed>0.07</speed>
  <fix>3d</fix>
</trkpt>
<trkpt lat="40.0720619" lon="-105.2298482">
  <ele>1583.0</ele>
  <time>2026-08-28T17:55:42Z</time>
  <course>25.9</course>
  <speed>0.0316227766016838</speed>
  <fix>3d</fix>
</trkpt>
<trkpt lat="40.0720622" lon="-105.2298483">
  <ele>1583.0</ele>
  <time>2026-08-28T17:55:42Z</time>
  <course>24.75</course>
  <speed>0.06</speed>
  <fix>3d</fix>
</trkpt>
<trkpt lat="40.0720621" lon="-105.2298481">
  <ele>1583.0</ele>
  <time>2026-08-28T17:55:42Z</time>
  <course>25.91</course>
  <speed>0.03</speed>
  <fix>3d</fix>
</trkpt>
<trkpt lat="40.0720623" lon="-105.2298482">
  <ele>1583.0</ele>
  <time>2026-08-28T17:55:42Z</time>
  <course>24.75</course>
  <speed>0.05</speed>
  <fix>3d</fix>
</trkpt>
<trkpt lat="40.0720622" lon="-105.229848">
  <ele>1582.99</ele>
  <time>2026-08-28T17:55:42Z</time>
  <course>25.92</course>
  <speed>0.03</speed>
  <fix>3d</fix>
</trkpt>
<trkpt lat="40.0720625" lon="-105.2298481">
  <ele>1583.0</ele>
  <time>2026-08-28T17:55:42Z</time>
  <course>24.75</course>
  <speed>0.04</speed>
  <fix>3d</fix>
</trkpt>
<trkpt lat="40.0720622" lon="-105.229848">
  <ele>1582.99</ele>
  <time>2026-08-28T17:55:42Z</time>
  <course>25.92</course>
  <speed>0.03</speed>
  <fix>3d</fix>
</trkpt>
<trkpt lat="40.0720626" lon="-105.2298481">
  <ele>1583.0</ele>
  <time>2026-08-28T17:55:42Z</time>
  <course>24.75</course>
  <speed>0.04</speed>
  <fix>3d</fix>
</trkpt>
<trkpt lat="40.0720623" lon="-105.229848">
  <ele>1582.99</ele>
  <time>2026-08-28T17:55:42Z</time>
  <course>25.92</course>
  <speed>0.03</speed>
  <fix>3d</fix>
</trkpt>
<trkpt lat="40.0720626" lon="-105.2298481">
  <ele>1583.0</ele>
  <time>2026-08-28T17:55:42Z</time>
  <course>24.75</course>
  <speed>0.04</speed>
  <fix>3d</fix>
</trkpt>
<trkpt lat="40.0720623" lon="-105.2298479">
  <ele>1582.99</ele>
  <time>2026-08-28T17:55:42Z</time>
  <course>25.92</course>
  <speed>0.03</speed>
  <fix>3d</fix>
</trkpt>
<trkpt lat="40.0720626" lon="-105.229848">
  <ele>1583.0</ele>
  <time>2026-08-28T17:55:42Z</time>
  <course>24.75</course>
  <speed>0.03</speed>
  <fix>3d</fix>
</trkpt>
<trkpt lat="40.0720623" lon="-105.2298479">
  <ele>1582.99</ele>
  <time>2026-08-28T17:55:42Z</time>
  <course>25.92</course>
  <speed>0.03</speed>
  <fix>3d</fix>
</trkpt>
<trkpt lat="40.0720626" lon="-105.229848">
  <ele>1583.0</ele>
  <time>2026-08-28T17:55:42Z</time>
  <course>24.75</course>
  <speed>0.03</speed>
  <fix>3d</fix>
</trkpt>
<trkpt lat="40.0720624" lon="-105.2298479">
  <ele>1582.99</ele>
  <time>2026-08-28T17:55:42Z</time>
  <course>25.93</course>
  <speed>0.03</speed>
  <fix>3d</fix>
</trkpt>
<trkpt lat="40.0720627" lon="-105.2298479">
  <ele>1583.0</ele>
  <time>2026-08-28T17:55:42Z</time>
  <course>24.75</course>
  <speed>0.03</speed>
  <fix>3d</fix>
</trkpt>
<trkpt lat="40.0720624" lon="-105.2298478">
  <ele>1582.98</ele>
  <time>2026-08-28T17:55:42Z</time>
  <course>25.93</course>
  <speed>0.03</speed>
  <fix>3d</fix>
</trkpt>
<trkpt lat="40.0720628" lon="-105.2298479">
  <ele>1583.0</ele>
  <time>2026-08-28T17:55:42Z</time>
  <course>24.75</course>
  <speed>0.03</speed>
  <fix>3d</fix>
</trkpt>
<trkpt lat="40.0720624" lon="-105.2298478">
  <ele>1582.99</ele>
  <time>2026-08-28T17:55:42Z</time>
  <course>25.93</course>
  <speed>0.022360679774997897</speed>
  <fix>3d</fix>
</trkpt>
<trkpt lat="40.0720628" lon="-105.2298479">
  <ele>1583.0</ele>
  <time>2026-08-28T17:55:42Z</time>
  <course>24.75</course>
  <speed>0.03</speed>
  <fix>3d</fix>
</trkpt>
<trkpt lat="40.0720625" lon="-105.2298478">
  <ele>1582.99</ele>
  <time>2026-08-28T17:55:42Z</time>
  <course>25.93</course>
  <speed>0.022360679774997897</speed>
  <fix>3d</fix>
</trkpt>
<trkpt lat="40.0720628" lon="-105.2298479">
  <ele>1583.0</ele>
  <time>2026-08-28T17:55:42Z</time>
  <course>24.75</course>
  <speed>0.02</speed>
  <fix>3d</fix>
</trkpt>
<trkpt lat="40.0720625" lon="-105.2298478">
  <ele>1582.98</ele>
  <time>2026-08-28T17:55:42Z</time>
  <course>25.93</course>
  <speed>0.022360679774997897</speed>
  <fix>3d</fix>
</trkpt>
<trkpt lat="40.0720628" lon="-105.2298479">
  <ele>1583.0</ele>
  <time>2026-08-28T17:55:42Z</time>
  <course>24.75</course>
  <speed>0.02</speed>
  <fix>3d</fix>
</trkpt>
<trkpt lat="40.0720625" lon="-105.2298478">
  <ele>1582.98</ele>
  <time>2026-08-28T17:55:42Z</time>
  <course>25.93</course>
  <speed>0.022360679774997897</speed>
  <fix>3d</fix>
</trkpt>
<trkpt lat="40.0720629" lon="-105.2298479">
  <ele>1583.0</ele>
  <time>2026-08-28T17:55:42Z</time>
  <course>24.75</course>
  <speed>0.02</speed>
  <fix>3d</fix>
</trkpt>
<trkpt lat="40.0720626" lon="-105.2298477">
  <ele>1582.98</ele>
  <time>2026-08-28T17:55:42Z</time>
  <course>25.93</course>
  <speed>0.022360679774997897</speed>
  <fix>3d</fix>
</trkpt>
<trkpt lat="40.0720629" lon="-105.2298479">
  <ele>1583.0</ele>
  <time>2026-08-28T17:55:42Z</time>
  <course>24.75</course>
  <speed>0.02</speed>
  <fix>3d</fix>
</trkpt>
<trkpt lat="40.0720626" lon="-105.2298477">
  <ele>1582.98</ele>
  <time>2026-08-28T17:55:42Z</time>
  <course>25.93</course>
  <speed>0.022360679774997897</speed>
  <fix>3d</fix>
</trkpt>
<trkpt lat="40.0720626" lon="-105.2298477">
  <ele>1582.98</ele>
  <time>2026-08-28T17:55:42Z</time>
  <course>25.93</course>
  <speed>0.022360679774997897</speed>
  <fix>3d</fix>
</trkpt>
<trkpt lat="40.0720629" lon="-105.2298479">
  <ele>1583.0</ele>
  <time>2026-08-28T17:55:42Z</time>
  <course>24.75</course>
  <speed>0.02</speed>
  <fix>3d</fix>
</trkpt>
<trkpt lat="40.0720626" lon="-105.2298477">
  <ele>1582.98</ele>
  <time>2026-08-28T17:55:42Z</time>
  <course>25.94</course>
  <speed>0.022360679774997897</speed>
  <fix>3d</fix>
</trkpt>
<trkpt lat="40.0720629" lon="-105.2298479">
  <ele>1583.0</ele>
  <time>2026-08-28T17:55:42Z</time>
  <course>24.75</course>
  <speed>0.02</speed>
  <fix>3d</fix>
</trkpt>
<trkpt lat="40.0720626" lon="-105.2298477">
  <ele>1582.98</ele>
  <time>2026-08-28T17:55:42Z</time>
  <course>25.94</course>
  <speed>0.022360679774997897</speed>
  <fix>3d</fix>
</trkpt>
<trkpt lat="40.072063" lon="-105.2298479">
  <ele>1583.0</ele>
  <time>2026-08-28T17:55:42Z</time>
  <course>24.75</course>
  <speed>0.02</speed>
  <fix>3d</fix>
</trkpt>
<trkpt lat="40.0720627" lon="-105.2298477">
  <ele>1582.98</ele>
  <time>2026-08-28T17:55:42Z</time>
  <course>25.94</course>
  <speed>0.022360679774997897</speed>
  <fix>3d</fix>
</trkpt>
<trkpt lat="40.072063" lon="-105.2298479">
  <ele>1583.0</ele>
  <time>2026-08-28T17:55:42Z</time>
  <course>24.75</course>
  <speed>0.01</speed>
  <fix>3d</fix>
</trkpt>
<trkpt lat="40.0720627" lon="-105.2298477">
  <ele>1582.98</ele>
  <time>2026-08-28T17:55:42Z</time>
  <course>25.94</course>
  <speed>0.022360679774997897</speed>
  <fix>3d</fix>
</trkpt>
<trkpt lat="40.072063" lon="-105.2298479">
  <ele>1583.0</ele>
  <time>2026-08-28T17:55:42Z</time>
  <course>24.75</course>
  <speed>0.01</speed>
  <fix>3d</fix>
</trkpt>
<trkpt lat="40.0720627" lon="-105.2298477">
  <ele>1582.98</ele>
  <time>2026-08-28T17:55:42Z</time>
  <course>25.94</course>
  <speed>0.022360679774997897</speed>
  <fix>3d</fix>
</trkpt>
<trkpt lat="40.072063" lon="-105.2298478">
  <ele>1583.0</ele>
  <time>2026-08-28T17:55:42Z</time>
  <course>24.75</course>
  <speed>0.01</speed>
  <fix>3d</fix>
</trkpt>
<trkpt lat="40.0720627" lon="-105.2298477">
  <ele>1582.97</ele>
  <time>2026-08-28T17:55:42Z</time>
  <course>25.94</course>
  <speed>0.022360679774997897</speed>
  <fix>3d</fix>
</trkpt>
<trkpt lat="40.072063" lon="-105.2298478">
  <ele>1583.0</ele>
  <time>2026-08-28T17:55:42Z</time>
  <course>24.75</course>
  <speed>0.01</speed>
  <fix>3d</fix>
</trkpt>
<trkpt lat="40.0720627" lon="-105.2298477">
  <ele>1582.97</ele>
  <time>2026-08-28T17:55:42Z</time>
  <course>25.95</course>
  <speed>0.022360679774997897</speed>
  <fix>3d</fix>
</trkpt>
<trkpt lat="40.0720631" lon="-105.2298478">
  <ele>1583.0</ele>
  <time>2026-08-28T17:55:42Z</time>
  <course>24.75</course>
  <speed>0.01</speed>
  <fix>3d</fix>
</trkpt>
<trkpt lat="40.0720628" lon="-105.2298476">
  <ele>1582.97</ele>
  <time>2026-08-28T17:55:42Z</time>
  <course>25.95</course>
  <speed>0.022360679774997897</speed>
  <fix>3d</fix>
</trkpt>
<trkpt lat="40.0720631" lon="-105.2298478">
  <ele>1583.0</ele>
  <time>2026-08-28T17:55:42Z</time>
  <course>24.75</course>
  <speed>0.01</speed>
  <fix>3d</fix>
</trkpt>
<trkpt lat="40.0720628" lon="-105.2298476">
  <ele>1582.97</ele>
  <time>2026-08-28T17:55:42Z</time>
  <course>25.95</course>
  <speed>0.022360679774997897</speed>
  <fix>3d</fix>
</trkpt>
<trkpt lat="40.0720631" lon="-105.2298478">
  <ele>1583.0</ele>
  <time>2026-08-28T17:55:42Z</time>
  <course>24.75</course>
  <speed>0.01</speed>
  <fix>3d</fix>
</trkpt>
<trkpt lat="40.0720628" lon="-105.2298476">
  <ele>1582.97</ele>
  <time>2026-08-28T17:55:42Z</time>
  <course>25.95</course>
  <speed>0.022360679774997897</speed>
  <fix>3d</fix>
</trkpt>
<trkpt lat="40.0720631" lon="-105.2298478">
  <ele>1583.0</ele>
  <time>2026-08-28T17:55:42Z</time>
  <course>24.75</course>
  <speed>0.01</speed>
  <fix>3d</fix>
</trkpt>
<trkpt lat="40.0720628" lon="-105.2298476">
  <ele>1582.97</ele>
  <time>2026-08-28T17:55:42Z</time>
  <course>25.95</course>
  <speed>0.022360679774997897</speed>
  <fix>3d</fix>
</trkpt>
<trkpt lat="40.0720631" lon="-105.2298478">
  <ele>1583.0</ele>
  <time>2026-08-28T17:55:42Z</time>
  <course>24.75</course>
  <speed>0.01</speed>
  <fix>3d</fix>
</trkpt>
<trkpt lat="40.0720628" lon="-105.2298476">
  <ele>1582.97</ele>
  <time>2026-08-28T17:55:42Z</time>
  <course>25.95</course>
  <speed>0.022360679774997897</speed>
  <fix>3d</fix>
</trkpt>
<trkpt lat="40.0720631" lon="-105.2298478">
  <ele>1583.0</ele>
  <time>2026-08-28T17:55:42Z</time>
  <course>24.75</course>
  <speed>0.01</speed>
  <fix>3d</fix>
</trkpt>
<trkpt lat="40.0720628" lon="-105.2298476">
  <ele>1582.97</ele>
  <time>2026-08-28T17:55:42Z</time>
  <course>25.95</course>
  <speed>0.022360679774997897</speed>
  <fix>3d</fix>
</trkpt>
<trkpt lat="40.0720631" lon="-105.2298478">
  <ele>1583.0</ele>
  <time>2026-08-28T17:55:42Z</time>
  <course>24.76</course>
  <speed>0.01</speed>
  <fix>3d</fix>
</trkpt>
<trkpt lat="40.0720628" lon="-105.2298476">
  <ele>1582.97</ele>
  <time>2026-08-28T17:55:42Z</time>
  <course>25.95</course>
  <speed>0.022360679774997897</speed>
  <fix>3d</fix>
</trkpt>
<trkpt lat="40.0720631" lon="-105.2298478">
  <ele>1583.0</ele>
  <time>2026-08-28T17:55:42Z</time>
  <course>24.76</course>
  <speed>0.01</speed>
  <fix>3d</fix>
</trkpt>
<trkpt lat="40.0720629" lon="-105.2298476">
  <ele>1582.98</ele>
  <time>2026-08-28T17:55:42Z</time>
  <course>25.95</course>
  <speed>0.0282842712474619</speed>
  <fix>3d</fix>
</trkpt>
<trkpt lat="40.0720631" lon="-105.2298478">
  <ele>1583.0</ele>
  <time>2026-08-28T17:55:42Z</time>
  <course>24.76</course>
  <speed>0.01</speed>
  <fix>3d</fix>
</trkpt>
<trkpt lat="40.0720629" lon="-105.2298476">
  <ele>1582.97</ele>
  <time>2026-08-28T17:55:42Z</time>
  <course>25.95</course>
  <speed>0.0282842712474619</speed>
  <fix>3d</fix>
</trkpt>
<trkpt lat="40.0720631" lon="-105.2298478">
  <ele>1583.0</ele>
  <time>2026-08-28T17:55:42Z</time>
  <course>24.76</course>
  <speed>0.01</speed>
  <fix>3d</fix>
</trkpt>
<trkpt lat="40.0720629" lon="-105.2298476">
  <ele>1582.97</ele>
  <time>2026-08-28T17:55:42Z</time>
  <course>25.96</course>
  <speed>0.0282842712474619</speed>
  <fix>3d</fix>
</trkpt>
<trkpt lat="40.0720631" lon="-105.2298478">
  <ele>1583.0</ele>
  <time>2026-08-28T17:55:42Z</time>
  <course>24.76</course>
  <speed>0.0</speed>
  <fix>3d</fix>
</trkpt>
<trkpt lat="40.0720629" lon="-105.2298476">
  <ele>1582.97</ele>
  <time>2026-08-28T17:55:42Z</time>
  <course>25.96</course>
  <speed>0.0282842712474619</speed>
  <fix>3d</fix>
</trkpt>
<trkpt lat="40.0720631" lon="-105.2298478">
  <ele>1583.0</ele>
  <time>2026-08-28T17:55:42Z</time>
  <course>24.76</course>
  <speed>0.0</speed>
  <fix>3d</fix>
</trkpt>
<trkpt lat="40.0720629" lon="-105.2298476">
  <ele>1582.97</ele>
  <time>2026-08-28T17:55:42Z</time>
  <course>25.96</course>
  <speed>0.0282842712474619</speed>
  <fix>3d</fix>
</trkpt>
<trkpt lat="40.0720631" lon="-105.2298478">
  <ele>1583.0</ele>
  <time>2026-08-28T17:55:42Z</time>
  <course>24.76</course>
  <speed>0.0</speed>
  <fix>3d</fix>
</trkpt>
<trkpt lat="40.0720629" lon="-105.2298476">
  <ele>1582.97</ele>
  <time>2026-08-28T17:55:42Z</time>
  <course>25.96</course>
  <speed>0.0282842712474619</speed>
  <fix>3d</fix>
</trkpt>
<trkpt lat="40.0720631" lon="-105.2298478">
  <ele>1583.0</ele>
  <time>2026-08-28T17:55:42Z</time>
  <course>24.76</course>
  <speed>0.0</speed>
  <fix>3d</fix>
</trkpt>
<trkpt lat="40.0720629" lon="-105.2298476">
  <ele>1582.97</ele>
  <time>2026-08-28T17:55:42Z</time>
  <course>25.96</course>
  <speed>0.0282842712474619</speed>
  <fix>3d</fix>
</trkpt>
<trkpt lat="40.0720631" lon="-105.2298478">
  <ele>1583.0</ele>
  <time>2026-08-28T17:55:42Z</time>
  <course>24.76</course>
  <speed>0.0</speed>
  <fix>3d</fix>
</trkpt>
<trkpt lat="40.0720629" lon="-105.2298476">
  <ele>1582.97</ele>
  <time>2026-08-28T17:55:42Z</time>
  <course>25.96</course>
  <speed>0.0282842712474619</speed>
  <fix>3d</fix>
</trkpt>
<trkpt lat="40.0720631" lon="-105.2298478">
  <ele>1583.0</ele>
  <time>2026-08-28T17:55:42Z</time>
  <course>24.76</course>
  <speed>0.0</speed>
  <fix>3d</fix>
</trkpt>
<trkpt lat="40.0720629" lon="-105.2298476">
  <ele>1582.97</ele>
  <time>2026-08-28T17:55:42Z</time>
  <course>25.96</course>
  <speed>0.0282842712474619</speed>
  <fix>3d</fix>
</trkpt>
<trkpt lat="40.0720631" lon="-105.2298477">
  <ele>1583.0</ele>
  <time>2026-08-28T17:55:42Z</time>
  <course>24.77</course>
  <speed>0.0</speed>
  <fix>3d</fix>
</trkpt>
<trkpt lat="40.0720629" lon="-105.2298476">
  <ele>1582.97</ele>
  <time>2026-08-28T17:55:42Z</time>
  <course>25.96</course>
  <speed>0.022360679774997897</speed>
  <fix>3d</fix>
</trkpt>
<trkpt lat="40.0720631" lon="-105.2298477">
  <ele>1583.0</ele>
  <time>2026-08-28T17:55:42Z</time>
  <course>24.77</course>
  <speed>0.0</speed>
  <fix>3d</fix>
</trkpt>
<trkpt lat="40.0720629" lon="-105.2298476">
  <ele>1582.96</ele>
  <time>2026-08-28T17:55:42Z</time>
  <course>25.96</course>
  <speed>0.022360679774997897</speed>
  <fix>3d</fix>
</trkpt>
<trkpt lat="40.0720631" lon="-105.2298476">
  <ele>1583.0</ele>
  <time>2026-08-28T17:55:42Z</time>
  <course>24.77</course>
  <speed>0.0</speed>
  <fix>3d</fix>
</trkpt>
<trkpt lat="40.0720629" lon="-105.2298476">
  <ele>1582.96</ele>
  <time>2026-08-28T17:55:42Z</time>
  <course>25.96</course>
  <speed>0.022360679774997897</speed>
  <fix>3d</fix>
</trkpt>
<trkpt lat="40.0720631" lon="-105.2298476">
  <ele>1583.0</ele>
  <time>2026-08-28T17:55:42Z</time>
  <course>24.77</course>
  <speed>0.0</speed>
  <fix>3d</fix>
</trkpt>
<trkpt lat="40.0720629" lon="-105.2298476">
  <ele>1582.96</ele>
  <time>2026-08-28T17:55:42Z</time>
  <course>25.97</course>
  <speed>0.022360679774997897</speed>
  <fix>3d</fix>
</trkpt>
<trkpt lat="40.0720631" lon="-105.2298476">
  <ele>1583.0</ele>
  <time>2026-08-28T17:55:42Z</time>
  <course>24.77</course>
  <speed>0.0</speed>
  <fix>3d</fix>
</trkpt>
<trkpt lat="40.0720629" lon="-105.2298476">
  <ele>1582.95</ele>
  <time>2026-08-28T17:55:42Z</time>
  <course>25.97</course>
  <speed>0.022360679774997897</speed>
  <fix>3d</fix>
</trkpt>
<trkpt lat="40.0720631" lon="-105.2298476">
  <ele>1583.0</ele>
  <time>2026-08-28T17:55:42Z</time>
  <course>24.77</course>
  <speed>0.0</speed>
  <fix>3d</fix>
</trkpt>
<trkpt lat="40.0720629" lon="-105.2298476">
  <ele>1582.95</ele>
  <time>2026-08-28T17:55:42Z</time>
  <course>25.97</course>
  <speed>0.0282842712474619</speed>
  <fix>3d</fix>
</trkpt>
<trkpt lat="40.0720631" lon="-105.2298476">
  <ele>1583.0</ele>
  <time>2026-08-28T17:55:42Z</time>
  <course>24.78</course>
  <speed>0.0</speed>
  <fix>3d</fix>
</trkpt>
<trkpt lat="40.0720629" lon="-105.2298476">
  <ele>1582.94</ele>
  <time>2026-08-28T17:55:42Z</time>
  <course>25.97</course>
  <speed>0.0282842712474619</speed>
  <fix>3d</fix>
</trkpt>
<trkpt lat="40.0720631" lon="-105.2298476">
  <ele>1583.0</ele>
  <time>2026-08-28T17:55:42Z</time>
  <course>24.78</course>
  <speed>0.0</speed>
  <fix>3d</fix>
</trkpt>
<trkpt lat="40.0720629" lon="-105.2298475">
  <ele>1582.94</ele>
  <time>2026-08-28T17:55:42Z</time>
  <course>25.97</course>
  <speed>0.0282842712474619</speed>
  <fix>3d</fix>
</trkpt>
<trkpt lat="40.0720631" lon="-105.2298476">
  <ele>1583.0</ele>
  <time>2026-08-28T17:55:42Z</time>
  <course>24.78</course>
  <speed>0.0</speed>
  <fix>3d</fix>
</trkpt>
<trkpt lat="40.0720629" lon="-105.2298475">
  <ele>1582.94</ele>
  <time>2026-08-28T17:55:42Z</time>
  <course>25.97</course>
  <speed>0.0282842712474619</speed>
  <fix>3d</fix>
</trkpt>
<trkpt lat="40.0720631" lon="-105.2298476">
  <ele>1583.0</ele>
  <time>2026-08-28T17:55:42Z</time>
  <course>24.78</course>
  <speed>0.0</speed>
  <fix>3d</fix>
</trkpt>
<trkpt lat="40.0720629" lon="-105.2298475">
  <ele>1582.93</ele>
  <time>2026-08-28T17:55:42Z</time>
  <course>25.97</course>
  <speed>0.0282842712474619</speed>
  <fix>3d</fix>
</trkpt>
<trkpt lat="40.0720632" lon="-105.2298476">
  <ele>1583.0</ele>
  <time>2026-08-28T17:55:42Z</time>
  <course>24.79</course>
  <speed>0.0</speed>
  <fix>3d</fix>
</trkpt>
<trkpt lat="40.0720629" lon="-105.2298475">
  <ele>1582.93</ele>
  <time>2026-08-28T17:55:42Z</time>
  <course>25.97</course>
  <speed>0.0282842712474619</speed>
  <fix>3d</fix>
</trkpt>
<trkpt lat="40.0720632" lon="-105.2298476">
  <ele>1583.0</ele>
  <time>2026-08-28T17:55:42Z</time>
  <course>24.79</course>
  <speed>0.0</speed>
  <fix>3d</fix>
</trkpt>
<trkpt lat="40.0720629" lon="-105.2298475">
  <ele>1582.93</ele>
  <time>2026-08-28T17:55:42Z</time>
  <course>25.97</course>
  <speed>0.0282842712474619</speed>
  <fix>3d</fix>
</trkpt>
<trkpt lat="40.0720632" lon="-105.2298476">
  <ele>1583.0</ele>
  <time>2026-08-28T17:55:42Z</time>
  <course>24.79</course>
  <speed>0.0</speed>
  <fix>3d</fix>
</trkpt>
<trkpt lat="40.0720629" lon="-105.2298475">
  <ele>1582.93</ele>
  <time>2026-08-28T17:55:42Z</time>
  <course>25.97</course>
  <speed>0.0282842712474619</speed>
  <fix>3d</fix>
</trkpt>
<trkpt lat="40.0720632" lon="-105.2298476">
  <ele>1583.0</ele>
  <time>2026-08-28T17:55:42Z</time>
  <course>24.79</course>
  <speed>0.0</speed>
  <fix>3d</fix>
</trkpt>
<trkpt lat="40.0720629" lon="-105.2298475">
  <ele>1582.93</ele>
  <time>2026-08-28T17:55:42Z</time>
  <course>25.97</course>
  <speed>0.0282842712474619</speed>
  <fix>3d</fix>
</trkpt>
<trkpt lat="40.0720632" lon="-105.2298476">
  <ele>1583.0</ele>
  <time>2026-08-28T17:55:42Z</time>
  <course>24.8</course>
  <speed>0.0</speed>
  <fix>3d</fix>
</trkpt>
<trkpt lat="40.0720629" lon="-105.2298475">
  <ele>1582.93</ele>
  <time>2026-08-28T17:55:42Z</time>
  <course>25.98</course>
  <speed>0.0282842712474619</speed>
  <fix>3d</fix>
</trkpt>
<trkpt lat="40.0720632" lon="-105.2298476">
  <ele>1583.0</ele>
  <time>2026-08-28T17:55:42Z</time>
  <course>24.8</course>
  <speed>0.0</speed>
  <fix>3d</fix>
</trkpt>
<trkpt lat="40.0720629" lon="-105.2298475">
  <ele>1582.93</ele>
  <time>2026-08-28T17:55:42Z</time>
  <course>25.98</course>
  <speed>0.0282842712474619</speed>
  <fix>3d</fix>
</trkpt>
<trkpt lat="40.0720632" lon="-105.2298476">
  <ele>1583.0</ele>
  <time>2026-08-28T17:55:42Z</time>
  <course>24.8</course>
  <speed>0.0</speed>
  <fix>3d</fix>
</trkpt>
<trkpt lat="40.0720629" lon="-105.2298475">
  <ele>1582.94</ele>
  <time>2026-08-28T17:55:42Z</time>
  <course>25.98</course>
  <speed>0.022360679774997897</speed>
  <fix>3d</fix>
</trkpt>
<trkpt lat="40.0720632" lon="-105.2298476">
  <ele>1583.0</ele>
  <time>2026-08-28T17:55:42Z</time>
  <course>24.8</course>
  <speed>0.0</speed>
  <fix>3d</fix>
</trkpt>
<trkpt lat="40.072063" lon="-105.2298475">
  <ele>1582.95</ele>
  <time>2026-08-28T17:55:42Z</time>
  <course>25.98</course>
  <speed>0.022360679774997897</speed>
  <fix>3d</fix>
</trkpt>
<trkpt lat="40.0720632" lon="-105.2298476">
  <ele>1583.0</ele>
  <time>2026-08-28T17:55:42Z</time>
  <course>24.81</course>
  <speed>0.0</speed>
  <fix>3d</fix>
</trkpt>
<trkpt lat="40.072063" lon="-105.2298475">
  <ele>1582.96</ele>
  <time>2026-08-28T17:55:42Z</time>
  <course>25.98</course>
  <speed>0.022360679774997897</speed>
  <fix>3d</fix>
</trkpt>
<trkpt lat="40.0720632" lon="-105.2298476">
  <ele>1583.0</ele>
  <time>2026-08-28T17:55:42Z</time>
  <course>24.81</course>
  <speed>0.0</speed>
  <fix>3d</fix>
</trkpt>
<trkpt lat="40.072063" lon="-105.2298475">
  <ele>1582.96</ele>
  <time>2026-08-28T17:55:42Z</time>
  <course>25.98</course>
  <speed>0.022360679774997897</speed>
  <fix>3d</fix>
</trkpt>
<trkpt lat="40.0720632" lon="-105.2298476">
  <ele>1583.0</ele>
  <time>2026-08-28T17:55:42Z</time>
  <course>24.82</course>
  <speed>0.0</speed>
  <fix>3d</fix>
</trkpt>
<trkpt lat="40.072063" lon="-105.2298475">
  <ele>1582.97</ele>
  <time>2026-08-28T17:55:42Z</time>
  <course>25.98</course>
  <speed>0.022360679774997897</speed>
  <fix>3d</fix>
</trkpt>
<trkpt lat="40.0720632" lon="-105.2298476">
  <ele>1583.0</ele>
  <time>2026-08-28T17:55:42Z</time>
  <course>24.82</course>
  <speed>0.0</speed>
  <fix>3d</fix>
</trkpt>
<trkpt lat="40.072063" lon="-105.2298475">
  <ele>1582.97</ele>
  <time>2026-08-28T17:55:42Z</time>
  <course>25.98</course>
  <speed>0.022360679774997897</speed>
  <fix>3d</fix>
</trkpt>
<trkpt lat="40.0720632" lon="-105.2298476">
  <ele>1583.0</ele>
  <time>2026-08-28T17:55:42Z</time>
  <course>24.83</course>
  <speed>0.0</speed>
  <fix>3d</fix>
</trkpt>
<trkpt lat="40.072063" lon="-105.2298475">
  <ele>1582.97</ele>
  <time>2026-08-28T17:55:42Z</time>
  <course>25.98</course>
  <speed>0.022360679774997897</speed>
  <fix>3d</fix>
</trkpt>
<trkpt lat="40.0720632" lon="-105.2298476">
  <ele>1583.0</ele>
  <time>2026-08-28T17:55:42Z</time>
  <course>24.83</course>
  <speed>0.0</speed>
  <fix>3d</fix>
</trkpt>
<trkpt lat="40.072063" lon="-105.2298475">
  <ele>1582.97</ele>
  <time>2026-08-28T17:55:42Z</time>
  <course>25.98</course>
  <speed>0.022360679774997897</speed>
  <fix>3d</fix>
</trkpt>
<trkpt lat="40.0720632" lon="-105.2298476">
  <ele>1583.0</ele>
  <time>2026-08-28T17:55:42Z</time>
  <course>24.84</course>
  <speed>0.0</speed>
  <fix>3d</fix>
</trkpt>
<trkpt lat="40.072063" lon="-105.2298475">
  <ele>1582.98</ele>
  <time>2026-08-28T17:55:42Z</time>
  <course>25.98</course>
  <speed>0.022360679774997897</speed>
  <fix>3d</fix>
</trkpt>
<trkpt lat="40.0720632" lon="-105.2298476">
  <ele>1583.0</ele>
  <time>2026-08-28T17:55:42Z</time>
  <course>24.84</course>
  <speed>0.0</speed>
  <fix>3d</fix>
</trkpt>
<trkpt lat="40.072063" lon="-105.2298475">
  <ele>1582.98</ele>
  <time>2026-08-28T17:55:42Z</time>
  <course>25.99</course>
  <speed>0.022360679774997897</speed>
  <fix>3d</fix>
</trkpt>
<trkpt lat="40.0720632" lon="-105.2298476">
  <ele>1583.0</ele>
  <time>2026-08-28T17:55:42Z</time>
  <course>24.85</course>
  <speed>0.0</speed>
  <fix>3d</fix>
</trkpt>
<trkpt lat="40.072063" lon="-105.2298475">
  <ele>1582.98</ele>
  <time>2026-08-28T17:55:42Z</time>
  <course>25.99</course>
  <speed>0.022360679774997897</speed>
  <fix>3d</fix>
</trkpt>
<trkpt lat="40.0720632" lon="-105.2298476">
  <ele>1583.0</ele>
  <time>2026-08-28T17:55:42Z</time>
  <course>24.85</course>
  <speed>0.0</speed>
  <fix>3d</fix>
</trkpt>
<trkpt lat="40.072063" lon="-105.2298475">
  <ele>1582.98</ele>
  <time>2026-08-28T17:55:42Z</time>
  <course>25.99</course>
  <speed>0.022360679774997897</speed>
  <fix>3d</fix>
</trkpt>
<trkpt lat="40.0720632" lon="-105.2298476">
  <ele>1583.0</ele>
  <time>2026-08-28T17:55:42Z</time>
  <course>24.86</course>
  <speed>0.0</speed>
  <fix>3d</fix>
</trkpt>
<trkpt lat="40.072063" lon="-105.2298475">
  <ele>1582.98</ele>
  <time>2026-08-28T17:55:42Z</time>
  <course>25.99</course>
  <speed>0.022360679774997897</speed>
  <fix>3d</fix>
</trkpt>
<trkpt lat="40.0720632" lon="-105.2298476">
  <ele>1583.0</ele>
  <time>2026-08-28T17:55:42Z</time>
  <course>24.86</course>
  <speed>0.0</speed>
  <fix>3d</fix>
</trkpt>
<trkpt lat="40.072063" lon="-105.2298475">
  <ele>1582.98</ele>
  <time>2026-08-28T17:55:42Z</time>
  <course>25.99</course>
  <speed>0.022360679774997897</speed>
  <fix>3d</fix>
</trkpt>
<trkpt lat="40.0720632" lon="-105.2298476">
  <ele>1583.0</ele>
  <time>2026-08-28T17:55:42Z</time>
  <course>24.87</course>
  <speed>0.0</speed>
  <fix>3d</fix>
</trkpt>
<trkpt lat="40.072063" lon="-105.2298475">
  <ele>1582.98</ele>
  <time>2026-08-28T17:55:42Z</time>
  <course>25.99</course>
  <speed>0.022360679774997897</speed>
  <fix>3d</fix>
</trkpt>
<trkpt lat="40.0720632" lon="-105.2298476">
  <ele>1583.0</ele>
  <time>2026-08-28T17:55:42Z</time>
  <course>24.87</course>
  <speed>0.0</speed>
  <fix>3d</fix>
</trkpt>
<trkpt lat="40.072063" lon="-105.2298475">
  <ele>1582.99</ele>
  <time>2026-08-28T17:55:42Z</time>
  <course>25.99</course>
  <speed>0.022360679774997897</speed>
  <fix>3d</fix>
</trkpt>
<trkpt lat="40.0720632" lon="-105.2298476">
  <ele>1583.0</ele>
  <time>2026-08-28T17:55:42Z</time>
  <course>24.88</course>
  <speed>0.0</speed>
  <fix>3d</fix>
</trkpt>
<trkpt lat="40.072063" lon="-105.2298475">
  <ele>1582.99</ele>
  <time>2026-08-28T17:55:42Z</time>
  <course>25.99</course>
  <speed>0.022360679774997897</speed>
  <fix>3d</fix>
</trkpt>
<trkpt lat="40.0720632" lon="-105.2298476">
  <ele>1583.0</ele>
  <time>2026-08-28T17:55:42Z</time>
  <course>24.88</course>
  <speed>0.0</speed>
  <fix>3d</fix>
</trkpt>
<trkpt lat="40.072063" lon="-105.2298475">
  <ele>1582.99</ele>
  <time>2026-08-28T17:55:42Z</time>
  <course>25.99</course>
  <speed>0.022360679774997897</speed>
  <fix>3d</fix>
</trkpt>
<trkpt lat="40.0720632" lon="-105.2298476">
  <ele>1583.0</ele>
  <time>2026-08-28T17:55:42Z</time>
  <course>24.9</course>
  <speed>0.0</speed>
  <fix>3d</fix>
</trkpt>
<trkpt lat="40.072063" lon="-105.2298475">
  <ele>1582.99</ele>
  <time>2026-08-28T17:55:42Z</time>
  <course>25.99</course>
  <speed>0.022360679774997897</speed>
  <fix>3d</fix>
</trkpt>
<trkpt lat="40.0720632" lon="-105.2298476">
  <ele>1583.0</ele>
  <time>2026-08-28T17:55:42Z</time>
  <course>24.9</course>
  <speed>0.0</speed>
  <fix>3d</fix>
</trkpt>
<trkpt lat="40.072063" lon="-105.2298475">
  <ele>1582.99</ele>
  <time>2026-08-28T17:55:42Z</time>
  <course>25.99</course>
  <speed>0.022360679774997897</speed>
  <fix>3d</fix>
</trkpt>
<trkpt lat="40.0720632" lon="-105.2298476">
  <ele>1583.0</ele>
  <time>2026-08-28T17:55:42Z</time>
  <course>24.92</course>
  <speed>0.0</speed>
  <fix>3d</fix>
</trkpt>
<trkpt lat="40.072063" lon="-105.2298475">
  <ele>1583.0</ele>
  <time>2026-08-28T17:55:42Z</time>
  <course>25.99</course>
  <speed>0.022360679774997897</speed>
  <fix>3d</fix>
</trkpt>
<trkpt lat="40.0720632" lon="-105.2298476">
  <ele>1583.0</ele>
  <time>2026-08-28T17:55:42Z</time>
  <course>24.92</course>
  <speed>0.0</speed>
  <fix>3d</fix>
</trkpt>
<trkpt lat="40.072063" lon="-105.2298475">
  <ele>1583.0</ele>
  <time>2026-08-28T17:55:42Z</time>
  <course>26.0</course>
  <speed>0.022360679774997897</speed>
  <fix>3d</fix>
</trkpt>
<trkpt lat="40.0720632" lon="-105.2298476">
  <ele>1583.0</ele>
  <time>2026-08-28T17:55:42Z</time>
  <course>24.94</course>
  <speed>0.0</speed>
  <fix>3d</fix>
</trkpt>
<trkpt lat="40.072063" lon="-105.2298475">
  <ele>1583.0</ele>
  <time>2026-08-28T17:55:42Z</time>
  <course>26.0</course>
  <speed>0.022360679774997897</speed>
  <fix>3d</fix>
</trkpt>
<trkpt lat="40.0720632" lon="-105.2298476">
  <ele>1583.0</ele>
  <time>2026-08-28T17:55:42Z</time>
  <course>24.94</course>
  <speed>0.0</speed>
  <fix>3d</fix>
</trkpt>
<trkpt lat="40.072063" lon="-105.2298475">
  <ele>1583.01</ele>
  <time>2026-08-28T17:55:42Z</time>
  <course>26.0</course>
  <speed>0.022360679774997897</speed>
  <fix>3d</fix>
</trkpt>
<trkpt lat="40.0720632" lon="-105.2298476">
  <ele>1583.0</ele>
  <time>2026-08-28T17:55:42Z</time>
  <course>24.96</course>
  <speed>0.0</speed>
  <fix>3d</fix>
</trkpt>
<trkpt lat="40.072063" lon="-105.2298475">
  <ele>1583.01</ele>
  <time>2026-08-28T17:55:42Z</time>
  <course>26.0</course>
  <speed>0.022360679774997897</speed>
  <fix>3d</fix>
</trkpt>
<trkpt lat="40.0720632" lon="-105.2298476">
  <ele>1583.0</ele>
  <time>2026-08-28T17:55:42Z</time>
  <course>24.96</course>
  <speed>0.0</speed>
  <fix>3d</fix>
</trkpt>
<trkpt lat="40.072063" lon="-105.2298475">
  <ele>1583.01</ele>
  <time>2026-08-28T17:55:42Z</time>
  <course>26.0</course>
  <speed>0.022360679774997897</speed>
  <fix>3d</fix>
</trkpt>
<trkpt lat="40.0720632" lon="-105.2298476">
  <ele>1583.0</ele>
  <time>2026-08-28T17:55:42Z</time>
  <course>24.98</course>
  <speed>0.0</speed>
  <fix>3d</fix>
</trkpt>
<trkpt lat="40.072063" lon="-105.2298475">
  <ele>1583.02</ele>
  <time>2026-08-28T17:55:42Z</time>
  <course>26.0</course>
  <speed>0.022360679774997897</speed>
  <fix>3d</fix>
</trkpt>
<trkpt lat="40.0720632" lon="-105.2298476">
  <ele>1583.0</ele>
  <time>2026-08-28T17:55:42Z</time>
  <course>24.98</course>
  <speed>0.0</speed>
  <fix>3d</fix>
</trkpt>
<trkpt lat="40.072063" lon="-105.2298475">
  <ele>1583.02</ele>
  <time>2026-08-28T17:55:42Z</time>
  <course>26.0</course>
  <speed>0.022360679774997897</speed>
  <fix>3d</fix>
</trkpt>
<trkpt lat="40.0720632" lon="-105.2298476">
  <ele>1583.0</ele>
  <time>2026-08-28T17:55:42Z</time>
  <course>25.01</course>
  <speed>0.0</speed>
  <fix>3d</fix>
</trkpt>
<trkpt lat="40.072063" lon="-105.2298475">
  <ele>1583.03</ele>
  <time>2026-08-28T17:55:42Z</time>
  <course>26.0</course>
  <speed>0.022360679774997897</speed>
  <fix>3d</fix>
</trkpt>
<trkpt lat="40.0720632" lon="-105.2298476">
  <ele>1583.0</ele>
  <time>2026-08-28T17:55:42Z</time>
  <course>25.01</course>
  <speed>0.0</speed>
  <fix>3d</fix>
</trkpt>
<trkpt lat="40.072063" lon="-105.2298475">
  <ele>1583.03</ele>
  <time>2026-08-28T17:55:42Z</time>
  <course>26.0</course>
  <speed>0.022360679774997897</speed>
  <fix>3d</fix>
</trkpt>
<trkpt lat="40.0720632" lon="-105.2298476">
  <ele>1583.0</ele>
  <time>2026-08-28T17:55:42Z</time>
  <course>25.03</course>
  <speed>0.0</speed>
  <fix>3d</fix>
</trkpt>
<trkpt lat="40.072063" lon="-105.2298475">
  <ele>1583.04</ele>
  <time>2026-08-28T17:55:42Z</time>
  <course>26.0</course>
  <speed>0.022360679774997897</speed>
  <fix>3d</fix>
</trkpt>
<trkpt lat="40.0720632" lon="-105.2298476">
  <ele>1583.0</ele>
  <time>2026-08-28T17:55:42Z</time>
  <course>25.03</course>
  <speed>0.0</speed>
  <fix>3d</fix>
</trkpt>
<trkpt lat="40.072063" lon="-105.2298475">
  <ele>1583.04</ele>
  <time>2026-08-28T17:55:42Z</time>
  <course>26.0</course>
  <speed>0.022360679774997897</speed>
  <fix>3d</fix>
</trkpt>
<trkpt lat="40.0720632" lon="-105.2298476">
  <ele>1583.0</ele>
  <time>2026-08-28T17:55:42Z</time>
  <course>25.07</course>
  <speed>0.0</speed>
  <fix>3d</fix>
</trkpt>
<trkpt lat="40.072063" lon="-105.2298475">
  <ele>1583.04</ele>
  <time>2026-08-28T17:55:42Z</time>
  <course>26.0</course>
  <speed>0.022360679774997897</speed>
  <fix>3d</fix>
</trkpt>
<trkpt lat="40.0720632" lon="-105.2298476">
  <ele>1583.0</ele>
  <time>2026-08-28T17:55:42Z</time>
  <course>25.07</course>
  <speed>0.0</speed>
  <fix>3d</fix>
</trkpt>
<trkpt lat="40.072063" lon="-105.2298475">
  <ele>1583.04</ele>
  <time>2026-08-28T17:55:42Z</time>
  <course>26.0</course>
  <speed>0.022360679774997897</speed>
  <fix>3d</fix>
</trkpt>
<trkpt lat="40.0720632" lon="-105.2298476">
  <ele>1583.0</ele>
  <time>2026-08-28T17:55:42Z</time>
  <course>25.1</course>
  <speed>0.0</speed>
  <fix>3d</fix>
</trkpt>
<trkpt lat="40.072063" lon="-105.2298475">
  <ele>1583.04</ele>
  <time>2026-08-28T17:55:42Z</time>
  <course>26.01</course>
  <speed>0.022360679774997897</speed>
  <fix>3d</fix>
</trkpt>
<trkpt lat="40.0720632" lon="-105.2298476">
  <ele>1583.0</ele>
  <time>2026-08-28T17:55:42Z</time>
  <course>25.1</course>
  <speed>0.0</speed>
  <fix>3d</fix>
</trkpt>
<trkpt lat="40.072063" lon="-105.2298475">
  <ele>1583.04</ele>
  <time>2026-08-28T17:55:42Z</time>
  <course>26.01</course>
  <speed>0.022360679774997897</speed>
  <fix>3d</fix>
</trkpt>
<trkpt lat="40.0720632" lon="-105.2298476">
  <ele>1583.0</ele>
  <time>2026-08-28T17:55:42Z</time>
  <course>25.14</course>
  <speed>0.0</speed>
  <fix>3d</fix>
</trkpt>
<trkpt lat="40.072063" lon="-105.2298475">
  <ele>1583.04</ele>
  <time>2026-08-28T17:55:42Z</time>
  <course>26.01</course>
  <speed>0.022360679774997897</speed>
  <fix>3d</fix>
</trkpt>
<trkpt lat="40.0720632" lon="-105.2298476">
  <ele>1583.0</ele>
  <time>2026-08-28T17:55:42Z</time>
  <course>25.14</course>
  <speed>0.0</speed>
  <fix>3d</fix>
</trkpt>
<trkpt lat="40.072063" lon="-105.2298475">
  <ele>1583.04</ele>
  <time>2026-08-28T17:55:42Z</time>
  <course>26.01</course>
  <speed>0.022360679774997897</speed>
  <fix>3d</fix>
</trkpt>
<trkpt lat="40.0720632" lon="-105.2298476">
  <ele>1583.0</ele>
  <time>2026-08-28T17:55:42Z</time>
  <course>25.18</course>
  <speed>0.0</speed>
  <fix>3d</fix>
</trkpt>
<trkpt lat="40.072063" lon="-105.2298475">
  <ele>1583.04</ele>
  <time>2026-08-28T17:55:42Z</time>
  <course>26.01</course>
  <speed>0.022360679774997897</speed>
  <fix>3d</fix>
</trkpt>
<trkpt lat="40.0720632" lon="-105.2298476">
  <ele>1583.0</ele>
  <time>2026-08-28T17:55:42Z</time>
  <course>25.18</course>
  <speed>0.0</speed>
  <fix>3d</fix>
</trkpt>
<trkpt lat="40.072063" lon="-105.2298475">
  <ele>1583.05</ele>
  <time>2026-08-28T17:55:42Z</time>
  <course>26.01</course>
  <speed>0.022360679774997897</speed>
  <fix>3d</fix>
</trkpt>
<trkpt lat="40.0720632" lon="-105.2298476">
  <ele>1583.0</ele>
  <time>2026-08-28T17:55:42Z</time>
  <course>25.23</course>
  <speed>0.0</speed>
  <fix>3d</fix>
</trkpt>
<trkpt lat="40.072063" lon="-105.2298475">
  <ele>1583.05</ele>
  <time>2026-08-28T17:55:42Z</time>
  <course>26.01</course>
  <speed>0.022360679774997897</speed>
  <fix>3d</fix>
</trkpt>
<trkpt lat="40.0720632" lon="-105.2298476">
  <ele>1583.0</ele>
  <time>2026-08-28T17:55:42Z</time>
  <course>25.23</course>
  <speed>0.0</speed>
  <fix>3d</fix>
</trkpt>
<trkpt lat="40.072063" lon="-105.2298475">
  <ele>1583.05</ele>
  <time>2026-08-28T17:55:42Z</time>
  <course>26.01</course>
  <speed>0.022360679774997897</speed>
  <fix>3d</fix>
</trkpt>
<trkpt lat="40.0720632" lon="-105.2298476">
  <ele>1583.0</ele>
  <time>2026-08-28T17:55:42Z</time>
  <course>25.28</course>
  <speed>0.0</speed>
  <fix>3d</fix>
</trkpt>
<trkpt lat="40.072063" lon="-105.2298475">
  <ele>1583.05</ele>
  <time>2026-08-28T17:55:42Z</time>
  <course>26.01</course>
  <speed>0.022360679774997897</speed>
  <fix>3d</fix>
</trkpt>
<trkpt lat="40.0720632" lon="-105.2298476">
  <ele>1583.0</ele>
  <time>2026-08-28T17:55:42Z</time>
  <course>25.28</course>
  <speed>0.0</speed>
  <fix>3d</fix>
</trkpt>
<trkpt lat="40.072063" lon="-105.2298475">
  <ele>1583.05</ele>
  <time>2026-08-28T17:55:42Z</time>
  <course>26.01</course>
  <speed>0.022360679774997897</speed>
  <fix>3d</fix>
</trkpt>
<trkpt lat="40.0720632" lon="-105.2298476">
  <ele>1583.0</ele>
  <time>2026-08-28T17:55:42Z</time>
  <course>25.33</course>
  <speed>0.0</speed>
  <fix>3d</fix>
</trkpt>
<trkpt lat="40.072063" lon="-105.2298475">
  <ele>1583.05</ele>
  <time>2026-08-28T17:55:42Z</time>
  <course>26.01</course>
  <speed>0.022360679774997897</speed>
  <fix>3d</fix>
</trkpt>
<trkpt lat="40.0720632" lon="-105.2298476">
  <ele>1583.0</ele>
  <time>2026-08-28T17:55:42Z</time>
  <course>25.33</course>
  <speed>0.0</speed>
  <fix>3d</fix>
</trkpt>
<trkpt lat="40.072063" lon="-105.2298475">
  <ele>1583.06</ele>
  <time>2026-08-28T17:55:42Z</time>
  <course>26.01</course>
  <speed>0.022360679774997897</speed>
  <fix>3d</fix>
</trkpt>
<trkpt lat="40.0720632" lon="-105.2298476">
  <ele>1583.0</ele>
  <time>2026-08-28T17:55:42Z</time>
  <course>25.4</course>
  <speed>0.0</speed>
  <fix>3d</fix>
</trkpt>
<trkpt lat="40.072063" lon="-105.2298475">
  <ele>1583.06</ele>
  <time>2026-08-28T17:55:42Z</time>
  <course>26.01</course>
  <speed>0.022360679774997897</speed>
  <fix>3d</fix>
</trkpt>
<trkpt lat="40.0720632" lon="-105.2298476">
  <ele>1583.0</ele>
  <time>2026-08-28T17:55:42Z</time>
  <course>25.4</course>
  <speed>0.0</speed>
  <fix>3d</fix>
</trkpt>
<trkpt lat="40.072063" lon="-105.2298475">
  <ele>1583.06</ele>
  <time>2026-08-28T17:55:42Z</time>
  <course>26.01</course>
  <speed>0.022360679774997897</speed>
  <fix>3d</fix>
</trkpt>
<trkpt lat="40.0720632" lon="-105.2298476">
  <ele>1583.0</ele>
  <time>2026-08-28T17:55:42Z</time>
  <course>25.47</course>
  <speed>0.0</speed>
  <fix>3d</fix>
</trkpt>
<trkpt lat="40.072063" lon="-105.2298475">
  <ele>1583.07</ele>
  <time>2026-08-28T17:55:42Z</time>
  <course>26.02</course>
  <speed>0.022360679774997897</speed>
  <fix>3d</fix>
</trkpt>
<trkpt lat="40.0720632" lon="-105.2298476">
  <ele>1583.0</ele>
  <time>2026-08-28T17:55:42Z</time>
  <course>25.47</course>
  <speed>0.0</speed>
  <fix>3d</fix>
</trkpt>
<trkpt lat="40.072063" lon="-105.2298475">
  <ele>1583.07</ele>
  <time>2026-08-28T17:55:42Z</time>
  <course>26.02</course>
  <speed>0.022360679774997897</speed>
  <fix>3d</fix>
</trkpt>
<trkpt lat="40.0720632" lon="-105.2298476">
  <ele>1583.0</ele>
  <time>2026-08-28T17:55:42Z</time>
  <course>25.54</course>
  <speed>0.0</speed>
  <fix>3d</fix>
</trkpt>
<trkpt lat="40.072063" lon="-105.2298475">
  <ele>1583.07</ele>
  <time>2026-08-28T17:55:42Z</time>
  <course>26.02</course>
  <speed>0.022360679774997897</speed>
  <fix>3d</fix>
</trkpt>
<trkpt lat="40.0720632" lon="-105.2298476">
  <ele>1583.0</ele>
  <time>2026-08-28T17:55:42Z</time>
  <course>25.54</course>
  <speed>0.0</speed>
  <fix>3d</fix>
</trkpt>
<trkpt lat="40.072063" lon="-105.2298475">
  <ele>1583.08</ele>
  <time>2026-08-28T17:55:42Z</time>
  <course>26.02</course>
  <speed>0.022360679774997897</speed>
  <fix>3d</fix>
</trkpt>
<trkpt lat="40.0720632" lon="-105.2298476">
  <ele>1583.0</ele>
  <time>2026-08-28T17:55:42Z</time>
  <course>25.63</course>
  <speed>0.0</speed>
  <fix>3d</fix>
</trkpt>
<trkpt lat="40.072063" lon="-105.2298475">
  <ele>1583.08</ele>
  <time>2026-08-28T17:55:42Z</time>
  <course>26.02</course>
  <speed>0.022360679774997897</speed>
  <fix>3d</fix>
</trkpt>
<trkpt lat="40.0720632" lon="-105.2298476">
  <ele>1583.0</ele>
  <time>2026-08-28T17:55:42Z</time>
  <course>25.63</course>
  <speed>0.0</speed>
  <fix>3d</fix>
</trkpt>
<trkpt lat="40.072063" lon="-105.2298475">
  <ele>1583.09</ele>
  <time>2026-08-28T17:55:42Z</time>
  <course>26.02</course>
  <speed>0.022360679774997897</speed>
  <fix>3d</fix>
</trkpt>
<trkpt lat="40.0720632" lon="-105.2298476">
  <ele>1583.0</ele>
  <time>2026-08-28T17:55:42Z</time>
  <course>25.72</course>
  <speed>0.0</speed>
  <fix>3d</fix>
</trkpt>
<trkpt lat="40.072063" lon="-105.2298475">
  <ele>1583.09</ele>
  <time>2026-08-28T17:55:42Z</time>
  <course>26.02</course>
  <speed>0.022360679774997897</speed>
  <fix>3d</fix>
</trkpt>
<trkpt lat="40.0720632" lon="-105.2298476">
  <ele>1583.0</ele>
  <time>2026-08-28T17:55:42Z</time>
  <course>25.72</course>
  <speed>0.0</speed>
  <fix>3d</fix>
</trkpt>
<trkpt lat="40.072063" lon="-105.2298475">
  <ele>1583.09</ele>
  <time>2026-08-28T17:55:42Z</time>
  <course>26.02</course>
  <speed>0.022360679774997897</speed>
  <fix>3d</fix>
</trkpt>
<trkpt lat="40.0720632" lon="-105.2298476">
  <ele>1583.0</ele>
  <time>2026-08-28T17:55:42Z</time>
  <course>25.83</course>
  <speed>0.0</speed>
  <fix>3d</fix>
</trkpt>
<trkpt lat="40.072063" lon="-105.2298475">
  <ele>1583.09</ele>
  <time>2026-08-28T17:55:42Z</time>
  <course>26.02</course>
  <speed>0.022360679774997897</speed>
  <fix>3d</fix>
</trkpt>
<trkpt lat="40.0720632" lon="-105.2298476">
  <ele>1583.0</ele>
  <time>2026-08-28T17:55:42Z</time>
  <course>25.83</course>
  <speed>0.0</speed>
  <fix>3d</fix>
</trkpt>
<trkpt lat="40.072063" lon="-105.2298475">
  <ele>1583.08</ele>
  <time>2026-08-28T17:55:42Z</time>
  <course>26.02</course>
  <speed>0.022360679774997897</speed>
  <fix>3d</fix>
</trkpt>
<trkpt lat="40.0720632" lon="-105.2298476">
  <ele>1583.0</ele>
  <time>2026-08-28T17:55:42Z</time>
  <course>25.94</course>
  <speed>0.0</speed>
  <fix>3d</fix>
</trkpt>
<trkpt lat="40.072063" lon="-105.2298475">
  <ele>1583.07</ele>
  <time>2026-08-28T17:55:42Z</time>
  <course>26.02</course>
  <speed>0.022360679774997897</speed>
  <fix>3d</fix>
</trkpt>
<trkpt lat="40.0720632" lon="-105.2298476">
  <ele>1583.0</ele>
  <time>2026-08-28T17:55:42Z</time>
  <course>25.94</course>
  <speed>0.0</speed>
  <fix>3d</fix>
</trkpt>
<trkpt lat="40.072063" lon="-105.2298475">
  <ele>1583.06</ele>
  <time>2026-08-28T17:55:42Z</time>
  <course>26.02</course>
  <speed>0.022360679774997897</speed>
  <fix>3d</fix>
</trkpt>
<trkpt lat="40.0720632" lon="-105.2298476">
  <ele>1583.0</ele>
  <time>2026-08-28T17:55:42Z</time>
  <course>26.07</course>
  <speed>0.0</speed>
  <fix>3d</fix>
</trkpt>
<trkpt lat="40.072063" lon="-105.2298475">
  <ele>1583.06</ele>
  <time>2026-08-28T17:55:42Z</time>
  <course>26.02</course>
  <speed>0.022360679774997897</speed>
  <fix>3d</fix>
</trkpt>
<trkpt lat="40.0720632" lon="-105.2298476">
  <ele>1583.0</ele>
  <time>2026-08-28T17:55:42Z</time>
  <course>26.07</course>
  <speed>0.0</speed>
  <fix>3d</fix>
</trkpt>
<trkpt lat="40.072063" lon="-105.2298475">
  <ele>1583.05</ele>
  <time>2026-08-28T17:55:42Z</time>
  <course>26.02</course>
  <speed>0.022360679774997897</speed>
  <fix>3d</fix>
</trkpt>
<trkpt lat="40.0720632" lon="-105.2298476">
  <ele>1583.0</ele>
  <time>2026-08-28T17:55:42Z</time>
  <course>26.21</course>
  <speed>0.0</speed>
  <fix>3d</fix>
</trkpt>
<trkpt lat="40.072063" lon="-105.2298475">
  <ele>1583.04</ele>
  <time>2026-08-28T17:55:42Z</time>
  <course>26.02</course>
  <speed>0.022360679774997897</speed>
  <fix>3d</fix>
</trkpt>
<trkpt lat="40.0720632" lon="-105.2298476">
  <ele>1583.0</ele>
  <time>2026-08-28T17:55:42Z</time>
  <course>26.21</course>
  <speed>0.0</speed>
  <fix>3d</fix>
</trkpt>
<trkpt lat="40.072063" lon="-105.2298475">
  <ele>1583.04</ele>
  <time>2026-08-28T17:55:42Z</time>
  <course>26.02</course>
  <speed>0.022360679774997897</speed>
  <fix>3d</fix>
</trkpt>
<trkpt lat="40.0720632" lon="-105.2298476">
  <ele>1583.0</ele>
  <time>2026-08-28T17:55:42Z</time>
  <course>26.36</course>
  <speed>0.0</speed>
  <fix>3d</fix>
</trkpt>
<trkpt lat="40.072063" lon="-105.2298475">
  <ele>1583.03</ele>
  <time>2026-08-28T17:55:42Z</time>
  <course>26.03</course>
  <speed>0.022360679774997897</speed>
  <fix>3d</fix>
</trkpt>
<trkpt lat="40.0720632" lon="-105.2298476">
  <ele>1583.0</ele>
  <time>2026-08-28T17:55:42Z</time>
  <course>26.36</course>
  <speed>0.0</speed>
  <fix>3d</fix>
</trkpt>
<trkpt lat="40.072063" lon="-105.2298475">
  <ele>1583.03</ele>
  <time>2026-08-28T17:55:42Z</time>
  <course>26.03</course>
  <speed>0.022360679774997897</speed>
  <fix>3d</fix>
</trkpt>
<trkpt lat="40.0720632" lon="-105.2298476">
  <ele>1583.0</ele>
  <time>2026-08-28T17:55:42Z</time>
  <course>26.53</course>
  <speed>0.0</speed>
  <fix>3d</fix>
</trkpt>
<trkpt lat="40.072063" lon="-105.2298475">
  <ele>1583.02</ele>
  <time>2026-08-28T17:55:42Z</time>
  <course>26.03</course>
  <speed>0.022360679774997897</speed>
  <fix>3d</fix>
</trkpt>
<trkpt lat="40.0720632" lon="-105.2298476">
  <ele>1583.0</ele>
  <time>2026-08-28T17:55:42Z</time>
  <course>26.53</course>
  <speed>0.0</speed>
  <fix>3d</fix>
</trkpt>
<trkpt lat="40.072063" lon="-105.2298475">
  <ele>1583.02</ele>
  <time>2026-08-28T17:55:42Z</time>
  <course>26.03</course>
  <speed>0.022360679774997897</speed>
  <fix>3d</fix>
</trkpt>
<trkpt lat="40.0720632" lon="-105.2298476">
  <ele>1583.0</ele>
  <time>2026-08-28T17:55:42Z</time>
  <course>26.72</course>
  <speed>0.0</speed>
  <fix>3d</fix>
</trkpt>
<trkpt lat="40.072063" lon="-105.2298475">
  <ele>1583.02</ele>
  <time>2026-08-28T17:55:42Z</time>
  <course>26.03</course>
  <speed>0.022360679774997897</speed>
  <fix>3d</fix>
</trkpt>
<trkpt lat="40.0720632" lon="-105.2298476">
  <ele>1583.0</ele>
  <time>2026-08-28T17:55:42Z</time>
  <course>26.72</course>
  <speed>0.0</speed>
  <fix>3d</fix>
</trkpt>
<trkpt lat="40.072063" lon="-105.2298475">
  <ele>1583.01</ele>
  <time>2026-08-28T17:55:42Z</time>
  <course>26.03</course>
  <speed>0.022360679774997897</speed>
  <fix>3d</fix>
</trkpt>
<trkpt lat="40.0720632" lon="-105.2298476">
  <ele>1583.0</ele>
  <time>2026-08-28T17:55:42Z</time>
  <course>26.93</course>
  <speed>0.0</speed>
  <fix>3d</fix>
</trkpt>
<trkpt lat="40.072063" lon="-105.2298475">
  <ele>1583.01</ele>
  <time>2026-08-28T17:55:42Z</time>
  <course>26.03</course>
  <speed>0.022360679774997897</speed>
  <fix>3d</fix>
</trkpt>
<trkpt lat="40.0720632" lon="-105.2298476">
  <ele>1583.0</ele>
  <time>2026-08-28T17:55:42Z</time>
  <course>26.93</course>
  <speed>0.0</speed>
  <fix>3d</fix>
</trkpt>
<trkpt lat="40.072063" lon="-105.2298475">
  <ele>1583.0</ele>
  <time>2026-08-28T17:55:42Z</time>
  <course>26.03</course>
  <speed>0.022360679774997897</speed>
  <fix>3d</fix>
</trkpt>
<trkpt lat="40.0720632" lon="-105.2298476">
  <ele>1583.0</ele>
  <time>2026-08-28T17:55:42Z</time>
  <course>27.16</course>
  <speed>0.0</speed>
  <fix>3d</fix>
</trkpt>
<trkpt lat="40.072063" lon="-105.2298475">
  <ele>1583.0</ele>
  <time>2026-08-28T17:55:42Z</time>
  <course>26.03</course>
  <speed>0.022360679774997897</speed>
  <fix>3d</fix>
</trkpt>
<trkpt lat="40.0720632" lon="-105.2298476">
  <ele>1583.0</ele>
  <time>2026-08-28T17:55:42Z</time>
  <course>27.16</course>
  <speed>0.0</speed>
  <fix>3d</fix>
</trkpt>
<trkpt lat="40.072063" lon="-105.2298475">
  <ele>1582.99</ele>
  <time>2026-08-28T17:55:42Z</time>
  <course>26.03</course>
  <speed>0.022360679774997897</speed>
  <fix>3d</fix>
</trkpt>
<trkpt lat="40.0720632" lon="-105.2298476">
  <ele>1583.0</ele>
  <time>2026-08-28T17:55:42Z</time>
  <course>27.41</course>
  <speed>0.0</speed>
  <fix>3d</fix>
</trkpt>
<trkpt lat="40.072063" lon="-105.2298475">
  <ele>1582.99</ele>
  <time>2026-08-28T17:55:42Z</time>
  <course>26.03</course>
  <speed>0.022360679774997897</speed>
  <fix>3d</fix>
</trkpt>
<trkpt lat="40.0720632" lon="-105.2298476">
  <ele>1583.0</ele>
  <time>2026-08-28T17:55:42Z</time>
  <course>27.41</course>
  <speed>0.0</speed>
  <fix>3d</fix>
</trkpt>
<trkpt lat="40.072063" lon="-105.2298475">
  <ele>1582.98</ele>
  <time>2026-08-28T17:55:42Z</time>
  <course>26.03</course>
  <speed>0.022360679774997897</speed>
  <fix>3d</fix>
</trkpt>
<trkpt lat="40.0720632" lon="-105.2298476">
  <ele>1583.0</ele>
  <time>2026-08-28T17:55:42Z</time>
  <course>27.69</course>
  <speed>0.0</speed>
  <fix>3d</fix>
</trkpt>
<trkpt lat="40.072063" lon="-105.2298475">
  <ele>1582.98</ele>
  <time>2026-08-28T17:55:42Z</time>
  <course>26.03</course>
  <speed>0.022360679774997897</speed>
  <fix>3d</fix>
</trkpt>
<trkpt lat="40.0720632" lon="-105.2298476">
  <ele>1583.0</ele>
  <time>2026-08-28T17:55:42Z</time>
  <course>27.69</course>
  <speed>0.0</speed>
  <fix>3d</fix>
</trkpt>
<trkpt lat="40.072063" lon="-105.2298475">
  <ele>1582.98</ele>
  <time>2026-08-28T17:55:42Z</time>
  <course>26.03</course>
  <speed>0.022360679774997897</speed>
  <fix>3d</fix>
</trkpt>
<trkpt lat="40.0720632" lon="-105.2298476">
  <ele>1583.0</ele>
  <time>2026-08-28T17:55:42Z</time>
  <course>28.0</course>
  <speed>0.0</speed>
  <fix>3d</fix>
</trkpt>
<trkpt lat="40.072063" lon="-105.2298475">
  <ele>1582.99</ele>
  <time>2026-08-28T17:55:42Z</time>
  <course>26.03</course>
  <speed>0.022360679774997897</speed>
  <fix>3d</fix>
</trkpt>
<trkpt lat="40.0720632" lon="-105.2298476">
  <ele>1583.0</ele>
  <time>2026-08-28T17:55:42Z</time>
  <course>28.0</course>
  <speed>0.0</speed>
  <fix>3d</fix>
</trkpt>
<trkpt lat="40.072063" lon="-105.2298475">
  <ele>1582.99</ele>
  <time>2026-08-28T17:55:42Z</time>
  <course>26.03</course>
  <speed>0.022360679774997897</speed>
  <fix>3d</fix>
</trkpt>
<trkpt lat="40.0720632" lon="-105.2298476">
  <ele>1583.0</ele>
  <time>2026-08-28T17:55:42Z</time>
  <course>28.35</course>
  <speed>0.0</speed>
  <fix>3d</fix>
</trkpt>
<trkpt lat="40.072063" lon="-105.2298475">
  <ele>1582.99</ele>
  <time>2026-08-28T17:55:42Z</time>
  <course>26.03</course>
  <speed>0.022360679774997897</speed>
  <fix>3d</fix>
</trkpt>
<trkpt lat="40.0720632" lon="-105.2298476">
  <ele>1583.0</ele>
  <time>2026-08-28T17:55:42Z</time>
  <course>28.35</course>
  <speed>0.0</speed>
  <fix>3d</fix>
</trkpt>
<trkpt lat="40.072063" lon="-105.2298475">
  <ele>1583.0</ele>
  <time>2026-08-28T17:55:42Z</time>
  <course>26.03</course>
  <speed>0.022360679774997897</speed>
  <fix>3d</fix>
</trkpt>
<trkpt lat="40.0720632" lon="-105.2298476">
  <ele>1583.0</ele>
  <time>2026-08-28T17:55:42Z</time>
  <course>28.73</course>
  <speed>0.0</speed>
  <fix>3d</fix>
</trkpt>
<trkpt lat="40.072063" lon="-105.2298475">
  <ele>1583.0</ele>
  <time>2026-08-28T17:55:42Z</time>
  <course>26.03</course>
  <speed>0.022360679774997897</speed>
  <fix>3d</fix>
</trkpt>
<trkpt lat="40.0720632" lon="-105.2298476">
  <ele>1583.0</ele>
  <time>2026-08-28T17:55:42Z</time>
  <course>28.73</course>
  <speed>0.0</speed>
  <fix>3d</fix>
</trkpt>
<trkpt lat="40.072063" lon="-105.2298475">
  <ele>1583.01</ele>
  <time>2026-08-28T17:55:42Z</time>
  <course>26.03</course>
  <speed>0.022360679774997897</speed>
  <fix>3d</fix>
</trkpt>
<trkpt lat="40.0720632" lon="-105.2298476">
  <ele>1583.0</ele>
  <time>2026-08-28T17:55:42Z</time>
  <course>29.14</course>
  <speed>0.0</speed>
  <fix>3d</fix>
</trkpt>
<trkpt lat="40.072063" lon="-105.2298475">
  <ele>1583.01</ele>
  <time>2026-08-28T17:55:42Z</time>
  <course>26.03</course>
  <speed>0.022360679774997897</speed>
  <fix>3d</fix>
</trkpt>
<trkpt lat="40.0720632" lon="-105.2298476">
  <ele>1583.0</ele>
  <time>2026-08-28T17:55:42Z</time>
  <course>29.14</course>
  <speed>0.0</speed>
  <fix>3d</fix>
</trkpt>
<trkpt lat="40.072063" lon="-105.2298475">
  <ele>1583.01</ele>
  <time>2026-08-28T17:55:42Z</time>
  <course>26.03</course>
  <speed>0.022360679774997897</speed>
  <fix>3d</fix>
</trkpt>
<trkpt lat="40.0720632" lon="-105.2298476">
  <ele>1583.0</ele>
  <time>2026-08-28T17:55:42Z</time>
  <course>29.6</course>
  <speed>0.0</speed>
  <fix>3d</fix>
</trkpt>
<trkpt lat="40.072063" lon="-105.2298475">
  <ele>1583.01</ele>
  <time>2026-08-28T17:55:42Z</time>
  <course>26.03</course>
  <speed>0.022360679774997897</speed>
  <fix>3d</fix>
</trkpt>
<trkpt lat="40.0720632" lon="-105.2298476">
  <ele>1583.0</ele>
  <time>2026-08-28T17:55:42Z</time>
  <course>29.6</course>
  <speed>0.0</speed>
  <fix>3d</fix>
</trkpt>
<trkpt lat="40.072063" lon="-105.2298475">
  <ele>1583.01</ele>
  <time>2026-08-28T17:55:42Z</time>
  <course>26.04</course>
  <speed>0.022360679774997897</speed>
  <fix>3d</fix>
</trkpt>
<trkpt lat="40.0720632" lon="-105.2298476">
  <ele>1583.0</ele>
  <time>2026-08-28T17:55:42Z</time>
  <course>30.11</course>
  <speed>0.0</speed>
  <fix>3d</fix>
</trkpt>
<trkpt lat="40.072063" lon="-105.2298475">
  <ele>1583.01</ele>
  <time>2026-08-28T17:55:42Z</time>
  <course>26.04</course>
  <speed>0.022360679774997897</speed>
  <fix>3d</fix>
</trkpt>
<trkpt lat="40.0720632" lon="-105.2298476">
  <ele>1583.0</ele>
  <time>2026-08-28T17:55:42Z</time>
  <course>30.11</course>
  <speed>0.0</speed>
  <fix>3d</fix>
</trkpt>
<trkpt lat="40.072063" lon="-105.2298475">
  <ele>1583.0</ele>
  <time>2026-08-28T17:55:42Z</time>
  <course>26.04</course>
  <speed>0.022360679774997897</speed>
  <fix>3d</fix>
</trkpt>
<trkpt lat="40.0720632" lon="-105.2298476">
  <ele>1583.0</ele>
  <time>2026-08-28T17:55:42Z</time>
  <course>30.68</course>
  <speed>0.0</speed>
  <fix>3d</fix>
</trkpt>
<trkpt lat="40.072063" lon="-105.2298475">
  <ele>1583.0</ele>
  <time>2026-08-28T17:55:42Z</time>
  <course>26.04</course>
  <speed>0.022360679774997897</speed>
  <fix>3d</fix>
</trkpt>
<trkpt lat="40.0720632" lon="-105.2298476">
  <ele>1583.0</ele>
  <time>2026-08-28T17:55:42Z</time>
  <course>30.68</course>
  <speed>0.0</speed>
  <fix>3d</fix>
</trkpt>
<trkpt lat="40.072063" lon="-105.2298475">
  <ele>1582.99</ele>
  <time>2026-08-28T17:55:42Z</time>
  <course>26.04</course>
  <speed>0.022360679774997897</speed>
  <fix>3d</fix>
</trkpt>
<trkpt lat="40.0720632" lon="-105.2298476">
  <ele>1583.0</ele>
  <time>2026-08-28T17:55:42Z</time>
  <course>31.3</course>
  <speed>0.0</speed>
  <fix>3d</fix>
</trkpt>
<trkpt lat="40.072063" lon="-105.2298475">
  <ele>1582.99</ele>
  <time>2026-08-28T17:55:42Z</time>
  <course>26.04</course>
  <speed>0.022360679774997897</speed>
  <fix>3d</fix>
</trkpt>
<trkpt lat="40.0720632" lon="-105.2298476">
  <ele>1583.0</ele>
  <time>2026-08-28T17:55:42Z</time>
  <course>31.3</course>
  <speed>0.0</speed>
  <fix>3d</fix>
</trkpt>
<trkpt lat="40.072063" lon="-105.2298475">
  <ele>1582.98</ele>
  <time>2026-08-28T17:55:42Z</time>
  <course>26.04</course>
  <speed>0.022360679774997897</speed>
  <fix>3d</fix>
</trkpt>
<trkpt lat="40.0720632" lon="-105.2298476">
  <ele>1583.0</ele>
  <time>2026-08-28T17:55:42Z</time>
  <course>31.98</course>
  <speed>0.0</speed>
  <fix>3d</fix>
</trkpt>
<trkpt lat="40.072063" lon="-105.2298475">
  <ele>1582.98</ele>
  <time>2026-08-28T17:55:42Z</time>
  <course>26.04</course>
  <speed>0.022360679774997897</speed>
  <fix>3d</fix>
</trkpt>
<trkpt lat="40.0720632" lon="-105.2298476">
  <ele>1583.0</ele>
  <time>2026-08-28T17:55:42Z</time>
  <course>31.98</course>
  <speed>0.0</speed>
  <fix>3d</fix>
</trkpt>
<trkpt lat="40.072063" lon="-105.2298475">
  <ele>1582.98</ele>
  <time>2026-08-28T17:55:42Z</time>
  <course>26.04</course>
  <speed>0.022360679774997897</speed>
  <fix>3d</fix>
</trkpt>
<trkpt lat="40.0720632" lon="-105.2298476">
  <ele>1583.0</ele>
  <time>2026-08-28T17:55:42Z</time>
  <course>32.73</course>
  <speed>0.0</speed>
  <fix>3d</fix>
</trkpt>
<trkpt lat="40.072063" lon="-105.2298475">
  <ele>1582.98</ele>
  <time>2026-08-28T17:55:42Z</time>
  <course>26.04</course>
  <speed>0.022360679774997897</speed>
  <fix>3d</fix>
</trkpt>
<trkpt lat="40.0720632" lon="-105.2298476">
  <ele>1583.0</ele>
  <time>2026-08-28T17:55:42Z</time>
  <course>32.73</course>
  <speed>0.0</speed>
  <fix>3d</fix>
</trkpt>
<trkpt lat="40.072063" lon="-105.2298475">
  <ele>1582.97</ele>
  <time>2026-08-28T17:55:42Z</time>
  <course>26.04</course>
  <speed>0.022360679774997897</speed>
  <fix>3d</fix>
</trkpt>
<trkpt lat="40.0720632" lon="-105.2298476">
  <ele>1583.0</ele>
  <time>2026-08-28T17:55:42Z</time>
  <course>33.56</course>
  <speed>0.0</speed>
  <fix>3d</fix>
</trkpt>
<trkpt lat="40.072063" lon="-105.2298475">
  <ele>1582.97</ele>
  <time>2026-08-28T17:55:42Z</time>
  <course>26.04</course>
  <speed>0.022360679774997897</speed>
  <fix>3d</fix>
</trkpt>
<trkpt lat="40.0720632" lon="-105.2298476">
  <ele>1583.0</ele>
  <time>2026-08-28T17:55:42Z</time>
  <course>33.56</course>
  <speed>0.0</speed>
  <fix>3d</fix>
</trkpt>
<trkpt lat="40.072063" lon="-105.2298475">
  <ele>1582.96</ele>
  <time>2026-08-28T17:55:42Z</time>
  <course>26.04</course>
  <speed>0.022360679774997897</speed>
  <fix>3d</fix>
</trkpt>
<trkpt lat="40.0720632" lon="-105.2298476">
  <ele>1583.0</ele>
  <time>2026-08-28T17:55:42Z</time>
  <course>34.47</course>
  <speed>0.0</speed>
  <fix>3d</fix>
</trkpt>
<trkpt lat="40.072063" lon="-105.2298475">
  <ele>1582.96</ele>
  <time>2026-08-28T17:55:42Z</time>
  <course>26.04</course>
  <speed>0.022360679774997897</speed>
  <fix>3d</fix>
</trkpt>
<trkpt lat="40.0720632" lon="-105.2298476">
  <ele>1583.0</ele>
  <time>2026-08-28T17:55:42Z</time>
  <course>34.47</course>
  <speed>0.0</speed>
  <fix>3d</fix>
</trkpt>
<trkpt lat="40.072063" lon="-105.2298475">
  <ele>1582.96</ele>
  <time>2026-08-28T17:55:42Z</time>
  <course>26.04</course>
  <speed>0.022360679774997897</speed>
  <fix>3d</fix>
</trkpt>
<trkpt lat="40.0720632" lon="-105.2298476">
  <ele>1583.0</ele>
  <time>2026-08-28T17:55:42Z</time>
  <course>35.47</course>
  <speed>0.0</speed>
  <fix>3d</fix>
</trkpt>
<trkpt lat="40.072063" lon="-105.2298475">
  <ele>1582.95</ele>
  <time>2026-08-28T17:55:42Z</time>
  <course>26.04</course>
  <speed>0.022360679774997897</speed>
  <fix>3d</fix>
</trkpt>
<trkpt lat="40.0720632" lon="-105.2298476">
  <ele>1583.0</ele>
  <time>2026-08-28T17:55:42Z</time>
  <course>35.47</course>
  <speed>0.0</speed>
  <fix>3d</fix>
</trkpt>
<trkpt lat="40.072063" lon="-105.2298475">
  <ele>1582.95</ele>
  <time>2026-08-28T17:55:42Z</time>
  <course>26.04</course>
  <speed>0.022360679774997897</speed>
  <fix>3d</fix>
</trkpt>
<trkpt lat="40.0720632" lon="-105.2298476">
  <ele>1583.0</ele>
  <time>2026-08-28T17:55:42Z</time>
  <course>36.57</course>
  <speed>0.0</speed>
  <fix>3d</fix>
</trkpt>
<trkpt lat="40.072063" lon="-105.2298475">
  <ele>1582.94</ele>
  <time>2026-08-28T17:55:42Z</time>
  <course>26.04</course>
  <speed>0.022360679774997897</speed>
  <fix>3d</fix>
</trkpt>
<trkpt lat="40.0720632" lon="-105.2298476">
  <ele>1583.0</ele>
  <time>2026-08-28T17:55:42Z</time>
  <course>36.57</course>
  <speed>0.0</speed>
  <fix>3d</fix>
</trkpt>
<trkpt lat="40.072063" lon="-105.2298475">
  <ele>1582.94</ele>
  <time>2026-08-28T17:55:42Z</time>
  <course>26.04</course>
  <speed>0.022360679774997897</speed>
  <fix>3d</fix>
</trkpt>
<trkpt lat="40.0720632" lon="-105.2298476">
  <ele>1583.0</ele>
  <time>2026-08-28T17:55:42Z</time>
  <course>37.77</course>
  <speed>0.0</speed>
  <fix>3d</fix>
</trkpt>
<trkpt lat="40.072063" lon="-105.2298475">
  <ele>1582.94</ele>
  <time>2026-08-28T17:55:42Z</time>
  <course>26.04</course>
  <speed>0.022360679774997897</speed>
  <fix>3d</fix>
</trkpt>
<trkpt lat="40.0720632" lon="-105.2298476">
  <ele>1583.0</ele>
  <time>2026-08-28T17:55:42Z</time>
  <course>37.77</course>
  <speed>0.0</speed>
  <fix>3d</fix>
</trkpt>
<trkpt lat="40.072063" lon="-105.2298475">
  <ele>1582.94</ele>
  <time>2026-08-28T17:55:42Z</time>
  <course>26.04</course>
  <speed>0.022360679774997897</speed>
  <fix>3d</fix>
</trkpt>
<trkpt lat="40.0720632" lon="-105.2298476">
  <ele>1583.0</ele>
  <time>2026-08-28T17:55:42Z</time>
  <course>39.09</course>
  <speed>0.0</speed>
  <fix>3d</fix>
</trkpt>
<trkpt lat="40.072063" lon="-105.2298475">
  <ele>1582.94</ele>
  <time>2026-08-28T17:55:42Z</time>
  <course>26.04</course>
  <speed>0.022360679774997897</speed>
  <fix>3d</fix>
</trkpt>
<trkpt lat="40.0720632" lon="-105.2298476">
  <ele>1583.0</ele>
  <time>2026-08-28T17:55:42Z</time>
  <course>39.09</course>
  <speed>0.0</speed>
  <fix>3d</fix>
</trkpt>
<trkpt lat="40.072063" lon="-105.2298475">
  <ele>1582.94</ele>
  <time>2026-08-28T17:55:42Z</time>
  <course>26.04</course>
  <speed>0.022360679774997897</speed>
  <fix>3d</fix>
</trkpt>
<trkpt lat="40.0720632" lon="-105.2298476">
  <ele>1583.0</ele>
  <time>2026-08-28T17:55:42Z</time>
  <course>40.53</course>
  <speed>0.0</speed>
  <fix>3d</fix>
</trkpt>
<trkpt lat="40.072063" lon="-105.2298475">
  <ele>1582.95</ele>
  <time>2026-08-28T17:55:42Z</time>
  <course>26.04</course>
  <speed>0.022360679774997897</speed>
  <fix>3d</fix>
</trkpt>
<trkpt lat="40.0720632" lon="-105.2298476">
  <ele>1583.0</ele>
  <time>2026-08-28T17:55:42Z</time>
  <course>40.53</course>
  <speed>0.0</speed>
  <fix>3d</fix>
</trkpt>
<trkpt lat="40.072063" lon="-105.2298475">
  <ele>1582.95</ele>
  <time>2026-08-28T17:55:42Z</time>
  <course>26.04</course>
  <speed>0.022360679774997897</speed>
  <fix>3d</fix>
</trkpt>
<trkpt lat="40.0720632" lon="-105.2298476">
  <ele>1583.0</ele>
  <time>2026-08-28T17:55:42Z</time>
  <course>42.1</course>
  <speed>0.0</speed>
  <fix>3d</fix>
</trkpt>
<trkpt lat="40.072063" lon="-105.2298475">
  <ele>1582.96</ele>
  <time>2026-08-28T17:55:42Z</time>
  <course>26.04</course>
  <speed>0.022360679774997897</speed>
  <fix>3d</fix>
</trkpt>
<trkpt lat="40.0720632" lon="-105.2298476">
  <ele>1583.0</ele>
  <time>2026-08-28T17:55:42Z</time>
  <course>42.1</course>
  <speed>0.0</speed>
  <fix>3d</fix>
</trkpt>
<trkpt lat="40.072063" lon="-105.2298475">
  <ele>1582.96</ele>
  <time>2026-08-28T17:55:42Z</time>
  <course>26.04</course>
  <speed>0.022360679774997897</speed>
  <fix>3d</fix>
</trkpt>
<trkpt lat="40.0720632" lon="-105.2298476">
  <ele>1583.0</ele>
  <time>2026-08-28T17:55:42Z</time>
  <course>43.8</course>
  <speed>0.0</speed>
  <fix>3d</fix>
</trkpt>
<trkpt lat="40.072063" lon="-105.2298475">
  <ele>1582.96</ele>
  <time>2026-08-28T17:55:42Z</time>
  <course>26.04</course>
  <speed>0.022360679774997897</speed>
  <fix>3d</fix>
</trkpt>
<trkpt lat="40.0720632" lon="-105.2298476">
  <ele>1583.0</ele>
  <time>2026-08-28T17:55:42Z</time>
  <course>43.8</course>
  <speed>0.0</speed>
  <fix>3d</fix>
</trkpt>
<trkpt lat="40.072063" lon="-105.2298475">
  <ele>1582.96</ele>
  <time>2026-08-28T17:55:42Z</time>
  <course>26.04</course>
  <speed>0.022360679774997897</speed>
  <fix>3d</fix>
</trkpt>
<trkpt lat="40.0720632" lon="-105.2298476">
  <ele>1583.0</ele>
  <time>2026-08-28T17:55:42Z</time>
  <course>45.64</course>
  <speed>0.0</speed>
  <fix>3d</fix>
</trkpt>
<trkpt lat="40.072063" lon="-105.2298475">
  <ele>1582.96</ele>
  <time>2026-08-28T17:55:42Z</time>
  <course>26.04</course>
  <speed>0.022360679774997897</speed>
  <fix>3d</fix>
</trkpt>
<trkpt lat="40.0720632" lon="-105.2298476">
  <ele>1583.0</ele>
  <time>2026-08-28T17:55:42Z</time>
  <course>45.64</course>
  <speed>0.0</speed>
  <fix>3d</fix>
</trkpt>
<trkpt lat="40.072063" lon="-105.2298475">
  <ele>1582.96</ele>
  <time>2026-08-28T17:55:42Z</time>
  <course>26.04</course>
  <speed>0.022360679774997897</speed>
  <fix>3d</fix>
</trkpt>
<trkpt lat="40.0720632" lon="-105.2298476">
  <ele>1583.0</ele>
  <time>2026-08-28T17:55:42Z</time>
  <course>47.62</course>
  <speed>0.0</speed>
  <fix>3d</fix>
</trkpt>
<trkpt lat="40.072063" lon="-105.2298475">
  <ele>1582.96</ele>
  <time>2026-08-28T17:55:42Z</time>
  <course>26.04</course>
  <speed>0.022360679774997897</speed>
  <fix>3d</fix>
</trkpt>
<trkpt lat="40.0720632" lon="-105.2298476">
  <ele>1583.0</ele>
  <time>2026-08-28T17:55:42Z</time>
  <course>47.62</course>
  <speed>0.0</speed>
  <fix>3d</fix>
</trkpt>
<trkpt lat="40.072063" lon="-105.2298475">
  <ele>1582.96</ele>
  <time>2026-08-28T17:55:42Z</time>
  <course>26.04</course>
  <speed>0.022360679774997897</speed>
  <fix>3d</fix>
</trkpt>
<trkpt lat="40.0720632" lon="-105.2298476">
  <ele>1583.0</ele>
  <time>2026-08-28T17:55:42Z</time>
  <course>49.74</course>
  <speed>0.0</speed>
  <fix>3d</fix>
</trkpt>
<trkpt lat="40.072063" lon="-105.2298475">
  <ele>1582.96</ele>
  <time>2026-08-28T17:55:42Z</time>
  <course>26.04</course>
  <speed>0.022360679774997897</speed>
  <fix>3d</fix>
</trkpt>
<trkpt lat="40.0720632" lon="-105.2298476">
  <ele>1583.0</ele>
  <time>2026-08-28T17:55:42Z</time>
  <course>49.74</course>
  <speed>0.0</speed>
  <fix>3d</fix>
</trkpt>
<trkpt lat="40.072063" lon="-105.2298475">
  <ele>1582.95</ele>
  <time>2026-08-28T17:55:42Z</time>
  <course>26.04</course>
  <speed>0.022360679774997897</speed>
  <fix>3d</fix>
</trkpt>
<trkpt lat="40.0720632" lon="-105.2298476">
  <ele>1583.0</ele>
  <time>2026-08-28T17:55:42Z</time>
  <course>52.0</course>
  <speed>0.0</speed>
  <fix>3d</fix>
</trkpt>
<trkpt lat="40.072063" lon="-105.2298475">
  <ele>1582.95</ele>
  <time>2026-08-28T17:55:42Z</time>
  <course>26.04</course>
  <speed>0.022360679774997897</speed>
  <fix>3d</fix>
</trkpt>
<trkpt lat="40.0720632" lon="-105.2298476">
  <ele>1583.0</ele>
  <time>2026-08-28T17:55:42Z</time>
  <course>52.0</course>
  <speed>0.0</speed>
  <fix>3d</fix>
</trkpt>
<trkpt lat="40.072063" lon="-105.2298475">
  <ele>1582.94</ele>
  <time>2026-08-28T17:55:42Z</time>
  <course>26.04</course>
  <speed>0.022360679774997897</speed>
  <fix>3d</fix>
</trkpt>
<trkpt lat="40.0720632" lon="-105.2298476">
  <ele>1583.0</ele>
  <time>2026-08-28T17:55:42Z</time>
  <course>54.4</course>
  <speed>0.0</speed>
  <fix>3d</fix>
</trkpt>
<trkpt lat="40.072063" lon="-105.2298475">
  <ele>1582.94</ele>
  <time>2026-08-28T17:55:42Z</time>
  <course>26.04</course>
  <speed>0.022360679774997897</speed>
  <fix>3d</fix>
</trkpt>
<trkpt lat="40.0720632" lon="-105.2298476">
  <ele>1583.0</ele>
  <time>2026-08-28T17:55:42Z</time>
  <course>54.4</course>
  <speed>0.0</speed>
  <fix>3d</fix>
</trkpt>
<trkpt lat="40.072063" lon="-105.2298475">
  <ele>1582.94</ele>
  <time>2026-08-28T17:55:42Z</time>
  <course>26.04</course>
  <speed>0.022360679774997897</speed>
  <fix>3d</fix>
</trkpt>
<trkpt lat="40.0720632" lon="-105.2298476">
  <ele>1583.0</ele>
  <time>2026-08-28T17:55:42Z</time>
  <course>56.93</course>
  <speed>0.0</speed>
  <fix>3d</fix>
</trkpt>
<trkpt lat="40.072063" lon="-105.2298475">
  <ele>1582.95</ele>
  <time>2026-08-28T17:55:42Z</time>
  <course>26.04</course>
  <speed>0.022360679774997897</speed>
  <fix>3d</fix>
</trkpt>
<trkpt lat="40.0720632" lon="-105.2298476">
  <ele>1583.0</ele>
  <time>2026-08-28T17:55:42Z</time>
  <course>56.93</course>
  <speed>0.0</speed>
  <fix>3d</fix>
</trkpt>
<trkpt lat="40.072063" lon="-105.2298475">
  <ele>1582.95</ele>
  <time>2026-08-28T17:55:42Z</time>
  <course>26.04</course>
  <speed>0.022360679774997897</speed>
  <fix>3d</fix>
</trkpt>
<trkpt lat="40.0720632" lon="-105.2298476">
  <ele>1583.0</ele>
  <time>2026-08-28T17:55:42Z</time>
  <course>59.56</course>
  <speed>0.0</speed>
  <fix>3d</fix>
</trkpt>
<trkpt lat="40.072063" lon="-105.2298475">
  <ele>1582.96</ele>
  <time>2026-08-28T17:55:42Z</time>
  <course>26.04</course>
  <speed>0.022360679774997897</speed>
  <fix>3d</fix>
</trkpt>
<trkpt lat="40.0720632" lon="-105.2298476">
  <ele>1583.0</ele>
  <time>2026-08-28T17:55:42Z</time>
  <course>59.56</course>
  <speed>0.0</speed>
  <fix>3d</fix>
</trkpt>
<trkpt lat="40.072063" lon="-105.2298475">
  <ele>1582.96</ele>
  <time>2026-08-28T17:55:42Z</time>
  <course>26.04</course>
  <speed>0.022360679774997897</speed>
  <fix>3d</fix>
</trkpt>
<trkpt lat="40.0720632" lon="-105.2298476">
  <ele>1583.0</ele>
  <time>2026-08-28T17:55:42Z</time>
  <course>62.3</course>
  <speed>0.0</speed>
  <fix>3d</fix>
</trkpt>
<trkpt lat="40.072063" lon="-105.2298475">
  <ele>1582.97</ele>
  <time>2026-08-28T17:55:42Z</time>
  <course>26.04</course>
  <speed>0.022360679774997897</speed>
  <fix>3d</fix>
</trkpt>
<trkpt lat="40.0720632" lon="-105.2298476">
  <ele>1583.0</ele>
  <time>2026-08-28T17:55:42Z</time>
  <course>62.3</course>
  <speed>0.0</speed>
  <fix>3d</fix>
</trkpt>
<trkpt lat="40.072063" lon="-105.2298475">
  <ele>1582.98</ele>
  <time>2026-08-28T17:55:42Z</time>
  <course>26.04</course>
  <speed>0.022360679774997897</speed>
  <fix>3d</fix>
</trkpt>
<trkpt lat="40.0720632" lon="-105.2298476">
  <ele>1583.0</ele>
  <time>2026-08-28T17:55:42Z</time>
  <course>65.1</course>
  <speed>0.0</speed>
  <fix>3d</fix>
</trkpt>
<trkpt lat="40.072063" lon="-105.2298475">
  <ele>1582.99</ele>
  <time>2026-08-28T17:55:42Z</time>
  <course>26.04</course>
  <speed>0.022360679774997897</speed>
  <fix>3d</fix>
</trkpt>
<trkpt lat="40.0720632" lon="-105.2298476">
  <ele>1583.0</ele>
  <time>2026-08-28T17:55:42Z</time>
  <course>65.1</course>
  <speed>0.0</speed>
  <fix>3d</fix>
</trkpt>
<trkpt lat="40.072063" lon="-105.2298475">
  <ele>1582.99</ele>
  <time>2026-08-28T17:55:42Z</time>
  <course>26.04</course>
  <speed>0.022360679774997897</speed>
  <fix>3d</fix>
</trkpt>
<trkpt lat="40.0720632" lon="-105.2298476">
  <ele>1583.0</ele>
  <time>2026-08-28T17:55:42Z</time>
  <course>67.95</course>
  <speed>0.0</speed>
  <fix>3d</fix>
</trkpt>
<trkpt lat="40.072063" lon="-105.2298475">
  <ele>1583.0</ele>
  <time>2026-08-28T17:55:42Z</time>
  <course>26.04</course>
  <speed>0.022360679774997897</speed>
  <fix>3d</fix>
</trkpt>
<trkpt lat="40.0720632" lon="-105.2298476">
  <ele>1583.0</ele>
  <time>2026-08-28T17:55:42Z</time>
  <course>67.95</course>
  <speed>0.0</speed>
  <fix>3d</fix>
</trkpt>
<trkpt lat="40.072063" lon="-105.2298475">
  <ele>1583.0</ele>
  <time>2026-08-28T17:55:42Z</time>
  <course>26.04</course>
  <speed>0.022360679774997897</speed>
  <fix>3d</fix>
</trkpt>
<trkpt lat="40.0720632" lon="-105.2298476">
  <ele>1583.0</ele>
  <time>2026-08-28T17:55:42Z</time>
  <course>70.81</course>
  <speed>0.0</speed>
  <fix>3d</fix>
</trkpt>
<trkpt lat="40.072063" lon="-105.2298475">
  <ele>1583.01</ele>
  <time>2026-08-28T17:55:42Z</time>
  <course>26.04</course>
  <speed>0.022360679774997897</speed>
  <fix>3d</fix>
</trkpt>
<trkpt lat="40.0720632" lon="-105.2298476">
  <ele>1583.0</ele>
  <time>2026-08-28T17:55:42Z</time>
  <course>70.81</course>
  <speed>0.0</speed>
  <fix>3d</fix>
</trkpt>
<trkpt lat="40.072063" lon="-105.2298475">
  <ele>1583.01</ele>
  <time>2026-08-28T17:55:42Z</time>
  <course>26.04</course>
  <speed>0.022360679774997897</speed>
  <fix>3d</fix>
</trkpt>
<trkpt lat="40.0720632" lon="-105.2298476">
  <ele>1583.0</ele>
  <time>2026-08-28T17:55:42Z</time>
  <course>73.66</course>
  <speed>0.0</speed>
  <fix>3d</fix>
</trkpt>
<trkpt lat="40.072063" lon="-105.2298475">
  <ele>1583.02</ele>
  <time>2026-08-28T17:55:42Z</time>
  <course>26.04</course>
  <speed>0.022360679774997897</speed>
  <fix>3d</fix>
</trkpt>
<trkpt lat="40.0720632" lon="-105.2298476">
  <ele>1583.0</ele>
  <time>2026-08-28T17:55:42Z</time>
  <course>73.66</course>
  <speed>0.0</speed>
  <fix>3d</fix>
</trkpt>
<trkpt lat="40.072063" lon="-105.2298475">
  <ele>1583.02</ele>
  <time>2026-08-28T17:55:42Z</time>
  <course>26.04</course>
  <speed>0.022360679774997897</speed>
  <fix>3d</fix>
</trkpt>
<trkpt lat="40.0720632" lon="-105.2298476">
  <ele>1583.0</ele>
  <time>2026-08-28T17:55:42Z</time>
  <course>76.48</course>
  <speed>0.0</speed>
  <fix>3d</fix>
</trkpt>
<trkpt lat="40.072063" lon="-105.2298475">
  <ele>1583.02</ele>
  <time>2026-08-28T17:55:42Z</time>
  <course>26.04</course>
  <speed>0.022360679774997897</speed>
  <fix>3d</fix>
</trkpt>
<trkpt lat="40.0720632" lon="-105.2298476">
  <ele>1583.0</ele>
  <time>2026-08-28T17:55:42Z</time>
  <course>76.48</course>
  <speed>0.0</speed>
  <fix>3d</fix>
</trkpt>
<trkpt lat="40.072063" lon="-105.2298475">
  <ele>1583.03</ele>
  <time>2026-08-28T17:55:42Z</time>
  <course>26.04</course>
  <speed>0.022360679774997897</speed>
  <fix>3d</fix>
</trkpt>
<trkpt lat="40.0720632" lon="-105.2298476">
  <ele>1583.0</ele>
  <time>2026-08-28T17:55:42Z</time>
  <course>79.23</course>
  <speed>0.0</speed>
  <fix>3d</fix>
</trkpt>
<trkpt lat="40.072063" lon="-105.2298475">
  <ele>1583.03</ele>
  <time>2026-08-28T17:55:42Z</time>
  <course>26.04</course>
  <speed>0.022360679774997897</speed>
  <fix>3d</fix>
</trkpt>
<trkpt lat="40.0720632" lon="-105.2298476">
  <ele>1583.0</ele>
  <time>2026-08-28T17:55:42Z</time>
  <course>79.23</course>
  <speed>0.0</speed>
  <fix>3d</fix>
</trkpt>
<trkpt lat="40.072063" lon="-105.2298475">
  <ele>1583.04</ele>
  <time>2026-08-28T17:55:42Z</time>
  <course>26.04</course>
  <speed>0.022360679774997897</speed>
  <fix>3d</fix>
</trkpt>
<trkpt lat="40.0720632" lon="-105.2298476">
  <ele>1583.0</ele>
  <time>2026-08-28T17:55:42Z</time>
  <course>81.89</course>
  <speed>0.0</speed>
  <fix>3d</fix>
</trkpt>
<trkpt lat="40.072063" lon="-105.2298475">
  <ele>1583.05</ele>
  <time>2026-08-28T17:55:42Z</time>
  <course>26.04</course>
  <speed>0.022360679774997897</speed>
  <fix>3d</fix>
</trkpt>
<trkpt lat="40.0720632" lon="-105.2298476">
  <ele>1583.0</ele>
  <time>2026-08-28T17:55:42Z</time>
  <course>81.89</course>
  <speed>0.0</speed>
  <fix>3d</fix>
</trkpt>
<trkpt lat="40.072063" lon="-105.2298475">
  <ele>1583.05</ele>
  <time>2026-08-28T17:55:42Z</time>
  <course>26.04</course>
  <speed>0.022360679774997897</speed>
  <fix>3d</fix>
</trkpt>
<trkpt lat="40.0720632" lon="-105.2298476">
  <ele>1583.0</ele>
  <time>2026-08-28T17:55:42Z</time>
  <course>84.44</course>
  <speed>0.0</speed>
  <fix>3d</fix>
</trkpt>
<trkpt lat="40.072063" lon="-105.2298475">
  <ele>1583.05</ele>
  <time>2026-08-28T17:55:42Z</time>
  <course>26.04</course>
  <speed>0.022360679774997897</speed>
  <fix>3d</fix>
</trkpt>
<trkpt lat="40.0720632" lon="-105.2298476">
  <ele>1583.0</ele>
  <time>2026-08-28T17:55:42Z</time>
  <course>84.44</course>
  <speed>0.0</speed>
  <fix>3d</fix>
</trkpt>
<trkpt lat="40.072063" lon="-105.2298475">
  <ele>1583.05</ele>
  <time>2026-08-28T17:55:42Z</time>
  <course>26.04</course>
  <speed>0.022360679774997897</speed>
  <fix>3d</fix>
</trkpt>
<trkpt lat="40.0720632" lon="-105.2298476">
  <ele>1583.0</ele>
  <time>2026-08-28T17:55:42Z</time>
  <course>86.87</course>
  <speed>0.0</speed>
  <fix>3d</fix>
</trkpt>
<trkpt lat="40.072063" lon="-105.2298475">
  <ele>1583.05</ele>
  <time>2026-08-28T17:55:42Z</time>
  <course>26.04</course>
  <speed>0.022360679774997897</speed>
  <fix>3d</fix>
</trkpt>
<trkpt lat="40.0720632" lon="-105.2298476">
  <ele>1583.0</ele>
  <time>2026-08-28T17:55:42Z</time>
  <course>86.87</course>
  <speed>0.0</speed>
  <fix>3d</fix>
</trkpt>
<trkpt lat="40.072063" lon="-105.2298475">
  <ele>1583.04</ele>
  <time>2026-08-28T17:55:42Z</time>
  <course>26.04</course>
  <speed>0.022360679774997897</speed>
  <fix>3d</fix>
</trkpt>
<trkpt lat="40.0720632" lon="-105.2298476">
  <ele>1583.0</ele>
  <time>2026-08-28T17:55:42Z</time>
  <course>89.18</course>
  <speed>0.0</speed>
  <fix>3d</fix>
</trkpt>
<trkpt lat="40.072063" lon="-105.2298475">
  <ele>1583.04</ele>
  <time>2026-08-28T17:55:42Z</time>
  <course>26.04</course>
  <speed>0.022360679774997897</speed>
  <fix>3d</fix>
</trkpt>
<trkpt lat="40.0720632" lon="-105.2298476">
  <ele>1583.0</ele>
  <time>2026-08-28T17:55:42Z</time>
  <course>89.18</course>
  <speed>0.0</speed>
  <fix>3d</fix>
</trkpt>
<trkpt lat="40.072063" lon="-105.2298475">
  <ele>1583.03</ele>
  <time>2026-08-28T17:55:42Z</time>
  <course>26.04</course>
  <speed>0.022360679774997897</speed>
  <fix>3d</fix>
</trkpt>
<trkpt lat="40.0720632" lon="-105.2298476">
  <ele>1583.0</ele>
  <time>2026-08-28T17:55:42Z</time>
  <course>91.34</course>
  <speed>0.0</speed>
  <fix>3d</fix>
</trkpt>
<trkpt lat="40.072063" lon="-105.2298475">
  <ele>1583.03</ele>
  <time>2026-08-28T17:55:42Z</time>
  <course>26.04</course>
  <speed>0.022360679774997897</speed>
  <fix>3d</fix>
</trkpt>
<trkpt lat="40.0720632" lon="-105.2298476">
  <ele>1583.0</ele>
  <time>2026-08-28T17:55:42Z</time>
  <course>91.34</course>
  <speed>0.0</speed>
  <fix>3d</fix>
</trkpt>
<trkpt lat="40.072063" lon="-105.2298475">
  <ele>1583.02</ele>
  <time>2026-08-28T17:55:42Z</time>
  <course>26.04</course>
  <speed>0.022360679774997897</speed>
  <fix>3d</fix>
</trkpt>
<trkpt lat="40.0720632" lon="-105.2298476">
  <ele>1583.0</ele>
  <time>2026-08-28T17:55:42Z</time>
  <course>93.36</course>
  <speed>0.0</speed>
  <fix>3d</fix>
</trkpt>
<trkpt lat="40.072063" lon="-105.2298475">
  <ele>1583.02</ele>
  <time>2026-08-28T17:55:42Z</time>
  <course>26.04</course>
  <speed>0.02</speed>
  <fix>3d</fix>
</trkpt>
<trkpt lat="40.0720632" lon="-105.2298476">
  <ele>1583.0</ele>
  <time>2026-08-28T17:55:42Z</time>
  <course>93.36</course>
  <speed>0.0</speed>
  <fix>3d</fix>
</trkpt>
<trkpt lat="40.072063" lon="-105.2298475">
  <ele>1583.01</ele>
  <time>2026-08-28T17:55:42Z</time>
  <course>26.04</course>
  <speed>0.02</speed>
  <fix>3d</fix>
</trkpt>
<trkpt lat="40.0720632" lon="-105.2298476">
  <ele>1583.0</ele>
  <time>2026-08-28T17:55:42Z</time>
  <course>95.23</course>
  <speed>0.0</speed>
  <fix>3d</fix>
</trkpt>
<trkpt lat="40.072063" lon="-105.2298475">
  <ele>1583.0</ele>
  <time>2026-08-28T17:55:42Z</time>
  <course>26.04</course>
  <speed>0.02</speed>
  <fix>3d</fix>
</trkpt>
<trkpt lat="40.0720632" lon="-105.2298476">
  <ele>1583.0</ele>
  <time>2026-08-28T17:55:42Z</time>
  <course>95.23</course>
  <speed>0.0</speed>
  <fix>3d</fix>
</trkpt>
<trkpt lat="40.072063" lon="-105.2298475">
  <ele>1583.0</ele>
  <time>2026-08-28T17:55:42Z</time>
  <course>26.04</course>
  <speed>0.02</speed>
  <fix>3d</fix>
</trkpt>
<trkpt lat="40.0720632" lon="-105.2298476">
  <ele>1583.0</ele>
  <time>2026-08-28T17:55:42Z</time>
  <course>96.96</course>
  <speed>0.0</speed>
  <fix>3d</fix>
</trkpt>
<trkpt lat="40.072063" lon="-105.2298475">
  <ele>1582.99</ele>
  <time>2026-08-28T17:55:42Z</time>
  <course>26.04</course>
  <speed>0.02</speed>
  <fix>3d</fix>
</trkpt>
<trkpt lat="40.0720632" lon="-105.2298476">
  <ele>1583.0</ele>
  <time>2026-08-28T17:55:42Z</time>
  <course>96.96</course>
  <speed>0.0</speed>
  <fix>3d</fix>
</trkpt>
<trkpt lat="40.072063" lon="-105.2298475">
  <ele>1582.98</ele>
  <time>2026-08-28T17:55:42Z</time>
  <course>26.04</course>
  <speed>0.02</speed>
  <fix>3d</fix>
</trkpt>
<trkpt lat="40.0720632" lon="-105.2298476">
  <ele>1583.0</ele>
  <time>2026-08-28T17:55:42Z</time>
  <course>98.56</course>
  <speed>0.0</speed>
  <fix>3d</fix>
</trkpt>
<trkpt lat="40.072063" lon="-105.2298475">
  <ele>1582.98</ele>
  <time>2026-08-28T17:55:42Z</time>
  <course>26.04</course>
  <speed>0.02</speed>
  <fix>3d</fix>
</trkpt>
<trkpt lat="40.0720632" lon="-105.2298476">
  <ele>1583.0</ele>
  <time>2026-08-28T17:55:42Z</time>
  <course>98.56</course>
  <speed>0.0</speed>
  <fix>3d</fix>
</trkpt>
<trkpt lat="40.072063" lon="-105.2298475">
  <ele>1582.97</ele>
  <time>2026-08-28T17:55:42Z</time>
  <course>26.04</course>
  <speed>0.02</speed>
  <fix>3d</fix>
</trkpt>
<trkpt lat="40.0720632" lon="-105.2298476">
  <ele>1583.0</ele>
  <time>2026-08-28T17:55:42Z</time>
  <course>100.03</course>
  <speed>0.0</speed>
  <fix>3d</fix>
</trkpt>
<trkpt lat="40.072063" lon="-105.2298475">
  <ele>1582.96</ele>
  <time>2026-08-28T17:55:42Z</time>
  <course>26.04</course>
  <speed>0.02</speed>
  <fix>3d</fix>
</trkpt>
<trkpt lat="40.0720632" lon="-105.2298476">
  <ele>1583.0</ele>
  <time>2026-08-28T17:55:42Z</time>
  <course>100.03</course>
  <speed>0.0</speed>
  <fix>3d</fix>
</trkpt>
<trkpt lat="40.072063" lon="-105.2298475">
  <ele>1582.95</ele>
  <time>2026-08-28T17:55:42Z</time>
  <course>26.04</course>
  <speed>0.02</speed>
  <fix>3d</fix>
</trkpt>
<trkpt lat="40.0720632" lon="-105.2298476">
  <ele>1583.0</ele>
  <time>2026-08-28T17:55:42Z</time>
  <course>101.38</course>
  <speed>0.0</speed>
  <fix>3d</fix>
</trkpt>
<trkpt lat="40.072063" lon="-105.2298475">
  <ele>1582.94</ele>
  <time>2026-08-28T17:55:42Z</time>
  <course>26.04</course>
  <speed>0.02</speed>
  <fix>3d</fix>
</trkpt>
<trkpt lat="40.0720632" lon="-105.2298476">
  <ele>1583.0</ele>
  <time>2026-08-28T17:55:42Z</time>
  <course>101.38</course>
  <speed>0.0</speed>
  <fix>3d</fix>
</trkpt>
<trkpt lat="40.072063" lon="-105.2298475">
  <ele>1582.94</ele>
  <time>2026-08-28T17:55:42Z</time>
  <course>26.04</course>
  <speed>0.02</speed>
  <fix>3d</fix>
</trkpt>
<trkpt lat="40.0720632" lon="-105.2298476">
  <ele>1583.0</ele>
  <time>2026-08-28T17:55:42Z</time>
  <course>102.61</course>
  <speed>0.0</speed>
  <fix>3d</fix>
</trkpt>
<trkpt lat="40.072063" lon="-105.2298475">
  <ele>1582.93</ele>
  <time>2026-08-28T17:55:42Z</time>
  <course>26.03</course>
  <speed>0.02</speed>
  <fix>3d</fix>
</trkpt>
<trkpt lat="40.0720632" lon="-105.2298476">
  <ele>1583.0</ele>
  <time>2026-08-28T17:55:42Z</time>
  <course>102.61</course>
  <speed>0.0</speed>
  <fix>3d</fix>
</trkpt>
<trkpt lat="40.072063" lon="-105.2298475">
  <ele>1582.93</ele>
  <time>2026-08-28T17:55:42Z</time>
  <course>26.03</course>
  <speed>0.02</speed>
  <fix>3d</fix>
</trkpt>
<trkpt lat="40.0720632" lon="-105.2298476">
  <ele>1583.0</ele>
  <time>2026-08-28T17:55:42Z</time>
  <course>103.73</course>
  <speed>0.0</speed>
  <fix>3d</fix>
</trkpt>
<trkpt lat="40.072063" lon="-105.2298475">
  <ele>1582.92</ele>
  <time>2026-08-28T17:55:42Z</time>
  <course>26.03</course>
  <speed>0.02</speed>
  <fix>3d</fix>
</trkpt>
<trkpt lat="40.0720632" lon="-105.2298476">
  <ele>1583.0</ele>
  <time>2026-08-28T17:55:42Z</time>
  <course>103.73</course>
  <speed>0.0</speed>
  <fix>3d</fix>
</trkpt>
<trkpt lat="40.072063" lon="-105.2298475">
  <ele>1582.92</ele>
  <time>2026-08-28T17:55:42Z</time>
  <course>26.03</course>
  <speed>0.02</speed>
  <fix>3d</fix>
</trkpt>
<trkpt lat="40.0720632" lon="-105.2298476">
  <ele>1583.0</ele>
  <time>2026-08-28T17:55:42Z</time>
  <course>104.76</course>
  <speed>0.0</speed>
  <fix>3d</fix>
</trkpt>
<trkpt lat="40.072063" lon="-105.2298475">
  <ele>1582.92</ele>
  <time>2026-08-28T17:55:42Z</time>
  <course>26.03</course>
  <speed>0.02</speed>
  <fix>3d</fix>
</trkpt>
<trkpt lat="40.0720632" lon="-105.2298476">
  <ele>1583.0</ele>
  <time>2026-08-28T17:55:42Z</time>
  <course>104.76</course>
  <speed>0.0</speed>
  <fix>3d</fix>
</trkpt>
<trkpt lat="40.072063" lon="-105.2298475">
  <ele>1582.92</ele>
  <time>2026-08-28T17:55:42Z</time>
  <course>26.03</course>
  <speed>0.02</speed>
  <fix>3d</fix>
</trkpt>
<trkpt lat="40.0720632" lon="-105.2298476">
  <ele>1583.0</ele>
  <time>2026-08-28T17:55:42Z</time>
  <course>105.7</course>
  <speed>0.0</speed>
  <fix>3d</fix>
</trkpt>
<trkpt lat="40.072063" lon="-105.2298475">
  <ele>1582.91</ele>
  <time>2026-08-28T17:55:42Z</time>
  <course>26.03</course>
  <speed>0.02</speed>
  <fix>3d</fix>
</trkpt>
<trkpt lat="40.0720632" lon="-105.2298476">
  <ele>1583.0</ele>
  <time>2026-08-28T17:55:42Z</time>
  <course>105.7</course>
  <speed>0.0</speed>
  <fix>3d</fix>
</trkpt>
<trkpt lat="40.072063" lon="-105.2298475">
  <ele>1582.91</ele>
  <time>2026-08-28T17:55:42Z</time>
  <course>26.03</course>
  <speed>0.02</speed>
  <fix>3d</fix>
</trkpt>
<trkpt lat="40.0720632" lon="-105.2298476">
  <ele>1583.0</ele>
  <time>2026-08-28T17:55:42Z</time>
  <course>106.54</course>
  <speed>0.0</speed>
  <fix>3d</fix>
</trkpt>
<trkpt lat="40.072063" lon="-105.2298475">
  <ele>1582.91</ele>
  <time>2026-08-28T17:55:42Z</time>
  <course>26.03</course>
  <speed>0.02</speed>
  <fix>3d</fix>
</trkpt>
<trkpt lat="40.0720632" lon="-105.2298476">
  <ele>1583.0</ele>
  <time>2026-08-28T17:55:42Z</time>
  <course>106.54</course>
  <speed>0.0</speed>
  <fix>3d</fix>
</trkpt>
<trkpt lat="40.072063" lon="-105.2298475">
  <ele>1582.91</ele>
  <time>2026-08-28T17:55:42Z</time>
  <course>26.03</course>
  <speed>0.02</speed>
  <fix>3d</fix>
</trkpt>
<trkpt lat="40.0720632" lon="-105.2298476">
  <ele>1583.0</ele>
  <time>2026-08-28T17:55:42Z</time>
  <course>107.31</course>
  <speed>0.0</speed>
  <fix>3d</fix>
</trkpt>
<trkpt lat="40.072063" lon="-105.2298475">
  <ele>1582.91</ele>
  <time>2026-08-28T17:55:42Z</time>
  <course>26.03</course>
  <speed>0.02</speed>
  <fix>3d</fix>
</trkpt>
<trkpt lat="40.0720632" lon="-105.2298476">
  <ele>1583.0</ele>
  <time>2026-08-28T17:55:42Z</time>
  <course>107.31</course>
  <speed>0.0</speed>
  <fix>3d</fix>
</trkpt>
<trkpt lat="40.072063" lon="-105.2298475">
  <ele>1582.92</ele>
  <time>2026-08-28T17:55:42Z</time>
  <course>26.03</course>
  <speed>0.02</speed>
  <fix>3d</fix>
</trkpt>
<trkpt lat="40.0720632" lon="-105.2298476">
  <ele>1583.0</ele>
  <time>2026-08-28T17:55:42Z</time>
  <course>108.01</course>
  <speed>0.0</speed>
  <fix>3d</fix>
</trkpt>
<trkpt lat="40.072063" lon="-105.2298475">
  <ele>1582.93</ele>
  <time>2026-08-28T17:55:42Z</time>
  <course>26.03</course>
  <speed>0.02</speed>
  <fix>3d</fix>
</trkpt>
<trkpt lat="40.0720632" lon="-105.2298476">
  <ele>1583.0</ele>
  <time>2026-08-28T17:55:42Z</time>
  <course>108.01</course>
  <speed>0.0</speed>
  <fix>3d</fix>
</trkpt>
<trkpt lat="40.072063" lon="-105.2298475">
  <ele>1582.93</ele>
  <time>2026-08-28T17:55:42Z</time>
  <course>26.03</course>
  <speed>0.02</speed>
  <fix>3d</fix>
</trkpt>
<trkpt lat="40.0720632" lon="-105.2298476">
  <ele>1583.0</ele>
  <time>2026-08-28T17:55:42Z</time>
  <course>108.65</course>
  <speed>0.0</speed>
  <fix>3d</fix>
</trkpt>
<trkpt lat="40.072063" lon="-105.2298475">
  <ele>1582.94</ele>
  <time>2026-08-28T17:55:42Z</time>
  <course>26.03</course>
  <speed>0.02</speed>
  <fix>3d</fix>
</trkpt>
<trkpt lat="40.0720632" lon="-105.2298476">
  <ele>1583.0</ele>
  <time>2026-08-28T17:55:42Z</time>
  <course>108.65</course>
  <speed>0.0</speed>
  <fix>3d</fix>
</trkpt>
<trkpt lat="40.072063" lon="-105.2298475">
  <ele>1582.95</ele>
  <time>2026-08-28T17:55:42Z</time>
  <course>26.03</course>
  <speed>0.02</speed>
  <fix>3d</fix>
</trkpt>
<trkpt lat="40.0720632" lon="-105.2298476">
  <ele>1583.0</ele>
  <time>2026-08-28T17:55:42Z</time>
  <course>109.22</course>
  <speed>0.0</speed>
  <fix>3d</fix>
</trkpt>
<trkpt lat="40.072063" lon="-105.2298475">
  <ele>1582.96</ele>
  <time>2026-08-28T17:55:42Z</time>
  <course>26.03</course>
  <speed>0.02</speed>
  <fix>3d</fix>
</trkpt>
<trkpt lat="40.0720632" lon="-105.2298476">
  <ele>1583.0</ele>
  <time>2026-08-28T17:55:42Z</time>
  <course>109.22</course>
  <speed>0.0</speed>
  <fix>3d</fix>
</trkpt>
<trkpt lat="40.072063" lon="-105.2298475">
  <ele>1582.97</ele>
  <time>2026-08-28T17:55:42Z</time>
  <course>26.03</course>
  <speed>0.02</speed>
  <fix>3d</fix>
</trkpt>
<trkpt lat="40.0720632" lon="-105.2298476">
  <ele>1583.0</ele>
  <time>2026-08-28T17:55:42Z</time>
  <course>109.75</course>
  <speed>0.0</speed>
  <fix>3d</fix>
</trkpt>
<trkpt lat="40.072063" lon="-105.2298475">
  <ele>1582.97</ele>
  <time>2026-08-28T17:55:42Z</time>
  <course>26.03</course>
  <speed>0.02</speed>
  <fix>3d</fix>
</trkpt>
<trkpt lat="40.0720632" lon="-105.2298476">
  <ele>1583.0</ele>
  <time>2026-08-28T17:55:42Z</time>
  <course>109.75</course>
  <speed>0.0</speed>
  <fix>3d</fix>
</trkpt>
<trkpt lat="40.072063" lon="-105.2298475">
  <ele>1582.97</ele>
  <time>2026-08-28T17:55:42Z</time>
  <course>26.03</course>
  <speed>0.02</speed>
  <fix>3d</fix>
</trkpt>
<trkpt lat="40.0720632" lon="-105.2298476">
  <ele>1583.0</ele>
  <time>2026-08-28T17:55:42Z</time>
  <course>110.22</course>
  <speed>0.0</speed>
  <fix>3d</fix>
</trkpt>
<trkpt lat="40.072063" lon="-105.2298475">
  <ele>1582.97</ele>
  <time>2026-08-28T17:55:42Z</time>
  <course>26.03</course>
  <speed>0.02</speed>
  <fix>3d</fix>
</trkpt>
<trkpt lat="40.0720632" lon="-105.2298476">
  <ele>1583.0</ele>
  <time>2026-08-28T17:55:42Z</time>
  <course>110.22</course>
  <speed>0.0</speed>
  <fix>3d</fix>
</trkpt>
<trkpt lat="40.072063" lon="-105.2298475">
  <ele>1582.97</ele>
  <time>2026-08-28T17:55:42Z</time>
  <course>26.03</course>
  <speed>0.02</speed>
  <fix>3d</fix>
</trkpt>
<trkpt lat="40.0720632" lon="-105.2298476">
  <ele>1583.0</ele>
  <time>2026-08-28T17:55:42Z</time>
  <course>110.65</course>
  <speed>0.0</speed>
  <fix>3d</fix>
</trkpt>
<trkpt lat="40.072063" lon="-105.2298475">
  <ele>1582.97</ele>
  <time>2026-08-28T17:55:42Z</time>
  <course>26.03</course>
  <speed>0.02</speed>
  <fix>3d</fix>
</trkpt>
<trkpt lat="40.0720632" lon="-105.2298476">
  <ele>1583.0</ele>
  <time>2026-08-28T17:55:42Z</time>
  <course>110.65</course>
  <speed>0.0</speed>
  <fix>3d</fix>
</trkpt>
<trkpt lat="40.072063" lon="-105.2298475">
  <ele>1582.97</ele>
  <time>2026-08-28T17:55:42Z</time>
  <course>26.03</course>
  <speed>0.02</speed>
  <fix>3d</fix>
</trkpt>
<trkpt lat="40.0720632" lon="-105.2298476">
  <ele>1583.0</ele>
  <time>2026-08-28T17:55:42Z</time>
  <course>111.03</course>
  <speed>0.0</speed>
  <fix>3d</fix>
</trkpt>
<trkpt lat="40.072063" lon="-105.2298475">
  <ele>1582.97</ele>
  <time>2026-08-28T17:55:42Z</time>
  <course>26.03</course>
  <speed>0.02</speed>
  <fix>3d</fix>
</trkpt>
<trkpt lat="40.0720632" lon="-105.2298476">
  <ele>1583.0</ele>
  <time>2026-08-28T17:55:42Z</time>
  <course>111.03</course>
  <speed>0.0</speed>
  <fix>3d</fix>
</trkpt>
<trkpt lat="40.072063" lon="-105.2298475">
  <ele>1582.96</ele>
  <time>2026-08-28T17:55:42Z</time>
  <course>26.03</course>
  <speed>0.02</speed>
  <fix>3d</fix>
</trkpt>
<trkpt lat="40.0720632" lon="-105.2298476">
  <ele>1583.0</ele>
  <time>2026-08-28T17:55:42Z</time>
  <course>111.39</course>
  <speed>0.0</speed>
  <fix>3d</fix>
</trkpt>
<trkpt lat="40.072063" lon="-105.2298475">
  <ele>1582.96</ele>
  <time>2026-08-28T17:55:42Z</time>
  <course>26.02</course>
  <speed>0.02</speed>
  <fix>3d</fix>
</trkpt>
<trkpt lat="40.0720632" lon="-105.2298476">
  <ele>1583.0</ele>
  <time>2026-08-28T17:55:42Z</time>
  <course>111.39</course>
  <speed>0.0</speed>
  <fix>3d</fix>
</trkpt>
<trkpt lat="40.072063" lon="-105.2298475">
  <ele>1582.95</ele>
  <time>2026-08-28T17:55:42Z</time>
  <course>26.02</course>
  <speed>0.02</speed>
  <fix>3d</fix>
</trkpt>
<trkpt lat="40.0720632" lon="-105.2298476">
  <ele>1583.0</ele>
  <time>2026-08-28T17:55:42Z</time>
  <course>111.71</course>
  <speed>0.0</speed>
  <fix>3d</fix>
</trkpt>
<trkpt lat="40.072063" lon="-105.2298475">
  <ele>1582.95</ele>
  <time>2026-08-28T17:55:42Z</time>
  <course>26.02</course>
  <speed>0.02</speed>
  <fix>3d</fix>
</trkpt>
<trkpt lat="40.0720632" lon="-105.2298476">
  <ele>1583.0</ele>
  <time>2026-08-28T17:55:42Z</time>
  <course>111.71</course>
  <speed>0.0</speed>
  <fix>3d</fix>
</trkpt>
<trkpt lat="40.072063" lon="-105.2298475">
  <ele>1582.95</ele>
  <time>2026-08-28T17:55:42Z</time>
  <course>26.02</course>
  <speed>0.02</speed>
  <fix>3d</fix>
</trkpt>
<trkpt lat="40.0720632" lon="-105.2298476">
  <ele>1583.0</ele>
  <time>2026-08-28T17:55:42Z</time>
  <course>111.99</course>
  <speed>0.0</speed>
  <fix>3d</fix>
</trkpt>
<trkpt lat="40.072063" lon="-105.2298475">
  <ele>1582.95</ele>
  <time>2026-08-28T17:55:42Z</time>
  <course>26.02</course>
  <speed>0.02</speed>
  <fix>3d</fix>
</trkpt>
<trkpt lat="40.0720632" lon="-105.2298476">
  <ele>1583.0</ele>
  <time>2026-08-28T17:55:42Z</time>
  <course>111.99</course>
  <speed>0.0</speed>
  <fix>3d</fix>
</trkpt>
<trkpt lat="40.072063" lon="-105.2298475">
  <ele>1582.95</ele>
  <time>2026-08-28T17:55:42Z</time>
  <course>26.02</course>
  <speed>0.02</speed>
  <fix>3d</fix>
</trkpt>
<trkpt lat="40.0720632" lon="-105.2298476">
  <ele>1583.0</ele>
  <time>2026-08-28T17:55:42Z</time>
  <course>112.25</course>
  <speed>0.0</speed>
  <fix>3d</fix>
</trkpt>
<trkpt lat="40.072063" lon="-105.2298475">
  <ele>1582.95</ele>
  <time>2026-08-28T17:55:42Z</time>
  <course>26.02</course>
  <speed>0.02</speed>
  <fix>3d</fix>
</trkpt>
<trkpt lat="40.0720632" lon="-105.2298476">
  <ele>1583.0</ele>
  <time>2026-08-28T17:55:42Z</time>
  <course>112.25</course>
  <speed>0.0</speed>
  <fix>3d</fix>
</trkpt>
<trkpt lat="40.072063" lon="-105.2298475">
  <ele>1582.95</ele>
  <time>2026-08-28T17:55:42Z</time>
  <course>26.02</course>
  <speed>0.02</speed>
  <fix>3d</fix>
</trkpt>
<trkpt lat="40.0720632" lon="-105.2298476">
  <ele>1583.0</ele>
  <time>2026-08-28T17:55:42Z</time>
  <course>112.49</course>
  <speed>0.0</speed>
  <fix>3d</fix>
</trkpt>
<trkpt lat="40.072063" lon="-105.2298475">
  <ele>1582.94</ele>
  <time>2026-08-28T17:55:42Z</time>
  <course>26.02</course>
  <speed>0.02</speed>
  <fix>3d</fix>
</trkpt>
<trkpt lat="40.0720632" lon="-105.2298476">
  <ele>1583.0</ele>
  <time>2026-08-28T17:55:42Z</time>
  <course>112.49</course>
  <speed>0.0</speed>
  <fix>3d</fix>
</trkpt>
<trkpt lat="40.072063" lon="-105.2298475">
  <ele>1582.94</ele>
  <time>2026-08-28T17:55:42Z</time>
  <course>26.02</course>
  <speed>0.02</speed>
  <fix>3d</fix>
</trkpt>
<trkpt lat="40.0720632" lon="-105.2298476">
  <ele>1583.0</ele>
  <time>2026-08-28T17:55:42Z</time>
  <course>112.7</course>
  <speed>0.0</speed>
  <fix>3d</fix>
</trkpt>
<trkpt lat="40.072063" lon="-105.2298475">
  <ele>1582.93</ele>
  <time>2026-08-28T17:55:42Z</time>
  <course>26.02</course>
  <speed>0.02</speed>
  <fix>3d</fix>
</trkpt>
<trkpt lat="40.0720632" lon="-105.2298476">
  <ele>1583.0</ele>
  <time>2026-08-28T17:55:42Z</time>
  <course>112.7</course>
  <speed>0.0</speed>
  <fix>3d</fix>
</trkpt>
<trkpt lat="40.072063" lon="-105.2298475">
  <ele>1582.93</ele>
  <time>2026-08-28T17:55:42Z</time>
  <course>26.02</course>
  <speed>0.02</speed>
  <fix>3d</fix>
</trkpt>
<trkpt lat="40.0720632" lon="-105.2298476">
  <ele>1583.0</ele>
  <time>2026-08-28T17:55:42Z</time>
  <course>112.9</course>
  <speed>0.0</speed>
  <fix>3d</fix>
</trkpt>
<trkpt lat="40.072063" lon="-105.2298475">
  <ele>1582.93</ele>
  <time>2026-08-28T17:55:42Z</time>
  <course>26.02</course>
  <speed>0.02</speed>
  <fix>3d</fix>
</trkpt>
<trkpt lat="40.0720632" lon="-105.2298476">
  <ele>1583.0</ele>
  <time>2026-08-28T17:55:42Z</time>
  <course>112.9</course>
  <speed>0.0</speed>
  <fix>3d</fix>
</trkpt>
<trkpt lat="40.072063" lon="-105.2298475">
  <ele>1582.93</ele>
  <time>2026-08-28T17:55:42Z</time>
  <course>26.02</course>
  <speed>0.02</speed>
  <fix>3d</fix>
</trkpt>
<trkpt lat="40.0720632" lon="-105.2298476">
  <ele>1583.0</ele>
  <time>2026-08-28T17:55:42Z</time>
  <course>113.07</course>
  <speed>0.0</speed>
  <fix>3d</fix>
</trkpt>
<trkpt lat="40.072063" lon="-105.2298475">
  <ele>1582.93</ele>
  <time>2026-08-28T17:55:42Z</time>
  <course>26.02</course>
  <speed>0.02</speed>
  <fix>3d</fix>
</trkpt>
<trkpt lat="40.0720632" lon="-105.2298476">
  <ele>1583.0</ele>
  <time>2026-08-28T17:55:42Z</time>
  <course>113.07</course>
  <speed>0.0</speed>
  <fix>3d</fix>
</trkpt>
<trkpt lat="40.072063" lon="-105.2298475">
  <ele>1582.93</ele>
  <time>2026-08-28T17:55:42Z</time>
  <course>26.02</course>
  <speed>0.02</speed>
  <fix>3d</fix>
</trkpt>
<trkpt lat="40.0720632" lon="-105.2298476">
  <ele>1583.0</ele>
  <time>2026-08-28T17:55:42Z</time>
  <course>113.23</course>
  <speed>0.0</speed>
  <fix>3d</fix>
</trkpt>
<trkpt lat="40.072063" lon="-105.2298475">
  <ele>1582.93</ele>
  <time>2026-08-28T17:55:42Z</time>
  <course>26.02</course>
  <speed>0.02</speed>
  <fix>3d</fix>
</trkpt>
<trkpt lat="40.0720632" lon="-105.2298476">
  <ele>1583.0</ele>
  <time>2026-08-28T17:55:42Z</time>
  <course>113.23</course>
  <speed>0.0</speed>
  <fix>3d</fix>
</trkpt>
<trkpt lat="40.072063" lon="-105.2298475">
  <ele>1582.93</ele>
  <time>2026-08-28T17:55:42Z</time>
  <course>26.02</course>
  <speed>0.02</speed>
  <fix>3d</fix>
</trkpt>
<trkpt lat="40.0720632" lon="-105.2298476">
  <ele>1583.0</ele>
  <time>2026-08-28T17:55:42Z</time>
  <course>113.37</course>
  <speed>0.0</speed>
  <fix>3d</fix>
</trkpt>
<trkpt lat="40.072063" lon="-105.2298475">
  <ele>1582.93</ele>
  <time>2026-08-28T17:55:42Z</time>
  <course>26.02</course>
  <speed>0.02</speed>
  <fix>3d</fix>
</trkpt>
<trkpt lat="40.0720632" lon="-105.2298476">
  <ele>1583.0</ele>
  <time>2026-08-28T17:55:42Z</time>
  <course>113.37</course>
  <speed>0.0</speed>
  <fix>3d</fix>
</trkpt>
<trkpt lat="40.072063" lon="-105.2298475">
  <ele>1582.93</ele>
  <time>2026-08-28T17:55:42Z</time>
  <course>26.02</course>
  <speed>0.02</speed>
  <fix>3d</fix>
</trkpt>
<trkpt lat="40.0720632" lon="-105.2298476">
  <ele>1583.0</ele>
  <time>2026-08-28T17:55:42Z</time>
  <course>113.5</course>
  <speed>0.0</speed>
  <fix>3d</fix>
</trkpt>
<trkpt lat="40.072063" lon="-105.2298475">
  <ele>1582.93</ele>
  <time>2026-08-28T17:55:42Z</time>
  <course>26.02</course>
  <speed>0.02</speed>
  <fix>3d</fix>
</trkpt>
<trkpt lat="40.0720632" lon="-105.2298476">
  <ele>1583.0</ele>
  <time>2026-08-28T17:55:42Z</time>
  <course>113.5</course>
  <speed>0.0</speed>
  <fix>3d</fix>
</trkpt>
<trkpt lat="40.072063" lon="-105.2298475">
  <ele>1582.93</ele>
  <time>2026-08-28T17:55:42Z</time>
  <course>26.02</course>
  <speed>0.02</speed>
  <fix>3d</fix>
</trkpt>
<trkpt lat="40.0720632" lon="-105.2298476">
  <ele>1583.0</ele>
  <time>2026-08-28T17:55:42Z</time>
  <course>113.62</course>
  <speed>0.0</speed>
  <fix>3d</fix>
</trkpt>
<trkpt lat="40.072063" lon="-105.2298475">
  <ele>1582.93</ele>
  <time>2026-08-28T17:55:42Z</time>
  <course>26.02</course>
  <speed>0.02</speed>
  <fix>3d</fix>
</trkpt>
<trkpt lat="40.0720632" lon="-105.2298476">
  <ele>1583.0</ele>
  <time>2026-08-28T17:55:42Z</time>
  <course>113.62</course>
  <speed>0.0</speed>
  <fix>3d</fix>
</trkpt>
<trkpt lat="40.072063" lon="-105.2298475">
  <ele>1582.93</ele>
  <time>2026-08-28T17:55:42Z</time>
  <course>26.01</course>
  <speed>0.02</speed>
  <fix>3d</fix>
</trkpt>
<trkpt lat="40.0720632" lon="-105.2298476">
  <ele>1583.0</ele>
  <time>2026-08-28T17:55:42Z</time>
  <course>113.73</course>
  <speed>0.0</speed>
  <fix>3d</fix>
</trkpt>
<trkpt lat="40.072063" lon="-105.2298475">
  <ele>1582.93</ele>
  <time>2026-08-28T17:55:42Z</time>
  <course>26.01</course>
  <speed>0.02</speed>
  <fix>3d</fix>
</trkpt>
<trkpt lat="40.0720632" lon="-105.2298476">
  <ele>1583.0</ele>
  <time>2026-08-28T17:55:42Z</time>
  <course>113.73</course>
  <speed>0.0</speed>
  <fix>3d</fix>
</trkpt>
<trkpt lat="40.072063" lon="-105.2298475">
  <ele>1582.93</ele>
  <time>2026-08-28T17:55:42Z</time>
  <course>26.01</course>
  <speed>0.02</speed>
  <fix>3d</fix>
</trkpt>
<trkpt lat="40.0720632" lon="-105.2298476">
  <ele>1583.0</ele>
  <time>2026-08-28T17:55:42Z</time>
  <course>113.82</course>
  <speed>0.0</speed>
  <fix>3d</fix>
</trkpt>
<trkpt lat="40.072063" lon="-105.2298475">
  <ele>1582.93</ele>
  <time>2026-08-28T17:55:42Z</time>
  <course>26.01</course>
  <speed>0.02</speed>
  <fix>3d</fix>
</trkpt>
<trkpt lat="40.0720632" lon="-105.2298476">
  <ele>1583.0</ele>
  <time>2026-08-28T17:55:42Z</time>
  <course>113.82</course>
  <speed>0.0</speed>
  <fix>3d</fix>
</trkpt>
<trkpt lat="40.072063" lon="-105.2298475">
  <ele>1582.93</ele>
  <time>2026-08-28T17:55:42Z</time>
  <course>26.01</course>
  <speed>0.02</speed>
  <fix>3d</fix>
</trkpt>
<trkpt lat="40.0720632" lon="-105.2298476">
  <ele>1583.0</ele>
  <time>2026-08-28T17:55:42Z</time>
  <course>113.91</course>
  <speed>0.0</speed>
  <fix>3d</fix>
</trkpt>
<trkpt lat="40.072063" lon="-105.2298475">
  <ele>1582.93</ele>
  <time>2026-08-28T17:55:42Z</time>
  <course>26.01</course>
  <speed>0.02</speed>
  <fix>3d</fix>
</trkpt>
<trkpt lat="40.0720632" lon="-105.2298476">
  <ele>1583.0</ele>
  <time>2026-08-28T17:55:42Z</time>
  <course>113.91</course>
  <speed>0.0</speed>
  <fix>3d</fix>
</trkpt>
<trkpt lat="40.072063" lon="-105.2298475">
  <ele>1582.93</ele>
  <time>2026-08-28T17:55:42Z</time>
  <course>26.01</course>
  <speed>0.02</speed>
  <fix>3d</fix>
</trkpt>
<trkpt lat="40.0720632" lon="-105.2298476">
  <ele>1583.0</ele>
  <time>2026-08-28T17:55:42Z</time>
  <course>113.99</course>
  <speed>0.0</speed>
  <fix>3d</fix>
</trkpt>
<trkpt lat="40.072063" lon="-105.2298475">
  <ele>1582.93</ele>
  <time>2026-08-28T17:55:43Z</time>
  <course>26.01</course>
  <speed>0.02</speed>
  <fix>3d</fix>
</trkpt>
<trkpt lat="40.0720632" lon="-105.2298476">
  <ele>1583.0</ele>
  <time>2026-08-28T17:55:43Z</time>
  <course>113.99</course>
  <speed>0.0</speed>
  <fix>3d</fix>
</trkpt>
<trkpt lat="40.072063" lon="-105.2298475">
  <ele>1582.93</ele>
  <time>2026-08-28T17:55:43Z</time>
  <course>26.01</course>
  <speed>0.02</speed>
  <fix>3d</fix>
</trkpt>
<trkpt lat="40.0720632" lon="-105.2298476">
  <ele>1583.0</ele>
  <time>2026-08-28T17:55:43Z</time>
  <course>114.06</course>
  <speed>0.0</speed>
  <fix>3d</fix>
</trkpt>
<trkpt lat="40.072063" lon="-105.2298475">
  <ele>1582.93</ele>
  <time>2026-08-28T17:55:43Z</time>
  <course>26.01</course>
  <speed>0.02</speed>
  <fix>3d</fix>
</trkpt>
<trkpt lat="40.0720632" lon="-105.2298476">
  <ele>1583.0</ele>
  <time>2026-08-28T17:55:43Z</time>
  <course>114.06</course>
  <speed>0.0</speed>
  <fix>3d</fix>
</trkpt>
<trkpt lat="40.072063" lon="-105.2298475">
  <ele>1582.93</ele>
  <time>2026-08-28T17:55:43Z</time>
  <course>26.01</course>
  <speed>0.02</speed>
  <fix>3d</fix>
</trkpt>
<trkpt lat="40.0720632" lon="-105.2298476">
  <ele>1583.0</ele>
  <time>2026-08-28T17:55:43Z</time>
  <course>114.12</course>
  <speed>0.0</speed>
  <fix>3d</fix>
</trkpt>
<trkpt lat="40.072063" lon="-105.2298475">
  <ele>1582.94</ele>
  <time>2026-08-28T17:55:43Z</time>
  <course>26.01</course>
  <speed>0.02</speed>
  <fix>3d</fix>
</trkpt>
<trkpt lat="40.0720632" lon="-105.2298476">
  <ele>1583.0</ele>
  <time>2026-08-28T17:55:43Z</time>
  <course>114.12</course>
  <speed>0.0</speed>
  <fix>3d</fix>
</trkpt>
<trkpt lat="40.072063" lon="-105.2298475">
  <ele>1582.94</ele>
  <time>2026-08-28T17:55:43Z</time>
  <course>26.01</course>
  <speed>0.02</speed>
  <fix>3d</fix>
</trkpt>
<trkpt lat="40.0720632" lon="-105.2298476">
  <ele>1583.0</ele>
  <time>2026-08-28T17:55:43Z</time>
  <course>114.18</course>
  <speed>0.0</speed>
  <fix>3d</fix>
</trkpt>
<trkpt lat="40.072063" lon="-105.2298475">
  <ele>1582.95</ele>
  <time>2026-08-28T17:55:43Z</time>
  <course>26.01</course>
  <speed>0.02</speed>
  <fix>3d</fix>
</trkpt>
<trkpt lat="40.0720632" lon="-105.2298476">
  <ele>1583.0</ele>
  <time>2026-08-28T17:55:43Z</time>
  <course>114.18</course>
  <speed>0.0</speed>
  <fix>3d</fix>
</trkpt>
<trkpt lat="40.072063" lon="-105.2298475">
  <ele>1582.95</ele>
  <time>2026-08-28T17:55:43Z</time>
  <course>26.01</course>
  <speed>0.02</speed>
  <fix>3d</fix>
</trkpt>
<trkpt lat="40.0720632" lon="-105.2298476">
  <ele>1583.0</ele>
  <time>2026-08-28T17:55:43Z</time>
  <course>114.24</course>
  <speed>0.0</speed>
  <fix>3d</fix>
</trkpt>
<trkpt lat="40.072063" lon="-105.2298475">
  <ele>1582.96</ele>
  <time>2026-08-28T17:55:43Z</time>
  <course>26.01</course>
  <speed>0.02</speed>
  <fix>3d</fix>
</trkpt>
<trkpt lat="40.0720632" lon="-105.2298476">
  <ele>1583.0</ele>
  <time>2026-08-28T17:55:43Z</time>
  <course>114.24</course>
  <speed>0.0</speed>
  <fix>3d</fix>
</trkpt>
<trkpt lat="40.072063" lon="-105.2298475">
  <ele>1582.97</ele>
  <time>2026-08-28T17:55:43Z</time>
  <course>26.01</course>
  <speed>0.02</speed>
  <fix>3d</fix>
</trkpt>
<trkpt lat="40.0720632" lon="-105.2298476">
  <ele>1583.0</ele>
  <time>2026-08-28T17:55:43Z</time>
  <course>114.28</course>
  <speed>0.0</speed>
  <fix>3d</fix>
</trkpt>
<trkpt lat="40.072063" lon="-105.2298475">
  <ele>1582.98</ele>
  <time>2026-08-28T17:55:43Z</time>
  <course>26.01</course>
  <speed>0.02</speed>
  <fix>3d</fix>
</trkpt>
<trkpt lat="40.0720632" lon="-105.2298476">
  <ele>1583.0</ele>
  <time>2026-08-28T17:55:43Z</time>
  <course>114.28</course>
  <speed>0.0</speed>
  <fix>3d</fix>
</trkpt>
<trkpt lat="40.072063" lon="-105.2298475">
  <ele>1582.99</ele>
  <time>2026-08-28T17:55:43Z</time>
  <course>26.01</course>
  <speed>0.02</speed>
  <fix>3d</fix>
</trkpt>
<trkpt lat="40.0720632" lon="-105.2298476">
  <ele>1583.0</ele>
  <time>2026-08-28T17:55:43Z</time>
  <course>114.33</course>
  <speed>0.0</speed>
  <fix>3d</fix>
</trkpt>
<trkpt lat="40.072063" lon="-105.2298475">
  <ele>1582.99</ele>
  <time>2026-08-28T17:55:43Z</time>
  <course>26.0</course>
  <speed>0.02</speed>
  <fix>3d</fix>
</trkpt>
<trkpt lat="40.0720632" lon="-105.2298476">
  <ele>1583.0</ele>
  <time>2026-08-28T17:55:43Z</time>
  <course>114.33</course>
  <speed>0.0</speed>
  <fix>3d</fix>
</trkpt>
<trkpt lat="40.072063" lon="-105.2298475">
  <ele>1583.0</ele>
  <time>2026-08-28T17:55:43Z</time>
  <course>26.0</course>
  <speed>0.02</speed>
  <fix>3d</fix>
</trkpt>
<trkpt lat="40.0720632" lon="-105.2298476">
  <ele>1583.0</ele>
  <time>2026-08-28T17:55:43Z</time>
  <course>114.37</course>
  <speed>0.0</speed>
  <fix>3d</fix>
</trkpt>
<trkpt lat="40.072063" lon="-105.2298475">
  <ele>1583.0</ele>
  <time>2026-08-28T17:55:43Z</time>
  <course>26.0</course>
  <speed>0.02</speed>
  <fix>3d</fix>
</trkpt>
<trkpt lat="40.0720632" lon="-105.2298476">
  <ele>1583.0</ele>
  <time>2026-08-28T17:55:43Z</time>
  <course>114.37</course>
  <speed>0.0</speed>
  <fix>3d</fix>
</trkpt>
<trkpt lat="40.072063" lon="-105.2298475">
  <ele>1582.99</ele>
  <time>2026-08-28T17:55:43Z</time>
  <course>26.0</course>
  <speed>0.02</speed>
  <fix>3d</fix>
</trkpt>
<trkpt lat="40.0720632" lon="-105.2298476">
  <ele>1583.0</ele>
  <time>2026-08-28T17:55:43Z</time>
  <course>114.4</course>
  <speed>0.0</speed>
  <fix>3d</fix>
</trkpt>
<trkpt lat="40.072063" lon="-105.2298475">
  <ele>1582.99</ele>
  <time>2026-08-28T17:55:43Z</time>
  <course>26.0</course>
  <speed>0.02</speed>
  <fix>3d</fix>
</trkpt>
<trkpt lat="40.0720632" lon="-105.2298476">
  <ele>1583.0</ele>
  <time>2026-08-28T17:55:43Z</time>
  <course>114.4</course>
  <speed>0.0</speed>
  <fix>3d</fix>
</trkpt>
<trkpt lat="40.072063" lon="-105.2298475">
  <ele>1582.99</ele>
  <time>2026-08-28T17:55:43Z</time>
  <course>26.0</course>
  <speed>0.02</speed>
  <fix>3d</fix>
</trkpt>
<trkpt lat="40.0720632" lon="-105.2298476">
  <ele>1583.0</ele>
  <time>2026-08-28T17:55:43Z</time>
  <course>114.43</course>
  <speed>0.0</speed>
  <fix>3d</fix>
</trkpt>
<trkpt lat="40.072063" lon="-105.2298475">
  <ele>1582.98</ele>
  <time>2026-08-28T17:55:43Z</time>
  <course>26.0</course>
  <speed>0.02</speed>
  <fix>3d</fix>
</trkpt>
<trkpt lat="40.0720632" lon="-105.2298476">
  <ele>1583.0</ele>
  <time>2026-08-28T17:55:43Z</time>
  <course>114.43</course>
  <speed>0.0</speed>
  <fix>3d</fix>
</trkpt>
<trkpt lat="40.072063" lon="-105.2298475">
  <ele>1582.98</ele>
  <time>2026-08-28T17:55:43Z</time>
  <course>26.0</course>
  <speed>0.02</speed>
  <fix>3d</fix>
</trkpt>
<trkpt lat="40.0720632" lon="-105.2298476">
  <ele>1583.0</ele>
  <time>2026-08-28T17:55:43Z</time>
  <course>114.46</course>
  <speed>0.0</speed>
  <fix>3d</fix>
</trkpt>
<trkpt lat="40.072063" lon="-105.2298475">
  <ele>1582.97</ele>
  <time>2026-08-28T17:55:43Z</time>
  <course>26.0</course>
  <speed>0.02</speed>
  <fix>3d</fix>
</trkpt>
<trkpt lat="40.0720632" lon="-105.2298476">
  <ele>1583.0</ele>
  <time>2026-08-28T17:55:43Z</time>
  <course>114.46</course>
  <speed>0.0</speed>
  <fix>3d</fix>
</trkpt>
<trkpt lat="40.072063" lon="-105.2298475">
  <ele>1582.96</ele>
  <time>2026-08-28T17:55:43Z</time>
  <course>26.0</course>
  <speed>0.02</speed>
  <fix>3d</fix>
</trkpt>
<trkpt lat="40.0720632" lon="-105.2298476">
  <ele>1583.0</ele>
  <time>2026-08-28T17:55:43Z</time>
  <course>114.49</course>
  <speed>0.0</speed>
  <fix>3d</fix>
</trkpt>
<trkpt lat="40.072063" lon="-105.2298475">
  <ele>1582.96</ele>
  <time>2026-08-28T17:55:43Z</time>
  <course>26.0</course>
  <speed>0.02</speed>
  <fix>3d</fix>
</trkpt>
<trkpt lat="40.0720632" lon="-105.2298476">
  <ele>1583.0</ele>
  <time>2026-08-28T17:55:43Z</time>
  <course>114.49</course>
  <speed>0.0</speed>
  <fix>3d</fix>
</trkpt>
<trkpt lat="40.072063" lon="-105.2298475">
  <ele>1582.95</ele>
  <time>2026-08-28T17:55:43Z</time>
  <course>26.0</course>
  <speed>0.02</speed>
  <fix>3d</fix>
</trkpt>
<trkpt lat="40.0720632" lon="-105.2298476">
  <ele>1583.0</ele>
  <time>2026-08-28T17:55:43Z</time>
  <course>114.51</course>
  <speed>0.0</speed>
  <fix>3d</fix>
</trkpt>
<trkpt lat="40.072063" lon="-105.2298475">
  <ele>1582.96</ele>
  <time>2026-08-28T17:55:43Z</time>
  <course>26.0</course>
  <speed>0.02</speed>
  <fix>3d</fix>
</trkpt>
<trkpt lat="40.0720632" lon="-105.2298476">
  <ele>1583.0</ele>
  <time>2026-08-28T17:55:43Z</time>
  <course>114.51</course>
  <speed>0.0</speed>
  <fix>3d</fix>
</trkpt>
<trkpt lat="40.072063" lon="-105.2298475">
  <ele>1582.96</ele>
  <time>2026-08-28T17:55:43Z</time>
  <course>26.0</course>
  <speed>0.02</speed>
  <fix>3d</fix>
</trkpt>
<trkpt lat="40.0720632" lon="-105.2298476">
  <ele>1583.0</ele>
  <time>2026-08-28T17:55:43Z</time>
  <course>114.53</course>
  <speed>0.0</speed>
  <fix>3d</fix>
</trkpt>
<trkpt lat="40.072063" lon="-105.2298475">
  <ele>1582.96</ele>
  <time>2026-08-28T17:55:43Z</time>
  <course>26.0</course>
  <speed>0.02</speed>
  <fix>3d</fix>
</trkpt>
<trkpt lat="40.0720632" lon="-105.2298476">
  <ele>1583.0</ele>
  <time>2026-08-28T17:55:43Z</time>
  <course>114.53</course>
  <speed>0.0</speed>
  <fix>3d</fix>
</trkpt>
<trkpt lat="40.072063" lon="-105.2298475">
  <ele>1582.97</ele>
  <time>2026-08-28T17:55:43Z</time>
  <course>26.0</course>
  <speed>0.02</speed>
  <fix>3d</fix>
</trkpt>
<trkpt lat="40.0720632" lon="-105.2298476">
  <ele>1583.0</ele>
  <time>2026-08-28T17:55:43Z</time>
  <course>114.55</course>
  <speed>0.0</speed>
  <fix>3d</fix>
</trkpt>
<trkpt lat="40.072063" lon="-105.2298475">
  <ele>1582.98</ele>
  <time>2026-08-28T17:55:43Z</time>
  <course>26.0</course>
  <speed>0.02</speed>
  <fix>3d</fix>
</trkpt>
<trkpt lat="40.0720632" lon="-105.2298476">
  <ele>1583.0</ele>
  <time>2026-08-28T17:55:43Z</time>
  <course>114.55</course>
  <speed>0.0</speed>
  <fix>3d</fix>
</trkpt>
<trkpt lat="40.072063" lon="-105.2298475">
  <ele>1582.99</ele>
  <time>2026-08-28T17:55:43Z</time>
  <course>25.99</course>
  <speed>0.02</speed>
  <fix>3d</fix>
</trkpt>
<trkpt lat="40.0720632" lon="-105.2298476">
  <ele>1583.0</ele>
  <time>2026-08-28T17:55:43Z</time>
  <course>114.57</course>
  <speed>0.0</speed>
  <fix>3d</fix>
</trkpt>
<trkpt lat="40.072063" lon="-105.2298475">
  <ele>1583.0</ele>
  <time>2026-08-28T17:55:43Z</time>
  <course>25.99</course>
  <speed>0.02</speed>
  <fix>3d</fix>
</trkpt>
<trkpt lat="40.0720632" lon="-105.2298476">
  <ele>1583.0</ele>
  <time>2026-08-28T17:55:43Z</time>
  <course>114.57</course>
  <speed>0.0</speed>
  <fix>3d</fix>
</trkpt>
<trkpt lat="40.072063" lon="-105.2298475">
  <ele>1583.0</ele>
  <time>2026-08-28T17:55:43Z</time>
  <course>25.99</course>
  <speed>0.02</speed>
  <fix>3d</fix>
</trkpt>
<trkpt lat="40.0720632" lon="-105.2298476">
  <ele>1583.0</ele>
  <time>2026-08-28T17:55:43Z</time>
  <course>114.59</course>
  <speed>0.0</speed>
  <fix>3d</fix>
</trkpt>
<trkpt lat="40.072063" lon="-105.2298475">
  <ele>1583.01</ele>
  <time>2026-08-28T17:55:43Z</time>
  <course>25.99</course>
  <speed>0.02</speed>
  <fix>3d</fix>
</trkpt>
<trkpt lat="40.0720632" lon="-105.2298476">
  <ele>1583.0</ele>
  <time>2026-08-28T17:55:43Z</time>
  <course>114.59</course>
  <speed>0.0</speed>
  <fix>3d</fix>
</trkpt>
<trkpt lat="40.072063" lon="-105.2298475">
  <ele>1583.01</ele>
  <time>2026-08-28T17:55:43Z</time>
  <course>25.99</course>
  <speed>0.02</speed>
  <fix>3d</fix>
</trkpt>
<trkpt lat="40.0720632" lon="-105.2298476">
  <ele>1583.0</ele>
  <time>2026-08-28T17:55:43Z</time>
  <course>114.6</course>
  <speed>0.0</speed>
  <fix>3d</fix>
</trkpt>
<trkpt lat="40.072063" lon="-105.2298475">
  <ele>1583.02</ele>
  <time>2026-08-28T17:55:43Z</time>
  <course>25.99</course>
  <speed>0.02</speed>
  <fix>3d</fix>
</trkpt>
<trkpt lat="40.0720632" lon="-105.2298476">
  <ele>1583.0</ele>
  <time>2026-08-28T17:55:43Z</time>
  <course>114.6</course>
  <speed>0.0</speed>
  <fix>3d</fix>
</trkpt>
<trkpt lat="40.072063" lon="-105.2298475">
  <ele>1583.02</ele>
  <time>2026-08-28T17:55:43Z</time>
  <course>25.99</course>
  <speed>0.02</speed>
  <fix>3d</fix>
</trkpt>
<trkpt lat="40.0720632" lon="-105.2298476">
  <ele>1583.0</ele>
  <time>2026-08-28T17:55:43Z</time>
  <course>114.61</course>
  <speed>0.0</speed>
  <fix>3d</fix>
</trkpt>
<trkpt lat="40.072063" lon="-105.2298475">
  <ele>1583.03</ele>
  <time>2026-08-28T17:55:43Z</time>
  <course>25.99</course>
  <speed>0.02</speed>
  <fix>3d</fix>
</trkpt>
<trkpt lat="40.0720632" lon="-105.2298476">
  <ele>1583.0</ele>
  <time>2026-08-28T17:55:43Z</time>
  <course>114.61</course>
  <speed>0.0</speed>
  <fix>3d</fix>
</trkpt>
<trkpt lat="40.072063" lon="-105.2298475">
  <ele>1583.03</ele>
  <time>2026-08-28T17:55:43Z</time>
  <course>25.99</course>
  <speed>0.02</speed>
  <fix>3d</fix>
</trkpt>
<trkpt lat="40.0720632" lon="-105.2298476">
  <ele>1583.0</ele>
  <time>2026-08-28T17:55:43Z</time>
  <course>114.63</course>
  <speed>0.0</speed>
  <fix>3d</fix>
</trkpt>
<trkpt lat="40.072063" lon="-105.2298475">
  <ele>1583.03</ele>
  <time>2026-08-28T17:55:43Z</time>
  <course>25.99</course>
  <speed>0.02</speed>
  <fix>3d</fix>
</trkpt>
<trkpt lat="40.0720632" lon="-105.2298476">
  <ele>1583.0</ele>
  <time>2026-08-28T17:55:43Z</time>
  <course>114.63</course>
  <speed>0.0</speed>
  <fix>3d</fix>
</trkpt>
<trkpt lat="40.072063" lon="-105.2298475">
  <ele>1583.04</ele>
  <time>2026-08-28T17:55:43Z</time>
  <course>25.99</course>
  <speed>0.02</speed>
  <fix>3d</fix>
</trkpt>
<trkpt lat="40.0720632" lon="-105.2298476">
  <ele>1583.0</ele>
  <time>2026-08-28T17:55:43Z</time>
  <course>114.64</course>
  <speed>0.0</speed>
  <fix>3d</fix>
</trkpt>
<trkpt lat="40.072063" lon="-105.2298475">
  <ele>1583.04</ele>
  <time>2026-08-28T17:55:43Z</time>
  <course>25.99</course>
  <speed>0.02</speed>
  <fix>3d</fix>
</trkpt>
<trkpt lat="40.0720632" lon="-105.2298476">
  <ele>1583.0</ele>
  <time>2026-08-28T17:55:43Z</time>
  <course>114.64</course>
  <speed>0.0</speed>
  <fix>3d</fix>
</trkpt>
<trkpt lat="40.072063" lon="-105.2298475">
  <ele>1583.04</ele>
  <time>2026-08-28T17:55:43Z</time>
  <course>25.99</course>
  <speed>0.02</speed>
  <fix>3d</fix>
</trkpt>
<trkpt lat="40.0720632" lon="-105.2298476">
  <ele>1583.0</ele>
  <time>2026-08-28T17:55:43Z</time>
  <course>114.65</course>
  <speed>0.0</speed>
  <fix>3d</fix>
</trkpt>
<trkpt lat="40.072063" lon="-105.2298475">
  <ele>1583.04</ele>
  <time>2026-08-28T17:55:43Z</time>
  <course>25.99</course>
  <speed>0.02</speed>
  <fix>3d</fix>
</trkpt>
<trkpt lat="40.0720632" lon="-105.2298476">
  <ele>1583.0</ele>
  <time>2026-08-28T17:55:43Z</time>
  <course>114.65</course>
  <speed>0.0</speed>
  <fix>3d</fix>
</trkpt>
<trkpt lat="40.072063" lon="-105.2298475">
  <ele>1583.04</ele>
  <time>2026-08-28T17:55:43Z</time>
  <course>25.99</course>
  <speed>0.02</speed>
  <fix>3d</fix>
</trkpt>
<trkpt lat="40.0720632" lon="-105.2298476">
  <ele>1583.0</ele>
  <time>2026-08-28T17:55:43Z</time>
  <course>114.65</course>
  <speed>0.0</speed>
  <fix>3d</fix>
</trkpt>
<trkpt lat="40.072063" lon="-105.2298475">
  <ele>1583.03</ele>
  <time>2026-08-28T17:55:43Z</time>
  <course>25.99</course>
  <speed>0.02</speed>
  <fix>3d</fix>
</trkpt>
<trkpt lat="40.0720632" lon="-105.2298476">
  <ele>1583.0</ele>
  <time>2026-08-28T17:55:43Z</time>
  <course>114.65</course>
  <speed>0.0</speed>
  <fix>3d</fix>
</trkpt>
<trkpt lat="40.072063" lon="-105.2298475">
  <ele>1583.03</ele>
  <time>2026-08-28T17:55:43Z</time>
  <course>25.98</course>
  <speed>0.02</speed>
  <fix>3d</fix>
</trkpt>
<trkpt lat="40.0720632" lon="-105.2298476">
  <ele>1583.0</ele>
  <time>2026-08-28T17:55:43Z</time>
  <course>114.66</course>
  <speed>0.0</speed>
  <fix>3d</fix>
</trkpt>
<trkpt lat="40.072063" lon="-105.2298475">
  <ele>1583.03</ele>
  <time>2026-08-28T17:55:43Z</time>
  <course>25.98</course>
  <speed>0.02</speed>
  <fix>3d</fix>
</trkpt>
<trkpt lat="40.0720632" lon="-105.2298476">
  <ele>1583.0</ele>
  <time>2026-08-28T17:55:43Z</time>
  <course>114.66</course>
  <speed>0.0</speed>
  <fix>3d</fix>
</trkpt>
<trkpt lat="40.072063" lon="-105.2298475">
  <ele>1583.03</ele>
  <time>2026-08-28T17:55:43Z</time>
  <course>25.98</course>
  <speed>0.02</speed>
  <fix>3d</fix>
</trkpt>
<trkpt lat="40.0720632" lon="-105.2298476">
  <ele>1583.0</ele>
  <time>2026-08-28T17:55:43Z</time>
  <course>114.67</course>
  <speed>0.0</speed>
  <fix>3d</fix>
</trkpt>
<trkpt lat="40.072063" lon="-105.2298475">
  <ele>1583.03</ele>
  <time>2026-08-28T17:55:43Z</time>
  <course>25.98</course>
  <speed>0.02</speed>
  <fix>3d</fix>
</trkpt>
<trkpt lat="40.0720632" lon="-105.2298476">
  <ele>1583.0</ele>
  <time>2026-08-28T17:55:43Z</time>
  <course>114.67</course>
  <speed>0.0</speed>
  <fix>3d</fix>
</trkpt>
<trkpt lat="40.072063" lon="-105.2298475">
  <ele>1583.03</ele>
  <time>2026-08-28T17:55:43Z</time>
  <course>25.98</course>
  <speed>0.02</speed>
  <fix>3d</fix>
</trkpt>
<trkpt lat="40.0720632" lon="-105.2298476">
  <ele>1583.0</ele>
  <time>2026-08-28T17:55:43Z</time>
  <course>114.68</course>
  <speed>0.0</speed>
  <fix>3d</fix>
</trkpt>
<trkpt lat="40.072063" lon="-105.2298475">
  <ele>1583.03</ele>
  <time>2026-08-28T17:55:43Z</time>
  <course>25.98</course>
  <speed>0.02</speed>
  <fix>3d</fix>
</trkpt>
<trkpt lat="40.0720632" lon="-105.2298476">
  <ele>1583.0</ele>
  <time>2026-08-28T17:55:43Z</time>
  <course>114.68</course>
  <speed>0.0</speed>
  <fix>3d</fix>
</trkpt>
<trkpt lat="40.072063" lon="-105.2298475">
  <ele>1583.03</ele>
  <time>2026-08-28T17:55:43Z</time>
  <course>25.98</course>
  <speed>0.02</speed>
  <fix>3d</fix>
</trkpt>
<trkpt lat="40.0720632" lon="-105.2298476">
  <ele>1583.0</ele>
  <time>2026-08-28T17:55:43Z</time>
  <course>114.68</course>
  <speed>0.0</speed>
  <fix>3d</fix>
</trkpt>
<trkpt lat="40.072063" lon="-105.2298475">
  <ele>1583.03</ele>
  <time>2026-08-28T17:55:43Z</time>
  <course>25.98</course>
  <speed>0.02</speed>
  <fix>3d</fix>
</trkpt>
<trkpt lat="40.0720632" lon="-105.2298476">
  <ele>1583.0</ele>
  <time>2026-08-28T17:55:43Z</time>
  <course>114.68</course>
  <speed>0.0</speed>
  <fix>3d</fix>
</trkpt>
<trkpt lat="40.072063" lon="-105.2298475">
  <ele>1583.03</ele>
  <time>2026-08-28T17:55:43Z</time>
  <course>25.98</course>
  <speed>0.02</speed>
  <fix>3d</fix>
</trkpt>
<trkpt lat="40.0720632" lon="-105.2298476">
  <ele>1583.0</ele>
  <time>2026-08-28T17:55:43Z</time>
  <course>114.69</course>
  <speed>0.0</speed>
  <fix>3d</fix>
</trkpt>
<trkpt lat="40.072063" lon="-105.2298475">
  <ele>1583.02</ele>
  <time>2026-08-28T17:55:43Z</time>
  <course>25.98</course>
  <speed>0.02</speed>
  <fix>3d</fix>
</trkpt>
<trkpt lat="40.0720632" lon="-105.2298476">
  <ele>1583.0</ele>
  <time>2026-08-28T17:55:43Z</time>
  <course>114.69</course>
  <speed>0.0</speed>
  <fix>3d</fix>
</trkpt>
<trkpt lat="40.072063" lon="-105.2298475">
  <ele>1583.02</ele>
  <time>2026-08-28T17:55:43Z</time>
  <course>25.98</course>
  <speed>0.02</speed>
  <fix>3d</fix>
</trkpt>
<trkpt lat="40.0720632" lon="-105.2298476">
  <ele>1583.0</ele>
  <time>2026-08-28T17:55:43Z</time>
  <course>114.69</course>
  <speed>0.0</speed>
  <fix>3d</fix>
</trkpt>
<trkpt lat="40.072063" lon="-105.2298475">
  <ele>1583.02</ele>
  <time>2026-08-28T17:55:43Z</time>
  <course>25.98</course>
  <speed>0.02</speed>
  <fix>3d</fix>
</trkpt>
<trkpt lat="40.0720632" lon="-105.2298476">
  <ele>1583.0</ele>
  <time>2026-08-28T17:55:43Z</time>
  <course>114.69</course>
  <speed>0.0</speed>
  <fix>3d</fix>
</trkpt>
<trkpt lat="40.072063" lon="-105.2298475">
  <ele>1583.02</ele>
  <time>2026-08-28T17:55:43Z</time>
  <course>25.98</course>
  <speed>0.02</speed>
  <fix>3d</fix>
</trkpt>
<trkpt lat="40.0720632" lon="-105.2298476">
  <ele>1583.0</ele>
  <time>2026-08-28T17:55:43Z</time>
  <course>114.7</course>
  <speed>0.0</speed>
  <fix>3d</fix>
</trkpt>
<trkpt lat="40.072063" lon="-105.2298475">
  <ele>1583.03</ele>
  <time>2026-08-28T17:55:43Z</time>
  <course>25.98</course>
  <speed>0.02</speed>
  <fix>3d</fix>
</trkpt>
<trkpt lat="40.0720632" lon="-105.2298476">
  <ele>1583.0</ele>
  <time>2026-08-28T17:55:43Z</time>
  <course>114.7</course>
  <speed>0.0</speed>
  <fix>3d</fix>
</trkpt>
<trkpt lat="40.072063" lon="-105.2298475">
  <ele>1583.03</ele>
  <time>2026-08-28T17:55:43Z</time>
  <course>25.98</course>
  <speed>0.02</speed>
  <fix>3d</fix>
</trkpt>
<trkpt lat="40.0720632" lon="-105.2298476">
  <ele>1583.0</ele>
  <time>2026-08-28T17:55:43Z</time>
  <course>114.7</course>
  <speed>0.0</speed>
  <fix>3d</fix>
</trkpt>
<trkpt lat="40.072063" lon="-105.2298475">
  <ele>1583.03</ele>
  <time>2026-08-28T17:55:43Z</time>
  <course>25.98</course>
  <speed>0.02</speed>
  <fix>3d</fix>
</trkpt>
<trkpt lat="40.0720632" lon="-105.2298476">
  <ele>1583.0</ele>
  <time>2026-08-28T17:55:43Z</time>
  <course>114.7</course>
  <speed>0.0</speed>
  <fix>3d</fix>
</trkpt>
<trkpt lat="40.072063" lon="-105.2298475">
  <ele>1583.03</ele>
  <time>2026-08-28T17:55:43Z</time>
  <course>25.98</course>
  <speed>0.02</speed>
  <fix>3d</fix>
</trkpt>
<trkpt lat="40.0720632" lon="-105.2298476">
  <ele>1583.0</ele>
  <time>2026-08-28T17:55:43Z</time>
  <course>114.7</course>
  <speed>0.0</speed>
  <fix>3d</fix>
</trkpt>
<trkpt lat="40.072063" lon="-105.2298475">
  <ele>1583.03</ele>
  <time>2026-08-28T17:55:43Z</time>
  <course>25.97</course>
  <speed>0.02</speed>
  <fix>3d</fix>
</trkpt>
<trkpt lat="40.0720632" lon="-105.2298476">
  <ele>1583.0</ele>
  <time>2026-08-28T17:55:43Z</time>
  <course>114.7</course>
  <speed>0.0</speed>
  <fix>3d</fix>
</trkpt>
<trkpt lat="40.072063" lon="-105.2298475">
  <ele>1583.03</ele>
  <time>2026-08-28T17:55:43Z</time>
  <course>25.97</course>
  <speed>0.02</speed>
  <fix>3d</fix>
</trkpt>
<trkpt lat="40.0720632" lon="-105.2298476">
  <ele>1583.0</ele>
  <time>2026-08-28T17:55:43Z</time>
  <course>114.71</course>
  <speed>0.0</speed>
  <fix>3d</fix>
</trkpt>
<trkpt lat="40.072063" lon="-105.2298475">
  <ele>1583.03</ele>
  <time>2026-08-28T17:55:43Z</time>
  <course>25.97</course>
  <speed>0.02</speed>
  <fix>3d</fix>
</trkpt>
<trkpt lat="40.0720632" lon="-105.2298476">
  <ele>1583.0</ele>
  <time>2026-08-28T17:55:43Z</time>
  <course>114.71</course>
  <speed>0.0</speed>
  <fix>3d</fix>
</trkpt>
<trkpt lat="40.072063" lon="-105.2298475">
  <ele>1583.04</ele>
  <time>2026-08-28T17:55:43Z</time>
  <course>25.97</course>
  <speed>0.02</speed>
  <fix>3d</fix>
</trkpt>
<trkpt lat="40.0720632" lon="-105.2298476">
  <ele>1583.0</ele>
  <time>2026-08-28T17:55:43Z</time>
  <course>114.71</course>
  <speed>0.0</speed>
  <fix>3d</fix>
</trkpt>
<trkpt lat="40.072063" lon="-105.2298475">
  <ele>1583.04</ele>
  <time>2026-08-28T17:55:43Z</time>
  <course>25.97</course>
  <speed>0.02</speed>
  <fix>3d</fix>
</trkpt>
<trkpt lat="40.0720632" lon="-105.2298476">
  <ele>1583.0</ele>
  <time>2026-08-28T17:55:43Z</time>
  <course>114.71</course>
  <speed>0.0</speed>
  <fix>3d</fix>
</trkpt>
<trkpt lat="40.072063" lon="-105.2298475">
  <ele>1583.04</ele>
  <time>2026-08-28T17:55:43Z</time>
  <course>25.97</course>
  <speed>0.02</speed>
  <fix>3d</fix>
</trkpt>
<trkpt lat="40.0720632" lon="-105.2298476">
  <ele>1583.0</ele>
  <time>2026-08-28T17:55:43Z</time>
  <course>114.71</course>
  <speed>0.0</speed>
  <fix>3d</fix>
</trkpt>
<trkpt lat="40.072063" lon="-105.2298475">
  <ele>1583.04</ele>
  <time>2026-08-28T17:55:43Z</time>
  <course>25.97</course>
  <speed>0.02</speed>
  <fix>3d</fix>
</trkpt>
<trkpt lat="40.0720632" lon="-105.2298476">
  <ele>1583.0</ele>
  <time>2026-08-28T17:55:43Z</time>
  <course>114.71</course>
  <speed>0.0</speed>
  <fix>3d</fix>
</trkpt>
<trkpt lat="40.072063" lon="-105.2298475">
  <ele>1583.05</ele>
  <time>2026-08-28T17:55:43Z</time>
  <course>25.97</course>
  <speed>0.02</speed>
  <fix>3d</fix>
</trkpt>
<trkpt lat="40.0720632" lon="-105.2298476">
  <ele>1583.0</ele>
  <time>2026-08-28T17:55:43Z</time>
  <course>114.71</course>
  <speed>0.0</speed>
  <fix>3d</fix>
</trkpt>
<trkpt lat="40.072063" lon="-105.2298475">
  <ele>1583.05</ele>
  <time>2026-08-28T17:55:43Z</time>
  <course>25.97</course>
  <speed>0.02</speed>
  <fix>3d</fix>
</trkpt>
<trkpt lat="40.0720632" lon="-105.2298476">
  <ele>1583.0</ele>
  <time>2026-08-28T17:55:43Z</time>
  <course>114.71</course>
  <speed>0.0</speed>
  <fix>3d</fix>
</trkpt>
<trkpt lat="40.072063" lon="-105.2298475">
  <ele>1583.05</ele>
  <time>2026-08-28T17:55:43Z</time>
  <course>25.97</course>
  <speed>0.02</speed>
  <fix>3d</fix>
</trkpt>
<trkpt lat="40.0720632" lon="-105.2298476">
  <ele>1583.0</ele>
  <time>2026-08-28T17:55:43Z</time>
  <course>114.72</course>
  <speed>0.0</speed>
  <fix>3d</fix>
</trkpt>
<trkpt lat="40.072063" lon="-105.2298475">
  <ele>1583.05</ele>
  <time>2026-08-28T17:55:43Z</time>
  <course>25.97</course>
  <speed>0.02</speed>
  <fix>3d</fix>
</trkpt>
<trkpt lat="40.0720632" lon="-105.2298476">
  <ele>1583.0</ele>
  <time>2026-08-28T17:55:43Z</time>
  <course>114.72</course>
  <speed>0.0</speed>
  <fix>3d</fix>
</trkpt>
<trkpt lat="40.072063" lon="-105.2298475">
  <ele>1583.05</ele>
  <time>2026-08-28T17:55:43Z</time>
  <course>25.97</course>
  <speed>0.02</speed>
  <fix>3d</fix>
</trkpt>
<trkpt lat="40.0720632" lon="-105.2298476">
  <ele>1583.0</ele>
  <time>2026-08-28T17:55:43Z</time>
  <course>114.72</course>
  <speed>0.0</speed>
  <fix>3d</fix>
</trkpt>
<trkpt lat="40.072063" lon="-105.2298475">
  <ele>1583.05</ele>
  <time>2026-08-28T17:55:43Z</time>
  <course>25.97</course>
  <speed>0.02</speed>
  <fix>3d</fix>
</trkpt>
<trkpt lat="40.0720632" lon="-105.2298476">
  <ele>1583.0</ele>
  <time>2026-08-28T17:55:43Z</time>
  <course>114.72</course>
  <speed>0.0</speed>
  <fix>3d</fix>
</trkpt>
<trkpt lat="40.072063" lon="-105.2298475">
  <ele>1583.04</ele>
  <time>2026-08-28T17:55:43Z</time>
  <course>25.97</course>
  <speed>0.02</speed>
  <fix>3d</fix>
</trkpt>
<trkpt lat="40.0720632" lon="-105.2298476">
  <ele>1583.0</ele>
  <time>2026-08-28T17:55:43Z</time>
  <course>114.72</course>
  <speed>0.0</speed>
  <fix>3d</fix>
</trkpt>
<trkpt lat="40.072063" lon="-105.2298475">
  <ele>1583.04</ele>
  <time>2026-08-28T17:55:43Z</time>
  <course>25.97</course>
  <speed>0.02</speed>
  <fix>3d</fix>
</trkpt>
<trkpt lat="40.0720632" lon="-105.2298476">
  <ele>1583.0</ele>
  <time>2026-08-28T17:55:43Z</time>
  <course>114.72</course>
  <speed>0.0</speed>
  <fix>3d</fix>
</trkpt>
<trkpt lat="40.072063" lon="-105.2298475">
  <ele>1583.04</ele>
  <time>2026-08-28T17:55:43Z</time>
  <course>25.97</course>
  <speed>0.02</speed>
  <fix>3d</fix>
</trkpt>
<trkpt lat="40.0720632" lon="-105.2298476">
  <ele>1583.0</ele>
  <time>2026-08-28T17:55:43Z</time>
  <course>114.72</course>
  <speed>0.0</speed>
  <fix>3d</fix>
</trkpt>
<trkpt lat="40.072063" lon="-105.2298475">
  <ele>1583.03</ele>
  <time>2026-08-28T17:55:43Z</time>
  <course>25.96</course>
  <speed>0.02</speed>
  <fix>3d</fix>
</trkpt>
<trkpt lat="40.0720632" lon="-105.2298476">
  <ele>1583.0</ele>
  <time>2026-08-28T17:55:43Z</time>
  <course>114.72</course>
  <speed>0.0</speed>
  <fix>3d</fix>
</trkpt>
<trkpt lat="40.072063" lon="-105.2298475">
  <ele>1583.03</ele>
  <time>2026-08-28T17:55:43Z</time>
  <course>25.96</course>
  <speed>0.02</speed>
  <fix>3d</fix>
</trkpt>
<trkpt lat="40.0720632" lon="-105.2298476">
  <ele>1583.0</ele>
  <time>2026-08-28T17:55:43Z</time>
  <course>114.72</course>
  <speed>0.0</speed>
  <fix>3d</fix>
</trkpt>
<trkpt lat="40.072063" lon="-105.2298475">
  <ele>1583.03</ele>
  <time>2026-08-28T17:55:43Z</time>
  <course>25.96</course>
  <speed>0.02</speed>
  <fix>3d</fix>
</trkpt>
<trkpt lat="40.0720632" lon="-105.2298476">
  <ele>1583.0</ele>
  <time>2026-08-28T17:55:43Z</time>
  <course>114.72</course>
  <speed>0.0</speed>
  <fix>3d</fix>
</trkpt>
<trkpt lat="40.072063" lon="-105.2298475">
  <ele>1583.02</ele>
  <time>2026-08-28T17:55:43Z</time>
  <course>25.96</course>
  <speed>0.02</speed>
  <fix>3d</fix>
</trkpt>
<trkpt lat="40.0720632" lon="-105.2298476">
  <ele>1583.0</ele>
  <time>2026-08-28T17:55:43Z</time>
  <course>114.73</course>
  <speed>0.0</speed>
  <fix>3d</fix>
</trkpt>
<trkpt lat="40.072063" lon="-105.2298475">
  <ele>1583.02</ele>
  <time>2026-08-28T17:55:43Z</time>
  <course>25.96</course>
  <speed>0.02</speed>
  <fix>3d</fix>
</trkpt>
<trkpt lat="40.0720632" lon="-105.2298476">
  <ele>1583.0</ele>
  <time>2026-08-28T17:55:43Z</time>
  <course>114.73</course>
  <speed>0.0</speed>
  <fix>3d</fix>
</trkpt>
<trkpt lat="40.072063" lon="-105.2298475">
  <ele>1583.01</ele>
  <time>2026-08-28T17:55:43Z</time>
  <course>25.96</course>
  <speed>0.02</speed>
  <fix>3d</fix>
</trkpt>
<trkpt lat="40.0720632" lon="-105.2298476">
  <ele>1583.0</ele>
  <time>2026-08-28T17:55:43Z</time>
  <course>114.73</course>
  <speed>0.0</speed>
  <fix>3d</fix>
</trkpt>
<trkpt lat="40.072063" lon="-105.2298475">
  <ele>1583.01</ele>
  <time>2026-08-28T17:55:43Z</time>
  <course>25.96</course>
  <speed>0.02</speed>
  <fix>3d</fix>
</trkpt>
<trkpt lat="40.0720632" lon="-105.2298476">
  <ele>1583.0</ele>
  <time>2026-08-28T17:55:43Z</time>
  <course>114.73</course>
  <speed>0.0</speed>
  <fix>3d</fix>
</trkpt>
<trkpt lat="40.072063" lon="-105.2298475">
  <ele>1583.01</ele>
  <time>2026-08-28T17:55:43Z</time>
  <course>25.96</course>
  <speed>0.02</speed>
  <fix>3d</fix>
</trkpt>
<trkpt lat="40.0720632" lon="-105.2298476">
  <ele>1583.0</ele>
  <time>2026-08-28T17:55:43Z</time>
  <course>114.73</course>
  <speed>0.0</speed>
  <fix>3d</fix>
</trkpt>
<trkpt lat="40.072063" lon="-105.2298475">
  <ele>1583.02</ele>
  <time>2026-08-28T17:55:43Z</time>
  <course>25.96</course>
  <speed>0.02</speed>
  <fix>3d</fix>
</trkpt>
<trkpt lat="40.0720632" lon="-105.2298476">
  <ele>1583.0</ele>
  <time>2026-08-28T17:55:43Z</time>
  <course>114.73</course>
  <speed>0.0</speed>
  <fix>3d</fix>
</trkpt>
<trkpt lat="40.072063" lon="-105.2298475">
  <ele>1583.02</ele>
  <time>2026-08-28T17:55:43Z</time>
  <course>25.96</course>
  <speed>0.02</speed>
  <fix>3d</fix>
</trkpt>
<trkpt lat="40.0720632" lon="-105.2298476">
  <ele>1583.0</ele>
  <time>2026-08-28T17:55:43Z</time>
  <course>114.73</course>
  <speed>0.0</speed>
  <fix>3d</fix>
</trkpt>
<trkpt lat="40.072063" lon="-105.2298475">
  <ele>1583.03</ele>
  <time>2026-08-28T17:55:43Z</time>
  <course>25.96</course>
  <speed>0.02</speed>
  <fix>3d</fix>
</trkpt>
<trkpt lat="40.0720632" lon="-105.2298476">
  <ele>1583.0</ele>
  <time>2026-08-28T17:55:43Z</time>
  <course>114.73</course>
  <speed>0.0</speed>
  <fix>3d</fix>
</trkpt>
<trkpt lat="40.072063" lon="-105.2298475">
  <ele>1583.03</ele>
  <time>2026-08-28T17:55:43Z</time>
  <course>25.96</course>
  <speed>0.02</speed>
  <fix>3d</fix>
</trkpt>
<trkpt lat="40.0720632" lon="-105.2298476">
  <ele>1583.0</ele>
  <time>2026-08-28T17:55:43Z</time>
  <course>114.73</course>
  <speed>0.0</speed>
  <fix>3d</fix>
</trkpt>
<trkpt lat="40.072063" lon="-105.2298475">
  <ele>1583.04</ele>
  <time>2026-08-28T17:55:43Z</time>
  <course>25.96</course>
  <speed>0.02</speed>
  <fix>3d</fix>
</trkpt>
<trkpt lat="40.0720632" lon="-105.2298476">
  <ele>1583.0</ele>
  <time>2026-08-28T17:55:43Z</time>
  <course>114.73</course>
  <speed>0.0</speed>
  <fix>3d</fix>
</trkpt>
<trkpt lat="40.072063" lon="-105.2298475">
  <ele>1583.04</ele>
  <time>2026-08-28T17:55:43Z</time>
  <course>25.96</course>
  <speed>0.02</speed>
  <fix>3d</fix>
</trkpt>
<trkpt lat="40.0720632" lon="-105.2298476">
  <ele>1583.0</ele>
  <time>2026-08-28T17:55:43Z</time>
  <course>114.73</course>
  <speed>0.0</speed>
  <fix>3d</fix>
</trkpt>
<trkpt lat="40.072063" lon="-105.2298475">
  <ele>1583.05</ele>
  <time>2026-08-28T17:55:43Z</time>
  <course>25.96</course>
  <speed>0.02</speed>
  <fix>3d</fix>
</trkpt>
<trkpt lat="40.0720632" lon="-105.2298476">
  <ele>1583.0</ele>
  <time>2026-08-28T17:55:43Z</time>
  <course>114.73</course>
  <speed>0.0</speed>
  <fix>3d</fix>
</trkpt>
<trkpt lat="40.072063" lon="-105.2298475">
  <ele>1583.05</ele>
  <time>2026-08-28T17:55:43Z</time>
  <course>25.96</course>
  <speed>0.02</speed>
  <fix>3d</fix>
</trkpt>
<trkpt lat="40.0720632" lon="-105.2298476">
  <ele>1583.0</ele>
  <time>2026-08-28T17:55:43Z</time>
  <course>114.73</course>
  <speed>0.0</speed>
  <fix>3d</fix>
</trkpt>
<trkpt lat="40.072063" lon="-105.2298475">
  <ele>1583.05</ele>
  <time>2026-08-28T17:55:43Z</time>
  <course>25.95</course>
  <speed>0.02</speed>
  <fix>3d</fix>
</trkpt>
<trkpt lat="40.0720632" lon="-105.2298476">
  <ele>1583.0</ele>
  <time>2026-08-28T17:55:43Z</time>
  <course>114.73</course>
  <speed>0.0</speed>
  <fix>3d</fix>
</trkpt>
<trkpt lat="40.072063" lon="-105.2298475">
  <ele>1583.06</ele>
  <time>2026-08-28T17:55:43Z</time>
  <course>25.95</course>
  <speed>0.02</speed>
  <fix>3d</fix>
</trkpt>
<trkpt lat="40.0720632" lon="-105.2298476">
  <ele>1583.0</ele>
  <time>2026-08-28T17:55:43Z</time>
  <course>114.73</course>
  <speed>0.0</speed>
  <fix>3d</fix>
</trkpt>
<trkpt lat="40.072063" lon="-105.2298475">
  <ele>1583.06</ele>
  <time>2026-08-28T17:55:43Z</time>
  <course>25.95</course>
  <speed>0.02</speed>
  <fix>3d</fix>
</trkpt>
<trkpt lat="40.0720632" lon="-105.2298476">
  <ele>1583.0</ele>
  <time>2026-08-28T17:55:43Z</time>
  <course>114.73</course>
  <speed>0.0</speed>
  <fix>3d</fix>
</trkpt>
<trkpt lat="40.072063" lon="-105.2298475">
  <ele>1583.06</ele>
  <time>2026-08-28T17:55:43Z</time>
  <course>25.95</course>
  <speed>0.02</speed>
  <fix>3d</fix>
</trkpt>
<trkpt lat="40.0720632" lon="-105.2298476">
  <ele>1583.0</ele>
  <time>2026-08-28T17:55:43Z</time>
  <course>114.73</course>
  <speed>0.0</speed>
  <fix>3d</fix>
</trkpt>
<trkpt lat="40.072063" lon="-105.2298475">
  <ele>1583.07</ele>
  <time>2026-08-28T17:55:43Z</time>
  <course>25.95</course>
  <speed>0.02</speed>
  <fix>3d</fix>
</trkpt>
<trkpt lat="40.0720632" lon="-105.2298476">
  <ele>1583.0</ele>
  <time>2026-08-28T17:55:43Z</time>
  <course>114.73</course>
  <speed>0.0</speed>
  <fix>3d</fix>
</trkpt>
<trkpt lat="40.072063" lon="-105.2298475">
  <ele>1583.07</ele>
  <time>2026-08-28T17:55:43Z</time>
  <course>25.95</course>
  <speed>0.02</speed>
  <fix>3d</fix>
</trkpt>
<trkpt lat="40.0720632" lon="-105.2298476">
  <ele>1583.0</ele>
  <time>2026-08-28T17:55:43Z</time>
  <course>114.73</course>
  <speed>0.0</speed>
  <fix>3d</fix>
</trkpt>
<trkpt lat="40.072063" lon="-105.2298475">
  <ele>1583.07</ele>
  <time>2026-08-28T17:55:43Z</time>
  <course>25.95</course>
  <speed>0.02</speed>
  <fix>3d</fix>
</trkpt>
<trkpt lat="40.0720632" lon="-105.2298476">
  <ele>1583.0</ele>
  <time>2026-08-28T17:55:43Z</time>
  <course>114.73</course>
  <speed>0.0</speed>
  <fix>3d</fix>
</trkpt>
<trkpt lat="40.072063" lon="-105.2298475">
  <ele>1583.08</ele>
  <time>2026-08-28T17:55:43Z</time>
  <course>25.95</course>
  <speed>0.02</speed>
  <fix>3d</fix>
</trkpt>
<trkpt lat="40.0720632" lon="-105.2298476">
  <ele>1583.0</ele>
  <time>2026-08-28T17:55:43Z</time>
  <course>114.73</course>
  <speed>0.0</speed>
  <fix>3d</fix>
</trkpt>
<trkpt lat="40.072063" lon="-105.2298475">
  <ele>1583.08</ele>
  <time>2026-08-28T17:55:43Z</time>
  <course>25.95</course>
  <speed>0.02</speed>
  <fix>3d</fix>
</trkpt>
<trkpt lat="40.0720632" lon="-105.2298476">
  <ele>1583.0</ele>
  <time>2026-08-28T17:55:43Z</time>
  <course>114.73</course>
  <speed>0.0</speed>
  <fix>3d</fix>
</trkpt>
<trkpt lat="40.072063" lon="-105.2298475">
  <ele>1583.08</ele>
  <time>2026-08-28T17:55:43Z</time>
  <course>25.95</course>
  <speed>0.02</speed>
  <fix>3d</fix>
</trkpt>
<trkpt lat="40.0720632" lon="-105.2298476">
  <ele>1583.0</ele>
  <time>2026-08-28T17:55:43Z</time>
  <course>114.73</course>
  <speed>0.0</speed>
  <fix>3d</fix>
</trkpt>
<trkpt lat="40.072063" lon="-105.2298475">
  <ele>1583.08</ele>
  <time>2026-08-28T17:55:43Z</time>
  <course>25.95</course>
  <speed>0.02</speed>
  <fix>3d</fix>
</trkpt>
<trkpt lat="40.0720632" lon="-105.2298476">
  <ele>1583.0</ele>
  <time>2026-08-28T17:55:43Z</time>
  <course>114.73</course>
  <speed>0.0</speed>
  <fix>3d</fix>
</trkpt>
<trkpt lat="40.072063" lon="-105.2298475">
  <ele>1583.08</ele>
  <time>2026-08-28T17:55:43Z</time>
  <course>25.95</course>
  <speed>0.02</speed>
  <fix>3d</fix>
</trkpt>
<trkpt lat="40.0720632" lon="-105.2298476">
  <ele>1583.0</ele>
  <time>2026-08-28T17:55:43Z</time>
  <course>114.73</course>
  <speed>0.0</speed>
  <fix>3d</fix>
</trkpt>
<trkpt lat="40.072063" lon="-105.2298475">
  <ele>1583.08</ele>
  <time>2026-08-28T17:55:43Z</time>
  <course>25.95</course>
  <speed>0.02</speed>
  <fix>3d</fix>
</trkpt>
<trkpt lat="40.0720632" lon="-105.2298476">
  <ele>1583.0</ele>
  <time>2026-08-28T17:55:43Z</time>
  <course>114.73</course>
  <speed>0.0</speed>
  <fix>3d</fix>
</trkpt>
<trkpt lat="40.072063" lon="-105.2298475">
  <ele>1583.08</ele>
  <time>2026-08-28T17:55:43Z</time>
  <course>25.95</course>
  <speed>0.02</speed>
  <fix>3d</fix>
</trkpt>
<trkpt lat="40.0720632" lon="-105.2298476">
  <ele>1583.0</ele>
  <time>2026-08-28T17:55:43Z</time>
  <course>114.73</course>
  <speed>0.0</speed>
  <fix>3d</fix>
</trkpt>
<trkpt lat="40.072063" lon="-105.2298475">
  <ele>1583.08</ele>
  <time>2026-08-28T17:55:43Z</time>
  <course>25.95</course>
  <speed>0.02</speed>
  <fix>3d</fix>
</trkpt>
<trkpt lat="40.0720632" lon="-105.2298476">
  <ele>1583.0</ele>
  <time>2026-08-28T17:55:43Z</time>
  <course>114.73</course>
  <speed>0.0</speed>
  <fix>3d</fix>
</trkpt>
<trkpt lat="40.072063" lon="-105.2298475">
  <ele>1583.08</ele>
  <time>2026-08-28T17:55:43Z</time>
  <course>25.95</course>
  <speed>0.02</speed>
  <fix>3d</fix>
</trkpt>
<trkpt lat="40.0720632" lon="-105.2298476">
  <ele>1583.0</ele>
  <time>2026-08-28T17:55:43Z</time>
  <course>114.73</course>
  <speed>0.0</speed>
  <fix>3d</fix>
</trkpt>
<trkpt lat="40.072063" lon="-105.2298475">
  <ele>1583.08</ele>
  <time>2026-08-28T17:55:43Z</time>
  <course>25.95</course>
  <speed>0.02</speed>
  <fix>3d</fix>
</trkpt>
<trkpt lat="40.0720632" lon="-105.2298476">
  <ele>1583.0</ele>
  <time>2026-08-28T17:55:43Z</time>
  <course>114.73</course>
  <speed>0.0</speed>
  <fix>3d</fix>
</trkpt>
<trkpt lat="40.072063" lon="-105.2298475">
  <ele>1583.08</ele>
  <time>2026-08-28T17:55:43Z</time>
  <course>25.94</course>
  <speed>0.02</speed>
  <fix>3d</fix>
</trkpt>
<trkpt lat="40.0720632" lon="-105.2298476">
  <ele>1583.0</ele>
  <time>2026-08-28T17:55:43Z</time>
  <course>114.73</course>
  <speed>0.0</speed>
  <fix>3d</fix>
</trkpt>
<trkpt lat="40.072063" lon="-105.2298475">
  <ele>1583.08</ele>
  <time>2026-08-28T17:55:43Z</time>
  <course>25.94</course>
  <speed>0.02</speed>
  <fix>3d</fix>
</trkpt>
<trkpt lat="40.0720632" lon="-105.2298476">
  <ele>1583.0</ele>
  <time>2026-08-28T17:55:43Z</time>
  <course>114.73</course>
  <speed>0.0</speed>
  <fix>3d</fix>
</trkpt>
<trkpt lat="40.072063" lon="-105.2298475">
  <ele>1583.08</ele>
  <time>2026-08-28T17:55:43Z</time>
  <course>25.94</course>
  <speed>0.02</speed>
  <fix>3d</fix>
</trkpt>
<trkpt lat="40.0720632" lon="-105.2298476">
  <ele>1583.0</ele>
  <time>2026-08-28T17:55:43Z</time>
  <course>114.73</course>
  <speed>0.0</speed>
  <fix>3d</fix>
</trkpt>
<trkpt lat="40.072063" lon="-105.2298475">
  <ele>1583.08</ele>
  <time>2026-08-28T17:55:43Z</time>
  <course>25.94</course>
  <speed>0.02</speed>
  <fix>3d</fix>
</trkpt>
<trkpt lat="40.0720632" lon="-105.2298476">
  <ele>1583.0</ele>
  <time>2026-08-28T17:55:43Z</time>
  <course>114.73</course>
  <speed>0.0</speed>
  <fix>3d</fix>
</trkpt>
<trkpt lat="40.072063" lon="-105.2298475">
  <ele>1583.08</ele>
  <time>2026-08-28T17:55:43Z</time>
  <course>25.94</course>
  <speed>0.02</speed>
  <fix>3d</fix>
</trkpt>
<trkpt lat="40.0720632" lon="-105.2298476">
  <ele>1583.0</ele>
  <time>2026-08-28T17:55:43Z</time>
  <course>114.73</course>
  <speed>0.0</speed>
  <fix>3d</fix>
</trkpt>
<trkpt lat="40.072063" lon="-105.2298475">
  <ele>1583.09</ele>
  <time>2026-08-28T17:55:43Z</time>
  <course>25.94</course>
  <speed>0.02</speed>
  <fix>3d</fix>
</trkpt>
<trkpt lat="40.0720632" lon="-105.2298476">
  <ele>1583.0</ele>
  <time>2026-08-28T17:55:43Z</time>
  <course>114.73</course>
  <speed>0.0</speed>
  <fix>3d</fix>
</trkpt>
<trkpt lat="40.072063" lon="-105.2298475">
  <ele>1583.09</ele>
  <time>2026-08-28T17:55:43Z</time>
  <course>25.94</course>
  <speed>0.02</speed>
  <fix>3d</fix>
</trkpt>
<trkpt lat="40.0720632" lon="-105.2298476">
  <ele>1583.0</ele>
  <time>2026-08-28T17:55:43Z</time>
  <course>114.74</course>
  <speed>0.0</speed>
  <fix>3d</fix>
</trkpt>
<trkpt lat="40.072063" lon="-105.2298475">
  <ele>1583.1</ele>
  <time>2026-08-28T17:55:43Z</time>
  <course>25.94</course>
  <speed>0.02</speed>
  <fix>3d</fix>
</trkpt>
<trkpt lat="40.0720632" lon="-105.2298476">
  <ele>1583.0</ele>
  <time>2026-08-28T17:55:43Z</time>
  <course>114.74</course>
  <speed>0.0</speed>
  <fix>3d</fix>
</trkpt>
<trkpt lat="40.072063" lon="-105.2298475">
  <ele>1583.1</ele>
  <time>2026-08-28T17:55:43Z</time>
  <course>25.94</course>
  <speed>0.02</speed>
  <fix>3d</fix>
</trkpt>
<trkpt lat="40.0720632" lon="-105.2298476">
  <ele>1583.0</ele>
  <time>2026-08-28T17:55:43Z</time>
  <course>114.74</course>
  <speed>0.0</speed>
  <fix>3d</fix>
</trkpt>
<trkpt lat="40.072063" lon="-105.2298475">
  <ele>1583.1</ele>
  <time>2026-08-28T17:55:43Z</time>
  <course>25.94</course>
  <speed>0.02</speed>
  <fix>3d</fix>
</trkpt>
<trkpt lat="40.0720632" lon="-105.2298476">
  <ele>1583.0</ele>
  <time>2026-08-28T17:55:43Z</time>
  <course>114.74</course>
  <speed>0.0</speed>
  <fix>3d</fix>
</trkpt>
<trkpt lat="40.072063" lon="-105.2298475">
  <ele>1583.1</ele>
  <time>2026-08-28T17:55:43Z</time>
  <course>25.94</course>
  <speed>0.02</speed>
  <fix>3d</fix>
</trkpt>
<trkpt lat="40.0720632" lon="-105.2298476">
  <ele>1583.0</ele>
  <time>2026-08-28T17:55:43Z</time>
  <course>114.74</course>
  <speed>0.0</speed>
  <fix>3d</fix>
</trkpt>
<trkpt lat="40.072063" lon="-105.2298475">
  <ele>1583.1</ele>
  <time>2026-08-28T17:55:43Z</time>
  <course>25.94</course>
  <speed>0.02</speed>
  <fix>3d</fix>
</trkpt>
<trkpt lat="40.0720632" lon="-105.2298476">
  <ele>1583.0</ele>
  <time>2026-08-28T17:55:43Z</time>
  <course>114.74</course>
  <speed>0.0</speed>
  <fix>3d</fix>
</trkpt>
<trkpt lat="40.072063" lon="-105.2298475">
  <ele>1583.11</ele>
  <time>2026-08-28T17:55:43Z</time>
  <course>25.94</course>
  <speed>0.02</speed>
  <fix>3d</fix>
</trkpt>
<trkpt lat="40.0720632" lon="-105.2298476">
  <ele>1583.0</ele>
  <time>2026-08-28T17:55:43Z</time>
  <course>114.74</course>
  <speed>0.0</speed>
  <fix>3d</fix>
</trkpt>
<trkpt lat="40.072063" lon="-105.2298475">
  <ele>1583.11</ele>
  <time>2026-08-28T17:55:43Z</time>
  <course>25.94</course>
  <speed>0.02</speed>
  <fix>3d</fix>
</trkpt>
<trkpt lat="40.0720632" lon="-105.2298476">
  <ele>1583.0</ele>
  <time>2026-08-28T17:55:43Z</time>
  <course>114.74</course>
  <speed>0.0</speed>
  <fix>3d</fix>
</trkpt>
<trkpt lat="40.072063" lon="-105.2298475">
  <ele>1583.11</ele>
  <time>2026-08-28T17:55:43Z</time>
  <course>25.94</course>
  <speed>0.02</speed>
  <fix>3d</fix>
</trkpt>
<trkpt lat="40.0720632" lon="-105.2298476">
  <ele>1583.0</ele>
  <time>2026-08-28T17:55:43Z</time>
  <course>114.74</course>
  <speed>0.0</speed>
  <fix>3d</fix>
</trkpt>
<trkpt lat="40.072063" lon="-105.2298475">
  <ele>1583.12</ele>
  <time>2026-08-28T17:55:43Z</time>
  <course>25.94</course>
  <speed>0.02</speed>
  <fix>3d</fix>
</trkpt>
<trkpt lat="40.0720632" lon="-105.2298476">
  <ele>1583.0</ele>
  <time>2026-08-28T17:55:43Z</time>
  <course>114.74</course>
  <speed>0.0</speed>
  <fix>3d</fix>
</trkpt>
<trkpt lat="40.072063" lon="-105.2298475">
  <ele>1583.12</ele>
  <time>2026-08-28T17:55:43Z</time>
  <course>25.93</course>
  <speed>0.02</speed>
  <fix>3d</fix>
</trkpt>
<trkpt lat="40.0720632" lon="-105.2298476">
  <ele>1583.0</ele>
  <time>2026-08-28T17:55:43Z</time>
  <course>114.74</course>
  <speed>0.0</speed>
  <fix>3d</fix>
</trkpt>
<trkpt lat="40.072063" lon="-105.2298475">
  <ele>1583.13</ele>
  <time>2026-08-28T17:55:43Z</time>
  <course>25.93</course>
  <speed>0.02</speed>
  <fix>3d</fix>
</trkpt>
<trkpt lat="40.0720632" lon="-105.2298476">
  <ele>1583.0</ele>
  <time>2026-08-28T17:55:43Z</time>
  <course>114.74</course>
  <speed>0.0</speed>
  <fix>3d</fix>
</trkpt>
<trkpt lat="40.072063" lon="-105.2298475">
  <ele>1583.13</ele>
  <time>2026-08-28T17:55:43Z</time>
  <course>25.93</course>
  <speed>0.02</speed>
  <fix>3d</fix>
</trkpt>
<trkpt lat="40.0720632" lon="-105.2298476">
  <ele>1583.0</ele>
  <time>2026-08-28T17:55:43Z</time>
  <course>114.74</course>
  <speed>0.0</speed>
  <fix>3d</fix>
</trkpt>
<trkpt lat="40.072063" lon="-105.2298475">
  <ele>1583.13</ele>
  <time>2026-08-28T17:55:43Z</time>
  <course>25.93</course>
  <speed>0.02</speed>
  <fix>3d</fix>
</trkpt>
<trkpt lat="40.0720632" lon="-105.2298476">
  <ele>1583.0</ele>
  <time>2026-08-28T17:55:43Z</time>
  <course>114.74</course>
  <speed>0.0</speed>
  <fix>3d</fix>
</trkpt>
<trkpt lat="40.072063" lon="-105.2298475">
  <ele>1583.14</ele>
  <time>2026-08-28T17:55:43Z</time>
  <course>25.93</course>
  <speed>0.02</speed>
  <fix>3d</fix>
</trkpt>
<trkpt lat="40.0720632" lon="-105.2298476">
  <ele>1583.0</ele>
  <time>2026-08-28T17:55:43Z</time>
  <course>114.74</course>
  <speed>0.0</speed>
  <fix>3d</fix>
</trkpt>
<trkpt lat="40.072063" lon="-105.2298475">
  <ele>1583.14</ele>
  <time>2026-08-28T17:55:43Z</time>
  <course>25.93</course>
  <speed>0.02</speed>
  <fix>3d</fix>
</trkpt>
<trkpt lat="40.0720632" lon="-105.2298476">
  <ele>1583.0</ele>
  <time>2026-08-28T17:55:43Z</time>
  <course>114.74</course>
  <speed>0.0</speed>
  <fix>3d</fix>
</trkpt>
<trkpt lat="40.072063" lon="-105.2298475">
  <ele>1583.14</ele>
  <time>2026-08-28T17:55:43Z</time>
  <course>25.93</course>
  <speed>0.02</speed>
  <fix>3d</fix>
</trkpt>
<trkpt lat="40.0720632" lon="-105.2298476">
  <ele>1583.0</ele>
  <time>2026-08-28T17:55:43Z</time>
  <course>114.74</course>
  <speed>0.0</speed>
  <fix>3d</fix>
</trkpt>
<trkpt lat="40.072063" lon="-105.2298475">
  <ele>1583.14</ele>
  <time>2026-08-28T17:55:43Z</time>
  <course>25.93</course>
  <speed>0.02</speed>
  <fix>3d</fix>
</trkpt>
<trkpt lat="40.0720632" lon="-105.2298476">
  <ele>1583.0</ele>
  <time>2026-08-28T17:55:43Z</time>
  <course>114.74</course>
  <speed>0.0</speed>
  <fix>3d</fix>
</trkpt>
<trkpt lat="40.072063" lon="-105.2298475">
  <ele>1583.13</ele>
  <time>2026-08-28T17:55:43Z</time>
  <course>25.93</course>
  <speed>0.02</speed>
  <fix>3d</fix>
</trkpt>
<trkpt lat="40.0720632" lon="-105.2298476">
  <ele>1583.0</ele>
  <time>2026-08-28T17:55:43Z</time>
  <course>114.74</course>
  <speed>0.0</speed>
  <fix>3d</fix>
</trkpt>
<trkpt lat="40.072063" lon="-105.2298475">
  <ele>1583.13</ele>
  <time>2026-08-28T17:55:43Z</time>
  <course>25.93</course>
  <speed>0.02</speed>
  <fix>3d</fix>
</trkpt>
<trkpt lat="40.0720632" lon="-105.2298476">
  <ele>1583.0</ele>
  <time>2026-08-28T17:55:43Z</time>
  <course>114.74</course>
  <speed>0.0</speed>
  <fix>3d</fix>
</trkpt>
<trkpt lat="40.072063" lon="-105.2298475">
  <ele>1583.13</ele>
  <time>2026-08-28T17:55:43Z</time>
  <course>25.93</course>
  <speed>0.02</speed>
  <fix>3d</fix>
</trkpt>
<trkpt lat="40.0720632" lon="-105.2298476">
  <ele>1583.0</ele>
  <time>2026-08-28T17:55:43Z</time>
  <course>114.74</course>
  <speed>0.0</speed>
  <fix>3d</fix>
</trkpt>
<trkpt lat="40.072063" lon="-105.2298475">
  <ele>1583.12</ele>
  <time>2026-08-28T17:55:43Z</time>
  <course>25.93</course>
  <speed>0.02</speed>
  <fix>3d</fix>
</trkpt>
<trkpt lat="40.0720632" lon="-105.2298476">
  <ele>1583.0</ele>
  <time>2026-08-28T17:55:43Z</time>
  <course>114.74</course>
  <speed>0.0</speed>
  <fix>3d</fix>
</trkpt>
<trkpt lat="40.072063" lon="-105.2298475">
  <ele>1583.12</ele>
  <time>2026-08-28T17:55:43Z</time>
  <course>25.93</course>
  <speed>0.02</speed>
  <fix>3d</fix>
</trkpt>
<trkpt lat="40.0720632" lon="-105.2298476">
  <ele>1583.0</ele>
  <time>2026-08-28T17:55:43Z</time>
  <course>114.74</course>
  <speed>0.0</speed>
  <fix>3d</fix>
</trkpt>
<trkpt lat="40.072063" lon="-105.2298475">
  <ele>1583.12</ele>
  <time>2026-08-28T17:55:43Z</time>
  <course>25.93</course>
  <speed>0.02</speed>
  <fix>3d</fix>
</trkpt>
<trkpt lat="40.0720632" lon="-105.2298476">
  <ele>1583.0</ele>
  <time>2026-08-28T17:55:43Z</time>
  <course>114.74</course>
  <speed>0.0</speed>
  <fix>3d</fix>
</trkpt>
<trkpt lat="40.072063" lon="-105.2298475">
  <ele>1583.11</ele>
  <time>2026-08-28T17:55:43Z</time>
  <course>25.93</course>
  <speed>0.02</speed>
  <fix>3d</fix>
</trkpt>
<trkpt lat="40.0720632" lon="-105.2298476">
  <ele>1583.0</ele>
  <time>2026-08-28T17:55:43Z</time>
  <course>114.74</course>
  <speed>0.0</speed>
  <fix>3d</fix>
</trkpt>
<trkpt lat="40.072063" lon="-105.2298475">
  <ele>1583.11</ele>
  <time>2026-08-28T17:55:43Z</time>
  <course>25.93</course>
  <speed>0.02</speed>
  <fix>3d</fix>
</trkpt>
<trkpt lat="40.0720632" lon="-105.2298476">
  <ele>1583.0</ele>
  <time>2026-08-28T17:55:43Z</time>
  <course>114.74</course>
  <speed>0.0</speed>
  <fix>3d</fix>
</trkpt>
<trkpt lat="40.072063" lon="-105.2298475">
  <ele>1583.1</ele>
  <time>2026-08-28T17:55:43Z</time>
  <course>25.93</course>
  <speed>0.02</speed>
  <fix>3d</fix>
</trkpt>
<trkpt lat="40.0720632" lon="-105.2298476">
  <ele>1583.0</ele>
  <time>2026-08-28T17:55:43Z</time>
  <course>114.74</course>
  <speed>0.0</speed>
  <fix>3d</fix>
</trkpt>
<trkpt lat="40.072063" lon="-105.2298475">
  <ele>1583.1</ele>
  <time>2026-08-28T17:55:43Z</time>
  <course>25.92</course>
  <speed>0.02</speed>
  <fix>3d</fix>
</trkpt>
<trkpt lat="40.0720632" lon="-105.2298476">
  <ele>1583.0</ele>
  <time>2026-08-28T17:55:43Z</time>
  <course>114.74</course>
  <speed>0.0</speed>
  <fix>3d</fix>
</trkpt>
<trkpt lat="40.072063" lon="-105.2298475">
  <ele>1583.09</ele>
  <time>2026-08-28T17:55:43Z</time>
  <course>25.92</course>
  <speed>0.02</speed>
  <fix>3d</fix>
</trkpt>
<trkpt lat="40.0720632" lon="-105.2298476">
  <ele>1583.0</ele>
  <time>2026-08-28T17:55:43Z</time>
  <course>114.74</course>
  <speed>0.0</speed>
  <fix>3d</fix>
</trkpt>
<trkpt lat="40.072063" lon="-105.2298475">
  <ele>1583.09</ele>
  <time>2026-08-28T17:55:43Z</time>
  <course>25.92</course>
  <speed>0.02</speed>
  <fix>3d</fix>
</trkpt>
<trkpt lat="40.0720632" lon="-105.2298476">
  <ele>1583.0</ele>
  <time>2026-08-28T17:55:43Z</time>
  <course>114.74</course>
  <speed>0.0</speed>
  <fix>3d</fix>
</trkpt>
<trkpt lat="40.072063" lon="-105.2298475">
  <ele>1583.09</ele>
  <time>2026-08-28T17:55:43Z</time>
  <course>25.92</course>
  <speed>0.02</speed>
  <fix>3d</fix>
</trkpt>
<trkpt lat="40.0720632" lon="-105.2298476">
  <ele>1583.0</ele>
  <time>2026-08-28T17:55:43Z</time>
  <course>114.74</course>
  <speed>0.0</speed>
  <fix>3d</fix>
</trkpt>
<trkpt lat="40.072063" lon="-105.2298475">
  <ele>1583.09</ele>
  <time>2026-08-28T17:55:43Z</time>
  <course>25.92</course>
  <speed>0.02</speed>
  <fix>3d</fix>
</trkpt>
<trkpt lat="40.0720632" lon="-105.2298476">
  <ele>1583.0</ele>
  <time>2026-08-28T17:55:43Z</time>
  <course>114.74</course>
  <speed>0.0</speed>
  <fix>3d</fix>
</trkpt>
<trkpt lat="40.072063" lon="-105.2298475">
  <ele>1583.08</ele>
  <time>2026-08-28T17:55:43Z</time>
  <course>25.92</course>
  <speed>0.02</speed>
  <fix>3d</fix>
</trkpt>
<trkpt lat="40.0720632" lon="-105.2298476">
  <ele>1583.0</ele>
  <time>2026-08-28T17:55:43Z</time>
  <course>114.74</course>
  <speed>0.0</speed>
  <fix>3d</fix>
</trkpt>
<trkpt lat="40.072063" lon="-105.2298475">
  <ele>1583.08</ele>
  <time>2026-08-28T17:55:43Z</time>
  <course>25.92</course>
  <speed>0.02</speed>
  <fix>3d</fix>
</trkpt>
<trkpt lat="40.0720632" lon="-105.2298476">
  <ele>1583.0</ele>
  <time>2026-08-28T17:55:43Z</time>
  <course>114.74</course>
  <speed>0.0</speed>
  <fix>3d</fix>
</trkpt>
<trkpt lat="40.072063" lon="-105.2298475">
  <ele>1583.08</ele>
  <time>2026-08-28T17:55:43Z</time>
  <course>25.92</course>
  <speed>0.02</speed>
  <fix>3d</fix>
</trkpt>
<trkpt lat="40.0720632" lon="-105.2298476">
  <ele>1583.0</ele>
  <time>2026-08-28T17:55:43Z</time>
  <course>114.74</course>
  <speed>0.0</speed>
  <fix>3d</fix>
</trkpt>
<trkpt lat="40.072063" lon="-105.2298475">
  <ele>1583.08</ele>
  <time>2026-08-28T17:55:43Z</time>
  <course>25.92</course>
  <speed>0.02</speed>
  <fix>3d</fix>
</trkpt>
<trkpt lat="40.0720632" lon="-105.2298476">
  <ele>1583.0</ele>
  <time>2026-08-28T17:55:43Z</time>
  <course>114.74</course>
  <speed>0.0</speed>
  <fix>3d</fix>
</trkpt>
<trkpt lat="40.072063" lon="-105.2298475">
  <ele>1583.07</ele>
  <time>2026-08-28T17:55:43Z</time>
  <course>25.92</course>
  <speed>0.02</speed>
  <fix>3d</fix>
</trkpt>
<trkpt lat="40.0720632" lon="-105.2298476">
  <ele>1583.0</ele>
  <time>2026-08-28T17:55:43Z</time>
  <course>114.74</course>
  <speed>0.0</speed>
  <fix>3d</fix>
</trkpt>
<trkpt lat="40.072063" lon="-105.2298475">
  <ele>1583.07</ele>
  <time>2026-08-28T17:55:43Z</time>
  <course>25.92</course>
  <speed>0.02</speed>
  <fix>3d</fix>
</trkpt>
<trkpt lat="40.0720632" lon="-105.2298476">
  <ele>1583.0</ele>
  <time>2026-08-28T17:55:43Z</time>
  <course>114.74</course>
  <speed>0.0</speed>
  <fix>3d</fix>
</trkpt>
<trkpt lat="40.072063" lon="-105.2298475">
  <ele>1583.07</ele>
  <time>2026-08-28T17:55:43Z</time>
  <course>25.92</course>
  <speed>0.02</speed>
  <fix>3d</fix>
</trkpt>
<trkpt lat="40.0720632" lon="-105.2298476">
  <ele>1583.0</ele>
  <time>2026-08-28T17:55:43Z</time>
  <course>114.74</course>
  <speed>0.0</speed>
  <fix>3d</fix>
</trkpt>
<trkpt lat="40.072063" lon="-105.2298475">
  <ele>1583.08</ele>
  <time>2026-08-28T17:55:43Z</time>
  <course>25.92</course>
  <speed>0.02</speed>
  <fix>3d</fix>
</trkpt>
<trkpt lat="40.0720632" lon="-105.2298476">
  <ele>1583.0</ele>
  <time>2026-08-28T17:55:43Z</time>
  <course>114.74</course>
  <speed>0.0</speed>
  <fix>3d</fix>
</trkpt>
<trkpt lat="40.072063" lon="-105.2298475">
  <ele>1583.08</ele>
  <time>2026-08-28T17:55:43Z</time>
  <course>25.92</course>
  <speed>0.02</speed>
  <fix>3d</fix>
</trkpt>
<trkpt lat="40.0720632" lon="-105.2298476">
  <ele>1583.0</ele>
  <time>2026-08-28T17:55:43Z</time>
  <course>114.74</course>
  <speed>0.0</speed>
  <fix>3d</fix>
</trkpt>
<trkpt lat="40.072063" lon="-105.2298475">
  <ele>1583.08</ele>
  <time>2026-08-28T17:55:43Z</time>
  <course>25.92</course>
  <speed>0.02</speed>
  <fix>3d</fix>
</trkpt>
<trkpt lat="40.0720632" lon="-105.2298476">
  <ele>1583.0</ele>
  <time>2026-08-28T17:55:43Z</time>
  <course>114.74</course>
  <speed>0.0</speed>
  <fix>3d</fix>
</trkpt>
<trkpt lat="40.072063" lon="-105.2298475">
  <ele>1583.08</ele>
  <time>2026-08-28T17:55:43Z</time>
  <course>25.92</course>
  <speed>0.02</speed>
  <fix>3d</fix>
</trkpt>
<trkpt lat="40.0720632" lon="-105.2298476">
  <ele>1583.0</ele>
  <time>2026-08-28T17:55:43Z</time>
  <course>114.74</course>
  <speed>0.0</speed>
  <fix>3d</fix>
</trkpt>
<trkpt lat="40.072063" lon="-105.2298475">
  <ele>1583.08</ele>
  <time>2026-08-28T17:55:43Z</time>
  <course>25.92</course>
  <speed>0.02</speed>
  <fix>3d</fix>
</trkpt>
<trkpt lat="40.0720632" lon="-105.2298476">
  <ele>1583.0</ele>
  <time>2026-08-28T17:55:43Z</time>
  <course>114.74</course>
  <speed>0.0</speed>
  <fix>3d</fix>
</trkpt>
<trkpt lat="40.072063" lon="-105.2298475">
  <ele>1583.08</ele>
  <time>2026-08-28T17:55:43Z</time>
  <course>25.91</course>
  <speed>0.02</speed>
  <fix>3d</fix>
</trkpt>
<trkpt lat="40.0720632" lon="-105.2298476">
  <ele>1583.0</ele>
  <time>2026-08-28T17:55:43Z</time>
  <course>114.74</course>
  <speed>0.0</speed>
  <fix>3d</fix>
</trkpt>
<trkpt lat="40.072063" lon="-105.2298475">
  <ele>1583.08</ele>
  <time>2026-08-28T17:55:43Z</time>
  <course>25.91</course>
  <speed>0.02</speed>
  <fix>3d</fix>
</trkpt>
<trkpt lat="40.0720632" lon="-105.2298476">
  <ele>1583.0</ele>
  <time>2026-08-28T17:55:43Z</time>
  <course>114.74</course>
  <speed>0.0</speed>
  <fix>3d</fix>
</trkpt>
<trkpt lat="40.072063" lon="-105.2298475">
  <ele>1583.07</ele>
  <time>2026-08-28T17:55:43Z</time>
  <course>25.91</course>
  <speed>0.02</speed>
  <fix>3d</fix>
</trkpt>
<trkpt lat="40.0720632" lon="-105.2298476">
  <ele>1583.0</ele>
  <time>2026-08-28T17:55:43Z</time>
  <course>114.74</course>
  <speed>0.0</speed>
  <fix>3d</fix>
</trkpt>
<trkpt lat="40.072063" lon="-105.2298475">
  <ele>1583.07</ele>
  <time>2026-08-28T17:55:43Z</time>
  <course>25.91</course>
  <speed>0.02</speed>
  <fix>3d</fix>
</trkpt>
<trkpt lat="40.0720632" lon="-105.2298476">
  <ele>1583.0</ele>
  <time>2026-08-28T17:55:43Z</time>
  <course>114.74</course>
  <speed>0.0</speed>
  <fix>3d</fix>
</trkpt>
<trkpt lat="40.072063" lon="-105.2298475">
  <ele>1583.06</ele>
  <time>2026-08-28T17:55:43Z</time>
  <course>25.91</course>
  <speed>0.02</speed>
  <fix>3d</fix>
</trkpt>
<trkpt lat="40.0720632" lon="-105.2298476">
  <ele>1583.0</ele>
  <time>2026-08-28T17:55:43Z</time>
  <course>114.74</course>
  <speed>0.0</speed>
  <fix>3d</fix>
</trkpt>
<trkpt lat="40.072063" lon="-105.2298475">
  <ele>1583.06</ele>
  <time>2026-08-28T17:55:43Z</time>
  <course>25.91</course>
  <speed>0.02</speed>
  <fix>3d</fix>
</trkpt>
<trkpt lat="40.0720632" lon="-105.2298476">
  <ele>1583.0</ele>
  <time>2026-08-28T17:55:43Z</time>
  <course>114.74</course>
  <speed>0.0</speed>
  <fix>3d</fix>
</trkpt>
<trkpt lat="40.072063" lon="-105.2298475">
  <ele>1583.05</ele>
  <time>2026-08-28T17:55:43Z</time>
  <course>25.91</course>
  <speed>0.02</speed>
  <fix>3d</fix>
</trkpt>
<trkpt lat="40.0720632" lon="-105.2298476">
  <ele>1583.0</ele>
  <time>2026-08-28T17:55:43Z</time>
  <course>114.74</course>
  <speed>0.0</speed>
  <fix>3d</fix>
</trkpt>
<trkpt lat="40.072063" lon="-105.2298475">
  <ele>1583.04</ele>
  <time>2026-08-28T17:55:43Z</time>
  <course>25.91</course>
  <speed>0.02</speed>
  <fix>3d</fix>
</trkpt>
<trkpt lat="40.0720632" lon="-105.2298476">
  <ele>1583.0</ele>
  <time>2026-08-28T17:55:43Z</time>
  <course>114.74</course>
  <speed>0.0</speed>
  <fix>3d</fix>
</trkpt>
<trkpt lat="40.072063" lon="-105.2298475">
  <ele>1583.04</ele>
  <time>2026-08-28T17:55:43Z</time>
  <course>25.91</course>
  <speed>0.02</speed>
  <fix>3d</fix>
</trkpt>
<trkpt lat="40.0720632" lon="-105.2298476">
  <ele>1583.0</ele>
  <time>2026-08-28T17:55:43Z</time>
  <course>114.74</course>
  <speed>0.0</speed>
  <fix>3d</fix>
</trkpt>
<trkpt lat="40.072063" lon="-105.2298475">
  <ele>1583.03</ele>
  <time>2026-08-28T17:55:43Z</time>
  <course>25.91</course>
  <speed>0.02</speed>
  <fix>3d</fix>
</trkpt>
<trkpt lat="40.0720632" lon="-105.2298476">
  <ele>1583.0</ele>
  <time>2026-08-28T17:55:43Z</time>
  <course>114.74</course>
  <speed>0.0</speed>
  <fix>3d</fix>
</trkpt>
<trkpt lat="40.072063" lon="-105.2298475">
  <ele>1583.02</ele>
  <time>2026-08-28T17:55:43Z</time>
  <course>25.91</course>
  <speed>0.02</speed>
  <fix>3d</fix>
</trkpt>
<trkpt lat="40.0720632" lon="-105.2298476">
  <ele>1583.0</ele>
  <time>2026-08-28T17:55:43Z</time>
  <course>114.74</course>
  <speed>0.0</speed>
  <fix>3d</fix>
</trkpt>
<trkpt lat="40.072063" lon="-105.2298475">
  <ele>1583.02</ele>
  <time>2026-08-28T17:55:43Z</time>
  <course>25.91</course>
  <speed>0.02</speed>
  <fix>3d</fix>
</trkpt>
<trkpt lat="40.0720632" lon="-105.2298476">
  <ele>1583.0</ele>
  <time>2026-08-28T17:55:43Z</time>
  <course>114.74</course>
  <speed>0.0</speed>
  <fix>3d</fix>
</trkpt>
<trkpt lat="40.072063" lon="-105.2298475">
  <ele>1583.02</ele>
  <time>2026-08-28T17:55:43Z</time>
  <course>25.91</course>
  <speed>0.02</speed>
  <fix>3d</fix>
</trkpt>
<trkpt lat="40.0720632" lon="-105.2298476">
  <ele>1583.0</ele>
  <time>2026-08-28T17:55:43Z</time>
  <course>114.74</course>
  <speed>0.0</speed>
  <fix>3d</fix>
</trkpt>
<trkpt lat="40.072063" lon="-105.2298475">
  <ele>1583.02</ele>
  <time>2026-08-28T17:55:43Z</time>
  <course>25.91</course>
  <speed>0.02</speed>
  <fix>3d</fix>
</trkpt>
<trkpt lat="40.0720632" lon="-105.2298476">
  <ele>1583.0</ele>
  <time>2026-08-28T17:55:43Z</time>
  <course>114.74</course>
  <speed>0.0</speed>
  <fix>3d</fix>
</trkpt>
<trkpt lat="40.072063" lon="-105.2298475">
  <ele>1583.02</ele>
  <time>2026-08-28T17:55:43Z</time>
  <course>25.91</course>
  <speed>0.02</speed>
  <fix>3d</fix>
</trkpt>
<trkpt lat="40.0720632" lon="-105.2298476">
  <ele>1583.0</ele>
  <time>2026-08-28T17:55:43Z</time>
  <course>114.74</course>
  <speed>0.0</speed>
  <fix>3d</fix>
</trkpt>
<trkpt lat="40.072063" lon="-105.2298475">
  <ele>1583.02</ele>
  <time>2026-08-28T17:55:43Z</time>
  <course>25.91</course>
  <speed>0.02</speed>
  <fix>3d</fix>
</trkpt>
<trkpt lat="40.0720632" lon="-105.2298476">
  <ele>1583.0</ele>
  <time>2026-08-28T17:55:43Z</time>
  <course>114.74</course>
  <speed>0.0</speed>
  <fix>3d</fix>
</trkpt>
<trkpt lat="40.072063" lon="-105.2298475">
  <ele>1583.02</ele>
  <time>2026-08-28T17:55:43Z</time>
  <course>25.9</course>
  <speed>0.02</speed>
  <fix>3d</fix>
</trkpt>
<trkpt lat="40.0720632" lon="-105.2298476">
  <ele>1583.0</ele>
  <time>2026-08-28T17:55:43Z</time>
  <course>114.74</course>
  <speed>0.0</speed>
  <fix>3d</fix>
</trkpt>
<trkpt lat="40.072063" lon="-105.2298475">
  <ele>1583.02</ele>
  <time>2026-08-28T17:55:43Z</time>
  <course>25.9</course>
  <speed>0.02</speed>
  <fix>3d</fix>
</trkpt>
<trkpt lat="40.0720632" lon="-105.2298476">
  <ele>1583.0</ele>
  <time>2026-08-28T17:55:43Z</time>
  <course>114.74</course>
  <speed>0.0</speed>
  <fix>3d</fix>
</trkpt>
<trkpt lat="40.072063" lon="-105.2298475">
  <ele>1583.03</ele>
  <time>2026-08-28T17:55:43Z</time>
  <course>25.9</course>
  <speed>0.02</speed>
  <fix>3d</fix>
</trkpt>
<trkpt lat="40.0720632" lon="-105.2298476">
  <ele>1583.0</ele>
  <time>2026-08-28T17:55:43Z</time>
  <course>114.74</course>
  <speed>0.0</speed>
  <fix>3d</fix>
</trkpt>
<trkpt lat="40.072063" lon="-105.2298475">
  <ele>1583.03</ele>
  <time>2026-08-28T17:55:43Z</time>
  <course>25.9</course>
  <speed>0.02</speed>
  <fix>3d</fix>
</trkpt>
<trkpt lat="40.0720632" lon="-105.2298476">
  <ele>1583.0</ele>
  <time>2026-08-28T17:55:43Z</time>
  <course>114.74</course>
  <speed>0.0</speed>
  <fix>3d</fix>
</trkpt>
<trkpt lat="40.072063" lon="-105.2298475">
  <ele>1583.03</ele>
  <time>2026-08-28T17:55:43Z</time>
  <course>25.9</course>
  <speed>0.02</speed>
  <fix>3d</fix>
</trkpt>
<trkpt lat="40.0720632" lon="-105.2298476">
  <ele>1583.0</ele>
  <time>2026-08-28T17:55:43Z</time>
  <course>114.74</course>
  <speed>0.0</speed>
  <fix>3d</fix>
</trkpt>
<trkpt lat="40.072063" lon="-105.2298475">
  <ele>1583.03</ele>
  <time>2026-08-28T17:55:43Z</time>
  <course>25.9</course>
  <speed>0.02</speed>
  <fix>3d</fix>
</trkpt>
<trkpt lat="40.0720632" lon="-105.2298476">
  <ele>1583.0</ele>
  <time>2026-08-28T17:55:43Z</time>
  <course>114.74</course>
  <speed>0.0</speed>
  <fix>3d</fix>
</trkpt>
<trkpt lat="40.072063" lon="-105.2298475">
  <ele>1583.03</ele>
  <time>2026-08-28T17:55:43Z</time>
  <course>25.9</course>
  <speed>0.02</speed>
  <fix>3d</fix>
</trkpt>
<trkpt lat="40.0720632" lon="-105.2298476">
  <ele>1583.0</ele>
  <time>2026-08-28T17:55:43Z</time>
  <course>114.74</course>
  <speed>0.0</speed>
  <fix>3d</fix>
</trkpt>
<trkpt lat="40.072063" lon="-105.2298475">
  <ele>1583.03</ele>
  <time>2026-08-28T17:55:43Z</time>
  <course>25.9</course>
  <speed>0.02</speed>
  <fix>3d</fix>
</trkpt>
<trkpt lat="40.0720632" lon="-105.2298476">
  <ele>1583.0</ele>
  <time>2026-08-28T17:55:43Z</time>
  <course>114.74</course>
  <speed>0.0</speed>
  <fix>3d</fix>
</trkpt>
<trkpt lat="40.072063" lon="-105.2298475">
  <ele>1583.03</ele>
  <time>2026-08-28T17:55:43Z</time>
  <course>25.9</course>
  <speed>0.02</speed>
  <fix>3d</fix>
</trkpt>
<trkpt lat="40.0720632" lon="-105.2298476">
  <ele>1583.0</ele>
  <time>2026-08-28T17:55:43Z</time>
  <course>114.74</course>
  <speed>0.0</speed>
  <fix>3d</fix>
</trkpt>
<trkpt lat="40.072063" lon="-105.2298475">
  <ele>1583.04</ele>
  <time>2026-08-28T17:55:43Z</time>
  <course>25.9</course>
  <speed>0.02</speed>
  <fix>3d</fix>
</trkpt>
<trkpt lat="40.0720632" lon="-105.2298476">
  <ele>1583.0</ele>
  <time>2026-08-28T17:55:43Z</time>
  <course>114.74</course>
  <speed>0.0</speed>
  <fix>3d</fix>
</trkpt>
<trkpt lat="40.072063" lon="-105.2298475">
  <ele>1583.04</ele>
  <time>2026-08-28T17:55:43Z</time>
  <course>25.9</course>
  <speed>0.02</speed>
  <fix>3d</fix>
</trkpt>
<trkpt lat="40.0720632" lon="-105.2298476">
  <ele>1583.0</ele>
  <time>2026-08-28T17:55:43Z</time>
  <course>114.74</course>
  <speed>0.0</speed>
  <fix>3d</fix>
</trkpt>
<trkpt lat="40.072063" lon="-105.2298475">
  <ele>1583.04</ele>
  <time>2026-08-28T17:55:43Z</time>
  <course>25.9</course>
  <speed>0.02</speed>
  <fix>3d</fix>
</trkpt>
<trkpt lat="40.0720632" lon="-105.2298476">
  <ele>1583.0</ele>
  <time>2026-08-28T17:55:43Z</time>
  <course>114.74</course>
  <speed>0.0</speed>
  <fix>3d</fix>
</trkpt>
<trkpt lat="40.072063" lon="-105.2298475">
  <ele>1583.04</ele>
  <time>2026-08-28T17:55:43Z</time>
  <course>25.9</course>
  <speed>0.02</speed>
  <fix>3d</fix>
</trkpt>
<trkpt lat="40.0720632" lon="-105.2298476">
  <ele>1583.0</ele>
  <time>2026-08-28T17:55:43Z</time>
  <course>114.74</course>
  <speed>0.0</speed>
  <fix>3d</fix>
</trkpt>
<trkpt lat="40.072063" lon="-105.2298475">
  <ele>1583.05</ele>
  <time>2026-08-28T17:55:43Z</time>
  <course>25.9</course>
  <speed>0.02</speed>
  <fix>3d</fix>
</trkpt>
<trkpt lat="40.0720632" lon="-105.2298476">
  <ele>1583.0</ele>
  <time>2026-08-28T17:55:43Z</time>
  <course>114.74</course>
  <speed>0.0</speed>
  <fix>3d</fix>
</trkpt>
<trkpt lat="40.072063" lon="-105.2298475">
  <ele>1583.05</ele>
  <time>2026-08-28T17:55:43Z</time>
  <course>25.9</course>
  <speed>0.02</speed>
  <fix>3d</fix>
</trkpt>
<trkpt lat="40.0720632" lon="-105.2298476">
  <ele>1583.0</ele>
  <time>2026-08-28T17:55:43Z</time>
  <course>114.74</course>
  <speed>0.0</speed>
  <fix>3d</fix>
</trkpt>
<trkpt lat="40.072063" lon="-105.2298475">
  <ele>1583.05</ele>
  <time>2026-08-28T17:55:43Z</time>
  <course>25.9</course>
  <speed>0.02</speed>
  <fix>3d</fix>
</trkpt>
<trkpt lat="40.0720632" lon="-105.2298476">
  <ele>1583.0</ele>
  <time>2026-08-28T17:55:43Z</time>
  <course>114.74</course>
  <speed>0.0</speed>
  <fix>3d</fix>
</trkpt>
<trkpt lat="40.072063" lon="-105.2298475">
  <ele>1583.05</ele>
  <time>2026-08-28T17:55:43Z</time>
  <course>25.9</course>
  <speed>0.02</speed>
  <fix>3d</fix>
</trkpt>
<trkpt lat="40.0720632" lon="-105.2298476">
  <ele>1583.0</ele>
  <time>2026-08-28T17:55:43Z</time>
  <course>114.74</course>
  <speed>0.0</speed>
  <fix>3d</fix>
</trkpt>
<trkpt lat="40.072063" lon="-105.2298475">
  <ele>1583.05</ele>
  <time>2026-08-28T17:55:43Z</time>
  <course>25.89</course>
  <speed>0.02</speed>
  <fix>3d</fix>
</trkpt>
<trkpt lat="40.0720632" lon="-105.2298476">
  <ele>1583.0</ele>
  <time>2026-08-28T17:55:43Z</time>
  <course>114.74</course>
  <speed>0.0</speed>
  <fix>3d</fix>
</trkpt>
<trkpt lat="40.072063" lon="-105.2298475">
  <ele>1583.06</ele>
  <time>2026-08-28T17:55:43Z</time>
  <course>25.89</course>
  <speed>0.02</speed>
  <fix>3d</fix>
</trkpt>
<trkpt lat="40.0720632" lon="-105.2298476">
  <ele>1583.0</ele>
  <time>2026-08-28T17:55:43Z</time>
  <course>114.74</course>
  <speed>0.0</speed>
  <fix>3d</fix>
</trkpt>
<trkpt lat="40.072063" lon="-105.2298475">
  <ele>1583.06</ele>
  <time>2026-08-28T17:55:43Z</time>
  <course>25.89</course>
  <speed>0.02</speed>
  <fix>3d</fix>
</trkpt>
<trkpt lat="40.0720632" lon="-105.2298476">
  <ele>1583.0</ele>
  <time>2026-08-28T17:55:43Z</time>
  <course>114.74</course>
  <speed>0.0</speed>
  <fix>3d</fix>
</trkpt>
<trkpt lat="40.072063" lon="-105.2298475">
  <ele>1583.06</ele>
  <time>2026-08-28T17:55:43Z</time>
  <course>25.89</course>
  <speed>0.02</speed>
  <fix>3d</fix>
</trkpt>
<trkpt lat="40.0720632" lon="-105.2298476">
  <ele>1583.0</ele>
  <time>2026-08-28T17:55:43Z</time>
  <course>114.74</course>
  <speed>0.0</speed>
  <fix>3d</fix>
</trkpt>
<trkpt lat="40.072063" lon="-105.2298475">
  <ele>1583.06</ele>
  <time>2026-08-28T17:55:43Z</time>
  <course>25.89</course>
  <speed>0.02</speed>
  <fix>3d</fix>
</trkpt>
<trkpt lat="40.0720632" lon="-105.2298476">
  <ele>1583.0</ele>
  <time>2026-08-28T17:55:43Z</time>
  <course>114.74</course>
  <speed>0.0</speed>
  <fix>3d</fix>
</trkpt>
<trkpt lat="40.072063" lon="-105.2298475">
  <ele>1583.06</ele>
  <time>2026-08-28T17:55:43Z</time>
  <course>25.89</course>
  <speed>0.02</speed>
  <fix>3d</fix>
</trkpt>
<trkpt lat="40.0720632" lon="-105.2298476">
  <ele>1583.0</ele>
  <time>2026-08-28T17:55:43Z</time>
  <course>114.74</course>
  <speed>0.0</speed>
  <fix>3d</fix>
</trkpt>
<trkpt lat="40.072063" lon="-105.2298475">
  <ele>1583.06</ele>
  <time>2026-08-28T17:55:43Z</time>
  <course>25.89</course>
  <speed>0.02</speed>
  <fix>3d</fix>
</trkpt>
<trkpt lat="40.0720632" lon="-105.2298476">
  <ele>1583.0</ele>
  <time>2026-08-28T17:55:43Z</time>
  <course>114.74</course>
  <speed>0.0</speed>
  <fix>3d</fix>
</trkpt>
<trkpt lat="40.072063" lon="-105.2298475">
  <ele>1583.06</ele>
  <time>2026-08-28T17:55:43Z</time>
  <course>25.89</course>
  <speed>0.02</speed>
  <fix>3d</fix>
</trkpt>
<trkpt lat="40.0720632" lon="-105.2298476">
  <ele>1583.0</ele>
  <time>2026-08-28T17:55:43Z</time>
  <course>114.74</course>
  <speed>0.0</speed>
  <fix>3d</fix>
</trkpt>
<trkpt lat="40.072063" lon="-105.2298475">
  <ele>1583.06</ele>
  <time>2026-08-28T17:55:43Z</time>
  <course>25.89</course>
  <speed>0.02</speed>
  <fix>3d</fix>
</trkpt>
<trkpt lat="40.0720632" lon="-105.2298476">
  <ele>1583.0</ele>
  <time>2026-08-28T17:55:43Z</time>
  <course>114.74</course>
  <speed>0.0</speed>
  <fix>3d</fix>
</trkpt>
<trkpt lat="40.072063" lon="-105.2298475">
  <ele>1583.06</ele>
  <time>2026-08-28T17:55:43Z</time>
  <course>25.89</course>
  <speed>0.02</speed>
  <fix>3d</fix>
</trkpt>
<trkpt lat="40.0720632" lon="-105.2298476">
  <ele>1583.0</ele>
  <time>2026-08-28T17:55:43Z</time>
  <course>114.74</course>
  <speed>0.0</speed>
  <fix>3d</fix>
</trkpt>
<trkpt lat="40.072063" lon="-105.2298475">
  <ele>1583.06</ele>
  <time>2026-08-28T17:55:43Z</time>
  <course>25.89</course>
  <speed>0.02</speed>
  <fix>3d</fix>
</trkpt>
<trkpt lat="40.0720632" lon="-105.2298476">
  <ele>1583.0</ele>
  <time>2026-08-28T17:55:43Z</time>
  <course>114.74</course>
  <speed>0.0</speed>
  <fix>3d</fix>
</trkpt>
<trkpt lat="40.072063" lon="-105.2298475">
  <ele>1583.05</ele>
  <time>2026-08-28T17:55:43Z</time>
  <course>25.89</course>
  <speed>0.02</speed>
  <fix>3d</fix>
</trkpt>
<trkpt lat="40.0720632" lon="-105.2298476">
  <ele>1583.0</ele>
  <time>2026-08-28T17:55:43Z</time>
  <course>114.74</course>
  <speed>0.0</speed>
  <fix>3d</fix>
</trkpt>
<trkpt lat="40.072063" lon="-105.2298475">
  <ele>1583.05</ele>
  <time>2026-08-28T17:55:43Z</time>
  <course>25.89</course>
  <speed>0.02</speed>
  <fix>3d</fix>
</trkpt>
<trkpt lat="40.0720632" lon="-105.2298476">
  <ele>1583.0</ele>
  <time>2026-08-28T17:55:43Z</time>
  <course>114.74</course>
  <speed>0.0</speed>
  <fix>3d</fix>
</trkpt>
<trkpt lat="40.072063" lon="-105.2298475">
  <ele>1583.04</ele>
  <time>2026-08-28T17:55:43Z</time>
  <course>25.89</course>
  <speed>0.02</speed>
  <fix>3d</fix>
</trkpt>
<trkpt lat="40.0720632" lon="-105.2298476">
  <ele>1583.0</ele>
  <time>2026-08-28T17:55:43Z</time>
  <course>114.74</course>
  <speed>0.0</speed>
  <fix>3d</fix>
</trkpt>
<trkpt lat="40.072063" lon="-105.2298475">
  <ele>1583.04</ele>
  <time>2026-08-28T17:55:43Z</time>
  <course>25.89</course>
  <speed>0.02</speed>
  <fix>3d</fix>
</trkpt>
<trkpt lat="40.0720632" lon="-105.2298476">
  <ele>1583.0</ele>
  <time>2026-08-28T17:55:43Z</time>
  <course>114.74</course>
  <speed>0.0</speed>
  <fix>3d</fix>
</trkpt>
<trkpt lat="40.072063" lon="-105.2298475">
  <ele>1583.03</ele>
  <time>2026-08-28T17:55:43Z</time>
  <course>25.89</course>
  <speed>0.02</speed>
  <fix>3d</fix>
</trkpt>
<trkpt lat="40.0720632" lon="-105.2298476">
  <ele>1583.0</ele>
  <time>2026-08-28T17:55:43Z</time>
  <course>114.74</course>
  <speed>0.0</speed>
  <fix>3d</fix>
</trkpt>
<trkpt lat="40.072063" lon="-105.2298475">
  <ele>1583.03</ele>
  <time>2026-08-28T17:55:43Z</time>
  <course>25.89</course>
  <speed>0.02</speed>
  <fix>3d</fix>
</trkpt>
<trkpt lat="40.0720632" lon="-105.2298476">
  <ele>1583.0</ele>
  <time>2026-08-28T17:55:43Z</time>
  <course>114.74</course>
  <speed>0.0</speed>
  <fix>3d</fix>
</trkpt>
<trkpt lat="40.072063" lon="-105.2298475">
  <ele>1583.03</ele>
  <time>2026-08-28T17:55:43Z</time>
  <course>25.89</course>
  <speed>0.02</speed>
  <fix>3d</fix>
</trkpt>
<trkpt lat="40.0720632" lon="-105.2298476">
  <ele>1583.0</ele>
  <time>2026-08-28T17:55:43Z</time>
  <course>114.74</course>
  <speed>0.0</speed>
  <fix>3d</fix>
</trkpt>
<trkpt lat="40.072063" lon="-105.2298475">
  <ele>1583.02</ele>
  <time>2026-08-28T17:55:43Z</time>
  <course>25.89</course>
  <speed>0.02</speed>
  <fix>3d</fix>
</trkpt>
<trkpt lat="40.0720632" lon="-105.2298476">
  <ele>1583.0</ele>
  <time>2026-08-28T17:55:43Z</time>
  <course>114.74</course>
  <speed>0.0</speed>
  <fix>3d</fix>
</trkpt>
<trkpt lat="40.072063" lon="-105.2298475">
  <ele>1583.02</ele>
  <time>2026-08-28T17:55:43Z</time>
  <course>25.88</course>
  <speed>0.02</speed>
  <fix>3d</fix>
</trkpt>
<trkpt lat="40.0720632" lon="-105.2298476">
  <ele>1583.0</ele>
  <time>2026-08-28T17:55:43Z</time>
  <course>114.74</course>
  <speed>0.0</speed>
  <fix>3d</fix>
</trkpt>
<trkpt lat="40.072063" lon="-105.2298475">
  <ele>1583.03</ele>
  <time>2026-08-28T17:55:43Z</time>
  <course>25.88</course>
  <speed>0.02</speed>
  <fix>3d</fix>
</trkpt>
<trkpt lat="40.0720632" lon="-105.2298476">
  <ele>1583.0</ele>
  <time>2026-08-28T17:55:43Z</time>
  <course>114.74</course>
  <speed>0.0</speed>
  <fix>3d</fix>
</trkpt>
<trkpt lat="40.072063" lon="-105.2298475">
  <ele>1583.03</ele>
  <time>2026-08-28T17:55:43Z</time>
  <course>25.88</course>
  <speed>0.02</speed>
  <fix>3d</fix>
</trkpt>
<trkpt lat="40.0720632" lon="-105.2298476">
  <ele>1583.0</ele>
  <time>2026-08-28T17:55:43Z</time>
  <course>114.74</course>
  <speed>0.0</speed>
  <fix>3d</fix>
</trkpt>
<trkpt lat="40.072063" lon="-105.2298475">
  <ele>1583.02</ele>
  <time>2026-08-28T17:55:43Z</time>
  <course>25.88</course>
  <speed>0.02</speed>
  <fix>3d</fix>
</trkpt>
<trkpt lat="40.0720632" lon="-105.2298476">
  <ele>1583.0</ele>
  <time>2026-08-28T17:55:43Z</time>
  <course>114.74</course>
  <speed>0.0</speed>
  <fix>3d</fix>
</trkpt>
<trkpt lat="40.072063" lon="-105.2298475">
  <ele>1583.02</ele>
  <time>2026-08-28T17:55:43Z</time>
  <course>25.88</course>
  <speed>0.02</speed>
  <fix>3d</fix>
</trkpt>
<trkpt lat="40.0720632" lon="-105.2298476">
  <ele>1583.0</ele>
  <time>2026-08-28T17:55:43Z</time>
  <course>114.74</course>
  <speed>0.0</speed>
  <fix>3d</fix>
</trkpt>
<trkpt lat="40.072063" lon="-105.2298475">
  <ele>1583.02</ele>
  <time>2026-08-28T17:55:43Z</time>
  <course>25.88</course>
  <speed>0.02</speed>
  <fix>3d</fix>
</trkpt>
<trkpt lat="40.0720632" lon="-105.2298476">
  <ele>1583.0</ele>
  <time>2026-08-28T17:55:43Z</time>
  <course>114.74</course>
  <speed>0.0</speed>
  <fix>3d</fix>
</trkpt>
<trkpt lat="40.072063" lon="-105.2298475">
  <ele>1583.02</ele>
  <time>2026-08-28T17:55:43Z</time>
  <course>25.88</course>
  <speed>0.02</speed>
  <fix>3d</fix>
</trkpt>
<trkpt lat="40.0720632" lon="-105.2298476">
  <ele>1583.0</ele>
  <time>2026-08-28T17:55:43Z</time>
  <course>114.74</course>
  <speed>0.0</speed>
  <fix>3d</fix>
</trkpt>
<trkpt lat="40.072063" lon="-105.2298475">
  <ele>1583.02</ele>
  <time>2026-08-28T17:55:43Z</time>
  <course>25.88</course>
  <speed>0.02</speed>
  <fix>3d</fix>
</trkpt>
<trkpt lat="40.0720632" lon="-105.2298476">
  <ele>1583.0</ele>
  <time>2026-08-28T17:55:43Z</time>
  <course>114.74</course>
  <speed>0.0</speed>
  <fix>3d</fix>
</trkpt>
<trkpt lat="40.072063" lon="-105.2298475">
  <ele>1583.02</ele>
  <time>2026-08-28T17:55:43Z</time>
  <course>25.88</course>
  <speed>0.02</speed>
  <fix>3d</fix>
</trkpt>
<trkpt lat="40.0720632" lon="-105.2298476">
  <ele>1583.0</ele>
  <time>2026-08-28T17:55:43Z</time>
  <course>114.74</course>
  <speed>0.0</speed>
  <fix>3d</fix>
</trkpt>
<trkpt lat="40.072063" lon="-105.2298475">
  <ele>1583.02</ele>
  <time>2026-08-28T17:55:43Z</time>
  <course>25.88</course>
  <speed>0.02</speed>
  <fix>3d</fix>
</trkpt>
<trkpt lat="40.0720632" lon="-105.2298476">
  <ele>1583.0</ele>
  <time>2026-08-28T17:55:43Z</time>
  <course>114.74</course>
  <speed>0.0</speed>
  <fix>3d</fix>
</trkpt>
<trkpt lat="40.072063" lon="-105.2298475">
  <ele>1583.02</ele>
  <time>2026-08-28T17:55:43Z</time>
  <course>25.88</course>
  <speed>0.02</speed>
  <fix>3d</fix>
</trkpt>
<trkpt lat="40.0720632" lon="-105.2298476">
  <ele>1583.0</ele>
  <time>2026-08-28T17:55:43Z</time>
  <course>114.74</course>
  <speed>0.0</speed>
  <fix>3d</fix>
</trkpt>
<trkpt lat="40.072063" lon="-105.2298475">
  <ele>1583.02</ele>
  <time>2026-08-28T17:55:43Z</time>
  <course>25.88</course>
  <speed>0.02</speed>
  <fix>3d</fix>
</trkpt>
<trkpt lat="40.0720632" lon="-105.2298476">
  <ele>1583.0</ele>
  <time>2026-08-28T17:55:43Z</time>
  <course>114.74</course>
  <speed>0.0</speed>
  <fix>3d</fix>
</trkpt>
<trkpt lat="40.072063" lon="-105.2298475">
  <ele>1583.01</ele>
  <time>2026-08-28T17:55:43Z</time>
  <course>25.88</course>
  <speed>0.02</speed>
  <fix>3d</fix>
</trkpt>
<trkpt lat="40.0720632" lon="-105.2298476">
  <ele>1583.0</ele>
  <time>2026-08-28T17:55:43Z</time>
  <course>114.74</course>
  <speed>0.0</speed>
  <fix>3d</fix>
</trkpt>
<trkpt lat="40.072063" lon="-105.2298475">
  <ele>1583.0</ele>
  <time>2026-08-28T17:55:43Z</time>
  <course>25.88</course>
  <speed>0.02</speed>
  <fix>3d</fix>
</trkpt>
<trkpt lat="40.0720632" lon="-105.2298476">
  <ele>1583.0</ele>
  <time>2026-08-28T17:55:43Z</time>
  <course>114.74</course>
  <speed>0.0</speed>
  <fix>3d</fix>
</trkpt>
<trkpt lat="40.072063" lon="-105.2298475">
  <ele>1582.99</ele>
  <time>2026-08-28T17:55:43Z</time>
  <course>25.88</course>
  <speed>0.02</speed>
  <fix>3d</fix>
</trkpt>
<trkpt lat="40.0720632" lon="-105.2298476">
  <ele>1583.0</ele>
  <time>2026-08-28T17:55:43Z</time>
  <course>114.74</course>
  <speed>0.0</speed>
  <fix>3d</fix>
</trkpt>
<trkpt lat="40.072063" lon="-105.2298475">
  <ele>1582.99</ele>
  <time>2026-08-28T17:55:43Z</time>
  <course>25.88</course>
  <speed>0.02</speed>
  <fix>3d</fix>
</trkpt>
<trkpt lat="40.0720632" lon="-105.2298476">
  <ele>1583.0</ele>
  <time>2026-08-28T17:55:43Z</time>
  <course>114.74</course>
  <speed>0.0</speed>
  <fix>3d</fix>
</trkpt>
<trkpt lat="40.072063" lon="-105.2298475">
  <ele>1582.98</ele>
  <time>2026-08-28T17:55:43Z</time>
  <course>25.88</course>
  <speed>0.02</speed>
  <fix>3d</fix>
</trkpt>
<trkpt lat="40.0720632" lon="-105.2298476">
  <ele>1583.0</ele>
  <time>2026-08-28T17:55:43Z</time>
  <course>114.74</course>
  <speed>0.0</speed>
  <fix>3d</fix>
</trkpt>
<trkpt lat="40.072063" lon="-105.2298475">
  <ele>1582.97</ele>
  <time>2026-08-28T17:55:43Z</time>
  <course>25.88</course>
  <speed>0.02</speed>
  <fix>3d</fix>
</trkpt>
<trkpt lat="40.0720632" lon="-105.2298476">
  <ele>1583.0</ele>
  <time>2026-08-28T17:55:43Z</time>
  <course>114.74</course>
  <speed>0.0</speed>
  <fix>3d</fix>
</trkpt>
<trkpt lat="40.072063" lon="-105.2298475">
  <ele>1582.96</ele>
  <time>2026-08-28T17:55:43Z</time>
  <course>25.88</course>
  <speed>0.02</speed>
  <fix>3d</fix>
</trkpt>
<trkpt lat="40.0720632" lon="-105.2298476">
  <ele>1583.0</ele>
  <time>2026-08-28T17:55:43Z</time>
  <course>114.74</course>
  <speed>0.0</speed>
  <fix>3d</fix>
</trkpt>
<trkpt lat="40.072063" lon="-105.2298475">
  <ele>1582.95</ele>
  <time>2026-08-28T17:55:43Z</time>
  <course>25.87</course>
  <speed>0.02</speed>
  <fix>3d</fix>
</trkpt>
<trkpt lat="40.0720632" lon="-105.2298476">
  <ele>1583.0</ele>
  <time>2026-08-28T17:55:43Z</time>
  <course>114.74</course>
  <speed>0.0</speed>
  <fix>3d</fix>
</trkpt>
<trkpt lat="40.072063" lon="-105.2298475">
  <ele>1582.95</ele>
  <time>2026-08-28T17:55:43Z</time>
  <course>25.87</course>
  <speed>0.02</speed>
  <fix>3d</fix>
</trkpt>
<trkpt lat="40.0720632" lon="-105.2298476">
  <ele>1583.0</ele>
  <time>2026-08-28T17:55:43Z</time>
  <course>114.74</course>
  <speed>0.0</speed>
  <fix>3d</fix>
</trkpt>
<trkpt lat="40.072063" lon="-105.2298475">
  <ele>1582.94</ele>
  <time>2026-08-28T17:55:43Z</time>
  <course>25.87</course>
  <speed>0.02</speed>
  <fix>3d</fix>
</trkpt>
<trkpt lat="40.0720632" lon="-105.2298476">
  <ele>1583.0</ele>
  <time>2026-08-28T17:55:43Z</time>
  <course>114.74</course>
  <speed>0.0</speed>
  <fix>3d</fix>
</trkpt>
<trkpt lat="40.072063" lon="-105.2298475">
  <ele>1582.94</ele>
  <time>2026-08-28T17:55:43Z</time>
  <course>25.87</course>
  <speed>0.02</speed>
  <fix>3d</fix>
</trkpt>
<trkpt lat="40.0720632" lon="-105.2298476">
  <ele>1583.0</ele>
  <time>2026-08-28T17:55:43Z</time>
  <course>114.74</course>
  <speed>0.0</speed>
  <fix>3d</fix>
</trkpt>
<trkpt lat="40.072063" lon="-105.2298475">
  <ele>1582.94</ele>
  <time>2026-08-28T17:55:43Z</time>
  <course>25.87</course>
  <speed>0.02</speed>
  <fix>3d</fix>
</trkpt>
<trkpt lat="40.0720632" lon="-105.2298476">
  <ele>1583.0</ele>
  <time>2026-08-28T17:55:43Z</time>
  <course>114.74</course>
  <speed>0.0</speed>
  <fix>3d</fix>
</trkpt>
<trkpt lat="40.072063" lon="-105.2298475">
  <ele>1582.95</ele>
  <time>2026-08-28T17:55:43Z</time>
  <course>25.87</course>
  <speed>0.02</speed>
  <fix>3d</fix>
</trkpt>
<trkpt lat="40.0720632" lon="-105.2298476">
  <ele>1583.0</ele>
  <time>2026-08-28T17:55:43Z</time>
  <course>114.74</course>
  <speed>0.0</speed>
  <fix>3d</fix>
</trkpt>
<trkpt lat="40.072063" lon="-105.2298475">
  <ele>1582.95</ele>
  <time>2026-08-28T17:55:43Z</time>
  <course>25.87</course>
  <speed>0.02</speed>
  <fix>3d</fix>
</trkpt>
<trkpt lat="40.0720632" lon="-105.2298476">
  <ele>1583.0</ele>
  <time>2026-08-28T17:55:43Z</time>
  <course>114.74</course>
  <speed>0.0</speed>
  <fix>3d</fix>
</trkpt>
<trkpt lat="40.072063" lon="-105.2298475">
  <ele>1582.95</ele>
  <time>2026-08-28T17:55:43Z</time>
  <course>25.87</course>
  <speed>0.02</speed>
  <fix>3d</fix>
</trkpt>
<trkpt lat="40.0720632" lon="-105.2298476">
  <ele>1583.0</ele>
  <time>2026-08-28T17:55:43Z</time>
  <course>114.74</course>
  <speed>0.0</speed>
  <fix>3d</fix>
</trkpt>
<trkpt lat="40.072063" lon="-105.2298475">
  <ele>1582.96</ele>
  <time>2026-08-28T17:55:43Z</time>
  <course>25.87</course>
  <speed>0.02</speed>
  <fix>3d</fix>
</trkpt>
<trkpt lat="40.0720632" lon="-105.2298476">
  <ele>1583.0</ele>
  <time>2026-08-28T17:55:43Z</time>
  <course>114.74</course>
  <speed>0.0</speed>
  <fix>3d</fix>
</trkpt>
<trkpt lat="40.072063" lon="-105.2298475">
  <ele>1582.97</ele>
  <time>2026-08-28T17:55:43Z</time>
  <course>25.87</course>
  <speed>0.02</speed>
  <fix>3d</fix>
</trkpt>
<trkpt lat="40.0720632" lon="-105.2298476">
  <ele>1583.0</ele>
  <time>2026-08-28T17:55:43Z</time>
  <course>114.74</course>
  <speed>0.0</speed>
  <fix>3d</fix>
</trkpt>
<trkpt lat="40.072063" lon="-105.2298475">
  <ele>1582.97</ele>
  <time>2026-08-28T17:55:43Z</time>
  <course>25.87</course>
  <speed>0.02</speed>
  <fix>3d</fix>
</trkpt>
<trkpt lat="40.0720632" lon="-105.2298476">
  <ele>1583.0</ele>
  <time>2026-08-28T17:55:43Z</time>
  <course>114.74</course>
  <speed>0.0</speed>
  <fix>3d</fix>
</trkpt>
<trkpt lat="40.072063" lon="-105.2298475">
  <ele>1582.98</ele>
  <time>2026-08-28T17:55:43Z</time>
  <course>25.87</course>
  <speed>0.02</speed>
  <fix>3d</fix>
</trkpt>
<trkpt lat="40.0720632" lon="-105.2298476">
  <ele>1583.0</ele>
  <time>2026-08-28T17:55:43Z</time>
  <course>114.74</course>
  <speed>0.0</speed>
  <fix>3d</fix>
</trkpt>
<trkpt lat="40.072063" lon="-105.2298475">
  <ele>1582.98</ele>
  <time>2026-08-28T17:55:43Z</time>
  <course>25.87</course>
  <speed>0.02</speed>
  <fix>3d</fix>
</trkpt>
<trkpt lat="40.0720632" lon="-105.2298476">
  <ele>1583.0</ele>
  <time>2026-08-28T17:55:43Z</time>
  <course>114.74</course>
  <speed>0.0</speed>
  <fix>3d</fix>
</trkpt>
<trkpt lat="40.072063" lon="-105.2298475">
  <ele>1582.98</ele>
  <time>2026-08-28T17:55:43Z</time>
  <course>25.87</course>
  <speed>0.02</speed>
  <fix>3d</fix>
</trkpt>
<trkpt lat="40.0720632" lon="-105.2298476">
  <ele>1583.0</ele>
  <time>2026-08-28T17:55:43Z</time>
  <course>114.74</course>
  <speed>0.0</speed>
  <fix>3d</fix>
</trkpt>
<trkpt lat="40.072063" lon="-105.2298475">
  <ele>1582.97</ele>
  <time>2026-08-28T17:55:43Z</time>
  <course>25.87</course>
  <speed>0.02</speed>
  <fix>3d</fix>
</trkpt>
<trkpt lat="40.0720632" lon="-105.2298476">
  <ele>1583.0</ele>
  <time>2026-08-28T17:55:43Z</time>
  <course>114.74</course>
  <speed>0.0</speed>
  <fix>3d</fix>
</trkpt>
<trkpt lat="40.072063" lon="-105.2298475">
  <ele>1582.97</ele>
  <time>2026-08-28T17:55:43Z</time>
  <course>25.87</course>
  <speed>0.02</speed>
  <fix>3d</fix>
</trkpt>
<trkpt lat="40.0720632" lon="-105.2298476">
  <ele>1583.0</ele>
  <time>2026-08-28T17:55:43Z</time>
  <course>114.74</course>
  <speed>0.0</speed>
  <fix>3d</fix>
</trkpt>
<trkpt lat="40.072063" lon="-105.2298475">
  <ele>1582.96</ele>
  <time>2026-08-28T17:55:43Z</time>
  <course>25.87</course>
  <speed>0.02</speed>
  <fix>3d</fix>
</trkpt>
<trkpt lat="40.0720632" lon="-105.2298476">
  <ele>1583.0</ele>
  <time>2026-08-28T17:55:43Z</time>
  <course>114.74</course>
  <speed>0.0</speed>
  <fix>3d</fix>
</trkpt>
<trkpt lat="40.072063" lon="-105.2298475">
  <ele>1582.95</ele>
  <time>2026-08-28T17:55:43Z</time>
  <course>25.87</course>
  <speed>0.02</speed>
  <fix>3d</fix>
</trkpt>
<trkpt lat="40.0720632" lon="-105.2298476">
  <ele>1583.0</ele>
  <time>2026-08-28T17:55:43Z</time>
  <course>114.74</course>
  <speed>0.0</speed>
  <fix>3d</fix>
</trkpt>
<trkpt lat="40.072063" lon="-105.2298475">
  <ele>1582.95</ele>
  <time>2026-08-28T17:55:43Z</time>
  <course>25.87</course>
  <speed>0.02</speed>
  <fix>3d</fix>
</trkpt>
<trkpt lat="40.0720632" lon="-105.2298476">
  <ele>1583.0</ele>
  <time>2026-08-28T17:55:43Z</time>
  <course>114.74</course>
  <speed>0.0</speed>
  <fix>3d</fix>
</trkpt>
<trkpt lat="40.072063" lon="-105.2298475">
  <ele>1582.94</ele>
  <time>2026-08-28T17:55:43Z</time>
  <course>25.87</course>
  <speed>0.02</speed>
  <fix>3d</fix>
</trkpt>
<trkpt lat="40.0720632" lon="-105.2298476">
  <ele>1583.0</ele>
  <time>2026-08-28T17:55:43Z</time>
  <course>114.74</course>
  <speed>0.0</speed>
  <fix>3d</fix>
</trkpt>
<trkpt lat="40.072063" lon="-105.2298475">
  <ele>1582.94</ele>
  <time>2026-08-28T17:55:43Z</time>
  <course>25.87</course>
  <speed>0.02</speed>
  <fix>3d</fix>
</trkpt>
<trkpt lat="40.0720632" lon="-105.2298476">
  <ele>1583.0</ele>
  <time>2026-08-28T17:55:43Z</time>
  <course>114.74</course>
  <speed>0.0</speed>
  <fix>3d</fix>
</trkpt>
<trkpt lat="40.072063" lon="-105.2298475">
  <ele>1582.93</ele>
  <time>2026-08-28T17:55:43Z</time>
  <course>25.86</course>
  <speed>0.02</speed>
  <fix>3d</fix>
</trkpt>
<trkpt lat="40.0720632" lon="-105.2298476">
  <ele>1583.0</ele>
  <time>2026-08-28T17:55:43Z</time>
  <course>114.74</course>
  <speed>0.0</speed>
  <fix>3d</fix>
</trkpt>
<trkpt lat="40.072063" lon="-105.2298475">
  <ele>1582.92</ele>
  <time>2026-08-28T17:55:43Z</time>
  <course>25.86</course>
  <speed>0.02</speed>
  <fix>3d</fix>
</trkpt>
<trkpt lat="40.0720632" lon="-105.2298476">
  <ele>1583.0</ele>
  <time>2026-08-28T17:55:43Z</time>
  <course>114.74</course>
  <speed>0.0</speed>
  <fix>3d</fix>
</trkpt>
<trkpt lat="40.072063" lon="-105.2298475">
  <ele>1582.92</ele>
  <time>2026-08-28T17:55:43Z</time>
  <course>25.86</course>
  <speed>0.02</speed>
  <fix>3d</fix>
</trkpt>
<trkpt lat="40.0720632" lon="-105.2298476">
  <ele>1583.0</ele>
  <time>2026-08-28T17:55:43Z</time>
  <course>114.74</course>
  <speed>0.0</speed>
  <fix>3d</fix>
</trkpt>
<trkpt lat="40.072063" lon="-105.2298475">
  <ele>1582.92</ele>
  <time>2026-08-28T17:55:43Z</time>
  <course>25.86</course>
  <speed>0.02</speed>
  <fix>3d</fix>
</trkpt>
<trkpt lat="40.0720632" lon="-105.2298476">
  <ele>1583.0</ele>
  <time>2026-08-28T17:55:43Z</time>
  <course>114.74</course>
  <speed>0.0</speed>
  <fix>3d</fix>
</trkpt>
<trkpt lat="40.072063" lon="-105.2298475">
  <ele>1582.91</ele>
  <time>2026-08-28T17:55:43Z</time>
  <course>25.86</course>
  <speed>0.02</speed>
  <fix>3d</fix>
</trkpt>
<trkpt lat="40.0720632" lon="-105.2298476">
  <ele>1583.0</ele>
  <time>2026-08-28T17:55:43Z</time>
  <course>114.74</course>
  <speed>0.0</speed>
  <fix>3d</fix>
</trkpt>
<trkpt lat="40.072063" lon="-105.2298475">
  <ele>1582.91</ele>
  <time>2026-08-28T17:55:43Z</time>
  <course>25.86</course>
  <speed>0.02</speed>
  <fix>3d</fix>
</trkpt>
<trkpt lat="40.0720632" lon="-105.2298476">
  <ele>1583.0</ele>
  <time>2026-08-28T17:55:43Z</time>
  <course>114.74</course>
  <speed>0.0</speed>
  <fix>3d</fix>
</trkpt>
<trkpt lat="40.072063" lon="-105.2298475">
  <ele>1582.91</ele>
  <time>2026-08-28T17:55:43Z</time>
  <course>25.86</course>
  <speed>0.02</speed>
  <fix>3d</fix>
</trkpt>
<trkpt lat="40.0720632" lon="-105.2298476">
  <ele>1583.0</ele>
  <time>2026-08-28T17:55:43Z</time>
  <course>114.74</course>
  <speed>0.0</speed>
  <fix>3d</fix>
</trkpt>
<trkpt lat="40.072063" lon="-105.2298475">
  <ele>1582.9</ele>
  <time>2026-08-28T17:55:43Z</time>
  <course>25.86</course>
  <speed>0.02</speed>
  <fix>3d</fix>
</trkpt>
<trkpt lat="40.0720632" lon="-105.2298476">
  <ele>1583.0</ele>
  <time>2026-08-28T17:55:43Z</time>
  <course>114.74</course>
  <speed>0.0</speed>
  <fix>3d</fix>
</trkpt>
<trkpt lat="40.072063" lon="-105.2298475">
  <ele>1582.9</ele>
  <time>2026-08-28T17:55:43Z</time>
  <course>25.86</course>
  <speed>0.02</speed>
  <fix>3d</fix>
</trkpt>
<trkpt lat="40.0720632" lon="-105.2298476">
  <ele>1583.0</ele>
  <time>2026-08-28T17:55:43Z</time>
  <course>114.74</course>
  <speed>0.0</speed>
  <fix>3d</fix>
</trkpt>
<trkpt lat="40.072063" lon="-105.2298475">
  <ele>1582.9</ele>
  <time>2026-08-28T17:55:43Z</time>
  <course>25.86</course>
  <speed>0.02</speed>
  <fix>3d</fix>
</trkpt>
<trkpt lat="40.0720632" lon="-105.2298476">
  <ele>1583.0</ele>
  <time>2026-08-28T17:55:43Z</time>
  <course>114.74</course>
  <speed>0.0</speed>
  <fix>3d</fix>
</trkpt>
<trkpt lat="40.072063" lon="-105.2298475">
  <ele>1582.9</ele>
  <time>2026-08-28T17:55:43Z</time>
  <course>25.86</course>
  <speed>0.02</speed>
  <fix>3d</fix>
</trkpt>
<trkpt lat="40.0720632" lon="-105.2298476">
  <ele>1583.0</ele>
  <time>2026-08-28T17:55:43Z</time>
  <course>114.74</course>
  <speed>0.0</speed>
  <fix>3d</fix>
</trkpt>
<trkpt lat="40.072063" lon="-105.2298475">
  <ele>1582.9</ele>
  <time>2026-08-28T17:55:43Z</time>
  <course>25.86</course>
  <speed>0.02</speed>
  <fix>3d</fix>
</trkpt>
<trkpt lat="40.0720632" lon="-105.2298476">
  <ele>1583.0</ele>
  <time>2026-08-28T17:55:43Z</time>
  <course>114.74</course>
  <speed>0.0</speed>
  <fix>3d</fix>
</trkpt>
<trkpt lat="40.072063" lon="-105.2298475">
  <ele>1582.9</ele>
  <time>2026-08-28T17:55:43Z</time>
  <course>25.86</course>
  <speed>0.02</speed>
  <fix>3d</fix>
</trkpt>
<trkpt lat="40.0720632" lon="-105.2298476">
  <ele>1583.0</ele>
  <time>2026-08-28T17:55:43Z</time>
  <course>114.74</course>
  <speed>0.0</speed>
  <fix>3d</fix>
</trkpt>
<trkpt lat="40.072063" lon="-105.2298475">
  <ele>1582.9</ele>
  <time>2026-08-28T17:55:43Z</time>
  <course>25.86</course>
  <speed>0.02</speed>
  <fix>3d</fix>
</trkpt>
<trkpt lat="40.0720632" lon="-105.2298476">
  <ele>1583.0</ele>
  <time>2026-08-28T17:55:43Z</time>
  <course>114.74</course>
  <speed>0.0</speed>
  <fix>3d</fix>
</trkpt>
<trkpt lat="40.072063" lon="-105.2298475">
  <ele>1582.91</ele>
  <time>2026-08-28T17:55:43Z</time>
  <course>25.86</course>
  <speed>0.02</speed>
  <fix>3d</fix>
</trkpt>
<trkpt lat="40.0720632" lon="-105.2298476">
  <ele>1583.0</ele>
  <time>2026-08-28T17:55:43Z</time>
  <course>114.74</course>
  <speed>0.0</speed>
  <fix>3d</fix>
</trkpt>
<trkpt lat="40.072063" lon="-105.2298475">
  <ele>1582.91</ele>
  <time>2026-08-28T17:55:43Z</time>
  <course>25.86</course>
  <speed>0.02</speed>
  <fix>3d</fix>
</trkpt>
<trkpt lat="40.0720632" lon="-105.2298476">
  <ele>1583.0</ele>
  <time>2026-08-28T17:55:43Z</time>
  <course>114.74</course>
  <speed>0.0</speed>
  <fix>3d</fix>
</trkpt>
<trkpt lat="40.072063" lon="-105.2298475">
  <ele>1582.91</ele>
  <time>2026-08-28T17:55:43Z</time>
  <course>25.86</course>
  <speed>0.02</speed>
  <fix>3d</fix>
</trkpt>
<trkpt lat="40.0720632" lon="-105.2298476">
  <ele>1583.0</ele>
  <time>2026-08-28T17:55:43Z</time>
  <course>114.74</course>
  <speed>0.0</speed>
  <fix>3d</fix>
</trkpt>
<trkpt lat="40.072063" lon="-105.2298475">
  <ele>1582.91</ele>
  <time>2026-08-28T17:55:43Z</time>
  <course>25.86</course>
  <speed>0.02</speed>
  <fix>3d</fix>
</trkpt>
<trkpt lat="40.0720632" lon="-105.2298476">
  <ele>1583.0</ele>
  <time>2026-08-28T17:55:43Z</time>
  <course>114.74</course>
  <speed>0.0</speed>
  <fix>3d</fix>
</trkpt>
<trkpt lat="40.072063" lon="-105.2298475">
  <ele>1582.91</ele>
  <time>2026-08-28T17:55:43Z</time>
  <course>25.86</course>
  <speed>0.02</speed>
  <fix>3d</fix>
</trkpt>
<trkpt lat="40.0720632" lon="-105.2298476">
  <ele>1583.0</ele>
  <time>2026-08-28T17:55:43Z</time>
  <course>114.74</course>
  <speed>0.0</speed>
  <fix>3d</fix>
</trkpt>
<trkpt lat="40.072063" lon="-105.2298475">
  <ele>1582.92</ele>
  <time>2026-08-28T17:55:43Z</time>
  <course>25.86</course>
  <speed>0.02</speed>
  <fix>3d</fix>
</trkpt>
<trkpt lat="40.0720632" lon="-105.2298476">
  <ele>1583.0</ele>
  <time>2026-08-28T17:55:43Z</time>
  <course>114.74</course>
  <speed>0.0</speed>
  <fix>3d</fix>
</trkpt>
<trkpt lat="40.072063" lon="-105.2298475">
  <ele>1582.92</ele>
  <time>2026-08-28T17:55:43Z</time>
  <course>25.86</course>
  <speed>0.02</speed>
  <fix>3d</fix>
</trkpt>
<trkpt lat="40.0720632" lon="-105.2298476">
  <ele>1583.0</ele>
  <time>2026-08-28T17:55:43Z</time>
  <course>114.74</course>
  <speed>0.0</speed>
  <fix>3d</fix>
</trkpt>
<trkpt lat="40.072063" lon="-105.2298475">
  <ele>1582.92</ele>
  <time>2026-08-28T17:55:43Z</time>
  <course>25.86</course>
  <speed>0.02</speed>
  <fix>3d</fix>
</trkpt>
<trkpt lat="40.0720632" lon="-105.2298476">
  <ele>1583.0</ele>
  <time>2026-08-28T17:55:43Z</time>
  <course>114.74</course>
  <speed>0.0</speed>
  <fix>3d</fix>
</trkpt>
<trkpt lat="40.072063" lon="-105.2298475">
  <ele>1582.93</ele>
  <time>2026-08-28T17:55:43Z</time>
  <course>25.85</course>
  <speed>0.02</speed>
  <fix>3d</fix>
</trkpt>
<trkpt lat="40.0720632" lon="-105.2298476">
  <ele>1583.0</ele>
  <time>2026-08-28T17:55:43Z</time>
  <course>114.74</course>
  <speed>0.0</speed>
  <fix>3d</fix>
</trkpt>
<trkpt lat="40.072063" lon="-105.2298475">
  <ele>1582.93</ele>
  <time>2026-08-28T17:55:43Z</time>
  <course>25.85</course>
  <speed>0.02</speed>
  <fix>3d</fix>
</trkpt>
<trkpt lat="40.0720632" lon="-105.2298476">
  <ele>1583.0</ele>
  <time>2026-08-28T17:55:43Z</time>
  <course>114.74</course>
  <speed>0.0</speed>
  <fix>3d</fix>
</trkpt>
<trkpt lat="40.072063" lon="-105.2298475">
  <ele>1582.94</ele>
  <time>2026-08-28T17:55:43Z</time>
  <course>25.85</course>
  <speed>0.02</speed>
  <fix>3d</fix>
</trkpt>
<trkpt lat="40.0720632" lon="-105.2298476">
  <ele>1583.0</ele>
  <time>2026-08-28T17:55:43Z</time>
  <course>114.74</course>
  <speed>0.0</speed>
  <fix>3d</fix>
</trkpt>
<trkpt lat="40.072063" lon="-105.2298475">
  <ele>1582.95</ele>
  <time>2026-08-28T17:55:43Z</time>
  <course>25.85</course>
  <speed>0.02</speed>
  <fix>3d</fix>
</trkpt>
<trkpt lat="40.0720632" lon="-105.2298476">
  <ele>1583.0</ele>
  <time>2026-08-28T17:55:43Z</time>
  <course>114.74</course>
  <speed>0.0</speed>
  <fix>3d</fix>
</trkpt>
<trkpt lat="40.072063" lon="-105.2298475">
  <ele>1582.95</ele>
  <time>2026-08-28T17:55:43Z</time>
  <course>25.85</course>
  <speed>0.02</speed>
  <fix>3d</fix>
</trkpt>
<trkpt lat="40.0720632" lon="-105.2298476">
  <ele>1583.0</ele>
  <time>2026-08-28T17:55:43Z</time>
  <course>114.74</course>
  <speed>0.0</speed>
  <fix>3d</fix>
</trkpt>
<trkpt lat="40.072063" lon="-105.2298475">
  <ele>1582.96</ele>
  <time>2026-08-28T17:55:43Z</time>
  <course>25.85</course>
  <speed>0.02</speed>
  <fix>3d</fix>
</trkpt>
<trkpt lat="40.0720632" lon="-105.2298476">
  <ele>1583.0</ele>
  <time>2026-08-28T17:55:43Z</time>
  <course>114.74</course>
  <speed>0.0</speed>
  <fix>3d</fix>
</trkpt>
<trkpt lat="40.072063" lon="-105.2298475">
  <ele>1582.96</ele>
  <time>2026-08-28T17:55:43Z</time>
  <course>25.85</course>
  <speed>0.02</speed>
  <fix>3d</fix>
</trkpt>
<trkpt lat="40.0720632" lon="-105.2298476">
  <ele>1583.0</ele>
  <time>2026-08-28T17:55:43Z</time>
  <course>114.74</course>
  <speed>0.0</speed>
  <fix>3d</fix>
</trkpt>
<trkpt lat="40.072063" lon="-105.2298475">
  <ele>1582.96</ele>
  <time>2026-08-28T17:55:43Z</time>
  <course>25.85</course>
  <speed>0.02</speed>
  <fix>3d</fix>
</trkpt>
<trkpt lat="40.0720632" lon="-105.2298476">
  <ele>1583.0</ele>
  <time>2026-08-28T17:55:43Z</time>
  <course>114.74</course>
  <speed>0.0</speed>
  <fix>3d</fix>
</trkpt>
<trkpt lat="40.072063" lon="-105.2298475">
  <ele>1582.97</ele>
  <time>2026-08-28T17:55:43Z</time>
  <course>25.85</course>
  <speed>0.02</speed>
  <fix>3d</fix>
</trkpt>
<trkpt lat="40.0720632" lon="-105.2298476">
  <ele>1583.0</ele>
  <time>2026-08-28T17:55:43Z</time>
  <course>114.74</course>
  <speed>0.0</speed>
  <fix>3d</fix>
</trkpt>
<trkpt lat="40.072063" lon="-105.2298475">
  <ele>1582.97</ele>
  <time>2026-08-28T17:55:43Z</time>
  <course>25.85</course>
  <speed>0.02</speed>
  <fix>3d</fix>
</trkpt>
<trkpt lat="40.0720632" lon="-105.2298476">
  <ele>1583.0</ele>
  <time>2026-08-28T17:55:43Z</time>
  <course>114.74</course>
  <speed>0.0</speed>
  <fix>3d</fix>
</trkpt>
<trkpt lat="40.072063" lon="-105.2298475">
  <ele>1582.97</ele>
  <time>2026-08-28T17:55:43Z</time>
  <course>25.85</course>
  <speed>0.02</speed>
  <fix>3d</fix>
</trkpt>
<trkpt lat="40.0720632" lon="-105.2298476">
  <ele>1583.0</ele>
  <time>2026-08-28T17:55:43Z</time>
  <course>114.74</course>
  <speed>0.0</speed>
  <fix>3d</fix>
</trkpt>
<trkpt lat="40.072063" lon="-105.2298475">
  <ele>1582.97</ele>
  <time>2026-08-28T17:55:43Z</time>
  <course>25.85</course>
  <speed>0.02</speed>
  <fix>3d</fix>
</trkpt>
<trkpt lat="40.0720632" lon="-105.2298476">
  <ele>1583.0</ele>
  <time>2026-08-28T17:55:43Z</time>
  <course>114.74</course>
  <speed>0.0</speed>
  <fix>3d</fix>
</trkpt>
<trkpt lat="40.072063" lon="-105.2298475">
  <ele>1582.97</ele>
  <time>2026-08-28T17:55:43Z</time>
  <course>25.85</course>
  <speed>0.02</speed>
  <fix>3d</fix>
</trkpt>
<trkpt lat="40.0720632" lon="-105.2298476">
  <ele>1583.0</ele>
  <time>2026-08-28T17:55:43Z</time>
  <course>114.74</course>
  <speed>0.0</speed>
  <fix>3d</fix>
</trkpt>
<trkpt lat="40.072063" lon="-105.2298475">
  <ele>1582.97</ele>
  <time>2026-08-28T17:55:43Z</time>
  <course>25.85</course>
  <speed>0.02</speed>
  <fix>3d</fix>
</trkpt>
<trkpt lat="40.0720632" lon="-105.2298476">
  <ele>1583.0</ele>
  <time>2026-08-28T17:55:43Z</time>
  <course>114.74</course>
  <speed>0.0</speed>
  <fix>3d</fix>
</trkpt>
<trkpt lat="40.072063" lon="-105.2298475">
  <ele>1582.97</ele>
  <time>2026-08-28T17:55:43Z</time>
  <course>25.85</course>
  <speed>0.02</speed>
  <fix>3d</fix>
</trkpt>
<trkpt lat="40.0720632" lon="-105.2298476">
  <ele>1583.0</ele>
  <time>2026-08-28T17:55:43Z</time>
  <course>114.74</course>
  <speed>0.0</speed>
  <fix>3d</fix>
</trkpt>
<trkpt lat="40.072063" lon="-105.2298475">
  <ele>1582.96</ele>
  <time>2026-08-28T17:55:43Z</time>
  <course>25.85</course>
  <speed>0.02</speed>
  <fix>3d</fix>
</trkpt>
<trkpt lat="40.0720632" lon="-105.2298476">
  <ele>1583.0</ele>
  <time>2026-08-28T17:55:43Z</time>
  <course>114.74</course>
  <speed>0.0</speed>
  <fix>3d</fix>
</trkpt>
<trkpt lat="40.072063" lon="-105.2298475">
  <ele>1582.96</ele>
  <time>2026-08-28T17:55:43Z</time>
  <course>25.85</course>
  <speed>0.02</speed>
  <fix>3d</fix>
</trkpt>
<trkpt lat="40.0720632" lon="-105.2298476">
  <ele>1583.0</ele>
  <time>2026-08-28T17:55:43Z</time>
  <course>114.74</course>
  <speed>0.0</speed>
  <fix>3d</fix>
</trkpt>
<trkpt lat="40.072063" lon="-105.2298475">
  <ele>1582.95</ele>
  <time>2026-08-28T17:55:43Z</time>
  <course>25.85</course>
  <speed>0.02</speed>
  <fix>3d</fix>
</trkpt>
<trkpt lat="40.0720632" lon="-105.2298476">
  <ele>1583.0</ele>
  <time>2026-08-28T17:55:43Z</time>
  <course>114.74</course>
  <speed>0.0</speed>
  <fix>3d</fix>
</trkpt>
<trkpt lat="40.072063" lon="-105.2298475">
  <ele>1582.95</ele>
  <time>2026-08-28T17:55:43Z</time>
  <course>25.85</course>
  <speed>0.02</speed>
  <fix>3d</fix>
</trkpt>
<trkpt lat="40.0720632" lon="-105.2298476">
  <ele>1583.0</ele>
  <time>2026-08-28T17:55:43Z</time>
  <course>114.74</course>
  <speed>0.0</speed>
  <fix>3d</fix>
</trkpt>
<trkpt lat="40.072063" lon="-105.2298475">
  <ele>1582.94</ele>
  <time>2026-08-28T17:55:43Z</time>
  <course>25.85</course>
  <speed>0.02</speed>
  <fix>3d</fix>
</trkpt>
<trkpt lat="40.0720632" lon="-105.2298476">
  <ele>1583.0</ele>
  <time>2026-08-28T17:55:43Z</time>
  <course>114.74</course>
  <speed>0.0</speed>
  <fix>3d</fix>
</trkpt>
<trkpt lat="40.072063" lon="-105.2298475">
  <ele>1582.94</ele>
  <time>2026-08-28T17:55:43Z</time>
  <course>25.85</course>
  <speed>0.02</speed>
  <fix>3d</fix>
</trkpt>
<trkpt lat="40.0720632" lon="-105.2298476">
  <ele>1583.0</ele>
  <time>2026-08-28T17:55:43Z</time>
  <course>114.74</course>
  <speed>0.0</speed>
  <fix>3d</fix>
</trkpt>
<trkpt lat="40.072063" lon="-105.2298475">
  <ele>1582.94</ele>
  <time>2026-08-28T17:55:43Z</time>
  <course>25.84</course>
  <speed>0.02</speed>
  <fix>3d</fix>
</trkpt>
<trkpt lat="40.0720632" lon="-105.2298476">
  <ele>1583.0</ele>
  <time>2026-08-28T17:55:43Z</time>
  <course>114.74</course>
  <speed>0.0</speed>
  <fix>3d</fix>
</trkpt>
<trkpt lat="40.072063" lon="-105.2298475">
  <ele>1582.95</ele>
  <time>2026-08-28T17:55:43Z</time>
  <course>25.84</course>
  <speed>0.02</speed>
  <fix>3d</fix>
</trkpt>
<trkpt lat="40.0720632" lon="-105.2298476">
  <ele>1583.0</ele>
  <time>2026-08-28T17:55:43Z</time>
  <course>114.74</course>
  <speed>0.0</speed>
  <fix>3d</fix>
</trkpt>
<trkpt lat="40.072063" lon="-105.2298475">
  <ele>1582.95</ele>
  <time>2026-08-28T17:55:43Z</time>
  <course>25.84</course>
  <speed>0.02</speed>
  <fix>3d</fix>
</trkpt>
<trkpt lat="40.0720632" lon="-105.2298476">
  <ele>1583.0</ele>
  <time>2026-08-28T17:55:43Z</time>
  <course>114.74</course>
  <speed>0.0</speed>
  <fix>3d</fix>
</trkpt>
<trkpt lat="40.072063" lon="-105.2298475">
  <ele>1582.95</ele>
  <time>2026-08-28T17:55:43Z</time>
  <course>25.84</course>
  <speed>0.02</speed>
  <fix>3d</fix>
</trkpt>
<trkpt lat="40.0720632" lon="-105.2298476">
  <ele>1583.0</ele>
  <time>2026-08-28T17:55:43Z</time>
  <course>114.74</course>
  <speed>0.0</speed>
  <fix>3d</fix>
</trkpt>
<trkpt lat="40.072063" lon="-105.2298475">
  <ele>1582.96</ele>
  <time>2026-08-28T17:55:43Z</time>
  <course>25.84</course>
  <speed>0.02</speed>
  <fix>3d</fix>
</trkpt>
<trkpt lat="40.0720632" lon="-105.2298476">
  <ele>1583.0</ele>
  <time>2026-08-28T17:55:43Z</time>
  <course>114.74</course>
  <speed>0.0</speed>
  <fix>3d</fix>
</trkpt>
<trkpt lat="40.072063" lon="-105.2298475">
  <ele>1582.96</ele>
  <time>2026-08-28T17:55:43Z</time>
  <course>25.84</course>
  <speed>0.02</speed>
  <fix>3d</fix>
</trkpt>
<trkpt lat="40.0720632" lon="-105.2298476">
  <ele>1583.0</ele>
  <time>2026-08-28T17:55:43Z</time>
  <course>114.74</course>
  <speed>0.0</speed>
  <fix>3d</fix>
</trkpt>
<trkpt lat="40.072063" lon="-105.2298475">
  <ele>1582.96</ele>
  <time>2026-08-28T17:55:43Z</time>
  <course>25.84</course>
  <speed>0.02</speed>
  <fix>3d</fix>
</trkpt>
<trkpt lat="40.0720632" lon="-105.2298476">
  <ele>1583.0</ele>
  <time>2026-08-28T17:55:43Z</time>
  <course>114.74</course>
  <speed>0.0</speed>
  <fix>3d</fix>
</trkpt>
<trkpt lat="40.072063" lon="-105.2298475">
  <ele>1582.96</ele>
  <time>2026-08-28T17:55:43Z</time>
  <course>25.84</course>
  <speed>0.02</speed>
  <fix>3d</fix>
</trkpt>
<trkpt lat="40.0720632" lon="-105.2298476">
  <ele>1583.0</ele>
  <time>2026-08-28T17:55:43Z</time>
  <course>114.74</course>
  <speed>0.0</speed>
  <fix>3d</fix>
</trkpt>
<trkpt lat="40.072063" lon="-105.2298475">
  <ele>1582.97</ele>
  <time>2026-08-28T17:55:43Z</time>
  <course>25.84</course>
  <speed>0.02</speed>
  <fix>3d</fix>
</trkpt>
<trkpt lat="40.0720632" lon="-105.2298476">
  <ele>1583.0</ele>
  <time>2026-08-28T17:55:43Z</time>
  <course>114.74</course>
  <speed>0.0</speed>
  <fix>3d</fix>
</trkpt>
<trkpt lat="40.072063" lon="-105.2298475">
  <ele>1582.97</ele>
  <time>2026-08-28T17:55:43Z</time>
  <course>25.84</course>
  <speed>0.02</speed>
  <fix>3d</fix>
</trkpt>
<trkpt lat="40.0720632" lon="-105.2298476">
  <ele>1583.0</ele>
  <time>2026-08-28T17:55:43Z</time>
  <course>114.74</course>
  <speed>0.0</speed>
  <fix>3d</fix>
</trkpt>
<trkpt lat="40.072063" lon="-105.2298475">
  <ele>1582.97</ele>
  <time>2026-08-28T17:55:43Z</time>
  <course>25.84</course>
  <speed>0.02</speed>
  <fix>3d</fix>
</trkpt>
<trkpt lat="40.0720632" lon="-105.2298476">
  <ele>1583.0</ele>
  <time>2026-08-28T17:55:43Z</time>
  <course>114.74</course>
  <speed>0.0</speed>
  <fix>3d</fix>
</trkpt>
<trkpt lat="40.072063" lon="-105.2298475">
  <ele>1582.97</ele>
  <time>2026-08-28T17:55:43Z</time>
  <course>25.84</course>
  <speed>0.02</speed>
  <fix>3d</fix>
</trkpt>
<trkpt lat="40.0720632" lon="-105.2298476">
  <ele>1583.0</ele>
  <time>2026-08-28T17:55:43Z</time>
  <course>114.74</course>
  <speed>0.0</speed>
  <fix>3d</fix>
</trkpt>
<trkpt lat="40.072063" lon="-105.2298475">
  <ele>1582.97</ele>
  <time>2026-08-28T17:55:44Z</time>
  <course>25.84</course>
  <speed>0.02</speed>
  <fix>3d</fix>
</trkpt>
<trkpt lat="40.0720632" lon="-105.2298476">
  <ele>1583.0</ele>
  <time>2026-08-28T17:55:44Z</time>
  <course>114.74</course>
  <speed>0.0</speed>
  <fix>3d</fix>
</trkpt>
<trkpt lat="40.072063" lon="-105.2298475">
  <ele>1582.97</ele>
  <time>2026-08-28T17:55:44Z</time>
  <course>25.84</course>
  <speed>0.02</speed>
  <fix>3d</fix>
</trkpt>
<trkpt lat="40.0720632" lon="-105.2298476">
  <ele>1583.0</ele>
  <time>2026-08-28T17:55:44Z</time>
  <course>114.74</course>
  <speed>0.0</speed>
  <fix>3d</fix>
</trkpt>
<trkpt lat="40.072063" lon="-105.2298475">
  <ele>1582.97</ele>
  <time>2026-08-28T17:55:44Z</time>
  <course>25.84</course>
  <speed>0.02</speed>
  <fix>3d</fix>
</trkpt>
<trkpt lat="40.0720632" lon="-105.2298476">
  <ele>1583.0</ele>
  <time>2026-08-28T17:55:44Z</time>
  <course>114.74</course>
  <speed>0.0</speed>
  <fix>3d</fix>
</trkpt>
<trkpt lat="40.072063" lon="-105.2298475">
  <ele>1582.97</ele>
  <time>2026-08-28T17:55:44Z</time>
  <course>25.84</course>
  <speed>0.02</speed>
  <fix>3d</fix>
</trkpt>
<trkpt lat="40.0720632" lon="-105.2298476">
  <ele>1583.0</ele>
  <time>2026-08-28T17:55:44Z</time>
  <course>114.74</course>
  <speed>0.0</speed>
  <fix>3d</fix>
</trkpt>
<trkpt lat="40.072063" lon="-105.2298475">
  <ele>1582.97</ele>
  <time>2026-08-28T17:55:44Z</time>
  <course>25.84</course>
  <speed>0.02</speed>
  <fix>3d</fix>
</trkpt>
<trkpt lat="40.0720632" lon="-105.2298476">
  <ele>1583.0</ele>
  <time>2026-08-28T17:55:44Z</time>
  <course>114.74</course>
  <speed>0.0</speed>
  <fix>3d</fix>
</trkpt>
<trkpt lat="40.072063" lon="-105.2298475">
  <ele>1582.97</ele>
  <time>2026-08-28T17:55:44Z</time>
  <course>25.84</course>
  <speed>0.02</speed>
  <fix>3d</fix>
</trkpt>
<trkpt lat="40.0720632" lon="-105.2298476">
  <ele>1583.0</ele>
  <time>2026-08-28T17:55:44Z</time>
  <course>114.74</course>
  <speed>0.0</speed>
  <fix>3d</fix>
</trkpt>
<trkpt lat="40.072063" lon="-105.2298475">
  <ele>1582.97</ele>
  <time>2026-08-28T17:55:44Z</time>
  <course>25.84</course>
  <speed>0.02</speed>
  <fix>3d</fix>
</trkpt>
<trkpt lat="40.0720632" lon="-105.2298476">
  <ele>1583.0</ele>
  <time>2026-08-28T17:55:44Z</time>
  <course>114.74</course>
  <speed>0.0</speed>
  <fix>3d</fix>
</trkpt>
<trkpt lat="40.072063" lon="-105.2298475">
  <ele>1582.98</ele>
  <time>2026-08-28T17:55:44Z</time>
  <course>25.84</course>
  <speed>0.02</speed>
  <fix>3d</fix>
</trkpt>
<trkpt lat="40.0720632" lon="-105.2298476">
  <ele>1583.0</ele>
  <time>2026-08-28T17:55:44Z</time>
  <course>114.74</course>
  <speed>0.0</speed>
  <fix>3d</fix>
</trkpt>
<trkpt lat="40.072063" lon="-105.2298475">
  <ele>1582.98</ele>
  <time>2026-08-28T17:55:44Z</time>
  <course>25.84</course>
  <speed>0.02</speed>
  <fix>3d</fix>
</trkpt>
<trkpt lat="40.0720632" lon="-105.2298476">
  <ele>1583.0</ele>
  <time>2026-08-28T17:55:44Z</time>
  <course>114.74</course>
  <speed>0.0</speed>
  <fix>3d</fix>
</trkpt>
<trkpt lat="40.072063" lon="-105.2298475">
  <ele>1582.99</ele>
  <time>2026-08-28T17:55:44Z</time>
  <course>25.84</course>
  <speed>0.02</speed>
  <fix>3d</fix>
</trkpt>
<trkpt lat="40.0720632" lon="-105.2298476">
  <ele>1583.0</ele>
  <time>2026-08-28T17:55:44Z</time>
  <course>114.74</course>
  <speed>0.0</speed>
  <fix>3d</fix>
</trkpt>
<trkpt lat="40.072063" lon="-105.2298475">
  <ele>1582.99</ele>
  <time>2026-08-28T17:55:44Z</time>
  <course>25.84</course>
  <speed>0.02</speed>
  <fix>3d</fix>
</trkpt>
<trkpt lat="40.0720632" lon="-105.2298476">
  <ele>1583.0</ele>
  <time>2026-08-28T17:55:44Z</time>
  <course>114.74</course>
  <speed>0.0</speed>
  <fix>3d</fix>
</trkpt>
<trkpt lat="40.072063" lon="-105.2298475">
  <ele>1582.99</ele>
  <time>2026-08-28T17:55:44Z</time>
  <course>25.84</course>
  <speed>0.02</speed>
  <fix>3d</fix>
</trkpt>
<trkpt lat="40.0720632" lon="-105.2298476">
  <ele>1583.0</ele>
  <time>2026-08-28T17:55:44Z</time>
  <course>114.74</course>
  <speed>0.0</speed>
  <fix>3d</fix>
</trkpt>
<trkpt lat="40.072063" lon="-105.2298475">
  <ele>1582.99</ele>
  <time>2026-08-28T17:55:44Z</time>
  <course>25.84</course>
  <speed>0.02</speed>
  <fix>3d</fix>
</trkpt>
<trkpt lat="40.0720632" lon="-105.2298476">
  <ele>1583.0</ele>
  <time>2026-08-28T17:55:44Z</time>
  <course>114.74</course>
  <speed>0.0</speed>
  <fix>3d</fix>
</trkpt>
<trkpt lat="40.072063" lon="-105.2298475">
  <ele>1582.99</ele>
  <time>2026-08-28T17:55:44Z</time>
  <course>25.84</course>
  <speed>0.02</speed>
  <fix>3d</fix>
</trkpt>
<trkpt lat="40.0720632" lon="-105.2298476">
  <ele>1583.0</ele>
  <time>2026-08-28T17:55:44Z</time>
  <course>114.74</course>
  <speed>0.0</speed>
  <fix>3d</fix>
</trkpt>
<trkpt lat="40.072063" lon="-105.2298475">
  <ele>1583.0</ele>
  <time>2026-08-28T17:55:44Z</time>
  <course>25.83</course>
  <speed>0.02</speed>
  <fix>3d</fix>
</trkpt>
<trkpt lat="40.0720632" lon="-105.2298476">
  <ele>1583.0</ele>
  <time>2026-08-28T17:55:44Z</time>
  <course>114.74</course>
  <speed>0.0</speed>
  <fix>3d</fix>
</trkpt>
<trkpt lat="40.072063" lon="-105.2298475">
  <ele>1583.0</ele>
  <time>2026-08-28T17:55:44Z</time>
  <course>25.83</course>
  <speed>0.02</speed>
  <fix>3d</fix>
</trkpt>
<trkpt lat="40.0720632" lon="-105.2298476">
  <ele>1583.0</ele>
  <time>2026-08-28T17:55:44Z</time>
  <course>114.74</course>
  <speed>0.0</speed>
  <fix>3d</fix>
</trkpt>
<trkpt lat="40.072063" lon="-105.2298475">
  <ele>1583.01</ele>
  <time>2026-08-28T17:55:44Z</time>
  <course>25.83</course>
  <speed>0.02</speed>
  <fix>3d</fix>
</trkpt>
<trkpt lat="40.0720632" lon="-105.2298476">
  <ele>1583.0</ele>
  <time>2026-08-28T17:55:44Z</time>
  <course>114.74</course>
  <speed>0.0</speed>
  <fix>3d</fix>
</trkpt>
<trkpt lat="40.072063" lon="-105.2298475">
  <ele>1583.01</ele>
  <time>2026-08-28T17:55:44Z</time>
  <course>25.83</course>
  <speed>0.02</speed>
  <fix>3d</fix>
</trkpt>
<trkpt lat="40.0720632" lon="-105.2298476">
  <ele>1583.0</ele>
  <time>2026-08-28T17:55:44Z</time>
  <course>114.74</course>
  <speed>0.0</speed>
  <fix>3d</fix>
</trkpt>
<trkpt lat="40.072063" lon="-105.2298475">
  <ele>1583.01</ele>
  <time>2026-08-28T17:55:44Z</time>
  <course>25.83</course>
  <speed>0.02</speed>
  <fix>3d</fix>
</trkpt>
<trkpt lat="40.0720632" lon="-105.2298476">
  <ele>1583.0</ele>
  <time>2026-08-28T17:55:44Z</time>
  <course>114.74</course>
  <speed>0.0</speed>
  <fix>3d</fix>
</trkpt>
<trkpt lat="40.072063" lon="-105.2298475">
  <ele>1583.01</ele>
  <time>2026-08-28T17:55:44Z</time>
  <course>25.83</course>
  <speed>0.02</speed>
  <fix>3d</fix>
</trkpt>
<trkpt lat="40.0720632" lon="-105.2298476">
  <ele>1583.0</ele>
  <time>2026-08-28T17:55:44Z</time>
  <course>114.74</course>
  <speed>0.0</speed>
  <fix>3d</fix>
</trkpt>
<trkpt lat="40.072063" lon="-105.2298475">
  <ele>1583.02</ele>
  <time>2026-08-28T17:55:44Z</time>
  <course>25.83</course>
  <speed>0.02</speed>
  <fix>3d</fix>
</trkpt>
<trkpt lat="40.0720632" lon="-105.2298476">
  <ele>1583.0</ele>
  <time>2026-08-28T17:55:44Z</time>
  <course>114.74</course>
  <speed>0.0</speed>
  <fix>3d</fix>
</trkpt>
<trkpt lat="40.072063" lon="-105.2298475">
  <ele>1583.02</ele>
  <time>2026-08-28T17:55:44Z</time>
  <course>25.83</course>
  <speed>0.02</speed>
  <fix>3d</fix>
</trkpt>
<trkpt lat="40.0720632" lon="-105.2298476">
  <ele>1583.0</ele>
  <time>2026-08-28T17:55:44Z</time>
  <course>114.74</course>
  <speed>0.0</speed>
  <fix>3d</fix>
</trkpt>
<trkpt lat="40.072063" lon="-105.2298475">
  <ele>1583.02</ele>
  <time>2026-08-28T17:55:44Z</time>
  <course>25.83</course>
  <speed>0.02</speed>
  <fix>3d</fix>
</trkpt>
<trkpt lat="40.0720632" lon="-105.2298476">
  <ele>1583.0</ele>
  <time>2026-08-28T17:55:44Z</time>
  <course>114.74</course>
  <speed>0.0</speed>
  <fix>3d</fix>
</trkpt>
<trkpt lat="40.072063" lon="-105.2298475">
  <ele>1583.02</ele>
  <time>2026-08-28T17:55:44Z</time>
  <course>25.83</course>
  <speed>0.02</speed>
  <fix>3d</fix>
</trkpt>
<trkpt lat="40.0720632" lon="-105.2298476">
  <ele>1583.0</ele>
  <time>2026-08-28T17:55:44Z</time>
  <course>114.74</course>
  <speed>0.0</speed>
  <fix>3d</fix>
</trkpt>
<trkpt lat="40.072063" lon="-105.2298475">
  <ele>1583.02</ele>
  <time>2026-08-28T17:55:44Z</time>
  <course>25.83</course>
  <speed>0.02</speed>
  <fix>3d</fix>
</trkpt>
<trkpt lat="40.0720632" lon="-105.2298476">
  <ele>1583.0</ele>
  <time>2026-08-28T17:55:44Z</time>
  <course>114.74</course>
  <speed>0.0</speed>
  <fix>3d</fix>
</trkpt>
<trkpt lat="40.072063" lon="-105.2298475">
  <ele>1583.01</ele>
  <time>2026-08-28T17:55:44Z</time>
  <course>25.83</course>
  <speed>0.02</speed>
  <fix>3d</fix>
</trkpt>
<trkpt lat="40.0720632" lon="-105.2298476">
  <ele>1583.0</ele>
  <time>2026-08-28T17:55:44Z</time>
  <course>114.74</course>
  <speed>0.0</speed>
  <fix>3d</fix>
</trkpt>
<trkpt lat="40.072063" lon="-105.2298475">
  <ele>1583.01</ele>
  <time>2026-08-28T17:55:44Z</time>
  <course>25.83</course>
  <speed>0.02</speed>
  <fix>3d</fix>
</trkpt>
<trkpt lat="40.0720632" lon="-105.2298476">
  <ele>1583.0</ele>
  <time>2026-08-28T17:55:44Z</time>
  <course>114.74</course>
  <speed>0.0</speed>
  <fix>3d</fix>
</trkpt>
<trkpt lat="40.072063" lon="-105.2298475">
  <ele>1583.01</ele>
  <time>2026-08-28T17:55:44Z</time>
  <course>25.83</course>
  <speed>0.02</speed>
  <fix>3d</fix>
</trkpt>
<trkpt lat="40.0720632" lon="-105.2298476">
  <ele>1583.0</ele>
  <time>2026-08-28T17:55:44Z</time>
  <course>114.74</course>
  <speed>0.0</speed>
  <fix>3d</fix>
</trkpt>
<trkpt lat="40.072063" lon="-105.2298475">
  <ele>1583.0</ele>
  <time>2026-08-28T17:55:44Z</time>
  <course>25.83</course>
  <speed>0.02</speed>
  <fix>3d</fix>
</trkpt>
<trkpt lat="40.0720632" lon="-105.2298476">
  <ele>1583.0</ele>
  <time>2026-08-28T17:55:44Z</time>
  <course>114.74</course>
  <speed>0.0</speed>
  <fix>3d</fix>
</trkpt>
<trkpt lat="40.072063" lon="-105.2298475">
  <ele>1583.0</ele>
  <time>2026-08-28T17:55:44Z</time>
  <course>25.83</course>
  <speed>0.02</speed>
  <fix>3d</fix>
</trkpt>
<trkpt lat="40.0720632" lon="-105.2298476">
  <ele>1583.0</ele>
  <time>2026-08-28T17:55:44Z</time>
  <course>114.74</course>
  <speed>0.0</speed>
  <fix>3d</fix>
</trkpt>
<trkpt lat="40.072063" lon="-105.2298475">
  <ele>1583.0</ele>
  <time>2026-08-28T17:55:44Z</time>
  <course>25.83</course>
  <speed>0.02</speed>
  <fix>3d</fix>
</trkpt>
<trkpt lat="40.0720632" lon="-105.2298476">
  <ele>1583.0</ele>
  <time>2026-08-28T17:55:44Z</time>
  <course>114.74</course>
  <speed>0.0</speed>
  <fix>3d</fix>
</trkpt>
<trkpt lat="40.072063" lon="-105.2298475">
  <ele>1583.0</ele>
  <time>2026-08-28T17:55:44Z</time>
  <course>25.83</course>
  <speed>0.02</speed>
  <fix>3d</fix>
</trkpt>
<trkpt lat="40.0720632" lon="-105.2298476">
  <ele>1583.0</ele>
  <time>2026-08-28T17:55:44Z</time>
  <course>114.74</course>
  <speed>0.0</speed>
  <fix>3d</fix>
</trkpt>
<trkpt lat="40.072063" lon="-105.2298475">
  <ele>1583.0</ele>
  <time>2026-08-28T17:55:44Z</time>
  <course>25.83</course>
  <speed>0.02</speed>
  <fix>3d</fix>
</trkpt>
<trkpt lat="40.0720632" lon="-105.2298476">
  <ele>1583.0</ele>
  <time>2026-08-28T17:55:44Z</time>
  <course>114.74</course>
  <speed>0.0</speed>
  <fix>3d</fix>
</trkpt>
<trkpt lat="40.072063" lon="-105.2298475">
  <ele>1583.0</ele>
  <time>2026-08-28T17:55:44Z</time>
  <course>25.83</course>
  <speed>0.02</speed>
  <fix>3d</fix>
</trkpt>
<trkpt lat="40.0720632" lon="-105.2298476">
  <ele>1583.0</ele>
  <time>2026-08-28T17:55:44Z</time>
  <course>114.74</course>
  <speed>0.0</speed>
  <fix>3d</fix>
</trkpt>
<trkpt lat="40.072063" lon="-105.2298475">
  <ele>1583.0</ele>
  <time>2026-08-28T17:55:44Z</time>
  <course>25.83</course>
  <speed>0.02</speed>
  <fix>3d</fix>
</trkpt>
<trkpt lat="40.0720632" lon="-105.2298476">
  <ele>1583.0</ele>
  <time>2026-08-28T17:55:44Z</time>
  <course>114.74</course>
  <speed>0.0</speed>
  <fix>3d</fix>
</trkpt>
<trkpt lat="40.072063" lon="-105.2298475">
  <ele>1582.99</ele>
  <time>2026-08-28T17:55:44Z</time>
  <course>25.83</course>
  <speed>0.02</speed>
  <fix>3d</fix>
</trkpt>
<trkpt lat="40.0720632" lon="-105.2298476">
  <ele>1583.0</ele>
  <time>2026-08-28T17:55:44Z</time>
  <course>114.74</course>
  <speed>0.0</speed>
  <fix>3d</fix>
</trkpt>
<trkpt lat="40.072063" lon="-105.2298475">
  <ele>1582.99</ele>
  <time>2026-08-28T17:55:44Z</time>
  <course>25.83</course>
  <speed>0.02</speed>
  <fix>3d</fix>
</trkpt>
<trkpt lat="40.0720632" lon="-105.2298476">
  <ele>1583.0</ele>
  <time>2026-08-28T17:55:44Z</time>
  <course>114.74</course>
  <speed>0.0</speed>
  <fix>3d</fix>
</trkpt>
<trkpt lat="40.072063" lon="-105.2298475">
  <ele>1582.98</ele>
  <time>2026-08-28T17:55:44Z</time>
  <course>25.83</course>
  <speed>0.02</speed>
  <fix>3d</fix>
</trkpt>
<trkpt lat="40.0720632" lon="-105.2298476">
  <ele>1583.0</ele>
  <time>2026-08-28T17:55:44Z</time>
  <course>114.74</course>
  <speed>0.0</speed>
  <fix>3d</fix>
</trkpt>
<trkpt lat="40.072063" lon="-105.2298475">
  <ele>1582.98</ele>
  <time>2026-08-28T17:55:44Z</time>
  <course>25.83</course>
  <speed>0.02</speed>
  <fix>3d</fix>
</trkpt>
<trkpt lat="40.0720632" lon="-105.2298476">
  <ele>1583.0</ele>
  <time>2026-08-28T17:55:44Z</time>
  <course>114.74</course>
  <speed>0.0</speed>
  <fix>3d</fix>
</trkpt>
<trkpt lat="40.072063" lon="-105.2298475">
  <ele>1582.97</ele>
  <time>2026-08-28T17:55:44Z</time>
  <course>25.83</course>
  <speed>0.02</speed>
  <fix>3d</fix>
</trkpt>
<trkpt lat="40.0720632" lon="-105.2298476">
  <ele>1583.0</ele>
  <time>2026-08-28T17:55:44Z</time>
  <course>114.74</course>
  <speed>0.0</speed>
  <fix>3d</fix>
</trkpt>
<trkpt lat="40.072063" lon="-105.2298475">
  <ele>1582.97</ele>
  <time>2026-08-28T17:55:44Z</time>
  <course>25.83</course>
  <speed>0.02</speed>
  <fix>3d</fix>
</trkpt>
<trkpt lat="40.0720632" lon="-105.2298476">
  <ele>1583.0</ele>
  <time>2026-08-28T17:55:44Z</time>
  <course>114.74</course>
  <speed>0.0</speed>
  <fix>3d</fix>
</trkpt>
<trkpt lat="40.072063" lon="-105.2298475">
  <ele>1582.96</ele>
  <time>2026-08-28T17:55:44Z</time>
  <course>25.82</course>
  <speed>0.02</speed>
  <fix>3d</fix>
</trkpt>
<trkpt lat="40.0720632" lon="-105.2298476">
  <ele>1583.0</ele>
  <time>2026-08-28T17:55:44Z</time>
  <course>114.74</course>
  <speed>0.0</speed>
  <fix>3d</fix>
</trkpt>
<trkpt lat="40.072063" lon="-105.2298475">
  <ele>1582.95</ele>
  <time>2026-08-28T17:55:44Z</time>
  <course>25.82</course>
  <speed>0.02</speed>
  <fix>3d</fix>
</trkpt>
<trkpt lat="40.0720632" lon="-105.2298476">
  <ele>1583.0</ele>
  <time>2026-08-28T17:55:44Z</time>
  <course>114.74</course>
  <speed>0.0</speed>
  <fix>3d</fix>
</trkpt>
<trkpt lat="40.072063" lon="-105.2298475">
  <ele>1582.95</ele>
  <time>2026-08-28T17:55:44Z</time>
  <course>25.82</course>
  <speed>0.02</speed>
  <fix>3d</fix>
</trkpt>
<trkpt lat="40.0720632" lon="-105.2298476">
  <ele>1583.0</ele>
  <time>2026-08-28T17:55:44Z</time>
  <course>114.74</course>
  <speed>0.0</speed>
  <fix>3d</fix>
</trkpt>
<trkpt lat="40.072063" lon="-105.2298475">
  <ele>1582.94</ele>
  <time>2026-08-28T17:55:44Z</time>
  <course>25.82</course>
  <speed>0.02</speed>
  <fix>3d</fix>
</trkpt>
<trkpt lat="40.0720632" lon="-105.2298476">
  <ele>1583.0</ele>
  <time>2026-08-28T17:55:44Z</time>
  <course>114.74</course>
  <speed>0.0</speed>
  <fix>3d</fix>
</trkpt>
<trkpt lat="40.072063" lon="-105.2298475">
  <ele>1582.94</ele>
  <time>2026-08-28T17:55:44Z</time>
  <course>25.82</course>
  <speed>0.02</speed>
  <fix>3d</fix>
</trkpt>
<trkpt lat="40.0720632" lon="-105.2298476">
  <ele>1583.0</ele>
  <time>2026-08-28T17:55:44Z</time>
  <course>114.74</course>
  <speed>0.0</speed>
  <fix>3d</fix>
</trkpt>
<trkpt lat="40.072063" lon="-105.2298475">
  <ele>1582.94</ele>
  <time>2026-08-28T17:55:44Z</time>
  <course>25.82</course>
  <speed>0.02</speed>
  <fix>3d</fix>
</trkpt>
<trkpt lat="40.0720632" lon="-105.2298476">
  <ele>1583.0</ele>
  <time>2026-08-28T17:55:44Z</time>
  <course>114.74</course>
  <speed>0.0</speed>
  <fix>3d</fix>
</trkpt>
<trkpt lat="40.072063" lon="-105.2298475">
  <ele>1582.94</ele>
  <time>2026-08-28T17:55:44Z</time>
  <course>25.82</course>
  <speed>0.02</speed>
  <fix>3d</fix>
</trkpt>
<trkpt lat="40.0720632" lon="-105.2298476">
  <ele>1583.0</ele>
  <time>2026-08-28T17:55:44Z</time>
  <course>114.74</course>
  <speed>0.0</speed>
  <fix>3d</fix>
</trkpt>
<trkpt lat="40.072063" lon="-105.2298475">
  <ele>1582.93</ele>
  <time>2026-08-28T17:55:44Z</time>
  <course>25.82</course>
  <speed>0.02</speed>
  <fix>3d</fix>
</trkpt>
<trkpt lat="40.0720632" lon="-105.2298476">
  <ele>1583.0</ele>
  <time>2026-08-28T17:55:44Z</time>
  <course>114.74</course>
  <speed>0.0</speed>
  <fix>3d</fix>
</trkpt>
<trkpt lat="40.072063" lon="-105.2298475">
  <ele>1582.93</ele>
  <time>2026-08-28T17:55:44Z</time>
  <course>25.82</course>
  <speed>0.02</speed>
  <fix>3d</fix>
</trkpt>
<trkpt lat="40.0720632" lon="-105.2298476">
  <ele>1583.0</ele>
  <time>2026-08-28T17:55:44Z</time>
  <course>114.74</course>
  <speed>0.0</speed>
  <fix>3d</fix>
</trkpt>
<trkpt lat="40.072063" lon="-105.2298475">
  <ele>1582.92</ele>
  <time>2026-08-28T17:55:44Z</time>
  <course>25.82</course>
  <speed>0.02</speed>
  <fix>3d</fix>
</trkpt>
<trkpt lat="40.0720632" lon="-105.2298476">
  <ele>1583.0</ele>
  <time>2026-08-28T17:55:44Z</time>
  <course>114.74</course>
  <speed>0.0</speed>
  <fix>3d</fix>
</trkpt>
<trkpt lat="40.072063" lon="-105.2298475">
  <ele>1582.92</ele>
  <time>2026-08-28T17:55:44Z</time>
  <course>25.82</course>
  <speed>0.02</speed>
  <fix>3d</fix>
</trkpt>
<trkpt lat="40.0720632" lon="-105.2298476">
  <ele>1583.0</ele>
  <time>2026-08-28T17:55:44Z</time>
  <course>114.74</course>
  <speed>0.0</speed>
  <fix>3d</fix>
</trkpt>
<trkpt lat="40.072063" lon="-105.2298475">
  <ele>1582.92</ele>
  <time>2026-08-28T17:55:44Z</time>
  <course>25.82</course>
  <speed>0.02</speed>
  <fix>3d</fix>
</trkpt>
<trkpt lat="40.0720632" lon="-105.2298476">
  <ele>1583.0</ele>
  <time>2026-08-28T17:55:44Z</time>
  <course>114.74</course>
  <speed>0.0</speed>
  <fix>3d</fix>
</trkpt>
<trkpt lat="40.072063" lon="-105.2298475">
  <ele>1582.91</ele>
  <time>2026-08-28T17:55:44Z</time>
  <course>25.82</course>
  <speed>0.02</speed>
  <fix>3d</fix>
</trkpt>
<trkpt lat="40.0720632" lon="-105.2298476">
  <ele>1583.0</ele>
  <time>2026-08-28T17:55:44Z</time>
  <course>114.74</course>
  <speed>0.0</speed>
  <fix>3d</fix>
</trkpt>
<trkpt lat="40.072063" lon="-105.2298475">
  <ele>1582.91</ele>
  <time>2026-08-28T17:55:44Z</time>
  <course>25.82</course>
  <speed>0.02</speed>
  <fix>3d</fix>
</trkpt>
<trkpt lat="40.0720632" lon="-105.2298476">
  <ele>1583.0</ele>
  <time>2026-08-28T17:55:44Z</time>
  <course>114.74</course>
  <speed>0.0</speed>
  <fix>3d</fix>
</trkpt>
<trkpt lat="40.072063" lon="-105.2298475">
  <ele>1582.91</ele>
  <time>2026-08-28T17:55:44Z</time>
  <course>25.82</course>
  <speed>0.02</speed>
  <fix>3d</fix>
</trkpt>
<trkpt lat="40.0720632" lon="-105.2298476">
  <ele>1583.0</ele>
  <time>2026-08-28T17:55:44Z</time>
  <course>114.74</course>
  <speed>0.0</speed>
  <fix>3d</fix>
</trkpt>
<trkpt lat="40.072063" lon="-105.2298475">
  <ele>1582.91</ele>
  <time>2026-08-28T17:55:44Z</time>
  <course>25.82</course>
  <speed>0.02</speed>
  <fix>3d</fix>
</trkpt>
<trkpt lat="40.0720632" lon="-105.2298476">
  <ele>1583.0</ele>
  <time>2026-08-28T17:55:44Z</time>
  <course>114.74</course>
  <speed>0.0</speed>
  <fix>3d</fix>
</trkpt>
<trkpt lat="40.072063" lon="-105.2298475">
  <ele>1582.91</ele>
  <time>2026-08-28T17:55:44Z</time>
  <course>25.82</course>
  <speed>0.02</speed>
  <fix>3d</fix>
</trkpt>
<trkpt lat="40.0720632" lon="-105.2298476">
  <ele>1583.0</ele>
  <time>2026-08-28T17:55:44Z</time>
  <course>114.74</course>
  <speed>0.0</speed>
  <fix>3d</fix>
</trkpt>
<trkpt lat="40.072063" lon="-105.2298475">
  <ele>1582.92</ele>
  <time>2026-08-28T17:55:44Z</time>
  <course>25.82</course>
  <speed>0.02</speed>
  <fix>3d</fix>
</trkpt>
<trkpt lat="40.0720632" lon="-105.2298476">
  <ele>1583.0</ele>
  <time>2026-08-28T17:55:44Z</time>
  <course>114.74</course>
  <speed>0.0</speed>
  <fix>3d</fix>
</trkpt>
<trkpt lat="40.072063" lon="-105.2298475">
  <ele>1582.92</ele>
  <time>2026-08-28T17:55:44Z</time>
  <course>25.82</course>
  <speed>0.02</speed>
  <fix>3d</fix>
</trkpt>
<trkpt lat="40.0720632" lon="-105.2298476">
  <ele>1583.0</ele>
  <time>2026-08-28T17:55:44Z</time>
  <course>114.74</course>
  <speed>0.0</speed>
  <fix>3d</fix>
</trkpt>
<trkpt lat="40.072063" lon="-105.2298475">
  <ele>1582.93</ele>
  <time>2026-08-28T17:55:44Z</time>
  <course>25.82</course>
  <speed>0.02</speed>
  <fix>3d</fix>
</trkpt>
<trkpt lat="40.0720632" lon="-105.2298476">
  <ele>1583.0</ele>
  <time>2026-08-28T17:55:44Z</time>
  <course>114.74</course>
  <speed>0.0</speed>
  <fix>3d</fix>
</trkpt>
<trkpt lat="40.072063" lon="-105.2298475">
  <ele>1582.93</ele>
  <time>2026-08-28T17:55:44Z</time>
  <course>25.82</course>
  <speed>0.02</speed>
  <fix>3d</fix>
</trkpt>
<trkpt lat="40.0720632" lon="-105.2298476">
  <ele>1583.0</ele>
  <time>2026-08-28T17:55:44Z</time>
  <course>114.74</course>
  <speed>0.0</speed>
  <fix>3d</fix>
</trkpt>
<trkpt lat="40.072063" lon="-105.2298475">
  <ele>1582.93</ele>
  <time>2026-08-28T17:55:44Z</time>
  <course>25.82</course>
  <speed>0.02</speed>
  <fix>3d</fix>
</trkpt>
<trkpt lat="40.0720632" lon="-105.2298476">
  <ele>1583.0</ele>
  <time>2026-08-28T17:55:44Z</time>
  <course>114.74</course>
  <speed>0.0</speed>
  <fix>3d</fix>
</trkpt>
<trkpt lat="40.072063" lon="-105.2298475">
  <ele>1582.94</ele>
  <time>2026-08-28T17:55:44Z</time>
  <course>25.82</course>
  <speed>0.02</speed>
  <fix>3d</fix>
</trkpt>
<trkpt lat="40.0720632" lon="-105.2298476">
  <ele>1583.0</ele>
  <time>2026-08-28T17:55:44Z</time>
  <course>114.74</course>
  <speed>0.0</speed>
  <fix>3d</fix>
</trkpt>
<trkpt lat="40.072063" lon="-105.2298475">
  <ele>1582.94</ele>
  <time>2026-08-28T17:55:44Z</time>
  <course>25.82</course>
  <speed>0.02</speed>
  <fix>3d</fix>
</trkpt>
<trkpt lat="40.0720632" lon="-105.2298476">
  <ele>1583.0</ele>
  <time>2026-08-28T17:55:44Z</time>
  <course>114.74</course>
  <speed>0.0</speed>
  <fix>3d</fix>
</trkpt>
<trkpt lat="40.072063" lon="-105.2298475">
  <ele>1582.94</ele>
  <time>2026-08-28T17:55:44Z</time>
  <course>25.82</course>
  <speed>0.02</speed>
  <fix>3d</fix>
</trkpt>
<trkpt lat="40.0720632" lon="-105.2298476">
  <ele>1583.0</ele>
  <time>2026-08-28T17:55:44Z</time>
  <course>114.74</course>
  <speed>0.0</speed>
  <fix>3d</fix>
</trkpt>
<trkpt lat="40.072063" lon="-105.2298475">
  <ele>1582.94</ele>
  <time>2026-08-28T17:55:44Z</time>
  <course>25.82</course>
  <speed>0.02</speed>
  <fix>3d</fix>
</trkpt>
<trkpt lat="40.0720632" lon="-105.2298476">
  <ele>1583.0</ele>
  <time>2026-08-28T17:55:44Z</time>
  <course>114.74</course>
  <speed>0.0</speed>
  <fix>3d</fix>
</trkpt>
<trkpt lat="40.072063" lon="-105.2298475">
  <ele>1582.94</ele>
  <time>2026-08-28T17:55:44Z</time>
  <course>25.82</course>
  <speed>0.02</speed>
  <fix>3d</fix>
</trkpt>
<trkpt lat="40.0720632" lon="-105.2298476">
  <ele>1583.0</ele>
  <time>2026-08-28T17:55:44Z</time>
  <course>114.74</course>
  <speed>0.0</speed>
  <fix>3d</fix>
</trkpt>
<trkpt lat="40.072063" lon="-105.2298475">
  <ele>1582.93</ele>
  <time>2026-08-28T17:55:44Z</time>
  <course>25.82</course>
  <speed>0.02</speed>
  <fix>3d</fix>
</trkpt>
<trkpt lat="40.0720632" lon="-105.2298476">
  <ele>1583.0</ele>
  <time>2026-08-28T17:55:44Z</time>
  <course>114.74</course>
  <speed>0.0</speed>
  <fix>3d</fix>
</trkpt>
<trkpt lat="40.072063" lon="-105.2298475">
  <ele>1582.93</ele>
  <time>2026-08-28T17:55:44Z</time>
  <course>25.82</course>
  <speed>0.02</speed>
  <fix>3d</fix>
</trkpt>
<trkpt lat="40.0720632" lon="-105.2298476">
  <ele>1583.0</ele>
  <time>2026-08-28T17:55:44Z</time>
  <course>114.74</course>
  <speed>0.0</speed>
  <fix>3d</fix>
</trkpt>
<trkpt lat="40.072063" lon="-105.2298475">
  <ele>1582.93</ele>
  <time>2026-08-28T17:55:44Z</time>
  <course>25.81</course>
  <speed>0.02</speed>
  <fix>3d</fix>
</trkpt>
<trkpt lat="40.0720632" lon="-105.2298476">
  <ele>1583.0</ele>
  <time>2026-08-28T17:55:44Z</time>
  <course>114.74</course>
  <speed>0.0</speed>
  <fix>3d</fix>
</trkpt>
<trkpt lat="40.072063" lon="-105.2298475">
  <ele>1582.93</ele>
  <time>2026-08-28T17:55:44Z</time>
  <course>25.81</course>
  <speed>0.02</speed>
  <fix>3d</fix>
</trkpt>
<trkpt lat="40.0720632" lon="-105.2298476">
  <ele>1583.0</ele>
  <time>2026-08-28T17:55:44Z</time>
  <course>114.74</course>
  <speed>0.0</speed>
  <fix>3d</fix>
</trkpt>
<trkpt lat="40.072063" lon="-105.2298475">
  <ele>1582.93</ele>
  <time>2026-08-28T17:55:44Z</time>
  <course>25.81</course>
  <speed>0.02</speed>
  <fix>3d</fix>
</trkpt>
<trkpt lat="40.0720632" lon="-105.2298476">
  <ele>1583.0</ele>
  <time>2026-08-28T17:55:44Z</time>
  <course>114.74</course>
  <speed>0.0</speed>
  <fix>3d</fix>
</trkpt>
<trkpt lat="40.072063" lon="-105.2298475">
  <ele>1582.92</ele>
  <time>2026-08-28T17:55:44Z</time>
  <course>25.81</course>
  <speed>0.02</speed>
  <fix>3d</fix>
</trkpt>
<trkpt lat="40.0720632" lon="-105.2298476">
  <ele>1583.0</ele>
  <time>2026-08-28T17:55:44Z</time>
  <course>114.74</course>
  <speed>0.0</speed>
  <fix>3d</fix>
</trkpt>
<trkpt lat="40.072063" lon="-105.2298475">
  <ele>1582.92</ele>
  <time>2026-08-28T17:55:44Z</time>
  <course>25.81</course>
  <speed>0.02</speed>
  <fix>3d</fix>
</trkpt>
<trkpt lat="40.0720632" lon="-105.2298476">
  <ele>1583.0</ele>
  <time>2026-08-28T17:55:44Z</time>
  <course>114.74</course>
  <speed>0.0</speed>
  <fix>3d</fix>
</trkpt>
<trkpt lat="40.072063" lon="-105.2298475">
  <ele>1582.92</ele>
  <time>2026-08-28T17:55:44Z</time>
  <course>25.81</course>
  <speed>0.02</speed>
  <fix>3d</fix>
</trkpt>
<trkpt lat="40.0720632" lon="-105.2298476">
  <ele>1583.0</ele>
  <time>2026-08-28T17:55:44Z</time>
  <course>114.74</course>
  <speed>0.0</speed>
  <fix>3d</fix>
</trkpt>
<trkpt lat="40.072063" lon="-105.2298475">
  <ele>1582.91</ele>
  <time>2026-08-28T17:55:44Z</time>
  <course>25.81</course>
  <speed>0.02</speed>
  <fix>3d</fix>
</trkpt>
<trkpt lat="40.0720632" lon="-105.2298476">
  <ele>1583.0</ele>
  <time>2026-08-28T17:55:44Z</time>
  <course>114.74</course>
  <speed>0.0</speed>
  <fix>3d</fix>
</trkpt>
<trkpt lat="40.072063" lon="-105.2298475">
  <ele>1582.91</ele>
  <time>2026-08-28T17:55:44Z</time>
  <course>25.81</course>
  <speed>0.02</speed>
  <fix>3d</fix>
</trkpt>
<trkpt lat="40.0720632" lon="-105.2298476">
  <ele>1583.0</ele>
  <time>2026-08-28T17:55:44Z</time>
  <course>114.74</course>
  <speed>0.0</speed>
  <fix>3d</fix>
</trkpt>
<trkpt lat="40.072063" lon="-105.2298475">
  <ele>1582.9</ele>
  <time>2026-08-28T17:55:44Z</time>
  <course>25.81</course>
  <speed>0.02</speed>
  <fix>3d</fix>
</trkpt>
<trkpt lat="40.0720632" lon="-105.2298476">
  <ele>1583.0</ele>
  <time>2026-08-28T17:55:44Z</time>
  <course>114.74</course>
  <speed>0.0</speed>
  <fix>3d</fix>
</trkpt>
<trkpt lat="40.072063" lon="-105.2298475">
  <ele>1582.89</ele>
  <time>2026-08-28T17:55:44Z</time>
  <course>25.81</course>
  <speed>0.02</speed>
  <fix>3d</fix>
</trkpt>
<trkpt lat="40.0720632" lon="-105.2298476">
  <ele>1583.0</ele>
  <time>2026-08-28T17:55:44Z</time>
  <course>114.74</course>
  <speed>0.0</speed>
  <fix>3d</fix>
</trkpt>
<trkpt lat="40.072063" lon="-105.2298475">
  <ele>1582.89</ele>
  <time>2026-08-28T17:55:44Z</time>
  <course>25.81</course>
  <speed>0.02</speed>
  <fix>3d</fix>
</trkpt>
<trkpt lat="40.0720632" lon="-105.2298476">
  <ele>1583.0</ele>
  <time>2026-08-28T17:55:44Z</time>
  <course>114.74</course>
  <speed>0.0</speed>
  <fix>3d</fix>
</trkpt>
<trkpt lat="40.072063" lon="-105.2298475">
  <ele>1582.88</ele>
  <time>2026-08-28T17:55:44Z</time>
  <course>25.81</course>
  <speed>0.02</speed>
  <fix>3d</fix>
</trkpt>
<trkpt lat="40.0720632" lon="-105.2298476">
  <ele>1583.0</ele>
  <time>2026-08-28T17:55:44Z</time>
  <course>114.74</course>
  <speed>0.0</speed>
  <fix>3d</fix>
</trkpt>
<trkpt lat="40.072063" lon="-105.2298475">
  <ele>1582.88</ele>
  <time>2026-08-28T17:55:44Z</time>
  <course>25.81</course>
  <speed>0.02</speed>
  <fix>3d</fix>
</trkpt>
<trkpt lat="40.0720632" lon="-105.2298476">
  <ele>1583.0</ele>
  <time>2026-08-28T17:55:44Z</time>
  <course>114.74</course>
  <speed>0.0</speed>
  <fix>3d</fix>
</trkpt>
<trkpt lat="40.072063" lon="-105.2298475">
  <ele>1582.88</ele>
  <time>2026-08-28T17:55:44Z</time>
  <course>25.81</course>
  <speed>0.02</speed>
  <fix>3d</fix>
</trkpt>
<trkpt lat="40.0720632" lon="-105.2298476">
  <ele>1583.0</ele>
  <time>2026-08-28T17:55:44Z</time>
  <course>114.74</course>
  <speed>0.0</speed>
  <fix>3d</fix>
</trkpt>
<trkpt lat="40.072063" lon="-105.2298475">
  <ele>1582.87</ele>
  <time>2026-08-28T17:55:44Z</time>
  <course>25.81</course>
  <speed>0.02</speed>
  <fix>3d</fix>
</trkpt>
<trkpt lat="40.0720632" lon="-105.2298476">
  <ele>1583.0</ele>
  <time>2026-08-28T17:55:44Z</time>
  <course>114.74</course>
  <speed>0.0</speed>
  <fix>3d</fix>
</trkpt>
<trkpt lat="40.072063" lon="-105.2298475">
  <ele>1582.87</ele>
  <time>2026-08-28T17:55:44Z</time>
  <course>25.81</course>
  <speed>0.02</speed>
  <fix>3d</fix>
</trkpt>
<trkpt lat="40.0720632" lon="-105.2298476">
  <ele>1583.0</ele>
  <time>2026-08-28T17:55:44Z</time>
  <course>114.74</course>
  <speed>0.0</speed>
  <fix>3d</fix>
</trkpt>
<trkpt lat="40.072063" lon="-105.2298475">
  <ele>1582.88</ele>
  <time>2026-08-28T17:55:44Z</time>
  <course>25.81</course>
  <speed>0.02</speed>
  <fix>3d</fix>
</trkpt>
<trkpt lat="40.0720632" lon="-105.2298476">
  <ele>1583.0</ele>
  <time>2026-08-28T17:55:44Z</time>
  <course>114.74</course>
  <speed>0.0</speed>
  <fix>3d</fix>
</trkpt>
<trkpt lat="40.072063" lon="-105.2298475">
  <ele>1582.88</ele>
  <time>2026-08-28T17:55:44Z</time>
  <course>25.81</course>
  <speed>0.02</speed>
  <fix>3d</fix>
</trkpt>
<trkpt lat="40.0720632" lon="-105.2298476">
  <ele>1583.0</ele>
  <time>2026-08-28T17:55:44Z</time>
  <course>114.74</course>
  <speed>0.0</speed>
  <fix>3d</fix>
</trkpt>
<trkpt lat="40.072063" lon="-105.2298475">
  <ele>1582.88</ele>
  <time>2026-08-28T17:55:44Z</time>
  <course>25.81</course>
  <speed>0.02</speed>
  <fix>3d</fix>
</trkpt>
<trkpt lat="40.0720632" lon="-105.2298476">
  <ele>1583.0</ele>
  <time>2026-08-28T17:55:44Z</time>
  <course>114.74</course>
  <speed>0.0</speed>
  <fix>3d</fix>
</trkpt>
<trkpt lat="40.072063" lon="-105.2298475">
  <ele>1582.89</ele>
  <time>2026-08-28T17:55:44Z</time>
  <course>25.81</course>
  <speed>0.02</speed>
  <fix>3d</fix>
</trkpt>
<trkpt lat="40.0720632" lon="-105.2298476">
  <ele>1583.0</ele>
  <time>2026-08-28T17:55:44Z</time>
  <course>114.74</course>
  <speed>0.0</speed>
  <fix>3d</fix>
</trkpt>
<trkpt lat="40.072063" lon="-105.2298475">
  <ele>1582.89</ele>
  <time>2026-08-28T17:55:44Z</time>
  <course>25.81</course>
  <speed>0.02</speed>
  <fix>3d</fix>
</trkpt>
<trkpt lat="40.0720632" lon="-105.2298476">
  <ele>1583.0</ele>
  <time>2026-08-28T17:55:44Z</time>
  <course>114.74</course>
  <speed>0.0</speed>
  <fix>3d</fix>
</trkpt>
<trkpt lat="40.072063" lon="-105.2298475">
  <ele>1582.9</ele>
  <time>2026-08-28T17:55:44Z</time>
  <course>25.81</course>
  <speed>0.02</speed>
  <fix>3d</fix>
</trkpt>
<trkpt lat="40.0720632" lon="-105.2298476">
  <ele>1583.0</ele>
  <time>2026-08-28T17:55:44Z</time>
  <course>114.74</course>
  <speed>0.0</speed>
  <fix>3d</fix>
</trkpt>
<trkpt lat="40.072063" lon="-105.2298475">
  <ele>1582.9</ele>
  <time>2026-08-28T17:55:44Z</time>
  <course>25.81</course>
  <speed>0.02</speed>
  <fix>3d</fix>
</trkpt>
<trkpt lat="40.0720632" lon="-105.2298476">
  <ele>1583.0</ele>
  <time>2026-08-28T17:55:44Z</time>
  <course>114.74</course>
  <speed>0.0</speed>
  <fix>3d</fix>
</trkpt>
<trkpt lat="40.072063" lon="-105.2298475">
  <ele>1582.91</ele>
  <time>2026-08-28T17:55:44Z</time>
  <course>25.81</course>
  <speed>0.02</speed>
  <fix>3d</fix>
</trkpt>
<trkpt lat="40.0720632" lon="-105.2298476">
  <ele>1583.0</ele>
  <time>2026-08-28T17:55:44Z</time>
  <course>114.74</course>
  <speed>0.0</speed>
  <fix>3d</fix>
</trkpt>
<trkpt lat="40.072063" lon="-105.2298475">
  <ele>1582.92</ele>
  <time>2026-08-28T17:55:44Z</time>
  <course>25.81</course>
  <speed>0.02</speed>
  <fix>3d</fix>
</trkpt>
<trkpt lat="40.0720632" lon="-105.2298476">
  <ele>1583.0</ele>
  <time>2026-08-28T17:55:44Z</time>
  <course>114.74</course>
  <speed>0.0</speed>
  <fix>3d</fix>
</trkpt>
<trkpt lat="40.072063" lon="-105.2298475">
  <ele>1582.93</ele>
  <time>2026-08-28T17:55:44Z</time>
  <course>25.81</course>
  <speed>0.02</speed>
  <fix>3d</fix>
</trkpt>
<trkpt lat="40.0720632" lon="-105.2298476">
  <ele>1583.0</ele>
  <time>2026-08-28T17:55:44Z</time>
  <course>114.74</course>
  <speed>0.0</speed>
  <fix>3d</fix>
</trkpt>
<trkpt lat="40.072063" lon="-105.2298475">
  <ele>1582.93</ele>
  <time>2026-08-28T17:55:44Z</time>
  <course>25.81</course>
  <speed>0.02</speed>
  <fix>3d</fix>
</trkpt>
<trkpt lat="40.0720632" lon="-105.2298476">
  <ele>1583.0</ele>
  <time>2026-08-28T17:55:44Z</time>
  <course>114.74</course>
  <speed>0.0</speed>
  <fix>3d</fix>
</trkpt>
<trkpt lat="40.072063" lon="-105.2298475">
  <ele>1582.94</ele>
  <time>2026-08-28T17:55:44Z</time>
  <course>25.8</course>
  <speed>0.02</speed>
  <fix>3d</fix>
</trkpt>
<trkpt lat="40.0720632" lon="-105.2298476">
  <ele>1583.0</ele>
  <time>2026-08-28T17:55:44Z</time>
  <course>114.74</course>
  <speed>0.0</speed>
  <fix>3d</fix>
</trkpt>
<trkpt lat="40.072063" lon="-105.2298475">
  <ele>1582.95</ele>
  <time>2026-08-28T17:55:44Z</time>
  <course>25.8</course>
  <speed>0.02</speed>
  <fix>3d</fix>
</trkpt>
<trkpt lat="40.0720632" lon="-105.2298476">
  <ele>1583.0</ele>
  <time>2026-08-28T17:55:44Z</time>
  <course>114.74</course>
  <speed>0.0</speed>
  <fix>3d</fix>
</trkpt>
<trkpt lat="40.072063" lon="-105.2298475">
  <ele>1582.98</ele>
  <time>2026-08-28T17:55:44Z</time>
  <course>25.8</course>
  <speed>0.02</speed>
  <fix>3d</fix>
</trkpt>
<trkpt lat="40.0720632" lon="-105.2298476">
  <ele>1583.0</ele>
  <time>2026-08-28T17:55:44Z</time>
  <course>114.74</course>
  <speed>0.0</speed>
  <fix>3d</fix>
</trkpt>
<trkpt lat="40.072063" lon="-105.2298475">
  <ele>1583.0</ele>
  <time>2026-08-28T17:55:44Z</time>
  <course>25.8</course>
  <speed>0.02</speed>
  <fix>3d</fix>
</trkpt>
<trkpt lat="40.0720632" lon="-105.2298476">
  <ele>1583.0</ele>
  <time>2026-08-28T17:55:44Z</time>
  <course>114.74</course>
  <speed>0.0</speed>
  <fix>3d</fix>
</trkpt>
<trkpt lat="40.072063" lon="-105.2298475">
  <ele>1583.01</ele>
  <time>2026-08-28T17:55:44Z</time>
  <course>25.8</course>
  <speed>0.02</speed>
  <fix>3d</fix>
</trkpt>
<trkpt lat="40.0720632" lon="-105.2298476">
  <ele>1583.0</ele>
  <time>2026-08-28T17:55:44Z</time>
  <course>114.74</course>
  <speed>0.0</speed>
  <fix>3d</fix>
</trkpt>
<trkpt lat="40.072063" lon="-105.2298475">
  <ele>1583.02</ele>
  <time>2026-08-28T17:55:44Z</time>
  <course>25.8</course>
  <speed>0.02</speed>
  <fix>3d</fix>
</trkpt>
<trkpt lat="40.0720632" lon="-105.2298476">
  <ele>1583.0</ele>
  <time>2026-08-28T17:55:44Z</time>
  <course>114.74</course>
  <speed>0.0</speed>
  <fix>3d</fix>
</trkpt>
<trkpt lat="40.072063" lon="-105.2298475">
  <ele>1583.03</ele>
  <time>2026-08-28T17:55:44Z</time>
  <course>25.8</course>
  <speed>0.02</speed>
  <fix>3d</fix>
</trkpt>
<trkpt lat="40.0720632" lon="-105.2298476">
  <ele>1583.0</ele>
  <time>2026-08-28T17:55:44Z</time>
  <course>114.74</course>
  <speed>0.0</speed>
  <fix>3d</fix>
</trkpt>
<trkpt lat="40.072063" lon="-105.2298475">
  <ele>1583.04</ele>
  <time>2026-08-28T17:55:44Z</time>
  <course>25.8</course>
  <speed>0.02</speed>
  <fix>3d</fix>
</trkpt>
<trkpt lat="40.0720632" lon="-105.2298476">
  <ele>1583.0</ele>
  <time>2026-08-28T17:55:44Z</time>
  <course>114.74</course>
  <speed>0.0</speed>
  <fix>3d</fix>
</trkpt>
<trkpt lat="40.072063" lon="-105.2298475">
  <ele>1583.05</ele>
  <time>2026-08-28T17:55:44Z</time>
  <course>25.8</course>
  <speed>0.02</speed>
  <fix>3d</fix>
</trkpt>
<trkpt lat="40.0720632" lon="-105.2298476">
  <ele>1583.0</ele>
  <time>2026-08-28T17:55:44Z</time>
  <course>114.74</course>
  <speed>0.0</speed>
  <fix>3d</fix>
</trkpt>
<trkpt lat="40.072063" lon="-105.2298475">
  <ele>1583.05</ele>
  <time>2026-08-28T17:55:44Z</time>
  <course>25.8</course>
  <speed>0.02</speed>
  <fix>3d</fix>
</trkpt>
<trkpt lat="40.0720632" lon="-105.2298476">
  <ele>1583.0</ele>
  <time>2026-08-28T17:55:44Z</time>
  <course>114.74</course>
  <speed>0.0</speed>
  <fix>3d</fix>
</trkpt>
<trkpt lat="40.072063" lon="-105.2298475">
  <ele>1583.05</ele>
  <time>2026-08-28T17:55:44Z</time>
  <course>25.8</course>
  <speed>0.02</speed>
  <fix>3d</fix>
</trkpt>
<trkpt lat="40.0720632" lon="-105.2298476">
  <ele>1583.0</ele>
  <time>2026-08-28T17:55:44Z</time>
  <course>114.74</course>
  <speed>0.0</speed>
  <fix>3d</fix>
</trkpt>
<trkpt lat="40.072063" lon="-105.2298475">
  <ele>1583.05</ele>
  <time>2026-08-28T17:55:44Z</time>
  <course>25.8</course>
  <speed>0.02</speed>
  <fix>3d</fix>
</trkpt>
<trkpt lat="40.0720632" lon="-105.2298476">
  <ele>1583.0</ele>
  <time>2026-08-28T17:55:44Z</time>
  <course>114.74</course>
  <speed>0.0</speed>
  <fix>3d</fix>
</trkpt>
<trkpt lat="40.072063" lon="-105.2298475">
  <ele>1583.05</ele>
  <time>2026-08-28T17:55:44Z</time>
  <course>25.8</course>
  <speed>0.02</speed>
  <fix>3d</fix>
</trkpt>
<trkpt lat="40.0720632" lon="-105.2298476">
  <ele>1583.0</ele>
  <time>2026-08-28T17:55:44Z</time>
  <course>114.74</course>
  <speed>0.0</speed>
  <fix>3d</fix>
</trkpt>
<trkpt lat="40.072063" lon="-105.2298475">
  <ele>1583.05</ele>
  <time>2026-08-28T17:55:44Z</time>
  <course>25.8</course>
  <speed>0.02</speed>
  <fix>3d</fix>
</trkpt>
<trkpt lat="40.0720632" lon="-105.2298476">
  <ele>1583.0</ele>
  <time>2026-08-28T17:55:44Z</time>
  <course>114.74</course>
  <speed>0.0</speed>
  <fix>3d</fix>
</trkpt>
<trkpt lat="40.072063" lon="-105.2298475">
  <ele>1583.05</ele>
  <time>2026-08-28T17:55:44Z</time>
  <course>25.8</course>
  <speed>0.02</speed>
  <fix>3d</fix>
</trkpt>
<trkpt lat="40.0720632" lon="-105.2298476">
  <ele>1583.0</ele>
  <time>2026-08-28T17:55:44Z</time>
  <course>114.74</course>
  <speed>0.0</speed>
  <fix>3d</fix>
</trkpt>
<trkpt lat="40.072063" lon="-105.2298475">
  <ele>1583.05</ele>
  <time>2026-08-28T17:55:44Z</time>
  <course>25.8</course>
  <speed>0.02</speed>
  <fix>3d</fix>
</trkpt>
<trkpt lat="40.0720632" lon="-105.2298476">
  <ele>1583.0</ele>
  <time>2026-08-28T17:55:44Z</time>
  <course>114.74</course>
  <speed>0.0</speed>
  <fix>3d</fix>
</trkpt>
<trkpt lat="40.072063" lon="-105.2298475">
  <ele>1583.05</ele>
  <time>2026-08-28T17:55:44Z</time>
  <course>25.8</course>
  <speed>0.02</speed>
  <fix>3d</fix>
</trkpt>
<trkpt lat="40.0720632" lon="-105.2298476">
  <ele>1583.0</ele>
  <time>2026-08-28T17:55:44Z</time>
  <course>114.74</course>
  <speed>0.0</speed>
  <fix>3d</fix>
</trkpt>
<trkpt lat="40.072063" lon="-105.2298475">
  <ele>1583.06</ele>
  <time>2026-08-28T17:55:44Z</time>
  <course>25.8</course>
  <speed>0.02</speed>
  <fix>3d</fix>
</trkpt>
<trkpt lat="40.0720632" lon="-105.2298476">
  <ele>1583.0</ele>
  <time>2026-08-28T17:55:44Z</time>
  <course>114.74</course>
  <speed>0.0</speed>
  <fix>3d</fix>
</trkpt>
<trkpt lat="40.072063" lon="-105.2298475">
  <ele>1583.06</ele>
  <time>2026-08-28T17:55:44Z</time>
  <course>25.8</course>
  <speed>0.02</speed>
  <fix>3d</fix>
</trkpt>
<trkpt lat="40.0720632" lon="-105.2298476">
  <ele>1583.0</ele>
  <time>2026-08-28T17:55:44Z</time>
  <course>114.74</course>
  <speed>0.0</speed>
  <fix>3d</fix>
</trkpt>
<trkpt lat="40.072063" lon="-105.2298475">
  <ele>1583.06</ele>
  <time>2026-08-28T17:55:44Z</time>
  <course>25.8</course>
  <speed>0.02</speed>
  <fix>3d</fix>
</trkpt>
<trkpt lat="40.0720632" lon="-105.2298476">
  <ele>1583.0</ele>
  <time>2026-08-28T17:55:44Z</time>
  <course>114.74</course>
  <speed>0.0</speed>
  <fix>3d</fix>
</trkpt>
<trkpt lat="40.072063" lon="-105.2298475">
  <ele>1583.06</ele>
  <time>2026-08-28T17:55:44Z</time>
  <course>25.8</course>
  <speed>0.02</speed>
  <fix>3d</fix>
</trkpt>
<trkpt lat="40.0720632" lon="-105.2298476">
  <ele>1583.0</ele>
  <time>2026-08-28T17:55:44Z</time>
  <course>114.74</course>
  <speed>0.0</speed>
  <fix>3d</fix>
</trkpt>
<trkpt lat="40.072063" lon="-105.2298475">
  <ele>1583.06</ele>
  <time>2026-08-28T17:55:44Z</time>
  <course>25.8</course>
  <speed>0.02</speed>
  <fix>3d</fix>
</trkpt>
<trkpt lat="40.0720632" lon="-105.2298476">
  <ele>1583.0</ele>
  <time>2026-08-28T17:55:44Z</time>
  <course>114.74</course>
  <speed>0.0</speed>
  <fix>3d</fix>
</trkpt>
<trkpt lat="40.072063" lon="-105.2298475">
  <ele>1583.07</ele>
  <time>2026-08-28T17:55:44Z</time>
  <course>25.8</course>
  <speed>0.02</speed>
  <fix>3d</fix>
</trkpt>
<trkpt lat="40.0720632" lon="-105.2298476">
  <ele>1583.0</ele>
  <time>2026-08-28T17:55:44Z</time>
  <course>114.74</course>
  <speed>0.0</speed>
  <fix>3d</fix>
</trkpt>
<trkpt lat="40.072063" lon="-105.2298475">
  <ele>1583.07</ele>
  <time>2026-08-28T17:55:44Z</time>
  <course>25.8</course>
  <speed>0.02</speed>
  <fix>3d</fix>
</trkpt>
<trkpt lat="40.0720632" lon="-105.2298476">
  <ele>1583.0</ele>
  <time>2026-08-28T17:55:44Z</time>
  <course>114.74</course>
  <speed>0.0</speed>
  <fix>3d</fix>
</trkpt>
<trkpt lat="40.072063" lon="-105.2298475">
  <ele>1583.07</ele>
  <time>2026-08-28T17:55:44Z</time>
  <course>25.8</course>
  <speed>0.02</speed>
  <fix>3d</fix>
</trkpt>
<trkpt lat="40.0720632" lon="-105.2298476">
  <ele>1583.0</ele>
  <time>2026-08-28T17:55:44Z</time>
  <course>114.74</course>
  <speed>0.0</speed>
  <fix>3d</fix>
</trkpt>
<trkpt lat="40.072063" lon="-105.2298475">
  <ele>1583.07</ele>
  <time>2026-08-28T17:55:44Z</time>
  <course>25.8</course>
  <speed>0.02</speed>
  <fix>3d</fix>
</trkpt>
<trkpt lat="40.0720632" lon="-105.2298476">
  <ele>1583.0</ele>
  <time>2026-08-28T17:55:44Z</time>
  <course>114.74</course>
  <speed>0.0</speed>
  <fix>3d</fix>
</trkpt>
<trkpt lat="40.072063" lon="-105.2298475">
  <ele>1583.07</ele>
  <time>2026-08-28T17:55:44Z</time>
  <course>25.8</course>
  <speed>0.02</speed>
  <fix>3d</fix>
</trkpt>
<trkpt lat="40.0720632" lon="-105.2298476">
  <ele>1583.0</ele>
  <time>2026-08-28T17:55:44Z</time>
  <course>114.74</course>
  <speed>0.0</speed>
  <fix>3d</fix>
</trkpt>
<trkpt lat="40.072063" lon="-105.2298475">
  <ele>1583.06</ele>
  <time>2026-08-28T17:55:44Z</time>
  <course>25.8</course>
  <speed>0.02</speed>
  <fix>3d</fix>
</trkpt>
<trkpt lat="40.0720632" lon="-105.2298476">
  <ele>1583.0</ele>
  <time>2026-08-28T17:55:44Z</time>
  <course>114.74</course>
  <speed>0.0</speed>
  <fix>3d</fix>
</trkpt>
<trkpt lat="40.072063" lon="-105.2298475">
  <ele>1583.06</ele>
  <time>2026-08-28T17:55:44Z</time>
  <course>25.79</course>
  <speed>0.02</speed>
  <fix>3d</fix>
</trkpt>
<trkpt lat="40.0720632" lon="-105.2298476">
  <ele>1583.0</ele>
  <time>2026-08-28T17:55:44Z</time>
  <course>114.74</course>
  <speed>0.0</speed>
  <fix>3d</fix>
</trkpt>
<trkpt lat="40.072063" lon="-105.2298475">
  <ele>1583.06</ele>
  <time>2026-08-28T17:55:44Z</time>
  <course>25.79</course>
  <speed>0.02</speed>
  <fix>3d</fix>
</trkpt>
<trkpt lat="40.0720632" lon="-105.2298476">
  <ele>1583.0</ele>
  <time>2026-08-28T17:55:44Z</time>
  <course>114.74</course>
  <speed>0.0</speed>
  <fix>3d</fix>
</trkpt>
<trkpt lat="40.072063" lon="-105.2298475">
  <ele>1583.06</ele>
  <time>2026-08-28T17:55:44Z</time>
  <course>25.79</course>
  <speed>0.02</speed>
  <fix>3d</fix>
</trkpt>
<trkpt lat="40.0720632" lon="-105.2298476">
  <ele>1583.0</ele>
  <time>2026-08-28T17:55:44Z</time>
  <course>114.74</course>
  <speed>0.0</speed>
  <fix>3d</fix>
</trkpt>
<trkpt lat="40.072063" lon="-105.2298475">
  <ele>1583.06</ele>
  <time>2026-08-28T17:55:44Z</time>
  <course>25.79</course>
  <speed>0.02</speed>
  <fix>3d</fix>
</trkpt>
<trkpt lat="40.0720632" lon="-105.2298476">
  <ele>1583.0</ele>
  <time>2026-08-28T17:55:44Z</time>
  <course>114.74</course>
  <speed>0.0</speed>
  <fix>3d</fix>
</trkpt>
<trkpt lat="40.072063" lon="-105.2298475">
  <ele>1583.06</ele>
  <time>2026-08-28T17:55:44Z</time>
  <course>25.79</course>
  <speed>0.02</speed>
  <fix>3d</fix>
</trkpt>
<trkpt lat="40.0720632" lon="-105.2298476">
  <ele>1583.0</ele>
  <time>2026-08-28T17:55:44Z</time>
  <course>114.74</course>
  <speed>0.0</speed>
  <fix>3d</fix>
</trkpt>
<trkpt lat="40.072063" lon="-105.2298475">
  <ele>1583.07</ele>
  <time>2026-08-28T17:55:44Z</time>
  <course>25.79</course>
  <speed>0.02</speed>
  <fix>3d</fix>
</trkpt>
<trkpt lat="40.0720632" lon="-105.2298476">
  <ele>1583.0</ele>
  <time>2026-08-28T17:55:44Z</time>
  <course>114.74</course>
  <speed>0.0</speed>
  <fix>3d</fix>
</trkpt>
<trkpt lat="40.072063" lon="-105.2298475">
  <ele>1583.07</ele>
  <time>2026-08-28T17:55:44Z</time>
  <course>25.79</course>
  <speed>0.02</speed>
  <fix>3d</fix>
</trkpt>
<trkpt lat="40.0720632" lon="-105.2298476">
  <ele>1583.0</ele>
  <time>2026-08-28T17:55:44Z</time>
  <course>114.74</course>
  <speed>0.0</speed>
  <fix>3d</fix>
</trkpt>
<trkpt lat="40.072063" lon="-105.2298475">
  <ele>1583.08</ele>
  <time>2026-08-28T17:55:44Z</time>
  <course>25.79</course>
  <speed>0.02</speed>
  <fix>3d</fix>
</trkpt>
<trkpt lat="40.0720632" lon="-105.2298476">
  <ele>1583.0</ele>
  <time>2026-08-28T17:55:44Z</time>
  <course>114.74</course>
  <speed>0.0</speed>
  <fix>3d</fix>
</trkpt>
<trkpt lat="40.072063" lon="-105.2298475">
  <ele>1583.09</ele>
  <time>2026-08-28T17:55:44Z</time>
  <course>25.79</course>
  <speed>0.02</speed>
  <fix>3d</fix>
</trkpt>
<trkpt lat="40.0720632" lon="-105.2298476">
  <ele>1583.0</ele>
  <time>2026-08-28T17:55:44Z</time>
  <course>114.74</course>
  <speed>0.0</speed>
  <fix>3d</fix>
</trkpt>
<trkpt lat="40.072063" lon="-105.2298475">
  <ele>1583.11</ele>
  <time>2026-08-28T17:55:44Z</time>
  <course>25.79</course>
  <speed>0.02</speed>
  <fix>3d</fix>
</trkpt>
<trkpt lat="40.0720632" lon="-105.2298476">
  <ele>1583.0</ele>
  <time>2026-08-28T17:55:44Z</time>
  <course>114.74</course>
  <speed>0.0</speed>
  <fix>3d</fix>
</trkpt>
<trkpt lat="40.072063" lon="-105.2298475">
  <ele>1583.11</ele>
  <time>2026-08-28T17:55:44Z</time>
  <course>25.79</course>
  <speed>0.02</speed>
  <fix>3d</fix>
</trkpt>
<trkpt lat="40.0720632" lon="-105.2298476">
  <ele>1583.0</ele>
  <time>2026-08-28T17:55:44Z</time>
  <course>114.74</course>
  <speed>0.0</speed>
  <fix>3d</fix>
</trkpt>
<trkpt lat="40.072063" lon="-105.2298475">
  <ele>1583.11</ele>
  <time>2026-08-28T17:55:44Z</time>
  <course>25.79</course>
  <speed>0.02</speed>
  <fix>3d</fix>
</trkpt>
<trkpt lat="40.0720632" lon="-105.2298476">
  <ele>1583.0</ele>
  <time>2026-08-28T17:55:44Z</time>
  <course>114.74</course>
  <speed>0.0</speed>
  <fix>3d</fix>
</trkpt>
<trkpt lat="40.072063" lon="-105.2298475">
  <ele>1583.11</ele>
  <time>2026-08-28T17:55:44Z</time>
  <course>25.79</course>
  <speed>0.02</speed>
  <fix>3d</fix>
</trkpt>
<trkpt lat="40.0720632" lon="-105.2298476">
  <ele>1583.0</ele>
  <time>2026-08-28T17:55:44Z</time>
  <course>114.74</course>
  <speed>0.0</speed>
  <fix>3d</fix>
</trkpt>
<trkpt lat="40.072063" lon="-105.2298475">
  <ele>1583.1</ele>
  <time>2026-08-28T17:55:44Z</time>
  <course>25.79</course>
  <speed>0.02</speed>
  <fix>3d</fix>
</trkpt>
<trkpt lat="40.0720632" lon="-105.2298476">
  <ele>1583.0</ele>
  <time>2026-08-28T17:55:44Z</time>
  <course>114.74</course>
  <speed>0.0</speed>
  <fix>3d</fix>
</trkpt>
<trkpt lat="40.072063" lon="-105.2298475">
  <ele>1583.1</ele>
  <time>2026-08-28T17:55:44Z</time>
  <course>25.79</course>
  <speed>0.02</speed>
  <fix>3d</fix>
</trkpt>
<trkpt lat="40.0720632" lon="-105.2298476">
  <ele>1583.0</ele>
  <time>2026-08-28T17:55:44Z</time>
  <course>114.74</course>
  <speed>0.0</speed>
  <fix>3d</fix>
</trkpt>
<trkpt lat="40.072063" lon="-105.2298475">
  <ele>1583.09</ele>
  <time>2026-08-28T17:55:44Z</time>
  <course>25.79</course>
  <speed>0.02</speed>
  <fix>3d</fix>
</trkpt>
<trkpt lat="40.0720632" lon="-105.2298476">
  <ele>1583.0</ele>
  <time>2026-08-28T17:55:44Z</time>
  <course>114.74</course>
  <speed>0.0</speed>
  <fix>3d</fix>
</trkpt>
<trkpt lat="40.072063" lon="-105.2298475">
  <ele>1583.08</ele>
  <time>2026-08-28T17:55:44Z</time>
  <course>25.79</course>
  <speed>0.02</speed>
  <fix>3d</fix>
</trkpt>
<trkpt lat="40.0720632" lon="-105.2298476">
  <ele>1583.0</ele>
  <time>2026-08-28T17:55:44Z</time>
  <course>114.74</course>
  <speed>0.0</speed>
  <fix>3d</fix>
</trkpt>
<trkpt lat="40.072063" lon="-105.2298475">
  <ele>1583.08</ele>
  <time>2026-08-28T17:55:44Z</time>
  <course>25.79</course>
  <speed>0.02</speed>
  <fix>3d</fix>
</trkpt>
<trkpt lat="40.0720632" lon="-105.2298476">
  <ele>1583.0</ele>
  <time>2026-08-28T17:55:44Z</time>
  <course>114.74</course>
  <speed>0.0</speed>
  <fix>3d</fix>
</trkpt>
<trkpt lat="40.072063" lon="-105.2298475">
  <ele>1583.07</ele>
  <time>2026-08-28T17:55:44Z</time>
  <course>25.79</course>
  <speed>0.02</speed>
  <fix>3d</fix>
</trkpt>
<trkpt lat="40.0720632" lon="-105.2298476">
  <ele>1583.0</ele>
  <time>2026-08-28T17:55:44Z</time>
  <course>114.74</course>
  <speed>0.0</speed>
  <fix>3d</fix>
</trkpt>
<trkpt lat="40.072063" lon="-105.2298475">
  <ele>1583.06</ele>
  <time>2026-08-28T17:55:44Z</time>
  <course>25.79</course>
  <speed>0.02</speed>
  <fix>3d</fix>
</trkpt>
<trkpt lat="40.0720632" lon="-105.2298476">
  <ele>1583.0</ele>
  <time>2026-08-28T17:55:44Z</time>
  <course>114.74</course>
  <speed>0.0</speed>
  <fix>3d</fix>
</trkpt>
<trkpt lat="40.072063" lon="-105.2298475">
  <ele>1583.06</ele>
  <time>2026-08-28T17:55:44Z</time>
  <course>25.79</course>
  <speed>0.02</speed>
  <fix>3d</fix>
</trkpt>
<trkpt lat="40.0720632" lon="-105.2298476">
  <ele>1583.0</ele>
  <time>2026-08-28T17:55:44Z</time>
  <course>114.74</course>
  <speed>0.0</speed>
  <fix>3d</fix>
</trkpt>
<trkpt lat="40.072063" lon="-105.2298475">
  <ele>1583.05</ele>
  <time>2026-08-28T17:55:44Z</time>
  <course>25.79</course>
  <speed>0.02</speed>
  <fix>3d</fix>
</trkpt>
<trkpt lat="40.0720632" lon="-105.2298476">
  <ele>1583.0</ele>
  <time>2026-08-28T17:55:44Z</time>
  <course>114.74</course>
  <speed>0.0</speed>
  <fix>3d</fix>
</trkpt>
<trkpt lat="40.072063" lon="-105.2298475">
  <ele>1583.04</ele>
  <time>2026-08-28T17:55:44Z</time>
  <course>25.79</course>
  <speed>0.02</speed>
  <fix>3d</fix>
</trkpt>
<trkpt lat="40.0720632" lon="-105.2298476">
  <ele>1583.0</ele>
  <time>2026-08-28T17:55:44Z</time>
  <course>114.74</course>
  <speed>0.0</speed>
  <fix>3d</fix>
</trkpt>
<trkpt lat="40.072063" lon="-105.2298475">
  <ele>1583.03</ele>
  <time>2026-08-28T17:55:44Z</time>
  <course>25.79</course>
  <speed>0.02</speed>
  <fix>3d</fix>
</trkpt>
<trkpt lat="40.0720632" lon="-105.2298476">
  <ele>1583.0</ele>
  <time>2026-08-28T17:55:44Z</time>
  <course>114.74</course>
  <speed>0.0</speed>
  <fix>3d</fix>
</trkpt>
<trkpt lat="40.072063" lon="-105.2298475">
  <ele>1583.02</ele>
  <time>2026-08-28T17:55:44Z</time>
  <course>25.79</course>
  <speed>0.02</speed>
  <fix>3d</fix>
</trkpt>
<trkpt lat="40.0720632" lon="-105.2298476">
  <ele>1583.0</ele>
  <time>2026-08-28T17:55:44Z</time>
  <course>114.74</course>
  <speed>0.0</speed>
  <fix>3d</fix>
</trkpt>
<trkpt lat="40.072063" lon="-105.2298475">
  <ele>1583.01</ele>
  <time>2026-08-28T17:55:44Z</time>
  <course>25.79</course>
  <speed>0.02</speed>
  <fix>3d</fix>
</trkpt>
<trkpt lat="40.0720632" lon="-105.2298476">
  <ele>1583.0</ele>
  <time>2026-08-28T17:55:44Z</time>
  <course>114.74</course>
  <speed>0.0</speed>
  <fix>3d</fix>
</trkpt>
<trkpt lat="40.072063" lon="-105.2298475">
  <ele>1583.0</ele>
  <time>2026-08-28T17:55:44Z</time>
  <course>25.79</course>
  <speed>0.02</speed>
  <fix>3d</fix>
</trkpt>
<trkpt lat="40.0720632" lon="-105.2298476">
  <ele>1583.0</ele>
  <time>2026-08-28T17:55:44Z</time>
  <course>114.74</course>
  <speed>0.0</speed>
  <fix>3d</fix>
</trkpt>
<trkpt lat="40.072063" lon="-105.2298475">
  <ele>1583.0</ele>
  <time>2026-08-28T17:55:44Z</time>
  <course>25.79</course>
  <speed>0.02</speed>
  <fix>3d</fix>
</trkpt>
<trkpt lat="40.0720632" lon="-105.2298476">
  <ele>1583.0</ele>
  <time>2026-08-28T17:55:44Z</time>
  <course>114.74</course>
  <speed>0.0</speed>
  <fix>3d</fix>
</trkpt>
<trkpt lat="40.072063" lon="-105.2298475">
  <ele>1582.99</ele>
  <time>2026-08-28T17:55:44Z</time>
  <course>25.79</course>
  <speed>0.02</speed>
  <fix>3d</fix>
</trkpt>
<trkpt lat="40.0720632" lon="-105.2298476">
  <ele>1583.0</ele>
  <time>2026-08-28T17:55:44Z</time>
  <course>114.74</course>
  <speed>0.0</speed>
  <fix>3d</fix>
</trkpt>
<trkpt lat="40.072063" lon="-105.2298475">
  <ele>1582.98</ele>
  <time>2026-08-28T17:55:44Z</time>
  <course>25.8</course>
  <speed>0.022360679774997897</speed>
  <fix>3d</fix>
</trkpt>
<trkpt lat="40.0720632" lon="-105.2298476">
  <ele>1583.0</ele>
  <time>2026-08-28T17:55:44Z</time>
  <course>114.74</course>
  <speed>0.0</speed>
  <fix>3d</fix>
</trkpt>
<trkpt lat="40.072063" lon="-105.2298475">
  <ele>1582.97</ele>
  <time>2026-08-28T17:55:44Z</time>
  <course>25.8</course>
  <speed>0.0316227766016838</speed>
  <fix>3d</fix>
</trkpt>
<trkpt lat="40.0720632" lon="-105.2298476">
  <ele>1583.0</ele>
  <time>2026-08-28T17:55:44Z</time>
  <course>114.74</course>
  <speed>0.0</speed>
  <fix>3d</fix>
</trkpt>
<trkpt lat="40.0720629" lon="-105.2298475">
  <ele>1582.96</ele>
  <time>2026-08-28T17:55:44Z</time>
  <course>25.81</course>
  <speed>0.0316227766016838</speed>
  <fix>3d</fix>
</trkpt>
<trkpt lat="40.0720632" lon="-105.2298476">
  <ele>1583.0</ele>
  <time>2026-08-28T17:55:44Z</time>
  <course>114.74</course>
  <speed>0.0</speed>
  <fix>3d</fix>
</trkpt>
<trkpt lat="40.0720629" lon="-105.2298475">
  <ele>1582.95</ele>
  <time>2026-08-28T17:55:44Z</time>
  <course>25.81</course>
  <speed>0.0316227766016838</speed>
  <fix>3d</fix>
</trkpt>
<trkpt lat="40.0720632" lon="-105.2298476">
  <ele>1583.0</ele>
  <time>2026-08-28T17:55:44Z</time>
  <course>114.74</course>
  <speed>0.0</speed>
  <fix>3d</fix>
</trkpt>
<trkpt lat="40.0720629" lon="-105.2298475">
  <ele>1582.94</ele>
  <time>2026-08-28T17:55:44Z</time>
  <course>25.81</course>
  <speed>0.0316227766016838</speed>
  <fix>3d</fix>
</trkpt>
<trkpt lat="40.0720632" lon="-105.2298476">
  <ele>1583.0</ele>
  <time>2026-08-28T17:55:44Z</time>
  <course>114.74</course>
  <speed>0.0</speed>
  <fix>3d</fix>
</trkpt>
<trkpt lat="40.0720628" lon="-105.2298475">
  <ele>1582.93</ele>
  <time>2026-08-28T17:55:44Z</time>
  <course>25.82</course>
  <speed>0.0316227766016838</speed>
  <fix>3d</fix>
</trkpt>
<trkpt lat="40.0720632" lon="-105.2298476">
  <ele>1583.0</ele>
  <time>2026-08-28T17:55:44Z</time>
  <course>114.74</course>
  <speed>0.0</speed>
  <fix>3d</fix>
</trkpt>
<trkpt lat="40.0720628" lon="-105.2298474">
  <ele>1582.93</ele>
  <time>2026-08-28T17:55:44Z</time>
  <course>25.82</course>
  <speed>0.0316227766016838</speed>
  <fix>3d</fix>
</trkpt>
<trkpt lat="40.0720632" lon="-105.2298476">
  <ele>1583.0</ele>
  <time>2026-08-28T17:55:44Z</time>
  <course>114.74</course>
  <speed>0.0</speed>
  <fix>3d</fix>
</trkpt>
<trkpt lat="40.0713749" lon="-105.2297889">
  <ele>0.03</ele>
  <time>2026-08-28T17:55:44Z</time>
  <course>241.59</course>
  <speed>0.0</speed>
  <fix>3d</fix>
</trkpt>
<trkpt lat="40.0713749" lon="-105.2297889">
  <ele>1583.0</ele>
  <time>2026-08-28T17:55:44Z</time>
  <course>0.0</course>
  <speed>0.0</speed>
  <fix>3d</fix>
</trkpt>
<trkpt lat="40.0713749" lon="-105.2297889">
  <ele>0.18</ele>
  <time>2026-08-28T17:55:44Z</time>
  <course>242.7</course>
  <speed>0.0</speed>
  <fix>3d</fix>
</trkpt>
<trkpt lat="40.0713749" lon="-105.2297889">
  <ele>1583.0</ele>
  <time>2026-08-28T17:55:44Z</time>
  <course>0.0</course>
  <speed>0.0</speed>
  <fix>3d</fix>
</trkpt>
<trkpt lat="40.0713749" lon="-105.2297889">
  <ele>-0.04</ele>
  <time>2026-08-28T17:55:44Z</time>
  <course>243.15</course>
  <speed>0.0</speed>
  <fix>3d</fix>
</trkpt>
<trkpt lat="40.0713749" lon="-105.2297889">
  <ele>1583.0</ele>
  <time>2026-08-28T17:55:44Z</time>
  <course>0.0</course>
  <speed>0.0</speed>
  <fix>3d</fix>
</trkpt>
<trkpt lat="40.0713749" lon="-105.2297889">
  <ele>-0.09</ele>
  <time>2026-08-28T17:55:44Z</time>
  <course>243.53</course>
  <speed>0.0</speed>
  <fix>3d</fix>
</trkpt>
<trkpt lat="40.0713749" lon="-105.2297889">
  <ele>1583.0</ele>
  <time>2026-08-28T17:55:44Z</time>
  <course>0.0</course>
  <speed>0.0</speed>
  <fix>3d</fix>
</trkpt>
<trkpt lat="40.0713749" lon="-105.2297889">
  <ele>0.21</ele>
  <time>2026-08-28T17:55:44Z</time>
  <course>243.87</course>
  <speed>0.0</speed>
  <fix>3d</fix>
</trkpt>
<trkpt lat="40.0713749" lon="-105.2297889">
  <ele>1583.0</ele>
  <time>2026-08-28T17:55:44Z</time>
  <course>0.0</course>
  <speed>0.0</speed>
  <fix>3d</fix>
</trkpt>
<trkpt lat="40.0713749" lon="-105.2297889">
  <ele>-0.08</ele>
  <time>2026-08-28T17:55:44Z</time>
  <course>244.15</course>
  <speed>0.0</speed>
  <fix>3d</fix>
</trkpt>
<trkpt lat="40.0713749" lon="-105.2297889">
  <ele>1583.0</ele>
  <time>2026-08-28T17:55:44Z</time>
  <course>0.0</course>
  <speed>0.0</speed>
  <fix>3d</fix>
</trkpt>
<trkpt lat="40.0713749" lon="-105.2297889">
  <ele>-0.04</ele>
  <time>2026-08-28T17:55:44Z</time>
  <course>244.4</course>
  <speed>0.0</speed>
  <fix>3d</fix>
</trkpt>
<trkpt lat="40.0713749" lon="-105.2297889">
  <ele>1583.0</ele>
  <time>2026-08-28T17:55:44Z</time>
  <course>0.0</course>
  <speed>0.0</speed>
  <fix>3d</fix>
</trkpt>
<trkpt lat="40.0713749" lon="-105.2297889">
  <ele>0.02</ele>
  <time>2026-08-28T17:55:44Z</time>
  <course>244.62</course>
  <speed>0.0</speed>
  <fix>3d</fix>
</trkpt>
<trkpt lat="40.0713749" lon="-105.2297889">
  <ele>1583.0</ele>
  <time>2026-08-28T17:55:44Z</time>
  <course>0.0</course>
  <speed>0.0</speed>
  <fix>3d</fix>
</trkpt>
<trkpt lat="40.0713749" lon="-105.2297889">
  <ele>-0.16</ele>
  <time>2026-08-28T17:55:44Z</time>
  <course>244.8</course>
  <speed>0.0</speed>
  <fix>3d</fix>
</trkpt>
<trkpt lat="40.0713749" lon="-105.2297889">
  <ele>1583.0</ele>
  <time>2026-08-28T17:55:44Z</time>
  <course>0.0</course>
  <speed>0.0</speed>
  <fix>3d</fix>
</trkpt>
<trkpt lat="40.0713749" lon="-105.2297889">
  <ele>0.19</ele>
  <time>2026-08-28T17:55:44Z</time>
  <course>244.96</course>
  <speed>0.0</speed>
  <fix>3d</fix>
</trkpt>
<trkpt lat="40.0713749" lon="-105.2297889">
  <ele>1583.0</ele>
  <time>2026-08-28T17:55:44Z</time>
  <course>0.0</course>
  <speed>0.0</speed>
  <fix>3d</fix>
</trkpt>
<trkpt lat="40.0713749" lon="-105.2297889">
  <ele>0.1</ele>
  <time>2026-08-28T17:55:44Z</time>
  <course>245.1</course>
  <speed>0.0</speed>
  <fix>3d</fix>
</trkpt>
<trkpt lat="40.0713749" lon="-105.2297889">
  <ele>1583.0</ele>
  <time>2026-08-28T17:55:44Z</time>
  <course>0.0</course>
  <speed>0.0</speed>
  <fix>3d</fix>
</trkpt>
<trkpt lat="40.0713749" lon="-105.2297889">
  <ele>0.18</ele>
  <time>2026-08-28T17:55:44Z</time>
  <course>245.22</course>
  <speed>0.0</speed>
  <fix>3d</fix>
</trkpt>
<trkpt lat="40.0713749" lon="-105.2297889">
  <ele>1583.0</ele>
  <time>2026-08-28T17:55:44Z</time>
  <course>0.0</course>
  <speed>0.0</speed>
  <fix>3d</fix>
</trkpt>
<trkpt lat="40.0713749" lon="-105.2297889">
  <ele>-0.03</ele>
  <time>2026-08-28T17:55:44Z</time>
  <course>245.33</course>
  <speed>0.0</speed>
  <fix>3d</fix>
</trkpt>
<trkpt lat="40.0713749" lon="-105.2297889">
  <ele>1583.0</ele>
  <time>2026-08-28T17:55:44Z</time>
  <course>0.0</course>
  <speed>0.0</speed>
  <fix>3d</fix>
</trkpt>
<trkpt lat="40.0713749" lon="-105.2297889">
  <ele>0.2</ele>
  <time>2026-08-28T17:55:44Z</time>
  <course>245.42</course>
  <speed>0.0</speed>
  <fix>3d</fix>
</trkpt>
<trkpt lat="40.0713749" lon="-105.2297889">
  <ele>1583.0</ele>
  <time>2026-08-28T17:55:44Z</time>
  <course>0.0</course>
  <speed>0.0</speed>
  <fix>3d</fix>
</trkpt>
<trkpt lat="40.0713749" lon="-105.2297889">
  <ele>-0.14</ele>
  <time>2026-08-28T17:55:44Z</time>
  <course>245.49</course>
  <speed>0.0</speed>
  <fix>3d</fix>
</trkpt>
<trkpt lat="40.0713749" lon="-105.2297889">
  <ele>1583.0</ele>
  <time>2026-08-28T17:55:44Z</time>
  <course>0.0</course>
  <speed>0.0</speed>
  <fix>3d</fix>
</trkpt>
<trkpt lat="40.0713749" lon="-105.2297889">
  <ele>-0.12</ele>
  <time>2026-08-28T17:55:44Z</time>
  <course>245.56</course>
  <speed>0.0</speed>
  <fix>3d</fix>
</trkpt>
<trkpt lat="40.0713749" lon="-105.2297889">
  <ele>1583.0</ele>
  <time>2026-08-28T17:55:44Z</time>
  <course>0.0</course>
  <speed>0.0</speed>
  <fix>3d</fix>
</trkpt>
<trkpt lat="40.0713749" lon="-105.2297889">
  <ele>-0.2</ele>
  <time>2026-08-28T17:55:44Z</time>
  <course>245.62</course>
  <speed>0.0</speed>
  <fix>3d</fix>
</trkpt>
<trkpt lat="40.0713749" lon="-105.2297889">
  <ele>1583.0</ele>
  <time>2026-08-28T17:55:44Z</time>
  <course>0.0</course>
  <speed>0.0</speed>
  <fix>3d</fix>
</trkpt>
<trkpt lat="40.0713749" lon="-105.2297889">
  <ele>-0.24</ele>
  <time>2026-08-28T17:55:44Z</time>
  <course>245.67</course>
  <speed>0.0</speed>
  <fix>3d</fix>
</trkpt>
<trkpt lat="40.0713749" lon="-105.2297889">
  <ele>1583.0</ele>
  <time>2026-08-28T17:55:44Z</time>
  <course>0.0</course>
  <speed>0.0</speed>
  <fix>3d</fix>
</trkpt>
<trkpt lat="40.0713749" lon="-105.2297889">
  <ele>-0.24</ele>
  <time>2026-08-28T17:55:44Z</time>
  <course>245.71</course>
  <speed>0.0</speed>
  <fix>3d</fix>
</trkpt>
<trkpt lat="40.0713749" lon="-105.2297889">
  <ele>1583.0</ele>
  <time>2026-08-28T17:55:44Z</time>
  <course>0.0</course>
  <speed>0.0</speed>
  <fix>3d</fix>
</trkpt>
<trkpt lat="40.0713749" lon="-105.2297889">
  <ele>-0.09</ele>
  <time>2026-08-28T17:55:44Z</time>
  <course>245.75</course>
  <speed>0.0</speed>
  <fix>3d</fix>
</trkpt>
<trkpt lat="40.0713749" lon="-105.2297889">
  <ele>1583.0</ele>
  <time>2026-08-28T17:55:44Z</time>
  <course>0.0</course>
  <speed>0.0</speed>
  <fix>3d</fix>
</trkpt>
<trkpt lat="40.0713749" lon="-105.2297889">
  <ele>-0.35</ele>
  <time>2026-08-28T17:55:44Z</time>
  <course>245.78</course>
  <speed>0.0</speed>
  <fix>3d</fix>
</trkpt>
<trkpt lat="40.0713749" lon="-105.2297889">
  <ele>1583.0</ele>
  <time>2026-08-28T17:55:44Z</time>
  <course>0.0</course>
  <speed>0.0</speed>
  <fix>3d</fix>
</trkpt>
<trkpt lat="40.0713749" lon="-105.2297889">
  <ele>-0.24</ele>
  <time>2026-08-28T17:55:44Z</time>
  <course>245.81</course>
  <speed>0.0</speed>
  <fix>3d</fix>
</trkpt>
<trkpt lat="40.0713749" lon="-105.2297889">
  <ele>1583.0</ele>
  <time>2026-08-28T17:55:44Z</time>
  <course>0.0</course>
  <speed>0.0</speed>
  <fix>3d</fix>
</trkpt>
<trkpt lat="40.0713749" lon="-105.2297889">
  <ele>-0.12</ele>
  <time>2026-08-28T17:55:44Z</time>
  <course>245.83</course>
  <speed>0.0</speed>
  <fix>3d</fix>
</trkpt>
<trkpt lat="40.0713749" lon="-105.2297889">
  <ele>1583.0</ele>
  <time>2026-08-28T17:55:44Z</time>
  <course>0.0</course>
  <speed>0.0</speed>
  <fix>3d</fix>
</trkpt>
<trkpt lat="40.0713749" lon="-105.2297889">
  <ele>-0.1</ele>
  <time>2026-08-28T17:55:44Z</time>
  <course>245.85</course>
  <speed>0.0</speed>
  <fix>3d</fix>
</trkpt>
<trkpt lat="40.0713749" lon="-105.2297889">
  <ele>1583.0</ele>
  <time>2026-08-28T17:55:44Z</time>
  <course>0.0</course>
  <speed>0.0</speed>
  <fix>3d</fix>
</trkpt>
<trkpt lat="40.0713749" lon="-105.2297889">
  <ele>-0.2</ele>
  <time>2026-08-28T17:55:44Z</time>
  <course>245.87</course>
  <speed>0.0</speed>
  <fix>3d</fix>
</trkpt>
<trkpt lat="40.0713749" lon="-105.2297889">
  <ele>1583.0</ele>
  <time>2026-08-28T17:55:44Z</time>
  <course>0.0</course>
  <speed>0.0</speed>
  <fix>3d</fix>
</trkpt>
<trkpt lat="40.0713749" lon="-105.2297889">
  <ele>-0.05</ele>
  <time>2026-08-28T17:55:44Z</time>
  <course>245.89</course>
  <speed>0.0</speed>
  <fix>3d</fix>
</trkpt>
<trkpt lat="40.0713749" lon="-105.2297889">
  <ele>1583.0</ele>
  <time>2026-08-28T17:55:44Z</time>
  <course>0.0</course>
  <speed>0.0</speed>
  <fix>3d</fix>
</trkpt>
<trkpt lat="40.0713749" lon="-105.2297889">
  <ele>0.04</ele>
  <time>2026-08-28T17:55:44Z</time>
  <course>245.9</course>
  <speed>0.0</speed>
  <fix>3d</fix>
</trkpt>
<trkpt lat="40.0713749" lon="-105.2297889">
  <ele>1583.0</ele>
  <time>2026-08-28T17:55:44Z</time>
  <course>0.0</course>
  <speed>0.0</speed>
  <fix>3d</fix>
</trkpt>
<trkpt lat="40.0713749" lon="-105.2297889">
  <ele>-0.17</ele>
  <time>2026-08-28T17:55:44Z</time>
  <course>245.91</course>
  <speed>0.0</speed>
  <fix>3d</fix>
</trkpt>
<trkpt lat="40.0713749" lon="-105.2297889">
  <ele>1583.0</ele>
  <time>2026-08-28T17:55:44Z</time>
  <course>0.0</course>
  <speed>0.0</speed>
  <fix>3d</fix>
</trkpt>
<trkpt lat="40.0713749" lon="-105.2297889">
  <ele>-0.25</ele>
  <time>2026-08-28T17:55:44Z</time>
  <course>245.92</course>
  <speed>0.0</speed>
  <fix>3d</fix>
</trkpt>
<trkpt lat="40.0713749" lon="-105.2297889">
  <ele>1583.0</ele>
  <time>2026-08-28T17:55:44Z</time>
  <course>0.0</course>
  <speed>0.0</speed>
  <fix>3d</fix>
</trkpt>
<trkpt lat="40.0713749" lon="-105.2297889">
  <ele>-0.07</ele>
  <time>2026-08-28T17:55:44Z</time>
  <course>245.93</course>
  <speed>0.0</speed>
  <fix>3d</fix>
</trkpt>
<trkpt lat="40.0713749" lon="-105.2297889">
  <ele>1583.0</ele>
  <time>2026-08-28T17:55:44Z</time>
  <course>0.0</course>
  <speed>0.0</speed>
  <fix>3d</fix>
</trkpt>
<trkpt lat="40.0713749" lon="-105.2297889">
  <ele>-0.32</ele>
  <time>2026-08-28T17:55:44Z</time>
  <course>245.94</course>
  <speed>0.0</speed>
  <fix>3d</fix>
</trkpt>
<trkpt lat="40.0713749" lon="-105.2297889">
  <ele>1583.0</ele>
  <time>2026-08-28T17:55:44Z</time>
  <course>0.0</course>
  <speed>0.0</speed>
  <fix>3d</fix>
</trkpt>
<trkpt lat="40.0713749" lon="-105.2297889">
  <ele>-0.29</ele>
  <time>2026-08-28T17:55:44Z</time>
  <course>245.95</course>
  <speed>0.0</speed>
  <fix>3d</fix>
</trkpt>
<trkpt lat="40.0713749" lon="-105.2297889">
  <ele>1583.0</ele>
  <time>2026-08-28T17:55:44Z</time>
  <course>0.0</course>
  <speed>0.0</speed>
  <fix>3d</fix>
</trkpt>
<trkpt lat="40.0713749" lon="-105.2297889">
  <ele>-0.02</ele>
  <time>2026-08-28T17:55:44Z</time>
  <course>245.95</course>
  <speed>0.0</speed>
  <fix>3d</fix>
</trkpt>
<trkpt lat="40.0713749" lon="-105.2297889">
  <ele>1583.0</ele>
  <time>2026-08-28T17:55:44Z</time>
  <course>0.0</course>
  <speed>0.0</speed>
  <fix>3d</fix>
</trkpt>
<trkpt lat="40.0713749" lon="-105.2297889">
  <ele>-0.03</ele>
  <time>2026-08-28T17:55:44Z</time>
  <course>245.96</course>
  <speed>0.0</speed>
  <fix>3d</fix>
</trkpt>
<trkpt lat="40.0713749" lon="-105.2297889">
  <ele>1583.0</ele>
  <time>2026-08-28T17:55:44Z</time>
  <course>0.0</course>
  <speed>0.0</speed>
  <fix>3d</fix>
</trkpt>
<trkpt lat="40.0713749" lon="-105.2297889">
  <ele>1583.0</ele>
  <time>2026-08-28T17:55:44Z</time>
  <course>276.01</course>
  <speed>0.0</speed>
  <fix>3d</fix>
</trkpt>
<trkpt lat="40.0713749" lon="-105.2297889">
  <ele>1583.0</ele>
  <time>2026-08-28T17:55:44Z</time>
  <course>0.0</course>
  <speed>0.0</speed>
  <fix>3d</fix>
</trkpt>
<trkpt lat="40.0713749" lon="-105.2297889">
  <ele>1583.0</ele>
  <time>2026-08-28T17:55:44Z</time>
  <course>276.01</course>
  <speed>0.0</speed>
  <fix>3d</fix>
</trkpt>
<trkpt lat="40.0713749" lon="-105.2297889">
  <ele>1583.0</ele>
  <time>2026-08-28T17:55:44Z</time>
  <course>0.0</course>
  <speed>0.0</speed>
  <fix>3d</fix>
</trkpt>
<trkpt lat="40.0713749" lon="-105.2297889">
  <ele>1583.0</ele>
  <time>2026-08-28T17:55:44Z</time>
  <course>276.01</course>
  <speed>0.0</speed>
  <fix>3d</fix>
</trkpt>
<trkpt lat="40.0713749" lon="-105.2297889">
  <ele>1583.0</ele>
  <time>2026-08-28T17:55:44Z</time>
  <course>0.0</course>
  <speed>0.0</speed>
  <fix>3d</fix>
</trkpt>
<trkpt lat="40.0713749" lon="-105.2297889">
  <ele>1583.0</ele>
  <time>2026-08-28T17:55:44Z</time>
  <course>276.01</course>
  <speed>0.0</speed>
  <fix>3d</fix>
</trkpt>
<trkpt lat="40.0713749" lon="-105.2297889">
  <ele>1583.0</ele>
  <time>2026-08-28T17:55:44Z</time>
  <course>0.0</course>
  <speed>0.0</speed>
  <fix>3d</fix>
</trkpt>
<trkpt lat="40.0713749" lon="-105.2297889">
  <ele>1583.0</ele>
  <time>2026-08-28T17:55:44Z</time>
  <course>276.01</course>
  <speed>0.0</speed>
  <fix>3d</fix>
</trkpt>
<trkpt lat="40.0713749" lon="-105.2297889">
  <ele>1583.0</ele>
  <time>2026-08-28T17:55:44Z</time>
  <course>0.0</course>
  <speed>0.0</speed>
  <fix>3d</fix>
</trkpt>
<trkpt lat="40.0713749" lon="-105.2297889">
  <ele>1583.0</ele>
  <time>2026-08-28T17:55:44Z</time>
  <course>276.01</course>
  <speed>0.0</speed>
  <fix>3d</fix>
</trkpt>
<trkpt lat="40.0713749" lon="-105.2297889">
  <ele>1583.0</ele>
  <time>2026-08-28T17:55:44Z</time>
  <course>0.0</course>
  <speed>0.0</speed>
  <fix>3d</fix>
</trkpt>
<trkpt lat="40.0713749" lon="-105.2297889">
  <ele>1583.0</ele>
  <time>2026-08-28T17:55:44Z</time>
  <course>276.01</course>
  <speed>0.0</speed>
  <fix>3d</fix>
</trkpt>
<trkpt lat="40.0713749" lon="-105.2297889">
  <ele>1583.0</ele>
  <time>2026-08-28T17:55:44Z</time>
  <course>0.0</course>
  <speed>0.0</speed>
  <fix>3d</fix>
</trkpt>
<trkpt lat="40.0713749" lon="-105.2297889">
  <ele>1583.0</ele>
  <time>2026-08-28T17:55:44Z</time>
  <course>276.01</course>
  <speed>0.0</speed>
  <fix>3d</fix>
</trkpt>
<trkpt lat="40.0713749" lon="-105.2297889">
  <ele>1583.0</ele>
  <time>2026-08-28T17:55:44Z</time>
  <course>0.0</course>
  <speed>0.0</speed>
  <fix>3d</fix>
</trkpt>
<trkpt lat="40.0713749" lon="-105.2297889">
  <ele>1583.0</ele>
  <time>2026-08-28T17:55:44Z</time>
  <course>276.01</course>
  <speed>0.0</speed>
  <fix>3d</fix>
</trkpt>
<trkpt lat="40.0713749" lon="-105.2297889">
  <ele>1583.0</ele>
  <time>2026-08-28T17:55:44Z</time>
  <course>0.0</course>
  <speed>0.0</speed>
  <fix>3d</fix>
</trkpt>
<trkpt lat="40.0713749" lon="-105.2297889">
  <ele>1583.0</ele>
  <time>2026-08-28T17:55:44Z</time>
  <course>276.01</course>
  <speed>0.0</speed>
  <fix>3d</fix>
</trkpt>
<trkpt lat="40.0713749" lon="-105.2297889">
  <ele>1583.0</ele>
  <time>2026-08-28T17:55:44Z</time>
  <course>0.0</course>
  <speed>0.0</speed>
  <fix>3d</fix>
</trkpt>
<trkpt lat="40.0713749" lon="-105.2297889">
  <ele>1583.0</ele>
  <time>2026-08-28T17:55:44Z</time>
  <course>276.01</course>
  <speed>0.0</speed>
  <fix>3d</fix>
</trkpt>
<trkpt lat="40.0713749" lon="-105.2297889">
  <ele>1583.0</ele>
  <time>2026-08-28T17:55:44Z</time>
  <course>0.0</course>
  <speed>0.0</speed>
  <fix>3d</fix>
</trkpt>
<trkpt lat="40.0713749" lon="-105.2297889">
  <ele>1583.0</ele>
  <time>2026-08-28T17:55:45Z</time>
  <course>276.01</course>
  <speed>0.0</speed>
  <fix>3d</fix>
</trkpt>
<trkpt lat="40.0713749" lon="-105.2297889">
  <ele>1583.0</ele>
  <time>2026-08-28T17:55:45Z</time>
  <course>0.0</course>
  <speed>0.0</speed>
  <fix>3d</fix>
</trkpt>
<trkpt lat="40.0713749" lon="-105.2297889">
  <ele>1583.0</ele>
  <time>2026-08-28T17:55:45Z</time>
  <course>276.01</course>
  <speed>0.0</speed>
  <fix>3d</fix>
</trkpt>
<trkpt lat="40.0713749" lon="-105.2297889">
  <ele>1583.0</ele>
  <time>2026-08-28T17:55:45Z</time>
  <course>0.0</course>
  <speed>0.0</speed>
  <fix>3d</fix>
</trkpt>
<trkpt lat="40.0713749" lon="-105.2297889">
  <ele>1583.0</ele>
  <time>2026-08-28T17:55:45Z</time>
  <course>276.01</course>
  <speed>0.0</speed>
  <fix>3d</fix>
</trkpt>
<trkpt lat="40.0713749" lon="-105.2297889">
  <ele>1583.0</ele>
  <time>2026-08-28T17:55:45Z</time>
  <course>0.0</course>
  <speed>0.0</speed>
  <fix>3d</fix>
</trkpt>
<trkpt lat="40.0713749" lon="-105.2297889">
  <ele>1583.0</ele>
  <time>2026-08-28T17:55:45Z</time>
  <course>276.01</course>
  <speed>0.0</speed>
  <fix>3d</fix>
</trkpt>
<trkpt lat="40.0713749" lon="-105.2297889">
  <ele>1583.0</ele>
  <time>2026-08-28T17:55:45Z</time>
  <course>0.0</course>
  <speed>0.0</speed>
  <fix>3d</fix>
</trkpt>
<trkpt lat="40.0713749" lon="-105.2297889">
  <ele>1583.0</ele>
  <time>2026-08-28T17:55:45Z</time>
  <course>276.01</course>
  <speed>0.0</speed>
  <fix>3d</fix>
</trkpt>
<trkpt lat="40.0713749" lon="-105.2297889">
  <ele>1583.0</ele>
  <time>2026-08-28T17:55:45Z</time>
  <course>0.0</course>
  <speed>0.0</speed>
  <fix>3d</fix>
</trkpt>
<trkpt lat="40.0713749" lon="-105.2297889">
  <ele>1583.0</ele>
  <time>2026-08-28T17:55:45Z</time>
  <course>276.01</course>
  <speed>0.0</speed>
  <fix>3d</fix>
</trkpt>
<trkpt lat="40.0713749" lon="-105.2297889">
  <ele>1583.0</ele>
  <time>2026-08-28T17:55:45Z</time>
  <course>0.0</course>
  <speed>0.0</speed>
  <fix>3d</fix>
</trkpt>
<trkpt lat="40.0713749" lon="-105.2297889">
  <ele>1583.0</ele>
  <time>2026-08-28T17:55:45Z</time>
  <course>276.01</course>
  <speed>0.0</speed>
  <fix>3d</fix>
</trkpt>
<trkpt lat="40.0713749" lon="-105.2297889">
  <ele>1583.0</ele>
  <time>2026-08-28T17:55:45Z</time>
  <course>0.0</course>
  <speed>0.0</speed>
  <fix>3d</fix>
</trkpt>
<trkpt lat="40.0713749" lon="-105.2297889">
  <ele>1583.0</ele>
  <time>2026-08-28T17:55:45Z</time>
  <course>276.01</course>
  <speed>0.0</speed>
  <fix>3d</fix>
</trkpt>
<trkpt lat="40.0713749" lon="-105.2297889">
  <ele>1583.0</ele>
  <time>2026-08-28T17:55:45Z</time>
  <course>0.0</course>
  <speed>0.0</speed>
  <fix>3d</fix>
</trkpt>
<trkpt lat="40.0713749" lon="-105.2297889">
  <ele>1583.0</ele>
  <time>2026-08-28T17:55:45Z</time>
  <course>276.01</course>
  <speed>0.0</speed>
  <fix>3d</fix>
</trkpt>
<trkpt lat="40.0713749" lon="-105.2297889">
  <ele>1583.0</ele>
  <time>2026-08-28T17:55:45Z</time>
  <course>0.0</course>
  <speed>0.0</speed>
  <fix>3d</fix>
</trkpt>
<trkpt lat="40.0713749" lon="-105.2297889">
  <ele>1583.0</ele>
  <time>2026-08-28T17:55:45Z</time>
  <course>276.01</course>
  <speed>0.0</speed>
  <fix>3d</fix>
</trkpt>
<trkpt lat="40.0713749" lon="-105.2297889">
  <ele>1583.0</ele>
  <time>2026-08-28T17:55:45Z</time>
  <course>0.0</course>
  <speed>0.0</speed>
  <fix>3d</fix>
</trkpt>
<trkpt lat="40.0713749" lon="-105.2297889">
  <ele>1583.0</ele>
  <time>2026-08-28T17:55:45Z</time>
  <course>276.01</course>
  <speed>0.0</speed>
  <fix>3d</fix>
</trkpt>
<trkpt lat="40.0713749" lon="-105.2297889">
  <ele>1583.0</ele>
  <time>2026-08-28T17:55:45Z</time>
  <course>0.0</course>
  <speed>0.0</speed>
  <fix>3d</fix>
</trkpt>
<trkpt lat="40.0713749" lon="-105.2297889">
  <ele>1583.0</ele>
  <time>2026-08-28T17:55:45Z</time>
  <course>276.01</course>
  <speed>0.0</speed>
  <fix>3d</fix>
</trkpt>
<trkpt lat="40.0713749" lon="-105.2297889">
  <ele>1583.0</ele>
  <time>2026-08-28T17:55:45Z</time>
  <course>0.0</course>
  <speed>0.0</speed>
  <fix>3d</fix>
</trkpt>
<trkpt lat="40.0713749" lon="-105.2297889">
  <ele>1583.0</ele>
  <time>2026-08-28T17:55:45Z</time>
  <course>276.01</course>
  <speed>0.0</speed>
  <fix>3d</fix>
</trkpt>
<trkpt lat="40.0713749" lon="-105.2297889">
  <ele>1583.0</ele>
  <time>2026-08-28T17:55:45Z</time>
  <course>0.0</course>
  <speed>0.0</speed>
  <fix>3d</fix>
</trkpt>
<trkpt lat="40.0713749" lon="-105.2297889">
  <ele>1583.0</ele>
  <time>2026-08-28T17:55:45Z</time>
  <course>276.01</course>
  <speed>0.0</speed>
  <fix>3d</fix>
</trkpt>
<trkpt lat="40.0713749" lon="-105.2297889">
  <ele>1583.0</ele>
  <time>2026-08-28T17:55:45Z</time>
  <course>0.0</course>
  <speed>0.0</speed>
  <fix>3d</fix>
</trkpt>
<trkpt lat="40.0713749" lon="-105.2297889">
  <ele>1583.0</ele>
  <time>2026-08-28T17:55:45Z</time>
  <course>276.01</course>
  <speed>0.0</speed>
  <fix>3d</fix>
</trkpt>
<trkpt lat="40.0713749" lon="-105.2297889">
  <ele>1583.0</ele>
  <time>2026-08-28T17:55:45Z</time>
  <course>0.0</course>
  <speed>0.0</speed>
  <fix>3d</fix>
</trkpt>
<trkpt lat="40.0713749" lon="-105.2297889">
  <ele>1583.0</ele>
  <time>2026-08-28T17:55:45Z</time>
  <course>276.01</course>
  <speed>0.0</speed>
  <fix>3d</fix>
</trkpt>
<trkpt lat="40.0713749" lon="-105.2297889">
  <ele>1583.0</ele>
  <time>2026-08-28T17:55:45Z</time>
  <course>0.0</course>
  <speed>0.0</speed>
  <fix>3d</fix>
</trkpt>
<trkpt lat="40.0713749" lon="-105.2297889">
  <ele>1583.0</ele>
  <time>2026-08-28T17:55:45Z</time>
  <course>276.01</course>
  <speed>0.0</speed>
  <fix>3d</fix>
</trkpt>
<trkpt lat="40.0713749" lon="-105.2297889">
  <ele>1583.0</ele>
  <time>2026-08-28T17:55:45Z</time>
  <course>0.0</course>
  <speed>0.0</speed>
  <fix>3d</fix>
</trkpt>
<trkpt lat="40.0713749" lon="-105.2297889">
  <ele>1583.0</ele>
  <time>2026-08-28T17:55:45Z</time>
  <course>276.01</course>
  <speed>0.0</speed>
  <fix>3d</fix>
</trkpt>
<trkpt lat="40.0713749" lon="-105.2297889">
  <ele>1583.0</ele>
  <time>2026-08-28T17:55:45Z</time>
  <course>0.0</course>
  <speed>0.0</speed>
  <fix>3d</fix>
</trkpt>
<trkpt lat="40.0713749" lon="-105.2297889">
  <ele>1583.0</ele>
  <time>2026-08-28T17:55:45Z</time>
  <course>276.01</course>
  <speed>0.0</speed>
  <fix>3d</fix>
</trkpt>
<trkpt lat="40.0713749" lon="-105.2297889">
  <ele>1583.0</ele>
  <time>2026-08-28T17:55:45Z</time>
  <course>0.0</course>
  <speed>0.0</speed>
  <fix>3d</fix>
</trkpt>
<trkpt lat="40.0713749" lon="-105.2297889">
  <ele>1583.0</ele>
  <time>2026-08-28T17:55:45Z</time>
  <course>276.01</course>
  <speed>0.0</speed>
  <fix>3d</fix>
</trkpt>
<trkpt lat="40.0713749" lon="-105.2297889">
  <ele>1583.0</ele>
  <time>2026-08-28T17:55:45Z</time>
  <course>0.0</course>
  <speed>0.0</speed>
  <fix>3d</fix>
</trkpt>
<trkpt lat="40.0713749" lon="-105.2297889">
  <ele>1583.0</ele>
  <time>2026-08-28T17:55:45Z</time>
  <course>276.01</course>
  <speed>0.0</speed>
  <fix>3d</fix>
</trkpt>
<trkpt lat="40.0713749" lon="-105.2297889">
  <ele>1583.0</ele>
  <time>2026-08-28T17:55:45Z</time>
  <course>0.0</course>
  <speed>0.0</speed>
  <fix>3d</fix>
</trkpt>
<trkpt lat="40.0713749" lon="-105.2297889">
  <ele>1583.0</ele>
  <time>2026-08-28T17:55:45Z</time>
  <course>276.01</course>
  <speed>0.0</speed>
  <fix>3d</fix>
</trkpt>
<trkpt lat="40.0713749" lon="-105.2297889">
  <ele>1583.0</ele>
  <time>2026-08-28T17:55:45Z</time>
  <course>0.0</course>
  <speed>0.0</speed>
  <fix>3d</fix>
</trkpt>
<trkpt lat="40.0713749" lon="-105.2297889">
  <ele>1583.0</ele>
  <time>2026-08-28T17:55:45Z</time>
  <course>276.01</course>
  <speed>0.0</speed>
  <fix>3d</fix>
</trkpt>
<trkpt lat="40.0713749" lon="-105.2297889">
  <ele>1583.0</ele>
  <time>2026-08-28T17:55:45Z</time>
  <course>0.0</course>
  <speed>0.0</speed>
  <fix>3d</fix>
</trkpt>
<trkpt lat="40.0713749" lon="-105.2297889">
  <ele>1583.0</ele>
  <time>2026-08-28T17:55:45Z</time>
  <course>276.01</course>
  <speed>0.0</speed>
  <fix>3d</fix>
</trkpt>
<trkpt lat="40.0713749" lon="-105.2297889">
  <ele>1583.0</ele>
  <time>2026-08-28T17:55:45Z</time>
  <course>0.0</course>
  <speed>0.0</speed>
  <fix>3d</fix>
</trkpt>
<trkpt lat="40.0713749" lon="-105.2297889">
  <ele>1583.0</ele>
  <time>2026-08-28T17:55:45Z</time>
  <course>276.01</course>
  <speed>0.0</speed>
  <fix>3d</fix>
</trkpt>
<trkpt lat="40.0713749" lon="-105.2297889">
  <ele>1583.0</ele>
  <time>2026-08-28T17:55:45Z</time>
  <course>0.0</course>
  <speed>0.0</speed>
  <fix>3d</fix>
</trkpt>
<trkpt lat="40.0713749" lon="-105.2297889">
  <ele>1583.0</ele>
  <time>2026-08-28T17:55:45Z</time>
  <course>276.01</course>
  <speed>0.0</speed>
  <fix>3d</fix>
</trkpt>
<trkpt lat="40.0713749" lon="-105.2297889">
  <ele>1583.0</ele>
  <time>2026-08-28T17:55:45Z</time>
  <course>0.0</course>
  <speed>0.0</speed>
  <fix>3d</fix>
</trkpt>
<trkpt lat="40.0713749" lon="-105.2297889">
  <ele>1583.0</ele>
  <time>2026-08-28T17:55:45Z</time>
  <course>276.01</course>
  <speed>0.0</speed>
  <fix>3d</fix>
</trkpt>
<trkpt lat="40.0713749" lon="-105.2297889">
  <ele>1583.0</ele>
  <time>2026-08-28T17:55:45Z</time>
  <course>0.0</course>
  <speed>0.0</speed>
  <fix>3d</fix>
</trkpt>
<trkpt lat="40.0713749" lon="-105.2297889">
  <ele>1583.0</ele>
  <time>2026-08-28T17:55:45Z</time>
  <course>276.01</course>
  <speed>0.0</speed>
  <fix>3d</fix>
</trkpt>
<trkpt lat="40.0713749" lon="-105.2297889">
  <ele>1583.0</ele>
  <time>2026-08-28T17:55:45Z</time>
  <course>0.0</course>
  <speed>0.0</speed>
  <fix>3d</fix>
</trkpt>
<trkpt lat="40.0713749" lon="-105.2297889">
  <ele>1583.0</ele>
  <time>2026-08-28T17:55:45Z</time>
  <course>276.01</course>
  <speed>0.0</speed>
  <fix>3d</fix>
</trkpt>
<trkpt lat="40.0713749" lon="-105.2297889">
  <ele>1583.0</ele>
  <time>2026-08-28T17:55:45Z</time>
  <course>0.0</course>
  <speed>0.0</speed>
  <fix>3d</fix>
</trkpt>
<trkpt lat="40.0713749" lon="-105.2297889">
  <ele>1583.0</ele>
  <time>2026-08-28T17:55:45Z</time>
  <course>276.01</course>
  <speed>0.0</speed>
  <fix>3d</fix>
</trkpt>
<trkpt lat="40.0713749" lon="-105.2297889">
  <ele>1583.0</ele>
  <time>2026-08-28T17:55:45Z</time>
  <course>0.0</course>
  <speed>0.0</speed>
  <fix>3d</fix>
</trkpt>
<trkpt lat="40.0713749" lon="-105.2297889">
  <ele>1583.0</ele>
  <time>2026-08-28T17:55:45Z</time>
  <course>276.01</course>
  <speed>0.0</speed>
  <fix>3d</fix>
</trkpt>
<trkpt lat="40.0713749" lon="-105.2297889">
  <ele>1583.0</ele>
  <time>2026-08-28T17:55:45Z</time>
  <course>0.0</course>
  <speed>0.0</speed>
  <fix>3d</fix>
</trkpt>
<trkpt lat="40.0713749" lon="-105.2297889">
  <ele>1583.0</ele>
  <time>2026-08-28T17:55:45Z</time>
  <course>276.01</course>
  <speed>0.0</speed>
  <fix>3d</fix>
</trkpt>
<trkpt lat="40.0713749" lon="-105.2297889">
  <ele>1583.0</ele>
  <time>2026-08-28T17:55:45Z</time>
  <course>0.0</course>
  <speed>0.0</speed>
  <fix>3d</fix>
</trkpt>
<trkpt lat="40.0713749" lon="-105.2297889">
  <ele>1583.0</ele>
  <time>2026-08-28T17:55:45Z</time>
  <course>276.01</course>
  <speed>0.0</speed>
  <fix>3d</fix>
</trkpt>
<trkpt lat="40.0713749" lon="-105.2297889">
  <ele>1583.0</ele>
  <time>2026-08-28T17:55:45Z</time>
  <course>0.0</course>
  <speed>0.0</speed>
  <fix>3d</fix>
</trkpt>
<trkpt lat="40.0713749" lon="-105.2297889">
  <ele>1583.0</ele>
  <time>2026-08-28T17:55:45Z</time>
  <course>276.01</course>
  <speed>0.0</speed>
  <fix>3d</fix>
</trkpt>
<trkpt lat="40.0713749" lon="-105.2297889">
  <ele>1583.0</ele>
  <time>2026-08-28T17:55:45Z</time>
  <course>0.0</course>
  <speed>0.0</speed>
  <fix>3d</fix>
</trkpt>
<trkpt lat="40.0713749" lon="-105.2297889">
  <ele>1583.0</ele>
  <time>2026-08-28T17:55:45Z</time>
  <course>276.01</course>
  <speed>0.0</speed>
  <fix>3d</fix>
</trkpt>
<trkpt lat="40.0713749" lon="-105.2297889">
  <ele>1583.0</ele>
  <time>2026-08-28T17:55:45Z</time>
  <course>0.0</course>
  <speed>0.0</speed>
  <fix>3d</fix>
</trkpt>
<trkpt lat="40.0713749" lon="-105.2297889">
  <ele>1583.0</ele>
  <time>2026-08-28T17:55:45Z</time>
  <course>276.01</course>
  <speed>0.0</speed>
  <fix>3d</fix>
</trkpt>
<trkpt lat="40.0713749" lon="-105.2297889">
  <ele>1583.0</ele>
  <time>2026-08-28T17:55:45Z</time>
  <course>0.0</course>
  <speed>0.0</speed>
  <fix>3d</fix>
</trkpt>
<trkpt lat="40.0713749" lon="-105.2297889">
  <ele>1583.0</ele>
  <time>2026-08-28T17:55:45Z</time>
  <course>276.01</course>
  <speed>0.0</speed>
  <fix>3d</fix>
</trkpt>
<trkpt lat="40.0713749" lon="-105.2297889">
  <ele>1583.0</ele>
  <time>2026-08-28T17:55:45Z</time>
  <course>0.0</course>
  <speed>0.0</speed>
  <fix>3d</fix>
</trkpt>
<trkpt lat="40.0713749" lon="-105.2297889">
  <ele>1583.0</ele>
  <time>2026-08-28T17:55:45Z</time>
  <course>276.01</course>
  <speed>0.0</speed>
  <fix>3d</fix>
</trkpt>
<trkpt lat="40.0713749" lon="-105.2297889">
  <ele>1583.0</ele>
  <time>2026-08-28T17:55:45Z</time>
  <course>0.0</course>
  <speed>0.0</speed>
  <fix>3d</fix>
</trkpt>
<trkpt lat="40.0713749" lon="-105.2297889">
  <ele>1583.0</ele>
  <time>2026-08-28T17:55:45Z</time>
  <course>276.01</course>
  <speed>0.0</speed>
  <fix>3d</fix>
</trkpt>
<trkpt lat="40.0713749" lon="-105.2297889">
  <ele>1583.0</ele>
  <time>2026-08-28T17:55:45Z</time>
  <course>0.0</course>
  <speed>0.0</speed>
  <fix>3d</fix>
</trkpt>
<trkpt lat="40.0713749" lon="-105.2297889">
  <ele>1583.0</ele>
  <time>2026-08-28T17:55:45Z</time>
  <course>276.01</course>
  <speed>0.0</speed>
  <fix>3d</fix>
</trkpt>
<trkpt lat="40.0713749" lon="-105.2297889">
  <ele>1583.0</ele>
  <time>2026-08-28T17:55:45Z</time>
  <course>0.0</course>
  <speed>0.0</speed>
  <fix>3d</fix>
</trkpt>
<trkpt lat="40.0713749" lon="-105.2297889">
  <ele>1583.0</ele>
  <time>2026-08-28T17:55:45Z</time>
  <course>276.01</course>
  <speed>0.0</speed>
  <fix>3d</fix>
</trkpt>
<trkpt lat="40.0713749" lon="-105.2297889">
  <ele>1583.0</ele>
  <time>2026-08-28T17:55:45Z</time>
  <course>0.0</course>
  <speed>0.0</speed>
  <fix>3d</fix>
</trkpt>
<trkpt lat="40.0713749" lon="-105.2297889">
  <ele>1583.0</ele>
  <time>2026-08-28T17:55:45Z</time>
  <course>276.01</course>
  <speed>0.0</speed>
  <fix>3d</fix>
</trkpt>
<trkpt lat="40.0713749" lon="-105.2297889">
  <ele>1583.0</ele>
  <time>2026-08-28T17:55:45Z</time>
  <course>0.0</course>
  <speed>0.0</speed>
  <fix>3d</fix>
</trkpt>
<trkpt lat="40.0713749" lon="-105.2297889">
  <ele>1583.0</ele>
  <time>2026-08-28T17:55:45Z</time>
  <course>276.01</course>
  <speed>0.0</speed>
  <fix>3d</fix>
</trkpt>
<trkpt lat="40.0713749" lon="-105.2297889">
  <ele>1583.0</ele>
  <time>2026-08-28T17:55:45Z</time>
  <course>0.0</course>
  <speed>0.0</speed>
  <fix>3d</fix>
</trkpt>
<trkpt lat="40.0713749" lon="-105.2297889">
  <ele>1583.0</ele>
  <time>2026-08-28T17:55:45Z</time>
  <course>276.01</course>
  <speed>0.0</speed>
  <fix>3d</fix>
</trkpt>
<trkpt lat="40.0713749" lon="-105.2297889">
  <ele>1583.0</ele>
  <time>2026-08-28T17:55:45Z</time>
  <course>0.0</course>
  <speed>0.0</speed>
  <fix>3d</fix>
</trkpt>
<trkpt lat="40.0713749" lon="-105.2297889">
  <ele>1583.0</ele>
  <time>2026-08-28T17:55:45Z</time>
  <course>276.01</course>
  <speed>0.0</speed>
  <fix>3d</fix>
</trkpt>
<trkpt lat="40.0713749" lon="-105.2297889">
  <ele>1583.0</ele>
  <time>2026-08-28T17:55:45Z</time>
  <course>0.0</course>
  <speed>0.0</speed>
  <fix>3d</fix>
</trkpt>
<trkpt lat="40.0713749" lon="-105.2297889">
  <ele>1583.0</ele>
  <time>2026-08-28T17:55:45Z</time>
  <course>276.01</course>
  <speed>0.0</speed>
  <fix>3d</fix>
</trkpt>
<trkpt lat="40.0713749" lon="-105.2297889">
  <ele>1583.0</ele>
  <time>2026-08-28T17:55:45Z</time>
  <course>0.0</course>
  <speed>0.0</speed>
  <fix>3d</fix>
</trkpt>
<trkpt lat="40.0713749" lon="-105.2297889">
  <ele>1583.0</ele>
  <time>2026-08-28T17:55:45Z</time>
  <course>276.01</course>
  <speed>0.0</speed>
  <fix>3d</fix>
</trkpt>
<trkpt lat="40.0713749" lon="-105.2297889">
  <ele>1583.0</ele>
  <time>2026-08-28T17:55:45Z</time>
  <course>0.0</course>
  <speed>0.0</speed>
  <fix>3d</fix>
</trkpt>
<trkpt lat="40.0713749" lon="-105.2297889">
  <ele>1583.0</ele>
  <time>2026-08-28T17:55:45Z</time>
  <course>276.01</course>
  <speed>0.0</speed>
  <fix>3d</fix>
</trkpt>
<trkpt lat="40.0713749" lon="-105.2297889">
  <ele>1583.0</ele>
  <time>2026-08-28T17:55:45Z</time>
  <course>0.0</course>
  <speed>0.0</speed>
  <fix>3d</fix>
</trkpt>
<trkpt lat="40.0713749" lon="-105.2297889">
  <ele>1583.0</ele>
  <time>2026-08-28T17:55:45Z</time>
  <course>276.01</course>
  <speed>0.0</speed>
  <fix>3d</fix>
</trkpt>
<trkpt lat="40.0713749" lon="-105.2297889">
  <ele>1583.0</ele>
  <time>2026-08-28T17:55:45Z</time>
  <course>0.0</course>
  <speed>0.0</speed>
  <fix>3d</fix>
</trkpt>
<trkpt lat="40.0713749" lon="-105.2297889">
  <ele>1583.0</ele>
  <time>2026-08-28T17:55:45Z</time>
  <course>276.01</course>
  <speed>0.0</speed>
  <fix>3d</fix>
</trkpt>
<trkpt lat="40.0713749" lon="-105.2297889">
  <ele>1583.0</ele>
  <time>2026-08-28T17:55:45Z</time>
  <course>0.0</course>
  <speed>0.0</speed>
  <fix>3d</fix>
</trkpt>
<trkpt lat="40.0713749" lon="-105.2297889">
  <ele>1583.0</ele>
  <time>2026-08-28T17:55:45Z</time>
  <course>276.01</course>
  <speed>0.0</speed>
  <fix>3d</fix>
</trkpt>
<trkpt lat="40.0713749" lon="-105.2297889">
  <ele>1583.0</ele>
  <time>2026-08-28T17:55:45Z</time>
  <course>0.0</course>
  <speed>0.0</speed>
  <fix>3d</fix>
</trkpt>
<trkpt lat="40.0713749" lon="-105.2297889">
  <ele>1583.0</ele>
  <time>2026-08-28T17:55:45Z</time>
  <course>276.01</course>
  <speed>0.0</speed>
  <fix>3d</fix>
</trkpt>
<trkpt lat="40.0713749" lon="-105.2297889">
  <ele>1583.0</ele>
  <time>2026-08-28T17:55:45Z</time>
  <course>0.0</course>
  <speed>0.0</speed>
  <fix>3d</fix>
</trkpt>
<trkpt lat="40.0713749" lon="-105.2297889">
  <ele>1583.0</ele>
  <time>2026-08-28T17:55:45Z</time>
  <course>276.01</course>
  <speed>0.0</speed>
  <fix>3d</fix>
</trkpt>
<trkpt lat="40.0713749" lon="-105.2297889">
  <ele>1583.0</ele>
  <time>2026-08-28T17:55:45Z</time>
  <course>0.0</course>
  <speed>0.0</speed>
  <fix>3d</fix>
</trkpt>
<trkpt lat="40.0713749" lon="-105.2297889">
  <ele>1583.0</ele>
  <time>2026-08-28T17:55:45Z</time>
  <course>276.01</course>
  <speed>0.0</speed>
  <fix>3d</fix>
</trkpt>
<trkpt lat="40.0713749" lon="-105.2297889">
  <ele>1583.0</ele>
  <time>2026-08-28T17:55:45Z</time>
  <course>0.0</course>
  <speed>0.0</speed>
  <fix>3d</fix>
</trkpt>
<trkpt lat="40.0713749" lon="-105.2297889">
  <ele>1583.0</ele>
  <time>2026-08-28T17:55:45Z</time>
  <course>276.01</course>
  <speed>0.0</speed>
  <fix>3d</fix>
</trkpt>
<trkpt lat="40.0713749" lon="-105.2297889">
  <ele>1583.0</ele>
  <time>2026-08-28T17:55:45Z</time>
  <course>0.0</course>
  <speed>0.0</speed>
  <fix>3d</fix>
</trkpt>
<trkpt lat="40.0713749" lon="-105.2297889">
  <ele>1583.0</ele>
  <time>2026-08-28T17:55:45Z</time>
  <course>276.01</course>
  <speed>0.0</speed>
  <fix>3d</fix>
</trkpt>
<trkpt lat="40.0713749" lon="-105.2297889">
  <ele>1583.0</ele>
  <time>2026-08-28T17:55:45Z</time>
  <course>0.0</course>
  <speed>0.0</speed>
  <fix>3d</fix>
</trkpt>
<trkpt lat="40.0713749" lon="-105.2297889">
  <ele>1583.0</ele>
  <time>2026-08-28T17:55:45Z</time>
  <course>276.01</course>
  <speed>0.0</speed>
  <fix>3d</fix>
</trkpt>
<trkpt lat="40.0713749" lon="-105.2297889">
  <ele>1583.0</ele>
  <time>2026-08-28T17:55:45Z</time>
  <course>0.0</course>
  <speed>0.0</speed>
  <fix>3d</fix>
</trkpt>
<trkpt lat="40.0713749" lon="-105.2297889">
  <ele>1583.0</ele>
  <time>2026-08-28T17:55:45Z</time>
  <course>276.01</course>
  <speed>0.0</speed>
  <fix>3d</fix>
</trkpt>
<trkpt lat="40.0713749" lon="-105.2297889">
  <ele>1583.0</ele>
  <time>2026-08-28T17:55:45Z</time>
  <course>0.0</course>
  <speed>0.0</speed>
  <fix>3d</fix>
</trkpt>
<trkpt lat="40.0713749" lon="-105.2297889">
  <ele>1583.0</ele>
  <time>2026-08-28T17:55:45Z</time>
  <course>276.01</course>
  <speed>0.0</speed>
  <fix>3d</fix>
</trkpt>
<trkpt lat="40.0713749" lon="-105.2297889">
  <ele>1583.0</ele>
  <time>2026-08-28T17:55:45Z</time>
  <course>0.0</course>
  <speed>0.0</speed>
  <fix>3d</fix>
</trkpt>
<trkpt lat="40.0713749" lon="-105.2297889">
  <ele>1583.0</ele>
  <time>2026-08-28T17:55:45Z</time>
  <course>276.01</course>
  <speed>0.0</speed>
  <fix>3d</fix>
</trkpt>
<trkpt lat="40.0713749" lon="-105.2297889">
  <ele>1583.0</ele>
  <time>2026-08-28T17:55:45Z</time>
  <course>0.0</course>
  <speed>0.0</speed>
  <fix>3d</fix>
</trkpt>
<trkpt lat="40.0713749" lon="-105.2297889">
  <ele>1583.0</ele>
  <time>2026-08-28T17:55:45Z</time>
  <course>276.01</course>
  <speed>0.0</speed>
  <fix>3d</fix>
</trkpt>
<trkpt lat="40.0713749" lon="-105.2297889">
  <ele>1583.0</ele>
  <time>2026-08-28T17:55:45Z</time>
  <course>0.0</course>
  <speed>0.0</speed>
  <fix>3d</fix>
</trkpt>
<trkpt lat="40.0713749" lon="-105.2297889">
  <ele>1583.0</ele>
  <time>2026-08-28T17:55:45Z</time>
  <course>276.01</course>
  <speed>0.0</speed>
  <fix>3d</fix>
</trkpt>
<trkpt lat="40.0713749" lon="-105.2297889">
  <ele>1583.0</ele>
  <time>2026-08-28T17:55:45Z</time>
  <course>0.0</course>
  <speed>0.0</speed>
  <fix>3d</fix>
</trkpt>
<trkpt lat="40.0713749" lon="-105.2297889">
  <ele>1583.0</ele>
  <time>2026-08-28T17:55:45Z</time>
  <course>276.01</course>
  <speed>0.0</speed>
  <fix>3d</fix>
</trkpt>
<trkpt lat="40.0713749" lon="-105.2297889">
  <ele>1583.0</ele>
  <time>2026-08-28T17:55:45Z</time>
  <course>0.0</course>
  <speed>0.0</speed>
  <fix>3d</fix>
</trkpt>
<trkpt lat="40.0713749" lon="-105.2297889">
  <ele>1583.0</ele>
  <time>2026-08-28T17:55:45Z</time>
  <course>276.01</course>
  <speed>0.0</speed>
  <fix>3d</fix>
</trkpt>
<trkpt lat="40.0713749" lon="-105.2297889">
  <ele>1583.0</ele>
  <time>2026-08-28T17:55:45Z</time>
  <course>0.0</course>
  <speed>0.0</speed>
  <fix>3d</fix>
</trkpt>
<trkpt lat="40.0713749" lon="-105.2297889">
  <ele>1583.0</ele>
  <time>2026-08-28T17:55:45Z</time>
  <course>276.01</course>
  <speed>0.0</speed>
  <fix>3d</fix>
</trkpt>
<trkpt lat="40.0713749" lon="-105.2297889">
  <ele>1583.0</ele>
  <time>2026-08-28T17:55:45Z</time>
  <course>0.0</course>
  <speed>0.0</speed>
  <fix>3d</fix>
</trkpt>
<trkpt lat="40.0713749" lon="-105.2297889">
  <ele>1583.0</ele>
  <time>2026-08-28T17:55:45Z</time>
  <course>276.01</course>
  <speed>0.0</speed>
  <fix>3d</fix>
</trkpt>
<trkpt lat="40.0713749" lon="-105.2297889">
  <ele>1583.0</ele>
  <time>2026-08-28T17:55:45Z</time>
  <course>0.0</course>
  <speed>0.0</speed>
  <fix>3d</fix>
</trkpt>
<trkpt lat="40.0713749" lon="-105.2297889">
  <ele>1583.0</ele>
  <time>2026-08-28T17:55:45Z</time>
  <course>276.01</course>
  <speed>0.0</speed>
  <fix>3d</fix>
</trkpt>
<trkpt lat="40.0713749" lon="-105.2297889">
  <ele>1583.0</ele>
  <time>2026-08-28T17:55:45Z</time>
  <course>0.0</course>
  <speed>0.0</speed>
  <fix>3d</fix>
</trkpt>
<trkpt lat="40.0713749" lon="-105.2297889">
  <ele>1583.0</ele>
  <time>2026-08-28T17:55:45Z</time>
  <course>276.01</course>
  <speed>0.0</speed>
  <fix>3d</fix>
</trkpt>
<trkpt lat="40.0713749" lon="-105.2297889">
  <ele>1583.0</ele>
  <time>2026-08-28T17:55:45Z</time>
  <course>0.0</course>
  <speed>0.0</speed>
  <fix>3d</fix>
</trkpt>
<trkpt lat="40.0713749" lon="-105.2297889">
  <ele>1583.0</ele>
  <time>2026-08-28T17:55:45Z</time>
  <course>276.01</course>
  <speed>0.0</speed>
  <fix>3d</fix>
</trkpt>
<trkpt lat="40.0713749" lon="-105.2297889">
  <ele>1583.0</ele>
  <time>2026-08-28T17:55:45Z</time>
  <course>0.0</course>
  <speed>0.0</speed>
  <fix>3d</fix>
</trkpt>
<trkpt lat="40.0713749" lon="-105.2297889">
  <ele>1583.0</ele>
  <time>2026-08-28T17:55:45Z</time>
  <course>276.01</course>
  <speed>0.0</speed>
  <fix>3d</fix>
</trkpt>
<trkpt lat="40.0713749" lon="-105.2297889">
  <ele>1583.0</ele>
  <time>2026-08-28T17:55:45Z</time>
  <course>0.0</course>
  <speed>0.0</speed>
  <fix>3d</fix>
</trkpt>
<trkpt lat="40.0713749" lon="-105.2297889">
  <ele>1583.0</ele>
  <time>2026-08-28T17:55:45Z</time>
  <course>276.01</course>
  <speed>0.0</speed>
  <fix>3d</fix>
</trkpt>
<trkpt lat="40.0713749" lon="-105.2297889">
  <ele>1583.0</ele>
  <time>2026-08-28T17:55:45Z</time>
  <course>0.0</course>
  <speed>0.0</speed>
  <fix>3d</fix>
</trkpt>
<trkpt lat="40.0713749" lon="-105.2297889">
  <ele>1583.0</ele>
  <time>2026-08-28T17:55:45Z</time>
  <course>276.01</course>
  <speed>0.0</speed>
  <fix>3d</fix>
</trkpt>
<trkpt lat="40.0713749" lon="-105.2297889">
  <ele>1583.0</ele>
  <time>2026-08-28T17:55:45Z</time>
  <course>0.0</course>
  <speed>0.0</speed>
  <fix>3d</fix>
</trkpt>
<trkpt lat="40.0713749" lon="-105.2297889">
  <ele>1583.0</ele>
  <time>2026-08-28T17:55:45Z</time>
  <course>276.01</course>
  <speed>0.0</speed>
  <fix>3d</fix>
</trkpt>
<trkpt lat="40.0713749" lon="-105.2297889">
  <ele>1583.0</ele>
  <time>2026-08-28T17:55:45Z</time>
  <course>0.0</course>
  <speed>0.0</speed>
  <fix>3d</fix>
</trkpt>
<trkpt lat="40.0713749" lon="-105.2297889">
  <ele>1583.0</ele>
  <time>2026-08-28T17:55:45Z</time>
  <course>276.01</course>
  <speed>0.0</speed>
  <fix>3d</fix>
</trkpt>
<trkpt lat="40.0713749" lon="-105.2297889">
  <ele>1583.0</ele>
  <time>2026-08-28T17:55:45Z</time>
  <course>0.0</course>
  <speed>0.0</speed>
  <fix>3d</fix>
</trkpt>
<trkpt lat="40.0713749" lon="-105.2297889">
  <ele>1583.0</ele>
  <time>2026-08-28T17:55:45Z</time>
  <course>276.01</course>
  <speed>0.0</speed>
  <fix>3d</fix>
</trkpt>
<trkpt lat="40.0713749" lon="-105.2297889">
  <ele>1583.0</ele>
  <time>2026-08-28T17:55:45Z</time>
  <course>0.0</course>
  <speed>0.0</speed>
  <fix>3d</fix>
</trkpt>
<trkpt lat="40.0713749" lon="-105.2297889">
  <ele>1583.0</ele>
  <time>2026-08-28T17:55:45Z</time>
  <course>276.01</course>
  <speed>0.0</speed>
  <fix>3d</fix>
</trkpt>
<trkpt lat="40.0713749" lon="-105.2297889">
  <ele>1583.0</ele>
  <time>2026-08-28T17:55:45Z</time>
  <course>0.0</course>
  <speed>0.0</speed>
  <fix>3d</fix>
</trkpt>
<trkpt lat="40.0713749" lon="-105.2297889">
  <ele>1583.0</ele>
  <time>2026-08-28T17:55:45Z</time>
  <course>276.01</course>
  <speed>0.0</speed>
  <fix>3d</fix>
</trkpt>
<trkpt lat="40.0713749" lon="-105.2297889">
  <ele>1583.0</ele>
  <time>2026-08-28T17:55:45Z</time>
  <course>0.0</course>
  <speed>0.0</speed>
  <fix>3d</fix>
</trkpt>
<trkpt lat="40.0713749" lon="-105.2297889">
  <ele>1583.0</ele>
  <time>2026-08-28T17:55:45Z</time>
  <course>276.01</course>
  <speed>0.0</speed>
  <fix>3d</fix>
</trkpt>
<trkpt lat="40.0713749" lon="-105.2297889">
  <ele>1583.0</ele>
  <time>2026-08-28T17:55:45Z</time>
  <course>0.0</course>
  <speed>0.0</speed>
  <fix>3d</fix>
</trkpt>
<trkpt lat="40.0713749" lon="-105.2297889">
  <ele>1583.0</ele>
  <time>2026-08-28T17:55:45Z</time>
  <course>276.01</course>
  <speed>0.0</speed>
  <fix>3d</fix>
</trkpt>
<trkpt lat="40.0713749" lon="-105.2297889">
  <ele>1583.0</ele>
  <time>2026-08-28T17:55:45Z</time>
  <course>0.0</course>
  <speed>0.0</speed>
  <fix>3d</fix>
</trkpt>
<trkpt lat="40.0713749" lon="-105.2297889">
  <ele>1583.0</ele>
  <time>2026-08-28T17:55:45Z</time>
  <course>276.01</course>
  <speed>0.0</speed>
  <fix>3d</fix>
</trkpt>
<trkpt lat="40.0713749" lon="-105.2297889">
  <ele>1583.0</ele>
  <time>2026-08-28T17:55:45Z</time>
  <course>0.0</course>
  <speed>0.0</speed>
  <fix>3d</fix>
</trkpt>
<trkpt lat="40.0713749" lon="-105.2297889">
  <ele>1583.0</ele>
  <time>2026-08-28T17:55:45Z</time>
  <course>276.01</course>
  <speed>0.0</speed>
  <fix>3d</fix>
</trkpt>
<trkpt lat="40.0713749" lon="-105.2297889">
  <ele>1583.0</ele>
  <time>2026-08-28T17:55:45Z</time>
  <course>0.0</course>
  <speed>0.0</speed>
  <fix>3d</fix>
</trkpt>
<trkpt lat="40.0713749" lon="-105.2297889">
  <ele>1583.0</ele>
  <time>2026-08-28T17:55:45Z</time>
  <course>276.01</course>
  <speed>0.0</speed>
  <fix>3d</fix>
</trkpt>
<trkpt lat="40.0713749" lon="-105.2297889">
  <ele>1583.0</ele>
  <time>2026-08-28T17:55:45Z</time>
  <course>0.0</course>
  <speed>0.0</speed>
  <fix>3d</fix>
</trkpt>
<trkpt lat="40.0713749" lon="-105.2297889">
  <ele>1583.0</ele>
  <time>2026-08-28T17:55:45Z</time>
  <course>276.02</course>
  <speed>0.0</speed>
  <fix>3d</fix>
</trkpt>
<trkpt lat="40.0713749" lon="-105.2297889">
  <ele>1583.0</ele>
  <time>2026-08-28T17:55:45Z</time>
  <course>0.0</course>
  <speed>0.0</speed>
  <fix>3d</fix>
</trkpt>
<trkpt lat="40.0713749" lon="-105.2297889">
  <ele>1583.0</ele>
  <time>2026-08-28T17:55:45Z</time>
  <course>276.02</course>
  <speed>0.0</speed>
  <fix>3d</fix>
</trkpt>
<trkpt lat="40.0713749" lon="-105.2297889">
  <ele>1583.0</ele>
  <time>2026-08-28T17:55:45Z</time>
  <course>0.0</course>
  <speed>0.0</speed>
  <fix>3d</fix>
</trkpt>
<trkpt lat="40.0713749" lon="-105.2297889">
  <ele>1583.0</ele>
  <time>2026-08-28T17:55:45Z</time>
  <course>276.02</course>
  <speed>0.0</speed>
  <fix>3d</fix>
</trkpt>
<trkpt lat="40.0713749" lon="-105.2297889">
  <ele>1583.0</ele>
  <time>2026-08-28T17:55:45Z</time>
  <course>0.0</course>
  <speed>0.0</speed>
  <fix>3d</fix>
</trkpt>
<trkpt lat="40.0713749" lon="-105.2297889">
  <ele>1583.0</ele>
  <time>2026-08-28T17:55:45Z</time>
  <course>276.02</course>
  <speed>0.0</speed>
  <fix>3d</fix>
</trkpt>
<trkpt lat="40.0713749" lon="-105.2297889">
  <ele>1583.0</ele>
  <time>2026-08-28T17:55:45Z</time>
  <course>0.0</course>
  <speed>0.0</speed>
  <fix>3d</fix>
</trkpt>
<trkpt lat="40.0713749" lon="-105.2297889">
  <ele>1583.0</ele>
  <time>2026-08-28T17:55:45Z</time>
  <course>276.02</course>
  <speed>0.0</speed>
  <fix>3d</fix>
</trkpt>
<trkpt lat="40.0713749" lon="-105.2297889">
  <ele>1583.0</ele>
  <time>2026-08-28T17:55:45Z</time>
  <course>0.0</course>
  <speed>0.0</speed>
  <fix>3d</fix>
</trkpt>
<trkpt lat="40.0713749" lon="-105.2297889">
  <ele>1583.0</ele>
  <time>2026-08-28T17:55:45Z</time>
  <course>276.02</course>
  <speed>0.0</speed>
  <fix>3d</fix>
</trkpt>
<trkpt lat="40.0713749" lon="-105.2297889">
  <ele>1583.0</ele>
  <time>2026-08-28T17:55:45Z</time>
  <course>0.0</course>
  <speed>0.0</speed>
  <fix>3d</fix>
</trkpt>
<trkpt lat="40.0713749" lon="-105.2297889">
  <ele>1583.0</ele>
  <time>2026-08-28T17:55:45Z</time>
  <course>276.02</course>
  <speed>0.0</speed>
  <fix>3d</fix>
</trkpt>
<trkpt lat="40.0713749" lon="-105.2297889">
  <ele>1583.0</ele>
  <time>2026-08-28T17:55:45Z</time>
  <course>0.0</course>
  <speed>0.0</speed>
  <fix>3d</fix>
</trkpt>
<trkpt lat="40.0713749" lon="-105.2297889">
  <ele>1583.0</ele>
  <time>2026-08-28T17:55:45Z</time>
  <course>276.02</course>
  <speed>0.0</speed>
  <fix>3d</fix>
</trkpt>
<trkpt lat="40.0713749" lon="-105.2297889">
  <ele>1583.0</ele>
  <time>2026-08-28T17:55:45Z</time>
  <course>0.0</course>
  <speed>0.0</speed>
  <fix>3d</fix>
</trkpt>
<trkpt lat="40.0713749" lon="-105.2297889">
  <ele>1583.0</ele>
  <time>2026-08-28T17:55:45Z</time>
  <course>276.02</course>
  <speed>0.0</speed>
  <fix>3d</fix>
</trkpt>
<trkpt lat="40.0713749" lon="-105.2297889">
  <ele>1583.0</ele>
  <time>2026-08-28T17:55:45Z</time>
  <course>0.0</course>
  <speed>0.0</speed>
  <fix>3d</fix>
</trkpt>
<trkpt lat="40.0713749" lon="-105.2297889">
  <ele>1583.0</ele>
  <time>2026-08-28T17:55:45Z</time>
  <course>276.02</course>
  <speed>0.0</speed>
  <fix>3d</fix>
</trkpt>
<trkpt lat="40.0713749" lon="-105.2297889">
  <ele>1583.0</ele>
  <time>2026-08-28T17:55:45Z</time>
  <course>0.0</course>
  <speed>0.0</speed>
  <fix>3d</fix>
</trkpt>
<trkpt lat="40.0713749" lon="-105.2297889">
  <ele>1583.0</ele>
  <time>2026-08-28T17:55:45Z</time>
  <course>276.02</course>
  <speed>0.0</speed>
  <fix>3d</fix>
</trkpt>
<trkpt lat="40.0713749" lon="-105.2297889">
  <ele>1583.0</ele>
  <time>2026-08-28T17:55:45Z</time>
  <course>0.0</course>
  <speed>0.0</speed>
  <fix>3d</fix>
</trkpt>
<trkpt lat="40.0713749" lon="-105.2297889">
  <ele>1583.0</ele>
  <time>2026-08-28T17:55:45Z</time>
  <course>276.02</course>
  <speed>0.0</speed>
  <fix>3d</fix>
</trkpt>
<trkpt lat="40.0713749" lon="-105.2297889">
  <ele>1583.0</ele>
  <time>2026-08-28T17:55:45Z</time>
  <course>0.0</course>
  <speed>0.0</speed>
  <fix>3d</fix>
</trkpt>
<trkpt lat="40.0713749" lon="-105.2297889">
  <ele>1583.0</ele>
  <time>2026-08-28T17:55:45Z</time>
  <course>276.02</course>
  <speed>0.0</speed>
  <fix>3d</fix>
</trkpt>
<trkpt lat="40.0713749" lon="-105.2297889">
  <ele>1583.0</ele>
  <time>2026-08-28T17:55:45Z</time>
  <course>0.0</course>
  <speed>0.0</speed>
  <fix>3d</fix>
</trkpt>
<trkpt lat="40.0713749" lon="-105.2297889">
  <ele>1583.0</ele>
  <time>2026-08-28T17:55:45Z</time>
  <course>276.02</course>
  <speed>0.0</speed>
  <fix>3d</fix>
</trkpt>
<trkpt lat="40.0713749" lon="-105.2297889">
  <ele>1583.0</ele>
  <time>2026-08-28T17:55:45Z</time>
  <course>0.0</course>
  <speed>0.0</speed>
  <fix>3d</fix>
</trkpt>
<trkpt lat="40.0713749" lon="-105.2297889">
  <ele>1583.0</ele>
  <time>2026-08-28T17:55:45Z</time>
  <course>276.02</course>
  <speed>0.0</speed>
  <fix>3d</fix>
</trkpt>
<trkpt lat="40.0713749" lon="-105.2297889">
  <ele>1583.0</ele>
  <time>2026-08-28T17:55:45Z</time>
  <course>0.0</course>
  <speed>0.0</speed>
  <fix>3d</fix>
</trkpt>
<trkpt lat="40.0713749" lon="-105.2297889">
  <ele>1583.0</ele>
  <time>2026-08-28T17:55:45Z</time>
  <course>276.02</course>
  <speed>0.0</speed>
  <fix>3d</fix>
</trkpt>
<trkpt lat="40.0713749" lon="-105.2297889">
  <ele>1583.0</ele>
  <time>2026-08-28T17:55:45Z</time>
  <course>0.0</course>
  <speed>0.0</speed>
  <fix>3d</fix>
</trkpt>
<trkpt lat="40.0713749" lon="-105.2297889">
  <ele>1583.0</ele>
  <time>2026-08-28T17:55:45Z</time>
  <course>276.02</course>
  <speed>0.0</speed>
  <fix>3d</fix>
</trkpt>
<trkpt lat="40.0713749" lon="-105.2297889">
  <ele>1583.0</ele>
  <time>2026-08-28T17:55:45Z</time>
  <course>0.0</course>
  <speed>0.0</speed>
  <fix>3d</fix>
</trkpt>
<trkpt lat="40.0713749" lon="-105.2297889">
  <ele>1583.0</ele>
  <time>2026-08-28T17:55:45Z</time>
  <course>276.02</course>
  <speed>0.0</speed>
  <fix>3d</fix>
</trkpt>
<trkpt lat="40.0713749" lon="-105.2297889">
  <ele>1583.0</ele>
  <time>2026-08-28T17:55:45Z</time>
  <course>0.0</course>
  <speed>0.0</speed>
  <fix>3d</fix>
</trkpt>
<trkpt lat="40.0713749" lon="-105.2297889">
  <ele>1583.0</ele>
  <time>2026-08-28T17:55:45Z</time>
  <course>276.02</course>
  <speed>0.0</speed>
  <fix>3d</fix>
</trkpt>
<trkpt lat="40.0713749" lon="-105.2297889">
  <ele>1583.0</ele>
  <time>2026-08-28T17:55:45Z</time>
  <course>0.0</course>
  <speed>0.0</speed>
  <fix>3d</fix>
</trkpt>
<trkpt lat="40.0713749" lon="-105.2297889">
  <ele>1583.0</ele>
  <time>2026-08-28T17:55:45Z</time>
  <course>276.02</course>
  <speed>0.0</speed>
  <fix>3d</fix>
</trkpt>
<trkpt lat="40.0713749" lon="-105.2297889">
  <ele>1583.0</ele>
  <time>2026-08-28T17:55:45Z</time>
  <course>0.0</course>
  <speed>0.0</speed>
  <fix>3d</fix>
</trkpt>
<trkpt lat="40.0713749" lon="-105.2297889">
  <ele>1583.0</ele>
  <time>2026-08-28T17:55:45Z</time>
  <course>276.02</course>
  <speed>0.0</speed>
  <fix>3d</fix>
</trkpt>
<trkpt lat="40.0713749" lon="-105.2297889">
  <ele>1583.0</ele>
  <time>2026-08-28T17:55:45Z</time>
  <course>0.0</course>
  <speed>0.0</speed>
  <fix>3d</fix>
</trkpt>
<trkpt lat="40.0713749" lon="-105.2297889">
  <ele>1583.0</ele>
  <time>2026-08-28T17:55:45Z</time>
  <course>276.02</course>
  <speed>0.0</speed>
  <fix>3d</fix>
</trkpt>
<trkpt lat="40.0713749" lon="-105.2297889">
  <ele>1583.0</ele>
  <time>2026-08-28T17:55:45Z</time>
  <course>0.0</course>
  <speed>0.0</speed>
  <fix>3d</fix>
</trkpt>
<trkpt lat="40.0713749" lon="-105.2297889">
  <ele>1583.0</ele>
  <time>2026-08-28T17:55:45Z</time>
  <course>276.02</course>
  <speed>0.0</speed>
  <fix>3d</fix>
</trkpt>
<trkpt lat="40.0713749" lon="-105.2297889">
  <ele>1583.0</ele>
  <time>2026-08-28T17:55:45Z</time>
  <course>0.0</course>
  <speed>0.0</speed>
  <fix>3d</fix>
</trkpt>
<trkpt lat="40.0713749" lon="-105.2297889">
  <ele>1583.0</ele>
  <time>2026-08-28T17:55:45Z</time>
  <course>276.02</course>
  <speed>0.0</speed>
  <fix>3d</fix>
</trkpt>
<trkpt lat="40.0713749" lon="-105.2297889">
  <ele>1583.0</ele>
  <time>2026-08-28T17:55:45Z</time>
  <course>0.0</course>
  <speed>0.0</speed>
  <fix>3d</fix>
</trkpt>
<trkpt lat="40.0713749" lon="-105.2297889">
  <ele>1583.0</ele>
  <time>2026-08-28T17:55:45Z</time>
  <course>276.02</course>
  <speed>0.0</speed>
  <fix>3d</fix>
</trkpt>
<trkpt lat="40.0713749" lon="-105.2297889">
  <ele>1583.0</ele>
  <time>2026-08-28T17:55:45Z</time>
  <course>0.0</course>
  <speed>0.0</speed>
  <fix>3d</fix>
</trkpt>
<trkpt lat="40.0713749" lon="-105.2297889">
  <ele>1583.0</ele>
  <time>2026-08-28T17:55:45Z</time>
  <course>276.02</course>
  <speed>0.0</speed>
  <fix>3d</fix>
</trkpt>
<trkpt lat="40.0713749" lon="-105.2297889">
  <ele>1583.0</ele>
  <time>2026-08-28T17:55:45Z</time>
  <course>0.0</course>
  <speed>0.0</speed>
  <fix>3d</fix>
</trkpt>
<trkpt lat="40.0713749" lon="-105.2297889">
  <ele>1583.0</ele>
  <time>2026-08-28T17:55:45Z</time>
  <course>276.02</course>
  <speed>0.0</speed>
  <fix>3d</fix>
</trkpt>
<trkpt lat="40.0713749" lon="-105.2297889">
  <ele>1583.0</ele>
  <time>2026-08-28T17:55:45Z</time>
  <course>0.0</course>
  <speed>0.0</speed>
  <fix>3d</fix>
</trkpt>
<trkpt lat="40.0713749" lon="-105.2297889">
  <ele>1583.0</ele>
  <time>2026-08-28T17:55:45Z</time>
  <course>276.02</course>
  <speed>0.0</speed>
  <fix>3d</fix>
</trkpt>
<trkpt lat="40.0713749" lon="-105.2297889">
  <ele>1583.0</ele>
  <time>2026-08-28T17:55:45Z</time>
  <course>0.0</course>
  <speed>0.0</speed>
  <fix>3d</fix>
</trkpt>
<trkpt lat="40.0713749" lon="-105.2297889">
  <ele>1583.0</ele>
  <time>2026-08-28T17:55:45Z</time>
  <course>276.02</course>
  <speed>0.0</speed>
  <fix>3d</fix>
</trkpt>
<trkpt lat="40.0713749" lon="-105.2297889">
  <ele>1583.0</ele>
  <time>2026-08-28T17:55:45Z</time>
  <course>0.0</course>
  <speed>0.0</speed>
  <fix>3d</fix>
</trkpt>
<trkpt lat="40.0713749" lon="-105.2297889">
  <ele>1583.0</ele>
  <time>2026-08-28T17:55:45Z</time>
  <course>276.02</course>
  <speed>0.0</speed>
  <fix>3d</fix>
</trkpt>
<trkpt lat="40.0713749" lon="-105.2297889">
  <ele>1583.0</ele>
  <time>2026-08-28T17:55:45Z</time>
  <course>0.0</course>
  <speed>0.0</speed>
  <fix>3d</fix>
</trkpt>
<trkpt lat="40.0713749" lon="-105.2297889">
  <ele>1583.0</ele>
  <time>2026-08-28T17:55:45Z</time>
  <course>276.02</course>
  <speed>0.0</speed>
  <fix>3d</fix>
</trkpt>
<trkpt lat="40.0713749" lon="-105.2297889">
  <ele>1583.0</ele>
  <time>2026-08-28T17:55:45Z</time>
  <course>0.0</course>
  <speed>0.0</speed>
  <fix>3d</fix>
</trkpt>
<trkpt lat="40.0713749" lon="-105.2297889">
  <ele>1583.0</ele>
  <time>2026-08-28T17:55:45Z</time>
  <course>276.02</course>
  <speed>0.0</speed>
  <fix>3d</fix>
</trkpt>
<trkpt lat="40.0713749" lon="-105.2297889">
  <ele>1583.0</ele>
  <time>2026-08-28T17:55:45Z</time>
  <course>0.0</course>
  <speed>0.0</speed>
  <fix>3d</fix>
</trkpt>
<trkpt lat="40.0713749" lon="-105.2297889">
  <ele>1583.0</ele>
  <time>2026-08-28T17:55:45Z</time>
  <course>276.02</course>
  <speed>0.0</speed>
  <fix>3d</fix>
</trkpt>
<trkpt lat="40.0713749" lon="-105.2297889">
  <ele>1583.0</ele>
  <time>2026-08-28T17:55:45Z</time>
  <course>0.0</course>
  <speed>0.0</speed>
  <fix>3d</fix>
</trkpt>
<trkpt lat="40.0713749" lon="-105.2297889">
  <ele>1583.0</ele>
  <time>2026-08-28T17:55:45Z</time>
  <course>276.02</course>
  <speed>0.0</speed>
  <fix>3d</fix>
</trkpt>
<trkpt lat="40.0713749" lon="-105.2297889">
  <ele>1583.0</ele>
  <time>2026-08-28T17:55:45Z</time>
  <course>0.0</course>
  <speed>0.0</speed>
  <fix>3d</fix>
</trkpt>
<trkpt lat="40.0713749" lon="-105.2297889">
  <ele>1583.0</ele>
  <time>2026-08-28T17:55:45Z</time>
  <course>276.02</course>
  <speed>0.0</speed>
  <fix>3d</fix>
</trkpt>
<trkpt lat="40.0713749" lon="-105.2297889">
  <ele>1583.0</ele>
  <time>2026-08-28T17:55:45Z</time>
  <course>0.0</course>
  <speed>0.0</speed>
  <fix>3d</fix>
</trkpt>
<trkpt lat="40.0713749" lon="-105.2297889">
  <ele>1583.0</ele>
  <time>2026-08-28T17:55:45Z</time>
  <course>276.02</course>
  <speed>0.0</speed>
  <fix>3d</fix>
</trkpt>
<trkpt lat="40.0713749" lon="-105.2297889">
  <ele>1583.0</ele>
  <time>2026-08-28T17:55:45Z</time>
  <course>0.0</course>
  <speed>0.0</speed>
  <fix>3d</fix>
</trkpt>
<trkpt lat="40.0713749" lon="-105.2297889">
  <ele>1583.0</ele>
  <time>2026-08-28T17:55:45Z</time>
  <course>276.02</course>
  <speed>0.0</speed>
  <fix>3d</fix>
</trkpt>
<trkpt lat="40.0713749" lon="-105.2297889">
  <ele>1583.0</ele>
  <time>2026-08-28T17:55:45Z</time>
  <course>0.0</course>
  <speed>0.0</speed>
  <fix>3d</fix>
</trkpt>
<trkpt lat="40.0713749" lon="-105.2297889">
  <ele>1583.0</ele>
  <time>2026-08-28T17:55:45Z</time>
  <course>276.02</course>
  <speed>0.0</speed>
  <fix>3d</fix>
</trkpt>
<trkpt lat="40.0713749" lon="-105.2297889">
  <ele>1583.0</ele>
  <time>2026-08-28T17:55:45Z</time>
  <course>0.0</course>
  <speed>0.0</speed>
  <fix>3d</fix>
</trkpt>
<trkpt lat="40.0713749" lon="-105.2297889">
  <ele>1583.0</ele>
  <time>2026-08-28T17:55:45Z</time>
  <course>276.02</course>
  <speed>0.0</speed>
  <fix>3d</fix>
</trkpt>
<trkpt lat="40.0713749" lon="-105.2297889">
  <ele>1583.0</ele>
  <time>2026-08-28T17:55:45Z</time>
  <course>0.0</course>
  <speed>0.0</speed>
  <fix>3d</fix>
</trkpt>
<trkpt lat="40.0713749" lon="-105.2297889">
  <ele>1583.0</ele>
  <time>2026-08-28T17:55:45Z</time>
  <course>276.02</course>
  <speed>0.0</speed>
  <fix>3d</fix>
</trkpt>
<trkpt lat="40.0713749" lon="-105.2297889">
  <ele>1583.0</ele>
  <time>2026-08-28T17:55:45Z</time>
  <course>0.0</course>
  <speed>0.0</speed>
  <fix>3d</fix>
</trkpt>
<trkpt lat="40.0713749" lon="-105.2297889">
  <ele>1583.0</ele>
  <time>2026-08-28T17:55:45Z</time>
  <course>276.02</course>
  <speed>0.0</speed>
  <fix>3d</fix>
</trkpt>
<trkpt lat="40.0713749" lon="-105.2297889">
  <ele>1583.0</ele>
  <time>2026-08-28T17:55:45Z</time>
  <course>0.0</course>
  <speed>0.0</speed>
  <fix>3d</fix>
</trkpt>
<trkpt lat="40.0713749" lon="-105.2297889">
  <ele>1583.0</ele>
  <time>2026-08-28T17:55:45Z</time>
  <course>276.02</course>
  <speed>0.0</speed>
  <fix>3d</fix>
</trkpt>
<trkpt lat="40.0713749" lon="-105.2297889">
  <ele>1583.0</ele>
  <time>2026-08-28T17:55:45Z</time>
  <course>0.0</course>
  <speed>0.0</speed>
  <fix>3d</fix>
</trkpt>
<trkpt lat="40.0713749" lon="-105.2297889">
  <ele>1583.0</ele>
  <time>2026-08-28T17:55:45Z</time>
  <course>276.02</course>
  <speed>0.0</speed>
  <fix>3d</fix>
</trkpt>
<trkpt lat="40.0713749" lon="-105.2297889">
  <ele>1583.0</ele>
  <time>2026-08-28T17:55:45Z</time>
  <course>0.0</course>
  <speed>0.0</speed>
  <fix>3d</fix>
</trkpt>
<trkpt lat="40.0713749" lon="-105.2297889">
  <ele>1583.0</ele>
  <time>2026-08-28T17:55:45Z</time>
  <course>276.02</course>
  <speed>0.0</speed>
  <fix>3d</fix>
</trkpt>
<trkpt lat="40.0713749" lon="-105.2297889">
  <ele>1583.0</ele>
  <time>2026-08-28T17:55:45Z</time>
  <course>0.0</course>
  <speed>0.0</speed>
  <fix>3d</fix>
</trkpt>
<trkpt lat="40.0713749" lon="-105.2297889">
  <ele>1583.0</ele>
  <time>2026-08-28T17:55:45Z</time>
  <course>276.02</course>
  <speed>0.0</speed>
  <fix>3d</fix>
</trkpt>
<trkpt lat="40.0713749" lon="-105.2297889">
  <ele>1583.0</ele>
  <time>2026-08-28T17:55:45Z</time>
  <course>0.0</course>
  <speed>0.0</speed>
  <fix>3d</fix>
</trkpt>
<trkpt lat="40.0713749" lon="-105.2297889">
  <ele>1583.0</ele>
  <time>2026-08-28T17:55:45Z</time>
  <course>276.02</course>
  <speed>0.0</speed>
  <fix>3d</fix>
</trkpt>
<trkpt lat="40.0713749" lon="-105.2297889">
  <ele>1583.0</ele>
  <time>2026-08-28T17:55:45Z</time>
  <course>0.0</course>
  <speed>0.0</speed>
  <fix>3d</fix>
</trkpt>
<trkpt lat="40.0713749" lon="-105.2297889">
  <ele>1583.0</ele>
  <time>2026-08-28T17:55:45Z</time>
  <course>276.02</course>
  <speed>0.0</speed>
  <fix>3d</fix>
</trkpt>
<trkpt lat="40.0713749" lon="-105.2297889">
  <ele>1583.0</ele>
  <time>2026-08-28T17:55:45Z</time>
  <course>0.0</course>
  <speed>0.0</speed>
  <fix>3d</fix>
</trkpt>
<trkpt lat="40.0713749" lon="-105.2297889">
  <ele>1583.0</ele>
  <time>2026-08-28T17:55:45Z</time>
  <course>276.02</course>
  <speed>0.0</speed>
  <fix>3d</fix>
</trkpt>
<trkpt lat="40.0713749" lon="-105.2297889">
  <ele>1583.0</ele>
  <time>2026-08-28T17:55:45Z</time>
  <course>0.0</course>
  <speed>0.0</speed>
  <fix>3d</fix>
</trkpt>
<trkpt lat="40.0713749" lon="-105.2297889">
  <ele>1583.0</ele>
  <time>2026-08-28T17:55:45Z</time>
  <course>276.02</course>
  <speed>0.0</speed>
  <fix>3d</fix>
</trkpt>
<trkpt lat="40.0713749" lon="-105.2297889">
  <ele>1583.0</ele>
  <time>2026-08-28T17:55:45Z</time>
  <course>0.0</course>
  <speed>0.0</speed>
  <fix>3d</fix>
</trkpt>
<trkpt lat="40.0713749" lon="-105.2297889">
  <ele>1583.0</ele>
  <time>2026-08-28T17:55:45Z</time>
  <course>276.02</course>
  <speed>0.0</speed>
  <fix>3d</fix>
</trkpt>
<trkpt lat="40.0713749" lon="-105.2297889">
  <ele>1583.0</ele>
  <time>2026-08-28T17:55:45Z</time>
  <course>0.0</course>
  <speed>0.0</speed>
  <fix>3d</fix>
</trkpt>
<trkpt lat="40.0713749" lon="-105.2297889">
  <ele>1583.0</ele>
  <time>2026-08-28T17:55:45Z</time>
  <course>276.02</course>
  <speed>0.0</speed>
  <fix>3d</fix>
</trkpt>
<trkpt lat="40.0713749" lon="-105.2297889">
  <ele>1583.0</ele>
  <time>2026-08-28T17:55:45Z</time>
  <course>0.0</course>
  <speed>0.0</speed>
  <fix>3d</fix>
</trkpt>
<trkpt lat="40.0713749" lon="-105.2297889">
  <ele>1583.0</ele>
  <time>2026-08-28T17:55:45Z</time>
  <course>276.02</course>
  <speed>0.0</speed>
  <fix>3d</fix>
</trkpt>
<trkpt lat="40.0713749" lon="-105.2297889">
  <ele>1583.0</ele>
  <time>2026-08-28T17:55:45Z</time>
  <course>0.0</course>
  <speed>0.0</speed>
  <fix>3d</fix>
</trkpt>
<trkpt lat="40.0713749" lon="-105.2297889">
  <ele>1583.0</ele>
  <time>2026-08-28T17:55:45Z</time>
  <course>276.02</course>
  <speed>0.0</speed>
  <fix>3d</fix>
</trkpt>
<trkpt lat="40.0713749" lon="-105.2297889">
  <ele>1583.0</ele>
  <time>2026-08-28T17:55:45Z</time>
  <course>0.0</course>
  <speed>0.0</speed>
  <fix>3d</fix>
</trkpt>
<trkpt lat="40.0713749" lon="-105.2297889">
  <ele>1583.0</ele>
  <time>2026-08-28T17:55:45Z</time>
  <course>276.02</course>
  <speed>0.0</speed>
  <fix>3d</fix>
</trkpt>
<trkpt lat="40.0713749" lon="-105.2297889">
  <ele>1583.0</ele>
  <time>2026-08-28T17:55:45Z</time>
  <course>0.0</course>
  <speed>0.0</speed>
  <fix>3d</fix>
</trkpt>
<trkpt lat="40.0713749" lon="-105.2297889">
  <ele>1583.0</ele>
  <time>2026-08-28T17:55:45Z</time>
  <course>276.02</course>
  <speed>0.0</speed>
  <fix>3d</fix>
</trkpt>
<trkpt lat="40.0713749" lon="-105.2297889">
  <ele>1583.0</ele>
  <time>2026-08-28T17:55:45Z</time>
  <course>0.0</course>
  <speed>0.0</speed>
  <fix>3d</fix>
</trkpt>
<trkpt lat="40.0713749" lon="-105.2297889">
  <ele>1583.0</ele>
  <time>2026-08-28T17:55:45Z</time>
  <course>276.02</course>
  <speed>0.0</speed>
  <fix>3d</fix>
</trkpt>
<trkpt lat="40.0713749" lon="-105.2297889">
  <ele>1583.0</ele>
  <time>2026-08-28T17:55:45Z</time>
  <course>0.0</course>
  <speed>0.0</speed>
  <fix>3d</fix>
</trkpt>
<trkpt lat="40.0713749" lon="-105.2297889">
  <ele>1583.0</ele>
  <time>2026-08-28T17:55:45Z</time>
  <course>276.02</course>
  <speed>0.0</speed>
  <fix>3d</fix>
</trkpt>
<trkpt lat="40.0713749" lon="-105.2297889">
  <ele>1583.0</ele>
  <time>2026-08-28T17:55:45Z</time>
  <course>0.0</course>
  <speed>0.0</speed>
  <fix>3d</fix>
</trkpt>
<trkpt lat="40.0713749" lon="-105.2297889">
  <ele>1583.0</ele>
  <time>2026-08-28T17:55:45Z</time>
  <course>276.02</course>
  <speed>0.0</speed>
  <fix>3d</fix>
</trkpt>
<trkpt lat="40.0713749" lon="-105.2297889">
  <ele>1583.0</ele>
  <time>2026-08-28T17:55:45Z</time>
  <course>0.0</course>
  <speed>0.0</speed>
  <fix>3d</fix>
</trkpt>
<trkpt lat="40.0713749" lon="-105.2297889">
  <ele>1583.0</ele>
  <time>2026-08-28T17:55:45Z</time>
  <course>276.02</course>
  <speed>0.0</speed>
  <fix>3d</fix>
</trkpt>
<trkpt lat="40.0713749" lon="-105.2297889">
  <ele>1583.0</ele>
  <time>2026-08-28T17:55:45Z</time>
  <course>0.0</course>
  <speed>0.0</speed>
  <fix>3d</fix>
</trkpt>
<trkpt lat="40.0713749" lon="-105.2297889">
  <ele>1583.0</ele>
  <time>2026-08-28T17:55:45Z</time>
  <course>276.02</course>
  <speed>0.0</speed>
  <fix>3d</fix>
</trkpt>
<trkpt lat="40.0713749" lon="-105.2297889">
  <ele>1583.0</ele>
  <time>2026-08-28T17:55:45Z</time>
  <course>0.0</course>
  <speed>0.0</speed>
  <fix>3d</fix>
</trkpt>
<trkpt lat="40.0713749" lon="-105.2297889">
  <ele>1583.0</ele>
  <time>2026-08-28T17:55:45Z</time>
  <course>276.02</course>
  <speed>0.0</speed>
  <fix>3d</fix>
</trkpt>
<trkpt lat="40.0713749" lon="-105.2297889">
  <ele>1583.0</ele>
  <time>2026-08-28T17:55:45Z</time>
  <course>0.0</course>
  <speed>0.0</speed>
  <fix>3d</fix>
</trkpt>
<trkpt lat="40.0713749" lon="-105.2297889">
  <ele>1583.0</ele>
  <time>2026-08-28T17:55:45Z</time>
  <course>276.02</course>
  <speed>0.0</speed>
  <fix>3d</fix>
</trkpt>
<trkpt lat="40.0713749" lon="-105.2297889">
  <ele>1583.0</ele>
  <time>2026-08-28T17:55:45Z</time>
  <course>0.0</course>
  <speed>0.0</speed>
  <fix>3d</fix>
</trkpt>
<trkpt lat="40.0713749" lon="-105.2297889">
  <ele>1583.0</ele>
  <time>2026-08-28T17:55:45Z</time>
  <course>276.02</course>
  <speed>0.0</speed>
  <fix>3d</fix>
</trkpt>
<trkpt lat="40.0713749" lon="-105.2297889">
  <ele>1583.0</ele>
  <time>2026-08-28T17:55:45Z</time>
  <course>0.0</course>
  <speed>0.0</speed>
  <fix>3d</fix>
</trkpt>
<trkpt lat="40.0713749" lon="-105.2297889">
  <ele>1583.0</ele>
  <time>2026-08-28T17:55:45Z</time>
  <course>276.03</course>
  <speed>0.0</speed>
  <fix>3d</fix>
</trkpt>
<trkpt lat="40.0713749" lon="-105.2297889">
  <ele>1583.0</ele>
  <time>2026-08-28T17:55:45Z</time>
  <course>0.0</course>
  <speed>0.0</speed>
  <fix>3d</fix>
</trkpt>
<trkpt lat="40.0713749" lon="-105.2297889">
  <ele>1583.0</ele>
  <time>2026-08-28T17:55:45Z</time>
  <course>276.03</course>
  <speed>0.0</speed>
  <fix>3d</fix>
</trkpt>
<trkpt lat="40.0713749" lon="-105.2297889">
  <ele>1583.0</ele>
  <time>2026-08-28T17:55:45Z</time>
  <course>0.0</course>
  <speed>0.0</speed>
  <fix>3d</fix>
</trkpt>
<trkpt lat="40.0713749" lon="-105.2297889">
  <ele>1583.0</ele>
  <time>2026-08-28T17:55:45Z</time>
  <course>276.03</course>
  <speed>0.0</speed>
  <fix>3d</fix>
</trkpt>
<trkpt lat="40.0713749" lon="-105.2297889">
  <ele>1583.0</ele>
  <time>2026-08-28T17:55:45Z</time>
  <course>0.0</course>
  <speed>0.0</speed>
  <fix>3d</fix>
</trkpt>
<trkpt lat="40.0713749" lon="-105.2297889">
  <ele>1583.0</ele>
  <time>2026-08-28T17:55:45Z</time>
  <course>276.03</course>
  <speed>0.0</speed>
  <fix>3d</fix>
</trkpt>
<trkpt lat="40.0713749" lon="-105.2297889">
  <ele>1583.0</ele>
  <time>2026-08-28T17:55:45Z</time>
  <course>0.0</course>
  <speed>0.0</speed>
  <fix>3d</fix>
</trkpt>
<trkpt lat="40.0713749" lon="-105.2297889">
  <ele>1583.0</ele>
  <time>2026-08-28T17:55:45Z</time>
  <course>276.03</course>
  <speed>0.0</speed>
  <fix>3d</fix>
</trkpt>
<trkpt lat="40.0713749" lon="-105.2297889">
  <ele>1583.0</ele>
  <time>2026-08-28T17:55:45Z</time>
  <course>0.0</course>
  <speed>0.0</speed>
  <fix>3d</fix>
</trkpt>
<trkpt lat="40.0713749" lon="-105.2297889">
  <ele>1583.0</ele>
  <time>2026-08-28T17:55:45Z</time>
  <course>276.03</course>
  <speed>0.0</speed>
  <fix>3d</fix>
</trkpt>
<trkpt lat="40.0713749" lon="-105.2297889">
  <ele>1583.0</ele>
  <time>2026-08-28T17:55:45Z</time>
  <course>0.0</course>
  <speed>0.0</speed>
  <fix>3d</fix>
</trkpt>
<trkpt lat="40.0713749" lon="-105.2297889">
  <ele>1583.0</ele>
  <time>2026-08-28T17:55:45Z</time>
  <course>276.03</course>
  <speed>0.0</speed>
  <fix>3d</fix>
</trkpt>
<trkpt lat="40.0713749" lon="-105.2297889">
  <ele>1583.0</ele>
  <time>2026-08-28T17:55:45Z</time>
  <course>0.0</course>
  <speed>0.0</speed>
  <fix>3d</fix>
</trkpt>
<trkpt lat="40.0713749" lon="-105.2297889">
  <ele>1583.0</ele>
  <time>2026-08-28T17:55:45Z</time>
  <course>276.03</course>
  <speed>0.0</speed>
  <fix>3d</fix>
</trkpt>
<trkpt lat="40.0713749" lon="-105.2297889">
  <ele>1583.0</ele>
  <time>2026-08-28T17:55:45Z</time>
  <course>0.0</course>
  <speed>0.0</speed>
  <fix>3d</fix>
</trkpt>
<trkpt lat="40.0713749" lon="-105.2297889">
  <ele>1583.0</ele>
  <time>2026-08-28T17:55:45Z</time>
  <course>276.03</course>
  <speed>0.01</speed>
  <fix>3d</fix>
</trkpt>
<trkpt lat="40.0713749" lon="-105.2297889">
  <ele>1583.0</ele>
  <time>2026-08-28T17:55:45Z</time>
  <course>0.0</course>
  <speed>0.0</speed>
  <fix>3d</fix>
</trkpt>
<trkpt lat="40.0713749" lon="-105.2297889">
  <ele>1583.0</ele>
  <time>2026-08-28T17:55:45Z</time>
  <course>276.03</course>
  <speed>0.01</speed>
  <fix>3d</fix>
</trkpt>
<trkpt lat="40.0713749" lon="-105.2297889">
  <ele>1583.0</ele>
  <time>2026-08-28T17:55:45Z</time>
  <course>0.0</course>
  <speed>0.0</speed>
  <fix>3d</fix>
</trkpt>
<trkpt lat="40.0713749" lon="-105.2297889">
  <ele>1583.0</ele>
  <time>2026-08-28T17:55:45Z</time>
  <course>276.03</course>
  <speed>0.01</speed>
  <fix>3d</fix>
</trkpt>
<trkpt lat="40.0713749" lon="-105.2297889">
  <ele>1583.0</ele>
  <time>2026-08-28T17:55:45Z</time>
  <course>0.0</course>
  <speed>0.0</speed>
  <fix>3d</fix>
</trkpt>
<trkpt lat="40.0713749" lon="-105.2297889">
  <ele>1583.0</ele>
  <time>2026-08-28T17:55:45Z</time>
  <course>276.03</course>
  <speed>0.01</speed>
  <fix>3d</fix>
</trkpt>
<trkpt lat="40.0713749" lon="-105.2297889">
  <ele>1583.0</ele>
  <time>2026-08-28T17:55:45Z</time>
  <course>0.0</course>
  <speed>0.0</speed>
  <fix>3d</fix>
</trkpt>
<trkpt lat="40.0713749" lon="-105.2297889">
  <ele>1583.0</ele>
  <time>2026-08-28T17:55:45Z</time>
  <course>276.03</course>
  <speed>0.01</speed>
  <fix>3d</fix>
</trkpt>
<trkpt lat="40.0713749" lon="-105.2297889">
  <ele>1583.0</ele>
  <time>2026-08-28T17:55:45Z</time>
  <course>0.0</course>
  <speed>0.0</speed>
  <fix>3d</fix>
</trkpt>
<trkpt lat="40.0713749" lon="-105.2297889">
  <ele>1583.0</ele>
  <time>2026-08-28T17:55:45Z</time>
  <course>276.03</course>
  <speed>0.01</speed>
  <fix>3d</fix>
</trkpt>
<trkpt lat="40.0713749" lon="-105.2297889">
  <ele>1583.0</ele>
  <time>2026-08-28T17:55:45Z</time>
  <course>0.0</course>
  <speed>0.0</speed>
  <fix>3d</fix>
</trkpt>
<trkpt lat="40.0713749" lon="-105.2297889">
  <ele>1583.0</ele>
  <time>2026-08-28T17:55:45Z</time>
  <course>276.03</course>
  <speed>0.01</speed>
  <fix>3d</fix>
</trkpt>
<trkpt lat="40.0713749" lon="-105.2297889">
  <ele>1583.0</ele>
  <time>2026-08-28T17:55:45Z</time>
  <course>0.0</course>
  <speed>0.0</speed>
  <fix>3d</fix>
</trkpt>
<trkpt lat="40.0713749" lon="-105.2297889">
  <ele>1583.0</ele>
  <time>2026-08-28T17:55:45Z</time>
  <course>276.03</course>
  <speed>0.01</speed>
  <fix>3d</fix>
</trkpt>
<trkpt lat="40.0713749" lon="-105.2297889">
  <ele>1583.0</ele>
  <time>2026-08-28T17:55:45Z</time>
  <course>0.0</course>
  <speed>0.0</speed>
  <fix>3d</fix>
</trkpt>
<trkpt lat="40.0713749" lon="-105.2297889">
  <ele>1583.0</ele>
  <time>2026-08-28T17:55:45Z</time>
  <course>276.03</course>
  <speed>0.01</speed>
  <fix>3d</fix>
</trkpt>
<trkpt lat="40.0713749" lon="-105.2297889">
  <ele>1583.0</ele>
  <time>2026-08-28T17:55:45Z</time>
  <course>0.0</course>
  <speed>0.0</speed>
  <fix>3d</fix>
</trkpt>
<trkpt lat="40.0713749" lon="-105.2297889">
  <ele>1583.0</ele>
  <time>2026-08-28T17:55:45Z</time>
  <course>276.03</course>
  <speed>0.01</speed>
  <fix>3d</fix>
</trkpt>
<trkpt lat="40.0713749" lon="-105.2297889">
  <ele>1583.0</ele>
  <time>2026-08-28T17:55:45Z</time>
  <course>0.0</course>
  <speed>0.0</speed>
  <fix>3d</fix>
</trkpt>
<trkpt lat="40.0713749" lon="-105.2297889">
  <ele>1583.0</ele>
  <time>2026-08-28T17:55:45Z</time>
  <course>276.03</course>
  <speed>0.01</speed>
  <fix>3d</fix>
</trkpt>
<trkpt lat="40.0713749" lon="-105.2297889">
  <ele>1583.0</ele>
  <time>2026-08-28T17:55:45Z</time>
  <course>0.0</course>
  <speed>0.0</speed>
  <fix>3d</fix>
</trkpt>
<trkpt lat="40.0713749" lon="-105.2297889">
  <ele>1583.0</ele>
  <time>2026-08-28T17:55:45Z</time>
  <course>276.03</course>
  <speed>0.01</speed>
  <fix>3d</fix>
</trkpt>
<trkpt lat="40.0713749" lon="-105.2297889">
  <ele>1583.0</ele>
  <time>2026-08-28T17:55:45Z</time>
  <course>0.0</course>
  <speed>0.0</speed>
  <fix>3d</fix>
</trkpt>
<trkpt lat="40.0713749" lon="-105.2297889">
  <ele>1583.0</ele>
  <time>2026-08-28T17:55:45Z</time>
  <course>276.03</course>
  <speed>0.01</speed>
  <fix>3d</fix>
</trkpt>
<trkpt lat="40.0713749" lon="-105.2297889">
  <ele>1583.0</ele>
  <time>2026-08-28T17:55:45Z</time>
  <course>0.0</course>
  <speed>0.0</speed>
  <fix>3d</fix>
</trkpt>
<trkpt lat="40.0713749" lon="-105.2297889">
  <ele>1583.0</ele>
  <time>2026-08-28T17:55:45Z</time>
  <course>276.03</course>
  <speed>0.01</speed>
  <fix>3d</fix>
</trkpt>
<trkpt lat="40.0713749" lon="-105.2297889">
  <ele>1583.0</ele>
  <time>2026-08-28T17:55:45Z</time>
  <course>0.0</course>
  <speed>0.0</speed>
  <fix>3d</fix>
</trkpt>
<trkpt lat="40.0713749" lon="-105.2297889">
  <ele>1583.0</ele>
  <time>2026-08-28T17:55:45Z</time>
  <course>276.03</course>
  <speed>0.01</speed>
  <fix>3d</fix>
</trkpt>
<trkpt lat="40.0713749" lon="-105.2297889">
  <ele>1583.0</ele>
  <time>2026-08-28T17:55:45Z</time>
  <course>0.0</course>
  <speed>0.0</speed>
  <fix>3d</fix>
</trkpt>
<trkpt lat="40.0713749" lon="-105.2297889">
  <ele>1583.0</ele>
  <time>2026-08-28T17:55:45Z</time>
  <course>276.03</course>
  <speed>0.01</speed>
  <fix>3d</fix>
</trkpt>
<trkpt lat="40.0713749" lon="-105.2297889">
  <ele>1583.0</ele>
  <time>2026-08-28T17:55:45Z</time>
  <course>0.0</course>
  <speed>0.0</speed>
  <fix>3d</fix>
</trkpt>
<trkpt lat="40.0713749" lon="-105.2297889">
  <ele>1583.0</ele>
  <time>2026-08-28T17:55:45Z</time>
  <course>276.03</course>
  <speed>0.01414213562373095</speed>
  <fix>3d</fix>
</trkpt>
<trkpt lat="40.0713749" lon="-105.2297889">
  <ele>1583.0</ele>
  <time>2026-08-28T17:55:45Z</time>
  <course>0.0</course>
  <speed>0.0</speed>
  <fix>3d</fix>
</trkpt>
<trkpt lat="40.0713749" lon="-105.2297889">
  <ele>1583.0</ele>
  <time>2026-08-28T17:55:45Z</time>
  <course>276.03</course>
  <speed>0.01414213562373095</speed>
  <fix>3d</fix>
</trkpt>
<trkpt lat="40.0713749" lon="-105.2297889">
  <ele>1583.0</ele>
  <time>2026-08-28T17:55:45Z</time>
  <course>0.0</course>
  <speed>0.0</speed>
  <fix>3d</fix>
</trkpt>
<trkpt lat="40.0713749" lon="-105.2297889">
  <ele>1583.0</ele>
  <time>2026-08-28T17:55:45Z</time>
  <course>276.03</course>
  <speed>0.01414213562373095</speed>
  <fix>3d</fix>
</trkpt>
<trkpt lat="40.0713749" lon="-105.2297889">
  <ele>1583.0</ele>
  <time>2026-08-28T17:55:45Z</time>
  <course>0.0</course>
  <speed>0.0</speed>
  <fix>3d</fix>
</trkpt>
<trkpt lat="40.0713749" lon="-105.2297889">
  <ele>1583.0</ele>
  <time>2026-08-28T17:55:45Z</time>
  <course>276.03</course>
  <speed>0.01414213562373095</speed>
  <fix>3d</fix>
</trkpt>
<trkpt lat="40.0713749" lon="-105.2297889">
  <ele>1583.0</ele>
  <time>2026-08-28T17:55:45Z</time>
  <course>0.0</course>
  <speed>0.0</speed>
  <fix>3d</fix>
</trkpt>
<trkpt lat="40.0713749" lon="-105.2297889">
  <ele>1583.0</ele>
  <time>2026-08-28T17:55:45Z</time>
  <course>276.03</course>
  <speed>0.01414213562373095</speed>
  <fix>3d</fix>
</trkpt>
<trkpt lat="40.0713749" lon="-105.2297889">
  <ele>1583.0</ele>
  <time>2026-08-28T17:55:45Z</time>
  <course>0.0</course>
  <speed>0.0</speed>
  <fix>3d</fix>
</trkpt>
<trkpt lat="40.0713749" lon="-105.2297889">
  <ele>1583.0</ele>
  <time>2026-08-28T17:55:45Z</time>
  <course>276.03</course>
  <speed>0.01414213562373095</speed>
  <fix>3d</fix>
</trkpt>
<trkpt lat="40.0713749" lon="-105.2297889">
  <ele>1583.0</ele>
  <time>2026-08-28T17:55:45Z</time>
  <course>0.0</course>
  <speed>0.0</speed>
  <fix>3d</fix>
</trkpt>
<trkpt lat="40.0713749" lon="-105.2297889">
  <ele>1583.0</ele>
  <time>2026-08-28T17:55:45Z</time>
  <course>276.03</course>
  <speed>0.01414213562373095</speed>
  <fix>3d</fix>
</trkpt>
<trkpt lat="40.0713749" lon="-105.2297889">
  <ele>1583.0</ele>
  <time>2026-08-28T17:55:45Z</time>
  <course>0.0</course>
  <speed>0.0</speed>
  <fix>3d</fix>
</trkpt>
<trkpt lat="40.0713749" lon="-105.2297889">
  <ele>1583.0</ele>
  <time>2026-08-28T17:55:45Z</time>
  <course>276.03</course>
  <speed>0.01414213562373095</speed>
  <fix>3d</fix>
</trkpt>
<trkpt lat="40.0713749" lon="-105.2297889">
  <ele>1583.0</ele>
  <time>2026-08-28T17:55:45Z</time>
  <course>0.0</course>
  <speed>0.0</speed>
  <fix>3d</fix>
</trkpt>
<trkpt lat="40.0713749" lon="-105.2297889">
  <ele>1583.0</ele>
  <time>2026-08-28T17:55:45Z</time>
  <course>276.03</course>
  <speed>0.01414213562373095</speed>
  <fix>3d</fix>
</trkpt>
<trkpt lat="40.0713749" lon="-105.2297889">
  <ele>1583.0</ele>
  <time>2026-08-28T17:55:45Z</time>
  <course>0.0</course>
  <speed>0.0</speed>
  <fix>3d</fix>
</trkpt>
<trkpt lat="40.0713749" lon="-105.2297889">
  <ele>1583.0</ele>
  <time>2026-08-28T17:55:45Z</time>
  <course>276.03</course>
  <speed>0.01414213562373095</speed>
  <fix>3d</fix>
</trkpt>
<trkpt lat="40.0713749" lon="-105.2297889">
  <ele>1583.0</ele>
  <time>2026-08-28T17:55:45Z</time>
  <course>0.0</course>
  <speed>0.0</speed>
  <fix>3d</fix>
</trkpt>
<trkpt lat="40.0713749" lon="-105.2297889">
  <ele>1583.0</ele>
  <time>2026-08-28T17:55:45Z</time>
  <course>276.03</course>
  <speed>0.01414213562373095</speed>
  <fix>3d</fix>
</trkpt>
<trkpt lat="40.0713749" lon="-105.2297889">
  <ele>1583.0</ele>
  <time>2026-08-28T17:55:45Z</time>
  <course>0.0</course>
  <speed>0.0</speed>
  <fix>3d</fix>
</trkpt>
<trkpt lat="40.0713749" lon="-105.2297889">
  <ele>1583.0</ele>
  <time>2026-08-28T17:55:45Z</time>
  <course>276.03</course>
  <speed>0.01414213562373095</speed>
  <fix>3d</fix>
</trkpt>
<trkpt lat="40.0713749" lon="-105.2297889">
  <ele>1583.0</ele>
  <time>2026-08-28T17:55:45Z</time>
  <course>0.0</course>
  <speed>0.0</speed>
  <fix>3d</fix>
</trkpt>
<trkpt lat="40.0713749" lon="-105.2297889">
  <ele>1583.0</ele>
  <time>2026-08-28T17:55:45Z</time>
  <course>276.03</course>
  <speed>0.01414213562373095</speed>
  <fix>3d</fix>
</trkpt>
<trkpt lat="40.0713749" lon="-105.2297889">
  <ele>1583.0</ele>
  <time>2026-08-28T17:55:45Z</time>
  <course>0.0</course>
  <speed>0.0</speed>
  <fix>3d</fix>
</trkpt>
<trkpt lat="40.0713749" lon="-105.2297889">
  <ele>1583.0</ele>
  <time>2026-08-28T17:55:45Z</time>
  <course>276.03</course>
  <speed>0.01414213562373095</speed>
  <fix>3d</fix>
</trkpt>
<trkpt lat="40.0713749" lon="-105.2297889">
  <ele>1583.0</ele>
  <time>2026-08-28T17:55:45Z</time>
  <course>0.0</course>
  <speed>0.0</speed>
  <fix>3d</fix>
</trkpt>
<trkpt lat="40.0713749" lon="-105.2297889">
  <ele>1583.0</ele>
  <time>2026-08-28T17:55:45Z</time>
  <course>276.03</course>
  <speed>0.01414213562373095</speed>
  <fix>3d</fix>
</trkpt>
<trkpt lat="40.0713749" lon="-105.2297889">
  <ele>1583.0</ele>
  <time>2026-08-28T17:55:45Z</time>
  <course>0.0</course>
  <speed>0.0</speed>
  <fix>3d</fix>
</trkpt>
<trkpt lat="40.0713749" lon="-105.2297889">
  <ele>1583.0</ele>
  <time>2026-08-28T17:55:45Z</time>
  <course>276.03</course>
  <speed>0.01414213562373095</speed>
  <fix>3d</fix>
</trkpt>
<trkpt lat="40.0713749" lon="-105.2297889">
  <ele>1583.0</ele>
  <time>2026-08-28T17:55:45Z</time>
  <course>0.0</course>
  <speed>0.0</speed>
  <fix>3d</fix>
</trkpt>
<trkpt lat="40.0713749" lon="-105.2297889">
  <ele>1583.0</ele>
  <time>2026-08-28T17:55:45Z</time>
  <course>276.04</course>
  <speed>0.01414213562373095</speed>
  <fix>3d</fix>
</trkpt>
<trkpt lat="40.0713749" lon="-105.2297889">
  <ele>1583.0</ele>
  <time>2026-08-28T17:55:45Z</time>
  <course>0.0</course>
  <speed>0.0</speed>
  <fix>3d</fix>
</trkpt>
<trkpt lat="40.0713749" lon="-105.2297889">
  <ele>1583.0</ele>
  <time>2026-08-28T17:55:45Z</time>
  <course>276.04</course>
  <speed>0.01414213562373095</speed>
  <fix>3d</fix>
</trkpt>
<trkpt lat="40.0713749" lon="-105.2297889">
  <ele>1583.0</ele>
  <time>2026-08-28T17:55:45Z</time>
  <course>0.0</course>
  <speed>0.0</speed>
  <fix>3d</fix>
</trkpt>
<trkpt lat="40.0713749" lon="-105.2297889">
  <ele>1583.0</ele>
  <time>2026-08-28T17:55:45Z</time>
  <course>276.04</course>
  <speed>0.01414213562373095</speed>
  <fix>3d</fix>
</trkpt>
<trkpt lat="40.0713749" lon="-105.2297889">
  <ele>1583.0</ele>
  <time>2026-08-28T17:55:45Z</time>
  <course>0.0</course>
  <speed>0.0</speed>
  <fix>3d</fix>
</trkpt>
<trkpt lat="40.0713749" lon="-105.2297889">
  <ele>1583.0</ele>
  <time>2026-08-28T17:55:45Z</time>
  <course>276.04</course>
  <speed>0.01414213562373095</speed>
  <fix>3d</fix>
</trkpt>
<trkpt lat="40.0713749" lon="-105.2297889">
  <ele>1583.0</ele>
  <time>2026-08-28T17:55:45Z</time>
  <course>0.0</course>
  <speed>0.0</speed>
  <fix>3d</fix>
</trkpt>
<trkpt lat="40.0713749" lon="-105.2297889">
  <ele>1583.0</ele>
  <time>2026-08-28T17:55:45Z</time>
  <course>276.04</course>
  <speed>0.01414213562373095</speed>
  <fix>3d</fix>
</trkpt>
<trkpt lat="40.0713749" lon="-105.2297889">
  <ele>1583.0</ele>
  <time>2026-08-28T17:55:45Z</time>
  <course>0.0</course>
  <speed>0.0</speed>
  <fix>3d</fix>
</trkpt>
<trkpt lat="40.0713749" lon="-105.2297889">
  <ele>1583.0</ele>
  <time>2026-08-28T17:55:45Z</time>
  <course>276.04</course>
  <speed>0.01414213562373095</speed>
  <fix>3d</fix>
</trkpt>
<trkpt lat="40.0713749" lon="-105.2297889">
  <ele>1583.0</ele>
  <time>2026-08-28T17:55:45Z</time>
  <course>0.0</course>
  <speed>0.0</speed>
  <fix>3d</fix>
</trkpt>
<trkpt lat="40.0713749" lon="-105.2297889">
  <ele>1583.0</ele>
  <time>2026-08-28T17:55:45Z</time>
  <course>276.04</course>
  <speed>0.01414213562373095</speed>
  <fix>3d</fix>
</trkpt>
<trkpt lat="40.0713749" lon="-105.2297889">
  <ele>1583.0</ele>
  <time>2026-08-28T17:55:45Z</time>
  <course>0.0</course>
  <speed>0.0</speed>
  <fix>3d</fix>
</trkpt>
<trkpt lat="40.0713749" lon="-105.2297889">
  <ele>1583.0</ele>
  <time>2026-08-28T17:55:45Z</time>
  <course>276.04</course>
  <speed>0.01414213562373095</speed>
  <fix>3d</fix>
</trkpt>
<trkpt lat="40.0713749" lon="-105.2297889">
  <ele>1583.0</ele>
  <time>2026-08-28T17:55:45Z</time>
  <course>0.0</course>
  <speed>0.0</speed>
  <fix>3d</fix>
</trkpt>
<trkpt lat="40.0713749" lon="-105.2297889">
  <ele>1583.0</ele>
  <time>2026-08-28T17:55:45Z</time>
  <course>276.04</course>
  <speed>0.01414213562373095</speed>
  <fix>3d</fix>
</trkpt>
<trkpt lat="40.0713749" lon="-105.2297889">
  <ele>1583.0</ele>
  <time>2026-08-28T17:55:45Z</time>
  <course>0.0</course>
  <speed>0.0</speed>
  <fix>3d</fix>
</trkpt>
<trkpt lat="40.0713749" lon="-105.2297889">
  <ele>1583.0</ele>
  <time>2026-08-28T17:55:45Z</time>
  <course>276.04</course>
  <speed>0.01414213562373095</speed>
  <fix>3d</fix>
</trkpt>
<trkpt lat="40.0713749" lon="-105.2297889">
  <ele>1583.0</ele>
  <time>2026-08-28T17:55:45Z</time>
  <course>0.0</course>
  <speed>0.0</speed>
  <fix>3d</fix>
</trkpt>
<trkpt lat="40.0713749" lon="-105.2297889">
  <ele>1583.0</ele>
  <time>2026-08-28T17:55:45Z</time>
  <course>276.04</course>
  <speed>0.01414213562373095</speed>
  <fix>3d</fix>
</trkpt>
<trkpt lat="40.0713749" lon="-105.2297889">
  <ele>1583.0</ele>
  <time>2026-08-28T17:55:45Z</time>
  <course>0.0</course>
  <speed>0.0</speed>
  <fix>3d</fix>
</trkpt>
<trkpt lat="40.0713749" lon="-105.2297889">
  <ele>1583.0</ele>
  <time>2026-08-28T17:55:45Z</time>
  <course>276.04</course>
  <speed>0.01414213562373095</speed>
  <fix>3d</fix>
</trkpt>
<trkpt lat="40.0713749" lon="-105.2297889">
  <ele>1583.0</ele>
  <time>2026-08-28T17:55:45Z</time>
  <course>0.0</course>
  <speed>0.0</speed>
  <fix>3d</fix>
</trkpt>
<trkpt lat="40.0713749" lon="-105.2297889">
  <ele>1583.0</ele>
  <time>2026-08-28T17:55:45Z</time>
  <course>276.04</course>
  <speed>0.01414213562373095</speed>
  <fix>3d</fix>
</trkpt>
<trkpt lat="40.0713749" lon="-105.2297889">
  <ele>1583.0</ele>
  <time>2026-08-28T17:55:45Z</time>
  <course>0.0</course>
  <speed>0.0</speed>
  <fix>3d</fix>
</trkpt>
<trkpt lat="40.0713749" lon="-105.2297889">
  <ele>1583.0</ele>
  <time>2026-08-28T17:55:45Z</time>
  <course>276.04</course>
  <speed>0.01414213562373095</speed>
  <fix>3d</fix>
</trkpt>
<trkpt lat="40.0713749" lon="-105.2297889">
  <ele>1583.0</ele>
  <time>2026-08-28T17:55:45Z</time>
  <course>0.0</course>
  <speed>0.0</speed>
  <fix>3d</fix>
</trkpt>
<trkpt lat="40.0713749" lon="-105.2297889">
  <ele>1583.0</ele>
  <time>2026-08-28T17:55:45Z</time>
  <course>276.04</course>
  <speed>0.01414213562373095</speed>
  <fix>3d</fix>
</trkpt>
<trkpt lat="40.0713749" lon="-105.2297889">
  <ele>1583.0</ele>
  <time>2026-08-28T17:55:45Z</time>
  <course>0.0</course>
  <speed>0.0</speed>
  <fix>3d</fix>
</trkpt>
<trkpt lat="40.0713749" lon="-105.2297889">
  <ele>1583.0</ele>
  <time>2026-08-28T17:55:45Z</time>
  <course>276.04</course>
  <speed>0.01414213562373095</speed>
  <fix>3d</fix>
</trkpt>
<trkpt lat="40.0713749" lon="-105.2297889">
  <ele>1583.0</ele>
  <time>2026-08-28T17:55:45Z</time>
  <course>0.0</course>
  <speed>0.0</speed>
  <fix>3d</fix>
</trkpt>
<trkpt lat="40.0713749" lon="-105.2297889">
  <ele>1583.0</ele>
  <time>2026-08-28T17:55:45Z</time>
  <course>276.04</course>
  <speed>0.01414213562373095</speed>
  <fix>3d</fix>
</trkpt>
<trkpt lat="40.0713749" lon="-105.2297889">
  <ele>1583.0</ele>
  <time>2026-08-28T17:55:45Z</time>
  <course>0.0</course>
  <speed>0.0</speed>
  <fix>3d</fix>
</trkpt>
<trkpt lat="40.0713749" lon="-105.2297889">
  <ele>1583.0</ele>
  <time>2026-08-28T17:55:45Z</time>
  <course>276.04</course>
  <speed>0.01414213562373095</speed>
  <fix>3d</fix>
</trkpt>
<trkpt lat="40.0713749" lon="-105.2297889">
  <ele>1583.0</ele>
  <time>2026-08-28T17:55:45Z</time>
  <course>0.0</course>
  <speed>0.0</speed>
  <fix>3d</fix>
</trkpt>
<trkpt lat="40.0713749" lon="-105.2297889">
  <ele>1583.0</ele>
  <time>2026-08-28T17:55:45Z</time>
  <course>276.04</course>
  <speed>0.01414213562373095</speed>
  <fix>3d</fix>
</trkpt>
<trkpt lat="40.0713749" lon="-105.2297889">
  <ele>1583.0</ele>
  <time>2026-08-28T17:55:45Z</time>
  <course>0.0</course>
  <speed>0.0</speed>
  <fix>3d</fix>
</trkpt>
<trkpt lat="40.0713749" lon="-105.2297889">
  <ele>1583.0</ele>
  <time>2026-08-28T17:55:45Z</time>
  <course>276.04</course>
  <speed>0.01414213562373095</speed>
  <fix>3d</fix>
</trkpt>
<trkpt lat="40.0713749" lon="-105.2297889">
  <ele>1583.0</ele>
  <time>2026-08-28T17:55:45Z</time>
  <course>0.0</course>
  <speed>0.0</speed>
  <fix>3d</fix>
</trkpt>
<trkpt lat="40.0713749" lon="-105.2297889">
  <ele>1583.0</ele>
  <time>2026-08-28T17:55:45Z</time>
  <course>276.04</course>
  <speed>0.01414213562373095</speed>
  <fix>3d</fix>
</trkpt>
<trkpt lat="40.0713749" lon="-105.2297889">
  <ele>1583.0</ele>
  <time>2026-08-28T17:55:45Z</time>
  <course>0.0</course>
  <speed>0.0</speed>
  <fix>3d</fix>
</trkpt>
<trkpt lat="40.0713749" lon="-105.2297889">
  <ele>1583.0</ele>
  <time>2026-08-28T17:55:45Z</time>
  <course>276.04</course>
  <speed>0.01414213562373095</speed>
  <fix>3d</fix>
</trkpt>
<trkpt lat="40.0713749" lon="-105.2297889">
  <ele>1583.0</ele>
  <time>2026-08-28T17:55:45Z</time>
  <course>0.0</course>
  <speed>0.0</speed>
  <fix>3d</fix>
</trkpt>
<trkpt lat="40.0713749" lon="-105.2297889">
  <ele>1583.0</ele>
  <time>2026-08-28T17:55:45Z</time>
  <course>276.04</course>
  <speed>0.01414213562373095</speed>
  <fix>3d</fix>
</trkpt>
<trkpt lat="40.0713749" lon="-105.2297889">
  <ele>1583.0</ele>
  <time>2026-08-28T17:55:45Z</time>
  <course>0.0</course>
  <speed>0.0</speed>
  <fix>3d</fix>
</trkpt>
<trkpt lat="40.0713749" lon="-105.2297889">
  <ele>1583.0</ele>
  <time>2026-08-28T17:55:45Z</time>
  <course>276.04</course>
  <speed>0.01414213562373095</speed>
  <fix>3d</fix>
</trkpt>
<trkpt lat="40.0713749" lon="-105.2297889">
  <ele>1583.0</ele>
  <time>2026-08-28T17:55:45Z</time>
  <course>0.0</course>
  <speed>0.0</speed>
  <fix>3d</fix>
</trkpt>
<trkpt lat="40.0713749" lon="-105.2297889">
  <ele>1583.0</ele>
  <time>2026-08-28T17:55:45Z</time>
  <course>276.04</course>
  <speed>0.01414213562373095</speed>
  <fix>3d</fix>
</trkpt>
<trkpt lat="40.0713749" lon="-105.2297889">
  <ele>1583.0</ele>
  <time>2026-08-28T17:55:45Z</time>
  <course>0.0</course>
  <speed>0.0</speed>
  <fix>3d</fix>
</trkpt>
<trkpt lat="40.0713749" lon="-105.2297889">
  <ele>1583.0</ele>
  <time>2026-08-28T17:55:45Z</time>
  <course>276.04</course>
  <speed>0.01414213562373095</speed>
  <fix>3d</fix>
</trkpt>
<trkpt lat="40.0713749" lon="-105.2297889">
  <ele>1583.0</ele>
  <time>2026-08-28T17:55:45Z</time>
  <course>0.0</course>
  <speed>0.0</speed>
  <fix>3d</fix>
</trkpt>
<trkpt lat="40.0713749" lon="-105.2297889">
  <ele>1583.0</ele>
  <time>2026-08-28T17:55:45Z</time>
  <course>276.04</course>
  <speed>0.01414213562373095</speed>
  <fix>3d</fix>
</trkpt>
<trkpt lat="40.0713749" lon="-105.2297889">
  <ele>1583.0</ele>
  <time>2026-08-28T17:55:45Z</time>
  <course>0.0</course>
  <speed>0.0</speed>
  <fix>3d</fix>
</trkpt>
<trkpt lat="40.0713749" lon="-105.2297889">
  <ele>1583.0</ele>
  <time>2026-08-28T17:55:45Z</time>
  <course>276.04</course>
  <speed>0.01414213562373095</speed>
  <fix>3d</fix>
</trkpt>
<trkpt lat="40.0713749" lon="-105.2297889">
  <ele>1583.0</ele>
  <time>2026-08-28T17:55:45Z</time>
  <course>0.0</course>
  <speed>0.0</speed>
  <fix>3d</fix>
</trkpt>
<trkpt lat="40.0713749" lon="-105.2297889">
  <ele>1583.0</ele>
  <time>2026-08-28T17:55:45Z</time>
  <course>276.04</course>
  <speed>0.01414213562373095</speed>
  <fix>3d</fix>
</trkpt>
<trkpt lat="40.0713749" lon="-105.2297889">
  <ele>1583.0</ele>
  <time>2026-08-28T17:55:45Z</time>
  <course>0.0</course>
  <speed>0.0</speed>
  <fix>3d</fix>
</trkpt>
<trkpt lat="40.0713749" lon="-105.2297889">
  <ele>1583.0</ele>
  <time>2026-08-28T17:55:45Z</time>
  <course>276.04</course>
  <speed>0.01414213562373095</speed>
  <fix>3d</fix>
</trkpt>
<trkpt lat="40.0713749" lon="-105.2297889">
  <ele>1583.0</ele>
  <time>2026-08-28T17:55:45Z</time>
  <course>0.0</course>
  <speed>0.0</speed>
  <fix>3d</fix>
</trkpt>
<trkpt lat="40.0713749" lon="-105.2297889">
  <ele>1583.01</ele>
  <time>2026-08-28T17:55:45Z</time>
  <course>276.05</course>
  <speed>0.0</speed>
  <fix>3d</fix>
</trkpt>
<trkpt lat="40.0713749" lon="-105.2297889">
  <ele>1583.0</ele>
  <time>2026-08-28T17:55:45Z</time>
  <course>0.0</course>
  <speed>0.0</speed>
  <fix>3d</fix>
</trkpt>
<trkpt lat="40.0713749" lon="-105.2297889">
  <ele>1583.0</ele>
  <time>2026-08-28T17:55:45Z</time>
  <course>276.05</course>
  <speed>0.0</speed>
  <fix>3d</fix>
</trkpt>
<trkpt lat="40.0713749" lon="-105.2297889">
  <ele>1583.0</ele>
  <time>2026-08-28T17:55:45Z</time>
  <course>0.0</course>
  <speed>0.0</speed>
  <fix>3d</fix>
</trkpt>
<trkpt lat="40.0713749" lon="-105.2297889">
  <ele>1583.0</ele>
  <time>2026-08-28T17:55:45Z</time>
  <course>276.05</course>
  <speed>0.0</speed>
  <fix>3d</fix>
</trkpt>
<trkpt lat="40.0713749" lon="-105.2297889">
  <ele>1583.0</ele>
  <time>2026-08-28T17:55:45Z</time>
  <course>0.0</course>
  <speed>0.0</speed>
  <fix>3d</fix>
</trkpt>
<trkpt lat="40.0713749" lon="-105.2297889">
  <ele>1582.99</ele>
  <time>2026-08-28T17:55:45Z</time>
  <course>276.05</course>
  <speed>0.0</speed>
  <fix>3d</fix>
</trkpt>
<trkpt lat="40.0713749" lon="-105.2297889">
  <ele>1583.0</ele>
  <time>2026-08-28T17:55:45Z</time>
  <course>0.0</course>
  <speed>0.0</speed>
  <fix>3d</fix>
</trkpt>
<trkpt lat="40.0713749" lon="-105.2297889">
  <ele>1582.99</ele>
  <time>2026-08-28T17:55:45Z</time>
  <course>276.05</course>
  <speed>0.0</speed>
  <fix>3d</fix>
</trkpt>
<trkpt lat="40.0713749" lon="-105.2297889">
  <ele>1583.0</ele>
  <time>2026-08-28T17:55:45Z</time>
  <course>0.0</course>
  <speed>0.0</speed>
  <fix>3d</fix>
</trkpt>
<trkpt lat="40.0713749" lon="-105.2297889">
  <ele>1582.99</ele>
  <time>2026-08-28T17:55:45Z</time>
  <course>276.05</course>
  <speed>0.0</speed>
  <fix>3d</fix>
</trkpt>
<trkpt lat="40.0713749" lon="-105.2297889">
  <ele>1583.0</ele>
  <time>2026-08-28T17:55:45Z</time>
  <course>0.0</course>
  <speed>0.0</speed>
  <fix>3d</fix>
</trkpt>
<trkpt lat="40.0713749" lon="-105.2297889">
  <ele>1582.98</ele>
  <time>2026-08-28T17:55:45Z</time>
  <course>276.05</course>
  <speed>0.0</speed>
  <fix>3d</fix>
</trkpt>
<trkpt lat="40.0713749" lon="-105.2297889">
  <ele>1583.0</ele>
  <time>2026-08-28T17:55:45Z</time>
  <course>0.0</course>
  <speed>0.0</speed>
  <fix>3d</fix>
</trkpt>
<trkpt lat="40.0713749" lon="-105.2297889">
  <ele>1582.98</ele>
  <time>2026-08-28T17:55:45Z</time>
  <course>276.05</course>
  <speed>0.0</speed>
  <fix>3d</fix>
</trkpt>
<trkpt lat="40.0713749" lon="-105.2297889">
  <ele>1583.0</ele>
  <time>2026-08-28T17:55:45Z</time>
  <course>0.0</course>
  <speed>0.0</speed>
  <fix>3d</fix>
</trkpt>
<trkpt lat="40.0713749" lon="-105.2297889">
  <ele>1582.98</ele>
  <time>2026-08-28T17:55:45Z</time>
  <course>276.05</course>
  <speed>0.0</speed>
  <fix>3d</fix>
</trkpt>
<trkpt lat="40.0713749" lon="-105.2297889">
  <ele>1583.0</ele>
  <time>2026-08-28T17:55:45Z</time>
  <course>0.0</course>
  <speed>0.0</speed>
  <fix>3d</fix>
</trkpt>
<trkpt lat="40.0713749" lon="-105.2297889">
  <ele>1582.98</ele>
  <time>2026-08-28T17:55:45Z</time>
  <course>276.05</course>
  <speed>0.0</speed>
  <fix>3d</fix>
</trkpt>
<trkpt lat="40.0713749" lon="-105.2297889">
  <ele>1583.0</ele>
  <time>2026-08-28T17:55:45Z</time>
  <course>0.0</course>
  <speed>0.0</speed>
  <fix>3d</fix>
</trkpt>
<trkpt lat="40.0713749" lon="-105.2297889">
  <ele>1582.98</ele>
  <time>2026-08-28T17:55:45Z</time>
  <course>276.05</course>
  <speed>0.0</speed>
  <fix>3d</fix>
</trkpt>
<trkpt lat="40.0713749" lon="-105.2297889">
  <ele>1583.0</ele>
  <time>2026-08-28T17:55:45Z</time>
  <course>0.0</course>
  <speed>0.0</speed>
  <fix>3d</fix>
</trkpt>
<trkpt lat="40.0713749" lon="-105.2297889">
  <ele>1582.97</ele>
  <time>2026-08-28T17:55:45Z</time>
  <course>276.05</course>
  <speed>0.0</speed>
  <fix>3d</fix>
</trkpt>
<trkpt lat="40.0713749" lon="-105.2297889">
  <ele>1583.0</ele>
  <time>2026-08-28T17:55:45Z</time>
  <course>0.0</course>
  <speed>0.0</speed>
  <fix>3d</fix>
</trkpt>
<trkpt lat="40.0713749" lon="-105.2297889">
  <ele>1582.97</ele>
  <time>2026-08-28T17:55:45Z</time>
  <course>276.05</course>
  <speed>0.0</speed>
  <fix>3d</fix>
</trkpt>
<trkpt lat="40.0713749" lon="-105.2297889">
  <ele>1583.0</ele>
  <time>2026-08-28T17:55:45Z</time>
  <course>0.0</course>
  <speed>0.0</speed>
  <fix>3d</fix>
</trkpt>
<trkpt lat="40.0713749" lon="-105.2297889">
  <ele>1582.97</ele>
  <time>2026-08-28T17:55:45Z</time>
  <course>276.05</course>
  <speed>0.01</speed>
  <fix>3d</fix>
</trkpt>
<trkpt lat="40.0713749" lon="-105.2297889">
  <ele>1583.0</ele>
  <time>2026-08-28T17:55:45Z</time>
  <course>0.0</course>
  <speed>0.0</speed>
  <fix>3d</fix>
</trkpt>
<trkpt lat="40.0713749" lon="-105.2297889">
  <ele>1582.97</ele>
  <time>2026-08-28T17:55:45Z</time>
  <course>276.05</course>
  <speed>0.01</speed>
  <fix>3d</fix>
</trkpt>
<trkpt lat="40.0713749" lon="-105.2297889">
  <ele>1583.0</ele>
  <time>2026-08-28T17:55:45Z</time>
  <course>0.0</course>
  <speed>0.0</speed>
  <fix>3d</fix>
</trkpt>
<trkpt lat="40.0713749" lon="-105.2297889">
  <ele>1582.97</ele>
  <time>2026-08-28T17:55:45Z</time>
  <course>276.05</course>
  <speed>0.01</speed>
  <fix>3d</fix>
</trkpt>
<trkpt lat="40.0713749" lon="-105.2297889">
  <ele>1583.0</ele>
  <time>2026-08-28T17:55:45Z</time>
  <course>0.0</course>
  <speed>0.0</speed>
  <fix>3d</fix>
</trkpt>
<trkpt lat="40.0713749" lon="-105.2297889">
  <ele>1582.97</ele>
  <time>2026-08-28T17:55:45Z</time>
  <course>276.05</course>
  <speed>0.01</speed>
  <fix>3d</fix>
</trkpt>
<trkpt lat="40.0713749" lon="-105.2297889">
  <ele>1583.0</ele>
  <time>2026-08-28T17:55:45Z</time>
  <course>0.0</course>
  <speed>0.0</speed>
  <fix>3d</fix>
</trkpt>
<trkpt lat="40.0713749" lon="-105.2297889">
  <ele>1582.97</ele>
  <time>2026-08-28T17:55:45Z</time>
  <course>276.05</course>
  <speed>0.01414213562373095</speed>
  <fix>3d</fix>
</trkpt>
<trkpt lat="40.0713749" lon="-105.2297889">
  <ele>1583.0</ele>
  <time>2026-08-28T17:55:45Z</time>
  <course>0.0</course>
  <speed>0.0</speed>
  <fix>3d</fix>
</trkpt>
<trkpt lat="40.0713749" lon="-105.2297889">
  <ele>1582.97</ele>
  <time>2026-08-28T17:55:45Z</time>
  <course>276.05</course>
  <speed>0.01414213562373095</speed>
  <fix>3d</fix>
</trkpt>
<trkpt lat="40.0713749" lon="-105.2297889">
  <ele>1583.0</ele>
  <time>2026-08-28T17:55:45Z</time>
  <course>0.0</course>
  <speed>0.0</speed>
  <fix>3d</fix>
</trkpt>
<trkpt lat="40.0713749" lon="-105.2297889">
  <ele>1582.96</ele>
  <time>2026-08-28T17:55:45Z</time>
  <course>276.05</course>
  <speed>0.01414213562373095</speed>
  <fix>3d</fix>
</trkpt>
<trkpt lat="40.0713749" lon="-105.2297889">
  <ele>1583.0</ele>
  <time>2026-08-28T17:55:45Z</time>
  <course>0.0</course>
  <speed>0.0</speed>
  <fix>3d</fix>
</trkpt>
<trkpt lat="40.0713749" lon="-105.2297889">
  <ele>1582.96</ele>
  <time>2026-08-28T17:55:45Z</time>
  <course>276.05</course>
  <speed>0.01414213562373095</speed>
  <fix>3d</fix>
</trkpt>
<trkpt lat="40.0713749" lon="-105.2297889">
  <ele>1583.0</ele>
  <time>2026-08-28T17:55:45Z</time>
  <course>0.0</course>
  <speed>0.0</speed>
  <fix>3d</fix>
</trkpt>
<trkpt lat="40.0713749" lon="-105.2297889">
  <ele>1582.95</ele>
  <time>2026-08-28T17:55:45Z</time>
  <course>246.04</course>
  <speed>0.01414213562373095</speed>
  <fix>3d</fix>
</trkpt>
<trkpt lat="40.0713749" lon="-105.2297889">
  <ele>1583.0</ele>
  <time>2026-08-28T17:55:45Z</time>
  <course>0.0</course>
  <speed>0.0</speed>
  <fix>3d</fix>
</trkpt>
<trkpt lat="40.0713749" lon="-105.2297888">
  <ele>1582.95</ele>
  <time>2026-08-28T17:55:45Z</time>
  <course>246.04</course>
  <speed>0.01414213562373095</speed>
  <fix>3d</fix>
</trkpt>
<trkpt lat="40.0713749" lon="-105.2297889">
  <ele>1583.0</ele>
  <time>2026-08-28T17:55:45Z</time>
  <course>0.0</course>
  <speed>0.0</speed>
  <fix>3d</fix>
</trkpt>
<trkpt lat="40.0713749" lon="-105.2297888">
  <ele>1582.94</ele>
  <time>2026-08-28T17:55:45Z</time>
  <course>246.04</course>
  <speed>0.01414213562373095</speed>
  <fix>3d</fix>
</trkpt>
<trkpt lat="40.0713749" lon="-105.2297889">
  <ele>1583.0</ele>
  <time>2026-08-28T17:55:45Z</time>
  <course>0.0</course>
  <speed>0.0</speed>
  <fix>3d</fix>
</trkpt>
<trkpt lat="40.0713749" lon="-105.2297888">
  <ele>1582.94</ele>
  <time>2026-08-28T17:55:45Z</time>
  <course>246.04</course>
  <speed>0.01414213562373095</speed>
  <fix>3d</fix>
</trkpt>
<trkpt lat="40.0713749" lon="-105.2297889">
  <ele>1583.0</ele>
  <time>2026-08-28T17:55:45Z</time>
  <course>0.0</course>
  <speed>0.0</speed>
  <fix>3d</fix>
</trkpt>
<trkpt lat="40.0713749" lon="-105.2297888">
  <ele>1582.93</ele>
  <time>2026-08-28T17:55:45Z</time>
  <course>246.04</course>
  <speed>0.01414213562373095</speed>
  <fix>3d</fix>
</trkpt>
<trkpt lat="40.0713749" lon="-105.2297889">
  <ele>1583.0</ele>
  <time>2026-08-28T17:55:45Z</time>
  <course>0.0</course>
  <speed>0.0</speed>
  <fix>3d</fix>
</trkpt>
<trkpt lat="40.071375" lon="-105.2297888">
  <ele>1582.92</ele>
  <time>2026-08-28T17:55:45Z</time>
  <course>246.04</course>
  <speed>0.01414213562373095</speed>
  <fix>3d</fix>
</trkpt>
<trkpt lat="40.0713749" lon="-105.2297889">
  <ele>1583.0</ele>
  <time>2026-08-28T17:55:45Z</time>
  <course>0.0</course>
  <speed>0.0</speed>
  <fix>3d</fix>
</trkpt>
<trkpt lat="40.071375" lon="-105.2297888">
  <ele>1582.92</ele>
  <time>2026-08-28T17:55:45Z</time>
  <course>246.04</course>
  <speed>0.022360679774997897</speed>
  <fix>3d</fix>
</trkpt>
<trkpt lat="40.0713749" lon="-105.2297889">
  <ele>1583.0</ele>
  <time>2026-08-28T17:55:45Z</time>
  <course>0.0</course>
  <speed>0.0</speed>
  <fix>3d</fix>
</trkpt>
<trkpt lat="40.071375" lon="-105.2297888">
  <ele>1582.93</ele>
  <time>2026-08-28T17:55:45Z</time>
  <course>246.04</course>
  <speed>0.022360679774997897</speed>
  <fix>3d</fix>
</trkpt>
<trkpt lat="40.0713749" lon="-105.2297889">
  <ele>1583.0</ele>
  <time>2026-08-28T17:55:45Z</time>
  <course>0.0</course>
  <speed>0.0</speed>
  <fix>3d</fix>
</trkpt>
<trkpt lat="40.071375" lon="-105.2297888">
  <ele>1582.94</ele>
  <time>2026-08-28T17:55:45Z</time>
  <course>246.04</course>
  <speed>0.022360679774997897</speed>
  <fix>3d</fix>
</trkpt>
<trkpt lat="40.0713749" lon="-105.2297889">
  <ele>1583.0</ele>
  <time>2026-08-28T17:55:45Z</time>
  <course>0.0</course>
  <speed>0.0</speed>
  <fix>3d</fix>
</trkpt>
<trkpt lat="40.071375" lon="-105.2297888">
  <ele>1582.94</ele>
  <time>2026-08-28T17:55:45Z</time>
  <course>246.04</course>
  <speed>0.022360679774997897</speed>
  <fix>3d</fix>
</trkpt>
<trkpt lat="40.0713749" lon="-105.2297889">
  <ele>1583.0</ele>
  <time>2026-08-28T17:55:45Z</time>
  <course>0.0</course>
  <speed>0.0</speed>
  <fix>3d</fix>
</trkpt>
<trkpt lat="40.0713751" lon="-105.2297887">
  <ele>1582.95</ele>
  <time>2026-08-28T17:55:45Z</time>
  <course>246.04</course>
  <speed>0.022360679774997897</speed>
  <fix>3d</fix>
</trkpt>
<trkpt lat="40.0713749" lon="-105.2297889">
  <ele>1583.0</ele>
  <time>2026-08-28T17:55:45Z</time>
  <course>0.0</course>
  <speed>0.0</speed>
  <fix>3d</fix>
</trkpt>
<trkpt lat="40.0713751" lon="-105.2297887">
  <ele>1582.96</ele>
  <time>2026-08-28T17:55:45Z</time>
  <course>246.04</course>
  <speed>0.022360679774997897</speed>
  <fix>3d</fix>
</trkpt>
<trkpt lat="40.0713749" lon="-105.2297889">
  <ele>1583.0</ele>
  <time>2026-08-28T17:55:45Z</time>
  <course>0.0</course>
  <speed>0.0</speed>
  <fix>3d</fix>
</trkpt>
<trkpt lat="39.655741" lon="-104.1383097">
  <ele>1566.58</ele>
  <time>2026-08-28T17:55:46Z</time>
  <course>0.0</course>
  <speed>0.0</speed>
  <fix>3d</fix>
</trkpt>
<trkpt lat="40.0713749" lon="-105.229789">
  <ele>1583.0</ele>
  <time>2026-08-28T17:55:46Z</time>
  <course>0.0</course>
  <speed>0.0</speed>
  <fix>3d</fix>
</trkpt>
<trkpt lat="40.0713749" lon="-105.229789">
  <ele>1583.0</ele>
  <time>2026-08-28T17:55:46Z</time>
  <course>238.36</course>
  <speed>0.0</speed>
  <fix>3d</fix>
</trkpt>
<trkpt lat="40.0713749" lon="-105.229789">
  <ele>1583.0</ele>
  <time>2026-08-28T17:55:46Z</time>
  <course>0.0</course>
  <speed>0.0</speed>
  <fix>3d</fix>
</trkpt>
<trkpt lat="40.0713749" lon="-105.229789">
  <ele>1583.0</ele>
  <time>2026-08-28T17:55:46Z</time>
  <course>238.44</course>
  <speed>0.0</speed>
  <fix>3d</fix>
</trkpt>
<trkpt lat="40.0713749" lon="-105.229789">
  <ele>1583.0</ele>
  <time>2026-08-28T17:55:46Z</time>
  <course>0.0</course>
  <speed>0.0</speed>
  <fix>3d</fix>
</trkpt>
<trkpt lat="40.0713749" lon="-105.229789">
  <ele>1583.0</ele>
  <time>2026-08-28T17:55:46Z</time>
  <course>238.64</course>
  <speed>0.0</speed>
  <fix>3d</fix>
</trkpt>
<trkpt lat="40.0713749" lon="-105.229789">
  <ele>1583.0</ele>
  <time>2026-08-28T17:55:46Z</time>
  <course>0.0</course>
  <speed>0.0</speed>
  <fix>3d</fix>
</trkpt>
<trkpt lat="40.0713749" lon="-105.229789">
  <ele>1583.0</ele>
  <time>2026-08-28T17:55:46Z</time>
  <course>238.93</course>
  <speed>0.0</speed>
  <fix>3d</fix>
</trkpt>
<trkpt lat="40.0713749" lon="-105.229789">
  <ele>1583.0</ele>
  <time>2026-08-28T17:55:46Z</time>
  <course>0.0</course>
  <speed>0.0</speed>
  <fix>3d</fix>
</trkpt>
<trkpt lat="40.0713749" lon="-105.229789">
  <ele>1583.0</ele>
  <time>2026-08-28T17:55:46Z</time>
  <course>239.26</course>
  <speed>0.0</speed>
  <fix>3d</fix>
</trkpt>
<trkpt lat="40.0713749" lon="-105.229789">
  <ele>1583.0</ele>
  <time>2026-08-28T17:55:46Z</time>
  <course>0.0</course>
  <speed>0.0</speed>
  <fix>3d</fix>
</trkpt>
<trkpt lat="40.0713749" lon="-105.229789">
  <ele>1583.0</ele>
  <time>2026-08-28T17:55:46Z</time>
  <course>239.61</course>
  <speed>0.0</speed>
  <fix>3d</fix>
</trkpt>
<trkpt lat="40.0713749" lon="-105.229789">
  <ele>1583.0</ele>
  <time>2026-08-28T17:55:46Z</time>
  <course>0.0</course>
  <speed>0.0</speed>
  <fix>3d</fix>
</trkpt>
<trkpt lat="40.0713749" lon="-105.229789">
  <ele>1583.0</ele>
  <time>2026-08-28T17:55:46Z</time>
  <course>239.96</course>
  <speed>0.0</speed>
  <fix>3d</fix>
</trkpt>
<trkpt lat="40.0713749" lon="-105.229789">
  <ele>1583.0</ele>
  <time>2026-08-28T17:55:46Z</time>
  <course>0.0</course>
  <speed>0.0</speed>
  <fix>3d</fix>
</trkpt>
<trkpt lat="40.0713749" lon="-105.229789">
  <ele>1583.0</ele>
  <time>2026-08-28T17:55:46Z</time>
  <course>240.29</course>
  <speed>0.0</speed>
  <fix>3d</fix>
</trkpt>
<trkpt lat="40.0713749" lon="-105.229789">
  <ele>1583.0</ele>
  <time>2026-08-28T17:55:46Z</time>
  <course>0.0</course>
  <speed>0.0</speed>
  <fix>3d</fix>
</trkpt>
<trkpt lat="40.0713749" lon="-105.229789">
  <ele>1583.0</ele>
  <time>2026-08-28T17:55:46Z</time>
  <course>240.61</course>
  <speed>0.0</speed>
  <fix>3d</fix>
</trkpt>
<trkpt lat="40.0713749" lon="-105.229789">
  <ele>1583.0</ele>
  <time>2026-08-28T17:55:46Z</time>
  <course>0.0</course>
  <speed>0.0</speed>
  <fix>3d</fix>
</trkpt>
<trkpt lat="40.0713749" lon="-105.229789">
  <ele>1583.0</ele>
  <time>2026-08-28T17:55:46Z</time>
  <course>240.92</course>
  <speed>0.0</speed>
  <fix>3d</fix>
</trkpt>
<trkpt lat="40.0713749" lon="-105.229789">
  <ele>1583.0</ele>
  <time>2026-08-28T17:55:46Z</time>
  <course>0.0</course>
  <speed>0.0</speed>
  <fix>3d</fix>
</trkpt>
<trkpt lat="40.0713749" lon="-105.229789">
  <ele>1583.0</ele>
  <time>2026-08-28T17:55:46Z</time>
  <course>241.21</course>
  <speed>0.0</speed>
  <fix>3d</fix>
</trkpt>
<trkpt lat="40.0713749" lon="-105.229789">
  <ele>1583.0</ele>
  <time>2026-08-28T17:55:46Z</time>
  <course>0.0</course>
  <speed>0.0</speed>
  <fix>3d</fix>
</trkpt>
<trkpt lat="40.0713749" lon="-105.229789">
  <ele>1583.0</ele>
  <time>2026-08-28T17:55:46Z</time>
  <course>241.49</course>
  <speed>0.0</speed>
  <fix>3d</fix>
</trkpt>
<trkpt lat="40.0713749" lon="-105.229789">
  <ele>1583.0</ele>
  <time>2026-08-28T17:55:46Z</time>
  <course>0.0</course>
  <speed>0.0</speed>
  <fix>3d</fix>
</trkpt>
<trkpt lat="40.0713749" lon="-105.229789">
  <ele>1583.0</ele>
  <time>2026-08-28T17:55:46Z</time>
  <course>241.77</course>
  <speed>0.0</speed>
  <fix>3d</fix>
</trkpt>
<trkpt lat="40.0713749" lon="-105.229789">
  <ele>1583.0</ele>
  <time>2026-08-28T17:55:46Z</time>
  <course>0.0</course>
  <speed>0.0</speed>
  <fix>3d</fix>
</trkpt>
<trkpt lat="40.0713749" lon="-105.229789">
  <ele>1583.0</ele>
  <time>2026-08-28T17:55:46Z</time>
  <course>242.03</course>
  <speed>0.0</speed>
  <fix>3d</fix>
</trkpt>
<trkpt lat="40.0713749" lon="-105.229789">
  <ele>1583.0</ele>
  <time>2026-08-28T17:55:46Z</time>
  <course>0.0</course>
  <speed>0.0</speed>
  <fix>3d</fix>
</trkpt>
<trkpt lat="40.0713749" lon="-105.229789">
  <ele>1583.0</ele>
  <time>2026-08-28T17:55:46Z</time>
  <course>242.29</course>
  <speed>0.0</speed>
  <fix>3d</fix>
</trkpt>
<trkpt lat="40.0713749" lon="-105.229789">
  <ele>1583.0</ele>
  <time>2026-08-28T17:55:46Z</time>
  <course>0.0</course>
  <speed>0.0</speed>
  <fix>3d</fix>
</trkpt>
<trkpt lat="40.0713749" lon="-105.229789">
  <ele>1583.0</ele>
  <time>2026-08-28T17:55:46Z</time>
  <course>242.54</course>
  <speed>0.0</speed>
  <fix>3d</fix>
</trkpt>
<trkpt lat="40.0713749" lon="-105.229789">
  <ele>1583.0</ele>
  <time>2026-08-28T17:55:46Z</time>
  <course>0.0</course>
  <speed>0.0</speed>
  <fix>3d</fix>
</trkpt>
<trkpt lat="40.0713749" lon="-105.229789">
  <ele>1583.0</ele>
  <time>2026-08-28T17:55:46Z</time>
  <course>242.79</course>
  <speed>0.0</speed>
  <fix>3d</fix>
</trkpt>
<trkpt lat="40.0713749" lon="-105.229789">
  <ele>1583.0</ele>
  <time>2026-08-28T17:55:46Z</time>
  <course>0.0</course>
  <speed>0.0</speed>
  <fix>3d</fix>
</trkpt>
<trkpt lat="40.0713749" lon="-105.229789">
  <ele>1583.0</ele>
  <time>2026-08-28T17:55:46Z</time>
  <course>243.02</course>
  <speed>0.0</speed>
  <fix>3d</fix>
</trkpt>
<trkpt lat="40.0713749" lon="-105.229789">
  <ele>1583.0</ele>
  <time>2026-08-28T17:55:46Z</time>
  <course>0.0</course>
  <speed>0.0</speed>
  <fix>3d</fix>
</trkpt>
<trkpt lat="40.0713749" lon="-105.229789">
  <ele>1583.0</ele>
  <time>2026-08-28T17:55:46Z</time>
  <course>243.25</course>
  <speed>0.0</speed>
  <fix>3d</fix>
</trkpt>
<trkpt lat="40.0713749" lon="-105.229789">
  <ele>1583.0</ele>
  <time>2026-08-28T17:55:46Z</time>
  <course>0.0</course>
  <speed>0.0</speed>
  <fix>3d</fix>
</trkpt>
<trkpt lat="40.0713749" lon="-105.229789">
  <ele>1583.0</ele>
  <time>2026-08-28T17:55:46Z</time>
  <course>243.47</course>
  <speed>0.0</speed>
  <fix>3d</fix>
</trkpt>
<trkpt lat="40.0713749" lon="-105.229789">
  <ele>1583.0</ele>
  <time>2026-08-28T17:55:46Z</time>
  <course>0.0</course>
  <speed>0.0</speed>
  <fix>3d</fix>
</trkpt>
<trkpt lat="40.0713749" lon="-105.229789">
  <ele>1583.0</ele>
  <time>2026-08-28T17:55:46Z</time>
  <course>243.68</course>
  <speed>0.0</speed>
  <fix>3d</fix>
</trkpt>
<trkpt lat="40.0713749" lon="-105.229789">
  <ele>1583.0</ele>
  <time>2026-08-28T17:55:46Z</time>
  <course>0.0</course>
  <speed>0.0</speed>
  <fix>3d</fix>
</trkpt>
<trkpt lat="40.0713749" lon="-105.229789">
  <ele>1583.0</ele>
  <time>2026-08-28T17:55:46Z</time>
  <course>243.89</course>
  <speed>0.0</speed>
  <fix>3d</fix>
</trkpt>
<trkpt lat="40.0713749" lon="-105.229789">
  <ele>1583.0</ele>
  <time>2026-08-28T17:55:46Z</time>
  <course>0.0</course>
  <speed>0.0</speed>
  <fix>3d</fix>
</trkpt>
<trkpt lat="40.0713749" lon="-105.229789">
  <ele>1583.0</ele>
  <time>2026-08-28T17:55:46Z</time>
  <course>244.09</course>
  <speed>0.0</speed>
  <fix>3d</fix>
</trkpt>
<trkpt lat="40.0713749" lon="-105.229789">
  <ele>1583.0</ele>
  <time>2026-08-28T17:55:46Z</time>
  <course>0.0</course>
  <speed>0.0</speed>
  <fix>3d</fix>
</trkpt>
<trkpt lat="40.0713749" lon="-105.229789">
  <ele>1583.0</ele>
  <time>2026-08-28T17:55:46Z</time>
  <course>244.28</course>
  <speed>0.0</speed>
  <fix>3d</fix>
</trkpt>
<trkpt lat="40.0713749" lon="-105.229789">
  <ele>1583.0</ele>
  <time>2026-08-28T17:55:46Z</time>
  <course>0.0</course>
  <speed>0.0</speed>
  <fix>3d</fix>
</trkpt>
<trkpt lat="40.0713749" lon="-105.229789">
  <ele>1583.0</ele>
  <time>2026-08-28T17:55:46Z</time>
  <course>244.46</course>
  <speed>0.0</speed>
  <fix>3d</fix>
</trkpt>
<trkpt lat="40.0713749" lon="-105.229789">
  <ele>1583.0</ele>
  <time>2026-08-28T17:55:46Z</time>
  <course>0.0</course>
  <speed>0.0</speed>
  <fix>3d</fix>
</trkpt>
<trkpt lat="40.0713749" lon="-105.229789">
  <ele>1583.0</ele>
  <time>2026-08-28T17:55:46Z</time>
  <course>244.64</course>
  <speed>0.0</speed>
  <fix>3d</fix>
</trkpt>
<trkpt lat="40.0713749" lon="-105.229789">
  <ele>1583.0</ele>
  <time>2026-08-28T17:55:46Z</time>
  <course>0.0</course>
  <speed>0.0</speed>
  <fix>3d</fix>
</trkpt>
<trkpt lat="40.0713749" lon="-105.229789">
  <ele>1583.0</ele>
  <time>2026-08-28T17:55:46Z</time>
  <course>244.81</course>
  <speed>0.0</speed>
  <fix>3d</fix>
</trkpt>
<trkpt lat="40.0713749" lon="-105.229789">
  <ele>1583.0</ele>
  <time>2026-08-28T17:55:46Z</time>
  <course>0.0</course>
  <speed>0.0</speed>
  <fix>3d</fix>
</trkpt>
<trkpt lat="40.0713749" lon="-105.229789">
  <ele>1583.0</ele>
  <time>2026-08-28T17:55:46Z</time>
  <course>244.97</course>
  <speed>0.0</speed>
  <fix>3d</fix>
</trkpt>
<trkpt lat="40.0713749" lon="-105.229789">
  <ele>1583.0</ele>
  <time>2026-08-28T17:55:46Z</time>
  <course>0.0</course>
  <speed>0.0</speed>
  <fix>3d</fix>
</trkpt>
<trkpt lat="40.0713749" lon="-105.229789">
  <ele>1583.0</ele>
  <time>2026-08-28T17:55:46Z</time>
  <course>245.13</course>
  <speed>0.0</speed>
  <fix>3d</fix>
</trkpt>
<trkpt lat="40.0713749" lon="-105.229789">
  <ele>1583.0</ele>
  <time>2026-08-28T17:55:46Z</time>
  <course>0.0</course>
  <speed>0.0</speed>
  <fix>3d</fix>
</trkpt>
<trkpt lat="40.0713749" lon="-105.229789">
  <ele>1583.0</ele>
  <time>2026-08-28T17:55:46Z</time>
  <course>245.29</course>
  <speed>0.0</speed>
  <fix>3d</fix>
</trkpt>
<trkpt lat="40.0713749" lon="-105.229789">
  <ele>1583.0</ele>
  <time>2026-08-28T17:55:46Z</time>
  <course>0.0</course>
  <speed>0.0</speed>
  <fix>3d</fix>
</trkpt>
<trkpt lat="40.0713749" lon="-105.229789">
  <ele>1583.0</ele>
  <time>2026-08-28T17:55:46Z</time>
  <course>245.43</course>
  <speed>0.0</speed>
  <fix>3d</fix>
</trkpt>
<trkpt lat="40.0713749" lon="-105.229789">
  <ele>1583.0</ele>
  <time>2026-08-28T17:55:46Z</time>
  <course>0.0</course>
  <speed>0.0</speed>
  <fix>3d</fix>
</trkpt>
<trkpt lat="40.0713749" lon="-105.229789">
  <ele>1583.0</ele>
  <time>2026-08-28T17:55:46Z</time>
  <course>245.57</course>
  <speed>0.0</speed>
  <fix>3d</fix>
</trkpt>
<trkpt lat="40.0713749" lon="-105.229789">
  <ele>1583.0</ele>
  <time>2026-08-28T17:55:46Z</time>
  <course>0.0</course>
  <speed>0.0</speed>
  <fix>3d</fix>
</trkpt>
<trkpt lat="40.0713749" lon="-105.229789">
  <ele>1583.0</ele>
  <time>2026-08-28T17:55:46Z</time>
  <course>245.71</course>
  <speed>0.0</speed>
  <fix>3d</fix>
</trkpt>
<trkpt lat="40.0713749" lon="-105.229789">
  <ele>1583.0</ele>
  <time>2026-08-28T17:55:46Z</time>
  <course>0.0</course>
  <speed>0.0</speed>
  <fix>3d</fix>
</trkpt>
<trkpt lat="40.0713749" lon="-105.229789">
  <ele>1583.0</ele>
  <time>2026-08-28T17:55:46Z</time>
  <course>245.84</course>
  <speed>0.0</speed>
  <fix>3d</fix>
</trkpt>
<trkpt lat="40.0713749" lon="-105.229789">
  <ele>1583.0</ele>
  <time>2026-08-28T17:55:46Z</time>
  <course>0.0</course>
  <speed>0.0</speed>
  <fix>3d</fix>
</trkpt>
<trkpt lat="40.0713749" lon="-105.229789">
  <ele>1583.0</ele>
  <time>2026-08-28T17:55:46Z</time>
  <course>245.96</course>
  <speed>0.0</speed>
  <fix>3d</fix>
</trkpt>
<trkpt lat="40.0713749" lon="-105.229789">
  <ele>1583.0</ele>
  <time>2026-08-28T17:55:46Z</time>
  <course>0.0</course>
  <speed>0.0</speed>
  <fix>3d</fix>
</trkpt>
<trkpt lat="40.0713749" lon="-105.229789">
  <ele>1583.0</ele>
  <time>2026-08-28T17:55:46Z</time>
  <course>246.08</course>
  <speed>0.0</speed>
  <fix>3d</fix>
</trkpt>
<trkpt lat="40.0713749" lon="-105.229789">
  <ele>1583.0</ele>
  <time>2026-08-28T17:55:46Z</time>
  <course>0.0</course>
  <speed>0.0</speed>
  <fix>3d</fix>
</trkpt>
<trkpt lat="40.0713749" lon="-105.229789">
  <ele>1583.0</ele>
  <time>2026-08-28T17:55:46Z</time>
  <course>246.19</course>
  <speed>0.0</speed>
  <fix>3d</fix>
</trkpt>
<trkpt lat="40.0713749" lon="-105.229789">
  <ele>1583.0</ele>
  <time>2026-08-28T17:55:46Z</time>
  <course>0.0</course>
  <speed>0.0</speed>
  <fix>3d</fix>
</trkpt>
<trkpt lat="40.0713749" lon="-105.229789">
  <ele>1583.0</ele>
  <time>2026-08-28T17:55:46Z</time>
  <course>246.3</course>
  <speed>0.0</speed>
  <fix>3d</fix>
</trkpt>
<trkpt lat="40.0713749" lon="-105.229789">
  <ele>1583.0</ele>
  <time>2026-08-28T17:55:46Z</time>
  <course>0.0</course>
  <speed>0.0</speed>
  <fix>3d</fix>
</trkpt>
<trkpt lat="40.0713749" lon="-105.229789">
  <ele>1583.0</ele>
  <time>2026-08-28T17:55:46Z</time>
  <course>246.41</course>
  <speed>0.0</speed>
  <fix>3d</fix>
</trkpt>
<trkpt lat="40.0713749" lon="-105.229789">
  <ele>1583.0</ele>
  <time>2026-08-28T17:55:46Z</time>
  <course>0.0</course>
  <speed>0.0</speed>
  <fix>3d</fix>
</trkpt>
<trkpt lat="40.0713749" lon="-105.229789">
  <ele>1583.0</ele>
  <time>2026-08-28T17:55:46Z</time>
  <course>246.51</course>
  <speed>0.0</speed>
  <fix>3d</fix>
</trkpt>
<trkpt lat="40.0713749" lon="-105.229789">
  <ele>1583.0</ele>
  <time>2026-08-28T17:55:46Z</time>
  <course>0.0</course>
  <speed>0.0</speed>
  <fix>3d</fix>
</trkpt>
<trkpt lat="40.0713749" lon="-105.229789">
  <ele>1583.0</ele>
  <time>2026-08-28T17:55:46Z</time>
  <course>246.6</course>
  <speed>0.0</speed>
  <fix>3d</fix>
</trkpt>
<trkpt lat="40.0713749" lon="-105.229789">
  <ele>1583.0</ele>
  <time>2026-08-28T17:55:46Z</time>
  <course>0.0</course>
  <speed>0.0</speed>
  <fix>3d</fix>
</trkpt>
<trkpt lat="40.0713749" lon="-105.229789">
  <ele>1583.0</ele>
  <time>2026-08-28T17:55:46Z</time>
  <course>246.7</course>
  <speed>0.0</speed>
  <fix>3d</fix>
</trkpt>
<trkpt lat="40.0713749" lon="-105.229789">
  <ele>1583.0</ele>
  <time>2026-08-28T17:55:46Z</time>
  <course>0.0</course>
  <speed>0.0</speed>
  <fix>3d</fix>
</trkpt>
<trkpt lat="40.0713749" lon="-105.229789">
  <ele>1583.0</ele>
  <time>2026-08-28T17:55:46Z</time>
  <course>246.78</course>
  <speed>0.0</speed>
  <fix>3d</fix>
</trkpt>
<trkpt lat="40.0713749" lon="-105.229789">
  <ele>1583.0</ele>
  <time>2026-08-28T17:55:46Z</time>
  <course>0.0</course>
  <speed>0.0</speed>
  <fix>3d</fix>
</trkpt>
<trkpt lat="40.0713749" lon="-105.229789">
  <ele>1583.0</ele>
  <time>2026-08-28T17:55:46Z</time>
  <course>246.87</course>
  <speed>0.0</speed>
  <fix>3d</fix>
</trkpt>
<trkpt lat="40.0713749" lon="-105.229789">
  <ele>1583.0</ele>
  <time>2026-08-28T17:55:46Z</time>
  <course>0.0</course>
  <speed>0.0</speed>
  <fix>3d</fix>
</trkpt>
<trkpt lat="40.0713749" lon="-105.229789">
  <ele>1583.0</ele>
  <time>2026-08-28T17:55:46Z</time>
  <course>246.95</course>
  <speed>0.0</speed>
  <fix>3d</fix>
</trkpt>
<trkpt lat="40.0713749" lon="-105.229789">
  <ele>1583.0</ele>
  <time>2026-08-28T17:55:46Z</time>
  <course>0.0</course>
  <speed>0.0</speed>
  <fix>3d</fix>
</trkpt>
<trkpt lat="40.0713749" lon="-105.229789">
  <ele>1583.0</ele>
  <time>2026-08-28T17:55:46Z</time>
  <course>247.02</course>
  <speed>0.0</speed>
  <fix>3d</fix>
</trkpt>
<trkpt lat="40.0713749" lon="-105.229789">
  <ele>1583.0</ele>
  <time>2026-08-28T17:55:46Z</time>
  <course>0.0</course>
  <speed>0.0</speed>
  <fix>3d</fix>
</trkpt>
<trkpt lat="40.0713749" lon="-105.229789">
  <ele>1583.0</ele>
  <time>2026-08-28T17:55:46Z</time>
  <course>247.1</course>
  <speed>0.0</speed>
  <fix>3d</fix>
</trkpt>
<trkpt lat="40.0713749" lon="-105.229789">
  <ele>1583.0</ele>
  <time>2026-08-28T17:55:46Z</time>
  <course>0.0</course>
  <speed>0.0</speed>
  <fix>3d</fix>
</trkpt>
<trkpt lat="40.0713749" lon="-105.229789">
  <ele>1583.0</ele>
  <time>2026-08-28T17:55:46Z</time>
  <course>247.17</course>
  <speed>0.0</speed>
  <fix>3d</fix>
</trkpt>
<trkpt lat="40.0713749" lon="-105.229789">
  <ele>1583.0</ele>
  <time>2026-08-28T17:55:46Z</time>
  <course>0.0</course>
  <speed>0.0</speed>
  <fix>3d</fix>
</trkpt>
<trkpt lat="40.0713749" lon="-105.229789">
  <ele>1583.0</ele>
  <time>2026-08-28T17:55:46Z</time>
  <course>247.24</course>
  <speed>0.0</speed>
  <fix>3d</fix>
</trkpt>
<trkpt lat="40.0713749" lon="-105.229789">
  <ele>1583.0</ele>
  <time>2026-08-28T17:55:46Z</time>
  <course>0.0</course>
  <speed>0.0</speed>
  <fix>3d</fix>
</trkpt>
<trkpt lat="40.0713749" lon="-105.229789">
  <ele>1583.0</ele>
  <time>2026-08-28T17:55:46Z</time>
  <course>247.3</course>
  <speed>0.0</speed>
  <fix>3d</fix>
</trkpt>
<trkpt lat="40.0713749" lon="-105.229789">
  <ele>1583.0</ele>
  <time>2026-08-28T17:55:46Z</time>
  <course>0.0</course>
  <speed>0.0</speed>
  <fix>3d</fix>
</trkpt>
<trkpt lat="40.0713749" lon="-105.229789">
  <ele>1583.0</ele>
  <time>2026-08-28T17:55:46Z</time>
  <course>247.36</course>
  <speed>0.0</speed>
  <fix>3d</fix>
</trkpt>
<trkpt lat="40.0713749" lon="-105.229789">
  <ele>1583.0</ele>
  <time>2026-08-28T17:55:46Z</time>
  <course>0.0</course>
  <speed>0.0</speed>
  <fix>3d</fix>
</trkpt>
<trkpt lat="40.0713749" lon="-105.229789">
  <ele>1583.0</ele>
  <time>2026-08-28T17:55:46Z</time>
  <course>247.42</course>
  <speed>0.0</speed>
  <fix>3d</fix>
</trkpt>
<trkpt lat="40.0713749" lon="-105.229789">
  <ele>1583.0</ele>
  <time>2026-08-28T17:55:46Z</time>
  <course>0.0</course>
  <speed>0.0</speed>
  <fix>3d</fix>
</trkpt>
<trkpt lat="40.0713749" lon="-105.229789">
  <ele>1583.0</ele>
  <time>2026-08-28T17:55:46Z</time>
  <course>247.47</course>
  <speed>0.0</speed>
  <fix>3d</fix>
</trkpt>
<trkpt lat="40.0713749" lon="-105.229789">
  <ele>1583.0</ele>
  <time>2026-08-28T17:55:46Z</time>
  <course>0.0</course>
  <speed>0.0</speed>
  <fix>3d</fix>
</trkpt>
<trkpt lat="40.0713749" lon="-105.229789">
  <ele>1583.0</ele>
  <time>2026-08-28T17:55:46Z</time>
  <course>247.53</course>
  <speed>0.0</speed>
  <fix>3d</fix>
</trkpt>
<trkpt lat="40.0713749" lon="-105.229789">
  <ele>1583.0</ele>
  <time>2026-08-28T17:55:46Z</time>
  <course>0.0</course>
  <speed>0.0</speed>
  <fix>3d</fix>
</trkpt>
<trkpt lat="40.0713749" lon="-105.229789">
  <ele>1583.0</ele>
  <time>2026-08-28T17:55:46Z</time>
  <course>247.58</course>
  <speed>0.0</speed>
  <fix>3d</fix>
</trkpt>
<trkpt lat="40.0713749" lon="-105.229789">
  <ele>1583.0</ele>
  <time>2026-08-28T17:55:46Z</time>
  <course>0.0</course>
  <speed>0.0</speed>
  <fix>3d</fix>
</trkpt>
<trkpt lat="40.0713749" lon="-105.229789">
  <ele>1583.0</ele>
  <time>2026-08-28T17:55:46Z</time>
  <course>247.63</course>
  <speed>0.0</speed>
  <fix>3d</fix>
</trkpt>
<trkpt lat="40.0713749" lon="-105.229789">
  <ele>1583.0</ele>
  <time>2026-08-28T17:55:46Z</time>
  <course>0.0</course>
  <speed>0.0</speed>
  <fix>3d</fix>
</trkpt>
<trkpt lat="40.0713749" lon="-105.229789">
  <ele>1583.0</ele>
  <time>2026-08-28T17:55:46Z</time>
  <course>247.67</course>
  <speed>0.0</speed>
  <fix>3d</fix>
</trkpt>
<trkpt lat="40.0713749" lon="-105.229789">
  <ele>1583.0</ele>
  <time>2026-08-28T17:55:46Z</time>
  <course>0.0</course>
  <speed>0.0</speed>
  <fix>3d</fix>
</trkpt>
<trkpt lat="40.0713749" lon="-105.229789">
  <ele>1583.0</ele>
  <time>2026-08-28T17:55:46Z</time>
  <course>247.72</course>
  <speed>0.0</speed>
  <fix>3d</fix>
</trkpt>
<trkpt lat="40.0713749" lon="-105.229789">
  <ele>1583.0</ele>
  <time>2026-08-28T17:55:46Z</time>
  <course>0.0</course>
  <speed>0.0</speed>
  <fix>3d</fix>
</trkpt>
<trkpt lat="40.0713749" lon="-105.229789">
  <ele>1583.0</ele>
  <time>2026-08-28T17:55:46Z</time>
  <course>247.76</course>
  <speed>0.0</speed>
  <fix>3d</fix>
</trkpt>
<trkpt lat="40.0713749" lon="-105.229789">
  <ele>1583.0</ele>
  <time>2026-08-28T17:55:46Z</time>
  <course>0.0</course>
  <speed>0.0</speed>
  <fix>3d</fix>
</trkpt>
<trkpt lat="40.0713749" lon="-105.229789">
  <ele>1583.0</ele>
  <time>2026-08-28T17:55:46Z</time>
  <course>247.8</course>
  <speed>0.0</speed>
  <fix>3d</fix>
</trkpt>
<trkpt lat="40.0713749" lon="-105.229789">
  <ele>1583.0</ele>
  <time>2026-08-28T17:55:46Z</time>
  <course>0.0</course>
  <speed>0.0</speed>
  <fix>3d</fix>
</trkpt>
<trkpt lat="40.0713749" lon="-105.229789">
  <ele>1583.0</ele>
  <time>2026-08-28T17:55:46Z</time>
  <course>247.83</course>
  <speed>0.0</speed>
  <fix>3d</fix>
</trkpt>
<trkpt lat="40.0713749" lon="-105.229789">
  <ele>1583.0</ele>
  <time>2026-08-28T17:55:46Z</time>
  <course>0.0</course>
  <speed>0.0</speed>
  <fix>3d</fix>
</trkpt>
<trkpt lat="40.0713749" lon="-105.229789">
  <ele>1583.0</ele>
  <time>2026-08-28T17:55:46Z</time>
  <course>247.87</course>
  <speed>0.0</speed>
  <fix>3d</fix>
</trkpt>
<trkpt lat="40.0713749" lon="-105.229789">
  <ele>1583.0</ele>
  <time>2026-08-28T17:55:46Z</time>
  <course>0.0</course>
  <speed>0.0</speed>
  <fix>3d</fix>
</trkpt>
<trkpt lat="40.0713749" lon="-105.229789">
  <ele>1583.0</ele>
  <time>2026-08-28T17:55:46Z</time>
  <course>247.9</course>
  <speed>0.0</speed>
  <fix>3d</fix>
</trkpt>
<trkpt lat="40.0713749" lon="-105.229789">
  <ele>1583.0</ele>
  <time>2026-08-28T17:55:46Z</time>
  <course>0.0</course>
  <speed>0.0</speed>
  <fix>3d</fix>
</trkpt>
<trkpt lat="40.0713749" lon="-105.229789">
  <ele>1583.0</ele>
  <time>2026-08-28T17:55:46Z</time>
  <course>247.94</course>
  <speed>0.0</speed>
  <fix>3d</fix>
</trkpt>
<trkpt lat="40.0713749" lon="-105.229789">
  <ele>1583.0</ele>
  <time>2026-08-28T17:55:46Z</time>
  <course>0.0</course>
  <speed>0.0</speed>
  <fix>3d</fix>
</trkpt>
<trkpt lat="40.0713749" lon="-105.229789">
  <ele>1583.0</ele>
  <time>2026-08-28T17:55:46Z</time>
  <course>247.97</course>
  <speed>0.0</speed>
  <fix>3d</fix>
</trkpt>
<trkpt lat="40.0713749" lon="-105.229789">
  <ele>1583.0</ele>
  <time>2026-08-28T17:55:46Z</time>
  <course>0.0</course>
  <speed>0.0</speed>
  <fix>3d</fix>
</trkpt>
<trkpt lat="40.0713749" lon="-105.229789">
  <ele>1583.0</ele>
  <time>2026-08-28T17:55:46Z</time>
  <course>248.0</course>
  <speed>0.0</speed>
  <fix>3d</fix>
</trkpt>
<trkpt lat="40.0713749" lon="-105.229789">
  <ele>1583.0</ele>
  <time>2026-08-28T17:55:46Z</time>
  <course>0.0</course>
  <speed>0.0</speed>
  <fix>3d</fix>
</trkpt>
<trkpt lat="40.0713749" lon="-105.229789">
  <ele>1583.0</ele>
  <time>2026-08-28T17:55:46Z</time>
  <course>248.02</course>
  <speed>0.0</speed>
  <fix>3d</fix>
</trkpt>
<trkpt lat="40.0713749" lon="-105.229789">
  <ele>1583.0</ele>
  <time>2026-08-28T17:55:46Z</time>
  <course>0.0</course>
  <speed>0.0</speed>
  <fix>3d</fix>
</trkpt>
<trkpt lat="40.0713749" lon="-105.229789">
  <ele>1583.0</ele>
  <time>2026-08-28T17:55:46Z</time>
  <course>248.05</course>
  <speed>0.0</speed>
  <fix>3d</fix>
</trkpt>
<trkpt lat="40.0713749" lon="-105.229789">
  <ele>1583.0</ele>
  <time>2026-08-28T17:55:46Z</time>
  <course>0.0</course>
  <speed>0.0</speed>
  <fix>3d</fix>
</trkpt>
<trkpt lat="40.0713749" lon="-105.229789">
  <ele>1583.0</ele>
  <time>2026-08-28T17:55:46Z</time>
  <course>248.08</course>
  <speed>0.0</speed>
  <fix>3d</fix>
</trkpt>
<trkpt lat="40.0713749" lon="-105.229789">
  <ele>1583.0</ele>
  <time>2026-08-28T17:55:46Z</time>
  <course>0.0</course>
  <speed>0.0</speed>
  <fix>3d</fix>
</trkpt>
<trkpt lat="40.0713749" lon="-105.229789">
  <ele>1583.0</ele>
  <time>2026-08-28T17:55:46Z</time>
  <course>248.1</course>
  <speed>0.0</speed>
  <fix>3d</fix>
</trkpt>
<trkpt lat="40.0713749" lon="-105.229789">
  <ele>1583.0</ele>
  <time>2026-08-28T17:55:46Z</time>
  <course>0.0</course>
  <speed>0.0</speed>
  <fix>3d</fix>
</trkpt>
<trkpt lat="40.0713749" lon="-105.229789">
  <ele>1583.0</ele>
  <time>2026-08-28T17:55:46Z</time>
  <course>248.12</course>
  <speed>0.0</speed>
  <fix>3d</fix>
</trkpt>
<trkpt lat="40.0713749" lon="-105.229789">
  <ele>1583.0</ele>
  <time>2026-08-28T17:55:46Z</time>
  <course>0.0</course>
  <speed>0.0</speed>
  <fix>3d</fix>
</trkpt>
<trkpt lat="40.0713749" lon="-105.229789">
  <ele>1583.0</ele>
  <time>2026-08-28T17:55:46Z</time>
  <course>248.14</course>
  <speed>0.0</speed>
  <fix>3d</fix>
</trkpt>
<trkpt lat="40.0713749" lon="-105.229789">
  <ele>1583.0</ele>
  <time>2026-08-28T17:55:46Z</time>
  <course>0.0</course>
  <speed>0.0</speed>
  <fix>3d</fix>
</trkpt>
<trkpt lat="40.0713749" lon="-105.229789">
  <ele>1583.0</ele>
  <time>2026-08-28T17:55:46Z</time>
  <course>248.16</course>
  <speed>0.0</speed>
  <fix>3d</fix>
</trkpt>
<trkpt lat="40.0713749" lon="-105.229789">
  <ele>1583.0</ele>
  <time>2026-08-28T17:55:46Z</time>
  <course>0.0</course>
  <speed>0.0</speed>
  <fix>3d</fix>
</trkpt>
<trkpt lat="40.0713749" lon="-105.229789">
  <ele>1583.0</ele>
  <time>2026-08-28T17:55:46Z</time>
  <course>248.18</course>
  <speed>0.0</speed>
  <fix>3d</fix>
</trkpt>
<trkpt lat="40.0713749" lon="-105.229789">
  <ele>1583.0</ele>
  <time>2026-08-28T17:55:46Z</time>
  <course>0.0</course>
  <speed>0.0</speed>
  <fix>3d</fix>
</trkpt>
<trkpt lat="40.0713749" lon="-105.229789">
  <ele>1583.0</ele>
  <time>2026-08-28T17:55:46Z</time>
  <course>248.2</course>
  <speed>0.0</speed>
  <fix>3d</fix>
</trkpt>
<trkpt lat="40.0713749" lon="-105.229789">
  <ele>1583.0</ele>
  <time>2026-08-28T17:55:46Z</time>
  <course>0.0</course>
  <speed>0.0</speed>
  <fix>3d</fix>
</trkpt>
<trkpt lat="40.0713749" lon="-105.229789">
  <ele>1583.0</ele>
  <time>2026-08-28T17:55:46Z</time>
  <course>248.22</course>
  <speed>0.0</speed>
  <fix>3d</fix>
</trkpt>
<trkpt lat="40.0713749" lon="-105.229789">
  <ele>1583.0</ele>
  <time>2026-08-28T17:55:46Z</time>
  <course>0.0</course>
  <speed>0.0</speed>
  <fix>3d</fix>
</trkpt>
<trkpt lat="40.0713749" lon="-105.229789">
  <ele>1583.0</ele>
  <time>2026-08-28T17:55:46Z</time>
  <course>248.23</course>
  <speed>0.0</speed>
  <fix>3d</fix>
</trkpt>
<trkpt lat="40.0713749" lon="-105.229789">
  <ele>1583.0</ele>
  <time>2026-08-28T17:55:46Z</time>
  <course>0.0</course>
  <speed>0.0</speed>
  <fix>3d</fix>
</trkpt>
<trkpt lat="40.0713749" lon="-105.229789">
  <ele>1583.0</ele>
  <time>2026-08-28T17:55:46Z</time>
  <course>248.25</course>
  <speed>0.0</speed>
  <fix>3d</fix>
</trkpt>
<trkpt lat="40.0713749" lon="-105.229789">
  <ele>1583.0</ele>
  <time>2026-08-28T17:55:46Z</time>
  <course>0.0</course>
  <speed>0.0</speed>
  <fix>3d</fix>
</trkpt>
<trkpt lat="40.0713749" lon="-105.229789">
  <ele>1583.0</ele>
  <time>2026-08-28T17:55:46Z</time>
  <course>248.26</course>
  <speed>0.0</speed>
  <fix>3d</fix>
</trkpt>
<trkpt lat="40.0713749" lon="-105.229789">
  <ele>1583.0</ele>
  <time>2026-08-28T17:55:46Z</time>
  <course>0.0</course>
  <speed>0.0</speed>
  <fix>3d</fix>
</trkpt>
<trkpt lat="40.0713749" lon="-105.229789">
  <ele>1583.0</ele>
  <time>2026-08-28T17:55:46Z</time>
  <course>248.28</course>
  <speed>0.0</speed>
  <fix>3d</fix>
</trkpt>
<trkpt lat="40.0713749" lon="-105.229789">
  <ele>1583.0</ele>
  <time>2026-08-28T17:55:46Z</time>
  <course>0.0</course>
  <speed>0.0</speed>
  <fix>3d</fix>
</trkpt>
<trkpt lat="40.0713749" lon="-105.229789">
  <ele>1583.0</ele>
  <time>2026-08-28T17:55:46Z</time>
  <course>248.29</course>
  <speed>0.0</speed>
  <fix>3d</fix>
</trkpt>
<trkpt lat="40.0713749" lon="-105.229789">
  <ele>1583.0</ele>
  <time>2026-08-28T17:55:46Z</time>
  <course>0.0</course>
  <speed>0.0</speed>
  <fix>3d</fix>
</trkpt>
<trkpt lat="40.0713749" lon="-105.229789">
  <ele>1583.0</ele>
  <time>2026-08-28T17:55:46Z</time>
  <course>248.3</course>
  <speed>0.0</speed>
  <fix>3d</fix>
</trkpt>
<trkpt lat="40.0713749" lon="-105.229789">
  <ele>1583.0</ele>
  <time>2026-08-28T17:55:46Z</time>
  <course>0.0</course>
  <speed>0.0</speed>
  <fix>3d</fix>
</trkpt>
<trkpt lat="40.0713749" lon="-105.229789">
  <ele>1583.0</ele>
  <time>2026-08-28T17:55:46Z</time>
  <course>248.31</course>
  <speed>0.0</speed>
  <fix>3d</fix>
</trkpt>
<trkpt lat="40.0713749" lon="-105.229789">
  <ele>1583.0</ele>
  <time>2026-08-28T17:55:46Z</time>
  <course>0.0</course>
  <speed>0.0</speed>
  <fix>3d</fix>
</trkpt>
<trkpt lat="40.0713749" lon="-105.229789">
  <ele>1583.0</ele>
  <time>2026-08-28T17:55:46Z</time>
  <course>248.32</course>
  <speed>0.0</speed>
  <fix>3d</fix>
</trkpt>
<trkpt lat="40.0713749" lon="-105.229789">
  <ele>1583.0</ele>
  <time>2026-08-28T17:55:46Z</time>
  <course>0.0</course>
  <speed>0.0</speed>
  <fix>3d</fix>
</trkpt>
<trkpt lat="40.0713749" lon="-105.229789">
  <ele>1583.0</ele>
  <time>2026-08-28T17:55:46Z</time>
  <course>248.33</course>
  <speed>0.0</speed>
  <fix>3d</fix>
</trkpt>
<trkpt lat="40.0713749" lon="-105.229789">
  <ele>1583.0</ele>
  <time>2026-08-28T17:55:46Z</time>
  <course>0.0</course>
  <speed>0.0</speed>
  <fix>3d</fix>
</trkpt>
<trkpt lat="40.0713749" lon="-105.229789">
  <ele>1583.0</ele>
  <time>2026-08-28T17:55:47Z</time>
  <course>248.34</course>
  <speed>0.0</speed>
  <fix>3d</fix>
</trkpt>
<trkpt lat="40.0713749" lon="-105.229789">
  <ele>1583.0</ele>
  <time>2026-08-28T17:55:47Z</time>
  <course>0.0</course>
  <speed>0.0</speed>
  <fix>3d</fix>
</trkpt>
<trkpt lat="40.0713749" lon="-105.229789">
  <ele>1583.0</ele>
  <time>2026-08-28T17:55:47Z</time>
  <course>248.35</course>
  <speed>0.0</speed>
  <fix>3d</fix>
</trkpt>
<trkpt lat="40.0713749" lon="-105.229789">
  <ele>1583.0</ele>
  <time>2026-08-28T17:55:47Z</time>
  <course>0.0</course>
  <speed>0.0</speed>
  <fix>3d</fix>
</trkpt>
<trkpt lat="40.0713749" lon="-105.229789">
  <ele>1583.0</ele>
  <time>2026-08-28T17:55:47Z</time>
  <course>248.35</course>
  <speed>0.0</speed>
  <fix>3d</fix>
</trkpt>
<trkpt lat="40.0713749" lon="-105.229789">
  <ele>1583.0</ele>
  <time>2026-08-28T17:55:47Z</time>
  <course>0.0</course>
  <speed>0.0</speed>
  <fix>3d</fix>
</trkpt>
<trkpt lat="40.0713749" lon="-105.229789">
  <ele>1583.0</ele>
  <time>2026-08-28T17:55:47Z</time>
  <course>248.36</course>
  <speed>0.0</speed>
  <fix>3d</fix>
</trkpt>
<trkpt lat="40.0713749" lon="-105.229789">
  <ele>1583.0</ele>
  <time>2026-08-28T17:55:47Z</time>
  <course>0.0</course>
  <speed>0.0</speed>
  <fix>3d</fix>
</trkpt>
<trkpt lat="40.0713749" lon="-105.229789">
  <ele>1583.0</ele>
  <time>2026-08-28T17:55:47Z</time>
  <course>248.37</course>
  <speed>0.0</speed>
  <fix>3d</fix>
</trkpt>
<trkpt lat="40.0713749" lon="-105.229789">
  <ele>1583.0</ele>
  <time>2026-08-28T17:55:47Z</time>
  <course>0.0</course>
  <speed>0.0</speed>
  <fix>3d</fix>
</trkpt>
<trkpt lat="40.0713749" lon="-105.229789">
  <ele>1583.0</ele>
  <time>2026-08-28T17:55:47Z</time>
  <course>248.37</course>
  <speed>0.0</speed>
  <fix>3d</fix>
</trkpt>
<trkpt lat="40.0713749" lon="-105.229789">
  <ele>1583.0</ele>
  <time>2026-08-28T17:55:47Z</time>
  <course>0.0</course>
  <speed>0.0</speed>
  <fix>3d</fix>
</trkpt>
<trkpt lat="40.0713749" lon="-105.229789">
  <ele>1583.0</ele>
  <time>2026-08-28T17:55:47Z</time>
  <course>248.38</course>
  <speed>0.0</speed>
  <fix>3d</fix>
</trkpt>
<trkpt lat="40.0713749" lon="-105.229789">
  <ele>1583.0</ele>
  <time>2026-08-28T17:55:47Z</time>
  <course>0.0</course>
  <speed>0.0</speed>
  <fix>3d</fix>
</trkpt>
<trkpt lat="40.0713749" lon="-105.229789">
  <ele>1583.0</ele>
  <time>2026-08-28T17:55:47Z</time>
  <course>248.38</course>
  <speed>0.0</speed>
  <fix>3d</fix>
</trkpt>
<trkpt lat="40.0713749" lon="-105.229789">
  <ele>1583.0</ele>
  <time>2026-08-28T17:55:47Z</time>
  <course>0.0</course>
  <speed>0.0</speed>
  <fix>3d</fix>
</trkpt>
<trkpt lat="40.0713749" lon="-105.229789">
  <ele>1583.0</ele>
  <time>2026-08-28T17:55:47Z</time>
  <course>248.39</course>
  <speed>0.0</speed>
  <fix>3d</fix>
</trkpt>
<trkpt lat="40.0713749" lon="-105.229789">
  <ele>1583.0</ele>
  <time>2026-08-28T17:55:47Z</time>
  <course>0.0</course>
  <speed>0.0</speed>
  <fix>3d</fix>
</trkpt>
<trkpt lat="40.0713749" lon="-105.229789">
  <ele>1583.0</ele>
  <time>2026-08-28T17:55:47Z</time>
  <course>248.39</course>
  <speed>0.0</speed>
  <fix>3d</fix>
</trkpt>
<trkpt lat="40.0713749" lon="-105.229789">
  <ele>1583.0</ele>
  <time>2026-08-28T17:55:47Z</time>
  <course>0.0</course>
  <speed>0.0</speed>
  <fix>3d</fix>
</trkpt>
<trkpt lat="40.0713749" lon="-105.229789">
  <ele>1583.0</ele>
  <time>2026-08-28T17:55:47Z</time>
  <course>248.4</course>
  <speed>0.0</speed>
  <fix>3d</fix>
</trkpt>
<trkpt lat="40.0713749" lon="-105.229789">
  <ele>1583.0</ele>
  <time>2026-08-28T17:55:47Z</time>
  <course>0.0</course>
  <speed>0.0</speed>
  <fix>3d</fix>
</trkpt>
<trkpt lat="40.0713749" lon="-105.229789">
  <ele>1583.0</ele>
  <time>2026-08-28T17:55:47Z</time>
  <course>248.4</course>
  <speed>0.0</speed>
  <fix>3d</fix>
</trkpt>
<trkpt lat="40.0713749" lon="-105.229789">
  <ele>1583.0</ele>
  <time>2026-08-28T17:55:47Z</time>
  <course>0.0</course>
  <speed>0.0</speed>
  <fix>3d</fix>
</trkpt>
<trkpt lat="40.0713749" lon="-105.229789">
  <ele>1583.0</ele>
  <time>2026-08-28T17:55:47Z</time>
  <course>248.4</course>
  <speed>0.0</speed>
  <fix>3d</fix>
</trkpt>
<trkpt lat="40.0713749" lon="-105.229789">
  <ele>1583.0</ele>
  <time>2026-08-28T17:55:47Z</time>
  <course>0.0</course>
  <speed>0.0</speed>
  <fix>3d</fix>
</trkpt>
<trkpt lat="40.0713749" lon="-105.229789">
  <ele>1583.0</ele>
  <time>2026-08-28T17:55:47Z</time>
  <course>248.4</course>
  <speed>0.0</speed>
  <fix>3d</fix>
</trkpt>
<trkpt lat="40.0713749" lon="-105.229789">
  <ele>1583.0</ele>
  <time>2026-08-28T17:55:47Z</time>
  <course>0.0</course>
  <speed>0.0</speed>
  <fix>3d</fix>
</trkpt>
<trkpt lat="40.0713749" lon="-105.229789">
  <ele>1583.0</ele>
  <time>2026-08-28T17:55:47Z</time>
  <course>248.41</course>
  <speed>0.0</speed>
  <fix>3d</fix>
</trkpt>
<trkpt lat="40.0713749" lon="-105.229789">
  <ele>1583.0</ele>
  <time>2026-08-28T17:55:47Z</time>
  <course>0.0</course>
  <speed>0.0</speed>
  <fix>3d</fix>
</trkpt>
<trkpt lat="40.0713749" lon="-105.229789">
  <ele>1583.0</ele>
  <time>2026-08-28T17:55:47Z</time>
  <course>248.41</course>
  <speed>0.0</speed>
  <fix>3d</fix>
</trkpt>
<trkpt lat="40.0713749" lon="-105.229789">
  <ele>1583.0</ele>
  <time>2026-08-28T17:55:47Z</time>
  <course>0.0</course>
  <speed>0.0</speed>
  <fix>3d</fix>
</trkpt>
<trkpt lat="40.0713749" lon="-105.229789">
  <ele>1583.0</ele>
  <time>2026-08-28T17:55:47Z</time>
  <course>248.41</course>
  <speed>0.0</speed>
  <fix>3d</fix>
</trkpt>
<trkpt lat="40.0713749" lon="-105.229789">
  <ele>1583.0</ele>
  <time>2026-08-28T17:55:47Z</time>
  <course>0.0</course>
  <speed>0.0</speed>
  <fix>3d</fix>
</trkpt>
<trkpt lat="40.0713749" lon="-105.229789">
  <ele>1583.0</ele>
  <time>2026-08-28T17:55:47Z</time>
  <course>248.41</course>
  <speed>0.0</speed>
  <fix>3d</fix>
</trkpt>
<trkpt lat="40.0713749" lon="-105.229789">
  <ele>1583.0</ele>
  <time>2026-08-28T17:55:47Z</time>
  <course>0.0</course>
  <speed>0.0</speed>
  <fix>3d</fix>
</trkpt>
<trkpt lat="40.0713749" lon="-105.229789">
  <ele>1583.0</ele>
  <time>2026-08-28T17:55:47Z</time>
  <course>248.41</course>
  <speed>0.0</speed>
  <fix>3d</fix>
</trkpt>
<trkpt lat="40.0713749" lon="-105.229789">
  <ele>1583.0</ele>
  <time>2026-08-28T17:55:47Z</time>
  <course>0.0</course>
  <speed>0.0</speed>
  <fix>3d</fix>
</trkpt>
<trkpt lat="40.0713749" lon="-105.229789">
  <ele>1583.0</ele>
  <time>2026-08-28T17:55:47Z</time>
  <course>248.41</course>
  <speed>0.0</speed>
  <fix>3d</fix>
</trkpt>
<trkpt lat="40.0713749" lon="-105.229789">
  <ele>1583.0</ele>
  <time>2026-08-28T17:55:47Z</time>
  <course>0.0</course>
  <speed>0.0</speed>
  <fix>3d</fix>
</trkpt>
<trkpt lat="40.0713749" lon="-105.229789">
  <ele>1583.0</ele>
  <time>2026-08-28T17:55:47Z</time>
  <course>248.41</course>
  <speed>0.0</speed>
  <fix>3d</fix>
</trkpt>
<trkpt lat="40.0713749" lon="-105.229789">
  <ele>1583.0</ele>
  <time>2026-08-28T17:55:47Z</time>
  <course>0.0</course>
  <speed>0.0</speed>
  <fix>3d</fix>
</trkpt>
<trkpt lat="40.0713749" lon="-105.229789">
  <ele>1583.0</ele>
  <time>2026-08-28T17:55:47Z</time>
  <course>248.41</course>
  <speed>0.0</speed>
  <fix>3d</fix>
</trkpt>
<trkpt lat="40.0713749" lon="-105.229789">
  <ele>1583.0</ele>
  <time>2026-08-28T17:55:47Z</time>
  <course>0.0</course>
  <speed>0.0</speed>
  <fix>3d</fix>
</trkpt>
<trkpt lat="40.0713749" lon="-105.229789">
  <ele>1583.0</ele>
  <time>2026-08-28T17:55:47Z</time>
  <course>248.41</course>
  <speed>0.0</speed>
  <fix>3d</fix>
</trkpt>
<trkpt lat="40.0713749" lon="-105.229789">
  <ele>1583.0</ele>
  <time>2026-08-28T17:55:47Z</time>
  <course>0.0</course>
  <speed>0.0</speed>
  <fix>3d</fix>
</trkpt>
<trkpt lat="40.0713749" lon="-105.229789">
  <ele>1583.0</ele>
  <time>2026-08-28T17:55:47Z</time>
  <course>248.41</course>
  <speed>0.0</speed>
  <fix>3d</fix>
</trkpt>
<trkpt lat="40.0713749" lon="-105.229789">
  <ele>1583.0</ele>
  <time>2026-08-28T17:55:47Z</time>
  <course>0.0</course>
  <speed>0.0</speed>
  <fix>3d</fix>
</trkpt>
<trkpt lat="40.0713749" lon="-105.229789">
  <ele>1583.0</ele>
  <time>2026-08-28T17:55:47Z</time>
  <course>248.41</course>
  <speed>0.0</speed>
  <fix>3d</fix>
</trkpt>
<trkpt lat="40.0713749" lon="-105.229789">
  <ele>1583.0</ele>
  <time>2026-08-28T17:55:47Z</time>
  <course>0.0</course>
  <speed>0.0</speed>
  <fix>3d</fix>
</trkpt>
<trkpt lat="40.0713749" lon="-105.229789">
  <ele>1583.0</ele>
  <time>2026-08-28T17:55:47Z</time>
  <course>248.41</course>
  <speed>0.0</speed>
  <fix>3d</fix>
</trkpt>
<trkpt lat="40.0713749" lon="-105.229789">
  <ele>1583.0</ele>
  <time>2026-08-28T17:55:47Z</time>
  <course>0.0</course>
  <speed>0.0</speed>
  <fix>3d</fix>
</trkpt>
<trkpt lat="40.0713749" lon="-105.229789">
  <ele>1583.0</ele>
  <time>2026-08-28T17:55:47Z</time>
  <course>248.41</course>
  <speed>0.0</speed>
  <fix>3d</fix>
</trkpt>
<trkpt lat="40.0713749" lon="-105.229789">
  <ele>1583.0</ele>
  <time>2026-08-28T17:55:47Z</time>
  <course>0.0</course>
  <speed>0.0</speed>
  <fix>3d</fix>
</trkpt>
<trkpt lat="40.0713749" lon="-105.229789">
  <ele>1583.0</ele>
  <time>2026-08-28T17:55:47Z</time>
  <course>248.41</course>
  <speed>0.0</speed>
  <fix>3d</fix>
</trkpt>
<trkpt lat="40.0713749" lon="-105.229789">
  <ele>1583.0</ele>
  <time>2026-08-28T17:55:47Z</time>
  <course>0.0</course>
  <speed>0.0</speed>
  <fix>3d</fix>
</trkpt>
<trkpt lat="40.0713749" lon="-105.229789">
  <ele>1583.0</ele>
  <time>2026-08-28T17:55:47Z</time>
  <course>248.41</course>
  <speed>0.0</speed>
  <fix>3d</fix>
</trkpt>
<trkpt lat="40.0713749" lon="-105.229789">
  <ele>1583.0</ele>
  <time>2026-08-28T17:55:47Z</time>
  <course>0.0</course>
  <speed>0.0</speed>
  <fix>3d</fix>
</trkpt>
<trkpt lat="40.0713749" lon="-105.229789">
  <ele>1583.0</ele>
  <time>2026-08-28T17:55:47Z</time>
  <course>248.41</course>
  <speed>0.0</speed>
  <fix>3d</fix>
</trkpt>
<trkpt lat="40.0713749" lon="-105.229789">
  <ele>1583.0</ele>
  <time>2026-08-28T17:55:47Z</time>
  <course>0.0</course>
  <speed>0.0</speed>
  <fix>3d</fix>
</trkpt>
<trkpt lat="40.0713749" lon="-105.229789">
  <ele>1583.0</ele>
  <time>2026-08-28T17:55:47Z</time>
  <course>248.4</course>
  <speed>0.0</speed>
  <fix>3d</fix>
</trkpt>
<trkpt lat="40.0713749" lon="-105.229789">
  <ele>1583.0</ele>
  <time>2026-08-28T17:55:47Z</time>
  <course>0.0</course>
  <speed>0.0</speed>
  <fix>3d</fix>
</trkpt>
<trkpt lat="40.0713749" lon="-105.229789">
  <ele>1583.0</ele>
  <time>2026-08-28T17:55:47Z</time>
  <course>248.4</course>
  <speed>0.01</speed>
  <fix>3d</fix>
</trkpt>
<trkpt lat="40.0713749" lon="-105.229789">
  <ele>1583.0</ele>
  <time>2026-08-28T17:55:47Z</time>
  <course>0.0</course>
  <speed>0.0</speed>
  <fix>3d</fix>
</trkpt>
<trkpt lat="40.0713749" lon="-105.229789">
  <ele>1583.0</ele>
  <time>2026-08-28T17:55:47Z</time>
  <course>248.4</course>
  <speed>0.01</speed>
  <fix>3d</fix>
</trkpt>
<trkpt lat="40.0713749" lon="-105.229789">
  <ele>1583.0</ele>
  <time>2026-08-28T17:55:47Z</time>
  <course>0.0</course>
  <speed>0.0</speed>
  <fix>3d</fix>
</trkpt>
<trkpt lat="40.0713749" lon="-105.229789">
  <ele>1583.0</ele>
  <time>2026-08-28T17:55:47Z</time>
  <course>248.4</course>
  <speed>0.01</speed>
  <fix>3d</fix>
</trkpt>
<trkpt lat="40.0713749" lon="-105.229789">
  <ele>1583.0</ele>
  <time>2026-08-28T17:55:47Z</time>
  <course>0.0</course>
  <speed>0.0</speed>
  <fix>3d</fix>
</trkpt>
<trkpt lat="40.0713749" lon="-105.229789">
  <ele>1583.0</ele>
  <time>2026-08-28T17:55:47Z</time>
  <course>248.4</course>
  <speed>0.01</speed>
  <fix>3d</fix>
</trkpt>
<trkpt lat="40.0713749" lon="-105.229789">
  <ele>1583.0</ele>
  <time>2026-08-28T17:55:47Z</time>
  <course>0.0</course>
  <speed>0.0</speed>
  <fix>3d</fix>
</trkpt>
<trkpt lat="40.0713749" lon="-105.229789">
  <ele>1583.0</ele>
  <time>2026-08-28T17:55:47Z</time>
  <course>248.39</course>
  <speed>0.01</speed>
  <fix>3d</fix>
</trkpt>
<trkpt lat="40.0713749" lon="-105.229789">
  <ele>1583.0</ele>
  <time>2026-08-28T17:55:47Z</time>
  <course>0.0</course>
  <speed>0.0</speed>
  <fix>3d</fix>
</trkpt>
<trkpt lat="40.0713749" lon="-105.229789">
  <ele>1583.0</ele>
  <time>2026-08-28T17:55:47Z</time>
  <course>248.39</course>
  <speed>0.01</speed>
  <fix>3d</fix>
</trkpt>
<trkpt lat="40.0713749" lon="-105.229789">
  <ele>1583.0</ele>
  <time>2026-08-28T17:55:47Z</time>
  <course>0.0</course>
  <speed>0.0</speed>
  <fix>3d</fix>
</trkpt>
<trkpt lat="40.0713749" lon="-105.229789">
  <ele>1583.0</ele>
  <time>2026-08-28T17:55:47Z</time>
  <course>248.39</course>
  <speed>0.01</speed>
  <fix>3d</fix>
</trkpt>
<trkpt lat="40.0713749" lon="-105.229789">
  <ele>1583.0</ele>
  <time>2026-08-28T17:55:47Z</time>
  <course>0.0</course>
  <speed>0.0</speed>
  <fix>3d</fix>
</trkpt>
<trkpt lat="40.0713749" lon="-105.229789">
  <ele>1583.0</ele>
  <time>2026-08-28T17:55:47Z</time>
  <course>248.38</course>
  <speed>0.01</speed>
  <fix>3d</fix>
</trkpt>
<trkpt lat="40.0713749" lon="-105.229789">
  <ele>1583.0</ele>
  <time>2026-08-28T17:55:47Z</time>
  <course>0.0</course>
  <speed>0.0</speed>
  <fix>3d</fix>
</trkpt>
<trkpt lat="40.0713749" lon="-105.229789">
  <ele>1583.0</ele>
  <time>2026-08-28T17:55:47Z</time>
  <course>248.38</course>
  <speed>0.01</speed>
  <fix>3d</fix>
</trkpt>
<trkpt lat="40.0713749" lon="-105.229789">
  <ele>1583.0</ele>
  <time>2026-08-28T17:55:47Z</time>
  <course>0.0</course>
  <speed>0.0</speed>
  <fix>3d</fix>
</trkpt>
<trkpt lat="40.0713749" lon="-105.229789">
  <ele>1583.0</ele>
  <time>2026-08-28T17:55:47Z</time>
  <course>248.38</course>
  <speed>0.01</speed>
  <fix>3d</fix>
</trkpt>
<trkpt lat="40.0713749" lon="-105.229789">
  <ele>1583.0</ele>
  <time>2026-08-28T17:55:47Z</time>
  <course>0.0</course>
  <speed>0.0</speed>
  <fix>3d</fix>
</trkpt>
<trkpt lat="40.0713749" lon="-105.229789">
  <ele>1583.0</ele>
  <time>2026-08-28T17:55:47Z</time>
  <course>248.37</course>
  <speed>0.01</speed>
  <fix>3d</fix>
</trkpt>
<trkpt lat="40.0713749" lon="-105.229789">
  <ele>1583.0</ele>
  <time>2026-08-28T17:55:47Z</time>
  <course>0.0</course>
  <speed>0.0</speed>
  <fix>3d</fix>
</trkpt>
<trkpt lat="40.0713749" lon="-105.229789">
  <ele>1583.0</ele>
  <time>2026-08-28T17:55:47Z</time>
  <course>248.37</course>
  <speed>0.01</speed>
  <fix>3d</fix>
</trkpt>
<trkpt lat="40.0713749" lon="-105.229789">
  <ele>1583.0</ele>
  <time>2026-08-28T17:55:47Z</time>
  <course>0.0</course>
  <speed>0.0</speed>
  <fix>3d</fix>
</trkpt>
<trkpt lat="40.0713749" lon="-105.229789">
  <ele>1583.0</ele>
  <time>2026-08-28T17:55:47Z</time>
  <course>248.37</course>
  <speed>0.01</speed>
  <fix>3d</fix>
</trkpt>
<trkpt lat="40.0713749" lon="-105.229789">
  <ele>1583.0</ele>
  <time>2026-08-28T17:55:47Z</time>
  <course>0.0</course>
  <speed>0.0</speed>
  <fix>3d</fix>
</trkpt>
<trkpt lat="40.0713749" lon="-105.229789">
  <ele>1583.0</ele>
  <time>2026-08-28T17:55:47Z</time>
  <course>248.36</course>
  <speed>0.01</speed>
  <fix>3d</fix>
</trkpt>
<trkpt lat="40.0713749" lon="-105.229789">
  <ele>1583.0</ele>
  <time>2026-08-28T17:55:47Z</time>
  <course>0.0</course>
  <speed>0.0</speed>
  <fix>3d</fix>
</trkpt>
<trkpt lat="40.0713749" lon="-105.229789">
  <ele>1583.0</ele>
  <time>2026-08-28T17:55:47Z</time>
  <course>248.36</course>
  <speed>0.01</speed>
  <fix>3d</fix>
</trkpt>
<trkpt lat="40.0713749" lon="-105.229789">
  <ele>1583.0</ele>
  <time>2026-08-28T17:55:47Z</time>
  <course>0.0</course>
  <speed>0.0</speed>
  <fix>3d</fix>
</trkpt>
<trkpt lat="40.0713749" lon="-105.229789">
  <ele>1583.0</ele>
  <time>2026-08-28T17:55:47Z</time>
  <course>248.36</course>
  <speed>0.01</speed>
  <fix>3d</fix>
</trkpt>
<trkpt lat="40.0713749" lon="-105.229789">
  <ele>1583.0</ele>
  <time>2026-08-28T17:55:47Z</time>
  <course>0.0</course>
  <speed>0.0</speed>
  <fix>3d</fix>
</trkpt>
<trkpt lat="40.0713749" lon="-105.229789">
  <ele>1583.0</ele>
  <time>2026-08-28T17:55:47Z</time>
  <course>248.35</course>
  <speed>0.01</speed>
  <fix>3d</fix>
</trkpt>
<trkpt lat="40.0713749" lon="-105.229789">
  <ele>1583.0</ele>
  <time>2026-08-28T17:55:47Z</time>
  <course>0.0</course>
  <speed>0.0</speed>
  <fix>3d</fix>
</trkpt>
<trkpt lat="40.0713749" lon="-105.229789">
  <ele>1583.0</ele>
  <time>2026-08-28T17:55:47Z</time>
  <course>248.35</course>
  <speed>0.01</speed>
  <fix>3d</fix>
</trkpt>
<trkpt lat="40.0713749" lon="-105.229789">
  <ele>1583.0</ele>
  <time>2026-08-28T17:55:47Z</time>
  <course>0.0</course>
  <speed>0.0</speed>
  <fix>3d</fix>
</trkpt>
<trkpt lat="40.0713749" lon="-105.229789">
  <ele>1583.0</ele>
  <time>2026-08-28T17:55:47Z</time>
  <course>248.35</course>
  <speed>0.01</speed>
  <fix>3d</fix>
</trkpt>
<trkpt lat="40.0713749" lon="-105.229789">
  <ele>1583.0</ele>
  <time>2026-08-28T17:55:47Z</time>
  <course>0.0</course>
  <speed>0.0</speed>
  <fix>3d</fix>
</trkpt>
<trkpt lat="40.0713749" lon="-105.229789">
  <ele>1583.0</ele>
  <time>2026-08-28T17:55:47Z</time>
  <course>248.34</course>
  <speed>0.01</speed>
  <fix>3d</fix>
</trkpt>
<trkpt lat="40.0713749" lon="-105.229789">
  <ele>1583.0</ele>
  <time>2026-08-28T17:55:47Z</time>
  <course>0.0</course>
  <speed>0.0</speed>
  <fix>3d</fix>
</trkpt>
<trkpt lat="40.0713749" lon="-105.229789">
  <ele>1583.0</ele>
  <time>2026-08-28T17:55:47Z</time>
  <course>248.34</course>
  <speed>0.01</speed>
  <fix>3d</fix>
</trkpt>
<trkpt lat="40.0713749" lon="-105.229789">
  <ele>1583.0</ele>
  <time>2026-08-28T17:55:47Z</time>
  <course>0.0</course>
  <speed>0.0</speed>
  <fix>3d</fix>
</trkpt>
<trkpt lat="40.0713749" lon="-105.229789">
  <ele>1583.0</ele>
  <time>2026-08-28T17:55:47Z</time>
  <course>248.33</course>
  <speed>0.01</speed>
  <fix>3d</fix>
</trkpt>
<trkpt lat="40.0713749" lon="-105.229789">
  <ele>1583.0</ele>
  <time>2026-08-28T17:55:47Z</time>
  <course>0.0</course>
  <speed>0.0</speed>
  <fix>3d</fix>
</trkpt>
<trkpt lat="40.0713749" lon="-105.229789">
  <ele>1583.0</ele>
  <time>2026-08-28T17:55:47Z</time>
  <course>248.33</course>
  <speed>0.01</speed>
  <fix>3d</fix>
</trkpt>
<trkpt lat="40.0713749" lon="-105.229789">
  <ele>1583.0</ele>
  <time>2026-08-28T17:55:47Z</time>
  <course>0.0</course>
  <speed>0.0</speed>
  <fix>3d</fix>
</trkpt>
<trkpt lat="40.0713749" lon="-105.229789">
  <ele>1583.0</ele>
  <time>2026-08-28T17:55:47Z</time>
  <course>248.32</course>
  <speed>0.01</speed>
  <fix>3d</fix>
</trkpt>
<trkpt lat="40.0713749" lon="-105.229789">
  <ele>1583.0</ele>
  <time>2026-08-28T17:55:47Z</time>
  <course>0.0</course>
  <speed>0.0</speed>
  <fix>3d</fix>
</trkpt>
<trkpt lat="40.0713749" lon="-105.229789">
  <ele>1583.0</ele>
  <time>2026-08-28T17:55:47Z</time>
  <course>248.32</course>
  <speed>0.01</speed>
  <fix>3d</fix>
</trkpt>
<trkpt lat="40.0713749" lon="-105.229789">
  <ele>1583.0</ele>
  <time>2026-08-28T17:55:47Z</time>
  <course>0.0</course>
  <speed>0.0</speed>
  <fix>3d</fix>
</trkpt>
<trkpt lat="40.0713749" lon="-105.229789">
  <ele>1583.0</ele>
  <time>2026-08-28T17:55:47Z</time>
  <course>248.32</course>
  <speed>0.01</speed>
  <fix>3d</fix>
</trkpt>
<trkpt lat="40.0713749" lon="-105.229789">
  <ele>1583.0</ele>
  <time>2026-08-28T17:55:47Z</time>
  <course>0.0</course>
  <speed>0.0</speed>
  <fix>3d</fix>
</trkpt>
<trkpt lat="40.0713749" lon="-105.229789">
  <ele>1583.0</ele>
  <time>2026-08-28T17:55:47Z</time>
  <course>248.31</course>
  <speed>0.01</speed>
  <fix>3d</fix>
</trkpt>
<trkpt lat="40.0713749" lon="-105.229789">
  <ele>1583.0</ele>
  <time>2026-08-28T17:55:47Z</time>
  <course>0.0</course>
  <speed>0.0</speed>
  <fix>3d</fix>
</trkpt>
<trkpt lat="40.0713749" lon="-105.229789">
  <ele>1583.0</ele>
  <time>2026-08-28T17:55:47Z</time>
  <course>248.31</course>
  <speed>0.01</speed>
  <fix>3d</fix>
</trkpt>
<trkpt lat="40.0713749" lon="-105.229789">
  <ele>1583.0</ele>
  <time>2026-08-28T17:55:47Z</time>
  <course>0.0</course>
  <speed>0.0</speed>
  <fix>3d</fix>
</trkpt>
<trkpt lat="40.0713749" lon="-105.229789">
  <ele>1583.0</ele>
  <time>2026-08-28T17:55:47Z</time>
  <course>248.3</course>
  <speed>0.01</speed>
  <fix>3d</fix>
</trkpt>
<trkpt lat="40.0713749" lon="-105.229789">
  <ele>1583.0</ele>
  <time>2026-08-28T17:55:47Z</time>
  <course>0.0</course>
  <speed>0.0</speed>
  <fix>3d</fix>
</trkpt>
<trkpt lat="40.0713749" lon="-105.229789">
  <ele>1583.0</ele>
  <time>2026-08-28T17:55:47Z</time>
  <course>248.3</course>
  <speed>0.01</speed>
  <fix>3d</fix>
</trkpt>
<trkpt lat="40.0713749" lon="-105.229789">
  <ele>1583.0</ele>
  <time>2026-08-28T17:55:47Z</time>
  <course>0.0</course>
  <speed>0.0</speed>
  <fix>3d</fix>
</trkpt>
<trkpt lat="40.0713749" lon="-105.229789">
  <ele>1583.0</ele>
  <time>2026-08-28T17:55:47Z</time>
  <course>248.29</course>
  <speed>0.01</speed>
  <fix>3d</fix>
</trkpt>
<trkpt lat="40.0713749" lon="-105.229789">
  <ele>1583.0</ele>
  <time>2026-08-28T17:55:47Z</time>
  <course>0.0</course>
  <speed>0.0</speed>
  <fix>3d</fix>
</trkpt>
<trkpt lat="40.0713749" lon="-105.229789">
  <ele>1583.0</ele>
  <time>2026-08-28T17:55:47Z</time>
  <course>248.29</course>
  <speed>0.01</speed>
  <fix>3d</fix>
</trkpt>
<trkpt lat="40.0713749" lon="-105.229789">
  <ele>1583.0</ele>
  <time>2026-08-28T17:55:47Z</time>
  <course>0.0</course>
  <speed>0.0</speed>
  <fix>3d</fix>
</trkpt>
<trkpt lat="40.0713749" lon="-105.229789">
  <ele>1583.0</ele>
  <time>2026-08-28T17:55:47Z</time>
  <course>248.28</course>
  <speed>0.01</speed>
  <fix>3d</fix>
</trkpt>
<trkpt lat="40.0713749" lon="-105.229789">
  <ele>1583.0</ele>
  <time>2026-08-28T17:55:47Z</time>
  <course>0.0</course>
  <speed>0.0</speed>
  <fix>3d</fix>
</trkpt>
<trkpt lat="40.0713749" lon="-105.229789">
  <ele>1583.0</ele>
  <time>2026-08-28T17:55:47Z</time>
  <course>248.28</course>
  <speed>0.01</speed>
  <fix>3d</fix>
</trkpt>
<trkpt lat="40.0713749" lon="-105.229789">
  <ele>1583.0</ele>
  <time>2026-08-28T17:55:47Z</time>
  <course>0.0</course>
  <speed>0.0</speed>
  <fix>3d</fix>
</trkpt>
<trkpt lat="40.0713749" lon="-105.229789">
  <ele>1583.0</ele>
  <time>2026-08-28T17:55:47Z</time>
  <course>248.27</course>
  <speed>0.01</speed>
  <fix>3d</fix>
</trkpt>
<trkpt lat="40.0713749" lon="-105.229789">
  <ele>1583.0</ele>
  <time>2026-08-28T17:55:47Z</time>
  <course>0.0</course>
  <speed>0.0</speed>
  <fix>3d</fix>
</trkpt>
<trkpt lat="40.0713749" lon="-105.229789">
  <ele>1583.0</ele>
  <time>2026-08-28T17:55:47Z</time>
  <course>248.27</course>
  <speed>0.01</speed>
  <fix>3d</fix>
</trkpt>
<trkpt lat="40.0713749" lon="-105.229789">
  <ele>1583.0</ele>
  <time>2026-08-28T17:55:47Z</time>
  <course>0.0</course>
  <speed>0.0</speed>
  <fix>3d</fix>
</trkpt>
<trkpt lat="40.0713749" lon="-105.229789">
  <ele>1583.0</ele>
  <time>2026-08-28T17:55:47Z</time>
  <course>248.26</course>
  <speed>0.01</speed>
  <fix>3d</fix>
</trkpt>
<trkpt lat="40.0713749" lon="-105.229789">
  <ele>1583.0</ele>
  <time>2026-08-28T17:55:47Z</time>
  <course>0.0</course>
  <speed>0.0</speed>
  <fix>3d</fix>
</trkpt>
<trkpt lat="40.0713749" lon="-105.229789">
  <ele>1583.0</ele>
  <time>2026-08-28T17:55:47Z</time>
  <course>248.26</course>
  <speed>0.01</speed>
  <fix>3d</fix>
</trkpt>
<trkpt lat="40.0713749" lon="-105.229789">
  <ele>1583.0</ele>
  <time>2026-08-28T17:55:47Z</time>
  <course>0.0</course>
  <speed>0.0</speed>
  <fix>3d</fix>
</trkpt>
<trkpt lat="40.0713749" lon="-105.229789">
  <ele>1583.0</ele>
  <time>2026-08-28T17:55:47Z</time>
  <course>248.26</course>
  <speed>0.01</speed>
  <fix>3d</fix>
</trkpt>
<trkpt lat="40.0713749" lon="-105.229789">
  <ele>1583.0</ele>
  <time>2026-08-28T17:55:47Z</time>
  <course>0.0</course>
  <speed>0.0</speed>
  <fix>3d</fix>
</trkpt>
<trkpt lat="40.0713749" lon="-105.229789">
  <ele>1583.0</ele>
  <time>2026-08-28T17:55:47Z</time>
  <course>248.25</course>
  <speed>0.01</speed>
  <fix>3d</fix>
</trkpt>
<trkpt lat="40.0713749" lon="-105.229789">
  <ele>1583.0</ele>
  <time>2026-08-28T17:55:47Z</time>
  <course>0.0</course>
  <speed>0.0</speed>
  <fix>3d</fix>
</trkpt>
<trkpt lat="40.0713749" lon="-105.229789">
  <ele>1583.0</ele>
  <time>2026-08-28T17:55:47Z</time>
  <course>248.25</course>
  <speed>0.01</speed>
  <fix>3d</fix>
</trkpt>
<trkpt lat="40.0713749" lon="-105.229789">
  <ele>1583.0</ele>
  <time>2026-08-28T17:55:47Z</time>
  <course>0.0</course>
  <speed>0.0</speed>
  <fix>3d</fix>
</trkpt>
<trkpt lat="40.0713749" lon="-105.229789">
  <ele>1583.0</ele>
  <time>2026-08-28T17:55:47Z</time>
  <course>248.24</course>
  <speed>0.01</speed>
  <fix>3d</fix>
</trkpt>
<trkpt lat="40.0713749" lon="-105.229789">
  <ele>1583.0</ele>
  <time>2026-08-28T17:55:47Z</time>
  <course>0.0</course>
  <speed>0.0</speed>
  <fix>3d</fix>
</trkpt>
<trkpt lat="40.0713749" lon="-105.229789">
  <ele>1583.0</ele>
  <time>2026-08-28T17:55:47Z</time>
  <course>248.24</course>
  <speed>0.01</speed>
  <fix>3d</fix>
</trkpt>
<trkpt lat="40.0713749" lon="-105.229789">
  <ele>1583.0</ele>
  <time>2026-08-28T17:55:47Z</time>
  <course>0.0</course>
  <speed>0.0</speed>
  <fix>3d</fix>
</trkpt>
<trkpt lat="40.0713749" lon="-105.229789">
  <ele>1583.0</ele>
  <time>2026-08-28T17:55:47Z</time>
  <course>248.23</course>
  <speed>0.01</speed>
  <fix>3d</fix>
</trkpt>
<trkpt lat="40.0713749" lon="-105.229789">
  <ele>1583.0</ele>
  <time>2026-08-28T17:55:47Z</time>
  <course>0.0</course>
  <speed>0.0</speed>
  <fix>3d</fix>
</trkpt>
<trkpt lat="40.0713749" lon="-105.229789">
  <ele>1583.0</ele>
  <time>2026-08-28T17:55:47Z</time>
  <course>248.23</course>
  <speed>0.01</speed>
  <fix>3d</fix>
</trkpt>
<trkpt lat="40.0713749" lon="-105.229789">
  <ele>1583.0</ele>
  <time>2026-08-28T17:55:47Z</time>
  <course>0.0</course>
  <speed>0.0</speed>
  <fix>3d</fix>
</trkpt>
<trkpt lat="40.0713749" lon="-105.229789">
  <ele>1583.0</ele>
  <time>2026-08-28T17:55:47Z</time>
  <course>248.22</course>
  <speed>0.01</speed>
  <fix>3d</fix>
</trkpt>
<trkpt lat="40.0713749" lon="-105.229789">
  <ele>1583.0</ele>
  <time>2026-08-28T17:55:47Z</time>
  <course>0.0</course>
  <speed>0.0</speed>
  <fix>3d</fix>
</trkpt>
<trkpt lat="40.0713749" lon="-105.229789">
  <ele>1583.0</ele>
  <time>2026-08-28T17:55:47Z</time>
  <course>248.22</course>
  <speed>0.01</speed>
  <fix>3d</fix>
</trkpt>
<trkpt lat="40.0713749" lon="-105.229789">
  <ele>1583.0</ele>
  <time>2026-08-28T17:55:47Z</time>
  <course>0.0</course>
  <speed>0.0</speed>
  <fix>3d</fix>
</trkpt>
<trkpt lat="40.0713749" lon="-105.229789">
  <ele>1583.0</ele>
  <time>2026-08-28T17:55:47Z</time>
  <course>248.21</course>
  <speed>0.01</speed>
  <fix>3d</fix>
</trkpt>
<trkpt lat="40.0713749" lon="-105.229789">
  <ele>1583.0</ele>
  <time>2026-08-28T17:55:47Z</time>
  <course>0.0</course>
  <speed>0.0</speed>
  <fix>3d</fix>
</trkpt>
<trkpt lat="40.0713749" lon="-105.229789">
  <ele>1583.0</ele>
  <time>2026-08-28T17:55:47Z</time>
  <course>248.21</course>
  <speed>0.01</speed>
  <fix>3d</fix>
</trkpt>
<trkpt lat="40.0713749" lon="-105.229789">
  <ele>1583.0</ele>
  <time>2026-08-28T17:55:47Z</time>
  <course>0.0</course>
  <speed>0.0</speed>
  <fix>3d</fix>
</trkpt>
<trkpt lat="40.0713749" lon="-105.229789">
  <ele>1583.0</ele>
  <time>2026-08-28T17:55:47Z</time>
  <course>248.2</course>
  <speed>0.01</speed>
  <fix>3d</fix>
</trkpt>
<trkpt lat="40.0713749" lon="-105.229789">
  <ele>1583.0</ele>
  <time>2026-08-28T17:55:47Z</time>
  <course>0.0</course>
  <speed>0.0</speed>
  <fix>3d</fix>
</trkpt>
<trkpt lat="40.0713749" lon="-105.229789">
  <ele>1583.0</ele>
  <time>2026-08-28T17:55:47Z</time>
  <course>248.2</course>
  <speed>0.01</speed>
  <fix>3d</fix>
</trkpt>
<trkpt lat="40.0713749" lon="-105.229789">
  <ele>1583.0</ele>
  <time>2026-08-28T17:55:47Z</time>
  <course>0.0</course>
  <speed>0.0</speed>
  <fix>3d</fix>
</trkpt>
<trkpt lat="40.0713749" lon="-105.229789">
  <ele>1583.0</ele>
  <time>2026-08-28T17:55:47Z</time>
  <course>248.19</course>
  <speed>0.01</speed>
  <fix>3d</fix>
</trkpt>
<trkpt lat="40.0713749" lon="-105.229789">
  <ele>1583.0</ele>
  <time>2026-08-28T17:55:47Z</time>
  <course>0.0</course>
  <speed>0.0</speed>
  <fix>3d</fix>
</trkpt>
<trkpt lat="40.0713749" lon="-105.229789">
  <ele>1583.0</ele>
  <time>2026-08-28T17:55:47Z</time>
  <course>248.19</course>
  <speed>0.01</speed>
  <fix>3d</fix>
</trkpt>
<trkpt lat="40.0713749" lon="-105.229789">
  <ele>1583.0</ele>
  <time>2026-08-28T17:55:47Z</time>
  <course>0.0</course>
  <speed>0.0</speed>
  <fix>3d</fix>
</trkpt>
<trkpt lat="40.0713749" lon="-105.229789">
  <ele>1583.0</ele>
  <time>2026-08-28T17:55:47Z</time>
  <course>248.18</course>
  <speed>0.01</speed>
  <fix>3d</fix>
</trkpt>
<trkpt lat="40.0713749" lon="-105.229789">
  <ele>1583.0</ele>
  <time>2026-08-28T17:55:47Z</time>
  <course>0.0</course>
  <speed>0.0</speed>
  <fix>3d</fix>
</trkpt>
<trkpt lat="40.0713749" lon="-105.229789">
  <ele>1583.0</ele>
  <time>2026-08-28T17:55:47Z</time>
  <course>248.18</course>
  <speed>0.01</speed>
  <fix>3d</fix>
</trkpt>
<trkpt lat="40.0713749" lon="-105.229789">
  <ele>1583.0</ele>
  <time>2026-08-28T17:55:47Z</time>
  <course>0.0</course>
  <speed>0.0</speed>
  <fix>3d</fix>
</trkpt>
<trkpt lat="40.0713749" lon="-105.229789">
  <ele>1583.0</ele>
  <time>2026-08-28T17:55:47Z</time>
  <course>248.17</course>
  <speed>0.022360679774997897</speed>
  <fix>3d</fix>
</trkpt>
<trkpt lat="40.0713749" lon="-105.229789">
  <ele>1583.0</ele>
  <time>2026-08-28T17:55:47Z</time>
  <course>0.0</course>
  <speed>0.0</speed>
  <fix>3d</fix>
</trkpt>
<trkpt lat="40.0713749" lon="-105.229789">
  <ele>1583.0</ele>
  <time>2026-08-28T17:55:47Z</time>
  <course>248.17</course>
  <speed>0.022360679774997897</speed>
  <fix>3d</fix>
</trkpt>
<trkpt lat="40.0713749" lon="-105.229789">
  <ele>1583.0</ele>
  <time>2026-08-28T17:55:47Z</time>
  <course>0.0</course>
  <speed>0.0</speed>
  <fix>3d</fix>
</trkpt>
<trkpt lat="40.0713749" lon="-105.229789">
  <ele>1583.0</ele>
  <time>2026-08-28T17:55:47Z</time>
  <course>248.16</course>
  <speed>0.022360679774997897</speed>
  <fix>3d</fix>
</trkpt>
<trkpt lat="40.0713749" lon="-105.229789">
  <ele>1583.0</ele>
  <time>2026-08-28T17:55:47Z</time>
  <course>0.0</course>
  <speed>0.0</speed>
  <fix>3d</fix>
</trkpt>
<trkpt lat="40.0713749" lon="-105.229789">
  <ele>1583.0</ele>
  <time>2026-08-28T17:55:47Z</time>
  <course>248.16</course>
  <speed>0.022360679774997897</speed>
  <fix>3d</fix>
</trkpt>
<trkpt lat="40.0713749" lon="-105.229789">
  <ele>1583.0</ele>
  <time>2026-08-28T17:55:47Z</time>
  <course>0.0</course>
  <speed>0.0</speed>
  <fix>3d</fix>
</trkpt>
<trkpt lat="40.0713749" lon="-105.229789">
  <ele>1583.0</ele>
  <time>2026-08-28T17:55:47Z</time>
  <course>248.15</course>
  <speed>0.022360679774997897</speed>
  <fix>3d</fix>
</trkpt>
<trkpt lat="40.0713749" lon="-105.229789">
  <ele>1583.0</ele>
  <time>2026-08-28T17:55:47Z</time>
  <course>0.0</course>
  <speed>0.0</speed>
  <fix>3d</fix>
</trkpt>
<trkpt lat="40.0713749" lon="-105.229789">
  <ele>1583.0</ele>
  <time>2026-08-28T17:55:47Z</time>
  <course>248.15</course>
  <speed>0.022360679774997897</speed>
  <fix>3d</fix>
</trkpt>
<trkpt lat="40.0713749" lon="-105.229789">
  <ele>1583.0</ele>
  <time>2026-08-28T17:55:47Z</time>
  <course>0.0</course>
  <speed>0.0</speed>
  <fix>3d</fix>
</trkpt>
<trkpt lat="40.0713749" lon="-105.229789">
  <ele>1583.0</ele>
  <time>2026-08-28T17:55:47Z</time>
  <course>248.14</course>
  <speed>0.022360679774997897</speed>
  <fix>3d</fix>
</trkpt>
<trkpt lat="40.0713749" lon="-105.229789">
  <ele>1583.0</ele>
  <time>2026-08-28T17:55:47Z</time>
  <course>0.0</course>
  <speed>0.0</speed>
  <fix>3d</fix>
</trkpt>
<trkpt lat="40.0713749" lon="-105.229789">
  <ele>1583.0</ele>
  <time>2026-08-28T17:55:47Z</time>
  <course>248.14</course>
  <speed>0.022360679774997897</speed>
  <fix>3d</fix>
</trkpt>
<trkpt lat="40.0713749" lon="-105.229789">
  <ele>1583.0</ele>
  <time>2026-08-28T17:55:47Z</time>
  <course>0.0</course>
  <speed>0.0</speed>
  <fix>3d</fix>
</trkpt>
<trkpt lat="40.0713749" lon="-105.229789">
  <ele>1583.0</ele>
  <time>2026-08-28T17:55:47Z</time>
  <course>248.13</course>
  <speed>0.022360679774997897</speed>
  <fix>3d</fix>
</trkpt>
<trkpt lat="40.0713749" lon="-105.229789">
  <ele>1583.0</ele>
  <time>2026-08-28T17:55:47Z</time>
  <course>0.0</course>
  <speed>0.0</speed>
  <fix>3d</fix>
</trkpt>
<trkpt lat="40.0713749" lon="-105.229789">
  <ele>1583.0</ele>
  <time>2026-08-28T17:55:47Z</time>
  <course>248.13</course>
  <speed>0.022360679774997897</speed>
  <fix>3d</fix>
</trkpt>
<trkpt lat="40.0713749" lon="-105.229789">
  <ele>1583.0</ele>
  <time>2026-08-28T17:55:47Z</time>
  <course>0.0</course>
  <speed>0.0</speed>
  <fix>3d</fix>
</trkpt>
<trkpt lat="40.0713749" lon="-105.229789">
  <ele>1583.0</ele>
  <time>2026-08-28T17:55:47Z</time>
  <course>248.12</course>
  <speed>0.022360679774997897</speed>
  <fix>3d</fix>
</trkpt>
<trkpt lat="40.0713749" lon="-105.229789">
  <ele>1583.0</ele>
  <time>2026-08-28T17:55:47Z</time>
  <course>0.0</course>
  <speed>0.0</speed>
  <fix>3d</fix>
</trkpt>
<trkpt lat="40.0713749" lon="-105.229789">
  <ele>1583.0</ele>
  <time>2026-08-28T17:55:47Z</time>
  <course>248.12</course>
  <speed>0.022360679774997897</speed>
  <fix>3d</fix>
</trkpt>
<trkpt lat="40.0713749" lon="-105.229789">
  <ele>1583.0</ele>
  <time>2026-08-28T17:55:47Z</time>
  <course>0.0</course>
  <speed>0.0</speed>
  <fix>3d</fix>
</trkpt>
<trkpt lat="40.0713749" lon="-105.229789">
  <ele>1583.0</ele>
  <time>2026-08-28T17:55:47Z</time>
  <course>248.11</course>
  <speed>0.022360679774997897</speed>
  <fix>3d</fix>
</trkpt>
<trkpt lat="40.0713749" lon="-105.229789">
  <ele>1583.0</ele>
  <time>2026-08-28T17:55:47Z</time>
  <course>0.0</course>
  <speed>0.0</speed>
  <fix>3d</fix>
</trkpt>
<trkpt lat="40.0713749" lon="-105.229789">
  <ele>1583.0</ele>
  <time>2026-08-28T17:55:47Z</time>
  <course>248.11</course>
  <speed>0.022360679774997897</speed>
  <fix>3d</fix>
</trkpt>
<trkpt lat="40.0713749" lon="-105.229789">
  <ele>1583.0</ele>
  <time>2026-08-28T17:55:47Z</time>
  <course>0.0</course>
  <speed>0.0</speed>
  <fix>3d</fix>
</trkpt>
<trkpt lat="40.0713749" lon="-105.229789">
  <ele>1583.0</ele>
  <time>2026-08-28T17:55:47Z</time>
  <course>248.1</course>
  <speed>0.022360679774997897</speed>
  <fix>3d</fix>
</trkpt>
<trkpt lat="40.0713749" lon="-105.229789">
  <ele>1583.0</ele>
  <time>2026-08-28T17:55:47Z</time>
  <course>0.0</course>
  <speed>0.0</speed>
  <fix>3d</fix>
</trkpt>
<trkpt lat="40.0713749" lon="-105.229789">
  <ele>1583.0</ele>
  <time>2026-08-28T17:55:47Z</time>
  <course>248.1</course>
  <speed>0.022360679774997897</speed>
  <fix>3d</fix>
</trkpt>
<trkpt lat="40.0713749" lon="-105.229789">
  <ele>1583.0</ele>
  <time>2026-08-28T17:55:47Z</time>
  <course>0.0</course>
  <speed>0.0</speed>
  <fix>3d</fix>
</trkpt>
<trkpt lat="40.0713749" lon="-105.229789">
  <ele>1583.0</ele>
  <time>2026-08-28T17:55:47Z</time>
  <course>248.09</course>
  <speed>0.022360679774997897</speed>
  <fix>3d</fix>
</trkpt>
<trkpt lat="40.0713749" lon="-105.229789">
  <ele>1583.0</ele>
  <time>2026-08-28T17:55:47Z</time>
  <course>0.0</course>
  <speed>0.0</speed>
  <fix>3d</fix>
</trkpt>
<trkpt lat="40.0713749" lon="-105.229789">
  <ele>1583.0</ele>
  <time>2026-08-28T17:55:47Z</time>
  <course>248.09</course>
  <speed>0.022360679774997897</speed>
  <fix>3d</fix>
</trkpt>
<trkpt lat="40.0713749" lon="-105.229789">
  <ele>1583.0</ele>
  <time>2026-08-28T17:55:47Z</time>
  <course>0.0</course>
  <speed>0.0</speed>
  <fix>3d</fix>
</trkpt>
<trkpt lat="40.0713749" lon="-105.229789">
  <ele>1583.0</ele>
  <time>2026-08-28T17:55:47Z</time>
  <course>248.08</course>
  <speed>0.022360679774997897</speed>
  <fix>3d</fix>
</trkpt>
<trkpt lat="40.0713749" lon="-105.229789">
  <ele>1583.0</ele>
  <time>2026-08-28T17:55:47Z</time>
  <course>0.0</course>
  <speed>0.0</speed>
  <fix>3d</fix>
</trkpt>
<trkpt lat="40.0713749" lon="-105.229789">
  <ele>1583.0</ele>
  <time>2026-08-28T17:55:47Z</time>
  <course>248.08</course>
  <speed>0.022360679774997897</speed>
  <fix>3d</fix>
</trkpt>
<trkpt lat="40.0713749" lon="-105.229789">
  <ele>1583.0</ele>
  <time>2026-08-28T17:55:47Z</time>
  <course>0.0</course>
  <speed>0.0</speed>
  <fix>3d</fix>
</trkpt>
<trkpt lat="40.0713749" lon="-105.229789">
  <ele>1583.0</ele>
  <time>2026-08-28T17:55:47Z</time>
  <course>248.07</course>
  <speed>0.022360679774997897</speed>
  <fix>3d</fix>
</trkpt>
<trkpt lat="40.0713749" lon="-105.229789">
  <ele>1583.0</ele>
  <time>2026-08-28T17:55:47Z</time>
  <course>0.0</course>
  <speed>0.0</speed>
  <fix>3d</fix>
</trkpt>
<trkpt lat="40.0713749" lon="-105.229789">
  <ele>1583.0</ele>
  <time>2026-08-28T17:55:47Z</time>
  <course>248.07</course>
  <speed>0.022360679774997897</speed>
  <fix>3d</fix>
</trkpt>
<trkpt lat="40.0713749" lon="-105.229789">
  <ele>1583.0</ele>
  <time>2026-08-28T17:55:47Z</time>
  <course>0.0</course>
  <speed>0.0</speed>
  <fix>3d</fix>
</trkpt>
<trkpt lat="40.0713749" lon="-105.229789">
  <ele>1583.0</ele>
  <time>2026-08-28T17:55:47Z</time>
  <course>248.06</course>
  <speed>0.022360679774997897</speed>
  <fix>3d</fix>
</trkpt>
<trkpt lat="40.0713749" lon="-105.229789">
  <ele>1583.0</ele>
  <time>2026-08-28T17:55:47Z</time>
  <course>0.0</course>
  <speed>0.0</speed>
  <fix>3d</fix>
</trkpt>
<trkpt lat="40.0713749" lon="-105.229789">
  <ele>1583.0</ele>
  <time>2026-08-28T17:55:47Z</time>
  <course>248.06</course>
  <speed>0.022360679774997897</speed>
  <fix>3d</fix>
</trkpt>
<trkpt lat="40.0713749" lon="-105.229789">
  <ele>1583.0</ele>
  <time>2026-08-28T17:55:47Z</time>
  <course>0.0</course>
  <speed>0.0</speed>
  <fix>3d</fix>
</trkpt>
<trkpt lat="40.0713749" lon="-105.229789">
  <ele>1583.0</ele>
  <time>2026-08-28T17:55:47Z</time>
  <course>248.05</course>
  <speed>0.022360679774997897</speed>
  <fix>3d</fix>
</trkpt>
<trkpt lat="40.0713749" lon="-105.229789">
  <ele>1583.0</ele>
  <time>2026-08-28T17:55:47Z</time>
  <course>0.0</course>
  <speed>0.0</speed>
  <fix>3d</fix>
</trkpt>
<trkpt lat="40.0713749" lon="-105.229789">
  <ele>1583.0</ele>
  <time>2026-08-28T17:55:47Z</time>
  <course>248.05</course>
  <speed>0.022360679774997897</speed>
  <fix>3d</fix>
</trkpt>
<trkpt lat="40.0713749" lon="-105.229789">
  <ele>1583.0</ele>
  <time>2026-08-28T17:55:47Z</time>
  <course>0.0</course>
  <speed>0.0</speed>
  <fix>3d</fix>
</trkpt>
<trkpt lat="40.0713749" lon="-105.229789">
  <ele>1583.0</ele>
  <time>2026-08-28T17:55:47Z</time>
  <course>248.05</course>
  <speed>0.022360679774997897</speed>
  <fix>3d</fix>
</trkpt>
<trkpt lat="40.0713749" lon="-105.229789">
  <ele>1583.0</ele>
  <time>2026-08-28T17:55:47Z</time>
  <course>0.0</course>
  <speed>0.0</speed>
  <fix>3d</fix>
</trkpt>
<trkpt lat="40.0713749" lon="-105.229789">
  <ele>1583.0</ele>
  <time>2026-08-28T17:55:47Z</time>
  <course>248.04</course>
  <speed>0.022360679774997897</speed>
  <fix>3d</fix>
</trkpt>
<trkpt lat="40.0713749" lon="-105.229789">
  <ele>1583.0</ele>
  <time>2026-08-28T17:55:47Z</time>
  <course>0.0</course>
  <speed>0.0</speed>
  <fix>3d</fix>
</trkpt>
<trkpt lat="40.0713749" lon="-105.229789">
  <ele>1583.0</ele>
  <time>2026-08-28T17:55:47Z</time>
  <course>248.04</course>
  <speed>0.022360679774997897</speed>
  <fix>3d</fix>
</trkpt>
<trkpt lat="40.0713749" lon="-105.229789">
  <ele>1583.0</ele>
  <time>2026-08-28T17:55:47Z</time>
  <course>0.0</course>
  <speed>0.0</speed>
  <fix>3d</fix>
</trkpt>
<trkpt lat="40.0713749" lon="-105.229789">
  <ele>1583.0</ele>
  <time>2026-08-28T17:55:47Z</time>
  <course>248.03</course>
  <speed>0.022360679774997897</speed>
  <fix>3d</fix>
</trkpt>
<trkpt lat="40.0713749" lon="-105.229789">
  <ele>1583.0</ele>
  <time>2026-08-28T17:55:47Z</time>
  <course>0.0</course>
  <speed>0.0</speed>
  <fix>3d</fix>
</trkpt>
<trkpt lat="40.0713749" lon="-105.229789">
  <ele>1583.0</ele>
  <time>2026-08-28T17:55:47Z</time>
  <course>248.03</course>
  <speed>0.022360679774997897</speed>
  <fix>3d</fix>
</trkpt>
<trkpt lat="40.0713749" lon="-105.229789">
  <ele>1583.0</ele>
  <time>2026-08-28T17:55:47Z</time>
  <course>0.0</course>
  <speed>0.0</speed>
  <fix>3d</fix>
</trkpt>
<trkpt lat="40.0713749" lon="-105.229789">
  <ele>1583.0</ele>
  <time>2026-08-28T17:55:47Z</time>
  <course>248.02</course>
  <speed>0.022360679774997897</speed>
  <fix>3d</fix>
</trkpt>
<trkpt lat="40.0713749" lon="-105.229789">
  <ele>1583.0</ele>
  <time>2026-08-28T17:55:47Z</time>
  <course>0.0</course>
  <speed>0.0</speed>
  <fix>3d</fix>
</trkpt>
<trkpt lat="40.0713749" lon="-105.229789">
  <ele>1583.0</ele>
  <time>2026-08-28T17:55:47Z</time>
  <course>248.02</course>
  <speed>0.022360679774997897</speed>
  <fix>3d</fix>
</trkpt>
<trkpt lat="40.0713749" lon="-105.229789">
  <ele>1583.0</ele>
  <time>2026-08-28T17:55:47Z</time>
  <course>0.0</course>
  <speed>0.0</speed>
  <fix>3d</fix>
</trkpt>
<trkpt lat="40.0713749" lon="-105.229789">
  <ele>1583.0</ele>
  <time>2026-08-28T17:55:47Z</time>
  <course>248.01</course>
  <speed>0.022360679774997897</speed>
  <fix>3d</fix>
</trkpt>
<trkpt lat="40.0713749" lon="-105.229789">
  <ele>1583.0</ele>
  <time>2026-08-28T17:55:47Z</time>
  <course>0.0</course>
  <speed>0.0</speed>
  <fix>3d</fix>
</trkpt>
<trkpt lat="40.0713749" lon="-105.229789">
  <ele>1583.0</ele>
  <time>2026-08-28T17:55:47Z</time>
  <course>248.01</course>
  <speed>0.022360679774997897</speed>
  <fix>3d</fix>
</trkpt>
<trkpt lat="40.0713749" lon="-105.229789">
  <ele>1583.0</ele>
  <time>2026-08-28T17:55:47Z</time>
  <course>0.0</course>
  <speed>0.0</speed>
  <fix>3d</fix>
</trkpt>
<trkpt lat="40.0713749" lon="-105.229789">
  <ele>1583.0</ele>
  <time>2026-08-28T17:55:47Z</time>
  <course>248.0</course>
  <speed>0.022360679774997897</speed>
  <fix>3d</fix>
</trkpt>
<trkpt lat="40.0713749" lon="-105.229789">
  <ele>1583.0</ele>
  <time>2026-08-28T17:55:47Z</time>
  <course>0.0</course>
  <speed>0.0</speed>
  <fix>3d</fix>
</trkpt>
<trkpt lat="40.0713749" lon="-105.229789">
  <ele>1583.0</ele>
  <time>2026-08-28T17:55:47Z</time>
  <course>248.0</course>
  <speed>0.022360679774997897</speed>
  <fix>3d</fix>
</trkpt>
<trkpt lat="40.0713749" lon="-105.229789">
  <ele>1583.0</ele>
  <time>2026-08-28T17:55:47Z</time>
  <course>0.0</course>
  <speed>0.0</speed>
  <fix>3d</fix>
</trkpt>
<trkpt lat="40.0713749" lon="-105.229789">
  <ele>1583.0</ele>
  <time>2026-08-28T17:55:47Z</time>
  <course>247.99</course>
  <speed>0.022360679774997897</speed>
  <fix>3d</fix>
</trkpt>
<trkpt lat="40.0713749" lon="-105.229789">
  <ele>1583.0</ele>
  <time>2026-08-28T17:55:47Z</time>
  <course>0.0</course>
  <speed>0.0</speed>
  <fix>3d</fix>
</trkpt>
<trkpt lat="40.0713749" lon="-105.229789">
  <ele>1583.0</ele>
  <time>2026-08-28T17:55:47Z</time>
  <course>247.99</course>
  <speed>0.022360679774997897</speed>
  <fix>3d</fix>
</trkpt>
<trkpt lat="40.0713749" lon="-105.229789">
  <ele>1583.0</ele>
  <time>2026-08-28T17:55:47Z</time>
  <course>0.0</course>
  <speed>0.0</speed>
  <fix>3d</fix>
</trkpt>
<trkpt lat="40.0713749" lon="-105.229789">
  <ele>1583.0</ele>
  <time>2026-08-28T17:55:47Z</time>
  <course>247.99</course>
  <speed>0.022360679774997897</speed>
  <fix>3d</fix>
</trkpt>
<trkpt lat="40.0713749" lon="-105.229789">
  <ele>1583.0</ele>
  <time>2026-08-28T17:55:47Z</time>
  <course>0.0</course>
  <speed>0.0</speed>
  <fix>3d</fix>
</trkpt>
<trkpt lat="40.0713749" lon="-105.229789">
  <ele>1583.0</ele>
  <time>2026-08-28T17:55:47Z</time>
  <course>247.98</course>
  <speed>0.022360679774997897</speed>
  <fix>3d</fix>
</trkpt>
<trkpt lat="40.0713749" lon="-105.229789">
  <ele>1583.0</ele>
  <time>2026-08-28T17:55:47Z</time>
  <course>0.0</course>
  <speed>0.0</speed>
  <fix>3d</fix>
</trkpt>
<trkpt lat="40.0713749" lon="-105.229789">
  <ele>1583.0</ele>
  <time>2026-08-28T17:55:47Z</time>
  <course>247.98</course>
  <speed>0.022360679774997897</speed>
  <fix>3d</fix>
</trkpt>
<trkpt lat="40.0713749" lon="-105.229789">
  <ele>1583.0</ele>
  <time>2026-08-28T17:55:47Z</time>
  <course>0.0</course>
  <speed>0.0</speed>
  <fix>3d</fix>
</trkpt>
<trkpt lat="40.0713749" lon="-105.229789">
  <ele>1583.0</ele>
  <time>2026-08-28T17:55:47Z</time>
  <course>247.97</course>
  <speed>0.022360679774997897</speed>
  <fix>3d</fix>
</trkpt>
<trkpt lat="40.0713749" lon="-105.229789">
  <ele>1583.0</ele>
  <time>2026-08-28T17:55:47Z</time>
  <course>0.0</course>
  <speed>0.0</speed>
  <fix>3d</fix>
</trkpt>
<trkpt lat="40.0713749" lon="-105.229789">
  <ele>1583.0</ele>
  <time>2026-08-28T17:55:47Z</time>
  <course>247.97</course>
  <speed>0.022360679774997897</speed>
  <fix>3d</fix>
</trkpt>
<trkpt lat="40.0713749" lon="-105.229789">
  <ele>1583.0</ele>
  <time>2026-08-28T17:55:47Z</time>
  <course>0.0</course>
  <speed>0.0</speed>
  <fix>3d</fix>
</trkpt>
<trkpt lat="40.0713749" lon="-105.229789">
  <ele>1583.0</ele>
  <time>2026-08-28T17:55:47Z</time>
  <course>247.96</course>
  <speed>0.022360679774997897</speed>
  <fix>3d</fix>
</trkpt>
<trkpt lat="40.0713749" lon="-105.229789">
  <ele>1583.0</ele>
  <time>2026-08-28T17:55:47Z</time>
  <course>0.0</course>
  <speed>0.0</speed>
  <fix>3d</fix>
</trkpt>
<trkpt lat="40.0713749" lon="-105.229789">
  <ele>1583.0</ele>
  <time>2026-08-28T17:55:47Z</time>
  <course>247.96</course>
  <speed>0.022360679774997897</speed>
  <fix>3d</fix>
</trkpt>
<trkpt lat="40.0713749" lon="-105.229789">
  <ele>1583.0</ele>
  <time>2026-08-28T17:55:47Z</time>
  <course>0.0</course>
  <speed>0.0</speed>
  <fix>3d</fix>
</trkpt>
<trkpt lat="40.0713749" lon="-105.229789">
  <ele>1583.0</ele>
  <time>2026-08-28T17:55:47Z</time>
  <course>247.95</course>
  <speed>0.022360679774997897</speed>
  <fix>3d</fix>
</trkpt>
<trkpt lat="40.0713749" lon="-105.229789">
  <ele>1583.0</ele>
  <time>2026-08-28T17:55:47Z</time>
  <course>0.0</course>
  <speed>0.0</speed>
  <fix>3d</fix>
</trkpt>
<trkpt lat="40.0713749" lon="-105.229789">
  <ele>1583.0</ele>
  <time>2026-08-28T17:55:47Z</time>
  <course>247.95</course>
  <speed>0.022360679774997897</speed>
  <fix>3d</fix>
</trkpt>
<trkpt lat="40.0713749" lon="-105.229789">
  <ele>1583.0</ele>
  <time>2026-08-28T17:55:47Z</time>
  <course>0.0</course>
  <speed>0.0</speed>
  <fix>3d</fix>
</trkpt>
<trkpt lat="40.0713749" lon="-105.229789">
  <ele>1583.0</ele>
  <time>2026-08-28T17:55:47Z</time>
  <course>247.95</course>
  <speed>0.022360679774997897</speed>
  <fix>3d</fix>
</trkpt>
<trkpt lat="40.0713749" lon="-105.229789">
  <ele>1583.0</ele>
  <time>2026-08-28T17:55:47Z</time>
  <course>0.0</course>
  <speed>0.0</speed>
  <fix>3d</fix>
</trkpt>
<trkpt lat="40.0713749" lon="-105.229789">
  <ele>1583.0</ele>
  <time>2026-08-28T17:55:47Z</time>
  <course>247.94</course>
  <speed>0.022360679774997897</speed>
  <fix>3d</fix>
</trkpt>
<trkpt lat="40.0713749" lon="-105.229789">
  <ele>1583.0</ele>
  <time>2026-08-28T17:55:47Z</time>
  <course>0.0</course>
  <speed>0.0</speed>
  <fix>3d</fix>
</trkpt>
<trkpt lat="40.0713749" lon="-105.229789">
  <ele>1583.0</ele>
  <time>2026-08-28T17:55:47Z</time>
  <course>247.94</course>
  <speed>0.022360679774997897</speed>
  <fix>3d</fix>
</trkpt>
<trkpt lat="40.0713749" lon="-105.229789">
  <ele>1583.0</ele>
  <time>2026-08-28T17:55:47Z</time>
  <course>0.0</course>
  <speed>0.0</speed>
  <fix>3d</fix>
</trkpt>
<trkpt lat="40.0713749" lon="-105.229789">
  <ele>1583.0</ele>
  <time>2026-08-28T17:55:47Z</time>
  <course>247.93</course>
  <speed>0.022360679774997897</speed>
  <fix>3d</fix>
</trkpt>
<trkpt lat="40.0713749" lon="-105.229789">
  <ele>1583.0</ele>
  <time>2026-08-28T17:55:47Z</time>
  <course>0.0</course>
  <speed>0.0</speed>
  <fix>3d</fix>
</trkpt>
<trkpt lat="40.0713749" lon="-105.229789">
  <ele>1583.0</ele>
  <time>2026-08-28T17:55:47Z</time>
  <course>247.93</course>
  <speed>0.022360679774997897</speed>
  <fix>3d</fix>
</trkpt>
<trkpt lat="40.0713749" lon="-105.229789">
  <ele>1583.0</ele>
  <time>2026-08-28T17:55:47Z</time>
  <course>0.0</course>
  <speed>0.0</speed>
  <fix>3d</fix>
</trkpt>
<trkpt lat="40.0713749" lon="-105.229789">
  <ele>1583.0</ele>
  <time>2026-08-28T17:55:47Z</time>
  <course>247.92</course>
  <speed>0.022360679774997897</speed>
  <fix>3d</fix>
</trkpt>
<trkpt lat="40.0713749" lon="-105.229789">
  <ele>1583.0</ele>
  <time>2026-08-28T17:55:47Z</time>
  <course>0.0</course>
  <speed>0.0</speed>
  <fix>3d</fix>
</trkpt>
<trkpt lat="40.0713749" lon="-105.229789">
  <ele>1583.0</ele>
  <time>2026-08-28T17:55:47Z</time>
  <course>247.92</course>
  <speed>0.022360679774997897</speed>
  <fix>3d</fix>
</trkpt>
<trkpt lat="40.0713749" lon="-105.229789">
  <ele>1583.0</ele>
  <time>2026-08-28T17:55:47Z</time>
  <course>0.0</course>
  <speed>0.0</speed>
  <fix>3d</fix>
</trkpt>
<trkpt lat="40.0713749" lon="-105.229789">
  <ele>1583.0</ele>
  <time>2026-08-28T17:55:47Z</time>
  <course>247.92</course>
  <speed>0.022360679774997897</speed>
  <fix>3d</fix>
</trkpt>
<trkpt lat="40.0713749" lon="-105.229789">
  <ele>1583.0</ele>
  <time>2026-08-28T17:55:47Z</time>
  <course>0.0</course>
  <speed>0.0</speed>
  <fix>3d</fix>
</trkpt>
<trkpt lat="40.0713749" lon="-105.229789">
  <ele>1583.0</ele>
  <time>2026-08-28T17:55:47Z</time>
  <course>247.91</course>
  <speed>0.022360679774997897</speed>
  <fix>3d</fix>
</trkpt>
<trkpt lat="40.0713749" lon="-105.229789">
  <ele>1583.0</ele>
  <time>2026-08-28T17:55:47Z</time>
  <course>0.0</course>
  <speed>0.0</speed>
  <fix>3d</fix>
</trkpt>
<trkpt lat="40.0713749" lon="-105.229789">
  <ele>1583.0</ele>
  <time>2026-08-28T17:55:47Z</time>
  <course>247.91</course>
  <speed>0.022360679774997897</speed>
  <fix>3d</fix>
</trkpt>
<trkpt lat="40.0713749" lon="-105.229789">
  <ele>1583.0</ele>
  <time>2026-08-28T17:55:47Z</time>
  <course>0.0</course>
  <speed>0.0</speed>
  <fix>3d</fix>
</trkpt>
<trkpt lat="40.0713749" lon="-105.229789">
  <ele>1583.0</ele>
  <time>2026-08-28T17:55:47Z</time>
  <course>247.9</course>
  <speed>0.022360679774997897</speed>
  <fix>3d</fix>
</trkpt>
<trkpt lat="40.0713749" lon="-105.229789">
  <ele>1583.0</ele>
  <time>2026-08-28T17:55:47Z</time>
  <course>0.0</course>
  <speed>0.0</speed>
  <fix>3d</fix>
</trkpt>
<trkpt lat="40.0713749" lon="-105.229789">
  <ele>1583.0</ele>
  <time>2026-08-28T17:55:47Z</time>
  <course>247.9</course>
  <speed>0.022360679774997897</speed>
  <fix>3d</fix>
</trkpt>
<trkpt lat="40.0713749" lon="-105.229789">
  <ele>1583.0</ele>
  <time>2026-08-28T17:55:47Z</time>
  <course>0.0</course>
  <speed>0.0</speed>
  <fix>3d</fix>
</trkpt>
<trkpt lat="40.0713749" lon="-105.229789">
  <ele>1583.0</ele>
  <time>2026-08-28T17:55:47Z</time>
  <course>247.89</course>
  <speed>0.022360679774997897</speed>
  <fix>3d</fix>
</trkpt>
<trkpt lat="40.0713749" lon="-105.229789">
  <ele>1583.0</ele>
  <time>2026-08-28T17:55:47Z</time>
  <course>0.0</course>
  <speed>0.0</speed>
  <fix>3d</fix>
</trkpt>
<trkpt lat="40.0713749" lon="-105.229789">
  <ele>1583.0</ele>
  <time>2026-08-28T17:55:47Z</time>
  <course>247.89</course>
  <speed>0.022360679774997897</speed>
  <fix>3d</fix>
</trkpt>
<trkpt lat="40.0713749" lon="-105.229789">
  <ele>1583.0</ele>
  <time>2026-08-28T17:55:47Z</time>
  <course>0.0</course>
  <speed>0.0</speed>
  <fix>3d</fix>
</trkpt>
<trkpt lat="40.0713749" lon="-105.229789">
  <ele>1583.0</ele>
  <time>2026-08-28T17:55:47Z</time>
  <course>247.89</course>
  <speed>0.022360679774997897</speed>
  <fix>3d</fix>
</trkpt>
<trkpt lat="40.0713749" lon="-105.229789">
  <ele>1583.0</ele>
  <time>2026-08-28T17:55:47Z</time>
  <course>0.0</course>
  <speed>0.0</speed>
  <fix>3d</fix>
</trkpt>
<trkpt lat="40.0713749" lon="-105.229789">
  <ele>1583.0</ele>
  <time>2026-08-28T17:55:47Z</time>
  <course>247.88</course>
  <speed>0.0316227766016838</speed>
  <fix>3d</fix>
</trkpt>
<trkpt lat="40.0713749" lon="-105.229789">
  <ele>1583.0</ele>
  <time>2026-08-28T17:55:47Z</time>
  <course>0.0</course>
  <speed>0.0</speed>
  <fix>3d</fix>
</trkpt>
<trkpt lat="40.0713749" lon="-105.229789">
  <ele>1583.0</ele>
  <time>2026-08-28T17:55:47Z</time>
  <course>247.88</course>
  <speed>0.0316227766016838</speed>
  <fix>3d</fix>
</trkpt>
<trkpt lat="40.0713749" lon="-105.229789">
  <ele>1583.0</ele>
  <time>2026-08-28T17:55:47Z</time>
  <course>0.0</course>
  <speed>0.0</speed>
  <fix>3d</fix>
</trkpt>
<trkpt lat="40.0713749" lon="-105.229789">
  <ele>1583.0</ele>
  <time>2026-08-28T17:55:47Z</time>
  <course>247.87</course>
  <speed>0.0316227766016838</speed>
  <fix>3d</fix>
</trkpt>
<trkpt lat="40.0713749" lon="-105.229789">
  <ele>1583.0</ele>
  <time>2026-08-28T17:55:47Z</time>
  <course>0.0</course>
  <speed>0.0</speed>
  <fix>3d</fix>
</trkpt>
<trkpt lat="40.0713749" lon="-105.229789">
  <ele>1583.0</ele>
  <time>2026-08-28T17:55:47Z</time>
  <course>247.87</course>
  <speed>0.0316227766016838</speed>
  <fix>3d</fix>
</trkpt>
<trkpt lat="40.0713749" lon="-105.229789">
  <ele>1583.0</ele>
  <time>2026-08-28T17:55:47Z</time>
  <course>0.0</course>
  <speed>0.0</speed>
  <fix>3d</fix>
</trkpt>
<trkpt lat="40.0713749" lon="-105.229789">
  <ele>1583.0</ele>
  <time>2026-08-28T17:55:47Z</time>
  <course>247.87</course>
  <speed>0.0316227766016838</speed>
  <fix>3d</fix>
</trkpt>
<trkpt lat="40.0713749" lon="-105.229789">
  <ele>1583.0</ele>
  <time>2026-08-28T17:55:47Z</time>
  <course>0.0</course>
  <speed>0.0</speed>
  <fix>3d</fix>
</trkpt>
<trkpt lat="40.0713749" lon="-105.229789">
  <ele>1583.0</ele>
  <time>2026-08-28T17:55:47Z</time>
  <course>247.86</course>
  <speed>0.0316227766016838</speed>
  <fix>3d</fix>
</trkpt>
<trkpt lat="40.0713749" lon="-105.229789">
  <ele>1583.0</ele>
  <time>2026-08-28T17:55:47Z</time>
  <course>0.0</course>
  <speed>0.0</speed>
  <fix>3d</fix>
</trkpt>
<trkpt lat="40.0713749" lon="-105.229789">
  <ele>1583.0</ele>
  <time>2026-08-28T17:55:47Z</time>
  <course>247.86</course>
  <speed>0.0316227766016838</speed>
  <fix>3d</fix>
</trkpt>
<trkpt lat="40.0713749" lon="-105.229789">
  <ele>1583.0</ele>
  <time>2026-08-28T17:55:47Z</time>
  <course>0.0</course>
  <speed>0.0</speed>
  <fix>3d</fix>
</trkpt>
<trkpt lat="40.0713749" lon="-105.229789">
  <ele>1583.0</ele>
  <time>2026-08-28T17:55:47Z</time>
  <course>247.85</course>
  <speed>0.0316227766016838</speed>
  <fix>3d</fix>
</trkpt>
<trkpt lat="40.0713749" lon="-105.229789">
  <ele>1583.0</ele>
  <time>2026-08-28T17:55:47Z</time>
  <course>0.0</course>
  <speed>0.0</speed>
  <fix>3d</fix>
</trkpt>
<trkpt lat="40.0713749" lon="-105.229789">
  <ele>1583.0</ele>
  <time>2026-08-28T17:55:47Z</time>
  <course>247.85</course>
  <speed>0.0316227766016838</speed>
  <fix>3d</fix>
</trkpt>
<trkpt lat="40.0713749" lon="-105.229789">
  <ele>1583.0</ele>
  <time>2026-08-28T17:55:47Z</time>
  <course>0.0</course>
  <speed>0.0</speed>
  <fix>3d</fix>
</trkpt>
<trkpt lat="40.0713749" lon="-105.229789">
  <ele>1583.0</ele>
  <time>2026-08-28T17:55:47Z</time>
  <course>247.85</course>
  <speed>0.0316227766016838</speed>
  <fix>3d</fix>
</trkpt>
<trkpt lat="40.0713749" lon="-105.229789">
  <ele>1583.0</ele>
  <time>2026-08-28T17:55:47Z</time>
  <course>0.0</course>
  <speed>0.0</speed>
  <fix>3d</fix>
</trkpt>
<trkpt lat="40.0713749" lon="-105.229789">
  <ele>1583.0</ele>
  <time>2026-08-28T17:55:47Z</time>
  <course>247.84</course>
  <speed>0.0316227766016838</speed>
  <fix>3d</fix>
</trkpt>
<trkpt lat="40.0713749" lon="-105.229789">
  <ele>1583.0</ele>
  <time>2026-08-28T17:55:47Z</time>
  <course>0.0</course>
  <speed>0.0</speed>
  <fix>3d</fix>
</trkpt>
<trkpt lat="40.0713749" lon="-105.229789">
  <ele>1583.0</ele>
  <time>2026-08-28T17:55:47Z</time>
  <course>247.84</course>
  <speed>0.0316227766016838</speed>
  <fix>3d</fix>
</trkpt>
<trkpt lat="40.0713749" lon="-105.229789">
  <ele>1583.0</ele>
  <time>2026-08-28T17:55:47Z</time>
  <course>0.0</course>
  <speed>0.0</speed>
  <fix>3d</fix>
</trkpt>
<trkpt lat="40.0713749" lon="-105.229789">
  <ele>1583.0</ele>
  <time>2026-08-28T17:55:47Z</time>
  <course>247.83</course>
  <speed>0.0316227766016838</speed>
  <fix>3d</fix>
</trkpt>
<trkpt lat="40.0713749" lon="-105.229789">
  <ele>1583.0</ele>
  <time>2026-08-28T17:55:47Z</time>
  <course>0.0</course>
  <speed>0.0</speed>
  <fix>3d</fix>
</trkpt>
<trkpt lat="40.0713749" lon="-105.229789">
  <ele>1583.0</ele>
  <time>2026-08-28T17:55:47Z</time>
  <course>247.83</course>
  <speed>0.0316227766016838</speed>
  <fix>3d</fix>
</trkpt>
<trkpt lat="40.0713749" lon="-105.229789">
  <ele>1583.0</ele>
  <time>2026-08-28T17:55:47Z</time>
  <course>0.0</course>
  <speed>0.0</speed>
  <fix>3d</fix>
</trkpt>
<trkpt lat="40.0713749" lon="-105.229789">
  <ele>1583.0</ele>
  <time>2026-08-28T17:55:47Z</time>
  <course>247.83</course>
  <speed>0.0316227766016838</speed>
  <fix>3d</fix>
</trkpt>
<trkpt lat="40.0713749" lon="-105.229789">
  <ele>1583.0</ele>
  <time>2026-08-28T17:55:47Z</time>
  <course>0.0</course>
  <speed>0.0</speed>
  <fix>3d</fix>
</trkpt>
<trkpt lat="40.0713749" lon="-105.229789">
  <ele>1583.0</ele>
  <time>2026-08-28T17:55:47Z</time>
  <course>247.82</course>
  <speed>0.0316227766016838</speed>
  <fix>3d</fix>
</trkpt>
<trkpt lat="40.0713749" lon="-105.229789">
  <ele>1583.0</ele>
  <time>2026-08-28T17:55:47Z</time>
  <course>0.0</course>
  <speed>0.0</speed>
  <fix>3d</fix>
</trkpt>
<trkpt lat="40.0713749" lon="-105.229789">
  <ele>1583.0</ele>
  <time>2026-08-28T17:55:47Z</time>
  <course>247.82</course>
  <speed>0.0316227766016838</speed>
  <fix>3d</fix>
</trkpt>
<trkpt lat="40.0713749" lon="-105.229789">
  <ele>1583.0</ele>
  <time>2026-08-28T17:55:47Z</time>
  <course>0.0</course>
  <speed>0.0</speed>
  <fix>3d</fix>
</trkpt>
<trkpt lat="40.0713749" lon="-105.229789">
  <ele>1583.0</ele>
  <time>2026-08-28T17:55:47Z</time>
  <course>247.82</course>
  <speed>0.0316227766016838</speed>
  <fix>3d</fix>
</trkpt>
<trkpt lat="40.0713749" lon="-105.229789">
  <ele>1583.0</ele>
  <time>2026-08-28T17:55:47Z</time>
  <course>0.0</course>
  <speed>0.0</speed>
  <fix>3d</fix>
</trkpt>
<trkpt lat="40.0713749" lon="-105.229789">
  <ele>1583.0</ele>
  <time>2026-08-28T17:55:47Z</time>
  <course>247.81</course>
  <speed>0.0316227766016838</speed>
  <fix>3d</fix>
</trkpt>
<trkpt lat="40.0713749" lon="-105.229789">
  <ele>1583.0</ele>
  <time>2026-08-28T17:55:47Z</time>
  <course>0.0</course>
  <speed>0.0</speed>
  <fix>3d</fix>
</trkpt>
<trkpt lat="40.0713749" lon="-105.229789">
  <ele>1583.0</ele>
  <time>2026-08-28T17:55:47Z</time>
  <course>247.81</course>
  <speed>0.0316227766016838</speed>
  <fix>3d</fix>
</trkpt>
<trkpt lat="40.0713749" lon="-105.229789">
  <ele>1583.0</ele>
  <time>2026-08-28T17:55:47Z</time>
  <course>0.0</course>
  <speed>0.0</speed>
  <fix>3d</fix>
</trkpt>
<trkpt lat="40.0713749" lon="-105.229789">
  <ele>1583.0</ele>
  <time>2026-08-28T17:55:47Z</time>
  <course>247.8</course>
  <speed>0.0316227766016838</speed>
  <fix>3d</fix>
</trkpt>
<trkpt lat="40.0713749" lon="-105.229789">
  <ele>1583.0</ele>
  <time>2026-08-28T17:55:47Z</time>
  <course>0.0</course>
  <speed>0.0</speed>
  <fix>3d</fix>
</trkpt>
<trkpt lat="40.0713749" lon="-105.229789">
  <ele>1583.0</ele>
  <time>2026-08-28T17:55:47Z</time>
  <course>247.8</course>
  <speed>0.0316227766016838</speed>
  <fix>3d</fix>
</trkpt>
<trkpt lat="40.0713749" lon="-105.229789">
  <ele>1583.0</ele>
  <time>2026-08-28T17:55:47Z</time>
  <course>0.0</course>
  <speed>0.0</speed>
  <fix>3d</fix>
</trkpt>
<trkpt lat="40.0713749" lon="-105.229789">
  <ele>1583.0</ele>
  <time>2026-08-28T17:55:47Z</time>
  <course>247.8</course>
  <speed>0.0316227766016838</speed>
  <fix>3d</fix>
</trkpt>
<trkpt lat="40.0713749" lon="-105.229789">
  <ele>1583.0</ele>
  <time>2026-08-28T17:55:47Z</time>
  <course>0.0</course>
  <speed>0.0</speed>
  <fix>3d</fix>
</trkpt>
<trkpt lat="40.0713749" lon="-105.229789">
  <ele>1583.0</ele>
  <time>2026-08-28T17:55:47Z</time>
  <course>247.79</course>
  <speed>0.0316227766016838</speed>
  <fix>3d</fix>
</trkpt>
<trkpt lat="40.0713749" lon="-105.229789">
  <ele>1583.0</ele>
  <time>2026-08-28T17:55:47Z</time>
  <course>0.0</course>
  <speed>0.0</speed>
  <fix>3d</fix>
</trkpt>
<trkpt lat="40.0713749" lon="-105.229789">
  <ele>1583.0</ele>
  <time>2026-08-28T17:55:47Z</time>
  <course>247.79</course>
  <speed>0.0316227766016838</speed>
  <fix>3d</fix>
</trkpt>
<trkpt lat="40.0713749" lon="-105.229789">
  <ele>1583.0</ele>
  <time>2026-08-28T17:55:47Z</time>
  <course>0.0</course>
  <speed>0.0</speed>
  <fix>3d</fix>
</trkpt>
<trkpt lat="40.0713749" lon="-105.229789">
  <ele>1583.0</ele>
  <time>2026-08-28T17:55:47Z</time>
  <course>247.79</course>
  <speed>0.0316227766016838</speed>
  <fix>3d</fix>
</trkpt>
<trkpt lat="40.0713749" lon="-105.229789">
  <ele>1583.0</ele>
  <time>2026-08-28T17:55:47Z</time>
  <course>0.0</course>
  <speed>0.0</speed>
  <fix>3d</fix>
</trkpt>
<trkpt lat="40.0713749" lon="-105.229789">
  <ele>1583.0</ele>
  <time>2026-08-28T17:55:47Z</time>
  <course>247.78</course>
  <speed>0.0316227766016838</speed>
  <fix>3d</fix>
</trkpt>
<trkpt lat="40.0713749" lon="-105.229789">
  <ele>1583.0</ele>
  <time>2026-08-28T17:55:47Z</time>
  <course>0.0</course>
  <speed>0.0</speed>
  <fix>3d</fix>
</trkpt>
<trkpt lat="40.0713749" lon="-105.229789">
  <ele>1583.0</ele>
  <time>2026-08-28T17:55:47Z</time>
  <course>247.78</course>
  <speed>0.0316227766016838</speed>
  <fix>3d</fix>
</trkpt>
<trkpt lat="40.0713749" lon="-105.229789">
  <ele>1583.0</ele>
  <time>2026-08-28T17:55:47Z</time>
  <course>0.0</course>
  <speed>0.0</speed>
  <fix>3d</fix>
</trkpt>
<trkpt lat="40.0713749" lon="-105.229789">
  <ele>1583.0</ele>
  <time>2026-08-28T17:55:47Z</time>
  <course>247.78</course>
  <speed>0.0316227766016838</speed>
  <fix>3d</fix>
</trkpt>
<trkpt lat="40.0713749" lon="-105.229789">
  <ele>1583.0</ele>
  <time>2026-08-28T17:55:47Z</time>
  <course>0.0</course>
  <speed>0.0</speed>
  <fix>3d</fix>
</trkpt>
<trkpt lat="40.0713749" lon="-105.229789">
  <ele>1583.0</ele>
  <time>2026-08-28T17:55:47Z</time>
  <course>247.77</course>
  <speed>0.0316227766016838</speed>
  <fix>3d</fix>
</trkpt>
<trkpt lat="40.0713749" lon="-105.229789">
  <ele>1583.0</ele>
  <time>2026-08-28T17:55:47Z</time>
  <course>0.0</course>
  <speed>0.0</speed>
  <fix>3d</fix>
</trkpt>
<trkpt lat="40.0713749" lon="-105.229789">
  <ele>1583.0</ele>
  <time>2026-08-28T17:55:47Z</time>
  <course>247.77</course>
  <speed>0.0316227766016838</speed>
  <fix>3d</fix>
</trkpt>
<trkpt lat="40.0713749" lon="-105.229789">
  <ele>1583.0</ele>
  <time>2026-08-28T17:55:47Z</time>
  <course>0.0</course>
  <speed>0.0</speed>
  <fix>3d</fix>
</trkpt>
<trkpt lat="40.0713749" lon="-105.229789">
  <ele>1583.0</ele>
  <time>2026-08-28T17:55:47Z</time>
  <course>247.76</course>
  <speed>0.0316227766016838</speed>
  <fix>3d</fix>
</trkpt>
<trkpt lat="40.0713749" lon="-105.229789">
  <ele>1583.0</ele>
  <time>2026-08-28T17:55:47Z</time>
  <course>0.0</course>
  <speed>0.0</speed>
  <fix>3d</fix>
</trkpt>
<trkpt lat="40.0713749" lon="-105.229789">
  <ele>1583.0</ele>
  <time>2026-08-28T17:55:47Z</time>
  <course>247.76</course>
  <speed>0.0316227766016838</speed>
  <fix>3d</fix>
</trkpt>
<trkpt lat="40.0713749" lon="-105.229789">
  <ele>1583.0</ele>
  <time>2026-08-28T17:55:47Z</time>
  <course>0.0</course>
  <speed>0.0</speed>
  <fix>3d</fix>
</trkpt>
<trkpt lat="40.0713749" lon="-105.229789">
  <ele>1583.0</ele>
  <time>2026-08-28T17:55:47Z</time>
  <course>247.76</course>
  <speed>0.0316227766016838</speed>
  <fix>3d</fix>
</trkpt>
<trkpt lat="40.0713749" lon="-105.229789">
  <ele>1583.0</ele>
  <time>2026-08-28T17:55:47Z</time>
  <course>0.0</course>
  <speed>0.0</speed>
  <fix>3d</fix>
</trkpt>
<trkpt lat="40.0713749" lon="-105.229789">
  <ele>1583.0</ele>
  <time>2026-08-28T17:55:47Z</time>
  <course>247.75</course>
  <speed>0.0316227766016838</speed>
  <fix>3d</fix>
</trkpt>
<trkpt lat="40.0713749" lon="-105.229789">
  <ele>1583.0</ele>
  <time>2026-08-28T17:55:47Z</time>
  <course>0.0</course>
  <speed>0.0</speed>
  <fix>3d</fix>
</trkpt>
<trkpt lat="40.0713749" lon="-105.229789">
  <ele>1583.0</ele>
  <time>2026-08-28T17:55:47Z</time>
  <course>247.75</course>
  <speed>0.0316227766016838</speed>
  <fix>3d</fix>
</trkpt>
<trkpt lat="40.0713749" lon="-105.229789">
  <ele>1583.0</ele>
  <time>2026-08-28T17:55:47Z</time>
  <course>0.0</course>
  <speed>0.0</speed>
  <fix>3d</fix>
</trkpt>
<trkpt lat="40.0713749" lon="-105.229789">
  <ele>1583.0</ele>
  <time>2026-08-28T17:55:47Z</time>
  <course>247.75</course>
  <speed>0.0316227766016838</speed>
  <fix>3d</fix>
</trkpt>
<trkpt lat="40.0713749" lon="-105.229789">
  <ele>1583.0</ele>
  <time>2026-08-28T17:55:47Z</time>
  <course>0.0</course>
  <speed>0.0</speed>
  <fix>3d</fix>
</trkpt>
<trkpt lat="40.0713749" lon="-105.229789">
  <ele>1583.0</ele>
  <time>2026-08-28T17:55:47Z</time>
  <course>247.74</course>
  <speed>0.0316227766016838</speed>
  <fix>3d</fix>
</trkpt>
<trkpt lat="40.0713749" lon="-105.229789">
  <ele>1583.0</ele>
  <time>2026-08-28T17:55:47Z</time>
  <course>0.0</course>
  <speed>0.0</speed>
  <fix>3d</fix>
</trkpt>
<trkpt lat="40.0713749" lon="-105.229789">
  <ele>1583.0</ele>
  <time>2026-08-28T17:55:47Z</time>
  <course>247.74</course>
  <speed>0.0316227766016838</speed>
  <fix>3d</fix>
</trkpt>
<trkpt lat="40.0713749" lon="-105.229789">
  <ele>1583.0</ele>
  <time>2026-08-28T17:55:47Z</time>
  <course>0.0</course>
  <speed>0.0</speed>
  <fix>3d</fix>
</trkpt>
<trkpt lat="40.0713749" lon="-105.229789">
  <ele>1583.0</ele>
  <time>2026-08-28T17:55:47Z</time>
  <course>247.74</course>
  <speed>0.0316227766016838</speed>
  <fix>3d</fix>
</trkpt>
<trkpt lat="40.0713749" lon="-105.229789">
  <ele>1583.0</ele>
  <time>2026-08-28T17:55:47Z</time>
  <course>0.0</course>
  <speed>0.0</speed>
  <fix>3d</fix>
</trkpt>
<trkpt lat="40.0713749" lon="-105.229789">
  <ele>1583.0</ele>
  <time>2026-08-28T17:55:47Z</time>
  <course>247.73</course>
  <speed>0.0316227766016838</speed>
  <fix>3d</fix>
</trkpt>
<trkpt lat="40.0713749" lon="-105.229789">
  <ele>1583.0</ele>
  <time>2026-08-28T17:55:47Z</time>
  <course>0.0</course>
  <speed>0.0</speed>
  <fix>3d</fix>
</trkpt>
<trkpt lat="40.0713749" lon="-105.229789">
  <ele>1583.0</ele>
  <time>2026-08-28T17:55:47Z</time>
  <course>247.73</course>
  <speed>0.0316227766016838</speed>
  <fix>3d</fix>
</trkpt>
<trkpt lat="40.0713749" lon="-105.229789">
  <ele>1583.0</ele>
  <time>2026-08-28T17:55:47Z</time>
  <course>0.0</course>
  <speed>0.0</speed>
  <fix>3d</fix>
</trkpt>
<trkpt lat="40.0713749" lon="-105.229789">
  <ele>1583.0</ele>
  <time>2026-08-28T17:55:47Z</time>
  <course>247.73</course>
  <speed>0.0316227766016838</speed>
  <fix>3d</fix>
</trkpt>
<trkpt lat="40.0713749" lon="-105.229789">
  <ele>1583.0</ele>
  <time>2026-08-28T17:55:47Z</time>
  <course>0.0</course>
  <speed>0.0</speed>
  <fix>3d</fix>
</trkpt>
<trkpt lat="40.0713749" lon="-105.229789">
  <ele>1583.0</ele>
  <time>2026-08-28T17:55:47Z</time>
  <course>247.72</course>
  <speed>0.0316227766016838</speed>
  <fix>3d</fix>
</trkpt>
<trkpt lat="40.0713749" lon="-105.229789">
  <ele>1583.0</ele>
  <time>2026-08-28T17:55:47Z</time>
  <course>0.0</course>
  <speed>0.0</speed>
  <fix>3d</fix>
</trkpt>
<trkpt lat="40.0713749" lon="-105.229789">
  <ele>1583.0</ele>
  <time>2026-08-28T17:55:47Z</time>
  <course>247.72</course>
  <speed>0.0316227766016838</speed>
  <fix>3d</fix>
</trkpt>
<trkpt lat="40.0713749" lon="-105.229789">
  <ele>1583.0</ele>
  <time>2026-08-28T17:55:47Z</time>
  <course>0.0</course>
  <speed>0.0</speed>
  <fix>3d</fix>
</trkpt>
<trkpt lat="40.0713749" lon="-105.229789">
  <ele>1583.0</ele>
  <time>2026-08-28T17:55:47Z</time>
  <course>247.72</course>
  <speed>0.0316227766016838</speed>
  <fix>3d</fix>
</trkpt>
<trkpt lat="40.0713749" lon="-105.229789">
  <ele>1583.0</ele>
  <time>2026-08-28T17:55:47Z</time>
  <course>0.0</course>
  <speed>0.0</speed>
  <fix>3d</fix>
</trkpt>
<trkpt lat="40.0713749" lon="-105.229789">
  <ele>1583.0</ele>
  <time>2026-08-28T17:55:47Z</time>
  <course>247.71</course>
  <speed>0.0316227766016838</speed>
  <fix>3d</fix>
</trkpt>
<trkpt lat="40.0713749" lon="-105.229789">
  <ele>1583.0</ele>
  <time>2026-08-28T17:55:47Z</time>
  <course>0.0</course>
  <speed>0.0</speed>
  <fix>3d</fix>
</trkpt>
<trkpt lat="40.0713749" lon="-105.229789">
  <ele>1583.0</ele>
  <time>2026-08-28T17:55:47Z</time>
  <course>247.71</course>
  <speed>0.0316227766016838</speed>
  <fix>3d</fix>
</trkpt>
<trkpt lat="40.0713749" lon="-105.229789">
  <ele>1583.0</ele>
  <time>2026-08-28T17:55:47Z</time>
  <course>0.0</course>
  <speed>0.0</speed>
  <fix>3d</fix>
</trkpt>
<trkpt lat="40.0713749" lon="-105.229789">
  <ele>1583.0</ele>
  <time>2026-08-28T17:55:47Z</time>
  <course>247.71</course>
  <speed>0.0316227766016838</speed>
  <fix>3d</fix>
</trkpt>
<trkpt lat="40.0713749" lon="-105.229789">
  <ele>1583.0</ele>
  <time>2026-08-28T17:55:47Z</time>
  <course>0.0</course>
  <speed>0.0</speed>
  <fix>3d</fix>
</trkpt>
<trkpt lat="40.0713749" lon="-105.229789">
  <ele>1583.0</ele>
  <time>2026-08-28T17:55:47Z</time>
  <course>247.7</course>
  <speed>0.0316227766016838</speed>
  <fix>3d</fix>
</trkpt>
<trkpt lat="40.0713749" lon="-105.229789">
  <ele>1583.0</ele>
  <time>2026-08-28T17:55:47Z</time>
  <course>0.0</course>
  <speed>0.0</speed>
  <fix>3d</fix>
</trkpt>
<trkpt lat="40.0713749" lon="-105.229789">
  <ele>1583.0</ele>
  <time>2026-08-28T17:55:47Z</time>
  <course>247.7</course>
  <speed>0.0316227766016838</speed>
  <fix>3d</fix>
</trkpt>
<trkpt lat="40.0713749" lon="-105.229789">
  <ele>1583.0</ele>
  <time>2026-08-28T17:55:47Z</time>
  <course>0.0</course>
  <speed>0.0</speed>
  <fix>3d</fix>
</trkpt>
<trkpt lat="40.0713749" lon="-105.229789">
  <ele>1583.0</ele>
  <time>2026-08-28T17:55:47Z</time>
  <course>247.7</course>
  <speed>0.0316227766016838</speed>
  <fix>3d</fix>
</trkpt>
<trkpt lat="40.0713749" lon="-105.229789">
  <ele>1583.0</ele>
  <time>2026-08-28T17:55:47Z</time>
  <course>0.0</course>
  <speed>0.0</speed>
  <fix>3d</fix>
</trkpt>
<trkpt lat="40.0713749" lon="-105.229789">
  <ele>1583.0</ele>
  <time>2026-08-28T17:55:47Z</time>
  <course>247.69</course>
  <speed>0.0316227766016838</speed>
  <fix>3d</fix>
</trkpt>
<trkpt lat="40.0713749" lon="-105.229789">
  <ele>1583.0</ele>
  <time>2026-08-28T17:55:47Z</time>
  <course>0.0</course>
  <speed>0.0</speed>
  <fix>3d</fix>
</trkpt>
<trkpt lat="40.0713749" lon="-105.229789">
  <ele>1583.0</ele>
  <time>2026-08-28T17:55:48Z</time>
  <course>247.69</course>
  <speed>0.0316227766016838</speed>
  <fix>3d</fix>
</trkpt>
<trkpt lat="40.0713749" lon="-105.229789">
  <ele>1583.0</ele>
  <time>2026-08-28T17:55:48Z</time>
  <course>0.0</course>
  <speed>0.0</speed>
  <fix>3d</fix>
</trkpt>
<trkpt lat="40.0713749" lon="-105.229789">
  <ele>1583.0</ele>
  <time>2026-08-28T17:55:48Z</time>
  <course>247.69</course>
  <speed>0.0316227766016838</speed>
  <fix>3d</fix>
</trkpt>
<trkpt lat="40.0713749" lon="-105.229789">
  <ele>1583.0</ele>
  <time>2026-08-28T17:55:48Z</time>
  <course>0.0</course>
  <speed>0.0</speed>
  <fix>3d</fix>
</trkpt>
<trkpt lat="40.0713749" lon="-105.229789">
  <ele>1583.0</ele>
  <time>2026-08-28T17:55:48Z</time>
  <course>247.68</course>
  <speed>0.0316227766016838</speed>
  <fix>3d</fix>
</trkpt>
<trkpt lat="40.0713749" lon="-105.229789">
  <ele>1583.0</ele>
  <time>2026-08-28T17:55:48Z</time>
  <course>0.0</course>
  <speed>0.0</speed>
  <fix>3d</fix>
</trkpt>
<trkpt lat="40.0713749" lon="-105.229789">
  <ele>1583.0</ele>
  <time>2026-08-28T17:55:48Z</time>
  <course>247.68</course>
  <speed>0.0316227766016838</speed>
  <fix>3d</fix>
</trkpt>
<trkpt lat="40.0713749" lon="-105.229789">
  <ele>1583.0</ele>
  <time>2026-08-28T17:55:48Z</time>
  <course>0.0</course>
  <speed>0.0</speed>
  <fix>3d</fix>
</trkpt>
<trkpt lat="40.0713749" lon="-105.229789">
  <ele>1583.0</ele>
  <time>2026-08-28T17:55:48Z</time>
  <course>247.68</course>
  <speed>0.0316227766016838</speed>
  <fix>3d</fix>
</trkpt>
<trkpt lat="40.0713749" lon="-105.229789">
  <ele>1583.0</ele>
  <time>2026-08-28T17:55:48Z</time>
  <course>0.0</course>
  <speed>0.0</speed>
  <fix>3d</fix>
</trkpt>
<trkpt lat="40.0713749" lon="-105.229789">
  <ele>1583.0</ele>
  <time>2026-08-28T17:55:48Z</time>
  <course>247.67</course>
  <speed>0.0316227766016838</speed>
  <fix>3d</fix>
</trkpt>
<trkpt lat="40.0713749" lon="-105.229789">
  <ele>1583.0</ele>
  <time>2026-08-28T17:55:48Z</time>
  <course>0.0</course>
  <speed>0.0</speed>
  <fix>3d</fix>
</trkpt>
<trkpt lat="40.0713749" lon="-105.229789">
  <ele>1583.0</ele>
  <time>2026-08-28T17:55:48Z</time>
  <course>247.67</course>
  <speed>0.0316227766016838</speed>
  <fix>3d</fix>
</trkpt>
<trkpt lat="40.0713749" lon="-105.229789">
  <ele>1583.0</ele>
  <time>2026-08-28T17:55:48Z</time>
  <course>0.0</course>
  <speed>0.0</speed>
  <fix>3d</fix>
</trkpt>
<trkpt lat="40.0713749" lon="-105.229789">
  <ele>1583.0</ele>
  <time>2026-08-28T17:55:48Z</time>
  <course>247.67</course>
  <speed>0.0316227766016838</speed>
  <fix>3d</fix>
</trkpt>
<trkpt lat="40.0713749" lon="-105.229789">
  <ele>1583.0</ele>
  <time>2026-08-28T17:55:48Z</time>
  <course>0.0</course>
  <speed>0.0</speed>
  <fix>3d</fix>
</trkpt>
<trkpt lat="40.0713749" lon="-105.229789">
  <ele>1583.0</ele>
  <time>2026-08-28T17:55:48Z</time>
  <course>247.66</course>
  <speed>0.0316227766016838</speed>
  <fix>3d</fix>
</trkpt>
<trkpt lat="40.0713749" lon="-105.229789">
  <ele>1583.0</ele>
  <time>2026-08-28T17:55:48Z</time>
  <course>0.0</course>
  <speed>0.0</speed>
  <fix>3d</fix>
</trkpt>
<trkpt lat="40.0713749" lon="-105.229789">
  <ele>1583.0</ele>
  <time>2026-08-28T17:55:48Z</time>
  <course>247.66</course>
  <speed>0.0316227766016838</speed>
  <fix>3d</fix>
</trkpt>
<trkpt lat="40.0713749" lon="-105.229789">
  <ele>1583.0</ele>
  <time>2026-08-28T17:55:48Z</time>
  <course>0.0</course>
  <speed>0.0</speed>
  <fix>3d</fix>
</trkpt>
<trkpt lat="40.0713749" lon="-105.229789">
  <ele>1583.0</ele>
  <time>2026-08-28T17:55:48Z</time>
  <course>247.66</course>
  <speed>0.0316227766016838</speed>
  <fix>3d</fix>
</trkpt>
<trkpt lat="40.0713749" lon="-105.229789">
  <ele>1583.0</ele>
  <time>2026-08-28T17:55:48Z</time>
  <course>0.0</course>
  <speed>0.0</speed>
  <fix>3d</fix>
</trkpt>
<trkpt lat="40.0713749" lon="-105.229789">
  <ele>1583.0</ele>
  <time>2026-08-28T17:55:48Z</time>
  <course>247.65</course>
  <speed>0.0316227766016838</speed>
  <fix>3d</fix>
</trkpt>
<trkpt lat="40.0713749" lon="-105.229789">
  <ele>1583.0</ele>
  <time>2026-08-28T17:55:48Z</time>
  <course>0.0</course>
  <speed>0.0</speed>
  <fix>3d</fix>
</trkpt>
<trkpt lat="40.0713749" lon="-105.229789">
  <ele>1583.0</ele>
  <time>2026-08-28T17:55:48Z</time>
  <course>247.65</course>
  <speed>0.0316227766016838</speed>
  <fix>3d</fix>
</trkpt>
<trkpt lat="40.0713749" lon="-105.229789">
  <ele>1583.0</ele>
  <time>2026-08-28T17:55:48Z</time>
  <course>0.0</course>
  <speed>0.0</speed>
  <fix>3d</fix>
</trkpt>
<trkpt lat="40.0713749" lon="-105.229789">
  <ele>1583.0</ele>
  <time>2026-08-28T17:55:48Z</time>
  <course>247.65</course>
  <speed>0.0316227766016838</speed>
  <fix>3d</fix>
</trkpt>
<trkpt lat="40.0713749" lon="-105.229789">
  <ele>1583.0</ele>
  <time>2026-08-28T17:55:48Z</time>
  <course>0.0</course>
  <speed>0.0</speed>
  <fix>3d</fix>
</trkpt>
<trkpt lat="40.0713749" lon="-105.229789">
  <ele>1583.0</ele>
  <time>2026-08-28T17:55:48Z</time>
  <course>247.64</course>
  <speed>0.0316227766016838</speed>
  <fix>3d</fix>
</trkpt>
<trkpt lat="40.0713749" lon="-105.229789">
  <ele>1583.0</ele>
  <time>2026-08-28T17:55:48Z</time>
  <course>0.0</course>
  <speed>0.0</speed>
  <fix>3d</fix>
</trkpt>
<trkpt lat="40.0713749" lon="-105.229789">
  <ele>1583.0</ele>
  <time>2026-08-28T17:55:48Z</time>
  <course>247.64</course>
  <speed>0.0316227766016838</speed>
  <fix>3d</fix>
</trkpt>
<trkpt lat="40.0713749" lon="-105.229789">
  <ele>1583.0</ele>
  <time>2026-08-28T17:55:48Z</time>
  <course>0.0</course>
  <speed>0.0</speed>
  <fix>3d</fix>
</trkpt>
<trkpt lat="40.0713749" lon="-105.229789">
  <ele>1583.0</ele>
  <time>2026-08-28T17:55:48Z</time>
  <course>247.64</course>
  <speed>0.0316227766016838</speed>
  <fix>3d</fix>
</trkpt>
<trkpt lat="40.0713749" lon="-105.229789">
  <ele>1583.0</ele>
  <time>2026-08-28T17:55:48Z</time>
  <course>0.0</course>
  <speed>0.0</speed>
  <fix>3d</fix>
</trkpt>
<trkpt lat="40.0713749" lon="-105.229789">
  <ele>1583.0</ele>
  <time>2026-08-28T17:55:48Z</time>
  <course>247.64</course>
  <speed>0.0316227766016838</speed>
  <fix>3d</fix>
</trkpt>
<trkpt lat="40.0713749" lon="-105.229789">
  <ele>1583.0</ele>
  <time>2026-08-28T17:55:48Z</time>
  <course>0.0</course>
  <speed>0.0</speed>
  <fix>3d</fix>
</trkpt>
<trkpt lat="40.0713749" lon="-105.229789">
  <ele>1583.0</ele>
  <time>2026-08-28T17:55:48Z</time>
  <course>247.63</course>
  <speed>0.0316227766016838</speed>
  <fix>3d</fix>
</trkpt>
<trkpt lat="40.0713749" lon="-105.229789">
  <ele>1583.0</ele>
  <time>2026-08-28T17:55:48Z</time>
  <course>0.0</course>
  <speed>0.0</speed>
  <fix>3d</fix>
</trkpt>
<trkpt lat="40.0713749" lon="-105.229789">
  <ele>1583.0</ele>
  <time>2026-08-28T17:55:48Z</time>
  <course>247.63</course>
  <speed>0.0316227766016838</speed>
  <fix>3d</fix>
</trkpt>
<trkpt lat="40.0713749" lon="-105.229789">
  <ele>1583.0</ele>
  <time>2026-08-28T17:55:48Z</time>
  <course>0.0</course>
  <speed>0.0</speed>
  <fix>3d</fix>
</trkpt>
<trkpt lat="40.0713749" lon="-105.229789">
  <ele>1583.0</ele>
  <time>2026-08-28T17:55:48Z</time>
  <course>247.63</course>
  <speed>0.0316227766016838</speed>
  <fix>3d</fix>
</trkpt>
<trkpt lat="40.0713749" lon="-105.229789">
  <ele>1583.0</ele>
  <time>2026-08-28T17:55:48Z</time>
  <course>0.0</course>
  <speed>0.0</speed>
  <fix>3d</fix>
</trkpt>
<trkpt lat="40.0713749" lon="-105.229789">
  <ele>1583.0</ele>
  <time>2026-08-28T17:55:48Z</time>
  <course>247.62</course>
  <speed>0.0316227766016838</speed>
  <fix>3d</fix>
</trkpt>
<trkpt lat="40.0713749" lon="-105.229789">
  <ele>1583.0</ele>
  <time>2026-08-28T17:55:48Z</time>
  <course>0.0</course>
  <speed>0.0</speed>
  <fix>3d</fix>
</trkpt>
<trkpt lat="40.0713749" lon="-105.229789">
  <ele>1583.0</ele>
  <time>2026-08-28T17:55:48Z</time>
  <course>247.62</course>
  <speed>0.0316227766016838</speed>
  <fix>3d</fix>
</trkpt>
<trkpt lat="40.0713749" lon="-105.229789">
  <ele>1583.0</ele>
  <time>2026-08-28T17:55:48Z</time>
  <course>0.0</course>
  <speed>0.0</speed>
  <fix>3d</fix>
</trkpt>
<trkpt lat="40.0713749" lon="-105.229789">
  <ele>1583.0</ele>
  <time>2026-08-28T17:55:48Z</time>
  <course>247.62</course>
  <speed>0.0316227766016838</speed>
  <fix>3d</fix>
</trkpt>
<trkpt lat="40.0713749" lon="-105.229789">
  <ele>1583.0</ele>
  <time>2026-08-28T17:55:48Z</time>
  <course>0.0</course>
  <speed>0.0</speed>
  <fix>3d</fix>
</trkpt>
<trkpt lat="40.0713749" lon="-105.229789">
  <ele>1583.0</ele>
  <time>2026-08-28T17:55:48Z</time>
  <course>247.62</course>
  <speed>0.0316227766016838</speed>
  <fix>3d</fix>
</trkpt>
<trkpt lat="40.0713749" lon="-105.229789">
  <ele>1583.0</ele>
  <time>2026-08-28T17:55:48Z</time>
  <course>0.0</course>
  <speed>0.0</speed>
  <fix>3d</fix>
</trkpt>
<trkpt lat="40.0713749" lon="-105.229789">
  <ele>1583.0</ele>
  <time>2026-08-28T17:55:48Z</time>
  <course>247.61</course>
  <speed>0.0316227766016838</speed>
  <fix>3d</fix>
</trkpt>
<trkpt lat="40.0713749" lon="-105.229789">
  <ele>1583.0</ele>
  <time>2026-08-28T17:55:48Z</time>
  <course>0.0</course>
  <speed>0.0</speed>
  <fix>3d</fix>
</trkpt>
<trkpt lat="40.0713749" lon="-105.229789">
  <ele>1583.0</ele>
  <time>2026-08-28T17:55:48Z</time>
  <course>247.61</course>
  <speed>0.0316227766016838</speed>
  <fix>3d</fix>
</trkpt>
<trkpt lat="40.0713749" lon="-105.229789">
  <ele>1583.0</ele>
  <time>2026-08-28T17:55:48Z</time>
  <course>0.0</course>
  <speed>0.0</speed>
  <fix>3d</fix>
</trkpt>
<trkpt lat="40.0713749" lon="-105.229789">
  <ele>1583.0</ele>
  <time>2026-08-28T17:55:48Z</time>
  <course>247.61</course>
  <speed>0.0316227766016838</speed>
  <fix>3d</fix>
</trkpt>
<trkpt lat="40.0713749" lon="-105.229789">
  <ele>1583.0</ele>
  <time>2026-08-28T17:55:48Z</time>
  <course>0.0</course>
  <speed>0.0</speed>
  <fix>3d</fix>
</trkpt>
<trkpt lat="40.0713749" lon="-105.229789">
  <ele>1583.0</ele>
  <time>2026-08-28T17:55:48Z</time>
  <course>247.6</course>
  <speed>0.0316227766016838</speed>
  <fix>3d</fix>
</trkpt>
<trkpt lat="40.0713749" lon="-105.229789">
  <ele>1583.0</ele>
  <time>2026-08-28T17:55:48Z</time>
  <course>0.0</course>
  <speed>0.0</speed>
  <fix>3d</fix>
</trkpt>
<trkpt lat="40.0713749" lon="-105.229789">
  <ele>1583.0</ele>
  <time>2026-08-28T17:55:48Z</time>
  <course>247.6</course>
  <speed>0.0316227766016838</speed>
  <fix>3d</fix>
</trkpt>
<trkpt lat="40.0713749" lon="-105.229789">
  <ele>1583.0</ele>
  <time>2026-08-28T17:55:48Z</time>
  <course>0.0</course>
  <speed>0.0</speed>
  <fix>3d</fix>
</trkpt>
<trkpt lat="40.0713749" lon="-105.229789">
  <ele>1583.0</ele>
  <time>2026-08-28T17:55:48Z</time>
  <course>247.6</course>
  <speed>0.0316227766016838</speed>
  <fix>3d</fix>
</trkpt>
<trkpt lat="40.0713749" lon="-105.229789">
  <ele>1583.0</ele>
  <time>2026-08-28T17:55:48Z</time>
  <course>0.0</course>
  <speed>0.0</speed>
  <fix>3d</fix>
</trkpt>
<trkpt lat="40.0713749" lon="-105.229789">
  <ele>1583.0</ele>
  <time>2026-08-28T17:55:48Z</time>
  <course>247.6</course>
  <speed>0.0316227766016838</speed>
  <fix>3d</fix>
</trkpt>
<trkpt lat="40.0713749" lon="-105.229789">
  <ele>1583.0</ele>
  <time>2026-08-28T17:55:48Z</time>
  <course>0.0</course>
  <speed>0.0</speed>
  <fix>3d</fix>
</trkpt>
<trkpt lat="40.0713749" lon="-105.229789">
  <ele>1583.0</ele>
  <time>2026-08-28T17:55:48Z</time>
  <course>247.59</course>
  <speed>0.0316227766016838</speed>
  <fix>3d</fix>
</trkpt>
<trkpt lat="40.0713749" lon="-105.229789">
  <ele>1583.0</ele>
  <time>2026-08-28T17:55:48Z</time>
  <course>0.0</course>
  <speed>0.0</speed>
  <fix>3d</fix>
</trkpt>
<trkpt lat="40.0713749" lon="-105.229789">
  <ele>1582.92</ele>
  <time>2026-08-28T17:55:48Z</time>
  <course>247.59</course>
  <speed>0.0</speed>
  <fix>3d</fix>
</trkpt>
<trkpt lat="40.0713749" lon="-105.229789">
  <ele>1583.0</ele>
  <time>2026-08-28T17:55:48Z</time>
  <course>0.0</course>
  <speed>0.0</speed>
  <fix>3d</fix>
</trkpt>
<trkpt lat="40.0713749" lon="-105.229789">
  <ele>1582.92</ele>
  <time>2026-08-28T17:55:48Z</time>
  <course>247.59</course>
  <speed>0.0</speed>
  <fix>3d</fix>
</trkpt>
<trkpt lat="40.0713749" lon="-105.229789">
  <ele>1583.0</ele>
  <time>2026-08-28T17:55:48Z</time>
  <course>0.0</course>
  <speed>0.0</speed>
  <fix>3d</fix>
</trkpt>
<trkpt lat="40.0713749" lon="-105.229789">
  <ele>1582.91</ele>
  <time>2026-08-28T17:55:48Z</time>
  <course>247.58</course>
  <speed>0.0</speed>
  <fix>3d</fix>
</trkpt>
<trkpt lat="40.0713749" lon="-105.229789">
  <ele>1583.0</ele>
  <time>2026-08-28T17:55:48Z</time>
  <course>0.0</course>
  <speed>0.0</speed>
  <fix>3d</fix>
</trkpt>
<trkpt lat="40.0713749" lon="-105.229789">
  <ele>1582.91</ele>
  <time>2026-08-28T17:55:48Z</time>
  <course>247.58</course>
  <speed>0.0</speed>
  <fix>3d</fix>
</trkpt>
<trkpt lat="40.0713749" lon="-105.229789">
  <ele>1583.0</ele>
  <time>2026-08-28T17:55:48Z</time>
  <course>0.0</course>
  <speed>0.0</speed>
  <fix>3d</fix>
</trkpt>
<trkpt lat="40.0713749" lon="-105.229789">
  <ele>1582.9</ele>
  <time>2026-08-28T17:55:48Z</time>
  <course>247.58</course>
  <speed>0.0</speed>
  <fix>3d</fix>
</trkpt>
<trkpt lat="40.0713749" lon="-105.229789">
  <ele>1583.0</ele>
  <time>2026-08-28T17:55:48Z</time>
  <course>0.0</course>
  <speed>0.0</speed>
  <fix>3d</fix>
</trkpt>
<trkpt lat="40.0713749" lon="-105.229789">
  <ele>1582.9</ele>
  <time>2026-08-28T17:55:48Z</time>
  <course>247.58</course>
  <speed>0.0</speed>
  <fix>3d</fix>
</trkpt>
<trkpt lat="40.0713749" lon="-105.229789">
  <ele>1583.0</ele>
  <time>2026-08-28T17:55:48Z</time>
  <course>0.0</course>
  <speed>0.0</speed>
  <fix>3d</fix>
</trkpt>
<trkpt lat="40.0713749" lon="-105.229789">
  <ele>1582.9</ele>
  <time>2026-08-28T17:55:48Z</time>
  <course>247.57</course>
  <speed>0.0</speed>
  <fix>3d</fix>
</trkpt>
<trkpt lat="40.0713749" lon="-105.229789">
  <ele>1583.0</ele>
  <time>2026-08-28T17:55:48Z</time>
  <course>0.0</course>
  <speed>0.0</speed>
  <fix>3d</fix>
</trkpt>
<trkpt lat="40.0713749" lon="-105.229789">
  <ele>1582.9</ele>
  <time>2026-08-28T17:55:48Z</time>
  <course>247.57</course>
  <speed>0.0</speed>
  <fix>3d</fix>
</trkpt>
<trkpt lat="40.0713749" lon="-105.229789">
  <ele>1583.0</ele>
  <time>2026-08-28T17:55:48Z</time>
  <course>0.0</course>
  <speed>0.0</speed>
  <fix>3d</fix>
</trkpt>
<trkpt lat="40.0713749" lon="-105.229789">
  <ele>1582.9</ele>
  <time>2026-08-28T17:55:48Z</time>
  <course>247.57</course>
  <speed>0.0</speed>
  <fix>3d</fix>
</trkpt>
<trkpt lat="40.0713749" lon="-105.229789">
  <ele>1583.0</ele>
  <time>2026-08-28T17:55:48Z</time>
  <course>0.0</course>
  <speed>0.0</speed>
  <fix>3d</fix>
</trkpt>
<trkpt lat="40.0713749" lon="-105.229789">
  <ele>1582.9</ele>
  <time>2026-08-28T17:55:48Z</time>
  <course>247.57</course>
  <speed>0.01</speed>
  <fix>3d</fix>
</trkpt>
<trkpt lat="40.0713749" lon="-105.229789">
  <ele>1583.0</ele>
  <time>2026-08-28T17:55:48Z</time>
  <course>0.0</course>
  <speed>0.0</speed>
  <fix>3d</fix>
</trkpt>
<trkpt lat="40.0713749" lon="-105.229789">
  <ele>1582.9</ele>
  <time>2026-08-28T17:55:48Z</time>
  <course>247.56</course>
  <speed>0.01</speed>
  <fix>3d</fix>
</trkpt>
<trkpt lat="40.0713749" lon="-105.229789">
  <ele>1583.0</ele>
  <time>2026-08-28T17:55:48Z</time>
  <course>0.0</course>
  <speed>0.0</speed>
  <fix>3d</fix>
</trkpt>
<trkpt lat="40.0713749" lon="-105.229789">
  <ele>1582.91</ele>
  <time>2026-08-28T17:55:48Z</time>
  <course>247.56</course>
  <speed>0.01</speed>
  <fix>3d</fix>
</trkpt>
<trkpt lat="40.0713749" lon="-105.229789">
  <ele>1583.0</ele>
  <time>2026-08-28T17:55:48Z</time>
  <course>0.0</course>
  <speed>0.0</speed>
  <fix>3d</fix>
</trkpt>
<trkpt lat="40.0713749" lon="-105.229789">
  <ele>1582.91</ele>
  <time>2026-08-28T17:55:48Z</time>
  <course>247.56</course>
  <speed>0.01</speed>
  <fix>3d</fix>
</trkpt>
<trkpt lat="40.0713749" lon="-105.229789">
  <ele>1583.0</ele>
  <time>2026-08-28T17:55:48Z</time>
  <course>0.0</course>
  <speed>0.0</speed>
  <fix>3d</fix>
</trkpt>
<trkpt lat="40.0713749" lon="-105.229789">
  <ele>1582.92</ele>
  <time>2026-08-28T17:55:48Z</time>
  <course>247.56</course>
  <speed>0.01</speed>
  <fix>3d</fix>
</trkpt>
<trkpt lat="40.0713749" lon="-105.229789">
  <ele>1583.0</ele>
  <time>2026-08-28T17:55:48Z</time>
  <course>0.0</course>
  <speed>0.0</speed>
  <fix>3d</fix>
</trkpt>
<trkpt lat="40.0713749" lon="-105.229789">
  <ele>1582.92</ele>
  <time>2026-08-28T17:55:48Z</time>
  <course>247.55</course>
  <speed>0.01</speed>
  <fix>3d</fix>
</trkpt>
<trkpt lat="40.0713749" lon="-105.229789">
  <ele>1583.0</ele>
  <time>2026-08-28T17:55:48Z</time>
  <course>0.0</course>
  <speed>0.0</speed>
  <fix>3d</fix>
</trkpt>
<trkpt lat="40.0713749" lon="-105.229789">
  <ele>1582.92</ele>
  <time>2026-08-28T17:55:48Z</time>
  <course>247.55</course>
  <speed>0.01</speed>
  <fix>3d</fix>
</trkpt>
<trkpt lat="40.0713749" lon="-105.229789">
  <ele>1583.0</ele>
  <time>2026-08-28T17:55:48Z</time>
  <course>0.0</course>
  <speed>0.0</speed>
  <fix>3d</fix>
</trkpt>
<trkpt lat="40.0713749" lon="-105.229789">
  <ele>1582.93</ele>
  <time>2026-08-28T17:55:48Z</time>
  <course>247.55</course>
  <speed>0.01</speed>
  <fix>3d</fix>
</trkpt>
<trkpt lat="40.0713749" lon="-105.229789">
  <ele>1583.0</ele>
  <time>2026-08-28T17:55:48Z</time>
  <course>0.0</course>
  <speed>0.0</speed>
  <fix>3d</fix>
</trkpt>
<trkpt lat="40.0713749" lon="-105.229789">
  <ele>1582.93</ele>
  <time>2026-08-28T17:55:48Z</time>
  <course>247.55</course>
  <speed>0.01</speed>
  <fix>3d</fix>
</trkpt>
<trkpt lat="40.0713749" lon="-105.229789">
  <ele>1583.0</ele>
  <time>2026-08-28T17:55:48Z</time>
  <course>0.0</course>
  <speed>0.0</speed>
  <fix>3d</fix>
</trkpt>
<trkpt lat="40.0713749" lon="-105.229789">
  <ele>1582.93</ele>
  <time>2026-08-28T17:55:48Z</time>
  <course>247.54</course>
  <speed>0.02</speed>
  <fix>3d</fix>
</trkpt>
<trkpt lat="40.0713749" lon="-105.229789">
  <ele>1583.0</ele>
  <time>2026-08-28T17:55:48Z</time>
  <course>0.0</course>
  <speed>0.0</speed>
  <fix>3d</fix>
</trkpt>
<trkpt lat="40.0713749" lon="-105.229789">
  <ele>1582.93</ele>
  <time>2026-08-28T17:55:48Z</time>
  <course>247.54</course>
  <speed>0.02</speed>
  <fix>3d</fix>
</trkpt>
<trkpt lat="40.0713749" lon="-105.229789">
  <ele>1583.0</ele>
  <time>2026-08-28T17:55:48Z</time>
  <course>0.0</course>
  <speed>0.0</speed>
  <fix>3d</fix>
</trkpt>
<trkpt lat="40.0713749" lon="-105.229789">
  <ele>1582.93</ele>
  <time>2026-08-28T17:55:48Z</time>
  <course>247.54</course>
  <speed>0.02</speed>
  <fix>3d</fix>
</trkpt>
<trkpt lat="40.0713749" lon="-105.229789">
  <ele>1583.0</ele>
  <time>2026-08-28T17:55:48Z</time>
  <course>0.0</course>
  <speed>0.0</speed>
  <fix>3d</fix>
</trkpt>
<trkpt lat="40.0713749" lon="-105.229789">
  <ele>1582.93</ele>
  <time>2026-08-28T17:55:48Z</time>
  <course>247.54</course>
  <speed>0.022360679774997897</speed>
  <fix>3d</fix>
</trkpt>
<trkpt lat="40.0713749" lon="-105.229789">
  <ele>1583.0</ele>
  <time>2026-08-28T17:55:48Z</time>
  <course>0.0</course>
  <speed>0.0</speed>
  <fix>3d</fix>
</trkpt>
<trkpt lat="40.0713749" lon="-105.229789">
  <ele>1582.94</ele>
  <time>2026-08-28T17:55:48Z</time>
  <course>247.53</course>
  <speed>0.022360679774997897</speed>
  <fix>3d</fix>
</trkpt>
<trkpt lat="40.0713749" lon="-105.229789">
  <ele>1583.0</ele>
  <time>2026-08-28T17:55:48Z</time>
  <course>0.0</course>
  <speed>0.0</speed>
  <fix>3d</fix>
</trkpt>
<trkpt lat="40.0713749" lon="-105.229789">
  <ele>1582.94</ele>
  <time>2026-08-28T17:55:48Z</time>
  <course>247.53</course>
  <speed>0.022360679774997897</speed>
  <fix>3d</fix>
</trkpt>
<trkpt lat="40.0713749" lon="-105.229789">
  <ele>1583.0</ele>
  <time>2026-08-28T17:55:48Z</time>
  <course>0.0</course>
  <speed>0.0</speed>
  <fix>3d</fix>
</trkpt>
<trkpt lat="40.071375" lon="-105.229789">
  <ele>1582.94</ele>
  <time>2026-08-28T17:55:48Z</time>
  <course>247.53</course>
  <speed>0.022360679774997897</speed>
  <fix>3d</fix>
</trkpt>
<trkpt lat="40.0713749" lon="-105.229789">
  <ele>1583.0</ele>
  <time>2026-08-28T17:55:48Z</time>
  <course>0.0</course>
  <speed>0.0</speed>
  <fix>3d</fix>
</trkpt>
<trkpt lat="39.655741" lon="-104.1383097">
  <ele>1566.58</ele>
  <time>2026-08-28T17:55:49Z</time>
  <course>0.0</course>
  <speed>0.0</speed>
  <fix>3d</fix>
</trkpt>
<trkpt lat="40.0713749" lon="-105.229789">
  <ele>1583.0</ele>
  <time>2026-08-28T17:55:49Z</time>
  <course>0.0</course>
  <speed>0.0</speed>
  <fix>3d</fix>
</trkpt>
<trkpt lat="40.0713749" lon="-105.229789">
  <ele>1583.0</ele>
  <time>2026-08-28T17:55:49Z</time>
  <course>238.36</course>
  <speed>0.0</speed>
  <fix>3d</fix>
</trkpt>
<trkpt lat="40.0713749" lon="-105.229789">
  <ele>1583.0</ele>
  <time>2026-08-28T17:55:49Z</time>
  <course>0.0</course>
  <speed>0.0</speed>
  <fix>3d</fix>
</trkpt>
<trkpt lat="40.0713749" lon="-105.229789">
  <ele>1583.0</ele>
  <time>2026-08-28T17:55:49Z</time>
  <course>238.44</course>
  <speed>0.0</speed>
  <fix>3d</fix>
</trkpt>
<trkpt lat="40.0713749" lon="-105.229789">
  <ele>1583.0</ele>
  <time>2026-08-28T17:55:49Z</time>
  <course>0.0</course>
  <speed>0.0</speed>
  <fix>3d</fix>
</trkpt>
<trkpt lat="40.0713749" lon="-105.229789">
  <ele>1583.0</ele>
  <time>2026-08-28T17:55:49Z</time>
  <course>238.69</course>
  <speed>0.0</speed>
  <fix>3d</fix>
</trkpt>
<trkpt lat="40.0713749" lon="-105.229789">
  <ele>1583.0</ele>
  <time>2026-08-28T17:55:49Z</time>
  <course>0.0</course>
  <speed>0.0</speed>
  <fix>3d</fix>
</trkpt>
<trkpt lat="40.0713749" lon="-105.229789">
  <ele>1583.0</ele>
  <time>2026-08-28T17:55:49Z</time>
  <course>238.93</course>
  <speed>0.0</speed>
  <fix>3d</fix>
</trkpt>
<trkpt lat="40.0713749" lon="-105.229789">
  <ele>1583.0</ele>
  <time>2026-08-28T17:55:49Z</time>
  <course>0.0</course>
  <speed>0.0</speed>
  <fix>3d</fix>
</trkpt>
<trkpt lat="40.0713749" lon="-105.229789">
  <ele>1583.0</ele>
  <time>2026-08-28T17:55:49Z</time>
  <course>239.26</course>
  <speed>0.0</speed>
  <fix>3d</fix>
</trkpt>
<trkpt lat="40.0713749" lon="-105.229789">
  <ele>1583.0</ele>
  <time>2026-08-28T17:55:49Z</time>
  <course>0.0</course>
  <speed>0.0</speed>
  <fix>3d</fix>
</trkpt>
<trkpt lat="40.0713749" lon="-105.229789">
  <ele>1583.0</ele>
  <time>2026-08-28T17:55:49Z</time>
  <course>239.61</course>
  <speed>0.0</speed>
  <fix>3d</fix>
</trkpt>
<trkpt lat="40.0713749" lon="-105.229789">
  <ele>1583.0</ele>
  <time>2026-08-28T17:55:49Z</time>
  <course>0.0</course>
  <speed>0.0</speed>
  <fix>3d</fix>
</trkpt>
<trkpt lat="40.0713749" lon="-105.229789">
  <ele>1583.0</ele>
  <time>2026-08-28T17:55:49Z</time>
  <course>239.96</course>
  <speed>0.0</speed>
  <fix>3d</fix>
</trkpt>
<trkpt lat="40.0713749" lon="-105.229789">
  <ele>1583.0</ele>
  <time>2026-08-28T17:55:49Z</time>
  <course>0.0</course>
  <speed>0.0</speed>
  <fix>3d</fix>
</trkpt>
<trkpt lat="40.0713749" lon="-105.229789">
  <ele>1583.0</ele>
  <time>2026-08-28T17:55:49Z</time>
  <course>240.29</course>
  <speed>0.0</speed>
  <fix>3d</fix>
</trkpt>
<trkpt lat="40.0713749" lon="-105.229789">
  <ele>1583.0</ele>
  <time>2026-08-28T17:55:49Z</time>
  <course>0.0</course>
  <speed>0.0</speed>
  <fix>3d</fix>
</trkpt>
<trkpt lat="40.0713749" lon="-105.229789">
  <ele>1583.0</ele>
  <time>2026-08-28T17:55:49Z</time>
  <course>240.61</course>
  <speed>0.0</speed>
  <fix>3d</fix>
</trkpt>
<trkpt lat="40.0713749" lon="-105.229789">
  <ele>1583.0</ele>
  <time>2026-08-28T17:55:49Z</time>
  <course>0.0</course>
  <speed>0.0</speed>
  <fix>3d</fix>
</trkpt>
<trkpt lat="40.0713749" lon="-105.229789">
  <ele>1583.0</ele>
  <time>2026-08-28T17:55:49Z</time>
  <course>240.92</course>
  <speed>0.0</speed>
  <fix>3d</fix>
</trkpt>
<trkpt lat="40.0713749" lon="-105.229789">
  <ele>1583.0</ele>
  <time>2026-08-28T17:55:49Z</time>
  <course>0.0</course>
  <speed>0.0</speed>
  <fix>3d</fix>
</trkpt>
<trkpt lat="40.0713749" lon="-105.229789">
  <ele>1583.0</ele>
  <time>2026-08-28T17:55:49Z</time>
  <course>241.21</course>
  <speed>0.0</speed>
  <fix>3d</fix>
</trkpt>
<trkpt lat="40.0713749" lon="-105.229789">
  <ele>1583.0</ele>
  <time>2026-08-28T17:55:49Z</time>
  <course>0.0</course>
  <speed>0.0</speed>
  <fix>3d</fix>
</trkpt>
<trkpt lat="40.0713749" lon="-105.229789">
  <ele>1583.0</ele>
  <time>2026-08-28T17:55:49Z</time>
  <course>241.49</course>
  <speed>0.0</speed>
  <fix>3d</fix>
</trkpt>
<trkpt lat="40.0713749" lon="-105.229789">
  <ele>1583.0</ele>
  <time>2026-08-28T17:55:49Z</time>
  <course>0.0</course>
  <speed>0.0</speed>
  <fix>3d</fix>
</trkpt>
<trkpt lat="40.0713749" lon="-105.229789">
  <ele>1583.0</ele>
  <time>2026-08-28T17:55:49Z</time>
  <course>241.77</course>
  <speed>0.0</speed>
  <fix>3d</fix>
</trkpt>
<trkpt lat="40.0713749" lon="-105.229789">
  <ele>1583.0</ele>
  <time>2026-08-28T17:55:49Z</time>
  <course>0.0</course>
  <speed>0.0</speed>
  <fix>3d</fix>
</trkpt>
<trkpt lat="40.0713749" lon="-105.229789">
  <ele>1583.0</ele>
  <time>2026-08-28T17:55:49Z</time>
  <course>242.03</course>
  <speed>0.0</speed>
  <fix>3d</fix>
</trkpt>
<trkpt lat="40.0713749" lon="-105.229789">
  <ele>1583.0</ele>
  <time>2026-08-28T17:55:49Z</time>
  <course>0.0</course>
  <speed>0.0</speed>
  <fix>3d</fix>
</trkpt>
<trkpt lat="40.0713749" lon="-105.229789">
  <ele>1583.0</ele>
  <time>2026-08-28T17:55:49Z</time>
  <course>242.29</course>
  <speed>0.0</speed>
  <fix>3d</fix>
</trkpt>
<trkpt lat="40.0713749" lon="-105.229789">
  <ele>1583.0</ele>
  <time>2026-08-28T17:55:49Z</time>
  <course>0.0</course>
  <speed>0.0</speed>
  <fix>3d</fix>
</trkpt>
<trkpt lat="40.0713749" lon="-105.229789">
  <ele>1583.0</ele>
  <time>2026-08-28T17:55:49Z</time>
  <course>242.54</course>
  <speed>0.0</speed>
  <fix>3d</fix>
</trkpt>
<trkpt lat="40.0713749" lon="-105.229789">
  <ele>1583.0</ele>
  <time>2026-08-28T17:55:49Z</time>
  <course>0.0</course>
  <speed>0.0</speed>
  <fix>3d</fix>
</trkpt>
<trkpt lat="40.0713749" lon="-105.229789">
  <ele>1583.0</ele>
  <time>2026-08-28T17:55:49Z</time>
  <course>242.79</course>
  <speed>0.0</speed>
  <fix>3d</fix>
</trkpt>
<trkpt lat="40.0713749" lon="-105.229789">
  <ele>1583.0</ele>
  <time>2026-08-28T17:55:49Z</time>
  <course>0.0</course>
  <speed>0.0</speed>
  <fix>3d</fix>
</trkpt>
<trkpt lat="40.0713749" lon="-105.229789">
  <ele>1583.0</ele>
  <time>2026-08-28T17:55:49Z</time>
  <course>243.02</course>
  <speed>0.0</speed>
  <fix>3d</fix>
</trkpt>
<trkpt lat="40.0713749" lon="-105.229789">
  <ele>1583.0</ele>
  <time>2026-08-28T17:55:49Z</time>
  <course>0.0</course>
  <speed>0.0</speed>
  <fix>3d</fix>
</trkpt>
<trkpt lat="40.0713749" lon="-105.229789">
  <ele>1583.0</ele>
  <time>2026-08-28T17:55:49Z</time>
  <course>243.25</course>
  <speed>0.0</speed>
  <fix>3d</fix>
</trkpt>
<trkpt lat="40.0713749" lon="-105.229789">
  <ele>1583.0</ele>
  <time>2026-08-28T17:55:49Z</time>
  <course>0.0</course>
  <speed>0.0</speed>
  <fix>3d</fix>
</trkpt>
<trkpt lat="40.0713749" lon="-105.229789">
  <ele>1583.0</ele>
  <time>2026-08-28T17:55:49Z</time>
  <course>243.47</course>
  <speed>0.0</speed>
  <fix>3d</fix>
</trkpt>
<trkpt lat="40.0713749" lon="-105.229789">
  <ele>1583.0</ele>
  <time>2026-08-28T17:55:49Z</time>
  <course>0.0</course>
  <speed>0.0</speed>
  <fix>3d</fix>
</trkpt>
<trkpt lat="40.0713749" lon="-105.229789">
  <ele>1583.0</ele>
  <time>2026-08-28T17:55:49Z</time>
  <course>243.68</course>
  <speed>0.0</speed>
  <fix>3d</fix>
</trkpt>
<trkpt lat="40.0713749" lon="-105.229789">
  <ele>1583.0</ele>
  <time>2026-08-28T17:55:49Z</time>
  <course>0.0</course>
  <speed>0.0</speed>
  <fix>3d</fix>
</trkpt>
<trkpt lat="40.0713749" lon="-105.229789">
  <ele>1583.0</ele>
  <time>2026-08-28T17:55:49Z</time>
  <course>243.89</course>
  <speed>0.0</speed>
  <fix>3d</fix>
</trkpt>
<trkpt lat="40.0713749" lon="-105.229789">
  <ele>1583.0</ele>
  <time>2026-08-28T17:55:49Z</time>
  <course>0.0</course>
  <speed>0.0</speed>
  <fix>3d</fix>
</trkpt>
<trkpt lat="40.0713749" lon="-105.229789">
  <ele>1583.0</ele>
  <time>2026-08-28T17:55:49Z</time>
  <course>244.09</course>
  <speed>0.0</speed>
  <fix>3d</fix>
</trkpt>
<trkpt lat="40.0713749" lon="-105.229789">
  <ele>1583.0</ele>
  <time>2026-08-28T17:55:49Z</time>
  <course>0.0</course>
  <speed>0.0</speed>
  <fix>3d</fix>
</trkpt>
<trkpt lat="40.0713749" lon="-105.229789">
  <ele>1583.0</ele>
  <time>2026-08-28T17:55:49Z</time>
  <course>244.28</course>
  <speed>0.0</speed>
  <fix>3d</fix>
</trkpt>
<trkpt lat="40.0713749" lon="-105.229789">
  <ele>1583.0</ele>
  <time>2026-08-28T17:55:49Z</time>
  <course>0.0</course>
  <speed>0.0</speed>
  <fix>3d</fix>
</trkpt>
<trkpt lat="40.0713749" lon="-105.229789">
  <ele>1583.0</ele>
  <time>2026-08-28T17:55:49Z</time>
  <course>244.46</course>
  <speed>0.0</speed>
  <fix>3d</fix>
</trkpt>
<trkpt lat="40.0713749" lon="-105.229789">
  <ele>1583.0</ele>
  <time>2026-08-28T17:55:49Z</time>
  <course>0.0</course>
  <speed>0.0</speed>
  <fix>3d</fix>
</trkpt>
<trkpt lat="40.0713749" lon="-105.229789">
  <ele>1583.0</ele>
  <time>2026-08-28T17:55:49Z</time>
  <course>244.64</course>
  <speed>0.0</speed>
  <fix>3d</fix>
</trkpt>
<trkpt lat="40.0713749" lon="-105.229789">
  <ele>1583.0</ele>
  <time>2026-08-28T17:55:49Z</time>
  <course>0.0</course>
  <speed>0.0</speed>
  <fix>3d</fix>
</trkpt>
<trkpt lat="40.0713749" lon="-105.229789">
  <ele>1583.0</ele>
  <time>2026-08-28T17:55:49Z</time>
  <course>244.81</course>
  <speed>0.0</speed>
  <fix>3d</fix>
</trkpt>
<trkpt lat="40.0713749" lon="-105.229789">
  <ele>1583.0</ele>
  <time>2026-08-28T17:55:49Z</time>
  <course>0.0</course>
  <speed>0.0</speed>
  <fix>3d</fix>
</trkpt>
<trkpt lat="40.0713749" lon="-105.229789">
  <ele>1583.0</ele>
  <time>2026-08-28T17:55:49Z</time>
  <course>244.97</course>
  <speed>0.0</speed>
  <fix>3d</fix>
</trkpt>
<trkpt lat="40.0713749" lon="-105.229789">
  <ele>1583.0</ele>
  <time>2026-08-28T17:55:49Z</time>
  <course>0.0</course>
  <speed>0.0</speed>
  <fix>3d</fix>
</trkpt>
<trkpt lat="40.0713749" lon="-105.229789">
  <ele>1583.0</ele>
  <time>2026-08-28T17:55:49Z</time>
  <course>245.13</course>
  <speed>0.0</speed>
  <fix>3d</fix>
</trkpt>
<trkpt lat="40.0713749" lon="-105.229789">
  <ele>1583.0</ele>
  <time>2026-08-28T17:55:49Z</time>
  <course>0.0</course>
  <speed>0.0</speed>
  <fix>3d</fix>
</trkpt>
<trkpt lat="40.0713749" lon="-105.229789">
  <ele>1583.0</ele>
  <time>2026-08-28T17:55:49Z</time>
  <course>245.29</course>
  <speed>0.0</speed>
  <fix>3d</fix>
</trkpt>
<trkpt lat="40.0713749" lon="-105.229789">
  <ele>1583.0</ele>
  <time>2026-08-28T17:55:49Z</time>
  <course>0.0</course>
  <speed>0.0</speed>
  <fix>3d</fix>
</trkpt>
<trkpt lat="40.0713749" lon="-105.229789">
  <ele>1583.0</ele>
  <time>2026-08-28T17:55:49Z</time>
  <course>245.43</course>
  <speed>0.0</speed>
  <fix>3d</fix>
</trkpt>
<trkpt lat="40.0713749" lon="-105.229789">
  <ele>1583.0</ele>
  <time>2026-08-28T17:55:49Z</time>
  <course>0.0</course>
  <speed>0.0</speed>
  <fix>3d</fix>
</trkpt>
<trkpt lat="40.0713749" lon="-105.229789">
  <ele>1583.0</ele>
  <time>2026-08-28T17:55:49Z</time>
  <course>245.57</course>
  <speed>0.0</speed>
  <fix>3d</fix>
</trkpt>
<trkpt lat="40.0713749" lon="-105.229789">
  <ele>1583.0</ele>
  <time>2026-08-28T17:55:49Z</time>
  <course>0.0</course>
  <speed>0.0</speed>
  <fix>3d</fix>
</trkpt>
<trkpt lat="40.0713749" lon="-105.229789">
  <ele>1583.0</ele>
  <time>2026-08-28T17:55:49Z</time>
  <course>245.71</course>
  <speed>0.0</speed>
  <fix>3d</fix>
</trkpt>
<trkpt lat="40.0713749" lon="-105.229789">
  <ele>1583.0</ele>
  <time>2026-08-28T17:55:49Z</time>
  <course>0.0</course>
  <speed>0.0</speed>
  <fix>3d</fix>
</trkpt>
<trkpt lat="40.0713749" lon="-105.229789">
  <ele>1583.0</ele>
  <time>2026-08-28T17:55:49Z</time>
  <course>245.84</course>
  <speed>0.0</speed>
  <fix>3d</fix>
</trkpt>
<trkpt lat="40.0713749" lon="-105.229789">
  <ele>1583.0</ele>
  <time>2026-08-28T17:55:49Z</time>
  <course>0.0</course>
  <speed>0.0</speed>
  <fix>3d</fix>
</trkpt>
<trkpt lat="40.0713749" lon="-105.229789">
  <ele>1583.0</ele>
  <time>2026-08-28T17:55:49Z</time>
  <course>245.96</course>
  <speed>0.0</speed>
  <fix>3d</fix>
</trkpt>
<trkpt lat="40.0713749" lon="-105.229789">
  <ele>1583.0</ele>
  <time>2026-08-28T17:55:49Z</time>
  <course>0.0</course>
  <speed>0.0</speed>
  <fix>3d</fix>
</trkpt>
<trkpt lat="40.0713749" lon="-105.229789">
  <ele>1583.0</ele>
  <time>2026-08-28T17:55:49Z</time>
  <course>246.08</course>
  <speed>0.0</speed>
  <fix>3d</fix>
</trkpt>
<trkpt lat="40.0713749" lon="-105.229789">
  <ele>1583.0</ele>
  <time>2026-08-28T17:55:49Z</time>
  <course>0.0</course>
  <speed>0.0</speed>
  <fix>3d</fix>
</trkpt>
<trkpt lat="40.0713749" lon="-105.229789">
  <ele>1583.0</ele>
  <time>2026-08-28T17:55:49Z</time>
  <course>246.19</course>
  <speed>0.0</speed>
  <fix>3d</fix>
</trkpt>
<trkpt lat="40.0713749" lon="-105.229789">
  <ele>1583.0</ele>
  <time>2026-08-28T17:55:49Z</time>
  <course>0.0</course>
  <speed>0.0</speed>
  <fix>3d</fix>
</trkpt>
<trkpt lat="40.0713749" lon="-105.229789">
  <ele>1583.0</ele>
  <time>2026-08-28T17:55:49Z</time>
  <course>246.3</course>
  <speed>0.0</speed>
  <fix>3d</fix>
</trkpt>
<trkpt lat="40.0713749" lon="-105.229789">
  <ele>1583.0</ele>
  <time>2026-08-28T17:55:49Z</time>
  <course>0.0</course>
  <speed>0.0</speed>
  <fix>3d</fix>
</trkpt>
<trkpt lat="40.0713749" lon="-105.229789">
  <ele>1583.0</ele>
  <time>2026-08-28T17:55:49Z</time>
  <course>246.41</course>
  <speed>0.0</speed>
  <fix>3d</fix>
</trkpt>
<trkpt lat="40.0713749" lon="-105.229789">
  <ele>1583.0</ele>
  <time>2026-08-28T17:55:49Z</time>
  <course>0.0</course>
  <speed>0.0</speed>
  <fix>3d</fix>
</trkpt>
<trkpt lat="40.0713749" lon="-105.229789">
  <ele>1583.0</ele>
  <time>2026-08-28T17:55:49Z</time>
  <course>246.51</course>
  <speed>0.0</speed>
  <fix>3d</fix>
</trkpt>
<trkpt lat="40.0713749" lon="-105.229789">
  <ele>1583.0</ele>
  <time>2026-08-28T17:55:49Z</time>
  <course>0.0</course>
  <speed>0.0</speed>
  <fix>3d</fix>
</trkpt>
<trkpt lat="40.0713749" lon="-105.229789">
  <ele>1583.0</ele>
  <time>2026-08-28T17:55:49Z</time>
  <course>246.6</course>
  <speed>0.0</speed>
  <fix>3d</fix>
</trkpt>
<trkpt lat="40.0713749" lon="-105.229789">
  <ele>1583.0</ele>
  <time>2026-08-28T17:55:49Z</time>
  <course>0.0</course>
  <speed>0.0</speed>
  <fix>3d</fix>
</trkpt>
<trkpt lat="40.0713749" lon="-105.229789">
  <ele>1583.0</ele>
  <time>2026-08-28T17:55:49Z</time>
  <course>246.7</course>
  <speed>0.0</speed>
  <fix>3d</fix>
</trkpt>
<trkpt lat="40.0713749" lon="-105.229789">
  <ele>1583.0</ele>
  <time>2026-08-28T17:55:49Z</time>
  <course>0.0</course>
  <speed>0.0</speed>
  <fix>3d</fix>
</trkpt>
<trkpt lat="40.0713749" lon="-105.229789">
  <ele>1583.0</ele>
  <time>2026-08-28T17:55:49Z</time>
  <course>246.78</course>
  <speed>0.0</speed>
  <fix>3d</fix>
</trkpt>
<trkpt lat="40.0713749" lon="-105.229789">
  <ele>1583.0</ele>
  <time>2026-08-28T17:55:49Z</time>
  <course>0.0</course>
  <speed>0.0</speed>
  <fix>3d</fix>
</trkpt>
<trkpt lat="40.0713749" lon="-105.229789">
  <ele>1583.0</ele>
  <time>2026-08-28T17:55:49Z</time>
  <course>246.87</course>
  <speed>0.0</speed>
  <fix>3d</fix>
</trkpt>
<trkpt lat="40.0713749" lon="-105.229789">
  <ele>1583.0</ele>
  <time>2026-08-28T17:55:49Z</time>
  <course>0.0</course>
  <speed>0.0</speed>
  <fix>3d</fix>
</trkpt>
<trkpt lat="40.0713749" lon="-105.229789">
  <ele>1583.0</ele>
  <time>2026-08-28T17:55:49Z</time>
  <course>246.95</course>
  <speed>0.0</speed>
  <fix>3d</fix>
</trkpt>
<trkpt lat="40.0713749" lon="-105.229789">
  <ele>1583.0</ele>
  <time>2026-08-28T17:55:49Z</time>
  <course>0.0</course>
  <speed>0.0</speed>
  <fix>3d</fix>
</trkpt>
<trkpt lat="40.0713749" lon="-105.229789">
  <ele>1583.0</ele>
  <time>2026-08-28T17:55:49Z</time>
  <course>247.02</course>
  <speed>0.0</speed>
  <fix>3d</fix>
</trkpt>
<trkpt lat="40.0713749" lon="-105.229789">
  <ele>1583.0</ele>
  <time>2026-08-28T17:55:49Z</time>
  <course>0.0</course>
  <speed>0.0</speed>
  <fix>3d</fix>
</trkpt>
<trkpt lat="40.0713749" lon="-105.229789">
  <ele>1583.0</ele>
  <time>2026-08-28T17:55:49Z</time>
  <course>247.1</course>
  <speed>0.0</speed>
  <fix>3d</fix>
</trkpt>
<trkpt lat="40.0713749" lon="-105.229789">
  <ele>1583.0</ele>
  <time>2026-08-28T17:55:49Z</time>
  <course>0.0</course>
  <speed>0.0</speed>
  <fix>3d</fix>
</trkpt>
<trkpt lat="40.0713749" lon="-105.229789">
  <ele>1583.0</ele>
  <time>2026-08-28T17:55:49Z</time>
  <course>247.17</course>
  <speed>0.0</speed>
  <fix>3d</fix>
</trkpt>
<trkpt lat="40.0713749" lon="-105.229789">
  <ele>1583.0</ele>
  <time>2026-08-28T17:55:49Z</time>
  <course>0.0</course>
  <speed>0.0</speed>
  <fix>3d</fix>
</trkpt>
<trkpt lat="40.0713749" lon="-105.229789">
  <ele>1583.0</ele>
  <time>2026-08-28T17:55:49Z</time>
  <course>247.24</course>
  <speed>0.0</speed>
  <fix>3d</fix>
</trkpt>
<trkpt lat="40.0713749" lon="-105.229789">
  <ele>1583.0</ele>
  <time>2026-08-28T17:55:49Z</time>
  <course>0.0</course>
  <speed>0.0</speed>
  <fix>3d</fix>
</trkpt>
<trkpt lat="40.0713749" lon="-105.229789">
  <ele>1583.0</ele>
  <time>2026-08-28T17:55:49Z</time>
  <course>247.3</course>
  <speed>0.0</speed>
  <fix>3d</fix>
</trkpt>
<trkpt lat="40.0713749" lon="-105.229789">
  <ele>1583.0</ele>
  <time>2026-08-28T17:55:49Z</time>
  <course>0.0</course>
  <speed>0.0</speed>
  <fix>3d</fix>
</trkpt>
<trkpt lat="40.0713749" lon="-105.229789">
  <ele>1583.0</ele>
  <time>2026-08-28T17:55:49Z</time>
  <course>247.36</course>
  <speed>0.0</speed>
  <fix>3d</fix>
</trkpt>
<trkpt lat="40.0713749" lon="-105.229789">
  <ele>1583.0</ele>
  <time>2026-08-28T17:55:49Z</time>
  <course>0.0</course>
  <speed>0.0</speed>
  <fix>3d</fix>
</trkpt>
<trkpt lat="40.0713749" lon="-105.229789">
  <ele>1583.0</ele>
  <time>2026-08-28T17:55:49Z</time>
  <course>247.42</course>
  <speed>0.0</speed>
  <fix>3d</fix>
</trkpt>
<trkpt lat="40.0713749" lon="-105.229789">
  <ele>1583.0</ele>
  <time>2026-08-28T17:55:49Z</time>
  <course>0.0</course>
  <speed>0.0</speed>
  <fix>3d</fix>
</trkpt>
<trkpt lat="40.0713749" lon="-105.229789">
  <ele>1583.0</ele>
  <time>2026-08-28T17:55:49Z</time>
  <course>247.47</course>
  <speed>0.0</speed>
  <fix>3d</fix>
</trkpt>
<trkpt lat="40.0713749" lon="-105.229789">
  <ele>1583.0</ele>
  <time>2026-08-28T17:55:49Z</time>
  <course>0.0</course>
  <speed>0.0</speed>
  <fix>3d</fix>
</trkpt>
<trkpt lat="40.0713749" lon="-105.229789">
  <ele>1583.0</ele>
  <time>2026-08-28T17:55:49Z</time>
  <course>247.53</course>
  <speed>0.0</speed>
  <fix>3d</fix>
</trkpt>
<trkpt lat="40.0713749" lon="-105.229789">
  <ele>1583.0</ele>
  <time>2026-08-28T17:55:49Z</time>
  <course>0.0</course>
  <speed>0.0</speed>
  <fix>3d</fix>
</trkpt>
<trkpt lat="40.0713749" lon="-105.229789">
  <ele>1583.0</ele>
  <time>2026-08-28T17:55:49Z</time>
  <course>247.58</course>
  <speed>0.0</speed>
  <fix>3d</fix>
</trkpt>
<trkpt lat="40.0713749" lon="-105.229789">
  <ele>1583.0</ele>
  <time>2026-08-28T17:55:49Z</time>
  <course>0.0</course>
  <speed>0.0</speed>
  <fix>3d</fix>
</trkpt>
<trkpt lat="40.0713749" lon="-105.229789">
  <ele>1583.0</ele>
  <time>2026-08-28T17:55:49Z</time>
  <course>247.63</course>
  <speed>0.0</speed>
  <fix>3d</fix>
</trkpt>
<trkpt lat="40.0713749" lon="-105.229789">
  <ele>1583.0</ele>
  <time>2026-08-28T17:55:49Z</time>
  <course>0.0</course>
  <speed>0.0</speed>
  <fix>3d</fix>
</trkpt>
<trkpt lat="40.0713749" lon="-105.229789">
  <ele>1583.0</ele>
  <time>2026-08-28T17:55:49Z</time>
  <course>247.67</course>
  <speed>0.0</speed>
  <fix>3d</fix>
</trkpt>
<trkpt lat="40.0713749" lon="-105.229789">
  <ele>1583.0</ele>
  <time>2026-08-28T17:55:49Z</time>
  <course>0.0</course>
  <speed>0.0</speed>
  <fix>3d</fix>
</trkpt>
<trkpt lat="40.0713749" lon="-105.229789">
  <ele>1583.0</ele>
  <time>2026-08-28T17:55:49Z</time>
  <course>247.72</course>
  <speed>0.0</speed>
  <fix>3d</fix>
</trkpt>
<trkpt lat="40.0713749" lon="-105.229789">
  <ele>1583.0</ele>
  <time>2026-08-28T17:55:49Z</time>
  <course>0.0</course>
  <speed>0.0</speed>
  <fix>3d</fix>
</trkpt>
<trkpt lat="40.0713749" lon="-105.229789">
  <ele>1583.0</ele>
  <time>2026-08-28T17:55:49Z</time>
  <course>247.76</course>
  <speed>0.0</speed>
  <fix>3d</fix>
</trkpt>
<trkpt lat="40.0713749" lon="-105.229789">
  <ele>1583.0</ele>
  <time>2026-08-28T17:55:49Z</time>
  <course>0.0</course>
  <speed>0.0</speed>
  <fix>3d</fix>
</trkpt>
<trkpt lat="40.0713749" lon="-105.229789">
  <ele>1583.0</ele>
  <time>2026-08-28T17:55:49Z</time>
  <course>247.8</course>
  <speed>0.0</speed>
  <fix>3d</fix>
</trkpt>
<trkpt lat="40.0713749" lon="-105.229789">
  <ele>1583.0</ele>
  <time>2026-08-28T17:55:49Z</time>
  <course>0.0</course>
  <speed>0.0</speed>
  <fix>3d</fix>
</trkpt>
<trkpt lat="40.0713749" lon="-105.229789">
  <ele>1583.0</ele>
  <time>2026-08-28T17:55:49Z</time>
  <course>247.83</course>
  <speed>0.0</speed>
  <fix>3d</fix>
</trkpt>
<trkpt lat="40.0713749" lon="-105.229789">
  <ele>1583.0</ele>
  <time>2026-08-28T17:55:49Z</time>
  <course>0.0</course>
  <speed>0.0</speed>
  <fix>3d</fix>
</trkpt>
<trkpt lat="40.0713749" lon="-105.229789">
  <ele>1583.0</ele>
  <time>2026-08-28T17:55:49Z</time>
  <course>247.87</course>
  <speed>0.0</speed>
  <fix>3d</fix>
</trkpt>
<trkpt lat="40.0713749" lon="-105.229789">
  <ele>1583.0</ele>
  <time>2026-08-28T17:55:49Z</time>
  <course>0.0</course>
  <speed>0.0</speed>
  <fix>3d</fix>
</trkpt>
<trkpt lat="40.0713749" lon="-105.229789">
  <ele>1583.0</ele>
  <time>2026-08-28T17:55:49Z</time>
  <course>247.9</course>
  <speed>0.0</speed>
  <fix>3d</fix>
</trkpt>
<trkpt lat="40.0713749" lon="-105.229789">
  <ele>1583.0</ele>
  <time>2026-08-28T17:55:49Z</time>
  <course>0.0</course>
  <speed>0.0</speed>
  <fix>3d</fix>
</trkpt>
<trkpt lat="40.0713749" lon="-105.229789">
  <ele>1583.0</ele>
  <time>2026-08-28T17:55:49Z</time>
  <course>247.94</course>
  <speed>0.0</speed>
  <fix>3d</fix>
</trkpt>
<trkpt lat="40.0713749" lon="-105.229789">
  <ele>1583.0</ele>
  <time>2026-08-28T17:55:49Z</time>
  <course>0.0</course>
  <speed>0.0</speed>
  <fix>3d</fix>
</trkpt>
<trkpt lat="40.0713749" lon="-105.229789">
  <ele>1583.0</ele>
  <time>2026-08-28T17:55:49Z</time>
  <course>247.97</course>
  <speed>0.0</speed>
  <fix>3d</fix>
</trkpt>
<trkpt lat="40.0713749" lon="-105.229789">
  <ele>1583.0</ele>
  <time>2026-08-28T17:55:49Z</time>
  <course>0.0</course>
  <speed>0.0</speed>
  <fix>3d</fix>
</trkpt>
<trkpt lat="40.0713749" lon="-105.229789">
  <ele>1583.0</ele>
  <time>2026-08-28T17:55:49Z</time>
  <course>248.0</course>
  <speed>0.0</speed>
  <fix>3d</fix>
</trkpt>
<trkpt lat="40.0713749" lon="-105.229789">
  <ele>1583.0</ele>
  <time>2026-08-28T17:55:49Z</time>
  <course>0.0</course>
  <speed>0.0</speed>
  <fix>3d</fix>
</trkpt>
<trkpt lat="40.0713749" lon="-105.229789">
  <ele>1583.0</ele>
  <time>2026-08-28T17:55:49Z</time>
  <course>248.02</course>
  <speed>0.0</speed>
  <fix>3d</fix>
</trkpt>
<trkpt lat="40.0713749" lon="-105.229789">
  <ele>1583.0</ele>
  <time>2026-08-28T17:55:49Z</time>
  <course>0.0</course>
  <speed>0.0</speed>
  <fix>3d</fix>
</trkpt>
<trkpt lat="40.0713749" lon="-105.229789">
  <ele>1583.0</ele>
  <time>2026-08-28T17:55:49Z</time>
  <course>248.05</course>
  <speed>0.0</speed>
  <fix>3d</fix>
</trkpt>
<trkpt lat="40.0713749" lon="-105.229789">
  <ele>1583.0</ele>
  <time>2026-08-28T17:55:49Z</time>
  <course>0.0</course>
  <speed>0.0</speed>
  <fix>3d</fix>
</trkpt>
<trkpt lat="40.0713749" lon="-105.229789">
  <ele>1583.0</ele>
  <time>2026-08-28T17:55:49Z</time>
  <course>248.08</course>
  <speed>0.0</speed>
  <fix>3d</fix>
</trkpt>
<trkpt lat="40.0713749" lon="-105.229789">
  <ele>1583.0</ele>
  <time>2026-08-28T17:55:49Z</time>
  <course>0.0</course>
  <speed>0.0</speed>
  <fix>3d</fix>
</trkpt>
<trkpt lat="40.0713749" lon="-105.229789">
  <ele>1583.0</ele>
  <time>2026-08-28T17:55:49Z</time>
  <course>248.1</course>
  <speed>0.0</speed>
  <fix>3d</fix>
</trkpt>
<trkpt lat="40.0713749" lon="-105.229789">
  <ele>1583.0</ele>
  <time>2026-08-28T17:55:49Z</time>
  <course>0.0</course>
  <speed>0.0</speed>
  <fix>3d</fix>
</trkpt>
<trkpt lat="40.0713749" lon="-105.229789">
  <ele>1583.0</ele>
  <time>2026-08-28T17:55:49Z</time>
  <course>248.12</course>
  <speed>0.0</speed>
  <fix>3d</fix>
</trkpt>
<trkpt lat="40.0713749" lon="-105.229789">
  <ele>1583.0</ele>
  <time>2026-08-28T17:55:49Z</time>
  <course>0.0</course>
  <speed>0.0</speed>
  <fix>3d</fix>
</trkpt>
<trkpt lat="40.0713749" lon="-105.229789">
  <ele>1583.0</ele>
  <time>2026-08-28T17:55:49Z</time>
  <course>248.14</course>
  <speed>0.0</speed>
  <fix>3d</fix>
</trkpt>
<trkpt lat="40.0713749" lon="-105.229789">
  <ele>1583.0</ele>
  <time>2026-08-28T17:55:49Z</time>
  <course>0.0</course>
  <speed>0.0</speed>
  <fix>3d</fix>
</trkpt>
<trkpt lat="40.0713749" lon="-105.229789">
  <ele>1583.0</ele>
  <time>2026-08-28T17:55:49Z</time>
  <course>248.16</course>
  <speed>0.0</speed>
  <fix>3d</fix>
</trkpt>
<trkpt lat="40.0713749" lon="-105.229789">
  <ele>1583.0</ele>
  <time>2026-08-28T17:55:49Z</time>
  <course>0.0</course>
  <speed>0.0</speed>
  <fix>3d</fix>
</trkpt>
<trkpt lat="40.0713749" lon="-105.229789">
  <ele>1583.0</ele>
  <time>2026-08-28T17:55:49Z</time>
  <course>248.18</course>
  <speed>0.0</speed>
  <fix>3d</fix>
</trkpt>
<trkpt lat="40.0713749" lon="-105.229789">
  <ele>1583.0</ele>
  <time>2026-08-28T17:55:49Z</time>
  <course>0.0</course>
  <speed>0.0</speed>
  <fix>3d</fix>
</trkpt>
<trkpt lat="40.0713749" lon="-105.229789">
  <ele>1583.0</ele>
  <time>2026-08-28T17:55:49Z</time>
  <course>248.2</course>
  <speed>0.0</speed>
  <fix>3d</fix>
</trkpt>
<trkpt lat="40.0713749" lon="-105.229789">
  <ele>1583.0</ele>
  <time>2026-08-28T17:55:49Z</time>
  <course>0.0</course>
  <speed>0.0</speed>
  <fix>3d</fix>
</trkpt>
<trkpt lat="40.0713749" lon="-105.229789">
  <ele>1583.0</ele>
  <time>2026-08-28T17:55:49Z</time>
  <course>248.22</course>
  <speed>0.0</speed>
  <fix>3d</fix>
</trkpt>
<trkpt lat="40.0713749" lon="-105.229789">
  <ele>1583.0</ele>
  <time>2026-08-28T17:55:49Z</time>
  <course>0.0</course>
  <speed>0.0</speed>
  <fix>3d</fix>
</trkpt>
<trkpt lat="40.0713749" lon="-105.229789">
  <ele>1583.0</ele>
  <time>2026-08-28T17:55:49Z</time>
  <course>248.23</course>
  <speed>0.0</speed>
  <fix>3d</fix>
</trkpt>
<trkpt lat="40.0713749" lon="-105.229789">
  <ele>1583.0</ele>
  <time>2026-08-28T17:55:49Z</time>
  <course>0.0</course>
  <speed>0.0</speed>
  <fix>3d</fix>
</trkpt>
<trkpt lat="40.0713749" lon="-105.229789">
  <ele>1583.0</ele>
  <time>2026-08-28T17:55:49Z</time>
  <course>248.25</course>
  <speed>0.0</speed>
  <fix>3d</fix>
</trkpt>
<trkpt lat="40.0713749" lon="-105.229789">
  <ele>1583.0</ele>
  <time>2026-08-28T17:55:49Z</time>
  <course>0.0</course>
  <speed>0.0</speed>
  <fix>3d</fix>
</trkpt>
<trkpt lat="40.0713749" lon="-105.229789">
  <ele>1583.0</ele>
  <time>2026-08-28T17:55:49Z</time>
  <course>248.26</course>
  <speed>0.0</speed>
  <fix>3d</fix>
</trkpt>
<trkpt lat="40.0713749" lon="-105.229789">
  <ele>1583.0</ele>
  <time>2026-08-28T17:55:49Z</time>
  <course>0.0</course>
  <speed>0.0</speed>
  <fix>3d</fix>
</trkpt>
<trkpt lat="40.0713749" lon="-105.229789">
  <ele>1583.0</ele>
  <time>2026-08-28T17:55:49Z</time>
  <course>248.28</course>
  <speed>0.0</speed>
  <fix>3d</fix>
</trkpt>
<trkpt lat="40.0713749" lon="-105.229789">
  <ele>1583.0</ele>
  <time>2026-08-28T17:55:49Z</time>
  <course>0.0</course>
  <speed>0.0</speed>
  <fix>3d</fix>
</trkpt>
<trkpt lat="40.0713749" lon="-105.229789">
  <ele>1583.0</ele>
  <time>2026-08-28T17:55:49Z</time>
  <course>248.29</course>
  <speed>0.0</speed>
  <fix>3d</fix>
</trkpt>
<trkpt lat="40.0713749" lon="-105.229789">
  <ele>1583.0</ele>
  <time>2026-08-28T17:55:49Z</time>
  <course>0.0</course>
  <speed>0.0</speed>
  <fix>3d</fix>
</trkpt>
<trkpt lat="40.0713749" lon="-105.229789">
  <ele>1583.0</ele>
  <time>2026-08-28T17:55:49Z</time>
  <course>248.3</course>
  <speed>0.0</speed>
  <fix>3d</fix>
</trkpt>
<trkpt lat="40.0713749" lon="-105.229789">
  <ele>1583.0</ele>
  <time>2026-08-28T17:55:49Z</time>
  <course>0.0</course>
  <speed>0.0</speed>
  <fix>3d</fix>
</trkpt>
<trkpt lat="40.0713749" lon="-105.229789">
  <ele>1583.0</ele>
  <time>2026-08-28T17:55:49Z</time>
  <course>248.31</course>
  <speed>0.0</speed>
  <fix>3d</fix>
</trkpt>
<trkpt lat="40.0713749" lon="-105.229789">
  <ele>1583.0</ele>
  <time>2026-08-28T17:55:49Z</time>
  <course>0.0</course>
  <speed>0.0</speed>
  <fix>3d</fix>
</trkpt>
<trkpt lat="40.0713749" lon="-105.229789">
  <ele>1583.0</ele>
  <time>2026-08-28T17:55:49Z</time>
  <course>248.32</course>
  <speed>0.0</speed>
  <fix>3d</fix>
</trkpt>
<trkpt lat="40.0713749" lon="-105.229789">
  <ele>1583.0</ele>
  <time>2026-08-28T17:55:49Z</time>
  <course>0.0</course>
  <speed>0.0</speed>
  <fix>3d</fix>
</trkpt>
<trkpt lat="40.0713749" lon="-105.229789">
  <ele>1583.0</ele>
  <time>2026-08-28T17:55:49Z</time>
  <course>248.33</course>
  <speed>0.0</speed>
  <fix>3d</fix>
</trkpt>
<trkpt lat="40.0713749" lon="-105.229789">
  <ele>1583.0</ele>
  <time>2026-08-28T17:55:49Z</time>
  <course>0.0</course>
  <speed>0.0</speed>
  <fix>3d</fix>
</trkpt>
<trkpt lat="40.0713749" lon="-105.229789">
  <ele>1583.0</ele>
  <time>2026-08-28T17:55:49Z</time>
  <course>248.34</course>
  <speed>0.0</speed>
  <fix>3d</fix>
</trkpt>
<trkpt lat="40.0713749" lon="-105.229789">
  <ele>1583.0</ele>
  <time>2026-08-28T17:55:49Z</time>
  <course>0.0</course>
  <speed>0.0</speed>
  <fix>3d</fix>
</trkpt>
<trkpt lat="40.0713749" lon="-105.229789">
  <ele>1583.0</ele>
  <time>2026-08-28T17:55:49Z</time>
  <course>248.35</course>
  <speed>0.0</speed>
  <fix>3d</fix>
</trkpt>
<trkpt lat="40.0713749" lon="-105.229789">
  <ele>1583.0</ele>
  <time>2026-08-28T17:55:49Z</time>
  <course>0.0</course>
  <speed>0.0</speed>
  <fix>3d</fix>
</trkpt>
<trkpt lat="40.0713749" lon="-105.229789">
  <ele>1583.0</ele>
  <time>2026-08-28T17:55:49Z</time>
  <course>248.35</course>
  <speed>0.0</speed>
  <fix>3d</fix>
</trkpt>
<trkpt lat="40.0713749" lon="-105.229789">
  <ele>1583.0</ele>
  <time>2026-08-28T17:55:49Z</time>
  <course>0.0</course>
  <speed>0.0</speed>
  <fix>3d</fix>
</trkpt>
<trkpt lat="40.0713749" lon="-105.229789">
  <ele>1583.0</ele>
  <time>2026-08-28T17:55:49Z</time>
  <course>248.36</course>
  <speed>0.0</speed>
  <fix>3d</fix>
</trkpt>
<trkpt lat="40.0713749" lon="-105.229789">
  <ele>1583.0</ele>
  <time>2026-08-28T17:55:49Z</time>
  <course>0.0</course>
  <speed>0.0</speed>
  <fix>3d</fix>
</trkpt>
<trkpt lat="40.0713749" lon="-105.229789">
  <ele>1583.0</ele>
  <time>2026-08-28T17:55:49Z</time>
  <course>248.37</course>
  <speed>0.0</speed>
  <fix>3d</fix>
</trkpt>
<trkpt lat="40.0713749" lon="-105.229789">
  <ele>1583.0</ele>
  <time>2026-08-28T17:55:49Z</time>
  <course>0.0</course>
  <speed>0.0</speed>
  <fix>3d</fix>
</trkpt>
<trkpt lat="40.0713749" lon="-105.229789">
  <ele>1583.0</ele>
  <time>2026-08-28T17:55:49Z</time>
  <course>248.37</course>
  <speed>0.0</speed>
  <fix>3d</fix>
</trkpt>
<trkpt lat="40.0713749" lon="-105.229789">
  <ele>1583.0</ele>
  <time>2026-08-28T17:55:49Z</time>
  <course>0.0</course>
  <speed>0.0</speed>
  <fix>3d</fix>
</trkpt>
<trkpt lat="40.0713749" lon="-105.229789">
  <ele>1583.0</ele>
  <time>2026-08-28T17:55:49Z</time>
  <course>248.38</course>
  <speed>0.0</speed>
  <fix>3d</fix>
</trkpt>
<trkpt lat="40.0713749" lon="-105.229789">
  <ele>1583.0</ele>
  <time>2026-08-28T17:55:49Z</time>
  <course>0.0</course>
  <speed>0.0</speed>
  <fix>3d</fix>
</trkpt>
<trkpt lat="40.0713749" lon="-105.229789">
  <ele>1583.0</ele>
  <time>2026-08-28T17:55:49Z</time>
  <course>248.38</course>
  <speed>0.0</speed>
  <fix>3d</fix>
</trkpt>
<trkpt lat="40.0713749" lon="-105.229789">
  <ele>1583.0</ele>
  <time>2026-08-28T17:55:49Z</time>
  <course>0.0</course>
  <speed>0.0</speed>
  <fix>3d</fix>
</trkpt>
<trkpt lat="40.0713749" lon="-105.229789">
  <ele>1583.0</ele>
  <time>2026-08-28T17:55:49Z</time>
  <course>248.39</course>
  <speed>0.0</speed>
  <fix>3d</fix>
</trkpt>
<trkpt lat="40.0713749" lon="-105.229789">
  <ele>1583.0</ele>
  <time>2026-08-28T17:55:49Z</time>
  <course>0.0</course>
  <speed>0.0</speed>
  <fix>3d</fix>
</trkpt>
<trkpt lat="40.0713749" lon="-105.229789">
  <ele>1583.0</ele>
  <time>2026-08-28T17:55:49Z</time>
  <course>248.39</course>
  <speed>0.0</speed>
  <fix>3d</fix>
</trkpt>
<trkpt lat="40.0713749" lon="-105.229789">
  <ele>1583.0</ele>
  <time>2026-08-28T17:55:49Z</time>
  <course>0.0</course>
  <speed>0.0</speed>
  <fix>3d</fix>
</trkpt>
<trkpt lat="40.0713749" lon="-105.229789">
  <ele>1583.0</ele>
  <time>2026-08-28T17:55:49Z</time>
  <course>248.4</course>
  <speed>0.0</speed>
  <fix>3d</fix>
</trkpt>
<trkpt lat="40.0713749" lon="-105.229789">
  <ele>1583.0</ele>
  <time>2026-08-28T17:55:49Z</time>
  <course>0.0</course>
  <speed>0.0</speed>
  <fix>3d</fix>
</trkpt>
<trkpt lat="40.0713749" lon="-105.229789">
  <ele>1583.0</ele>
  <time>2026-08-28T17:55:49Z</time>
  <course>248.4</course>
  <speed>0.0</speed>
  <fix>3d</fix>
</trkpt>
<trkpt lat="40.0713749" lon="-105.229789">
  <ele>1583.0</ele>
  <time>2026-08-28T17:55:49Z</time>
  <course>0.0</course>
  <speed>0.0</speed>
  <fix>3d</fix>
</trkpt>
<trkpt lat="40.0713749" lon="-105.229789">
  <ele>1583.0</ele>
  <time>2026-08-28T17:55:49Z</time>
  <course>248.4</course>
  <speed>0.0</speed>
  <fix>3d</fix>
</trkpt>
<trkpt lat="40.0713749" lon="-105.229789">
  <ele>1583.0</ele>
  <time>2026-08-28T17:55:49Z</time>
  <course>0.0</course>
  <speed>0.0</speed>
  <fix>3d</fix>
</trkpt>
<trkpt lat="40.0713749" lon="-105.229789">
  <ele>1583.0</ele>
  <time>2026-08-28T17:55:49Z</time>
  <course>248.4</course>
  <speed>0.0</speed>
  <fix>3d</fix>
</trkpt>
<trkpt lat="40.0713749" lon="-105.229789">
  <ele>1583.0</ele>
  <time>2026-08-28T17:55:49Z</time>
  <course>0.0</course>
  <speed>0.0</speed>
  <fix>3d</fix>
</trkpt>
<trkpt lat="40.0713749" lon="-105.229789">
  <ele>1583.0</ele>
  <time>2026-08-28T17:55:49Z</time>
  <course>248.41</course>
  <speed>0.0</speed>
  <fix>3d</fix>
</trkpt>
<trkpt lat="40.0713749" lon="-105.229789">
  <ele>1583.0</ele>
  <time>2026-08-28T17:55:49Z</time>
  <course>0.0</course>
  <speed>0.0</speed>
  <fix>3d</fix>
</trkpt>
<trkpt lat="40.0713749" lon="-105.229789">
  <ele>1583.0</ele>
  <time>2026-08-28T17:55:49Z</time>
  <course>248.41</course>
  <speed>0.0</speed>
  <fix>3d</fix>
</trkpt>
<trkpt lat="40.0713749" lon="-105.229789">
  <ele>1583.0</ele>
  <time>2026-08-28T17:55:49Z</time>
  <course>0.0</course>
  <speed>0.0</speed>
  <fix>3d</fix>
</trkpt>
<trkpt lat="40.0713749" lon="-105.229789">
  <ele>1583.0</ele>
  <time>2026-08-28T17:55:49Z</time>
  <course>248.41</course>
  <speed>0.0</speed>
  <fix>3d</fix>
</trkpt>
<trkpt lat="40.0713749" lon="-105.229789">
  <ele>1583.0</ele>
  <time>2026-08-28T17:55:49Z</time>
  <course>0.0</course>
  <speed>0.0</speed>
  <fix>3d</fix>
</trkpt>
<trkpt lat="40.0713749" lon="-105.229789">
  <ele>1583.0</ele>
  <time>2026-08-28T17:55:49Z</time>
  <course>248.41</course>
  <speed>0.0</speed>
  <fix>3d</fix>
</trkpt>
<trkpt lat="40.0713749" lon="-105.229789">
  <ele>1583.0</ele>
  <time>2026-08-28T17:55:49Z</time>
  <course>0.0</course>
  <speed>0.0</speed>
  <fix>3d</fix>
</trkpt>
<trkpt lat="40.0713749" lon="-105.229789">
  <ele>1583.0</ele>
  <time>2026-08-28T17:55:49Z</time>
  <course>248.41</course>
  <speed>0.0</speed>
  <fix>3d</fix>
</trkpt>
<trkpt lat="40.0713749" lon="-105.229789">
  <ele>1583.0</ele>
  <time>2026-08-28T17:55:49Z</time>
  <course>0.0</course>
  <speed>0.0</speed>
  <fix>3d</fix>
</trkpt>
<trkpt lat="40.0713749" lon="-105.229789">
  <ele>1583.0</ele>
  <time>2026-08-28T17:55:49Z</time>
  <course>248.41</course>
  <speed>0.0</speed>
  <fix>3d</fix>
</trkpt>
<trkpt lat="40.0713749" lon="-105.229789">
  <ele>1583.0</ele>
  <time>2026-08-28T17:55:49Z</time>
  <course>0.0</course>
  <speed>0.0</speed>
  <fix>3d</fix>
</trkpt>
<trkpt lat="40.0713749" lon="-105.229789">
  <ele>1583.0</ele>
  <time>2026-08-28T17:55:49Z</time>
  <course>248.41</course>
  <speed>0.0</speed>
  <fix>3d</fix>
</trkpt>
<trkpt lat="40.0713749" lon="-105.229789">
  <ele>1583.0</ele>
  <time>2026-08-28T17:55:49Z</time>
  <course>0.0</course>
  <speed>0.0</speed>
  <fix>3d</fix>
</trkpt>
<trkpt lat="40.0713749" lon="-105.229789">
  <ele>1583.0</ele>
  <time>2026-08-28T17:55:49Z</time>
  <course>248.41</course>
  <speed>0.0</speed>
  <fix>3d</fix>
</trkpt>
<trkpt lat="40.0713749" lon="-105.229789">
  <ele>1583.0</ele>
  <time>2026-08-28T17:55:49Z</time>
  <course>0.0</course>
  <speed>0.0</speed>
  <fix>3d</fix>
</trkpt>
<trkpt lat="40.0713749" lon="-105.229789">
  <ele>1583.0</ele>
  <time>2026-08-28T17:55:49Z</time>
  <course>248.41</course>
  <speed>0.0</speed>
  <fix>3d</fix>
</trkpt>
<trkpt lat="40.0713749" lon="-105.229789">
  <ele>1583.0</ele>
  <time>2026-08-28T17:55:49Z</time>
  <course>0.0</course>
  <speed>0.0</speed>
  <fix>3d</fix>
</trkpt>
<trkpt lat="40.0713749" lon="-105.229789">
  <ele>1583.0</ele>
  <time>2026-08-28T17:55:49Z</time>
  <course>248.41</course>
  <speed>0.0</speed>
  <fix>3d</fix>
</trkpt>
<trkpt lat="40.0713749" lon="-105.229789">
  <ele>1583.0</ele>
  <time>2026-08-28T17:55:49Z</time>
  <course>0.0</course>
  <speed>0.0</speed>
  <fix>3d</fix>
</trkpt>
<trkpt lat="40.0713749" lon="-105.229789">
  <ele>1583.0</ele>
  <time>2026-08-28T17:55:49Z</time>
  <course>248.41</course>
  <speed>0.0</speed>
  <fix>3d</fix>
</trkpt>
<trkpt lat="40.0713749" lon="-105.229789">
  <ele>1583.0</ele>
  <time>2026-08-28T17:55:49Z</time>
  <course>0.0</course>
  <speed>0.0</speed>
  <fix>3d</fix>
</trkpt>
<trkpt lat="40.0713749" lon="-105.229789">
  <ele>1583.0</ele>
  <time>2026-08-28T17:55:49Z</time>
  <course>248.41</course>
  <speed>0.0</speed>
  <fix>3d</fix>
</trkpt>
<trkpt lat="40.0713749" lon="-105.229789">
  <ele>1583.0</ele>
  <time>2026-08-28T17:55:49Z</time>
  <course>0.0</course>
  <speed>0.0</speed>
  <fix>3d</fix>
</trkpt>
<trkpt lat="40.0713749" lon="-105.229789">
  <ele>1583.0</ele>
  <time>2026-08-28T17:55:49Z</time>
  <course>248.41</course>
  <speed>0.0</speed>
  <fix>3d</fix>
</trkpt>
<trkpt lat="40.0713749" lon="-105.229789">
  <ele>1583.0</ele>
  <time>2026-08-28T17:55:49Z</time>
  <course>0.0</course>
  <speed>0.0</speed>
  <fix>3d</fix>
</trkpt>
<trkpt lat="40.0713749" lon="-105.229789">
  <ele>1583.0</ele>
  <time>2026-08-28T17:55:49Z</time>
  <course>248.41</course>
  <speed>0.0</speed>
  <fix>3d</fix>
</trkpt>
<trkpt lat="40.0713749" lon="-105.229789">
  <ele>1583.0</ele>
  <time>2026-08-28T17:55:49Z</time>
  <course>0.0</course>
  <speed>0.0</speed>
  <fix>3d</fix>
</trkpt>
<trkpt lat="40.0713749" lon="-105.229789">
  <ele>1583.0</ele>
  <time>2026-08-28T17:55:49Z</time>
  <course>248.41</course>
  <speed>0.0</speed>
  <fix>3d</fix>
</trkpt>
<trkpt lat="40.0713749" lon="-105.229789">
  <ele>1583.0</ele>
  <time>2026-08-28T17:55:49Z</time>
  <course>0.0</course>
  <speed>0.0</speed>
  <fix>3d</fix>
</trkpt>
<trkpt lat="40.0713749" lon="-105.229789">
  <ele>1583.0</ele>
  <time>2026-08-28T17:55:49Z</time>
  <course>248.41</course>
  <speed>0.0</speed>
  <fix>3d</fix>
</trkpt>
<trkpt lat="40.0713749" lon="-105.229789">
  <ele>1583.0</ele>
  <time>2026-08-28T17:55:49Z</time>
  <course>0.0</course>
  <speed>0.0</speed>
  <fix>3d</fix>
</trkpt>
<trkpt lat="40.0713749" lon="-105.229789">
  <ele>1583.0</ele>
  <time>2026-08-28T17:55:49Z</time>
  <course>248.4</course>
  <speed>0.0</speed>
  <fix>3d</fix>
</trkpt>
<trkpt lat="40.0713749" lon="-105.229789">
  <ele>1583.0</ele>
  <time>2026-08-28T17:55:49Z</time>
  <course>0.0</course>
  <speed>0.0</speed>
  <fix>3d</fix>
</trkpt>
<trkpt lat="40.0713749" lon="-105.229789">
  <ele>1583.0</ele>
  <time>2026-08-28T17:55:49Z</time>
  <course>248.4</course>
  <speed>0.01</speed>
  <fix>3d</fix>
</trkpt>
<trkpt lat="40.0713749" lon="-105.229789">
  <ele>1583.0</ele>
  <time>2026-08-28T17:55:49Z</time>
  <course>0.0</course>
  <speed>0.0</speed>
  <fix>3d</fix>
</trkpt>
<trkpt lat="40.0713749" lon="-105.229789">
  <ele>1583.0</ele>
  <time>2026-08-28T17:55:49Z</time>
  <course>248.4</course>
  <speed>0.01</speed>
  <fix>3d</fix>
</trkpt>
<trkpt lat="40.0713749" lon="-105.229789">
  <ele>1583.0</ele>
  <time>2026-08-28T17:55:49Z</time>
  <course>0.0</course>
  <speed>0.0</speed>
  <fix>3d</fix>
</trkpt>
<trkpt lat="40.0713749" lon="-105.229789">
  <ele>1583.0</ele>
  <time>2026-08-28T17:55:49Z</time>
  <course>248.4</course>
  <speed>0.01</speed>
  <fix>3d</fix>
</trkpt>
<trkpt lat="40.0713749" lon="-105.229789">
  <ele>1583.0</ele>
  <time>2026-08-28T17:55:49Z</time>
  <course>0.0</course>
  <speed>0.0</speed>
  <fix>3d</fix>
</trkpt>
<trkpt lat="40.0713749" lon="-105.229789">
  <ele>1583.0</ele>
  <time>2026-08-28T17:55:49Z</time>
  <course>248.4</course>
  <speed>0.01</speed>
  <fix>3d</fix>
</trkpt>
<trkpt lat="40.0713749" lon="-105.229789">
  <ele>1583.0</ele>
  <time>2026-08-28T17:55:49Z</time>
  <course>0.0</course>
  <speed>0.0</speed>
  <fix>3d</fix>
</trkpt>
<trkpt lat="40.0713749" lon="-105.229789">
  <ele>1583.0</ele>
  <time>2026-08-28T17:55:49Z</time>
  <course>248.39</course>
  <speed>0.01</speed>
  <fix>3d</fix>
</trkpt>
<trkpt lat="40.0713749" lon="-105.229789">
  <ele>1583.0</ele>
  <time>2026-08-28T17:55:49Z</time>
  <course>0.0</course>
  <speed>0.0</speed>
  <fix>3d</fix>
</trkpt>
<trkpt lat="40.0713749" lon="-105.229789">
  <ele>1583.0</ele>
  <time>2026-08-28T17:55:49Z</time>
  <course>248.39</course>
  <speed>0.01</speed>
  <fix>3d</fix>
</trkpt>
<trkpt lat="40.0713749" lon="-105.229789">
  <ele>1583.0</ele>
  <time>2026-08-28T17:55:49Z</time>
  <course>0.0</course>
  <speed>0.0</speed>
  <fix>3d</fix>
</trkpt>
<trkpt lat="40.0713749" lon="-105.229789">
  <ele>1583.0</ele>
  <time>2026-08-28T17:55:49Z</time>
  <course>248.39</course>
  <speed>0.01</speed>
  <fix>3d</fix>
</trkpt>
<trkpt lat="40.0713749" lon="-105.229789">
  <ele>1583.0</ele>
  <time>2026-08-28T17:55:49Z</time>
  <course>0.0</course>
  <speed>0.0</speed>
  <fix>3d</fix>
</trkpt>
<trkpt lat="40.0713749" lon="-105.229789">
  <ele>1583.0</ele>
  <time>2026-08-28T17:55:49Z</time>
  <course>248.38</course>
  <speed>0.01</speed>
  <fix>3d</fix>
</trkpt>
<trkpt lat="40.0713749" lon="-105.229789">
  <ele>1583.0</ele>
  <time>2026-08-28T17:55:49Z</time>
  <course>0.0</course>
  <speed>0.0</speed>
  <fix>3d</fix>
</trkpt>
<trkpt lat="40.0713749" lon="-105.229789">
  <ele>1583.0</ele>
  <time>2026-08-28T17:55:49Z</time>
  <course>248.38</course>
  <speed>0.01</speed>
  <fix>3d</fix>
</trkpt>
<trkpt lat="40.0713749" lon="-105.229789">
  <ele>1583.0</ele>
  <time>2026-08-28T17:55:49Z</time>
  <course>0.0</course>
  <speed>0.0</speed>
  <fix>3d</fix>
</trkpt>
<trkpt lat="40.0713749" lon="-105.229789">
  <ele>1583.0</ele>
  <time>2026-08-28T17:55:49Z</time>
  <course>248.38</course>
  <speed>0.01</speed>
  <fix>3d</fix>
</trkpt>
<trkpt lat="40.0713749" lon="-105.229789">
  <ele>1583.0</ele>
  <time>2026-08-28T17:55:49Z</time>
  <course>0.0</course>
  <speed>0.0</speed>
  <fix>3d</fix>
</trkpt>
<trkpt lat="40.0713749" lon="-105.229789">
  <ele>1583.0</ele>
  <time>2026-08-28T17:55:49Z</time>
  <course>248.37</course>
  <speed>0.01</speed>
  <fix>3d</fix>
</trkpt>
<trkpt lat="40.0713749" lon="-105.229789">
  <ele>1583.0</ele>
  <time>2026-08-28T17:55:49Z</time>
  <course>0.0</course>
  <speed>0.0</speed>
  <fix>3d</fix>
</trkpt>
<trkpt lat="40.0713749" lon="-105.229789">
  <ele>1583.0</ele>
  <time>2026-08-28T17:55:49Z</time>
  <course>248.37</course>
  <speed>0.01</speed>
  <fix>3d</fix>
</trkpt>
<trkpt lat="40.0713749" lon="-105.229789">
  <ele>1583.0</ele>
  <time>2026-08-28T17:55:49Z</time>
  <course>0.0</course>
  <speed>0.0</speed>
  <fix>3d</fix>
</trkpt>
<trkpt lat="40.0713749" lon="-105.229789">
  <ele>1583.0</ele>
  <time>2026-08-28T17:55:49Z</time>
  <course>248.37</course>
  <speed>0.01</speed>
  <fix>3d</fix>
</trkpt>
<trkpt lat="40.0713749" lon="-105.229789">
  <ele>1583.0</ele>
  <time>2026-08-28T17:55:49Z</time>
  <course>0.0</course>
  <speed>0.0</speed>
  <fix>3d</fix>
</trkpt>
<trkpt lat="40.0713749" lon="-105.229789">
  <ele>1583.0</ele>
  <time>2026-08-28T17:55:49Z</time>
  <course>248.36</course>
  <speed>0.01</speed>
  <fix>3d</fix>
</trkpt>
<trkpt lat="40.0713749" lon="-105.229789">
  <ele>1583.0</ele>
  <time>2026-08-28T17:55:49Z</time>
  <course>0.0</course>
  <speed>0.0</speed>
  <fix>3d</fix>
</trkpt>
<trkpt lat="40.0713749" lon="-105.229789">
  <ele>1583.0</ele>
  <time>2026-08-28T17:55:49Z</time>
  <course>248.36</course>
  <speed>0.01</speed>
  <fix>3d</fix>
</trkpt>
<trkpt lat="40.0713749" lon="-105.229789">
  <ele>1583.0</ele>
  <time>2026-08-28T17:55:49Z</time>
  <course>0.0</course>
  <speed>0.0</speed>
  <fix>3d</fix>
</trkpt>
<trkpt lat="40.0713749" lon="-105.229789">
  <ele>1583.0</ele>
  <time>2026-08-28T17:55:49Z</time>
  <course>248.36</course>
  <speed>0.01</speed>
  <fix>3d</fix>
</trkpt>
<trkpt lat="40.0713749" lon="-105.229789">
  <ele>1583.0</ele>
  <time>2026-08-28T17:55:49Z</time>
  <course>0.0</course>
  <speed>0.0</speed>
  <fix>3d</fix>
</trkpt>
<trkpt lat="40.0713749" lon="-105.229789">
  <ele>1583.0</ele>
  <time>2026-08-28T17:55:49Z</time>
  <course>248.35</course>
  <speed>0.01</speed>
  <fix>3d</fix>
</trkpt>
<trkpt lat="40.0713749" lon="-105.229789">
  <ele>1583.0</ele>
  <time>2026-08-28T17:55:49Z</time>
  <course>0.0</course>
  <speed>0.0</speed>
  <fix>3d</fix>
</trkpt>
<trkpt lat="40.0713749" lon="-105.229789">
  <ele>1583.0</ele>
  <time>2026-08-28T17:55:49Z</time>
  <course>248.35</course>
  <speed>0.01</speed>
  <fix>3d</fix>
</trkpt>
<trkpt lat="40.0713749" lon="-105.229789">
  <ele>1583.0</ele>
  <time>2026-08-28T17:55:49Z</time>
  <course>0.0</course>
  <speed>0.0</speed>
  <fix>3d</fix>
</trkpt>
<trkpt lat="40.0713749" lon="-105.229789">
  <ele>1583.0</ele>
  <time>2026-08-28T17:55:49Z</time>
  <course>248.35</course>
  <speed>0.01</speed>
  <fix>3d</fix>
</trkpt>
<trkpt lat="40.0713749" lon="-105.229789">
  <ele>1583.0</ele>
  <time>2026-08-28T17:55:49Z</time>
  <course>0.0</course>
  <speed>0.0</speed>
  <fix>3d</fix>
</trkpt>
<trkpt lat="40.0713749" lon="-105.229789">
  <ele>1583.0</ele>
  <time>2026-08-28T17:55:49Z</time>
  <course>248.34</course>
  <speed>0.01</speed>
  <fix>3d</fix>
</trkpt>
<trkpt lat="40.0713749" lon="-105.229789">
  <ele>1583.0</ele>
  <time>2026-08-28T17:55:49Z</time>
  <course>0.0</course>
  <speed>0.0</speed>
  <fix>3d</fix>
</trkpt>
<trkpt lat="40.0713749" lon="-105.229789">
  <ele>1583.0</ele>
  <time>2026-08-28T17:55:49Z</time>
  <course>248.34</course>
  <speed>0.01</speed>
  <fix>3d</fix>
</trkpt>
<trkpt lat="40.0713749" lon="-105.229789">
  <ele>1583.0</ele>
  <time>2026-08-28T17:55:49Z</time>
  <course>0.0</course>
  <speed>0.0</speed>
  <fix>3d</fix>
</trkpt>
<trkpt lat="40.0713749" lon="-105.229789">
  <ele>1583.0</ele>
  <time>2026-08-28T17:55:49Z</time>
  <course>248.33</course>
  <speed>0.01</speed>
  <fix>3d</fix>
</trkpt>
<trkpt lat="40.0713749" lon="-105.229789">
  <ele>1583.0</ele>
  <time>2026-08-28T17:55:49Z</time>
  <course>0.0</course>
  <speed>0.0</speed>
  <fix>3d</fix>
</trkpt>
<trkpt lat="40.0713749" lon="-105.229789">
  <ele>1583.0</ele>
  <time>2026-08-28T17:55:49Z</time>
  <course>248.33</course>
  <speed>0.01</speed>
  <fix>3d</fix>
</trkpt>
<trkpt lat="40.0713749" lon="-105.229789">
  <ele>1583.0</ele>
  <time>2026-08-28T17:55:49Z</time>
  <course>0.0</course>
  <speed>0.0</speed>
  <fix>3d</fix>
</trkpt>
<trkpt lat="40.0713749" lon="-105.229789">
  <ele>1583.0</ele>
  <time>2026-08-28T17:55:49Z</time>
  <course>248.32</course>
  <speed>0.01</speed>
  <fix>3d</fix>
</trkpt>
<trkpt lat="40.0713749" lon="-105.229789">
  <ele>1583.0</ele>
  <time>2026-08-28T17:55:49Z</time>
  <course>0.0</course>
  <speed>0.0</speed>
  <fix>3d</fix>
</trkpt>
<trkpt lat="40.0713749" lon="-105.229789">
  <ele>1583.0</ele>
  <time>2026-08-28T17:55:49Z</time>
  <course>248.32</course>
  <speed>0.01</speed>
  <fix>3d</fix>
</trkpt>
<trkpt lat="40.0713749" lon="-105.229789">
  <ele>1583.0</ele>
  <time>2026-08-28T17:55:49Z</time>
  <course>0.0</course>
  <speed>0.0</speed>
  <fix>3d</fix>
</trkpt>
<trkpt lat="40.0713749" lon="-105.229789">
  <ele>1583.0</ele>
  <time>2026-08-28T17:55:49Z</time>
  <course>248.32</course>
  <speed>0.01</speed>
  <fix>3d</fix>
</trkpt>
<trkpt lat="40.0713749" lon="-105.229789">
  <ele>1583.0</ele>
  <time>2026-08-28T17:55:49Z</time>
  <course>0.0</course>
  <speed>0.0</speed>
  <fix>3d</fix>
</trkpt>
<trkpt lat="40.0713749" lon="-105.229789">
  <ele>1583.0</ele>
  <time>2026-08-28T17:55:49Z</time>
  <course>248.31</course>
  <speed>0.01</speed>
  <fix>3d</fix>
</trkpt>
<trkpt lat="40.0713749" lon="-105.229789">
  <ele>1583.0</ele>
  <time>2026-08-28T17:55:49Z</time>
  <course>0.0</course>
  <speed>0.0</speed>
  <fix>3d</fix>
</trkpt>
<trkpt lat="40.0713749" lon="-105.229789">
  <ele>1583.0</ele>
  <time>2026-08-28T17:55:49Z</time>
  <course>248.31</course>
  <speed>0.01</speed>
  <fix>3d</fix>
</trkpt>
<trkpt lat="40.0713749" lon="-105.229789">
  <ele>1583.0</ele>
  <time>2026-08-28T17:55:49Z</time>
  <course>0.0</course>
  <speed>0.0</speed>
  <fix>3d</fix>
</trkpt>
<trkpt lat="40.0713749" lon="-105.229789">
  <ele>1583.0</ele>
  <time>2026-08-28T17:55:49Z</time>
  <course>248.3</course>
  <speed>0.01</speed>
  <fix>3d</fix>
</trkpt>
<trkpt lat="40.0713749" lon="-105.229789">
  <ele>1583.0</ele>
  <time>2026-08-28T17:55:49Z</time>
  <course>0.0</course>
  <speed>0.0</speed>
  <fix>3d</fix>
</trkpt>
<trkpt lat="40.0713749" lon="-105.229789">
  <ele>1583.0</ele>
  <time>2026-08-28T17:55:49Z</time>
  <course>248.3</course>
  <speed>0.01</speed>
  <fix>3d</fix>
</trkpt>
<trkpt lat="40.0713749" lon="-105.229789">
  <ele>1583.0</ele>
  <time>2026-08-28T17:55:49Z</time>
  <course>0.0</course>
  <speed>0.0</speed>
  <fix>3d</fix>
</trkpt>
<trkpt lat="40.0713749" lon="-105.229789">
  <ele>1583.0</ele>
  <time>2026-08-28T17:55:49Z</time>
  <course>248.29</course>
  <speed>0.01</speed>
  <fix>3d</fix>
</trkpt>
<trkpt lat="40.0713749" lon="-105.229789">
  <ele>1583.0</ele>
  <time>2026-08-28T17:55:49Z</time>
  <course>0.0</course>
  <speed>0.0</speed>
  <fix>3d</fix>
</trkpt>
<trkpt lat="40.0713749" lon="-105.229789">
  <ele>1583.0</ele>
  <time>2026-08-28T17:55:49Z</time>
  <course>248.29</course>
  <speed>0.01</speed>
  <fix>3d</fix>
</trkpt>
<trkpt lat="40.0713749" lon="-105.229789">
  <ele>1583.0</ele>
  <time>2026-08-28T17:55:49Z</time>
  <course>0.0</course>
  <speed>0.0</speed>
  <fix>3d</fix>
</trkpt>
<trkpt lat="40.0713749" lon="-105.229789">
  <ele>1583.0</ele>
  <time>2026-08-28T17:55:49Z</time>
  <course>248.28</course>
  <speed>0.01</speed>
  <fix>3d</fix>
</trkpt>
<trkpt lat="40.0713749" lon="-105.229789">
  <ele>1583.0</ele>
  <time>2026-08-28T17:55:49Z</time>
  <course>0.0</course>
  <speed>0.0</speed>
  <fix>3d</fix>
</trkpt>
<trkpt lat="40.0713749" lon="-105.229789">
  <ele>1583.0</ele>
  <time>2026-08-28T17:55:49Z</time>
  <course>248.28</course>
  <speed>0.01</speed>
  <fix>3d</fix>
</trkpt>
<trkpt lat="40.0713749" lon="-105.229789">
  <ele>1583.0</ele>
  <time>2026-08-28T17:55:49Z</time>
  <course>0.0</course>
  <speed>0.0</speed>
  <fix>3d</fix>
</trkpt>
<trkpt lat="40.0713749" lon="-105.229789">
  <ele>1583.0</ele>
  <time>2026-08-28T17:55:49Z</time>
  <course>248.27</course>
  <speed>0.01</speed>
  <fix>3d</fix>
</trkpt>
<trkpt lat="40.0713749" lon="-105.229789">
  <ele>1583.0</ele>
  <time>2026-08-28T17:55:49Z</time>
  <course>0.0</course>
  <speed>0.0</speed>
  <fix>3d</fix>
</trkpt>
<trkpt lat="40.0713749" lon="-105.229789">
  <ele>1583.0</ele>
  <time>2026-08-28T17:55:49Z</time>
  <course>248.27</course>
  <speed>0.01</speed>
  <fix>3d</fix>
</trkpt>
<trkpt lat="40.0713749" lon="-105.229789">
  <ele>1583.0</ele>
  <time>2026-08-28T17:55:49Z</time>
  <course>0.0</course>
  <speed>0.0</speed>
  <fix>3d</fix>
</trkpt>
<trkpt lat="40.0713749" lon="-105.229789">
  <ele>1583.0</ele>
  <time>2026-08-28T17:55:49Z</time>
  <course>248.26</course>
  <speed>0.01</speed>
  <fix>3d</fix>
</trkpt>
<trkpt lat="40.0713749" lon="-105.229789">
  <ele>1583.0</ele>
  <time>2026-08-28T17:55:49Z</time>
  <course>0.0</course>
  <speed>0.0</speed>
  <fix>3d</fix>
</trkpt>
<trkpt lat="40.0713749" lon="-105.229789">
  <ele>1583.0</ele>
  <time>2026-08-28T17:55:49Z</time>
  <course>248.26</course>
  <speed>0.01</speed>
  <fix>3d</fix>
</trkpt>
<trkpt lat="40.0713749" lon="-105.229789">
  <ele>1583.0</ele>
  <time>2026-08-28T17:55:49Z</time>
  <course>0.0</course>
  <speed>0.0</speed>
  <fix>3d</fix>
</trkpt>
<trkpt lat="40.0713749" lon="-105.229789">
  <ele>1583.0</ele>
  <time>2026-08-28T17:55:49Z</time>
  <course>248.26</course>
  <speed>0.01</speed>
  <fix>3d</fix>
</trkpt>
<trkpt lat="40.0713749" lon="-105.229789">
  <ele>1583.0</ele>
  <time>2026-08-28T17:55:49Z</time>
  <course>0.0</course>
  <speed>0.0</speed>
  <fix>3d</fix>
</trkpt>
<trkpt lat="40.0713749" lon="-105.229789">
  <ele>1583.0</ele>
  <time>2026-08-28T17:55:49Z</time>
  <course>248.25</course>
  <speed>0.01</speed>
  <fix>3d</fix>
</trkpt>
<trkpt lat="40.0713749" lon="-105.229789">
  <ele>1583.0</ele>
  <time>2026-08-28T17:55:49Z</time>
  <course>0.0</course>
  <speed>0.0</speed>
  <fix>3d</fix>
</trkpt>
<trkpt lat="40.0713749" lon="-105.229789">
  <ele>1583.0</ele>
  <time>2026-08-28T17:55:49Z</time>
  <course>248.25</course>
  <speed>0.01</speed>
  <fix>3d</fix>
</trkpt>
<trkpt lat="40.0713749" lon="-105.229789">
  <ele>1583.0</ele>
  <time>2026-08-28T17:55:49Z</time>
  <course>0.0</course>
  <speed>0.0</speed>
  <fix>3d</fix>
</trkpt>
<trkpt lat="40.0713749" lon="-105.229789">
  <ele>1583.0</ele>
  <time>2026-08-28T17:55:49Z</time>
  <course>248.24</course>
  <speed>0.01</speed>
  <fix>3d</fix>
</trkpt>
<trkpt lat="40.0713749" lon="-105.229789">
  <ele>1583.0</ele>
  <time>2026-08-28T17:55:49Z</time>
  <course>0.0</course>
  <speed>0.0</speed>
  <fix>3d</fix>
</trkpt>
<trkpt lat="40.0713749" lon="-105.229789">
  <ele>1583.0</ele>
  <time>2026-08-28T17:55:49Z</time>
  <course>248.24</course>
  <speed>0.01</speed>
  <fix>3d</fix>
</trkpt>
<trkpt lat="40.0713749" lon="-105.229789">
  <ele>1583.0</ele>
  <time>2026-08-28T17:55:49Z</time>
  <course>0.0</course>
  <speed>0.0</speed>
  <fix>3d</fix>
</trkpt>
<trkpt lat="40.0713749" lon="-105.229789">
  <ele>1583.0</ele>
  <time>2026-08-28T17:55:49Z</time>
  <course>248.23</course>
  <speed>0.01</speed>
  <fix>3d</fix>
</trkpt>
<trkpt lat="40.0713749" lon="-105.229789">
  <ele>1583.0</ele>
  <time>2026-08-28T17:55:49Z</time>
  <course>0.0</course>
  <speed>0.0</speed>
  <fix>3d</fix>
</trkpt>
<trkpt lat="40.0713749" lon="-105.229789">
  <ele>1583.0</ele>
  <time>2026-08-28T17:55:49Z</time>
  <course>248.23</course>
  <speed>0.01</speed>
  <fix>3d</fix>
</trkpt>
<trkpt lat="40.0713749" lon="-105.229789">
  <ele>1583.0</ele>
  <time>2026-08-28T17:55:49Z</time>
  <course>0.0</course>
  <speed>0.0</speed>
  <fix>3d</fix>
</trkpt>
<trkpt lat="40.0713749" lon="-105.229789">
  <ele>1583.0</ele>
  <time>2026-08-28T17:55:50Z</time>
  <course>248.22</course>
  <speed>0.01</speed>
  <fix>3d</fix>
</trkpt>
<trkpt lat="40.0713749" lon="-105.229789">
  <ele>1583.0</ele>
  <time>2026-08-28T17:55:50Z</time>
  <course>0.0</course>
  <speed>0.0</speed>
  <fix>3d</fix>
</trkpt>
<trkpt lat="40.0713749" lon="-105.229789">
  <ele>1583.0</ele>
  <time>2026-08-28T17:55:50Z</time>
  <course>248.22</course>
  <speed>0.01</speed>
  <fix>3d</fix>
</trkpt>
<trkpt lat="40.0713749" lon="-105.229789">
  <ele>1583.0</ele>
  <time>2026-08-28T17:55:50Z</time>
  <course>0.0</course>
  <speed>0.0</speed>
  <fix>3d</fix>
</trkpt>
<trkpt lat="40.0713749" lon="-105.229789">
  <ele>1583.0</ele>
  <time>2026-08-28T17:55:50Z</time>
  <course>248.21</course>
  <speed>0.01</speed>
  <fix>3d</fix>
</trkpt>
<trkpt lat="40.0713749" lon="-105.229789">
  <ele>1583.0</ele>
  <time>2026-08-28T17:55:50Z</time>
  <course>0.0</course>
  <speed>0.0</speed>
  <fix>3d</fix>
</trkpt>
<trkpt lat="40.0713749" lon="-105.229789">
  <ele>1583.0</ele>
  <time>2026-08-28T17:55:50Z</time>
  <course>248.21</course>
  <speed>0.01</speed>
  <fix>3d</fix>
</trkpt>
<trkpt lat="40.0713749" lon="-105.229789">
  <ele>1583.0</ele>
  <time>2026-08-28T17:55:50Z</time>
  <course>0.0</course>
  <speed>0.0</speed>
  <fix>3d</fix>
</trkpt>
<trkpt lat="40.0713749" lon="-105.229789">
  <ele>1583.0</ele>
  <time>2026-08-28T17:55:50Z</time>
  <course>248.2</course>
  <speed>0.01</speed>
  <fix>3d</fix>
</trkpt>
<trkpt lat="40.0713749" lon="-105.229789">
  <ele>1583.0</ele>
  <time>2026-08-28T17:55:50Z</time>
  <course>0.0</course>
  <speed>0.0</speed>
  <fix>3d</fix>
</trkpt>
<trkpt lat="40.0713749" lon="-105.229789">
  <ele>1583.0</ele>
  <time>2026-08-28T17:55:50Z</time>
  <course>248.2</course>
  <speed>0.01</speed>
  <fix>3d</fix>
</trkpt>
<trkpt lat="40.0713749" lon="-105.229789">
  <ele>1583.0</ele>
  <time>2026-08-28T17:55:50Z</time>
  <course>0.0</course>
  <speed>0.0</speed>
  <fix>3d</fix>
</trkpt>
<trkpt lat="40.0713749" lon="-105.229789">
  <ele>1583.0</ele>
  <time>2026-08-28T17:55:50Z</time>
  <course>248.19</course>
  <speed>0.01</speed>
  <fix>3d</fix>
</trkpt>
<trkpt lat="40.0713749" lon="-105.229789">
  <ele>1583.0</ele>
  <time>2026-08-28T17:55:50Z</time>
  <course>0.0</course>
  <speed>0.0</speed>
  <fix>3d</fix>
</trkpt>
<trkpt lat="40.0713749" lon="-105.229789">
  <ele>1583.0</ele>
  <time>2026-08-28T17:55:50Z</time>
  <course>248.19</course>
  <speed>0.01</speed>
  <fix>3d</fix>
</trkpt>
<trkpt lat="40.0713749" lon="-105.229789">
  <ele>1583.0</ele>
  <time>2026-08-28T17:55:50Z</time>
  <course>0.0</course>
  <speed>0.0</speed>
  <fix>3d</fix>
</trkpt>
<trkpt lat="40.0713749" lon="-105.229789">
  <ele>1583.0</ele>
  <time>2026-08-28T17:55:50Z</time>
  <course>248.18</course>
  <speed>0.01</speed>
  <fix>3d</fix>
</trkpt>
<trkpt lat="40.0713749" lon="-105.229789">
  <ele>1583.0</ele>
  <time>2026-08-28T17:55:50Z</time>
  <course>0.0</course>
  <speed>0.0</speed>
  <fix>3d</fix>
</trkpt>
<trkpt lat="40.0713749" lon="-105.229789">
  <ele>1583.0</ele>
  <time>2026-08-28T17:55:50Z</time>
  <course>248.18</course>
  <speed>0.01</speed>
  <fix>3d</fix>
</trkpt>
<trkpt lat="40.0713749" lon="-105.229789">
  <ele>1583.0</ele>
  <time>2026-08-28T17:55:50Z</time>
  <course>0.0</course>
  <speed>0.0</speed>
  <fix>3d</fix>
</trkpt>
<trkpt lat="40.0713749" lon="-105.229789">
  <ele>1583.0</ele>
  <time>2026-08-28T17:55:50Z</time>
  <course>248.17</course>
  <speed>0.022360679774997897</speed>
  <fix>3d</fix>
</trkpt>
<trkpt lat="40.0713749" lon="-105.229789">
  <ele>1583.0</ele>
  <time>2026-08-28T17:55:50Z</time>
  <course>0.0</course>
  <speed>0.0</speed>
  <fix>3d</fix>
</trkpt>
<trkpt lat="40.0713749" lon="-105.229789">
  <ele>1583.0</ele>
  <time>2026-08-28T17:55:50Z</time>
  <course>248.17</course>
  <speed>0.022360679774997897</speed>
  <fix>3d</fix>
</trkpt>
<trkpt lat="40.0713749" lon="-105.229789">
  <ele>1583.0</ele>
  <time>2026-08-28T17:55:50Z</time>
  <course>0.0</course>
  <speed>0.0</speed>
  <fix>3d</fix>
</trkpt>
<trkpt lat="40.0713749" lon="-105.229789">
  <ele>1583.0</ele>
  <time>2026-08-28T17:55:50Z</time>
  <course>248.16</course>
  <speed>0.022360679774997897</speed>
  <fix>3d</fix>
</trkpt>
<trkpt lat="40.0713749" lon="-105.229789">
  <ele>1583.0</ele>
  <time>2026-08-28T17:55:50Z</time>
  <course>0.0</course>
  <speed>0.0</speed>
  <fix>3d</fix>
</trkpt>
<trkpt lat="40.0713749" lon="-105.229789">
  <ele>1583.0</ele>
  <time>2026-08-28T17:55:50Z</time>
  <course>248.16</course>
  <speed>0.022360679774997897</speed>
  <fix>3d</fix>
</trkpt>
<trkpt lat="40.0713749" lon="-105.229789">
  <ele>1583.0</ele>
  <time>2026-08-28T17:55:50Z</time>
  <course>0.0</course>
  <speed>0.0</speed>
  <fix>3d</fix>
</trkpt>
<trkpt lat="40.0713749" lon="-105.229789">
  <ele>1583.0</ele>
  <time>2026-08-28T17:55:50Z</time>
  <course>248.15</course>
  <speed>0.022360679774997897</speed>
  <fix>3d</fix>
</trkpt>
<trkpt lat="40.0713749" lon="-105.229789">
  <ele>1583.0</ele>
  <time>2026-08-28T17:55:50Z</time>
  <course>0.0</course>
  <speed>0.0</speed>
  <fix>3d</fix>
</trkpt>
<trkpt lat="40.0713749" lon="-105.229789">
  <ele>1583.0</ele>
  <time>2026-08-28T17:55:50Z</time>
  <course>248.15</course>
  <speed>0.022360679774997897</speed>
  <fix>3d</fix>
</trkpt>
<trkpt lat="40.0713749" lon="-105.229789">
  <ele>1583.0</ele>
  <time>2026-08-28T17:55:50Z</time>
  <course>0.0</course>
  <speed>0.0</speed>
  <fix>3d</fix>
</trkpt>
<trkpt lat="40.0713749" lon="-105.229789">
  <ele>1583.0</ele>
  <time>2026-08-28T17:55:50Z</time>
  <course>248.14</course>
  <speed>0.022360679774997897</speed>
  <fix>3d</fix>
</trkpt>
<trkpt lat="40.0713749" lon="-105.229789">
  <ele>1583.0</ele>
  <time>2026-08-28T17:55:50Z</time>
  <course>0.0</course>
  <speed>0.0</speed>
  <fix>3d</fix>
</trkpt>
<trkpt lat="40.0713749" lon="-105.229789">
  <ele>1583.0</ele>
  <time>2026-08-28T17:55:50Z</time>
  <course>248.14</course>
  <speed>0.022360679774997897</speed>
  <fix>3d</fix>
</trkpt>
<trkpt lat="40.0713749" lon="-105.229789">
  <ele>1583.0</ele>
  <time>2026-08-28T17:55:50Z</time>
  <course>0.0</course>
  <speed>0.0</speed>
  <fix>3d</fix>
</trkpt>
<trkpt lat="40.0713749" lon="-105.229789">
  <ele>1583.0</ele>
  <time>2026-08-28T17:55:50Z</time>
  <course>248.13</course>
  <speed>0.022360679774997897</speed>
  <fix>3d</fix>
</trkpt>
<trkpt lat="40.0713749" lon="-105.229789">
  <ele>1583.0</ele>
  <time>2026-08-28T17:55:50Z</time>
  <course>0.0</course>
  <speed>0.0</speed>
  <fix>3d</fix>
</trkpt>
<trkpt lat="40.0713749" lon="-105.229789">
  <ele>1583.0</ele>
  <time>2026-08-28T17:55:50Z</time>
  <course>248.13</course>
  <speed>0.022360679774997897</speed>
  <fix>3d</fix>
</trkpt>
<trkpt lat="40.0713749" lon="-105.229789">
  <ele>1583.0</ele>
  <time>2026-08-28T17:55:50Z</time>
  <course>0.0</course>
  <speed>0.0</speed>
  <fix>3d</fix>
</trkpt>
<trkpt lat="40.0713749" lon="-105.229789">
  <ele>1583.0</ele>
  <time>2026-08-28T17:55:50Z</time>
  <course>248.12</course>
  <speed>0.022360679774997897</speed>
  <fix>3d</fix>
</trkpt>
<trkpt lat="40.0713749" lon="-105.229789">
  <ele>1583.0</ele>
  <time>2026-08-28T17:55:50Z</time>
  <course>0.0</course>
  <speed>0.0</speed>
  <fix>3d</fix>
</trkpt>
<trkpt lat="40.0713749" lon="-105.229789">
  <ele>1583.0</ele>
  <time>2026-08-28T17:55:50Z</time>
  <course>248.12</course>
  <speed>0.022360679774997897</speed>
  <fix>3d</fix>
</trkpt>
<trkpt lat="40.0713749" lon="-105.229789">
  <ele>1583.0</ele>
  <time>2026-08-28T17:55:50Z</time>
  <course>0.0</course>
  <speed>0.0</speed>
  <fix>3d</fix>
</trkpt>
<trkpt lat="40.0713749" lon="-105.229789">
  <ele>1583.0</ele>
  <time>2026-08-28T17:55:50Z</time>
  <course>248.11</course>
  <speed>0.022360679774997897</speed>
  <fix>3d</fix>
</trkpt>
<trkpt lat="40.0713749" lon="-105.229789">
  <ele>1583.0</ele>
  <time>2026-08-28T17:55:50Z</time>
  <course>0.0</course>
  <speed>0.0</speed>
  <fix>3d</fix>
</trkpt>
<trkpt lat="40.0713749" lon="-105.229789">
  <ele>1583.0</ele>
  <time>2026-08-28T17:55:50Z</time>
  <course>248.11</course>
  <speed>0.022360679774997897</speed>
  <fix>3d</fix>
</trkpt>
<trkpt lat="40.0713749" lon="-105.229789">
  <ele>1583.0</ele>
  <time>2026-08-28T17:55:50Z</time>
  <course>0.0</course>
  <speed>0.0</speed>
  <fix>3d</fix>
</trkpt>
<trkpt lat="40.0713749" lon="-105.229789">
  <ele>1583.0</ele>
  <time>2026-08-28T17:55:50Z</time>
  <course>248.1</course>
  <speed>0.022360679774997897</speed>
  <fix>3d</fix>
</trkpt>
<trkpt lat="40.0713749" lon="-105.229789">
  <ele>1583.0</ele>
  <time>2026-08-28T17:55:50Z</time>
  <course>0.0</course>
  <speed>0.0</speed>
  <fix>3d</fix>
</trkpt>
<trkpt lat="40.0713749" lon="-105.229789">
  <ele>1583.0</ele>
  <time>2026-08-28T17:55:50Z</time>
  <course>248.1</course>
  <speed>0.022360679774997897</speed>
  <fix>3d</fix>
</trkpt>
<trkpt lat="40.0713749" lon="-105.229789">
  <ele>1583.0</ele>
  <time>2026-08-28T17:55:50Z</time>
  <course>0.0</course>
  <speed>0.0</speed>
  <fix>3d</fix>
</trkpt>
<trkpt lat="40.0713749" lon="-105.229789">
  <ele>1583.0</ele>
  <time>2026-08-28T17:55:50Z</time>
  <course>248.09</course>
  <speed>0.022360679774997897</speed>
  <fix>3d</fix>
</trkpt>
<trkpt lat="40.0713749" lon="-105.229789">
  <ele>1583.0</ele>
  <time>2026-08-28T17:55:50Z</time>
  <course>0.0</course>
  <speed>0.0</speed>
  <fix>3d</fix>
</trkpt>
<trkpt lat="40.0713749" lon="-105.229789">
  <ele>1583.0</ele>
  <time>2026-08-28T17:55:50Z</time>
  <course>248.09</course>
  <speed>0.022360679774997897</speed>
  <fix>3d</fix>
</trkpt>
<trkpt lat="40.0713749" lon="-105.229789">
  <ele>1583.0</ele>
  <time>2026-08-28T17:55:50Z</time>
  <course>0.0</course>
  <speed>0.0</speed>
  <fix>3d</fix>
</trkpt>
<trkpt lat="40.0713749" lon="-105.229789">
  <ele>1583.0</ele>
  <time>2026-08-28T17:55:50Z</time>
  <course>248.08</course>
  <speed>0.022360679774997897</speed>
  <fix>3d</fix>
</trkpt>
<trkpt lat="40.0713749" lon="-105.229789">
  <ele>1583.0</ele>
  <time>2026-08-28T17:55:50Z</time>
  <course>0.0</course>
  <speed>0.0</speed>
  <fix>3d</fix>
</trkpt>
<trkpt lat="40.0713749" lon="-105.229789">
  <ele>1583.0</ele>
  <time>2026-08-28T17:55:50Z</time>
  <course>248.08</course>
  <speed>0.022360679774997897</speed>
  <fix>3d</fix>
</trkpt>
<trkpt lat="40.0713749" lon="-105.229789">
  <ele>1583.0</ele>
  <time>2026-08-28T17:55:50Z</time>
  <course>0.0</course>
  <speed>0.0</speed>
  <fix>3d</fix>
</trkpt>
<trkpt lat="40.0713749" lon="-105.229789">
  <ele>1583.0</ele>
  <time>2026-08-28T17:55:50Z</time>
  <course>248.07</course>
  <speed>0.022360679774997897</speed>
  <fix>3d</fix>
</trkpt>
<trkpt lat="40.0713749" lon="-105.229789">
  <ele>1583.0</ele>
  <time>2026-08-28T17:55:50Z</time>
  <course>0.0</course>
  <speed>0.0</speed>
  <fix>3d</fix>
</trkpt>
<trkpt lat="40.0713749" lon="-105.229789">
  <ele>1583.0</ele>
  <time>2026-08-28T17:55:50Z</time>
  <course>248.07</course>
  <speed>0.022360679774997897</speed>
  <fix>3d</fix>
</trkpt>
<trkpt lat="40.0713749" lon="-105.229789">
  <ele>1583.0</ele>
  <time>2026-08-28T17:55:50Z</time>
  <course>0.0</course>
  <speed>0.0</speed>
  <fix>3d</fix>
</trkpt>
<trkpt lat="40.0713749" lon="-105.229789">
  <ele>1583.0</ele>
  <time>2026-08-28T17:55:50Z</time>
  <course>248.06</course>
  <speed>0.022360679774997897</speed>
  <fix>3d</fix>
</trkpt>
<trkpt lat="40.0713749" lon="-105.229789">
  <ele>1583.0</ele>
  <time>2026-08-28T17:55:50Z</time>
  <course>0.0</course>
  <speed>0.0</speed>
  <fix>3d</fix>
</trkpt>
<trkpt lat="40.0713749" lon="-105.229789">
  <ele>1583.0</ele>
  <time>2026-08-28T17:55:50Z</time>
  <course>248.06</course>
  <speed>0.022360679774997897</speed>
  <fix>3d</fix>
</trkpt>
<trkpt lat="40.0713749" lon="-105.229789">
  <ele>1583.0</ele>
  <time>2026-08-28T17:55:50Z</time>
  <course>0.0</course>
  <speed>0.0</speed>
  <fix>3d</fix>
</trkpt>
<trkpt lat="40.0713749" lon="-105.229789">
  <ele>1583.0</ele>
  <time>2026-08-28T17:55:50Z</time>
  <course>248.05</course>
  <speed>0.022360679774997897</speed>
  <fix>3d</fix>
</trkpt>
<trkpt lat="40.0713749" lon="-105.229789">
  <ele>1583.0</ele>
  <time>2026-08-28T17:55:50Z</time>
  <course>0.0</course>
  <speed>0.0</speed>
  <fix>3d</fix>
</trkpt>
<trkpt lat="40.0713749" lon="-105.229789">
  <ele>1583.0</ele>
  <time>2026-08-28T17:55:50Z</time>
  <course>248.05</course>
  <speed>0.022360679774997897</speed>
  <fix>3d</fix>
</trkpt>
<trkpt lat="40.0713749" lon="-105.229789">
  <ele>1583.0</ele>
  <time>2026-08-28T17:55:50Z</time>
  <course>0.0</course>
  <speed>0.0</speed>
  <fix>3d</fix>
</trkpt>
<trkpt lat="40.0713749" lon="-105.229789">
  <ele>1583.0</ele>
  <time>2026-08-28T17:55:50Z</time>
  <course>248.05</course>
  <speed>0.022360679774997897</speed>
  <fix>3d</fix>
</trkpt>
<trkpt lat="40.0713749" lon="-105.229789">
  <ele>1583.0</ele>
  <time>2026-08-28T17:55:50Z</time>
  <course>0.0</course>
  <speed>0.0</speed>
  <fix>3d</fix>
</trkpt>
<trkpt lat="40.0713749" lon="-105.229789">
  <ele>1583.0</ele>
  <time>2026-08-28T17:55:50Z</time>
  <course>248.04</course>
  <speed>0.022360679774997897</speed>
  <fix>3d</fix>
</trkpt>
<trkpt lat="40.0713749" lon="-105.229789">
  <ele>1583.0</ele>
  <time>2026-08-28T17:55:50Z</time>
  <course>0.0</course>
  <speed>0.0</speed>
  <fix>3d</fix>
</trkpt>
<trkpt lat="40.0713749" lon="-105.229789">
  <ele>1583.0</ele>
  <time>2026-08-28T17:55:50Z</time>
  <course>248.04</course>
  <speed>0.022360679774997897</speed>
  <fix>3d</fix>
</trkpt>
<trkpt lat="40.0713749" lon="-105.229789">
  <ele>1583.0</ele>
  <time>2026-08-28T17:55:50Z</time>
  <course>0.0</course>
  <speed>0.0</speed>
  <fix>3d</fix>
</trkpt>
<trkpt lat="40.0713749" lon="-105.229789">
  <ele>1583.0</ele>
  <time>2026-08-28T17:55:50Z</time>
  <course>248.03</course>
  <speed>0.022360679774997897</speed>
  <fix>3d</fix>
</trkpt>
<trkpt lat="40.0713749" lon="-105.229789">
  <ele>1583.0</ele>
  <time>2026-08-28T17:55:50Z</time>
  <course>0.0</course>
  <speed>0.0</speed>
  <fix>3d</fix>
</trkpt>
<trkpt lat="40.0713749" lon="-105.229789">
  <ele>1583.0</ele>
  <time>2026-08-28T17:55:50Z</time>
  <course>248.03</course>
  <speed>0.022360679774997897</speed>
  <fix>3d</fix>
</trkpt>
<trkpt lat="40.0713749" lon="-105.229789">
  <ele>1583.0</ele>
  <time>2026-08-28T17:55:50Z</time>
  <course>0.0</course>
  <speed>0.0</speed>
  <fix>3d</fix>
</trkpt>
<trkpt lat="40.0713749" lon="-105.229789">
  <ele>1583.0</ele>
  <time>2026-08-28T17:55:50Z</time>
  <course>248.02</course>
  <speed>0.022360679774997897</speed>
  <fix>3d</fix>
</trkpt>
<trkpt lat="40.0713749" lon="-105.229789">
  <ele>1583.0</ele>
  <time>2026-08-28T17:55:50Z</time>
  <course>0.0</course>
  <speed>0.0</speed>
  <fix>3d</fix>
</trkpt>
<trkpt lat="40.0713749" lon="-105.229789">
  <ele>1583.0</ele>
  <time>2026-08-28T17:55:50Z</time>
  <course>248.02</course>
  <speed>0.022360679774997897</speed>
  <fix>3d</fix>
</trkpt>
<trkpt lat="40.0713749" lon="-105.229789">
  <ele>1583.0</ele>
  <time>2026-08-28T17:55:50Z</time>
  <course>0.0</course>
  <speed>0.0</speed>
  <fix>3d</fix>
</trkpt>
<trkpt lat="40.0713749" lon="-105.229789">
  <ele>1583.0</ele>
  <time>2026-08-28T17:55:50Z</time>
  <course>248.01</course>
  <speed>0.022360679774997897</speed>
  <fix>3d</fix>
</trkpt>
<trkpt lat="40.0713749" lon="-105.229789">
  <ele>1583.0</ele>
  <time>2026-08-28T17:55:50Z</time>
  <course>0.0</course>
  <speed>0.0</speed>
  <fix>3d</fix>
</trkpt>
<trkpt lat="40.0713749" lon="-105.229789">
  <ele>1583.0</ele>
  <time>2026-08-28T17:55:50Z</time>
  <course>248.01</course>
  <speed>0.022360679774997897</speed>
  <fix>3d</fix>
</trkpt>
<trkpt lat="40.0713749" lon="-105.229789">
  <ele>1583.0</ele>
  <time>2026-08-28T17:55:50Z</time>
  <course>0.0</course>
  <speed>0.0</speed>
  <fix>3d</fix>
</trkpt>
<trkpt lat="40.0713749" lon="-105.229789">
  <ele>1583.0</ele>
  <time>2026-08-28T17:55:50Z</time>
  <course>248.0</course>
  <speed>0.022360679774997897</speed>
  <fix>3d</fix>
</trkpt>
<trkpt lat="40.0713749" lon="-105.229789">
  <ele>1583.0</ele>
  <time>2026-08-28T17:55:50Z</time>
  <course>0.0</course>
  <speed>0.0</speed>
  <fix>3d</fix>
</trkpt>
<trkpt lat="40.0713749" lon="-105.229789">
  <ele>1583.0</ele>
  <time>2026-08-28T17:55:50Z</time>
  <course>248.0</course>
  <speed>0.022360679774997897</speed>
  <fix>3d</fix>
</trkpt>
<trkpt lat="40.0713749" lon="-105.229789">
  <ele>1583.0</ele>
  <time>2026-08-28T17:55:50Z</time>
  <course>0.0</course>
  <speed>0.0</speed>
  <fix>3d</fix>
</trkpt>
<trkpt lat="40.0713749" lon="-105.229789">
  <ele>1583.0</ele>
  <time>2026-08-28T17:55:50Z</time>
  <course>247.99</course>
  <speed>0.022360679774997897</speed>
  <fix>3d</fix>
</trkpt>
<trkpt lat="40.0713749" lon="-105.229789">
  <ele>1583.0</ele>
  <time>2026-08-28T17:55:50Z</time>
  <course>0.0</course>
  <speed>0.0</speed>
  <fix>3d</fix>
</trkpt>
<trkpt lat="40.0713749" lon="-105.229789">
  <ele>1583.0</ele>
  <time>2026-08-28T17:55:50Z</time>
  <course>247.99</course>
  <speed>0.022360679774997897</speed>
  <fix>3d</fix>
</trkpt>
<trkpt lat="40.0713749" lon="-105.229789">
  <ele>1583.0</ele>
  <time>2026-08-28T17:55:50Z</time>
  <course>0.0</course>
  <speed>0.0</speed>
  <fix>3d</fix>
</trkpt>
<trkpt lat="40.0713749" lon="-105.229789">
  <ele>1583.0</ele>
  <time>2026-08-28T17:55:50Z</time>
  <course>247.99</course>
  <speed>0.022360679774997897</speed>
  <fix>3d</fix>
</trkpt>
<trkpt lat="40.0713749" lon="-105.229789">
  <ele>1583.0</ele>
  <time>2026-08-28T17:55:50Z</time>
  <course>0.0</course>
  <speed>0.0</speed>
  <fix>3d</fix>
</trkpt>
<trkpt lat="40.0713749" lon="-105.229789">
  <ele>1583.0</ele>
  <time>2026-08-28T17:55:50Z</time>
  <course>247.98</course>
  <speed>0.022360679774997897</speed>
  <fix>3d</fix>
</trkpt>
<trkpt lat="40.0713749" lon="-105.229789">
  <ele>1583.0</ele>
  <time>2026-08-28T17:55:50Z</time>
  <course>0.0</course>
  <speed>0.0</speed>
  <fix>3d</fix>
</trkpt>
<trkpt lat="40.0713749" lon="-105.229789">
  <ele>1583.0</ele>
  <time>2026-08-28T17:55:50Z</time>
  <course>247.98</course>
  <speed>0.022360679774997897</speed>
  <fix>3d</fix>
</trkpt>
<trkpt lat="40.0713749" lon="-105.229789">
  <ele>1583.0</ele>
  <time>2026-08-28T17:55:50Z</time>
  <course>0.0</course>
  <speed>0.0</speed>
  <fix>3d</fix>
</trkpt>
<trkpt lat="40.0713749" lon="-105.229789">
  <ele>1583.0</ele>
  <time>2026-08-28T17:55:50Z</time>
  <course>247.97</course>
  <speed>0.022360679774997897</speed>
  <fix>3d</fix>
</trkpt>
<trkpt lat="40.0713749" lon="-105.229789">
  <ele>1583.0</ele>
  <time>2026-08-28T17:55:50Z</time>
  <course>0.0</course>
  <speed>0.0</speed>
  <fix>3d</fix>
</trkpt>
<trkpt lat="40.0713749" lon="-105.229789">
  <ele>1583.0</ele>
  <time>2026-08-28T17:55:50Z</time>
  <course>247.97</course>
  <speed>0.022360679774997897</speed>
  <fix>3d</fix>
</trkpt>
<trkpt lat="40.0713749" lon="-105.229789">
  <ele>1583.0</ele>
  <time>2026-08-28T17:55:50Z</time>
  <course>0.0</course>
  <speed>0.0</speed>
  <fix>3d</fix>
</trkpt>
<trkpt lat="40.0713749" lon="-105.229789">
  <ele>1583.0</ele>
  <time>2026-08-28T17:55:50Z</time>
  <course>247.96</course>
  <speed>0.022360679774997897</speed>
  <fix>3d</fix>
</trkpt>
<trkpt lat="40.0713749" lon="-105.229789">
  <ele>1583.0</ele>
  <time>2026-08-28T17:55:50Z</time>
  <course>0.0</course>
  <speed>0.0</speed>
  <fix>3d</fix>
</trkpt>
<trkpt lat="40.0713749" lon="-105.229789">
  <ele>1583.0</ele>
  <time>2026-08-28T17:55:50Z</time>
  <course>247.96</course>
  <speed>0.022360679774997897</speed>
  <fix>3d</fix>
</trkpt>
<trkpt lat="40.0713749" lon="-105.229789">
  <ele>1583.0</ele>
  <time>2026-08-28T17:55:50Z</time>
  <course>0.0</course>
  <speed>0.0</speed>
  <fix>3d</fix>
</trkpt>
<trkpt lat="40.0713749" lon="-105.229789">
  <ele>1583.0</ele>
  <time>2026-08-28T17:55:50Z</time>
  <course>247.95</course>
  <speed>0.022360679774997897</speed>
  <fix>3d</fix>
</trkpt>
<trkpt lat="40.0713749" lon="-105.229789">
  <ele>1583.0</ele>
  <time>2026-08-28T17:55:50Z</time>
  <course>0.0</course>
  <speed>0.0</speed>
  <fix>3d</fix>
</trkpt>
<trkpt lat="40.0713749" lon="-105.229789">
  <ele>1583.0</ele>
  <time>2026-08-28T17:55:50Z</time>
  <course>247.95</course>
  <speed>0.022360679774997897</speed>
  <fix>3d</fix>
</trkpt>
<trkpt lat="40.0713749" lon="-105.229789">
  <ele>1583.0</ele>
  <time>2026-08-28T17:55:50Z</time>
  <course>0.0</course>
  <speed>0.0</speed>
  <fix>3d</fix>
</trkpt>
<trkpt lat="40.0713749" lon="-105.229789">
  <ele>1583.0</ele>
  <time>2026-08-28T17:55:50Z</time>
  <course>247.95</course>
  <speed>0.022360679774997897</speed>
  <fix>3d</fix>
</trkpt>
<trkpt lat="40.0713749" lon="-105.229789">
  <ele>1583.0</ele>
  <time>2026-08-28T17:55:50Z</time>
  <course>0.0</course>
  <speed>0.0</speed>
  <fix>3d</fix>
</trkpt>
<trkpt lat="40.0713749" lon="-105.229789">
  <ele>1583.0</ele>
  <time>2026-08-28T17:55:50Z</time>
  <course>247.94</course>
  <speed>0.022360679774997897</speed>
  <fix>3d</fix>
</trkpt>
<trkpt lat="40.0713749" lon="-105.229789">
  <ele>1583.0</ele>
  <time>2026-08-28T17:55:50Z</time>
  <course>0.0</course>
  <speed>0.0</speed>
  <fix>3d</fix>
</trkpt>
<trkpt lat="40.0713749" lon="-105.229789">
  <ele>1583.0</ele>
  <time>2026-08-28T17:55:50Z</time>
  <course>247.94</course>
  <speed>0.022360679774997897</speed>
  <fix>3d</fix>
</trkpt>
<trkpt lat="40.0713749" lon="-105.229789">
  <ele>1583.0</ele>
  <time>2026-08-28T17:55:50Z</time>
  <course>0.0</course>
  <speed>0.0</speed>
  <fix>3d</fix>
</trkpt>
<trkpt lat="40.0713749" lon="-105.229789">
  <ele>1583.0</ele>
  <time>2026-08-28T17:55:50Z</time>
  <course>247.93</course>
  <speed>0.022360679774997897</speed>
  <fix>3d</fix>
</trkpt>
<trkpt lat="40.0713749" lon="-105.229789">
  <ele>1583.0</ele>
  <time>2026-08-28T17:55:50Z</time>
  <course>0.0</course>
  <speed>0.0</speed>
  <fix>3d</fix>
</trkpt>
<trkpt lat="40.0713749" lon="-105.229789">
  <ele>1583.0</ele>
  <time>2026-08-28T17:55:50Z</time>
  <course>247.93</course>
  <speed>0.022360679774997897</speed>
  <fix>3d</fix>
</trkpt>
<trkpt lat="40.0713749" lon="-105.229789">
  <ele>1583.0</ele>
  <time>2026-08-28T17:55:50Z</time>
  <course>0.0</course>
  <speed>0.0</speed>
  <fix>3d</fix>
</trkpt>
<trkpt lat="40.0713749" lon="-105.229789">
  <ele>1583.0</ele>
  <time>2026-08-28T17:55:50Z</time>
  <course>247.92</course>
  <speed>0.022360679774997897</speed>
  <fix>3d</fix>
</trkpt>
<trkpt lat="40.0713749" lon="-105.229789">
  <ele>1583.0</ele>
  <time>2026-08-28T17:55:50Z</time>
  <course>0.0</course>
  <speed>0.0</speed>
  <fix>3d</fix>
</trkpt>
<trkpt lat="40.0713749" lon="-105.229789">
  <ele>1583.0</ele>
  <time>2026-08-28T17:55:50Z</time>
  <course>247.92</course>
  <speed>0.022360679774997897</speed>
  <fix>3d</fix>
</trkpt>
<trkpt lat="40.0713749" lon="-105.229789">
  <ele>1583.0</ele>
  <time>2026-08-28T17:55:50Z</time>
  <course>0.0</course>
  <speed>0.0</speed>
  <fix>3d</fix>
</trkpt>
<trkpt lat="40.0713749" lon="-105.229789">
  <ele>1583.0</ele>
  <time>2026-08-28T17:55:50Z</time>
  <course>247.92</course>
  <speed>0.022360679774997897</speed>
  <fix>3d</fix>
</trkpt>
<trkpt lat="40.0713749" lon="-105.229789">
  <ele>1583.0</ele>
  <time>2026-08-28T17:55:50Z</time>
  <course>0.0</course>
  <speed>0.0</speed>
  <fix>3d</fix>
</trkpt>
<trkpt lat="40.0713749" lon="-105.229789">
  <ele>1583.0</ele>
  <time>2026-08-28T17:55:50Z</time>
  <course>247.91</course>
  <speed>0.022360679774997897</speed>
  <fix>3d</fix>
</trkpt>
<trkpt lat="40.0713749" lon="-105.229789">
  <ele>1583.0</ele>
  <time>2026-08-28T17:55:50Z</time>
  <course>0.0</course>
  <speed>0.0</speed>
  <fix>3d</fix>
</trkpt>
<trkpt lat="40.0713749" lon="-105.229789">
  <ele>1583.0</ele>
  <time>2026-08-28T17:55:50Z</time>
  <course>247.91</course>
  <speed>0.022360679774997897</speed>
  <fix>3d</fix>
</trkpt>
<trkpt lat="40.0713749" lon="-105.229789">
  <ele>1583.0</ele>
  <time>2026-08-28T17:55:50Z</time>
  <course>0.0</course>
  <speed>0.0</speed>
  <fix>3d</fix>
</trkpt>
<trkpt lat="40.0713749" lon="-105.229789">
  <ele>1583.0</ele>
  <time>2026-08-28T17:55:50Z</time>
  <course>247.9</course>
  <speed>0.022360679774997897</speed>
  <fix>3d</fix>
</trkpt>
<trkpt lat="40.0713749" lon="-105.229789">
  <ele>1583.0</ele>
  <time>2026-08-28T17:55:50Z</time>
  <course>0.0</course>
  <speed>0.0</speed>
  <fix>3d</fix>
</trkpt>
<trkpt lat="40.0713749" lon="-105.229789">
  <ele>1583.0</ele>
  <time>2026-08-28T17:55:50Z</time>
  <course>247.9</course>
  <speed>0.022360679774997897</speed>
  <fix>3d</fix>
</trkpt>
<trkpt lat="40.0713749" lon="-105.229789">
  <ele>1583.0</ele>
  <time>2026-08-28T17:55:50Z</time>
  <course>0.0</course>
  <speed>0.0</speed>
  <fix>3d</fix>
</trkpt>
<trkpt lat="40.0713749" lon="-105.229789">
  <ele>1583.0</ele>
  <time>2026-08-28T17:55:50Z</time>
  <course>247.89</course>
  <speed>0.022360679774997897</speed>
  <fix>3d</fix>
</trkpt>
<trkpt lat="40.0713749" lon="-105.229789">
  <ele>1583.0</ele>
  <time>2026-08-28T17:55:50Z</time>
  <course>0.0</course>
  <speed>0.0</speed>
  <fix>3d</fix>
</trkpt>
<trkpt lat="40.0713749" lon="-105.229789">
  <ele>1583.0</ele>
  <time>2026-08-28T17:55:50Z</time>
  <course>247.89</course>
  <speed>0.022360679774997897</speed>
  <fix>3d</fix>
</trkpt>
<trkpt lat="40.0713749" lon="-105.229789">
  <ele>1583.0</ele>
  <time>2026-08-28T17:55:50Z</time>
  <course>0.0</course>
  <speed>0.0</speed>
  <fix>3d</fix>
</trkpt>
<trkpt lat="40.0713749" lon="-105.229789">
  <ele>1583.0</ele>
  <time>2026-08-28T17:55:50Z</time>
  <course>247.89</course>
  <speed>0.022360679774997897</speed>
  <fix>3d</fix>
</trkpt>
<trkpt lat="40.0713749" lon="-105.229789">
  <ele>1583.0</ele>
  <time>2026-08-28T17:55:50Z</time>
  <course>0.0</course>
  <speed>0.0</speed>
  <fix>3d</fix>
</trkpt>
<trkpt lat="40.0713749" lon="-105.229789">
  <ele>1583.0</ele>
  <time>2026-08-28T17:55:50Z</time>
  <course>247.88</course>
  <speed>0.0316227766016838</speed>
  <fix>3d</fix>
</trkpt>
<trkpt lat="40.0713749" lon="-105.229789">
  <ele>1583.0</ele>
  <time>2026-08-28T17:55:50Z</time>
  <course>0.0</course>
  <speed>0.0</speed>
  <fix>3d</fix>
</trkpt>
<trkpt lat="40.0713749" lon="-105.229789">
  <ele>1583.0</ele>
  <time>2026-08-28T17:55:50Z</time>
  <course>247.88</course>
  <speed>0.0316227766016838</speed>
  <fix>3d</fix>
</trkpt>
<trkpt lat="40.0713749" lon="-105.229789">
  <ele>1583.0</ele>
  <time>2026-08-28T17:55:50Z</time>
  <course>0.0</course>
  <speed>0.0</speed>
  <fix>3d</fix>
</trkpt>
<trkpt lat="40.0713749" lon="-105.229789">
  <ele>1583.0</ele>
  <time>2026-08-28T17:55:50Z</time>
  <course>247.87</course>
  <speed>0.0316227766016838</speed>
  <fix>3d</fix>
</trkpt>
<trkpt lat="40.0713749" lon="-105.229789">
  <ele>1583.0</ele>
  <time>2026-08-28T17:55:50Z</time>
  <course>0.0</course>
  <speed>0.0</speed>
  <fix>3d</fix>
</trkpt>
<trkpt lat="40.0713749" lon="-105.229789">
  <ele>1583.0</ele>
  <time>2026-08-28T17:55:50Z</time>
  <course>247.87</course>
  <speed>0.0316227766016838</speed>
  <fix>3d</fix>
</trkpt>
<trkpt lat="40.0713749" lon="-105.229789">
  <ele>1583.0</ele>
  <time>2026-08-28T17:55:50Z</time>
  <course>0.0</course>
  <speed>0.0</speed>
  <fix>3d</fix>
</trkpt>
<trkpt lat="40.0713749" lon="-105.229789">
  <ele>1583.0</ele>
  <time>2026-08-28T17:55:50Z</time>
  <course>247.87</course>
  <speed>0.0316227766016838</speed>
  <fix>3d</fix>
</trkpt>
<trkpt lat="40.0713749" lon="-105.229789">
  <ele>1583.0</ele>
  <time>2026-08-28T17:55:50Z</time>
  <course>0.0</course>
  <speed>0.0</speed>
  <fix>3d</fix>
</trkpt>
<trkpt lat="40.0713749" lon="-105.229789">
  <ele>1583.0</ele>
  <time>2026-08-28T17:55:50Z</time>
  <course>247.86</course>
  <speed>0.0316227766016838</speed>
  <fix>3d</fix>
</trkpt>
<trkpt lat="40.0713749" lon="-105.229789">
  <ele>1583.0</ele>
  <time>2026-08-28T17:55:50Z</time>
  <course>0.0</course>
  <speed>0.0</speed>
  <fix>3d</fix>
</trkpt>
<trkpt lat="40.0713749" lon="-105.229789">
  <ele>1583.0</ele>
  <time>2026-08-28T17:55:50Z</time>
  <course>247.86</course>
  <speed>0.0316227766016838</speed>
  <fix>3d</fix>
</trkpt>
<trkpt lat="40.0713749" lon="-105.229789">
  <ele>1583.0</ele>
  <time>2026-08-28T17:55:50Z</time>
  <course>0.0</course>
  <speed>0.0</speed>
  <fix>3d</fix>
</trkpt>
<trkpt lat="40.0713749" lon="-105.229789">
  <ele>1583.0</ele>
  <time>2026-08-28T17:55:50Z</time>
  <course>247.85</course>
  <speed>0.0316227766016838</speed>
  <fix>3d</fix>
</trkpt>
<trkpt lat="40.0713749" lon="-105.229789">
  <ele>1583.0</ele>
  <time>2026-08-28T17:55:50Z</time>
  <course>0.0</course>
  <speed>0.0</speed>
  <fix>3d</fix>
</trkpt>
<trkpt lat="40.0713749" lon="-105.229789">
  <ele>1583.0</ele>
  <time>2026-08-28T17:55:50Z</time>
  <course>247.85</course>
  <speed>0.0316227766016838</speed>
  <fix>3d</fix>
</trkpt>
<trkpt lat="40.0713749" lon="-105.229789">
  <ele>1583.0</ele>
  <time>2026-08-28T17:55:50Z</time>
  <course>0.0</course>
  <speed>0.0</speed>
  <fix>3d</fix>
</trkpt>
<trkpt lat="40.0713749" lon="-105.229789">
  <ele>1583.0</ele>
  <time>2026-08-28T17:55:50Z</time>
  <course>247.85</course>
  <speed>0.0316227766016838</speed>
  <fix>3d</fix>
</trkpt>
<trkpt lat="40.0713749" lon="-105.229789">
  <ele>1583.0</ele>
  <time>2026-08-28T17:55:50Z</time>
  <course>0.0</course>
  <speed>0.0</speed>
  <fix>3d</fix>
</trkpt>
<trkpt lat="40.0713749" lon="-105.229789">
  <ele>1583.0</ele>
  <time>2026-08-28T17:55:50Z</time>
  <course>247.84</course>
  <speed>0.0316227766016838</speed>
  <fix>3d</fix>
</trkpt>
<trkpt lat="40.0713749" lon="-105.229789">
  <ele>1583.0</ele>
  <time>2026-08-28T17:55:50Z</time>
  <course>0.0</course>
  <speed>0.0</speed>
  <fix>3d</fix>
</trkpt>
<trkpt lat="40.0713749" lon="-105.229789">
  <ele>1583.0</ele>
  <time>2026-08-28T17:55:50Z</time>
  <course>247.84</course>
  <speed>0.0316227766016838</speed>
  <fix>3d</fix>
</trkpt>
<trkpt lat="40.0713749" lon="-105.229789">
  <ele>1583.0</ele>
  <time>2026-08-28T17:55:50Z</time>
  <course>0.0</course>
  <speed>0.0</speed>
  <fix>3d</fix>
</trkpt>
<trkpt lat="40.0713749" lon="-105.229789">
  <ele>1583.0</ele>
  <time>2026-08-28T17:55:50Z</time>
  <course>247.83</course>
  <speed>0.0316227766016838</speed>
  <fix>3d</fix>
</trkpt>
<trkpt lat="40.0713749" lon="-105.229789">
  <ele>1583.0</ele>
  <time>2026-08-28T17:55:50Z</time>
  <course>0.0</course>
  <speed>0.0</speed>
  <fix>3d</fix>
</trkpt>
<trkpt lat="40.0713749" lon="-105.229789">
  <ele>1583.0</ele>
  <time>2026-08-28T17:55:50Z</time>
  <course>247.83</course>
  <speed>0.0316227766016838</speed>
  <fix>3d</fix>
</trkpt>
<trkpt lat="40.0713749" lon="-105.229789">
  <ele>1583.0</ele>
  <time>2026-08-28T17:55:50Z</time>
  <course>0.0</course>
  <speed>0.0</speed>
  <fix>3d</fix>
</trkpt>
<trkpt lat="40.0713749" lon="-105.229789">
  <ele>1583.0</ele>
  <time>2026-08-28T17:55:50Z</time>
  <course>247.83</course>
  <speed>0.0316227766016838</speed>
  <fix>3d</fix>
</trkpt>
<trkpt lat="40.0713749" lon="-105.229789">
  <ele>1583.0</ele>
  <time>2026-08-28T17:55:50Z</time>
  <course>0.0</course>
  <speed>0.0</speed>
  <fix>3d</fix>
</trkpt>
<trkpt lat="40.0713749" lon="-105.229789">
  <ele>1583.0</ele>
  <time>2026-08-28T17:55:50Z</time>
  <course>247.82</course>
  <speed>0.0316227766016838</speed>
  <fix>3d</fix>
</trkpt>
<trkpt lat="40.0713749" lon="-105.229789">
  <ele>1583.0</ele>
  <time>2026-08-28T17:55:50Z</time>
  <course>0.0</course>
  <speed>0.0</speed>
  <fix>3d</fix>
</trkpt>
<trkpt lat="40.0713749" lon="-105.229789">
  <ele>1583.0</ele>
  <time>2026-08-28T17:55:50Z</time>
  <course>247.82</course>
  <speed>0.0316227766016838</speed>
  <fix>3d</fix>
</trkpt>
<trkpt lat="40.0713749" lon="-105.229789">
  <ele>1583.0</ele>
  <time>2026-08-28T17:55:50Z</time>
  <course>0.0</course>
  <speed>0.0</speed>
  <fix>3d</fix>
</trkpt>
<trkpt lat="40.0713749" lon="-105.229789">
  <ele>1583.0</ele>
  <time>2026-08-28T17:55:50Z</time>
  <course>247.82</course>
  <speed>0.0316227766016838</speed>
  <fix>3d</fix>
</trkpt>
<trkpt lat="40.0713749" lon="-105.229789">
  <ele>1583.0</ele>
  <time>2026-08-28T17:55:50Z</time>
  <course>0.0</course>
  <speed>0.0</speed>
  <fix>3d</fix>
</trkpt>
<trkpt lat="40.0713749" lon="-105.229789">
  <ele>1583.0</ele>
  <time>2026-08-28T17:55:50Z</time>
  <course>247.81</course>
  <speed>0.0316227766016838</speed>
  <fix>3d</fix>
</trkpt>
<trkpt lat="40.0713749" lon="-105.229789">
  <ele>1583.0</ele>
  <time>2026-08-28T17:55:50Z</time>
  <course>0.0</course>
  <speed>0.0</speed>
  <fix>3d</fix>
</trkpt>
<trkpt lat="40.0713749" lon="-105.229789">
  <ele>1583.0</ele>
  <time>2026-08-28T17:55:50Z</time>
  <course>247.81</course>
  <speed>0.0316227766016838</speed>
  <fix>3d</fix>
</trkpt>
<trkpt lat="40.0713749" lon="-105.229789">
  <ele>1583.0</ele>
  <time>2026-08-28T17:55:50Z</time>
  <course>0.0</course>
  <speed>0.0</speed>
  <fix>3d</fix>
</trkpt>
<trkpt lat="40.0713749" lon="-105.229789">
  <ele>1583.0</ele>
  <time>2026-08-28T17:55:50Z</time>
  <course>247.8</course>
  <speed>0.0316227766016838</speed>
  <fix>3d</fix>
</trkpt>
<trkpt lat="40.0713749" lon="-105.229789">
  <ele>1583.0</ele>
  <time>2026-08-28T17:55:50Z</time>
  <course>0.0</course>
  <speed>0.0</speed>
  <fix>3d</fix>
</trkpt>
<trkpt lat="40.0713749" lon="-105.229789">
  <ele>1583.0</ele>
  <time>2026-08-28T17:55:50Z</time>
  <course>247.8</course>
  <speed>0.0316227766016838</speed>
  <fix>3d</fix>
</trkpt>
<trkpt lat="40.0713749" lon="-105.229789">
  <ele>1583.0</ele>
  <time>2026-08-28T17:55:50Z</time>
  <course>0.0</course>
  <speed>0.0</speed>
  <fix>3d</fix>
</trkpt>
<trkpt lat="40.0713749" lon="-105.229789">
  <ele>1583.0</ele>
  <time>2026-08-28T17:55:50Z</time>
  <course>247.8</course>
  <speed>0.0316227766016838</speed>
  <fix>3d</fix>
</trkpt>
<trkpt lat="40.0713749" lon="-105.229789">
  <ele>1583.0</ele>
  <time>2026-08-28T17:55:50Z</time>
  <course>0.0</course>
  <speed>0.0</speed>
  <fix>3d</fix>
</trkpt>
<trkpt lat="40.0713749" lon="-105.229789">
  <ele>1583.0</ele>
  <time>2026-08-28T17:55:50Z</time>
  <course>247.79</course>
  <speed>0.0316227766016838</speed>
  <fix>3d</fix>
</trkpt>
<trkpt lat="40.0713749" lon="-105.229789">
  <ele>1583.0</ele>
  <time>2026-08-28T17:55:50Z</time>
  <course>0.0</course>
  <speed>0.0</speed>
  <fix>3d</fix>
</trkpt>
<trkpt lat="40.0713749" lon="-105.229789">
  <ele>1583.0</ele>
  <time>2026-08-28T17:55:50Z</time>
  <course>247.79</course>
  <speed>0.0316227766016838</speed>
  <fix>3d</fix>
</trkpt>
<trkpt lat="40.0713749" lon="-105.229789">
  <ele>1583.0</ele>
  <time>2026-08-28T17:55:50Z</time>
  <course>0.0</course>
  <speed>0.0</speed>
  <fix>3d</fix>
</trkpt>
<trkpt lat="40.0713749" lon="-105.229789">
  <ele>1583.0</ele>
  <time>2026-08-28T17:55:50Z</time>
  <course>247.79</course>
  <speed>0.0316227766016838</speed>
  <fix>3d</fix>
</trkpt>
<trkpt lat="40.0713749" lon="-105.229789">
  <ele>1583.0</ele>
  <time>2026-08-28T17:55:50Z</time>
  <course>0.0</course>
  <speed>0.0</speed>
  <fix>3d</fix>
</trkpt>
<trkpt lat="40.0713749" lon="-105.229789">
  <ele>1583.0</ele>
  <time>2026-08-28T17:55:50Z</time>
  <course>247.78</course>
  <speed>0.0316227766016838</speed>
  <fix>3d</fix>
</trkpt>
<trkpt lat="40.0713749" lon="-105.229789">
  <ele>1583.0</ele>
  <time>2026-08-28T17:55:50Z</time>
  <course>0.0</course>
  <speed>0.0</speed>
  <fix>3d</fix>
</trkpt>
<trkpt lat="40.0713749" lon="-105.229789">
  <ele>1583.0</ele>
  <time>2026-08-28T17:55:50Z</time>
  <course>247.78</course>
  <speed>0.0316227766016838</speed>
  <fix>3d</fix>
</trkpt>
<trkpt lat="40.0713749" lon="-105.229789">
  <ele>1583.0</ele>
  <time>2026-08-28T17:55:50Z</time>
  <course>0.0</course>
  <speed>0.0</speed>
  <fix>3d</fix>
</trkpt>
<trkpt lat="40.0713749" lon="-105.229789">
  <ele>1583.0</ele>
  <time>2026-08-28T17:55:50Z</time>
  <course>247.78</course>
  <speed>0.0316227766016838</speed>
  <fix>3d</fix>
</trkpt>
<trkpt lat="40.0713749" lon="-105.229789">
  <ele>1583.0</ele>
  <time>2026-08-28T17:55:50Z</time>
  <course>0.0</course>
  <speed>0.0</speed>
  <fix>3d</fix>
</trkpt>
<trkpt lat="40.0713749" lon="-105.229789">
  <ele>1583.0</ele>
  <time>2026-08-28T17:55:50Z</time>
  <course>247.77</course>
  <speed>0.0316227766016838</speed>
  <fix>3d</fix>
</trkpt>
<trkpt lat="40.0713749" lon="-105.229789">
  <ele>1583.0</ele>
  <time>2026-08-28T17:55:50Z</time>
  <course>0.0</course>
  <speed>0.0</speed>
  <fix>3d</fix>
</trkpt>
<trkpt lat="40.0713749" lon="-105.229789">
  <ele>1583.0</ele>
  <time>2026-08-28T17:55:50Z</time>
  <course>247.77</course>
  <speed>0.0316227766016838</speed>
  <fix>3d</fix>
</trkpt>
<trkpt lat="40.0713749" lon="-105.229789">
  <ele>1583.0</ele>
  <time>2026-08-28T17:55:50Z</time>
  <course>0.0</course>
  <speed>0.0</speed>
  <fix>3d</fix>
</trkpt>
<trkpt lat="40.0713749" lon="-105.229789">
  <ele>1583.0</ele>
  <time>2026-08-28T17:55:50Z</time>
  <course>247.76</course>
  <speed>0.0316227766016838</speed>
  <fix>3d</fix>
</trkpt>
<trkpt lat="40.0713749" lon="-105.229789">
  <ele>1583.0</ele>
  <time>2026-08-28T17:55:50Z</time>
  <course>0.0</course>
  <speed>0.0</speed>
  <fix>3d</fix>
</trkpt>
<trkpt lat="40.0713749" lon="-105.229789">
  <ele>1583.0</ele>
  <time>2026-08-28T17:55:50Z</time>
  <course>247.76</course>
  <speed>0.0316227766016838</speed>
  <fix>3d</fix>
</trkpt>
<trkpt lat="40.0713749" lon="-105.229789">
  <ele>1583.0</ele>
  <time>2026-08-28T17:55:50Z</time>
  <course>0.0</course>
  <speed>0.0</speed>
  <fix>3d</fix>
</trkpt>
<trkpt lat="40.0713749" lon="-105.229789">
  <ele>1583.0</ele>
  <time>2026-08-28T17:55:50Z</time>
  <course>247.76</course>
  <speed>0.0316227766016838</speed>
  <fix>3d</fix>
</trkpt>
<trkpt lat="40.0713749" lon="-105.229789">
  <ele>1583.0</ele>
  <time>2026-08-28T17:55:50Z</time>
  <course>0.0</course>
  <speed>0.0</speed>
  <fix>3d</fix>
</trkpt>
<trkpt lat="40.0713749" lon="-105.229789">
  <ele>1583.0</ele>
  <time>2026-08-28T17:55:50Z</time>
  <course>247.75</course>
  <speed>0.0316227766016838</speed>
  <fix>3d</fix>
</trkpt>
<trkpt lat="40.0713749" lon="-105.229789">
  <ele>1583.0</ele>
  <time>2026-08-28T17:55:50Z</time>
  <course>0.0</course>
  <speed>0.0</speed>
  <fix>3d</fix>
</trkpt>
<trkpt lat="40.0713749" lon="-105.229789">
  <ele>1583.0</ele>
  <time>2026-08-28T17:55:50Z</time>
  <course>247.75</course>
  <speed>0.0316227766016838</speed>
  <fix>3d</fix>
</trkpt>
<trkpt lat="40.0713749" lon="-105.229789">
  <ele>1583.0</ele>
  <time>2026-08-28T17:55:50Z</time>
  <course>0.0</course>
  <speed>0.0</speed>
  <fix>3d</fix>
</trkpt>
<trkpt lat="40.0713749" lon="-105.229789">
  <ele>1583.0</ele>
  <time>2026-08-28T17:55:50Z</time>
  <course>247.75</course>
  <speed>0.0316227766016838</speed>
  <fix>3d</fix>
</trkpt>
<trkpt lat="40.0713749" lon="-105.229789">
  <ele>1583.0</ele>
  <time>2026-08-28T17:55:50Z</time>
  <course>0.0</course>
  <speed>0.0</speed>
  <fix>3d</fix>
</trkpt>
<trkpt lat="40.0713749" lon="-105.229789">
  <ele>1583.0</ele>
  <time>2026-08-28T17:55:50Z</time>
  <course>247.74</course>
  <speed>0.0316227766016838</speed>
  <fix>3d</fix>
</trkpt>
<trkpt lat="40.0713749" lon="-105.229789">
  <ele>1583.0</ele>
  <time>2026-08-28T17:55:50Z</time>
  <course>0.0</course>
  <speed>0.0</speed>
  <fix>3d</fix>
</trkpt>
<trkpt lat="40.0713749" lon="-105.229789">
  <ele>1583.0</ele>
  <time>2026-08-28T17:55:50Z</time>
  <course>247.74</course>
  <speed>0.0316227766016838</speed>
  <fix>3d</fix>
</trkpt>
<trkpt lat="40.0713749" lon="-105.229789">
  <ele>1583.0</ele>
  <time>2026-08-28T17:55:50Z</time>
  <course>0.0</course>
  <speed>0.0</speed>
  <fix>3d</fix>
</trkpt>
<trkpt lat="40.0713749" lon="-105.229789">
  <ele>1583.0</ele>
  <time>2026-08-28T17:55:50Z</time>
  <course>247.74</course>
  <speed>0.0316227766016838</speed>
  <fix>3d</fix>
</trkpt>
<trkpt lat="40.0713749" lon="-105.229789">
  <ele>1583.0</ele>
  <time>2026-08-28T17:55:50Z</time>
  <course>0.0</course>
  <speed>0.0</speed>
  <fix>3d</fix>
</trkpt>
<trkpt lat="40.0713749" lon="-105.229789">
  <ele>1583.0</ele>
  <time>2026-08-28T17:55:50Z</time>
  <course>247.73</course>
  <speed>0.0316227766016838</speed>
  <fix>3d</fix>
</trkpt>
<trkpt lat="40.0713749" lon="-105.229789">
  <ele>1583.0</ele>
  <time>2026-08-28T17:55:50Z</time>
  <course>0.0</course>
  <speed>0.0</speed>
  <fix>3d</fix>
</trkpt>
<trkpt lat="40.0713749" lon="-105.229789">
  <ele>1583.0</ele>
  <time>2026-08-28T17:55:50Z</time>
  <course>247.73</course>
  <speed>0.0316227766016838</speed>
  <fix>3d</fix>
</trkpt>
<trkpt lat="40.0713749" lon="-105.229789">
  <ele>1583.0</ele>
  <time>2026-08-28T17:55:50Z</time>
  <course>0.0</course>
  <speed>0.0</speed>
  <fix>3d</fix>
</trkpt>
<trkpt lat="40.0713749" lon="-105.229789">
  <ele>1583.0</ele>
  <time>2026-08-28T17:55:50Z</time>
  <course>247.73</course>
  <speed>0.0316227766016838</speed>
  <fix>3d</fix>
</trkpt>
<trkpt lat="40.0713749" lon="-105.229789">
  <ele>1583.0</ele>
  <time>2026-08-28T17:55:50Z</time>
  <course>0.0</course>
  <speed>0.0</speed>
  <fix>3d</fix>
</trkpt>
<trkpt lat="40.0713749" lon="-105.229789">
  <ele>1583.0</ele>
  <time>2026-08-28T17:55:50Z</time>
  <course>247.72</course>
  <speed>0.0316227766016838</speed>
  <fix>3d</fix>
</trkpt>
<trkpt lat="40.0713749" lon="-105.229789">
  <ele>1583.0</ele>
  <time>2026-08-28T17:55:50Z</time>
  <course>0.0</course>
  <speed>0.0</speed>
  <fix>3d</fix>
</trkpt>
<trkpt lat="40.0713749" lon="-105.229789">
  <ele>1583.0</ele>
  <time>2026-08-28T17:55:50Z</time>
  <course>247.72</course>
  <speed>0.0316227766016838</speed>
  <fix>3d</fix>
</trkpt>
<trkpt lat="40.0713749" lon="-105.229789">
  <ele>1583.0</ele>
  <time>2026-08-28T17:55:50Z</time>
  <course>0.0</course>
  <speed>0.0</speed>
  <fix>3d</fix>
</trkpt>
<trkpt lat="40.0713749" lon="-105.229789">
  <ele>1583.0</ele>
  <time>2026-08-28T17:55:50Z</time>
  <course>247.72</course>
  <speed>0.0316227766016838</speed>
  <fix>3d</fix>
</trkpt>
<trkpt lat="40.0713749" lon="-105.229789">
  <ele>1583.0</ele>
  <time>2026-08-28T17:55:50Z</time>
  <course>0.0</course>
  <speed>0.0</speed>
  <fix>3d</fix>
</trkpt>
<trkpt lat="40.0713749" lon="-105.229789">
  <ele>1583.0</ele>
  <time>2026-08-28T17:55:50Z</time>
  <course>247.71</course>
  <speed>0.0316227766016838</speed>
  <fix>3d</fix>
</trkpt>
<trkpt lat="40.0713749" lon="-105.229789">
  <ele>1583.0</ele>
  <time>2026-08-28T17:55:50Z</time>
  <course>0.0</course>
  <speed>0.0</speed>
  <fix>3d</fix>
</trkpt>
<trkpt lat="40.0713749" lon="-105.229789">
  <ele>1583.0</ele>
  <time>2026-08-28T17:55:50Z</time>
  <course>247.71</course>
  <speed>0.0316227766016838</speed>
  <fix>3d</fix>
</trkpt>
<trkpt lat="40.0713749" lon="-105.229789">
  <ele>1583.0</ele>
  <time>2026-08-28T17:55:50Z</time>
  <course>0.0</course>
  <speed>0.0</speed>
  <fix>3d</fix>
</trkpt>
<trkpt lat="40.0713749" lon="-105.229789">
  <ele>1583.0</ele>
  <time>2026-08-28T17:55:50Z</time>
  <course>247.71</course>
  <speed>0.0316227766016838</speed>
  <fix>3d</fix>
</trkpt>
<trkpt lat="40.0713749" lon="-105.229789">
  <ele>1583.0</ele>
  <time>2026-08-28T17:55:50Z</time>
  <course>0.0</course>
  <speed>0.0</speed>
  <fix>3d</fix>
</trkpt>
<trkpt lat="40.0713749" lon="-105.229789">
  <ele>1583.0</ele>
  <time>2026-08-28T17:55:50Z</time>
  <course>247.7</course>
  <speed>0.0316227766016838</speed>
  <fix>3d</fix>
</trkpt>
<trkpt lat="40.0713749" lon="-105.229789">
  <ele>1583.0</ele>
  <time>2026-08-28T17:55:50Z</time>
  <course>0.0</course>
  <speed>0.0</speed>
  <fix>3d</fix>
</trkpt>
<trkpt lat="40.0713749" lon="-105.229789">
  <ele>1583.0</ele>
  <time>2026-08-28T17:55:50Z</time>
  <course>247.7</course>
  <speed>0.0316227766016838</speed>
  <fix>3d</fix>
</trkpt>
<trkpt lat="40.0713749" lon="-105.229789">
  <ele>1583.0</ele>
  <time>2026-08-28T17:55:50Z</time>
  <course>0.0</course>
  <speed>0.0</speed>
  <fix>3d</fix>
</trkpt>
<trkpt lat="40.0713749" lon="-105.229789">
  <ele>1583.0</ele>
  <time>2026-08-28T17:55:50Z</time>
  <course>247.7</course>
  <speed>0.0316227766016838</speed>
  <fix>3d</fix>
</trkpt>
<trkpt lat="40.0713749" lon="-105.229789">
  <ele>1583.0</ele>
  <time>2026-08-28T17:55:50Z</time>
  <course>0.0</course>
  <speed>0.0</speed>
  <fix>3d</fix>
</trkpt>
<trkpt lat="40.0713749" lon="-105.229789">
  <ele>1583.0</ele>
  <time>2026-08-28T17:55:50Z</time>
  <course>247.69</course>
  <speed>0.0316227766016838</speed>
  <fix>3d</fix>
</trkpt>
<trkpt lat="40.0713749" lon="-105.229789">
  <ele>1583.0</ele>
  <time>2026-08-28T17:55:50Z</time>
  <course>0.0</course>
  <speed>0.0</speed>
  <fix>3d</fix>
</trkpt>
<trkpt lat="40.0713749" lon="-105.229789">
  <ele>1583.0</ele>
  <time>2026-08-28T17:55:50Z</time>
  <course>247.69</course>
  <speed>0.0316227766016838</speed>
  <fix>3d</fix>
</trkpt>
<trkpt lat="40.0713749" lon="-105.229789">
  <ele>1583.0</ele>
  <time>2026-08-28T17:55:50Z</time>
  <course>0.0</course>
  <speed>0.0</speed>
  <fix>3d</fix>
</trkpt>
<trkpt lat="40.0713749" lon="-105.229789">
  <ele>1583.0</ele>
  <time>2026-08-28T17:55:50Z</time>
  <course>247.69</course>
  <speed>0.0316227766016838</speed>
  <fix>3d</fix>
</trkpt>
<trkpt lat="40.0713749" lon="-105.229789">
  <ele>1583.0</ele>
  <time>2026-08-28T17:55:50Z</time>
  <course>0.0</course>
  <speed>0.0</speed>
  <fix>3d</fix>
</trkpt>
<trkpt lat="40.0713749" lon="-105.229789">
  <ele>1583.0</ele>
  <time>2026-08-28T17:55:50Z</time>
  <course>247.68</course>
  <speed>0.0316227766016838</speed>
  <fix>3d</fix>
</trkpt>
<trkpt lat="40.0713749" lon="-105.229789">
  <ele>1583.0</ele>
  <time>2026-08-28T17:55:50Z</time>
  <course>0.0</course>
  <speed>0.0</speed>
  <fix>3d</fix>
</trkpt>
<trkpt lat="40.0713749" lon="-105.229789">
  <ele>1583.0</ele>
  <time>2026-08-28T17:55:50Z</time>
  <course>247.68</course>
  <speed>0.0316227766016838</speed>
  <fix>3d</fix>
</trkpt>
<trkpt lat="40.0713749" lon="-105.229789">
  <ele>1583.0</ele>
  <time>2026-08-28T17:55:50Z</time>
  <course>0.0</course>
  <speed>0.0</speed>
  <fix>3d</fix>
</trkpt>
<trkpt lat="40.0713749" lon="-105.229789">
  <ele>1583.0</ele>
  <time>2026-08-28T17:55:50Z</time>
  <course>247.68</course>
  <speed>0.0316227766016838</speed>
  <fix>3d</fix>
</trkpt>
<trkpt lat="40.0713749" lon="-105.229789">
  <ele>1583.0</ele>
  <time>2026-08-28T17:55:50Z</time>
  <course>0.0</course>
  <speed>0.0</speed>
  <fix>3d</fix>
</trkpt>
<trkpt lat="40.0713749" lon="-105.229789">
  <ele>1583.0</ele>
  <time>2026-08-28T17:55:50Z</time>
  <course>247.67</course>
  <speed>0.0316227766016838</speed>
  <fix>3d</fix>
</trkpt>
<trkpt lat="40.0713749" lon="-105.229789">
  <ele>1583.0</ele>
  <time>2026-08-28T17:55:50Z</time>
  <course>0.0</course>
  <speed>0.0</speed>
  <fix>3d</fix>
</trkpt>
<trkpt lat="40.0713749" lon="-105.229789">
  <ele>1583.0</ele>
  <time>2026-08-28T17:55:50Z</time>
  <course>247.67</course>
  <speed>0.0316227766016838</speed>
  <fix>3d</fix>
</trkpt>
<trkpt lat="40.0713749" lon="-105.229789">
  <ele>1583.0</ele>
  <time>2026-08-28T17:55:50Z</time>
  <course>0.0</course>
  <speed>0.0</speed>
  <fix>3d</fix>
</trkpt>
<trkpt lat="40.0713749" lon="-105.229789">
  <ele>1583.0</ele>
  <time>2026-08-28T17:55:50Z</time>
  <course>247.67</course>
  <speed>0.0316227766016838</speed>
  <fix>3d</fix>
</trkpt>
<trkpt lat="40.0713749" lon="-105.229789">
  <ele>1583.0</ele>
  <time>2026-08-28T17:55:50Z</time>
  <course>0.0</course>
  <speed>0.0</speed>
  <fix>3d</fix>
</trkpt>
<trkpt lat="40.0713749" lon="-105.229789">
  <ele>1583.0</ele>
  <time>2026-08-28T17:55:50Z</time>
  <course>247.66</course>
  <speed>0.0316227766016838</speed>
  <fix>3d</fix>
</trkpt>
<trkpt lat="40.0713749" lon="-105.229789">
  <ele>1583.0</ele>
  <time>2026-08-28T17:55:50Z</time>
  <course>0.0</course>
  <speed>0.0</speed>
  <fix>3d</fix>
</trkpt>
<trkpt lat="40.0713749" lon="-105.229789">
  <ele>1583.0</ele>
  <time>2026-08-28T17:55:50Z</time>
  <course>247.66</course>
  <speed>0.0316227766016838</speed>
  <fix>3d</fix>
</trkpt>
<trkpt lat="40.0713749" lon="-105.229789">
  <ele>1583.0</ele>
  <time>2026-08-28T17:55:50Z</time>
  <course>0.0</course>
  <speed>0.0</speed>
  <fix>3d</fix>
</trkpt>
<trkpt lat="40.0713749" lon="-105.229789">
  <ele>1583.0</ele>
  <time>2026-08-28T17:55:50Z</time>
  <course>247.66</course>
  <speed>0.0316227766016838</speed>
  <fix>3d</fix>
</trkpt>
<trkpt lat="40.0713749" lon="-105.229789">
  <ele>1583.0</ele>
  <time>2026-08-28T17:55:50Z</time>
  <course>0.0</course>
  <speed>0.0</speed>
  <fix>3d</fix>
</trkpt>
<trkpt lat="40.0713749" lon="-105.229789">
  <ele>1583.0</ele>
  <time>2026-08-28T17:55:50Z</time>
  <course>247.65</course>
  <speed>0.0316227766016838</speed>
  <fix>3d</fix>
</trkpt>
<trkpt lat="40.0713749" lon="-105.229789">
  <ele>1583.0</ele>
  <time>2026-08-28T17:55:50Z</time>
  <course>0.0</course>
  <speed>0.0</speed>
  <fix>3d</fix>
</trkpt>
<trkpt lat="40.0713749" lon="-105.229789">
  <ele>1583.0</ele>
  <time>2026-08-28T17:55:50Z</time>
  <course>247.65</course>
  <speed>0.0316227766016838</speed>
  <fix>3d</fix>
</trkpt>
<trkpt lat="40.0713749" lon="-105.229789">
  <ele>1583.0</ele>
  <time>2026-08-28T17:55:50Z</time>
  <course>0.0</course>
  <speed>0.0</speed>
  <fix>3d</fix>
</trkpt>
<trkpt lat="40.0713749" lon="-105.229789">
  <ele>1583.0</ele>
  <time>2026-08-28T17:55:50Z</time>
  <course>247.65</course>
  <speed>0.0316227766016838</speed>
  <fix>3d</fix>
</trkpt>
<trkpt lat="40.0713749" lon="-105.229789">
  <ele>1583.0</ele>
  <time>2026-08-28T17:55:50Z</time>
  <course>0.0</course>
  <speed>0.0</speed>
  <fix>3d</fix>
</trkpt>
<trkpt lat="40.0713749" lon="-105.229789">
  <ele>1583.0</ele>
  <time>2026-08-28T17:55:50Z</time>
  <course>247.64</course>
  <speed>0.0316227766016838</speed>
  <fix>3d</fix>
</trkpt>
<trkpt lat="40.0713749" lon="-105.229789">
  <ele>1583.0</ele>
  <time>2026-08-28T17:55:50Z</time>
  <course>0.0</course>
  <speed>0.0</speed>
  <fix>3d</fix>
</trkpt>
<trkpt lat="40.0713749" lon="-105.229789">
  <ele>1583.0</ele>
  <time>2026-08-28T17:55:50Z</time>
  <course>247.64</course>
  <speed>0.0316227766016838</speed>
  <fix>3d</fix>
</trkpt>
<trkpt lat="40.0713749" lon="-105.229789">
  <ele>1583.0</ele>
  <time>2026-08-28T17:55:50Z</time>
  <course>0.0</course>
  <speed>0.0</speed>
  <fix>3d</fix>
</trkpt>
<trkpt lat="40.0713749" lon="-105.229789">
  <ele>1583.0</ele>
  <time>2026-08-28T17:55:50Z</time>
  <course>247.64</course>
  <speed>0.0316227766016838</speed>
  <fix>3d</fix>
</trkpt>
<trkpt lat="40.0713749" lon="-105.229789">
  <ele>1583.0</ele>
  <time>2026-08-28T17:55:50Z</time>
  <course>0.0</course>
  <speed>0.0</speed>
  <fix>3d</fix>
</trkpt>
<trkpt lat="40.0713749" lon="-105.229789">
  <ele>1583.0</ele>
  <time>2026-08-28T17:55:50Z</time>
  <course>247.64</course>
  <speed>0.0316227766016838</speed>
  <fix>3d</fix>
</trkpt>
<trkpt lat="40.0713749" lon="-105.229789">
  <ele>1583.0</ele>
  <time>2026-08-28T17:55:50Z</time>
  <course>0.0</course>
  <speed>0.0</speed>
  <fix>3d</fix>
</trkpt>
<trkpt lat="40.0713749" lon="-105.229789">
  <ele>1583.0</ele>
  <time>2026-08-28T17:55:50Z</time>
  <course>247.63</course>
  <speed>0.0316227766016838</speed>
  <fix>3d</fix>
</trkpt>
<trkpt lat="40.0713749" lon="-105.229789">
  <ele>1583.0</ele>
  <time>2026-08-28T17:55:50Z</time>
  <course>0.0</course>
  <speed>0.0</speed>
  <fix>3d</fix>
</trkpt>
<trkpt lat="40.0713749" lon="-105.229789">
  <ele>1583.0</ele>
  <time>2026-08-28T17:55:50Z</time>
  <course>247.63</course>
  <speed>0.0316227766016838</speed>
  <fix>3d</fix>
</trkpt>
<trkpt lat="40.0713749" lon="-105.229789">
  <ele>1583.0</ele>
  <time>2026-08-28T17:55:50Z</time>
  <course>0.0</course>
  <speed>0.0</speed>
  <fix>3d</fix>
</trkpt>
<trkpt lat="40.0713749" lon="-105.229789">
  <ele>1583.0</ele>
  <time>2026-08-28T17:55:50Z</time>
  <course>247.63</course>
  <speed>0.0316227766016838</speed>
  <fix>3d</fix>
</trkpt>
<trkpt lat="40.0713749" lon="-105.229789">
  <ele>1583.0</ele>
  <time>2026-08-28T17:55:50Z</time>
  <course>0.0</course>
  <speed>0.0</speed>
  <fix>3d</fix>
</trkpt>
<trkpt lat="40.0713749" lon="-105.229789">
  <ele>1583.0</ele>
  <time>2026-08-28T17:55:50Z</time>
  <course>247.62</course>
  <speed>0.0316227766016838</speed>
  <fix>3d</fix>
</trkpt>
<trkpt lat="40.0713749" lon="-105.229789">
  <ele>1583.0</ele>
  <time>2026-08-28T17:55:50Z</time>
  <course>0.0</course>
  <speed>0.0</speed>
  <fix>3d</fix>
</trkpt>
<trkpt lat="40.0713749" lon="-105.229789">
  <ele>1583.0</ele>
  <time>2026-08-28T17:55:50Z</time>
  <course>247.62</course>
  <speed>0.0316227766016838</speed>
  <fix>3d</fix>
</trkpt>
<trkpt lat="40.0713749" lon="-105.229789">
  <ele>1583.0</ele>
  <time>2026-08-28T17:55:50Z</time>
  <course>0.0</course>
  <speed>0.0</speed>
  <fix>3d</fix>
</trkpt>
<trkpt lat="40.0713749" lon="-105.229789">
  <ele>1583.0</ele>
  <time>2026-08-28T17:55:50Z</time>
  <course>247.62</course>
  <speed>0.0316227766016838</speed>
  <fix>3d</fix>
</trkpt>
<trkpt lat="40.0713749" lon="-105.229789">
  <ele>1583.0</ele>
  <time>2026-08-28T17:55:50Z</time>
  <course>0.0</course>
  <speed>0.0</speed>
  <fix>3d</fix>
</trkpt>
<trkpt lat="40.0713749" lon="-105.229789">
  <ele>1583.0</ele>
  <time>2026-08-28T17:55:50Z</time>
  <course>247.62</course>
  <speed>0.0316227766016838</speed>
  <fix>3d</fix>
</trkpt>
<trkpt lat="40.0713749" lon="-105.229789">
  <ele>1583.0</ele>
  <time>2026-08-28T17:55:50Z</time>
  <course>0.0</course>
  <speed>0.0</speed>
  <fix>3d</fix>
</trkpt>
<trkpt lat="40.0713749" lon="-105.229789">
  <ele>1583.0</ele>
  <time>2026-08-28T17:55:50Z</time>
  <course>247.61</course>
  <speed>0.0316227766016838</speed>
  <fix>3d</fix>
</trkpt>
<trkpt lat="40.0713749" lon="-105.229789">
  <ele>1583.0</ele>
  <time>2026-08-28T17:55:50Z</time>
  <course>0.0</course>
  <speed>0.0</speed>
  <fix>3d</fix>
</trkpt>
<trkpt lat="40.0713749" lon="-105.229789">
  <ele>1583.0</ele>
  <time>2026-08-28T17:55:50Z</time>
  <course>247.61</course>
  <speed>0.0316227766016838</speed>
  <fix>3d</fix>
</trkpt>
<trkpt lat="40.0713749" lon="-105.229789">
  <ele>1583.0</ele>
  <time>2026-08-28T17:55:50Z</time>
  <course>0.0</course>
  <speed>0.0</speed>
  <fix>3d</fix>
</trkpt>
<trkpt lat="40.0713749" lon="-105.229789">
  <ele>1583.0</ele>
  <time>2026-08-28T17:55:50Z</time>
  <course>247.61</course>
  <speed>0.0316227766016838</speed>
  <fix>3d</fix>
</trkpt>
<trkpt lat="40.0713749" lon="-105.229789">
  <ele>1583.0</ele>
  <time>2026-08-28T17:55:50Z</time>
  <course>0.0</course>
  <speed>0.0</speed>
  <fix>3d</fix>
</trkpt>
<trkpt lat="40.0713749" lon="-105.229789">
  <ele>1583.0</ele>
  <time>2026-08-28T17:55:50Z</time>
  <course>247.6</course>
  <speed>0.0316227766016838</speed>
  <fix>3d</fix>
</trkpt>
<trkpt lat="40.0713749" lon="-105.229789">
  <ele>1583.0</ele>
  <time>2026-08-28T17:55:50Z</time>
  <course>0.0</course>
  <speed>0.0</speed>
  <fix>3d</fix>
</trkpt>
<trkpt lat="40.0713749" lon="-105.229789">
  <ele>1583.0</ele>
  <time>2026-08-28T17:55:50Z</time>
  <course>247.6</course>
  <speed>0.0316227766016838</speed>
  <fix>3d</fix>
</trkpt>
<trkpt lat="40.0713749" lon="-105.229789">
  <ele>1583.0</ele>
  <time>2026-08-28T17:55:50Z</time>
  <course>0.0</course>
  <speed>0.0</speed>
  <fix>3d</fix>
</trkpt>
<trkpt lat="40.0713749" lon="-105.229789">
  <ele>1583.0</ele>
  <time>2026-08-28T17:55:50Z</time>
  <course>247.6</course>
  <speed>0.0316227766016838</speed>
  <fix>3d</fix>
</trkpt>
<trkpt lat="40.0713749" lon="-105.229789">
  <ele>1583.0</ele>
  <time>2026-08-28T17:55:50Z</time>
  <course>0.0</course>
  <speed>0.0</speed>
  <fix>3d</fix>
</trkpt>
<trkpt lat="40.0713749" lon="-105.229789">
  <ele>1583.0</ele>
  <time>2026-08-28T17:55:50Z</time>
  <course>247.6</course>
  <speed>0.0316227766016838</speed>
  <fix>3d</fix>
</trkpt>
<trkpt lat="40.0713749" lon="-105.229789">
  <ele>1583.0</ele>
  <time>2026-08-28T17:55:50Z</time>
  <course>0.0</course>
  <speed>0.0</speed>
  <fix>3d</fix>
</trkpt>
<trkpt lat="40.0713749" lon="-105.229789">
  <ele>1583.0</ele>
  <time>2026-08-28T17:55:50Z</time>
  <course>247.59</course>
  <speed>0.0316227766016838</speed>
  <fix>3d</fix>
</trkpt>
<trkpt lat="40.0713749" lon="-105.229789">
  <ele>1583.0</ele>
  <time>2026-08-28T17:55:50Z</time>
  <course>0.0</course>
  <speed>0.0</speed>
  <fix>3d</fix>
</trkpt>
<trkpt lat="40.0713749" lon="-105.229789">
  <ele>1582.92</ele>
  <time>2026-08-28T17:55:50Z</time>
  <course>247.59</course>
  <speed>0.0</speed>
  <fix>3d</fix>
</trkpt>
<trkpt lat="40.0713749" lon="-105.229789">
  <ele>1583.0</ele>
  <time>2026-08-28T17:55:50Z</time>
  <course>0.0</course>
  <speed>0.0</speed>
  <fix>3d</fix>
</trkpt>
<trkpt lat="40.0713749" lon="-105.229789">
  <ele>1582.92</ele>
  <time>2026-08-28T17:55:50Z</time>
  <course>247.59</course>
  <speed>0.0</speed>
  <fix>3d</fix>
</trkpt>
<trkpt lat="40.0713749" lon="-105.229789">
  <ele>1583.0</ele>
  <time>2026-08-28T17:55:50Z</time>
  <course>0.0</course>
  <speed>0.0</speed>
  <fix>3d</fix>
</trkpt>
<trkpt lat="40.0713749" lon="-105.229789">
  <ele>1582.91</ele>
  <time>2026-08-28T17:55:50Z</time>
  <course>247.58</course>
  <speed>0.0</speed>
  <fix>3d</fix>
</trkpt>
<trkpt lat="40.0713749" lon="-105.229789">
  <ele>1583.0</ele>
  <time>2026-08-28T17:55:50Z</time>
  <course>0.0</course>
  <speed>0.0</speed>
  <fix>3d</fix>
</trkpt>
<trkpt lat="40.0713749" lon="-105.229789">
  <ele>1582.91</ele>
  <time>2026-08-28T17:55:50Z</time>
  <course>247.58</course>
  <speed>0.0</speed>
  <fix>3d</fix>
</trkpt>
<trkpt lat="40.0713749" lon="-105.229789">
  <ele>1583.0</ele>
  <time>2026-08-28T17:55:50Z</time>
  <course>0.0</course>
  <speed>0.0</speed>
  <fix>3d</fix>
</trkpt>
<trkpt lat="40.0713749" lon="-105.229789">
  <ele>1582.9</ele>
  <time>2026-08-28T17:55:50Z</time>
  <course>247.58</course>
  <speed>0.0</speed>
  <fix>3d</fix>
</trkpt>
<trkpt lat="40.0713749" lon="-105.229789">
  <ele>1583.0</ele>
  <time>2026-08-28T17:55:50Z</time>
  <course>0.0</course>
  <speed>0.0</speed>
  <fix>3d</fix>
</trkpt>
<trkpt lat="40.0713749" lon="-105.229789">
  <ele>1582.9</ele>
  <time>2026-08-28T17:55:50Z</time>
  <course>247.58</course>
  <speed>0.0</speed>
  <fix>3d</fix>
</trkpt>
<trkpt lat="40.0713749" lon="-105.229789">
  <ele>1583.0</ele>
  <time>2026-08-28T17:55:50Z</time>
  <course>0.0</course>
  <speed>0.0</speed>
  <fix>3d</fix>
</trkpt>
<trkpt lat="40.0713749" lon="-105.229789">
  <ele>1582.9</ele>
  <time>2026-08-28T17:55:50Z</time>
  <course>247.57</course>
  <speed>0.0</speed>
  <fix>3d</fix>
</trkpt>
<trkpt lat="40.0713749" lon="-105.229789">
  <ele>1583.0</ele>
  <time>2026-08-28T17:55:50Z</time>
  <course>0.0</course>
  <speed>0.0</speed>
  <fix>3d</fix>
</trkpt>
<trkpt lat="40.0713749" lon="-105.229789">
  <ele>1582.9</ele>
  <time>2026-08-28T17:55:50Z</time>
  <course>247.57</course>
  <speed>0.0</speed>
  <fix>3d</fix>
</trkpt>
<trkpt lat="40.0713749" lon="-105.229789">
  <ele>1583.0</ele>
  <time>2026-08-28T17:55:50Z</time>
  <course>0.0</course>
  <speed>0.0</speed>
  <fix>3d</fix>
</trkpt>
<trkpt lat="40.0713749" lon="-105.229789">
  <ele>1582.9</ele>
  <time>2026-08-28T17:55:50Z</time>
  <course>247.57</course>
  <speed>0.0</speed>
  <fix>3d</fix>
</trkpt>
<trkpt lat="40.0713749" lon="-105.229789">
  <ele>1583.0</ele>
  <time>2026-08-28T17:55:50Z</time>
  <course>0.0</course>
  <speed>0.0</speed>
  <fix>3d</fix>
</trkpt>
<trkpt lat="40.0713749" lon="-105.229789">
  <ele>1582.9</ele>
  <time>2026-08-28T17:55:50Z</time>
  <course>247.57</course>
  <speed>0.01</speed>
  <fix>3d</fix>
</trkpt>
<trkpt lat="40.0713749" lon="-105.229789">
  <ele>1583.0</ele>
  <time>2026-08-28T17:55:50Z</time>
  <course>0.0</course>
  <speed>0.0</speed>
  <fix>3d</fix>
</trkpt>
<trkpt lat="40.0713749" lon="-105.229789">
  <ele>1582.9</ele>
  <time>2026-08-28T17:55:50Z</time>
  <course>247.56</course>
  <speed>0.01</speed>
  <fix>3d</fix>
</trkpt>
<trkpt lat="40.0713749" lon="-105.229789">
  <ele>1583.0</ele>
  <time>2026-08-28T17:55:50Z</time>
  <course>0.0</course>
  <speed>0.0</speed>
  <fix>3d</fix>
</trkpt>
<trkpt lat="40.0713749" lon="-105.229789">
  <ele>1582.91</ele>
  <time>2026-08-28T17:55:50Z</time>
  <course>247.56</course>
  <speed>0.01</speed>
  <fix>3d</fix>
</trkpt>
<trkpt lat="40.0713749" lon="-105.229789">
  <ele>1583.0</ele>
  <time>2026-08-28T17:55:50Z</time>
  <course>0.0</course>
  <speed>0.0</speed>
  <fix>3d</fix>
</trkpt>
<trkpt lat="40.0713749" lon="-105.229789">
  <ele>1582.91</ele>
  <time>2026-08-28T17:55:50Z</time>
  <course>247.56</course>
  <speed>0.01</speed>
  <fix>3d</fix>
</trkpt>
<trkpt lat="40.0713749" lon="-105.229789">
  <ele>1583.0</ele>
  <time>2026-08-28T17:55:50Z</time>
  <course>0.0</course>
  <speed>0.0</speed>
  <fix>3d</fix>
</trkpt>
<trkpt lat="40.0713749" lon="-105.229789">
  <ele>1582.92</ele>
  <time>2026-08-28T17:55:50Z</time>
  <course>247.56</course>
  <speed>0.01</speed>
  <fix>3d</fix>
</trkpt>
<trkpt lat="40.0713749" lon="-105.229789">
  <ele>1583.0</ele>
  <time>2026-08-28T17:55:50Z</time>
  <course>0.0</course>
  <speed>0.0</speed>
  <fix>3d</fix>
</trkpt>
<trkpt lat="40.0713749" lon="-105.229789">
  <ele>1582.92</ele>
  <time>2026-08-28T17:55:50Z</time>
  <course>247.55</course>
  <speed>0.01</speed>
  <fix>3d</fix>
</trkpt>
<trkpt lat="40.0713749" lon="-105.229789">
  <ele>1583.0</ele>
  <time>2026-08-28T17:55:50Z</time>
  <course>0.0</course>
  <speed>0.0</speed>
  <fix>3d</fix>
</trkpt>
<trkpt lat="40.0713749" lon="-105.229789">
  <ele>1582.92</ele>
  <time>2026-08-28T17:55:50Z</time>
  <course>247.55</course>
  <speed>0.01</speed>
  <fix>3d</fix>
</trkpt>
<trkpt lat="40.0713749" lon="-105.229789">
  <ele>1583.0</ele>
  <time>2026-08-28T17:55:50Z</time>
  <course>0.0</course>
  <speed>0.0</speed>
  <fix>3d</fix>
</trkpt>
<trkpt lat="40.0713749" lon="-105.229789">
  <ele>1582.93</ele>
  <time>2026-08-28T17:55:50Z</time>
  <course>247.54</course>
  <speed>0.01</speed>
  <fix>3d</fix>
</trkpt>
<trkpt lat="40.0713749" lon="-105.229789">
  <ele>1583.0</ele>
  <time>2026-08-28T17:55:50Z</time>
  <course>245.99</course>
  <speed>0.0</speed>
  <fix>3d</fix>
</trkpt>
<trkpt lat="40.0713749" lon="-105.229789">
  <ele>1582.93</ele>
  <time>2026-08-28T17:55:50Z</time>
  <course>247.52</course>
  <speed>0.01</speed>
  <fix>3d</fix>
</trkpt>
<trkpt lat="40.0713749" lon="-105.229789">
  <ele>1583.0</ele>
  <time>2026-08-28T17:55:50Z</time>
  <course>245.99</course>
  <speed>0.0</speed>
  <fix>3d</fix>
</trkpt>
<trkpt lat="40.0713749" lon="-105.229789">
  <ele>1582.93</ele>
  <time>2026-08-28T17:55:50Z</time>
  <course>247.58</course>
  <speed>0.01</speed>
  <fix>3d</fix>
</trkpt>
<trkpt lat="40.0713749" lon="-105.229789">
  <ele>1583.0</ele>
  <time>2026-08-28T17:55:50Z</time>
  <course>245.97</course>
  <speed>0.0</speed>
  <fix>3d</fix>
</trkpt>
<trkpt lat="40.0713749" lon="-105.229789">
  <ele>1582.93</ele>
  <time>2026-08-28T17:55:50Z</time>
  <course>247.71</course>
  <speed>0.03</speed>
  <fix>3d</fix>
</trkpt>
<trkpt lat="40.0713749" lon="-105.229789">
  <ele>1583.0</ele>
  <time>2026-08-28T17:55:50Z</time>
  <course>245.97</course>
  <speed>0.0</speed>
  <fix>3d</fix>
</trkpt>
<trkpt lat="40.0713749" lon="-105.2297891">
  <ele>1582.94</ele>
  <time>2026-08-28T17:55:50Z</time>
  <course>247.97</course>
  <speed>0.06</speed>
  <fix>3d</fix>
</trkpt>
<trkpt lat="40.0713749" lon="-105.229789">
  <ele>1583.0</ele>
  <time>2026-08-28T17:55:50Z</time>
  <course>246.12</course>
  <speed>0.03</speed>
  <fix>3d</fix>
</trkpt>
<trkpt lat="40.0713749" lon="-105.2297892">
  <ele>1582.94</ele>
  <time>2026-08-28T17:55:50Z</time>
  <course>248.4</course>
  <speed>0.09055385138137417</speed>
  <fix>3d</fix>
</trkpt>
<trkpt lat="40.0713749" lon="-105.2297891">
  <ele>1583.0</ele>
  <time>2026-08-28T17:55:50Z</time>
  <course>246.64</course>
  <speed>0.07</speed>
  <fix>3d</fix>
</trkpt>
<trkpt lat="40.0713749" lon="-105.2297893">
  <ele>1582.94</ele>
  <time>2026-08-28T17:55:50Z</time>
  <course>249.06</course>
  <speed>0.12369316876852982</speed>
  <fix>3d</fix>
</trkpt>
<trkpt lat="40.0713749" lon="-105.2297891">
  <ele>1583.0</ele>
  <time>2026-08-28T17:55:50Z</time>
  <course>246.64</course>
  <speed>0.07</speed>
  <fix>3d</fix>
</trkpt>
<trkpt lat="40.0713749" lon="-105.2297895">
  <ele>1582.95</ele>
  <time>2026-08-28T17:55:50Z</time>
  <course>250.0</course>
  <speed>0.1649242250247064</speed>
  <fix>3d</fix>
</trkpt>
<trkpt lat="40.0713749" lon="-105.2297893">
  <ele>1583.0</ele>
  <time>2026-08-28T17:55:50Z</time>
  <course>247.88</course>
  <speed>0.14</speed>
  <fix>3d</fix>
</trkpt>
<trkpt lat="40.0713748" lon="-105.2297897">
  <ele>1582.95</ele>
  <time>2026-08-28T17:55:50Z</time>
  <course>251.27</course>
  <speed>0.215870331449229</speed>
  <fix>3d</fix>
</trkpt>
<trkpt lat="40.0713749" lon="-105.2297893">
  <ele>1583.0</ele>
  <time>2026-08-28T17:55:50Z</time>
  <course>247.88</course>
  <speed>0.14</speed>
  <fix>3d</fix>
</trkpt>
<trkpt lat="40.0713747" lon="-105.22979">
  <ele>1582.95</ele>
  <time>2026-08-28T17:55:50Z</time>
  <course>252.88</course>
  <speed>0.2668332812825267</speed>
  <fix>3d</fix>
</trkpt>
<trkpt lat="40.0713748" lon="-105.2297897">
  <ele>1583.0</ele>
  <time>2026-08-28T17:55:50Z</time>
  <course>250.21</course>
  <speed>0.23</speed>
  <fix>3d</fix>
</trkpt>
<trkpt lat="40.0713747" lon="-105.2297904">
  <ele>1582.96</ele>
  <time>2026-08-28T17:55:50Z</time>
  <course>254.81</course>
  <speed>0.31575306807693887</speed>
  <fix>3d</fix>
</trkpt>
<trkpt lat="40.0713748" lon="-105.2297897">
  <ele>1583.0</ele>
  <time>2026-08-28T17:55:50Z</time>
  <course>250.21</course>
  <speed>0.23</speed>
  <fix>3d</fix>
</trkpt>
<trkpt lat="40.0713746" lon="-105.2297908">
  <ele>1582.96</ele>
  <time>2026-08-28T17:55:50Z</time>
  <course>257.05</course>
  <speed>0.37483329627982626</speed>
  <fix>3d</fix>
</trkpt>
<trkpt lat="40.0713746" lon="-105.2297903">
  <ele>1583.0</ele>
  <time>2026-08-28T17:55:50Z</time>
  <course>253.79</course>
  <speed>0.32</speed>
  <fix>3d</fix>
</trkpt>
<trkpt lat="40.0713745" lon="-105.2297913">
  <ele>1582.96</ele>
  <time>2026-08-28T17:55:50Z</time>
  <course>259.65</course>
  <speed>0.4242640687119285</speed>
  <fix>3d</fix>
</trkpt>
<trkpt lat="40.0713746" lon="-105.2297903">
  <ele>1583.0</ele>
  <time>2026-08-28T17:55:50Z</time>
  <course>253.79</course>
  <speed>0.32</speed>
  <fix>3d</fix>
</trkpt>
<trkpt lat="40.0713744" lon="-105.2297918">
  <ele>1582.96</ele>
  <time>2026-08-28T17:55:50Z</time>
  <course>262.56</course>
  <speed>0.48166378315169184</speed>
  <fix>3d</fix>
</trkpt>
<trkpt lat="40.0713745" lon="-105.2297912">
  <ele>1583.0</ele>
  <time>2026-08-28T17:55:50Z</time>
  <course>258.64</course>
  <speed>0.43</speed>
  <fix>3d</fix>
</trkpt>
<trkpt lat="40.0713744" lon="-105.2297924">
  <ele>1582.96</ele>
  <time>2026-08-28T17:55:50Z</time>
  <course>265.79</course>
  <speed>0.5303772242470448</speed>
  <fix>3d</fix>
</trkpt>
<trkpt lat="40.0713745" lon="-105.2297912">
  <ele>1583.0</ele>
  <time>2026-08-28T17:55:50Z</time>
  <course>258.64</course>
  <speed>0.43</speed>
  <fix>3d</fix>
</trkpt>
<trkpt lat="40.0713744" lon="-105.2297931">
  <ele>1582.96</ele>
  <time>2026-08-28T17:55:50Z</time>
  <course>269.34</course>
  <speed>0.59</speed>
  <fix>3d</fix>
</trkpt>
<trkpt lat="40.0713743" lon="-105.2297924">
  <ele>1583.0</ele>
  <time>2026-08-28T17:55:50Z</time>
  <course>264.77</course>
  <speed>0.53</speed>
  <fix>3d</fix>
</trkpt>
<trkpt lat="40.0713744" lon="-105.2297939">
  <ele>1582.95</ele>
  <time>2026-08-28T17:55:50Z</time>
  <course>273.18</course>
  <speed>0.6319810123729984</speed>
  <fix>3d</fix>
</trkpt>
<trkpt lat="40.0713743" lon="-105.2297924">
  <ele>1583.0</ele>
  <time>2026-08-28T17:55:50Z</time>
  <course>264.77</course>
  <speed>0.53</speed>
  <fix>3d</fix>
</trkpt>
<trkpt lat="40.0713745" lon="-105.2297947">
  <ele>1582.95</ele>
  <time>2026-08-28T17:55:50Z</time>
  <course>277.31</course>
  <speed>0.677421582177598</speed>
  <fix>3d</fix>
</trkpt>
<trkpt lat="40.0713742" lon="-105.2297937">
  <ele>1583.0</ele>
  <time>2026-08-28T17:55:50Z</time>
  <course>272.14</course>
  <speed>0.62</speed>
  <fix>3d</fix>
</trkpt>
<trkpt lat="40.0713746" lon="-105.2297955">
  <ele>1582.95</ele>
  <time>2026-08-28T17:55:50Z</time>
  <course>281.71</course>
  <speed>0.7278049189171505</speed>
  <fix>3d</fix>
</trkpt>
<trkpt lat="40.0713742" lon="-105.2297937">
  <ele>1583.0</ele>
  <time>2026-08-28T17:55:50Z</time>
  <course>272.14</course>
  <speed>0.62</speed>
  <fix>3d</fix>
</trkpt>
<trkpt lat="40.0713746" lon="-105.2297964">
  <ele>1582.95</ele>
  <time>2026-08-28T17:55:50Z</time>
  <course>286.35</course>
  <speed>0.7624303246854758</speed>
  <fix>3d</fix>
</trkpt>
<trkpt lat="40.0713742" lon="-105.2297937">
  <ele>1583.0</ele>
  <time>2026-08-28T17:55:50Z</time>
  <course>272.14</course>
  <speed>0.62</speed>
  <fix>3d</fix>
</trkpt>
<trkpt lat="40.0713748" lon="-105.2297972">
  <ele>1582.95</ele>
  <time>2026-08-28T17:55:50Z</time>
  <course>291.22</course>
  <speed>0.7947955712005447</speed>
  <fix>3d</fix>
</trkpt>
<trkpt lat="40.0713743" lon="-105.2297953">
  <ele>1583.0</ele>
  <time>2026-08-28T17:55:50Z</time>
  <course>280.64</course>
  <speed>0.7</speed>
  <fix>3d</fix>
</trkpt>
<trkpt lat="40.0713751" lon="-105.2297981">
  <ele>1582.95</ele>
  <time>2026-08-28T17:55:50Z</time>
  <course>296.29</course>
  <speed>0.8273451516749222</speed>
  <fix>3d</fix>
</trkpt>
<trkpt lat="40.0713743" lon="-105.2297953">
  <ele>1583.0</ele>
  <time>2026-08-28T17:55:50Z</time>
  <course>280.64</course>
  <speed>0.7</speed>
  <fix>3d</fix>
</trkpt>
<trkpt lat="40.0713755" lon="-105.2297989">
  <ele>1582.95</ele>
  <time>2026-08-28T17:55:50Z</time>
  <course>301.55</course>
  <speed>0.8575546629807339</speed>
  <fix>3d</fix>
</trkpt>
<trkpt lat="40.0713747" lon="-105.2297969">
  <ele>1583.0</ele>
  <time>2026-08-28T17:55:50Z</time>
  <course>290.13</course>
  <speed>0.77</speed>
  <fix>3d</fix>
</trkpt>
<trkpt lat="40.0713759" lon="-105.2297998">
  <ele>1582.95</ele>
  <time>2026-08-28T17:55:50Z</time>
  <course>306.99</course>
  <speed>0.8780091115700337</speed>
  <fix>3d</fix>
</trkpt>
<trkpt lat="40.0713747" lon="-105.2297969">
  <ele>1583.0</ele>
  <time>2026-08-28T17:55:50Z</time>
  <course>290.13</course>
  <speed>0.77</speed>
  <fix>3d</fix>
</trkpt>
<trkpt lat="40.0713764" lon="-105.2298006">
  <ele>1582.95</ele>
  <time>2026-08-28T17:55:50Z</time>
  <course>312.59</course>
  <speed>0.9128526715741155</speed>
  <fix>3d</fix>
</trkpt>
<trkpt lat="40.0713753" lon="-105.2297987">
  <ele>1583.0</ele>
  <time>2026-08-28T17:55:50Z</time>
  <course>300.44</course>
  <speed>0.83</speed>
  <fix>3d</fix>
</trkpt>
<trkpt lat="40.071377" lon="-105.2298013">
  <ele>1582.95</ele>
  <time>2026-08-28T17:55:50Z</time>
  <course>318.36</course>
  <speed>0.9350935782048768</speed>
  <fix>3d</fix>
</trkpt>
<trkpt lat="40.0713753" lon="-105.2297987">
  <ele>1583.0</ele>
  <time>2026-08-28T17:55:50Z</time>
  <course>300.44</course>
  <speed>0.83</speed>
  <fix>3d</fix>
</trkpt>
<trkpt lat="40.0713776" lon="-105.229802">
  <ele>1582.95</ele>
  <time>2026-08-28T17:55:50Z</time>
  <course>324.34</course>
  <speed>0.9602083107326242</speed>
  <fix>3d</fix>
</trkpt>
<trkpt lat="40.0713762" lon="-105.2298003">
  <ele>1583.0</ele>
  <time>2026-08-28T17:55:50Z</time>
  <course>311.48</course>
  <speed>0.89</speed>
  <fix>3d</fix>
</trkpt>
<trkpt lat="40.0713784" lon="-105.2298026">
  <ele>1582.95</ele>
  <time>2026-08-28T17:55:50Z</time>
  <course>330.33</course>
  <speed>0.9897979591815695</speed>
  <fix>3d</fix>
</trkpt>
<trkpt lat="40.0713774" lon="-105.2298017">
  <ele>1583.0</ele>
  <time>2026-08-28T17:55:50Z</time>
  <course>323.15</course>
  <speed>0.94</speed>
  <fix>3d</fix>
</trkpt>
<trkpt lat="40.0713791" lon="-105.2298031">
  <ele>1582.96</ele>
  <time>2026-08-28T17:55:50Z</time>
  <course>335.84</course>
  <speed>1.016366075781753</speed>
  <fix>3d</fix>
</trkpt>
<trkpt lat="40.0713774" lon="-105.2298017">
  <ele>1583.0</ele>
  <time>2026-08-28T17:55:50Z</time>
  <course>323.15</course>
  <speed>0.94</speed>
  <fix>3d</fix>
</trkpt>
<trkpt lat="40.07138" lon="-105.2298035">
  <ele>1582.96</ele>
  <time>2026-08-28T17:55:50Z</time>
  <course>340.6</course>
  <speed>1.050047617967871</speed>
  <fix>3d</fix>
</trkpt>
<trkpt lat="40.0713789" lon="-105.2298029">
  <ele>1583.0</ele>
  <time>2026-08-28T17:55:50Z</time>
  <course>334.27</course>
  <speed>1.0</speed>
  <fix>3d</fix>
</trkpt>
<trkpt lat="40.0713809" lon="-105.2298039">
  <ele>1582.97</ele>
  <time>2026-08-28T17:55:50Z</time>
  <course>344.65</course>
  <speed>1.0893117092916977</speed>
  <fix>3d</fix>
</trkpt>
<trkpt lat="40.0713789" lon="-105.2298029">
  <ele>1583.0</ele>
  <time>2026-08-28T17:55:50Z</time>
  <course>334.27</course>
  <speed>1.0</speed>
  <fix>3d</fix>
</trkpt>
<trkpt lat="40.0713819" lon="-105.2298042">
  <ele>1582.97</ele>
  <time>2026-08-28T17:55:50Z</time>
  <course>348.04</course>
  <speed>1.1335784048754634</speed>
  <fix>3d</fix>
</trkpt>
<trkpt lat="40.0713806" lon="-105.2298038">
  <ele>1583.0</ele>
  <time>2026-08-28T17:55:50Z</time>
  <course>343.12</course>
  <speed>1.07</speed>
  <fix>3d</fix>
</trkpt>
<trkpt lat="40.0713829" lon="-105.2298044">
  <ele>1582.98</ele>
  <time>2026-08-28T17:55:50Z</time>
  <course>350.87</course>
  <speed>1.1738824472663352</speed>
  <fix>3d</fix>
</trkpt>
<trkpt lat="40.0713806" lon="-105.2298038">
  <ele>1583.0</ele>
  <time>2026-08-28T17:55:50Z</time>
  <course>343.12</course>
  <speed>1.07</speed>
  <fix>3d</fix>
</trkpt>
<trkpt lat="40.071384" lon="-105.2298046">
  <ele>1582.98</ele>
  <time>2026-08-28T17:55:50Z</time>
  <course>353.25</course>
  <speed>1.2280065146407002</speed>
  <fix>3d</fix>
</trkpt>
<trkpt lat="40.0713825" lon="-105.2298044">
  <ele>1583.0</ele>
  <time>2026-08-28T17:55:50Z</time>
  <course>349.41</course>
  <speed>1.15</speed>
  <fix>3d</fix>
</trkpt>
<trkpt lat="40.0713851" lon="-105.2298048">
  <ele>1582.98</ele>
  <time>2026-08-28T17:55:50Z</time>
  <course>355.2</course>
  <speed>1.2747548783981961</speed>
  <fix>3d</fix>
</trkpt>
<trkpt lat="40.0713825" lon="-105.2298044">
  <ele>1583.0</ele>
  <time>2026-08-28T17:55:50Z</time>
  <course>349.41</course>
  <speed>1.15</speed>
  <fix>3d</fix>
</trkpt>
<trkpt lat="40.0713863" lon="-105.2298049">
  <ele>1582.98</ele>
  <time>2026-08-28T17:55:50Z</time>
  <course>356.83</course>
  <speed>1.3318408313308314</speed>
  <fix>3d</fix>
</trkpt>
<trkpt lat="40.0713847" lon="-105.2298048">
  <ele>1583.0</ele>
  <time>2026-08-28T17:55:50Z</time>
  <course>353.77</course>
  <speed>1.25</speed>
  <fix>3d</fix>
</trkpt>
<trkpt lat="40.0713875" lon="-105.229805">
  <ele>1582.98</ele>
  <time>2026-08-28T17:55:50Z</time>
  <course>358.19</course>
  <speed>1.4005713120009278</speed>
  <fix>3d</fix>
</trkpt>
<trkpt lat="40.0713847" lon="-105.2298048">
  <ele>1583.0</ele>
  <time>2026-08-28T17:55:50Z</time>
  <course>353.77</course>
  <speed>1.25</speed>
  <fix>3d</fix>
</trkpt>
<trkpt lat="40.0713888" lon="-105.229805">
  <ele>1582.97</ele>
  <time>2026-08-28T17:55:50Z</time>
  <course>359.31</course>
  <speed>1.4701360481261592</speed>
  <fix>3d</fix>
</trkpt>
<trkpt lat="40.071387" lon="-105.229805">
  <ele>1583.0</ele>
  <time>2026-08-28T17:55:50Z</time>
  <course>356.79</course>
  <speed>1.37</speed>
  <fix>3d</fix>
</trkpt>
<trkpt lat="40.0713901" lon="-105.229805">
  <ele>1582.97</ele>
  <time>2026-08-28T17:55:50Z</time>
  <course>0.24</course>
  <speed>1.54</speed>
  <fix>3d</fix>
</trkpt>
<trkpt lat="40.071387" lon="-105.229805">
  <ele>1583.0</ele>
  <time>2026-08-28T17:55:50Z</time>
  <course>356.79</course>
  <speed>1.37</speed>
  <fix>3d</fix>
</trkpt>
<trkpt lat="40.0713915" lon="-105.229805">
  <ele>1582.97</ele>
  <time>2026-08-28T17:55:50Z</time>
  <course>1.03</course>
  <speed>1.6101242188104619</speed>
  <fix>3d</fix>
</trkpt>
<trkpt lat="40.0713896" lon="-105.2298052">
  <ele>1583.0</ele>
  <time>2026-08-28T17:55:50Z</time>
  <course>358.88</course>
  <speed>1.5</speed>
  <fix>3d</fix>
</trkpt>
<trkpt lat="40.071393" lon="-105.229805">
  <ele>1582.97</ele>
  <time>2026-08-28T17:55:50Z</time>
  <course>1.68</course>
  <speed>1.690266251216062</speed>
  <fix>3d</fix>
</trkpt>
<trkpt lat="40.0713896" lon="-105.2298052">
  <ele>1583.0</ele>
  <time>2026-08-28T17:55:50Z</time>
  <course>358.88</course>
  <speed>1.5</speed>
  <fix>3d</fix>
</trkpt>
<trkpt lat="40.0713946" lon="-105.229805">
  <ele>1582.98</ele>
  <time>2026-08-28T17:55:50Z</time>
  <course>2.21</course>
  <speed>1.770706073858674</speed>
  <fix>3d</fix>
</trkpt>
<trkpt lat="40.0713896" lon="-105.2298052">
  <ele>1583.0</ele>
  <time>2026-08-28T17:55:50Z</time>
  <course>358.88</course>
  <speed>1.5</speed>
  <fix>3d</fix>
</trkpt>
<trkpt lat="40.0713962" lon="-105.2298049">
  <ele>1582.98</ele>
  <time>2026-08-28T17:55:50Z</time>
  <course>2.64</course>
  <speed>1.8613167382259261</speed>
  <fix>3d</fix>
</trkpt>
<trkpt lat="40.0713925" lon="-105.2298052">
  <ele>1583.0</ele>
  <time>2026-08-28T17:55:50Z</time>
  <course>0.33</course>
  <speed>1.65</speed>
  <fix>3d</fix>
</trkpt>
<trkpt lat="40.0713979" lon="-105.2298049">
  <ele>1582.98</ele>
  <time>2026-08-28T17:55:50Z</time>
  <course>3.0</course>
  <speed>1.951640335717624</speed>
  <fix>3d</fix>
</trkpt>
<trkpt lat="40.0713925" lon="-105.2298052">
  <ele>1583.0</ele>
  <time>2026-08-28T17:55:50Z</time>
  <course>0.33</course>
  <speed>1.65</speed>
  <fix>3d</fix>
</trkpt>
<trkpt lat="40.0713996" lon="-105.2298049">
  <ele>1582.98</ele>
  <time>2026-08-28T17:55:50Z</time>
  <course>3.3</course>
  <speed>2.0419843290289963</speed>
  <fix>3d</fix>
</trkpt>
<trkpt lat="40.0713956" lon="-105.2298051">
  <ele>1583.0</ele>
  <time>2026-08-28T17:55:50Z</time>
  <course>1.31</course>
  <speed>1.81</speed>
  <fix>3d</fix>
</trkpt>
<trkpt lat="40.0714015" lon="-105.2298048">
  <ele>1582.98</ele>
  <time>2026-08-28T17:55:50Z</time>
  <course>3.53</course>
  <speed>2.1323461257497573</speed>
  <fix>3d</fix>
</trkpt>
<trkpt lat="40.0713956" lon="-105.2298051">
  <ele>1583.0</ele>
  <time>2026-08-28T17:55:50Z</time>
  <course>1.31</course>
  <speed>1.81</speed>
  <fix>3d</fix>
</trkpt>
<trkpt lat="40.0714034" lon="-105.2298046">
  <ele>1582.98</ele>
  <time>2026-08-28T17:55:50Z</time>
  <course>3.72</course>
  <speed>2.2327113561766105</speed>
  <fix>3d</fix>
</trkpt>
<trkpt lat="40.0713991" lon="-105.229805">
  <ele>1583.0</ele>
  <time>2026-08-28T17:55:50Z</time>
  <course>1.97</course>
  <speed>1.99</speed>
  <fix>3d</fix>
</trkpt>
<trkpt lat="40.0714054" lon="-105.2298045">
  <ele>1582.97</ele>
  <time>2026-08-28T17:55:50Z</time>
  <course>3.87</course>
  <speed>2.3330880823492284</speed>
  <fix>3d</fix>
</trkpt>
<trkpt lat="40.0714028" lon="-105.2298049">
  <ele>1583.0</ele>
  <time>2026-08-28T17:55:50Z</time>
  <course>2.4</course>
  <speed>2.19</speed>
  <fix>3d</fix>
</trkpt>
<trkpt lat="40.0714076" lon="-105.2298044">
  <ele>1582.97</ele>
  <time>2026-08-28T17:55:50Z</time>
  <course>3.98</course>
  <speed>2.443460660620506</speed>
  <fix>3d</fix>
</trkpt>
<trkpt lat="40.0714028" lon="-105.2298049">
  <ele>1583.0</ele>
  <time>2026-08-28T17:55:50Z</time>
  <course>2.4</course>
  <speed>2.19</speed>
  <fix>3d</fix>
</trkpt>
<trkpt lat="40.0714098" lon="-105.2298043">
  <ele>1582.97</ele>
  <time>2026-08-28T17:55:50Z</time>
  <course>4.06</course>
  <speed>2.543855341799136</speed>
  <fix>3d</fix>
</trkpt>
<trkpt lat="40.0714069" lon="-105.2298047">
  <ele>1583.0</ele>
  <time>2026-08-28T17:55:50Z</time>
  <course>2.67</course>
  <speed>2.39</speed>
  <fix>3d</fix>
</trkpt>
<trkpt lat="40.0714121" lon="-105.2298041">
  <ele>1582.98</ele>
  <time>2026-08-28T17:55:50Z</time>
  <course>4.13</course>
  <speed>2.6542418879973995</speed>
  <fix>3d</fix>
</trkpt>
<trkpt lat="40.0714069" lon="-105.2298047">
  <ele>1583.0</ele>
  <time>2026-08-28T17:55:50Z</time>
  <course>2.67</course>
  <speed>2.39</speed>
  <fix>3d</fix>
</trkpt>
<trkpt lat="40.0714146" lon="-105.229804">
  <ele>1582.98</ele>
  <time>2026-08-28T17:55:50Z</time>
  <course>4.16</course>
  <speed>2.7646337913003958</speed>
  <fix>3d</fix>
</trkpt>
<trkpt lat="40.0714114" lon="-105.2298044">
  <ele>1583.0</ele>
  <time>2026-08-28T17:55:50Z</time>
  <course>2.82</course>
  <speed>2.6</speed>
  <fix>3d</fix>
</trkpt>
<trkpt lat="40.0714171" lon="-105.2298038">
  <ele>1582.98</ele>
  <time>2026-08-28T17:55:50Z</time>
  <course>4.18</course>
  <speed>2.874456470360962</speed>
  <fix>3d</fix>
</trkpt>
<trkpt lat="40.0714114" lon="-105.2298044">
  <ele>1583.0</ele>
  <time>2026-08-28T17:55:50Z</time>
  <course>2.82</course>
  <speed>2.6</speed>
  <fix>3d</fix>
</trkpt>
<trkpt lat="40.0714197" lon="-105.2298036">
  <ele>1582.99</ele>
  <time>2026-08-28T17:55:50Z</time>
  <course>4.18</course>
  <speed>2.984845054605012</speed>
  <fix>3d</fix>
</trkpt>
<trkpt lat="40.0714162" lon="-105.2298041">
  <ele>1583.0</ele>
  <time>2026-08-28T17:55:50Z</time>
  <course>2.88</course>
  <speed>2.82</speed>
  <fix>3d</fix>
</trkpt>
<trkpt lat="40.0714225" lon="-105.2298035">
  <ele>1582.99</ele>
  <time>2026-08-28T17:55:50Z</time>
  <course>4.17</course>
  <speed>3.084687990705057</speed>
  <fix>3d</fix>
</trkpt>
<trkpt lat="40.0714162" lon="-105.2298041">
  <ele>1583.0</ele>
  <time>2026-08-28T17:55:50Z</time>
  <course>2.88</course>
  <speed>2.82</speed>
  <fix>3d</fix>
</trkpt>
<trkpt lat="40.0714253" lon="-105.2298033">
  <ele>1582.99</ele>
  <time>2026-08-28T17:55:50Z</time>
  <course>4.17</course>
  <speed>3.195074334033561</speed>
  <fix>3d</fix>
</trkpt>
<trkpt lat="40.0714215" lon="-105.2298038">
  <ele>1583.0</ele>
  <time>2026-08-28T17:55:50Z</time>
  <course>2.9</course>
  <speed>3.03</speed>
  <fix>3d</fix>
</trkpt>
<trkpt lat="40.0714282" lon="-105.2298031">
  <ele>1582.99</ele>
  <time>2026-08-28T17:55:50Z</time>
  <course>4.16</course>
  <speed>3.3049054449408986</speed>
  <fix>3d</fix>
</trkpt>
<trkpt lat="40.0714215" lon="-105.2298038">
  <ele>1583.0</ele>
  <time>2026-08-28T17:55:50Z</time>
  <course>2.9</course>
  <speed>3.03</speed>
  <fix>3d</fix>
</trkpt>
<trkpt lat="40.0714312" lon="-105.2298029">
  <ele>1582.99</ele>
  <time>2026-08-28T17:55:50Z</time>
  <course>4.16</course>
  <speed>3.41528915320504</speed>
  <fix>3d</fix>
</trkpt>
<trkpt lat="40.0714272" lon="-105.2298034">
  <ele>1583.0</ele>
  <time>2026-08-28T17:55:50Z</time>
  <course>2.9</course>
  <speed>3.24</speed>
  <fix>3d</fix>
</trkpt>
<trkpt lat="40.0714343" lon="-105.2298027">
  <ele>1583.0</ele>
  <time>2026-08-28T17:55:50Z</time>
  <course>4.15</course>
  <speed>3.5151386885868385</speed>
  <fix>3d</fix>
</trkpt>
<trkpt lat="40.0714272" lon="-105.2298034">
  <ele>1583.0</ele>
  <time>2026-08-28T17:55:50Z</time>
  <course>2.9</course>
  <speed>3.24</speed>
  <fix>3d</fix>
</trkpt>
<trkpt lat="40.0714376" lon="-105.2298025">
  <ele>1583.0</ele>
  <time>2026-08-28T17:55:50Z</time>
  <course>4.12</course>
  <speed>3.624982758579687</speed>
  <fix>3d</fix>
</trkpt>
<trkpt lat="40.0714332" lon="-105.229803">
  <ele>1583.0</ele>
  <time>2026-08-28T17:55:50Z</time>
  <course>2.88</course>
  <speed>3.45</speed>
  <fix>3d</fix>
</trkpt>
<trkpt lat="40.0714408" lon="-105.2298023">
  <ele>1583.0</ele>
  <time>2026-08-28T17:55:50Z</time>
  <course>4.09</course>
  <speed>3.7253724646000164</speed>
  <fix>3d</fix>
</trkpt>
<trkpt lat="40.0714332" lon="-105.229803">
  <ele>1583.0</ele>
  <time>2026-08-28T17:55:50Z</time>
  <course>2.88</course>
  <speed>3.45</speed>
  <fix>3d</fix>
</trkpt>
<trkpt lat="40.0714442" lon="-105.2298021">
  <ele>1583.0</ele>
  <time>2026-08-28T17:55:50Z</time>
  <course>4.03</course>
  <speed>3.83521837709406</speed>
  <fix>3d</fix>
</trkpt>
<trkpt lat="40.0714332" lon="-105.229803">
  <ele>1583.0</ele>
  <time>2026-08-28T17:55:50Z</time>
  <course>2.88</course>
  <speed>3.45</speed>
  <fix>3d</fix>
</trkpt>
<trkpt lat="40.0714477" lon="-105.2298019">
  <ele>1583.0</ele>
  <time>2026-08-28T17:55:50Z</time>
  <course>3.97</course>
  <speed>3.935085767807355</speed>
  <fix>3d</fix>
</trkpt>
<trkpt lat="40.0714396" lon="-105.2298026">
  <ele>1583.0</ele>
  <time>2026-08-28T17:55:50Z</time>
  <course>2.83</course>
  <speed>3.66</speed>
  <fix>3d</fix>
</trkpt>
<trkpt lat="40.0714512" lon="-105.2298017">
  <ele>1583.0</ele>
  <time>2026-08-28T17:55:50Z</time>
  <course>3.92</course>
  <speed>4.0349597271843995</speed>
  <fix>3d</fix>
</trkpt>
<trkpt lat="40.0714396" lon="-105.2298026">
  <ele>1583.0</ele>
  <time>2026-08-28T17:55:50Z</time>
  <course>2.83</course>
  <speed>3.66</speed>
  <fix>3d</fix>
</trkpt>
<trkpt lat="40.0714548" lon="-105.2298015">
  <ele>1583.0</ele>
  <time>2026-08-28T17:55:50Z</time>
  <course>3.85</course>
  <speed>4.124851512478965</speed>
  <fix>3d</fix>
</trkpt>
<trkpt lat="40.0714463" lon="-105.2298021">
  <ele>1583.0</ele>
  <time>2026-08-28T17:55:50Z</time>
  <course>2.73</course>
  <speed>3.87</speed>
  <fix>3d</fix>
</trkpt>
<trkpt lat="40.0714585" lon="-105.2298013">
  <ele>1583.0</ele>
  <time>2026-08-28T17:55:50Z</time>
  <course>3.79</course>
  <speed>4.224736678184808</speed>
  <fix>3d</fix>
</trkpt>
<trkpt lat="40.0714463" lon="-105.2298021">
  <ele>1583.0</ele>
  <time>2026-08-28T17:55:50Z</time>
  <course>2.73</course>
  <speed>3.87</speed>
  <fix>3d</fix>
</trkpt>
<trkpt lat="40.0714623" lon="-105.2298011">
  <ele>1583.0</ele>
  <time>2026-08-28T17:55:50Z</time>
  <course>3.73</course>
  <speed>4.324627151558849</speed>
  <fix>3d</fix>
</trkpt>
<trkpt lat="40.0714534" lon="-105.2298017">
  <ele>1583.0</ele>
  <time>2026-08-28T17:55:50Z</time>
  <course>2.63</course>
  <speed>4.07</speed>
  <fix>3d</fix>
</trkpt>
<trkpt lat="40.0714661" lon="-105.2298009">
  <ele>1583.0</ele>
  <time>2026-08-28T17:55:50Z</time>
  <course>3.66</course>
  <speed>4.424522573114527</speed>
  <fix>3d</fix>
</trkpt>
<trkpt lat="40.0714534" lon="-105.2298017">
  <ele>1583.0</ele>
  <time>2026-08-28T17:55:50Z</time>
  <course>2.63</course>
  <speed>4.07</speed>
  <fix>3d</fix>
</trkpt>
<trkpt lat="40.0714701" lon="-105.2298007">
  <ele>1583.0</ele>
  <time>2026-08-28T17:55:50Z</time>
  <course>3.6</course>
  <speed>4.52442261509687</speed>
  <fix>3d</fix>
</trkpt>
<trkpt lat="40.071461" lon="-105.2298012">
  <ele>1583.0</ele>
  <time>2026-08-28T17:55:50Z</time>
  <course>2.51</course>
  <speed>4.28</speed>
  <fix>3d</fix>
</trkpt>
<trkpt lat="40.0714742" lon="-105.2298004">
  <ele>1583.0</ele>
  <time>2026-08-28T17:55:50Z</time>
  <course>3.54</course>
  <speed>4.624326978058537</speed>
  <fix>3d</fix>
</trkpt>
<trkpt lat="40.0714688" lon="-105.2298008">
  <ele>1583.0</ele>
  <time>2026-08-28T17:55:50Z</time>
  <course>2.4</course>
  <speed>4.48</speed>
  <fix>3d</fix>
</trkpt>
<trkpt lat="40.0714784" lon="-105.2298002">
  <ele>1583.0</ele>
  <time>2026-08-28T17:55:50Z</time>
  <course>3.51</course>
  <speed>4.72423538786966</speed>
  <fix>3d</fix>
</trkpt>
<trkpt lat="40.0714688" lon="-105.2298008">
  <ele>1583.0</ele>
  <time>2026-08-28T17:55:50Z</time>
  <course>2.4</course>
  <speed>4.48</speed>
  <fix>3d</fix>
</trkpt>
<trkpt lat="40.0714826" lon="-105.2298">
  <ele>1583.0</ele>
  <time>2026-08-28T17:55:50Z</time>
  <course>3.49</course>
  <speed>4.814156208516712</speed>
  <fix>3d</fix>
</trkpt>
<trkpt lat="40.071477" lon="-105.2298003">
  <ele>1583.0</ele>
  <time>2026-08-28T17:55:50Z</time>
  <course>2.32</course>
  <speed>4.68</speed>
  <fix>3d</fix>
</trkpt>
<trkpt lat="40.071487" lon="-105.2297998">
  <ele>1583.0</ele>
  <time>2026-08-28T17:55:50Z</time>
  <course>3.49</course>
  <speed>4.914071631549544</speed>
  <fix>3d</fix>
</trkpt>
<trkpt lat="40.071477" lon="-105.2298003">
  <ele>1583.0</ele>
  <time>2026-08-28T17:55:50Z</time>
  <course>2.32</course>
  <speed>4.68</speed>
  <fix>3d</fix>
</trkpt>
<trkpt lat="40.0714914" lon="-105.2297995">
  <ele>1583.0</ele>
  <time>2026-08-28T17:55:50Z</time>
  <course>3.49</course>
  <speed>4.994416882880323</speed>
  <fix>3d</fix>
</trkpt>
<trkpt lat="40.0714856" lon="-105.2297999">
  <ele>1583.0</ele>
  <time>2026-08-28T17:55:50Z</time>
  <course>2.3</course>
  <speed>4.87</speed>
  <fix>3d</fix>
</trkpt>
<trkpt lat="40.071496" lon="-105.2297993">
  <ele>1583.0</ele>
  <time>2026-08-28T17:55:50Z</time>
  <course>3.49</course>
  <speed>5.0743472486616445</speed>
  <fix>3d</fix>
</trkpt>
<trkpt lat="40.0714856" lon="-105.2297999">
  <ele>1583.0</ele>
  <time>2026-08-28T17:55:50Z</time>
  <course>2.3</course>
  <speed>4.87</speed>
  <fix>3d</fix>
</trkpt>
<trkpt lat="40.0715006" lon="-105.2297991">
  <ele>1583.0</ele>
  <time>2026-08-28T17:55:50Z</time>
  <course>3.48</course>
  <speed>5.1442880945763525</speed>
  <fix>3d</fix>
</trkpt>
<trkpt lat="40.0714945" lon="-105.2297994">
  <ele>1583.0</ele>
  <time>2026-08-28T17:55:50Z</time>
  <course>2.3</course>
  <speed>5.03</speed>
  <fix>3d</fix>
</trkpt>
<trkpt lat="40.0715053" lon="-105.2297988">
  <ele>1583.0</ele>
  <time>2026-08-28T17:55:50Z</time>
  <course>3.48</course>
  <speed>5.194246817393259</speed>
  <fix>3d</fix>
</trkpt>
<trkpt lat="40.0714945" lon="-105.2297994">
  <ele>1583.0</ele>
  <time>2026-08-28T17:55:50Z</time>
  <course>2.3</course>
  <speed>5.03</speed>
  <fix>3d</fix>
</trkpt>
<trkpt lat="40.07151" lon="-105.2297986">
  <ele>1583.0</ele>
  <time>2026-08-28T17:55:50Z</time>
  <course>3.48</course>
  <speed>5.244206326986001</speed>
  <fix>3d</fix>
</trkpt>
<trkpt lat="40.0715037" lon="-105.229799">
  <ele>1583.0</ele>
  <time>2026-08-28T17:55:50Z</time>
  <course>2.3</course>
  <speed>5.15</speed>
  <fix>3d</fix>
</trkpt>
<trkpt lat="40.0715147" lon="-105.2297983">
  <ele>1583.0</ele>
  <time>2026-08-28T17:55:50Z</time>
  <course>3.48</course>
  <speed>5.274182401093083</speed>
  <fix>3d</fix>
</trkpt>
<trkpt lat="40.0715037" lon="-105.229799">
  <ele>1583.0</ele>
  <time>2026-08-28T17:55:50Z</time>
  <course>2.3</course>
  <speed>5.15</speed>
  <fix>3d</fix>
</trkpt>
<trkpt lat="40.0715195" lon="-105.2297981">
  <ele>1583.0</ele>
  <time>2026-08-28T17:55:50Z</time>
  <course>3.48</course>
  <speed>5.294166601080853</speed>
  <fix>3d</fix>
</trkpt>
<trkpt lat="40.0715131" lon="-105.2297985">
  <ele>1583.0</ele>
  <time>2026-08-28T17:55:50Z</time>
  <course>2.3</course>
  <speed>5.23</speed>
  <fix>3d</fix>
</trkpt>
<trkpt lat="40.0715242" lon="-105.2297978">
  <ele>1583.0</ele>
  <time>2026-08-28T17:55:50Z</time>
  <course>3.47</course>
  <speed>5.304158745739045</speed>
  <fix>3d</fix>
</trkpt>
<trkpt lat="40.0715131" lon="-105.2297985">
  <ele>1583.0</ele>
  <time>2026-08-28T17:55:50Z</time>
  <course>2.3</course>
  <speed>5.23</speed>
  <fix>3d</fix>
</trkpt>
<trkpt lat="40.071529" lon="-105.2297976">
  <ele>1583.0</ele>
  <time>2026-08-28T17:55:50Z</time>
  <course>3.47</course>
  <speed>5.304158745739045</speed>
  <fix>3d</fix>
</trkpt>
<trkpt lat="40.0715225" lon="-105.229798">
  <ele>1583.0</ele>
  <time>2026-08-28T17:55:50Z</time>
  <course>2.3</course>
  <speed>5.26</speed>
  <fix>3d</fix>
</trkpt>
<trkpt lat="40.0715338" lon="-105.2297974">
  <ele>1583.0</ele>
  <time>2026-08-28T17:55:50Z</time>
  <course>3.45</course>
  <speed>5.294166601080853</speed>
  <fix>3d</fix>
</trkpt>
<trkpt lat="40.0715225" lon="-105.229798">
  <ele>1583.0</ele>
  <time>2026-08-28T17:55:50Z</time>
  <course>2.3</course>
  <speed>5.26</speed>
  <fix>3d</fix>
</trkpt>
<trkpt lat="40.0715385" lon="-105.2297971">
  <ele>1583.01</ele>
  <time>2026-08-28T17:55:50Z</time>
  <course>3.42</course>
  <speed>5.273793700932944</speed>
  <fix>3d</fix>
</trkpt>
<trkpt lat="40.0715225" lon="-105.229798">
  <ele>1583.0</ele>
  <time>2026-08-28T17:55:50Z</time>
  <course>2.3</course>
  <speed>5.26</speed>
  <fix>3d</fix>
</trkpt>
<trkpt lat="40.0715432" lon="-105.2297969">
  <ele>1583.01</ele>
  <time>2026-08-28T17:55:50Z</time>
  <course>3.37</course>
  <speed>5.253808142671371</speed>
  <fix>3d</fix>
</trkpt>
<trkpt lat="40.0715319" lon="-105.2297975">
  <ele>1583.0</ele>
  <time>2026-08-28T17:55:50Z</time>
  <course>2.28</course>
  <speed>5.25</speed>
  <fix>3d</fix>
</trkpt>
<trkpt lat="40.0715478" lon="-105.2297967">
  <ele>1583.01</ele>
  <time>2026-08-28T17:55:50Z</time>
  <course>3.34</course>
  <speed>5.223456709880919</speed>
  <fix>3d</fix>
</trkpt>
<trkpt lat="40.0715319" lon="-105.2297975">
  <ele>1583.0</ele>
  <time>2026-08-28T17:55:50Z</time>
  <course>2.28</course>
  <speed>5.25</speed>
  <fix>3d</fix>
</trkpt>
<trkpt lat="40.0715524" lon="-105.2297965">
  <ele>1583.01</ele>
  <time>2026-08-28T17:55:50Z</time>
  <course>3.3</course>
  <speed>5.183483384751995</speed>
  <fix>3d</fix>
</trkpt>
<trkpt lat="40.0715413" lon="-105.229797">
  <ele>1583.0</ele>
  <time>2026-08-28T17:55:50Z</time>
  <course>2.22</course>
  <speed>5.21</speed>
  <fix>3d</fix>
</trkpt>
<trkpt lat="40.071557" lon="-105.2297963">
  <ele>1583.01</ele>
  <time>2026-08-28T17:55:50Z</time>
  <course>3.27</course>
  <speed>5.15314467097519</speed>
  <fix>3d</fix>
</trkpt>
<trkpt lat="40.0715413" lon="-105.229797">
  <ele>1583.0</ele>
  <time>2026-08-28T17:55:50Z</time>
  <course>2.22</course>
  <speed>5.21</speed>
  <fix>3d</fix>
</trkpt>
<trkpt lat="40.0715615" lon="-105.229796">
  <ele>1583.01</ele>
  <time>2026-08-28T17:55:50Z</time>
  <course>3.21</course>
  <speed>5.112827006656885</speed>
  <fix>3d</fix>
</trkpt>
<trkpt lat="40.0715506" lon="-105.2297965">
  <ele>1583.0</ele>
  <time>2026-08-28T17:55:50Z</time>
  <course>2.15</course>
  <speed>5.16</speed>
  <fix>3d</fix>
</trkpt>
<trkpt lat="40.0715661" lon="-105.2297958">
  <ele>1583.01</ele>
  <time>2026-08-28T17:55:50Z</time>
  <course>3.16</course>
  <speed>5.072849297978405</speed>
  <fix>3d</fix>
</trkpt>
<trkpt lat="40.0715598" lon="-105.229796">
  <ele>1583.0</ele>
  <time>2026-08-28T17:55:50Z</time>
  <course>2.08</course>
  <speed>5.1</speed>
  <fix>3d</fix>
</trkpt>
<trkpt lat="40.0715706" lon="-105.2297956">
  <ele>1583.02</ele>
  <time>2026-08-28T17:55:50Z</time>
  <course>3.13</course>
  <speed>5.042539042982216</speed>
  <fix>3d</fix>
</trkpt>
<trkpt lat="40.0715598" lon="-105.229796">
  <ele>1583.0</ele>
  <time>2026-08-28T17:55:50Z</time>
  <course>2.08</course>
  <speed>5.1</speed>
  <fix>3d</fix>
</trkpt>
<trkpt lat="40.071575" lon="-105.2297954">
  <ele>1583.02</ele>
  <time>2026-08-28T17:55:50Z</time>
  <course>3.07</course>
  <speed>5.0125542391080415</speed>
  <fix>3d</fix>
</trkpt>
<trkpt lat="40.0715689" lon="-105.2297957">
  <ele>1583.0</ele>
  <time>2026-08-28T17:55:50Z</time>
  <course>1.99</course>
  <speed>5.04</speed>
  <fix>3d</fix>
</trkpt>
<trkpt lat="40.0715795" lon="-105.2297953">
  <ele>1583.02</ele>
  <time>2026-08-28T17:55:50Z</time>
  <course>3.03</course>
  <speed>4.982258524002945</speed>
  <fix>3d</fix>
</trkpt>
<trkpt lat="40.0715689" lon="-105.2297957">
  <ele>1583.0</ele>
  <time>2026-08-28T17:55:50Z</time>
  <course>1.99</course>
  <speed>5.04</speed>
  <fix>3d</fix>
</trkpt>
<trkpt lat="40.0715839" lon="-105.2297951">
  <ele>1583.02</ele>
  <time>2026-08-28T17:55:50Z</time>
  <course>3.01</course>
  <speed>4.9522722057657536</speed>
  <fix>3d</fix>
</trkpt>
<trkpt lat="40.071578" lon="-105.2297952">
  <ele>1583.0</ele>
  <time>2026-08-28T17:55:50Z</time>
  <course>1.91</course>
  <speed>4.98</speed>
  <fix>3d</fix>
</trkpt>
<trkpt lat="40.0715884" lon="-105.2297949">
  <ele>1583.02</ele>
  <time>2026-08-28T17:55:50Z</time>
  <course>2.94</course>
  <speed>4.921991466875983</speed>
  <fix>3d</fix>
</trkpt>
<trkpt lat="40.071578" lon="-105.2297952">
  <ele>1583.0</ele>
  <time>2026-08-28T17:55:50Z</time>
  <course>1.91</course>
  <speed>4.98</speed>
  <fix>3d</fix>
</trkpt>
<trkpt lat="40.0715928" lon="-105.2297947">
  <ele>1583.02</ele>
  <time>2026-08-28T17:55:50Z</time>
  <course>2.91</course>
  <speed>4.901999592003247</speed>
  <fix>3d</fix>
</trkpt>
<trkpt lat="40.0715869" lon="-105.2297949">
  <ele>1583.0</ele>
  <time>2026-08-28T17:55:50Z</time>
  <course>1.83</course>
  <speed>4.93</speed>
  <fix>3d</fix>
</trkpt>
<trkpt lat="40.0715972" lon="-105.2297946">
  <ele>1583.02</ele>
  <time>2026-08-28T17:55:50Z</time>
  <course>2.87</course>
  <speed>4.881731250284063</speed>
  <fix>3d</fix>
</trkpt>
<trkpt lat="40.0715869" lon="-105.2297949">
  <ele>1583.0</ele>
  <time>2026-08-28T17:55:50Z</time>
  <course>1.83</course>
  <speed>4.93</speed>
  <fix>3d</fix>
</trkpt>
<trkpt lat="40.0716016" lon="-105.2297944">
  <ele>1583.02</ele>
  <time>2026-08-28T17:55:50Z</time>
  <course>2.82</course>
  <speed>4.871734803948179</speed>
  <fix>3d</fix>
</trkpt>
<trkpt lat="40.0715957" lon="-105.2297945">
  <ele>1583.0</ele>
  <time>2026-08-28T17:55:50Z</time>
  <course>1.74</course>
  <speed>4.9</speed>
  <fix>3d</fix>
</trkpt>
<trkpt lat="40.071606" lon="-105.2297942">
  <ele>1583.02</ele>
  <time>2026-08-28T17:55:50Z</time>
  <course>2.78</course>
  <speed>4.851484308951231</speed>
  <fix>3d</fix>
</trkpt>
<trkpt lat="40.0715957" lon="-105.2297945">
  <ele>1583.0</ele>
  <time>2026-08-28T17:55:50Z</time>
  <course>1.74</course>
  <speed>4.9</speed>
  <fix>3d</fix>
</trkpt>
<trkpt lat="40.0716104" lon="-105.2297941">
  <ele>1583.02</ele>
  <time>2026-08-28T17:55:50Z</time>
  <course>2.74</course>
  <speed>4.841487374764082</speed>
  <fix>3d</fix>
</trkpt>
<trkpt lat="40.0716045" lon="-105.2297941">
  <ele>1583.0</ele>
  <time>2026-08-28T17:55:50Z</time>
  <course>1.65</course>
  <speed>4.87</speed>
  <fix>3d</fix>
</trkpt>
<trkpt lat="40.0716147" lon="-105.2297939">
  <ele>1583.02</ele>
  <time>2026-08-28T17:55:50Z</time>
  <course>2.71</course>
  <speed>4.841487374764082</speed>
  <fix>3d</fix>
</trkpt>
<trkpt lat="40.0716045" lon="-105.2297941">
  <ele>1583.0</ele>
  <time>2026-08-28T17:55:50Z</time>
  <course>1.65</course>
  <speed>4.87</speed>
  <fix>3d</fix>
</trkpt>
<trkpt lat="40.0716191" lon="-105.2297938">
  <ele>1583.03</ele>
  <time>2026-08-28T17:55:50Z</time>
  <course>2.65</course>
  <speed>4.83125242561388</speed>
  <fix>3d</fix>
</trkpt>
<trkpt lat="40.0716132" lon="-105.2297938">
  <ele>1583.0</ele>
  <time>2026-08-28T17:55:50Z</time>
  <course>1.57</course>
  <speed>4.85</speed>
  <fix>3d</fix>
</trkpt>
<trkpt lat="40.0716235" lon="-105.2297936">
  <ele>1583.03</ele>
  <time>2026-08-28T17:55:50Z</time>
  <course>2.6</course>
  <speed>4.83125242561388</speed>
  <fix>3d</fix>
</trkpt>
<trkpt lat="40.0716132" lon="-105.2297938">
  <ele>1583.0</ele>
  <time>2026-08-28T17:55:50Z</time>
  <course>1.57</course>
  <speed>4.85</speed>
  <fix>3d</fix>
</trkpt>
<trkpt lat="40.0716278" lon="-105.2297935">
  <ele>1583.03</ele>
  <time>2026-08-28T17:55:50Z</time>
  <course>2.56</course>
  <speed>4.821255023331581</speed>
  <fix>3d</fix>
</trkpt>
<trkpt lat="40.0716132" lon="-105.2297938">
  <ele>1583.0</ele>
  <time>2026-08-28T17:55:50Z</time>
  <course>1.57</course>
  <speed>4.85</speed>
  <fix>3d</fix>
</trkpt>
<trkpt lat="40.0716321" lon="-105.2297933">
  <ele>1583.03</ele>
  <time>2026-08-28T17:55:50Z</time>
  <course>2.52</course>
  <speed>4.821037232795449</speed>
  <fix>3d</fix>
</trkpt>
<trkpt lat="40.0716219" lon="-105.2297935">
  <ele>1583.0</ele>
  <time>2026-08-28T17:55:50Z</time>
  <course>1.48</course>
  <speed>4.84</speed>
  <fix>3d</fix>
</trkpt>
<trkpt lat="40.0716364" lon="-105.2297932">
  <ele>1583.03</ele>
  <time>2026-08-28T17:55:50Z</time>
  <course>2.49</course>
  <speed>4.821037232795449</speed>
  <fix>3d</fix>
</trkpt>
<trkpt lat="40.0716219" lon="-105.2297935">
  <ele>1583.0</ele>
  <time>2026-08-28T17:55:50Z</time>
  <course>1.48</course>
  <speed>4.84</speed>
  <fix>3d</fix>
</trkpt>
<trkpt lat="40.0716407" lon="-105.229793">
  <ele>1583.03</ele>
  <time>2026-08-28T17:55:50Z</time>
  <course>2.43</course>
  <speed>4.831035085776132</speed>
  <fix>3d</fix>
</trkpt>
<trkpt lat="40.0716306" lon="-105.2297932">
  <ele>1583.0</ele>
  <time>2026-08-28T17:55:50Z</time>
  <course>1.4</course>
  <speed>4.84</speed>
  <fix>3d</fix>
</trkpt>
<trkpt lat="40.071645" lon="-105.2297929">
  <ele>1583.03</ele>
  <time>2026-08-28T17:55:50Z</time>
  <course>2.4</course>
  <speed>4.831035085776132</speed>
  <fix>3d</fix>
</trkpt>
<trkpt lat="40.0716306" lon="-105.2297932">
  <ele>1583.0</ele>
  <time>2026-08-28T17:55:50Z</time>
  <course>1.4</course>
  <speed>4.84</speed>
  <fix>3d</fix>
</trkpt>
<trkpt lat="40.0716493" lon="-105.2297928">
  <ele>1583.04</ele>
  <time>2026-08-28T17:55:50Z</time>
  <course>2.36</course>
  <speed>4.830838436544944</speed>
  <fix>3d</fix>
</trkpt>
<trkpt lat="40.0716393" lon="-105.229793">
  <ele>1583.0</ele>
  <time>2026-08-28T17:55:50Z</time>
  <course>1.32</course>
  <speed>4.85</speed>
  <fix>3d</fix>
</trkpt>
<trkpt lat="40.0716537" lon="-105.2297927">
  <ele>1583.04</ele>
  <time>2026-08-28T17:55:50Z</time>
  <course>2.3</course>
  <speed>4.84083670453776</speed>
  <fix>3d</fix>
</trkpt>
<trkpt lat="40.0716481" lon="-105.2297927">
  <ele>1583.0</ele>
  <time>2026-08-28T17:55:50Z</time>
  <course>1.23</course>
  <speed>4.87</speed>
  <fix>3d</fix>
</trkpt>
<trkpt lat="40.0716581" lon="-105.2297925">
  <ele>1583.04</ele>
  <time>2026-08-28T17:55:50Z</time>
  <course>2.28</course>
  <speed>4.850834979671026</speed>
  <fix>3d</fix>
</trkpt>
<trkpt lat="40.0716481" lon="-105.2297927">
  <ele>1583.0</ele>
  <time>2026-08-28T17:55:50Z</time>
  <course>1.23</course>
  <speed>4.87</speed>
  <fix>3d</fix>
</trkpt>
<trkpt lat="40.0716624" lon="-105.2297924">
  <ele>1583.05</ele>
  <time>2026-08-28T17:55:50Z</time>
  <course>2.24</course>
  <speed>4.860833261900679</speed>
  <fix>3d</fix>
</trkpt>
<trkpt lat="40.0716568" lon="-105.2297925">
  <ele>1583.0</ele>
  <time>2026-08-28T17:55:50Z</time>
  <course>1.15</course>
  <speed>4.89</speed>
  <fix>3d</fix>
</trkpt>
<trkpt lat="40.0716668" lon="-105.2297923">
  <ele>1583.05</ele>
  <time>2026-08-28T17:55:50Z</time>
  <course>2.2</course>
  <speed>4.870657039866388</speed>
  <fix>3d</fix>
</trkpt>
<trkpt lat="40.0716568" lon="-105.2297925">
  <ele>1583.0</ele>
  <time>2026-08-28T17:55:50Z</time>
  <course>1.15</course>
  <speed>4.89</speed>
  <fix>3d</fix>
</trkpt>
<trkpt lat="40.0716712" lon="-105.2297922">
  <ele>1583.05</ele>
  <time>2026-08-28T17:55:50Z</time>
  <course>2.18</course>
  <speed>4.880655693654286</speed>
  <fix>3d</fix>
</trkpt>
<trkpt lat="40.0716656" lon="-105.2297922">
  <ele>1583.0</ele>
  <time>2026-08-28T17:55:50Z</time>
  <course>1.07</course>
  <speed>4.91</speed>
  <fix>3d</fix>
</trkpt>
<trkpt lat="40.0716757" lon="-105.2297921">
  <ele>1583.05</ele>
  <time>2026-08-28T17:55:50Z</time>
  <course>2.16</course>
  <speed>4.890654352947057</speed>
  <fix>3d</fix>
</trkpt>
<trkpt lat="40.0716656" lon="-105.2297922">
  <ele>1583.0</ele>
  <time>2026-08-28T17:55:50Z</time>
  <course>1.07</course>
  <speed>4.91</speed>
  <fix>3d</fix>
</trkpt>
<trkpt lat="40.0716801" lon="-105.229792">
  <ele>1583.05</ele>
  <time>2026-08-28T17:55:50Z</time>
  <course>2.12</course>
  <speed>4.900653017711007</speed>
  <fix>3d</fix>
</trkpt>
<trkpt lat="40.0716745" lon="-105.2297921">
  <ele>1583.0</ele>
  <time>2026-08-28T17:55:50Z</time>
  <course>1.0</course>
  <speed>4.93</speed>
  <fix>3d</fix>
</trkpt>
<trkpt lat="40.0716846" lon="-105.2297919">
  <ele>1583.06</ele>
  <time>2026-08-28T17:55:50Z</time>
  <course>2.09</course>
  <speed>4.910651687912716</speed>
  <fix>3d</fix>
</trkpt>
<trkpt lat="40.0716745" lon="-105.2297921">
  <ele>1583.0</ele>
  <time>2026-08-28T17:55:50Z</time>
  <course>1.0</course>
  <speed>4.93</speed>
  <fix>3d</fix>
</trkpt>
<trkpt lat="40.0716891" lon="-105.2297918">
  <ele>1583.06</ele>
  <time>2026-08-28T17:55:50Z</time>
  <course>2.05</course>
  <speed>4.920650363519034</speed>
  <fix>3d</fix>
</trkpt>
<trkpt lat="40.0716834" lon="-105.2297919">
  <ele>1583.0</ele>
  <time>2026-08-28T17:55:50Z</time>
  <course>0.93</course>
  <speed>4.95</speed>
  <fix>3d</fix>
</trkpt>
<trkpt lat="40.0716935" lon="-105.2297917">
  <ele>1583.06</ele>
  <time>2026-08-28T17:55:50Z</time>
  <course>2.05</course>
  <speed>4.930496932358847</speed>
  <fix>3d</fix>
</trkpt>
<trkpt lat="40.0716834" lon="-105.2297919">
  <ele>1583.0</ele>
  <time>2026-08-28T17:55:50Z</time>
  <course>0.93</course>
  <speed>4.95</speed>
  <fix>3d</fix>
</trkpt>
<trkpt lat="40.071698" lon="-105.2297916">
  <ele>1583.05</ele>
  <time>2026-08-28T17:55:50Z</time>
  <course>2.03</course>
  <speed>4.940495926523976</speed>
  <fix>3d</fix>
</trkpt>
<trkpt lat="40.0716923" lon="-105.2297916">
  <ele>1583.0</ele>
  <time>2026-08-28T17:55:50Z</time>
  <course>0.87</course>
  <speed>4.97</speed>
  <fix>3d</fix>
</trkpt>
<trkpt lat="40.0717025" lon="-105.2297915">
  <ele>1583.06</ele>
  <time>2026-08-28T17:55:50Z</time>
  <course>1.99</course>
  <speed>4.940495926523976</speed>
  <fix>3d</fix>
</trkpt>
<trkpt lat="40.0716923" lon="-105.2297916">
  <ele>1583.0</ele>
  <time>2026-08-28T17:55:50Z</time>
  <course>0.87</course>
  <speed>4.97</speed>
  <fix>3d</fix>
</trkpt>
<trkpt lat="40.071707" lon="-105.2297914">
  <ele>1583.06</ele>
  <time>2026-08-28T17:55:50Z</time>
  <course>1.97</course>
  <speed>4.950494924752474</speed>
  <fix>3d</fix>
</trkpt>
<trkpt lat="40.0717013" lon="-105.2297915">
  <ele>1583.0</ele>
  <time>2026-08-28T17:55:50Z</time>
  <course>0.81</course>
  <speed>4.98</speed>
  <fix>3d</fix>
</trkpt>
<trkpt lat="40.0717115" lon="-105.2297913">
  <ele>1583.06</ele>
  <time>2026-08-28T17:55:50Z</time>
  <course>1.96</course>
  <speed>4.950494924752474</speed>
  <fix>3d</fix>
</trkpt>
<trkpt lat="40.0717013" lon="-105.2297915">
  <ele>1583.0</ele>
  <time>2026-08-28T17:55:50Z</time>
  <course>0.81</course>
  <speed>4.98</speed>
  <fix>3d</fix>
</trkpt>
<trkpt lat="40.071716" lon="-105.2297912">
  <ele>1583.06</ele>
  <time>2026-08-28T17:55:50Z</time>
  <course>1.93</course>
  <speed>4.950494924752474</speed>
  <fix>3d</fix>
</trkpt>
<trkpt lat="40.0717013" lon="-105.2297915">
  <ele>1583.0</ele>
  <time>2026-08-28T17:55:50Z</time>
  <course>0.81</course>
  <speed>4.98</speed>
  <fix>3d</fix>
</trkpt>
<trkpt lat="40.0717205" lon="-105.2297912">
  <ele>1583.05</ele>
  <time>2026-08-28T17:55:50Z</time>
  <course>1.89</course>
  <speed>4.9503636230079096</speed>
  <fix>3d</fix>
</trkpt>
<trkpt lat="40.0717102" lon="-105.2297914">
  <ele>1583.0</ele>
  <time>2026-08-28T17:55:50Z</time>
  <course>0.75</course>
  <speed>4.99</speed>
  <fix>3d</fix>
</trkpt>
<trkpt lat="40.0717249" lon="-105.2297911">
  <ele>1583.05</ele>
  <time>2026-08-28T17:55:50Z</time>
  <course>1.88</course>
  <speed>4.9503636230079096</speed>
  <fix>3d</fix>
</trkpt>
<trkpt lat="40.0717102" lon="-105.2297914">
  <ele>1583.0</ele>
  <time>2026-08-28T17:55:50Z</time>
  <course>0.75</course>
  <speed>4.99</speed>
  <fix>3d</fix>
</trkpt>
<trkpt lat="40.0717294" lon="-105.229791">
  <ele>1583.05</ele>
  <time>2026-08-28T17:55:50Z</time>
  <course>1.86</course>
  <speed>4.9503636230079096</speed>
  <fix>3d</fix>
</trkpt>
<trkpt lat="40.0717193" lon="-105.2297912">
  <ele>1583.0</ele>
  <time>2026-08-28T17:55:50Z</time>
  <course>0.7</course>
  <speed>4.99</speed>
  <fix>3d</fix>
</trkpt>
<trkpt lat="40.0717338" lon="-105.229791">
  <ele>1583.05</ele>
  <time>2026-08-28T17:55:50Z</time>
  <course>1.82</course>
  <speed>4.9503636230079096</speed>
  <fix>3d</fix>
</trkpt>
<trkpt lat="40.0717193" lon="-105.2297912">
  <ele>1583.0</ele>
  <time>2026-08-28T17:55:50Z</time>
  <course>0.7</course>
  <speed>4.99</speed>
  <fix>3d</fix>
</trkpt>
<trkpt lat="40.0717383" lon="-105.2297909">
  <ele>1583.05</ele>
  <time>2026-08-28T17:55:50Z</time>
  <course>1.82</course>
  <speed>4.9503636230079096</speed>
  <fix>3d</fix>
</trkpt>
<trkpt lat="40.0717282" lon="-105.2297911">
  <ele>1583.0</ele>
  <time>2026-08-28T17:55:50Z</time>
  <course>0.64</course>
  <speed>4.99</speed>
  <fix>3d</fix>
</trkpt>
<trkpt lat="40.0717427" lon="-105.2297908">
  <ele>1583.05</ele>
  <time>2026-08-28T17:55:50Z</time>
  <course>1.79</course>
  <speed>4.95025251881154</speed>
  <fix>3d</fix>
</trkpt>
<trkpt lat="40.0717282" lon="-105.2297911">
  <ele>1583.0</ele>
  <time>2026-08-28T17:55:50Z</time>
  <course>0.64</course>
  <speed>4.99</speed>
  <fix>3d</fix>
</trkpt>
<trkpt lat="40.0717472" lon="-105.2297908">
  <ele>1583.05</ele>
  <time>2026-08-28T17:55:50Z</time>
  <course>1.76</course>
  <speed>4.940253029957069</speed>
  <fix>3d</fix>
</trkpt>
<trkpt lat="40.0717372" lon="-105.2297909">
  <ele>1583.0</ele>
  <time>2026-08-28T17:55:50Z</time>
  <course>0.58</course>
  <speed>4.99</speed>
  <fix>3d</fix>
</trkpt>
<trkpt lat="40.0717516" lon="-105.2297907">
  <ele>1583.05</ele>
  <time>2026-08-28T17:55:50Z</time>
  <course>1.75</course>
  <speed>4.940253029957069</speed>
  <fix>3d</fix>
</trkpt>
<trkpt lat="40.0717461" lon="-105.2297908">
  <ele>1583.0</ele>
  <time>2026-08-28T17:55:50Z</time>
  <course>0.54</course>
  <speed>4.99</speed>
  <fix>3d</fix>
</trkpt>
<trkpt lat="40.0717561" lon="-105.2297907">
  <ele>1583.05</ele>
  <time>2026-08-28T17:55:50Z</time>
  <course>1.73</course>
  <speed>4.940253029957069</speed>
  <fix>3d</fix>
</trkpt>
<trkpt lat="40.0717461" lon="-105.2297908">
  <ele>1583.0</ele>
  <time>2026-08-28T17:55:50Z</time>
  <course>0.54</course>
  <speed>4.99</speed>
  <fix>3d</fix>
</trkpt>
<trkpt lat="40.0717605" lon="-105.2297906">
  <ele>1583.05</ele>
  <time>2026-08-28T17:55:51Z</time>
  <course>1.71</course>
  <speed>4.940253029957069</speed>
  <fix>3d</fix>
</trkpt>
<trkpt lat="40.0717551" lon="-105.2297907">
  <ele>1583.0</ele>
  <time>2026-08-28T17:55:51Z</time>
  <course>0.49</course>
  <speed>4.99</speed>
  <fix>3d</fix>
</trkpt>
<trkpt lat="40.071765" lon="-105.2297905">
  <ele>1583.05</ele>
  <time>2026-08-28T17:55:51Z</time>
  <course>1.7</course>
  <speed>4.95025251881154</speed>
  <fix>3d</fix>
</trkpt>
<trkpt lat="40.0717551" lon="-105.2297907">
  <ele>1583.0</ele>
  <time>2026-08-28T17:55:51Z</time>
  <course>0.49</course>
  <speed>4.99</speed>
  <fix>3d</fix>
</trkpt>
<trkpt lat="40.0717695" lon="-105.2297905">
  <ele>1583.05</ele>
  <time>2026-08-28T17:55:51Z</time>
  <course>1.69</course>
  <speed>4.95025251881154</speed>
  <fix>3d</fix>
</trkpt>
<trkpt lat="40.071764" lon="-105.2297906">
  <ele>1583.0</ele>
  <time>2026-08-28T17:55:51Z</time>
  <course>0.45</course>
  <speed>4.99</speed>
  <fix>3d</fix>
</trkpt>
<trkpt lat="40.0717741" lon="-105.2297904">
  <ele>1583.05</ele>
  <time>2026-08-28T17:55:51Z</time>
  <course>1.67</course>
  <speed>4.95025251881154</speed>
  <fix>3d</fix>
</trkpt>
<trkpt lat="40.071764" lon="-105.2297906">
  <ele>1583.0</ele>
  <time>2026-08-28T17:55:51Z</time>
  <course>0.45</course>
  <speed>4.99</speed>
  <fix>3d</fix>
</trkpt>
<trkpt lat="40.0717786" lon="-105.2297904">
  <ele>1583.04</ele>
  <time>2026-08-28T17:55:51Z</time>
  <course>1.65</course>
  <speed>4.95016161352334</speed>
  <fix>3d</fix>
</trkpt>
<trkpt lat="40.0717731" lon="-105.2297905">
  <ele>1583.0</ele>
  <time>2026-08-28T17:55:51Z</time>
  <course>0.41</course>
  <speed>4.99</speed>
  <fix>3d</fix>
</trkpt>
<trkpt lat="40.0717831" lon="-105.2297904">
  <ele>1583.04</ele>
  <time>2026-08-28T17:55:51Z</time>
  <course>1.66</course>
  <speed>4.95016161352334</speed>
  <fix>3d</fix>
</trkpt>
<trkpt lat="40.0717731" lon="-105.2297905">
  <ele>1583.0</ele>
  <time>2026-08-28T17:55:51Z</time>
  <course>0.41</course>
  <speed>4.99</speed>
  <fix>3d</fix>
</trkpt>
<trkpt lat="40.0717876" lon="-105.2297903">
  <ele>1583.04</ele>
  <time>2026-08-28T17:55:51Z</time>
  <course>1.63</course>
  <speed>4.95016161352334</speed>
  <fix>3d</fix>
</trkpt>
<trkpt lat="40.071782" lon="-105.2297904">
  <ele>1583.0</ele>
  <time>2026-08-28T17:55:51Z</time>
  <course>0.37</course>
  <speed>4.99</speed>
  <fix>3d</fix>
</trkpt>
<trkpt lat="40.0717922" lon="-105.2297903">
  <ele>1583.04</ele>
  <time>2026-08-28T17:55:51Z</time>
  <course>1.61</course>
  <speed>4.95016161352334</speed>
  <fix>3d</fix>
</trkpt>
<trkpt lat="40.071782" lon="-105.2297904">
  <ele>1583.0</ele>
  <time>2026-08-28T17:55:51Z</time>
  <course>0.37</course>
  <speed>4.99</speed>
  <fix>3d</fix>
</trkpt>
<trkpt lat="40.0717967" lon="-105.2297902">
  <ele>1583.04</ele>
  <time>2026-08-28T17:55:51Z</time>
  <course>1.6</course>
  <speed>4.95016161352334</speed>
  <fix>3d</fix>
</trkpt>
<trkpt lat="40.071791" lon="-105.2297904">
  <ele>1583.0</ele>
  <time>2026-08-28T17:55:51Z</time>
  <course>0.34</course>
  <speed>4.99</speed>
  <fix>3d</fix>
</trkpt>
<trkpt lat="40.0718012" lon="-105.2297902">
  <ele>1583.03</ele>
  <time>2026-08-28T17:55:51Z</time>
  <course>1.59</course>
  <speed>4.95016161352334</speed>
  <fix>3d</fix>
</trkpt>
<trkpt lat="40.071791" lon="-105.2297904">
  <ele>1583.0</ele>
  <time>2026-08-28T17:55:51Z</time>
  <course>0.34</course>
  <speed>4.99</speed>
  <fix>3d</fix>
</trkpt>
<trkpt lat="40.0718057" lon="-105.2297902">
  <ele>1583.03</ele>
  <time>2026-08-28T17:55:51Z</time>
  <course>1.57</course>
  <speed>4.95016161352334</speed>
  <fix>3d</fix>
</trkpt>
<trkpt lat="40.0717999" lon="-105.2297903">
  <ele>1583.0</ele>
  <time>2026-08-28T17:55:51Z</time>
  <course>0.3</course>
  <speed>4.98</speed>
  <fix>3d</fix>
</trkpt>
<trkpt lat="40.0718102" lon="-105.2297901">
  <ele>1583.03</ele>
  <time>2026-08-28T17:55:51Z</time>
  <course>1.57</course>
  <speed>4.95016161352334</speed>
  <fix>3d</fix>
</trkpt>
<trkpt lat="40.0717999" lon="-105.2297903">
  <ele>1583.0</ele>
  <time>2026-08-28T17:55:51Z</time>
  <course>0.3</course>
  <speed>4.98</speed>
  <fix>3d</fix>
</trkpt>
<trkpt lat="40.0718147" lon="-105.2297901">
  <ele>1583.03</ele>
  <time>2026-08-28T17:55:51Z</time>
  <course>1.55</course>
  <speed>4.95009090825613</speed>
  <fix>3d</fix>
</trkpt>
<trkpt lat="40.0717999" lon="-105.2297903">
  <ele>1583.0</ele>
  <time>2026-08-28T17:55:51Z</time>
  <course>0.3</course>
  <speed>4.98</speed>
  <fix>3d</fix>
</trkpt>
<trkpt lat="40.0718191" lon="-105.2297901">
  <ele>1583.02</ele>
  <time>2026-08-28T17:55:51Z</time>
  <course>1.55</course>
  <speed>4.94009109227755</speed>
  <fix>3d</fix>
</trkpt>
<trkpt lat="40.071809" lon="-105.2297902">
  <ele>1583.0</ele>
  <time>2026-08-28T17:55:51Z</time>
  <course>0.26</course>
  <speed>4.98</speed>
  <fix>3d</fix>
</trkpt>
<trkpt lat="40.0718236" lon="-105.22979">
  <ele>1583.02</ele>
  <time>2026-08-28T17:55:51Z</time>
  <course>1.53</course>
  <speed>4.94009109227755</speed>
  <fix>3d</fix>
</trkpt>
<trkpt lat="40.071809" lon="-105.2297902">
  <ele>1583.0</ele>
  <time>2026-08-28T17:55:51Z</time>
  <course>0.26</course>
  <speed>4.98</speed>
  <fix>3d</fix>
</trkpt>
<trkpt lat="40.071828" lon="-105.22979">
  <ele>1583.02</ele>
  <time>2026-08-28T17:55:51Z</time>
  <course>1.52</course>
  <speed>4.94009109227755</speed>
  <fix>3d</fix>
</trkpt>
<trkpt lat="40.0718179" lon="-105.2297902">
  <ele>1583.0</ele>
  <time>2026-08-28T17:55:51Z</time>
  <course>0.24</course>
  <speed>4.97</speed>
  <fix>3d</fix>
</trkpt>
<trkpt lat="40.0718324" lon="-105.22979">
  <ele>1583.01</ele>
  <time>2026-08-28T17:55:51Z</time>
  <course>1.51</course>
  <speed>4.930091277045487</speed>
  <fix>3d</fix>
</trkpt>
<trkpt lat="40.0718179" lon="-105.2297902">
  <ele>1583.0</ele>
  <time>2026-08-28T17:55:51Z</time>
  <course>0.24</course>
  <speed>4.97</speed>
  <fix>3d</fix>
</trkpt>
<trkpt lat="40.0718369" lon="-105.22979">
  <ele>1583.01</ele>
  <time>2026-08-28T17:55:51Z</time>
  <course>1.5</course>
  <speed>4.930091277045487</speed>
  <fix>3d</fix>
</trkpt>
<trkpt lat="40.0718269" lon="-105.2297902">
  <ele>1583.0</ele>
  <time>2026-08-28T17:55:51Z</time>
  <course>0.21</course>
  <speed>4.97</speed>
  <fix>3d</fix>
</trkpt>
<trkpt lat="40.0718413" lon="-105.22979">
  <ele>1583.01</ele>
  <time>2026-08-28T17:55:51Z</time>
  <course>1.5</course>
  <speed>4.930091277045487</speed>
  <fix>3d</fix>
</trkpt>
<trkpt lat="40.0718358" lon="-105.2297901">
  <ele>1583.0</ele>
  <time>2026-08-28T17:55:51Z</time>
  <course>0.19</course>
  <speed>4.97</speed>
  <fix>3d</fix>
</trkpt>
<trkpt lat="40.0718458" lon="-105.2297899">
  <ele>1583.01</ele>
  <time>2026-08-28T17:55:51Z</time>
  <course>1.49</course>
  <speed>4.930091277045487</speed>
  <fix>3d</fix>
</trkpt>
<trkpt lat="40.0718358" lon="-105.2297901">
  <ele>1583.0</ele>
  <time>2026-08-28T17:55:51Z</time>
  <course>0.19</course>
  <speed>4.97</speed>
  <fix>3d</fix>
</trkpt>
<trkpt lat="40.0718503" lon="-105.2297899">
  <ele>1583.0</ele>
  <time>2026-08-28T17:55:51Z</time>
  <course>1.48</course>
  <speed>4.930091277045487</speed>
  <fix>3d</fix>
</trkpt>
<trkpt lat="40.0718447" lon="-105.22979">
  <ele>1583.0</ele>
  <time>2026-08-28T17:55:51Z</time>
  <course>0.17</course>
  <speed>4.97</speed>
  <fix>3d</fix>
</trkpt>
<trkpt lat="40.0718547" lon="-105.2297899">
  <ele>1583.0</ele>
  <time>2026-08-28T17:55:51Z</time>
  <course>1.48</course>
  <speed>4.94009109227755</speed>
  <fix>3d</fix>
</trkpt>
<trkpt lat="40.0718447" lon="-105.22979">
  <ele>1583.0</ele>
  <time>2026-08-28T17:55:51Z</time>
  <course>0.17</course>
  <speed>4.97</speed>
  <fix>3d</fix>
</trkpt>
<trkpt lat="40.0718592" lon="-105.2297899">
  <ele>1582.99</ele>
  <time>2026-08-28T17:55:51Z</time>
  <course>1.47</course>
  <speed>4.94009109227755</speed>
  <fix>3d</fix>
</trkpt>
<trkpt lat="40.0718537" lon="-105.22979">
  <ele>1583.0</ele>
  <time>2026-08-28T17:55:51Z</time>
  <course>0.15</course>
  <speed>4.97</speed>
  <fix>3d</fix>
</trkpt>
<trkpt lat="40.0718637" lon="-105.2297899">
  <ele>1582.99</ele>
  <time>2026-08-28T17:55:51Z</time>
  <course>1.45</course>
  <speed>4.94009109227755</speed>
  <fix>3d</fix>
</trkpt>
<trkpt lat="40.0718537" lon="-105.22979">
  <ele>1583.0</ele>
  <time>2026-08-28T17:55:51Z</time>
  <course>0.15</course>
  <speed>4.97</speed>
  <fix>3d</fix>
</trkpt>
<trkpt lat="40.0718682" lon="-105.2297898">
  <ele>1582.99</ele>
  <time>2026-08-28T17:55:51Z</time>
  <course>1.44</course>
  <speed>4.94009109227755</speed>
  <fix>3d</fix>
</trkpt>
<trkpt lat="40.0718626" lon="-105.22979">
  <ele>1583.0</ele>
  <time>2026-08-28T17:55:51Z</time>
  <course>0.13</course>
  <speed>4.97</speed>
  <fix>3d</fix>
</trkpt>
<trkpt lat="40.0718727" lon="-105.2297898">
  <ele>1582.99</ele>
  <time>2026-08-28T17:55:51Z</time>
  <course>1.44</course>
  <speed>4.94009109227755</speed>
  <fix>3d</fix>
</trkpt>
<trkpt lat="40.0718626" lon="-105.22979">
  <ele>1583.0</ele>
  <time>2026-08-28T17:55:51Z</time>
  <course>0.13</course>
  <speed>4.97</speed>
  <fix>3d</fix>
</trkpt>
<trkpt lat="40.0718772" lon="-105.2297898">
  <ele>1583.0</ele>
  <time>2026-08-28T17:55:51Z</time>
  <course>1.43</course>
  <speed>4.94004048566406</speed>
  <fix>3d</fix>
</trkpt>
<trkpt lat="40.0718715" lon="-105.22979">
  <ele>1583.0</ele>
  <time>2026-08-28T17:55:51Z</time>
  <course>0.11</course>
  <speed>4.97</speed>
  <fix>3d</fix>
</trkpt>
<trkpt lat="40.0718817" lon="-105.2297898">
  <ele>1583.0</ele>
  <time>2026-08-28T17:55:51Z</time>
  <course>1.42</course>
  <speed>4.950040403875508</speed>
  <fix>3d</fix>
</trkpt>
<trkpt lat="40.0718715" lon="-105.22979">
  <ele>1583.0</ele>
  <time>2026-08-28T17:55:51Z</time>
  <course>0.11</course>
  <speed>4.97</speed>
  <fix>3d</fix>
</trkpt>
<trkpt lat="40.0718862" lon="-105.2297898">
  <ele>1583.0</ele>
  <time>2026-08-28T17:55:51Z</time>
  <course>1.42</course>
  <speed>4.950040403875508</speed>
  <fix>3d</fix>
</trkpt>
<trkpt lat="40.0718805" lon="-105.22979">
  <ele>1583.0</ele>
  <time>2026-08-28T17:55:51Z</time>
  <course>0.09</course>
  <speed>4.97</speed>
  <fix>3d</fix>
</trkpt>
<trkpt lat="40.0718907" lon="-105.2297898">
  <ele>1583.0</ele>
  <time>2026-08-28T17:55:51Z</time>
  <course>1.41</course>
  <speed>4.950040403875508</speed>
  <fix>3d</fix>
</trkpt>
<trkpt lat="40.0718805" lon="-105.22979">
  <ele>1583.0</ele>
  <time>2026-08-28T17:55:51Z</time>
  <course>0.09</course>
  <speed>4.97</speed>
  <fix>3d</fix>
</trkpt>
<trkpt lat="40.0718952" lon="-105.2297898">
  <ele>1583.0</ele>
  <time>2026-08-28T17:55:51Z</time>
  <course>1.41</course>
  <speed>4.950040403875508</speed>
  <fix>3d</fix>
</trkpt>
<trkpt lat="40.0718894" lon="-105.22979">
  <ele>1583.0</ele>
  <time>2026-08-28T17:55:51Z</time>
  <course>0.08</course>
  <speed>4.97</speed>
  <fix>3d</fix>
</trkpt>
<trkpt lat="40.0718997" lon="-105.2297898">
  <ele>1583.0</ele>
  <time>2026-08-28T17:55:51Z</time>
  <course>1.4</course>
  <speed>4.950040403875508</speed>
  <fix>3d</fix>
</trkpt>
<trkpt lat="40.0718894" lon="-105.22979">
  <ele>1583.0</ele>
  <time>2026-08-28T17:55:51Z</time>
  <course>0.08</course>
  <speed>4.97</speed>
  <fix>3d</fix>
</trkpt>
<trkpt lat="40.0719042" lon="-105.2297898">
  <ele>1583.0</ele>
  <time>2026-08-28T17:55:51Z</time>
  <course>1.4</course>
  <speed>4.950040403875508</speed>
  <fix>3d</fix>
</trkpt>
<trkpt lat="40.0718894" lon="-105.22979">
  <ele>1583.0</ele>
  <time>2026-08-28T17:55:51Z</time>
  <course>0.08</course>
  <speed>4.97</speed>
  <fix>3d</fix>
</trkpt>
<trkpt lat="40.0719086" lon="-105.2297898">
  <ele>1583.0</ele>
  <time>2026-08-28T17:55:51Z</time>
  <course>1.39</course>
  <speed>4.950040403875508</speed>
  <fix>3d</fix>
</trkpt>
<trkpt lat="40.0718983" lon="-105.22979">
  <ele>1583.0</ele>
  <time>2026-08-28T17:55:51Z</time>
  <course>0.07</course>
  <speed>4.97</speed>
  <fix>3d</fix>
</trkpt>
<trkpt lat="40.0719131" lon="-105.2297898">
  <ele>1583.0</ele>
  <time>2026-08-28T17:55:51Z</time>
  <course>1.39</course>
  <speed>4.94004048566406</speed>
  <fix>3d</fix>
</trkpt>
<trkpt lat="40.0718983" lon="-105.22979">
  <ele>1583.0</ele>
  <time>2026-08-28T17:55:51Z</time>
  <course>0.07</course>
  <speed>4.97</speed>
  <fix>3d</fix>
</trkpt>
<trkpt lat="40.0719175" lon="-105.2297898">
  <ele>1583.0</ele>
  <time>2026-08-28T17:55:51Z</time>
  <course>1.39</course>
  <speed>4.94004048566406</speed>
  <fix>3d</fix>
</trkpt>
<trkpt lat="40.0719073" lon="-105.2297899">
  <ele>1583.0</ele>
  <time>2026-08-28T17:55:51Z</time>
  <course>0.05</course>
  <speed>4.97</speed>
  <fix>3d</fix>
</trkpt>
<trkpt lat="40.0719219" lon="-105.2297898">
  <ele>1583.0</ele>
  <time>2026-08-28T17:55:51Z</time>
  <course>1.38</course>
  <speed>4.94004048566406</speed>
  <fix>3d</fix>
</trkpt>
<trkpt lat="40.0719073" lon="-105.2297899">
  <ele>1583.0</ele>
  <time>2026-08-28T17:55:51Z</time>
  <course>0.05</course>
  <speed>4.97</speed>
  <fix>3d</fix>
</trkpt>
<trkpt lat="40.0719263" lon="-105.2297898">
  <ele>1583.0</ele>
  <time>2026-08-28T17:55:51Z</time>
  <course>1.38</course>
  <speed>4.94004048566406</speed>
  <fix>3d</fix>
</trkpt>
<trkpt lat="40.0719163" lon="-105.2297899">
  <ele>1583.0</ele>
  <time>2026-08-28T17:55:51Z</time>
  <course>0.04</course>
  <speed>4.97</speed>
  <fix>3d</fix>
</trkpt>
<trkpt lat="40.0719308" lon="-105.2297897">
  <ele>1583.0</ele>
  <time>2026-08-28T17:55:51Z</time>
  <course>1.37</course>
  <speed>4.94004048566406</speed>
  <fix>3d</fix>
</trkpt>
<trkpt lat="40.0719163" lon="-105.2297899">
  <ele>1583.0</ele>
  <time>2026-08-28T17:55:51Z</time>
  <course>0.04</course>
  <speed>4.97</speed>
  <fix>3d</fix>
</trkpt>
<trkpt lat="40.0719352" lon="-105.2297897">
  <ele>1583.0</ele>
  <time>2026-08-28T17:55:51Z</time>
  <course>1.37</course>
  <speed>4.94004048566406</speed>
  <fix>3d</fix>
</trkpt>
<trkpt lat="40.0719252" lon="-105.2297899">
  <ele>1583.0</ele>
  <time>2026-08-28T17:55:51Z</time>
  <course>0.03</course>
  <speed>4.97</speed>
  <fix>3d</fix>
</trkpt>
<trkpt lat="40.0719396" lon="-105.2297897">
  <ele>1583.0</ele>
  <time>2026-08-28T17:55:51Z</time>
  <course>1.37</course>
  <speed>4.94004048566406</speed>
  <fix>3d</fix>
</trkpt>
<trkpt lat="40.0719341" lon="-105.2297899">
  <ele>1583.0</ele>
  <time>2026-08-28T17:55:51Z</time>
  <course>0.02</course>
  <speed>4.97</speed>
  <fix>3d</fix>
</trkpt>
<trkpt lat="40.0719441" lon="-105.2297897">
  <ele>1583.0</ele>
  <time>2026-08-28T17:55:51Z</time>
  <course>1.35</course>
  <speed>4.94004048566406</speed>
  <fix>3d</fix>
</trkpt>
<trkpt lat="40.0719341" lon="-105.2297899">
  <ele>1583.0</ele>
  <time>2026-08-28T17:55:51Z</time>
  <course>0.02</course>
  <speed>4.97</speed>
  <fix>3d</fix>
</trkpt>
<trkpt lat="40.0719485" lon="-105.2297897">
  <ele>1583.01</ele>
  <time>2026-08-28T17:55:51Z</time>
  <course>1.35</course>
  <speed>4.94004048566406</speed>
  <fix>3d</fix>
</trkpt>
<trkpt lat="40.0719431" lon="-105.2297899">
  <ele>1583.0</ele>
  <time>2026-08-28T17:55:51Z</time>
  <course>0.01</course>
  <speed>4.97</speed>
  <fix>3d</fix>
</trkpt>
<trkpt lat="40.071953" lon="-105.2297897">
  <ele>1583.01</ele>
  <time>2026-08-28T17:55:51Z</time>
  <course>1.35</course>
  <speed>4.950040403875508</speed>
  <fix>3d</fix>
</trkpt>
<trkpt lat="40.0719431" lon="-105.2297899">
  <ele>1583.0</ele>
  <time>2026-08-28T17:55:51Z</time>
  <course>0.01</course>
  <speed>4.97</speed>
  <fix>3d</fix>
</trkpt>
<trkpt lat="40.0719575" lon="-105.2297897">
  <ele>1583.01</ele>
  <time>2026-08-28T17:55:51Z</time>
  <course>1.35</course>
  <speed>4.950040403875508</speed>
  <fix>3d</fix>
</trkpt>
<trkpt lat="40.071952" lon="-105.2297899">
  <ele>1583.0</ele>
  <time>2026-08-28T17:55:51Z</time>
  <course>0.01</course>
  <speed>4.98</speed>
  <fix>3d</fix>
</trkpt>
<trkpt lat="40.0719621" lon="-105.2297897">
  <ele>1583.01</ele>
  <time>2026-08-28T17:55:51Z</time>
  <course>1.35</course>
  <speed>4.950040403875508</speed>
  <fix>3d</fix>
</trkpt>
<trkpt lat="40.071952" lon="-105.2297899">
  <ele>1583.0</ele>
  <time>2026-08-28T17:55:51Z</time>
  <course>0.01</course>
  <speed>4.98</speed>
  <fix>3d</fix>
</trkpt>
<trkpt lat="40.0719666" lon="-105.2297897">
  <ele>1583.01</ele>
  <time>2026-08-28T17:55:51Z</time>
  <course>1.34</course>
  <speed>4.960040322416744</speed>
  <fix>3d</fix>
</trkpt>
<trkpt lat="40.071961" lon="-105.2297899">
  <ele>1583.0</ele>
  <time>2026-08-28T17:55:51Z</time>
  <course>0.0</course>
  <speed>4.98</speed>
  <fix>3d</fix>
</trkpt>
<trkpt lat="40.0719711" lon="-105.2297897">
  <ele>1583.01</ele>
  <time>2026-08-28T17:55:51Z</time>
  <course>1.34</course>
  <speed>4.960040322416744</speed>
  <fix>3d</fix>
</trkpt>
<trkpt lat="40.071961" lon="-105.2297899">
  <ele>1583.0</ele>
  <time>2026-08-28T17:55:51Z</time>
  <course>0.0</course>
  <speed>4.98</speed>
  <fix>3d</fix>
</trkpt>
<trkpt lat="40.0719756" lon="-105.2297897">
  <ele>1583.01</ele>
  <time>2026-08-28T17:55:51Z</time>
  <course>1.34</course>
  <speed>4.960040322416744</speed>
  <fix>3d</fix>
</trkpt>
<trkpt lat="40.0719699" lon="-105.2297899">
  <ele>1583.0</ele>
  <time>2026-08-28T17:55:51Z</time>
  <course>359.99</course>
  <speed>4.98</speed>
  <fix>3d</fix>
</trkpt>
<trkpt lat="40.0719801" lon="-105.2297897">
  <ele>1583.01</ele>
  <time>2026-08-28T17:55:51Z</time>
  <course>1.34</course>
  <speed>4.960040322416744</speed>
  <fix>3d</fix>
</trkpt>
<trkpt lat="40.0719699" lon="-105.2297899">
  <ele>1583.0</ele>
  <time>2026-08-28T17:55:51Z</time>
  <course>359.99</course>
  <speed>4.98</speed>
  <fix>3d</fix>
</trkpt>
<trkpt lat="40.0719846" lon="-105.2297897">
  <ele>1583.02</ele>
  <time>2026-08-28T17:55:51Z</time>
  <course>1.34</course>
  <speed>4.960040322416744</speed>
  <fix>3d</fix>
</trkpt>
<trkpt lat="40.0719789" lon="-105.2297899">
  <ele>1583.0</ele>
  <time>2026-08-28T17:55:51Z</time>
  <course>359.99</course>
  <speed>4.98</speed>
  <fix>3d</fix>
</trkpt>
<trkpt lat="40.0719892" lon="-105.2297897">
  <ele>1583.02</ele>
  <time>2026-08-28T17:55:51Z</time>
  <course>1.34</course>
  <speed>4.960010080634917</speed>
  <fix>3d</fix>
</trkpt>
<trkpt lat="40.0719789" lon="-105.2297899">
  <ele>1583.0</ele>
  <time>2026-08-28T17:55:51Z</time>
  <course>359.99</course>
  <speed>4.98</speed>
  <fix>3d</fix>
</trkpt>
<trkpt lat="40.0719937" lon="-105.2297897">
  <ele>1583.02</ele>
  <time>2026-08-28T17:55:51Z</time>
  <course>1.34</course>
  <speed>4.960040322416744</speed>
  <fix>3d</fix>
</trkpt>
<trkpt lat="40.0719878" lon="-105.2297899">
  <ele>1583.0</ele>
  <time>2026-08-28T17:55:51Z</time>
  <course>359.99</course>
  <speed>4.98</speed>
  <fix>3d</fix>
</trkpt>
<trkpt lat="40.0719982" lon="-105.2297897">
  <ele>1583.03</ele>
  <time>2026-08-28T17:55:51Z</time>
  <course>1.32</course>
  <speed>4.960010080634917</speed>
  <fix>3d</fix>
</trkpt>
<trkpt lat="40.0719878" lon="-105.2297899">
  <ele>1583.0</ele>
  <time>2026-08-28T17:55:51Z</time>
  <course>359.99</course>
  <speed>4.98</speed>
  <fix>3d</fix>
</trkpt>
<trkpt lat="40.0720027" lon="-105.2297897">
  <ele>1583.03</ele>
  <time>2026-08-28T17:55:51Z</time>
  <course>1.32</course>
  <speed>4.960010080634917</speed>
  <fix>3d</fix>
</trkpt>
<trkpt lat="40.0719878" lon="-105.2297899">
  <ele>1583.0</ele>
  <time>2026-08-28T17:55:51Z</time>
  <course>359.99</course>
  <speed>4.98</speed>
  <fix>3d</fix>
</trkpt>
<trkpt lat="40.0720071" lon="-105.2297897">
  <ele>1583.03</ele>
  <time>2026-08-28T17:55:51Z</time>
  <course>1.32</course>
  <speed>4.960010080634917</speed>
  <fix>3d</fix>
</trkpt>
<trkpt lat="40.0719967" lon="-105.2297899">
  <ele>1583.0</ele>
  <time>2026-08-28T17:55:51Z</time>
  <course>359.99</course>
  <speed>4.98</speed>
  <fix>3d</fix>
</trkpt>
<trkpt lat="40.0720116" lon="-105.2297897">
  <ele>1583.03</ele>
  <time>2026-08-28T17:55:51Z</time>
  <course>1.32</course>
  <speed>4.960010080634917</speed>
  <fix>3d</fix>
</trkpt>
<trkpt lat="40.0719967" lon="-105.2297899">
  <ele>1583.0</ele>
  <time>2026-08-28T17:55:51Z</time>
  <course>359.99</course>
  <speed>4.98</speed>
  <fix>3d</fix>
</trkpt>
<trkpt lat="40.072016" lon="-105.2297897">
  <ele>1583.03</ele>
  <time>2026-08-28T17:55:51Z</time>
  <course>1.32</course>
  <speed>4.950010100999795</speed>
  <fix>3d</fix>
</trkpt>
<trkpt lat="40.0720058" lon="-105.2297899">
  <ele>1583.0</ele>
  <time>2026-08-28T17:55:51Z</time>
  <course>359.98</course>
  <speed>4.98</speed>
  <fix>3d</fix>
</trkpt>
<trkpt lat="40.0720204" lon="-105.2297897">
  <ele>1583.03</ele>
  <time>2026-08-28T17:55:51Z</time>
  <course>1.31</course>
  <speed>4.950010100999795</speed>
  <fix>3d</fix>
</trkpt>
<trkpt lat="40.0720058" lon="-105.2297899">
  <ele>1583.0</ele>
  <time>2026-08-28T17:55:51Z</time>
  <course>359.98</course>
  <speed>4.98</speed>
  <fix>3d</fix>
</trkpt>
<trkpt lat="40.0720248" lon="-105.2297898">
  <ele>1583.03</ele>
  <time>2026-08-28T17:55:51Z</time>
  <course>1.31</course>
  <speed>4.950010100999795</speed>
  <fix>3d</fix>
</trkpt>
<trkpt lat="40.0720147" lon="-105.2297899">
  <ele>1583.0</ele>
  <time>2026-08-28T17:55:51Z</time>
  <course>359.97</course>
  <speed>4.97</speed>
  <fix>3d</fix>
</trkpt>
<trkpt lat="40.0720293" lon="-105.2297898">
  <ele>1583.03</ele>
  <time>2026-08-28T17:55:51Z</time>
  <course>1.31</course>
  <speed>4.950010100999795</speed>
  <fix>3d</fix>
</trkpt>
<trkpt lat="40.0720237" lon="-105.2297899">
  <ele>1583.0</ele>
  <time>2026-08-28T17:55:51Z</time>
  <course>359.97</course>
  <speed>4.97</speed>
  <fix>3d</fix>
</trkpt>
<trkpt lat="40.0720338" lon="-105.2297898">
  <ele>1583.02</ele>
  <time>2026-08-28T17:55:51Z</time>
  <course>1.31</course>
  <speed>4.950010100999795</speed>
  <fix>3d</fix>
</trkpt>
<trkpt lat="40.0720237" lon="-105.2297899">
  <ele>1583.0</ele>
  <time>2026-08-28T17:55:51Z</time>
  <course>359.97</course>
  <speed>4.97</speed>
  <fix>3d</fix>
</trkpt>
<trkpt lat="40.0720382" lon="-105.2297898">
  <ele>1583.02</ele>
  <time>2026-08-28T17:55:51Z</time>
  <course>1.31</course>
  <speed>4.950010100999795</speed>
  <fix>3d</fix>
</trkpt>
<trkpt lat="40.0720326" lon="-105.2297899">
  <ele>1583.0</ele>
  <time>2026-08-28T17:55:51Z</time>
  <course>359.97</course>
  <speed>4.97</speed>
  <fix>3d</fix>
</trkpt>
<trkpt lat="40.0720427" lon="-105.2297898">
  <ele>1583.02</ele>
  <time>2026-08-28T17:55:51Z</time>
  <course>1.31</course>
  <speed>4.950010100999795</speed>
  <fix>3d</fix>
</trkpt>
<trkpt lat="40.0720326" lon="-105.2297899">
  <ele>1583.0</ele>
  <time>2026-08-28T17:55:51Z</time>
  <course>359.97</course>
  <speed>4.97</speed>
  <fix>3d</fix>
</trkpt>
<trkpt lat="40.0720472" lon="-105.2297898">
  <ele>1583.01</ele>
  <time>2026-08-28T17:55:51Z</time>
  <course>1.29</course>
  <speed>4.950010100999795</speed>
  <fix>3d</fix>
</trkpt>
<trkpt lat="40.0720415" lon="-105.2297899">
  <ele>1583.0</ele>
  <time>2026-08-28T17:55:51Z</time>
  <course>359.96</course>
  <speed>4.98</speed>
  <fix>3d</fix>
</trkpt>
<trkpt lat="40.0720517" lon="-105.2297898">
  <ele>1583.01</ele>
  <time>2026-08-28T17:55:51Z</time>
  <course>1.29</course>
  <speed>4.960010080634917</speed>
  <fix>3d</fix>
</trkpt>
<trkpt lat="40.0720415" lon="-105.2297899">
  <ele>1583.0</ele>
  <time>2026-08-28T17:55:51Z</time>
  <course>359.96</course>
  <speed>4.98</speed>
  <fix>3d</fix>
</trkpt>
<trkpt lat="40.0720562" lon="-105.2297898">
  <ele>1583.01</ele>
  <time>2026-08-28T17:55:51Z</time>
  <course>1.29</course>
  <speed>4.960010080634917</speed>
  <fix>3d</fix>
</trkpt>
<trkpt lat="40.0720505" lon="-105.2297899">
  <ele>1583.0</ele>
  <time>2026-08-28T17:55:51Z</time>
  <course>359.95</course>
  <speed>4.98</speed>
  <fix>3d</fix>
</trkpt>
<trkpt lat="40.0720607" lon="-105.2297898">
  <ele>1583.01</ele>
  <time>2026-08-28T17:55:51Z</time>
  <course>1.29</course>
  <speed>4.960010080634917</speed>
  <fix>3d</fix>
</trkpt>
<trkpt lat="40.0720505" lon="-105.2297899">
  <ele>1583.0</ele>
  <time>2026-08-28T17:55:51Z</time>
  <course>359.95</course>
  <speed>4.98</speed>
  <fix>3d</fix>
</trkpt>
<trkpt lat="40.0720652" lon="-105.2297898">
  <ele>1583.01</ele>
  <time>2026-08-28T17:55:51Z</time>
  <course>1.29</course>
  <speed>4.960010080634917</speed>
  <fix>3d</fix>
</trkpt>
<trkpt lat="40.0720594" lon="-105.2297899">
  <ele>1583.0</ele>
  <time>2026-08-28T17:55:51Z</time>
  <course>359.95</course>
  <speed>4.98</speed>
  <fix>3d</fix>
</trkpt>
<trkpt lat="40.0720697" lon="-105.2297898">
  <ele>1583.02</ele>
  <time>2026-08-28T17:55:51Z</time>
  <course>1.29</course>
  <speed>4.960010080634917</speed>
  <fix>3d</fix>
</trkpt>
<trkpt lat="40.0720594" lon="-105.2297899">
  <ele>1583.0</ele>
  <time>2026-08-28T17:55:51Z</time>
  <course>359.95</course>
  <speed>4.98</speed>
  <fix>3d</fix>
</trkpt>
<trkpt lat="40.0720742" lon="-105.2297898">
  <ele>1583.02</ele>
  <time>2026-08-28T17:55:51Z</time>
  <course>1.29</course>
  <speed>4.960010080634917</speed>
  <fix>3d</fix>
</trkpt>
<trkpt lat="40.0720683" lon="-105.2297899">
  <ele>1583.0</ele>
  <time>2026-08-28T17:55:51Z</time>
  <course>359.95</course>
  <speed>4.98</speed>
  <fix>3d</fix>
</trkpt>
<trkpt lat="40.0720787" lon="-105.2297898">
  <ele>1583.01</ele>
  <time>2026-08-28T17:55:51Z</time>
  <course>1.29</course>
  <speed>4.960010080634917</speed>
  <fix>3d</fix>
</trkpt>
<trkpt lat="40.0720683" lon="-105.2297899">
  <ele>1583.0</ele>
  <time>2026-08-28T17:55:51Z</time>
  <course>359.95</course>
  <speed>4.98</speed>
  <fix>3d</fix>
</trkpt>
<trkpt lat="40.0720832" lon="-105.2297898">
  <ele>1583.01</ele>
  <time>2026-08-28T17:55:51Z</time>
  <course>1.29</course>
  <speed>4.960010080634917</speed>
  <fix>3d</fix>
</trkpt>
<trkpt lat="40.0720773" lon="-105.2297899">
  <ele>1583.0</ele>
  <time>2026-08-28T17:55:51Z</time>
  <course>359.95</course>
  <speed>4.97</speed>
  <fix>3d</fix>
</trkpt>
<trkpt lat="40.0720877" lon="-105.2297898">
  <ele>1583.01</ele>
  <time>2026-08-28T17:55:51Z</time>
  <course>1.27</course>
  <speed>4.960010080634917</speed>
  <fix>3d</fix>
</trkpt>
<trkpt lat="40.0720773" lon="-105.2297899">
  <ele>1583.0</ele>
  <time>2026-08-28T17:55:51Z</time>
  <course>359.95</course>
  <speed>4.97</speed>
  <fix>3d</fix>
</trkpt>
<trkpt lat="40.0720922" lon="-105.2297898">
  <ele>1583.01</ele>
  <time>2026-08-28T17:55:51Z</time>
  <course>1.27</course>
  <speed>4.960010080634917</speed>
  <fix>3d</fix>
</trkpt>
<trkpt lat="40.0720773" lon="-105.2297899">
  <ele>1583.0</ele>
  <time>2026-08-28T17:55:51Z</time>
  <course>359.95</course>
  <speed>4.97</speed>
  <fix>3d</fix>
</trkpt>
<trkpt lat="40.0720966" lon="-105.2297898">
  <ele>1583.01</ele>
  <time>2026-08-28T17:55:51Z</time>
  <course>1.27</course>
  <speed>4.960010080634917</speed>
  <fix>3d</fix>
</trkpt>
<trkpt lat="40.0720862" lon="-105.2297899">
  <ele>1583.0</ele>
  <time>2026-08-28T17:55:51Z</time>
  <course>359.95</course>
  <speed>4.97</speed>
  <fix>3d</fix>
</trkpt>
<trkpt lat="40.0721011" lon="-105.2297898">
  <ele>1583.01</ele>
  <time>2026-08-28T17:55:51Z</time>
  <course>1.27</course>
  <speed>4.950010100999795</speed>
  <fix>3d</fix>
</trkpt>
<trkpt lat="40.0720862" lon="-105.2297899">
  <ele>1583.0</ele>
  <time>2026-08-28T17:55:51Z</time>
  <course>359.95</course>
  <speed>4.97</speed>
  <fix>3d</fix>
</trkpt>
<trkpt lat="40.0721055" lon="-105.2297898">
  <ele>1583.0</ele>
  <time>2026-08-28T17:55:51Z</time>
  <course>1.27</course>
  <speed>4.950010100999795</speed>
  <fix>3d</fix>
</trkpt>
<trkpt lat="40.0720952" lon="-105.2297899">
  <ele>1583.0</ele>
  <time>2026-08-28T17:55:51Z</time>
  <course>359.94</course>
  <speed>4.97</speed>
  <fix>3d</fix>
</trkpt>
<trkpt lat="40.0721099" lon="-105.2297898">
  <ele>1583.0</ele>
  <time>2026-08-28T17:55:51Z</time>
  <course>1.26</course>
  <speed>4.950010100999795</speed>
  <fix>3d</fix>
</trkpt>
<trkpt lat="40.0720952" lon="-105.2297899">
  <ele>1583.0</ele>
  <time>2026-08-28T17:55:51Z</time>
  <course>359.94</course>
  <speed>4.97</speed>
  <fix>3d</fix>
</trkpt>
<trkpt lat="40.0721143" lon="-105.2297898">
  <ele>1583.0</ele>
  <time>2026-08-28T17:55:51Z</time>
  <course>1.26</course>
  <speed>4.950010100999795</speed>
  <fix>3d</fix>
</trkpt>
<trkpt lat="40.0721042" lon="-105.2297899">
  <ele>1583.0</ele>
  <time>2026-08-28T17:55:51Z</time>
  <course>359.93</course>
  <speed>4.97</speed>
  <fix>3d</fix>
</trkpt>
<trkpt lat="40.0721188" lon="-105.2297898">
  <ele>1583.0</ele>
  <time>2026-08-28T17:55:51Z</time>
  <course>1.26</course>
  <speed>4.950010100999795</speed>
  <fix>3d</fix>
</trkpt>
<trkpt lat="40.0721131" lon="-105.2297899">
  <ele>1583.0</ele>
  <time>2026-08-28T17:55:51Z</time>
  <course>359.93</course>
  <speed>4.97</speed>
  <fix>3d</fix>
</trkpt>
<trkpt lat="40.0721233" lon="-105.2297898">
  <ele>1582.99</ele>
  <time>2026-08-28T17:55:51Z</time>
  <course>1.26</course>
  <speed>4.950010100999795</speed>
  <fix>3d</fix>
</trkpt>
<trkpt lat="40.0721131" lon="-105.2297899">
  <ele>1583.0</ele>
  <time>2026-08-28T17:55:51Z</time>
  <course>359.93</course>
  <speed>4.97</speed>
  <fix>3d</fix>
</trkpt>
<trkpt lat="40.0721277" lon="-105.2297898">
  <ele>1582.99</ele>
  <time>2026-08-28T17:55:51Z</time>
  <course>1.26</course>
  <speed>4.960010080634917</speed>
  <fix>3d</fix>
</trkpt>
<trkpt lat="40.0721221" lon="-105.2297899">
  <ele>1583.0</ele>
  <time>2026-08-28T17:55:51Z</time>
  <course>359.93</course>
  <speed>4.98</speed>
  <fix>3d</fix>
</trkpt>
<trkpt lat="40.0721322" lon="-105.2297898">
  <ele>1582.99</ele>
  <time>2026-08-28T17:55:51Z</time>
  <course>1.26</course>
  <speed>4.960010080634917</speed>
  <fix>3d</fix>
</trkpt>
<trkpt lat="40.0721221" lon="-105.2297899">
  <ele>1583.0</ele>
  <time>2026-08-28T17:55:51Z</time>
  <course>359.93</course>
  <speed>4.98</speed>
  <fix>3d</fix>
</trkpt>
<trkpt lat="40.0721367" lon="-105.2297898">
  <ele>1582.98</ele>
  <time>2026-08-28T17:55:51Z</time>
  <course>1.25</course>
  <speed>4.960010080634917</speed>
  <fix>3d</fix>
</trkpt>
<trkpt lat="40.072131" lon="-105.2297899">
  <ele>1583.0</ele>
  <time>2026-08-28T17:55:51Z</time>
  <course>359.93</course>
  <speed>4.98</speed>
  <fix>3d</fix>
</trkpt>
<trkpt lat="40.0721412" lon="-105.2297898">
  <ele>1582.98</ele>
  <time>2026-08-28T17:55:51Z</time>
  <course>1.24</course>
  <speed>4.960010080634917</speed>
  <fix>3d</fix>
</trkpt>
<trkpt lat="40.072131" lon="-105.2297899">
  <ele>1583.0</ele>
  <time>2026-08-28T17:55:51Z</time>
  <course>359.93</course>
  <speed>4.98</speed>
  <fix>3d</fix>
</trkpt>
<trkpt lat="40.0721457" lon="-105.2297898">
  <ele>1582.98</ele>
  <time>2026-08-28T17:55:51Z</time>
  <course>1.24</course>
  <speed>4.960010080634917</speed>
  <fix>3d</fix>
</trkpt>
<trkpt lat="40.07214" lon="-105.22979">
  <ele>1583.0</ele>
  <time>2026-08-28T17:55:51Z</time>
  <course>359.92</course>
  <speed>4.99</speed>
  <fix>3d</fix>
</trkpt>
<trkpt lat="40.0721502" lon="-105.2297898">
  <ele>1582.98</ele>
  <time>2026-08-28T17:55:51Z</time>
  <course>1.24</course>
  <speed>4.970010060351991</speed>
  <fix>3d</fix>
</trkpt>
<trkpt lat="40.07214" lon="-105.22979">
  <ele>1583.0</ele>
  <time>2026-08-28T17:55:51Z</time>
  <course>359.92</course>
  <speed>4.99</speed>
  <fix>3d</fix>
</trkpt>
<trkpt lat="40.0721547" lon="-105.2297898">
  <ele>1582.98</ele>
  <time>2026-08-28T17:55:51Z</time>
  <course>1.24</course>
  <speed>4.970010060351991</speed>
  <fix>3d</fix>
</trkpt>
<trkpt lat="40.0721489" lon="-105.22979">
  <ele>1583.0</ele>
  <time>2026-08-28T17:55:51Z</time>
  <course>359.91</course>
  <speed>4.99</speed>
  <fix>3d</fix>
</trkpt>
<trkpt lat="40.0721593" lon="-105.2297898">
  <ele>1582.98</ele>
  <time>2026-08-28T17:55:51Z</time>
  <course>1.24</course>
  <speed>4.970010060351991</speed>
  <fix>3d</fix>
</trkpt>
<trkpt lat="40.0721489" lon="-105.22979">
  <ele>1583.0</ele>
  <time>2026-08-28T17:55:51Z</time>
  <course>359.91</course>
  <speed>4.99</speed>
  <fix>3d</fix>
</trkpt>
<trkpt lat="40.0721638" lon="-105.2297898">
  <ele>1582.98</ele>
  <time>2026-08-28T17:55:51Z</time>
  <course>1.24</course>
  <speed>4.970010060351991</speed>
  <fix>3d</fix>
</trkpt>
<trkpt lat="40.0721579" lon="-105.22979">
  <ele>1583.0</ele>
  <time>2026-08-28T17:55:51Z</time>
  <course>359.91</course>
  <speed>4.99</speed>
  <fix>3d</fix>
</trkpt>
<trkpt lat="40.0721683" lon="-105.2297898">
  <ele>1582.98</ele>
  <time>2026-08-28T17:55:51Z</time>
  <course>1.24</course>
  <speed>4.970010060351991</speed>
  <fix>3d</fix>
</trkpt>
<trkpt lat="40.0721579" lon="-105.22979">
  <ele>1583.0</ele>
  <time>2026-08-28T17:55:51Z</time>
  <course>359.91</course>
  <speed>4.99</speed>
  <fix>3d</fix>
</trkpt>
<trkpt lat="40.0721728" lon="-105.2297898">
  <ele>1582.98</ele>
  <time>2026-08-28T17:55:51Z</time>
  <course>1.24</course>
  <speed>4.970010060351991</speed>
  <fix>3d</fix>
</trkpt>
<trkpt lat="40.0721669" lon="-105.22979">
  <ele>1583.0</ele>
  <time>2026-08-28T17:55:51Z</time>
  <course>359.91</course>
  <speed>4.99</speed>
  <fix>3d</fix>
</trkpt>
<trkpt lat="40.0721773" lon="-105.2297898">
  <ele>1582.98</ele>
  <time>2026-08-28T17:55:51Z</time>
  <course>1.23</course>
  <speed>4.970010060351991</speed>
  <fix>3d</fix>
</trkpt>
<trkpt lat="40.0721669" lon="-105.22979">
  <ele>1583.0</ele>
  <time>2026-08-28T17:55:51Z</time>
  <course>359.91</course>
  <speed>4.99</speed>
  <fix>3d</fix>
</trkpt>
<trkpt lat="40.0721818" lon="-105.2297898">
  <ele>1582.98</ele>
  <time>2026-08-28T17:55:51Z</time>
  <course>1.23</course>
  <speed>4.970010060351991</speed>
  <fix>3d</fix>
</trkpt>
<trkpt lat="40.0721669" lon="-105.22979">
  <ele>1583.0</ele>
  <time>2026-08-28T17:55:51Z</time>
  <course>359.91</course>
  <speed>4.99</speed>
  <fix>3d</fix>
</trkpt>
<trkpt lat="40.0721862" lon="-105.2297898">
  <ele>1582.98</ele>
  <time>2026-08-28T17:55:51Z</time>
  <course>1.23</course>
  <speed>4.970010060351991</speed>
  <fix>3d</fix>
</trkpt>
<trkpt lat="40.0721759" lon="-105.22979">
  <ele>1583.0</ele>
  <time>2026-08-28T17:55:51Z</time>
  <course>359.91</course>
  <speed>4.98</speed>
  <fix>3d</fix>
</trkpt>
<trkpt lat="40.0721907" lon="-105.2297898">
  <ele>1582.99</ele>
  <time>2026-08-28T17:55:51Z</time>
  <course>1.23</course>
  <speed>4.960010080634917</speed>
  <fix>3d</fix>
</trkpt>
<trkpt lat="40.0721759" lon="-105.22979">
  <ele>1583.0</ele>
  <time>2026-08-28T17:55:51Z</time>
  <course>359.91</course>
  <speed>4.98</speed>
  <fix>3d</fix>
</trkpt>
<trkpt lat="40.0721951" lon="-105.2297898">
  <ele>1582.99</ele>
  <time>2026-08-28T17:55:51Z</time>
  <course>1.23</course>
  <speed>4.960010080634917</speed>
  <fix>3d</fix>
</trkpt>
<trkpt lat="40.0721848" lon="-105.22979">
  <ele>1583.0</ele>
  <time>2026-08-28T17:55:51Z</time>
  <course>359.91</course>
  <speed>4.98</speed>
  <fix>3d</fix>
</trkpt>
<trkpt lat="40.0721996" lon="-105.2297898">
  <ele>1582.99</ele>
  <time>2026-08-28T17:55:51Z</time>
  <course>1.23</course>
  <speed>4.960010080634917</speed>
  <fix>3d</fix>
</trkpt>
<trkpt lat="40.0721848" lon="-105.22979">
  <ele>1583.0</ele>
  <time>2026-08-28T17:55:51Z</time>
  <course>359.91</course>
  <speed>4.98</speed>
  <fix>3d</fix>
</trkpt>
<trkpt lat="40.072204" lon="-105.2297898">
  <ele>1583.0</ele>
  <time>2026-08-28T17:55:51Z</time>
  <course>1.23</course>
  <speed>4.960010080634917</speed>
  <fix>3d</fix>
</trkpt>
<trkpt lat="40.0721937" lon="-105.22979">
  <ele>1583.0</ele>
  <time>2026-08-28T17:55:51Z</time>
  <course>359.91</course>
  <speed>4.98</speed>
  <fix>3d</fix>
</trkpt>
<trkpt lat="40.0722084" lon="-105.2297898">
  <ele>1583.0</ele>
  <time>2026-08-28T17:55:51Z</time>
  <course>1.23</course>
  <speed>4.960010080634917</speed>
  <fix>3d</fix>
</trkpt>
<trkpt lat="40.0721937" lon="-105.22979">
  <ele>1583.0</ele>
  <time>2026-08-28T17:55:51Z</time>
  <course>359.91</course>
  <speed>4.98</speed>
  <fix>3d</fix>
</trkpt>
<trkpt lat="40.0722129" lon="-105.2297898">
  <ele>1583.0</ele>
  <time>2026-08-28T17:55:51Z</time>
  <course>1.23</course>
  <speed>4.960010080634917</speed>
  <fix>3d</fix>
</trkpt>
<trkpt lat="40.0722028" lon="-105.22979">
  <ele>1583.0</ele>
  <time>2026-08-28T17:55:51Z</time>
  <course>359.91</course>
  <speed>4.98</speed>
  <fix>3d</fix>
</trkpt>
<trkpt lat="40.0722173" lon="-105.2297898">
  <ele>1583.0</ele>
  <time>2026-08-28T17:55:51Z</time>
  <course>1.23</course>
  <speed>4.960010080634917</speed>
  <fix>3d</fix>
</trkpt>
<trkpt lat="40.0722117" lon="-105.22979">
  <ele>1583.0</ele>
  <time>2026-08-28T17:55:51Z</time>
  <course>359.91</course>
  <speed>4.98</speed>
  <fix>3d</fix>
</trkpt>
<trkpt lat="40.0722218" lon="-105.2297898">
  <ele>1583.0</ele>
  <time>2026-08-28T17:55:51Z</time>
  <course>1.23</course>
  <speed>4.960010080634917</speed>
  <fix>3d</fix>
</trkpt>
<trkpt lat="40.0722117" lon="-105.22979">
  <ele>1583.0</ele>
  <time>2026-08-28T17:55:51Z</time>
  <course>359.91</course>
  <speed>4.98</speed>
  <fix>3d</fix>
</trkpt>
<trkpt lat="40.0722262" lon="-105.2297898">
  <ele>1583.0</ele>
  <time>2026-08-28T17:55:51Z</time>
  <course>1.23</course>
  <speed>4.960010080634917</speed>
  <fix>3d</fix>
</trkpt>
<trkpt lat="40.0722207" lon="-105.22979">
  <ele>1583.0</ele>
  <time>2026-08-28T17:55:51Z</time>
  <course>359.91</course>
  <speed>4.99</speed>
  <fix>3d</fix>
</trkpt>
<trkpt lat="40.0722307" lon="-105.2297898">
  <ele>1583.0</ele>
  <time>2026-08-28T17:55:51Z</time>
  <course>1.23</course>
  <speed>4.970010060351991</speed>
  <fix>3d</fix>
</trkpt>
<trkpt lat="40.0722207" lon="-105.22979">
  <ele>1583.0</ele>
  <time>2026-08-28T17:55:51Z</time>
  <course>359.91</course>
  <speed>4.99</speed>
  <fix>3d</fix>
</trkpt>
<trkpt lat="40.0722352" lon="-105.2297898">
  <ele>1583.0</ele>
  <time>2026-08-28T17:55:51Z</time>
  <course>1.23</course>
  <speed>4.970010060351991</speed>
  <fix>3d</fix>
</trkpt>
<trkpt lat="40.0722296" lon="-105.22979">
  <ele>1583.0</ele>
  <time>2026-08-28T17:55:51Z</time>
  <course>359.91</course>
  <speed>4.99</speed>
  <fix>3d</fix>
</trkpt>
<trkpt lat="40.0722398" lon="-105.2297898">
  <ele>1583.0</ele>
  <time>2026-08-28T17:55:51Z</time>
  <course>1.23</course>
  <speed>4.970010060351991</speed>
  <fix>3d</fix>
</trkpt>
<trkpt lat="40.0722296" lon="-105.22979">
  <ele>1583.0</ele>
  <time>2026-08-28T17:55:51Z</time>
  <course>359.91</course>
  <speed>4.99</speed>
  <fix>3d</fix>
</trkpt>
<trkpt lat="40.0722443" lon="-105.2297898">
  <ele>1583.01</ele>
  <time>2026-08-28T17:55:51Z</time>
  <course>1.23</course>
  <speed>4.970010060351991</speed>
  <fix>3d</fix>
</trkpt>
<trkpt lat="40.0722386" lon="-105.2297901">
  <ele>1583.0</ele>
  <time>2026-08-28T17:55:51Z</time>
  <course>359.91</course>
  <speed>5.0</speed>
  <fix>3d</fix>
</trkpt>
<trkpt lat="40.0722488" lon="-105.2297898">
  <ele>1583.01</ele>
  <time>2026-08-28T17:55:51Z</time>
  <course>1.23</course>
  <speed>4.980010040150521</speed>
  <fix>3d</fix>
</trkpt>
<trkpt lat="40.0722386" lon="-105.2297901">
  <ele>1583.0</ele>
  <time>2026-08-28T17:55:51Z</time>
  <course>359.91</course>
  <speed>5.0</speed>
  <fix>3d</fix>
</trkpt>
<trkpt lat="40.0722534" lon="-105.2297898">
  <ele>1583.01</ele>
  <time>2026-08-28T17:55:51Z</time>
  <course>1.23</course>
  <speed>4.980010040150521</speed>
  <fix>3d</fix>
</trkpt>
<trkpt lat="40.0722476" lon="-105.2297902">
  <ele>1583.0</ele>
  <time>2026-08-28T17:55:51Z</time>
  <course>359.91</course>
  <speed>5.0</speed>
  <fix>3d</fix>
</trkpt>
<trkpt lat="40.0722579" lon="-105.2297899">
  <ele>1583.01</ele>
  <time>2026-08-28T17:55:51Z</time>
  <course>1.23</course>
  <speed>4.980010040150521</speed>
  <fix>3d</fix>
</trkpt>
<trkpt lat="40.0722476" lon="-105.2297902">
  <ele>1583.0</ele>
  <time>2026-08-28T17:55:51Z</time>
  <course>359.91</course>
  <speed>5.0</speed>
  <fix>3d</fix>
</trkpt>
<trkpt lat="40.0722624" lon="-105.2297899">
  <ele>1583.01</ele>
  <time>2026-08-28T17:55:51Z</time>
  <course>1.23</course>
  <speed>4.980010040150521</speed>
  <fix>3d</fix>
</trkpt>
<trkpt lat="40.0722566" lon="-105.2297902">
  <ele>1583.0</ele>
  <time>2026-08-28T17:55:51Z</time>
  <course>359.91</course>
  <speed>5.0</speed>
  <fix>3d</fix>
</trkpt>
<trkpt lat="40.0722669" lon="-105.2297899">
  <ele>1583.01</ele>
  <time>2026-08-28T17:55:51Z</time>
  <course>1.22</course>
  <speed>4.980010040150521</speed>
  <fix>3d</fix>
</trkpt>
<trkpt lat="40.0722566" lon="-105.2297902">
  <ele>1583.0</ele>
  <time>2026-08-28T17:55:51Z</time>
  <course>359.91</course>
  <speed>5.0</speed>
  <fix>3d</fix>
</trkpt>
<trkpt lat="40.0722714" lon="-105.2297899">
  <ele>1583.01</ele>
  <time>2026-08-28T17:55:51Z</time>
  <course>1.22</course>
  <speed>4.980010040150521</speed>
  <fix>3d</fix>
</trkpt>
<trkpt lat="40.0722655" lon="-105.2297902">
  <ele>1583.0</ele>
  <time>2026-08-28T17:55:51Z</time>
  <course>359.91</course>
  <speed>4.99</speed>
  <fix>3d</fix>
</trkpt>
<trkpt lat="40.0722759" lon="-105.2297899">
  <ele>1583.02</ele>
  <time>2026-08-28T17:55:51Z</time>
  <course>1.22</course>
  <speed>4.980010040150521</speed>
  <fix>3d</fix>
</trkpt>
<trkpt lat="40.0722655" lon="-105.2297902">
  <ele>1583.0</ele>
  <time>2026-08-28T17:55:51Z</time>
  <course>359.91</course>
  <speed>4.99</speed>
  <fix>3d</fix>
</trkpt>
<trkpt lat="40.0722804" lon="-105.2297899">
  <ele>1583.02</ele>
  <time>2026-08-28T17:55:51Z</time>
  <course>1.22</course>
  <speed>4.970010060351991</speed>
  <fix>3d</fix>
</trkpt>
<trkpt lat="40.0722655" lon="-105.2297902">
  <ele>1583.0</ele>
  <time>2026-08-28T17:55:51Z</time>
  <course>359.91</course>
  <speed>4.99</speed>
  <fix>3d</fix>
</trkpt>
<trkpt lat="40.0722849" lon="-105.2297899">
  <ele>1583.02</ele>
  <time>2026-08-28T17:55:51Z</time>
  <course>1.22</course>
  <speed>4.970010060351991</speed>
  <fix>3d</fix>
</trkpt>
<trkpt lat="40.0722746" lon="-105.2297902">
  <ele>1583.0</ele>
  <time>2026-08-28T17:55:51Z</time>
  <course>359.91</course>
  <speed>4.99</speed>
  <fix>3d</fix>
</trkpt>
<trkpt lat="40.0722894" lon="-105.22979">
  <ele>1583.02</ele>
  <time>2026-08-28T17:55:51Z</time>
  <course>1.22</course>
  <speed>4.970010060351991</speed>
  <fix>3d</fix>
</trkpt>
<trkpt lat="40.0722746" lon="-105.2297902">
  <ele>1583.0</ele>
  <time>2026-08-28T17:55:51Z</time>
  <course>359.91</course>
  <speed>4.99</speed>
  <fix>3d</fix>
</trkpt>
<trkpt lat="40.0722938" lon="-105.22979">
  <ele>1583.02</ele>
  <time>2026-08-28T17:55:51Z</time>
  <course>1.22</course>
  <speed>4.970010060351991</speed>
  <fix>3d</fix>
</trkpt>
<trkpt lat="40.0722836" lon="-105.2297902">
  <ele>1583.0</ele>
  <time>2026-08-28T17:55:51Z</time>
  <course>359.91</course>
  <speed>4.99</speed>
  <fix>3d</fix>
</trkpt>
<trkpt lat="40.0722983" lon="-105.22979">
  <ele>1583.02</ele>
  <time>2026-08-28T17:55:51Z</time>
  <course>1.22</course>
  <speed>4.960010080634917</speed>
  <fix>3d</fix>
</trkpt>
<trkpt lat="40.0722836" lon="-105.2297902">
  <ele>1583.0</ele>
  <time>2026-08-28T17:55:51Z</time>
  <course>359.91</course>
  <speed>4.99</speed>
  <fix>3d</fix>
</trkpt>
<trkpt lat="40.0723027" lon="-105.22979">
  <ele>1583.02</ele>
  <time>2026-08-28T17:55:51Z</time>
  <course>1.22</course>
  <speed>4.960010080634917</speed>
  <fix>3d</fix>
</trkpt>
<trkpt lat="40.0722925" lon="-105.2297902">
  <ele>1583.0</ele>
  <time>2026-08-28T17:55:51Z</time>
  <course>359.91</course>
  <speed>4.98</speed>
  <fix>3d</fix>
</trkpt>
<trkpt lat="40.0723072" lon="-105.22979">
  <ele>1583.02</ele>
  <time>2026-08-28T17:55:51Z</time>
  <course>1.22</course>
  <speed>4.960010080634917</speed>
  <fix>3d</fix>
</trkpt>
<trkpt lat="40.0723014" lon="-105.2297902">
  <ele>1583.0</ele>
  <time>2026-08-28T17:55:51Z</time>
  <course>359.91</course>
  <speed>4.98</speed>
  <fix>3d</fix>
</trkpt>
<trkpt lat="40.0723116" lon="-105.22979">
  <ele>1583.02</ele>
  <time>2026-08-28T17:55:51Z</time>
  <course>1.22</course>
  <speed>4.960010080634917</speed>
  <fix>3d</fix>
</trkpt>
<trkpt lat="40.0723014" lon="-105.2297902">
  <ele>1583.0</ele>
  <time>2026-08-28T17:55:51Z</time>
  <course>359.91</course>
  <speed>4.98</speed>
  <fix>3d</fix>
</trkpt>
<trkpt lat="40.0723161" lon="-105.22979">
  <ele>1583.01</ele>
  <time>2026-08-28T17:55:51Z</time>
  <course>1.22</course>
  <speed>4.960010080634917</speed>
  <fix>3d</fix>
</trkpt>
<trkpt lat="40.0723104" lon="-105.2297902">
  <ele>1583.0</ele>
  <time>2026-08-28T17:55:51Z</time>
  <course>359.91</course>
  <speed>4.99</speed>
  <fix>3d</fix>
</trkpt>
<trkpt lat="40.0723206" lon="-105.22979">
  <ele>1583.01</ele>
  <time>2026-08-28T17:55:51Z</time>
  <course>1.22</course>
  <speed>4.960010080634917</speed>
  <fix>3d</fix>
</trkpt>
<trkpt lat="40.0723104" lon="-105.2297902">
  <ele>1583.0</ele>
  <time>2026-08-28T17:55:51Z</time>
  <course>359.91</course>
  <speed>4.99</speed>
  <fix>3d</fix>
</trkpt>
<trkpt lat="40.0723251" lon="-105.22979">
  <ele>1583.01</ele>
  <time>2026-08-28T17:55:51Z</time>
  <course>1.22</course>
  <speed>4.960010080634917</speed>
  <fix>3d</fix>
</trkpt>
<trkpt lat="40.0723194" lon="-105.2297902">
  <ele>1583.0</ele>
  <time>2026-08-28T17:55:51Z</time>
  <course>359.91</course>
  <speed>4.99</speed>
  <fix>3d</fix>
</trkpt>
<trkpt lat="40.0723296" lon="-105.22979">
  <ele>1583.01</ele>
  <time>2026-08-28T17:55:51Z</time>
  <course>1.22</course>
  <speed>4.970010060351991</speed>
  <fix>3d</fix>
</trkpt>
<trkpt lat="40.0723194" lon="-105.2297902">
  <ele>1583.0</ele>
  <time>2026-08-28T17:55:51Z</time>
  <course>359.91</course>
  <speed>4.99</speed>
  <fix>3d</fix>
</trkpt>
<trkpt lat="40.0723341" lon="-105.22979">
  <ele>1583.0</ele>
  <time>2026-08-28T17:55:51Z</time>
  <course>1.22</course>
  <speed>4.970010060351991</speed>
  <fix>3d</fix>
</trkpt>
<trkpt lat="40.0723284" lon="-105.2297902">
  <ele>1583.0</ele>
  <time>2026-08-28T17:55:51Z</time>
  <course>359.91</course>
  <speed>4.99</speed>
  <fix>3d</fix>
</trkpt>
<trkpt lat="40.0723386" lon="-105.22979">
  <ele>1583.0</ele>
  <time>2026-08-28T17:55:51Z</time>
  <course>1.22</course>
  <speed>4.970010060351991</speed>
  <fix>3d</fix>
</trkpt>
<trkpt lat="40.0723284" lon="-105.2297902">
  <ele>1583.0</ele>
  <time>2026-08-28T17:55:51Z</time>
  <course>359.91</course>
  <speed>4.99</speed>
  <fix>3d</fix>
</trkpt>
<trkpt lat="40.0723431" lon="-105.22979">
  <ele>1583.0</ele>
  <time>2026-08-28T17:55:51Z</time>
  <course>1.22</course>
  <speed>4.970010060351991</speed>
  <fix>3d</fix>
</trkpt>
<trkpt lat="40.0723373" lon="-105.2297903">
  <ele>1583.0</ele>
  <time>2026-08-28T17:55:51Z</time>
  <course>359.91</course>
  <speed>4.99</speed>
  <fix>3d</fix>
</trkpt>
<trkpt lat="40.0723476" lon="-105.2297901">
  <ele>1583.0</ele>
  <time>2026-08-28T17:55:51Z</time>
  <course>1.22</course>
  <speed>4.970010060351991</speed>
  <fix>3d</fix>
</trkpt>
<trkpt lat="40.0723373" lon="-105.2297903">
  <ele>1583.0</ele>
  <time>2026-08-28T17:55:51Z</time>
  <course>359.91</course>
  <speed>4.99</speed>
  <fix>3d</fix>
</trkpt>
<trkpt lat="40.0723521" lon="-105.2297901">
  <ele>1582.99</ele>
  <time>2026-08-28T17:55:51Z</time>
  <course>1.21</course>
  <speed>4.970010060351991</speed>
  <fix>3d</fix>
</trkpt>
<trkpt lat="40.0723462" lon="-105.2297904">
  <ele>1583.0</ele>
  <time>2026-08-28T17:55:51Z</time>
  <course>359.91</course>
  <speed>4.99</speed>
  <fix>3d</fix>
</trkpt>
<trkpt lat="40.0723567" lon="-105.2297901">
  <ele>1582.99</ele>
  <time>2026-08-28T17:55:51Z</time>
  <course>1.21</course>
  <speed>4.970010060351991</speed>
  <fix>3d</fix>
</trkpt>
<trkpt lat="40.0723462" lon="-105.2297904">
  <ele>1583.0</ele>
  <time>2026-08-28T17:55:51Z</time>
  <course>359.91</course>
  <speed>4.99</speed>
  <fix>3d</fix>
</trkpt>
<trkpt lat="40.0723612" lon="-105.2297901">
  <ele>1582.99</ele>
  <time>2026-08-28T17:55:51Z</time>
  <course>1.21</course>
  <speed>4.980010040150521</speed>
  <fix>3d</fix>
</trkpt>
<trkpt lat="40.0723553" lon="-105.2297904">
  <ele>1583.0</ele>
  <time>2026-08-28T17:55:51Z</time>
  <course>359.91</course>
  <speed>4.99</speed>
  <fix>3d</fix>
</trkpt>
<trkpt lat="40.0723657" lon="-105.2297901">
  <ele>1582.99</ele>
  <time>2026-08-28T17:55:51Z</time>
  <course>1.21</course>
  <speed>4.98</speed>
  <fix>3d</fix>
</trkpt>
<trkpt lat="40.0723553" lon="-105.2297904">
  <ele>1583.0</ele>
  <time>2026-08-28T17:55:51Z</time>
  <course>359.91</course>
  <speed>4.99</speed>
  <fix>3d</fix>
</trkpt>
<trkpt lat="40.0723702" lon="-105.2297901">
  <ele>1582.99</ele>
  <time>2026-08-28T17:55:51Z</time>
  <course>1.21</course>
  <speed>4.97</speed>
  <fix>3d</fix>
</trkpt>
<trkpt lat="40.0723553" lon="-105.2297904">
  <ele>1583.0</ele>
  <time>2026-08-28T17:55:51Z</time>
  <course>359.91</course>
  <speed>4.99</speed>
  <fix>3d</fix>
</trkpt>
<trkpt lat="40.0723746" lon="-105.2297901">
  <ele>1582.99</ele>
  <time>2026-08-28T17:55:51Z</time>
  <course>1.21</course>
  <speed>4.97</speed>
  <fix>3d</fix>
</trkpt>
<trkpt lat="40.0723643" lon="-105.2297904">
  <ele>1583.0</ele>
  <time>2026-08-28T17:55:51Z</time>
  <course>359.91</course>
  <speed>4.99</speed>
  <fix>3d</fix>
</trkpt>
<trkpt lat="40.0723791" lon="-105.2297901">
  <ele>1582.99</ele>
  <time>2026-08-28T17:55:51Z</time>
  <course>1.21</course>
  <speed>4.97</speed>
  <fix>3d</fix>
</trkpt>
<trkpt lat="40.0723643" lon="-105.2297904">
  <ele>1583.0</ele>
  <time>2026-08-28T17:55:51Z</time>
  <course>359.91</course>
  <speed>4.99</speed>
  <fix>3d</fix>
</trkpt>
<trkpt lat="40.0723835" lon="-105.2297902">
  <ele>1582.99</ele>
  <time>2026-08-28T17:55:51Z</time>
  <course>1.21</course>
  <speed>4.97</speed>
  <fix>3d</fix>
</trkpt>
<trkpt lat="40.0723732" lon="-105.2297904">
  <ele>1583.0</ele>
  <time>2026-08-28T17:55:51Z</time>
  <course>359.91</course>
  <speed>4.99</speed>
  <fix>3d</fix>
</trkpt>
<trkpt lat="40.072388" lon="-105.2297902">
  <ele>1582.99</ele>
  <time>2026-08-28T17:55:51Z</time>
  <course>1.21</course>
  <speed>4.97</speed>
  <fix>3d</fix>
</trkpt>
<trkpt lat="40.0723732" lon="-105.2297904">
  <ele>1583.0</ele>
  <time>2026-08-28T17:55:51Z</time>
  <course>359.91</course>
  <speed>4.99</speed>
  <fix>3d</fix>
</trkpt>
<trkpt lat="40.0723924" lon="-105.2297902">
  <ele>1582.99</ele>
  <time>2026-08-28T17:55:51Z</time>
  <course>1.21</course>
  <speed>4.96</speed>
  <fix>3d</fix>
</trkpt>
<trkpt lat="40.0723821" lon="-105.2297904">
  <ele>1583.0</ele>
  <time>2026-08-28T17:55:51Z</time>
  <course>359.91</course>
  <speed>4.99</speed>
  <fix>3d</fix>
</trkpt>
<trkpt lat="40.0723968" lon="-105.2297902">
  <ele>1582.99</ele>
  <time>2026-08-28T17:55:51Z</time>
  <course>1.21</course>
  <speed>4.96</speed>
  <fix>3d</fix>
</trkpt>
<trkpt lat="40.0723821" lon="-105.2297904">
  <ele>1583.0</ele>
  <time>2026-08-28T17:55:51Z</time>
  <course>359.91</course>
  <speed>4.99</speed>
  <fix>3d</fix>
</trkpt>
<trkpt lat="40.0724013" lon="-105.2297902">
  <ele>1582.99</ele>
  <time>2026-08-28T17:55:51Z</time>
  <course>1.21</course>
  <speed>4.96</speed>
  <fix>3d</fix>
</trkpt>
<trkpt lat="40.0723912" lon="-105.2297904">
  <ele>1583.0</ele>
  <time>2026-08-28T17:55:51Z</time>
  <course>359.91</course>
  <speed>4.99</speed>
  <fix>3d</fix>
</trkpt>
<trkpt lat="40.0724057" lon="-105.2297902">
  <ele>1582.99</ele>
  <time>2026-08-28T17:55:51Z</time>
  <course>1.21</course>
  <speed>4.96</speed>
  <fix>3d</fix>
</trkpt>
<trkpt lat="40.0724001" lon="-105.2297904">
  <ele>1583.0</ele>
  <time>2026-08-28T17:55:51Z</time>
  <course>359.91</course>
  <speed>4.99</speed>
  <fix>3d</fix>
</trkpt>
<trkpt lat="40.0724102" lon="-105.2297902">
  <ele>1583.0</ele>
  <time>2026-08-28T17:55:51Z</time>
  <course>1.21</course>
  <speed>4.97</speed>
  <fix>3d</fix>
</trkpt>
<trkpt lat="40.0724001" lon="-105.2297904">
  <ele>1583.0</ele>
  <time>2026-08-28T17:55:51Z</time>
  <course>359.91</course>
  <speed>4.99</speed>
  <fix>3d</fix>
</trkpt>
<trkpt lat="40.0724147" lon="-105.2297902">
  <ele>1583.0</ele>
  <time>2026-08-28T17:55:51Z</time>
  <course>1.21</course>
  <speed>4.97</speed>
  <fix>3d</fix>
</trkpt>
<trkpt lat="40.0724091" lon="-105.2297904">
  <ele>1583.0</ele>
  <time>2026-08-28T17:55:51Z</time>
  <course>359.91</course>
  <speed>4.99</speed>
  <fix>3d</fix>
</trkpt>
<trkpt lat="40.0724192" lon="-105.2297902">
  <ele>1582.99</ele>
  <time>2026-08-28T17:55:51Z</time>
  <course>1.21</course>
  <speed>4.97</speed>
  <fix>3d</fix>
</trkpt>
<trkpt lat="40.0724091" lon="-105.2297904">
  <ele>1583.0</ele>
  <time>2026-08-28T17:55:51Z</time>
  <course>359.91</course>
  <speed>4.99</speed>
  <fix>3d</fix>
</trkpt>
<trkpt lat="40.0724237" lon="-105.2297902">
  <ele>1582.99</ele>
  <time>2026-08-28T17:55:51Z</time>
  <course>1.21</course>
  <speed>4.97</speed>
  <fix>3d</fix>
</trkpt>
<trkpt lat="40.072418" lon="-105.2297904">
  <ele>1583.0</ele>
  <time>2026-08-28T17:55:51Z</time>
  <course>359.91</course>
  <speed>5.0</speed>
  <fix>3d</fix>
</trkpt>
<trkpt lat="40.0724282" lon="-105.2297903">
  <ele>1582.99</ele>
  <time>2026-08-28T17:55:51Z</time>
  <course>1.21</course>
  <speed>4.98</speed>
  <fix>3d</fix>
</trkpt>
<trkpt lat="40.072418" lon="-105.2297904">
  <ele>1583.0</ele>
  <time>2026-08-28T17:55:51Z</time>
  <course>359.91</course>
  <speed>5.0</speed>
  <fix>3d</fix>
</trkpt>
<trkpt lat="40.0724328" lon="-105.2297903">
  <ele>1582.99</ele>
  <time>2026-08-28T17:55:51Z</time>
  <course>1.21</course>
  <speed>4.98</speed>
  <fix>3d</fix>
</trkpt>
<trkpt lat="40.0724271" lon="-105.2297904">
  <ele>1583.0</ele>
  <time>2026-08-28T17:55:51Z</time>
  <course>359.91</course>
  <speed>5.0</speed>
  <fix>3d</fix>
</trkpt>
<trkpt lat="40.0724373" lon="-105.2297903">
  <ele>1582.99</ele>
  <time>2026-08-28T17:55:51Z</time>
  <course>1.2</course>
  <speed>4.98</speed>
  <fix>3d</fix>
</trkpt>
<trkpt lat="40.0724271" lon="-105.2297904">
  <ele>1583.0</ele>
  <time>2026-08-28T17:55:51Z</time>
  <course>359.91</course>
  <speed>5.0</speed>
  <fix>3d</fix>
</trkpt>
<trkpt lat="40.0724418" lon="-105.2297903">
  <ele>1582.99</ele>
  <time>2026-08-28T17:55:51Z</time>
  <course>1.2</course>
  <speed>4.98</speed>
  <fix>3d</fix>
</trkpt>
<trkpt lat="40.0724361" lon="-105.2297904">
  <ele>1583.0</ele>
  <time>2026-08-28T17:55:51Z</time>
  <course>359.91</course>
  <speed>5.0</speed>
  <fix>3d</fix>
</trkpt>
<trkpt lat="40.0724463" lon="-105.2297903">
  <ele>1582.99</ele>
  <time>2026-08-28T17:55:51Z</time>
  <course>1.2</course>
  <speed>4.98</speed>
  <fix>3d</fix>
</trkpt>
<trkpt lat="40.0724361" lon="-105.2297904">
  <ele>1583.0</ele>
  <time>2026-08-28T17:55:51Z</time>
  <course>359.91</course>
  <speed>5.0</speed>
  <fix>3d</fix>
</trkpt>
<trkpt lat="40.0724509" lon="-105.2297903">
  <ele>1582.99</ele>
  <time>2026-08-28T17:55:51Z</time>
  <course>1.2</course>
  <speed>4.980010040150521</speed>
  <fix>3d</fix>
</trkpt>
<trkpt lat="40.072445" lon="-105.2297905">
  <ele>1583.0</ele>
  <time>2026-08-28T17:55:51Z</time>
  <course>359.91</course>
  <speed>5.0</speed>
  <fix>3d</fix>
</trkpt>
<trkpt lat="40.0724554" lon="-105.2297903">
  <ele>1582.99</ele>
  <time>2026-08-28T17:55:51Z</time>
  <course>1.2</course>
  <speed>4.980010040150521</speed>
  <fix>3d</fix>
</trkpt>
<trkpt lat="40.072445" lon="-105.2297905">
  <ele>1583.0</ele>
  <time>2026-08-28T17:55:51Z</time>
  <course>359.91</course>
  <speed>5.0</speed>
  <fix>3d</fix>
</trkpt>
<trkpt lat="40.0724599" lon="-105.2297903">
  <ele>1582.99</ele>
  <time>2026-08-28T17:55:51Z</time>
  <course>1.2</course>
  <speed>4.980010040150521</speed>
  <fix>3d</fix>
</trkpt>
<trkpt lat="40.0724541" lon="-105.2297906">
  <ele>1583.0</ele>
  <time>2026-08-28T17:55:51Z</time>
  <course>359.91</course>
  <speed>5.0</speed>
  <fix>3d</fix>
</trkpt>
<trkpt lat="40.0724644" lon="-105.2297903">
  <ele>1582.99</ele>
  <time>2026-08-28T17:55:51Z</time>
  <course>1.2</course>
  <speed>4.98</speed>
  <fix>3d</fix>
</trkpt>
<trkpt lat="40.0724541" lon="-105.2297906">
  <ele>1583.0</ele>
  <time>2026-08-28T17:55:51Z</time>
  <course>359.91</course>
  <speed>5.0</speed>
  <fix>3d</fix>
</trkpt>
<trkpt lat="40.0724689" lon="-105.2297903">
  <ele>1582.99</ele>
  <time>2026-08-28T17:55:51Z</time>
  <course>1.2</course>
  <speed>4.98</speed>
  <fix>3d</fix>
</trkpt>
<trkpt lat="40.0724541" lon="-105.2297906">
  <ele>1583.0</ele>
  <time>2026-08-28T17:55:51Z</time>
  <course>359.91</course>
  <speed>5.0</speed>
  <fix>3d</fix>
</trkpt>
<trkpt lat="40.0724734" lon="-105.2297903">
  <ele>1583.0</ele>
  <time>2026-08-28T17:55:51Z</time>
  <course>1.2</course>
  <speed>4.98</speed>
  <fix>3d</fix>
</trkpt>
<trkpt lat="40.072463" lon="-105.2297906">
  <ele>1583.0</ele>
  <time>2026-08-28T17:55:51Z</time>
  <course>359.91</course>
  <speed>4.99</speed>
  <fix>3d</fix>
</trkpt>
<trkpt lat="40.0724779" lon="-105.2297903">
  <ele>1583.0</ele>
  <time>2026-08-28T17:55:51Z</time>
  <course>1.2</course>
  <speed>4.97</speed>
  <fix>3d</fix>
</trkpt>
<trkpt lat="40.072463" lon="-105.2297906">
  <ele>1583.0</ele>
  <time>2026-08-28T17:55:51Z</time>
  <course>359.91</course>
  <speed>4.99</speed>
  <fix>3d</fix>
</trkpt>
<trkpt lat="40.0724823" lon="-105.2297903">
  <ele>1583.0</ele>
  <time>2026-08-28T17:55:51Z</time>
  <course>1.2</course>
  <speed>4.97</speed>
  <fix>3d</fix>
</trkpt>
<trkpt lat="40.0724721" lon="-105.2297906">
  <ele>1583.0</ele>
  <time>2026-08-28T17:55:51Z</time>
  <course>359.91</course>
  <speed>4.99</speed>
  <fix>3d</fix>
</trkpt>
<trkpt lat="40.0724868" lon="-105.2297904">
  <ele>1583.01</ele>
  <time>2026-08-28T17:55:51Z</time>
  <course>1.2</course>
  <speed>4.97</speed>
  <fix>3d</fix>
</trkpt>
<trkpt lat="40.0724721" lon="-105.2297906">
  <ele>1583.0</ele>
  <time>2026-08-28T17:55:51Z</time>
  <course>359.91</course>
  <speed>4.99</speed>
  <fix>3d</fix>
</trkpt>
<trkpt lat="40.0724912" lon="-105.2297904">
  <ele>1583.01</ele>
  <time>2026-08-28T17:55:51Z</time>
  <course>1.2</course>
  <speed>4.97</speed>
  <fix>3d</fix>
</trkpt>
<trkpt lat="40.072481" lon="-105.2297906">
  <ele>1583.0</ele>
  <time>2026-08-28T17:55:51Z</time>
  <course>359.91</course>
  <speed>4.99</speed>
  <fix>3d</fix>
</trkpt>
<trkpt lat="40.0724957" lon="-105.2297904">
  <ele>1583.01</ele>
  <time>2026-08-28T17:55:51Z</time>
  <course>1.2</course>
  <speed>4.96</speed>
  <fix>3d</fix>
</trkpt>
<trkpt lat="40.07249" lon="-105.2297906">
  <ele>1583.0</ele>
  <time>2026-08-28T17:55:51Z</time>
  <course>359.91</course>
  <speed>4.99</speed>
  <fix>3d</fix>
</trkpt>
<trkpt lat="40.0725002" lon="-105.2297904">
  <ele>1583.01</ele>
  <time>2026-08-28T17:55:51Z</time>
  <course>1.2</course>
  <speed>4.96</speed>
  <fix>3d</fix>
</trkpt>
<trkpt lat="40.07249" lon="-105.2297906">
  <ele>1583.0</ele>
  <time>2026-08-28T17:55:51Z</time>
  <course>359.91</course>
  <speed>4.99</speed>
  <fix>3d</fix>
</trkpt>
<trkpt lat="40.0725046" lon="-105.2297904">
  <ele>1583.01</ele>
  <time>2026-08-28T17:55:51Z</time>
  <course>1.2</course>
  <speed>4.96</speed>
  <fix>3d</fix>
</trkpt>
<trkpt lat="40.0724989" lon="-105.2297906">
  <ele>1583.0</ele>
  <time>2026-08-28T17:55:51Z</time>
  <course>359.91</course>
  <speed>4.99</speed>
  <fix>3d</fix>
</trkpt>
<trkpt lat="40.0725091" lon="-105.2297904">
  <ele>1583.01</ele>
  <time>2026-08-28T17:55:51Z</time>
  <course>1.2</course>
  <speed>4.97</speed>
  <fix>3d</fix>
</trkpt>
<trkpt lat="40.0724989" lon="-105.2297906">
  <ele>1583.0</ele>
  <time>2026-08-28T17:55:51Z</time>
  <course>359.91</course>
  <speed>4.99</speed>
  <fix>3d</fix>
</trkpt>
<trkpt lat="40.0725136" lon="-105.2297904">
  <ele>1583.02</ele>
  <time>2026-08-28T17:55:51Z</time>
  <course>1.2</course>
  <speed>4.97</speed>
  <fix>3d</fix>
</trkpt>
<trkpt lat="40.0725079" lon="-105.2297907">
  <ele>1583.0</ele>
  <time>2026-08-28T17:55:51Z</time>
  <course>359.91</course>
  <speed>4.99</speed>
  <fix>3d</fix>
</trkpt>
<trkpt lat="40.0725181" lon="-105.2297904">
  <ele>1583.02</ele>
  <time>2026-08-28T17:55:51Z</time>
  <course>1.19</course>
  <speed>4.97</speed>
  <fix>3d</fix>
</trkpt>
<trkpt lat="40.0725079" lon="-105.2297907">
  <ele>1583.0</ele>
  <time>2026-08-28T17:55:51Z</time>
  <course>359.91</course>
  <speed>4.99</speed>
  <fix>3d</fix>
</trkpt>
<trkpt lat="40.0725226" lon="-105.2297904">
  <ele>1583.02</ele>
  <time>2026-08-28T17:55:51Z</time>
  <course>1.19</course>
  <speed>4.97</speed>
  <fix>3d</fix>
</trkpt>
<trkpt lat="40.0725168" lon="-105.2297907">
  <ele>1583.0</ele>
  <time>2026-08-28T17:55:51Z</time>
  <course>359.91</course>
  <speed>4.99</speed>
  <fix>3d</fix>
</trkpt>
<trkpt lat="40.0725272" lon="-105.2297905">
  <ele>1583.01</ele>
  <time>2026-08-28T17:55:51Z</time>
  <course>1.19</course>
  <speed>4.97</speed>
  <fix>3d</fix>
</trkpt>
<trkpt lat="40.0725168" lon="-105.2297907">
  <ele>1583.0</ele>
  <time>2026-08-28T17:55:51Z</time>
  <course>359.91</course>
  <speed>4.99</speed>
  <fix>3d</fix>
</trkpt>
<trkpt lat="40.0725317" lon="-105.2297905">
  <ele>1583.01</ele>
  <time>2026-08-28T17:55:51Z</time>
  <course>1.19</course>
  <speed>4.97</speed>
  <fix>3d</fix>
</trkpt>
<trkpt lat="40.0725259" lon="-105.2297907">
  <ele>1583.0</ele>
  <time>2026-08-28T17:55:51Z</time>
  <course>359.91</course>
  <speed>4.99</speed>
  <fix>3d</fix>
</trkpt>
<trkpt lat="40.0725362" lon="-105.2297905">
  <ele>1583.01</ele>
  <time>2026-08-28T17:55:51Z</time>
  <course>1.19</course>
  <speed>4.97</speed>
  <fix>3d</fix>
</trkpt>
<trkpt lat="40.0725259" lon="-105.2297907">
  <ele>1583.0</ele>
  <time>2026-08-28T17:55:51Z</time>
  <course>359.91</course>
  <speed>4.99</speed>
  <fix>3d</fix>
</trkpt>
<trkpt lat="40.0725407" lon="-105.2297905">
  <ele>1583.01</ele>
  <time>2026-08-28T17:55:51Z</time>
  <course>1.19</course>
  <speed>4.97</speed>
  <fix>3d</fix>
</trkpt>
<trkpt lat="40.0725348" lon="-105.2297907">
  <ele>1583.0</ele>
  <time>2026-08-28T17:55:51Z</time>
  <course>359.91</course>
  <speed>4.99</speed>
  <fix>3d</fix>
</trkpt>
<trkpt lat="40.0725452" lon="-105.2297905">
  <ele>1583.01</ele>
  <time>2026-08-28T17:55:51Z</time>
  <course>1.19</course>
  <speed>4.98</speed>
  <fix>3d</fix>
</trkpt>
<trkpt lat="40.0725348" lon="-105.2297907">
  <ele>1583.0</ele>
  <time>2026-08-28T17:55:51Z</time>
  <course>359.91</course>
  <speed>4.99</speed>
  <fix>3d</fix>
</trkpt>
<trkpt lat="40.0725497" lon="-105.2297905">
  <ele>1583.01</ele>
  <time>2026-08-28T17:55:51Z</time>
  <course>1.19</course>
  <speed>4.98</speed>
  <fix>3d</fix>
</trkpt>
<trkpt lat="40.0725438" lon="-105.2297907">
  <ele>1583.0</ele>
  <time>2026-08-28T17:55:51Z</time>
  <course>359.91</course>
  <speed>4.99</speed>
  <fix>3d</fix>
</trkpt>
<trkpt lat="40.0725542" lon="-105.2297905">
  <ele>1583.01</ele>
  <time>2026-08-28T17:55:51Z</time>
  <course>1.19</course>
  <speed>4.98</speed>
  <fix>3d</fix>
</trkpt>
<trkpt lat="40.0725438" lon="-105.2297907">
  <ele>1583.0</ele>
  <time>2026-08-28T17:55:51Z</time>
  <course>359.91</course>
  <speed>4.99</speed>
  <fix>3d</fix>
</trkpt>
<trkpt lat="40.0725587" lon="-105.2297905">
  <ele>1583.01</ele>
  <time>2026-08-28T17:55:51Z</time>
  <course>1.19</course>
  <speed>4.98</speed>
  <fix>3d</fix>
</trkpt>
<trkpt lat="40.0725438" lon="-105.2297907">
  <ele>1583.0</ele>
  <time>2026-08-28T17:55:51Z</time>
  <course>359.91</course>
  <speed>4.99</speed>
  <fix>3d</fix>
</trkpt>
<trkpt lat="40.0725632" lon="-105.2297905">
  <ele>1583.01</ele>
  <time>2026-08-28T17:55:51Z</time>
  <course>1.19</course>
  <speed>4.97</speed>
  <fix>3d</fix>
</trkpt>
<trkpt lat="40.0725527" lon="-105.2297907">
  <ele>1583.0</ele>
  <time>2026-08-28T17:55:51Z</time>
  <course>359.91</course>
  <speed>4.99</speed>
  <fix>3d</fix>
</trkpt>
<trkpt lat="40.0725676" lon="-105.2297905">
  <ele>1583.01</ele>
  <time>2026-08-28T17:55:51Z</time>
  <course>1.19</course>
  <speed>4.97</speed>
  <fix>3d</fix>
</trkpt>
<trkpt lat="40.0725527" lon="-105.2297907">
  <ele>1583.0</ele>
  <time>2026-08-28T17:55:51Z</time>
  <course>359.91</course>
  <speed>4.99</speed>
  <fix>3d</fix>
</trkpt>
<trkpt lat="40.0725721" lon="-105.2297906">
  <ele>1583.01</ele>
  <time>2026-08-28T17:55:51Z</time>
  <course>1.19</course>
  <speed>4.97</speed>
  <fix>3d</fix>
</trkpt>
<trkpt lat="40.0725618" lon="-105.2297907">
  <ele>1583.0</ele>
  <time>2026-08-28T17:55:51Z</time>
  <course>359.91</course>
  <speed>4.99</speed>
  <fix>3d</fix>
</trkpt>
<trkpt lat="40.0725765" lon="-105.2297906">
  <ele>1583.01</ele>
  <time>2026-08-28T17:55:51Z</time>
  <course>1.19</course>
  <speed>4.97</speed>
  <fix>3d</fix>
</trkpt>
<trkpt lat="40.0725618" lon="-105.2297907">
  <ele>1583.0</ele>
  <time>2026-08-28T17:55:51Z</time>
  <course>359.91</course>
  <speed>4.99</speed>
  <fix>3d</fix>
</trkpt>
<trkpt lat="40.072581" lon="-105.2297906">
  <ele>1583.0</ele>
  <time>2026-08-28T17:55:51Z</time>
  <course>1.19</course>
  <speed>4.97</speed>
  <fix>3d</fix>
</trkpt>
<trkpt lat="40.0725707" lon="-105.2297907">
  <ele>1583.0</ele>
  <time>2026-08-28T17:55:51Z</time>
  <course>359.91</course>
  <speed>4.99</speed>
  <fix>3d</fix>
</trkpt>
<trkpt lat="40.0725854" lon="-105.2297906">
  <ele>1583.0</ele>
  <time>2026-08-28T17:55:51Z</time>
  <course>1.19</course>
  <speed>4.97</speed>
  <fix>3d</fix>
</trkpt>
<trkpt lat="40.0725707" lon="-105.2297907">
  <ele>1583.0</ele>
  <time>2026-08-28T17:55:51Z</time>
  <course>359.91</course>
  <speed>4.99</speed>
  <fix>3d</fix>
</trkpt>
<trkpt lat="40.0725899" lon="-105.2297906">
  <ele>1583.0</ele>
  <time>2026-08-28T17:55:51Z</time>
  <course>1.18</course>
  <speed>4.97</speed>
  <fix>3d</fix>
</trkpt>
<trkpt lat="40.0725797" lon="-105.2297907">
  <ele>1583.0</ele>
  <time>2026-08-28T17:55:51Z</time>
  <course>359.91</course>
  <speed>4.99</speed>
  <fix>3d</fix>
</trkpt>
<trkpt lat="40.0725943" lon="-105.2297906">
  <ele>1583.0</ele>
  <time>2026-08-28T17:55:51Z</time>
  <course>1.18</course>
  <speed>4.970010060351991</speed>
  <fix>3d</fix>
</trkpt>
<trkpt lat="40.0725887" lon="-105.2297907">
  <ele>1583.0</ele>
  <time>2026-08-28T17:55:51Z</time>
  <course>359.91</course>
  <speed>4.99</speed>
  <fix>3d</fix>
</trkpt>
<trkpt lat="40.0725988" lon="-105.2297906">
  <ele>1583.01</ele>
  <time>2026-08-28T17:55:51Z</time>
  <course>1.18</course>
  <speed>4.970010060351991</speed>
  <fix>3d</fix>
</trkpt>
<trkpt lat="40.0725887" lon="-105.2297907">
  <ele>1583.0</ele>
  <time>2026-08-28T17:55:51Z</time>
  <course>359.91</course>
  <speed>4.99</speed>
  <fix>3d</fix>
</trkpt>
<trkpt lat="40.0726032" lon="-105.2297906">
  <ele>1583.0</ele>
  <time>2026-08-28T17:55:51Z</time>
  <course>1.18</course>
  <speed>4.970010060351991</speed>
  <fix>3d</fix>
</trkpt>
<trkpt lat="40.0725977" lon="-105.2297907">
  <ele>1583.0</ele>
  <time>2026-08-28T17:55:51Z</time>
  <course>359.91</course>
  <speed>5.0</speed>
  <fix>3d</fix>
</trkpt>
<trkpt lat="40.0726077" lon="-105.2297906">
  <ele>1583.0</ele>
  <time>2026-08-28T17:55:51Z</time>
  <course>1.18</course>
  <speed>4.970010060351991</speed>
  <fix>3d</fix>
</trkpt>
<trkpt lat="40.0725977" lon="-105.2297907">
  <ele>1583.0</ele>
  <time>2026-08-28T17:55:51Z</time>
  <course>359.91</course>
  <speed>5.0</speed>
  <fix>3d</fix>
</trkpt>
<trkpt lat="40.0726123" lon="-105.2297906">
  <ele>1583.0</ele>
  <time>2026-08-28T17:55:51Z</time>
  <course>1.18</course>
  <speed>4.980010040150521</speed>
  <fix>3d</fix>
</trkpt>
<trkpt lat="40.0726066" lon="-105.2297908">
  <ele>1583.0</ele>
  <time>2026-08-28T17:55:51Z</time>
  <course>359.91</course>
  <speed>5.0</speed>
  <fix>3d</fix>
</trkpt>
<trkpt lat="40.0726168" lon="-105.2297906">
  <ele>1583.0</ele>
  <time>2026-08-28T17:55:51Z</time>
  <course>1.18</course>
  <speed>4.980010040150521</speed>
  <fix>3d</fix>
</trkpt>
<trkpt lat="40.0726066" lon="-105.2297908">
  <ele>1583.0</ele>
  <time>2026-08-28T17:55:51Z</time>
  <course>359.91</course>
  <speed>5.0</speed>
  <fix>3d</fix>
</trkpt>
<trkpt lat="40.0726213" lon="-105.2297906">
  <ele>1582.99</ele>
  <time>2026-08-28T17:55:51Z</time>
  <course>1.18</course>
  <speed>4.980010040150521</speed>
  <fix>3d</fix>
</trkpt>
<trkpt lat="40.0726157" lon="-105.2297909">
  <ele>1583.0</ele>
  <time>2026-08-28T17:55:51Z</time>
  <course>359.91</course>
  <speed>5.0</speed>
  <fix>3d</fix>
</trkpt>
<trkpt lat="40.0726259" lon="-105.2297906">
  <ele>1582.99</ele>
  <time>2026-08-28T17:55:51Z</time>
  <course>1.18</course>
  <speed>4.980010040150521</speed>
  <fix>3d</fix>
</trkpt>
<trkpt lat="40.0726157" lon="-105.2297909">
  <ele>1583.0</ele>
  <time>2026-08-28T17:55:51Z</time>
  <course>359.91</course>
  <speed>5.0</speed>
  <fix>3d</fix>
</trkpt>
<trkpt lat="40.0726304" lon="-105.2297906">
  <ele>1582.99</ele>
  <time>2026-08-28T17:55:51Z</time>
  <course>1.18</course>
  <speed>4.980010040150521</speed>
  <fix>3d</fix>
</trkpt>
<trkpt lat="40.0726247" lon="-105.2297909">
  <ele>1583.0</ele>
  <time>2026-08-28T17:55:51Z</time>
  <course>359.91</course>
  <speed>5.0</speed>
  <fix>3d</fix>
</trkpt>
<trkpt lat="40.0726349" lon="-105.2297906">
  <ele>1582.99</ele>
  <time>2026-08-28T17:55:51Z</time>
  <course>1.18</course>
  <speed>4.980010040150521</speed>
  <fix>3d</fix>
</trkpt>
<trkpt lat="40.0726247" lon="-105.2297909">
  <ele>1583.0</ele>
  <time>2026-08-28T17:55:51Z</time>
  <course>359.91</course>
  <speed>5.0</speed>
  <fix>3d</fix>
</trkpt>
<trkpt lat="40.0726395" lon="-105.2297906">
  <ele>1583.0</ele>
  <time>2026-08-28T17:55:51Z</time>
  <course>1.18</course>
  <speed>4.980010040150521</speed>
  <fix>3d</fix>
</trkpt>
<trkpt lat="40.0726337" lon="-105.2297909">
  <ele>1583.0</ele>
  <time>2026-08-28T17:55:51Z</time>
  <course>359.91</course>
  <speed>5.0</speed>
  <fix>3d</fix>
</trkpt>
<trkpt lat="40.072644" lon="-105.2297906">
  <ele>1583.0</ele>
  <time>2026-08-28T17:55:51Z</time>
  <course>1.18</course>
  <speed>4.980010040150521</speed>
  <fix>3d</fix>
</trkpt>
<trkpt lat="40.0726337" lon="-105.2297909">
  <ele>1583.0</ele>
  <time>2026-08-28T17:55:51Z</time>
  <course>359.91</course>
  <speed>5.0</speed>
  <fix>3d</fix>
</trkpt>
<trkpt lat="40.0726485" lon="-105.2297907">
  <ele>1583.0</ele>
  <time>2026-08-28T17:55:51Z</time>
  <course>1.18</course>
  <speed>4.980010040150521</speed>
  <fix>3d</fix>
</trkpt>
<trkpt lat="40.0726337" lon="-105.2297909">
  <ele>1583.0</ele>
  <time>2026-08-28T17:55:51Z</time>
  <course>359.91</course>
  <speed>5.0</speed>
  <fix>3d</fix>
</trkpt>
<trkpt lat="40.072653" lon="-105.2297907">
  <ele>1583.0</ele>
  <time>2026-08-28T17:55:51Z</time>
  <course>1.18</course>
  <speed>4.98</speed>
  <fix>3d</fix>
</trkpt>
<trkpt lat="40.0726427" lon="-105.2297909">
  <ele>1583.0</ele>
  <time>2026-08-28T17:55:51Z</time>
  <course>359.91</course>
  <speed>5.0</speed>
  <fix>3d</fix>
</trkpt>
<trkpt lat="40.0726575" lon="-105.2297907">
  <ele>1583.0</ele>
  <time>2026-08-28T17:55:51Z</time>
  <course>1.18</course>
  <speed>4.98</speed>
  <fix>3d</fix>
</trkpt>
<trkpt lat="40.0726427" lon="-105.2297909">
  <ele>1583.0</ele>
  <time>2026-08-28T17:55:51Z</time>
  <course>359.91</course>
  <speed>5.0</speed>
  <fix>3d</fix>
</trkpt>
<trkpt lat="40.0726619" lon="-105.2297907">
  <ele>1583.0</ele>
  <time>2026-08-28T17:55:51Z</time>
  <course>1.17</course>
  <speed>4.97</speed>
  <fix>3d</fix>
</trkpt>
<trkpt lat="40.0726516" lon="-105.2297909">
  <ele>1583.0</ele>
  <time>2026-08-28T17:55:51Z</time>
  <course>359.91</course>
  <speed>4.99</speed>
  <fix>3d</fix>
</trkpt>
<trkpt lat="40.0726664" lon="-105.2297907">
  <ele>1583.0</ele>
  <time>2026-08-28T17:55:51Z</time>
  <course>1.17</course>
  <speed>4.97</speed>
  <fix>3d</fix>
</trkpt>
<trkpt lat="40.0726516" lon="-105.2297909">
  <ele>1583.0</ele>
  <time>2026-08-28T17:55:51Z</time>
  <course>359.91</course>
  <speed>4.99</speed>
  <fix>3d</fix>
</trkpt>
<trkpt lat="40.0726708" lon="-105.2297907">
  <ele>1583.0</ele>
  <time>2026-08-28T17:55:51Z</time>
  <course>1.17</course>
  <speed>4.97</speed>
  <fix>3d</fix>
</trkpt>
<trkpt lat="40.0726606" lon="-105.2297909">
  <ele>1583.0</ele>
  <time>2026-08-28T17:55:51Z</time>
  <course>359.91</course>
  <speed>4.99</speed>
  <fix>3d</fix>
</trkpt>
<trkpt lat="40.0726753" lon="-105.2297907">
  <ele>1583.0</ele>
  <time>2026-08-28T17:55:51Z</time>
  <course>1.17</course>
  <speed>4.97</speed>
  <fix>3d</fix>
</trkpt>
<trkpt lat="40.0726606" lon="-105.2297909">
  <ele>1583.0</ele>
  <time>2026-08-28T17:55:51Z</time>
  <course>359.91</course>
  <speed>4.99</speed>
  <fix>3d</fix>
</trkpt>
<trkpt lat="40.0726797" lon="-105.2297907">
  <ele>1583.0</ele>
  <time>2026-08-28T17:55:51Z</time>
  <course>1.17</course>
  <speed>4.97</speed>
  <fix>3d</fix>
</trkpt>
<trkpt lat="40.0726696" lon="-105.2297909">
  <ele>1583.0</ele>
  <time>2026-08-28T17:55:51Z</time>
  <course>359.91</course>
  <speed>4.99</speed>
  <fix>3d</fix>
</trkpt>
<trkpt lat="40.0726842" lon="-105.2297907">
  <ele>1583.0</ele>
  <time>2026-08-28T17:55:51Z</time>
  <course>1.17</course>
  <speed>4.96</speed>
  <fix>3d</fix>
</trkpt>
<trkpt lat="40.0726786" lon="-105.2297909">
  <ele>1583.0</ele>
  <time>2026-08-28T17:55:51Z</time>
  <course>359.91</course>
  <speed>4.99</speed>
  <fix>3d</fix>
</trkpt>
<trkpt lat="40.0726887" lon="-105.2297907">
  <ele>1583.0</ele>
  <time>2026-08-28T17:55:51Z</time>
  <course>1.17</course>
  <speed>4.97</speed>
  <fix>3d</fix>
</trkpt>
<trkpt lat="40.0726786" lon="-105.2297909">
  <ele>1583.0</ele>
  <time>2026-08-28T17:55:51Z</time>
  <course>359.91</course>
  <speed>4.99</speed>
  <fix>3d</fix>
</trkpt>
<trkpt lat="40.0726931" lon="-105.2297907">
  <ele>1583.0</ele>
  <time>2026-08-28T17:55:51Z</time>
  <course>1.17</course>
  <speed>4.970010060351991</speed>
  <fix>3d</fix>
</trkpt>
<trkpt lat="40.0726875" lon="-105.2297909">
  <ele>1583.0</ele>
  <time>2026-08-28T17:55:51Z</time>
  <course>359.91</course>
  <speed>4.99</speed>
  <fix>3d</fix>
</trkpt>
<trkpt lat="40.0726976" lon="-105.2297907">
  <ele>1583.0</ele>
  <time>2026-08-28T17:55:51Z</time>
  <course>1.17</course>
  <speed>4.970010060351991</speed>
  <fix>3d</fix>
</trkpt>
<trkpt lat="40.0726875" lon="-105.2297909">
  <ele>1583.0</ele>
  <time>2026-08-28T17:55:51Z</time>
  <course>359.91</course>
  <speed>4.99</speed>
  <fix>3d</fix>
</trkpt>
<trkpt lat="40.0727021" lon="-105.2297907">
  <ele>1583.0</ele>
  <time>2026-08-28T17:55:51Z</time>
  <course>1.17</course>
  <speed>4.970010060351991</speed>
  <fix>3d</fix>
</trkpt>
<trkpt lat="40.0726964" lon="-105.2297909">
  <ele>1583.0</ele>
  <time>2026-08-28T17:55:51Z</time>
  <course>359.91</course>
  <speed>5.0</speed>
  <fix>3d</fix>
</trkpt>
<trkpt lat="40.0727067" lon="-105.2297908">
  <ele>1583.0</ele>
  <time>2026-08-28T17:55:51Z</time>
  <course>1.17</course>
  <speed>4.980010040150521</speed>
  <fix>3d</fix>
</trkpt>
<trkpt lat="40.0726964" lon="-105.2297909">
  <ele>1583.0</ele>
  <time>2026-08-28T17:55:51Z</time>
  <course>359.91</course>
  <speed>5.0</speed>
  <fix>3d</fix>
</trkpt>
<trkpt lat="40.0727112" lon="-105.2297908">
  <ele>1583.0</ele>
  <time>2026-08-28T17:55:51Z</time>
  <course>1.17</course>
  <speed>4.980010040150521</speed>
  <fix>3d</fix>
</trkpt>
<trkpt lat="40.0727055" lon="-105.2297909">
  <ele>1583.0</ele>
  <time>2026-08-28T17:55:51Z</time>
  <course>359.91</course>
  <speed>5.0</speed>
  <fix>3d</fix>
</trkpt>
<trkpt lat="40.0727157" lon="-105.2297908">
  <ele>1583.01</ele>
  <time>2026-08-28T17:55:51Z</time>
  <course>1.17</course>
  <speed>4.980010040150521</speed>
  <fix>3d</fix>
</trkpt>
<trkpt lat="40.0727055" lon="-105.2297909">
  <ele>1583.0</ele>
  <time>2026-08-28T17:55:51Z</time>
  <course>359.91</course>
  <speed>5.0</speed>
  <fix>3d</fix>
</trkpt>
<trkpt lat="40.0727202" lon="-105.2297908">
  <ele>1583.01</ele>
  <time>2026-08-28T17:55:51Z</time>
  <course>1.17</course>
  <speed>4.980010040150521</speed>
  <fix>3d</fix>
</trkpt>
<trkpt lat="40.0727145" lon="-105.229791">
  <ele>1583.0</ele>
  <time>2026-08-28T17:55:51Z</time>
  <course>359.91</course>
  <speed>5.0</speed>
  <fix>3d</fix>
</trkpt>
<trkpt lat="40.0727248" lon="-105.2297908">
  <ele>1583.01</ele>
  <time>2026-08-28T17:55:51Z</time>
  <course>1.17</course>
  <speed>4.980010040150521</speed>
  <fix>3d</fix>
</trkpt>
<trkpt lat="40.0727145" lon="-105.229791">
  <ele>1583.0</ele>
  <time>2026-08-28T17:55:51Z</time>
  <course>359.91</course>
  <speed>5.0</speed>
  <fix>3d</fix>
</trkpt>
<trkpt lat="40.0727293" lon="-105.2297908">
  <ele>1583.01</ele>
  <time>2026-08-28T17:55:51Z</time>
  <course>1.17</course>
  <speed>4.980010040150521</speed>
  <fix>3d</fix>
</trkpt>
<trkpt lat="40.0727234" lon="-105.2297911">
  <ele>1583.0</ele>
  <time>2026-08-28T17:55:51Z</time>
  <course>359.91</course>
  <speed>5.0</speed>
  <fix>3d</fix>
</trkpt>
<trkpt lat="40.0727338" lon="-105.2297908">
  <ele>1583.02</ele>
  <time>2026-08-28T17:55:51Z</time>
  <course>1.17</course>
  <speed>4.980010040150521</speed>
  <fix>3d</fix>
</trkpt>
<trkpt lat="40.0727234" lon="-105.2297911">
  <ele>1583.0</ele>
  <time>2026-08-28T17:55:51Z</time>
  <course>359.91</course>
  <speed>5.0</speed>
  <fix>3d</fix>
</trkpt>
<trkpt lat="40.0727383" lon="-105.2297908">
  <ele>1583.02</ele>
  <time>2026-08-28T17:55:51Z</time>
  <course>1.16</course>
  <speed>4.980010040150521</speed>
  <fix>3d</fix>
</trkpt>
<trkpt lat="40.0727325" lon="-105.2297911">
  <ele>1583.0</ele>
  <time>2026-08-28T17:55:51Z</time>
  <course>359.91</course>
  <speed>5.0</speed>
  <fix>3d</fix>
</trkpt>
<trkpt lat="40.0727428" lon="-105.2297908">
  <ele>1583.03</ele>
  <time>2026-08-28T17:55:51Z</time>
  <course>1.16</course>
  <speed>4.980010040150521</speed>
  <fix>3d</fix>
</trkpt>
<trkpt lat="40.0727325" lon="-105.2297911">
  <ele>1583.0</ele>
  <time>2026-08-28T17:55:51Z</time>
  <course>359.91</course>
  <speed>5.0</speed>
  <fix>3d</fix>
</trkpt>
<trkpt lat="40.0727473" lon="-105.2297908">
  <ele>1583.03</ele>
  <time>2026-08-28T17:55:51Z</time>
  <course>1.16</course>
  <speed>4.980010040150521</speed>
  <fix>3d</fix>
</trkpt>
<trkpt lat="40.0727325" lon="-105.2297911">
  <ele>1583.0</ele>
  <time>2026-08-28T17:55:51Z</time>
  <course>359.91</course>
  <speed>5.0</speed>
  <fix>3d</fix>
</trkpt>
<trkpt lat="40.0727518" lon="-105.2297908">
  <ele>1583.03</ele>
  <time>2026-08-28T17:55:51Z</time>
  <course>1.16</course>
  <speed>4.980010040150521</speed>
  <fix>3d</fix>
</trkpt>
<trkpt lat="40.0727414" lon="-105.2297911">
  <ele>1583.0</ele>
  <time>2026-08-28T17:55:51Z</time>
  <course>359.91</course>
  <speed>4.99</speed>
  <fix>3d</fix>
</trkpt>
<trkpt lat="40.0727563" lon="-105.2297908">
  <ele>1583.02</ele>
  <time>2026-08-28T17:55:51Z</time>
  <course>1.16</course>
  <speed>4.970010060351991</speed>
  <fix>3d</fix>
</trkpt>
<trkpt lat="40.0727414" lon="-105.2297911">
  <ele>1583.0</ele>
  <time>2026-08-28T17:55:51Z</time>
  <course>359.91</course>
  <speed>4.99</speed>
  <fix>3d</fix>
</trkpt>
<trkpt lat="40.0727607" lon="-105.2297909">
  <ele>1583.02</ele>
  <time>2026-08-28T17:55:51Z</time>
  <course>1.16</course>
  <speed>4.97</speed>
  <fix>3d</fix>
</trkpt>
<trkpt lat="40.0727505" lon="-105.2297911">
  <ele>1583.0</ele>
  <time>2026-08-28T17:55:51Z</time>
  <course>359.91</course>
  <speed>4.99</speed>
  <fix>3d</fix>
</trkpt>
<trkpt lat="40.0727652" lon="-105.2297909">
  <ele>1583.02</ele>
  <time>2026-08-28T17:55:51Z</time>
  <course>1.16</course>
  <speed>4.97</speed>
  <fix>3d</fix>
</trkpt>
<trkpt lat="40.0727505" lon="-105.2297911">
  <ele>1583.0</ele>
  <time>2026-08-28T17:55:51Z</time>
  <course>359.91</course>
  <speed>4.99</speed>
  <fix>3d</fix>
</trkpt>
<trkpt lat="40.0727696" lon="-105.2297909">
  <ele>1583.02</ele>
  <time>2026-08-28T17:55:51Z</time>
  <course>1.16</course>
  <speed>4.97</speed>
  <fix>3d</fix>
</trkpt>
<trkpt lat="40.0727594" lon="-105.2297911">
  <ele>1583.0</ele>
  <time>2026-08-28T17:55:51Z</time>
  <course>359.91</course>
  <speed>4.99</speed>
  <fix>3d</fix>
</trkpt>
<trkpt lat="40.0727741" lon="-105.2297909">
  <ele>1583.01</ele>
  <time>2026-08-28T17:55:51Z</time>
  <course>1.16</course>
  <speed>4.97</speed>
  <fix>3d</fix>
</trkpt>
<trkpt lat="40.0727684" lon="-105.2297911">
  <ele>1583.0</ele>
  <time>2026-08-28T17:55:51Z</time>
  <course>359.91</course>
  <speed>4.99</speed>
  <fix>3d</fix>
</trkpt>
<trkpt lat="40.0727786" lon="-105.2297909">
  <ele>1583.01</ele>
  <time>2026-08-28T17:55:51Z</time>
  <course>1.16</course>
  <speed>4.97</speed>
  <fix>3d</fix>
</trkpt>
<trkpt lat="40.0727684" lon="-105.2297911">
  <ele>1583.0</ele>
  <time>2026-08-28T17:55:51Z</time>
  <course>359.91</course>
  <speed>4.99</speed>
  <fix>3d</fix>
</trkpt>
<trkpt lat="40.072783" lon="-105.2297909">
  <ele>1583.0</ele>
  <time>2026-08-28T17:55:51Z</time>
  <course>1.16</course>
  <speed>4.97</speed>
  <fix>3d</fix>
</trkpt>
<trkpt lat="40.0727773" lon="-105.2297911">
  <ele>1583.0</ele>
  <time>2026-08-28T17:55:51Z</time>
  <course>359.91</course>
  <speed>4.99</speed>
  <fix>3d</fix>
</trkpt>
<trkpt lat="40.0727875" lon="-105.2297909">
  <ele>1583.0</ele>
  <time>2026-08-28T17:55:51Z</time>
  <course>1.16</course>
  <speed>4.97</speed>
  <fix>3d</fix>
</trkpt>
<trkpt lat="40.0727773" lon="-105.2297911">
  <ele>1583.0</ele>
  <time>2026-08-28T17:55:51Z</time>
  <course>359.91</course>
  <speed>4.99</speed>
  <fix>3d</fix>
</trkpt>
<trkpt lat="40.072792" lon="-105.2297909">
  <ele>1583.0</ele>
  <time>2026-08-28T17:55:51Z</time>
  <course>1.16</course>
  <speed>4.97</speed>
  <fix>3d</fix>
</trkpt>
<trkpt lat="40.0727863" lon="-105.2297911">
  <ele>1583.0</ele>
  <time>2026-08-28T17:55:51Z</time>
  <course>359.91</course>
  <speed>4.99</speed>
  <fix>3d</fix>
</trkpt>
<trkpt lat="40.0727965" lon="-105.2297909">
  <ele>1583.0</ele>
  <time>2026-08-28T17:55:51Z</time>
  <course>1.16</course>
  <speed>4.97</speed>
  <fix>3d</fix>
</trkpt>
<trkpt lat="40.0727863" lon="-105.2297911">
  <ele>1583.0</ele>
  <time>2026-08-28T17:55:51Z</time>
  <course>359.91</course>
  <speed>4.99</speed>
  <fix>3d</fix>
</trkpt>
<trkpt lat="40.072801" lon="-105.2297909">
  <ele>1583.01</ele>
  <time>2026-08-28T17:55:51Z</time>
  <course>1.16</course>
  <speed>4.97</speed>
  <fix>3d</fix>
</trkpt>
<trkpt lat="40.0727952" lon="-105.2297911">
  <ele>1583.0</ele>
  <time>2026-08-28T17:55:51Z</time>
  <course>359.91</course>
  <speed>4.99</speed>
  <fix>3d</fix>
</trkpt>
<trkpt lat="40.0728056" lon="-105.229791">
  <ele>1583.01</ele>
  <time>2026-08-28T17:55:51Z</time>
  <course>1.16</course>
  <speed>4.97</speed>
  <fix>3d</fix>
</trkpt>
<trkpt lat="40.0727952" lon="-105.2297911">
  <ele>1583.0</ele>
  <time>2026-08-28T17:55:51Z</time>
  <course>359.91</course>
  <speed>4.99</speed>
  <fix>3d</fix>
</trkpt>
<trkpt lat="40.0728101" lon="-105.229791">
  <ele>1583.01</ele>
  <time>2026-08-28T17:55:51Z</time>
  <course>1.16</course>
  <speed>4.980010040150521</speed>
  <fix>3d</fix>
</trkpt>
<trkpt lat="40.0728043" lon="-105.2297911">
  <ele>1583.0</ele>
  <time>2026-08-28T17:55:51Z</time>
  <course>359.91</course>
  <speed>4.99</speed>
  <fix>3d</fix>
</trkpt>
<trkpt lat="40.0728146" lon="-105.229791">
  <ele>1583.01</ele>
  <time>2026-08-28T17:55:51Z</time>
  <course>1.16</course>
  <speed>4.980010040150521</speed>
  <fix>3d</fix>
</trkpt>
<trkpt lat="40.0728043" lon="-105.2297911">
  <ele>1583.0</ele>
  <time>2026-08-28T17:55:51Z</time>
  <course>359.91</course>
  <speed>4.99</speed>
  <fix>3d</fix>
</trkpt>
<trkpt lat="40.0728191" lon="-105.229791">
  <ele>1583.02</ele>
  <time>2026-08-28T17:55:51Z</time>
  <course>1.15</course>
  <speed>4.980010040150521</speed>
  <fix>3d</fix>
</trkpt>
<trkpt lat="40.0728132" lon="-105.2297912">
  <ele>1583.0</ele>
  <time>2026-08-28T17:55:51Z</time>
  <course>359.91</course>
  <speed>4.99</speed>
  <fix>3d</fix>
</trkpt>
<trkpt lat="40.0728236" lon="-105.229791">
  <ele>1583.02</ele>
  <time>2026-08-28T17:55:51Z</time>
  <course>1.15</course>
  <speed>4.980010040150521</speed>
  <fix>3d</fix>
</trkpt>
<trkpt lat="40.0728132" lon="-105.2297912">
  <ele>1583.0</ele>
  <time>2026-08-28T17:55:51Z</time>
  <course>359.91</course>
  <speed>4.99</speed>
  <fix>3d</fix>
</trkpt>
<trkpt lat="40.0728281" lon="-105.229791">
  <ele>1583.02</ele>
  <time>2026-08-28T17:55:51Z</time>
  <course>1.15</course>
  <speed>4.980010040150521</speed>
  <fix>3d</fix>
</trkpt>
<trkpt lat="40.0728222" lon="-105.2297913">
  <ele>1583.0</ele>
  <time>2026-08-28T17:55:51Z</time>
  <course>359.91</course>
  <speed>4.99</speed>
  <fix>3d</fix>
</trkpt>
<trkpt lat="40.0728326" lon="-105.229791">
  <ele>1583.02</ele>
  <time>2026-08-28T17:55:51Z</time>
  <course>1.15</course>
  <speed>4.980010040150521</speed>
  <fix>3d</fix>
</trkpt>
<trkpt lat="40.0728222" lon="-105.2297913">
  <ele>1583.0</ele>
  <time>2026-08-28T17:55:51Z</time>
  <course>359.91</course>
  <speed>4.99</speed>
  <fix>3d</fix>
</trkpt>
<trkpt lat="40.0728371" lon="-105.229791">
  <ele>1583.02</ele>
  <time>2026-08-28T17:55:51Z</time>
  <course>1.15</course>
  <speed>4.980010040150521</speed>
  <fix>3d</fix>
</trkpt>
<trkpt lat="40.0728222" lon="-105.2297913">
  <ele>1583.0</ele>
  <time>2026-08-28T17:55:51Z</time>
  <course>359.91</course>
  <speed>4.99</speed>
  <fix>3d</fix>
</trkpt>
<trkpt lat="40.0728416" lon="-105.229791">
  <ele>1583.02</ele>
  <time>2026-08-28T17:55:51Z</time>
  <course>1.15</course>
  <speed>4.98</speed>
  <fix>3d</fix>
</trkpt>
<trkpt lat="40.0728311" lon="-105.2297913">
  <ele>1583.0</ele>
  <time>2026-08-28T17:55:51Z</time>
  <course>359.91</course>
  <speed>4.99</speed>
  <fix>3d</fix>
</trkpt>
<trkpt lat="40.0728461" lon="-105.229791">
  <ele>1583.02</ele>
  <time>2026-08-28T17:55:51Z</time>
  <course>1.15</course>
  <speed>4.97</speed>
  <fix>3d</fix>
</trkpt>
<trkpt lat="40.0728311" lon="-105.2297913">
  <ele>1583.0</ele>
  <time>2026-08-28T17:55:51Z</time>
  <course>359.91</course>
  <speed>4.99</speed>
  <fix>3d</fix>
</trkpt>
<trkpt lat="40.0728505" lon="-105.2297911">
  <ele>1583.03</ele>
  <time>2026-08-28T17:55:51Z</time>
  <course>1.15</course>
  <speed>4.97</speed>
  <fix>3d</fix>
</trkpt>
<trkpt lat="40.0728402" lon="-105.2297913">
  <ele>1583.0</ele>
  <time>2026-08-28T17:55:51Z</time>
  <course>359.91</course>
  <speed>4.99</speed>
  <fix>3d</fix>
</trkpt>
<trkpt lat="40.0728549" lon="-105.2297911">
  <ele>1583.03</ele>
  <time>2026-08-28T17:55:51Z</time>
  <course>1.15</course>
  <speed>4.97</speed>
  <fix>3d</fix>
</trkpt>
<trkpt lat="40.0728402" lon="-105.2297913">
  <ele>1583.0</ele>
  <time>2026-08-28T17:55:51Z</time>
  <course>359.91</course>
  <speed>4.99</speed>
  <fix>3d</fix>
</trkpt>
<trkpt lat="40.0728594" lon="-105.2297911">
  <ele>1583.03</ele>
  <time>2026-08-28T17:55:51Z</time>
  <course>1.15</course>
  <speed>4.97</speed>
  <fix>3d</fix>
</trkpt>
<trkpt lat="40.0728491" lon="-105.2297913">
  <ele>1583.0</ele>
  <time>2026-08-28T17:55:51Z</time>
  <course>359.91</course>
  <speed>4.99</speed>
  <fix>3d</fix>
</trkpt>
<trkpt lat="40.0728638" lon="-105.2297911">
  <ele>1583.03</ele>
  <time>2026-08-28T17:55:51Z</time>
  <course>1.15</course>
  <speed>4.97</speed>
  <fix>3d</fix>
</trkpt>
<trkpt lat="40.0728491" lon="-105.2297913">
  <ele>1583.0</ele>
  <time>2026-08-28T17:55:51Z</time>
  <course>359.91</course>
  <speed>4.99</speed>
  <fix>3d</fix>
</trkpt>
<trkpt lat="40.0728683" lon="-105.2297911">
  <ele>1583.03</ele>
  <time>2026-08-28T17:55:51Z</time>
  <course>1.15</course>
  <speed>4.97</speed>
  <fix>3d</fix>
</trkpt>
<trkpt lat="40.0728581" lon="-105.2297913">
  <ele>1583.0</ele>
  <time>2026-08-28T17:55:51Z</time>
  <course>359.91</course>
  <speed>4.99</speed>
  <fix>3d</fix>
</trkpt>
<trkpt lat="40.0728727" lon="-105.2297911">
  <ele>1583.04</ele>
  <time>2026-08-28T17:55:51Z</time>
  <course>1.15</course>
  <speed>4.97</speed>
  <fix>3d</fix>
</trkpt>
<trkpt lat="40.072867" lon="-105.2297913">
  <ele>1583.0</ele>
  <time>2026-08-28T17:55:51Z</time>
  <course>359.91</course>
  <speed>4.99</speed>
  <fix>3d</fix>
</trkpt>
<trkpt lat="40.0728772" lon="-105.2297911">
  <ele>1583.04</ele>
  <time>2026-08-28T17:55:51Z</time>
  <course>1.15</course>
  <speed>4.97</speed>
  <fix>3d</fix>
</trkpt>
<trkpt lat="40.072867" lon="-105.2297913">
  <ele>1583.0</ele>
  <time>2026-08-28T17:55:51Z</time>
  <course>359.91</course>
  <speed>4.99</speed>
  <fix>3d</fix>
</trkpt>
<trkpt lat="40.0728816" lon="-105.2297911">
  <ele>1583.05</ele>
  <time>2026-08-28T17:55:51Z</time>
  <course>1.15</course>
  <speed>4.97</speed>
  <fix>3d</fix>
</trkpt>
<trkpt lat="40.0728761" lon="-105.2297914">
  <ele>1583.0</ele>
  <time>2026-08-28T17:55:51Z</time>
  <course>359.91</course>
  <speed>5.0</speed>
  <fix>3d</fix>
</trkpt>
<trkpt lat="40.0728862" lon="-105.2297911">
  <ele>1583.05</ele>
  <time>2026-08-28T17:55:51Z</time>
  <course>1.15</course>
  <speed>4.97</speed>
  <fix>3d</fix>
</trkpt>
<trkpt lat="40.0728761" lon="-105.2297914">
  <ele>1583.0</ele>
  <time>2026-08-28T17:55:51Z</time>
  <course>359.91</course>
  <speed>5.0</speed>
  <fix>3d</fix>
</trkpt>
<trkpt lat="40.0728907" lon="-105.2297911">
  <ele>1583.05</ele>
  <time>2026-08-28T17:55:51Z</time>
  <course>1.14</course>
  <speed>4.98</speed>
  <fix>3d</fix>
</trkpt>
<trkpt lat="40.072885" lon="-105.2297914">
  <ele>1583.0</ele>
  <time>2026-08-28T17:55:51Z</time>
  <course>359.91</course>
  <speed>5.0</speed>
  <fix>3d</fix>
</trkpt>
<trkpt lat="40.0728952" lon="-105.2297912">
  <ele>1583.05</ele>
  <time>2026-08-28T17:55:51Z</time>
  <course>1.14</course>
  <speed>4.98</speed>
  <fix>3d</fix>
</trkpt>
<trkpt lat="40.072885" lon="-105.2297914">
  <ele>1583.0</ele>
  <time>2026-08-28T17:55:51Z</time>
  <course>359.91</course>
  <speed>5.0</speed>
  <fix>3d</fix>
</trkpt>
<trkpt lat="40.0728997" lon="-105.2297912">
  <ele>1583.05</ele>
  <time>2026-08-28T17:55:51Z</time>
  <course>1.14</course>
  <speed>4.98</speed>
  <fix>3d</fix>
</trkpt>
<trkpt lat="40.0728941" lon="-105.2297914">
  <ele>1583.0</ele>
  <time>2026-08-28T17:55:51Z</time>
  <course>359.91</course>
  <speed>5.0</speed>
  <fix>3d</fix>
</trkpt>
<trkpt lat="40.0729043" lon="-105.2297912">
  <ele>1583.05</ele>
  <time>2026-08-28T17:55:51Z</time>
  <course>1.14</course>
  <speed>4.98</speed>
  <fix>3d</fix>
</trkpt>
<trkpt lat="40.0728941" lon="-105.2297914">
  <ele>1583.0</ele>
  <time>2026-08-28T17:55:51Z</time>
  <course>359.91</course>
  <speed>5.0</speed>
  <fix>3d</fix>
</trkpt>
<trkpt lat="40.0729088" lon="-105.2297912">
  <ele>1583.05</ele>
  <time>2026-08-28T17:55:51Z</time>
  <course>1.14</course>
  <speed>4.98</speed>
  <fix>3d</fix>
</trkpt>
<trkpt lat="40.0729031" lon="-105.2297914">
  <ele>1583.0</ele>
  <time>2026-08-28T17:55:51Z</time>
  <course>359.91</course>
  <speed>5.0</speed>
  <fix>3d</fix>
</trkpt>
<trkpt lat="40.0729133" lon="-105.2297912">
  <ele>1583.05</ele>
  <time>2026-08-28T17:55:51Z</time>
  <course>1.14</course>
  <speed>4.99</speed>
  <fix>3d</fix>
</trkpt>
<trkpt lat="40.0729031" lon="-105.2297914">
  <ele>1583.0</ele>
  <time>2026-08-28T17:55:51Z</time>
  <course>359.91</course>
  <speed>5.0</speed>
  <fix>3d</fix>
</trkpt>
<trkpt lat="40.0729179" lon="-105.2297912">
  <ele>1583.05</ele>
  <time>2026-08-28T17:55:51Z</time>
  <course>1.14</course>
  <speed>4.99</speed>
  <fix>3d</fix>
</trkpt>
<trkpt lat="40.072912" lon="-105.2297914">
  <ele>1583.0</ele>
  <time>2026-08-28T17:55:51Z</time>
  <course>359.91</course>
  <speed>5.0</speed>
  <fix>3d</fix>
</trkpt>
<trkpt lat="40.0729224" lon="-105.2297912">
  <ele>1583.05</ele>
  <time>2026-08-28T17:55:51Z</time>
  <course>1.14</course>
  <speed>4.99</speed>
  <fix>3d</fix>
</trkpt>
<trkpt lat="40.072912" lon="-105.2297914">
  <ele>1583.0</ele>
  <time>2026-08-28T17:55:51Z</time>
  <course>359.91</course>
  <speed>5.0</speed>
  <fix>3d</fix>
</trkpt>
<trkpt lat="40.0729269" lon="-105.2297912">
  <ele>1583.05</ele>
  <time>2026-08-28T17:55:51Z</time>
  <course>1.14</course>
  <speed>4.99</speed>
  <fix>3d</fix>
</trkpt>
<trkpt lat="40.0729211" lon="-105.2297914">
  <ele>1583.0</ele>
  <time>2026-08-28T17:55:51Z</time>
  <course>359.91</course>
  <speed>5.0</speed>
  <fix>3d</fix>
</trkpt>
<trkpt lat="40.0729314" lon="-105.2297912">
  <ele>1583.05</ele>
  <time>2026-08-28T17:55:51Z</time>
  <course>1.14</course>
  <speed>4.98</speed>
  <fix>3d</fix>
</trkpt>
<trkpt lat="40.0729211" lon="-105.2297914">
  <ele>1583.0</ele>
  <time>2026-08-28T17:55:51Z</time>
  <course>359.91</course>
  <speed>5.0</speed>
  <fix>3d</fix>
</trkpt>
<trkpt lat="40.0729359" lon="-105.2297912">
  <ele>1583.05</ele>
  <time>2026-08-28T17:55:51Z</time>
  <course>1.14</course>
  <speed>4.98</speed>
  <fix>3d</fix>
</trkpt>
<trkpt lat="40.0729211" lon="-105.2297914">
  <ele>1583.0</ele>
  <time>2026-08-28T17:55:51Z</time>
  <course>359.91</course>
  <speed>5.0</speed>
  <fix>3d</fix>
</trkpt>
<trkpt lat="40.0729404" lon="-105.2297912">
  <ele>1583.05</ele>
  <time>2026-08-28T17:55:51Z</time>
  <course>1.14</course>
  <speed>4.98</speed>
  <fix>3d</fix>
</trkpt>
<trkpt lat="40.07293" lon="-105.2297914">
  <ele>1583.0</ele>
  <time>2026-08-28T17:55:51Z</time>
  <course>359.91</course>
  <speed>5.0</speed>
  <fix>3d</fix>
</trkpt>
<trkpt lat="40.0729449" lon="-105.2297912">
  <ele>1583.05</ele>
  <time>2026-08-28T17:55:51Z</time>
  <course>1.14</course>
  <speed>4.98</speed>
  <fix>3d</fix>
</trkpt>
<trkpt lat="40.07293" lon="-105.2297914">
  <ele>1583.0</ele>
  <time>2026-08-28T17:55:51Z</time>
  <course>359.91</course>
  <speed>5.0</speed>
  <fix>3d</fix>
</trkpt>
<trkpt lat="40.0729493" lon="-105.2297913">
  <ele>1583.04</ele>
  <time>2026-08-28T17:55:51Z</time>
  <course>1.14</course>
  <speed>4.97</speed>
  <fix>3d</fix>
</trkpt>
<trkpt lat="40.0729391" lon="-105.2297914">
  <ele>1583.0</ele>
  <time>2026-08-28T17:55:51Z</time>
  <course>359.91</course>
  <speed>4.99</speed>
  <fix>3d</fix>
</trkpt>
<trkpt lat="40.0729538" lon="-105.2297913">
  <ele>1583.04</ele>
  <time>2026-08-28T17:55:51Z</time>
  <course>1.14</course>
  <speed>4.970010060351991</speed>
  <fix>3d</fix>
</trkpt>
<trkpt lat="40.0729391" lon="-105.2297914">
  <ele>1583.0</ele>
  <time>2026-08-28T17:55:51Z</time>
  <course>359.91</course>
  <speed>4.99</speed>
  <fix>3d</fix>
</trkpt>
<trkpt lat="40.0729582" lon="-105.2297913">
  <ele>1583.04</ele>
  <time>2026-08-28T17:55:51Z</time>
  <course>1.14</course>
  <speed>4.970010060351991</speed>
  <fix>3d</fix>
</trkpt>
<trkpt lat="40.072948" lon="-105.2297914">
  <ele>1583.0</ele>
  <time>2026-08-28T17:55:51Z</time>
  <course>359.91</course>
  <speed>4.99</speed>
  <fix>3d</fix>
</trkpt>
<trkpt lat="40.0729627" lon="-105.2297913">
  <ele>1583.04</ele>
  <time>2026-08-28T17:55:51Z</time>
  <course>1.13</course>
  <speed>4.970010060351991</speed>
  <fix>3d</fix>
</trkpt>
<trkpt lat="40.072957" lon="-105.2297914">
  <ele>1583.0</ele>
  <time>2026-08-28T17:55:51Z</time>
  <course>359.91</course>
  <speed>4.99</speed>
  <fix>3d</fix>
</trkpt>
<trkpt lat="40.0729672" lon="-105.2297913">
  <ele>1583.04</ele>
  <time>2026-08-28T17:55:51Z</time>
  <course>1.13</course>
  <speed>4.970010060351991</speed>
  <fix>3d</fix>
</trkpt>
<trkpt lat="40.072957" lon="-105.2297914">
  <ele>1583.0</ele>
  <time>2026-08-28T17:55:51Z</time>
  <course>359.91</course>
  <speed>4.99</speed>
  <fix>3d</fix>
</trkpt>
<trkpt lat="40.0729717" lon="-105.2297913">
  <ele>1583.04</ele>
  <time>2026-08-28T17:55:51Z</time>
  <course>1.13</course>
  <speed>4.970010060351991</speed>
  <fix>3d</fix>
</trkpt>
<trkpt lat="40.0729659" lon="-105.2297914">
  <ele>1583.0</ele>
  <time>2026-08-28T17:55:51Z</time>
  <course>359.91</course>
  <speed>4.99</speed>
  <fix>3d</fix>
</trkpt>
<trkpt lat="40.0729761" lon="-105.2297913">
  <ele>1583.04</ele>
  <time>2026-08-28T17:55:51Z</time>
  <course>1.13</course>
  <speed>4.970010060351991</speed>
  <fix>3d</fix>
</trkpt>
<trkpt lat="40.0729659" lon="-105.2297914">
  <ele>1583.0</ele>
  <time>2026-08-28T17:55:51Z</time>
  <course>359.91</course>
  <speed>4.99</speed>
  <fix>3d</fix>
</trkpt>
<trkpt lat="40.0729806" lon="-105.2297913">
  <ele>1583.04</ele>
  <time>2026-08-28T17:55:51Z</time>
  <course>1.13</course>
  <speed>4.970010060351991</speed>
  <fix>3d</fix>
</trkpt>
<trkpt lat="40.0729749" lon="-105.2297915">
  <ele>1583.0</ele>
  <time>2026-08-28T17:55:51Z</time>
  <course>359.91</course>
  <speed>4.99</speed>
  <fix>3d</fix>
</trkpt>
<trkpt lat="40.0729851" lon="-105.2297913">
  <ele>1583.04</ele>
  <time>2026-08-28T17:55:51Z</time>
  <course>1.13</course>
  <speed>4.970010060351991</speed>
  <fix>3d</fix>
</trkpt>
<trkpt lat="40.0729749" lon="-105.2297915">
  <ele>1583.0</ele>
  <time>2026-08-28T17:55:51Z</time>
  <course>359.91</course>
  <speed>4.99</speed>
  <fix>3d</fix>
</trkpt>
<trkpt lat="40.0729896" lon="-105.2297913">
  <ele>1583.04</ele>
  <time>2026-08-28T17:55:51Z</time>
  <course>1.13</course>
  <speed>4.970010060351991</speed>
  <fix>3d</fix>
</trkpt>
<trkpt lat="40.0729838" lon="-105.2297916">
  <ele>1583.0</ele>
  <time>2026-08-28T17:55:51Z</time>
  <course>359.91</course>
  <speed>4.99</speed>
  <fix>3d</fix>
</trkpt>
<trkpt lat="40.0729942" lon="-105.2297913">
  <ele>1583.04</ele>
  <time>2026-08-28T17:55:51Z</time>
  <course>1.13</course>
  <speed>4.970010060351991</speed>
  <fix>3d</fix>
</trkpt>
<trkpt lat="40.0729838" lon="-105.2297916">
  <ele>1583.0</ele>
  <time>2026-08-28T17:55:51Z</time>
  <course>359.91</course>
  <speed>4.99</speed>
  <fix>3d</fix>
</trkpt>
<trkpt lat="40.0729987" lon="-105.2297913">
  <ele>1583.04</ele>
  <time>2026-08-28T17:55:51Z</time>
  <course>1.13</course>
  <speed>4.970010060351991</speed>
  <fix>3d</fix>
</trkpt>
<trkpt lat="40.0729929" lon="-105.2297916">
  <ele>1583.0</ele>
  <time>2026-08-28T17:55:51Z</time>
  <course>359.91</course>
  <speed>4.99</speed>
  <fix>3d</fix>
</trkpt>
<trkpt lat="40.0730032" lon="-105.2297913">
  <ele>1583.05</ele>
  <time>2026-08-28T17:55:51Z</time>
  <course>1.13</course>
  <speed>4.980010040150521</speed>
  <fix>3d</fix>
</trkpt>
<trkpt lat="40.0729929" lon="-105.2297916">
  <ele>1583.0</ele>
  <time>2026-08-28T17:55:51Z</time>
  <course>359.91</course>
  <speed>4.99</speed>
  <fix>3d</fix>
</trkpt>
<trkpt lat="40.0730077" lon="-105.2297913">
  <ele>1583.05</ele>
  <time>2026-08-28T17:55:51Z</time>
  <course>1.13</course>
  <speed>4.980010040150521</speed>
  <fix>3d</fix>
</trkpt>
<trkpt lat="40.0730018" lon="-105.2297916">
  <ele>1583.0</ele>
  <time>2026-08-28T17:55:51Z</time>
  <course>359.91</course>
  <speed>4.99</speed>
  <fix>3d</fix>
</trkpt>
<trkpt lat="40.0730122" lon="-105.2297913">
  <ele>1583.05</ele>
  <time>2026-08-28T17:55:51Z</time>
  <course>1.13</course>
  <speed>4.980010040150521</speed>
  <fix>3d</fix>
</trkpt>
<trkpt lat="40.0730018" lon="-105.2297916">
  <ele>1583.0</ele>
  <time>2026-08-28T17:55:51Z</time>
  <course>359.91</course>
  <speed>4.99</speed>
  <fix>3d</fix>
</trkpt>
<trkpt lat="40.0730167" lon="-105.2297913">
  <ele>1583.05</ele>
  <time>2026-08-28T17:55:51Z</time>
  <course>1.13</course>
  <speed>4.980010040150521</speed>
  <fix>3d</fix>
</trkpt>
<trkpt lat="40.0730108" lon="-105.2297916">
  <ele>1583.0</ele>
  <time>2026-08-28T17:55:51Z</time>
  <course>359.91</course>
  <speed>4.99</speed>
  <fix>3d</fix>
</trkpt>
<trkpt lat="40.0730212" lon="-105.2297914">
  <ele>1583.04</ele>
  <time>2026-08-28T17:55:51Z</time>
  <course>1.13</course>
  <speed>4.980010040150521</speed>
  <fix>3d</fix>
</trkpt>
<trkpt lat="40.0730108" lon="-105.2297916">
  <ele>1583.0</ele>
  <time>2026-08-28T17:55:51Z</time>
  <course>359.91</course>
  <speed>4.99</speed>
  <fix>3d</fix>
</trkpt>
<trkpt lat="40.0730257" lon="-105.2297914">
  <ele>1583.04</ele>
  <time>2026-08-28T17:55:51Z</time>
  <course>1.13</course>
  <speed>4.980010040150521</speed>
  <fix>3d</fix>
</trkpt>
<trkpt lat="40.0730108" lon="-105.2297916">
  <ele>1583.0</ele>
  <time>2026-08-28T17:55:51Z</time>
  <course>359.91</course>
  <speed>4.99</speed>
  <fix>3d</fix>
</trkpt>
<trkpt lat="40.0730302" lon="-105.2297914">
  <ele>1583.04</ele>
  <time>2026-08-28T17:55:51Z</time>
  <course>1.13</course>
  <speed>4.980010040150521</speed>
  <fix>3d</fix>
</trkpt>
<trkpt lat="40.0730198" lon="-105.2297916">
  <ele>1583.0</ele>
  <time>2026-08-28T17:55:51Z</time>
  <course>359.91</course>
  <speed>4.99</speed>
  <fix>3d</fix>
</trkpt>
<trkpt lat="40.0730347" lon="-105.2297914">
  <ele>1583.04</ele>
  <time>2026-08-28T17:55:51Z</time>
  <course>1.13</course>
  <speed>4.980010040150521</speed>
  <fix>3d</fix>
</trkpt>
<trkpt lat="40.0730198" lon="-105.2297916">
  <ele>1583.0</ele>
  <time>2026-08-28T17:55:51Z</time>
  <course>359.91</course>
  <speed>4.99</speed>
  <fix>3d</fix>
</trkpt>
<trkpt lat="40.0730391" lon="-105.2297914">
  <ele>1583.03</ele>
  <time>2026-08-28T17:55:51Z</time>
  <course>1.13</course>
  <speed>4.970010060351991</speed>
  <fix>3d</fix>
</trkpt>
<trkpt lat="40.0730288" lon="-105.2297916">
  <ele>1583.0</ele>
  <time>2026-08-28T17:55:51Z</time>
  <course>359.91</course>
  <speed>4.99</speed>
  <fix>3d</fix>
</trkpt>
<trkpt lat="40.0730436" lon="-105.2297914">
  <ele>1583.03</ele>
  <time>2026-08-28T17:55:51Z</time>
  <course>1.13</course>
  <speed>4.970010060351991</speed>
  <fix>3d</fix>
</trkpt>
<trkpt lat="40.0730288" lon="-105.2297916">
  <ele>1583.0</ele>
  <time>2026-08-28T17:55:51Z</time>
  <course>359.91</course>
  <speed>4.99</speed>
  <fix>3d</fix>
</trkpt>
<trkpt lat="40.073048" lon="-105.2297914">
  <ele>1583.02</ele>
  <time>2026-08-28T17:55:51Z</time>
  <course>1.12</course>
  <speed>4.970010060351991</speed>
  <fix>3d</fix>
</trkpt>
<trkpt lat="40.0730377" lon="-105.2297916">
  <ele>1583.0</ele>
  <time>2026-08-28T17:55:51Z</time>
  <course>359.91</course>
  <speed>4.99</speed>
  <fix>3d</fix>
</trkpt>
<trkpt lat="40.0730524" lon="-105.2297914">
  <ele>1583.02</ele>
  <time>2026-08-28T17:55:51Z</time>
  <course>1.12</course>
  <speed>4.970010060351991</speed>
  <fix>3d</fix>
</trkpt>
<trkpt lat="40.0730377" lon="-105.2297916">
  <ele>1583.0</ele>
  <time>2026-08-28T17:55:51Z</time>
  <course>359.91</course>
  <speed>4.99</speed>
  <fix>3d</fix>
</trkpt>
<trkpt lat="40.0730569" lon="-105.2297914">
  <ele>1583.02</ele>
  <time>2026-08-28T17:55:51Z</time>
  <course>1.12</course>
  <speed>4.970010060351991</speed>
  <fix>3d</fix>
</trkpt>
<trkpt lat="40.0730468" lon="-105.2297916">
  <ele>1583.0</ele>
  <time>2026-08-28T17:55:51Z</time>
  <course>359.91</course>
  <speed>4.99</speed>
  <fix>3d</fix>
</trkpt>
<trkpt lat="40.0730614" lon="-105.2297914">
  <ele>1583.02</ele>
  <time>2026-08-28T17:55:51Z</time>
  <course>1.12</course>
  <speed>4.970010060351991</speed>
  <fix>3d</fix>
</trkpt>
<trkpt lat="40.0730558" lon="-105.2297916">
  <ele>1583.0</ele>
  <time>2026-08-28T17:55:51Z</time>
  <course>359.91</course>
  <speed>4.99</speed>
  <fix>3d</fix>
</trkpt>
<trkpt lat="40.0730658" lon="-105.2297914">
  <ele>1583.02</ele>
  <time>2026-08-28T17:55:51Z</time>
  <course>1.12</course>
  <speed>4.970010060351991</speed>
  <fix>3d</fix>
</trkpt>
<trkpt lat="40.0730558" lon="-105.2297916">
  <ele>1583.0</ele>
  <time>2026-08-28T17:55:51Z</time>
  <course>359.91</course>
  <speed>4.99</speed>
  <fix>3d</fix>
</trkpt>
<trkpt lat="40.0730703" lon="-105.2297914">
  <ele>1583.02</ele>
  <time>2026-08-28T17:55:51Z</time>
  <course>1.12</course>
  <speed>4.970010060351991</speed>
  <fix>3d</fix>
</trkpt>
<trkpt lat="40.0730647" lon="-105.2297916">
  <ele>1583.0</ele>
  <time>2026-08-28T17:55:51Z</time>
  <course>359.91</course>
  <speed>5.0</speed>
  <fix>3d</fix>
</trkpt>
<trkpt lat="40.0730748" lon="-105.2297914">
  <ele>1583.02</ele>
  <time>2026-08-28T17:55:51Z</time>
  <course>1.12</course>
  <speed>4.980010040150521</speed>
  <fix>3d</fix>
</trkpt>
<trkpt lat="40.0730647" lon="-105.2297916">
  <ele>1583.0</ele>
  <time>2026-08-28T17:55:51Z</time>
  <course>359.91</course>
  <speed>5.0</speed>
  <fix>3d</fix>
</trkpt>
<trkpt lat="40.0730793" lon="-105.2297915">
  <ele>1583.01</ele>
  <time>2026-08-28T17:55:51Z</time>
  <course>1.12</course>
  <speed>4.980010040150521</speed>
  <fix>3d</fix>
</trkpt>
<trkpt lat="40.0730736" lon="-105.2297916">
  <ele>1583.0</ele>
  <time>2026-08-28T17:55:51Z</time>
  <course>359.91</course>
  <speed>5.0</speed>
  <fix>3d</fix>
</trkpt>
<trkpt lat="40.0730838" lon="-105.2297915">
  <ele>1583.01</ele>
  <time>2026-08-28T17:55:51Z</time>
  <course>1.12</course>
  <speed>4.980010040150521</speed>
  <fix>3d</fix>
</trkpt>
<trkpt lat="40.0730736" lon="-105.2297916">
  <ele>1583.0</ele>
  <time>2026-08-28T17:55:51Z</time>
  <course>359.91</course>
  <speed>5.0</speed>
  <fix>3d</fix>
</trkpt>
<trkpt lat="40.0730884" lon="-105.2297915">
  <ele>1583.01</ele>
  <time>2026-08-28T17:55:51Z</time>
  <course>1.12</course>
  <speed>4.980010040150521</speed>
  <fix>3d</fix>
</trkpt>
<trkpt lat="40.0730827" lon="-105.2297917">
  <ele>1583.0</ele>
  <time>2026-08-28T17:55:51Z</time>
  <course>359.91</course>
  <speed>5.0</speed>
  <fix>3d</fix>
</trkpt>
<trkpt lat="40.0730929" lon="-105.2297915">
  <ele>1583.01</ele>
  <time>2026-08-28T17:55:51Z</time>
  <course>1.12</course>
  <speed>4.980010040150521</speed>
  <fix>3d</fix>
</trkpt>
<trkpt lat="40.0730827" lon="-105.2297917">
  <ele>1583.0</ele>
  <time>2026-08-28T17:55:51Z</time>
  <course>359.91</course>
  <speed>5.0</speed>
  <fix>3d</fix>
</trkpt>
<trkpt lat="40.0730975" lon="-105.2297915">
  <ele>1583.01</ele>
  <time>2026-08-28T17:55:51Z</time>
  <course>1.12</course>
  <speed>4.980010040150521</speed>
  <fix>3d</fix>
</trkpt>
<trkpt lat="40.0730916" lon="-105.2297918">
  <ele>1583.0</ele>
  <time>2026-08-28T17:55:51Z</time>
  <course>359.91</course>
  <speed>5.0</speed>
  <fix>3d</fix>
</trkpt>
<trkpt lat="40.073102" lon="-105.2297915">
  <ele>1583.0</ele>
  <time>2026-08-28T17:55:51Z</time>
  <course>1.12</course>
  <speed>4.980010040150521</speed>
  <fix>3d</fix>
</trkpt>
<trkpt lat="40.0730916" lon="-105.2297918">
  <ele>1583.0</ele>
  <time>2026-08-28T17:55:51Z</time>
  <course>359.91</course>
  <speed>5.0</speed>
  <fix>3d</fix>
</trkpt>
<trkpt lat="40.0731065" lon="-105.2297915">
  <ele>1583.0</ele>
  <time>2026-08-28T17:55:51Z</time>
  <course>1.12</course>
  <speed>4.99001002003002</speed>
  <fix>3d</fix>
</trkpt>
<trkpt lat="40.0731007" lon="-105.2297918">
  <ele>1583.0</ele>
  <time>2026-08-28T17:55:51Z</time>
  <course>359.91</course>
  <speed>5.0</speed>
  <fix>3d</fix>
</trkpt>
<trkpt lat="40.073111" lon="-105.2297915">
  <ele>1583.0</ele>
  <time>2026-08-28T17:55:51Z</time>
  <course>1.12</course>
  <speed>4.99001002003002</speed>
  <fix>3d</fix>
</trkpt>
<trkpt lat="40.0731007" lon="-105.2297918">
  <ele>1583.0</ele>
  <time>2026-08-28T17:55:51Z</time>
  <course>359.91</course>
  <speed>5.0</speed>
  <fix>3d</fix>
</trkpt>
<trkpt lat="40.0731155" lon="-105.2297915">
  <ele>1583.0</ele>
  <time>2026-08-28T17:55:51Z</time>
  <course>1.12</course>
  <speed>4.980010040150521</speed>
  <fix>3d</fix>
</trkpt>
<trkpt lat="40.0731097" lon="-105.2297918">
  <ele>1583.0</ele>
  <time>2026-08-28T17:55:51Z</time>
  <course>359.91</course>
  <speed>5.0</speed>
  <fix>3d</fix>
</trkpt>
<trkpt lat="40.0731201" lon="-105.2297915">
  <ele>1582.99</ele>
  <time>2026-08-28T17:55:51Z</time>
  <course>1.12</course>
  <speed>4.980010040150521</speed>
  <fix>3d</fix>
</trkpt>
<trkpt lat="40.0731097" lon="-105.2297918">
  <ele>1583.0</ele>
  <time>2026-08-28T17:55:51Z</time>
  <course>359.91</course>
  <speed>5.0</speed>
  <fix>3d</fix>
</trkpt>
<trkpt lat="40.0731246" lon="-105.2297916">
  <ele>1582.99</ele>
  <time>2026-08-28T17:55:51Z</time>
  <course>1.12</course>
  <speed>4.980010040150521</speed>
  <fix>3d</fix>
</trkpt>
<trkpt lat="40.0731097" lon="-105.2297918">
  <ele>1583.0</ele>
  <time>2026-08-28T17:55:51Z</time>
  <course>359.91</course>
  <speed>5.0</speed>
  <fix>3d</fix>
</trkpt>
<trkpt lat="40.073129" lon="-105.2297916">
  <ele>1582.99</ele>
  <time>2026-08-28T17:55:51Z</time>
  <course>1.11</course>
  <speed>4.980010040150521</speed>
  <fix>3d</fix>
</trkpt>
<trkpt lat="40.0731186" lon="-105.2297918">
  <ele>1583.0</ele>
  <time>2026-08-28T17:55:51Z</time>
  <course>359.91</course>
  <speed>5.0</speed>
  <fix>3d</fix>
</trkpt>
<trkpt lat="40.0731335" lon="-105.2297916">
  <ele>1582.99</ele>
  <time>2026-08-28T17:55:51Z</time>
  <course>1.11</course>
  <speed>4.970010060351991</speed>
  <fix>3d</fix>
</trkpt>
<trkpt lat="40.0731186" lon="-105.2297918">
  <ele>1583.0</ele>
  <time>2026-08-28T17:55:51Z</time>
  <course>359.91</course>
  <speed>5.0</speed>
  <fix>3d</fix>
</trkpt>
<trkpt lat="40.073138" lon="-105.2297916">
  <ele>1582.99</ele>
  <time>2026-08-28T17:55:52Z</time>
  <course>1.11</course>
  <speed>4.970010060351991</speed>
  <fix>3d</fix>
</trkpt>
<trkpt lat="40.0731277" lon="-105.2297918">
  <ele>1583.0</ele>
  <time>2026-08-28T17:55:52Z</time>
  <course>359.91</course>
  <speed>4.99</speed>
  <fix>3d</fix>
</trkpt>
<trkpt lat="40.0731424" lon="-105.2297916">
  <ele>1582.99</ele>
  <time>2026-08-28T17:55:52Z</time>
  <course>1.11</course>
  <speed>4.970010060351991</speed>
  <fix>3d</fix>
</trkpt>
<trkpt lat="40.0731277" lon="-105.2297918">
  <ele>1583.0</ele>
  <time>2026-08-28T17:55:52Z</time>
  <course>359.91</course>
  <speed>4.99</speed>
  <fix>3d</fix>
</trkpt>
<trkpt lat="40.0731468" lon="-105.2297916">
  <ele>1582.98</ele>
  <time>2026-08-28T17:55:52Z</time>
  <course>1.11</course>
  <speed>4.970010060351991</speed>
  <fix>3d</fix>
</trkpt>
<trkpt lat="40.0731366" lon="-105.2297918">
  <ele>1583.0</ele>
  <time>2026-08-28T17:55:52Z</time>
  <course>359.91</course>
  <speed>4.99</speed>
  <fix>3d</fix>
</trkpt>
<trkpt lat="40.0731513" lon="-105.2297916">
  <ele>1582.98</ele>
  <time>2026-08-28T17:55:52Z</time>
  <course>1.11</course>
  <speed>4.970010060351991</speed>
  <fix>3d</fix>
</trkpt>
<trkpt lat="40.0731457" lon="-105.2297919">
  <ele>1583.0</ele>
  <time>2026-08-28T17:55:52Z</time>
  <course>359.91</course>
  <speed>4.99</speed>
  <fix>3d</fix>
</trkpt>
<trkpt lat="40.0731558" lon="-105.2297916">
  <ele>1582.98</ele>
  <time>2026-08-28T17:55:52Z</time>
  <course>1.11</course>
  <speed>4.970010060351991</speed>
  <fix>3d</fix>
</trkpt>
<trkpt lat="40.0731457" lon="-105.2297919">
  <ele>1583.0</ele>
  <time>2026-08-28T17:55:52Z</time>
  <course>359.91</course>
  <speed>4.99</speed>
  <fix>3d</fix>
</trkpt>
<trkpt lat="40.0731603" lon="-105.2297916">
  <ele>1582.98</ele>
  <time>2026-08-28T17:55:52Z</time>
  <course>1.11</course>
  <speed>4.970010060351991</speed>
  <fix>3d</fix>
</trkpt>
<trkpt lat="40.0731546" lon="-105.2297919">
  <ele>1583.0</ele>
  <time>2026-08-28T17:55:52Z</time>
  <course>359.91</course>
  <speed>4.99</speed>
  <fix>3d</fix>
</trkpt>
<trkpt lat="40.0731648" lon="-105.2297916">
  <ele>1582.98</ele>
  <time>2026-08-28T17:55:52Z</time>
  <course>1.11</course>
  <speed>4.97</speed>
  <fix>3d</fix>
</trkpt>
<trkpt lat="40.0731546" lon="-105.2297919">
  <ele>1583.0</ele>
  <time>2026-08-28T17:55:52Z</time>
  <course>359.91</course>
  <speed>4.99</speed>
  <fix>3d</fix>
</trkpt>
<trkpt lat="40.0731693" lon="-105.2297917">
  <ele>1582.98</ele>
  <time>2026-08-28T17:55:52Z</time>
  <course>1.11</course>
  <speed>4.97</speed>
  <fix>3d</fix>
</trkpt>
<trkpt lat="40.0731636" lon="-105.2297919">
  <ele>1583.0</ele>
  <time>2026-08-28T17:55:52Z</time>
  <course>359.91</course>
  <speed>4.99</speed>
  <fix>3d</fix>
</trkpt>
<trkpt lat="40.0731738" lon="-105.2297917">
  <ele>1582.98</ele>
  <time>2026-08-28T17:55:52Z</time>
  <course>1.11</course>
  <speed>4.97</speed>
  <fix>3d</fix>
</trkpt>
<trkpt lat="40.0731636" lon="-105.2297919">
  <ele>1583.0</ele>
  <time>2026-08-28T17:55:52Z</time>
  <course>359.91</course>
  <speed>4.99</speed>
  <fix>3d</fix>
</trkpt>
<trkpt lat="40.0731783" lon="-105.2297917">
  <ele>1582.98</ele>
  <time>2026-08-28T17:55:52Z</time>
  <course>1.12</course>
  <speed>4.970010060351991</speed>
  <fix>3d</fix>
</trkpt>
<trkpt lat="40.0731725" lon="-105.2297919">
  <ele>1583.0</ele>
  <time>2026-08-28T17:55:52Z</time>
  <course>359.92</course>
  <speed>4.99</speed>
  <fix>3d</fix>
</trkpt>
<trkpt lat="40.0731828" lon="-105.2297917">
  <ele>1582.98</ele>
  <time>2026-08-28T17:55:52Z</time>
  <course>1.12</course>
  <speed>4.980010040150521</speed>
  <fix>3d</fix>
</trkpt>
<trkpt lat="40.0731725" lon="-105.2297919">
  <ele>1583.0</ele>
  <time>2026-08-28T17:55:52Z</time>
  <course>359.92</course>
  <speed>4.99</speed>
  <fix>3d</fix>
</trkpt>
<trkpt lat="40.0731873" lon="-105.2297917">
  <ele>1582.98</ele>
  <time>2026-08-28T17:55:52Z</time>
  <course>1.14</course>
  <speed>4.980010040150521</speed>
  <fix>3d</fix>
</trkpt>
<trkpt lat="40.0731816" lon="-105.2297919">
  <ele>1583.0</ele>
  <time>2026-08-28T17:55:52Z</time>
  <course>359.93</course>
  <speed>4.99</speed>
  <fix>3d</fix>
</trkpt>
<trkpt lat="40.0731919" lon="-105.2297917">
  <ele>1582.98</ele>
  <time>2026-08-28T17:55:52Z</time>
  <course>1.13</course>
  <speed>4.980010040150521</speed>
  <fix>3d</fix>
</trkpt>
<trkpt lat="40.0731816" lon="-105.2297919">
  <ele>1583.0</ele>
  <time>2026-08-28T17:55:52Z</time>
  <course>359.93</course>
  <speed>4.99</speed>
  <fix>3d</fix>
</trkpt>
<trkpt lat="40.0731964" lon="-105.2297917">
  <ele>1582.98</ele>
  <time>2026-08-28T17:55:52Z</time>
  <course>1.15</course>
  <speed>4.980010040150521</speed>
  <fix>3d</fix>
</trkpt>
<trkpt lat="40.0731905" lon="-105.2297919">
  <ele>1583.0</ele>
  <time>2026-08-28T17:55:52Z</time>
  <course>359.95</course>
  <speed>4.99</speed>
  <fix>3d</fix>
</trkpt>
<trkpt lat="40.0732009" lon="-105.2297917">
  <ele>1582.98</ele>
  <time>2026-08-28T17:55:52Z</time>
  <course>1.15</course>
  <speed>4.980010040150521</speed>
  <fix>3d</fix>
</trkpt>
<trkpt lat="40.0731905" lon="-105.2297919">
  <ele>1583.0</ele>
  <time>2026-08-28T17:55:52Z</time>
  <course>359.95</course>
  <speed>4.99</speed>
  <fix>3d</fix>
</trkpt>
<trkpt lat="40.0732054" lon="-105.2297917">
  <ele>1582.98</ele>
  <time>2026-08-28T17:55:52Z</time>
  <course>1.16</course>
  <speed>4.980010040150521</speed>
  <fix>3d</fix>
</trkpt>
<trkpt lat="40.0731995" lon="-105.2297919">
  <ele>1583.0</ele>
  <time>2026-08-28T17:55:52Z</time>
  <course>359.96</course>
  <speed>4.99</speed>
  <fix>3d</fix>
</trkpt>
<trkpt lat="40.0732099" lon="-105.2297917">
  <ele>1582.98</ele>
  <time>2026-08-28T17:55:52Z</time>
  <course>1.16</course>
  <speed>4.980010040150521</speed>
  <fix>3d</fix>
</trkpt>
<trkpt lat="40.0731995" lon="-105.2297919">
  <ele>1583.0</ele>
  <time>2026-08-28T17:55:52Z</time>
  <course>359.96</course>
  <speed>4.99</speed>
  <fix>3d</fix>
</trkpt>
<trkpt lat="40.0732144" lon="-105.2297917">
  <ele>1582.98</ele>
  <time>2026-08-28T17:55:52Z</time>
  <course>1.17</course>
  <speed>4.980010040150521</speed>
  <fix>3d</fix>
</trkpt>
<trkpt lat="40.0731995" lon="-105.2297919">
  <ele>1583.0</ele>
  <time>2026-08-28T17:55:52Z</time>
  <course>359.96</course>
  <speed>4.99</speed>
  <fix>3d</fix>
</trkpt>
<trkpt lat="40.0732189" lon="-105.2297917">
  <ele>1582.98</ele>
  <time>2026-08-28T17:55:52Z</time>
  <course>1.17</course>
  <speed>4.970010060351991</speed>
  <fix>3d</fix>
</trkpt>
<trkpt lat="40.0732084" lon="-105.2297919">
  <ele>1583.0</ele>
  <time>2026-08-28T17:55:52Z</time>
  <course>359.97</course>
  <speed>4.99</speed>
  <fix>3d</fix>
</trkpt>
<trkpt lat="40.0732233" lon="-105.2297917">
  <ele>1582.98</ele>
  <time>2026-08-28T17:55:52Z</time>
  <course>1.17</course>
  <speed>4.970010060351991</speed>
  <fix>3d</fix>
</trkpt>
<trkpt lat="40.0732084" lon="-105.2297919">
  <ele>1583.0</ele>
  <time>2026-08-28T17:55:52Z</time>
  <course>359.97</course>
  <speed>4.99</speed>
  <fix>3d</fix>
</trkpt>
<trkpt lat="40.0732278" lon="-105.2297917">
  <ele>1582.98</ele>
  <time>2026-08-28T17:55:52Z</time>
  <course>1.17</course>
  <speed>4.970010060351991</speed>
  <fix>3d</fix>
</trkpt>
<trkpt lat="40.0732175" lon="-105.2297919">
  <ele>1583.0</ele>
  <time>2026-08-28T17:55:52Z</time>
  <course>359.98</course>
  <speed>4.99</speed>
  <fix>3d</fix>
</trkpt>
<trkpt lat="40.0732322" lon="-105.2297917">
  <ele>1582.98</ele>
  <time>2026-08-28T17:55:52Z</time>
  <course>1.17</course>
  <speed>4.970010060351991</speed>
  <fix>3d</fix>
</trkpt>
<trkpt lat="40.0732175" lon="-105.2297919">
  <ele>1583.0</ele>
  <time>2026-08-28T17:55:52Z</time>
  <course>359.98</course>
  <speed>4.99</speed>
  <fix>3d</fix>
</trkpt>
<trkpt lat="40.0732367" lon="-105.2297917">
  <ele>1582.98</ele>
  <time>2026-08-28T17:55:52Z</time>
  <course>1.18</course>
  <speed>4.970010060351991</speed>
  <fix>3d</fix>
</trkpt>
<trkpt lat="40.0732265" lon="-105.2297919">
  <ele>1583.0</ele>
  <time>2026-08-28T17:55:52Z</time>
  <course>359.98</course>
  <speed>4.99</speed>
  <fix>3d</fix>
</trkpt>
<trkpt lat="40.0732411" lon="-105.2297917">
  <ele>1582.97</ele>
  <time>2026-08-28T17:55:52Z</time>
  <course>1.18</course>
  <speed>4.970010060351991</speed>
  <fix>3d</fix>
</trkpt>
<trkpt lat="40.0732354" lon="-105.2297919">
  <ele>1583.0</ele>
  <time>2026-08-28T17:55:52Z</time>
  <course>359.99</course>
  <speed>4.99</speed>
  <fix>3d</fix>
</trkpt>
<trkpt lat="40.0732456" lon="-105.2297917">
  <ele>1582.97</ele>
  <time>2026-08-28T17:55:52Z</time>
  <course>1.18</course>
  <speed>4.970010060351991</speed>
  <fix>3d</fix>
</trkpt>
<trkpt lat="40.0732354" lon="-105.2297919">
  <ele>1583.0</ele>
  <time>2026-08-28T17:55:52Z</time>
  <course>359.99</course>
  <speed>4.99</speed>
  <fix>3d</fix>
</trkpt>
<trkpt lat="40.0732501" lon="-105.2297917">
  <ele>1582.97</ele>
  <time>2026-08-28T17:55:52Z</time>
  <course>1.18</course>
  <speed>4.970010060351991</speed>
  <fix>3d</fix>
</trkpt>
<trkpt lat="40.0732443" lon="-105.2297919">
  <ele>1583.0</ele>
  <time>2026-08-28T17:55:52Z</time>
  <course>359.99</course>
  <speed>4.99</speed>
  <fix>3d</fix>
</trkpt>
<trkpt lat="40.0732546" lon="-105.2297917">
  <ele>1582.97</ele>
  <time>2026-08-28T17:55:52Z</time>
  <course>1.18</course>
  <speed>4.970010060351991</speed>
  <fix>3d</fix>
</trkpt>
<trkpt lat="40.0732443" lon="-105.2297919">
  <ele>1583.0</ele>
  <time>2026-08-28T17:55:52Z</time>
  <course>359.99</course>
  <speed>4.99</speed>
  <fix>3d</fix>
</trkpt>
<trkpt lat="40.0732591" lon="-105.2297917">
  <ele>1582.97</ele>
  <time>2026-08-28T17:55:52Z</time>
  <course>1.19</course>
  <speed>4.970040241285778</speed>
  <fix>3d</fix>
</trkpt>
<trkpt lat="40.0732534" lon="-105.2297919">
  <ele>1583.0</ele>
  <time>2026-08-28T17:55:52Z</time>
  <course>0.0</course>
  <speed>5.0</speed>
  <fix>3d</fix>
</trkpt>
<trkpt lat="40.0732636" lon="-105.2297917">
  <ele>1582.97</ele>
  <time>2026-08-28T17:55:52Z</time>
  <course>1.19</course>
  <speed>4.980040160480636</speed>
  <fix>3d</fix>
</trkpt>
<trkpt lat="40.0732534" lon="-105.2297919">
  <ele>1583.0</ele>
  <time>2026-08-28T17:55:52Z</time>
  <course>0.0</course>
  <speed>5.0</speed>
  <fix>3d</fix>
</trkpt>
<trkpt lat="40.0732681" lon="-105.2297917">
  <ele>1582.97</ele>
  <time>2026-08-28T17:55:52Z</time>
  <course>1.19</course>
  <speed>4.980040160480636</speed>
  <fix>3d</fix>
</trkpt>
<trkpt lat="40.0732624" lon="-105.2297919">
  <ele>1583.0</ele>
  <time>2026-08-28T17:55:52Z</time>
  <course>0.01</course>
  <speed>5.0</speed>
  <fix>3d</fix>
</trkpt>
<trkpt lat="40.0732726" lon="-105.2297917">
  <ele>1582.97</ele>
  <time>2026-08-28T17:55:52Z</time>
  <course>1.19</course>
  <speed>4.980040160480636</speed>
  <fix>3d</fix>
</trkpt>
<trkpt lat="40.0732624" lon="-105.2297919">
  <ele>1583.0</ele>
  <time>2026-08-28T17:55:52Z</time>
  <course>0.01</course>
  <speed>5.0</speed>
  <fix>3d</fix>
</trkpt>
<trkpt lat="40.0732772" lon="-105.2297917">
  <ele>1582.97</ele>
  <time>2026-08-28T17:55:52Z</time>
  <course>1.21</course>
  <speed>4.980040160480636</speed>
  <fix>3d</fix>
</trkpt>
<trkpt lat="40.0732713" lon="-105.2297919">
  <ele>1583.0</ele>
  <time>2026-08-28T17:55:52Z</time>
  <course>0.01</course>
  <speed>5.0</speed>
  <fix>3d</fix>
</trkpt>
<trkpt lat="40.0732817" lon="-105.2297917">
  <ele>1582.98</ele>
  <time>2026-08-28T17:55:52Z</time>
  <course>1.21</course>
  <speed>4.980040160480636</speed>
  <fix>3d</fix>
</trkpt>
<trkpt lat="40.0732713" lon="-105.2297919">
  <ele>1583.0</ele>
  <time>2026-08-28T17:55:52Z</time>
  <course>0.01</course>
  <speed>5.0</speed>
  <fix>3d</fix>
</trkpt>
<trkpt lat="40.0732862" lon="-105.2297917">
  <ele>1582.98</ele>
  <time>2026-08-28T17:55:52Z</time>
  <course>1.21</course>
  <speed>4.980040160480636</speed>
  <fix>3d</fix>
</trkpt>
<trkpt lat="40.0732804" lon="-105.2297919">
  <ele>1583.0</ele>
  <time>2026-08-28T17:55:52Z</time>
  <course>0.02</course>
  <speed>5.0</speed>
  <fix>3d</fix>
</trkpt>
<trkpt lat="40.0732907" lon="-105.2297917">
  <ele>1582.98</ele>
  <time>2026-08-28T17:55:52Z</time>
  <course>1.2</course>
  <speed>4.980040160480636</speed>
  <fix>3d</fix>
</trkpt>
<trkpt lat="40.0732804" lon="-105.2297919">
  <ele>1583.0</ele>
  <time>2026-08-28T17:55:52Z</time>
  <course>0.02</course>
  <speed>5.0</speed>
  <fix>3d</fix>
</trkpt>
<trkpt lat="40.0732952" lon="-105.2297917">
  <ele>1582.99</ele>
  <time>2026-08-28T17:55:52Z</time>
  <course>1.22</course>
  <speed>4.980040160480636</speed>
  <fix>3d</fix>
</trkpt>
<trkpt lat="40.0732893" lon="-105.2297919">
  <ele>1583.0</ele>
  <time>2026-08-28T17:55:52Z</time>
  <course>0.03</course>
  <speed>5.0</speed>
  <fix>3d</fix>
</trkpt>
<trkpt lat="40.0732997" lon="-105.2297917">
  <ele>1582.99</ele>
  <time>2026-08-28T17:55:52Z</time>
  <course>1.22</course>
  <speed>4.980040160480636</speed>
  <fix>3d</fix>
</trkpt>
<trkpt lat="40.0732893" lon="-105.2297919">
  <ele>1583.0</ele>
  <time>2026-08-28T17:55:52Z</time>
  <course>0.03</course>
  <speed>5.0</speed>
  <fix>3d</fix>
</trkpt>
<trkpt lat="40.0733042" lon="-105.2297917">
  <ele>1583.0</ele>
  <time>2026-08-28T17:55:52Z</time>
  <course>1.22</course>
  <speed>4.980040160480636</speed>
  <fix>3d</fix>
</trkpt>
<trkpt lat="40.0732893" lon="-105.2297919">
  <ele>1583.0</ele>
  <time>2026-08-28T17:55:52Z</time>
  <course>0.03</course>
  <speed>5.0</speed>
  <fix>3d</fix>
</trkpt>
<trkpt lat="40.0733087" lon="-105.2297917">
  <ele>1583.0</ele>
  <time>2026-08-28T17:55:52Z</time>
  <course>1.23</course>
  <speed>4.980040160480636</speed>
  <fix>3d</fix>
</trkpt>
<trkpt lat="40.0732983" lon="-105.2297919">
  <ele>1583.0</ele>
  <time>2026-08-28T17:55:52Z</time>
  <course>0.03</course>
  <speed>4.99</speed>
  <fix>3d</fix>
</trkpt>
<trkpt lat="40.0733132" lon="-105.2297917">
  <ele>1583.0</ele>
  <time>2026-08-28T17:55:52Z</time>
  <course>1.23</course>
  <speed>4.970040241285778</speed>
  <fix>3d</fix>
</trkpt>
<trkpt lat="40.0732983" lon="-105.2297919">
  <ele>1583.0</ele>
  <time>2026-08-28T17:55:52Z</time>
  <course>0.03</course>
  <speed>4.99</speed>
  <fix>3d</fix>
</trkpt>
<trkpt lat="40.0733176" lon="-105.2297917">
  <ele>1583.0</ele>
  <time>2026-08-28T17:55:52Z</time>
  <course>1.23</course>
  <speed>4.970040241285778</speed>
  <fix>3d</fix>
</trkpt>
<trkpt lat="40.0733072" lon="-105.2297919">
  <ele>1583.0</ele>
  <time>2026-08-28T17:55:52Z</time>
  <course>0.04</course>
  <speed>4.99</speed>
  <fix>3d</fix>
</trkpt>
<trkpt lat="40.0733221" lon="-105.2297917">
  <ele>1583.0</ele>
  <time>2026-08-28T17:55:52Z</time>
  <course>1.23</course>
  <speed>4.970040241285778</speed>
  <fix>3d</fix>
</trkpt>
<trkpt lat="40.0733072" lon="-105.2297919">
  <ele>1583.0</ele>
  <time>2026-08-28T17:55:52Z</time>
  <course>0.04</course>
  <speed>4.99</speed>
  <fix>3d</fix>
</trkpt>
<trkpt lat="40.0733265" lon="-105.2297917">
  <ele>1583.0</ele>
  <time>2026-08-28T17:55:52Z</time>
  <course>1.23</course>
  <speed>4.970040241285778</speed>
  <fix>3d</fix>
</trkpt>
<trkpt lat="40.0733163" lon="-105.2297919">
  <ele>1583.0</ele>
  <time>2026-08-28T17:55:52Z</time>
  <course>0.05</course>
  <speed>4.99</speed>
  <fix>3d</fix>
</trkpt>
<trkpt lat="40.0733309" lon="-105.2297917">
  <ele>1583.0</ele>
  <time>2026-08-28T17:55:52Z</time>
  <course>1.24</course>
  <speed>4.970040241285778</speed>
  <fix>3d</fix>
</trkpt>
<trkpt lat="40.0733163" lon="-105.2297919">
  <ele>1583.0</ele>
  <time>2026-08-28T17:55:52Z</time>
  <course>0.05</course>
  <speed>4.99</speed>
  <fix>3d</fix>
</trkpt>
<trkpt lat="40.0733354" lon="-105.2297917">
  <ele>1583.0</ele>
  <time>2026-08-28T17:55:52Z</time>
  <course>1.24</course>
  <speed>4.970040241285778</speed>
  <fix>3d</fix>
</trkpt>
<trkpt lat="40.0733252" lon="-105.2297919">
  <ele>1583.0</ele>
  <time>2026-08-28T17:55:52Z</time>
  <course>0.05</course>
  <speed>4.99</speed>
  <fix>3d</fix>
</trkpt>
<trkpt lat="40.0733398" lon="-105.2297917">
  <ele>1583.0</ele>
  <time>2026-08-28T17:55:52Z</time>
  <course>1.24</course>
  <speed>4.970040241285778</speed>
  <fix>3d</fix>
</trkpt>
<trkpt lat="40.0733342" lon="-105.2297919">
  <ele>1583.0</ele>
  <time>2026-08-28T17:55:52Z</time>
  <course>0.06</course>
  <speed>4.99</speed>
  <fix>3d</fix>
</trkpt>
<trkpt lat="40.0733443" lon="-105.2297917">
  <ele>1582.99</ele>
  <time>2026-08-28T17:55:52Z</time>
  <course>1.24</course>
  <speed>4.970040241285778</speed>
  <fix>3d</fix>
</trkpt>
<trkpt lat="40.0733342" lon="-105.2297919">
  <ele>1583.0</ele>
  <time>2026-08-28T17:55:52Z</time>
  <course>0.06</course>
  <speed>4.99</speed>
  <fix>3d</fix>
</trkpt>
<trkpt lat="40.0733488" lon="-105.2297917">
  <ele>1582.99</ele>
  <time>2026-08-28T17:55:52Z</time>
  <course>1.25</course>
  <speed>4.970040241285778</speed>
  <fix>3d</fix>
</trkpt>
<trkpt lat="40.0733431" lon="-105.2297919">
  <ele>1583.0</ele>
  <time>2026-08-28T17:55:52Z</time>
  <course>0.07</course>
  <speed>5.0</speed>
  <fix>3d</fix>
</trkpt>
<trkpt lat="40.0733533" lon="-105.2297917">
  <ele>1582.99</ele>
  <time>2026-08-28T17:55:52Z</time>
  <course>1.25</course>
  <speed>4.970040241285778</speed>
  <fix>3d</fix>
</trkpt>
<trkpt lat="40.0733431" lon="-105.2297919">
  <ele>1583.0</ele>
  <time>2026-08-28T17:55:52Z</time>
  <course>0.07</course>
  <speed>5.0</speed>
  <fix>3d</fix>
</trkpt>
<trkpt lat="40.0733578" lon="-105.2297917">
  <ele>1582.99</ele>
  <time>2026-08-28T17:55:52Z</time>
  <course>1.25</course>
  <speed>4.970040241285778</speed>
  <fix>3d</fix>
</trkpt>
<trkpt lat="40.0733522" lon="-105.2297919">
  <ele>1583.0</ele>
  <time>2026-08-28T17:55:52Z</time>
  <course>0.07</course>
  <speed>5.0</speed>
  <fix>3d</fix>
</trkpt>
<trkpt lat="40.0733623" lon="-105.2297917">
  <ele>1582.99</ele>
  <time>2026-08-28T17:55:52Z</time>
  <course>1.26</course>
  <speed>4.980040160480636</speed>
  <fix>3d</fix>
</trkpt>
<trkpt lat="40.0733522" lon="-105.2297919">
  <ele>1583.0</ele>
  <time>2026-08-28T17:55:52Z</time>
  <course>0.07</course>
  <speed>5.0</speed>
  <fix>3d</fix>
</trkpt>
<trkpt lat="40.0733669" lon="-105.2297917">
  <ele>1583.0</ele>
  <time>2026-08-28T17:55:52Z</time>
  <course>1.26</course>
  <speed>4.980040160480636</speed>
  <fix>3d</fix>
</trkpt>
<trkpt lat="40.0733611" lon="-105.2297919">
  <ele>1583.0</ele>
  <time>2026-08-28T17:55:52Z</time>
  <course>0.08</course>
  <speed>5.0</speed>
  <fix>3d</fix>
</trkpt>
<trkpt lat="40.0733714" lon="-105.2297917">
  <ele>1583.0</ele>
  <time>2026-08-28T17:55:52Z</time>
  <course>1.26</course>
  <speed>4.980040160480636</speed>
  <fix>3d</fix>
</trkpt>
<trkpt lat="40.0733611" lon="-105.2297919">
  <ele>1583.0</ele>
  <time>2026-08-28T17:55:52Z</time>
  <course>0.08</course>
  <speed>5.0</speed>
  <fix>3d</fix>
</trkpt>
<trkpt lat="40.0733759" lon="-105.2297917">
  <ele>1583.0</ele>
  <time>2026-08-28T17:55:52Z</time>
  <course>1.28</course>
  <speed>4.980040160480636</speed>
  <fix>3d</fix>
</trkpt>
<trkpt lat="40.0733702" lon="-105.2297919">
  <ele>1583.0</ele>
  <time>2026-08-28T17:55:52Z</time>
  <course>0.09</course>
  <speed>5.01</speed>
  <fix>3d</fix>
</trkpt>
<trkpt lat="40.0733804" lon="-105.2297917">
  <ele>1583.0</ele>
  <time>2026-08-28T17:55:52Z</time>
  <course>1.28</course>
  <speed>4.990040079999358</speed>
  <fix>3d</fix>
</trkpt>
<trkpt lat="40.0733702" lon="-105.2297919">
  <ele>1583.0</ele>
  <time>2026-08-28T17:55:52Z</time>
  <course>0.09</course>
  <speed>5.01</speed>
  <fix>3d</fix>
</trkpt>
<trkpt lat="40.073385" lon="-105.2297917">
  <ele>1583.0</ele>
  <time>2026-08-28T17:55:52Z</time>
  <course>1.28</course>
  <speed>4.990040079999358</speed>
  <fix>3d</fix>
</trkpt>
<trkpt lat="40.0733792" lon="-105.2297919">
  <ele>1583.0</ele>
  <time>2026-08-28T17:55:52Z</time>
  <course>0.1</course>
  <speed>5.0</speed>
  <fix>3d</fix>
</trkpt>
<trkpt lat="40.0733895" lon="-105.2297917">
  <ele>1583.0</ele>
  <time>2026-08-28T17:55:52Z</time>
  <course>1.29</course>
  <speed>4.990040079999358</speed>
  <fix>3d</fix>
</trkpt>
<trkpt lat="40.0733792" lon="-105.2297919">
  <ele>1583.0</ele>
  <time>2026-08-28T17:55:52Z</time>
  <course>0.1</course>
  <speed>5.0</speed>
  <fix>3d</fix>
</trkpt>
<trkpt lat="40.073394" lon="-105.2297917">
  <ele>1583.0</ele>
  <time>2026-08-28T17:55:52Z</time>
  <course>1.29</course>
  <speed>4.990040079999358</speed>
  <fix>3d</fix>
</trkpt>
<trkpt lat="40.0733881" lon="-105.2297919">
  <ele>1583.0</ele>
  <time>2026-08-28T17:55:52Z</time>
  <course>0.11</course>
  <speed>5.0</speed>
  <fix>3d</fix>
</trkpt>
<trkpt lat="40.0733985" lon="-105.2297917">
  <ele>1583.0</ele>
  <time>2026-08-28T17:55:52Z</time>
  <course>1.3</course>
  <speed>4.980040160480636</speed>
  <fix>3d</fix>
</trkpt>
<trkpt lat="40.0733881" lon="-105.2297919">
  <ele>1583.0</ele>
  <time>2026-08-28T17:55:52Z</time>
  <course>0.11</course>
  <speed>5.0</speed>
  <fix>3d</fix>
</trkpt>
<trkpt lat="40.0734031" lon="-105.2297916">
  <ele>1583.0</ele>
  <time>2026-08-28T17:55:52Z</time>
  <course>1.3</course>
  <speed>4.980040160480636</speed>
  <fix>3d</fix>
</trkpt>
<trkpt lat="40.0733881" lon="-105.2297919">
  <ele>1583.0</ele>
  <time>2026-08-28T17:55:52Z</time>
  <course>0.11</course>
  <speed>5.0</speed>
  <fix>3d</fix>
</trkpt>
<trkpt lat="40.0734075" lon="-105.2297916">
  <ele>1583.0</ele>
  <time>2026-08-28T17:55:52Z</time>
  <course>1.3</course>
  <speed>4.980040160480636</speed>
  <fix>3d</fix>
</trkpt>
<trkpt lat="40.0733972" lon="-105.2297919">
  <ele>1583.0</ele>
  <time>2026-08-28T17:55:52Z</time>
  <course>0.12</course>
  <speed>5.0</speed>
  <fix>3d</fix>
</trkpt>
<trkpt lat="40.073412" lon="-105.2297916">
  <ele>1583.01</ele>
  <time>2026-08-28T17:55:52Z</time>
  <course>1.31</course>
  <speed>4.980040160480636</speed>
  <fix>3d</fix>
</trkpt>
<trkpt lat="40.0733972" lon="-105.2297919">
  <ele>1583.0</ele>
  <time>2026-08-28T17:55:52Z</time>
  <course>0.12</course>
  <speed>5.0</speed>
  <fix>3d</fix>
</trkpt>
<trkpt lat="40.0734164" lon="-105.2297916">
  <ele>1583.01</ele>
  <time>2026-08-28T17:55:52Z</time>
  <course>1.31</course>
  <speed>4.970040241285778</speed>
  <fix>3d</fix>
</trkpt>
<trkpt lat="40.0734061" lon="-105.2297918">
  <ele>1583.0</ele>
  <time>2026-08-28T17:55:52Z</time>
  <course>0.14</course>
  <speed>4.99</speed>
  <fix>3d</fix>
</trkpt>
<trkpt lat="40.0734209" lon="-105.2297916">
  <ele>1583.01</ele>
  <time>2026-08-28T17:55:52Z</time>
  <course>1.31</course>
  <speed>4.970040241285778</speed>
  <fix>3d</fix>
</trkpt>
<trkpt lat="40.0734061" lon="-105.2297918">
  <ele>1583.0</ele>
  <time>2026-08-28T17:55:52Z</time>
  <course>0.14</course>
  <speed>4.99</speed>
  <fix>3d</fix>
</trkpt>
<trkpt lat="40.0734253" lon="-105.2297916">
  <ele>1583.01</ele>
  <time>2026-08-28T17:55:52Z</time>
  <course>1.31</course>
  <speed>4.970040241285778</speed>
  <fix>3d</fix>
</trkpt>
<trkpt lat="40.0734152" lon="-105.2297918">
  <ele>1583.0</ele>
  <time>2026-08-28T17:55:52Z</time>
  <course>0.14</course>
  <speed>4.99</speed>
  <fix>3d</fix>
</trkpt>
<trkpt lat="40.0734298" lon="-105.2297916">
  <ele>1583.0</ele>
  <time>2026-08-28T17:55:52Z</time>
  <course>1.31</course>
  <speed>4.970040241285778</speed>
  <fix>3d</fix>
</trkpt>
<trkpt lat="40.0734241" lon="-105.2297918">
  <ele>1583.0</ele>
  <time>2026-08-28T17:55:52Z</time>
  <course>0.14</course>
  <speed>4.99</speed>
  <fix>3d</fix>
</trkpt>
<trkpt lat="40.0734343" lon="-105.2297916">
  <ele>1583.0</ele>
  <time>2026-08-28T17:55:52Z</time>
  <course>1.31</course>
  <speed>4.970040241285778</speed>
  <fix>3d</fix>
</trkpt>
<trkpt lat="40.0734241" lon="-105.2297918">
  <ele>1583.0</ele>
  <time>2026-08-28T17:55:52Z</time>
  <course>0.14</course>
  <speed>4.99</speed>
  <fix>3d</fix>
</trkpt>
<trkpt lat="40.0734388" lon="-105.2297916">
  <ele>1583.0</ele>
  <time>2026-08-28T17:55:52Z</time>
  <course>1.31</course>
  <speed>4.970040241285778</speed>
  <fix>3d</fix>
</trkpt>
<trkpt lat="40.0734331" lon="-105.2297917">
  <ele>1583.0</ele>
  <time>2026-08-28T17:55:52Z</time>
  <course>0.14</course>
  <speed>4.99</speed>
  <fix>3d</fix>
</trkpt>
<trkpt lat="40.0734432" lon="-105.2297916">
  <ele>1583.0</ele>
  <time>2026-08-28T17:55:52Z</time>
  <course>1.32</course>
  <speed>4.970040241285778</speed>
  <fix>3d</fix>
</trkpt>
<trkpt lat="40.0734331" lon="-105.2297917">
  <ele>1583.0</ele>
  <time>2026-08-28T17:55:52Z</time>
  <course>0.14</course>
  <speed>4.99</speed>
  <fix>3d</fix>
</trkpt>
<trkpt lat="40.0734477" lon="-105.2297916">
  <ele>1583.0</ele>
  <time>2026-08-28T17:55:52Z</time>
  <course>1.32</course>
  <speed>4.970040241285778</speed>
  <fix>3d</fix>
</trkpt>
<trkpt lat="40.073442" lon="-105.2297916">
  <ele>1583.0</ele>
  <time>2026-08-28T17:55:52Z</time>
  <course>0.15</course>
  <speed>4.99</speed>
  <fix>3d</fix>
</trkpt>
<trkpt lat="40.0734523" lon="-105.2297915">
  <ele>1583.0</ele>
  <time>2026-08-28T17:55:52Z</time>
  <course>1.32</course>
  <speed>4.970040241285778</speed>
  <fix>3d</fix>
</trkpt>
<trkpt lat="40.073442" lon="-105.2297916">
  <ele>1583.0</ele>
  <time>2026-08-28T17:55:52Z</time>
  <course>0.15</course>
  <speed>4.99</speed>
  <fix>3d</fix>
</trkpt>
<trkpt lat="40.0734568" lon="-105.2297915">
  <ele>1582.99</ele>
  <time>2026-08-28T17:55:52Z</time>
  <course>1.32</course>
  <speed>4.970040241285778</speed>
  <fix>3d</fix>
</trkpt>
<trkpt lat="40.0734511" lon="-105.2297916">
  <ele>1583.0</ele>
  <time>2026-08-28T17:55:52Z</time>
  <course>0.16</course>
  <speed>4.99</speed>
  <fix>3d</fix>
</trkpt>
<trkpt lat="40.0734613" lon="-105.2297915">
  <ele>1582.99</ele>
  <time>2026-08-28T17:55:52Z</time>
  <course>1.32</course>
  <speed>4.980040160480636</speed>
  <fix>3d</fix>
</trkpt>
<trkpt lat="40.0734511" lon="-105.2297916">
  <ele>1583.0</ele>
  <time>2026-08-28T17:55:52Z</time>
  <course>0.16</course>
  <speed>4.99</speed>
  <fix>3d</fix>
</trkpt>
<trkpt lat="40.0734658" lon="-105.2297915">
  <ele>1582.99</ele>
  <time>2026-08-28T17:55:52Z</time>
  <course>1.32</course>
  <speed>4.980040160480636</speed>
  <fix>3d</fix>
</trkpt>
<trkpt lat="40.0734601" lon="-105.2297916">
  <ele>1583.0</ele>
  <time>2026-08-28T17:55:52Z</time>
  <course>0.16</course>
  <speed>4.99</speed>
  <fix>3d</fix>
</trkpt>
<trkpt lat="40.0734704" lon="-105.2297915">
  <ele>1582.99</ele>
  <time>2026-08-28T17:55:52Z</time>
  <course>1.32</course>
  <speed>4.980040160480636</speed>
  <fix>3d</fix>
</trkpt>
<trkpt lat="40.0734601" lon="-105.2297916">
  <ele>1583.0</ele>
  <time>2026-08-28T17:55:52Z</time>
  <course>0.16</course>
  <speed>4.99</speed>
  <fix>3d</fix>
</trkpt>
<trkpt lat="40.0734749" lon="-105.2297914">
  <ele>1582.98</ele>
  <time>2026-08-28T17:55:52Z</time>
  <course>1.32</course>
  <speed>4.980040160480636</speed>
  <fix>3d</fix>
</trkpt>
<trkpt lat="40.073469" lon="-105.2297916">
  <ele>1583.0</ele>
  <time>2026-08-28T17:55:52Z</time>
  <course>0.16</course>
  <speed>4.99</speed>
  <fix>3d</fix>
</trkpt>
<trkpt lat="40.0734794" lon="-105.2297914">
  <ele>1582.98</ele>
  <time>2026-08-28T17:55:52Z</time>
  <course>1.32</course>
  <speed>4.980040160480636</speed>
  <fix>3d</fix>
</trkpt>
<trkpt lat="40.073469" lon="-105.2297916">
  <ele>1583.0</ele>
  <time>2026-08-28T17:55:52Z</time>
  <course>0.16</course>
  <speed>4.99</speed>
  <fix>3d</fix>
</trkpt>
<trkpt lat="40.0734839" lon="-105.2297914">
  <ele>1582.99</ele>
  <time>2026-08-28T17:55:52Z</time>
  <course>1.32</course>
  <speed>4.980040160480636</speed>
  <fix>3d</fix>
</trkpt>
<trkpt lat="40.0734779" lon="-105.2297916">
  <ele>1583.0</ele>
  <time>2026-08-28T17:55:52Z</time>
  <course>0.16</course>
  <speed>4.99</speed>
  <fix>3d</fix>
</trkpt>
<trkpt lat="40.0734884" lon="-105.2297914">
  <ele>1582.99</ele>
  <time>2026-08-28T17:55:52Z</time>
  <course>1.32</course>
  <speed>4.980040160480636</speed>
  <fix>3d</fix>
</trkpt>
<trkpt lat="40.0734779" lon="-105.2297916">
  <ele>1583.0</ele>
  <time>2026-08-28T17:55:52Z</time>
  <course>0.16</course>
  <speed>4.99</speed>
  <fix>3d</fix>
</trkpt>
<trkpt lat="40.0734929" lon="-105.2297914">
  <ele>1582.99</ele>
  <time>2026-08-28T17:55:52Z</time>
  <course>1.32</course>
  <speed>4.980040160480636</speed>
  <fix>3d</fix>
</trkpt>
<trkpt lat="40.0734779" lon="-105.2297916">
  <ele>1583.0</ele>
  <time>2026-08-28T17:55:52Z</time>
  <course>0.16</course>
  <speed>4.99</speed>
  <fix>3d</fix>
</trkpt>
<trkpt lat="40.0734974" lon="-105.2297914">
  <ele>1582.99</ele>
  <time>2026-08-28T17:55:52Z</time>
  <course>1.32</course>
  <speed>4.970040241285778</speed>
  <fix>3d</fix>
</trkpt>
<trkpt lat="40.073487" lon="-105.2297916">
  <ele>1583.0</ele>
  <time>2026-08-28T17:55:52Z</time>
  <course>0.16</course>
  <speed>4.99</speed>
  <fix>3d</fix>
</trkpt>
<trkpt lat="40.0735018" lon="-105.2297914">
  <ele>1582.99</ele>
  <time>2026-08-28T17:55:52Z</time>
  <course>1.32</course>
  <speed>4.970040241285778</speed>
  <fix>3d</fix>
</trkpt>
<trkpt lat="40.073487" lon="-105.2297916">
  <ele>1583.0</ele>
  <time>2026-08-28T17:55:52Z</time>
  <course>0.16</course>
  <speed>4.99</speed>
  <fix>3d</fix>
</trkpt>
<trkpt lat="40.0735063" lon="-105.2297913">
  <ele>1582.99</ele>
  <time>2026-08-28T17:55:52Z</time>
  <course>1.32</course>
  <speed>4.970040241285778</speed>
  <fix>3d</fix>
</trkpt>
<trkpt lat="40.073496" lon="-105.2297915">
  <ele>1583.0</ele>
  <time>2026-08-28T17:55:52Z</time>
  <course>0.16</course>
  <speed>4.99</speed>
  <fix>3d</fix>
</trkpt>
<trkpt lat="40.0735107" lon="-105.2297913">
  <ele>1582.99</ele>
  <time>2026-08-28T17:55:52Z</time>
  <course>1.32</course>
  <speed>4.970040241285778</speed>
  <fix>3d</fix>
</trkpt>
<trkpt lat="40.073496" lon="-105.2297915">
  <ele>1583.0</ele>
  <time>2026-08-28T17:55:52Z</time>
  <course>0.16</course>
  <speed>4.99</speed>
  <fix>3d</fix>
</trkpt>
<trkpt lat="40.0735152" lon="-105.2297913">
  <ele>1582.99</ele>
  <time>2026-08-28T17:55:52Z</time>
  <course>1.32</course>
  <speed>4.970040241285778</speed>
  <fix>3d</fix>
</trkpt>
<trkpt lat="40.073505" lon="-105.2297914">
  <ele>1583.0</ele>
  <time>2026-08-28T17:55:52Z</time>
  <course>0.16</course>
  <speed>4.99</speed>
  <fix>3d</fix>
</trkpt>
<trkpt lat="40.0735196" lon="-105.2297913">
  <ele>1582.99</ele>
  <time>2026-08-28T17:55:52Z</time>
  <course>1.32</course>
  <speed>4.970090542434815</speed>
  <fix>3d</fix>
</trkpt>
<trkpt lat="40.073505" lon="-105.2297914">
  <ele>1583.0</ele>
  <time>2026-08-28T17:55:52Z</time>
  <course>0.16</course>
  <speed>4.99</speed>
  <fix>3d</fix>
</trkpt>
<trkpt lat="40.0735241" lon="-105.2297913">
  <ele>1582.98</ele>
  <time>2026-08-28T17:55:52Z</time>
  <course>1.32</course>
  <speed>4.970090542434815</speed>
  <fix>3d</fix>
</trkpt>
<trkpt lat="40.0735139" lon="-105.2297914">
  <ele>1583.0</ele>
  <time>2026-08-28T17:55:52Z</time>
  <course>0.16</course>
  <speed>4.99</speed>
  <fix>3d</fix>
</trkpt>
<trkpt lat="40.0735285" lon="-105.2297913">
  <ele>1582.98</ele>
  <time>2026-08-28T17:55:52Z</time>
  <course>1.32</course>
  <speed>4.970090542434815</speed>
  <fix>3d</fix>
</trkpt>
<trkpt lat="40.0735229" lon="-105.2297914">
  <ele>1583.0</ele>
  <time>2026-08-28T17:55:52Z</time>
  <course>0.16</course>
  <speed>4.99</speed>
  <fix>3d</fix>
</trkpt>
<trkpt lat="40.073533" lon="-105.2297912">
  <ele>1582.99</ele>
  <time>2026-08-28T17:55:52Z</time>
  <course>1.31</course>
  <speed>4.970090542434815</speed>
  <fix>3d</fix>
</trkpt>
<trkpt lat="40.0735229" lon="-105.2297914">
  <ele>1583.0</ele>
  <time>2026-08-28T17:55:52Z</time>
  <course>0.16</course>
  <speed>4.99</speed>
  <fix>3d</fix>
</trkpt>
<trkpt lat="40.0735375" lon="-105.2297912">
  <ele>1582.99</ele>
  <time>2026-08-28T17:55:52Z</time>
  <course>1.31</course>
  <speed>4.970090542434815</speed>
  <fix>3d</fix>
</trkpt>
<trkpt lat="40.0735318" lon="-105.2297914">
  <ele>1583.0</ele>
  <time>2026-08-28T17:55:52Z</time>
  <course>0.16</course>
  <speed>5.0</speed>
  <fix>3d</fix>
</trkpt>
<trkpt lat="40.073542" lon="-105.2297912">
  <ele>1582.99</ele>
  <time>2026-08-28T17:55:52Z</time>
  <course>1.31</course>
  <speed>4.970090542434815</speed>
  <fix>3d</fix>
</trkpt>
<trkpt lat="40.0735318" lon="-105.2297914">
  <ele>1583.0</ele>
  <time>2026-08-28T17:55:52Z</time>
  <course>0.16</course>
  <speed>5.0</speed>
  <fix>3d</fix>
</trkpt>
<trkpt lat="40.0735465" lon="-105.2297912">
  <ele>1582.99</ele>
  <time>2026-08-28T17:55:52Z</time>
  <course>1.31</course>
  <speed>4.980090360626</speed>
  <fix>3d</fix>
</trkpt>
<trkpt lat="40.0735409" lon="-105.2297914">
  <ele>1583.0</ele>
  <time>2026-08-28T17:55:52Z</time>
  <course>0.16</course>
  <speed>5.0</speed>
  <fix>3d</fix>
</trkpt>
<trkpt lat="40.073551" lon="-105.2297912">
  <ele>1582.99</ele>
  <time>2026-08-28T17:55:52Z</time>
  <course>1.31</course>
  <speed>4.980090360626</speed>
  <fix>3d</fix>
</trkpt>
<trkpt lat="40.0735409" lon="-105.2297914">
  <ele>1583.0</ele>
  <time>2026-08-28T17:55:52Z</time>
  <course>0.16</course>
  <speed>5.0</speed>
  <fix>3d</fix>
</trkpt>
<trkpt lat="40.0735556" lon="-105.2297912">
  <ele>1582.99</ele>
  <time>2026-08-28T17:55:52Z</time>
  <course>1.31</course>
  <speed>4.980090360626</speed>
  <fix>3d</fix>
</trkpt>
<trkpt lat="40.0735499" lon="-105.2297913">
  <ele>1583.0</ele>
  <time>2026-08-28T17:55:52Z</time>
  <course>0.16</course>
  <speed>5.0</speed>
  <fix>3d</fix>
</trkpt>
<trkpt lat="40.0735601" lon="-105.2297911">
  <ele>1582.99</ele>
  <time>2026-08-28T17:55:52Z</time>
  <course>1.31</course>
  <speed>4.980090360626</speed>
  <fix>3d</fix>
</trkpt>
<trkpt lat="40.0735499" lon="-105.2297913">
  <ele>1583.0</ele>
  <time>2026-08-28T17:55:52Z</time>
  <course>0.16</course>
  <speed>5.0</speed>
  <fix>3d</fix>
</trkpt>
<trkpt lat="40.0735646" lon="-105.2297911">
  <ele>1582.99</ele>
  <time>2026-08-28T17:55:52Z</time>
  <course>1.31</course>
  <speed>4.980090360626</speed>
  <fix>3d</fix>
</trkpt>
<trkpt lat="40.0735588" lon="-105.2297913">
  <ele>1583.0</ele>
  <time>2026-08-28T17:55:52Z</time>
  <course>0.16</course>
  <speed>5.0</speed>
  <fix>3d</fix>
</trkpt>
<trkpt lat="40.0735691" lon="-105.2297911">
  <ele>1582.99</ele>
  <time>2026-08-28T17:55:52Z</time>
  <course>1.31</course>
  <speed>4.980090360626</speed>
  <fix>3d</fix>
</trkpt>
<trkpt lat="40.0735588" lon="-105.2297913">
  <ele>1583.0</ele>
  <time>2026-08-28T17:55:52Z</time>
  <course>0.16</course>
  <speed>5.0</speed>
  <fix>3d</fix>
</trkpt>
<trkpt lat="40.0735737" lon="-105.2297911">
  <ele>1582.98</ele>
  <time>2026-08-28T17:55:52Z</time>
  <course>1.31</course>
  <speed>4.990090179545857</speed>
  <fix>3d</fix>
</trkpt>
<trkpt lat="40.0735679" lon="-105.2297913">
  <ele>1583.0</ele>
  <time>2026-08-28T17:55:52Z</time>
  <course>0.16</course>
  <speed>5.0</speed>
  <fix>3d</fix>
</trkpt>
<trkpt lat="40.0735782" lon="-105.2297911">
  <ele>1582.98</ele>
  <time>2026-08-28T17:55:52Z</time>
  <course>1.31</course>
  <speed>4.990090179545857</speed>
  <fix>3d</fix>
</trkpt>
<trkpt lat="40.0735679" lon="-105.2297913">
  <ele>1583.0</ele>
  <time>2026-08-28T17:55:52Z</time>
  <course>0.16</course>
  <speed>5.0</speed>
  <fix>3d</fix>
</trkpt>
<trkpt lat="40.0735827" lon="-105.2297911">
  <ele>1582.98</ele>
  <time>2026-08-28T17:55:52Z</time>
  <course>1.31</course>
  <speed>4.980090360626</speed>
  <fix>3d</fix>
</trkpt>
<trkpt lat="40.0735768" lon="-105.2297912">
  <ele>1583.0</ele>
  <time>2026-08-28T17:55:52Z</time>
  <course>0.16</course>
  <speed>5.0</speed>
  <fix>3d</fix>
</trkpt>
<trkpt lat="40.0735872" lon="-105.2297911">
  <ele>1582.98</ele>
  <time>2026-08-28T17:55:52Z</time>
  <course>1.31</course>
  <speed>4.980090360626</speed>
  <fix>3d</fix>
</trkpt>
<trkpt lat="40.0735768" lon="-105.2297912">
  <ele>1583.0</ele>
  <time>2026-08-28T17:55:52Z</time>
  <course>0.16</course>
  <speed>5.0</speed>
  <fix>3d</fix>
</trkpt>
<trkpt lat="40.0735917" lon="-105.229791">
  <ele>1582.98</ele>
  <time>2026-08-28T17:55:52Z</time>
  <course>1.31</course>
  <speed>4.980090360626</speed>
  <fix>3d</fix>
</trkpt>
<trkpt lat="40.0735768" lon="-105.2297912">
  <ele>1583.0</ele>
  <time>2026-08-28T17:55:52Z</time>
  <course>0.16</course>
  <speed>5.0</speed>
  <fix>3d</fix>
</trkpt>
<trkpt lat="40.0735962" lon="-105.229791">
  <ele>1582.98</ele>
  <time>2026-08-28T17:55:52Z</time>
  <course>1.31</course>
  <speed>4.980090360626</speed>
  <fix>3d</fix>
</trkpt>
<trkpt lat="40.0735858" lon="-105.2297911">
  <ele>1583.0</ele>
  <time>2026-08-28T17:55:52Z</time>
  <course>0.16</course>
  <speed>5.0</speed>
  <fix>3d</fix>
</trkpt>
<trkpt lat="40.0736007" lon="-105.229791">
  <ele>1582.99</ele>
  <time>2026-08-28T17:55:52Z</time>
  <course>1.31</course>
  <speed>4.970090542434815</speed>
  <fix>3d</fix>
</trkpt>
<trkpt lat="40.0735858" lon="-105.2297911">
  <ele>1583.0</ele>
  <time>2026-08-28T17:55:52Z</time>
  <course>0.16</course>
  <speed>5.0</speed>
  <fix>3d</fix>
</trkpt>
<trkpt lat="40.0736051" lon="-105.229791">
  <ele>1582.99</ele>
  <time>2026-08-28T17:55:52Z</time>
  <course>1.31</course>
  <speed>4.970090542434815</speed>
  <fix>3d</fix>
</trkpt>
<trkpt lat="40.0735948" lon="-105.2297911">
  <ele>1583.0</ele>
  <time>2026-08-28T17:55:52Z</time>
  <course>0.16</course>
  <speed>4.99</speed>
  <fix>3d</fix>
</trkpt>
<trkpt lat="40.0736096" lon="-105.229791">
  <ele>1582.99</ele>
  <time>2026-08-28T17:55:52Z</time>
  <course>1.31</course>
  <speed>4.970090542434815</speed>
  <fix>3d</fix>
</trkpt>
<trkpt lat="40.0735948" lon="-105.2297911">
  <ele>1583.0</ele>
  <time>2026-08-28T17:55:52Z</time>
  <course>0.16</course>
  <speed>4.99</speed>
  <fix>3d</fix>
</trkpt>
<trkpt lat="40.073614" lon="-105.2297909">
  <ele>1583.0</ele>
  <time>2026-08-28T17:55:52Z</time>
  <course>1.31</course>
  <speed>4.970090542434815</speed>
  <fix>3d</fix>
</trkpt>
<trkpt lat="40.0736038" lon="-105.2297911">
  <ele>1583.0</ele>
  <time>2026-08-28T17:55:52Z</time>
  <course>0.16</course>
  <speed>4.99</speed>
  <fix>3d</fix>
</trkpt>
<trkpt lat="40.0736185" lon="-105.2297909">
  <ele>1583.0</ele>
  <time>2026-08-28T17:55:52Z</time>
  <course>1.31</course>
  <speed>4.970090542434815</speed>
  <fix>3d</fix>
</trkpt>
<trkpt lat="40.0736127" lon="-105.2297911">
  <ele>1583.0</ele>
  <time>2026-08-28T17:55:52Z</time>
  <course>0.16</course>
  <speed>4.99</speed>
  <fix>3d</fix>
</trkpt>
<trkpt lat="40.073623" lon="-105.2297909">
  <ele>1583.0</ele>
  <time>2026-08-28T17:55:52Z</time>
  <course>1.31</course>
  <speed>4.970090542434815</speed>
  <fix>3d</fix>
</trkpt>
<trkpt lat="40.0736127" lon="-105.2297911">
  <ele>1583.0</ele>
  <time>2026-08-28T17:55:52Z</time>
  <course>0.16</course>
  <speed>4.99</speed>
  <fix>3d</fix>
</trkpt>
<trkpt lat="40.0736274" lon="-105.2297909">
  <ele>1583.0</ele>
  <time>2026-08-28T17:55:52Z</time>
  <course>1.31</course>
  <speed>4.970090542434815</speed>
  <fix>3d</fix>
</trkpt>
<trkpt lat="40.0736217" lon="-105.2297911">
  <ele>1583.0</ele>
  <time>2026-08-28T17:55:52Z</time>
  <course>0.16</course>
  <speed>4.99</speed>
  <fix>3d</fix>
</trkpt>
<trkpt lat="40.0736319" lon="-105.2297909">
  <ele>1583.0</ele>
  <time>2026-08-28T17:55:52Z</time>
  <course>1.31</course>
  <speed>4.970090542434815</speed>
  <fix>3d</fix>
</trkpt>
<trkpt lat="40.0736217" lon="-105.2297911">
  <ele>1583.0</ele>
  <time>2026-08-28T17:55:52Z</time>
  <course>0.16</course>
  <speed>4.99</speed>
  <fix>3d</fix>
</trkpt>
<trkpt lat="40.0736364" lon="-105.2297909">
  <ele>1582.99</ele>
  <time>2026-08-28T17:55:52Z</time>
  <course>1.31</course>
  <speed>4.970090542434815</speed>
  <fix>3d</fix>
</trkpt>
<trkpt lat="40.0736306" lon="-105.229791">
  <ele>1583.0</ele>
  <time>2026-08-28T17:55:52Z</time>
  <course>0.16</course>
  <speed>4.99</speed>
  <fix>3d</fix>
</trkpt>
<trkpt lat="40.0736409" lon="-105.2297908">
  <ele>1582.99</ele>
  <time>2026-08-28T17:55:52Z</time>
  <course>1.31</course>
  <speed>4.970090542434815</speed>
  <fix>3d</fix>
</trkpt>
<trkpt lat="40.0736306" lon="-105.229791">
  <ele>1583.0</ele>
  <time>2026-08-28T17:55:52Z</time>
  <course>0.16</course>
  <speed>4.99</speed>
  <fix>3d</fix>
</trkpt>
<trkpt lat="40.0736454" lon="-105.2297908">
  <ele>1582.99</ele>
  <time>2026-08-28T17:55:52Z</time>
  <course>1.31</course>
  <speed>4.970090542434815</speed>
  <fix>3d</fix>
</trkpt>
<trkpt lat="40.0736397" lon="-105.2297909">
  <ele>1583.0</ele>
  <time>2026-08-28T17:55:52Z</time>
  <course>0.16</course>
  <speed>4.99</speed>
  <fix>3d</fix>
</trkpt>
<trkpt lat="40.0736499" lon="-105.2297908">
  <ele>1582.98</ele>
  <time>2026-08-28T17:55:52Z</time>
  <course>1.31</course>
  <speed>4.970090542434815</speed>
  <fix>3d</fix>
</trkpt>
<trkpt lat="40.0736397" lon="-105.2297909">
  <ele>1583.0</ele>
  <time>2026-08-28T17:55:52Z</time>
  <course>0.16</course>
  <speed>4.99</speed>
  <fix>3d</fix>
</trkpt>
<trkpt lat="40.0736545" lon="-105.2297908">
  <ele>1582.98</ele>
  <time>2026-08-28T17:55:52Z</time>
  <course>1.3</course>
  <speed>4.980090360626</speed>
  <fix>3d</fix>
</trkpt>
<trkpt lat="40.0736486" lon="-105.2297909">
  <ele>1583.0</ele>
  <time>2026-08-28T17:55:52Z</time>
  <course>0.16</course>
  <speed>4.99</speed>
  <fix>3d</fix>
</trkpt>
<trkpt lat="40.073659" lon="-105.2297908">
  <ele>1582.98</ele>
  <time>2026-08-28T17:55:52Z</time>
  <course>1.3</course>
  <speed>4.980090360626</speed>
  <fix>3d</fix>
</trkpt>
<trkpt lat="40.0736486" lon="-105.2297909">
  <ele>1583.0</ele>
  <time>2026-08-28T17:55:52Z</time>
  <course>0.16</course>
  <speed>4.99</speed>
  <fix>3d</fix>
</trkpt>
<trkpt lat="40.0736635" lon="-105.2297907">
  <ele>1582.98</ele>
  <time>2026-08-28T17:55:52Z</time>
  <course>1.3</course>
  <speed>4.980090360626</speed>
  <fix>3d</fix>
</trkpt>
<trkpt lat="40.0736577" lon="-105.2297909">
  <ele>1583.0</ele>
  <time>2026-08-28T17:55:52Z</time>
  <course>0.16</course>
  <speed>4.99</speed>
  <fix>3d</fix>
</trkpt>
<trkpt lat="40.073668" lon="-105.2297907">
  <ele>1582.97</ele>
  <time>2026-08-28T17:55:52Z</time>
  <course>1.3</course>
  <speed>4.980090360626</speed>
  <fix>3d</fix>
</trkpt>
<trkpt lat="40.0736577" lon="-105.2297909">
  <ele>1583.0</ele>
  <time>2026-08-28T17:55:52Z</time>
  <course>0.16</course>
  <speed>4.99</speed>
  <fix>3d</fix>
</trkpt>
<trkpt lat="40.0736725" lon="-105.2297907">
  <ele>1582.97</ele>
  <time>2026-08-28T17:55:52Z</time>
  <course>1.3</course>
  <speed>4.980090360626</speed>
  <fix>3d</fix>
</trkpt>
<trkpt lat="40.0736666" lon="-105.2297909">
  <ele>1583.0</ele>
  <time>2026-08-28T17:55:52Z</time>
  <course>0.16</course>
  <speed>4.99</speed>
  <fix>3d</fix>
</trkpt>
<trkpt lat="40.073677" lon="-105.2297907">
  <ele>1582.97</ele>
  <time>2026-08-28T17:55:52Z</time>
  <course>1.3</course>
  <speed>4.980090360626</speed>
  <fix>3d</fix>
</trkpt>
<trkpt lat="40.0736666" lon="-105.2297909">
  <ele>1583.0</ele>
  <time>2026-08-28T17:55:52Z</time>
  <course>0.16</course>
  <speed>4.99</speed>
  <fix>3d</fix>
</trkpt>
<trkpt lat="40.0736815" lon="-105.2297907">
  <ele>1582.97</ele>
  <time>2026-08-28T17:55:52Z</time>
  <course>1.3</course>
  <speed>4.980090360626</speed>
  <fix>3d</fix>
</trkpt>
<trkpt lat="40.0736666" lon="-105.2297909">
  <ele>1583.0</ele>
  <time>2026-08-28T17:55:52Z</time>
  <course>0.16</course>
  <speed>4.99</speed>
  <fix>3d</fix>
</trkpt>
<trkpt lat="40.073686" lon="-105.2297907">
  <ele>1582.97</ele>
  <time>2026-08-28T17:55:52Z</time>
  <course>1.3</course>
  <speed>4.980090360626</speed>
  <fix>3d</fix>
</trkpt>
<trkpt lat="40.0736756" lon="-105.2297909">
  <ele>1583.0</ele>
  <time>2026-08-28T17:55:52Z</time>
  <course>0.16</course>
  <speed>4.99</speed>
  <fix>3d</fix>
</trkpt>
<trkpt lat="40.0736905" lon="-105.2297906">
  <ele>1582.97</ele>
  <time>2026-08-28T17:55:52Z</time>
  <course>1.3</course>
  <speed>4.980090360626</speed>
  <fix>3d</fix>
</trkpt>
<trkpt lat="40.0736756" lon="-105.2297909">
  <ele>1583.0</ele>
  <time>2026-08-28T17:55:52Z</time>
  <course>0.16</course>
  <speed>4.99</speed>
  <fix>3d</fix>
</trkpt>
<trkpt lat="40.0736949" lon="-105.2297906">
  <ele>1582.97</ele>
  <time>2026-08-28T17:55:52Z</time>
  <course>1.3</course>
  <speed>4.970090542434815</speed>
  <fix>3d</fix>
</trkpt>
<trkpt lat="40.0736845" lon="-105.2297908">
  <ele>1583.0</ele>
  <time>2026-08-28T17:55:52Z</time>
  <course>0.16</course>
  <speed>4.99</speed>
  <fix>3d</fix>
</trkpt>
<trkpt lat="40.0736993" lon="-105.2297906">
  <ele>1582.98</ele>
  <time>2026-08-28T17:55:52Z</time>
  <course>1.3</course>
  <speed>4.970090542434815</speed>
  <fix>3d</fix>
</trkpt>
<trkpt lat="40.0736845" lon="-105.2297908">
  <ele>1583.0</ele>
  <time>2026-08-28T17:55:52Z</time>
  <course>0.16</course>
  <speed>4.99</speed>
  <fix>3d</fix>
</trkpt>
<trkpt lat="40.0737038" lon="-105.2297906">
  <ele>1582.98</ele>
  <time>2026-08-28T17:55:52Z</time>
  <course>1.3</course>
  <speed>4.970090542434815</speed>
  <fix>3d</fix>
</trkpt>
<trkpt lat="40.0736936" lon="-105.2297907">
  <ele>1583.0</ele>
  <time>2026-08-28T17:55:52Z</time>
  <course>0.16</course>
  <speed>4.99</speed>
  <fix>3d</fix>
</trkpt>
<trkpt lat="40.0737083" lon="-105.2297906">
  <ele>1582.98</ele>
  <time>2026-08-28T17:55:52Z</time>
  <course>1.3</course>
  <speed>4.970090542434815</speed>
  <fix>3d</fix>
</trkpt>
<trkpt lat="40.0737026" lon="-105.2297907">
  <ele>1583.0</ele>
  <time>2026-08-28T17:55:52Z</time>
  <course>0.16</course>
  <speed>4.99</speed>
  <fix>3d</fix>
</trkpt>
<trkpt lat="40.0737127" lon="-105.2297906">
  <ele>1582.99</ele>
  <time>2026-08-28T17:55:52Z</time>
  <course>1.3</course>
  <speed>4.970090542434815</speed>
  <fix>3d</fix>
</trkpt>
<trkpt lat="40.0737026" lon="-105.2297907">
  <ele>1583.0</ele>
  <time>2026-08-28T17:55:52Z</time>
  <course>0.16</course>
  <speed>4.99</speed>
  <fix>3d</fix>
</trkpt>
<trkpt lat="40.0737172" lon="-105.2297905">
  <ele>1582.99</ele>
  <time>2026-08-28T17:55:52Z</time>
  <course>1.3</course>
  <speed>4.970090542434815</speed>
  <fix>3d</fix>
</trkpt>
<trkpt lat="40.0737115" lon="-105.2297907">
  <ele>1583.0</ele>
  <time>2026-08-28T17:55:52Z</time>
  <course>0.16</course>
  <speed>4.99</speed>
  <fix>3d</fix>
</trkpt>
<trkpt lat="40.0737217" lon="-105.2297905">
  <ele>1583.0</ele>
  <time>2026-08-28T17:55:52Z</time>
  <course>1.3</course>
  <speed>4.970090542434815</speed>
  <fix>3d</fix>
</trkpt>
<trkpt lat="40.0737115" lon="-105.2297907">
  <ele>1583.0</ele>
  <time>2026-08-28T17:55:52Z</time>
  <course>0.16</course>
  <speed>4.99</speed>
  <fix>3d</fix>
</trkpt>
<trkpt lat="40.0737262" lon="-105.2297905">
  <ele>1583.0</ele>
  <time>2026-08-28T17:55:52Z</time>
  <course>1.3</course>
  <speed>4.970090542434815</speed>
  <fix>3d</fix>
</trkpt>
<trkpt lat="40.0737204" lon="-105.2297907">
  <ele>1583.0</ele>
  <time>2026-08-28T17:55:52Z</time>
  <course>0.16</course>
  <speed>5.0</speed>
  <fix>3d</fix>
</trkpt>
<trkpt lat="40.0737307" lon="-105.2297905">
  <ele>1583.01</ele>
  <time>2026-08-28T17:55:52Z</time>
  <course>1.3</course>
  <speed>4.970090542434815</speed>
  <fix>3d</fix>
</trkpt>
<trkpt lat="40.0737204" lon="-105.2297907">
  <ele>1583.0</ele>
  <time>2026-08-28T17:55:52Z</time>
  <course>0.16</course>
  <speed>5.0</speed>
  <fix>3d</fix>
</trkpt>
<trkpt lat="40.0737352" lon="-105.2297905">
  <ele>1583.01</ele>
  <time>2026-08-28T17:55:52Z</time>
  <course>1.3</course>
  <speed>4.980090360626</speed>
  <fix>3d</fix>
</trkpt>
<trkpt lat="40.0737295" lon="-105.2297907">
  <ele>1583.0</ele>
  <time>2026-08-28T17:55:52Z</time>
  <course>0.16</course>
  <speed>5.0</speed>
  <fix>3d</fix>
</trkpt>
<trkpt lat="40.0737397" lon="-105.2297905">
  <ele>1583.01</ele>
  <time>2026-08-28T17:55:52Z</time>
  <course>1.3</course>
  <speed>4.980090360626</speed>
  <fix>3d</fix>
</trkpt>
<trkpt lat="40.0737295" lon="-105.2297907">
  <ele>1583.0</ele>
  <time>2026-08-28T17:55:52Z</time>
  <course>0.16</course>
  <speed>5.0</speed>
  <fix>3d</fix>
</trkpt>
<trkpt lat="40.0737443" lon="-105.2297904">
  <ele>1583.0</ele>
  <time>2026-08-28T17:55:52Z</time>
  <course>1.3</course>
  <speed>4.980090360626</speed>
  <fix>3d</fix>
</trkpt>
<trkpt lat="40.0737385" lon="-105.2297906">
  <ele>1583.0</ele>
  <time>2026-08-28T17:55:52Z</time>
  <course>0.16</course>
  <speed>5.0</speed>
  <fix>3d</fix>
</trkpt>
<trkpt lat="40.0737488" lon="-105.2297904">
  <ele>1583.01</ele>
  <time>2026-08-28T17:55:52Z</time>
  <course>1.3</course>
  <speed>4.980090360626</speed>
  <fix>3d</fix>
</trkpt>
<trkpt lat="40.0737385" lon="-105.2297906">
  <ele>1583.0</ele>
  <time>2026-08-28T17:55:52Z</time>
  <course>0.16</course>
  <speed>5.0</speed>
  <fix>3d</fix>
</trkpt>
<trkpt lat="40.0737533" lon="-105.2297904">
  <ele>1583.01</ele>
  <time>2026-08-28T17:55:52Z</time>
  <course>1.3</course>
  <speed>4.980090360626</speed>
  <fix>3d</fix>
</trkpt>
<trkpt lat="40.0737474" lon="-105.2297906">
  <ele>1583.0</ele>
  <time>2026-08-28T17:55:52Z</time>
  <course>0.16</course>
  <speed>5.0</speed>
  <fix>3d</fix>
</trkpt>
<trkpt lat="40.0737578" lon="-105.2297904">
  <ele>1583.01</ele>
  <time>2026-08-28T17:55:52Z</time>
  <course>1.3</course>
  <speed>4.980090360626</speed>
  <fix>3d</fix>
</trkpt>
<trkpt lat="40.0737474" lon="-105.2297906">
  <ele>1583.0</ele>
  <time>2026-08-28T17:55:52Z</time>
  <course>0.16</course>
  <speed>5.0</speed>
  <fix>3d</fix>
</trkpt>
<trkpt lat="40.0737623" lon="-105.2297904">
  <ele>1583.02</ele>
  <time>2026-08-28T17:55:52Z</time>
  <course>1.3</course>
  <speed>4.980090360626</speed>
  <fix>3d</fix>
</trkpt>
<trkpt lat="40.0737565" lon="-105.2297906">
  <ele>1583.0</ele>
  <time>2026-08-28T17:55:52Z</time>
  <course>0.16</course>
  <speed>5.0</speed>
  <fix>3d</fix>
</trkpt>
<trkpt lat="40.0737669" lon="-105.2297904">
  <ele>1583.02</ele>
  <time>2026-08-28T17:55:52Z</time>
  <course>1.3</course>
  <speed>4.980090360626</speed>
  <fix>3d</fix>
</trkpt>
<trkpt lat="40.0737565" lon="-105.2297906">
  <ele>1583.0</ele>
  <time>2026-08-28T17:55:52Z</time>
  <course>0.16</course>
  <speed>5.0</speed>
  <fix>3d</fix>
</trkpt>
<trkpt lat="40.0737714" lon="-105.2297903">
  <ele>1583.02</ele>
  <time>2026-08-28T17:55:52Z</time>
  <course>1.3</course>
  <speed>4.980090360626</speed>
  <fix>3d</fix>
</trkpt>
<trkpt lat="40.0737565" lon="-105.2297906">
  <ele>1583.0</ele>
  <time>2026-08-28T17:55:52Z</time>
  <course>0.16</course>
  <speed>5.0</speed>
  <fix>3d</fix>
</trkpt>
<trkpt lat="40.0737758" lon="-105.2297903">
  <ele>1583.02</ele>
  <time>2026-08-28T17:55:52Z</time>
  <course>1.3</course>
  <speed>4.980090360626</speed>
  <fix>3d</fix>
</trkpt>
<trkpt lat="40.0737654" lon="-105.2297905">
  <ele>1583.0</ele>
  <time>2026-08-28T17:55:52Z</time>
  <course>0.16</course>
  <speed>4.99</speed>
  <fix>3d</fix>
</trkpt>
<trkpt lat="40.0737803" lon="-105.2297903">
  <ele>1583.02</ele>
  <time>2026-08-28T17:55:52Z</time>
  <course>1.3</course>
  <speed>4.970090542434815</speed>
  <fix>3d</fix>
</trkpt>
<trkpt lat="40.0737654" lon="-105.2297905">
  <ele>1583.0</ele>
  <time>2026-08-28T17:55:52Z</time>
  <course>0.16</course>
  <speed>4.99</speed>
  <fix>3d</fix>
</trkpt>
<trkpt lat="40.0737847" lon="-105.2297903">
  <ele>1583.02</ele>
  <time>2026-08-28T17:55:52Z</time>
  <course>1.3</course>
  <speed>4.970090542434815</speed>
  <fix>3d</fix>
</trkpt>
<trkpt lat="40.0737744" lon="-105.2297904">
  <ele>1583.0</ele>
  <time>2026-08-28T17:55:52Z</time>
  <course>0.16</course>
  <speed>4.99</speed>
  <fix>3d</fix>
</trkpt>
<trkpt lat="40.0737892" lon="-105.2297903">
  <ele>1583.02</ele>
  <time>2026-08-28T17:55:52Z</time>
  <course>1.3</course>
  <speed>4.970090542434815</speed>
  <fix>3d</fix>
</trkpt>
<trkpt lat="40.0737744" lon="-105.2297904">
  <ele>1583.0</ele>
  <time>2026-08-28T17:55:52Z</time>
  <course>0.16</course>
  <speed>4.99</speed>
  <fix>3d</fix>
</trkpt>
<trkpt lat="40.0737936" lon="-105.2297903">
  <ele>1583.01</ele>
  <time>2026-08-28T17:55:52Z</time>
  <course>1.3</course>
  <speed>4.970090542434815</speed>
  <fix>3d</fix>
</trkpt>
<trkpt lat="40.0737833" lon="-105.2297904">
  <ele>1583.0</ele>
  <time>2026-08-28T17:55:52Z</time>
  <course>0.16</course>
  <speed>4.99</speed>
  <fix>3d</fix>
</trkpt>
<trkpt lat="40.073798" lon="-105.2297902">
  <ele>1583.01</ele>
  <time>2026-08-28T17:55:52Z</time>
  <course>1.3</course>
  <speed>4.970090542434815</speed>
  <fix>3d</fix>
</trkpt>
<trkpt lat="40.0737833" lon="-105.2297904">
  <ele>1583.0</ele>
  <time>2026-08-28T17:55:52Z</time>
  <course>0.16</course>
  <speed>4.99</speed>
  <fix>3d</fix>
</trkpt>
<trkpt lat="40.0738025" lon="-105.2297902">
  <ele>1583.01</ele>
  <time>2026-08-28T17:55:52Z</time>
  <course>1.3</course>
  <speed>4.970090542434815</speed>
  <fix>3d</fix>
</trkpt>
<trkpt lat="40.0737924" lon="-105.2297904">
  <ele>1583.0</ele>
  <time>2026-08-28T17:55:52Z</time>
  <course>0.16</course>
  <speed>4.99</speed>
  <fix>3d</fix>
</trkpt>
<trkpt lat="40.073807" lon="-105.2297902">
  <ele>1583.0</ele>
  <time>2026-08-28T17:55:52Z</time>
  <course>1.29</course>
  <speed>4.970090542434815</speed>
  <fix>3d</fix>
</trkpt>
<trkpt lat="40.0738013" lon="-105.2297904">
  <ele>1583.0</ele>
  <time>2026-08-28T17:55:52Z</time>
  <course>0.16</course>
  <speed>4.99</speed>
  <fix>3d</fix>
</trkpt>
<trkpt lat="40.0738114" lon="-105.2297902">
  <ele>1583.0</ele>
  <time>2026-08-28T17:55:52Z</time>
  <course>1.29</course>
  <speed>4.970090542434815</speed>
  <fix>3d</fix>
</trkpt>
<trkpt lat="40.0738013" lon="-105.2297904">
  <ele>1583.0</ele>
  <time>2026-08-28T17:55:52Z</time>
  <course>0.16</course>
  <speed>4.99</speed>
  <fix>3d</fix>
</trkpt>
<trkpt lat="40.0738159" lon="-105.2297902">
  <ele>1583.0</ele>
  <time>2026-08-28T17:55:52Z</time>
  <course>1.29</course>
  <speed>4.970090542434815</speed>
  <fix>3d</fix>
</trkpt>
<trkpt lat="40.0738103" lon="-105.2297904">
  <ele>1583.0</ele>
  <time>2026-08-28T17:55:52Z</time>
  <course>0.16</course>
  <speed>5.0</speed>
  <fix>3d</fix>
</trkpt>
<trkpt lat="40.0738204" lon="-105.2297902">
  <ele>1582.99</ele>
  <time>2026-08-28T17:55:52Z</time>
  <course>1.29</course>
  <speed>4.970090542434815</speed>
  <fix>3d</fix>
</trkpt>
<trkpt lat="40.0738103" lon="-105.2297904">
  <ele>1583.0</ele>
  <time>2026-08-28T17:55:52Z</time>
  <course>0.16</course>
  <speed>5.0</speed>
  <fix>3d</fix>
</trkpt>
<trkpt lat="40.0738249" lon="-105.2297901">
  <ele>1582.99</ele>
  <time>2026-08-28T17:55:52Z</time>
  <course>1.29</course>
  <speed>4.980090360626</speed>
  <fix>3d</fix>
</trkpt>
<trkpt lat="40.0738192" lon="-105.2297903">
  <ele>1583.0</ele>
  <time>2026-08-28T17:55:52Z</time>
  <course>0.16</course>
  <speed>5.0</speed>
  <fix>3d</fix>
</trkpt>
<trkpt lat="40.0738294" lon="-105.2297901">
  <ele>1582.99</ele>
  <time>2026-08-28T17:55:52Z</time>
  <course>1.29</course>
  <speed>4.980090360626</speed>
  <fix>3d</fix>
</trkpt>
<trkpt lat="40.0738192" lon="-105.2297903">
  <ele>1583.0</ele>
  <time>2026-08-28T17:55:52Z</time>
  <course>0.16</course>
  <speed>5.0</speed>
  <fix>3d</fix>
</trkpt>
<trkpt lat="40.0738339" lon="-105.2297901">
  <ele>1582.99</ele>
  <time>2026-08-28T17:55:52Z</time>
  <course>1.29</course>
  <speed>4.980090360626</speed>
  <fix>3d</fix>
</trkpt>
<trkpt lat="40.0738283" lon="-105.2297902">
  <ele>1583.0</ele>
  <time>2026-08-28T17:55:52Z</time>
  <course>0.16</course>
  <speed>5.0</speed>
  <fix>3d</fix>
</trkpt>
<trkpt lat="40.0738385" lon="-105.2297901">
  <ele>1582.99</ele>
  <time>2026-08-28T17:55:52Z</time>
  <course>1.29</course>
  <speed>4.980090360626</speed>
  <fix>3d</fix>
</trkpt>
<trkpt lat="40.0738283" lon="-105.2297902">
  <ele>1583.0</ele>
  <time>2026-08-28T17:55:52Z</time>
  <course>0.16</course>
  <speed>5.0</speed>
  <fix>3d</fix>
</trkpt>
<trkpt lat="40.073843" lon="-105.2297901">
  <ele>1583.0</ele>
  <time>2026-08-28T17:55:52Z</time>
  <course>1.29</course>
  <speed>4.980090360626</speed>
  <fix>3d</fix>
</trkpt>
<trkpt lat="40.0738372" lon="-105.2297902">
  <ele>1583.0</ele>
  <time>2026-08-28T17:55:52Z</time>
  <course>0.16</course>
  <speed>5.01</speed>
  <fix>3d</fix>
</trkpt>
<trkpt lat="40.0738476" lon="-105.22979">
  <ele>1583.0</ele>
  <time>2026-08-28T17:55:52Z</time>
  <course>1.29</course>
  <speed>4.980090360626</speed>
  <fix>3d</fix>
</trkpt>
<trkpt lat="40.0738372" lon="-105.2297902">
  <ele>1583.0</ele>
  <time>2026-08-28T17:55:52Z</time>
  <course>0.16</course>
  <speed>5.01</speed>
  <fix>3d</fix>
</trkpt>
<trkpt lat="40.0738521" lon="-105.22979">
  <ele>1583.0</ele>
  <time>2026-08-28T17:55:52Z</time>
  <course>1.29</course>
  <speed>4.990090179545857</speed>
  <fix>3d</fix>
</trkpt>
<trkpt lat="40.0738463" lon="-105.2297902">
  <ele>1583.0</ele>
  <time>2026-08-28T17:55:52Z</time>
  <course>0.16</course>
  <speed>5.0</speed>
  <fix>3d</fix>
</trkpt>
<trkpt lat="40.0738566" lon="-105.22979">
  <ele>1583.01</ele>
  <time>2026-08-28T17:55:52Z</time>
  <course>1.29</course>
  <speed>4.990090179545857</speed>
  <fix>3d</fix>
</trkpt>
<trkpt lat="40.0738463" lon="-105.2297902">
  <ele>1583.0</ele>
  <time>2026-08-28T17:55:52Z</time>
  <course>0.16</course>
  <speed>5.0</speed>
  <fix>3d</fix>
</trkpt>
<trkpt lat="40.0738611" lon="-105.22979">
  <ele>1583.01</ele>
  <time>2026-08-28T17:55:52Z</time>
  <course>1.29</course>
  <speed>4.980090360626</speed>
  <fix>3d</fix>
</trkpt>
<trkpt lat="40.0738553" lon="-105.2297902">
  <ele>1583.0</ele>
  <time>2026-08-28T17:55:52Z</time>
  <course>0.16</course>
  <speed>5.0</speed>
  <fix>3d</fix>
</trkpt>
<trkpt lat="40.0738657" lon="-105.22979">
  <ele>1583.01</ele>
  <time>2026-08-28T17:55:52Z</time>
  <course>1.29</course>
  <speed>4.980090360626</speed>
  <fix>3d</fix>
</trkpt>
<trkpt lat="40.0738553" lon="-105.2297902">
  <ele>1583.0</ele>
  <time>2026-08-28T17:55:52Z</time>
  <course>0.16</course>
  <speed>5.0</speed>
  <fix>3d</fix>
</trkpt>
<trkpt lat="40.0738702" lon="-105.22979">
  <ele>1583.01</ele>
  <time>2026-08-28T17:55:52Z</time>
  <course>1.29</course>
  <speed>4.980090360626</speed>
  <fix>3d</fix>
</trkpt>
<trkpt lat="40.0738553" lon="-105.2297902">
  <ele>1583.0</ele>
  <time>2026-08-28T17:55:52Z</time>
  <course>0.16</course>
  <speed>5.0</speed>
  <fix>3d</fix>
</trkpt>
<trkpt lat="40.0738746" lon="-105.2297899">
  <ele>1583.01</ele>
  <time>2026-08-28T17:55:52Z</time>
  <course>1.29</course>
  <speed>4.980090360626</speed>
  <fix>3d</fix>
</trkpt>
<trkpt lat="40.0738642" lon="-105.2297902">
  <ele>1583.0</ele>
  <time>2026-08-28T17:55:52Z</time>
  <course>0.16</course>
  <speed>5.0</speed>
  <fix>3d</fix>
</trkpt>
<trkpt lat="40.0738791" lon="-105.2297899">
  <ele>1583.01</ele>
  <time>2026-08-28T17:55:52Z</time>
  <course>1.29</course>
  <speed>4.980090360626</speed>
  <fix>3d</fix>
</trkpt>
<trkpt lat="40.0738642" lon="-105.2297902">
  <ele>1583.0</ele>
  <time>2026-08-28T17:55:52Z</time>
  <course>0.16</course>
  <speed>5.0</speed>
  <fix>3d</fix>
</trkpt>
<trkpt lat="40.0738836" lon="-105.2297899">
  <ele>1583.01</ele>
  <time>2026-08-28T17:55:52Z</time>
  <course>1.29</course>
  <speed>4.970090542434815</speed>
  <fix>3d</fix>
</trkpt>
<trkpt lat="40.0738733" lon="-105.2297901">
  <ele>1583.0</ele>
  <time>2026-08-28T17:55:52Z</time>
  <course>0.16</course>
  <speed>4.99</speed>
  <fix>3d</fix>
</trkpt>
<trkpt lat="40.073888" lon="-105.2297899">
  <ele>1583.01</ele>
  <time>2026-08-28T17:55:52Z</time>
  <course>1.29</course>
  <speed>4.970090542434815</speed>
  <fix>3d</fix>
</trkpt>
<trkpt lat="40.0738733" lon="-105.2297901">
  <ele>1583.0</ele>
  <time>2026-08-28T17:55:52Z</time>
  <course>0.16</course>
  <speed>4.99</speed>
  <fix>3d</fix>
</trkpt>
<trkpt lat="40.0738924" lon="-105.2297899">
  <ele>1583.01</ele>
  <time>2026-08-28T17:55:52Z</time>
  <course>1.29</course>
  <speed>4.970090542434815</speed>
  <fix>3d</fix>
</trkpt>
<trkpt lat="40.0738822" lon="-105.22979">
  <ele>1583.0</ele>
  <time>2026-08-28T17:55:52Z</time>
  <course>0.16</course>
  <speed>4.99</speed>
  <fix>3d</fix>
</trkpt>
<trkpt lat="40.0738969" lon="-105.2297899">
  <ele>1583.0</ele>
  <time>2026-08-28T17:55:52Z</time>
  <course>1.29</course>
  <speed>4.970090542434815</speed>
  <fix>3d</fix>
</trkpt>
<trkpt lat="40.0738913" lon="-105.22979">
  <ele>1583.0</ele>
  <time>2026-08-28T17:55:52Z</time>
  <course>0.16</course>
  <speed>4.99</speed>
  <fix>3d</fix>
</trkpt>
<trkpt lat="40.0739014" lon="-105.2297898">
  <ele>1583.0</ele>
  <time>2026-08-28T17:55:52Z</time>
  <course>1.29</course>
  <speed>4.970090542434815</speed>
  <fix>3d</fix>
</trkpt>
<trkpt lat="40.0738913" lon="-105.22979">
  <ele>1583.0</ele>
  <time>2026-08-28T17:55:52Z</time>
  <course>0.16</course>
  <speed>4.99</speed>
  <fix>3d</fix>
</trkpt>
<trkpt lat="40.0739059" lon="-105.2297898">
  <ele>1583.01</ele>
  <time>2026-08-28T17:55:52Z</time>
  <course>1.29</course>
  <speed>4.970090542434815</speed>
  <fix>3d</fix>
</trkpt>
<trkpt lat="40.0739003" lon="-105.22979">
  <ele>1583.0</ele>
  <time>2026-08-28T17:55:52Z</time>
  <course>0.16</course>
  <speed>4.99</speed>
  <fix>3d</fix>
</trkpt>
<trkpt lat="40.0739104" lon="-105.2297898">
  <ele>1583.01</ele>
  <time>2026-08-28T17:55:52Z</time>
  <course>1.29</course>
  <speed>4.970090542434815</speed>
  <fix>3d</fix>
</trkpt>
<trkpt lat="40.0739003" lon="-105.22979">
  <ele>1583.0</ele>
  <time>2026-08-28T17:55:52Z</time>
  <course>0.16</course>
  <speed>4.99</speed>
  <fix>3d</fix>
</trkpt>
<trkpt lat="40.0739149" lon="-105.2297898">
  <ele>1583.01</ele>
  <time>2026-08-28T17:55:52Z</time>
  <course>1.29</course>
  <speed>4.970090542434815</speed>
  <fix>3d</fix>
</trkpt>
<trkpt lat="40.0739092" lon="-105.22979">
  <ele>1583.0</ele>
  <time>2026-08-28T17:55:52Z</time>
  <course>0.16</course>
  <speed>4.99</speed>
  <fix>3d</fix>
</trkpt>
<trkpt lat="40.0739194" lon="-105.2297898">
  <ele>1583.01</ele>
  <time>2026-08-28T17:55:52Z</time>
  <course>1.29</course>
  <speed>4.970090542434815</speed>
  <fix>3d</fix>
</trkpt>
<trkpt lat="40.0739092" lon="-105.22979">
  <ele>1583.0</ele>
  <time>2026-08-28T17:55:52Z</time>
  <course>0.16</course>
  <speed>4.99</speed>
  <fix>3d</fix>
</trkpt>
<trkpt lat="40.0739239" lon="-105.2297898">
  <ele>1583.01</ele>
  <time>2026-08-28T17:55:52Z</time>
  <course>1.29</course>
  <speed>4.970090542434815</speed>
  <fix>3d</fix>
</trkpt>
<trkpt lat="40.0739181" lon="-105.22979">
  <ele>1583.0</ele>
  <time>2026-08-28T17:55:52Z</time>
  <course>0.16</course>
  <speed>4.99</speed>
  <fix>3d</fix>
</trkpt>
<trkpt lat="40.0739284" lon="-105.2297898">
  <ele>1583.0</ele>
  <time>2026-08-28T17:55:52Z</time>
  <course>1.29</course>
  <speed>4.980090360626</speed>
  <fix>3d</fix>
</trkpt>
<trkpt lat="40.0739181" lon="-105.22979">
  <ele>1583.0</ele>
  <time>2026-08-28T17:55:52Z</time>
  <course>0.16</course>
  <speed>4.99</speed>
  <fix>3d</fix>
</trkpt>
<trkpt lat="40.073933" lon="-105.2297897">
  <ele>1583.01</ele>
  <time>2026-08-28T17:55:52Z</time>
  <course>1.29</course>
  <speed>4.980090360626</speed>
  <fix>3d</fix>
</trkpt>
<trkpt lat="40.0739272" lon="-105.2297899">
  <ele>1583.0</ele>
  <time>2026-08-28T17:55:52Z</time>
  <course>0.16</course>
  <speed>4.99</speed>
  <fix>3d</fix>
</trkpt>
<trkpt lat="40.0739375" lon="-105.2297897">
  <ele>1583.0</ele>
  <time>2026-08-28T17:55:52Z</time>
  <course>1.29</course>
  <speed>4.980090360626</speed>
  <fix>3d</fix>
</trkpt>
<trkpt lat="40.0739272" lon="-105.2297899">
  <ele>1583.0</ele>
  <time>2026-08-28T17:55:52Z</time>
  <course>0.16</course>
  <speed>4.99</speed>
  <fix>3d</fix>
</trkpt>
<trkpt lat="40.073942" lon="-105.2297897">
  <ele>1583.0</ele>
  <time>2026-08-28T17:55:52Z</time>
  <course>1.29</course>
  <speed>4.980090360626</speed>
  <fix>3d</fix>
</trkpt>
<trkpt lat="40.0739362" lon="-105.2297899">
  <ele>1583.0</ele>
  <time>2026-08-28T17:55:52Z</time>
  <course>0.16</course>
  <speed>4.99</speed>
  <fix>3d</fix>
</trkpt>
<trkpt lat="40.0739465" lon="-105.2297897">
  <ele>1583.0</ele>
  <time>2026-08-28T17:55:52Z</time>
  <course>1.29</course>
  <speed>4.980090360626</speed>
  <fix>3d</fix>
</trkpt>
<trkpt lat="40.0739362" lon="-105.2297899">
  <ele>1583.0</ele>
  <time>2026-08-28T17:55:52Z</time>
  <course>0.16</course>
  <speed>4.99</speed>
  <fix>3d</fix>
</trkpt>
<trkpt lat="40.073951" lon="-105.2297897">
  <ele>1583.0</ele>
  <time>2026-08-28T17:55:52Z</time>
  <course>1.29</course>
  <speed>4.980090360626</speed>
  <fix>3d</fix>
</trkpt>
<trkpt lat="40.0739451" lon="-105.2297899">
  <ele>1583.0</ele>
  <time>2026-08-28T17:55:52Z</time>
  <course>0.16</course>
  <speed>4.99</speed>
  <fix>3d</fix>
</trkpt>
<trkpt lat="40.0739555" lon="-105.2297897">
  <ele>1583.0</ele>
  <time>2026-08-28T17:55:52Z</time>
  <course>1.29</course>
  <speed>4.980090360626</speed>
  <fix>3d</fix>
</trkpt>
<trkpt lat="40.0739451" lon="-105.2297899">
  <ele>1583.0</ele>
  <time>2026-08-28T17:55:52Z</time>
  <course>0.16</course>
  <speed>4.99</speed>
  <fix>3d</fix>
</trkpt>
<trkpt lat="40.07396" lon="-105.2297896">
  <ele>1582.99</ele>
  <time>2026-08-28T17:55:52Z</time>
  <course>1.29</course>
  <speed>4.980090360626</speed>
  <fix>3d</fix>
</trkpt>
<trkpt lat="40.0739451" lon="-105.2297899">
  <ele>1583.0</ele>
  <time>2026-08-28T17:55:52Z</time>
  <course>0.16</course>
  <speed>4.99</speed>
  <fix>3d</fix>
</trkpt>
<trkpt lat="40.0739645" lon="-105.2297896">
  <ele>1582.99</ele>
  <time>2026-08-28T17:55:52Z</time>
  <course>1.29</course>
  <speed>4.980090360626</speed>
  <fix>3d</fix>
</trkpt>
<trkpt lat="40.0739541" lon="-105.2297898">
  <ele>1583.0</ele>
  <time>2026-08-28T17:55:52Z</time>
  <course>0.16</course>
  <speed>4.99</speed>
  <fix>3d</fix>
</trkpt>
<trkpt lat="40.073969" lon="-105.2297896">
  <ele>1582.99</ele>
  <time>2026-08-28T17:55:52Z</time>
  <course>1.28</course>
  <speed>4.980090360626</speed>
  <fix>3d</fix>
</trkpt>
<trkpt lat="40.0739541" lon="-105.2297898">
  <ele>1583.0</ele>
  <time>2026-08-28T17:55:52Z</time>
  <course>0.16</course>
  <speed>4.99</speed>
  <fix>3d</fix>
</trkpt>
<trkpt lat="40.0739734" lon="-105.2297896">
  <ele>1582.99</ele>
  <time>2026-08-28T17:55:52Z</time>
  <course>1.28</course>
  <speed>4.980090360626</speed>
  <fix>3d</fix>
</trkpt>
<trkpt lat="40.0739631" lon="-105.2297897">
  <ele>1583.0</ele>
  <time>2026-08-28T17:55:52Z</time>
  <course>0.16</course>
  <speed>4.99</speed>
  <fix>3d</fix>
</trkpt>
<trkpt lat="40.0739779" lon="-105.2297896">
  <ele>1582.99</ele>
  <time>2026-08-28T17:55:52Z</time>
  <course>1.28</course>
  <speed>4.980090360626</speed>
  <fix>3d</fix>
</trkpt>
<trkpt lat="40.0739631" lon="-105.2297897">
  <ele>1583.0</ele>
  <time>2026-08-28T17:55:52Z</time>
  <course>0.16</course>
  <speed>4.99</speed>
  <fix>3d</fix>
</trkpt>
<trkpt lat="40.0739823" lon="-105.2297896">
  <ele>1583.0</ele>
  <time>2026-08-28T17:55:52Z</time>
  <course>1.28</course>
  <speed>4.980090360626</speed>
  <fix>3d</fix>
</trkpt>
<trkpt lat="40.0739721" lon="-105.2297897">
  <ele>1583.0</ele>
  <time>2026-08-28T17:55:52Z</time>
  <course>0.16</course>
  <speed>5.0</speed>
  <fix>3d</fix>
</trkpt>
<trkpt lat="40.0739868" lon="-105.2297895">
  <ele>1583.0</ele>
  <time>2026-08-28T17:55:52Z</time>
  <course>1.28</course>
  <speed>4.980090360626</speed>
  <fix>3d</fix>
</trkpt>
<trkpt lat="40.0739721" lon="-105.2297897">
  <ele>1583.0</ele>
  <time>2026-08-28T17:55:52Z</time>
  <course>0.16</course>
  <speed>5.0</speed>
  <fix>3d</fix>
</trkpt>
<trkpt lat="40.0739913" lon="-105.2297895">
  <ele>1583.0</ele>
  <time>2026-08-28T17:55:52Z</time>
  <course>1.28</course>
  <speed>4.980090360626</speed>
  <fix>3d</fix>
</trkpt>
<trkpt lat="40.0739811" lon="-105.2297897">
  <ele>1583.0</ele>
  <time>2026-08-28T17:55:52Z</time>
  <course>0.16</course>
  <speed>5.0</speed>
  <fix>3d</fix>
</trkpt>
<trkpt lat="40.0739957" lon="-105.2297895">
  <ele>1583.0</ele>
  <time>2026-08-28T17:55:52Z</time>
  <course>1.28</course>
  <speed>4.980090360626</speed>
  <fix>3d</fix>
</trkpt>
<trkpt lat="40.0739901" lon="-105.2297897">
  <ele>1583.0</ele>
  <time>2026-08-28T17:55:52Z</time>
  <course>0.16</course>
  <speed>5.0</speed>
  <fix>3d</fix>
</trkpt>
<trkpt lat="40.0740002" lon="-105.2297895">
  <ele>1583.0</ele>
  <time>2026-08-28T17:55:52Z</time>
  <course>1.28</course>
  <speed>4.980090360626</speed>
  <fix>3d</fix>
</trkpt>
<trkpt lat="40.0739901" lon="-105.2297897">
  <ele>1583.0</ele>
  <time>2026-08-28T17:55:52Z</time>
  <course>0.16</course>
  <speed>5.0</speed>
  <fix>3d</fix>
</trkpt>
<trkpt lat="40.0740047" lon="-105.2297895">
  <ele>1583.0</ele>
  <time>2026-08-28T17:55:52Z</time>
  <course>1.28</course>
  <speed>4.990090179545857</speed>
  <fix>3d</fix>
</trkpt>
<trkpt lat="40.073999" lon="-105.2297897">
  <ele>1583.0</ele>
  <time>2026-08-28T17:55:52Z</time>
  <course>0.16</course>
  <speed>5.01</speed>
  <fix>3d</fix>
</trkpt>
<trkpt lat="40.0740092" lon="-105.2297895">
  <ele>1583.0</ele>
  <time>2026-08-28T17:55:52Z</time>
  <course>1.28</course>
  <speed>4.990090179545857</speed>
  <fix>3d</fix>
</trkpt>
<trkpt lat="40.073999" lon="-105.2297897">
  <ele>1583.0</ele>
  <time>2026-08-28T17:55:52Z</time>
  <course>0.16</course>
  <speed>5.01</speed>
  <fix>3d</fix>
</trkpt>
<trkpt lat="40.0740137" lon="-105.2297894">
  <ele>1583.01</ele>
  <time>2026-08-28T17:55:52Z</time>
  <course>1.28</course>
  <speed>4.990090179545857</speed>
  <fix>3d</fix>
</trkpt>
<trkpt lat="40.0740081" lon="-105.2297896">
  <ele>1583.0</ele>
  <time>2026-08-28T17:55:52Z</time>
  <course>0.16</course>
  <speed>5.02</speed>
  <fix>3d</fix>
</trkpt>
<trkpt lat="40.0740183" lon="-105.2297894">
  <ele>1583.01</ele>
  <time>2026-08-28T17:55:52Z</time>
  <course>1.28</course>
  <speed>5.000089999190014</speed>
  <fix>3d</fix>
</trkpt>
<trkpt lat="40.0740081" lon="-105.2297896">
  <ele>1583.0</ele>
  <time>2026-08-28T17:55:52Z</time>
  <course>0.16</course>
  <speed>5.02</speed>
  <fix>3d</fix>
</trkpt>
<trkpt lat="40.0740228" lon="-105.2297894">
  <ele>1583.01</ele>
  <time>2026-08-28T17:55:52Z</time>
  <course>1.28</course>
  <speed>5.000089999190014</speed>
  <fix>3d</fix>
</trkpt>
<trkpt lat="40.074017" lon="-105.2297895">
  <ele>1583.0</ele>
  <time>2026-08-28T17:55:52Z</time>
  <course>0.16</course>
  <speed>5.02</speed>
  <fix>3d</fix>
</trkpt>
<trkpt lat="40.0740274" lon="-105.2297894">
  <ele>1583.01</ele>
  <time>2026-08-28T17:55:52Z</time>
  <course>1.28</course>
  <speed>5.000089999190014</speed>
  <fix>3d</fix>
</trkpt>
<trkpt lat="40.074017" lon="-105.2297895">
  <ele>1583.0</ele>
  <time>2026-08-28T17:55:52Z</time>
  <course>0.16</course>
  <speed>5.02</speed>
  <fix>3d</fix>
</trkpt>
<trkpt lat="40.0740319" lon="-105.2297894">
  <ele>1583.01</ele>
  <time>2026-08-28T17:55:52Z</time>
  <course>1.28</course>
  <speed>5.000089999190014</speed>
  <fix>3d</fix>
</trkpt>
<trkpt lat="40.0740261" lon="-105.2297895">
  <ele>1583.0</ele>
  <time>2026-08-28T17:55:52Z</time>
  <course>0.16</course>
  <speed>5.02</speed>
  <fix>3d</fix>
</trkpt>
<trkpt lat="40.0740365" lon="-105.2297894">
  <ele>1583.01</ele>
  <time>2026-08-28T17:55:52Z</time>
  <course>1.28</course>
  <speed>5.000089999190014</speed>
  <fix>3d</fix>
</trkpt>
<trkpt lat="40.0740261" lon="-105.2297895">
  <ele>1583.0</ele>
  <time>2026-08-28T17:55:52Z</time>
  <course>0.16</course>
  <speed>5.02</speed>
  <fix>3d</fix>
</trkpt>
<trkpt lat="40.074041" lon="-105.2297893">
  <ele>1583.01</ele>
  <time>2026-08-28T17:55:52Z</time>
  <course>1.28</course>
  <speed>5.000089999190014</speed>
  <fix>3d</fix>
</trkpt>
<trkpt lat="40.0740352" lon="-105.2297895">
  <ele>1583.0</ele>
  <time>2026-08-28T17:55:52Z</time>
  <course>0.16</course>
  <speed>5.02</speed>
  <fix>3d</fix>
</trkpt>
<trkpt lat="40.0740455" lon="-105.2297893">
  <ele>1583.01</ele>
  <time>2026-08-28T17:55:52Z</time>
  <course>1.28</course>
  <speed>5.000089999190014</speed>
  <fix>3d</fix>
</trkpt>
<trkpt lat="40.0740352" lon="-105.2297895">
  <ele>1583.0</ele>
  <time>2026-08-28T17:55:52Z</time>
  <course>0.16</course>
  <speed>5.02</speed>
  <fix>3d</fix>
</trkpt>
<trkpt lat="40.0740501" lon="-105.2297893">
  <ele>1583.01</ele>
  <time>2026-08-28T17:55:52Z</time>
  <course>1.28</course>
  <speed>5.000089999190014</speed>
  <fix>3d</fix>
</trkpt>
<trkpt lat="40.0740442" lon="-105.2297895">
  <ele>1583.0</ele>
  <time>2026-08-28T17:55:52Z</time>
  <course>0.16</course>
  <speed>5.02</speed>
  <fix>3d</fix>
</trkpt>
<trkpt lat="40.0740546" lon="-105.2297893">
  <ele>1583.01</ele>
  <time>2026-08-28T17:55:52Z</time>
  <course>1.28</course>
  <speed>5.000089999190014</speed>
  <fix>3d</fix>
</trkpt>
<trkpt lat="40.0740442" lon="-105.2297895">
  <ele>1583.0</ele>
  <time>2026-08-28T17:55:52Z</time>
  <course>0.16</course>
  <speed>5.02</speed>
  <fix>3d</fix>
</trkpt>
<trkpt lat="40.0740591" lon="-105.2297893">
  <ele>1583.01</ele>
  <time>2026-08-28T17:55:52Z</time>
  <course>1.28</course>
  <speed>5.000089999190014</speed>
  <fix>3d</fix>
</trkpt>
<trkpt lat="40.0740442" lon="-105.2297895">
  <ele>1583.0</ele>
  <time>2026-08-28T17:55:52Z</time>
  <course>0.16</course>
  <speed>5.02</speed>
  <fix>3d</fix>
</trkpt>
<trkpt lat="40.0740636" lon="-105.2297892">
  <ele>1583.01</ele>
  <time>2026-08-28T17:55:52Z</time>
  <course>1.28</course>
  <speed>4.990090179545857</speed>
  <fix>3d</fix>
</trkpt>
<trkpt lat="40.0740532" lon="-105.2297895">
  <ele>1583.0</ele>
  <time>2026-08-28T17:55:52Z</time>
  <course>0.16</course>
  <speed>5.01</speed>
  <fix>3d</fix>
</trkpt>
<trkpt lat="40.0740681" lon="-105.2297892">
  <ele>1583.01</ele>
  <time>2026-08-28T17:55:52Z</time>
  <course>1.28</course>
  <speed>4.990090179545857</speed>
  <fix>3d</fix>
</trkpt>
<trkpt lat="40.0740532" lon="-105.2297895">
  <ele>1583.0</ele>
  <time>2026-08-28T17:55:52Z</time>
  <course>0.16</course>
  <speed>5.01</speed>
  <fix>3d</fix>
</trkpt>
<trkpt lat="40.0740726" lon="-105.2297892">
  <ele>1583.01</ele>
  <time>2026-08-28T17:55:52Z</time>
  <course>1.28</course>
  <speed>4.990090179545857</speed>
  <fix>3d</fix>
</trkpt>
<trkpt lat="40.0740622" lon="-105.2297894">
  <ele>1583.0</ele>
  <time>2026-08-28T17:55:52Z</time>
  <course>0.16</course>
  <speed>5.01</speed>
  <fix>3d</fix>
</trkpt>
<trkpt lat="40.074077" lon="-105.2297892">
  <ele>1583.02</ele>
  <time>2026-08-28T17:55:52Z</time>
  <course>1.28</course>
  <speed>4.990090179545857</speed>
  <fix>3d</fix>
</trkpt>
<trkpt lat="40.0740622" lon="-105.2297894">
  <ele>1583.0</ele>
  <time>2026-08-28T17:55:52Z</time>
  <course>0.16</course>
  <speed>5.01</speed>
  <fix>3d</fix>
</trkpt>
<trkpt lat="40.0740815" lon="-105.2297892">
  <ele>1583.02</ele>
  <time>2026-08-28T17:55:52Z</time>
  <course>1.28</course>
  <speed>4.980090360626</speed>
  <fix>3d</fix>
</trkpt>
<trkpt lat="40.0740713" lon="-105.2297894">
  <ele>1583.0</ele>
  <time>2026-08-28T17:55:52Z</time>
  <course>0.16</course>
  <speed>5.01</speed>
  <fix>3d</fix>
</trkpt>
<trkpt lat="40.074086" lon="-105.2297892">
  <ele>1583.02</ele>
  <time>2026-08-28T17:55:52Z</time>
  <course>1.28</course>
  <speed>4.980090360626</speed>
  <fix>3d</fix>
</trkpt>
<trkpt lat="40.0740803" lon="-105.2297894">
  <ele>1583.0</ele>
  <time>2026-08-28T17:55:52Z</time>
  <course>0.16</course>
  <speed>5.0</speed>
  <fix>3d</fix>
</trkpt>
<trkpt lat="40.0740905" lon="-105.2297892">
  <ele>1583.01</ele>
  <time>2026-08-28T17:55:52Z</time>
  <course>1.28</course>
  <speed>4.980090360626</speed>
  <fix>3d</fix>
</trkpt>
<trkpt lat="40.0740803" lon="-105.2297894">
  <ele>1583.0</ele>
  <time>2026-08-28T17:55:52Z</time>
  <course>0.16</course>
  <speed>5.0</speed>
  <fix>3d</fix>
</trkpt>
<trkpt lat="40.0740949" lon="-105.2297892">
  <ele>1583.01</ele>
  <time>2026-08-28T17:55:52Z</time>
  <course>1.29</course>
  <speed>4.970090542434815</speed>
  <fix>3d</fix>
</trkpt>
<trkpt lat="40.0740892" lon="-105.2297893">
  <ele>1583.0</ele>
  <time>2026-08-28T17:55:52Z</time>
  <course>0.16</course>
  <speed>5.0</speed>
  <fix>3d</fix>
</trkpt>
<trkpt lat="40.0740994" lon="-105.2297891">
  <ele>1583.01</ele>
  <time>2026-08-28T17:55:52Z</time>
  <course>1.36</course>
  <speed>4.94009109227755</speed>
  <fix>3d</fix>
</trkpt>
<trkpt lat="40.0740892" lon="-105.2297893">
  <ele>1583.0</ele>
  <time>2026-08-28T17:55:52Z</time>
  <course>0.16</course>
  <speed>5.0</speed>
  <fix>3d</fix>
</trkpt>
<trkpt lat="40.0741039" lon="-105.2297891">
  <ele>1583.01</ele>
  <time>2026-08-28T17:55:52Z</time>
  <course>1.42</course>
  <speed>4.900163262586258</speed>
  <fix>3d</fix>
</trkpt>
<trkpt lat="40.0740981" lon="-105.2297892">
  <ele>1583.0</ele>
  <time>2026-08-28T17:55:52Z</time>
  <course>0.24</course>
  <speed>4.96</speed>
  <fix>3d</fix>
</trkpt>
<trkpt lat="40.0741083" lon="-105.2297891">
  <ele>1583.0</ele>
  <time>2026-08-28T17:55:52Z</time>
  <course>1.49</course>
  <speed>4.850164945648756</speed>
  <fix>3d</fix>
</trkpt>
<trkpt lat="40.0740981" lon="-105.2297892">
  <ele>1583.0</ele>
  <time>2026-08-28T17:55:52Z</time>
  <course>0.24</course>
  <speed>4.96</speed>
  <fix>3d</fix>
</trkpt>
<trkpt lat="40.0741126" lon="-105.229789">
  <ele>1583.0</ele>
  <time>2026-08-28T17:55:52Z</time>
  <course>1.56</course>
  <speed>4.7802614991232435</speed>
  <fix>3d</fix>
</trkpt>
<trkpt lat="40.074107" lon="-105.2297892">
  <ele>1583.0</ele>
  <time>2026-08-28T17:55:52Z</time>
  <course>0.37</course>
  <speed>4.86</speed>
  <fix>3d</fix>
</trkpt>
<trkpt lat="40.074117" lon="-105.229789">
  <ele>1583.0</ele>
  <time>2026-08-28T17:55:52Z</time>
  <course>1.62</course>
  <speed>4.700265949922408</speed>
  <fix>3d</fix>
</trkpt>
<trkpt lat="40.074107" lon="-105.2297892">
  <ele>1583.0</ele>
  <time>2026-08-28T17:55:52Z</time>
  <course>0.37</course>
  <speed>4.86</speed>
  <fix>3d</fix>
</trkpt>
<trkpt lat="40.0741212" lon="-105.2297889">
  <ele>1583.0</ele>
  <time>2026-08-28T17:55:52Z</time>
  <course>1.68</course>
  <speed>4.610271141700887</speed>
  <fix>3d</fix>
</trkpt>
<trkpt lat="40.0741156" lon="-105.2297891">
  <ele>1583.0</ele>
  <time>2026-08-28T17:55:52Z</time>
  <course>0.5</course>
  <speed>4.71</speed>
  <fix>3d</fix>
</trkpt>
<trkpt lat="40.0741253" lon="-105.2297889">
  <ele>1583.0</ele>
  <time>2026-08-28T17:55:52Z</time>
  <course>1.75</course>
  <speed>4.510277153346566</speed>
  <fix>3d</fix>
</trkpt>
<trkpt lat="40.0741156" lon="-105.2297891">
  <ele>1583.0</ele>
  <time>2026-08-28T17:55:52Z</time>
  <course>0.5</course>
  <speed>4.71</speed>
  <fix>3d</fix>
</trkpt>
<trkpt lat="40.0741293" lon="-105.2297888">
  <ele>1583.0</ele>
  <time>2026-08-28T17:55:52Z</time>
  <course>1.81</course>
  <speed>4.400409071893203</speed>
  <fix>3d</fix>
</trkpt>
<trkpt lat="40.0741239" lon="-105.229789">
  <ele>1583.0</ele>
  <time>2026-08-28T17:55:52Z</time>
  <course>0.62</course>
  <speed>4.53</speed>
  <fix>3d</fix>
</trkpt>
<trkpt lat="40.0741332" lon="-105.2297888">
  <ele>1583.01</ele>
  <time>2026-08-28T17:55:52Z</time>
  <course>1.87</course>
  <speed>4.290419559903204</speed>
  <fix>3d</fix>
</trkpt>
<trkpt lat="40.0741239" lon="-105.229789">
  <ele>1583.0</ele>
  <time>2026-08-28T17:55:52Z</time>
  <course>0.62</course>
  <speed>4.53</speed>
  <fix>3d</fix>
</trkpt>
<trkpt lat="40.074137" lon="-105.2297887">
  <ele>1583.01</ele>
  <time>2026-08-28T17:55:52Z</time>
  <course>1.92</course>
  <speed>4.170431632337353</speed>
  <fix>3d</fix>
</trkpt>
<trkpt lat="40.0741319" lon="-105.2297889">
  <ele>1583.0</ele>
  <time>2026-08-28T17:55:52Z</time>
  <course>0.74</course>
  <speed>4.31</speed>
  <fix>3d</fix>
</trkpt>
<trkpt lat="40.0741407" lon="-105.2297887">
  <ele>1583.01</ele>
  <time>2026-08-28T17:55:52Z</time>
  <course>2.04</course>
  <speed>4.040445519989102</speed>
  <fix>3d</fix>
</trkpt>
<trkpt lat="40.0741319" lon="-105.2297889">
  <ele>1583.0</ele>
  <time>2026-08-28T17:55:52Z</time>
  <course>0.74</course>
  <speed>4.31</speed>
  <fix>3d</fix>
</trkpt>
<trkpt lat="40.0741443" lon="-105.2297886">
  <ele>1583.01</ele>
  <time>2026-08-28T17:55:52Z</time>
  <course>2.15</course>
  <speed>3.9106265482656357</speed>
  <fix>3d</fix>
</trkpt>
<trkpt lat="40.0741319" lon="-105.2297889">
  <ele>1583.0</ele>
  <time>2026-08-28T17:55:52Z</time>
  <course>0.74</course>
  <speed>4.31</speed>
  <fix>3d</fix>
</trkpt>
<trkpt lat="40.0741478" lon="-105.2297885">
  <ele>1583.01</ele>
  <time>2026-08-28T17:55:52Z</time>
  <course>2.25</course>
  <speed>3.7806480925894177</speed>
  <fix>3d</fix>
</trkpt>
<trkpt lat="40.0741394" lon="-105.2297888">
  <ele>1583.0</ele>
  <time>2026-08-28T17:55:52Z</time>
  <course>0.91</course>
  <speed>4.07</speed>
  <fix>3d</fix>
</trkpt>
<trkpt lat="40.0741511" lon="-105.2297884">
  <ele>1583.01</ele>
  <time>2026-08-28T17:55:52Z</time>
  <course>2.35</course>
  <speed>3.650671171168392</speed>
  <fix>3d</fix>
</trkpt>
<trkpt lat="40.0741394" lon="-105.2297888">
  <ele>1583.0</ele>
  <time>2026-08-28T17:55:52Z</time>
  <course>0.91</course>
  <speed>4.07</speed>
  <fix>3d</fix>
</trkpt>
<trkpt lat="40.0741543" lon="-105.2297884">
  <ele>1583.02</ele>
  <time>2026-08-28T17:55:52Z</time>
  <course>2.45</course>
  <speed>3.5106979363083917</speed>
  <fix>3d</fix>
</trkpt>
<trkpt lat="40.0741465" lon="-105.2297886">
  <ele>1583.0</ele>
  <time>2026-08-28T17:55:52Z</time>
  <course>1.13</course>
  <speed>3.81</speed>
  <fix>3d</fix>
</trkpt>
<trkpt lat="40.0741573" lon="-105.2297883">
  <ele>1583.02</ele>
  <time>2026-08-28T17:55:52Z</time>
  <course>2.55</course>
  <speed>3.3807247743642193</speed>
  <fix>3d</fix>
</trkpt>
<trkpt lat="40.0741465" lon="-105.2297886">
  <ele>1583.0</ele>
  <time>2026-08-28T17:55:52Z</time>
  <course>1.13</course>
  <speed>3.81</speed>
  <fix>3d</fix>
</trkpt>
<trkpt lat="40.0741603" lon="-105.2297882">
  <ele>1583.02</ele>
  <time>2026-08-28T17:55:52Z</time>
  <course>2.68</course>
  <speed>3.2509844662809453</speed>
  <fix>3d</fix>
</trkpt>
<trkpt lat="40.0741532" lon="-105.2297883">
  <ele>1583.0</ele>
  <time>2026-08-28T17:55:52Z</time>
  <course>1.33</course>
  <speed>3.55</speed>
  <fix>3d</fix>
</trkpt>
<trkpt lat="40.0741631" lon="-105.2297881">
  <ele>1583.02</ele>
  <time>2026-08-28T17:55:52Z</time>
  <course>2.81</course>
  <speed>3.1210254725009854</speed>
  <fix>3d</fix>
</trkpt>
<trkpt lat="40.0741532" lon="-105.2297883">
  <ele>1583.0</ele>
  <time>2026-08-28T17:55:52Z</time>
  <course>1.33</course>
  <speed>3.55</speed>
  <fix>3d</fix>
</trkpt>
<trkpt lat="40.0741658" lon="-105.229788">
  <ele>1583.01</ele>
  <time>2026-08-28T17:55:52Z</time>
  <course>2.93</course>
  <speed>2.991070042643602</speed>
  <fix>3d</fix>
</trkpt>
<trkpt lat="40.0741593" lon="-105.2297882">
  <ele>1583.0</ele>
  <time>2026-08-28T17:55:52Z</time>
  <course>1.55</course>
  <speed>3.29</speed>
  <fix>3d</fix>
</trkpt>
<trkpt lat="40.0741684" lon="-105.2297879">
  <ele>1583.02</ele>
  <time>2026-08-28T17:55:52Z</time>
  <course>3.09</course>
  <speed>2.8611186623417075</speed>
  <fix>3d</fix>
</trkpt>
<trkpt lat="40.0741649" lon="-105.2297879">
  <ele>1583.0</ele>
  <time>2026-08-28T17:55:52Z</time>
  <course>1.82</course>
  <speed>3.04</speed>
  <fix>3d</fix>
</trkpt>
<trkpt lat="40.074171" lon="-105.2297878">
  <ele>1583.02</ele>
  <time>2026-08-28T17:55:52Z</time>
  <course>3.24</course>
  <speed>2.7414777037211153</speed>
  <fix>3d</fix>
</trkpt>
<trkpt lat="40.0741649" lon="-105.2297879">
  <ele>1583.0</ele>
  <time>2026-08-28T17:55:52Z</time>
  <course>1.82</course>
  <speed>3.04</speed>
  <fix>3d</fix>
</trkpt>
<trkpt lat="40.0741733" lon="-105.2297877">
  <ele>1583.02</ele>
  <time>2026-08-28T17:55:52Z</time>
  <course>3.4</course>
  <speed>2.6215453457836655</speed>
  <fix>3d</fix>
</trkpt>
<trkpt lat="40.0741702" lon="-105.2297878">
  <ele>1583.0</ele>
  <time>2026-08-28T17:55:52Z</time>
  <course>2.12</course>
  <speed>2.8</speed>
  <fix>3d</fix>
</trkpt>
<trkpt lat="40.0741756" lon="-105.2297875">
  <ele>1583.02</ele>
  <time>2026-08-28T17:55:52Z</time>
  <course>3.58</course>
  <speed>2.501619475459847</speed>
  <fix>3d</fix>
</trkpt>
<trkpt lat="40.0741702" lon="-105.2297878">
  <ele>1583.0</ele>
  <time>2026-08-28T17:55:52Z</time>
  <course>2.12</course>
  <speed>2.8</speed>
  <fix>3d</fix>
</trkpt>
<trkpt lat="40.0741778" lon="-105.2297874">
  <ele>1583.02</ele>
  <time>2026-08-28T17:55:52Z</time>
  <course>3.77</course>
  <speed>2.391693960355296</speed>
  <fix>3d</fix>
</trkpt>
<trkpt lat="40.0741751" lon="-105.2297875">
  <ele>1583.0</ele>
  <time>2026-08-28T17:55:52Z</time>
  <course>2.46</course>
  <speed>2.56</speed>
  <fix>3d</fix>
</trkpt>
<trkpt lat="40.07418" lon="-105.2297873">
  <ele>1583.01</ele>
  <time>2026-08-28T17:55:52Z</time>
  <course>3.98</course>
  <speed>2.272201575564985</speed>
  <fix>3d</fix>
</trkpt>
<trkpt lat="40.0741751" lon="-105.2297875">
  <ele>1583.0</ele>
  <time>2026-08-28T17:55:52Z</time>
  <course>2.46</course>
  <speed>2.56</speed>
  <fix>3d</fix>
</trkpt>
<trkpt lat="40.074182" lon="-105.2297872">
  <ele>1583.01</ele>
  <time>2026-08-28T17:55:52Z</time>
  <course>4.2</course>
  <speed>2.1623135757794243</speed>
  <fix>3d</fix>
</trkpt>
<trkpt lat="40.0741795" lon="-105.2297872">
  <ele>1583.0</ele>
  <time>2026-08-28T17:55:52Z</time>
  <course>2.86</course>
  <speed>2.34</speed>
  <fix>3d</fix>
</trkpt>
<trkpt lat="40.0741839" lon="-105.229787">
  <ele>1583.01</ele>
  <time>2026-08-28T17:55:52Z</time>
  <course>4.45</course>
  <speed>2.0524375751773793</speed>
  <fix>3d</fix>
</trkpt>
<trkpt lat="40.0741795" lon="-105.2297872">
  <ele>1583.0</ele>
  <time>2026-08-28T17:55:52Z</time>
  <course>2.86</course>
  <speed>2.34</speed>
  <fix>3d</fix>
</trkpt>
<trkpt lat="40.0741857" lon="-105.2297869">
  <ele>1583.01</ele>
  <time>2026-08-28T17:55:52Z</time>
  <course>4.71</course>
  <speed>1.9531000998412753</speed>
  <fix>3d</fix>
</trkpt>
<trkpt lat="40.0741834" lon="-105.2297869">
  <ele>1583.0</ele>
  <time>2026-08-28T17:55:52Z</time>
  <course>3.34</course>
  <speed>2.12</speed>
  <fix>3d</fix>
</trkpt>
<trkpt lat="40.0741875" lon="-105.2297867">
  <ele>1583.01</ele>
  <time>2026-08-28T17:55:52Z</time>
  <course>5.0</course>
  <speed>1.8432851108821986</speed>
  <fix>3d</fix>
</trkpt>
<trkpt lat="40.0741834" lon="-105.2297869">
  <ele>1583.0</ele>
  <time>2026-08-28T17:55:52Z</time>
  <course>3.34</course>
  <speed>2.12</speed>
  <fix>3d</fix>
</trkpt>
<trkpt lat="40.0741891" lon="-105.2297866">
  <ele>1583.0</ele>
  <time>2026-08-28T17:55:52Z</time>
  <course>5.33</course>
  <speed>1.744133022449836</speed>
  <fix>3d</fix>
</trkpt>
<trkpt lat="40.0741871" lon="-105.2297866">
  <ele>1583.0</ele>
  <time>2026-08-28T17:55:52Z</time>
  <course>3.9</course>
  <speed>1.91</speed>
  <fix>3d</fix>
</trkpt>
<trkpt lat="40.0741907" lon="-105.2297864">
  <ele>1583.0</ele>
  <time>2026-08-28T17:55:52Z</time>
  <course>5.68</course>
  <speed>1.6443843832875573</speed>
  <fix>3d</fix>
</trkpt>
<trkpt lat="40.0741871" lon="-105.2297866">
  <ele>1583.0</ele>
  <time>2026-08-28T17:55:52Z</time>
  <course>3.9</course>
  <speed>1.91</speed>
  <fix>3d</fix>
</trkpt>
<trkpt lat="40.0741921" lon="-105.2297863">
  <ele>1583.0</ele>
  <time>2026-08-28T17:55:52Z</time>
  <course>6.08</course>
  <speed>1.54466824917197</speed>
  <fix>3d</fix>
</trkpt>
<trkpt lat="40.0741871" lon="-105.2297866">
  <ele>1583.0</ele>
  <time>2026-08-28T17:55:52Z</time>
  <course>3.9</course>
  <speed>1.91</speed>
  <fix>3d</fix>
</trkpt>
<trkpt lat="40.0741935" lon="-105.2297861">
  <ele>1583.0</ele>
  <time>2026-08-28T17:55:52Z</time>
  <course>6.53</course>
  <speed>1.445856147754679</speed>
  <fix>3d</fix>
</trkpt>
<trkpt lat="40.0741903" lon="-105.2297863">
  <ele>1583.0</ele>
  <time>2026-08-28T17:55:52Z</time>
  <course>4.58</course>
  <speed>1.71</speed>
  <fix>3d</fix>
</trkpt>
<trkpt lat="40.0741947" lon="-105.2297859">
  <ele>1583.0</ele>
  <time>2026-08-28T17:55:52Z</time>
  <course>7.04</course>
  <speed>1.346291201783626</speed>
  <fix>3d</fix>
</trkpt>
<trkpt lat="40.0741903" lon="-105.2297863">
  <ele>1583.0</ele>
  <time>2026-08-28T17:55:52Z</time>
  <course>4.58</course>
  <speed>1.71</speed>
  <fix>3d</fix>
</trkpt>
<trkpt lat="40.0741959" lon="-105.2297857">
  <ele>1583.0</ele>
  <time>2026-08-28T17:55:52Z</time>
  <course>7.64</course>
  <speed>1.2578155667664477</speed>
  <fix>3d</fix>
</trkpt>
<trkpt lat="40.0741932" lon="-105.229786">
  <ele>1583.0</ele>
  <time>2026-08-28T17:55:52Z</time>
  <course>5.44</course>
  <speed>1.52</speed>
  <fix>3d</fix>
</trkpt>
<trkpt lat="40.074197" lon="-105.2297856">
  <ele>1583.0</ele>
  <time>2026-08-28T17:55:52Z</time>
  <course>8.33</course>
  <speed>1.1584903970253704</speed>
  <fix>3d</fix>
</trkpt>
<trkpt lat="40.0741932" lon="-105.229786">
  <ele>1583.0</ele>
  <time>2026-08-28T17:55:52Z</time>
  <course>5.44</course>
  <speed>1.52</speed>
  <fix>3d</fix>
</trkpt>
<trkpt lat="40.074198" lon="-105.2297854">
  <ele>1582.99</ele>
  <time>2026-08-28T17:55:52Z</time>
  <course>9.15</course>
  <speed>1.0606601717798214</speed>
  <fix>3d</fix>
</trkpt>
<trkpt lat="40.0741958" lon="-105.2297856">
  <ele>1583.0</ele>
  <time>2026-08-28T17:55:52Z</time>
  <course>6.55</course>
  <speed>1.32</speed>
  <fix>3d</fix>
</trkpt>
<trkpt lat="40.0741989" lon="-105.2297852">
  <ele>1582.99</ele>
  <time>2026-08-28T17:55:52Z</time>
  <course>10.14</course>
  <speed>0.9617692030835673</speed>
  <fix>3d</fix>
</trkpt>
<trkpt lat="40.0741958" lon="-105.2297856">
  <ele>1583.0</ele>
  <time>2026-08-28T17:55:52Z</time>
  <course>6.55</course>
  <speed>1.32</speed>
  <fix>3d</fix>
</trkpt>
<trkpt lat="40.0741998" lon="-105.229785">
  <ele>1582.99</ele>
  <time>2026-08-28T17:55:52Z</time>
  <course>11.28</course>
  <speed>0.8631338250816034</speed>
  <fix>3d</fix>
</trkpt>
<trkpt lat="40.0741979" lon="-105.2297853">
  <ele>1583.0</ele>
  <time>2026-08-28T17:55:52Z</time>
  <course>8.08</course>
  <speed>1.13</speed>
  <fix>3d</fix>
</trkpt>
<trkpt lat="40.0742005" lon="-105.2297848">
  <ele>1582.99</ele>
  <time>2026-08-28T17:55:52Z</time>
  <course>12.45</course>
  <speed>0.7746612162745725</speed>
  <fix>3d</fix>
</trkpt>
<trkpt lat="40.0741998" lon="-105.2297849">
  <ele>1583.0</ele>
  <time>2026-08-28T17:55:52Z</time>
  <course>10.1</course>
  <speed>0.94</speed>
  <fix>3d</fix>
</trkpt>
<trkpt lat="40.0742012" lon="-105.2297846">
  <ele>1582.99</ele>
  <time>2026-08-28T17:55:52Z</time>
  <course>13.61</course>
  <speed>0.6768308503607087</speed>
  <fix>3d</fix>
</trkpt>
<trkpt lat="40.0741998" lon="-105.2297849">
  <ele>1583.0</ele>
  <time>2026-08-28T17:55:52Z</time>
  <course>10.1</course>
  <speed>0.94</speed>
  <fix>3d</fix>
</trkpt>
<trkpt lat="40.0742018" lon="-105.2297844">
  <ele>1582.99</ele>
  <time>2026-08-28T17:55:52Z</time>
  <course>14.73</course>
  <speed>0.5772347875864725</speed>
  <fix>3d</fix>
</trkpt>
<trkpt lat="40.0742013" lon="-105.2297845">
  <ele>1583.0</ele>
  <time>2026-08-28T17:55:52Z</time>
  <course>12.37</course>
  <speed>0.75</speed>
  <fix>3d</fix>
</trkpt>
<trkpt lat="40.0742023" lon="-105.2297842">
  <ele>1582.99</ele>
  <time>2026-08-28T17:55:52Z</time>
  <course>15.8</course>
  <speed>0.4876474136094644</speed>
  <fix>3d</fix>
</trkpt>
<trkpt lat="40.0742013" lon="-105.2297845">
  <ele>1583.0</ele>
  <time>2026-08-28T17:55:52Z</time>
  <course>12.37</course>
  <speed>0.75</speed>
  <fix>3d</fix>
</trkpt>
<trkpt lat="40.0742027" lon="-105.2297841">
  <ele>1582.99</ele>
  <time>2026-08-28T17:55:52Z</time>
  <course>16.78</course>
  <speed>0.3889730067755345</speed>
  <fix>3d</fix>
</trkpt>
<trkpt lat="40.0742025" lon="-105.2297842">
  <ele>1583.0</ele>
  <time>2026-08-28T17:55:52Z</time>
  <course>14.51</course>
  <speed>0.56</speed>
  <fix>3d</fix>
</trkpt>
<trkpt lat="40.074203" lon="-105.2297839">
  <ele>1582.99</ele>
  <time>2026-08-28T17:55:52Z</time>
  <course>17.66</course>
  <speed>0.31622776601683794</speed>
  <fix>3d</fix>
</trkpt>
<trkpt lat="40.0742025" lon="-105.2297842">
  <ele>1583.0</ele>
  <time>2026-08-28T17:55:52Z</time>
  <course>14.51</course>
  <speed>0.56</speed>
  <fix>3d</fix>
</trkpt>
<trkpt lat="40.0742033" lon="-105.2297838">
  <ele>1582.99</ele>
  <time>2026-08-28T17:55:52Z</time>
  <course>18.45</course>
  <speed>0.24698178070456936</speed>
  <fix>3d</fix>
</trkpt>
<trkpt lat="40.0742033" lon="-105.2297839">
  <ele>1583.0</ele>
  <time>2026-08-28T17:55:52Z</time>
  <course>16.39</course>
  <speed>0.39</speed>
  <fix>3d</fix>
</trkpt>
<trkpt lat="40.0742035" lon="-105.2297837">
  <ele>1582.99</ele>
  <time>2026-08-28T17:55:52Z</time>
  <course>19.15</course>
  <speed>0.20615528128088303</speed>
  <fix>3d</fix>
</trkpt>
<trkpt lat="40.0742033" lon="-105.2297839">
  <ele>1583.0</ele>
  <time>2026-08-28T17:55:52Z</time>
  <course>16.39</course>
  <speed>0.39</speed>
  <fix>3d</fix>
</trkpt>
<trkpt lat="40.0742037" lon="-105.2297836">
  <ele>1582.99</ele>
  <time>2026-08-28T17:55:52Z</time>
  <course>19.78</course>
  <speed>0.16552945357246848</speed>
  <fix>3d</fix>
</trkpt>
<trkpt lat="40.0742039" lon="-105.2297836">
  <ele>1583.0</ele>
  <time>2026-08-28T17:55:52Z</time>
  <course>17.94</course>
  <speed>0.28</speed>
  <fix>3d</fix>
</trkpt>
<trkpt lat="40.0742039" lon="-105.2297835">
  <ele>1582.99</ele>
  <time>2026-08-28T17:55:52Z</time>
  <course>20.37</course>
  <speed>0.147648230602334</speed>
  <fix>3d</fix>
</trkpt>
<trkpt lat="40.0742039" lon="-105.2297836">
  <ele>1583.0</ele>
  <time>2026-08-28T17:55:52Z</time>
  <course>17.94</course>
  <speed>0.28</speed>
  <fix>3d</fix>
</trkpt>
<trkpt lat="40.0742041" lon="-105.2297834">
  <ele>1582.99</ele>
  <time>2026-08-28T17:55:52Z</time>
  <course>20.93</course>
  <speed>0.13892443989449804</speed>
  <fix>3d</fix>
</trkpt>
<trkpt lat="40.0742043" lon="-105.2297835">
  <ele>1583.0</ele>
  <time>2026-08-28T17:55:52Z</time>
  <course>19.23</course>
  <speed>0.22</speed>
  <fix>3d</fix>
</trkpt>
<trkpt lat="40.0742042" lon="-105.2297833">
  <ele>1582.99</ele>
  <time>2026-08-28T17:55:52Z</time>
  <course>21.49</course>
  <speed>0.13892443989449804</speed>
  <fix>3d</fix>
</trkpt>
<trkpt lat="40.0742043" lon="-105.2297835">
  <ele>1583.0</ele>
  <time>2026-08-28T17:55:52Z</time>
  <course>19.23</course>
  <speed>0.22</speed>
  <fix>3d</fix>
</trkpt>
<trkpt lat="40.0742044" lon="-105.2297832">
  <ele>1582.99</ele>
  <time>2026-08-28T17:55:52Z</time>
  <course>22.07</course>
  <speed>0.15264337522473748</speed>
  <fix>3d</fix>
</trkpt>
<trkpt lat="40.0742046" lon="-105.2297833">
  <ele>1583.0</ele>
  <time>2026-08-28T17:55:52Z</time>
  <course>20.42</course>
  <speed>0.21</speed>
  <fix>3d</fix>
</trkpt>
<trkpt lat="40.0742046" lon="-105.2297831">
  <ele>1582.99</ele>
  <time>2026-08-28T17:55:52Z</time>
  <course>22.7</course>
  <speed>0.1664331697709324</speed>
  <fix>3d</fix>
</trkpt>
<trkpt lat="40.0742046" lon="-105.2297833">
  <ele>1583.0</ele>
  <time>2026-08-28T17:55:52Z</time>
  <course>20.42</course>
  <speed>0.21</speed>
  <fix>3d</fix>
</trkpt>
<trkpt lat="40.0742048" lon="-105.229783">
  <ele>1582.99</ele>
  <time>2026-08-28T17:55:52Z</time>
  <course>23.4</course>
  <speed>0.18867962264113206</speed>
  <fix>3d</fix>
</trkpt>
<trkpt lat="40.0742046" lon="-105.2297833">
  <ele>1583.0</ele>
  <time>2026-08-28T17:55:52Z</time>
  <course>20.42</course>
  <speed>0.21</speed>
  <fix>3d</fix>
</trkpt>
<trkpt lat="40.074205" lon="-105.2297829">
  <ele>1582.99</ele>
  <time>2026-08-28T17:55:52Z</time>
  <course>24.18</course>
  <speed>0.21633307652783937</speed>
  <fix>3d</fix>
</trkpt>
<trkpt lat="40.0742051" lon="-105.229783">
  <ele>1583.0</ele>
  <time>2026-08-28T17:55:52Z</time>
  <course>21.7</course>
  <speed>0.23</speed>
  <fix>3d</fix>
</trkpt>
<trkpt lat="40.0742052" lon="-105.2297827">
  <ele>1582.98</ele>
  <time>2026-08-28T17:55:52Z</time>
  <course>25.08</course>
  <speed>0.25238858928247926</speed>
  <fix>3d</fix>
</trkpt>
<trkpt lat="40.0742051" lon="-105.229783">
  <ele>1583.0</ele>
  <time>2026-08-28T17:55:52Z</time>
  <course>21.7</course>
  <speed>0.23</speed>
  <fix>3d</fix>
</trkpt>
<trkpt lat="40.0742055" lon="-105.2297825">
  <ele>1582.98</ele>
  <time>2026-08-28T17:55:52Z</time>
  <course>26.1</course>
  <speed>0.2884441020371191</speed>
  <fix>3d</fix>
</trkpt>
<trkpt lat="40.0742055" lon="-105.2297829">
  <ele>1583.0</ele>
  <time>2026-08-28T17:55:52Z</time>
  <course>23.24</course>
  <speed>0.27</speed>
  <fix>3d</fix>
</trkpt>
<trkpt lat="40.0742058" lon="-105.2297823">
  <ele>1582.99</ele>
  <time>2026-08-28T17:55:52Z</time>
  <course>27.27</course>
  <speed>0.32449961479175904</speed>
  <fix>3d</fix>
</trkpt>
<trkpt lat="40.0742055" lon="-105.2297829">
  <ele>1583.0</ele>
  <time>2026-08-28T17:55:52Z</time>
  <course>23.24</course>
  <speed>0.27</speed>
  <fix>3d</fix>
</trkpt>
<trkpt lat="40.0742061" lon="-105.2297821">
  <ele>1582.99</ele>
  <time>2026-08-28T17:55:52Z</time>
  <course>28.62</course>
  <speed>0.3661966684720111</speed>
  <fix>3d</fix>
</trkpt>
<trkpt lat="40.074206" lon="-105.2297825">
  <ele>1583.0</ele>
  <time>2026-08-28T17:55:52Z</time>
  <course>25.2</course>
  <speed>0.33</speed>
  <fix>3d</fix>
</trkpt>
<trkpt lat="40.0742064" lon="-105.2297818">
  <ele>1582.99</ele>
  <time>2026-08-28T17:55:52Z</time>
  <course>30.17</course>
  <speed>0.4080441152620633</speed>
  <fix>3d</fix>
</trkpt>
<trkpt lat="40.0742065" lon="-105.2297821">
  <ele>1583.0</ele>
  <time>2026-08-28T17:55:52Z</time>
  <course>27.76</course>
  <speed>0.4</speed>
  <fix>3d</fix>
</trkpt>
<trkpt lat="40.0742068" lon="-105.2297815">
  <ele>1583.0</ele>
  <time>2026-08-28T17:55:52Z</time>
  <course>31.93</course>
  <speed>0.44204072210600687</speed>
  <fix>3d</fix>
</trkpt>
<trkpt lat="40.0742065" lon="-105.2297821">
  <ele>1583.0</ele>
  <time>2026-08-28T17:55:52Z</time>
  <course>27.76</course>
  <speed>0.4</speed>
  <fix>3d</fix>
</trkpt>
<trkpt lat="40.0742072" lon="-105.2297812">
  <ele>1583.0</ele>
  <time>2026-08-28T17:55:52Z</time>
  <course>33.94</course>
  <speed>0.47634021455258213</speed>
  <fix>3d</fix>
</trkpt>
<trkpt lat="40.0742073" lon="-105.2297816">
  <ele>1583.0</ele>
  <time>2026-08-28T17:55:52Z</time>
  <course>31.1</course>
  <speed>0.47</speed>
  <fix>3d</fix>
</trkpt>
<trkpt lat="40.0742076" lon="-105.2297808">
  <ele>1583.0</ele>
  <time>2026-08-28T17:55:52Z</time>
  <course>36.2</course>
  <speed>0.5173973328110612</speed>
  <fix>3d</fix>
</trkpt>
<trkpt lat="40.0742073" lon="-105.2297816">
  <ele>1583.0</ele>
  <time>2026-08-28T17:55:52Z</time>
  <course>31.1</course>
  <speed>0.47</speed>
  <fix>3d</fix>
</trkpt>
<trkpt lat="40.074208" lon="-105.2297804">
  <ele>1583.0</ele>
  <time>2026-08-28T17:55:52Z</time>
  <course>38.77</course>
  <speed>0.5658621740318044</speed>
  <fix>3d</fix>
</trkpt>
<trkpt lat="40.074208" lon="-105.229781">
  <ele>1583.0</ele>
  <time>2026-08-28T17:55:52Z</time>
  <course>35.43</course>
  <speed>0.54</speed>
  <fix>3d</fix>
</trkpt>
<trkpt lat="40.0742085" lon="-105.2297799">
  <ele>1583.0</ele>
  <time>2026-08-28T17:55:52Z</time>
  <course>41.68</course>
  <speed>0.594138031100518</speed>
  <fix>3d</fix>
</trkpt>
<trkpt lat="40.074208" lon="-105.229781">
  <ele>1583.0</ele>
  <time>2026-08-28T17:55:52Z</time>
  <course>35.43</course>
  <speed>0.54</speed>
  <fix>3d</fix>
</trkpt>
<trkpt lat="40.0742089" lon="-105.2297794">
  <ele>1583.0</ele>
  <time>2026-08-28T17:55:52Z</time>
  <course>44.94</course>
  <speed>0.6312685640834652</speed>
  <fix>3d</fix>
</trkpt>
<trkpt lat="40.0742089" lon="-105.2297801">
  <ele>1583.0</ele>
  <time>2026-08-28T17:55:52Z</time>
  <course>40.96</course>
  <speed>0.61</speed>
  <fix>3d</fix>
</trkpt>
<trkpt lat="40.0742093" lon="-105.2297788">
  <ele>1583.0</ele>
  <time>2026-08-28T17:55:52Z</time>
  <course>48.62</course>
  <speed>0.6640030120413611</speed>
  <fix>3d</fix>
</trkpt>
<trkpt lat="40.0742089" lon="-105.2297801">
  <ele>1583.0</ele>
  <time>2026-08-28T17:55:52Z</time>
  <course>40.96</course>
  <speed>0.61</speed>
  <fix>3d</fix>
</trkpt>
<trkpt lat="40.0742097" lon="-105.2297781">
  <ele>1583.0</ele>
  <time>2026-08-28T17:55:52Z</time>
  <course>52.68</course>
  <speed>0.6933974329343886</speed>
  <fix>3d</fix>
</trkpt>
<trkpt lat="40.0742097" lon="-105.2297791">
  <ele>1583.0</ele>
  <time>2026-08-28T17:55:52Z</time>
  <course>47.9</course>
  <speed>0.67</speed>
  <fix>3d</fix>
</trkpt>
<trkpt lat="40.0742101" lon="-105.2297774">
  <ele>1583.0</ele>
  <time>2026-08-28T17:55:52Z</time>
  <course>57.14</course>
  <speed>0.7206941098690901</speed>
  <fix>3d</fix>
</trkpt>
<trkpt lat="40.0742097" lon="-105.2297791">
  <ele>1583.0</ele>
  <time>2026-08-28T17:55:52Z</time>
  <course>47.9</course>
  <speed>0.67</speed>
  <fix>3d</fix>
</trkpt>
<trkpt lat="40.0742105" lon="-105.2297767">
  <ele>1583.0</ele>
  <time>2026-08-28T17:55:52Z</time>
  <course>61.81</course>
  <speed>0.7473285756613351</speed>
  <fix>3d</fix>
</trkpt>
<trkpt lat="40.0742104" lon="-105.2297777">
  <ele>1583.0</ele>
  <time>2026-08-28T17:55:52Z</time>
  <course>56.31</course>
  <speed>0.71</speed>
  <fix>3d</fix>
</trkpt>
<trkpt lat="40.0742108" lon="-105.2297758">
  <ele>1583.01</ele>
  <time>2026-08-28T17:55:52Z</time>
  <course>66.6</course>
  <speed>0.7783315488916018</speed>
  <fix>3d</fix>
</trkpt>
<trkpt lat="40.0742104" lon="-105.2297777">
  <ele>1583.0</ele>
  <time>2026-08-28T17:55:52Z</time>
  <course>56.31</course>
  <speed>0.71</speed>
  <fix>3d</fix>
</trkpt>
<trkpt lat="40.074211" lon="-105.229775">
  <ele>1583.01</ele>
  <time>2026-08-28T17:55:52Z</time>
  <course>71.51</course>
  <speed>0.7981227975693966</speed>
  <fix>3d</fix>
</trkpt>
<trkpt lat="40.0742111" lon="-105.2297763">
  <ele>1583.0</ele>
  <time>2026-08-28T17:55:52Z</time>
  <course>65.71</course>
  <speed>0.75</speed>
  <fix>3d</fix>
</trkpt>
<trkpt lat="40.0742113" lon="-105.2297741">
  <ele>1583.01</ele>
  <time>2026-08-28T17:55:52Z</time>
  <course>76.52</course>
  <speed>0.8139410298049853</speed>
  <fix>3d</fix>
</trkpt>
<trkpt lat="40.0742111" lon="-105.2297763">
  <ele>1583.0</ele>
  <time>2026-08-28T17:55:52Z</time>
  <course>65.71</course>
  <speed>0.75</speed>
  <fix>3d</fix>
</trkpt>
<trkpt lat="40.0742114" lon="-105.2297731">
  <ele>1583.01</ele>
  <time>2026-08-28T17:55:52Z</time>
  <course>81.62</course>
  <speed>0.8238931969618392</speed>
  <fix>3d</fix>
</trkpt>
<trkpt lat="40.0742111" lon="-105.2297763">
  <ele>1583.0</ele>
  <time>2026-08-28T17:55:52Z</time>
  <course>65.71</course>
  <speed>0.75</speed>
  <fix>3d</fix>
</trkpt>
<trkpt lat="40.0742115" lon="-105.2297722">
  <ele>1583.01</ele>
  <time>2026-08-28T17:55:52Z</time>
  <course>86.79</course>
  <speed>0.8400595217006948</speed>
  <fix>3d</fix>
</trkpt>
<trkpt lat="40.0742116" lon="-105.2297745">
  <ele>1583.0</ele>
  <time>2026-08-28T17:55:52Z</time>
  <course>75.62</course>
  <speed>0.79</speed>
  <fix>3d</fix>
</trkpt>
<trkpt lat="40.0742115" lon="-105.2297712">
  <ele>1583.01</ele>
  <time>2026-08-28T17:55:52Z</time>
  <course>92.02</course>
  <speed>0.8514693182963201</speed>
  <fix>3d</fix>
</trkpt>
<trkpt lat="40.0742116" lon="-105.2297745">
  <ele>1583.0</ele>
  <time>2026-08-28T17:55:52Z</time>
  <course>75.62</course>
  <speed>0.79</speed>
  <fix>3d</fix>
</trkpt>
<trkpt lat="40.0742115" lon="-105.2297702">
  <ele>1583.02</ele>
  <time>2026-08-28T17:55:52Z</time>
  <course>97.3</course>
  <speed>0.8598837130682264</speed>
  <fix>3d</fix>
</trkpt>
<trkpt lat="40.0742118" lon="-105.2297727">
  <ele>1583.0</ele>
  <time>2026-08-28T17:55:52Z</time>
  <course>85.89</course>
  <speed>0.81</speed>
  <fix>3d</fix>
</trkpt>
<trkpt lat="40.0742114" lon="-105.2297693">
  <ele>1583.02</ele>
  <time>2026-08-28T17:55:52Z</time>
  <course>102.63</course>
  <speed>0.863481325796916</speed>
  <fix>3d</fix>
</trkpt>
<trkpt lat="40.0742118" lon="-105.2297727">
  <ele>1583.0</ele>
  <time>2026-08-28T17:55:52Z</time>
  <course>85.89</course>
  <speed>0.81</speed>
  <fix>3d</fix>
</trkpt>
<trkpt lat="40.0742112" lon="-105.2297683">
  <ele>1583.02</ele>
  <time>2026-08-28T17:55:52Z</time>
  <course>107.97</course>
  <speed>0.8664871608973788</speed>
  <fix>3d</fix>
</trkpt>
<trkpt lat="40.0742118" lon="-105.2297708">
  <ele>1583.0</ele>
  <time>2026-08-28T17:55:52Z</time>
  <course>96.38</course>
  <speed>0.83</speed>
  <fix>3d</fix>
</trkpt>
<trkpt lat="40.074211" lon="-105.2297674">
  <ele>1583.02</ele>
  <time>2026-08-28T17:55:52Z</time>
  <course>113.34</course>
  <speed>0.8640601830891179</speed>
  <fix>3d</fix>
</trkpt>
<trkpt lat="40.0742118" lon="-105.2297708">
  <ele>1583.0</ele>
  <time>2026-08-28T17:55:52Z</time>
  <course>96.38</course>
  <speed>0.83</speed>
  <fix>3d</fix>
</trkpt>
<trkpt lat="40.0742107" lon="-105.2297666">
  <ele>1583.02</ele>
  <time>2026-08-28T17:55:52Z</time>
  <course>118.77</course>
  <speed>0.8595929269136642</speed>
  <fix>3d</fix>
</trkpt>
<trkpt lat="40.0742114" lon="-105.2297688">
  <ele>1583.0</ele>
  <time>2026-08-28T17:55:52Z</time>
  <course>107.03</course>
  <speed>0.83</speed>
  <fix>3d</fix>
</trkpt>
<trkpt lat="40.0742103" lon="-105.2297657">
  <ele>1583.03</ele>
  <time>2026-08-28T17:55:52Z</time>
  <course>124.16</course>
  <speed>0.862670273047588</speed>
  <fix>3d</fix>
</trkpt>
<trkpt lat="40.0742109" lon="-105.229767">
  <ele>1583.0</ele>
  <time>2026-08-28T17:55:52Z</time>
  <course>117.78</course>
  <speed>0.84</speed>
  <fix>3d</fix>
</trkpt>
<trkpt lat="40.0742098" lon="-105.2297649">
  <ele>1583.03</ele>
  <time>2026-08-28T17:55:52Z</time>
  <course>129.56</course>
  <speed>0.859127464349732</speed>
  <fix>3d</fix>
</trkpt>
<trkpt lat="40.0742109" lon="-105.229767">
  <ele>1583.0</ele>
  <time>2026-08-28T17:55:52Z</time>
  <course>117.78</course>
  <speed>0.84</speed>
  <fix>3d</fix>
</trkpt>
<trkpt lat="40.0742093" lon="-105.2297642">
  <ele>1583.03</ele>
  <time>2026-08-28T17:55:52Z</time>
  <course>134.93</course>
  <speed>0.862670273047588</speed>
  <fix>3d</fix>
</trkpt>
<trkpt lat="40.0742101" lon="-105.2297653">
  <ele>1583.0</ele>
  <time>2026-08-28T17:55:52Z</time>
  <course>128.58</course>
  <speed>0.84</speed>
  <fix>3d</fix>
</trkpt>
<trkpt lat="40.0742088" lon="-105.2297636">
  <ele>1583.03</ele>
  <time>2026-08-28T17:55:52Z</time>
  <course>140.35</course>
  <speed>0.859127464349732</speed>
  <fix>3d</fix>
</trkpt>
<trkpt lat="40.0742101" lon="-105.2297653">
  <ele>1583.0</ele>
  <time>2026-08-28T17:55:52Z</time>
  <course>128.58</course>
  <speed>0.84</speed>
  <fix>3d</fix>
</trkpt>
<trkpt lat="40.0742081" lon="-105.229763">
  <ele>1583.04</ele>
  <time>2026-08-28T17:55:52Z</time>
  <course>145.8</course>
  <speed>0.8653323061113575</speed>
  <fix>3d</fix>
</trkpt>
<trkpt lat="40.0742091" lon="-105.2297639">
  <ele>1583.0</ele>
  <time>2026-08-28T17:55:52Z</time>
  <course>139.45</course>
  <speed>0.85</speed>
  <fix>3d</fix>
</trkpt>
<trkpt lat="40.0742075" lon="-105.2297625">
  <ele>1583.04</ele>
  <time>2026-08-28T17:55:52Z</time>
  <course>151.29</course>
  <speed>0.8635392289873113</speed>
  <fix>3d</fix>
</trkpt>
<trkpt lat="40.0742091" lon="-105.2297639">
  <ele>1583.0</ele>
  <time>2026-08-28T17:55:52Z</time>
  <course>139.45</course>
  <speed>0.85</speed>
  <fix>3d</fix>
</trkpt>
<trkpt lat="40.0742068" lon="-105.229762">
  <ele>1583.03</ele>
  <time>2026-08-28T17:55:52Z</time>
  <course>156.54</course>
  <speed>0.8823831367382311</speed>
  <fix>3d</fix>
</trkpt>
<trkpt lat="40.0742079" lon="-105.2297628">
  <ele>1583.0</ele>
  <time>2026-08-28T17:55:52Z</time>
  <course>150.28</course>
  <speed>0.86</speed>
  <fix>3d</fix>
</trkpt>
<trkpt lat="40.0742061" lon="-105.2297617">
  <ele>1583.03</ele>
  <time>2026-08-28T17:55:52Z</time>
  <course>161.3</course>
  <speed>0.8949301648732151</speed>
  <fix>3d</fix>
</trkpt>
<trkpt lat="40.0742079" lon="-105.2297628">
  <ele>1583.0</ele>
  <time>2026-08-28T17:55:52Z</time>
  <course>150.28</course>
  <speed>0.86</speed>
  <fix>3d</fix>
</trkpt>
<trkpt lat="40.0742053" lon="-105.2297614">
  <ele>1583.03</ele>
  <time>2026-08-28T17:55:52Z</time>
  <course>165.63</course>
  <speed>0.9070832376358854</speed>
  <fix>3d</fix>
</trkpt>
<trkpt lat="40.0742064" lon="-105.2297619">
  <ele>1583.0</ele>
  <time>2026-08-28T17:55:52Z</time>
  <course>160.2</course>
  <speed>0.89</speed>
  <fix>3d</fix>
</trkpt>
<trkpt lat="40.0742045" lon="-105.2297612">
  <ele>1583.03</ele>
  <time>2026-08-28T17:55:52Z</time>
  <course>169.53</course>
  <speed>0.9338094023943002</speed>
  <fix>3d</fix>
</trkpt>
<trkpt lat="40.0742064" lon="-105.2297619">
  <ele>1583.0</ele>
  <time>2026-08-28T17:55:52Z</time>
  <course>160.2</course>
  <speed>0.89</speed>
  <fix>3d</fix>
</trkpt>
<trkpt lat="40.0742036" lon="-105.2297611">
  <ele>1583.03</ele>
  <time>2026-08-28T17:55:52Z</time>
  <course>172.97</course>
  <speed>0.9464142856064675</speed>
  <fix>3d</fix>
</trkpt>
<trkpt lat="40.0742048" lon="-105.2297614">
  <ele>1583.0</ele>
  <time>2026-08-28T17:55:52Z</time>
  <course>168.41</course>
  <speed>0.93</speed>
  <fix>3d</fix>
</trkpt>
<trkpt lat="40.0742028" lon="-105.229761">
  <ele>1583.03</ele>
  <time>2026-08-28T17:55:52Z</time>
  <course>175.95</course>
  <speed>0.9718538984847466</speed>
  <fix>3d</fix>
</trkpt>
<trkpt lat="40.0742048" lon="-105.2297614">
  <ele>1583.0</ele>
  <time>2026-08-28T17:55:52Z</time>
  <course>168.41</course>
  <speed>0.93</speed>
  <fix>3d</fix>
</trkpt>
<trkpt lat="40.0742019" lon="-105.229761">
  <ele>1583.03</ele>
  <time>2026-08-28T17:55:53Z</time>
  <course>178.53</course>
  <speed>0.9800510190801294</speed>
  <fix>3d</fix>
</trkpt>
<trkpt lat="40.0742031" lon="-105.229761">
  <ele>1583.0</ele>
  <time>2026-08-28T17:55:53Z</time>
  <course>174.83</course>
  <speed>0.97</speed>
  <fix>3d</fix>
</trkpt>
<trkpt lat="40.074201" lon="-105.229761">
  <ele>1583.03</ele>
  <time>2026-08-28T17:55:53Z</time>
  <course>180.78</course>
  <speed>1.000199980003999</speed>
  <fix>3d</fix>
</trkpt>
<trkpt lat="40.0742031" lon="-105.229761">
  <ele>1583.0</ele>
  <time>2026-08-28T17:55:53Z</time>
  <course>174.83</course>
  <speed>0.97</speed>
  <fix>3d</fix>
</trkpt>
<trkpt lat="40.0742001" lon="-105.229761">
  <ele>1583.03</ele>
  <time>2026-08-28T17:55:53Z</time>
  <course>182.72</course>
  <speed>1.011236866416568</speed>
  <fix>3d</fix>
</trkpt>
<trkpt lat="40.0742031" lon="-105.229761">
  <ele>1583.0</ele>
  <time>2026-08-28T17:55:53Z</time>
  <course>174.83</course>
  <speed>0.97</speed>
  <fix>3d</fix>
</trkpt>
<trkpt lat="40.0741992" lon="-105.229761">
  <ele>1583.04</ele>
  <time>2026-08-28T17:55:53Z</time>
  <course>184.41</course>
  <speed>1.0239628899525608</speed>
  <fix>3d</fix>
</trkpt>
<trkpt lat="40.0742013" lon="-105.229761">
  <ele>1583.0</ele>
  <time>2026-08-28T17:55:53Z</time>
  <course>179.68</course>
  <speed>1.01</speed>
  <fix>3d</fix>
</trkpt>
<trkpt lat="40.0741983" lon="-105.2297611">
  <ele>1583.04</ele>
  <time>2026-08-28T17:55:53Z</time>
  <course>185.91</course>
  <speed>1.0259142264341596</speed>
  <fix>3d</fix>
</trkpt>
<trkpt lat="40.0742013" lon="-105.229761">
  <ele>1583.0</ele>
  <time>2026-08-28T17:55:53Z</time>
  <course>179.68</course>
  <speed>1.01</speed>
  <fix>3d</fix>
</trkpt>
<trkpt lat="40.0741974" lon="-105.2297613">
  <ele>1583.04</ele>
  <time>2026-08-28T17:55:53Z</time>
  <course>187.27</course>
  <speed>1.0295630140987</speed>
  <fix>3d</fix>
</trkpt>
<trkpt lat="40.0741995" lon="-105.229761">
  <ele>1583.0</ele>
  <time>2026-08-28T17:55:53Z</time>
  <course>183.36</course>
  <speed>1.03</speed>
  <fix>3d</fix>
</trkpt>
<trkpt lat="40.0741965" lon="-105.2297615">
  <ele>1583.03</ele>
  <time>2026-08-28T17:55:53Z</time>
  <course>188.53</course>
  <speed>1.0423531071570709</speed>
  <fix>3d</fix>
</trkpt>
<trkpt lat="40.0741995" lon="-105.229761">
  <ele>1583.0</ele>
  <time>2026-08-28T17:55:53Z</time>
  <course>183.36</course>
  <speed>1.03</speed>
  <fix>3d</fix>
</trkpt>
<trkpt lat="40.0741955" lon="-105.2297616">
  <ele>1583.03</ele>
  <time>2026-08-28T17:55:53Z</time>
  <course>189.72</course>
  <speed>1.035760590097924</speed>
  <fix>3d</fix>
</trkpt>
<trkpt lat="40.0741976" lon="-105.2297611">
  <ele>1583.0</ele>
  <time>2026-08-28T17:55:53Z</time>
  <course>186.25</course>
  <speed>1.05</speed>
  <fix>3d</fix>
</trkpt>
<trkpt lat="40.0741946" lon="-105.2297619">
  <ele>1583.03</ele>
  <time>2026-08-28T17:55:53Z</time>
  <course>190.81</course>
  <speed>1.0394229168149025</speed>
  <fix>3d</fix>
</trkpt>
<trkpt lat="40.0741957" lon="-105.2297615">
  <ele>1583.0</ele>
  <time>2026-08-28T17:55:53Z</time>
  <course>188.69</course>
  <speed>1.06</speed>
  <fix>3d</fix>
</trkpt>
<trkpt lat="40.0741937" lon="-105.2297621">
  <ele>1583.03</ele>
  <time>2026-08-28T17:55:53Z</time>
  <course>191.79</course>
  <speed>1.0434557968596465</speed>
  <fix>3d</fix>
</trkpt>
<trkpt lat="40.0741957" lon="-105.2297615">
  <ele>1583.0</ele>
  <time>2026-08-28T17:55:53Z</time>
  <course>188.69</course>
  <speed>1.06</speed>
  <fix>3d</fix>
</trkpt>
<trkpt lat="40.0741927" lon="-105.2297623">
  <ele>1583.03</ele>
  <time>2026-08-28T17:55:53Z</time>
  <course>192.68</course>
  <speed>1.047854951794379</speed>
  <fix>3d</fix>
</trkpt>
<trkpt lat="40.0741939" lon="-105.2297619">
  <ele>1583.0</ele>
  <time>2026-08-28T17:55:53Z</time>
  <course>190.76</course>
  <speed>1.06</speed>
  <fix>3d</fix>
</trkpt>
<trkpt lat="40.0741918" lon="-105.2297626">
  <ele>1583.03</ele>
  <time>2026-08-28T17:55:53Z</time>
  <course>193.47</course>
  <speed>1.0404806581575652</speed>
  <fix>3d</fix>
</trkpt>
<trkpt lat="40.0741939" lon="-105.2297619">
  <ele>1583.0</ele>
  <time>2026-08-28T17:55:53Z</time>
  <course>190.76</course>
  <speed>1.06</speed>
  <fix>3d</fix>
</trkpt>
<trkpt lat="40.0741909" lon="-105.2297629">
  <ele>1583.03</ele>
  <time>2026-08-28T17:55:53Z</time>
  <course>194.18</course>
  <speed>1.0429285689825551</speed>
  <fix>3d</fix>
</trkpt>
<trkpt lat="40.074192" lon="-105.2297624">
  <ele>1583.0</ele>
  <time>2026-08-28T17:55:53Z</time>
  <course>192.45</course>
  <speed>1.06</speed>
  <fix>3d</fix>
</trkpt>
<trkpt lat="40.07419" lon="-105.2297632">
  <ele>1583.02</ele>
  <time>2026-08-28T17:55:53Z</time>
  <course>194.82</course>
  <speed>1.0358088626768938</speed>
  <fix>3d</fix>
</trkpt>
<trkpt lat="40.074192" lon="-105.2297624">
  <ele>1583.0</ele>
  <time>2026-08-28T17:55:53Z</time>
  <course>192.45</course>
  <speed>1.06</speed>
  <fix>3d</fix>
</trkpt>
<trkpt lat="40.0741891" lon="-105.2297635">
  <ele>1583.02</ele>
  <time>2026-08-28T17:55:53Z</time>
  <course>195.38</course>
  <speed>1.0384603988597736</speed>
  <fix>3d</fix>
</trkpt>
<trkpt lat="40.0741901" lon="-105.2297629">
  <ele>1583.0</ele>
  <time>2026-08-28T17:55:53Z</time>
  <course>193.8</course>
  <speed>1.06</speed>
  <fix>3d</fix>
</trkpt>
<trkpt lat="40.0741881" lon="-105.2297638">
  <ele>1583.01</ele>
  <time>2026-08-28T17:55:53Z</time>
  <course>195.88</course>
  <speed>1.0316006979447037</speed>
  <fix>3d</fix>
</trkpt>
<trkpt lat="40.0741901" lon="-105.2297629">
  <ele>1583.0</ele>
  <time>2026-08-28T17:55:53Z</time>
  <course>193.8</course>
  <speed>1.06</speed>
  <fix>3d</fix>
</trkpt>
<trkpt lat="40.0741872" lon="-105.2297641">
  <ele>1583.01</ele>
  <time>2026-08-28T17:55:53Z</time>
  <course>196.31</course>
  <speed>1.0316006979447037</speed>
  <fix>3d</fix>
</trkpt>
<trkpt lat="40.0741883" lon="-105.2297636">
  <ele>1583.0</ele>
  <time>2026-08-28T17:55:53Z</time>
  <course>194.86</course>
  <speed>1.05</speed>
  <fix>3d</fix>
</trkpt>
<trkpt lat="40.0741863" lon="-105.2297645">
  <ele>1583.01</ele>
  <time>2026-08-28T17:55:53Z</time>
  <course>196.69</course>
  <speed>1.0248902380255165</speed>
  <fix>3d</fix>
</trkpt>
<trkpt lat="40.0741883" lon="-105.2297636">
  <ele>1583.0</ele>
  <time>2026-08-28T17:55:53Z</time>
  <course>194.86</course>
  <speed>1.05</speed>
  <fix>3d</fix>
</trkpt>
<trkpt lat="40.0741854" lon="-105.2297648">
  <ele>1583.01</ele>
  <time>2026-08-28T17:55:53Z</time>
  <course>197.02</course>
  <speed>1.0248902380255165</speed>
  <fix>3d</fix>
</trkpt>
<trkpt lat="40.0741864" lon="-105.2297642">
  <ele>1583.0</ele>
  <time>2026-08-28T17:55:53Z</time>
  <course>195.68</course>
  <speed>1.05</speed>
  <fix>3d</fix>
</trkpt>
<trkpt lat="40.0741845" lon="-105.2297652">
  <ele>1583.01</ele>
  <time>2026-08-28T17:55:53Z</time>
  <course>197.3</course>
  <speed>1.0183319694480775</speed>
  <fix>3d</fix>
</trkpt>
<trkpt lat="40.0741864" lon="-105.2297642">
  <ele>1583.0</ele>
  <time>2026-08-28T17:55:53Z</time>
  <course>195.68</course>
  <speed>1.05</speed>
  <fix>3d</fix>
</trkpt>
<trkpt lat="40.0741836" lon="-105.2297655">
  <ele>1583.01</ele>
  <time>2026-08-28T17:55:53Z</time>
  <course>197.53</course>
  <speed>1.0183319694480775</speed>
  <fix>3d</fix>
</trkpt>
<trkpt lat="40.0741847" lon="-105.2297649">
  <ele>1583.0</ele>
  <time>2026-08-28T17:55:53Z</time>
  <course>196.29</course>
  <speed>1.04</speed>
  <fix>3d</fix>
</trkpt>
<trkpt lat="40.0741827" lon="-105.2297658">
  <ele>1583.01</ele>
  <time>2026-08-28T17:55:53Z</time>
  <course>197.72</course>
  <speed>1.0088111815399352</speed>
  <fix>3d</fix>
</trkpt>
<trkpt lat="40.0741847" lon="-105.2297649">
  <ele>1583.0</ele>
  <time>2026-08-28T17:55:53Z</time>
  <course>196.29</course>
  <speed>1.04</speed>
  <fix>3d</fix>
</trkpt>
<trkpt lat="40.0741818" lon="-105.2297662">
  <ele>1583.01</ele>
  <time>2026-08-28T17:55:53Z</time>
  <course>197.87</course>
  <speed>1.0088111815399352</speed>
  <fix>3d</fix>
</trkpt>
<trkpt lat="40.0741847" lon="-105.2297649">
  <ele>1583.0</ele>
  <time>2026-08-28T17:55:53Z</time>
  <course>196.29</course>
  <speed>1.04</speed>
  <fix>3d</fix>
</trkpt>
<trkpt lat="40.074181" lon="-105.2297665">
  <ele>1583.0</ele>
  <time>2026-08-28T17:55:53Z</time>
  <course>197.99</course>
  <speed>0.9992997548283498</speed>
  <fix>3d</fix>
</trkpt>
<trkpt lat="40.0741828" lon="-105.2297656">
  <ele>1583.0</ele>
  <time>2026-08-28T17:55:53Z</time>
  <course>196.72</course>
  <speed>1.03</speed>
  <fix>3d</fix>
</trkpt>
<trkpt lat="40.0741801" lon="-105.2297669">
  <ele>1583.0</ele>
  <time>2026-08-28T17:55:53Z</time>
  <course>198.08</course>
  <speed>0.9992997548283498</speed>
  <fix>3d</fix>
</trkpt>
<trkpt lat="40.0741828" lon="-105.2297656">
  <ele>1583.0</ele>
  <time>2026-08-28T17:55:53Z</time>
  <course>196.72</course>
  <speed>1.03</speed>
  <fix>3d</fix>
</trkpt>
<trkpt lat="40.0741792" lon="-105.2297672">
  <ele>1583.0</ele>
  <time>2026-08-28T17:55:53Z</time>
  <course>198.13</course>
  <speed>0.9992997548283498</speed>
  <fix>3d</fix>
</trkpt>
<trkpt lat="40.0741811" lon="-105.2297663">
  <ele>1583.0</ele>
  <time>2026-08-28T17:55:53Z</time>
  <course>196.99</course>
  <speed>1.03</speed>
  <fix>3d</fix>
</trkpt>
<trkpt lat="40.0741784" lon="-105.2297676">
  <ele>1583.0</ele>
  <time>2026-08-28T17:55:53Z</time>
  <course>198.16</course>
  <speed>0.9992997548283498</speed>
  <fix>3d</fix>
</trkpt>
<trkpt lat="40.0741811" lon="-105.2297663">
  <ele>1583.0</ele>
  <time>2026-08-28T17:55:53Z</time>
  <course>196.99</course>
  <speed>1.03</speed>
  <fix>3d</fix>
</trkpt>
<trkpt lat="40.0741775" lon="-105.2297679">
  <ele>1583.01</ele>
  <time>2026-08-28T17:55:53Z</time>
  <course>198.16</course>
  <speed>0.9897979591815695</speed>
  <fix>3d</fix>
</trkpt>
<trkpt lat="40.0741793" lon="-105.229767">
  <ele>1583.0</ele>
  <time>2026-08-28T17:55:53Z</time>
  <course>197.13</course>
  <speed>1.02</speed>
  <fix>3d</fix>
</trkpt>
<trkpt lat="40.0741766" lon="-105.2297683">
  <ele>1583.01</ele>
  <time>2026-08-28T17:55:53Z</time>
  <course>198.15</course>
  <speed>0.9897979591815695</speed>
  <fix>3d</fix>
</trkpt>
<trkpt lat="40.0741793" lon="-105.229767">
  <ele>1583.0</ele>
  <time>2026-08-28T17:55:53Z</time>
  <course>197.13</course>
  <speed>1.02</speed>
  <fix>3d</fix>
</trkpt>
<trkpt lat="40.0741757" lon="-105.2297686">
  <ele>1583.01</ele>
  <time>2026-08-28T17:55:53Z</time>
  <course>198.12</course>
  <speed>0.9897979591815695</speed>
  <fix>3d</fix>
</trkpt>
<trkpt lat="40.0741775" lon="-105.2297677">
  <ele>1583.0</ele>
  <time>2026-08-28T17:55:53Z</time>
  <course>197.17</course>
  <speed>1.02</speed>
  <fix>3d</fix>
</trkpt>
<trkpt lat="40.0741749" lon="-105.229769">
  <ele>1583.02</ele>
  <time>2026-08-28T17:55:53Z</time>
  <course>198.06</course>
  <speed>0.9867117106835208</speed>
  <fix>3d</fix>
</trkpt>
<trkpt lat="40.0741757" lon="-105.2297684">
  <ele>1583.0</ele>
  <time>2026-08-28T17:55:53Z</time>
  <course>197.12</course>
  <speed>1.02</speed>
  <fix>3d</fix>
</trkpt>
<trkpt lat="40.074174" lon="-105.2297693">
  <ele>1583.01</ele>
  <time>2026-08-28T17:55:53Z</time>
  <course>197.99</course>
  <speed>0.9867117106835208</speed>
  <fix>3d</fix>
</trkpt>
<trkpt lat="40.0741757" lon="-105.2297684">
  <ele>1583.0</ele>
  <time>2026-08-28T17:55:53Z</time>
  <course>197.12</course>
  <speed>1.02</speed>
  <fix>3d</fix>
</trkpt>
<trkpt lat="40.0741731" lon="-105.2297696">
  <ele>1583.01</ele>
  <time>2026-08-28T17:55:53Z</time>
  <course>197.9</course>
  <speed>0.9867117106835208</speed>
  <fix>3d</fix>
</trkpt>
<trkpt lat="40.074174" lon="-105.2297691">
  <ele>1583.0</ele>
  <time>2026-08-28T17:55:53Z</time>
  <course>196.99</course>
  <speed>1.02</speed>
  <fix>3d</fix>
</trkpt>
<trkpt lat="40.0741722" lon="-105.22977">
  <ele>1583.01</ele>
  <time>2026-08-28T17:55:53Z</time>
  <course>197.79</course>
  <speed>0.9867117106835208</speed>
  <fix>3d</fix>
</trkpt>
<trkpt lat="40.074174" lon="-105.2297691">
  <ele>1583.0</ele>
  <time>2026-08-28T17:55:53Z</time>
  <course>196.99</course>
  <speed>1.02</speed>
  <fix>3d</fix>
</trkpt>
<trkpt lat="40.0741714" lon="-105.2297703">
  <ele>1583.01</ele>
  <time>2026-08-28T17:55:53Z</time>
  <course>197.68</course>
  <speed>0.9867117106835208</speed>
  <fix>3d</fix>
</trkpt>
<trkpt lat="40.0741723" lon="-105.2297698">
  <ele>1583.0</ele>
  <time>2026-08-28T17:55:53Z</time>
  <course>196.8</course>
  <speed>1.01</speed>
  <fix>3d</fix>
</trkpt>
<trkpt lat="40.0741705" lon="-105.2297707">
  <ele>1583.01</ele>
  <time>2026-08-28T17:55:53Z</time>
  <course>197.54</course>
  <speed>0.9837174391053561</speed>
  <fix>3d</fix>
</trkpt>
<trkpt lat="40.0741723" lon="-105.2297698">
  <ele>1583.0</ele>
  <time>2026-08-28T17:55:53Z</time>
  <course>196.8</course>
  <speed>1.01</speed>
  <fix>3d</fix>
</trkpt>
<trkpt lat="40.0741696" lon="-105.229771">
  <ele>1583.01</ele>
  <time>2026-08-28T17:55:53Z</time>
  <course>197.4</course>
  <speed>0.9837174391053561</speed>
  <fix>3d</fix>
</trkpt>
<trkpt lat="40.0741705" lon="-105.2297705">
  <ele>1583.0</ele>
  <time>2026-08-28T17:55:53Z</time>
  <course>196.55</course>
  <speed>1.01</speed>
  <fix>3d</fix>
</trkpt>
<trkpt lat="40.0741687" lon="-105.2297713">
  <ele>1583.01</ele>
  <time>2026-08-28T17:55:53Z</time>
  <course>197.24</course>
  <speed>0.9932774033471213</speed>
  <fix>3d</fix>
</trkpt>
<trkpt lat="40.0741705" lon="-105.2297705">
  <ele>1583.0</ele>
  <time>2026-08-28T17:55:53Z</time>
  <course>196.55</course>
  <speed>1.01</speed>
  <fix>3d</fix>
</trkpt>
<trkpt lat="40.0741678" lon="-105.2297717">
  <ele>1583.01</ele>
  <time>2026-08-28T17:55:53Z</time>
  <course>197.07</course>
  <speed>0.9932774033471213</speed>
  <fix>3d</fix>
</trkpt>
<trkpt lat="40.0741687" lon="-105.2297711">
  <ele>1583.0</ele>
  <time>2026-08-28T17:55:53Z</time>
  <course>196.24</course>
  <speed>1.01</speed>
  <fix>3d</fix>
</trkpt>
<trkpt lat="40.0741669" lon="-105.229772">
  <ele>1583.01</ele>
  <time>2026-08-28T17:55:53Z</time>
  <course>196.89</course>
  <speed>0.9904039579888603</speed>
  <fix>3d</fix>
</trkpt>
<trkpt lat="40.0741687" lon="-105.2297711">
  <ele>1583.0</ele>
  <time>2026-08-28T17:55:53Z</time>
  <course>196.24</course>
  <speed>1.01</speed>
  <fix>3d</fix>
</trkpt>
<trkpt lat="40.0741661" lon="-105.2297723">
  <ele>1583.02</ele>
  <time>2026-08-28T17:55:53Z</time>
  <course>196.71</course>
  <speed>0.9904039579888603</speed>
  <fix>3d</fix>
</trkpt>
<trkpt lat="40.074167" lon="-105.2297718">
  <ele>1583.0</ele>
  <time>2026-08-28T17:55:53Z</time>
  <course>195.9</course>
  <speed>1.01</speed>
  <fix>3d</fix>
</trkpt>
<trkpt lat="40.0741652" lon="-105.2297726">
  <ele>1583.02</ele>
  <time>2026-08-28T17:55:53Z</time>
  <course>196.51</course>
  <speed>0.9904039579888603</speed>
  <fix>3d</fix>
</trkpt>
<trkpt lat="40.074167" lon="-105.2297718">
  <ele>1583.0</ele>
  <time>2026-08-28T17:55:53Z</time>
  <course>195.9</course>
  <speed>1.01</speed>
  <fix>3d</fix>
</trkpt>
<trkpt lat="40.0741643" lon="-105.2297729">
  <ele>1583.02</ele>
  <time>2026-08-28T17:55:53Z</time>
  <course>196.31</course>
  <speed>0.9876234100101111</speed>
  <fix>3d</fix>
</trkpt>
<trkpt lat="40.0741653" lon="-105.2297725">
  <ele>1583.0</ele>
  <time>2026-08-28T17:55:53Z</time>
  <course>195.52</course>
  <speed>1.01</speed>
  <fix>3d</fix>
</trkpt>
<trkpt lat="40.0741634" lon="-105.2297733">
  <ele>1583.02</ele>
  <time>2026-08-28T17:55:53Z</time>
  <course>196.11</course>
  <speed>0.9876234100101111</speed>
  <fix>3d</fix>
</trkpt>
<trkpt lat="40.0741653" lon="-105.2297725">
  <ele>1583.0</ele>
  <time>2026-08-28T17:55:53Z</time>
  <course>195.52</course>
  <speed>1.01</speed>
  <fix>3d</fix>
</trkpt>
<trkpt lat="40.0741625" lon="-105.2297736">
  <ele>1583.02</ele>
  <time>2026-08-28T17:55:53Z</time>
  <course>195.89</course>
  <speed>0.9972462083156798</speed>
  <fix>3d</fix>
</trkpt>
<trkpt lat="40.0741653" lon="-105.2297725">
  <ele>1583.0</ele>
  <time>2026-08-28T17:55:53Z</time>
  <course>195.52</course>
  <speed>1.01</speed>
  <fix>3d</fix>
</trkpt>
<trkpt lat="40.0741616" lon="-105.2297739">
  <ele>1583.02</ele>
  <time>2026-08-28T17:55:53Z</time>
  <course>195.67</course>
  <speed>0.9945853407325085</speed>
  <fix>3d</fix>
</trkpt>
<trkpt lat="40.0741635" lon="-105.2297731">
  <ele>1583.0</ele>
  <time>2026-08-28T17:55:53Z</time>
  <course>195.11</course>
  <speed>1.01</speed>
  <fix>3d</fix>
</trkpt>
<trkpt lat="40.0741608" lon="-105.2297742">
  <ele>1583.02</ele>
  <time>2026-08-28T17:55:53Z</time>
  <course>195.45</course>
  <speed>0.9945853407325085</speed>
  <fix>3d</fix>
</trkpt>
<trkpt lat="40.0741635" lon="-105.2297731">
  <ele>1583.0</ele>
  <time>2026-08-28T17:55:53Z</time>
  <course>195.11</course>
  <speed>1.01</speed>
  <fix>3d</fix>
</trkpt>
<trkpt lat="40.0741599" lon="-105.2297745">
  <ele>1583.02</ele>
  <time>2026-08-28T17:55:53Z</time>
  <course>195.21</course>
  <speed>0.9945853407325085</speed>
  <fix>3d</fix>
</trkpt>
<trkpt lat="40.0741617" lon="-105.2297738">
  <ele>1583.0</ele>
  <time>2026-08-28T17:55:53Z</time>
  <course>194.67</course>
  <speed>1.01</speed>
  <fix>3d</fix>
</trkpt>
<trkpt lat="40.074159" lon="-105.2297748">
  <ele>1583.02</ele>
  <time>2026-08-28T17:55:53Z</time>
  <course>194.98</course>
  <speed>0.9920181449953424</speed>
  <fix>3d</fix>
</trkpt>
<trkpt lat="40.0741617" lon="-105.2297738">
  <ele>1583.0</ele>
  <time>2026-08-28T17:55:53Z</time>
  <course>194.67</course>
  <speed>1.01</speed>
  <fix>3d</fix>
</trkpt>
<trkpt lat="40.0741581" lon="-105.2297751">
  <ele>1583.02</ele>
  <time>2026-08-28T17:55:53Z</time>
  <course>194.74</course>
  <speed>0.9920181449953424</speed>
  <fix>3d</fix>
</trkpt>
<trkpt lat="40.0741599" lon="-105.2297744">
  <ele>1583.0</ele>
  <time>2026-08-28T17:55:53Z</time>
  <course>194.21</course>
  <speed>1.02</speed>
  <fix>3d</fix>
</trkpt>
<trkpt lat="40.0741572" lon="-105.2297753">
  <ele>1583.02</ele>
  <time>2026-08-28T17:55:53Z</time>
  <course>194.49</course>
  <speed>0.9920181449953424</speed>
  <fix>3d</fix>
</trkpt>
<trkpt lat="40.0741582" lon="-105.2297749">
  <ele>1583.0</ele>
  <time>2026-08-28T17:55:53Z</time>
  <course>193.74</course>
  <speed>1.02</speed>
  <fix>3d</fix>
</trkpt>
<trkpt lat="40.0741563" lon="-105.2297756">
  <ele>1583.02</ele>
  <time>2026-08-28T17:55:53Z</time>
  <course>194.24</course>
  <speed>0.9895453501482385</speed>
  <fix>3d</fix>
</trkpt>
<trkpt lat="40.0741582" lon="-105.2297749">
  <ele>1583.0</ele>
  <time>2026-08-28T17:55:53Z</time>
  <course>193.74</course>
  <speed>1.02</speed>
  <fix>3d</fix>
</trkpt>
<trkpt lat="40.0741554" lon="-105.2297759">
  <ele>1583.02</ele>
  <time>2026-08-28T17:55:53Z</time>
  <course>193.99</course>
  <speed>0.9895453501482385</speed>
  <fix>3d</fix>
</trkpt>
<trkpt lat="40.0741563" lon="-105.2297754">
  <ele>1583.0</ele>
  <time>2026-08-28T17:55:53Z</time>
  <course>193.24</course>
  <speed>1.02</speed>
  <fix>3d</fix>
</trkpt>
<trkpt lat="40.0741545" lon="-105.2297762">
  <ele>1583.02</ele>
  <time>2026-08-28T17:55:53Z</time>
  <course>193.75</course>
  <speed>0.9968951800465282</speed>
  <fix>3d</fix>
</trkpt>
<trkpt lat="40.0741563" lon="-105.2297754">
  <ele>1583.0</ele>
  <time>2026-08-28T17:55:53Z</time>
  <course>193.24</course>
  <speed>1.02</speed>
  <fix>3d</fix>
</trkpt>
<trkpt lat="40.0741536" lon="-105.2297764">
  <ele>1583.02</ele>
  <time>2026-08-28T17:55:53Z</time>
  <course>193.5</course>
  <speed>0.9968951800465282</speed>
  <fix>3d</fix>
</trkpt>
<trkpt lat="40.0741546" lon="-105.229776">
  <ele>1583.0</ele>
  <time>2026-08-28T17:55:53Z</time>
  <course>192.74</course>
  <speed>1.02</speed>
  <fix>3d</fix>
</trkpt>
<trkpt lat="40.0741527" lon="-105.2297767">
  <ele>1583.02</ele>
  <time>2026-08-28T17:55:53Z</time>
  <course>193.25</course>
  <speed>0.9968951800465282</speed>
  <fix>3d</fix>
</trkpt>
<trkpt lat="40.0741546" lon="-105.229776">
  <ele>1583.0</ele>
  <time>2026-08-28T17:55:53Z</time>
  <course>192.74</course>
  <speed>1.02</speed>
  <fix>3d</fix>
</trkpt>
<trkpt lat="40.0741518" lon="-105.2297769">
  <ele>1583.02</ele>
  <time>2026-08-28T17:55:53Z</time>
  <course>193.0</course>
  <speed>0.9946356116689167</speed>
  <fix>3d</fix>
</trkpt>
<trkpt lat="40.0741527" lon="-105.2297765">
  <ele>1583.0</ele>
  <time>2026-08-28T17:55:53Z</time>
  <course>192.25</course>
  <speed>1.02</speed>
  <fix>3d</fix>
</trkpt>
<trkpt lat="40.0741509" lon="-105.2297772">
  <ele>1583.02</ele>
  <time>2026-08-28T17:55:53Z</time>
  <course>192.76</course>
  <speed>0.9946356116689167</speed>
  <fix>3d</fix>
</trkpt>
<trkpt lat="40.0741527" lon="-105.2297765">
  <ele>1583.0</ele>
  <time>2026-08-28T17:55:53Z</time>
  <course>192.25</course>
  <speed>1.02</speed>
  <fix>3d</fix>
</trkpt>
<trkpt lat="40.07415" lon="-105.2297774">
  <ele>1583.02</ele>
  <time>2026-08-28T17:55:53Z</time>
  <course>192.52</course>
  <speed>0.9924716620639604</speed>
  <fix>3d</fix>
</trkpt>
<trkpt lat="40.074151" lon="-105.229777">
  <ele>1583.0</ele>
  <time>2026-08-28T17:55:53Z</time>
  <course>191.76</course>
  <speed>1.02</speed>
  <fix>3d</fix>
</trkpt>
<trkpt lat="40.0741491" lon="-105.2297777">
  <ele>1583.02</ele>
  <time>2026-08-28T17:55:53Z</time>
  <course>192.28</course>
  <speed>0.9924716620639604</speed>
  <fix>3d</fix>
</trkpt>
<trkpt lat="40.074151" lon="-105.229777">
  <ele>1583.0</ele>
  <time>2026-08-28T17:55:53Z</time>
  <course>191.76</course>
  <speed>1.02</speed>
  <fix>3d</fix>
</trkpt>
<trkpt lat="40.0741482" lon="-105.2297779">
  <ele>1583.02</ele>
  <time>2026-08-28T17:55:53Z</time>
  <course>192.05</course>
  <speed>0.9924716620639604</speed>
  <fix>3d</fix>
</trkpt>
<trkpt lat="40.0741491" lon="-105.2297775">
  <ele>1583.0</ele>
  <time>2026-08-28T17:55:53Z</time>
  <course>191.28</course>
  <speed>1.02</speed>
  <fix>3d</fix>
</trkpt>
<trkpt lat="40.0741473" lon="-105.2297781">
  <ele>1583.02</ele>
  <time>2026-08-28T17:55:53Z</time>
  <course>191.82</course>
  <speed>0.9904039579888603</speed>
  <fix>3d</fix>
</trkpt>
<trkpt lat="40.0741491" lon="-105.2297775">
  <ele>1583.0</ele>
  <time>2026-08-28T17:55:53Z</time>
  <course>191.28</course>
  <speed>1.02</speed>
  <fix>3d</fix>
</trkpt>
<trkpt lat="40.0741464" lon="-105.2297784">
  <ele>1583.02</ele>
  <time>2026-08-28T17:55:53Z</time>
  <course>191.58</course>
  <speed>0.9904039579888603</speed>
  <fix>3d</fix>
</trkpt>
<trkpt lat="40.0741474" lon="-105.229778">
  <ele>1583.0</ele>
  <time>2026-08-28T17:55:53Z</time>
  <course>190.81</course>
  <speed>1.01</speed>
  <fix>3d</fix>
</trkpt>
<trkpt lat="40.0741455" lon="-105.2297786">
  <ele>1583.02</ele>
  <time>2026-08-28T17:55:53Z</time>
  <course>191.35</course>
  <speed>0.9904039579888603</speed>
  <fix>3d</fix>
</trkpt>
<trkpt lat="40.0741474" lon="-105.229778">
  <ele>1583.0</ele>
  <time>2026-08-28T17:55:53Z</time>
  <course>190.81</course>
  <speed>1.01</speed>
  <fix>3d</fix>
</trkpt>
<trkpt lat="40.0741446" lon="-105.2297788">
  <ele>1583.01</ele>
  <time>2026-08-28T17:55:53Z</time>
  <course>191.11</course>
  <speed>0.9982484660644363</speed>
  <fix>3d</fix>
</trkpt>
<trkpt lat="40.0741474" lon="-105.229778">
  <ele>1583.0</ele>
  <time>2026-08-28T17:55:53Z</time>
  <course>190.81</course>
  <speed>1.01</speed>
  <fix>3d</fix>
</trkpt>
<trkpt lat="40.0741437" lon="-105.229779">
  <ele>1583.01</ele>
  <time>2026-08-28T17:55:53Z</time>
  <course>190.88</course>
  <speed>0.9982484660644363</speed>
  <fix>3d</fix>
</trkpt>
<trkpt lat="40.0741455" lon="-105.2297783">
  <ele>1583.0</ele>
  <time>2026-08-28T17:55:53Z</time>
  <course>190.34</course>
  <speed>1.01</speed>
  <fix>3d</fix>
</trkpt>
<trkpt lat="40.0741428" lon="-105.2297792">
  <ele>1583.01</ele>
  <time>2026-08-28T17:55:53Z</time>
  <course>190.65</course>
  <speed>0.996393496566492</speed>
  <fix>3d</fix>
</trkpt>
<trkpt lat="40.0741455" lon="-105.2297783">
  <ele>1583.0</ele>
  <time>2026-08-28T17:55:53Z</time>
  <course>190.34</course>
  <speed>1.01</speed>
  <fix>3d</fix>
</trkpt>
<trkpt lat="40.0741419" lon="-105.2297794">
  <ele>1583.02</ele>
  <time>2026-08-28T17:55:53Z</time>
  <course>190.43</course>
  <speed>0.996393496566492</speed>
  <fix>3d</fix>
</trkpt>
<trkpt lat="40.0741438" lon="-105.2297788">
  <ele>1583.0</ele>
  <time>2026-08-28T17:55:53Z</time>
  <course>189.87</course>
  <speed>1.01</speed>
  <fix>3d</fix>
</trkpt>
<trkpt lat="40.074141" lon="-105.2297796">
  <ele>1583.02</ele>
  <time>2026-08-28T17:55:53Z</time>
  <course>190.21</course>
  <speed>0.996393496566492</speed>
  <fix>3d</fix>
</trkpt>
<trkpt lat="40.0741438" lon="-105.2297788">
  <ele>1583.0</ele>
  <time>2026-08-28T17:55:53Z</time>
  <course>189.87</course>
  <speed>1.01</speed>
  <fix>3d</fix>
</trkpt>
<trkpt lat="40.0741401" lon="-105.2297798">
  <ele>1583.02</ele>
  <time>2026-08-28T17:55:53Z</time>
  <course>189.99</course>
  <speed>0.9946356116689167</speed>
  <fix>3d</fix>
</trkpt>
<trkpt lat="40.0741419" lon="-105.2297792">
  <ele>1583.0</ele>
  <time>2026-08-28T17:55:53Z</time>
  <course>189.42</course>
  <speed>1.02</speed>
  <fix>3d</fix>
</trkpt>
<trkpt lat="40.0741392" lon="-105.22978">
  <ele>1583.02</ele>
  <time>2026-08-28T17:55:53Z</time>
  <course>189.76</course>
  <speed>0.9946356116689167</speed>
  <fix>3d</fix>
</trkpt>
<trkpt lat="40.0741402" lon="-105.2297796">
  <ele>1583.0</ele>
  <time>2026-08-28T17:55:53Z</time>
  <course>188.98</course>
  <speed>1.02</speed>
  <fix>3d</fix>
</trkpt>
<trkpt lat="40.0741383" lon="-105.2297802">
  <ele>1583.02</ele>
  <time>2026-08-28T17:55:53Z</time>
  <course>189.55</course>
  <speed>0.9946356116689167</speed>
  <fix>3d</fix>
</trkpt>
<trkpt lat="40.0741402" lon="-105.2297796">
  <ele>1583.0</ele>
  <time>2026-08-28T17:55:53Z</time>
  <course>188.98</course>
  <speed>1.02</speed>
  <fix>3d</fix>
</trkpt>
<trkpt lat="40.0741374" lon="-105.2297803">
  <ele>1583.02</ele>
  <time>2026-08-28T17:55:53Z</time>
  <course>189.34</course>
  <speed>0.9929753269845127</speed>
  <fix>3d</fix>
</trkpt>
<trkpt lat="40.0741383" lon="-105.2297799">
  <ele>1583.0</ele>
  <time>2026-08-28T17:55:53Z</time>
  <course>188.54</course>
  <speed>1.02</speed>
  <fix>3d</fix>
</trkpt>
<trkpt lat="40.0741365" lon="-105.2297805">
  <ele>1583.02</ele>
  <time>2026-08-28T17:55:53Z</time>
  <course>189.14</course>
  <speed>0.9929753269845127</speed>
  <fix>3d</fix>
</trkpt>
<trkpt lat="40.0741383" lon="-105.2297799">
  <ele>1583.0</ele>
  <time>2026-08-28T17:55:53Z</time>
  <course>188.54</course>
  <speed>1.02</speed>
  <fix>3d</fix>
</trkpt>
<trkpt lat="40.0741356" lon="-105.2297807">
  <ele>1583.02</ele>
  <time>2026-08-28T17:55:53Z</time>
  <course>188.93</course>
  <speed>0.9929753269845127</speed>
  <fix>3d</fix>
</trkpt>
<trkpt lat="40.0741366" lon="-105.2297803">
  <ele>1583.0</ele>
  <time>2026-08-28T17:55:53Z</time>
  <course>188.12</course>
  <speed>1.02</speed>
  <fix>3d</fix>
</trkpt>
<trkpt lat="40.0741347" lon="-105.2297808">
  <ele>1583.01</ele>
  <time>2026-08-28T17:55:53Z</time>
  <course>188.73</course>
  <speed>0.9914131328563285</speed>
  <fix>3d</fix>
</trkpt>
<trkpt lat="40.0741366" lon="-105.2297803">
  <ele>1583.0</ele>
  <time>2026-08-28T17:55:53Z</time>
  <course>188.12</course>
  <speed>1.02</speed>
  <fix>3d</fix>
</trkpt>
<trkpt lat="40.0741337" lon="-105.229781">
  <ele>1583.01</ele>
  <time>2026-08-28T17:55:53Z</time>
  <course>188.54</course>
  <speed>0.9914131328563285</speed>
  <fix>3d</fix>
</trkpt>
<trkpt lat="40.0741347" lon="-105.2297806">
  <ele>1583.0</ele>
  <time>2026-08-28T17:55:53Z</time>
  <course>187.72</course>
  <speed>1.02</speed>
  <fix>3d</fix>
</trkpt>
<trkpt lat="40.0741328" lon="-105.2297811">
  <ele>1583.01</ele>
  <time>2026-08-28T17:55:53Z</time>
  <course>188.34</course>
  <speed>0.9914131328563285</speed>
  <fix>3d</fix>
</trkpt>
<trkpt lat="40.0741347" lon="-105.2297806">
  <ele>1583.0</ele>
  <time>2026-08-28T17:55:53Z</time>
  <course>187.72</course>
  <speed>1.02</speed>
  <fix>3d</fix>
</trkpt>
<trkpt lat="40.0741319" lon="-105.2297813">
  <ele>1583.01</ele>
  <time>2026-08-28T17:55:53Z</time>
  <course>188.15</course>
  <speed>0.9899494936611666</speed>
  <fix>3d</fix>
</trkpt>
<trkpt lat="40.0741329" lon="-105.2297809">
  <ele>1583.0</ele>
  <time>2026-08-28T17:55:53Z</time>
  <course>187.33</course>
  <speed>1.02</speed>
  <fix>3d</fix>
</trkpt>
<trkpt lat="40.074131" lon="-105.2297815">
  <ele>1583.01</ele>
  <time>2026-08-28T17:55:53Z</time>
  <course>187.96</course>
  <speed>0.9899494936611666</speed>
  <fix>3d</fix>
</trkpt>
<trkpt lat="40.0741329" lon="-105.2297809">
  <ele>1583.0</ele>
  <time>2026-08-28T17:55:53Z</time>
  <course>187.33</course>
  <speed>1.02</speed>
  <fix>3d</fix>
</trkpt>
<trkpt lat="40.0741301" lon="-105.2297816">
  <ele>1583.01</ele>
  <time>2026-08-28T17:55:53Z</time>
  <course>187.78</course>
  <speed>0.9899494936611666</speed>
  <fix>3d</fix>
</trkpt>
<trkpt lat="40.0741311" lon="-105.2297812">
  <ele>1583.0</ele>
  <time>2026-08-28T17:55:53Z</time>
  <course>186.95</course>
  <speed>1.02</speed>
  <fix>3d</fix>
</trkpt>
<trkpt lat="40.0741292" lon="-105.2297817">
  <ele>1583.01</ele>
  <time>2026-08-28T17:55:53Z</time>
  <course>187.6</course>
  <speed>0.9998499887483122</speed>
  <fix>3d</fix>
</trkpt>
<trkpt lat="40.0741311" lon="-105.2297812">
  <ele>1583.0</ele>
  <time>2026-08-28T17:55:53Z</time>
  <course>186.95</course>
  <speed>1.02</speed>
  <fix>3d</fix>
</trkpt>
<trkpt lat="40.0741283" lon="-105.2297819">
  <ele>1583.02</ele>
  <time>2026-08-28T17:55:53Z</time>
  <course>187.42</course>
  <speed>0.9984988733093293</speed>
  <fix>3d</fix>
</trkpt>
<trkpt lat="40.0741292" lon="-105.2297815">
  <ele>1583.0</ele>
  <time>2026-08-28T17:55:53Z</time>
  <course>186.59</course>
  <speed>1.02</speed>
  <fix>3d</fix>
</trkpt>
<trkpt lat="40.0741273" lon="-105.229782">
  <ele>1583.01</ele>
  <time>2026-08-28T17:55:53Z</time>
  <course>187.25</course>
  <speed>0.9984988733093293</speed>
  <fix>3d</fix>
</trkpt>
<trkpt lat="40.0741292" lon="-105.2297815">
  <ele>1583.0</ele>
  <time>2026-08-28T17:55:53Z</time>
  <course>186.59</course>
  <speed>1.02</speed>
  <fix>3d</fix>
</trkpt>
<trkpt lat="40.0741264" lon="-105.2297821">
  <ele>1583.01</ele>
  <time>2026-08-28T17:55:53Z</time>
  <course>187.08</course>
  <speed>0.9984988733093293</speed>
  <fix>3d</fix>
</trkpt>
<trkpt lat="40.0741292" lon="-105.2297815">
  <ele>1583.0</ele>
  <time>2026-08-28T17:55:53Z</time>
  <course>186.59</course>
  <speed>1.02</speed>
  <fix>3d</fix>
</trkpt>
<trkpt lat="40.0741255" lon="-105.2297823">
  <ele>1583.01</ele>
  <time>2026-08-28T17:55:53Z</time>
  <course>186.91</course>
  <speed>0.9972462083156798</speed>
  <fix>3d</fix>
</trkpt>
<trkpt lat="40.0741274" lon="-105.2297818">
  <ele>1583.0</ele>
  <time>2026-08-28T17:55:53Z</time>
  <course>186.24</course>
  <speed>1.02</speed>
  <fix>3d</fix>
</trkpt>
<trkpt lat="40.0741246" lon="-105.2297824">
  <ele>1583.01</ele>
  <time>2026-08-28T17:55:53Z</time>
  <course>186.75</course>
  <speed>0.9972462083156798</speed>
  <fix>3d</fix>
</trkpt>
<trkpt lat="40.0741274" lon="-105.2297818">
  <ele>1583.0</ele>
  <time>2026-08-28T17:55:53Z</time>
  <course>186.24</course>
  <speed>1.02</speed>
  <fix>3d</fix>
</trkpt>
<trkpt lat="40.0741237" lon="-105.2297825">
  <ele>1583.01</ele>
  <time>2026-08-28T17:55:53Z</time>
  <course>186.59</course>
  <speed>0.9972462083156798</speed>
  <fix>3d</fix>
</trkpt>
<trkpt lat="40.0741256" lon="-105.2297821">
  <ele>1583.0</ele>
  <time>2026-08-28T17:55:53Z</time>
  <course>185.9</course>
  <speed>1.02</speed>
  <fix>3d</fix>
</trkpt>
<trkpt lat="40.0741228" lon="-105.2297826">
  <ele>1583.01</ele>
  <time>2026-08-28T17:55:53Z</time>
  <course>186.44</course>
  <speed>0.9972462083156798</speed>
  <fix>3d</fix>
</trkpt>
<trkpt lat="40.0741256" lon="-105.2297821">
  <ele>1583.0</ele>
  <time>2026-08-28T17:55:53Z</time>
  <course>185.9</course>
  <speed>1.02</speed>
  <fix>3d</fix>
</trkpt>
<trkpt lat="40.0741219" lon="-105.2297827">
  <ele>1583.01</ele>
  <time>2026-08-28T17:55:53Z</time>
  <course>186.28</course>
  <speed>0.9960923651951158</speed>
  <fix>3d</fix>
</trkpt>
<trkpt lat="40.0741237" lon="-105.2297823">
  <ele>1583.0</ele>
  <time>2026-08-28T17:55:53Z</time>
  <course>185.58</course>
  <speed>1.02</speed>
  <fix>3d</fix>
</trkpt>
<trkpt lat="40.074121" lon="-105.2297829">
  <ele>1583.01</ele>
  <time>2026-08-28T17:55:53Z</time>
  <course>186.13</course>
  <speed>0.9960923651951158</speed>
  <fix>3d</fix>
</trkpt>
<trkpt lat="40.0741237" lon="-105.2297823">
  <ele>1583.0</ele>
  <time>2026-08-28T17:55:53Z</time>
  <course>185.58</course>
  <speed>1.02</speed>
  <fix>3d</fix>
</trkpt>
<trkpt lat="40.0741201" lon="-105.229783">
  <ele>1583.01</ele>
  <time>2026-08-28T17:55:53Z</time>
  <course>185.97</course>
  <speed>0.9960923651951158</speed>
  <fix>3d</fix>
</trkpt>
<trkpt lat="40.074122" lon="-105.2297825">
  <ele>1583.0</ele>
  <time>2026-08-28T17:55:53Z</time>
  <course>185.27</course>
  <speed>1.02</speed>
  <fix>3d</fix>
</trkpt>
<trkpt lat="40.0741192" lon="-105.2297831">
  <ele>1583.01</ele>
  <time>2026-08-28T17:55:53Z</time>
  <course>185.83</course>
  <speed>0.9960923651951158</speed>
  <fix>3d</fix>
</trkpt>
<trkpt lat="40.0741201" lon="-105.2297828">
  <ele>1583.0</ele>
  <time>2026-08-28T17:55:53Z</time>
  <course>184.97</course>
  <speed>1.02</speed>
  <fix>3d</fix>
</trkpt>
<trkpt lat="40.0741182" lon="-105.2297832">
  <ele>1583.0</ele>
  <time>2026-08-28T17:55:53Z</time>
  <course>185.69</course>
  <speed>0.9960923651951158</speed>
  <fix>3d</fix>
</trkpt>
<trkpt lat="40.0741201" lon="-105.2297828">
  <ele>1583.0</ele>
  <time>2026-08-28T17:55:53Z</time>
  <course>184.97</course>
  <speed>1.02</speed>
  <fix>3d</fix>
</trkpt>
<trkpt lat="40.0741173" lon="-105.2297833">
  <ele>1583.0</ele>
  <time>2026-08-28T17:55:53Z</time>
  <course>185.56</course>
  <speed>0.9950376877284599</speed>
  <fix>3d</fix>
</trkpt>
<trkpt lat="40.0741182" lon="-105.229783">
  <ele>1583.0</ele>
  <time>2026-08-28T17:55:53Z</time>
  <course>184.69</course>
  <speed>1.02</speed>
  <fix>3d</fix>
</trkpt>
<trkpt lat="40.0741164" lon="-105.2297834">
  <ele>1583.0</ele>
  <time>2026-08-28T17:55:53Z</time>
  <course>185.42</course>
  <speed>0.9950376877284599</speed>
  <fix>3d</fix>
</trkpt>
<trkpt lat="40.0741182" lon="-105.229783">
  <ele>1583.0</ele>
  <time>2026-08-28T17:55:53Z</time>
  <course>184.69</course>
  <speed>1.02</speed>
  <fix>3d</fix>
</trkpt>
<trkpt lat="40.0741155" lon="-105.2297835">
  <ele>1583.01</ele>
  <time>2026-08-28T17:55:53Z</time>
  <course>185.29</course>
  <speed>0.9950376877284599</speed>
  <fix>3d</fix>
</trkpt>
<trkpt lat="40.0741164" lon="-105.2297831">
  <ele>1583.0</ele>
  <time>2026-08-28T17:55:53Z</time>
  <course>184.41</course>
  <speed>1.02</speed>
  <fix>3d</fix>
</trkpt>
<trkpt lat="40.0741146" lon="-105.2297836">
  <ele>1583.01</ele>
  <time>2026-08-28T17:55:53Z</time>
  <course>185.16</course>
  <speed>0.9950376877284599</speed>
  <fix>3d</fix>
</trkpt>
<trkpt lat="40.0741164" lon="-105.2297831">
  <ele>1583.0</ele>
  <time>2026-08-28T17:55:53Z</time>
  <course>184.41</course>
  <speed>1.02</speed>
  <fix>3d</fix>
</trkpt>
<trkpt lat="40.0741136" lon="-105.2297837">
  <ele>1583.01</ele>
  <time>2026-08-28T17:55:53Z</time>
  <course>185.03</course>
  <speed>0.9940824915468535</speed>
  <fix>3d</fix>
</trkpt>
<trkpt lat="40.0741146" lon="-105.2297833">
  <ele>1583.0</ele>
  <time>2026-08-28T17:55:53Z</time>
  <course>184.15</course>
  <speed>1.02</speed>
  <fix>3d</fix>
</trkpt>
<trkpt lat="40.0741127" lon="-105.2297837">
  <ele>1583.01</ele>
  <time>2026-08-28T17:55:53Z</time>
  <course>185.03</course>
  <speed>0.9542536350467836</speed>
  <fix>3d</fix>
</trkpt>
<trkpt lat="40.0741146" lon="-105.2297833">
  <ele>1583.0</ele>
  <time>2026-08-28T17:55:53Z</time>
  <course>184.15</course>
  <speed>1.02</speed>
  <fix>3d</fix>
</trkpt>
<trkpt lat="40.0741119" lon="-105.2297838">
  <ele>1583.01</ele>
  <time>2026-08-28T17:55:53Z</time>
  <course>185.03</course>
  <speed>0.9044888059008801</speed>
  <fix>3d</fix>
</trkpt>
<trkpt lat="40.0741127" lon="-105.2297835">
  <ele>1583.0</ele>
  <time>2026-08-28T17:55:53Z</time>
  <course>184.03</course>
  <speed>0.98</speed>
  <fix>3d</fix>
</trkpt>
<trkpt lat="40.074111" lon="-105.2297839">
  <ele>1583.01</ele>
  <time>2026-08-28T17:55:53Z</time>
  <course>185.03</course>
  <speed>0.8637129152675673</speed>
  <fix>3d</fix>
</trkpt>
<trkpt lat="40.0741127" lon="-105.2297835">
  <ele>1583.0</ele>
  <time>2026-08-28T17:55:53Z</time>
  <course>184.03</course>
  <speed>0.98</speed>
  <fix>3d</fix>
</trkpt>
<trkpt lat="40.0741103" lon="-105.229784">
  <ele>1583.02</ele>
  <time>2026-08-28T17:55:53Z</time>
  <course>185.03</course>
  <speed>0.8139410298049853</speed>
  <fix>3d</fix>
</trkpt>
<trkpt lat="40.074111" lon="-105.2297836">
  <ele>1583.0</ele>
  <time>2026-08-28T17:55:53Z</time>
  <course>184.03</course>
  <speed>0.89</speed>
  <fix>3d</fix>
</trkpt>
<trkpt lat="40.0741095" lon="-105.229784">
  <ele>1583.02</ele>
  <time>2026-08-28T17:55:53Z</time>
  <course>184.96</course>
  <speed>0.8039900496896712</speed>
  <fix>3d</fix>
</trkpt>
<trkpt lat="40.074111" lon="-105.2297836">
  <ele>1583.0</ele>
  <time>2026-08-28T17:55:53Z</time>
  <course>184.03</course>
  <speed>0.89</speed>
  <fix>3d</fix>
</trkpt>
<trkpt lat="40.0741088" lon="-105.2297841">
  <ele>1583.01</ele>
  <time>2026-08-28T17:55:53Z</time>
  <course>184.86</course>
  <speed>0.7930952023559341</speed>
  <fix>3d</fix>
</trkpt>
<trkpt lat="40.0741095" lon="-105.2297838">
  <ele>1583.0</ele>
  <time>2026-08-28T17:55:53Z</time>
  <course>183.94</course>
  <speed>0.83</speed>
  <fix>3d</fix>
</trkpt>
<trkpt lat="40.074108" lon="-105.2297841">
  <ele>1583.02</ele>
  <time>2026-08-28T17:55:53Z</time>
  <course>184.73</course>
  <speed>0.7532595834106592</speed>
  <fix>3d</fix>
</trkpt>
<trkpt lat="40.0741095" lon="-105.2297838">
  <ele>1583.0</ele>
  <time>2026-08-28T17:55:53Z</time>
  <course>183.94</course>
  <speed>0.83</speed>
  <fix>3d</fix>
</trkpt>
<trkpt lat="40.0741073" lon="-105.2297842">
  <ele>1583.02</ele>
  <time>2026-08-28T17:55:53Z</time>
  <course>184.56</course>
  <speed>0.7025667228100119</speed>
  <fix>3d</fix>
</trkpt>
<trkpt lat="40.0741095" lon="-105.2297838">
  <ele>1583.0</ele>
  <time>2026-08-28T17:55:53Z</time>
  <course>183.94</course>
  <speed>0.83</speed>
  <fix>3d</fix>
</trkpt>
<trkpt lat="40.0741067" lon="-105.2297842">
  <ele>1583.02</ele>
  <time>2026-08-28T17:55:53Z</time>
  <course>184.37</course>
  <speed>0.6428063471995279</speed>
  <fix>3d</fix>
</trkpt>
<trkpt lat="40.074108" lon="-105.2297839">
  <ele>1583.0</ele>
  <time>2026-08-28T17:55:53Z</time>
  <course>183.72</course>
  <speed>0.78</speed>
  <fix>3d</fix>
</trkpt>
<trkpt lat="40.0741062" lon="-105.2297843">
  <ele>1583.02</ele>
  <time>2026-08-28T17:55:53Z</time>
  <course>184.16</course>
  <speed>0.5721887800367987</speed>
  <fix>3d</fix>
</trkpt>
<trkpt lat="40.074108" lon="-105.2297839">
  <ele>1583.0</ele>
  <time>2026-08-28T17:55:53Z</time>
  <course>183.72</course>
  <speed>0.78</speed>
  <fix>3d</fix>
</trkpt>
<trkpt lat="40.0741057" lon="-105.2297843">
  <ele>1583.03</ele>
  <time>2026-08-28T17:55:53Z</time>
  <course>183.95</course>
  <speed>0.48166378315169184</speed>
  <fix>3d</fix>
</trkpt>
<trkpt lat="40.0741067" lon="-105.229784">
  <ele>1583.0</ele>
  <time>2026-08-28T17:55:53Z</time>
  <course>183.38</course>
  <speed>0.67</speed>
  <fix>3d</fix>
</trkpt>
<trkpt lat="40.0741052" lon="-105.2297843">
  <ele>1583.03</ele>
  <time>2026-08-28T17:55:53Z</time>
  <course>183.75</course>
  <speed>0.4119465984809196</speed>
  <fix>3d</fix>
</trkpt>
<trkpt lat="40.0741067" lon="-105.229784">
  <ele>1583.0</ele>
  <time>2026-08-28T17:55:53Z</time>
  <course>183.38</course>
  <speed>0.67</speed>
  <fix>3d</fix>
</trkpt>
<trkpt lat="40.0741049" lon="-105.2297843">
  <ele>1583.03</ele>
  <time>2026-08-28T17:55:53Z</time>
  <course>183.55</course>
  <speed>0.35128336140500593</speed>
  <fix>3d</fix>
</trkpt>
<trkpt lat="40.0741057" lon="-105.2297841">
  <ele>1583.0</ele>
  <time>2026-08-28T17:55:53Z</time>
  <course>182.99</course>
  <speed>0.52</speed>
  <fix>3d</fix>
</trkpt>
<trkpt lat="40.0741046" lon="-105.2297844">
  <ele>1583.03</ele>
  <time>2026-08-28T17:55:53Z</time>
  <course>183.36</course>
  <speed>0.32140317359976395</speed>
  <fix>3d</fix>
</trkpt>
<trkpt lat="40.0741049" lon="-105.2297842">
  <ele>1583.0</ele>
  <time>2026-08-28T17:55:53Z</time>
  <course>182.57</course>
  <speed>0.4</speed>
  <fix>3d</fix>
</trkpt>
<trkpt lat="40.0741043" lon="-105.2297844">
  <ele>1583.03</ele>
  <time>2026-08-28T17:55:53Z</time>
  <course>183.16</course>
  <speed>0.3014962686336267</speed>
  <fix>3d</fix>
</trkpt>
<trkpt lat="40.0741049" lon="-105.2297842">
  <ele>1583.0</ele>
  <time>2026-08-28T17:55:53Z</time>
  <course>182.57</course>
  <speed>0.4</speed>
  <fix>3d</fix>
</trkpt>
<trkpt lat="40.074104" lon="-105.2297844">
  <ele>1583.03</ele>
  <time>2026-08-28T17:55:53Z</time>
  <course>182.97</course>
  <speed>0.31144823004794875</speed>
  <fix>3d</fix>
</trkpt>
<trkpt lat="40.0741043" lon="-105.2297842">
  <ele>1583.0</ele>
  <time>2026-08-28T17:55:53Z</time>
  <course>182.16</course>
  <speed>0.34</speed>
  <fix>3d</fix>
</trkpt>
<trkpt lat="40.0741037" lon="-105.2297844">
  <ele>1583.03</ele>
  <time>2026-08-28T17:55:53Z</time>
  <course>182.77</course>
  <speed>0.3313608305156178</speed>
  <fix>3d</fix>
</trkpt>
<trkpt lat="40.0741043" lon="-105.2297842">
  <ele>1583.0</ele>
  <time>2026-08-28T17:55:53Z</time>
  <course>182.16</course>
  <speed>0.34</speed>
  <fix>3d</fix>
</trkpt>
<trkpt lat="40.0741034" lon="-105.2297844">
  <ele>1583.03</ele>
  <time>2026-08-28T17:55:53Z</time>
  <course>182.55</course>
  <speed>0.3712142238654117</speed>
  <fix>3d</fix>
</trkpt>
<trkpt lat="40.0741036" lon="-105.2297842">
  <ele>1583.0</ele>
  <time>2026-08-28T17:55:53Z</time>
  <course>181.73</course>
  <speed>0.38</speed>
  <fix>3d</fix>
</trkpt>
<trkpt lat="40.074103" lon="-105.2297844">
  <ele>1583.03</ele>
  <time>2026-08-28T17:55:53Z</time>
  <course>182.3</course>
  <speed>0.4410215414239989</speed>
  <fix>3d</fix>
</trkpt>
<trkpt lat="40.0741036" lon="-105.2297842">
  <ele>1583.0</ele>
  <time>2026-08-28T17:55:53Z</time>
  <course>181.73</course>
  <speed>0.38</speed>
  <fix>3d</fix>
</trkpt>
<trkpt lat="40.0741025" lon="-105.2297844">
  <ele>1583.03</ele>
  <time>2026-08-28T17:55:53Z</time>
  <course>182.04</course>
  <speed>0.5108815909777921</speed>
  <fix>3d</fix>
</trkpt>
<trkpt lat="40.0741028" lon="-105.2297842">
  <ele>1583.0</ele>
  <time>2026-08-28T17:55:53Z</time>
  <course>181.25</course>
  <speed>0.48</speed>
  <fix>3d</fix>
</trkpt>
<trkpt lat="40.074102" lon="-105.2297844">
  <ele>1583.03</ele>
  <time>2026-08-28T17:55:53Z</time>
  <course>181.77</course>
  <speed>0.6007495318350236</speed>
  <fix>3d</fix>
</trkpt>
<trkpt lat="40.0741028" lon="-105.2297842">
  <ele>1583.0</ele>
  <time>2026-08-28T17:55:53Z</time>
  <course>181.25</course>
  <speed>0.48</speed>
  <fix>3d</fix>
</trkpt>
<trkpt lat="40.0741014" lon="-105.2297845">
  <ele>1583.03</ele>
  <time>2026-08-28T17:55:53Z</time>
  <course>181.51</course>
  <speed>0.6906518659932803</speed>
  <fix>3d</fix>
</trkpt>
<trkpt lat="40.0741018" lon="-105.2297842">
  <ele>1583.0</ele>
  <time>2026-08-28T17:55:53Z</time>
  <course>180.73</course>
  <speed>0.64</speed>
  <fix>3d</fix>
</trkpt>
<trkpt lat="40.0741006" lon="-105.2297845">
  <ele>1583.03</ele>
  <time>2026-08-28T17:55:53Z</time>
  <course>181.26</course>
  <speed>0.8005623023850174</speed>
  <fix>3d</fix>
</trkpt>
<trkpt lat="40.0741018" lon="-105.2297842">
  <ele>1583.0</ele>
  <time>2026-08-28T17:55:53Z</time>
  <course>180.73</course>
  <speed>0.64</speed>
  <fix>3d</fix>
</trkpt>
<trkpt lat="40.0740998" lon="-105.2297845">
  <ele>1583.03</ele>
  <time>2026-08-28T17:55:53Z</time>
  <course>181.03</course>
  <speed>0.910494371207203</speed>
  <fix>3d</fix>
</trkpt>
<trkpt lat="40.0741005" lon="-105.2297842">
  <ele>1583.0</ele>
  <time>2026-08-28T17:55:53Z</time>
  <course>180.23</course>
  <speed>0.83</speed>
  <fix>3d</fix>
</trkpt>
<trkpt lat="40.0740989" lon="-105.2297845">
  <ele>1583.03</ele>
  <time>2026-08-28T17:55:53Z</time>
  <course>180.82</course>
  <speed>1.0204410811016968</speed>
  <fix>3d</fix>
</trkpt>
<trkpt lat="40.0741005" lon="-105.2297842">
  <ele>1583.0</ele>
  <time>2026-08-28T17:55:53Z</time>
  <course>180.23</course>
  <speed>0.83</speed>
  <fix>3d</fix>
</trkpt>
<trkpt lat="40.0740979" lon="-105.2297845">
  <ele>1583.03</ele>
  <time>2026-08-28T17:55:53Z</time>
  <course>180.64</course>
  <speed>1.140175425099138</speed>
  <fix>3d</fix>
</trkpt>
<trkpt lat="40.0740988" lon="-105.2297842">
  <ele>1583.0</ele>
  <time>2026-08-28T17:55:53Z</time>
  <course>179.81</course>
  <speed>1.05</speed>
  <fix>3d</fix>
</trkpt>
<trkpt lat="40.0740967" lon="-105.2297845">
  <ele>1583.03</ele>
  <time>2026-08-28T17:55:53Z</time>
  <course>180.5</course>
  <speed>1.2601587201618691</speed>
  <fix>3d</fix>
</trkpt>
<trkpt lat="40.0740988" lon="-105.2297842">
  <ele>1583.0</ele>
  <time>2026-08-28T17:55:53Z</time>
  <course>179.81</course>
  <speed>1.05</speed>
  <fix>3d</fix>
</trkpt>
<trkpt lat="40.0740955" lon="-105.2297845">
  <ele>1583.03</ele>
  <time>2026-08-28T17:55:53Z</time>
  <course>180.38</course>
  <speed>1.3801449199268894</speed>
  <fix>3d</fix>
</trkpt>
<trkpt lat="40.0740988" lon="-105.2297842">
  <ele>1583.0</ele>
  <time>2026-08-28T17:55:53Z</time>
  <course>179.81</course>
  <speed>1.05</speed>
  <fix>3d</fix>
</trkpt>
<trkpt lat="40.0740942" lon="-105.2297845">
  <ele>1583.03</ele>
  <time>2026-08-28T17:55:53Z</time>
  <course>180.29</course>
  <speed>1.4901342221424216</speed>
  <fix>3d</fix>
</trkpt>
<trkpt lat="40.0740967" lon="-105.2297842">
  <ele>1583.0</ele>
  <time>2026-08-28T17:55:53Z</time>
  <course>179.5</course>
  <speed>1.28</speed>
  <fix>3d</fix>
</trkpt>
<trkpt lat="40.0740927" lon="-105.2297845">
  <ele>1583.03</ele>
  <time>2026-08-28T17:55:53Z</time>
  <course>180.21</course>
  <speed>1.6101242188104619</speed>
  <fix>3d</fix>
</trkpt>
<trkpt lat="40.0740967" lon="-105.2297842">
  <ele>1583.0</ele>
  <time>2026-08-28T17:55:53Z</time>
  <course>179.5</course>
  <speed>1.28</speed>
  <fix>3d</fix>
</trkpt>
<trkpt lat="40.0740912" lon="-105.2297844">
  <ele>1583.03</ele>
  <time>2026-08-28T17:55:53Z</time>
  <course>180.15</course>
  <speed>1.7300289014926888</speed>
  <fix>3d</fix>
</trkpt>
<trkpt lat="40.0740942" lon="-105.2297842">
  <ele>1583.0</ele>
  <time>2026-08-28T17:55:53Z</time>
  <course>179.29</course>
  <speed>1.51</speed>
  <fix>3d</fix>
</trkpt>
<trkpt lat="40.0740896" lon="-105.2297844">
  <ele>1583.04</ele>
  <time>2026-08-28T17:55:53Z</time>
  <course>180.1</course>
  <speed>1.8400271737123886</speed>
  <fix>3d</fix>
</trkpt>
<trkpt lat="40.0740942" lon="-105.2297842">
  <ele>1583.0</ele>
  <time>2026-08-28T17:55:53Z</time>
  <course>179.29</course>
  <speed>1.51</speed>
  <fix>3d</fix>
</trkpt>
<trkpt lat="40.0740878" lon="-105.2297844">
  <ele>1583.04</ele>
  <time>2026-08-28T17:55:53Z</time>
  <course>180.06</course>
  <speed>1.9500256408570633</speed>
  <fix>3d</fix>
</trkpt>
<trkpt lat="40.0740912" lon="-105.2297842">
  <ele>1583.0</ele>
  <time>2026-08-28T17:55:53Z</time>
  <course>179.16</course>
  <speed>1.74</speed>
  <fix>3d</fix>
</trkpt>
<trkpt lat="40.074086" lon="-105.2297844">
  <ele>1583.04</ele>
  <time>2026-08-28T17:55:53Z</time>
  <course>180.03</course>
  <speed>2.060024271701671</speed>
  <fix>3d</fix>
</trkpt>
<trkpt lat="40.0740912" lon="-105.2297842">
  <ele>1583.0</ele>
  <time>2026-08-28T17:55:53Z</time>
  <course>179.16</course>
  <speed>1.74</speed>
  <fix>3d</fix>
</trkpt>
<trkpt lat="40.074084" lon="-105.2297844">
  <ele>1583.04</ele>
  <time>2026-08-28T17:55:53Z</time>
  <course>179.99</course>
  <speed>2.1700230413523265</speed>
  <fix>3d</fix>
</trkpt>
<trkpt lat="40.0740879" lon="-105.2297842">
  <ele>1583.0</ele>
  <time>2026-08-28T17:55:53Z</time>
  <course>179.08</course>
  <speed>1.96</speed>
  <fix>3d</fix>
</trkpt>
<trkpt lat="40.074082" lon="-105.2297844">
  <ele>1583.04</ele>
  <time>2026-08-28T17:55:53Z</time>
  <course>179.98</course>
  <speed>2.2700220263248547</speed>
  <fix>3d</fix>
</trkpt>
<trkpt lat="40.0740842" lon="-105.2297841">
  <ele>1583.0</ele>
  <time>2026-08-28T17:55:53Z</time>
  <course>179.04</course>
  <speed>2.17</speed>
  <fix>3d</fix>
</trkpt>
<trkpt lat="40.0740799" lon="-105.2297844">
  <ele>1583.04</ele>
  <time>2026-08-28T17:55:53Z</time>
  <course>179.97</course>
  <speed>2.3700210969525144</speed>
  <fix>3d</fix>
</trkpt>
<trkpt lat="40.0740842" lon="-105.2297841">
  <ele>1583.0</ele>
  <time>2026-08-28T17:55:53Z</time>
  <course>179.04</course>
  <speed>2.17</speed>
  <fix>3d</fix>
</trkpt>
<trkpt lat="40.0740777" lon="-105.2297844">
  <ele>1583.04</ele>
  <time>2026-08-28T17:55:53Z</time>
  <course>179.96</course>
  <speed>2.47002024283203</speed>
  <fix>3d</fix>
</trkpt>
<trkpt lat="40.0740801" lon="-105.229784">
  <ele>1583.0</ele>
  <time>2026-08-28T17:55:53Z</time>
  <course>179.03</course>
  <speed>2.38</speed>
  <fix>3d</fix>
</trkpt>
<trkpt lat="40.0740753" lon="-105.2297843">
  <ele>1583.03</ele>
  <time>2026-08-28T17:55:53Z</time>
  <course>179.96</course>
  <speed>2.58</speed>
  <fix>3d</fix>
</trkpt>
<trkpt lat="40.0740801" lon="-105.229784">
  <ele>1583.0</ele>
  <time>2026-08-28T17:55:53Z</time>
  <course>179.03</course>
  <speed>2.38</speed>
  <fix>3d</fix>
</trkpt>
<trkpt lat="40.0740729" lon="-105.2297843">
  <ele>1583.03</ele>
  <time>2026-08-28T17:55:53Z</time>
  <course>179.95</course>
  <speed>2.67</speed>
  <fix>3d</fix>
</trkpt>
<trkpt lat="40.0740756" lon="-105.2297839">
  <ele>1583.0</ele>
  <time>2026-08-28T17:55:53Z</time>
  <course>179.03</course>
  <speed>2.58</speed>
  <fix>3d</fix>
</trkpt>
<trkpt lat="40.0740704" lon="-105.2297842">
  <ele>1583.03</ele>
  <time>2026-08-28T17:55:53Z</time>
  <course>179.94</course>
  <speed>2.77</speed>
  <fix>3d</fix>
</trkpt>
<trkpt lat="40.0740756" lon="-105.2297839">
  <ele>1583.0</ele>
  <time>2026-08-28T17:55:53Z</time>
  <course>179.03</course>
  <speed>2.58</speed>
  <fix>3d</fix>
</trkpt>
<trkpt lat="40.0740678" lon="-105.2297842">
  <ele>1583.03</ele>
  <time>2026-08-28T17:55:53Z</time>
  <course>179.93</course>
  <speed>2.87</speed>
  <fix>3d</fix>
</trkpt>
<trkpt lat="40.0740708" lon="-105.2297838">
  <ele>1583.0</ele>
  <time>2026-08-28T17:55:53Z</time>
  <course>179.03</course>
  <speed>2.77</speed>
  <fix>3d</fix>
</trkpt>
<trkpt lat="40.0740651" lon="-105.2297841">
  <ele>1583.03</ele>
  <time>2026-08-28T17:55:53Z</time>
  <course>179.92</course>
  <speed>2.96</speed>
  <fix>3d</fix>
</trkpt>
<trkpt lat="40.0740708" lon="-105.2297838">
  <ele>1583.0</ele>
  <time>2026-08-28T17:55:53Z</time>
  <course>179.03</course>
  <speed>2.77</speed>
  <fix>3d</fix>
</trkpt>
<trkpt lat="40.0740624" lon="-105.2297841">
  <ele>1583.02</ele>
  <time>2026-08-28T17:55:53Z</time>
  <course>179.91</course>
  <speed>3.05</speed>
  <fix>3d</fix>
</trkpt>
<trkpt lat="40.0740657" lon="-105.2297837">
  <ele>1583.0</ele>
  <time>2026-08-28T17:55:53Z</time>
  <course>179.03</course>
  <speed>2.95</speed>
  <fix>3d</fix>
</trkpt>
<trkpt lat="40.0740595" lon="-105.229784">
  <ele>1583.02</ele>
  <time>2026-08-28T17:55:53Z</time>
  <course>179.9</course>
  <speed>3.15</speed>
  <fix>3d</fix>
</trkpt>
<trkpt lat="40.0740657" lon="-105.2297837">
  <ele>1583.0</ele>
  <time>2026-08-28T17:55:53Z</time>
  <course>179.03</course>
  <speed>2.95</speed>
  <fix>3d</fix>
</trkpt>
<trkpt lat="40.0740566" lon="-105.229784">
  <ele>1583.02</ele>
  <time>2026-08-28T17:55:53Z</time>
  <course>179.89</course>
  <speed>3.24</speed>
  <fix>3d</fix>
</trkpt>
<trkpt lat="40.0740602" lon="-105.2297836">
  <ele>1583.0</ele>
  <time>2026-08-28T17:55:53Z</time>
  <course>179.03</course>
  <speed>3.13</speed>
  <fix>3d</fix>
</trkpt>
<trkpt lat="40.0740536" lon="-105.2297839">
  <ele>1583.01</ele>
  <time>2026-08-28T17:55:53Z</time>
  <course>179.88</course>
  <speed>3.33</speed>
  <fix>3d</fix>
</trkpt>
<trkpt lat="40.0740602" lon="-105.2297836">
  <ele>1583.0</ele>
  <time>2026-08-28T17:55:53Z</time>
  <course>179.03</course>
  <speed>3.13</speed>
  <fix>3d</fix>
</trkpt>
<trkpt lat="40.0740506" lon="-105.2297839">
  <ele>1583.01</ele>
  <time>2026-08-28T17:55:53Z</time>
  <course>179.87</course>
  <speed>3.42</speed>
  <fix>3d</fix>
</trkpt>
<trkpt lat="40.0740544" lon="-105.2297835">
  <ele>1583.0</ele>
  <time>2026-08-28T17:55:53Z</time>
  <course>179.03</course>
  <speed>3.31</speed>
  <fix>3d</fix>
</trkpt>
<trkpt lat="40.0740474" lon="-105.2297838">
  <ele>1583.02</ele>
  <time>2026-08-28T17:55:53Z</time>
  <course>179.86</course>
  <speed>3.51</speed>
  <fix>3d</fix>
</trkpt>
<trkpt lat="40.0740544" lon="-105.2297835">
  <ele>1583.0</ele>
  <time>2026-08-28T17:55:53Z</time>
  <course>179.03</course>
  <speed>3.31</speed>
  <fix>3d</fix>
</trkpt>
<trkpt lat="40.0740442" lon="-105.2297838">
  <ele>1583.02</ele>
  <time>2026-08-28T17:55:53Z</time>
  <course>179.87</course>
  <speed>3.6</speed>
  <fix>3d</fix>
</trkpt>
<trkpt lat="40.0740544" lon="-105.2297835">
  <ele>1583.0</ele>
  <time>2026-08-28T17:55:53Z</time>
  <course>179.03</course>
  <speed>3.31</speed>
  <fix>3d</fix>
</trkpt>
<trkpt lat="40.0740409" lon="-105.2297837">
  <ele>1583.02</ele>
  <time>2026-08-28T17:55:53Z</time>
  <course>179.89</course>
  <speed>3.69</speed>
  <fix>3d</fix>
</trkpt>
<trkpt lat="40.0740483" lon="-105.2297833">
  <ele>1583.0</ele>
  <time>2026-08-28T17:55:53Z</time>
  <course>179.04</course>
  <speed>3.49</speed>
  <fix>3d</fix>
</trkpt>
<trkpt lat="40.0740375" lon="-105.2297836">
  <ele>1583.02</ele>
  <time>2026-08-28T17:55:53Z</time>
  <course>179.89</course>
  <speed>3.7800132274900835</speed>
  <fix>3d</fix>
</trkpt>
<trkpt lat="40.0740483" lon="-105.2297833">
  <ele>1583.0</ele>
  <time>2026-08-28T17:55:53Z</time>
  <course>179.04</course>
  <speed>3.49</speed>
  <fix>3d</fix>
</trkpt>
<trkpt lat="40.0740341" lon="-105.2297835">
  <ele>1583.02</ele>
  <time>2026-08-28T17:55:53Z</time>
  <course>179.9</course>
  <speed>3.8700129198750743</speed>
  <fix>3d</fix>
</trkpt>
<trkpt lat="40.0740419" lon="-105.2297832">
  <ele>1583.0</ele>
  <time>2026-08-28T17:55:53Z</time>
  <course>179.07</course>
  <speed>3.67</speed>
  <fix>3d</fix>
</trkpt>
<trkpt lat="40.0740306" lon="-105.2297835">
  <ele>1583.02</ele>
  <time>2026-08-28T17:55:53Z</time>
  <course>179.93</course>
  <speed>3.960012626242497</speed>
  <fix>3d</fix>
</trkpt>
<trkpt lat="40.0740419" lon="-105.2297832">
  <ele>1583.0</ele>
  <time>2026-08-28T17:55:53Z</time>
  <course>179.07</course>
  <speed>3.67</speed>
  <fix>3d</fix>
</trkpt>
<trkpt lat="40.074027" lon="-105.2297834">
  <ele>1583.02</ele>
  <time>2026-08-28T17:55:53Z</time>
  <course>179.95</course>
  <speed>4.050012345660195</speed>
  <fix>3d</fix>
</trkpt>
<trkpt lat="40.0740351" lon="-105.229783">
  <ele>1583.0</ele>
  <time>2026-08-28T17:55:53Z</time>
  <course>179.11</course>
  <speed>3.85</speed>
  <fix>3d</fix>
</trkpt>
<trkpt lat="40.0740233" lon="-105.2297833">
  <ele>1583.02</ele>
  <time>2026-08-28T17:55:53Z</time>
  <course>179.96</course>
  <speed>4.14001207727707</speed>
  <fix>3d</fix>
</trkpt>
<trkpt lat="40.074028" lon="-105.2297829">
  <ele>1583.0</ele>
  <time>2026-08-28T17:55:53Z</time>
  <course>179.17</course>
  <speed>4.03</speed>
  <fix>3d</fix>
</trkpt>
<trkpt lat="40.0740196" lon="-105.2297833">
  <ele>1583.02</ele>
  <time>2026-08-28T17:55:53Z</time>
  <course>179.98</course>
  <speed>4.240011792436431</speed>
  <fix>3d</fix>
</trkpt>
<trkpt lat="40.074028" lon="-105.2297829">
  <ele>1583.0</ele>
  <time>2026-08-28T17:55:53Z</time>
  <course>179.17</course>
  <speed>4.03</speed>
  <fix>3d</fix>
</trkpt>
<trkpt lat="40.0740157" lon="-105.2297832">
  <ele>1583.02</ele>
  <time>2026-08-28T17:55:53Z</time>
  <course>179.99</course>
  <speed>4.340011520722036</speed>
  <fix>3d</fix>
</trkpt>
<trkpt lat="40.0740206" lon="-105.2297828">
  <ele>1583.0</ele>
  <time>2026-08-28T17:55:53Z</time>
  <course>179.22</course>
  <speed>4.22</speed>
  <fix>3d</fix>
</trkpt>
<trkpt lat="40.0740118" lon="-105.2297831">
  <ele>1583.01</ele>
  <time>2026-08-28T17:55:53Z</time>
  <course>180.03</course>
  <speed>4.440011261246981</speed>
  <fix>3d</fix>
</trkpt>
<trkpt lat="40.0740206" lon="-105.2297828">
  <ele>1583.0</ele>
  <time>2026-08-28T17:55:53Z</time>
  <course>179.22</course>
  <speed>4.22</speed>
  <fix>3d</fix>
</trkpt>
<trkpt lat="40.0740077" lon="-105.2297831">
  <ele>1583.01</ele>
  <time>2026-08-28T17:55:53Z</time>
  <course>180.04</course>
  <speed>4.540011013202501</speed>
  <fix>3d</fix>
</trkpt>
<trkpt lat="40.0740128" lon="-105.2297826">
  <ele>1583.0</ele>
  <time>2026-08-28T17:55:53Z</time>
  <course>179.27</course>
  <speed>4.42</speed>
  <fix>3d</fix>
</trkpt>
<trkpt lat="40.0740035" lon="-105.229783">
  <ele>1583.01</ele>
  <time>2026-08-28T17:55:53Z</time>
  <course>180.06</course>
  <speed>4.640010775849556</speed>
  <fix>3d</fix>
</trkpt>
<trkpt lat="40.0740128" lon="-105.2297826">
  <ele>1583.0</ele>
  <time>2026-08-28T17:55:53Z</time>
  <course>179.27</course>
  <speed>4.42</speed>
  <fix>3d</fix>
</trkpt>
<trkpt lat="40.0739993" lon="-105.2297829">
  <ele>1583.01</ele>
  <time>2026-08-28T17:55:53Z</time>
  <course>180.06</course>
  <speed>4.740010548511469</speed>
  <fix>3d</fix>
</trkpt>
<trkpt lat="40.0740047" lon="-105.2297825">
  <ele>1583.0</ele>
  <time>2026-08-28T17:55:53Z</time>
  <course>179.32</course>
  <speed>4.61</speed>
  <fix>3d</fix>
</trkpt>
<trkpt lat="40.0739949" lon="-105.2297828">
  <ele>1583.01</ele>
  <time>2026-08-28T17:55:53Z</time>
  <course>180.07</course>
  <speed>4.8400103305674875</speed>
  <fix>3d</fix>
</trkpt>
<trkpt lat="40.0740047" lon="-105.2297825">
  <ele>1583.0</ele>
  <time>2026-08-28T17:55:53Z</time>
  <course>179.32</course>
  <speed>4.61</speed>
  <fix>3d</fix>
</trkpt>
<trkpt lat="40.0739905" lon="-105.2297828">
  <ele>1583.0</ele>
  <time>2026-08-28T17:55:53Z</time>
  <course>180.09</course>
  <speed>4.940010121447121</speed>
  <fix>3d</fix>
</trkpt>
<trkpt lat="40.0739962" lon="-105.2297824">
  <ele>1583.0</ele>
  <time>2026-08-28T17:55:53Z</time>
  <course>179.36</course>
  <speed>4.81</speed>
  <fix>3d</fix>
</trkpt>
<trkpt lat="40.0739859" lon="-105.2297827">
  <ele>1583.0</ele>
  <time>2026-08-28T17:55:53Z</time>
  <course>180.11</course>
  <speed>5.040009920625157</speed>
  <fix>3d</fix>
</trkpt>
<trkpt lat="40.0739962" lon="-105.2297824">
  <ele>1583.0</ele>
  <time>2026-08-28T17:55:53Z</time>
  <course>179.36</course>
  <speed>4.81</speed>
  <fix>3d</fix>
</trkpt>
<trkpt lat="40.0739813" lon="-105.2297827">
  <ele>1583.0</ele>
  <time>2026-08-28T17:55:53Z</time>
  <course>180.12</course>
  <speed>5.140009727617254</speed>
  <fix>3d</fix>
</trkpt>
<trkpt lat="40.0739873" lon="-105.2297822">
  <ele>1583.0</ele>
  <time>2026-08-28T17:55:53Z</time>
  <course>179.4</course>
  <speed>5.01</speed>
  <fix>3d</fix>
</trkpt>
<trkpt lat="40.0739766" lon="-105.2297826">
  <ele>1583.0</ele>
  <time>2026-08-28T17:55:53Z</time>
  <course>180.12</course>
  <speed>5.240009541976045</speed>
  <fix>3d</fix>
</trkpt>
<trkpt lat="40.0739873" lon="-105.2297822">
  <ele>1583.0</ele>
  <time>2026-08-28T17:55:53Z</time>
  <course>179.4</course>
  <speed>5.01</speed>
  <fix>3d</fix>
</trkpt>
<trkpt lat="40.0739719" lon="-105.2297825">
  <ele>1583.0</ele>
  <time>2026-08-28T17:55:53Z</time>
  <course>180.15</course>
  <speed>5.330009380854785</speed>
  <fix>3d</fix>
</trkpt>
<trkpt lat="40.0739782" lon="-105.2297821">
  <ele>1583.0</ele>
  <time>2026-08-28T17:55:53Z</time>
  <course>179.44</course>
  <speed>5.2</speed>
  <fix>3d</fix>
</trkpt>
<trkpt lat="40.073967" lon="-105.2297824">
  <ele>1583.0</ele>
  <time>2026-08-28T17:55:53Z</time>
  <course>180.17</course>
  <speed>5.4200092250844</speed>
  <fix>3d</fix>
</trkpt>
<trkpt lat="40.0739782" lon="-105.2297821">
  <ele>1583.0</ele>
  <time>2026-08-28T17:55:53Z</time>
  <course>179.44</course>
  <speed>5.2</speed>
  <fix>3d</fix>
</trkpt>
<trkpt lat="40.0739621" lon="-105.2297824">
  <ele>1583.0</ele>
  <time>2026-08-28T17:55:53Z</time>
  <course>180.16</course>
  <speed>5.500009090901577</speed>
  <fix>3d</fix>
</trkpt>
<trkpt lat="40.0739782" lon="-105.2297821">
  <ele>1583.0</ele>
  <time>2026-08-28T17:55:53Z</time>
  <course>179.44</course>
  <speed>5.2</speed>
  <fix>3d</fix>
</trkpt>
<trkpt lat="40.0739571" lon="-105.2297823">
  <ele>1583.0</ele>
  <time>2026-08-28T17:55:53Z</time>
  <course>180.19</course>
  <speed>5.560008992798483</speed>
  <fix>3d</fix>
</trkpt>
<trkpt lat="40.0739687" lon="-105.229782">
  <ele>1583.0</ele>
  <time>2026-08-28T17:55:53Z</time>
  <course>179.47</course>
  <speed>5.38</speed>
  <fix>3d</fix>
</trkpt>
<trkpt lat="40.0739521" lon="-105.2297823">
  <ele>1583.0</ele>
  <time>2026-08-28T17:55:53Z</time>
  <course>180.21</course>
  <speed>5.62</speed>
  <fix>3d</fix>
</trkpt>
<trkpt lat="40.0739687" lon="-105.229782">
  <ele>1583.0</ele>
  <time>2026-08-28T17:55:53Z</time>
  <course>179.47</course>
  <speed>5.38</speed>
  <fix>3d</fix>
</trkpt>
<trkpt lat="40.0739471" lon="-105.2297822">
  <ele>1583.0</ele>
  <time>2026-08-28T17:55:53Z</time>
  <course>180.24</course>
  <speed>5.67</speed>
  <fix>3d</fix>
</trkpt>
<trkpt lat="40.0739588" lon="-105.2297819">
  <ele>1583.0</ele>
  <time>2026-08-28T17:55:53Z</time>
  <course>179.52</course>
  <speed>5.52</speed>
  <fix>3d</fix>
</trkpt>
<trkpt lat="40.073942" lon="-105.2297822">
  <ele>1583.0</ele>
  <time>2026-08-28T17:55:53Z</time>
  <course>180.27</course>
  <speed>5.71</speed>
  <fix>3d</fix>
</trkpt>
<trkpt lat="40.0739588" lon="-105.2297819">
  <ele>1583.0</ele>
  <time>2026-08-28T17:55:53Z</time>
  <course>179.52</course>
  <speed>5.52</speed>
  <fix>3d</fix>
</trkpt>
<trkpt lat="40.073937" lon="-105.2297821">
  <ele>1583.0</ele>
  <time>2026-08-28T17:55:53Z</time>
  <course>180.28</course>
  <speed>5.73</speed>
  <fix>3d</fix>
</trkpt>
<trkpt lat="40.0739488" lon="-105.2297818">
  <ele>1583.0</ele>
  <time>2026-08-28T17:55:53Z</time>
  <course>179.58</course>
  <speed>5.63</speed>
  <fix>3d</fix>
</trkpt>
<trkpt lat="40.0739318" lon="-105.2297821">
  <ele>1582.99</ele>
  <time>2026-08-28T17:55:53Z</time>
  <course>180.32</course>
  <speed>5.75</speed>
  <fix>3d</fix>
</trkpt>
<trkpt lat="40.0739488" lon="-105.2297818">
  <ele>1583.0</ele>
  <time>2026-08-28T17:55:53Z</time>
  <course>179.58</course>
  <speed>5.63</speed>
  <fix>3d</fix>
</trkpt>
<trkpt lat="40.0739267" lon="-105.229782">
  <ele>1582.99</ele>
  <time>2026-08-28T17:55:53Z</time>
  <course>180.34</course>
  <speed>5.75</speed>
  <fix>3d</fix>
</trkpt>
<trkpt lat="40.0739386" lon="-105.2297817">
  <ele>1583.0</ele>
  <time>2026-08-28T17:55:53Z</time>
  <course>179.64</course>
  <speed>5.7</speed>
  <fix>3d</fix>
</trkpt>
<trkpt lat="40.0739216" lon="-105.229782">
  <ele>1582.99</ele>
  <time>2026-08-28T17:55:53Z</time>
  <course>180.36</course>
  <speed>5.74</speed>
  <fix>3d</fix>
</trkpt>
<trkpt lat="40.0739283" lon="-105.2297816">
  <ele>1583.0</ele>
  <time>2026-08-28T17:55:53Z</time>
  <course>179.7</course>
  <speed>5.73</speed>
  <fix>3d</fix>
</trkpt>
<trkpt lat="40.0739164" lon="-105.2297819">
  <ele>1582.99</ele>
  <time>2026-08-28T17:55:53Z</time>
  <course>180.41</course>
  <speed>5.74</speed>
  <fix>3d</fix>
</trkpt>
<trkpt lat="40.0739283" lon="-105.2297816">
  <ele>1583.0</ele>
  <time>2026-08-28T17:55:53Z</time>
  <course>179.7</course>
  <speed>5.73</speed>
  <fix>3d</fix>
</trkpt>
<trkpt lat="40.0739113" lon="-105.2297819">
  <ele>1582.99</ele>
  <time>2026-08-28T17:55:53Z</time>
  <course>180.42</course>
  <speed>5.72</speed>
  <fix>3d</fix>
</trkpt>
<trkpt lat="40.073918" lon="-105.2297816">
  <ele>1583.0</ele>
  <time>2026-08-28T17:55:53Z</time>
  <course>179.75</course>
  <speed>5.72</speed>
  <fix>3d</fix>
</trkpt>
<trkpt lat="40.0739062" lon="-105.2297819">
  <ele>1582.99</ele>
  <time>2026-08-28T17:55:53Z</time>
  <course>180.45</course>
  <speed>5.7</speed>
  <fix>3d</fix>
</trkpt>
<trkpt lat="40.073918" lon="-105.2297816">
  <ele>1583.0</ele>
  <time>2026-08-28T17:55:53Z</time>
  <course>179.75</course>
  <speed>5.72</speed>
  <fix>3d</fix>
</trkpt>
<trkpt lat="40.0739011" lon="-105.2297818">
  <ele>1582.99</ele>
  <time>2026-08-28T17:55:53Z</time>
  <course>180.5</course>
  <speed>5.67</speed>
  <fix>3d</fix>
</trkpt>
<trkpt lat="40.0739078" lon="-105.2297816">
  <ele>1583.0</ele>
  <time>2026-08-28T17:55:53Z</time>
  <course>179.82</course>
  <speed>5.69</speed>
  <fix>3d</fix>
</trkpt>
<trkpt lat="40.073896" lon="-105.2297818">
  <ele>1582.99</ele>
  <time>2026-08-28T17:55:53Z</time>
  <course>180.5</course>
  <speed>5.65</speed>
  <fix>3d</fix>
</trkpt>
<trkpt lat="40.0739078" lon="-105.2297816">
  <ele>1583.0</ele>
  <time>2026-08-28T17:55:53Z</time>
  <course>179.82</course>
  <speed>5.69</speed>
  <fix>3d</fix>
</trkpt>
<trkpt lat="40.0738908" lon="-105.2297818">
  <ele>1582.99</ele>
  <time>2026-08-28T17:55:53Z</time>
  <course>180.54</course>
  <speed>5.620008896790112</speed>
  <fix>3d</fix>
</trkpt>
<trkpt lat="40.0738976" lon="-105.2297815">
  <ele>1583.0</ele>
  <time>2026-08-28T17:55:53Z</time>
  <course>179.88</course>
  <speed>5.64</speed>
  <fix>3d</fix>
</trkpt>
<trkpt lat="40.0738858" lon="-105.2297818">
  <ele>1582.99</ele>
  <time>2026-08-28T17:55:53Z</time>
  <course>180.57</course>
  <speed>5.590008944536672</speed>
  <fix>3d</fix>
</trkpt>
<trkpt lat="40.0738976" lon="-105.2297815">
  <ele>1583.0</ele>
  <time>2026-08-28T17:55:53Z</time>
  <course>179.88</course>
  <speed>5.64</speed>
  <fix>3d</fix>
</trkpt>
<trkpt lat="40.0738808" lon="-105.2297818">
  <ele>1582.99</ele>
  <time>2026-08-28T17:55:53Z</time>
  <course>180.57</course>
  <speed>5.5500090090016965</speed>
  <fix>3d</fix>
</trkpt>
<trkpt lat="40.0738876" lon="-105.2297815">
  <ele>1583.0</ele>
  <time>2026-08-28T17:55:53Z</time>
  <course>179.92</course>
  <speed>5.58</speed>
  <fix>3d</fix>
</trkpt>
<trkpt lat="40.0738758" lon="-105.2297818">
  <ele>1582.99</ele>
  <time>2026-08-28T17:55:53Z</time>
  <course>180.6</course>
  <speed>5.520009057963583</speed>
  <fix>3d</fix>
</trkpt>
<trkpt lat="40.0738876" lon="-105.2297815">
  <ele>1583.0</ele>
  <time>2026-08-28T17:55:53Z</time>
  <course>179.92</course>
  <speed>5.58</speed>
  <fix>3d</fix>
</trkpt>
<trkpt lat="40.0738708" lon="-105.2297818">
  <ele>1582.99</ele>
  <time>2026-08-28T17:55:53Z</time>
  <course>180.64</course>
  <speed>5.49000910746057</speed>
  <fix>3d</fix>
</trkpt>
<trkpt lat="40.0738776" lon="-105.2297815">
  <ele>1583.0</ele>
  <time>2026-08-28T17:55:53Z</time>
  <course>179.96</course>
  <speed>5.52</speed>
  <fix>3d</fix>
</trkpt>
<trkpt lat="40.0738659" lon="-105.2297817">
  <ele>1582.99</ele>
  <time>2026-08-28T17:55:53Z</time>
  <course>180.65</course>
  <speed>5.460009157501478</speed>
  <fix>3d</fix>
</trkpt>
<trkpt lat="40.0738776" lon="-105.2297815">
  <ele>1583.0</ele>
  <time>2026-08-28T17:55:53Z</time>
  <course>179.96</course>
  <speed>5.52</speed>
  <fix>3d</fix>
</trkpt>
<trkpt lat="40.073861" lon="-105.2297817">
  <ele>1582.99</ele>
  <time>2026-08-28T17:55:53Z</time>
  <course>180.67</course>
  <speed>5.430009208095323</speed>
  <fix>3d</fix>
</trkpt>
<trkpt lat="40.0738776" lon="-105.2297815">
  <ele>1583.0</ele>
  <time>2026-08-28T17:55:53Z</time>
  <course>179.96</course>
  <speed>5.52</speed>
  <fix>3d</fix>
</trkpt>
<trkpt lat="40.0738562" lon="-105.2297817">
  <ele>1582.99</ele>
  <time>2026-08-28T17:55:53Z</time>
  <course>180.7</course>
  <speed>5.400009259251322</speed>
  <fix>3d</fix>
</trkpt>
<trkpt lat="40.0738677" lon="-105.2297815">
  <ele>1583.0</ele>
  <time>2026-08-28T17:55:53Z</time>
  <course>180.01</course>
  <speed>5.46</speed>
  <fix>3d</fix>
</trkpt>
<trkpt lat="40.0738514" lon="-105.2297817">
  <ele>1582.98</ele>
  <time>2026-08-28T17:55:53Z</time>
  <course>180.7</course>
  <speed>5.380009293672271</speed>
  <fix>3d</fix>
</trkpt>
<trkpt lat="40.0738677" lon="-105.2297815">
  <ele>1583.0</ele>
  <time>2026-08-28T17:55:53Z</time>
  <course>180.01</course>
  <speed>5.46</speed>
  <fix>3d</fix>
</trkpt>
<trkpt lat="40.0738466" lon="-105.2297817">
  <ele>1582.98</ele>
  <time>2026-08-28T17:55:53Z</time>
  <course>180.72</course>
  <speed>5.360009328350092</speed>
  <fix>3d</fix>
</trkpt>
<trkpt lat="40.0738579" lon="-105.2297815">
  <ele>1583.0</ele>
  <time>2026-08-28T17:55:53Z</time>
  <course>180.04</course>
  <speed>5.41</speed>
  <fix>3d</fix>
</trkpt>
<trkpt lat="40.0738418" lon="-105.2297817">
  <ele>1582.98</ele>
  <time>2026-08-28T17:55:53Z</time>
  <course>180.75</course>
  <speed>5.340037453052179</speed>
  <fix>3d</fix>
</trkpt>
<trkpt lat="40.0738579" lon="-105.2297815">
  <ele>1583.0</ele>
  <time>2026-08-28T17:55:53Z</time>
  <course>180.04</course>
  <speed>5.41</speed>
  <fix>3d</fix>
</trkpt>
<trkpt lat="40.0738371" lon="-105.2297817">
  <ele>1582.98</ele>
  <time>2026-08-28T17:55:53Z</time>
  <course>180.76</course>
  <speed>5.320037593852134</speed>
  <fix>3d</fix>
</trkpt>
<trkpt lat="40.0738482" lon="-105.2297815">
  <ele>1583.0</ele>
  <time>2026-08-28T17:55:53Z</time>
  <course>180.08</course>
  <speed>5.37</speed>
  <fix>3d</fix>
</trkpt>
<trkpt lat="40.0738323" lon="-105.2297818">
  <ele>1582.98</ele>
  <time>2026-08-28T17:55:53Z</time>
  <course>180.77</course>
  <speed>5.310037664649847</speed>
  <fix>3d</fix>
</trkpt>
<trkpt lat="40.0738482" lon="-105.2297815">
  <ele>1583.0</ele>
  <time>2026-08-28T17:55:53Z</time>
  <course>180.08</course>
  <speed>5.37</speed>
  <fix>3d</fix>
</trkpt>
<trkpt lat="40.0738276" lon="-105.2297817">
  <ele>1582.98</ele>
  <time>2026-08-28T17:55:53Z</time>
  <course>180.79</course>
  <speed>5.300037735714718</speed>
  <fix>3d</fix>
</trkpt>
<trkpt lat="40.0738386" lon="-105.2297815">
  <ele>1583.0</ele>
  <time>2026-08-28T17:55:53Z</time>
  <course>180.1</course>
  <speed>5.34</speed>
  <fix>3d</fix>
</trkpt>
<trkpt lat="40.0738229" lon="-105.2297817">
  <ele>1582.98</ele>
  <time>2026-08-28T17:55:53Z</time>
  <course>180.79</course>
  <speed>5.300037735714718</speed>
  <fix>3d</fix>
</trkpt>
<trkpt lat="40.0738289" lon="-105.2297815">
  <ele>1583.0</ele>
  <time>2026-08-28T17:55:53Z</time>
  <course>180.12</course>
  <speed>5.33</speed>
  <fix>3d</fix>
</trkpt>
<trkpt lat="40.0738181" lon="-105.2297817">
  <ele>1582.97</ele>
  <time>2026-08-28T17:55:53Z</time>
  <course>180.81</course>
  <speed>5.300037735714718</speed>
  <fix>3d</fix>
</trkpt>
<trkpt lat="40.0738289" lon="-105.2297815">
  <ele>1583.0</ele>
  <time>2026-08-28T17:55:53Z</time>
  <course>180.12</course>
  <speed>5.33</speed>
  <fix>3d</fix>
</trkpt>
<trkpt lat="40.0738134" lon="-105.2297817">
  <ele>1582.97</ele>
  <time>2026-08-28T17:55:53Z</time>
  <course>180.83</course>
  <speed>5.300037735714718</speed>
  <fix>3d</fix>
</trkpt>
<trkpt lat="40.0738194" lon="-105.2297815">
  <ele>1583.0</ele>
  <time>2026-08-28T17:55:53Z</time>
  <course>180.14</course>
  <speed>5.33</speed>
  <fix>3d</fix>
</trkpt>
<trkpt lat="40.0738086" lon="-105.2297817">
  <ele>1582.97</ele>
  <time>2026-08-28T17:55:53Z</time>
  <course>180.83</course>
  <speed>5.300037735714718</speed>
  <fix>3d</fix>
</trkpt>
<trkpt lat="40.0738194" lon="-105.2297815">
  <ele>1583.0</ele>
  <time>2026-08-28T17:55:53Z</time>
  <course>180.14</course>
  <speed>5.33</speed>
  <fix>3d</fix>
</trkpt>
<trkpt lat="40.0738038" lon="-105.2297817">
  <ele>1582.97</ele>
  <time>2026-08-28T17:55:53Z</time>
  <course>180.85</course>
  <speed>5.310037664649847</speed>
  <fix>3d</fix>
</trkpt>
<trkpt lat="40.0738098" lon="-105.2297815">
  <ele>1583.0</ele>
  <time>2026-08-28T17:55:53Z</time>
  <course>180.16</course>
  <speed>5.34</speed>
  <fix>3d</fix>
</trkpt>
<trkpt lat="40.0737989" lon="-105.2297817">
  <ele>1582.97</ele>
  <time>2026-08-28T17:55:53Z</time>
  <course>180.85</course>
  <speed>5.320037593852134</speed>
  <fix>3d</fix>
</trkpt>
<trkpt lat="40.0738098" lon="-105.2297815">
  <ele>1583.0</ele>
  <time>2026-08-28T17:55:53Z</time>
  <course>180.16</course>
  <speed>5.34</speed>
  <fix>3d</fix>
</trkpt>
<trkpt lat="40.0737941" lon="-105.2297817">
  <ele>1582.97</ele>
  <time>2026-08-28T17:55:53Z</time>
  <course>180.87</course>
  <speed>5.330037523320075</speed>
  <fix>3d</fix>
</trkpt>
<trkpt lat="40.0738002" lon="-105.2297816">
  <ele>1583.0</ele>
  <time>2026-08-28T17:55:53Z</time>
  <course>180.18</course>
  <speed>5.35</speed>
  <fix>3d</fix>
</trkpt>
<trkpt lat="40.0737892" lon="-105.2297817">
  <ele>1582.97</ele>
  <time>2026-08-28T17:55:53Z</time>
  <course>180.87</course>
  <speed>5.340037453052179</speed>
  <fix>3d</fix>
</trkpt>
<trkpt lat="40.0738002" lon="-105.2297816">
  <ele>1583.0</ele>
  <time>2026-08-28T17:55:53Z</time>
  <course>180.18</course>
  <speed>5.35</speed>
  <fix>3d</fix>
</trkpt>
<trkpt lat="40.0737844" lon="-105.2297817">
  <ele>1582.98</ele>
  <time>2026-08-28T17:55:53Z</time>
  <course>180.89</course>
  <speed>5.350037383046963</speed>
  <fix>3d</fix>
</trkpt>
<trkpt lat="40.0737905" lon="-105.2297816">
  <ele>1583.0</ele>
  <time>2026-08-28T17:55:53Z</time>
  <course>180.19</course>
  <speed>5.37</speed>
  <fix>3d</fix>
</trkpt>
<trkpt lat="40.0737795" lon="-105.2297818">
  <ele>1582.98</ele>
  <time>2026-08-28T17:55:53Z</time>
  <course>180.89</course>
  <speed>5.360037313302959</speed>
  <fix>3d</fix>
</trkpt>
<trkpt lat="40.0737905" lon="-105.2297816">
  <ele>1583.0</ele>
  <time>2026-08-28T17:55:53Z</time>
  <course>180.19</course>
  <speed>5.37</speed>
  <fix>3d</fix>
</trkpt>
<trkpt lat="40.0737746" lon="-105.2297818">
  <ele>1582.98</ele>
  <time>2026-08-28T17:55:53Z</time>
  <course>180.9</course>
  <speed>5.370037243818706</speed>
  <fix>3d</fix>
</trkpt>
<trkpt lat="40.0737809" lon="-105.2297816">
  <ele>1583.0</ele>
  <time>2026-08-28T17:55:53Z</time>
  <course>180.2</course>
  <speed>5.38</speed>
  <fix>3d</fix>
</trkpt>
<trkpt lat="40.0737698" lon="-105.2297818">
  <ele>1582.98</ele>
  <time>2026-08-28T17:55:53Z</time>
  <course>180.9</course>
  <speed>5.370037243818706</speed>
  <fix>3d</fix>
</trkpt>
<trkpt lat="40.0737809" lon="-105.2297816">
  <ele>1583.0</ele>
  <time>2026-08-28T17:55:53Z</time>
  <course>180.2</course>
  <speed>5.38</speed>
  <fix>3d</fix>
</trkpt>
<trkpt lat="40.0737649" lon="-105.2297818">
  <ele>1582.98</ele>
  <time>2026-08-28T17:55:53Z</time>
  <course>180.9</course>
  <speed>5.380037174592755</speed>
  <fix>3d</fix>
</trkpt>
<trkpt lat="40.0737712" lon="-105.2297816">
  <ele>1583.0</ele>
  <time>2026-08-28T17:55:53Z</time>
  <course>180.2</course>
  <speed>5.4</speed>
  <fix>3d</fix>
</trkpt>
<trkpt lat="40.07376" lon="-105.2297818">
  <ele>1582.98</ele>
  <time>2026-08-28T17:55:53Z</time>
  <course>180.92</course>
  <speed>5.390037105623671</speed>
  <fix>3d</fix>
</trkpt>
<trkpt lat="40.0737712" lon="-105.2297816">
  <ele>1583.0</ele>
  <time>2026-08-28T17:55:53Z</time>
  <course>180.2</course>
  <speed>5.4</speed>
  <fix>3d</fix>
</trkpt>
<trkpt lat="40.0737551" lon="-105.2297818">
  <ele>1582.98</ele>
  <time>2026-08-28T17:55:53Z</time>
  <course>180.92</course>
  <speed>5.400037036910025</speed>
  <fix>3d</fix>
</trkpt>
<trkpt lat="40.0737712" lon="-105.2297816">
  <ele>1583.0</ele>
  <time>2026-08-28T17:55:53Z</time>
  <course>180.2</course>
  <speed>5.4</speed>
  <fix>3d</fix>
</trkpt>
<trkpt lat="40.0737502" lon="-105.2297819">
  <ele>1582.98</ele>
  <time>2026-08-28T17:55:53Z</time>
  <course>180.93</course>
  <speed>5.400037036910025</speed>
  <fix>3d</fix>
</trkpt>
<trkpt lat="40.0737614" lon="-105.2297817">
  <ele>1583.0</ele>
  <time>2026-08-28T17:55:53Z</time>
  <course>180.21</course>
  <speed>5.41</speed>
  <fix>3d</fix>
</trkpt>
<trkpt lat="40.0737454" lon="-105.2297819">
  <ele>1582.98</ele>
  <time>2026-08-28T17:55:53Z</time>
  <course>180.93</course>
  <speed>5.410036968450401</speed>
  <fix>3d</fix>
</trkpt>
<trkpt lat="40.0737614" lon="-105.2297817">
  <ele>1583.0</ele>
  <time>2026-08-28T17:55:53Z</time>
  <course>180.21</course>
  <speed>5.41</speed>
  <fix>3d</fix>
</trkpt>
<trkpt lat="40.0737405" lon="-105.2297819">
  <ele>1582.99</ele>
  <time>2026-08-28T17:55:53Z</time>
  <course>180.93</course>
  <speed>5.410036968450401</speed>
  <fix>3d</fix>
</trkpt>
<trkpt lat="40.0737517" lon="-105.2297818">
  <ele>1583.0</ele>
  <time>2026-08-28T17:55:53Z</time>
  <course>180.21</course>
  <speed>5.43</speed>
  <fix>3d</fix>
</trkpt>
<trkpt lat="40.0737357" lon="-105.2297819">
  <ele>1582.99</ele>
  <time>2026-08-28T17:55:53Z</time>
  <course>180.94</course>
  <speed>5.410083178658161</speed>
  <fix>3d</fix>
</trkpt>
<trkpt lat="40.0737517" lon="-105.2297818">
  <ele>1583.0</ele>
  <time>2026-08-28T17:55:53Z</time>
  <course>180.21</course>
  <speed>5.43</speed>
  <fix>3d</fix>
</trkpt>
<trkpt lat="40.0737309" lon="-105.2297819">
  <ele>1582.99</ele>
  <time>2026-08-28T17:55:53Z</time>
  <course>180.94</course>
  <speed>5.420083025194356</speed>
  <fix>3d</fix>
</trkpt>
<trkpt lat="40.0737419" lon="-105.2297818">
  <ele>1583.0</ele>
  <time>2026-08-28T17:55:53Z</time>
  <course>180.21</course>
  <speed>5.44</speed>
  <fix>3d</fix>
</trkpt>
<trkpt lat="40.073726" lon="-105.229782">
  <ele>1583.0</ele>
  <time>2026-08-28T17:55:53Z</time>
  <course>180.94</course>
  <speed>5.420083025194356</speed>
  <fix>3d</fix>
</trkpt>
<trkpt lat="40.0737321" lon="-105.2297818">
  <ele>1583.0</ele>
  <time>2026-08-28T17:55:53Z</time>
  <course>180.21</course>
  <speed>5.45</speed>
  <fix>3d</fix>
</trkpt>
<trkpt lat="40.0737211" lon="-105.229782">
  <ele>1583.0</ele>
  <time>2026-08-28T17:55:53Z</time>
  <course>180.96</course>
  <speed>5.420083025194356</speed>
  <fix>3d</fix>
</trkpt>
<trkpt lat="40.0737321" lon="-105.2297818">
  <ele>1583.0</ele>
  <time>2026-08-28T17:55:53Z</time>
  <course>180.21</course>
  <speed>5.45</speed>
  <fix>3d</fix>
</trkpt>
<trkpt lat="40.0737162" lon="-105.229782">
  <ele>1583.0</ele>
  <time>2026-08-28T17:55:53Z</time>
  <course>180.96</course>
  <speed>5.430082872295781</speed>
  <fix>3d</fix>
</trkpt>
<trkpt lat="40.0737224" lon="-105.2297819">
  <ele>1583.0</ele>
  <time>2026-08-28T17:55:53Z</time>
  <course>180.22</course>
  <speed>5.46</speed>
  <fix>3d</fix>
</trkpt>
<trkpt lat="40.0737113" lon="-105.229782">
  <ele>1583.0</ele>
  <time>2026-08-28T17:55:53Z</time>
  <course>180.97</course>
  <speed>5.430082872295781</speed>
  <fix>3d</fix>
</trkpt>
<trkpt lat="40.0737224" lon="-105.2297819">
  <ele>1583.0</ele>
  <time>2026-08-28T17:55:53Z</time>
  <course>180.22</course>
  <speed>5.46</speed>
  <fix>3d</fix>
</trkpt>
<trkpt lat="40.0737064" lon="-105.229782">
  <ele>1582.99</ele>
  <time>2026-08-28T17:55:53Z</time>
  <course>180.97</course>
  <speed>5.430082872295781</speed>
  <fix>3d</fix>
</trkpt>
<trkpt lat="40.0737126" lon="-105.229782">
  <ele>1583.0</ele>
  <time>2026-08-28T17:55:53Z</time>
  <course>180.23</course>
  <speed>5.46</speed>
  <fix>3d</fix>
</trkpt>
<trkpt lat="40.0737014" lon="-105.2297821">
  <ele>1582.99</ele>
  <time>2026-08-28T17:55:53Z</time>
  <course>180.97</course>
  <speed>5.440082719959321</speed>
  <fix>3d</fix>
</trkpt>
<trkpt lat="40.0737126" lon="-105.229782">
  <ele>1583.0</ele>
  <time>2026-08-28T17:55:53Z</time>
  <course>180.23</course>
  <speed>5.46</speed>
  <fix>3d</fix>
</trkpt>
<trkpt lat="40.0736965" lon="-105.2297821">
  <ele>1582.99</ele>
  <time>2026-08-28T17:55:53Z</time>
  <course>180.97</course>
  <speed>5.440082719959321</speed>
  <fix>3d</fix>
</trkpt>
<trkpt lat="40.0737028" lon="-105.229782">
  <ele>1583.0</ele>
  <time>2026-08-28T17:55:53Z</time>
  <course>180.23</course>
  <speed>5.47</speed>
  <fix>3d</fix>
</trkpt>
<trkpt lat="40.0736915" lon="-105.2297821">
  <ele>1582.99</ele>
  <time>2026-08-28T17:55:53Z</time>
  <course>180.97</course>
  <speed>5.440082719959321</speed>
  <fix>3d</fix>
</trkpt>
<trkpt lat="40.0737028" lon="-105.229782">
  <ele>1583.0</ele>
  <time>2026-08-28T17:55:53Z</time>
  <course>180.23</course>
  <speed>5.47</speed>
  <fix>3d</fix>
</trkpt>
<trkpt lat="40.0736866" lon="-105.2297822">
  <ele>1582.99</ele>
  <time>2026-08-28T17:55:53Z</time>
  <course>180.98</course>
  <speed>5.440082719959321</speed>
  <fix>3d</fix>
</trkpt>
<trkpt lat="40.0736929" lon="-105.2297821">
  <ele>1583.0</ele>
  <time>2026-08-28T17:55:53Z</time>
  <course>180.23</course>
  <speed>5.47</speed>
  <fix>3d</fix>
</trkpt>
<trkpt lat="40.0736816" lon="-105.2297822">
  <ele>1582.99</ele>
  <time>2026-08-28T17:55:53Z</time>
  <course>180.98</course>
  <speed>5.440082719959321</speed>
  <fix>3d</fix>
</trkpt>
<trkpt lat="40.0736929" lon="-105.2297821">
  <ele>1583.0</ele>
  <time>2026-08-28T17:55:53Z</time>
  <course>180.23</course>
  <speed>5.47</speed>
  <fix>3d</fix>
</trkpt>
<trkpt lat="40.0736767" lon="-105.2297822">
  <ele>1582.98</ele>
  <time>2026-08-28T17:55:53Z</time>
  <course>180.98</course>
  <speed>5.440082719959321</speed>
  <fix>3d</fix>
</trkpt>
<trkpt lat="40.073683" lon="-105.2297821">
  <ele>1583.0</ele>
  <time>2026-08-28T17:55:53Z</time>
  <course>180.23</course>
  <speed>5.47</speed>
  <fix>3d</fix>
</trkpt>
<trkpt lat="40.0736718" lon="-105.2297822">
  <ele>1582.98</ele>
  <time>2026-08-28T17:55:53Z</time>
  <course>180.98</course>
  <speed>5.440082719959321</speed>
  <fix>3d</fix>
</trkpt>
<trkpt lat="40.073683" lon="-105.2297821">
  <ele>1583.0</ele>
  <time>2026-08-28T17:55:53Z</time>
  <course>180.23</course>
  <speed>5.47</speed>
  <fix>3d</fix>
</trkpt>
<trkpt lat="40.0736668" lon="-105.2297823">
  <ele>1582.98</ele>
  <time>2026-08-28T17:55:53Z</time>
  <course>180.99</course>
  <speed>5.440082719959321</speed>
  <fix>3d</fix>
</trkpt>
<trkpt lat="40.0736732" lon="-105.2297821">
  <ele>1583.0</ele>
  <time>2026-08-28T17:55:53Z</time>
  <course>180.23</course>
  <speed>5.47</speed>
  <fix>3d</fix>
</trkpt>
<trkpt lat="40.0736619" lon="-105.2297823">
  <ele>1582.98</ele>
  <time>2026-08-28T17:55:53Z</time>
  <course>180.99</course>
  <speed>5.440082719959321</speed>
  <fix>3d</fix>
</trkpt>
<trkpt lat="40.0736732" lon="-105.2297821">
  <ele>1583.0</ele>
  <time>2026-08-28T17:55:53Z</time>
  <course>180.23</course>
  <speed>5.47</speed>
  <fix>3d</fix>
</trkpt>
<trkpt lat="40.073657" lon="-105.2297823">
  <ele>1582.98</ele>
  <time>2026-08-28T17:55:53Z</time>
  <course>180.99</course>
  <speed>5.440082719959321</speed>
  <fix>3d</fix>
</trkpt>
<trkpt lat="40.0736732" lon="-105.2297821">
  <ele>1583.0</ele>
  <time>2026-08-28T17:55:53Z</time>
  <course>180.23</course>
  <speed>5.47</speed>
  <fix>3d</fix>
</trkpt>
<trkpt lat="40.0736521" lon="-105.2297824">
  <ele>1582.98</ele>
  <time>2026-08-28T17:55:53Z</time>
  <course>180.99</course>
  <speed>5.440082719959321</speed>
  <fix>3d</fix>
</trkpt>
<trkpt lat="40.0736634" lon="-105.2297822">
  <ele>1583.0</ele>
  <time>2026-08-28T17:55:53Z</time>
  <course>180.23</course>
  <speed>5.46</speed>
  <fix>3d</fix>
</trkpt>
<trkpt lat="40.0736472" lon="-105.2297824">
  <ele>1582.98</ele>
  <time>2026-08-28T17:55:53Z</time>
  <course>181.0</course>
  <speed>5.430082872295781</speed>
  <fix>3d</fix>
</trkpt>
<trkpt lat="40.0736634" lon="-105.2297822">
  <ele>1583.0</ele>
  <time>2026-08-28T17:55:53Z</time>
  <course>180.23</course>
  <speed>5.46</speed>
  <fix>3d</fix>
</trkpt>
<trkpt lat="40.0736423" lon="-105.2297824">
  <ele>1582.99</ele>
  <time>2026-08-28T17:55:53Z</time>
  <course>181.0</course>
  <speed>5.430082872295781</speed>
  <fix>3d</fix>
</trkpt>
<trkpt lat="40.0736536" lon="-105.2297823">
  <ele>1583.0</ele>
  <time>2026-08-28T17:55:53Z</time>
  <course>180.23</course>
  <speed>5.46</speed>
  <fix>3d</fix>
</trkpt>
<trkpt lat="40.0736375" lon="-105.2297824">
  <ele>1582.99</ele>
  <time>2026-08-28T17:55:53Z</time>
  <course>181.0</course>
  <speed>5.430082872295781</speed>
  <fix>3d</fix>
</trkpt>
<trkpt lat="40.0736536" lon="-105.2297823">
  <ele>1583.0</ele>
  <time>2026-08-28T17:55:53Z</time>
  <course>180.23</course>
  <speed>5.46</speed>
  <fix>3d</fix>
</trkpt>
<trkpt lat="40.0736326" lon="-105.2297825">
  <ele>1583.0</ele>
  <time>2026-08-28T17:55:53Z</time>
  <course>181.0</course>
  <speed>5.420083025194356</speed>
  <fix>3d</fix>
</trkpt>
<trkpt lat="40.0736438" lon="-105.2297823">
  <ele>1583.0</ele>
  <time>2026-08-28T17:55:53Z</time>
  <course>180.23</course>
  <speed>5.46</speed>
  <fix>3d</fix>
</trkpt>
<trkpt lat="40.0736278" lon="-105.2297825">
  <ele>1583.0</ele>
  <time>2026-08-28T17:55:53Z</time>
  <course>181.0</course>
  <speed>5.420083025194356</speed>
  <fix>3d</fix>
</trkpt>
<trkpt lat="40.0736438" lon="-105.2297823">
  <ele>1583.0</ele>
  <time>2026-08-28T17:55:53Z</time>
  <course>180.23</course>
  <speed>5.46</speed>
  <fix>3d</fix>
</trkpt>
<trkpt lat="40.0736229" lon="-105.2297825">
  <ele>1583.0</ele>
  <time>2026-08-28T17:55:53Z</time>
  <course>181.01</course>
  <speed>5.420083025194356</speed>
  <fix>3d</fix>
</trkpt>
<trkpt lat="40.073634" lon="-105.2297823">
  <ele>1583.0</ele>
  <time>2026-08-28T17:55:53Z</time>
  <course>180.23</course>
  <speed>5.46</speed>
  <fix>3d</fix>
</trkpt>
<trkpt lat="40.073618" lon="-105.2297825">
  <ele>1583.0</ele>
  <time>2026-08-28T17:55:53Z</time>
  <course>181.01</course>
  <speed>5.420083025194356</speed>
  <fix>3d</fix>
</trkpt>
<trkpt lat="40.0736242" lon="-105.2297824">
  <ele>1583.0</ele>
  <time>2026-08-28T17:55:53Z</time>
  <course>180.23</course>
  <speed>5.46</speed>
  <fix>3d</fix>
</trkpt>
<trkpt lat="40.0736131" lon="-105.2297826">
  <ele>1583.0</ele>
  <time>2026-08-28T17:55:53Z</time>
  <course>181.01</course>
  <speed>5.420083025194356</speed>
  <fix>3d</fix>
</trkpt>
<trkpt lat="40.0736242" lon="-105.2297824">
  <ele>1583.0</ele>
  <time>2026-08-28T17:55:53Z</time>
  <course>180.23</course>
  <speed>5.46</speed>
  <fix>3d</fix>
</trkpt>
<trkpt lat="40.0736083" lon="-105.2297826">
  <ele>1583.0</ele>
  <time>2026-08-28T17:55:53Z</time>
  <course>181.01</course>
  <speed>5.420083025194356</speed>
  <fix>3d</fix>
</trkpt>
<trkpt lat="40.0736143" lon="-105.2297825">
  <ele>1583.0</ele>
  <time>2026-08-28T17:55:53Z</time>
  <course>180.23</course>
  <speed>5.46</speed>
  <fix>3d</fix>
</trkpt>
<trkpt lat="40.0736034" lon="-105.2297826">
  <ele>1583.0</ele>
  <time>2026-08-28T17:55:53Z</time>
  <course>181.01</course>
  <speed>5.430082872295781</speed>
  <fix>3d</fix>
</trkpt>
<trkpt lat="40.0736143" lon="-105.2297825">
  <ele>1583.0</ele>
  <time>2026-08-28T17:55:53Z</time>
  <course>180.23</course>
  <speed>5.46</speed>
  <fix>3d</fix>
</trkpt>
<trkpt lat="40.0735984" lon="-105.2297827">
  <ele>1583.0</ele>
  <time>2026-08-28T17:55:53Z</time>
  <course>181.02</course>
  <speed>5.430082872295781</speed>
  <fix>3d</fix>
</trkpt>
<trkpt lat="40.0736045" lon="-105.2297825">
  <ele>1583.0</ele>
  <time>2026-08-28T17:55:53Z</time>
  <course>180.23</course>
  <speed>5.47</speed>
  <fix>3d</fix>
</trkpt>
<trkpt lat="40.0735935" lon="-105.2297827">
  <ele>1583.0</ele>
  <time>2026-08-28T17:55:53Z</time>
  <course>181.02</course>
  <speed>5.440082719959321</speed>
  <fix>3d</fix>
</trkpt>
<trkpt lat="40.0736045" lon="-105.2297825">
  <ele>1583.0</ele>
  <time>2026-08-28T17:55:53Z</time>
  <course>180.23</course>
  <speed>5.47</speed>
  <fix>3d</fix>
</trkpt>
<trkpt lat="40.0735885" lon="-105.2297827">
  <ele>1583.0</ele>
  <time>2026-08-28T17:55:53Z</time>
  <course>181.02</course>
  <speed>5.440082719959321</speed>
  <fix>3d</fix>
</trkpt>
<trkpt lat="40.0735947" lon="-105.2297825">
  <ele>1583.0</ele>
  <time>2026-08-28T17:55:53Z</time>
  <course>180.23</course>
  <speed>5.47</speed>
  <fix>3d</fix>
</trkpt>
<trkpt lat="40.0735835" lon="-105.2297827">
  <ele>1583.0</ele>
  <time>2026-08-28T17:55:53Z</time>
  <course>181.02</course>
  <speed>5.440082719959321</speed>
  <fix>3d</fix>
</trkpt>
<trkpt lat="40.0735947" lon="-105.2297825">
  <ele>1583.0</ele>
  <time>2026-08-28T17:55:53Z</time>
  <course>180.23</course>
  <speed>5.47</speed>
  <fix>3d</fix>
</trkpt>
<trkpt lat="40.0735786" lon="-105.2297828">
  <ele>1582.99</ele>
  <time>2026-08-28T17:55:53Z</time>
  <course>181.02</course>
  <speed>5.440082719959321</speed>
  <fix>3d</fix>
</trkpt>
<trkpt lat="40.0735849" lon="-105.2297826">
  <ele>1583.0</ele>
  <time>2026-08-28T17:55:53Z</time>
  <course>180.23</course>
  <speed>5.47</speed>
  <fix>3d</fix>
</trkpt>
<trkpt lat="40.0735736" lon="-105.2297828">
  <ele>1582.99</ele>
  <time>2026-08-28T17:55:53Z</time>
  <course>181.02</course>
  <speed>5.440082719959321</speed>
  <fix>3d</fix>
</trkpt>
<trkpt lat="40.0735849" lon="-105.2297826">
  <ele>1583.0</ele>
  <time>2026-08-28T17:55:53Z</time>
  <course>180.23</course>
  <speed>5.47</speed>
  <fix>3d</fix>
</trkpt>
<trkpt lat="40.0735687" lon="-105.2297828">
  <ele>1582.99</ele>
  <time>2026-08-28T17:55:53Z</time>
  <course>181.03</course>
  <speed>5.450146787014089</speed>
  <fix>3d</fix>
</trkpt>
<trkpt lat="40.073575" lon="-105.2297827">
  <ele>1583.0</ele>
  <time>2026-08-28T17:55:53Z</time>
  <course>180.23</course>
  <speed>5.47</speed>
  <fix>3d</fix>
</trkpt>
<trkpt lat="40.0735637" lon="-105.2297828">
  <ele>1583.0</ele>
  <time>2026-08-28T17:55:53Z</time>
  <course>181.03</course>
  <speed>5.450146787014089</speed>
  <fix>3d</fix>
</trkpt>
<trkpt lat="40.073575" lon="-105.2297827">
  <ele>1583.0</ele>
  <time>2026-08-28T17:55:53Z</time>
  <course>180.23</course>
  <speed>5.47</speed>
  <fix>3d</fix>
</trkpt>
<trkpt lat="40.0735588" lon="-105.2297829">
  <ele>1583.0</ele>
  <time>2026-08-28T17:55:53Z</time>
  <course>181.03</course>
  <speed>5.450146787014089</speed>
  <fix>3d</fix>
</trkpt>
<trkpt lat="40.0735652" lon="-105.2297828">
  <ele>1583.0</ele>
  <time>2026-08-28T17:55:53Z</time>
  <course>180.23</course>
  <speed>5.47</speed>
  <fix>3d</fix>
</trkpt>
<trkpt lat="40.0735539" lon="-105.2297829">
  <ele>1582.99</ele>
  <time>2026-08-28T17:55:53Z</time>
  <course>181.03</course>
  <speed>5.450146787014089</speed>
  <fix>3d</fix>
</trkpt>
<trkpt lat="40.0735652" lon="-105.2297828">
  <ele>1583.0</ele>
  <time>2026-08-28T17:55:53Z</time>
  <course>180.23</course>
  <speed>5.47</speed>
  <fix>3d</fix>
</trkpt>
<trkpt lat="40.0735489" lon="-105.2297829">
  <ele>1582.99</ele>
  <time>2026-08-28T17:55:53Z</time>
  <course>181.03</course>
  <speed>5.450146787014089</speed>
  <fix>3d</fix>
</trkpt>
<trkpt lat="40.0735652" lon="-105.2297828">
  <ele>1583.0</ele>
  <time>2026-08-28T17:55:53Z</time>
  <course>180.23</course>
  <speed>5.47</speed>
  <fix>3d</fix>
</trkpt>
<trkpt lat="40.073544" lon="-105.229783">
  <ele>1582.99</ele>
  <time>2026-08-28T17:55:53Z</time>
  <course>181.03</course>
  <speed>5.440147056835872</speed>
  <fix>3d</fix>
</trkpt>
<trkpt lat="40.0735553" lon="-105.2297828">
  <ele>1583.0</ele>
  <time>2026-08-28T17:55:53Z</time>
  <course>180.23</course>
  <speed>5.47</speed>
  <fix>3d</fix>
</trkpt>
<trkpt lat="40.0735391" lon="-105.229783">
  <ele>1582.99</ele>
  <time>2026-08-28T17:55:53Z</time>
  <course>181.03</course>
  <speed>5.440147056835872</speed>
  <fix>3d</fix>
</trkpt>
<trkpt lat="40.0735553" lon="-105.2297828">
  <ele>1583.0</ele>
  <time>2026-08-28T17:55:53Z</time>
  <course>180.23</course>
  <speed>5.47</speed>
  <fix>3d</fix>
</trkpt>
<trkpt lat="40.0735343" lon="-105.229783">
  <ele>1582.99</ele>
  <time>2026-08-28T17:55:53Z</time>
  <course>181.03</course>
  <speed>5.440147056835872</speed>
  <fix>3d</fix>
</trkpt>
<trkpt lat="40.0735454" lon="-105.2297828">
  <ele>1583.0</ele>
  <time>2026-08-28T17:55:53Z</time>
  <course>180.23</course>
  <speed>5.46</speed>
  <fix>3d</fix>
</trkpt>
<trkpt lat="40.0735294" lon="-105.2297831">
  <ele>1582.99</ele>
  <time>2026-08-28T17:55:53Z</time>
  <course>181.04</course>
  <speed>5.440147056835872</speed>
  <fix>3d</fix>
</trkpt>
<trkpt lat="40.0735454" lon="-105.2297828">
  <ele>1583.0</ele>
  <time>2026-08-28T17:55:53Z</time>
  <course>180.23</course>
  <speed>5.46</speed>
  <fix>3d</fix>
</trkpt>
<trkpt lat="40.0735245" lon="-105.2297831">
  <ele>1583.0</ele>
  <time>2026-08-28T17:55:53Z</time>
  <course>181.04</course>
  <speed>5.440147056835872</speed>
  <fix>3d</fix>
</trkpt>
<trkpt lat="40.0735357" lon="-105.2297829">
  <ele>1583.0</ele>
  <time>2026-08-28T17:55:53Z</time>
  <course>180.23</course>
  <speed>5.46</speed>
  <fix>3d</fix>
</trkpt>
<trkpt lat="40.0735196" lon="-105.2297831">
  <ele>1583.0</ele>
  <time>2026-08-28T17:55:53Z</time>
  <course>181.04</course>
  <speed>5.430147327651433</speed>
  <fix>3d</fix>
</trkpt>
<trkpt lat="40.0735259" lon="-105.229783">
  <ele>1583.0</ele>
  <time>2026-08-28T17:55:53Z</time>
  <course>180.23</course>
  <speed>5.46</speed>
  <fix>3d</fix>
</trkpt>
<trkpt lat="40.0735147" lon="-105.2297832">
  <ele>1583.0</ele>
  <time>2026-08-28T17:55:53Z</time>
  <course>181.04</course>
  <speed>5.430147327651433</speed>
  <fix>3d</fix>
</trkpt>
<trkpt lat="40.0735259" lon="-105.229783">
  <ele>1583.0</ele>
  <time>2026-08-28T17:55:53Z</time>
  <course>180.23</course>
  <speed>5.46</speed>
  <fix>3d</fix>
</trkpt>
<trkpt lat="40.0735098" lon="-105.2297832">
  <ele>1583.0</ele>
  <time>2026-08-28T17:55:53Z</time>
  <course>181.04</course>
  <speed>5.440147056835872</speed>
  <fix>3d</fix>
</trkpt>
<trkpt lat="40.0735161" lon="-105.229783">
  <ele>1583.0</ele>
  <time>2026-08-28T17:55:53Z</time>
  <course>180.23</course>
  <speed>5.46</speed>
  <fix>3d</fix>
</trkpt>
<trkpt lat="40.0735049" lon="-105.2297832">
  <ele>1583.01</ele>
  <time>2026-08-28T17:55:53Z</time>
  <course>181.04</course>
  <speed>5.440147056835872</speed>
  <fix>3d</fix>
</trkpt>
<trkpt lat="40.0735161" lon="-105.229783">
  <ele>1583.0</ele>
  <time>2026-08-28T17:55:53Z</time>
  <course>180.23</course>
  <speed>5.46</speed>
  <fix>3d</fix>
</trkpt>
<trkpt lat="40.0735" lon="-105.2297832">
  <ele>1583.01</ele>
  <time>2026-08-28T17:55:53Z</time>
  <course>181.04</course>
  <speed>5.440147056835872</speed>
  <fix>3d</fix>
</trkpt>
<trkpt lat="40.0735062" lon="-105.229783">
  <ele>1583.0</ele>
  <time>2026-08-28T17:55:53Z</time>
  <course>180.23</course>
  <speed>5.47</speed>
  <fix>3d</fix>
</trkpt>
<trkpt lat="40.0734951" lon="-105.2297833">
  <ele>1583.0</ele>
  <time>2026-08-28T17:55:53Z</time>
  <course>181.04</course>
  <speed>5.440147056835872</speed>
  <fix>3d</fix>
</trkpt>
<trkpt lat="40.0735062" lon="-105.229783">
  <ele>1583.0</ele>
  <time>2026-08-28T17:55:53Z</time>
  <course>180.23</course>
  <speed>5.47</speed>
  <fix>3d</fix>
</trkpt>
<trkpt lat="40.0734901" lon="-105.2297833">
  <ele>1583.01</ele>
  <time>2026-08-28T17:55:53Z</time>
  <course>181.04</course>
  <speed>5.450146787014089</speed>
  <fix>3d</fix>
</trkpt>
<trkpt lat="40.0734963" lon="-105.2297831">
  <ele>1583.0</ele>
  <time>2026-08-28T17:55:53Z</time>
  <course>180.23</course>
  <speed>5.47</speed>
  <fix>3d</fix>
</trkpt>
<trkpt lat="40.0734851" lon="-105.2297833">
  <ele>1583.01</ele>
  <time>2026-08-28T17:55:53Z</time>
  <course>181.04</course>
  <speed>5.450146787014089</speed>
  <fix>3d</fix>
</trkpt>
<trkpt lat="40.0734963" lon="-105.2297831">
  <ele>1583.0</ele>
  <time>2026-08-28T17:55:53Z</time>
  <course>180.23</course>
  <speed>5.47</speed>
  <fix>3d</fix>
</trkpt>
<trkpt lat="40.0734802" lon="-105.2297834">
  <ele>1583.01</ele>
  <time>2026-08-28T17:55:53Z</time>
  <course>181.05</course>
  <speed>5.450146787014089</speed>
  <fix>3d</fix>
</trkpt>
<trkpt lat="40.0734865" lon="-105.2297832">
  <ele>1583.0</ele>
  <time>2026-08-28T17:55:53Z</time>
  <course>180.23</course>
  <speed>5.47</speed>
  <fix>3d</fix>
</trkpt>
<trkpt lat="40.0734752" lon="-105.2297834">
  <ele>1583.01</ele>
  <time>2026-08-28T17:55:53Z</time>
  <course>181.05</course>
  <speed>5.450146787014089</speed>
  <fix>3d</fix>
</trkpt>
<trkpt lat="40.0734865" lon="-105.2297832">
  <ele>1583.0</ele>
  <time>2026-08-28T17:55:53Z</time>
  <course>180.23</course>
  <speed>5.47</speed>
  <fix>3d</fix>
</trkpt>
<trkpt lat="40.0734703" lon="-105.2297834">
  <ele>1583.01</ele>
  <time>2026-08-28T17:55:53Z</time>
  <course>181.05</course>
  <speed>5.450146787014089</speed>
  <fix>3d</fix>
</trkpt>
<trkpt lat="40.0734767" lon="-105.2297832">
  <ele>1583.0</ele>
  <time>2026-08-28T17:55:53Z</time>
  <course>180.23</course>
  <speed>5.47</speed>
  <fix>3d</fix>
</trkpt>
<trkpt lat="40.0734653" lon="-105.2297834">
  <ele>1583.01</ele>
  <time>2026-08-28T17:55:53Z</time>
  <course>181.05</course>
  <speed>5.450146787014089</speed>
  <fix>3d</fix>
</trkpt>
<trkpt lat="40.0734767" lon="-105.2297832">
  <ele>1583.0</ele>
  <time>2026-08-28T17:55:53Z</time>
  <course>180.23</course>
  <speed>5.47</speed>
  <fix>3d</fix>
</trkpt>
<trkpt lat="40.0734604" lon="-105.2297835">
  <ele>1583.01</ele>
  <time>2026-08-28T17:55:53Z</time>
  <course>181.05</course>
  <speed>5.450146787014089</speed>
  <fix>3d</fix>
</trkpt>
<trkpt lat="40.0734669" lon="-105.2297832">
  <ele>1583.0</ele>
  <time>2026-08-28T17:55:53Z</time>
  <course>180.23</course>
  <speed>5.47</speed>
  <fix>3d</fix>
</trkpt>
<trkpt lat="40.0734555" lon="-105.2297835">
  <ele>1583.01</ele>
  <time>2026-08-28T17:55:53Z</time>
  <course>181.05</course>
  <speed>5.450146787014089</speed>
  <fix>3d</fix>
</trkpt>
<trkpt lat="40.0734669" lon="-105.2297832">
  <ele>1583.0</ele>
  <time>2026-08-28T17:55:53Z</time>
  <course>180.23</course>
  <speed>5.47</speed>
  <fix>3d</fix>
</trkpt>
<trkpt lat="40.0734505" lon="-105.2297835">
  <ele>1583.01</ele>
  <time>2026-08-28T17:55:53Z</time>
  <course>181.05</course>
  <speed>5.450146787014089</speed>
  <fix>3d</fix>
</trkpt>
<trkpt lat="40.0734669" lon="-105.2297832">
  <ele>1583.0</ele>
  <time>2026-08-28T17:55:53Z</time>
  <course>180.23</course>
  <speed>5.47</speed>
  <fix>3d</fix>
</trkpt>
<trkpt lat="40.0734456" lon="-105.2297835">
  <ele>1583.01</ele>
  <time>2026-08-28T17:55:53Z</time>
  <course>181.05</course>
  <speed>5.450146787014089</speed>
  <fix>3d</fix>
</trkpt>
<trkpt lat="40.073457" lon="-105.2297833">
  <ele>1583.0</ele>
  <time>2026-08-28T17:55:53Z</time>
  <course>180.23</course>
  <speed>5.47</speed>
  <fix>3d</fix>
</trkpt>
<trkpt lat="40.0734407" lon="-105.2297836">
  <ele>1583.01</ele>
  <time>2026-08-28T17:55:53Z</time>
  <course>181.05</course>
  <speed>5.450146787014089</speed>
  <fix>3d</fix>
</trkpt>
<trkpt lat="40.073457" lon="-105.2297833">
  <ele>1583.0</ele>
  <time>2026-08-28T17:55:53Z</time>
  <course>180.23</course>
  <speed>5.47</speed>
  <fix>3d</fix>
</trkpt>
<trkpt lat="40.0734359" lon="-105.2297836">
  <ele>1583.01</ele>
  <time>2026-08-28T17:55:53Z</time>
  <course>181.05</course>
  <speed>5.450146787014089</speed>
  <fix>3d</fix>
</trkpt>
<trkpt lat="40.0734471" lon="-105.2297834">
  <ele>1583.0</ele>
  <time>2026-08-28T17:55:53Z</time>
  <course>180.23</course>
  <speed>5.46</speed>
  <fix>3d</fix>
</trkpt>
<trkpt lat="40.073431" lon="-105.2297836">
  <ele>1583.02</ele>
  <time>2026-08-28T17:55:53Z</time>
  <course>181.05</course>
  <speed>5.440147056835872</speed>
  <fix>3d</fix>
</trkpt>
<trkpt lat="40.0734471" lon="-105.2297834">
  <ele>1583.0</ele>
  <time>2026-08-28T17:55:53Z</time>
  <course>180.23</course>
  <speed>5.46</speed>
  <fix>3d</fix>
</trkpt>
<trkpt lat="40.0734261" lon="-105.2297837">
  <ele>1583.02</ele>
  <time>2026-08-28T17:55:53Z</time>
  <course>181.05</course>
  <speed>5.440147056835872</speed>
  <fix>3d</fix>
</trkpt>
<trkpt lat="40.0734373" lon="-105.2297834">
  <ele>1583.0</ele>
  <time>2026-08-28T17:55:53Z</time>
  <course>180.23</course>
  <speed>5.46</speed>
  <fix>3d</fix>
</trkpt>
<trkpt lat="40.0734213" lon="-105.2297837">
  <ele>1583.02</ele>
  <time>2026-08-28T17:55:53Z</time>
  <course>181.05</course>
  <speed>5.440147056835872</speed>
  <fix>3d</fix>
</trkpt>
<trkpt lat="40.0734373" lon="-105.2297834">
  <ele>1583.0</ele>
  <time>2026-08-28T17:55:53Z</time>
  <course>180.23</course>
  <speed>5.46</speed>
  <fix>3d</fix>
</trkpt>
<trkpt lat="40.0734164" lon="-105.2297837">
  <ele>1583.03</ele>
  <time>2026-08-28T17:55:53Z</time>
  <course>181.05</course>
  <speed>5.440147056835872</speed>
  <fix>3d</fix>
</trkpt>
<trkpt lat="40.0734275" lon="-105.2297835">
  <ele>1583.0</ele>
  <time>2026-08-28T17:55:53Z</time>
  <course>180.23</course>
  <speed>5.47</speed>
  <fix>3d</fix>
</trkpt>
<trkpt lat="40.0734115" lon="-105.2297837">
  <ele>1583.03</ele>
  <time>2026-08-28T17:55:53Z</time>
  <course>181.05</course>
  <speed>5.440147056835872</speed>
  <fix>3d</fix>
</trkpt>
<trkpt lat="40.0734177" lon="-105.2297835">
  <ele>1583.0</ele>
  <time>2026-08-28T17:55:53Z</time>
  <course>180.23</course>
  <speed>5.47</speed>
  <fix>3d</fix>
</trkpt>
<trkpt lat="40.0734066" lon="-105.2297838">
  <ele>1583.03</ele>
  <time>2026-08-28T17:55:53Z</time>
  <course>181.05</course>
  <speed>5.440147056835872</speed>
  <fix>3d</fix>
</trkpt>
<trkpt lat="40.0734177" lon="-105.2297835">
  <ele>1583.0</ele>
  <time>2026-08-28T17:55:53Z</time>
  <course>180.23</course>
  <speed>5.47</speed>
  <fix>3d</fix>
</trkpt>
<trkpt lat="40.0734017" lon="-105.2297838">
  <ele>1583.03</ele>
  <time>2026-08-28T17:55:53Z</time>
  <course>181.05</course>
  <speed>5.450146787014089</speed>
  <fix>3d</fix>
</trkpt>
<trkpt lat="40.0734079" lon="-105.2297835">
  <ele>1583.0</ele>
  <time>2026-08-28T17:55:53Z</time>
  <course>180.23</course>
  <speed>5.47</speed>
  <fix>3d</fix>
</trkpt>
<trkpt lat="40.0733968" lon="-105.2297838">
  <ele>1583.03</ele>
  <time>2026-08-28T17:55:53Z</time>
  <course>181.05</course>
  <speed>5.450146787014089</speed>
  <fix>3d</fix>
</trkpt>
<trkpt lat="40.0734079" lon="-105.2297835">
  <ele>1583.0</ele>
  <time>2026-08-28T17:55:53Z</time>
  <course>180.23</course>
  <speed>5.47</speed>
  <fix>3d</fix>
</trkpt>
<trkpt lat="40.0733918" lon="-105.2297838">
  <ele>1583.03</ele>
  <time>2026-08-28T17:55:53Z</time>
  <course>181.05</course>
  <speed>5.450146787014089</speed>
  <fix>3d</fix>
</trkpt>
<trkpt lat="40.073398" lon="-105.2297836">
  <ele>1583.0</ele>
  <time>2026-08-28T17:55:53Z</time>
  <course>180.23</course>
  <speed>5.48</speed>
  <fix>3d</fix>
</trkpt>
<trkpt lat="40.0733869" lon="-105.2297839">
  <ele>1583.02</ele>
  <time>2026-08-28T17:55:53Z</time>
  <course>181.05</course>
  <speed>5.460146518180625</speed>
  <fix>3d</fix>
</trkpt>
<trkpt lat="40.073398" lon="-105.2297836">
  <ele>1583.0</ele>
  <time>2026-08-28T17:55:53Z</time>
  <course>180.23</course>
  <speed>5.48</speed>
  <fix>3d</fix>
</trkpt>
<trkpt lat="40.0733819" lon="-105.2297839">
  <ele>1583.02</ele>
  <time>2026-08-28T17:55:53Z</time>
  <course>181.05</course>
  <speed>5.460146518180625</speed>
  <fix>3d</fix>
</trkpt>
<trkpt lat="40.0733881" lon="-105.2297837">
  <ele>1583.0</ele>
  <time>2026-08-28T17:55:53Z</time>
  <course>180.23</course>
  <speed>5.48</speed>
  <fix>3d</fix>
</trkpt>
<trkpt lat="40.0733769" lon="-105.2297839">
  <ele>1583.02</ele>
  <time>2026-08-28T17:55:53Z</time>
  <course>181.05</course>
  <speed>5.460146518180625</speed>
  <fix>3d</fix>
</trkpt>
<trkpt lat="40.0733881" lon="-105.2297837">
  <ele>1583.0</ele>
  <time>2026-08-28T17:55:53Z</time>
  <course>180.23</course>
  <speed>5.48</speed>
  <fix>3d</fix>
</trkpt>
<trkpt lat="40.073372" lon="-105.2297839">
  <ele>1583.03</ele>
  <time>2026-08-28T17:55:53Z</time>
  <course>181.05</course>
  <speed>5.460146518180625</speed>
  <fix>3d</fix>
</trkpt>
<trkpt lat="40.0733783" lon="-105.2297837">
  <ele>1583.0</ele>
  <time>2026-08-28T17:55:53Z</time>
  <course>180.23</course>
  <speed>5.48</speed>
  <fix>3d</fix>
</trkpt>
<trkpt lat="40.073367" lon="-105.229784">
  <ele>1583.03</ele>
  <time>2026-08-28T17:55:53Z</time>
  <course>181.06</course>
  <speed>5.470146250330058</speed>
  <fix>3d</fix>
</trkpt>
<trkpt lat="40.0733783" lon="-105.2297837">
  <ele>1583.0</ele>
  <time>2026-08-28T17:55:53Z</time>
  <course>180.23</course>
  <speed>5.48</speed>
  <fix>3d</fix>
</trkpt>
<trkpt lat="40.073362" lon="-105.229784">
  <ele>1583.03</ele>
  <time>2026-08-28T17:55:53Z</time>
  <course>181.06</course>
  <speed>5.470146250330058</speed>
  <fix>3d</fix>
</trkpt>
<trkpt lat="40.0733685" lon="-105.2297837">
  <ele>1583.0</ele>
  <time>2026-08-28T17:55:53Z</time>
  <course>180.23</course>
  <speed>5.48</speed>
  <fix>3d</fix>
</trkpt>
<trkpt lat="40.0733571" lon="-105.229784">
  <ele>1583.04</ele>
  <time>2026-08-28T17:55:53Z</time>
  <course>181.06</course>
  <speed>5.470146250330058</speed>
  <fix>3d</fix>
</trkpt>
<trkpt lat="40.0733685" lon="-105.2297837">
  <ele>1583.0</ele>
  <time>2026-08-28T17:55:53Z</time>
  <course>180.23</course>
  <speed>5.48</speed>
  <fix>3d</fix>
</trkpt>
<trkpt lat="40.0733521" lon="-105.229784">
  <ele>1583.04</ele>
  <time>2026-08-28T17:55:53Z</time>
  <course>181.06</course>
  <speed>5.470146250330058</speed>
  <fix>3d</fix>
</trkpt>
<trkpt lat="40.0733586" lon="-105.2297838">
  <ele>1583.0</ele>
  <time>2026-08-28T17:55:53Z</time>
  <course>180.23</course>
  <speed>5.48</speed>
  <fix>3d</fix>
</trkpt>
<trkpt lat="40.0733472" lon="-105.2297841">
  <ele>1583.04</ele>
  <time>2026-08-28T17:55:53Z</time>
  <course>181.06</course>
  <speed>5.470146250330058</speed>
  <fix>3d</fix>
</trkpt>
<trkpt lat="40.0733586" lon="-105.2297838">
  <ele>1583.0</ele>
  <time>2026-08-28T17:55:53Z</time>
  <course>180.23</course>
  <speed>5.48</speed>
  <fix>3d</fix>
</trkpt>
<trkpt lat="40.0733422" lon="-105.2297841">
  <ele>1583.04</ele>
  <time>2026-08-28T17:55:53Z</time>
  <course>181.06</course>
  <speed>5.460146518180625</speed>
  <fix>3d</fix>
</trkpt>
<trkpt lat="40.0733586" lon="-105.2297838">
  <ele>1583.0</ele>
  <time>2026-08-28T17:55:53Z</time>
  <course>180.23</course>
  <speed>5.48</speed>
  <fix>3d</fix>
</trkpt>
<trkpt lat="40.0733373" lon="-105.2297841">
  <ele>1583.04</ele>
  <time>2026-08-28T17:55:53Z</time>
  <course>181.06</course>
  <speed>5.460146518180625</speed>
  <fix>3d</fix>
</trkpt>
<trkpt lat="40.0733487" lon="-105.2297839">
  <ele>1583.0</ele>
  <time>2026-08-28T17:55:53Z</time>
  <course>180.23</course>
  <speed>5.48</speed>
  <fix>3d</fix>
</trkpt>
<trkpt lat="40.0733324" lon="-105.2297841">
  <ele>1583.05</ele>
  <time>2026-08-28T17:55:53Z</time>
  <course>181.06</course>
  <speed>5.460146518180625</speed>
  <fix>3d</fix>
</trkpt>
<trkpt lat="40.0733487" lon="-105.2297839">
  <ele>1583.0</ele>
  <time>2026-08-28T17:55:53Z</time>
  <course>180.23</course>
  <speed>5.48</speed>
  <fix>3d</fix>
</trkpt>
<trkpt lat="40.0733275" lon="-105.2297842">
  <ele>1583.05</ele>
  <time>2026-08-28T17:55:53Z</time>
  <course>181.06</course>
  <speed>5.460146518180625</speed>
  <fix>3d</fix>
</trkpt>
<trkpt lat="40.0733388" lon="-105.229784">
  <ele>1583.0</ele>
  <time>2026-08-28T17:55:53Z</time>
  <course>180.23</course>
  <speed>5.47</speed>
  <fix>3d</fix>
</trkpt>
<trkpt lat="40.0733227" lon="-105.2297842">
  <ele>1583.05</ele>
  <time>2026-08-28T17:55:53Z</time>
  <course>181.06</course>
  <speed>5.450146787014089</speed>
  <fix>3d</fix>
</trkpt>
<trkpt lat="40.0733388" lon="-105.229784">
  <ele>1583.0</ele>
  <time>2026-08-28T17:55:53Z</time>
  <course>180.23</course>
  <speed>5.47</speed>
  <fix>3d</fix>
</trkpt>
<trkpt lat="40.0733178" lon="-105.2297842">
  <ele>1583.05</ele>
  <time>2026-08-28T17:55:53Z</time>
  <course>181.06</course>
  <speed>5.450146787014089</speed>
  <fix>3d</fix>
</trkpt>
<trkpt lat="40.073329" lon="-105.229784">
  <ele>1583.0</ele>
  <time>2026-08-28T17:55:53Z</time>
  <course>180.23</course>
  <speed>5.47</speed>
  <fix>3d</fix>
</trkpt>
<trkpt lat="40.0733129" lon="-105.2297843">
  <ele>1583.05</ele>
  <time>2026-08-28T17:55:53Z</time>
  <course>181.06</course>
  <speed>5.450146787014089</speed>
  <fix>3d</fix>
</trkpt>
<trkpt lat="40.0733192" lon="-105.229784">
  <ele>1583.0</ele>
  <time>2026-08-28T17:55:53Z</time>
  <course>180.23</course>
  <speed>5.47</speed>
  <fix>3d</fix>
</trkpt>
<trkpt lat="40.073308" lon="-105.2297843">
  <ele>1583.05</ele>
  <time>2026-08-28T17:55:53Z</time>
  <course>181.06</course>
  <speed>5.450146787014089</speed>
  <fix>3d</fix>
</trkpt>
<trkpt lat="40.0733192" lon="-105.229784">
  <ele>1583.0</ele>
  <time>2026-08-28T17:55:53Z</time>
  <course>180.23</course>
  <speed>5.47</speed>
  <fix>3d</fix>
</trkpt>
<trkpt lat="40.0733031" lon="-105.2297843">
  <ele>1583.05</ele>
  <time>2026-08-28T17:55:53Z</time>
  <course>181.06</course>
  <speed>5.450146787014089</speed>
  <fix>3d</fix>
</trkpt>
<trkpt lat="40.0733094" lon="-105.2297841">
  <ele>1583.0</ele>
  <time>2026-08-28T17:55:53Z</time>
  <course>180.23</course>
  <speed>5.47</speed>
  <fix>3d</fix>
</trkpt>
<trkpt lat="40.0732982" lon="-105.2297843">
  <ele>1583.05</ele>
  <time>2026-08-28T17:55:53Z</time>
  <course>181.06</course>
  <speed>5.460146518180625</speed>
  <fix>3d</fix>
</trkpt>
<trkpt lat="40.0733094" lon="-105.2297841">
  <ele>1583.0</ele>
  <time>2026-08-28T17:55:53Z</time>
  <course>180.23</course>
  <speed>5.47</speed>
  <fix>3d</fix>
</trkpt>
<trkpt lat="40.0732932" lon="-105.2297844">
  <ele>1583.05</ele>
  <time>2026-08-28T17:55:53Z</time>
  <course>181.06</course>
  <speed>5.460146518180625</speed>
  <fix>3d</fix>
</trkpt>
<trkpt lat="40.0732996" lon="-105.2297842">
  <ele>1583.0</ele>
  <time>2026-08-28T17:55:53Z</time>
  <course>180.23</course>
  <speed>5.48</speed>
  <fix>3d</fix>
</trkpt>
<trkpt lat="40.0732883" lon="-105.2297844">
  <ele>1583.05</ele>
  <time>2026-08-28T17:55:53Z</time>
  <course>181.06</course>
  <speed>5.460146518180625</speed>
  <fix>3d</fix>
</trkpt>
<trkpt lat="40.0732996" lon="-105.2297842">
  <ele>1583.0</ele>
  <time>2026-08-28T17:55:53Z</time>
  <course>180.23</course>
  <speed>5.48</speed>
  <fix>3d</fix>
</trkpt>
<trkpt lat="40.0732833" lon="-105.2297844">
  <ele>1583.05</ele>
  <time>2026-08-28T17:55:53Z</time>
  <course>181.06</course>
  <speed>5.460146518180625</speed>
  <fix>3d</fix>
</trkpt>
<trkpt lat="40.0732897" lon="-105.2297842">
  <ele>1583.0</ele>
  <time>2026-08-28T17:55:54Z</time>
  <course>180.23</course>
  <speed>5.48</speed>
  <fix>3d</fix>
</trkpt>
<trkpt lat="40.0732783" lon="-105.2297844">
  <ele>1583.05</ele>
  <time>2026-08-28T17:55:54Z</time>
  <course>181.06</course>
  <speed>5.460146518180625</speed>
  <fix>3d</fix>
</trkpt>
<trkpt lat="40.0732897" lon="-105.2297842">
  <ele>1583.0</ele>
  <time>2026-08-28T17:55:54Z</time>
  <course>180.23</course>
  <speed>5.48</speed>
  <fix>3d</fix>
</trkpt>
<trkpt lat="40.0732734" lon="-105.2297845">
  <ele>1583.05</ele>
  <time>2026-08-28T17:55:54Z</time>
  <course>181.06</course>
  <speed>5.460146518180625</speed>
  <fix>3d</fix>
</trkpt>
<trkpt lat="40.0732798" lon="-105.2297842">
  <ele>1583.0</ele>
  <time>2026-08-28T17:55:54Z</time>
  <course>180.23</course>
  <speed>5.48</speed>
  <fix>3d</fix>
</trkpt>
<trkpt lat="40.0732684" lon="-105.2297845">
  <ele>1583.05</ele>
  <time>2026-08-28T17:55:54Z</time>
  <course>181.06</course>
  <speed>5.460146518180625</speed>
  <fix>3d</fix>
</trkpt>
<trkpt lat="40.0732798" lon="-105.2297842">
  <ele>1583.0</ele>
  <time>2026-08-28T17:55:54Z</time>
  <course>180.23</course>
  <speed>5.48</speed>
  <fix>3d</fix>
</trkpt>
<trkpt lat="40.0732635" lon="-105.2297845">
  <ele>1583.04</ele>
  <time>2026-08-28T17:55:54Z</time>
  <course>181.06</course>
  <speed>5.470146250330058</speed>
  <fix>3d</fix>
</trkpt>
<trkpt lat="40.07327" lon="-105.2297843">
  <ele>1583.0</ele>
  <time>2026-08-28T17:55:54Z</time>
  <course>180.23</course>
  <speed>5.48</speed>
  <fix>3d</fix>
</trkpt>
<trkpt lat="40.0732585" lon="-105.2297845">
  <ele>1583.04</ele>
  <time>2026-08-28T17:55:54Z</time>
  <course>181.06</course>
  <speed>5.470146250330058</speed>
  <fix>3d</fix>
</trkpt>
<trkpt lat="40.07327" lon="-105.2297843">
  <ele>1583.0</ele>
  <time>2026-08-28T17:55:54Z</time>
  <course>180.23</course>
  <speed>5.48</speed>
  <fix>3d</fix>
</trkpt>
<trkpt lat="40.0732536" lon="-105.2297846">
  <ele>1583.04</ele>
  <time>2026-08-28T17:55:54Z</time>
  <course>181.06</course>
  <speed>5.470146250330058</speed>
  <fix>3d</fix>
</trkpt>
<trkpt lat="40.0732601" lon="-105.2297844">
  <ele>1583.0</ele>
  <time>2026-08-28T17:55:54Z</time>
  <course>180.23</course>
  <speed>5.48</speed>
  <fix>3d</fix>
</trkpt>
<trkpt lat="40.0732487" lon="-105.2297846">
  <ele>1583.04</ele>
  <time>2026-08-28T17:55:54Z</time>
  <course>181.06</course>
  <speed>5.410147872285933</speed>
  <fix>3d</fix>
</trkpt>
<trkpt lat="40.0732601" lon="-105.2297844">
  <ele>1583.0</ele>
  <time>2026-08-28T17:55:54Z</time>
  <course>180.23</course>
  <speed>5.48</speed>
  <fix>3d</fix>
</trkpt>
<trkpt lat="40.0732438" lon="-105.2297846">
  <ele>1583.04</ele>
  <time>2026-08-28T17:55:54Z</time>
  <course>181.06</course>
  <speed>5.260152089055981</speed>
  <fix>3d</fix>
</trkpt>
<trkpt lat="40.0732601" lon="-105.2297844">
  <ele>1583.0</ele>
  <time>2026-08-28T17:55:54Z</time>
  <course>180.23</course>
  <speed>5.48</speed>
  <fix>3d</fix>
</trkpt>
<trkpt lat="40.0732392" lon="-105.2297846">
  <ele>1583.04</ele>
  <time>2026-08-28T17:55:54Z</time>
  <course>181.06</course>
  <speed>5.010089819554136</speed>
  <fix>3d</fix>
</trkpt>
<trkpt lat="40.0732503" lon="-105.2297844">
  <ele>1583.0</ele>
  <time>2026-08-28T17:55:54Z</time>
  <course>180.23</course>
  <speed>5.37</speed>
  <fix>3d</fix>
</trkpt>
<trkpt lat="40.0732349" lon="-105.2297847">
  <ele>1583.04</ele>
  <time>2026-08-28T17:55:54Z</time>
  <course>181.06</course>
  <speed>4.770094338689749</speed>
  <fix>3d</fix>
</trkpt>
<trkpt lat="40.0732503" lon="-105.2297844">
  <ele>1583.0</ele>
  <time>2026-08-28T17:55:54Z</time>
  <course>180.23</course>
  <speed>5.37</speed>
  <fix>3d</fix>
</trkpt>
<trkpt lat="40.0732307" lon="-105.2297847">
  <ele>1583.04</ele>
  <time>2026-08-28T17:55:54Z</time>
  <course>181.09</course>
  <speed>4.590098038168684</speed>
  <fix>3d</fix>
</trkpt>
<trkpt lat="40.0732409" lon="-105.2297844">
  <ele>1583.0</ele>
  <time>2026-08-28T17:55:54Z</time>
  <course>180.23</course>
  <speed>5.02</speed>
  <fix>3d</fix>
</trkpt>
<trkpt lat="40.0732267" lon="-105.2297847">
  <ele>1583.04</ele>
  <time>2026-08-28T17:55:54Z</time>
  <course>181.09</course>
  <speed>4.510044345679984</speed>
  <fix>3d</fix>
</trkpt>
<trkpt lat="40.0732409" lon="-105.2297844">
  <ele>1583.0</ele>
  <time>2026-08-28T17:55:54Z</time>
  <course>180.23</course>
  <speed>5.02</speed>
  <fix>3d</fix>
</trkpt>
<trkpt lat="40.0732227" lon="-105.2297847">
  <ele>1583.04</ele>
  <time>2026-08-28T17:55:54Z</time>
  <course>181.09</course>
  <speed>4.53004414989523</speed>
  <fix>3d</fix>
</trkpt>
<trkpt lat="40.0732323" lon="-105.2297845">
  <ele>1583.0</ele>
  <time>2026-08-28T17:55:54Z</time>
  <course>180.24</course>
  <speed>4.66</speed>
  <fix>3d</fix>
</trkpt>
<trkpt lat="40.0732186" lon="-105.2297847">
  <ele>1583.04</ele>
  <time>2026-08-28T17:55:54Z</time>
  <course>181.09</course>
  <speed>4.550098900024042</speed>
  <fix>3d</fix>
</trkpt>
<trkpt lat="40.0732239" lon="-105.2297846">
  <ele>1583.0</ele>
  <time>2026-08-28T17:55:54Z</time>
  <course>180.25</course>
  <speed>4.56</speed>
  <fix>3d</fix>
</trkpt>
<trkpt lat="40.0732145" lon="-105.2297847">
  <ele>1583.04</ele>
  <time>2026-08-28T17:55:54Z</time>
  <course>181.09</course>
  <speed>4.550098900024042</speed>
  <fix>3d</fix>
</trkpt>
<trkpt lat="40.0732239" lon="-105.2297846">
  <ele>1583.0</ele>
  <time>2026-08-28T17:55:54Z</time>
  <course>180.25</course>
  <speed>4.56</speed>
  <fix>3d</fix>
</trkpt>
<trkpt lat="40.0732104" lon="-105.2297847">
  <ele>1583.04</ele>
  <time>2026-08-28T17:55:54Z</time>
  <course>181.09</course>
  <speed>4.530099336659187</speed>
  <fix>3d</fix>
</trkpt>
<trkpt lat="40.0732158" lon="-105.2297846">
  <ele>1583.0</ele>
  <time>2026-08-28T17:55:54Z</time>
  <course>180.25</course>
  <speed>4.57</speed>
  <fix>3d</fix>
</trkpt>
<trkpt lat="40.0732064" lon="-105.2297848">
  <ele>1583.04</ele>
  <time>2026-08-28T17:55:54Z</time>
  <course>181.09</course>
  <speed>4.490100221598623</speed>
  <fix>3d</fix>
</trkpt>
<trkpt lat="40.0732158" lon="-105.2297846">
  <ele>1583.0</ele>
  <time>2026-08-28T17:55:54Z</time>
  <course>180.25</course>
  <speed>4.57</speed>
  <fix>3d</fix>
</trkpt>
<trkpt lat="40.0732024" lon="-105.2297848">
  <ele>1583.03</ele>
  <time>2026-08-28T17:55:54Z</time>
  <course>181.09</course>
  <speed>4.430101578970848</speed>
  <fix>3d</fix>
</trkpt>
<trkpt lat="40.0732076" lon="-105.2297847">
  <ele>1583.0</ele>
  <time>2026-08-28T17:55:54Z</time>
  <course>180.25</course>
  <speed>4.52</speed>
  <fix>3d</fix>
</trkpt>
<trkpt lat="40.0731984" lon="-105.2297848">
  <ele>1583.03</ele>
  <time>2026-08-28T17:55:54Z</time>
  <course>181.09</course>
  <speed>4.360045871318328</speed>
  <fix>3d</fix>
</trkpt>
<trkpt lat="40.0732076" lon="-105.2297847">
  <ele>1583.0</ele>
  <time>2026-08-28T17:55:54Z</time>
  <course>180.25</course>
  <speed>4.52</speed>
  <fix>3d</fix>
</trkpt>
<trkpt lat="40.0731945" lon="-105.2297848">
  <ele>1583.03</ele>
  <time>2026-08-28T17:55:54Z</time>
  <course>181.1</course>
  <speed>4.270046838150607</speed>
  <fix>3d</fix>
</trkpt>
<trkpt lat="40.0731996" lon="-105.2297847">
  <ele>1583.0</ele>
  <time>2026-08-28T17:55:54Z</time>
  <course>180.25</course>
  <speed>4.39</speed>
  <fix>3d</fix>
</trkpt>
<trkpt lat="40.0731907" lon="-105.2297848">
  <ele>1583.02</ele>
  <time>2026-08-28T17:55:54Z</time>
  <course>181.1</course>
  <speed>4.170047961354881</speed>
  <fix>3d</fix>
</trkpt>
<trkpt lat="40.0731996" lon="-105.2297847">
  <ele>1583.0</ele>
  <time>2026-08-28T17:55:54Z</time>
  <course>180.25</course>
  <speed>4.39</speed>
  <fix>3d</fix>
</trkpt>
<trkpt lat="40.0731869" lon="-105.2297849">
  <ele>1583.02</ele>
  <time>2026-08-28T17:55:54Z</time>
  <course>181.1</course>
  <speed>4.060049260784899</speed>
  <fix>3d</fix>
</trkpt>
<trkpt lat="40.0731919" lon="-105.2297847">
  <ele>1583.0</ele>
  <time>2026-08-28T17:55:54Z</time>
  <course>180.25</course>
  <speed>4.2</speed>
  <fix>3d</fix>
</trkpt>
<trkpt lat="40.0731833" lon="-105.2297849">
  <ele>1583.02</ele>
  <time>2026-08-28T17:55:54Z</time>
  <course>181.1</course>
  <speed>3.9400507610943287</speed>
  <fix>3d</fix>
</trkpt>
<trkpt lat="40.0731919" lon="-105.2297847">
  <ele>1583.0</ele>
  <time>2026-08-28T17:55:54Z</time>
  <course>180.25</course>
  <speed>4.2</speed>
  <fix>3d</fix>
</trkpt>
<trkpt lat="40.0731798" lon="-105.2297849">
  <ele>1583.02</ele>
  <time>2026-08-28T17:55:54Z</time>
  <course>181.1</course>
  <speed>3.810052493076703</speed>
  <fix>3d</fix>
</trkpt>
<trkpt lat="40.0731845" lon="-105.2297847">
  <ele>1583.0</ele>
  <time>2026-08-28T17:55:54Z</time>
  <course>180.25</course>
  <speed>3.97</speed>
  <fix>3d</fix>
</trkpt>
<trkpt lat="40.0731764" lon="-105.2297849">
  <ele>1583.02</ele>
  <time>2026-08-28T17:55:54Z</time>
  <course>181.1</course>
  <speed>3.670054495508207</speed>
  <fix>3d</fix>
</trkpt>
<trkpt lat="40.0731845" lon="-105.2297847">
  <ele>1583.0</ele>
  <time>2026-08-28T17:55:54Z</time>
  <course>180.25</course>
  <speed>3.97</speed>
  <fix>3d</fix>
</trkpt>
<trkpt lat="40.0731732" lon="-105.2297849">
  <ele>1583.02</ele>
  <time>2026-08-28T17:55:54Z</time>
  <course>181.1</course>
  <speed>3.5300141642775316</speed>
  <fix>3d</fix>
</trkpt>
<trkpt lat="40.0731776" lon="-105.2297848">
  <ele>1583.0</ele>
  <time>2026-08-28T17:55:54Z</time>
  <course>180.25</course>
  <speed>3.71</speed>
  <fix>3d</fix>
</trkpt>
<trkpt lat="40.0731701" lon="-105.2297849">
  <ele>1583.02</ele>
  <time>2026-08-28T17:55:54Z</time>
  <course>181.11</course>
  <speed>3.3900147492304513</speed>
  <fix>3d</fix>
</trkpt>
<trkpt lat="40.0731776" lon="-105.2297848">
  <ele>1583.0</ele>
  <time>2026-08-28T17:55:54Z</time>
  <course>180.25</course>
  <speed>3.71</speed>
  <fix>3d</fix>
</trkpt>
<trkpt lat="40.0731671" lon="-105.2297849">
  <ele>1583.02</ele>
  <time>2026-08-28T17:55:54Z</time>
  <course>181.12</course>
  <speed>3.250015384578971</speed>
  <fix>3d</fix>
</trkpt>
<trkpt lat="40.0731776" lon="-105.2297848">
  <ele>1583.0</ele>
  <time>2026-08-28T17:55:54Z</time>
  <course>180.25</course>
  <speed>3.71</speed>
  <fix>3d</fix>
</trkpt>
<trkpt lat="40.0731642" lon="-105.2297849">
  <ele>1583.02</ele>
  <time>2026-08-28T17:55:54Z</time>
  <course>181.14</course>
  <speed>3.100016128990299</speed>
  <fix>3d</fix>
</trkpt>
<trkpt lat="40.0731712" lon="-105.2297849">
  <ele>1583.0</ele>
  <time>2026-08-28T17:55:54Z</time>
  <course>180.26</course>
  <speed>3.43</speed>
  <fix>3d</fix>
</trkpt>
<trkpt lat="40.0731615" lon="-105.2297849">
  <ele>1583.02</ele>
  <time>2026-08-28T17:55:54Z</time>
  <course>181.17</course>
  <speed>2.9600168918436935</speed>
  <fix>3d</fix>
</trkpt>
<trkpt lat="40.0731712" lon="-105.2297849">
  <ele>1583.0</ele>
  <time>2026-08-28T17:55:54Z</time>
  <course>180.26</course>
  <speed>3.43</speed>
  <fix>3d</fix>
</trkpt>
<trkpt lat="40.073159" lon="-105.2297849">
  <ele>1583.02</ele>
  <time>2026-08-28T17:55:54Z</time>
  <course>181.21</course>
  <speed>2.8100177935379698</speed>
  <fix>3d</fix>
</trkpt>
<trkpt lat="40.0731653" lon="-105.2297849">
  <ele>1583.0</ele>
  <time>2026-08-28T17:55:54Z</time>
  <course>180.29</course>
  <speed>3.15</speed>
  <fix>3d</fix>
</trkpt>
<trkpt lat="40.0731565" lon="-105.2297849">
  <ele>1583.02</ele>
  <time>2026-08-28T17:55:54Z</time>
  <course>181.25</course>
  <speed>2.6700187265260893</speed>
  <fix>3d</fix>
</trkpt>
<trkpt lat="40.0731653" lon="-105.2297849">
  <ele>1583.0</ele>
  <time>2026-08-28T17:55:54Z</time>
  <course>180.29</course>
  <speed>3.15</speed>
  <fix>3d</fix>
</trkpt>
<trkpt lat="40.0731542" lon="-105.229785">
  <ele>1583.02</ele>
  <time>2026-08-28T17:55:54Z</time>
  <course>181.28</course>
  <speed>2.5300197627686627</speed>
  <fix>3d</fix>
</trkpt>
<trkpt lat="40.0731598" lon="-105.2297849">
  <ele>1583.0</ele>
  <time>2026-08-28T17:55:54Z</time>
  <course>180.35</course>
  <speed>2.86</speed>
  <fix>3d</fix>
</trkpt>
<trkpt lat="40.073152" lon="-105.229785">
  <ele>1583.01</ele>
  <time>2026-08-28T17:55:54Z</time>
  <course>181.32</course>
  <speed>2.4000208332429116</speed>
  <fix>3d</fix>
</trkpt>
<trkpt lat="40.0731598" lon="-105.2297849">
  <ele>1583.0</ele>
  <time>2026-08-28T17:55:54Z</time>
  <course>180.35</course>
  <speed>2.86</speed>
  <fix>3d</fix>
</trkpt>
<trkpt lat="40.0731499" lon="-105.229785">
  <ele>1583.01</ele>
  <time>2026-08-28T17:55:54Z</time>
  <course>181.35</course>
  <speed>2.260022123785517</speed>
  <fix>3d</fix>
</trkpt>
<trkpt lat="40.073155" lon="-105.2297849">
  <ele>1583.0</ele>
  <time>2026-08-28T17:55:54Z</time>
  <course>180.43</course>
  <speed>2.59</speed>
  <fix>3d</fix>
</trkpt>
<trkpt lat="40.073148" lon="-105.229785">
  <ele>1583.01</ele>
  <time>2026-08-28T17:55:54Z</time>
  <course>181.38</course>
  <speed>2.130023474049054</speed>
  <fix>3d</fix>
</trkpt>
<trkpt lat="40.0731506" lon="-105.229785">
  <ele>1583.0</ele>
  <time>2026-08-28T17:55:54Z</time>
  <course>180.49</course>
  <speed>2.33</speed>
  <fix>3d</fix>
</trkpt>
<trkpt lat="40.0731461" lon="-105.229785">
  <ele>1583.01</ele>
  <time>2026-08-28T17:55:54Z</time>
  <course>181.41</course>
  <speed>2.010024875467963</speed>
  <fix>3d</fix>
</trkpt>
<trkpt lat="40.0731506" lon="-105.229785">
  <ele>1583.0</ele>
  <time>2026-08-28T17:55:54Z</time>
  <course>180.49</course>
  <speed>2.33</speed>
  <fix>3d</fix>
</trkpt>
<trkpt lat="40.0731444" lon="-105.229785">
  <ele>1583.01</ele>
  <time>2026-08-28T17:55:54Z</time>
  <course>181.42</course>
  <speed>1.890026454841307</speed>
  <fix>3d</fix>
</trkpt>
<trkpt lat="40.0731466" lon="-105.2297851">
  <ele>1583.0</ele>
  <time>2026-08-28T17:55:54Z</time>
  <course>180.54</course>
  <speed>2.08</speed>
  <fix>3d</fix>
</trkpt>
<trkpt lat="40.0731427" lon="-105.229785">
  <ele>1583.01</ele>
  <time>2026-08-28T17:55:54Z</time>
  <course>181.42</course>
  <speed>1.7700282483621552</speed>
  <fix>3d</fix>
</trkpt>
<trkpt lat="40.0731466" lon="-105.2297851">
  <ele>1583.0</ele>
  <time>2026-08-28T17:55:54Z</time>
  <course>180.54</course>
  <speed>2.08</speed>
  <fix>3d</fix>
</trkpt>
<trkpt lat="40.0731412" lon="-105.2297851">
  <ele>1583.01</ele>
  <time>2026-08-28T17:55:54Z</time>
  <course>181.42</course>
  <speed>1.6600301202086667</speed>
  <fix>3d</fix>
</trkpt>
<trkpt lat="40.073143" lon="-105.2297851">
  <ele>1583.0</ele>
  <time>2026-08-28T17:55:54Z</time>
  <course>180.57</course>
  <speed>1.84</speed>
  <fix>3d</fix>
</trkpt>
<trkpt lat="40.0731397" lon="-105.2297851">
  <ele>1583.01</ele>
  <time>2026-08-28T17:55:54Z</time>
  <course>181.42</course>
  <speed>1.5400324671902212</speed>
  <fix>3d</fix>
</trkpt>
<trkpt lat="40.073143" lon="-105.2297851">
  <ele>1583.0</ele>
  <time>2026-08-28T17:55:54Z</time>
  <course>180.57</course>
  <speed>1.84</speed>
  <fix>3d</fix>
</trkpt>
<trkpt lat="40.0731383" lon="-105.2297851">
  <ele>1583.01</ele>
  <time>2026-08-28T17:55:54Z</time>
  <course>181.42</course>
  <speed>1.43</speed>
  <fix>3d</fix>
</trkpt>
<trkpt lat="40.0731399" lon="-105.2297852">
  <ele>1583.0</ele>
  <time>2026-08-28T17:55:54Z</time>
  <course>180.57</course>
  <speed>1.62</speed>
  <fix>3d</fix>
</trkpt>
<trkpt lat="40.073137" lon="-105.2297851">
  <ele>1583.01</ele>
  <time>2026-08-28T17:55:54Z</time>
  <course>181.42</course>
  <speed>1.33</speed>
  <fix>3d</fix>
</trkpt>
<trkpt lat="40.0731399" lon="-105.2297852">
  <ele>1583.0</ele>
  <time>2026-08-28T17:55:54Z</time>
  <course>180.57</course>
  <speed>1.62</speed>
  <fix>3d</fix>
</trkpt>
<trkpt lat="40.0731359" lon="-105.2297851">
  <ele>1583.01</ele>
  <time>2026-08-28T17:55:54Z</time>
  <course>181.42</course>
  <speed>1.24</speed>
  <fix>3d</fix>
</trkpt>
<trkpt lat="40.0731372" lon="-105.2297852">
  <ele>1583.0</ele>
  <time>2026-08-28T17:55:54Z</time>
  <course>180.56</course>
  <speed>1.41</speed>
  <fix>3d</fix>
</trkpt>
<trkpt lat="40.0731347" lon="-105.2297851">
  <ele>1583.01</ele>
  <time>2026-08-28T17:55:54Z</time>
  <course>181.4</course>
  <speed>1.16</speed>
  <fix>3d</fix>
</trkpt>
<trkpt lat="40.0731372" lon="-105.2297852">
  <ele>1583.0</ele>
  <time>2026-08-28T17:55:54Z</time>
  <course>180.56</course>
  <speed>1.41</speed>
  <fix>3d</fix>
</trkpt>
<trkpt lat="40.0731337" lon="-105.2297852">
  <ele>1583.01</ele>
  <time>2026-08-28T17:55:54Z</time>
  <course>181.38</course>
  <speed>1.11</speed>
  <fix>3d</fix>
</trkpt>
<trkpt lat="40.0731349" lon="-105.2297852">
  <ele>1583.0</ele>
  <time>2026-08-28T17:55:54Z</time>
  <course>180.54</course>
  <speed>1.24</speed>
  <fix>3d</fix>
</trkpt>
<trkpt lat="40.0731327" lon="-105.2297852">
  <ele>1583.01</ele>
  <time>2026-08-28T17:55:54Z</time>
  <course>181.34</course>
  <speed>1.06</speed>
  <fix>3d</fix>
</trkpt>
<trkpt lat="40.0731349" lon="-105.2297852">
  <ele>1583.0</ele>
  <time>2026-08-28T17:55:54Z</time>
  <course>180.54</course>
  <speed>1.24</speed>
  <fix>3d</fix>
</trkpt>
<trkpt lat="40.0731317" lon="-105.2297852">
  <ele>1583.01</ele>
  <time>2026-08-28T17:55:54Z</time>
  <course>181.31</course>
  <speed>1.0300485425454473</speed>
  <fix>3d</fix>
</trkpt>
<trkpt lat="40.0731327" lon="-105.2297852">
  <ele>1583.0</ele>
  <time>2026-08-28T17:55:54Z</time>
  <course>180.49</course>
  <speed>1.14</speed>
  <fix>3d</fix>
</trkpt>
<trkpt lat="40.0731307" lon="-105.2297852">
  <ele>1583.01</ele>
  <time>2026-08-28T17:55:54Z</time>
  <course>181.27</course>
  <speed>1.0200490184299968</speed>
  <fix>3d</fix>
</trkpt>
<trkpt lat="40.0731327" lon="-105.2297852">
  <ele>1583.0</ele>
  <time>2026-08-28T17:55:54Z</time>
  <course>180.49</course>
  <speed>1.14</speed>
  <fix>3d</fix>
</trkpt>
<trkpt lat="40.0731298" lon="-105.2297852">
  <ele>1583.01</ele>
  <time>2026-08-28T17:55:54Z</time>
  <course>181.22</course>
  <speed>1.010049503737317</speed>
  <fix>3d</fix>
</trkpt>
<trkpt lat="40.0731327" lon="-105.2297852">
  <ele>1583.0</ele>
  <time>2026-08-28T17:55:54Z</time>
  <course>180.49</course>
  <speed>1.14</speed>
  <fix>3d</fix>
</trkpt>
<trkpt lat="40.0731288" lon="-105.2297852">
  <ele>1583.01</ele>
  <time>2026-08-28T17:55:54Z</time>
  <course>181.18</course>
  <speed>1.0200490184299968</speed>
  <fix>3d</fix>
</trkpt>
<trkpt lat="40.0731306" lon="-105.2297852">
  <ele>1583.0</ele>
  <time>2026-08-28T17:55:54Z</time>
  <course>180.41</course>
  <speed>1.1</speed>
  <fix>3d</fix>
</trkpt>
<trkpt lat="40.0731279" lon="-105.2297852">
  <ele>1583.01</ele>
  <time>2026-08-28T17:55:54Z</time>
  <course>181.13</course>
  <speed>1.0300485425454473</speed>
  <fix>3d</fix>
</trkpt>
<trkpt lat="40.0731306" lon="-105.2297852">
  <ele>1583.0</ele>
  <time>2026-08-28T17:55:54Z</time>
  <course>180.41</course>
  <speed>1.1</speed>
  <fix>3d</fix>
</trkpt>
<trkpt lat="40.0731269" lon="-105.2297853">
  <ele>1583.02</ele>
  <time>2026-08-28T17:55:54Z</time>
  <course>181.08</course>
  <speed>1.0600471687618434</speed>
  <fix>3d</fix>
</trkpt>
<trkpt lat="40.0731287" lon="-105.2297852">
  <ele>1583.0</ele>
  <time>2026-08-28T17:55:54Z</time>
  <course>180.31</course>
  <speed>1.09</speed>
  <fix>3d</fix>
</trkpt>
<trkpt lat="40.0731259" lon="-105.2297853">
  <ele>1583.02</ele>
  <time>2026-08-28T17:55:54Z</time>
  <course>181.02</course>
  <speed>1.0800462953040486</speed>
  <fix>3d</fix>
</trkpt>
<trkpt lat="40.0731287" lon="-105.2297852">
  <ele>1583.0</ele>
  <time>2026-08-28T17:55:54Z</time>
  <course>180.31</course>
  <speed>1.09</speed>
  <fix>3d</fix>
</trkpt>
<trkpt lat="40.0731248" lon="-105.2297853">
  <ele>1583.02</ele>
  <time>2026-08-28T17:55:54Z</time>
  <course>180.96</course>
  <speed>1.110045044131093</speed>
  <fix>3d</fix>
</trkpt>
<trkpt lat="40.0731267" lon="-105.2297853">
  <ele>1583.0</ele>
  <time>2026-08-28T17:55:54Z</time>
  <course>180.21</course>
  <speed>1.13</speed>
  <fix>3d</fix>
</trkpt>
<trkpt lat="40.0731238" lon="-105.2297853">
  <ele>1583.02</ele>
  <time>2026-08-28T17:55:54Z</time>
  <course>180.91</course>
  <speed>1.1500434774390054</speed>
  <fix>3d</fix>
</trkpt>
<trkpt lat="40.0731246" lon="-105.2297854">
  <ele>1583.0</ele>
  <time>2026-08-28T17:55:54Z</time>
  <course>180.09</course>
  <speed>1.18</speed>
  <fix>3d</fix>
</trkpt>
<trkpt lat="40.0731226" lon="-105.2297853">
  <ele>1583.02</ele>
  <time>2026-08-28T17:55:54Z</time>
  <course>180.85</course>
  <speed>1.1800423721205946</speed>
  <fix>3d</fix>
</trkpt>
<trkpt lat="40.0731246" lon="-105.2297854">
  <ele>1583.0</ele>
  <time>2026-08-28T17:55:54Z</time>
  <course>180.09</course>
  <speed>1.18</speed>
  <fix>3d</fix>
</trkpt>
<trkpt lat="40.0731215" lon="-105.2297853">
  <ele>1583.02</ele>
  <time>2026-08-28T17:55:54Z</time>
  <course>180.79</course>
  <speed>1.2201639234135715</speed>
  <fix>3d</fix>
</trkpt>
<trkpt lat="40.0731224" lon="-105.2297854">
  <ele>1583.0</ele>
  <time>2026-08-28T17:55:54Z</time>
  <course>179.98</course>
  <speed>1.25</speed>
  <fix>3d</fix>
</trkpt>
<trkpt lat="40.0731203" lon="-105.2297854">
  <ele>1583.02</ele>
  <time>2026-08-28T17:55:54Z</time>
  <course>180.73</course>
  <speed>1.2601587201618691</speed>
  <fix>3d</fix>
</trkpt>
<trkpt lat="40.0731224" lon="-105.2297854">
  <ele>1583.0</ele>
  <time>2026-08-28T17:55:54Z</time>
  <course>179.98</course>
  <speed>1.25</speed>
  <fix>3d</fix>
</trkpt>
<trkpt lat="40.0731191" lon="-105.2297854">
  <ele>1583.02</ele>
  <time>2026-08-28T17:55:54Z</time>
  <course>180.67</course>
  <speed>1.3001538370516004</speed>
  <fix>3d</fix>
</trkpt>
<trkpt lat="40.0731202" lon="-105.2297853">
  <ele>1583.0</ele>
  <time>2026-08-28T17:55:54Z</time>
  <course>179.86</course>
  <speed>1.32</speed>
  <fix>3d</fix>
</trkpt>
<trkpt lat="40.0731179" lon="-105.2297854">
  <ele>1583.02</ele>
  <time>2026-08-28T17:55:54Z</time>
  <course>180.61</course>
  <speed>1.3301503674397117</speed>
  <fix>3d</fix>
</trkpt>
<trkpt lat="40.0731202" lon="-105.2297853">
  <ele>1583.0</ele>
  <time>2026-08-28T17:55:54Z</time>
  <course>179.86</course>
  <speed>1.32</speed>
  <fix>3d</fix>
</trkpt>
<trkpt lat="40.0731166" lon="-105.2297854">
  <ele>1583.02</ele>
  <time>2026-08-28T17:55:54Z</time>
  <course>180.56</course>
  <speed>1.3701459776242821</speed>
  <fix>3d</fix>
</trkpt>
<trkpt lat="40.0731177" lon="-105.2297852">
  <ele>1583.0</ele>
  <time>2026-08-28T17:55:54Z</time>
  <course>179.75</course>
  <speed>1.38</speed>
  <fix>3d</fix>
</trkpt>
<trkpt lat="40.0731153" lon="-105.2297854">
  <ele>1583.02</ele>
  <time>2026-08-28T17:55:54Z</time>
  <course>180.5</course>
  <speed>1.400142849854971</speed>
  <fix>3d</fix>
</trkpt>
<trkpt lat="40.0731177" lon="-105.2297852">
  <ele>1583.0</ele>
  <time>2026-08-28T17:55:54Z</time>
  <course>179.75</course>
  <speed>1.38</speed>
  <fix>3d</fix>
</trkpt>
<trkpt lat="40.0731139" lon="-105.2297854">
  <ele>1583.02</ele>
  <time>2026-08-28T17:55:54Z</time>
  <course>180.44</course>
  <speed>1.4301398533010679</speed>
  <fix>3d</fix>
</trkpt>
<trkpt lat="40.0731151" lon="-105.2297852">
  <ele>1583.0</ele>
  <time>2026-08-28T17:55:54Z</time>
  <course>179.63</course>
  <speed>1.44</speed>
  <fix>3d</fix>
</trkpt>
<trkpt lat="40.0731125" lon="-105.2297854">
  <ele>1583.02</ele>
  <time>2026-08-28T17:55:54Z</time>
  <course>180.38</course>
  <speed>1.4601369798755184</speed>
  <fix>3d</fix>
</trkpt>
<trkpt lat="40.0731151" lon="-105.2297852">
  <ele>1583.0</ele>
  <time>2026-08-28T17:55:54Z</time>
  <course>179.63</course>
  <speed>1.44</speed>
  <fix>3d</fix>
</trkpt>
<trkpt lat="40.0731112" lon="-105.2297854">
  <ele>1583.02</ele>
  <time>2026-08-28T17:55:54Z</time>
  <course>180.32</course>
  <speed>1.480135128966271</speed>
  <fix>3d</fix>
</trkpt>
<trkpt lat="40.0731125" lon="-105.2297852">
  <ele>1583.0</ele>
  <time>2026-08-28T17:55:54Z</time>
  <course>179.51</course>
  <speed>1.49</speed>
  <fix>3d</fix>
</trkpt>
<trkpt lat="40.0731098" lon="-105.2297854">
  <ele>1583.02</ele>
  <time>2026-08-28T17:55:54Z</time>
  <course>180.28</course>
  <speed>1.500133327407934</speed>
  <fix>3d</fix>
</trkpt>
<trkpt lat="40.0731125" lon="-105.2297852">
  <ele>1583.0</ele>
  <time>2026-08-28T17:55:54Z</time>
  <course>179.51</course>
  <speed>1.49</speed>
  <fix>3d</fix>
</trkpt>
<trkpt lat="40.0731084" lon="-105.2297854">
  <ele>1583.02</ele>
  <time>2026-08-28T17:55:54Z</time>
  <course>180.23</course>
  <speed>1.5200328943809078</speed>
  <fix>3d</fix>
</trkpt>
<trkpt lat="40.0731098" lon="-105.2297852">
  <ele>1583.0</ele>
  <time>2026-08-28T17:55:54Z</time>
  <course>179.42</course>
  <speed>1.53</speed>
  <fix>3d</fix>
</trkpt>
<trkpt lat="40.0731069" lon="-105.2297854">
  <ele>1583.02</ele>
  <time>2026-08-28T17:55:54Z</time>
  <course>180.19</course>
  <speed>1.5300326793895613</speed>
  <fix>3d</fix>
</trkpt>
<trkpt lat="40.0731098" lon="-105.2297852">
  <ele>1583.0</ele>
  <time>2026-08-28T17:55:54Z</time>
  <course>179.42</course>
  <speed>1.53</speed>
  <fix>3d</fix>
</trkpt>
<trkpt lat="40.0731055" lon="-105.2297854">
  <ele>1583.02</ele>
  <time>2026-08-28T17:55:54Z</time>
  <course>180.14</course>
  <speed>1.5500322577288512</speed>
  <fix>3d</fix>
</trkpt>
<trkpt lat="40.0731098" lon="-105.2297852">
  <ele>1583.0</ele>
  <time>2026-08-28T17:55:54Z</time>
  <course>179.42</course>
  <speed>1.53</speed>
  <fix>3d</fix>
</trkpt>
<trkpt lat="40.0731041" lon="-105.2297854">
  <ele>1583.01</ele>
  <time>2026-08-28T17:55:54Z</time>
  <course>180.1</course>
  <speed>1.5500322577288512</speed>
  <fix>3d</fix>
</trkpt>
<trkpt lat="40.0731069" lon="-105.2297852">
  <ele>1583.0</ele>
  <time>2026-08-28T17:55:54Z</time>
  <course>179.33</course>
  <speed>1.56</speed>
  <fix>3d</fix>
</trkpt>
<trkpt lat="40.0731026" lon="-105.2297854">
  <ele>1583.01</ele>
  <time>2026-08-28T17:55:54Z</time>
  <course>180.06</course>
  <speed>1.5600320509528</speed>
  <fix>3d</fix>
</trkpt>
<trkpt lat="40.0731069" lon="-105.2297852">
  <ele>1583.0</ele>
  <time>2026-08-28T17:55:54Z</time>
  <course>179.33</course>
  <speed>1.56</speed>
  <fix>3d</fix>
</trkpt>
<trkpt lat="40.0731012" lon="-105.2297854">
  <ele>1583.01</ele>
  <time>2026-08-28T17:55:54Z</time>
  <course>180.03</course>
  <speed>1.5600320509528</speed>
  <fix>3d</fix>
</trkpt>
<trkpt lat="40.0731042" lon="-105.2297852">
  <ele>1583.0</ele>
  <time>2026-08-28T17:55:54Z</time>
  <course>179.25</course>
  <speed>1.58</speed>
  <fix>3d</fix>
</trkpt>
<trkpt lat="40.0730998" lon="-105.2297854">
  <ele>1583.01</ele>
  <time>2026-08-28T17:55:54Z</time>
  <course>179.99</course>
  <speed>1.5700318468107581</speed>
  <fix>3d</fix>
</trkpt>
<trkpt lat="40.0731042" lon="-105.2297852">
  <ele>1583.0</ele>
  <time>2026-08-28T17:55:54Z</time>
  <course>179.25</course>
  <speed>1.58</speed>
  <fix>3d</fix>
</trkpt>
<trkpt lat="40.0730983" lon="-105.2297854">
  <ele>1583.01</ele>
  <time>2026-08-28T17:55:54Z</time>
  <course>179.97</course>
  <speed>1.5700318468107581</speed>
  <fix>3d</fix>
</trkpt>
<trkpt lat="40.0731013" lon="-105.2297852">
  <ele>1583.0</ele>
  <time>2026-08-28T17:55:54Z</time>
  <course>179.18</course>
  <speed>1.58</speed>
  <fix>3d</fix>
</trkpt>
<trkpt lat="40.0730969" lon="-105.2297854">
  <ele>1583.0</ele>
  <time>2026-08-28T17:55:54Z</time>
  <course>179.94</course>
  <speed>1.5600320509528</speed>
  <fix>3d</fix>
</trkpt>
<trkpt lat="40.0731013" lon="-105.2297852">
  <ele>1583.0</ele>
  <time>2026-08-28T17:55:54Z</time>
  <course>179.18</course>
  <speed>1.58</speed>
  <fix>3d</fix>
</trkpt>
<trkpt lat="40.0730955" lon="-105.2297854">
  <ele>1583.0</ele>
  <time>2026-08-28T17:55:54Z</time>
  <course>179.91</course>
  <speed>1.5600320509528</speed>
  <fix>3d</fix>
</trkpt>
<trkpt lat="40.0730985" lon="-105.2297851">
  <ele>1583.0</ele>
  <time>2026-08-28T17:55:54Z</time>
  <course>179.14</course>
  <speed>1.59</speed>
  <fix>3d</fix>
</trkpt>
<trkpt lat="40.073094" lon="-105.2297854">
  <ele>1583.0</ele>
  <time>2026-08-28T17:55:54Z</time>
  <course>179.89</course>
  <speed>1.5600320509528</speed>
  <fix>3d</fix>
</trkpt>
<trkpt lat="40.0730956" lon="-105.2297851">
  <ele>1583.0</ele>
  <time>2026-08-28T17:55:54Z</time>
  <course>179.1</course>
  <speed>1.58</speed>
  <fix>3d</fix>
</trkpt>
<trkpt lat="40.0730926" lon="-105.2297853">
  <ele>1583.0</ele>
  <time>2026-08-28T17:55:54Z</time>
  <course>179.86</course>
  <speed>1.5600320509528</speed>
  <fix>3d</fix>
</trkpt>
<trkpt lat="40.0730956" lon="-105.2297851">
  <ele>1583.0</ele>
  <time>2026-08-28T17:55:54Z</time>
  <course>179.1</course>
  <speed>1.58</speed>
  <fix>3d</fix>
</trkpt>
<trkpt lat="40.0730912" lon="-105.2297853">
  <ele>1583.0</ele>
  <time>2026-08-28T17:55:54Z</time>
  <course>179.84</course>
  <speed>1.5500322577288512</speed>
  <fix>3d</fix>
</trkpt>
<trkpt lat="40.0730928" lon="-105.229785">
  <ele>1583.0</ele>
  <time>2026-08-28T17:55:54Z</time>
  <course>179.05</course>
  <speed>1.57</speed>
  <fix>3d</fix>
</trkpt>
<trkpt lat="40.0730898" lon="-105.2297852">
  <ele>1583.0</ele>
  <time>2026-08-28T17:55:54Z</time>
  <course>179.82</course>
  <speed>1.5500322577288512</speed>
  <fix>3d</fix>
</trkpt>
<trkpt lat="40.0730928" lon="-105.229785">
  <ele>1583.0</ele>
  <time>2026-08-28T17:55:54Z</time>
  <course>179.05</course>
  <speed>1.57</speed>
  <fix>3d</fix>
</trkpt>
<trkpt lat="40.0730884" lon="-105.2297852">
  <ele>1582.99</ele>
  <time>2026-08-28T17:55:54Z</time>
  <course>179.8</course>
  <speed>1.5400324671902212</speed>
  <fix>3d</fix>
</trkpt>
<trkpt lat="40.0730899" lon="-105.2297849">
  <ele>1583.0</ele>
  <time>2026-08-28T17:55:54Z</time>
  <course>179.02</course>
  <speed>1.56</speed>
  <fix>3d</fix>
</trkpt>
<trkpt lat="40.0730869" lon="-105.2297852">
  <ele>1582.99</ele>
  <time>2026-08-28T17:55:54Z</time>
  <course>179.8</course>
  <speed>1.5400324671902212</speed>
  <fix>3d</fix>
</trkpt>
<trkpt lat="40.0730899" lon="-105.2297849">
  <ele>1583.0</ele>
  <time>2026-08-28T17:55:54Z</time>
  <course>179.02</course>
  <speed>1.56</speed>
  <fix>3d</fix>
</trkpt>
<trkpt lat="40.0730855" lon="-105.2297852">
  <ele>1582.99</ele>
  <time>2026-08-28T17:55:54Z</time>
  <course>179.79</course>
  <speed>1.5300326793895613</speed>
  <fix>3d</fix>
</trkpt>
<trkpt lat="40.0730872" lon="-105.2297849">
  <ele>1583.0</ele>
  <time>2026-08-28T17:55:54Z</time>
  <course>179.01</course>
  <speed>1.55</speed>
  <fix>3d</fix>
</trkpt>
<trkpt lat="40.0730841" lon="-105.2297852">
  <ele>1582.99</ele>
  <time>2026-08-28T17:55:54Z</time>
  <course>179.79</course>
  <speed>1.5300326793895613</speed>
  <fix>3d</fix>
</trkpt>
<trkpt lat="40.0730872" lon="-105.2297849">
  <ele>1583.0</ele>
  <time>2026-08-28T17:55:54Z</time>
  <course>179.01</course>
  <speed>1.55</speed>
  <fix>3d</fix>
</trkpt>
<trkpt lat="40.0730827" lon="-105.2297852">
  <ele>1582.99</ele>
  <time>2026-08-28T17:55:54Z</time>
  <course>179.79</course>
  <speed>1.5200328943809078</speed>
  <fix>3d</fix>
</trkpt>
<trkpt lat="40.0730844" lon="-105.2297848">
  <ele>1583.0</ele>
  <time>2026-08-28T17:55:54Z</time>
  <course>179.01</course>
  <speed>1.54</speed>
  <fix>3d</fix>
</trkpt>
<trkpt lat="40.0730813" lon="-105.2297851">
  <ele>1582.99</ele>
  <time>2026-08-28T17:55:54Z</time>
  <course>179.78</course>
  <speed>1.52</speed>
  <fix>3d</fix>
</trkpt>
<trkpt lat="40.0730844" lon="-105.2297848">
  <ele>1583.0</ele>
  <time>2026-08-28T17:55:54Z</time>
  <course>179.01</course>
  <speed>1.54</speed>
  <fix>3d</fix>
</trkpt>
<trkpt lat="40.0730799" lon="-105.2297851">
  <ele>1582.99</ele>
  <time>2026-08-28T17:55:54Z</time>
  <course>179.78</course>
  <speed>1.51</speed>
  <fix>3d</fix>
</trkpt>
<trkpt lat="40.0730815" lon="-105.2297847">
  <ele>1583.0</ele>
  <time>2026-08-28T17:55:54Z</time>
  <course>179.01</course>
  <speed>1.53</speed>
  <fix>3d</fix>
</trkpt>
<trkpt lat="40.0730786" lon="-105.2297851">
  <ele>1582.99</ele>
  <time>2026-08-28T17:55:54Z</time>
  <course>179.77</course>
  <speed>1.51</speed>
  <fix>3d</fix>
</trkpt>
<trkpt lat="40.0730815" lon="-105.2297847">
  <ele>1583.0</ele>
  <time>2026-08-28T17:55:54Z</time>
  <course>179.01</course>
  <speed>1.53</speed>
  <fix>3d</fix>
</trkpt>
<trkpt lat="40.0730772" lon="-105.2297851">
  <ele>1582.99</ele>
  <time>2026-08-28T17:55:54Z</time>
  <course>179.77</course>
  <speed>1.51</speed>
  <fix>3d</fix>
</trkpt>
<trkpt lat="40.0730788" lon="-105.2297847">
  <ele>1583.0</ele>
  <time>2026-08-28T17:55:54Z</time>
  <course>179.01</course>
  <speed>1.52</speed>
  <fix>3d</fix>
</trkpt>
<trkpt lat="40.0730758" lon="-105.229785">
  <ele>1582.99</ele>
  <time>2026-08-28T17:55:54Z</time>
  <course>179.76</course>
  <speed>1.5</speed>
  <fix>3d</fix>
</trkpt>
<trkpt lat="40.0730788" lon="-105.2297847">
  <ele>1583.0</ele>
  <time>2026-08-28T17:55:54Z</time>
  <course>179.01</course>
  <speed>1.52</speed>
  <fix>3d</fix>
</trkpt>
<trkpt lat="40.0730744" lon="-105.229785">
  <ele>1582.99</ele>
  <time>2026-08-28T17:55:54Z</time>
  <course>179.76</course>
  <speed>1.5</speed>
  <fix>3d</fix>
</trkpt>
<trkpt lat="40.0730788" lon="-105.2297847">
  <ele>1583.0</ele>
  <time>2026-08-28T17:55:54Z</time>
  <course>179.01</course>
  <speed>1.52</speed>
  <fix>3d</fix>
</trkpt>
<trkpt lat="40.0730731" lon="-105.229785">
  <ele>1582.99</ele>
  <time>2026-08-28T17:55:54Z</time>
  <course>179.75</course>
  <speed>1.5</speed>
  <fix>3d</fix>
</trkpt>
<trkpt lat="40.0730761" lon="-105.2297847">
  <ele>1583.0</ele>
  <time>2026-08-28T17:55:54Z</time>
  <course>179.01</course>
  <speed>1.51</speed>
  <fix>3d</fix>
</trkpt>
<trkpt lat="40.0730717" lon="-105.2297849">
  <ele>1582.99</ele>
  <time>2026-08-28T17:55:54Z</time>
  <course>179.77</course>
  <speed>1.49</speed>
  <fix>3d</fix>
</trkpt>
<trkpt lat="40.0730761" lon="-105.2297847">
  <ele>1583.0</ele>
  <time>2026-08-28T17:55:54Z</time>
  <course>179.01</course>
  <speed>1.51</speed>
  <fix>3d</fix>
</trkpt>
<trkpt lat="40.0730704" lon="-105.2297849">
  <ele>1582.99</ele>
  <time>2026-08-28T17:55:54Z</time>
  <course>179.78</course>
  <speed>1.49</speed>
  <fix>3d</fix>
</trkpt>
<trkpt lat="40.0730734" lon="-105.2297846">
  <ele>1583.0</ele>
  <time>2026-08-28T17:55:54Z</time>
  <course>179.02</course>
  <speed>1.5</speed>
  <fix>3d</fix>
</trkpt>
<trkpt lat="40.073069" lon="-105.2297849">
  <ele>1583.0</ele>
  <time>2026-08-28T17:55:54Z</time>
  <course>179.79</course>
  <speed>1.49</speed>
  <fix>3d</fix>
</trkpt>
<trkpt lat="40.0730734" lon="-105.2297846">
  <ele>1583.0</ele>
  <time>2026-08-28T17:55:54Z</time>
  <course>179.02</course>
  <speed>1.5</speed>
  <fix>3d</fix>
</trkpt>
<trkpt lat="40.0730677" lon="-105.2297848">
  <ele>1583.0</ele>
  <time>2026-08-28T17:55:54Z</time>
  <course>179.81</course>
  <speed>1.48</speed>
  <fix>3d</fix>
</trkpt>
<trkpt lat="40.0730707" lon="-105.2297845">
  <ele>1583.0</ele>
  <time>2026-08-28T17:55:54Z</time>
  <course>179.04</course>
  <speed>1.5</speed>
  <fix>3d</fix>
</trkpt>
<trkpt lat="40.0730664" lon="-105.2297848">
  <ele>1583.0</ele>
  <time>2026-08-28T17:55:54Z</time>
  <course>179.83</course>
  <speed>1.48</speed>
  <fix>3d</fix>
</trkpt>
<trkpt lat="40.073068" lon="-105.2297844">
  <ele>1583.0</ele>
  <time>2026-08-28T17:55:54Z</time>
  <course>179.08</course>
  <speed>1.49</speed>
  <fix>3d</fix>
</trkpt>
<trkpt lat="40.073065" lon="-105.2297848">
  <ele>1583.0</ele>
  <time>2026-08-28T17:55:54Z</time>
  <course>179.84</course>
  <speed>1.48</speed>
  <fix>3d</fix>
</trkpt>
<trkpt lat="40.073068" lon="-105.2297844">
  <ele>1583.0</ele>
  <time>2026-08-28T17:55:54Z</time>
  <course>179.08</course>
  <speed>1.49</speed>
  <fix>3d</fix>
</trkpt>
<trkpt lat="40.0730637" lon="-105.2297848">
  <ele>1583.01</ele>
  <time>2026-08-28T17:55:54Z</time>
  <course>179.86</course>
  <speed>1.48</speed>
  <fix>3d</fix>
</trkpt>
<trkpt lat="40.0730653" lon="-105.2297844">
  <ele>1583.0</ele>
  <time>2026-08-28T17:55:54Z</time>
  <course>179.12</course>
  <speed>1.49</speed>
  <fix>3d</fix>
</trkpt>
<trkpt lat="40.0730623" lon="-105.2297847">
  <ele>1583.01</ele>
  <time>2026-08-28T17:55:54Z</time>
  <course>179.88</course>
  <speed>1.48</speed>
  <fix>3d</fix>
</trkpt>
<trkpt lat="40.0730653" lon="-105.2297844">
  <ele>1583.0</ele>
  <time>2026-08-28T17:55:54Z</time>
  <course>179.12</course>
  <speed>1.49</speed>
  <fix>3d</fix>
</trkpt>
<trkpt lat="40.073061" lon="-105.2297847">
  <ele>1583.02</ele>
  <time>2026-08-28T17:55:54Z</time>
  <course>179.9</course>
  <speed>1.48</speed>
  <fix>3d</fix>
</trkpt>
<trkpt lat="40.0730626" lon="-105.2297844">
  <ele>1583.0</ele>
  <time>2026-08-28T17:55:54Z</time>
  <course>179.16</course>
  <speed>1.49</speed>
  <fix>3d</fix>
</trkpt>
<trkpt lat="40.0730596" lon="-105.2297847">
  <ele>1583.02</ele>
  <time>2026-08-28T17:55:54Z</time>
  <course>179.91</course>
  <speed>1.48</speed>
  <fix>3d</fix>
</trkpt>
<trkpt lat="40.0730626" lon="-105.2297844">
  <ele>1583.0</ele>
  <time>2026-08-28T17:55:54Z</time>
  <course>179.16</course>
  <speed>1.49</speed>
  <fix>3d</fix>
</trkpt>
<trkpt lat="40.0730583" lon="-105.2297846">
  <ele>1583.02</ele>
  <time>2026-08-28T17:55:54Z</time>
  <course>179.93</course>
  <speed>1.48</speed>
  <fix>3d</fix>
</trkpt>
<trkpt lat="40.07306" lon="-105.2297843">
  <ele>1583.0</ele>
  <time>2026-08-28T17:55:54Z</time>
  <course>179.2</course>
  <speed>1.49</speed>
  <fix>3d</fix>
</trkpt>
<trkpt lat="40.0730569" lon="-105.2297846">
  <ele>1583.02</ele>
  <time>2026-08-28T17:55:54Z</time>
  <course>179.96</course>
  <speed>1.48</speed>
  <fix>3d</fix>
</trkpt>
<trkpt lat="40.07306" lon="-105.2297843">
  <ele>1583.0</ele>
  <time>2026-08-28T17:55:54Z</time>
  <course>179.2</course>
  <speed>1.49</speed>
  <fix>3d</fix>
</trkpt>
<trkpt lat="40.0730556" lon="-105.2297846">
  <ele>1583.02</ele>
  <time>2026-08-28T17:55:54Z</time>
  <course>179.98</course>
  <speed>1.49</speed>
  <fix>3d</fix>
</trkpt>
<trkpt lat="40.0730573" lon="-105.2297842">
  <ele>1583.0</ele>
  <time>2026-08-28T17:55:54Z</time>
  <course>179.25</course>
  <speed>1.49</speed>
  <fix>3d</fix>
</trkpt>
<trkpt lat="40.0730542" lon="-105.2297846">
  <ele>1583.01</ele>
  <time>2026-08-28T17:55:54Z</time>
  <course>180.02</course>
  <speed>1.49</speed>
  <fix>3d</fix>
</trkpt>
<trkpt lat="40.0730573" lon="-105.2297842">
  <ele>1583.0</ele>
  <time>2026-08-28T17:55:54Z</time>
  <course>179.25</course>
  <speed>1.49</speed>
  <fix>3d</fix>
</trkpt>
<trkpt lat="40.0730529" lon="-105.2297845">
  <ele>1583.01</ele>
  <time>2026-08-28T17:55:54Z</time>
  <course>180.05</course>
  <speed>1.49</speed>
  <fix>3d</fix>
</trkpt>
<trkpt lat="40.0730546" lon="-105.2297842">
  <ele>1583.0</ele>
  <time>2026-08-28T17:55:54Z</time>
  <course>179.31</course>
  <speed>1.49</speed>
  <fix>3d</fix>
</trkpt>
<trkpt lat="40.0730515" lon="-105.2297845">
  <ele>1583.0</ele>
  <time>2026-08-28T17:55:54Z</time>
  <course>180.08</course>
  <speed>1.4900335566691105</speed>
  <fix>3d</fix>
</trkpt>
<trkpt lat="40.0730546" lon="-105.2297842">
  <ele>1583.0</ele>
  <time>2026-08-28T17:55:54Z</time>
  <course>179.31</course>
  <speed>1.49</speed>
  <fix>3d</fix>
</trkpt>
<trkpt lat="40.0730502" lon="-105.2297845">
  <ele>1583.0</ele>
  <time>2026-08-28T17:55:54Z</time>
  <course>180.11</course>
  <speed>1.4900335566691105</speed>
  <fix>3d</fix>
</trkpt>
<trkpt lat="40.0730519" lon="-105.2297842">
  <ele>1583.0</ele>
  <time>2026-08-28T17:55:54Z</time>
  <course>179.38</course>
  <speed>1.49</speed>
  <fix>3d</fix>
</trkpt>
<trkpt lat="40.0730488" lon="-105.2297844">
  <ele>1583.0</ele>
  <time>2026-08-28T17:55:54Z</time>
  <course>180.15</course>
  <speed>1.4900335566691105</speed>
  <fix>3d</fix>
</trkpt>
<trkpt lat="40.0730519" lon="-105.2297842">
  <ele>1583.0</ele>
  <time>2026-08-28T17:55:54Z</time>
  <course>179.38</course>
  <speed>1.49</speed>
  <fix>3d</fix>
</trkpt>
<trkpt lat="40.0730475" lon="-105.2297844">
  <ele>1583.0</ele>
  <time>2026-08-28T17:55:54Z</time>
  <course>180.17</course>
  <speed>1.4900335566691105</speed>
  <fix>3d</fix>
</trkpt>
<trkpt lat="40.0730519" lon="-105.2297842">
  <ele>1583.0</ele>
  <time>2026-08-28T17:55:54Z</time>
  <course>179.38</course>
  <speed>1.49</speed>
  <fix>3d</fix>
</trkpt>
<trkpt lat="40.0730461" lon="-105.2297844">
  <ele>1582.99</ele>
  <time>2026-08-28T17:55:54Z</time>
  <course>180.2</course>
  <speed>1.4900335566691105</speed>
  <fix>3d</fix>
</trkpt>
<trkpt lat="40.0730492" lon="-105.2297842">
  <ele>1583.0</ele>
  <time>2026-08-28T17:55:54Z</time>
  <course>179.44</course>
  <speed>1.5</speed>
  <fix>3d</fix>
</trkpt>
<trkpt lat="40.0730448" lon="-105.2297844">
  <ele>1582.99</ele>
  <time>2026-08-28T17:55:54Z</time>
  <course>180.22</course>
  <speed>1.4900335566691105</speed>
  <fix>3d</fix>
</trkpt>
<trkpt lat="40.0730492" lon="-105.2297842">
  <ele>1583.0</ele>
  <time>2026-08-28T17:55:54Z</time>
  <course>179.44</course>
  <speed>1.5</speed>
  <fix>3d</fix>
</trkpt>
<trkpt lat="40.0730434" lon="-105.2297844">
  <ele>1582.99</ele>
  <time>2026-08-28T17:55:54Z</time>
  <course>180.25</course>
  <speed>1.4900335566691105</speed>
  <fix>3d</fix>
</trkpt>
<trkpt lat="40.0730465" lon="-105.2297841">
  <ele>1583.0</ele>
  <time>2026-08-28T17:55:54Z</time>
  <course>179.5</course>
  <speed>1.5</speed>
  <fix>3d</fix>
</trkpt>
<trkpt lat="40.0730421" lon="-105.2297844">
  <ele>1582.99</ele>
  <time>2026-08-28T17:55:54Z</time>
  <course>180.27</course>
  <speed>1.4900335566691105</speed>
  <fix>3d</fix>
</trkpt>
<trkpt lat="40.0730465" lon="-105.2297841">
  <ele>1583.0</ele>
  <time>2026-08-28T17:55:54Z</time>
  <course>179.5</course>
  <speed>1.5</speed>
  <fix>3d</fix>
</trkpt>
<trkpt lat="40.0730408" lon="-105.2297844">
  <ele>1582.99</ele>
  <time>2026-08-28T17:55:54Z</time>
  <course>180.29</course>
  <speed>1.4900335566691105</speed>
  <fix>3d</fix>
</trkpt>
<trkpt lat="40.0730438" lon="-105.229784">
  <ele>1583.0</ele>
  <time>2026-08-28T17:55:54Z</time>
  <course>179.55</course>
  <speed>1.5</speed>
  <fix>3d</fix>
</trkpt>
<trkpt lat="40.0730394" lon="-105.2297844">
  <ele>1582.99</ele>
  <time>2026-08-28T17:55:54Z</time>
  <course>180.32</course>
  <speed>1.4900335566691105</speed>
  <fix>3d</fix>
</trkpt>
<trkpt lat="40.0730411" lon="-105.229784">
  <ele>1583.0</ele>
  <time>2026-08-28T17:55:54Z</time>
  <course>179.6</course>
  <speed>1.5</speed>
  <fix>3d</fix>
</trkpt>
<trkpt lat="40.0730381" lon="-105.2297843">
  <ele>1582.99</ele>
  <time>2026-08-28T17:55:54Z</time>
  <course>180.35</course>
  <speed>1.4900335566691105</speed>
  <fix>3d</fix>
</trkpt>
<trkpt lat="40.0730411" lon="-105.229784">
  <ele>1583.0</ele>
  <time>2026-08-28T17:55:54Z</time>
  <course>179.6</course>
  <speed>1.5</speed>
  <fix>3d</fix>
</trkpt>
<trkpt lat="40.0730367" lon="-105.2297843">
  <ele>1582.99</ele>
  <time>2026-08-28T17:55:54Z</time>
  <course>180.38</course>
  <speed>1.4900335566691105</speed>
  <fix>3d</fix>
</trkpt>
<trkpt lat="40.0730384" lon="-105.229784">
  <ele>1583.0</ele>
  <time>2026-08-28T17:55:54Z</time>
  <course>179.65</course>
  <speed>1.5</speed>
  <fix>3d</fix>
</trkpt>
<trkpt lat="40.0730354" lon="-105.2297843">
  <ele>1582.99</ele>
  <time>2026-08-28T17:55:54Z</time>
  <course>180.4</course>
  <speed>1.4900335566691105</speed>
  <fix>3d</fix>
</trkpt>
<trkpt lat="40.0730384" lon="-105.229784">
  <ele>1583.0</ele>
  <time>2026-08-28T17:55:54Z</time>
  <course>179.65</course>
  <speed>1.5</speed>
  <fix>3d</fix>
</trkpt>
<trkpt lat="40.073034" lon="-105.2297843">
  <ele>1582.99</ele>
  <time>2026-08-28T17:55:54Z</time>
  <course>180.44</course>
  <speed>1.4900335566691105</speed>
  <fix>3d</fix>
</trkpt>
<trkpt lat="40.0730357" lon="-105.229784">
  <ele>1583.0</ele>
  <time>2026-08-28T17:55:54Z</time>
  <course>179.71</course>
  <speed>1.5</speed>
  <fix>3d</fix>
</trkpt>
<trkpt lat="40.0730327" lon="-105.2297843">
  <ele>1582.99</ele>
  <time>2026-08-28T17:55:54Z</time>
  <course>180.46</course>
  <speed>1.4900335566691105</speed>
  <fix>3d</fix>
</trkpt>
<trkpt lat="40.0730357" lon="-105.229784">
  <ele>1583.0</ele>
  <time>2026-08-28T17:55:54Z</time>
  <course>179.71</course>
  <speed>1.5</speed>
  <fix>3d</fix>
</trkpt>
<trkpt lat="40.0730313" lon="-105.2297843">
  <ele>1582.99</ele>
  <time>2026-08-28T17:55:54Z</time>
  <course>180.49</course>
  <speed>1.4900335566691105</speed>
  <fix>3d</fix>
</trkpt>
<trkpt lat="40.0730329" lon="-105.229784">
  <ele>1583.0</ele>
  <time>2026-08-28T17:55:54Z</time>
  <course>179.77</course>
  <speed>1.5</speed>
  <fix>3d</fix>
</trkpt>
<trkpt lat="40.0730299" lon="-105.2297843">
  <ele>1582.99</ele>
  <time>2026-08-28T17:55:54Z</time>
  <course>180.51</course>
  <speed>1.4900335566691105</speed>
  <fix>3d</fix>
</trkpt>
<trkpt lat="40.0730329" lon="-105.229784">
  <ele>1583.0</ele>
  <time>2026-08-28T17:55:54Z</time>
  <course>179.77</course>
  <speed>1.5</speed>
  <fix>3d</fix>
</trkpt>
<trkpt lat="40.0730286" lon="-105.2297843">
  <ele>1582.99</ele>
  <time>2026-08-28T17:55:54Z</time>
  <course>180.54</course>
  <speed>1.5000333329629711</speed>
  <fix>3d</fix>
</trkpt>
<trkpt lat="40.0730302" lon="-105.229784">
  <ele>1583.0</ele>
  <time>2026-08-28T17:55:54Z</time>
  <course>179.82</course>
  <speed>1.51</speed>
  <fix>3d</fix>
</trkpt>
<trkpt lat="40.0730272" lon="-105.2297842">
  <ele>1582.99</ele>
  <time>2026-08-28T17:55:54Z</time>
  <course>180.56</course>
  <speed>1.5000333329629711</speed>
  <fix>3d</fix>
</trkpt>
<trkpt lat="40.0730302" lon="-105.229784">
  <ele>1583.0</ele>
  <time>2026-08-28T17:55:54Z</time>
  <course>179.82</course>
  <speed>1.51</speed>
  <fix>3d</fix>
</trkpt>
<trkpt lat="40.0730258" lon="-105.2297842">
  <ele>1582.99</ele>
  <time>2026-08-28T17:55:54Z</time>
  <course>180.58</course>
  <speed>1.5000333329629711</speed>
  <fix>3d</fix>
</trkpt>
<trkpt lat="40.0730275" lon="-105.229784">
  <ele>1583.0</ele>
  <time>2026-08-28T17:55:54Z</time>
  <course>179.87</course>
  <speed>1.51</speed>
  <fix>3d</fix>
</trkpt>
<trkpt lat="40.0730245" lon="-105.2297842">
  <ele>1582.99</ele>
  <time>2026-08-28T17:55:54Z</time>
  <course>180.6</course>
  <speed>1.5000333329629711</speed>
  <fix>3d</fix>
</trkpt>
<trkpt lat="40.0730275" lon="-105.229784">
  <ele>1583.0</ele>
  <time>2026-08-28T17:55:54Z</time>
  <course>179.87</course>
  <speed>1.51</speed>
  <fix>3d</fix>
</trkpt>
<trkpt lat="40.0730231" lon="-105.2297842">
  <ele>1582.99</ele>
  <time>2026-08-28T17:55:54Z</time>
  <course>180.62</course>
  <speed>1.5000333329629711</speed>
  <fix>3d</fix>
</trkpt>
<trkpt lat="40.0730248" lon="-105.229784">
  <ele>1583.0</ele>
  <time>2026-08-28T17:55:54Z</time>
  <course>179.91</course>
  <speed>1.51</speed>
  <fix>3d</fix>
</trkpt>
<trkpt lat="40.0730217" lon="-105.2297842">
  <ele>1582.99</ele>
  <time>2026-08-28T17:55:54Z</time>
  <course>180.64</course>
  <speed>1.5000333329629711</speed>
  <fix>3d</fix>
</trkpt>
<trkpt lat="40.0730248" lon="-105.229784">
  <ele>1583.0</ele>
  <time>2026-08-28T17:55:54Z</time>
  <course>179.91</course>
  <speed>1.51</speed>
  <fix>3d</fix>
</trkpt>
<trkpt lat="40.0730204" lon="-105.2297842">
  <ele>1582.99</ele>
  <time>2026-08-28T17:55:54Z</time>
  <course>180.66</course>
  <speed>1.500133327407934</speed>
  <fix>3d</fix>
</trkpt>
<trkpt lat="40.0730248" lon="-105.229784">
  <ele>1583.0</ele>
  <time>2026-08-28T17:55:54Z</time>
  <course>179.91</course>
  <speed>1.51</speed>
  <fix>3d</fix>
</trkpt>
<trkpt lat="40.073019" lon="-105.2297842">
  <ele>1583.0</ele>
  <time>2026-08-28T17:55:54Z</time>
  <course>180.68</course>
  <speed>1.500133327407934</speed>
  <fix>3d</fix>
</trkpt>
<trkpt lat="40.0730221" lon="-105.229784">
  <ele>1583.0</ele>
  <time>2026-08-28T17:55:54Z</time>
  <course>179.95</course>
  <speed>1.51</speed>
  <fix>3d</fix>
</trkpt>
<trkpt lat="40.0730177" lon="-105.2297842">
  <ele>1583.0</ele>
  <time>2026-08-28T17:55:54Z</time>
  <course>180.7</course>
  <speed>1.500133327407934</speed>
  <fix>3d</fix>
</trkpt>
<trkpt lat="40.0730221" lon="-105.229784">
  <ele>1583.0</ele>
  <time>2026-08-28T17:55:54Z</time>
  <course>179.95</course>
  <speed>1.51</speed>
  <fix>3d</fix>
</trkpt>
<trkpt lat="40.0730163" lon="-105.2297842">
  <ele>1583.0</ele>
  <time>2026-08-28T17:55:54Z</time>
  <course>180.72</course>
  <speed>1.500133327407934</speed>
  <fix>3d</fix>
</trkpt>
<trkpt lat="40.0730193" lon="-105.229784">
  <ele>1583.0</ele>
  <time>2026-08-28T17:55:54Z</time>
  <course>179.99</course>
  <speed>1.51</speed>
  <fix>3d</fix>
</trkpt>
<trkpt lat="40.073015" lon="-105.2297842">
  <ele>1583.0</ele>
  <time>2026-08-28T17:55:54Z</time>
  <course>180.74</course>
  <speed>1.500133327407934</speed>
  <fix>3d</fix>
</trkpt>
<trkpt lat="40.0730193" lon="-105.229784">
  <ele>1583.0</ele>
  <time>2026-08-28T17:55:54Z</time>
  <course>179.99</course>
  <speed>1.51</speed>
  <fix>3d</fix>
</trkpt>
<trkpt lat="40.0730136" lon="-105.2297842">
  <ele>1583.0</ele>
  <time>2026-08-28T17:55:54Z</time>
  <course>180.76</course>
  <speed>1.500133327407934</speed>
  <fix>3d</fix>
</trkpt>
<trkpt lat="40.0730166" lon="-105.229784">
  <ele>1583.0</ele>
  <time>2026-08-28T17:55:54Z</time>
  <course>180.03</course>
  <speed>1.51</speed>
  <fix>3d</fix>
</trkpt>
<trkpt lat="40.0730123" lon="-105.2297842">
  <ele>1583.0</ele>
  <time>2026-08-28T17:55:54Z</time>
  <course>180.78</course>
  <speed>1.500133327407934</speed>
  <fix>3d</fix>
</trkpt>
<trkpt lat="40.0730166" lon="-105.229784">
  <ele>1583.0</ele>
  <time>2026-08-28T17:55:54Z</time>
  <course>180.03</course>
  <speed>1.51</speed>
  <fix>3d</fix>
</trkpt>
<trkpt lat="40.0730109" lon="-105.2297842">
  <ele>1583.0</ele>
  <time>2026-08-28T17:55:54Z</time>
  <course>180.79</course>
  <speed>1.4901342221424216</speed>
  <fix>3d</fix>
</trkpt>
<trkpt lat="40.0730139" lon="-105.229784">
  <ele>1583.0</ele>
  <time>2026-08-28T17:55:54Z</time>
  <course>180.07</course>
  <speed>1.51</speed>
  <fix>3d</fix>
</trkpt>
<trkpt lat="40.0730096" lon="-105.2297842">
  <ele>1583.01</ele>
  <time>2026-08-28T17:55:54Z</time>
  <course>180.81</course>
  <speed>1.4901342221424216</speed>
  <fix>3d</fix>
</trkpt>
<trkpt lat="40.0730112" lon="-105.229784">
  <ele>1583.0</ele>
  <time>2026-08-28T17:55:54Z</time>
  <course>180.1</course>
  <speed>1.51</speed>
  <fix>3d</fix>
</trkpt>
<trkpt lat="40.0730082" lon="-105.2297842">
  <ele>1583.01</ele>
  <time>2026-08-28T17:55:54Z</time>
  <course>180.82</course>
  <speed>1.4901342221424216</speed>
  <fix>3d</fix>
</trkpt>
<trkpt lat="40.0730112" lon="-105.229784">
  <ele>1583.0</ele>
  <time>2026-08-28T17:55:54Z</time>
  <course>180.1</course>
  <speed>1.51</speed>
  <fix>3d</fix>
</trkpt>
<trkpt lat="40.0730069" lon="-105.2297842">
  <ele>1583.01</ele>
  <time>2026-08-28T17:55:54Z</time>
  <course>180.82</course>
  <speed>1.4901342221424216</speed>
  <fix>3d</fix>
</trkpt>
<trkpt lat="40.0730085" lon="-105.229784">
  <ele>1583.0</ele>
  <time>2026-08-28T17:55:54Z</time>
  <course>180.12</course>
  <speed>1.51</speed>
  <fix>3d</fix>
</trkpt>
<trkpt lat="40.0730055" lon="-105.2297842">
  <ele>1583.01</ele>
  <time>2026-08-28T17:55:54Z</time>
  <course>180.83</course>
  <speed>1.4901342221424216</speed>
  <fix>3d</fix>
</trkpt>
<trkpt lat="40.0730085" lon="-105.229784">
  <ele>1583.0</ele>
  <time>2026-08-28T17:55:54Z</time>
  <course>180.12</course>
  <speed>1.51</speed>
  <fix>3d</fix>
</trkpt>
<trkpt lat="40.0730041" lon="-105.2297842">
  <ele>1583.01</ele>
  <time>2026-08-28T17:55:54Z</time>
  <course>180.84</course>
  <speed>1.4901342221424216</speed>
  <fix>3d</fix>
</trkpt>
<trkpt lat="40.0730058" lon="-105.229784">
  <ele>1583.0</ele>
  <time>2026-08-28T17:55:54Z</time>
  <course>180.14</course>
  <speed>1.51</speed>
  <fix>3d</fix>
</trkpt>
<trkpt lat="40.0730028" lon="-105.2297842">
  <ele>1583.01</ele>
  <time>2026-08-28T17:55:54Z</time>
  <course>180.85</course>
  <speed>1.4901342221424216</speed>
  <fix>3d</fix>
</trkpt>
<trkpt lat="40.0730058" lon="-105.229784">
  <ele>1583.0</ele>
  <time>2026-08-28T17:55:54Z</time>
  <course>180.14</course>
  <speed>1.51</speed>
  <fix>3d</fix>
</trkpt>
<trkpt lat="40.0730014" lon="-105.2297842">
  <ele>1583.01</ele>
  <time>2026-08-28T17:55:54Z</time>
  <course>180.85</course>
  <speed>1.4901342221424216</speed>
  <fix>3d</fix>
</trkpt>
<trkpt lat="40.073003" lon="-105.229784">
  <ele>1583.0</ele>
  <time>2026-08-28T17:55:54Z</time>
  <course>180.15</course>
  <speed>1.51</speed>
  <fix>3d</fix>
</trkpt>
<trkpt lat="40.073" lon="-105.2297842">
  <ele>1583.01</ele>
  <time>2026-08-28T17:55:54Z</time>
  <course>180.86</course>
  <speed>1.500133327407934</speed>
  <fix>3d</fix>
</trkpt>
<trkpt lat="40.073003" lon="-105.229784">
  <ele>1583.0</ele>
  <time>2026-08-28T17:55:54Z</time>
  <course>180.15</course>
  <speed>1.51</speed>
  <fix>3d</fix>
</trkpt>
<trkpt lat="40.0729987" lon="-105.2297842">
  <ele>1583.01</ele>
  <time>2026-08-28T17:55:54Z</time>
  <course>180.86</course>
  <speed>1.500133327407934</speed>
  <fix>3d</fix>
</trkpt>
<trkpt lat="40.0730003" lon="-105.229784">
  <ele>1583.0</ele>
  <time>2026-08-28T17:55:54Z</time>
  <course>180.16</course>
  <speed>1.51</speed>
  <fix>3d</fix>
</trkpt>
<trkpt lat="40.0729973" lon="-105.2297842">
  <ele>1583.01</ele>
  <time>2026-08-28T17:55:54Z</time>
  <course>180.87</course>
  <speed>1.500133327407934</speed>
  <fix>3d</fix>
</trkpt>
<trkpt lat="40.0730003" lon="-105.229784">
  <ele>1583.0</ele>
  <time>2026-08-28T17:55:54Z</time>
  <course>180.16</course>
  <speed>1.51</speed>
  <fix>3d</fix>
</trkpt>
<trkpt lat="40.0729959" lon="-105.2297842">
  <ele>1583.01</ele>
  <time>2026-08-28T17:55:54Z</time>
  <course>180.89</course>
  <speed>1.500133327407934</speed>
  <fix>3d</fix>
</trkpt>
<trkpt lat="40.0729976" lon="-105.229784">
  <ele>1583.0</ele>
  <time>2026-08-28T17:55:54Z</time>
  <course>180.18</course>
  <speed>1.51</speed>
  <fix>3d</fix>
</trkpt>
<trkpt lat="40.0729945" lon="-105.2297842">
  <ele>1583.01</ele>
  <time>2026-08-28T17:55:54Z</time>
  <course>180.89</course>
  <speed>1.500133327407934</speed>
  <fix>3d</fix>
</trkpt>
<trkpt lat="40.0729976" lon="-105.229784">
  <ele>1583.0</ele>
  <time>2026-08-28T17:55:54Z</time>
  <course>180.18</course>
  <speed>1.51</speed>
  <fix>3d</fix>
</trkpt>
<trkpt lat="40.0729932" lon="-105.2297842">
  <ele>1583.01</ele>
  <time>2026-08-28T17:55:54Z</time>
  <course>180.9</course>
  <speed>1.500133327407934</speed>
  <fix>3d</fix>
</trkpt>
<trkpt lat="40.0729949" lon="-105.229784">
  <ele>1583.0</ele>
  <time>2026-08-28T17:55:54Z</time>
  <course>180.19</course>
  <speed>1.51</speed>
  <fix>3d</fix>
</trkpt>
<trkpt lat="40.0729918" lon="-105.2297842">
  <ele>1583.01</ele>
  <time>2026-08-28T17:55:54Z</time>
  <course>180.91</course>
  <speed>1.500133327407934</speed>
  <fix>3d</fix>
</trkpt>
<trkpt lat="40.0729949" lon="-105.229784">
  <ele>1583.0</ele>
  <time>2026-08-28T17:55:54Z</time>
  <course>180.19</course>
  <speed>1.51</speed>
  <fix>3d</fix>
</trkpt>
<trkpt lat="40.0729905" lon="-105.2297842">
  <ele>1583.01</ele>
  <time>2026-08-28T17:55:54Z</time>
  <course>180.91</course>
  <speed>1.500133327407934</speed>
  <fix>3d</fix>
</trkpt>
<trkpt lat="40.0729949" lon="-105.229784">
  <ele>1583.0</ele>
  <time>2026-08-28T17:55:54Z</time>
  <course>180.19</course>
  <speed>1.51</speed>
  <fix>3d</fix>
</trkpt>
<trkpt lat="40.0729891" lon="-105.2297842">
  <ele>1583.01</ele>
  <time>2026-08-28T17:55:54Z</time>
  <course>180.92</course>
  <speed>1.500133327407934</speed>
  <fix>3d</fix>
</trkpt>
<trkpt lat="40.0729921" lon="-105.229784">
  <ele>1583.0</ele>
  <time>2026-08-28T17:55:54Z</time>
  <course>180.21</course>
  <speed>1.51</speed>
  <fix>3d</fix>
</trkpt>
<trkpt lat="40.0729877" lon="-105.2297842">
  <ele>1583.01</ele>
  <time>2026-08-28T17:55:54Z</time>
  <course>180.93</course>
  <speed>1.4901342221424216</speed>
  <fix>3d</fix>
</trkpt>
<trkpt lat="40.0729921" lon="-105.229784">
  <ele>1583.0</ele>
  <time>2026-08-28T17:55:54Z</time>
  <course>180.21</course>
  <speed>1.51</speed>
  <fix>3d</fix>
</trkpt>
<trkpt lat="40.0729864" lon="-105.2297842">
  <ele>1583.01</ele>
  <time>2026-08-28T17:55:54Z</time>
  <course>180.94</course>
  <speed>1.4901342221424216</speed>
  <fix>3d</fix>
</trkpt>
<trkpt lat="40.0729894" lon="-105.229784">
  <ele>1583.0</ele>
  <time>2026-08-28T17:55:54Z</time>
  <course>180.22</course>
  <speed>1.51</speed>
  <fix>3d</fix>
</trkpt>
<trkpt lat="40.0729851" lon="-105.2297842">
  <ele>1583.01</ele>
  <time>2026-08-28T17:55:54Z</time>
  <course>180.95</course>
  <speed>1.4901342221424216</speed>
  <fix>3d</fix>
</trkpt>
<trkpt lat="40.0729894" lon="-105.229784">
  <ele>1583.0</ele>
  <time>2026-08-28T17:55:54Z</time>
  <course>180.22</course>
  <speed>1.51</speed>
  <fix>3d</fix>
</trkpt>
<trkpt lat="40.0729837" lon="-105.2297842">
  <ele>1583.0</ele>
  <time>2026-08-28T17:55:54Z</time>
  <course>180.96</course>
  <speed>1.4901342221424216</speed>
  <fix>3d</fix>
</trkpt>
<trkpt lat="40.0729867" lon="-105.229784">
  <ele>1583.0</ele>
  <time>2026-08-28T17:55:54Z</time>
  <course>180.24</course>
  <speed>1.51</speed>
  <fix>3d</fix>
</trkpt>
<trkpt lat="40.0729823" lon="-105.2297842">
  <ele>1583.0</ele>
  <time>2026-08-28T17:55:54Z</time>
  <course>180.97</course>
  <speed>1.4901342221424216</speed>
  <fix>3d</fix>
</trkpt>
<trkpt lat="40.072984" lon="-105.229784">
  <ele>1583.0</ele>
  <time>2026-08-28T17:55:54Z</time>
  <course>180.25</course>
  <speed>1.51</speed>
  <fix>3d</fix>
</trkpt>
<trkpt lat="40.072981" lon="-105.2297842">
  <ele>1583.0</ele>
  <time>2026-08-28T17:55:54Z</time>
  <course>180.98</course>
  <speed>1.4901342221424216</speed>
  <fix>3d</fix>
</trkpt>
<trkpt lat="40.072984" lon="-105.229784">
  <ele>1583.0</ele>
  <time>2026-08-28T17:55:54Z</time>
  <course>180.25</course>
  <speed>1.51</speed>
  <fix>3d</fix>
</trkpt>
<trkpt lat="40.0729796" lon="-105.2297842">
  <ele>1582.99</ele>
  <time>2026-08-28T17:55:54Z</time>
  <course>180.99</course>
  <speed>1.4901342221424216</speed>
  <fix>3d</fix>
</trkpt>
<trkpt lat="40.0729812" lon="-105.229784">
  <ele>1583.0</ele>
  <time>2026-08-28T17:55:54Z</time>
  <course>180.27</course>
  <speed>1.51</speed>
  <fix>3d</fix>
</trkpt>
<trkpt lat="40.0729783" lon="-105.2297842">
  <ele>1582.99</ele>
  <time>2026-08-28T17:55:54Z</time>
  <course>181.01</course>
  <speed>1.4901342221424216</speed>
  <fix>3d</fix>
</trkpt>
<trkpt lat="40.0729812" lon="-105.229784">
  <ele>1583.0</ele>
  <time>2026-08-28T17:55:54Z</time>
  <course>180.27</course>
  <speed>1.51</speed>
  <fix>3d</fix>
</trkpt>
<trkpt lat="40.0729769" lon="-105.2297842">
  <ele>1582.99</ele>
  <time>2026-08-28T17:55:54Z</time>
  <course>181.02</course>
  <speed>1.4901342221424216</speed>
  <fix>3d</fix>
</trkpt>
<trkpt lat="40.0729785" lon="-105.229784">
  <ele>1583.0</ele>
  <time>2026-08-28T17:55:54Z</time>
  <course>180.3</course>
  <speed>1.51</speed>
  <fix>3d</fix>
</trkpt>
<trkpt lat="40.0729755" lon="-105.2297842">
  <ele>1582.99</ele>
  <time>2026-08-28T17:55:54Z</time>
  <course>181.03</course>
  <speed>1.4901342221424216</speed>
  <fix>3d</fix>
</trkpt>
<trkpt lat="40.0729785" lon="-105.229784">
  <ele>1583.0</ele>
  <time>2026-08-28T17:55:54Z</time>
  <course>180.3</course>
  <speed>1.51</speed>
  <fix>3d</fix>
</trkpt>
<trkpt lat="40.0729742" lon="-105.2297842">
  <ele>1582.99</ele>
  <time>2026-08-28T17:55:54Z</time>
  <course>181.03</course>
  <speed>1.4401388821915753</speed>
  <fix>3d</fix>
</trkpt>
<trkpt lat="40.0729758" lon="-105.229784">
  <ele>1583.0</ele>
  <time>2026-08-28T17:55:54Z</time>
  <course>180.31</course>
  <speed>1.49</speed>
  <fix>3d</fix>
</trkpt>
<trkpt lat="40.0729729" lon="-105.2297842">
  <ele>1582.99</ele>
  <time>2026-08-28T17:55:54Z</time>
  <course>181.03</course>
  <speed>1.3701459776242821</speed>
  <fix>3d</fix>
</trkpt>
<trkpt lat="40.0729758" lon="-105.229784">
  <ele>1583.0</ele>
  <time>2026-08-28T17:55:54Z</time>
  <course>180.31</course>
  <speed>1.49</speed>
  <fix>3d</fix>
</trkpt>
<trkpt lat="40.0729717" lon="-105.2297842">
  <ele>1582.99</ele>
  <time>2026-08-28T17:55:54Z</time>
  <course>181.03</course>
  <speed>1.3001538370516004</speed>
  <fix>3d</fix>
</trkpt>
<trkpt lat="40.0729732" lon="-105.229784">
  <ele>1583.0</ele>
  <time>2026-08-28T17:55:54Z</time>
  <course>180.32</course>
  <speed>1.39</speed>
  <fix>3d</fix>
</trkpt>
<trkpt lat="40.0729705" lon="-105.2297842">
  <ele>1582.99</ele>
  <time>2026-08-28T17:55:54Z</time>
  <course>181.03</course>
  <speed>1.2300406497347964</speed>
  <fix>3d</fix>
</trkpt>
<trkpt lat="40.0729732" lon="-105.229784">
  <ele>1583.0</ele>
  <time>2026-08-28T17:55:54Z</time>
  <course>180.32</course>
  <speed>1.39</speed>
  <fix>3d</fix>
</trkpt>
<trkpt lat="40.0729694" lon="-105.2297842">
  <ele>1582.99</ele>
  <time>2026-08-28T17:55:54Z</time>
  <course>181.03</course>
  <speed>1.2200409829181968</speed>
  <fix>3d</fix>
</trkpt>
<trkpt lat="40.0729708" lon="-105.229784">
  <ele>1583.0</ele>
  <time>2026-08-28T17:55:54Z</time>
  <course>180.32</course>
  <speed>1.28</speed>
  <fix>3d</fix>
</trkpt>
<trkpt lat="40.0729683" lon="-105.2297842">
  <ele>1582.99</ele>
  <time>2026-08-28T17:55:54Z</time>
  <course>181.03</course>
  <speed>1.2100413216084813</speed>
  <fix>3d</fix>
</trkpt>
<trkpt lat="40.0729708" lon="-105.229784">
  <ele>1583.0</ele>
  <time>2026-08-28T17:55:54Z</time>
  <course>180.32</course>
  <speed>1.28</speed>
  <fix>3d</fix>
</trkpt>
<trkpt lat="40.0729672" lon="-105.2297842">
  <ele>1582.99</ele>
  <time>2026-08-28T17:55:54Z</time>
  <course>181.04</course>
  <speed>1.1800423721205946</speed>
  <fix>3d</fix>
</trkpt>
<trkpt lat="40.0729685" lon="-105.229784">
  <ele>1583.0</ele>
  <time>2026-08-28T17:55:54Z</time>
  <course>180.32</course>
  <speed>1.22</speed>
  <fix>3d</fix>
</trkpt>
<trkpt lat="40.0729662" lon="-105.2297842">
  <ele>1582.99</ele>
  <time>2026-08-28T17:55:54Z</time>
  <course>181.03</course>
  <speed>1.1300442469213319</speed>
  <fix>3d</fix>
</trkpt>
<trkpt lat="40.0729685" lon="-105.229784">
  <ele>1583.0</ele>
  <time>2026-08-28T17:55:54Z</time>
  <course>180.32</course>
  <speed>1.22</speed>
  <fix>3d</fix>
</trkpt>
<trkpt lat="40.0729651" lon="-105.2297842">
  <ele>1582.99</ele>
  <time>2026-08-28T17:55:54Z</time>
  <course>181.02</course>
  <speed>1.0700467279516348</speed>
  <fix>3d</fix>
</trkpt>
<trkpt lat="40.0729685" lon="-105.229784">
  <ele>1583.0</ele>
  <time>2026-08-28T17:55:54Z</time>
  <course>180.32</course>
  <speed>1.22</speed>
  <fix>3d</fix>
</trkpt>
<trkpt lat="40.0729642" lon="-105.2297842">
  <ele>1582.99</ele>
  <time>2026-08-28T17:55:54Z</time>
  <course>181.0</course>
  <speed>1.0000499987500624</speed>
  <fix>3d</fix>
</trkpt>
<trkpt lat="40.0729664" lon="-105.2297841">
  <ele>1583.0</ele>
  <time>2026-08-28T17:55:54Z</time>
  <course>180.31</course>
  <speed>1.15</speed>
  <fix>3d</fix>
</trkpt>
<trkpt lat="40.0729633" lon="-105.2297842">
  <ele>1582.99</ele>
  <time>2026-08-28T17:55:54Z</time>
  <course>180.97</course>
  <speed>0.9100549433962765</speed>
  <fix>3d</fix>
</trkpt>
<trkpt lat="40.0729664" lon="-105.2297841">
  <ele>1583.0</ele>
  <time>2026-08-28T17:55:54Z</time>
  <course>180.31</course>
  <speed>1.15</speed>
  <fix>3d</fix>
</trkpt>
<trkpt lat="40.0729626" lon="-105.2297842">
  <ele>1583.0</ele>
  <time>2026-08-28T17:55:54Z</time>
  <course>180.93</course>
  <speed>0.82</speed>
  <fix>3d</fix>
</trkpt>
<trkpt lat="40.0729645" lon="-105.2297842">
  <ele>1583.0</ele>
  <time>2026-08-28T17:55:54Z</time>
  <course>180.27</course>
  <speed>1.02</speed>
  <fix>3d</fix>
</trkpt>
<trkpt lat="40.0729619" lon="-105.2297842">
  <ele>1583.0</ele>
  <time>2026-08-28T17:55:54Z</time>
  <course>180.89</course>
  <speed>0.71</speed>
  <fix>3d</fix>
</trkpt>
<trkpt lat="40.0729645" lon="-105.2297842">
  <ele>1583.0</ele>
  <time>2026-08-28T17:55:54Z</time>
  <course>180.27</course>
  <speed>1.02</speed>
  <fix>3d</fix>
</trkpt>
<trkpt lat="40.0729613" lon="-105.2297842">
  <ele>1583.0</ele>
  <time>2026-08-28T17:55:54Z</time>
  <course>180.85</course>
  <speed>0.61</speed>
  <fix>3d</fix>
</trkpt>
<trkpt lat="40.0729628" lon="-105.2297842">
  <ele>1583.0</ele>
  <time>2026-08-28T17:55:54Z</time>
  <course>180.21</course>
  <speed>0.84</speed>
  <fix>3d</fix>
</trkpt>
<trkpt lat="40.0729608" lon="-105.2297842">
  <ele>1583.01</ele>
  <time>2026-08-28T17:55:54Z</time>
  <course>180.8</course>
  <speed>0.54</speed>
  <fix>3d</fix>
</trkpt>
<trkpt lat="40.0729628" lon="-105.2297842">
  <ele>1583.0</ele>
  <time>2026-08-28T17:55:54Z</time>
  <course>180.21</course>
  <speed>0.84</speed>
  <fix>3d</fix>
</trkpt>
<trkpt lat="40.0729603" lon="-105.2297842">
  <ele>1583.01</ele>
  <time>2026-08-28T17:55:54Z</time>
  <course>180.76</course>
  <speed>0.49</speed>
  <fix>3d</fix>
</trkpt>
<trkpt lat="40.0729614" lon="-105.2297842">
  <ele>1583.0</ele>
  <time>2026-08-28T17:55:54Z</time>
  <course>180.12</course>
  <speed>0.66</speed>
  <fix>3d</fix>
</trkpt>
<trkpt lat="40.0729599" lon="-105.2297842">
  <ele>1583.01</ele>
  <time>2026-08-28T17:55:54Z</time>
  <course>180.72</course>
  <speed>0.46</speed>
  <fix>3d</fix>
</trkpt>
<trkpt lat="40.0729604" lon="-105.2297842">
  <ele>1583.0</ele>
  <time>2026-08-28T17:55:54Z</time>
  <course>180.03</course>
  <speed>0.54</speed>
  <fix>3d</fix>
</trkpt>
<trkpt lat="40.0729594" lon="-105.2297842">
  <ele>1583.01</ele>
  <time>2026-08-28T17:55:54Z</time>
  <course>180.68</course>
  <speed>0.46</speed>
  <fix>3d</fix>
</trkpt>
<trkpt lat="40.0729604" lon="-105.2297842">
  <ele>1583.0</ele>
  <time>2026-08-28T17:55:54Z</time>
  <course>180.03</course>
  <speed>0.54</speed>
  <fix>3d</fix>
</trkpt>
<trkpt lat="40.072959" lon="-105.2297842">
  <ele>1583.01</ele>
  <time>2026-08-28T17:55:54Z</time>
  <course>180.63</course>
  <speed>0.48</speed>
  <fix>3d</fix>
</trkpt>
<trkpt lat="40.0729594" lon="-105.2297842">
  <ele>1583.0</ele>
  <time>2026-08-28T17:55:54Z</time>
  <course>179.94</course>
  <speed>0.51</speed>
  <fix>3d</fix>
</trkpt>
<trkpt lat="40.0729585" lon="-105.2297842">
  <ele>1583.01</ele>
  <time>2026-08-28T17:55:54Z</time>
  <course>180.59</course>
  <speed>0.52</speed>
  <fix>3d</fix>
</trkpt>
<trkpt lat="40.0729594" lon="-105.2297842">
  <ele>1583.0</ele>
  <time>2026-08-28T17:55:54Z</time>
  <course>179.94</course>
  <speed>0.51</speed>
  <fix>3d</fix>
</trkpt>
<trkpt lat="40.072958" lon="-105.2297842">
  <ele>1583.01</ele>
  <time>2026-08-28T17:55:54Z</time>
  <course>180.54</course>
  <speed>0.58</speed>
  <fix>3d</fix>
</trkpt>
<trkpt lat="40.0729585" lon="-105.2297842">
  <ele>1583.0</ele>
  <time>2026-08-28T17:55:54Z</time>
  <course>179.85</course>
  <speed>0.57</speed>
  <fix>3d</fix>
</trkpt>
<trkpt lat="40.0729574" lon="-105.2297842">
  <ele>1583.01</ele>
  <time>2026-08-28T17:55:54Z</time>
  <course>180.49</course>
  <speed>0.66</speed>
  <fix>3d</fix>
</trkpt>
<trkpt lat="40.0729585" lon="-105.2297842">
  <ele>1583.0</ele>
  <time>2026-08-28T17:55:54Z</time>
  <course>179.85</course>
  <speed>0.57</speed>
  <fix>3d</fix>
</trkpt>
<trkpt lat="40.0729568" lon="-105.2297842">
  <ele>1583.01</ele>
  <time>2026-08-28T17:55:54Z</time>
  <course>180.44</course>
  <speed>0.750066663703967</speed>
  <fix>3d</fix>
</trkpt>
<trkpt lat="40.0729573" lon="-105.2297842">
  <ele>1583.0</ele>
  <time>2026-08-28T17:55:54Z</time>
  <course>179.75</course>
  <speed>0.7</speed>
  <fix>3d</fix>
</trkpt>
<trkpt lat="40.072956" lon="-105.2297842">
  <ele>1583.02</ele>
  <time>2026-08-28T17:55:54Z</time>
  <course>180.4</course>
  <speed>0.8500588214941364</speed>
  <fix>3d</fix>
</trkpt>
<trkpt lat="40.0729573" lon="-105.2297842">
  <ele>1583.0</ele>
  <time>2026-08-28T17:55:54Z</time>
  <course>179.75</course>
  <speed>0.7</speed>
  <fix>3d</fix>
</trkpt>
<trkpt lat="40.0729552" lon="-105.2297842">
  <ele>1583.02</ele>
  <time>2026-08-28T17:55:54Z</time>
  <course>180.35</course>
  <speed>0.9600520819205591</speed>
  <fix>3d</fix>
</trkpt>
<trkpt lat="40.0729558" lon="-105.2297842">
  <ele>1583.0</ele>
  <time>2026-08-28T17:55:54Z</time>
  <course>179.65</course>
  <speed>0.89</speed>
  <fix>3d</fix>
</trkpt>
<trkpt lat="40.0729542" lon="-105.2297842">
  <ele>1583.02</ele>
  <time>2026-08-28T17:55:54Z</time>
  <course>180.31</course>
  <speed>1.0800462953040486</speed>
  <fix>3d</fix>
</trkpt>
<trkpt lat="40.0729558" lon="-105.2297842">
  <ele>1583.0</ele>
  <time>2026-08-28T17:55:54Z</time>
  <course>179.65</course>
  <speed>0.89</speed>
  <fix>3d</fix>
</trkpt>
<trkpt lat="40.0729531" lon="-105.2297842">
  <ele>1583.02</ele>
  <time>2026-08-28T17:55:54Z</time>
  <course>180.28</course>
  <speed>1.2000416659433122</speed>
  <fix>3d</fix>
</trkpt>
<trkpt lat="40.0729541" lon="-105.2297842">
  <ele>1583.0</ele>
  <time>2026-08-28T17:55:54Z</time>
  <course>179.57</course>
  <speed>1.11</speed>
  <fix>3d</fix>
</trkpt>
<trkpt lat="40.0729519" lon="-105.2297842">
  <ele>1583.02</ele>
  <time>2026-08-28T17:55:54Z</time>
  <course>180.24</course>
  <speed>1.3200378782444084</speed>
  <fix>3d</fix>
</trkpt>
<trkpt lat="40.0729541" lon="-105.2297842">
  <ele>1583.0</ele>
  <time>2026-08-28T17:55:54Z</time>
  <course>179.57</course>
  <speed>1.11</speed>
  <fix>3d</fix>
</trkpt>
<trkpt lat="40.0729506" lon="-105.2297842">
  <ele>1583.02</ele>
  <time>2026-08-28T17:55:54Z</time>
  <course>180.22</course>
  <speed>1.4500344823486093</speed>
  <fix>3d</fix>
</trkpt>
<trkpt lat="40.0729519" lon="-105.2297842">
  <ele>1583.0</ele>
  <time>2026-08-28T17:55:54Z</time>
  <course>179.5</course>
  <speed>1.35</speed>
  <fix>3d</fix>
</trkpt>
<trkpt lat="40.0729492" lon="-105.2297842">
  <ele>1583.03</ele>
  <time>2026-08-28T17:55:54Z</time>
  <course>180.2</course>
  <speed>1.5700318468107581</speed>
  <fix>3d</fix>
</trkpt>
<trkpt lat="40.0729519" lon="-105.2297842">
  <ele>1583.0</ele>
  <time>2026-08-28T17:55:54Z</time>
  <course>179.5</course>
  <speed>1.35</speed>
  <fix>3d</fix>
</trkpt>
<trkpt lat="40.0729477" lon="-105.2297842">
  <ele>1583.03</ele>
  <time>2026-08-28T17:55:54Z</time>
  <course>180.18</course>
  <speed>1.7000294115102832</speed>
  <fix>3d</fix>
</trkpt>
<trkpt lat="40.0729519" lon="-105.2297842">
  <ele>1583.0</ele>
  <time>2026-08-28T17:55:54Z</time>
  <course>179.5</course>
  <speed>1.35</speed>
  <fix>3d</fix>
</trkpt>
<trkpt lat="40.072946" lon="-105.2297842">
  <ele>1583.04</ele>
  <time>2026-08-28T17:55:54Z</time>
  <course>180.15</course>
  <speed>1.8200274723201295</speed>
  <fix>3d</fix>
</trkpt>
<trkpt lat="40.0729492" lon="-105.2297842">
  <ele>1583.0</ele>
  <time>2026-08-28T17:55:54Z</time>
  <course>179.45</course>
  <speed>1.59</speed>
  <fix>3d</fix>
</trkpt>
<trkpt lat="40.0729443" lon="-105.2297842">
  <ele>1583.04</ele>
  <time>2026-08-28T17:55:54Z</time>
  <course>180.14</course>
  <speed>1.9400257730246782</speed>
  <fix>3d</fix>
</trkpt>
<trkpt lat="40.0729492" lon="-105.2297842">
  <ele>1583.0</ele>
  <time>2026-08-28T17:55:54Z</time>
  <course>179.45</course>
  <speed>1.59</speed>
  <fix>3d</fix>
</trkpt>
<trkpt lat="40.0729425" lon="-105.2297842">
  <ele>1583.04</ele>
  <time>2026-08-28T17:55:54Z</time>
  <course>180.14</course>
  <speed>2.060024271701671</speed>
  <fix>3d</fix>
</trkpt>
<trkpt lat="40.0729461" lon="-105.2297841">
  <ele>1583.0</ele>
  <time>2026-08-28T17:55:54Z</time>
  <course>179.41</course>
  <speed>1.84</speed>
  <fix>3d</fix>
</trkpt>
<trkpt lat="40.0729405" lon="-105.2297842">
  <ele>1583.04</ele>
  <time>2026-08-28T17:55:54Z</time>
  <course>180.13</course>
  <speed>2.180022935659164</speed>
  <fix>3d</fix>
</trkpt>
<trkpt lat="40.0729461" lon="-105.2297841">
  <ele>1583.0</ele>
  <time>2026-08-28T17:55:54Z</time>
  <course>179.41</course>
  <speed>1.84</speed>
  <fix>3d</fix>
</trkpt>
<trkpt lat="40.0729385" lon="-105.2297842">
  <ele>1583.04</ele>
  <time>2026-08-28T17:55:54Z</time>
  <course>180.13</course>
  <speed>2.2900218339570477</speed>
  <fix>3d</fix>
</trkpt>
<trkpt lat="40.0729426" lon="-105.229784">
  <ele>1583.0</ele>
  <time>2026-08-28T17:55:54Z</time>
  <course>179.39</course>
  <speed>2.07</speed>
  <fix>3d</fix>
</trkpt>
<trkpt lat="40.0729363" lon="-105.2297842">
  <ele>1583.04</ele>
  <time>2026-08-28T17:55:54Z</time>
  <course>180.13</course>
  <speed>2.4000208332429116</speed>
  <fix>3d</fix>
</trkpt>
<trkpt lat="40.0729386" lon="-105.229784">
  <ele>1583.0</ele>
  <time>2026-08-28T17:55:54Z</time>
  <course>179.39</course>
  <speed>2.3</speed>
  <fix>3d</fix>
</trkpt>
<trkpt lat="40.0729341" lon="-105.2297842">
  <ele>1583.04</ele>
  <time>2026-08-28T17:55:54Z</time>
  <course>180.12</course>
  <speed>2.510019920239678</speed>
  <fix>3d</fix>
</trkpt>
<trkpt lat="40.0729386" lon="-105.229784">
  <ele>1583.0</ele>
  <time>2026-08-28T17:55:54Z</time>
  <course>179.39</course>
  <speed>2.3</speed>
  <fix>3d</fix>
</trkpt>
<trkpt lat="40.0729317" lon="-105.2297842">
  <ele>1583.04</ele>
  <time>2026-08-28T17:55:54Z</time>
  <course>180.12</course>
  <speed>2.620019083899963</speed>
  <fix>3d</fix>
</trkpt>
<trkpt lat="40.0729343" lon="-105.229784">
  <ele>1583.0</ele>
  <time>2026-08-28T17:55:54Z</time>
  <course>179.39</course>
  <speed>2.51</speed>
  <fix>3d</fix>
</trkpt>
<trkpt lat="40.0729293" lon="-105.2297842">
  <ele>1583.04</ele>
  <time>2026-08-28T17:55:54Z</time>
  <course>180.12</course>
  <speed>2.7200183822908257</speed>
  <fix>3d</fix>
</trkpt>
<trkpt lat="40.0729343" lon="-105.229784">
  <ele>1583.0</ele>
  <time>2026-08-28T17:55:54Z</time>
  <course>179.39</course>
  <speed>2.51</speed>
  <fix>3d</fix>
</trkpt>
<trkpt lat="40.0729267" lon="-105.2297842">
  <ele>1583.04</ele>
  <time>2026-08-28T17:55:54Z</time>
  <course>180.11</course>
  <speed>2.8200177304407146</speed>
  <fix>3d</fix>
</trkpt>
<trkpt lat="40.0729296" lon="-105.2297839">
  <ele>1583.0</ele>
  <time>2026-08-28T17:55:54Z</time>
  <course>179.39</course>
  <speed>2.72</speed>
  <fix>3d</fix>
</trkpt>
<trkpt lat="40.0729241" lon="-105.2297842">
  <ele>1583.04</ele>
  <time>2026-08-28T17:55:54Z</time>
  <course>180.11</course>
  <speed>2.9200171232374648</speed>
  <fix>3d</fix>
</trkpt>
<trkpt lat="40.0729296" lon="-105.2297839">
  <ele>1583.0</ele>
  <time>2026-08-28T17:55:54Z</time>
  <course>179.39</course>
  <speed>2.72</speed>
  <fix>3d</fix>
</trkpt>
<trkpt lat="40.0729214" lon="-105.2297842">
  <ele>1583.03</ele>
  <time>2026-08-28T17:55:54Z</time>
  <course>180.1</course>
  <speed>3.0200165562460084</speed>
  <fix>3d</fix>
</trkpt>
<trkpt lat="40.0729245" lon="-105.2297838">
  <ele>1583.0</ele>
  <time>2026-08-28T17:55:54Z</time>
  <course>179.39</course>
  <speed>2.91</speed>
  <fix>3d</fix>
</trkpt>
<trkpt lat="40.0729185" lon="-105.2297841">
  <ele>1583.03</ele>
  <time>2026-08-28T17:55:54Z</time>
  <course>180.1</course>
  <speed>3.11</speed>
  <fix>3d</fix>
</trkpt>
<trkpt lat="40.0729245" lon="-105.2297838">
  <ele>1583.0</ele>
  <time>2026-08-28T17:55:54Z</time>
  <course>179.39</course>
  <speed>2.91</speed>
  <fix>3d</fix>
</trkpt>
<trkpt lat="40.0729156" lon="-105.2297841">
  <ele>1583.02</ele>
  <time>2026-08-28T17:55:54Z</time>
  <course>180.09</course>
  <speed>3.21</speed>
  <fix>3d</fix>
</trkpt>
<trkpt lat="40.0729192" lon="-105.2297837">
  <ele>1583.0</ele>
  <time>2026-08-28T17:55:54Z</time>
  <course>179.39</course>
  <speed>3.1</speed>
  <fix>3d</fix>
</trkpt>
<trkpt lat="40.0729127" lon="-105.2297841">
  <ele>1583.02</ele>
  <time>2026-08-28T17:55:54Z</time>
  <course>180.08</course>
  <speed>3.3</speed>
  <fix>3d</fix>
</trkpt>
<trkpt lat="40.0729192" lon="-105.2297837">
  <ele>1583.0</ele>
  <time>2026-08-28T17:55:54Z</time>
  <course>179.39</course>
  <speed>3.1</speed>
  <fix>3d</fix>
</trkpt>
<trkpt lat="40.0729096" lon="-105.229784">
  <ele>1583.02</ele>
  <time>2026-08-28T17:55:54Z</time>
  <course>180.08</course>
  <speed>3.39</speed>
  <fix>3d</fix>
</trkpt>
<trkpt lat="40.0729134" lon="-105.2297837">
  <ele>1583.0</ele>
  <time>2026-08-28T17:55:54Z</time>
  <course>179.39</course>
  <speed>3.28</speed>
  <fix>3d</fix>
</trkpt>
<trkpt lat="40.0729065" lon="-105.229784">
  <ele>1583.02</ele>
  <time>2026-08-28T17:55:54Z</time>
  <course>180.07</course>
  <speed>3.48</speed>
  <fix>3d</fix>
</trkpt>
<trkpt lat="40.0729134" lon="-105.2297837">
  <ele>1583.0</ele>
  <time>2026-08-28T17:55:54Z</time>
  <course>179.39</course>
  <speed>3.28</speed>
  <fix>3d</fix>
</trkpt>
<trkpt lat="40.0729033" lon="-105.229784">
  <ele>1583.02</ele>
  <time>2026-08-28T17:55:54Z</time>
  <course>180.07</course>
  <speed>3.57</speed>
  <fix>3d</fix>
</trkpt>
<trkpt lat="40.0729074" lon="-105.2297836">
  <ele>1583.0</ele>
  <time>2026-08-28T17:55:54Z</time>
  <course>179.39</course>
  <speed>3.46</speed>
  <fix>3d</fix>
</trkpt>
<trkpt lat="40.0729" lon="-105.2297839">
  <ele>1583.02</ele>
  <time>2026-08-28T17:55:54Z</time>
  <course>180.06</course>
  <speed>3.66</speed>
  <fix>3d</fix>
</trkpt>
<trkpt lat="40.0729074" lon="-105.2297836">
  <ele>1583.0</ele>
  <time>2026-08-28T17:55:54Z</time>
  <course>179.39</course>
  <speed>3.46</speed>
  <fix>3d</fix>
</trkpt>
<trkpt lat="40.0728966" lon="-105.2297839">
  <ele>1583.02</ele>
  <time>2026-08-28T17:55:54Z</time>
  <course>180.05</course>
  <speed>3.75</speed>
  <fix>3d</fix>
</trkpt>
<trkpt lat="40.0729074" lon="-105.2297836">
  <ele>1583.0</ele>
  <time>2026-08-28T17:55:54Z</time>
  <course>179.39</course>
  <speed>3.46</speed>
  <fix>3d</fix>
</trkpt>
<trkpt lat="40.0728932" lon="-105.2297838">
  <ele>1583.03</ele>
  <time>2026-08-28T17:55:54Z</time>
  <course>180.05</course>
  <speed>3.83</speed>
  <fix>3d</fix>
</trkpt>
<trkpt lat="40.072901" lon="-105.2297835">
  <ele>1583.0</ele>
  <time>2026-08-28T17:55:54Z</time>
  <course>179.39</course>
  <speed>3.63</speed>
  <fix>3d</fix>
</trkpt>
<trkpt lat="40.0728898" lon="-105.2297838">
  <ele>1583.03</ele>
  <time>2026-08-28T17:55:54Z</time>
  <course>180.04</course>
  <speed>3.92</speed>
  <fix>3d</fix>
</trkpt>
<trkpt lat="40.072901" lon="-105.2297835">
  <ele>1583.0</ele>
  <time>2026-08-28T17:55:54Z</time>
  <course>179.39</course>
  <speed>3.63</speed>
  <fix>3d</fix>
</trkpt>
<trkpt lat="40.0728862" lon="-105.2297837">
  <ele>1583.03</ele>
  <time>2026-08-28T17:55:54Z</time>
  <course>180.04</course>
  <speed>4.01</speed>
  <fix>3d</fix>
</trkpt>
<trkpt lat="40.0728943" lon="-105.2297834">
  <ele>1583.0</ele>
  <time>2026-08-28T17:55:54Z</time>
  <course>179.39</course>
  <speed>3.81</speed>
  <fix>3d</fix>
</trkpt>
<trkpt lat="40.0728826" lon="-105.2297837">
  <ele>1583.04</ele>
  <time>2026-08-28T17:55:54Z</time>
  <course>180.03</course>
  <speed>4.1</speed>
  <fix>3d</fix>
</trkpt>
<trkpt lat="40.0728943" lon="-105.2297834">
  <ele>1583.0</ele>
  <time>2026-08-28T17:55:54Z</time>
  <course>179.39</course>
  <speed>3.81</speed>
  <fix>3d</fix>
</trkpt>
<trkpt lat="40.0728789" lon="-105.2297836">
  <ele>1583.04</ele>
  <time>2026-08-28T17:55:54Z</time>
  <course>180.02</course>
  <speed>4.19</speed>
  <fix>3d</fix>
</trkpt>
<trkpt lat="40.0728873" lon="-105.2297833">
  <ele>1583.0</ele>
  <time>2026-08-28T17:55:54Z</time>
  <course>179.39</course>
  <speed>3.99</speed>
  <fix>3d</fix>
</trkpt>
<trkpt lat="40.0728751" lon="-105.2297836">
  <ele>1583.05</ele>
  <time>2026-08-28T17:55:54Z</time>
  <course>180.02</course>
  <speed>4.28</speed>
  <fix>3d</fix>
</trkpt>
<trkpt lat="40.0728873" lon="-105.2297833">
  <ele>1583.0</ele>
  <time>2026-08-28T17:55:54Z</time>
  <course>179.39</course>
  <speed>3.99</speed>
  <fix>3d</fix>
</trkpt>
<trkpt lat="40.0728712" lon="-105.2297835">
  <ele>1583.05</ele>
  <time>2026-08-28T17:55:54Z</time>
  <course>180.01</course>
  <speed>4.37</speed>
  <fix>3d</fix>
</trkpt>
<trkpt lat="40.0728799" lon="-105.2297832">
  <ele>1583.0</ele>
  <time>2026-08-28T17:55:54Z</time>
  <course>179.39</course>
  <speed>4.17</speed>
  <fix>3d</fix>
</trkpt>
<trkpt lat="40.0728673" lon="-105.2297835">
  <ele>1583.04</ele>
  <time>2026-08-28T17:55:54Z</time>
  <course>180.02</course>
  <speed>4.47</speed>
  <fix>3d</fix>
</trkpt>
<trkpt lat="40.0728723" lon="-105.2297831">
  <ele>1583.0</ele>
  <time>2026-08-28T17:55:54Z</time>
  <course>179.4</course>
  <speed>4.36</speed>
  <fix>3d</fix>
</trkpt>
<trkpt lat="40.0728632" lon="-105.2297834">
  <ele>1583.05</ele>
  <time>2026-08-28T17:55:54Z</time>
  <course>180.04</course>
  <speed>4.57</speed>
  <fix>3d</fix>
</trkpt>
<trkpt lat="40.0728723" lon="-105.2297831">
  <ele>1583.0</ele>
  <time>2026-08-28T17:55:54Z</time>
  <course>179.4</course>
  <speed>4.36</speed>
  <fix>3d</fix>
</trkpt>
<trkpt lat="40.0728591" lon="-105.2297834">
  <ele>1583.05</ele>
  <time>2026-08-28T17:55:54Z</time>
  <course>180.04</course>
  <speed>4.66</speed>
  <fix>3d</fix>
</trkpt>
<trkpt lat="40.0728643" lon="-105.229783">
  <ele>1583.0</ele>
  <time>2026-08-28T17:55:54Z</time>
  <course>179.42</course>
  <speed>4.55</speed>
  <fix>3d</fix>
</trkpt>
<trkpt lat="40.0728548" lon="-105.2297833">
  <ele>1583.05</ele>
  <time>2026-08-28T17:55:54Z</time>
  <course>180.05</course>
  <speed>4.760010504190091</speed>
  <fix>3d</fix>
</trkpt>
<trkpt lat="40.0728643" lon="-105.229783">
  <ele>1583.0</ele>
  <time>2026-08-28T17:55:54Z</time>
  <course>179.42</course>
  <speed>4.55</speed>
  <fix>3d</fix>
</trkpt>
<trkpt lat="40.0728504" lon="-105.2297832">
  <ele>1583.05</ele>
  <time>2026-08-28T17:55:54Z</time>
  <course>180.07</course>
  <speed>4.86</speed>
  <fix>3d</fix>
</trkpt>
<trkpt lat="40.0728559" lon="-105.2297829">
  <ele>1583.0</ele>
  <time>2026-08-28T17:55:54Z</time>
  <course>179.46</course>
  <speed>4.75</speed>
  <fix>3d</fix>
</trkpt>
<trkpt lat="40.072846" lon="-105.2297832">
  <ele>1583.05</ele>
  <time>2026-08-28T17:55:54Z</time>
  <course>180.07</course>
  <speed>4.970010060351991</speed>
  <fix>3d</fix>
</trkpt>
<trkpt lat="40.0728559" lon="-105.2297829">
  <ele>1583.0</ele>
  <time>2026-08-28T17:55:54Z</time>
  <course>179.46</course>
  <speed>4.75</speed>
  <fix>3d</fix>
</trkpt>
<trkpt lat="40.0728414" lon="-105.2297831">
  <ele>1583.05</ele>
  <time>2026-08-28T17:55:54Z</time>
  <course>180.09</course>
  <speed>5.07</speed>
  <fix>3d</fix>
</trkpt>
<trkpt lat="40.0728472" lon="-105.2297828">
  <ele>1583.0</ele>
  <time>2026-08-28T17:55:54Z</time>
  <course>179.49</course>
  <speed>4.94</speed>
  <fix>3d</fix>
</trkpt>
<trkpt lat="40.0728367" lon="-105.2297831">
  <ele>1583.04</ele>
  <time>2026-08-28T17:55:54Z</time>
  <course>180.1</course>
  <speed>5.170009671170838</speed>
  <fix>3d</fix>
</trkpt>
<trkpt lat="40.0728472" lon="-105.2297828">
  <ele>1583.0</ele>
  <time>2026-08-28T17:55:54Z</time>
  <course>179.49</course>
  <speed>4.94</speed>
  <fix>3d</fix>
</trkpt>
<trkpt lat="40.072832" lon="-105.229783">
  <ele>1583.04</ele>
  <time>2026-08-28T17:55:54Z</time>
  <course>180.11</course>
  <speed>5.27</speed>
  <fix>3d</fix>
</trkpt>
<trkpt lat="40.0728381" lon="-105.2297827">
  <ele>1583.0</ele>
  <time>2026-08-28T17:55:54Z</time>
  <course>179.52</course>
  <speed>5.14</speed>
  <fix>3d</fix>
</trkpt>
<trkpt lat="40.0728272" lon="-105.229783">
  <ele>1583.04</ele>
  <time>2026-08-28T17:55:54Z</time>
  <course>180.11</course>
  <speed>5.380009293672271</speed>
  <fix>3d</fix>
</trkpt>
<trkpt lat="40.0728381" lon="-105.2297827">
  <ele>1583.0</ele>
  <time>2026-08-28T17:55:54Z</time>
  <course>179.52</course>
  <speed>5.14</speed>
  <fix>3d</fix>
</trkpt>
<trkpt lat="40.0728223" lon="-105.2297829">
  <ele>1583.04</ele>
  <time>2026-08-28T17:55:54Z</time>
  <course>180.12</course>
  <speed>5.480009124079995</speed>
  <fix>3d</fix>
</trkpt>
<trkpt lat="40.0728287" lon="-105.2297826">
  <ele>1583.0</ele>
  <time>2026-08-28T17:55:54Z</time>
  <course>179.54</course>
  <speed>5.35</speed>
  <fix>3d</fix>
</trkpt>
<trkpt lat="40.0728173" lon="-105.2297829">
  <ele>1583.04</ele>
  <time>2026-08-28T17:55:54Z</time>
  <course>180.13</course>
  <speed>5.580008960566282</speed>
  <fix>3d</fix>
</trkpt>
<trkpt lat="40.0728287" lon="-105.2297826">
  <ele>1583.0</ele>
  <time>2026-08-28T17:55:54Z</time>
  <course>179.54</course>
  <speed>5.35</speed>
  <fix>3d</fix>
</trkpt>
<trkpt lat="40.0728122" lon="-105.2297828">
  <ele>1583.04</ele>
  <time>2026-08-28T17:55:54Z</time>
  <course>180.14</course>
  <speed>5.68000880281008</speed>
  <fix>3d</fix>
</trkpt>
<trkpt lat="40.0728287" lon="-105.2297826">
  <ele>1583.0</ele>
  <time>2026-08-28T17:55:54Z</time>
  <course>179.54</course>
  <speed>5.35</speed>
  <fix>3d</fix>
</trkpt>
<trkpt lat="40.072807" lon="-105.2297828">
  <ele>1583.04</ele>
  <time>2026-08-28T17:55:54Z</time>
  <course>180.15</course>
  <speed>5.78</speed>
  <fix>3d</fix>
</trkpt>
<trkpt lat="40.0728189" lon="-105.2297825">
  <ele>1583.0</ele>
  <time>2026-08-28T17:55:54Z</time>
  <course>179.56</course>
  <speed>5.55</speed>
  <fix>3d</fix>
</trkpt>
<trkpt lat="40.0728018" lon="-105.2297827">
  <ele>1583.04</ele>
  <time>2026-08-28T17:55:54Z</time>
  <course>180.15</course>
  <speed>5.880008503395212</speed>
  <fix>3d</fix>
</trkpt>
<trkpt lat="40.0728189" lon="-105.2297825">
  <ele>1583.0</ele>
  <time>2026-08-28T17:55:54Z</time>
  <course>179.56</course>
  <speed>5.55</speed>
  <fix>3d</fix>
</trkpt>
<trkpt lat="40.0727965" lon="-105.2297827">
  <ele>1583.04</ele>
  <time>2026-08-28T17:55:54Z</time>
  <course>180.16</course>
  <speed>5.980008361198168</speed>
  <fix>3d</fix>
</trkpt>
<trkpt lat="40.0728087" lon="-105.2297824">
  <ele>1583.0</ele>
  <time>2026-08-28T17:55:54Z</time>
  <course>179.59</course>
  <speed>5.75</speed>
  <fix>3d</fix>
</trkpt>
<trkpt lat="40.0727912" lon="-105.2297826">
  <ele>1583.04</ele>
  <time>2026-08-28T17:55:54Z</time>
  <course>180.16</course>
  <speed>6.080008223678649</speed>
  <fix>3d</fix>
</trkpt>
<trkpt lat="40.0728087" lon="-105.2297824">
  <ele>1583.0</ele>
  <time>2026-08-28T17:55:54Z</time>
  <course>179.59</course>
  <speed>5.75</speed>
  <fix>3d</fix>
</trkpt>
<trkpt lat="40.0727857" lon="-105.2297826">
  <ele>1583.04</ele>
  <time>2026-08-28T17:55:54Z</time>
  <course>180.17</course>
  <speed>6.1700081037223935</speed>
  <fix>3d</fix>
</trkpt>
<trkpt lat="40.0727982" lon="-105.2297823">
  <ele>1583.0</ele>
  <time>2026-08-28T17:55:54Z</time>
  <course>179.6</course>
  <speed>5.95</speed>
  <fix>3d</fix>
</trkpt>
<trkpt lat="40.0727801" lon="-105.2297825">
  <ele>1583.04</ele>
  <time>2026-08-28T17:55:54Z</time>
  <course>180.19</course>
  <speed>6.27</speed>
  <fix>3d</fix>
</trkpt>
<trkpt lat="40.0727982" lon="-105.2297823">
  <ele>1583.0</ele>
  <time>2026-08-28T17:55:54Z</time>
  <course>179.6</course>
  <speed>5.95</speed>
  <fix>3d</fix>
</trkpt>
<trkpt lat="40.0727745" lon="-105.2297825">
  <ele>1583.04</ele>
  <time>2026-08-28T17:55:54Z</time>
  <course>180.18</course>
  <speed>6.370007849288728</speed>
  <fix>3d</fix>
</trkpt>
<trkpt lat="40.0727873" lon="-105.2297822">
  <ele>1583.0</ele>
  <time>2026-08-28T17:55:54Z</time>
  <course>179.63</course>
  <speed>6.15</speed>
  <fix>3d</fix>
</trkpt>
<trkpt lat="40.0727687" lon="-105.2297824">
  <ele>1583.05</ele>
  <time>2026-08-28T17:55:54Z</time>
  <course>180.2</course>
  <speed>6.47</speed>
  <fix>3d</fix>
</trkpt>
<trkpt lat="40.0727761" lon="-105.2297821">
  <ele>1583.0</ele>
  <time>2026-08-28T17:55:54Z</time>
  <course>179.65</course>
  <speed>6.35</speed>
  <fix>3d</fix>
</trkpt>
<trkpt lat="40.0727629" lon="-105.2297824">
  <ele>1583.04</ele>
  <time>2026-08-28T17:55:54Z</time>
  <course>180.19</course>
  <speed>6.580007598779807</speed>
  <fix>3d</fix>
</trkpt>
<trkpt lat="40.0727761" lon="-105.2297821">
  <ele>1583.0</ele>
  <time>2026-08-28T17:55:54Z</time>
  <course>179.65</course>
  <speed>6.35</speed>
  <fix>3d</fix>
</trkpt>
<trkpt lat="40.0727569" lon="-105.2297823">
  <ele>1583.04</ele>
  <time>2026-08-28T17:55:54Z</time>
  <course>180.21</course>
  <speed>6.68</speed>
  <fix>3d</fix>
</trkpt>
<trkpt lat="40.0727645" lon="-105.229782">
  <ele>1583.0</ele>
  <time>2026-08-28T17:55:54Z</time>
  <course>179.67</course>
  <speed>6.56</speed>
  <fix>3d</fix>
</trkpt>
<trkpt lat="40.0727508" lon="-105.2297823">
  <ele>1583.05</ele>
  <time>2026-08-28T17:55:54Z</time>
  <course>180.21</course>
  <speed>6.7800073746272576</speed>
  <fix>3d</fix>
</trkpt>
<trkpt lat="40.0727645" lon="-105.229782">
  <ele>1583.0</ele>
  <time>2026-08-28T17:55:54Z</time>
  <course>179.67</course>
  <speed>6.56</speed>
  <fix>3d</fix>
</trkpt>
<trkpt lat="40.0727447" lon="-105.2297822">
  <ele>1583.04</ele>
  <time>2026-08-28T17:55:54Z</time>
  <course>180.22</course>
  <speed>6.88</speed>
  <fix>3d</fix>
</trkpt>
<trkpt lat="40.0727525" lon="-105.2297819">
  <ele>1583.0</ele>
  <time>2026-08-28T17:55:54Z</time>
  <course>179.69</course>
  <speed>6.76</speed>
  <fix>3d</fix>
</trkpt>
<trkpt lat="40.0727384" lon="-105.2297822">
  <ele>1583.04</ele>
  <time>2026-08-28T17:55:54Z</time>
  <course>180.22</course>
  <speed>6.990007153072163</speed>
  <fix>3d</fix>
</trkpt>
<trkpt lat="40.0727525" lon="-105.2297819">
  <ele>1583.0</ele>
  <time>2026-08-28T17:55:54Z</time>
  <course>179.69</course>
  <speed>6.76</speed>
  <fix>3d</fix>
</trkpt>
<trkpt lat="40.072732" lon="-105.2297821">
  <ele>1583.04</ele>
  <time>2026-08-28T17:55:54Z</time>
  <course>180.24</course>
  <speed>7.09</speed>
  <fix>3d</fix>
</trkpt>
<trkpt lat="40.0727401" lon="-105.2297818">
  <ele>1583.0</ele>
  <time>2026-08-28T17:55:54Z</time>
  <course>179.71</course>
  <speed>6.97</speed>
  <fix>3d</fix>
</trkpt>
<trkpt lat="40.0727255" lon="-105.2297821">
  <ele>1583.04</ele>
  <time>2026-08-28T17:55:54Z</time>
  <course>180.24</course>
  <speed>7.2</speed>
  <fix>3d</fix>
</trkpt>
<trkpt lat="40.0727401" lon="-105.2297818">
  <ele>1583.0</ele>
  <time>2026-08-28T17:55:54Z</time>
  <course>179.71</course>
  <speed>6.97</speed>
  <fix>3d</fix>
</trkpt>
<trkpt lat="40.0727189" lon="-105.229782">
  <ele>1583.03</ele>
  <time>2026-08-28T17:55:54Z</time>
  <course>180.25</course>
  <speed>7.29</speed>
  <fix>3d</fix>
</trkpt>
<trkpt lat="40.0727274" lon="-105.2297818">
  <ele>1583.0</ele>
  <time>2026-08-28T17:55:54Z</time>
  <course>179.73</course>
  <speed>7.17</speed>
  <fix>3d</fix>
</trkpt>
<trkpt lat="40.0727123" lon="-105.229782">
  <ele>1583.03</ele>
  <time>2026-08-28T17:55:54Z</time>
  <course>180.25</course>
  <speed>7.39</speed>
  <fix>3d</fix>
</trkpt>
<trkpt lat="40.0727274" lon="-105.2297818">
  <ele>1583.0</ele>
  <time>2026-08-28T17:55:54Z</time>
  <course>179.73</course>
  <speed>7.17</speed>
  <fix>3d</fix>
</trkpt>
<trkpt lat="40.0727055" lon="-105.229782">
  <ele>1583.03</ele>
  <time>2026-08-28T17:55:54Z</time>
  <course>180.27</course>
  <speed>7.47</speed>
  <fix>3d</fix>
</trkpt>
<trkpt lat="40.0727143" lon="-105.2297817">
  <ele>1583.0</ele>
  <time>2026-08-28T17:55:54Z</time>
  <course>179.75</course>
  <speed>7.35</speed>
  <fix>3d</fix>
</trkpt>
<trkpt lat="40.0726987" lon="-105.2297819">
  <ele>1583.03</ele>
  <time>2026-08-28T17:55:54Z</time>
  <course>180.27</course>
  <speed>7.55</speed>
  <fix>3d</fix>
</trkpt>
<trkpt lat="40.0727143" lon="-105.2297817">
  <ele>1583.0</ele>
  <time>2026-08-28T17:55:54Z</time>
  <course>179.75</course>
  <speed>7.35</speed>
  <fix>3d</fix>
</trkpt>
<trkpt lat="40.0726919" lon="-105.2297819">
  <ele>1583.03</ele>
  <time>2026-08-28T17:55:54Z</time>
  <course>180.29</course>
  <speed>7.62</speed>
  <fix>3d</fix>
</trkpt>
<trkpt lat="40.072701" lon="-105.2297816">
  <ele>1583.0</ele>
  <time>2026-08-28T17:55:54Z</time>
  <course>179.77</course>
  <speed>7.51</speed>
  <fix>3d</fix>
</trkpt>
<trkpt lat="40.072685" lon="-105.2297818">
  <ele>1583.02</ele>
  <time>2026-08-28T17:55:54Z</time>
  <course>180.31</course>
  <speed>7.67</speed>
  <fix>3d</fix>
</trkpt>
<trkpt lat="40.072701" lon="-105.2297816">
  <ele>1583.0</ele>
  <time>2026-08-28T17:55:54Z</time>
  <course>179.77</course>
  <speed>7.51</speed>
  <fix>3d</fix>
</trkpt>
<trkpt lat="40.072678" lon="-105.2297818">
  <ele>1583.02</ele>
  <time>2026-08-28T17:55:54Z</time>
  <course>180.31</course>
  <speed>7.72</speed>
  <fix>3d</fix>
</trkpt>
<trkpt lat="40.072701" lon="-105.2297816">
  <ele>1583.0</ele>
  <time>2026-08-28T17:55:54Z</time>
  <course>179.77</course>
  <speed>7.51</speed>
  <fix>3d</fix>
</trkpt>
<trkpt lat="40.0726711" lon="-105.2297818">
  <ele>1583.02</ele>
  <time>2026-08-28T17:55:54Z</time>
  <course>180.33</course>
  <speed>7.75</speed>
  <fix>3d</fix>
</trkpt>
<trkpt lat="40.0726873" lon="-105.2297816">
  <ele>1583.0</ele>
  <time>2026-08-28T17:55:54Z</time>
  <course>179.79</course>
  <speed>7.63</speed>
  <fix>3d</fix>
</trkpt>
<trkpt lat="40.0726642" lon="-105.2297818">
  <ele>1583.02</ele>
  <time>2026-08-28T17:55:54Z</time>
  <course>180.35</course>
  <speed>7.77</speed>
  <fix>3d</fix>
</trkpt>
<trkpt lat="40.0726873" lon="-105.2297816">
  <ele>1583.0</ele>
  <time>2026-08-28T17:55:54Z</time>
  <course>179.79</course>
  <speed>7.63</speed>
  <fix>3d</fix>
</trkpt>
<trkpt lat="40.0726573" lon="-105.2297817">
  <ele>1583.01</ele>
  <time>2026-08-28T17:55:54Z</time>
  <course>180.37</course>
  <speed>7.77</speed>
  <fix>3d</fix>
</trkpt>
<trkpt lat="40.0726736" lon="-105.2297815">
  <ele>1583.0</ele>
  <time>2026-08-28T17:55:54Z</time>
  <course>179.82</course>
  <speed>7.71</speed>
  <fix>3d</fix>
</trkpt>
<trkpt lat="40.0726504" lon="-105.2297817">
  <ele>1583.01</ele>
  <time>2026-08-28T17:55:54Z</time>
  <course>180.39</course>
  <speed>7.77</speed>
  <fix>3d</fix>
</trkpt>
<trkpt lat="40.0726736" lon="-105.2297815">
  <ele>1583.0</ele>
  <time>2026-08-28T17:55:54Z</time>
  <course>179.82</course>
  <speed>7.71</speed>
  <fix>3d</fix>
</trkpt>
<trkpt lat="40.0726435" lon="-105.2297817">
  <ele>1583.02</ele>
  <time>2026-08-28T17:55:54Z</time>
  <course>180.42</course>
  <speed>7.76</speed>
  <fix>3d</fix>
</trkpt>
<trkpt lat="40.0726597" lon="-105.2297815">
  <ele>1583.0</ele>
  <time>2026-08-28T17:55:54Z</time>
  <course>179.86</course>
  <speed>7.74</speed>
  <fix>3d</fix>
</trkpt>
<trkpt lat="40.0726365" lon="-105.2297817">
  <ele>1583.01</ele>
  <time>2026-08-28T17:55:54Z</time>
  <course>180.46</course>
  <speed>7.740006459945624</speed>
  <fix>3d</fix>
</trkpt>
<trkpt lat="40.0726458" lon="-105.2297814">
  <ele>1583.0</ele>
  <time>2026-08-28T17:55:54Z</time>
  <course>179.91</course>
  <speed>7.74</speed>
  <fix>3d</fix>
</trkpt>
<trkpt lat="40.0726296" lon="-105.2297817">
  <ele>1583.02</ele>
  <time>2026-08-28T17:55:54Z</time>
  <course>180.46</course>
  <speed>7.720006476681221</speed>
  <fix>3d</fix>
</trkpt>
<trkpt lat="40.0726458" lon="-105.2297814">
  <ele>1583.0</ele>
  <time>2026-08-28T17:55:54Z</time>
  <course>179.91</course>
  <speed>7.74</speed>
  <fix>3d</fix>
</trkpt>
<trkpt lat="40.0726227" lon="-105.2297817">
  <ele>1583.01</ele>
  <time>2026-08-28T17:55:54Z</time>
  <course>180.51</course>
  <speed>7.700006493503755</speed>
  <fix>3d</fix>
</trkpt>
<trkpt lat="40.0726319" lon="-105.2297813">
  <ele>1583.0</ele>
  <time>2026-08-28T17:55:54Z</time>
  <course>179.97</course>
  <speed>7.71</speed>
  <fix>3d</fix>
</trkpt>
<trkpt lat="40.0726158" lon="-105.2297816">
  <ele>1583.01</ele>
  <time>2026-08-28T17:55:54Z</time>
  <course>180.51</course>
  <speed>7.670006518902054</speed>
  <fix>3d</fix>
</trkpt>
<trkpt lat="40.0726319" lon="-105.2297813">
  <ele>1583.0</ele>
  <time>2026-08-28T17:55:54Z</time>
  <course>179.97</course>
  <speed>7.71</speed>
  <fix>3d</fix>
</trkpt>
<trkpt lat="40.072609" lon="-105.2297816">
  <ele>1583.01</ele>
  <time>2026-08-28T17:55:54Z</time>
  <course>180.55</course>
  <speed>7.640006544499815</speed>
  <fix>3d</fix>
</trkpt>
<trkpt lat="40.0726181" lon="-105.2297813">
  <ele>1583.0</ele>
  <time>2026-08-28T17:55:54Z</time>
  <course>180.01</course>
  <speed>7.66</speed>
  <fix>3d</fix>
</trkpt>
<trkpt lat="40.0726021" lon="-105.2297816">
  <ele>1583.01</ele>
  <time>2026-08-28T17:55:54Z</time>
  <course>180.55</course>
  <speed>7.610006570299397</speed>
  <fix>3d</fix>
</trkpt>
<trkpt lat="40.0726181" lon="-105.2297813">
  <ele>1583.0</ele>
  <time>2026-08-28T17:55:54Z</time>
  <course>180.01</course>
  <speed>7.66</speed>
  <fix>3d</fix>
</trkpt>
<trkpt lat="40.0725953" lon="-105.2297816">
  <ele>1583.0</ele>
  <time>2026-08-28T17:55:54Z</time>
  <course>180.59</course>
  <speed>7.580026385178353</speed>
  <fix>3d</fix>
</trkpt>
<trkpt lat="40.0726044" lon="-105.2297813">
  <ele>1583.0</ele>
  <time>2026-08-28T17:55:54Z</time>
  <course>180.05</course>
  <speed>7.6</speed>
  <fix>3d</fix>
</trkpt>
<trkpt lat="40.0725884" lon="-105.2297816">
  <ele>1583.0</ele>
  <time>2026-08-28T17:55:54Z</time>
  <course>180.6</course>
  <speed>7.540026525152282</speed>
  <fix>3d</fix>
</trkpt>
<trkpt lat="40.0726044" lon="-105.2297813">
  <ele>1583.0</ele>
  <time>2026-08-28T17:55:54Z</time>
  <course>180.05</course>
  <speed>7.6</speed>
  <fix>3d</fix>
</trkpt>
<trkpt lat="40.0725816" lon="-105.2297816">
  <ele>1583.0</ele>
  <time>2026-08-28T17:55:54Z</time>
  <course>180.62</course>
  <speed>7.510026631111238</speed>
  <fix>3d</fix>
</trkpt>
<trkpt lat="40.0725908" lon="-105.2297813">
  <ele>1583.0</ele>
  <time>2026-08-28T17:55:54Z</time>
  <course>180.08</course>
  <speed>7.54</speed>
  <fix>3d</fix>
</trkpt>
<trkpt lat="40.0725748" lon="-105.2297816">
  <ele>1583.01</ele>
  <time>2026-08-28T17:55:54Z</time>
  <course>180.64</course>
  <speed>7.480026737920126</speed>
  <fix>3d</fix>
</trkpt>
<trkpt lat="40.0725908" lon="-105.2297813">
  <ele>1583.0</ele>
  <time>2026-08-28T17:55:54Z</time>
  <course>180.08</course>
  <speed>7.54</speed>
  <fix>3d</fix>
</trkpt>
<trkpt lat="40.0725681" lon="-105.2297816">
  <ele>1583.01</ele>
  <time>2026-08-28T17:55:54Z</time>
  <course>180.64</course>
  <speed>7.450026845589216</speed>
  <fix>3d</fix>
</trkpt>
<trkpt lat="40.0725773" lon="-105.2297813">
  <ele>1583.0</ele>
  <time>2026-08-28T17:55:54Z</time>
  <course>180.1</course>
  <speed>7.48</speed>
  <fix>3d</fix>
</trkpt>
<trkpt lat="40.0725614" lon="-105.2297816">
  <ele>1583.01</ele>
  <time>2026-08-28T17:55:54Z</time>
  <course>180.67</course>
  <speed>7.430026917851644</speed>
  <fix>3d</fix>
</trkpt>
<trkpt lat="40.0725773" lon="-105.2297813">
  <ele>1583.0</ele>
  <time>2026-08-28T17:55:54Z</time>
  <course>180.1</course>
  <speed>7.48</speed>
  <fix>3d</fix>
</trkpt>
<trkpt lat="40.0725547" lon="-105.2297816">
  <ele>1583.01</ele>
  <time>2026-08-28T17:55:54Z</time>
  <course>180.71</course>
  <speed>7.400027026977671</speed>
  <fix>3d</fix>
</trkpt>
<trkpt lat="40.0725639" lon="-105.2297813">
  <ele>1583.0</ele>
  <time>2026-08-28T17:55:54Z</time>
  <course>180.14</course>
  <speed>7.43</speed>
  <fix>3d</fix>
</trkpt>
<trkpt lat="40.0725481" lon="-105.2297816">
  <ele>1583.01</ele>
  <time>2026-08-28T17:55:54Z</time>
  <course>180.71</course>
  <speed>7.380027100221245</speed>
  <fix>3d</fix>
</trkpt>
<trkpt lat="40.0725639" lon="-105.2297813">
  <ele>1583.0</ele>
  <time>2026-08-28T17:55:54Z</time>
  <course>180.14</course>
  <speed>7.43</speed>
  <fix>3d</fix>
</trkpt>
<trkpt lat="40.0725415" lon="-105.2297816">
  <ele>1583.01</ele>
  <time>2026-08-28T17:55:54Z</time>
  <course>180.74</course>
  <speed>7.360027173862879</speed>
  <fix>3d</fix>
</trkpt>
<trkpt lat="40.0725639" lon="-105.2297813">
  <ele>1583.0</ele>
  <time>2026-08-28T17:55:54Z</time>
  <course>180.14</course>
  <speed>7.43</speed>
  <fix>3d</fix>
</trkpt>
<trkpt lat="40.0725349" lon="-105.2297816">
  <ele>1583.0</ele>
  <time>2026-08-28T17:55:54Z</time>
  <course>180.74</course>
  <speed>7.3400272479058275</speed>
  <fix>3d</fix>
</trkpt>
<trkpt lat="40.0725505" lon="-105.2297814">
  <ele>1583.0</ele>
  <time>2026-08-28T17:55:54Z</time>
  <course>180.18</course>
  <speed>7.39</speed>
  <fix>3d</fix>
</trkpt>
<trkpt lat="40.0725284" lon="-105.2297816">
  <ele>1583.0</ele>
  <time>2026-08-28T17:55:54Z</time>
  <course>180.76</course>
  <speed>7.330061391284524</speed>
  <fix>3d</fix>
</trkpt>
<trkpt lat="40.0725505" lon="-105.2297814">
  <ele>1583.0</ele>
  <time>2026-08-28T17:55:54Z</time>
  <course>180.18</course>
  <speed>7.39</speed>
  <fix>3d</fix>
</trkpt>
<trkpt lat="40.0725218" lon="-105.2297816">
  <ele>1583.0</ele>
  <time>2026-08-28T17:55:54Z</time>
  <course>180.76</course>
  <speed>7.310061559248322</speed>
  <fix>3d</fix>
</trkpt>
<trkpt lat="40.0725373" lon="-105.2297815">
  <ele>1583.0</ele>
  <time>2026-08-28T17:55:54Z</time>
  <course>180.2</course>
  <speed>7.35</speed>
  <fix>3d</fix>
</trkpt>
<trkpt lat="40.0725153" lon="-105.2297816">
  <ele>1583.0</ele>
  <time>2026-08-28T17:55:54Z</time>
  <course>180.79</course>
  <speed>7.300061643575348</speed>
  <fix>3d</fix>
</trkpt>
<trkpt lat="40.0725373" lon="-105.2297815">
  <ele>1583.0</ele>
  <time>2026-08-28T17:55:54Z</time>
  <course>180.2</course>
  <speed>7.35</speed>
  <fix>3d</fix>
</trkpt>
<trkpt lat="40.0725088" lon="-105.2297817">
  <ele>1583.0</ele>
  <time>2026-08-28T17:55:54Z</time>
  <course>180.79</course>
  <speed>7.300061643575348</speed>
  <fix>3d</fix>
</trkpt>
<trkpt lat="40.072524" lon="-105.2297815">
  <ele>1583.0</ele>
  <time>2026-08-28T17:55:54Z</time>
  <course>180.22</course>
  <speed>7.33</speed>
  <fix>3d</fix>
</trkpt>
<trkpt lat="40.0725023" lon="-105.2297817">
  <ele>1583.0</ele>
  <time>2026-08-28T17:55:54Z</time>
  <course>180.81</course>
  <speed>7.29006172813372</speed>
  <fix>3d</fix>
</trkpt>
<trkpt lat="40.072524" lon="-105.2297815">
  <ele>1583.0</ele>
  <time>2026-08-28T17:55:54Z</time>
  <course>180.22</course>
  <speed>7.33</speed>
  <fix>3d</fix>
</trkpt>
<trkpt lat="40.0724958" lon="-105.2297817">
  <ele>1583.0</ele>
  <time>2026-08-28T17:55:54Z</time>
  <course>180.82</course>
  <speed>7.29006172813372</speed>
  <fix>3d</fix>
</trkpt>
<trkpt lat="40.0725109" lon="-105.2297816">
  <ele>1583.0</ele>
  <time>2026-08-28T17:55:54Z</time>
  <course>180.24</course>
  <speed>7.33</speed>
  <fix>3d</fix>
</trkpt>
<trkpt lat="40.0724893" lon="-105.2297818">
  <ele>1583.0</ele>
  <time>2026-08-28T17:55:54Z</time>
  <course>180.82</course>
  <speed>7.300061643575348</speed>
  <fix>3d</fix>
</trkpt>
<trkpt lat="40.0724977" lon="-105.2297816">
  <ele>1583.0</ele>
  <time>2026-08-28T17:55:54Z</time>
  <course>180.25</course>
  <speed>7.33</speed>
  <fix>3d</fix>
</trkpt>
<trkpt lat="40.0724827" lon="-105.2297818">
  <ele>1583.0</ele>
  <time>2026-08-28T17:55:54Z</time>
  <course>180.82</course>
  <speed>7.300061643575348</speed>
  <fix>3d</fix>
</trkpt>
<trkpt lat="40.0724977" lon="-105.2297816">
  <ele>1583.0</ele>
  <time>2026-08-28T17:55:54Z</time>
  <course>180.25</course>
  <speed>7.33</speed>
  <fix>3d</fix>
</trkpt>
<trkpt lat="40.0724762" lon="-105.2297818">
  <ele>1583.0</ele>
  <time>2026-08-28T17:55:54Z</time>
  <course>180.82</course>
  <speed>7.310061559248322</speed>
  <fix>3d</fix>
</trkpt>
<trkpt lat="40.0724845" lon="-105.2297817">
  <ele>1583.0</ele>
  <time>2026-08-28T17:55:54Z</time>
  <course>180.25</course>
  <speed>7.35</speed>
  <fix>3d</fix>
</trkpt>
<trkpt lat="40.0724696" lon="-105.2297818">
  <ele>1583.0</ele>
  <time>2026-08-28T17:55:54Z</time>
  <course>180.83</course>
  <speed>7.330061391284524</speed>
  <fix>3d</fix>
</trkpt>
<trkpt lat="40.0724845" lon="-105.2297817">
  <ele>1583.0</ele>
  <time>2026-08-28T17:55:54Z</time>
  <course>180.25</course>
  <speed>7.35</speed>
  <fix>3d</fix>
</trkpt>
<trkpt lat="40.0724629" lon="-105.2297819">
  <ele>1583.0</ele>
  <time>2026-08-28T17:55:54Z</time>
  <course>180.83</course>
  <speed>7.340061307645871</speed>
  <fix>3d</fix>
</trkpt>
<trkpt lat="40.0724713" lon="-105.2297818">
  <ele>1583.0</ele>
  <time>2026-08-28T17:55:54Z</time>
  <course>180.25</course>
  <speed>7.37</speed>
  <fix>3d</fix>
</trkpt>
<trkpt lat="40.0724563" lon="-105.2297819">
  <ele>1583.0</ele>
  <time>2026-08-28T17:55:54Z</time>
  <course>180.85</course>
  <speed>7.350061224234802</speed>
  <fix>3d</fix>
</trkpt>
<trkpt lat="40.0724713" lon="-105.2297818">
  <ele>1583.0</ele>
  <time>2026-08-28T17:55:54Z</time>
  <course>180.25</course>
  <speed>7.37</speed>
  <fix>3d</fix>
</trkpt>
<trkpt lat="40.0724495" lon="-105.2297819">
  <ele>1583.0</ele>
  <time>2026-08-28T17:55:54Z</time>
  <course>180.85</course>
  <speed>7.360061141050392</speed>
  <fix>3d</fix>
</trkpt>
<trkpt lat="40.0724581" lon="-105.2297819">
  <ele>1583.0</ele>
  <time>2026-08-28T17:55:54Z</time>
  <course>180.26</course>
  <speed>7.39</speed>
  <fix>3d</fix>
</trkpt>
<trkpt lat="40.0724428" lon="-105.229782">
  <ele>1583.01</ele>
  <time>2026-08-28T17:55:54Z</time>
  <course>180.86</course>
  <speed>7.370061058091717</speed>
  <fix>3d</fix>
</trkpt>
<trkpt lat="40.0724581" lon="-105.2297819">
  <ele>1583.0</ele>
  <time>2026-08-28T17:55:54Z</time>
  <course>180.26</course>
  <speed>7.39</speed>
  <fix>3d</fix>
</trkpt>
<trkpt lat="40.0724362" lon="-105.229782">
  <ele>1583.01</ele>
  <time>2026-08-28T17:55:54Z</time>
  <course>180.86</course>
  <speed>7.380108400287899</speed>
  <fix>3d</fix>
</trkpt>
<trkpt lat="40.0724448" lon="-105.229782">
  <ele>1583.0</ele>
  <time>2026-08-28T17:55:54Z</time>
  <course>180.27</course>
  <speed>7.41</speed>
  <fix>3d</fix>
</trkpt>
<trkpt lat="40.0724294" lon="-105.2297821">
  <ele>1583.01</ele>
  <time>2026-08-28T17:55:54Z</time>
  <course>180.86</course>
  <speed>7.39010825360495</speed>
  <fix>3d</fix>
</trkpt>
<trkpt lat="40.0724448" lon="-105.229782">
  <ele>1583.0</ele>
  <time>2026-08-28T17:55:54Z</time>
  <course>180.27</course>
  <speed>7.41</speed>
  <fix>3d</fix>
</trkpt>
<trkpt lat="40.0724227" lon="-105.2297821">
  <ele>1583.01</ele>
  <time>2026-08-28T17:55:54Z</time>
  <course>180.86</course>
  <speed>7.400108107318434</speed>
  <fix>3d</fix>
</trkpt>
<trkpt lat="40.0724314" lon="-105.2297821">
  <ele>1583.0</ele>
  <time>2026-08-28T17:55:54Z</time>
  <course>180.27</course>
  <speed>7.43</speed>
  <fix>3d</fix>
</trkpt>
<trkpt lat="40.072416" lon="-105.2297822">
  <ele>1583.01</ele>
  <time>2026-08-28T17:55:54Z</time>
  <course>180.87</course>
  <speed>7.410107961426743</speed>
  <fix>3d</fix>
</trkpt>
<trkpt lat="40.0724314" lon="-105.2297821">
  <ele>1583.0</ele>
  <time>2026-08-28T17:55:54Z</time>
  <course>180.27</course>
  <speed>7.43</speed>
  <fix>3d</fix>
</trkpt>
<trkpt lat="40.0724093" lon="-105.2297822">
  <ele>1583.01</ele>
  <time>2026-08-28T17:55:54Z</time>
  <course>180.87</course>
  <speed>7.420107815928284</speed>
  <fix>3d</fix>
</trkpt>
<trkpt lat="40.0724181" lon="-105.2297821">
  <ele>1583.0</ele>
  <time>2026-08-28T17:55:54Z</time>
  <course>180.27</course>
  <speed>7.44</speed>
  <fix>3d</fix>
</trkpt>
<trkpt lat="40.0724026" lon="-105.2297822">
  <ele>1583.01</ele>
  <time>2026-08-28T17:55:54Z</time>
  <course>180.87</course>
  <speed>7.430107670821467</speed>
  <fix>3d</fix>
</trkpt>
<trkpt lat="40.0724181" lon="-105.2297821">
  <ele>1583.0</ele>
  <time>2026-08-28T17:55:54Z</time>
  <course>180.27</course>
  <speed>7.44</speed>
  <fix>3d</fix>
</trkpt>
<trkpt lat="40.0723959" lon="-105.2297823">
  <ele>1583.0</ele>
  <time>2026-08-28T17:55:54Z</time>
  <course>180.88</course>
  <speed>7.430107670821467</speed>
  <fix>3d</fix>
</trkpt>
<trkpt lat="40.0724181" lon="-105.2297821">
  <ele>1583.0</ele>
  <time>2026-08-28T17:55:54Z</time>
  <course>180.27</course>
  <speed>7.44</speed>
  <fix>3d</fix>
</trkpt>
<trkpt lat="40.0723892" lon="-105.2297823">
  <ele>1583.0</ele>
  <time>2026-08-28T17:55:54Z</time>
  <course>180.88</course>
  <speed>7.430107670821467</speed>
  <fix>3d</fix>
</trkpt>
<trkpt lat="40.0724047" lon="-105.2297822">
  <ele>1583.0</ele>
  <time>2026-08-28T17:55:54Z</time>
  <course>180.27</course>
  <speed>7.45</speed>
  <fix>3d</fix>
</trkpt>
<trkpt lat="40.0723825" lon="-105.2297824">
  <ele>1583.0</ele>
  <time>2026-08-28T17:55:54Z</time>
  <course>180.88</course>
  <speed>7.430107670821467</speed>
  <fix>3d</fix>
</trkpt>
<trkpt lat="40.0724047" lon="-105.2297822">
  <ele>1583.0</ele>
  <time>2026-08-28T17:55:54Z</time>
  <course>180.27</course>
  <speed>7.45</speed>
  <fix>3d</fix>
</trkpt>
<trkpt lat="40.0723759" lon="-105.2297824">
  <ele>1583.0</ele>
  <time>2026-08-28T17:55:54Z</time>
  <course>180.88</course>
  <speed>7.430107670821467</speed>
  <fix>3d</fix>
</trkpt>
<trkpt lat="40.0723913" lon="-105.2297823">
  <ele>1583.0</ele>
  <time>2026-08-28T17:55:54Z</time>
  <course>180.27</course>
  <speed>7.46</speed>
  <fix>3d</fix>
</trkpt>
<trkpt lat="40.0723692" lon="-105.2297825">
  <ele>1583.0</ele>
  <time>2026-08-28T17:55:54Z</time>
  <course>180.89</course>
  <speed>7.430107670821467</speed>
  <fix>3d</fix>
</trkpt>
<trkpt lat="40.0723913" lon="-105.2297823">
  <ele>1583.0</ele>
  <time>2026-08-28T17:55:54Z</time>
  <course>180.27</course>
  <speed>7.46</speed>
  <fix>3d</fix>
</trkpt>
<trkpt lat="40.0723626" lon="-105.2297825">
  <ele>1583.0</ele>
  <time>2026-08-28T17:55:54Z</time>
  <course>180.89</course>
  <speed>7.430107670821467</speed>
  <fix>3d</fix>
</trkpt>
<trkpt lat="40.0723779" lon="-105.2297824">
  <ele>1583.0</ele>
  <time>2026-08-28T17:55:54Z</time>
  <course>180.27</course>
  <speed>7.46</speed>
  <fix>3d</fix>
</trkpt>
<trkpt lat="40.0723559" lon="-105.2297826">
  <ele>1583.01</ele>
  <time>2026-08-28T17:55:54Z</time>
  <course>180.89</course>
  <speed>7.430107670821467</speed>
  <fix>3d</fix>
</trkpt>
<trkpt lat="40.0723644" lon="-105.2297825">
  <ele>1583.0</ele>
  <time>2026-08-28T17:55:54Z</time>
  <course>180.27</course>
  <speed>7.47</speed>
  <fix>3d</fix>
</trkpt>
<trkpt lat="40.0723492" lon="-105.2297826">
  <ele>1583.01</ele>
  <time>2026-08-28T17:55:54Z</time>
  <course>180.9</course>
  <speed>7.430107670821467</speed>
  <fix>3d</fix>
</trkpt>
<trkpt lat="40.0723644" lon="-105.2297825">
  <ele>1583.0</ele>
  <time>2026-08-28T17:55:54Z</time>
  <course>180.27</course>
  <speed>7.47</speed>
  <fix>3d</fix>
</trkpt>
<trkpt lat="40.0723425" lon="-105.2297826">
  <ele>1583.01</ele>
  <time>2026-08-28T17:55:55Z</time>
  <course>180.9</course>
  <speed>7.430107670821467</speed>
  <fix>3d</fix>
</trkpt>
<trkpt lat="40.072351" lon="-105.2297826">
  <ele>1583.0</ele>
  <time>2026-08-28T17:55:55Z</time>
  <course>180.27</course>
  <speed>7.47</speed>
  <fix>3d</fix>
</trkpt>
<trkpt lat="40.0723358" lon="-105.2297827">
  <ele>1583.01</ele>
  <time>2026-08-28T17:55:55Z</time>
  <course>180.9</course>
  <speed>7.440107526104714</speed>
  <fix>3d</fix>
</trkpt>
<trkpt lat="40.072351" lon="-105.2297826">
  <ele>1583.0</ele>
  <time>2026-08-28T17:55:55Z</time>
  <course>180.27</course>
  <speed>7.47</speed>
  <fix>3d</fix>
</trkpt>
<trkpt lat="40.0723291" lon="-105.2297827">
  <ele>1583.01</ele>
  <time>2026-08-28T17:55:55Z</time>
  <course>180.9</course>
  <speed>7.440107526104714</speed>
  <fix>3d</fix>
</trkpt>
<trkpt lat="40.0723376" lon="-105.2297827">
  <ele>1583.0</ele>
  <time>2026-08-28T17:55:55Z</time>
  <course>180.27</course>
  <speed>7.48</speed>
  <fix>3d</fix>
</trkpt>
<trkpt lat="40.0723223" lon="-105.2297828">
  <ele>1583.01</ele>
  <time>2026-08-28T17:55:55Z</time>
  <course>180.91</course>
  <speed>7.440107526104714</speed>
  <fix>3d</fix>
</trkpt>
<trkpt lat="40.0723376" lon="-105.2297827">
  <ele>1583.0</ele>
  <time>2026-08-28T17:55:55Z</time>
  <course>180.27</course>
  <speed>7.48</speed>
  <fix>3d</fix>
</trkpt>
<trkpt lat="40.0723156" lon="-105.2297828">
  <ele>1583.0</ele>
  <time>2026-08-28T17:55:55Z</time>
  <course>180.91</course>
  <speed>7.440107526104714</speed>
  <fix>3d</fix>
</trkpt>
<trkpt lat="40.0723241" lon="-105.2297827">
  <ele>1583.0</ele>
  <time>2026-08-28T17:55:55Z</time>
  <course>180.27</course>
  <speed>7.48</speed>
  <fix>3d</fix>
</trkpt>
<trkpt lat="40.0723087" lon="-105.2297829">
  <ele>1583.0</ele>
  <time>2026-08-28T17:55:55Z</time>
  <course>180.91</course>
  <speed>7.450107381776453</speed>
  <fix>3d</fix>
</trkpt>
<trkpt lat="40.0723241" lon="-105.2297827">
  <ele>1583.0</ele>
  <time>2026-08-28T17:55:55Z</time>
  <course>180.27</course>
  <speed>7.48</speed>
  <fix>3d</fix>
</trkpt>
<trkpt lat="40.072302" lon="-105.2297829">
  <ele>1583.0</ele>
  <time>2026-08-28T17:55:55Z</time>
  <course>180.91</course>
  <speed>7.450107381776453</speed>
  <fix>3d</fix>
</trkpt>
<trkpt lat="40.0723106" lon="-105.2297828">
  <ele>1583.0</ele>
  <time>2026-08-28T17:55:55Z</time>
  <course>180.27</course>
  <speed>7.48</speed>
  <fix>3d</fix>
</trkpt>
<trkpt lat="40.0722952" lon="-105.229783">
  <ele>1583.0</ele>
  <time>2026-08-28T17:55:55Z</time>
  <course>180.92</course>
  <speed>7.450107381776453</speed>
  <fix>3d</fix>
</trkpt>
<trkpt lat="40.0723106" lon="-105.2297828">
  <ele>1583.0</ele>
  <time>2026-08-28T17:55:55Z</time>
  <course>180.27</course>
  <speed>7.48</speed>
  <fix>3d</fix>
</trkpt>
<trkpt lat="40.0722885" lon="-105.229783">
  <ele>1583.0</ele>
  <time>2026-08-28T17:55:55Z</time>
  <course>180.92</course>
  <speed>7.450107381776453</speed>
  <fix>3d</fix>
</trkpt>
<trkpt lat="40.0722972" lon="-105.2297829">
  <ele>1583.0</ele>
  <time>2026-08-28T17:55:55Z</time>
  <course>180.27</course>
  <speed>7.48</speed>
  <fix>3d</fix>
</trkpt>
<trkpt lat="40.0722817" lon="-105.2297831">
  <ele>1583.0</ele>
  <time>2026-08-28T17:55:55Z</time>
  <course>180.92</course>
  <speed>7.450107381776453</speed>
  <fix>3d</fix>
</trkpt>
<trkpt lat="40.0722972" lon="-105.2297829">
  <ele>1583.0</ele>
  <time>2026-08-28T17:55:55Z</time>
  <course>180.27</course>
  <speed>7.48</speed>
  <fix>3d</fix>
</trkpt>
<trkpt lat="40.072275" lon="-105.2297831">
  <ele>1583.0</ele>
  <time>2026-08-28T17:55:55Z</time>
  <course>180.92</course>
  <speed>7.450107381776453</speed>
  <fix>3d</fix>
</trkpt>
<trkpt lat="40.0722838" lon="-105.229783">
  <ele>1583.0</ele>
  <time>2026-08-28T17:55:55Z</time>
  <course>180.27</course>
  <speed>7.47</speed>
  <fix>3d</fix>
</trkpt>
<trkpt lat="40.0722682" lon="-105.2297832">
  <ele>1583.0</ele>
  <time>2026-08-28T17:55:55Z</time>
  <course>180.93</course>
  <speed>7.450107381776453</speed>
  <fix>3d</fix>
</trkpt>
<trkpt lat="40.0722838" lon="-105.229783">
  <ele>1583.0</ele>
  <time>2026-08-28T17:55:55Z</time>
  <course>180.27</course>
  <speed>7.47</speed>
  <fix>3d</fix>
</trkpt>
<trkpt lat="40.0722615" lon="-105.2297832">
  <ele>1583.0</ele>
  <time>2026-08-28T17:55:55Z</time>
  <course>180.93</course>
  <speed>7.440168008855714</speed>
  <fix>3d</fix>
</trkpt>
<trkpt lat="40.0722838" lon="-105.229783">
  <ele>1583.0</ele>
  <time>2026-08-28T17:55:55Z</time>
  <course>180.27</course>
  <speed>7.47</speed>
  <fix>3d</fix>
</trkpt>
<trkpt lat="40.0722548" lon="-105.2297832">
  <ele>1583.0</ele>
  <time>2026-08-28T17:55:55Z</time>
  <course>180.93</course>
  <speed>7.440168008855714</speed>
  <fix>3d</fix>
</trkpt>
<trkpt lat="40.0722703" lon="-105.2297831">
  <ele>1583.0</ele>
  <time>2026-08-28T17:55:55Z</time>
  <course>180.27</course>
  <speed>7.47</speed>
  <fix>3d</fix>
</trkpt>
<trkpt lat="40.0722481" lon="-105.2297833">
  <ele>1583.0</ele>
  <time>2026-08-28T17:55:55Z</time>
  <course>180.93</course>
  <speed>7.4301682349728795</speed>
  <fix>3d</fix>
</trkpt>
<trkpt lat="40.0722703" lon="-105.2297831">
  <ele>1583.0</ele>
  <time>2026-08-28T17:55:55Z</time>
  <course>180.27</course>
  <speed>7.47</speed>
  <fix>3d</fix>
</trkpt>
<trkpt lat="40.0722415" lon="-105.2297833">
  <ele>1583.0</ele>
  <time>2026-08-28T17:55:55Z</time>
  <course>180.93</course>
  <speed>7.4301682349728795</speed>
  <fix>3d</fix>
</trkpt>
<trkpt lat="40.0722569" lon="-105.2297832">
  <ele>1583.0</ele>
  <time>2026-08-28T17:55:55Z</time>
  <course>180.27</course>
  <speed>7.46</speed>
  <fix>3d</fix>
</trkpt>
<trkpt lat="40.0722348" lon="-105.2297834">
  <ele>1583.0</ele>
  <time>2026-08-28T17:55:55Z</time>
  <course>180.94</course>
  <speed>7.420168461699506</speed>
  <fix>3d</fix>
</trkpt>
<trkpt lat="40.0722569" lon="-105.2297832">
  <ele>1583.0</ele>
  <time>2026-08-28T17:55:55Z</time>
  <course>180.27</course>
  <speed>7.46</speed>
  <fix>3d</fix>
</trkpt>
<trkpt lat="40.0722282" lon="-105.2297834">
  <ele>1583.0</ele>
  <time>2026-08-28T17:55:55Z</time>
  <course>180.94</course>
  <speed>7.420168461699506</speed>
  <fix>3d</fix>
</trkpt>
<trkpt lat="40.0722435" lon="-105.2297832">
  <ele>1583.0</ele>
  <time>2026-08-28T17:55:55Z</time>
  <course>180.27</course>
  <speed>7.46</speed>
  <fix>3d</fix>
</trkpt>
<trkpt lat="40.0722216" lon="-105.2297835">
  <ele>1583.0</ele>
  <time>2026-08-28T17:55:55Z</time>
  <course>180.94</course>
  <speed>7.420168461699506</speed>
  <fix>3d</fix>
</trkpt>
<trkpt lat="40.0722435" lon="-105.2297832">
  <ele>1583.0</ele>
  <time>2026-08-28T17:55:55Z</time>
  <course>180.27</course>
  <speed>7.46</speed>
  <fix>3d</fix>
</trkpt>
<trkpt lat="40.0722149" lon="-105.2297835">
  <ele>1582.99</ele>
  <time>2026-08-28T17:55:55Z</time>
  <course>180.94</course>
  <speed>7.420168461699506</speed>
  <fix>3d</fix>
</trkpt>
<trkpt lat="40.0722301" lon="-105.2297833">
  <ele>1583.0</ele>
  <time>2026-08-28T17:55:55Z</time>
  <course>180.27</course>
  <speed>7.46</speed>
  <fix>3d</fix>
</trkpt>
<trkpt lat="40.0722083" lon="-105.2297836">
  <ele>1583.0</ele>
  <time>2026-08-28T17:55:55Z</time>
  <course>180.95</course>
  <speed>7.420168461699506</speed>
  <fix>3d</fix>
</trkpt>
<trkpt lat="40.0722167" lon="-105.2297834">
  <ele>1583.0</ele>
  <time>2026-08-28T17:55:55Z</time>
  <course>180.27</course>
  <speed>7.46</speed>
  <fix>3d</fix>
</trkpt>
<trkpt lat="40.0722016" lon="-105.2297836">
  <ele>1583.0</ele>
  <time>2026-08-28T17:55:55Z</time>
  <course>180.95</course>
  <speed>7.420168461699506</speed>
  <fix>3d</fix>
</trkpt>
<trkpt lat="40.0722167" lon="-105.2297834">
  <ele>1583.0</ele>
  <time>2026-08-28T17:55:55Z</time>
  <course>180.27</course>
  <speed>7.46</speed>
  <fix>3d</fix>
</trkpt>
<trkpt lat="40.0721949" lon="-105.2297836">
  <ele>1583.0</ele>
  <time>2026-08-28T17:55:55Z</time>
  <course>180.95</course>
  <speed>7.420168461699506</speed>
  <fix>3d</fix>
</trkpt>
<trkpt lat="40.0722033" lon="-105.2297835">
  <ele>1583.0</ele>
  <time>2026-08-28T17:55:55Z</time>
  <course>180.27</course>
  <speed>7.46</speed>
  <fix>3d</fix>
</trkpt>
<trkpt lat="40.0721882" lon="-105.2297837">
  <ele>1583.0</ele>
  <time>2026-08-28T17:55:55Z</time>
  <course>180.95</course>
  <speed>7.4301682349728795</speed>
  <fix>3d</fix>
</trkpt>
<trkpt lat="40.0722033" lon="-105.2297835">
  <ele>1583.0</ele>
  <time>2026-08-28T17:55:55Z</time>
  <course>180.27</course>
  <speed>7.46</speed>
  <fix>3d</fix>
</trkpt>
<trkpt lat="40.0721815" lon="-105.2297837">
  <ele>1583.01</ele>
  <time>2026-08-28T17:55:55Z</time>
  <course>180.95</course>
  <speed>7.4301682349728795</speed>
  <fix>3d</fix>
</trkpt>
<trkpt lat="40.0721899" lon="-105.2297836">
  <ele>1583.0</ele>
  <time>2026-08-28T17:55:55Z</time>
  <course>180.27</course>
  <speed>7.47</speed>
  <fix>3d</fix>
</trkpt>
<trkpt lat="40.0721747" lon="-105.2297838">
  <ele>1583.01</ele>
  <time>2026-08-28T17:55:55Z</time>
  <course>180.96</course>
  <speed>7.440168008855714</speed>
  <fix>3d</fix>
</trkpt>
<trkpt lat="40.0721899" lon="-105.2297836">
  <ele>1583.0</ele>
  <time>2026-08-28T17:55:55Z</time>
  <course>180.27</course>
  <speed>7.47</speed>
  <fix>3d</fix>
</trkpt>
<trkpt lat="40.0721679" lon="-105.2297838">
  <ele>1583.01</ele>
  <time>2026-08-28T17:55:55Z</time>
  <course>180.96</course>
  <speed>7.440168008855714</speed>
  <fix>3d</fix>
</trkpt>
<trkpt lat="40.0721764" lon="-105.2297837">
  <ele>1583.0</ele>
  <time>2026-08-28T17:55:55Z</time>
  <course>180.27</course>
  <speed>7.47</speed>
  <fix>3d</fix>
</trkpt>
<trkpt lat="40.0721611" lon="-105.2297839">
  <ele>1583.01</ele>
  <time>2026-08-28T17:55:55Z</time>
  <course>180.96</course>
  <speed>7.450167783345554</speed>
  <fix>3d</fix>
</trkpt>
<trkpt lat="40.0721764" lon="-105.2297837">
  <ele>1583.0</ele>
  <time>2026-08-28T17:55:55Z</time>
  <course>180.27</course>
  <speed>7.47</speed>
  <fix>3d</fix>
</trkpt>
<trkpt lat="40.0721544" lon="-105.2297839">
  <ele>1583.01</ele>
  <time>2026-08-28T17:55:55Z</time>
  <course>180.96</course>
  <speed>7.450167783345554</speed>
  <fix>3d</fix>
</trkpt>
<trkpt lat="40.0721629" lon="-105.2297837">
  <ele>1583.0</ele>
  <time>2026-08-28T17:55:55Z</time>
  <course>180.27</course>
  <speed>7.48</speed>
  <fix>3d</fix>
</trkpt>
<trkpt lat="40.0721476" lon="-105.229784">
  <ele>1583.01</ele>
  <time>2026-08-28T17:55:55Z</time>
  <course>180.96</course>
  <speed>7.450167783345554</speed>
  <fix>3d</fix>
</trkpt>
<trkpt lat="40.0721629" lon="-105.2297837">
  <ele>1583.0</ele>
  <time>2026-08-28T17:55:55Z</time>
  <course>180.27</course>
  <speed>7.48</speed>
  <fix>3d</fix>
</trkpt>
<trkpt lat="40.0721408" lon="-105.229784">
  <ele>1583.01</ele>
  <time>2026-08-28T17:55:55Z</time>
  <course>180.97</course>
  <speed>7.450167783345554</speed>
  <fix>3d</fix>
</trkpt>
<trkpt lat="40.0721495" lon="-105.2297838">
  <ele>1583.0</ele>
  <time>2026-08-28T17:55:55Z</time>
  <course>180.27</course>
  <speed>7.48</speed>
  <fix>3d</fix>
</trkpt>
<trkpt lat="40.0721341" lon="-105.2297841">
  <ele>1583.01</ele>
  <time>2026-08-28T17:55:55Z</time>
  <course>180.97</course>
  <speed>7.450167783345554</speed>
  <fix>3d</fix>
</trkpt>
<trkpt lat="40.0721495" lon="-105.2297838">
  <ele>1583.0</ele>
  <time>2026-08-28T17:55:55Z</time>
  <course>180.27</course>
  <speed>7.48</speed>
  <fix>3d</fix>
</trkpt>
<trkpt lat="40.0721273" lon="-105.2297841">
  <ele>1583.01</ele>
  <time>2026-08-28T17:55:55Z</time>
  <course>180.97</course>
  <speed>7.450167783345554</speed>
  <fix>3d</fix>
</trkpt>
<trkpt lat="40.0721361" lon="-105.2297839">
  <ele>1583.0</ele>
  <time>2026-08-28T17:55:55Z</time>
  <course>180.27</course>
  <speed>7.47</speed>
  <fix>3d</fix>
</trkpt>
<trkpt lat="40.0721205" lon="-105.2297841">
  <ele>1583.01</ele>
  <time>2026-08-28T17:55:55Z</time>
  <course>180.97</course>
  <speed>7.450167783345554</speed>
  <fix>3d</fix>
</trkpt>
<trkpt lat="40.0721361" lon="-105.2297839">
  <ele>1583.0</ele>
  <time>2026-08-28T17:55:55Z</time>
  <course>180.27</course>
  <speed>7.47</speed>
  <fix>3d</fix>
</trkpt>
<trkpt lat="40.0721138" lon="-105.2297842">
  <ele>1583.01</ele>
  <time>2026-08-28T17:55:55Z</time>
  <course>180.97</course>
  <speed>7.450167783345554</speed>
  <fix>3d</fix>
</trkpt>
<trkpt lat="40.0721361" lon="-105.2297839">
  <ele>1583.0</ele>
  <time>2026-08-28T17:55:55Z</time>
  <course>180.27</course>
  <speed>7.47</speed>
  <fix>3d</fix>
</trkpt>
<trkpt lat="40.0721071" lon="-105.2297842">
  <ele>1583.01</ele>
  <time>2026-08-28T17:55:55Z</time>
  <course>180.97</course>
  <speed>7.450167783345554</speed>
  <fix>3d</fix>
</trkpt>
<trkpt lat="40.0721227" lon="-105.229784">
  <ele>1583.0</ele>
  <time>2026-08-28T17:55:55Z</time>
  <course>180.27</course>
  <speed>7.47</speed>
  <fix>3d</fix>
</trkpt>
<trkpt lat="40.0721004" lon="-105.2297843">
  <ele>1583.01</ele>
  <time>2026-08-28T17:55:55Z</time>
  <course>180.98</course>
  <speed>7.450167783345554</speed>
  <fix>3d</fix>
</trkpt>
<trkpt lat="40.0721227" lon="-105.229784">
  <ele>1583.0</ele>
  <time>2026-08-28T17:55:55Z</time>
  <course>180.27</course>
  <speed>7.47</speed>
  <fix>3d</fix>
</trkpt>
<trkpt lat="40.0720938" lon="-105.2297843">
  <ele>1583.01</ele>
  <time>2026-08-28T17:55:55Z</time>
  <course>180.98</course>
  <speed>7.440168008855714</speed>
  <fix>3d</fix>
</trkpt>
<trkpt lat="40.0721092" lon="-105.2297841">
  <ele>1583.0</ele>
  <time>2026-08-28T17:55:55Z</time>
  <course>180.27</course>
  <speed>7.47</speed>
  <fix>3d</fix>
</trkpt>
<trkpt lat="40.0720871" lon="-105.2297844">
  <ele>1583.01</ele>
  <time>2026-08-28T17:55:55Z</time>
  <course>180.98</course>
  <speed>7.440168008855714</speed>
  <fix>3d</fix>
</trkpt>
<trkpt lat="40.0721092" lon="-105.2297841">
  <ele>1583.0</ele>
  <time>2026-08-28T17:55:55Z</time>
  <course>180.27</course>
  <speed>7.47</speed>
  <fix>3d</fix>
</trkpt>
<trkpt lat="40.0720804" lon="-105.2297844">
  <ele>1583.01</ele>
  <time>2026-08-28T17:55:55Z</time>
  <course>180.98</course>
  <speed>7.4301682349728795</speed>
  <fix>3d</fix>
</trkpt>
<trkpt lat="40.0720958" lon="-105.2297842">
  <ele>1583.0</ele>
  <time>2026-08-28T17:55:55Z</time>
  <course>180.27</course>
  <speed>7.46</speed>
  <fix>3d</fix>
</trkpt>
<trkpt lat="40.0720738" lon="-105.2297844">
  <ele>1583.0</ele>
  <time>2026-08-28T17:55:55Z</time>
  <course>180.98</course>
  <speed>7.4301682349728795</speed>
  <fix>3d</fix>
</trkpt>
<trkpt lat="40.0720824" lon="-105.2297842">
  <ele>1583.0</ele>
  <time>2026-08-28T17:55:55Z</time>
  <course>180.27</course>
  <speed>7.46</speed>
  <fix>3d</fix>
</trkpt>
<trkpt lat="40.0720671" lon="-105.2297845">
  <ele>1583.0</ele>
  <time>2026-08-28T17:55:55Z</time>
  <course>180.98</course>
  <speed>7.4301682349728795</speed>
  <fix>3d</fix>
</trkpt>
<trkpt lat="40.0720824" lon="-105.2297842">
  <ele>1583.0</ele>
  <time>2026-08-28T17:55:55Z</time>
  <course>180.27</course>
  <speed>7.46</speed>
  <fix>3d</fix>
</trkpt>
<trkpt lat="40.0720604" lon="-105.2297845">
  <ele>1583.0</ele>
  <time>2026-08-28T17:55:55Z</time>
  <course>180.98</course>
  <speed>7.4301682349728795</speed>
  <fix>3d</fix>
</trkpt>
<trkpt lat="40.072069" lon="-105.2297843">
  <ele>1583.0</ele>
  <time>2026-08-28T17:55:55Z</time>
  <course>180.27</course>
  <speed>7.46</speed>
  <fix>3d</fix>
</trkpt>
<trkpt lat="40.0720537" lon="-105.2297846">
  <ele>1583.0</ele>
  <time>2026-08-28T17:55:55Z</time>
  <course>180.99</course>
  <speed>7.440168008855714</speed>
  <fix>3d</fix>
</trkpt>
<trkpt lat="40.072069" lon="-105.2297843">
  <ele>1583.0</ele>
  <time>2026-08-28T17:55:55Z</time>
  <course>180.27</course>
  <speed>7.46</speed>
  <fix>3d</fix>
</trkpt>
<trkpt lat="40.072047" lon="-105.2297846">
  <ele>1583.0</ele>
  <time>2026-08-28T17:55:55Z</time>
  <course>180.99</course>
  <speed>7.440168008855714</speed>
  <fix>3d</fix>
</trkpt>
<trkpt lat="40.0720556" lon="-105.2297844">
  <ele>1583.0</ele>
  <time>2026-08-28T17:55:55Z</time>
  <course>180.27</course>
  <speed>7.46</speed>
  <fix>3d</fix>
</trkpt>
<trkpt lat="40.0720403" lon="-105.2297847">
  <ele>1583.01</ele>
  <time>2026-08-28T17:55:55Z</time>
  <course>180.99</course>
  <speed>7.440168008855714</speed>
  <fix>3d</fix>
</trkpt>
<trkpt lat="40.0720556" lon="-105.2297844">
  <ele>1583.0</ele>
  <time>2026-08-28T17:55:55Z</time>
  <course>180.27</course>
  <speed>7.46</speed>
  <fix>3d</fix>
</trkpt>
<trkpt lat="40.0720335" lon="-105.2297847">
  <ele>1583.01</ele>
  <time>2026-08-28T17:55:55Z</time>
  <course>180.99</course>
  <speed>7.440168008855714</speed>
  <fix>3d</fix>
</trkpt>
<trkpt lat="40.0720422" lon="-105.2297845">
  <ele>1583.0</ele>
  <time>2026-08-28T17:55:55Z</time>
  <course>180.27</course>
  <speed>7.47</speed>
  <fix>3d</fix>
</trkpt>
<trkpt lat="40.0720267" lon="-105.2297847">
  <ele>1583.01</ele>
  <time>2026-08-28T17:55:55Z</time>
  <course>180.99</course>
  <speed>7.450167783345554</speed>
  <fix>3d</fix>
</trkpt>
<trkpt lat="40.0720422" lon="-105.2297845">
  <ele>1583.0</ele>
  <time>2026-08-28T17:55:55Z</time>
  <course>180.27</course>
  <speed>7.47</speed>
  <fix>3d</fix>
</trkpt>
<trkpt lat="40.07202" lon="-105.2297848">
  <ele>1583.01</ele>
  <time>2026-08-28T17:55:55Z</time>
  <course>180.99</course>
  <speed>7.450167783345554</speed>
  <fix>3d</fix>
</trkpt>
<trkpt lat="40.0720288" lon="-105.2297846">
  <ele>1583.0</ele>
  <time>2026-08-28T17:55:55Z</time>
  <course>180.27</course>
  <speed>7.47</speed>
  <fix>3d</fix>
</trkpt>
<trkpt lat="40.0720132" lon="-105.2297848">
  <ele>1583.01</ele>
  <time>2026-08-28T17:55:55Z</time>
  <course>180.99</course>
  <speed>7.450167783345554</speed>
  <fix>3d</fix>
</trkpt>
<trkpt lat="40.0720288" lon="-105.2297846">
  <ele>1583.0</ele>
  <time>2026-08-28T17:55:55Z</time>
  <course>180.27</course>
  <speed>7.47</speed>
  <fix>3d</fix>
</trkpt>
<trkpt lat="40.0720065" lon="-105.2297849">
  <ele>1583.01</ele>
  <time>2026-08-28T17:55:55Z</time>
  <course>180.99</course>
  <speed>7.450167783345554</speed>
  <fix>3d</fix>
</trkpt>
<trkpt lat="40.0720153" lon="-105.2297847">
  <ele>1583.0</ele>
  <time>2026-08-28T17:55:55Z</time>
  <course>180.27</course>
  <speed>7.47</speed>
  <fix>3d</fix>
</trkpt>
<trkpt lat="40.0719997" lon="-105.2297849">
  <ele>1583.01</ele>
  <time>2026-08-28T17:55:55Z</time>
  <course>180.99</course>
  <speed>7.450167783345554</speed>
  <fix>3d</fix>
</trkpt>
<trkpt lat="40.0720153" lon="-105.2297847">
  <ele>1583.0</ele>
  <time>2026-08-28T17:55:55Z</time>
  <course>180.27</course>
  <speed>7.47</speed>
  <fix>3d</fix>
</trkpt>
<trkpt lat="40.071993" lon="-105.229785">
  <ele>1583.01</ele>
  <time>2026-08-28T17:55:55Z</time>
  <course>181.0</course>
  <speed>7.450167783345554</speed>
  <fix>3d</fix>
</trkpt>
<trkpt lat="40.0720018" lon="-105.2297847">
  <ele>1583.0</ele>
  <time>2026-08-28T17:55:55Z</time>
  <course>180.27</course>
  <speed>7.47</speed>
  <fix>3d</fix>
</trkpt>
<trkpt lat="40.0719862" lon="-105.229785">
  <ele>1583.01</ele>
  <time>2026-08-28T17:55:55Z</time>
  <course>181.0</course>
  <speed>7.450167783345554</speed>
  <fix>3d</fix>
</trkpt>
<trkpt lat="40.0720018" lon="-105.2297847">
  <ele>1583.0</ele>
  <time>2026-08-28T17:55:55Z</time>
  <course>180.27</course>
  <speed>7.47</speed>
  <fix>3d</fix>
</trkpt>
<trkpt lat="40.0719795" lon="-105.229785">
  <ele>1583.01</ele>
  <time>2026-08-28T17:55:55Z</time>
  <course>181.0</course>
  <speed>7.450167783345554</speed>
  <fix>3d</fix>
</trkpt>
<trkpt lat="40.0720018" lon="-105.2297847">
  <ele>1583.0</ele>
  <time>2026-08-28T17:55:55Z</time>
  <course>180.27</course>
  <speed>7.47</speed>
  <fix>3d</fix>
</trkpt>
<trkpt lat="40.0719728" lon="-105.2297851">
  <ele>1583.01</ele>
  <time>2026-08-28T17:55:55Z</time>
  <course>181.0</course>
  <speed>7.450167783345554</speed>
  <fix>3d</fix>
</trkpt>
<trkpt lat="40.0719884" lon="-105.2297848">
  <ele>1583.0</ele>
  <time>2026-08-28T17:55:55Z</time>
  <course>180.27</course>
  <speed>7.46</speed>
  <fix>3d</fix>
</trkpt>
<trkpt lat="40.0719661" lon="-105.2297851">
  <ele>1583.01</ele>
  <time>2026-08-28T17:55:55Z</time>
  <course>181.0</course>
  <speed>7.450167783345554</speed>
  <fix>3d</fix>
</trkpt>
<trkpt lat="40.0719884" lon="-105.2297848">
  <ele>1583.0</ele>
  <time>2026-08-28T17:55:55Z</time>
  <course>180.27</course>
  <speed>7.46</speed>
  <fix>3d</fix>
</trkpt>
<trkpt lat="40.0719595" lon="-105.2297852">
  <ele>1583.01</ele>
  <time>2026-08-28T17:55:55Z</time>
  <course>181.0</course>
  <speed>7.450167783345554</speed>
  <fix>3d</fix>
</trkpt>
<trkpt lat="40.071975" lon="-105.2297849">
  <ele>1583.0</ele>
  <time>2026-08-28T17:55:55Z</time>
  <course>180.27</course>
  <speed>7.46</speed>
  <fix>3d</fix>
</trkpt>
<trkpt lat="40.0719528" lon="-105.2297852">
  <ele>1583.0</ele>
  <time>2026-08-28T17:55:55Z</time>
  <course>181.0</course>
  <speed>7.440168008855714</speed>
  <fix>3d</fix>
</trkpt>
<trkpt lat="40.071975" lon="-105.2297849">
  <ele>1583.0</ele>
  <time>2026-08-28T17:55:55Z</time>
  <course>180.27</course>
  <speed>7.46</speed>
  <fix>3d</fix>
</trkpt>
<trkpt lat="40.0719462" lon="-105.2297852">
  <ele>1583.0</ele>
  <time>2026-08-28T17:55:55Z</time>
  <course>181.0</course>
  <speed>7.440168008855714</speed>
  <fix>3d</fix>
</trkpt>
<trkpt lat="40.0719615" lon="-105.229785">
  <ele>1583.0</ele>
  <time>2026-08-28T17:55:55Z</time>
  <course>180.27</course>
  <speed>7.46</speed>
  <fix>3d</fix>
</trkpt>
<trkpt lat="40.0719395" lon="-105.2297853">
  <ele>1583.0</ele>
  <time>2026-08-28T17:55:55Z</time>
  <course>181.0</course>
  <speed>7.440168008855714</speed>
  <fix>3d</fix>
</trkpt>
<trkpt lat="40.0719482" lon="-105.2297851">
  <ele>1583.0</ele>
  <time>2026-08-28T17:55:55Z</time>
  <course>180.27</course>
  <speed>7.46</speed>
  <fix>3d</fix>
</trkpt>
<trkpt lat="40.0719328" lon="-105.2297853">
  <ele>1583.0</ele>
  <time>2026-08-28T17:55:55Z</time>
  <course>181.0</course>
  <speed>7.440168008855714</speed>
  <fix>3d</fix>
</trkpt>
<trkpt lat="40.0719482" lon="-105.2297851">
  <ele>1583.0</ele>
  <time>2026-08-28T17:55:55Z</time>
  <course>180.27</course>
  <speed>7.46</speed>
  <fix>3d</fix>
</trkpt>
<trkpt lat="40.0719261" lon="-105.2297854">
  <ele>1582.99</ele>
  <time>2026-08-28T17:55:55Z</time>
  <course>181.0</course>
  <speed>7.440168008855714</speed>
  <fix>3d</fix>
</trkpt>
<trkpt lat="40.0719348" lon="-105.2297852">
  <ele>1583.0</ele>
  <time>2026-08-28T17:55:55Z</time>
  <course>180.27</course>
  <speed>7.47</speed>
  <fix>3d</fix>
</trkpt>
<trkpt lat="40.0719194" lon="-105.2297854">
  <ele>1582.99</ele>
  <time>2026-08-28T17:55:55Z</time>
  <course>181.0</course>
  <speed>7.450167783345554</speed>
  <fix>3d</fix>
</trkpt>
<trkpt lat="40.0719348" lon="-105.2297852">
  <ele>1583.0</ele>
  <time>2026-08-28T17:55:55Z</time>
  <course>180.27</course>
  <speed>7.47</speed>
  <fix>3d</fix>
</trkpt>
<trkpt lat="40.0719127" lon="-105.2297855">
  <ele>1582.99</ele>
  <time>2026-08-28T17:55:55Z</time>
  <course>181.01</course>
  <speed>7.450167783345554</speed>
  <fix>3d</fix>
</trkpt>
<trkpt lat="40.0719214" lon="-105.2297852">
  <ele>1583.0</ele>
  <time>2026-08-28T17:55:55Z</time>
  <course>180.27</course>
  <speed>7.47</speed>
  <fix>3d</fix>
</trkpt>
<trkpt lat="40.071906" lon="-105.2297855">
  <ele>1582.99</ele>
  <time>2026-08-28T17:55:55Z</time>
  <course>181.01</course>
  <speed>7.450167783345554</speed>
  <fix>3d</fix>
</trkpt>
<trkpt lat="40.0719214" lon="-105.2297852">
  <ele>1583.0</ele>
  <time>2026-08-28T17:55:55Z</time>
  <course>180.27</course>
  <speed>7.47</speed>
  <fix>3d</fix>
</trkpt>
<trkpt lat="40.0718992" lon="-105.2297855">
  <ele>1582.99</ele>
  <time>2026-08-28T17:55:55Z</time>
  <course>181.01</course>
  <speed>7.460167558439958</speed>
  <fix>3d</fix>
</trkpt>
<trkpt lat="40.0719079" lon="-105.2297853">
  <ele>1583.0</ele>
  <time>2026-08-28T17:55:55Z</time>
  <course>180.27</course>
  <speed>7.48</speed>
  <fix>3d</fix>
</trkpt>
<trkpt lat="40.0718925" lon="-105.2297856">
  <ele>1582.99</ele>
  <time>2026-08-28T17:55:55Z</time>
  <course>181.01</course>
  <speed>7.460167558439958</speed>
  <fix>3d</fix>
</trkpt>
<trkpt lat="40.0719079" lon="-105.2297853">
  <ele>1583.0</ele>
  <time>2026-08-28T17:55:55Z</time>
  <course>180.27</course>
  <speed>7.48</speed>
  <fix>3d</fix>
</trkpt>
<trkpt lat="40.0718856" lon="-105.2297856">
  <ele>1582.99</ele>
  <time>2026-08-28T17:55:55Z</time>
  <course>181.01</course>
  <speed>7.460167558439958</speed>
  <fix>3d</fix>
</trkpt>
<trkpt lat="40.0718945" lon="-105.2297854">
  <ele>1583.0</ele>
  <time>2026-08-28T17:55:55Z</time>
  <course>180.27</course>
  <speed>7.48</speed>
  <fix>3d</fix>
</trkpt>
<trkpt lat="40.0718789" lon="-105.2297857">
  <ele>1582.99</ele>
  <time>2026-08-28T17:55:55Z</time>
  <course>181.01</course>
  <speed>7.460167558439958</speed>
  <fix>3d</fix>
</trkpt>
<trkpt lat="40.0718945" lon="-105.2297854">
  <ele>1583.0</ele>
  <time>2026-08-28T17:55:55Z</time>
  <course>180.27</course>
  <speed>7.48</speed>
  <fix>3d</fix>
</trkpt>
<trkpt lat="40.0718721" lon="-105.2297857">
  <ele>1582.99</ele>
  <time>2026-08-28T17:55:55Z</time>
  <course>181.01</course>
  <speed>7.470167334136498</speed>
  <fix>3d</fix>
</trkpt>
<trkpt lat="40.0718811" lon="-105.2297855">
  <ele>1583.0</ele>
  <time>2026-08-28T17:55:55Z</time>
  <course>180.27</course>
  <speed>7.48</speed>
  <fix>3d</fix>
</trkpt>
<trkpt lat="40.0718654" lon="-105.2297857">
  <ele>1582.99</ele>
  <time>2026-08-28T17:55:55Z</time>
  <course>181.01</course>
  <speed>7.470167334136498</speed>
  <fix>3d</fix>
</trkpt>
<trkpt lat="40.0718811" lon="-105.2297855">
  <ele>1583.0</ele>
  <time>2026-08-28T17:55:55Z</time>
  <course>180.27</course>
  <speed>7.48</speed>
  <fix>3d</fix>
</trkpt>
<trkpt lat="40.0718586" lon="-105.2297858">
  <ele>1582.99</ele>
  <time>2026-08-28T17:55:55Z</time>
  <course>181.01</course>
  <speed>7.470167334136498</speed>
  <fix>3d</fix>
</trkpt>
<trkpt lat="40.0718676" lon="-105.2297856">
  <ele>1583.0</ele>
  <time>2026-08-28T17:55:55Z</time>
  <course>180.27</course>
  <speed>7.48</speed>
  <fix>3d</fix>
</trkpt>
<trkpt lat="40.0718519" lon="-105.2297858">
  <ele>1582.99</ele>
  <time>2026-08-28T17:55:55Z</time>
  <course>181.01</course>
  <speed>7.470167334136498</speed>
  <fix>3d</fix>
</trkpt>
<trkpt lat="40.0718676" lon="-105.2297856">
  <ele>1583.0</ele>
  <time>2026-08-28T17:55:55Z</time>
  <course>180.27</course>
  <speed>7.48</speed>
  <fix>3d</fix>
</trkpt>
<trkpt lat="40.0718451" lon="-105.2297859">
  <ele>1582.99</ele>
  <time>2026-08-28T17:55:55Z</time>
  <course>181.01</course>
  <speed>7.460167558439958</speed>
  <fix>3d</fix>
</trkpt>
<trkpt lat="40.0718676" lon="-105.2297856">
  <ele>1583.0</ele>
  <time>2026-08-28T17:55:55Z</time>
  <course>180.27</course>
  <speed>7.48</speed>
  <fix>3d</fix>
</trkpt>
<trkpt lat="40.0718385" lon="-105.2297859">
  <ele>1583.0</ele>
  <time>2026-08-28T17:55:55Z</time>
  <course>181.01</course>
  <speed>7.460167558439958</speed>
  <fix>3d</fix>
</trkpt>
<trkpt lat="40.0718541" lon="-105.2297857">
  <ele>1583.0</ele>
  <time>2026-08-28T17:55:55Z</time>
  <course>180.27</course>
  <speed>7.47</speed>
  <fix>3d</fix>
</trkpt>
<trkpt lat="40.0718318" lon="-105.229786">
  <ele>1583.0</ele>
  <time>2026-08-28T17:55:55Z</time>
  <course>181.01</course>
  <speed>7.460167558439958</speed>
  <fix>3d</fix>
</trkpt>
<trkpt lat="40.0718541" lon="-105.2297857">
  <ele>1583.0</ele>
  <time>2026-08-28T17:55:55Z</time>
  <course>180.27</course>
  <speed>7.47</speed>
  <fix>3d</fix>
</trkpt>
<trkpt lat="40.0718251" lon="-105.229786">
  <ele>1582.99</ele>
  <time>2026-08-28T17:55:55Z</time>
  <course>181.01</course>
  <speed>7.450167783345554</speed>
  <fix>3d</fix>
</trkpt>
<trkpt lat="40.0718406" lon="-105.2297858">
  <ele>1583.0</ele>
  <time>2026-08-28T17:55:55Z</time>
  <course>180.27</course>
  <speed>7.47</speed>
  <fix>3d</fix>
</trkpt>
<trkpt lat="40.0718185" lon="-105.2297861">
  <ele>1582.99</ele>
  <time>2026-08-28T17:55:55Z</time>
  <course>181.01</course>
  <speed>7.450167783345554</speed>
  <fix>3d</fix>
</trkpt>
<trkpt lat="40.0718406" lon="-105.2297858">
  <ele>1583.0</ele>
  <time>2026-08-28T17:55:55Z</time>
  <course>180.27</course>
  <speed>7.47</speed>
  <fix>3d</fix>
</trkpt>
<trkpt lat="40.0718118" lon="-105.2297861">
  <ele>1582.99</ele>
  <time>2026-08-28T17:55:55Z</time>
  <course>181.01</course>
  <speed>7.450167783345554</speed>
  <fix>3d</fix>
</trkpt>
<trkpt lat="40.0718272" lon="-105.2297859">
  <ele>1583.0</ele>
  <time>2026-08-28T17:55:55Z</time>
  <course>180.27</course>
  <speed>7.47</speed>
  <fix>3d</fix>
</trkpt>
<trkpt lat="40.0718052" lon="-105.2297861">
  <ele>1582.99</ele>
  <time>2026-08-28T17:55:55Z</time>
  <course>181.01</course>
  <speed>7.450167783345554</speed>
  <fix>3d</fix>
</trkpt>
<trkpt lat="40.0718272" lon="-105.2297859">
  <ele>1583.0</ele>
  <time>2026-08-28T17:55:55Z</time>
  <course>180.27</course>
  <speed>7.47</speed>
  <fix>3d</fix>
</trkpt>
<trkpt lat="40.0717985" lon="-105.2297862">
  <ele>1582.99</ele>
  <time>2026-08-28T17:55:55Z</time>
  <course>181.02</course>
  <speed>7.450167783345554</speed>
  <fix>3d</fix>
</trkpt>
<trkpt lat="40.0718138" lon="-105.2297859">
  <ele>1583.0</ele>
  <time>2026-08-28T17:55:55Z</time>
  <course>180.27</course>
  <speed>7.47</speed>
  <fix>3d</fix>
</trkpt>
<trkpt lat="40.0717918" lon="-105.2297862">
  <ele>1582.99</ele>
  <time>2026-08-28T17:55:55Z</time>
  <course>181.02</course>
  <speed>7.450167783345554</speed>
  <fix>3d</fix>
</trkpt>
<trkpt lat="40.0718004" lon="-105.229786">
  <ele>1583.0</ele>
  <time>2026-08-28T17:55:55Z</time>
  <course>180.27</course>
  <speed>7.48</speed>
  <fix>3d</fix>
</trkpt>
<trkpt lat="40.0717851" lon="-105.2297863">
  <ele>1582.99</ele>
  <time>2026-08-28T17:55:55Z</time>
  <course>181.02</course>
  <speed>7.450167783345554</speed>
  <fix>3d</fix>
</trkpt>
<trkpt lat="40.0718004" lon="-105.229786">
  <ele>1583.0</ele>
  <time>2026-08-28T17:55:55Z</time>
  <course>180.27</course>
  <speed>7.48</speed>
  <fix>3d</fix>
</trkpt>
<trkpt lat="40.0717785" lon="-105.2297863">
  <ele>1583.0</ele>
  <time>2026-08-28T17:55:55Z</time>
  <course>181.02</course>
  <speed>7.450167783345554</speed>
  <fix>3d</fix>
</trkpt>
<trkpt lat="40.071787" lon="-105.2297861">
  <ele>1583.0</ele>
  <time>2026-08-28T17:55:55Z</time>
  <course>180.27</course>
  <speed>7.48</speed>
  <fix>3d</fix>
</trkpt>
<trkpt lat="40.0717717" lon="-105.2297863">
  <ele>1583.0</ele>
  <time>2026-08-28T17:55:55Z</time>
  <course>181.02</course>
  <speed>7.460167558439958</speed>
  <fix>3d</fix>
</trkpt>
<trkpt lat="40.071787" lon="-105.2297861">
  <ele>1583.0</ele>
  <time>2026-08-28T17:55:55Z</time>
  <course>180.27</course>
  <speed>7.48</speed>
  <fix>3d</fix>
</trkpt>
<trkpt lat="40.071765" lon="-105.2297864">
  <ele>1583.0</ele>
  <time>2026-08-28T17:55:55Z</time>
  <course>181.02</course>
  <speed>7.460167558439958</speed>
  <fix>3d</fix>
</trkpt>
<trkpt lat="40.0717735" lon="-105.2297862">
  <ele>1583.0</ele>
  <time>2026-08-28T17:55:55Z</time>
  <course>180.27</course>
  <speed>7.49</speed>
  <fix>3d</fix>
</trkpt>
<trkpt lat="40.0717582" lon="-105.2297864">
  <ele>1583.0</ele>
  <time>2026-08-28T17:55:55Z</time>
  <course>181.02</course>
  <speed>7.470167334136498</speed>
  <fix>3d</fix>
</trkpt>
<trkpt lat="40.0717735" lon="-105.2297862">
  <ele>1583.0</ele>
  <time>2026-08-28T17:55:55Z</time>
  <course>180.27</course>
  <speed>7.49</speed>
  <fix>3d</fix>
</trkpt>
<trkpt lat="40.0717514" lon="-105.2297865">
  <ele>1583.01</ele>
  <time>2026-08-28T17:55:55Z</time>
  <course>181.02</course>
  <speed>7.470167334136498</speed>
  <fix>3d</fix>
</trkpt>
<trkpt lat="40.0717601" lon="-105.2297863">
  <ele>1583.0</ele>
  <time>2026-08-28T17:55:55Z</time>
  <course>180.27</course>
  <speed>7.49</speed>
  <fix>3d</fix>
</trkpt>
<trkpt lat="40.0717446" lon="-105.2297865">
  <ele>1583.01</ele>
  <time>2026-08-28T17:55:55Z</time>
  <course>181.02</course>
  <speed>7.470167334136498</speed>
  <fix>3d</fix>
</trkpt>
<trkpt lat="40.0717601" lon="-105.2297863">
  <ele>1583.0</ele>
  <time>2026-08-28T17:55:55Z</time>
  <course>180.27</course>
  <speed>7.49</speed>
  <fix>3d</fix>
</trkpt>
<trkpt lat="40.0717378" lon="-105.2297866">
  <ele>1583.01</ele>
  <time>2026-08-28T17:55:55Z</time>
  <course>181.02</course>
  <speed>7.480167110432761</speed>
  <fix>3d</fix>
</trkpt>
<trkpt lat="40.0717466" lon="-105.2297864">
  <ele>1583.0</ele>
  <time>2026-08-28T17:55:55Z</time>
  <course>180.27</course>
  <speed>7.5</speed>
  <fix>3d</fix>
</trkpt>
<trkpt lat="40.0717311" lon="-105.2297866">
  <ele>1583.01</ele>
  <time>2026-08-28T17:55:55Z</time>
  <course>181.02</course>
  <speed>7.420168461699506</speed>
  <fix>3d</fix>
</trkpt>
<trkpt lat="40.0717466" lon="-105.2297864">
  <ele>1583.0</ele>
  <time>2026-08-28T17:55:55Z</time>
  <course>180.27</course>
  <speed>7.5</speed>
  <fix>3d</fix>
</trkpt>
<trkpt lat="40.0717244" lon="-105.2297867">
  <ele>1583.01</ele>
  <time>2026-08-28T17:55:55Z</time>
  <course>181.02</course>
  <speed>7.380169374750149</speed>
  <fix>3d</fix>
</trkpt>
<trkpt lat="40.0717332" lon="-105.2297864">
  <ele>1583.0</ele>
  <time>2026-08-28T17:55:55Z</time>
  <course>180.27</course>
  <speed>7.45</speed>
  <fix>3d</fix>
</trkpt>
<trkpt lat="40.0717177" lon="-105.2297867">
  <ele>1583.01</ele>
  <time>2026-08-28T17:55:55Z</time>
  <course>181.02</course>
  <speed>7.370169604561349</speed>
  <fix>3d</fix>
</trkpt>
<trkpt lat="40.0717332" lon="-105.2297864">
  <ele>1583.0</ele>
  <time>2026-08-28T17:55:55Z</time>
  <course>180.27</course>
  <speed>7.45</speed>
  <fix>3d</fix>
</trkpt>
<trkpt lat="40.071711" lon="-105.2297867">
  <ele>1583.01</ele>
  <time>2026-08-28T17:55:55Z</time>
  <course>181.02</course>
  <speed>7.350170066059697</speed>
  <fix>3d</fix>
</trkpt>
<trkpt lat="40.0717198" lon="-105.2297865">
  <ele>1583.0</ele>
  <time>2026-08-28T17:55:55Z</time>
  <course>180.27</course>
  <speed>7.38</speed>
  <fix>3d</fix>
</trkpt>
<trkpt lat="40.0717044" lon="-105.2297868">
  <ele>1583.01</ele>
  <time>2026-08-28T17:55:55Z</time>
  <course>181.02</course>
  <speed>7.310170996632021</speed>
  <fix>3d</fix>
</trkpt>
<trkpt lat="40.0717198" lon="-105.2297865">
  <ele>1583.0</ele>
  <time>2026-08-28T17:55:55Z</time>
  <course>180.27</course>
  <speed>7.38</speed>
  <fix>3d</fix>
</trkpt>
<trkpt lat="40.0716978" lon="-105.2297868">
  <ele>1583.01</ele>
  <time>2026-08-28T17:55:55Z</time>
  <course>181.02</course>
  <speed>7.250172411743048</speed>
  <fix>3d</fix>
</trkpt>
<trkpt lat="40.0717198" lon="-105.2297865">
  <ele>1583.0</ele>
  <time>2026-08-28T17:55:55Z</time>
  <course>180.27</course>
  <speed>7.38</speed>
  <fix>3d</fix>
</trkpt>
<trkpt lat="40.0716914" lon="-105.2297868">
  <ele>1583.01</ele>
  <time>2026-08-28T17:55:55Z</time>
  <course>181.02</course>
  <speed>7.1801740925969195</speed>
  <fix>3d</fix>
</trkpt>
<trkpt lat="40.0717066" lon="-105.2297866">
  <ele>1583.0</ele>
  <time>2026-08-28T17:55:55Z</time>
  <course>180.27</course>
  <speed>7.31</speed>
  <fix>3d</fix>
</trkpt>
<trkpt lat="40.071685" lon="-105.2297869">
  <ele>1583.01</ele>
  <time>2026-08-28T17:55:55Z</time>
  <course>181.02</course>
  <speed>7.100112675162276</speed>
  <fix>3d</fix>
</trkpt>
<trkpt lat="40.0717066" lon="-105.2297866">
  <ele>1583.0</ele>
  <time>2026-08-28T17:55:55Z</time>
  <course>180.27</course>
  <speed>7.31</speed>
  <fix>3d</fix>
</trkpt>
<trkpt lat="40.0716787" lon="-105.2297869">
  <ele>1583.01</ele>
  <time>2026-08-28T17:55:55Z</time>
  <course>181.02</course>
  <speed>7.000114284781356</speed>
  <fix>3d</fix>
</trkpt>
<trkpt lat="40.0716935" lon="-105.2297867">
  <ele>1583.0</ele>
  <time>2026-08-28T17:55:55Z</time>
  <course>180.27</course>
  <speed>7.19</speed>
  <fix>3d</fix>
</trkpt>
<trkpt lat="40.0716725" lon="-105.229787">
  <ele>1583.0</ele>
  <time>2026-08-28T17:55:55Z</time>
  <course>181.03</course>
  <speed>6.900115941054904</speed>
  <fix>3d</fix>
</trkpt>
<trkpt lat="40.0716935" lon="-105.2297867">
  <ele>1583.0</ele>
  <time>2026-08-28T17:55:55Z</time>
  <course>180.27</course>
  <speed>7.19</speed>
  <fix>3d</fix>
</trkpt>
<trkpt lat="40.0716664" lon="-105.229787">
  <ele>1583.0</ele>
  <time>2026-08-28T17:55:55Z</time>
  <course>181.03</course>
  <speed>6.790117819301812</speed>
  <fix>3d</fix>
</trkpt>
<trkpt lat="40.0716807" lon="-105.2297868">
  <ele>1583.0</ele>
  <time>2026-08-28T17:55:55Z</time>
  <course>180.27</course>
  <speed>7.02</speed>
  <fix>3d</fix>
</trkpt>
<trkpt lat="40.0716603" lon="-105.229787">
  <ele>1583.0</ele>
  <time>2026-08-28T17:55:55Z</time>
  <course>181.03</course>
  <speed>6.670119938951623</speed>
  <fix>3d</fix>
</trkpt>
<trkpt lat="40.0716683" lon="-105.2297868">
  <ele>1583.0</ele>
  <time>2026-08-28T17:55:55Z</time>
  <course>180.27</course>
  <speed>6.82</speed>
  <fix>3d</fix>
</trkpt>
<trkpt lat="40.0716544" lon="-105.229787">
  <ele>1582.99</ele>
  <time>2026-08-28T17:55:55Z</time>
  <course>181.03</course>
  <speed>6.550122136265858</speed>
  <fix>3d</fix>
</trkpt>
<trkpt lat="40.0716683" lon="-105.2297868">
  <ele>1583.0</ele>
  <time>2026-08-28T17:55:55Z</time>
  <course>180.27</course>
  <speed>6.82</speed>
  <fix>3d</fix>
</trkpt>
<trkpt lat="40.0716486" lon="-105.2297871">
  <ele>1582.99</ele>
  <time>2026-08-28T17:55:55Z</time>
  <course>181.03</course>
  <speed>6.430069984067047</speed>
  <fix>3d</fix>
</trkpt>
<trkpt lat="40.0716563" lon="-105.2297869">
  <ele>1583.0</ele>
  <time>2026-08-28T17:55:55Z</time>
  <course>180.27</course>
  <speed>6.59</speed>
  <fix>3d</fix>
</trkpt>
<trkpt lat="40.0716429" lon="-105.2297871">
  <ele>1582.99</ele>
  <time>2026-08-28T17:55:55Z</time>
  <course>181.03</course>
  <speed>6.300071428166509</speed>
  <fix>3d</fix>
</trkpt>
<trkpt lat="40.0716563" lon="-105.2297869">
  <ele>1583.0</ele>
  <time>2026-08-28T17:55:55Z</time>
  <course>180.27</course>
  <speed>6.59</speed>
  <fix>3d</fix>
</trkpt>
<trkpt lat="40.0716373" lon="-105.2297871">
  <ele>1582.99</ele>
  <time>2026-08-28T17:55:55Z</time>
  <course>181.03</course>
  <speed>6.180072815105014</speed>
  <fix>3d</fix>
</trkpt>
<trkpt lat="40.0716446" lon="-105.229787">
  <ele>1583.0</ele>
  <time>2026-08-28T17:55:55Z</time>
  <course>180.27</course>
  <speed>6.34</speed>
  <fix>3d</fix>
</trkpt>
<trkpt lat="40.0716318" lon="-105.2297871">
  <ele>1582.99</ele>
  <time>2026-08-28T17:55:55Z</time>
  <course>181.03</course>
  <speed>6.050074379708072</speed>
  <fix>3d</fix>
</trkpt>
<trkpt lat="40.0716446" lon="-105.229787">
  <ele>1583.0</ele>
  <time>2026-08-28T17:55:55Z</time>
  <course>180.27</course>
  <speed>6.34</speed>
  <fix>3d</fix>
</trkpt>
<trkpt lat="40.0716264" lon="-105.2297872">
  <ele>1582.99</ele>
  <time>2026-08-28T17:55:55Z</time>
  <course>181.04</course>
  <speed>5.910076141641493</speed>
  <fix>3d</fix>
</trkpt>
<trkpt lat="40.0716335" lon="-105.2297871">
  <ele>1583.0</ele>
  <time>2026-08-28T17:55:55Z</time>
  <course>180.27</course>
  <speed>6.08</speed>
  <fix>3d</fix>
</trkpt>
<trkpt lat="40.071621" lon="-105.2297872">
  <ele>1582.99</ele>
  <time>2026-08-28T17:55:55Z</time>
  <course>181.04</course>
  <speed>5.780034601972552</speed>
  <fix>3d</fix>
</trkpt>
<trkpt lat="40.0716335" lon="-105.2297871">
  <ele>1583.0</ele>
  <time>2026-08-28T17:55:55Z</time>
  <course>180.27</course>
  <speed>6.08</speed>
  <fix>3d</fix>
</trkpt>
<trkpt lat="40.0716159" lon="-105.2297872">
  <ele>1582.99</ele>
  <time>2026-08-28T17:55:55Z</time>
  <course>181.05</course>
  <speed>5.650035398119201</speed>
  <fix>3d</fix>
</trkpt>
<trkpt lat="40.0716228" lon="-105.2297871">
  <ele>1583.0</ele>
  <time>2026-08-28T17:55:55Z</time>
  <course>180.28</course>
  <speed>5.83</speed>
  <fix>3d</fix>
</trkpt>
<trkpt lat="40.0716108" lon="-105.2297872">
  <ele>1582.99</ele>
  <time>2026-08-28T17:55:55Z</time>
  <course>181.06</course>
  <speed>5.530036166247016</speed>
  <fix>3d</fix>
</trkpt>
<trkpt lat="40.0716228" lon="-105.2297871">
  <ele>1583.0</ele>
  <time>2026-08-28T17:55:55Z</time>
  <course>180.28</course>
  <speed>5.83</speed>
  <fix>3d</fix>
</trkpt>
<trkpt lat="40.0716059" lon="-105.2297873">
  <ele>1582.99</ele>
  <time>2026-08-28T17:55:55Z</time>
  <course>181.06</course>
  <speed>5.400037036910025</speed>
  <fix>3d</fix>
</trkpt>
<trkpt lat="40.0716125" lon="-105.2297872">
  <ele>1583.0</ele>
  <time>2026-08-28T17:55:55Z</time>
  <course>180.29</course>
  <speed>5.57</speed>
  <fix>3d</fix>
</trkpt>
<trkpt lat="40.0716011" lon="-105.2297873">
  <ele>1582.99</ele>
  <time>2026-08-28T17:55:55Z</time>
  <course>181.06</course>
  <speed>5.270037950527491</speed>
  <fix>3d</fix>
</trkpt>
<trkpt lat="40.0716125" lon="-105.2297872">
  <ele>1583.0</ele>
  <time>2026-08-28T17:55:55Z</time>
  <course>180.29</course>
  <speed>5.57</speed>
  <fix>3d</fix>
</trkpt>
<trkpt lat="40.0715964" lon="-105.2297873">
  <ele>1582.99</ele>
  <time>2026-08-28T17:55:55Z</time>
  <course>181.06</course>
  <speed>5.150038834805034</speed>
  <fix>3d</fix>
</trkpt>
<trkpt lat="40.0716028" lon="-105.2297873">
  <ele>1583.0</ele>
  <time>2026-08-28T17:55:55Z</time>
  <course>180.29</course>
  <speed>5.32</speed>
  <fix>3d</fix>
</trkpt>
<trkpt lat="40.0715918" lon="-105.2297873">
  <ele>1582.99</ele>
  <time>2026-08-28T17:55:55Z</time>
  <course>181.06</course>
  <speed>5.030039761274258</speed>
  <fix>3d</fix>
</trkpt>
<trkpt lat="40.0716028" lon="-105.2297873">
  <ele>1583.0</ele>
  <time>2026-08-28T17:55:55Z</time>
  <course>180.29</course>
  <speed>5.32</speed>
  <fix>3d</fix>
</trkpt>
<trkpt lat="40.0715873" lon="-105.2297874">
  <ele>1582.99</ele>
  <time>2026-08-28T17:55:55Z</time>
  <course>181.06</course>
  <speed>4.910040733028597</speed>
  <fix>3d</fix>
</trkpt>
<trkpt lat="40.0716028" lon="-105.2297873">
  <ele>1583.0</ele>
  <time>2026-08-28T17:55:55Z</time>
  <course>180.29</course>
  <speed>5.32</speed>
  <fix>3d</fix>
</trkpt>
<trkpt lat="40.071583" lon="-105.2297874">
  <ele>1582.99</ele>
  <time>2026-08-28T17:55:55Z</time>
  <course>181.06</course>
  <speed>4.790041753471467</speed>
  <fix>3d</fix>
</trkpt>
<trkpt lat="40.0715934" lon="-105.2297873">
  <ele>1583.0</ele>
  <time>2026-08-28T17:55:55Z</time>
  <course>180.29</course>
  <speed>5.08</speed>
  <fix>3d</fix>
</trkpt>
<trkpt lat="40.0715787" lon="-105.2297874">
  <ele>1582.99</ele>
  <time>2026-08-28T17:55:55Z</time>
  <course>181.06</course>
  <speed>4.6700428263560925</speed>
  <fix>3d</fix>
</trkpt>
<trkpt lat="40.0715934" lon="-105.2297873">
  <ele>1583.0</ele>
  <time>2026-08-28T17:55:55Z</time>
  <course>180.29</course>
  <speed>5.08</speed>
  <fix>3d</fix>
</trkpt>
<trkpt lat="40.0715746" lon="-105.2297874">
  <ele>1582.99</ele>
  <time>2026-08-28T17:55:55Z</time>
  <course>181.06</course>
  <speed>4.570010940905941</speed>
  <fix>3d</fix>
</trkpt>
<trkpt lat="40.0715845" lon="-105.2297874">
  <ele>1583.0</ele>
  <time>2026-08-28T17:55:55Z</time>
  <course>180.29</course>
  <speed>4.84</speed>
  <fix>3d</fix>
</trkpt>
<trkpt lat="40.0715706" lon="-105.2297874">
  <ele>1582.99</ele>
  <time>2026-08-28T17:55:55Z</time>
  <course>181.06</course>
  <speed>4.490011135843652</speed>
  <fix>3d</fix>
</trkpt>
<trkpt lat="40.0715845" lon="-105.2297874">
  <ele>1583.0</ele>
  <time>2026-08-28T17:55:55Z</time>
  <course>180.29</course>
  <speed>4.84</speed>
  <fix>3d</fix>
</trkpt>
<trkpt lat="40.0715666" lon="-105.2297875">
  <ele>1582.99</ele>
  <time>2026-08-28T17:55:55Z</time>
  <course>181.06</course>
  <speed>4.44004504481655</speed>
  <fix>3d</fix>
</trkpt>
<trkpt lat="40.071576" lon="-105.2297875">
  <ele>1583.0</ele>
  <time>2026-08-28T17:55:55Z</time>
  <course>180.29</course>
  <speed>4.64</speed>
  <fix>3d</fix>
</trkpt>
<trkpt lat="40.0715627" lon="-105.2297875">
  <ele>1582.99</ele>
  <time>2026-08-28T17:55:55Z</time>
  <course>181.07</course>
  <speed>4.420045248637168</speed>
  <fix>3d</fix>
</trkpt>
<trkpt lat="40.071576" lon="-105.2297875">
  <ele>1583.0</ele>
  <time>2026-08-28T17:55:55Z</time>
  <course>180.29</course>
  <speed>4.64</speed>
  <fix>3d</fix>
</trkpt>
<trkpt lat="40.0715587" lon="-105.2297875">
  <ele>1583.0</ele>
  <time>2026-08-28T17:55:55Z</time>
  <course>181.07</course>
  <speed>4.410045351240733</speed>
  <fix>3d</fix>
</trkpt>
<trkpt lat="40.0715677" lon="-105.2297875">
  <ele>1583.0</ele>
  <time>2026-08-28T17:55:55Z</time>
  <course>180.29</course>
  <speed>4.52</speed>
  <fix>3d</fix>
</trkpt>
<trkpt lat="40.0715547" lon="-105.2297875">
  <ele>1583.0</ele>
  <time>2026-08-28T17:55:55Z</time>
  <course>181.07</course>
  <speed>4.430045146496816</speed>
  <fix>3d</fix>
</trkpt>
<trkpt lat="40.0715596" lon="-105.2297876">
  <ele>1583.0</ele>
  <time>2026-08-28T17:55:55Z</time>
  <course>180.29</course>
  <speed>4.49</speed>
  <fix>3d</fix>
</trkpt>
<trkpt lat="40.0715507" lon="-105.2297876">
  <ele>1583.0</ele>
  <time>2026-08-28T17:55:55Z</time>
  <course>181.07</course>
  <speed>4.460044842823892</speed>
  <fix>3d</fix>
</trkpt>
<trkpt lat="40.0715596" lon="-105.2297876">
  <ele>1583.0</ele>
  <time>2026-08-28T17:55:55Z</time>
  <course>180.29</course>
  <speed>4.49</speed>
  <fix>3d</fix>
</trkpt>
<trkpt lat="40.0715467" lon="-105.2297876">
  <ele>1583.0</ele>
  <time>2026-08-28T17:55:55Z</time>
  <course>181.07</course>
  <speed>4.500044444224968</speed>
  <fix>3d</fix>
</trkpt>
<trkpt lat="40.0715516" lon="-105.2297876">
  <ele>1583.0</ele>
  <time>2026-08-28T17:55:55Z</time>
  <course>180.29</course>
  <speed>4.53</speed>
  <fix>3d</fix>
</trkpt>
<trkpt lat="40.0715425" lon="-105.2297877">
  <ele>1583.0</ele>
  <time>2026-08-28T17:55:55Z</time>
  <course>181.07</course>
  <speed>4.550098900024042</speed>
  <fix>3d</fix>
</trkpt>
<trkpt lat="40.0715516" lon="-105.2297876">
  <ele>1583.0</ele>
  <time>2026-08-28T17:55:55Z</time>
  <course>180.29</course>
  <speed>4.53</speed>
  <fix>3d</fix>
</trkpt>
<trkpt lat="40.0715384" lon="-105.2297877">
  <ele>1583.01</ele>
  <time>2026-08-28T17:55:55Z</time>
  <course>181.07</course>
  <speed>4.610097612849429</speed>
  <fix>3d</fix>
</trkpt>
<trkpt lat="40.0715433" lon="-105.2297876">
  <ele>1583.0</ele>
  <time>2026-08-28T17:55:55Z</time>
  <course>180.29</course>
  <speed>4.62</speed>
  <fix>3d</fix>
</trkpt>
<trkpt lat="40.0715341" lon="-105.2297877">
  <ele>1583.01</ele>
  <time>2026-08-28T17:55:55Z</time>
  <course>181.07</course>
  <speed>4.660096565523079</speed>
  <fix>3d</fix>
</trkpt>
<trkpt lat="40.0715433" lon="-105.2297876">
  <ele>1583.0</ele>
  <time>2026-08-28T17:55:55Z</time>
  <course>180.29</course>
  <speed>4.62</speed>
  <fix>3d</fix>
</trkpt>
<trkpt lat="40.0715298" lon="-105.2297878">
  <ele>1583.01</ele>
  <time>2026-08-28T17:55:55Z</time>
  <course>181.07</course>
  <speed>4.720095338020197</speed>
  <fix>3d</fix>
</trkpt>
<trkpt lat="40.0715349" lon="-105.2297877">
  <ele>1583.0</ele>
  <time>2026-08-28T17:55:55Z</time>
  <course>180.29</course>
  <speed>4.72</speed>
  <fix>3d</fix>
</trkpt>
<trkpt lat="40.0715254" lon="-105.2297878">
  <ele>1583.01</ele>
  <time>2026-08-28T17:55:55Z</time>
  <course>181.08</course>
  <speed>4.770167711936342</speed>
  <fix>3d</fix>
</trkpt>
<trkpt lat="40.0715349" lon="-105.2297877">
  <ele>1583.0</ele>
  <time>2026-08-28T17:55:55Z</time>
  <course>180.29</course>
  <speed>4.72</speed>
  <fix>3d</fix>
</trkpt>
<trkpt lat="40.0715211" lon="-105.2297878">
  <ele>1583.01</ele>
  <time>2026-08-28T17:55:55Z</time>
  <course>181.08</course>
  <speed>4.810166317290911</speed>
  <fix>3d</fix>
</trkpt>
<trkpt lat="40.0715263" lon="-105.2297878">
  <ele>1583.0</ele>
  <time>2026-08-28T17:55:55Z</time>
  <course>180.29</course>
  <speed>4.82</speed>
  <fix>3d</fix>
</trkpt>
<trkpt lat="40.0715166" lon="-105.2297879">
  <ele>1583.01</ele>
  <time>2026-08-28T17:55:55Z</time>
  <course>181.08</course>
  <speed>4.840165286433925</speed>
  <fix>3d</fix>
</trkpt>
<trkpt lat="40.0715263" lon="-105.2297878">
  <ele>1583.0</ele>
  <time>2026-08-28T17:55:55Z</time>
  <course>180.29</course>
  <speed>4.82</speed>
  <fix>3d</fix>
</trkpt>
<trkpt lat="40.0715122" lon="-105.2297879">
  <ele>1583.01</ele>
  <time>2026-08-28T17:55:55Z</time>
  <course>181.08</course>
  <speed>4.87016426827679</speed>
  <fix>3d</fix>
</trkpt>
<trkpt lat="40.0715177" lon="-105.2297878">
  <ele>1583.0</ele>
  <time>2026-08-28T17:55:55Z</time>
  <course>180.29</course>
  <speed>4.88</speed>
  <fix>3d</fix>
</trkpt>
<trkpt lat="40.0715077" lon="-105.229788">
  <ele>1583.01</ele>
  <time>2026-08-28T17:55:55Z</time>
  <course>181.08</course>
  <speed>4.880163931672787</speed>
  <fix>3d</fix>
</trkpt>
<trkpt lat="40.0715177" lon="-105.2297878">
  <ele>1583.0</ele>
  <time>2026-08-28T17:55:55Z</time>
  <course>180.29</course>
  <speed>4.88</speed>
  <fix>3d</fix>
</trkpt>
<trkpt lat="40.0715033" lon="-105.229788">
  <ele>1583.01</ele>
  <time>2026-08-28T17:55:55Z</time>
  <course>181.08</course>
  <speed>4.880163931672787</speed>
  <fix>3d</fix>
</trkpt>
<trkpt lat="40.0715088" lon="-105.2297879">
  <ele>1583.0</ele>
  <time>2026-08-28T17:55:55Z</time>
  <course>180.29</course>
  <speed>4.92</speed>
  <fix>3d</fix>
</trkpt>
<trkpt lat="40.0714988" lon="-105.2297881">
  <ele>1583.01</ele>
  <time>2026-08-28T17:55:55Z</time>
  <course>181.08</course>
  <speed>4.87016426827679</speed>
  <fix>3d</fix>
</trkpt>
<trkpt lat="40.0715088" lon="-105.2297879">
  <ele>1583.0</ele>
  <time>2026-08-28T17:55:55Z</time>
  <course>180.29</course>
  <speed>4.92</speed>
  <fix>3d</fix>
</trkpt>
<trkpt lat="40.0714944" lon="-105.2297881">
  <ele>1583.01</ele>
  <time>2026-08-28T17:55:55Z</time>
  <course>181.08</course>
  <speed>4.850164945648756</speed>
  <fix>3d</fix>
</trkpt>
<trkpt lat="40.0715088" lon="-105.2297879">
  <ele>1583.0</ele>
  <time>2026-08-28T17:55:55Z</time>
  <course>180.29</course>
  <speed>4.92</speed>
  <fix>3d</fix>
</trkpt>
<trkpt lat="40.07149" lon="-105.2297881">
  <ele>1583.01</ele>
  <time>2026-08-28T17:55:55Z</time>
  <course>181.08</course>
  <speed>4.810166317290911</speed>
  <fix>3d</fix>
</trkpt>
<trkpt lat="40.0715" lon="-105.229788">
  <ele>1583.0</ele>
  <time>2026-08-28T17:55:55Z</time>
  <course>180.29</course>
  <speed>4.9</speed>
  <fix>3d</fix>
</trkpt>
<trkpt lat="40.0714857" lon="-105.2297882">
  <ele>1583.01</ele>
  <time>2026-08-28T17:55:55Z</time>
  <course>181.08</course>
  <speed>4.750168418066879</speed>
  <fix>3d</fix>
</trkpt>
<trkpt lat="40.0715" lon="-105.229788">
  <ele>1583.0</ele>
  <time>2026-08-28T17:55:55Z</time>
  <course>180.29</course>
  <speed>4.9</speed>
  <fix>3d</fix>
</trkpt>
<trkpt lat="40.0714815" lon="-105.2297882">
  <ele>1583.01</ele>
  <time>2026-08-28T17:55:55Z</time>
  <course>181.08</course>
  <speed>4.680170937049201</speed>
  <fix>3d</fix>
</trkpt>
<trkpt lat="40.0714912" lon="-105.229788">
  <ele>1583.0</ele>
  <time>2026-08-28T17:55:55Z</time>
  <course>180.29</course>
  <speed>4.83</speed>
  <fix>3d</fix>
</trkpt>
<trkpt lat="40.0714773" lon="-105.2297883">
  <ele>1583.01</ele>
  <time>2026-08-28T17:55:55Z</time>
  <course>181.08</course>
  <speed>4.6001739097560215</speed>
  <fix>3d</fix>
</trkpt>
<trkpt lat="40.0714912" lon="-105.229788">
  <ele>1583.0</ele>
  <time>2026-08-28T17:55:55Z</time>
  <course>180.29</course>
  <speed>4.83</speed>
  <fix>3d</fix>
</trkpt>
<trkpt lat="40.0714732" lon="-105.2297883">
  <ele>1583.01</ele>
  <time>2026-08-28T17:55:55Z</time>
  <course>181.08</course>
  <speed>4.510177380103802</speed>
  <fix>3d</fix>
</trkpt>
<trkpt lat="40.0714826" lon="-105.229788">
  <ele>1583.0</ele>
  <time>2026-08-28T17:55:55Z</time>
  <course>180.29</course>
  <speed>4.71</speed>
  <fix>3d</fix>
</trkpt>
<trkpt lat="40.0714692" lon="-105.2297883">
  <ele>1583.0</ele>
  <time>2026-08-28T17:55:55Z</time>
  <course>181.08</course>
  <speed>4.400181814425399</speed>
  <fix>3d</fix>
</trkpt>
<trkpt lat="40.0714743" lon="-105.2297881">
  <ele>1583.0</ele>
  <time>2026-08-28T17:55:55Z</time>
  <course>180.29</course>
  <speed>4.54</speed>
  <fix>3d</fix>
</trkpt>
<trkpt lat="40.0714653" lon="-105.2297883">
  <ele>1583.0</ele>
  <time>2026-08-28T17:55:55Z</time>
  <course>181.08</course>
  <speed>4.300186042487</speed>
  <fix>3d</fix>
</trkpt>
<trkpt lat="40.0714743" lon="-105.2297881">
  <ele>1583.0</ele>
  <time>2026-08-28T17:55:55Z</time>
  <course>180.29</course>
  <speed>4.54</speed>
  <fix>3d</fix>
</trkpt>
<trkpt lat="40.0714615" lon="-105.2297884">
  <ele>1583.0</ele>
  <time>2026-08-28T17:55:55Z</time>
  <course>181.08</course>
  <speed>4.180191383178526</speed>
  <fix>3d</fix>
</trkpt>
<trkpt lat="40.0714664" lon="-105.2297882">
  <ele>1583.0</ele>
  <time>2026-08-28T17:55:55Z</time>
  <course>180.29</course>
  <speed>4.33</speed>
  <fix>3d</fix>
</trkpt>
<trkpt lat="40.0714578" lon="-105.2297884">
  <ele>1583.0</ele>
  <time>2026-08-28T17:55:55Z</time>
  <course>181.08</course>
  <speed>4.060110835925541</speed>
  <fix>3d</fix>
</trkpt>
<trkpt lat="40.0714664" lon="-105.2297882">
  <ele>1583.0</ele>
  <time>2026-08-28T17:55:55Z</time>
  <course>180.29</course>
  <speed>4.33</speed>
  <fix>3d</fix>
</trkpt>
<trkpt lat="40.0714542" lon="-105.2297884">
  <ele>1583.0</ele>
  <time>2026-08-28T17:55:55Z</time>
  <course>181.08</course>
  <speed>3.9301145021487605</speed>
  <fix>3d</fix>
</trkpt>
<trkpt lat="40.0714588" lon="-105.2297882">
  <ele>1583.0</ele>
  <time>2026-08-28T17:55:55Z</time>
  <course>180.29</course>
  <speed>4.09</speed>
  <fix>3d</fix>
</trkpt>
<trkpt lat="40.0714507" lon="-105.2297884">
  <ele>1583.0</ele>
  <time>2026-08-28T17:55:55Z</time>
  <course>181.1</course>
  <speed>3.8001184192074855</speed>
  <fix>3d</fix>
</trkpt>
<trkpt lat="40.0714588" lon="-105.2297882">
  <ele>1583.0</ele>
  <time>2026-08-28T17:55:55Z</time>
  <course>180.29</course>
  <speed>4.09</speed>
  <fix>3d</fix>
</trkpt>
<trkpt lat="40.0714473" lon="-105.2297884">
  <ele>1583.0</ele>
  <time>2026-08-28T17:55:55Z</time>
  <course>181.11</course>
  <speed>3.670122613755568</speed>
  <fix>3d</fix>
</trkpt>
<trkpt lat="40.0714516" lon="-105.2297883">
  <ele>1583.0</ele>
  <time>2026-08-28T17:55:55Z</time>
  <course>180.3</course>
  <speed>3.84</speed>
  <fix>3d</fix>
</trkpt>
<trkpt lat="40.071444" lon="-105.2297885">
  <ele>1583.0</ele>
  <time>2026-08-28T17:55:55Z</time>
  <course>181.15</course>
  <speed>3.540127116361784</speed>
  <fix>3d</fix>
</trkpt>
<trkpt lat="40.0714516" lon="-105.2297883">
  <ele>1583.0</ele>
  <time>2026-08-28T17:55:55Z</time>
  <course>180.3</course>
  <speed>3.84</speed>
  <fix>3d</fix>
</trkpt>
<trkpt lat="40.0714408" lon="-105.2297885">
  <ele>1583.0</ele>
  <time>2026-08-28T17:55:55Z</time>
  <course>181.18</course>
  <speed>3.4001323503652032</speed>
  <fix>3d</fix>
</trkpt>
<trkpt lat="40.071445" lon="-105.2297883">
  <ele>1583.0</ele>
  <time>2026-08-28T17:55:55Z</time>
  <course>180.35</course>
  <speed>3.58</speed>
  <fix>3d</fix>
</trkpt>
<trkpt lat="40.0714378" lon="-105.2297885">
  <ele>1583.0</ele>
  <time>2026-08-28T17:55:55Z</time>
  <course>181.23</course>
  <speed>3.270137611783333</speed>
  <fix>3d</fix>
</trkpt>
<trkpt lat="40.071445" lon="-105.2297883">
  <ele>1583.0</ele>
  <time>2026-08-28T17:55:55Z</time>
  <course>180.35</course>
  <speed>3.58</speed>
  <fix>3d</fix>
</trkpt>
<trkpt lat="40.0714349" lon="-105.2297885">
  <ele>1583.0</ele>
  <time>2026-08-28T17:55:55Z</time>
  <course>181.27</course>
  <speed>3.140143308831621</speed>
  <fix>3d</fix>
</trkpt>
<trkpt lat="40.0714387" lon="-105.2297883">
  <ele>1583.0</ele>
  <time>2026-08-28T17:55:55Z</time>
  <course>180.43</course>
  <speed>3.31</speed>
  <fix>3d</fix>
</trkpt>
<trkpt lat="40.0714322" lon="-105.2297886">
  <ele>1583.01</ele>
  <time>2026-08-28T17:55:55Z</time>
  <course>181.32</course>
  <speed>3.000149996250187</speed>
  <fix>3d</fix>
</trkpt>
<trkpt lat="40.0714387" lon="-105.2297883">
  <ele>1583.0</ele>
  <time>2026-08-28T17:55:55Z</time>
  <course>180.43</course>
  <speed>3.31</speed>
  <fix>3d</fix>
</trkpt>
<trkpt lat="40.0714295" lon="-105.2297886">
  <ele>1583.01</ele>
  <time>2026-08-28T17:55:55Z</time>
  <course>181.36</course>
  <speed>2.8701567901423086</speed>
  <fix>3d</fix>
</trkpt>
<trkpt lat="40.071433" lon="-105.2297884">
  <ele>1583.0</ele>
  <time>2026-08-28T17:55:55Z</time>
  <course>180.51</course>
  <speed>3.05</speed>
  <fix>3d</fix>
</trkpt>
<trkpt lat="40.071427" lon="-105.2297886">
  <ele>1583.01</ele>
  <time>2026-08-28T17:55:55Z</time>
  <course>181.43</course>
  <speed>2.730164830188829</speed>
  <fix>3d</fix>
</trkpt>
<trkpt lat="40.071433" lon="-105.2297884">
  <ele>1583.0</ele>
  <time>2026-08-28T17:55:55Z</time>
  <course>180.51</course>
  <speed>3.05</speed>
  <fix>3d</fix>
</trkpt>
<trkpt lat="40.0714246" lon="-105.2297886">
  <ele>1583.01</ele>
  <time>2026-08-28T17:55:55Z</time>
  <course>181.49</course>
  <speed>2.5901737393464557</speed>
  <fix>3d</fix>
</trkpt>
<trkpt lat="40.071433" lon="-105.2297884">
  <ele>1583.0</ele>
  <time>2026-08-28T17:55:55Z</time>
  <course>180.51</course>
  <speed>3.05</speed>
  <fix>3d</fix>
</trkpt>
<trkpt lat="40.0714223" lon="-105.2297887">
  <ele>1583.01</ele>
  <time>2026-08-28T17:55:55Z</time>
  <course>181.54</course>
  <speed>2.4601829200285086</speed>
  <fix>3d</fix>
</trkpt>
<trkpt lat="40.0714277" lon="-105.2297885">
  <ele>1583.0</ele>
  <time>2026-08-28T17:55:55Z</time>
  <course>180.62</course>
  <speed>2.78</speed>
  <fix>3d</fix>
</trkpt>
<trkpt lat="40.0714201" lon="-105.2297887">
  <ele>1583.01</ele>
  <time>2026-08-28T17:55:55Z</time>
  <course>181.6</course>
  <speed>2.3401922997907674</speed>
  <fix>3d</fix>
</trkpt>
<trkpt lat="40.0714277" lon="-105.2297885">
  <ele>1583.0</ele>
  <time>2026-08-28T17:55:55Z</time>
  <course>180.62</course>
  <speed>2.78</speed>
  <fix>3d</fix>
</trkpt>
<trkpt lat="40.0714181" lon="-105.2297887">
  <ele>1583.01</ele>
  <time>2026-08-28T17:55:55Z</time>
  <course>181.64</course>
  <speed>2.220202693449407</speed>
  <fix>3d</fix>
</trkpt>
<trkpt lat="40.071423" lon="-105.2297886">
  <ele>1583.0</ele>
  <time>2026-08-28T17:55:55Z</time>
  <course>180.74</course>
  <speed>2.51</speed>
  <fix>3d</fix>
</trkpt>
<trkpt lat="40.0714161" lon="-105.2297888">
  <ele>1583.01</ele>
  <time>2026-08-28T17:55:55Z</time>
  <course>181.69</course>
  <speed>2.110213259365034</speed>
  <fix>3d</fix>
</trkpt>
<trkpt lat="40.071423" lon="-105.2297886">
  <ele>1583.0</ele>
  <time>2026-08-28T17:55:55Z</time>
  <course>180.74</course>
  <speed>2.51</speed>
  <fix>3d</fix>
</trkpt>
<trkpt lat="40.0714143" lon="-105.2297888">
  <ele>1583.02</ele>
  <time>2026-08-28T17:55:55Z</time>
  <course>181.73</course>
  <speed>2.000224987345174</speed>
  <fix>3d</fix>
</trkpt>
<trkpt lat="40.0714187" lon="-105.2297887">
  <ele>1583.0</ele>
  <time>2026-08-28T17:55:55Z</time>
  <course>180.84</course>
  <speed>2.27</speed>
  <fix>3d</fix>
</trkpt>
<trkpt lat="40.0714125" lon="-105.2297888">
  <ele>1583.02</ele>
  <time>2026-08-28T17:55:55Z</time>
  <course>181.76</course>
  <speed>1.9002368273454757</speed>
  <fix>3d</fix>
</trkpt>
<trkpt lat="40.0714148" lon="-105.2297887">
  <ele>1583.0</ele>
  <time>2026-08-28T17:55:55Z</time>
  <course>180.92</course>
  <speed>2.06</speed>
  <fix>3d</fix>
</trkpt>
<trkpt lat="40.0714109" lon="-105.2297889">
  <ele>1583.03</ele>
  <time>2026-08-28T17:55:55Z</time>
  <course>181.8</course>
  <speed>1.8002499826412999</speed>
  <fix>3d</fix>
</trkpt>
<trkpt lat="40.0714148" lon="-105.2297887">
  <ele>1583.0</ele>
  <time>2026-08-28T17:55:55Z</time>
  <course>180.92</course>
  <speed>2.06</speed>
  <fix>3d</fix>
</trkpt>
<trkpt lat="40.0714093" lon="-105.2297889">
  <ele>1583.03</ele>
  <time>2026-08-28T17:55:55Z</time>
  <course>181.82</course>
  <speed>1.710263137648707</speed>
  <fix>3d</fix>
</trkpt>
<trkpt lat="40.0714113" lon="-105.2297888">
  <ele>1583.0</ele>
  <time>2026-08-28T17:55:55Z</time>
  <course>180.98</course>
  <speed>1.86</speed>
  <fix>3d</fix>
</trkpt>
<trkpt lat="40.0714078" lon="-105.2297889">
  <ele>1583.04</ele>
  <time>2026-08-28T17:55:55Z</time>
  <course>181.85</course>
  <speed>1.620277753966893</speed>
  <fix>3d</fix>
</trkpt>
<trkpt lat="40.0714113" lon="-105.2297888">
  <ele>1583.0</ele>
  <time>2026-08-28T17:55:55Z</time>
  <course>180.98</course>
  <speed>1.86</speed>
  <fix>3d</fix>
</trkpt>
<trkpt lat="40.0714063" lon="-105.229789">
  <ele>1583.04</ele>
  <time>2026-08-28T17:55:55Z</time>
  <course>181.87</course>
  <speed>1.5402921800749363</speed>
  <fix>3d</fix>
</trkpt>
<trkpt lat="40.0714081" lon="-105.2297889">
  <ele>1583.0</ele>
  <time>2026-08-28T17:55:55Z</time>
  <course>181.04</course>
  <speed>1.68</speed>
  <fix>3d</fix>
</trkpt>
<trkpt lat="40.071405" lon="-105.229789">
  <ele>1583.05</ele>
  <time>2026-08-28T17:55:55Z</time>
  <course>181.89</course>
  <speed>1.4603081866510235</speed>
  <fix>3d</fix>
</trkpt>
<trkpt lat="40.0714081" lon="-105.2297889">
  <ele>1583.0</ele>
  <time>2026-08-28T17:55:55Z</time>
  <course>181.04</course>
  <speed>1.68</speed>
  <fix>3d</fix>
</trkpt>
<trkpt lat="40.0714037" lon="-105.229789">
  <ele>1583.05</ele>
  <time>2026-08-28T17:55:55Z</time>
  <course>181.91</course>
  <speed>1.390323703315167</speed>
  <fix>3d</fix>
</trkpt>
<trkpt lat="40.0714052" lon="-105.229789">
  <ele>1583.0</ele>
  <time>2026-08-28T17:55:55Z</time>
  <course>181.08</course>
  <speed>1.52</speed>
  <fix>3d</fix>
</trkpt>
<trkpt lat="40.0714024" lon="-105.2297891">
  <ele>1583.05</ele>
  <time>2026-08-28T17:55:55Z</time>
  <course>181.93</course>
  <speed>1.3203408650799233</speed>
  <fix>3d</fix>
</trkpt>
<trkpt lat="40.0714052" lon="-105.229789">
  <ele>1583.0</ele>
  <time>2026-08-28T17:55:55Z</time>
  <course>181.08</course>
  <speed>1.52</speed>
  <fix>3d</fix>
</trkpt>
<trkpt lat="40.0714012" lon="-105.2297891">
  <ele>1583.05</ele>
  <time>2026-08-28T17:55:55Z</time>
  <course>181.95</course>
  <speed>1.2503599481749246</speed>
  <fix>3d</fix>
</trkpt>
<trkpt lat="40.0714026" lon="-105.229789">
  <ele>1583.0</ele>
  <time>2026-08-28T17:55:55Z</time>
  <course>181.12</course>
  <speed>1.38</speed>
  <fix>3d</fix>
</trkpt>
<trkpt lat="40.0714001" lon="-105.2297891">
  <ele>1583.04</ele>
  <time>2026-08-28T17:55:55Z</time>
  <course>181.97</course>
  <speed>1.1903780911962385</speed>
  <fix>3d</fix>
</trkpt>
<trkpt lat="40.0714026" lon="-105.229789">
  <ele>1583.0</ele>
  <time>2026-08-28T17:55:55Z</time>
  <course>181.12</course>
  <speed>1.38</speed>
  <fix>3d</fix>
</trkpt>
<trkpt lat="40.071399" lon="-105.2297892">
  <ele>1583.04</ele>
  <time>2026-08-28T17:55:55Z</time>
  <course>181.99</course>
  <speed>1.1303981599418853</speed>
  <fix>3d</fix>
</trkpt>
<trkpt lat="40.0714002" lon="-105.2297891">
  <ele>1583.0</ele>
  <time>2026-08-28T17:55:55Z</time>
  <course>181.16</course>
  <speed>1.25</speed>
  <fix>3d</fix>
</trkpt>
<trkpt lat="40.071398" lon="-105.2297892">
  <ele>1583.04</ele>
  <time>2026-08-28T17:55:55Z</time>
  <course>182.01</course>
  <speed>1.0704204781299729</speed>
  <fix>3d</fix>
</trkpt>
<trkpt lat="40.0714002" lon="-105.2297891">
  <ele>1583.0</ele>
  <time>2026-08-28T17:55:55Z</time>
  <course>181.16</course>
  <speed>1.25</speed>
  <fix>3d</fix>
</trkpt>
<trkpt lat="40.071397" lon="-105.2297892">
  <ele>1583.04</ele>
  <time>2026-08-28T17:55:55Z</time>
  <course>182.02</course>
  <speed>1.0104454463255303</speed>
  <fix>3d</fix>
</trkpt>
<trkpt lat="40.0713981" lon="-105.2297892">
  <ele>1583.0</ele>
  <time>2026-08-28T17:55:55Z</time>
  <course>181.19</course>
  <speed>1.13</speed>
  <fix>3d</fix>
</trkpt>
<trkpt lat="40.0713961" lon="-105.2297892">
  <ele>1583.04</ele>
  <time>2026-08-28T17:55:55Z</time>
  <course>182.04</course>
  <speed>0.9604686356149272</speed>
  <fix>3d</fix>
</trkpt>
<trkpt lat="40.0713981" lon="-105.2297892">
  <ele>1583.0</ele>
  <time>2026-08-28T17:55:55Z</time>
  <course>181.19</course>
  <speed>1.13</speed>
  <fix>3d</fix>
</trkpt>
<trkpt lat="40.0713952" lon="-105.2297893">
  <ele>1583.04</ele>
  <time>2026-08-28T17:55:55Z</time>
  <course>182.05</course>
  <speed>0.910494371207203</speed>
  <fix>3d</fix>
</trkpt>
<trkpt lat="40.0713981" lon="-105.2297892">
  <ele>1583.0</ele>
  <time>2026-08-28T17:55:55Z</time>
  <course>181.19</course>
  <speed>1.13</speed>
  <fix>3d</fix>
</trkpt>
<trkpt lat="40.0713944" lon="-105.2297893">
  <ele>1583.04</ele>
  <time>2026-08-28T17:55:55Z</time>
  <course>182.06</course>
  <speed>0.8705170877128146</speed>
  <fix>3d</fix>
</trkpt>
<trkpt lat="40.0713961" lon="-105.2297892">
  <ele>1583.0</ele>
  <time>2026-08-28T17:55:55Z</time>
  <course>181.22</course>
  <speed>1.02</speed>
  <fix>3d</fix>
</trkpt>
<trkpt lat="40.0713936" lon="-105.2297893">
  <ele>1583.04</ele>
  <time>2026-08-28T17:55:55Z</time>
  <course>182.08</course>
  <speed>0.8205485969764374</speed>
  <fix>3d</fix>
</trkpt>
<trkpt lat="40.0713961" lon="-105.2297892">
  <ele>1583.0</ele>
  <time>2026-08-28T17:55:55Z</time>
  <course>181.22</course>
  <speed>1.02</speed>
  <fix>3d</fix>
</trkpt>
<trkpt lat="40.0713929" lon="-105.2297894">
  <ele>1583.03</ele>
  <time>2026-08-28T17:55:55Z</time>
  <course>182.09</course>
  <speed>0.7805767098754611</speed>
  <fix>3d</fix>
</trkpt>
<trkpt lat="40.0713944" lon="-105.2297892">
  <ele>1583.0</ele>
  <time>2026-08-28T17:55:55Z</time>
  <course>181.24</course>
  <speed>0.92</speed>
  <fix>3d</fix>
</trkpt>
<trkpt lat="40.0713922" lon="-105.2297894">
  <ele>1583.03</ele>
  <time>2026-08-28T17:55:55Z</time>
  <course>182.1</course>
  <speed>0.740607858451421</speed>
  <fix>3d</fix>
</trkpt>
<trkpt lat="40.0713944" lon="-105.2297892">
  <ele>1583.0</ele>
  <time>2026-08-28T17:55:55Z</time>
  <course>181.24</course>
  <speed>0.92</speed>
  <fix>3d</fix>
</trkpt>
<trkpt lat="40.0713915" lon="-105.2297894">
  <ele>1583.02</ele>
  <time>2026-08-28T17:55:55Z</time>
  <course>182.11</course>
  <speed>0.7006425622241343</speed>
  <fix>3d</fix>
</trkpt>
<trkpt lat="40.0713928" lon="-105.2297893">
  <ele>1583.0</ele>
  <time>2026-08-28T17:55:55Z</time>
  <course>181.27</course>
  <speed>0.83</speed>
  <fix>3d</fix>
</trkpt>
<trkpt lat="40.0713908" lon="-105.2297894">
  <ele>1583.02</ele>
  <time>2026-08-28T17:55:55Z</time>
  <course>182.12</course>
  <speed>0.6706713054842887</speed>
  <fix>3d</fix>
</trkpt>
<trkpt lat="40.0713928" lon="-105.2297893">
  <ele>1583.0</ele>
  <time>2026-08-28T17:55:55Z</time>
  <course>181.27</course>
  <speed>0.83</speed>
  <fix>3d</fix>
</trkpt>
<trkpt lat="40.0713885" lon="-105.2297895">
  <ele>1583.0</ele>
  <time>2026-08-28T17:55:55Z</time>
  <course>182.16</course>
  <speed>0.5408326913195984</speed>
  <fix>3d</fix>
</trkpt>
<trkpt lat="40.0713889" lon="-105.2297894">
  <ele>1583.0</ele>
  <time>2026-08-28T17:55:55Z</time>
  <course>181.33</course>
  <speed>0.62</speed>
  <fix>3d</fix>
</trkpt>
<trkpt lat="40.0713871" lon="-105.2297896">
  <ele>1582.99</ele>
  <time>2026-08-28T17:55:55Z</time>
  <course>182.18</course>
  <speed>0.4609772228646444</speed>
  <fix>3d</fix>
</trkpt>
<trkpt lat="40.0713879" lon="-105.2297895">
  <ele>1583.0</ele>
  <time>2026-08-28T17:55:55Z</time>
  <course>181.34</course>
  <speed>0.56</speed>
  <fix>3d</fix>
</trkpt>
<trkpt lat="40.0713866" lon="-105.2297896">
  <ele>1582.99</ele>
  <time>2026-08-28T17:55:55Z</time>
  <course>182.19</course>
  <speed>0.4410215414239989</speed>
  <fix>3d</fix>
</trkpt>
<trkpt lat="40.0713869" lon="-105.2297895">
  <ele>1583.0</ele>
  <time>2026-08-28T17:55:55Z</time>
  <course>181.36</course>
  <speed>0.5</speed>
  <fix>3d</fix>
</trkpt>
<trkpt lat="40.0713862" lon="-105.2297896">
  <ele>1582.98</ele>
  <time>2026-08-28T17:55:55Z</time>
  <course>182.19</course>
  <speed>0.42107006542854597</speed>
  <fix>3d</fix>
</trkpt>
<trkpt lat="40.0713869" lon="-105.2297895">
  <ele>1583.0</ele>
  <time>2026-08-28T17:55:55Z</time>
  <course>181.36</course>
  <speed>0.5</speed>
  <fix>3d</fix>
</trkpt>
<trkpt lat="40.0713858" lon="-105.2297897">
  <ele>1582.98</ele>
  <time>2026-08-28T17:55:55Z</time>
  <course>182.2</course>
  <speed>0.3911521443121589</speed>
  <fix>3d</fix>
</trkpt>
<trkpt lat="40.0713861" lon="-105.2297895">
  <ele>1583.0</ele>
  <time>2026-08-28T17:55:55Z</time>
  <course>181.37</course>
  <speed>0.46</speed>
  <fix>3d</fix>
</trkpt>
<trkpt lat="40.0713854" lon="-105.2297897">
  <ele>1582.97</ele>
  <time>2026-08-28T17:55:55Z</time>
  <course>182.21</course>
  <speed>0.3712142238654117</speed>
  <fix>3d</fix>
</trkpt>
<trkpt lat="40.0713861" lon="-105.2297895">
  <ele>1583.0</ele>
  <time>2026-08-28T17:55:55Z</time>
  <course>181.37</course>
  <speed>0.46</speed>
  <fix>3d</fix>
</trkpt>
<trkpt lat="40.0713847" lon="-105.2297897">
  <ele>1582.97</ele>
  <time>2026-08-28T17:55:55Z</time>
  <course>182.21</course>
  <speed>0.3313608305156178</speed>
  <fix>3d</fix>
</trkpt>
<trkpt lat="40.0713853" lon="-105.2297895">
  <ele>1583.0</ele>
  <time>2026-08-28T17:55:55Z</time>
  <course>181.38</course>
  <speed>0.41</speed>
  <fix>3d</fix>
</trkpt>
<trkpt lat="40.0713843" lon="-105.2297897">
  <ele>1582.96</ele>
  <time>2026-08-28T17:55:55Z</time>
  <course>182.22</course>
  <speed>0.32140317359976395</speed>
  <fix>3d</fix>
</trkpt>
<trkpt lat="40.0713846" lon="-105.2297895">
  <ele>1583.0</ele>
  <time>2026-08-28T17:55:55Z</time>
  <course>181.39</course>
  <speed>0.37</speed>
  <fix>3d</fix>
</trkpt>
<trkpt lat="40.071384" lon="-105.2297897">
  <ele>1582.96</ele>
  <time>2026-08-28T17:55:55Z</time>
  <course>182.22</course>
  <speed>0.3014962686336267</speed>
  <fix>3d</fix>
</trkpt>
<trkpt lat="40.0713846" lon="-105.2297895">
  <ele>1583.0</ele>
  <time>2026-08-28T17:55:55Z</time>
  <course>181.39</course>
  <speed>0.37</speed>
  <fix>3d</fix>
</trkpt>
<trkpt lat="40.0713838" lon="-105.2297898">
  <ele>1582.96</ele>
  <time>2026-08-28T17:55:55Z</time>
  <course>182.22</course>
  <speed>0.2816025568065745</speed>
  <fix>3d</fix>
</trkpt>
<trkpt lat="40.0713839" lon="-105.2297895">
  <ele>1583.0</ele>
  <time>2026-08-28T17:55:55Z</time>
  <course>181.4</course>
  <speed>0.34</speed>
  <fix>3d</fix>
</trkpt>
<trkpt lat="40.0713835" lon="-105.2297898">
  <ele>1582.95</ele>
  <time>2026-08-28T17:55:55Z</time>
  <course>182.23</course>
  <speed>0.27166155414412246</speed>
  <fix>3d</fix>
</trkpt>
<trkpt lat="40.0713839" lon="-105.2297895">
  <ele>1583.0</ele>
  <time>2026-08-28T17:55:55Z</time>
  <course>181.4</course>
  <speed>0.34</speed>
  <fix>3d</fix>
</trkpt>
<trkpt lat="40.0713832" lon="-105.2297898">
  <ele>1582.95</ele>
  <time>2026-08-28T17:55:55Z</time>
  <course>182.23</course>
  <speed>0.25179356624028343</speed>
  <fix>3d</fix>
</trkpt>
<trkpt lat="40.0713834" lon="-105.2297895">
  <ele>1583.0</ele>
  <time>2026-08-28T17:55:55Z</time>
  <course>181.41</course>
  <speed>0.3</speed>
  <fix>3d</fix>
</trkpt>
<trkpt lat="40.071383" lon="-105.2297898">
  <ele>1582.95</ele>
  <time>2026-08-28T17:55:55Z</time>
  <course>182.23</course>
  <speed>0.24186773244895649</speed>
  <fix>3d</fix>
</trkpt>
<trkpt lat="40.0713834" lon="-105.2297895">
  <ele>1583.0</ele>
  <time>2026-08-28T17:55:55Z</time>
  <course>181.41</course>
  <speed>0.3</speed>
  <fix>3d</fix>
</trkpt>
<trkpt lat="40.0713827" lon="-105.2297898">
  <ele>1582.95</ele>
  <time>2026-08-28T17:55:55Z</time>
  <course>182.22</course>
  <speed>0.23194827009486402</speed>
  <fix>3d</fix>
</trkpt>
<trkpt lat="40.0713828" lon="-105.2297895">
  <ele>1583.0</ele>
  <time>2026-08-28T17:55:55Z</time>
  <course>181.42</course>
  <speed>0.27</speed>
  <fix>3d</fix>
</trkpt>
<trkpt lat="40.0713825" lon="-105.2297898">
  <ele>1582.95</ele>
  <time>2026-08-28T17:55:55Z</time>
  <course>182.22</course>
  <speed>0.2220360331117452</speed>
  <fix>3d</fix>
</trkpt>
<trkpt lat="40.0713828" lon="-105.2297895">
  <ele>1583.0</ele>
  <time>2026-08-28T17:55:55Z</time>
  <course>181.42</course>
  <speed>0.27</speed>
  <fix>3d</fix>
</trkpt>
<trkpt lat="40.0713823" lon="-105.2297898">
  <ele>1582.95</ele>
  <time>2026-08-28T17:55:55Z</time>
  <course>182.22</course>
  <speed>0.21213203435596426</speed>
  <fix>3d</fix>
</trkpt>
<trkpt lat="40.0713823" lon="-105.2297896">
  <ele>1583.0</ele>
  <time>2026-08-28T17:55:55Z</time>
  <course>181.42</course>
  <speed>0.25</speed>
  <fix>3d</fix>
</trkpt>
<trkpt lat="40.0713821" lon="-105.2297898">
  <ele>1582.95</ele>
  <time>2026-08-28T17:55:55Z</time>
  <course>182.22</course>
  <speed>0.20223748416156684</speed>
  <fix>3d</fix>
</trkpt>
<trkpt lat="40.0713823" lon="-105.2297896">
  <ele>1583.0</ele>
  <time>2026-08-28T17:55:55Z</time>
  <course>181.42</course>
  <speed>0.25</speed>
  <fix>3d</fix>
</trkpt>
<trkpt lat="40.0713819" lon="-105.2297898">
  <ele>1582.94</ele>
  <time>2026-08-28T17:55:55Z</time>
  <course>182.21</course>
  <speed>0.19235384061671343</speed>
  <fix>3d</fix>
</trkpt>
<trkpt lat="40.0713819" lon="-105.2297897">
  <ele>1583.0</ele>
  <time>2026-08-28T17:55:55Z</time>
  <course>181.42</course>
  <speed>0.22</speed>
  <fix>3d</fix>
</trkpt>
<trkpt lat="40.0713817" lon="-105.2297898">
  <ele>1582.94</ele>
  <time>2026-08-28T17:55:55Z</time>
  <course>182.21</course>
  <speed>0.1824828759089466</speed>
  <fix>3d</fix>
</trkpt>
<trkpt lat="40.0713819" lon="-105.2297897">
  <ele>1583.0</ele>
  <time>2026-08-28T17:55:55Z</time>
  <course>181.42</course>
  <speed>0.22</speed>
  <fix>3d</fix>
</trkpt>
<trkpt lat="40.0713815" lon="-105.2297898">
  <ele>1582.94</ele>
  <time>2026-08-28T17:55:55Z</time>
  <course>182.21</course>
  <speed>0.17262676501632068</speed>
  <fix>3d</fix>
</trkpt>
<trkpt lat="40.0713815" lon="-105.2297897">
  <ele>1583.0</ele>
  <time>2026-08-28T17:55:55Z</time>
  <course>181.42</course>
  <speed>0.2</speed>
  <fix>3d</fix>
</trkpt>
<trkpt lat="40.0713813" lon="-105.2297898">
  <ele>1582.94</ele>
  <time>2026-08-28T17:55:55Z</time>
  <course>182.21</course>
  <speed>0.16278820596099705</speed>
  <fix>3d</fix>
</trkpt>
<trkpt lat="40.0713815" lon="-105.2297897">
  <ele>1583.0</ele>
  <time>2026-08-28T17:55:55Z</time>
  <course>181.42</course>
  <speed>0.2</speed>
  <fix>3d</fix>
</trkpt>
<trkpt lat="40.0713812" lon="-105.2297899">
  <ele>1582.93</ele>
  <time>2026-08-28T17:55:55Z</time>
  <course>182.2</course>
  <speed>0.15297058540778355</speed>
  <fix>3d</fix>
</trkpt>
<trkpt lat="40.0713812" lon="-105.2297897">
  <ele>1583.0</ele>
  <time>2026-08-28T17:55:55Z</time>
  <course>181.42</course>
  <speed>0.18</speed>
  <fix>3d</fix>
</trkpt>
<trkpt lat="40.071381" lon="-105.2297899">
  <ele>1582.93</ele>
  <time>2026-08-28T17:55:55Z</time>
  <course>182.2</course>
  <speed>0.14317821063276354</speed>
  <fix>3d</fix>
</trkpt>
<trkpt lat="40.0713812" lon="-105.2297897">
  <ele>1583.0</ele>
  <time>2026-08-28T17:55:55Z</time>
  <course>181.42</course>
  <speed>0.18</speed>
  <fix>3d</fix>
</trkpt>
<trkpt lat="40.0713809" lon="-105.2297899">
  <ele>1582.92</ele>
  <time>2026-08-28T17:55:55Z</time>
  <course>182.2</course>
  <speed>0.14317821063276354</speed>
  <fix>3d</fix>
</trkpt>
<trkpt lat="40.0713808" lon="-105.2297897">
  <ele>1583.0</ele>
  <time>2026-08-28T17:55:55Z</time>
  <course>181.42</course>
  <speed>0.16</speed>
  <fix>3d</fix>
</trkpt>
<trkpt lat="40.0713807" lon="-105.2297899">
  <ele>1582.92</ele>
  <time>2026-08-28T17:55:55Z</time>
  <course>182.2</course>
  <speed>0.13341664064126335</speed>
  <fix>3d</fix>
</trkpt>
<trkpt lat="40.0713808" lon="-105.2297897">
  <ele>1583.0</ele>
  <time>2026-08-28T17:55:55Z</time>
  <course>181.42</course>
  <speed>0.16</speed>
  <fix>3d</fix>
</trkpt>
<trkpt lat="40.0713806" lon="-105.2297899">
  <ele>1582.91</ele>
  <time>2026-08-28T17:55:55Z</time>
  <course>182.19</course>
  <speed>0.12369316876852982</speed>
  <fix>3d</fix>
</trkpt>
<trkpt lat="40.0713806" lon="-105.2297897">
  <ele>1583.0</ele>
  <time>2026-08-28T17:55:55Z</time>
  <course>181.42</course>
  <speed>0.15</speed>
  <fix>3d</fix>
</trkpt>
<trkpt lat="40.0713804" lon="-105.2297899">
  <ele>1582.91</ele>
  <time>2026-08-28T17:55:55Z</time>
  <course>182.19</course>
  <speed>0.11401754250991379</speed>
  <fix>3d</fix>
</trkpt>
<trkpt lat="40.0713806" lon="-105.2297897">
  <ele>1583.0</ele>
  <time>2026-08-28T17:55:55Z</time>
  <course>181.42</course>
  <speed>0.15</speed>
  <fix>3d</fix>
</trkpt>
<trkpt lat="39.655741" lon="-104.1383097">
  <ele>1566.58</ele>
  <time>2026-08-28T17:55:56Z</time>
  <course>0.0</course>
  <speed>0.0</speed>
  <fix>3d</fix>
</trkpt>
<trkpt lat="40.0713749" lon="-105.229789">
  <ele>1583.0</ele>
  <time>2026-08-28T17:55:56Z</time>
  <course>0.0</course>
  <speed>0.0</speed>
  <fix>3d</fix>
</trkpt>
<trkpt lat="40.0713749" lon="-105.229789">
  <ele>1583.0</ele>
  <time>2026-08-28T17:55:56Z</time>
  <course>238.36</course>
  <speed>0.0</speed>
  <fix>3d</fix>
</trkpt>
<trkpt lat="40.0713749" lon="-105.229789">
  <ele>1583.0</ele>
  <time>2026-08-28T17:55:56Z</time>
  <course>0.0</course>
  <speed>0.0</speed>
  <fix>3d</fix>
</trkpt>
<trkpt lat="40.0713749" lon="-105.229789">
  <ele>1583.0</ele>
  <time>2026-08-28T17:55:56Z</time>
  <course>238.44</course>
  <speed>0.0</speed>
  <fix>3d</fix>
</trkpt>
<trkpt lat="40.0713749" lon="-105.229789">
  <ele>1583.0</ele>
  <time>2026-08-28T17:55:56Z</time>
  <course>0.0</course>
  <speed>0.0</speed>
  <fix>3d</fix>
</trkpt>
<trkpt lat="40.0713749" lon="-105.229789">
  <ele>1583.0</ele>
  <time>2026-08-28T17:55:56Z</time>
  <course>238.64</course>
  <speed>0.0</speed>
  <fix>3d</fix>
</trkpt>
<trkpt lat="40.0713749" lon="-105.229789">
  <ele>1583.0</ele>
  <time>2026-08-28T17:55:56Z</time>
  <course>0.0</course>
  <speed>0.0</speed>
  <fix>3d</fix>
</trkpt>
<trkpt lat="40.0713749" lon="-105.229789">
  <ele>1583.0</ele>
  <time>2026-08-28T17:55:56Z</time>
  <course>238.93</course>
  <speed>0.0</speed>
  <fix>3d</fix>
</trkpt>
<trkpt lat="40.0713749" lon="-105.229789">
  <ele>1583.0</ele>
  <time>2026-08-28T17:55:56Z</time>
  <course>0.0</course>
  <speed>0.0</speed>
  <fix>3d</fix>
</trkpt>
<trkpt lat="40.0713749" lon="-105.229789">
  <ele>1583.0</ele>
  <time>2026-08-28T17:55:56Z</time>
  <course>239.26</course>
  <speed>0.0</speed>
  <fix>3d</fix>
</trkpt>
<trkpt lat="40.0713749" lon="-105.229789">
  <ele>1583.0</ele>
  <time>2026-08-28T17:55:56Z</time>
  <course>0.0</course>
  <speed>0.0</speed>
  <fix>3d</fix>
</trkpt>
<trkpt lat="40.0713749" lon="-105.229789">
  <ele>1583.0</ele>
  <time>2026-08-28T17:55:56Z</time>
  <course>239.61</course>
  <speed>0.0</speed>
  <fix>3d</fix>
</trkpt>
<trkpt lat="40.0713749" lon="-105.229789">
  <ele>1583.0</ele>
  <time>2026-08-28T17:55:56Z</time>
  <course>0.0</course>
  <speed>0.0</speed>
  <fix>3d</fix>
</trkpt>
<trkpt lat="40.0713749" lon="-105.229789">
  <ele>1583.0</ele>
  <time>2026-08-28T17:55:56Z</time>
  <course>239.96</course>
  <speed>0.0</speed>
  <fix>3d</fix>
</trkpt>
<trkpt lat="40.0713749" lon="-105.229789">
  <ele>1583.0</ele>
  <time>2026-08-28T17:55:56Z</time>
  <course>0.0</course>
  <speed>0.0</speed>
  <fix>3d</fix>
</trkpt>
<trkpt lat="40.0713749" lon="-105.229789">
  <ele>1583.0</ele>
  <time>2026-08-28T17:55:56Z</time>
  <course>240.29</course>
  <speed>0.0</speed>
  <fix>3d</fix>
</trkpt>
<trkpt lat="40.0713749" lon="-105.229789">
  <ele>1583.0</ele>
  <time>2026-08-28T17:55:56Z</time>
  <course>0.0</course>
  <speed>0.0</speed>
  <fix>3d</fix>
</trkpt>
<trkpt lat="40.0713749" lon="-105.229789">
  <ele>1583.0</ele>
  <time>2026-08-28T17:55:56Z</time>
  <course>240.61</course>
  <speed>0.0</speed>
  <fix>3d</fix>
</trkpt>
<trkpt lat="40.0713749" lon="-105.229789">
  <ele>1583.0</ele>
  <time>2026-08-28T17:55:56Z</time>
  <course>0.0</course>
  <speed>0.0</speed>
  <fix>3d</fix>
</trkpt>
<trkpt lat="40.0713749" lon="-105.229789">
  <ele>1583.0</ele>
  <time>2026-08-28T17:55:56Z</time>
  <course>240.92</course>
  <speed>0.0</speed>
  <fix>3d</fix>
</trkpt>
<trkpt lat="40.0713749" lon="-105.229789">
  <ele>1583.0</ele>
  <time>2026-08-28T17:55:56Z</time>
  <course>0.0</course>
  <speed>0.0</speed>
  <fix>3d</fix>
</trkpt>
<trkpt lat="40.0713749" lon="-105.229789">
  <ele>1583.0</ele>
  <time>2026-08-28T17:55:56Z</time>
  <course>241.21</course>
  <speed>0.0</speed>
  <fix>3d</fix>
</trkpt>
<trkpt lat="40.0713749" lon="-105.229789">
  <ele>1583.0</ele>
  <time>2026-08-28T17:55:56Z</time>
  <course>0.0</course>
  <speed>0.0</speed>
  <fix>3d</fix>
</trkpt>
<trkpt lat="40.0713749" lon="-105.229789">
  <ele>1583.0</ele>
  <time>2026-08-28T17:55:56Z</time>
  <course>241.49</course>
  <speed>0.0</speed>
  <fix>3d</fix>
</trkpt>
<trkpt lat="40.0713749" lon="-105.229789">
  <ele>1583.0</ele>
  <time>2026-08-28T17:55:56Z</time>
  <course>0.0</course>
  <speed>0.0</speed>
  <fix>3d</fix>
</trkpt>
<trkpt lat="40.0713749" lon="-105.229789">
  <ele>1583.0</ele>
  <time>2026-08-28T17:55:56Z</time>
  <course>241.77</course>
  <speed>0.0</speed>
  <fix>3d</fix>
</trkpt>
<trkpt lat="40.0713749" lon="-105.229789">
  <ele>1583.0</ele>
  <time>2026-08-28T17:55:56Z</time>
  <course>0.0</course>
  <speed>0.0</speed>
  <fix>3d</fix>
</trkpt>
<trkpt lat="40.0713749" lon="-105.229789">
  <ele>1583.0</ele>
  <time>2026-08-28T17:55:56Z</time>
  <course>242.03</course>
  <speed>0.0</speed>
  <fix>3d</fix>
</trkpt>
<trkpt lat="40.0713749" lon="-105.229789">
  <ele>1583.0</ele>
  <time>2026-08-28T17:55:56Z</time>
  <course>0.0</course>
  <speed>0.0</speed>
  <fix>3d</fix>
</trkpt>
<trkpt lat="40.0713749" lon="-105.229789">
  <ele>1583.0</ele>
  <time>2026-08-28T17:55:56Z</time>
  <course>242.29</course>
  <speed>0.0</speed>
  <fix>3d</fix>
</trkpt>
<trkpt lat="40.0713749" lon="-105.229789">
  <ele>1583.0</ele>
  <time>2026-08-28T17:55:56Z</time>
  <course>0.0</course>
  <speed>0.0</speed>
  <fix>3d</fix>
</trkpt>
<trkpt lat="40.0713749" lon="-105.229789">
  <ele>1583.0</ele>
  <time>2026-08-28T17:55:56Z</time>
  <course>242.54</course>
  <speed>0.0</speed>
  <fix>3d</fix>
</trkpt>
<trkpt lat="40.0713749" lon="-105.229789">
  <ele>1583.0</ele>
  <time>2026-08-28T17:55:56Z</time>
  <course>0.0</course>
  <speed>0.0</speed>
  <fix>3d</fix>
</trkpt>
<trkpt lat="40.0713749" lon="-105.229789">
  <ele>1583.0</ele>
  <time>2026-08-28T17:55:56Z</time>
  <course>242.79</course>
  <speed>0.0</speed>
  <fix>3d</fix>
</trkpt>
<trkpt lat="40.0713749" lon="-105.229789">
  <ele>1583.0</ele>
  <time>2026-08-28T17:55:56Z</time>
  <course>0.0</course>
  <speed>0.0</speed>
  <fix>3d</fix>
</trkpt>
<trkpt lat="40.0713749" lon="-105.229789">
  <ele>1583.0</ele>
  <time>2026-08-28T17:55:56Z</time>
  <course>243.02</course>
  <speed>0.0</speed>
  <fix>3d</fix>
</trkpt>
<trkpt lat="40.0713749" lon="-105.229789">
  <ele>1583.0</ele>
  <time>2026-08-28T17:55:56Z</time>
  <course>0.0</course>
  <speed>0.0</speed>
  <fix>3d</fix>
</trkpt>
<trkpt lat="40.0713749" lon="-105.229789">
  <ele>1583.0</ele>
  <time>2026-08-28T17:55:56Z</time>
  <course>243.25</course>
  <speed>0.0</speed>
  <fix>3d</fix>
</trkpt>
<trkpt lat="40.0713749" lon="-105.229789">
  <ele>1583.0</ele>
  <time>2026-08-28T17:55:56Z</time>
  <course>0.0</course>
  <speed>0.0</speed>
  <fix>3d</fix>
</trkpt>
<trkpt lat="40.0713749" lon="-105.229789">
  <ele>1583.0</ele>
  <time>2026-08-28T17:55:56Z</time>
  <course>243.47</course>
  <speed>0.0</speed>
  <fix>3d</fix>
</trkpt>
<trkpt lat="40.0713749" lon="-105.229789">
  <ele>1583.0</ele>
  <time>2026-08-28T17:55:56Z</time>
  <course>0.0</course>
  <speed>0.0</speed>
  <fix>3d</fix>
</trkpt>
<trkpt lat="40.0713749" lon="-105.229789">
  <ele>1583.0</ele>
  <time>2026-08-28T17:55:56Z</time>
  <course>243.68</course>
  <speed>0.0</speed>
  <fix>3d</fix>
</trkpt>
<trkpt lat="40.0713749" lon="-105.229789">
  <ele>1583.0</ele>
  <time>2026-08-28T17:55:56Z</time>
  <course>0.0</course>
  <speed>0.0</speed>
  <fix>3d</fix>
</trkpt>
<trkpt lat="40.0713749" lon="-105.229789">
  <ele>1583.0</ele>
  <time>2026-08-28T17:55:56Z</time>
  <course>243.89</course>
  <speed>0.0</speed>
  <fix>3d</fix>
</trkpt>
<trkpt lat="40.0713749" lon="-105.229789">
  <ele>1583.0</ele>
  <time>2026-08-28T17:55:56Z</time>
  <course>0.0</course>
  <speed>0.0</speed>
  <fix>3d</fix>
</trkpt>
<trkpt lat="40.0713749" lon="-105.229789">
  <ele>1583.0</ele>
  <time>2026-08-28T17:55:56Z</time>
  <course>244.09</course>
  <speed>0.0</speed>
  <fix>3d</fix>
</trkpt>
<trkpt lat="40.0713749" lon="-105.229789">
  <ele>1583.0</ele>
  <time>2026-08-28T17:55:56Z</time>
  <course>0.0</course>
  <speed>0.0</speed>
  <fix>3d</fix>
</trkpt>
<trkpt lat="40.0713749" lon="-105.229789">
  <ele>1583.0</ele>
  <time>2026-08-28T17:55:56Z</time>
  <course>244.28</course>
  <speed>0.0</speed>
  <fix>3d</fix>
</trkpt>
<trkpt lat="40.0713749" lon="-105.229789">
  <ele>1583.0</ele>
  <time>2026-08-28T17:55:56Z</time>
  <course>0.0</course>
  <speed>0.0</speed>
  <fix>3d</fix>
</trkpt>
<trkpt lat="40.0713749" lon="-105.229789">
  <ele>1583.0</ele>
  <time>2026-08-28T17:55:56Z</time>
  <course>244.46</course>
  <speed>0.0</speed>
  <fix>3d</fix>
</trkpt>
<trkpt lat="40.0713749" lon="-105.229789">
  <ele>1583.0</ele>
  <time>2026-08-28T17:55:56Z</time>
  <course>0.0</course>
  <speed>0.0</speed>
  <fix>3d</fix>
</trkpt>
<trkpt lat="39.655741" lon="-104.1383097">
  <ele>1566.58</ele>
  <time>2026-08-28T17:55:56Z</time>
  <course>0.0</course>
  <speed>0.0</speed>
  <fix>3d</fix>
</trkpt>
<trkpt lat="40.0713749" lon="-105.229789">
  <ele>1583.0</ele>
  <time>2026-08-28T17:55:56Z</time>
  <course>238.36</course>
  <speed>0.0</speed>
  <fix>3d</fix>
</trkpt>
<trkpt lat="40.0713749" lon="-105.229789">
  <ele>1583.0</ele>
  <time>2026-08-28T17:55:56Z</time>
  <course>0.0</course>
  <speed>0.0</speed>
  <fix>3d</fix>
</trkpt>
<trkpt lat="40.0713749" lon="-105.229789">
  <ele>1583.0</ele>
  <time>2026-08-28T17:55:56Z</time>
  <course>238.36</course>
  <speed>0.0</speed>
  <fix>3d</fix>
</trkpt>
<trkpt lat="40.0713749" lon="-105.229789">
  <ele>1583.0</ele>
  <time>2026-08-28T17:55:56Z</time>
  <course>0.0</course>
  <speed>0.0</speed>
  <fix>3d</fix>
</trkpt>
<trkpt lat="40.0713749" lon="-105.229789">
  <ele>1583.0</ele>
  <time>2026-08-28T17:55:56Z</time>
  <course>238.47</course>
  <speed>0.0</speed>
  <fix>3d</fix>
</trkpt>
<trkpt lat="40.0713749" lon="-105.229789">
  <ele>1583.0</ele>
  <time>2026-08-28T17:55:56Z</time>
  <course>0.0</course>
  <speed>0.0</speed>
  <fix>3d</fix>
</trkpt>
<trkpt lat="40.0713749" lon="-105.229789">
  <ele>1583.0</ele>
  <time>2026-08-28T17:55:56Z</time>
  <course>238.69</course>
  <speed>0.0</speed>
  <fix>3d</fix>
</trkpt>
<trkpt lat="40.0713749" lon="-105.229789">
  <ele>1583.0</ele>
  <time>2026-08-28T17:55:56Z</time>
  <course>0.0</course>
  <speed>0.0</speed>
  <fix>3d</fix>
</trkpt>
<trkpt lat="40.0713749" lon="-105.229789">
  <ele>1583.0</ele>
  <time>2026-08-28T17:55:56Z</time>
  <course>238.98</course>
  <speed>0.0</speed>
  <fix>3d</fix>
</trkpt>
<trkpt lat="40.0713749" lon="-105.229789">
  <ele>1583.0</ele>
  <time>2026-08-28T17:55:56Z</time>
  <course>0.0</course>
  <speed>0.0</speed>
  <fix>3d</fix>
</trkpt>
<trkpt lat="40.0713749" lon="-105.229789">
  <ele>1583.0</ele>
  <time>2026-08-28T17:55:56Z</time>
  <course>239.32</course>
  <speed>0.0</speed>
  <fix>3d</fix>
</trkpt>
<trkpt lat="40.0713749" lon="-105.229789">
  <ele>1583.0</ele>
  <time>2026-08-28T17:55:56Z</time>
  <course>0.0</course>
  <speed>0.0</speed>
  <fix>3d</fix>
</trkpt>
<trkpt lat="40.0713749" lon="-105.229789">
  <ele>1583.0</ele>
  <time>2026-08-28T17:55:56Z</time>
  <course>240.61</course>
  <speed>0.0</speed>
  <fix>3d</fix>
</trkpt>
<trkpt lat="40.0713749" lon="-105.229789">
  <ele>1583.0</ele>
  <time>2026-08-28T17:55:56Z</time>
  <course>0.0</course>
  <speed>0.0</speed>
  <fix>3d</fix>
</trkpt>
<trkpt lat="40.0713749" lon="-105.229789">
  <ele>1583.0</ele>
  <time>2026-08-28T17:55:56Z</time>
  <course>241.77</course>
  <speed>0.0</speed>
  <fix>3d</fix>
</trkpt>
<trkpt lat="40.0713749" lon="-105.229789">
  <ele>1583.0</ele>
  <time>2026-08-28T17:55:56Z</time>
  <course>0.0</course>
  <speed>0.0</speed>
  <fix>3d</fix>
</trkpt>
<trkpt lat="40.0713749" lon="-105.229789">
  <ele>1583.0</ele>
  <time>2026-08-28T17:55:56Z</time>
  <course>242.79</course>
  <speed>0.0</speed>
  <fix>3d</fix>
</trkpt>
<trkpt lat="40.0713749" lon="-105.229789">
  <ele>1583.0</ele>
  <time>2026-08-28T17:55:56Z</time>
  <course>0.0</course>
  <speed>0.0</speed>
  <fix>3d</fix>
</trkpt>
<trkpt lat="40.0713749" lon="-105.229789">
  <ele>1583.0</ele>
  <time>2026-08-28T17:55:56Z</time>
  <course>243.72</course>
  <speed>0.0</speed>
  <fix>3d</fix>
</trkpt>
<trkpt lat="40.0713749" lon="-105.229789">
  <ele>1583.0</ele>
  <time>2026-08-28T17:55:56Z</time>
  <course>0.0</course>
  <speed>0.0</speed>
  <fix>3d</fix>
</trkpt>
<trkpt lat="40.0713749" lon="-105.229789">
  <ele>1583.0</ele>
  <time>2026-08-28T17:55:56Z</time>
  <course>244.5</course>
  <speed>0.0</speed>
  <fix>3d</fix>
</trkpt>
<trkpt lat="40.0713749" lon="-105.229789">
  <ele>1583.0</ele>
  <time>2026-08-28T17:55:56Z</time>
  <course>0.0</course>
  <speed>0.0</speed>
  <fix>3d</fix>
</trkpt>
<trkpt lat="40.0713749" lon="-105.229789">
  <ele>1583.0</ele>
  <time>2026-08-28T17:55:56Z</time>
  <course>245.16</course>
  <speed>0.0</speed>
  <fix>3d</fix>
</trkpt>
<trkpt lat="40.0713749" lon="-105.229789">
  <ele>1583.0</ele>
  <time>2026-08-28T17:55:56Z</time>
  <course>0.0</course>
  <speed>0.0</speed>
  <fix>3d</fix>
</trkpt>
<trkpt lat="40.0713749" lon="-105.229789">
  <ele>1583.0</ele>
  <time>2026-08-28T17:55:56Z</time>
  <course>245.71</course>
  <speed>0.0</speed>
  <fix>3d</fix>
</trkpt>
<trkpt lat="40.0713749" lon="-105.229789">
  <ele>1583.0</ele>
  <time>2026-08-28T17:55:56Z</time>
  <course>0.0</course>
  <speed>0.0</speed>
  <fix>3d</fix>
</trkpt>
<trkpt lat="40.0713749" lon="-105.229789">
  <ele>1583.0</ele>
  <time>2026-08-28T17:55:56Z</time>
  <course>246.19</course>
  <speed>0.0</speed>
  <fix>3d</fix>
</trkpt>
<trkpt lat="40.0713749" lon="-105.229789">
  <ele>1583.0</ele>
  <time>2026-08-28T17:55:56Z</time>
  <course>0.0</course>
  <speed>0.0</speed>
  <fix>3d</fix>
</trkpt>
<trkpt lat="40.0713749" lon="-105.229789">
  <ele>1583.0</ele>
  <time>2026-08-28T17:55:56Z</time>
  <course>246.62</course>
  <speed>0.0</speed>
  <fix>3d</fix>
</trkpt>
<trkpt lat="40.0713749" lon="-105.229789">
  <ele>1583.0</ele>
  <time>2026-08-28T17:55:56Z</time>
  <course>0.0</course>
  <speed>0.0</speed>
  <fix>3d</fix>
</trkpt>
<trkpt lat="40.0713749" lon="-105.229789">
  <ele>1583.0</ele>
  <time>2026-08-28T17:55:56Z</time>
  <course>246.96</course>
  <speed>0.0</speed>
  <fix>3d</fix>
</trkpt>
<trkpt lat="40.0713749" lon="-105.229789">
  <ele>1583.0</ele>
  <time>2026-08-28T17:55:56Z</time>
  <course>0.0</course>
  <speed>0.0</speed>
  <fix>3d</fix>
</trkpt>
<trkpt lat="40.0713749" lon="-105.229789">
  <ele>1583.0</ele>
  <time>2026-08-28T17:55:56Z</time>
  <course>247.25</course>
  <speed>0.0</speed>
  <fix>3d</fix>
</trkpt>
<trkpt lat="40.0713749" lon="-105.229789">
  <ele>1583.0</ele>
  <time>2026-08-28T17:55:56Z</time>
  <course>0.0</course>
  <speed>0.0</speed>
  <fix>3d</fix>
</trkpt>
<trkpt lat="40.0713749" lon="-105.229789">
  <ele>1583.0</ele>
  <time>2026-08-28T17:55:56Z</time>
  <course>247.47</course>
  <speed>0.0</speed>
  <fix>3d</fix>
</trkpt>
<trkpt lat="40.0713749" lon="-105.229789">
  <ele>1583.0</ele>
  <time>2026-08-28T17:55:56Z</time>
  <course>0.0</course>
  <speed>0.0</speed>
  <fix>3d</fix>
</trkpt>
<trkpt lat="40.0713749" lon="-105.229789">
  <ele>1583.0</ele>
  <time>2026-08-28T17:55:56Z</time>
  <course>247.67</course>
  <speed>0.0</speed>
  <fix>3d</fix>
</trkpt>
<trkpt lat="40.0713749" lon="-105.229789">
  <ele>1583.0</ele>
  <time>2026-08-28T17:55:56Z</time>
  <course>0.0</course>
  <speed>0.0</speed>
  <fix>3d</fix>
</trkpt>
<trkpt lat="40.0713749" lon="-105.229789">
  <ele>1583.0</ele>
  <time>2026-08-28T17:55:56Z</time>
  <course>247.84</course>
  <speed>0.0</speed>
  <fix>3d</fix>
</trkpt>
<trkpt lat="40.0713749" lon="-105.229789">
  <ele>1583.0</ele>
  <time>2026-08-28T17:55:56Z</time>
  <course>0.0</course>
  <speed>0.0</speed>
  <fix>3d</fix>
</trkpt>
<trkpt lat="40.0713749" lon="-105.229789">
  <ele>1583.0</ele>
  <time>2026-08-28T17:55:56Z</time>
  <course>247.97</course>
  <speed>0.0</speed>
  <fix>3d</fix>
</trkpt>
<trkpt lat="40.0713749" lon="-105.229789">
  <ele>1583.0</ele>
  <time>2026-08-28T17:55:56Z</time>
  <course>0.0</course>
  <speed>0.0</speed>
  <fix>3d</fix>
</trkpt>
<trkpt lat="40.0713749" lon="-105.229789">
  <ele>1583.0</ele>
  <time>2026-08-28T17:55:56Z</time>
  <course>248.08</course>
  <speed>0.0</speed>
  <fix>3d</fix>
</trkpt>
<trkpt lat="40.0713749" lon="-105.229789">
  <ele>1583.0</ele>
  <time>2026-08-28T17:55:56Z</time>
  <course>0.0</course>
  <speed>0.0</speed>
  <fix>3d</fix>
</trkpt>
<trkpt lat="40.0713749" lon="-105.229789">
  <ele>1583.0</ele>
  <time>2026-08-28T17:55:56Z</time>
  <course>248.16</course>
  <speed>0.0</speed>
  <fix>3d</fix>
</trkpt>
<trkpt lat="40.0713749" lon="-105.229789">
  <ele>1583.0</ele>
  <time>2026-08-28T17:55:56Z</time>
  <course>0.0</course>
  <speed>0.0</speed>
  <fix>3d</fix>
</trkpt>
<trkpt lat="40.0713749" lon="-105.229789">
  <ele>1583.0</ele>
  <time>2026-08-28T17:55:56Z</time>
  <course>248.23</course>
  <speed>0.0</speed>
  <fix>3d</fix>
</trkpt>
<trkpt lat="40.0713749" lon="-105.229789">
  <ele>1583.0</ele>
  <time>2026-08-28T17:55:56Z</time>
  <course>0.0</course>
  <speed>0.0</speed>
  <fix>3d</fix>
</trkpt>
<trkpt lat="40.0713749" lon="-105.229789">
  <ele>1583.0</ele>
  <time>2026-08-28T17:55:56Z</time>
  <course>248.29</course>
  <speed>0.0</speed>
  <fix>3d</fix>
</trkpt>
<trkpt lat="40.0713749" lon="-105.229789">
  <ele>1583.0</ele>
  <time>2026-08-28T17:55:56Z</time>
  <course>0.0</course>
  <speed>0.0</speed>
  <fix>3d</fix>
</trkpt>
<trkpt lat="40.0713749" lon="-105.229789">
  <ele>1583.0</ele>
  <time>2026-08-28T17:55:56Z</time>
  <course>248.33</course>
  <speed>0.0</speed>
  <fix>3d</fix>
</trkpt>
<trkpt lat="40.0713749" lon="-105.229789">
  <ele>1583.0</ele>
  <time>2026-08-28T17:55:56Z</time>
  <course>0.0</course>
  <speed>0.0</speed>
  <fix>3d</fix>
</trkpt>
<trkpt lat="40.0713749" lon="-105.229789">
  <ele>1583.0</ele>
  <time>2026-08-28T17:55:56Z</time>
  <course>248.34</course>
  <speed>0.0</speed>
  <fix>3d</fix>
</trkpt>
<trkpt lat="40.0713749" lon="-105.229789">
  <ele>1583.0</ele>
  <time>2026-08-28T17:55:56Z</time>
  <course>0.0</course>
  <speed>0.0</speed>
  <fix>3d</fix>
</trkpt>
<trkpt lat="40.0713749" lon="-105.229789">
  <ele>1583.0</ele>
  <time>2026-08-28T17:55:56Z</time>
  <course>248.35</course>
  <speed>0.0</speed>
  <fix>3d</fix>
</trkpt>
<trkpt lat="40.0713749" lon="-105.229789">
  <ele>1583.0</ele>
  <time>2026-08-28T17:55:56Z</time>
  <course>0.0</course>
  <speed>0.0</speed>
  <fix>3d</fix>
</trkpt>
<trkpt lat="40.0713749" lon="-105.229789">
  <ele>1583.0</ele>
  <time>2026-08-28T17:55:56Z</time>
  <course>248.36</course>
  <speed>0.0</speed>
  <fix>3d</fix>
</trkpt>
<trkpt lat="40.0713749" lon="-105.229789">
  <ele>1583.0</ele>
  <time>2026-08-28T17:55:56Z</time>
  <course>0.0</course>
  <speed>0.0</speed>
  <fix>3d</fix>
</trkpt>
<trkpt lat="40.0713749" lon="-105.229789">
  <ele>1583.0</ele>
  <time>2026-08-28T17:55:56Z</time>
  <course>248.36</course>
  <speed>0.0</speed>
  <fix>3d</fix>
</trkpt>
<trkpt lat="40.0713749" lon="-105.229789">
  <ele>1583.0</ele>
  <time>2026-08-28T17:55:56Z</time>
  <course>0.0</course>
  <speed>0.0</speed>
  <fix>3d</fix>
</trkpt>
<trkpt lat="40.0713749" lon="-105.229789">
  <ele>1583.0</ele>
  <time>2026-08-28T17:55:56Z</time>
  <course>248.37</course>
  <speed>0.0</speed>
  <fix>3d</fix>
</trkpt>
<trkpt lat="40.0713749" lon="-105.229789">
  <ele>1583.0</ele>
  <time>2026-08-28T17:55:56Z</time>
  <course>0.0</course>
  <speed>0.0</speed>
  <fix>3d</fix>
</trkpt>
<trkpt lat="40.0713749" lon="-105.229789">
  <ele>1583.0</ele>
  <time>2026-08-28T17:55:56Z</time>
  <course>248.38</course>
  <speed>0.0</speed>
  <fix>3d</fix>
</trkpt>
<trkpt lat="40.0713749" lon="-105.229789">
  <ele>1583.0</ele>
  <time>2026-08-28T17:55:56Z</time>
  <course>0.0</course>
  <speed>0.0</speed>
  <fix>3d</fix>
</trkpt>
<trkpt lat="40.0713749" lon="-105.229789">
  <ele>1583.0</ele>
  <time>2026-08-28T17:55:56Z</time>
  <course>248.38</course>
  <speed>0.0</speed>
  <fix>3d</fix>
</trkpt>
<trkpt lat="40.0713749" lon="-105.229789">
  <ele>1583.0</ele>
  <time>2026-08-28T17:55:56Z</time>
  <course>0.0</course>
  <speed>0.0</speed>
  <fix>3d</fix>
</trkpt>
<trkpt lat="40.0713749" lon="-105.229789">
  <ele>1583.0</ele>
  <time>2026-08-28T17:55:56Z</time>
  <course>248.38</course>
  <speed>0.0</speed>
  <fix>3d</fix>
</trkpt>
<trkpt lat="40.0713749" lon="-105.229789">
  <ele>1583.0</ele>
  <time>2026-08-28T17:55:56Z</time>
  <course>0.0</course>
  <speed>0.0</speed>
  <fix>3d</fix>
</trkpt>
<trkpt lat="40.0713749" lon="-105.229789">
  <ele>1583.0</ele>
  <time>2026-08-28T17:55:56Z</time>
  <course>248.39</course>
  <speed>0.0</speed>
  <fix>3d</fix>
</trkpt>
<trkpt lat="40.0713749" lon="-105.229789">
  <ele>1583.0</ele>
  <time>2026-08-28T17:55:56Z</time>
  <course>0.0</course>
  <speed>0.0</speed>
  <fix>3d</fix>
</trkpt>
<trkpt lat="40.0713749" lon="-105.229789">
  <ele>1583.0</ele>
  <time>2026-08-28T17:55:56Z</time>
  <course>248.39</course>
  <speed>0.0</speed>
  <fix>3d</fix>
</trkpt>
<trkpt lat="40.0713749" lon="-105.229789">
  <ele>1583.0</ele>
  <time>2026-08-28T17:55:56Z</time>
  <course>0.0</course>
  <speed>0.0</speed>
  <fix>3d</fix>
</trkpt>
<trkpt lat="40.0713749" lon="-105.229789">
  <ele>1583.0</ele>
  <time>2026-08-28T17:55:56Z</time>
  <course>248.4</course>
  <speed>0.0</speed>
  <fix>3d</fix>
</trkpt>
<trkpt lat="40.0713749" lon="-105.229789">
  <ele>1583.0</ele>
  <time>2026-08-28T17:55:56Z</time>
  <course>0.0</course>
  <speed>0.0</speed>
  <fix>3d</fix>
</trkpt>
<trkpt lat="40.0713749" lon="-105.229789">
  <ele>1583.0</ele>
  <time>2026-08-28T17:55:56Z</time>
  <course>248.4</course>
  <speed>0.0</speed>
  <fix>3d</fix>
</trkpt>
<trkpt lat="40.0713749" lon="-105.229789">
  <ele>1583.0</ele>
  <time>2026-08-28T17:55:56Z</time>
  <course>0.0</course>
  <speed>0.0</speed>
  <fix>3d</fix>
</trkpt>
<trkpt lat="40.0713749" lon="-105.229789">
  <ele>1583.0</ele>
  <time>2026-08-28T17:55:56Z</time>
  <course>248.4</course>
  <speed>0.0</speed>
  <fix>3d</fix>
</trkpt>
<trkpt lat="40.0713749" lon="-105.229789">
  <ele>1583.0</ele>
  <time>2026-08-28T17:55:56Z</time>
  <course>0.0</course>
  <speed>0.0</speed>
  <fix>3d</fix>
</trkpt>
<trkpt lat="40.0713749" lon="-105.229789">
  <ele>1583.0</ele>
  <time>2026-08-28T17:55:56Z</time>
  <course>248.4</course>
  <speed>0.0</speed>
  <fix>3d</fix>
</trkpt>
<trkpt lat="40.0713749" lon="-105.229789">
  <ele>1583.0</ele>
  <time>2026-08-28T17:55:56Z</time>
  <course>0.0</course>
  <speed>0.0</speed>
  <fix>3d</fix>
</trkpt>
<trkpt lat="40.0713749" lon="-105.229789">
  <ele>1583.0</ele>
  <time>2026-08-28T17:55:56Z</time>
  <course>248.41</course>
  <speed>0.0</speed>
  <fix>3d</fix>
</trkpt>
<trkpt lat="40.0713749" lon="-105.229789">
  <ele>1583.0</ele>
  <time>2026-08-28T17:55:56Z</time>
  <course>0.0</course>
  <speed>0.0</speed>
  <fix>3d</fix>
</trkpt>
<trkpt lat="40.0713749" lon="-105.229789">
  <ele>1583.0</ele>
  <time>2026-08-28T17:55:56Z</time>
  <course>248.41</course>
  <speed>0.0</speed>
  <fix>3d</fix>
</trkpt>
<trkpt lat="40.0713749" lon="-105.229789">
  <ele>1583.0</ele>
  <time>2026-08-28T17:55:56Z</time>
  <course>0.0</course>
  <speed>0.0</speed>
  <fix>3d</fix>
</trkpt>
<trkpt lat="40.0713749" lon="-105.229789">
  <ele>1583.0</ele>
  <time>2026-08-28T17:55:56Z</time>
  <course>248.41</course>
  <speed>0.0</speed>
  <fix>3d</fix>
</trkpt>
<trkpt lat="40.0713749" lon="-105.229789">
  <ele>1583.0</ele>
  <time>2026-08-28T17:55:56Z</time>
  <course>0.0</course>
  <speed>0.0</speed>
  <fix>3d</fix>
</trkpt>
<trkpt lat="40.0713749" lon="-105.229789">
  <ele>1583.0</ele>
  <time>2026-08-28T17:55:56Z</time>
  <course>248.41</course>
  <speed>0.0</speed>
  <fix>3d</fix>
</trkpt>
<trkpt lat="40.0713749" lon="-105.229789">
  <ele>1583.0</ele>
  <time>2026-08-28T17:55:56Z</time>
  <course>0.0</course>
  <speed>0.0</speed>
  <fix>3d</fix>
</trkpt>
<trkpt lat="40.0713749" lon="-105.229789">
  <ele>1583.0</ele>
  <time>2026-08-28T17:55:57Z</time>
  <course>248.41</course>
  <speed>0.0</speed>
  <fix>3d</fix>
</trkpt>
<trkpt lat="40.0713749" lon="-105.229789">
  <ele>1583.0</ele>
  <time>2026-08-28T17:55:57Z</time>
  <course>0.0</course>
  <speed>0.0</speed>
  <fix>3d</fix>
</trkpt>
<trkpt lat="40.0713749" lon="-105.229789">
  <ele>1583.0</ele>
  <time>2026-08-28T17:55:57Z</time>
  <course>248.41</course>
  <speed>0.0</speed>
  <fix>3d</fix>
</trkpt>
<trkpt lat="40.0713749" lon="-105.229789">
  <ele>1583.0</ele>
  <time>2026-08-28T17:55:57Z</time>
  <course>0.0</course>
  <speed>0.0</speed>
  <fix>3d</fix>
</trkpt>
<trkpt lat="40.0713749" lon="-105.229789">
  <ele>1583.0</ele>
  <time>2026-08-28T17:55:57Z</time>
  <course>248.41</course>
  <speed>0.0</speed>
  <fix>3d</fix>
</trkpt>
<trkpt lat="40.0713749" lon="-105.229789">
  <ele>1583.0</ele>
  <time>2026-08-28T17:55:57Z</time>
  <course>0.0</course>
  <speed>0.0</speed>
  <fix>3d</fix>
</trkpt>
<trkpt lat="40.0713749" lon="-105.229789">
  <ele>1583.0</ele>
  <time>2026-08-28T17:55:57Z</time>
  <course>248.41</course>
  <speed>0.0</speed>
  <fix>3d</fix>
</trkpt>
<trkpt lat="40.0713749" lon="-105.229789">
  <ele>1583.0</ele>
  <time>2026-08-28T17:55:57Z</time>
  <course>0.0</course>
  <speed>0.0</speed>
  <fix>3d</fix>
</trkpt>
<trkpt lat="40.0713749" lon="-105.229789">
  <ele>1583.0</ele>
  <time>2026-08-28T17:55:57Z</time>
  <course>248.41</course>
  <speed>0.0</speed>
  <fix>3d</fix>
</trkpt>
<trkpt lat="40.0713749" lon="-105.229789">
  <ele>1583.0</ele>
  <time>2026-08-28T17:55:57Z</time>
  <course>0.0</course>
  <speed>0.0</speed>
  <fix>3d</fix>
</trkpt>
<trkpt lat="40.0713749" lon="-105.229789">
  <ele>1583.0</ele>
  <time>2026-08-28T17:55:57Z</time>
  <course>248.41</course>
  <speed>0.0</speed>
  <fix>3d</fix>
</trkpt>
<trkpt lat="40.0713749" lon="-105.229789">
  <ele>1583.0</ele>
  <time>2026-08-28T17:55:57Z</time>
  <course>0.0</course>
  <speed>0.0</speed>
  <fix>3d</fix>
</trkpt>
<trkpt lat="40.0713749" lon="-105.229789">
  <ele>1583.0</ele>
  <time>2026-08-28T17:55:57Z</time>
  <course>248.4</course>
  <speed>0.0</speed>
  <fix>3d</fix>
</trkpt>
<trkpt lat="40.0713749" lon="-105.229789">
  <ele>1583.0</ele>
  <time>2026-08-28T17:55:57Z</time>
  <course>0.0</course>
  <speed>0.0</speed>
  <fix>3d</fix>
</trkpt>
<trkpt lat="40.0713749" lon="-105.229789">
  <ele>1583.0</ele>
  <time>2026-08-28T17:55:57Z</time>
  <course>248.4</course>
  <speed>0.01</speed>
  <fix>3d</fix>
</trkpt>
<trkpt lat="40.0713749" lon="-105.229789">
  <ele>1583.0</ele>
  <time>2026-08-28T17:55:57Z</time>
  <course>0.0</course>
  <speed>0.0</speed>
  <fix>3d</fix>
</trkpt>
<trkpt lat="40.0713749" lon="-105.229789">
  <ele>1583.0</ele>
  <time>2026-08-28T17:55:57Z</time>
  <course>248.4</course>
  <speed>0.01</speed>
  <fix>3d</fix>
</trkpt>
<trkpt lat="40.0713749" lon="-105.229789">
  <ele>1583.0</ele>
  <time>2026-08-28T17:55:57Z</time>
  <course>0.0</course>
  <speed>0.0</speed>
  <fix>3d</fix>
</trkpt>
<trkpt lat="40.0713749" lon="-105.229789">
  <ele>1583.0</ele>
  <time>2026-08-28T17:55:57Z</time>
  <course>248.4</course>
  <speed>0.01</speed>
  <fix>3d</fix>
</trkpt>
<trkpt lat="40.0713749" lon="-105.229789">
  <ele>1583.0</ele>
  <time>2026-08-28T17:55:57Z</time>
  <course>0.0</course>
  <speed>0.0</speed>
  <fix>3d</fix>
</trkpt>
<trkpt lat="40.0713749" lon="-105.229789">
  <ele>1583.0</ele>
  <time>2026-08-28T17:55:57Z</time>
  <course>248.4</course>
  <speed>0.01</speed>
  <fix>3d</fix>
</trkpt>
<trkpt lat="40.0713749" lon="-105.229789">
  <ele>1583.0</ele>
  <time>2026-08-28T17:55:57Z</time>
  <course>0.0</course>
  <speed>0.0</speed>
  <fix>3d</fix>
</trkpt>
<trkpt lat="40.0713749" lon="-105.229789">
  <ele>1583.0</ele>
  <time>2026-08-28T17:55:57Z</time>
  <course>248.39</course>
  <speed>0.01</speed>
  <fix>3d</fix>
</trkpt>
<trkpt lat="40.0713749" lon="-105.229789">
  <ele>1583.0</ele>
  <time>2026-08-28T17:55:57Z</time>
  <course>0.0</course>
  <speed>0.0</speed>
  <fix>3d</fix>
</trkpt>
<trkpt lat="40.0713749" lon="-105.229789">
  <ele>1583.0</ele>
  <time>2026-08-28T17:55:57Z</time>
  <course>248.39</course>
  <speed>0.01</speed>
  <fix>3d</fix>
</trkpt>
<trkpt lat="40.0713749" lon="-105.229789">
  <ele>1583.0</ele>
  <time>2026-08-28T17:55:57Z</time>
  <course>0.0</course>
  <speed>0.0</speed>
  <fix>3d</fix>
</trkpt>
<trkpt lat="40.0713749" lon="-105.229789">
  <ele>1583.0</ele>
  <time>2026-08-28T17:55:57Z</time>
  <course>248.38</course>
  <speed>0.01</speed>
  <fix>3d</fix>
</trkpt>
<trkpt lat="40.0713749" lon="-105.229789">
  <ele>1583.0</ele>
  <time>2026-08-28T17:55:57Z</time>
  <course>0.0</course>
  <speed>0.0</speed>
  <fix>3d</fix>
</trkpt>
<trkpt lat="40.0713749" lon="-105.229789">
  <ele>1583.0</ele>
  <time>2026-08-28T17:55:57Z</time>
  <course>248.36</course>
  <speed>0.01</speed>
  <fix>3d</fix>
</trkpt>
<trkpt lat="40.0713749" lon="-105.229789">
  <ele>1583.0</ele>
  <time>2026-08-28T17:55:57Z</time>
  <course>0.0</course>
  <speed>0.0</speed>
  <fix>3d</fix>
</trkpt>
<trkpt lat="40.0713749" lon="-105.229789">
  <ele>1583.0</ele>
  <time>2026-08-28T17:55:57Z</time>
  <course>248.35</course>
  <speed>0.01</speed>
  <fix>3d</fix>
</trkpt>
<trkpt lat="40.0713749" lon="-105.229789">
  <ele>1583.0</ele>
  <time>2026-08-28T17:55:57Z</time>
  <course>0.0</course>
  <speed>0.0</speed>
  <fix>3d</fix>
</trkpt>
<trkpt lat="40.0713749" lon="-105.229789">
  <ele>1583.0</ele>
  <time>2026-08-28T17:55:57Z</time>
  <course>248.33</course>
  <speed>0.01</speed>
  <fix>3d</fix>
</trkpt>
<trkpt lat="40.0713749" lon="-105.229789">
  <ele>1583.0</ele>
  <time>2026-08-28T17:55:57Z</time>
  <course>0.0</course>
  <speed>0.0</speed>
  <fix>3d</fix>
</trkpt>
<trkpt lat="40.0713749" lon="-105.229789">
  <ele>1583.0</ele>
  <time>2026-08-28T17:55:57Z</time>
  <course>248.32</course>
  <speed>0.01</speed>
  <fix>3d</fix>
</trkpt>
<trkpt lat="40.0713749" lon="-105.229789">
  <ele>1583.0</ele>
  <time>2026-08-28T17:55:57Z</time>
  <course>0.0</course>
  <speed>0.0</speed>
  <fix>3d</fix>
</trkpt>
<trkpt lat="40.0713749" lon="-105.229789">
  <ele>1583.0</ele>
  <time>2026-08-28T17:55:57Z</time>
  <course>248.3</course>
  <speed>0.01</speed>
  <fix>3d</fix>
</trkpt>
<trkpt lat="40.0713749" lon="-105.229789">
  <ele>1583.0</ele>
  <time>2026-08-28T17:55:57Z</time>
  <course>0.0</course>
  <speed>0.0</speed>
  <fix>3d</fix>
</trkpt>
<trkpt lat="40.0713749" lon="-105.229789">
  <ele>1583.0</ele>
  <time>2026-08-28T17:55:57Z</time>
  <course>248.28</course>
  <speed>0.01</speed>
  <fix>3d</fix>
</trkpt>
<trkpt lat="40.0713749" lon="-105.229789">
  <ele>1583.0</ele>
  <time>2026-08-28T17:55:57Z</time>
  <course>0.0</course>
  <speed>0.0</speed>
  <fix>3d</fix>
</trkpt>
<trkpt lat="40.0713749" lon="-105.229789">
  <ele>1583.0</ele>
  <time>2026-08-28T17:55:57Z</time>
  <course>248.26</course>
  <speed>0.01</speed>
  <fix>3d</fix>
</trkpt>
<trkpt lat="40.0713749" lon="-105.229789">
  <ele>1583.0</ele>
  <time>2026-08-28T17:55:57Z</time>
  <course>0.0</course>
  <speed>0.0</speed>
  <fix>3d</fix>
</trkpt>
<trkpt lat="40.0713749" lon="-105.229789">
  <ele>1583.0</ele>
  <time>2026-08-28T17:55:57Z</time>
  <course>248.24</course>
  <speed>0.01</speed>
  <fix>3d</fix>
</trkpt>
<trkpt lat="40.0713749" lon="-105.229789">
  <ele>1583.0</ele>
  <time>2026-08-28T17:55:57Z</time>
  <course>0.0</course>
  <speed>0.0</speed>
  <fix>3d</fix>
</trkpt>
<trkpt lat="40.0713749" lon="-105.229789">
  <ele>1583.0</ele>
  <time>2026-08-28T17:55:57Z</time>
  <course>248.22</course>
  <speed>0.01</speed>
  <fix>3d</fix>
</trkpt>
<trkpt lat="40.0713749" lon="-105.229789">
  <ele>1583.0</ele>
  <time>2026-08-28T17:55:57Z</time>
  <course>0.0</course>
  <speed>0.0</speed>
  <fix>3d</fix>
</trkpt>
<trkpt lat="40.0713749" lon="-105.229789">
  <ele>1583.0</ele>
  <time>2026-08-28T17:55:57Z</time>
  <course>248.2</course>
  <speed>0.01</speed>
  <fix>3d</fix>
</trkpt>
<trkpt lat="40.0713749" lon="-105.229789">
  <ele>1583.0</ele>
  <time>2026-08-28T17:55:57Z</time>
  <course>0.0</course>
  <speed>0.0</speed>
  <fix>3d</fix>
</trkpt>
<trkpt lat="40.0713749" lon="-105.229789">
  <ele>1583.0</ele>
  <time>2026-08-28T17:55:57Z</time>
  <course>248.18</course>
  <speed>0.01</speed>
  <fix>3d</fix>
</trkpt>
<trkpt lat="40.0713749" lon="-105.229789">
  <ele>1583.0</ele>
  <time>2026-08-28T17:55:57Z</time>
  <course>0.0</course>
  <speed>0.0</speed>
  <fix>3d</fix>
</trkpt>
<trkpt lat="40.0713749" lon="-105.229789">
  <ele>1583.0</ele>
  <time>2026-08-28T17:55:57Z</time>
  <course>248.16</course>
  <speed>0.022360679774997897</speed>
  <fix>3d</fix>
</trkpt>
<trkpt lat="40.0713749" lon="-105.229789">
  <ele>1583.0</ele>
  <time>2026-08-28T17:55:57Z</time>
  <course>0.0</course>
  <speed>0.0</speed>
  <fix>3d</fix>
</trkpt>
<trkpt lat="40.0713749" lon="-105.229789">
  <ele>1583.0</ele>
  <time>2026-08-28T17:55:57Z</time>
  <course>248.14</course>
  <speed>0.022360679774997897</speed>
  <fix>3d</fix>
</trkpt>
<trkpt lat="40.0713749" lon="-105.229789">
  <ele>1583.0</ele>
  <time>2026-08-28T17:55:57Z</time>
  <course>0.0</course>
  <speed>0.0</speed>
  <fix>3d</fix>
</trkpt>
<trkpt lat="40.0713749" lon="-105.229789">
  <ele>1583.0</ele>
  <time>2026-08-28T17:55:57Z</time>
  <course>248.12</course>
  <speed>0.022360679774997897</speed>
  <fix>3d</fix>
</trkpt>
<trkpt lat="40.0713749" lon="-105.229789">
  <ele>1583.0</ele>
  <time>2026-08-28T17:55:57Z</time>
  <course>0.0</course>
  <speed>0.0</speed>
  <fix>3d</fix>
</trkpt>
<trkpt lat="40.0713749" lon="-105.229789">
  <ele>1583.0</ele>
  <time>2026-08-28T17:55:57Z</time>
  <course>248.1</course>
  <speed>0.022360679774997897</speed>
  <fix>3d</fix>
</trkpt>
<trkpt lat="40.0713749" lon="-105.229789">
  <ele>1583.0</ele>
  <time>2026-08-28T17:55:57Z</time>
  <course>0.0</course>
  <speed>0.0</speed>
  <fix>3d</fix>
</trkpt>
<trkpt lat="40.0713749" lon="-105.229789">
  <ele>1583.0</ele>
  <time>2026-08-28T17:55:57Z</time>
  <course>248.08</course>
  <speed>0.022360679774997897</speed>
  <fix>3d</fix>
</trkpt>
<trkpt lat="40.0713749" lon="-105.229789">
  <ele>1583.0</ele>
  <time>2026-08-28T17:55:57Z</time>
  <course>0.0</course>
  <speed>0.0</speed>
  <fix>3d</fix>
</trkpt>
<trkpt lat="40.0713749" lon="-105.229789">
  <ele>1583.0</ele>
  <time>2026-08-28T17:55:57Z</time>
  <course>248.06</course>
  <speed>0.022360679774997897</speed>
  <fix>3d</fix>
</trkpt>
<trkpt lat="40.0713749" lon="-105.229789">
  <ele>1583.0</ele>
  <time>2026-08-28T17:55:57Z</time>
  <course>0.0</course>
  <speed>0.0</speed>
  <fix>3d</fix>
</trkpt>
<trkpt lat="40.0713749" lon="-105.229789">
  <ele>1583.0</ele>
  <time>2026-08-28T17:55:57Z</time>
  <course>248.05</course>
  <speed>0.022360679774997897</speed>
  <fix>3d</fix>
</trkpt>
<trkpt lat="40.0713749" lon="-105.229789">
  <ele>1583.0</ele>
  <time>2026-08-28T17:55:57Z</time>
  <course>0.0</course>
  <speed>0.0</speed>
  <fix>3d</fix>
</trkpt>
<trkpt lat="40.0713749" lon="-105.229789">
  <ele>1583.0</ele>
  <time>2026-08-28T17:55:57Z</time>
  <course>248.03</course>
  <speed>0.022360679774997897</speed>
  <fix>3d</fix>
</trkpt>
<trkpt lat="40.0713749" lon="-105.229789">
  <ele>1583.0</ele>
  <time>2026-08-28T17:55:57Z</time>
  <course>0.0</course>
  <speed>0.0</speed>
  <fix>3d</fix>
</trkpt>
<trkpt lat="40.0713749" lon="-105.229789">
  <ele>1583.0</ele>
  <time>2026-08-28T17:55:57Z</time>
  <course>248.02</course>
  <speed>0.022360679774997897</speed>
  <fix>3d</fix>
</trkpt>
<trkpt lat="40.0713749" lon="-105.229789">
  <ele>1583.0</ele>
  <time>2026-08-28T17:55:57Z</time>
  <course>0.0</course>
  <speed>0.0</speed>
  <fix>3d</fix>
</trkpt>
<trkpt lat="40.0713749" lon="-105.229789">
  <ele>1583.0</ele>
  <time>2026-08-28T17:55:57Z</time>
  <course>248.02</course>
  <speed>0.022360679774997897</speed>
  <fix>3d</fix>
</trkpt>
<trkpt lat="40.0713749" lon="-105.229789">
  <ele>1583.0</ele>
  <time>2026-08-28T17:55:57Z</time>
  <course>0.0</course>
  <speed>0.0</speed>
  <fix>3d</fix>
</trkpt>
<trkpt lat="40.0713749" lon="-105.229789">
  <ele>1583.0</ele>
  <time>2026-08-28T17:55:57Z</time>
  <course>248.01</course>
  <speed>0.022360679774997897</speed>
  <fix>3d</fix>
</trkpt>
<trkpt lat="40.0713749" lon="-105.229789">
  <ele>1583.0</ele>
  <time>2026-08-28T17:55:57Z</time>
  <course>0.0</course>
  <speed>0.0</speed>
  <fix>3d</fix>
</trkpt>
<trkpt lat="40.0713749" lon="-105.229789">
  <ele>1583.0</ele>
  <time>2026-08-28T17:55:57Z</time>
  <course>248.01</course>
  <speed>0.022360679774997897</speed>
  <fix>3d</fix>
</trkpt>
<trkpt lat="40.0713749" lon="-105.229789">
  <ele>1583.0</ele>
  <time>2026-08-28T17:55:57Z</time>
  <course>0.0</course>
  <speed>0.0</speed>
  <fix>3d</fix>
</trkpt>
<trkpt lat="40.0713749" lon="-105.229789">
  <ele>1583.0</ele>
  <time>2026-08-28T17:55:57Z</time>
  <course>248.0</course>
  <speed>0.022360679774997897</speed>
  <fix>3d</fix>
</trkpt>
<trkpt lat="40.0713749" lon="-105.229789">
  <ele>1583.0</ele>
  <time>2026-08-28T17:55:57Z</time>
  <course>0.0</course>
  <speed>0.0</speed>
  <fix>3d</fix>
</trkpt>
<trkpt lat="40.0713749" lon="-105.229789">
  <ele>1583.0</ele>
  <time>2026-08-28T17:55:57Z</time>
  <course>248.0</course>
  <speed>0.022360679774997897</speed>
  <fix>3d</fix>
</trkpt>
<trkpt lat="40.0713749" lon="-105.229789">
  <ele>1583.0</ele>
  <time>2026-08-28T17:55:57Z</time>
  <course>0.0</course>
  <speed>0.0</speed>
  <fix>3d</fix>
</trkpt>
<trkpt lat="40.0713749" lon="-105.229789">
  <ele>1583.0</ele>
  <time>2026-08-28T17:55:57Z</time>
  <course>247.99</course>
  <speed>0.022360679774997897</speed>
  <fix>3d</fix>
</trkpt>
<trkpt lat="40.0713749" lon="-105.229789">
  <ele>1583.0</ele>
  <time>2026-08-28T17:55:57Z</time>
  <course>0.0</course>
  <speed>0.0</speed>
  <fix>3d</fix>
</trkpt>
<trkpt lat="40.0713749" lon="-105.229789">
  <ele>1583.0</ele>
  <time>2026-08-28T17:55:57Z</time>
  <course>247.99</course>
  <speed>0.022360679774997897</speed>
  <fix>3d</fix>
</trkpt>
<trkpt lat="40.0713749" lon="-105.229789">
  <ele>1583.0</ele>
  <time>2026-08-28T17:55:57Z</time>
  <course>0.0</course>
  <speed>0.0</speed>
  <fix>3d</fix>
</trkpt>
<trkpt lat="40.0713749" lon="-105.229789">
  <ele>1583.0</ele>
  <time>2026-08-28T17:55:57Z</time>
  <course>247.99</course>
  <speed>0.022360679774997897</speed>
  <fix>3d</fix>
</trkpt>
<trkpt lat="40.0713749" lon="-105.229789">
  <ele>1583.0</ele>
  <time>2026-08-28T17:55:57Z</time>
  <course>0.0</course>
  <speed>0.0</speed>
  <fix>3d</fix>
</trkpt>
<trkpt lat="40.0713749" lon="-105.229789">
  <ele>1583.0</ele>
  <time>2026-08-28T17:55:57Z</time>
  <course>247.98</course>
  <speed>0.022360679774997897</speed>
  <fix>3d</fix>
</trkpt>
<trkpt lat="40.0713749" lon="-105.229789">
  <ele>1583.0</ele>
  <time>2026-08-28T17:55:57Z</time>
  <course>0.0</course>
  <speed>0.0</speed>
  <fix>3d</fix>
</trkpt>
<trkpt lat="40.0713749" lon="-105.229789">
  <ele>1583.0</ele>
  <time>2026-08-28T17:55:57Z</time>
  <course>247.98</course>
  <speed>0.022360679774997897</speed>
  <fix>3d</fix>
</trkpt>
<trkpt lat="40.0713749" lon="-105.229789">
  <ele>1583.0</ele>
  <time>2026-08-28T17:55:57Z</time>
  <course>0.0</course>
  <speed>0.0</speed>
  <fix>3d</fix>
</trkpt>
<trkpt lat="40.0713749" lon="-105.229789">
  <ele>1583.0</ele>
  <time>2026-08-28T17:55:57Z</time>
  <course>247.97</course>
  <speed>0.022360679774997897</speed>
  <fix>3d</fix>
</trkpt>
<trkpt lat="40.0713749" lon="-105.229789">
  <ele>1583.0</ele>
  <time>2026-08-28T17:55:57Z</time>
  <course>0.0</course>
  <speed>0.0</speed>
  <fix>3d</fix>
</trkpt>
<trkpt lat="40.0713749" lon="-105.229789">
  <ele>1583.0</ele>
  <time>2026-08-28T17:55:57Z</time>
  <course>247.97</course>
  <speed>0.022360679774997897</speed>
  <fix>3d</fix>
</trkpt>
<trkpt lat="40.0713749" lon="-105.229789">
  <ele>1583.0</ele>
  <time>2026-08-28T17:55:57Z</time>
  <course>0.0</course>
  <speed>0.0</speed>
  <fix>3d</fix>
</trkpt>
<trkpt lat="40.0713749" lon="-105.229789">
  <ele>1583.0</ele>
  <time>2026-08-28T17:55:57Z</time>
  <course>247.96</course>
  <speed>0.022360679774997897</speed>
  <fix>3d</fix>
</trkpt>
<trkpt lat="40.0713749" lon="-105.229789">
  <ele>1583.0</ele>
  <time>2026-08-28T17:55:57Z</time>
  <course>0.0</course>
  <speed>0.0</speed>
  <fix>3d</fix>
</trkpt>
<trkpt lat="40.0713749" lon="-105.229789">
  <ele>1583.0</ele>
  <time>2026-08-28T17:55:57Z</time>
  <course>247.96</course>
  <speed>0.022360679774997897</speed>
  <fix>3d</fix>
</trkpt>
<trkpt lat="40.0713749" lon="-105.229789">
  <ele>1583.0</ele>
  <time>2026-08-28T17:55:57Z</time>
  <course>0.0</course>
  <speed>0.0</speed>
  <fix>3d</fix>
</trkpt>
<trkpt lat="40.0713749" lon="-105.229789">
  <ele>1583.0</ele>
  <time>2026-08-28T17:55:57Z</time>
  <course>247.95</course>
  <speed>0.022360679774997897</speed>
  <fix>3d</fix>
</trkpt>
<trkpt lat="40.0713749" lon="-105.229789">
  <ele>1583.0</ele>
  <time>2026-08-28T17:55:57Z</time>
  <course>0.0</course>
  <speed>0.0</speed>
  <fix>3d</fix>
</trkpt>
<trkpt lat="40.0713749" lon="-105.229789">
  <ele>1583.0</ele>
  <time>2026-08-28T17:55:57Z</time>
  <course>247.95</course>
  <speed>0.022360679774997897</speed>
  <fix>3d</fix>
</trkpt>
<trkpt lat="40.0713749" lon="-105.229789">
  <ele>1583.0</ele>
  <time>2026-08-28T17:55:57Z</time>
  <course>0.0</course>
  <speed>0.0</speed>
  <fix>3d</fix>
</trkpt>
<trkpt lat="40.0713749" lon="-105.229789">
  <ele>1583.0</ele>
  <time>2026-08-28T17:55:57Z</time>
  <course>247.95</course>
  <speed>0.022360679774997897</speed>
  <fix>3d</fix>
</trkpt>
<trkpt lat="40.0713749" lon="-105.229789">
  <ele>1583.0</ele>
  <time>2026-08-28T17:55:57Z</time>
  <course>0.0</course>
  <speed>0.0</speed>
  <fix>3d</fix>
</trkpt>
<trkpt lat="40.0713749" lon="-105.229789">
  <ele>1583.0</ele>
  <time>2026-08-28T17:55:57Z</time>
  <course>247.94</course>
  <speed>0.022360679774997897</speed>
  <fix>3d</fix>
</trkpt>
<trkpt lat="40.0713749" lon="-105.229789">
  <ele>1583.0</ele>
  <time>2026-08-28T17:55:57Z</time>
  <course>0.0</course>
  <speed>0.0</speed>
  <fix>3d</fix>
</trkpt>
<trkpt lat="40.0713749" lon="-105.229789">
  <ele>1583.0</ele>
  <time>2026-08-28T17:55:57Z</time>
  <course>247.94</course>
  <speed>0.022360679774997897</speed>
  <fix>3d</fix>
</trkpt>
<trkpt lat="40.0713749" lon="-105.229789">
  <ele>1583.0</ele>
  <time>2026-08-28T17:55:57Z</time>
  <course>0.0</course>
  <speed>0.0</speed>
  <fix>3d</fix>
</trkpt>
<trkpt lat="40.0713749" lon="-105.229789">
  <ele>1583.0</ele>
  <time>2026-08-28T17:55:57Z</time>
  <course>247.92</course>
  <speed>0.022360679774997897</speed>
  <fix>3d</fix>
</trkpt>
<trkpt lat="40.0713749" lon="-105.229789">
  <ele>1583.0</ele>
  <time>2026-08-28T17:55:57Z</time>
  <course>0.0</course>
  <speed>0.0</speed>
  <fix>3d</fix>
</trkpt>
<trkpt lat="40.0713749" lon="-105.229789">
  <ele>1583.0</ele>
  <time>2026-08-28T17:55:57Z</time>
  <course>247.91</course>
  <speed>0.022360679774997897</speed>
  <fix>3d</fix>
</trkpt>
<trkpt lat="40.0713749" lon="-105.229789">
  <ele>1583.0</ele>
  <time>2026-08-28T17:55:57Z</time>
  <course>0.0</course>
  <speed>0.0</speed>
  <fix>3d</fix>
</trkpt>
<trkpt lat="40.0713749" lon="-105.229789">
  <ele>1583.0</ele>
  <time>2026-08-28T17:55:57Z</time>
  <course>247.9</course>
  <speed>0.022360679774997897</speed>
  <fix>3d</fix>
</trkpt>
<trkpt lat="40.0713749" lon="-105.229789">
  <ele>1583.0</ele>
  <time>2026-08-28T17:55:57Z</time>
  <course>0.0</course>
  <speed>0.0</speed>
  <fix>3d</fix>
</trkpt>
<trkpt lat="40.0713749" lon="-105.229789">
  <ele>1583.0</ele>
  <time>2026-08-28T17:55:57Z</time>
  <course>247.9</course>
  <speed>0.022360679774997897</speed>
  <fix>3d</fix>
</trkpt>
<trkpt lat="40.0713749" lon="-105.229789">
  <ele>1583.0</ele>
  <time>2026-08-28T17:55:57Z</time>
  <course>0.0</course>
  <speed>0.0</speed>
  <fix>3d</fix>
</trkpt>
<trkpt lat="40.0713749" lon="-105.229789">
  <ele>1583.0</ele>
  <time>2026-08-28T17:55:57Z</time>
  <course>247.89</course>
  <speed>0.022360679774997897</speed>
  <fix>3d</fix>
</trkpt>
<trkpt lat="40.0713749" lon="-105.229789">
  <ele>1583.0</ele>
  <time>2026-08-28T17:55:57Z</time>
  <course>0.0</course>
  <speed>0.0</speed>
  <fix>3d</fix>
</trkpt>
<trkpt lat="40.0713749" lon="-105.229789">
  <ele>1583.0</ele>
  <time>2026-08-28T17:55:57Z</time>
  <course>247.89</course>
  <speed>0.022360679774997897</speed>
  <fix>3d</fix>
</trkpt>
<trkpt lat="40.0713749" lon="-105.229789">
  <ele>1583.0</ele>
  <time>2026-08-28T17:55:57Z</time>
  <course>0.0</course>
  <speed>0.0</speed>
  <fix>3d</fix>
</trkpt>
<trkpt lat="40.0713749" lon="-105.229789">
  <ele>1583.0</ele>
  <time>2026-08-28T17:55:57Z</time>
  <course>247.88</course>
  <speed>0.0316227766016838</speed>
  <fix>3d</fix>
</trkpt>
<trkpt lat="40.0713749" lon="-105.229789">
  <ele>1583.0</ele>
  <time>2026-08-28T17:55:57Z</time>
  <course>0.0</course>
  <speed>0.0</speed>
  <fix>3d</fix>
</trkpt>
<trkpt lat="40.0713749" lon="-105.229789">
  <ele>1583.0</ele>
  <time>2026-08-28T17:55:57Z</time>
  <course>247.88</course>
  <speed>0.0316227766016838</speed>
  <fix>3d</fix>
</trkpt>
<trkpt lat="40.0713749" lon="-105.229789">
  <ele>1583.0</ele>
  <time>2026-08-28T17:55:57Z</time>
  <course>0.0</course>
  <speed>0.0</speed>
  <fix>3d</fix>
</trkpt>
<trkpt lat="40.0713749" lon="-105.229789">
  <ele>1583.0</ele>
  <time>2026-08-28T17:55:57Z</time>
  <course>247.87</course>
  <speed>0.0316227766016838</speed>
  <fix>3d</fix>
</trkpt>
<trkpt lat="40.0713749" lon="-105.229789">
  <ele>1583.0</ele>
  <time>2026-08-28T17:55:57Z</time>
  <course>0.0</course>
  <speed>0.0</speed>
  <fix>3d</fix>
</trkpt>
<trkpt lat="40.0713749" lon="-105.229789">
  <ele>1583.0</ele>
  <time>2026-08-28T17:55:57Z</time>
  <course>247.87</course>
  <speed>0.0316227766016838</speed>
  <fix>3d</fix>
</trkpt>
<trkpt lat="40.0713749" lon="-105.229789">
  <ele>1583.0</ele>
  <time>2026-08-28T17:55:57Z</time>
  <course>0.0</course>
  <speed>0.0</speed>
  <fix>3d</fix>
</trkpt>
<trkpt lat="40.0713749" lon="-105.229789">
  <ele>1583.0</ele>
  <time>2026-08-28T17:55:57Z</time>
  <course>247.87</course>
  <speed>0.0316227766016838</speed>
  <fix>3d</fix>
</trkpt>
<trkpt lat="40.0713749" lon="-105.229789">
  <ele>1583.0</ele>
  <time>2026-08-28T17:55:57Z</time>
  <course>0.0</course>
  <speed>0.0</speed>
  <fix>3d</fix>
</trkpt>
<trkpt lat="40.0713749" lon="-105.229789">
  <ele>1583.0</ele>
  <time>2026-08-28T17:55:57Z</time>
  <course>247.86</course>
  <speed>0.0316227766016838</speed>
  <fix>3d</fix>
</trkpt>
<trkpt lat="40.0713749" lon="-105.229789">
  <ele>1583.0</ele>
  <time>2026-08-28T17:55:57Z</time>
  <course>0.0</course>
  <speed>0.0</speed>
  <fix>3d</fix>
</trkpt>
<trkpt lat="40.0713749" lon="-105.229789">
  <ele>1583.0</ele>
  <time>2026-08-28T17:55:57Z</time>
  <course>247.86</course>
  <speed>0.0316227766016838</speed>
  <fix>3d</fix>
</trkpt>
<trkpt lat="40.0713749" lon="-105.229789">
  <ele>1583.0</ele>
  <time>2026-08-28T17:55:57Z</time>
  <course>0.0</course>
  <speed>0.0</speed>
  <fix>3d</fix>
</trkpt>
<trkpt lat="40.0713749" lon="-105.229789">
  <ele>1583.0</ele>
  <time>2026-08-28T17:55:57Z</time>
  <course>247.85</course>
  <speed>0.0316227766016838</speed>
  <fix>3d</fix>
</trkpt>
<trkpt lat="40.0713749" lon="-105.229789">
  <ele>1583.0</ele>
  <time>2026-08-28T17:55:57Z</time>
  <course>0.0</course>
  <speed>0.0</speed>
  <fix>3d</fix>
</trkpt>
<trkpt lat="40.0713749" lon="-105.229789">
  <ele>1583.0</ele>
  <time>2026-08-28T17:55:57Z</time>
  <course>247.85</course>
  <speed>0.0316227766016838</speed>
  <fix>3d</fix>
</trkpt>
<trkpt lat="40.0713749" lon="-105.229789">
  <ele>1583.0</ele>
  <time>2026-08-28T17:55:57Z</time>
  <course>0.0</course>
  <speed>0.0</speed>
  <fix>3d</fix>
</trkpt>
<trkpt lat="40.0713749" lon="-105.229789">
  <ele>1583.0</ele>
  <time>2026-08-28T17:55:57Z</time>
  <course>247.85</course>
  <speed>0.0316227766016838</speed>
  <fix>3d</fix>
</trkpt>
<trkpt lat="40.0713749" lon="-105.229789">
  <ele>1583.0</ele>
  <time>2026-08-28T17:55:57Z</time>
  <course>0.0</course>
  <speed>0.0</speed>
  <fix>3d</fix>
</trkpt>
<trkpt lat="40.0713749" lon="-105.229789">
  <ele>1583.0</ele>
  <time>2026-08-28T17:55:57Z</time>
  <course>247.84</course>
  <speed>0.0316227766016838</speed>
  <fix>3d</fix>
</trkpt>
<trkpt lat="40.0713749" lon="-105.229789">
  <ele>1583.0</ele>
  <time>2026-08-28T17:55:57Z</time>
  <course>0.0</course>
  <speed>0.0</speed>
  <fix>3d</fix>
</trkpt>
<trkpt lat="40.0713749" lon="-105.229789">
  <ele>1583.0</ele>
  <time>2026-08-28T17:55:57Z</time>
  <course>247.84</course>
  <speed>0.0316227766016838</speed>
  <fix>3d</fix>
</trkpt>
<trkpt lat="40.0713749" lon="-105.229789">
  <ele>1583.0</ele>
  <time>2026-08-28T17:55:57Z</time>
  <course>0.0</course>
  <speed>0.0</speed>
  <fix>3d</fix>
</trkpt>
<trkpt lat="40.0713749" lon="-105.229789">
  <ele>1583.0</ele>
  <time>2026-08-28T17:55:57Z</time>
  <course>247.83</course>
  <speed>0.0316227766016838</speed>
  <fix>3d</fix>
</trkpt>
<trkpt lat="40.0713749" lon="-105.229789">
  <ele>1583.0</ele>
  <time>2026-08-28T17:55:57Z</time>
  <course>0.0</course>
  <speed>0.0</speed>
  <fix>3d</fix>
</trkpt>
<trkpt lat="40.0713749" lon="-105.229789">
  <ele>1583.0</ele>
  <time>2026-08-28T17:55:57Z</time>
  <course>247.83</course>
  <speed>0.0316227766016838</speed>
  <fix>3d</fix>
</trkpt>
<trkpt lat="40.0713749" lon="-105.229789">
  <ele>1583.0</ele>
  <time>2026-08-28T17:55:57Z</time>
  <course>0.0</course>
  <speed>0.0</speed>
  <fix>3d</fix>
</trkpt>
<trkpt lat="40.0713749" lon="-105.229789">
  <ele>1583.0</ele>
  <time>2026-08-28T17:55:57Z</time>
  <course>247.83</course>
  <speed>0.0316227766016838</speed>
  <fix>3d</fix>
</trkpt>
<trkpt lat="40.0713749" lon="-105.229789">
  <ele>1583.0</ele>
  <time>2026-08-28T17:55:57Z</time>
  <course>0.0</course>
  <speed>0.0</speed>
  <fix>3d</fix>
</trkpt>
<trkpt lat="40.0713749" lon="-105.229789">
  <ele>1583.0</ele>
  <time>2026-08-28T17:55:57Z</time>
  <course>247.82</course>
  <speed>0.0316227766016838</speed>
  <fix>3d</fix>
</trkpt>
<trkpt lat="40.0713749" lon="-105.229789">
  <ele>1583.0</ele>
  <time>2026-08-28T17:55:57Z</time>
  <course>0.0</course>
  <speed>0.0</speed>
  <fix>3d</fix>
</trkpt>
<trkpt lat="40.0713749" lon="-105.229789">
  <ele>1583.0</ele>
  <time>2026-08-28T17:55:57Z</time>
  <course>247.82</course>
  <speed>0.0316227766016838</speed>
  <fix>3d</fix>
</trkpt>
<trkpt lat="40.0713749" lon="-105.229789">
  <ele>1583.0</ele>
  <time>2026-08-28T17:55:57Z</time>
  <course>0.0</course>
  <speed>0.0</speed>
  <fix>3d</fix>
</trkpt>
<trkpt lat="40.0713749" lon="-105.229789">
  <ele>1583.0</ele>
  <time>2026-08-28T17:55:57Z</time>
  <course>247.82</course>
  <speed>0.0316227766016838</speed>
  <fix>3d</fix>
</trkpt>
<trkpt lat="40.0713749" lon="-105.229789">
  <ele>1583.0</ele>
  <time>2026-08-28T17:55:57Z</time>
  <course>0.0</course>
  <speed>0.0</speed>
  <fix>3d</fix>
</trkpt>
<trkpt lat="40.0713749" lon="-105.229789">
  <ele>1583.0</ele>
  <time>2026-08-28T17:55:57Z</time>
  <course>247.81</course>
  <speed>0.0316227766016838</speed>
  <fix>3d</fix>
</trkpt>
<trkpt lat="40.0713749" lon="-105.229789">
  <ele>1583.0</ele>
  <time>2026-08-28T17:55:57Z</time>
  <course>0.0</course>
  <speed>0.0</speed>
  <fix>3d</fix>
</trkpt>
<trkpt lat="40.0713749" lon="-105.229789">
  <ele>1583.0</ele>
  <time>2026-08-28T17:55:57Z</time>
  <course>247.81</course>
  <speed>0.0316227766016838</speed>
  <fix>3d</fix>
</trkpt>
<trkpt lat="40.0713749" lon="-105.229789">
  <ele>1583.0</ele>
  <time>2026-08-28T17:55:57Z</time>
  <course>0.0</course>
  <speed>0.0</speed>
  <fix>3d</fix>
</trkpt>
<trkpt lat="40.0713749" lon="-105.229789">
  <ele>1583.0</ele>
  <time>2026-08-28T17:55:57Z</time>
  <course>247.8</course>
  <speed>0.0316227766016838</speed>
  <fix>3d</fix>
</trkpt>
<trkpt lat="40.0713749" lon="-105.229789">
  <ele>1583.0</ele>
  <time>2026-08-28T17:55:57Z</time>
  <course>0.0</course>
  <speed>0.0</speed>
  <fix>3d</fix>
</trkpt>
<trkpt lat="40.0713749" lon="-105.229789">
  <ele>1583.0</ele>
  <time>2026-08-28T17:55:57Z</time>
  <course>247.8</course>
  <speed>0.0316227766016838</speed>
  <fix>3d</fix>
</trkpt>
<trkpt lat="40.0713749" lon="-105.229789">
  <ele>1583.0</ele>
  <time>2026-08-28T17:55:57Z</time>
  <course>0.0</course>
  <speed>0.0</speed>
  <fix>3d</fix>
</trkpt>
<trkpt lat="40.0713749" lon="-105.229789">
  <ele>1583.0</ele>
  <time>2026-08-28T17:55:57Z</time>
  <course>247.8</course>
  <speed>0.0316227766016838</speed>
  <fix>3d</fix>
</trkpt>
<trkpt lat="40.0713749" lon="-105.229789">
  <ele>1583.0</ele>
  <time>2026-08-28T17:55:57Z</time>
  <course>0.0</course>
  <speed>0.0</speed>
  <fix>3d</fix>
</trkpt>
<trkpt lat="40.0713749" lon="-105.229789">
  <ele>1583.0</ele>
  <time>2026-08-28T17:55:57Z</time>
  <course>247.79</course>
  <speed>0.0316227766016838</speed>
  <fix>3d</fix>
</trkpt>
<trkpt lat="40.0713749" lon="-105.229789">
  <ele>1583.0</ele>
  <time>2026-08-28T17:55:57Z</time>
  <course>0.0</course>
  <speed>0.0</speed>
  <fix>3d</fix>
</trkpt>
<trkpt lat="40.0713749" lon="-105.229789">
  <ele>1583.0</ele>
  <time>2026-08-28T17:55:57Z</time>
  <course>247.79</course>
  <speed>0.0316227766016838</speed>
  <fix>3d</fix>
</trkpt>
<trkpt lat="40.0713749" lon="-105.229789">
  <ele>1583.0</ele>
  <time>2026-08-28T17:55:57Z</time>
  <course>0.0</course>
  <speed>0.0</speed>
  <fix>3d</fix>
</trkpt>
<trkpt lat="40.0713749" lon="-105.229789">
  <ele>1583.0</ele>
  <time>2026-08-28T17:55:57Z</time>
  <course>247.79</course>
  <speed>0.0316227766016838</speed>
  <fix>3d</fix>
</trkpt>
<trkpt lat="40.0713749" lon="-105.229789">
  <ele>1583.0</ele>
  <time>2026-08-28T17:55:57Z</time>
  <course>0.0</course>
  <speed>0.0</speed>
  <fix>3d</fix>
</trkpt>
<trkpt lat="40.0713749" lon="-105.229789">
  <ele>1583.0</ele>
  <time>2026-08-28T17:55:57Z</time>
  <course>247.78</course>
  <speed>0.0316227766016838</speed>
  <fix>3d</fix>
</trkpt>
<trkpt lat="40.0713749" lon="-105.229789">
  <ele>1583.0</ele>
  <time>2026-08-28T17:55:57Z</time>
  <course>0.0</course>
  <speed>0.0</speed>
  <fix>3d</fix>
</trkpt>
<trkpt lat="40.0713749" lon="-105.229789">
  <ele>1583.0</ele>
  <time>2026-08-28T17:55:57Z</time>
  <course>247.78</course>
  <speed>0.0316227766016838</speed>
  <fix>3d</fix>
</trkpt>
<trkpt lat="40.0713749" lon="-105.229789">
  <ele>1583.0</ele>
  <time>2026-08-28T17:55:57Z</time>
  <course>0.0</course>
  <speed>0.0</speed>
  <fix>3d</fix>
</trkpt>
<trkpt lat="40.0713749" lon="-105.229789">
  <ele>1583.0</ele>
  <time>2026-08-28T17:55:57Z</time>
  <course>247.78</course>
  <speed>0.0316227766016838</speed>
  <fix>3d</fix>
</trkpt>
<trkpt lat="40.0713749" lon="-105.229789">
  <ele>1583.0</ele>
  <time>2026-08-28T17:55:57Z</time>
  <course>0.0</course>
  <speed>0.0</speed>
  <fix>3d</fix>
</trkpt>
<trkpt lat="40.0713749" lon="-105.229789">
  <ele>1583.0</ele>
  <time>2026-08-28T17:55:57Z</time>
  <course>247.77</course>
  <speed>0.0316227766016838</speed>
  <fix>3d</fix>
</trkpt>
<trkpt lat="40.0713749" lon="-105.229789">
  <ele>1583.0</ele>
  <time>2026-08-28T17:55:57Z</time>
  <course>0.0</course>
  <speed>0.0</speed>
  <fix>3d</fix>
</trkpt>
<trkpt lat="40.0713749" lon="-105.229789">
  <ele>1583.0</ele>
  <time>2026-08-28T17:55:57Z</time>
  <course>247.77</course>
  <speed>0.0316227766016838</speed>
  <fix>3d</fix>
</trkpt>
<trkpt lat="40.0713749" lon="-105.229789">
  <ele>1583.0</ele>
  <time>2026-08-28T17:55:57Z</time>
  <course>0.0</course>
  <speed>0.0</speed>
  <fix>3d</fix>
</trkpt>
<trkpt lat="40.0713749" lon="-105.229789">
  <ele>1583.0</ele>
  <time>2026-08-28T17:55:57Z</time>
  <course>247.76</course>
  <speed>0.0316227766016838</speed>
  <fix>3d</fix>
</trkpt>
<trkpt lat="40.0713749" lon="-105.229789">
  <ele>1583.0</ele>
  <time>2026-08-28T17:55:57Z</time>
  <course>0.0</course>
  <speed>0.0</speed>
  <fix>3d</fix>
</trkpt>
<trkpt lat="40.0713749" lon="-105.229789">
  <ele>1583.0</ele>
  <time>2026-08-28T17:55:57Z</time>
  <course>247.76</course>
  <speed>0.0316227766016838</speed>
  <fix>3d</fix>
</trkpt>
<trkpt lat="40.0713749" lon="-105.229789">
  <ele>1583.0</ele>
  <time>2026-08-28T17:55:57Z</time>
  <course>0.0</course>
  <speed>0.0</speed>
  <fix>3d</fix>
</trkpt>
<trkpt lat="40.0713749" lon="-105.229789">
  <ele>1583.0</ele>
  <time>2026-08-28T17:55:57Z</time>
  <course>247.76</course>
  <speed>0.0316227766016838</speed>
  <fix>3d</fix>
</trkpt>
<trkpt lat="40.0713749" lon="-105.229789">
  <ele>1583.0</ele>
  <time>2026-08-28T17:55:57Z</time>
  <course>0.0</course>
  <speed>0.0</speed>
  <fix>3d</fix>
</trkpt>
<trkpt lat="40.0713749" lon="-105.229789">
  <ele>1583.0</ele>
  <time>2026-08-28T17:55:57Z</time>
  <course>247.75</course>
  <speed>0.0316227766016838</speed>
  <fix>3d</fix>
</trkpt>
<trkpt lat="40.0713749" lon="-105.229789">
  <ele>1583.0</ele>
  <time>2026-08-28T17:55:57Z</time>
  <course>0.0</course>
  <speed>0.0</speed>
  <fix>3d</fix>
</trkpt>
<trkpt lat="40.0713749" lon="-105.229789">
  <ele>1583.0</ele>
  <time>2026-08-28T17:55:57Z</time>
  <course>247.75</course>
  <speed>0.0316227766016838</speed>
  <fix>3d</fix>
</trkpt>
<trkpt lat="40.0713749" lon="-105.229789">
  <ele>1583.0</ele>
  <time>2026-08-28T17:55:57Z</time>
  <course>0.0</course>
  <speed>0.0</speed>
  <fix>3d</fix>
</trkpt>
<trkpt lat="40.0713749" lon="-105.229789">
  <ele>1583.0</ele>
  <time>2026-08-28T17:55:57Z</time>
  <course>247.75</course>
  <speed>0.0316227766016838</speed>
  <fix>3d</fix>
</trkpt>
<trkpt lat="40.0713749" lon="-105.229789">
  <ele>1583.0</ele>
  <time>2026-08-28T17:55:57Z</time>
  <course>0.0</course>
  <speed>0.0</speed>
  <fix>3d</fix>
</trkpt>
<trkpt lat="40.0713749" lon="-105.229789">
  <ele>1583.0</ele>
  <time>2026-08-28T17:55:57Z</time>
  <course>247.74</course>
  <speed>0.0316227766016838</speed>
  <fix>3d</fix>
</trkpt>
<trkpt lat="40.0713749" lon="-105.229789">
  <ele>1583.0</ele>
  <time>2026-08-28T17:55:57Z</time>
  <course>0.0</course>
  <speed>0.0</speed>
  <fix>3d</fix>
</trkpt>
<trkpt lat="40.0713749" lon="-105.229789">
  <ele>1583.0</ele>
  <time>2026-08-28T17:55:57Z</time>
  <course>247.74</course>
  <speed>0.0316227766016838</speed>
  <fix>3d</fix>
</trkpt>
<trkpt lat="40.0713749" lon="-105.229789">
  <ele>1583.0</ele>
  <time>2026-08-28T17:55:57Z</time>
  <course>0.0</course>
  <speed>0.0</speed>
  <fix>3d</fix>
</trkpt>
<trkpt lat="40.0713749" lon="-105.229789">
  <ele>1583.0</ele>
  <time>2026-08-28T17:55:57Z</time>
  <course>247.74</course>
  <speed>0.0316227766016838</speed>
  <fix>3d</fix>
</trkpt>
<trkpt lat="40.0713749" lon="-105.229789">
  <ele>1583.0</ele>
  <time>2026-08-28T17:55:57Z</time>
  <course>0.0</course>
  <speed>0.0</speed>
  <fix>3d</fix>
</trkpt>
<trkpt lat="40.0713749" lon="-105.229789">
  <ele>1583.0</ele>
  <time>2026-08-28T17:55:57Z</time>
  <course>247.73</course>
  <speed>0.0316227766016838</speed>
  <fix>3d</fix>
</trkpt>
<trkpt lat="40.0713749" lon="-105.229789">
  <ele>1583.0</ele>
  <time>2026-08-28T17:55:57Z</time>
  <course>0.0</course>
  <speed>0.0</speed>
  <fix>3d</fix>
</trkpt>
<trkpt lat="40.0713749" lon="-105.229789">
  <ele>1583.0</ele>
  <time>2026-08-28T17:55:57Z</time>
  <course>247.73</course>
  <speed>0.0316227766016838</speed>
  <fix>3d</fix>
</trkpt>
<trkpt lat="40.0713749" lon="-105.229789">
  <ele>1583.0</ele>
  <time>2026-08-28T17:55:57Z</time>
  <course>0.0</course>
  <speed>0.0</speed>
  <fix>3d</fix>
</trkpt>
<trkpt lat="40.0713749" lon="-105.229789">
  <ele>1583.0</ele>
  <time>2026-08-28T17:55:57Z</time>
  <course>247.73</course>
  <speed>0.0316227766016838</speed>
  <fix>3d</fix>
</trkpt>
<trkpt lat="40.0713749" lon="-105.229789">
  <ele>1583.0</ele>
  <time>2026-08-28T17:55:57Z</time>
  <course>0.0</course>
  <speed>0.0</speed>
  <fix>3d</fix>
</trkpt>
<trkpt lat="40.0713749" lon="-105.229789">
  <ele>1583.0</ele>
  <time>2026-08-28T17:55:57Z</time>
  <course>247.72</course>
  <speed>0.0316227766016838</speed>
  <fix>3d</fix>
</trkpt>
<trkpt lat="40.0713749" lon="-105.229789">
  <ele>1583.0</ele>
  <time>2026-08-28T17:55:57Z</time>
  <course>0.0</course>
  <speed>0.0</speed>
  <fix>3d</fix>
</trkpt>
<trkpt lat="40.0713749" lon="-105.229789">
  <ele>1583.0</ele>
  <time>2026-08-28T17:55:57Z</time>
  <course>247.72</course>
  <speed>0.0316227766016838</speed>
  <fix>3d</fix>
</trkpt>
<trkpt lat="40.0713749" lon="-105.229789">
  <ele>1583.0</ele>
  <time>2026-08-28T17:55:57Z</time>
  <course>0.0</course>
  <speed>0.0</speed>
  <fix>3d</fix>
</trkpt>
<trkpt lat="40.0713749" lon="-105.229789">
  <ele>1583.0</ele>
  <time>2026-08-28T17:55:57Z</time>
  <course>247.72</course>
  <speed>0.0316227766016838</speed>
  <fix>3d</fix>
</trkpt>
<trkpt lat="40.0713749" lon="-105.229789">
  <ele>1583.0</ele>
  <time>2026-08-28T17:55:57Z</time>
  <course>0.0</course>
  <speed>0.0</speed>
  <fix>3d</fix>
</trkpt>
<trkpt lat="40.0713749" lon="-105.229789">
  <ele>1583.0</ele>
  <time>2026-08-28T17:55:57Z</time>
  <course>247.71</course>
  <speed>0.0316227766016838</speed>
  <fix>3d</fix>
</trkpt>
<trkpt lat="40.0713749" lon="-105.229789">
  <ele>1583.0</ele>
  <time>2026-08-28T17:55:57Z</time>
  <course>0.0</course>
  <speed>0.0</speed>
  <fix>3d</fix>
</trkpt>
<trkpt lat="40.0713749" lon="-105.229789">
  <ele>1583.0</ele>
  <time>2026-08-28T17:55:57Z</time>
  <course>247.71</course>
  <speed>0.0316227766016838</speed>
  <fix>3d</fix>
</trkpt>
<trkpt lat="40.0713749" lon="-105.229789">
  <ele>1583.0</ele>
  <time>2026-08-28T17:55:57Z</time>
  <course>0.0</course>
  <speed>0.0</speed>
  <fix>3d</fix>
</trkpt>
<trkpt lat="40.0713749" lon="-105.229789">
  <ele>1583.0</ele>
  <time>2026-08-28T17:55:57Z</time>
  <course>247.71</course>
  <speed>0.0316227766016838</speed>
  <fix>3d</fix>
</trkpt>
<trkpt lat="40.0713749" lon="-105.229789">
  <ele>1583.0</ele>
  <time>2026-08-28T17:55:57Z</time>
  <course>0.0</course>
  <speed>0.0</speed>
  <fix>3d</fix>
</trkpt>
<trkpt lat="40.0713749" lon="-105.229789">
  <ele>1583.0</ele>
  <time>2026-08-28T17:55:57Z</time>
  <course>247.7</course>
  <speed>0.0316227766016838</speed>
  <fix>3d</fix>
</trkpt>
<trkpt lat="40.0713749" lon="-105.229789">
  <ele>1583.0</ele>
  <time>2026-08-28T17:55:57Z</time>
  <course>0.0</course>
  <speed>0.0</speed>
  <fix>3d</fix>
</trkpt>
<trkpt lat="40.0713749" lon="-105.229789">
  <ele>1583.0</ele>
  <time>2026-08-28T17:55:57Z</time>
  <course>247.7</course>
  <speed>0.0316227766016838</speed>
  <fix>3d</fix>
</trkpt>
<trkpt lat="40.0713749" lon="-105.229789">
  <ele>1583.0</ele>
  <time>2026-08-28T17:55:57Z</time>
  <course>0.0</course>
  <speed>0.0</speed>
  <fix>3d</fix>
</trkpt>
<trkpt lat="40.0713749" lon="-105.229789">
  <ele>1583.0</ele>
  <time>2026-08-28T17:55:57Z</time>
  <course>247.7</course>
  <speed>0.0316227766016838</speed>
  <fix>3d</fix>
</trkpt>
<trkpt lat="40.0713749" lon="-105.229789">
  <ele>1583.0</ele>
  <time>2026-08-28T17:55:57Z</time>
  <course>0.0</course>
  <speed>0.0</speed>
  <fix>3d</fix>
</trkpt>
<trkpt lat="40.0713749" lon="-105.229789">
  <ele>1583.0</ele>
  <time>2026-08-28T17:55:57Z</time>
  <course>247.69</course>
  <speed>0.0316227766016838</speed>
  <fix>3d</fix>
</trkpt>
<trkpt lat="40.0713749" lon="-105.229789">
  <ele>1583.0</ele>
  <time>2026-08-28T17:55:57Z</time>
  <course>0.0</course>
  <speed>0.0</speed>
  <fix>3d</fix>
</trkpt>
<trkpt lat="40.0713749" lon="-105.229789">
  <ele>1583.0</ele>
  <time>2026-08-28T17:55:57Z</time>
  <course>247.69</course>
  <speed>0.0316227766016838</speed>
  <fix>3d</fix>
</trkpt>
<trkpt lat="40.0713749" lon="-105.229789">
  <ele>1583.0</ele>
  <time>2026-08-28T17:55:57Z</time>
  <course>0.0</course>
  <speed>0.0</speed>
  <fix>3d</fix>
</trkpt>
<trkpt lat="40.0713749" lon="-105.229789">
  <ele>1583.0</ele>
  <time>2026-08-28T17:55:57Z</time>
  <course>247.69</course>
  <speed>0.0316227766016838</speed>
  <fix>3d</fix>
</trkpt>
<trkpt lat="40.0713749" lon="-105.229789">
  <ele>1583.0</ele>
  <time>2026-08-28T17:55:57Z</time>
  <course>0.0</course>
  <speed>0.0</speed>
  <fix>3d</fix>
</trkpt>
<trkpt lat="40.0713749" lon="-105.229789">
  <ele>1583.0</ele>
  <time>2026-08-28T17:55:57Z</time>
  <course>247.68</course>
  <speed>0.0316227766016838</speed>
  <fix>3d</fix>
</trkpt>
<trkpt lat="40.0713749" lon="-105.229789">
  <ele>1583.0</ele>
  <time>2026-08-28T17:55:57Z</time>
  <course>0.0</course>
  <speed>0.0</speed>
  <fix>3d</fix>
</trkpt>
<trkpt lat="40.0713749" lon="-105.229789">
  <ele>1583.0</ele>
  <time>2026-08-28T17:55:57Z</time>
  <course>247.68</course>
  <speed>0.0316227766016838</speed>
  <fix>3d</fix>
</trkpt>
<trkpt lat="40.0713749" lon="-105.229789">
  <ele>1583.0</ele>
  <time>2026-08-28T17:55:57Z</time>
  <course>0.0</course>
  <speed>0.0</speed>
  <fix>3d</fix>
</trkpt>
<trkpt lat="40.0713749" lon="-105.229789">
  <ele>1583.0</ele>
  <time>2026-08-28T17:55:57Z</time>
  <course>247.68</course>
  <speed>0.0316227766016838</speed>
  <fix>3d</fix>
</trkpt>
<trkpt lat="40.0713749" lon="-105.229789">
  <ele>1583.0</ele>
  <time>2026-08-28T17:55:57Z</time>
  <course>0.0</course>
  <speed>0.0</speed>
  <fix>3d</fix>
</trkpt>
<trkpt lat="40.0713749" lon="-105.229789">
  <ele>1583.0</ele>
  <time>2026-08-28T17:55:57Z</time>
  <course>247.67</course>
  <speed>0.0316227766016838</speed>
  <fix>3d</fix>
</trkpt>
<trkpt lat="40.0713749" lon="-105.229789">
  <ele>1583.0</ele>
  <time>2026-08-28T17:55:57Z</time>
  <course>0.0</course>
  <speed>0.0</speed>
  <fix>3d</fix>
</trkpt>
<trkpt lat="40.0713749" lon="-105.229789">
  <ele>1583.0</ele>
  <time>2026-08-28T17:55:57Z</time>
  <course>247.67</course>
  <speed>0.0316227766016838</speed>
  <fix>3d</fix>
</trkpt>
<trkpt lat="40.0713749" lon="-105.229789">
  <ele>1583.0</ele>
  <time>2026-08-28T17:55:57Z</time>
  <course>0.0</course>
  <speed>0.0</speed>
  <fix>3d</fix>
</trkpt>
<trkpt lat="40.0713749" lon="-105.229789">
  <ele>1583.0</ele>
  <time>2026-08-28T17:55:57Z</time>
  <course>247.67</course>
  <speed>0.0316227766016838</speed>
  <fix>3d</fix>
</trkpt>
<trkpt lat="40.0713749" lon="-105.229789">
  <ele>1583.0</ele>
  <time>2026-08-28T17:55:57Z</time>
  <course>0.0</course>
  <speed>0.0</speed>
  <fix>3d</fix>
</trkpt>
<trkpt lat="40.0713749" lon="-105.229789">
  <ele>1583.0</ele>
  <time>2026-08-28T17:55:57Z</time>
  <course>247.66</course>
  <speed>0.0316227766016838</speed>
  <fix>3d</fix>
</trkpt>
<trkpt lat="40.0713749" lon="-105.229789">
  <ele>1583.0</ele>
  <time>2026-08-28T17:55:57Z</time>
  <course>0.0</course>
  <speed>0.0</speed>
  <fix>3d</fix>
</trkpt>
<trkpt lat="40.0713749" lon="-105.229789">
  <ele>1583.0</ele>
  <time>2026-08-28T17:55:57Z</time>
  <course>247.66</course>
  <speed>0.0316227766016838</speed>
  <fix>3d</fix>
</trkpt>
<trkpt lat="40.0713749" lon="-105.229789">
  <ele>1583.0</ele>
  <time>2026-08-28T17:55:57Z</time>
  <course>0.0</course>
  <speed>0.0</speed>
  <fix>3d</fix>
</trkpt>
<trkpt lat="40.0713749" lon="-105.229789">
  <ele>1583.0</ele>
  <time>2026-08-28T17:55:57Z</time>
  <course>247.66</course>
  <speed>0.0316227766016838</speed>
  <fix>3d</fix>
</trkpt>
<trkpt lat="40.0713749" lon="-105.229789">
  <ele>1583.0</ele>
  <time>2026-08-28T17:55:57Z</time>
  <course>0.0</course>
  <speed>0.0</speed>
  <fix>3d</fix>
</trkpt>
<trkpt lat="40.0713749" lon="-105.229789">
  <ele>1583.0</ele>
  <time>2026-08-28T17:55:57Z</time>
  <course>247.65</course>
  <speed>0.0316227766016838</speed>
  <fix>3d</fix>
</trkpt>
<trkpt lat="40.0713749" lon="-105.229789">
  <ele>1583.0</ele>
  <time>2026-08-28T17:55:57Z</time>
  <course>0.0</course>
  <speed>0.0</speed>
  <fix>3d</fix>
</trkpt>
<trkpt lat="40.0713749" lon="-105.229789">
  <ele>1583.0</ele>
  <time>2026-08-28T17:55:57Z</time>
  <course>247.65</course>
  <speed>0.0316227766016838</speed>
  <fix>3d</fix>
</trkpt>
<trkpt lat="40.0713749" lon="-105.229789">
  <ele>1583.0</ele>
  <time>2026-08-28T17:55:57Z</time>
  <course>0.0</course>
  <speed>0.0</speed>
  <fix>3d</fix>
</trkpt>
<trkpt lat="40.0713749" lon="-105.229789">
  <ele>1583.0</ele>
  <time>2026-08-28T17:55:57Z</time>
  <course>247.65</course>
  <speed>0.0316227766016838</speed>
  <fix>3d</fix>
</trkpt>
<trkpt lat="40.0713749" lon="-105.229789">
  <ele>1583.0</ele>
  <time>2026-08-28T17:55:57Z</time>
  <course>0.0</course>
  <speed>0.0</speed>
  <fix>3d</fix>
</trkpt>
<trkpt lat="40.0713749" lon="-105.229789">
  <ele>1583.0</ele>
  <time>2026-08-28T17:55:57Z</time>
  <course>247.64</course>
  <speed>0.0316227766016838</speed>
  <fix>3d</fix>
</trkpt>
<trkpt lat="40.0713749" lon="-105.229789">
  <ele>1583.0</ele>
  <time>2026-08-28T17:55:57Z</time>
  <course>0.0</course>
  <speed>0.0</speed>
  <fix>3d</fix>
</trkpt>
<trkpt lat="40.0713749" lon="-105.229789">
  <ele>1583.0</ele>
  <time>2026-08-28T17:55:57Z</time>
  <course>247.64</course>
  <speed>0.0316227766016838</speed>
  <fix>3d</fix>
</trkpt>
<trkpt lat="40.0713749" lon="-105.229789">
  <ele>1583.0</ele>
  <time>2026-08-28T17:55:57Z</time>
  <course>0.0</course>
  <speed>0.0</speed>
  <fix>3d</fix>
</trkpt>
<trkpt lat="40.0713749" lon="-105.229789">
  <ele>1583.0</ele>
  <time>2026-08-28T17:55:57Z</time>
  <course>247.64</course>
  <speed>0.0316227766016838</speed>
  <fix>3d</fix>
</trkpt>
<trkpt lat="40.0713749" lon="-105.229789">
  <ele>1583.0</ele>
  <time>2026-08-28T17:55:57Z</time>
  <course>0.0</course>
  <speed>0.0</speed>
  <fix>3d</fix>
</trkpt>
<trkpt lat="40.0713749" lon="-105.229789">
  <ele>1583.0</ele>
  <time>2026-08-28T17:55:57Z</time>
  <course>247.64</course>
  <speed>0.0316227766016838</speed>
  <fix>3d</fix>
</trkpt>
<trkpt lat="40.0713749" lon="-105.229789">
  <ele>1583.0</ele>
  <time>2026-08-28T17:55:57Z</time>
  <course>0.0</course>
  <speed>0.0</speed>
  <fix>3d</fix>
</trkpt>
<trkpt lat="40.0713749" lon="-105.229789">
  <ele>1583.0</ele>
  <time>2026-08-28T17:55:57Z</time>
  <course>247.63</course>
  <speed>0.0316227766016838</speed>
  <fix>3d</fix>
</trkpt>
<trkpt lat="40.0713749" lon="-105.229789">
  <ele>1583.0</ele>
  <time>2026-08-28T17:55:57Z</time>
  <course>0.0</course>
  <speed>0.0</speed>
  <fix>3d</fix>
</trkpt>
<trkpt lat="40.0713749" lon="-105.229789">
  <ele>1583.0</ele>
  <time>2026-08-28T17:55:57Z</time>
  <course>247.63</course>
  <speed>0.0316227766016838</speed>
  <fix>3d</fix>
</trkpt>
<trkpt lat="40.0713749" lon="-105.229789">
  <ele>1583.0</ele>
  <time>2026-08-28T17:55:57Z</time>
  <course>0.0</course>
  <speed>0.0</speed>
  <fix>3d</fix>
</trkpt>
<trkpt lat="40.0713749" lon="-105.229789">
  <ele>1583.0</ele>
  <time>2026-08-28T17:55:57Z</time>
  <course>247.63</course>
  <speed>0.0316227766016838</speed>
  <fix>3d</fix>
</trkpt>
<trkpt lat="40.0713749" lon="-105.229789">
  <ele>1583.0</ele>
  <time>2026-08-28T17:55:57Z</time>
  <course>0.0</course>
  <speed>0.0</speed>
  <fix>3d</fix>
</trkpt>
<trkpt lat="40.0713749" lon="-105.229789">
  <ele>1583.0</ele>
  <time>2026-08-28T17:55:57Z</time>
  <course>247.62</course>
  <speed>0.0316227766016838</speed>
  <fix>3d</fix>
</trkpt>
<trkpt lat="40.0713749" lon="-105.229789">
  <ele>1583.0</ele>
  <time>2026-08-28T17:55:57Z</time>
  <course>0.0</course>
  <speed>0.0</speed>
  <fix>3d</fix>
</trkpt>
<trkpt lat="40.0713749" lon="-105.229789">
  <ele>1583.0</ele>
  <time>2026-08-28T17:55:57Z</time>
  <course>247.62</course>
  <speed>0.0316227766016838</speed>
  <fix>3d</fix>
</trkpt>
<trkpt lat="40.0713749" lon="-105.229789">
  <ele>1583.0</ele>
  <time>2026-08-28T17:55:57Z</time>
  <course>0.0</course>
  <speed>0.0</speed>
  <fix>3d</fix>
</trkpt>
<trkpt lat="40.0713749" lon="-105.229789">
  <ele>1583.0</ele>
  <time>2026-08-28T17:55:57Z</time>
  <course>247.62</course>
  <speed>0.0316227766016838</speed>
  <fix>3d</fix>
</trkpt>
<trkpt lat="40.0713749" lon="-105.229789">
  <ele>1583.0</ele>
  <time>2026-08-28T17:55:57Z</time>
  <course>0.0</course>
  <speed>0.0</speed>
  <fix>3d</fix>
</trkpt>
<trkpt lat="40.0713749" lon="-105.229789">
  <ele>1583.0</ele>
  <time>2026-08-28T17:55:57Z</time>
  <course>247.62</course>
  <speed>0.0316227766016838</speed>
  <fix>3d</fix>
</trkpt>
<trkpt lat="40.0713749" lon="-105.229789">
  <ele>1583.0</ele>
  <time>2026-08-28T17:55:57Z</time>
  <course>0.0</course>
  <speed>0.0</speed>
  <fix>3d</fix>
</trkpt>
<trkpt lat="40.0713749" lon="-105.229789">
  <ele>1583.0</ele>
  <time>2026-08-28T17:55:57Z</time>
  <course>247.61</course>
  <speed>0.0316227766016838</speed>
  <fix>3d</fix>
</trkpt>
<trkpt lat="40.0713749" lon="-105.229789">
  <ele>1583.0</ele>
  <time>2026-08-28T17:55:57Z</time>
  <course>0.0</course>
  <speed>0.0</speed>
  <fix>3d</fix>
</trkpt>
<trkpt lat="40.0713749" lon="-105.229789">
  <ele>1583.0</ele>
  <time>2026-08-28T17:55:57Z</time>
  <course>247.61</course>
  <speed>0.0316227766016838</speed>
  <fix>3d</fix>
</trkpt>
<trkpt lat="40.0713749" lon="-105.229789">
  <ele>1583.0</ele>
  <time>2026-08-28T17:55:57Z</time>
  <course>0.0</course>
  <speed>0.0</speed>
  <fix>3d</fix>
</trkpt>
<trkpt lat="40.0713749" lon="-105.229789">
  <ele>1583.0</ele>
  <time>2026-08-28T17:55:57Z</time>
  <course>247.61</course>
  <speed>0.0316227766016838</speed>
  <fix>3d</fix>
</trkpt>
<trkpt lat="40.0713749" lon="-105.229789">
  <ele>1583.0</ele>
  <time>2026-08-28T17:55:57Z</time>
  <course>0.0</course>
  <speed>0.0</speed>
  <fix>3d</fix>
</trkpt>
<trkpt lat="40.0713749" lon="-105.229789">
  <ele>1583.0</ele>
  <time>2026-08-28T17:55:57Z</time>
  <course>247.6</course>
  <speed>0.0316227766016838</speed>
  <fix>3d</fix>
</trkpt>
<trkpt lat="40.0713749" lon="-105.229789">
  <ele>1583.0</ele>
  <time>2026-08-28T17:55:57Z</time>
  <course>0.0</course>
  <speed>0.0</speed>
  <fix>3d</fix>
</trkpt>
<trkpt lat="40.0713749" lon="-105.229789">
  <ele>1583.0</ele>
  <time>2026-08-28T17:55:57Z</time>
  <course>247.6</course>
  <speed>0.0316227766016838</speed>
  <fix>3d</fix>
</trkpt>
<trkpt lat="40.0713749" lon="-105.229789">
  <ele>1583.0</ele>
  <time>2026-08-28T17:55:57Z</time>
  <course>0.0</course>
  <speed>0.0</speed>
  <fix>3d</fix>
</trkpt>
<trkpt lat="40.0713749" lon="-105.229789">
  <ele>1583.0</ele>
  <time>2026-08-28T17:55:57Z</time>
  <course>247.6</course>
  <speed>0.0316227766016838</speed>
  <fix>3d</fix>
</trkpt>
<trkpt lat="40.0713749" lon="-105.229789">
  <ele>1583.0</ele>
  <time>2026-08-28T17:55:57Z</time>
  <course>0.0</course>
  <speed>0.0</speed>
  <fix>3d</fix>
</trkpt>
<trkpt lat="40.0713749" lon="-105.229789">
  <ele>1583.0</ele>
  <time>2026-08-28T17:55:57Z</time>
  <course>247.6</course>
  <speed>0.0316227766016838</speed>
  <fix>3d</fix>
</trkpt>
<trkpt lat="40.0713749" lon="-105.229789">
  <ele>1583.0</ele>
  <time>2026-08-28T17:55:57Z</time>
  <course>0.0</course>
  <speed>0.0</speed>
  <fix>3d</fix>
</trkpt>
<trkpt lat="40.0713749" lon="-105.229789">
  <ele>1583.0</ele>
  <time>2026-08-28T17:55:57Z</time>
  <course>247.59</course>
  <speed>0.0316227766016838</speed>
  <fix>3d</fix>
</trkpt>
<trkpt lat="40.0713749" lon="-105.229789">
  <ele>1583.0</ele>
  <time>2026-08-28T17:55:57Z</time>
  <course>0.0</course>
  <speed>0.0</speed>
  <fix>3d</fix>
</trkpt>
<trkpt lat="40.0713749" lon="-105.229789">
  <ele>1582.92</ele>
  <time>2026-08-28T17:55:57Z</time>
  <course>247.59</course>
  <speed>0.0</speed>
  <fix>3d</fix>
</trkpt>
<trkpt lat="40.0713749" lon="-105.229789">
  <ele>1583.0</ele>
  <time>2026-08-28T17:55:57Z</time>
  <course>0.0</course>
  <speed>0.0</speed>
  <fix>3d</fix>
</trkpt>
<trkpt lat="40.0713749" lon="-105.229789">
  <ele>1582.92</ele>
  <time>2026-08-28T17:55:57Z</time>
  <course>247.59</course>
  <speed>0.0</speed>
  <fix>3d</fix>
</trkpt>
<trkpt lat="40.0713749" lon="-105.229789">
  <ele>1583.0</ele>
  <time>2026-08-28T17:55:57Z</time>
  <course>0.0</course>
  <speed>0.0</speed>
  <fix>3d</fix>
</trkpt>
<trkpt lat="40.0713749" lon="-105.229789">
  <ele>1582.91</ele>
  <time>2026-08-28T17:55:57Z</time>
  <course>247.58</course>
  <speed>0.0</speed>
  <fix>3d</fix>
</trkpt>
<trkpt lat="40.0713749" lon="-105.229789">
  <ele>1583.0</ele>
  <time>2026-08-28T17:55:57Z</time>
  <course>0.0</course>
  <speed>0.0</speed>
  <fix>3d</fix>
</trkpt>
<trkpt lat="40.0713749" lon="-105.229789">
  <ele>1582.91</ele>
  <time>2026-08-28T17:55:57Z</time>
  <course>247.58</course>
  <speed>0.0</speed>
  <fix>3d</fix>
</trkpt>
<trkpt lat="40.0713749" lon="-105.229789">
  <ele>1583.0</ele>
  <time>2026-08-28T17:55:57Z</time>
  <course>0.0</course>
  <speed>0.0</speed>
  <fix>3d</fix>
</trkpt>
<trkpt lat="40.0713749" lon="-105.229789">
  <ele>1582.9</ele>
  <time>2026-08-28T17:55:57Z</time>
  <course>247.58</course>
  <speed>0.0</speed>
  <fix>3d</fix>
</trkpt>
<trkpt lat="40.0713749" lon="-105.229789">
  <ele>1583.0</ele>
  <time>2026-08-28T17:55:57Z</time>
  <course>0.0</course>
  <speed>0.0</speed>
  <fix>3d</fix>
</trkpt>
<trkpt lat="40.0713749" lon="-105.229789">
  <ele>1582.9</ele>
  <time>2026-08-28T17:55:57Z</time>
  <course>247.58</course>
  <speed>0.0</speed>
  <fix>3d</fix>
</trkpt>
<trkpt lat="40.0713749" lon="-105.229789">
  <ele>1583.0</ele>
  <time>2026-08-28T17:55:57Z</time>
  <course>0.0</course>
  <speed>0.0</speed>
  <fix>3d</fix>
</trkpt>
<trkpt lat="40.0713749" lon="-105.229789">
  <ele>1582.9</ele>
  <time>2026-08-28T17:55:57Z</time>
  <course>247.57</course>
  <speed>0.0</speed>
  <fix>3d</fix>
</trkpt>
<trkpt lat="40.0713749" lon="-105.229789">
  <ele>1583.0</ele>
  <time>2026-08-28T17:55:57Z</time>
  <course>0.0</course>
  <speed>0.0</speed>
  <fix>3d</fix>
</trkpt>
<trkpt lat="40.0713749" lon="-105.229789">
  <ele>1582.9</ele>
  <time>2026-08-28T17:55:57Z</time>
  <course>247.57</course>
  <speed>0.0</speed>
  <fix>3d</fix>
</trkpt>
<trkpt lat="40.0713749" lon="-105.229789">
  <ele>1583.0</ele>
  <time>2026-08-28T17:55:57Z</time>
  <course>0.0</course>
  <speed>0.0</speed>
  <fix>3d</fix>
</trkpt>
<trkpt lat="40.0713749" lon="-105.229789">
  <ele>1582.9</ele>
  <time>2026-08-28T17:55:57Z</time>
  <course>247.57</course>
  <speed>0.0</speed>
  <fix>3d</fix>
</trkpt>
<trkpt lat="40.0713749" lon="-105.229789">
  <ele>1583.0</ele>
  <time>2026-08-28T17:55:57Z</time>
  <course>0.0</course>
  <speed>0.0</speed>
  <fix>3d</fix>
</trkpt>
<trkpt lat="40.0713749" lon="-105.229789">
  <ele>1582.9</ele>
  <time>2026-08-28T17:55:57Z</time>
  <course>247.57</course>
  <speed>0.01</speed>
  <fix>3d</fix>
</trkpt>
<trkpt lat="40.0713749" lon="-105.229789">
  <ele>1583.0</ele>
  <time>2026-08-28T17:55:57Z</time>
  <course>0.0</course>
  <speed>0.0</speed>
  <fix>3d</fix>
</trkpt>
<trkpt lat="40.0713749" lon="-105.229789">
  <ele>1582.9</ele>
  <time>2026-08-28T17:55:57Z</time>
  <course>247.56</course>
  <speed>0.01</speed>
  <fix>3d</fix>
</trkpt>
<trkpt lat="40.0713749" lon="-105.229789">
  <ele>1583.0</ele>
  <time>2026-08-28T17:55:57Z</time>
  <course>0.0</course>
  <speed>0.0</speed>
  <fix>3d</fix>
</trkpt>
<trkpt lat="40.0713749" lon="-105.229789">
  <ele>1582.91</ele>
  <time>2026-08-28T17:55:57Z</time>
  <course>247.56</course>
  <speed>0.01</speed>
  <fix>3d</fix>
</trkpt>
<trkpt lat="40.0713749" lon="-105.229789">
  <ele>1583.0</ele>
  <time>2026-08-28T17:55:57Z</time>
  <course>0.0</course>
  <speed>0.0</speed>
  <fix>3d</fix>
</trkpt>
<trkpt lat="40.0713749" lon="-105.229789">
  <ele>1582.91</ele>
  <time>2026-08-28T17:55:57Z</time>
  <course>247.56</course>
  <speed>0.01</speed>
  <fix>3d</fix>
</trkpt>
<trkpt lat="40.0713749" lon="-105.229789">
  <ele>1583.0</ele>
  <time>2026-08-28T17:55:57Z</time>
  <course>0.0</course>
  <speed>0.0</speed>
  <fix>3d</fix>
</trkpt>
<trkpt lat="40.0713749" lon="-105.229789">
  <ele>1582.92</ele>
  <time>2026-08-28T17:55:57Z</time>
  <course>247.56</course>
  <speed>0.01</speed>
  <fix>3d</fix>
</trkpt>
<trkpt lat="40.0713749" lon="-105.229789">
  <ele>1583.0</ele>
  <time>2026-08-28T17:55:57Z</time>
  <course>0.0</course>
  <speed>0.0</speed>
  <fix>3d</fix>
</trkpt>
<trkpt lat="40.0713749" lon="-105.229789">
  <ele>1582.92</ele>
  <time>2026-08-28T17:55:57Z</time>
  <course>247.55</course>
  <speed>0.01</speed>
  <fix>3d</fix>
</trkpt>
<trkpt lat="40.0713749" lon="-105.229789">
  <ele>1583.0</ele>
  <time>2026-08-28T17:55:57Z</time>
  <course>0.0</course>
  <speed>0.0</speed>
  <fix>3d</fix>
</trkpt>
<trkpt lat="39.655741" lon="-104.1383097">
  <ele>1566.58</ele>
  <time>2026-08-28T17:55:58Z</time>
  <course>0.0</course>
  <speed>0.0</speed>
  <fix>3d</fix>
</trkpt>
<trkpt lat="40.0713749" lon="-105.229789">
  <ele>1583.0</ele>
  <time>2026-08-28T17:55:58Z</time>
  <course>0.0</course>
  <speed>0.0</speed>
  <fix>3d</fix>
</trkpt>
<trkpt lat="40.0713749" lon="-105.229789">
  <ele>1583.0</ele>
  <time>2026-08-28T17:55:58Z</time>
  <course>238.36</course>
  <speed>0.0</speed>
  <fix>3d</fix>
</trkpt>
<trkpt lat="40.0713749" lon="-105.229789">
  <ele>1583.0</ele>
  <time>2026-08-28T17:55:58Z</time>
  <course>0.0</course>
  <speed>0.0</speed>
  <fix>3d</fix>
</trkpt>
<trkpt lat="40.0713749" lon="-105.229789">
  <ele>1583.0</ele>
  <time>2026-08-28T17:55:58Z</time>
  <course>238.44</course>
  <speed>0.0</speed>
  <fix>3d</fix>
</trkpt>
<trkpt lat="40.0713749" lon="-105.229789">
  <ele>1583.0</ele>
  <time>2026-08-28T17:55:58Z</time>
  <course>0.0</course>
  <speed>0.0</speed>
  <fix>3d</fix>
</trkpt>
<trkpt lat="40.0713749" lon="-105.229789">
  <ele>1583.0</ele>
  <time>2026-08-28T17:55:58Z</time>
  <course>238.64</course>
  <speed>0.0</speed>
  <fix>3d</fix>
</trkpt>
<trkpt lat="40.0713749" lon="-105.229789">
  <ele>1583.0</ele>
  <time>2026-08-28T17:55:58Z</time>
  <course>0.0</course>
  <speed>0.0</speed>
  <fix>3d</fix>
</trkpt>
<trkpt lat="40.0713749" lon="-105.229789">
  <ele>1583.0</ele>
  <time>2026-08-28T17:55:58Z</time>
  <course>238.93</course>
  <speed>0.0</speed>
  <fix>3d</fix>
</trkpt>
<trkpt lat="40.0713749" lon="-105.229789">
  <ele>1583.0</ele>
  <time>2026-08-28T17:55:58Z</time>
  <course>0.0</course>
  <speed>0.0</speed>
  <fix>3d</fix>
</trkpt>
<trkpt lat="40.0713749" lon="-105.229789">
  <ele>1583.0</ele>
  <time>2026-08-28T17:55:58Z</time>
  <course>239.26</course>
  <speed>0.0</speed>
  <fix>3d</fix>
</trkpt>
<trkpt lat="40.0713749" lon="-105.229789">
  <ele>1583.0</ele>
  <time>2026-08-28T17:55:58Z</time>
  <course>0.0</course>
  <speed>0.0</speed>
  <fix>3d</fix>
</trkpt>
<trkpt lat="40.0713749" lon="-105.229789">
  <ele>1583.0</ele>
  <time>2026-08-28T17:55:58Z</time>
  <course>239.61</course>
  <speed>0.0</speed>
  <fix>3d</fix>
</trkpt>
<trkpt lat="40.0713749" lon="-105.229789">
  <ele>1583.0</ele>
  <time>2026-08-28T17:55:58Z</time>
  <course>0.0</course>
  <speed>0.0</speed>
  <fix>3d</fix>
</trkpt>
<trkpt lat="40.0713749" lon="-105.229789">
  <ele>1583.0</ele>
  <time>2026-08-28T17:55:58Z</time>
  <course>239.96</course>
  <speed>0.0</speed>
  <fix>3d</fix>
</trkpt>
<trkpt lat="40.0713749" lon="-105.229789">
  <ele>1583.0</ele>
  <time>2026-08-28T17:55:58Z</time>
  <course>0.0</course>
  <speed>0.0</speed>
  <fix>3d</fix>
</trkpt>
<trkpt lat="40.0713749" lon="-105.229789">
  <ele>1583.0</ele>
  <time>2026-08-28T17:55:58Z</time>
  <course>240.29</course>
  <speed>0.0</speed>
  <fix>3d</fix>
</trkpt>
<trkpt lat="40.0713749" lon="-105.229789">
  <ele>1583.0</ele>
  <time>2026-08-28T17:55:58Z</time>
  <course>0.0</course>
  <speed>0.0</speed>
  <fix>3d</fix>
</trkpt>
<trkpt lat="40.0713749" lon="-105.229789">
  <ele>1583.0</ele>
  <time>2026-08-28T17:55:58Z</time>
  <course>240.61</course>
  <speed>0.0</speed>
  <fix>3d</fix>
</trkpt>
<trkpt lat="40.0713749" lon="-105.229789">
  <ele>1583.0</ele>
  <time>2026-08-28T17:55:58Z</time>
  <course>0.0</course>
  <speed>0.0</speed>
  <fix>3d</fix>
</trkpt>
<trkpt lat="40.0713749" lon="-105.229789">
  <ele>1583.0</ele>
  <time>2026-08-28T17:55:58Z</time>
  <course>240.92</course>
  <speed>0.0</speed>
  <fix>3d</fix>
</trkpt>
<trkpt lat="40.0713749" lon="-105.229789">
  <ele>1583.0</ele>
  <time>2026-08-28T17:55:58Z</time>
  <course>0.0</course>
  <speed>0.0</speed>
  <fix>3d</fix>
</trkpt>
<trkpt lat="40.0713749" lon="-105.229789">
  <ele>1583.0</ele>
  <time>2026-08-28T17:55:58Z</time>
  <course>241.21</course>
  <speed>0.0</speed>
  <fix>3d</fix>
</trkpt>
<trkpt lat="40.0713749" lon="-105.229789">
  <ele>1583.0</ele>
  <time>2026-08-28T17:55:58Z</time>
  <course>0.0</course>
  <speed>0.0</speed>
  <fix>3d</fix>
</trkpt>
<trkpt lat="40.0713749" lon="-105.229789">
  <ele>1583.0</ele>
  <time>2026-08-28T17:55:58Z</time>
  <course>241.49</course>
  <speed>0.0</speed>
  <fix>3d</fix>
</trkpt>
<trkpt lat="40.0713749" lon="-105.229789">
  <ele>1583.0</ele>
  <time>2026-08-28T17:55:58Z</time>
  <course>0.0</course>
  <speed>0.0</speed>
  <fix>3d</fix>
</trkpt>
<trkpt lat="40.0713749" lon="-105.229789">
  <ele>1583.0</ele>
  <time>2026-08-28T17:55:58Z</time>
  <course>241.77</course>
  <speed>0.0</speed>
  <fix>3d</fix>
</trkpt>
<trkpt lat="40.0713749" lon="-105.229789">
  <ele>1583.0</ele>
  <time>2026-08-28T17:55:58Z</time>
  <course>0.0</course>
  <speed>0.0</speed>
  <fix>3d</fix>
</trkpt>
<trkpt lat="40.0713749" lon="-105.229789">
  <ele>1583.0</ele>
  <time>2026-08-28T17:55:58Z</time>
  <course>242.03</course>
  <speed>0.0</speed>
  <fix>3d</fix>
</trkpt>
<trkpt lat="40.0713749" lon="-105.229789">
  <ele>1583.0</ele>
  <time>2026-08-28T17:55:58Z</time>
  <course>0.0</course>
  <speed>0.0</speed>
  <fix>3d</fix>
</trkpt>
<trkpt lat="40.0713749" lon="-105.229789">
  <ele>1583.0</ele>
  <time>2026-08-28T17:55:58Z</time>
  <course>242.29</course>
  <speed>0.0</speed>
  <fix>3d</fix>
</trkpt>
<trkpt lat="40.0713749" lon="-105.229789">
  <ele>1583.0</ele>
  <time>2026-08-28T17:55:58Z</time>
  <course>0.0</course>
  <speed>0.0</speed>
  <fix>3d</fix>
</trkpt>
<trkpt lat="40.0713749" lon="-105.229789">
  <ele>1583.0</ele>
  <time>2026-08-28T17:55:58Z</time>
  <course>242.54</course>
  <speed>0.0</speed>
  <fix>3d</fix>
</trkpt>
<trkpt lat="40.0713749" lon="-105.229789">
  <ele>1583.0</ele>
  <time>2026-08-28T17:55:58Z</time>
  <course>0.0</course>
  <speed>0.0</speed>
  <fix>3d</fix>
</trkpt>
<trkpt lat="40.0713749" lon="-105.229789">
  <ele>1583.0</ele>
  <time>2026-08-28T17:55:58Z</time>
  <course>242.79</course>
  <speed>0.0</speed>
  <fix>3d</fix>
</trkpt>
<trkpt lat="40.0713749" lon="-105.229789">
  <ele>1583.0</ele>
  <time>2026-08-28T17:55:58Z</time>
  <course>0.0</course>
  <speed>0.0</speed>
  <fix>3d</fix>
</trkpt>
<trkpt lat="40.0713749" lon="-105.229789">
  <ele>1583.0</ele>
  <time>2026-08-28T17:55:58Z</time>
  <course>243.02</course>
  <speed>0.0</speed>
  <fix>3d</fix>
</trkpt>
<trkpt lat="40.0713749" lon="-105.229789">
  <ele>1583.0</ele>
  <time>2026-08-28T17:55:58Z</time>
  <course>0.0</course>
  <speed>0.0</speed>
  <fix>3d</fix>
</trkpt>
<trkpt lat="40.0713749" lon="-105.229789">
  <ele>1583.0</ele>
  <time>2026-08-28T17:55:58Z</time>
  <course>243.25</course>
  <speed>0.0</speed>
  <fix>3d</fix>
</trkpt>
<trkpt lat="40.0713749" lon="-105.229789">
  <ele>1583.0</ele>
  <time>2026-08-28T17:55:58Z</time>
  <course>0.0</course>
  <speed>0.0</speed>
  <fix>3d</fix>
</trkpt>
<trkpt lat="40.0713749" lon="-105.229789">
  <ele>1583.0</ele>
  <time>2026-08-28T17:55:58Z</time>
  <course>243.47</course>
  <speed>0.0</speed>
  <fix>3d</fix>
</trkpt>
<trkpt lat="40.0713749" lon="-105.229789">
  <ele>1583.0</ele>
  <time>2026-08-28T17:55:58Z</time>
  <course>0.0</course>
  <speed>0.0</speed>
  <fix>3d</fix>
</trkpt>
<trkpt lat="40.0713749" lon="-105.229789">
  <ele>1583.0</ele>
  <time>2026-08-28T17:55:58Z</time>
  <course>243.68</course>
  <speed>0.0</speed>
  <fix>3d</fix>
</trkpt>
<trkpt lat="40.0713749" lon="-105.229789">
  <ele>1583.0</ele>
  <time>2026-08-28T17:55:58Z</time>
  <course>0.0</course>
  <speed>0.0</speed>
  <fix>3d</fix>
</trkpt>
<trkpt lat="40.0713749" lon="-105.229789">
  <ele>1583.0</ele>
  <time>2026-08-28T17:55:58Z</time>
  <course>243.89</course>
  <speed>0.0</speed>
  <fix>3d</fix>
</trkpt>
<trkpt lat="40.0713749" lon="-105.229789">
  <ele>1583.0</ele>
  <time>2026-08-28T17:55:58Z</time>
  <course>0.0</course>
  <speed>0.0</speed>
  <fix>3d</fix>
</trkpt>
<trkpt lat="40.0713749" lon="-105.229789">
  <ele>1583.0</ele>
  <time>2026-08-28T17:55:58Z</time>
  <course>244.09</course>
  <speed>0.0</speed>
  <fix>3d</fix>
</trkpt>
<trkpt lat="40.0713749" lon="-105.229789">
  <ele>1583.0</ele>
  <time>2026-08-28T17:55:58Z</time>
  <course>0.0</course>
  <speed>0.0</speed>
  <fix>3d</fix>
</trkpt>
<trkpt lat="40.0713749" lon="-105.229789">
  <ele>1583.0</ele>
  <time>2026-08-28T17:55:58Z</time>
  <course>244.28</course>
  <speed>0.0</speed>
  <fix>3d</fix>
</trkpt>
<trkpt lat="40.0713749" lon="-105.229789">
  <ele>1583.0</ele>
  <time>2026-08-28T17:55:58Z</time>
  <course>0.0</course>
  <speed>0.0</speed>
  <fix>3d</fix>
</trkpt>
<trkpt lat="40.0713749" lon="-105.229789">
  <ele>1583.0</ele>
  <time>2026-08-28T17:55:58Z</time>
  <course>244.46</course>
  <speed>0.0</speed>
  <fix>3d</fix>
</trkpt>
<trkpt lat="40.0713749" lon="-105.229789">
  <ele>1583.0</ele>
  <time>2026-08-28T17:55:58Z</time>
  <course>0.0</course>
  <speed>0.0</speed>
  <fix>3d</fix>
</trkpt>
<trkpt lat="40.0713749" lon="-105.229789">
  <ele>1583.0</ele>
  <time>2026-08-28T17:55:58Z</time>
  <course>244.64</course>
  <speed>0.0</speed>
  <fix>3d</fix>
</trkpt>
<trkpt lat="40.0713749" lon="-105.229789">
  <ele>1583.0</ele>
  <time>2026-08-28T17:55:58Z</time>
  <course>0.0</course>
  <speed>0.0</speed>
  <fix>3d</fix>
</trkpt>
<trkpt lat="40.0713749" lon="-105.229789">
  <ele>1583.0</ele>
  <time>2026-08-28T17:55:58Z</time>
  <course>244.81</course>
  <speed>0.0</speed>
  <fix>3d</fix>
</trkpt>
<trkpt lat="40.0713749" lon="-105.229789">
  <ele>1583.0</ele>
  <time>2026-08-28T17:55:58Z</time>
  <course>0.0</course>
  <speed>0.0</speed>
  <fix>3d</fix>
</trkpt>
<trkpt lat="40.0713749" lon="-105.229789">
  <ele>1583.0</ele>
  <time>2026-08-28T17:55:58Z</time>
  <course>244.97</course>
  <speed>0.0</speed>
  <fix>3d</fix>
</trkpt>
<trkpt lat="40.0713749" lon="-105.229789">
  <ele>1583.0</ele>
  <time>2026-08-28T17:55:58Z</time>
  <course>0.0</course>
  <speed>0.0</speed>
  <fix>3d</fix>
</trkpt>
<trkpt lat="40.0713749" lon="-105.229789">
  <ele>1583.0</ele>
  <time>2026-08-28T17:55:58Z</time>
  <course>245.13</course>
  <speed>0.0</speed>
  <fix>3d</fix>
</trkpt>
<trkpt lat="40.0713749" lon="-105.229789">
  <ele>1583.0</ele>
  <time>2026-08-28T17:55:58Z</time>
  <course>0.0</course>
  <speed>0.0</speed>
  <fix>3d</fix>
</trkpt>
<trkpt lat="40.0713749" lon="-105.229789">
  <ele>1583.0</ele>
  <time>2026-08-28T17:55:58Z</time>
  <course>245.29</course>
  <speed>0.0</speed>
  <fix>3d</fix>
</trkpt>
<trkpt lat="40.0713749" lon="-105.229789">
  <ele>1583.0</ele>
  <time>2026-08-28T17:55:58Z</time>
  <course>0.0</course>
  <speed>0.0</speed>
  <fix>3d</fix>
</trkpt>
<trkpt lat="40.0713749" lon="-105.229789">
  <ele>1583.0</ele>
  <time>2026-08-28T17:55:58Z</time>
  <course>245.43</course>
  <speed>0.0</speed>
  <fix>3d</fix>
</trkpt>
<trkpt lat="40.0713749" lon="-105.229789">
  <ele>1583.0</ele>
  <time>2026-08-28T17:55:58Z</time>
  <course>0.0</course>
  <speed>0.0</speed>
  <fix>3d</fix>
</trkpt>
<trkpt lat="40.0713749" lon="-105.229789">
  <ele>1583.0</ele>
  <time>2026-08-28T17:55:58Z</time>
  <course>245.57</course>
  <speed>0.0</speed>
  <fix>3d</fix>
</trkpt>
<trkpt lat="40.0713749" lon="-105.229789">
  <ele>1583.0</ele>
  <time>2026-08-28T17:55:58Z</time>
  <course>0.0</course>
  <speed>0.0</speed>
  <fix>3d</fix>
</trkpt>
<trkpt lat="40.0713749" lon="-105.229789">
  <ele>1583.0</ele>
  <time>2026-08-28T17:55:58Z</time>
  <course>245.71</course>
  <speed>0.0</speed>
  <fix>3d</fix>
</trkpt>
<trkpt lat="40.0713749" lon="-105.229789">
  <ele>1583.0</ele>
  <time>2026-08-28T17:55:58Z</time>
  <course>0.0</course>
  <speed>0.0</speed>
  <fix>3d</fix>
</trkpt>
<trkpt lat="40.0713749" lon="-105.229789">
  <ele>1583.0</ele>
  <time>2026-08-28T17:55:58Z</time>
  <course>245.84</course>
  <speed>0.0</speed>
  <fix>3d</fix>
</trkpt>
<trkpt lat="40.0713749" lon="-105.229789">
  <ele>1583.0</ele>
  <time>2026-08-28T17:55:58Z</time>
  <course>0.0</course>
  <speed>0.0</speed>
  <fix>3d</fix>
</trkpt>
<trkpt lat="40.0713749" lon="-105.229789">
  <ele>1583.0</ele>
  <time>2026-08-28T17:55:58Z</time>
  <course>245.96</course>
  <speed>0.0</speed>
  <fix>3d</fix>
</trkpt>
<trkpt lat="40.0713749" lon="-105.229789">
  <ele>1583.0</ele>
  <time>2026-08-28T17:55:58Z</time>
  <course>0.0</course>
  <speed>0.0</speed>
  <fix>3d</fix>
</trkpt>
<trkpt lat="40.0713749" lon="-105.229789">
  <ele>1583.0</ele>
  <time>2026-08-28T17:55:58Z</time>
  <course>246.08</course>
  <speed>0.0</speed>
  <fix>3d</fix>
</trkpt>
<trkpt lat="40.0713749" lon="-105.229789">
  <ele>1583.0</ele>
  <time>2026-08-28T17:55:58Z</time>
  <course>0.0</course>
  <speed>0.0</speed>
  <fix>3d</fix>
</trkpt>
<trkpt lat="40.0713749" lon="-105.229789">
  <ele>1583.0</ele>
  <time>2026-08-28T17:55:58Z</time>
  <course>246.19</course>
  <speed>0.0</speed>
  <fix>3d</fix>
</trkpt>
<trkpt lat="40.0713749" lon="-105.229789">
  <ele>1583.0</ele>
  <time>2026-08-28T17:55:58Z</time>
  <course>0.0</course>
  <speed>0.0</speed>
  <fix>3d</fix>
</trkpt>
<trkpt lat="40.0713749" lon="-105.229789">
  <ele>1583.0</ele>
  <time>2026-08-28T17:55:58Z</time>
  <course>246.3</course>
  <speed>0.0</speed>
  <fix>3d</fix>
</trkpt>
<trkpt lat="40.0713749" lon="-105.229789">
  <ele>1583.0</ele>
  <time>2026-08-28T17:55:58Z</time>
  <course>0.0</course>
  <speed>0.0</speed>
  <fix>3d</fix>
</trkpt>
<trkpt lat="40.0713749" lon="-105.229789">
  <ele>1583.0</ele>
  <time>2026-08-28T17:55:58Z</time>
  <course>246.41</course>
  <speed>0.0</speed>
  <fix>3d</fix>
</trkpt>
<trkpt lat="40.0713749" lon="-105.229789">
  <ele>1583.0</ele>
  <time>2026-08-28T17:55:58Z</time>
  <course>0.0</course>
  <speed>0.0</speed>
  <fix>3d</fix>
</trkpt>
<trkpt lat="40.0713749" lon="-105.229789">
  <ele>1583.0</ele>
  <time>2026-08-28T17:55:58Z</time>
  <course>246.51</course>
  <speed>0.0</speed>
  <fix>3d</fix>
</trkpt>
<trkpt lat="40.0713749" lon="-105.229789">
  <ele>1583.0</ele>
  <time>2026-08-28T17:55:58Z</time>
  <course>0.0</course>
  <speed>0.0</speed>
  <fix>3d</fix>
</trkpt>
<trkpt lat="40.0713749" lon="-105.229789">
  <ele>1583.0</ele>
  <time>2026-08-28T17:55:58Z</time>
  <course>246.6</course>
  <speed>0.0</speed>
  <fix>3d</fix>
</trkpt>
<trkpt lat="40.0713749" lon="-105.229789">
  <ele>1583.0</ele>
  <time>2026-08-28T17:55:58Z</time>
  <course>0.0</course>
  <speed>0.0</speed>
  <fix>3d</fix>
</trkpt>
<trkpt lat="40.0713749" lon="-105.229789">
  <ele>1583.0</ele>
  <time>2026-08-28T17:55:58Z</time>
  <course>246.7</course>
  <speed>0.0</speed>
  <fix>3d</fix>
</trkpt>
<trkpt lat="40.0713749" lon="-105.229789">
  <ele>1583.0</ele>
  <time>2026-08-28T17:55:58Z</time>
  <course>0.0</course>
  <speed>0.0</speed>
  <fix>3d</fix>
</trkpt>
<trkpt lat="40.0713749" lon="-105.229789">
  <ele>1583.0</ele>
  <time>2026-08-28T17:55:58Z</time>
  <course>246.78</course>
  <speed>0.0</speed>
  <fix>3d</fix>
</trkpt>
<trkpt lat="40.0713749" lon="-105.229789">
  <ele>1583.0</ele>
  <time>2026-08-28T17:55:58Z</time>
  <course>0.0</course>
  <speed>0.0</speed>
  <fix>3d</fix>
</trkpt>
<trkpt lat="40.0713749" lon="-105.229789">
  <ele>1583.0</ele>
  <time>2026-08-28T17:55:58Z</time>
  <course>246.87</course>
  <speed>0.0</speed>
  <fix>3d</fix>
</trkpt>
<trkpt lat="40.0713749" lon="-105.229789">
  <ele>1583.0</ele>
  <time>2026-08-28T17:55:58Z</time>
  <course>0.0</course>
  <speed>0.0</speed>
  <fix>3d</fix>
</trkpt>
<trkpt lat="40.0713749" lon="-105.229789">
  <ele>1583.0</ele>
  <time>2026-08-28T17:55:58Z</time>
  <course>246.95</course>
  <speed>0.0</speed>
  <fix>3d</fix>
</trkpt>
<trkpt lat="40.0713749" lon="-105.229789">
  <ele>1583.0</ele>
  <time>2026-08-28T17:55:58Z</time>
  <course>0.0</course>
  <speed>0.0</speed>
  <fix>3d</fix>
</trkpt>
<trkpt lat="40.0713749" lon="-105.229789">
  <ele>1583.0</ele>
  <time>2026-08-28T17:55:58Z</time>
  <course>247.02</course>
  <speed>0.0</speed>
  <fix>3d</fix>
</trkpt>
<trkpt lat="40.0713749" lon="-105.229789">
  <ele>1583.0</ele>
  <time>2026-08-28T17:55:58Z</time>
  <course>0.0</course>
  <speed>0.0</speed>
  <fix>3d</fix>
</trkpt>
<trkpt lat="40.0713749" lon="-105.229789">
  <ele>1583.0</ele>
  <time>2026-08-28T17:55:58Z</time>
  <course>247.1</course>
  <speed>0.0</speed>
  <fix>3d</fix>
</trkpt>
<trkpt lat="40.0713749" lon="-105.229789">
  <ele>1583.0</ele>
  <time>2026-08-28T17:55:58Z</time>
  <course>0.0</course>
  <speed>0.0</speed>
  <fix>3d</fix>
</trkpt>
<trkpt lat="40.0713749" lon="-105.229789">
  <ele>1583.0</ele>
  <time>2026-08-28T17:55:58Z</time>
  <course>247.17</course>
  <speed>0.0</speed>
  <fix>3d</fix>
</trkpt>
<trkpt lat="40.0713749" lon="-105.229789">
  <ele>1583.0</ele>
  <time>2026-08-28T17:55:58Z</time>
  <course>0.0</course>
  <speed>0.0</speed>
  <fix>3d</fix>
</trkpt>
<trkpt lat="40.0713749" lon="-105.229789">
  <ele>1583.0</ele>
  <time>2026-08-28T17:55:58Z</time>
  <course>247.24</course>
  <speed>0.0</speed>
  <fix>3d</fix>
</trkpt>
<trkpt lat="40.0713749" lon="-105.229789">
  <ele>1583.0</ele>
  <time>2026-08-28T17:55:58Z</time>
  <course>0.0</course>
  <speed>0.0</speed>
  <fix>3d</fix>
</trkpt>
<trkpt lat="40.0713749" lon="-105.229789">
  <ele>1583.0</ele>
  <time>2026-08-28T17:55:58Z</time>
  <course>247.3</course>
  <speed>0.0</speed>
  <fix>3d</fix>
</trkpt>
<trkpt lat="40.0713749" lon="-105.229789">
  <ele>1583.0</ele>
  <time>2026-08-28T17:55:58Z</time>
  <course>0.0</course>
  <speed>0.0</speed>
  <fix>3d</fix>
</trkpt>
<trkpt lat="40.0713749" lon="-105.229789">
  <ele>1583.0</ele>
  <time>2026-08-28T17:55:58Z</time>
  <course>247.36</course>
  <speed>0.0</speed>
  <fix>3d</fix>
</trkpt>
<trkpt lat="40.0713749" lon="-105.229789">
  <ele>1583.0</ele>
  <time>2026-08-28T17:55:58Z</time>
  <course>0.0</course>
  <speed>0.0</speed>
  <fix>3d</fix>
</trkpt>
<trkpt lat="40.0713749" lon="-105.229789">
  <ele>1583.0</ele>
  <time>2026-08-28T17:55:58Z</time>
  <course>247.42</course>
  <speed>0.0</speed>
  <fix>3d</fix>
</trkpt>
<trkpt lat="40.0713749" lon="-105.229789">
  <ele>1583.0</ele>
  <time>2026-08-28T17:55:58Z</time>
  <course>0.0</course>
  <speed>0.0</speed>
  <fix>3d</fix>
</trkpt>
<trkpt lat="40.0713749" lon="-105.229789">
  <ele>1583.0</ele>
  <time>2026-08-28T17:55:58Z</time>
  <course>247.47</course>
  <speed>0.0</speed>
  <fix>3d</fix>
</trkpt>
<trkpt lat="40.0713749" lon="-105.229789">
  <ele>1583.0</ele>
  <time>2026-08-28T17:55:58Z</time>
  <course>0.0</course>
  <speed>0.0</speed>
  <fix>3d</fix>
</trkpt>
<trkpt lat="40.0713749" lon="-105.229789">
  <ele>1583.0</ele>
  <time>2026-08-28T17:55:58Z</time>
  <course>247.53</course>
  <speed>0.0</speed>
  <fix>3d</fix>
</trkpt>
<trkpt lat="40.0713749" lon="-105.229789">
  <ele>1583.0</ele>
  <time>2026-08-28T17:55:58Z</time>
  <course>0.0</course>
  <speed>0.0</speed>
  <fix>3d</fix>
</trkpt>
<trkpt lat="40.0713749" lon="-105.229789">
  <ele>1583.0</ele>
  <time>2026-08-28T17:55:58Z</time>
  <course>247.58</course>
  <speed>0.0</speed>
  <fix>3d</fix>
</trkpt>
<trkpt lat="40.0713749" lon="-105.229789">
  <ele>1583.0</ele>
  <time>2026-08-28T17:55:58Z</time>
  <course>0.0</course>
  <speed>0.0</speed>
  <fix>3d</fix>
</trkpt>
<trkpt lat="40.0713749" lon="-105.229789">
  <ele>1583.0</ele>
  <time>2026-08-28T17:55:58Z</time>
  <course>247.63</course>
  <speed>0.0</speed>
  <fix>3d</fix>
</trkpt>
<trkpt lat="40.0713749" lon="-105.229789">
  <ele>1583.0</ele>
  <time>2026-08-28T17:55:58Z</time>
  <course>0.0</course>
  <speed>0.0</speed>
  <fix>3d</fix>
</trkpt>
<trkpt lat="40.0713749" lon="-105.229789">
  <ele>1583.0</ele>
  <time>2026-08-28T17:55:58Z</time>
  <course>247.67</course>
  <speed>0.0</speed>
  <fix>3d</fix>
</trkpt>
<trkpt lat="40.0713749" lon="-105.229789">
  <ele>1583.0</ele>
  <time>2026-08-28T17:55:58Z</time>
  <course>0.0</course>
  <speed>0.0</speed>
  <fix>3d</fix>
</trkpt>
<trkpt lat="40.0713749" lon="-105.229789">
  <ele>1583.0</ele>
  <time>2026-08-28T17:55:58Z</time>
  <course>247.72</course>
  <speed>0.0</speed>
  <fix>3d</fix>
</trkpt>
<trkpt lat="40.0713749" lon="-105.229789">
  <ele>1583.0</ele>
  <time>2026-08-28T17:55:58Z</time>
  <course>0.0</course>
  <speed>0.0</speed>
  <fix>3d</fix>
</trkpt>
<trkpt lat="40.0713749" lon="-105.229789">
  <ele>1583.0</ele>
  <time>2026-08-28T17:55:58Z</time>
  <course>247.76</course>
  <speed>0.0</speed>
  <fix>3d</fix>
</trkpt>
<trkpt lat="40.0713749" lon="-105.229789">
  <ele>1583.0</ele>
  <time>2026-08-28T17:55:58Z</time>
  <course>0.0</course>
  <speed>0.0</speed>
  <fix>3d</fix>
</trkpt>
<trkpt lat="40.0713749" lon="-105.229789">
  <ele>1583.0</ele>
  <time>2026-08-28T17:55:58Z</time>
  <course>247.8</course>
  <speed>0.0</speed>
  <fix>3d</fix>
</trkpt>
<trkpt lat="40.0713749" lon="-105.229789">
  <ele>1583.0</ele>
  <time>2026-08-28T17:55:58Z</time>
  <course>0.0</course>
  <speed>0.0</speed>
  <fix>3d</fix>
</trkpt>
<trkpt lat="40.0713749" lon="-105.229789">
  <ele>1583.0</ele>
  <time>2026-08-28T17:55:58Z</time>
  <course>247.83</course>
  <speed>0.0</speed>
  <fix>3d</fix>
</trkpt>
<trkpt lat="40.0713749" lon="-105.229789">
  <ele>1583.0</ele>
  <time>2026-08-28T17:55:58Z</time>
  <course>0.0</course>
  <speed>0.0</speed>
  <fix>3d</fix>
</trkpt>
<trkpt lat="40.0713749" lon="-105.229789">
  <ele>1583.0</ele>
  <time>2026-08-28T17:55:58Z</time>
  <course>247.87</course>
  <speed>0.0</speed>
  <fix>3d</fix>
</trkpt>
<trkpt lat="40.0713749" lon="-105.229789">
  <ele>1583.0</ele>
  <time>2026-08-28T17:55:58Z</time>
  <course>0.0</course>
  <speed>0.0</speed>
  <fix>3d</fix>
</trkpt>
<trkpt lat="40.0713749" lon="-105.229789">
  <ele>1583.0</ele>
  <time>2026-08-28T17:55:58Z</time>
  <course>247.9</course>
  <speed>0.0</speed>
  <fix>3d</fix>
</trkpt>
<trkpt lat="40.0713749" lon="-105.229789">
  <ele>1583.0</ele>
  <time>2026-08-28T17:55:58Z</time>
  <course>0.0</course>
  <speed>0.0</speed>
  <fix>3d</fix>
</trkpt>
<trkpt lat="40.0713749" lon="-105.229789">
  <ele>1583.0</ele>
  <time>2026-08-28T17:55:58Z</time>
  <course>247.94</course>
  <speed>0.0</speed>
  <fix>3d</fix>
</trkpt>
<trkpt lat="40.0713749" lon="-105.229789">
  <ele>1583.0</ele>
  <time>2026-08-28T17:55:58Z</time>
  <course>0.0</course>
  <speed>0.0</speed>
  <fix>3d</fix>
</trkpt>
<trkpt lat="40.0713749" lon="-105.229789">
  <ele>1583.0</ele>
  <time>2026-08-28T17:55:58Z</time>
  <course>247.97</course>
  <speed>0.0</speed>
  <fix>3d</fix>
</trkpt>
<trkpt lat="40.0713749" lon="-105.229789">
  <ele>1583.0</ele>
  <time>2026-08-28T17:55:58Z</time>
  <course>0.0</course>
  <speed>0.0</speed>
  <fix>3d</fix>
</trkpt>
<trkpt lat="40.0713749" lon="-105.229789">
  <ele>1583.0</ele>
  <time>2026-08-28T17:55:58Z</time>
  <course>248.0</course>
  <speed>0.0</speed>
  <fix>3d</fix>
</trkpt>
<trkpt lat="40.0713749" lon="-105.229789">
  <ele>1583.0</ele>
  <time>2026-08-28T17:55:58Z</time>
  <course>0.0</course>
  <speed>0.0</speed>
  <fix>3d</fix>
</trkpt>
<trkpt lat="40.0713749" lon="-105.229789">
  <ele>1583.0</ele>
  <time>2026-08-28T17:55:58Z</time>
  <course>248.02</course>
  <speed>0.0</speed>
  <fix>3d</fix>
</trkpt>
<trkpt lat="40.0713749" lon="-105.229789">
  <ele>1583.0</ele>
  <time>2026-08-28T17:55:58Z</time>
  <course>0.0</course>
  <speed>0.0</speed>
  <fix>3d</fix>
</trkpt>
<trkpt lat="40.0713749" lon="-105.229789">
  <ele>1583.0</ele>
  <time>2026-08-28T17:55:58Z</time>
  <course>248.05</course>
  <speed>0.0</speed>
  <fix>3d</fix>
</trkpt>
<trkpt lat="40.0713749" lon="-105.229789">
  <ele>1583.0</ele>
  <time>2026-08-28T17:55:58Z</time>
  <course>0.0</course>
  <speed>0.0</speed>
  <fix>3d</fix>
</trkpt>
<trkpt lat="40.0713749" lon="-105.229789">
  <ele>1583.0</ele>
  <time>2026-08-28T17:55:58Z</time>
  <course>248.08</course>
  <speed>0.0</speed>
  <fix>3d</fix>
</trkpt>
<trkpt lat="40.0713749" lon="-105.229789">
  <ele>1583.0</ele>
  <time>2026-08-28T17:55:58Z</time>
  <course>0.0</course>
  <speed>0.0</speed>
  <fix>3d</fix>
</trkpt>
<trkpt lat="40.0713749" lon="-105.229789">
  <ele>1583.0</ele>
  <time>2026-08-28T17:55:58Z</time>
  <course>248.1</course>
  <speed>0.0</speed>
  <fix>3d</fix>
</trkpt>
<trkpt lat="40.0713749" lon="-105.229789">
  <ele>1583.0</ele>
  <time>2026-08-28T17:55:58Z</time>
  <course>0.0</course>
  <speed>0.0</speed>
  <fix>3d</fix>
</trkpt>
<trkpt lat="40.0713749" lon="-105.229789">
  <ele>1583.0</ele>
  <time>2026-08-28T17:55:58Z</time>
  <course>248.12</course>
  <speed>0.0</speed>
  <fix>3d</fix>
</trkpt>
<trkpt lat="40.0713749" lon="-105.229789">
  <ele>1583.0</ele>
  <time>2026-08-28T17:55:58Z</time>
  <course>0.0</course>
  <speed>0.0</speed>
  <fix>3d</fix>
</trkpt>
<trkpt lat="40.0713749" lon="-105.229789">
  <ele>1583.0</ele>
  <time>2026-08-28T17:55:58Z</time>
  <course>248.14</course>
  <speed>0.0</speed>
  <fix>3d</fix>
</trkpt>
<trkpt lat="40.0713749" lon="-105.229789">
  <ele>1583.0</ele>
  <time>2026-08-28T17:55:58Z</time>
  <course>0.0</course>
  <speed>0.0</speed>
  <fix>3d</fix>
</trkpt>
<trkpt lat="40.0713749" lon="-105.229789">
  <ele>1583.0</ele>
  <time>2026-08-28T17:55:58Z</time>
  <course>248.16</course>
  <speed>0.0</speed>
  <fix>3d</fix>
</trkpt>
<trkpt lat="40.0713749" lon="-105.229789">
  <ele>1583.0</ele>
  <time>2026-08-28T17:55:58Z</time>
  <course>0.0</course>
  <speed>0.0</speed>
  <fix>3d</fix>
</trkpt>
<trkpt lat="40.0713749" lon="-105.229789">
  <ele>1583.0</ele>
  <time>2026-08-28T17:55:58Z</time>
  <course>248.18</course>
  <speed>0.0</speed>
  <fix>3d</fix>
</trkpt>
<trkpt lat="40.0713749" lon="-105.229789">
  <ele>1583.0</ele>
  <time>2026-08-28T17:55:58Z</time>
  <course>0.0</course>
  <speed>0.0</speed>
  <fix>3d</fix>
</trkpt>
<trkpt lat="40.0713749" lon="-105.229789">
  <ele>1583.0</ele>
  <time>2026-08-28T17:55:58Z</time>
  <course>248.2</course>
  <speed>0.0</speed>
  <fix>3d</fix>
</trkpt>
<trkpt lat="40.0713749" lon="-105.229789">
  <ele>1583.0</ele>
  <time>2026-08-28T17:55:58Z</time>
  <course>0.0</course>
  <speed>0.0</speed>
  <fix>3d</fix>
</trkpt>
<trkpt lat="40.0713749" lon="-105.229789">
  <ele>1583.0</ele>
  <time>2026-08-28T17:55:58Z</time>
  <course>248.22</course>
  <speed>0.0</speed>
  <fix>3d</fix>
</trkpt>
<trkpt lat="40.0713749" lon="-105.229789">
  <ele>1583.0</ele>
  <time>2026-08-28T17:55:58Z</time>
  <course>0.0</course>
  <speed>0.0</speed>
  <fix>3d</fix>
</trkpt>
<trkpt lat="40.0713749" lon="-105.229789">
  <ele>1583.0</ele>
  <time>2026-08-28T17:55:58Z</time>
  <course>248.23</course>
  <speed>0.0</speed>
  <fix>3d</fix>
</trkpt>
<trkpt lat="40.0713749" lon="-105.229789">
  <ele>1583.0</ele>
  <time>2026-08-28T17:55:58Z</time>
  <course>0.0</course>
  <speed>0.0</speed>
  <fix>3d</fix>
</trkpt>
<trkpt lat="40.0713749" lon="-105.229789">
  <ele>1583.0</ele>
  <time>2026-08-28T17:55:58Z</time>
  <course>248.25</course>
  <speed>0.0</speed>
  <fix>3d</fix>
</trkpt>
<trkpt lat="40.0713749" lon="-105.229789">
  <ele>1583.0</ele>
  <time>2026-08-28T17:55:58Z</time>
  <course>0.0</course>
  <speed>0.0</speed>
  <fix>3d</fix>
</trkpt>
<trkpt lat="40.0713749" lon="-105.229789">
  <ele>1583.0</ele>
  <time>2026-08-28T17:55:58Z</time>
  <course>248.26</course>
  <speed>0.0</speed>
  <fix>3d</fix>
</trkpt>
<trkpt lat="40.0713749" lon="-105.229789">
  <ele>1583.0</ele>
  <time>2026-08-28T17:55:58Z</time>
  <course>0.0</course>
  <speed>0.0</speed>
  <fix>3d</fix>
</trkpt>
<trkpt lat="40.0713749" lon="-105.229789">
  <ele>1583.0</ele>
  <time>2026-08-28T17:55:58Z</time>
  <course>248.28</course>
  <speed>0.0</speed>
  <fix>3d</fix>
</trkpt>
<trkpt lat="40.0713749" lon="-105.229789">
  <ele>1583.0</ele>
  <time>2026-08-28T17:55:58Z</time>
  <course>0.0</course>
  <speed>0.0</speed>
  <fix>3d</fix>
</trkpt>
<trkpt lat="40.0713749" lon="-105.229789">
  <ele>1583.0</ele>
  <time>2026-08-28T17:55:58Z</time>
  <course>248.29</course>
  <speed>0.0</speed>
  <fix>3d</fix>
</trkpt>
<trkpt lat="40.0713749" lon="-105.229789">
  <ele>1583.0</ele>
  <time>2026-08-28T17:55:58Z</time>
  <course>0.0</course>
  <speed>0.0</speed>
  <fix>3d</fix>
</trkpt>
<trkpt lat="40.0713749" lon="-105.229789">
  <ele>1583.0</ele>
  <time>2026-08-28T17:55:58Z</time>
  <course>248.3</course>
  <speed>0.0</speed>
  <fix>3d</fix>
</trkpt>
<trkpt lat="40.0713749" lon="-105.229789">
  <ele>1583.0</ele>
  <time>2026-08-28T17:55:58Z</time>
  <course>0.0</course>
  <speed>0.0</speed>
  <fix>3d</fix>
</trkpt>
<trkpt lat="40.0713749" lon="-105.229789">
  <ele>1583.0</ele>
  <time>2026-08-28T17:55:58Z</time>
  <course>248.31</course>
  <speed>0.0</speed>
  <fix>3d</fix>
</trkpt>
<trkpt lat="40.0713749" lon="-105.229789">
  <ele>1583.0</ele>
  <time>2026-08-28T17:55:58Z</time>
  <course>0.0</course>
  <speed>0.0</speed>
  <fix>3d</fix>
</trkpt>
<trkpt lat="40.0713749" lon="-105.229789">
  <ele>1583.0</ele>
  <time>2026-08-28T17:55:58Z</time>
  <course>248.32</course>
  <speed>0.0</speed>
  <fix>3d</fix>
</trkpt>
<trkpt lat="40.0713749" lon="-105.229789">
  <ele>1583.0</ele>
  <time>2026-08-28T17:55:58Z</time>
  <course>0.0</course>
  <speed>0.0</speed>
  <fix>3d</fix>
</trkpt>
<trkpt lat="40.0713749" lon="-105.229789">
  <ele>1583.0</ele>
  <time>2026-08-28T17:55:58Z</time>
  <course>248.33</course>
  <speed>0.0</speed>
  <fix>3d</fix>
</trkpt>
<trkpt lat="40.0713749" lon="-105.229789">
  <ele>1583.0</ele>
  <time>2026-08-28T17:55:58Z</time>
  <course>0.0</course>
  <speed>0.0</speed>
  <fix>3d</fix>
</trkpt>
<trkpt lat="40.0713749" lon="-105.229789">
  <ele>1583.0</ele>
  <time>2026-08-28T17:55:58Z</time>
  <course>248.34</course>
  <speed>0.0</speed>
  <fix>3d</fix>
</trkpt>
<trkpt lat="40.0713749" lon="-105.229789">
  <ele>1583.0</ele>
  <time>2026-08-28T17:55:58Z</time>
  <course>0.0</course>
  <speed>0.0</speed>
  <fix>3d</fix>
</trkpt>
<trkpt lat="40.0713749" lon="-105.229789">
  <ele>1583.0</ele>
  <time>2026-08-28T17:55:58Z</time>
  <course>248.35</course>
  <speed>0.0</speed>
  <fix>3d</fix>
</trkpt>
<trkpt lat="40.0713749" lon="-105.229789">
  <ele>1583.0</ele>
  <time>2026-08-28T17:55:58Z</time>
  <course>0.0</course>
  <speed>0.0</speed>
  <fix>3d</fix>
</trkpt>
<trkpt lat="40.0713749" lon="-105.229789">
  <ele>1583.0</ele>
  <time>2026-08-28T17:55:58Z</time>
  <course>248.35</course>
  <speed>0.0</speed>
  <fix>3d</fix>
</trkpt>
<trkpt lat="40.0713749" lon="-105.229789">
  <ele>1583.0</ele>
  <time>2026-08-28T17:55:58Z</time>
  <course>0.0</course>
  <speed>0.0</speed>
  <fix>3d</fix>
</trkpt>
<trkpt lat="40.0713749" lon="-105.229789">
  <ele>1583.0</ele>
  <time>2026-08-28T17:55:58Z</time>
  <course>248.36</course>
  <speed>0.0</speed>
  <fix>3d</fix>
</trkpt>
<trkpt lat="40.0713749" lon="-105.229789">
  <ele>1583.0</ele>
  <time>2026-08-28T17:55:58Z</time>
  <course>0.0</course>
  <speed>0.0</speed>
  <fix>3d</fix>
</trkpt>
<trkpt lat="40.0713749" lon="-105.229789">
  <ele>1583.0</ele>
  <time>2026-08-28T17:55:58Z</time>
  <course>248.37</course>
  <speed>0.0</speed>
  <fix>3d</fix>
</trkpt>
<trkpt lat="40.0713749" lon="-105.229789">
  <ele>1583.0</ele>
  <time>2026-08-28T17:55:58Z</time>
  <course>0.0</course>
  <speed>0.0</speed>
  <fix>3d</fix>
</trkpt>
<trkpt lat="40.0713749" lon="-105.229789">
  <ele>1583.0</ele>
  <time>2026-08-28T17:55:58Z</time>
  <course>248.37</course>
  <speed>0.0</speed>
  <fix>3d</fix>
</trkpt>
<trkpt lat="40.0713749" lon="-105.229789">
  <ele>1583.0</ele>
  <time>2026-08-28T17:55:58Z</time>
  <course>0.0</course>
  <speed>0.0</speed>
  <fix>3d</fix>
</trkpt>
<trkpt lat="40.0713749" lon="-105.229789">
  <ele>1583.0</ele>
  <time>2026-08-28T17:55:58Z</time>
  <course>248.38</course>
  <speed>0.0</speed>
  <fix>3d</fix>
</trkpt>
<trkpt lat="40.0713749" lon="-105.229789">
  <ele>1583.0</ele>
  <time>2026-08-28T17:55:58Z</time>
  <course>0.0</course>
  <speed>0.0</speed>
  <fix>3d</fix>
</trkpt>
<trkpt lat="40.0713749" lon="-105.229789">
  <ele>1583.0</ele>
  <time>2026-08-28T17:55:58Z</time>
  <course>248.38</course>
  <speed>0.0</speed>
  <fix>3d</fix>
</trkpt>
<trkpt lat="40.0713749" lon="-105.229789">
  <ele>1583.0</ele>
  <time>2026-08-28T17:55:58Z</time>
  <course>0.0</course>
  <speed>0.0</speed>
  <fix>3d</fix>
</trkpt>
<trkpt lat="40.0713749" lon="-105.229789">
  <ele>1583.0</ele>
  <time>2026-08-28T17:55:58Z</time>
  <course>248.39</course>
  <speed>0.0</speed>
  <fix>3d</fix>
</trkpt>
<trkpt lat="40.0713749" lon="-105.229789">
  <ele>1583.0</ele>
  <time>2026-08-28T17:55:58Z</time>
  <course>0.0</course>
  <speed>0.0</speed>
  <fix>3d</fix>
</trkpt>
<trkpt lat="40.0713749" lon="-105.229789">
  <ele>1583.0</ele>
  <time>2026-08-28T17:55:58Z</time>
  <course>248.39</course>
  <speed>0.0</speed>
  <fix>3d</fix>
</trkpt>
<trkpt lat="40.0713749" lon="-105.229789">
  <ele>1583.0</ele>
  <time>2026-08-28T17:55:58Z</time>
  <course>0.0</course>
  <speed>0.0</speed>
  <fix>3d</fix>
</trkpt>
<trkpt lat="40.0713749" lon="-105.229789">
  <ele>1583.0</ele>
  <time>2026-08-28T17:55:58Z</time>
  <course>248.4</course>
  <speed>0.0</speed>
  <fix>3d</fix>
</trkpt>
<trkpt lat="40.0713749" lon="-105.229789">
  <ele>1583.0</ele>
  <time>2026-08-28T17:55:58Z</time>
  <course>0.0</course>
  <speed>0.0</speed>
  <fix>3d</fix>
</trkpt>
<trkpt lat="40.0713749" lon="-105.229789">
  <ele>1583.0</ele>
  <time>2026-08-28T17:55:58Z</time>
  <course>248.4</course>
  <speed>0.0</speed>
  <fix>3d</fix>
</trkpt>
<trkpt lat="40.0713749" lon="-105.229789">
  <ele>1583.0</ele>
  <time>2026-08-28T17:55:58Z</time>
  <course>0.0</course>
  <speed>0.0</speed>
  <fix>3d</fix>
</trkpt>
<trkpt lat="40.0713749" lon="-105.229789">
  <ele>1583.0</ele>
  <time>2026-08-28T17:55:58Z</time>
  <course>248.4</course>
  <speed>0.0</speed>
  <fix>3d</fix>
</trkpt>
<trkpt lat="40.0713749" lon="-105.229789">
  <ele>1583.0</ele>
  <time>2026-08-28T17:55:58Z</time>
  <course>0.0</course>
  <speed>0.0</speed>
  <fix>3d</fix>
</trkpt>
<trkpt lat="40.0713749" lon="-105.229789">
  <ele>1583.0</ele>
  <time>2026-08-28T17:55:58Z</time>
  <course>248.4</course>
  <speed>0.0</speed>
  <fix>3d</fix>
</trkpt>
<trkpt lat="40.0713749" lon="-105.229789">
  <ele>1583.0</ele>
  <time>2026-08-28T17:55:58Z</time>
  <course>0.0</course>
  <speed>0.0</speed>
  <fix>3d</fix>
</trkpt>
<trkpt lat="40.0713749" lon="-105.229789">
  <ele>1583.0</ele>
  <time>2026-08-28T17:55:58Z</time>
  <course>248.41</course>
  <speed>0.0</speed>
  <fix>3d</fix>
</trkpt>
<trkpt lat="40.0713749" lon="-105.229789">
  <ele>1583.0</ele>
  <time>2026-08-28T17:55:58Z</time>
  <course>0.0</course>
  <speed>0.0</speed>
  <fix>3d</fix>
</trkpt>
<trkpt lat="40.0713749" lon="-105.229789">
  <ele>1583.0</ele>
  <time>2026-08-28T17:55:58Z</time>
  <course>248.41</course>
  <speed>0.0</speed>
  <fix>3d</fix>
</trkpt>
<trkpt lat="40.0713749" lon="-105.229789">
  <ele>1583.0</ele>
  <time>2026-08-28T17:55:58Z</time>
  <course>0.0</course>
  <speed>0.0</speed>
  <fix>3d</fix>
</trkpt>
<trkpt lat="40.0713749" lon="-105.229789">
  <ele>1583.0</ele>
  <time>2026-08-28T17:55:58Z</time>
  <course>248.41</course>
  <speed>0.0</speed>
  <fix>3d</fix>
</trkpt>
<trkpt lat="40.0713749" lon="-105.229789">
  <ele>1583.0</ele>
  <time>2026-08-28T17:55:58Z</time>
  <course>0.0</course>
  <speed>0.0</speed>
  <fix>3d</fix>
</trkpt>
<trkpt lat="40.0713749" lon="-105.229789">
  <ele>1583.0</ele>
  <time>2026-08-28T17:55:58Z</time>
  <course>248.41</course>
  <speed>0.0</speed>
  <fix>3d</fix>
</trkpt>
<trkpt lat="40.0713749" lon="-105.229789">
  <ele>1583.0</ele>
  <time>2026-08-28T17:55:58Z</time>
  <course>0.0</course>
  <speed>0.0</speed>
  <fix>3d</fix>
</trkpt>
<trkpt lat="40.0713749" lon="-105.229789">
  <ele>1583.0</ele>
  <time>2026-08-28T17:55:58Z</time>
  <course>248.41</course>
  <speed>0.0</speed>
  <fix>3d</fix>
</trkpt>
<trkpt lat="40.0713749" lon="-105.229789">
  <ele>1583.0</ele>
  <time>2026-08-28T17:55:58Z</time>
  <course>0.0</course>
  <speed>0.0</speed>
  <fix>3d</fix>
</trkpt>
<trkpt lat="40.0713749" lon="-105.229789">
  <ele>1583.0</ele>
  <time>2026-08-28T17:55:58Z</time>
  <course>248.41</course>
  <speed>0.0</speed>
  <fix>3d</fix>
</trkpt>
<trkpt lat="40.0713749" lon="-105.229789">
  <ele>1583.0</ele>
  <time>2026-08-28T17:55:58Z</time>
  <course>0.0</course>
  <speed>0.0</speed>
  <fix>3d</fix>
</trkpt>
<trkpt lat="40.0713749" lon="-105.229789">
  <ele>1583.0</ele>
  <time>2026-08-28T17:55:58Z</time>
  <course>248.41</course>
  <speed>0.0</speed>
  <fix>3d</fix>
</trkpt>
<trkpt lat="40.0713749" lon="-105.229789">
  <ele>1583.0</ele>
  <time>2026-08-28T17:55:58Z</time>
  <course>0.0</course>
  <speed>0.0</speed>
  <fix>3d</fix>
</trkpt>
<trkpt lat="40.0713749" lon="-105.229789">
  <ele>1583.0</ele>
  <time>2026-08-28T17:55:58Z</time>
  <course>248.41</course>
  <speed>0.0</speed>
  <fix>3d</fix>
</trkpt>
<trkpt lat="40.0713749" lon="-105.229789">
  <ele>1583.0</ele>
  <time>2026-08-28T17:55:58Z</time>
  <course>0.0</course>
  <speed>0.0</speed>
  <fix>3d</fix>
</trkpt>
<trkpt lat="40.0713749" lon="-105.229789">
  <ele>1583.0</ele>
  <time>2026-08-28T17:55:58Z</time>
  <course>248.41</course>
  <speed>0.0</speed>
  <fix>3d</fix>
</trkpt>
<trkpt lat="40.0713749" lon="-105.229789">
  <ele>1583.0</ele>
  <time>2026-08-28T17:55:58Z</time>
  <course>0.0</course>
  <speed>0.0</speed>
  <fix>3d</fix>
</trkpt>
<trkpt lat="40.0713749" lon="-105.229789">
  <ele>1583.0</ele>
  <time>2026-08-28T17:55:58Z</time>
  <course>248.41</course>
  <speed>0.0</speed>
  <fix>3d</fix>
</trkpt>
<trkpt lat="40.0713749" lon="-105.229789">
  <ele>1583.0</ele>
  <time>2026-08-28T17:55:58Z</time>
  <course>0.0</course>
  <speed>0.0</speed>
  <fix>3d</fix>
</trkpt>
<trkpt lat="40.0713749" lon="-105.229789">
  <ele>1583.0</ele>
  <time>2026-08-28T17:55:58Z</time>
  <course>248.41</course>
  <speed>0.0</speed>
  <fix>3d</fix>
</trkpt>
<trkpt lat="40.0713749" lon="-105.229789">
  <ele>1583.0</ele>
  <time>2026-08-28T17:55:58Z</time>
  <course>0.0</course>
  <speed>0.0</speed>
  <fix>3d</fix>
</trkpt>
<trkpt lat="40.0713749" lon="-105.229789">
  <ele>1583.0</ele>
  <time>2026-08-28T17:55:58Z</time>
  <course>248.41</course>
  <speed>0.0</speed>
  <fix>3d</fix>
</trkpt>
<trkpt lat="40.0713749" lon="-105.229789">
  <ele>1583.0</ele>
  <time>2026-08-28T17:55:58Z</time>
  <course>0.0</course>
  <speed>0.0</speed>
  <fix>3d</fix>
</trkpt>
<trkpt lat="40.0713749" lon="-105.229789">
  <ele>1583.0</ele>
  <time>2026-08-28T17:55:58Z</time>
  <course>248.41</course>
  <speed>0.0</speed>
  <fix>3d</fix>
</trkpt>
<trkpt lat="40.0713749" lon="-105.229789">
  <ele>1583.0</ele>
  <time>2026-08-28T17:55:58Z</time>
  <course>0.0</course>
  <speed>0.0</speed>
  <fix>3d</fix>
</trkpt>
<trkpt lat="40.0713749" lon="-105.229789">
  <ele>1583.0</ele>
  <time>2026-08-28T17:55:58Z</time>
  <course>248.41</course>
  <speed>0.0</speed>
  <fix>3d</fix>
</trkpt>
<trkpt lat="40.0713749" lon="-105.229789">
  <ele>1583.0</ele>
  <time>2026-08-28T17:55:58Z</time>
  <course>0.0</course>
  <speed>0.0</speed>
  <fix>3d</fix>
</trkpt>
<trkpt lat="40.0713749" lon="-105.229789">
  <ele>1583.0</ele>
  <time>2026-08-28T17:55:58Z</time>
  <course>248.41</course>
  <speed>0.0</speed>
  <fix>3d</fix>
</trkpt>
<trkpt lat="40.0713749" lon="-105.229789">
  <ele>1583.0</ele>
  <time>2026-08-28T17:55:58Z</time>
  <course>0.0</course>
  <speed>0.0</speed>
  <fix>3d</fix>
</trkpt>
<trkpt lat="40.0713749" lon="-105.229789">
  <ele>1583.0</ele>
  <time>2026-08-28T17:55:58Z</time>
  <course>248.41</course>
  <speed>0.0</speed>
  <fix>3d</fix>
</trkpt>
<trkpt lat="40.0713749" lon="-105.229789">
  <ele>1583.0</ele>
  <time>2026-08-28T17:55:58Z</time>
  <course>0.0</course>
  <speed>0.0</speed>
  <fix>3d</fix>
</trkpt>
<trkpt lat="40.0713749" lon="-105.229789">
  <ele>1583.0</ele>
  <time>2026-08-28T17:55:58Z</time>
  <course>248.4</course>
  <speed>0.0</speed>
  <fix>3d</fix>
</trkpt>
<trkpt lat="40.0713749" lon="-105.229789">
  <ele>1583.0</ele>
  <time>2026-08-28T17:55:58Z</time>
  <course>0.0</course>
  <speed>0.0</speed>
  <fix>3d</fix>
</trkpt>
<trkpt lat="40.0713749" lon="-105.229789">
  <ele>1583.0</ele>
  <time>2026-08-28T17:55:58Z</time>
  <course>248.4</course>
  <speed>0.01</speed>
  <fix>3d</fix>
</trkpt>
<trkpt lat="40.0713749" lon="-105.229789">
  <ele>1583.0</ele>
  <time>2026-08-28T17:55:58Z</time>
  <course>0.0</course>
  <speed>0.0</speed>
  <fix>3d</fix>
</trkpt>
<trkpt lat="40.0713749" lon="-105.229789">
  <ele>1583.0</ele>
  <time>2026-08-28T17:55:58Z</time>
  <course>248.4</course>
  <speed>0.01</speed>
  <fix>3d</fix>
</trkpt>
<trkpt lat="40.0713749" lon="-105.229789">
  <ele>1583.0</ele>
  <time>2026-08-28T17:55:58Z</time>
  <course>0.0</course>
  <speed>0.0</speed>
  <fix>3d</fix>
</trkpt>
<trkpt lat="40.0713749" lon="-105.229789">
  <ele>1583.0</ele>
  <time>2026-08-28T17:55:58Z</time>
  <course>248.4</course>
  <speed>0.01</speed>
  <fix>3d</fix>
</trkpt>
<trkpt lat="40.0713749" lon="-105.229789">
  <ele>1583.0</ele>
  <time>2026-08-28T17:55:58Z</time>
  <course>0.0</course>
  <speed>0.0</speed>
  <fix>3d</fix>
</trkpt>
<trkpt lat="40.0713749" lon="-105.229789">
  <ele>1583.0</ele>
  <time>2026-08-28T17:55:58Z</time>
  <course>248.4</course>
  <speed>0.01</speed>
  <fix>3d</fix>
</trkpt>
<trkpt lat="40.0713749" lon="-105.229789">
  <ele>1583.0</ele>
  <time>2026-08-28T17:55:58Z</time>
  <course>0.0</course>
  <speed>0.0</speed>
  <fix>3d</fix>
</trkpt>
<trkpt lat="40.0713749" lon="-105.229789">
  <ele>1583.0</ele>
  <time>2026-08-28T17:55:58Z</time>
  <course>248.39</course>
  <speed>0.01</speed>
  <fix>3d</fix>
</trkpt>
<trkpt lat="40.0713749" lon="-105.229789">
  <ele>1583.0</ele>
  <time>2026-08-28T17:55:58Z</time>
  <course>0.0</course>
  <speed>0.0</speed>
  <fix>3d</fix>
</trkpt>
<trkpt lat="40.0713749" lon="-105.229789">
  <ele>1583.0</ele>
  <time>2026-08-28T17:55:58Z</time>
  <course>248.39</course>
  <speed>0.01</speed>
  <fix>3d</fix>
</trkpt>
<trkpt lat="40.0713749" lon="-105.229789">
  <ele>1583.0</ele>
  <time>2026-08-28T17:55:58Z</time>
  <course>0.0</course>
  <speed>0.0</speed>
  <fix>3d</fix>
</trkpt>
<trkpt lat="40.0713749" lon="-105.229789">
  <ele>1583.0</ele>
  <time>2026-08-28T17:55:58Z</time>
  <course>248.39</course>
  <speed>0.01</speed>
  <fix>3d</fix>
</trkpt>
<trkpt lat="40.0713749" lon="-105.229789">
  <ele>1583.0</ele>
  <time>2026-08-28T17:55:58Z</time>
  <course>0.0</course>
  <speed>0.0</speed>
  <fix>3d</fix>
</trkpt>
<trkpt lat="40.0713749" lon="-105.229789">
  <ele>1583.0</ele>
  <time>2026-08-28T17:55:58Z</time>
  <course>248.38</course>
  <speed>0.01</speed>
  <fix>3d</fix>
</trkpt>
<trkpt lat="40.0713749" lon="-105.229789">
  <ele>1583.0</ele>
  <time>2026-08-28T17:55:58Z</time>
  <course>0.0</course>
  <speed>0.0</speed>
  <fix>3d</fix>
</trkpt>
<trkpt lat="40.0713749" lon="-105.229789">
  <ele>1583.0</ele>
  <time>2026-08-28T17:55:58Z</time>
  <course>248.38</course>
  <speed>0.01</speed>
  <fix>3d</fix>
</trkpt>
<trkpt lat="40.0713749" lon="-105.229789">
  <ele>1583.0</ele>
  <time>2026-08-28T17:55:58Z</time>
  <course>0.0</course>
  <speed>0.0</speed>
  <fix>3d</fix>
</trkpt>
<trkpt lat="40.0713749" lon="-105.229789">
  <ele>1583.0</ele>
  <time>2026-08-28T17:55:58Z</time>
  <course>248.38</course>
  <speed>0.01</speed>
  <fix>3d</fix>
</trkpt>
<trkpt lat="40.0713749" lon="-105.229789">
  <ele>1583.0</ele>
  <time>2026-08-28T17:55:58Z</time>
  <course>0.0</course>
  <speed>0.0</speed>
  <fix>3d</fix>
</trkpt>
<trkpt lat="40.0713749" lon="-105.229789">
  <ele>1583.0</ele>
  <time>2026-08-28T17:55:58Z</time>
  <course>248.37</course>
  <speed>0.01</speed>
  <fix>3d</fix>
</trkpt>
<trkpt lat="40.0713749" lon="-105.229789">
  <ele>1583.0</ele>
  <time>2026-08-28T17:55:58Z</time>
  <course>0.0</course>
  <speed>0.0</speed>
  <fix>3d</fix>
</trkpt>
<trkpt lat="40.0713749" lon="-105.229789">
  <ele>1583.0</ele>
  <time>2026-08-28T17:55:58Z</time>
  <course>248.37</course>
  <speed>0.01</speed>
  <fix>3d</fix>
</trkpt>
<trkpt lat="40.0713749" lon="-105.229789">
  <ele>1583.0</ele>
  <time>2026-08-28T17:55:58Z</time>
  <course>0.0</course>
  <speed>0.0</speed>
  <fix>3d</fix>
</trkpt>
<trkpt lat="40.0713749" lon="-105.229789">
  <ele>1583.0</ele>
  <time>2026-08-28T17:55:58Z</time>
  <course>248.37</course>
  <speed>0.01</speed>
  <fix>3d</fix>
</trkpt>
<trkpt lat="40.0713749" lon="-105.229789">
  <ele>1583.0</ele>
  <time>2026-08-28T17:55:58Z</time>
  <course>0.0</course>
  <speed>0.0</speed>
  <fix>3d</fix>
</trkpt>
<trkpt lat="40.0713749" lon="-105.229789">
  <ele>1583.0</ele>
  <time>2026-08-28T17:55:58Z</time>
  <course>248.36</course>
  <speed>0.01</speed>
  <fix>3d</fix>
</trkpt>
<trkpt lat="40.0713749" lon="-105.229789">
  <ele>1583.0</ele>
  <time>2026-08-28T17:55:58Z</time>
  <course>0.0</course>
  <speed>0.0</speed>
  <fix>3d</fix>
</trkpt>
<trkpt lat="40.0713749" lon="-105.229789">
  <ele>1583.0</ele>
  <time>2026-08-28T17:55:58Z</time>
  <course>248.36</course>
  <speed>0.01</speed>
  <fix>3d</fix>
</trkpt>
<trkpt lat="40.0713749" lon="-105.229789">
  <ele>1583.0</ele>
  <time>2026-08-28T17:55:58Z</time>
  <course>0.0</course>
  <speed>0.0</speed>
  <fix>3d</fix>
</trkpt>
<trkpt lat="40.0713749" lon="-105.229789">
  <ele>1583.0</ele>
  <time>2026-08-28T17:55:58Z</time>
  <course>248.36</course>
  <speed>0.01</speed>
  <fix>3d</fix>
</trkpt>
<trkpt lat="40.0713749" lon="-105.229789">
  <ele>1583.0</ele>
  <time>2026-08-28T17:55:58Z</time>
  <course>0.0</course>
  <speed>0.0</speed>
  <fix>3d</fix>
</trkpt>
<trkpt lat="40.0713749" lon="-105.229789">
  <ele>1583.0</ele>
  <time>2026-08-28T17:55:58Z</time>
  <course>248.35</course>
  <speed>0.01</speed>
  <fix>3d</fix>
</trkpt>
<trkpt lat="40.0713749" lon="-105.229789">
  <ele>1583.0</ele>
  <time>2026-08-28T17:55:58Z</time>
  <course>0.0</course>
  <speed>0.0</speed>
  <fix>3d</fix>
</trkpt>
<trkpt lat="40.0713749" lon="-105.229789">
  <ele>1583.0</ele>
  <time>2026-08-28T17:55:58Z</time>
  <course>248.35</course>
  <speed>0.01</speed>
  <fix>3d</fix>
</trkpt>
<trkpt lat="40.0713749" lon="-105.229789">
  <ele>1583.0</ele>
  <time>2026-08-28T17:55:58Z</time>
  <course>0.0</course>
  <speed>0.0</speed>
  <fix>3d</fix>
</trkpt>
<trkpt lat="40.0713749" lon="-105.229789">
  <ele>1583.0</ele>
  <time>2026-08-28T17:55:58Z</time>
  <course>248.35</course>
  <speed>0.01</speed>
  <fix>3d</fix>
</trkpt>
<trkpt lat="40.0713749" lon="-105.229789">
  <ele>1583.0</ele>
  <time>2026-08-28T17:55:58Z</time>
  <course>0.0</course>
  <speed>0.0</speed>
  <fix>3d</fix>
</trkpt>
<trkpt lat="40.0713749" lon="-105.229789">
  <ele>1583.0</ele>
  <time>2026-08-28T17:55:58Z</time>
  <course>248.34</course>
  <speed>0.01</speed>
  <fix>3d</fix>
</trkpt>
<trkpt lat="40.0713749" lon="-105.229789">
  <ele>1583.0</ele>
  <time>2026-08-28T17:55:58Z</time>
  <course>0.0</course>
  <speed>0.0</speed>
  <fix>3d</fix>
</trkpt>
<trkpt lat="40.0713749" lon="-105.229789">
  <ele>1583.0</ele>
  <time>2026-08-28T17:55:58Z</time>
  <course>248.34</course>
  <speed>0.01</speed>
  <fix>3d</fix>
</trkpt>
<trkpt lat="40.0713749" lon="-105.229789">
  <ele>1583.0</ele>
  <time>2026-08-28T17:55:58Z</time>
  <course>0.0</course>
  <speed>0.0</speed>
  <fix>3d</fix>
</trkpt>
<trkpt lat="40.0713749" lon="-105.229789">
  <ele>1583.0</ele>
  <time>2026-08-28T17:55:58Z</time>
  <course>248.33</course>
  <speed>0.01</speed>
  <fix>3d</fix>
</trkpt>
<trkpt lat="40.0713749" lon="-105.229789">
  <ele>1583.0</ele>
  <time>2026-08-28T17:55:58Z</time>
  <course>0.0</course>
  <speed>0.0</speed>
  <fix>3d</fix>
</trkpt>
<trkpt lat="40.0713749" lon="-105.229789">
  <ele>1583.0</ele>
  <time>2026-08-28T17:55:58Z</time>
  <course>248.33</course>
  <speed>0.01</speed>
  <fix>3d</fix>
</trkpt>
<trkpt lat="40.0713749" lon="-105.229789">
  <ele>1583.0</ele>
  <time>2026-08-28T17:55:58Z</time>
  <course>0.0</course>
  <speed>0.0</speed>
  <fix>3d</fix>
</trkpt>
<trkpt lat="40.0713749" lon="-105.229789">
  <ele>1583.0</ele>
  <time>2026-08-28T17:55:58Z</time>
  <course>248.32</course>
  <speed>0.01</speed>
  <fix>3d</fix>
</trkpt>
<trkpt lat="40.0713749" lon="-105.229789">
  <ele>1583.0</ele>
  <time>2026-08-28T17:55:58Z</time>
  <course>0.0</course>
  <speed>0.0</speed>
  <fix>3d</fix>
</trkpt>
<trkpt lat="40.0713749" lon="-105.229789">
  <ele>1583.0</ele>
  <time>2026-08-28T17:55:58Z</time>
  <course>248.32</course>
  <speed>0.01</speed>
  <fix>3d</fix>
</trkpt>
<trkpt lat="40.0713749" lon="-105.229789">
  <ele>1583.0</ele>
  <time>2026-08-28T17:55:58Z</time>
  <course>0.0</course>
  <speed>0.0</speed>
  <fix>3d</fix>
</trkpt>
<trkpt lat="40.0713749" lon="-105.229789">
  <ele>1583.0</ele>
  <time>2026-08-28T17:55:58Z</time>
  <course>248.32</course>
  <speed>0.01</speed>
  <fix>3d</fix>
</trkpt>
<trkpt lat="40.0713749" lon="-105.229789">
  <ele>1583.0</ele>
  <time>2026-08-28T17:55:58Z</time>
  <course>0.0</course>
  <speed>0.0</speed>
  <fix>3d</fix>
</trkpt>
<trkpt lat="40.0713749" lon="-105.229789">
  <ele>1583.0</ele>
  <time>2026-08-28T17:55:58Z</time>
  <course>248.31</course>
  <speed>0.01</speed>
  <fix>3d</fix>
</trkpt>
<trkpt lat="40.0713749" lon="-105.229789">
  <ele>1583.0</ele>
  <time>2026-08-28T17:55:58Z</time>
  <course>0.0</course>
  <speed>0.0</speed>
  <fix>3d</fix>
</trkpt>
<trkpt lat="40.0713749" lon="-105.229789">
  <ele>1583.0</ele>
  <time>2026-08-28T17:55:58Z</time>
  <course>248.31</course>
  <speed>0.01</speed>
  <fix>3d</fix>
</trkpt>
<trkpt lat="40.0713749" lon="-105.229789">
  <ele>1583.0</ele>
  <time>2026-08-28T17:55:58Z</time>
  <course>0.0</course>
  <speed>0.0</speed>
  <fix>3d</fix>
</trkpt>
<trkpt lat="40.0713749" lon="-105.229789">
  <ele>1583.0</ele>
  <time>2026-08-28T17:55:58Z</time>
  <course>248.3</course>
  <speed>0.01</speed>
  <fix>3d</fix>
</trkpt>
<trkpt lat="40.0713749" lon="-105.229789">
  <ele>1583.0</ele>
  <time>2026-08-28T17:55:58Z</time>
  <course>0.0</course>
  <speed>0.0</speed>
  <fix>3d</fix>
</trkpt>
<trkpt lat="40.0713749" lon="-105.229789">
  <ele>1583.0</ele>
  <time>2026-08-28T17:55:58Z</time>
  <course>248.3</course>
  <speed>0.01</speed>
  <fix>3d</fix>
</trkpt>
<trkpt lat="40.0713749" lon="-105.229789">
  <ele>1583.0</ele>
  <time>2026-08-28T17:55:58Z</time>
  <course>0.0</course>
  <speed>0.0</speed>
  <fix>3d</fix>
</trkpt>
<trkpt lat="40.0713749" lon="-105.229789">
  <ele>1583.0</ele>
  <time>2026-08-28T17:55:58Z</time>
  <course>248.29</course>
  <speed>0.01</speed>
  <fix>3d</fix>
</trkpt>
<trkpt lat="40.0713749" lon="-105.229789">
  <ele>1583.0</ele>
  <time>2026-08-28T17:55:58Z</time>
  <course>0.0</course>
  <speed>0.0</speed>
  <fix>3d</fix>
</trkpt>
<trkpt lat="40.0713749" lon="-105.229789">
  <ele>1583.0</ele>
  <time>2026-08-28T17:55:58Z</time>
  <course>248.29</course>
  <speed>0.01</speed>
  <fix>3d</fix>
</trkpt>
<trkpt lat="40.0713749" lon="-105.229789">
  <ele>1583.0</ele>
  <time>2026-08-28T17:55:58Z</time>
  <course>0.0</course>
  <speed>0.0</speed>
  <fix>3d</fix>
</trkpt>
<trkpt lat="40.0713749" lon="-105.229789">
  <ele>1583.0</ele>
  <time>2026-08-28T17:55:58Z</time>
  <course>248.28</course>
  <speed>0.01</speed>
  <fix>3d</fix>
</trkpt>
<trkpt lat="40.0713749" lon="-105.229789">
  <ele>1583.0</ele>
  <time>2026-08-28T17:55:58Z</time>
  <course>0.0</course>
  <speed>0.0</speed>
  <fix>3d</fix>
</trkpt>
<trkpt lat="40.0713749" lon="-105.229789">
  <ele>1583.0</ele>
  <time>2026-08-28T17:55:58Z</time>
  <course>248.28</course>
  <speed>0.01</speed>
  <fix>3d</fix>
</trkpt>
<trkpt lat="40.0713749" lon="-105.229789">
  <ele>1583.0</ele>
  <time>2026-08-28T17:55:58Z</time>
  <course>0.0</course>
  <speed>0.0</speed>
  <fix>3d</fix>
</trkpt>
<trkpt lat="40.0713749" lon="-105.229789">
  <ele>1583.0</ele>
  <time>2026-08-28T17:55:58Z</time>
  <course>248.27</course>
  <speed>0.01</speed>
  <fix>3d</fix>
</trkpt>
<trkpt lat="40.0713749" lon="-105.229789">
  <ele>1583.0</ele>
  <time>2026-08-28T17:55:58Z</time>
  <course>0.0</course>
  <speed>0.0</speed>
  <fix>3d</fix>
</trkpt>
<trkpt lat="40.0713749" lon="-105.229789">
  <ele>1583.0</ele>
  <time>2026-08-28T17:55:58Z</time>
  <course>248.27</course>
  <speed>0.01</speed>
  <fix>3d</fix>
</trkpt>
<trkpt lat="40.0713749" lon="-105.229789">
  <ele>1583.0</ele>
  <time>2026-08-28T17:55:58Z</time>
  <course>0.0</course>
  <speed>0.0</speed>
  <fix>3d</fix>
</trkpt>
<trkpt lat="40.0713749" lon="-105.229789">
  <ele>1583.0</ele>
  <time>2026-08-28T17:55:58Z</time>
  <course>248.26</course>
  <speed>0.01</speed>
  <fix>3d</fix>
</trkpt>
<trkpt lat="40.0713749" lon="-105.229789">
  <ele>1583.0</ele>
  <time>2026-08-28T17:55:58Z</time>
  <course>0.0</course>
  <speed>0.0</speed>
  <fix>3d</fix>
</trkpt>
<trkpt lat="40.0713749" lon="-105.229789">
  <ele>1583.0</ele>
  <time>2026-08-28T17:55:58Z</time>
  <course>248.26</course>
  <speed>0.01</speed>
  <fix>3d</fix>
</trkpt>
<trkpt lat="40.0713749" lon="-105.229789">
  <ele>1583.0</ele>
  <time>2026-08-28T17:55:58Z</time>
  <course>0.0</course>
  <speed>0.0</speed>
  <fix>3d</fix>
</trkpt>
<trkpt lat="40.0713749" lon="-105.229789">
  <ele>1583.0</ele>
  <time>2026-08-28T17:55:58Z</time>
  <course>248.26</course>
  <speed>0.01</speed>
  <fix>3d</fix>
</trkpt>
<trkpt lat="40.0713749" lon="-105.229789">
  <ele>1583.0</ele>
  <time>2026-08-28T17:55:58Z</time>
  <course>0.0</course>
  <speed>0.0</speed>
  <fix>3d</fix>
</trkpt>
<trkpt lat="40.0713749" lon="-105.229789">
  <ele>1583.0</ele>
  <time>2026-08-28T17:55:58Z</time>
  <course>248.25</course>
  <speed>0.01</speed>
  <fix>3d</fix>
</trkpt>
<trkpt lat="40.0713749" lon="-105.229789">
  <ele>1583.0</ele>
  <time>2026-08-28T17:55:58Z</time>
  <course>0.0</course>
  <speed>0.0</speed>
  <fix>3d</fix>
</trkpt>
<trkpt lat="40.0713749" lon="-105.229789">
  <ele>1583.0</ele>
  <time>2026-08-28T17:55:58Z</time>
  <course>248.25</course>
  <speed>0.01</speed>
  <fix>3d</fix>
</trkpt>
<trkpt lat="40.0713749" lon="-105.229789">
  <ele>1583.0</ele>
  <time>2026-08-28T17:55:58Z</time>
  <course>0.0</course>
  <speed>0.0</speed>
  <fix>3d</fix>
</trkpt>
<trkpt lat="40.0713749" lon="-105.229789">
  <ele>1583.0</ele>
  <time>2026-08-28T17:55:58Z</time>
  <course>248.24</course>
  <speed>0.01</speed>
  <fix>3d</fix>
</trkpt>
<trkpt lat="40.0713749" lon="-105.229789">
  <ele>1583.0</ele>
  <time>2026-08-28T17:55:58Z</time>
  <course>0.0</course>
  <speed>0.0</speed>
  <fix>3d</fix>
</trkpt>
<trkpt lat="40.0713749" lon="-105.229789">
  <ele>1583.0</ele>
  <time>2026-08-28T17:55:58Z</time>
  <course>248.24</course>
  <speed>0.01</speed>
  <fix>3d</fix>
</trkpt>
<trkpt lat="40.0713749" lon="-105.229789">
  <ele>1583.0</ele>
  <time>2026-08-28T17:55:58Z</time>
  <course>0.0</course>
  <speed>0.0</speed>
  <fix>3d</fix>
</trkpt>
<trkpt lat="40.0713749" lon="-105.229789">
  <ele>1583.0</ele>
  <time>2026-08-28T17:55:58Z</time>
  <course>248.23</course>
  <speed>0.01</speed>
  <fix>3d</fix>
</trkpt>
<trkpt lat="40.0713749" lon="-105.229789">
  <ele>1583.0</ele>
  <time>2026-08-28T17:55:58Z</time>
  <course>0.0</course>
  <speed>0.0</speed>
  <fix>3d</fix>
</trkpt>
<trkpt lat="40.0713749" lon="-105.229789">
  <ele>1583.0</ele>
  <time>2026-08-28T17:55:58Z</time>
  <course>248.23</course>
  <speed>0.01</speed>
  <fix>3d</fix>
</trkpt>
<trkpt lat="40.0713749" lon="-105.229789">
  <ele>1583.0</ele>
  <time>2026-08-28T17:55:58Z</time>
  <course>0.0</course>
  <speed>0.0</speed>
  <fix>3d</fix>
</trkpt>
<trkpt lat="40.0713749" lon="-105.229789">
  <ele>1583.0</ele>
  <time>2026-08-28T17:55:58Z</time>
  <course>248.22</course>
  <speed>0.01</speed>
  <fix>3d</fix>
</trkpt>
<trkpt lat="40.0713749" lon="-105.229789">
  <ele>1583.0</ele>
  <time>2026-08-28T17:55:58Z</time>
  <course>0.0</course>
  <speed>0.0</speed>
  <fix>3d</fix>
</trkpt>
<trkpt lat="40.0713749" lon="-105.229789">
  <ele>1583.0</ele>
  <time>2026-08-28T17:55:58Z</time>
  <course>248.22</course>
  <speed>0.01</speed>
  <fix>3d</fix>
</trkpt>
<trkpt lat="40.0713749" lon="-105.229789">
  <ele>1583.0</ele>
  <time>2026-08-28T17:55:58Z</time>
  <course>0.0</course>
  <speed>0.0</speed>
  <fix>3d</fix>
</trkpt>
<trkpt lat="40.0713749" lon="-105.229789">
  <ele>1583.0</ele>
  <time>2026-08-28T17:55:58Z</time>
  <course>248.21</course>
  <speed>0.01</speed>
  <fix>3d</fix>
</trkpt>
<trkpt lat="40.0713749" lon="-105.229789">
  <ele>1583.0</ele>
  <time>2026-08-28T17:55:58Z</time>
  <course>0.0</course>
  <speed>0.0</speed>
  <fix>3d</fix>
</trkpt>
<trkpt lat="40.0713749" lon="-105.229789">
  <ele>1583.0</ele>
  <time>2026-08-28T17:55:58Z</time>
  <course>248.21</course>
  <speed>0.01</speed>
  <fix>3d</fix>
</trkpt>
<trkpt lat="40.0713749" lon="-105.229789">
  <ele>1583.0</ele>
  <time>2026-08-28T17:55:58Z</time>
  <course>0.0</course>
  <speed>0.0</speed>
  <fix>3d</fix>
</trkpt>
<trkpt lat="40.0713749" lon="-105.229789">
  <ele>1583.0</ele>
  <time>2026-08-28T17:55:58Z</time>
  <course>248.2</course>
  <speed>0.01</speed>
  <fix>3d</fix>
</trkpt>
<trkpt lat="40.0713749" lon="-105.229789">
  <ele>1583.0</ele>
  <time>2026-08-28T17:55:58Z</time>
  <course>0.0</course>
  <speed>0.0</speed>
  <fix>3d</fix>
</trkpt>
<trkpt lat="40.0713749" lon="-105.229789">
  <ele>1583.0</ele>
  <time>2026-08-28T17:55:58Z</time>
  <course>248.2</course>
  <speed>0.01</speed>
  <fix>3d</fix>
</trkpt>
<trkpt lat="40.0713749" lon="-105.229789">
  <ele>1583.0</ele>
  <time>2026-08-28T17:55:58Z</time>
  <course>0.0</course>
  <speed>0.0</speed>
  <fix>3d</fix>
</trkpt>
<trkpt lat="40.0713749" lon="-105.229789">
  <ele>1583.0</ele>
  <time>2026-08-28T17:55:58Z</time>
  <course>248.19</course>
  <speed>0.01</speed>
  <fix>3d</fix>
</trkpt>
<trkpt lat="40.0713749" lon="-105.229789">
  <ele>1583.0</ele>
  <time>2026-08-28T17:55:58Z</time>
  <course>0.0</course>
  <speed>0.0</speed>
  <fix>3d</fix>
</trkpt>
<trkpt lat="40.0713749" lon="-105.229789">
  <ele>1583.0</ele>
  <time>2026-08-28T17:55:58Z</time>
  <course>248.19</course>
  <speed>0.01</speed>
  <fix>3d</fix>
</trkpt>
<trkpt lat="40.0713749" lon="-105.229789">
  <ele>1583.0</ele>
  <time>2026-08-28T17:55:58Z</time>
  <course>0.0</course>
  <speed>0.0</speed>
  <fix>3d</fix>
</trkpt>
<trkpt lat="40.0713749" lon="-105.229789">
  <ele>1583.0</ele>
  <time>2026-08-28T17:55:58Z</time>
  <course>248.18</course>
  <speed>0.01</speed>
  <fix>3d</fix>
</trkpt>
<trkpt lat="40.0713749" lon="-105.229789">
  <ele>1583.0</ele>
  <time>2026-08-28T17:55:58Z</time>
  <course>0.0</course>
  <speed>0.0</speed>
  <fix>3d</fix>
</trkpt>
<trkpt lat="40.0713749" lon="-105.229789">
  <ele>1583.0</ele>
  <time>2026-08-28T17:55:58Z</time>
  <course>248.18</course>
  <speed>0.01</speed>
  <fix>3d</fix>
</trkpt>
<trkpt lat="40.0713749" lon="-105.229789">
  <ele>1583.0</ele>
  <time>2026-08-28T17:55:58Z</time>
  <course>0.0</course>
  <speed>0.0</speed>
  <fix>3d</fix>
</trkpt>
<trkpt lat="40.0713749" lon="-105.229789">
  <ele>1583.0</ele>
  <time>2026-08-28T17:55:58Z</time>
  <course>248.17</course>
  <speed>0.022360679774997897</speed>
  <fix>3d</fix>
</trkpt>
<trkpt lat="40.0713749" lon="-105.229789">
  <ele>1583.0</ele>
  <time>2026-08-28T17:55:58Z</time>
  <course>0.0</course>
  <speed>0.0</speed>
  <fix>3d</fix>
</trkpt>
<trkpt lat="40.0713749" lon="-105.229789">
  <ele>1583.0</ele>
  <time>2026-08-28T17:55:58Z</time>
  <course>248.17</course>
  <speed>0.022360679774997897</speed>
  <fix>3d</fix>
</trkpt>
<trkpt lat="40.0713749" lon="-105.229789">
  <ele>1583.0</ele>
  <time>2026-08-28T17:55:58Z</time>
  <course>0.0</course>
  <speed>0.0</speed>
  <fix>3d</fix>
</trkpt>
<trkpt lat="40.0713749" lon="-105.229789">
  <ele>1583.0</ele>
  <time>2026-08-28T17:55:58Z</time>
  <course>248.16</course>
  <speed>0.022360679774997897</speed>
  <fix>3d</fix>
</trkpt>
<trkpt lat="40.0713749" lon="-105.229789">
  <ele>1583.0</ele>
  <time>2026-08-28T17:55:58Z</time>
  <course>0.0</course>
  <speed>0.0</speed>
  <fix>3d</fix>
</trkpt>
<trkpt lat="40.0713749" lon="-105.229789">
  <ele>1583.0</ele>
  <time>2026-08-28T17:55:58Z</time>
  <course>248.16</course>
  <speed>0.022360679774997897</speed>
  <fix>3d</fix>
</trkpt>
<trkpt lat="40.0713749" lon="-105.229789">
  <ele>1583.0</ele>
  <time>2026-08-28T17:55:58Z</time>
  <course>0.0</course>
  <speed>0.0</speed>
  <fix>3d</fix>
</trkpt>
<trkpt lat="40.0713749" lon="-105.229789">
  <ele>1583.0</ele>
  <time>2026-08-28T17:55:58Z</time>
  <course>248.15</course>
  <speed>0.022360679774997897</speed>
  <fix>3d</fix>
</trkpt>
<trkpt lat="40.0713749" lon="-105.229789">
  <ele>1583.0</ele>
  <time>2026-08-28T17:55:58Z</time>
  <course>0.0</course>
  <speed>0.0</speed>
  <fix>3d</fix>
</trkpt>
<trkpt lat="40.0713749" lon="-105.229789">
  <ele>1583.0</ele>
  <time>2026-08-28T17:55:58Z</time>
  <course>248.15</course>
  <speed>0.022360679774997897</speed>
  <fix>3d</fix>
</trkpt>
<trkpt lat="40.0713749" lon="-105.229789">
  <ele>1583.0</ele>
  <time>2026-08-28T17:55:58Z</time>
  <course>0.0</course>
  <speed>0.0</speed>
  <fix>3d</fix>
</trkpt>
<trkpt lat="40.0713749" lon="-105.229789">
  <ele>1583.0</ele>
  <time>2026-08-28T17:55:58Z</time>
  <course>248.14</course>
  <speed>0.022360679774997897</speed>
  <fix>3d</fix>
</trkpt>
<trkpt lat="40.0713749" lon="-105.229789">
  <ele>1583.0</ele>
  <time>2026-08-28T17:55:58Z</time>
  <course>0.0</course>
  <speed>0.0</speed>
  <fix>3d</fix>
</trkpt>
<trkpt lat="40.0713749" lon="-105.229789">
  <ele>1583.0</ele>
  <time>2026-08-28T17:55:58Z</time>
  <course>248.14</course>
  <speed>0.022360679774997897</speed>
  <fix>3d</fix>
</trkpt>
<trkpt lat="40.0713749" lon="-105.229789">
  <ele>1583.0</ele>
  <time>2026-08-28T17:55:58Z</time>
  <course>0.0</course>
  <speed>0.0</speed>
  <fix>3d</fix>
</trkpt>
<trkpt lat="40.0713749" lon="-105.229789">
  <ele>1583.0</ele>
  <time>2026-08-28T17:55:58Z</time>
  <course>248.13</course>
  <speed>0.022360679774997897</speed>
  <fix>3d</fix>
</trkpt>
<trkpt lat="40.0713749" lon="-105.229789">
  <ele>1583.0</ele>
  <time>2026-08-28T17:55:58Z</time>
  <course>0.0</course>
  <speed>0.0</speed>
  <fix>3d</fix>
</trkpt>
<trkpt lat="40.0713749" lon="-105.229789">
  <ele>1583.0</ele>
  <time>2026-08-28T17:55:58Z</time>
  <course>248.13</course>
  <speed>0.022360679774997897</speed>
  <fix>3d</fix>
</trkpt>
<trkpt lat="40.0713749" lon="-105.229789">
  <ele>1583.0</ele>
  <time>2026-08-28T17:55:58Z</time>
  <course>0.0</course>
  <speed>0.0</speed>
  <fix>3d</fix>
</trkpt>
<trkpt lat="40.0713749" lon="-105.229789">
  <ele>1583.0</ele>
  <time>2026-08-28T17:55:58Z</time>
  <course>248.12</course>
  <speed>0.022360679774997897</speed>
  <fix>3d</fix>
</trkpt>
<trkpt lat="40.0713749" lon="-105.229789">
  <ele>1583.0</ele>
  <time>2026-08-28T17:55:58Z</time>
  <course>0.0</course>
  <speed>0.0</speed>
  <fix>3d</fix>
</trkpt>
<trkpt lat="40.0713749" lon="-105.229789">
  <ele>1583.0</ele>
  <time>2026-08-28T17:55:58Z</time>
  <course>248.12</course>
  <speed>0.022360679774997897</speed>
  <fix>3d</fix>
</trkpt>
<trkpt lat="40.0713749" lon="-105.229789">
  <ele>1583.0</ele>
  <time>2026-08-28T17:55:58Z</time>
  <course>0.0</course>
  <speed>0.0</speed>
  <fix>3d</fix>
</trkpt>
<trkpt lat="40.0713749" lon="-105.229789">
  <ele>1583.0</ele>
  <time>2026-08-28T17:55:58Z</time>
  <course>248.11</course>
  <speed>0.022360679774997897</speed>
  <fix>3d</fix>
</trkpt>
<trkpt lat="40.0713749" lon="-105.229789">
  <ele>1583.0</ele>
  <time>2026-08-28T17:55:58Z</time>
  <course>0.0</course>
  <speed>0.0</speed>
  <fix>3d</fix>
</trkpt>
<trkpt lat="40.0713749" lon="-105.229789">
  <ele>1583.0</ele>
  <time>2026-08-28T17:55:58Z</time>
  <course>248.11</course>
  <speed>0.022360679774997897</speed>
  <fix>3d</fix>
</trkpt>
<trkpt lat="40.0713749" lon="-105.229789">
  <ele>1583.0</ele>
  <time>2026-08-28T17:55:58Z</time>
  <course>0.0</course>
  <speed>0.0</speed>
  <fix>3d</fix>
</trkpt>
<trkpt lat="40.0713749" lon="-105.229789">
  <ele>1583.0</ele>
  <time>2026-08-28T17:55:58Z</time>
  <course>248.1</course>
  <speed>0.022360679774997897</speed>
  <fix>3d</fix>
</trkpt>
<trkpt lat="40.0713749" lon="-105.229789">
  <ele>1583.0</ele>
  <time>2026-08-28T17:55:58Z</time>
  <course>0.0</course>
  <speed>0.0</speed>
  <fix>3d</fix>
</trkpt>
<trkpt lat="40.0713749" lon="-105.229789">
  <ele>1583.0</ele>
  <time>2026-08-28T17:55:58Z</time>
  <course>248.1</course>
  <speed>0.022360679774997897</speed>
  <fix>3d</fix>
</trkpt>
<trkpt lat="40.0713749" lon="-105.229789">
  <ele>1583.0</ele>
  <time>2026-08-28T17:55:58Z</time>
  <course>0.0</course>
  <speed>0.0</speed>
  <fix>3d</fix>
</trkpt>
<trkpt lat="40.0713749" lon="-105.229789">
  <ele>1583.0</ele>
  <time>2026-08-28T17:55:58Z</time>
  <course>248.09</course>
  <speed>0.022360679774997897</speed>
  <fix>3d</fix>
</trkpt>
<trkpt lat="40.0713749" lon="-105.229789">
  <ele>1583.0</ele>
  <time>2026-08-28T17:55:58Z</time>
  <course>0.0</course>
  <speed>0.0</speed>
  <fix>3d</fix>
</trkpt>
<trkpt lat="40.0713749" lon="-105.229789">
  <ele>1583.0</ele>
  <time>2026-08-28T17:55:58Z</time>
  <course>248.09</course>
  <speed>0.022360679774997897</speed>
  <fix>3d</fix>
</trkpt>
<trkpt lat="40.0713749" lon="-105.229789">
  <ele>1583.0</ele>
  <time>2026-08-28T17:55:58Z</time>
  <course>0.0</course>
  <speed>0.0</speed>
  <fix>3d</fix>
</trkpt>
<trkpt lat="40.0713749" lon="-105.229789">
  <ele>1583.0</ele>
  <time>2026-08-28T17:55:58Z</time>
  <course>248.08</course>
  <speed>0.022360679774997897</speed>
  <fix>3d</fix>
</trkpt>
<trkpt lat="40.0713749" lon="-105.229789">
  <ele>1583.0</ele>
  <time>2026-08-28T17:55:58Z</time>
  <course>0.0</course>
  <speed>0.0</speed>
  <fix>3d</fix>
</trkpt>
<trkpt lat="40.0713749" lon="-105.229789">
  <ele>1583.0</ele>
  <time>2026-08-28T17:55:58Z</time>
  <course>248.08</course>
  <speed>0.022360679774997897</speed>
  <fix>3d</fix>
</trkpt>
<trkpt lat="40.0713749" lon="-105.229789">
  <ele>1583.0</ele>
  <time>2026-08-28T17:55:58Z</time>
  <course>0.0</course>
  <speed>0.0</speed>
  <fix>3d</fix>
</trkpt>
<trkpt lat="40.0713749" lon="-105.229789">
  <ele>1583.0</ele>
  <time>2026-08-28T17:55:58Z</time>
  <course>248.07</course>
  <speed>0.022360679774997897</speed>
  <fix>3d</fix>
</trkpt>
<trkpt lat="40.0713749" lon="-105.229789">
  <ele>1583.0</ele>
  <time>2026-08-28T17:55:58Z</time>
  <course>0.0</course>
  <speed>0.0</speed>
  <fix>3d</fix>
</trkpt>
<trkpt lat="40.0713749" lon="-105.229789">
  <ele>1583.0</ele>
  <time>2026-08-28T17:55:58Z</time>
  <course>248.07</course>
  <speed>0.022360679774997897</speed>
  <fix>3d</fix>
</trkpt>
<trkpt lat="40.0713749" lon="-105.229789">
  <ele>1583.0</ele>
  <time>2026-08-28T17:55:58Z</time>
  <course>0.0</course>
  <speed>0.0</speed>
  <fix>3d</fix>
</trkpt>
<trkpt lat="40.0713749" lon="-105.229789">
  <ele>1583.0</ele>
  <time>2026-08-28T17:55:58Z</time>
  <course>248.06</course>
  <speed>0.022360679774997897</speed>
  <fix>3d</fix>
</trkpt>
<trkpt lat="40.0713749" lon="-105.229789">
  <ele>1583.0</ele>
  <time>2026-08-28T17:55:58Z</time>
  <course>0.0</course>
  <speed>0.0</speed>
  <fix>3d</fix>
</trkpt>
<trkpt lat="40.0713749" lon="-105.229789">
  <ele>1583.0</ele>
  <time>2026-08-28T17:55:58Z</time>
  <course>248.06</course>
  <speed>0.022360679774997897</speed>
  <fix>3d</fix>
</trkpt>
<trkpt lat="40.0713749" lon="-105.229789">
  <ele>1583.0</ele>
  <time>2026-08-28T17:55:58Z</time>
  <course>0.0</course>
  <speed>0.0</speed>
  <fix>3d</fix>
</trkpt>
<trkpt lat="40.0713749" lon="-105.229789">
  <ele>1583.0</ele>
  <time>2026-08-28T17:55:58Z</time>
  <course>248.05</course>
  <speed>0.022360679774997897</speed>
  <fix>3d</fix>
</trkpt>
<trkpt lat="40.0713749" lon="-105.229789">
  <ele>1583.0</ele>
  <time>2026-08-28T17:55:58Z</time>
  <course>0.0</course>
  <speed>0.0</speed>
  <fix>3d</fix>
</trkpt>
<trkpt lat="40.0713749" lon="-105.229789">
  <ele>1583.0</ele>
  <time>2026-08-28T17:55:58Z</time>
  <course>248.05</course>
  <speed>0.022360679774997897</speed>
  <fix>3d</fix>
</trkpt>
<trkpt lat="40.0713749" lon="-105.229789">
  <ele>1583.0</ele>
  <time>2026-08-28T17:55:58Z</time>
  <course>0.0</course>
  <speed>0.0</speed>
  <fix>3d</fix>
</trkpt>
<trkpt lat="40.0713749" lon="-105.229789">
  <ele>1583.0</ele>
  <time>2026-08-28T17:55:58Z</time>
  <course>248.05</course>
  <speed>0.022360679774997897</speed>
  <fix>3d</fix>
</trkpt>
<trkpt lat="40.0713749" lon="-105.229789">
  <ele>1583.0</ele>
  <time>2026-08-28T17:55:58Z</time>
  <course>0.0</course>
  <speed>0.0</speed>
  <fix>3d</fix>
</trkpt>
<trkpt lat="40.0713749" lon="-105.229789">
  <ele>1583.0</ele>
  <time>2026-08-28T17:55:58Z</time>
  <course>248.04</course>
  <speed>0.022360679774997897</speed>
  <fix>3d</fix>
</trkpt>
<trkpt lat="40.0713749" lon="-105.229789">
  <ele>1583.0</ele>
  <time>2026-08-28T17:55:58Z</time>
  <course>0.0</course>
  <speed>0.0</speed>
  <fix>3d</fix>
</trkpt>
<trkpt lat="40.0713749" lon="-105.229789">
  <ele>1583.0</ele>
  <time>2026-08-28T17:55:58Z</time>
  <course>248.04</course>
  <speed>0.022360679774997897</speed>
  <fix>3d</fix>
</trkpt>
<trkpt lat="40.0713749" lon="-105.229789">
  <ele>1583.0</ele>
  <time>2026-08-28T17:55:58Z</time>
  <course>0.0</course>
  <speed>0.0</speed>
  <fix>3d</fix>
</trkpt>
<trkpt lat="40.0713749" lon="-105.229789">
  <ele>1583.0</ele>
  <time>2026-08-28T17:55:58Z</time>
  <course>248.03</course>
  <speed>0.022360679774997897</speed>
  <fix>3d</fix>
</trkpt>
<trkpt lat="40.0713749" lon="-105.229789">
  <ele>1583.0</ele>
  <time>2026-08-28T17:55:58Z</time>
  <course>0.0</course>
  <speed>0.0</speed>
  <fix>3d</fix>
</trkpt>
<trkpt lat="40.0713749" lon="-105.229789">
  <ele>1583.0</ele>
  <time>2026-08-28T17:55:58Z</time>
  <course>248.03</course>
  <speed>0.022360679774997897</speed>
  <fix>3d</fix>
</trkpt>
<trkpt lat="40.0713749" lon="-105.229789">
  <ele>1583.0</ele>
  <time>2026-08-28T17:55:58Z</time>
  <course>0.0</course>
  <speed>0.0</speed>
  <fix>3d</fix>
</trkpt>
<trkpt lat="40.0713749" lon="-105.229789">
  <ele>1583.0</ele>
  <time>2026-08-28T17:55:58Z</time>
  <course>248.02</course>
  <speed>0.022360679774997897</speed>
  <fix>3d</fix>
</trkpt>
<trkpt lat="40.0713749" lon="-105.229789">
  <ele>1583.0</ele>
  <time>2026-08-28T17:55:58Z</time>
  <course>0.0</course>
  <speed>0.0</speed>
  <fix>3d</fix>
</trkpt>
<trkpt lat="40.0713749" lon="-105.229789">
  <ele>1583.0</ele>
  <time>2026-08-28T17:55:58Z</time>
  <course>248.02</course>
  <speed>0.022360679774997897</speed>
  <fix>3d</fix>
</trkpt>
<trkpt lat="40.0713749" lon="-105.229789">
  <ele>1583.0</ele>
  <time>2026-08-28T17:55:58Z</time>
  <course>0.0</course>
  <speed>0.0</speed>
  <fix>3d</fix>
</trkpt>
<trkpt lat="40.0713749" lon="-105.229789">
  <ele>1583.0</ele>
  <time>2026-08-28T17:55:58Z</time>
  <course>248.01</course>
  <speed>0.022360679774997897</speed>
  <fix>3d</fix>
</trkpt>
<trkpt lat="40.0713749" lon="-105.229789">
  <ele>1583.0</ele>
  <time>2026-08-28T17:55:58Z</time>
  <course>0.0</course>
  <speed>0.0</speed>
  <fix>3d</fix>
</trkpt>
<trkpt lat="40.0713749" lon="-105.229789">
  <ele>1583.0</ele>
  <time>2026-08-28T17:55:58Z</time>
  <course>248.01</course>
  <speed>0.022360679774997897</speed>
  <fix>3d</fix>
</trkpt>
<trkpt lat="40.0713749" lon="-105.229789">
  <ele>1583.0</ele>
  <time>2026-08-28T17:55:58Z</time>
  <course>0.0</course>
  <speed>0.0</speed>
  <fix>3d</fix>
</trkpt>
<trkpt lat="40.0713749" lon="-105.229789">
  <ele>1583.0</ele>
  <time>2026-08-28T17:55:58Z</time>
  <course>248.0</course>
  <speed>0.022360679774997897</speed>
  <fix>3d</fix>
</trkpt>
<trkpt lat="40.0713749" lon="-105.229789">
  <ele>1583.0</ele>
  <time>2026-08-28T17:55:58Z</time>
  <course>0.0</course>
  <speed>0.0</speed>
  <fix>3d</fix>
</trkpt>
<trkpt lat="40.0713749" lon="-105.229789">
  <ele>1583.0</ele>
  <time>2026-08-28T17:55:58Z</time>
  <course>248.0</course>
  <speed>0.022360679774997897</speed>
  <fix>3d</fix>
</trkpt>
<trkpt lat="40.0713749" lon="-105.229789">
  <ele>1583.0</ele>
  <time>2026-08-28T17:55:58Z</time>
  <course>0.0</course>
  <speed>0.0</speed>
  <fix>3d</fix>
</trkpt>
<trkpt lat="40.0713749" lon="-105.229789">
  <ele>1583.0</ele>
  <time>2026-08-28T17:55:58Z</time>
  <course>247.99</course>
  <speed>0.022360679774997897</speed>
  <fix>3d</fix>
</trkpt>
<trkpt lat="40.0713749" lon="-105.229789">
  <ele>1583.0</ele>
  <time>2026-08-28T17:55:58Z</time>
  <course>0.0</course>
  <speed>0.0</speed>
  <fix>3d</fix>
</trkpt>
<trkpt lat="40.0713749" lon="-105.229789">
  <ele>1583.0</ele>
  <time>2026-08-28T17:55:58Z</time>
  <course>247.99</course>
  <speed>0.022360679774997897</speed>
  <fix>3d</fix>
</trkpt>
<trkpt lat="40.0713749" lon="-105.229789">
  <ele>1583.0</ele>
  <time>2026-08-28T17:55:58Z</time>
  <course>0.0</course>
  <speed>0.0</speed>
  <fix>3d</fix>
</trkpt>
<trkpt lat="40.0713749" lon="-105.229789">
  <ele>1583.0</ele>
  <time>2026-08-28T17:55:58Z</time>
  <course>247.99</course>
  <speed>0.022360679774997897</speed>
  <fix>3d</fix>
</trkpt>
<trkpt lat="40.0713749" lon="-105.229789">
  <ele>1583.0</ele>
  <time>2026-08-28T17:55:58Z</time>
  <course>0.0</course>
  <speed>0.0</speed>
  <fix>3d</fix>
</trkpt>
<trkpt lat="40.0713749" lon="-105.229789">
  <ele>1583.0</ele>
  <time>2026-08-28T17:55:58Z</time>
  <course>247.98</course>
  <speed>0.022360679774997897</speed>
  <fix>3d</fix>
</trkpt>
<trkpt lat="40.0713749" lon="-105.229789">
  <ele>1583.0</ele>
  <time>2026-08-28T17:55:58Z</time>
  <course>0.0</course>
  <speed>0.0</speed>
  <fix>3d</fix>
</trkpt>
<trkpt lat="40.0713749" lon="-105.229789">
  <ele>1583.0</ele>
  <time>2026-08-28T17:55:58Z</time>
  <course>247.98</course>
  <speed>0.022360679774997897</speed>
  <fix>3d</fix>
</trkpt>
<trkpt lat="40.0713749" lon="-105.229789">
  <ele>1583.0</ele>
  <time>2026-08-28T17:55:58Z</time>
  <course>0.0</course>
  <speed>0.0</speed>
  <fix>3d</fix>
</trkpt>
<trkpt lat="40.0713749" lon="-105.229789">
  <ele>1583.0</ele>
  <time>2026-08-28T17:55:58Z</time>
  <course>247.97</course>
  <speed>0.022360679774997897</speed>
  <fix>3d</fix>
</trkpt>
<trkpt lat="40.0713749" lon="-105.229789">
  <ele>1583.0</ele>
  <time>2026-08-28T17:55:58Z</time>
  <course>0.0</course>
  <speed>0.0</speed>
  <fix>3d</fix>
</trkpt>
<trkpt lat="40.0713749" lon="-105.229789">
  <ele>1583.0</ele>
  <time>2026-08-28T17:55:58Z</time>
  <course>247.97</course>
  <speed>0.022360679774997897</speed>
  <fix>3d</fix>
</trkpt>
<trkpt lat="40.0713749" lon="-105.229789">
  <ele>1583.0</ele>
  <time>2026-08-28T17:55:58Z</time>
  <course>0.0</course>
  <speed>0.0</speed>
  <fix>3d</fix>
</trkpt>
<trkpt lat="40.0713749" lon="-105.229789">
  <ele>1583.0</ele>
  <time>2026-08-28T17:55:58Z</time>
  <course>247.96</course>
  <speed>0.022360679774997897</speed>
  <fix>3d</fix>
</trkpt>
<trkpt lat="40.0713749" lon="-105.229789">
  <ele>1583.0</ele>
  <time>2026-08-28T17:55:58Z</time>
  <course>0.0</course>
  <speed>0.0</speed>
  <fix>3d</fix>
</trkpt>
<trkpt lat="40.0713749" lon="-105.229789">
  <ele>1583.0</ele>
  <time>2026-08-28T17:55:58Z</time>
  <course>247.96</course>
  <speed>0.022360679774997897</speed>
  <fix>3d</fix>
</trkpt>
<trkpt lat="40.0713749" lon="-105.229789">
  <ele>1583.0</ele>
  <time>2026-08-28T17:55:58Z</time>
  <course>0.0</course>
  <speed>0.0</speed>
  <fix>3d</fix>
</trkpt>
<trkpt lat="40.0713749" lon="-105.229789">
  <ele>1583.0</ele>
  <time>2026-08-28T17:55:58Z</time>
  <course>247.95</course>
  <speed>0.022360679774997897</speed>
  <fix>3d</fix>
</trkpt>
<trkpt lat="40.0713749" lon="-105.229789">
  <ele>1583.0</ele>
  <time>2026-08-28T17:55:58Z</time>
  <course>0.0</course>
  <speed>0.0</speed>
  <fix>3d</fix>
</trkpt>
<trkpt lat="40.0713749" lon="-105.229789">
  <ele>1583.0</ele>
  <time>2026-08-28T17:55:58Z</time>
  <course>247.95</course>
  <speed>0.022360679774997897</speed>
  <fix>3d</fix>
</trkpt>
<trkpt lat="40.0713749" lon="-105.229789">
  <ele>1583.0</ele>
  <time>2026-08-28T17:55:58Z</time>
  <course>0.0</course>
  <speed>0.0</speed>
  <fix>3d</fix>
</trkpt>
<trkpt lat="40.0713749" lon="-105.229789">
  <ele>1583.0</ele>
  <time>2026-08-28T17:55:58Z</time>
  <course>247.95</course>
  <speed>0.022360679774997897</speed>
  <fix>3d</fix>
</trkpt>
<trkpt lat="40.0713749" lon="-105.229789">
  <ele>1583.0</ele>
  <time>2026-08-28T17:55:58Z</time>
  <course>0.0</course>
  <speed>0.0</speed>
  <fix>3d</fix>
</trkpt>
<trkpt lat="40.0713749" lon="-105.229789">
  <ele>1583.0</ele>
  <time>2026-08-28T17:55:58Z</time>
  <course>247.94</course>
  <speed>0.022360679774997897</speed>
  <fix>3d</fix>
</trkpt>
<trkpt lat="40.0713749" lon="-105.229789">
  <ele>1583.0</ele>
  <time>2026-08-28T17:55:58Z</time>
  <course>0.0</course>
  <speed>0.0</speed>
  <fix>3d</fix>
</trkpt>
<trkpt lat="40.0713749" lon="-105.229789">
  <ele>1583.0</ele>
  <time>2026-08-28T17:55:58Z</time>
  <course>247.94</course>
  <speed>0.022360679774997897</speed>
  <fix>3d</fix>
</trkpt>
<trkpt lat="40.0713749" lon="-105.229789">
  <ele>1583.0</ele>
  <time>2026-08-28T17:55:58Z</time>
  <course>0.0</course>
  <speed>0.0</speed>
  <fix>3d</fix>
</trkpt>
<trkpt lat="40.0713749" lon="-105.229789">
  <ele>1583.0</ele>
  <time>2026-08-28T17:55:58Z</time>
  <course>247.93</course>
  <speed>0.022360679774997897</speed>
  <fix>3d</fix>
</trkpt>
<trkpt lat="40.0713749" lon="-105.229789">
  <ele>1583.0</ele>
  <time>2026-08-28T17:55:58Z</time>
  <course>0.0</course>
  <speed>0.0</speed>
  <fix>3d</fix>
</trkpt>
<trkpt lat="40.0713749" lon="-105.229789">
  <ele>1583.0</ele>
  <time>2026-08-28T17:55:58Z</time>
  <course>247.93</course>
  <speed>0.022360679774997897</speed>
  <fix>3d</fix>
</trkpt>
<trkpt lat="40.0713749" lon="-105.229789">
  <ele>1583.0</ele>
  <time>2026-08-28T17:55:58Z</time>
  <course>0.0</course>
  <speed>0.0</speed>
  <fix>3d</fix>
</trkpt>
<trkpt lat="40.0713749" lon="-105.229789">
  <ele>1583.0</ele>
  <time>2026-08-28T17:55:58Z</time>
  <course>247.92</course>
  <speed>0.022360679774997897</speed>
  <fix>3d</fix>
</trkpt>
<trkpt lat="40.0713749" lon="-105.229789">
  <ele>1583.0</ele>
  <time>2026-08-28T17:55:58Z</time>
  <course>0.0</course>
  <speed>0.0</speed>
  <fix>3d</fix>
</trkpt>
<trkpt lat="40.0713749" lon="-105.229789">
  <ele>1583.0</ele>
  <time>2026-08-28T17:55:58Z</time>
  <course>247.92</course>
  <speed>0.022360679774997897</speed>
  <fix>3d</fix>
</trkpt>
<trkpt lat="40.0713749" lon="-105.229789">
  <ele>1583.0</ele>
  <time>2026-08-28T17:55:58Z</time>
  <course>0.0</course>
  <speed>0.0</speed>
  <fix>3d</fix>
</trkpt>
<trkpt lat="40.0713749" lon="-105.229789">
  <ele>1583.0</ele>
  <time>2026-08-28T17:55:58Z</time>
  <course>247.92</course>
  <speed>0.022360679774997897</speed>
  <fix>3d</fix>
</trkpt>
<trkpt lat="40.0713749" lon="-105.229789">
  <ele>1583.0</ele>
  <time>2026-08-28T17:55:58Z</time>
  <course>0.0</course>
  <speed>0.0</speed>
  <fix>3d</fix>
</trkpt>
<trkpt lat="40.0713749" lon="-105.229789">
  <ele>1583.0</ele>
  <time>2026-08-28T17:55:58Z</time>
  <course>247.91</course>
  <speed>0.022360679774997897</speed>
  <fix>3d</fix>
</trkpt>
<trkpt lat="40.0713749" lon="-105.229789">
  <ele>1583.0</ele>
  <time>2026-08-28T17:55:58Z</time>
  <course>0.0</course>
  <speed>0.0</speed>
  <fix>3d</fix>
</trkpt>
<trkpt lat="40.0713749" lon="-105.229789">
  <ele>1583.0</ele>
  <time>2026-08-28T17:55:58Z</time>
  <course>247.91</course>
  <speed>0.022360679774997897</speed>
  <fix>3d</fix>
</trkpt>
<trkpt lat="40.0713749" lon="-105.229789">
  <ele>1583.0</ele>
  <time>2026-08-28T17:55:58Z</time>
  <course>0.0</course>
  <speed>0.0</speed>
  <fix>3d</fix>
</trkpt>
<trkpt lat="40.0713749" lon="-105.229789">
  <ele>1583.0</ele>
  <time>2026-08-28T17:55:58Z</time>
  <course>247.9</course>
  <speed>0.022360679774997897</speed>
  <fix>3d</fix>
</trkpt>
<trkpt lat="40.0713749" lon="-105.229789">
  <ele>1583.0</ele>
  <time>2026-08-28T17:55:58Z</time>
  <course>0.0</course>
  <speed>0.0</speed>
  <fix>3d</fix>
</trkpt>
<trkpt lat="40.0713749" lon="-105.229789">
  <ele>1583.0</ele>
  <time>2026-08-28T17:55:58Z</time>
  <course>247.9</course>
  <speed>0.022360679774997897</speed>
  <fix>3d</fix>
</trkpt>
<trkpt lat="40.0713749" lon="-105.229789">
  <ele>1583.0</ele>
  <time>2026-08-28T17:55:58Z</time>
  <course>0.0</course>
  <speed>0.0</speed>
  <fix>3d</fix>
</trkpt>
<trkpt lat="40.0713749" lon="-105.229789">
  <ele>1583.0</ele>
  <time>2026-08-28T17:55:58Z</time>
  <course>247.89</course>
  <speed>0.022360679774997897</speed>
  <fix>3d</fix>
</trkpt>
<trkpt lat="40.0713749" lon="-105.229789">
  <ele>1583.0</ele>
  <time>2026-08-28T17:55:58Z</time>
  <course>0.0</course>
  <speed>0.0</speed>
  <fix>3d</fix>
</trkpt>
<trkpt lat="40.0713749" lon="-105.229789">
  <ele>1583.0</ele>
  <time>2026-08-28T17:55:58Z</time>
  <course>247.89</course>
  <speed>0.022360679774997897</speed>
  <fix>3d</fix>
</trkpt>
<trkpt lat="40.0713749" lon="-105.229789">
  <ele>1583.0</ele>
  <time>2026-08-28T17:55:58Z</time>
  <course>0.0</course>
  <speed>0.0</speed>
  <fix>3d</fix>
</trkpt>
<trkpt lat="40.0713749" lon="-105.229789">
  <ele>1583.0</ele>
  <time>2026-08-28T17:55:58Z</time>
  <course>247.89</course>
  <speed>0.022360679774997897</speed>
  <fix>3d</fix>
</trkpt>
<trkpt lat="40.0713749" lon="-105.229789">
  <ele>1583.0</ele>
  <time>2026-08-28T17:55:58Z</time>
  <course>0.0</course>
  <speed>0.0</speed>
  <fix>3d</fix>
</trkpt>
<trkpt lat="40.0713749" lon="-105.229789">
  <ele>1583.0</ele>
  <time>2026-08-28T17:55:58Z</time>
  <course>247.88</course>
  <speed>0.0316227766016838</speed>
  <fix>3d</fix>
</trkpt>
<trkpt lat="40.0713749" lon="-105.229789">
  <ele>1583.0</ele>
  <time>2026-08-28T17:55:58Z</time>
  <course>0.0</course>
  <speed>0.0</speed>
  <fix>3d</fix>
</trkpt>
<trkpt lat="40.0713749" lon="-105.229789">
  <ele>1583.0</ele>
  <time>2026-08-28T17:55:58Z</time>
  <course>247.88</course>
  <speed>0.0316227766016838</speed>
  <fix>3d</fix>
</trkpt>
<trkpt lat="40.0713749" lon="-105.229789">
  <ele>1583.0</ele>
  <time>2026-08-28T17:55:58Z</time>
  <course>0.0</course>
  <speed>0.0</speed>
  <fix>3d</fix>
</trkpt>
<trkpt lat="40.0713749" lon="-105.229789">
  <ele>1583.0</ele>
  <time>2026-08-28T17:55:58Z</time>
  <course>247.87</course>
  <speed>0.0316227766016838</speed>
  <fix>3d</fix>
</trkpt>
<trkpt lat="40.0713749" lon="-105.229789">
  <ele>1583.0</ele>
  <time>2026-08-28T17:55:58Z</time>
  <course>0.0</course>
  <speed>0.0</speed>
  <fix>3d</fix>
</trkpt>
<trkpt lat="40.0713749" lon="-105.229789">
  <ele>1583.0</ele>
  <time>2026-08-28T17:55:58Z</time>
  <course>247.87</course>
  <speed>0.0316227766016838</speed>
  <fix>3d</fix>
</trkpt>
<trkpt lat="40.0713749" lon="-105.229789">
  <ele>1583.0</ele>
  <time>2026-08-28T17:55:58Z</time>
  <course>0.0</course>
  <speed>0.0</speed>
  <fix>3d</fix>
</trkpt>
<trkpt lat="40.0713749" lon="-105.229789">
  <ele>1583.0</ele>
  <time>2026-08-28T17:55:58Z</time>
  <course>247.87</course>
  <speed>0.0316227766016838</speed>
  <fix>3d</fix>
</trkpt>
<trkpt lat="40.0713749" lon="-105.229789">
  <ele>1583.0</ele>
  <time>2026-08-28T17:55:58Z</time>
  <course>0.0</course>
  <speed>0.0</speed>
  <fix>3d</fix>
</trkpt>
<trkpt lat="40.0713749" lon="-105.229789">
  <ele>1583.0</ele>
  <time>2026-08-28T17:55:58Z</time>
  <course>247.86</course>
  <speed>0.0316227766016838</speed>
  <fix>3d</fix>
</trkpt>
<trkpt lat="40.0713749" lon="-105.229789">
  <ele>1583.0</ele>
  <time>2026-08-28T17:55:58Z</time>
  <course>0.0</course>
  <speed>0.0</speed>
  <fix>3d</fix>
</trkpt>
<trkpt lat="40.0713749" lon="-105.229789">
  <ele>1583.0</ele>
  <time>2026-08-28T17:55:58Z</time>
  <course>247.86</course>
  <speed>0.0316227766016838</speed>
  <fix>3d</fix>
</trkpt>
<trkpt lat="40.0713749" lon="-105.229789">
  <ele>1583.0</ele>
  <time>2026-08-28T17:55:58Z</time>
  <course>0.0</course>
  <speed>0.0</speed>
  <fix>3d</fix>
</trkpt>
<trkpt lat="40.0713749" lon="-105.229789">
  <ele>1583.0</ele>
  <time>2026-08-28T17:55:58Z</time>
  <course>247.85</course>
  <speed>0.0316227766016838</speed>
  <fix>3d</fix>
</trkpt>
<trkpt lat="40.0713749" lon="-105.229789">
  <ele>1583.0</ele>
  <time>2026-08-28T17:55:58Z</time>
  <course>0.0</course>
  <speed>0.0</speed>
  <fix>3d</fix>
</trkpt>
<trkpt lat="40.0713749" lon="-105.229789">
  <ele>1583.0</ele>
  <time>2026-08-28T17:55:58Z</time>
  <course>247.85</course>
  <speed>0.0316227766016838</speed>
  <fix>3d</fix>
</trkpt>
<trkpt lat="40.0713749" lon="-105.229789">
  <ele>1583.0</ele>
  <time>2026-08-28T17:55:58Z</time>
  <course>0.0</course>
  <speed>0.0</speed>
  <fix>3d</fix>
</trkpt>
<trkpt lat="40.0713749" lon="-105.229789">
  <ele>1583.0</ele>
  <time>2026-08-28T17:55:58Z</time>
  <course>247.85</course>
  <speed>0.0316227766016838</speed>
  <fix>3d</fix>
</trkpt>
<trkpt lat="40.0713749" lon="-105.229789">
  <ele>1583.0</ele>
  <time>2026-08-28T17:55:58Z</time>
  <course>0.0</course>
  <speed>0.0</speed>
  <fix>3d</fix>
</trkpt>
<trkpt lat="40.0713749" lon="-105.229789">
  <ele>1583.0</ele>
  <time>2026-08-28T17:55:58Z</time>
  <course>247.84</course>
  <speed>0.0316227766016838</speed>
  <fix>3d</fix>
</trkpt>
<trkpt lat="40.0713749" lon="-105.229789">
  <ele>1583.0</ele>
  <time>2026-08-28T17:55:58Z</time>
  <course>0.0</course>
  <speed>0.0</speed>
  <fix>3d</fix>
</trkpt>
<trkpt lat="40.0713749" lon="-105.229789">
  <ele>1583.0</ele>
  <time>2026-08-28T17:55:58Z</time>
  <course>247.84</course>
  <speed>0.0316227766016838</speed>
  <fix>3d</fix>
</trkpt>
<trkpt lat="40.0713749" lon="-105.229789">
  <ele>1583.0</ele>
  <time>2026-08-28T17:55:58Z</time>
  <course>0.0</course>
  <speed>0.0</speed>
  <fix>3d</fix>
</trkpt>
<trkpt lat="40.0713749" lon="-105.229789">
  <ele>1583.0</ele>
  <time>2026-08-28T17:55:58Z</time>
  <course>247.83</course>
  <speed>0.0316227766016838</speed>
  <fix>3d</fix>
</trkpt>
<trkpt lat="40.0713749" lon="-105.229789">
  <ele>1583.0</ele>
  <time>2026-08-28T17:55:58Z</time>
  <course>0.0</course>
  <speed>0.0</speed>
  <fix>3d</fix>
</trkpt>
<trkpt lat="40.0713749" lon="-105.229789">
  <ele>1583.0</ele>
  <time>2026-08-28T17:55:58Z</time>
  <course>247.83</course>
  <speed>0.0316227766016838</speed>
  <fix>3d</fix>
</trkpt>
<trkpt lat="40.0713749" lon="-105.229789">
  <ele>1583.0</ele>
  <time>2026-08-28T17:55:58Z</time>
  <course>0.0</course>
  <speed>0.0</speed>
  <fix>3d</fix>
</trkpt>
<trkpt lat="40.0713749" lon="-105.229789">
  <ele>1583.0</ele>
  <time>2026-08-28T17:55:58Z</time>
  <course>247.83</course>
  <speed>0.0316227766016838</speed>
  <fix>3d</fix>
</trkpt>
<trkpt lat="40.0713749" lon="-105.229789">
  <ele>1583.0</ele>
  <time>2026-08-28T17:55:58Z</time>
  <course>0.0</course>
  <speed>0.0</speed>
  <fix>3d</fix>
</trkpt>
<trkpt lat="40.0713749" lon="-105.229789">
  <ele>1583.0</ele>
  <time>2026-08-28T17:55:58Z</time>
  <course>247.82</course>
  <speed>0.0316227766016838</speed>
  <fix>3d</fix>
</trkpt>
<trkpt lat="40.0713749" lon="-105.229789">
  <ele>1583.0</ele>
  <time>2026-08-28T17:55:58Z</time>
  <course>0.0</course>
  <speed>0.0</speed>
  <fix>3d</fix>
</trkpt>
<trkpt lat="40.0713749" lon="-105.229789">
  <ele>1583.0</ele>
  <time>2026-08-28T17:55:58Z</time>
  <course>247.82</course>
  <speed>0.0316227766016838</speed>
  <fix>3d</fix>
</trkpt>
<trkpt lat="40.0713749" lon="-105.229789">
  <ele>1583.0</ele>
  <time>2026-08-28T17:55:58Z</time>
  <course>0.0</course>
  <speed>0.0</speed>
  <fix>3d</fix>
</trkpt>
<trkpt lat="40.0713749" lon="-105.229789">
  <ele>1583.0</ele>
  <time>2026-08-28T17:55:58Z</time>
  <course>247.82</course>
  <speed>0.0316227766016838</speed>
  <fix>3d</fix>
</trkpt>
<trkpt lat="40.0713749" lon="-105.229789">
  <ele>1583.0</ele>
  <time>2026-08-28T17:55:58Z</time>
  <course>0.0</course>
  <speed>0.0</speed>
  <fix>3d</fix>
</trkpt>
<trkpt lat="40.0713749" lon="-105.229789">
  <ele>1583.0</ele>
  <time>2026-08-28T17:55:58Z</time>
  <course>247.81</course>
  <speed>0.0316227766016838</speed>
  <fix>3d</fix>
</trkpt>
<trkpt lat="40.0713749" lon="-105.229789">
  <ele>1583.0</ele>
  <time>2026-08-28T17:55:58Z</time>
  <course>0.0</course>
  <speed>0.0</speed>
  <fix>3d</fix>
</trkpt>
<trkpt lat="40.0713749" lon="-105.229789">
  <ele>1583.0</ele>
  <time>2026-08-28T17:55:58Z</time>
  <course>247.81</course>
  <speed>0.0316227766016838</speed>
  <fix>3d</fix>
</trkpt>
<trkpt lat="40.0713749" lon="-105.229789">
  <ele>1583.0</ele>
  <time>2026-08-28T17:55:58Z</time>
  <course>0.0</course>
  <speed>0.0</speed>
  <fix>3d</fix>
</trkpt>
<trkpt lat="40.0713749" lon="-105.229789">
  <ele>1583.0</ele>
  <time>2026-08-28T17:55:58Z</time>
  <course>247.8</course>
  <speed>0.0316227766016838</speed>
  <fix>3d</fix>
</trkpt>
<trkpt lat="40.0713749" lon="-105.229789">
  <ele>1583.0</ele>
  <time>2026-08-28T17:55:58Z</time>
  <course>0.0</course>
  <speed>0.0</speed>
  <fix>3d</fix>
</trkpt>
<trkpt lat="40.0713749" lon="-105.229789">
  <ele>1583.0</ele>
  <time>2026-08-28T17:55:58Z</time>
  <course>247.8</course>
  <speed>0.0316227766016838</speed>
  <fix>3d</fix>
</trkpt>
<trkpt lat="40.0713749" lon="-105.229789">
  <ele>1583.0</ele>
  <time>2026-08-28T17:55:58Z</time>
  <course>0.0</course>
  <speed>0.0</speed>
  <fix>3d</fix>
</trkpt>
<trkpt lat="40.0713749" lon="-105.229789">
  <ele>1583.0</ele>
  <time>2026-08-28T17:55:58Z</time>
  <course>247.8</course>
  <speed>0.0316227766016838</speed>
  <fix>3d</fix>
</trkpt>
<trkpt lat="40.0713749" lon="-105.229789">
  <ele>1583.0</ele>
  <time>2026-08-28T17:55:58Z</time>
  <course>0.0</course>
  <speed>0.0</speed>
  <fix>3d</fix>
</trkpt>
<trkpt lat="40.0713749" lon="-105.229789">
  <ele>1583.0</ele>
  <time>2026-08-28T17:55:58Z</time>
  <course>247.79</course>
  <speed>0.0316227766016838</speed>
  <fix>3d</fix>
</trkpt>
<trkpt lat="40.0713749" lon="-105.229789">
  <ele>1583.0</ele>
  <time>2026-08-28T17:55:58Z</time>
  <course>0.0</course>
  <speed>0.0</speed>
  <fix>3d</fix>
</trkpt>
<trkpt lat="40.0713749" lon="-105.229789">
  <ele>1583.0</ele>
  <time>2026-08-28T17:55:58Z</time>
  <course>247.79</course>
  <speed>0.0316227766016838</speed>
  <fix>3d</fix>
</trkpt>
<trkpt lat="40.0713749" lon="-105.229789">
  <ele>1583.0</ele>
  <time>2026-08-28T17:55:58Z</time>
  <course>0.0</course>
  <speed>0.0</speed>
  <fix>3d</fix>
</trkpt>
<trkpt lat="40.0713749" lon="-105.229789">
  <ele>1583.0</ele>
  <time>2026-08-28T17:55:58Z</time>
  <course>247.79</course>
  <speed>0.0316227766016838</speed>
  <fix>3d</fix>
</trkpt>
<trkpt lat="40.0713749" lon="-105.229789">
  <ele>1583.0</ele>
  <time>2026-08-28T17:55:58Z</time>
  <course>0.0</course>
  <speed>0.0</speed>
  <fix>3d</fix>
</trkpt>
<trkpt lat="40.0713749" lon="-105.229789">
  <ele>1583.0</ele>
  <time>2026-08-28T17:55:58Z</time>
  <course>247.78</course>
  <speed>0.0316227766016838</speed>
  <fix>3d</fix>
</trkpt>
<trkpt lat="40.0713749" lon="-105.229789">
  <ele>1583.0</ele>
  <time>2026-08-28T17:55:58Z</time>
  <course>0.0</course>
  <speed>0.0</speed>
  <fix>3d</fix>
</trkpt>
<trkpt lat="40.0713749" lon="-105.229789">
  <ele>1583.0</ele>
  <time>2026-08-28T17:55:58Z</time>
  <course>247.78</course>
  <speed>0.0316227766016838</speed>
  <fix>3d</fix>
</trkpt>
<trkpt lat="40.0713749" lon="-105.229789">
  <ele>1583.0</ele>
  <time>2026-08-28T17:55:58Z</time>
  <course>0.0</course>
  <speed>0.0</speed>
  <fix>3d</fix>
</trkpt>
<trkpt lat="40.0713749" lon="-105.229789">
  <ele>1583.0</ele>
  <time>2026-08-28T17:55:58Z</time>
  <course>247.78</course>
  <speed>0.0316227766016838</speed>
  <fix>3d</fix>
</trkpt>
<trkpt lat="40.0713749" lon="-105.229789">
  <ele>1583.0</ele>
  <time>2026-08-28T17:55:58Z</time>
  <course>0.0</course>
  <speed>0.0</speed>
  <fix>3d</fix>
</trkpt>
<trkpt lat="40.0713749" lon="-105.229789">
  <ele>1583.0</ele>
  <time>2026-08-28T17:55:58Z</time>
  <course>247.77</course>
  <speed>0.0316227766016838</speed>
  <fix>3d</fix>
</trkpt>
<trkpt lat="40.0713749" lon="-105.229789">
  <ele>1583.0</ele>
  <time>2026-08-28T17:55:58Z</time>
  <course>0.0</course>
  <speed>0.0</speed>
  <fix>3d</fix>
</trkpt>
<trkpt lat="40.0713749" lon="-105.229789">
  <ele>1583.0</ele>
  <time>2026-08-28T17:55:58Z</time>
  <course>247.77</course>
  <speed>0.0316227766016838</speed>
  <fix>3d</fix>
</trkpt>
<trkpt lat="40.0713749" lon="-105.229789">
  <ele>1583.0</ele>
  <time>2026-08-28T17:55:58Z</time>
  <course>0.0</course>
  <speed>0.0</speed>
  <fix>3d</fix>
</trkpt>
<trkpt lat="40.0713749" lon="-105.229789">
  <ele>1583.0</ele>
  <time>2026-08-28T17:55:58Z</time>
  <course>247.76</course>
  <speed>0.0316227766016838</speed>
  <fix>3d</fix>
</trkpt>
<trkpt lat="40.0713749" lon="-105.229789">
  <ele>1583.0</ele>
  <time>2026-08-28T17:55:58Z</time>
  <course>0.0</course>
  <speed>0.0</speed>
  <fix>3d</fix>
</trkpt>
<trkpt lat="40.0713749" lon="-105.229789">
  <ele>1583.0</ele>
  <time>2026-08-28T17:55:58Z</time>
  <course>247.76</course>
  <speed>0.0316227766016838</speed>
  <fix>3d</fix>
</trkpt>
<trkpt lat="40.0713749" lon="-105.229789">
  <ele>1583.0</ele>
  <time>2026-08-28T17:55:58Z</time>
  <course>0.0</course>
  <speed>0.0</speed>
  <fix>3d</fix>
</trkpt>
<trkpt lat="40.0713749" lon="-105.229789">
  <ele>1583.0</ele>
  <time>2026-08-28T17:55:58Z</time>
  <course>247.76</course>
  <speed>0.0316227766016838</speed>
  <fix>3d</fix>
</trkpt>
<trkpt lat="40.0713749" lon="-105.229789">
  <ele>1583.0</ele>
  <time>2026-08-28T17:55:58Z</time>
  <course>0.0</course>
  <speed>0.0</speed>
  <fix>3d</fix>
</trkpt>
<trkpt lat="40.0713749" lon="-105.229789">
  <ele>1583.0</ele>
  <time>2026-08-28T17:55:58Z</time>
  <course>247.75</course>
  <speed>0.0316227766016838</speed>
  <fix>3d</fix>
</trkpt>
<trkpt lat="40.0713749" lon="-105.229789">
  <ele>1583.0</ele>
  <time>2026-08-28T17:55:58Z</time>
  <course>0.0</course>
  <speed>0.0</speed>
  <fix>3d</fix>
</trkpt>
<trkpt lat="40.0713749" lon="-105.229789">
  <ele>1583.0</ele>
  <time>2026-08-28T17:55:58Z</time>
  <course>247.75</course>
  <speed>0.0316227766016838</speed>
  <fix>3d</fix>
</trkpt>
<trkpt lat="40.0713749" lon="-105.229789">
  <ele>1583.0</ele>
  <time>2026-08-28T17:55:58Z</time>
  <course>0.0</course>
  <speed>0.0</speed>
  <fix>3d</fix>
</trkpt>
<trkpt lat="40.0713749" lon="-105.229789">
  <ele>1583.0</ele>
  <time>2026-08-28T17:55:58Z</time>
  <course>247.75</course>
  <speed>0.0316227766016838</speed>
  <fix>3d</fix>
</trkpt>
<trkpt lat="40.0713749" lon="-105.229789">
  <ele>1583.0</ele>
  <time>2026-08-28T17:55:58Z</time>
  <course>0.0</course>
  <speed>0.0</speed>
  <fix>3d</fix>
</trkpt>
<trkpt lat="40.0713749" lon="-105.229789">
  <ele>1583.0</ele>
  <time>2026-08-28T17:55:58Z</time>
  <course>247.74</course>
  <speed>0.0316227766016838</speed>
  <fix>3d</fix>
</trkpt>
<trkpt lat="40.0713749" lon="-105.229789">
  <ele>1583.0</ele>
  <time>2026-08-28T17:55:58Z</time>
  <course>0.0</course>
  <speed>0.0</speed>
  <fix>3d</fix>
</trkpt>
<trkpt lat="40.0713749" lon="-105.229789">
  <ele>1583.0</ele>
  <time>2026-08-28T17:55:58Z</time>
  <course>247.74</course>
  <speed>0.0316227766016838</speed>
  <fix>3d</fix>
</trkpt>
<trkpt lat="40.0713749" lon="-105.229789">
  <ele>1583.0</ele>
  <time>2026-08-28T17:55:58Z</time>
  <course>0.0</course>
  <speed>0.0</speed>
  <fix>3d</fix>
</trkpt>
<trkpt lat="40.0713749" lon="-105.229789">
  <ele>1583.0</ele>
  <time>2026-08-28T17:55:58Z</time>
  <course>247.74</course>
  <speed>0.0316227766016838</speed>
  <fix>3d</fix>
</trkpt>
<trkpt lat="40.0713749" lon="-105.229789">
  <ele>1583.0</ele>
  <time>2026-08-28T17:55:58Z</time>
  <course>0.0</course>
  <speed>0.0</speed>
  <fix>3d</fix>
</trkpt>
<trkpt lat="40.0713749" lon="-105.229789">
  <ele>1583.0</ele>
  <time>2026-08-28T17:55:58Z</time>
  <course>247.73</course>
  <speed>0.0316227766016838</speed>
  <fix>3d</fix>
</trkpt>
<trkpt lat="40.0713749" lon="-105.229789">
  <ele>1583.0</ele>
  <time>2026-08-28T17:55:58Z</time>
  <course>0.0</course>
  <speed>0.0</speed>
  <fix>3d</fix>
</trkpt>
<trkpt lat="40.0713749" lon="-105.229789">
  <ele>1583.0</ele>
  <time>2026-08-28T17:55:58Z</time>
  <course>247.73</course>
  <speed>0.0316227766016838</speed>
  <fix>3d</fix>
</trkpt>
<trkpt lat="40.0713749" lon="-105.229789">
  <ele>1583.0</ele>
  <time>2026-08-28T17:55:58Z</time>
  <course>0.0</course>
  <speed>0.0</speed>
  <fix>3d</fix>
</trkpt>
<trkpt lat="40.0713749" lon="-105.229789">
  <ele>1583.0</ele>
  <time>2026-08-28T17:55:58Z</time>
  <course>247.73</course>
  <speed>0.0316227766016838</speed>
  <fix>3d</fix>
</trkpt>
<trkpt lat="40.0713749" lon="-105.229789">
  <ele>1583.0</ele>
  <time>2026-08-28T17:55:58Z</time>
  <course>0.0</course>
  <speed>0.0</speed>
  <fix>3d</fix>
</trkpt>
<trkpt lat="40.0713749" lon="-105.229789">
  <ele>1583.0</ele>
  <time>2026-08-28T17:55:58Z</time>
  <course>247.72</course>
  <speed>0.0316227766016838</speed>
  <fix>3d</fix>
</trkpt>
<trkpt lat="40.0713749" lon="-105.229789">
  <ele>1583.0</ele>
  <time>2026-08-28T17:55:58Z</time>
  <course>0.0</course>
  <speed>0.0</speed>
  <fix>3d</fix>
</trkpt>
<trkpt lat="40.0713749" lon="-105.229789">
  <ele>1583.0</ele>
  <time>2026-08-28T17:55:58Z</time>
  <course>247.72</course>
  <speed>0.0316227766016838</speed>
  <fix>3d</fix>
</trkpt>
<trkpt lat="40.0713749" lon="-105.229789">
  <ele>1583.0</ele>
  <time>2026-08-28T17:55:58Z</time>
  <course>0.0</course>
  <speed>0.0</speed>
  <fix>3d</fix>
</trkpt>
<trkpt lat="40.0713749" lon="-105.229789">
  <ele>1583.0</ele>
  <time>2026-08-28T17:55:58Z</time>
  <course>247.72</course>
  <speed>0.0316227766016838</speed>
  <fix>3d</fix>
</trkpt>
<trkpt lat="40.0713749" lon="-105.229789">
  <ele>1583.0</ele>
  <time>2026-08-28T17:55:58Z</time>
  <course>0.0</course>
  <speed>0.0</speed>
  <fix>3d</fix>
</trkpt>
<trkpt lat="40.0713749" lon="-105.229789">
  <ele>1583.0</ele>
  <time>2026-08-28T17:55:58Z</time>
  <course>247.71</course>
  <speed>0.0316227766016838</speed>
  <fix>3d</fix>
</trkpt>
<trkpt lat="40.0713749" lon="-105.229789">
  <ele>1583.0</ele>
  <time>2026-08-28T17:55:58Z</time>
  <course>0.0</course>
  <speed>0.0</speed>
  <fix>3d</fix>
</trkpt>
<trkpt lat="40.0713749" lon="-105.229789">
  <ele>1583.0</ele>
  <time>2026-08-28T17:55:58Z</time>
  <course>247.71</course>
  <speed>0.0316227766016838</speed>
  <fix>3d</fix>
</trkpt>
<trkpt lat="40.0713749" lon="-105.229789">
  <ele>1583.0</ele>
  <time>2026-08-28T17:55:58Z</time>
  <course>0.0</course>
  <speed>0.0</speed>
  <fix>3d</fix>
</trkpt>
<trkpt lat="40.0713749" lon="-105.229789">
  <ele>1583.0</ele>
  <time>2026-08-28T17:55:58Z</time>
  <course>247.71</course>
  <speed>0.0316227766016838</speed>
  <fix>3d</fix>
</trkpt>
<trkpt lat="40.0713749" lon="-105.229789">
  <ele>1583.0</ele>
  <time>2026-08-28T17:55:58Z</time>
  <course>0.0</course>
  <speed>0.0</speed>
  <fix>3d</fix>
</trkpt>
<trkpt lat="40.0713749" lon="-105.229789">
  <ele>1583.0</ele>
  <time>2026-08-28T17:55:58Z</time>
  <course>247.7</course>
  <speed>0.0316227766016838</speed>
  <fix>3d</fix>
</trkpt>
<trkpt lat="40.0713749" lon="-105.229789">
  <ele>1583.0</ele>
  <time>2026-08-28T17:55:58Z</time>
  <course>0.0</course>
  <speed>0.0</speed>
  <fix>3d</fix>
</trkpt>
<trkpt lat="40.0713749" lon="-105.229789">
  <ele>1583.0</ele>
  <time>2026-08-28T17:55:58Z</time>
  <course>247.7</course>
  <speed>0.0316227766016838</speed>
  <fix>3d</fix>
</trkpt>
<trkpt lat="40.0713749" lon="-105.229789">
  <ele>1583.0</ele>
  <time>2026-08-28T17:55:58Z</time>
  <course>0.0</course>
  <speed>0.0</speed>
  <fix>3d</fix>
</trkpt>
<trkpt lat="40.0713749" lon="-105.229789">
  <ele>1583.0</ele>
  <time>2026-08-28T17:55:58Z</time>
  <course>247.7</course>
  <speed>0.0316227766016838</speed>
  <fix>3d</fix>
</trkpt>
<trkpt lat="40.0713749" lon="-105.229789">
  <ele>1583.0</ele>
  <time>2026-08-28T17:55:58Z</time>
  <course>0.0</course>
  <speed>0.0</speed>
  <fix>3d</fix>
</trkpt>
<trkpt lat="40.0713749" lon="-105.229789">
  <ele>1583.0</ele>
  <time>2026-08-28T17:55:58Z</time>
  <course>247.69</course>
  <speed>0.0316227766016838</speed>
  <fix>3d</fix>
</trkpt>
<trkpt lat="40.0713749" lon="-105.229789">
  <ele>1583.0</ele>
  <time>2026-08-28T17:55:58Z</time>
  <course>0.0</course>
  <speed>0.0</speed>
  <fix>3d</fix>
</trkpt>
<trkpt lat="40.0713749" lon="-105.229789">
  <ele>1583.0</ele>
  <time>2026-08-28T17:55:58Z</time>
  <course>247.69</course>
  <speed>0.0316227766016838</speed>
  <fix>3d</fix>
</trkpt>
<trkpt lat="40.0713749" lon="-105.229789">
  <ele>1583.0</ele>
  <time>2026-08-28T17:55:58Z</time>
  <course>0.0</course>
  <speed>0.0</speed>
  <fix>3d</fix>
</trkpt>
<trkpt lat="40.0713749" lon="-105.229789">
  <ele>1583.0</ele>
  <time>2026-08-28T17:55:58Z</time>
  <course>247.69</course>
  <speed>0.0316227766016838</speed>
  <fix>3d</fix>
</trkpt>
<trkpt lat="40.0713749" lon="-105.229789">
  <ele>1583.0</ele>
  <time>2026-08-28T17:55:58Z</time>
  <course>0.0</course>
  <speed>0.0</speed>
  <fix>3d</fix>
</trkpt>
<trkpt lat="40.0713749" lon="-105.229789">
  <ele>1583.0</ele>
  <time>2026-08-28T17:55:58Z</time>
  <course>247.68</course>
  <speed>0.0316227766016838</speed>
  <fix>3d</fix>
</trkpt>
<trkpt lat="40.0713749" lon="-105.229789">
  <ele>1583.0</ele>
  <time>2026-08-28T17:55:58Z</time>
  <course>0.0</course>
  <speed>0.0</speed>
  <fix>3d</fix>
</trkpt>
<trkpt lat="40.0713749" lon="-105.229789">
  <ele>1583.0</ele>
  <time>2026-08-28T17:55:58Z</time>
  <course>247.68</course>
  <speed>0.0316227766016838</speed>
  <fix>3d</fix>
</trkpt>
<trkpt lat="40.0713749" lon="-105.229789">
  <ele>1583.0</ele>
  <time>2026-08-28T17:55:58Z</time>
  <course>0.0</course>
  <speed>0.0</speed>
  <fix>3d</fix>
</trkpt>
<trkpt lat="40.0713749" lon="-105.229789">
  <ele>1583.0</ele>
  <time>2026-08-28T17:55:58Z</time>
  <course>247.68</course>
  <speed>0.0316227766016838</speed>
  <fix>3d</fix>
</trkpt>
<trkpt lat="40.0713749" lon="-105.229789">
  <ele>1583.0</ele>
  <time>2026-08-28T17:55:58Z</time>
  <course>0.0</course>
  <speed>0.0</speed>
  <fix>3d</fix>
</trkpt>
<trkpt lat="40.0713749" lon="-105.229789">
  <ele>1583.0</ele>
  <time>2026-08-28T17:55:58Z</time>
  <course>247.67</course>
  <speed>0.0316227766016838</speed>
  <fix>3d</fix>
</trkpt>
<trkpt lat="40.0713749" lon="-105.229789">
  <ele>1583.0</ele>
  <time>2026-08-28T17:55:58Z</time>
  <course>0.0</course>
  <speed>0.0</speed>
  <fix>3d</fix>
</trkpt>
<trkpt lat="40.0713749" lon="-105.229789">
  <ele>1583.0</ele>
  <time>2026-08-28T17:55:58Z</time>
  <course>247.67</course>
  <speed>0.0316227766016838</speed>
  <fix>3d</fix>
</trkpt>
<trkpt lat="40.0713749" lon="-105.229789">
  <ele>1583.0</ele>
  <time>2026-08-28T17:55:58Z</time>
  <course>0.0</course>
  <speed>0.0</speed>
  <fix>3d</fix>
</trkpt>
<trkpt lat="40.0713749" lon="-105.229789">
  <ele>1583.0</ele>
  <time>2026-08-28T17:55:59Z</time>
  <course>247.67</course>
  <speed>0.0316227766016838</speed>
  <fix>3d</fix>
</trkpt>
<trkpt lat="40.0713749" lon="-105.229789">
  <ele>1583.0</ele>
  <time>2026-08-28T17:55:59Z</time>
  <course>0.0</course>
  <speed>0.0</speed>
  <fix>3d</fix>
</trkpt>
<trkpt lat="40.0713749" lon="-105.229789">
  <ele>1583.0</ele>
  <time>2026-08-28T17:55:59Z</time>
  <course>247.66</course>
  <speed>0.0316227766016838</speed>
  <fix>3d</fix>
</trkpt>
<trkpt lat="40.0713749" lon="-105.229789">
  <ele>1583.0</ele>
  <time>2026-08-28T17:55:59Z</time>
  <course>0.0</course>
  <speed>0.0</speed>
  <fix>3d</fix>
</trkpt>
<trkpt lat="40.0713749" lon="-105.229789">
  <ele>1583.0</ele>
  <time>2026-08-28T17:55:59Z</time>
  <course>247.66</course>
  <speed>0.0316227766016838</speed>
  <fix>3d</fix>
</trkpt>
<trkpt lat="40.0713749" lon="-105.229789">
  <ele>1583.0</ele>
  <time>2026-08-28T17:55:59Z</time>
  <course>0.0</course>
  <speed>0.0</speed>
  <fix>3d</fix>
</trkpt>
<trkpt lat="40.0713749" lon="-105.229789">
  <ele>1583.0</ele>
  <time>2026-08-28T17:55:59Z</time>
  <course>247.66</course>
  <speed>0.0316227766016838</speed>
  <fix>3d</fix>
</trkpt>
<trkpt lat="40.0713749" lon="-105.229789">
  <ele>1583.0</ele>
  <time>2026-08-28T17:55:59Z</time>
  <course>0.0</course>
  <speed>0.0</speed>
  <fix>3d</fix>
</trkpt>
<trkpt lat="40.0713749" lon="-105.229789">
  <ele>1583.0</ele>
  <time>2026-08-28T17:55:59Z</time>
  <course>247.65</course>
  <speed>0.0316227766016838</speed>
  <fix>3d</fix>
</trkpt>
<trkpt lat="40.0713749" lon="-105.229789">
  <ele>1583.0</ele>
  <time>2026-08-28T17:55:59Z</time>
  <course>0.0</course>
  <speed>0.0</speed>
  <fix>3d</fix>
</trkpt>
<trkpt lat="40.0713749" lon="-105.229789">
  <ele>1583.0</ele>
  <time>2026-08-28T17:55:59Z</time>
  <course>247.65</course>
  <speed>0.0316227766016838</speed>
  <fix>3d</fix>
</trkpt>
<trkpt lat="40.0713749" lon="-105.229789">
  <ele>1583.0</ele>
  <time>2026-08-28T17:55:59Z</time>
  <course>0.0</course>
  <speed>0.0</speed>
  <fix>3d</fix>
</trkpt>
<trkpt lat="40.0713749" lon="-105.229789">
  <ele>1583.0</ele>
  <time>2026-08-28T17:55:59Z</time>
  <course>247.65</course>
  <speed>0.0316227766016838</speed>
  <fix>3d</fix>
</trkpt>
<trkpt lat="40.0713749" lon="-105.229789">
  <ele>1583.0</ele>
  <time>2026-08-28T17:55:59Z</time>
  <course>0.0</course>
  <speed>0.0</speed>
  <fix>3d</fix>
</trkpt>
<trkpt lat="40.0713749" lon="-105.229789">
  <ele>1583.0</ele>
  <time>2026-08-28T17:55:59Z</time>
  <course>247.64</course>
  <speed>0.0316227766016838</speed>
  <fix>3d</fix>
</trkpt>
<trkpt lat="40.0713749" lon="-105.229789">
  <ele>1583.0</ele>
  <time>2026-08-28T17:55:59Z</time>
  <course>0.0</course>
  <speed>0.0</speed>
  <fix>3d</fix>
</trkpt>
<trkpt lat="40.0713749" lon="-105.229789">
  <ele>1583.0</ele>
  <time>2026-08-28T17:55:59Z</time>
  <course>247.64</course>
  <speed>0.0316227766016838</speed>
  <fix>3d</fix>
</trkpt>
<trkpt lat="40.0713749" lon="-105.229789">
  <ele>1583.0</ele>
  <time>2026-08-28T17:55:59Z</time>
  <course>0.0</course>
  <speed>0.0</speed>
  <fix>3d</fix>
</trkpt>
<trkpt lat="40.0713749" lon="-105.229789">
  <ele>1583.0</ele>
  <time>2026-08-28T17:55:59Z</time>
  <course>247.64</course>
  <speed>0.0316227766016838</speed>
  <fix>3d</fix>
</trkpt>
<trkpt lat="40.0713749" lon="-105.229789">
  <ele>1583.0</ele>
  <time>2026-08-28T17:55:59Z</time>
  <course>0.0</course>
  <speed>0.0</speed>
  <fix>3d</fix>
</trkpt>
<trkpt lat="40.0713749" lon="-105.229789">
  <ele>1583.0</ele>
  <time>2026-08-28T17:55:59Z</time>
  <course>247.64</course>
  <speed>0.0316227766016838</speed>
  <fix>3d</fix>
</trkpt>
<trkpt lat="40.0713749" lon="-105.229789">
  <ele>1583.0</ele>
  <time>2026-08-28T17:55:59Z</time>
  <course>0.0</course>
  <speed>0.0</speed>
  <fix>3d</fix>
</trkpt>
<trkpt lat="40.0713749" lon="-105.229789">
  <ele>1583.0</ele>
  <time>2026-08-28T17:55:59Z</time>
  <course>247.63</course>
  <speed>0.0316227766016838</speed>
  <fix>3d</fix>
</trkpt>
<trkpt lat="40.0713749" lon="-105.229789">
  <ele>1583.0</ele>
  <time>2026-08-28T17:55:59Z</time>
  <course>0.0</course>
  <speed>0.0</speed>
  <fix>3d</fix>
</trkpt>
<trkpt lat="40.0713749" lon="-105.229789">
  <ele>1583.0</ele>
  <time>2026-08-28T17:55:59Z</time>
  <course>247.63</course>
  <speed>0.0316227766016838</speed>
  <fix>3d</fix>
</trkpt>
<trkpt lat="40.0713749" lon="-105.229789">
  <ele>1583.0</ele>
  <time>2026-08-28T17:55:59Z</time>
  <course>0.0</course>
  <speed>0.0</speed>
  <fix>3d</fix>
</trkpt>
<trkpt lat="40.0713749" lon="-105.229789">
  <ele>1583.0</ele>
  <time>2026-08-28T17:55:59Z</time>
  <course>247.63</course>
  <speed>0.0316227766016838</speed>
  <fix>3d</fix>
</trkpt>
<trkpt lat="40.0713749" lon="-105.229789">
  <ele>1583.0</ele>
  <time>2026-08-28T17:55:59Z</time>
  <course>0.0</course>
  <speed>0.0</speed>
  <fix>3d</fix>
</trkpt>
<trkpt lat="40.0713749" lon="-105.229789">
  <ele>1583.0</ele>
  <time>2026-08-28T17:55:59Z</time>
  <course>247.62</course>
  <speed>0.0316227766016838</speed>
  <fix>3d</fix>
</trkpt>
<trkpt lat="40.0713749" lon="-105.229789">
  <ele>1583.0</ele>
  <time>2026-08-28T17:55:59Z</time>
  <course>0.0</course>
  <speed>0.0</speed>
  <fix>3d</fix>
</trkpt>
<trkpt lat="40.0713749" lon="-105.229789">
  <ele>1583.0</ele>
  <time>2026-08-28T17:55:59Z</time>
  <course>247.62</course>
  <speed>0.0316227766016838</speed>
  <fix>3d</fix>
</trkpt>
<trkpt lat="40.0713749" lon="-105.229789">
  <ele>1583.0</ele>
  <time>2026-08-28T17:55:59Z</time>
  <course>0.0</course>
  <speed>0.0</speed>
  <fix>3d</fix>
</trkpt>
<trkpt lat="40.0713749" lon="-105.229789">
  <ele>1583.0</ele>
  <time>2026-08-28T17:55:59Z</time>
  <course>247.62</course>
  <speed>0.0316227766016838</speed>
  <fix>3d</fix>
</trkpt>
<trkpt lat="40.0713749" lon="-105.229789">
  <ele>1583.0</ele>
  <time>2026-08-28T17:55:59Z</time>
  <course>0.0</course>
  <speed>0.0</speed>
  <fix>3d</fix>
</trkpt>
<trkpt lat="40.0713749" lon="-105.229789">
  <ele>1583.0</ele>
  <time>2026-08-28T17:55:59Z</time>
  <course>247.62</course>
  <speed>0.0316227766016838</speed>
  <fix>3d</fix>
</trkpt>
<trkpt lat="40.0713749" lon="-105.229789">
  <ele>1583.0</ele>
  <time>2026-08-28T17:55:59Z</time>
  <course>0.0</course>
  <speed>0.0</speed>
  <fix>3d</fix>
</trkpt>
<trkpt lat="40.0713749" lon="-105.229789">
  <ele>1583.0</ele>
  <time>2026-08-28T17:55:59Z</time>
  <course>247.61</course>
  <speed>0.0316227766016838</speed>
  <fix>3d</fix>
</trkpt>
<trkpt lat="40.0713749" lon="-105.229789">
  <ele>1583.0</ele>
  <time>2026-08-28T17:55:59Z</time>
  <course>0.0</course>
  <speed>0.0</speed>
  <fix>3d</fix>
</trkpt>
<trkpt lat="40.0713749" lon="-105.229789">
  <ele>1583.0</ele>
  <time>2026-08-28T17:55:59Z</time>
  <course>247.61</course>
  <speed>0.0316227766016838</speed>
  <fix>3d</fix>
</trkpt>
<trkpt lat="40.0713749" lon="-105.229789">
  <ele>1583.0</ele>
  <time>2026-08-28T17:55:59Z</time>
  <course>0.0</course>
  <speed>0.0</speed>
  <fix>3d</fix>
</trkpt>
<trkpt lat="40.0713749" lon="-105.229789">
  <ele>1583.0</ele>
  <time>2026-08-28T17:55:59Z</time>
  <course>247.61</course>
  <speed>0.0316227766016838</speed>
  <fix>3d</fix>
</trkpt>
<trkpt lat="40.0713749" lon="-105.229789">
  <ele>1583.0</ele>
  <time>2026-08-28T17:55:59Z</time>
  <course>0.0</course>
  <speed>0.0</speed>
  <fix>3d</fix>
</trkpt>
<trkpt lat="40.0713749" lon="-105.229789">
  <ele>1583.0</ele>
  <time>2026-08-28T17:55:59Z</time>
  <course>247.6</course>
  <speed>0.0316227766016838</speed>
  <fix>3d</fix>
</trkpt>
<trkpt lat="40.0713749" lon="-105.229789">
  <ele>1583.0</ele>
  <time>2026-08-28T17:55:59Z</time>
  <course>0.0</course>
  <speed>0.0</speed>
  <fix>3d</fix>
</trkpt>
<trkpt lat="40.0713749" lon="-105.229789">
  <ele>1583.0</ele>
  <time>2026-08-28T17:55:59Z</time>
  <course>247.6</course>
  <speed>0.0316227766016838</speed>
  <fix>3d</fix>
</trkpt>
<trkpt lat="40.0713749" lon="-105.229789">
  <ele>1583.0</ele>
  <time>2026-08-28T17:55:59Z</time>
  <course>0.0</course>
  <speed>0.0</speed>
  <fix>3d</fix>
</trkpt>
<trkpt lat="40.0713749" lon="-105.229789">
  <ele>1583.0</ele>
  <time>2026-08-28T17:55:59Z</time>
  <course>247.6</course>
  <speed>0.0316227766016838</speed>
  <fix>3d</fix>
</trkpt>
<trkpt lat="40.0713749" lon="-105.229789">
  <ele>1583.0</ele>
  <time>2026-08-28T17:55:59Z</time>
  <course>0.0</course>
  <speed>0.0</speed>
  <fix>3d</fix>
</trkpt>
<trkpt lat="40.0713749" lon="-105.229789">
  <ele>1583.0</ele>
  <time>2026-08-28T17:55:59Z</time>
  <course>247.6</course>
  <speed>0.0316227766016838</speed>
  <fix>3d</fix>
</trkpt>
<trkpt lat="40.0713749" lon="-105.229789">
  <ele>1583.0</ele>
  <time>2026-08-28T17:55:59Z</time>
  <course>0.0</course>
  <speed>0.0</speed>
  <fix>3d</fix>
</trkpt>
<trkpt lat="40.0713749" lon="-105.229789">
  <ele>1583.0</ele>
  <time>2026-08-28T17:55:59Z</time>
  <course>247.59</course>
  <speed>0.0316227766016838</speed>
  <fix>3d</fix>
</trkpt>
<trkpt lat="40.0713749" lon="-105.229789">
  <ele>1583.0</ele>
  <time>2026-08-28T17:55:59Z</time>
  <course>0.0</course>
  <speed>0.0</speed>
  <fix>3d</fix>
</trkpt>
<trkpt lat="40.0713749" lon="-105.229789">
  <ele>1582.92</ele>
  <time>2026-08-28T17:55:59Z</time>
  <course>247.59</course>
  <speed>0.0</speed>
  <fix>3d</fix>
</trkpt>
<trkpt lat="40.0713749" lon="-105.229789">
  <ele>1583.0</ele>
  <time>2026-08-28T17:55:59Z</time>
  <course>0.0</course>
  <speed>0.0</speed>
  <fix>3d</fix>
</trkpt>
<trkpt lat="40.0713749" lon="-105.229789">
  <ele>1582.92</ele>
  <time>2026-08-28T17:55:59Z</time>
  <course>247.59</course>
  <speed>0.0</speed>
  <fix>3d</fix>
</trkpt>
<trkpt lat="40.0713749" lon="-105.229789">
  <ele>1583.0</ele>
  <time>2026-08-28T17:55:59Z</time>
  <course>0.0</course>
  <speed>0.0</speed>
  <fix>3d</fix>
</trkpt>
<trkpt lat="40.0713749" lon="-105.229789">
  <ele>1582.91</ele>
  <time>2026-08-28T17:55:59Z</time>
  <course>247.58</course>
  <speed>0.0</speed>
  <fix>3d</fix>
</trkpt>
<trkpt lat="40.0713749" lon="-105.229789">
  <ele>1583.0</ele>
  <time>2026-08-28T17:55:59Z</time>
  <course>0.0</course>
  <speed>0.0</speed>
  <fix>3d</fix>
</trkpt>
<trkpt lat="40.0713749" lon="-105.229789">
  <ele>1582.91</ele>
  <time>2026-08-28T17:55:59Z</time>
  <course>247.58</course>
  <speed>0.0</speed>
  <fix>3d</fix>
</trkpt>
<trkpt lat="40.0713749" lon="-105.229789">
  <ele>1583.0</ele>
  <time>2026-08-28T17:55:59Z</time>
  <course>0.0</course>
  <speed>0.0</speed>
  <fix>3d</fix>
</trkpt>
<trkpt lat="40.0713749" lon="-105.229789">
  <ele>1582.9</ele>
  <time>2026-08-28T17:55:59Z</time>
  <course>247.58</course>
  <speed>0.0</speed>
  <fix>3d</fix>
</trkpt>
<trkpt lat="40.0713749" lon="-105.229789">
  <ele>1583.0</ele>
  <time>2026-08-28T17:55:59Z</time>
  <course>0.0</course>
  <speed>0.0</speed>
  <fix>3d</fix>
</trkpt>
<trkpt lat="40.0713749" lon="-105.229789">
  <ele>1582.9</ele>
  <time>2026-08-28T17:55:59Z</time>
  <course>247.58</course>
  <speed>0.0</speed>
  <fix>3d</fix>
</trkpt>
<trkpt lat="40.0713749" lon="-105.229789">
  <ele>1583.0</ele>
  <time>2026-08-28T17:55:59Z</time>
  <course>0.0</course>
  <speed>0.0</speed>
  <fix>3d</fix>
</trkpt>
<trkpt lat="40.0713749" lon="-105.229789">
  <ele>1582.9</ele>
  <time>2026-08-28T17:55:59Z</time>
  <course>247.57</course>
  <speed>0.0</speed>
  <fix>3d</fix>
</trkpt>
<trkpt lat="40.0713749" lon="-105.229789">
  <ele>1583.0</ele>
  <time>2026-08-28T17:55:59Z</time>
  <course>0.0</course>
  <speed>0.0</speed>
  <fix>3d</fix>
</trkpt>
<trkpt lat="40.0713749" lon="-105.229789">
  <ele>1582.9</ele>
  <time>2026-08-28T17:55:59Z</time>
  <course>247.57</course>
  <speed>0.0</speed>
  <fix>3d</fix>
</trkpt>
<trkpt lat="40.0713749" lon="-105.229789">
  <ele>1583.0</ele>
  <time>2026-08-28T17:55:59Z</time>
  <course>0.0</course>
  <speed>0.0</speed>
  <fix>3d</fix>
</trkpt>
<trkpt lat="40.0713749" lon="-105.229789">
  <ele>1582.9</ele>
  <time>2026-08-28T17:55:59Z</time>
  <course>247.57</course>
  <speed>0.0</speed>
  <fix>3d</fix>
</trkpt>
<trkpt lat="40.0713749" lon="-105.229789">
  <ele>1583.0</ele>
  <time>2026-08-28T17:55:59Z</time>
  <course>0.0</course>
  <speed>0.0</speed>
  <fix>3d</fix>
</trkpt>
<trkpt lat="40.0713749" lon="-105.229789">
  <ele>1582.9</ele>
  <time>2026-08-28T17:55:59Z</time>
  <course>247.57</course>
  <speed>0.01</speed>
  <fix>3d</fix>
</trkpt>
<trkpt lat="40.0713749" lon="-105.229789">
  <ele>1582.9</ele>
  <time>2026-08-28T17:55:59Z</time>
  <course>247.57</course>
  <speed>0.01</speed>
  <fix>3d</fix>
</trkpt>
<trkpt lat="40.0713749" lon="-105.229789">
  <ele>1583.0</ele>
  <time>2026-08-28T17:55:59Z</time>
  <course>0.0</course>
  <speed>0.0</speed>
  <fix>3d</fix>
</trkpt>
<trkpt lat="40.0713749" lon="-105.229789">
  <ele>1582.9</ele>
  <time>2026-08-28T17:55:59Z</time>
  <course>247.56</course>
  <speed>0.01</speed>
  <fix>3d</fix>
</trkpt>
<trkpt lat="40.0713749" lon="-105.229789">
  <ele>1583.0</ele>
  <time>2026-08-28T17:55:59Z</time>
  <course>0.0</course>
  <speed>0.0</speed>
  <fix>3d</fix>
</trkpt>
<trkpt lat="40.0713749" lon="-105.229789">
  <ele>1582.91</ele>
  <time>2026-08-28T17:55:59Z</time>
  <course>247.56</course>
  <speed>0.01</speed>
  <fix>3d</fix>
</trkpt>
<trkpt lat="40.0713749" lon="-105.229789">
  <ele>1583.0</ele>
  <time>2026-08-28T17:55:59Z</time>
  <course>0.0</course>
  <speed>0.0</speed>
  <fix>3d</fix>
</trkpt>
<trkpt lat="40.0713749" lon="-105.229789">
  <ele>1582.91</ele>
  <time>2026-08-28T17:55:59Z</time>
  <course>247.56</course>
  <speed>0.01</speed>
  <fix>3d</fix>
</trkpt>
<trkpt lat="40.0713749" lon="-105.229789">
  <ele>1583.0</ele>
  <time>2026-08-28T17:55:59Z</time>
  <course>0.0</course>
  <speed>0.0</speed>
  <fix>3d</fix>
</trkpt>
<trkpt lat="40.0713749" lon="-105.229789">
  <ele>1582.92</ele>
  <time>2026-08-28T17:55:59Z</time>
  <course>247.56</course>
  <speed>0.01</speed>
  <fix>3d</fix>
</trkpt>
<trkpt lat="40.0713749" lon="-105.229789">
  <ele>1583.0</ele>
  <time>2026-08-28T17:55:59Z</time>
  <course>0.0</course>
  <speed>0.0</speed>
  <fix>3d</fix>
</trkpt>
<trkpt lat="40.0713749" lon="-105.229789">
  <ele>1582.92</ele>
  <time>2026-08-28T17:55:59Z</time>
  <course>247.55</course>
  <speed>0.01</speed>
  <fix>3d</fix>
</trkpt>
<trkpt lat="40.0713749" lon="-105.229789">
  <ele>1583.0</ele>
  <time>2026-08-28T17:55:59Z</time>
  <course>0.0</course>
  <speed>0.0</speed>
  <fix>3d</fix>
</trkpt>
<trkpt lat="40.0713749" lon="-105.229789">
  <ele>1582.92</ele>
  <time>2026-08-28T17:55:59Z</time>
  <course>247.55</course>
  <speed>0.01</speed>
  <fix>3d</fix>
</trkpt>
<trkpt lat="40.0713749" lon="-105.229789">
  <ele>1583.0</ele>
  <time>2026-08-28T17:55:59Z</time>
  <course>0.0</course>
  <speed>0.0</speed>
  <fix>3d</fix>
</trkpt>
<trkpt lat="40.0713749" lon="-105.229789">
  <ele>1582.93</ele>
  <time>2026-08-28T17:55:59Z</time>
  <course>247.55</course>
  <speed>0.01</speed>
  <fix>3d</fix>
</trkpt>
<trkpt lat="40.0713749" lon="-105.229789">
  <ele>1583.0</ele>
  <time>2026-08-28T17:55:59Z</time>
  <course>0.0</course>
  <speed>0.0</speed>
  <fix>3d</fix>
</trkpt>
<trkpt lat="40.0713749" lon="-105.229789">
  <ele>1582.93</ele>
  <time>2026-08-28T17:55:59Z</time>
  <course>247.55</course>
  <speed>0.01</speed>
  <fix>3d</fix>
</trkpt>
<trkpt lat="40.0713749" lon="-105.229789">
  <ele>1583.0</ele>
  <time>2026-08-28T17:55:59Z</time>
  <course>0.0</course>
  <speed>0.0</speed>
  <fix>3d</fix>
</trkpt>
<trkpt lat="40.0713749" lon="-105.229789">
  <ele>1582.93</ele>
  <time>2026-08-28T17:55:59Z</time>
  <course>247.54</course>
  <speed>0.02</speed>
  <fix>3d</fix>
</trkpt>
<trkpt lat="40.0713749" lon="-105.229789">
  <ele>1583.0</ele>
  <time>2026-08-28T17:55:59Z</time>
  <course>0.0</course>
  <speed>0.0</speed>
  <fix>3d</fix>
</trkpt>
<trkpt lat="40.0713749" lon="-105.229789">
  <ele>1582.93</ele>
  <time>2026-08-28T17:55:59Z</time>
  <course>247.54</course>
  <speed>0.02</speed>
  <fix>3d</fix>
</trkpt>
<trkpt lat="40.0713749" lon="-105.229789">
  <ele>1583.0</ele>
  <time>2026-08-28T17:55:59Z</time>
  <course>0.0</course>
  <speed>0.0</speed>
  <fix>3d</fix>
</trkpt>
<trkpt lat="40.0713749" lon="-105.229789">
  <ele>1582.93</ele>
  <time>2026-08-28T17:55:59Z</time>
  <course>247.54</course>
  <speed>0.02</speed>
  <fix>3d</fix>
</trkpt>
<trkpt lat="40.0713749" lon="-105.229789">
  <ele>1583.0</ele>
  <time>2026-08-28T17:55:59Z</time>
  <course>0.0</course>
  <speed>0.0</speed>
  <fix>3d</fix>
</trkpt>
<trkpt lat="40.0713749" lon="-105.229789">
  <ele>1582.93</ele>
  <time>2026-08-28T17:55:59Z</time>
  <course>247.54</course>
  <speed>0.022360679774997897</speed>
  <fix>3d</fix>
</trkpt>
<trkpt lat="40.0713749" lon="-105.229789">
  <ele>1583.0</ele>
  <time>2026-08-28T17:55:59Z</time>
  <course>0.0</course>
  <speed>0.0</speed>
  <fix>3d</fix>
</trkpt>
<trkpt lat="40.0713749" lon="-105.229789">
  <ele>1582.94</ele>
  <time>2026-08-28T17:55:59Z</time>
  <course>247.53</course>
  <speed>0.022360679774997897</speed>
  <fix>3d</fix>
</trkpt>
<trkpt lat="40.0713749" lon="-105.229789">
  <ele>1583.0</ele>
  <time>2026-08-28T17:55:59Z</time>
  <course>0.0</course>
  <speed>0.0</speed>
  <fix>3d</fix>
</trkpt>
<trkpt lat="40.0713749" lon="-105.229789">
  <ele>1582.94</ele>
  <time>2026-08-28T17:55:59Z</time>
  <course>247.53</course>
  <speed>0.022360679774997897</speed>
  <fix>3d</fix>
</trkpt>
<trkpt lat="40.0713749" lon="-105.229789">
  <ele>1583.0</ele>
  <time>2026-08-28T17:55:59Z</time>
  <course>0.0</course>
  <speed>0.0</speed>
  <fix>3d</fix>
</trkpt>
<trkpt lat="40.071375" lon="-105.229789">
  <ele>1582.94</ele>
  <time>2026-08-28T17:55:59Z</time>
  <course>247.53</course>
  <speed>0.022360679774997897</speed>
  <fix>3d</fix>
</trkpt>
<trkpt lat="40.0713749" lon="-105.229789">
  <ele>1583.0</ele>
  <time>2026-08-28T17:55:59Z</time>
  <course>0.0</course>
  <speed>0.0</speed>
  <fix>3d</fix>
</trkpt>
<trkpt lat="40.071375" lon="-105.229789">
  <ele>1582.95</ele>
  <time>2026-08-28T17:55:59Z</time>
  <course>247.53</course>
  <speed>0.022360679774997897</speed>
  <fix>3d</fix>
</trkpt>
<trkpt lat="40.0713749" lon="-105.229789">
  <ele>1583.0</ele>
  <time>2026-08-28T17:55:59Z</time>
  <course>0.0</course>
  <speed>0.0</speed>
  <fix>3d</fix>
</trkpt>
<trkpt lat="40.071375" lon="-105.229789">
  <ele>1582.95</ele>
  <time>2026-08-28T17:55:59Z</time>
  <course>247.53</course>
  <speed>0.022360679774997897</speed>
  <fix>3d</fix>
</trkpt>
<trkpt lat="40.0713749" lon="-105.229789">
  <ele>1583.0</ele>
  <time>2026-08-28T17:55:59Z</time>
  <course>0.0</course>
  <speed>0.0</speed>
  <fix>3d</fix>
</trkpt>
<trkpt lat="40.071375" lon="-105.229789">
  <ele>1582.95</ele>
  <time>2026-08-28T17:55:59Z</time>
  <course>247.52</course>
  <speed>0.022360679774997897</speed>
  <fix>3d</fix>
</trkpt>
<trkpt lat="40.0713749" lon="-105.229789">
  <ele>1583.0</ele>
  <time>2026-08-28T17:55:59Z</time>
  <course>0.0</course>
  <speed>0.0</speed>
  <fix>3d</fix>
</trkpt>
<trkpt lat="40.071375" lon="-105.229789">
  <ele>1582.95</ele>
  <time>2026-08-28T17:55:59Z</time>
  <course>247.52</course>
  <speed>0.022360679774997897</speed>
  <fix>3d</fix>
</trkpt>
<trkpt lat="40.0713749" lon="-105.229789">
  <ele>1583.0</ele>
  <time>2026-08-28T17:55:59Z</time>
  <course>0.0</course>
  <speed>0.0</speed>
  <fix>3d</fix>
</trkpt>
<trkpt lat="40.071375" lon="-105.229789">
  <ele>1582.95</ele>
  <time>2026-08-28T17:55:59Z</time>
  <course>247.52</course>
  <speed>0.022360679774997897</speed>
  <fix>3d</fix>
</trkpt>
<trkpt lat="40.0713749" lon="-105.229789">
  <ele>1583.0</ele>
  <time>2026-08-28T17:55:59Z</time>
  <course>0.0</course>
  <speed>0.0</speed>
  <fix>3d</fix>
</trkpt>
<trkpt lat="40.071375" lon="-105.229789">
  <ele>1582.95</ele>
  <time>2026-08-28T17:55:59Z</time>
  <course>247.52</course>
  <speed>0.022360679774997897</speed>
  <fix>3d</fix>
</trkpt>
<trkpt lat="40.0713749" lon="-105.229789">
  <ele>1583.0</ele>
  <time>2026-08-28T17:55:59Z</time>
  <course>0.0</course>
  <speed>0.0</speed>
  <fix>3d</fix>
</trkpt>
<trkpt lat="40.071375" lon="-105.229789">
  <ele>1582.95</ele>
  <time>2026-08-28T17:55:59Z</time>
  <course>247.51</course>
  <speed>0.0316227766016838</speed>
  <fix>3d</fix>
</trkpt>
<trkpt lat="40.0713749" lon="-105.229789">
  <ele>1583.0</ele>
  <time>2026-08-28T17:55:59Z</time>
  <course>0.0</course>
  <speed>0.0</speed>
  <fix>3d</fix>
</trkpt>
<trkpt lat="40.071375" lon="-105.229789">
  <ele>1582.95</ele>
  <time>2026-08-28T17:55:59Z</time>
  <course>247.51</course>
  <speed>0.0316227766016838</speed>
  <fix>3d</fix>
</trkpt>
<trkpt lat="40.0713749" lon="-105.229789">
  <ele>1583.0</ele>
  <time>2026-08-28T17:55:59Z</time>
  <course>0.0</course>
  <speed>0.0</speed>
  <fix>3d</fix>
</trkpt>
<trkpt lat="40.071375" lon="-105.229789">
  <ele>1582.95</ele>
  <time>2026-08-28T17:55:59Z</time>
  <course>247.51</course>
  <speed>0.0316227766016838</speed>
  <fix>3d</fix>
</trkpt>
<trkpt lat="40.0713749" lon="-105.229789">
  <ele>1583.0</ele>
  <time>2026-08-28T17:55:59Z</time>
  <course>0.0</course>
  <speed>0.0</speed>
  <fix>3d</fix>
</trkpt>
<trkpt lat="40.071375" lon="-105.2297889">
  <ele>1582.95</ele>
  <time>2026-08-28T17:55:59Z</time>
  <course>247.51</course>
  <speed>0.0316227766016838</speed>
  <fix>3d</fix>
</trkpt>
<trkpt lat="40.0713749" lon="-105.229789">
  <ele>1583.0</ele>
  <time>2026-08-28T17:55:59Z</time>
  <course>0.0</course>
  <speed>0.0</speed>
  <fix>3d</fix>
</trkpt>
<trkpt lat="39.655741" lon="-104.1383097">
  <ele>1566.58</ele>
  <time>2026-08-28T17:55:59Z</time>
  <course>0.0</course>
  <speed>0.0</speed>
  <fix>3d</fix>
</trkpt>
<trkpt lat="40.0713749" lon="-105.229789">
  <ele>1583.0</ele>
  <time>2026-08-28T17:55:59Z</time>
  <course>0.0</course>
  <speed>0.0</speed>
  <fix>3d</fix>
</trkpt>
<trkpt lat="40.0713749" lon="-105.229789">
  <ele>1583.0</ele>
  <time>2026-08-28T17:55:59Z</time>
  <course>238.36</course>
  <speed>0.0</speed>
  <fix>3d</fix>
</trkpt>
<trkpt lat="40.0713749" lon="-105.229789">
  <ele>1583.0</ele>
  <time>2026-08-28T17:55:59Z</time>
  <course>0.0</course>
  <speed>0.0</speed>
  <fix>3d</fix>
</trkpt>
<trkpt lat="40.0713749" lon="-105.229789">
  <ele>1583.0</ele>
  <time>2026-08-28T17:55:59Z</time>
  <course>238.44</course>
  <speed>0.0</speed>
  <fix>3d</fix>
</trkpt>
<trkpt lat="40.0713749" lon="-105.229789">
  <ele>1583.0</ele>
  <time>2026-08-28T17:55:59Z</time>
  <course>0.0</course>
  <speed>0.0</speed>
  <fix>3d</fix>
</trkpt>
<trkpt lat="40.0713749" lon="-105.229789">
  <ele>1583.0</ele>
  <time>2026-08-28T17:55:59Z</time>
  <course>238.64</course>
  <speed>0.0</speed>
  <fix>3d</fix>
</trkpt>
<trkpt lat="40.0713749" lon="-105.229789">
  <ele>1583.0</ele>
  <time>2026-08-28T17:55:59Z</time>
  <course>0.0</course>
  <speed>0.0</speed>
  <fix>3d</fix>
</trkpt>
<trkpt lat="40.0713749" lon="-105.229789">
  <ele>1583.0</ele>
  <time>2026-08-28T17:55:59Z</time>
  <course>238.93</course>
  <speed>0.0</speed>
  <fix>3d</fix>
</trkpt>
<trkpt lat="40.0713749" lon="-105.229789">
  <ele>1583.0</ele>
  <time>2026-08-28T17:55:59Z</time>
  <course>0.0</course>
  <speed>0.0</speed>
  <fix>3d</fix>
</trkpt>
<trkpt lat="40.0713749" lon="-105.229789">
  <ele>1583.0</ele>
  <time>2026-08-28T17:55:59Z</time>
  <course>239.26</course>
  <speed>0.0</speed>
  <fix>3d</fix>
</trkpt>
<trkpt lat="40.0713749" lon="-105.229789">
  <ele>1583.0</ele>
  <time>2026-08-28T17:55:59Z</time>
  <course>0.0</course>
  <speed>0.0</speed>
  <fix>3d</fix>
</trkpt>
<trkpt lat="40.0713749" lon="-105.229789">
  <ele>1583.0</ele>
  <time>2026-08-28T17:55:59Z</time>
  <course>239.61</course>
  <speed>0.0</speed>
  <fix>3d</fix>
</trkpt>
<trkpt lat="40.0713749" lon="-105.229789">
  <ele>1583.0</ele>
  <time>2026-08-28T17:55:59Z</time>
  <course>0.0</course>
  <speed>0.0</speed>
  <fix>3d</fix>
</trkpt>
<trkpt lat="40.0713749" lon="-105.229789">
  <ele>1583.0</ele>
  <time>2026-08-28T17:55:59Z</time>
  <course>239.96</course>
  <speed>0.0</speed>
  <fix>3d</fix>
</trkpt>
<trkpt lat="40.0713749" lon="-105.229789">
  <ele>1583.0</ele>
  <time>2026-08-28T17:55:59Z</time>
  <course>0.0</course>
  <speed>0.0</speed>
  <fix>3d</fix>
</trkpt>
<trkpt lat="40.0713749" lon="-105.229789">
  <ele>1583.0</ele>
  <time>2026-08-28T17:55:59Z</time>
  <course>240.29</course>
  <speed>0.0</speed>
  <fix>3d</fix>
</trkpt>
<trkpt lat="40.0713749" lon="-105.229789">
  <ele>1583.0</ele>
  <time>2026-08-28T17:55:59Z</time>
  <course>0.0</course>
  <speed>0.0</speed>
  <fix>3d</fix>
</trkpt>
<trkpt lat="40.0713749" lon="-105.229789">
  <ele>1583.0</ele>
  <time>2026-08-28T17:55:59Z</time>
  <course>240.61</course>
  <speed>0.0</speed>
  <fix>3d</fix>
</trkpt>
<trkpt lat="40.0713749" lon="-105.229789">
  <ele>1583.0</ele>
  <time>2026-08-28T17:55:59Z</time>
  <course>0.0</course>
  <speed>0.0</speed>
  <fix>3d</fix>
</trkpt>
<trkpt lat="40.0713749" lon="-105.229789">
  <ele>1583.0</ele>
  <time>2026-08-28T17:55:59Z</time>
  <course>240.92</course>
  <speed>0.0</speed>
  <fix>3d</fix>
</trkpt>
<trkpt lat="40.0713749" lon="-105.229789">
  <ele>1583.0</ele>
  <time>2026-08-28T17:55:59Z</time>
  <course>0.0</course>
  <speed>0.0</speed>
  <fix>3d</fix>
</trkpt>
<trkpt lat="40.0713749" lon="-105.229789">
  <ele>1583.0</ele>
  <time>2026-08-28T17:55:59Z</time>
  <course>241.21</course>
  <speed>0.0</speed>
  <fix>3d</fix>
</trkpt>
<trkpt lat="40.0713749" lon="-105.229789">
  <ele>1583.0</ele>
  <time>2026-08-28T17:55:59Z</time>
  <course>0.0</course>
  <speed>0.0</speed>
  <fix>3d</fix>
</trkpt>
<trkpt lat="40.0713749" lon="-105.229789">
  <ele>1583.0</ele>
  <time>2026-08-28T17:55:59Z</time>
  <course>241.49</course>
  <speed>0.0</speed>
  <fix>3d</fix>
</trkpt>
<trkpt lat="40.0713749" lon="-105.229789">
  <ele>1583.0</ele>
  <time>2026-08-28T17:55:59Z</time>
  <course>0.0</course>
  <speed>0.0</speed>
  <fix>3d</fix>
</trkpt>
<trkpt lat="40.0713749" lon="-105.229789">
  <ele>1583.0</ele>
  <time>2026-08-28T17:55:59Z</time>
  <course>241.77</course>
  <speed>0.0</speed>
  <fix>3d</fix>
</trkpt>
<trkpt lat="40.0713749" lon="-105.229789">
  <ele>1583.0</ele>
  <time>2026-08-28T17:55:59Z</time>
  <course>0.0</course>
  <speed>0.0</speed>
  <fix>3d</fix>
</trkpt>
<trkpt lat="40.0713749" lon="-105.229789">
  <ele>1583.0</ele>
  <time>2026-08-28T17:55:59Z</time>
  <course>242.03</course>
  <speed>0.0</speed>
  <fix>3d</fix>
</trkpt>
<trkpt lat="40.0713749" lon="-105.229789">
  <ele>1583.0</ele>
  <time>2026-08-28T17:55:59Z</time>
  <course>0.0</course>
  <speed>0.0</speed>
  <fix>3d</fix>
</trkpt>
<trkpt lat="40.0713749" lon="-105.229789">
  <ele>1583.0</ele>
  <time>2026-08-28T17:55:59Z</time>
  <course>242.29</course>
  <speed>0.0</speed>
  <fix>3d</fix>
</trkpt>
<trkpt lat="40.0713749" lon="-105.229789">
  <ele>1583.0</ele>
  <time>2026-08-28T17:55:59Z</time>
  <course>0.0</course>
  <speed>0.0</speed>
  <fix>3d</fix>
</trkpt>
<trkpt lat="40.0713749" lon="-105.229789">
  <ele>1583.0</ele>
  <time>2026-08-28T17:55:59Z</time>
  <course>242.54</course>
  <speed>0.0</speed>
  <fix>3d</fix>
</trkpt>
<trkpt lat="40.0713749" lon="-105.229789">
  <ele>1583.0</ele>
  <time>2026-08-28T17:55:59Z</time>
  <course>0.0</course>
  <speed>0.0</speed>
  <fix>3d</fix>
</trkpt>
<trkpt lat="40.0713749" lon="-105.229789">
  <ele>1583.0</ele>
  <time>2026-08-28T17:55:59Z</time>
  <course>242.79</course>
  <speed>0.0</speed>
  <fix>3d</fix>
</trkpt>
<trkpt lat="40.0713749" lon="-105.229789">
  <ele>1583.0</ele>
  <time>2026-08-28T17:55:59Z</time>
  <course>0.0</course>
  <speed>0.0</speed>
  <fix>3d</fix>
</trkpt>
<trkpt lat="40.0713749" lon="-105.229789">
  <ele>1583.0</ele>
  <time>2026-08-28T17:55:59Z</time>
  <course>243.02</course>
  <speed>0.0</speed>
  <fix>3d</fix>
</trkpt>
<trkpt lat="40.0713749" lon="-105.229789">
  <ele>1583.0</ele>
  <time>2026-08-28T17:55:59Z</time>
  <course>0.0</course>
  <speed>0.0</speed>
  <fix>3d</fix>
</trkpt>
<trkpt lat="40.0713749" lon="-105.229789">
  <ele>1583.0</ele>
  <time>2026-08-28T17:55:59Z</time>
  <course>243.25</course>
  <speed>0.0</speed>
  <fix>3d</fix>
</trkpt>
<trkpt lat="40.0713749" lon="-105.229789">
  <ele>1583.0</ele>
  <time>2026-08-28T17:55:59Z</time>
  <course>0.0</course>
  <speed>0.0</speed>
  <fix>3d</fix>
</trkpt>
<trkpt lat="40.0713749" lon="-105.229789">
  <ele>1583.0</ele>
  <time>2026-08-28T17:55:59Z</time>
  <course>243.47</course>
  <speed>0.0</speed>
  <fix>3d</fix>
</trkpt>
<trkpt lat="40.0713749" lon="-105.229789">
  <ele>1583.0</ele>
  <time>2026-08-28T17:55:59Z</time>
  <course>0.0</course>
  <speed>0.0</speed>
  <fix>3d</fix>
</trkpt>
<trkpt lat="40.0713749" lon="-105.229789">
  <ele>1583.0</ele>
  <time>2026-08-28T17:55:59Z</time>
  <course>243.68</course>
  <speed>0.0</speed>
  <fix>3d</fix>
</trkpt>
<trkpt lat="40.0713749" lon="-105.229789">
  <ele>1583.0</ele>
  <time>2026-08-28T17:55:59Z</time>
  <course>0.0</course>
  <speed>0.0</speed>
  <fix>3d</fix>
</trkpt>
<trkpt lat="40.0713749" lon="-105.229789">
  <ele>1583.0</ele>
  <time>2026-08-28T17:55:59Z</time>
  <course>243.89</course>
  <speed>0.0</speed>
  <fix>3d</fix>
</trkpt>
<trkpt lat="40.0713749" lon="-105.229789">
  <ele>1583.0</ele>
  <time>2026-08-28T17:55:59Z</time>
  <course>0.0</course>
  <speed>0.0</speed>
  <fix>3d</fix>
</trkpt>
<trkpt lat="40.0713749" lon="-105.229789">
  <ele>1583.0</ele>
  <time>2026-08-28T17:55:59Z</time>
  <course>244.09</course>
  <speed>0.0</speed>
  <fix>3d</fix>
</trkpt>
<trkpt lat="40.0713749" lon="-105.229789">
  <ele>1583.0</ele>
  <time>2026-08-28T17:55:59Z</time>
  <course>0.0</course>
  <speed>0.0</speed>
  <fix>3d</fix>
</trkpt>
<trkpt lat="40.0713749" lon="-105.229789">
  <ele>1583.0</ele>
  <time>2026-08-28T17:55:59Z</time>
  <course>244.28</course>
  <speed>0.0</speed>
  <fix>3d</fix>
</trkpt>
<trkpt lat="40.0713749" lon="-105.229789">
  <ele>1583.0</ele>
  <time>2026-08-28T17:55:59Z</time>
  <course>0.0</course>
  <speed>0.0</speed>
  <fix>3d</fix>
</trkpt>
<trkpt lat="40.0713749" lon="-105.229789">
  <ele>1583.0</ele>
  <time>2026-08-28T17:55:59Z</time>
  <course>244.46</course>
  <speed>0.0</speed>
  <fix>3d</fix>
</trkpt>
<trkpt lat="40.0713749" lon="-105.229789">
  <ele>1583.0</ele>
  <time>2026-08-28T17:55:59Z</time>
  <course>0.0</course>
  <speed>0.0</speed>
  <fix>3d</fix>
</trkpt>
<trkpt lat="40.0713749" lon="-105.229789">
  <ele>1583.0</ele>
  <time>2026-08-28T17:55:59Z</time>
  <course>244.64</course>
  <speed>0.0</speed>
  <fix>3d</fix>
</trkpt>
<trkpt lat="40.0713749" lon="-105.229789">
  <ele>1583.0</ele>
  <time>2026-08-28T17:55:59Z</time>
  <course>0.0</course>
  <speed>0.0</speed>
  <fix>3d</fix>
</trkpt>
<trkpt lat="40.0713749" lon="-105.229789">
  <ele>1583.0</ele>
  <time>2026-08-28T17:55:59Z</time>
  <course>244.81</course>
  <speed>0.0</speed>
  <fix>3d</fix>
</trkpt>
<trkpt lat="40.0713749" lon="-105.229789">
  <ele>1583.0</ele>
  <time>2026-08-28T17:55:59Z</time>
  <course>0.0</course>
  <speed>0.0</speed>
  <fix>3d</fix>
</trkpt>
<trkpt lat="40.0713749" lon="-105.229789">
  <ele>1583.0</ele>
  <time>2026-08-28T17:55:59Z</time>
  <course>244.97</course>
  <speed>0.0</speed>
  <fix>3d</fix>
</trkpt>
<trkpt lat="40.0713749" lon="-105.229789">
  <ele>1583.0</ele>
  <time>2026-08-28T17:55:59Z</time>
  <course>0.0</course>
  <speed>0.0</speed>
  <fix>3d</fix>
</trkpt>
<trkpt lat="40.0713749" lon="-105.229789">
  <ele>1583.0</ele>
  <time>2026-08-28T17:55:59Z</time>
  <course>245.13</course>
  <speed>0.0</speed>
  <fix>3d</fix>
</trkpt>
<trkpt lat="40.0713749" lon="-105.229789">
  <ele>1583.0</ele>
  <time>2026-08-28T17:55:59Z</time>
  <course>0.0</course>
  <speed>0.0</speed>
  <fix>3d</fix>
</trkpt>
<trkpt lat="40.0713749" lon="-105.229789">
  <ele>1583.0</ele>
  <time>2026-08-28T17:55:59Z</time>
  <course>245.29</course>
  <speed>0.0</speed>
  <fix>3d</fix>
</trkpt>
<trkpt lat="40.0713749" lon="-105.229789">
  <ele>1583.0</ele>
  <time>2026-08-28T17:55:59Z</time>
  <course>0.0</course>
  <speed>0.0</speed>
  <fix>3d</fix>
</trkpt>
<trkpt lat="40.0713749" lon="-105.229789">
  <ele>1583.0</ele>
  <time>2026-08-28T17:55:59Z</time>
  <course>245.43</course>
  <speed>0.0</speed>
  <fix>3d</fix>
</trkpt>
<trkpt lat="40.0713749" lon="-105.229789">
  <ele>1583.0</ele>
  <time>2026-08-28T17:55:59Z</time>
  <course>0.0</course>
  <speed>0.0</speed>
  <fix>3d</fix>
</trkpt>
<trkpt lat="40.0713749" lon="-105.229789">
  <ele>1583.0</ele>
  <time>2026-08-28T17:55:59Z</time>
  <course>245.57</course>
  <speed>0.0</speed>
  <fix>3d</fix>
</trkpt>
<trkpt lat="40.0713749" lon="-105.229789">
  <ele>1583.0</ele>
  <time>2026-08-28T17:55:59Z</time>
  <course>0.0</course>
  <speed>0.0</speed>
  <fix>3d</fix>
</trkpt>
<trkpt lat="40.0713749" lon="-105.229789">
  <ele>1583.0</ele>
  <time>2026-08-28T17:55:59Z</time>
  <course>245.71</course>
  <speed>0.0</speed>
  <fix>3d</fix>
</trkpt>
<trkpt lat="40.0713749" lon="-105.229789">
  <ele>1583.0</ele>
  <time>2026-08-28T17:55:59Z</time>
  <course>0.0</course>
  <speed>0.0</speed>
  <fix>3d</fix>
</trkpt>
<trkpt lat="40.0713749" lon="-105.229789">
  <ele>1583.0</ele>
  <time>2026-08-28T17:55:59Z</time>
  <course>245.84</course>
  <speed>0.0</speed>
  <fix>3d</fix>
</trkpt>
<trkpt lat="40.0713749" lon="-105.229789">
  <ele>1583.0</ele>
  <time>2026-08-28T17:55:59Z</time>
  <course>0.0</course>
  <speed>0.0</speed>
  <fix>3d</fix>
</trkpt>
<trkpt lat="40.0713749" lon="-105.229789">
  <ele>1583.0</ele>
  <time>2026-08-28T17:55:59Z</time>
  <course>245.96</course>
  <speed>0.0</speed>
  <fix>3d</fix>
</trkpt>
<trkpt lat="40.0713749" lon="-105.229789">
  <ele>1583.0</ele>
  <time>2026-08-28T17:55:59Z</time>
  <course>0.0</course>
  <speed>0.0</speed>
  <fix>3d</fix>
</trkpt>
<trkpt lat="40.0713749" lon="-105.229789">
  <ele>1583.0</ele>
  <time>2026-08-28T17:55:59Z</time>
  <course>246.08</course>
  <speed>0.0</speed>
  <fix>3d</fix>
</trkpt>
<trkpt lat="40.0713749" lon="-105.229789">
  <ele>1583.0</ele>
  <time>2026-08-28T17:55:59Z</time>
  <course>0.0</course>
  <speed>0.0</speed>
  <fix>3d</fix>
</trkpt>
<trkpt lat="40.0713749" lon="-105.229789">
  <ele>1583.0</ele>
  <time>2026-08-28T17:55:59Z</time>
  <course>246.19</course>
  <speed>0.0</speed>
  <fix>3d</fix>
</trkpt>
<trkpt lat="40.0713749" lon="-105.229789">
  <ele>1583.0</ele>
  <time>2026-08-28T17:55:59Z</time>
  <course>0.0</course>
  <speed>0.0</speed>
  <fix>3d</fix>
</trkpt>
<trkpt lat="40.0713749" lon="-105.229789">
  <ele>1583.0</ele>
  <time>2026-08-28T17:55:59Z</time>
  <course>246.3</course>
  <speed>0.0</speed>
  <fix>3d</fix>
</trkpt>
<trkpt lat="40.0713749" lon="-105.229789">
  <ele>1583.0</ele>
  <time>2026-08-28T17:55:59Z</time>
  <course>0.0</course>
  <speed>0.0</speed>
  <fix>3d</fix>
</trkpt>
<trkpt lat="40.0713749" lon="-105.229789">
  <ele>1583.0</ele>
  <time>2026-08-28T17:55:59Z</time>
  <course>246.41</course>
  <speed>0.0</speed>
  <fix>3d</fix>
</trkpt>
<trkpt lat="40.0713749" lon="-105.229789">
  <ele>1583.0</ele>
  <time>2026-08-28T17:55:59Z</time>
  <course>0.0</course>
  <speed>0.0</speed>
  <fix>3d</fix>
</trkpt>
<trkpt lat="40.0713749" lon="-105.229789">
  <ele>1583.0</ele>
  <time>2026-08-28T17:55:59Z</time>
  <course>246.51</course>
  <speed>0.0</speed>
  <fix>3d</fix>
</trkpt>
<trkpt lat="40.0713749" lon="-105.229789">
  <ele>1583.0</ele>
  <time>2026-08-28T17:55:59Z</time>
  <course>0.0</course>
  <speed>0.0</speed>
  <fix>3d</fix>
</trkpt>
<trkpt lat="40.0713749" lon="-105.229789">
  <ele>1583.0</ele>
  <time>2026-08-28T17:55:59Z</time>
  <course>246.6</course>
  <speed>0.0</speed>
  <fix>3d</fix>
</trkpt>
<trkpt lat="40.0713749" lon="-105.229789">
  <ele>1583.0</ele>
  <time>2026-08-28T17:55:59Z</time>
  <course>0.0</course>
  <speed>0.0</speed>
  <fix>3d</fix>
</trkpt>
<trkpt lat="40.0713749" lon="-105.229789">
  <ele>1583.0</ele>
  <time>2026-08-28T17:55:59Z</time>
  <course>246.7</course>
  <speed>0.0</speed>
  <fix>3d</fix>
</trkpt>
<trkpt lat="40.0713749" lon="-105.229789">
  <ele>1583.0</ele>
  <time>2026-08-28T17:55:59Z</time>
  <course>0.0</course>
  <speed>0.0</speed>
  <fix>3d</fix>
</trkpt>
<trkpt lat="40.0713749" lon="-105.229789">
  <ele>1583.0</ele>
  <time>2026-08-28T17:55:59Z</time>
  <course>246.78</course>
  <speed>0.0</speed>
  <fix>3d</fix>
</trkpt>
<trkpt lat="40.0713749" lon="-105.229789">
  <ele>1583.0</ele>
  <time>2026-08-28T17:55:59Z</time>
  <course>0.0</course>
  <speed>0.0</speed>
  <fix>3d</fix>
</trkpt>
<trkpt lat="40.0713749" lon="-105.229789">
  <ele>1583.0</ele>
  <time>2026-08-28T17:55:59Z</time>
  <course>246.87</course>
  <speed>0.0</speed>
  <fix>3d</fix>
</trkpt>
<trkpt lat="40.0713749" lon="-105.229789">
  <ele>1583.0</ele>
  <time>2026-08-28T17:55:59Z</time>
  <course>0.0</course>
  <speed>0.0</speed>
  <fix>3d</fix>
</trkpt>
<trkpt lat="40.0713749" lon="-105.229789">
  <ele>1583.0</ele>
  <time>2026-08-28T17:55:59Z</time>
  <course>246.95</course>
  <speed>0.0</speed>
  <fix>3d</fix>
</trkpt>
<trkpt lat="40.0713749" lon="-105.229789">
  <ele>1583.0</ele>
  <time>2026-08-28T17:55:59Z</time>
  <course>0.0</course>
  <speed>0.0</speed>
  <fix>3d</fix>
</trkpt>
<trkpt lat="40.0713749" lon="-105.229789">
  <ele>1583.0</ele>
  <time>2026-08-28T17:55:59Z</time>
  <course>247.02</course>
  <speed>0.0</speed>
  <fix>3d</fix>
</trkpt>
<trkpt lat="40.0713749" lon="-105.229789">
  <ele>1583.0</ele>
  <time>2026-08-28T17:55:59Z</time>
  <course>0.0</course>
  <speed>0.0</speed>
  <fix>3d</fix>
</trkpt>
<trkpt lat="40.0713749" lon="-105.229789">
  <ele>1583.0</ele>
  <time>2026-08-28T17:55:59Z</time>
  <course>247.1</course>
  <speed>0.0</speed>
  <fix>3d</fix>
</trkpt>
<trkpt lat="40.0713749" lon="-105.229789">
  <ele>1583.0</ele>
  <time>2026-08-28T17:55:59Z</time>
  <course>0.0</course>
  <speed>0.0</speed>
  <fix>3d</fix>
</trkpt>
<trkpt lat="40.0713749" lon="-105.229789">
  <ele>1583.0</ele>
  <time>2026-08-28T17:55:59Z</time>
  <course>247.17</course>
  <speed>0.0</speed>
  <fix>3d</fix>
</trkpt>
<trkpt lat="40.0713749" lon="-105.229789">
  <ele>1583.0</ele>
  <time>2026-08-28T17:55:59Z</time>
  <course>0.0</course>
  <speed>0.0</speed>
  <fix>3d</fix>
</trkpt>
<trkpt lat="40.0713749" lon="-105.229789">
  <ele>1583.0</ele>
  <time>2026-08-28T17:55:59Z</time>
  <course>247.24</course>
  <speed>0.0</speed>
  <fix>3d</fix>
</trkpt>
<trkpt lat="40.0713749" lon="-105.229789">
  <ele>1583.0</ele>
  <time>2026-08-28T17:55:59Z</time>
  <course>0.0</course>
  <speed>0.0</speed>
  <fix>3d</fix>
</trkpt>
<trkpt lat="40.0713749" lon="-105.229789">
  <ele>1583.0</ele>
  <time>2026-08-28T17:55:59Z</time>
  <course>247.3</course>
  <speed>0.0</speed>
  <fix>3d</fix>
</trkpt>
<trkpt lat="40.0713749" lon="-105.229789">
  <ele>1583.0</ele>
  <time>2026-08-28T17:55:59Z</time>
  <course>0.0</course>
  <speed>0.0</speed>
  <fix>3d</fix>
</trkpt>
<trkpt lat="40.0713749" lon="-105.229789">
  <ele>1583.0</ele>
  <time>2026-08-28T17:55:59Z</time>
  <course>247.36</course>
  <speed>0.0</speed>
  <fix>3d</fix>
</trkpt>
<trkpt lat="40.0713749" lon="-105.229789">
  <ele>1583.0</ele>
  <time>2026-08-28T17:55:59Z</time>
  <course>0.0</course>
  <speed>0.0</speed>
  <fix>3d</fix>
</trkpt>
<trkpt lat="40.0713749" lon="-105.229789">
  <ele>1583.0</ele>
  <time>2026-08-28T17:55:59Z</time>
  <course>247.42</course>
  <speed>0.0</speed>
  <fix>3d</fix>
</trkpt>
<trkpt lat="40.0713749" lon="-105.229789">
  <ele>1583.0</ele>
  <time>2026-08-28T17:55:59Z</time>
  <course>0.0</course>
  <speed>0.0</speed>
  <fix>3d</fix>
</trkpt>
<trkpt lat="40.0713749" lon="-105.229789">
  <ele>1583.0</ele>
  <time>2026-08-28T17:55:59Z</time>
  <course>247.47</course>
  <speed>0.0</speed>
  <fix>3d</fix>
</trkpt>
<trkpt lat="40.0713749" lon="-105.229789">
  <ele>1583.0</ele>
  <time>2026-08-28T17:55:59Z</time>
  <course>0.0</course>
  <speed>0.0</speed>
  <fix>3d</fix>
</trkpt>
<trkpt lat="40.0713749" lon="-105.229789">
  <ele>1583.0</ele>
  <time>2026-08-28T17:55:59Z</time>
  <course>247.53</course>
  <speed>0.0</speed>
  <fix>3d</fix>
</trkpt>
<trkpt lat="40.0713749" lon="-105.229789">
  <ele>1583.0</ele>
  <time>2026-08-28T17:55:59Z</time>
  <course>0.0</course>
  <speed>0.0</speed>
  <fix>3d</fix>
</trkpt>
<trkpt lat="40.0713749" lon="-105.229789">
  <ele>1583.0</ele>
  <time>2026-08-28T17:55:59Z</time>
  <course>247.58</course>
  <speed>0.0</speed>
  <fix>3d</fix>
</trkpt>
<trkpt lat="40.0713749" lon="-105.229789">
  <ele>1583.0</ele>
  <time>2026-08-28T17:55:59Z</time>
  <course>0.0</course>
  <speed>0.0</speed>
  <fix>3d</fix>
</trkpt>
<trkpt lat="40.0713749" lon="-105.229789">
  <ele>1583.0</ele>
  <time>2026-08-28T17:55:59Z</time>
  <course>247.63</course>
  <speed>0.0</speed>
  <fix>3d</fix>
</trkpt>
<trkpt lat="40.0713749" lon="-105.229789">
  <ele>1583.0</ele>
  <time>2026-08-28T17:55:59Z</time>
  <course>0.0</course>
  <speed>0.0</speed>
  <fix>3d</fix>
</trkpt>
<trkpt lat="40.0713749" lon="-105.229789">
  <ele>1583.0</ele>
  <time>2026-08-28T17:55:59Z</time>
  <course>247.67</course>
  <speed>0.0</speed>
  <fix>3d</fix>
</trkpt>
<trkpt lat="40.0713749" lon="-105.229789">
  <ele>1583.0</ele>
  <time>2026-08-28T17:55:59Z</time>
  <course>0.0</course>
  <speed>0.0</speed>
  <fix>3d</fix>
</trkpt>
<trkpt lat="40.0713749" lon="-105.229789">
  <ele>1583.0</ele>
  <time>2026-08-28T17:55:59Z</time>
  <course>247.72</course>
  <speed>0.0</speed>
  <fix>3d</fix>
</trkpt>
<trkpt lat="40.0713749" lon="-105.229789">
  <ele>1583.0</ele>
  <time>2026-08-28T17:55:59Z</time>
  <course>0.0</course>
  <speed>0.0</speed>
  <fix>3d</fix>
</trkpt>
<trkpt lat="40.0713749" lon="-105.229789">
  <ele>1583.0</ele>
  <time>2026-08-28T17:55:59Z</time>
  <course>247.76</course>
  <speed>0.0</speed>
  <fix>3d</fix>
</trkpt>
<trkpt lat="40.0713749" lon="-105.229789">
  <ele>1583.0</ele>
  <time>2026-08-28T17:55:59Z</time>
  <course>0.0</course>
  <speed>0.0</speed>
  <fix>3d</fix>
</trkpt>
<trkpt lat="40.0713749" lon="-105.229789">
  <ele>1583.0</ele>
  <time>2026-08-28T17:55:59Z</time>
  <course>247.8</course>
  <speed>0.0</speed>
  <fix>3d</fix>
</trkpt>
<trkpt lat="40.0713749" lon="-105.229789">
  <ele>1583.0</ele>
  <time>2026-08-28T17:55:59Z</time>
  <course>0.0</course>
  <speed>0.0</speed>
  <fix>3d</fix>
</trkpt>
<trkpt lat="40.0713749" lon="-105.229789">
  <ele>1583.0</ele>
  <time>2026-08-28T17:55:59Z</time>
  <course>247.83</course>
  <speed>0.0</speed>
  <fix>3d</fix>
</trkpt>
<trkpt lat="40.0713749" lon="-105.229789">
  <ele>1583.0</ele>
  <time>2026-08-28T17:55:59Z</time>
  <course>0.0</course>
  <speed>0.0</speed>
  <fix>3d</fix>
</trkpt>
<trkpt lat="40.0713749" lon="-105.229789">
  <ele>1583.0</ele>
  <time>2026-08-28T17:55:59Z</time>
  <course>247.87</course>
  <speed>0.0</speed>
  <fix>3d</fix>
</trkpt>
<trkpt lat="40.0713749" lon="-105.229789">
  <ele>1583.0</ele>
  <time>2026-08-28T17:55:59Z</time>
  <course>0.0</course>
  <speed>0.0</speed>
  <fix>3d</fix>
</trkpt>
<trkpt lat="40.0713749" lon="-105.229789">
  <ele>1583.0</ele>
  <time>2026-08-28T17:55:59Z</time>
  <course>247.9</course>
  <speed>0.0</speed>
  <fix>3d</fix>
</trkpt>
<trkpt lat="40.0713749" lon="-105.229789">
  <ele>1583.0</ele>
  <time>2026-08-28T17:55:59Z</time>
  <course>0.0</course>
  <speed>0.0</speed>
  <fix>3d</fix>
</trkpt>
<trkpt lat="40.0713749" lon="-105.229789">
  <ele>1583.0</ele>
  <time>2026-08-28T17:55:59Z</time>
  <course>247.94</course>
  <speed>0.0</speed>
  <fix>3d</fix>
</trkpt>
<trkpt lat="40.0713749" lon="-105.229789">
  <ele>1583.0</ele>
  <time>2026-08-28T17:55:59Z</time>
  <course>0.0</course>
  <speed>0.0</speed>
  <fix>3d</fix>
</trkpt>
<trkpt lat="40.0713749" lon="-105.229789">
  <ele>1583.0</ele>
  <time>2026-08-28T17:55:59Z</time>
  <course>247.97</course>
  <speed>0.0</speed>
  <fix>3d</fix>
</trkpt>
<trkpt lat="40.0713749" lon="-105.229789">
  <ele>1583.0</ele>
  <time>2026-08-28T17:55:59Z</time>
  <course>0.0</course>
  <speed>0.0</speed>
  <fix>3d</fix>
</trkpt>
<trkpt lat="40.0713749" lon="-105.229789">
  <ele>1583.0</ele>
  <time>2026-08-28T17:55:59Z</time>
  <course>248.0</course>
  <speed>0.0</speed>
  <fix>3d</fix>
</trkpt>
<trkpt lat="40.0713749" lon="-105.229789">
  <ele>1583.0</ele>
  <time>2026-08-28T17:55:59Z</time>
  <course>0.0</course>
  <speed>0.0</speed>
  <fix>3d</fix>
</trkpt>
<trkpt lat="40.0713749" lon="-105.229789">
  <ele>1583.0</ele>
  <time>2026-08-28T17:55:59Z</time>
  <course>248.02</course>
  <speed>0.0</speed>
  <fix>3d</fix>
</trkpt>
<trkpt lat="40.0713749" lon="-105.229789">
  <ele>1583.0</ele>
  <time>2026-08-28T17:55:59Z</time>
  <course>0.0</course>
  <speed>0.0</speed>
  <fix>3d</fix>
</trkpt>
<trkpt lat="40.0713749" lon="-105.229789">
  <ele>1583.0</ele>
  <time>2026-08-28T17:55:59Z</time>
  <course>248.05</course>
  <speed>0.0</speed>
  <fix>3d</fix>
</trkpt>
<trkpt lat="40.0713749" lon="-105.229789">
  <ele>1583.0</ele>
  <time>2026-08-28T17:55:59Z</time>
  <course>0.0</course>
  <speed>0.0</speed>
  <fix>3d</fix>
</trkpt>
<trkpt lat="40.0713749" lon="-105.229789">
  <ele>1583.0</ele>
  <time>2026-08-28T17:55:59Z</time>
  <course>248.08</course>
  <speed>0.0</speed>
  <fix>3d</fix>
</trkpt>
<trkpt lat="40.0713749" lon="-105.229789">
  <ele>1583.0</ele>
  <time>2026-08-28T17:55:59Z</time>
  <course>0.0</course>
  <speed>0.0</speed>
  <fix>3d</fix>
</trkpt>
<trkpt lat="40.0713749" lon="-105.229789">
  <ele>1583.0</ele>
  <time>2026-08-28T17:55:59Z</time>
  <course>248.1</course>
  <speed>0.0</speed>
  <fix>3d</fix>
</trkpt>
<trkpt lat="40.0713749" lon="-105.229789">
  <ele>1583.0</ele>
  <time>2026-08-28T17:55:59Z</time>
  <course>0.0</course>
  <speed>0.0</speed>
  <fix>3d</fix>
</trkpt>
<trkpt lat="40.0713749" lon="-105.229789">
  <ele>1583.0</ele>
  <time>2026-08-28T17:55:59Z</time>
  <course>248.12</course>
  <speed>0.0</speed>
  <fix>3d</fix>
</trkpt>
<trkpt lat="40.0713749" lon="-105.229789">
  <ele>1583.0</ele>
  <time>2026-08-28T17:55:59Z</time>
  <course>0.0</course>
  <speed>0.0</speed>
  <fix>3d</fix>
</trkpt>
<trkpt lat="40.0713749" lon="-105.229789">
  <ele>1583.0</ele>
  <time>2026-08-28T17:55:59Z</time>
  <course>248.14</course>
  <speed>0.0</speed>
  <fix>3d</fix>
</trkpt>
<trkpt lat="40.0713749" lon="-105.229789">
  <ele>1583.0</ele>
  <time>2026-08-28T17:55:59Z</time>
  <course>0.0</course>
  <speed>0.0</speed>
  <fix>3d</fix>
</trkpt>
<trkpt lat="40.0713749" lon="-105.229789">
  <ele>1583.0</ele>
  <time>2026-08-28T17:55:59Z</time>
  <course>248.16</course>
  <speed>0.0</speed>
  <fix>3d</fix>
</trkpt>
<trkpt lat="40.0713749" lon="-105.229789">
  <ele>1583.0</ele>
  <time>2026-08-28T17:55:59Z</time>
  <course>0.0</course>
  <speed>0.0</speed>
  <fix>3d</fix>
</trkpt>
<trkpt lat="40.0713749" lon="-105.229789">
  <ele>1583.0</ele>
  <time>2026-08-28T17:55:59Z</time>
  <course>248.18</course>
  <speed>0.0</speed>
  <fix>3d</fix>
</trkpt>
<trkpt lat="40.0713749" lon="-105.229789">
  <ele>1583.0</ele>
  <time>2026-08-28T17:55:59Z</time>
  <course>0.0</course>
  <speed>0.0</speed>
  <fix>3d</fix>
</trkpt>
<trkpt lat="40.0713749" lon="-105.229789">
  <ele>1583.0</ele>
  <time>2026-08-28T17:55:59Z</time>
  <course>248.2</course>
  <speed>0.0</speed>
  <fix>3d</fix>
</trkpt>
<trkpt lat="40.0713749" lon="-105.229789">
  <ele>1583.0</ele>
  <time>2026-08-28T17:55:59Z</time>
  <course>0.0</course>
  <speed>0.0</speed>
  <fix>3d</fix>
</trkpt>
<trkpt lat="40.0713749" lon="-105.229789">
  <ele>1583.0</ele>
  <time>2026-08-28T17:55:59Z</time>
  <course>248.22</course>
  <speed>0.0</speed>
  <fix>3d</fix>
</trkpt>
<trkpt lat="40.0713749" lon="-105.229789">
  <ele>1583.0</ele>
  <time>2026-08-28T17:55:59Z</time>
  <course>0.0</course>
  <speed>0.0</speed>
  <fix>3d</fix>
</trkpt>
<trkpt lat="40.0713749" lon="-105.229789">
  <ele>1583.0</ele>
  <time>2026-08-28T17:55:59Z</time>
  <course>248.23</course>
  <speed>0.0</speed>
  <fix>3d</fix>
</trkpt>
<trkpt lat="40.0713749" lon="-105.229789">
  <ele>1583.0</ele>
  <time>2026-08-28T17:55:59Z</time>
  <course>0.0</course>
  <speed>0.0</speed>
  <fix>3d</fix>
</trkpt>
<trkpt lat="40.0713749" lon="-105.229789">
  <ele>1583.0</ele>
  <time>2026-08-28T17:55:59Z</time>
  <course>248.25</course>
  <speed>0.0</speed>
  <fix>3d</fix>
</trkpt>
<trkpt lat="40.0713749" lon="-105.229789">
  <ele>1583.0</ele>
  <time>2026-08-28T17:55:59Z</time>
  <course>0.0</course>
  <speed>0.0</speed>
  <fix>3d</fix>
</trkpt>
<trkpt lat="40.0713749" lon="-105.229789">
  <ele>1583.0</ele>
  <time>2026-08-28T17:55:59Z</time>
  <course>248.26</course>
  <speed>0.0</speed>
  <fix>3d</fix>
</trkpt>
<trkpt lat="40.0713749" lon="-105.229789">
  <ele>1583.0</ele>
  <time>2026-08-28T17:55:59Z</time>
  <course>0.0</course>
  <speed>0.0</speed>
  <fix>3d</fix>
</trkpt>
<trkpt lat="40.0713749" lon="-105.229789">
  <ele>1583.0</ele>
  <time>2026-08-28T17:55:59Z</time>
  <course>248.28</course>
  <speed>0.0</speed>
  <fix>3d</fix>
</trkpt>
<trkpt lat="40.0713749" lon="-105.229789">
  <ele>1583.0</ele>
  <time>2026-08-28T17:55:59Z</time>
  <course>0.0</course>
  <speed>0.0</speed>
  <fix>3d</fix>
</trkpt>
<trkpt lat="40.0713749" lon="-105.229789">
  <ele>1583.0</ele>
  <time>2026-08-28T17:55:59Z</time>
  <course>248.29</course>
  <speed>0.0</speed>
  <fix>3d</fix>
</trkpt>
<trkpt lat="40.0713749" lon="-105.229789">
  <ele>1583.0</ele>
  <time>2026-08-28T17:55:59Z</time>
  <course>0.0</course>
  <speed>0.0</speed>
  <fix>3d</fix>
</trkpt>
<trkpt lat="40.0713749" lon="-105.229789">
  <ele>1583.0</ele>
  <time>2026-08-28T17:55:59Z</time>
  <course>248.3</course>
  <speed>0.0</speed>
  <fix>3d</fix>
</trkpt>
<trkpt lat="40.0713749" lon="-105.229789">
  <ele>1583.0</ele>
  <time>2026-08-28T17:55:59Z</time>
  <course>0.0</course>
  <speed>0.0</speed>
  <fix>3d</fix>
</trkpt>
<trkpt lat="40.0713749" lon="-105.229789">
  <ele>1583.0</ele>
  <time>2026-08-28T17:55:59Z</time>
  <course>248.31</course>
  <speed>0.0</speed>
  <fix>3d</fix>
</trkpt>
<trkpt lat="40.0713749" lon="-105.229789">
  <ele>1583.0</ele>
  <time>2026-08-28T17:55:59Z</time>
  <course>0.0</course>
  <speed>0.0</speed>
  <fix>3d</fix>
</trkpt>
<trkpt lat="40.0713749" lon="-105.229789">
  <ele>1583.0</ele>
  <time>2026-08-28T17:55:59Z</time>
  <course>248.32</course>
  <speed>0.0</speed>
  <fix>3d</fix>
</trkpt>
<trkpt lat="40.0713749" lon="-105.229789">
  <ele>1583.0</ele>
  <time>2026-08-28T17:55:59Z</time>
  <course>0.0</course>
  <speed>0.0</speed>
  <fix>3d</fix>
</trkpt>
<trkpt lat="40.0713749" lon="-105.229789">
  <ele>1583.0</ele>
  <time>2026-08-28T17:55:59Z</time>
  <course>248.33</course>
  <speed>0.0</speed>
  <fix>3d</fix>
</trkpt>
<trkpt lat="40.0713749" lon="-105.229789">
  <ele>1583.0</ele>
  <time>2026-08-28T17:55:59Z</time>
  <course>0.0</course>
  <speed>0.0</speed>
  <fix>3d</fix>
</trkpt>
<trkpt lat="40.0713749" lon="-105.229789">
  <ele>1583.0</ele>
  <time>2026-08-28T17:55:59Z</time>
  <course>248.34</course>
  <speed>0.0</speed>
  <fix>3d</fix>
</trkpt>
<trkpt lat="40.0713749" lon="-105.229789">
  <ele>1583.0</ele>
  <time>2026-08-28T17:55:59Z</time>
  <course>0.0</course>
  <speed>0.0</speed>
  <fix>3d</fix>
</trkpt>
<trkpt lat="40.0713749" lon="-105.229789">
  <ele>1583.0</ele>
  <time>2026-08-28T17:55:59Z</time>
  <course>248.35</course>
  <speed>0.0</speed>
  <fix>3d</fix>
</trkpt>
<trkpt lat="40.0713749" lon="-105.229789">
  <ele>1583.0</ele>
  <time>2026-08-28T17:55:59Z</time>
  <course>0.0</course>
  <speed>0.0</speed>
  <fix>3d</fix>
</trkpt>
<trkpt lat="40.0713749" lon="-105.229789">
  <ele>1583.0</ele>
  <time>2026-08-28T17:55:59Z</time>
  <course>248.35</course>
  <speed>0.0</speed>
  <fix>3d</fix>
</trkpt>
<trkpt lat="40.0713749" lon="-105.229789">
  <ele>1583.0</ele>
  <time>2026-08-28T17:55:59Z</time>
  <course>0.0</course>
  <speed>0.0</speed>
  <fix>3d</fix>
</trkpt>
<trkpt lat="40.0713749" lon="-105.229789">
  <ele>1583.0</ele>
  <time>2026-08-28T17:55:59Z</time>
  <course>248.36</course>
  <speed>0.0</speed>
  <fix>3d</fix>
</trkpt>
<trkpt lat="40.0713749" lon="-105.229789">
  <ele>1583.0</ele>
  <time>2026-08-28T17:55:59Z</time>
  <course>0.0</course>
  <speed>0.0</speed>
  <fix>3d</fix>
</trkpt>
<trkpt lat="40.0713749" lon="-105.229789">
  <ele>1583.0</ele>
  <time>2026-08-28T17:55:59Z</time>
  <course>248.37</course>
  <speed>0.0</speed>
  <fix>3d</fix>
</trkpt>
<trkpt lat="40.0713749" lon="-105.229789">
  <ele>1583.0</ele>
  <time>2026-08-28T17:55:59Z</time>
  <course>0.0</course>
  <speed>0.0</speed>
  <fix>3d</fix>
</trkpt>
<trkpt lat="40.0713749" lon="-105.229789">
  <ele>1583.0</ele>
  <time>2026-08-28T17:55:59Z</time>
  <course>248.37</course>
  <speed>0.0</speed>
  <fix>3d</fix>
</trkpt>
<trkpt lat="40.0713749" lon="-105.229789">
  <ele>1583.0</ele>
  <time>2026-08-28T17:55:59Z</time>
  <course>0.0</course>
  <speed>0.0</speed>
  <fix>3d</fix>
</trkpt>
<trkpt lat="40.0713749" lon="-105.229789">
  <ele>1583.0</ele>
  <time>2026-08-28T17:55:59Z</time>
  <course>248.38</course>
  <speed>0.0</speed>
  <fix>3d</fix>
</trkpt>
<trkpt lat="40.0713749" lon="-105.229789">
  <ele>1583.0</ele>
  <time>2026-08-28T17:55:59Z</time>
  <course>0.0</course>
  <speed>0.0</speed>
  <fix>3d</fix>
</trkpt>
<trkpt lat="40.0713749" lon="-105.229789">
  <ele>1583.0</ele>
  <time>2026-08-28T17:55:59Z</time>
  <course>248.38</course>
  <speed>0.0</speed>
  <fix>3d</fix>
</trkpt>
<trkpt lat="40.0713749" lon="-105.229789">
  <ele>1583.0</ele>
  <time>2026-08-28T17:55:59Z</time>
  <course>0.0</course>
  <speed>0.0</speed>
  <fix>3d</fix>
</trkpt>
<trkpt lat="40.0713749" lon="-105.229789">
  <ele>1583.0</ele>
  <time>2026-08-28T17:55:59Z</time>
  <course>248.39</course>
  <speed>0.0</speed>
  <fix>3d</fix>
</trkpt>
<trkpt lat="40.0713749" lon="-105.229789">
  <ele>1583.0</ele>
  <time>2026-08-28T17:55:59Z</time>
  <course>0.0</course>
  <speed>0.0</speed>
  <fix>3d</fix>
</trkpt>
<trkpt lat="40.0713749" lon="-105.229789">
  <ele>1583.0</ele>
  <time>2026-08-28T17:55:59Z</time>
  <course>248.39</course>
  <speed>0.0</speed>
  <fix>3d</fix>
</trkpt>
<trkpt lat="40.0713749" lon="-105.229789">
  <ele>1583.0</ele>
  <time>2026-08-28T17:55:59Z</time>
  <course>0.0</course>
  <speed>0.0</speed>
  <fix>3d</fix>
</trkpt>
<trkpt lat="40.0713749" lon="-105.229789">
  <ele>1583.0</ele>
  <time>2026-08-28T17:55:59Z</time>
  <course>248.4</course>
  <speed>0.0</speed>
  <fix>3d</fix>
</trkpt>
<trkpt lat="40.0713749" lon="-105.229789">
  <ele>1583.0</ele>
  <time>2026-08-28T17:55:59Z</time>
  <course>0.0</course>
  <speed>0.0</speed>
  <fix>3d</fix>
</trkpt>
<trkpt lat="40.0713749" lon="-105.229789">
  <ele>1583.0</ele>
  <time>2026-08-28T17:55:59Z</time>
  <course>248.4</course>
  <speed>0.0</speed>
  <fix>3d</fix>
</trkpt>
<trkpt lat="40.0713749" lon="-105.229789">
  <ele>1583.0</ele>
  <time>2026-08-28T17:55:59Z</time>
  <course>0.0</course>
  <speed>0.0</speed>
  <fix>3d</fix>
</trkpt>
<trkpt lat="40.0713749" lon="-105.229789">
  <ele>1583.0</ele>
  <time>2026-08-28T17:55:59Z</time>
  <course>248.4</course>
  <speed>0.0</speed>
  <fix>3d</fix>
</trkpt>
<trkpt lat="40.0713749" lon="-105.229789">
  <ele>1583.0</ele>
  <time>2026-08-28T17:55:59Z</time>
  <course>0.0</course>
  <speed>0.0</speed>
  <fix>3d</fix>
</trkpt>
<trkpt lat="40.0713749" lon="-105.229789">
  <ele>1583.0</ele>
  <time>2026-08-28T17:55:59Z</time>
  <course>248.4</course>
  <speed>0.0</speed>
  <fix>3d</fix>
</trkpt>
<trkpt lat="40.0713749" lon="-105.229789">
  <ele>1583.0</ele>
  <time>2026-08-28T17:55:59Z</time>
  <course>0.0</course>
  <speed>0.0</speed>
  <fix>3d</fix>
</trkpt>
<trkpt lat="40.0713749" lon="-105.229789">
  <ele>1583.0</ele>
  <time>2026-08-28T17:55:59Z</time>
  <course>248.41</course>
  <speed>0.0</speed>
  <fix>3d</fix>
</trkpt>
<trkpt lat="40.0713749" lon="-105.229789">
  <ele>1583.0</ele>
  <time>2026-08-28T17:55:59Z</time>
  <course>0.0</course>
  <speed>0.0</speed>
  <fix>3d</fix>
</trkpt>
<trkpt lat="40.0713749" lon="-105.229789">
  <ele>1583.0</ele>
  <time>2026-08-28T17:55:59Z</time>
  <course>248.41</course>
  <speed>0.0</speed>
  <fix>3d</fix>
</trkpt>
<trkpt lat="40.0713749" lon="-105.229789">
  <ele>1583.0</ele>
  <time>2026-08-28T17:55:59Z</time>
  <course>0.0</course>
  <speed>0.0</speed>
  <fix>3d</fix>
</trkpt>
<trkpt lat="40.0713749" lon="-105.229789">
  <ele>1583.0</ele>
  <time>2026-08-28T17:55:59Z</time>
  <course>248.41</course>
  <speed>0.0</speed>
  <fix>3d</fix>
</trkpt>
<trkpt lat="40.0713749" lon="-105.229789">
  <ele>1583.0</ele>
  <time>2026-08-28T17:55:59Z</time>
  <course>0.0</course>
  <speed>0.0</speed>
  <fix>3d</fix>
</trkpt>
<trkpt lat="40.0713749" lon="-105.229789">
  <ele>1583.0</ele>
  <time>2026-08-28T17:55:59Z</time>
  <course>248.41</course>
  <speed>0.0</speed>
  <fix>3d</fix>
</trkpt>
<trkpt lat="40.0713749" lon="-105.229789">
  <ele>1583.0</ele>
  <time>2026-08-28T17:55:59Z</time>
  <course>0.0</course>
  <speed>0.0</speed>
  <fix>3d</fix>
</trkpt>
<trkpt lat="40.0713749" lon="-105.229789">
  <ele>1583.0</ele>
  <time>2026-08-28T17:55:59Z</time>
  <course>248.41</course>
  <speed>0.0</speed>
  <fix>3d</fix>
</trkpt>
<trkpt lat="40.0713749" lon="-105.229789">
  <ele>1583.0</ele>
  <time>2026-08-28T17:55:59Z</time>
  <course>0.0</course>
  <speed>0.0</speed>
  <fix>3d</fix>
</trkpt>
<trkpt lat="40.0713749" lon="-105.229789">
  <ele>1583.0</ele>
  <time>2026-08-28T17:55:59Z</time>
  <course>248.41</course>
  <speed>0.0</speed>
  <fix>3d</fix>
</trkpt>
<trkpt lat="40.0713749" lon="-105.229789">
  <ele>1583.0</ele>
  <time>2026-08-28T17:55:59Z</time>
  <course>0.0</course>
  <speed>0.0</speed>
  <fix>3d</fix>
</trkpt>
<trkpt lat="40.0713749" lon="-105.229789">
  <ele>1583.0</ele>
  <time>2026-08-28T17:55:59Z</time>
  <course>248.41</course>
  <speed>0.0</speed>
  <fix>3d</fix>
</trkpt>
<trkpt lat="40.0713749" lon="-105.229789">
  <ele>1583.0</ele>
  <time>2026-08-28T17:55:59Z</time>
  <course>0.0</course>
  <speed>0.0</speed>
  <fix>3d</fix>
</trkpt>
<trkpt lat="40.0713749" lon="-105.229789">
  <ele>1583.0</ele>
  <time>2026-08-28T17:55:59Z</time>
  <course>248.41</course>
  <speed>0.0</speed>
  <fix>3d</fix>
</trkpt>
<trkpt lat="40.0713749" lon="-105.229789">
  <ele>1583.0</ele>
  <time>2026-08-28T17:55:59Z</time>
  <course>0.0</course>
  <speed>0.0</speed>
  <fix>3d</fix>
</trkpt>
<trkpt lat="40.0713749" lon="-105.229789">
  <ele>1583.0</ele>
  <time>2026-08-28T17:55:59Z</time>
  <course>248.41</course>
  <speed>0.0</speed>
  <fix>3d</fix>
</trkpt>
<trkpt lat="40.0713749" lon="-105.229789">
  <ele>1583.0</ele>
  <time>2026-08-28T17:55:59Z</time>
  <course>0.0</course>
  <speed>0.0</speed>
  <fix>3d</fix>
</trkpt>
<trkpt lat="40.0713749" lon="-105.229789">
  <ele>1583.0</ele>
  <time>2026-08-28T17:55:59Z</time>
  <course>248.41</course>
  <speed>0.0</speed>
  <fix>3d</fix>
</trkpt>
<trkpt lat="40.0713749" lon="-105.229789">
  <ele>1583.0</ele>
  <time>2026-08-28T17:55:59Z</time>
  <course>0.0</course>
  <speed>0.0</speed>
  <fix>3d</fix>
</trkpt>
<trkpt lat="40.0713749" lon="-105.229789">
  <ele>1583.0</ele>
  <time>2026-08-28T17:55:59Z</time>
  <course>248.41</course>
  <speed>0.0</speed>
  <fix>3d</fix>
</trkpt>
<trkpt lat="40.0713749" lon="-105.229789">
  <ele>1583.0</ele>
  <time>2026-08-28T17:55:59Z</time>
  <course>0.0</course>
  <speed>0.0</speed>
  <fix>3d</fix>
</trkpt>
<trkpt lat="40.0713749" lon="-105.229789">
  <ele>1583.0</ele>
  <time>2026-08-28T17:55:59Z</time>
  <course>248.41</course>
  <speed>0.0</speed>
  <fix>3d</fix>
</trkpt>
<trkpt lat="40.0713749" lon="-105.229789">
  <ele>1583.0</ele>
  <time>2026-08-28T17:55:59Z</time>
  <course>0.0</course>
  <speed>0.0</speed>
  <fix>3d</fix>
</trkpt>
<trkpt lat="40.0713749" lon="-105.229789">
  <ele>1583.0</ele>
  <time>2026-08-28T17:55:59Z</time>
  <course>248.41</course>
  <speed>0.0</speed>
  <fix>3d</fix>
</trkpt>
<trkpt lat="40.0713749" lon="-105.229789">
  <ele>1583.0</ele>
  <time>2026-08-28T17:55:59Z</time>
  <course>0.0</course>
  <speed>0.0</speed>
  <fix>3d</fix>
</trkpt>
<trkpt lat="40.0713749" lon="-105.229789">
  <ele>1583.0</ele>
  <time>2026-08-28T17:55:59Z</time>
  <course>248.41</course>
  <speed>0.0</speed>
  <fix>3d</fix>
</trkpt>
<trkpt lat="40.0713749" lon="-105.229789">
  <ele>1583.0</ele>
  <time>2026-08-28T17:55:59Z</time>
  <course>0.0</course>
  <speed>0.0</speed>
  <fix>3d</fix>
</trkpt>
<trkpt lat="40.0713749" lon="-105.229789">
  <ele>1583.0</ele>
  <time>2026-08-28T17:55:59Z</time>
  <course>248.41</course>
  <speed>0.0</speed>
  <fix>3d</fix>
</trkpt>
<trkpt lat="40.0713749" lon="-105.229789">
  <ele>1583.0</ele>
  <time>2026-08-28T17:55:59Z</time>
  <course>0.0</course>
  <speed>0.0</speed>
  <fix>3d</fix>
</trkpt>
<trkpt lat="40.0713749" lon="-105.229789">
  <ele>1583.0</ele>
  <time>2026-08-28T17:55:59Z</time>
  <course>248.41</course>
  <speed>0.0</speed>
  <fix>3d</fix>
</trkpt>
<trkpt lat="40.0713749" lon="-105.229789">
  <ele>1583.0</ele>
  <time>2026-08-28T17:55:59Z</time>
  <course>0.0</course>
  <speed>0.0</speed>
  <fix>3d</fix>
</trkpt>
<trkpt lat="40.0713749" lon="-105.229789">
  <ele>1583.0</ele>
  <time>2026-08-28T17:55:59Z</time>
  <course>248.4</course>
  <speed>0.0</speed>
  <fix>3d</fix>
</trkpt>
<trkpt lat="40.0713749" lon="-105.229789">
  <ele>1583.0</ele>
  <time>2026-08-28T17:55:59Z</time>
  <course>0.0</course>
  <speed>0.0</speed>
  <fix>3d</fix>
</trkpt>
<trkpt lat="40.0713749" lon="-105.229789">
  <ele>1583.0</ele>
  <time>2026-08-28T17:55:59Z</time>
  <course>248.4</course>
  <speed>0.01</speed>
  <fix>3d</fix>
</trkpt>
<trkpt lat="40.0713749" lon="-105.229789">
  <ele>1583.0</ele>
  <time>2026-08-28T17:55:59Z</time>
  <course>0.0</course>
  <speed>0.0</speed>
  <fix>3d</fix>
</trkpt>
<trkpt lat="40.0713749" lon="-105.229789">
  <ele>1583.0</ele>
  <time>2026-08-28T17:55:59Z</time>
  <course>248.4</course>
  <speed>0.01</speed>
  <fix>3d</fix>
</trkpt>
<trkpt lat="40.0713749" lon="-105.229789">
  <ele>1583.0</ele>
  <time>2026-08-28T17:55:59Z</time>
  <course>0.0</course>
  <speed>0.0</speed>
  <fix>3d</fix>
</trkpt>
<trkpt lat="40.0713749" lon="-105.229789">
  <ele>1583.0</ele>
  <time>2026-08-28T17:55:59Z</time>
  <course>248.4</course>
  <speed>0.01</speed>
  <fix>3d</fix>
</trkpt>
<trkpt lat="40.0713749" lon="-105.229789">
  <ele>1583.0</ele>
  <time>2026-08-28T17:55:59Z</time>
  <course>0.0</course>
  <speed>0.0</speed>
  <fix>3d</fix>
</trkpt>
<trkpt lat="40.0713749" lon="-105.229789">
  <ele>1583.0</ele>
  <time>2026-08-28T17:55:59Z</time>
  <course>248.4</course>
  <speed>0.01</speed>
  <fix>3d</fix>
</trkpt>
<trkpt lat="40.0713749" lon="-105.229789">
  <ele>1583.0</ele>
  <time>2026-08-28T17:55:59Z</time>
  <course>0.0</course>
  <speed>0.0</speed>
  <fix>3d</fix>
</trkpt>
<trkpt lat="40.0713749" lon="-105.229789">
  <ele>1583.0</ele>
  <time>2026-08-28T17:55:59Z</time>
  <course>248.39</course>
  <speed>0.01</speed>
  <fix>3d</fix>
</trkpt>
<trkpt lat="40.0713749" lon="-105.229789">
  <ele>1583.0</ele>
  <time>2026-08-28T17:55:59Z</time>
  <course>0.0</course>
  <speed>0.0</speed>
  <fix>3d</fix>
</trkpt>
<trkpt lat="40.0713749" lon="-105.229789">
  <ele>1583.0</ele>
  <time>2026-08-28T17:55:59Z</time>
  <course>248.39</course>
  <speed>0.01</speed>
  <fix>3d</fix>
</trkpt>
<trkpt lat="40.0713749" lon="-105.229789">
  <ele>1583.0</ele>
  <time>2026-08-28T17:55:59Z</time>
  <course>0.0</course>
  <speed>0.0</speed>
  <fix>3d</fix>
</trkpt>
<trkpt lat="40.0713749" lon="-105.229789">
  <ele>1583.0</ele>
  <time>2026-08-28T17:55:59Z</time>
  <course>248.39</course>
  <speed>0.01</speed>
  <fix>3d</fix>
</trkpt>
<trkpt lat="40.0713749" lon="-105.229789">
  <ele>1583.0</ele>
  <time>2026-08-28T17:55:59Z</time>
  <course>0.0</course>
  <speed>0.0</speed>
  <fix>3d</fix>
</trkpt>
<trkpt lat="40.0713749" lon="-105.229789">
  <ele>1583.0</ele>
  <time>2026-08-28T17:55:59Z</time>
  <course>248.38</course>
  <speed>0.01</speed>
  <fix>3d</fix>
</trkpt>
<trkpt lat="40.0713749" lon="-105.229789">
  <ele>1583.0</ele>
  <time>2026-08-28T17:55:59Z</time>
  <course>0.0</course>
  <speed>0.0</speed>
  <fix>3d</fix>
</trkpt>
<trkpt lat="40.0713749" lon="-105.229789">
  <ele>1583.0</ele>
  <time>2026-08-28T17:55:59Z</time>
  <course>248.38</course>
  <speed>0.01</speed>
  <fix>3d</fix>
</trkpt>
<trkpt lat="40.0713749" lon="-105.229789">
  <ele>1583.0</ele>
  <time>2026-08-28T17:55:59Z</time>
  <course>0.0</course>
  <speed>0.0</speed>
  <fix>3d</fix>
</trkpt>
<trkpt lat="40.0713749" lon="-105.229789">
  <ele>1583.0</ele>
  <time>2026-08-28T17:55:59Z</time>
  <course>248.38</course>
  <speed>0.01</speed>
  <fix>3d</fix>
</trkpt>
<trkpt lat="40.0713749" lon="-105.229789">
  <ele>1583.0</ele>
  <time>2026-08-28T17:55:59Z</time>
  <course>0.0</course>
  <speed>0.0</speed>
  <fix>3d</fix>
</trkpt>
<trkpt lat="40.0713749" lon="-105.229789">
  <ele>1583.0</ele>
  <time>2026-08-28T17:55:59Z</time>
  <course>248.37</course>
  <speed>0.01</speed>
  <fix>3d</fix>
</trkpt>
<trkpt lat="40.0713749" lon="-105.229789">
  <ele>1583.0</ele>
  <time>2026-08-28T17:55:59Z</time>
  <course>0.0</course>
  <speed>0.0</speed>
  <fix>3d</fix>
</trkpt>
<trkpt lat="40.0713749" lon="-105.229789">
  <ele>1583.0</ele>
  <time>2026-08-28T17:55:59Z</time>
  <course>248.37</course>
  <speed>0.01</speed>
  <fix>3d</fix>
</trkpt>
<trkpt lat="40.0713749" lon="-105.229789">
  <ele>1583.0</ele>
  <time>2026-08-28T17:55:59Z</time>
  <course>0.0</course>
  <speed>0.0</speed>
  <fix>3d</fix>
</trkpt>
<trkpt lat="40.0713749" lon="-105.229789">
  <ele>1583.0</ele>
  <time>2026-08-28T17:55:59Z</time>
  <course>248.37</course>
  <speed>0.01</speed>
  <fix>3d</fix>
</trkpt>
<trkpt lat="40.0713749" lon="-105.229789">
  <ele>1583.0</ele>
  <time>2026-08-28T17:55:59Z</time>
  <course>0.0</course>
  <speed>0.0</speed>
  <fix>3d</fix>
</trkpt>
<trkpt lat="40.0713749" lon="-105.229789">
  <ele>1583.0</ele>
  <time>2026-08-28T17:55:59Z</time>
  <course>248.36</course>
  <speed>0.01</speed>
  <fix>3d</fix>
</trkpt>
<trkpt lat="40.0713749" lon="-105.229789">
  <ele>1583.0</ele>
  <time>2026-08-28T17:55:59Z</time>
  <course>0.0</course>
  <speed>0.0</speed>
  <fix>3d</fix>
</trkpt>
<trkpt lat="40.0713749" lon="-105.229789">
  <ele>1583.0</ele>
  <time>2026-08-28T17:55:59Z</time>
  <course>248.36</course>
  <speed>0.01</speed>
  <fix>3d</fix>
</trkpt>
<trkpt lat="40.0713749" lon="-105.229789">
  <ele>1583.0</ele>
  <time>2026-08-28T17:55:59Z</time>
  <course>0.0</course>
  <speed>0.0</speed>
  <fix>3d</fix>
</trkpt>
<trkpt lat="40.0713749" lon="-105.229789">
  <ele>1583.0</ele>
  <time>2026-08-28T17:55:59Z</time>
  <course>248.36</course>
  <speed>0.01</speed>
  <fix>3d</fix>
</trkpt>
<trkpt lat="40.0713749" lon="-105.229789">
  <ele>1583.0</ele>
  <time>2026-08-28T17:55:59Z</time>
  <course>0.0</course>
  <speed>0.0</speed>
  <fix>3d</fix>
</trkpt>
<trkpt lat="40.0713749" lon="-105.229789">
  <ele>1583.0</ele>
  <time>2026-08-28T17:55:59Z</time>
  <course>248.35</course>
  <speed>0.01</speed>
  <fix>3d</fix>
</trkpt>
<trkpt lat="40.0713749" lon="-105.229789">
  <ele>1583.0</ele>
  <time>2026-08-28T17:55:59Z</time>
  <course>0.0</course>
  <speed>0.0</speed>
  <fix>3d</fix>
</trkpt>
<trkpt lat="40.0713749" lon="-105.229789">
  <ele>1583.0</ele>
  <time>2026-08-28T17:55:59Z</time>
  <course>248.35</course>
  <speed>0.01</speed>
  <fix>3d</fix>
</trkpt>
<trkpt lat="40.0713749" lon="-105.229789">
  <ele>1583.0</ele>
  <time>2026-08-28T17:55:59Z</time>
  <course>0.0</course>
  <speed>0.0</speed>
  <fix>3d</fix>
</trkpt>
<trkpt lat="40.0713749" lon="-105.229789">
  <ele>1583.0</ele>
  <time>2026-08-28T17:55:59Z</time>
  <course>248.35</course>
  <speed>0.01</speed>
  <fix>3d</fix>
</trkpt>
<trkpt lat="40.0713749" lon="-105.229789">
  <ele>1583.0</ele>
  <time>2026-08-28T17:55:59Z</time>
  <course>0.0</course>
  <speed>0.0</speed>
  <fix>3d</fix>
</trkpt>
<trkpt lat="40.0713749" lon="-105.229789">
  <ele>1583.0</ele>
  <time>2026-08-28T17:55:59Z</time>
  <course>248.34</course>
  <speed>0.01</speed>
  <fix>3d</fix>
</trkpt>
<trkpt lat="40.0713749" lon="-105.229789">
  <ele>1583.0</ele>
  <time>2026-08-28T17:55:59Z</time>
  <course>0.0</course>
  <speed>0.0</speed>
  <fix>3d</fix>
</trkpt>
<trkpt lat="40.0713749" lon="-105.229789">
  <ele>1583.0</ele>
  <time>2026-08-28T17:55:59Z</time>
  <course>248.34</course>
  <speed>0.01</speed>
  <fix>3d</fix>
</trkpt>
<trkpt lat="40.0713749" lon="-105.229789">
  <ele>1583.0</ele>
  <time>2026-08-28T17:55:59Z</time>
  <course>0.0</course>
  <speed>0.0</speed>
  <fix>3d</fix>
</trkpt>
<trkpt lat="40.0713749" lon="-105.229789">
  <ele>1583.0</ele>
  <time>2026-08-28T17:55:59Z</time>
  <course>248.33</course>
  <speed>0.01</speed>
  <fix>3d</fix>
</trkpt>
<trkpt lat="40.0713749" lon="-105.229789">
  <ele>1583.0</ele>
  <time>2026-08-28T17:55:59Z</time>
  <course>0.0</course>
  <speed>0.0</speed>
  <fix>3d</fix>
</trkpt>
<trkpt lat="40.0713749" lon="-105.229789">
  <ele>1583.0</ele>
  <time>2026-08-28T17:55:59Z</time>
  <course>248.33</course>
  <speed>0.01</speed>
  <fix>3d</fix>
</trkpt>
<trkpt lat="40.0713749" lon="-105.229789">
  <ele>1583.0</ele>
  <time>2026-08-28T17:55:59Z</time>
  <course>0.0</course>
  <speed>0.0</speed>
  <fix>3d</fix>
</trkpt>
<trkpt lat="40.0713749" lon="-105.229789">
  <ele>1583.0</ele>
  <time>2026-08-28T17:55:59Z</time>
  <course>248.32</course>
  <speed>0.01</speed>
  <fix>3d</fix>
</trkpt>
<trkpt lat="40.0713749" lon="-105.229789">
  <ele>1583.0</ele>
  <time>2026-08-28T17:55:59Z</time>
  <course>0.0</course>
  <speed>0.0</speed>
  <fix>3d</fix>
</trkpt>
<trkpt lat="40.0713749" lon="-105.229789">
  <ele>1583.0</ele>
  <time>2026-08-28T17:55:59Z</time>
  <course>248.32</course>
  <speed>0.01</speed>
  <fix>3d</fix>
</trkpt>
<trkpt lat="40.0713749" lon="-105.229789">
  <ele>1583.0</ele>
  <time>2026-08-28T17:55:59Z</time>
  <course>0.0</course>
  <speed>0.0</speed>
  <fix>3d</fix>
</trkpt>
<trkpt lat="40.0713749" lon="-105.229789">
  <ele>1583.0</ele>
  <time>2026-08-28T17:55:59Z</time>
  <course>248.32</course>
  <speed>0.01</speed>
  <fix>3d</fix>
</trkpt>
<trkpt lat="40.0713749" lon="-105.229789">
  <ele>1583.0</ele>
  <time>2026-08-28T17:55:59Z</time>
  <course>0.0</course>
  <speed>0.0</speed>
  <fix>3d</fix>
</trkpt>
<trkpt lat="40.0713749" lon="-105.229789">
  <ele>1583.0</ele>
  <time>2026-08-28T17:55:59Z</time>
  <course>248.31</course>
  <speed>0.01</speed>
  <fix>3d</fix>
</trkpt>
<trkpt lat="40.0713749" lon="-105.229789">
  <ele>1583.0</ele>
  <time>2026-08-28T17:55:59Z</time>
  <course>0.0</course>
  <speed>0.0</speed>
  <fix>3d</fix>
</trkpt>
<trkpt lat="40.0713749" lon="-105.229789">
  <ele>1583.0</ele>
  <time>2026-08-28T17:55:59Z</time>
  <course>248.31</course>
  <speed>0.01</speed>
  <fix>3d</fix>
</trkpt>
<trkpt lat="40.0713749" lon="-105.229789">
  <ele>1583.0</ele>
  <time>2026-08-28T17:56:00Z</time>
  <course>0.0</course>
  <speed>0.0</speed>
  <fix>3d</fix>
</trkpt>
<trkpt lat="40.0713749" lon="-105.229789">
  <ele>1583.0</ele>
  <time>2026-08-28T17:56:00Z</time>
  <course>248.3</course>
  <speed>0.01</speed>
  <fix>3d</fix>
</trkpt>
<trkpt lat="40.0713749" lon="-105.229789">
  <ele>1583.0</ele>
  <time>2026-08-28T17:56:00Z</time>
  <course>0.0</course>
  <speed>0.0</speed>
  <fix>3d</fix>
</trkpt>
<trkpt lat="40.0713749" lon="-105.229789">
  <ele>1583.0</ele>
  <time>2026-08-28T17:56:00Z</time>
  <course>248.3</course>
  <speed>0.01</speed>
  <fix>3d</fix>
</trkpt>
<trkpt lat="40.0713749" lon="-105.229789">
  <ele>1583.0</ele>
  <time>2026-08-28T17:56:00Z</time>
  <course>0.0</course>
  <speed>0.0</speed>
  <fix>3d</fix>
</trkpt>
<trkpt lat="40.0713749" lon="-105.229789">
  <ele>1583.0</ele>
  <time>2026-08-28T17:56:00Z</time>
  <course>248.29</course>
  <speed>0.01</speed>
  <fix>3d</fix>
</trkpt>
<trkpt lat="40.0713749" lon="-105.229789">
  <ele>1583.0</ele>
  <time>2026-08-28T17:56:00Z</time>
  <course>0.0</course>
  <speed>0.0</speed>
  <fix>3d</fix>
</trkpt>
<trkpt lat="40.0713749" lon="-105.229789">
  <ele>1583.0</ele>
  <time>2026-08-28T17:56:00Z</time>
  <course>248.29</course>
  <speed>0.01</speed>
  <fix>3d</fix>
</trkpt>
<trkpt lat="40.0713749" lon="-105.229789">
  <ele>1583.0</ele>
  <time>2026-08-28T17:56:00Z</time>
  <course>0.0</course>
  <speed>0.0</speed>
  <fix>3d</fix>
</trkpt>
<trkpt lat="40.0713749" lon="-105.229789">
  <ele>1583.0</ele>
  <time>2026-08-28T17:56:00Z</time>
  <course>248.28</course>
  <speed>0.01</speed>
  <fix>3d</fix>
</trkpt>
<trkpt lat="40.0713749" lon="-105.229789">
  <ele>1583.0</ele>
  <time>2026-08-28T17:56:00Z</time>
  <course>0.0</course>
  <speed>0.0</speed>
  <fix>3d</fix>
</trkpt>
<trkpt lat="40.0713749" lon="-105.229789">
  <ele>1583.0</ele>
  <time>2026-08-28T17:56:00Z</time>
  <course>248.28</course>
  <speed>0.01</speed>
  <fix>3d</fix>
</trkpt>
<trkpt lat="40.0713749" lon="-105.229789">
  <ele>1583.0</ele>
  <time>2026-08-28T17:56:00Z</time>
  <course>0.0</course>
  <speed>0.0</speed>
  <fix>3d</fix>
</trkpt>
<trkpt lat="40.0713749" lon="-105.229789">
  <ele>1583.0</ele>
  <time>2026-08-28T17:56:00Z</time>
  <course>248.27</course>
  <speed>0.01</speed>
  <fix>3d</fix>
</trkpt>
<trkpt lat="40.0713749" lon="-105.229789">
  <ele>1583.0</ele>
  <time>2026-08-28T17:56:00Z</time>
  <course>0.0</course>
  <speed>0.0</speed>
  <fix>3d</fix>
</trkpt>
<trkpt lat="40.0713749" lon="-105.229789">
  <ele>1583.0</ele>
  <time>2026-08-28T17:56:00Z</time>
  <course>248.27</course>
  <speed>0.01</speed>
  <fix>3d</fix>
</trkpt>
<trkpt lat="40.0713749" lon="-105.229789">
  <ele>1583.0</ele>
  <time>2026-08-28T17:56:00Z</time>
  <course>0.0</course>
  <speed>0.0</speed>
  <fix>3d</fix>
</trkpt>
<trkpt lat="40.0713749" lon="-105.229789">
  <ele>1583.0</ele>
  <time>2026-08-28T17:56:00Z</time>
  <course>248.26</course>
  <speed>0.01</speed>
  <fix>3d</fix>
</trkpt>
<trkpt lat="40.0713749" lon="-105.229789">
  <ele>1583.0</ele>
  <time>2026-08-28T17:56:00Z</time>
  <course>0.0</course>
  <speed>0.0</speed>
  <fix>3d</fix>
</trkpt>
<trkpt lat="40.0713749" lon="-105.229789">
  <ele>1583.0</ele>
  <time>2026-08-28T17:56:00Z</time>
  <course>248.26</course>
  <speed>0.01</speed>
  <fix>3d</fix>
</trkpt>
<trkpt lat="40.0713749" lon="-105.229789">
  <ele>1583.0</ele>
  <time>2026-08-28T17:56:00Z</time>
  <course>0.0</course>
  <speed>0.0</speed>
  <fix>3d</fix>
</trkpt>
<trkpt lat="40.0713749" lon="-105.229789">
  <ele>1583.0</ele>
  <time>2026-08-28T17:56:00Z</time>
  <course>248.26</course>
  <speed>0.01</speed>
  <fix>3d</fix>
</trkpt>
<trkpt lat="40.0713749" lon="-105.229789">
  <ele>1583.0</ele>
  <time>2026-08-28T17:56:00Z</time>
  <course>0.0</course>
  <speed>0.0</speed>
  <fix>3d</fix>
</trkpt>
<trkpt lat="40.0713749" lon="-105.229789">
  <ele>1583.0</ele>
  <time>2026-08-28T17:56:00Z</time>
  <course>248.25</course>
  <speed>0.01</speed>
  <fix>3d</fix>
</trkpt>
<trkpt lat="40.0713749" lon="-105.229789">
  <ele>1583.0</ele>
  <time>2026-08-28T17:56:00Z</time>
  <course>0.0</course>
  <speed>0.0</speed>
  <fix>3d</fix>
</trkpt>
<trkpt lat="40.0713749" lon="-105.229789">
  <ele>1583.0</ele>
  <time>2026-08-28T17:56:00Z</time>
  <course>248.25</course>
  <speed>0.01</speed>
  <fix>3d</fix>
</trkpt>
<trkpt lat="40.0713749" lon="-105.229789">
  <ele>1583.0</ele>
  <time>2026-08-28T17:56:00Z</time>
  <course>0.0</course>
  <speed>0.0</speed>
  <fix>3d</fix>
</trkpt>
<trkpt lat="40.0713749" lon="-105.229789">
  <ele>1583.0</ele>
  <time>2026-08-28T17:56:00Z</time>
  <course>248.24</course>
  <speed>0.01</speed>
  <fix>3d</fix>
</trkpt>
<trkpt lat="40.0713749" lon="-105.229789">
  <ele>1583.0</ele>
  <time>2026-08-28T17:56:00Z</time>
  <course>0.0</course>
  <speed>0.0</speed>
  <fix>3d</fix>
</trkpt>
<trkpt lat="40.0713749" lon="-105.229789">
  <ele>1583.0</ele>
  <time>2026-08-28T17:56:00Z</time>
  <course>248.24</course>
  <speed>0.01</speed>
  <fix>3d</fix>
</trkpt>
<trkpt lat="40.0713749" lon="-105.229789">
  <ele>1583.0</ele>
  <time>2026-08-28T17:56:00Z</time>
  <course>0.0</course>
  <speed>0.0</speed>
  <fix>3d</fix>
</trkpt>
<trkpt lat="40.0713749" lon="-105.229789">
  <ele>1583.0</ele>
  <time>2026-08-28T17:56:00Z</time>
  <course>248.23</course>
  <speed>0.01</speed>
  <fix>3d</fix>
</trkpt>
<trkpt lat="40.0713749" lon="-105.229789">
  <ele>1583.0</ele>
  <time>2026-08-28T17:56:00Z</time>
  <course>0.0</course>
  <speed>0.0</speed>
  <fix>3d</fix>
</trkpt>
<trkpt lat="40.0713749" lon="-105.229789">
  <ele>1583.0</ele>
  <time>2026-08-28T17:56:00Z</time>
  <course>248.23</course>
  <speed>0.01</speed>
  <fix>3d</fix>
</trkpt>
<trkpt lat="40.0713749" lon="-105.229789">
  <ele>1583.0</ele>
  <time>2026-08-28T17:56:00Z</time>
  <course>0.0</course>
  <speed>0.0</speed>
  <fix>3d</fix>
</trkpt>
<trkpt lat="40.0713749" lon="-105.229789">
  <ele>1583.0</ele>
  <time>2026-08-28T17:56:00Z</time>
  <course>248.22</course>
  <speed>0.01</speed>
  <fix>3d</fix>
</trkpt>
<trkpt lat="40.0713749" lon="-105.229789">
  <ele>1583.0</ele>
  <time>2026-08-28T17:56:00Z</time>
  <course>0.0</course>
  <speed>0.0</speed>
  <fix>3d</fix>
</trkpt>
<trkpt lat="40.0713749" lon="-105.229789">
  <ele>1583.0</ele>
  <time>2026-08-28T17:56:00Z</time>
  <course>248.22</course>
  <speed>0.01</speed>
  <fix>3d</fix>
</trkpt>
<trkpt lat="40.0713749" lon="-105.229789">
  <ele>1583.0</ele>
  <time>2026-08-28T17:56:00Z</time>
  <course>0.0</course>
  <speed>0.0</speed>
  <fix>3d</fix>
</trkpt>
<trkpt lat="40.0713749" lon="-105.229789">
  <ele>1583.0</ele>
  <time>2026-08-28T17:56:00Z</time>
  <course>248.21</course>
  <speed>0.01</speed>
  <fix>3d</fix>
</trkpt>
<trkpt lat="40.0713749" lon="-105.229789">
  <ele>1583.0</ele>
  <time>2026-08-28T17:56:00Z</time>
  <course>0.0</course>
  <speed>0.0</speed>
  <fix>3d</fix>
</trkpt>
<trkpt lat="40.0713749" lon="-105.229789">
  <ele>1583.0</ele>
  <time>2026-08-28T17:56:00Z</time>
  <course>248.21</course>
  <speed>0.01</speed>
  <fix>3d</fix>
</trkpt>
<trkpt lat="40.0713749" lon="-105.229789">
  <ele>1583.0</ele>
  <time>2026-08-28T17:56:00Z</time>
  <course>0.0</course>
  <speed>0.0</speed>
  <fix>3d</fix>
</trkpt>
<trkpt lat="40.0713749" lon="-105.229789">
  <ele>1583.0</ele>
  <time>2026-08-28T17:56:00Z</time>
  <course>248.2</course>
  <speed>0.01</speed>
  <fix>3d</fix>
</trkpt>
<trkpt lat="40.0713749" lon="-105.229789">
  <ele>1583.0</ele>
  <time>2026-08-28T17:56:00Z</time>
  <course>0.0</course>
  <speed>0.0</speed>
  <fix>3d</fix>
</trkpt>
<trkpt lat="40.0713749" lon="-105.229789">
  <ele>1583.0</ele>
  <time>2026-08-28T17:56:00Z</time>
  <course>248.2</course>
  <speed>0.01</speed>
  <fix>3d</fix>
</trkpt>
<trkpt lat="40.0713749" lon="-105.229789">
  <ele>1583.0</ele>
  <time>2026-08-28T17:56:00Z</time>
  <course>0.0</course>
  <speed>0.0</speed>
  <fix>3d</fix>
</trkpt>
<trkpt lat="40.0713749" lon="-105.229789">
  <ele>1583.0</ele>
  <time>2026-08-28T17:56:00Z</time>
  <course>248.19</course>
  <speed>0.01</speed>
  <fix>3d</fix>
</trkpt>
<trkpt lat="40.0713749" lon="-105.229789">
  <ele>1583.0</ele>
  <time>2026-08-28T17:56:00Z</time>
  <course>0.0</course>
  <speed>0.0</speed>
  <fix>3d</fix>
</trkpt>
<trkpt lat="40.0713749" lon="-105.229789">
  <ele>1583.0</ele>
  <time>2026-08-28T17:56:00Z</time>
  <course>248.19</course>
  <speed>0.01</speed>
  <fix>3d</fix>
</trkpt>
<trkpt lat="40.0713749" lon="-105.229789">
  <ele>1583.0</ele>
  <time>2026-08-28T17:56:00Z</time>
  <course>0.0</course>
  <speed>0.0</speed>
  <fix>3d</fix>
</trkpt>
<trkpt lat="40.0713749" lon="-105.229789">
  <ele>1583.0</ele>
  <time>2026-08-28T17:56:00Z</time>
  <course>248.18</course>
  <speed>0.01</speed>
  <fix>3d</fix>
</trkpt>
<trkpt lat="40.0713749" lon="-105.229789">
  <ele>1583.0</ele>
  <time>2026-08-28T17:56:00Z</time>
  <course>0.0</course>
  <speed>0.0</speed>
  <fix>3d</fix>
</trkpt>
<trkpt lat="40.0713749" lon="-105.229789">
  <ele>1583.0</ele>
  <time>2026-08-28T17:56:00Z</time>
  <course>248.18</course>
  <speed>0.01</speed>
  <fix>3d</fix>
</trkpt>
<trkpt lat="40.0713749" lon="-105.229789">
  <ele>1583.0</ele>
  <time>2026-08-28T17:56:00Z</time>
  <course>0.0</course>
  <speed>0.0</speed>
  <fix>3d</fix>
</trkpt>
<trkpt lat="40.0713749" lon="-105.229789">
  <ele>1583.0</ele>
  <time>2026-08-28T17:56:00Z</time>
  <course>248.17</course>
  <speed>0.022360679774997897</speed>
  <fix>3d</fix>
</trkpt>
<trkpt lat="40.0713749" lon="-105.229789">
  <ele>1583.0</ele>
  <time>2026-08-28T17:56:00Z</time>
  <course>0.0</course>
  <speed>0.0</speed>
  <fix>3d</fix>
</trkpt>
<trkpt lat="40.0713749" lon="-105.229789">
  <ele>1583.0</ele>
  <time>2026-08-28T17:56:00Z</time>
  <course>248.17</course>
  <speed>0.022360679774997897</speed>
  <fix>3d</fix>
</trkpt>
<trkpt lat="40.0713749" lon="-105.229789">
  <ele>1583.0</ele>
  <time>2026-08-28T17:56:00Z</time>
  <course>0.0</course>
  <speed>0.0</speed>
  <fix>3d</fix>
</trkpt>
<trkpt lat="40.0713749" lon="-105.229789">
  <ele>1583.0</ele>
  <time>2026-08-28T17:56:00Z</time>
  <course>248.16</course>
  <speed>0.022360679774997897</speed>
  <fix>3d</fix>
</trkpt>
<trkpt lat="40.0713749" lon="-105.229789">
  <ele>1583.0</ele>
  <time>2026-08-28T17:56:00Z</time>
  <course>0.0</course>
  <speed>0.0</speed>
  <fix>3d</fix>
</trkpt>
<trkpt lat="40.0713749" lon="-105.229789">
  <ele>1583.0</ele>
  <time>2026-08-28T17:56:00Z</time>
  <course>248.16</course>
  <speed>0.022360679774997897</speed>
  <fix>3d</fix>
</trkpt>
<trkpt lat="40.0713749" lon="-105.229789">
  <ele>1583.0</ele>
  <time>2026-08-28T17:56:00Z</time>
  <course>0.0</course>
  <speed>0.0</speed>
  <fix>3d</fix>
</trkpt>
<trkpt lat="40.0713749" lon="-105.229789">
  <ele>1583.0</ele>
  <time>2026-08-28T17:56:00Z</time>
  <course>248.15</course>
  <speed>0.022360679774997897</speed>
  <fix>3d</fix>
</trkpt>
<trkpt lat="40.0713749" lon="-105.229789">
  <ele>1583.0</ele>
  <time>2026-08-28T17:56:00Z</time>
  <course>0.0</course>
  <speed>0.0</speed>
  <fix>3d</fix>
</trkpt>
<trkpt lat="40.0713749" lon="-105.229789">
  <ele>1583.0</ele>
  <time>2026-08-28T17:56:00Z</time>
  <course>248.15</course>
  <speed>0.022360679774997897</speed>
  <fix>3d</fix>
</trkpt>
<trkpt lat="40.0713749" lon="-105.229789">
  <ele>1583.0</ele>
  <time>2026-08-28T17:56:00Z</time>
  <course>0.0</course>
  <speed>0.0</speed>
  <fix>3d</fix>
</trkpt>
<trkpt lat="40.0713749" lon="-105.229789">
  <ele>1583.0</ele>
  <time>2026-08-28T17:56:00Z</time>
  <course>248.14</course>
  <speed>0.022360679774997897</speed>
  <fix>3d</fix>
</trkpt>
<trkpt lat="40.0713749" lon="-105.229789">
  <ele>1583.0</ele>
  <time>2026-08-28T17:56:00Z</time>
  <course>0.0</course>
  <speed>0.0</speed>
  <fix>3d</fix>
</trkpt>
<trkpt lat="40.0713749" lon="-105.229789">
  <ele>1583.0</ele>
  <time>2026-08-28T17:56:00Z</time>
  <course>248.14</course>
  <speed>0.022360679774997897</speed>
  <fix>3d</fix>
</trkpt>
<trkpt lat="40.0713749" lon="-105.229789">
  <ele>1583.0</ele>
  <time>2026-08-28T17:56:00Z</time>
  <course>0.0</course>
  <speed>0.0</speed>
  <fix>3d</fix>
</trkpt>
<trkpt lat="40.0713749" lon="-105.229789">
  <ele>1583.0</ele>
  <time>2026-08-28T17:56:00Z</time>
  <course>248.13</course>
  <speed>0.022360679774997897</speed>
  <fix>3d</fix>
</trkpt>
<trkpt lat="40.0713749" lon="-105.229789">
  <ele>1583.0</ele>
  <time>2026-08-28T17:56:00Z</time>
  <course>0.0</course>
  <speed>0.0</speed>
  <fix>3d</fix>
</trkpt>
<trkpt lat="40.0713749" lon="-105.229789">
  <ele>1583.0</ele>
  <time>2026-08-28T17:56:00Z</time>
  <course>248.13</course>
  <speed>0.022360679774997897</speed>
  <fix>3d</fix>
</trkpt>
<trkpt lat="40.0713749" lon="-105.229789">
  <ele>1583.0</ele>
  <time>2026-08-28T17:56:00Z</time>
  <course>0.0</course>
  <speed>0.0</speed>
  <fix>3d</fix>
</trkpt>
<trkpt lat="40.0713749" lon="-105.229789">
  <ele>1583.0</ele>
  <time>2026-08-28T17:56:00Z</time>
  <course>248.12</course>
  <speed>0.022360679774997897</speed>
  <fix>3d</fix>
</trkpt>
<trkpt lat="40.0713749" lon="-105.229789">
  <ele>1583.0</ele>
  <time>2026-08-28T17:56:00Z</time>
  <course>0.0</course>
  <speed>0.0</speed>
  <fix>3d</fix>
</trkpt>
<trkpt lat="40.0713749" lon="-105.229789">
  <ele>1583.0</ele>
  <time>2026-08-28T17:56:00Z</time>
  <course>248.12</course>
  <speed>0.022360679774997897</speed>
  <fix>3d</fix>
</trkpt>
<trkpt lat="40.0713749" lon="-105.229789">
  <ele>1583.0</ele>
  <time>2026-08-28T17:56:00Z</time>
  <course>0.0</course>
  <speed>0.0</speed>
  <fix>3d</fix>
</trkpt>
<trkpt lat="40.0713749" lon="-105.229789">
  <ele>1583.0</ele>
  <time>2026-08-28T17:56:00Z</time>
  <course>248.11</course>
  <speed>0.022360679774997897</speed>
  <fix>3d</fix>
</trkpt>
<trkpt lat="40.0713749" lon="-105.229789">
  <ele>1583.0</ele>
  <time>2026-08-28T17:56:00Z</time>
  <course>0.0</course>
  <speed>0.0</speed>
  <fix>3d</fix>
</trkpt>
<trkpt lat="40.0713749" lon="-105.229789">
  <ele>1583.0</ele>
  <time>2026-08-28T17:56:00Z</time>
  <course>248.11</course>
  <speed>0.022360679774997897</speed>
  <fix>3d</fix>
</trkpt>
<trkpt lat="40.0713749" lon="-105.229789">
  <ele>1583.0</ele>
  <time>2026-08-28T17:56:00Z</time>
  <course>0.0</course>
  <speed>0.0</speed>
  <fix>3d</fix>
</trkpt>
<trkpt lat="40.0713749" lon="-105.229789">
  <ele>1583.0</ele>
  <time>2026-08-28T17:56:00Z</time>
  <course>248.1</course>
  <speed>0.022360679774997897</speed>
  <fix>3d</fix>
</trkpt>
<trkpt lat="40.0713749" lon="-105.229789">
  <ele>1583.0</ele>
  <time>2026-08-28T17:56:00Z</time>
  <course>0.0</course>
  <speed>0.0</speed>
  <fix>3d</fix>
</trkpt>
<trkpt lat="40.0713749" lon="-105.229789">
  <ele>1583.0</ele>
  <time>2026-08-28T17:56:00Z</time>
  <course>248.1</course>
  <speed>0.022360679774997897</speed>
  <fix>3d</fix>
</trkpt>
<trkpt lat="40.0713749" lon="-105.229789">
  <ele>1583.0</ele>
  <time>2026-08-28T17:56:00Z</time>
  <course>0.0</course>
  <speed>0.0</speed>
  <fix>3d</fix>
</trkpt>
<trkpt lat="40.0713749" lon="-105.229789">
  <ele>1583.0</ele>
  <time>2026-08-28T17:56:00Z</time>
  <course>248.09</course>
  <speed>0.022360679774997897</speed>
  <fix>3d</fix>
</trkpt>
<trkpt lat="40.0713749" lon="-105.229789">
  <ele>1583.0</ele>
  <time>2026-08-28T17:56:00Z</time>
  <course>0.0</course>
  <speed>0.0</speed>
  <fix>3d</fix>
</trkpt>
<trkpt lat="40.0713749" lon="-105.229789">
  <ele>1583.0</ele>
  <time>2026-08-28T17:56:00Z</time>
  <course>248.09</course>
  <speed>0.022360679774997897</speed>
  <fix>3d</fix>
</trkpt>
<trkpt lat="40.0713749" lon="-105.229789">
  <ele>1583.0</ele>
  <time>2026-08-28T17:56:00Z</time>
  <course>0.0</course>
  <speed>0.0</speed>
  <fix>3d</fix>
</trkpt>
<trkpt lat="40.0713749" lon="-105.229789">
  <ele>1583.0</ele>
  <time>2026-08-28T17:56:00Z</time>
  <course>248.08</course>
  <speed>0.022360679774997897</speed>
  <fix>3d</fix>
</trkpt>
<trkpt lat="40.0713749" lon="-105.229789">
  <ele>1583.0</ele>
  <time>2026-08-28T17:56:00Z</time>
  <course>0.0</course>
  <speed>0.0</speed>
  <fix>3d</fix>
</trkpt>
<trkpt lat="40.0713749" lon="-105.229789">
  <ele>1583.0</ele>
  <time>2026-08-28T17:56:00Z</time>
  <course>248.08</course>
  <speed>0.022360679774997897</speed>
  <fix>3d</fix>
</trkpt>
<trkpt lat="40.0713749" lon="-105.229789">
  <ele>1583.0</ele>
  <time>2026-08-28T17:56:00Z</time>
  <course>0.0</course>
  <speed>0.0</speed>
  <fix>3d</fix>
</trkpt>
<trkpt lat="40.0713749" lon="-105.229789">
  <ele>1583.0</ele>
  <time>2026-08-28T17:56:00Z</time>
  <course>248.07</course>
  <speed>0.022360679774997897</speed>
  <fix>3d</fix>
</trkpt>
<trkpt lat="40.0713749" lon="-105.229789">
  <ele>1583.0</ele>
  <time>2026-08-28T17:56:00Z</time>
  <course>0.0</course>
  <speed>0.0</speed>
  <fix>3d</fix>
</trkpt>
<trkpt lat="40.0713749" lon="-105.229789">
  <ele>1583.0</ele>
  <time>2026-08-28T17:56:00Z</time>
  <course>248.07</course>
  <speed>0.022360679774997897</speed>
  <fix>3d</fix>
</trkpt>
<trkpt lat="40.0713749" lon="-105.229789">
  <ele>1583.0</ele>
  <time>2026-08-28T17:56:00Z</time>
  <course>0.0</course>
  <speed>0.0</speed>
  <fix>3d</fix>
</trkpt>
<trkpt lat="40.0713749" lon="-105.229789">
  <ele>1583.0</ele>
  <time>2026-08-28T17:56:00Z</time>
  <course>248.06</course>
  <speed>0.022360679774997897</speed>
  <fix>3d</fix>
</trkpt>
<trkpt lat="40.0713749" lon="-105.229789">
  <ele>1583.0</ele>
  <time>2026-08-28T17:56:00Z</time>
  <course>0.0</course>
  <speed>0.0</speed>
  <fix>3d</fix>
</trkpt>
<trkpt lat="40.0713749" lon="-105.229789">
  <ele>1583.0</ele>
  <time>2026-08-28T17:56:00Z</time>
  <course>248.06</course>
  <speed>0.022360679774997897</speed>
  <fix>3d</fix>
</trkpt>
<trkpt lat="40.0713749" lon="-105.229789">
  <ele>1583.0</ele>
  <time>2026-08-28T17:56:00Z</time>
  <course>0.0</course>
  <speed>0.0</speed>
  <fix>3d</fix>
</trkpt>
<trkpt lat="40.0713749" lon="-105.229789">
  <ele>1583.0</ele>
  <time>2026-08-28T17:56:00Z</time>
  <course>248.05</course>
  <speed>0.022360679774997897</speed>
  <fix>3d</fix>
</trkpt>
<trkpt lat="40.0713749" lon="-105.229789">
  <ele>1583.0</ele>
  <time>2026-08-28T17:56:00Z</time>
  <course>0.0</course>
  <speed>0.0</speed>
  <fix>3d</fix>
</trkpt>
<trkpt lat="40.0713749" lon="-105.229789">
  <ele>1583.0</ele>
  <time>2026-08-28T17:56:00Z</time>
  <course>248.05</course>
  <speed>0.022360679774997897</speed>
  <fix>3d</fix>
</trkpt>
<trkpt lat="40.0713749" lon="-105.229789">
  <ele>1583.0</ele>
  <time>2026-08-28T17:56:00Z</time>
  <course>0.0</course>
  <speed>0.0</speed>
  <fix>3d</fix>
</trkpt>
<trkpt lat="40.0713749" lon="-105.229789">
  <ele>1583.0</ele>
  <time>2026-08-28T17:56:00Z</time>
  <course>248.05</course>
  <speed>0.022360679774997897</speed>
  <fix>3d</fix>
</trkpt>
<trkpt lat="40.0713749" lon="-105.229789">
  <ele>1583.0</ele>
  <time>2026-08-28T17:56:00Z</time>
  <course>0.0</course>
  <speed>0.0</speed>
  <fix>3d</fix>
</trkpt>
<trkpt lat="40.0713749" lon="-105.229789">
  <ele>1583.0</ele>
  <time>2026-08-28T17:56:00Z</time>
  <course>248.04</course>
  <speed>0.022360679774997897</speed>
  <fix>3d</fix>
</trkpt>
<trkpt lat="40.0713749" lon="-105.229789">
  <ele>1583.0</ele>
  <time>2026-08-28T17:56:00Z</time>
  <course>0.0</course>
  <speed>0.0</speed>
  <fix>3d</fix>
</trkpt>
<trkpt lat="40.0713749" lon="-105.229789">
  <ele>1583.0</ele>
  <time>2026-08-28T17:56:00Z</time>
  <course>248.04</course>
  <speed>0.022360679774997897</speed>
  <fix>3d</fix>
</trkpt>
<trkpt lat="40.0713749" lon="-105.229789">
  <ele>1583.0</ele>
  <time>2026-08-28T17:56:00Z</time>
  <course>0.0</course>
  <speed>0.0</speed>
  <fix>3d</fix>
</trkpt>
<trkpt lat="40.0713749" lon="-105.229789">
  <ele>1583.0</ele>
  <time>2026-08-28T17:56:00Z</time>
  <course>248.03</course>
  <speed>0.022360679774997897</speed>
  <fix>3d</fix>
</trkpt>
<trkpt lat="40.0713749" lon="-105.229789">
  <ele>1583.0</ele>
  <time>2026-08-28T17:56:00Z</time>
  <course>0.0</course>
  <speed>0.0</speed>
  <fix>3d</fix>
</trkpt>
<trkpt lat="40.0713749" lon="-105.229789">
  <ele>1583.0</ele>
  <time>2026-08-28T17:56:00Z</time>
  <course>248.03</course>
  <speed>0.022360679774997897</speed>
  <fix>3d</fix>
</trkpt>
<trkpt lat="40.0713749" lon="-105.229789">
  <ele>1583.0</ele>
  <time>2026-08-28T17:56:00Z</time>
  <course>0.0</course>
  <speed>0.0</speed>
  <fix>3d</fix>
</trkpt>
<trkpt lat="40.0713749" lon="-105.229789">
  <ele>1583.0</ele>
  <time>2026-08-28T17:56:00Z</time>
  <course>248.02</course>
  <speed>0.022360679774997897</speed>
  <fix>3d</fix>
</trkpt>
<trkpt lat="40.0713749" lon="-105.229789">
  <ele>1583.0</ele>
  <time>2026-08-28T17:56:00Z</time>
  <course>0.0</course>
  <speed>0.0</speed>
  <fix>3d</fix>
</trkpt>
<trkpt lat="40.0713749" lon="-105.229789">
  <ele>1583.0</ele>
  <time>2026-08-28T17:56:00Z</time>
  <course>248.02</course>
  <speed>0.022360679774997897</speed>
  <fix>3d</fix>
</trkpt>
<trkpt lat="40.0713749" lon="-105.229789">
  <ele>1583.0</ele>
  <time>2026-08-28T17:56:00Z</time>
  <course>0.0</course>
  <speed>0.0</speed>
  <fix>3d</fix>
</trkpt>
<trkpt lat="40.0713749" lon="-105.229789">
  <ele>1583.0</ele>
  <time>2026-08-28T17:56:00Z</time>
  <course>248.01</course>
  <speed>0.022360679774997897</speed>
  <fix>3d</fix>
</trkpt>
<trkpt lat="40.0713749" lon="-105.229789">
  <ele>1583.0</ele>
  <time>2026-08-28T17:56:00Z</time>
  <course>0.0</course>
  <speed>0.0</speed>
  <fix>3d</fix>
</trkpt>
<trkpt lat="40.0713749" lon="-105.229789">
  <ele>1583.0</ele>
  <time>2026-08-28T17:56:00Z</time>
  <course>248.01</course>
  <speed>0.022360679774997897</speed>
  <fix>3d</fix>
</trkpt>
<trkpt lat="40.0713749" lon="-105.229789">
  <ele>1583.0</ele>
  <time>2026-08-28T17:56:00Z</time>
  <course>0.0</course>
  <speed>0.0</speed>
  <fix>3d</fix>
</trkpt>
<trkpt lat="40.0713749" lon="-105.229789">
  <ele>1583.0</ele>
  <time>2026-08-28T17:56:00Z</time>
  <course>248.0</course>
  <speed>0.022360679774997897</speed>
  <fix>3d</fix>
</trkpt>
<trkpt lat="40.0713749" lon="-105.229789">
  <ele>1583.0</ele>
  <time>2026-08-28T17:56:00Z</time>
  <course>0.0</course>
  <speed>0.0</speed>
  <fix>3d</fix>
</trkpt>
<trkpt lat="40.0713749" lon="-105.229789">
  <ele>1583.0</ele>
  <time>2026-08-28T17:56:00Z</time>
  <course>248.0</course>
  <speed>0.022360679774997897</speed>
  <fix>3d</fix>
</trkpt>
<trkpt lat="40.0713749" lon="-105.229789">
  <ele>1583.0</ele>
  <time>2026-08-28T17:56:00Z</time>
  <course>0.0</course>
  <speed>0.0</speed>
  <fix>3d</fix>
</trkpt>
<trkpt lat="40.0713749" lon="-105.229789">
  <ele>1583.0</ele>
  <time>2026-08-28T17:56:00Z</time>
  <course>247.99</course>
  <speed>0.022360679774997897</speed>
  <fix>3d</fix>
</trkpt>
<trkpt lat="40.0713749" lon="-105.229789">
  <ele>1583.0</ele>
  <time>2026-08-28T17:56:00Z</time>
  <course>0.0</course>
  <speed>0.0</speed>
  <fix>3d</fix>
</trkpt>
<trkpt lat="40.0713749" lon="-105.229789">
  <ele>1583.0</ele>
  <time>2026-08-28T17:56:00Z</time>
  <course>247.99</course>
  <speed>0.022360679774997897</speed>
  <fix>3d</fix>
</trkpt>
<trkpt lat="40.0713749" lon="-105.229789">
  <ele>1583.0</ele>
  <time>2026-08-28T17:56:00Z</time>
  <course>0.0</course>
  <speed>0.0</speed>
  <fix>3d</fix>
</trkpt>
<trkpt lat="40.0713749" lon="-105.229789">
  <ele>1583.0</ele>
  <time>2026-08-28T17:56:00Z</time>
  <course>247.99</course>
  <speed>0.022360679774997897</speed>
  <fix>3d</fix>
</trkpt>
<trkpt lat="40.0713749" lon="-105.229789">
  <ele>1583.0</ele>
  <time>2026-08-28T17:56:00Z</time>
  <course>0.0</course>
  <speed>0.0</speed>
  <fix>3d</fix>
</trkpt>
<trkpt lat="40.0713749" lon="-105.229789">
  <ele>1583.0</ele>
  <time>2026-08-28T17:56:00Z</time>
  <course>247.98</course>
  <speed>0.022360679774997897</speed>
  <fix>3d</fix>
</trkpt>
<trkpt lat="40.0713749" lon="-105.229789">
  <ele>1583.0</ele>
  <time>2026-08-28T17:56:00Z</time>
  <course>0.0</course>
  <speed>0.0</speed>
  <fix>3d</fix>
</trkpt>
<trkpt lat="40.0713749" lon="-105.229789">
  <ele>1583.0</ele>
  <time>2026-08-28T17:56:00Z</time>
  <course>247.98</course>
  <speed>0.022360679774997897</speed>
  <fix>3d</fix>
</trkpt>
<trkpt lat="40.0713749" lon="-105.229789">
  <ele>1583.0</ele>
  <time>2026-08-28T17:56:00Z</time>
  <course>0.0</course>
  <speed>0.0</speed>
  <fix>3d</fix>
</trkpt>
<trkpt lat="40.0713749" lon="-105.229789">
  <ele>1583.0</ele>
  <time>2026-08-28T17:56:00Z</time>
  <course>247.97</course>
  <speed>0.022360679774997897</speed>
  <fix>3d</fix>
</trkpt>
<trkpt lat="40.0713749" lon="-105.229789">
  <ele>1583.0</ele>
  <time>2026-08-28T17:56:00Z</time>
  <course>0.0</course>
  <speed>0.0</speed>
  <fix>3d</fix>
</trkpt>
<trkpt lat="40.0713749" lon="-105.229789">
  <ele>1583.0</ele>
  <time>2026-08-28T17:56:00Z</time>
  <course>247.97</course>
  <speed>0.022360679774997897</speed>
  <fix>3d</fix>
</trkpt>
<trkpt lat="40.0713749" lon="-105.229789">
  <ele>1583.0</ele>
  <time>2026-08-28T17:56:00Z</time>
  <course>0.0</course>
  <speed>0.0</speed>
  <fix>3d</fix>
</trkpt>
<trkpt lat="40.0713749" lon="-105.229789">
  <ele>1583.0</ele>
  <time>2026-08-28T17:56:00Z</time>
  <course>247.96</course>
  <speed>0.022360679774997897</speed>
  <fix>3d</fix>
</trkpt>
<trkpt lat="40.0713749" lon="-105.229789">
  <ele>1583.0</ele>
  <time>2026-08-28T17:56:00Z</time>
  <course>0.0</course>
  <speed>0.0</speed>
  <fix>3d</fix>
</trkpt>
<trkpt lat="40.0713749" lon="-105.229789">
  <ele>1583.0</ele>
  <time>2026-08-28T17:56:00Z</time>
  <course>247.96</course>
  <speed>0.022360679774997897</speed>
  <fix>3d</fix>
</trkpt>
<trkpt lat="40.0713749" lon="-105.229789">
  <ele>1583.0</ele>
  <time>2026-08-28T17:56:00Z</time>
  <course>0.0</course>
  <speed>0.0</speed>
  <fix>3d</fix>
</trkpt>
<trkpt lat="40.0713749" lon="-105.229789">
  <ele>1583.0</ele>
  <time>2026-08-28T17:56:00Z</time>
  <course>247.95</course>
  <speed>0.022360679774997897</speed>
  <fix>3d</fix>
</trkpt>
<trkpt lat="40.0713749" lon="-105.229789">
  <ele>1583.0</ele>
  <time>2026-08-28T17:56:00Z</time>
  <course>0.0</course>
  <speed>0.0</speed>
  <fix>3d</fix>
</trkpt>
<trkpt lat="40.0713749" lon="-105.229789">
  <ele>1583.0</ele>
  <time>2026-08-28T17:56:00Z</time>
  <course>247.95</course>
  <speed>0.022360679774997897</speed>
  <fix>3d</fix>
</trkpt>
<trkpt lat="40.0713749" lon="-105.229789">
  <ele>1583.0</ele>
  <time>2026-08-28T17:56:00Z</time>
  <course>0.0</course>
  <speed>0.0</speed>
  <fix>3d</fix>
</trkpt>
<trkpt lat="40.0713749" lon="-105.229789">
  <ele>1583.0</ele>
  <time>2026-08-28T17:56:00Z</time>
  <course>247.95</course>
  <speed>0.022360679774997897</speed>
  <fix>3d</fix>
</trkpt>
<trkpt lat="40.0713749" lon="-105.229789">
  <ele>1583.0</ele>
  <time>2026-08-28T17:56:00Z</time>
  <course>0.0</course>
  <speed>0.0</speed>
  <fix>3d</fix>
</trkpt>
<trkpt lat="40.0713749" lon="-105.229789">
  <ele>1583.0</ele>
  <time>2026-08-28T17:56:00Z</time>
  <course>247.94</course>
  <speed>0.022360679774997897</speed>
  <fix>3d</fix>
</trkpt>
<trkpt lat="40.0713749" lon="-105.229789">
  <ele>1583.0</ele>
  <time>2026-08-28T17:56:00Z</time>
  <course>0.0</course>
  <speed>0.0</speed>
  <fix>3d</fix>
</trkpt>
<trkpt lat="40.0713749" lon="-105.229789">
  <ele>1583.0</ele>
  <time>2026-08-28T17:56:00Z</time>
  <course>247.94</course>
  <speed>0.022360679774997897</speed>
  <fix>3d</fix>
</trkpt>
<trkpt lat="40.0713749" lon="-105.229789">
  <ele>1583.0</ele>
  <time>2026-08-28T17:56:00Z</time>
  <course>0.0</course>
  <speed>0.0</speed>
  <fix>3d</fix>
</trkpt>
<trkpt lat="40.0713749" lon="-105.229789">
  <ele>1583.0</ele>
  <time>2026-08-28T17:56:00Z</time>
  <course>247.93</course>
  <speed>0.022360679774997897</speed>
  <fix>3d</fix>
</trkpt>
<trkpt lat="40.0713749" lon="-105.229789">
  <ele>1583.0</ele>
  <time>2026-08-28T17:56:00Z</time>
  <course>0.0</course>
  <speed>0.0</speed>
  <fix>3d</fix>
</trkpt>
<trkpt lat="40.0713749" lon="-105.229789">
  <ele>1583.0</ele>
  <time>2026-08-28T17:56:00Z</time>
  <course>247.93</course>
  <speed>0.022360679774997897</speed>
  <fix>3d</fix>
</trkpt>
<trkpt lat="40.0713749" lon="-105.229789">
  <ele>1583.0</ele>
  <time>2026-08-28T17:56:00Z</time>
  <course>0.0</course>
  <speed>0.0</speed>
  <fix>3d</fix>
</trkpt>
<trkpt lat="40.0713749" lon="-105.229789">
  <ele>1583.0</ele>
  <time>2026-08-28T17:56:00Z</time>
  <course>247.92</course>
  <speed>0.022360679774997897</speed>
  <fix>3d</fix>
</trkpt>
<trkpt lat="40.0713749" lon="-105.229789">
  <ele>1583.0</ele>
  <time>2026-08-28T17:56:00Z</time>
  <course>0.0</course>
  <speed>0.0</speed>
  <fix>3d</fix>
</trkpt>
<trkpt lat="40.0713749" lon="-105.229789">
  <ele>1583.0</ele>
  <time>2026-08-28T17:56:00Z</time>
  <course>247.92</course>
  <speed>0.022360679774997897</speed>
  <fix>3d</fix>
</trkpt>
<trkpt lat="40.0713749" lon="-105.229789">
  <ele>1583.0</ele>
  <time>2026-08-28T17:56:00Z</time>
  <course>0.0</course>
  <speed>0.0</speed>
  <fix>3d</fix>
</trkpt>
<trkpt lat="40.0713749" lon="-105.229789">
  <ele>1583.0</ele>
  <time>2026-08-28T17:56:00Z</time>
  <course>247.92</course>
  <speed>0.022360679774997897</speed>
  <fix>3d</fix>
</trkpt>
<trkpt lat="40.0713749" lon="-105.229789">
  <ele>1583.0</ele>
  <time>2026-08-28T17:56:00Z</time>
  <course>0.0</course>
  <speed>0.0</speed>
  <fix>3d</fix>
</trkpt>
<trkpt lat="40.0713749" lon="-105.229789">
  <ele>1583.0</ele>
  <time>2026-08-28T17:56:00Z</time>
  <course>247.91</course>
  <speed>0.022360679774997897</speed>
  <fix>3d</fix>
</trkpt>
<trkpt lat="40.0713749" lon="-105.229789">
  <ele>1583.0</ele>
  <time>2026-08-28T17:56:00Z</time>
  <course>0.0</course>
  <speed>0.0</speed>
  <fix>3d</fix>
</trkpt>
<trkpt lat="40.0713749" lon="-105.229789">
  <ele>1583.0</ele>
  <time>2026-08-28T17:56:00Z</time>
  <course>247.91</course>
  <speed>0.022360679774997897</speed>
  <fix>3d</fix>
</trkpt>
<trkpt lat="40.0713749" lon="-105.229789">
  <ele>1583.0</ele>
  <time>2026-08-28T17:56:00Z</time>
  <course>0.0</course>
  <speed>0.0</speed>
  <fix>3d</fix>
</trkpt>
<trkpt lat="40.0713749" lon="-105.229789">
  <ele>1583.0</ele>
  <time>2026-08-28T17:56:00Z</time>
  <course>247.9</course>
  <speed>0.022360679774997897</speed>
  <fix>3d</fix>
</trkpt>
<trkpt lat="40.0713749" lon="-105.229789">
  <ele>1583.0</ele>
  <time>2026-08-28T17:56:00Z</time>
  <course>0.0</course>
  <speed>0.0</speed>
  <fix>3d</fix>
</trkpt>
<trkpt lat="40.0713749" lon="-105.229789">
  <ele>1583.0</ele>
  <time>2026-08-28T17:56:00Z</time>
  <course>247.9</course>
  <speed>0.022360679774997897</speed>
  <fix>3d</fix>
</trkpt>
<trkpt lat="40.0713749" lon="-105.229789">
  <ele>1583.0</ele>
  <time>2026-08-28T17:56:00Z</time>
  <course>0.0</course>
  <speed>0.0</speed>
  <fix>3d</fix>
</trkpt>
<trkpt lat="40.0713749" lon="-105.229789">
  <ele>1583.0</ele>
  <time>2026-08-28T17:56:00Z</time>
  <course>247.89</course>
  <speed>0.022360679774997897</speed>
  <fix>3d</fix>
</trkpt>
<trkpt lat="40.0713749" lon="-105.229789">
  <ele>1583.0</ele>
  <time>2026-08-28T17:56:00Z</time>
  <course>0.0</course>
  <speed>0.0</speed>
  <fix>3d</fix>
</trkpt>
<trkpt lat="40.0713749" lon="-105.229789">
  <ele>1583.0</ele>
  <time>2026-08-28T17:56:00Z</time>
  <course>247.89</course>
  <speed>0.022360679774997897</speed>
  <fix>3d</fix>
</trkpt>
<trkpt lat="40.0713749" lon="-105.229789">
  <ele>1583.0</ele>
  <time>2026-08-28T17:56:00Z</time>
  <course>0.0</course>
  <speed>0.0</speed>
  <fix>3d</fix>
</trkpt>
<trkpt lat="40.0713749" lon="-105.229789">
  <ele>1583.0</ele>
  <time>2026-08-28T17:56:00Z</time>
  <course>247.89</course>
  <speed>0.022360679774997897</speed>
  <fix>3d</fix>
</trkpt>
<trkpt lat="40.0713749" lon="-105.229789">
  <ele>1583.0</ele>
  <time>2026-08-28T17:56:00Z</time>
  <course>0.0</course>
  <speed>0.0</speed>
  <fix>3d</fix>
</trkpt>
<trkpt lat="40.0713749" lon="-105.229789">
  <ele>1583.0</ele>
  <time>2026-08-28T17:56:00Z</time>
  <course>247.88</course>
  <speed>0.0316227766016838</speed>
  <fix>3d</fix>
</trkpt>
<trkpt lat="40.0713749" lon="-105.229789">
  <ele>1583.0</ele>
  <time>2026-08-28T17:56:00Z</time>
  <course>0.0</course>
  <speed>0.0</speed>
  <fix>3d</fix>
</trkpt>
<trkpt lat="40.0713749" lon="-105.229789">
  <ele>1583.0</ele>
  <time>2026-08-28T17:56:00Z</time>
  <course>247.88</course>
  <speed>0.0316227766016838</speed>
  <fix>3d</fix>
</trkpt>
<trkpt lat="40.0713749" lon="-105.229789">
  <ele>1583.0</ele>
  <time>2026-08-28T17:56:00Z</time>
  <course>0.0</course>
  <speed>0.0</speed>
  <fix>3d</fix>
</trkpt>
<trkpt lat="40.0713749" lon="-105.229789">
  <ele>1583.0</ele>
  <time>2026-08-28T17:56:00Z</time>
  <course>247.87</course>
  <speed>0.0316227766016838</speed>
  <fix>3d</fix>
</trkpt>
<trkpt lat="40.0713749" lon="-105.229789">
  <ele>1583.0</ele>
  <time>2026-08-28T17:56:00Z</time>
  <course>0.0</course>
  <speed>0.0</speed>
  <fix>3d</fix>
</trkpt>
<trkpt lat="40.0713749" lon="-105.229789">
  <ele>1583.0</ele>
  <time>2026-08-28T17:56:00Z</time>
  <course>247.87</course>
  <speed>0.0316227766016838</speed>
  <fix>3d</fix>
</trkpt>
<trkpt lat="40.0713749" lon="-105.229789">
  <ele>1583.0</ele>
  <time>2026-08-28T17:56:00Z</time>
  <course>0.0</course>
  <speed>0.0</speed>
  <fix>3d</fix>
</trkpt>
<trkpt lat="40.0713749" lon="-105.229789">
  <ele>1583.0</ele>
  <time>2026-08-28T17:56:00Z</time>
  <course>247.87</course>
  <speed>0.0316227766016838</speed>
  <fix>3d</fix>
</trkpt>
<trkpt lat="40.0713749" lon="-105.229789">
  <ele>1583.0</ele>
  <time>2026-08-28T17:56:00Z</time>
  <course>0.0</course>
  <speed>0.0</speed>
  <fix>3d</fix>
</trkpt>
<trkpt lat="40.0713749" lon="-105.229789">
  <ele>1583.0</ele>
  <time>2026-08-28T17:56:00Z</time>
  <course>247.86</course>
  <speed>0.0316227766016838</speed>
  <fix>3d</fix>
</trkpt>
<trkpt lat="40.0713749" lon="-105.229789">
  <ele>1583.0</ele>
  <time>2026-08-28T17:56:00Z</time>
  <course>0.0</course>
  <speed>0.0</speed>
  <fix>3d</fix>
</trkpt>
<trkpt lat="40.0713749" lon="-105.229789">
  <ele>1583.0</ele>
  <time>2026-08-28T17:56:00Z</time>
  <course>247.86</course>
  <speed>0.0316227766016838</speed>
  <fix>3d</fix>
</trkpt>
<trkpt lat="40.0713749" lon="-105.229789">
  <ele>1583.0</ele>
  <time>2026-08-28T17:56:00Z</time>
  <course>0.0</course>
  <speed>0.0</speed>
  <fix>3d</fix>
</trkpt>
<trkpt lat="40.0713749" lon="-105.229789">
  <ele>1583.0</ele>
  <time>2026-08-28T17:56:00Z</time>
  <course>247.85</course>
  <speed>0.0316227766016838</speed>
  <fix>3d</fix>
</trkpt>
<trkpt lat="40.0713749" lon="-105.229789">
  <ele>1583.0</ele>
  <time>2026-08-28T17:56:00Z</time>
  <course>0.0</course>
  <speed>0.0</speed>
  <fix>3d</fix>
</trkpt>
<trkpt lat="40.0713749" lon="-105.229789">
  <ele>1583.0</ele>
  <time>2026-08-28T17:56:00Z</time>
  <course>247.85</course>
  <speed>0.0316227766016838</speed>
  <fix>3d</fix>
</trkpt>
<trkpt lat="40.0713749" lon="-105.229789">
  <ele>1583.0</ele>
  <time>2026-08-28T17:56:00Z</time>
  <course>0.0</course>
  <speed>0.0</speed>
  <fix>3d</fix>
</trkpt>
<trkpt lat="40.0713749" lon="-105.229789">
  <ele>1583.0</ele>
  <time>2026-08-28T17:56:00Z</time>
  <course>247.85</course>
  <speed>0.0316227766016838</speed>
  <fix>3d</fix>
</trkpt>
<trkpt lat="40.0713749" lon="-105.229789">
  <ele>1583.0</ele>
  <time>2026-08-28T17:56:00Z</time>
  <course>0.0</course>
  <speed>0.0</speed>
  <fix>3d</fix>
</trkpt>
<trkpt lat="40.0713749" lon="-105.229789">
  <ele>1583.0</ele>
  <time>2026-08-28T17:56:00Z</time>
  <course>247.84</course>
  <speed>0.0316227766016838</speed>
  <fix>3d</fix>
</trkpt>
<trkpt lat="40.0713749" lon="-105.229789">
  <ele>1583.0</ele>
  <time>2026-08-28T17:56:00Z</time>
  <course>0.0</course>
  <speed>0.0</speed>
  <fix>3d</fix>
</trkpt>
<trkpt lat="40.0713749" lon="-105.229789">
  <ele>1583.0</ele>
  <time>2026-08-28T17:56:00Z</time>
  <course>247.84</course>
  <speed>0.0316227766016838</speed>
  <fix>3d</fix>
</trkpt>
<trkpt lat="40.0713749" lon="-105.229789">
  <ele>1583.0</ele>
  <time>2026-08-28T17:56:00Z</time>
  <course>0.0</course>
  <speed>0.0</speed>
  <fix>3d</fix>
</trkpt>
<trkpt lat="40.0713749" lon="-105.229789">
  <ele>1583.0</ele>
  <time>2026-08-28T17:56:00Z</time>
  <course>247.83</course>
  <speed>0.0316227766016838</speed>
  <fix>3d</fix>
</trkpt>
<trkpt lat="40.0713749" lon="-105.229789">
  <ele>1583.0</ele>
  <time>2026-08-28T17:56:00Z</time>
  <course>0.0</course>
  <speed>0.0</speed>
  <fix>3d</fix>
</trkpt>
<trkpt lat="40.0713749" lon="-105.229789">
  <ele>1583.0</ele>
  <time>2026-08-28T17:56:00Z</time>
  <course>247.83</course>
  <speed>0.0316227766016838</speed>
  <fix>3d</fix>
</trkpt>
<trkpt lat="40.0713749" lon="-105.229789">
  <ele>1583.0</ele>
  <time>2026-08-28T17:56:00Z</time>
  <course>0.0</course>
  <speed>0.0</speed>
  <fix>3d</fix>
</trkpt>
<trkpt lat="40.0713749" lon="-105.229789">
  <ele>1583.0</ele>
  <time>2026-08-28T17:56:00Z</time>
  <course>247.83</course>
  <speed>0.0316227766016838</speed>
  <fix>3d</fix>
</trkpt>
<trkpt lat="40.0713749" lon="-105.229789">
  <ele>1583.0</ele>
  <time>2026-08-28T17:56:00Z</time>
  <course>0.0</course>
  <speed>0.0</speed>
  <fix>3d</fix>
</trkpt>
<trkpt lat="40.0713749" lon="-105.229789">
  <ele>1583.0</ele>
  <time>2026-08-28T17:56:00Z</time>
  <course>247.82</course>
  <speed>0.0316227766016838</speed>
  <fix>3d</fix>
</trkpt>
<trkpt lat="40.0713749" lon="-105.229789">
  <ele>1583.0</ele>
  <time>2026-08-28T17:56:00Z</time>
  <course>0.0</course>
  <speed>0.0</speed>
  <fix>3d</fix>
</trkpt>
<trkpt lat="40.0713749" lon="-105.229789">
  <ele>1583.0</ele>
  <time>2026-08-28T17:56:00Z</time>
  <course>247.82</course>
  <speed>0.0316227766016838</speed>
  <fix>3d</fix>
</trkpt>
<trkpt lat="40.0713749" lon="-105.229789">
  <ele>1583.0</ele>
  <time>2026-08-28T17:56:00Z</time>
  <course>0.0</course>
  <speed>0.0</speed>
  <fix>3d</fix>
</trkpt>
<trkpt lat="40.0713749" lon="-105.229789">
  <ele>1583.0</ele>
  <time>2026-08-28T17:56:00Z</time>
  <course>247.82</course>
  <speed>0.0316227766016838</speed>
  <fix>3d</fix>
</trkpt>
<trkpt lat="40.0713749" lon="-105.229789">
  <ele>1583.0</ele>
  <time>2026-08-28T17:56:00Z</time>
  <course>0.0</course>
  <speed>0.0</speed>
  <fix>3d</fix>
</trkpt>
<trkpt lat="40.0713749" lon="-105.229789">
  <ele>1583.0</ele>
  <time>2026-08-28T17:56:00Z</time>
  <course>247.81</course>
  <speed>0.0316227766016838</speed>
  <fix>3d</fix>
</trkpt>
<trkpt lat="40.0713749" lon="-105.229789">
  <ele>1583.0</ele>
  <time>2026-08-28T17:56:00Z</time>
  <course>0.0</course>
  <speed>0.0</speed>
  <fix>3d</fix>
</trkpt>
<trkpt lat="40.0713749" lon="-105.229789">
  <ele>1583.0</ele>
  <time>2026-08-28T17:56:00Z</time>
  <course>247.81</course>
  <speed>0.0316227766016838</speed>
  <fix>3d</fix>
</trkpt>
<trkpt lat="40.0713749" lon="-105.229789">
  <ele>1583.0</ele>
  <time>2026-08-28T17:56:00Z</time>
  <course>0.0</course>
  <speed>0.0</speed>
  <fix>3d</fix>
</trkpt>
<trkpt lat="40.0713749" lon="-105.229789">
  <ele>1583.0</ele>
  <time>2026-08-28T17:56:00Z</time>
  <course>247.8</course>
  <speed>0.0316227766016838</speed>
  <fix>3d</fix>
</trkpt>
<trkpt lat="40.0713749" lon="-105.229789">
  <ele>1583.0</ele>
  <time>2026-08-28T17:56:00Z</time>
  <course>0.0</course>
  <speed>0.0</speed>
  <fix>3d</fix>
</trkpt>
<trkpt lat="40.0713749" lon="-105.229789">
  <ele>1583.0</ele>
  <time>2026-08-28T17:56:00Z</time>
  <course>247.8</course>
  <speed>0.0316227766016838</speed>
  <fix>3d</fix>
</trkpt>
<trkpt lat="40.0713749" lon="-105.229789">
  <ele>1583.0</ele>
  <time>2026-08-28T17:56:00Z</time>
  <course>0.0</course>
  <speed>0.0</speed>
  <fix>3d</fix>
</trkpt>
<trkpt lat="40.0713749" lon="-105.229789">
  <ele>1583.0</ele>
  <time>2026-08-28T17:56:00Z</time>
  <course>247.8</course>
  <speed>0.0316227766016838</speed>
  <fix>3d</fix>
</trkpt>
<trkpt lat="40.0713749" lon="-105.229789">
  <ele>1583.0</ele>
  <time>2026-08-28T17:56:00Z</time>
  <course>0.0</course>
  <speed>0.0</speed>
  <fix>3d</fix>
</trkpt>
<trkpt lat="40.0713749" lon="-105.229789">
  <ele>1583.0</ele>
  <time>2026-08-28T17:56:00Z</time>
  <course>247.79</course>
  <speed>0.0316227766016838</speed>
  <fix>3d</fix>
</trkpt>
<trkpt lat="40.0713749" lon="-105.229789">
  <ele>1583.0</ele>
  <time>2026-08-28T17:56:00Z</time>
  <course>0.0</course>
  <speed>0.0</speed>
  <fix>3d</fix>
</trkpt>
<trkpt lat="40.0713749" lon="-105.229789">
  <ele>1583.0</ele>
  <time>2026-08-28T17:56:00Z</time>
  <course>247.79</course>
  <speed>0.0316227766016838</speed>
  <fix>3d</fix>
</trkpt>
<trkpt lat="40.0713749" lon="-105.229789">
  <ele>1583.0</ele>
  <time>2026-08-28T17:56:00Z</time>
  <course>0.0</course>
  <speed>0.0</speed>
  <fix>3d</fix>
</trkpt>
<trkpt lat="40.0713749" lon="-105.229789">
  <ele>1583.0</ele>
  <time>2026-08-28T17:56:00Z</time>
  <course>247.79</course>
  <speed>0.0316227766016838</speed>
  <fix>3d</fix>
</trkpt>
<trkpt lat="40.0713749" lon="-105.229789">
  <ele>1583.0</ele>
  <time>2026-08-28T17:56:00Z</time>
  <course>0.0</course>
  <speed>0.0</speed>
  <fix>3d</fix>
</trkpt>
<trkpt lat="40.0713749" lon="-105.229789">
  <ele>1583.0</ele>
  <time>2026-08-28T17:56:00Z</time>
  <course>247.78</course>
  <speed>0.0316227766016838</speed>
  <fix>3d</fix>
</trkpt>
<trkpt lat="40.0713749" lon="-105.229789">
  <ele>1583.0</ele>
  <time>2026-08-28T17:56:00Z</time>
  <course>0.0</course>
  <speed>0.0</speed>
  <fix>3d</fix>
</trkpt>
<trkpt lat="40.0713749" lon="-105.229789">
  <ele>1583.0</ele>
  <time>2026-08-28T17:56:00Z</time>
  <course>247.78</course>
  <speed>0.0316227766016838</speed>
  <fix>3d</fix>
</trkpt>
<trkpt lat="40.0713749" lon="-105.229789">
  <ele>1583.0</ele>
  <time>2026-08-28T17:56:00Z</time>
  <course>0.0</course>
  <speed>0.0</speed>
  <fix>3d</fix>
</trkpt>
<trkpt lat="40.0713749" lon="-105.229789">
  <ele>1583.0</ele>
  <time>2026-08-28T17:56:00Z</time>
  <course>247.78</course>
  <speed>0.0316227766016838</speed>
  <fix>3d</fix>
</trkpt>
<trkpt lat="40.0713749" lon="-105.229789">
  <ele>1583.0</ele>
  <time>2026-08-28T17:56:00Z</time>
  <course>0.0</course>
  <speed>0.0</speed>
  <fix>3d</fix>
</trkpt>
<trkpt lat="40.0713749" lon="-105.229789">
  <ele>1583.0</ele>
  <time>2026-08-28T17:56:00Z</time>
  <course>247.77</course>
  <speed>0.0316227766016838</speed>
  <fix>3d</fix>
</trkpt>
<trkpt lat="40.0713749" lon="-105.229789">
  <ele>1583.0</ele>
  <time>2026-08-28T17:56:00Z</time>
  <course>0.0</course>
  <speed>0.0</speed>
  <fix>3d</fix>
</trkpt>
<trkpt lat="40.0713749" lon="-105.229789">
  <ele>1583.0</ele>
  <time>2026-08-28T17:56:00Z</time>
  <course>247.77</course>
  <speed>0.0316227766016838</speed>
  <fix>3d</fix>
</trkpt>
<trkpt lat="40.0713749" lon="-105.229789">
  <ele>1583.0</ele>
  <time>2026-08-28T17:56:00Z</time>
  <course>0.0</course>
  <speed>0.0</speed>
  <fix>3d</fix>
</trkpt>
<trkpt lat="40.0713749" lon="-105.229789">
  <ele>1583.0</ele>
  <time>2026-08-28T17:56:00Z</time>
  <course>247.76</course>
  <speed>0.0316227766016838</speed>
  <fix>3d</fix>
</trkpt>
<trkpt lat="40.0713749" lon="-105.229789">
  <ele>1583.0</ele>
  <time>2026-08-28T17:56:00Z</time>
  <course>0.0</course>
  <speed>0.0</speed>
  <fix>3d</fix>
</trkpt>
<trkpt lat="40.0713749" lon="-105.229789">
  <ele>1583.0</ele>
  <time>2026-08-28T17:56:00Z</time>
  <course>247.76</course>
  <speed>0.0316227766016838</speed>
  <fix>3d</fix>
</trkpt>
<trkpt lat="40.0713749" lon="-105.229789">
  <ele>1583.0</ele>
  <time>2026-08-28T17:56:00Z</time>
  <course>0.0</course>
  <speed>0.0</speed>
  <fix>3d</fix>
</trkpt>
<trkpt lat="40.0713749" lon="-105.229789">
  <ele>1583.0</ele>
  <time>2026-08-28T17:56:00Z</time>
  <course>247.76</course>
  <speed>0.0316227766016838</speed>
  <fix>3d</fix>
</trkpt>
<trkpt lat="40.0713749" lon="-105.229789">
  <ele>1583.0</ele>
  <time>2026-08-28T17:56:00Z</time>
  <course>0.0</course>
  <speed>0.0</speed>
  <fix>3d</fix>
</trkpt>
<trkpt lat="40.0713749" lon="-105.229789">
  <ele>1583.0</ele>
  <time>2026-08-28T17:56:00Z</time>
  <course>247.75</course>
  <speed>0.0316227766016838</speed>
  <fix>3d</fix>
</trkpt>
<trkpt lat="40.0713749" lon="-105.229789">
  <ele>1583.0</ele>
  <time>2026-08-28T17:56:00Z</time>
  <course>0.0</course>
  <speed>0.0</speed>
  <fix>3d</fix>
</trkpt>
<trkpt lat="40.0713749" lon="-105.229789">
  <ele>1583.0</ele>
  <time>2026-08-28T17:56:00Z</time>
  <course>247.75</course>
  <speed>0.0316227766016838</speed>
  <fix>3d</fix>
</trkpt>
<trkpt lat="40.0713749" lon="-105.229789">
  <ele>1583.0</ele>
  <time>2026-08-28T17:56:00Z</time>
  <course>0.0</course>
  <speed>0.0</speed>
  <fix>3d</fix>
</trkpt>
<trkpt lat="40.0713749" lon="-105.229789">
  <ele>1583.0</ele>
  <time>2026-08-28T17:56:00Z</time>
  <course>247.75</course>
  <speed>0.0316227766016838</speed>
  <fix>3d</fix>
</trkpt>
<trkpt lat="40.0713749" lon="-105.229789">
  <ele>1583.0</ele>
  <time>2026-08-28T17:56:00Z</time>
  <course>0.0</course>
  <speed>0.0</speed>
  <fix>3d</fix>
</trkpt>
<trkpt lat="40.0713749" lon="-105.229789">
  <ele>1583.0</ele>
  <time>2026-08-28T17:56:00Z</time>
  <course>247.74</course>
  <speed>0.0316227766016838</speed>
  <fix>3d</fix>
</trkpt>
<trkpt lat="40.0713749" lon="-105.229789">
  <ele>1583.0</ele>
  <time>2026-08-28T17:56:00Z</time>
  <course>0.0</course>
  <speed>0.0</speed>
  <fix>3d</fix>
</trkpt>
<trkpt lat="40.0713749" lon="-105.229789">
  <ele>1583.0</ele>
  <time>2026-08-28T17:56:00Z</time>
  <course>247.74</course>
  <speed>0.0316227766016838</speed>
  <fix>3d</fix>
</trkpt>
<trkpt lat="40.0713749" lon="-105.229789">
  <ele>1583.0</ele>
  <time>2026-08-28T17:56:00Z</time>
  <course>0.0</course>
  <speed>0.0</speed>
  <fix>3d</fix>
</trkpt>
<trkpt lat="40.0713749" lon="-105.229789">
  <ele>1583.0</ele>
  <time>2026-08-28T17:56:00Z</time>
  <course>247.74</course>
  <speed>0.0316227766016838</speed>
  <fix>3d</fix>
</trkpt>
<trkpt lat="40.0713749" lon="-105.229789">
  <ele>1583.0</ele>
  <time>2026-08-28T17:56:00Z</time>
  <course>0.0</course>
  <speed>0.0</speed>
  <fix>3d</fix>
</trkpt>
<trkpt lat="40.0713749" lon="-105.229789">
  <ele>1583.0</ele>
  <time>2026-08-28T17:56:00Z</time>
  <course>247.73</course>
  <speed>0.0316227766016838</speed>
  <fix>3d</fix>
</trkpt>
<trkpt lat="40.0713749" lon="-105.229789">
  <ele>1583.0</ele>
  <time>2026-08-28T17:56:00Z</time>
  <course>0.0</course>
  <speed>0.0</speed>
  <fix>3d</fix>
</trkpt>
<trkpt lat="40.0713749" lon="-105.229789">
  <ele>1583.0</ele>
  <time>2026-08-28T17:56:00Z</time>
  <course>247.73</course>
  <speed>0.0316227766016838</speed>
  <fix>3d</fix>
</trkpt>
<trkpt lat="40.0713749" lon="-105.229789">
  <ele>1583.0</ele>
  <time>2026-08-28T17:56:00Z</time>
  <course>0.0</course>
  <speed>0.0</speed>
  <fix>3d</fix>
</trkpt>
<trkpt lat="40.0713749" lon="-105.229789">
  <ele>1583.0</ele>
  <time>2026-08-28T17:56:00Z</time>
  <course>247.73</course>
  <speed>0.0316227766016838</speed>
  <fix>3d</fix>
</trkpt>
<trkpt lat="40.0713749" lon="-105.229789">
  <ele>1583.0</ele>
  <time>2026-08-28T17:56:00Z</time>
  <course>0.0</course>
  <speed>0.0</speed>
  <fix>3d</fix>
</trkpt>
<trkpt lat="40.0713749" lon="-105.229789">
  <ele>1583.0</ele>
  <time>2026-08-28T17:56:00Z</time>
  <course>247.72</course>
  <speed>0.0316227766016838</speed>
  <fix>3d</fix>
</trkpt>
<trkpt lat="40.0713749" lon="-105.229789">
  <ele>1583.0</ele>
  <time>2026-08-28T17:56:00Z</time>
  <course>0.0</course>
  <speed>0.0</speed>
  <fix>3d</fix>
</trkpt>
<trkpt lat="40.0713749" lon="-105.229789">
  <ele>1583.0</ele>
  <time>2026-08-28T17:56:00Z</time>
  <course>247.72</course>
  <speed>0.0316227766016838</speed>
  <fix>3d</fix>
</trkpt>
<trkpt lat="40.0713749" lon="-105.229789">
  <ele>1583.0</ele>
  <time>2026-08-28T17:56:00Z</time>
  <course>0.0</course>
  <speed>0.0</speed>
  <fix>3d</fix>
</trkpt>
<trkpt lat="40.0713749" lon="-105.229789">
  <ele>1583.0</ele>
  <time>2026-08-28T17:56:00Z</time>
  <course>247.72</course>
  <speed>0.0316227766016838</speed>
  <fix>3d</fix>
</trkpt>
<trkpt lat="40.0713749" lon="-105.229789">
  <ele>1583.0</ele>
  <time>2026-08-28T17:56:00Z</time>
  <course>0.0</course>
  <speed>0.0</speed>
  <fix>3d</fix>
</trkpt>
<trkpt lat="40.0713749" lon="-105.229789">
  <ele>1583.0</ele>
  <time>2026-08-28T17:56:00Z</time>
  <course>247.71</course>
  <speed>0.0316227766016838</speed>
  <fix>3d</fix>
</trkpt>
<trkpt lat="40.0713749" lon="-105.229789">
  <ele>1583.0</ele>
  <time>2026-08-28T17:56:00Z</time>
  <course>0.0</course>
  <speed>0.0</speed>
  <fix>3d</fix>
</trkpt>
<trkpt lat="40.0713749" lon="-105.229789">
  <ele>1583.0</ele>
  <time>2026-08-28T17:56:00Z</time>
  <course>247.71</course>
  <speed>0.0316227766016838</speed>
  <fix>3d</fix>
</trkpt>
<trkpt lat="40.0713749" lon="-105.229789">
  <ele>1583.0</ele>
  <time>2026-08-28T17:56:00Z</time>
  <course>0.0</course>
  <speed>0.0</speed>
  <fix>3d</fix>
</trkpt>
<trkpt lat="40.0713749" lon="-105.229789">
  <ele>1583.0</ele>
  <time>2026-08-28T17:56:00Z</time>
  <course>247.71</course>
  <speed>0.0316227766016838</speed>
  <fix>3d</fix>
</trkpt>
<trkpt lat="40.0713749" lon="-105.229789">
  <ele>1583.0</ele>
  <time>2026-08-28T17:56:00Z</time>
  <course>0.0</course>
  <speed>0.0</speed>
  <fix>3d</fix>
</trkpt>
<trkpt lat="40.0713749" lon="-105.229789">
  <ele>1583.0</ele>
  <time>2026-08-28T17:56:00Z</time>
  <course>247.7</course>
  <speed>0.0316227766016838</speed>
  <fix>3d</fix>
</trkpt>
<trkpt lat="40.0713749" lon="-105.229789">
  <ele>1583.0</ele>
  <time>2026-08-28T17:56:00Z</time>
  <course>0.0</course>
  <speed>0.0</speed>
  <fix>3d</fix>
</trkpt>
<trkpt lat="40.0713749" lon="-105.229789">
  <ele>1583.0</ele>
  <time>2026-08-28T17:56:00Z</time>
  <course>247.7</course>
  <speed>0.0316227766016838</speed>
  <fix>3d</fix>
</trkpt>
<trkpt lat="40.0713749" lon="-105.229789">
  <ele>1583.0</ele>
  <time>2026-08-28T17:56:00Z</time>
  <course>0.0</course>
  <speed>0.0</speed>
  <fix>3d</fix>
</trkpt>
<trkpt lat="40.0713749" lon="-105.229789">
  <ele>1583.0</ele>
  <time>2026-08-28T17:56:00Z</time>
  <course>247.7</course>
  <speed>0.0316227766016838</speed>
  <fix>3d</fix>
</trkpt>
<trkpt lat="40.0713749" lon="-105.229789">
  <ele>1583.0</ele>
  <time>2026-08-28T17:56:00Z</time>
  <course>0.0</course>
  <speed>0.0</speed>
  <fix>3d</fix>
</trkpt>
<trkpt lat="40.0713749" lon="-105.229789">
  <ele>1583.0</ele>
  <time>2026-08-28T17:56:00Z</time>
  <course>247.69</course>
  <speed>0.0316227766016838</speed>
  <fix>3d</fix>
</trkpt>
<trkpt lat="40.0713749" lon="-105.229789">
  <ele>1583.0</ele>
  <time>2026-08-28T17:56:00Z</time>
  <course>0.0</course>
  <speed>0.0</speed>
  <fix>3d</fix>
</trkpt>
<trkpt lat="40.0713749" lon="-105.229789">
  <ele>1583.0</ele>
  <time>2026-08-28T17:56:00Z</time>
  <course>247.69</course>
  <speed>0.0316227766016838</speed>
  <fix>3d</fix>
</trkpt>
<trkpt lat="40.0713749" lon="-105.229789">
  <ele>1583.0</ele>
  <time>2026-08-28T17:56:00Z</time>
  <course>0.0</course>
  <speed>0.0</speed>
  <fix>3d</fix>
</trkpt>
<trkpt lat="40.0713749" lon="-105.229789">
  <ele>1583.0</ele>
  <time>2026-08-28T17:56:00Z</time>
  <course>247.69</course>
  <speed>0.0316227766016838</speed>
  <fix>3d</fix>
</trkpt>
<trkpt lat="40.0713749" lon="-105.229789">
  <ele>1583.0</ele>
  <time>2026-08-28T17:56:00Z</time>
  <course>0.0</course>
  <speed>0.0</speed>
  <fix>3d</fix>
</trkpt>
<trkpt lat="40.0713749" lon="-105.229789">
  <ele>1583.0</ele>
  <time>2026-08-28T17:56:00Z</time>
  <course>247.68</course>
  <speed>0.0316227766016838</speed>
  <fix>3d</fix>
</trkpt>
<trkpt lat="40.0713749" lon="-105.229789">
  <ele>1583.0</ele>
  <time>2026-08-28T17:56:00Z</time>
  <course>0.0</course>
  <speed>0.0</speed>
  <fix>3d</fix>
</trkpt>
<trkpt lat="40.0713749" lon="-105.229789">
  <ele>1583.0</ele>
  <time>2026-08-28T17:56:00Z</time>
  <course>247.68</course>
  <speed>0.0316227766016838</speed>
  <fix>3d</fix>
</trkpt>
<trkpt lat="40.0713749" lon="-105.229789">
  <ele>1583.0</ele>
  <time>2026-08-28T17:56:00Z</time>
  <course>0.0</course>
  <speed>0.0</speed>
  <fix>3d</fix>
</trkpt>
<trkpt lat="40.0713749" lon="-105.229789">
  <ele>1583.0</ele>
  <time>2026-08-28T17:56:00Z</time>
  <course>247.68</course>
  <speed>0.0316227766016838</speed>
  <fix>3d</fix>
</trkpt>
<trkpt lat="40.0713749" lon="-105.229789">
  <ele>1583.0</ele>
  <time>2026-08-28T17:56:00Z</time>
  <course>0.0</course>
  <speed>0.0</speed>
  <fix>3d</fix>
</trkpt>
<trkpt lat="40.0713749" lon="-105.229789">
  <ele>1583.0</ele>
  <time>2026-08-28T17:56:00Z</time>
  <course>247.67</course>
  <speed>0.0316227766016838</speed>
  <fix>3d</fix>
</trkpt>
<trkpt lat="40.0713749" lon="-105.229789">
  <ele>1583.0</ele>
  <time>2026-08-28T17:56:00Z</time>
  <course>0.0</course>
  <speed>0.0</speed>
  <fix>3d</fix>
</trkpt>
<trkpt lat="40.0713749" lon="-105.229789">
  <ele>1583.0</ele>
  <time>2026-08-28T17:56:00Z</time>
  <course>247.67</course>
  <speed>0.0316227766016838</speed>
  <fix>3d</fix>
</trkpt>
<trkpt lat="40.0713749" lon="-105.229789">
  <ele>1583.0</ele>
  <time>2026-08-28T17:56:00Z</time>
  <course>0.0</course>
  <speed>0.0</speed>
  <fix>3d</fix>
</trkpt>
<trkpt lat="40.0713749" lon="-105.229789">
  <ele>1583.0</ele>
  <time>2026-08-28T17:56:00Z</time>
  <course>247.67</course>
  <speed>0.0316227766016838</speed>
  <fix>3d</fix>
</trkpt>
<trkpt lat="40.0713749" lon="-105.229789">
  <ele>1583.0</ele>
  <time>2026-08-28T17:56:00Z</time>
  <course>0.0</course>
  <speed>0.0</speed>
  <fix>3d</fix>
</trkpt>
<trkpt lat="40.0713749" lon="-105.229789">
  <ele>1583.0</ele>
  <time>2026-08-28T17:56:00Z</time>
  <course>247.66</course>
  <speed>0.0316227766016838</speed>
  <fix>3d</fix>
</trkpt>
<trkpt lat="40.0713749" lon="-105.229789">
  <ele>1583.0</ele>
  <time>2026-08-28T17:56:00Z</time>
  <course>0.0</course>
  <speed>0.0</speed>
  <fix>3d</fix>
</trkpt>
<trkpt lat="40.0713749" lon="-105.229789">
  <ele>1583.0</ele>
  <time>2026-08-28T17:56:00Z</time>
  <course>247.66</course>
  <speed>0.0316227766016838</speed>
  <fix>3d</fix>
</trkpt>
<trkpt lat="40.0713749" lon="-105.229789">
  <ele>1583.0</ele>
  <time>2026-08-28T17:56:00Z</time>
  <course>0.0</course>
  <speed>0.0</speed>
  <fix>3d</fix>
</trkpt>
<trkpt lat="40.0713749" lon="-105.229789">
  <ele>1583.0</ele>
  <time>2026-08-28T17:56:00Z</time>
  <course>247.66</course>
  <speed>0.0316227766016838</speed>
  <fix>3d</fix>
</trkpt>
<trkpt lat="40.0713749" lon="-105.229789">
  <ele>1583.0</ele>
  <time>2026-08-28T17:56:00Z</time>
  <course>0.0</course>
  <speed>0.0</speed>
  <fix>3d</fix>
</trkpt>
<trkpt lat="40.0713749" lon="-105.229789">
  <ele>1583.0</ele>
  <time>2026-08-28T17:56:00Z</time>
  <course>247.65</course>
  <speed>0.0316227766016838</speed>
  <fix>3d</fix>
</trkpt>
<trkpt lat="40.0713749" lon="-105.229789">
  <ele>1583.0</ele>
  <time>2026-08-28T17:56:00Z</time>
  <course>0.0</course>
  <speed>0.0</speed>
  <fix>3d</fix>
</trkpt>
<trkpt lat="40.0713749" lon="-105.229789">
  <ele>1583.0</ele>
  <time>2026-08-28T17:56:00Z</time>
  <course>247.65</course>
  <speed>0.0316227766016838</speed>
  <fix>3d</fix>
</trkpt>
<trkpt lat="40.0713749" lon="-105.229789">
  <ele>1583.0</ele>
  <time>2026-08-28T17:56:00Z</time>
  <course>0.0</course>
  <speed>0.0</speed>
  <fix>3d</fix>
</trkpt>
<trkpt lat="40.0713749" lon="-105.229789">
  <ele>1583.0</ele>
  <time>2026-08-28T17:56:00Z</time>
  <course>247.65</course>
  <speed>0.0316227766016838</speed>
  <fix>3d</fix>
</trkpt>
<trkpt lat="40.0713749" lon="-105.229789">
  <ele>1583.0</ele>
  <time>2026-08-28T17:56:00Z</time>
  <course>0.0</course>
  <speed>0.0</speed>
  <fix>3d</fix>
</trkpt>
<trkpt lat="40.0713749" lon="-105.229789">
  <ele>1583.0</ele>
  <time>2026-08-28T17:56:00Z</time>
  <course>247.64</course>
  <speed>0.0316227766016838</speed>
  <fix>3d</fix>
</trkpt>
<trkpt lat="40.0713749" lon="-105.229789">
  <ele>1583.0</ele>
  <time>2026-08-28T17:56:00Z</time>
  <course>0.0</course>
  <speed>0.0</speed>
  <fix>3d</fix>
</trkpt>
<trkpt lat="40.0713749" lon="-105.229789">
  <ele>1583.0</ele>
  <time>2026-08-28T17:56:00Z</time>
  <course>247.64</course>
  <speed>0.0316227766016838</speed>
  <fix>3d</fix>
</trkpt>
<trkpt lat="40.0713749" lon="-105.229789">
  <ele>1583.0</ele>
  <time>2026-08-28T17:56:00Z</time>
  <course>0.0</course>
  <speed>0.0</speed>
  <fix>3d</fix>
</trkpt>
<trkpt lat="40.0713749" lon="-105.229789">
  <ele>1583.0</ele>
  <time>2026-08-28T17:56:00Z</time>
  <course>247.64</course>
  <speed>0.0316227766016838</speed>
  <fix>3d</fix>
</trkpt>
<trkpt lat="40.0713749" lon="-105.229789">
  <ele>1583.0</ele>
  <time>2026-08-28T17:56:00Z</time>
  <course>0.0</course>
  <speed>0.0</speed>
  <fix>3d</fix>
</trkpt>
<trkpt lat="40.0713749" lon="-105.229789">
  <ele>1583.0</ele>
  <time>2026-08-28T17:56:00Z</time>
  <course>247.64</course>
  <speed>0.0316227766016838</speed>
  <fix>3d</fix>
</trkpt>
<trkpt lat="40.0713749" lon="-105.229789">
  <ele>1583.0</ele>
  <time>2026-08-28T17:56:00Z</time>
  <course>0.0</course>
  <speed>0.0</speed>
  <fix>3d</fix>
</trkpt>
<trkpt lat="40.0713749" lon="-105.229789">
  <ele>1583.0</ele>
  <time>2026-08-28T17:56:00Z</time>
  <course>247.63</course>
  <speed>0.0316227766016838</speed>
  <fix>3d</fix>
</trkpt>
<trkpt lat="40.0713749" lon="-105.229789">
  <ele>1583.0</ele>
  <time>2026-08-28T17:56:00Z</time>
  <course>0.0</course>
  <speed>0.0</speed>
  <fix>3d</fix>
</trkpt>
<trkpt lat="40.0713749" lon="-105.229789">
  <ele>1583.0</ele>
  <time>2026-08-28T17:56:00Z</time>
  <course>247.63</course>
  <speed>0.0316227766016838</speed>
  <fix>3d</fix>
</trkpt>
<trkpt lat="40.0713749" lon="-105.229789">
  <ele>1583.0</ele>
  <time>2026-08-28T17:56:00Z</time>
  <course>0.0</course>
  <speed>0.0</speed>
  <fix>3d</fix>
</trkpt>
<trkpt lat="40.0713749" lon="-105.229789">
  <ele>1583.0</ele>
  <time>2026-08-28T17:56:00Z</time>
  <course>247.63</course>
  <speed>0.0316227766016838</speed>
  <fix>3d</fix>
</trkpt>
<trkpt lat="40.0713749" lon="-105.229789">
  <ele>1583.0</ele>
  <time>2026-08-28T17:56:00Z</time>
  <course>0.0</course>
  <speed>0.0</speed>
  <fix>3d</fix>
</trkpt>
<trkpt lat="40.0713749" lon="-105.229789">
  <ele>1583.0</ele>
  <time>2026-08-28T17:56:00Z</time>
  <course>247.62</course>
  <speed>0.0316227766016838</speed>
  <fix>3d</fix>
</trkpt>
<trkpt lat="40.0713749" lon="-105.229789">
  <ele>1583.0</ele>
  <time>2026-08-28T17:56:00Z</time>
  <course>0.0</course>
  <speed>0.0</speed>
  <fix>3d</fix>
</trkpt>
<trkpt lat="40.0713749" lon="-105.229789">
  <ele>1583.0</ele>
  <time>2026-08-28T17:56:00Z</time>
  <course>247.62</course>
  <speed>0.0316227766016838</speed>
  <fix>3d</fix>
</trkpt>
<trkpt lat="40.0713749" lon="-105.229789">
  <ele>1583.0</ele>
  <time>2026-08-28T17:56:00Z</time>
  <course>0.0</course>
  <speed>0.0</speed>
  <fix>3d</fix>
</trkpt>
<trkpt lat="40.0713749" lon="-105.229789">
  <ele>1583.0</ele>
  <time>2026-08-28T17:56:00Z</time>
  <course>247.62</course>
  <speed>0.0316227766016838</speed>
  <fix>3d</fix>
</trkpt>
<trkpt lat="40.0713749" lon="-105.229789">
  <ele>1583.0</ele>
  <time>2026-08-28T17:56:00Z</time>
  <course>0.0</course>
  <speed>0.0</speed>
  <fix>3d</fix>
</trkpt>
<trkpt lat="40.0713749" lon="-105.229789">
  <ele>1583.0</ele>
  <time>2026-08-28T17:56:00Z</time>
  <course>247.62</course>
  <speed>0.0316227766016838</speed>
  <fix>3d</fix>
</trkpt>
<trkpt lat="40.0713749" lon="-105.229789">
  <ele>1583.0</ele>
  <time>2026-08-28T17:56:00Z</time>
  <course>0.0</course>
  <speed>0.0</speed>
  <fix>3d</fix>
</trkpt>
<trkpt lat="40.0713749" lon="-105.229789">
  <ele>1583.0</ele>
  <time>2026-08-28T17:56:00Z</time>
  <course>247.61</course>
  <speed>0.0316227766016838</speed>
  <fix>3d</fix>
</trkpt>
<trkpt lat="40.0713749" lon="-105.229789">
  <ele>1583.0</ele>
  <time>2026-08-28T17:56:00Z</time>
  <course>0.0</course>
  <speed>0.0</speed>
  <fix>3d</fix>
</trkpt>
<trkpt lat="40.0713749" lon="-105.229789">
  <ele>1583.0</ele>
  <time>2026-08-28T17:56:00Z</time>
  <course>247.61</course>
  <speed>0.0316227766016838</speed>
  <fix>3d</fix>
</trkpt>
<trkpt lat="40.0713749" lon="-105.229789">
  <ele>1583.0</ele>
  <time>2026-08-28T17:56:00Z</time>
  <course>0.0</course>
  <speed>0.0</speed>
  <fix>3d</fix>
</trkpt>
<trkpt lat="40.0713749" lon="-105.229789">
  <ele>1583.0</ele>
  <time>2026-08-28T17:56:00Z</time>
  <course>247.61</course>
  <speed>0.0316227766016838</speed>
  <fix>3d</fix>
</trkpt>
<trkpt lat="40.0713749" lon="-105.229789">
  <ele>1583.0</ele>
  <time>2026-08-28T17:56:00Z</time>
  <course>0.0</course>
  <speed>0.0</speed>
  <fix>3d</fix>
</trkpt>
<trkpt lat="40.0713749" lon="-105.229789">
  <ele>1583.0</ele>
  <time>2026-08-28T17:56:00Z</time>
  <course>247.6</course>
  <speed>0.0316227766016838</speed>
  <fix>3d</fix>
</trkpt>
<trkpt lat="40.0713749" lon="-105.229789">
  <ele>1583.0</ele>
  <time>2026-08-28T17:56:00Z</time>
  <course>0.0</course>
  <speed>0.0</speed>
  <fix>3d</fix>
</trkpt>
<trkpt lat="40.0713749" lon="-105.229789">
  <ele>1583.0</ele>
  <time>2026-08-28T17:56:00Z</time>
  <course>247.6</course>
  <speed>0.0316227766016838</speed>
  <fix>3d</fix>
</trkpt>
<trkpt lat="40.0713749" lon="-105.229789">
  <ele>1583.0</ele>
  <time>2026-08-28T17:56:00Z</time>
  <course>0.0</course>
  <speed>0.0</speed>
  <fix>3d</fix>
</trkpt>
<trkpt lat="40.0713749" lon="-105.229789">
  <ele>1583.0</ele>
  <time>2026-08-28T17:56:00Z</time>
  <course>247.6</course>
  <speed>0.0316227766016838</speed>
  <fix>3d</fix>
</trkpt>
<trkpt lat="40.0713749" lon="-105.229789">
  <ele>1583.0</ele>
  <time>2026-08-28T17:56:00Z</time>
  <course>0.0</course>
  <speed>0.0</speed>
  <fix>3d</fix>
</trkpt>
<trkpt lat="40.0713749" lon="-105.229789">
  <ele>1583.0</ele>
  <time>2026-08-28T17:56:00Z</time>
  <course>247.6</course>
  <speed>0.0316227766016838</speed>
  <fix>3d</fix>
</trkpt>
<trkpt lat="40.0713749" lon="-105.229789">
  <ele>1583.0</ele>
  <time>2026-08-28T17:56:00Z</time>
  <course>0.0</course>
  <speed>0.0</speed>
  <fix>3d</fix>
</trkpt>
<trkpt lat="40.0713749" lon="-105.229789">
  <ele>1583.0</ele>
  <time>2026-08-28T17:56:00Z</time>
  <course>247.59</course>
  <speed>0.0316227766016838</speed>
  <fix>3d</fix>
</trkpt>
<trkpt lat="40.0713749" lon="-105.229789">
  <ele>1583.0</ele>
  <time>2026-08-28T17:56:00Z</time>
  <course>0.0</course>
  <speed>0.0</speed>
  <fix>3d</fix>
</trkpt>
<trkpt lat="40.0713749" lon="-105.229789">
  <ele>1582.92</ele>
  <time>2026-08-28T17:56:00Z</time>
  <course>247.59</course>
  <speed>0.0</speed>
  <fix>3d</fix>
</trkpt>
<trkpt lat="40.0713749" lon="-105.229789">
  <ele>1583.0</ele>
  <time>2026-08-28T17:56:00Z</time>
  <course>0.0</course>
  <speed>0.0</speed>
  <fix>3d</fix>
</trkpt>
<trkpt lat="40.0713749" lon="-105.229789">
  <ele>1582.92</ele>
  <time>2026-08-28T17:56:00Z</time>
  <course>247.59</course>
  <speed>0.0</speed>
  <fix>3d</fix>
</trkpt>
<trkpt lat="40.0713749" lon="-105.229789">
  <ele>1583.0</ele>
  <time>2026-08-28T17:56:00Z</time>
  <course>0.0</course>
  <speed>0.0</speed>
  <fix>3d</fix>
</trkpt>
<trkpt lat="40.0713749" lon="-105.229789">
  <ele>1582.91</ele>
  <time>2026-08-28T17:56:00Z</time>
  <course>247.58</course>
  <speed>0.0</speed>
  <fix>3d</fix>
</trkpt>
<trkpt lat="40.0713749" lon="-105.229789">
  <ele>1583.0</ele>
  <time>2026-08-28T17:56:00Z</time>
  <course>0.0</course>
  <speed>0.0</speed>
  <fix>3d</fix>
</trkpt>
<trkpt lat="40.0713749" lon="-105.229789">
  <ele>1582.91</ele>
  <time>2026-08-28T17:56:00Z</time>
  <course>247.58</course>
  <speed>0.0</speed>
  <fix>3d</fix>
</trkpt>
<trkpt lat="40.0713749" lon="-105.229789">
  <ele>1583.0</ele>
  <time>2026-08-28T17:56:00Z</time>
  <course>0.0</course>
  <speed>0.0</speed>
  <fix>3d</fix>
</trkpt>
<trkpt lat="40.0713749" lon="-105.229789">
  <ele>1582.9</ele>
  <time>2026-08-28T17:56:00Z</time>
  <course>247.58</course>
  <speed>0.0</speed>
  <fix>3d</fix>
</trkpt>
<trkpt lat="40.0713749" lon="-105.229789">
  <ele>1583.0</ele>
  <time>2026-08-28T17:56:00Z</time>
  <course>0.0</course>
  <speed>0.0</speed>
  <fix>3d</fix>
</trkpt>
<trkpt lat="40.0713749" lon="-105.229789">
  <ele>1582.9</ele>
  <time>2026-08-28T17:56:00Z</time>
  <course>247.58</course>
  <speed>0.0</speed>
  <fix>3d</fix>
</trkpt>
<trkpt lat="40.0713749" lon="-105.229789">
  <ele>1583.0</ele>
  <time>2026-08-28T17:56:00Z</time>
  <course>0.0</course>
  <speed>0.0</speed>
  <fix>3d</fix>
</trkpt>
<trkpt lat="40.0713749" lon="-105.229789">
  <ele>1582.9</ele>
  <time>2026-08-28T17:56:00Z</time>
  <course>247.57</course>
  <speed>0.0</speed>
  <fix>3d</fix>
</trkpt>
<trkpt lat="40.0713749" lon="-105.229789">
  <ele>1583.0</ele>
  <time>2026-08-28T17:56:00Z</time>
  <course>0.0</course>
  <speed>0.0</speed>
  <fix>3d</fix>
</trkpt>
<trkpt lat="40.0713749" lon="-105.229789">
  <ele>1582.9</ele>
  <time>2026-08-28T17:56:00Z</time>
  <course>247.57</course>
  <speed>0.0</speed>
  <fix>3d</fix>
</trkpt>
<trkpt lat="40.0713749" lon="-105.229789">
  <ele>1583.0</ele>
  <time>2026-08-28T17:56:00Z</time>
  <course>0.0</course>
  <speed>0.0</speed>
  <fix>3d</fix>
</trkpt>
<trkpt lat="40.0713749" lon="-105.229789">
  <ele>1582.9</ele>
  <time>2026-08-28T17:56:00Z</time>
  <course>247.57</course>
  <speed>0.0</speed>
  <fix>3d</fix>
</trkpt>
<trkpt lat="40.0713749" lon="-105.229789">
  <ele>1583.0</ele>
  <time>2026-08-28T17:56:00Z</time>
  <course>0.0</course>
  <speed>0.0</speed>
  <fix>3d</fix>
</trkpt>
<trkpt lat="40.0713749" lon="-105.229789">
  <ele>1582.9</ele>
  <time>2026-08-28T17:56:00Z</time>
  <course>247.57</course>
  <speed>0.01</speed>
  <fix>3d</fix>
</trkpt>
<trkpt lat="40.0713749" lon="-105.229789">
  <ele>1583.0</ele>
  <time>2026-08-28T17:56:00Z</time>
  <course>0.0</course>
  <speed>0.0</speed>
  <fix>3d</fix>
</trkpt>
<trkpt lat="40.0713749" lon="-105.229789">
  <ele>1582.9</ele>
  <time>2026-08-28T17:56:00Z</time>
  <course>247.56</course>
  <speed>0.01</speed>
  <fix>3d</fix>
</trkpt>
<trkpt lat="40.0713749" lon="-105.229789">
  <ele>1582.9</ele>
  <time>2026-08-28T17:56:00Z</time>
  <course>247.56</course>
  <speed>0.01</speed>
  <fix>3d</fix>
</trkpt>
<trkpt lat="40.0713749" lon="-105.229789">
  <ele>1583.0</ele>
  <time>2026-08-28T17:56:00Z</time>
  <course>0.0</course>
  <speed>0.0</speed>
  <fix>3d</fix>
</trkpt>
<trkpt lat="40.0713749" lon="-105.229789">
  <ele>1582.91</ele>
  <time>2026-08-28T17:56:00Z</time>
  <course>247.56</course>
  <speed>0.01</speed>
  <fix>3d</fix>
</trkpt>
<trkpt lat="40.0713749" lon="-105.229789">
  <ele>1583.0</ele>
  <time>2026-08-28T17:56:00Z</time>
  <course>0.0</course>
  <speed>0.0</speed>
  <fix>3d</fix>
</trkpt>
<trkpt lat="40.0713749" lon="-105.229789">
  <ele>1582.91</ele>
  <time>2026-08-28T17:56:00Z</time>
  <course>247.56</course>
  <speed>0.01</speed>
  <fix>3d</fix>
</trkpt>
<trkpt lat="40.0713749" lon="-105.229789">
  <ele>1583.0</ele>
  <time>2026-08-28T17:56:00Z</time>
  <course>0.0</course>
  <speed>0.0</speed>
  <fix>3d</fix>
</trkpt>
<trkpt lat="40.0713749" lon="-105.229789">
  <ele>1582.92</ele>
  <time>2026-08-28T17:56:00Z</time>
  <course>247.55</course>
  <speed>0.01</speed>
  <fix>3d</fix>
</trkpt>
<trkpt lat="40.0713749" lon="-105.229789">
  <ele>1583.0</ele>
  <time>2026-08-28T17:56:00Z</time>
  <course>0.0</course>
  <speed>0.0</speed>
  <fix>3d</fix>
</trkpt>
<trkpt lat="40.0713749" lon="-105.229789">
  <ele>1582.92</ele>
  <time>2026-08-28T17:56:00Z</time>
  <course>247.55</course>
  <speed>0.01</speed>
  <fix>3d</fix>
</trkpt>
<trkpt lat="40.0713749" lon="-105.229789">
  <ele>1583.0</ele>
  <time>2026-08-28T17:56:00Z</time>
  <course>0.0</course>
  <speed>0.0</speed>
  <fix>3d</fix>
</trkpt>
<trkpt lat="40.0713749" lon="-105.229789">
  <ele>1582.92</ele>
  <time>2026-08-28T17:56:00Z</time>
  <course>247.55</course>
  <speed>0.01</speed>
  <fix>3d</fix>
</trkpt>
<trkpt lat="40.0713749" lon="-105.229789">
  <ele>1583.0</ele>
  <time>2026-08-28T17:56:00Z</time>
  <course>0.0</course>
  <speed>0.0</speed>
  <fix>3d</fix>
</trkpt>
<trkpt lat="40.0713749" lon="-105.229789">
  <ele>1582.93</ele>
  <time>2026-08-28T17:56:00Z</time>
  <course>247.55</course>
  <speed>0.01</speed>
  <fix>3d</fix>
</trkpt>
<trkpt lat="40.0713749" lon="-105.229789">
  <ele>1583.0</ele>
  <time>2026-08-28T17:56:00Z</time>
  <course>0.0</course>
  <speed>0.0</speed>
  <fix>3d</fix>
</trkpt>
<trkpt lat="40.0713749" lon="-105.229789">
  <ele>1582.93</ele>
  <time>2026-08-28T17:56:00Z</time>
  <course>247.55</course>
  <speed>0.01</speed>
  <fix>3d</fix>
</trkpt>
<trkpt lat="40.0713749" lon="-105.229789">
  <ele>1583.0</ele>
  <time>2026-08-28T17:56:00Z</time>
  <course>0.0</course>
  <speed>0.0</speed>
  <fix>3d</fix>
</trkpt>
<trkpt lat="40.0713749" lon="-105.229789">
  <ele>1582.93</ele>
  <time>2026-08-28T17:56:00Z</time>
  <course>247.54</course>
  <speed>0.02</speed>
  <fix>3d</fix>
</trkpt>
<trkpt lat="40.0713749" lon="-105.229789">
  <ele>1583.0</ele>
  <time>2026-08-28T17:56:00Z</time>
  <course>0.0</course>
  <speed>0.0</speed>
  <fix>3d</fix>
</trkpt>
<trkpt lat="40.0713749" lon="-105.229789">
  <ele>1582.93</ele>
  <time>2026-08-28T17:56:00Z</time>
  <course>247.54</course>
  <speed>0.02</speed>
  <fix>3d</fix>
</trkpt>
<trkpt lat="40.0713749" lon="-105.229789">
  <ele>1583.0</ele>
  <time>2026-08-28T17:56:00Z</time>
  <course>0.0</course>
  <speed>0.0</speed>
  <fix>3d</fix>
</trkpt>
<trkpt lat="40.0713749" lon="-105.229789">
  <ele>1582.93</ele>
  <time>2026-08-28T17:56:00Z</time>
  <course>247.54</course>
  <speed>0.02</speed>
  <fix>3d</fix>
</trkpt>
<trkpt lat="40.0713749" lon="-105.229789">
  <ele>1583.0</ele>
  <time>2026-08-28T17:56:00Z</time>
  <course>0.0</course>
  <speed>0.0</speed>
  <fix>3d</fix>
</trkpt>
<trkpt lat="40.0713749" lon="-105.229789">
  <ele>1582.93</ele>
  <time>2026-08-28T17:56:00Z</time>
  <course>247.54</course>
  <speed>0.022360679774997897</speed>
  <fix>3d</fix>
</trkpt>
<trkpt lat="40.0713749" lon="-105.229789">
  <ele>1583.0</ele>
  <time>2026-08-28T17:56:00Z</time>
  <course>0.0</course>
  <speed>0.0</speed>
  <fix>3d</fix>
</trkpt>
<trkpt lat="40.0713749" lon="-105.229789">
  <ele>1582.94</ele>
  <time>2026-08-28T17:56:00Z</time>
  <course>247.53</course>
  <speed>0.022360679774997897</speed>
  <fix>3d</fix>
</trkpt>
<trkpt lat="40.0713749" lon="-105.229789">
  <ele>1583.0</ele>
  <time>2026-08-28T17:56:00Z</time>
  <course>0.0</course>
  <speed>0.0</speed>
  <fix>3d</fix>
</trkpt>
<trkpt lat="40.0713749" lon="-105.229789">
  <ele>1582.94</ele>
  <time>2026-08-28T17:56:00Z</time>
  <course>247.53</course>
  <speed>0.022360679774997897</speed>
  <fix>3d</fix>
</trkpt>
<trkpt lat="40.0713749" lon="-105.229789">
  <ele>1583.0</ele>
  <time>2026-08-28T17:56:00Z</time>
  <course>0.0</course>
  <speed>0.0</speed>
  <fix>3d</fix>
</trkpt>
<trkpt lat="40.071375" lon="-105.229789">
  <ele>1582.94</ele>
  <time>2026-08-28T17:56:00Z</time>
  <course>247.53</course>
  <speed>0.022360679774997897</speed>
  <fix>3d</fix>
</trkpt>
<trkpt lat="40.0713749" lon="-105.229789">
  <ele>1583.0</ele>
  <time>2026-08-28T17:56:00Z</time>
  <course>0.0</course>
  <speed>0.0</speed>
  <fix>3d</fix>
</trkpt>
<trkpt lat="39.655741" lon="-104.1383097">
  <ele>1566.58</ele>
  <time>2026-08-28T17:56:00Z</time>
  <course>0.0</course>
  <speed>0.0</speed>
  <fix>3d</fix>
</trkpt>
<trkpt lat="40.0713749" lon="-105.229789">
  <ele>1583.0</ele>
  <time>2026-08-28T17:56:00Z</time>
  <course>0.0</course>
  <speed>0.0</speed>
  <fix>3d</fix>
</trkpt>
<trkpt lat="40.0713749" lon="-105.229789">
  <ele>1583.0</ele>
  <time>2026-08-28T17:56:00Z</time>
  <course>238.36</course>
  <speed>0.0</speed>
  <fix>3d</fix>
</trkpt>
<trkpt lat="40.0713749" lon="-105.229789">
  <ele>1583.0</ele>
  <time>2026-08-28T17:56:00Z</time>
  <course>0.0</course>
  <speed>0.0</speed>
  <fix>3d</fix>
</trkpt>
<trkpt lat="40.0713749" lon="-105.229789">
  <ele>1583.0</ele>
  <time>2026-08-28T17:56:00Z</time>
  <course>238.44</course>
  <speed>0.0</speed>
  <fix>3d</fix>
</trkpt>
<trkpt lat="40.0713749" lon="-105.229789">
  <ele>1583.0</ele>
  <time>2026-08-28T17:56:00Z</time>
  <course>0.0</course>
  <speed>0.0</speed>
  <fix>3d</fix>
</trkpt>
<trkpt lat="40.0713749" lon="-105.229789">
  <ele>1583.0</ele>
  <time>2026-08-28T17:56:00Z</time>
  <course>238.64</course>
  <speed>0.0</speed>
  <fix>3d</fix>
</trkpt>
<trkpt lat="40.0713749" lon="-105.229789">
  <ele>1583.0</ele>
  <time>2026-08-28T17:56:00Z</time>
  <course>0.0</course>
  <speed>0.0</speed>
  <fix>3d</fix>
</trkpt>
<trkpt lat="40.0713749" lon="-105.229789">
  <ele>1583.0</ele>
  <time>2026-08-28T17:56:00Z</time>
  <course>238.93</course>
  <speed>0.0</speed>
  <fix>3d</fix>
</trkpt>
<trkpt lat="40.0713749" lon="-105.229789">
  <ele>1583.0</ele>
  <time>2026-08-28T17:56:00Z</time>
  <course>0.0</course>
  <speed>0.0</speed>
  <fix>3d</fix>
</trkpt>
<trkpt lat="40.0713749" lon="-105.229789">
  <ele>1583.0</ele>
  <time>2026-08-28T17:56:01Z</time>
  <course>239.26</course>
  <speed>0.0</speed>
  <fix>3d</fix>
</trkpt>
<trkpt lat="40.0713749" lon="-105.229789">
  <ele>1583.0</ele>
  <time>2026-08-28T17:56:01Z</time>
  <course>0.0</course>
  <speed>0.0</speed>
  <fix>3d</fix>
</trkpt>
<trkpt lat="40.0713749" lon="-105.229789">
  <ele>1583.0</ele>
  <time>2026-08-28T17:56:01Z</time>
  <course>239.61</course>
  <speed>0.0</speed>
  <fix>3d</fix>
</trkpt>
<trkpt lat="40.0713749" lon="-105.229789">
  <ele>1583.0</ele>
  <time>2026-08-28T17:56:01Z</time>
  <course>0.0</course>
  <speed>0.0</speed>
  <fix>3d</fix>
</trkpt>
<trkpt lat="40.0713749" lon="-105.229789">
  <ele>1583.0</ele>
  <time>2026-08-28T17:56:01Z</time>
  <course>239.96</course>
  <speed>0.0</speed>
  <fix>3d</fix>
</trkpt>
<trkpt lat="40.0713749" lon="-105.229789">
  <ele>1583.0</ele>
  <time>2026-08-28T17:56:01Z</time>
  <course>0.0</course>
  <speed>0.0</speed>
  <fix>3d</fix>
</trkpt>
<trkpt lat="40.0713749" lon="-105.229789">
  <ele>1583.0</ele>
  <time>2026-08-28T17:56:01Z</time>
  <course>240.29</course>
  <speed>0.0</speed>
  <fix>3d</fix>
</trkpt>
<trkpt lat="40.0713749" lon="-105.229789">
  <ele>1583.0</ele>
  <time>2026-08-28T17:56:01Z</time>
  <course>0.0</course>
  <speed>0.0</speed>
  <fix>3d</fix>
</trkpt>
<trkpt lat="40.0713749" lon="-105.229789">
  <ele>1583.0</ele>
  <time>2026-08-28T17:56:01Z</time>
  <course>240.61</course>
  <speed>0.0</speed>
  <fix>3d</fix>
</trkpt>
<trkpt lat="40.0713749" lon="-105.229789">
  <ele>1583.0</ele>
  <time>2026-08-28T17:56:01Z</time>
  <course>0.0</course>
  <speed>0.0</speed>
  <fix>3d</fix>
</trkpt>
<trkpt lat="40.0713749" lon="-105.229789">
  <ele>1583.0</ele>
  <time>2026-08-28T17:56:01Z</time>
  <course>240.92</course>
  <speed>0.0</speed>
  <fix>3d</fix>
</trkpt>
<trkpt lat="40.0713749" lon="-105.229789">
  <ele>1583.0</ele>
  <time>2026-08-28T17:56:01Z</time>
  <course>0.0</course>
  <speed>0.0</speed>
  <fix>3d</fix>
</trkpt>
<trkpt lat="40.0713749" lon="-105.229789">
  <ele>1583.0</ele>
  <time>2026-08-28T17:56:01Z</time>
  <course>241.21</course>
  <speed>0.0</speed>
  <fix>3d</fix>
</trkpt>
<trkpt lat="40.0713749" lon="-105.229789">
  <ele>1583.0</ele>
  <time>2026-08-28T17:56:01Z</time>
  <course>0.0</course>
  <speed>0.0</speed>
  <fix>3d</fix>
</trkpt>
<trkpt lat="40.0713749" lon="-105.229789">
  <ele>1583.0</ele>
  <time>2026-08-28T17:56:01Z</time>
  <course>241.49</course>
  <speed>0.0</speed>
  <fix>3d</fix>
</trkpt>
<trkpt lat="40.0713749" lon="-105.229789">
  <ele>1583.0</ele>
  <time>2026-08-28T17:56:01Z</time>
  <course>0.0</course>
  <speed>0.0</speed>
  <fix>3d</fix>
</trkpt>
<trkpt lat="40.0713749" lon="-105.229789">
  <ele>1583.0</ele>
  <time>2026-08-28T17:56:01Z</time>
  <course>241.77</course>
  <speed>0.0</speed>
  <fix>3d</fix>
</trkpt>
<trkpt lat="40.0713749" lon="-105.229789">
  <ele>1583.0</ele>
  <time>2026-08-28T17:56:01Z</time>
  <course>0.0</course>
  <speed>0.0</speed>
  <fix>3d</fix>
</trkpt>
<trkpt lat="40.0713749" lon="-105.229789">
  <ele>1583.0</ele>
  <time>2026-08-28T17:56:01Z</time>
  <course>242.03</course>
  <speed>0.0</speed>
  <fix>3d</fix>
</trkpt>
<trkpt lat="40.0713749" lon="-105.229789">
  <ele>1583.0</ele>
  <time>2026-08-28T17:56:01Z</time>
  <course>0.0</course>
  <speed>0.0</speed>
  <fix>3d</fix>
</trkpt>
<trkpt lat="40.0713749" lon="-105.229789">
  <ele>1583.0</ele>
  <time>2026-08-28T17:56:01Z</time>
  <course>242.29</course>
  <speed>0.0</speed>
  <fix>3d</fix>
</trkpt>
<trkpt lat="40.0713749" lon="-105.229789">
  <ele>1583.0</ele>
  <time>2026-08-28T17:56:01Z</time>
  <course>0.0</course>
  <speed>0.0</speed>
  <fix>3d</fix>
</trkpt>
<trkpt lat="40.0713749" lon="-105.229789">
  <ele>1583.0</ele>
  <time>2026-08-28T17:56:01Z</time>
  <course>242.54</course>
  <speed>0.0</speed>
  <fix>3d</fix>
</trkpt>
<trkpt lat="40.0713749" lon="-105.229789">
  <ele>1583.0</ele>
  <time>2026-08-28T17:56:01Z</time>
  <course>0.0</course>
  <speed>0.0</speed>
  <fix>3d</fix>
</trkpt>
<trkpt lat="40.0713749" lon="-105.229789">
  <ele>1583.0</ele>
  <time>2026-08-28T17:56:01Z</time>
  <course>242.79</course>
  <speed>0.0</speed>
  <fix>3d</fix>
</trkpt>
<trkpt lat="40.0713749" lon="-105.229789">
  <ele>1583.0</ele>
  <time>2026-08-28T17:56:01Z</time>
  <course>0.0</course>
  <speed>0.0</speed>
  <fix>3d</fix>
</trkpt>
<trkpt lat="40.0713749" lon="-105.229789">
  <ele>1583.0</ele>
  <time>2026-08-28T17:56:01Z</time>
  <course>243.02</course>
  <speed>0.0</speed>
  <fix>3d</fix>
</trkpt>
<trkpt lat="40.0713749" lon="-105.229789">
  <ele>1583.0</ele>
  <time>2026-08-28T17:56:01Z</time>
  <course>0.0</course>
  <speed>0.0</speed>
  <fix>3d</fix>
</trkpt>
<trkpt lat="40.0713749" lon="-105.229789">
  <ele>1583.0</ele>
  <time>2026-08-28T17:56:01Z</time>
  <course>243.25</course>
  <speed>0.0</speed>
  <fix>3d</fix>
</trkpt>
<trkpt lat="40.0713749" lon="-105.229789">
  <ele>1583.0</ele>
  <time>2026-08-28T17:56:01Z</time>
  <course>0.0</course>
  <speed>0.0</speed>
  <fix>3d</fix>
</trkpt>
<trkpt lat="40.0713749" lon="-105.229789">
  <ele>1583.0</ele>
  <time>2026-08-28T17:56:01Z</time>
  <course>243.47</course>
  <speed>0.0</speed>
  <fix>3d</fix>
</trkpt>
<trkpt lat="40.0713749" lon="-105.229789">
  <ele>1583.0</ele>
  <time>2026-08-28T17:56:01Z</time>
  <course>0.0</course>
  <speed>0.0</speed>
  <fix>3d</fix>
</trkpt>
<trkpt lat="40.0713749" lon="-105.229789">
  <ele>1583.0</ele>
  <time>2026-08-28T17:56:01Z</time>
  <course>243.68</course>
  <speed>0.0</speed>
  <fix>3d</fix>
</trkpt>
<trkpt lat="40.0713749" lon="-105.229789">
  <ele>1583.0</ele>
  <time>2026-08-28T17:56:01Z</time>
  <course>0.0</course>
  <speed>0.0</speed>
  <fix>3d</fix>
</trkpt>
<trkpt lat="40.0713749" lon="-105.229789">
  <ele>1583.0</ele>
  <time>2026-08-28T17:56:01Z</time>
  <course>243.89</course>
  <speed>0.0</speed>
  <fix>3d</fix>
</trkpt>
<trkpt lat="40.0713749" lon="-105.229789">
  <ele>1583.0</ele>
  <time>2026-08-28T17:56:01Z</time>
  <course>0.0</course>
  <speed>0.0</speed>
  <fix>3d</fix>
</trkpt>
<trkpt lat="40.0713749" lon="-105.229789">
  <ele>1583.0</ele>
  <time>2026-08-28T17:56:01Z</time>
  <course>244.09</course>
  <speed>0.0</speed>
  <fix>3d</fix>
</trkpt>
<trkpt lat="40.0713749" lon="-105.229789">
  <ele>1583.0</ele>
  <time>2026-08-28T17:56:01Z</time>
  <course>0.0</course>
  <speed>0.0</speed>
  <fix>3d</fix>
</trkpt>
<trkpt lat="40.0713749" lon="-105.229789">
  <ele>1583.0</ele>
  <time>2026-08-28T17:56:01Z</time>
  <course>244.28</course>
  <speed>0.0</speed>
  <fix>3d</fix>
</trkpt>
<trkpt lat="40.0713749" lon="-105.229789">
  <ele>1583.0</ele>
  <time>2026-08-28T17:56:01Z</time>
  <course>0.0</course>
  <speed>0.0</speed>
  <fix>3d</fix>
</trkpt>
<trkpt lat="40.0713749" lon="-105.229789">
  <ele>1583.0</ele>
  <time>2026-08-28T17:56:01Z</time>
  <course>244.46</course>
  <speed>0.0</speed>
  <fix>3d</fix>
</trkpt>
<trkpt lat="40.0713749" lon="-105.229789">
  <ele>1583.0</ele>
  <time>2026-08-28T17:56:01Z</time>
  <course>0.0</course>
  <speed>0.0</speed>
  <fix>3d</fix>
</trkpt>
<trkpt lat="40.0713749" lon="-105.229789">
  <ele>1583.0</ele>
  <time>2026-08-28T17:56:01Z</time>
  <course>244.64</course>
  <speed>0.0</speed>
  <fix>3d</fix>
</trkpt>
<trkpt lat="40.0713749" lon="-105.229789">
  <ele>1583.0</ele>
  <time>2026-08-28T17:56:01Z</time>
  <course>0.0</course>
  <speed>0.0</speed>
  <fix>3d</fix>
</trkpt>
<trkpt lat="40.0713749" lon="-105.229789">
  <ele>1583.0</ele>
  <time>2026-08-28T17:56:01Z</time>
  <course>244.81</course>
  <speed>0.0</speed>
  <fix>3d</fix>
</trkpt>
<trkpt lat="40.0713749" lon="-105.229789">
  <ele>1583.0</ele>
  <time>2026-08-28T17:56:01Z</time>
  <course>0.0</course>
  <speed>0.0</speed>
  <fix>3d</fix>
</trkpt>
<trkpt lat="40.0713749" lon="-105.229789">
  <ele>1583.0</ele>
  <time>2026-08-28T17:56:01Z</time>
  <course>244.97</course>
  <speed>0.0</speed>
  <fix>3d</fix>
</trkpt>
<trkpt lat="40.0713749" lon="-105.229789">
  <ele>1583.0</ele>
  <time>2026-08-28T17:56:01Z</time>
  <course>0.0</course>
  <speed>0.0</speed>
  <fix>3d</fix>
</trkpt>
<trkpt lat="40.0713749" lon="-105.229789">
  <ele>1583.0</ele>
  <time>2026-08-28T17:56:01Z</time>
  <course>245.13</course>
  <speed>0.0</speed>
  <fix>3d</fix>
</trkpt>
<trkpt lat="40.0713749" lon="-105.229789">
  <ele>1583.0</ele>
  <time>2026-08-28T17:56:01Z</time>
  <course>0.0</course>
  <speed>0.0</speed>
  <fix>3d</fix>
</trkpt>
<trkpt lat="40.0713749" lon="-105.229789">
  <ele>1583.0</ele>
  <time>2026-08-28T17:56:01Z</time>
  <course>245.29</course>
  <speed>0.0</speed>
  <fix>3d</fix>
</trkpt>
<trkpt lat="40.0713749" lon="-105.229789">
  <ele>1583.0</ele>
  <time>2026-08-28T17:56:01Z</time>
  <course>0.0</course>
  <speed>0.0</speed>
  <fix>3d</fix>
</trkpt>
<trkpt lat="40.0713749" lon="-105.229789">
  <ele>1583.0</ele>
  <time>2026-08-28T17:56:01Z</time>
  <course>245.43</course>
  <speed>0.0</speed>
  <fix>3d</fix>
</trkpt>
<trkpt lat="40.0713749" lon="-105.229789">
  <ele>1583.0</ele>
  <time>2026-08-28T17:56:01Z</time>
  <course>0.0</course>
  <speed>0.0</speed>
  <fix>3d</fix>
</trkpt>
<trkpt lat="40.0713749" lon="-105.229789">
  <ele>1583.0</ele>
  <time>2026-08-28T17:56:01Z</time>
  <course>245.57</course>
  <speed>0.0</speed>
  <fix>3d</fix>
</trkpt>
<trkpt lat="40.0713749" lon="-105.229789">
  <ele>1583.0</ele>
  <time>2026-08-28T17:56:01Z</time>
  <course>0.0</course>
  <speed>0.0</speed>
  <fix>3d</fix>
</trkpt>
<trkpt lat="40.0713749" lon="-105.229789">
  <ele>1583.0</ele>
  <time>2026-08-28T17:56:01Z</time>
  <course>245.71</course>
  <speed>0.0</speed>
  <fix>3d</fix>
</trkpt>
<trkpt lat="40.0713749" lon="-105.229789">
  <ele>1583.0</ele>
  <time>2026-08-28T17:56:01Z</time>
  <course>0.0</course>
  <speed>0.0</speed>
  <fix>3d</fix>
</trkpt>
<trkpt lat="40.0713749" lon="-105.229789">
  <ele>1583.0</ele>
  <time>2026-08-28T17:56:01Z</time>
  <course>245.84</course>
  <speed>0.0</speed>
  <fix>3d</fix>
</trkpt>
<trkpt lat="40.0713749" lon="-105.229789">
  <ele>1583.0</ele>
  <time>2026-08-28T17:56:01Z</time>
  <course>0.0</course>
  <speed>0.0</speed>
  <fix>3d</fix>
</trkpt>
<trkpt lat="40.0713749" lon="-105.229789">
  <ele>1583.0</ele>
  <time>2026-08-28T17:56:01Z</time>
  <course>245.96</course>
  <speed>0.0</speed>
  <fix>3d</fix>
</trkpt>
<trkpt lat="40.0713749" lon="-105.229789">
  <ele>1583.0</ele>
  <time>2026-08-28T17:56:01Z</time>
  <course>0.0</course>
  <speed>0.0</speed>
  <fix>3d</fix>
</trkpt>
<trkpt lat="40.0713749" lon="-105.229789">
  <ele>1583.0</ele>
  <time>2026-08-28T17:56:01Z</time>
  <course>246.08</course>
  <speed>0.0</speed>
  <fix>3d</fix>
</trkpt>
<trkpt lat="40.0713749" lon="-105.229789">
  <ele>1583.0</ele>
  <time>2026-08-28T17:56:01Z</time>
  <course>0.0</course>
  <speed>0.0</speed>
  <fix>3d</fix>
</trkpt>
<trkpt lat="40.0713749" lon="-105.229789">
  <ele>1583.0</ele>
  <time>2026-08-28T17:56:01Z</time>
  <course>246.19</course>
  <speed>0.0</speed>
  <fix>3d</fix>
</trkpt>
<trkpt lat="40.0713749" lon="-105.229789">
  <ele>1583.0</ele>
  <time>2026-08-28T17:56:01Z</time>
  <course>0.0</course>
  <speed>0.0</speed>
  <fix>3d</fix>
</trkpt>
<trkpt lat="40.0713749" lon="-105.229789">
  <ele>1583.0</ele>
  <time>2026-08-28T17:56:01Z</time>
  <course>246.3</course>
  <speed>0.0</speed>
  <fix>3d</fix>
</trkpt>
<trkpt lat="40.0713749" lon="-105.229789">
  <ele>1583.0</ele>
  <time>2026-08-28T17:56:01Z</time>
  <course>0.0</course>
  <speed>0.0</speed>
  <fix>3d</fix>
</trkpt>
<trkpt lat="40.0713749" lon="-105.229789">
  <ele>1583.0</ele>
  <time>2026-08-28T17:56:01Z</time>
  <course>246.41</course>
  <speed>0.0</speed>
  <fix>3d</fix>
</trkpt>
<trkpt lat="40.0713749" lon="-105.229789">
  <ele>1583.0</ele>
  <time>2026-08-28T17:56:01Z</time>
  <course>0.0</course>
  <speed>0.0</speed>
  <fix>3d</fix>
</trkpt>
<trkpt lat="40.0713749" lon="-105.229789">
  <ele>1583.0</ele>
  <time>2026-08-28T17:56:01Z</time>
  <course>246.51</course>
  <speed>0.0</speed>
  <fix>3d</fix>
</trkpt>
<trkpt lat="40.0713749" lon="-105.229789">
  <ele>1583.0</ele>
  <time>2026-08-28T17:56:01Z</time>
  <course>0.0</course>
  <speed>0.0</speed>
  <fix>3d</fix>
</trkpt>
<trkpt lat="40.0713749" lon="-105.229789">
  <ele>1583.0</ele>
  <time>2026-08-28T17:56:01Z</time>
  <course>246.6</course>
  <speed>0.0</speed>
  <fix>3d</fix>
</trkpt>
<trkpt lat="40.0713749" lon="-105.229789">
  <ele>1583.0</ele>
  <time>2026-08-28T17:56:01Z</time>
  <course>0.0</course>
  <speed>0.0</speed>
  <fix>3d</fix>
</trkpt>
<trkpt lat="40.0713749" lon="-105.229789">
  <ele>1583.0</ele>
  <time>2026-08-28T17:56:01Z</time>
  <course>246.7</course>
  <speed>0.0</speed>
  <fix>3d</fix>
</trkpt>
<trkpt lat="40.0713749" lon="-105.229789">
  <ele>1583.0</ele>
  <time>2026-08-28T17:56:01Z</time>
  <course>0.0</course>
  <speed>0.0</speed>
  <fix>3d</fix>
</trkpt>
<trkpt lat="40.0713749" lon="-105.229789">
  <ele>1583.0</ele>
  <time>2026-08-28T17:56:01Z</time>
  <course>246.78</course>
  <speed>0.0</speed>
  <fix>3d</fix>
</trkpt>
<trkpt lat="40.0713749" lon="-105.229789">
  <ele>1583.0</ele>
  <time>2026-08-28T17:56:01Z</time>
  <course>0.0</course>
  <speed>0.0</speed>
  <fix>3d</fix>
</trkpt>
<trkpt lat="40.0713749" lon="-105.229789">
  <ele>1583.0</ele>
  <time>2026-08-28T17:56:01Z</time>
  <course>246.87</course>
  <speed>0.0</speed>
  <fix>3d</fix>
</trkpt>
<trkpt lat="40.0713749" lon="-105.229789">
  <ele>1583.0</ele>
  <time>2026-08-28T17:56:01Z</time>
  <course>0.0</course>
  <speed>0.0</speed>
  <fix>3d</fix>
</trkpt>
<trkpt lat="40.0713749" lon="-105.229789">
  <ele>1583.0</ele>
  <time>2026-08-28T17:56:01Z</time>
  <course>246.95</course>
  <speed>0.0</speed>
  <fix>3d</fix>
</trkpt>
<trkpt lat="40.0713749" lon="-105.229789">
  <ele>1583.0</ele>
  <time>2026-08-28T17:56:01Z</time>
  <course>0.0</course>
  <speed>0.0</speed>
  <fix>3d</fix>
</trkpt>
<trkpt lat="40.0713749" lon="-105.229789">
  <ele>1583.0</ele>
  <time>2026-08-28T17:56:01Z</time>
  <course>247.02</course>
  <speed>0.0</speed>
  <fix>3d</fix>
</trkpt>
<trkpt lat="40.0713749" lon="-105.229789">
  <ele>1583.0</ele>
  <time>2026-08-28T17:56:01Z</time>
  <course>0.0</course>
  <speed>0.0</speed>
  <fix>3d</fix>
</trkpt>
<trkpt lat="40.0713749" lon="-105.229789">
  <ele>1583.0</ele>
  <time>2026-08-28T17:56:01Z</time>
  <course>247.1</course>
  <speed>0.0</speed>
  <fix>3d</fix>
</trkpt>
<trkpt lat="40.0713749" lon="-105.229789">
  <ele>1583.0</ele>
  <time>2026-08-28T17:56:01Z</time>
  <course>0.0</course>
  <speed>0.0</speed>
  <fix>3d</fix>
</trkpt>
<trkpt lat="40.0713749" lon="-105.229789">
  <ele>1583.0</ele>
  <time>2026-08-28T17:56:01Z</time>
  <course>247.17</course>
  <speed>0.0</speed>
  <fix>3d</fix>
</trkpt>
<trkpt lat="40.0713749" lon="-105.229789">
  <ele>1583.0</ele>
  <time>2026-08-28T17:56:01Z</time>
  <course>0.0</course>
  <speed>0.0</speed>
  <fix>3d</fix>
</trkpt>
<trkpt lat="40.0713749" lon="-105.229789">
  <ele>1583.0</ele>
  <time>2026-08-28T17:56:01Z</time>
  <course>247.24</course>
  <speed>0.0</speed>
  <fix>3d</fix>
</trkpt>
<trkpt lat="40.0713749" lon="-105.229789">
  <ele>1583.0</ele>
  <time>2026-08-28T17:56:01Z</time>
  <course>0.0</course>
  <speed>0.0</speed>
  <fix>3d</fix>
</trkpt>
<trkpt lat="40.0713749" lon="-105.229789">
  <ele>1583.0</ele>
  <time>2026-08-28T17:56:01Z</time>
  <course>247.3</course>
  <speed>0.0</speed>
  <fix>3d</fix>
</trkpt>
<trkpt lat="40.0713749" lon="-105.229789">
  <ele>1583.0</ele>
  <time>2026-08-28T17:56:01Z</time>
  <course>0.0</course>
  <speed>0.0</speed>
  <fix>3d</fix>
</trkpt>
<trkpt lat="40.0713749" lon="-105.229789">
  <ele>1583.0</ele>
  <time>2026-08-28T17:56:01Z</time>
  <course>247.36</course>
  <speed>0.0</speed>
  <fix>3d</fix>
</trkpt>
<trkpt lat="40.0713749" lon="-105.229789">
  <ele>1583.0</ele>
  <time>2026-08-28T17:56:01Z</time>
  <course>0.0</course>
  <speed>0.0</speed>
  <fix>3d</fix>
</trkpt>
<trkpt lat="40.0713749" lon="-105.229789">
  <ele>1583.0</ele>
  <time>2026-08-28T17:56:01Z</time>
  <course>247.42</course>
  <speed>0.0</speed>
  <fix>3d</fix>
</trkpt>
<trkpt lat="40.0713749" lon="-105.229789">
  <ele>1583.0</ele>
  <time>2026-08-28T17:56:01Z</time>
  <course>0.0</course>
  <speed>0.0</speed>
  <fix>3d</fix>
</trkpt>
<trkpt lat="40.0713749" lon="-105.229789">
  <ele>1583.0</ele>
  <time>2026-08-28T17:56:01Z</time>
  <course>247.47</course>
  <speed>0.0</speed>
  <fix>3d</fix>
</trkpt>
<trkpt lat="40.0713749" lon="-105.229789">
  <ele>1583.0</ele>
  <time>2026-08-28T17:56:01Z</time>
  <course>0.0</course>
  <speed>0.0</speed>
  <fix>3d</fix>
</trkpt>
<trkpt lat="40.0713749" lon="-105.229789">
  <ele>1583.0</ele>
  <time>2026-08-28T17:56:01Z</time>
  <course>247.53</course>
  <speed>0.0</speed>
  <fix>3d</fix>
</trkpt>
<trkpt lat="40.0713749" lon="-105.229789">
  <ele>1583.0</ele>
  <time>2026-08-28T17:56:01Z</time>
  <course>0.0</course>
  <speed>0.0</speed>
  <fix>3d</fix>
</trkpt>
<trkpt lat="40.0713749" lon="-105.229789">
  <ele>1583.0</ele>
  <time>2026-08-28T17:56:01Z</time>
  <course>247.58</course>
  <speed>0.0</speed>
  <fix>3d</fix>
</trkpt>
<trkpt lat="40.0713749" lon="-105.229789">
  <ele>1583.0</ele>
  <time>2026-08-28T17:56:01Z</time>
  <course>0.0</course>
  <speed>0.0</speed>
  <fix>3d</fix>
</trkpt>
<trkpt lat="40.0713749" lon="-105.229789">
  <ele>1583.0</ele>
  <time>2026-08-28T17:56:01Z</time>
  <course>247.63</course>
  <speed>0.0</speed>
  <fix>3d</fix>
</trkpt>
<trkpt lat="40.0713749" lon="-105.229789">
  <ele>1583.0</ele>
  <time>2026-08-28T17:56:01Z</time>
  <course>0.0</course>
  <speed>0.0</speed>
  <fix>3d</fix>
</trkpt>
<trkpt lat="40.0713749" lon="-105.229789">
  <ele>1583.0</ele>
  <time>2026-08-28T17:56:01Z</time>
  <course>247.67</course>
  <speed>0.0</speed>
  <fix>3d</fix>
</trkpt>
<trkpt lat="40.0713749" lon="-105.229789">
  <ele>1583.0</ele>
  <time>2026-08-28T17:56:01Z</time>
  <course>0.0</course>
  <speed>0.0</speed>
  <fix>3d</fix>
</trkpt>
<trkpt lat="40.0713749" lon="-105.229789">
  <ele>1583.0</ele>
  <time>2026-08-28T17:56:01Z</time>
  <course>247.72</course>
  <speed>0.0</speed>
  <fix>3d</fix>
</trkpt>
<trkpt lat="40.0713749" lon="-105.229789">
  <ele>1583.0</ele>
  <time>2026-08-28T17:56:01Z</time>
  <course>0.0</course>
  <speed>0.0</speed>
  <fix>3d</fix>
</trkpt>
<trkpt lat="40.0713749" lon="-105.229789">
  <ele>1583.0</ele>
  <time>2026-08-28T17:56:01Z</time>
  <course>247.76</course>
  <speed>0.0</speed>
  <fix>3d</fix>
</trkpt>
<trkpt lat="40.0713749" lon="-105.229789">
  <ele>1583.0</ele>
  <time>2026-08-28T17:56:01Z</time>
  <course>0.0</course>
  <speed>0.0</speed>
  <fix>3d</fix>
</trkpt>
<trkpt lat="40.0713749" lon="-105.229789">
  <ele>1583.0</ele>
  <time>2026-08-28T17:56:01Z</time>
  <course>247.8</course>
  <speed>0.0</speed>
  <fix>3d</fix>
</trkpt>
<trkpt lat="40.0713749" lon="-105.229789">
  <ele>1583.0</ele>
  <time>2026-08-28T17:56:01Z</time>
  <course>0.0</course>
  <speed>0.0</speed>
  <fix>3d</fix>
</trkpt>
<trkpt lat="40.0713749" lon="-105.229789">
  <ele>1583.0</ele>
  <time>2026-08-28T17:56:01Z</time>
  <course>247.83</course>
  <speed>0.0</speed>
  <fix>3d</fix>
</trkpt>
<trkpt lat="40.0713749" lon="-105.229789">
  <ele>1583.0</ele>
  <time>2026-08-28T17:56:01Z</time>
  <course>0.0</course>
  <speed>0.0</speed>
  <fix>3d</fix>
</trkpt>
<trkpt lat="40.0713749" lon="-105.229789">
  <ele>1583.0</ele>
  <time>2026-08-28T17:56:01Z</time>
  <course>247.87</course>
  <speed>0.0</speed>
  <fix>3d</fix>
</trkpt>
<trkpt lat="40.0713749" lon="-105.229789">
  <ele>1583.0</ele>
  <time>2026-08-28T17:56:01Z</time>
  <course>0.0</course>
  <speed>0.0</speed>
  <fix>3d</fix>
</trkpt>
<trkpt lat="40.0713749" lon="-105.229789">
  <ele>1583.0</ele>
  <time>2026-08-28T17:56:01Z</time>
  <course>247.9</course>
  <speed>0.0</speed>
  <fix>3d</fix>
</trkpt>
<trkpt lat="40.0713749" lon="-105.229789">
  <ele>1583.0</ele>
  <time>2026-08-28T17:56:01Z</time>
  <course>0.0</course>
  <speed>0.0</speed>
  <fix>3d</fix>
</trkpt>
<trkpt lat="40.0713749" lon="-105.229789">
  <ele>1583.0</ele>
  <time>2026-08-28T17:56:01Z</time>
  <course>247.94</course>
  <speed>0.0</speed>
  <fix>3d</fix>
</trkpt>
<trkpt lat="40.0713749" lon="-105.229789">
  <ele>1583.0</ele>
  <time>2026-08-28T17:56:01Z</time>
  <course>0.0</course>
  <speed>0.0</speed>
  <fix>3d</fix>
</trkpt>
<trkpt lat="40.0713749" lon="-105.229789">
  <ele>1583.0</ele>
  <time>2026-08-28T17:56:01Z</time>
  <course>247.97</course>
  <speed>0.0</speed>
  <fix>3d</fix>
</trkpt>
<trkpt lat="40.0713749" lon="-105.229789">
  <ele>1583.0</ele>
  <time>2026-08-28T17:56:01Z</time>
  <course>0.0</course>
  <speed>0.0</speed>
  <fix>3d</fix>
</trkpt>
<trkpt lat="40.0713749" lon="-105.229789">
  <ele>1583.0</ele>
  <time>2026-08-28T17:56:01Z</time>
  <course>248.0</course>
  <speed>0.0</speed>
  <fix>3d</fix>
</trkpt>
<trkpt lat="40.0713749" lon="-105.229789">
  <ele>1583.0</ele>
  <time>2026-08-28T17:56:01Z</time>
  <course>0.0</course>
  <speed>0.0</speed>
  <fix>3d</fix>
</trkpt>
<trkpt lat="40.0713749" lon="-105.229789">
  <ele>1583.0</ele>
  <time>2026-08-28T17:56:01Z</time>
  <course>248.02</course>
  <speed>0.0</speed>
  <fix>3d</fix>
</trkpt>
<trkpt lat="40.0713749" lon="-105.229789">
  <ele>1583.0</ele>
  <time>2026-08-28T17:56:01Z</time>
  <course>0.0</course>
  <speed>0.0</speed>
  <fix>3d</fix>
</trkpt>
<trkpt lat="40.0713749" lon="-105.229789">
  <ele>1583.0</ele>
  <time>2026-08-28T17:56:01Z</time>
  <course>248.05</course>
  <speed>0.0</speed>
  <fix>3d</fix>
</trkpt>
<trkpt lat="40.0713749" lon="-105.229789">
  <ele>1583.0</ele>
  <time>2026-08-28T17:56:01Z</time>
  <course>0.0</course>
  <speed>0.0</speed>
  <fix>3d</fix>
</trkpt>
<trkpt lat="40.0713749" lon="-105.229789">
  <ele>1583.0</ele>
  <time>2026-08-28T17:56:01Z</time>
  <course>248.08</course>
  <speed>0.0</speed>
  <fix>3d</fix>
</trkpt>
<trkpt lat="40.0713749" lon="-105.229789">
  <ele>1583.0</ele>
  <time>2026-08-28T17:56:01Z</time>
  <course>0.0</course>
  <speed>0.0</speed>
  <fix>3d</fix>
</trkpt>
<trkpt lat="40.0713749" lon="-105.229789">
  <ele>1583.0</ele>
  <time>2026-08-28T17:56:01Z</time>
  <course>248.1</course>
  <speed>0.0</speed>
  <fix>3d</fix>
</trkpt>
<trkpt lat="40.0713749" lon="-105.229789">
  <ele>1583.0</ele>
  <time>2026-08-28T17:56:01Z</time>
  <course>0.0</course>
  <speed>0.0</speed>
  <fix>3d</fix>
</trkpt>
<trkpt lat="40.0713749" lon="-105.229789">
  <ele>1583.0</ele>
  <time>2026-08-28T17:56:01Z</time>
  <course>248.12</course>
  <speed>0.0</speed>
  <fix>3d</fix>
</trkpt>
<trkpt lat="40.0713749" lon="-105.229789">
  <ele>1583.0</ele>
  <time>2026-08-28T17:56:01Z</time>
  <course>0.0</course>
  <speed>0.0</speed>
  <fix>3d</fix>
</trkpt>
<trkpt lat="40.0713749" lon="-105.229789">
  <ele>1583.0</ele>
  <time>2026-08-28T17:56:01Z</time>
  <course>248.14</course>
  <speed>0.0</speed>
  <fix>3d</fix>
</trkpt>
<trkpt lat="40.0713749" lon="-105.229789">
  <ele>1583.0</ele>
  <time>2026-08-28T17:56:01Z</time>
  <course>0.0</course>
  <speed>0.0</speed>
  <fix>3d</fix>
</trkpt>
<trkpt lat="40.0713749" lon="-105.229789">
  <ele>1583.0</ele>
  <time>2026-08-28T17:56:01Z</time>
  <course>248.16</course>
  <speed>0.0</speed>
  <fix>3d</fix>
</trkpt>
<trkpt lat="40.0713749" lon="-105.229789">
  <ele>1583.0</ele>
  <time>2026-08-28T17:56:01Z</time>
  <course>0.0</course>
  <speed>0.0</speed>
  <fix>3d</fix>
</trkpt>
<trkpt lat="40.0713749" lon="-105.229789">
  <ele>1583.0</ele>
  <time>2026-08-28T17:56:01Z</time>
  <course>248.18</course>
  <speed>0.0</speed>
  <fix>3d</fix>
</trkpt>
<trkpt lat="40.0713749" lon="-105.229789">
  <ele>1583.0</ele>
  <time>2026-08-28T17:56:01Z</time>
  <course>0.0</course>
  <speed>0.0</speed>
  <fix>3d</fix>
</trkpt>
<trkpt lat="40.0713749" lon="-105.229789">
  <ele>1583.0</ele>
  <time>2026-08-28T17:56:01Z</time>
  <course>248.2</course>
  <speed>0.0</speed>
  <fix>3d</fix>
</trkpt>
<trkpt lat="40.0713749" lon="-105.229789">
  <ele>1583.0</ele>
  <time>2026-08-28T17:56:01Z</time>
  <course>0.0</course>
  <speed>0.0</speed>
  <fix>3d</fix>
</trkpt>
<trkpt lat="40.0713749" lon="-105.229789">
  <ele>1583.0</ele>
  <time>2026-08-28T17:56:01Z</time>
  <course>248.22</course>
  <speed>0.0</speed>
  <fix>3d</fix>
</trkpt>
<trkpt lat="40.0713749" lon="-105.229789">
  <ele>1583.0</ele>
  <time>2026-08-28T17:56:01Z</time>
  <course>0.0</course>
  <speed>0.0</speed>
  <fix>3d</fix>
</trkpt>
<trkpt lat="40.0713749" lon="-105.229789">
  <ele>1583.0</ele>
  <time>2026-08-28T17:56:01Z</time>
  <course>248.23</course>
  <speed>0.0</speed>
  <fix>3d</fix>
</trkpt>
<trkpt lat="40.0713749" lon="-105.229789">
  <ele>1583.0</ele>
  <time>2026-08-28T17:56:01Z</time>
  <course>0.0</course>
  <speed>0.0</speed>
  <fix>3d</fix>
</trkpt>
<trkpt lat="40.0713749" lon="-105.229789">
  <ele>1583.0</ele>
  <time>2026-08-28T17:56:01Z</time>
  <course>248.25</course>
  <speed>0.0</speed>
  <fix>3d</fix>
</trkpt>
<trkpt lat="40.0713749" lon="-105.229789">
  <ele>1583.0</ele>
  <time>2026-08-28T17:56:01Z</time>
  <course>0.0</course>
  <speed>0.0</speed>
  <fix>3d</fix>
</trkpt>
<trkpt lat="40.0713749" lon="-105.229789">
  <ele>1583.0</ele>
  <time>2026-08-28T17:56:01Z</time>
  <course>248.26</course>
  <speed>0.0</speed>
  <fix>3d</fix>
</trkpt>
<trkpt lat="40.0713749" lon="-105.229789">
  <ele>1583.0</ele>
  <time>2026-08-28T17:56:01Z</time>
  <course>0.0</course>
  <speed>0.0</speed>
  <fix>3d</fix>
</trkpt>
<trkpt lat="40.0713749" lon="-105.229789">
  <ele>1583.0</ele>
  <time>2026-08-28T17:56:01Z</time>
  <course>248.28</course>
  <speed>0.0</speed>
  <fix>3d</fix>
</trkpt>
<trkpt lat="40.0713749" lon="-105.229789">
  <ele>1583.0</ele>
  <time>2026-08-28T17:56:01Z</time>
  <course>0.0</course>
  <speed>0.0</speed>
  <fix>3d</fix>
</trkpt>
<trkpt lat="40.0713749" lon="-105.229789">
  <ele>1583.0</ele>
  <time>2026-08-28T17:56:01Z</time>
  <course>248.29</course>
  <speed>0.0</speed>
  <fix>3d</fix>
</trkpt>
<trkpt lat="40.0713749" lon="-105.229789">
  <ele>1583.0</ele>
  <time>2026-08-28T17:56:01Z</time>
  <course>0.0</course>
  <speed>0.0</speed>
  <fix>3d</fix>
</trkpt>
<trkpt lat="40.0713749" lon="-105.229789">
  <ele>1583.0</ele>
  <time>2026-08-28T17:56:01Z</time>
  <course>248.3</course>
  <speed>0.0</speed>
  <fix>3d</fix>
</trkpt>
<trkpt lat="40.0713749" lon="-105.229789">
  <ele>1583.0</ele>
  <time>2026-08-28T17:56:01Z</time>
  <course>0.0</course>
  <speed>0.0</speed>
  <fix>3d</fix>
</trkpt>
<trkpt lat="40.0713749" lon="-105.229789">
  <ele>1583.0</ele>
  <time>2026-08-28T17:56:01Z</time>
  <course>248.31</course>
  <speed>0.0</speed>
  <fix>3d</fix>
</trkpt>
<trkpt lat="40.0713749" lon="-105.229789">
  <ele>1583.0</ele>
  <time>2026-08-28T17:56:01Z</time>
  <course>0.0</course>
  <speed>0.0</speed>
  <fix>3d</fix>
</trkpt>
<trkpt lat="40.0713749" lon="-105.229789">
  <ele>1583.0</ele>
  <time>2026-08-28T17:56:01Z</time>
  <course>248.32</course>
  <speed>0.0</speed>
  <fix>3d</fix>
</trkpt>
<trkpt lat="40.0713749" lon="-105.229789">
  <ele>1583.0</ele>
  <time>2026-08-28T17:56:01Z</time>
  <course>0.0</course>
  <speed>0.0</speed>
  <fix>3d</fix>
</trkpt>
<trkpt lat="40.0713749" lon="-105.229789">
  <ele>1583.0</ele>
  <time>2026-08-28T17:56:01Z</time>
  <course>248.33</course>
  <speed>0.0</speed>
  <fix>3d</fix>
</trkpt>
<trkpt lat="40.0713749" lon="-105.229789">
  <ele>1583.0</ele>
  <time>2026-08-28T17:56:01Z</time>
  <course>0.0</course>
  <speed>0.0</speed>
  <fix>3d</fix>
</trkpt>
<trkpt lat="40.0713749" lon="-105.229789">
  <ele>1583.0</ele>
  <time>2026-08-28T17:56:01Z</time>
  <course>248.34</course>
  <speed>0.0</speed>
  <fix>3d</fix>
</trkpt>
<trkpt lat="40.0713749" lon="-105.229789">
  <ele>1583.0</ele>
  <time>2026-08-28T17:56:01Z</time>
  <course>0.0</course>
  <speed>0.0</speed>
  <fix>3d</fix>
</trkpt>
<trkpt lat="40.0713749" lon="-105.229789">
  <ele>1583.0</ele>
  <time>2026-08-28T17:56:01Z</time>
  <course>248.35</course>
  <speed>0.0</speed>
  <fix>3d</fix>
</trkpt>
<trkpt lat="40.0713749" lon="-105.229789">
  <ele>1583.0</ele>
  <time>2026-08-28T17:56:01Z</time>
  <course>0.0</course>
  <speed>0.0</speed>
  <fix>3d</fix>
</trkpt>
<trkpt lat="40.0713749" lon="-105.229789">
  <ele>1583.0</ele>
  <time>2026-08-28T17:56:01Z</time>
  <course>248.35</course>
  <speed>0.0</speed>
  <fix>3d</fix>
</trkpt>
<trkpt lat="40.0713749" lon="-105.229789">
  <ele>1583.0</ele>
  <time>2026-08-28T17:56:01Z</time>
  <course>0.0</course>
  <speed>0.0</speed>
  <fix>3d</fix>
</trkpt>
<trkpt lat="40.0713749" lon="-105.229789">
  <ele>1583.0</ele>
  <time>2026-08-28T17:56:01Z</time>
  <course>248.36</course>
  <speed>0.0</speed>
  <fix>3d</fix>
</trkpt>
<trkpt lat="40.0713749" lon="-105.229789">
  <ele>1583.0</ele>
  <time>2026-08-28T17:56:01Z</time>
  <course>0.0</course>
  <speed>0.0</speed>
  <fix>3d</fix>
</trkpt>
<trkpt lat="40.0713749" lon="-105.229789">
  <ele>1583.0</ele>
  <time>2026-08-28T17:56:01Z</time>
  <course>248.37</course>
  <speed>0.0</speed>
  <fix>3d</fix>
</trkpt>
<trkpt lat="40.0713749" lon="-105.229789">
  <ele>1583.0</ele>
  <time>2026-08-28T17:56:01Z</time>
  <course>0.0</course>
  <speed>0.0</speed>
  <fix>3d</fix>
</trkpt>
<trkpt lat="40.0713749" lon="-105.229789">
  <ele>1583.0</ele>
  <time>2026-08-28T17:56:01Z</time>
  <course>248.37</course>
  <speed>0.0</speed>
  <fix>3d</fix>
</trkpt>
<trkpt lat="40.0713749" lon="-105.229789">
  <ele>1583.0</ele>
  <time>2026-08-28T17:56:01Z</time>
  <course>0.0</course>
  <speed>0.0</speed>
  <fix>3d</fix>
</trkpt>
<trkpt lat="40.0713749" lon="-105.229789">
  <ele>1583.0</ele>
  <time>2026-08-28T17:56:01Z</time>
  <course>248.38</course>
  <speed>0.0</speed>
  <fix>3d</fix>
</trkpt>
<trkpt lat="40.0713749" lon="-105.229789">
  <ele>1583.0</ele>
  <time>2026-08-28T17:56:01Z</time>
  <course>0.0</course>
  <speed>0.0</speed>
  <fix>3d</fix>
</trkpt>
<trkpt lat="40.0713749" lon="-105.229789">
  <ele>1583.0</ele>
  <time>2026-08-28T17:56:01Z</time>
  <course>248.38</course>
  <speed>0.0</speed>
  <fix>3d</fix>
</trkpt>
<trkpt lat="40.0713749" lon="-105.229789">
  <ele>1583.0</ele>
  <time>2026-08-28T17:56:01Z</time>
  <course>0.0</course>
  <speed>0.0</speed>
  <fix>3d</fix>
</trkpt>
<trkpt lat="40.0713749" lon="-105.229789">
  <ele>1583.0</ele>
  <time>2026-08-28T17:56:01Z</time>
  <course>248.39</course>
  <speed>0.0</speed>
  <fix>3d</fix>
</trkpt>
<trkpt lat="40.0713749" lon="-105.229789">
  <ele>1583.0</ele>
  <time>2026-08-28T17:56:01Z</time>
  <course>0.0</course>
  <speed>0.0</speed>
  <fix>3d</fix>
</trkpt>
<trkpt lat="40.0713749" lon="-105.229789">
  <ele>1583.0</ele>
  <time>2026-08-28T17:56:01Z</time>
  <course>248.39</course>
  <speed>0.0</speed>
  <fix>3d</fix>
</trkpt>
<trkpt lat="40.0713749" lon="-105.229789">
  <ele>1583.0</ele>
  <time>2026-08-28T17:56:01Z</time>
  <course>0.0</course>
  <speed>0.0</speed>
  <fix>3d</fix>
</trkpt>
<trkpt lat="40.0713749" lon="-105.229789">
  <ele>1583.0</ele>
  <time>2026-08-28T17:56:01Z</time>
  <course>248.4</course>
  <speed>0.0</speed>
  <fix>3d</fix>
</trkpt>
<trkpt lat="40.0713749" lon="-105.229789">
  <ele>1583.0</ele>
  <time>2026-08-28T17:56:01Z</time>
  <course>0.0</course>
  <speed>0.0</speed>
  <fix>3d</fix>
</trkpt>
<trkpt lat="40.0713749" lon="-105.229789">
  <ele>1583.0</ele>
  <time>2026-08-28T17:56:01Z</time>
  <course>248.4</course>
  <speed>0.0</speed>
  <fix>3d</fix>
</trkpt>
<trkpt lat="40.0713749" lon="-105.229789">
  <ele>1583.0</ele>
  <time>2026-08-28T17:56:01Z</time>
  <course>0.0</course>
  <speed>0.0</speed>
  <fix>3d</fix>
</trkpt>
<trkpt lat="40.0713749" lon="-105.229789">
  <ele>1583.0</ele>
  <time>2026-08-28T17:56:01Z</time>
  <course>248.4</course>
  <speed>0.0</speed>
  <fix>3d</fix>
</trkpt>
<trkpt lat="40.0713749" lon="-105.229789">
  <ele>1583.0</ele>
  <time>2026-08-28T17:56:01Z</time>
  <course>0.0</course>
  <speed>0.0</speed>
  <fix>3d</fix>
</trkpt>
<trkpt lat="40.0713749" lon="-105.229789">
  <ele>1583.0</ele>
  <time>2026-08-28T17:56:01Z</time>
  <course>248.4</course>
  <speed>0.0</speed>
  <fix>3d</fix>
</trkpt>
<trkpt lat="40.0713749" lon="-105.229789">
  <ele>1583.0</ele>
  <time>2026-08-28T17:56:01Z</time>
  <course>0.0</course>
  <speed>0.0</speed>
  <fix>3d</fix>
</trkpt>
<trkpt lat="40.0713749" lon="-105.229789">
  <ele>1583.0</ele>
  <time>2026-08-28T17:56:01Z</time>
  <course>248.41</course>
  <speed>0.0</speed>
  <fix>3d</fix>
</trkpt>
<trkpt lat="40.0713749" lon="-105.229789">
  <ele>1583.0</ele>
  <time>2026-08-28T17:56:01Z</time>
  <course>0.0</course>
  <speed>0.0</speed>
  <fix>3d</fix>
</trkpt>
<trkpt lat="40.0713749" lon="-105.229789">
  <ele>1583.0</ele>
  <time>2026-08-28T17:56:01Z</time>
  <course>248.41</course>
  <speed>0.0</speed>
  <fix>3d</fix>
</trkpt>
<trkpt lat="40.0713749" lon="-105.229789">
  <ele>1583.0</ele>
  <time>2026-08-28T17:56:01Z</time>
  <course>0.0</course>
  <speed>0.0</speed>
  <fix>3d</fix>
</trkpt>
<trkpt lat="40.0713749" lon="-105.229789">
  <ele>1583.0</ele>
  <time>2026-08-28T17:56:01Z</time>
  <course>248.41</course>
  <speed>0.0</speed>
  <fix>3d</fix>
</trkpt>
<trkpt lat="40.0713749" lon="-105.229789">
  <ele>1583.0</ele>
  <time>2026-08-28T17:56:01Z</time>
  <course>0.0</course>
  <speed>0.0</speed>
  <fix>3d</fix>
</trkpt>
<trkpt lat="40.0713749" lon="-105.229789">
  <ele>1583.0</ele>
  <time>2026-08-28T17:56:01Z</time>
  <course>248.41</course>
  <speed>0.0</speed>
  <fix>3d</fix>
</trkpt>
<trkpt lat="40.0713749" lon="-105.229789">
  <ele>1583.0</ele>
  <time>2026-08-28T17:56:01Z</time>
  <course>0.0</course>
  <speed>0.0</speed>
  <fix>3d</fix>
</trkpt>
<trkpt lat="40.0713749" lon="-105.229789">
  <ele>1583.0</ele>
  <time>2026-08-28T17:56:01Z</time>
  <course>248.41</course>
  <speed>0.0</speed>
  <fix>3d</fix>
</trkpt>
<trkpt lat="40.0713749" lon="-105.229789">
  <ele>1583.0</ele>
  <time>2026-08-28T17:56:01Z</time>
  <course>0.0</course>
  <speed>0.0</speed>
  <fix>3d</fix>
</trkpt>
<trkpt lat="40.0713749" lon="-105.229789">
  <ele>1583.0</ele>
  <time>2026-08-28T17:56:01Z</time>
  <course>248.41</course>
  <speed>0.0</speed>
  <fix>3d</fix>
</trkpt>
<trkpt lat="40.0713749" lon="-105.229789">
  <ele>1583.0</ele>
  <time>2026-08-28T17:56:01Z</time>
  <course>0.0</course>
  <speed>0.0</speed>
  <fix>3d</fix>
</trkpt>
<trkpt lat="40.0713749" lon="-105.229789">
  <ele>1583.0</ele>
  <time>2026-08-28T17:56:01Z</time>
  <course>248.41</course>
  <speed>0.0</speed>
  <fix>3d</fix>
</trkpt>
<trkpt lat="40.0713749" lon="-105.229789">
  <ele>1583.0</ele>
  <time>2026-08-28T17:56:01Z</time>
  <course>0.0</course>
  <speed>0.0</speed>
  <fix>3d</fix>
</trkpt>
<trkpt lat="40.0713749" lon="-105.229789">
  <ele>1583.0</ele>
  <time>2026-08-28T17:56:01Z</time>
  <course>248.41</course>
  <speed>0.0</speed>
  <fix>3d</fix>
</trkpt>
<trkpt lat="40.0713749" lon="-105.229789">
  <ele>1583.0</ele>
  <time>2026-08-28T17:56:01Z</time>
  <course>0.0</course>
  <speed>0.0</speed>
  <fix>3d</fix>
</trkpt>
<trkpt lat="40.0713749" lon="-105.229789">
  <ele>1583.0</ele>
  <time>2026-08-28T17:56:01Z</time>
  <course>248.41</course>
  <speed>0.0</speed>
  <fix>3d</fix>
</trkpt>
<trkpt lat="40.0713749" lon="-105.229789">
  <ele>1583.0</ele>
  <time>2026-08-28T17:56:01Z</time>
  <course>0.0</course>
  <speed>0.0</speed>
  <fix>3d</fix>
</trkpt>
<trkpt lat="40.0713749" lon="-105.229789">
  <ele>1583.0</ele>
  <time>2026-08-28T17:56:01Z</time>
  <course>248.41</course>
  <speed>0.0</speed>
  <fix>3d</fix>
</trkpt>
<trkpt lat="40.0713749" lon="-105.229789">
  <ele>1583.0</ele>
  <time>2026-08-28T17:56:01Z</time>
  <course>0.0</course>
  <speed>0.0</speed>
  <fix>3d</fix>
</trkpt>
<trkpt lat="40.0713749" lon="-105.229789">
  <ele>1583.0</ele>
  <time>2026-08-28T17:56:01Z</time>
  <course>248.41</course>
  <speed>0.0</speed>
  <fix>3d</fix>
</trkpt>
<trkpt lat="40.0713749" lon="-105.229789">
  <ele>1583.0</ele>
  <time>2026-08-28T17:56:01Z</time>
  <course>0.0</course>
  <speed>0.0</speed>
  <fix>3d</fix>
</trkpt>
<trkpt lat="40.0713749" lon="-105.229789">
  <ele>1583.0</ele>
  <time>2026-08-28T17:56:01Z</time>
  <course>248.41</course>
  <speed>0.0</speed>
  <fix>3d</fix>
</trkpt>
<trkpt lat="40.0713749" lon="-105.229789">
  <ele>1583.0</ele>
  <time>2026-08-28T17:56:01Z</time>
  <course>0.0</course>
  <speed>0.0</speed>
  <fix>3d</fix>
</trkpt>
<trkpt lat="40.0713749" lon="-105.229789">
  <ele>1583.0</ele>
  <time>2026-08-28T17:56:01Z</time>
  <course>248.41</course>
  <speed>0.0</speed>
  <fix>3d</fix>
</trkpt>
<trkpt lat="40.0713749" lon="-105.229789">
  <ele>1583.0</ele>
  <time>2026-08-28T17:56:01Z</time>
  <course>0.0</course>
  <speed>0.0</speed>
  <fix>3d</fix>
</trkpt>
<trkpt lat="40.0713749" lon="-105.229789">
  <ele>1583.0</ele>
  <time>2026-08-28T17:56:01Z</time>
  <course>248.41</course>
  <speed>0.0</speed>
  <fix>3d</fix>
</trkpt>
<trkpt lat="40.0713749" lon="-105.229789">
  <ele>1583.0</ele>
  <time>2026-08-28T17:56:01Z</time>
  <course>0.0</course>
  <speed>0.0</speed>
  <fix>3d</fix>
</trkpt>
<trkpt lat="40.0713749" lon="-105.229789">
  <ele>1583.0</ele>
  <time>2026-08-28T17:56:01Z</time>
  <course>248.41</course>
  <speed>0.0</speed>
  <fix>3d</fix>
</trkpt>
<trkpt lat="40.0713749" lon="-105.229789">
  <ele>1583.0</ele>
  <time>2026-08-28T17:56:01Z</time>
  <course>0.0</course>
  <speed>0.0</speed>
  <fix>3d</fix>
</trkpt>
<trkpt lat="40.0713749" lon="-105.229789">
  <ele>1583.0</ele>
  <time>2026-08-28T17:56:01Z</time>
  <course>248.41</course>
  <speed>0.0</speed>
  <fix>3d</fix>
</trkpt>
<trkpt lat="40.0713749" lon="-105.229789">
  <ele>1583.0</ele>
  <time>2026-08-28T17:56:01Z</time>
  <course>0.0</course>
  <speed>0.0</speed>
  <fix>3d</fix>
</trkpt>
<trkpt lat="40.0713749" lon="-105.229789">
  <ele>1583.0</ele>
  <time>2026-08-28T17:56:01Z</time>
  <course>248.4</course>
  <speed>0.0</speed>
  <fix>3d</fix>
</trkpt>
<trkpt lat="40.0713749" lon="-105.229789">
  <ele>1583.0</ele>
  <time>2026-08-28T17:56:01Z</time>
  <course>0.0</course>
  <speed>0.0</speed>
  <fix>3d</fix>
</trkpt>
<trkpt lat="40.0713749" lon="-105.229789">
  <ele>1583.0</ele>
  <time>2026-08-28T17:56:01Z</time>
  <course>248.4</course>
  <speed>0.01</speed>
  <fix>3d</fix>
</trkpt>
<trkpt lat="40.0713749" lon="-105.229789">
  <ele>1583.0</ele>
  <time>2026-08-28T17:56:01Z</time>
  <course>0.0</course>
  <speed>0.0</speed>
  <fix>3d</fix>
</trkpt>
<trkpt lat="40.0713749" lon="-105.229789">
  <ele>1583.0</ele>
  <time>2026-08-28T17:56:01Z</time>
  <course>248.4</course>
  <speed>0.01</speed>
  <fix>3d</fix>
</trkpt>
<trkpt lat="40.0713749" lon="-105.229789">
  <ele>1583.0</ele>
  <time>2026-08-28T17:56:01Z</time>
  <course>0.0</course>
  <speed>0.0</speed>
  <fix>3d</fix>
</trkpt>
<trkpt lat="40.0713749" lon="-105.229789">
  <ele>1583.0</ele>
  <time>2026-08-28T17:56:01Z</time>
  <course>248.4</course>
  <speed>0.01</speed>
  <fix>3d</fix>
</trkpt>
<trkpt lat="40.0713749" lon="-105.229789">
  <ele>1583.0</ele>
  <time>2026-08-28T17:56:01Z</time>
  <course>0.0</course>
  <speed>0.0</speed>
  <fix>3d</fix>
</trkpt>
<trkpt lat="40.0713749" lon="-105.229789">
  <ele>1583.0</ele>
  <time>2026-08-28T17:56:01Z</time>
  <course>248.4</course>
  <speed>0.01</speed>
  <fix>3d</fix>
</trkpt>
<trkpt lat="40.0713749" lon="-105.229789">
  <ele>1583.0</ele>
  <time>2026-08-28T17:56:01Z</time>
  <course>0.0</course>
  <speed>0.0</speed>
  <fix>3d</fix>
</trkpt>
<trkpt lat="40.0713749" lon="-105.229789">
  <ele>1583.0</ele>
  <time>2026-08-28T17:56:01Z</time>
  <course>248.39</course>
  <speed>0.01</speed>
  <fix>3d</fix>
</trkpt>
<trkpt lat="40.0713749" lon="-105.229789">
  <ele>1583.0</ele>
  <time>2026-08-28T17:56:01Z</time>
  <course>0.0</course>
  <speed>0.0</speed>
  <fix>3d</fix>
</trkpt>
<trkpt lat="40.0713749" lon="-105.229789">
  <ele>1583.0</ele>
  <time>2026-08-28T17:56:01Z</time>
  <course>248.39</course>
  <speed>0.01</speed>
  <fix>3d</fix>
</trkpt>
<trkpt lat="40.0713749" lon="-105.229789">
  <ele>1583.0</ele>
  <time>2026-08-28T17:56:01Z</time>
  <course>0.0</course>
  <speed>0.0</speed>
  <fix>3d</fix>
</trkpt>
<trkpt lat="40.0713749" lon="-105.229789">
  <ele>1583.0</ele>
  <time>2026-08-28T17:56:01Z</time>
  <course>248.39</course>
  <speed>0.01</speed>
  <fix>3d</fix>
</trkpt>
<trkpt lat="40.0713749" lon="-105.229789">
  <ele>1583.0</ele>
  <time>2026-08-28T17:56:01Z</time>
  <course>0.0</course>
  <speed>0.0</speed>
  <fix>3d</fix>
</trkpt>
<trkpt lat="40.0713749" lon="-105.229789">
  <ele>1583.0</ele>
  <time>2026-08-28T17:56:01Z</time>
  <course>248.38</course>
  <speed>0.01</speed>
  <fix>3d</fix>
</trkpt>
<trkpt lat="40.0713749" lon="-105.229789">
  <ele>1583.0</ele>
  <time>2026-08-28T17:56:01Z</time>
  <course>0.0</course>
  <speed>0.0</speed>
  <fix>3d</fix>
</trkpt>
<trkpt lat="40.0713749" lon="-105.229789">
  <ele>1583.0</ele>
  <time>2026-08-28T17:56:01Z</time>
  <course>248.38</course>
  <speed>0.01</speed>
  <fix>3d</fix>
</trkpt>
<trkpt lat="40.0713749" lon="-105.229789">
  <ele>1583.0</ele>
  <time>2026-08-28T17:56:01Z</time>
  <course>0.0</course>
  <speed>0.0</speed>
  <fix>3d</fix>
</trkpt>
<trkpt lat="40.0713749" lon="-105.229789">
  <ele>1583.0</ele>
  <time>2026-08-28T17:56:01Z</time>
  <course>248.38</course>
  <speed>0.01</speed>
  <fix>3d</fix>
</trkpt>
<trkpt lat="40.0713749" lon="-105.229789">
  <ele>1583.0</ele>
  <time>2026-08-28T17:56:01Z</time>
  <course>0.0</course>
  <speed>0.0</speed>
  <fix>3d</fix>
</trkpt>
<trkpt lat="40.0713749" lon="-105.229789">
  <ele>1583.0</ele>
  <time>2026-08-28T17:56:01Z</time>
  <course>248.37</course>
  <speed>0.01</speed>
  <fix>3d</fix>
</trkpt>
<trkpt lat="40.0713749" lon="-105.229789">
  <ele>1583.0</ele>
  <time>2026-08-28T17:56:01Z</time>
  <course>0.0</course>
  <speed>0.0</speed>
  <fix>3d</fix>
</trkpt>
<trkpt lat="40.0713749" lon="-105.229789">
  <ele>1583.0</ele>
  <time>2026-08-28T17:56:01Z</time>
  <course>248.37</course>
  <speed>0.01</speed>
  <fix>3d</fix>
</trkpt>
<trkpt lat="40.0713749" lon="-105.229789">
  <ele>1583.0</ele>
  <time>2026-08-28T17:56:01Z</time>
  <course>0.0</course>
  <speed>0.0</speed>
  <fix>3d</fix>
</trkpt>
<trkpt lat="40.0713749" lon="-105.229789">
  <ele>1583.0</ele>
  <time>2026-08-28T17:56:01Z</time>
  <course>248.37</course>
  <speed>0.01</speed>
  <fix>3d</fix>
</trkpt>
<trkpt lat="40.0713749" lon="-105.229789">
  <ele>1583.0</ele>
  <time>2026-08-28T17:56:01Z</time>
  <course>0.0</course>
  <speed>0.0</speed>
  <fix>3d</fix>
</trkpt>
<trkpt lat="40.0713749" lon="-105.229789">
  <ele>1583.0</ele>
  <time>2026-08-28T17:56:01Z</time>
  <course>248.36</course>
  <speed>0.01</speed>
  <fix>3d</fix>
</trkpt>
<trkpt lat="40.0713749" lon="-105.229789">
  <ele>1583.0</ele>
  <time>2026-08-28T17:56:01Z</time>
  <course>0.0</course>
  <speed>0.0</speed>
  <fix>3d</fix>
</trkpt>
<trkpt lat="40.0713749" lon="-105.229789">
  <ele>1583.0</ele>
  <time>2026-08-28T17:56:01Z</time>
  <course>248.36</course>
  <speed>0.01</speed>
  <fix>3d</fix>
</trkpt>
<trkpt lat="40.0713749" lon="-105.229789">
  <ele>1583.0</ele>
  <time>2026-08-28T17:56:01Z</time>
  <course>0.0</course>
  <speed>0.0</speed>
  <fix>3d</fix>
</trkpt>
<trkpt lat="40.0713749" lon="-105.229789">
  <ele>1583.0</ele>
  <time>2026-08-28T17:56:01Z</time>
  <course>248.36</course>
  <speed>0.01</speed>
  <fix>3d</fix>
</trkpt>
<trkpt lat="40.0713749" lon="-105.229789">
  <ele>1583.0</ele>
  <time>2026-08-28T17:56:01Z</time>
  <course>0.0</course>
  <speed>0.0</speed>
  <fix>3d</fix>
</trkpt>
<trkpt lat="40.0713749" lon="-105.229789">
  <ele>1583.0</ele>
  <time>2026-08-28T17:56:01Z</time>
  <course>248.35</course>
  <speed>0.01</speed>
  <fix>3d</fix>
</trkpt>
<trkpt lat="40.0713749" lon="-105.229789">
  <ele>1583.0</ele>
  <time>2026-08-28T17:56:01Z</time>
  <course>0.0</course>
  <speed>0.0</speed>
  <fix>3d</fix>
</trkpt>
<trkpt lat="40.0713749" lon="-105.229789">
  <ele>1583.0</ele>
  <time>2026-08-28T17:56:01Z</time>
  <course>248.35</course>
  <speed>0.01</speed>
  <fix>3d</fix>
</trkpt>
<trkpt lat="40.0713749" lon="-105.229789">
  <ele>1583.0</ele>
  <time>2026-08-28T17:56:01Z</time>
  <course>0.0</course>
  <speed>0.0</speed>
  <fix>3d</fix>
</trkpt>
<trkpt lat="40.0713749" lon="-105.229789">
  <ele>1583.0</ele>
  <time>2026-08-28T17:56:01Z</time>
  <course>248.35</course>
  <speed>0.01</speed>
  <fix>3d</fix>
</trkpt>
<trkpt lat="40.0713749" lon="-105.229789">
  <ele>1583.0</ele>
  <time>2026-08-28T17:56:01Z</time>
  <course>0.0</course>
  <speed>0.0</speed>
  <fix>3d</fix>
</trkpt>
<trkpt lat="40.0713749" lon="-105.229789">
  <ele>1583.0</ele>
  <time>2026-08-28T17:56:01Z</time>
  <course>248.34</course>
  <speed>0.01</speed>
  <fix>3d</fix>
</trkpt>
<trkpt lat="40.0713749" lon="-105.229789">
  <ele>1583.0</ele>
  <time>2026-08-28T17:56:01Z</time>
  <course>0.0</course>
  <speed>0.0</speed>
  <fix>3d</fix>
</trkpt>
<trkpt lat="40.0713749" lon="-105.229789">
  <ele>1583.0</ele>
  <time>2026-08-28T17:56:01Z</time>
  <course>248.34</course>
  <speed>0.01</speed>
  <fix>3d</fix>
</trkpt>
<trkpt lat="40.0713749" lon="-105.229789">
  <ele>1583.0</ele>
  <time>2026-08-28T17:56:01Z</time>
  <course>0.0</course>
  <speed>0.0</speed>
  <fix>3d</fix>
</trkpt>
<trkpt lat="40.0713749" lon="-105.229789">
  <ele>1583.0</ele>
  <time>2026-08-28T17:56:01Z</time>
  <course>248.33</course>
  <speed>0.01</speed>
  <fix>3d</fix>
</trkpt>
<trkpt lat="40.0713749" lon="-105.229789">
  <ele>1583.0</ele>
  <time>2026-08-28T17:56:01Z</time>
  <course>0.0</course>
  <speed>0.0</speed>
  <fix>3d</fix>
</trkpt>
<trkpt lat="40.0713749" lon="-105.229789">
  <ele>1583.0</ele>
  <time>2026-08-28T17:56:01Z</time>
  <course>248.33</course>
  <speed>0.01</speed>
  <fix>3d</fix>
</trkpt>
<trkpt lat="40.0713749" lon="-105.229789">
  <ele>1583.0</ele>
  <time>2026-08-28T17:56:01Z</time>
  <course>0.0</course>
  <speed>0.0</speed>
  <fix>3d</fix>
</trkpt>
<trkpt lat="40.0713749" lon="-105.229789">
  <ele>1583.0</ele>
  <time>2026-08-28T17:56:01Z</time>
  <course>248.32</course>
  <speed>0.01</speed>
  <fix>3d</fix>
</trkpt>
<trkpt lat="40.0713749" lon="-105.229789">
  <ele>1583.0</ele>
  <time>2026-08-28T17:56:01Z</time>
  <course>0.0</course>
  <speed>0.0</speed>
  <fix>3d</fix>
</trkpt>
<trkpt lat="40.0713749" lon="-105.229789">
  <ele>1583.0</ele>
  <time>2026-08-28T17:56:01Z</time>
  <course>248.32</course>
  <speed>0.01</speed>
  <fix>3d</fix>
</trkpt>
<trkpt lat="40.0713749" lon="-105.229789">
  <ele>1583.0</ele>
  <time>2026-08-28T17:56:01Z</time>
  <course>0.0</course>
  <speed>0.0</speed>
  <fix>3d</fix>
</trkpt>
<trkpt lat="40.0713749" lon="-105.229789">
  <ele>1583.0</ele>
  <time>2026-08-28T17:56:01Z</time>
  <course>248.32</course>
  <speed>0.01</speed>
  <fix>3d</fix>
</trkpt>
<trkpt lat="40.0713749" lon="-105.229789">
  <ele>1583.0</ele>
  <time>2026-08-28T17:56:01Z</time>
  <course>0.0</course>
  <speed>0.0</speed>
  <fix>3d</fix>
</trkpt>
<trkpt lat="40.0713749" lon="-105.229789">
  <ele>1583.0</ele>
  <time>2026-08-28T17:56:01Z</time>
  <course>248.31</course>
  <speed>0.01</speed>
  <fix>3d</fix>
</trkpt>
<trkpt lat="40.0713749" lon="-105.229789">
  <ele>1583.0</ele>
  <time>2026-08-28T17:56:01Z</time>
  <course>0.0</course>
  <speed>0.0</speed>
  <fix>3d</fix>
</trkpt>
<trkpt lat="40.0713749" lon="-105.229789">
  <ele>1583.0</ele>
  <time>2026-08-28T17:56:01Z</time>
  <course>248.31</course>
  <speed>0.01</speed>
  <fix>3d</fix>
</trkpt>
<trkpt lat="40.0713749" lon="-105.229789">
  <ele>1583.0</ele>
  <time>2026-08-28T17:56:01Z</time>
  <course>0.0</course>
  <speed>0.0</speed>
  <fix>3d</fix>
</trkpt>
<trkpt lat="40.0713749" lon="-105.229789">
  <ele>1583.0</ele>
  <time>2026-08-28T17:56:01Z</time>
  <course>248.3</course>
  <speed>0.01</speed>
  <fix>3d</fix>
</trkpt>
<trkpt lat="40.0713749" lon="-105.229789">
  <ele>1583.0</ele>
  <time>2026-08-28T17:56:01Z</time>
  <course>0.0</course>
  <speed>0.0</speed>
  <fix>3d</fix>
</trkpt>
<trkpt lat="40.0713749" lon="-105.229789">
  <ele>1583.0</ele>
  <time>2026-08-28T17:56:01Z</time>
  <course>248.3</course>
  <speed>0.01</speed>
  <fix>3d</fix>
</trkpt>
<trkpt lat="40.0713749" lon="-105.229789">
  <ele>1583.0</ele>
  <time>2026-08-28T17:56:01Z</time>
  <course>0.0</course>
  <speed>0.0</speed>
  <fix>3d</fix>
</trkpt>
<trkpt lat="40.0713749" lon="-105.229789">
  <ele>1583.0</ele>
  <time>2026-08-28T17:56:01Z</time>
  <course>248.29</course>
  <speed>0.01</speed>
  <fix>3d</fix>
</trkpt>
<trkpt lat="40.0713749" lon="-105.229789">
  <ele>1583.0</ele>
  <time>2026-08-28T17:56:01Z</time>
  <course>0.0</course>
  <speed>0.0</speed>
  <fix>3d</fix>
</trkpt>
<trkpt lat="40.0713749" lon="-105.229789">
  <ele>1583.0</ele>
  <time>2026-08-28T17:56:01Z</time>
  <course>248.29</course>
  <speed>0.01</speed>
  <fix>3d</fix>
</trkpt>
<trkpt lat="40.0713749" lon="-105.229789">
  <ele>1583.0</ele>
  <time>2026-08-28T17:56:01Z</time>
  <course>0.0</course>
  <speed>0.0</speed>
  <fix>3d</fix>
</trkpt>
<trkpt lat="40.0713749" lon="-105.229789">
  <ele>1583.0</ele>
  <time>2026-08-28T17:56:01Z</time>
  <course>248.28</course>
  <speed>0.01</speed>
  <fix>3d</fix>
</trkpt>
<trkpt lat="40.0713749" lon="-105.229789">
  <ele>1583.0</ele>
  <time>2026-08-28T17:56:01Z</time>
  <course>0.0</course>
  <speed>0.0</speed>
  <fix>3d</fix>
</trkpt>
<trkpt lat="40.0713749" lon="-105.229789">
  <ele>1583.0</ele>
  <time>2026-08-28T17:56:01Z</time>
  <course>248.28</course>
  <speed>0.01</speed>
  <fix>3d</fix>
</trkpt>
<trkpt lat="40.0713749" lon="-105.229789">
  <ele>1583.0</ele>
  <time>2026-08-28T17:56:01Z</time>
  <course>0.0</course>
  <speed>0.0</speed>
  <fix>3d</fix>
</trkpt>
<trkpt lat="40.0713749" lon="-105.229789">
  <ele>1583.0</ele>
  <time>2026-08-28T17:56:01Z</time>
  <course>248.27</course>
  <speed>0.01</speed>
  <fix>3d</fix>
</trkpt>
<trkpt lat="40.0713749" lon="-105.229789">
  <ele>1583.0</ele>
  <time>2026-08-28T17:56:01Z</time>
  <course>0.0</course>
  <speed>0.0</speed>
  <fix>3d</fix>
</trkpt>
<trkpt lat="40.0713749" lon="-105.229789">
  <ele>1583.0</ele>
  <time>2026-08-28T17:56:01Z</time>
  <course>248.27</course>
  <speed>0.01</speed>
  <fix>3d</fix>
</trkpt>
<trkpt lat="40.0713749" lon="-105.229789">
  <ele>1583.0</ele>
  <time>2026-08-28T17:56:01Z</time>
  <course>0.0</course>
  <speed>0.0</speed>
  <fix>3d</fix>
</trkpt>
<trkpt lat="40.0713749" lon="-105.229789">
  <ele>1583.0</ele>
  <time>2026-08-28T17:56:01Z</time>
  <course>248.26</course>
  <speed>0.01</speed>
  <fix>3d</fix>
</trkpt>
<trkpt lat="40.0713749" lon="-105.229789">
  <ele>1583.0</ele>
  <time>2026-08-28T17:56:01Z</time>
  <course>0.0</course>
  <speed>0.0</speed>
  <fix>3d</fix>
</trkpt>
<trkpt lat="40.0713749" lon="-105.229789">
  <ele>1583.0</ele>
  <time>2026-08-28T17:56:01Z</time>
  <course>248.26</course>
  <speed>0.01</speed>
  <fix>3d</fix>
</trkpt>
<trkpt lat="40.0713749" lon="-105.229789">
  <ele>1583.0</ele>
  <time>2026-08-28T17:56:01Z</time>
  <course>0.0</course>
  <speed>0.0</speed>
  <fix>3d</fix>
</trkpt>
<trkpt lat="40.0713749" lon="-105.229789">
  <ele>1583.0</ele>
  <time>2026-08-28T17:56:01Z</time>
  <course>248.26</course>
  <speed>0.01</speed>
  <fix>3d</fix>
</trkpt>
<trkpt lat="40.0713749" lon="-105.229789">
  <ele>1583.0</ele>
  <time>2026-08-28T17:56:01Z</time>
  <course>0.0</course>
  <speed>0.0</speed>
  <fix>3d</fix>
</trkpt>
<trkpt lat="40.0713749" lon="-105.229789">
  <ele>1583.0</ele>
  <time>2026-08-28T17:56:01Z</time>
  <course>248.25</course>
  <speed>0.01</speed>
  <fix>3d</fix>
</trkpt>
<trkpt lat="40.0713749" lon="-105.229789">
  <ele>1583.0</ele>
  <time>2026-08-28T17:56:01Z</time>
  <course>0.0</course>
  <speed>0.0</speed>
  <fix>3d</fix>
</trkpt>
<trkpt lat="40.0713749" lon="-105.229789">
  <ele>1583.0</ele>
  <time>2026-08-28T17:56:01Z</time>
  <course>248.25</course>
  <speed>0.01</speed>
  <fix>3d</fix>
</trkpt>
<trkpt lat="40.0713749" lon="-105.229789">
  <ele>1583.0</ele>
  <time>2026-08-28T17:56:01Z</time>
  <course>0.0</course>
  <speed>0.0</speed>
  <fix>3d</fix>
</trkpt>
<trkpt lat="40.0713749" lon="-105.229789">
  <ele>1583.0</ele>
  <time>2026-08-28T17:56:01Z</time>
  <course>248.24</course>
  <speed>0.01</speed>
  <fix>3d</fix>
</trkpt>
<trkpt lat="40.0713749" lon="-105.229789">
  <ele>1583.0</ele>
  <time>2026-08-28T17:56:01Z</time>
  <course>0.0</course>
  <speed>0.0</speed>
  <fix>3d</fix>
</trkpt>
<trkpt lat="40.0713749" lon="-105.229789">
  <ele>1583.0</ele>
  <time>2026-08-28T17:56:01Z</time>
  <course>248.24</course>
  <speed>0.01</speed>
  <fix>3d</fix>
</trkpt>
<trkpt lat="40.0713749" lon="-105.229789">
  <ele>1583.0</ele>
  <time>2026-08-28T17:56:01Z</time>
  <course>0.0</course>
  <speed>0.0</speed>
  <fix>3d</fix>
</trkpt>
<trkpt lat="40.0713749" lon="-105.229789">
  <ele>1583.0</ele>
  <time>2026-08-28T17:56:01Z</time>
  <course>248.23</course>
  <speed>0.01</speed>
  <fix>3d</fix>
</trkpt>
<trkpt lat="40.0713749" lon="-105.229789">
  <ele>1583.0</ele>
  <time>2026-08-28T17:56:01Z</time>
  <course>0.0</course>
  <speed>0.0</speed>
  <fix>3d</fix>
</trkpt>
<trkpt lat="40.0713749" lon="-105.229789">
  <ele>1583.0</ele>
  <time>2026-08-28T17:56:01Z</time>
  <course>248.23</course>
  <speed>0.01</speed>
  <fix>3d</fix>
</trkpt>
<trkpt lat="40.0713749" lon="-105.229789">
  <ele>1583.0</ele>
  <time>2026-08-28T17:56:01Z</time>
  <course>0.0</course>
  <speed>0.0</speed>
  <fix>3d</fix>
</trkpt>
<trkpt lat="40.0713749" lon="-105.229789">
  <ele>1583.0</ele>
  <time>2026-08-28T17:56:01Z</time>
  <course>248.22</course>
  <speed>0.01</speed>
  <fix>3d</fix>
</trkpt>
<trkpt lat="40.0713749" lon="-105.229789">
  <ele>1583.0</ele>
  <time>2026-08-28T17:56:01Z</time>
  <course>0.0</course>
  <speed>0.0</speed>
  <fix>3d</fix>
</trkpt>
<trkpt lat="40.0713749" lon="-105.229789">
  <ele>1583.0</ele>
  <time>2026-08-28T17:56:01Z</time>
  <course>248.22</course>
  <speed>0.01</speed>
  <fix>3d</fix>
</trkpt>
<trkpt lat="40.0713749" lon="-105.229789">
  <ele>1583.0</ele>
  <time>2026-08-28T17:56:01Z</time>
  <course>0.0</course>
  <speed>0.0</speed>
  <fix>3d</fix>
</trkpt>
<trkpt lat="40.0713749" lon="-105.229789">
  <ele>1583.0</ele>
  <time>2026-08-28T17:56:01Z</time>
  <course>248.21</course>
  <speed>0.01</speed>
  <fix>3d</fix>
</trkpt>
<trkpt lat="40.0713749" lon="-105.229789">
  <ele>1583.0</ele>
  <time>2026-08-28T17:56:01Z</time>
  <course>0.0</course>
  <speed>0.0</speed>
  <fix>3d</fix>
</trkpt>
<trkpt lat="40.0713749" lon="-105.229789">
  <ele>1583.0</ele>
  <time>2026-08-28T17:56:01Z</time>
  <course>248.21</course>
  <speed>0.01</speed>
  <fix>3d</fix>
</trkpt>
<trkpt lat="40.0713749" lon="-105.229789">
  <ele>1583.0</ele>
  <time>2026-08-28T17:56:01Z</time>
  <course>0.0</course>
  <speed>0.0</speed>
  <fix>3d</fix>
</trkpt>
<trkpt lat="40.0713749" lon="-105.229789">
  <ele>1583.0</ele>
  <time>2026-08-28T17:56:01Z</time>
  <course>248.2</course>
  <speed>0.01</speed>
  <fix>3d</fix>
</trkpt>
<trkpt lat="40.0713749" lon="-105.229789">
  <ele>1583.0</ele>
  <time>2026-08-28T17:56:01Z</time>
  <course>0.0</course>
  <speed>0.0</speed>
  <fix>3d</fix>
</trkpt>
<trkpt lat="40.0713749" lon="-105.229789">
  <ele>1583.0</ele>
  <time>2026-08-28T17:56:01Z</time>
  <course>248.2</course>
  <speed>0.01</speed>
  <fix>3d</fix>
</trkpt>
<trkpt lat="40.0713749" lon="-105.229789">
  <ele>1583.0</ele>
  <time>2026-08-28T17:56:01Z</time>
  <course>0.0</course>
  <speed>0.0</speed>
  <fix>3d</fix>
</trkpt>
<trkpt lat="40.0713749" lon="-105.229789">
  <ele>1583.0</ele>
  <time>2026-08-28T17:56:01Z</time>
  <course>248.19</course>
  <speed>0.01</speed>
  <fix>3d</fix>
</trkpt>
<trkpt lat="40.0713749" lon="-105.229789">
  <ele>1583.0</ele>
  <time>2026-08-28T17:56:01Z</time>
  <course>0.0</course>
  <speed>0.0</speed>
  <fix>3d</fix>
</trkpt>
<trkpt lat="40.0713749" lon="-105.229789">
  <ele>1583.0</ele>
  <time>2026-08-28T17:56:01Z</time>
  <course>248.19</course>
  <speed>0.01</speed>
  <fix>3d</fix>
</trkpt>
<trkpt lat="40.0713749" lon="-105.229789">
  <ele>1583.0</ele>
  <time>2026-08-28T17:56:01Z</time>
  <course>0.0</course>
  <speed>0.0</speed>
  <fix>3d</fix>
</trkpt>
<trkpt lat="40.0713749" lon="-105.229789">
  <ele>1583.0</ele>
  <time>2026-08-28T17:56:01Z</time>
  <course>248.18</course>
  <speed>0.01</speed>
  <fix>3d</fix>
</trkpt>
<trkpt lat="40.0713749" lon="-105.229789">
  <ele>1583.0</ele>
  <time>2026-08-28T17:56:01Z</time>
  <course>0.0</course>
  <speed>0.0</speed>
  <fix>3d</fix>
</trkpt>
<trkpt lat="40.0713749" lon="-105.229789">
  <ele>1583.0</ele>
  <time>2026-08-28T17:56:01Z</time>
  <course>248.18</course>
  <speed>0.01</speed>
  <fix>3d</fix>
</trkpt>
<trkpt lat="40.0713749" lon="-105.229789">
  <ele>1583.0</ele>
  <time>2026-08-28T17:56:01Z</time>
  <course>0.0</course>
  <speed>0.0</speed>
  <fix>3d</fix>
</trkpt>
<trkpt lat="40.0713749" lon="-105.229789">
  <ele>1583.0</ele>
  <time>2026-08-28T17:56:01Z</time>
  <course>248.17</course>
  <speed>0.022360679774997897</speed>
  <fix>3d</fix>
</trkpt>
<trkpt lat="40.0713749" lon="-105.229789">
  <ele>1583.0</ele>
  <time>2026-08-28T17:56:01Z</time>
  <course>0.0</course>
  <speed>0.0</speed>
  <fix>3d</fix>
</trkpt>
<trkpt lat="40.0713749" lon="-105.229789">
  <ele>1583.0</ele>
  <time>2026-08-28T17:56:01Z</time>
  <course>248.17</course>
  <speed>0.022360679774997897</speed>
  <fix>3d</fix>
</trkpt>
<trkpt lat="40.0713749" lon="-105.229789">
  <ele>1583.0</ele>
  <time>2026-08-28T17:56:01Z</time>
  <course>0.0</course>
  <speed>0.0</speed>
  <fix>3d</fix>
</trkpt>
<trkpt lat="40.0713749" lon="-105.229789">
  <ele>1583.0</ele>
  <time>2026-08-28T17:56:01Z</time>
  <course>248.16</course>
  <speed>0.022360679774997897</speed>
  <fix>3d</fix>
</trkpt>
<trkpt lat="40.0713749" lon="-105.229789">
  <ele>1583.0</ele>
  <time>2026-08-28T17:56:01Z</time>
  <course>0.0</course>
  <speed>0.0</speed>
  <fix>3d</fix>
</trkpt>
<trkpt lat="40.0713749" lon="-105.229789">
  <ele>1583.0</ele>
  <time>2026-08-28T17:56:01Z</time>
  <course>248.16</course>
  <speed>0.022360679774997897</speed>
  <fix>3d</fix>
</trkpt>
<trkpt lat="40.0713749" lon="-105.229789">
  <ele>1583.0</ele>
  <time>2026-08-28T17:56:01Z</time>
  <course>0.0</course>
  <speed>0.0</speed>
  <fix>3d</fix>
</trkpt>
<trkpt lat="40.0713749" lon="-105.229789">
  <ele>1583.0</ele>
  <time>2026-08-28T17:56:01Z</time>
  <course>248.15</course>
  <speed>0.022360679774997897</speed>
  <fix>3d</fix>
</trkpt>
<trkpt lat="40.0713749" lon="-105.229789">
  <ele>1583.0</ele>
  <time>2026-08-28T17:56:01Z</time>
  <course>0.0</course>
  <speed>0.0</speed>
  <fix>3d</fix>
</trkpt>
<trkpt lat="40.0713749" lon="-105.229789">
  <ele>1583.0</ele>
  <time>2026-08-28T17:56:01Z</time>
  <course>248.15</course>
  <speed>0.022360679774997897</speed>
  <fix>3d</fix>
</trkpt>
<trkpt lat="40.0713749" lon="-105.229789">
  <ele>1583.0</ele>
  <time>2026-08-28T17:56:01Z</time>
  <course>0.0</course>
  <speed>0.0</speed>
  <fix>3d</fix>
</trkpt>
<trkpt lat="40.0713749" lon="-105.229789">
  <ele>1583.0</ele>
  <time>2026-08-28T17:56:01Z</time>
  <course>248.14</course>
  <speed>0.022360679774997897</speed>
  <fix>3d</fix>
</trkpt>
<trkpt lat="40.0713749" lon="-105.229789">
  <ele>1583.0</ele>
  <time>2026-08-28T17:56:01Z</time>
  <course>0.0</course>
  <speed>0.0</speed>
  <fix>3d</fix>
</trkpt>
<trkpt lat="40.0713749" lon="-105.229789">
  <ele>1583.0</ele>
  <time>2026-08-28T17:56:01Z</time>
  <course>248.14</course>
  <speed>0.022360679774997897</speed>
  <fix>3d</fix>
</trkpt>
<trkpt lat="40.0713749" lon="-105.229789">
  <ele>1583.0</ele>
  <time>2026-08-28T17:56:01Z</time>
  <course>0.0</course>
  <speed>0.0</speed>
  <fix>3d</fix>
</trkpt>
<trkpt lat="40.0713749" lon="-105.229789">
  <ele>1583.0</ele>
  <time>2026-08-28T17:56:01Z</time>
  <course>248.13</course>
  <speed>0.022360679774997897</speed>
  <fix>3d</fix>
</trkpt>
<trkpt lat="40.0713749" lon="-105.229789">
  <ele>1583.0</ele>
  <time>2026-08-28T17:56:01Z</time>
  <course>0.0</course>
  <speed>0.0</speed>
  <fix>3d</fix>
</trkpt>
<trkpt lat="40.0713749" lon="-105.229789">
  <ele>1583.0</ele>
  <time>2026-08-28T17:56:01Z</time>
  <course>248.13</course>
  <speed>0.022360679774997897</speed>
  <fix>3d</fix>
</trkpt>
<trkpt lat="40.0713749" lon="-105.229789">
  <ele>1583.0</ele>
  <time>2026-08-28T17:56:01Z</time>
  <course>0.0</course>
  <speed>0.0</speed>
  <fix>3d</fix>
</trkpt>
<trkpt lat="40.0713749" lon="-105.229789">
  <ele>1583.0</ele>
  <time>2026-08-28T17:56:01Z</time>
  <course>248.12</course>
  <speed>0.022360679774997897</speed>
  <fix>3d</fix>
</trkpt>
<trkpt lat="40.0713749" lon="-105.229789">
  <ele>1583.0</ele>
  <time>2026-08-28T17:56:01Z</time>
  <course>0.0</course>
  <speed>0.0</speed>
  <fix>3d</fix>
</trkpt>
<trkpt lat="40.0713749" lon="-105.229789">
  <ele>1583.0</ele>
  <time>2026-08-28T17:56:01Z</time>
  <course>248.12</course>
  <speed>0.022360679774997897</speed>
  <fix>3d</fix>
</trkpt>
<trkpt lat="40.0713749" lon="-105.229789">
  <ele>1583.0</ele>
  <time>2026-08-28T17:56:01Z</time>
  <course>0.0</course>
  <speed>0.0</speed>
  <fix>3d</fix>
</trkpt>
<trkpt lat="40.0713749" lon="-105.229789">
  <ele>1583.0</ele>
  <time>2026-08-28T17:56:01Z</time>
  <course>248.11</course>
  <speed>0.022360679774997897</speed>
  <fix>3d</fix>
</trkpt>
<trkpt lat="40.0713749" lon="-105.229789">
  <ele>1583.0</ele>
  <time>2026-08-28T17:56:01Z</time>
  <course>0.0</course>
  <speed>0.0</speed>
  <fix>3d</fix>
</trkpt>
<trkpt lat="40.0713749" lon="-105.229789">
  <ele>1583.0</ele>
  <time>2026-08-28T17:56:01Z</time>
  <course>248.11</course>
  <speed>0.022360679774997897</speed>
  <fix>3d</fix>
</trkpt>
<trkpt lat="40.0713749" lon="-105.229789">
  <ele>1583.0</ele>
  <time>2026-08-28T17:56:01Z</time>
  <course>0.0</course>
  <speed>0.0</speed>
  <fix>3d</fix>
</trkpt>
<trkpt lat="40.0713749" lon="-105.229789">
  <ele>1583.0</ele>
  <time>2026-08-28T17:56:01Z</time>
  <course>248.1</course>
  <speed>0.022360679774997897</speed>
  <fix>3d</fix>
</trkpt>
<trkpt lat="40.0713749" lon="-105.229789">
  <ele>1583.0</ele>
  <time>2026-08-28T17:56:01Z</time>
  <course>0.0</course>
  <speed>0.0</speed>
  <fix>3d</fix>
</trkpt>
<trkpt lat="40.0713749" lon="-105.229789">
  <ele>1583.0</ele>
  <time>2026-08-28T17:56:01Z</time>
  <course>248.1</course>
  <speed>0.022360679774997897</speed>
  <fix>3d</fix>
</trkpt>
<trkpt lat="40.0713749" lon="-105.229789">
  <ele>1583.0</ele>
  <time>2026-08-28T17:56:01Z</time>
  <course>0.0</course>
  <speed>0.0</speed>
  <fix>3d</fix>
</trkpt>
<trkpt lat="40.0713749" lon="-105.229789">
  <ele>1583.0</ele>
  <time>2026-08-28T17:56:01Z</time>
  <course>248.09</course>
  <speed>0.022360679774997897</speed>
  <fix>3d</fix>
</trkpt>
<trkpt lat="40.0713749" lon="-105.229789">
  <ele>1583.0</ele>
  <time>2026-08-28T17:56:01Z</time>
  <course>0.0</course>
  <speed>0.0</speed>
  <fix>3d</fix>
</trkpt>
<trkpt lat="40.0713749" lon="-105.229789">
  <ele>1583.0</ele>
  <time>2026-08-28T17:56:01Z</time>
  <course>248.09</course>
  <speed>0.022360679774997897</speed>
  <fix>3d</fix>
</trkpt>
<trkpt lat="40.0713749" lon="-105.229789">
  <ele>1583.0</ele>
  <time>2026-08-28T17:56:01Z</time>
  <course>0.0</course>
  <speed>0.0</speed>
  <fix>3d</fix>
</trkpt>
<trkpt lat="40.0713749" lon="-105.229789">
  <ele>1583.0</ele>
  <time>2026-08-28T17:56:01Z</time>
  <course>248.08</course>
  <speed>0.022360679774997897</speed>
  <fix>3d</fix>
</trkpt>
<trkpt lat="40.0713749" lon="-105.229789">
  <ele>1583.0</ele>
  <time>2026-08-28T17:56:01Z</time>
  <course>0.0</course>
  <speed>0.0</speed>
  <fix>3d</fix>
</trkpt>
<trkpt lat="40.0713749" lon="-105.229789">
  <ele>1583.0</ele>
  <time>2026-08-28T17:56:01Z</time>
  <course>248.08</course>
  <speed>0.022360679774997897</speed>
  <fix>3d</fix>
</trkpt>
<trkpt lat="40.0713749" lon="-105.229789">
  <ele>1583.0</ele>
  <time>2026-08-28T17:56:01Z</time>
  <course>0.0</course>
  <speed>0.0</speed>
  <fix>3d</fix>
</trkpt>
<trkpt lat="40.0713749" lon="-105.229789">
  <ele>1583.0</ele>
  <time>2026-08-28T17:56:01Z</time>
  <course>248.07</course>
  <speed>0.022360679774997897</speed>
  <fix>3d</fix>
</trkpt>
<trkpt lat="40.0713749" lon="-105.229789">
  <ele>1583.0</ele>
  <time>2026-08-28T17:56:01Z</time>
  <course>0.0</course>
  <speed>0.0</speed>
  <fix>3d</fix>
</trkpt>
<trkpt lat="40.0713749" lon="-105.229789">
  <ele>1583.0</ele>
  <time>2026-08-28T17:56:01Z</time>
  <course>248.07</course>
  <speed>0.022360679774997897</speed>
  <fix>3d</fix>
</trkpt>
<trkpt lat="40.0713749" lon="-105.229789">
  <ele>1583.0</ele>
  <time>2026-08-28T17:56:01Z</time>
  <course>0.0</course>
  <speed>0.0</speed>
  <fix>3d</fix>
</trkpt>
<trkpt lat="40.0713749" lon="-105.229789">
  <ele>1583.0</ele>
  <time>2026-08-28T17:56:01Z</time>
  <course>248.06</course>
  <speed>0.022360679774997897</speed>
  <fix>3d</fix>
</trkpt>
<trkpt lat="40.0713749" lon="-105.229789">
  <ele>1583.0</ele>
  <time>2026-08-28T17:56:01Z</time>
  <course>0.0</course>
  <speed>0.0</speed>
  <fix>3d</fix>
</trkpt>
<trkpt lat="40.0713749" lon="-105.229789">
  <ele>1583.0</ele>
  <time>2026-08-28T17:56:01Z</time>
  <course>248.06</course>
  <speed>0.022360679774997897</speed>
  <fix>3d</fix>
</trkpt>
<trkpt lat="40.0713749" lon="-105.229789">
  <ele>1583.0</ele>
  <time>2026-08-28T17:56:01Z</time>
  <course>0.0</course>
  <speed>0.0</speed>
  <fix>3d</fix>
</trkpt>
<trkpt lat="40.0713749" lon="-105.229789">
  <ele>1583.0</ele>
  <time>2026-08-28T17:56:01Z</time>
  <course>248.05</course>
  <speed>0.022360679774997897</speed>
  <fix>3d</fix>
</trkpt>
<trkpt lat="40.0713749" lon="-105.229789">
  <ele>1583.0</ele>
  <time>2026-08-28T17:56:01Z</time>
  <course>0.0</course>
  <speed>0.0</speed>
  <fix>3d</fix>
</trkpt>
<trkpt lat="40.0713749" lon="-105.229789">
  <ele>1583.0</ele>
  <time>2026-08-28T17:56:01Z</time>
  <course>248.05</course>
  <speed>0.022360679774997897</speed>
  <fix>3d</fix>
</trkpt>
<trkpt lat="40.0713749" lon="-105.229789">
  <ele>1583.0</ele>
  <time>2026-08-28T17:56:01Z</time>
  <course>0.0</course>
  <speed>0.0</speed>
  <fix>3d</fix>
</trkpt>
<trkpt lat="40.0713749" lon="-105.229789">
  <ele>1583.0</ele>
  <time>2026-08-28T17:56:01Z</time>
  <course>248.05</course>
  <speed>0.022360679774997897</speed>
  <fix>3d</fix>
</trkpt>
<trkpt lat="40.0713749" lon="-105.229789">
  <ele>1583.0</ele>
  <time>2026-08-28T17:56:01Z</time>
  <course>0.0</course>
  <speed>0.0</speed>
  <fix>3d</fix>
</trkpt>
<trkpt lat="40.0713749" lon="-105.229789">
  <ele>1583.0</ele>
  <time>2026-08-28T17:56:01Z</time>
  <course>248.04</course>
  <speed>0.022360679774997897</speed>
  <fix>3d</fix>
</trkpt>
<trkpt lat="40.0713749" lon="-105.229789">
  <ele>1583.0</ele>
  <time>2026-08-28T17:56:01Z</time>
  <course>0.0</course>
  <speed>0.0</speed>
  <fix>3d</fix>
</trkpt>
<trkpt lat="40.0713749" lon="-105.229789">
  <ele>1583.0</ele>
  <time>2026-08-28T17:56:01Z</time>
  <course>248.04</course>
  <speed>0.022360679774997897</speed>
  <fix>3d</fix>
</trkpt>
<trkpt lat="40.0713749" lon="-105.229789">
  <ele>1583.0</ele>
  <time>2026-08-28T17:56:01Z</time>
  <course>0.0</course>
  <speed>0.0</speed>
  <fix>3d</fix>
</trkpt>
<trkpt lat="40.0713749" lon="-105.229789">
  <ele>1583.0</ele>
  <time>2026-08-28T17:56:01Z</time>
  <course>248.03</course>
  <speed>0.022360679774997897</speed>
  <fix>3d</fix>
</trkpt>
<trkpt lat="40.0713749" lon="-105.229789">
  <ele>1583.0</ele>
  <time>2026-08-28T17:56:01Z</time>
  <course>0.0</course>
  <speed>0.0</speed>
  <fix>3d</fix>
</trkpt>
<trkpt lat="40.0713749" lon="-105.229789">
  <ele>1583.0</ele>
  <time>2026-08-28T17:56:01Z</time>
  <course>248.03</course>
  <speed>0.022360679774997897</speed>
  <fix>3d</fix>
</trkpt>
<trkpt lat="40.0713749" lon="-105.229789">
  <ele>1583.0</ele>
  <time>2026-08-28T17:56:01Z</time>
  <course>0.0</course>
  <speed>0.0</speed>
  <fix>3d</fix>
</trkpt>
<trkpt lat="40.0713749" lon="-105.229789">
  <ele>1583.0</ele>
  <time>2026-08-28T17:56:01Z</time>
  <course>248.02</course>
  <speed>0.022360679774997897</speed>
  <fix>3d</fix>
</trkpt>
<trkpt lat="40.0713749" lon="-105.229789">
  <ele>1583.0</ele>
  <time>2026-08-28T17:56:01Z</time>
  <course>0.0</course>
  <speed>0.0</speed>
  <fix>3d</fix>
</trkpt>
<trkpt lat="40.0713749" lon="-105.229789">
  <ele>1583.0</ele>
  <time>2026-08-28T17:56:01Z</time>
  <course>248.02</course>
  <speed>0.022360679774997897</speed>
  <fix>3d</fix>
</trkpt>
<trkpt lat="40.0713749" lon="-105.229789">
  <ele>1583.0</ele>
  <time>2026-08-28T17:56:01Z</time>
  <course>0.0</course>
  <speed>0.0</speed>
  <fix>3d</fix>
</trkpt>
<trkpt lat="40.0713749" lon="-105.229789">
  <ele>1583.0</ele>
  <time>2026-08-28T17:56:01Z</time>
  <course>248.01</course>
  <speed>0.022360679774997897</speed>
  <fix>3d</fix>
</trkpt>
<trkpt lat="40.0713749" lon="-105.229789">
  <ele>1583.0</ele>
  <time>2026-08-28T17:56:01Z</time>
  <course>0.0</course>
  <speed>0.0</speed>
  <fix>3d</fix>
</trkpt>
<trkpt lat="40.0713749" lon="-105.229789">
  <ele>1583.0</ele>
  <time>2026-08-28T17:56:01Z</time>
  <course>248.01</course>
  <speed>0.022360679774997897</speed>
  <fix>3d</fix>
</trkpt>
<trkpt lat="40.0713749" lon="-105.229789">
  <ele>1583.0</ele>
  <time>2026-08-28T17:56:01Z</time>
  <course>0.0</course>
  <speed>0.0</speed>
  <fix>3d</fix>
</trkpt>
<trkpt lat="40.0713749" lon="-105.229789">
  <ele>1583.0</ele>
  <time>2026-08-28T17:56:01Z</time>
  <course>248.0</course>
  <speed>0.022360679774997897</speed>
  <fix>3d</fix>
</trkpt>
<trkpt lat="40.0713749" lon="-105.229789">
  <ele>1583.0</ele>
  <time>2026-08-28T17:56:01Z</time>
  <course>0.0</course>
  <speed>0.0</speed>
  <fix>3d</fix>
</trkpt>
<trkpt lat="40.0713749" lon="-105.229789">
  <ele>1583.0</ele>
  <time>2026-08-28T17:56:01Z</time>
  <course>248.0</course>
  <speed>0.022360679774997897</speed>
  <fix>3d</fix>
</trkpt>
<trkpt lat="40.0713749" lon="-105.229789">
  <ele>1583.0</ele>
  <time>2026-08-28T17:56:01Z</time>
  <course>0.0</course>
  <speed>0.0</speed>
  <fix>3d</fix>
</trkpt>
<trkpt lat="40.0713749" lon="-105.229789">
  <ele>1583.0</ele>
  <time>2026-08-28T17:56:01Z</time>
  <course>247.99</course>
  <speed>0.022360679774997897</speed>
  <fix>3d</fix>
</trkpt>
<trkpt lat="40.0713749" lon="-105.229789">
  <ele>1583.0</ele>
  <time>2026-08-28T17:56:01Z</time>
  <course>0.0</course>
  <speed>0.0</speed>
  <fix>3d</fix>
</trkpt>
<trkpt lat="40.0713749" lon="-105.229789">
  <ele>1583.0</ele>
  <time>2026-08-28T17:56:01Z</time>
  <course>247.99</course>
  <speed>0.022360679774997897</speed>
  <fix>3d</fix>
</trkpt>
<trkpt lat="40.0713749" lon="-105.229789">
  <ele>1583.0</ele>
  <time>2026-08-28T17:56:01Z</time>
  <course>0.0</course>
  <speed>0.0</speed>
  <fix>3d</fix>
</trkpt>
<trkpt lat="40.0713749" lon="-105.229789">
  <ele>1583.0</ele>
  <time>2026-08-28T17:56:01Z</time>
  <course>247.99</course>
  <speed>0.022360679774997897</speed>
  <fix>3d</fix>
</trkpt>
<trkpt lat="40.0713749" lon="-105.229789">
  <ele>1583.0</ele>
  <time>2026-08-28T17:56:01Z</time>
  <course>0.0</course>
  <speed>0.0</speed>
  <fix>3d</fix>
</trkpt>
<trkpt lat="40.0713749" lon="-105.229789">
  <ele>1583.0</ele>
  <time>2026-08-28T17:56:01Z</time>
  <course>247.98</course>
  <speed>0.022360679774997897</speed>
  <fix>3d</fix>
</trkpt>
<trkpt lat="40.0713749" lon="-105.229789">
  <ele>1583.0</ele>
  <time>2026-08-28T17:56:01Z</time>
  <course>0.0</course>
  <speed>0.0</speed>
  <fix>3d</fix>
</trkpt>
<trkpt lat="40.0713749" lon="-105.229789">
  <ele>1583.0</ele>
  <time>2026-08-28T17:56:01Z</time>
  <course>247.98</course>
  <speed>0.022360679774997897</speed>
  <fix>3d</fix>
</trkpt>
<trkpt lat="40.0713749" lon="-105.229789">
  <ele>1583.0</ele>
  <time>2026-08-28T17:56:01Z</time>
  <course>0.0</course>
  <speed>0.0</speed>
  <fix>3d</fix>
</trkpt>
<trkpt lat="40.0713749" lon="-105.229789">
  <ele>1583.0</ele>
  <time>2026-08-28T17:56:01Z</time>
  <course>247.97</course>
  <speed>0.022360679774997897</speed>
  <fix>3d</fix>
</trkpt>
<trkpt lat="40.0713749" lon="-105.229789">
  <ele>1583.0</ele>
  <time>2026-08-28T17:56:01Z</time>
  <course>0.0</course>
  <speed>0.0</speed>
  <fix>3d</fix>
</trkpt>
<trkpt lat="40.0713749" lon="-105.229789">
  <ele>1583.0</ele>
  <time>2026-08-28T17:56:01Z</time>
  <course>247.97</course>
  <speed>0.022360679774997897</speed>
  <fix>3d</fix>
</trkpt>
<trkpt lat="40.0713749" lon="-105.229789">
  <ele>1583.0</ele>
  <time>2026-08-28T17:56:01Z</time>
  <course>0.0</course>
  <speed>0.0</speed>
  <fix>3d</fix>
</trkpt>
<trkpt lat="40.0713749" lon="-105.229789">
  <ele>1583.0</ele>
  <time>2026-08-28T17:56:01Z</time>
  <course>247.96</course>
  <speed>0.022360679774997897</speed>
  <fix>3d</fix>
</trkpt>
<trkpt lat="40.0713749" lon="-105.229789">
  <ele>1583.0</ele>
  <time>2026-08-28T17:56:01Z</time>
  <course>0.0</course>
  <speed>0.0</speed>
  <fix>3d</fix>
</trkpt>
<trkpt lat="40.0713749" lon="-105.229789">
  <ele>1583.0</ele>
  <time>2026-08-28T17:56:01Z</time>
  <course>247.96</course>
  <speed>0.022360679774997897</speed>
  <fix>3d</fix>
</trkpt>
<trkpt lat="40.0713749" lon="-105.229789">
  <ele>1583.0</ele>
  <time>2026-08-28T17:56:01Z</time>
  <course>0.0</course>
  <speed>0.0</speed>
  <fix>3d</fix>
</trkpt>
<trkpt lat="40.0713749" lon="-105.229789">
  <ele>1583.0</ele>
  <time>2026-08-28T17:56:01Z</time>
  <course>247.95</course>
  <speed>0.022360679774997897</speed>
  <fix>3d</fix>
</trkpt>
<trkpt lat="40.0713749" lon="-105.229789">
  <ele>1583.0</ele>
  <time>2026-08-28T17:56:01Z</time>
  <course>0.0</course>
  <speed>0.0</speed>
  <fix>3d</fix>
</trkpt>
<trkpt lat="40.0713749" lon="-105.229789">
  <ele>1583.0</ele>
  <time>2026-08-28T17:56:01Z</time>
  <course>247.95</course>
  <speed>0.022360679774997897</speed>
  <fix>3d</fix>
</trkpt>
<trkpt lat="40.0713749" lon="-105.229789">
  <ele>1583.0</ele>
  <time>2026-08-28T17:56:01Z</time>
  <course>0.0</course>
  <speed>0.0</speed>
  <fix>3d</fix>
</trkpt>
<trkpt lat="40.0713749" lon="-105.229789">
  <ele>1583.0</ele>
  <time>2026-08-28T17:56:01Z</time>
  <course>247.95</course>
  <speed>0.022360679774997897</speed>
  <fix>3d</fix>
</trkpt>
<trkpt lat="40.0713749" lon="-105.229789">
  <ele>1583.0</ele>
  <time>2026-08-28T17:56:01Z</time>
  <course>0.0</course>
  <speed>0.0</speed>
  <fix>3d</fix>
</trkpt>
<trkpt lat="40.0713749" lon="-105.229789">
  <ele>1583.0</ele>
  <time>2026-08-28T17:56:01Z</time>
  <course>247.94</course>
  <speed>0.022360679774997897</speed>
  <fix>3d</fix>
</trkpt>
<trkpt lat="40.0713749" lon="-105.229789">
  <ele>1583.0</ele>
  <time>2026-08-28T17:56:01Z</time>
  <course>0.0</course>
  <speed>0.0</speed>
  <fix>3d</fix>
</trkpt>
<trkpt lat="40.0713749" lon="-105.229789">
  <ele>1583.0</ele>
  <time>2026-08-28T17:56:01Z</time>
  <course>247.94</course>
  <speed>0.022360679774997897</speed>
  <fix>3d</fix>
</trkpt>
<trkpt lat="40.0713749" lon="-105.229789">
  <ele>1583.0</ele>
  <time>2026-08-28T17:56:01Z</time>
  <course>0.0</course>
  <speed>0.0</speed>
  <fix>3d</fix>
</trkpt>
<trkpt lat="40.0713749" lon="-105.229789">
  <ele>1583.0</ele>
  <time>2026-08-28T17:56:01Z</time>
  <course>247.93</course>
  <speed>0.022360679774997897</speed>
  <fix>3d</fix>
</trkpt>
<trkpt lat="40.0713749" lon="-105.229789">
  <ele>1583.0</ele>
  <time>2026-08-28T17:56:01Z</time>
  <course>0.0</course>
  <speed>0.0</speed>
  <fix>3d</fix>
</trkpt>
<trkpt lat="40.0713749" lon="-105.229789">
  <ele>1583.0</ele>
  <time>2026-08-28T17:56:01Z</time>
  <course>247.93</course>
  <speed>0.022360679774997897</speed>
  <fix>3d</fix>
</trkpt>
<trkpt lat="40.0713749" lon="-105.229789">
  <ele>1583.0</ele>
  <time>2026-08-28T17:56:01Z</time>
  <course>0.0</course>
  <speed>0.0</speed>
  <fix>3d</fix>
</trkpt>
<trkpt lat="40.0713749" lon="-105.229789">
  <ele>1583.0</ele>
  <time>2026-08-28T17:56:01Z</time>
  <course>247.92</course>
  <speed>0.022360679774997897</speed>
  <fix>3d</fix>
</trkpt>
<trkpt lat="40.0713749" lon="-105.229789">
  <ele>1583.0</ele>
  <time>2026-08-28T17:56:01Z</time>
  <course>0.0</course>
  <speed>0.0</speed>
  <fix>3d</fix>
</trkpt>
<trkpt lat="40.0713749" lon="-105.229789">
  <ele>1583.0</ele>
  <time>2026-08-28T17:56:01Z</time>
  <course>247.92</course>
  <speed>0.022360679774997897</speed>
  <fix>3d</fix>
</trkpt>
<trkpt lat="40.0713749" lon="-105.229789">
  <ele>1583.0</ele>
  <time>2026-08-28T17:56:01Z</time>
  <course>0.0</course>
  <speed>0.0</speed>
  <fix>3d</fix>
</trkpt>
<trkpt lat="40.0713749" lon="-105.229789">
  <ele>1583.0</ele>
  <time>2026-08-28T17:56:01Z</time>
  <course>247.92</course>
  <speed>0.022360679774997897</speed>
  <fix>3d</fix>
</trkpt>
<trkpt lat="40.0713749" lon="-105.229789">
  <ele>1583.0</ele>
  <time>2026-08-28T17:56:01Z</time>
  <course>0.0</course>
  <speed>0.0</speed>
  <fix>3d</fix>
</trkpt>
<trkpt lat="40.0713749" lon="-105.229789">
  <ele>1583.0</ele>
  <time>2026-08-28T17:56:01Z</time>
  <course>247.91</course>
  <speed>0.022360679774997897</speed>
  <fix>3d</fix>
</trkpt>
<trkpt lat="40.0713749" lon="-105.229789">
  <ele>1583.0</ele>
  <time>2026-08-28T17:56:01Z</time>
  <course>0.0</course>
  <speed>0.0</speed>
  <fix>3d</fix>
</trkpt>
<trkpt lat="40.0713749" lon="-105.229789">
  <ele>1583.0</ele>
  <time>2026-08-28T17:56:01Z</time>
  <course>247.91</course>
  <speed>0.022360679774997897</speed>
  <fix>3d</fix>
</trkpt>
<trkpt lat="40.0713749" lon="-105.229789">
  <ele>1583.0</ele>
  <time>2026-08-28T17:56:01Z</time>
  <course>0.0</course>
  <speed>0.0</speed>
  <fix>3d</fix>
</trkpt>
<trkpt lat="40.0713749" lon="-105.229789">
  <ele>1583.0</ele>
  <time>2026-08-28T17:56:01Z</time>
  <course>247.9</course>
  <speed>0.022360679774997897</speed>
  <fix>3d</fix>
</trkpt>
<trkpt lat="40.0713749" lon="-105.229789">
  <ele>1583.0</ele>
  <time>2026-08-28T17:56:01Z</time>
  <course>0.0</course>
  <speed>0.0</speed>
  <fix>3d</fix>
</trkpt>
<trkpt lat="40.0713749" lon="-105.229789">
  <ele>1583.0</ele>
  <time>2026-08-28T17:56:01Z</time>
  <course>247.9</course>
  <speed>0.022360679774997897</speed>
  <fix>3d</fix>
</trkpt>
<trkpt lat="40.0713749" lon="-105.229789">
  <ele>1583.0</ele>
  <time>2026-08-28T17:56:01Z</time>
  <course>0.0</course>
  <speed>0.0</speed>
  <fix>3d</fix>
</trkpt>
<trkpt lat="40.0713749" lon="-105.229789">
  <ele>1583.0</ele>
  <time>2026-08-28T17:56:01Z</time>
  <course>247.89</course>
  <speed>0.022360679774997897</speed>
  <fix>3d</fix>
</trkpt>
<trkpt lat="40.0713749" lon="-105.229789">
  <ele>1583.0</ele>
  <time>2026-08-28T17:56:01Z</time>
  <course>0.0</course>
  <speed>0.0</speed>
  <fix>3d</fix>
</trkpt>
<trkpt lat="40.0713749" lon="-105.229789">
  <ele>1583.0</ele>
  <time>2026-08-28T17:56:01Z</time>
  <course>247.89</course>
  <speed>0.022360679774997897</speed>
  <fix>3d</fix>
</trkpt>
<trkpt lat="40.0713749" lon="-105.229789">
  <ele>1583.0</ele>
  <time>2026-08-28T17:56:01Z</time>
  <course>0.0</course>
  <speed>0.0</speed>
  <fix>3d</fix>
</trkpt>
<trkpt lat="40.0713749" lon="-105.229789">
  <ele>1583.0</ele>
  <time>2026-08-28T17:56:01Z</time>
  <course>247.89</course>
  <speed>0.022360679774997897</speed>
  <fix>3d</fix>
</trkpt>
<trkpt lat="40.0713749" lon="-105.229789">
  <ele>1583.0</ele>
  <time>2026-08-28T17:56:01Z</time>
  <course>0.0</course>
  <speed>0.0</speed>
  <fix>3d</fix>
</trkpt>
<trkpt lat="40.0713749" lon="-105.229789">
  <ele>1583.0</ele>
  <time>2026-08-28T17:56:01Z</time>
  <course>247.88</course>
  <speed>0.0316227766016838</speed>
  <fix>3d</fix>
</trkpt>
<trkpt lat="40.0713749" lon="-105.229789">
  <ele>1583.0</ele>
  <time>2026-08-28T17:56:01Z</time>
  <course>0.0</course>
  <speed>0.0</speed>
  <fix>3d</fix>
</trkpt>
<trkpt lat="40.0713749" lon="-105.229789">
  <ele>1583.0</ele>
  <time>2026-08-28T17:56:01Z</time>
  <course>247.88</course>
  <speed>0.0316227766016838</speed>
  <fix>3d</fix>
</trkpt>
<trkpt lat="40.0713749" lon="-105.229789">
  <ele>1583.0</ele>
  <time>2026-08-28T17:56:01Z</time>
  <course>0.0</course>
  <speed>0.0</speed>
  <fix>3d</fix>
</trkpt>
<trkpt lat="40.0713749" lon="-105.229789">
  <ele>1583.0</ele>
  <time>2026-08-28T17:56:01Z</time>
  <course>247.87</course>
  <speed>0.0316227766016838</speed>
  <fix>3d</fix>
</trkpt>
<trkpt lat="40.0713749" lon="-105.229789">
  <ele>1583.0</ele>
  <time>2026-08-28T17:56:01Z</time>
  <course>0.0</course>
  <speed>0.0</speed>
  <fix>3d</fix>
</trkpt>
<trkpt lat="40.0713749" lon="-105.229789">
  <ele>1583.0</ele>
  <time>2026-08-28T17:56:01Z</time>
  <course>247.87</course>
  <speed>0.0316227766016838</speed>
  <fix>3d</fix>
</trkpt>
<trkpt lat="40.0713749" lon="-105.229789">
  <ele>1583.0</ele>
  <time>2026-08-28T17:56:01Z</time>
  <course>0.0</course>
  <speed>0.0</speed>
  <fix>3d</fix>
</trkpt>
<trkpt lat="40.0713749" lon="-105.229789">
  <ele>1583.0</ele>
  <time>2026-08-28T17:56:01Z</time>
  <course>247.87</course>
  <speed>0.0316227766016838</speed>
  <fix>3d</fix>
</trkpt>
<trkpt lat="40.0713749" lon="-105.229789">
  <ele>1583.0</ele>
  <time>2026-08-28T17:56:01Z</time>
  <course>0.0</course>
  <speed>0.0</speed>
  <fix>3d</fix>
</trkpt>
<trkpt lat="40.0713749" lon="-105.229789">
  <ele>1583.0</ele>
  <time>2026-08-28T17:56:01Z</time>
  <course>247.86</course>
  <speed>0.0316227766016838</speed>
  <fix>3d</fix>
</trkpt>
<trkpt lat="40.0713749" lon="-105.229789">
  <ele>1583.0</ele>
  <time>2026-08-28T17:56:01Z</time>
  <course>0.0</course>
  <speed>0.0</speed>
  <fix>3d</fix>
</trkpt>
<trkpt lat="40.0713749" lon="-105.229789">
  <ele>1583.0</ele>
  <time>2026-08-28T17:56:01Z</time>
  <course>247.86</course>
  <speed>0.0316227766016838</speed>
  <fix>3d</fix>
</trkpt>
<trkpt lat="40.0713749" lon="-105.229789">
  <ele>1583.0</ele>
  <time>2026-08-28T17:56:01Z</time>
  <course>0.0</course>
  <speed>0.0</speed>
  <fix>3d</fix>
</trkpt>
<trkpt lat="40.0713749" lon="-105.229789">
  <ele>1583.0</ele>
  <time>2026-08-28T17:56:01Z</time>
  <course>247.85</course>
  <speed>0.0316227766016838</speed>
  <fix>3d</fix>
</trkpt>
<trkpt lat="40.0713749" lon="-105.229789">
  <ele>1583.0</ele>
  <time>2026-08-28T17:56:01Z</time>
  <course>0.0</course>
  <speed>0.0</speed>
  <fix>3d</fix>
</trkpt>
<trkpt lat="40.0713749" lon="-105.229789">
  <ele>1583.0</ele>
  <time>2026-08-28T17:56:01Z</time>
  <course>247.85</course>
  <speed>0.0316227766016838</speed>
  <fix>3d</fix>
</trkpt>
<trkpt lat="40.0713749" lon="-105.229789">
  <ele>1583.0</ele>
  <time>2026-08-28T17:56:01Z</time>
  <course>0.0</course>
  <speed>0.0</speed>
  <fix>3d</fix>
</trkpt>
<trkpt lat="40.0713749" lon="-105.229789">
  <ele>1583.0</ele>
  <time>2026-08-28T17:56:01Z</time>
  <course>247.85</course>
  <speed>0.0316227766016838</speed>
  <fix>3d</fix>
</trkpt>
<trkpt lat="40.0713749" lon="-105.229789">
  <ele>1583.0</ele>
  <time>2026-08-28T17:56:01Z</time>
  <course>0.0</course>
  <speed>0.0</speed>
  <fix>3d</fix>
</trkpt>
<trkpt lat="40.0713749" lon="-105.229789">
  <ele>1583.0</ele>
  <time>2026-08-28T17:56:01Z</time>
  <course>247.84</course>
  <speed>0.0316227766016838</speed>
  <fix>3d</fix>
</trkpt>
<trkpt lat="40.0713749" lon="-105.229789">
  <ele>1583.0</ele>
  <time>2026-08-28T17:56:01Z</time>
  <course>0.0</course>
  <speed>0.0</speed>
  <fix>3d</fix>
</trkpt>
<trkpt lat="40.0713749" lon="-105.229789">
  <ele>1583.0</ele>
  <time>2026-08-28T17:56:01Z</time>
  <course>247.84</course>
  <speed>0.0316227766016838</speed>
  <fix>3d</fix>
</trkpt>
<trkpt lat="40.0713749" lon="-105.229789">
  <ele>1583.0</ele>
  <time>2026-08-28T17:56:01Z</time>
  <course>0.0</course>
  <speed>0.0</speed>
  <fix>3d</fix>
</trkpt>
<trkpt lat="40.0713749" lon="-105.229789">
  <ele>1583.0</ele>
  <time>2026-08-28T17:56:01Z</time>
  <course>247.83</course>
  <speed>0.0316227766016838</speed>
  <fix>3d</fix>
</trkpt>
<trkpt lat="40.0713749" lon="-105.229789">
  <ele>1583.0</ele>
  <time>2026-08-28T17:56:01Z</time>
  <course>0.0</course>
  <speed>0.0</speed>
  <fix>3d</fix>
</trkpt>
<trkpt lat="40.0713749" lon="-105.229789">
  <ele>1583.0</ele>
  <time>2026-08-28T17:56:01Z</time>
  <course>247.83</course>
  <speed>0.0316227766016838</speed>
  <fix>3d</fix>
</trkpt>
<trkpt lat="40.0713749" lon="-105.229789">
  <ele>1583.0</ele>
  <time>2026-08-28T17:56:01Z</time>
  <course>0.0</course>
  <speed>0.0</speed>
  <fix>3d</fix>
</trkpt>
<trkpt lat="40.0713749" lon="-105.229789">
  <ele>1583.0</ele>
  <time>2026-08-28T17:56:01Z</time>
  <course>247.83</course>
  <speed>0.0316227766016838</speed>
  <fix>3d</fix>
</trkpt>
<trkpt lat="40.0713749" lon="-105.229789">
  <ele>1583.0</ele>
  <time>2026-08-28T17:56:01Z</time>
  <course>0.0</course>
  <speed>0.0</speed>
  <fix>3d</fix>
</trkpt>
<trkpt lat="40.0713749" lon="-105.229789">
  <ele>1583.0</ele>
  <time>2026-08-28T17:56:01Z</time>
  <course>247.82</course>
  <speed>0.0316227766016838</speed>
  <fix>3d</fix>
</trkpt>
<trkpt lat="40.0713749" lon="-105.229789">
  <ele>1583.0</ele>
  <time>2026-08-28T17:56:01Z</time>
  <course>0.0</course>
  <speed>0.0</speed>
  <fix>3d</fix>
</trkpt>
<trkpt lat="40.0713749" lon="-105.229789">
  <ele>1583.0</ele>
  <time>2026-08-28T17:56:01Z</time>
  <course>247.82</course>
  <speed>0.0316227766016838</speed>
  <fix>3d</fix>
</trkpt>
<trkpt lat="40.0713749" lon="-105.229789">
  <ele>1583.0</ele>
  <time>2026-08-28T17:56:01Z</time>
  <course>0.0</course>
  <speed>0.0</speed>
  <fix>3d</fix>
</trkpt>
<trkpt lat="40.0713749" lon="-105.229789">
  <ele>1583.0</ele>
  <time>2026-08-28T17:56:01Z</time>
  <course>247.82</course>
  <speed>0.0316227766016838</speed>
  <fix>3d</fix>
</trkpt>
<trkpt lat="40.0713749" lon="-105.229789">
  <ele>1583.0</ele>
  <time>2026-08-28T17:56:01Z</time>
  <course>0.0</course>
  <speed>0.0</speed>
  <fix>3d</fix>
</trkpt>
<trkpt lat="40.0713749" lon="-105.229789">
  <ele>1583.0</ele>
  <time>2026-08-28T17:56:01Z</time>
  <course>247.81</course>
  <speed>0.0316227766016838</speed>
  <fix>3d</fix>
</trkpt>
<trkpt lat="40.0713749" lon="-105.229789">
  <ele>1583.0</ele>
  <time>2026-08-28T17:56:01Z</time>
  <course>0.0</course>
  <speed>0.0</speed>
  <fix>3d</fix>
</trkpt>
<trkpt lat="40.0713749" lon="-105.229789">
  <ele>1583.0</ele>
  <time>2026-08-28T17:56:01Z</time>
  <course>247.81</course>
  <speed>0.0316227766016838</speed>
  <fix>3d</fix>
</trkpt>
<trkpt lat="40.0713749" lon="-105.229789">
  <ele>1583.0</ele>
  <time>2026-08-28T17:56:01Z</time>
  <course>0.0</course>
  <speed>0.0</speed>
  <fix>3d</fix>
</trkpt>
<trkpt lat="40.0713749" lon="-105.229789">
  <ele>1583.0</ele>
  <time>2026-08-28T17:56:01Z</time>
  <course>247.8</course>
  <speed>0.0316227766016838</speed>
  <fix>3d</fix>
</trkpt>
<trkpt lat="40.0713749" lon="-105.229789">
  <ele>1583.0</ele>
  <time>2026-08-28T17:56:01Z</time>
  <course>0.0</course>
  <speed>0.0</speed>
  <fix>3d</fix>
</trkpt>
<trkpt lat="40.0713749" lon="-105.229789">
  <ele>1583.0</ele>
  <time>2026-08-28T17:56:01Z</time>
  <course>247.8</course>
  <speed>0.0316227766016838</speed>
  <fix>3d</fix>
</trkpt>
<trkpt lat="40.0713749" lon="-105.229789">
  <ele>1583.0</ele>
  <time>2026-08-28T17:56:01Z</time>
  <course>0.0</course>
  <speed>0.0</speed>
  <fix>3d</fix>
</trkpt>
<trkpt lat="40.0713749" lon="-105.229789">
  <ele>1583.0</ele>
  <time>2026-08-28T17:56:01Z</time>
  <course>247.8</course>
  <speed>0.0316227766016838</speed>
  <fix>3d</fix>
</trkpt>
<trkpt lat="40.0713749" lon="-105.229789">
  <ele>1583.0</ele>
  <time>2026-08-28T17:56:01Z</time>
  <course>0.0</course>
  <speed>0.0</speed>
  <fix>3d</fix>
</trkpt>
<trkpt lat="40.0713749" lon="-105.229789">
  <ele>1583.0</ele>
  <time>2026-08-28T17:56:01Z</time>
  <course>247.79</course>
  <speed>0.0316227766016838</speed>
  <fix>3d</fix>
</trkpt>
<trkpt lat="40.0713749" lon="-105.229789">
  <ele>1583.0</ele>
  <time>2026-08-28T17:56:01Z</time>
  <course>0.0</course>
  <speed>0.0</speed>
  <fix>3d</fix>
</trkpt>
<trkpt lat="40.0713749" lon="-105.229789">
  <ele>1583.0</ele>
  <time>2026-08-28T17:56:01Z</time>
  <course>247.79</course>
  <speed>0.0316227766016838</speed>
  <fix>3d</fix>
</trkpt>
<trkpt lat="40.0713749" lon="-105.229789">
  <ele>1583.0</ele>
  <time>2026-08-28T17:56:01Z</time>
  <course>0.0</course>
  <speed>0.0</speed>
  <fix>3d</fix>
</trkpt>
<trkpt lat="40.0713749" lon="-105.229789">
  <ele>1583.0</ele>
  <time>2026-08-28T17:56:01Z</time>
  <course>247.79</course>
  <speed>0.0316227766016838</speed>
  <fix>3d</fix>
</trkpt>
<trkpt lat="40.0713749" lon="-105.229789">
  <ele>1583.0</ele>
  <time>2026-08-28T17:56:01Z</time>
  <course>0.0</course>
  <speed>0.0</speed>
  <fix>3d</fix>
</trkpt>
<trkpt lat="40.0713749" lon="-105.229789">
  <ele>1583.0</ele>
  <time>2026-08-28T17:56:01Z</time>
  <course>247.78</course>
  <speed>0.0316227766016838</speed>
  <fix>3d</fix>
</trkpt>
<trkpt lat="40.0713749" lon="-105.229789">
  <ele>1583.0</ele>
  <time>2026-08-28T17:56:01Z</time>
  <course>0.0</course>
  <speed>0.0</speed>
  <fix>3d</fix>
</trkpt>
<trkpt lat="40.0713749" lon="-105.229789">
  <ele>1583.0</ele>
  <time>2026-08-28T17:56:01Z</time>
  <course>247.78</course>
  <speed>0.0316227766016838</speed>
  <fix>3d</fix>
</trkpt>
<trkpt lat="40.0713749" lon="-105.229789">
  <ele>1583.0</ele>
  <time>2026-08-28T17:56:01Z</time>
  <course>0.0</course>
  <speed>0.0</speed>
  <fix>3d</fix>
</trkpt>
<trkpt lat="40.0713749" lon="-105.229789">
  <ele>1583.0</ele>
  <time>2026-08-28T17:56:01Z</time>
  <course>247.78</course>
  <speed>0.0316227766016838</speed>
  <fix>3d</fix>
</trkpt>
<trkpt lat="40.0713749" lon="-105.229789">
  <ele>1583.0</ele>
  <time>2026-08-28T17:56:01Z</time>
  <course>0.0</course>
  <speed>0.0</speed>
  <fix>3d</fix>
</trkpt>
<trkpt lat="40.0713749" lon="-105.229789">
  <ele>1583.0</ele>
  <time>2026-08-28T17:56:01Z</time>
  <course>247.77</course>
  <speed>0.0316227766016838</speed>
  <fix>3d</fix>
</trkpt>
<trkpt lat="40.0713749" lon="-105.229789">
  <ele>1583.0</ele>
  <time>2026-08-28T17:56:01Z</time>
  <course>0.0</course>
  <speed>0.0</speed>
  <fix>3d</fix>
</trkpt>
<trkpt lat="40.0713749" lon="-105.229789">
  <ele>1583.0</ele>
  <time>2026-08-28T17:56:01Z</time>
  <course>247.77</course>
  <speed>0.0316227766016838</speed>
  <fix>3d</fix>
</trkpt>
<trkpt lat="40.0713749" lon="-105.229789">
  <ele>1583.0</ele>
  <time>2026-08-28T17:56:01Z</time>
  <course>0.0</course>
  <speed>0.0</speed>
  <fix>3d</fix>
</trkpt>
<trkpt lat="40.0713749" lon="-105.229789">
  <ele>1583.0</ele>
  <time>2026-08-28T17:56:01Z</time>
  <course>247.76</course>
  <speed>0.0316227766016838</speed>
  <fix>3d</fix>
</trkpt>
<trkpt lat="40.0713749" lon="-105.229789">
  <ele>1583.0</ele>
  <time>2026-08-28T17:56:01Z</time>
  <course>0.0</course>
  <speed>0.0</speed>
  <fix>3d</fix>
</trkpt>
<trkpt lat="40.0713749" lon="-105.229789">
  <ele>1583.0</ele>
  <time>2026-08-28T17:56:01Z</time>
  <course>247.76</course>
  <speed>0.0316227766016838</speed>
  <fix>3d</fix>
</trkpt>
<trkpt lat="40.0713749" lon="-105.229789">
  <ele>1583.0</ele>
  <time>2026-08-28T17:56:01Z</time>
  <course>0.0</course>
  <speed>0.0</speed>
  <fix>3d</fix>
</trkpt>
<trkpt lat="40.0713749" lon="-105.229789">
  <ele>1583.0</ele>
  <time>2026-08-28T17:56:01Z</time>
  <course>247.76</course>
  <speed>0.0316227766016838</speed>
  <fix>3d</fix>
</trkpt>
<trkpt lat="40.0713749" lon="-105.229789">
  <ele>1583.0</ele>
  <time>2026-08-28T17:56:01Z</time>
  <course>0.0</course>
  <speed>0.0</speed>
  <fix>3d</fix>
</trkpt>
<trkpt lat="40.0713749" lon="-105.229789">
  <ele>1583.0</ele>
  <time>2026-08-28T17:56:01Z</time>
  <course>247.75</course>
  <speed>0.0316227766016838</speed>
  <fix>3d</fix>
</trkpt>
<trkpt lat="40.0713749" lon="-105.229789">
  <ele>1583.0</ele>
  <time>2026-08-28T17:56:01Z</time>
  <course>0.0</course>
  <speed>0.0</speed>
  <fix>3d</fix>
</trkpt>
<trkpt lat="40.0713749" lon="-105.229789">
  <ele>1583.0</ele>
  <time>2026-08-28T17:56:01Z</time>
  <course>247.75</course>
  <speed>0.0316227766016838</speed>
  <fix>3d</fix>
</trkpt>
<trkpt lat="40.0713749" lon="-105.229789">
  <ele>1583.0</ele>
  <time>2026-08-28T17:56:01Z</time>
  <course>0.0</course>
  <speed>0.0</speed>
  <fix>3d</fix>
</trkpt>
<trkpt lat="40.0713749" lon="-105.229789">
  <ele>1583.0</ele>
  <time>2026-08-28T17:56:01Z</time>
  <course>247.75</course>
  <speed>0.0316227766016838</speed>
  <fix>3d</fix>
</trkpt>
<trkpt lat="40.0713749" lon="-105.229789">
  <ele>1583.0</ele>
  <time>2026-08-28T17:56:01Z</time>
  <course>0.0</course>
  <speed>0.0</speed>
  <fix>3d</fix>
</trkpt>
<trkpt lat="40.0713749" lon="-105.229789">
  <ele>1583.0</ele>
  <time>2026-08-28T17:56:01Z</time>
  <course>247.74</course>
  <speed>0.0316227766016838</speed>
  <fix>3d</fix>
</trkpt>
<trkpt lat="40.0713749" lon="-105.229789">
  <ele>1583.0</ele>
  <time>2026-08-28T17:56:01Z</time>
  <course>0.0</course>
  <speed>0.0</speed>
  <fix>3d</fix>
</trkpt>
<trkpt lat="40.0713749" lon="-105.229789">
  <ele>1583.0</ele>
  <time>2026-08-28T17:56:01Z</time>
  <course>247.74</course>
  <speed>0.0316227766016838</speed>
  <fix>3d</fix>
</trkpt>
<trkpt lat="40.0713749" lon="-105.229789">
  <ele>1583.0</ele>
  <time>2026-08-28T17:56:01Z</time>
  <course>0.0</course>
  <speed>0.0</speed>
  <fix>3d</fix>
</trkpt>
<trkpt lat="40.0713749" lon="-105.229789">
  <ele>1583.0</ele>
  <time>2026-08-28T17:56:01Z</time>
  <course>247.74</course>
  <speed>0.0316227766016838</speed>
  <fix>3d</fix>
</trkpt>
<trkpt lat="40.0713749" lon="-105.229789">
  <ele>1583.0</ele>
  <time>2026-08-28T17:56:01Z</time>
  <course>0.0</course>
  <speed>0.0</speed>
  <fix>3d</fix>
</trkpt>
<trkpt lat="40.0713749" lon="-105.229789">
  <ele>1583.0</ele>
  <time>2026-08-28T17:56:01Z</time>
  <course>247.73</course>
  <speed>0.0316227766016838</speed>
  <fix>3d</fix>
</trkpt>
<trkpt lat="40.0713749" lon="-105.229789">
  <ele>1583.0</ele>
  <time>2026-08-28T17:56:01Z</time>
  <course>0.0</course>
  <speed>0.0</speed>
  <fix>3d</fix>
</trkpt>
<trkpt lat="40.0713749" lon="-105.229789">
  <ele>1583.0</ele>
  <time>2026-08-28T17:56:01Z</time>
  <course>247.73</course>
  <speed>0.0316227766016838</speed>
  <fix>3d</fix>
</trkpt>
<trkpt lat="40.0713749" lon="-105.229789">
  <ele>1583.0</ele>
  <time>2026-08-28T17:56:01Z</time>
  <course>0.0</course>
  <speed>0.0</speed>
  <fix>3d</fix>
</trkpt>
<trkpt lat="40.0713749" lon="-105.229789">
  <ele>1583.0</ele>
  <time>2026-08-28T17:56:01Z</time>
  <course>247.73</course>
  <speed>0.0316227766016838</speed>
  <fix>3d</fix>
</trkpt>
<trkpt lat="40.0713749" lon="-105.229789">
  <ele>1583.0</ele>
  <time>2026-08-28T17:56:01Z</time>
  <course>0.0</course>
  <speed>0.0</speed>
  <fix>3d</fix>
</trkpt>
<trkpt lat="40.0713749" lon="-105.229789">
  <ele>1583.0</ele>
  <time>2026-08-28T17:56:01Z</time>
  <course>247.72</course>
  <speed>0.0316227766016838</speed>
  <fix>3d</fix>
</trkpt>
<trkpt lat="40.0713749" lon="-105.229789">
  <ele>1583.0</ele>
  <time>2026-08-28T17:56:01Z</time>
  <course>0.0</course>
  <speed>0.0</speed>
  <fix>3d</fix>
</trkpt>
<trkpt lat="40.0713749" lon="-105.229789">
  <ele>1583.0</ele>
  <time>2026-08-28T17:56:01Z</time>
  <course>247.72</course>
  <speed>0.0316227766016838</speed>
  <fix>3d</fix>
</trkpt>
<trkpt lat="40.0713749" lon="-105.229789">
  <ele>1583.0</ele>
  <time>2026-08-28T17:56:01Z</time>
  <course>0.0</course>
  <speed>0.0</speed>
  <fix>3d</fix>
</trkpt>
<trkpt lat="40.0713749" lon="-105.229789">
  <ele>1583.0</ele>
  <time>2026-08-28T17:56:01Z</time>
  <course>247.72</course>
  <speed>0.0316227766016838</speed>
  <fix>3d</fix>
</trkpt>
<trkpt lat="40.0713749" lon="-105.229789">
  <ele>1583.0</ele>
  <time>2026-08-28T17:56:01Z</time>
  <course>0.0</course>
  <speed>0.0</speed>
  <fix>3d</fix>
</trkpt>
<trkpt lat="40.0713749" lon="-105.229789">
  <ele>1583.0</ele>
  <time>2026-08-28T17:56:01Z</time>
  <course>247.71</course>
  <speed>0.0316227766016838</speed>
  <fix>3d</fix>
</trkpt>
<trkpt lat="40.0713749" lon="-105.229789">
  <ele>1583.0</ele>
  <time>2026-08-28T17:56:01Z</time>
  <course>0.0</course>
  <speed>0.0</speed>
  <fix>3d</fix>
</trkpt>
<trkpt lat="40.0713749" lon="-105.229789">
  <ele>1583.0</ele>
  <time>2026-08-28T17:56:01Z</time>
  <course>247.71</course>
  <speed>0.0316227766016838</speed>
  <fix>3d</fix>
</trkpt>
<trkpt lat="40.0713749" lon="-105.229789">
  <ele>1583.0</ele>
  <time>2026-08-28T17:56:01Z</time>
  <course>0.0</course>
  <speed>0.0</speed>
  <fix>3d</fix>
</trkpt>
<trkpt lat="40.0713749" lon="-105.229789">
  <ele>1583.0</ele>
  <time>2026-08-28T17:56:01Z</time>
  <course>247.71</course>
  <speed>0.0316227766016838</speed>
  <fix>3d</fix>
</trkpt>
<trkpt lat="40.0713749" lon="-105.229789">
  <ele>1583.0</ele>
  <time>2026-08-28T17:56:01Z</time>
  <course>0.0</course>
  <speed>0.0</speed>
  <fix>3d</fix>
</trkpt>
<trkpt lat="40.0713749" lon="-105.229789">
  <ele>1583.0</ele>
  <time>2026-08-28T17:56:01Z</time>
  <course>247.7</course>
  <speed>0.0316227766016838</speed>
  <fix>3d</fix>
</trkpt>
<trkpt lat="40.0713749" lon="-105.229789">
  <ele>1583.0</ele>
  <time>2026-08-28T17:56:01Z</time>
  <course>0.0</course>
  <speed>0.0</speed>
  <fix>3d</fix>
</trkpt>
<trkpt lat="40.0713749" lon="-105.229789">
  <ele>1583.0</ele>
  <time>2026-08-28T17:56:01Z</time>
  <course>247.7</course>
  <speed>0.0316227766016838</speed>
  <fix>3d</fix>
</trkpt>
<trkpt lat="40.0713749" lon="-105.229789">
  <ele>1583.0</ele>
  <time>2026-08-28T17:56:01Z</time>
  <course>0.0</course>
  <speed>0.0</speed>
  <fix>3d</fix>
</trkpt>
<trkpt lat="40.0713749" lon="-105.229789">
  <ele>1583.0</ele>
  <time>2026-08-28T17:56:01Z</time>
  <course>247.7</course>
  <speed>0.0316227766016838</speed>
  <fix>3d</fix>
</trkpt>
<trkpt lat="40.0713749" lon="-105.229789">
  <ele>1583.0</ele>
  <time>2026-08-28T17:56:01Z</time>
  <course>0.0</course>
  <speed>0.0</speed>
  <fix>3d</fix>
</trkpt>
<trkpt lat="40.0713749" lon="-105.229789">
  <ele>1583.0</ele>
  <time>2026-08-28T17:56:01Z</time>
  <course>247.69</course>
  <speed>0.0316227766016838</speed>
  <fix>3d</fix>
</trkpt>
<trkpt lat="40.0713749" lon="-105.229789">
  <ele>1583.0</ele>
  <time>2026-08-28T17:56:01Z</time>
  <course>0.0</course>
  <speed>0.0</speed>
  <fix>3d</fix>
</trkpt>
<trkpt lat="40.0713749" lon="-105.229789">
  <ele>1583.0</ele>
  <time>2026-08-28T17:56:01Z</time>
  <course>247.69</course>
  <speed>0.0316227766016838</speed>
  <fix>3d</fix>
</trkpt>
<trkpt lat="40.0713749" lon="-105.229789">
  <ele>1583.0</ele>
  <time>2026-08-28T17:56:01Z</time>
  <course>0.0</course>
  <speed>0.0</speed>
  <fix>3d</fix>
</trkpt>
<trkpt lat="40.0713749" lon="-105.229789">
  <ele>1583.0</ele>
  <time>2026-08-28T17:56:01Z</time>
  <course>247.69</course>
  <speed>0.0316227766016838</speed>
  <fix>3d</fix>
</trkpt>
<trkpt lat="40.0713749" lon="-105.229789">
  <ele>1583.0</ele>
  <time>2026-08-28T17:56:01Z</time>
  <course>0.0</course>
  <speed>0.0</speed>
  <fix>3d</fix>
</trkpt>
<trkpt lat="40.0713749" lon="-105.229789">
  <ele>1583.0</ele>
  <time>2026-08-28T17:56:01Z</time>
  <course>247.68</course>
  <speed>0.0316227766016838</speed>
  <fix>3d</fix>
</trkpt>
<trkpt lat="40.0713749" lon="-105.229789">
  <ele>1583.0</ele>
  <time>2026-08-28T17:56:01Z</time>
  <course>0.0</course>
  <speed>0.0</speed>
  <fix>3d</fix>
</trkpt>
<trkpt lat="40.0713749" lon="-105.229789">
  <ele>1583.0</ele>
  <time>2026-08-28T17:56:01Z</time>
  <course>247.68</course>
  <speed>0.0316227766016838</speed>
  <fix>3d</fix>
</trkpt>
<trkpt lat="40.0713749" lon="-105.229789">
  <ele>1583.0</ele>
  <time>2026-08-28T17:56:01Z</time>
  <course>0.0</course>
  <speed>0.0</speed>
  <fix>3d</fix>
</trkpt>
<trkpt lat="40.0713749" lon="-105.229789">
  <ele>1583.0</ele>
  <time>2026-08-28T17:56:01Z</time>
  <course>247.68</course>
  <speed>0.0316227766016838</speed>
  <fix>3d</fix>
</trkpt>
<trkpt lat="40.0713749" lon="-105.229789">
  <ele>1583.0</ele>
  <time>2026-08-28T17:56:01Z</time>
  <course>0.0</course>
  <speed>0.0</speed>
  <fix>3d</fix>
</trkpt>
<trkpt lat="40.0713749" lon="-105.229789">
  <ele>1583.0</ele>
  <time>2026-08-28T17:56:01Z</time>
  <course>247.67</course>
  <speed>0.0316227766016838</speed>
  <fix>3d</fix>
</trkpt>
<trkpt lat="40.0713749" lon="-105.229789">
  <ele>1583.0</ele>
  <time>2026-08-28T17:56:01Z</time>
  <course>0.0</course>
  <speed>0.0</speed>
  <fix>3d</fix>
</trkpt>
<trkpt lat="40.0713749" lon="-105.229789">
  <ele>1583.0</ele>
  <time>2026-08-28T17:56:01Z</time>
  <course>247.67</course>
  <speed>0.0316227766016838</speed>
  <fix>3d</fix>
</trkpt>
<trkpt lat="40.0713749" lon="-105.229789">
  <ele>1583.0</ele>
  <time>2026-08-28T17:56:01Z</time>
  <course>0.0</course>
  <speed>0.0</speed>
  <fix>3d</fix>
</trkpt>
<trkpt lat="40.0713749" lon="-105.229789">
  <ele>1583.0</ele>
  <time>2026-08-28T17:56:01Z</time>
  <course>247.67</course>
  <speed>0.0316227766016838</speed>
  <fix>3d</fix>
</trkpt>
<trkpt lat="40.0713749" lon="-105.229789">
  <ele>1583.0</ele>
  <time>2026-08-28T17:56:01Z</time>
  <course>0.0</course>
  <speed>0.0</speed>
  <fix>3d</fix>
</trkpt>
<trkpt lat="40.0713749" lon="-105.229789">
  <ele>1583.0</ele>
  <time>2026-08-28T17:56:01Z</time>
  <course>247.66</course>
  <speed>0.0316227766016838</speed>
  <fix>3d</fix>
</trkpt>
<trkpt lat="40.0713749" lon="-105.229789">
  <ele>1583.0</ele>
  <time>2026-08-28T17:56:01Z</time>
  <course>0.0</course>
  <speed>0.0</speed>
  <fix>3d</fix>
</trkpt>
<trkpt lat="40.0713749" lon="-105.229789">
  <ele>1583.0</ele>
  <time>2026-08-28T17:56:01Z</time>
  <course>247.66</course>
  <speed>0.0316227766016838</speed>
  <fix>3d</fix>
</trkpt>
<trkpt lat="40.0713749" lon="-105.229789">
  <ele>1583.0</ele>
  <time>2026-08-28T17:56:01Z</time>
  <course>0.0</course>
  <speed>0.0</speed>
  <fix>3d</fix>
</trkpt>
<trkpt lat="40.0713749" lon="-105.229789">
  <ele>1583.0</ele>
  <time>2026-08-28T17:56:01Z</time>
  <course>247.66</course>
  <speed>0.0316227766016838</speed>
  <fix>3d</fix>
</trkpt>
<trkpt lat="40.0713749" lon="-105.229789">
  <ele>1583.0</ele>
  <time>2026-08-28T17:56:01Z</time>
  <course>0.0</course>
  <speed>0.0</speed>
  <fix>3d</fix>
</trkpt>
<trkpt lat="40.0713749" lon="-105.229789">
  <ele>1583.0</ele>
  <time>2026-08-28T17:56:01Z</time>
  <course>247.65</course>
  <speed>0.0316227766016838</speed>
  <fix>3d</fix>
</trkpt>
<trkpt lat="40.0713749" lon="-105.229789">
  <ele>1583.0</ele>
  <time>2026-08-28T17:56:01Z</time>
  <course>0.0</course>
  <speed>0.0</speed>
  <fix>3d</fix>
</trkpt>
<trkpt lat="40.0713749" lon="-105.229789">
  <ele>1583.0</ele>
  <time>2026-08-28T17:56:01Z</time>
  <course>247.65</course>
  <speed>0.0316227766016838</speed>
  <fix>3d</fix>
</trkpt>
<trkpt lat="40.0713749" lon="-105.229789">
  <ele>1583.0</ele>
  <time>2026-08-28T17:56:01Z</time>
  <course>0.0</course>
  <speed>0.0</speed>
  <fix>3d</fix>
</trkpt>
<trkpt lat="40.0713749" lon="-105.229789">
  <ele>1583.0</ele>
  <time>2026-08-28T17:56:01Z</time>
  <course>247.65</course>
  <speed>0.0316227766016838</speed>
  <fix>3d</fix>
</trkpt>
<trkpt lat="40.0713749" lon="-105.229789">
  <ele>1583.0</ele>
  <time>2026-08-28T17:56:01Z</time>
  <course>0.0</course>
  <speed>0.0</speed>
  <fix>3d</fix>
</trkpt>
<trkpt lat="40.0713749" lon="-105.229789">
  <ele>1583.0</ele>
  <time>2026-08-28T17:56:01Z</time>
  <course>247.64</course>
  <speed>0.0316227766016838</speed>
  <fix>3d</fix>
</trkpt>
<trkpt lat="40.0713749" lon="-105.229789">
  <ele>1583.0</ele>
  <time>2026-08-28T17:56:01Z</time>
  <course>0.0</course>
  <speed>0.0</speed>
  <fix>3d</fix>
</trkpt>
<trkpt lat="40.0713749" lon="-105.229789">
  <ele>1583.0</ele>
  <time>2026-08-28T17:56:01Z</time>
  <course>247.64</course>
  <speed>0.0316227766016838</speed>
  <fix>3d</fix>
</trkpt>
<trkpt lat="40.0713749" lon="-105.229789">
  <ele>1583.0</ele>
  <time>2026-08-28T17:56:01Z</time>
  <course>0.0</course>
  <speed>0.0</speed>
  <fix>3d</fix>
</trkpt>
<trkpt lat="40.0713749" lon="-105.229789">
  <ele>1583.0</ele>
  <time>2026-08-28T17:56:01Z</time>
  <course>247.64</course>
  <speed>0.0316227766016838</speed>
  <fix>3d</fix>
</trkpt>
<trkpt lat="40.0713749" lon="-105.229789">
  <ele>1583.0</ele>
  <time>2026-08-28T17:56:01Z</time>
  <course>0.0</course>
  <speed>0.0</speed>
  <fix>3d</fix>
</trkpt>
<trkpt lat="40.0713749" lon="-105.229789">
  <ele>1583.0</ele>
  <time>2026-08-28T17:56:01Z</time>
  <course>247.64</course>
  <speed>0.0316227766016838</speed>
  <fix>3d</fix>
</trkpt>
<trkpt lat="40.0713749" lon="-105.229789">
  <ele>1583.0</ele>
  <time>2026-08-28T17:56:01Z</time>
  <course>0.0</course>
  <speed>0.0</speed>
  <fix>3d</fix>
</trkpt>
<trkpt lat="40.0713749" lon="-105.229789">
  <ele>1583.0</ele>
  <time>2026-08-28T17:56:01Z</time>
  <course>247.63</course>
  <speed>0.0316227766016838</speed>
  <fix>3d</fix>
</trkpt>
<trkpt lat="40.0713749" lon="-105.229789">
  <ele>1583.0</ele>
  <time>2026-08-28T17:56:01Z</time>
  <course>0.0</course>
  <speed>0.0</speed>
  <fix>3d</fix>
</trkpt>
<trkpt lat="40.0713749" lon="-105.229789">
  <ele>1583.0</ele>
  <time>2026-08-28T17:56:01Z</time>
  <course>247.63</course>
  <speed>0.0316227766016838</speed>
  <fix>3d</fix>
</trkpt>
<trkpt lat="40.0713749" lon="-105.229789">
  <ele>1583.0</ele>
  <time>2026-08-28T17:56:01Z</time>
  <course>0.0</course>
  <speed>0.0</speed>
  <fix>3d</fix>
</trkpt>
<trkpt lat="40.0713749" lon="-105.229789">
  <ele>1583.0</ele>
  <time>2026-08-28T17:56:01Z</time>
  <course>247.63</course>
  <speed>0.0316227766016838</speed>
  <fix>3d</fix>
</trkpt>
<trkpt lat="40.0713749" lon="-105.229789">
  <ele>1583.0</ele>
  <time>2026-08-28T17:56:01Z</time>
  <course>0.0</course>
  <speed>0.0</speed>
  <fix>3d</fix>
</trkpt>
<trkpt lat="40.0713749" lon="-105.229789">
  <ele>1583.0</ele>
  <time>2026-08-28T17:56:01Z</time>
  <course>247.62</course>
  <speed>0.0316227766016838</speed>
  <fix>3d</fix>
</trkpt>
<trkpt lat="40.0713749" lon="-105.229789">
  <ele>1583.0</ele>
  <time>2026-08-28T17:56:01Z</time>
  <course>0.0</course>
  <speed>0.0</speed>
  <fix>3d</fix>
</trkpt>
<trkpt lat="40.0713749" lon="-105.229789">
  <ele>1583.0</ele>
  <time>2026-08-28T17:56:01Z</time>
  <course>247.62</course>
  <speed>0.0316227766016838</speed>
  <fix>3d</fix>
</trkpt>
<trkpt lat="40.0713749" lon="-105.229789">
  <ele>1583.0</ele>
  <time>2026-08-28T17:56:01Z</time>
  <course>0.0</course>
  <speed>0.0</speed>
  <fix>3d</fix>
</trkpt>
<trkpt lat="40.0713749" lon="-105.229789">
  <ele>1583.0</ele>
  <time>2026-08-28T17:56:01Z</time>
  <course>247.62</course>
  <speed>0.0316227766016838</speed>
  <fix>3d</fix>
</trkpt>
<trkpt lat="40.0713749" lon="-105.229789">
  <ele>1583.0</ele>
  <time>2026-08-28T17:56:01Z</time>
  <course>0.0</course>
  <speed>0.0</speed>
  <fix>3d</fix>
</trkpt>
<trkpt lat="40.0713749" lon="-105.229789">
  <ele>1583.0</ele>
  <time>2026-08-28T17:56:01Z</time>
  <course>247.62</course>
  <speed>0.0316227766016838</speed>
  <fix>3d</fix>
</trkpt>
<trkpt lat="40.0713749" lon="-105.229789">
  <ele>1583.0</ele>
  <time>2026-08-28T17:56:01Z</time>
  <course>0.0</course>
  <speed>0.0</speed>
  <fix>3d</fix>
</trkpt>
<trkpt lat="40.0713749" lon="-105.229789">
  <ele>1583.0</ele>
  <time>2026-08-28T17:56:02Z</time>
  <course>247.61</course>
  <speed>0.0316227766016838</speed>
  <fix>3d</fix>
</trkpt>
<trkpt lat="40.0713749" lon="-105.229789">
  <ele>1583.0</ele>
  <time>2026-08-28T17:56:02Z</time>
  <course>0.0</course>
  <speed>0.0</speed>
  <fix>3d</fix>
</trkpt>
<trkpt lat="40.0713749" lon="-105.229789">
  <ele>1583.0</ele>
  <time>2026-08-28T17:56:02Z</time>
  <course>247.61</course>
  <speed>0.0316227766016838</speed>
  <fix>3d</fix>
</trkpt>
<trkpt lat="40.0713749" lon="-105.229789">
  <ele>1583.0</ele>
  <time>2026-08-28T17:56:02Z</time>
  <course>0.0</course>
  <speed>0.0</speed>
  <fix>3d</fix>
</trkpt>
<trkpt lat="40.0713749" lon="-105.229789">
  <ele>1583.0</ele>
  <time>2026-08-28T17:56:02Z</time>
  <course>247.61</course>
  <speed>0.0316227766016838</speed>
  <fix>3d</fix>
</trkpt>
<trkpt lat="40.0713749" lon="-105.229789">
  <ele>1583.0</ele>
  <time>2026-08-28T17:56:02Z</time>
  <course>0.0</course>
  <speed>0.0</speed>
  <fix>3d</fix>
</trkpt>
<trkpt lat="40.0713749" lon="-105.229789">
  <ele>1583.0</ele>
  <time>2026-08-28T17:56:02Z</time>
  <course>247.6</course>
  <speed>0.0316227766016838</speed>
  <fix>3d</fix>
</trkpt>
<trkpt lat="40.0713749" lon="-105.229789">
  <ele>1583.0</ele>
  <time>2026-08-28T17:56:02Z</time>
  <course>0.0</course>
  <speed>0.0</speed>
  <fix>3d</fix>
</trkpt>
<trkpt lat="40.0713749" lon="-105.229789">
  <ele>1583.0</ele>
  <time>2026-08-28T17:56:02Z</time>
  <course>247.6</course>
  <speed>0.0316227766016838</speed>
  <fix>3d</fix>
</trkpt>
<trkpt lat="40.0713749" lon="-105.229789">
  <ele>1583.0</ele>
  <time>2026-08-28T17:56:02Z</time>
  <course>0.0</course>
  <speed>0.0</speed>
  <fix>3d</fix>
</trkpt>
<trkpt lat="40.0713749" lon="-105.229789">
  <ele>1583.0</ele>
  <time>2026-08-28T17:56:02Z</time>
  <course>247.6</course>
  <speed>0.0316227766016838</speed>
  <fix>3d</fix>
</trkpt>
<trkpt lat="40.0713749" lon="-105.229789">
  <ele>1583.0</ele>
  <time>2026-08-28T17:56:02Z</time>
  <course>0.0</course>
  <speed>0.0</speed>
  <fix>3d</fix>
</trkpt>
<trkpt lat="40.0713749" lon="-105.229789">
  <ele>1583.0</ele>
  <time>2026-08-28T17:56:02Z</time>
  <course>247.6</course>
  <speed>0.0316227766016838</speed>
  <fix>3d</fix>
</trkpt>
<trkpt lat="40.0713749" lon="-105.229789">
  <ele>1583.0</ele>
  <time>2026-08-28T17:56:02Z</time>
  <course>0.0</course>
  <speed>0.0</speed>
  <fix>3d</fix>
</trkpt>
<trkpt lat="40.0713749" lon="-105.229789">
  <ele>1583.0</ele>
  <time>2026-08-28T17:56:02Z</time>
  <course>247.59</course>
  <speed>0.0316227766016838</speed>
  <fix>3d</fix>
</trkpt>
<trkpt lat="40.0713749" lon="-105.229789">
  <ele>1583.0</ele>
  <time>2026-08-28T17:56:02Z</time>
  <course>0.0</course>
  <speed>0.0</speed>
  <fix>3d</fix>
</trkpt>
<trkpt lat="40.0713749" lon="-105.229789">
  <ele>1582.92</ele>
  <time>2026-08-28T17:56:02Z</time>
  <course>247.59</course>
  <speed>0.0</speed>
  <fix>3d</fix>
</trkpt>
<trkpt lat="40.0713749" lon="-105.229789">
  <ele>1583.0</ele>
  <time>2026-08-28T17:56:02Z</time>
  <course>0.0</course>
  <speed>0.0</speed>
  <fix>3d</fix>
</trkpt>
<trkpt lat="40.0713749" lon="-105.229789">
  <ele>1582.92</ele>
  <time>2026-08-28T17:56:02Z</time>
  <course>247.59</course>
  <speed>0.0</speed>
  <fix>3d</fix>
</trkpt>
<trkpt lat="40.0713749" lon="-105.229789">
  <ele>1583.0</ele>
  <time>2026-08-28T17:56:02Z</time>
  <course>0.0</course>
  <speed>0.0</speed>
  <fix>3d</fix>
</trkpt>
<trkpt lat="40.0713749" lon="-105.229789">
  <ele>1582.91</ele>
  <time>2026-08-28T17:56:02Z</time>
  <course>247.58</course>
  <speed>0.0</speed>
  <fix>3d</fix>
</trkpt>
<trkpt lat="40.0713749" lon="-105.229789">
  <ele>1583.0</ele>
  <time>2026-08-28T17:56:02Z</time>
  <course>0.0</course>
  <speed>0.0</speed>
  <fix>3d</fix>
</trkpt>
<trkpt lat="40.0713749" lon="-105.229789">
  <ele>1582.91</ele>
  <time>2026-08-28T17:56:02Z</time>
  <course>247.58</course>
  <speed>0.0</speed>
  <fix>3d</fix>
</trkpt>
<trkpt lat="40.0713749" lon="-105.229789">
  <ele>1583.0</ele>
  <time>2026-08-28T17:56:02Z</time>
  <course>0.0</course>
  <speed>0.0</speed>
  <fix>3d</fix>
</trkpt>
<trkpt lat="40.0713749" lon="-105.229789">
  <ele>1582.9</ele>
  <time>2026-08-28T17:56:02Z</time>
  <course>247.58</course>
  <speed>0.0</speed>
  <fix>3d</fix>
</trkpt>
<trkpt lat="40.0713749" lon="-105.229789">
  <ele>1583.0</ele>
  <time>2026-08-28T17:56:02Z</time>
  <course>0.0</course>
  <speed>0.0</speed>
  <fix>3d</fix>
</trkpt>
<trkpt lat="40.0713749" lon="-105.229789">
  <ele>1582.9</ele>
  <time>2026-08-28T17:56:02Z</time>
  <course>247.58</course>
  <speed>0.0</speed>
  <fix>3d</fix>
</trkpt>
<trkpt lat="40.0713749" lon="-105.229789">
  <ele>1583.0</ele>
  <time>2026-08-28T17:56:02Z</time>
  <course>0.0</course>
  <speed>0.0</speed>
  <fix>3d</fix>
</trkpt>
<trkpt lat="40.0713749" lon="-105.229789">
  <ele>1582.9</ele>
  <time>2026-08-28T17:56:02Z</time>
  <course>247.57</course>
  <speed>0.0</speed>
  <fix>3d</fix>
</trkpt>
<trkpt lat="40.0713749" lon="-105.229789">
  <ele>1583.0</ele>
  <time>2026-08-28T17:56:02Z</time>
  <course>0.0</course>
  <speed>0.0</speed>
  <fix>3d</fix>
</trkpt>
<trkpt lat="40.0713749" lon="-105.229789">
  <ele>1582.9</ele>
  <time>2026-08-28T17:56:02Z</time>
  <course>247.57</course>
  <speed>0.0</speed>
  <fix>3d</fix>
</trkpt>
<trkpt lat="40.0713749" lon="-105.229789">
  <ele>1583.0</ele>
  <time>2026-08-28T17:56:02Z</time>
  <course>0.0</course>
  <speed>0.0</speed>
  <fix>3d</fix>
</trkpt>
<trkpt lat="40.0713749" lon="-105.229789">
  <ele>1582.9</ele>
  <time>2026-08-28T17:56:02Z</time>
  <course>247.57</course>
  <speed>0.0</speed>
  <fix>3d</fix>
</trkpt>
<trkpt lat="40.0713749" lon="-105.229789">
  <ele>1583.0</ele>
  <time>2026-08-28T17:56:02Z</time>
  <course>0.0</course>
  <speed>0.0</speed>
  <fix>3d</fix>
</trkpt>
<trkpt lat="40.0713749" lon="-105.229789">
  <ele>1582.9</ele>
  <time>2026-08-28T17:56:02Z</time>
  <course>247.57</course>
  <speed>0.01</speed>
  <fix>3d</fix>
</trkpt>
<trkpt lat="40.0713749" lon="-105.229789">
  <ele>1583.0</ele>
  <time>2026-08-28T17:56:02Z</time>
  <course>0.0</course>
  <speed>0.0</speed>
  <fix>3d</fix>
</trkpt>
<trkpt lat="40.0713749" lon="-105.229789">
  <ele>1582.9</ele>
  <time>2026-08-28T17:56:02Z</time>
  <course>247.56</course>
  <speed>0.01</speed>
  <fix>3d</fix>
</trkpt>
<trkpt lat="40.0713749" lon="-105.229789">
  <ele>1583.0</ele>
  <time>2026-08-28T17:56:02Z</time>
  <course>0.0</course>
  <speed>0.0</speed>
  <fix>3d</fix>
</trkpt>
<trkpt lat="40.0713749" lon="-105.229789">
  <ele>1582.91</ele>
  <time>2026-08-28T17:56:02Z</time>
  <course>247.56</course>
  <speed>0.01</speed>
  <fix>3d</fix>
</trkpt>
<trkpt lat="40.0713749" lon="-105.229789">
  <ele>1583.0</ele>
  <time>2026-08-28T17:56:02Z</time>
  <course>0.0</course>
  <speed>0.0</speed>
  <fix>3d</fix>
</trkpt>
<trkpt lat="40.0713749" lon="-105.229789">
  <ele>1582.91</ele>
  <time>2026-08-28T17:56:02Z</time>
  <course>247.56</course>
  <speed>0.01</speed>
  <fix>3d</fix>
</trkpt>
<trkpt lat="40.0713749" lon="-105.229789">
  <ele>1583.0</ele>
  <time>2026-08-28T17:56:02Z</time>
  <course>0.0</course>
  <speed>0.0</speed>
  <fix>3d</fix>
</trkpt>
<trkpt lat="40.0713749" lon="-105.229789">
  <ele>1582.92</ele>
  <time>2026-08-28T17:56:02Z</time>
  <course>247.56</course>
  <speed>0.01</speed>
  <fix>3d</fix>
</trkpt>
<trkpt lat="40.0713749" lon="-105.229789">
  <ele>1583.0</ele>
  <time>2026-08-28T17:56:02Z</time>
  <course>0.0</course>
  <speed>0.0</speed>
  <fix>3d</fix>
</trkpt>
<trkpt lat="40.0713749" lon="-105.229789">
  <ele>1582.92</ele>
  <time>2026-08-28T17:56:02Z</time>
  <course>247.55</course>
  <speed>0.01</speed>
  <fix>3d</fix>
</trkpt>
<trkpt lat="40.0713749" lon="-105.229789">
  <ele>1583.0</ele>
  <time>2026-08-28T17:56:02Z</time>
  <course>0.0</course>
  <speed>0.0</speed>
  <fix>3d</fix>
</trkpt>
<trkpt lat="40.0713749" lon="-105.229789">
  <ele>1582.92</ele>
  <time>2026-08-28T17:56:02Z</time>
  <course>247.55</course>
  <speed>0.01</speed>
  <fix>3d</fix>
</trkpt>
<trkpt lat="40.0713749" lon="-105.229789">
  <ele>1583.0</ele>
  <time>2026-08-28T17:56:02Z</time>
  <course>0.0</course>
  <speed>0.0</speed>
  <fix>3d</fix>
</trkpt>
<trkpt lat="40.0713749" lon="-105.229789">
  <ele>1582.93</ele>
  <time>2026-08-28T17:56:02Z</time>
  <course>247.55</course>
  <speed>0.01</speed>
  <fix>3d</fix>
</trkpt>
<trkpt lat="40.0713749" lon="-105.229789">
  <ele>1583.0</ele>
  <time>2026-08-28T17:56:02Z</time>
  <course>0.0</course>
  <speed>0.0</speed>
  <fix>3d</fix>
</trkpt>
<trkpt lat="40.0713749" lon="-105.229789">
  <ele>1582.93</ele>
  <time>2026-08-28T17:56:02Z</time>
  <course>247.55</course>
  <speed>0.01</speed>
  <fix>3d</fix>
</trkpt>
<trkpt lat="40.0713749" lon="-105.229789">
  <ele>1583.0</ele>
  <time>2026-08-28T17:56:02Z</time>
  <course>0.0</course>
  <speed>0.0</speed>
  <fix>3d</fix>
</trkpt>
<trkpt lat="40.0713749" lon="-105.229789">
  <ele>1582.93</ele>
  <time>2026-08-28T17:56:02Z</time>
  <course>247.54</course>
  <speed>0.02</speed>
  <fix>3d</fix>
</trkpt>
<trkpt lat="40.0713749" lon="-105.229789">
  <ele>1583.0</ele>
  <time>2026-08-28T17:56:02Z</time>
  <course>0.0</course>
  <speed>0.0</speed>
  <fix>3d</fix>
</trkpt>
<trkpt lat="40.0713749" lon="-105.229789">
  <ele>1582.93</ele>
  <time>2026-08-28T17:56:02Z</time>
  <course>247.54</course>
  <speed>0.02</speed>
  <fix>3d</fix>
</trkpt>
<trkpt lat="40.0713749" lon="-105.229789">
  <ele>1583.0</ele>
  <time>2026-08-28T17:56:02Z</time>
  <course>0.0</course>
  <speed>0.0</speed>
  <fix>3d</fix>
</trkpt>
<trkpt lat="40.0713749" lon="-105.229789">
  <ele>1582.93</ele>
  <time>2026-08-28T17:56:02Z</time>
  <course>247.54</course>
  <speed>0.02</speed>
  <fix>3d</fix>
</trkpt>
<trkpt lat="40.0713749" lon="-105.229789">
  <ele>1583.0</ele>
  <time>2026-08-28T17:56:02Z</time>
  <course>0.0</course>
  <speed>0.0</speed>
  <fix>3d</fix>
</trkpt>
<trkpt lat="40.0713749" lon="-105.229789">
  <ele>1582.93</ele>
  <time>2026-08-28T17:56:02Z</time>
  <course>247.54</course>
  <speed>0.022360679774997897</speed>
  <fix>3d</fix>
</trkpt>
<trkpt lat="40.0713749" lon="-105.229789">
  <ele>1583.0</ele>
  <time>2026-08-28T17:56:02Z</time>
  <course>0.0</course>
  <speed>0.0</speed>
  <fix>3d</fix>
</trkpt>
<trkpt lat="40.0713749" lon="-105.229789">
  <ele>1582.94</ele>
  <time>2026-08-28T17:56:02Z</time>
  <course>247.53</course>
  <speed>0.022360679774997897</speed>
  <fix>3d</fix>
</trkpt>
<trkpt lat="40.0713749" lon="-105.229789">
  <ele>1583.0</ele>
  <time>2026-08-28T17:56:02Z</time>
  <course>0.0</course>
  <speed>0.0</speed>
  <fix>3d</fix>
</trkpt>
<trkpt lat="40.0713749" lon="-105.229789">
  <ele>1582.94</ele>
  <time>2026-08-28T17:56:02Z</time>
  <course>247.53</course>
  <speed>0.022360679774997897</speed>
  <fix>3d</fix>
</trkpt>
<trkpt lat="40.0713749" lon="-105.229789">
  <ele>1583.0</ele>
  <time>2026-08-28T17:56:02Z</time>
  <course>0.0</course>
  <speed>0.0</speed>
  <fix>3d</fix>
</trkpt>
<trkpt lat="40.071375" lon="-105.229789">
  <ele>1582.94</ele>
  <time>2026-08-28T17:56:02Z</time>
  <course>247.53</course>
  <speed>0.022360679774997897</speed>
  <fix>3d</fix>
</trkpt>
<trkpt lat="40.0713749" lon="-105.229789">
  <ele>1583.0</ele>
  <time>2026-08-28T17:56:02Z</time>
  <course>0.0</course>
  <speed>0.0</speed>
  <fix>3d</fix>
</trkpt>
<trkpt lat="39.655741" lon="-104.1383097">
  <ele>1566.58</ele>
  <time>2026-08-28T17:56:02Z</time>
  <course>0.0</course>
  <speed>0.0</speed>
  <fix>3d</fix>
</trkpt>
<trkpt lat="40.0713749" lon="-105.229789">
  <ele>1583.0</ele>
  <time>2026-08-28T17:56:02Z</time>
  <course>0.0</course>
  <speed>0.0</speed>
  <fix>3d</fix>
</trkpt>
<trkpt lat="40.0713749" lon="-105.229789">
  <ele>1583.0</ele>
  <time>2026-08-28T17:56:02Z</time>
  <course>238.36</course>
  <speed>0.0</speed>
  <fix>3d</fix>
</trkpt>
<trkpt lat="40.0713749" lon="-105.229789">
  <ele>1583.0</ele>
  <time>2026-08-28T17:56:02Z</time>
  <course>0.0</course>
  <speed>0.0</speed>
  <fix>3d</fix>
</trkpt>
<trkpt lat="40.0713749" lon="-105.229789">
  <ele>1583.0</ele>
  <time>2026-08-28T17:56:02Z</time>
  <course>238.44</course>
  <speed>0.0</speed>
  <fix>3d</fix>
</trkpt>
<trkpt lat="40.0713749" lon="-105.229789">
  <ele>1583.0</ele>
  <time>2026-08-28T17:56:02Z</time>
  <course>0.0</course>
  <speed>0.0</speed>
  <fix>3d</fix>
</trkpt>
<trkpt lat="40.0713749" lon="-105.229789">
  <ele>1583.0</ele>
  <time>2026-08-28T17:56:02Z</time>
  <course>238.64</course>
  <speed>0.0</speed>
  <fix>3d</fix>
</trkpt>
<trkpt lat="40.0713749" lon="-105.229789">
  <ele>1583.0</ele>
  <time>2026-08-28T17:56:02Z</time>
  <course>0.0</course>
  <speed>0.0</speed>
  <fix>3d</fix>
</trkpt>
<trkpt lat="40.0713749" lon="-105.229789">
  <ele>1583.0</ele>
  <time>2026-08-28T17:56:02Z</time>
  <course>238.93</course>
  <speed>0.0</speed>
  <fix>3d</fix>
</trkpt>
<trkpt lat="40.0713749" lon="-105.229789">
  <ele>1583.0</ele>
  <time>2026-08-28T17:56:02Z</time>
  <course>0.0</course>
  <speed>0.0</speed>
  <fix>3d</fix>
</trkpt>
<trkpt lat="40.0713749" lon="-105.229789">
  <ele>1583.0</ele>
  <time>2026-08-28T17:56:02Z</time>
  <course>239.26</course>
  <speed>0.0</speed>
  <fix>3d</fix>
</trkpt>
<trkpt lat="40.0713749" lon="-105.229789">
  <ele>1583.0</ele>
  <time>2026-08-28T17:56:02Z</time>
  <course>0.0</course>
  <speed>0.0</speed>
  <fix>3d</fix>
</trkpt>
<trkpt lat="40.0713749" lon="-105.229789">
  <ele>1583.0</ele>
  <time>2026-08-28T17:56:02Z</time>
  <course>239.61</course>
  <speed>0.0</speed>
  <fix>3d</fix>
</trkpt>
<trkpt lat="40.0713749" lon="-105.229789">
  <ele>1583.0</ele>
  <time>2026-08-28T17:56:02Z</time>
  <course>0.0</course>
  <speed>0.0</speed>
  <fix>3d</fix>
</trkpt>
<trkpt lat="40.0713749" lon="-105.229789">
  <ele>1583.0</ele>
  <time>2026-08-28T17:56:02Z</time>
  <course>239.96</course>
  <speed>0.0</speed>
  <fix>3d</fix>
</trkpt>
<trkpt lat="40.0713749" lon="-105.229789">
  <ele>1583.0</ele>
  <time>2026-08-28T17:56:02Z</time>
  <course>0.0</course>
  <speed>0.0</speed>
  <fix>3d</fix>
</trkpt>
<trkpt lat="40.0713749" lon="-105.229789">
  <ele>1583.0</ele>
  <time>2026-08-28T17:56:02Z</time>
  <course>240.29</course>
  <speed>0.0</speed>
  <fix>3d</fix>
</trkpt>
<trkpt lat="40.0713749" lon="-105.229789">
  <ele>1583.0</ele>
  <time>2026-08-28T17:56:02Z</time>
  <course>0.0</course>
  <speed>0.0</speed>
  <fix>3d</fix>
</trkpt>
<trkpt lat="40.0713749" lon="-105.229789">
  <ele>1583.0</ele>
  <time>2026-08-28T17:56:02Z</time>
  <course>240.61</course>
  <speed>0.0</speed>
  <fix>3d</fix>
</trkpt>
<trkpt lat="40.0713749" lon="-105.229789">
  <ele>1583.0</ele>
  <time>2026-08-28T17:56:02Z</time>
  <course>0.0</course>
  <speed>0.0</speed>
  <fix>3d</fix>
</trkpt>
<trkpt lat="40.0713749" lon="-105.229789">
  <ele>1583.0</ele>
  <time>2026-08-28T17:56:02Z</time>
  <course>240.92</course>
  <speed>0.0</speed>
  <fix>3d</fix>
</trkpt>
<trkpt lat="40.0713749" lon="-105.229789">
  <ele>1583.0</ele>
  <time>2026-08-28T17:56:02Z</time>
  <course>0.0</course>
  <speed>0.0</speed>
  <fix>3d</fix>
</trkpt>
<trkpt lat="40.0713749" lon="-105.229789">
  <ele>1583.0</ele>
  <time>2026-08-28T17:56:02Z</time>
  <course>241.21</course>
  <speed>0.0</speed>
  <fix>3d</fix>
</trkpt>
<trkpt lat="40.0713749" lon="-105.229789">
  <ele>1583.0</ele>
  <time>2026-08-28T17:56:02Z</time>
  <course>0.0</course>
  <speed>0.0</speed>
  <fix>3d</fix>
</trkpt>
<trkpt lat="40.0713749" lon="-105.229789">
  <ele>1583.0</ele>
  <time>2026-08-28T17:56:02Z</time>
  <course>241.49</course>
  <speed>0.0</speed>
  <fix>3d</fix>
</trkpt>
<trkpt lat="40.0713749" lon="-105.229789">
  <ele>1583.0</ele>
  <time>2026-08-28T17:56:02Z</time>
  <course>0.0</course>
  <speed>0.0</speed>
  <fix>3d</fix>
</trkpt>
<trkpt lat="40.0713749" lon="-105.229789">
  <ele>1583.0</ele>
  <time>2026-08-28T17:56:02Z</time>
  <course>241.77</course>
  <speed>0.0</speed>
  <fix>3d</fix>
</trkpt>
<trkpt lat="40.0713749" lon="-105.229789">
  <ele>1583.0</ele>
  <time>2026-08-28T17:56:02Z</time>
  <course>0.0</course>
  <speed>0.0</speed>
  <fix>3d</fix>
</trkpt>
<trkpt lat="40.0713749" lon="-105.229789">
  <ele>1583.0</ele>
  <time>2026-08-28T17:56:02Z</time>
  <course>242.03</course>
  <speed>0.0</speed>
  <fix>3d</fix>
</trkpt>
<trkpt lat="40.0713749" lon="-105.229789">
  <ele>1583.0</ele>
  <time>2026-08-28T17:56:02Z</time>
  <course>0.0</course>
  <speed>0.0</speed>
  <fix>3d</fix>
</trkpt>
<trkpt lat="40.0713749" lon="-105.229789">
  <ele>1583.0</ele>
  <time>2026-08-28T17:56:02Z</time>
  <course>242.29</course>
  <speed>0.0</speed>
  <fix>3d</fix>
</trkpt>
<trkpt lat="40.0713749" lon="-105.229789">
  <ele>1583.0</ele>
  <time>2026-08-28T17:56:02Z</time>
  <course>0.0</course>
  <speed>0.0</speed>
  <fix>3d</fix>
</trkpt>
<trkpt lat="40.0713749" lon="-105.229789">
  <ele>1583.0</ele>
  <time>2026-08-28T17:56:02Z</time>
  <course>242.54</course>
  <speed>0.0</speed>
  <fix>3d</fix>
</trkpt>
<trkpt lat="40.0713749" lon="-105.229789">
  <ele>1583.0</ele>
  <time>2026-08-28T17:56:02Z</time>
  <course>0.0</course>
  <speed>0.0</speed>
  <fix>3d</fix>
</trkpt>
<trkpt lat="40.0713749" lon="-105.229789">
  <ele>1583.0</ele>
  <time>2026-08-28T17:56:02Z</time>
  <course>242.79</course>
  <speed>0.0</speed>
  <fix>3d</fix>
</trkpt>
<trkpt lat="40.0713749" lon="-105.229789">
  <ele>1583.0</ele>
  <time>2026-08-28T17:56:02Z</time>
  <course>0.0</course>
  <speed>0.0</speed>
  <fix>3d</fix>
</trkpt>
<trkpt lat="40.0713749" lon="-105.229789">
  <ele>1583.0</ele>
  <time>2026-08-28T17:56:02Z</time>
  <course>243.02</course>
  <speed>0.0</speed>
  <fix>3d</fix>
</trkpt>
<trkpt lat="40.0713749" lon="-105.229789">
  <ele>1583.0</ele>
  <time>2026-08-28T17:56:02Z</time>
  <course>0.0</course>
  <speed>0.0</speed>
  <fix>3d</fix>
</trkpt>
<trkpt lat="40.0713749" lon="-105.229789">
  <ele>1583.0</ele>
  <time>2026-08-28T17:56:02Z</time>
  <course>243.25</course>
  <speed>0.0</speed>
  <fix>3d</fix>
</trkpt>
<trkpt lat="40.0713749" lon="-105.229789">
  <ele>1583.0</ele>
  <time>2026-08-28T17:56:02Z</time>
  <course>0.0</course>
  <speed>0.0</speed>
  <fix>3d</fix>
</trkpt>
<trkpt lat="40.0713749" lon="-105.229789">
  <ele>1583.0</ele>
  <time>2026-08-28T17:56:02Z</time>
  <course>243.47</course>
  <speed>0.0</speed>
  <fix>3d</fix>
</trkpt>
<trkpt lat="40.0713749" lon="-105.229789">
  <ele>1583.0</ele>
  <time>2026-08-28T17:56:02Z</time>
  <course>0.0</course>
  <speed>0.0</speed>
  <fix>3d</fix>
</trkpt>
<trkpt lat="40.0713749" lon="-105.229789">
  <ele>1583.0</ele>
  <time>2026-08-28T17:56:02Z</time>
  <course>243.68</course>
  <speed>0.0</speed>
  <fix>3d</fix>
</trkpt>
<trkpt lat="40.0713749" lon="-105.229789">
  <ele>1583.0</ele>
  <time>2026-08-28T17:56:02Z</time>
  <course>0.0</course>
  <speed>0.0</speed>
  <fix>3d</fix>
</trkpt>
<trkpt lat="40.0713749" lon="-105.229789">
  <ele>1583.0</ele>
  <time>2026-08-28T17:56:02Z</time>
  <course>243.89</course>
  <speed>0.0</speed>
  <fix>3d</fix>
</trkpt>
<trkpt lat="40.0713749" lon="-105.229789">
  <ele>1583.0</ele>
  <time>2026-08-28T17:56:02Z</time>
  <course>0.0</course>
  <speed>0.0</speed>
  <fix>3d</fix>
</trkpt>
<trkpt lat="40.0713749" lon="-105.229789">
  <ele>1583.0</ele>
  <time>2026-08-28T17:56:02Z</time>
  <course>244.09</course>
  <speed>0.0</speed>
  <fix>3d</fix>
</trkpt>
<trkpt lat="40.0713749" lon="-105.229789">
  <ele>1583.0</ele>
  <time>2026-08-28T17:56:02Z</time>
  <course>0.0</course>
  <speed>0.0</speed>
  <fix>3d</fix>
</trkpt>
<trkpt lat="40.0713749" lon="-105.229789">
  <ele>1583.0</ele>
  <time>2026-08-28T17:56:02Z</time>
  <course>244.28</course>
  <speed>0.0</speed>
  <fix>3d</fix>
</trkpt>
<trkpt lat="40.0713749" lon="-105.229789">
  <ele>1583.0</ele>
  <time>2026-08-28T17:56:02Z</time>
  <course>0.0</course>
  <speed>0.0</speed>
  <fix>3d</fix>
</trkpt>
<trkpt lat="40.0713749" lon="-105.229789">
  <ele>1583.0</ele>
  <time>2026-08-28T17:56:02Z</time>
  <course>244.46</course>
  <speed>0.0</speed>
  <fix>3d</fix>
</trkpt>
<trkpt lat="40.0713749" lon="-105.229789">
  <ele>1583.0</ele>
  <time>2026-08-28T17:56:02Z</time>
  <course>0.0</course>
  <speed>0.0</speed>
  <fix>3d</fix>
</trkpt>
<trkpt lat="40.0713749" lon="-105.229789">
  <ele>1583.0</ele>
  <time>2026-08-28T17:56:02Z</time>
  <course>244.64</course>
  <speed>0.0</speed>
  <fix>3d</fix>
</trkpt>
<trkpt lat="40.0713749" lon="-105.229789">
  <ele>1583.0</ele>
  <time>2026-08-28T17:56:02Z</time>
  <course>0.0</course>
  <speed>0.0</speed>
  <fix>3d</fix>
</trkpt>
<trkpt lat="40.0713749" lon="-105.229789">
  <ele>1583.0</ele>
  <time>2026-08-28T17:56:02Z</time>
  <course>244.81</course>
  <speed>0.0</speed>
  <fix>3d</fix>
</trkpt>
<trkpt lat="40.0713749" lon="-105.229789">
  <ele>1583.0</ele>
  <time>2026-08-28T17:56:02Z</time>
  <course>0.0</course>
  <speed>0.0</speed>
  <fix>3d</fix>
</trkpt>
<trkpt lat="40.0713749" lon="-105.229789">
  <ele>1583.0</ele>
  <time>2026-08-28T17:56:02Z</time>
  <course>244.97</course>
  <speed>0.0</speed>
  <fix>3d</fix>
</trkpt>
<trkpt lat="40.0713749" lon="-105.229789">
  <ele>1583.0</ele>
  <time>2026-08-28T17:56:02Z</time>
  <course>0.0</course>
  <speed>0.0</speed>
  <fix>3d</fix>
</trkpt>
<trkpt lat="40.0713749" lon="-105.229789">
  <ele>1583.0</ele>
  <time>2026-08-28T17:56:02Z</time>
  <course>245.13</course>
  <speed>0.0</speed>
  <fix>3d</fix>
</trkpt>
<trkpt lat="40.0713749" lon="-105.229789">
  <ele>1583.0</ele>
  <time>2026-08-28T17:56:02Z</time>
  <course>0.0</course>
  <speed>0.0</speed>
  <fix>3d</fix>
</trkpt>
<trkpt lat="40.0713749" lon="-105.229789">
  <ele>1583.0</ele>
  <time>2026-08-28T17:56:02Z</time>
  <course>245.29</course>
  <speed>0.0</speed>
  <fix>3d</fix>
</trkpt>
<trkpt lat="40.0713749" lon="-105.229789">
  <ele>1583.0</ele>
  <time>2026-08-28T17:56:02Z</time>
  <course>0.0</course>
  <speed>0.0</speed>
  <fix>3d</fix>
</trkpt>
<trkpt lat="40.0713749" lon="-105.229789">
  <ele>1583.0</ele>
  <time>2026-08-28T17:56:02Z</time>
  <course>245.43</course>
  <speed>0.0</speed>
  <fix>3d</fix>
</trkpt>
<trkpt lat="40.0713749" lon="-105.229789">
  <ele>1583.0</ele>
  <time>2026-08-28T17:56:02Z</time>
  <course>0.0</course>
  <speed>0.0</speed>
  <fix>3d</fix>
</trkpt>
<trkpt lat="40.0713749" lon="-105.229789">
  <ele>1583.0</ele>
  <time>2026-08-28T17:56:02Z</time>
  <course>245.57</course>
  <speed>0.0</speed>
  <fix>3d</fix>
</trkpt>
<trkpt lat="40.0713749" lon="-105.229789">
  <ele>1583.0</ele>
  <time>2026-08-28T17:56:02Z</time>
  <course>0.0</course>
  <speed>0.0</speed>
  <fix>3d</fix>
</trkpt>
<trkpt lat="40.0713749" lon="-105.229789">
  <ele>1583.0</ele>
  <time>2026-08-28T17:56:02Z</time>
  <course>245.71</course>
  <speed>0.0</speed>
  <fix>3d</fix>
</trkpt>
<trkpt lat="40.0713749" lon="-105.229789">
  <ele>1583.0</ele>
  <time>2026-08-28T17:56:02Z</time>
  <course>0.0</course>
  <speed>0.0</speed>
  <fix>3d</fix>
</trkpt>
<trkpt lat="40.0713749" lon="-105.229789">
  <ele>1583.0</ele>
  <time>2026-08-28T17:56:02Z</time>
  <course>245.84</course>
  <speed>0.0</speed>
  <fix>3d</fix>
</trkpt>
<trkpt lat="40.0713749" lon="-105.229789">
  <ele>1583.0</ele>
  <time>2026-08-28T17:56:02Z</time>
  <course>0.0</course>
  <speed>0.0</speed>
  <fix>3d</fix>
</trkpt>
<trkpt lat="40.0713749" lon="-105.229789">
  <ele>1583.0</ele>
  <time>2026-08-28T17:56:02Z</time>
  <course>245.96</course>
  <speed>0.0</speed>
  <fix>3d</fix>
</trkpt>
<trkpt lat="40.0713749" lon="-105.229789">
  <ele>1583.0</ele>
  <time>2026-08-28T17:56:02Z</time>
  <course>0.0</course>
  <speed>0.0</speed>
  <fix>3d</fix>
</trkpt>
<trkpt lat="40.0713749" lon="-105.229789">
  <ele>1583.0</ele>
  <time>2026-08-28T17:56:02Z</time>
  <course>246.08</course>
  <speed>0.0</speed>
  <fix>3d</fix>
</trkpt>
<trkpt lat="40.0713749" lon="-105.229789">
  <ele>1583.0</ele>
  <time>2026-08-28T17:56:02Z</time>
  <course>0.0</course>
  <speed>0.0</speed>
  <fix>3d</fix>
</trkpt>
<trkpt lat="40.0713749" lon="-105.229789">
  <ele>1583.0</ele>
  <time>2026-08-28T17:56:02Z</time>
  <course>246.19</course>
  <speed>0.0</speed>
  <fix>3d</fix>
</trkpt>
<trkpt lat="40.0713749" lon="-105.229789">
  <ele>1583.0</ele>
  <time>2026-08-28T17:56:02Z</time>
  <course>0.0</course>
  <speed>0.0</speed>
  <fix>3d</fix>
</trkpt>
<trkpt lat="40.0713749" lon="-105.229789">
  <ele>1583.0</ele>
  <time>2026-08-28T17:56:02Z</time>
  <course>246.3</course>
  <speed>0.0</speed>
  <fix>3d</fix>
</trkpt>
<trkpt lat="40.0713749" lon="-105.229789">
  <ele>1583.0</ele>
  <time>2026-08-28T17:56:02Z</time>
  <course>0.0</course>
  <speed>0.0</speed>
  <fix>3d</fix>
</trkpt>
<trkpt lat="40.0713749" lon="-105.229789">
  <ele>1583.0</ele>
  <time>2026-08-28T17:56:02Z</time>
  <course>246.41</course>
  <speed>0.0</speed>
  <fix>3d</fix>
</trkpt>
<trkpt lat="40.0713749" lon="-105.229789">
  <ele>1583.0</ele>
  <time>2026-08-28T17:56:02Z</time>
  <course>0.0</course>
  <speed>0.0</speed>
  <fix>3d</fix>
</trkpt>
<trkpt lat="40.0713749" lon="-105.229789">
  <ele>1583.0</ele>
  <time>2026-08-28T17:56:02Z</time>
  <course>246.51</course>
  <speed>0.0</speed>
  <fix>3d</fix>
</trkpt>
<trkpt lat="40.0713749" lon="-105.229789">
  <ele>1583.0</ele>
  <time>2026-08-28T17:56:02Z</time>
  <course>0.0</course>
  <speed>0.0</speed>
  <fix>3d</fix>
</trkpt>
<trkpt lat="40.0713749" lon="-105.229789">
  <ele>1583.0</ele>
  <time>2026-08-28T17:56:02Z</time>
  <course>246.6</course>
  <speed>0.0</speed>
  <fix>3d</fix>
</trkpt>
<trkpt lat="40.0713749" lon="-105.229789">
  <ele>1583.0</ele>
  <time>2026-08-28T17:56:02Z</time>
  <course>0.0</course>
  <speed>0.0</speed>
  <fix>3d</fix>
</trkpt>
<trkpt lat="40.0713749" lon="-105.229789">
  <ele>1583.0</ele>
  <time>2026-08-28T17:56:02Z</time>
  <course>246.7</course>
  <speed>0.0</speed>
  <fix>3d</fix>
</trkpt>
<trkpt lat="40.0713749" lon="-105.229789">
  <ele>1583.0</ele>
  <time>2026-08-28T17:56:02Z</time>
  <course>0.0</course>
  <speed>0.0</speed>
  <fix>3d</fix>
</trkpt>
<trkpt lat="40.0713749" lon="-105.229789">
  <ele>1583.0</ele>
  <time>2026-08-28T17:56:02Z</time>
  <course>246.78</course>
  <speed>0.0</speed>
  <fix>3d</fix>
</trkpt>
<trkpt lat="40.0713749" lon="-105.229789">
  <ele>1583.0</ele>
  <time>2026-08-28T17:56:02Z</time>
  <course>0.0</course>
  <speed>0.0</speed>
  <fix>3d</fix>
</trkpt>
<trkpt lat="40.0713749" lon="-105.229789">
  <ele>1583.0</ele>
  <time>2026-08-28T17:56:02Z</time>
  <course>246.87</course>
  <speed>0.0</speed>
  <fix>3d</fix>
</trkpt>
<trkpt lat="40.0713749" lon="-105.229789">
  <ele>1583.0</ele>
  <time>2026-08-28T17:56:02Z</time>
  <course>0.0</course>
  <speed>0.0</speed>
  <fix>3d</fix>
</trkpt>
<trkpt lat="40.0713749" lon="-105.229789">
  <ele>1583.0</ele>
  <time>2026-08-28T17:56:02Z</time>
  <course>246.95</course>
  <speed>0.0</speed>
  <fix>3d</fix>
</trkpt>
<trkpt lat="40.0713749" lon="-105.229789">
  <ele>1583.0</ele>
  <time>2026-08-28T17:56:02Z</time>
  <course>0.0</course>
  <speed>0.0</speed>
  <fix>3d</fix>
</trkpt>
<trkpt lat="40.0713749" lon="-105.229789">
  <ele>1583.0</ele>
  <time>2026-08-28T17:56:02Z</time>
  <course>247.02</course>
  <speed>0.0</speed>
  <fix>3d</fix>
</trkpt>
<trkpt lat="40.0713749" lon="-105.229789">
  <ele>1583.0</ele>
  <time>2026-08-28T17:56:02Z</time>
  <course>0.0</course>
  <speed>0.0</speed>
  <fix>3d</fix>
</trkpt>
<trkpt lat="40.0713749" lon="-105.229789">
  <ele>1583.0</ele>
  <time>2026-08-28T17:56:02Z</time>
  <course>247.1</course>
  <speed>0.0</speed>
  <fix>3d</fix>
</trkpt>
<trkpt lat="40.0713749" lon="-105.229789">
  <ele>1583.0</ele>
  <time>2026-08-28T17:56:02Z</time>
  <course>0.0</course>
  <speed>0.0</speed>
  <fix>3d</fix>
</trkpt>
<trkpt lat="40.0713749" lon="-105.229789">
  <ele>1583.0</ele>
  <time>2026-08-28T17:56:02Z</time>
  <course>247.17</course>
  <speed>0.0</speed>
  <fix>3d</fix>
</trkpt>
<trkpt lat="40.0713749" lon="-105.229789">
  <ele>1583.0</ele>
  <time>2026-08-28T17:56:02Z</time>
  <course>0.0</course>
  <speed>0.0</speed>
  <fix>3d</fix>
</trkpt>
<trkpt lat="40.0713749" lon="-105.229789">
  <ele>1583.0</ele>
  <time>2026-08-28T17:56:02Z</time>
  <course>247.24</course>
  <speed>0.0</speed>
  <fix>3d</fix>
</trkpt>
<trkpt lat="40.0713749" lon="-105.229789">
  <ele>1583.0</ele>
  <time>2026-08-28T17:56:02Z</time>
  <course>0.0</course>
  <speed>0.0</speed>
  <fix>3d</fix>
</trkpt>
<trkpt lat="40.0713749" lon="-105.229789">
  <ele>1583.0</ele>
  <time>2026-08-28T17:56:02Z</time>
  <course>247.3</course>
  <speed>0.0</speed>
  <fix>3d</fix>
</trkpt>
<trkpt lat="40.0713749" lon="-105.229789">
  <ele>1583.0</ele>
  <time>2026-08-28T17:56:02Z</time>
  <course>0.0</course>
  <speed>0.0</speed>
  <fix>3d</fix>
</trkpt>
<trkpt lat="40.0713749" lon="-105.229789">
  <ele>1583.0</ele>
  <time>2026-08-28T17:56:02Z</time>
  <course>247.36</course>
  <speed>0.0</speed>
  <fix>3d</fix>
</trkpt>
<trkpt lat="40.0713749" lon="-105.229789">
  <ele>1583.0</ele>
  <time>2026-08-28T17:56:02Z</time>
  <course>0.0</course>
  <speed>0.0</speed>
  <fix>3d</fix>
</trkpt>
<trkpt lat="40.0713749" lon="-105.229789">
  <ele>1583.0</ele>
  <time>2026-08-28T17:56:02Z</time>
  <course>247.42</course>
  <speed>0.0</speed>
  <fix>3d</fix>
</trkpt>
<trkpt lat="40.0713749" lon="-105.229789">
  <ele>1583.0</ele>
  <time>2026-08-28T17:56:02Z</time>
  <course>0.0</course>
  <speed>0.0</speed>
  <fix>3d</fix>
</trkpt>
<trkpt lat="40.0713749" lon="-105.229789">
  <ele>1583.0</ele>
  <time>2026-08-28T17:56:02Z</time>
  <course>247.47</course>
  <speed>0.0</speed>
  <fix>3d</fix>
</trkpt>
<trkpt lat="40.0713749" lon="-105.229789">
  <ele>1583.0</ele>
  <time>2026-08-28T17:56:02Z</time>
  <course>0.0</course>
  <speed>0.0</speed>
  <fix>3d</fix>
</trkpt>
<trkpt lat="40.0713749" lon="-105.229789">
  <ele>1583.0</ele>
  <time>2026-08-28T17:56:02Z</time>
  <course>247.53</course>
  <speed>0.0</speed>
  <fix>3d</fix>
</trkpt>
<trkpt lat="40.0713749" lon="-105.229789">
  <ele>1583.0</ele>
  <time>2026-08-28T17:56:02Z</time>
  <course>0.0</course>
  <speed>0.0</speed>
  <fix>3d</fix>
</trkpt>
<trkpt lat="40.0713749" lon="-105.229789">
  <ele>1583.0</ele>
  <time>2026-08-28T17:56:02Z</time>
  <course>247.58</course>
  <speed>0.0</speed>
  <fix>3d</fix>
</trkpt>
<trkpt lat="40.0713749" lon="-105.229789">
  <ele>1583.0</ele>
  <time>2026-08-28T17:56:02Z</time>
  <course>0.0</course>
  <speed>0.0</speed>
  <fix>3d</fix>
</trkpt>
<trkpt lat="40.0713749" lon="-105.229789">
  <ele>1583.0</ele>
  <time>2026-08-28T17:56:02Z</time>
  <course>247.63</course>
  <speed>0.0</speed>
  <fix>3d</fix>
</trkpt>
<trkpt lat="40.0713749" lon="-105.229789">
  <ele>1583.0</ele>
  <time>2026-08-28T17:56:02Z</time>
  <course>0.0</course>
  <speed>0.0</speed>
  <fix>3d</fix>
</trkpt>
<trkpt lat="40.0713749" lon="-105.229789">
  <ele>1583.0</ele>
  <time>2026-08-28T17:56:02Z</time>
  <course>247.67</course>
  <speed>0.0</speed>
  <fix>3d</fix>
</trkpt>
<trkpt lat="40.0713749" lon="-105.229789">
  <ele>1583.0</ele>
  <time>2026-08-28T17:56:02Z</time>
  <course>0.0</course>
  <speed>0.0</speed>
  <fix>3d</fix>
</trkpt>
<trkpt lat="40.0713749" lon="-105.229789">
  <ele>1583.0</ele>
  <time>2026-08-28T17:56:02Z</time>
  <course>247.72</course>
  <speed>0.0</speed>
  <fix>3d</fix>
</trkpt>
<trkpt lat="40.0713749" lon="-105.229789">
  <ele>1583.0</ele>
  <time>2026-08-28T17:56:02Z</time>
  <course>0.0</course>
  <speed>0.0</speed>
  <fix>3d</fix>
</trkpt>
<trkpt lat="40.0713749" lon="-105.229789">
  <ele>1583.0</ele>
  <time>2026-08-28T17:56:02Z</time>
  <course>247.76</course>
  <speed>0.0</speed>
  <fix>3d</fix>
</trkpt>
<trkpt lat="40.0713749" lon="-105.229789">
  <ele>1583.0</ele>
  <time>2026-08-28T17:56:02Z</time>
  <course>0.0</course>
  <speed>0.0</speed>
  <fix>3d</fix>
</trkpt>
<trkpt lat="40.0713749" lon="-105.229789">
  <ele>1583.0</ele>
  <time>2026-08-28T17:56:02Z</time>
  <course>247.8</course>
  <speed>0.0</speed>
  <fix>3d</fix>
</trkpt>
<trkpt lat="40.0713749" lon="-105.229789">
  <ele>1583.0</ele>
  <time>2026-08-28T17:56:02Z</time>
  <course>0.0</course>
  <speed>0.0</speed>
  <fix>3d</fix>
</trkpt>
<trkpt lat="40.0713749" lon="-105.229789">
  <ele>1583.0</ele>
  <time>2026-08-28T17:56:02Z</time>
  <course>247.83</course>
  <speed>0.0</speed>
  <fix>3d</fix>
</trkpt>
<trkpt lat="40.0713749" lon="-105.229789">
  <ele>1583.0</ele>
  <time>2026-08-28T17:56:02Z</time>
  <course>0.0</course>
  <speed>0.0</speed>
  <fix>3d</fix>
</trkpt>
<trkpt lat="40.0713749" lon="-105.229789">
  <ele>1583.0</ele>
  <time>2026-08-28T17:56:02Z</time>
  <course>247.87</course>
  <speed>0.0</speed>
  <fix>3d</fix>
</trkpt>
<trkpt lat="40.0713749" lon="-105.229789">
  <ele>1583.0</ele>
  <time>2026-08-28T17:56:02Z</time>
  <course>0.0</course>
  <speed>0.0</speed>
  <fix>3d</fix>
</trkpt>
<trkpt lat="40.0713749" lon="-105.229789">
  <ele>1583.0</ele>
  <time>2026-08-28T17:56:02Z</time>
  <course>247.9</course>
  <speed>0.0</speed>
  <fix>3d</fix>
</trkpt>
<trkpt lat="40.0713749" lon="-105.229789">
  <ele>1583.0</ele>
  <time>2026-08-28T17:56:02Z</time>
  <course>0.0</course>
  <speed>0.0</speed>
  <fix>3d</fix>
</trkpt>
<trkpt lat="40.0713749" lon="-105.229789">
  <ele>1583.0</ele>
  <time>2026-08-28T17:56:02Z</time>
  <course>247.94</course>
  <speed>0.0</speed>
  <fix>3d</fix>
</trkpt>
<trkpt lat="40.0713749" lon="-105.229789">
  <ele>1583.0</ele>
  <time>2026-08-28T17:56:02Z</time>
  <course>0.0</course>
  <speed>0.0</speed>
  <fix>3d</fix>
</trkpt>
<trkpt lat="40.0713749" lon="-105.229789">
  <ele>1583.0</ele>
  <time>2026-08-28T17:56:02Z</time>
  <course>247.97</course>
  <speed>0.0</speed>
  <fix>3d</fix>
</trkpt>
<trkpt lat="40.0713749" lon="-105.229789">
  <ele>1583.0</ele>
  <time>2026-08-28T17:56:02Z</time>
  <course>0.0</course>
  <speed>0.0</speed>
  <fix>3d</fix>
</trkpt>
<trkpt lat="40.0713749" lon="-105.229789">
  <ele>1583.0</ele>
  <time>2026-08-28T17:56:02Z</time>
  <course>248.0</course>
  <speed>0.0</speed>
  <fix>3d</fix>
</trkpt>
<trkpt lat="40.0713749" lon="-105.229789">
  <ele>1583.0</ele>
  <time>2026-08-28T17:56:02Z</time>
  <course>0.0</course>
  <speed>0.0</speed>
  <fix>3d</fix>
</trkpt>
<trkpt lat="40.0713749" lon="-105.229789">
  <ele>1583.0</ele>
  <time>2026-08-28T17:56:02Z</time>
  <course>248.02</course>
  <speed>0.0</speed>
  <fix>3d</fix>
</trkpt>
<trkpt lat="40.0713749" lon="-105.229789">
  <ele>1583.0</ele>
  <time>2026-08-28T17:56:02Z</time>
  <course>0.0</course>
  <speed>0.0</speed>
  <fix>3d</fix>
</trkpt>
<trkpt lat="40.0713749" lon="-105.229789">
  <ele>1583.0</ele>
  <time>2026-08-28T17:56:02Z</time>
  <course>248.05</course>
  <speed>0.0</speed>
  <fix>3d</fix>
</trkpt>
<trkpt lat="40.0713749" lon="-105.229789">
  <ele>1583.0</ele>
  <time>2026-08-28T17:56:02Z</time>
  <course>0.0</course>
  <speed>0.0</speed>
  <fix>3d</fix>
</trkpt>
<trkpt lat="40.0713749" lon="-105.229789">
  <ele>1583.0</ele>
  <time>2026-08-28T17:56:02Z</time>
  <course>248.08</course>
  <speed>0.0</speed>
  <fix>3d</fix>
</trkpt>
<trkpt lat="40.0713749" lon="-105.229789">
  <ele>1583.0</ele>
  <time>2026-08-28T17:56:02Z</time>
  <course>0.0</course>
  <speed>0.0</speed>
  <fix>3d</fix>
</trkpt>
<trkpt lat="40.0713749" lon="-105.229789">
  <ele>1583.0</ele>
  <time>2026-08-28T17:56:02Z</time>
  <course>248.1</course>
  <speed>0.0</speed>
  <fix>3d</fix>
</trkpt>
<trkpt lat="40.0713749" lon="-105.229789">
  <ele>1583.0</ele>
  <time>2026-08-28T17:56:02Z</time>
  <course>0.0</course>
  <speed>0.0</speed>
  <fix>3d</fix>
</trkpt>
<trkpt lat="40.0713749" lon="-105.229789">
  <ele>1583.0</ele>
  <time>2026-08-28T17:56:02Z</time>
  <course>248.12</course>
  <speed>0.0</speed>
  <fix>3d</fix>
</trkpt>
<trkpt lat="40.0713749" lon="-105.229789">
  <ele>1583.0</ele>
  <time>2026-08-28T17:56:02Z</time>
  <course>0.0</course>
  <speed>0.0</speed>
  <fix>3d</fix>
</trkpt>
<trkpt lat="40.0713749" lon="-105.229789">
  <ele>1583.0</ele>
  <time>2026-08-28T17:56:02Z</time>
  <course>248.14</course>
  <speed>0.0</speed>
  <fix>3d</fix>
</trkpt>
<trkpt lat="40.0713749" lon="-105.229789">
  <ele>1583.0</ele>
  <time>2026-08-28T17:56:02Z</time>
  <course>0.0</course>
  <speed>0.0</speed>
  <fix>3d</fix>
</trkpt>
<trkpt lat="40.0713749" lon="-105.229789">
  <ele>1583.0</ele>
  <time>2026-08-28T17:56:02Z</time>
  <course>248.16</course>
  <speed>0.0</speed>
  <fix>3d</fix>
</trkpt>
<trkpt lat="40.0713749" lon="-105.229789">
  <ele>1583.0</ele>
  <time>2026-08-28T17:56:02Z</time>
  <course>0.0</course>
  <speed>0.0</speed>
  <fix>3d</fix>
</trkpt>
<trkpt lat="40.0713749" lon="-105.229789">
  <ele>1583.0</ele>
  <time>2026-08-28T17:56:02Z</time>
  <course>248.18</course>
  <speed>0.0</speed>
  <fix>3d</fix>
</trkpt>
<trkpt lat="40.0713749" lon="-105.229789">
  <ele>1583.0</ele>
  <time>2026-08-28T17:56:02Z</time>
  <course>0.0</course>
  <speed>0.0</speed>
  <fix>3d</fix>
</trkpt>
<trkpt lat="40.0713749" lon="-105.229789">
  <ele>1583.0</ele>
  <time>2026-08-28T17:56:02Z</time>
  <course>248.2</course>
  <speed>0.0</speed>
  <fix>3d</fix>
</trkpt>
<trkpt lat="40.0713749" lon="-105.229789">
  <ele>1583.0</ele>
  <time>2026-08-28T17:56:02Z</time>
  <course>0.0</course>
  <speed>0.0</speed>
  <fix>3d</fix>
</trkpt>
<trkpt lat="40.0713749" lon="-105.229789">
  <ele>1583.0</ele>
  <time>2026-08-28T17:56:02Z</time>
  <course>248.22</course>
  <speed>0.0</speed>
  <fix>3d</fix>
</trkpt>
<trkpt lat="40.0713749" lon="-105.229789">
  <ele>1583.0</ele>
  <time>2026-08-28T17:56:02Z</time>
  <course>0.0</course>
  <speed>0.0</speed>
  <fix>3d</fix>
</trkpt>
<trkpt lat="40.0713749" lon="-105.229789">
  <ele>1583.0</ele>
  <time>2026-08-28T17:56:02Z</time>
  <course>248.23</course>
  <speed>0.0</speed>
  <fix>3d</fix>
</trkpt>
<trkpt lat="40.0713749" lon="-105.229789">
  <ele>1583.0</ele>
  <time>2026-08-28T17:56:02Z</time>
  <course>0.0</course>
  <speed>0.0</speed>
  <fix>3d</fix>
</trkpt>
<trkpt lat="40.0713749" lon="-105.229789">
  <ele>1583.0</ele>
  <time>2026-08-28T17:56:02Z</time>
  <course>248.25</course>
  <speed>0.0</speed>
  <fix>3d</fix>
</trkpt>
<trkpt lat="40.0713749" lon="-105.229789">
  <ele>1583.0</ele>
  <time>2026-08-28T17:56:02Z</time>
  <course>0.0</course>
  <speed>0.0</speed>
  <fix>3d</fix>
</trkpt>
<trkpt lat="40.0713749" lon="-105.229789">
  <ele>1583.0</ele>
  <time>2026-08-28T17:56:02Z</time>
  <course>248.26</course>
  <speed>0.0</speed>
  <fix>3d</fix>
</trkpt>
<trkpt lat="40.0713749" lon="-105.229789">
  <ele>1583.0</ele>
  <time>2026-08-28T17:56:02Z</time>
  <course>0.0</course>
  <speed>0.0</speed>
  <fix>3d</fix>
</trkpt>
<trkpt lat="40.0713749" lon="-105.229789">
  <ele>1583.0</ele>
  <time>2026-08-28T17:56:02Z</time>
  <course>248.28</course>
  <speed>0.0</speed>
  <fix>3d</fix>
</trkpt>
<trkpt lat="40.0713749" lon="-105.229789">
  <ele>1583.0</ele>
  <time>2026-08-28T17:56:02Z</time>
  <course>0.0</course>
  <speed>0.0</speed>
  <fix>3d</fix>
</trkpt>
<trkpt lat="40.0713749" lon="-105.229789">
  <ele>1583.0</ele>
  <time>2026-08-28T17:56:02Z</time>
  <course>248.29</course>
  <speed>0.0</speed>
  <fix>3d</fix>
</trkpt>
<trkpt lat="40.0713749" lon="-105.229789">
  <ele>1583.0</ele>
  <time>2026-08-28T17:56:02Z</time>
  <course>0.0</course>
  <speed>0.0</speed>
  <fix>3d</fix>
</trkpt>
<trkpt lat="40.0713749" lon="-105.229789">
  <ele>1583.0</ele>
  <time>2026-08-28T17:56:02Z</time>
  <course>248.3</course>
  <speed>0.0</speed>
  <fix>3d</fix>
</trkpt>
<trkpt lat="40.0713749" lon="-105.229789">
  <ele>1583.0</ele>
  <time>2026-08-28T17:56:02Z</time>
  <course>0.0</course>
  <speed>0.0</speed>
  <fix>3d</fix>
</trkpt>
<trkpt lat="40.0713749" lon="-105.229789">
  <ele>1583.0</ele>
  <time>2026-08-28T17:56:02Z</time>
  <course>248.31</course>
  <speed>0.0</speed>
  <fix>3d</fix>
</trkpt>
<trkpt lat="40.0713749" lon="-105.229789">
  <ele>1583.0</ele>
  <time>2026-08-28T17:56:02Z</time>
  <course>0.0</course>
  <speed>0.0</speed>
  <fix>3d</fix>
</trkpt>
<trkpt lat="40.0713749" lon="-105.229789">
  <ele>1583.0</ele>
  <time>2026-08-28T17:56:02Z</time>
  <course>248.32</course>
  <speed>0.0</speed>
  <fix>3d</fix>
</trkpt>
<trkpt lat="40.0713749" lon="-105.229789">
  <ele>1583.0</ele>
  <time>2026-08-28T17:56:02Z</time>
  <course>0.0</course>
  <speed>0.0</speed>
  <fix>3d</fix>
</trkpt>
<trkpt lat="40.0713749" lon="-105.229789">
  <ele>1583.0</ele>
  <time>2026-08-28T17:56:02Z</time>
  <course>248.33</course>
  <speed>0.0</speed>
  <fix>3d</fix>
</trkpt>
<trkpt lat="40.0713749" lon="-105.229789">
  <ele>1583.0</ele>
  <time>2026-08-28T17:56:02Z</time>
  <course>0.0</course>
  <speed>0.0</speed>
  <fix>3d</fix>
</trkpt>
<trkpt lat="40.0713749" lon="-105.229789">
  <ele>1583.0</ele>
  <time>2026-08-28T17:56:02Z</time>
  <course>248.34</course>
  <speed>0.0</speed>
  <fix>3d</fix>
</trkpt>
<trkpt lat="40.0713749" lon="-105.229789">
  <ele>1583.0</ele>
  <time>2026-08-28T17:56:02Z</time>
  <course>0.0</course>
  <speed>0.0</speed>
  <fix>3d</fix>
</trkpt>
<trkpt lat="40.0713749" lon="-105.229789">
  <ele>1583.0</ele>
  <time>2026-08-28T17:56:02Z</time>
  <course>248.35</course>
  <speed>0.0</speed>
  <fix>3d</fix>
</trkpt>
<trkpt lat="40.0713749" lon="-105.229789">
  <ele>1583.0</ele>
  <time>2026-08-28T17:56:02Z</time>
  <course>0.0</course>
  <speed>0.0</speed>
  <fix>3d</fix>
</trkpt>
<trkpt lat="40.0713749" lon="-105.229789">
  <ele>1583.0</ele>
  <time>2026-08-28T17:56:02Z</time>
  <course>248.35</course>
  <speed>0.0</speed>
  <fix>3d</fix>
</trkpt>
<trkpt lat="40.0713749" lon="-105.229789">
  <ele>1583.0</ele>
  <time>2026-08-28T17:56:02Z</time>
  <course>0.0</course>
  <speed>0.0</speed>
  <fix>3d</fix>
</trkpt>
<trkpt lat="40.0713749" lon="-105.229789">
  <ele>1583.0</ele>
  <time>2026-08-28T17:56:02Z</time>
  <course>248.36</course>
  <speed>0.0</speed>
  <fix>3d</fix>
</trkpt>
<trkpt lat="40.0713749" lon="-105.229789">
  <ele>1583.0</ele>
  <time>2026-08-28T17:56:02Z</time>
  <course>0.0</course>
  <speed>0.0</speed>
  <fix>3d</fix>
</trkpt>
<trkpt lat="40.0713749" lon="-105.229789">
  <ele>1583.0</ele>
  <time>2026-08-28T17:56:02Z</time>
  <course>248.37</course>
  <speed>0.0</speed>
  <fix>3d</fix>
</trkpt>
<trkpt lat="40.0713749" lon="-105.229789">
  <ele>1583.0</ele>
  <time>2026-08-28T17:56:02Z</time>
  <course>0.0</course>
  <speed>0.0</speed>
  <fix>3d</fix>
</trkpt>
<trkpt lat="40.0713749" lon="-105.229789">
  <ele>1583.0</ele>
  <time>2026-08-28T17:56:02Z</time>
  <course>248.37</course>
  <speed>0.0</speed>
  <fix>3d</fix>
</trkpt>
<trkpt lat="40.0713749" lon="-105.229789">
  <ele>1583.0</ele>
  <time>2026-08-28T17:56:02Z</time>
  <course>0.0</course>
  <speed>0.0</speed>
  <fix>3d</fix>
</trkpt>
<trkpt lat="40.0713749" lon="-105.229789">
  <ele>1583.0</ele>
  <time>2026-08-28T17:56:02Z</time>
  <course>248.38</course>
  <speed>0.0</speed>
  <fix>3d</fix>
</trkpt>
<trkpt lat="40.0713749" lon="-105.229789">
  <ele>1583.0</ele>
  <time>2026-08-28T17:56:02Z</time>
  <course>0.0</course>
  <speed>0.0</speed>
  <fix>3d</fix>
</trkpt>
<trkpt lat="40.0713749" lon="-105.229789">
  <ele>1583.0</ele>
  <time>2026-08-28T17:56:02Z</time>
  <course>248.38</course>
  <speed>0.0</speed>
  <fix>3d</fix>
</trkpt>
<trkpt lat="40.0713749" lon="-105.229789">
  <ele>1583.0</ele>
  <time>2026-08-28T17:56:02Z</time>
  <course>0.0</course>
  <speed>0.0</speed>
  <fix>3d</fix>
</trkpt>
<trkpt lat="40.0713749" lon="-105.229789">
  <ele>1583.0</ele>
  <time>2026-08-28T17:56:02Z</time>
  <course>248.39</course>
  <speed>0.0</speed>
  <fix>3d</fix>
</trkpt>
<trkpt lat="40.0713749" lon="-105.229789">
  <ele>1583.0</ele>
  <time>2026-08-28T17:56:02Z</time>
  <course>0.0</course>
  <speed>0.0</speed>
  <fix>3d</fix>
</trkpt>
<trkpt lat="40.0713749" lon="-105.229789">
  <ele>1583.0</ele>
  <time>2026-08-28T17:56:02Z</time>
  <course>248.39</course>
  <speed>0.0</speed>
  <fix>3d</fix>
</trkpt>
<trkpt lat="40.0713749" lon="-105.229789">
  <ele>1583.0</ele>
  <time>2026-08-28T17:56:02Z</time>
  <course>0.0</course>
  <speed>0.0</speed>
  <fix>3d</fix>
</trkpt>
<trkpt lat="40.0713749" lon="-105.229789">
  <ele>1583.0</ele>
  <time>2026-08-28T17:56:02Z</time>
  <course>248.4</course>
  <speed>0.0</speed>
  <fix>3d</fix>
</trkpt>
<trkpt lat="40.0713749" lon="-105.229789">
  <ele>1583.0</ele>
  <time>2026-08-28T17:56:02Z</time>
  <course>0.0</course>
  <speed>0.0</speed>
  <fix>3d</fix>
</trkpt>
<trkpt lat="40.0713749" lon="-105.229789">
  <ele>1583.0</ele>
  <time>2026-08-28T17:56:02Z</time>
  <course>248.4</course>
  <speed>0.0</speed>
  <fix>3d</fix>
</trkpt>
<trkpt lat="40.0713749" lon="-105.229789">
  <ele>1583.0</ele>
  <time>2026-08-28T17:56:02Z</time>
  <course>0.0</course>
  <speed>0.0</speed>
  <fix>3d</fix>
</trkpt>
<trkpt lat="40.0713749" lon="-105.229789">
  <ele>1583.0</ele>
  <time>2026-08-28T17:56:02Z</time>
  <course>248.4</course>
  <speed>0.0</speed>
  <fix>3d</fix>
</trkpt>
<trkpt lat="40.0713749" lon="-105.229789">
  <ele>1583.0</ele>
  <time>2026-08-28T17:56:02Z</time>
  <course>0.0</course>
  <speed>0.0</speed>
  <fix>3d</fix>
</trkpt>
<trkpt lat="40.0713749" lon="-105.229789">
  <ele>1583.0</ele>
  <time>2026-08-28T17:56:02Z</time>
  <course>248.4</course>
  <speed>0.0</speed>
  <fix>3d</fix>
</trkpt>
<trkpt lat="40.0713749" lon="-105.229789">
  <ele>1583.0</ele>
  <time>2026-08-28T17:56:02Z</time>
  <course>0.0</course>
  <speed>0.0</speed>
  <fix>3d</fix>
</trkpt>
<trkpt lat="40.0713749" lon="-105.229789">
  <ele>1583.0</ele>
  <time>2026-08-28T17:56:02Z</time>
  <course>248.41</course>
  <speed>0.0</speed>
  <fix>3d</fix>
</trkpt>
<trkpt lat="40.0713749" lon="-105.229789">
  <ele>1583.0</ele>
  <time>2026-08-28T17:56:02Z</time>
  <course>0.0</course>
  <speed>0.0</speed>
  <fix>3d</fix>
</trkpt>
<trkpt lat="40.0713749" lon="-105.229789">
  <ele>1583.0</ele>
  <time>2026-08-28T17:56:02Z</time>
  <course>248.41</course>
  <speed>0.0</speed>
  <fix>3d</fix>
</trkpt>
<trkpt lat="40.0713749" lon="-105.229789">
  <ele>1583.0</ele>
  <time>2026-08-28T17:56:02Z</time>
  <course>0.0</course>
  <speed>0.0</speed>
  <fix>3d</fix>
</trkpt>
<trkpt lat="40.0713749" lon="-105.229789">
  <ele>1583.0</ele>
  <time>2026-08-28T17:56:02Z</time>
  <course>248.41</course>
  <speed>0.0</speed>
  <fix>3d</fix>
</trkpt>
<trkpt lat="40.0713749" lon="-105.229789">
  <ele>1583.0</ele>
  <time>2026-08-28T17:56:02Z</time>
  <course>0.0</course>
  <speed>0.0</speed>
  <fix>3d</fix>
</trkpt>
<trkpt lat="40.0713749" lon="-105.229789">
  <ele>1583.0</ele>
  <time>2026-08-28T17:56:02Z</time>
  <course>248.41</course>
  <speed>0.0</speed>
  <fix>3d</fix>
</trkpt>
<trkpt lat="40.0713749" lon="-105.229789">
  <ele>1583.0</ele>
  <time>2026-08-28T17:56:02Z</time>
  <course>0.0</course>
  <speed>0.0</speed>
  <fix>3d</fix>
</trkpt>
<trkpt lat="40.0713749" lon="-105.229789">
  <ele>1583.0</ele>
  <time>2026-08-28T17:56:02Z</time>
  <course>248.41</course>
  <speed>0.0</speed>
  <fix>3d</fix>
</trkpt>
<trkpt lat="40.0713749" lon="-105.229789">
  <ele>1583.0</ele>
  <time>2026-08-28T17:56:02Z</time>
  <course>0.0</course>
  <speed>0.0</speed>
  <fix>3d</fix>
</trkpt>
<trkpt lat="40.0713749" lon="-105.229789">
  <ele>1583.0</ele>
  <time>2026-08-28T17:56:02Z</time>
  <course>248.41</course>
  <speed>0.0</speed>
  <fix>3d</fix>
</trkpt>
<trkpt lat="40.0713749" lon="-105.229789">
  <ele>1583.0</ele>
  <time>2026-08-28T17:56:02Z</time>
  <course>0.0</course>
  <speed>0.0</speed>
  <fix>3d</fix>
</trkpt>
<trkpt lat="40.0713749" lon="-105.229789">
  <ele>1583.0</ele>
  <time>2026-08-28T17:56:02Z</time>
  <course>248.41</course>
  <speed>0.0</speed>
  <fix>3d</fix>
</trkpt>
<trkpt lat="40.0713749" lon="-105.229789">
  <ele>1583.0</ele>
  <time>2026-08-28T17:56:02Z</time>
  <course>0.0</course>
  <speed>0.0</speed>
  <fix>3d</fix>
</trkpt>
<trkpt lat="40.0713749" lon="-105.229789">
  <ele>1583.0</ele>
  <time>2026-08-28T17:56:02Z</time>
  <course>248.41</course>
  <speed>0.0</speed>
  <fix>3d</fix>
</trkpt>
<trkpt lat="40.0713749" lon="-105.229789">
  <ele>1583.0</ele>
  <time>2026-08-28T17:56:02Z</time>
  <course>0.0</course>
  <speed>0.0</speed>
  <fix>3d</fix>
</trkpt>
<trkpt lat="40.0713749" lon="-105.229789">
  <ele>1583.0</ele>
  <time>2026-08-28T17:56:02Z</time>
  <course>248.41</course>
  <speed>0.0</speed>
  <fix>3d</fix>
</trkpt>
<trkpt lat="40.0713749" lon="-105.229789">
  <ele>1583.0</ele>
  <time>2026-08-28T17:56:02Z</time>
  <course>0.0</course>
  <speed>0.0</speed>
  <fix>3d</fix>
</trkpt>
<trkpt lat="40.0713749" lon="-105.229789">
  <ele>1583.0</ele>
  <time>2026-08-28T17:56:02Z</time>
  <course>248.41</course>
  <speed>0.0</speed>
  <fix>3d</fix>
</trkpt>
<trkpt lat="40.0713749" lon="-105.229789">
  <ele>1583.0</ele>
  <time>2026-08-28T17:56:02Z</time>
  <course>0.0</course>
  <speed>0.0</speed>
  <fix>3d</fix>
</trkpt>
<trkpt lat="40.0713749" lon="-105.229789">
  <ele>1583.0</ele>
  <time>2026-08-28T17:56:02Z</time>
  <course>248.41</course>
  <speed>0.0</speed>
  <fix>3d</fix>
</trkpt>
<trkpt lat="40.0713749" lon="-105.229789">
  <ele>1583.0</ele>
  <time>2026-08-28T17:56:02Z</time>
  <course>0.0</course>
  <speed>0.0</speed>
  <fix>3d</fix>
</trkpt>
<trkpt lat="40.0713749" lon="-105.229789">
  <ele>1583.0</ele>
  <time>2026-08-28T17:56:02Z</time>
  <course>248.41</course>
  <speed>0.0</speed>
  <fix>3d</fix>
</trkpt>
<trkpt lat="40.0713749" lon="-105.229789">
  <ele>1583.0</ele>
  <time>2026-08-28T17:56:02Z</time>
  <course>0.0</course>
  <speed>0.0</speed>
  <fix>3d</fix>
</trkpt>
<trkpt lat="40.0713749" lon="-105.229789">
  <ele>1583.0</ele>
  <time>2026-08-28T17:56:02Z</time>
  <course>248.41</course>
  <speed>0.0</speed>
  <fix>3d</fix>
</trkpt>
<trkpt lat="40.0713749" lon="-105.229789">
  <ele>1583.0</ele>
  <time>2026-08-28T17:56:02Z</time>
  <course>0.0</course>
  <speed>0.0</speed>
  <fix>3d</fix>
</trkpt>
<trkpt lat="40.0713749" lon="-105.229789">
  <ele>1583.0</ele>
  <time>2026-08-28T17:56:02Z</time>
  <course>248.41</course>
  <speed>0.0</speed>
  <fix>3d</fix>
</trkpt>
<trkpt lat="40.0713749" lon="-105.229789">
  <ele>1583.0</ele>
  <time>2026-08-28T17:56:02Z</time>
  <course>0.0</course>
  <speed>0.0</speed>
  <fix>3d</fix>
</trkpt>
<trkpt lat="40.0713749" lon="-105.229789">
  <ele>1583.0</ele>
  <time>2026-08-28T17:56:02Z</time>
  <course>248.41</course>
  <speed>0.0</speed>
  <fix>3d</fix>
</trkpt>
<trkpt lat="40.0713749" lon="-105.229789">
  <ele>1583.0</ele>
  <time>2026-08-28T17:56:02Z</time>
  <course>0.0</course>
  <speed>0.0</speed>
  <fix>3d</fix>
</trkpt>
<trkpt lat="40.0713749" lon="-105.229789">
  <ele>1583.0</ele>
  <time>2026-08-28T17:56:02Z</time>
  <course>248.41</course>
  <speed>0.0</speed>
  <fix>3d</fix>
</trkpt>
<trkpt lat="40.0713749" lon="-105.229789">
  <ele>1583.0</ele>
  <time>2026-08-28T17:56:02Z</time>
  <course>0.0</course>
  <speed>0.0</speed>
  <fix>3d</fix>
</trkpt>
<trkpt lat="40.0713749" lon="-105.229789">
  <ele>1583.0</ele>
  <time>2026-08-28T17:56:02Z</time>
  <course>248.4</course>
  <speed>0.0</speed>
  <fix>3d</fix>
</trkpt>
<trkpt lat="40.0713749" lon="-105.229789">
  <ele>1583.0</ele>
  <time>2026-08-28T17:56:02Z</time>
  <course>0.0</course>
  <speed>0.0</speed>
  <fix>3d</fix>
</trkpt>
<trkpt lat="40.0713749" lon="-105.229789">
  <ele>1583.0</ele>
  <time>2026-08-28T17:56:02Z</time>
  <course>248.4</course>
  <speed>0.01</speed>
  <fix>3d</fix>
</trkpt>
<trkpt lat="40.0713749" lon="-105.229789">
  <ele>1583.0</ele>
  <time>2026-08-28T17:56:02Z</time>
  <course>0.0</course>
  <speed>0.0</speed>
  <fix>3d</fix>
</trkpt>
<trkpt lat="40.0713749" lon="-105.229789">
  <ele>1583.0</ele>
  <time>2026-08-28T17:56:02Z</time>
  <course>248.4</course>
  <speed>0.01</speed>
  <fix>3d</fix>
</trkpt>
<trkpt lat="40.0713749" lon="-105.229789">
  <ele>1583.0</ele>
  <time>2026-08-28T17:56:02Z</time>
  <course>0.0</course>
  <speed>0.0</speed>
  <fix>3d</fix>
</trkpt>
<trkpt lat="40.0713749" lon="-105.229789">
  <ele>1583.0</ele>
  <time>2026-08-28T17:56:02Z</time>
  <course>248.4</course>
  <speed>0.01</speed>
  <fix>3d</fix>
</trkpt>
<trkpt lat="40.0713749" lon="-105.229789">
  <ele>1583.0</ele>
  <time>2026-08-28T17:56:02Z</time>
  <course>0.0</course>
  <speed>0.0</speed>
  <fix>3d</fix>
</trkpt>
<trkpt lat="40.0713749" lon="-105.229789">
  <ele>1583.0</ele>
  <time>2026-08-28T17:56:02Z</time>
  <course>248.4</course>
  <speed>0.01</speed>
  <fix>3d</fix>
</trkpt>
<trkpt lat="40.0713749" lon="-105.229789">
  <ele>1583.0</ele>
  <time>2026-08-28T17:56:02Z</time>
  <course>0.0</course>
  <speed>0.0</speed>
  <fix>3d</fix>
</trkpt>
<trkpt lat="40.0713749" lon="-105.229789">
  <ele>1583.0</ele>
  <time>2026-08-28T17:56:02Z</time>
  <course>248.39</course>
  <speed>0.01</speed>
  <fix>3d</fix>
</trkpt>
<trkpt lat="40.0713749" lon="-105.229789">
  <ele>1583.0</ele>
  <time>2026-08-28T17:56:02Z</time>
  <course>0.0</course>
  <speed>0.0</speed>
  <fix>3d</fix>
</trkpt>
<trkpt lat="40.0713749" lon="-105.229789">
  <ele>1583.0</ele>
  <time>2026-08-28T17:56:02Z</time>
  <course>248.39</course>
  <speed>0.01</speed>
  <fix>3d</fix>
</trkpt>
<trkpt lat="40.0713749" lon="-105.229789">
  <ele>1583.0</ele>
  <time>2026-08-28T17:56:02Z</time>
  <course>0.0</course>
  <speed>0.0</speed>
  <fix>3d</fix>
</trkpt>
<trkpt lat="40.0713749" lon="-105.229789">
  <ele>1583.0</ele>
  <time>2026-08-28T17:56:02Z</time>
  <course>248.39</course>
  <speed>0.01</speed>
  <fix>3d</fix>
</trkpt>
<trkpt lat="40.0713749" lon="-105.229789">
  <ele>1583.0</ele>
  <time>2026-08-28T17:56:02Z</time>
  <course>0.0</course>
  <speed>0.0</speed>
  <fix>3d</fix>
</trkpt>
<trkpt lat="40.0713749" lon="-105.229789">
  <ele>1583.0</ele>
  <time>2026-08-28T17:56:02Z</time>
  <course>248.38</course>
  <speed>0.01</speed>
  <fix>3d</fix>
</trkpt>
<trkpt lat="40.0713749" lon="-105.229789">
  <ele>1583.0</ele>
  <time>2026-08-28T17:56:02Z</time>
  <course>0.0</course>
  <speed>0.0</speed>
  <fix>3d</fix>
</trkpt>
<trkpt lat="40.0713749" lon="-105.229789">
  <ele>1583.0</ele>
  <time>2026-08-28T17:56:02Z</time>
  <course>248.38</course>
  <speed>0.01</speed>
  <fix>3d</fix>
</trkpt>
<trkpt lat="40.0713749" lon="-105.229789">
  <ele>1583.0</ele>
  <time>2026-08-28T17:56:02Z</time>
  <course>0.0</course>
  <speed>0.0</speed>
  <fix>3d</fix>
</trkpt>
<trkpt lat="40.0713749" lon="-105.229789">
  <ele>1583.0</ele>
  <time>2026-08-28T17:56:02Z</time>
  <course>248.38</course>
  <speed>0.01</speed>
  <fix>3d</fix>
</trkpt>
<trkpt lat="40.0713749" lon="-105.229789">
  <ele>1583.0</ele>
  <time>2026-08-28T17:56:02Z</time>
  <course>0.0</course>
  <speed>0.0</speed>
  <fix>3d</fix>
</trkpt>
<trkpt lat="40.0713749" lon="-105.229789">
  <ele>1583.0</ele>
  <time>2026-08-28T17:56:02Z</time>
  <course>248.37</course>
  <speed>0.01</speed>
  <fix>3d</fix>
</trkpt>
<trkpt lat="40.0713749" lon="-105.229789">
  <ele>1583.0</ele>
  <time>2026-08-28T17:56:02Z</time>
  <course>0.0</course>
  <speed>0.0</speed>
  <fix>3d</fix>
</trkpt>
<trkpt lat="40.0713749" lon="-105.229789">
  <ele>1583.0</ele>
  <time>2026-08-28T17:56:02Z</time>
  <course>248.37</course>
  <speed>0.01</speed>
  <fix>3d</fix>
</trkpt>
<trkpt lat="40.0713749" lon="-105.229789">
  <ele>1583.0</ele>
  <time>2026-08-28T17:56:02Z</time>
  <course>0.0</course>
  <speed>0.0</speed>
  <fix>3d</fix>
</trkpt>
<trkpt lat="40.0713749" lon="-105.229789">
  <ele>1583.0</ele>
  <time>2026-08-28T17:56:02Z</time>
  <course>248.37</course>
  <speed>0.01</speed>
  <fix>3d</fix>
</trkpt>
<trkpt lat="40.0713749" lon="-105.229789">
  <ele>1583.0</ele>
  <time>2026-08-28T17:56:02Z</time>
  <course>0.0</course>
  <speed>0.0</speed>
  <fix>3d</fix>
</trkpt>
<trkpt lat="40.0713749" lon="-105.229789">
  <ele>1583.0</ele>
  <time>2026-08-28T17:56:02Z</time>
  <course>248.36</course>
  <speed>0.01</speed>
  <fix>3d</fix>
</trkpt>
<trkpt lat="40.0713749" lon="-105.229789">
  <ele>1583.0</ele>
  <time>2026-08-28T17:56:02Z</time>
  <course>0.0</course>
  <speed>0.0</speed>
  <fix>3d</fix>
</trkpt>
<trkpt lat="40.0713749" lon="-105.229789">
  <ele>1583.0</ele>
  <time>2026-08-28T17:56:02Z</time>
  <course>248.36</course>
  <speed>0.01</speed>
  <fix>3d</fix>
</trkpt>
<trkpt lat="40.0713749" lon="-105.229789">
  <ele>1583.0</ele>
  <time>2026-08-28T17:56:02Z</time>
  <course>0.0</course>
  <speed>0.0</speed>
  <fix>3d</fix>
</trkpt>
<trkpt lat="40.0713749" lon="-105.229789">
  <ele>1583.0</ele>
  <time>2026-08-28T17:56:02Z</time>
  <course>248.36</course>
  <speed>0.01</speed>
  <fix>3d</fix>
</trkpt>
<trkpt lat="40.0713749" lon="-105.229789">
  <ele>1583.0</ele>
  <time>2026-08-28T17:56:02Z</time>
  <course>0.0</course>
  <speed>0.0</speed>
  <fix>3d</fix>
</trkpt>
<trkpt lat="40.0713749" lon="-105.229789">
  <ele>1583.0</ele>
  <time>2026-08-28T17:56:02Z</time>
  <course>248.35</course>
  <speed>0.01</speed>
  <fix>3d</fix>
</trkpt>
<trkpt lat="40.0713749" lon="-105.229789">
  <ele>1583.0</ele>
  <time>2026-08-28T17:56:02Z</time>
  <course>0.0</course>
  <speed>0.0</speed>
  <fix>3d</fix>
</trkpt>
<trkpt lat="40.0713749" lon="-105.229789">
  <ele>1583.0</ele>
  <time>2026-08-28T17:56:02Z</time>
  <course>248.35</course>
  <speed>0.01</speed>
  <fix>3d</fix>
</trkpt>
<trkpt lat="40.0713749" lon="-105.229789">
  <ele>1583.0</ele>
  <time>2026-08-28T17:56:02Z</time>
  <course>0.0</course>
  <speed>0.0</speed>
  <fix>3d</fix>
</trkpt>
<trkpt lat="40.0713749" lon="-105.229789">
  <ele>1583.0</ele>
  <time>2026-08-28T17:56:02Z</time>
  <course>248.35</course>
  <speed>0.01</speed>
  <fix>3d</fix>
</trkpt>
<trkpt lat="40.0713749" lon="-105.229789">
  <ele>1583.0</ele>
  <time>2026-08-28T17:56:02Z</time>
  <course>0.0</course>
  <speed>0.0</speed>
  <fix>3d</fix>
</trkpt>
<trkpt lat="40.0713749" lon="-105.229789">
  <ele>1583.0</ele>
  <time>2026-08-28T17:56:02Z</time>
  <course>248.34</course>
  <speed>0.01</speed>
  <fix>3d</fix>
</trkpt>
<trkpt lat="40.0713749" lon="-105.229789">
  <ele>1583.0</ele>
  <time>2026-08-28T17:56:02Z</time>
  <course>0.0</course>
  <speed>0.0</speed>
  <fix>3d</fix>
</trkpt>
<trkpt lat="40.0713749" lon="-105.229789">
  <ele>1583.0</ele>
  <time>2026-08-28T17:56:02Z</time>
  <course>248.34</course>
  <speed>0.01</speed>
  <fix>3d</fix>
</trkpt>
<trkpt lat="40.0713749" lon="-105.229789">
  <ele>1583.0</ele>
  <time>2026-08-28T17:56:02Z</time>
  <course>0.0</course>
  <speed>0.0</speed>
  <fix>3d</fix>
</trkpt>
<trkpt lat="40.0713749" lon="-105.229789">
  <ele>1583.0</ele>
  <time>2026-08-28T17:56:02Z</time>
  <course>248.33</course>
  <speed>0.01</speed>
  <fix>3d</fix>
</trkpt>
<trkpt lat="40.0713749" lon="-105.229789">
  <ele>1583.0</ele>
  <time>2026-08-28T17:56:02Z</time>
  <course>0.0</course>
  <speed>0.0</speed>
  <fix>3d</fix>
</trkpt>
<trkpt lat="40.0713749" lon="-105.229789">
  <ele>1583.0</ele>
  <time>2026-08-28T17:56:02Z</time>
  <course>248.33</course>
  <speed>0.01</speed>
  <fix>3d</fix>
</trkpt>
<trkpt lat="40.0713749" lon="-105.229789">
  <ele>1583.0</ele>
  <time>2026-08-28T17:56:02Z</time>
  <course>0.0</course>
  <speed>0.0</speed>
  <fix>3d</fix>
</trkpt>
<trkpt lat="40.0713749" lon="-105.229789">
  <ele>1583.0</ele>
  <time>2026-08-28T17:56:02Z</time>
  <course>248.32</course>
  <speed>0.01</speed>
  <fix>3d</fix>
</trkpt>
<trkpt lat="40.0713749" lon="-105.229789">
  <ele>1583.0</ele>
  <time>2026-08-28T17:56:02Z</time>
  <course>0.0</course>
  <speed>0.0</speed>
  <fix>3d</fix>
</trkpt>
<trkpt lat="40.0713749" lon="-105.229789">
  <ele>1583.0</ele>
  <time>2026-08-28T17:56:02Z</time>
  <course>248.32</course>
  <speed>0.01</speed>
  <fix>3d</fix>
</trkpt>
<trkpt lat="40.0713749" lon="-105.229789">
  <ele>1583.0</ele>
  <time>2026-08-28T17:56:02Z</time>
  <course>0.0</course>
  <speed>0.0</speed>
  <fix>3d</fix>
</trkpt>
<trkpt lat="40.0713749" lon="-105.229789">
  <ele>1583.0</ele>
  <time>2026-08-28T17:56:02Z</time>
  <course>248.32</course>
  <speed>0.01</speed>
  <fix>3d</fix>
</trkpt>
<trkpt lat="40.0713749" lon="-105.229789">
  <ele>1583.0</ele>
  <time>2026-08-28T17:56:02Z</time>
  <course>0.0</course>
  <speed>0.0</speed>
  <fix>3d</fix>
</trkpt>
<trkpt lat="40.0713749" lon="-105.229789">
  <ele>1583.0</ele>
  <time>2026-08-28T17:56:02Z</time>
  <course>248.31</course>
  <speed>0.01</speed>
  <fix>3d</fix>
</trkpt>
<trkpt lat="40.0713749" lon="-105.229789">
  <ele>1583.0</ele>
  <time>2026-08-28T17:56:02Z</time>
  <course>0.0</course>
  <speed>0.0</speed>
  <fix>3d</fix>
</trkpt>
<trkpt lat="40.0713749" lon="-105.229789">
  <ele>1583.0</ele>
  <time>2026-08-28T17:56:02Z</time>
  <course>248.31</course>
  <speed>0.01</speed>
  <fix>3d</fix>
</trkpt>
<trkpt lat="40.0713749" lon="-105.229789">
  <ele>1583.0</ele>
  <time>2026-08-28T17:56:02Z</time>
  <course>0.0</course>
  <speed>0.0</speed>
  <fix>3d</fix>
</trkpt>
<trkpt lat="40.0713749" lon="-105.229789">
  <ele>1583.0</ele>
  <time>2026-08-28T17:56:02Z</time>
  <course>248.3</course>
  <speed>0.01</speed>
  <fix>3d</fix>
</trkpt>
<trkpt lat="40.0713749" lon="-105.229789">
  <ele>1583.0</ele>
  <time>2026-08-28T17:56:02Z</time>
  <course>0.0</course>
  <speed>0.0</speed>
  <fix>3d</fix>
</trkpt>
<trkpt lat="40.0713749" lon="-105.229789">
  <ele>1583.0</ele>
  <time>2026-08-28T17:56:02Z</time>
  <course>248.3</course>
  <speed>0.01</speed>
  <fix>3d</fix>
</trkpt>
<trkpt lat="40.0713749" lon="-105.229789">
  <ele>1583.0</ele>
  <time>2026-08-28T17:56:02Z</time>
  <course>0.0</course>
  <speed>0.0</speed>
  <fix>3d</fix>
</trkpt>
<trkpt lat="40.0713749" lon="-105.229789">
  <ele>1583.0</ele>
  <time>2026-08-28T17:56:02Z</time>
  <course>248.29</course>
  <speed>0.01</speed>
  <fix>3d</fix>
</trkpt>
<trkpt lat="40.0713749" lon="-105.229789">
  <ele>1583.0</ele>
  <time>2026-08-28T17:56:02Z</time>
  <course>0.0</course>
  <speed>0.0</speed>
  <fix>3d</fix>
</trkpt>
<trkpt lat="40.0713749" lon="-105.229789">
  <ele>1583.0</ele>
  <time>2026-08-28T17:56:02Z</time>
  <course>248.29</course>
  <speed>0.01</speed>
  <fix>3d</fix>
</trkpt>
<trkpt lat="40.0713749" lon="-105.229789">
  <ele>1583.0</ele>
  <time>2026-08-28T17:56:02Z</time>
  <course>0.0</course>
  <speed>0.0</speed>
  <fix>3d</fix>
</trkpt>
<trkpt lat="40.0713749" lon="-105.229789">
  <ele>1583.0</ele>
  <time>2026-08-28T17:56:02Z</time>
  <course>248.28</course>
  <speed>0.01</speed>
  <fix>3d</fix>
</trkpt>
<trkpt lat="40.0713749" lon="-105.229789">
  <ele>1583.0</ele>
  <time>2026-08-28T17:56:02Z</time>
  <course>0.0</course>
  <speed>0.0</speed>
  <fix>3d</fix>
</trkpt>
<trkpt lat="40.0713749" lon="-105.229789">
  <ele>1583.0</ele>
  <time>2026-08-28T17:56:02Z</time>
  <course>248.28</course>
  <speed>0.01</speed>
  <fix>3d</fix>
</trkpt>
<trkpt lat="40.0713749" lon="-105.229789">
  <ele>1583.0</ele>
  <time>2026-08-28T17:56:02Z</time>
  <course>0.0</course>
  <speed>0.0</speed>
  <fix>3d</fix>
</trkpt>
<trkpt lat="40.0713749" lon="-105.229789">
  <ele>1583.0</ele>
  <time>2026-08-28T17:56:02Z</time>
  <course>248.27</course>
  <speed>0.01</speed>
  <fix>3d</fix>
</trkpt>
<trkpt lat="40.0713749" lon="-105.229789">
  <ele>1583.0</ele>
  <time>2026-08-28T17:56:02Z</time>
  <course>0.0</course>
  <speed>0.0</speed>
  <fix>3d</fix>
</trkpt>
<trkpt lat="40.0713749" lon="-105.229789">
  <ele>1583.0</ele>
  <time>2026-08-28T17:56:02Z</time>
  <course>248.27</course>
  <speed>0.01</speed>
  <fix>3d</fix>
</trkpt>
<trkpt lat="40.0713749" lon="-105.229789">
  <ele>1583.0</ele>
  <time>2026-08-28T17:56:02Z</time>
  <course>0.0</course>
  <speed>0.0</speed>
  <fix>3d</fix>
</trkpt>
<trkpt lat="40.0713749" lon="-105.229789">
  <ele>1583.0</ele>
  <time>2026-08-28T17:56:02Z</time>
  <course>248.26</course>
  <speed>0.01</speed>
  <fix>3d</fix>
</trkpt>
<trkpt lat="40.0713749" lon="-105.229789">
  <ele>1583.0</ele>
  <time>2026-08-28T17:56:02Z</time>
  <course>0.0</course>
  <speed>0.0</speed>
  <fix>3d</fix>
</trkpt>
<trkpt lat="40.0713749" lon="-105.229789">
  <ele>1583.0</ele>
  <time>2026-08-28T17:56:02Z</time>
  <course>248.26</course>
  <speed>0.01</speed>
  <fix>3d</fix>
</trkpt>
<trkpt lat="40.0713749" lon="-105.229789">
  <ele>1583.0</ele>
  <time>2026-08-28T17:56:02Z</time>
  <course>0.0</course>
  <speed>0.0</speed>
  <fix>3d</fix>
</trkpt>
<trkpt lat="40.0713749" lon="-105.229789">
  <ele>1583.0</ele>
  <time>2026-08-28T17:56:02Z</time>
  <course>248.26</course>
  <speed>0.01</speed>
  <fix>3d</fix>
</trkpt>
<trkpt lat="40.0713749" lon="-105.229789">
  <ele>1583.0</ele>
  <time>2026-08-28T17:56:02Z</time>
  <course>0.0</course>
  <speed>0.0</speed>
  <fix>3d</fix>
</trkpt>
<trkpt lat="40.0713749" lon="-105.229789">
  <ele>1583.0</ele>
  <time>2026-08-28T17:56:02Z</time>
  <course>248.25</course>
  <speed>0.01</speed>
  <fix>3d</fix>
</trkpt>
<trkpt lat="40.0713749" lon="-105.229789">
  <ele>1583.0</ele>
  <time>2026-08-28T17:56:02Z</time>
  <course>0.0</course>
  <speed>0.0</speed>
  <fix>3d</fix>
</trkpt>
<trkpt lat="40.0713749" lon="-105.229789">
  <ele>1583.0</ele>
  <time>2026-08-28T17:56:02Z</time>
  <course>248.25</course>
  <speed>0.01</speed>
  <fix>3d</fix>
</trkpt>
<trkpt lat="40.0713749" lon="-105.229789">
  <ele>1583.0</ele>
  <time>2026-08-28T17:56:02Z</time>
  <course>0.0</course>
  <speed>0.0</speed>
  <fix>3d</fix>
</trkpt>
<trkpt lat="40.0713749" lon="-105.229789">
  <ele>1583.0</ele>
  <time>2026-08-28T17:56:02Z</time>
  <course>248.24</course>
  <speed>0.01</speed>
  <fix>3d</fix>
</trkpt>
<trkpt lat="40.0713749" lon="-105.229789">
  <ele>1583.0</ele>
  <time>2026-08-28T17:56:02Z</time>
  <course>0.0</course>
  <speed>0.0</speed>
  <fix>3d</fix>
</trkpt>
<trkpt lat="40.0713749" lon="-105.229789">
  <ele>1583.0</ele>
  <time>2026-08-28T17:56:02Z</time>
  <course>248.24</course>
  <speed>0.01</speed>
  <fix>3d</fix>
</trkpt>
<trkpt lat="40.0713749" lon="-105.229789">
  <ele>1583.0</ele>
  <time>2026-08-28T17:56:02Z</time>
  <course>0.0</course>
  <speed>0.0</speed>
  <fix>3d</fix>
</trkpt>
<trkpt lat="40.0713749" lon="-105.229789">
  <ele>1583.0</ele>
  <time>2026-08-28T17:56:02Z</time>
  <course>248.23</course>
  <speed>0.01</speed>
  <fix>3d</fix>
</trkpt>
<trkpt lat="40.0713749" lon="-105.229789">
  <ele>1583.0</ele>
  <time>2026-08-28T17:56:02Z</time>
  <course>0.0</course>
  <speed>0.0</speed>
  <fix>3d</fix>
</trkpt>
<trkpt lat="40.0713749" lon="-105.229789">
  <ele>1583.0</ele>
  <time>2026-08-28T17:56:02Z</time>
  <course>248.23</course>
  <speed>0.01</speed>
  <fix>3d</fix>
</trkpt>
<trkpt lat="40.0713749" lon="-105.229789">
  <ele>1583.0</ele>
  <time>2026-08-28T17:56:02Z</time>
  <course>0.0</course>
  <speed>0.0</speed>
  <fix>3d</fix>
</trkpt>
<trkpt lat="40.0713749" lon="-105.229789">
  <ele>1583.0</ele>
  <time>2026-08-28T17:56:02Z</time>
  <course>248.22</course>
  <speed>0.01</speed>
  <fix>3d</fix>
</trkpt>
<trkpt lat="40.0713749" lon="-105.229789">
  <ele>1583.0</ele>
  <time>2026-08-28T17:56:02Z</time>
  <course>0.0</course>
  <speed>0.0</speed>
  <fix>3d</fix>
</trkpt>
<trkpt lat="40.0713749" lon="-105.229789">
  <ele>1583.0</ele>
  <time>2026-08-28T17:56:02Z</time>
  <course>248.22</course>
  <speed>0.01</speed>
  <fix>3d</fix>
</trkpt>
<trkpt lat="40.0713749" lon="-105.229789">
  <ele>1583.0</ele>
  <time>2026-08-28T17:56:02Z</time>
  <course>0.0</course>
  <speed>0.0</speed>
  <fix>3d</fix>
</trkpt>
<trkpt lat="40.0713749" lon="-105.229789">
  <ele>1583.0</ele>
  <time>2026-08-28T17:56:02Z</time>
  <course>248.21</course>
  <speed>0.01</speed>
  <fix>3d</fix>
</trkpt>
<trkpt lat="40.0713749" lon="-105.229789">
  <ele>1583.0</ele>
  <time>2026-08-28T17:56:02Z</time>
  <course>0.0</course>
  <speed>0.0</speed>
  <fix>3d</fix>
</trkpt>
<trkpt lat="40.0713749" lon="-105.229789">
  <ele>1583.0</ele>
  <time>2026-08-28T17:56:02Z</time>
  <course>248.21</course>
  <speed>0.01</speed>
  <fix>3d</fix>
</trkpt>
<trkpt lat="40.0713749" lon="-105.229789">
  <ele>1583.0</ele>
  <time>2026-08-28T17:56:02Z</time>
  <course>0.0</course>
  <speed>0.0</speed>
  <fix>3d</fix>
</trkpt>
<trkpt lat="40.0713749" lon="-105.229789">
  <ele>1583.0</ele>
  <time>2026-08-28T17:56:02Z</time>
  <course>248.2</course>
  <speed>0.01</speed>
  <fix>3d</fix>
</trkpt>
<trkpt lat="40.0713749" lon="-105.229789">
  <ele>1583.0</ele>
  <time>2026-08-28T17:56:02Z</time>
  <course>0.0</course>
  <speed>0.0</speed>
  <fix>3d</fix>
</trkpt>
<trkpt lat="40.0713749" lon="-105.229789">
  <ele>1583.0</ele>
  <time>2026-08-28T17:56:02Z</time>
  <course>248.2</course>
  <speed>0.01</speed>
  <fix>3d</fix>
</trkpt>
<trkpt lat="40.0713749" lon="-105.229789">
  <ele>1583.0</ele>
  <time>2026-08-28T17:56:02Z</time>
  <course>0.0</course>
  <speed>0.0</speed>
  <fix>3d</fix>
</trkpt>
<trkpt lat="40.0713749" lon="-105.229789">
  <ele>1583.0</ele>
  <time>2026-08-28T17:56:02Z</time>
  <course>248.19</course>
  <speed>0.01</speed>
  <fix>3d</fix>
</trkpt>
<trkpt lat="40.0713749" lon="-105.229789">
  <ele>1583.0</ele>
  <time>2026-08-28T17:56:02Z</time>
  <course>0.0</course>
  <speed>0.0</speed>
  <fix>3d</fix>
</trkpt>
<trkpt lat="40.0713749" lon="-105.229789">
  <ele>1583.0</ele>
  <time>2026-08-28T17:56:02Z</time>
  <course>248.19</course>
  <speed>0.01</speed>
  <fix>3d</fix>
</trkpt>
<trkpt lat="40.0713749" lon="-105.229789">
  <ele>1583.0</ele>
  <time>2026-08-28T17:56:02Z</time>
  <course>0.0</course>
  <speed>0.0</speed>
  <fix>3d</fix>
</trkpt>
<trkpt lat="40.0713749" lon="-105.229789">
  <ele>1583.0</ele>
  <time>2026-08-28T17:56:02Z</time>
  <course>248.18</course>
  <speed>0.01</speed>
  <fix>3d</fix>
</trkpt>
<trkpt lat="40.0713749" lon="-105.229789">
  <ele>1583.0</ele>
  <time>2026-08-28T17:56:02Z</time>
  <course>0.0</course>
  <speed>0.0</speed>
  <fix>3d</fix>
</trkpt>
<trkpt lat="40.0713749" lon="-105.229789">
  <ele>1583.0</ele>
  <time>2026-08-28T17:56:02Z</time>
  <course>248.18</course>
  <speed>0.01</speed>
  <fix>3d</fix>
</trkpt>
<trkpt lat="40.0713749" lon="-105.229789">
  <ele>1583.0</ele>
  <time>2026-08-28T17:56:02Z</time>
  <course>0.0</course>
  <speed>0.0</speed>
  <fix>3d</fix>
</trkpt>
<trkpt lat="40.0713749" lon="-105.229789">
  <ele>1583.0</ele>
  <time>2026-08-28T17:56:02Z</time>
  <course>248.17</course>
  <speed>0.022360679774997897</speed>
  <fix>3d</fix>
</trkpt>
<trkpt lat="40.0713749" lon="-105.229789">
  <ele>1583.0</ele>
  <time>2026-08-28T17:56:02Z</time>
  <course>0.0</course>
  <speed>0.0</speed>
  <fix>3d</fix>
</trkpt>
<trkpt lat="40.0713749" lon="-105.229789">
  <ele>1583.0</ele>
  <time>2026-08-28T17:56:02Z</time>
  <course>248.17</course>
  <speed>0.022360679774997897</speed>
  <fix>3d</fix>
</trkpt>
<trkpt lat="40.0713749" lon="-105.229789">
  <ele>1583.0</ele>
  <time>2026-08-28T17:56:03Z</time>
  <course>0.0</course>
  <speed>0.0</speed>
  <fix>3d</fix>
</trkpt>
<trkpt lat="40.0713749" lon="-105.229789">
  <ele>1583.0</ele>
  <time>2026-08-28T17:56:03Z</time>
  <course>248.16</course>
  <speed>0.022360679774997897</speed>
  <fix>3d</fix>
</trkpt>
<trkpt lat="40.0713749" lon="-105.229789">
  <ele>1583.0</ele>
  <time>2026-08-28T17:56:03Z</time>
  <course>0.0</course>
  <speed>0.0</speed>
  <fix>3d</fix>
</trkpt>
<trkpt lat="40.0713749" lon="-105.229789">
  <ele>1583.0</ele>
  <time>2026-08-28T17:56:03Z</time>
  <course>248.16</course>
  <speed>0.022360679774997897</speed>
  <fix>3d</fix>
</trkpt>
<trkpt lat="40.0713749" lon="-105.229789">
  <ele>1583.0</ele>
  <time>2026-08-28T17:56:03Z</time>
  <course>0.0</course>
  <speed>0.0</speed>
  <fix>3d</fix>
</trkpt>
<trkpt lat="40.0713749" lon="-105.229789">
  <ele>1583.0</ele>
  <time>2026-08-28T17:56:03Z</time>
  <course>248.15</course>
  <speed>0.022360679774997897</speed>
  <fix>3d</fix>
</trkpt>
<trkpt lat="40.0713749" lon="-105.229789">
  <ele>1583.0</ele>
  <time>2026-08-28T17:56:03Z</time>
  <course>0.0</course>
  <speed>0.0</speed>
  <fix>3d</fix>
</trkpt>
<trkpt lat="40.0713749" lon="-105.229789">
  <ele>1583.0</ele>
  <time>2026-08-28T17:56:03Z</time>
  <course>248.15</course>
  <speed>0.022360679774997897</speed>
  <fix>3d</fix>
</trkpt>
<trkpt lat="40.0713749" lon="-105.229789">
  <ele>1583.0</ele>
  <time>2026-08-28T17:56:03Z</time>
  <course>0.0</course>
  <speed>0.0</speed>
  <fix>3d</fix>
</trkpt>
<trkpt lat="40.0713749" lon="-105.229789">
  <ele>1583.0</ele>
  <time>2026-08-28T17:56:03Z</time>
  <course>248.14</course>
  <speed>0.022360679774997897</speed>
  <fix>3d</fix>
</trkpt>
<trkpt lat="40.0713749" lon="-105.229789">
  <ele>1583.0</ele>
  <time>2026-08-28T17:56:03Z</time>
  <course>0.0</course>
  <speed>0.0</speed>
  <fix>3d</fix>
</trkpt>
<trkpt lat="40.0713749" lon="-105.229789">
  <ele>1583.0</ele>
  <time>2026-08-28T17:56:03Z</time>
  <course>248.14</course>
  <speed>0.022360679774997897</speed>
  <fix>3d</fix>
</trkpt>
<trkpt lat="40.0713749" lon="-105.229789">
  <ele>1583.0</ele>
  <time>2026-08-28T17:56:03Z</time>
  <course>0.0</course>
  <speed>0.0</speed>
  <fix>3d</fix>
</trkpt>
<trkpt lat="40.0713749" lon="-105.229789">
  <ele>1583.0</ele>
  <time>2026-08-28T17:56:03Z</time>
  <course>248.13</course>
  <speed>0.022360679774997897</speed>
  <fix>3d</fix>
</trkpt>
<trkpt lat="40.0713749" lon="-105.229789">
  <ele>1583.0</ele>
  <time>2026-08-28T17:56:03Z</time>
  <course>0.0</course>
  <speed>0.0</speed>
  <fix>3d</fix>
</trkpt>
<trkpt lat="40.0713749" lon="-105.229789">
  <ele>1583.0</ele>
  <time>2026-08-28T17:56:03Z</time>
  <course>248.13</course>
  <speed>0.022360679774997897</speed>
  <fix>3d</fix>
</trkpt>
<trkpt lat="40.0713749" lon="-105.229789">
  <ele>1583.0</ele>
  <time>2026-08-28T17:56:03Z</time>
  <course>0.0</course>
  <speed>0.0</speed>
  <fix>3d</fix>
</trkpt>
<trkpt lat="40.0713749" lon="-105.229789">
  <ele>1583.0</ele>
  <time>2026-08-28T17:56:03Z</time>
  <course>248.12</course>
  <speed>0.022360679774997897</speed>
  <fix>3d</fix>
</trkpt>
<trkpt lat="40.0713749" lon="-105.229789">
  <ele>1583.0</ele>
  <time>2026-08-28T17:56:03Z</time>
  <course>0.0</course>
  <speed>0.0</speed>
  <fix>3d</fix>
</trkpt>
<trkpt lat="40.0713749" lon="-105.229789">
  <ele>1583.0</ele>
  <time>2026-08-28T17:56:03Z</time>
  <course>248.12</course>
  <speed>0.022360679774997897</speed>
  <fix>3d</fix>
</trkpt>
<trkpt lat="40.0713749" lon="-105.229789">
  <ele>1583.0</ele>
  <time>2026-08-28T17:56:03Z</time>
  <course>0.0</course>
  <speed>0.0</speed>
  <fix>3d</fix>
</trkpt>
<trkpt lat="40.0713749" lon="-105.229789">
  <ele>1583.0</ele>
  <time>2026-08-28T17:56:03Z</time>
  <course>248.11</course>
  <speed>0.022360679774997897</speed>
  <fix>3d</fix>
</trkpt>
<trkpt lat="40.0713749" lon="-105.229789">
  <ele>1583.0</ele>
  <time>2026-08-28T17:56:03Z</time>
  <course>0.0</course>
  <speed>0.0</speed>
  <fix>3d</fix>
</trkpt>
<trkpt lat="40.0713749" lon="-105.229789">
  <ele>1583.0</ele>
  <time>2026-08-28T17:56:03Z</time>
  <course>248.11</course>
  <speed>0.022360679774997897</speed>
  <fix>3d</fix>
</trkpt>
<trkpt lat="40.0713749" lon="-105.229789">
  <ele>1583.0</ele>
  <time>2026-08-28T17:56:03Z</time>
  <course>0.0</course>
  <speed>0.0</speed>
  <fix>3d</fix>
</trkpt>
<trkpt lat="40.0713749" lon="-105.229789">
  <ele>1583.0</ele>
  <time>2026-08-28T17:56:03Z</time>
  <course>248.1</course>
  <speed>0.022360679774997897</speed>
  <fix>3d</fix>
</trkpt>
<trkpt lat="40.0713749" lon="-105.229789">
  <ele>1583.0</ele>
  <time>2026-08-28T17:56:03Z</time>
  <course>0.0</course>
  <speed>0.0</speed>
  <fix>3d</fix>
</trkpt>
<trkpt lat="40.0713749" lon="-105.229789">
  <ele>1583.0</ele>
  <time>2026-08-28T17:56:03Z</time>
  <course>248.1</course>
  <speed>0.022360679774997897</speed>
  <fix>3d</fix>
</trkpt>
<trkpt lat="40.0713749" lon="-105.229789">
  <ele>1583.0</ele>
  <time>2026-08-28T17:56:03Z</time>
  <course>0.0</course>
  <speed>0.0</speed>
  <fix>3d</fix>
</trkpt>
<trkpt lat="40.0713749" lon="-105.229789">
  <ele>1583.0</ele>
  <time>2026-08-28T17:56:03Z</time>
  <course>248.09</course>
  <speed>0.022360679774997897</speed>
  <fix>3d</fix>
</trkpt>
<trkpt lat="40.0713749" lon="-105.229789">
  <ele>1583.0</ele>
  <time>2026-08-28T17:56:03Z</time>
  <course>0.0</course>
  <speed>0.0</speed>
  <fix>3d</fix>
</trkpt>
<trkpt lat="40.0713749" lon="-105.229789">
  <ele>1583.0</ele>
  <time>2026-08-28T17:56:03Z</time>
  <course>248.09</course>
  <speed>0.022360679774997897</speed>
  <fix>3d</fix>
</trkpt>
<trkpt lat="40.0713749" lon="-105.229789">
  <ele>1583.0</ele>
  <time>2026-08-28T17:56:03Z</time>
  <course>0.0</course>
  <speed>0.0</speed>
  <fix>3d</fix>
</trkpt>
<trkpt lat="40.0713749" lon="-105.229789">
  <ele>1583.0</ele>
  <time>2026-08-28T17:56:03Z</time>
  <course>248.08</course>
  <speed>0.022360679774997897</speed>
  <fix>3d</fix>
</trkpt>
<trkpt lat="40.0713749" lon="-105.229789">
  <ele>1583.0</ele>
  <time>2026-08-28T17:56:03Z</time>
  <course>0.0</course>
  <speed>0.0</speed>
  <fix>3d</fix>
</trkpt>
<trkpt lat="40.0713749" lon="-105.229789">
  <ele>1583.0</ele>
  <time>2026-08-28T17:56:03Z</time>
  <course>248.08</course>
  <speed>0.022360679774997897</speed>
  <fix>3d</fix>
</trkpt>
<trkpt lat="40.0713749" lon="-105.229789">
  <ele>1583.0</ele>
  <time>2026-08-28T17:56:03Z</time>
  <course>0.0</course>
  <speed>0.0</speed>
  <fix>3d</fix>
</trkpt>
<trkpt lat="40.0713749" lon="-105.229789">
  <ele>1583.0</ele>
  <time>2026-08-28T17:56:03Z</time>
  <course>248.07</course>
  <speed>0.022360679774997897</speed>
  <fix>3d</fix>
</trkpt>
<trkpt lat="40.0713749" lon="-105.229789">
  <ele>1583.0</ele>
  <time>2026-08-28T17:56:03Z</time>
  <course>0.0</course>
  <speed>0.0</speed>
  <fix>3d</fix>
</trkpt>
<trkpt lat="40.0713749" lon="-105.229789">
  <ele>1583.0</ele>
  <time>2026-08-28T17:56:03Z</time>
  <course>248.07</course>
  <speed>0.022360679774997897</speed>
  <fix>3d</fix>
</trkpt>
<trkpt lat="40.0713749" lon="-105.229789">
  <ele>1583.0</ele>
  <time>2026-08-28T17:56:03Z</time>
  <course>0.0</course>
  <speed>0.0</speed>
  <fix>3d</fix>
</trkpt>
<trkpt lat="40.0713749" lon="-105.229789">
  <ele>1583.0</ele>
  <time>2026-08-28T17:56:03Z</time>
  <course>248.06</course>
  <speed>0.022360679774997897</speed>
  <fix>3d</fix>
</trkpt>
<trkpt lat="40.0713749" lon="-105.229789">
  <ele>1583.0</ele>
  <time>2026-08-28T17:56:03Z</time>
  <course>0.0</course>
  <speed>0.0</speed>
  <fix>3d</fix>
</trkpt>
<trkpt lat="40.0713749" lon="-105.229789">
  <ele>1583.0</ele>
  <time>2026-08-28T17:56:03Z</time>
  <course>248.06</course>
  <speed>0.022360679774997897</speed>
  <fix>3d</fix>
</trkpt>
<trkpt lat="40.0713749" lon="-105.229789">
  <ele>1583.0</ele>
  <time>2026-08-28T17:56:03Z</time>
  <course>0.0</course>
  <speed>0.0</speed>
  <fix>3d</fix>
</trkpt>
<trkpt lat="40.0713749" lon="-105.229789">
  <ele>1583.0</ele>
  <time>2026-08-28T17:56:03Z</time>
  <course>248.05</course>
  <speed>0.022360679774997897</speed>
  <fix>3d</fix>
</trkpt>
<trkpt lat="40.0713749" lon="-105.229789">
  <ele>1583.0</ele>
  <time>2026-08-28T17:56:03Z</time>
  <course>0.0</course>
  <speed>0.0</speed>
  <fix>3d</fix>
</trkpt>
<trkpt lat="40.0713749" lon="-105.229789">
  <ele>1583.0</ele>
  <time>2026-08-28T17:56:03Z</time>
  <course>248.05</course>
  <speed>0.022360679774997897</speed>
  <fix>3d</fix>
</trkpt>
<trkpt lat="40.0713749" lon="-105.229789">
  <ele>1583.0</ele>
  <time>2026-08-28T17:56:03Z</time>
  <course>0.0</course>
  <speed>0.0</speed>
  <fix>3d</fix>
</trkpt>
<trkpt lat="40.0713749" lon="-105.229789">
  <ele>1583.0</ele>
  <time>2026-08-28T17:56:03Z</time>
  <course>248.05</course>
  <speed>0.022360679774997897</speed>
  <fix>3d</fix>
</trkpt>
<trkpt lat="40.0713749" lon="-105.229789">
  <ele>1583.0</ele>
  <time>2026-08-28T17:56:03Z</time>
  <course>0.0</course>
  <speed>0.0</speed>
  <fix>3d</fix>
</trkpt>
<trkpt lat="40.0713749" lon="-105.229789">
  <ele>1583.0</ele>
  <time>2026-08-28T17:56:03Z</time>
  <course>248.04</course>
  <speed>0.022360679774997897</speed>
  <fix>3d</fix>
</trkpt>
<trkpt lat="40.0713749" lon="-105.229789">
  <ele>1583.0</ele>
  <time>2026-08-28T17:56:03Z</time>
  <course>0.0</course>
  <speed>0.0</speed>
  <fix>3d</fix>
</trkpt>
<trkpt lat="40.0713749" lon="-105.229789">
  <ele>1583.0</ele>
  <time>2026-08-28T17:56:03Z</time>
  <course>248.04</course>
  <speed>0.022360679774997897</speed>
  <fix>3d</fix>
</trkpt>
<trkpt lat="40.0713749" lon="-105.229789">
  <ele>1583.0</ele>
  <time>2026-08-28T17:56:03Z</time>
  <course>0.0</course>
  <speed>0.0</speed>
  <fix>3d</fix>
</trkpt>
<trkpt lat="40.0713749" lon="-105.229789">
  <ele>1583.0</ele>
  <time>2026-08-28T17:56:03Z</time>
  <course>248.03</course>
  <speed>0.022360679774997897</speed>
  <fix>3d</fix>
</trkpt>
<trkpt lat="40.0713749" lon="-105.229789">
  <ele>1583.0</ele>
  <time>2026-08-28T17:56:03Z</time>
  <course>0.0</course>
  <speed>0.0</speed>
  <fix>3d</fix>
</trkpt>
<trkpt lat="40.0713749" lon="-105.229789">
  <ele>1583.0</ele>
  <time>2026-08-28T17:56:03Z</time>
  <course>248.03</course>
  <speed>0.022360679774997897</speed>
  <fix>3d</fix>
</trkpt>
<trkpt lat="40.0713749" lon="-105.229789">
  <ele>1583.0</ele>
  <time>2026-08-28T17:56:03Z</time>
  <course>0.0</course>
  <speed>0.0</speed>
  <fix>3d</fix>
</trkpt>
<trkpt lat="40.0713749" lon="-105.229789">
  <ele>1583.0</ele>
  <time>2026-08-28T17:56:03Z</time>
  <course>248.02</course>
  <speed>0.022360679774997897</speed>
  <fix>3d</fix>
</trkpt>
<trkpt lat="40.0713749" lon="-105.229789">
  <ele>1583.0</ele>
  <time>2026-08-28T17:56:03Z</time>
  <course>0.0</course>
  <speed>0.0</speed>
  <fix>3d</fix>
</trkpt>
<trkpt lat="40.0713749" lon="-105.229789">
  <ele>1583.0</ele>
  <time>2026-08-28T17:56:03Z</time>
  <course>248.02</course>
  <speed>0.022360679774997897</speed>
  <fix>3d</fix>
</trkpt>
<trkpt lat="40.0713749" lon="-105.229789">
  <ele>1583.0</ele>
  <time>2026-08-28T17:56:03Z</time>
  <course>0.0</course>
  <speed>0.0</speed>
  <fix>3d</fix>
</trkpt>
<trkpt lat="40.0713749" lon="-105.229789">
  <ele>1583.0</ele>
  <time>2026-08-28T17:56:03Z</time>
  <course>248.01</course>
  <speed>0.022360679774997897</speed>
  <fix>3d</fix>
</trkpt>
<trkpt lat="40.0713749" lon="-105.229789">
  <ele>1583.0</ele>
  <time>2026-08-28T17:56:03Z</time>
  <course>0.0</course>
  <speed>0.0</speed>
  <fix>3d</fix>
</trkpt>
<trkpt lat="40.0713749" lon="-105.229789">
  <ele>1583.0</ele>
  <time>2026-08-28T17:56:03Z</time>
  <course>248.01</course>
  <speed>0.022360679774997897</speed>
  <fix>3d</fix>
</trkpt>
<trkpt lat="40.0713749" lon="-105.229789">
  <ele>1583.0</ele>
  <time>2026-08-28T17:56:03Z</time>
  <course>0.0</course>
  <speed>0.0</speed>
  <fix>3d</fix>
</trkpt>
<trkpt lat="40.0713749" lon="-105.229789">
  <ele>1583.0</ele>
  <time>2026-08-28T17:56:03Z</time>
  <course>248.0</course>
  <speed>0.022360679774997897</speed>
  <fix>3d</fix>
</trkpt>
<trkpt lat="40.0713749" lon="-105.229789">
  <ele>1583.0</ele>
  <time>2026-08-28T17:56:03Z</time>
  <course>0.0</course>
  <speed>0.0</speed>
  <fix>3d</fix>
</trkpt>
<trkpt lat="40.0713749" lon="-105.229789">
  <ele>1583.0</ele>
  <time>2026-08-28T17:56:03Z</time>
  <course>248.0</course>
  <speed>0.022360679774997897</speed>
  <fix>3d</fix>
</trkpt>
<trkpt lat="40.0713749" lon="-105.229789">
  <ele>1583.0</ele>
  <time>2026-08-28T17:56:03Z</time>
  <course>0.0</course>
  <speed>0.0</speed>
  <fix>3d</fix>
</trkpt>
<trkpt lat="40.0713749" lon="-105.229789">
  <ele>1583.0</ele>
  <time>2026-08-28T17:56:03Z</time>
  <course>247.99</course>
  <speed>0.022360679774997897</speed>
  <fix>3d</fix>
</trkpt>
<trkpt lat="40.0713749" lon="-105.229789">
  <ele>1583.0</ele>
  <time>2026-08-28T17:56:03Z</time>
  <course>0.0</course>
  <speed>0.0</speed>
  <fix>3d</fix>
</trkpt>
<trkpt lat="40.0713749" lon="-105.229789">
  <ele>1583.0</ele>
  <time>2026-08-28T17:56:03Z</time>
  <course>247.99</course>
  <speed>0.022360679774997897</speed>
  <fix>3d</fix>
</trkpt>
<trkpt lat="40.0713749" lon="-105.229789">
  <ele>1583.0</ele>
  <time>2026-08-28T17:56:03Z</time>
  <course>0.0</course>
  <speed>0.0</speed>
  <fix>3d</fix>
</trkpt>
<trkpt lat="40.0713749" lon="-105.229789">
  <ele>1583.0</ele>
  <time>2026-08-28T17:56:03Z</time>
  <course>247.99</course>
  <speed>0.022360679774997897</speed>
  <fix>3d</fix>
</trkpt>
<trkpt lat="40.0713749" lon="-105.229789">
  <ele>1583.0</ele>
  <time>2026-08-28T17:56:03Z</time>
  <course>0.0</course>
  <speed>0.0</speed>
  <fix>3d</fix>
</trkpt>
<trkpt lat="40.0713749" lon="-105.229789">
  <ele>1583.0</ele>
  <time>2026-08-28T17:56:03Z</time>
  <course>247.98</course>
  <speed>0.022360679774997897</speed>
  <fix>3d</fix>
</trkpt>
<trkpt lat="40.0713749" lon="-105.229789">
  <ele>1583.0</ele>
  <time>2026-08-28T17:56:03Z</time>
  <course>0.0</course>
  <speed>0.0</speed>
  <fix>3d</fix>
</trkpt>
<trkpt lat="40.0713749" lon="-105.229789">
  <ele>1583.0</ele>
  <time>2026-08-28T17:56:03Z</time>
  <course>247.98</course>
  <speed>0.022360679774997897</speed>
  <fix>3d</fix>
</trkpt>
<trkpt lat="40.0713749" lon="-105.229789">
  <ele>1583.0</ele>
  <time>2026-08-28T17:56:03Z</time>
  <course>0.0</course>
  <speed>0.0</speed>
  <fix>3d</fix>
</trkpt>
<trkpt lat="40.0713749" lon="-105.229789">
  <ele>1583.0</ele>
  <time>2026-08-28T17:56:03Z</time>
  <course>247.97</course>
  <speed>0.022360679774997897</speed>
  <fix>3d</fix>
</trkpt>
<trkpt lat="40.0713749" lon="-105.229789">
  <ele>1583.0</ele>
  <time>2026-08-28T17:56:03Z</time>
  <course>0.0</course>
  <speed>0.0</speed>
  <fix>3d</fix>
</trkpt>
<trkpt lat="40.0713749" lon="-105.229789">
  <ele>1583.0</ele>
  <time>2026-08-28T17:56:03Z</time>
  <course>247.97</course>
  <speed>0.022360679774997897</speed>
  <fix>3d</fix>
</trkpt>
<trkpt lat="40.0713749" lon="-105.229789">
  <ele>1583.0</ele>
  <time>2026-08-28T17:56:03Z</time>
  <course>0.0</course>
  <speed>0.0</speed>
  <fix>3d</fix>
</trkpt>
<trkpt lat="40.0713749" lon="-105.229789">
  <ele>1583.0</ele>
  <time>2026-08-28T17:56:03Z</time>
  <course>247.96</course>
  <speed>0.022360679774997897</speed>
  <fix>3d</fix>
</trkpt>
<trkpt lat="40.0713749" lon="-105.229789">
  <ele>1583.0</ele>
  <time>2026-08-28T17:56:03Z</time>
  <course>0.0</course>
  <speed>0.0</speed>
  <fix>3d</fix>
</trkpt>
<trkpt lat="40.0713749" lon="-105.229789">
  <ele>1583.0</ele>
  <time>2026-08-28T17:56:03Z</time>
  <course>247.96</course>
  <speed>0.022360679774997897</speed>
  <fix>3d</fix>
</trkpt>
<trkpt lat="40.0713749" lon="-105.229789">
  <ele>1583.0</ele>
  <time>2026-08-28T17:56:03Z</time>
  <course>0.0</course>
  <speed>0.0</speed>
  <fix>3d</fix>
</trkpt>
<trkpt lat="40.0713749" lon="-105.229789">
  <ele>1583.0</ele>
  <time>2026-08-28T17:56:03Z</time>
  <course>247.95</course>
  <speed>0.022360679774997897</speed>
  <fix>3d</fix>
</trkpt>
<trkpt lat="40.0713749" lon="-105.229789">
  <ele>1583.0</ele>
  <time>2026-08-28T17:56:03Z</time>
  <course>0.0</course>
  <speed>0.0</speed>
  <fix>3d</fix>
</trkpt>
<trkpt lat="40.0713749" lon="-105.229789">
  <ele>1583.0</ele>
  <time>2026-08-28T17:56:03Z</time>
  <course>247.95</course>
  <speed>0.022360679774997897</speed>
  <fix>3d</fix>
</trkpt>
<trkpt lat="40.0713749" lon="-105.229789">
  <ele>1583.0</ele>
  <time>2026-08-28T17:56:03Z</time>
  <course>0.0</course>
  <speed>0.0</speed>
  <fix>3d</fix>
</trkpt>
<trkpt lat="40.0713749" lon="-105.229789">
  <ele>1583.0</ele>
  <time>2026-08-28T17:56:03Z</time>
  <course>247.95</course>
  <speed>0.022360679774997897</speed>
  <fix>3d</fix>
</trkpt>
<trkpt lat="40.0713749" lon="-105.229789">
  <ele>1583.0</ele>
  <time>2026-08-28T17:56:03Z</time>
  <course>0.0</course>
  <speed>0.0</speed>
  <fix>3d</fix>
</trkpt>
<trkpt lat="40.0713749" lon="-105.229789">
  <ele>1583.0</ele>
  <time>2026-08-28T17:56:03Z</time>
  <course>247.94</course>
  <speed>0.022360679774997897</speed>
  <fix>3d</fix>
</trkpt>
<trkpt lat="40.0713749" lon="-105.229789">
  <ele>1583.0</ele>
  <time>2026-08-28T17:56:03Z</time>
  <course>0.0</course>
  <speed>0.0</speed>
  <fix>3d</fix>
</trkpt>
<trkpt lat="40.0713749" lon="-105.229789">
  <ele>1583.0</ele>
  <time>2026-08-28T17:56:03Z</time>
  <course>247.94</course>
  <speed>0.022360679774997897</speed>
  <fix>3d</fix>
</trkpt>
<trkpt lat="40.0713749" lon="-105.229789">
  <ele>1583.0</ele>
  <time>2026-08-28T17:56:03Z</time>
  <course>0.0</course>
  <speed>0.0</speed>
  <fix>3d</fix>
</trkpt>
<trkpt lat="40.0713749" lon="-105.229789">
  <ele>1583.0</ele>
  <time>2026-08-28T17:56:03Z</time>
  <course>247.93</course>
  <speed>0.022360679774997897</speed>
  <fix>3d</fix>
</trkpt>
<trkpt lat="40.0713749" lon="-105.229789">
  <ele>1583.0</ele>
  <time>2026-08-28T17:56:03Z</time>
  <course>0.0</course>
  <speed>0.0</speed>
  <fix>3d</fix>
</trkpt>
<trkpt lat="40.0713749" lon="-105.229789">
  <ele>1583.0</ele>
  <time>2026-08-28T17:56:03Z</time>
  <course>247.93</course>
  <speed>0.022360679774997897</speed>
  <fix>3d</fix>
</trkpt>
<trkpt lat="40.0713749" lon="-105.229789">
  <ele>1583.0</ele>
  <time>2026-08-28T17:56:03Z</time>
  <course>0.0</course>
  <speed>0.0</speed>
  <fix>3d</fix>
</trkpt>
<trkpt lat="40.0713749" lon="-105.229789">
  <ele>1583.0</ele>
  <time>2026-08-28T17:56:03Z</time>
  <course>247.92</course>
  <speed>0.022360679774997897</speed>
  <fix>3d</fix>
</trkpt>
<trkpt lat="40.0713749" lon="-105.229789">
  <ele>1583.0</ele>
  <time>2026-08-28T17:56:03Z</time>
  <course>0.0</course>
  <speed>0.0</speed>
  <fix>3d</fix>
</trkpt>
<trkpt lat="40.0713749" lon="-105.229789">
  <ele>1583.0</ele>
  <time>2026-08-28T17:56:03Z</time>
  <course>247.92</course>
  <speed>0.022360679774997897</speed>
  <fix>3d</fix>
</trkpt>
<trkpt lat="40.0713749" lon="-105.229789">
  <ele>1583.0</ele>
  <time>2026-08-28T17:56:03Z</time>
  <course>0.0</course>
  <speed>0.0</speed>
  <fix>3d</fix>
</trkpt>
<trkpt lat="40.0713749" lon="-105.229789">
  <ele>1583.0</ele>
  <time>2026-08-28T17:56:03Z</time>
  <course>247.92</course>
  <speed>0.022360679774997897</speed>
  <fix>3d</fix>
</trkpt>
<trkpt lat="40.0713749" lon="-105.229789">
  <ele>1583.0</ele>
  <time>2026-08-28T17:56:03Z</time>
  <course>0.0</course>
  <speed>0.0</speed>
  <fix>3d</fix>
</trkpt>
<trkpt lat="40.0713749" lon="-105.229789">
  <ele>1583.0</ele>
  <time>2026-08-28T17:56:03Z</time>
  <course>247.91</course>
  <speed>0.022360679774997897</speed>
  <fix>3d</fix>
</trkpt>
<trkpt lat="40.0713749" lon="-105.229789">
  <ele>1583.0</ele>
  <time>2026-08-28T17:56:03Z</time>
  <course>0.0</course>
  <speed>0.0</speed>
  <fix>3d</fix>
</trkpt>
<trkpt lat="40.0713749" lon="-105.229789">
  <ele>1583.0</ele>
  <time>2026-08-28T17:56:03Z</time>
  <course>247.91</course>
  <speed>0.022360679774997897</speed>
  <fix>3d</fix>
</trkpt>
<trkpt lat="40.0713749" lon="-105.229789">
  <ele>1583.0</ele>
  <time>2026-08-28T17:56:03Z</time>
  <course>0.0</course>
  <speed>0.0</speed>
  <fix>3d</fix>
</trkpt>
<trkpt lat="40.0713749" lon="-105.229789">
  <ele>1583.0</ele>
  <time>2026-08-28T17:56:03Z</time>
  <course>247.9</course>
  <speed>0.022360679774997897</speed>
  <fix>3d</fix>
</trkpt>
<trkpt lat="40.0713749" lon="-105.229789">
  <ele>1583.0</ele>
  <time>2026-08-28T17:56:03Z</time>
  <course>0.0</course>
  <speed>0.0</speed>
  <fix>3d</fix>
</trkpt>
<trkpt lat="40.0713749" lon="-105.229789">
  <ele>1583.0</ele>
  <time>2026-08-28T17:56:03Z</time>
  <course>247.9</course>
  <speed>0.022360679774997897</speed>
  <fix>3d</fix>
</trkpt>
<trkpt lat="40.0713749" lon="-105.229789">
  <ele>1583.0</ele>
  <time>2026-08-28T17:56:03Z</time>
  <course>0.0</course>
  <speed>0.0</speed>
  <fix>3d</fix>
</trkpt>
<trkpt lat="40.0713749" lon="-105.229789">
  <ele>1583.0</ele>
  <time>2026-08-28T17:56:03Z</time>
  <course>247.89</course>
  <speed>0.022360679774997897</speed>
  <fix>3d</fix>
</trkpt>
<trkpt lat="40.0713749" lon="-105.229789">
  <ele>1583.0</ele>
  <time>2026-08-28T17:56:03Z</time>
  <course>0.0</course>
  <speed>0.0</speed>
  <fix>3d</fix>
</trkpt>
<trkpt lat="40.0713749" lon="-105.229789">
  <ele>1583.0</ele>
  <time>2026-08-28T17:56:03Z</time>
  <course>247.89</course>
  <speed>0.022360679774997897</speed>
  <fix>3d</fix>
</trkpt>
<trkpt lat="40.0713749" lon="-105.229789">
  <ele>1583.0</ele>
  <time>2026-08-28T17:56:03Z</time>
  <course>0.0</course>
  <speed>0.0</speed>
  <fix>3d</fix>
</trkpt>
<trkpt lat="40.0713749" lon="-105.229789">
  <ele>1583.0</ele>
  <time>2026-08-28T17:56:03Z</time>
  <course>247.89</course>
  <speed>0.022360679774997897</speed>
  <fix>3d</fix>
</trkpt>
<trkpt lat="40.0713749" lon="-105.229789">
  <ele>1583.0</ele>
  <time>2026-08-28T17:56:03Z</time>
  <course>0.0</course>
  <speed>0.0</speed>
  <fix>3d</fix>
</trkpt>
<trkpt lat="40.0713749" lon="-105.229789">
  <ele>1583.0</ele>
  <time>2026-08-28T17:56:03Z</time>
  <course>247.88</course>
  <speed>0.0316227766016838</speed>
  <fix>3d</fix>
</trkpt>
<trkpt lat="40.0713749" lon="-105.229789">
  <ele>1583.0</ele>
  <time>2026-08-28T17:56:03Z</time>
  <course>0.0</course>
  <speed>0.0</speed>
  <fix>3d</fix>
</trkpt>
<trkpt lat="40.0713749" lon="-105.229789">
  <ele>1583.0</ele>
  <time>2026-08-28T17:56:03Z</time>
  <course>247.88</course>
  <speed>0.0316227766016838</speed>
  <fix>3d</fix>
</trkpt>
<trkpt lat="40.0713749" lon="-105.229789">
  <ele>1583.0</ele>
  <time>2026-08-28T17:56:03Z</time>
  <course>0.0</course>
  <speed>0.0</speed>
  <fix>3d</fix>
</trkpt>
<trkpt lat="40.0713749" lon="-105.229789">
  <ele>1583.0</ele>
  <time>2026-08-28T17:56:03Z</time>
  <course>247.87</course>
  <speed>0.0316227766016838</speed>
  <fix>3d</fix>
</trkpt>
<trkpt lat="40.0713749" lon="-105.229789">
  <ele>1583.0</ele>
  <time>2026-08-28T17:56:03Z</time>
  <course>0.0</course>
  <speed>0.0</speed>
  <fix>3d</fix>
</trkpt>
<trkpt lat="40.0713749" lon="-105.229789">
  <ele>1583.0</ele>
  <time>2026-08-28T17:56:03Z</time>
  <course>247.87</course>
  <speed>0.0316227766016838</speed>
  <fix>3d</fix>
</trkpt>
<trkpt lat="40.0713749" lon="-105.229789">
  <ele>1583.0</ele>
  <time>2026-08-28T17:56:03Z</time>
  <course>0.0</course>
  <speed>0.0</speed>
  <fix>3d</fix>
</trkpt>
<trkpt lat="40.0713749" lon="-105.229789">
  <ele>1583.0</ele>
  <time>2026-08-28T17:56:03Z</time>
  <course>247.87</course>
  <speed>0.0316227766016838</speed>
  <fix>3d</fix>
</trkpt>
<trkpt lat="40.0713749" lon="-105.229789">
  <ele>1583.0</ele>
  <time>2026-08-28T17:56:03Z</time>
  <course>0.0</course>
  <speed>0.0</speed>
  <fix>3d</fix>
</trkpt>
<trkpt lat="40.0713749" lon="-105.229789">
  <ele>1583.0</ele>
  <time>2026-08-28T17:56:03Z</time>
  <course>247.86</course>
  <speed>0.0316227766016838</speed>
  <fix>3d</fix>
</trkpt>
<trkpt lat="40.0713749" lon="-105.229789">
  <ele>1583.0</ele>
  <time>2026-08-28T17:56:03Z</time>
  <course>0.0</course>
  <speed>0.0</speed>
  <fix>3d</fix>
</trkpt>
<trkpt lat="40.0713749" lon="-105.229789">
  <ele>1583.0</ele>
  <time>2026-08-28T17:56:03Z</time>
  <course>247.86</course>
  <speed>0.0316227766016838</speed>
  <fix>3d</fix>
</trkpt>
<trkpt lat="40.0713749" lon="-105.229789">
  <ele>1583.0</ele>
  <time>2026-08-28T17:56:03Z</time>
  <course>0.0</course>
  <speed>0.0</speed>
  <fix>3d</fix>
</trkpt>
<trkpt lat="40.0713749" lon="-105.229789">
  <ele>1583.0</ele>
  <time>2026-08-28T17:56:03Z</time>
  <course>247.85</course>
  <speed>0.0316227766016838</speed>
  <fix>3d</fix>
</trkpt>
<trkpt lat="40.0713749" lon="-105.229789">
  <ele>1583.0</ele>
  <time>2026-08-28T17:56:03Z</time>
  <course>0.0</course>
  <speed>0.0</speed>
  <fix>3d</fix>
</trkpt>
<trkpt lat="40.0713749" lon="-105.229789">
  <ele>1583.0</ele>
  <time>2026-08-28T17:56:03Z</time>
  <course>247.85</course>
  <speed>0.0316227766016838</speed>
  <fix>3d</fix>
</trkpt>
<trkpt lat="40.0713749" lon="-105.229789">
  <ele>1583.0</ele>
  <time>2026-08-28T17:56:03Z</time>
  <course>0.0</course>
  <speed>0.0</speed>
  <fix>3d</fix>
</trkpt>
<trkpt lat="40.0713749" lon="-105.229789">
  <ele>1583.0</ele>
  <time>2026-08-28T17:56:03Z</time>
  <course>247.85</course>
  <speed>0.0316227766016838</speed>
  <fix>3d</fix>
</trkpt>
<trkpt lat="40.0713749" lon="-105.229789">
  <ele>1583.0</ele>
  <time>2026-08-28T17:56:03Z</time>
  <course>0.0</course>
  <speed>0.0</speed>
  <fix>3d</fix>
</trkpt>
<trkpt lat="40.0713749" lon="-105.229789">
  <ele>1583.0</ele>
  <time>2026-08-28T17:56:03Z</time>
  <course>247.84</course>
  <speed>0.0316227766016838</speed>
  <fix>3d</fix>
</trkpt>
<trkpt lat="40.0713749" lon="-105.229789">
  <ele>1583.0</ele>
  <time>2026-08-28T17:56:03Z</time>
  <course>0.0</course>
  <speed>0.0</speed>
  <fix>3d</fix>
</trkpt>
<trkpt lat="40.0713749" lon="-105.229789">
  <ele>1583.0</ele>
  <time>2026-08-28T17:56:03Z</time>
  <course>247.84</course>
  <speed>0.0316227766016838</speed>
  <fix>3d</fix>
</trkpt>
<trkpt lat="40.0713749" lon="-105.229789">
  <ele>1583.0</ele>
  <time>2026-08-28T17:56:03Z</time>
  <course>0.0</course>
  <speed>0.0</speed>
  <fix>3d</fix>
</trkpt>
<trkpt lat="40.0713749" lon="-105.229789">
  <ele>1583.0</ele>
  <time>2026-08-28T17:56:03Z</time>
  <course>247.83</course>
  <speed>0.0316227766016838</speed>
  <fix>3d</fix>
</trkpt>
<trkpt lat="40.0713749" lon="-105.229789">
  <ele>1583.0</ele>
  <time>2026-08-28T17:56:03Z</time>
  <course>0.0</course>
  <speed>0.0</speed>
  <fix>3d</fix>
</trkpt>
<trkpt lat="40.0713749" lon="-105.229789">
  <ele>1583.0</ele>
  <time>2026-08-28T17:56:03Z</time>
  <course>247.83</course>
  <speed>0.0316227766016838</speed>
  <fix>3d</fix>
</trkpt>
<trkpt lat="40.0713749" lon="-105.229789">
  <ele>1583.0</ele>
  <time>2026-08-28T17:56:03Z</time>
  <course>0.0</course>
  <speed>0.0</speed>
  <fix>3d</fix>
</trkpt>
<trkpt lat="40.0713749" lon="-105.229789">
  <ele>1583.0</ele>
  <time>2026-08-28T17:56:03Z</time>
  <course>247.83</course>
  <speed>0.0316227766016838</speed>
  <fix>3d</fix>
</trkpt>
<trkpt lat="40.0713749" lon="-105.229789">
  <ele>1583.0</ele>
  <time>2026-08-28T17:56:03Z</time>
  <course>0.0</course>
  <speed>0.0</speed>
  <fix>3d</fix>
</trkpt>
<trkpt lat="40.0713749" lon="-105.229789">
  <ele>1583.0</ele>
  <time>2026-08-28T17:56:03Z</time>
  <course>247.82</course>
  <speed>0.0316227766016838</speed>
  <fix>3d</fix>
</trkpt>
<trkpt lat="40.0713749" lon="-105.229789">
  <ele>1583.0</ele>
  <time>2026-08-28T17:56:03Z</time>
  <course>0.0</course>
  <speed>0.0</speed>
  <fix>3d</fix>
</trkpt>
<trkpt lat="40.0713749" lon="-105.229789">
  <ele>1583.0</ele>
  <time>2026-08-28T17:56:03Z</time>
  <course>247.82</course>
  <speed>0.0316227766016838</speed>
  <fix>3d</fix>
</trkpt>
<trkpt lat="40.0713749" lon="-105.229789">
  <ele>1583.0</ele>
  <time>2026-08-28T17:56:03Z</time>
  <course>0.0</course>
  <speed>0.0</speed>
  <fix>3d</fix>
</trkpt>
<trkpt lat="40.0713749" lon="-105.229789">
  <ele>1583.0</ele>
  <time>2026-08-28T17:56:03Z</time>
  <course>247.82</course>
  <speed>0.0316227766016838</speed>
  <fix>3d</fix>
</trkpt>
<trkpt lat="40.0713749" lon="-105.229789">
  <ele>1583.0</ele>
  <time>2026-08-28T17:56:03Z</time>
  <course>0.0</course>
  <speed>0.0</speed>
  <fix>3d</fix>
</trkpt>
<trkpt lat="40.0713749" lon="-105.229789">
  <ele>1583.0</ele>
  <time>2026-08-28T17:56:03Z</time>
  <course>247.81</course>
  <speed>0.0316227766016838</speed>
  <fix>3d</fix>
</trkpt>
<trkpt lat="40.0713749" lon="-105.229789">
  <ele>1583.0</ele>
  <time>2026-08-28T17:56:03Z</time>
  <course>0.0</course>
  <speed>0.0</speed>
  <fix>3d</fix>
</trkpt>
<trkpt lat="40.0713749" lon="-105.229789">
  <ele>1583.0</ele>
  <time>2026-08-28T17:56:03Z</time>
  <course>247.81</course>
  <speed>0.0316227766016838</speed>
  <fix>3d</fix>
</trkpt>
<trkpt lat="40.0713749" lon="-105.229789">
  <ele>1583.0</ele>
  <time>2026-08-28T17:56:03Z</time>
  <course>0.0</course>
  <speed>0.0</speed>
  <fix>3d</fix>
</trkpt>
<trkpt lat="40.0713749" lon="-105.229789">
  <ele>1583.0</ele>
  <time>2026-08-28T17:56:03Z</time>
  <course>247.8</course>
  <speed>0.0316227766016838</speed>
  <fix>3d</fix>
</trkpt>
<trkpt lat="40.0713749" lon="-105.229789">
  <ele>1583.0</ele>
  <time>2026-08-28T17:56:03Z</time>
  <course>0.0</course>
  <speed>0.0</speed>
  <fix>3d</fix>
</trkpt>
<trkpt lat="40.0713749" lon="-105.229789">
  <ele>1583.0</ele>
  <time>2026-08-28T17:56:03Z</time>
  <course>247.8</course>
  <speed>0.0316227766016838</speed>
  <fix>3d</fix>
</trkpt>
<trkpt lat="40.0713749" lon="-105.229789">
  <ele>1583.0</ele>
  <time>2026-08-28T17:56:03Z</time>
  <course>0.0</course>
  <speed>0.0</speed>
  <fix>3d</fix>
</trkpt>
<trkpt lat="40.0713749" lon="-105.229789">
  <ele>1583.0</ele>
  <time>2026-08-28T17:56:03Z</time>
  <course>247.8</course>
  <speed>0.0316227766016838</speed>
  <fix>3d</fix>
</trkpt>
<trkpt lat="40.0713749" lon="-105.229789">
  <ele>1583.0</ele>
  <time>2026-08-28T17:56:03Z</time>
  <course>0.0</course>
  <speed>0.0</speed>
  <fix>3d</fix>
</trkpt>
<trkpt lat="40.0713749" lon="-105.229789">
  <ele>1583.0</ele>
  <time>2026-08-28T17:56:03Z</time>
  <course>247.79</course>
  <speed>0.0316227766016838</speed>
  <fix>3d</fix>
</trkpt>
<trkpt lat="40.0713749" lon="-105.229789">
  <ele>1583.0</ele>
  <time>2026-08-28T17:56:03Z</time>
  <course>0.0</course>
  <speed>0.0</speed>
  <fix>3d</fix>
</trkpt>
<trkpt lat="40.0713749" lon="-105.229789">
  <ele>1583.0</ele>
  <time>2026-08-28T17:56:03Z</time>
  <course>247.79</course>
  <speed>0.0316227766016838</speed>
  <fix>3d</fix>
</trkpt>
<trkpt lat="40.0713749" lon="-105.229789">
  <ele>1583.0</ele>
  <time>2026-08-28T17:56:03Z</time>
  <course>0.0</course>
  <speed>0.0</speed>
  <fix>3d</fix>
</trkpt>
<trkpt lat="40.0713749" lon="-105.229789">
  <ele>1583.0</ele>
  <time>2026-08-28T17:56:03Z</time>
  <course>247.79</course>
  <speed>0.0316227766016838</speed>
  <fix>3d</fix>
</trkpt>
<trkpt lat="40.0713749" lon="-105.229789">
  <ele>1583.0</ele>
  <time>2026-08-28T17:56:03Z</time>
  <course>0.0</course>
  <speed>0.0</speed>
  <fix>3d</fix>
</trkpt>
<trkpt lat="40.0713749" lon="-105.229789">
  <ele>1583.0</ele>
  <time>2026-08-28T17:56:03Z</time>
  <course>247.78</course>
  <speed>0.0316227766016838</speed>
  <fix>3d</fix>
</trkpt>
<trkpt lat="40.0713749" lon="-105.229789">
  <ele>1583.0</ele>
  <time>2026-08-28T17:56:03Z</time>
  <course>0.0</course>
  <speed>0.0</speed>
  <fix>3d</fix>
</trkpt>
<trkpt lat="40.0713749" lon="-105.229789">
  <ele>1583.0</ele>
  <time>2026-08-28T17:56:03Z</time>
  <course>247.78</course>
  <speed>0.0316227766016838</speed>
  <fix>3d</fix>
</trkpt>
<trkpt lat="40.0713749" lon="-105.229789">
  <ele>1583.0</ele>
  <time>2026-08-28T17:56:03Z</time>
  <course>0.0</course>
  <speed>0.0</speed>
  <fix>3d</fix>
</trkpt>
<trkpt lat="40.0713749" lon="-105.229789">
  <ele>1583.0</ele>
  <time>2026-08-28T17:56:03Z</time>
  <course>247.78</course>
  <speed>0.0316227766016838</speed>
  <fix>3d</fix>
</trkpt>
<trkpt lat="40.0713749" lon="-105.229789">
  <ele>1583.0</ele>
  <time>2026-08-28T17:56:03Z</time>
  <course>0.0</course>
  <speed>0.0</speed>
  <fix>3d</fix>
</trkpt>
<trkpt lat="40.0713749" lon="-105.229789">
  <ele>1583.0</ele>
  <time>2026-08-28T17:56:03Z</time>
  <course>247.77</course>
  <speed>0.0316227766016838</speed>
  <fix>3d</fix>
</trkpt>
<trkpt lat="40.0713749" lon="-105.229789">
  <ele>1583.0</ele>
  <time>2026-08-28T17:56:03Z</time>
  <course>0.0</course>
  <speed>0.0</speed>
  <fix>3d</fix>
</trkpt>
<trkpt lat="40.0713749" lon="-105.229789">
  <ele>1583.0</ele>
  <time>2026-08-28T17:56:03Z</time>
  <course>247.77</course>
  <speed>0.0316227766016838</speed>
  <fix>3d</fix>
</trkpt>
<trkpt lat="40.0713749" lon="-105.229789">
  <ele>1583.0</ele>
  <time>2026-08-28T17:56:03Z</time>
  <course>0.0</course>
  <speed>0.0</speed>
  <fix>3d</fix>
</trkpt>
<trkpt lat="40.0713749" lon="-105.229789">
  <ele>1583.0</ele>
  <time>2026-08-28T17:56:03Z</time>
  <course>247.76</course>
  <speed>0.0316227766016838</speed>
  <fix>3d</fix>
</trkpt>
<trkpt lat="40.0713749" lon="-105.229789">
  <ele>1583.0</ele>
  <time>2026-08-28T17:56:03Z</time>
  <course>0.0</course>
  <speed>0.0</speed>
  <fix>3d</fix>
</trkpt>
<trkpt lat="40.0713749" lon="-105.229789">
  <ele>1583.0</ele>
  <time>2026-08-28T17:56:03Z</time>
  <course>247.76</course>
  <speed>0.0316227766016838</speed>
  <fix>3d</fix>
</trkpt>
<trkpt lat="40.0713749" lon="-105.229789">
  <ele>1583.0</ele>
  <time>2026-08-28T17:56:03Z</time>
  <course>0.0</course>
  <speed>0.0</speed>
  <fix>3d</fix>
</trkpt>
<trkpt lat="40.0713749" lon="-105.229789">
  <ele>1583.0</ele>
  <time>2026-08-28T17:56:03Z</time>
  <course>247.76</course>
  <speed>0.0316227766016838</speed>
  <fix>3d</fix>
</trkpt>
<trkpt lat="40.0713749" lon="-105.229789">
  <ele>1583.0</ele>
  <time>2026-08-28T17:56:03Z</time>
  <course>0.0</course>
  <speed>0.0</speed>
  <fix>3d</fix>
</trkpt>
<trkpt lat="40.0713749" lon="-105.229789">
  <ele>1583.0</ele>
  <time>2026-08-28T17:56:03Z</time>
  <course>247.75</course>
  <speed>0.0316227766016838</speed>
  <fix>3d</fix>
</trkpt>
<trkpt lat="40.0713749" lon="-105.229789">
  <ele>1583.0</ele>
  <time>2026-08-28T17:56:03Z</time>
  <course>0.0</course>
  <speed>0.0</speed>
  <fix>3d</fix>
</trkpt>
<trkpt lat="40.0713749" lon="-105.229789">
  <ele>1583.0</ele>
  <time>2026-08-28T17:56:03Z</time>
  <course>247.75</course>
  <speed>0.0316227766016838</speed>
  <fix>3d</fix>
</trkpt>
<trkpt lat="40.0713749" lon="-105.229789">
  <ele>1583.0</ele>
  <time>2026-08-28T17:56:03Z</time>
  <course>0.0</course>
  <speed>0.0</speed>
  <fix>3d</fix>
</trkpt>
<trkpt lat="40.0713749" lon="-105.229789">
  <ele>1583.0</ele>
  <time>2026-08-28T17:56:03Z</time>
  <course>247.75</course>
  <speed>0.0316227766016838</speed>
  <fix>3d</fix>
</trkpt>
<trkpt lat="40.0713749" lon="-105.229789">
  <ele>1583.0</ele>
  <time>2026-08-28T17:56:03Z</time>
  <course>0.0</course>
  <speed>0.0</speed>
  <fix>3d</fix>
</trkpt>
<trkpt lat="40.0713749" lon="-105.229789">
  <ele>1583.0</ele>
  <time>2026-08-28T17:56:03Z</time>
  <course>247.74</course>
  <speed>0.0316227766016838</speed>
  <fix>3d</fix>
</trkpt>
<trkpt lat="40.0713749" lon="-105.229789">
  <ele>1583.0</ele>
  <time>2026-08-28T17:56:03Z</time>
  <course>0.0</course>
  <speed>0.0</speed>
  <fix>3d</fix>
</trkpt>
<trkpt lat="40.0713749" lon="-105.229789">
  <ele>1583.0</ele>
  <time>2026-08-28T17:56:03Z</time>
  <course>247.74</course>
  <speed>0.0316227766016838</speed>
  <fix>3d</fix>
</trkpt>
<trkpt lat="40.0713749" lon="-105.229789">
  <ele>1583.0</ele>
  <time>2026-08-28T17:56:03Z</time>
  <course>0.0</course>
  <speed>0.0</speed>
  <fix>3d</fix>
</trkpt>
<trkpt lat="40.0713749" lon="-105.229789">
  <ele>1583.0</ele>
  <time>2026-08-28T17:56:03Z</time>
  <course>247.74</course>
  <speed>0.0316227766016838</speed>
  <fix>3d</fix>
</trkpt>
<trkpt lat="40.0713749" lon="-105.229789">
  <ele>1583.0</ele>
  <time>2026-08-28T17:56:03Z</time>
  <course>0.0</course>
  <speed>0.0</speed>
  <fix>3d</fix>
</trkpt>
<trkpt lat="40.0713749" lon="-105.229789">
  <ele>1583.0</ele>
  <time>2026-08-28T17:56:03Z</time>
  <course>247.73</course>
  <speed>0.0316227766016838</speed>
  <fix>3d</fix>
</trkpt>
<trkpt lat="40.0713749" lon="-105.229789">
  <ele>1583.0</ele>
  <time>2026-08-28T17:56:03Z</time>
  <course>0.0</course>
  <speed>0.0</speed>
  <fix>3d</fix>
</trkpt>
<trkpt lat="40.0713749" lon="-105.229789">
  <ele>1583.0</ele>
  <time>2026-08-28T17:56:03Z</time>
  <course>247.73</course>
  <speed>0.0316227766016838</speed>
  <fix>3d</fix>
</trkpt>
<trkpt lat="40.0713749" lon="-105.229789">
  <ele>1583.0</ele>
  <time>2026-08-28T17:56:03Z</time>
  <course>0.0</course>
  <speed>0.0</speed>
  <fix>3d</fix>
</trkpt>
<trkpt lat="40.0713749" lon="-105.229789">
  <ele>1583.0</ele>
  <time>2026-08-28T17:56:03Z</time>
  <course>247.73</course>
  <speed>0.0316227766016838</speed>
  <fix>3d</fix>
</trkpt>
<trkpt lat="40.0713749" lon="-105.229789">
  <ele>1583.0</ele>
  <time>2026-08-28T17:56:03Z</time>
  <course>0.0</course>
  <speed>0.0</speed>
  <fix>3d</fix>
</trkpt>
<trkpt lat="40.0713749" lon="-105.229789">
  <ele>1583.0</ele>
  <time>2026-08-28T17:56:03Z</time>
  <course>247.72</course>
  <speed>0.0316227766016838</speed>
  <fix>3d</fix>
</trkpt>
<trkpt lat="40.0713749" lon="-105.229789">
  <ele>1583.0</ele>
  <time>2026-08-28T17:56:03Z</time>
  <course>0.0</course>
  <speed>0.0</speed>
  <fix>3d</fix>
</trkpt>
<trkpt lat="40.0713749" lon="-105.229789">
  <ele>1583.0</ele>
  <time>2026-08-28T17:56:03Z</time>
  <course>247.72</course>
  <speed>0.0316227766016838</speed>
  <fix>3d</fix>
</trkpt>
<trkpt lat="40.0713749" lon="-105.229789">
  <ele>1583.0</ele>
  <time>2026-08-28T17:56:03Z</time>
  <course>0.0</course>
  <speed>0.0</speed>
  <fix>3d</fix>
</trkpt>
<trkpt lat="40.0713749" lon="-105.229789">
  <ele>1583.0</ele>
  <time>2026-08-28T17:56:03Z</time>
  <course>247.72</course>
  <speed>0.0316227766016838</speed>
  <fix>3d</fix>
</trkpt>
<trkpt lat="40.0713749" lon="-105.229789">
  <ele>1583.0</ele>
  <time>2026-08-28T17:56:03Z</time>
  <course>0.0</course>
  <speed>0.0</speed>
  <fix>3d</fix>
</trkpt>
<trkpt lat="40.0713749" lon="-105.229789">
  <ele>1583.0</ele>
  <time>2026-08-28T17:56:03Z</time>
  <course>247.71</course>
  <speed>0.0316227766016838</speed>
  <fix>3d</fix>
</trkpt>
<trkpt lat="40.0713749" lon="-105.229789">
  <ele>1583.0</ele>
  <time>2026-08-28T17:56:03Z</time>
  <course>0.0</course>
  <speed>0.0</speed>
  <fix>3d</fix>
</trkpt>
<trkpt lat="40.0713749" lon="-105.229789">
  <ele>1583.0</ele>
  <time>2026-08-28T17:56:03Z</time>
  <course>247.71</course>
  <speed>0.0316227766016838</speed>
  <fix>3d</fix>
</trkpt>
<trkpt lat="40.0713749" lon="-105.229789">
  <ele>1583.0</ele>
  <time>2026-08-28T17:56:03Z</time>
  <course>0.0</course>
  <speed>0.0</speed>
  <fix>3d</fix>
</trkpt>
<trkpt lat="40.0713749" lon="-105.229789">
  <ele>1583.0</ele>
  <time>2026-08-28T17:56:03Z</time>
  <course>247.71</course>
  <speed>0.0316227766016838</speed>
  <fix>3d</fix>
</trkpt>
<trkpt lat="40.0713749" lon="-105.229789">
  <ele>1583.0</ele>
  <time>2026-08-28T17:56:03Z</time>
  <course>0.0</course>
  <speed>0.0</speed>
  <fix>3d</fix>
</trkpt>
<trkpt lat="40.0713749" lon="-105.229789">
  <ele>1583.0</ele>
  <time>2026-08-28T17:56:03Z</time>
  <course>247.7</course>
  <speed>0.0316227766016838</speed>
  <fix>3d</fix>
</trkpt>
<trkpt lat="40.0713749" lon="-105.229789">
  <ele>1583.0</ele>
  <time>2026-08-28T17:56:03Z</time>
  <course>0.0</course>
  <speed>0.0</speed>
  <fix>3d</fix>
</trkpt>
<trkpt lat="40.0713749" lon="-105.229789">
  <ele>1583.0</ele>
  <time>2026-08-28T17:56:03Z</time>
  <course>247.7</course>
  <speed>0.0316227766016838</speed>
  <fix>3d</fix>
</trkpt>
<trkpt lat="40.0713749" lon="-105.229789">
  <ele>1583.0</ele>
  <time>2026-08-28T17:56:03Z</time>
  <course>0.0</course>
  <speed>0.0</speed>
  <fix>3d</fix>
</trkpt>
<trkpt lat="40.0713749" lon="-105.229789">
  <ele>1583.0</ele>
  <time>2026-08-28T17:56:03Z</time>
  <course>247.7</course>
  <speed>0.0316227766016838</speed>
  <fix>3d</fix>
</trkpt>
<trkpt lat="40.0713749" lon="-105.229789">
  <ele>1583.0</ele>
  <time>2026-08-28T17:56:03Z</time>
  <course>0.0</course>
  <speed>0.0</speed>
  <fix>3d</fix>
</trkpt>
<trkpt lat="40.0713749" lon="-105.229789">
  <ele>1583.0</ele>
  <time>2026-08-28T17:56:03Z</time>
  <course>247.69</course>
  <speed>0.0316227766016838</speed>
  <fix>3d</fix>
</trkpt>
<trkpt lat="40.0713749" lon="-105.229789">
  <ele>1583.0</ele>
  <time>2026-08-28T17:56:03Z</time>
  <course>0.0</course>
  <speed>0.0</speed>
  <fix>3d</fix>
</trkpt>
<trkpt lat="40.0713749" lon="-105.229789">
  <ele>1583.0</ele>
  <time>2026-08-28T17:56:03Z</time>
  <course>247.69</course>
  <speed>0.0316227766016838</speed>
  <fix>3d</fix>
</trkpt>
<trkpt lat="40.0713749" lon="-105.229789">
  <ele>1583.0</ele>
  <time>2026-08-28T17:56:03Z</time>
  <course>0.0</course>
  <speed>0.0</speed>
  <fix>3d</fix>
</trkpt>
<trkpt lat="40.0713749" lon="-105.229789">
  <ele>1583.0</ele>
  <time>2026-08-28T17:56:03Z</time>
  <course>247.69</course>
  <speed>0.0316227766016838</speed>
  <fix>3d</fix>
</trkpt>
<trkpt lat="40.0713749" lon="-105.229789">
  <ele>1583.0</ele>
  <time>2026-08-28T17:56:03Z</time>
  <course>0.0</course>
  <speed>0.0</speed>
  <fix>3d</fix>
</trkpt>
<trkpt lat="40.0713749" lon="-105.229789">
  <ele>1583.0</ele>
  <time>2026-08-28T17:56:03Z</time>
  <course>247.68</course>
  <speed>0.0316227766016838</speed>
  <fix>3d</fix>
</trkpt>
<trkpt lat="40.0713749" lon="-105.229789">
  <ele>1583.0</ele>
  <time>2026-08-28T17:56:03Z</time>
  <course>0.0</course>
  <speed>0.0</speed>
  <fix>3d</fix>
</trkpt>
<trkpt lat="40.0713749" lon="-105.229789">
  <ele>1583.0</ele>
  <time>2026-08-28T17:56:03Z</time>
  <course>247.68</course>
  <speed>0.0316227766016838</speed>
  <fix>3d</fix>
</trkpt>
<trkpt lat="40.0713749" lon="-105.229789">
  <ele>1583.0</ele>
  <time>2026-08-28T17:56:03Z</time>
  <course>0.0</course>
  <speed>0.0</speed>
  <fix>3d</fix>
</trkpt>
<trkpt lat="40.0713749" lon="-105.229789">
  <ele>1583.0</ele>
  <time>2026-08-28T17:56:03Z</time>
  <course>247.68</course>
  <speed>0.0316227766016838</speed>
  <fix>3d</fix>
</trkpt>
<trkpt lat="40.0713749" lon="-105.229789">
  <ele>1583.0</ele>
  <time>2026-08-28T17:56:03Z</time>
  <course>0.0</course>
  <speed>0.0</speed>
  <fix>3d</fix>
</trkpt>
<trkpt lat="40.0713749" lon="-105.229789">
  <ele>1583.0</ele>
  <time>2026-08-28T17:56:03Z</time>
  <course>247.67</course>
  <speed>0.0316227766016838</speed>
  <fix>3d</fix>
</trkpt>
<trkpt lat="40.0713749" lon="-105.229789">
  <ele>1583.0</ele>
  <time>2026-08-28T17:56:03Z</time>
  <course>0.0</course>
  <speed>0.0</speed>
  <fix>3d</fix>
</trkpt>
<trkpt lat="40.0713749" lon="-105.229789">
  <ele>1583.0</ele>
  <time>2026-08-28T17:56:03Z</time>
  <course>247.67</course>
  <speed>0.0316227766016838</speed>
  <fix>3d</fix>
</trkpt>
<trkpt lat="40.0713749" lon="-105.229789">
  <ele>1583.0</ele>
  <time>2026-08-28T17:56:03Z</time>
  <course>0.0</course>
  <speed>0.0</speed>
  <fix>3d</fix>
</trkpt>
<trkpt lat="40.0713749" lon="-105.229789">
  <ele>1583.0</ele>
  <time>2026-08-28T17:56:03Z</time>
  <course>247.67</course>
  <speed>0.0316227766016838</speed>
  <fix>3d</fix>
</trkpt>
<trkpt lat="40.0713749" lon="-105.229789">
  <ele>1583.0</ele>
  <time>2026-08-28T17:56:03Z</time>
  <course>0.0</course>
  <speed>0.0</speed>
  <fix>3d</fix>
</trkpt>
<trkpt lat="40.0713749" lon="-105.229789">
  <ele>1583.0</ele>
  <time>2026-08-28T17:56:03Z</time>
  <course>247.66</course>
  <speed>0.0316227766016838</speed>
  <fix>3d</fix>
</trkpt>
<trkpt lat="40.0713749" lon="-105.229789">
  <ele>1583.0</ele>
  <time>2026-08-28T17:56:03Z</time>
  <course>0.0</course>
  <speed>0.0</speed>
  <fix>3d</fix>
</trkpt>
<trkpt lat="40.0713749" lon="-105.229789">
  <ele>1583.0</ele>
  <time>2026-08-28T17:56:03Z</time>
  <course>247.66</course>
  <speed>0.0316227766016838</speed>
  <fix>3d</fix>
</trkpt>
<trkpt lat="40.0713749" lon="-105.229789">
  <ele>1583.0</ele>
  <time>2026-08-28T17:56:03Z</time>
  <course>0.0</course>
  <speed>0.0</speed>
  <fix>3d</fix>
</trkpt>
<trkpt lat="40.0713749" lon="-105.229789">
  <ele>1583.0</ele>
  <time>2026-08-28T17:56:03Z</time>
  <course>247.66</course>
  <speed>0.0316227766016838</speed>
  <fix>3d</fix>
</trkpt>
<trkpt lat="40.0713749" lon="-105.229789">
  <ele>1583.0</ele>
  <time>2026-08-28T17:56:03Z</time>
  <course>0.0</course>
  <speed>0.0</speed>
  <fix>3d</fix>
</trkpt>
<trkpt lat="40.0713749" lon="-105.229789">
  <ele>1583.0</ele>
  <time>2026-08-28T17:56:03Z</time>
  <course>247.65</course>
  <speed>0.0316227766016838</speed>
  <fix>3d</fix>
</trkpt>
<trkpt lat="40.0713749" lon="-105.229789">
  <ele>1583.0</ele>
  <time>2026-08-28T17:56:03Z</time>
  <course>0.0</course>
  <speed>0.0</speed>
  <fix>3d</fix>
</trkpt>
<trkpt lat="40.0713749" lon="-105.229789">
  <ele>1583.0</ele>
  <time>2026-08-28T17:56:03Z</time>
  <course>247.65</course>
  <speed>0.0316227766016838</speed>
  <fix>3d</fix>
</trkpt>
<trkpt lat="40.0713749" lon="-105.229789">
  <ele>1583.0</ele>
  <time>2026-08-28T17:56:03Z</time>
  <course>0.0</course>
  <speed>0.0</speed>
  <fix>3d</fix>
</trkpt>
<trkpt lat="40.0713749" lon="-105.229789">
  <ele>1583.0</ele>
  <time>2026-08-28T17:56:03Z</time>
  <course>247.65</course>
  <speed>0.0316227766016838</speed>
  <fix>3d</fix>
</trkpt>
<trkpt lat="40.0713749" lon="-105.229789">
  <ele>1583.0</ele>
  <time>2026-08-28T17:56:03Z</time>
  <course>0.0</course>
  <speed>0.0</speed>
  <fix>3d</fix>
</trkpt>
<trkpt lat="40.0713749" lon="-105.229789">
  <ele>1583.0</ele>
  <time>2026-08-28T17:56:03Z</time>
  <course>247.64</course>
  <speed>0.0316227766016838</speed>
  <fix>3d</fix>
</trkpt>
<trkpt lat="40.0713749" lon="-105.229789">
  <ele>1583.0</ele>
  <time>2026-08-28T17:56:03Z</time>
  <course>0.0</course>
  <speed>0.0</speed>
  <fix>3d</fix>
</trkpt>
<trkpt lat="40.0713749" lon="-105.229789">
  <ele>1583.0</ele>
  <time>2026-08-28T17:56:03Z</time>
  <course>247.64</course>
  <speed>0.0316227766016838</speed>
  <fix>3d</fix>
</trkpt>
<trkpt lat="40.0713749" lon="-105.229789">
  <ele>1583.0</ele>
  <time>2026-08-28T17:56:03Z</time>
  <course>0.0</course>
  <speed>0.0</speed>
  <fix>3d</fix>
</trkpt>
<trkpt lat="40.0713749" lon="-105.229789">
  <ele>1583.0</ele>
  <time>2026-08-28T17:56:03Z</time>
  <course>247.64</course>
  <speed>0.0316227766016838</speed>
  <fix>3d</fix>
</trkpt>
<trkpt lat="40.0713749" lon="-105.229789">
  <ele>1583.0</ele>
  <time>2026-08-28T17:56:03Z</time>
  <course>0.0</course>
  <speed>0.0</speed>
  <fix>3d</fix>
</trkpt>
<trkpt lat="40.0713749" lon="-105.229789">
  <ele>1583.0</ele>
  <time>2026-08-28T17:56:03Z</time>
  <course>247.64</course>
  <speed>0.0316227766016838</speed>
  <fix>3d</fix>
</trkpt>
<trkpt lat="40.0713749" lon="-105.229789">
  <ele>1583.0</ele>
  <time>2026-08-28T17:56:03Z</time>
  <course>0.0</course>
  <speed>0.0</speed>
  <fix>3d</fix>
</trkpt>
<trkpt lat="40.0713749" lon="-105.229789">
  <ele>1583.0</ele>
  <time>2026-08-28T17:56:03Z</time>
  <course>247.63</course>
  <speed>0.0316227766016838</speed>
  <fix>3d</fix>
</trkpt>
<trkpt lat="40.0713749" lon="-105.229789">
  <ele>1583.0</ele>
  <time>2026-08-28T17:56:03Z</time>
  <course>0.0</course>
  <speed>0.0</speed>
  <fix>3d</fix>
</trkpt>
<trkpt lat="40.0713749" lon="-105.229789">
  <ele>1583.0</ele>
  <time>2026-08-28T17:56:03Z</time>
  <course>247.63</course>
  <speed>0.0316227766016838</speed>
  <fix>3d</fix>
</trkpt>
<trkpt lat="40.0713749" lon="-105.229789">
  <ele>1583.0</ele>
  <time>2026-08-28T17:56:03Z</time>
  <course>0.0</course>
  <speed>0.0</speed>
  <fix>3d</fix>
</trkpt>
<trkpt lat="40.0713749" lon="-105.229789">
  <ele>1583.0</ele>
  <time>2026-08-28T17:56:03Z</time>
  <course>247.63</course>
  <speed>0.0316227766016838</speed>
  <fix>3d</fix>
</trkpt>
<trkpt lat="40.0713749" lon="-105.229789">
  <ele>1583.0</ele>
  <time>2026-08-28T17:56:03Z</time>
  <course>0.0</course>
  <speed>0.0</speed>
  <fix>3d</fix>
</trkpt>
<trkpt lat="40.0713749" lon="-105.229789">
  <ele>1583.0</ele>
  <time>2026-08-28T17:56:03Z</time>
  <course>247.62</course>
  <speed>0.0316227766016838</speed>
  <fix>3d</fix>
</trkpt>
<trkpt lat="40.0713749" lon="-105.229789">
  <ele>1583.0</ele>
  <time>2026-08-28T17:56:03Z</time>
  <course>0.0</course>
  <speed>0.0</speed>
  <fix>3d</fix>
</trkpt>
<trkpt lat="40.0713749" lon="-105.229789">
  <ele>1583.0</ele>
  <time>2026-08-28T17:56:03Z</time>
  <course>247.62</course>
  <speed>0.0316227766016838</speed>
  <fix>3d</fix>
</trkpt>
<trkpt lat="40.0713749" lon="-105.229789">
  <ele>1583.0</ele>
  <time>2026-08-28T17:56:03Z</time>
  <course>0.0</course>
  <speed>0.0</speed>
  <fix>3d</fix>
</trkpt>
<trkpt lat="40.0713749" lon="-105.229789">
  <ele>1583.0</ele>
  <time>2026-08-28T17:56:03Z</time>
  <course>247.62</course>
  <speed>0.0316227766016838</speed>
  <fix>3d</fix>
</trkpt>
<trkpt lat="40.0713749" lon="-105.229789">
  <ele>1583.0</ele>
  <time>2026-08-28T17:56:03Z</time>
  <course>0.0</course>
  <speed>0.0</speed>
  <fix>3d</fix>
</trkpt>
<trkpt lat="40.0713749" lon="-105.229789">
  <ele>1583.0</ele>
  <time>2026-08-28T17:56:03Z</time>
  <course>247.62</course>
  <speed>0.0316227766016838</speed>
  <fix>3d</fix>
</trkpt>
<trkpt lat="40.0713749" lon="-105.229789">
  <ele>1583.0</ele>
  <time>2026-08-28T17:56:03Z</time>
  <course>0.0</course>
  <speed>0.0</speed>
  <fix>3d</fix>
</trkpt>
<trkpt lat="40.0713749" lon="-105.229789">
  <ele>1583.0</ele>
  <time>2026-08-28T17:56:03Z</time>
  <course>247.61</course>
  <speed>0.0316227766016838</speed>
  <fix>3d</fix>
</trkpt>
<trkpt lat="40.0713749" lon="-105.229789">
  <ele>1583.0</ele>
  <time>2026-08-28T17:56:03Z</time>
  <course>0.0</course>
  <speed>0.0</speed>
  <fix>3d</fix>
</trkpt>
<trkpt lat="40.0713749" lon="-105.229789">
  <ele>1583.0</ele>
  <time>2026-08-28T17:56:03Z</time>
  <course>247.61</course>
  <speed>0.0316227766016838</speed>
  <fix>3d</fix>
</trkpt>
<trkpt lat="40.0713749" lon="-105.229789">
  <ele>1583.0</ele>
  <time>2026-08-28T17:56:03Z</time>
  <course>0.0</course>
  <speed>0.0</speed>
  <fix>3d</fix>
</trkpt>
<trkpt lat="40.0713749" lon="-105.229789">
  <ele>1583.0</ele>
  <time>2026-08-28T17:56:03Z</time>
  <course>247.61</course>
  <speed>0.0316227766016838</speed>
  <fix>3d</fix>
</trkpt>
<trkpt lat="40.0713749" lon="-105.229789">
  <ele>1583.0</ele>
  <time>2026-08-28T17:56:03Z</time>
  <course>0.0</course>
  <speed>0.0</speed>
  <fix>3d</fix>
</trkpt>
<trkpt lat="40.0713749" lon="-105.229789">
  <ele>1583.0</ele>
  <time>2026-08-28T17:56:03Z</time>
  <course>247.6</course>
  <speed>0.0316227766016838</speed>
  <fix>3d</fix>
</trkpt>
<trkpt lat="40.0713749" lon="-105.229789">
  <ele>1583.0</ele>
  <time>2026-08-28T17:56:03Z</time>
  <course>0.0</course>
  <speed>0.0</speed>
  <fix>3d</fix>
</trkpt>
<trkpt lat="40.0713749" lon="-105.229789">
  <ele>1583.0</ele>
  <time>2026-08-28T17:56:03Z</time>
  <course>247.6</course>
  <speed>0.0316227766016838</speed>
  <fix>3d</fix>
</trkpt>
<trkpt lat="40.0713749" lon="-105.229789">
  <ele>1583.0</ele>
  <time>2026-08-28T17:56:03Z</time>
  <course>0.0</course>
  <speed>0.0</speed>
  <fix>3d</fix>
</trkpt>
<trkpt lat="40.0713749" lon="-105.229789">
  <ele>1583.0</ele>
  <time>2026-08-28T17:56:03Z</time>
  <course>247.6</course>
  <speed>0.0316227766016838</speed>
  <fix>3d</fix>
</trkpt>
<trkpt lat="40.0713749" lon="-105.229789">
  <ele>1583.0</ele>
  <time>2026-08-28T17:56:03Z</time>
  <course>0.0</course>
  <speed>0.0</speed>
  <fix>3d</fix>
</trkpt>
<trkpt lat="40.0713749" lon="-105.229789">
  <ele>1583.0</ele>
  <time>2026-08-28T17:56:03Z</time>
  <course>247.6</course>
  <speed>0.0316227766016838</speed>
  <fix>3d</fix>
</trkpt>
<trkpt lat="40.0713749" lon="-105.229789">
  <ele>1583.0</ele>
  <time>2026-08-28T17:56:03Z</time>
  <course>0.0</course>
  <speed>0.0</speed>
  <fix>3d</fix>
</trkpt>
<trkpt lat="40.0713749" lon="-105.229789">
  <ele>1583.0</ele>
  <time>2026-08-28T17:56:03Z</time>
  <course>247.59</course>
  <speed>0.0316227766016838</speed>
  <fix>3d</fix>
</trkpt>
<trkpt lat="40.0713749" lon="-105.229789">
  <ele>1583.0</ele>
  <time>2026-08-28T17:56:03Z</time>
  <course>0.0</course>
  <speed>0.0</speed>
  <fix>3d</fix>
</trkpt>
<trkpt lat="40.0713749" lon="-105.229789">
  <ele>1582.92</ele>
  <time>2026-08-28T17:56:03Z</time>
  <course>247.59</course>
  <speed>0.0</speed>
  <fix>3d</fix>
</trkpt>
<trkpt lat="40.0713749" lon="-105.229789">
  <ele>1583.0</ele>
  <time>2026-08-28T17:56:03Z</time>
  <course>0.0</course>
  <speed>0.0</speed>
  <fix>3d</fix>
</trkpt>
<trkpt lat="40.0713749" lon="-105.229789">
  <ele>1582.92</ele>
  <time>2026-08-28T17:56:03Z</time>
  <course>247.59</course>
  <speed>0.0</speed>
  <fix>3d</fix>
</trkpt>
<trkpt lat="40.0713749" lon="-105.229789">
  <ele>1583.0</ele>
  <time>2026-08-28T17:56:03Z</time>
  <course>0.0</course>
  <speed>0.0</speed>
  <fix>3d</fix>
</trkpt>
<trkpt lat="40.0713749" lon="-105.229789">
  <ele>1582.91</ele>
  <time>2026-08-28T17:56:03Z</time>
  <course>247.58</course>
  <speed>0.0</speed>
  <fix>3d</fix>
</trkpt>
<trkpt lat="40.0713749" lon="-105.229789">
  <ele>1583.0</ele>
  <time>2026-08-28T17:56:03Z</time>
  <course>0.0</course>
  <speed>0.0</speed>
  <fix>3d</fix>
</trkpt>
<trkpt lat="40.0713749" lon="-105.229789">
  <ele>1582.91</ele>
  <time>2026-08-28T17:56:03Z</time>
  <course>247.58</course>
  <speed>0.0</speed>
  <fix>3d</fix>
</trkpt>
<trkpt lat="40.0713749" lon="-105.229789">
  <ele>1583.0</ele>
  <time>2026-08-28T17:56:03Z</time>
  <course>0.0</course>
  <speed>0.0</speed>
  <fix>3d</fix>
</trkpt>
<trkpt lat="40.0713749" lon="-105.229789">
  <ele>1582.9</ele>
  <time>2026-08-28T17:56:03Z</time>
  <course>247.58</course>
  <speed>0.0</speed>
  <fix>3d</fix>
</trkpt>
<trkpt lat="40.0713749" lon="-105.229789">
  <ele>1583.0</ele>
  <time>2026-08-28T17:56:03Z</time>
  <course>0.0</course>
  <speed>0.0</speed>
  <fix>3d</fix>
</trkpt>
<trkpt lat="40.0713749" lon="-105.229789">
  <ele>1582.9</ele>
  <time>2026-08-28T17:56:03Z</time>
  <course>247.58</course>
  <speed>0.0</speed>
  <fix>3d</fix>
</trkpt>
<trkpt lat="40.0713749" lon="-105.229789">
  <ele>1583.0</ele>
  <time>2026-08-28T17:56:03Z</time>
  <course>0.0</course>
  <speed>0.0</speed>
  <fix>3d</fix>
</trkpt>
<trkpt lat="40.0713749" lon="-105.229789">
  <ele>1582.9</ele>
  <time>2026-08-28T17:56:03Z</time>
  <course>247.57</course>
  <speed>0.0</speed>
  <fix>3d</fix>
</trkpt>
<trkpt lat="40.0713749" lon="-105.229789">
  <ele>1583.0</ele>
  <time>2026-08-28T17:56:03Z</time>
  <course>0.0</course>
  <speed>0.0</speed>
  <fix>3d</fix>
</trkpt>
<trkpt lat="40.0713749" lon="-105.229789">
  <ele>1582.9</ele>
  <time>2026-08-28T17:56:03Z</time>
  <course>247.57</course>
  <speed>0.0</speed>
  <fix>3d</fix>
</trkpt>
<trkpt lat="40.0713749" lon="-105.229789">
  <ele>1583.0</ele>
  <time>2026-08-28T17:56:03Z</time>
  <course>0.0</course>
  <speed>0.0</speed>
  <fix>3d</fix>
</trkpt>
<trkpt lat="40.0713749" lon="-105.229789">
  <ele>1582.9</ele>
  <time>2026-08-28T17:56:03Z</time>
  <course>247.57</course>
  <speed>0.0</speed>
  <fix>3d</fix>
</trkpt>
<trkpt lat="40.0713749" lon="-105.229789">
  <ele>1583.0</ele>
  <time>2026-08-28T17:56:03Z</time>
  <course>0.0</course>
  <speed>0.0</speed>
  <fix>3d</fix>
</trkpt>
<trkpt lat="40.0713749" lon="-105.229789">
  <ele>1582.9</ele>
  <time>2026-08-28T17:56:03Z</time>
  <course>247.57</course>
  <speed>0.01</speed>
  <fix>3d</fix>
</trkpt>
<trkpt lat="40.0713749" lon="-105.229789">
  <ele>1583.0</ele>
  <time>2026-08-28T17:56:03Z</time>
  <course>0.0</course>
  <speed>0.0</speed>
  <fix>3d</fix>
</trkpt>
<trkpt lat="40.0713749" lon="-105.229789">
  <ele>1582.9</ele>
  <time>2026-08-28T17:56:03Z</time>
  <course>247.56</course>
  <speed>0.01</speed>
  <fix>3d</fix>
</trkpt>
<trkpt lat="40.0713749" lon="-105.229789">
  <ele>1583.0</ele>
  <time>2026-08-28T17:56:03Z</time>
  <course>0.0</course>
  <speed>0.0</speed>
  <fix>3d</fix>
</trkpt>
<trkpt lat="40.0713749" lon="-105.229789">
  <ele>1582.91</ele>
  <time>2026-08-28T17:56:03Z</time>
  <course>247.56</course>
  <speed>0.01</speed>
  <fix>3d</fix>
</trkpt>
<trkpt lat="40.0713749" lon="-105.229789">
  <ele>1583.0</ele>
  <time>2026-08-28T17:56:03Z</time>
  <course>0.0</course>
  <speed>0.0</speed>
  <fix>3d</fix>
</trkpt>
<trkpt lat="40.0713749" lon="-105.229789">
  <ele>1582.91</ele>
  <time>2026-08-28T17:56:03Z</time>
  <course>247.56</course>
  <speed>0.01</speed>
  <fix>3d</fix>
</trkpt>
<trkpt lat="40.0713749" lon="-105.229789">
  <ele>1583.0</ele>
  <time>2026-08-28T17:56:03Z</time>
  <course>0.0</course>
  <speed>0.0</speed>
  <fix>3d</fix>
</trkpt>
<trkpt lat="40.0713749" lon="-105.229789">
  <ele>1582.92</ele>
  <time>2026-08-28T17:56:03Z</time>
  <course>247.56</course>
  <speed>0.01</speed>
  <fix>3d</fix>
</trkpt>
<trkpt lat="40.0713749" lon="-105.229789">
  <ele>1583.0</ele>
  <time>2026-08-28T17:56:03Z</time>
  <course>0.0</course>
  <speed>0.0</speed>
  <fix>3d</fix>
</trkpt>
<trkpt lat="40.0713749" lon="-105.229789">
  <ele>1582.92</ele>
  <time>2026-08-28T17:56:03Z</time>
  <course>247.55</course>
  <speed>0.01</speed>
  <fix>3d</fix>
</trkpt>
<trkpt lat="40.0713749" lon="-105.229789">
  <ele>1583.0</ele>
  <time>2026-08-28T17:56:03Z</time>
  <course>0.0</course>
  <speed>0.0</speed>
  <fix>3d</fix>
</trkpt>
<trkpt lat="40.0713749" lon="-105.229789">
  <ele>1582.92</ele>
  <time>2026-08-28T17:56:03Z</time>
  <course>247.55</course>
  <speed>0.01</speed>
  <fix>3d</fix>
</trkpt>
<trkpt lat="40.0713749" lon="-105.229789">
  <ele>1583.0</ele>
  <time>2026-08-28T17:56:03Z</time>
  <course>0.0</course>
  <speed>0.0</speed>
  <fix>3d</fix>
</trkpt>
<trkpt lat="40.0713749" lon="-105.229789">
  <ele>1582.93</ele>
  <time>2026-08-28T17:56:03Z</time>
  <course>247.55</course>
  <speed>0.01</speed>
  <fix>3d</fix>
</trkpt>
<trkpt lat="40.0713749" lon="-105.229789">
  <ele>1583.0</ele>
  <time>2026-08-28T17:56:03Z</time>
  <course>0.0</course>
  <speed>0.0</speed>
  <fix>3d</fix>
</trkpt>
<trkpt lat="40.0713749" lon="-105.229789">
  <ele>1582.93</ele>
  <time>2026-08-28T17:56:03Z</time>
  <course>247.55</course>
  <speed>0.01</speed>
  <fix>3d</fix>
</trkpt>
<trkpt lat="40.0713749" lon="-105.229789">
  <ele>1583.0</ele>
  <time>2026-08-28T17:56:03Z</time>
  <course>0.0</course>
  <speed>0.0</speed>
  <fix>3d</fix>
</trkpt>
<trkpt lat="40.0713749" lon="-105.229789">
  <ele>1582.93</ele>
  <time>2026-08-28T17:56:03Z</time>
  <course>247.54</course>
  <speed>0.02</speed>
  <fix>3d</fix>
</trkpt>
<trkpt lat="40.0713749" lon="-105.229789">
  <ele>1583.0</ele>
  <time>2026-08-28T17:56:03Z</time>
  <course>0.0</course>
  <speed>0.0</speed>
  <fix>3d</fix>
</trkpt>
<trkpt lat="40.0713749" lon="-105.229789">
  <ele>1582.93</ele>
  <time>2026-08-28T17:56:03Z</time>
  <course>247.54</course>
  <speed>0.02</speed>
  <fix>3d</fix>
</trkpt>
<trkpt lat="40.0713749" lon="-105.229789">
  <ele>1583.0</ele>
  <time>2026-08-28T17:56:03Z</time>
  <course>0.0</course>
  <speed>0.0</speed>
  <fix>3d</fix>
</trkpt>
<trkpt lat="40.0713749" lon="-105.229789">
  <ele>1582.93</ele>
  <time>2026-08-28T17:56:03Z</time>
  <course>247.54</course>
  <speed>0.02</speed>
  <fix>3d</fix>
</trkpt>
<trkpt lat="40.0713749" lon="-105.229789">
  <ele>1583.0</ele>
  <time>2026-08-28T17:56:03Z</time>
  <course>0.0</course>
  <speed>0.0</speed>
  <fix>3d</fix>
</trkpt>
<trkpt lat="40.0713749" lon="-105.229789">
  <ele>1582.93</ele>
  <time>2026-08-28T17:56:03Z</time>
  <course>247.54</course>
  <speed>0.022360679774997897</speed>
  <fix>3d</fix>
</trkpt>
<trkpt lat="40.0713749" lon="-105.229789">
  <ele>1583.0</ele>
  <time>2026-08-28T17:56:03Z</time>
  <course>0.0</course>
  <speed>0.0</speed>
  <fix>3d</fix>
</trkpt>
<trkpt lat="40.0713749" lon="-105.229789">
  <ele>1582.94</ele>
  <time>2026-08-28T17:56:03Z</time>
  <course>247.53</course>
  <speed>0.022360679774997897</speed>
  <fix>3d</fix>
</trkpt>
<trkpt lat="40.0713749" lon="-105.229789">
  <ele>1583.0</ele>
  <time>2026-08-28T17:56:03Z</time>
  <course>0.0</course>
  <speed>0.0</speed>
  <fix>3d</fix>
</trkpt>
<trkpt lat="40.0713749" lon="-105.229789">
  <ele>1582.94</ele>
  <time>2026-08-28T17:56:03Z</time>
  <course>247.53</course>
  <speed>0.022360679774997897</speed>
  <fix>3d</fix>
</trkpt>
<trkpt lat="40.0713749" lon="-105.229789">
  <ele>1583.0</ele>
  <time>2026-08-28T17:56:03Z</time>
  <course>0.0</course>
  <speed>0.0</speed>
  <fix>3d</fix>
</trkpt>
<trkpt lat="40.071375" lon="-105.229789">
  <ele>1582.94</ele>
  <time>2026-08-28T17:56:03Z</time>
  <course>247.53</course>
  <speed>0.022360679774997897</speed>
  <fix>3d</fix>
</trkpt>
<trkpt lat="40.0713749" lon="-105.229789">
  <ele>1583.0</ele>
  <time>2026-08-28T17:56:03Z</time>
  <course>0.0</course>
  <speed>0.0</speed>
  <fix>3d</fix>
</trkpt>
<trkpt lat="40.071375" lon="-105.229789">
  <ele>1582.95</ele>
  <time>2026-08-28T17:56:03Z</time>
  <course>247.53</course>
  <speed>0.022360679774997897</speed>
  <fix>3d</fix>
</trkpt>
<trkpt lat="40.0713749" lon="-105.229789">
  <ele>1583.0</ele>
  <time>2026-08-28T17:56:03Z</time>
  <course>0.0</course>
  <speed>0.0</speed>
  <fix>3d</fix>
</trkpt>
<trkpt lat="40.071375" lon="-105.229789">
  <ele>1582.95</ele>
  <time>2026-08-28T17:56:03Z</time>
  <course>247.53</course>
  <speed>0.022360679774997897</speed>
  <fix>3d</fix>
</trkpt>
<trkpt lat="40.0713749" lon="-105.229789">
  <ele>1583.0</ele>
  <time>2026-08-28T17:56:03Z</time>
  <course>0.0</course>
  <speed>0.0</speed>
  <fix>3d</fix>
</trkpt>
<trkpt lat="40.071375" lon="-105.229789">
  <ele>1582.95</ele>
  <time>2026-08-28T17:56:03Z</time>
  <course>247.52</course>
  <speed>0.022360679774997897</speed>
  <fix>3d</fix>
</trkpt>
<trkpt lat="40.0713749" lon="-105.229789">
  <ele>1583.0</ele>
  <time>2026-08-28T17:56:03Z</time>
  <course>0.0</course>
  <speed>0.0</speed>
  <fix>3d</fix>
</trkpt>
<trkpt lat="40.071375" lon="-105.229789">
  <ele>1582.95</ele>
  <time>2026-08-28T17:56:03Z</time>
  <course>247.52</course>
  <speed>0.022360679774997897</speed>
  <fix>3d</fix>
</trkpt>
<trkpt lat="40.0713749" lon="-105.229789">
  <ele>1583.0</ele>
  <time>2026-08-28T17:56:03Z</time>
  <course>0.0</course>
  <speed>0.0</speed>
  <fix>3d</fix>
</trkpt>
<trkpt lat="40.071375" lon="-105.229789">
  <ele>1582.95</ele>
  <time>2026-08-28T17:56:03Z</time>
  <course>247.52</course>
  <speed>0.022360679774997897</speed>
  <fix>3d</fix>
</trkpt>
<trkpt lat="40.0713749" lon="-105.229789">
  <ele>1583.0</ele>
  <time>2026-08-28T17:56:03Z</time>
  <course>0.0</course>
  <speed>0.0</speed>
  <fix>3d</fix>
</trkpt>
<trkpt lat="40.071375" lon="-105.229789">
  <ele>1582.95</ele>
  <time>2026-08-28T17:56:03Z</time>
  <course>247.52</course>
  <speed>0.022360679774997897</speed>
  <fix>3d</fix>
</trkpt>
<trkpt lat="40.0713749" lon="-105.229789">
  <ele>1583.0</ele>
  <time>2026-08-28T17:56:03Z</time>
  <course>0.0</course>
  <speed>0.0</speed>
  <fix>3d</fix>
</trkpt>
<trkpt lat="40.071375" lon="-105.229789">
  <ele>1582.95</ele>
  <time>2026-08-28T17:56:03Z</time>
  <course>247.51</course>
  <speed>0.0316227766016838</speed>
  <fix>3d</fix>
</trkpt>
<trkpt lat="40.0713749" lon="-105.229789">
  <ele>1583.0</ele>
  <time>2026-08-28T17:56:03Z</time>
  <course>0.0</course>
  <speed>0.0</speed>
  <fix>3d</fix>
</trkpt>
<trkpt lat="40.071375" lon="-105.229789">
  <ele>1582.95</ele>
  <time>2026-08-28T17:56:03Z</time>
  <course>247.51</course>
  <speed>0.0316227766016838</speed>
  <fix>3d</fix>
</trkpt>
<trkpt lat="40.0713749" lon="-105.229789">
  <ele>1583.0</ele>
  <time>2026-08-28T17:56:03Z</time>
  <course>0.0</course>
  <speed>0.0</speed>
  <fix>3d</fix>
</trkpt>
<trkpt lat="40.071375" lon="-105.229789">
  <ele>1582.95</ele>
  <time>2026-08-28T17:56:03Z</time>
  <course>247.51</course>
  <speed>0.0316227766016838</speed>
  <fix>3d</fix>
</trkpt>
<trkpt lat="40.0713749" lon="-105.229789">
  <ele>1583.0</ele>
  <time>2026-08-28T17:56:03Z</time>
  <course>0.0</course>
  <speed>0.0</speed>
  <fix>3d</fix>
</trkpt>
<trkpt lat="40.071375" lon="-105.2297889">
  <ele>1582.95</ele>
  <time>2026-08-28T17:56:03Z</time>
  <course>247.51</course>
  <speed>0.0316227766016838</speed>
  <fix>3d</fix>
</trkpt>
<trkpt lat="40.0713749" lon="-105.229789">
  <ele>1583.0</ele>
  <time>2026-08-28T17:56:03Z</time>
  <course>0.0</course>
  <speed>0.0</speed>
  <fix>3d</fix>
</trkpt>
<trkpt lat="40.071375" lon="-105.2297889">
  <ele>1582.95</ele>
  <time>2026-08-28T17:56:03Z</time>
  <course>247.51</course>
  <speed>0.0316227766016838</speed>
  <fix>3d</fix>
</trkpt>
<trkpt lat="40.0713749" lon="-105.229789">
  <ele>1583.0</ele>
  <time>2026-08-28T17:56:03Z</time>
  <course>0.0</course>
  <speed>0.0</speed>
  <fix>3d</fix>
</trkpt>
<trkpt lat="40.071375" lon="-105.2297889">
  <ele>1582.95</ele>
  <time>2026-08-28T17:56:03Z</time>
  <course>247.5</course>
  <speed>0.0316227766016838</speed>
  <fix>3d</fix>
</trkpt>
<trkpt lat="40.0713749" lon="-105.229789">
  <ele>1583.0</ele>
  <time>2026-08-28T17:56:03Z</time>
  <course>0.0</course>
  <speed>0.0</speed>
  <fix>3d</fix>
</trkpt>
<trkpt lat="40.071375" lon="-105.2297889">
  <ele>1582.95</ele>
  <time>2026-08-28T17:56:03Z</time>
  <course>247.5</course>
  <speed>0.0316227766016838</speed>
  <fix>3d</fix>
</trkpt>
<trkpt lat="40.0713749" lon="-105.229789">
  <ele>1583.0</ele>
  <time>2026-08-28T17:56:03Z</time>
  <course>0.0</course>
  <speed>0.0</speed>
  <fix>3d</fix>
</trkpt>
<trkpt lat="40.071375" lon="-105.2297889">
  <ele>1582.95</ele>
  <time>2026-08-28T17:56:03Z</time>
  <course>247.5</course>
  <speed>0.0316227766016838</speed>
  <fix>3d</fix>
</trkpt>
<trkpt lat="40.0713749" lon="-105.229789">
  <ele>1583.0</ele>
  <time>2026-08-28T17:56:03Z</time>
  <course>0.0</course>
  <speed>0.0</speed>
  <fix>3d</fix>
</trkpt>
<trkpt lat="40.0713751" lon="-105.2297889">
  <ele>1582.95</ele>
  <time>2026-08-28T17:56:03Z</time>
  <course>247.5</course>
  <speed>0.0316227766016838</speed>
  <fix>3d</fix>
</trkpt>
<trkpt lat="40.0713749" lon="-105.229789">
  <ele>1583.0</ele>
  <time>2026-08-28T17:56:03Z</time>
  <course>0.0</course>
  <speed>0.0</speed>
  <fix>3d</fix>
</trkpt>
<trkpt lat="40.0713751" lon="-105.2297889">
  <ele>1582.96</ele>
  <time>2026-08-28T17:56:03Z</time>
  <course>247.49</course>
  <speed>0.0316227766016838</speed>
  <fix>3d</fix>
</trkpt>
<trkpt lat="40.0713749" lon="-105.229789">
  <ele>1583.0</ele>
  <time>2026-08-28T17:56:03Z</time>
  <course>0.0</course>
  <speed>0.0</speed>
  <fix>3d</fix>
</trkpt>
<trkpt lat="40.0713751" lon="-105.2297889">
  <ele>1582.96</ele>
  <time>2026-08-28T17:56:03Z</time>
  <course>247.49</course>
  <speed>0.0316227766016838</speed>
  <fix>3d</fix>
</trkpt>
<trkpt lat="40.0713749" lon="-105.229789">
  <ele>1583.0</ele>
  <time>2026-08-28T17:56:03Z</time>
  <course>0.0</course>
  <speed>0.0</speed>
  <fix>3d</fix>
</trkpt>
<trkpt lat="40.0713751" lon="-105.2297889">
  <ele>1582.97</ele>
  <time>2026-08-28T17:56:03Z</time>
  <course>247.49</course>
  <speed>0.0316227766016838</speed>
  <fix>3d</fix>
</trkpt>
<trkpt lat="40.0713749" lon="-105.229789">
  <ele>1583.0</ele>
  <time>2026-08-28T17:56:03Z</time>
  <course>0.0</course>
  <speed>0.0</speed>
  <fix>3d</fix>
</trkpt>
<trkpt lat="40.0713751" lon="-105.2297889">
  <ele>1582.98</ele>
  <time>2026-08-28T17:56:03Z</time>
  <course>247.49</course>
  <speed>0.0316227766016838</speed>
  <fix>3d</fix>
</trkpt>
<trkpt lat="40.0713749" lon="-105.229789">
  <ele>1583.0</ele>
  <time>2026-08-28T17:56:03Z</time>
  <course>0.0</course>
  <speed>0.0</speed>
  <fix>3d</fix>
</trkpt>
<trkpt lat="40.0713751" lon="-105.2297889">
  <ele>1582.98</ele>
  <time>2026-08-28T17:56:03Z</time>
  <course>247.49</course>
  <speed>0.0316227766016838</speed>
  <fix>3d</fix>
</trkpt>
<trkpt lat="40.0713749" lon="-105.229789">
  <ele>1583.0</ele>
  <time>2026-08-28T17:56:03Z</time>
  <course>0.0</course>
  <speed>0.0</speed>
  <fix>3d</fix>
</trkpt>
<trkpt lat="40.0713751" lon="-105.2297889">
  <ele>1582.99</ele>
  <time>2026-08-28T17:56:03Z</time>
  <course>247.48</course>
  <speed>0.0316227766016838</speed>
  <fix>3d</fix>
</trkpt>
<trkpt lat="40.0713749" lon="-105.229789">
  <ele>1583.0</ele>
  <time>2026-08-28T17:56:03Z</time>
  <course>0.0</course>
  <speed>0.0</speed>
  <fix>3d</fix>
</trkpt>
<trkpt lat="40.0713751" lon="-105.2297889">
  <ele>1583.0</ele>
  <time>2026-08-28T17:56:03Z</time>
  <course>247.48</course>
  <speed>0.022360679774997897</speed>
  <fix>3d</fix>
</trkpt>
<trkpt lat="40.0713749" lon="-105.229789">
  <ele>1583.0</ele>
  <time>2026-08-28T17:56:03Z</time>
  <course>0.0</course>
  <speed>0.0</speed>
  <fix>3d</fix>
</trkpt>
<trkpt lat="40.0713751" lon="-105.2297889">
  <ele>1583.01</ele>
  <time>2026-08-28T17:56:03Z</time>
  <course>247.48</course>
  <speed>0.022360679774997897</speed>
  <fix>3d</fix>
</trkpt>
<trkpt lat="40.0713749" lon="-105.229789">
  <ele>1583.0</ele>
  <time>2026-08-28T17:56:03Z</time>
  <course>0.0</course>
  <speed>0.0</speed>
  <fix>3d</fix>
</trkpt>
<trkpt lat="40.0713751" lon="-105.2297889">
  <ele>1583.01</ele>
  <time>2026-08-28T17:56:03Z</time>
  <course>247.48</course>
  <speed>0.022360679774997897</speed>
  <fix>3d</fix>
</trkpt>
<trkpt lat="40.0713749" lon="-105.229789">
  <ele>1583.0</ele>
  <time>2026-08-28T17:56:03Z</time>
  <course>0.0</course>
  <speed>0.0</speed>
  <fix>3d</fix>
</trkpt>
<trkpt lat="40.0713751" lon="-105.2297889">
  <ele>1583.01</ele>
  <time>2026-08-28T17:56:03Z</time>
  <course>247.47</course>
  <speed>0.022360679774997897</speed>
  <fix>3d</fix>
</trkpt>
<trkpt lat="40.0713749" lon="-105.229789">
  <ele>1583.0</ele>
  <time>2026-08-28T17:56:03Z</time>
  <course>0.0</course>
  <speed>0.0</speed>
  <fix>3d</fix>
</trkpt>
<trkpt lat="40.0713751" lon="-105.2297889">
  <ele>1583.01</ele>
  <time>2026-08-28T17:56:03Z</time>
  <course>247.47</course>
  <speed>0.022360679774997897</speed>
  <fix>3d</fix>
</trkpt>
<trkpt lat="40.0713749" lon="-105.229789">
  <ele>1583.0</ele>
  <time>2026-08-28T17:56:03Z</time>
  <course>0.0</course>
  <speed>0.0</speed>
  <fix>3d</fix>
</trkpt>
<trkpt lat="40.0713751" lon="-105.2297889">
  <ele>1583.01</ele>
  <time>2026-08-28T17:56:03Z</time>
  <course>247.47</course>
  <speed>0.022360679774997897</speed>
  <fix>3d</fix>
</trkpt>
<trkpt lat="40.0713749" lon="-105.229789">
  <ele>1583.0</ele>
  <time>2026-08-28T17:56:03Z</time>
  <course>0.0</course>
  <speed>0.0</speed>
  <fix>3d</fix>
</trkpt>
<trkpt lat="40.071375" lon="-105.2297889">
  <ele>1583.0</ele>
  <time>2026-08-28T17:56:03Z</time>
  <course>247.47</course>
  <speed>0.022360679774997897</speed>
  <fix>3d</fix>
</trkpt>
<trkpt lat="40.0713749" lon="-105.229789">
  <ele>1583.0</ele>
  <time>2026-08-28T17:56:03Z</time>
  <course>0.0</course>
  <speed>0.0</speed>
  <fix>3d</fix>
</trkpt>
<trkpt lat="40.0713751" lon="-105.2297889">
  <ele>1583.0</ele>
  <time>2026-08-28T17:56:03Z</time>
  <course>247.47</course>
  <speed>0.022360679774997897</speed>
  <fix>3d</fix>
</trkpt>
<trkpt lat="40.0713749" lon="-105.229789">
  <ele>1583.0</ele>
  <time>2026-08-28T17:56:03Z</time>
  <course>0.0</course>
  <speed>0.0</speed>
  <fix>3d</fix>
</trkpt>
<trkpt lat="40.071375" lon="-105.2297889">
  <ele>1583.0</ele>
  <time>2026-08-28T17:56:03Z</time>
  <course>247.46</course>
  <speed>0.022360679774997897</speed>
  <fix>3d</fix>
</trkpt>
<trkpt lat="40.0713749" lon="-105.229789">
  <ele>1583.0</ele>
  <time>2026-08-28T17:56:03Z</time>
  <course>0.0</course>
  <speed>0.0</speed>
  <fix>3d</fix>
</trkpt>
<trkpt lat="39.655741" lon="-104.1383097">
  <ele>1566.58</ele>
  <time>2026-08-28T17:56:04Z</time>
  <course>0.0</course>
  <speed>0.0</speed>
  <fix>3d</fix>
</trkpt>
<trkpt lat="40.0713749" lon="-105.229789">
  <ele>1583.0</ele>
  <time>2026-08-28T17:56:04Z</time>
  <course>238.36</course>
  <speed>0.0</speed>
  <fix>3d</fix>
</trkpt>
<trkpt lat="40.0713749" lon="-105.229789">
  <ele>1583.0</ele>
  <time>2026-08-28T17:56:04Z</time>
  <course>0.0</course>
  <speed>0.0</speed>
  <fix>3d</fix>
</trkpt>
<trkpt lat="40.0713749" lon="-105.229789">
  <ele>1583.0</ele>
  <time>2026-08-28T17:56:04Z</time>
  <course>238.36</course>
  <speed>0.0</speed>
  <fix>3d</fix>
</trkpt>
<trkpt lat="40.0713749" lon="-105.229789">
  <ele>1583.0</ele>
  <time>2026-08-28T17:56:04Z</time>
  <course>0.0</course>
  <speed>0.0</speed>
  <fix>3d</fix>
</trkpt>
<trkpt lat="40.0713749" lon="-105.229789">
  <ele>1583.0</ele>
  <time>2026-08-28T17:56:04Z</time>
  <course>238.47</course>
  <speed>0.0</speed>
  <fix>3d</fix>
</trkpt>
<trkpt lat="40.0713749" lon="-105.229789">
  <ele>1583.0</ele>
  <time>2026-08-28T17:56:04Z</time>
  <course>0.0</course>
  <speed>0.0</speed>
  <fix>3d</fix>
</trkpt>
<trkpt lat="40.0713749" lon="-105.229789">
  <ele>1583.0</ele>
  <time>2026-08-28T17:56:04Z</time>
  <course>238.69</course>
  <speed>0.0</speed>
  <fix>3d</fix>
</trkpt>
<trkpt lat="40.0713749" lon="-105.229789">
  <ele>1583.0</ele>
  <time>2026-08-28T17:56:04Z</time>
  <course>0.0</course>
  <speed>0.0</speed>
  <fix>3d</fix>
</trkpt>
<trkpt lat="40.0713749" lon="-105.229789">
  <ele>1583.0</ele>
  <time>2026-08-28T17:56:04Z</time>
  <course>238.98</course>
  <speed>0.0</speed>
  <fix>3d</fix>
</trkpt>
<trkpt lat="40.0713749" lon="-105.229789">
  <ele>1583.0</ele>
  <time>2026-08-28T17:56:04Z</time>
  <course>0.0</course>
  <speed>0.0</speed>
  <fix>3d</fix>
</trkpt>
<trkpt lat="40.0713749" lon="-105.229789">
  <ele>1583.0</ele>
  <time>2026-08-28T17:56:04Z</time>
  <course>239.32</course>
  <speed>0.0</speed>
  <fix>3d</fix>
</trkpt>
<trkpt lat="40.0713749" lon="-105.229789">
  <ele>1583.0</ele>
  <time>2026-08-28T17:56:04Z</time>
  <course>0.0</course>
  <speed>0.0</speed>
  <fix>3d</fix>
</trkpt>
<trkpt lat="40.0713749" lon="-105.229789">
  <ele>1583.0</ele>
  <time>2026-08-28T17:56:04Z</time>
  <course>239.67</course>
  <speed>0.0</speed>
  <fix>3d</fix>
</trkpt>
<trkpt lat="40.0713749" lon="-105.229789">
  <ele>1583.0</ele>
  <time>2026-08-28T17:56:04Z</time>
  <course>0.0</course>
  <speed>0.0</speed>
  <fix>3d</fix>
</trkpt>
<trkpt lat="40.0713749" lon="-105.229789">
  <ele>1583.0</ele>
  <time>2026-08-28T17:56:04Z</time>
  <course>240.02</course>
  <speed>0.0</speed>
  <fix>3d</fix>
</trkpt>
<trkpt lat="40.0713749" lon="-105.229789">
  <ele>1583.0</ele>
  <time>2026-08-28T17:56:04Z</time>
  <course>0.0</course>
  <speed>0.0</speed>
  <fix>3d</fix>
</trkpt>
<trkpt lat="40.0713749" lon="-105.229789">
  <ele>1583.0</ele>
  <time>2026-08-28T17:56:04Z</time>
  <course>240.35</course>
  <speed>0.0</speed>
  <fix>3d</fix>
</trkpt>
<trkpt lat="40.0713749" lon="-105.229789">
  <ele>1583.0</ele>
  <time>2026-08-28T17:56:04Z</time>
  <course>0.0</course>
  <speed>0.0</speed>
  <fix>3d</fix>
</trkpt>
<trkpt lat="40.0713749" lon="-105.229789">
  <ele>1583.0</ele>
  <time>2026-08-28T17:56:04Z</time>
  <course>240.61</course>
  <speed>0.0</speed>
  <fix>3d</fix>
</trkpt>
<trkpt lat="40.0713749" lon="-105.229789">
  <ele>1583.0</ele>
  <time>2026-08-28T17:56:04Z</time>
  <course>0.0</course>
  <speed>0.0</speed>
  <fix>3d</fix>
</trkpt>
<trkpt lat="40.0713749" lon="-105.229789">
  <ele>1583.0</ele>
  <time>2026-08-28T17:56:04Z</time>
  <course>240.92</course>
  <speed>0.0</speed>
  <fix>3d</fix>
</trkpt>
<trkpt lat="40.0713749" lon="-105.229789">
  <ele>1583.0</ele>
  <time>2026-08-28T17:56:04Z</time>
  <course>0.0</course>
  <speed>0.0</speed>
  <fix>3d</fix>
</trkpt>
<trkpt lat="40.0713749" lon="-105.229789">
  <ele>1583.0</ele>
  <time>2026-08-28T17:56:04Z</time>
  <course>241.21</course>
  <speed>0.0</speed>
  <fix>3d</fix>
</trkpt>
<trkpt lat="40.0713749" lon="-105.229789">
  <ele>1583.0</ele>
  <time>2026-08-28T17:56:04Z</time>
  <course>0.0</course>
  <speed>0.0</speed>
  <fix>3d</fix>
</trkpt>
<trkpt lat="40.0713749" lon="-105.229789">
  <ele>1583.0</ele>
  <time>2026-08-28T17:56:04Z</time>
  <course>241.49</course>
  <speed>0.0</speed>
  <fix>3d</fix>
</trkpt>
<trkpt lat="40.0713749" lon="-105.229789">
  <ele>1583.0</ele>
  <time>2026-08-28T17:56:04Z</time>
  <course>0.0</course>
  <speed>0.0</speed>
  <fix>3d</fix>
</trkpt>
<trkpt lat="40.0713749" lon="-105.229789">
  <ele>1583.0</ele>
  <time>2026-08-28T17:56:04Z</time>
  <course>241.77</course>
  <speed>0.0</speed>
  <fix>3d</fix>
</trkpt>
<trkpt lat="40.0713749" lon="-105.229789">
  <ele>1583.0</ele>
  <time>2026-08-28T17:56:04Z</time>
  <course>0.0</course>
  <speed>0.0</speed>
  <fix>3d</fix>
</trkpt>
<trkpt lat="40.0713749" lon="-105.229789">
  <ele>1583.0</ele>
  <time>2026-08-28T17:56:04Z</time>
  <course>242.03</course>
  <speed>0.0</speed>
  <fix>3d</fix>
</trkpt>
<trkpt lat="40.0713749" lon="-105.229789">
  <ele>1583.0</ele>
  <time>2026-08-28T17:56:04Z</time>
  <course>0.0</course>
  <speed>0.0</speed>
  <fix>3d</fix>
</trkpt>
<trkpt lat="40.0713749" lon="-105.229789">
  <ele>1583.0</ele>
  <time>2026-08-28T17:56:04Z</time>
  <course>242.29</course>
  <speed>0.0</speed>
  <fix>3d</fix>
</trkpt>
<trkpt lat="40.0713749" lon="-105.229789">
  <ele>1583.0</ele>
  <time>2026-08-28T17:56:04Z</time>
  <course>0.0</course>
  <speed>0.0</speed>
  <fix>3d</fix>
</trkpt>
<trkpt lat="40.0713749" lon="-105.229789">
  <ele>1583.0</ele>
  <time>2026-08-28T17:56:04Z</time>
  <course>242.54</course>
  <speed>0.0</speed>
  <fix>3d</fix>
</trkpt>
<trkpt lat="40.0713749" lon="-105.229789">
  <ele>1583.0</ele>
  <time>2026-08-28T17:56:04Z</time>
  <course>0.0</course>
  <speed>0.0</speed>
  <fix>3d</fix>
</trkpt>
<trkpt lat="40.0713749" lon="-105.229789">
  <ele>1583.0</ele>
  <time>2026-08-28T17:56:04Z</time>
  <course>242.79</course>
  <speed>0.0</speed>
  <fix>3d</fix>
</trkpt>
<trkpt lat="40.0713749" lon="-105.229789">
  <ele>1583.0</ele>
  <time>2026-08-28T17:56:04Z</time>
  <course>0.0</course>
  <speed>0.0</speed>
  <fix>3d</fix>
</trkpt>
<trkpt lat="40.0713749" lon="-105.229789">
  <ele>1583.0</ele>
  <time>2026-08-28T17:56:04Z</time>
  <course>243.02</course>
  <speed>0.0</speed>
  <fix>3d</fix>
</trkpt>
<trkpt lat="40.0713749" lon="-105.229789">
  <ele>1583.0</ele>
  <time>2026-08-28T17:56:04Z</time>
  <course>0.0</course>
  <speed>0.0</speed>
  <fix>3d</fix>
</trkpt>
<trkpt lat="40.0713749" lon="-105.229789">
  <ele>1583.0</ele>
  <time>2026-08-28T17:56:04Z</time>
  <course>243.29</course>
  <speed>0.0</speed>
  <fix>3d</fix>
</trkpt>
<trkpt lat="40.0713749" lon="-105.229789">
  <ele>1583.0</ele>
  <time>2026-08-28T17:56:04Z</time>
  <course>0.0</course>
  <speed>0.0</speed>
  <fix>3d</fix>
</trkpt>
<trkpt lat="40.0713749" lon="-105.229789">
  <ele>1583.0</ele>
  <time>2026-08-28T17:56:04Z</time>
  <course>243.51</course>
  <speed>0.0</speed>
  <fix>3d</fix>
</trkpt>
<trkpt lat="40.0713749" lon="-105.229789">
  <ele>1583.0</ele>
  <time>2026-08-28T17:56:04Z</time>
  <course>0.0</course>
  <speed>0.0</speed>
  <fix>3d</fix>
</trkpt>
<trkpt lat="40.0713749" lon="-105.229789">
  <ele>1583.0</ele>
  <time>2026-08-28T17:56:04Z</time>
  <course>243.72</course>
  <speed>0.0</speed>
  <fix>3d</fix>
</trkpt>
<trkpt lat="40.0713749" lon="-105.229789">
  <ele>1583.0</ele>
  <time>2026-08-28T17:56:04Z</time>
  <course>0.0</course>
  <speed>0.0</speed>
  <fix>3d</fix>
</trkpt>
<trkpt lat="40.0713749" lon="-105.229789">
  <ele>1583.0</ele>
  <time>2026-08-28T17:56:04Z</time>
  <course>243.93</course>
  <speed>0.0</speed>
  <fix>3d</fix>
</trkpt>
<trkpt lat="40.0713749" lon="-105.229789">
  <ele>1583.0</ele>
  <time>2026-08-28T17:56:04Z</time>
  <course>0.0</course>
  <speed>0.0</speed>
  <fix>3d</fix>
</trkpt>
<trkpt lat="40.0713749" lon="-105.229789">
  <ele>1583.0</ele>
  <time>2026-08-28T17:56:04Z</time>
  <course>244.12</course>
  <speed>0.0</speed>
  <fix>3d</fix>
</trkpt>
<trkpt lat="40.0713749" lon="-105.229789">
  <ele>1583.0</ele>
  <time>2026-08-28T17:56:04Z</time>
  <course>0.0</course>
  <speed>0.0</speed>
  <fix>3d</fix>
</trkpt>
<trkpt lat="40.0713749" lon="-105.229789">
  <ele>1583.0</ele>
  <time>2026-08-28T17:56:04Z</time>
  <course>244.31</course>
  <speed>0.0</speed>
  <fix>3d</fix>
</trkpt>
<trkpt lat="40.0713749" lon="-105.229789">
  <ele>1583.0</ele>
  <time>2026-08-28T17:56:04Z</time>
  <course>0.0</course>
  <speed>0.0</speed>
  <fix>3d</fix>
</trkpt>
<trkpt lat="40.0713749" lon="-105.229789">
  <ele>1583.0</ele>
  <time>2026-08-28T17:56:04Z</time>
  <course>244.5</course>
  <speed>0.0</speed>
  <fix>3d</fix>
</trkpt>
<trkpt lat="40.0713749" lon="-105.229789">
  <ele>1583.0</ele>
  <time>2026-08-28T17:56:04Z</time>
  <course>0.0</course>
  <speed>0.0</speed>
  <fix>3d</fix>
</trkpt>
<trkpt lat="40.0713749" lon="-105.229789">
  <ele>1583.0</ele>
  <time>2026-08-28T17:56:04Z</time>
  <course>244.67</course>
  <speed>0.0</speed>
  <fix>3d</fix>
</trkpt>
<trkpt lat="40.0713749" lon="-105.229789">
  <ele>1583.0</ele>
  <time>2026-08-28T17:56:04Z</time>
  <course>0.0</course>
  <speed>0.0</speed>
  <fix>3d</fix>
</trkpt>
<trkpt lat="40.0713749" lon="-105.229789">
  <ele>1583.0</ele>
  <time>2026-08-28T17:56:04Z</time>
  <course>244.84</course>
  <speed>0.0</speed>
  <fix>3d</fix>
</trkpt>
<trkpt lat="40.0713749" lon="-105.229789">
  <ele>1583.0</ele>
  <time>2026-08-28T17:56:04Z</time>
  <course>0.0</course>
  <speed>0.0</speed>
  <fix>3d</fix>
</trkpt>
<trkpt lat="40.0713749" lon="-105.229789">
  <ele>1583.0</ele>
  <time>2026-08-28T17:56:04Z</time>
  <course>245.01</course>
  <speed>0.0</speed>
  <fix>3d</fix>
</trkpt>
<trkpt lat="40.0713749" lon="-105.229789">
  <ele>1583.0</ele>
  <time>2026-08-28T17:56:04Z</time>
  <course>0.0</course>
  <speed>0.0</speed>
  <fix>3d</fix>
</trkpt>
<trkpt lat="40.0713749" lon="-105.229789">
  <ele>1583.0</ele>
  <time>2026-08-28T17:56:04Z</time>
  <course>245.16</course>
  <speed>0.0</speed>
  <fix>3d</fix>
</trkpt>
<trkpt lat="40.0713749" lon="-105.229789">
  <ele>1583.0</ele>
  <time>2026-08-28T17:56:04Z</time>
  <course>0.0</course>
  <speed>0.0</speed>
  <fix>3d</fix>
</trkpt>
<trkpt lat="40.0713749" lon="-105.229789">
  <ele>1583.0</ele>
  <time>2026-08-28T17:56:04Z</time>
  <course>245.29</course>
  <speed>0.0</speed>
  <fix>3d</fix>
</trkpt>
<trkpt lat="40.0713749" lon="-105.229789">
  <ele>1583.0</ele>
  <time>2026-08-28T17:56:04Z</time>
  <course>0.0</course>
  <speed>0.0</speed>
  <fix>3d</fix>
</trkpt>
<trkpt lat="40.0713749" lon="-105.229789">
  <ele>1583.0</ele>
  <time>2026-08-28T17:56:04Z</time>
  <course>245.43</course>
  <speed>0.0</speed>
  <fix>3d</fix>
</trkpt>
<trkpt lat="40.0713749" lon="-105.229789">
  <ele>1583.0</ele>
  <time>2026-08-28T17:56:04Z</time>
  <course>0.0</course>
  <speed>0.0</speed>
  <fix>3d</fix>
</trkpt>
<trkpt lat="40.0713749" lon="-105.229789">
  <ele>1583.0</ele>
  <time>2026-08-28T17:56:04Z</time>
  <course>245.57</course>
  <speed>0.0</speed>
  <fix>3d</fix>
</trkpt>
<trkpt lat="40.0713749" lon="-105.229789">
  <ele>1583.0</ele>
  <time>2026-08-28T17:56:04Z</time>
  <course>0.0</course>
  <speed>0.0</speed>
  <fix>3d</fix>
</trkpt>
<trkpt lat="40.0713749" lon="-105.229789">
  <ele>1583.0</ele>
  <time>2026-08-28T17:56:04Z</time>
  <course>245.71</course>
  <speed>0.0</speed>
  <fix>3d</fix>
</trkpt>
<trkpt lat="40.0713749" lon="-105.229789">
  <ele>1583.0</ele>
  <time>2026-08-28T17:56:04Z</time>
  <course>0.0</course>
  <speed>0.0</speed>
  <fix>3d</fix>
</trkpt>
<trkpt lat="40.0713749" lon="-105.229789">
  <ele>1583.0</ele>
  <time>2026-08-28T17:56:04Z</time>
  <course>245.84</course>
  <speed>0.0</speed>
  <fix>3d</fix>
</trkpt>
<trkpt lat="40.0713749" lon="-105.229789">
  <ele>1583.0</ele>
  <time>2026-08-28T17:56:04Z</time>
  <course>0.0</course>
  <speed>0.0</speed>
  <fix>3d</fix>
</trkpt>
<trkpt lat="40.0713749" lon="-105.229789">
  <ele>1583.0</ele>
  <time>2026-08-28T17:56:04Z</time>
  <course>245.96</course>
  <speed>0.0</speed>
  <fix>3d</fix>
</trkpt>
<trkpt lat="40.0713749" lon="-105.229789">
  <ele>1583.0</ele>
  <time>2026-08-28T17:56:04Z</time>
  <course>0.0</course>
  <speed>0.0</speed>
  <fix>3d</fix>
</trkpt>
<trkpt lat="40.0713749" lon="-105.229789">
  <ele>1583.0</ele>
  <time>2026-08-28T17:56:04Z</time>
  <course>246.08</course>
  <speed>0.0</speed>
  <fix>3d</fix>
</trkpt>
<trkpt lat="40.0713749" lon="-105.229789">
  <ele>1583.0</ele>
  <time>2026-08-28T17:56:04Z</time>
  <course>0.0</course>
  <speed>0.0</speed>
  <fix>3d</fix>
</trkpt>
<trkpt lat="40.0713749" lon="-105.229789">
  <ele>1583.0</ele>
  <time>2026-08-28T17:56:04Z</time>
  <course>246.19</course>
  <speed>0.0</speed>
  <fix>3d</fix>
</trkpt>
<trkpt lat="40.0713749" lon="-105.229789">
  <ele>1583.0</ele>
  <time>2026-08-28T17:56:04Z</time>
  <course>0.0</course>
  <speed>0.0</speed>
  <fix>3d</fix>
</trkpt>
<trkpt lat="40.0713749" lon="-105.229789">
  <ele>1583.0</ele>
  <time>2026-08-28T17:56:04Z</time>
  <course>246.3</course>
  <speed>0.0</speed>
  <fix>3d</fix>
</trkpt>
<trkpt lat="40.0713749" lon="-105.229789">
  <ele>1583.0</ele>
  <time>2026-08-28T17:56:04Z</time>
  <course>0.0</course>
  <speed>0.0</speed>
  <fix>3d</fix>
</trkpt>
<trkpt lat="40.0713749" lon="-105.229789">
  <ele>1583.0</ele>
  <time>2026-08-28T17:56:04Z</time>
  <course>246.41</course>
  <speed>0.0</speed>
  <fix>3d</fix>
</trkpt>
<trkpt lat="40.0713749" lon="-105.229789">
  <ele>1583.0</ele>
  <time>2026-08-28T17:56:04Z</time>
  <course>0.0</course>
  <speed>0.0</speed>
  <fix>3d</fix>
</trkpt>
<trkpt lat="40.0713749" lon="-105.229789">
  <ele>1583.0</ele>
  <time>2026-08-28T17:56:04Z</time>
  <course>246.53</course>
  <speed>0.0</speed>
  <fix>3d</fix>
</trkpt>
<trkpt lat="40.0713749" lon="-105.229789">
  <ele>1583.0</ele>
  <time>2026-08-28T17:56:04Z</time>
  <course>0.0</course>
  <speed>0.0</speed>
  <fix>3d</fix>
</trkpt>
<trkpt lat="40.0713749" lon="-105.229789">
  <ele>1583.0</ele>
  <time>2026-08-28T17:56:04Z</time>
  <course>246.62</course>
  <speed>0.0</speed>
  <fix>3d</fix>
</trkpt>
<trkpt lat="40.0713749" lon="-105.229789">
  <ele>1583.0</ele>
  <time>2026-08-28T17:56:04Z</time>
  <course>0.0</course>
  <speed>0.0</speed>
  <fix>3d</fix>
</trkpt>
<trkpt lat="40.0713749" lon="-105.229789">
  <ele>1583.0</ele>
  <time>2026-08-28T17:56:04Z</time>
  <course>246.71</course>
  <speed>0.0</speed>
  <fix>3d</fix>
</trkpt>
<trkpt lat="40.0713749" lon="-105.229789">
  <ele>1583.0</ele>
  <time>2026-08-28T17:56:04Z</time>
  <course>0.0</course>
  <speed>0.0</speed>
  <fix>3d</fix>
</trkpt>
<trkpt lat="40.0713749" lon="-105.229789">
  <ele>1583.0</ele>
  <time>2026-08-28T17:56:04Z</time>
  <course>246.8</course>
  <speed>0.0</speed>
  <fix>3d</fix>
</trkpt>
<trkpt lat="40.0713749" lon="-105.229789">
  <ele>1583.0</ele>
  <time>2026-08-28T17:56:04Z</time>
  <course>0.0</course>
  <speed>0.0</speed>
  <fix>3d</fix>
</trkpt>
<trkpt lat="40.0713749" lon="-105.229789">
  <ele>1583.0</ele>
  <time>2026-08-28T17:56:04Z</time>
  <course>246.88</course>
  <speed>0.0</speed>
  <fix>3d</fix>
</trkpt>
<trkpt lat="40.0713749" lon="-105.229789">
  <ele>1583.0</ele>
  <time>2026-08-28T17:56:04Z</time>
  <course>0.0</course>
  <speed>0.0</speed>
  <fix>3d</fix>
</trkpt>
<trkpt lat="40.0713749" lon="-105.229789">
  <ele>1583.0</ele>
  <time>2026-08-28T17:56:04Z</time>
  <course>246.96</course>
  <speed>0.0</speed>
  <fix>3d</fix>
</trkpt>
<trkpt lat="40.0713749" lon="-105.229789">
  <ele>1583.0</ele>
  <time>2026-08-28T17:56:04Z</time>
  <course>0.0</course>
  <speed>0.0</speed>
  <fix>3d</fix>
</trkpt>
<trkpt lat="40.0713749" lon="-105.229789">
  <ele>1583.0</ele>
  <time>2026-08-28T17:56:04Z</time>
  <course>247.04</course>
  <speed>0.0</speed>
  <fix>3d</fix>
</trkpt>
<trkpt lat="40.0713749" lon="-105.229789">
  <ele>1583.0</ele>
  <time>2026-08-28T17:56:04Z</time>
  <course>0.0</course>
  <speed>0.0</speed>
  <fix>3d</fix>
</trkpt>
<trkpt lat="40.0713749" lon="-105.229789">
  <ele>1583.0</ele>
  <time>2026-08-28T17:56:04Z</time>
  <course>247.11</course>
  <speed>0.0</speed>
  <fix>3d</fix>
</trkpt>
<trkpt lat="40.0713749" lon="-105.229789">
  <ele>1583.0</ele>
  <time>2026-08-28T17:56:04Z</time>
  <course>0.0</course>
  <speed>0.0</speed>
  <fix>3d</fix>
</trkpt>
<trkpt lat="40.0713749" lon="-105.229789">
  <ele>1583.0</ele>
  <time>2026-08-28T17:56:04Z</time>
  <course>247.18</course>
  <speed>0.0</speed>
  <fix>3d</fix>
</trkpt>
<trkpt lat="40.0713749" lon="-105.229789">
  <ele>1583.0</ele>
  <time>2026-08-28T17:56:04Z</time>
  <course>0.0</course>
  <speed>0.0</speed>
  <fix>3d</fix>
</trkpt>
<trkpt lat="40.0713749" lon="-105.229789">
  <ele>1583.0</ele>
  <time>2026-08-28T17:56:04Z</time>
  <course>247.25</course>
  <speed>0.0</speed>
  <fix>3d</fix>
</trkpt>
<trkpt lat="40.0713749" lon="-105.229789">
  <ele>1583.0</ele>
  <time>2026-08-28T17:56:04Z</time>
  <course>0.0</course>
  <speed>0.0</speed>
  <fix>3d</fix>
</trkpt>
<trkpt lat="40.0713749" lon="-105.229789">
  <ele>1583.0</ele>
  <time>2026-08-28T17:56:04Z</time>
  <course>247.31</course>
  <speed>0.0</speed>
  <fix>3d</fix>
</trkpt>
<trkpt lat="40.0713749" lon="-105.229789">
  <ele>1583.0</ele>
  <time>2026-08-28T17:56:04Z</time>
  <course>0.0</course>
  <speed>0.0</speed>
  <fix>3d</fix>
</trkpt>
<trkpt lat="40.0713749" lon="-105.229789">
  <ele>1583.0</ele>
  <time>2026-08-28T17:56:04Z</time>
  <course>247.36</course>
  <speed>0.0</speed>
  <fix>3d</fix>
</trkpt>
<trkpt lat="40.0713749" lon="-105.229789">
  <ele>1583.0</ele>
  <time>2026-08-28T17:56:04Z</time>
  <course>0.0</course>
  <speed>0.0</speed>
  <fix>3d</fix>
</trkpt>
<trkpt lat="40.0713749" lon="-105.229789">
  <ele>1583.0</ele>
  <time>2026-08-28T17:56:04Z</time>
  <course>247.42</course>
  <speed>0.0</speed>
  <fix>3d</fix>
</trkpt>
<trkpt lat="40.0713749" lon="-105.229789">
  <ele>1583.0</ele>
  <time>2026-08-28T17:56:04Z</time>
  <course>0.0</course>
  <speed>0.0</speed>
  <fix>3d</fix>
</trkpt>
<trkpt lat="40.0713749" lon="-105.229789">
  <ele>1583.0</ele>
  <time>2026-08-28T17:56:04Z</time>
  <course>247.47</course>
  <speed>0.0</speed>
  <fix>3d</fix>
</trkpt>
<trkpt lat="40.0713749" lon="-105.229789">
  <ele>1583.0</ele>
  <time>2026-08-28T17:56:04Z</time>
  <course>0.0</course>
  <speed>0.0</speed>
  <fix>3d</fix>
</trkpt>
<trkpt lat="40.0713749" lon="-105.229789">
  <ele>1583.0</ele>
  <time>2026-08-28T17:56:04Z</time>
  <course>247.53</course>
  <speed>0.0</speed>
  <fix>3d</fix>
</trkpt>
<trkpt lat="40.0713749" lon="-105.229789">
  <ele>1583.0</ele>
  <time>2026-08-28T17:56:04Z</time>
  <course>0.0</course>
  <speed>0.0</speed>
  <fix>3d</fix>
</trkpt>
<trkpt lat="40.0713749" lon="-105.229789">
  <ele>1583.0</ele>
  <time>2026-08-28T17:56:04Z</time>
  <course>247.58</course>
  <speed>0.0</speed>
  <fix>3d</fix>
</trkpt>
<trkpt lat="40.0713749" lon="-105.229789">
  <ele>1583.0</ele>
  <time>2026-08-28T17:56:04Z</time>
  <course>0.0</course>
  <speed>0.0</speed>
  <fix>3d</fix>
</trkpt>
<trkpt lat="40.0713749" lon="-105.229789">
  <ele>1583.0</ele>
  <time>2026-08-28T17:56:04Z</time>
  <course>247.63</course>
  <speed>0.0</speed>
  <fix>3d</fix>
</trkpt>
<trkpt lat="40.0713749" lon="-105.229789">
  <ele>1583.0</ele>
  <time>2026-08-28T17:56:04Z</time>
  <course>0.0</course>
  <speed>0.0</speed>
  <fix>3d</fix>
</trkpt>
<trkpt lat="40.0713749" lon="-105.229789">
  <ele>1583.0</ele>
  <time>2026-08-28T17:56:04Z</time>
  <course>247.67</course>
  <speed>0.0</speed>
  <fix>3d</fix>
</trkpt>
<trkpt lat="40.0713749" lon="-105.229789">
  <ele>1583.0</ele>
  <time>2026-08-28T17:56:05Z</time>
  <course>0.0</course>
  <speed>0.0</speed>
  <fix>3d</fix>
</trkpt>
<trkpt lat="40.0713749" lon="-105.229789">
  <ele>1583.0</ele>
  <time>2026-08-28T17:56:05Z</time>
  <course>247.72</course>
  <speed>0.0</speed>
  <fix>3d</fix>
</trkpt>
<trkpt lat="40.0713749" lon="-105.229789">
  <ele>1583.0</ele>
  <time>2026-08-28T17:56:05Z</time>
  <course>0.0</course>
  <speed>0.0</speed>
  <fix>3d</fix>
</trkpt>
<trkpt lat="40.0713749" lon="-105.229789">
  <ele>1583.0</ele>
  <time>2026-08-28T17:56:05Z</time>
  <course>247.76</course>
  <speed>0.0</speed>
  <fix>3d</fix>
</trkpt>
<trkpt lat="40.0713749" lon="-105.229789">
  <ele>1583.0</ele>
  <time>2026-08-28T17:56:05Z</time>
  <course>0.0</course>
  <speed>0.0</speed>
  <fix>3d</fix>
</trkpt>
<trkpt lat="40.0713749" lon="-105.229789">
  <ele>1583.0</ele>
  <time>2026-08-28T17:56:05Z</time>
  <course>247.81</course>
  <speed>0.0</speed>
  <fix>3d</fix>
</trkpt>
<trkpt lat="40.0713749" lon="-105.229789">
  <ele>1583.0</ele>
  <time>2026-08-28T17:56:05Z</time>
  <course>0.0</course>
  <speed>0.0</speed>
  <fix>3d</fix>
</trkpt>
<trkpt lat="40.0713749" lon="-105.229789">
  <ele>1583.0</ele>
  <time>2026-08-28T17:56:05Z</time>
  <course>247.84</course>
  <speed>0.0</speed>
  <fix>3d</fix>
</trkpt>
<trkpt lat="40.0713749" lon="-105.229789">
  <ele>1583.0</ele>
  <time>2026-08-28T17:56:05Z</time>
  <course>0.0</course>
  <speed>0.0</speed>
  <fix>3d</fix>
</trkpt>
<trkpt lat="40.0713749" lon="-105.229789">
  <ele>1583.0</ele>
  <time>2026-08-28T17:56:05Z</time>
  <course>247.88</course>
  <speed>0.0</speed>
  <fix>3d</fix>
</trkpt>
<trkpt lat="40.0713749" lon="-105.229789">
  <ele>1583.0</ele>
  <time>2026-08-28T17:56:05Z</time>
  <course>0.0</course>
  <speed>0.0</speed>
  <fix>3d</fix>
</trkpt>
<trkpt lat="40.0713749" lon="-105.229789">
  <ele>1583.0</ele>
  <time>2026-08-28T17:56:05Z</time>
  <course>247.91</course>
  <speed>0.0</speed>
  <fix>3d</fix>
</trkpt>
<trkpt lat="40.0713749" lon="-105.229789">
  <ele>1583.0</ele>
  <time>2026-08-28T17:56:05Z</time>
  <course>0.0</course>
  <speed>0.0</speed>
  <fix>3d</fix>
</trkpt>
<trkpt lat="40.0713749" lon="-105.229789">
  <ele>1583.0</ele>
  <time>2026-08-28T17:56:05Z</time>
  <course>247.94</course>
  <speed>0.0</speed>
  <fix>3d</fix>
</trkpt>
<trkpt lat="40.0713749" lon="-105.229789">
  <ele>1583.0</ele>
  <time>2026-08-28T17:56:05Z</time>
  <course>0.0</course>
  <speed>0.0</speed>
  <fix>3d</fix>
</trkpt>
<trkpt lat="40.0713749" lon="-105.229789">
  <ele>1583.0</ele>
  <time>2026-08-28T17:56:05Z</time>
  <course>247.97</course>
  <speed>0.0</speed>
  <fix>3d</fix>
</trkpt>
<trkpt lat="40.0713749" lon="-105.229789">
  <ele>1583.0</ele>
  <time>2026-08-28T17:56:05Z</time>
  <course>0.0</course>
  <speed>0.0</speed>
  <fix>3d</fix>
</trkpt>
<trkpt lat="40.0713749" lon="-105.229789">
  <ele>1583.0</ele>
  <time>2026-08-28T17:56:05Z</time>
  <course>248.0</course>
  <speed>0.0</speed>
  <fix>3d</fix>
</trkpt>
<trkpt lat="40.0713749" lon="-105.229789">
  <ele>1583.0</ele>
  <time>2026-08-28T17:56:05Z</time>
  <course>0.0</course>
  <speed>0.0</speed>
  <fix>3d</fix>
</trkpt>
<trkpt lat="40.0713749" lon="-105.229789">
  <ele>1583.0</ele>
  <time>2026-08-28T17:56:05Z</time>
  <course>248.03</course>
  <speed>0.0</speed>
  <fix>3d</fix>
</trkpt>
<trkpt lat="40.0713749" lon="-105.229789">
  <ele>1583.0</ele>
  <time>2026-08-28T17:56:05Z</time>
  <course>0.0</course>
  <speed>0.0</speed>
  <fix>3d</fix>
</trkpt>
<trkpt lat="40.0713749" lon="-105.229789">
  <ele>1583.0</ele>
  <time>2026-08-28T17:56:05Z</time>
  <course>248.06</course>
  <speed>0.0</speed>
  <fix>3d</fix>
</trkpt>
<trkpt lat="40.0713749" lon="-105.229789">
  <ele>1583.0</ele>
  <time>2026-08-28T17:56:05Z</time>
  <course>0.0</course>
  <speed>0.0</speed>
  <fix>3d</fix>
</trkpt>
<trkpt lat="40.0713749" lon="-105.229789">
  <ele>1583.0</ele>
  <time>2026-08-28T17:56:05Z</time>
  <course>248.08</course>
  <speed>0.0</speed>
  <fix>3d</fix>
</trkpt>
<trkpt lat="40.0713749" lon="-105.229789">
  <ele>1583.0</ele>
  <time>2026-08-28T17:56:05Z</time>
  <course>0.0</course>
  <speed>0.0</speed>
  <fix>3d</fix>
</trkpt>
<trkpt lat="40.0713749" lon="-105.229789">
  <ele>1583.0</ele>
  <time>2026-08-28T17:56:05Z</time>
  <course>248.11</course>
  <speed>0.0</speed>
  <fix>3d</fix>
</trkpt>
<trkpt lat="40.0713749" lon="-105.229789">
  <ele>1583.0</ele>
  <time>2026-08-28T17:56:05Z</time>
  <course>0.0</course>
  <speed>0.0</speed>
  <fix>3d</fix>
</trkpt>
<trkpt lat="40.0713749" lon="-105.229789">
  <ele>1583.0</ele>
  <time>2026-08-28T17:56:05Z</time>
  <course>248.12</course>
  <speed>0.0</speed>
  <fix>3d</fix>
</trkpt>
<trkpt lat="40.0713749" lon="-105.229789">
  <ele>1583.0</ele>
  <time>2026-08-28T17:56:05Z</time>
  <course>0.0</course>
  <speed>0.0</speed>
  <fix>3d</fix>
</trkpt>
<trkpt lat="40.0713749" lon="-105.229789">
  <ele>1583.0</ele>
  <time>2026-08-28T17:56:05Z</time>
  <course>248.14</course>
  <speed>0.0</speed>
  <fix>3d</fix>
</trkpt>
<trkpt lat="40.0713749" lon="-105.229789">
  <ele>1583.0</ele>
  <time>2026-08-28T17:56:05Z</time>
  <course>0.0</course>
  <speed>0.0</speed>
  <fix>3d</fix>
</trkpt>
<trkpt lat="40.0713749" lon="-105.229789">
  <ele>1583.0</ele>
  <time>2026-08-28T17:56:05Z</time>
  <course>248.16</course>
  <speed>0.0</speed>
  <fix>3d</fix>
</trkpt>
<trkpt lat="40.0713749" lon="-105.229789">
  <ele>1583.0</ele>
  <time>2026-08-28T17:56:05Z</time>
  <course>0.0</course>
  <speed>0.0</speed>
  <fix>3d</fix>
</trkpt>
<trkpt lat="40.0713749" lon="-105.229789">
  <ele>1583.0</ele>
  <time>2026-08-28T17:56:05Z</time>
  <course>248.18</course>
  <speed>0.0</speed>
  <fix>3d</fix>
</trkpt>
<trkpt lat="40.0713749" lon="-105.229789">
  <ele>1583.0</ele>
  <time>2026-08-28T17:56:05Z</time>
  <course>0.0</course>
  <speed>0.0</speed>
  <fix>3d</fix>
</trkpt>
<trkpt lat="40.0713749" lon="-105.229789">
  <ele>1583.0</ele>
  <time>2026-08-28T17:56:05Z</time>
  <course>248.2</course>
  <speed>0.0</speed>
  <fix>3d</fix>
</trkpt>
<trkpt lat="40.0713749" lon="-105.229789">
  <ele>1583.0</ele>
  <time>2026-08-28T17:56:05Z</time>
  <course>0.0</course>
  <speed>0.0</speed>
  <fix>3d</fix>
</trkpt>
<trkpt lat="40.0713749" lon="-105.229789">
  <ele>1583.0</ele>
  <time>2026-08-28T17:56:05Z</time>
  <course>248.22</course>
  <speed>0.0</speed>
  <fix>3d</fix>
</trkpt>
<trkpt lat="40.0713749" lon="-105.229789">
  <ele>1583.0</ele>
  <time>2026-08-28T17:56:05Z</time>
  <course>0.0</course>
  <speed>0.0</speed>
  <fix>3d</fix>
</trkpt>
<trkpt lat="40.0713749" lon="-105.229789">
  <ele>1583.0</ele>
  <time>2026-08-28T17:56:05Z</time>
  <course>248.23</course>
  <speed>0.0</speed>
  <fix>3d</fix>
</trkpt>
<trkpt lat="40.0713749" lon="-105.229789">
  <ele>1583.0</ele>
  <time>2026-08-28T17:56:05Z</time>
  <course>0.0</course>
  <speed>0.0</speed>
  <fix>3d</fix>
</trkpt>
<trkpt lat="40.0713749" lon="-105.229789">
  <ele>1583.0</ele>
  <time>2026-08-28T17:56:05Z</time>
  <course>248.25</course>
  <speed>0.0</speed>
  <fix>3d</fix>
</trkpt>
<trkpt lat="40.0713749" lon="-105.229789">
  <ele>1583.0</ele>
  <time>2026-08-28T17:56:05Z</time>
  <course>0.0</course>
  <speed>0.0</speed>
  <fix>3d</fix>
</trkpt>
<trkpt lat="40.0713749" lon="-105.229789">
  <ele>1583.0</ele>
  <time>2026-08-28T17:56:05Z</time>
  <course>248.26</course>
  <speed>0.0</speed>
  <fix>3d</fix>
</trkpt>
<trkpt lat="40.0713749" lon="-105.229789">
  <ele>1583.0</ele>
  <time>2026-08-28T17:56:05Z</time>
  <course>0.0</course>
  <speed>0.0</speed>
  <fix>3d</fix>
</trkpt>
<trkpt lat="40.0713749" lon="-105.229789">
  <ele>1583.0</ele>
  <time>2026-08-28T17:56:05Z</time>
  <course>248.28</course>
  <speed>0.0</speed>
  <fix>3d</fix>
</trkpt>
<trkpt lat="40.0713749" lon="-105.229789">
  <ele>1583.0</ele>
  <time>2026-08-28T17:56:05Z</time>
  <course>0.0</course>
  <speed>0.0</speed>
  <fix>3d</fix>
</trkpt>
<trkpt lat="40.0713749" lon="-105.229789">
  <ele>1583.0</ele>
  <time>2026-08-28T17:56:05Z</time>
  <course>248.29</course>
  <speed>0.0</speed>
  <fix>3d</fix>
</trkpt>
<trkpt lat="40.0713749" lon="-105.229789">
  <ele>1583.0</ele>
  <time>2026-08-28T17:56:05Z</time>
  <course>0.0</course>
  <speed>0.0</speed>
  <fix>3d</fix>
</trkpt>
<trkpt lat="40.0713749" lon="-105.229789">
  <ele>1583.0</ele>
  <time>2026-08-28T17:56:05Z</time>
  <course>248.3</course>
  <speed>0.0</speed>
  <fix>3d</fix>
</trkpt>
<trkpt lat="40.0713749" lon="-105.229789">
  <ele>1583.0</ele>
  <time>2026-08-28T17:56:05Z</time>
  <course>0.0</course>
  <speed>0.0</speed>
  <fix>3d</fix>
</trkpt>
<trkpt lat="40.0713749" lon="-105.229789">
  <ele>1583.0</ele>
  <time>2026-08-28T17:56:05Z</time>
  <course>248.31</course>
  <speed>0.0</speed>
  <fix>3d</fix>
</trkpt>
<trkpt lat="40.0713749" lon="-105.229789">
  <ele>1583.0</ele>
  <time>2026-08-28T17:56:05Z</time>
  <course>0.0</course>
  <speed>0.0</speed>
  <fix>3d</fix>
</trkpt>
<trkpt lat="40.0713749" lon="-105.229789">
  <ele>1583.0</ele>
  <time>2026-08-28T17:56:05Z</time>
  <course>248.32</course>
  <speed>0.0</speed>
  <fix>3d</fix>
</trkpt>
<trkpt lat="40.0713749" lon="-105.229789">
  <ele>1583.0</ele>
  <time>2026-08-28T17:56:05Z</time>
  <course>0.0</course>
  <speed>0.0</speed>
  <fix>3d</fix>
</trkpt>
<trkpt lat="40.0713749" lon="-105.229789">
  <ele>1583.0</ele>
  <time>2026-08-28T17:56:05Z</time>
  <course>248.33</course>
  <speed>0.0</speed>
  <fix>3d</fix>
</trkpt>
<trkpt lat="40.0713749" lon="-105.229789">
  <ele>1583.0</ele>
  <time>2026-08-28T17:56:05Z</time>
  <course>0.0</course>
  <speed>0.0</speed>
  <fix>3d</fix>
</trkpt>
<trkpt lat="40.0713749" lon="-105.229789">
  <ele>1583.0</ele>
  <time>2026-08-28T17:56:05Z</time>
  <course>248.34</course>
  <speed>0.0</speed>
  <fix>3d</fix>
</trkpt>
<trkpt lat="40.0713749" lon="-105.229789">
  <ele>1583.0</ele>
  <time>2026-08-28T17:56:05Z</time>
  <course>0.0</course>
  <speed>0.0</speed>
  <fix>3d</fix>
</trkpt>
<trkpt lat="40.0713749" lon="-105.229789">
  <ele>1583.0</ele>
  <time>2026-08-28T17:56:05Z</time>
  <course>248.35</course>
  <speed>0.0</speed>
  <fix>3d</fix>
</trkpt>
<trkpt lat="40.0713749" lon="-105.229789">
  <ele>1583.0</ele>
  <time>2026-08-28T17:56:05Z</time>
  <course>0.0</course>
  <speed>0.0</speed>
  <fix>3d</fix>
</trkpt>
<trkpt lat="40.0713749" lon="-105.229789">
  <ele>1583.0</ele>
  <time>2026-08-28T17:56:05Z</time>
  <course>248.36</course>
  <speed>0.0</speed>
  <fix>3d</fix>
</trkpt>
<trkpt lat="40.0713749" lon="-105.229789">
  <ele>1583.0</ele>
  <time>2026-08-28T17:56:05Z</time>
  <course>0.0</course>
  <speed>0.0</speed>
  <fix>3d</fix>
</trkpt>
<trkpt lat="40.0713749" lon="-105.229789">
  <ele>1583.0</ele>
  <time>2026-08-28T17:56:05Z</time>
  <course>248.36</course>
  <speed>0.0</speed>
  <fix>3d</fix>
</trkpt>
<trkpt lat="40.0713749" lon="-105.229789">
  <ele>1583.0</ele>
  <time>2026-08-28T17:56:05Z</time>
  <course>0.0</course>
  <speed>0.0</speed>
  <fix>3d</fix>
</trkpt>
<trkpt lat="40.0713749" lon="-105.229789">
  <ele>1583.0</ele>
  <time>2026-08-28T17:56:05Z</time>
  <course>248.37</course>
  <speed>0.0</speed>
  <fix>3d</fix>
</trkpt>
<trkpt lat="40.0713749" lon="-105.229789">
  <ele>1583.0</ele>
  <time>2026-08-28T17:56:05Z</time>
  <course>0.0</course>
  <speed>0.0</speed>
  <fix>3d</fix>
</trkpt>
<trkpt lat="40.0713749" lon="-105.229789">
  <ele>1583.0</ele>
  <time>2026-08-28T17:56:05Z</time>
  <course>248.38</course>
  <speed>0.0</speed>
  <fix>3d</fix>
</trkpt>
<trkpt lat="40.0713749" lon="-105.229789">
  <ele>1583.0</ele>
  <time>2026-08-28T17:56:05Z</time>
  <course>0.0</course>
  <speed>0.0</speed>
  <fix>3d</fix>
</trkpt>
<trkpt lat="40.0713749" lon="-105.229789">
  <ele>1583.0</ele>
  <time>2026-08-28T17:56:05Z</time>
  <course>248.38</course>
  <speed>0.0</speed>
  <fix>3d</fix>
</trkpt>
<trkpt lat="40.0713749" lon="-105.229789">
  <ele>1583.0</ele>
  <time>2026-08-28T17:56:05Z</time>
  <course>0.0</course>
  <speed>0.0</speed>
  <fix>3d</fix>
</trkpt>
<trkpt lat="40.0713749" lon="-105.229789">
  <ele>1583.0</ele>
  <time>2026-08-28T17:56:05Z</time>
  <course>248.38</course>
  <speed>0.0</speed>
  <fix>3d</fix>
</trkpt>
<trkpt lat="40.0713749" lon="-105.229789">
  <ele>1583.0</ele>
  <time>2026-08-28T17:56:05Z</time>
  <course>0.0</course>
  <speed>0.0</speed>
  <fix>3d</fix>
</trkpt>
<trkpt lat="40.0713749" lon="-105.229789">
  <ele>1583.0</ele>
  <time>2026-08-28T17:56:05Z</time>
  <course>248.39</course>
  <speed>0.0</speed>
  <fix>3d</fix>
</trkpt>
<trkpt lat="40.0713749" lon="-105.229789">
  <ele>1583.0</ele>
  <time>2026-08-28T17:56:05Z</time>
  <course>0.0</course>
  <speed>0.0</speed>
  <fix>3d</fix>
</trkpt>
<trkpt lat="40.0713749" lon="-105.229789">
  <ele>1583.0</ele>
  <time>2026-08-28T17:56:05Z</time>
  <course>248.39</course>
  <speed>0.0</speed>
  <fix>3d</fix>
</trkpt>
<trkpt lat="40.0713749" lon="-105.229789">
  <ele>1583.0</ele>
  <time>2026-08-28T17:56:05Z</time>
  <course>0.0</course>
  <speed>0.0</speed>
  <fix>3d</fix>
</trkpt>
<trkpt lat="40.0713749" lon="-105.229789">
  <ele>1583.0</ele>
  <time>2026-08-28T17:56:05Z</time>
  <course>248.4</course>
  <speed>0.0</speed>
  <fix>3d</fix>
</trkpt>
<trkpt lat="40.0713749" lon="-105.229789">
  <ele>1583.0</ele>
  <time>2026-08-28T17:56:05Z</time>
  <course>0.0</course>
  <speed>0.0</speed>
  <fix>3d</fix>
</trkpt>
<trkpt lat="40.0713749" lon="-105.229789">
  <ele>1583.0</ele>
  <time>2026-08-28T17:56:05Z</time>
  <course>248.4</course>
  <speed>0.0</speed>
  <fix>3d</fix>
</trkpt>
<trkpt lat="40.0713749" lon="-105.229789">
  <ele>1583.0</ele>
  <time>2026-08-28T17:56:05Z</time>
  <course>0.0</course>
  <speed>0.0</speed>
  <fix>3d</fix>
</trkpt>
<trkpt lat="40.0713749" lon="-105.229789">
  <ele>1583.0</ele>
  <time>2026-08-28T17:56:05Z</time>
  <course>248.4</course>
  <speed>0.0</speed>
  <fix>3d</fix>
</trkpt>
<trkpt lat="40.0713749" lon="-105.229789">
  <ele>1583.0</ele>
  <time>2026-08-28T17:56:05Z</time>
  <course>0.0</course>
  <speed>0.0</speed>
  <fix>3d</fix>
</trkpt>
<trkpt lat="40.0713749" lon="-105.229789">
  <ele>1583.0</ele>
  <time>2026-08-28T17:56:05Z</time>
  <course>248.4</course>
  <speed>0.0</speed>
  <fix>3d</fix>
</trkpt>
<trkpt lat="40.0713749" lon="-105.229789">
  <ele>1583.0</ele>
  <time>2026-08-28T17:56:05Z</time>
  <course>0.0</course>
  <speed>0.0</speed>
  <fix>3d</fix>
</trkpt>
<trkpt lat="40.0713749" lon="-105.229789">
  <ele>1583.0</ele>
  <time>2026-08-28T17:56:05Z</time>
  <course>248.41</course>
  <speed>0.0</speed>
  <fix>3d</fix>
</trkpt>
<trkpt lat="40.0713749" lon="-105.229789">
  <ele>1583.0</ele>
  <time>2026-08-28T17:56:05Z</time>
  <course>0.0</course>
  <speed>0.0</speed>
  <fix>3d</fix>
</trkpt>
<trkpt lat="40.0713749" lon="-105.229789">
  <ele>1583.0</ele>
  <time>2026-08-28T17:56:05Z</time>
  <course>248.41</course>
  <speed>0.0</speed>
  <fix>3d</fix>
</trkpt>
<trkpt lat="40.0713749" lon="-105.229789">
  <ele>1583.0</ele>
  <time>2026-08-28T17:56:05Z</time>
  <course>0.0</course>
  <speed>0.0</speed>
  <fix>3d</fix>
</trkpt>
<trkpt lat="40.0713749" lon="-105.229789">
  <ele>1583.0</ele>
  <time>2026-08-28T17:56:05Z</time>
  <course>248.41</course>
  <speed>0.0</speed>
  <fix>3d</fix>
</trkpt>
<trkpt lat="40.0713749" lon="-105.229789">
  <ele>1583.0</ele>
  <time>2026-08-28T17:56:05Z</time>
  <course>0.0</course>
  <speed>0.0</speed>
  <fix>3d</fix>
</trkpt>
<trkpt lat="40.0713749" lon="-105.229789">
  <ele>1583.0</ele>
  <time>2026-08-28T17:56:05Z</time>
  <course>248.41</course>
  <speed>0.0</speed>
  <fix>3d</fix>
</trkpt>
<trkpt lat="40.0713749" lon="-105.229789">
  <ele>1583.0</ele>
  <time>2026-08-28T17:56:05Z</time>
  <course>0.0</course>
  <speed>0.0</speed>
  <fix>3d</fix>
</trkpt>
<trkpt lat="40.0713749" lon="-105.229789">
  <ele>1583.0</ele>
  <time>2026-08-28T17:56:05Z</time>
  <course>248.41</course>
  <speed>0.0</speed>
  <fix>3d</fix>
</trkpt>
<trkpt lat="40.0713749" lon="-105.229789">
  <ele>1583.0</ele>
  <time>2026-08-28T17:56:05Z</time>
  <course>0.0</course>
  <speed>0.0</speed>
  <fix>3d</fix>
</trkpt>
<trkpt lat="40.0713749" lon="-105.229789">
  <ele>1583.0</ele>
  <time>2026-08-28T17:56:05Z</time>
  <course>248.41</course>
  <speed>0.0</speed>
  <fix>3d</fix>
</trkpt>
<trkpt lat="40.0713749" lon="-105.229789">
  <ele>1583.0</ele>
  <time>2026-08-28T17:56:05Z</time>
  <course>0.0</course>
  <speed>0.0</speed>
  <fix>3d</fix>
</trkpt>
<trkpt lat="40.0713749" lon="-105.229789">
  <ele>1583.0</ele>
  <time>2026-08-28T17:56:05Z</time>
  <course>248.41</course>
  <speed>0.0</speed>
  <fix>3d</fix>
</trkpt>
<trkpt lat="40.0713749" lon="-105.229789">
  <ele>1583.0</ele>
  <time>2026-08-28T17:56:05Z</time>
  <course>0.0</course>
  <speed>0.0</speed>
  <fix>3d</fix>
</trkpt>
<trkpt lat="40.0713749" lon="-105.229789">
  <ele>1583.0</ele>
  <time>2026-08-28T17:56:05Z</time>
  <course>248.41</course>
  <speed>0.0</speed>
  <fix>3d</fix>
</trkpt>
<trkpt lat="40.0713749" lon="-105.229789">
  <ele>1583.0</ele>
  <time>2026-08-28T17:56:05Z</time>
  <course>0.0</course>
  <speed>0.0</speed>
  <fix>3d</fix>
</trkpt>
<trkpt lat="40.0713749" lon="-105.229789">
  <ele>1583.0</ele>
  <time>2026-08-28T17:56:05Z</time>
  <course>248.41</course>
  <speed>0.0</speed>
  <fix>3d</fix>
</trkpt>
<trkpt lat="40.0713749" lon="-105.229789">
  <ele>1583.0</ele>
  <time>2026-08-28T17:56:05Z</time>
  <course>0.0</course>
  <speed>0.0</speed>
  <fix>3d</fix>
</trkpt>
<trkpt lat="40.0713749" lon="-105.229789">
  <ele>1583.0</ele>
  <time>2026-08-28T17:56:05Z</time>
  <course>248.41</course>
  <speed>0.0</speed>
  <fix>3d</fix>
</trkpt>
<trkpt lat="40.0713749" lon="-105.229789">
  <ele>1583.0</ele>
  <time>2026-08-28T17:56:05Z</time>
  <course>0.0</course>
  <speed>0.0</speed>
  <fix>3d</fix>
</trkpt>
<trkpt lat="40.0713749" lon="-105.229789">
  <ele>1583.0</ele>
  <time>2026-08-28T17:56:05Z</time>
  <course>248.41</course>
  <speed>0.0</speed>
  <fix>3d</fix>
</trkpt>
<trkpt lat="40.0713749" lon="-105.229789">
  <ele>1583.0</ele>
  <time>2026-08-28T17:56:05Z</time>
  <course>0.0</course>
  <speed>0.0</speed>
  <fix>3d</fix>
</trkpt>
<trkpt lat="40.0713749" lon="-105.229789">
  <ele>1583.0</ele>
  <time>2026-08-28T17:56:05Z</time>
  <course>248.41</course>
  <speed>0.0</speed>
  <fix>3d</fix>
</trkpt>
<trkpt lat="40.0713749" lon="-105.229789">
  <ele>1583.0</ele>
  <time>2026-08-28T17:56:05Z</time>
  <course>0.0</course>
  <speed>0.0</speed>
  <fix>3d</fix>
</trkpt>
<trkpt lat="40.0713749" lon="-105.229789">
  <ele>1583.0</ele>
  <time>2026-08-28T17:56:05Z</time>
  <course>248.41</course>
  <speed>0.0</speed>
  <fix>3d</fix>
</trkpt>
<trkpt lat="40.0713749" lon="-105.229789">
  <ele>1583.0</ele>
  <time>2026-08-28T17:56:05Z</time>
  <course>0.0</course>
  <speed>0.0</speed>
  <fix>3d</fix>
</trkpt>
<trkpt lat="40.0713749" lon="-105.229789">
  <ele>1583.0</ele>
  <time>2026-08-28T17:56:05Z</time>
  <course>248.41</course>
  <speed>0.0</speed>
  <fix>3d</fix>
</trkpt>
<trkpt lat="40.0713749" lon="-105.229789">
  <ele>1583.0</ele>
  <time>2026-08-28T17:56:05Z</time>
  <course>0.0</course>
  <speed>0.0</speed>
  <fix>3d</fix>
</trkpt>
<trkpt lat="40.0713749" lon="-105.229789">
  <ele>1583.0</ele>
  <time>2026-08-28T17:56:05Z</time>
  <course>248.41</course>
  <speed>0.0</speed>
  <fix>3d</fix>
</trkpt>
<trkpt lat="40.0713749" lon="-105.229789">
  <ele>1583.0</ele>
  <time>2026-08-28T17:56:05Z</time>
  <course>0.0</course>
  <speed>0.0</speed>
  <fix>3d</fix>
</trkpt>
<trkpt lat="40.0713749" lon="-105.229789">
  <ele>1583.0</ele>
  <time>2026-08-28T17:56:05Z</time>
  <course>248.41</course>
  <speed>0.0</speed>
  <fix>3d</fix>
</trkpt>
<trkpt lat="40.0713749" lon="-105.229789">
  <ele>1583.0</ele>
  <time>2026-08-28T17:56:05Z</time>
  <course>0.0</course>
  <speed>0.0</speed>
  <fix>3d</fix>
</trkpt>
<trkpt lat="40.0713749" lon="-105.229789">
  <ele>1583.0</ele>
  <time>2026-08-28T17:56:05Z</time>
  <course>248.4</course>
  <speed>0.0</speed>
  <fix>3d</fix>
</trkpt>
<trkpt lat="40.0713749" lon="-105.229789">
  <ele>1583.0</ele>
  <time>2026-08-28T17:56:05Z</time>
  <course>0.0</course>
  <speed>0.0</speed>
  <fix>3d</fix>
</trkpt>
<trkpt lat="40.0713749" lon="-105.229789">
  <ele>1583.0</ele>
  <time>2026-08-28T17:56:05Z</time>
  <course>248.4</course>
  <speed>0.01</speed>
  <fix>3d</fix>
</trkpt>
<trkpt lat="40.0713749" lon="-105.229789">
  <ele>1583.0</ele>
  <time>2026-08-28T17:56:05Z</time>
  <course>0.0</course>
  <speed>0.0</speed>
  <fix>3d</fix>
</trkpt>
<trkpt lat="40.0713749" lon="-105.229789">
  <ele>1583.0</ele>
  <time>2026-08-28T17:56:05Z</time>
  <course>248.4</course>
  <speed>0.01</speed>
  <fix>3d</fix>
</trkpt>
<trkpt lat="40.0713749" lon="-105.229789">
  <ele>1583.0</ele>
  <time>2026-08-28T17:56:05Z</time>
  <course>0.0</course>
  <speed>0.0</speed>
  <fix>3d</fix>
</trkpt>
<trkpt lat="40.0713749" lon="-105.229789">
  <ele>1583.0</ele>
  <time>2026-08-28T17:56:05Z</time>
  <course>248.4</course>
  <speed>0.01</speed>
  <fix>3d</fix>
</trkpt>
<trkpt lat="40.0713749" lon="-105.229789">
  <ele>1583.0</ele>
  <time>2026-08-28T17:56:05Z</time>
  <course>0.0</course>
  <speed>0.0</speed>
  <fix>3d</fix>
</trkpt>
<trkpt lat="40.0713749" lon="-105.229789">
  <ele>1583.0</ele>
  <time>2026-08-28T17:56:05Z</time>
  <course>248.4</course>
  <speed>0.01</speed>
  <fix>3d</fix>
</trkpt>
<trkpt lat="40.0713749" lon="-105.229789">
  <ele>1583.0</ele>
  <time>2026-08-28T17:56:05Z</time>
  <course>0.0</course>
  <speed>0.0</speed>
  <fix>3d</fix>
</trkpt>
<trkpt lat="40.0713749" lon="-105.229789">
  <ele>1583.0</ele>
  <time>2026-08-28T17:56:05Z</time>
  <course>248.39</course>
  <speed>0.01</speed>
  <fix>3d</fix>
</trkpt>
<trkpt lat="40.0713749" lon="-105.229789">
  <ele>1583.0</ele>
  <time>2026-08-28T17:56:05Z</time>
  <course>0.0</course>
  <speed>0.0</speed>
  <fix>3d</fix>
</trkpt>
<trkpt lat="40.0713749" lon="-105.229789">
  <ele>1583.0</ele>
  <time>2026-08-28T17:56:05Z</time>
  <course>248.39</course>
  <speed>0.01</speed>
  <fix>3d</fix>
</trkpt>
<trkpt lat="40.0713749" lon="-105.229789">
  <ele>1583.0</ele>
  <time>2026-08-28T17:56:05Z</time>
  <course>0.0</course>
  <speed>0.0</speed>
  <fix>3d</fix>
</trkpt>
<trkpt lat="40.0713749" lon="-105.229789">
  <ele>1583.0</ele>
  <time>2026-08-28T17:56:05Z</time>
  <course>248.39</course>
  <speed>0.01</speed>
  <fix>3d</fix>
</trkpt>
<trkpt lat="40.0713749" lon="-105.229789">
  <ele>1583.0</ele>
  <time>2026-08-28T17:56:05Z</time>
  <course>0.0</course>
  <speed>0.0</speed>
  <fix>3d</fix>
</trkpt>
<trkpt lat="40.0713749" lon="-105.229789">
  <ele>1583.0</ele>
  <time>2026-08-28T17:56:05Z</time>
  <course>248.38</course>
  <speed>0.01</speed>
  <fix>3d</fix>
</trkpt>
<trkpt lat="40.0713749" lon="-105.229789">
  <ele>1583.0</ele>
  <time>2026-08-28T17:56:05Z</time>
  <course>0.0</course>
  <speed>0.0</speed>
  <fix>3d</fix>
</trkpt>
<trkpt lat="40.0713749" lon="-105.229789">
  <ele>1583.0</ele>
  <time>2026-08-28T17:56:05Z</time>
  <course>248.38</course>
  <speed>0.01</speed>
  <fix>3d</fix>
</trkpt>
<trkpt lat="40.0713749" lon="-105.229789">
  <ele>1583.0</ele>
  <time>2026-08-28T17:56:05Z</time>
  <course>0.0</course>
  <speed>0.0</speed>
  <fix>3d</fix>
</trkpt>
<trkpt lat="40.0713749" lon="-105.229789">
  <ele>1583.0</ele>
  <time>2026-08-28T17:56:05Z</time>
  <course>248.38</course>
  <speed>0.01</speed>
  <fix>3d</fix>
</trkpt>
<trkpt lat="40.0713749" lon="-105.229789">
  <ele>1583.0</ele>
  <time>2026-08-28T17:56:05Z</time>
  <course>0.0</course>
  <speed>0.0</speed>
  <fix>3d</fix>
</trkpt>
<trkpt lat="40.0713749" lon="-105.229789">
  <ele>1583.0</ele>
  <time>2026-08-28T17:56:05Z</time>
  <course>248.38</course>
  <speed>0.01</speed>
  <fix>3d</fix>
</trkpt>
<trkpt lat="40.0713749" lon="-105.229789">
  <ele>1583.0</ele>
  <time>2026-08-28T17:56:05Z</time>
  <course>0.0</course>
  <speed>0.0</speed>
  <fix>3d</fix>
</trkpt>
<trkpt lat="40.0713749" lon="-105.229789">
  <ele>1583.0</ele>
  <time>2026-08-28T17:56:05Z</time>
  <course>248.37</course>
  <speed>0.01</speed>
  <fix>3d</fix>
</trkpt>
<trkpt lat="40.0713749" lon="-105.229789">
  <ele>1583.0</ele>
  <time>2026-08-28T17:56:05Z</time>
  <course>0.0</course>
  <speed>0.0</speed>
  <fix>3d</fix>
</trkpt>
<trkpt lat="40.0713749" lon="-105.229789">
  <ele>1583.0</ele>
  <time>2026-08-28T17:56:05Z</time>
  <course>248.37</course>
  <speed>0.01</speed>
  <fix>3d</fix>
</trkpt>
<trkpt lat="40.0713749" lon="-105.229789">
  <ele>1583.0</ele>
  <time>2026-08-28T17:56:05Z</time>
  <course>0.0</course>
  <speed>0.0</speed>
  <fix>3d</fix>
</trkpt>
<trkpt lat="40.0713749" lon="-105.229789">
  <ele>1583.0</ele>
  <time>2026-08-28T17:56:05Z</time>
  <course>248.37</course>
  <speed>0.01</speed>
  <fix>3d</fix>
</trkpt>
<trkpt lat="40.0713749" lon="-105.229789">
  <ele>1583.0</ele>
  <time>2026-08-28T17:56:05Z</time>
  <course>0.0</course>
  <speed>0.0</speed>
  <fix>3d</fix>
</trkpt>
<trkpt lat="40.0713749" lon="-105.229789">
  <ele>1583.0</ele>
  <time>2026-08-28T17:56:05Z</time>
  <course>248.36</course>
  <speed>0.01</speed>
  <fix>3d</fix>
</trkpt>
<trkpt lat="40.0713749" lon="-105.229789">
  <ele>1583.0</ele>
  <time>2026-08-28T17:56:05Z</time>
  <course>0.0</course>
  <speed>0.0</speed>
  <fix>3d</fix>
</trkpt>
<trkpt lat="40.0713749" lon="-105.229789">
  <ele>1583.0</ele>
  <time>2026-08-28T17:56:05Z</time>
  <course>248.36</course>
  <speed>0.01</speed>
  <fix>3d</fix>
</trkpt>
<trkpt lat="40.0713749" lon="-105.229789">
  <ele>1583.0</ele>
  <time>2026-08-28T17:56:05Z</time>
  <course>0.0</course>
  <speed>0.0</speed>
  <fix>3d</fix>
</trkpt>
<trkpt lat="40.0713749" lon="-105.229789">
  <ele>1583.0</ele>
  <time>2026-08-28T17:56:05Z</time>
  <course>248.35</course>
  <speed>0.01</speed>
  <fix>3d</fix>
</trkpt>
<trkpt lat="40.0713749" lon="-105.229789">
  <ele>1583.0</ele>
  <time>2026-08-28T17:56:05Z</time>
  <course>0.0</course>
  <speed>0.0</speed>
  <fix>3d</fix>
</trkpt>
<trkpt lat="40.0713749" lon="-105.229789">
  <ele>1583.0</ele>
  <time>2026-08-28T17:56:05Z</time>
  <course>248.35</course>
  <speed>0.01</speed>
  <fix>3d</fix>
</trkpt>
<trkpt lat="40.0713749" lon="-105.229789">
  <ele>1583.0</ele>
  <time>2026-08-28T17:56:05Z</time>
  <course>0.0</course>
  <speed>0.0</speed>
  <fix>3d</fix>
</trkpt>
<trkpt lat="40.0713749" lon="-105.229789">
  <ele>1583.0</ele>
  <time>2026-08-28T17:56:05Z</time>
  <course>248.35</course>
  <speed>0.01</speed>
  <fix>3d</fix>
</trkpt>
<trkpt lat="40.0713749" lon="-105.229789">
  <ele>1583.0</ele>
  <time>2026-08-28T17:56:05Z</time>
  <course>0.0</course>
  <speed>0.0</speed>
  <fix>3d</fix>
</trkpt>
<trkpt lat="40.0713749" lon="-105.229789">
  <ele>1583.0</ele>
  <time>2026-08-28T17:56:05Z</time>
  <course>248.34</course>
  <speed>0.01</speed>
  <fix>3d</fix>
</trkpt>
<trkpt lat="40.0713749" lon="-105.229789">
  <ele>1583.0</ele>
  <time>2026-08-28T17:56:05Z</time>
  <course>0.0</course>
  <speed>0.0</speed>
  <fix>3d</fix>
</trkpt>
<trkpt lat="40.0713749" lon="-105.229789">
  <ele>1583.0</ele>
  <time>2026-08-28T17:56:05Z</time>
  <course>248.34</course>
  <speed>0.01</speed>
  <fix>3d</fix>
</trkpt>
<trkpt lat="40.0713749" lon="-105.229789">
  <ele>1583.0</ele>
  <time>2026-08-28T17:56:05Z</time>
  <course>0.0</course>
  <speed>0.0</speed>
  <fix>3d</fix>
</trkpt>
<trkpt lat="40.0713749" lon="-105.229789">
  <ele>1583.0</ele>
  <time>2026-08-28T17:56:05Z</time>
  <course>248.33</course>
  <speed>0.01</speed>
  <fix>3d</fix>
</trkpt>
<trkpt lat="40.0713749" lon="-105.229789">
  <ele>1583.0</ele>
  <time>2026-08-28T17:56:05Z</time>
  <course>0.0</course>
  <speed>0.0</speed>
  <fix>3d</fix>
</trkpt>
<trkpt lat="40.0713749" lon="-105.229789">
  <ele>1583.0</ele>
  <time>2026-08-28T17:56:05Z</time>
  <course>248.33</course>
  <speed>0.01</speed>
  <fix>3d</fix>
</trkpt>
<trkpt lat="40.0713749" lon="-105.229789">
  <ele>1583.0</ele>
  <time>2026-08-28T17:56:05Z</time>
  <course>0.0</course>
  <speed>0.0</speed>
  <fix>3d</fix>
</trkpt>
<trkpt lat="40.0713749" lon="-105.229789">
  <ele>1583.0</ele>
  <time>2026-08-28T17:56:05Z</time>
  <course>248.32</course>
  <speed>0.01</speed>
  <fix>3d</fix>
</trkpt>
<trkpt lat="40.0713749" lon="-105.229789">
  <ele>1583.0</ele>
  <time>2026-08-28T17:56:05Z</time>
  <course>0.0</course>
  <speed>0.0</speed>
  <fix>3d</fix>
</trkpt>
<trkpt lat="40.0713749" lon="-105.229789">
  <ele>1583.0</ele>
  <time>2026-08-28T17:56:05Z</time>
  <course>248.32</course>
  <speed>0.01</speed>
  <fix>3d</fix>
</trkpt>
<trkpt lat="40.0713749" lon="-105.229789">
  <ele>1583.0</ele>
  <time>2026-08-28T17:56:05Z</time>
  <course>0.0</course>
  <speed>0.0</speed>
  <fix>3d</fix>
</trkpt>
<trkpt lat="40.0713749" lon="-105.229789">
  <ele>1583.0</ele>
  <time>2026-08-28T17:56:05Z</time>
  <course>248.32</course>
  <speed>0.01</speed>
  <fix>3d</fix>
</trkpt>
<trkpt lat="40.0713749" lon="-105.229789">
  <ele>1583.0</ele>
  <time>2026-08-28T17:56:05Z</time>
  <course>0.0</course>
  <speed>0.0</speed>
  <fix>3d</fix>
</trkpt>
<trkpt lat="40.0713749" lon="-105.229789">
  <ele>1583.0</ele>
  <time>2026-08-28T17:56:05Z</time>
  <course>248.31</course>
  <speed>0.01</speed>
  <fix>3d</fix>
</trkpt>
<trkpt lat="40.0713749" lon="-105.229789">
  <ele>1583.0</ele>
  <time>2026-08-28T17:56:05Z</time>
  <course>0.0</course>
  <speed>0.0</speed>
  <fix>3d</fix>
</trkpt>
<trkpt lat="40.0713749" lon="-105.229789">
  <ele>1583.0</ele>
  <time>2026-08-28T17:56:05Z</time>
  <course>248.31</course>
  <speed>0.01</speed>
  <fix>3d</fix>
</trkpt>
<trkpt lat="40.0713749" lon="-105.229789">
  <ele>1583.0</ele>
  <time>2026-08-28T17:56:05Z</time>
  <course>0.0</course>
  <speed>0.0</speed>
  <fix>3d</fix>
</trkpt>
<trkpt lat="40.0713749" lon="-105.229789">
  <ele>1583.0</ele>
  <time>2026-08-28T17:56:05Z</time>
  <course>248.3</course>
  <speed>0.01</speed>
  <fix>3d</fix>
</trkpt>
<trkpt lat="40.0713749" lon="-105.229789">
  <ele>1583.0</ele>
  <time>2026-08-28T17:56:05Z</time>
  <course>0.0</course>
  <speed>0.0</speed>
  <fix>3d</fix>
</trkpt>
<trkpt lat="40.0713749" lon="-105.229789">
  <ele>1583.0</ele>
  <time>2026-08-28T17:56:05Z</time>
  <course>248.3</course>
  <speed>0.01</speed>
  <fix>3d</fix>
</trkpt>
<trkpt lat="40.0713749" lon="-105.229789">
  <ele>1583.0</ele>
  <time>2026-08-28T17:56:05Z</time>
  <course>0.0</course>
  <speed>0.0</speed>
  <fix>3d</fix>
</trkpt>
<trkpt lat="40.0713749" lon="-105.229789">
  <ele>1583.0</ele>
  <time>2026-08-28T17:56:05Z</time>
  <course>248.29</course>
  <speed>0.01</speed>
  <fix>3d</fix>
</trkpt>
<trkpt lat="40.0713749" lon="-105.229789">
  <ele>1583.0</ele>
  <time>2026-08-28T17:56:05Z</time>
  <course>0.0</course>
  <speed>0.0</speed>
  <fix>3d</fix>
</trkpt>
<trkpt lat="40.0713749" lon="-105.229789">
  <ele>1583.0</ele>
  <time>2026-08-28T17:56:05Z</time>
  <course>248.29</course>
  <speed>0.01</speed>
  <fix>3d</fix>
</trkpt>
<trkpt lat="40.0713749" lon="-105.229789">
  <ele>1583.0</ele>
  <time>2026-08-28T17:56:05Z</time>
  <course>0.0</course>
  <speed>0.0</speed>
  <fix>3d</fix>
</trkpt>
<trkpt lat="40.0713749" lon="-105.229789">
  <ele>1583.0</ele>
  <time>2026-08-28T17:56:05Z</time>
  <course>248.28</course>
  <speed>0.01</speed>
  <fix>3d</fix>
</trkpt>
<trkpt lat="40.0713749" lon="-105.229789">
  <ele>1583.0</ele>
  <time>2026-08-28T17:56:05Z</time>
  <course>0.0</course>
  <speed>0.0</speed>
  <fix>3d</fix>
</trkpt>
<trkpt lat="40.0713749" lon="-105.229789">
  <ele>1583.0</ele>
  <time>2026-08-28T17:56:05Z</time>
  <course>248.28</course>
  <speed>0.01</speed>
  <fix>3d</fix>
</trkpt>
<trkpt lat="40.0713749" lon="-105.229789">
  <ele>1583.0</ele>
  <time>2026-08-28T17:56:05Z</time>
  <course>0.0</course>
  <speed>0.0</speed>
  <fix>3d</fix>
</trkpt>
<trkpt lat="40.0713749" lon="-105.229789">
  <ele>1583.0</ele>
  <time>2026-08-28T17:56:05Z</time>
  <course>248.27</course>
  <speed>0.01</speed>
  <fix>3d</fix>
</trkpt>
<trkpt lat="40.0713749" lon="-105.229789">
  <ele>1583.0</ele>
  <time>2026-08-28T17:56:05Z</time>
  <course>0.0</course>
  <speed>0.0</speed>
  <fix>3d</fix>
</trkpt>
<trkpt lat="40.0713749" lon="-105.229789">
  <ele>1583.0</ele>
  <time>2026-08-28T17:56:05Z</time>
  <course>248.27</course>
  <speed>0.01</speed>
  <fix>3d</fix>
</trkpt>
<trkpt lat="40.0713749" lon="-105.229789">
  <ele>1583.0</ele>
  <time>2026-08-28T17:56:05Z</time>
  <course>0.0</course>
  <speed>0.0</speed>
  <fix>3d</fix>
</trkpt>
<trkpt lat="40.0713749" lon="-105.229789">
  <ele>1583.0</ele>
  <time>2026-08-28T17:56:05Z</time>
  <course>248.27</course>
  <speed>0.01</speed>
  <fix>3d</fix>
</trkpt>
<trkpt lat="40.0713749" lon="-105.229789">
  <ele>1583.0</ele>
  <time>2026-08-28T17:56:05Z</time>
  <course>0.0</course>
  <speed>0.0</speed>
  <fix>3d</fix>
</trkpt>
<trkpt lat="40.0713749" lon="-105.229789">
  <ele>1583.0</ele>
  <time>2026-08-28T17:56:05Z</time>
  <course>248.26</course>
  <speed>0.01</speed>
  <fix>3d</fix>
</trkpt>
<trkpt lat="40.0713749" lon="-105.229789">
  <ele>1583.0</ele>
  <time>2026-08-28T17:56:05Z</time>
  <course>0.0</course>
  <speed>0.0</speed>
  <fix>3d</fix>
</trkpt>
<trkpt lat="40.0713749" lon="-105.229789">
  <ele>1583.0</ele>
  <time>2026-08-28T17:56:05Z</time>
  <course>248.26</course>
  <speed>0.01</speed>
  <fix>3d</fix>
</trkpt>
<trkpt lat="40.0713749" lon="-105.229789">
  <ele>1583.0</ele>
  <time>2026-08-28T17:56:05Z</time>
  <course>0.0</course>
  <speed>0.0</speed>
  <fix>3d</fix>
</trkpt>
<trkpt lat="40.0713749" lon="-105.229789">
  <ele>1583.0</ele>
  <time>2026-08-28T17:56:05Z</time>
  <course>248.25</course>
  <speed>0.01</speed>
  <fix>3d</fix>
</trkpt>
<trkpt lat="40.0713749" lon="-105.229789">
  <ele>1583.0</ele>
  <time>2026-08-28T17:56:05Z</time>
  <course>0.0</course>
  <speed>0.0</speed>
  <fix>3d</fix>
</trkpt>
<trkpt lat="40.0713749" lon="-105.229789">
  <ele>1583.0</ele>
  <time>2026-08-28T17:56:05Z</time>
  <course>248.25</course>
  <speed>0.01</speed>
  <fix>3d</fix>
</trkpt>
<trkpt lat="40.0713749" lon="-105.229789">
  <ele>1583.0</ele>
  <time>2026-08-28T17:56:05Z</time>
  <course>0.0</course>
  <speed>0.0</speed>
  <fix>3d</fix>
</trkpt>
<trkpt lat="40.0713749" lon="-105.229789">
  <ele>1583.0</ele>
  <time>2026-08-28T17:56:05Z</time>
  <course>248.24</course>
  <speed>0.01</speed>
  <fix>3d</fix>
</trkpt>
<trkpt lat="40.0713749" lon="-105.229789">
  <ele>1583.0</ele>
  <time>2026-08-28T17:56:05Z</time>
  <course>0.0</course>
  <speed>0.0</speed>
  <fix>3d</fix>
</trkpt>
<trkpt lat="40.0713749" lon="-105.229789">
  <ele>1583.0</ele>
  <time>2026-08-28T17:56:05Z</time>
  <course>248.24</course>
  <speed>0.01</speed>
  <fix>3d</fix>
</trkpt>
<trkpt lat="40.0713749" lon="-105.229789">
  <ele>1583.0</ele>
  <time>2026-08-28T17:56:05Z</time>
  <course>0.0</course>
  <speed>0.0</speed>
  <fix>3d</fix>
</trkpt>
<trkpt lat="40.0713749" lon="-105.229789">
  <ele>1583.0</ele>
  <time>2026-08-28T17:56:05Z</time>
  <course>248.23</course>
  <speed>0.01</speed>
  <fix>3d</fix>
</trkpt>
<trkpt lat="40.0713749" lon="-105.229789">
  <ele>1583.0</ele>
  <time>2026-08-28T17:56:05Z</time>
  <course>0.0</course>
  <speed>0.0</speed>
  <fix>3d</fix>
</trkpt>
<trkpt lat="40.0713749" lon="-105.229789">
  <ele>1583.0</ele>
  <time>2026-08-28T17:56:05Z</time>
  <course>248.23</course>
  <speed>0.01</speed>
  <fix>3d</fix>
</trkpt>
<trkpt lat="40.0713749" lon="-105.229789">
  <ele>1583.0</ele>
  <time>2026-08-28T17:56:05Z</time>
  <course>0.0</course>
  <speed>0.0</speed>
  <fix>3d</fix>
</trkpt>
<trkpt lat="40.0713749" lon="-105.229789">
  <ele>1583.0</ele>
  <time>2026-08-28T17:56:05Z</time>
  <course>248.22</course>
  <speed>0.01</speed>
  <fix>3d</fix>
</trkpt>
<trkpt lat="40.0713749" lon="-105.229789">
  <ele>1583.0</ele>
  <time>2026-08-28T17:56:05Z</time>
  <course>0.0</course>
  <speed>0.0</speed>
  <fix>3d</fix>
</trkpt>
<trkpt lat="40.0713749" lon="-105.229789">
  <ele>1583.0</ele>
  <time>2026-08-28T17:56:05Z</time>
  <course>248.22</course>
  <speed>0.01</speed>
  <fix>3d</fix>
</trkpt>
<trkpt lat="40.0713749" lon="-105.229789">
  <ele>1583.0</ele>
  <time>2026-08-28T17:56:05Z</time>
  <course>0.0</course>
  <speed>0.0</speed>
  <fix>3d</fix>
</trkpt>
<trkpt lat="40.0713749" lon="-105.229789">
  <ele>1583.0</ele>
  <time>2026-08-28T17:56:05Z</time>
  <course>248.21</course>
  <speed>0.01</speed>
  <fix>3d</fix>
</trkpt>
<trkpt lat="40.0713749" lon="-105.229789">
  <ele>1583.0</ele>
  <time>2026-08-28T17:56:05Z</time>
  <course>0.0</course>
  <speed>0.0</speed>
  <fix>3d</fix>
</trkpt>
<trkpt lat="40.0713749" lon="-105.229789">
  <ele>1583.0</ele>
  <time>2026-08-28T17:56:05Z</time>
  <course>248.21</course>
  <speed>0.01</speed>
  <fix>3d</fix>
</trkpt>
<trkpt lat="40.0713749" lon="-105.229789">
  <ele>1583.0</ele>
  <time>2026-08-28T17:56:05Z</time>
  <course>0.0</course>
  <speed>0.0</speed>
  <fix>3d</fix>
</trkpt>
<trkpt lat="40.0713749" lon="-105.229789">
  <ele>1583.0</ele>
  <time>2026-08-28T17:56:05Z</time>
  <course>248.2</course>
  <speed>0.01</speed>
  <fix>3d</fix>
</trkpt>
<trkpt lat="40.0713749" lon="-105.229789">
  <ele>1583.0</ele>
  <time>2026-08-28T17:56:05Z</time>
  <course>0.0</course>
  <speed>0.0</speed>
  <fix>3d</fix>
</trkpt>
<trkpt lat="40.0713749" lon="-105.229789">
  <ele>1583.0</ele>
  <time>2026-08-28T17:56:05Z</time>
  <course>248.2</course>
  <speed>0.01</speed>
  <fix>3d</fix>
</trkpt>
<trkpt lat="40.0713749" lon="-105.229789">
  <ele>1583.0</ele>
  <time>2026-08-28T17:56:05Z</time>
  <course>0.0</course>
  <speed>0.0</speed>
  <fix>3d</fix>
</trkpt>
<trkpt lat="40.0713749" lon="-105.229789">
  <ele>1583.0</ele>
  <time>2026-08-28T17:56:05Z</time>
  <course>248.19</course>
  <speed>0.01</speed>
  <fix>3d</fix>
</trkpt>
<trkpt lat="40.0713749" lon="-105.229789">
  <ele>1583.0</ele>
  <time>2026-08-28T17:56:05Z</time>
  <course>0.0</course>
  <speed>0.0</speed>
  <fix>3d</fix>
</trkpt>
<trkpt lat="40.0713749" lon="-105.229789">
  <ele>1583.0</ele>
  <time>2026-08-28T17:56:05Z</time>
  <course>248.19</course>
  <speed>0.01</speed>
  <fix>3d</fix>
</trkpt>
<trkpt lat="40.0713749" lon="-105.229789">
  <ele>1583.0</ele>
  <time>2026-08-28T17:56:05Z</time>
  <course>0.0</course>
  <speed>0.0</speed>
  <fix>3d</fix>
</trkpt>
<trkpt lat="40.0713749" lon="-105.229789">
  <ele>1583.0</ele>
  <time>2026-08-28T17:56:05Z</time>
  <course>248.18</course>
  <speed>0.01</speed>
  <fix>3d</fix>
</trkpt>
<trkpt lat="40.0713749" lon="-105.229789">
  <ele>1583.0</ele>
  <time>2026-08-28T17:56:05Z</time>
  <course>0.0</course>
  <speed>0.0</speed>
  <fix>3d</fix>
</trkpt>
<trkpt lat="40.0713749" lon="-105.229789">
  <ele>1583.0</ele>
  <time>2026-08-28T17:56:05Z</time>
  <course>248.18</course>
  <speed>0.01</speed>
  <fix>3d</fix>
</trkpt>
<trkpt lat="40.0713749" lon="-105.229789">
  <ele>1583.0</ele>
  <time>2026-08-28T17:56:05Z</time>
  <course>0.0</course>
  <speed>0.0</speed>
  <fix>3d</fix>
</trkpt>
<trkpt lat="40.0713749" lon="-105.229789">
  <ele>1583.0</ele>
  <time>2026-08-28T17:56:05Z</time>
  <course>248.17</course>
  <speed>0.022360679774997897</speed>
  <fix>3d</fix>
</trkpt>
<trkpt lat="40.0713749" lon="-105.229789">
  <ele>1583.0</ele>
  <time>2026-08-28T17:56:05Z</time>
  <course>0.0</course>
  <speed>0.0</speed>
  <fix>3d</fix>
</trkpt>
<trkpt lat="40.0713749" lon="-105.229789">
  <ele>1583.0</ele>
  <time>2026-08-28T17:56:05Z</time>
  <course>248.17</course>
  <speed>0.022360679774997897</speed>
  <fix>3d</fix>
</trkpt>
<trkpt lat="40.0713749" lon="-105.229789">
  <ele>1583.0</ele>
  <time>2026-08-28T17:56:05Z</time>
  <course>0.0</course>
  <speed>0.0</speed>
  <fix>3d</fix>
</trkpt>
<trkpt lat="40.0713749" lon="-105.229789">
  <ele>1583.0</ele>
  <time>2026-08-28T17:56:05Z</time>
  <course>248.16</course>
  <speed>0.022360679774997897</speed>
  <fix>3d</fix>
</trkpt>
<trkpt lat="40.0713749" lon="-105.229789">
  <ele>1583.0</ele>
  <time>2026-08-28T17:56:05Z</time>
  <course>0.0</course>
  <speed>0.0</speed>
  <fix>3d</fix>
</trkpt>
<trkpt lat="40.0713749" lon="-105.229789">
  <ele>1583.0</ele>
  <time>2026-08-28T17:56:05Z</time>
  <course>248.16</course>
  <speed>0.022360679774997897</speed>
  <fix>3d</fix>
</trkpt>
<trkpt lat="40.0713749" lon="-105.229789">
  <ele>1583.0</ele>
  <time>2026-08-28T17:56:05Z</time>
  <course>0.0</course>
  <speed>0.0</speed>
  <fix>3d</fix>
</trkpt>
<trkpt lat="40.0713749" lon="-105.229789">
  <ele>1583.0</ele>
  <time>2026-08-28T17:56:05Z</time>
  <course>248.15</course>
  <speed>0.022360679774997897</speed>
  <fix>3d</fix>
</trkpt>
<trkpt lat="40.0713749" lon="-105.229789">
  <ele>1583.0</ele>
  <time>2026-08-28T17:56:05Z</time>
  <course>0.0</course>
  <speed>0.0</speed>
  <fix>3d</fix>
</trkpt>
<trkpt lat="40.0713749" lon="-105.229789">
  <ele>1583.0</ele>
  <time>2026-08-28T17:56:05Z</time>
  <course>248.15</course>
  <speed>0.022360679774997897</speed>
  <fix>3d</fix>
</trkpt>
<trkpt lat="40.0713749" lon="-105.229789">
  <ele>1583.0</ele>
  <time>2026-08-28T17:56:05Z</time>
  <course>0.0</course>
  <speed>0.0</speed>
  <fix>3d</fix>
</trkpt>
<trkpt lat="40.0713749" lon="-105.229789">
  <ele>1583.0</ele>
  <time>2026-08-28T17:56:05Z</time>
  <course>248.14</course>
  <speed>0.022360679774997897</speed>
  <fix>3d</fix>
</trkpt>
<trkpt lat="40.0713749" lon="-105.229789">
  <ele>1583.0</ele>
  <time>2026-08-28T17:56:05Z</time>
  <course>0.0</course>
  <speed>0.0</speed>
  <fix>3d</fix>
</trkpt>
<trkpt lat="40.0713749" lon="-105.229789">
  <ele>1583.0</ele>
  <time>2026-08-28T17:56:05Z</time>
  <course>248.14</course>
  <speed>0.022360679774997897</speed>
  <fix>3d</fix>
</trkpt>
<trkpt lat="40.0713749" lon="-105.229789">
  <ele>1583.0</ele>
  <time>2026-08-28T17:56:05Z</time>
  <course>0.0</course>
  <speed>0.0</speed>
  <fix>3d</fix>
</trkpt>
<trkpt lat="40.0713749" lon="-105.229789">
  <ele>1583.0</ele>
  <time>2026-08-28T17:56:05Z</time>
  <course>248.13</course>
  <speed>0.022360679774997897</speed>
  <fix>3d</fix>
</trkpt>
<trkpt lat="40.0713749" lon="-105.229789">
  <ele>1583.0</ele>
  <time>2026-08-28T17:56:05Z</time>
  <course>0.0</course>
  <speed>0.0</speed>
  <fix>3d</fix>
</trkpt>
<trkpt lat="40.0713749" lon="-105.229789">
  <ele>1583.0</ele>
  <time>2026-08-28T17:56:05Z</time>
  <course>248.13</course>
  <speed>0.022360679774997897</speed>
  <fix>3d</fix>
</trkpt>
<trkpt lat="40.0713749" lon="-105.229789">
  <ele>1583.0</ele>
  <time>2026-08-28T17:56:05Z</time>
  <course>0.0</course>
  <speed>0.0</speed>
  <fix>3d</fix>
</trkpt>
<trkpt lat="40.0713749" lon="-105.229789">
  <ele>1583.0</ele>
  <time>2026-08-28T17:56:05Z</time>
  <course>248.12</course>
  <speed>0.022360679774997897</speed>
  <fix>3d</fix>
</trkpt>
<trkpt lat="40.0713749" lon="-105.229789">
  <ele>1583.0</ele>
  <time>2026-08-28T17:56:05Z</time>
  <course>0.0</course>
  <speed>0.0</speed>
  <fix>3d</fix>
</trkpt>
<trkpt lat="40.0713749" lon="-105.229789">
  <ele>1583.0</ele>
  <time>2026-08-28T17:56:05Z</time>
  <course>248.12</course>
  <speed>0.022360679774997897</speed>
  <fix>3d</fix>
</trkpt>
<trkpt lat="40.0713749" lon="-105.229789">
  <ele>1583.0</ele>
  <time>2026-08-28T17:56:05Z</time>
  <course>0.0</course>
  <speed>0.0</speed>
  <fix>3d</fix>
</trkpt>
<trkpt lat="40.0713749" lon="-105.229789">
  <ele>1583.0</ele>
  <time>2026-08-28T17:56:05Z</time>
  <course>248.11</course>
  <speed>0.022360679774997897</speed>
  <fix>3d</fix>
</trkpt>
<trkpt lat="40.0713749" lon="-105.229789">
  <ele>1583.0</ele>
  <time>2026-08-28T17:56:05Z</time>
  <course>0.0</course>
  <speed>0.0</speed>
  <fix>3d</fix>
</trkpt>
<trkpt lat="40.0713749" lon="-105.229789">
  <ele>1583.0</ele>
  <time>2026-08-28T17:56:05Z</time>
  <course>248.11</course>
  <speed>0.022360679774997897</speed>
  <fix>3d</fix>
</trkpt>
<trkpt lat="40.0713749" lon="-105.229789">
  <ele>1583.0</ele>
  <time>2026-08-28T17:56:05Z</time>
  <course>0.0</course>
  <speed>0.0</speed>
  <fix>3d</fix>
</trkpt>
<trkpt lat="40.0713749" lon="-105.229789">
  <ele>1583.0</ele>
  <time>2026-08-28T17:56:05Z</time>
  <course>248.1</course>
  <speed>0.022360679774997897</speed>
  <fix>3d</fix>
</trkpt>
<trkpt lat="40.0713749" lon="-105.229789">
  <ele>1583.0</ele>
  <time>2026-08-28T17:56:05Z</time>
  <course>0.0</course>
  <speed>0.0</speed>
  <fix>3d</fix>
</trkpt>
<trkpt lat="40.0713749" lon="-105.229789">
  <ele>1583.0</ele>
  <time>2026-08-28T17:56:05Z</time>
  <course>248.1</course>
  <speed>0.022360679774997897</speed>
  <fix>3d</fix>
</trkpt>
<trkpt lat="40.0713749" lon="-105.229789">
  <ele>1583.0</ele>
  <time>2026-08-28T17:56:05Z</time>
  <course>0.0</course>
  <speed>0.0</speed>
  <fix>3d</fix>
</trkpt>
<trkpt lat="40.0713749" lon="-105.229789">
  <ele>1583.0</ele>
  <time>2026-08-28T17:56:05Z</time>
  <course>248.09</course>
  <speed>0.022360679774997897</speed>
  <fix>3d</fix>
</trkpt>
<trkpt lat="40.0713749" lon="-105.229789">
  <ele>1583.0</ele>
  <time>2026-08-28T17:56:05Z</time>
  <course>0.0</course>
  <speed>0.0</speed>
  <fix>3d</fix>
</trkpt>
<trkpt lat="40.0713749" lon="-105.229789">
  <ele>1583.0</ele>
  <time>2026-08-28T17:56:05Z</time>
  <course>248.09</course>
  <speed>0.022360679774997897</speed>
  <fix>3d</fix>
</trkpt>
<trkpt lat="40.0713749" lon="-105.229789">
  <ele>1583.0</ele>
  <time>2026-08-28T17:56:05Z</time>
  <course>0.0</course>
  <speed>0.0</speed>
  <fix>3d</fix>
</trkpt>
<trkpt lat="40.0713749" lon="-105.229789">
  <ele>1583.0</ele>
  <time>2026-08-28T17:56:05Z</time>
  <course>248.08</course>
  <speed>0.022360679774997897</speed>
  <fix>3d</fix>
</trkpt>
<trkpt lat="40.0713749" lon="-105.229789">
  <ele>1583.0</ele>
  <time>2026-08-28T17:56:05Z</time>
  <course>0.0</course>
  <speed>0.0</speed>
  <fix>3d</fix>
</trkpt>
<trkpt lat="40.0713749" lon="-105.229789">
  <ele>1583.0</ele>
  <time>2026-08-28T17:56:05Z</time>
  <course>248.08</course>
  <speed>0.022360679774997897</speed>
  <fix>3d</fix>
</trkpt>
<trkpt lat="40.0713749" lon="-105.229789">
  <ele>1583.0</ele>
  <time>2026-08-28T17:56:05Z</time>
  <course>0.0</course>
  <speed>0.0</speed>
  <fix>3d</fix>
</trkpt>
<trkpt lat="40.0713749" lon="-105.229789">
  <ele>1583.0</ele>
  <time>2026-08-28T17:56:05Z</time>
  <course>248.07</course>
  <speed>0.022360679774997897</speed>
  <fix>3d</fix>
</trkpt>
<trkpt lat="40.0713749" lon="-105.229789">
  <ele>1583.0</ele>
  <time>2026-08-28T17:56:05Z</time>
  <course>0.0</course>
  <speed>0.0</speed>
  <fix>3d</fix>
</trkpt>
<trkpt lat="40.0713749" lon="-105.229789">
  <ele>1583.0</ele>
  <time>2026-08-28T17:56:05Z</time>
  <course>248.07</course>
  <speed>0.022360679774997897</speed>
  <fix>3d</fix>
</trkpt>
<trkpt lat="40.0713749" lon="-105.229789">
  <ele>1583.0</ele>
  <time>2026-08-28T17:56:05Z</time>
  <course>0.0</course>
  <speed>0.0</speed>
  <fix>3d</fix>
</trkpt>
<trkpt lat="40.0713749" lon="-105.229789">
  <ele>1583.0</ele>
  <time>2026-08-28T17:56:05Z</time>
  <course>248.06</course>
  <speed>0.022360679774997897</speed>
  <fix>3d</fix>
</trkpt>
<trkpt lat="40.0713749" lon="-105.229789">
  <ele>1583.0</ele>
  <time>2026-08-28T17:56:05Z</time>
  <course>0.0</course>
  <speed>0.0</speed>
  <fix>3d</fix>
</trkpt>
<trkpt lat="40.0713749" lon="-105.229789">
  <ele>1583.0</ele>
  <time>2026-08-28T17:56:05Z</time>
  <course>248.06</course>
  <speed>0.022360679774997897</speed>
  <fix>3d</fix>
</trkpt>
<trkpt lat="40.0713749" lon="-105.229789">
  <ele>1583.0</ele>
  <time>2026-08-28T17:56:05Z</time>
  <course>0.0</course>
  <speed>0.0</speed>
  <fix>3d</fix>
</trkpt>
<trkpt lat="40.0713749" lon="-105.229789">
  <ele>1583.0</ele>
  <time>2026-08-28T17:56:05Z</time>
  <course>248.05</course>
  <speed>0.022360679774997897</speed>
  <fix>3d</fix>
</trkpt>
<trkpt lat="40.0713749" lon="-105.229789">
  <ele>1583.0</ele>
  <time>2026-08-28T17:56:05Z</time>
  <course>0.0</course>
  <speed>0.0</speed>
  <fix>3d</fix>
</trkpt>
<trkpt lat="40.0713749" lon="-105.229789">
  <ele>1583.0</ele>
  <time>2026-08-28T17:56:05Z</time>
  <course>248.05</course>
  <speed>0.022360679774997897</speed>
  <fix>3d</fix>
</trkpt>
<trkpt lat="40.0713749" lon="-105.229789">
  <ele>1583.0</ele>
  <time>2026-08-28T17:56:05Z</time>
  <course>0.0</course>
  <speed>0.0</speed>
  <fix>3d</fix>
</trkpt>
<trkpt lat="40.0713749" lon="-105.229789">
  <ele>1583.0</ele>
  <time>2026-08-28T17:56:05Z</time>
  <course>248.05</course>
  <speed>0.022360679774997897</speed>
  <fix>3d</fix>
</trkpt>
<trkpt lat="40.0713749" lon="-105.229789">
  <ele>1583.0</ele>
  <time>2026-08-28T17:56:05Z</time>
  <course>0.0</course>
  <speed>0.0</speed>
  <fix>3d</fix>
</trkpt>
<trkpt lat="40.0713749" lon="-105.229789">
  <ele>1583.0</ele>
  <time>2026-08-28T17:56:05Z</time>
  <course>248.04</course>
  <speed>0.022360679774997897</speed>
  <fix>3d</fix>
</trkpt>
<trkpt lat="40.0713749" lon="-105.229789">
  <ele>1583.0</ele>
  <time>2026-08-28T17:56:05Z</time>
  <course>0.0</course>
  <speed>0.0</speed>
  <fix>3d</fix>
</trkpt>
<trkpt lat="40.0713749" lon="-105.229789">
  <ele>1583.0</ele>
  <time>2026-08-28T17:56:05Z</time>
  <course>248.04</course>
  <speed>0.022360679774997897</speed>
  <fix>3d</fix>
</trkpt>
<trkpt lat="40.0713749" lon="-105.229789">
  <ele>1583.0</ele>
  <time>2026-08-28T17:56:05Z</time>
  <course>0.0</course>
  <speed>0.0</speed>
  <fix>3d</fix>
</trkpt>
<trkpt lat="40.0713749" lon="-105.229789">
  <ele>1583.0</ele>
  <time>2026-08-28T17:56:05Z</time>
  <course>248.03</course>
  <speed>0.022360679774997897</speed>
  <fix>3d</fix>
</trkpt>
<trkpt lat="40.0713749" lon="-105.229789">
  <ele>1583.0</ele>
  <time>2026-08-28T17:56:05Z</time>
  <course>0.0</course>
  <speed>0.0</speed>
  <fix>3d</fix>
</trkpt>
<trkpt lat="40.0713749" lon="-105.229789">
  <ele>1583.0</ele>
  <time>2026-08-28T17:56:05Z</time>
  <course>248.03</course>
  <speed>0.022360679774997897</speed>
  <fix>3d</fix>
</trkpt>
<trkpt lat="40.0713749" lon="-105.229789">
  <ele>1583.0</ele>
  <time>2026-08-28T17:56:05Z</time>
  <course>0.0</course>
  <speed>0.0</speed>
  <fix>3d</fix>
</trkpt>
<trkpt lat="40.0713749" lon="-105.229789">
  <ele>1583.0</ele>
  <time>2026-08-28T17:56:05Z</time>
  <course>248.02</course>
  <speed>0.022360679774997897</speed>
  <fix>3d</fix>
</trkpt>
<trkpt lat="40.0713749" lon="-105.229789">
  <ele>1583.0</ele>
  <time>2026-08-28T17:56:05Z</time>
  <course>0.0</course>
  <speed>0.0</speed>
  <fix>3d</fix>
</trkpt>
<trkpt lat="40.0713749" lon="-105.229789">
  <ele>1583.0</ele>
  <time>2026-08-28T17:56:05Z</time>
  <course>248.02</course>
  <speed>0.022360679774997897</speed>
  <fix>3d</fix>
</trkpt>
<trkpt lat="40.0713749" lon="-105.229789">
  <ele>1583.0</ele>
  <time>2026-08-28T17:56:05Z</time>
  <course>0.0</course>
  <speed>0.0</speed>
  <fix>3d</fix>
</trkpt>
<trkpt lat="40.0713749" lon="-105.229789">
  <ele>1583.0</ele>
  <time>2026-08-28T17:56:05Z</time>
  <course>248.01</course>
  <speed>0.022360679774997897</speed>
  <fix>3d</fix>
</trkpt>
<trkpt lat="40.0713749" lon="-105.229789">
  <ele>1583.0</ele>
  <time>2026-08-28T17:56:05Z</time>
  <course>0.0</course>
  <speed>0.0</speed>
  <fix>3d</fix>
</trkpt>
<trkpt lat="40.0713749" lon="-105.229789">
  <ele>1583.0</ele>
  <time>2026-08-28T17:56:05Z</time>
  <course>248.01</course>
  <speed>0.022360679774997897</speed>
  <fix>3d</fix>
</trkpt>
<trkpt lat="40.0713749" lon="-105.229789">
  <ele>1583.0</ele>
  <time>2026-08-28T17:56:05Z</time>
  <course>0.0</course>
  <speed>0.0</speed>
  <fix>3d</fix>
</trkpt>
<trkpt lat="40.0713749" lon="-105.229789">
  <ele>1583.0</ele>
  <time>2026-08-28T17:56:05Z</time>
  <course>248.0</course>
  <speed>0.022360679774997897</speed>
  <fix>3d</fix>
</trkpt>
<trkpt lat="40.0713749" lon="-105.229789">
  <ele>1583.0</ele>
  <time>2026-08-28T17:56:05Z</time>
  <course>0.0</course>
  <speed>0.0</speed>
  <fix>3d</fix>
</trkpt>
<trkpt lat="40.0713749" lon="-105.229789">
  <ele>1583.0</ele>
  <time>2026-08-28T17:56:05Z</time>
  <course>248.0</course>
  <speed>0.022360679774997897</speed>
  <fix>3d</fix>
</trkpt>
<trkpt lat="40.0713749" lon="-105.229789">
  <ele>1583.0</ele>
  <time>2026-08-28T17:56:05Z</time>
  <course>0.0</course>
  <speed>0.0</speed>
  <fix>3d</fix>
</trkpt>
<trkpt lat="40.0713749" lon="-105.229789">
  <ele>1583.0</ele>
  <time>2026-08-28T17:56:05Z</time>
  <course>247.99</course>
  <speed>0.022360679774997897</speed>
  <fix>3d</fix>
</trkpt>
<trkpt lat="40.0713749" lon="-105.229789">
  <ele>1583.0</ele>
  <time>2026-08-28T17:56:05Z</time>
  <course>0.0</course>
  <speed>0.0</speed>
  <fix>3d</fix>
</trkpt>
<trkpt lat="40.0713749" lon="-105.229789">
  <ele>1583.0</ele>
  <time>2026-08-28T17:56:05Z</time>
  <course>247.99</course>
  <speed>0.022360679774997897</speed>
  <fix>3d</fix>
</trkpt>
<trkpt lat="40.0713749" lon="-105.229789">
  <ele>1583.0</ele>
  <time>2026-08-28T17:56:05Z</time>
  <course>0.0</course>
  <speed>0.0</speed>
  <fix>3d</fix>
</trkpt>
<trkpt lat="40.0713749" lon="-105.229789">
  <ele>1583.0</ele>
  <time>2026-08-28T17:56:05Z</time>
  <course>247.99</course>
  <speed>0.022360679774997897</speed>
  <fix>3d</fix>
</trkpt>
<trkpt lat="40.0713749" lon="-105.229789">
  <ele>1583.0</ele>
  <time>2026-08-28T17:56:05Z</time>
  <course>0.0</course>
  <speed>0.0</speed>
  <fix>3d</fix>
</trkpt>
<trkpt lat="40.0713749" lon="-105.229789">
  <ele>1583.0</ele>
  <time>2026-08-28T17:56:05Z</time>
  <course>247.98</course>
  <speed>0.022360679774997897</speed>
  <fix>3d</fix>
</trkpt>
<trkpt lat="40.0713749" lon="-105.229789">
  <ele>1583.0</ele>
  <time>2026-08-28T17:56:05Z</time>
  <course>0.0</course>
  <speed>0.0</speed>
  <fix>3d</fix>
</trkpt>
<trkpt lat="40.0713749" lon="-105.229789">
  <ele>1583.0</ele>
  <time>2026-08-28T17:56:05Z</time>
  <course>247.98</course>
  <speed>0.022360679774997897</speed>
  <fix>3d</fix>
</trkpt>
<trkpt lat="40.0713749" lon="-105.229789">
  <ele>1583.0</ele>
  <time>2026-08-28T17:56:05Z</time>
  <course>0.0</course>
  <speed>0.0</speed>
  <fix>3d</fix>
</trkpt>
<trkpt lat="40.0713749" lon="-105.229789">
  <ele>1583.0</ele>
  <time>2026-08-28T17:56:05Z</time>
  <course>247.97</course>
  <speed>0.022360679774997897</speed>
  <fix>3d</fix>
</trkpt>
<trkpt lat="40.0713749" lon="-105.229789">
  <ele>1583.0</ele>
  <time>2026-08-28T17:56:05Z</time>
  <course>0.0</course>
  <speed>0.0</speed>
  <fix>3d</fix>
</trkpt>
<trkpt lat="40.0713749" lon="-105.229789">
  <ele>1583.0</ele>
  <time>2026-08-28T17:56:05Z</time>
  <course>247.97</course>
  <speed>0.022360679774997897</speed>
  <fix>3d</fix>
</trkpt>
<trkpt lat="40.0713749" lon="-105.229789">
  <ele>1583.0</ele>
  <time>2026-08-28T17:56:05Z</time>
  <course>0.0</course>
  <speed>0.0</speed>
  <fix>3d</fix>
</trkpt>
<trkpt lat="40.0713749" lon="-105.229789">
  <ele>1583.0</ele>
  <time>2026-08-28T17:56:05Z</time>
  <course>247.96</course>
  <speed>0.022360679774997897</speed>
  <fix>3d</fix>
</trkpt>
<trkpt lat="40.0713749" lon="-105.229789">
  <ele>1583.0</ele>
  <time>2026-08-28T17:56:05Z</time>
  <course>0.0</course>
  <speed>0.0</speed>
  <fix>3d</fix>
</trkpt>
<trkpt lat="40.0713749" lon="-105.229789">
  <ele>1583.0</ele>
  <time>2026-08-28T17:56:05Z</time>
  <course>247.96</course>
  <speed>0.022360679774997897</speed>
  <fix>3d</fix>
</trkpt>
<trkpt lat="40.0713749" lon="-105.229789">
  <ele>1583.0</ele>
  <time>2026-08-28T17:56:05Z</time>
  <course>0.0</course>
  <speed>0.0</speed>
  <fix>3d</fix>
</trkpt>
<trkpt lat="40.0713749" lon="-105.229789">
  <ele>1583.0</ele>
  <time>2026-08-28T17:56:05Z</time>
  <course>247.95</course>
  <speed>0.022360679774997897</speed>
  <fix>3d</fix>
</trkpt>
<trkpt lat="40.0713749" lon="-105.229789">
  <ele>1583.0</ele>
  <time>2026-08-28T17:56:05Z</time>
  <course>0.0</course>
  <speed>0.0</speed>
  <fix>3d</fix>
</trkpt>
<trkpt lat="40.0713749" lon="-105.229789">
  <ele>1583.0</ele>
  <time>2026-08-28T17:56:05Z</time>
  <course>247.95</course>
  <speed>0.022360679774997897</speed>
  <fix>3d</fix>
</trkpt>
<trkpt lat="40.0713749" lon="-105.229789">
  <ele>1583.0</ele>
  <time>2026-08-28T17:56:05Z</time>
  <course>0.0</course>
  <speed>0.0</speed>
  <fix>3d</fix>
</trkpt>
<trkpt lat="40.0713749" lon="-105.229789">
  <ele>1583.0</ele>
  <time>2026-08-28T17:56:05Z</time>
  <course>247.95</course>
  <speed>0.022360679774997897</speed>
  <fix>3d</fix>
</trkpt>
<trkpt lat="40.0713749" lon="-105.229789">
  <ele>1583.0</ele>
  <time>2026-08-28T17:56:05Z</time>
  <course>0.0</course>
  <speed>0.0</speed>
  <fix>3d</fix>
</trkpt>
<trkpt lat="40.0713749" lon="-105.229789">
  <ele>1583.0</ele>
  <time>2026-08-28T17:56:05Z</time>
  <course>247.94</course>
  <speed>0.022360679774997897</speed>
  <fix>3d</fix>
</trkpt>
<trkpt lat="40.0713749" lon="-105.229789">
  <ele>1583.0</ele>
  <time>2026-08-28T17:56:05Z</time>
  <course>0.0</course>
  <speed>0.0</speed>
  <fix>3d</fix>
</trkpt>
<trkpt lat="40.0713749" lon="-105.229789">
  <ele>1583.0</ele>
  <time>2026-08-28T17:56:05Z</time>
  <course>247.94</course>
  <speed>0.022360679774997897</speed>
  <fix>3d</fix>
</trkpt>
<trkpt lat="40.0713749" lon="-105.229789">
  <ele>1583.0</ele>
  <time>2026-08-28T17:56:05Z</time>
  <course>0.0</course>
  <speed>0.0</speed>
  <fix>3d</fix>
</trkpt>
<trkpt lat="40.0713749" lon="-105.229789">
  <ele>1583.0</ele>
  <time>2026-08-28T17:56:05Z</time>
  <course>247.93</course>
  <speed>0.022360679774997897</speed>
  <fix>3d</fix>
</trkpt>
<trkpt lat="40.0713749" lon="-105.229789">
  <ele>1583.0</ele>
  <time>2026-08-28T17:56:05Z</time>
  <course>0.0</course>
  <speed>0.0</speed>
  <fix>3d</fix>
</trkpt>
<trkpt lat="40.0713749" lon="-105.229789">
  <ele>1583.0</ele>
  <time>2026-08-28T17:56:05Z</time>
  <course>247.93</course>
  <speed>0.022360679774997897</speed>
  <fix>3d</fix>
</trkpt>
<trkpt lat="40.0713749" lon="-105.229789">
  <ele>1583.0</ele>
  <time>2026-08-28T17:56:05Z</time>
  <course>0.0</course>
  <speed>0.0</speed>
  <fix>3d</fix>
</trkpt>
<trkpt lat="40.0713749" lon="-105.229789">
  <ele>1583.0</ele>
  <time>2026-08-28T17:56:05Z</time>
  <course>247.92</course>
  <speed>0.022360679774997897</speed>
  <fix>3d</fix>
</trkpt>
<trkpt lat="40.0713749" lon="-105.229789">
  <ele>1583.0</ele>
  <time>2026-08-28T17:56:05Z</time>
  <course>0.0</course>
  <speed>0.0</speed>
  <fix>3d</fix>
</trkpt>
<trkpt lat="40.0713749" lon="-105.229789">
  <ele>1583.0</ele>
  <time>2026-08-28T17:56:05Z</time>
  <course>247.92</course>
  <speed>0.022360679774997897</speed>
  <fix>3d</fix>
</trkpt>
<trkpt lat="40.0713749" lon="-105.229789">
  <ele>1583.0</ele>
  <time>2026-08-28T17:56:05Z</time>
  <course>0.0</course>
  <speed>0.0</speed>
  <fix>3d</fix>
</trkpt>
<trkpt lat="40.0713749" lon="-105.229789">
  <ele>1583.0</ele>
  <time>2026-08-28T17:56:05Z</time>
  <course>247.92</course>
  <speed>0.022360679774997897</speed>
  <fix>3d</fix>
</trkpt>
<trkpt lat="40.0713749" lon="-105.229789">
  <ele>1583.0</ele>
  <time>2026-08-28T17:56:05Z</time>
  <course>0.0</course>
  <speed>0.0</speed>
  <fix>3d</fix>
</trkpt>
<trkpt lat="40.0713749" lon="-105.229789">
  <ele>1583.0</ele>
  <time>2026-08-28T17:56:05Z</time>
  <course>247.91</course>
  <speed>0.022360679774997897</speed>
  <fix>3d</fix>
</trkpt>
<trkpt lat="40.0713749" lon="-105.229789">
  <ele>1583.0</ele>
  <time>2026-08-28T17:56:05Z</time>
  <course>0.0</course>
  <speed>0.0</speed>
  <fix>3d</fix>
</trkpt>
<trkpt lat="40.0713749" lon="-105.229789">
  <ele>1583.0</ele>
  <time>2026-08-28T17:56:05Z</time>
  <course>247.91</course>
  <speed>0.022360679774997897</speed>
  <fix>3d</fix>
</trkpt>
<trkpt lat="40.0713749" lon="-105.229789">
  <ele>1583.0</ele>
  <time>2026-08-28T17:56:05Z</time>
  <course>0.0</course>
  <speed>0.0</speed>
  <fix>3d</fix>
</trkpt>
<trkpt lat="40.0713749" lon="-105.229789">
  <ele>1583.0</ele>
  <time>2026-08-28T17:56:05Z</time>
  <course>247.9</course>
  <speed>0.022360679774997897</speed>
  <fix>3d</fix>
</trkpt>
<trkpt lat="40.0713749" lon="-105.229789">
  <ele>1583.0</ele>
  <time>2026-08-28T17:56:05Z</time>
  <course>0.0</course>
  <speed>0.0</speed>
  <fix>3d</fix>
</trkpt>
<trkpt lat="40.0713749" lon="-105.229789">
  <ele>1583.0</ele>
  <time>2026-08-28T17:56:05Z</time>
  <course>247.9</course>
  <speed>0.022360679774997897</speed>
  <fix>3d</fix>
</trkpt>
<trkpt lat="40.0713749" lon="-105.229789">
  <ele>1583.0</ele>
  <time>2026-08-28T17:56:05Z</time>
  <course>0.0</course>
  <speed>0.0</speed>
  <fix>3d</fix>
</trkpt>
<trkpt lat="40.0713749" lon="-105.229789">
  <ele>1583.0</ele>
  <time>2026-08-28T17:56:05Z</time>
  <course>247.89</course>
  <speed>0.022360679774997897</speed>
  <fix>3d</fix>
</trkpt>
<trkpt lat="40.0713749" lon="-105.229789">
  <ele>1583.0</ele>
  <time>2026-08-28T17:56:05Z</time>
  <course>0.0</course>
  <speed>0.0</speed>
  <fix>3d</fix>
</trkpt>
<trkpt lat="40.0713749" lon="-105.229789">
  <ele>1583.0</ele>
  <time>2026-08-28T17:56:05Z</time>
  <course>247.89</course>
  <speed>0.022360679774997897</speed>
  <fix>3d</fix>
</trkpt>
<trkpt lat="40.0713749" lon="-105.229789">
  <ele>1583.0</ele>
  <time>2026-08-28T17:56:05Z</time>
  <course>0.0</course>
  <speed>0.0</speed>
  <fix>3d</fix>
</trkpt>
<trkpt lat="40.0713749" lon="-105.229789">
  <ele>1583.0</ele>
  <time>2026-08-28T17:56:05Z</time>
  <course>247.89</course>
  <speed>0.022360679774997897</speed>
  <fix>3d</fix>
</trkpt>
<trkpt lat="40.0713749" lon="-105.229789">
  <ele>1583.0</ele>
  <time>2026-08-28T17:56:05Z</time>
  <course>0.0</course>
  <speed>0.0</speed>
  <fix>3d</fix>
</trkpt>
<trkpt lat="40.0713749" lon="-105.229789">
  <ele>1583.0</ele>
  <time>2026-08-28T17:56:05Z</time>
  <course>247.88</course>
  <speed>0.0316227766016838</speed>
  <fix>3d</fix>
</trkpt>
<trkpt lat="40.0713749" lon="-105.229789">
  <ele>1583.0</ele>
  <time>2026-08-28T17:56:05Z</time>
  <course>0.0</course>
  <speed>0.0</speed>
  <fix>3d</fix>
</trkpt>
<trkpt lat="40.0713749" lon="-105.229789">
  <ele>1583.0</ele>
  <time>2026-08-28T17:56:05Z</time>
  <course>247.88</course>
  <speed>0.0316227766016838</speed>
  <fix>3d</fix>
</trkpt>
<trkpt lat="40.0713749" lon="-105.229789">
  <ele>1583.0</ele>
  <time>2026-08-28T17:56:05Z</time>
  <course>0.0</course>
  <speed>0.0</speed>
  <fix>3d</fix>
</trkpt>
<trkpt lat="40.0713749" lon="-105.229789">
  <ele>1583.0</ele>
  <time>2026-08-28T17:56:05Z</time>
  <course>247.87</course>
  <speed>0.0316227766016838</speed>
  <fix>3d</fix>
</trkpt>
<trkpt lat="40.0713749" lon="-105.229789">
  <ele>1583.0</ele>
  <time>2026-08-28T17:56:05Z</time>
  <course>0.0</course>
  <speed>0.0</speed>
  <fix>3d</fix>
</trkpt>
<trkpt lat="40.0713749" lon="-105.229789">
  <ele>1583.0</ele>
  <time>2026-08-28T17:56:05Z</time>
  <course>247.87</course>
  <speed>0.0316227766016838</speed>
  <fix>3d</fix>
</trkpt>
<trkpt lat="40.0713749" lon="-105.229789">
  <ele>1583.0</ele>
  <time>2026-08-28T17:56:05Z</time>
  <course>0.0</course>
  <speed>0.0</speed>
  <fix>3d</fix>
</trkpt>
<trkpt lat="40.0713749" lon="-105.229789">
  <ele>1583.0</ele>
  <time>2026-08-28T17:56:05Z</time>
  <course>247.87</course>
  <speed>0.0316227766016838</speed>
  <fix>3d</fix>
</trkpt>
<trkpt lat="40.0713749" lon="-105.229789">
  <ele>1583.0</ele>
  <time>2026-08-28T17:56:05Z</time>
  <course>0.0</course>
  <speed>0.0</speed>
  <fix>3d</fix>
</trkpt>
<trkpt lat="40.0713749" lon="-105.229789">
  <ele>1583.0</ele>
  <time>2026-08-28T17:56:05Z</time>
  <course>247.86</course>
  <speed>0.0316227766016838</speed>
  <fix>3d</fix>
</trkpt>
<trkpt lat="40.0713749" lon="-105.229789">
  <ele>1583.0</ele>
  <time>2026-08-28T17:56:05Z</time>
  <course>0.0</course>
  <speed>0.0</speed>
  <fix>3d</fix>
</trkpt>
<trkpt lat="40.0713749" lon="-105.229789">
  <ele>1583.0</ele>
  <time>2026-08-28T17:56:05Z</time>
  <course>247.86</course>
  <speed>0.0316227766016838</speed>
  <fix>3d</fix>
</trkpt>
<trkpt lat="40.0713749" lon="-105.229789">
  <ele>1583.0</ele>
  <time>2026-08-28T17:56:05Z</time>
  <course>0.0</course>
  <speed>0.0</speed>
  <fix>3d</fix>
</trkpt>
<trkpt lat="40.0713749" lon="-105.229789">
  <ele>1583.0</ele>
  <time>2026-08-28T17:56:05Z</time>
  <course>247.85</course>
  <speed>0.0316227766016838</speed>
  <fix>3d</fix>
</trkpt>
<trkpt lat="40.0713749" lon="-105.229789">
  <ele>1583.0</ele>
  <time>2026-08-28T17:56:05Z</time>
  <course>0.0</course>
  <speed>0.0</speed>
  <fix>3d</fix>
</trkpt>
<trkpt lat="40.0713749" lon="-105.229789">
  <ele>1583.0</ele>
  <time>2026-08-28T17:56:05Z</time>
  <course>247.85</course>
  <speed>0.0316227766016838</speed>
  <fix>3d</fix>
</trkpt>
<trkpt lat="40.0713749" lon="-105.229789">
  <ele>1583.0</ele>
  <time>2026-08-28T17:56:05Z</time>
  <course>0.0</course>
  <speed>0.0</speed>
  <fix>3d</fix>
</trkpt>
<trkpt lat="40.0713749" lon="-105.229789">
  <ele>1583.0</ele>
  <time>2026-08-28T17:56:05Z</time>
  <course>247.85</course>
  <speed>0.0316227766016838</speed>
  <fix>3d</fix>
</trkpt>
<trkpt lat="40.0713749" lon="-105.229789">
  <ele>1583.0</ele>
  <time>2026-08-28T17:56:05Z</time>
  <course>0.0</course>
  <speed>0.0</speed>
  <fix>3d</fix>
</trkpt>
<trkpt lat="40.0713749" lon="-105.229789">
  <ele>1583.0</ele>
  <time>2026-08-28T17:56:05Z</time>
  <course>247.84</course>
  <speed>0.0316227766016838</speed>
  <fix>3d</fix>
</trkpt>
<trkpt lat="40.0713749" lon="-105.229789">
  <ele>1583.0</ele>
  <time>2026-08-28T17:56:05Z</time>
  <course>0.0</course>
  <speed>0.0</speed>
  <fix>3d</fix>
</trkpt>
<trkpt lat="40.0713749" lon="-105.229789">
  <ele>1583.0</ele>
  <time>2026-08-28T17:56:05Z</time>
  <course>247.84</course>
  <speed>0.0316227766016838</speed>
  <fix>3d</fix>
</trkpt>
<trkpt lat="40.0713749" lon="-105.229789">
  <ele>1583.0</ele>
  <time>2026-08-28T17:56:05Z</time>
  <course>0.0</course>
  <speed>0.0</speed>
  <fix>3d</fix>
</trkpt>
<trkpt lat="40.0713749" lon="-105.229789">
  <ele>1583.0</ele>
  <time>2026-08-28T17:56:05Z</time>
  <course>247.83</course>
  <speed>0.0316227766016838</speed>
  <fix>3d</fix>
</trkpt>
<trkpt lat="40.0713749" lon="-105.229789">
  <ele>1583.0</ele>
  <time>2026-08-28T17:56:05Z</time>
  <course>0.0</course>
  <speed>0.0</speed>
  <fix>3d</fix>
</trkpt>
<trkpt lat="40.0713749" lon="-105.229789">
  <ele>1583.0</ele>
  <time>2026-08-28T17:56:05Z</time>
  <course>247.83</course>
  <speed>0.0316227766016838</speed>
  <fix>3d</fix>
</trkpt>
<trkpt lat="40.0713749" lon="-105.229789">
  <ele>1583.0</ele>
  <time>2026-08-28T17:56:05Z</time>
  <course>0.0</course>
  <speed>0.0</speed>
  <fix>3d</fix>
</trkpt>
<trkpt lat="40.0713749" lon="-105.229789">
  <ele>1583.0</ele>
  <time>2026-08-28T17:56:05Z</time>
  <course>247.83</course>
  <speed>0.0316227766016838</speed>
  <fix>3d</fix>
</trkpt>
<trkpt lat="40.0713749" lon="-105.229789">
  <ele>1583.0</ele>
  <time>2026-08-28T17:56:05Z</time>
  <course>0.0</course>
  <speed>0.0</speed>
  <fix>3d</fix>
</trkpt>
<trkpt lat="40.0713749" lon="-105.229789">
  <ele>1583.0</ele>
  <time>2026-08-28T17:56:05Z</time>
  <course>247.82</course>
  <speed>0.0316227766016838</speed>
  <fix>3d</fix>
</trkpt>
<trkpt lat="40.0713749" lon="-105.229789">
  <ele>1583.0</ele>
  <time>2026-08-28T17:56:05Z</time>
  <course>0.0</course>
  <speed>0.0</speed>
  <fix>3d</fix>
</trkpt>
<trkpt lat="40.0713749" lon="-105.229789">
  <ele>1583.0</ele>
  <time>2026-08-28T17:56:05Z</time>
  <course>247.82</course>
  <speed>0.0316227766016838</speed>
  <fix>3d</fix>
</trkpt>
<trkpt lat="40.0713749" lon="-105.229789">
  <ele>1583.0</ele>
  <time>2026-08-28T17:56:05Z</time>
  <course>0.0</course>
  <speed>0.0</speed>
  <fix>3d</fix>
</trkpt>
<trkpt lat="40.0713749" lon="-105.229789">
  <ele>1583.0</ele>
  <time>2026-08-28T17:56:05Z</time>
  <course>247.82</course>
  <speed>0.0316227766016838</speed>
  <fix>3d</fix>
</trkpt>
<trkpt lat="40.0713749" lon="-105.229789">
  <ele>1583.0</ele>
  <time>2026-08-28T17:56:05Z</time>
  <course>0.0</course>
  <speed>0.0</speed>
  <fix>3d</fix>
</trkpt>
<trkpt lat="40.0713749" lon="-105.229789">
  <ele>1583.0</ele>
  <time>2026-08-28T17:56:05Z</time>
  <course>247.81</course>
  <speed>0.0316227766016838</speed>
  <fix>3d</fix>
</trkpt>
<trkpt lat="40.0713749" lon="-105.229789">
  <ele>1583.0</ele>
  <time>2026-08-28T17:56:05Z</time>
  <course>0.0</course>
  <speed>0.0</speed>
  <fix>3d</fix>
</trkpt>
<trkpt lat="40.0713749" lon="-105.229789">
  <ele>1583.0</ele>
  <time>2026-08-28T17:56:05Z</time>
  <course>247.81</course>
  <speed>0.0316227766016838</speed>
  <fix>3d</fix>
</trkpt>
<trkpt lat="40.0713749" lon="-105.229789">
  <ele>1583.0</ele>
  <time>2026-08-28T17:56:05Z</time>
  <course>0.0</course>
  <speed>0.0</speed>
  <fix>3d</fix>
</trkpt>
<trkpt lat="40.0713749" lon="-105.229789">
  <ele>1583.0</ele>
  <time>2026-08-28T17:56:05Z</time>
  <course>247.8</course>
  <speed>0.0316227766016838</speed>
  <fix>3d</fix>
</trkpt>
<trkpt lat="40.0713749" lon="-105.229789">
  <ele>1583.0</ele>
  <time>2026-08-28T17:56:05Z</time>
  <course>0.0</course>
  <speed>0.0</speed>
  <fix>3d</fix>
</trkpt>
<trkpt lat="40.0713749" lon="-105.229789">
  <ele>1583.0</ele>
  <time>2026-08-28T17:56:05Z</time>
  <course>247.8</course>
  <speed>0.0316227766016838</speed>
  <fix>3d</fix>
</trkpt>
<trkpt lat="40.0713749" lon="-105.229789">
  <ele>1583.0</ele>
  <time>2026-08-28T17:56:05Z</time>
  <course>0.0</course>
  <speed>0.0</speed>
  <fix>3d</fix>
</trkpt>
<trkpt lat="40.0713749" lon="-105.229789">
  <ele>1583.0</ele>
  <time>2026-08-28T17:56:05Z</time>
  <course>247.8</course>
  <speed>0.0316227766016838</speed>
  <fix>3d</fix>
</trkpt>
<trkpt lat="40.0713749" lon="-105.229789">
  <ele>1583.0</ele>
  <time>2026-08-28T17:56:05Z</time>
  <course>0.0</course>
  <speed>0.0</speed>
  <fix>3d</fix>
</trkpt>
<trkpt lat="40.0713749" lon="-105.229789">
  <ele>1583.0</ele>
  <time>2026-08-28T17:56:05Z</time>
  <course>247.79</course>
  <speed>0.0316227766016838</speed>
  <fix>3d</fix>
</trkpt>
<trkpt lat="40.0713749" lon="-105.229789">
  <ele>1583.0</ele>
  <time>2026-08-28T17:56:05Z</time>
  <course>0.0</course>
  <speed>0.0</speed>
  <fix>3d</fix>
</trkpt>
<trkpt lat="40.0713749" lon="-105.229789">
  <ele>1583.0</ele>
  <time>2026-08-28T17:56:05Z</time>
  <course>247.79</course>
  <speed>0.0316227766016838</speed>
  <fix>3d</fix>
</trkpt>
<trkpt lat="40.0713749" lon="-105.229789">
  <ele>1583.0</ele>
  <time>2026-08-28T17:56:05Z</time>
  <course>0.0</course>
  <speed>0.0</speed>
  <fix>3d</fix>
</trkpt>
<trkpt lat="40.0713749" lon="-105.229789">
  <ele>1583.0</ele>
  <time>2026-08-28T17:56:05Z</time>
  <course>247.79</course>
  <speed>0.0316227766016838</speed>
  <fix>3d</fix>
</trkpt>
<trkpt lat="40.0713749" lon="-105.229789">
  <ele>1583.0</ele>
  <time>2026-08-28T17:56:05Z</time>
  <course>0.0</course>
  <speed>0.0</speed>
  <fix>3d</fix>
</trkpt>
<trkpt lat="40.0713749" lon="-105.229789">
  <ele>1583.0</ele>
  <time>2026-08-28T17:56:05Z</time>
  <course>247.78</course>
  <speed>0.0316227766016838</speed>
  <fix>3d</fix>
</trkpt>
<trkpt lat="40.0713749" lon="-105.229789">
  <ele>1583.0</ele>
  <time>2026-08-28T17:56:05Z</time>
  <course>0.0</course>
  <speed>0.0</speed>
  <fix>3d</fix>
</trkpt>
<trkpt lat="40.0713749" lon="-105.229789">
  <ele>1583.0</ele>
  <time>2026-08-28T17:56:05Z</time>
  <course>247.78</course>
  <speed>0.0316227766016838</speed>
  <fix>3d</fix>
</trkpt>
<trkpt lat="40.0713749" lon="-105.229789">
  <ele>1583.0</ele>
  <time>2026-08-28T17:56:05Z</time>
  <course>0.0</course>
  <speed>0.0</speed>
  <fix>3d</fix>
</trkpt>
<trkpt lat="40.0713749" lon="-105.229789">
  <ele>1583.0</ele>
  <time>2026-08-28T17:56:05Z</time>
  <course>247.78</course>
  <speed>0.0316227766016838</speed>
  <fix>3d</fix>
</trkpt>
<trkpt lat="40.0713749" lon="-105.229789">
  <ele>1583.0</ele>
  <time>2026-08-28T17:56:05Z</time>
  <course>0.0</course>
  <speed>0.0</speed>
  <fix>3d</fix>
</trkpt>
<trkpt lat="40.0713749" lon="-105.229789">
  <ele>1583.0</ele>
  <time>2026-08-28T17:56:05Z</time>
  <course>247.77</course>
  <speed>0.0316227766016838</speed>
  <fix>3d</fix>
</trkpt>
<trkpt lat="40.0713749" lon="-105.229789">
  <ele>1583.0</ele>
  <time>2026-08-28T17:56:05Z</time>
  <course>0.0</course>
  <speed>0.0</speed>
  <fix>3d</fix>
</trkpt>
<trkpt lat="40.0713749" lon="-105.229789">
  <ele>1583.0</ele>
  <time>2026-08-28T17:56:05Z</time>
  <course>247.77</course>
  <speed>0.0316227766016838</speed>
  <fix>3d</fix>
</trkpt>
<trkpt lat="40.0713749" lon="-105.229789">
  <ele>1583.0</ele>
  <time>2026-08-28T17:56:05Z</time>
  <course>0.0</course>
  <speed>0.0</speed>
  <fix>3d</fix>
</trkpt>
<trkpt lat="40.0713749" lon="-105.229789">
  <ele>1583.0</ele>
  <time>2026-08-28T17:56:05Z</time>
  <course>247.76</course>
  <speed>0.0316227766016838</speed>
  <fix>3d</fix>
</trkpt>
<trkpt lat="40.0713749" lon="-105.229789">
  <ele>1583.0</ele>
  <time>2026-08-28T17:56:05Z</time>
  <course>0.0</course>
  <speed>0.0</speed>
  <fix>3d</fix>
</trkpt>
<trkpt lat="40.0713749" lon="-105.229789">
  <ele>1583.0</ele>
  <time>2026-08-28T17:56:05Z</time>
  <course>247.76</course>
  <speed>0.0316227766016838</speed>
  <fix>3d</fix>
</trkpt>
<trkpt lat="40.0713749" lon="-105.229789">
  <ele>1583.0</ele>
  <time>2026-08-28T17:56:05Z</time>
  <course>0.0</course>
  <speed>0.0</speed>
  <fix>3d</fix>
</trkpt>
<trkpt lat="40.0713749" lon="-105.229789">
  <ele>1583.0</ele>
  <time>2026-08-28T17:56:05Z</time>
  <course>247.76</course>
  <speed>0.0316227766016838</speed>
  <fix>3d</fix>
</trkpt>
<trkpt lat="40.0713749" lon="-105.229789">
  <ele>1583.0</ele>
  <time>2026-08-28T17:56:05Z</time>
  <course>0.0</course>
  <speed>0.0</speed>
  <fix>3d</fix>
</trkpt>
<trkpt lat="40.0713749" lon="-105.229789">
  <ele>1583.0</ele>
  <time>2026-08-28T17:56:05Z</time>
  <course>247.75</course>
  <speed>0.0316227766016838</speed>
  <fix>3d</fix>
</trkpt>
<trkpt lat="40.0713749" lon="-105.229789">
  <ele>1583.0</ele>
  <time>2026-08-28T17:56:05Z</time>
  <course>0.0</course>
  <speed>0.0</speed>
  <fix>3d</fix>
</trkpt>
<trkpt lat="40.0713749" lon="-105.229789">
  <ele>1583.0</ele>
  <time>2026-08-28T17:56:05Z</time>
  <course>247.75</course>
  <speed>0.0316227766016838</speed>
  <fix>3d</fix>
</trkpt>
<trkpt lat="40.0713749" lon="-105.229789">
  <ele>1583.0</ele>
  <time>2026-08-28T17:56:05Z</time>
  <course>0.0</course>
  <speed>0.0</speed>
  <fix>3d</fix>
</trkpt>
<trkpt lat="40.0713749" lon="-105.229789">
  <ele>1583.0</ele>
  <time>2026-08-28T17:56:05Z</time>
  <course>247.75</course>
  <speed>0.0316227766016838</speed>
  <fix>3d</fix>
</trkpt>
<trkpt lat="40.0713749" lon="-105.229789">
  <ele>1583.0</ele>
  <time>2026-08-28T17:56:05Z</time>
  <course>0.0</course>
  <speed>0.0</speed>
  <fix>3d</fix>
</trkpt>
<trkpt lat="40.0713749" lon="-105.229789">
  <ele>1583.0</ele>
  <time>2026-08-28T17:56:05Z</time>
  <course>247.74</course>
  <speed>0.0316227766016838</speed>
  <fix>3d</fix>
</trkpt>
<trkpt lat="40.0713749" lon="-105.229789">
  <ele>1583.0</ele>
  <time>2026-08-28T17:56:05Z</time>
  <course>0.0</course>
  <speed>0.0</speed>
  <fix>3d</fix>
</trkpt>
<trkpt lat="40.0713749" lon="-105.229789">
  <ele>1583.0</ele>
  <time>2026-08-28T17:56:05Z</time>
  <course>247.74</course>
  <speed>0.0316227766016838</speed>
  <fix>3d</fix>
</trkpt>
<trkpt lat="40.0713749" lon="-105.229789">
  <ele>1583.0</ele>
  <time>2026-08-28T17:56:05Z</time>
  <course>0.0</course>
  <speed>0.0</speed>
  <fix>3d</fix>
</trkpt>
<trkpt lat="40.0713749" lon="-105.229789">
  <ele>1583.0</ele>
  <time>2026-08-28T17:56:05Z</time>
  <course>247.74</course>
  <speed>0.0316227766016838</speed>
  <fix>3d</fix>
</trkpt>
<trkpt lat="40.0713749" lon="-105.229789">
  <ele>1583.0</ele>
  <time>2026-08-28T17:56:05Z</time>
  <course>0.0</course>
  <speed>0.0</speed>
  <fix>3d</fix>
</trkpt>
<trkpt lat="40.0713749" lon="-105.229789">
  <ele>1583.0</ele>
  <time>2026-08-28T17:56:05Z</time>
  <course>247.73</course>
  <speed>0.0316227766016838</speed>
  <fix>3d</fix>
</trkpt>
<trkpt lat="40.0713749" lon="-105.229789">
  <ele>1583.0</ele>
  <time>2026-08-28T17:56:05Z</time>
  <course>0.0</course>
  <speed>0.0</speed>
  <fix>3d</fix>
</trkpt>
<trkpt lat="40.0713749" lon="-105.229789">
  <ele>1583.0</ele>
  <time>2026-08-28T17:56:05Z</time>
  <course>247.73</course>
  <speed>0.0316227766016838</speed>
  <fix>3d</fix>
</trkpt>
<trkpt lat="40.0713749" lon="-105.229789">
  <ele>1583.0</ele>
  <time>2026-08-28T17:56:05Z</time>
  <course>0.0</course>
  <speed>0.0</speed>
  <fix>3d</fix>
</trkpt>
<trkpt lat="40.0713749" lon="-105.229789">
  <ele>1583.0</ele>
  <time>2026-08-28T17:56:05Z</time>
  <course>247.73</course>
  <speed>0.0316227766016838</speed>
  <fix>3d</fix>
</trkpt>
<trkpt lat="40.0713749" lon="-105.229789">
  <ele>1583.0</ele>
  <time>2026-08-28T17:56:05Z</time>
  <course>0.0</course>
  <speed>0.0</speed>
  <fix>3d</fix>
</trkpt>
<trkpt lat="40.0713749" lon="-105.229789">
  <ele>1583.0</ele>
  <time>2026-08-28T17:56:05Z</time>
  <course>247.72</course>
  <speed>0.0316227766016838</speed>
  <fix>3d</fix>
</trkpt>
<trkpt lat="40.0713749" lon="-105.229789">
  <ele>1583.0</ele>
  <time>2026-08-28T17:56:05Z</time>
  <course>0.0</course>
  <speed>0.0</speed>
  <fix>3d</fix>
</trkpt>
<trkpt lat="40.0713749" lon="-105.229789">
  <ele>1583.0</ele>
  <time>2026-08-28T17:56:05Z</time>
  <course>247.72</course>
  <speed>0.0316227766016838</speed>
  <fix>3d</fix>
</trkpt>
<trkpt lat="40.0713749" lon="-105.229789">
  <ele>1583.0</ele>
  <time>2026-08-28T17:56:05Z</time>
  <course>0.0</course>
  <speed>0.0</speed>
  <fix>3d</fix>
</trkpt>
<trkpt lat="40.0713749" lon="-105.229789">
  <ele>1583.0</ele>
  <time>2026-08-28T17:56:05Z</time>
  <course>247.72</course>
  <speed>0.0316227766016838</speed>
  <fix>3d</fix>
</trkpt>
<trkpt lat="40.0713749" lon="-105.229789">
  <ele>1583.0</ele>
  <time>2026-08-28T17:56:05Z</time>
  <course>0.0</course>
  <speed>0.0</speed>
  <fix>3d</fix>
</trkpt>
<trkpt lat="40.0713749" lon="-105.229789">
  <ele>1583.0</ele>
  <time>2026-08-28T17:56:05Z</time>
  <course>247.71</course>
  <speed>0.0316227766016838</speed>
  <fix>3d</fix>
</trkpt>
<trkpt lat="40.0713749" lon="-105.229789">
  <ele>1583.0</ele>
  <time>2026-08-28T17:56:05Z</time>
  <course>0.0</course>
  <speed>0.0</speed>
  <fix>3d</fix>
</trkpt>
<trkpt lat="40.0713749" lon="-105.229789">
  <ele>1583.0</ele>
  <time>2026-08-28T17:56:05Z</time>
  <course>247.71</course>
  <speed>0.0316227766016838</speed>
  <fix>3d</fix>
</trkpt>
<trkpt lat="40.0713749" lon="-105.229789">
  <ele>1583.0</ele>
  <time>2026-08-28T17:56:05Z</time>
  <course>0.0</course>
  <speed>0.0</speed>
  <fix>3d</fix>
</trkpt>
<trkpt lat="40.0713749" lon="-105.229789">
  <ele>1583.0</ele>
  <time>2026-08-28T17:56:05Z</time>
  <course>247.71</course>
  <speed>0.0316227766016838</speed>
  <fix>3d</fix>
</trkpt>
<trkpt lat="40.0713749" lon="-105.229789">
  <ele>1583.0</ele>
  <time>2026-08-28T17:56:05Z</time>
  <course>0.0</course>
  <speed>0.0</speed>
  <fix>3d</fix>
</trkpt>
<trkpt lat="40.0713749" lon="-105.229789">
  <ele>1583.0</ele>
  <time>2026-08-28T17:56:05Z</time>
  <course>247.7</course>
  <speed>0.0316227766016838</speed>
  <fix>3d</fix>
</trkpt>
<trkpt lat="40.0713749" lon="-105.229789">
  <ele>1583.0</ele>
  <time>2026-08-28T17:56:05Z</time>
  <course>0.0</course>
  <speed>0.0</speed>
  <fix>3d</fix>
</trkpt>
<trkpt lat="40.0713749" lon="-105.229789">
  <ele>1583.0</ele>
  <time>2026-08-28T17:56:05Z</time>
  <course>247.7</course>
  <speed>0.0316227766016838</speed>
  <fix>3d</fix>
</trkpt>
<trkpt lat="40.0713749" lon="-105.229789">
  <ele>1583.0</ele>
  <time>2026-08-28T17:56:05Z</time>
  <course>0.0</course>
  <speed>0.0</speed>
  <fix>3d</fix>
</trkpt>
<trkpt lat="40.0713749" lon="-105.229789">
  <ele>1583.0</ele>
  <time>2026-08-28T17:56:05Z</time>
  <course>247.7</course>
  <speed>0.0316227766016838</speed>
  <fix>3d</fix>
</trkpt>
<trkpt lat="40.0713749" lon="-105.229789">
  <ele>1583.0</ele>
  <time>2026-08-28T17:56:05Z</time>
  <course>0.0</course>
  <speed>0.0</speed>
  <fix>3d</fix>
</trkpt>
<trkpt lat="40.0713749" lon="-105.229789">
  <ele>1583.0</ele>
  <time>2026-08-28T17:56:05Z</time>
  <course>247.69</course>
  <speed>0.0316227766016838</speed>
  <fix>3d</fix>
</trkpt>
<trkpt lat="40.0713749" lon="-105.229789">
  <ele>1583.0</ele>
  <time>2026-08-28T17:56:05Z</time>
  <course>0.0</course>
  <speed>0.0</speed>
  <fix>3d</fix>
</trkpt>
<trkpt lat="40.0713749" lon="-105.229789">
  <ele>1583.0</ele>
  <time>2026-08-28T17:56:05Z</time>
  <course>247.69</course>
  <speed>0.0316227766016838</speed>
  <fix>3d</fix>
</trkpt>
<trkpt lat="40.0713749" lon="-105.229789">
  <ele>1583.0</ele>
  <time>2026-08-28T17:56:05Z</time>
  <course>0.0</course>
  <speed>0.0</speed>
  <fix>3d</fix>
</trkpt>
<trkpt lat="40.0713749" lon="-105.229789">
  <ele>1583.0</ele>
  <time>2026-08-28T17:56:05Z</time>
  <course>247.69</course>
  <speed>0.0316227766016838</speed>
  <fix>3d</fix>
</trkpt>
<trkpt lat="40.0713749" lon="-105.229789">
  <ele>1583.0</ele>
  <time>2026-08-28T17:56:05Z</time>
  <course>0.0</course>
  <speed>0.0</speed>
  <fix>3d</fix>
</trkpt>
<trkpt lat="40.0713749" lon="-105.229789">
  <ele>1583.0</ele>
  <time>2026-08-28T17:56:05Z</time>
  <course>247.68</course>
  <speed>0.0316227766016838</speed>
  <fix>3d</fix>
</trkpt>
<trkpt lat="40.0713749" lon="-105.229789">
  <ele>1583.0</ele>
  <time>2026-08-28T17:56:05Z</time>
  <course>0.0</course>
  <speed>0.0</speed>
  <fix>3d</fix>
</trkpt>
<trkpt lat="40.0713749" lon="-105.229789">
  <ele>1583.0</ele>
  <time>2026-08-28T17:56:05Z</time>
  <course>247.68</course>
  <speed>0.0316227766016838</speed>
  <fix>3d</fix>
</trkpt>
<trkpt lat="40.0713749" lon="-105.229789">
  <ele>1583.0</ele>
  <time>2026-08-28T17:56:05Z</time>
  <course>0.0</course>
  <speed>0.0</speed>
  <fix>3d</fix>
</trkpt>
<trkpt lat="40.0713749" lon="-105.229789">
  <ele>1583.0</ele>
  <time>2026-08-28T17:56:05Z</time>
  <course>247.68</course>
  <speed>0.0316227766016838</speed>
  <fix>3d</fix>
</trkpt>
<trkpt lat="40.0713749" lon="-105.229789">
  <ele>1583.0</ele>
  <time>2026-08-28T17:56:05Z</time>
  <course>0.0</course>
  <speed>0.0</speed>
  <fix>3d</fix>
</trkpt>
<trkpt lat="40.0713749" lon="-105.229789">
  <ele>1583.0</ele>
  <time>2026-08-28T17:56:05Z</time>
  <course>247.67</course>
  <speed>0.0316227766016838</speed>
  <fix>3d</fix>
</trkpt>
<trkpt lat="40.0713749" lon="-105.229789">
  <ele>1583.0</ele>
  <time>2026-08-28T17:56:05Z</time>
  <course>0.0</course>
  <speed>0.0</speed>
  <fix>3d</fix>
</trkpt>
<trkpt lat="40.0713749" lon="-105.229789">
  <ele>1583.0</ele>
  <time>2026-08-28T17:56:05Z</time>
  <course>247.67</course>
  <speed>0.0316227766016838</speed>
  <fix>3d</fix>
</trkpt>
<trkpt lat="40.0713749" lon="-105.229789">
  <ele>1583.0</ele>
  <time>2026-08-28T17:56:05Z</time>
  <course>0.0</course>
  <speed>0.0</speed>
  <fix>3d</fix>
</trkpt>
<trkpt lat="40.0713749" lon="-105.229789">
  <ele>1583.0</ele>
  <time>2026-08-28T17:56:05Z</time>
  <course>247.67</course>
  <speed>0.0316227766016838</speed>
  <fix>3d</fix>
</trkpt>
<trkpt lat="40.0713749" lon="-105.229789">
  <ele>1583.0</ele>
  <time>2026-08-28T17:56:05Z</time>
  <course>0.0</course>
  <speed>0.0</speed>
  <fix>3d</fix>
</trkpt>
<trkpt lat="40.0713749" lon="-105.229789">
  <ele>1583.0</ele>
  <time>2026-08-28T17:56:05Z</time>
  <course>247.66</course>
  <speed>0.0316227766016838</speed>
  <fix>3d</fix>
</trkpt>
<trkpt lat="40.0713749" lon="-105.229789">
  <ele>1583.0</ele>
  <time>2026-08-28T17:56:05Z</time>
  <course>0.0</course>
  <speed>0.0</speed>
  <fix>3d</fix>
</trkpt>
<trkpt lat="40.0713749" lon="-105.229789">
  <ele>1583.0</ele>
  <time>2026-08-28T17:56:05Z</time>
  <course>247.66</course>
  <speed>0.0316227766016838</speed>
  <fix>3d</fix>
</trkpt>
<trkpt lat="40.0713749" lon="-105.229789">
  <ele>1583.0</ele>
  <time>2026-08-28T17:56:05Z</time>
  <course>0.0</course>
  <speed>0.0</speed>
  <fix>3d</fix>
</trkpt>
<trkpt lat="40.0713749" lon="-105.229789">
  <ele>1583.0</ele>
  <time>2026-08-28T17:56:05Z</time>
  <course>247.66</course>
  <speed>0.0316227766016838</speed>
  <fix>3d</fix>
</trkpt>
<trkpt lat="40.0713749" lon="-105.229789">
  <ele>1583.0</ele>
  <time>2026-08-28T17:56:05Z</time>
  <course>0.0</course>
  <speed>0.0</speed>
  <fix>3d</fix>
</trkpt>
<trkpt lat="40.0713749" lon="-105.229789">
  <ele>1583.0</ele>
  <time>2026-08-28T17:56:05Z</time>
  <course>247.65</course>
  <speed>0.0316227766016838</speed>
  <fix>3d</fix>
</trkpt>
<trkpt lat="40.0713749" lon="-105.229789">
  <ele>1583.0</ele>
  <time>2026-08-28T17:56:05Z</time>
  <course>0.0</course>
  <speed>0.0</speed>
  <fix>3d</fix>
</trkpt>
<trkpt lat="40.0713749" lon="-105.229789">
  <ele>1583.0</ele>
  <time>2026-08-28T17:56:05Z</time>
  <course>247.65</course>
  <speed>0.0316227766016838</speed>
  <fix>3d</fix>
</trkpt>
<trkpt lat="40.0713749" lon="-105.229789">
  <ele>1583.0</ele>
  <time>2026-08-28T17:56:05Z</time>
  <course>0.0</course>
  <speed>0.0</speed>
  <fix>3d</fix>
</trkpt>
<trkpt lat="40.0713749" lon="-105.229789">
  <ele>1583.0</ele>
  <time>2026-08-28T17:56:05Z</time>
  <course>247.65</course>
  <speed>0.0316227766016838</speed>
  <fix>3d</fix>
</trkpt>
<trkpt lat="40.0713749" lon="-105.229789">
  <ele>1583.0</ele>
  <time>2026-08-28T17:56:05Z</time>
  <course>0.0</course>
  <speed>0.0</speed>
  <fix>3d</fix>
</trkpt>
<trkpt lat="40.0713749" lon="-105.229789">
  <ele>1583.0</ele>
  <time>2026-08-28T17:56:05Z</time>
  <course>247.64</course>
  <speed>0.0316227766016838</speed>
  <fix>3d</fix>
</trkpt>
<trkpt lat="40.0713749" lon="-105.229789">
  <ele>1583.0</ele>
  <time>2026-08-28T17:56:05Z</time>
  <course>0.0</course>
  <speed>0.0</speed>
  <fix>3d</fix>
</trkpt>
<trkpt lat="40.0713749" lon="-105.229789">
  <ele>1583.0</ele>
  <time>2026-08-28T17:56:05Z</time>
  <course>247.64</course>
  <speed>0.0316227766016838</speed>
  <fix>3d</fix>
</trkpt>
<trkpt lat="40.0713749" lon="-105.229789">
  <ele>1583.0</ele>
  <time>2026-08-28T17:56:05Z</time>
  <course>0.0</course>
  <speed>0.0</speed>
  <fix>3d</fix>
</trkpt>
<trkpt lat="40.0713749" lon="-105.229789">
  <ele>1583.0</ele>
  <time>2026-08-28T17:56:05Z</time>
  <course>247.64</course>
  <speed>0.0316227766016838</speed>
  <fix>3d</fix>
</trkpt>
<trkpt lat="40.0713749" lon="-105.229789">
  <ele>1583.0</ele>
  <time>2026-08-28T17:56:05Z</time>
  <course>0.0</course>
  <speed>0.0</speed>
  <fix>3d</fix>
</trkpt>
<trkpt lat="40.0713749" lon="-105.229789">
  <ele>1583.0</ele>
  <time>2026-08-28T17:56:05Z</time>
  <course>247.64</course>
  <speed>0.0316227766016838</speed>
  <fix>3d</fix>
</trkpt>
<trkpt lat="40.0713749" lon="-105.229789">
  <ele>1583.0</ele>
  <time>2026-08-28T17:56:05Z</time>
  <course>0.0</course>
  <speed>0.0</speed>
  <fix>3d</fix>
</trkpt>
<trkpt lat="40.0713749" lon="-105.229789">
  <ele>1583.0</ele>
  <time>2026-08-28T17:56:05Z</time>
  <course>247.63</course>
  <speed>0.0316227766016838</speed>
  <fix>3d</fix>
</trkpt>
<trkpt lat="40.0713749" lon="-105.229789">
  <ele>1583.0</ele>
  <time>2026-08-28T17:56:05Z</time>
  <course>0.0</course>
  <speed>0.0</speed>
  <fix>3d</fix>
</trkpt>
<trkpt lat="40.0713749" lon="-105.229789">
  <ele>1583.0</ele>
  <time>2026-08-28T17:56:05Z</time>
  <course>247.63</course>
  <speed>0.0316227766016838</speed>
  <fix>3d</fix>
</trkpt>
<trkpt lat="40.0713749" lon="-105.229789">
  <ele>1583.0</ele>
  <time>2026-08-28T17:56:05Z</time>
  <course>0.0</course>
  <speed>0.0</speed>
  <fix>3d</fix>
</trkpt>
<trkpt lat="40.0713749" lon="-105.229789">
  <ele>1583.0</ele>
  <time>2026-08-28T17:56:05Z</time>
  <course>247.63</course>
  <speed>0.0316227766016838</speed>
  <fix>3d</fix>
</trkpt>
<trkpt lat="40.0713749" lon="-105.229789">
  <ele>1583.0</ele>
  <time>2026-08-28T17:56:05Z</time>
  <course>0.0</course>
  <speed>0.0</speed>
  <fix>3d</fix>
</trkpt>
<trkpt lat="40.0713749" lon="-105.229789">
  <ele>1583.0</ele>
  <time>2026-08-28T17:56:05Z</time>
  <course>247.62</course>
  <speed>0.0316227766016838</speed>
  <fix>3d</fix>
</trkpt>
<trkpt lat="40.0713749" lon="-105.229789">
  <ele>1583.0</ele>
  <time>2026-08-28T17:56:05Z</time>
  <course>0.0</course>
  <speed>0.0</speed>
  <fix>3d</fix>
</trkpt>
<trkpt lat="40.0713749" lon="-105.229789">
  <ele>1583.0</ele>
  <time>2026-08-28T17:56:05Z</time>
  <course>247.62</course>
  <speed>0.0316227766016838</speed>
  <fix>3d</fix>
</trkpt>
<trkpt lat="40.0713749" lon="-105.229789">
  <ele>1583.0</ele>
  <time>2026-08-28T17:56:05Z</time>
  <course>0.0</course>
  <speed>0.0</speed>
  <fix>3d</fix>
</trkpt>
<trkpt lat="40.0713749" lon="-105.229789">
  <ele>1583.0</ele>
  <time>2026-08-28T17:56:05Z</time>
  <course>247.62</course>
  <speed>0.0316227766016838</speed>
  <fix>3d</fix>
</trkpt>
<trkpt lat="40.0713749" lon="-105.229789">
  <ele>1583.0</ele>
  <time>2026-08-28T17:56:05Z</time>
  <course>0.0</course>
  <speed>0.0</speed>
  <fix>3d</fix>
</trkpt>
<trkpt lat="40.0713749" lon="-105.229789">
  <ele>1583.0</ele>
  <time>2026-08-28T17:56:05Z</time>
  <course>247.61</course>
  <speed>0.0316227766016838</speed>
  <fix>3d</fix>
</trkpt>
<trkpt lat="40.0713749" lon="-105.229789">
  <ele>1583.0</ele>
  <time>2026-08-28T17:56:05Z</time>
  <course>0.0</course>
  <speed>0.0</speed>
  <fix>3d</fix>
</trkpt>
<trkpt lat="40.0713749" lon="-105.229789">
  <ele>1583.0</ele>
  <time>2026-08-28T17:56:05Z</time>
  <course>247.61</course>
  <speed>0.0316227766016838</speed>
  <fix>3d</fix>
</trkpt>
<trkpt lat="40.0713749" lon="-105.229789">
  <ele>1583.0</ele>
  <time>2026-08-28T17:56:05Z</time>
  <course>0.0</course>
  <speed>0.0</speed>
  <fix>3d</fix>
</trkpt>
<trkpt lat="40.0713749" lon="-105.229789">
  <ele>1583.0</ele>
  <time>2026-08-28T17:56:05Z</time>
  <course>247.61</course>
  <speed>0.0316227766016838</speed>
  <fix>3d</fix>
</trkpt>
<trkpt lat="40.0713749" lon="-105.229789">
  <ele>1583.0</ele>
  <time>2026-08-28T17:56:05Z</time>
  <course>0.0</course>
  <speed>0.0</speed>
  <fix>3d</fix>
</trkpt>
<trkpt lat="40.0713749" lon="-105.229789">
  <ele>1583.0</ele>
  <time>2026-08-28T17:56:05Z</time>
  <course>247.61</course>
  <speed>0.0316227766016838</speed>
  <fix>3d</fix>
</trkpt>
<trkpt lat="40.0713749" lon="-105.229789">
  <ele>1583.0</ele>
  <time>2026-08-28T17:56:05Z</time>
  <course>0.0</course>
  <speed>0.0</speed>
  <fix>3d</fix>
</trkpt>
<trkpt lat="40.0713749" lon="-105.229789">
  <ele>1583.0</ele>
  <time>2026-08-28T17:56:05Z</time>
  <course>247.6</course>
  <speed>0.0316227766016838</speed>
  <fix>3d</fix>
</trkpt>
<trkpt lat="40.0713749" lon="-105.229789">
  <ele>1583.0</ele>
  <time>2026-08-28T17:56:05Z</time>
  <course>0.0</course>
  <speed>0.0</speed>
  <fix>3d</fix>
</trkpt>
<trkpt lat="40.0713749" lon="-105.229789">
  <ele>1583.0</ele>
  <time>2026-08-28T17:56:05Z</time>
  <course>247.6</course>
  <speed>0.0316227766016838</speed>
  <fix>3d</fix>
</trkpt>
<trkpt lat="40.0713749" lon="-105.229789">
  <ele>1583.0</ele>
  <time>2026-08-28T17:56:05Z</time>
  <course>0.0</course>
  <speed>0.0</speed>
  <fix>3d</fix>
</trkpt>
<trkpt lat="40.0713749" lon="-105.229789">
  <ele>1583.0</ele>
  <time>2026-08-28T17:56:05Z</time>
  <course>247.6</course>
  <speed>0.0316227766016838</speed>
  <fix>3d</fix>
</trkpt>
<trkpt lat="40.0713749" lon="-105.229789">
  <ele>1583.0</ele>
  <time>2026-08-28T17:56:05Z</time>
  <course>0.0</course>
  <speed>0.0</speed>
  <fix>3d</fix>
</trkpt>
<trkpt lat="40.0713749" lon="-105.229789">
  <ele>1583.0</ele>
  <time>2026-08-28T17:56:05Z</time>
  <course>247.6</course>
  <speed>0.0316227766016838</speed>
  <fix>3d</fix>
</trkpt>
<trkpt lat="40.0713749" lon="-105.229789">
  <ele>1583.0</ele>
  <time>2026-08-28T17:56:05Z</time>
  <course>0.0</course>
  <speed>0.0</speed>
  <fix>3d</fix>
</trkpt>
<trkpt lat="40.0713749" lon="-105.229789">
  <ele>1583.0</ele>
  <time>2026-08-28T17:56:05Z</time>
  <course>247.59</course>
  <speed>0.0316227766016838</speed>
  <fix>3d</fix>
</trkpt>
<trkpt lat="40.0713749" lon="-105.229789">
  <ele>1583.0</ele>
  <time>2026-08-28T17:56:05Z</time>
  <course>0.0</course>
  <speed>0.0</speed>
  <fix>3d</fix>
</trkpt>
<trkpt lat="40.0713749" lon="-105.229789">
  <ele>1582.92</ele>
  <time>2026-08-28T17:56:05Z</time>
  <course>247.59</course>
  <speed>0.0</speed>
  <fix>3d</fix>
</trkpt>
<trkpt lat="40.0713749" lon="-105.229789">
  <ele>1583.0</ele>
  <time>2026-08-28T17:56:05Z</time>
  <course>0.0</course>
  <speed>0.0</speed>
  <fix>3d</fix>
</trkpt>
<trkpt lat="40.0713749" lon="-105.229789">
  <ele>1582.92</ele>
  <time>2026-08-28T17:56:05Z</time>
  <course>247.59</course>
  <speed>0.0</speed>
  <fix>3d</fix>
</trkpt>
<trkpt lat="40.0713749" lon="-105.229789">
  <ele>1583.0</ele>
  <time>2026-08-28T17:56:05Z</time>
  <course>0.0</course>
  <speed>0.0</speed>
  <fix>3d</fix>
</trkpt>
<trkpt lat="40.0713749" lon="-105.229789">
  <ele>1582.91</ele>
  <time>2026-08-28T17:56:05Z</time>
  <course>247.58</course>
  <speed>0.0</speed>
  <fix>3d</fix>
</trkpt>
<trkpt lat="40.0713749" lon="-105.229789">
  <ele>1583.0</ele>
  <time>2026-08-28T17:56:05Z</time>
  <course>0.0</course>
  <speed>0.0</speed>
  <fix>3d</fix>
</trkpt>
<trkpt lat="40.0713749" lon="-105.229789">
  <ele>1582.91</ele>
  <time>2026-08-28T17:56:05Z</time>
  <course>247.58</course>
  <speed>0.0</speed>
  <fix>3d</fix>
</trkpt>
<trkpt lat="40.0713749" lon="-105.229789">
  <ele>1583.0</ele>
  <time>2026-08-28T17:56:05Z</time>
  <course>0.0</course>
  <speed>0.0</speed>
  <fix>3d</fix>
</trkpt>
<trkpt lat="40.0713749" lon="-105.229789">
  <ele>1582.9</ele>
  <time>2026-08-28T17:56:05Z</time>
  <course>247.58</course>
  <speed>0.0</speed>
  <fix>3d</fix>
</trkpt>
<trkpt lat="40.0713749" lon="-105.229789">
  <ele>1583.0</ele>
  <time>2026-08-28T17:56:05Z</time>
  <course>0.0</course>
  <speed>0.0</speed>
  <fix>3d</fix>
</trkpt>
<trkpt lat="40.0713749" lon="-105.229789">
  <ele>1582.9</ele>
  <time>2026-08-28T17:56:05Z</time>
  <course>247.58</course>
  <speed>0.0</speed>
  <fix>3d</fix>
</trkpt>
<trkpt lat="40.0713749" lon="-105.229789">
  <ele>1583.0</ele>
  <time>2026-08-28T17:56:05Z</time>
  <course>0.0</course>
  <speed>0.0</speed>
  <fix>3d</fix>
</trkpt>
<trkpt lat="40.0713749" lon="-105.229789">
  <ele>1582.9</ele>
  <time>2026-08-28T17:56:05Z</time>
  <course>247.57</course>
  <speed>0.0</speed>
  <fix>3d</fix>
</trkpt>
<trkpt lat="40.0713749" lon="-105.229789">
  <ele>1583.0</ele>
  <time>2026-08-28T17:56:05Z</time>
  <course>0.0</course>
  <speed>0.0</speed>
  <fix>3d</fix>
</trkpt>
<trkpt lat="40.0713749" lon="-105.229789">
  <ele>1582.9</ele>
  <time>2026-08-28T17:56:05Z</time>
  <course>247.57</course>
  <speed>0.0</speed>
  <fix>3d</fix>
</trkpt>
<trkpt lat="40.0713749" lon="-105.229789">
  <ele>1583.0</ele>
  <time>2026-08-28T17:56:05Z</time>
  <course>0.0</course>
  <speed>0.0</speed>
  <fix>3d</fix>
</trkpt>
<trkpt lat="40.0713749" lon="-105.229789">
  <ele>1582.9</ele>
  <time>2026-08-28T17:56:05Z</time>
  <course>247.57</course>
  <speed>0.0</speed>
  <fix>3d</fix>
</trkpt>
<trkpt lat="40.0713749" lon="-105.229789">
  <ele>1583.0</ele>
  <time>2026-08-28T17:56:05Z</time>
  <course>0.0</course>
  <speed>0.0</speed>
  <fix>3d</fix>
</trkpt>
<trkpt lat="40.0713749" lon="-105.229789">
  <ele>1582.9</ele>
  <time>2026-08-28T17:56:05Z</time>
  <course>247.57</course>
  <speed>0.01</speed>
  <fix>3d</fix>
</trkpt>
<trkpt lat="40.0713749" lon="-105.229789">
  <ele>1583.0</ele>
  <time>2026-08-28T17:56:05Z</time>
  <course>0.0</course>
  <speed>0.0</speed>
  <fix>3d</fix>
</trkpt>
<trkpt lat="40.0713749" lon="-105.229789">
  <ele>1582.91</ele>
  <time>2026-08-28T17:56:05Z</time>
  <course>247.56</course>
  <speed>0.01</speed>
  <fix>3d</fix>
</trkpt>
<trkpt lat="40.0713749" lon="-105.229789">
  <ele>1583.0</ele>
  <time>2026-08-28T17:56:05Z</time>
  <course>0.0</course>
  <speed>0.0</speed>
  <fix>3d</fix>
</trkpt>
<trkpt lat="40.0713749" lon="-105.229789">
  <ele>1582.91</ele>
  <time>2026-08-28T17:56:05Z</time>
  <course>247.56</course>
  <speed>0.01</speed>
  <fix>3d</fix>
</trkpt>
<trkpt lat="40.0713749" lon="-105.229789">
  <ele>1583.0</ele>
  <time>2026-08-28T17:56:05Z</time>
  <course>0.0</course>
  <speed>0.0</speed>
  <fix>3d</fix>
</trkpt>
<trkpt lat="40.0713749" lon="-105.229789">
  <ele>1582.91</ele>
  <time>2026-08-28T17:56:05Z</time>
  <course>247.56</course>
  <speed>0.01</speed>
  <fix>3d</fix>
</trkpt>
<trkpt lat="40.0713749" lon="-105.229789">
  <ele>1583.0</ele>
  <time>2026-08-28T17:56:05Z</time>
  <course>0.0</course>
  <speed>0.0</speed>
  <fix>3d</fix>
</trkpt>
<trkpt lat="40.0713749" lon="-105.229789">
  <ele>1582.92</ele>
  <time>2026-08-28T17:56:05Z</time>
  <course>247.56</course>
  <speed>0.01</speed>
  <fix>3d</fix>
</trkpt>
<trkpt lat="40.0713749" lon="-105.229789">
  <ele>1583.0</ele>
  <time>2026-08-28T17:56:05Z</time>
  <course>0.0</course>
  <speed>0.0</speed>
  <fix>3d</fix>
</trkpt>
<trkpt lat="40.0713749" lon="-105.229789">
  <ele>1582.92</ele>
  <time>2026-08-28T17:56:05Z</time>
  <course>247.55</course>
  <speed>0.01</speed>
  <fix>3d</fix>
</trkpt>
<trkpt lat="40.0713749" lon="-105.229789">
  <ele>1583.0</ele>
  <time>2026-08-28T17:56:05Z</time>
  <course>0.0</course>
  <speed>0.0</speed>
  <fix>3d</fix>
</trkpt>
<trkpt lat="40.0713749" lon="-105.229789">
  <ele>1582.92</ele>
  <time>2026-08-28T17:56:05Z</time>
  <course>247.55</course>
  <speed>0.01</speed>
  <fix>3d</fix>
</trkpt>
<trkpt lat="40.0713749" lon="-105.229789">
  <ele>1583.0</ele>
  <time>2026-08-28T17:56:05Z</time>
  <course>0.0</course>
  <speed>0.0</speed>
  <fix>3d</fix>
</trkpt>
<trkpt lat="40.0713749" lon="-105.229789">
  <ele>1582.93</ele>
  <time>2026-08-28T17:56:05Z</time>
  <course>247.55</course>
  <speed>0.01</speed>
  <fix>3d</fix>
</trkpt>
<trkpt lat="40.0713749" lon="-105.229789">
  <ele>1583.0</ele>
  <time>2026-08-28T17:56:05Z</time>
  <course>0.0</course>
  <speed>0.0</speed>
  <fix>3d</fix>
</trkpt>
<trkpt lat="40.0713749" lon="-105.229789">
  <ele>1582.93</ele>
  <time>2026-08-28T17:56:05Z</time>
  <course>247.55</course>
  <speed>0.02</speed>
  <fix>3d</fix>
</trkpt>
<trkpt lat="40.0713749" lon="-105.229789">
  <ele>1583.0</ele>
  <time>2026-08-28T17:56:05Z</time>
  <course>0.0</course>
  <speed>0.0</speed>
  <fix>3d</fix>
</trkpt>
<trkpt lat="40.0713749" lon="-105.229789">
  <ele>1582.93</ele>
  <time>2026-08-28T17:56:05Z</time>
  <course>247.54</course>
  <speed>0.02</speed>
  <fix>3d</fix>
</trkpt>
<trkpt lat="40.0713749" lon="-105.229789">
  <ele>1583.0</ele>
  <time>2026-08-28T17:56:05Z</time>
  <course>0.0</course>
  <speed>0.0</speed>
  <fix>3d</fix>
</trkpt>
<trkpt lat="40.0713749" lon="-105.229789">
  <ele>1582.93</ele>
  <time>2026-08-28T17:56:05Z</time>
  <course>247.54</course>
  <speed>0.02</speed>
  <fix>3d</fix>
</trkpt>
<trkpt lat="40.0713749" lon="-105.229789">
  <ele>1583.0</ele>
  <time>2026-08-28T17:56:05Z</time>
  <course>0.0</course>
  <speed>0.0</speed>
  <fix>3d</fix>
</trkpt>
<trkpt lat="40.0713749" lon="-105.229789">
  <ele>1582.93</ele>
  <time>2026-08-28T17:56:05Z</time>
  <course>247.54</course>
  <speed>0.02</speed>
  <fix>3d</fix>
</trkpt>
<trkpt lat="40.0713749" lon="-105.229789">
  <ele>1583.0</ele>
  <time>2026-08-28T17:56:05Z</time>
  <course>0.0</course>
  <speed>0.0</speed>
  <fix>3d</fix>
</trkpt>
<trkpt lat="40.0713749" lon="-105.229789">
  <ele>1582.93</ele>
  <time>2026-08-28T17:56:05Z</time>
  <course>247.54</course>
  <speed>0.022360679774997897</speed>
  <fix>3d</fix>
</trkpt>
<trkpt lat="40.0713749" lon="-105.229789">
  <ele>1583.0</ele>
  <time>2026-08-28T17:56:05Z</time>
  <course>0.0</course>
  <speed>0.0</speed>
  <fix>3d</fix>
</trkpt>
<trkpt lat="40.0713749" lon="-105.229789">
  <ele>1582.94</ele>
  <time>2026-08-28T17:56:05Z</time>
  <course>247.53</course>
  <speed>0.022360679774997897</speed>
  <fix>3d</fix>
</trkpt>
<trkpt lat="40.0713749" lon="-105.229789">
  <ele>1583.0</ele>
  <time>2026-08-28T17:56:05Z</time>
  <course>0.0</course>
  <speed>0.0</speed>
  <fix>3d</fix>
</trkpt>
<trkpt lat="40.0713749" lon="-105.229789">
  <ele>1582.94</ele>
  <time>2026-08-28T17:56:05Z</time>
  <course>247.53</course>
  <speed>0.022360679774997897</speed>
  <fix>3d</fix>
</trkpt>
<trkpt lat="40.0713749" lon="-105.229789">
  <ele>1583.0</ele>
  <time>2026-08-28T17:56:05Z</time>
  <course>0.0</course>
  <speed>0.0</speed>
  <fix>3d</fix>
</trkpt>
<trkpt lat="40.071375" lon="-105.229789">
  <ele>1582.94</ele>
  <time>2026-08-28T17:56:05Z</time>
  <course>247.53</course>
  <speed>0.022360679774997897</speed>
  <fix>3d</fix>
</trkpt>
<trkpt lat="40.0713749" lon="-105.229789">
  <ele>1583.0</ele>
  <time>2026-08-28T17:56:05Z</time>
  <course>0.0</course>
  <speed>0.0</speed>
  <fix>3d</fix>
</trkpt>
<trkpt lat="40.071375" lon="-105.229789">
  <ele>1582.95</ele>
  <time>2026-08-28T17:56:05Z</time>
  <course>247.53</course>
  <speed>0.022360679774997897</speed>
  <fix>3d</fix>
</trkpt>
<trkpt lat="40.0713749" lon="-105.229789">
  <ele>1583.0</ele>
  <time>2026-08-28T17:56:05Z</time>
  <course>0.0</course>
  <speed>0.0</speed>
  <fix>3d</fix>
</trkpt>
<trkpt lat="40.071375" lon="-105.229789">
  <ele>1582.95</ele>
  <time>2026-08-28T17:56:05Z</time>
  <course>247.53</course>
  <speed>0.022360679774997897</speed>
  <fix>3d</fix>
</trkpt>
<trkpt lat="40.0713749" lon="-105.229789">
  <ele>1583.0</ele>
  <time>2026-08-28T17:56:05Z</time>
  <course>0.0</course>
  <speed>0.0</speed>
  <fix>3d</fix>
</trkpt>
<trkpt lat="40.071375" lon="-105.229789">
  <ele>1582.95</ele>
  <time>2026-08-28T17:56:05Z</time>
  <course>247.52</course>
  <speed>0.022360679774997897</speed>
  <fix>3d</fix>
</trkpt>
<trkpt lat="40.0713749" lon="-105.229789">
  <ele>1583.0</ele>
  <time>2026-08-28T17:56:05Z</time>
  <course>0.0</course>
  <speed>0.0</speed>
  <fix>3d</fix>
</trkpt>
<trkpt lat="40.071375" lon="-105.229789">
  <ele>1582.95</ele>
  <time>2026-08-28T17:56:05Z</time>
  <course>247.52</course>
  <speed>0.022360679774997897</speed>
  <fix>3d</fix>
</trkpt>
<trkpt lat="40.0713749" lon="-105.229789">
  <ele>1583.0</ele>
  <time>2026-08-28T17:56:05Z</time>
  <course>0.0</course>
  <speed>0.0</speed>
  <fix>3d</fix>
</trkpt>
<trkpt lat="40.071375" lon="-105.229789">
  <ele>1582.95</ele>
  <time>2026-08-28T17:56:05Z</time>
  <course>247.52</course>
  <speed>0.022360679774997897</speed>
  <fix>3d</fix>
</trkpt>
<trkpt lat="40.0713749" lon="-105.229789">
  <ele>1583.0</ele>
  <time>2026-08-28T17:56:05Z</time>
  <course>0.0</course>
  <speed>0.0</speed>
  <fix>3d</fix>
</trkpt>
<trkpt lat="40.071375" lon="-105.229789">
  <ele>1582.95</ele>
  <time>2026-08-28T17:56:05Z</time>
  <course>247.52</course>
  <speed>0.022360679774997897</speed>
  <fix>3d</fix>
</trkpt>
<trkpt lat="40.0713749" lon="-105.229789">
  <ele>1583.0</ele>
  <time>2026-08-28T17:56:05Z</time>
  <course>0.0</course>
  <speed>0.0</speed>
  <fix>3d</fix>
</trkpt>
<trkpt lat="40.071375" lon="-105.229789">
  <ele>1582.95</ele>
  <time>2026-08-28T17:56:05Z</time>
  <course>247.51</course>
  <speed>0.0316227766016838</speed>
  <fix>3d</fix>
</trkpt>
<trkpt lat="40.0713749" lon="-105.229789">
  <ele>1583.0</ele>
  <time>2026-08-28T17:56:05Z</time>
  <course>0.0</course>
  <speed>0.0</speed>
  <fix>3d</fix>
</trkpt>
<trkpt lat="40.071375" lon="-105.2297889">
  <ele>1582.95</ele>
  <time>2026-08-28T17:56:05Z</time>
  <course>247.5</course>
  <speed>0.0316227766016838</speed>
  <fix>3d</fix>
</trkpt>
<trkpt lat="40.0713749" lon="-105.229789">
  <ele>1583.0</ele>
  <time>2026-08-28T17:56:05Z</time>
  <course>0.0</course>
  <speed>0.0</speed>
  <fix>3d</fix>
</trkpt>
<trkpt lat="40.071375" lon="-105.2297889">
  <ele>1582.95</ele>
  <time>2026-08-28T17:56:06Z</time>
  <course>247.5</course>
  <speed>0.0316227766016838</speed>
  <fix>3d</fix>
</trkpt>
<trkpt lat="40.0713749" lon="-105.229789">
  <ele>1583.0</ele>
  <time>2026-08-28T17:56:06Z</time>
  <course>0.0</course>
  <speed>0.0</speed>
  <fix>3d</fix>
</trkpt>
<trkpt lat="40.0713751" lon="-105.2297889">
  <ele>1582.95</ele>
  <time>2026-08-28T17:56:06Z</time>
  <course>247.5</course>
  <speed>0.0316227766016838</speed>
  <fix>3d</fix>
</trkpt>
<trkpt lat="40.0713749" lon="-105.229789">
  <ele>1583.0</ele>
  <time>2026-08-28T17:56:06Z</time>
  <course>0.0</course>
  <speed>0.0</speed>
  <fix>3d</fix>
</trkpt>
<trkpt lat="40.0713751" lon="-105.2297889">
  <ele>1582.96</ele>
  <time>2026-08-28T17:56:06Z</time>
  <course>247.49</course>
  <speed>0.0316227766016838</speed>
  <fix>3d</fix>
</trkpt>
<trkpt lat="40.0713749" lon="-105.229789">
  <ele>1583.0</ele>
  <time>2026-08-28T17:56:06Z</time>
  <course>0.0</course>
  <speed>0.0</speed>
  <fix>3d</fix>
</trkpt>
<trkpt lat="40.0713751" lon="-105.2297889">
  <ele>1582.96</ele>
  <time>2026-08-28T17:56:06Z</time>
  <course>247.49</course>
  <speed>0.0316227766016838</speed>
  <fix>3d</fix>
</trkpt>
<trkpt lat="40.0713749" lon="-105.229789">
  <ele>1583.0</ele>
  <time>2026-08-28T17:56:06Z</time>
  <course>0.0</course>
  <speed>0.0</speed>
  <fix>3d</fix>
</trkpt>
<trkpt lat="40.0713751" lon="-105.2297889">
  <ele>1582.97</ele>
  <time>2026-08-28T17:56:06Z</time>
  <course>247.49</course>
  <speed>0.0316227766016838</speed>
  <fix>3d</fix>
</trkpt>
<trkpt lat="40.0713749" lon="-105.229789">
  <ele>1583.0</ele>
  <time>2026-08-28T17:56:06Z</time>
  <course>0.0</course>
  <speed>0.0</speed>
  <fix>3d</fix>
</trkpt>
<trkpt lat="40.0713751" lon="-105.2297889">
  <ele>1582.98</ele>
  <time>2026-08-28T17:56:06Z</time>
  <course>247.49</course>
  <speed>0.0316227766016838</speed>
  <fix>3d</fix>
</trkpt>
<trkpt lat="40.0713749" lon="-105.229789">
  <ele>1583.0</ele>
  <time>2026-08-28T17:56:06Z</time>
  <course>0.0</course>
  <speed>0.0</speed>
  <fix>3d</fix>
</trkpt>
<trkpt lat="40.0713751" lon="-105.2297889">
  <ele>1582.98</ele>
  <time>2026-08-28T17:56:06Z</time>
  <course>247.49</course>
  <speed>0.0316227766016838</speed>
  <fix>3d</fix>
</trkpt>
<trkpt lat="40.0713749" lon="-105.229789">
  <ele>1583.0</ele>
  <time>2026-08-28T17:56:06Z</time>
  <course>0.0</course>
  <speed>0.0</speed>
  <fix>3d</fix>
</trkpt>
<trkpt lat="40.0713751" lon="-105.2297889">
  <ele>1582.99</ele>
  <time>2026-08-28T17:56:06Z</time>
  <course>247.48</course>
  <speed>0.0316227766016838</speed>
  <fix>3d</fix>
</trkpt>
<trkpt lat="40.0713749" lon="-105.229789">
  <ele>1583.0</ele>
  <time>2026-08-28T17:56:06Z</time>
  <course>0.0</course>
  <speed>0.0</speed>
  <fix>3d</fix>
</trkpt>
<trkpt lat="40.0713751" lon="-105.2297889">
  <ele>1583.0</ele>
  <time>2026-08-28T17:56:06Z</time>
  <course>247.48</course>
  <speed>0.022360679774997897</speed>
  <fix>3d</fix>
</trkpt>
<trkpt lat="40.0713749" lon="-105.229789">
  <ele>1583.0</ele>
  <time>2026-08-28T17:56:06Z</time>
  <course>0.0</course>
  <speed>0.0</speed>
  <fix>3d</fix>
</trkpt>
<trkpt lat="40.0713751" lon="-105.2297889">
  <ele>1583.01</ele>
  <time>2026-08-28T17:56:06Z</time>
  <course>247.48</course>
  <speed>0.022360679774997897</speed>
  <fix>3d</fix>
</trkpt>
<trkpt lat="40.0713749" lon="-105.229789">
  <ele>1583.0</ele>
  <time>2026-08-28T17:56:06Z</time>
  <course>0.0</course>
  <speed>0.0</speed>
  <fix>3d</fix>
</trkpt>
<trkpt lat="40.0713751" lon="-105.2297889">
  <ele>1583.01</ele>
  <time>2026-08-28T17:56:06Z</time>
  <course>247.48</course>
  <speed>0.022360679774997897</speed>
  <fix>3d</fix>
</trkpt>
<trkpt lat="40.0713749" lon="-105.229789">
  <ele>1583.0</ele>
  <time>2026-08-28T17:56:06Z</time>
  <course>0.0</course>
  <speed>0.0</speed>
  <fix>3d</fix>
</trkpt>
<trkpt lat="40.0713751" lon="-105.2297889">
  <ele>1583.01</ele>
  <time>2026-08-28T17:56:06Z</time>
  <course>247.47</course>
  <speed>0.022360679774997897</speed>
  <fix>3d</fix>
</trkpt>
<trkpt lat="40.0713749" lon="-105.229789">
  <ele>1583.0</ele>
  <time>2026-08-28T17:56:06Z</time>
  <course>0.0</course>
  <speed>0.0</speed>
  <fix>3d</fix>
</trkpt>
<trkpt lat="40.0713751" lon="-105.2297889">
  <ele>1583.01</ele>
  <time>2026-08-28T17:56:06Z</time>
  <course>247.47</course>
  <speed>0.022360679774997897</speed>
  <fix>3d</fix>
</trkpt>
<trkpt lat="40.0713749" lon="-105.229789">
  <ele>1583.0</ele>
  <time>2026-08-28T17:56:06Z</time>
  <course>0.0</course>
  <speed>0.0</speed>
  <fix>3d</fix>
</trkpt>
<trkpt lat="40.0713751" lon="-105.2297889">
  <ele>1583.01</ele>
  <time>2026-08-28T17:56:06Z</time>
  <course>247.47</course>
  <speed>0.022360679774997897</speed>
  <fix>3d</fix>
</trkpt>
<trkpt lat="40.0713749" lon="-105.229789">
  <ele>1583.0</ele>
  <time>2026-08-28T17:56:06Z</time>
  <course>0.0</course>
  <speed>0.0</speed>
  <fix>3d</fix>
</trkpt>
<trkpt lat="40.071375" lon="-105.2297889">
  <ele>1583.0</ele>
  <time>2026-08-28T17:56:06Z</time>
  <course>247.47</course>
  <speed>0.022360679774997897</speed>
  <fix>3d</fix>
</trkpt>
<trkpt lat="40.0713749" lon="-105.229789">
  <ele>1583.0</ele>
  <time>2026-08-28T17:56:06Z</time>
  <course>0.0</course>
  <speed>0.0</speed>
  <fix>3d</fix>
</trkpt>
<trkpt lat="40.0713751" lon="-105.2297889">
  <ele>1583.0</ele>
  <time>2026-08-28T17:56:06Z</time>
  <course>247.47</course>
  <speed>0.022360679774997897</speed>
  <fix>3d</fix>
</trkpt>
<trkpt lat="40.0713749" lon="-105.229789">
  <ele>1583.0</ele>
  <time>2026-08-28T17:56:06Z</time>
  <course>0.0</course>
  <speed>0.0</speed>
  <fix>3d</fix>
</trkpt>
<trkpt lat="40.071375" lon="-105.2297889">
  <ele>1583.0</ele>
  <time>2026-08-28T17:56:06Z</time>
  <course>247.46</course>
  <speed>0.022360679774997897</speed>
  <fix>3d</fix>
</trkpt>
<trkpt lat="40.0713749" lon="-105.229789">
  <ele>1583.0</ele>
  <time>2026-08-28T17:56:06Z</time>
  <course>0.0</course>
  <speed>0.0</speed>
  <fix>3d</fix>
</trkpt>
<trkpt lat="40.071375" lon="-105.2297889">
  <ele>1582.99</ele>
  <time>2026-08-28T17:56:06Z</time>
  <course>247.46</course>
  <speed>0.022360679774997897</speed>
  <fix>3d</fix>
</trkpt>
<trkpt lat="40.0713749" lon="-105.229789">
  <ele>1583.0</ele>
  <time>2026-08-28T17:56:06Z</time>
  <course>0.0</course>
  <speed>0.0</speed>
  <fix>3d</fix>
</trkpt>
<trkpt lat="40.071375" lon="-105.2297889">
  <ele>1582.99</ele>
  <time>2026-08-28T17:56:06Z</time>
  <course>247.46</course>
  <speed>0.022360679774997897</speed>
  <fix>3d</fix>
</trkpt>
<trkpt lat="40.0713749" lon="-105.229789">
  <ele>1583.0</ele>
  <time>2026-08-28T17:56:06Z</time>
  <course>0.0</course>
  <speed>0.0</speed>
  <fix>3d</fix>
</trkpt>
<trkpt lat="40.071375" lon="-105.2297889">
  <ele>1582.99</ele>
  <time>2026-08-28T17:56:06Z</time>
  <course>247.46</course>
  <speed>0.022360679774997897</speed>
  <fix>3d</fix>
</trkpt>
<trkpt lat="40.0713749" lon="-105.229789">
  <ele>1583.0</ele>
  <time>2026-08-28T17:56:06Z</time>
  <course>0.0</course>
  <speed>0.0</speed>
  <fix>3d</fix>
</trkpt>
<trkpt lat="40.071375" lon="-105.2297889">
  <ele>1582.99</ele>
  <time>2026-08-28T17:56:06Z</time>
  <course>247.45</course>
  <speed>0.022360679774997897</speed>
  <fix>3d</fix>
</trkpt>
<trkpt lat="40.0713749" lon="-105.229789">
  <ele>1583.0</ele>
  <time>2026-08-28T17:56:06Z</time>
  <course>0.0</course>
  <speed>0.0</speed>
  <fix>3d</fix>
</trkpt>
<trkpt lat="40.071375" lon="-105.2297889">
  <ele>1582.99</ele>
  <time>2026-08-28T17:56:06Z</time>
  <course>247.45</course>
  <speed>0.022360679774997897</speed>
  <fix>3d</fix>
</trkpt>
<trkpt lat="40.0713749" lon="-105.229789">
  <ele>1583.0</ele>
  <time>2026-08-28T17:56:06Z</time>
  <course>0.0</course>
  <speed>0.0</speed>
  <fix>3d</fix>
</trkpt>
<trkpt lat="40.071375" lon="-105.2297889">
  <ele>1582.99</ele>
  <time>2026-08-28T17:56:06Z</time>
  <course>247.45</course>
  <speed>0.022360679774997897</speed>
  <fix>3d</fix>
</trkpt>
<trkpt lat="40.0713749" lon="-105.229789">
  <ele>1583.0</ele>
  <time>2026-08-28T17:56:06Z</time>
  <course>0.0</course>
  <speed>0.0</speed>
  <fix>3d</fix>
</trkpt>
<trkpt lat="40.071375" lon="-105.2297889">
  <ele>1582.99</ele>
  <time>2026-08-28T17:56:06Z</time>
  <course>247.45</course>
  <speed>0.022360679774997897</speed>
  <fix>3d</fix>
</trkpt>
<trkpt lat="40.0713749" lon="-105.229789">
  <ele>1583.0</ele>
  <time>2026-08-28T17:56:06Z</time>
  <course>0.0</course>
  <speed>0.0</speed>
  <fix>3d</fix>
</trkpt>
<trkpt lat="40.071375" lon="-105.2297889">
  <ele>1583.0</ele>
  <time>2026-08-28T17:56:06Z</time>
  <course>247.45</course>
  <speed>0.022360679774997897</speed>
  <fix>3d</fix>
</trkpt>
<trkpt lat="40.0713749" lon="-105.229789">
  <ele>1583.0</ele>
  <time>2026-08-28T17:56:06Z</time>
  <course>0.0</course>
  <speed>0.0</speed>
  <fix>3d</fix>
</trkpt>
<trkpt lat="40.071375" lon="-105.2297889">
  <ele>1583.0</ele>
  <time>2026-08-28T17:56:06Z</time>
  <course>247.44</course>
  <speed>0.022360679774997897</speed>
  <fix>3d</fix>
</trkpt>
<trkpt lat="40.0713749" lon="-105.229789">
  <ele>1583.0</ele>
  <time>2026-08-28T17:56:06Z</time>
  <course>0.0</course>
  <speed>0.0</speed>
  <fix>3d</fix>
</trkpt>
<trkpt lat="40.071375" lon="-105.229789">
  <ele>1583.0</ele>
  <time>2026-08-28T17:56:06Z</time>
  <course>247.44</course>
  <speed>0.02</speed>
  <fix>3d</fix>
</trkpt>
<trkpt lat="40.0713749" lon="-105.229789">
  <ele>1583.0</ele>
  <time>2026-08-28T17:56:06Z</time>
  <course>0.0</course>
  <speed>0.0</speed>
  <fix>3d</fix>
</trkpt>
<trkpt lat="40.071375" lon="-105.229789">
  <ele>1583.0</ele>
  <time>2026-08-28T17:56:06Z</time>
  <course>247.44</course>
  <speed>0.02</speed>
  <fix>3d</fix>
</trkpt>
<trkpt lat="40.0713749" lon="-105.229789">
  <ele>1583.0</ele>
  <time>2026-08-28T17:56:06Z</time>
  <course>0.0</course>
  <speed>0.0</speed>
  <fix>3d</fix>
</trkpt>
<trkpt lat="40.071375" lon="-105.229789">
  <ele>1583.0</ele>
  <time>2026-08-28T17:56:06Z</time>
  <course>247.44</course>
  <speed>0.02</speed>
  <fix>3d</fix>
</trkpt>
<trkpt lat="40.0713749" lon="-105.229789">
  <ele>1583.0</ele>
  <time>2026-08-28T17:56:06Z</time>
  <course>0.0</course>
  <speed>0.0</speed>
  <fix>3d</fix>
</trkpt>
<trkpt lat="40.071375" lon="-105.229789">
  <ele>1583.01</ele>
  <time>2026-08-28T17:56:06Z</time>
  <course>247.43</course>
  <speed>0.02</speed>
  <fix>3d</fix>
</trkpt>
<trkpt lat="40.0713749" lon="-105.229789">
  <ele>1583.0</ele>
  <time>2026-08-28T17:56:06Z</time>
  <course>0.0</course>
  <speed>0.0</speed>
  <fix>3d</fix>
</trkpt>
<trkpt lat="40.071375" lon="-105.229789">
  <ele>1583.01</ele>
  <time>2026-08-28T17:56:06Z</time>
  <course>247.43</course>
  <speed>0.02</speed>
  <fix>3d</fix>
</trkpt>
<trkpt lat="40.0713749" lon="-105.229789">
  <ele>1583.0</ele>
  <time>2026-08-28T17:56:06Z</time>
  <course>0.0</course>
  <speed>0.0</speed>
  <fix>3d</fix>
</trkpt>
<trkpt lat="40.071375" lon="-105.229789">
  <ele>1583.01</ele>
  <time>2026-08-28T17:56:06Z</time>
  <course>247.43</course>
  <speed>0.02</speed>
  <fix>3d</fix>
</trkpt>
<trkpt lat="40.0713749" lon="-105.229789">
  <ele>1583.0</ele>
  <time>2026-08-28T17:56:06Z</time>
  <course>0.0</course>
  <speed>0.0</speed>
  <fix>3d</fix>
</trkpt>
<trkpt lat="40.071375" lon="-105.229789">
  <ele>1583.01</ele>
  <time>2026-08-28T17:56:06Z</time>
  <course>247.43</course>
  <speed>0.02</speed>
  <fix>3d</fix>
</trkpt>
<trkpt lat="40.0713749" lon="-105.229789">
  <ele>1583.0</ele>
  <time>2026-08-28T17:56:06Z</time>
  <course>0.0</course>
  <speed>0.0</speed>
  <fix>3d</fix>
</trkpt>
<trkpt lat="40.071375" lon="-105.229789">
  <ele>1583.01</ele>
  <time>2026-08-28T17:56:06Z</time>
  <course>247.43</course>
  <speed>0.02</speed>
  <fix>3d</fix>
</trkpt>
<trkpt lat="40.0713749" lon="-105.229789">
  <ele>1583.0</ele>
  <time>2026-08-28T17:56:06Z</time>
  <course>0.0</course>
  <speed>0.0</speed>
  <fix>3d</fix>
</trkpt>
<trkpt lat="40.071375" lon="-105.229789">
  <ele>1583.01</ele>
  <time>2026-08-28T17:56:06Z</time>
  <course>247.42</course>
  <speed>0.02</speed>
  <fix>3d</fix>
</trkpt>
<trkpt lat="40.0713749" lon="-105.229789">
  <ele>1583.0</ele>
  <time>2026-08-28T17:56:06Z</time>
  <course>0.0</course>
  <speed>0.0</speed>
  <fix>3d</fix>
</trkpt>
<trkpt lat="40.071375" lon="-105.229789">
  <ele>1583.01</ele>
  <time>2026-08-28T17:56:06Z</time>
  <course>247.42</course>
  <speed>0.02</speed>
  <fix>3d</fix>
</trkpt>
<trkpt lat="40.0713749" lon="-105.229789">
  <ele>1583.0</ele>
  <time>2026-08-28T17:56:06Z</time>
  <course>0.0</course>
  <speed>0.0</speed>
  <fix>3d</fix>
</trkpt>
<trkpt lat="40.071375" lon="-105.229789">
  <ele>1583.02</ele>
  <time>2026-08-28T17:56:06Z</time>
  <course>247.42</course>
  <speed>0.02</speed>
  <fix>3d</fix>
</trkpt>
<trkpt lat="40.0713749" lon="-105.229789">
  <ele>1583.0</ele>
  <time>2026-08-28T17:56:06Z</time>
  <course>0.0</course>
  <speed>0.0</speed>
  <fix>3d</fix>
</trkpt>
<trkpt lat="40.071375" lon="-105.229789">
  <ele>1583.01</ele>
  <time>2026-08-28T17:56:06Z</time>
  <course>247.42</course>
  <speed>0.02</speed>
  <fix>3d</fix>
</trkpt>
<trkpt lat="40.0713749" lon="-105.229789">
  <ele>1583.0</ele>
  <time>2026-08-28T17:56:06Z</time>
  <course>0.0</course>
  <speed>0.0</speed>
  <fix>3d</fix>
</trkpt>
<trkpt lat="40.071375" lon="-105.229789">
  <ele>1583.01</ele>
  <time>2026-08-28T17:56:06Z</time>
  <course>247.42</course>
  <speed>0.02</speed>
  <fix>3d</fix>
</trkpt>
<trkpt lat="40.0713749" lon="-105.229789">
  <ele>1583.0</ele>
  <time>2026-08-28T17:56:06Z</time>
  <course>0.0</course>
  <speed>0.0</speed>
  <fix>3d</fix>
</trkpt>
<trkpt lat="40.071375" lon="-105.229789">
  <ele>1583.01</ele>
  <time>2026-08-28T17:56:06Z</time>
  <course>247.41</course>
  <speed>0.02</speed>
  <fix>3d</fix>
</trkpt>
<trkpt lat="40.0713749" lon="-105.229789">
  <ele>1583.0</ele>
  <time>2026-08-28T17:56:06Z</time>
  <course>0.0</course>
  <speed>0.0</speed>
  <fix>3d</fix>
</trkpt>
<trkpt lat="40.071375" lon="-105.229789">
  <ele>1583.01</ele>
  <time>2026-08-28T17:56:06Z</time>
  <course>247.41</course>
  <speed>0.02</speed>
  <fix>3d</fix>
</trkpt>
<trkpt lat="40.0713749" lon="-105.229789">
  <ele>1583.0</ele>
  <time>2026-08-28T17:56:06Z</time>
  <course>0.0</course>
  <speed>0.0</speed>
  <fix>3d</fix>
</trkpt>
<trkpt lat="40.071375" lon="-105.229789">
  <ele>1583.01</ele>
  <time>2026-08-28T17:56:06Z</time>
  <course>247.41</course>
  <speed>0.02</speed>
  <fix>3d</fix>
</trkpt>
<trkpt lat="40.0713749" lon="-105.229789">
  <ele>1583.0</ele>
  <time>2026-08-28T17:56:06Z</time>
  <course>0.0</course>
  <speed>0.0</speed>
  <fix>3d</fix>
</trkpt>
<trkpt lat="40.071375" lon="-105.229789">
  <ele>1583.01</ele>
  <time>2026-08-28T17:56:06Z</time>
  <course>247.41</course>
  <speed>0.02</speed>
  <fix>3d</fix>
</trkpt>
<trkpt lat="40.0713749" lon="-105.229789">
  <ele>1583.0</ele>
  <time>2026-08-28T17:56:06Z</time>
  <course>0.0</course>
  <speed>0.0</speed>
  <fix>3d</fix>
</trkpt>
<trkpt lat="40.071375" lon="-105.229789">
  <ele>1583.02</ele>
  <time>2026-08-28T17:56:06Z</time>
  <course>247.41</course>
  <speed>0.02</speed>
  <fix>3d</fix>
</trkpt>
<trkpt lat="40.0713749" lon="-105.229789">
  <ele>1583.0</ele>
  <time>2026-08-28T17:56:06Z</time>
  <course>0.0</course>
  <speed>0.0</speed>
  <fix>3d</fix>
</trkpt>
<trkpt lat="40.071375" lon="-105.229789">
  <ele>1583.02</ele>
  <time>2026-08-28T17:56:06Z</time>
  <course>247.4</course>
  <speed>0.02</speed>
  <fix>3d</fix>
</trkpt>
<trkpt lat="40.0713749" lon="-105.229789">
  <ele>1583.0</ele>
  <time>2026-08-28T17:56:06Z</time>
  <course>0.0</course>
  <speed>0.0</speed>
  <fix>3d</fix>
</trkpt>
<trkpt lat="40.071375" lon="-105.229789">
  <ele>1583.03</ele>
  <time>2026-08-28T17:56:06Z</time>
  <course>247.39</course>
  <speed>0.01</speed>
  <fix>3d</fix>
</trkpt>
<trkpt lat="40.0713749" lon="-105.229789">
  <ele>1583.0</ele>
  <time>2026-08-28T17:56:06Z</time>
  <course>0.0</course>
  <speed>0.0</speed>
  <fix>3d</fix>
</trkpt>
<trkpt lat="40.071375" lon="-105.229789">
  <ele>1583.03</ele>
  <time>2026-08-28T17:56:06Z</time>
  <course>247.39</course>
  <speed>0.02</speed>
  <fix>3d</fix>
</trkpt>
<trkpt lat="40.0713749" lon="-105.229789">
  <ele>1583.0</ele>
  <time>2026-08-28T17:56:06Z</time>
  <course>0.0</course>
  <speed>0.0</speed>
  <fix>3d</fix>
</trkpt>
<trkpt lat="40.071375" lon="-105.229789">
  <ele>1583.03</ele>
  <time>2026-08-28T17:56:06Z</time>
  <course>247.39</course>
  <speed>0.02</speed>
  <fix>3d</fix>
</trkpt>
<trkpt lat="40.0713749" lon="-105.229789">
  <ele>1583.0</ele>
  <time>2026-08-28T17:56:06Z</time>
  <course>0.0</course>
  <speed>0.0</speed>
  <fix>3d</fix>
</trkpt>
<trkpt lat="40.071375" lon="-105.229789">
  <ele>1583.03</ele>
  <time>2026-08-28T17:56:06Z</time>
  <course>247.39</course>
  <speed>0.02</speed>
  <fix>3d</fix>
</trkpt>
<trkpt lat="40.0713749" lon="-105.229789">
  <ele>1583.0</ele>
  <time>2026-08-28T17:56:06Z</time>
  <course>0.0</course>
  <speed>0.0</speed>
  <fix>3d</fix>
</trkpt>
<trkpt lat="40.071375" lon="-105.229789">
  <ele>1583.04</ele>
  <time>2026-08-28T17:56:06Z</time>
  <course>247.38</course>
  <speed>0.02</speed>
  <fix>3d</fix>
</trkpt>
<trkpt lat="40.0713749" lon="-105.229789">
  <ele>1583.0</ele>
  <time>2026-08-28T17:56:06Z</time>
  <course>0.0</course>
  <speed>0.0</speed>
  <fix>3d</fix>
</trkpt>
<trkpt lat="40.071375" lon="-105.229789">
  <ele>1583.05</ele>
  <time>2026-08-28T17:56:06Z</time>
  <course>247.38</course>
  <speed>0.02</speed>
  <fix>3d</fix>
</trkpt>
<trkpt lat="40.0713749" lon="-105.229789">
  <ele>1583.0</ele>
  <time>2026-08-28T17:56:06Z</time>
  <course>0.0</course>
  <speed>0.0</speed>
  <fix>3d</fix>
</trkpt>
<trkpt lat="40.071375" lon="-105.229789">
  <ele>1583.05</ele>
  <time>2026-08-28T17:56:06Z</time>
  <course>247.38</course>
  <speed>0.02</speed>
  <fix>3d</fix>
</trkpt>
<trkpt lat="40.0713749" lon="-105.229789">
  <ele>1583.0</ele>
  <time>2026-08-28T17:56:06Z</time>
  <course>0.0</course>
  <speed>0.0</speed>
  <fix>3d</fix>
</trkpt>
<trkpt lat="40.071375" lon="-105.229789">
  <ele>1583.05</ele>
  <time>2026-08-28T17:56:06Z</time>
  <course>247.38</course>
  <speed>0.02</speed>
  <fix>3d</fix>
</trkpt>
<trkpt lat="40.0713749" lon="-105.229789">
  <ele>1583.0</ele>
  <time>2026-08-28T17:56:06Z</time>
  <course>0.0</course>
  <speed>0.0</speed>
  <fix>3d</fix>
</trkpt>
<trkpt lat="40.071375" lon="-105.229789">
  <ele>1583.05</ele>
  <time>2026-08-28T17:56:06Z</time>
  <course>247.38</course>
  <speed>0.02</speed>
  <fix>3d</fix>
</trkpt>
<trkpt lat="40.0713749" lon="-105.229789">
  <ele>1583.0</ele>
  <time>2026-08-28T17:56:06Z</time>
  <course>0.0</course>
  <speed>0.0</speed>
  <fix>3d</fix>
</trkpt>
<trkpt lat="40.071375" lon="-105.229789">
  <ele>1583.05</ele>
  <time>2026-08-28T17:56:06Z</time>
  <course>247.37</course>
  <speed>0.02</speed>
  <fix>3d</fix>
</trkpt>
<trkpt lat="40.0713749" lon="-105.229789">
  <ele>1583.0</ele>
  <time>2026-08-28T17:56:06Z</time>
  <course>0.0</course>
  <speed>0.0</speed>
  <fix>3d</fix>
</trkpt>
<trkpt lat="40.071375" lon="-105.229789">
  <ele>1583.06</ele>
  <time>2026-08-28T17:56:06Z</time>
  <course>247.37</course>
  <speed>0.02</speed>
  <fix>3d</fix>
</trkpt>
<trkpt lat="40.0713749" lon="-105.229789">
  <ele>1583.0</ele>
  <time>2026-08-28T17:56:06Z</time>
  <course>0.0</course>
  <speed>0.0</speed>
  <fix>3d</fix>
</trkpt>
<trkpt lat="40.071375" lon="-105.229789">
  <ele>1583.06</ele>
  <time>2026-08-28T17:56:06Z</time>
  <course>247.37</course>
  <speed>0.02</speed>
  <fix>3d</fix>
</trkpt>
<trkpt lat="40.0713749" lon="-105.229789">
  <ele>1583.0</ele>
  <time>2026-08-28T17:56:06Z</time>
  <course>0.0</course>
  <speed>0.0</speed>
  <fix>3d</fix>
</trkpt>
<trkpt lat="40.071375" lon="-105.229789">
  <ele>1583.06</ele>
  <time>2026-08-28T17:56:06Z</time>
  <course>247.37</course>
  <speed>0.02</speed>
  <fix>3d</fix>
</trkpt>
<trkpt lat="40.0713749" lon="-105.229789">
  <ele>1583.0</ele>
  <time>2026-08-28T17:56:06Z</time>
  <course>0.0</course>
  <speed>0.0</speed>
  <fix>3d</fix>
</trkpt>
<trkpt lat="40.071375" lon="-105.229789">
  <ele>1583.06</ele>
  <time>2026-08-28T17:56:06Z</time>
  <course>247.37</course>
  <speed>0.02</speed>
  <fix>3d</fix>
</trkpt>
<trkpt lat="40.0713749" lon="-105.229789">
  <ele>1583.0</ele>
  <time>2026-08-28T17:56:06Z</time>
  <course>0.0</course>
  <speed>0.0</speed>
  <fix>3d</fix>
</trkpt>
<trkpt lat="40.071375" lon="-105.229789">
  <ele>1583.06</ele>
  <time>2026-08-28T17:56:06Z</time>
  <course>247.36</course>
  <speed>0.02</speed>
  <fix>3d</fix>
</trkpt>
<trkpt lat="40.0713749" lon="-105.229789">
  <ele>1583.0</ele>
  <time>2026-08-28T17:56:06Z</time>
  <course>0.0</course>
  <speed>0.0</speed>
  <fix>3d</fix>
</trkpt>
<trkpt lat="40.071375" lon="-105.229789">
  <ele>1583.06</ele>
  <time>2026-08-28T17:56:06Z</time>
  <course>247.36</course>
  <speed>0.02</speed>
  <fix>3d</fix>
</trkpt>
<trkpt lat="40.0713749" lon="-105.229789">
  <ele>1583.0</ele>
  <time>2026-08-28T17:56:06Z</time>
  <course>0.0</course>
  <speed>0.0</speed>
  <fix>3d</fix>
</trkpt>
<trkpt lat="40.071375" lon="-105.229789">
  <ele>1583.06</ele>
  <time>2026-08-28T17:56:06Z</time>
  <course>247.36</course>
  <speed>0.02</speed>
  <fix>3d</fix>
</trkpt>
<trkpt lat="40.0713749" lon="-105.229789">
  <ele>1583.0</ele>
  <time>2026-08-28T17:56:06Z</time>
  <course>0.0</course>
  <speed>0.0</speed>
  <fix>3d</fix>
</trkpt>
<trkpt lat="40.071375" lon="-105.229789">
  <ele>1583.06</ele>
  <time>2026-08-28T17:56:06Z</time>
  <course>247.36</course>
  <speed>0.02</speed>
  <fix>3d</fix>
</trkpt>
<trkpt lat="40.0713749" lon="-105.229789">
  <ele>1583.0</ele>
  <time>2026-08-28T17:56:06Z</time>
  <course>0.0</course>
  <speed>0.0</speed>
  <fix>3d</fix>
</trkpt>
<trkpt lat="40.071375" lon="-105.229789">
  <ele>1583.06</ele>
  <time>2026-08-28T17:56:06Z</time>
  <course>247.36</course>
  <speed>0.02</speed>
  <fix>3d</fix>
</trkpt>
<trkpt lat="40.0713749" lon="-105.229789">
  <ele>1583.0</ele>
  <time>2026-08-28T17:56:06Z</time>
  <course>0.0</course>
  <speed>0.0</speed>
  <fix>3d</fix>
</trkpt>
<trkpt lat="40.071375" lon="-105.229789">
  <ele>1583.06</ele>
  <time>2026-08-28T17:56:06Z</time>
  <course>247.36</course>
  <speed>0.02</speed>
  <fix>3d</fix>
</trkpt>
<trkpt lat="40.0713749" lon="-105.229789">
  <ele>1583.0</ele>
  <time>2026-08-28T17:56:06Z</time>
  <course>0.0</course>
  <speed>0.0</speed>
  <fix>3d</fix>
</trkpt>
<trkpt lat="40.071375" lon="-105.229789">
  <ele>1583.05</ele>
  <time>2026-08-28T17:56:06Z</time>
  <course>247.35</course>
  <speed>0.02</speed>
  <fix>3d</fix>
</trkpt>
<trkpt lat="40.0713749" lon="-105.229789">
  <ele>1583.0</ele>
  <time>2026-08-28T17:56:06Z</time>
  <course>0.0</course>
  <speed>0.0</speed>
  <fix>3d</fix>
</trkpt>
<trkpt lat="40.071375" lon="-105.229789">
  <ele>1583.05</ele>
  <time>2026-08-28T17:56:06Z</time>
  <course>247.35</course>
  <speed>0.02</speed>
  <fix>3d</fix>
</trkpt>
<trkpt lat="40.0713749" lon="-105.229789">
  <ele>1583.0</ele>
  <time>2026-08-28T17:56:06Z</time>
  <course>0.0</course>
  <speed>0.0</speed>
  <fix>3d</fix>
</trkpt>
<trkpt lat="40.071375" lon="-105.229789">
  <ele>1583.04</ele>
  <time>2026-08-28T17:56:06Z</time>
  <course>247.35</course>
  <speed>0.02</speed>
  <fix>3d</fix>
</trkpt>
<trkpt lat="40.0713749" lon="-105.229789">
  <ele>1583.0</ele>
  <time>2026-08-28T17:56:06Z</time>
  <course>0.0</course>
  <speed>0.0</speed>
  <fix>3d</fix>
</trkpt>
<trkpt lat="40.071375" lon="-105.229789">
  <ele>1583.04</ele>
  <time>2026-08-28T17:56:06Z</time>
  <course>247.35</course>
  <speed>0.02</speed>
  <fix>3d</fix>
</trkpt>
<trkpt lat="40.0713749" lon="-105.229789">
  <ele>1583.0</ele>
  <time>2026-08-28T17:56:06Z</time>
  <course>0.0</course>
  <speed>0.0</speed>
  <fix>3d</fix>
</trkpt>
<trkpt lat="40.071375" lon="-105.229789">
  <ele>1583.04</ele>
  <time>2026-08-28T17:56:06Z</time>
  <course>247.35</course>
  <speed>0.02</speed>
  <fix>3d</fix>
</trkpt>
<trkpt lat="40.0713749" lon="-105.229789">
  <ele>1583.0</ele>
  <time>2026-08-28T17:56:06Z</time>
  <course>0.0</course>
  <speed>0.0</speed>
  <fix>3d</fix>
</trkpt>
<trkpt lat="40.071375" lon="-105.229789">
  <ele>1583.03</ele>
  <time>2026-08-28T17:56:06Z</time>
  <course>247.35</course>
  <speed>0.02</speed>
  <fix>3d</fix>
</trkpt>
<trkpt lat="40.0713749" lon="-105.229789">
  <ele>1583.0</ele>
  <time>2026-08-28T17:56:06Z</time>
  <course>0.0</course>
  <speed>0.0</speed>
  <fix>3d</fix>
</trkpt>
<trkpt lat="40.071375" lon="-105.229789">
  <ele>1583.03</ele>
  <time>2026-08-28T17:56:06Z</time>
  <course>247.34</course>
  <speed>0.02</speed>
  <fix>3d</fix>
</trkpt>
<trkpt lat="40.0713768" lon="-105.2297897">
  <ele>1583.0</ele>
  <time>2026-08-28T17:56:06Z</time>
  <course>0.0</course>
  <speed>0.0</speed>
  <fix>3d</fix>
</trkpt>
<trkpt lat="40.071375" lon="-105.229789">
  <ele>1583.02</ele>
  <time>2026-08-28T17:56:06Z</time>
  <course>247.34</course>
  <speed>0.02</speed>
  <fix>3d</fix>
</trkpt>
<trkpt lat="40.0713768" lon="-105.2297897">
  <ele>1583.0</ele>
  <time>2026-08-28T17:56:06Z</time>
  <course>0.0</course>
  <speed>0.0</speed>
  <fix>3d</fix>
</trkpt>
<trkpt lat="40.071375" lon="-105.2297889">
  <ele>1583.02</ele>
  <time>2026-08-28T17:56:06Z</time>
  <course>247.34</course>
  <speed>0.02</speed>
  <fix>3d</fix>
</trkpt>
<trkpt lat="40.0713768" lon="-105.2297897">
  <ele>1583.0</ele>
  <time>2026-08-28T17:56:06Z</time>
  <course>0.0</course>
  <speed>0.0</speed>
  <fix>3d</fix>
</trkpt>
<trkpt lat="40.0713751" lon="-105.2297889">
  <ele>1583.02</ele>
  <time>2026-08-28T17:56:06Z</time>
  <course>247.34</course>
  <speed>0.022360679774997897</speed>
  <fix>3d</fix>
</trkpt>
<trkpt lat="40.0713768" lon="-105.2297897">
  <ele>1583.0</ele>
  <time>2026-08-28T17:56:06Z</time>
  <course>0.0</course>
  <speed>0.0</speed>
  <fix>3d</fix>
</trkpt>
<trkpt lat="40.0713751" lon="-105.2297889">
  <ele>1583.02</ele>
  <time>2026-08-28T17:56:06Z</time>
  <course>247.34</course>
  <speed>0.022360679774997897</speed>
  <fix>3d</fix>
</trkpt>
<trkpt lat="40.0713768" lon="-105.2297897">
  <ele>1583.0</ele>
  <time>2026-08-28T17:56:06Z</time>
  <course>0.0</course>
  <speed>0.0</speed>
  <fix>3d</fix>
</trkpt>
<trkpt lat="40.0713751" lon="-105.2297889">
  <ele>1583.01</ele>
  <time>2026-08-28T17:56:06Z</time>
  <course>247.34</course>
  <speed>0.022360679774997897</speed>
  <fix>3d</fix>
</trkpt>
<trkpt lat="40.0713768" lon="-105.2297897">
  <ele>1583.0</ele>
  <time>2026-08-28T17:56:06Z</time>
  <course>0.0</course>
  <speed>0.0</speed>
  <fix>3d</fix>
</trkpt>
<trkpt lat="40.0713751" lon="-105.2297889">
  <ele>1583.01</ele>
  <time>2026-08-28T17:56:06Z</time>
  <course>247.33</course>
  <speed>0.022360679774997897</speed>
  <fix>3d</fix>
</trkpt>
<trkpt lat="40.0713768" lon="-105.2297897">
  <ele>1583.0</ele>
  <time>2026-08-28T17:56:06Z</time>
  <course>0.0</course>
  <speed>0.0</speed>
  <fix>3d</fix>
</trkpt>
<trkpt lat="40.0713752" lon="-105.2297889">
  <ele>1583.01</ele>
  <time>2026-08-28T17:56:06Z</time>
  <course>247.33</course>
  <speed>0.0316227766016838</speed>
  <fix>3d</fix>
</trkpt>
<trkpt lat="40.0713768" lon="-105.2297897">
  <ele>1583.0</ele>
  <time>2026-08-28T17:56:06Z</time>
  <course>0.0</course>
  <speed>0.0</speed>
  <fix>3d</fix>
</trkpt>
<trkpt lat="40.0713752" lon="-105.2297889">
  <ele>1583.01</ele>
  <time>2026-08-28T17:56:06Z</time>
  <course>247.33</course>
  <speed>0.0316227766016838</speed>
  <fix>3d</fix>
</trkpt>
<trkpt lat="40.0713768" lon="-105.2297897">
  <ele>1583.0</ele>
  <time>2026-08-28T17:56:06Z</time>
  <course>0.0</course>
  <speed>0.0</speed>
  <fix>3d</fix>
</trkpt>
<trkpt lat="40.0713752" lon="-105.2297888">
  <ele>1583.01</ele>
  <time>2026-08-28T17:56:06Z</time>
  <course>247.33</course>
  <speed>0.0316227766016838</speed>
  <fix>3d</fix>
</trkpt>
<trkpt lat="40.0713768" lon="-105.2297897">
  <ele>1583.0</ele>
  <time>2026-08-28T17:56:06Z</time>
  <course>0.0</course>
  <speed>0.0</speed>
  <fix>3d</fix>
</trkpt>
<trkpt lat="40.0713753" lon="-105.2297888">
  <ele>1583.01</ele>
  <time>2026-08-28T17:56:06Z</time>
  <course>247.33</course>
  <speed>0.0316227766016838</speed>
  <fix>3d</fix>
</trkpt>
<trkpt lat="40.0713768" lon="-105.2297897">
  <ele>1583.0</ele>
  <time>2026-08-28T17:56:06Z</time>
  <course>0.0</course>
  <speed>0.0</speed>
  <fix>3d</fix>
</trkpt>
<trkpt lat="40.0713753" lon="-105.2297888">
  <ele>1583.01</ele>
  <time>2026-08-28T17:56:06Z</time>
  <course>247.33</course>
  <speed>0.0316227766016838</speed>
  <fix>3d</fix>
</trkpt>
<trkpt lat="40.0713768" lon="-105.2297897">
  <ele>1583.0</ele>
  <time>2026-08-28T17:56:06Z</time>
  <course>0.0</course>
  <speed>0.0</speed>
  <fix>3d</fix>
</trkpt>
<trkpt lat="40.0713753" lon="-105.2297888">
  <ele>1583.01</ele>
  <time>2026-08-28T17:56:06Z</time>
  <course>247.33</course>
  <speed>0.0316227766016838</speed>
  <fix>3d</fix>
</trkpt>
<trkpt lat="40.0713768" lon="-105.2297897">
  <ele>1583.0</ele>
  <time>2026-08-28T17:56:06Z</time>
  <course>0.0</course>
  <speed>0.0</speed>
  <fix>3d</fix>
</trkpt>
<trkpt lat="40.0713754" lon="-105.2297888">
  <ele>1583.01</ele>
  <time>2026-08-28T17:56:06Z</time>
  <course>247.32</course>
  <speed>0.0412310562561766</speed>
  <fix>3d</fix>
</trkpt>
<trkpt lat="40.0713768" lon="-105.2297897">
  <ele>1583.0</ele>
  <time>2026-08-28T17:56:06Z</time>
  <course>0.0</course>
  <speed>0.0</speed>
  <fix>3d</fix>
</trkpt>
<trkpt lat="40.0713754" lon="-105.2297887">
  <ele>1583.0</ele>
  <time>2026-08-28T17:56:06Z</time>
  <course>247.32</course>
  <speed>0.0412310562561766</speed>
  <fix>3d</fix>
</trkpt>
<trkpt lat="40.0705146" lon="-105.2290878">
  <ele>1583.0</ele>
  <time>2026-08-28T17:56:06Z</time>
  <course>202.0</course>
  <speed>105.31</speed>
  <fix>3d</fix>
</trkpt>
<trkpt lat="40.0713755" lon="-105.2297887">
  <ele>1583.0</ele>
  <time>2026-08-28T17:56:06Z</time>
  <course>247.32</course>
  <speed>0.0412310562561766</speed>
  <fix>3d</fix>
</trkpt>
<trkpt lat="40.0705146" lon="-105.2290878">
  <ele>1583.0</ele>
  <time>2026-08-28T17:56:06Z</time>
  <course>202.0</course>
  <speed>105.31</speed>
  <fix>3d</fix>
</trkpt>
<trkpt lat="40.0713755" lon="-105.2297887">
  <ele>1582.99</ele>
  <time>2026-08-28T17:56:06Z</time>
  <course>247.32</course>
  <speed>0.0412310562561766</speed>
  <fix>3d</fix>
</trkpt>
<trkpt lat="40.0705146" lon="-105.2290878">
  <ele>1583.0</ele>
  <time>2026-08-28T17:56:06Z</time>
  <course>0.0</course>
  <speed>0.0</speed>
  <fix>3d</fix>
</trkpt>
<trkpt lat="40.0713755" lon="-105.2297887">
  <ele>1582.99</ele>
  <time>2026-08-28T17:56:06Z</time>
  <course>247.32</course>
  <speed>0.0412310562561766</speed>
  <fix>3d</fix>
</trkpt>
<trkpt lat="40.0705146" lon="-105.2290878">
  <ele>1583.0</ele>
  <time>2026-08-28T17:56:06Z</time>
  <course>0.0</course>
  <speed>0.0</speed>
  <fix>3d</fix>
</trkpt>
<trkpt lat="40.0713756" lon="-105.2297887">
  <ele>1582.98</ele>
  <time>2026-08-28T17:56:06Z</time>
  <course>247.32</course>
  <speed>0.053851648071345036</speed>
  <fix>3d</fix>
</trkpt>
<trkpt lat="40.0705146" lon="-105.2290878">
  <ele>1583.0</ele>
  <time>2026-08-28T17:56:06Z</time>
  <course>0.0</course>
  <speed>0.0</speed>
  <fix>3d</fix>
</trkpt>
<trkpt lat="40.0713756" lon="-105.2297886">
  <ele>1582.97</ele>
  <time>2026-08-28T17:56:06Z</time>
  <course>247.32</course>
  <speed>0.053851648071345036</speed>
  <fix>3d</fix>
</trkpt>
<trkpt lat="40.0705146" lon="-105.2290878">
  <ele>1583.0</ele>
  <time>2026-08-28T17:56:06Z</time>
  <course>0.0</course>
  <speed>0.0</speed>
  <fix>3d</fix>
</trkpt>
<trkpt lat="40.0713757" lon="-105.2297886">
  <ele>1582.96</ele>
  <time>2026-08-28T17:56:06Z</time>
  <course>247.31</course>
  <speed>0.053851648071345036</speed>
  <fix>3d</fix>
</trkpt>
<trkpt lat="40.0705146" lon="-105.2290878">
  <ele>1583.0</ele>
  <time>2026-08-28T17:56:06Z</time>
  <course>0.0</course>
  <speed>0.0</speed>
  <fix>3d</fix>
</trkpt>
<trkpt lat="40.0713757" lon="-105.2297886">
  <ele>1582.95</ele>
  <time>2026-08-28T17:56:06Z</time>
  <course>247.31</course>
  <speed>0.053851648071345036</speed>
  <fix>3d</fix>
</trkpt>
<trkpt lat="40.0705146" lon="-105.2290878">
  <ele>1583.0</ele>
  <time>2026-08-28T17:56:06Z</time>
  <course>0.0</course>
  <speed>0.0</speed>
  <fix>3d</fix>
</trkpt>
<trkpt lat="40.0713758" lon="-105.2297886">
  <ele>1582.95</ele>
  <time>2026-08-28T17:56:06Z</time>
  <course>247.31</course>
  <speed>0.053851648071345036</speed>
  <fix>3d</fix>
</trkpt>
<trkpt lat="40.0705146" lon="-105.2290878">
  <ele>1583.0</ele>
  <time>2026-08-28T17:56:06Z</time>
  <course>0.0</course>
  <speed>0.0</speed>
  <fix>3d</fix>
</trkpt>
<trkpt lat="40.0713758" lon="-105.2297885">
  <ele>1582.95</ele>
  <time>2026-08-28T17:56:06Z</time>
  <course>247.31</course>
  <speed>0.053851648071345036</speed>
  <fix>3d</fix>
</trkpt>
<trkpt lat="40.0705146" lon="-105.2290878">
  <ele>1583.0</ele>
  <time>2026-08-28T17:56:06Z</time>
  <course>0.0</course>
  <speed>0.0</speed>
  <fix>3d</fix>
</trkpt>
<trkpt lat="40.0713759" lon="-105.2297885">
  <ele>1582.94</ele>
  <time>2026-08-28T17:56:06Z</time>
  <course>247.31</course>
  <speed>0.0632455532033676</speed>
  <fix>3d</fix>
</trkpt>
<trkpt lat="40.0705146" lon="-105.2290878">
  <ele>1583.0</ele>
  <time>2026-08-28T17:56:06Z</time>
  <course>0.0</course>
  <speed>0.0</speed>
  <fix>3d</fix>
</trkpt>
<trkpt lat="40.0713759" lon="-105.2297885">
  <ele>1582.94</ele>
  <time>2026-08-28T17:56:06Z</time>
  <course>247.31</course>
  <speed>0.0632455532033676</speed>
  <fix>3d</fix>
</trkpt>
<trkpt lat="40.0705146" lon="-105.2290878">
  <ele>1583.0</ele>
  <time>2026-08-28T17:56:06Z</time>
  <course>0.0</course>
  <speed>0.0</speed>
  <fix>3d</fix>
</trkpt>
<trkpt lat="40.071376" lon="-105.2297884">
  <ele>1582.94</ele>
  <time>2026-08-28T17:56:06Z</time>
  <course>247.31</course>
  <speed>0.0632455532033676</speed>
  <fix>3d</fix>
</trkpt>
<trkpt lat="40.0705146" lon="-105.2290878">
  <ele>1583.0</ele>
  <time>2026-08-28T17:56:06Z</time>
  <course>0.0</course>
  <speed>0.0</speed>
  <fix>3d</fix>
</trkpt>
<trkpt lat="40.071376" lon="-105.2297884">
  <ele>1582.94</ele>
  <time>2026-08-28T17:56:06Z</time>
  <course>247.3</course>
  <speed>0.0632455532033676</speed>
  <fix>3d</fix>
</trkpt>
<trkpt lat="40.0705146" lon="-105.2290878">
  <ele>1583.0</ele>
  <time>2026-08-28T17:56:06Z</time>
  <course>0.0</course>
  <speed>0.0</speed>
  <fix>3d</fix>
</trkpt>
<trkpt lat="40.0713761" lon="-105.2297884">
  <ele>1582.93</ele>
  <time>2026-08-28T17:56:06Z</time>
  <course>247.3</course>
  <speed>0.0632455532033676</speed>
  <fix>3d</fix>
</trkpt>
<trkpt lat="40.0705146" lon="-105.2290878">
  <ele>1583.0</ele>
  <time>2026-08-28T17:56:06Z</time>
  <course>0.0</course>
  <speed>0.0</speed>
  <fix>3d</fix>
</trkpt>
<trkpt lat="40.0713762" lon="-105.2297883">
  <ele>1582.92</ele>
  <time>2026-08-28T17:56:06Z</time>
  <course>247.3</course>
  <speed>0.07280109889280519</speed>
  <fix>3d</fix>
</trkpt>
<trkpt lat="40.0705146" lon="-105.2290878">
  <ele>1583.0</ele>
  <time>2026-08-28T17:56:06Z</time>
  <course>0.0</course>
  <speed>0.0</speed>
  <fix>3d</fix>
</trkpt>
<trkpt lat="40.0713762" lon="-105.2297883">
  <ele>1582.92</ele>
  <time>2026-08-28T17:56:06Z</time>
  <course>247.3</course>
  <speed>0.07615773105863909</speed>
  <fix>3d</fix>
</trkpt>
<trkpt lat="40.0713749" lon="-105.229789">
  <ele>1583.0</ele>
  <time>2026-08-28T17:56:06Z</time>
  <course>0.0</course>
  <speed>0.0</speed>
  <fix>3d</fix>
</trkpt>
<trkpt lat="40.071376" lon="-105.2297884">
  <ele>1582.91</ele>
  <time>2026-08-28T17:56:06Z</time>
  <course>247.3</course>
  <speed>0.0632455532033676</speed>
  <fix>3d</fix>
</trkpt>
<trkpt lat="40.0713749" lon="-105.229789">
  <ele>1583.0</ele>
  <time>2026-08-28T17:56:06Z</time>
  <course>0.0</course>
  <speed>0.0</speed>
  <fix>3d</fix>
</trkpt>
<trkpt lat="40.0713758" lon="-105.2297885">
  <ele>1582.91</ele>
  <time>2026-08-28T17:56:06Z</time>
  <course>247.3</course>
  <speed>0.053851648071345036</speed>
  <fix>3d</fix>
</trkpt>
<trkpt lat="40.0713749" lon="-105.229789">
  <ele>1583.0</ele>
  <time>2026-08-28T17:56:06Z</time>
  <course>0.0</course>
  <speed>0.0</speed>
  <fix>3d</fix>
</trkpt>
<trkpt lat="40.0713757" lon="-105.2297886">
  <ele>1582.91</ele>
  <time>2026-08-28T17:56:06Z</time>
  <course>247.3</course>
  <speed>0.0412310562561766</speed>
  <fix>3d</fix>
</trkpt>
<trkpt lat="40.0713749" lon="-105.229789">
  <ele>1583.0</ele>
  <time>2026-08-28T17:56:06Z</time>
  <course>0.0</course>
  <speed>0.0</speed>
  <fix>3d</fix>
</trkpt>
<trkpt lat="40.0713755" lon="-105.2297887">
  <ele>1582.92</ele>
  <time>2026-08-28T17:56:06Z</time>
  <course>247.3</course>
  <speed>0.0316227766016838</speed>
  <fix>3d</fix>
</trkpt>
<trkpt lat="40.0713749" lon="-105.229789">
  <ele>1583.0</ele>
  <time>2026-08-28T17:56:06Z</time>
  <course>0.0</course>
  <speed>0.0</speed>
  <fix>3d</fix>
</trkpt>
<trkpt lat="40.0713753" lon="-105.2297888">
  <ele>1582.92</ele>
  <time>2026-08-28T17:56:06Z</time>
  <course>247.29</course>
  <speed>0.0316227766016838</speed>
  <fix>3d</fix>
</trkpt>
<trkpt lat="40.0713749" lon="-105.229789">
  <ele>1583.0</ele>
  <time>2026-08-28T17:56:06Z</time>
  <course>0.0</course>
  <speed>0.0</speed>
  <fix>3d</fix>
</trkpt>
<trkpt lat="40.0713752" lon="-105.2297889">
  <ele>1582.93</ele>
  <time>2026-08-28T17:56:06Z</time>
  <course>247.29</course>
  <speed>0.0316227766016838</speed>
  <fix>3d</fix>
</trkpt>
<trkpt lat="40.0713749" lon="-105.229789">
  <ele>1583.0</ele>
  <time>2026-08-28T17:56:06Z</time>
  <course>0.0</course>
  <speed>0.0</speed>
  <fix>3d</fix>
</trkpt>
<trkpt lat="40.0713751" lon="-105.2297889">
  <ele>1582.95</ele>
  <time>2026-08-28T17:56:06Z</time>
  <course>247.29</course>
  <speed>0.022360679774997897</speed>
  <fix>3d</fix>
</trkpt>
<trkpt lat="40.0713749" lon="-105.229789">
  <ele>1583.0</ele>
  <time>2026-08-28T17:56:06Z</time>
  <course>0.0</course>
  <speed>0.0</speed>
  <fix>3d</fix>
</trkpt>
<trkpt lat="40.071375" lon="-105.2297889">
  <ele>1582.96</ele>
  <time>2026-08-28T17:56:06Z</time>
  <course>247.28</course>
  <speed>0.022360679774997897</speed>
  <fix>3d</fix>
</trkpt>
<trkpt lat="40.0713749" lon="-105.229789">
  <ele>1583.0</ele>
  <time>2026-08-28T17:56:06Z</time>
  <course>0.0</course>
  <speed>0.0</speed>
  <fix>3d</fix>
</trkpt>
<trkpt lat="40.071375" lon="-105.2297889">
  <ele>1582.96</ele>
  <time>2026-08-28T17:56:06Z</time>
  <course>247.28</course>
  <speed>0.022360679774997897</speed>
  <fix>3d</fix>
</trkpt>
<trkpt lat="40.0713749" lon="-105.229789">
  <ele>1583.0</ele>
  <time>2026-08-28T17:56:06Z</time>
  <course>0.0</course>
  <speed>0.0</speed>
  <fix>3d</fix>
</trkpt>
<trkpt lat="40.071375" lon="-105.2297889">
  <ele>1582.97</ele>
  <time>2026-08-28T17:56:06Z</time>
  <course>247.28</course>
  <speed>0.022360679774997897</speed>
  <fix>3d</fix>
</trkpt>
<trkpt lat="40.0713749" lon="-105.229789">
  <ele>1583.0</ele>
  <time>2026-08-28T17:56:06Z</time>
  <course>0.0</course>
  <speed>0.0</speed>
  <fix>3d</fix>
</trkpt>
<trkpt lat="40.071375" lon="-105.2297889">
  <ele>1582.97</ele>
  <time>2026-08-28T17:56:06Z</time>
  <course>247.28</course>
  <speed>0.022360679774997897</speed>
  <fix>3d</fix>
</trkpt>
<trkpt lat="40.0713749" lon="-105.229789">
  <ele>1583.0</ele>
  <time>2026-08-28T17:56:06Z</time>
  <course>0.0</course>
  <speed>0.0</speed>
  <fix>3d</fix>
</trkpt>
<trkpt lat="40.071375" lon="-105.2297889">
  <ele>1582.97</ele>
  <time>2026-08-28T17:56:06Z</time>
  <course>247.28</course>
  <speed>0.022360679774997897</speed>
  <fix>3d</fix>
</trkpt>
<trkpt lat="40.0713749" lon="-105.229789">
  <ele>1583.0</ele>
  <time>2026-08-28T17:56:06Z</time>
  <course>0.0</course>
  <speed>0.0</speed>
  <fix>3d</fix>
</trkpt>
<trkpt lat="40.071375" lon="-105.2297889">
  <ele>1582.98</ele>
  <time>2026-08-28T17:56:06Z</time>
  <course>247.28</course>
  <speed>0.022360679774997897</speed>
  <fix>3d</fix>
</trkpt>
<trkpt lat="40.0713749" lon="-105.229789">
  <ele>1583.0</ele>
  <time>2026-08-28T17:56:06Z</time>
  <course>0.0</course>
  <speed>0.0</speed>
  <fix>3d</fix>
</trkpt>
<trkpt lat="40.0713751" lon="-105.2297889">
  <ele>1582.98</ele>
  <time>2026-08-28T17:56:06Z</time>
  <course>247.28</course>
  <speed>0.022360679774997897</speed>
  <fix>3d</fix>
</trkpt>
<trkpt lat="40.0713749" lon="-105.229789">
  <ele>1583.0</ele>
  <time>2026-08-28T17:56:06Z</time>
  <course>0.0</course>
  <speed>0.0</speed>
  <fix>3d</fix>
</trkpt>
<trkpt lat="40.0713751" lon="-105.2297889">
  <ele>1582.99</ele>
  <time>2026-08-28T17:56:06Z</time>
  <course>247.27</course>
  <speed>0.022360679774997897</speed>
  <fix>3d</fix>
</trkpt>
<trkpt lat="40.0713749" lon="-105.229789">
  <ele>1583.0</ele>
  <time>2026-08-28T17:56:06Z</time>
  <course>0.0</course>
  <speed>0.0</speed>
  <fix>3d</fix>
</trkpt>
<trkpt lat="40.0713751" lon="-105.2297889">
  <ele>1582.99</ele>
  <time>2026-08-28T17:56:06Z</time>
  <course>247.27</course>
  <speed>0.022360679774997897</speed>
  <fix>3d</fix>
</trkpt>
<trkpt lat="40.0713749" lon="-105.229789">
  <ele>1583.0</ele>
  <time>2026-08-28T17:56:06Z</time>
  <course>0.0</course>
  <speed>0.0</speed>
  <fix>3d</fix>
</trkpt>
<trkpt lat="40.0713751" lon="-105.2297889">
  <ele>1582.99</ele>
  <time>2026-08-28T17:56:06Z</time>
  <course>247.27</course>
  <speed>0.022360679774997897</speed>
  <fix>3d</fix>
</trkpt>
<trkpt lat="40.0713749" lon="-105.229789">
  <ele>1583.0</ele>
  <time>2026-08-28T17:56:06Z</time>
  <course>0.0</course>
  <speed>0.0</speed>
  <fix>3d</fix>
</trkpt>
<trkpt lat="40.0713751" lon="-105.2297889">
  <ele>1583.0</ele>
  <time>2026-08-28T17:56:06Z</time>
  <course>247.27</course>
  <speed>0.022360679774997897</speed>
  <fix>3d</fix>
</trkpt>
<trkpt lat="40.0713749" lon="-105.229789">
  <ele>1583.0</ele>
  <time>2026-08-28T17:56:06Z</time>
  <course>0.0</course>
  <speed>0.0</speed>
  <fix>3d</fix>
</trkpt>
<trkpt lat="40.0713751" lon="-105.2297889">
  <ele>1583.0</ele>
  <time>2026-08-28T17:56:06Z</time>
  <course>247.27</course>
  <speed>0.022360679774997897</speed>
  <fix>3d</fix>
</trkpt>
<trkpt lat="40.0713749" lon="-105.229789">
  <ele>1583.0</ele>
  <time>2026-08-28T17:56:06Z</time>
  <course>0.0</course>
  <speed>0.0</speed>
  <fix>3d</fix>
</trkpt>
<trkpt lat="40.0713751" lon="-105.2297889">
  <ele>1583.01</ele>
  <time>2026-08-28T17:56:06Z</time>
  <course>247.27</course>
  <speed>0.022360679774997897</speed>
  <fix>3d</fix>
</trkpt>
<trkpt lat="40.0713749" lon="-105.229789">
  <ele>1583.0</ele>
  <time>2026-08-28T17:56:06Z</time>
  <course>0.0</course>
  <speed>0.0</speed>
  <fix>3d</fix>
</trkpt>
<trkpt lat="40.0713751" lon="-105.2297889">
  <ele>1583.01</ele>
  <time>2026-08-28T17:56:06Z</time>
  <course>247.27</course>
  <speed>0.022360679774997897</speed>
  <fix>3d</fix>
</trkpt>
<trkpt lat="40.0713749" lon="-105.229789">
  <ele>1583.0</ele>
  <time>2026-08-28T17:56:06Z</time>
  <course>0.0</course>
  <speed>0.0</speed>
  <fix>3d</fix>
</trkpt>
<trkpt lat="40.0713751" lon="-105.2297889">
  <ele>1583.02</ele>
  <time>2026-08-28T17:56:06Z</time>
  <course>247.27</course>
  <speed>0.022360679774997897</speed>
  <fix>3d</fix>
</trkpt>
<trkpt lat="40.0713749" lon="-105.229789">
  <ele>1583.0</ele>
  <time>2026-08-28T17:56:06Z</time>
  <course>0.0</course>
  <speed>0.0</speed>
  <fix>3d</fix>
</trkpt>
<trkpt lat="40.0713751" lon="-105.2297889">
  <ele>1583.02</ele>
  <time>2026-08-28T17:56:06Z</time>
  <course>247.26</course>
  <speed>0.022360679774997897</speed>
  <fix>3d</fix>
</trkpt>
<trkpt lat="40.0713749" lon="-105.229789">
  <ele>1583.0</ele>
  <time>2026-08-28T17:56:06Z</time>
  <course>0.0</course>
  <speed>0.0</speed>
  <fix>3d</fix>
</trkpt>
<trkpt lat="40.0713751" lon="-105.2297889">
  <ele>1583.02</ele>
  <time>2026-08-28T17:56:06Z</time>
  <course>247.26</course>
  <speed>0.022360679774997897</speed>
  <fix>3d</fix>
</trkpt>
<trkpt lat="40.0713749" lon="-105.229789">
  <ele>1583.0</ele>
  <time>2026-08-28T17:56:06Z</time>
  <course>0.0</course>
  <speed>0.0</speed>
  <fix>3d</fix>
</trkpt>
<trkpt lat="40.0713751" lon="-105.2297889">
  <ele>1583.02</ele>
  <time>2026-08-28T17:56:06Z</time>
  <course>247.26</course>
  <speed>0.022360679774997897</speed>
  <fix>3d</fix>
</trkpt>
<trkpt lat="40.0713749" lon="-105.229789">
  <ele>1583.0</ele>
  <time>2026-08-28T17:56:06Z</time>
  <course>0.0</course>
  <speed>0.0</speed>
  <fix>3d</fix>
</trkpt>
<trkpt lat="40.0713751" lon="-105.2297889">
  <ele>1583.02</ele>
  <time>2026-08-28T17:56:06Z</time>
  <course>247.26</course>
  <speed>0.022360679774997897</speed>
  <fix>3d</fix>
</trkpt>
<trkpt lat="40.0713749" lon="-105.229789">
  <ele>1583.0</ele>
  <time>2026-08-28T17:56:06Z</time>
  <course>0.0</course>
  <speed>0.0</speed>
  <fix>3d</fix>
</trkpt>
<trkpt lat="40.0713751" lon="-105.2297889">
  <ele>1583.02</ele>
  <time>2026-08-28T17:56:06Z</time>
  <course>247.26</course>
  <speed>0.022360679774997897</speed>
  <fix>3d</fix>
</trkpt>
<trkpt lat="40.0713749" lon="-105.229789">
  <ele>1583.0</ele>
  <time>2026-08-28T17:56:06Z</time>
  <course>0.0</course>
  <speed>0.0</speed>
  <fix>3d</fix>
</trkpt>
<trkpt lat="40.0713751" lon="-105.2297889">
  <ele>1583.02</ele>
  <time>2026-08-28T17:56:06Z</time>
  <course>247.26</course>
  <speed>0.022360679774997897</speed>
  <fix>3d</fix>
</trkpt>
<trkpt lat="40.0713749" lon="-105.229789">
  <ele>1583.0</ele>
  <time>2026-08-28T17:56:06Z</time>
  <course>0.0</course>
  <speed>0.0</speed>
  <fix>3d</fix>
</trkpt>
<trkpt lat="40.0713751" lon="-105.2297889">
  <ele>1583.01</ele>
  <time>2026-08-28T17:56:06Z</time>
  <course>247.26</course>
  <speed>0.022360679774997897</speed>
  <fix>3d</fix>
</trkpt>
<trkpt lat="40.0713749" lon="-105.229789">
  <ele>1583.0</ele>
  <time>2026-08-28T17:56:06Z</time>
  <course>0.0</course>
  <speed>0.0</speed>
  <fix>3d</fix>
</trkpt>
<trkpt lat="40.0713751" lon="-105.2297889">
  <ele>1583.01</ele>
  <time>2026-08-28T17:56:06Z</time>
  <course>247.26</course>
  <speed>0.022360679774997897</speed>
  <fix>3d</fix>
</trkpt>
<trkpt lat="40.0713749" lon="-105.229789">
  <ele>1583.0</ele>
  <time>2026-08-28T17:56:06Z</time>
  <course>0.0</course>
  <speed>0.0</speed>
  <fix>3d</fix>
</trkpt>
<trkpt lat="40.0713751" lon="-105.2297889">
  <ele>1583.0</ele>
  <time>2026-08-28T17:56:06Z</time>
  <course>247.26</course>
  <speed>0.022360679774997897</speed>
  <fix>3d</fix>
</trkpt>
<trkpt lat="40.0713749" lon="-105.229789">
  <ele>1583.0</ele>
  <time>2026-08-28T17:56:06Z</time>
  <course>0.0</course>
  <speed>0.0</speed>
  <fix>3d</fix>
</trkpt>
<trkpt lat="40.0713751" lon="-105.2297889">
  <ele>1582.99</ele>
  <time>2026-08-28T17:56:06Z</time>
  <course>247.25</course>
  <speed>0.022360679774997897</speed>
  <fix>3d</fix>
</trkpt>
<trkpt lat="40.0713749" lon="-105.229789">
  <ele>1583.0</ele>
  <time>2026-08-28T17:56:06Z</time>
  <course>0.0</course>
  <speed>0.0</speed>
  <fix>3d</fix>
</trkpt>
<trkpt lat="40.0713751" lon="-105.2297889">
  <ele>1582.99</ele>
  <time>2026-08-28T17:56:06Z</time>
  <course>247.25</course>
  <speed>0.022360679774997897</speed>
  <fix>3d</fix>
</trkpt>
<trkpt lat="40.0713749" lon="-105.229789">
  <ele>1583.0</ele>
  <time>2026-08-28T17:56:06Z</time>
  <course>0.0</course>
  <speed>0.0</speed>
  <fix>3d</fix>
</trkpt>
<trkpt lat="40.0713751" lon="-105.2297889">
  <ele>1582.98</ele>
  <time>2026-08-28T17:56:06Z</time>
  <course>247.25</course>
  <speed>0.022360679774997897</speed>
  <fix>3d</fix>
</trkpt>
<trkpt lat="40.0713749" lon="-105.229789">
  <ele>1583.0</ele>
  <time>2026-08-28T17:56:06Z</time>
  <course>0.0</course>
  <speed>0.0</speed>
  <fix>3d</fix>
</trkpt>
<trkpt lat="40.0713751" lon="-105.2297889">
  <ele>1582.98</ele>
  <time>2026-08-28T17:56:06Z</time>
  <course>247.25</course>
  <speed>0.02</speed>
  <fix>3d</fix>
</trkpt>
<trkpt lat="40.0713749" lon="-105.229789">
  <ele>1583.0</ele>
  <time>2026-08-28T17:56:06Z</time>
  <course>0.0</course>
  <speed>0.0</speed>
  <fix>3d</fix>
</trkpt>
<trkpt lat="40.0713751" lon="-105.2297889">
  <ele>1582.97</ele>
  <time>2026-08-28T17:56:06Z</time>
  <course>247.25</course>
  <speed>0.022360679774997897</speed>
  <fix>3d</fix>
</trkpt>
<trkpt lat="40.0713749" lon="-105.229789">
  <ele>1583.0</ele>
  <time>2026-08-28T17:56:06Z</time>
  <course>0.0</course>
  <speed>0.0</speed>
  <fix>3d</fix>
</trkpt>
<trkpt lat="40.0713751" lon="-105.2297889">
  <ele>1582.97</ele>
  <time>2026-08-28T17:56:06Z</time>
  <course>247.25</course>
  <speed>0.02</speed>
  <fix>3d</fix>
</trkpt>
<trkpt lat="40.0713749" lon="-105.229789">
  <ele>1583.0</ele>
  <time>2026-08-28T17:56:06Z</time>
  <course>0.0</course>
  <speed>0.0</speed>
  <fix>3d</fix>
</trkpt>
<trkpt lat="40.0713751" lon="-105.2297889">
  <ele>1582.97</ele>
  <time>2026-08-28T17:56:06Z</time>
  <course>247.25</course>
  <speed>0.02</speed>
  <fix>3d</fix>
</trkpt>
<trkpt lat="40.0713749" lon="-105.229789">
  <ele>1583.0</ele>
  <time>2026-08-28T17:56:06Z</time>
  <course>0.0</course>
  <speed>0.0</speed>
  <fix>3d</fix>
</trkpt>
<trkpt lat="40.0713751" lon="-105.2297889">
  <ele>1582.97</ele>
  <time>2026-08-28T17:56:06Z</time>
  <course>247.25</course>
  <speed>0.02</speed>
  <fix>3d</fix>
</trkpt>
<trkpt lat="40.0713749" lon="-105.229789">
  <ele>1583.0</ele>
  <time>2026-08-28T17:56:06Z</time>
  <course>0.0</course>
  <speed>0.0</speed>
  <fix>3d</fix>
</trkpt>
<trkpt lat="40.0713751" lon="-105.2297889">
  <ele>1582.97</ele>
  <time>2026-08-28T17:56:06Z</time>
  <course>247.24</course>
  <speed>0.02</speed>
  <fix>3d</fix>
</trkpt>
<trkpt lat="40.0713749" lon="-105.229789">
  <ele>1583.0</ele>
  <time>2026-08-28T17:56:06Z</time>
  <course>0.0</course>
  <speed>0.0</speed>
  <fix>3d</fix>
</trkpt>
<trkpt lat="40.0713751" lon="-105.2297889">
  <ele>1582.97</ele>
  <time>2026-08-28T17:56:06Z</time>
  <course>247.24</course>
  <speed>0.02</speed>
  <fix>3d</fix>
</trkpt>
<trkpt lat="40.0713749" lon="-105.229789">
  <ele>1583.0</ele>
  <time>2026-08-28T17:56:06Z</time>
  <course>0.0</course>
  <speed>0.0</speed>
  <fix>3d</fix>
</trkpt>
<trkpt lat="40.0713751" lon="-105.2297889">
  <ele>1582.97</ele>
  <time>2026-08-28T17:56:06Z</time>
  <course>247.24</course>
  <speed>0.02</speed>
  <fix>3d</fix>
</trkpt>
<trkpt lat="40.0713749" lon="-105.229789">
  <ele>1583.0</ele>
  <time>2026-08-28T17:56:06Z</time>
  <course>0.0</course>
  <speed>0.0</speed>
  <fix>3d</fix>
</trkpt>
<trkpt lat="40.0713751" lon="-105.2297889">
  <ele>1582.97</ele>
  <time>2026-08-28T17:56:06Z</time>
  <course>247.24</course>
  <speed>0.02</speed>
  <fix>3d</fix>
</trkpt>
<trkpt lat="40.0713749" lon="-105.229789">
  <ele>1583.0</ele>
  <time>2026-08-28T17:56:06Z</time>
  <course>0.0</course>
  <speed>0.0</speed>
  <fix>3d</fix>
</trkpt>
<trkpt lat="40.0713751" lon="-105.2297889">
  <ele>1582.97</ele>
  <time>2026-08-28T17:56:06Z</time>
  <course>247.24</course>
  <speed>0.02</speed>
  <fix>3d</fix>
</trkpt>
<trkpt lat="40.0713749" lon="-105.229789">
  <ele>1583.0</ele>
  <time>2026-08-28T17:56:06Z</time>
  <course>0.0</course>
  <speed>0.0</speed>
  <fix>3d</fix>
</trkpt>
<trkpt lat="40.0713751" lon="-105.2297889">
  <ele>1582.97</ele>
  <time>2026-08-28T17:56:06Z</time>
  <course>247.24</course>
  <speed>0.02</speed>
  <fix>3d</fix>
</trkpt>
<trkpt lat="40.0713749" lon="-105.229789">
  <ele>1583.0</ele>
  <time>2026-08-28T17:56:06Z</time>
  <course>0.0</course>
  <speed>0.0</speed>
  <fix>3d</fix>
</trkpt>
<trkpt lat="40.0713751" lon="-105.2297889">
  <ele>1582.98</ele>
  <time>2026-08-28T17:56:06Z</time>
  <course>247.24</course>
  <speed>0.02</speed>
  <fix>3d</fix>
</trkpt>
<trkpt lat="40.0713749" lon="-105.229789">
  <ele>1583.0</ele>
  <time>2026-08-28T17:56:06Z</time>
  <course>0.0</course>
  <speed>0.0</speed>
  <fix>3d</fix>
</trkpt>
<trkpt lat="40.0713751" lon="-105.2297889">
  <ele>1582.98</ele>
  <time>2026-08-28T17:56:06Z</time>
  <course>247.24</course>
  <speed>0.02</speed>
  <fix>3d</fix>
</trkpt>
<trkpt lat="40.0713749" lon="-105.229789">
  <ele>1583.0</ele>
  <time>2026-08-28T17:56:06Z</time>
  <course>0.0</course>
  <speed>0.0</speed>
  <fix>3d</fix>
</trkpt>
<trkpt lat="40.0713751" lon="-105.2297889">
  <ele>1582.97</ele>
  <time>2026-08-28T17:56:06Z</time>
  <course>247.24</course>
  <speed>0.02</speed>
  <fix>3d</fix>
</trkpt>
<trkpt lat="40.0713749" lon="-105.229789">
  <ele>1583.0</ele>
  <time>2026-08-28T17:56:06Z</time>
  <course>0.0</course>
  <speed>0.0</speed>
  <fix>3d</fix>
</trkpt>
<trkpt lat="40.0713751" lon="-105.2297889">
  <ele>1582.97</ele>
  <time>2026-08-28T17:56:06Z</time>
  <course>247.23</course>
  <speed>0.02</speed>
  <fix>3d</fix>
</trkpt>
<trkpt lat="40.0713749" lon="-105.229789">
  <ele>1583.0</ele>
  <time>2026-08-28T17:56:06Z</time>
  <course>0.0</course>
  <speed>0.0</speed>
  <fix>3d</fix>
</trkpt>
<trkpt lat="40.0713751" lon="-105.2297889">
  <ele>1582.97</ele>
  <time>2026-08-28T17:56:06Z</time>
  <course>247.23</course>
  <speed>0.02</speed>
  <fix>3d</fix>
</trkpt>
<trkpt lat="40.0713749" lon="-105.229789">
  <ele>1583.0</ele>
  <time>2026-08-28T17:56:06Z</time>
  <course>0.0</course>
  <speed>0.0</speed>
  <fix>3d</fix>
</trkpt>
<trkpt lat="40.0713751" lon="-105.2297889">
  <ele>1582.97</ele>
  <time>2026-08-28T17:56:06Z</time>
  <course>247.23</course>
  <speed>0.02</speed>
  <fix>3d</fix>
</trkpt>
<trkpt lat="40.0713749" lon="-105.229789">
  <ele>1583.0</ele>
  <time>2026-08-28T17:56:06Z</time>
  <course>0.0</course>
  <speed>0.0</speed>
  <fix>3d</fix>
</trkpt>
<trkpt lat="40.0713751" lon="-105.2297889">
  <ele>1582.97</ele>
  <time>2026-08-28T17:56:06Z</time>
  <course>247.23</course>
  <speed>0.02</speed>
  <fix>3d</fix>
</trkpt>
<trkpt lat="40.0713749" lon="-105.229789">
  <ele>1583.0</ele>
  <time>2026-08-28T17:56:06Z</time>
  <course>0.0</course>
  <speed>0.0</speed>
  <fix>3d</fix>
</trkpt>
<trkpt lat="40.0713751" lon="-105.2297889">
  <ele>1582.96</ele>
  <time>2026-08-28T17:56:06Z</time>
  <course>247.23</course>
  <speed>0.02</speed>
  <fix>3d</fix>
</trkpt>
<trkpt lat="40.0713749" lon="-105.229789">
  <ele>1583.0</ele>
  <time>2026-08-28T17:56:06Z</time>
  <course>0.0</course>
  <speed>0.0</speed>
  <fix>3d</fix>
</trkpt>
<trkpt lat="39.655741" lon="-104.1383097">
  <ele>1566.58</ele>
  <time>2026-08-28T17:56:06Z</time>
  <course>0.0</course>
  <speed>0.0</speed>
  <fix>3d</fix>
</trkpt>
<trkpt lat="40.0713749" lon="-105.229789">
  <ele>1583.0</ele>
  <time>2026-08-28T17:56:06Z</time>
  <course>0.0</course>
  <speed>0.0</speed>
  <fix>3d</fix>
</trkpt>
<trkpt lat="40.0713749" lon="-105.229789">
  <ele>1583.0</ele>
  <time>2026-08-28T17:56:06Z</time>
  <course>238.36</course>
  <speed>0.0</speed>
  <fix>3d</fix>
</trkpt>
<trkpt lat="40.0713749" lon="-105.229789">
  <ele>1583.0</ele>
  <time>2026-08-28T17:56:06Z</time>
  <course>0.0</course>
  <speed>0.0</speed>
  <fix>3d</fix>
</trkpt>
<trkpt lat="40.0713749" lon="-105.229789">
  <ele>1583.0</ele>
  <time>2026-08-28T17:56:06Z</time>
  <course>238.44</course>
  <speed>0.0</speed>
  <fix>3d</fix>
</trkpt>
<trkpt lat="40.0713749" lon="-105.229789">
  <ele>1583.0</ele>
  <time>2026-08-28T17:56:06Z</time>
  <course>0.0</course>
  <speed>0.0</speed>
  <fix>3d</fix>
</trkpt>
<trkpt lat="40.0713749" lon="-105.229789">
  <ele>1583.0</ele>
  <time>2026-08-28T17:56:06Z</time>
  <course>238.64</course>
  <speed>0.0</speed>
  <fix>3d</fix>
</trkpt>
<trkpt lat="40.0713749" lon="-105.229789">
  <ele>1583.0</ele>
  <time>2026-08-28T17:56:06Z</time>
  <course>0.0</course>
  <speed>0.0</speed>
  <fix>3d</fix>
</trkpt>
<trkpt lat="40.0713749" lon="-105.229789">
  <ele>1583.0</ele>
  <time>2026-08-28T17:56:06Z</time>
  <course>238.93</course>
  <speed>0.0</speed>
  <fix>3d</fix>
</trkpt>
<trkpt lat="40.0713749" lon="-105.229789">
  <ele>1583.0</ele>
  <time>2026-08-28T17:56:06Z</time>
  <course>0.0</course>
  <speed>0.0</speed>
  <fix>3d</fix>
</trkpt>
<trkpt lat="40.0713749" lon="-105.229789">
  <ele>1583.0</ele>
  <time>2026-08-28T17:56:06Z</time>
  <course>239.26</course>
  <speed>0.0</speed>
  <fix>3d</fix>
</trkpt>
<trkpt lat="40.0713749" lon="-105.229789">
  <ele>1583.0</ele>
  <time>2026-08-28T17:56:06Z</time>
  <course>0.0</course>
  <speed>0.0</speed>
  <fix>3d</fix>
</trkpt>
<trkpt lat="40.0713749" lon="-105.229789">
  <ele>1583.0</ele>
  <time>2026-08-28T17:56:06Z</time>
  <course>239.61</course>
  <speed>0.0</speed>
  <fix>3d</fix>
</trkpt>
<trkpt lat="40.0713749" lon="-105.229789">
  <ele>1583.0</ele>
  <time>2026-08-28T17:56:06Z</time>
  <course>0.0</course>
  <speed>0.0</speed>
  <fix>3d</fix>
</trkpt>
<trkpt lat="40.0713749" lon="-105.229789">
  <ele>1583.0</ele>
  <time>2026-08-28T17:56:06Z</time>
  <course>239.96</course>
  <speed>0.0</speed>
  <fix>3d</fix>
</trkpt>
<trkpt lat="40.0713749" lon="-105.229789">
  <ele>1583.0</ele>
  <time>2026-08-28T17:56:06Z</time>
  <course>0.0</course>
  <speed>0.0</speed>
  <fix>3d</fix>
</trkpt>
<trkpt lat="40.0713749" lon="-105.229789">
  <ele>1583.0</ele>
  <time>2026-08-28T17:56:06Z</time>
  <course>240.29</course>
  <speed>0.0</speed>
  <fix>3d</fix>
</trkpt>
<trkpt lat="40.0713749" lon="-105.229789">
  <ele>1583.0</ele>
  <time>2026-08-28T17:56:06Z</time>
  <course>0.0</course>
  <speed>0.0</speed>
  <fix>3d</fix>
</trkpt>
<trkpt lat="40.0713749" lon="-105.229789">
  <ele>1583.0</ele>
  <time>2026-08-28T17:56:06Z</time>
  <course>240.61</course>
  <speed>0.0</speed>
  <fix>3d</fix>
</trkpt>
<trkpt lat="40.0713749" lon="-105.229789">
  <ele>1583.0</ele>
  <time>2026-08-28T17:56:06Z</time>
  <course>0.0</course>
  <speed>0.0</speed>
  <fix>3d</fix>
</trkpt>
<trkpt lat="40.0713749" lon="-105.229789">
  <ele>1583.0</ele>
  <time>2026-08-28T17:56:06Z</time>
  <course>240.92</course>
  <speed>0.0</speed>
  <fix>3d</fix>
</trkpt>
<trkpt lat="40.0713749" lon="-105.229789">
  <ele>1583.0</ele>
  <time>2026-08-28T17:56:06Z</time>
  <course>0.0</course>
  <speed>0.0</speed>
  <fix>3d</fix>
</trkpt>
<trkpt lat="40.0713749" lon="-105.229789">
  <ele>1583.0</ele>
  <time>2026-08-28T17:56:06Z</time>
  <course>241.21</course>
  <speed>0.0</speed>
  <fix>3d</fix>
</trkpt>
<trkpt lat="40.0713749" lon="-105.229789">
  <ele>1583.0</ele>
  <time>2026-08-28T17:56:06Z</time>
  <course>0.0</course>
  <speed>0.0</speed>
  <fix>3d</fix>
</trkpt>
<trkpt lat="40.0713749" lon="-105.229789">
  <ele>1583.0</ele>
  <time>2026-08-28T17:56:06Z</time>
  <course>241.49</course>
  <speed>0.0</speed>
  <fix>3d</fix>
</trkpt>
<trkpt lat="40.0713749" lon="-105.229789">
  <ele>1583.0</ele>
  <time>2026-08-28T17:56:06Z</time>
  <course>0.0</course>
  <speed>0.0</speed>
  <fix>3d</fix>
</trkpt>
<trkpt lat="40.0713749" lon="-105.229789">
  <ele>1583.0</ele>
  <time>2026-08-28T17:56:06Z</time>
  <course>241.77</course>
  <speed>0.0</speed>
  <fix>3d</fix>
</trkpt>
<trkpt lat="40.0713749" lon="-105.229789">
  <ele>1583.0</ele>
  <time>2026-08-28T17:56:06Z</time>
  <course>0.0</course>
  <speed>0.0</speed>
  <fix>3d</fix>
</trkpt>
<trkpt lat="40.0713749" lon="-105.229789">
  <ele>1583.0</ele>
  <time>2026-08-28T17:56:06Z</time>
  <course>242.03</course>
  <speed>0.0</speed>
  <fix>3d</fix>
</trkpt>
<trkpt lat="40.0713749" lon="-105.229789">
  <ele>1583.0</ele>
  <time>2026-08-28T17:56:06Z</time>
  <course>0.0</course>
  <speed>0.0</speed>
  <fix>3d</fix>
</trkpt>
<trkpt lat="40.0713749" lon="-105.229789">
  <ele>1583.0</ele>
  <time>2026-08-28T17:56:06Z</time>
  <course>242.29</course>
  <speed>0.0</speed>
  <fix>3d</fix>
</trkpt>
<trkpt lat="40.0713749" lon="-105.229789">
  <ele>1583.0</ele>
  <time>2026-08-28T17:56:06Z</time>
  <course>0.0</course>
  <speed>0.0</speed>
  <fix>3d</fix>
</trkpt>
<trkpt lat="40.0713749" lon="-105.229789">
  <ele>1583.0</ele>
  <time>2026-08-28T17:56:06Z</time>
  <course>242.54</course>
  <speed>0.0</speed>
  <fix>3d</fix>
</trkpt>
<trkpt lat="40.0713749" lon="-105.229789">
  <ele>1583.0</ele>
  <time>2026-08-28T17:56:07Z</time>
  <course>0.0</course>
  <speed>0.0</speed>
  <fix>3d</fix>
</trkpt>
<trkpt lat="40.0713749" lon="-105.229789">
  <ele>1583.0</ele>
  <time>2026-08-28T17:56:07Z</time>
  <course>242.79</course>
  <speed>0.0</speed>
  <fix>3d</fix>
</trkpt>
<trkpt lat="40.0713749" lon="-105.229789">
  <ele>1583.0</ele>
  <time>2026-08-28T17:56:07Z</time>
  <course>0.0</course>
  <speed>0.0</speed>
  <fix>3d</fix>
</trkpt>
<trkpt lat="40.0713749" lon="-105.229789">
  <ele>1583.0</ele>
  <time>2026-08-28T17:56:07Z</time>
  <course>243.02</course>
  <speed>0.0</speed>
  <fix>3d</fix>
</trkpt>
<trkpt lat="40.0713749" lon="-105.229789">
  <ele>1583.0</ele>
  <time>2026-08-28T17:56:07Z</time>
  <course>0.0</course>
  <speed>0.0</speed>
  <fix>3d</fix>
</trkpt>
<trkpt lat="40.0713749" lon="-105.229789">
  <ele>1583.0</ele>
  <time>2026-08-28T17:56:07Z</time>
  <course>243.25</course>
  <speed>0.0</speed>
  <fix>3d</fix>
</trkpt>
<trkpt lat="40.0713749" lon="-105.229789">
  <ele>1583.0</ele>
  <time>2026-08-28T17:56:07Z</time>
  <course>0.0</course>
  <speed>0.0</speed>
  <fix>3d</fix>
</trkpt>
<trkpt lat="40.0713749" lon="-105.229789">
  <ele>1583.0</ele>
  <time>2026-08-28T17:56:07Z</time>
  <course>243.47</course>
  <speed>0.0</speed>
  <fix>3d</fix>
</trkpt>
<trkpt lat="40.0713749" lon="-105.229789">
  <ele>1583.0</ele>
  <time>2026-08-28T17:56:07Z</time>
  <course>0.0</course>
  <speed>0.0</speed>
  <fix>3d</fix>
</trkpt>
<trkpt lat="40.0713749" lon="-105.229789">
  <ele>1583.0</ele>
  <time>2026-08-28T17:56:07Z</time>
  <course>243.68</course>
  <speed>0.0</speed>
  <fix>3d</fix>
</trkpt>
<trkpt lat="40.0713749" lon="-105.229789">
  <ele>1583.0</ele>
  <time>2026-08-28T17:56:07Z</time>
  <course>0.0</course>
  <speed>0.0</speed>
  <fix>3d</fix>
</trkpt>
<trkpt lat="40.0713749" lon="-105.229789">
  <ele>1583.0</ele>
  <time>2026-08-28T17:56:07Z</time>
  <course>243.89</course>
  <speed>0.0</speed>
  <fix>3d</fix>
</trkpt>
<trkpt lat="40.0713749" lon="-105.229789">
  <ele>1583.0</ele>
  <time>2026-08-28T17:56:07Z</time>
  <course>0.0</course>
  <speed>0.0</speed>
  <fix>3d</fix>
</trkpt>
<trkpt lat="40.0713749" lon="-105.229789">
  <ele>1583.0</ele>
  <time>2026-08-28T17:56:07Z</time>
  <course>244.09</course>
  <speed>0.0</speed>
  <fix>3d</fix>
</trkpt>
<trkpt lat="40.0713749" lon="-105.229789">
  <ele>1583.0</ele>
  <time>2026-08-28T17:56:07Z</time>
  <course>0.0</course>
  <speed>0.0</speed>
  <fix>3d</fix>
</trkpt>
<trkpt lat="40.0713749" lon="-105.229789">
  <ele>1583.0</ele>
  <time>2026-08-28T17:56:07Z</time>
  <course>244.28</course>
  <speed>0.0</speed>
  <fix>3d</fix>
</trkpt>
<trkpt lat="40.0713749" lon="-105.229789">
  <ele>1583.0</ele>
  <time>2026-08-28T17:56:07Z</time>
  <course>0.0</course>
  <speed>0.0</speed>
  <fix>3d</fix>
</trkpt>
<trkpt lat="40.0713749" lon="-105.229789">
  <ele>1583.0</ele>
  <time>2026-08-28T17:56:07Z</time>
  <course>244.46</course>
  <speed>0.0</speed>
  <fix>3d</fix>
</trkpt>
<trkpt lat="40.0713749" lon="-105.229789">
  <ele>1583.0</ele>
  <time>2026-08-28T17:56:07Z</time>
  <course>0.0</course>
  <speed>0.0</speed>
  <fix>3d</fix>
</trkpt>
<trkpt lat="40.0713749" lon="-105.229789">
  <ele>1583.0</ele>
  <time>2026-08-28T17:56:07Z</time>
  <course>244.64</course>
  <speed>0.0</speed>
  <fix>3d</fix>
</trkpt>
<trkpt lat="40.0713749" lon="-105.229789">
  <ele>1583.0</ele>
  <time>2026-08-28T17:56:07Z</time>
  <course>0.0</course>
  <speed>0.0</speed>
  <fix>3d</fix>
</trkpt>
<trkpt lat="40.0713749" lon="-105.229789">
  <ele>1583.0</ele>
  <time>2026-08-28T17:56:07Z</time>
  <course>244.81</course>
  <speed>0.0</speed>
  <fix>3d</fix>
</trkpt>
<trkpt lat="40.0713749" lon="-105.229789">
  <ele>1583.0</ele>
  <time>2026-08-28T17:56:07Z</time>
  <course>0.0</course>
  <speed>0.0</speed>
  <fix>3d</fix>
</trkpt>
<trkpt lat="40.0713749" lon="-105.229789">
  <ele>1583.0</ele>
  <time>2026-08-28T17:56:07Z</time>
  <course>244.97</course>
  <speed>0.0</speed>
  <fix>3d</fix>
</trkpt>
<trkpt lat="40.0713749" lon="-105.229789">
  <ele>1583.0</ele>
  <time>2026-08-28T17:56:07Z</time>
  <course>0.0</course>
  <speed>0.0</speed>
  <fix>3d</fix>
</trkpt>
<trkpt lat="40.0713749" lon="-105.229789">
  <ele>1583.0</ele>
  <time>2026-08-28T17:56:07Z</time>
  <course>245.13</course>
  <speed>0.0</speed>
  <fix>3d</fix>
</trkpt>
<trkpt lat="40.0713749" lon="-105.229789">
  <ele>1583.0</ele>
  <time>2026-08-28T17:56:07Z</time>
  <course>0.0</course>
  <speed>0.0</speed>
  <fix>3d</fix>
</trkpt>
<trkpt lat="40.0713749" lon="-105.229789">
  <ele>1583.0</ele>
  <time>2026-08-28T17:56:07Z</time>
  <course>245.29</course>
  <speed>0.0</speed>
  <fix>3d</fix>
</trkpt>
<trkpt lat="40.0713749" lon="-105.229789">
  <ele>1583.0</ele>
  <time>2026-08-28T17:56:07Z</time>
  <course>0.0</course>
  <speed>0.0</speed>
  <fix>3d</fix>
</trkpt>
<trkpt lat="40.0713749" lon="-105.229789">
  <ele>1583.0</ele>
  <time>2026-08-28T17:56:07Z</time>
  <course>245.43</course>
  <speed>0.0</speed>
  <fix>3d</fix>
</trkpt>
<trkpt lat="40.0713749" lon="-105.229789">
  <ele>1583.0</ele>
  <time>2026-08-28T17:56:07Z</time>
  <course>0.0</course>
  <speed>0.0</speed>
  <fix>3d</fix>
</trkpt>
<trkpt lat="40.0713749" lon="-105.229789">
  <ele>1583.0</ele>
  <time>2026-08-28T17:56:07Z</time>
  <course>245.57</course>
  <speed>0.0</speed>
  <fix>3d</fix>
</trkpt>
<trkpt lat="40.0713749" lon="-105.229789">
  <ele>1583.0</ele>
  <time>2026-08-28T17:56:07Z</time>
  <course>0.0</course>
  <speed>0.0</speed>
  <fix>3d</fix>
</trkpt>
<trkpt lat="40.0713749" lon="-105.229789">
  <ele>1583.0</ele>
  <time>2026-08-28T17:56:07Z</time>
  <course>245.71</course>
  <speed>0.0</speed>
  <fix>3d</fix>
</trkpt>
<trkpt lat="40.0713749" lon="-105.229789">
  <ele>1583.0</ele>
  <time>2026-08-28T17:56:07Z</time>
  <course>0.0</course>
  <speed>0.0</speed>
  <fix>3d</fix>
</trkpt>
<trkpt lat="40.0713749" lon="-105.229789">
  <ele>1583.0</ele>
  <time>2026-08-28T17:56:07Z</time>
  <course>245.84</course>
  <speed>0.0</speed>
  <fix>3d</fix>
</trkpt>
<trkpt lat="40.0713749" lon="-105.229789">
  <ele>1583.0</ele>
  <time>2026-08-28T17:56:07Z</time>
  <course>0.0</course>
  <speed>0.0</speed>
  <fix>3d</fix>
</trkpt>
<trkpt lat="40.0713749" lon="-105.229789">
  <ele>1583.0</ele>
  <time>2026-08-28T17:56:07Z</time>
  <course>245.96</course>
  <speed>0.0</speed>
  <fix>3d</fix>
</trkpt>
<trkpt lat="40.0713749" lon="-105.229789">
  <ele>1583.0</ele>
  <time>2026-08-28T17:56:07Z</time>
  <course>0.0</course>
  <speed>0.0</speed>
  <fix>3d</fix>
</trkpt>
<trkpt lat="40.0713749" lon="-105.229789">
  <ele>1583.0</ele>
  <time>2026-08-28T17:56:07Z</time>
  <course>246.08</course>
  <speed>0.0</speed>
  <fix>3d</fix>
</trkpt>
<trkpt lat="40.0713749" lon="-105.229789">
  <ele>1583.0</ele>
  <time>2026-08-28T17:56:07Z</time>
  <course>0.0</course>
  <speed>0.0</speed>
  <fix>3d</fix>
</trkpt>
<trkpt lat="40.0713749" lon="-105.229789">
  <ele>1583.0</ele>
  <time>2026-08-28T17:56:07Z</time>
  <course>246.19</course>
  <speed>0.0</speed>
  <fix>3d</fix>
</trkpt>
<trkpt lat="40.0713749" lon="-105.229789">
  <ele>1583.0</ele>
  <time>2026-08-28T17:56:07Z</time>
  <course>0.0</course>
  <speed>0.0</speed>
  <fix>3d</fix>
</trkpt>
<trkpt lat="40.0713749" lon="-105.229789">
  <ele>1583.0</ele>
  <time>2026-08-28T17:56:07Z</time>
  <course>246.3</course>
  <speed>0.0</speed>
  <fix>3d</fix>
</trkpt>
<trkpt lat="40.0713749" lon="-105.229789">
  <ele>1583.0</ele>
  <time>2026-08-28T17:56:07Z</time>
  <course>0.0</course>
  <speed>0.0</speed>
  <fix>3d</fix>
</trkpt>
<trkpt lat="40.0713749" lon="-105.229789">
  <ele>1583.0</ele>
  <time>2026-08-28T17:56:07Z</time>
  <course>246.41</course>
  <speed>0.0</speed>
  <fix>3d</fix>
</trkpt>
<trkpt lat="40.0713749" lon="-105.229789">
  <ele>1583.0</ele>
  <time>2026-08-28T17:56:07Z</time>
  <course>0.0</course>
  <speed>0.0</speed>
  <fix>3d</fix>
</trkpt>
<trkpt lat="40.0713749" lon="-105.229789">
  <ele>1583.0</ele>
  <time>2026-08-28T17:56:07Z</time>
  <course>246.51</course>
  <speed>0.0</speed>
  <fix>3d</fix>
</trkpt>
<trkpt lat="40.0713749" lon="-105.229789">
  <ele>1583.0</ele>
  <time>2026-08-28T17:56:07Z</time>
  <course>0.0</course>
  <speed>0.0</speed>
  <fix>3d</fix>
</trkpt>
<trkpt lat="40.0713749" lon="-105.229789">
  <ele>1583.0</ele>
  <time>2026-08-28T17:56:07Z</time>
  <course>246.6</course>
  <speed>0.0</speed>
  <fix>3d</fix>
</trkpt>
<trkpt lat="40.0713749" lon="-105.229789">
  <ele>1583.0</ele>
  <time>2026-08-28T17:56:07Z</time>
  <course>0.0</course>
  <speed>0.0</speed>
  <fix>3d</fix>
</trkpt>
<trkpt lat="40.0713749" lon="-105.229789">
  <ele>1583.0</ele>
  <time>2026-08-28T17:56:07Z</time>
  <course>246.7</course>
  <speed>0.0</speed>
  <fix>3d</fix>
</trkpt>
<trkpt lat="40.0713749" lon="-105.229789">
  <ele>1583.0</ele>
  <time>2026-08-28T17:56:07Z</time>
  <course>0.0</course>
  <speed>0.0</speed>
  <fix>3d</fix>
</trkpt>
<trkpt lat="40.0713749" lon="-105.229789">
  <ele>1583.0</ele>
  <time>2026-08-28T17:56:07Z</time>
  <course>246.78</course>
  <speed>0.0</speed>
  <fix>3d</fix>
</trkpt>
<trkpt lat="40.0713749" lon="-105.229789">
  <ele>1583.0</ele>
  <time>2026-08-28T17:56:07Z</time>
  <course>0.0</course>
  <speed>0.0</speed>
  <fix>3d</fix>
</trkpt>
<trkpt lat="40.0713749" lon="-105.229789">
  <ele>1583.0</ele>
  <time>2026-08-28T17:56:07Z</time>
  <course>246.87</course>
  <speed>0.0</speed>
  <fix>3d</fix>
</trkpt>
<trkpt lat="40.0713749" lon="-105.229789">
  <ele>1583.0</ele>
  <time>2026-08-28T17:56:07Z</time>
  <course>0.0</course>
  <speed>0.0</speed>
  <fix>3d</fix>
</trkpt>
<trkpt lat="40.0713749" lon="-105.229789">
  <ele>1583.0</ele>
  <time>2026-08-28T17:56:07Z</time>
  <course>246.95</course>
  <speed>0.0</speed>
  <fix>3d</fix>
</trkpt>
<trkpt lat="40.0713749" lon="-105.229789">
  <ele>1583.0</ele>
  <time>2026-08-28T17:56:07Z</time>
  <course>0.0</course>
  <speed>0.0</speed>
  <fix>3d</fix>
</trkpt>
<trkpt lat="40.0713749" lon="-105.229789">
  <ele>1583.0</ele>
  <time>2026-08-28T17:56:07Z</time>
  <course>247.02</course>
  <speed>0.0</speed>
  <fix>3d</fix>
</trkpt>
<trkpt lat="40.0713749" lon="-105.229789">
  <ele>1583.0</ele>
  <time>2026-08-28T17:56:07Z</time>
  <course>0.0</course>
  <speed>0.0</speed>
  <fix>3d</fix>
</trkpt>
<trkpt lat="40.0713749" lon="-105.229789">
  <ele>1583.0</ele>
  <time>2026-08-28T17:56:07Z</time>
  <course>247.1</course>
  <speed>0.0</speed>
  <fix>3d</fix>
</trkpt>
<trkpt lat="40.0713749" lon="-105.229789">
  <ele>1583.0</ele>
  <time>2026-08-28T17:56:07Z</time>
  <course>0.0</course>
  <speed>0.0</speed>
  <fix>3d</fix>
</trkpt>
<trkpt lat="40.0713749" lon="-105.229789">
  <ele>1583.0</ele>
  <time>2026-08-28T17:56:07Z</time>
  <course>247.17</course>
  <speed>0.0</speed>
  <fix>3d</fix>
</trkpt>
<trkpt lat="40.0713749" lon="-105.229789">
  <ele>1583.0</ele>
  <time>2026-08-28T17:56:07Z</time>
  <course>0.0</course>
  <speed>0.0</speed>
  <fix>3d</fix>
</trkpt>
<trkpt lat="40.0713749" lon="-105.229789">
  <ele>1583.0</ele>
  <time>2026-08-28T17:56:07Z</time>
  <course>247.24</course>
  <speed>0.0</speed>
  <fix>3d</fix>
</trkpt>
<trkpt lat="40.0713749" lon="-105.229789">
  <ele>1583.0</ele>
  <time>2026-08-28T17:56:07Z</time>
  <course>0.0</course>
  <speed>0.0</speed>
  <fix>3d</fix>
</trkpt>
<trkpt lat="40.0713749" lon="-105.229789">
  <ele>1583.0</ele>
  <time>2026-08-28T17:56:07Z</time>
  <course>247.3</course>
  <speed>0.0</speed>
  <fix>3d</fix>
</trkpt>
<trkpt lat="40.0713749" lon="-105.229789">
  <ele>1583.0</ele>
  <time>2026-08-28T17:56:07Z</time>
  <course>0.0</course>
  <speed>0.0</speed>
  <fix>3d</fix>
</trkpt>
<trkpt lat="40.0713749" lon="-105.229789">
  <ele>1583.0</ele>
  <time>2026-08-28T17:56:07Z</time>
  <course>247.36</course>
  <speed>0.0</speed>
  <fix>3d</fix>
</trkpt>
<trkpt lat="40.0713749" lon="-105.229789">
  <ele>1583.0</ele>
  <time>2026-08-28T17:56:07Z</time>
  <course>0.0</course>
  <speed>0.0</speed>
  <fix>3d</fix>
</trkpt>
<trkpt lat="40.0713749" lon="-105.229789">
  <ele>1583.0</ele>
  <time>2026-08-28T17:56:07Z</time>
  <course>247.42</course>
  <speed>0.0</speed>
  <fix>3d</fix>
</trkpt>
<trkpt lat="40.0713749" lon="-105.229789">
  <ele>1583.0</ele>
  <time>2026-08-28T17:56:07Z</time>
  <course>0.0</course>
  <speed>0.0</speed>
  <fix>3d</fix>
</trkpt>
<trkpt lat="40.0713749" lon="-105.229789">
  <ele>1583.0</ele>
  <time>2026-08-28T17:56:07Z</time>
  <course>247.47</course>
  <speed>0.0</speed>
  <fix>3d</fix>
</trkpt>
<trkpt lat="40.0713749" lon="-105.229789">
  <ele>1583.0</ele>
  <time>2026-08-28T17:56:07Z</time>
  <course>0.0</course>
  <speed>0.0</speed>
  <fix>3d</fix>
</trkpt>
<trkpt lat="40.0713749" lon="-105.229789">
  <ele>1583.0</ele>
  <time>2026-08-28T17:56:07Z</time>
  <course>247.53</course>
  <speed>0.0</speed>
  <fix>3d</fix>
</trkpt>
<trkpt lat="40.0713749" lon="-105.229789">
  <ele>1583.0</ele>
  <time>2026-08-28T17:56:07Z</time>
  <course>0.0</course>
  <speed>0.0</speed>
  <fix>3d</fix>
</trkpt>
<trkpt lat="40.0713749" lon="-105.229789">
  <ele>1583.0</ele>
  <time>2026-08-28T17:56:07Z</time>
  <course>247.58</course>
  <speed>0.0</speed>
  <fix>3d</fix>
</trkpt>
<trkpt lat="40.0713749" lon="-105.229789">
  <ele>1583.0</ele>
  <time>2026-08-28T17:56:07Z</time>
  <course>0.0</course>
  <speed>0.0</speed>
  <fix>3d</fix>
</trkpt>
<trkpt lat="40.0713749" lon="-105.229789">
  <ele>1583.0</ele>
  <time>2026-08-28T17:56:07Z</time>
  <course>247.63</course>
  <speed>0.0</speed>
  <fix>3d</fix>
</trkpt>
<trkpt lat="40.0713749" lon="-105.229789">
  <ele>1583.0</ele>
  <time>2026-08-28T17:56:07Z</time>
  <course>0.0</course>
  <speed>0.0</speed>
  <fix>3d</fix>
</trkpt>
<trkpt lat="40.0713749" lon="-105.229789">
  <ele>1583.0</ele>
  <time>2026-08-28T17:56:07Z</time>
  <course>247.67</course>
  <speed>0.0</speed>
  <fix>3d</fix>
</trkpt>
<trkpt lat="40.0713749" lon="-105.229789">
  <ele>1583.0</ele>
  <time>2026-08-28T17:56:07Z</time>
  <course>0.0</course>
  <speed>0.0</speed>
  <fix>3d</fix>
</trkpt>
<trkpt lat="40.0713749" lon="-105.229789">
  <ele>1583.0</ele>
  <time>2026-08-28T17:56:07Z</time>
  <course>247.72</course>
  <speed>0.0</speed>
  <fix>3d</fix>
</trkpt>
<trkpt lat="40.0713749" lon="-105.229789">
  <ele>1583.0</ele>
  <time>2026-08-28T17:56:07Z</time>
  <course>0.0</course>
  <speed>0.0</speed>
  <fix>3d</fix>
</trkpt>
<trkpt lat="40.0713749" lon="-105.229789">
  <ele>1583.0</ele>
  <time>2026-08-28T17:56:07Z</time>
  <course>247.76</course>
  <speed>0.0</speed>
  <fix>3d</fix>
</trkpt>
<trkpt lat="40.0713749" lon="-105.229789">
  <ele>1583.0</ele>
  <time>2026-08-28T17:56:07Z</time>
  <course>0.0</course>
  <speed>0.0</speed>
  <fix>3d</fix>
</trkpt>
<trkpt lat="40.0713749" lon="-105.229789">
  <ele>1583.0</ele>
  <time>2026-08-28T17:56:07Z</time>
  <course>247.8</course>
  <speed>0.0</speed>
  <fix>3d</fix>
</trkpt>
<trkpt lat="40.0713749" lon="-105.229789">
  <ele>1583.0</ele>
  <time>2026-08-28T17:56:07Z</time>
  <course>0.0</course>
  <speed>0.0</speed>
  <fix>3d</fix>
</trkpt>
<trkpt lat="40.0713749" lon="-105.229789">
  <ele>1583.0</ele>
  <time>2026-08-28T17:56:07Z</time>
  <course>247.83</course>
  <speed>0.0</speed>
  <fix>3d</fix>
</trkpt>
<trkpt lat="40.0713749" lon="-105.229789">
  <ele>1583.0</ele>
  <time>2026-08-28T17:56:07Z</time>
  <course>0.0</course>
  <speed>0.0</speed>
  <fix>3d</fix>
</trkpt>
<trkpt lat="40.0713749" lon="-105.229789">
  <ele>1583.0</ele>
  <time>2026-08-28T17:56:07Z</time>
  <course>247.87</course>
  <speed>0.0</speed>
  <fix>3d</fix>
</trkpt>
<trkpt lat="40.0713749" lon="-105.229789">
  <ele>1583.0</ele>
  <time>2026-08-28T17:56:07Z</time>
  <course>0.0</course>
  <speed>0.0</speed>
  <fix>3d</fix>
</trkpt>
<trkpt lat="40.0713749" lon="-105.229789">
  <ele>1583.0</ele>
  <time>2026-08-28T17:56:07Z</time>
  <course>247.9</course>
  <speed>0.0</speed>
  <fix>3d</fix>
</trkpt>
<trkpt lat="40.0713749" lon="-105.229789">
  <ele>1583.0</ele>
  <time>2026-08-28T17:56:07Z</time>
  <course>0.0</course>
  <speed>0.0</speed>
  <fix>3d</fix>
</trkpt>
<trkpt lat="40.0713749" lon="-105.229789">
  <ele>1583.0</ele>
  <time>2026-08-28T17:56:07Z</time>
  <course>247.94</course>
  <speed>0.0</speed>
  <fix>3d</fix>
</trkpt>
<trkpt lat="40.0713749" lon="-105.229789">
  <ele>1583.0</ele>
  <time>2026-08-28T17:56:07Z</time>
  <course>0.0</course>
  <speed>0.0</speed>
  <fix>3d</fix>
</trkpt>
<trkpt lat="40.0713749" lon="-105.229789">
  <ele>1583.0</ele>
  <time>2026-08-28T17:56:07Z</time>
  <course>247.97</course>
  <speed>0.0</speed>
  <fix>3d</fix>
</trkpt>
<trkpt lat="40.0713749" lon="-105.229789">
  <ele>1583.0</ele>
  <time>2026-08-28T17:56:07Z</time>
  <course>0.0</course>
  <speed>0.0</speed>
  <fix>3d</fix>
</trkpt>
<trkpt lat="40.0713749" lon="-105.229789">
  <ele>1583.0</ele>
  <time>2026-08-28T17:56:07Z</time>
  <course>248.0</course>
  <speed>0.0</speed>
  <fix>3d</fix>
</trkpt>
<trkpt lat="40.0713749" lon="-105.229789">
  <ele>1583.0</ele>
  <time>2026-08-28T17:56:07Z</time>
  <course>0.0</course>
  <speed>0.0</speed>
  <fix>3d</fix>
</trkpt>
<trkpt lat="40.0713749" lon="-105.229789">
  <ele>1583.0</ele>
  <time>2026-08-28T17:56:07Z</time>
  <course>248.02</course>
  <speed>0.0</speed>
  <fix>3d</fix>
</trkpt>
<trkpt lat="40.0713749" lon="-105.229789">
  <ele>1583.0</ele>
  <time>2026-08-28T17:56:07Z</time>
  <course>0.0</course>
  <speed>0.0</speed>
  <fix>3d</fix>
</trkpt>
<trkpt lat="40.0713749" lon="-105.229789">
  <ele>1583.0</ele>
  <time>2026-08-28T17:56:07Z</time>
  <course>248.05</course>
  <speed>0.0</speed>
  <fix>3d</fix>
</trkpt>
<trkpt lat="40.0713749" lon="-105.229789">
  <ele>1583.0</ele>
  <time>2026-08-28T17:56:07Z</time>
  <course>0.0</course>
  <speed>0.0</speed>
  <fix>3d</fix>
</trkpt>
<trkpt lat="40.0713749" lon="-105.229789">
  <ele>1583.0</ele>
  <time>2026-08-28T17:56:07Z</time>
  <course>248.08</course>
  <speed>0.0</speed>
  <fix>3d</fix>
</trkpt>
<trkpt lat="40.0713749" lon="-105.229789">
  <ele>1583.0</ele>
  <time>2026-08-28T17:56:07Z</time>
  <course>0.0</course>
  <speed>0.0</speed>
  <fix>3d</fix>
</trkpt>
<trkpt lat="40.0713749" lon="-105.229789">
  <ele>1583.0</ele>
  <time>2026-08-28T17:56:07Z</time>
  <course>248.1</course>
  <speed>0.0</speed>
  <fix>3d</fix>
</trkpt>
<trkpt lat="40.0713749" lon="-105.229789">
  <ele>1583.0</ele>
  <time>2026-08-28T17:56:07Z</time>
  <course>0.0</course>
  <speed>0.0</speed>
  <fix>3d</fix>
</trkpt>
<trkpt lat="40.0713749" lon="-105.229789">
  <ele>1583.0</ele>
  <time>2026-08-28T17:56:07Z</time>
  <course>248.12</course>
  <speed>0.0</speed>
  <fix>3d</fix>
</trkpt>
<trkpt lat="40.0713749" lon="-105.229789">
  <ele>1583.0</ele>
  <time>2026-08-28T17:56:07Z</time>
  <course>0.0</course>
  <speed>0.0</speed>
  <fix>3d</fix>
</trkpt>
<trkpt lat="40.0713749" lon="-105.229789">
  <ele>1583.0</ele>
  <time>2026-08-28T17:56:07Z</time>
  <course>248.14</course>
  <speed>0.0</speed>
  <fix>3d</fix>
</trkpt>
<trkpt lat="40.0713749" lon="-105.229789">
  <ele>1583.0</ele>
  <time>2026-08-28T17:56:07Z</time>
  <course>0.0</course>
  <speed>0.0</speed>
  <fix>3d</fix>
</trkpt>
<trkpt lat="40.0713749" lon="-105.229789">
  <ele>1583.0</ele>
  <time>2026-08-28T17:56:07Z</time>
  <course>248.16</course>
  <speed>0.0</speed>
  <fix>3d</fix>
</trkpt>
<trkpt lat="40.0713749" lon="-105.229789">
  <ele>1583.0</ele>
  <time>2026-08-28T17:56:07Z</time>
  <course>0.0</course>
  <speed>0.0</speed>
  <fix>3d</fix>
</trkpt>
<trkpt lat="40.0713749" lon="-105.229789">
  <ele>1583.0</ele>
  <time>2026-08-28T17:56:07Z</time>
  <course>248.18</course>
  <speed>0.0</speed>
  <fix>3d</fix>
</trkpt>
<trkpt lat="40.0713749" lon="-105.229789">
  <ele>1583.0</ele>
  <time>2026-08-28T17:56:07Z</time>
  <course>0.0</course>
  <speed>0.0</speed>
  <fix>3d</fix>
</trkpt>
<trkpt lat="40.0713749" lon="-105.229789">
  <ele>1583.0</ele>
  <time>2026-08-28T17:56:07Z</time>
  <course>248.2</course>
  <speed>0.0</speed>
  <fix>3d</fix>
</trkpt>
<trkpt lat="40.0713749" lon="-105.229789">
  <ele>1583.0</ele>
  <time>2026-08-28T17:56:07Z</time>
  <course>0.0</course>
  <speed>0.0</speed>
  <fix>3d</fix>
</trkpt>
<trkpt lat="40.0713749" lon="-105.229789">
  <ele>1583.0</ele>
  <time>2026-08-28T17:56:07Z</time>
  <course>248.22</course>
  <speed>0.0</speed>
  <fix>3d</fix>
</trkpt>
<trkpt lat="40.0713749" lon="-105.229789">
  <ele>1583.0</ele>
  <time>2026-08-28T17:56:07Z</time>
  <course>0.0</course>
  <speed>0.0</speed>
  <fix>3d</fix>
</trkpt>
<trkpt lat="40.0713749" lon="-105.229789">
  <ele>1583.0</ele>
  <time>2026-08-28T17:56:07Z</time>
  <course>248.23</course>
  <speed>0.0</speed>
  <fix>3d</fix>
</trkpt>
<trkpt lat="40.0713749" lon="-105.229789">
  <ele>1583.0</ele>
  <time>2026-08-28T17:56:07Z</time>
  <course>0.0</course>
  <speed>0.0</speed>
  <fix>3d</fix>
</trkpt>
<trkpt lat="40.0713749" lon="-105.229789">
  <ele>1583.0</ele>
  <time>2026-08-28T17:56:07Z</time>
  <course>248.25</course>
  <speed>0.0</speed>
  <fix>3d</fix>
</trkpt>
<trkpt lat="40.0713749" lon="-105.229789">
  <ele>1583.0</ele>
  <time>2026-08-28T17:56:07Z</time>
  <course>0.0</course>
  <speed>0.0</speed>
  <fix>3d</fix>
</trkpt>
<trkpt lat="40.0713749" lon="-105.229789">
  <ele>1583.0</ele>
  <time>2026-08-28T17:56:07Z</time>
  <course>248.26</course>
  <speed>0.0</speed>
  <fix>3d</fix>
</trkpt>
<trkpt lat="40.0713749" lon="-105.229789">
  <ele>1583.0</ele>
  <time>2026-08-28T17:56:07Z</time>
  <course>0.0</course>
  <speed>0.0</speed>
  <fix>3d</fix>
</trkpt>
<trkpt lat="40.0713749" lon="-105.229789">
  <ele>1583.0</ele>
  <time>2026-08-28T17:56:07Z</time>
  <course>248.28</course>
  <speed>0.0</speed>
  <fix>3d</fix>
</trkpt>
<trkpt lat="40.0713749" lon="-105.229789">
  <ele>1583.0</ele>
  <time>2026-08-28T17:56:07Z</time>
  <course>0.0</course>
  <speed>0.0</speed>
  <fix>3d</fix>
</trkpt>
<trkpt lat="40.0713749" lon="-105.229789">
  <ele>1583.0</ele>
  <time>2026-08-28T17:56:07Z</time>
  <course>248.29</course>
  <speed>0.0</speed>
  <fix>3d</fix>
</trkpt>
<trkpt lat="40.0713749" lon="-105.229789">
  <ele>1583.0</ele>
  <time>2026-08-28T17:56:07Z</time>
  <course>0.0</course>
  <speed>0.0</speed>
  <fix>3d</fix>
</trkpt>
<trkpt lat="40.0713749" lon="-105.229789">
  <ele>1583.0</ele>
  <time>2026-08-28T17:56:07Z</time>
  <course>248.3</course>
  <speed>0.0</speed>
  <fix>3d</fix>
</trkpt>
<trkpt lat="40.0713749" lon="-105.229789">
  <ele>1583.0</ele>
  <time>2026-08-28T17:56:07Z</time>
  <course>0.0</course>
  <speed>0.0</speed>
  <fix>3d</fix>
</trkpt>
<trkpt lat="40.0713749" lon="-105.229789">
  <ele>1583.0</ele>
  <time>2026-08-28T17:56:07Z</time>
  <course>248.31</course>
  <speed>0.0</speed>
  <fix>3d</fix>
</trkpt>
<trkpt lat="40.0713749" lon="-105.229789">
  <ele>1583.0</ele>
  <time>2026-08-28T17:56:07Z</time>
  <course>0.0</course>
  <speed>0.0</speed>
  <fix>3d</fix>
</trkpt>
<trkpt lat="40.0713749" lon="-105.229789">
  <ele>1583.0</ele>
  <time>2026-08-28T17:56:07Z</time>
  <course>248.32</course>
  <speed>0.0</speed>
  <fix>3d</fix>
</trkpt>
<trkpt lat="40.0713749" lon="-105.229789">
  <ele>1583.0</ele>
  <time>2026-08-28T17:56:07Z</time>
  <course>0.0</course>
  <speed>0.0</speed>
  <fix>3d</fix>
</trkpt>
<trkpt lat="40.0713749" lon="-105.229789">
  <ele>1583.0</ele>
  <time>2026-08-28T17:56:07Z</time>
  <course>248.33</course>
  <speed>0.0</speed>
  <fix>3d</fix>
</trkpt>
<trkpt lat="40.0713749" lon="-105.229789">
  <ele>1583.0</ele>
  <time>2026-08-28T17:56:07Z</time>
  <course>0.0</course>
  <speed>0.0</speed>
  <fix>3d</fix>
</trkpt>
<trkpt lat="40.0713749" lon="-105.229789">
  <ele>1583.0</ele>
  <time>2026-08-28T17:56:07Z</time>
  <course>248.34</course>
  <speed>0.0</speed>
  <fix>3d</fix>
</trkpt>
<trkpt lat="40.0713749" lon="-105.229789">
  <ele>1583.0</ele>
  <time>2026-08-28T17:56:07Z</time>
  <course>0.0</course>
  <speed>0.0</speed>
  <fix>3d</fix>
</trkpt>
<trkpt lat="40.0713749" lon="-105.229789">
  <ele>1583.0</ele>
  <time>2026-08-28T17:56:07Z</time>
  <course>248.35</course>
  <speed>0.0</speed>
  <fix>3d</fix>
</trkpt>
<trkpt lat="40.0713749" lon="-105.229789">
  <ele>1583.0</ele>
  <time>2026-08-28T17:56:07Z</time>
  <course>0.0</course>
  <speed>0.0</speed>
  <fix>3d</fix>
</trkpt>
<trkpt lat="40.0713749" lon="-105.229789">
  <ele>1583.0</ele>
  <time>2026-08-28T17:56:07Z</time>
  <course>248.35</course>
  <speed>0.0</speed>
  <fix>3d</fix>
</trkpt>
<trkpt lat="40.0713749" lon="-105.229789">
  <ele>1583.0</ele>
  <time>2026-08-28T17:56:07Z</time>
  <course>0.0</course>
  <speed>0.0</speed>
  <fix>3d</fix>
</trkpt>
<trkpt lat="40.0713749" lon="-105.229789">
  <ele>1583.0</ele>
  <time>2026-08-28T17:56:07Z</time>
  <course>248.36</course>
  <speed>0.0</speed>
  <fix>3d</fix>
</trkpt>
<trkpt lat="40.0713749" lon="-105.229789">
  <ele>1583.0</ele>
  <time>2026-08-28T17:56:07Z</time>
  <course>0.0</course>
  <speed>0.0</speed>
  <fix>3d</fix>
</trkpt>
<trkpt lat="40.0713749" lon="-105.229789">
  <ele>1583.0</ele>
  <time>2026-08-28T17:56:07Z</time>
  <course>248.37</course>
  <speed>0.0</speed>
  <fix>3d</fix>
</trkpt>
<trkpt lat="40.0713749" lon="-105.229789">
  <ele>1583.0</ele>
  <time>2026-08-28T17:56:07Z</time>
  <course>0.0</course>
  <speed>0.0</speed>
  <fix>3d</fix>
</trkpt>
<trkpt lat="40.0713749" lon="-105.229789">
  <ele>1583.0</ele>
  <time>2026-08-28T17:56:07Z</time>
  <course>248.37</course>
  <speed>0.0</speed>
  <fix>3d</fix>
</trkpt>
<trkpt lat="40.0713749" lon="-105.229789">
  <ele>1583.0</ele>
  <time>2026-08-28T17:56:07Z</time>
  <course>0.0</course>
  <speed>0.0</speed>
  <fix>3d</fix>
</trkpt>
<trkpt lat="40.0713749" lon="-105.229789">
  <ele>1583.0</ele>
  <time>2026-08-28T17:56:07Z</time>
  <course>248.38</course>
  <speed>0.0</speed>
  <fix>3d</fix>
</trkpt>
<trkpt lat="40.0713749" lon="-105.229789">
  <ele>1583.0</ele>
  <time>2026-08-28T17:56:07Z</time>
  <course>0.0</course>
  <speed>0.0</speed>
  <fix>3d</fix>
</trkpt>
<trkpt lat="40.0713749" lon="-105.229789">
  <ele>1583.0</ele>
  <time>2026-08-28T17:56:07Z</time>
  <course>248.38</course>
  <speed>0.0</speed>
  <fix>3d</fix>
</trkpt>
<trkpt lat="40.0713749" lon="-105.229789">
  <ele>1583.0</ele>
  <time>2026-08-28T17:56:07Z</time>
  <course>0.0</course>
  <speed>0.0</speed>
  <fix>3d</fix>
</trkpt>
<trkpt lat="40.0713749" lon="-105.229789">
  <ele>1583.0</ele>
  <time>2026-08-28T17:56:07Z</time>
  <course>248.39</course>
  <speed>0.0</speed>
  <fix>3d</fix>
</trkpt>
<trkpt lat="40.0713749" lon="-105.229789">
  <ele>1583.0</ele>
  <time>2026-08-28T17:56:07Z</time>
  <course>0.0</course>
  <speed>0.0</speed>
  <fix>3d</fix>
</trkpt>
<trkpt lat="40.0713749" lon="-105.229789">
  <ele>1583.0</ele>
  <time>2026-08-28T17:56:07Z</time>
  <course>248.39</course>
  <speed>0.0</speed>
  <fix>3d</fix>
</trkpt>
<trkpt lat="40.0713749" lon="-105.229789">
  <ele>1583.0</ele>
  <time>2026-08-28T17:56:07Z</time>
  <course>0.0</course>
  <speed>0.0</speed>
  <fix>3d</fix>
</trkpt>
<trkpt lat="40.0713749" lon="-105.229789">
  <ele>1583.0</ele>
  <time>2026-08-28T17:56:07Z</time>
  <course>248.4</course>
  <speed>0.0</speed>
  <fix>3d</fix>
</trkpt>
<trkpt lat="40.0713749" lon="-105.229789">
  <ele>1583.0</ele>
  <time>2026-08-28T17:56:07Z</time>
  <course>0.0</course>
  <speed>0.0</speed>
  <fix>3d</fix>
</trkpt>
<trkpt lat="40.0713749" lon="-105.229789">
  <ele>1583.0</ele>
  <time>2026-08-28T17:56:07Z</time>
  <course>248.4</course>
  <speed>0.0</speed>
  <fix>3d</fix>
</trkpt>
<trkpt lat="40.0713749" lon="-105.229789">
  <ele>1583.0</ele>
  <time>2026-08-28T17:56:07Z</time>
  <course>0.0</course>
  <speed>0.0</speed>
  <fix>3d</fix>
</trkpt>
<trkpt lat="40.0713749" lon="-105.229789">
  <ele>1583.0</ele>
  <time>2026-08-28T17:56:07Z</time>
  <course>248.4</course>
  <speed>0.0</speed>
  <fix>3d</fix>
</trkpt>
<trkpt lat="40.0713749" lon="-105.229789">
  <ele>1583.0</ele>
  <time>2026-08-28T17:56:07Z</time>
  <course>0.0</course>
  <speed>0.0</speed>
  <fix>3d</fix>
</trkpt>
<trkpt lat="40.0713749" lon="-105.229789">
  <ele>1583.0</ele>
  <time>2026-08-28T17:56:07Z</time>
  <course>248.4</course>
  <speed>0.0</speed>
  <fix>3d</fix>
</trkpt>
<trkpt lat="40.0713749" lon="-105.229789">
  <ele>1583.0</ele>
  <time>2026-08-28T17:56:07Z</time>
  <course>0.0</course>
  <speed>0.0</speed>
  <fix>3d</fix>
</trkpt>
<trkpt lat="40.0713749" lon="-105.229789">
  <ele>1583.0</ele>
  <time>2026-08-28T17:56:07Z</time>
  <course>248.41</course>
  <speed>0.0</speed>
  <fix>3d</fix>
</trkpt>
<trkpt lat="40.0713749" lon="-105.229789">
  <ele>1583.0</ele>
  <time>2026-08-28T17:56:07Z</time>
  <course>0.0</course>
  <speed>0.0</speed>
  <fix>3d</fix>
</trkpt>
<trkpt lat="40.0713749" lon="-105.229789">
  <ele>1583.0</ele>
  <time>2026-08-28T17:56:07Z</time>
  <course>248.41</course>
  <speed>0.0</speed>
  <fix>3d</fix>
</trkpt>
<trkpt lat="40.0713749" lon="-105.229789">
  <ele>1583.0</ele>
  <time>2026-08-28T17:56:07Z</time>
  <course>0.0</course>
  <speed>0.0</speed>
  <fix>3d</fix>
</trkpt>
<trkpt lat="40.0713749" lon="-105.229789">
  <ele>1583.0</ele>
  <time>2026-08-28T17:56:07Z</time>
  <course>248.41</course>
  <speed>0.0</speed>
  <fix>3d</fix>
</trkpt>
<trkpt lat="40.0713749" lon="-105.229789">
  <ele>1583.0</ele>
  <time>2026-08-28T17:56:07Z</time>
  <course>0.0</course>
  <speed>0.0</speed>
  <fix>3d</fix>
</trkpt>
<trkpt lat="40.0713749" lon="-105.229789">
  <ele>1583.0</ele>
  <time>2026-08-28T17:56:07Z</time>
  <course>248.41</course>
  <speed>0.0</speed>
  <fix>3d</fix>
</trkpt>
<trkpt lat="40.0713749" lon="-105.229789">
  <ele>1583.0</ele>
  <time>2026-08-28T17:56:07Z</time>
  <course>0.0</course>
  <speed>0.0</speed>
  <fix>3d</fix>
</trkpt>
<trkpt lat="40.0713749" lon="-105.229789">
  <ele>1583.0</ele>
  <time>2026-08-28T17:56:07Z</time>
  <course>248.41</course>
  <speed>0.0</speed>
  <fix>3d</fix>
</trkpt>
<trkpt lat="40.0713749" lon="-105.229789">
  <ele>1583.0</ele>
  <time>2026-08-28T17:56:07Z</time>
  <course>0.0</course>
  <speed>0.0</speed>
  <fix>3d</fix>
</trkpt>
<trkpt lat="40.0713749" lon="-105.229789">
  <ele>1583.0</ele>
  <time>2026-08-28T17:56:07Z</time>
  <course>248.41</course>
  <speed>0.0</speed>
  <fix>3d</fix>
</trkpt>
<trkpt lat="40.0713749" lon="-105.229789">
  <ele>1583.0</ele>
  <time>2026-08-28T17:56:07Z</time>
  <course>0.0</course>
  <speed>0.0</speed>
  <fix>3d</fix>
</trkpt>
<trkpt lat="40.0713749" lon="-105.229789">
  <ele>1583.0</ele>
  <time>2026-08-28T17:56:07Z</time>
  <course>248.41</course>
  <speed>0.0</speed>
  <fix>3d</fix>
</trkpt>
<trkpt lat="40.0713749" lon="-105.229789">
  <ele>1583.0</ele>
  <time>2026-08-28T17:56:07Z</time>
  <course>0.0</course>
  <speed>0.0</speed>
  <fix>3d</fix>
</trkpt>
<trkpt lat="40.0713749" lon="-105.229789">
  <ele>1583.0</ele>
  <time>2026-08-28T17:56:07Z</time>
  <course>248.41</course>
  <speed>0.0</speed>
  <fix>3d</fix>
</trkpt>
<trkpt lat="40.0713749" lon="-105.229789">
  <ele>1583.0</ele>
  <time>2026-08-28T17:56:07Z</time>
  <course>0.0</course>
  <speed>0.0</speed>
  <fix>3d</fix>
</trkpt>
<trkpt lat="40.0713749" lon="-105.229789">
  <ele>1583.0</ele>
  <time>2026-08-28T17:56:07Z</time>
  <course>248.41</course>
  <speed>0.0</speed>
  <fix>3d</fix>
</trkpt>
<trkpt lat="40.0713749" lon="-105.229789">
  <ele>1583.0</ele>
  <time>2026-08-28T17:56:07Z</time>
  <course>0.0</course>
  <speed>0.0</speed>
  <fix>3d</fix>
</trkpt>
<trkpt lat="40.0713749" lon="-105.229789">
  <ele>1583.0</ele>
  <time>2026-08-28T17:56:07Z</time>
  <course>248.41</course>
  <speed>0.0</speed>
  <fix>3d</fix>
</trkpt>
<trkpt lat="40.0713749" lon="-105.229789">
  <ele>1583.0</ele>
  <time>2026-08-28T17:56:07Z</time>
  <course>0.0</course>
  <speed>0.0</speed>
  <fix>3d</fix>
</trkpt>
<trkpt lat="40.0713749" lon="-105.229789">
  <ele>1583.0</ele>
  <time>2026-08-28T17:56:07Z</time>
  <course>248.41</course>
  <speed>0.0</speed>
  <fix>3d</fix>
</trkpt>
<trkpt lat="40.0713749" lon="-105.229789">
  <ele>1583.0</ele>
  <time>2026-08-28T17:56:07Z</time>
  <course>0.0</course>
  <speed>0.0</speed>
  <fix>3d</fix>
</trkpt>
<trkpt lat="40.0713749" lon="-105.229789">
  <ele>1583.0</ele>
  <time>2026-08-28T17:56:07Z</time>
  <course>248.41</course>
  <speed>0.0</speed>
  <fix>3d</fix>
</trkpt>
<trkpt lat="40.0713749" lon="-105.229789">
  <ele>1583.0</ele>
  <time>2026-08-28T17:56:07Z</time>
  <course>0.0</course>
  <speed>0.0</speed>
  <fix>3d</fix>
</trkpt>
<trkpt lat="40.0713749" lon="-105.229789">
  <ele>1583.0</ele>
  <time>2026-08-28T17:56:07Z</time>
  <course>248.41</course>
  <speed>0.0</speed>
  <fix>3d</fix>
</trkpt>
<trkpt lat="40.0713749" lon="-105.229789">
  <ele>1583.0</ele>
  <time>2026-08-28T17:56:07Z</time>
  <course>0.0</course>
  <speed>0.0</speed>
  <fix>3d</fix>
</trkpt>
<trkpt lat="40.0713749" lon="-105.229789">
  <ele>1583.0</ele>
  <time>2026-08-28T17:56:07Z</time>
  <course>248.41</course>
  <speed>0.0</speed>
  <fix>3d</fix>
</trkpt>
<trkpt lat="40.0713749" lon="-105.229789">
  <ele>1583.0</ele>
  <time>2026-08-28T17:56:07Z</time>
  <course>0.0</course>
  <speed>0.0</speed>
  <fix>3d</fix>
</trkpt>
<trkpt lat="40.0713749" lon="-105.229789">
  <ele>1583.0</ele>
  <time>2026-08-28T17:56:07Z</time>
  <course>248.41</course>
  <speed>0.0</speed>
  <fix>3d</fix>
</trkpt>
<trkpt lat="40.0713749" lon="-105.229789">
  <ele>1583.0</ele>
  <time>2026-08-28T17:56:07Z</time>
  <course>0.0</course>
  <speed>0.0</speed>
  <fix>3d</fix>
</trkpt>
<trkpt lat="40.0713749" lon="-105.229789">
  <ele>1583.0</ele>
  <time>2026-08-28T17:56:07Z</time>
  <course>248.41</course>
  <speed>0.0</speed>
  <fix>3d</fix>
</trkpt>
<trkpt lat="40.0713749" lon="-105.229789">
  <ele>1583.0</ele>
  <time>2026-08-28T17:56:07Z</time>
  <course>0.0</course>
  <speed>0.0</speed>
  <fix>3d</fix>
</trkpt>
<trkpt lat="40.0713749" lon="-105.229789">
  <ele>1583.0</ele>
  <time>2026-08-28T17:56:07Z</time>
  <course>248.4</course>
  <speed>0.0</speed>
  <fix>3d</fix>
</trkpt>
<trkpt lat="40.0713749" lon="-105.229789">
  <ele>1583.0</ele>
  <time>2026-08-28T17:56:07Z</time>
  <course>0.0</course>
  <speed>0.0</speed>
  <fix>3d</fix>
</trkpt>
<trkpt lat="40.0713749" lon="-105.229789">
  <ele>1583.0</ele>
  <time>2026-08-28T17:56:07Z</time>
  <course>248.4</course>
  <speed>0.01</speed>
  <fix>3d</fix>
</trkpt>
<trkpt lat="40.0713749" lon="-105.229789">
  <ele>1583.0</ele>
  <time>2026-08-28T17:56:07Z</time>
  <course>0.0</course>
  <speed>0.0</speed>
  <fix>3d</fix>
</trkpt>
<trkpt lat="40.0713749" lon="-105.229789">
  <ele>1583.0</ele>
  <time>2026-08-28T17:56:07Z</time>
  <course>248.4</course>
  <speed>0.01</speed>
  <fix>3d</fix>
</trkpt>
<trkpt lat="40.0713749" lon="-105.229789">
  <ele>1583.0</ele>
  <time>2026-08-28T17:56:07Z</time>
  <course>0.0</course>
  <speed>0.0</speed>
  <fix>3d</fix>
</trkpt>
<trkpt lat="40.0713749" lon="-105.229789">
  <ele>1583.0</ele>
  <time>2026-08-28T17:56:07Z</time>
  <course>248.4</course>
  <speed>0.01</speed>
  <fix>3d</fix>
</trkpt>
<trkpt lat="40.0713749" lon="-105.229789">
  <ele>1583.0</ele>
  <time>2026-08-28T17:56:07Z</time>
  <course>0.0</course>
  <speed>0.0</speed>
  <fix>3d</fix>
</trkpt>
<trkpt lat="40.0713749" lon="-105.229789">
  <ele>1583.0</ele>
  <time>2026-08-28T17:56:07Z</time>
  <course>248.4</course>
  <speed>0.01</speed>
  <fix>3d</fix>
</trkpt>
<trkpt lat="40.0713749" lon="-105.229789">
  <ele>1583.0</ele>
  <time>2026-08-28T17:56:07Z</time>
  <course>0.0</course>
  <speed>0.0</speed>
  <fix>3d</fix>
</trkpt>
<trkpt lat="40.0713749" lon="-105.229789">
  <ele>1583.0</ele>
  <time>2026-08-28T17:56:07Z</time>
  <course>248.39</course>
  <speed>0.01</speed>
  <fix>3d</fix>
</trkpt>
<trkpt lat="40.0713749" lon="-105.229789">
  <ele>1583.0</ele>
  <time>2026-08-28T17:56:07Z</time>
  <course>0.0</course>
  <speed>0.0</speed>
  <fix>3d</fix>
</trkpt>
<trkpt lat="40.0713749" lon="-105.229789">
  <ele>1583.0</ele>
  <time>2026-08-28T17:56:07Z</time>
  <course>248.39</course>
  <speed>0.01</speed>
  <fix>3d</fix>
</trkpt>
<trkpt lat="40.0713749" lon="-105.229789">
  <ele>1583.0</ele>
  <time>2026-08-28T17:56:07Z</time>
  <course>0.0</course>
  <speed>0.0</speed>
  <fix>3d</fix>
</trkpt>
<trkpt lat="40.0713749" lon="-105.229789">
  <ele>1583.0</ele>
  <time>2026-08-28T17:56:07Z</time>
  <course>248.39</course>
  <speed>0.01</speed>
  <fix>3d</fix>
</trkpt>
<trkpt lat="40.0713749" lon="-105.229789">
  <ele>1583.0</ele>
  <time>2026-08-28T17:56:07Z</time>
  <course>0.0</course>
  <speed>0.0</speed>
  <fix>3d</fix>
</trkpt>
<trkpt lat="40.0713749" lon="-105.229789">
  <ele>1583.0</ele>
  <time>2026-08-28T17:56:07Z</time>
  <course>248.38</course>
  <speed>0.01</speed>
  <fix>3d</fix>
</trkpt>
<trkpt lat="40.0713749" lon="-105.229789">
  <ele>1583.0</ele>
  <time>2026-08-28T17:56:07Z</time>
  <course>0.0</course>
  <speed>0.0</speed>
  <fix>3d</fix>
</trkpt>
<trkpt lat="40.0713749" lon="-105.229789">
  <ele>1583.0</ele>
  <time>2026-08-28T17:56:07Z</time>
  <course>248.38</course>
  <speed>0.01</speed>
  <fix>3d</fix>
</trkpt>
<trkpt lat="40.0713749" lon="-105.229789">
  <ele>1583.0</ele>
  <time>2026-08-28T17:56:07Z</time>
  <course>0.0</course>
  <speed>0.0</speed>
  <fix>3d</fix>
</trkpt>
<trkpt lat="40.0713749" lon="-105.229789">
  <ele>1583.0</ele>
  <time>2026-08-28T17:56:07Z</time>
  <course>248.38</course>
  <speed>0.01</speed>
  <fix>3d</fix>
</trkpt>
<trkpt lat="40.0713749" lon="-105.229789">
  <ele>1583.0</ele>
  <time>2026-08-28T17:56:07Z</time>
  <course>0.0</course>
  <speed>0.0</speed>
  <fix>3d</fix>
</trkpt>
<trkpt lat="40.0713749" lon="-105.229789">
  <ele>1583.0</ele>
  <time>2026-08-28T17:56:07Z</time>
  <course>248.37</course>
  <speed>0.01</speed>
  <fix>3d</fix>
</trkpt>
<trkpt lat="40.0713749" lon="-105.229789">
  <ele>1583.0</ele>
  <time>2026-08-28T17:56:07Z</time>
  <course>0.0</course>
  <speed>0.0</speed>
  <fix>3d</fix>
</trkpt>
<trkpt lat="40.0713749" lon="-105.229789">
  <ele>1583.0</ele>
  <time>2026-08-28T17:56:07Z</time>
  <course>248.37</course>
  <speed>0.01</speed>
  <fix>3d</fix>
</trkpt>
<trkpt lat="40.0713749" lon="-105.229789">
  <ele>1583.0</ele>
  <time>2026-08-28T17:56:07Z</time>
  <course>0.0</course>
  <speed>0.0</speed>
  <fix>3d</fix>
</trkpt>
<trkpt lat="40.0713749" lon="-105.229789">
  <ele>1583.0</ele>
  <time>2026-08-28T17:56:07Z</time>
  <course>248.37</course>
  <speed>0.01</speed>
  <fix>3d</fix>
</trkpt>
<trkpt lat="40.0713749" lon="-105.229789">
  <ele>1583.0</ele>
  <time>2026-08-28T17:56:07Z</time>
  <course>0.0</course>
  <speed>0.0</speed>
  <fix>3d</fix>
</trkpt>
<trkpt lat="40.0713749" lon="-105.229789">
  <ele>1583.0</ele>
  <time>2026-08-28T17:56:07Z</time>
  <course>248.36</course>
  <speed>0.01</speed>
  <fix>3d</fix>
</trkpt>
<trkpt lat="40.0713749" lon="-105.229789">
  <ele>1583.0</ele>
  <time>2026-08-28T17:56:07Z</time>
  <course>0.0</course>
  <speed>0.0</speed>
  <fix>3d</fix>
</trkpt>
<trkpt lat="40.0713749" lon="-105.229789">
  <ele>1583.0</ele>
  <time>2026-08-28T17:56:07Z</time>
  <course>248.36</course>
  <speed>0.01</speed>
  <fix>3d</fix>
</trkpt>
<trkpt lat="40.0713749" lon="-105.229789">
  <ele>1583.0</ele>
  <time>2026-08-28T17:56:07Z</time>
  <course>0.0</course>
  <speed>0.0</speed>
  <fix>3d</fix>
</trkpt>
<trkpt lat="40.0713749" lon="-105.229789">
  <ele>1583.0</ele>
  <time>2026-08-28T17:56:07Z</time>
  <course>248.36</course>
  <speed>0.01</speed>
  <fix>3d</fix>
</trkpt>
<trkpt lat="40.0713749" lon="-105.229789">
  <ele>1583.0</ele>
  <time>2026-08-28T17:56:07Z</time>
  <course>0.0</course>
  <speed>0.0</speed>
  <fix>3d</fix>
</trkpt>
<trkpt lat="40.0713749" lon="-105.229789">
  <ele>1583.0</ele>
  <time>2026-08-28T17:56:07Z</time>
  <course>248.35</course>
  <speed>0.01</speed>
  <fix>3d</fix>
</trkpt>
<trkpt lat="40.0713749" lon="-105.229789">
  <ele>1583.0</ele>
  <time>2026-08-28T17:56:07Z</time>
  <course>0.0</course>
  <speed>0.0</speed>
  <fix>3d</fix>
</trkpt>
<trkpt lat="40.0713749" lon="-105.229789">
  <ele>1583.0</ele>
  <time>2026-08-28T17:56:07Z</time>
  <course>248.35</course>
  <speed>0.01</speed>
  <fix>3d</fix>
</trkpt>
<trkpt lat="40.0713749" lon="-105.229789">
  <ele>1583.0</ele>
  <time>2026-08-28T17:56:07Z</time>
  <course>0.0</course>
  <speed>0.0</speed>
  <fix>3d</fix>
</trkpt>
<trkpt lat="40.0713749" lon="-105.229789">
  <ele>1583.0</ele>
  <time>2026-08-28T17:56:07Z</time>
  <course>248.35</course>
  <speed>0.01</speed>
  <fix>3d</fix>
</trkpt>
<trkpt lat="40.0713749" lon="-105.229789">
  <ele>1583.0</ele>
  <time>2026-08-28T17:56:07Z</time>
  <course>0.0</course>
  <speed>0.0</speed>
  <fix>3d</fix>
</trkpt>
<trkpt lat="40.0713749" lon="-105.229789">
  <ele>1583.0</ele>
  <time>2026-08-28T17:56:07Z</time>
  <course>248.34</course>
  <speed>0.01</speed>
  <fix>3d</fix>
</trkpt>
<trkpt lat="40.0713749" lon="-105.229789">
  <ele>1583.0</ele>
  <time>2026-08-28T17:56:07Z</time>
  <course>0.0</course>
  <speed>0.0</speed>
  <fix>3d</fix>
</trkpt>
<trkpt lat="40.0713749" lon="-105.229789">
  <ele>1583.0</ele>
  <time>2026-08-28T17:56:07Z</time>
  <course>248.34</course>
  <speed>0.01</speed>
  <fix>3d</fix>
</trkpt>
<trkpt lat="40.0713749" lon="-105.229789">
  <ele>1583.0</ele>
  <time>2026-08-28T17:56:07Z</time>
  <course>0.0</course>
  <speed>0.0</speed>
  <fix>3d</fix>
</trkpt>
<trkpt lat="40.0713749" lon="-105.229789">
  <ele>1583.0</ele>
  <time>2026-08-28T17:56:07Z</time>
  <course>248.33</course>
  <speed>0.01</speed>
  <fix>3d</fix>
</trkpt>
<trkpt lat="40.0713749" lon="-105.229789">
  <ele>1583.0</ele>
  <time>2026-08-28T17:56:07Z</time>
  <course>0.0</course>
  <speed>0.0</speed>
  <fix>3d</fix>
</trkpt>
<trkpt lat="40.0713749" lon="-105.229789">
  <ele>1583.0</ele>
  <time>2026-08-28T17:56:07Z</time>
  <course>248.33</course>
  <speed>0.01</speed>
  <fix>3d</fix>
</trkpt>
<trkpt lat="40.0713749" lon="-105.229789">
  <ele>1583.0</ele>
  <time>2026-08-28T17:56:07Z</time>
  <course>0.0</course>
  <speed>0.0</speed>
  <fix>3d</fix>
</trkpt>
<trkpt lat="40.0713749" lon="-105.229789">
  <ele>1583.0</ele>
  <time>2026-08-28T17:56:07Z</time>
  <course>248.32</course>
  <speed>0.01</speed>
  <fix>3d</fix>
</trkpt>
<trkpt lat="40.0713749" lon="-105.229789">
  <ele>1583.0</ele>
  <time>2026-08-28T17:56:07Z</time>
  <course>0.0</course>
  <speed>0.0</speed>
  <fix>3d</fix>
</trkpt>
<trkpt lat="40.0713749" lon="-105.229789">
  <ele>1583.0</ele>
  <time>2026-08-28T17:56:07Z</time>
  <course>248.32</course>
  <speed>0.01</speed>
  <fix>3d</fix>
</trkpt>
<trkpt lat="40.0713749" lon="-105.229789">
  <ele>1583.0</ele>
  <time>2026-08-28T17:56:07Z</time>
  <course>0.0</course>
  <speed>0.0</speed>
  <fix>3d</fix>
</trkpt>
<trkpt lat="40.0713749" lon="-105.229789">
  <ele>1583.0</ele>
  <time>2026-08-28T17:56:07Z</time>
  <course>248.32</course>
  <speed>0.01</speed>
  <fix>3d</fix>
</trkpt>
<trkpt lat="40.0713749" lon="-105.229789">
  <ele>1583.0</ele>
  <time>2026-08-28T17:56:07Z</time>
  <course>0.0</course>
  <speed>0.0</speed>
  <fix>3d</fix>
</trkpt>
<trkpt lat="40.0713749" lon="-105.229789">
  <ele>1583.0</ele>
  <time>2026-08-28T17:56:07Z</time>
  <course>248.31</course>
  <speed>0.01</speed>
  <fix>3d</fix>
</trkpt>
<trkpt lat="40.0713749" lon="-105.229789">
  <ele>1583.0</ele>
  <time>2026-08-28T17:56:07Z</time>
  <course>0.0</course>
  <speed>0.0</speed>
  <fix>3d</fix>
</trkpt>
<trkpt lat="40.0713749" lon="-105.229789">
  <ele>1583.0</ele>
  <time>2026-08-28T17:56:07Z</time>
  <course>248.31</course>
  <speed>0.01</speed>
  <fix>3d</fix>
</trkpt>
<trkpt lat="40.0713749" lon="-105.229789">
  <ele>1583.0</ele>
  <time>2026-08-28T17:56:07Z</time>
  <course>0.0</course>
  <speed>0.0</speed>
  <fix>3d</fix>
</trkpt>
<trkpt lat="40.0713749" lon="-105.229789">
  <ele>1583.0</ele>
  <time>2026-08-28T17:56:07Z</time>
  <course>248.3</course>
  <speed>0.01</speed>
  <fix>3d</fix>
</trkpt>
<trkpt lat="40.0713749" lon="-105.229789">
  <ele>1583.0</ele>
  <time>2026-08-28T17:56:07Z</time>
  <course>0.0</course>
  <speed>0.0</speed>
  <fix>3d</fix>
</trkpt>
<trkpt lat="40.0713749" lon="-105.229789">
  <ele>1583.0</ele>
  <time>2026-08-28T17:56:07Z</time>
  <course>248.3</course>
  <speed>0.01</speed>
  <fix>3d</fix>
</trkpt>
<trkpt lat="40.0713749" lon="-105.229789">
  <ele>1583.0</ele>
  <time>2026-08-28T17:56:07Z</time>
  <course>0.0</course>
  <speed>0.0</speed>
  <fix>3d</fix>
</trkpt>
<trkpt lat="40.0713749" lon="-105.229789">
  <ele>1583.0</ele>
  <time>2026-08-28T17:56:07Z</time>
  <course>248.29</course>
  <speed>0.01</speed>
  <fix>3d</fix>
</trkpt>
<trkpt lat="40.0713749" lon="-105.229789">
  <ele>1583.0</ele>
  <time>2026-08-28T17:56:07Z</time>
  <course>0.0</course>
  <speed>0.0</speed>
  <fix>3d</fix>
</trkpt>
<trkpt lat="40.0713749" lon="-105.229789">
  <ele>1583.0</ele>
  <time>2026-08-28T17:56:07Z</time>
  <course>248.29</course>
  <speed>0.01</speed>
  <fix>3d</fix>
</trkpt>
<trkpt lat="40.0713749" lon="-105.229789">
  <ele>1583.0</ele>
  <time>2026-08-28T17:56:07Z</time>
  <course>0.0</course>
  <speed>0.0</speed>
  <fix>3d</fix>
</trkpt>
<trkpt lat="40.0713749" lon="-105.229789">
  <ele>1583.0</ele>
  <time>2026-08-28T17:56:07Z</time>
  <course>248.28</course>
  <speed>0.01</speed>
  <fix>3d</fix>
</trkpt>
<trkpt lat="40.0713749" lon="-105.229789">
  <ele>1583.0</ele>
  <time>2026-08-28T17:56:07Z</time>
  <course>0.0</course>
  <speed>0.0</speed>
  <fix>3d</fix>
</trkpt>
<trkpt lat="40.0713749" lon="-105.229789">
  <ele>1583.0</ele>
  <time>2026-08-28T17:56:07Z</time>
  <course>248.28</course>
  <speed>0.01</speed>
  <fix>3d</fix>
</trkpt>
<trkpt lat="40.0713749" lon="-105.229789">
  <ele>1583.0</ele>
  <time>2026-08-28T17:56:07Z</time>
  <course>0.0</course>
  <speed>0.0</speed>
  <fix>3d</fix>
</trkpt>
<trkpt lat="40.0713749" lon="-105.229789">
  <ele>1583.0</ele>
  <time>2026-08-28T17:56:07Z</time>
  <course>248.27</course>
  <speed>0.01</speed>
  <fix>3d</fix>
</trkpt>
<trkpt lat="40.0713749" lon="-105.229789">
  <ele>1583.0</ele>
  <time>2026-08-28T17:56:07Z</time>
  <course>0.0</course>
  <speed>0.0</speed>
  <fix>3d</fix>
</trkpt>
<trkpt lat="40.0713749" lon="-105.229789">
  <ele>1583.0</ele>
  <time>2026-08-28T17:56:07Z</time>
  <course>248.27</course>
  <speed>0.01</speed>
  <fix>3d</fix>
</trkpt>
<trkpt lat="40.0713749" lon="-105.229789">
  <ele>1583.0</ele>
  <time>2026-08-28T17:56:07Z</time>
  <course>0.0</course>
  <speed>0.0</speed>
  <fix>3d</fix>
</trkpt>
<trkpt lat="40.0713749" lon="-105.229789">
  <ele>1583.0</ele>
  <time>2026-08-28T17:56:07Z</time>
  <course>248.26</course>
  <speed>0.01</speed>
  <fix>3d</fix>
</trkpt>
<trkpt lat="40.0713749" lon="-105.229789">
  <ele>1583.0</ele>
  <time>2026-08-28T17:56:07Z</time>
  <course>0.0</course>
  <speed>0.0</speed>
  <fix>3d</fix>
</trkpt>
<trkpt lat="40.0713749" lon="-105.229789">
  <ele>1583.0</ele>
  <time>2026-08-28T17:56:07Z</time>
  <course>248.26</course>
  <speed>0.01</speed>
  <fix>3d</fix>
</trkpt>
<trkpt lat="40.0713749" lon="-105.229789">
  <ele>1583.0</ele>
  <time>2026-08-28T17:56:07Z</time>
  <course>0.0</course>
  <speed>0.0</speed>
  <fix>3d</fix>
</trkpt>
<trkpt lat="40.0713749" lon="-105.229789">
  <ele>1583.0</ele>
  <time>2026-08-28T17:56:07Z</time>
  <course>248.26</course>
  <speed>0.01</speed>
  <fix>3d</fix>
</trkpt>
<trkpt lat="40.0713749" lon="-105.229789">
  <ele>1583.0</ele>
  <time>2026-08-28T17:56:07Z</time>
  <course>0.0</course>
  <speed>0.0</speed>
  <fix>3d</fix>
</trkpt>
<trkpt lat="40.0713749" lon="-105.229789">
  <ele>1583.0</ele>
  <time>2026-08-28T17:56:07Z</time>
  <course>248.25</course>
  <speed>0.01</speed>
  <fix>3d</fix>
</trkpt>
<trkpt lat="40.0713749" lon="-105.229789">
  <ele>1583.0</ele>
  <time>2026-08-28T17:56:07Z</time>
  <course>0.0</course>
  <speed>0.0</speed>
  <fix>3d</fix>
</trkpt>
<trkpt lat="40.0713749" lon="-105.229789">
  <ele>1583.0</ele>
  <time>2026-08-28T17:56:07Z</time>
  <course>248.25</course>
  <speed>0.01</speed>
  <fix>3d</fix>
</trkpt>
<trkpt lat="40.0713749" lon="-105.229789">
  <ele>1583.0</ele>
  <time>2026-08-28T17:56:07Z</time>
  <course>0.0</course>
  <speed>0.0</speed>
  <fix>3d</fix>
</trkpt>
<trkpt lat="40.0713749" lon="-105.229789">
  <ele>1583.0</ele>
  <time>2026-08-28T17:56:07Z</time>
  <course>248.24</course>
  <speed>0.01</speed>
  <fix>3d</fix>
</trkpt>
<trkpt lat="40.0713749" lon="-105.229789">
  <ele>1583.0</ele>
  <time>2026-08-28T17:56:07Z</time>
  <course>0.0</course>
  <speed>0.0</speed>
  <fix>3d</fix>
</trkpt>
<trkpt lat="40.0713749" lon="-105.229789">
  <ele>1583.0</ele>
  <time>2026-08-28T17:56:07Z</time>
  <course>248.24</course>
  <speed>0.01</speed>
  <fix>3d</fix>
</trkpt>
<trkpt lat="40.0713749" lon="-105.229789">
  <ele>1583.0</ele>
  <time>2026-08-28T17:56:07Z</time>
  <course>0.0</course>
  <speed>0.0</speed>
  <fix>3d</fix>
</trkpt>
<trkpt lat="40.0713749" lon="-105.229789">
  <ele>1583.0</ele>
  <time>2026-08-28T17:56:07Z</time>
  <course>248.23</course>
  <speed>0.01</speed>
  <fix>3d</fix>
</trkpt>
<trkpt lat="40.0713749" lon="-105.229789">
  <ele>1583.0</ele>
  <time>2026-08-28T17:56:07Z</time>
  <course>0.0</course>
  <speed>0.0</speed>
  <fix>3d</fix>
</trkpt>
<trkpt lat="40.0713749" lon="-105.229789">
  <ele>1583.0</ele>
  <time>2026-08-28T17:56:07Z</time>
  <course>248.23</course>
  <speed>0.01</speed>
  <fix>3d</fix>
</trkpt>
<trkpt lat="40.0713749" lon="-105.229789">
  <ele>1583.0</ele>
  <time>2026-08-28T17:56:07Z</time>
  <course>0.0</course>
  <speed>0.0</speed>
  <fix>3d</fix>
</trkpt>
<trkpt lat="40.0713749" lon="-105.229789">
  <ele>1583.0</ele>
  <time>2026-08-28T17:56:07Z</time>
  <course>248.22</course>
  <speed>0.01</speed>
  <fix>3d</fix>
</trkpt>
<trkpt lat="40.0713749" lon="-105.229789">
  <ele>1583.0</ele>
  <time>2026-08-28T17:56:07Z</time>
  <course>0.0</course>
  <speed>0.0</speed>
  <fix>3d</fix>
</trkpt>
<trkpt lat="40.0713749" lon="-105.229789">
  <ele>1583.0</ele>
  <time>2026-08-28T17:56:07Z</time>
  <course>248.22</course>
  <speed>0.01</speed>
  <fix>3d</fix>
</trkpt>
<trkpt lat="40.0713749" lon="-105.229789">
  <ele>1583.0</ele>
  <time>2026-08-28T17:56:07Z</time>
  <course>0.0</course>
  <speed>0.0</speed>
  <fix>3d</fix>
</trkpt>
<trkpt lat="40.0713749" lon="-105.229789">
  <ele>1583.0</ele>
  <time>2026-08-28T17:56:07Z</time>
  <course>248.21</course>
  <speed>0.01</speed>
  <fix>3d</fix>
</trkpt>
<trkpt lat="40.0713749" lon="-105.229789">
  <ele>1583.0</ele>
  <time>2026-08-28T17:56:07Z</time>
  <course>0.0</course>
  <speed>0.0</speed>
  <fix>3d</fix>
</trkpt>
<trkpt lat="40.0713749" lon="-105.229789">
  <ele>1583.0</ele>
  <time>2026-08-28T17:56:07Z</time>
  <course>248.21</course>
  <speed>0.01</speed>
  <fix>3d</fix>
</trkpt>
<trkpt lat="40.0713749" lon="-105.229789">
  <ele>1583.0</ele>
  <time>2026-08-28T17:56:07Z</time>
  <course>0.0</course>
  <speed>0.0</speed>
  <fix>3d</fix>
</trkpt>
<trkpt lat="40.0713749" lon="-105.229789">
  <ele>1583.0</ele>
  <time>2026-08-28T17:56:07Z</time>
  <course>248.2</course>
  <speed>0.01</speed>
  <fix>3d</fix>
</trkpt>
<trkpt lat="40.0713749" lon="-105.229789">
  <ele>1583.0</ele>
  <time>2026-08-28T17:56:07Z</time>
  <course>0.0</course>
  <speed>0.0</speed>
  <fix>3d</fix>
</trkpt>
<trkpt lat="40.0713749" lon="-105.229789">
  <ele>1583.0</ele>
  <time>2026-08-28T17:56:07Z</time>
  <course>248.2</course>
  <speed>0.01</speed>
  <fix>3d</fix>
</trkpt>
<trkpt lat="40.0713749" lon="-105.229789">
  <ele>1583.0</ele>
  <time>2026-08-28T17:56:07Z</time>
  <course>0.0</course>
  <speed>0.0</speed>
  <fix>3d</fix>
</trkpt>
<trkpt lat="40.0713749" lon="-105.229789">
  <ele>1583.0</ele>
  <time>2026-08-28T17:56:07Z</time>
  <course>248.19</course>
  <speed>0.01</speed>
  <fix>3d</fix>
</trkpt>
<trkpt lat="40.0713749" lon="-105.229789">
  <ele>1583.0</ele>
  <time>2026-08-28T17:56:07Z</time>
  <course>0.0</course>
  <speed>0.0</speed>
  <fix>3d</fix>
</trkpt>
<trkpt lat="40.0713749" lon="-105.229789">
  <ele>1583.0</ele>
  <time>2026-08-28T17:56:07Z</time>
  <course>248.19</course>
  <speed>0.01</speed>
  <fix>3d</fix>
</trkpt>
<trkpt lat="40.0713749" lon="-105.229789">
  <ele>1583.0</ele>
  <time>2026-08-28T17:56:07Z</time>
  <course>0.0</course>
  <speed>0.0</speed>
  <fix>3d</fix>
</trkpt>
<trkpt lat="40.0713749" lon="-105.229789">
  <ele>1583.0</ele>
  <time>2026-08-28T17:56:07Z</time>
  <course>248.18</course>
  <speed>0.01</speed>
  <fix>3d</fix>
</trkpt>
<trkpt lat="40.0713749" lon="-105.229789">
  <ele>1583.0</ele>
  <time>2026-08-28T17:56:07Z</time>
  <course>0.0</course>
  <speed>0.0</speed>
  <fix>3d</fix>
</trkpt>
<trkpt lat="40.0713749" lon="-105.229789">
  <ele>1583.0</ele>
  <time>2026-08-28T17:56:07Z</time>
  <course>248.18</course>
  <speed>0.01</speed>
  <fix>3d</fix>
</trkpt>
<trkpt lat="40.0713749" lon="-105.229789">
  <ele>1583.0</ele>
  <time>2026-08-28T17:56:07Z</time>
  <course>0.0</course>
  <speed>0.0</speed>
  <fix>3d</fix>
</trkpt>
<trkpt lat="40.0713749" lon="-105.229789">
  <ele>1583.0</ele>
  <time>2026-08-28T17:56:07Z</time>
  <course>248.17</course>
  <speed>0.022360679774997897</speed>
  <fix>3d</fix>
</trkpt>
<trkpt lat="40.0713749" lon="-105.229789">
  <ele>1583.0</ele>
  <time>2026-08-28T17:56:07Z</time>
  <course>0.0</course>
  <speed>0.0</speed>
  <fix>3d</fix>
</trkpt>
<trkpt lat="40.0713749" lon="-105.229789">
  <ele>1583.0</ele>
  <time>2026-08-28T17:56:07Z</time>
  <course>248.17</course>
  <speed>0.022360679774997897</speed>
  <fix>3d</fix>
</trkpt>
<trkpt lat="40.0713749" lon="-105.229789">
  <ele>1583.0</ele>
  <time>2026-08-28T17:56:07Z</time>
  <course>0.0</course>
  <speed>0.0</speed>
  <fix>3d</fix>
</trkpt>
<trkpt lat="40.0713749" lon="-105.229789">
  <ele>1583.0</ele>
  <time>2026-08-28T17:56:07Z</time>
  <course>248.16</course>
  <speed>0.022360679774997897</speed>
  <fix>3d</fix>
</trkpt>
<trkpt lat="40.0713749" lon="-105.229789">
  <ele>1583.0</ele>
  <time>2026-08-28T17:56:07Z</time>
  <course>0.0</course>
  <speed>0.0</speed>
  <fix>3d</fix>
</trkpt>
<trkpt lat="40.0713749" lon="-105.229789">
  <ele>1583.0</ele>
  <time>2026-08-28T17:56:07Z</time>
  <course>248.16</course>
  <speed>0.022360679774997897</speed>
  <fix>3d</fix>
</trkpt>
<trkpt lat="40.0713749" lon="-105.229789">
  <ele>1583.0</ele>
  <time>2026-08-28T17:56:07Z</time>
  <course>0.0</course>
  <speed>0.0</speed>
  <fix>3d</fix>
</trkpt>
<trkpt lat="40.0713749" lon="-105.229789">
  <ele>1583.0</ele>
  <time>2026-08-28T17:56:07Z</time>
  <course>248.15</course>
  <speed>0.022360679774997897</speed>
  <fix>3d</fix>
</trkpt>
<trkpt lat="40.0713749" lon="-105.229789">
  <ele>1583.0</ele>
  <time>2026-08-28T17:56:07Z</time>
  <course>0.0</course>
  <speed>0.0</speed>
  <fix>3d</fix>
</trkpt>
<trkpt lat="40.0713749" lon="-105.229789">
  <ele>1583.0</ele>
  <time>2026-08-28T17:56:07Z</time>
  <course>248.15</course>
  <speed>0.022360679774997897</speed>
  <fix>3d</fix>
</trkpt>
<trkpt lat="40.0713749" lon="-105.229789">
  <ele>1583.0</ele>
  <time>2026-08-28T17:56:07Z</time>
  <course>0.0</course>
  <speed>0.0</speed>
  <fix>3d</fix>
</trkpt>
<trkpt lat="40.0713749" lon="-105.229789">
  <ele>1583.0</ele>
  <time>2026-08-28T17:56:07Z</time>
  <course>248.14</course>
  <speed>0.022360679774997897</speed>
  <fix>3d</fix>
</trkpt>
<trkpt lat="40.0713749" lon="-105.229789">
  <ele>1583.0</ele>
  <time>2026-08-28T17:56:07Z</time>
  <course>0.0</course>
  <speed>0.0</speed>
  <fix>3d</fix>
</trkpt>
<trkpt lat="40.0713749" lon="-105.229789">
  <ele>1583.0</ele>
  <time>2026-08-28T17:56:07Z</time>
  <course>248.14</course>
  <speed>0.022360679774997897</speed>
  <fix>3d</fix>
</trkpt>
<trkpt lat="40.0713749" lon="-105.229789">
  <ele>1583.0</ele>
  <time>2026-08-28T17:56:07Z</time>
  <course>0.0</course>
  <speed>0.0</speed>
  <fix>3d</fix>
</trkpt>
<trkpt lat="40.0713749" lon="-105.229789">
  <ele>1583.0</ele>
  <time>2026-08-28T17:56:07Z</time>
  <course>248.13</course>
  <speed>0.022360679774997897</speed>
  <fix>3d</fix>
</trkpt>
<trkpt lat="40.0713749" lon="-105.229789">
  <ele>1583.0</ele>
  <time>2026-08-28T17:56:07Z</time>
  <course>0.0</course>
  <speed>0.0</speed>
  <fix>3d</fix>
</trkpt>
<trkpt lat="40.0713749" lon="-105.229789">
  <ele>1583.0</ele>
  <time>2026-08-28T17:56:07Z</time>
  <course>248.13</course>
  <speed>0.022360679774997897</speed>
  <fix>3d</fix>
</trkpt>
<trkpt lat="40.0713749" lon="-105.229789">
  <ele>1583.0</ele>
  <time>2026-08-28T17:56:07Z</time>
  <course>0.0</course>
  <speed>0.0</speed>
  <fix>3d</fix>
</trkpt>
<trkpt lat="40.0713749" lon="-105.229789">
  <ele>1583.0</ele>
  <time>2026-08-28T17:56:07Z</time>
  <course>248.12</course>
  <speed>0.022360679774997897</speed>
  <fix>3d</fix>
</trkpt>
<trkpt lat="40.0713749" lon="-105.229789">
  <ele>1583.0</ele>
  <time>2026-08-28T17:56:07Z</time>
  <course>0.0</course>
  <speed>0.0</speed>
  <fix>3d</fix>
</trkpt>
<trkpt lat="40.0713749" lon="-105.229789">
  <ele>1583.0</ele>
  <time>2026-08-28T17:56:07Z</time>
  <course>248.12</course>
  <speed>0.022360679774997897</speed>
  <fix>3d</fix>
</trkpt>
<trkpt lat="40.0713749" lon="-105.229789">
  <ele>1583.0</ele>
  <time>2026-08-28T17:56:07Z</time>
  <course>0.0</course>
  <speed>0.0</speed>
  <fix>3d</fix>
</trkpt>
<trkpt lat="40.0713749" lon="-105.229789">
  <ele>1583.0</ele>
  <time>2026-08-28T17:56:07Z</time>
  <course>248.11</course>
  <speed>0.022360679774997897</speed>
  <fix>3d</fix>
</trkpt>
<trkpt lat="40.0713749" lon="-105.229789">
  <ele>1583.0</ele>
  <time>2026-08-28T17:56:07Z</time>
  <course>0.0</course>
  <speed>0.0</speed>
  <fix>3d</fix>
</trkpt>
<trkpt lat="40.0713749" lon="-105.229789">
  <ele>1583.0</ele>
  <time>2026-08-28T17:56:07Z</time>
  <course>248.11</course>
  <speed>0.022360679774997897</speed>
  <fix>3d</fix>
</trkpt>
<trkpt lat="40.0713749" lon="-105.229789">
  <ele>1583.0</ele>
  <time>2026-08-28T17:56:07Z</time>
  <course>0.0</course>
  <speed>0.0</speed>
  <fix>3d</fix>
</trkpt>
<trkpt lat="40.0713749" lon="-105.229789">
  <ele>1583.0</ele>
  <time>2026-08-28T17:56:07Z</time>
  <course>248.1</course>
  <speed>0.022360679774997897</speed>
  <fix>3d</fix>
</trkpt>
<trkpt lat="40.0713749" lon="-105.229789">
  <ele>1583.0</ele>
  <time>2026-08-28T17:56:07Z</time>
  <course>0.0</course>
  <speed>0.0</speed>
  <fix>3d</fix>
</trkpt>
<trkpt lat="40.0713749" lon="-105.229789">
  <ele>1583.0</ele>
  <time>2026-08-28T17:56:07Z</time>
  <course>248.1</course>
  <speed>0.022360679774997897</speed>
  <fix>3d</fix>
</trkpt>
<trkpt lat="40.0713749" lon="-105.229789">
  <ele>1583.0</ele>
  <time>2026-08-28T17:56:07Z</time>
  <course>0.0</course>
  <speed>0.0</speed>
  <fix>3d</fix>
</trkpt>
<trkpt lat="40.0713749" lon="-105.229789">
  <ele>1583.0</ele>
  <time>2026-08-28T17:56:07Z</time>
  <course>248.09</course>
  <speed>0.022360679774997897</speed>
  <fix>3d</fix>
</trkpt>
<trkpt lat="40.0713749" lon="-105.229789">
  <ele>1583.0</ele>
  <time>2026-08-28T17:56:07Z</time>
  <course>0.0</course>
  <speed>0.0</speed>
  <fix>3d</fix>
</trkpt>
<trkpt lat="40.0713749" lon="-105.229789">
  <ele>1583.0</ele>
  <time>2026-08-28T17:56:07Z</time>
  <course>248.09</course>
  <speed>0.022360679774997897</speed>
  <fix>3d</fix>
</trkpt>
<trkpt lat="40.0713749" lon="-105.229789">
  <ele>1583.0</ele>
  <time>2026-08-28T17:56:07Z</time>
  <course>0.0</course>
  <speed>0.0</speed>
  <fix>3d</fix>
</trkpt>
<trkpt lat="40.0713749" lon="-105.229789">
  <ele>1583.0</ele>
  <time>2026-08-28T17:56:07Z</time>
  <course>248.08</course>
  <speed>0.022360679774997897</speed>
  <fix>3d</fix>
</trkpt>
<trkpt lat="40.0713749" lon="-105.229789">
  <ele>1583.0</ele>
  <time>2026-08-28T17:56:07Z</time>
  <course>0.0</course>
  <speed>0.0</speed>
  <fix>3d</fix>
</trkpt>
<trkpt lat="40.0713749" lon="-105.229789">
  <ele>1583.0</ele>
  <time>2026-08-28T17:56:07Z</time>
  <course>248.08</course>
  <speed>0.022360679774997897</speed>
  <fix>3d</fix>
</trkpt>
<trkpt lat="40.0713749" lon="-105.229789">
  <ele>1583.0</ele>
  <time>2026-08-28T17:56:07Z</time>
  <course>0.0</course>
  <speed>0.0</speed>
  <fix>3d</fix>
</trkpt>
<trkpt lat="40.0713749" lon="-105.229789">
  <ele>1583.0</ele>
  <time>2026-08-28T17:56:07Z</time>
  <course>248.07</course>
  <speed>0.022360679774997897</speed>
  <fix>3d</fix>
</trkpt>
<trkpt lat="40.0713749" lon="-105.229789">
  <ele>1583.0</ele>
  <time>2026-08-28T17:56:07Z</time>
  <course>0.0</course>
  <speed>0.0</speed>
  <fix>3d</fix>
</trkpt>
<trkpt lat="40.0713749" lon="-105.229789">
  <ele>1583.0</ele>
  <time>2026-08-28T17:56:07Z</time>
  <course>248.07</course>
  <speed>0.022360679774997897</speed>
  <fix>3d</fix>
</trkpt>
<trkpt lat="40.0713749" lon="-105.229789">
  <ele>1583.0</ele>
  <time>2026-08-28T17:56:07Z</time>
  <course>0.0</course>
  <speed>0.0</speed>
  <fix>3d</fix>
</trkpt>
<trkpt lat="40.0713749" lon="-105.229789">
  <ele>1583.0</ele>
  <time>2026-08-28T17:56:07Z</time>
  <course>248.06</course>
  <speed>0.022360679774997897</speed>
  <fix>3d</fix>
</trkpt>
<trkpt lat="40.0713749" lon="-105.229789">
  <ele>1583.0</ele>
  <time>2026-08-28T17:56:07Z</time>
  <course>0.0</course>
  <speed>0.0</speed>
  <fix>3d</fix>
</trkpt>
<trkpt lat="40.0713749" lon="-105.229789">
  <ele>1583.0</ele>
  <time>2026-08-28T17:56:07Z</time>
  <course>248.06</course>
  <speed>0.022360679774997897</speed>
  <fix>3d</fix>
</trkpt>
<trkpt lat="40.0713749" lon="-105.229789">
  <ele>1583.0</ele>
  <time>2026-08-28T17:56:07Z</time>
  <course>0.0</course>
  <speed>0.0</speed>
  <fix>3d</fix>
</trkpt>
<trkpt lat="40.0713749" lon="-105.229789">
  <ele>1583.0</ele>
  <time>2026-08-28T17:56:07Z</time>
  <course>248.05</course>
  <speed>0.022360679774997897</speed>
  <fix>3d</fix>
</trkpt>
<trkpt lat="40.0713749" lon="-105.229789">
  <ele>1583.0</ele>
  <time>2026-08-28T17:56:07Z</time>
  <course>0.0</course>
  <speed>0.0</speed>
  <fix>3d</fix>
</trkpt>
<trkpt lat="40.0713749" lon="-105.229789">
  <ele>1583.0</ele>
  <time>2026-08-28T17:56:07Z</time>
  <course>248.05</course>
  <speed>0.022360679774997897</speed>
  <fix>3d</fix>
</trkpt>
<trkpt lat="40.0713749" lon="-105.229789">
  <ele>1583.0</ele>
  <time>2026-08-28T17:56:07Z</time>
  <course>0.0</course>
  <speed>0.0</speed>
  <fix>3d</fix>
</trkpt>
<trkpt lat="40.0713749" lon="-105.229789">
  <ele>1583.0</ele>
  <time>2026-08-28T17:56:07Z</time>
  <course>248.05</course>
  <speed>0.022360679774997897</speed>
  <fix>3d</fix>
</trkpt>
<trkpt lat="40.0713749" lon="-105.229789">
  <ele>1583.0</ele>
  <time>2026-08-28T17:56:07Z</time>
  <course>0.0</course>
  <speed>0.0</speed>
  <fix>3d</fix>
</trkpt>
<trkpt lat="40.0713749" lon="-105.229789">
  <ele>1583.0</ele>
  <time>2026-08-28T17:56:07Z</time>
  <course>248.04</course>
  <speed>0.022360679774997897</speed>
  <fix>3d</fix>
</trkpt>
<trkpt lat="40.0713749" lon="-105.229789">
  <ele>1583.0</ele>
  <time>2026-08-28T17:56:07Z</time>
  <course>0.0</course>
  <speed>0.0</speed>
  <fix>3d</fix>
</trkpt>
<trkpt lat="40.0713749" lon="-105.229789">
  <ele>1583.0</ele>
  <time>2026-08-28T17:56:07Z</time>
  <course>248.04</course>
  <speed>0.022360679774997897</speed>
  <fix>3d</fix>
</trkpt>
<trkpt lat="40.0713749" lon="-105.229789">
  <ele>1583.0</ele>
  <time>2026-08-28T17:56:07Z</time>
  <course>0.0</course>
  <speed>0.0</speed>
  <fix>3d</fix>
</trkpt>
<trkpt lat="40.0713749" lon="-105.229789">
  <ele>1583.0</ele>
  <time>2026-08-28T17:56:07Z</time>
  <course>248.03</course>
  <speed>0.022360679774997897</speed>
  <fix>3d</fix>
</trkpt>
<trkpt lat="40.0713749" lon="-105.229789">
  <ele>1583.0</ele>
  <time>2026-08-28T17:56:07Z</time>
  <course>0.0</course>
  <speed>0.0</speed>
  <fix>3d</fix>
</trkpt>
<trkpt lat="40.0713749" lon="-105.229789">
  <ele>1583.0</ele>
  <time>2026-08-28T17:56:07Z</time>
  <course>248.03</course>
  <speed>0.022360679774997897</speed>
  <fix>3d</fix>
</trkpt>
<trkpt lat="40.0713749" lon="-105.229789">
  <ele>1583.0</ele>
  <time>2026-08-28T17:56:07Z</time>
  <course>0.0</course>
  <speed>0.0</speed>
  <fix>3d</fix>
</trkpt>
<trkpt lat="40.0713749" lon="-105.229789">
  <ele>1583.0</ele>
  <time>2026-08-28T17:56:07Z</time>
  <course>248.02</course>
  <speed>0.022360679774997897</speed>
  <fix>3d</fix>
</trkpt>
<trkpt lat="40.0713749" lon="-105.229789">
  <ele>1583.0</ele>
  <time>2026-08-28T17:56:07Z</time>
  <course>0.0</course>
  <speed>0.0</speed>
  <fix>3d</fix>
</trkpt>
<trkpt lat="40.0713749" lon="-105.229789">
  <ele>1583.0</ele>
  <time>2026-08-28T17:56:07Z</time>
  <course>248.02</course>
  <speed>0.022360679774997897</speed>
  <fix>3d</fix>
</trkpt>
<trkpt lat="40.0713749" lon="-105.229789">
  <ele>1583.0</ele>
  <time>2026-08-28T17:56:07Z</time>
  <course>0.0</course>
  <speed>0.0</speed>
  <fix>3d</fix>
</trkpt>
<trkpt lat="40.0713749" lon="-105.229789">
  <ele>1583.0</ele>
  <time>2026-08-28T17:56:07Z</time>
  <course>248.01</course>
  <speed>0.022360679774997897</speed>
  <fix>3d</fix>
</trkpt>
<trkpt lat="40.0713749" lon="-105.229789">
  <ele>1583.0</ele>
  <time>2026-08-28T17:56:07Z</time>
  <course>0.0</course>
  <speed>0.0</speed>
  <fix>3d</fix>
</trkpt>
<trkpt lat="40.0713749" lon="-105.229789">
  <ele>1583.0</ele>
  <time>2026-08-28T17:56:07Z</time>
  <course>248.01</course>
  <speed>0.022360679774997897</speed>
  <fix>3d</fix>
</trkpt>
<trkpt lat="40.0713749" lon="-105.229789">
  <ele>1583.0</ele>
  <time>2026-08-28T17:56:07Z</time>
  <course>0.0</course>
  <speed>0.0</speed>
  <fix>3d</fix>
</trkpt>
<trkpt lat="40.0713749" lon="-105.229789">
  <ele>1583.0</ele>
  <time>2026-08-28T17:56:07Z</time>
  <course>248.0</course>
  <speed>0.022360679774997897</speed>
  <fix>3d</fix>
</trkpt>
<trkpt lat="40.0713749" lon="-105.229789">
  <ele>1583.0</ele>
  <time>2026-08-28T17:56:07Z</time>
  <course>0.0</course>
  <speed>0.0</speed>
  <fix>3d</fix>
</trkpt>
<trkpt lat="40.0713749" lon="-105.229789">
  <ele>1583.0</ele>
  <time>2026-08-28T17:56:07Z</time>
  <course>248.0</course>
  <speed>0.022360679774997897</speed>
  <fix>3d</fix>
</trkpt>
<trkpt lat="40.0713749" lon="-105.229789">
  <ele>1583.0</ele>
  <time>2026-08-28T17:56:07Z</time>
  <course>0.0</course>
  <speed>0.0</speed>
  <fix>3d</fix>
</trkpt>
<trkpt lat="40.0713749" lon="-105.229789">
  <ele>1583.0</ele>
  <time>2026-08-28T17:56:07Z</time>
  <course>247.99</course>
  <speed>0.022360679774997897</speed>
  <fix>3d</fix>
</trkpt>
<trkpt lat="40.0713749" lon="-105.229789">
  <ele>1583.0</ele>
  <time>2026-08-28T17:56:07Z</time>
  <course>0.0</course>
  <speed>0.0</speed>
  <fix>3d</fix>
</trkpt>
<trkpt lat="40.0713749" lon="-105.229789">
  <ele>1583.0</ele>
  <time>2026-08-28T17:56:07Z</time>
  <course>247.99</course>
  <speed>0.022360679774997897</speed>
  <fix>3d</fix>
</trkpt>
<trkpt lat="40.0713749" lon="-105.229789">
  <ele>1583.0</ele>
  <time>2026-08-28T17:56:07Z</time>
  <course>0.0</course>
  <speed>0.0</speed>
  <fix>3d</fix>
</trkpt>
<trkpt lat="40.0713749" lon="-105.229789">
  <ele>1583.0</ele>
  <time>2026-08-28T17:56:07Z</time>
  <course>247.99</course>
  <speed>0.022360679774997897</speed>
  <fix>3d</fix>
</trkpt>
<trkpt lat="40.0713749" lon="-105.229789">
  <ele>1583.0</ele>
  <time>2026-08-28T17:56:07Z</time>
  <course>0.0</course>
  <speed>0.0</speed>
  <fix>3d</fix>
</trkpt>
<trkpt lat="40.0713749" lon="-105.229789">
  <ele>1583.0</ele>
  <time>2026-08-28T17:56:07Z</time>
  <course>247.98</course>
  <speed>0.022360679774997897</speed>
  <fix>3d</fix>
</trkpt>
<trkpt lat="40.0713749" lon="-105.229789">
  <ele>1583.0</ele>
  <time>2026-08-28T17:56:07Z</time>
  <course>0.0</course>
  <speed>0.0</speed>
  <fix>3d</fix>
</trkpt>
<trkpt lat="40.0713749" lon="-105.229789">
  <ele>1583.0</ele>
  <time>2026-08-28T17:56:07Z</time>
  <course>247.98</course>
  <speed>0.022360679774997897</speed>
  <fix>3d</fix>
</trkpt>
<trkpt lat="40.0713749" lon="-105.229789">
  <ele>1583.0</ele>
  <time>2026-08-28T17:56:07Z</time>
  <course>0.0</course>
  <speed>0.0</speed>
  <fix>3d</fix>
</trkpt>
<trkpt lat="40.0713749" lon="-105.229789">
  <ele>1583.0</ele>
  <time>2026-08-28T17:56:07Z</time>
  <course>247.97</course>
  <speed>0.022360679774997897</speed>
  <fix>3d</fix>
</trkpt>
<trkpt lat="40.0713749" lon="-105.229789">
  <ele>1583.0</ele>
  <time>2026-08-28T17:56:07Z</time>
  <course>0.0</course>
  <speed>0.0</speed>
  <fix>3d</fix>
</trkpt>
<trkpt lat="40.0713749" lon="-105.229789">
  <ele>1583.0</ele>
  <time>2026-08-28T17:56:07Z</time>
  <course>247.97</course>
  <speed>0.022360679774997897</speed>
  <fix>3d</fix>
</trkpt>
<trkpt lat="40.0713749" lon="-105.229789">
  <ele>1583.0</ele>
  <time>2026-08-28T17:56:07Z</time>
  <course>0.0</course>
  <speed>0.0</speed>
  <fix>3d</fix>
</trkpt>
<trkpt lat="40.0713749" lon="-105.229789">
  <ele>1583.0</ele>
  <time>2026-08-28T17:56:07Z</time>
  <course>247.96</course>
  <speed>0.022360679774997897</speed>
  <fix>3d</fix>
</trkpt>
<trkpt lat="40.0713749" lon="-105.229789">
  <ele>1583.0</ele>
  <time>2026-08-28T17:56:07Z</time>
  <course>0.0</course>
  <speed>0.0</speed>
  <fix>3d</fix>
</trkpt>
<trkpt lat="40.0713749" lon="-105.229789">
  <ele>1583.0</ele>
  <time>2026-08-28T17:56:07Z</time>
  <course>247.96</course>
  <speed>0.022360679774997897</speed>
  <fix>3d</fix>
</trkpt>
<trkpt lat="40.0713749" lon="-105.229789">
  <ele>1583.0</ele>
  <time>2026-08-28T17:56:07Z</time>
  <course>0.0</course>
  <speed>0.0</speed>
  <fix>3d</fix>
</trkpt>
<trkpt lat="40.0713749" lon="-105.229789">
  <ele>1583.0</ele>
  <time>2026-08-28T17:56:07Z</time>
  <course>247.95</course>
  <speed>0.022360679774997897</speed>
  <fix>3d</fix>
</trkpt>
<trkpt lat="40.0713749" lon="-105.229789">
  <ele>1583.0</ele>
  <time>2026-08-28T17:56:07Z</time>
  <course>0.0</course>
  <speed>0.0</speed>
  <fix>3d</fix>
</trkpt>
<trkpt lat="40.0713749" lon="-105.229789">
  <ele>1583.0</ele>
  <time>2026-08-28T17:56:07Z</time>
  <course>247.95</course>
  <speed>0.022360679774997897</speed>
  <fix>3d</fix>
</trkpt>
<trkpt lat="40.0713749" lon="-105.229789">
  <ele>1583.0</ele>
  <time>2026-08-28T17:56:07Z</time>
  <course>0.0</course>
  <speed>0.0</speed>
  <fix>3d</fix>
</trkpt>
<trkpt lat="40.0713749" lon="-105.229789">
  <ele>1583.0</ele>
  <time>2026-08-28T17:56:07Z</time>
  <course>247.95</course>
  <speed>0.022360679774997897</speed>
  <fix>3d</fix>
</trkpt>
<trkpt lat="40.0713749" lon="-105.229789">
  <ele>1583.0</ele>
  <time>2026-08-28T17:56:07Z</time>
  <course>0.0</course>
  <speed>0.0</speed>
  <fix>3d</fix>
</trkpt>
<trkpt lat="40.0713749" lon="-105.229789">
  <ele>1583.0</ele>
  <time>2026-08-28T17:56:07Z</time>
  <course>247.94</course>
  <speed>0.022360679774997897</speed>
  <fix>3d</fix>
</trkpt>
<trkpt lat="40.0713749" lon="-105.229789">
  <ele>1583.0</ele>
  <time>2026-08-28T17:56:07Z</time>
  <course>0.0</course>
  <speed>0.0</speed>
  <fix>3d</fix>
</trkpt>
<trkpt lat="40.0713749" lon="-105.229789">
  <ele>1583.0</ele>
  <time>2026-08-28T17:56:07Z</time>
  <course>247.94</course>
  <speed>0.022360679774997897</speed>
  <fix>3d</fix>
</trkpt>
<trkpt lat="40.0713749" lon="-105.229789">
  <ele>1583.0</ele>
  <time>2026-08-28T17:56:07Z</time>
  <course>0.0</course>
  <speed>0.0</speed>
  <fix>3d</fix>
</trkpt>
<trkpt lat="40.0713749" lon="-105.229789">
  <ele>1583.0</ele>
  <time>2026-08-28T17:56:07Z</time>
  <course>247.93</course>
  <speed>0.022360679774997897</speed>
  <fix>3d</fix>
</trkpt>
<trkpt lat="40.0713749" lon="-105.229789">
  <ele>1583.0</ele>
  <time>2026-08-28T17:56:07Z</time>
  <course>0.0</course>
  <speed>0.0</speed>
  <fix>3d</fix>
</trkpt>
<trkpt lat="40.0713749" lon="-105.229789">
  <ele>1583.0</ele>
  <time>2026-08-28T17:56:07Z</time>
  <course>247.93</course>
  <speed>0.022360679774997897</speed>
  <fix>3d</fix>
</trkpt>
<trkpt lat="40.0713749" lon="-105.229789">
  <ele>1583.0</ele>
  <time>2026-08-28T17:56:07Z</time>
  <course>0.0</course>
  <speed>0.0</speed>
  <fix>3d</fix>
</trkpt>
<trkpt lat="40.0713749" lon="-105.229789">
  <ele>1583.0</ele>
  <time>2026-08-28T17:56:07Z</time>
  <course>247.92</course>
  <speed>0.022360679774997897</speed>
  <fix>3d</fix>
</trkpt>
<trkpt lat="40.0713749" lon="-105.229789">
  <ele>1583.0</ele>
  <time>2026-08-28T17:56:07Z</time>
  <course>0.0</course>
  <speed>0.0</speed>
  <fix>3d</fix>
</trkpt>
<trkpt lat="40.0713749" lon="-105.229789">
  <ele>1583.0</ele>
  <time>2026-08-28T17:56:07Z</time>
  <course>247.92</course>
  <speed>0.022360679774997897</speed>
  <fix>3d</fix>
</trkpt>
<trkpt lat="40.0713749" lon="-105.229789">
  <ele>1583.0</ele>
  <time>2026-08-28T17:56:07Z</time>
  <course>0.0</course>
  <speed>0.0</speed>
  <fix>3d</fix>
</trkpt>
<trkpt lat="40.0713749" lon="-105.229789">
  <ele>1583.0</ele>
  <time>2026-08-28T17:56:07Z</time>
  <course>247.92</course>
  <speed>0.022360679774997897</speed>
  <fix>3d</fix>
</trkpt>
<trkpt lat="40.0713749" lon="-105.229789">
  <ele>1583.0</ele>
  <time>2026-08-28T17:56:07Z</time>
  <course>0.0</course>
  <speed>0.0</speed>
  <fix>3d</fix>
</trkpt>
<trkpt lat="40.0713749" lon="-105.229789">
  <ele>1583.0</ele>
  <time>2026-08-28T17:56:07Z</time>
  <course>247.91</course>
  <speed>0.022360679774997897</speed>
  <fix>3d</fix>
</trkpt>
<trkpt lat="40.0713749" lon="-105.229789">
  <ele>1583.0</ele>
  <time>2026-08-28T17:56:07Z</time>
  <course>0.0</course>
  <speed>0.0</speed>
  <fix>3d</fix>
</trkpt>
<trkpt lat="40.0713749" lon="-105.229789">
  <ele>1583.0</ele>
  <time>2026-08-28T17:56:07Z</time>
  <course>247.91</course>
  <speed>0.022360679774997897</speed>
  <fix>3d</fix>
</trkpt>
<trkpt lat="40.0713749" lon="-105.229789">
  <ele>1583.0</ele>
  <time>2026-08-28T17:56:07Z</time>
  <course>0.0</course>
  <speed>0.0</speed>
  <fix>3d</fix>
</trkpt>
<trkpt lat="40.0713749" lon="-105.229789">
  <ele>1583.0</ele>
  <time>2026-08-28T17:56:07Z</time>
  <course>247.9</course>
  <speed>0.022360679774997897</speed>
  <fix>3d</fix>
</trkpt>
<trkpt lat="40.0713749" lon="-105.229789">
  <ele>1583.0</ele>
  <time>2026-08-28T17:56:07Z</time>
  <course>0.0</course>
  <speed>0.0</speed>
  <fix>3d</fix>
</trkpt>
<trkpt lat="40.0713749" lon="-105.229789">
  <ele>1583.0</ele>
  <time>2026-08-28T17:56:07Z</time>
  <course>247.9</course>
  <speed>0.022360679774997897</speed>
  <fix>3d</fix>
</trkpt>
<trkpt lat="40.0713749" lon="-105.229789">
  <ele>1583.0</ele>
  <time>2026-08-28T17:56:07Z</time>
  <course>0.0</course>
  <speed>0.0</speed>
  <fix>3d</fix>
</trkpt>
<trkpt lat="40.0713749" lon="-105.229789">
  <ele>1583.0</ele>
  <time>2026-08-28T17:56:07Z</time>
  <course>247.89</course>
  <speed>0.022360679774997897</speed>
  <fix>3d</fix>
</trkpt>
<trkpt lat="40.0713749" lon="-105.229789">
  <ele>1583.0</ele>
  <time>2026-08-28T17:56:07Z</time>
  <course>0.0</course>
  <speed>0.0</speed>
  <fix>3d</fix>
</trkpt>
<trkpt lat="40.0713749" lon="-105.229789">
  <ele>1583.0</ele>
  <time>2026-08-28T17:56:07Z</time>
  <course>247.89</course>
  <speed>0.022360679774997897</speed>
  <fix>3d</fix>
</trkpt>
<trkpt lat="40.0713749" lon="-105.229789">
  <ele>1583.0</ele>
  <time>2026-08-28T17:56:07Z</time>
  <course>0.0</course>
  <speed>0.0</speed>
  <fix>3d</fix>
</trkpt>
<trkpt lat="40.0713749" lon="-105.229789">
  <ele>1583.0</ele>
  <time>2026-08-28T17:56:07Z</time>
  <course>247.89</course>
  <speed>0.022360679774997897</speed>
  <fix>3d</fix>
</trkpt>
<trkpt lat="40.0713749" lon="-105.229789">
  <ele>1583.0</ele>
  <time>2026-08-28T17:56:07Z</time>
  <course>0.0</course>
  <speed>0.0</speed>
  <fix>3d</fix>
</trkpt>
<trkpt lat="40.0713749" lon="-105.229789">
  <ele>1583.0</ele>
  <time>2026-08-28T17:56:07Z</time>
  <course>247.88</course>
  <speed>0.0316227766016838</speed>
  <fix>3d</fix>
</trkpt>
<trkpt lat="40.0713749" lon="-105.229789">
  <ele>1583.0</ele>
  <time>2026-08-28T17:56:07Z</time>
  <course>0.0</course>
  <speed>0.0</speed>
  <fix>3d</fix>
</trkpt>
<trkpt lat="40.0713749" lon="-105.229789">
  <ele>1583.0</ele>
  <time>2026-08-28T17:56:07Z</time>
  <course>247.88</course>
  <speed>0.0316227766016838</speed>
  <fix>3d</fix>
</trkpt>
<trkpt lat="40.0713749" lon="-105.229789">
  <ele>1583.0</ele>
  <time>2026-08-28T17:56:07Z</time>
  <course>0.0</course>
  <speed>0.0</speed>
  <fix>3d</fix>
</trkpt>
<trkpt lat="40.0713749" lon="-105.229789">
  <ele>1583.0</ele>
  <time>2026-08-28T17:56:07Z</time>
  <course>247.87</course>
  <speed>0.0316227766016838</speed>
  <fix>3d</fix>
</trkpt>
<trkpt lat="40.0713749" lon="-105.229789">
  <ele>1583.0</ele>
  <time>2026-08-28T17:56:07Z</time>
  <course>0.0</course>
  <speed>0.0</speed>
  <fix>3d</fix>
</trkpt>
<trkpt lat="40.0713749" lon="-105.229789">
  <ele>1583.0</ele>
  <time>2026-08-28T17:56:07Z</time>
  <course>247.87</course>
  <speed>0.0316227766016838</speed>
  <fix>3d</fix>
</trkpt>
<trkpt lat="40.0713749" lon="-105.229789">
  <ele>1583.0</ele>
  <time>2026-08-28T17:56:07Z</time>
  <course>0.0</course>
  <speed>0.0</speed>
  <fix>3d</fix>
</trkpt>
<trkpt lat="40.0713749" lon="-105.229789">
  <ele>1583.0</ele>
  <time>2026-08-28T17:56:07Z</time>
  <course>247.87</course>
  <speed>0.0316227766016838</speed>
  <fix>3d</fix>
</trkpt>
<trkpt lat="40.0713749" lon="-105.229789">
  <ele>1583.0</ele>
  <time>2026-08-28T17:56:07Z</time>
  <course>0.0</course>
  <speed>0.0</speed>
  <fix>3d</fix>
</trkpt>
<trkpt lat="40.0713749" lon="-105.229789">
  <ele>1583.0</ele>
  <time>2026-08-28T17:56:07Z</time>
  <course>247.86</course>
  <speed>0.0316227766016838</speed>
  <fix>3d</fix>
</trkpt>
<trkpt lat="40.0713749" lon="-105.229789">
  <ele>1583.0</ele>
  <time>2026-08-28T17:56:07Z</time>
  <course>0.0</course>
  <speed>0.0</speed>
  <fix>3d</fix>
</trkpt>
<trkpt lat="40.0713749" lon="-105.229789">
  <ele>1583.0</ele>
  <time>2026-08-28T17:56:07Z</time>
  <course>247.86</course>
  <speed>0.0316227766016838</speed>
  <fix>3d</fix>
</trkpt>
<trkpt lat="40.0713749" lon="-105.229789">
  <ele>1583.0</ele>
  <time>2026-08-28T17:56:07Z</time>
  <course>0.0</course>
  <speed>0.0</speed>
  <fix>3d</fix>
</trkpt>
<trkpt lat="40.0713749" lon="-105.229789">
  <ele>1583.0</ele>
  <time>2026-08-28T17:56:07Z</time>
  <course>247.85</course>
  <speed>0.0316227766016838</speed>
  <fix>3d</fix>
</trkpt>
<trkpt lat="40.0713749" lon="-105.229789">
  <ele>1583.0</ele>
  <time>2026-08-28T17:56:07Z</time>
  <course>0.0</course>
  <speed>0.0</speed>
  <fix>3d</fix>
</trkpt>
<trkpt lat="40.0713749" lon="-105.229789">
  <ele>1583.0</ele>
  <time>2026-08-28T17:56:07Z</time>
  <course>247.85</course>
  <speed>0.0316227766016838</speed>
  <fix>3d</fix>
</trkpt>
<trkpt lat="40.0713749" lon="-105.229789">
  <ele>1583.0</ele>
  <time>2026-08-28T17:56:07Z</time>
  <course>0.0</course>
  <speed>0.0</speed>
  <fix>3d</fix>
</trkpt>
<trkpt lat="40.0713749" lon="-105.229789">
  <ele>1583.0</ele>
  <time>2026-08-28T17:56:07Z</time>
  <course>247.85</course>
  <speed>0.0316227766016838</speed>
  <fix>3d</fix>
</trkpt>
<trkpt lat="40.0713749" lon="-105.229789">
  <ele>1583.0</ele>
  <time>2026-08-28T17:56:07Z</time>
  <course>0.0</course>
  <speed>0.0</speed>
  <fix>3d</fix>
</trkpt>
<trkpt lat="40.0713749" lon="-105.229789">
  <ele>1583.0</ele>
  <time>2026-08-28T17:56:07Z</time>
  <course>247.84</course>
  <speed>0.0316227766016838</speed>
  <fix>3d</fix>
</trkpt>
<trkpt lat="40.0713749" lon="-105.229789">
  <ele>1583.0</ele>
  <time>2026-08-28T17:56:07Z</time>
  <course>0.0</course>
  <speed>0.0</speed>
  <fix>3d</fix>
</trkpt>
<trkpt lat="40.0713749" lon="-105.229789">
  <ele>1583.0</ele>
  <time>2026-08-28T17:56:07Z</time>
  <course>247.84</course>
  <speed>0.0316227766016838</speed>
  <fix>3d</fix>
</trkpt>
<trkpt lat="40.0713749" lon="-105.229789">
  <ele>1583.0</ele>
  <time>2026-08-28T17:56:07Z</time>
  <course>0.0</course>
  <speed>0.0</speed>
  <fix>3d</fix>
</trkpt>
<trkpt lat="40.0713749" lon="-105.229789">
  <ele>1583.0</ele>
  <time>2026-08-28T17:56:07Z</time>
  <course>247.83</course>
  <speed>0.0316227766016838</speed>
  <fix>3d</fix>
</trkpt>
<trkpt lat="40.0713749" lon="-105.229789">
  <ele>1583.0</ele>
  <time>2026-08-28T17:56:07Z</time>
  <course>0.0</course>
  <speed>0.0</speed>
  <fix>3d</fix>
</trkpt>
<trkpt lat="40.0713749" lon="-105.229789">
  <ele>1583.0</ele>
  <time>2026-08-28T17:56:07Z</time>
  <course>247.83</course>
  <speed>0.0316227766016838</speed>
  <fix>3d</fix>
</trkpt>
<trkpt lat="40.0713749" lon="-105.229789">
  <ele>1583.0</ele>
  <time>2026-08-28T17:56:07Z</time>
  <course>0.0</course>
  <speed>0.0</speed>
  <fix>3d</fix>
</trkpt>
<trkpt lat="40.0713749" lon="-105.229789">
  <ele>1583.0</ele>
  <time>2026-08-28T17:56:07Z</time>
  <course>247.83</course>
  <speed>0.0316227766016838</speed>
  <fix>3d</fix>
</trkpt>
<trkpt lat="40.0713749" lon="-105.229789">
  <ele>1583.0</ele>
  <time>2026-08-28T17:56:07Z</time>
  <course>0.0</course>
  <speed>0.0</speed>
  <fix>3d</fix>
</trkpt>
<trkpt lat="40.0713749" lon="-105.229789">
  <ele>1583.0</ele>
  <time>2026-08-28T17:56:07Z</time>
  <course>247.82</course>
  <speed>0.0316227766016838</speed>
  <fix>3d</fix>
</trkpt>
<trkpt lat="40.0713749" lon="-105.229789">
  <ele>1583.0</ele>
  <time>2026-08-28T17:56:07Z</time>
  <course>0.0</course>
  <speed>0.0</speed>
  <fix>3d</fix>
</trkpt>
<trkpt lat="40.0713749" lon="-105.229789">
  <ele>1583.0</ele>
  <time>2026-08-28T17:56:07Z</time>
  <course>247.82</course>
  <speed>0.0316227766016838</speed>
  <fix>3d</fix>
</trkpt>
<trkpt lat="40.0713749" lon="-105.229789">
  <ele>1583.0</ele>
  <time>2026-08-28T17:56:07Z</time>
  <course>0.0</course>
  <speed>0.0</speed>
  <fix>3d</fix>
</trkpt>
<trkpt lat="40.0713749" lon="-105.229789">
  <ele>1583.0</ele>
  <time>2026-08-28T17:56:07Z</time>
  <course>247.82</course>
  <speed>0.0316227766016838</speed>
  <fix>3d</fix>
</trkpt>
<trkpt lat="40.0713749" lon="-105.229789">
  <ele>1583.0</ele>
  <time>2026-08-28T17:56:07Z</time>
  <course>0.0</course>
  <speed>0.0</speed>
  <fix>3d</fix>
</trkpt>
<trkpt lat="40.0713749" lon="-105.229789">
  <ele>1583.0</ele>
  <time>2026-08-28T17:56:07Z</time>
  <course>247.81</course>
  <speed>0.0316227766016838</speed>
  <fix>3d</fix>
</trkpt>
<trkpt lat="40.0713749" lon="-105.229789">
  <ele>1583.0</ele>
  <time>2026-08-28T17:56:07Z</time>
  <course>0.0</course>
  <speed>0.0</speed>
  <fix>3d</fix>
</trkpt>
<trkpt lat="40.0713749" lon="-105.229789">
  <ele>1583.0</ele>
  <time>2026-08-28T17:56:07Z</time>
  <course>247.81</course>
  <speed>0.0316227766016838</speed>
  <fix>3d</fix>
</trkpt>
<trkpt lat="40.0713749" lon="-105.229789">
  <ele>1583.0</ele>
  <time>2026-08-28T17:56:07Z</time>
  <course>0.0</course>
  <speed>0.0</speed>
  <fix>3d</fix>
</trkpt>
<trkpt lat="40.0713749" lon="-105.229789">
  <ele>1583.0</ele>
  <time>2026-08-28T17:56:07Z</time>
  <course>247.8</course>
  <speed>0.0316227766016838</speed>
  <fix>3d</fix>
</trkpt>
<trkpt lat="40.0713749" lon="-105.229789">
  <ele>1583.0</ele>
  <time>2026-08-28T17:56:07Z</time>
  <course>0.0</course>
  <speed>0.0</speed>
  <fix>3d</fix>
</trkpt>
<trkpt lat="40.0713749" lon="-105.229789">
  <ele>1583.0</ele>
  <time>2026-08-28T17:56:07Z</time>
  <course>247.8</course>
  <speed>0.0316227766016838</speed>
  <fix>3d</fix>
</trkpt>
<trkpt lat="40.0713749" lon="-105.229789">
  <ele>1583.0</ele>
  <time>2026-08-28T17:56:07Z</time>
  <course>0.0</course>
  <speed>0.0</speed>
  <fix>3d</fix>
</trkpt>
<trkpt lat="40.0713749" lon="-105.229789">
  <ele>1583.0</ele>
  <time>2026-08-28T17:56:07Z</time>
  <course>247.8</course>
  <speed>0.0316227766016838</speed>
  <fix>3d</fix>
</trkpt>
<trkpt lat="40.0713749" lon="-105.229789">
  <ele>1583.0</ele>
  <time>2026-08-28T17:56:07Z</time>
  <course>0.0</course>
  <speed>0.0</speed>
  <fix>3d</fix>
</trkpt>
<trkpt lat="40.0713749" lon="-105.229789">
  <ele>1583.0</ele>
  <time>2026-08-28T17:56:07Z</time>
  <course>247.79</course>
  <speed>0.0316227766016838</speed>
  <fix>3d</fix>
</trkpt>
<trkpt lat="40.0713749" lon="-105.229789">
  <ele>1583.0</ele>
  <time>2026-08-28T17:56:07Z</time>
  <course>0.0</course>
  <speed>0.0</speed>
  <fix>3d</fix>
</trkpt>
<trkpt lat="40.0713749" lon="-105.229789">
  <ele>1583.0</ele>
  <time>2026-08-28T17:56:07Z</time>
  <course>247.79</course>
  <speed>0.0316227766016838</speed>
  <fix>3d</fix>
</trkpt>
<trkpt lat="40.0713749" lon="-105.229789">
  <ele>1583.0</ele>
  <time>2026-08-28T17:56:07Z</time>
  <course>0.0</course>
  <speed>0.0</speed>
  <fix>3d</fix>
</trkpt>
<trkpt lat="40.0713749" lon="-105.229789">
  <ele>1583.0</ele>
  <time>2026-08-28T17:56:07Z</time>
  <course>247.79</course>
  <speed>0.0316227766016838</speed>
  <fix>3d</fix>
</trkpt>
<trkpt lat="40.0713749" lon="-105.229789">
  <ele>1583.0</ele>
  <time>2026-08-28T17:56:07Z</time>
  <course>0.0</course>
  <speed>0.0</speed>
  <fix>3d</fix>
</trkpt>
<trkpt lat="40.0713749" lon="-105.229789">
  <ele>1583.0</ele>
  <time>2026-08-28T17:56:07Z</time>
  <course>247.78</course>
  <speed>0.0316227766016838</speed>
  <fix>3d</fix>
</trkpt>
<trkpt lat="40.0713749" lon="-105.229789">
  <ele>1583.0</ele>
  <time>2026-08-28T17:56:07Z</time>
  <course>0.0</course>
  <speed>0.0</speed>
  <fix>3d</fix>
</trkpt>
<trkpt lat="40.0713749" lon="-105.229789">
  <ele>1583.0</ele>
  <time>2026-08-28T17:56:07Z</time>
  <course>247.78</course>
  <speed>0.0316227766016838</speed>
  <fix>3d</fix>
</trkpt>
<trkpt lat="40.0713749" lon="-105.229789">
  <ele>1583.0</ele>
  <time>2026-08-28T17:56:07Z</time>
  <course>0.0</course>
  <speed>0.0</speed>
  <fix>3d</fix>
</trkpt>
<trkpt lat="40.0713749" lon="-105.229789">
  <ele>1583.0</ele>
  <time>2026-08-28T17:56:07Z</time>
  <course>247.78</course>
  <speed>0.0316227766016838</speed>
  <fix>3d</fix>
</trkpt>
<trkpt lat="40.0713749" lon="-105.229789">
  <ele>1583.0</ele>
  <time>2026-08-28T17:56:07Z</time>
  <course>0.0</course>
  <speed>0.0</speed>
  <fix>3d</fix>
</trkpt>
<trkpt lat="40.0713749" lon="-105.229789">
  <ele>1583.0</ele>
  <time>2026-08-28T17:56:07Z</time>
  <course>247.77</course>
  <speed>0.0316227766016838</speed>
  <fix>3d</fix>
</trkpt>
<trkpt lat="40.0713749" lon="-105.229789">
  <ele>1583.0</ele>
  <time>2026-08-28T17:56:07Z</time>
  <course>0.0</course>
  <speed>0.0</speed>
  <fix>3d</fix>
</trkpt>
<trkpt lat="40.0713749" lon="-105.229789">
  <ele>1583.0</ele>
  <time>2026-08-28T17:56:07Z</time>
  <course>247.77</course>
  <speed>0.0316227766016838</speed>
  <fix>3d</fix>
</trkpt>
<trkpt lat="40.0713749" lon="-105.229789">
  <ele>1583.0</ele>
  <time>2026-08-28T17:56:07Z</time>
  <course>0.0</course>
  <speed>0.0</speed>
  <fix>3d</fix>
</trkpt>
<trkpt lat="40.0713749" lon="-105.229789">
  <ele>1583.0</ele>
  <time>2026-08-28T17:56:07Z</time>
  <course>247.76</course>
  <speed>0.0316227766016838</speed>
  <fix>3d</fix>
</trkpt>
<trkpt lat="40.0713749" lon="-105.229789">
  <ele>1583.0</ele>
  <time>2026-08-28T17:56:07Z</time>
  <course>0.0</course>
  <speed>0.0</speed>
  <fix>3d</fix>
</trkpt>
<trkpt lat="40.0713749" lon="-105.229789">
  <ele>1583.0</ele>
  <time>2026-08-28T17:56:07Z</time>
  <course>247.76</course>
  <speed>0.0316227766016838</speed>
  <fix>3d</fix>
</trkpt>
<trkpt lat="40.0713749" lon="-105.229789">
  <ele>1583.0</ele>
  <time>2026-08-28T17:56:07Z</time>
  <course>0.0</course>
  <speed>0.0</speed>
  <fix>3d</fix>
</trkpt>
<trkpt lat="40.0713749" lon="-105.229789">
  <ele>1583.0</ele>
  <time>2026-08-28T17:56:07Z</time>
  <course>247.76</course>
  <speed>0.0316227766016838</speed>
  <fix>3d</fix>
</trkpt>
<trkpt lat="40.0713749" lon="-105.229789">
  <ele>1583.0</ele>
  <time>2026-08-28T17:56:07Z</time>
  <course>0.0</course>
  <speed>0.0</speed>
  <fix>3d</fix>
</trkpt>
<trkpt lat="40.0713749" lon="-105.229789">
  <ele>1583.0</ele>
  <time>2026-08-28T17:56:07Z</time>
  <course>247.75</course>
  <speed>0.0316227766016838</speed>
  <fix>3d</fix>
</trkpt>
<trkpt lat="40.0713749" lon="-105.229789">
  <ele>1583.0</ele>
  <time>2026-08-28T17:56:07Z</time>
  <course>0.0</course>
  <speed>0.0</speed>
  <fix>3d</fix>
</trkpt>
<trkpt lat="40.0713749" lon="-105.229789">
  <ele>1583.0</ele>
  <time>2026-08-28T17:56:07Z</time>
  <course>247.75</course>
  <speed>0.0316227766016838</speed>
  <fix>3d</fix>
</trkpt>
<trkpt lat="40.0713749" lon="-105.229789">
  <ele>1583.0</ele>
  <time>2026-08-28T17:56:07Z</time>
  <course>0.0</course>
  <speed>0.0</speed>
  <fix>3d</fix>
</trkpt>
<trkpt lat="40.0713749" lon="-105.229789">
  <ele>1583.0</ele>
  <time>2026-08-28T17:56:07Z</time>
  <course>247.75</course>
  <speed>0.0316227766016838</speed>
  <fix>3d</fix>
</trkpt>
<trkpt lat="40.0713749" lon="-105.229789">
  <ele>1583.0</ele>
  <time>2026-08-28T17:56:07Z</time>
  <course>0.0</course>
  <speed>0.0</speed>
  <fix>3d</fix>
</trkpt>
<trkpt lat="40.0713749" lon="-105.229789">
  <ele>1583.0</ele>
  <time>2026-08-28T17:56:07Z</time>
  <course>247.74</course>
  <speed>0.0316227766016838</speed>
  <fix>3d</fix>
</trkpt>
<trkpt lat="40.0713749" lon="-105.229789">
  <ele>1583.0</ele>
  <time>2026-08-28T17:56:07Z</time>
  <course>0.0</course>
  <speed>0.0</speed>
  <fix>3d</fix>
</trkpt>
<trkpt lat="40.0713749" lon="-105.229789">
  <ele>1583.0</ele>
  <time>2026-08-28T17:56:07Z</time>
  <course>247.74</course>
  <speed>0.0316227766016838</speed>
  <fix>3d</fix>
</trkpt>
<trkpt lat="40.0713749" lon="-105.229789">
  <ele>1583.0</ele>
  <time>2026-08-28T17:56:07Z</time>
  <course>0.0</course>
  <speed>0.0</speed>
  <fix>3d</fix>
</trkpt>
<trkpt lat="40.0713749" lon="-105.229789">
  <ele>1583.0</ele>
  <time>2026-08-28T17:56:07Z</time>
  <course>247.74</course>
  <speed>0.0316227766016838</speed>
  <fix>3d</fix>
</trkpt>
<trkpt lat="40.0713749" lon="-105.229789">
  <ele>1583.0</ele>
  <time>2026-08-28T17:56:07Z</time>
  <course>0.0</course>
  <speed>0.0</speed>
  <fix>3d</fix>
</trkpt>
<trkpt lat="40.0713749" lon="-105.229789">
  <ele>1583.0</ele>
  <time>2026-08-28T17:56:07Z</time>
  <course>247.73</course>
  <speed>0.0316227766016838</speed>
  <fix>3d</fix>
</trkpt>
<trkpt lat="40.0713749" lon="-105.229789">
  <ele>1583.0</ele>
  <time>2026-08-28T17:56:07Z</time>
  <course>0.0</course>
  <speed>0.0</speed>
  <fix>3d</fix>
</trkpt>
<trkpt lat="40.0713749" lon="-105.229789">
  <ele>1583.0</ele>
  <time>2026-08-28T17:56:07Z</time>
  <course>247.73</course>
  <speed>0.0316227766016838</speed>
  <fix>3d</fix>
</trkpt>
<trkpt lat="40.0713749" lon="-105.229789">
  <ele>1583.0</ele>
  <time>2026-08-28T17:56:07Z</time>
  <course>0.0</course>
  <speed>0.0</speed>
  <fix>3d</fix>
</trkpt>
<trkpt lat="40.0713749" lon="-105.229789">
  <ele>1583.0</ele>
  <time>2026-08-28T17:56:07Z</time>
  <course>247.73</course>
  <speed>0.0316227766016838</speed>
  <fix>3d</fix>
</trkpt>
<trkpt lat="40.0713749" lon="-105.229789">
  <ele>1583.0</ele>
  <time>2026-08-28T17:56:07Z</time>
  <course>0.0</course>
  <speed>0.0</speed>
  <fix>3d</fix>
</trkpt>
<trkpt lat="40.0713749" lon="-105.229789">
  <ele>1583.0</ele>
  <time>2026-08-28T17:56:07Z</time>
  <course>247.72</course>
  <speed>0.0316227766016838</speed>
  <fix>3d</fix>
</trkpt>
<trkpt lat="40.0713749" lon="-105.229789">
  <ele>1583.0</ele>
  <time>2026-08-28T17:56:07Z</time>
  <course>0.0</course>
  <speed>0.0</speed>
  <fix>3d</fix>
</trkpt>
<trkpt lat="40.0713749" lon="-105.229789">
  <ele>1583.0</ele>
  <time>2026-08-28T17:56:07Z</time>
  <course>247.72</course>
  <speed>0.0316227766016838</speed>
  <fix>3d</fix>
</trkpt>
<trkpt lat="40.0713749" lon="-105.229789">
  <ele>1583.0</ele>
  <time>2026-08-28T17:56:07Z</time>
  <course>0.0</course>
  <speed>0.0</speed>
  <fix>3d</fix>
</trkpt>
<trkpt lat="40.0713749" lon="-105.229789">
  <ele>1583.0</ele>
  <time>2026-08-28T17:56:07Z</time>
  <course>247.72</course>
  <speed>0.0316227766016838</speed>
  <fix>3d</fix>
</trkpt>
<trkpt lat="40.0713749" lon="-105.229789">
  <ele>1583.0</ele>
  <time>2026-08-28T17:56:07Z</time>
  <course>0.0</course>
  <speed>0.0</speed>
  <fix>3d</fix>
</trkpt>
<trkpt lat="40.0713749" lon="-105.229789">
  <ele>1583.0</ele>
  <time>2026-08-28T17:56:07Z</time>
  <course>247.71</course>
  <speed>0.0316227766016838</speed>
  <fix>3d</fix>
</trkpt>
<trkpt lat="40.0713749" lon="-105.229789">
  <ele>1583.0</ele>
  <time>2026-08-28T17:56:07Z</time>
  <course>0.0</course>
  <speed>0.0</speed>
  <fix>3d</fix>
</trkpt>
<trkpt lat="40.0713749" lon="-105.229789">
  <ele>1583.0</ele>
  <time>2026-08-28T17:56:07Z</time>
  <course>247.71</course>
  <speed>0.0316227766016838</speed>
  <fix>3d</fix>
</trkpt>
<trkpt lat="40.0713749" lon="-105.229789">
  <ele>1583.0</ele>
  <time>2026-08-28T17:56:07Z</time>
  <course>0.0</course>
  <speed>0.0</speed>
  <fix>3d</fix>
</trkpt>
<trkpt lat="40.0713749" lon="-105.229789">
  <ele>1583.0</ele>
  <time>2026-08-28T17:56:07Z</time>
  <course>247.71</course>
  <speed>0.0316227766016838</speed>
  <fix>3d</fix>
</trkpt>
<trkpt lat="40.0713749" lon="-105.229789">
  <ele>1583.0</ele>
  <time>2026-08-28T17:56:07Z</time>
  <course>0.0</course>
  <speed>0.0</speed>
  <fix>3d</fix>
</trkpt>
<trkpt lat="40.0713749" lon="-105.229789">
  <ele>1583.0</ele>
  <time>2026-08-28T17:56:07Z</time>
  <course>247.7</course>
  <speed>0.0316227766016838</speed>
  <fix>3d</fix>
</trkpt>
<trkpt lat="40.0713749" lon="-105.229789">
  <ele>1583.0</ele>
  <time>2026-08-28T17:56:07Z</time>
  <course>0.0</course>
  <speed>0.0</speed>
  <fix>3d</fix>
</trkpt>
<trkpt lat="40.0713749" lon="-105.229789">
  <ele>1583.0</ele>
  <time>2026-08-28T17:56:07Z</time>
  <course>247.7</course>
  <speed>0.0316227766016838</speed>
  <fix>3d</fix>
</trkpt>
<trkpt lat="40.0713749" lon="-105.229789">
  <ele>1583.0</ele>
  <time>2026-08-28T17:56:07Z</time>
  <course>0.0</course>
  <speed>0.0</speed>
  <fix>3d</fix>
</trkpt>
<trkpt lat="40.0713749" lon="-105.229789">
  <ele>1583.0</ele>
  <time>2026-08-28T17:56:07Z</time>
  <course>247.7</course>
  <speed>0.0316227766016838</speed>
  <fix>3d</fix>
</trkpt>
<trkpt lat="40.0713749" lon="-105.229789">
  <ele>1583.0</ele>
  <time>2026-08-28T17:56:07Z</time>
  <course>0.0</course>
  <speed>0.0</speed>
  <fix>3d</fix>
</trkpt>
<trkpt lat="40.0713749" lon="-105.229789">
  <ele>1583.0</ele>
  <time>2026-08-28T17:56:07Z</time>
  <course>247.69</course>
  <speed>0.0316227766016838</speed>
  <fix>3d</fix>
</trkpt>
<trkpt lat="40.0713749" lon="-105.229789">
  <ele>1583.0</ele>
  <time>2026-08-28T17:56:07Z</time>
  <course>0.0</course>
  <speed>0.0</speed>
  <fix>3d</fix>
</trkpt>
<trkpt lat="40.0713749" lon="-105.229789">
  <ele>1583.0</ele>
  <time>2026-08-28T17:56:07Z</time>
  <course>247.69</course>
  <speed>0.0316227766016838</speed>
  <fix>3d</fix>
</trkpt>
<trkpt lat="40.0713749" lon="-105.229789">
  <ele>1583.0</ele>
  <time>2026-08-28T17:56:07Z</time>
  <course>0.0</course>
  <speed>0.0</speed>
  <fix>3d</fix>
</trkpt>
<trkpt lat="40.0713749" lon="-105.229789">
  <ele>1583.0</ele>
  <time>2026-08-28T17:56:07Z</time>
  <course>247.69</course>
  <speed>0.0316227766016838</speed>
  <fix>3d</fix>
</trkpt>
<trkpt lat="40.0713749" lon="-105.229789">
  <ele>1583.0</ele>
  <time>2026-08-28T17:56:07Z</time>
  <course>0.0</course>
  <speed>0.0</speed>
  <fix>3d</fix>
</trkpt>
<trkpt lat="40.0713749" lon="-105.229789">
  <ele>1583.0</ele>
  <time>2026-08-28T17:56:07Z</time>
  <course>247.68</course>
  <speed>0.0316227766016838</speed>
  <fix>3d</fix>
</trkpt>
<trkpt lat="40.0713749" lon="-105.229789">
  <ele>1583.0</ele>
  <time>2026-08-28T17:56:07Z</time>
  <course>0.0</course>
  <speed>0.0</speed>
  <fix>3d</fix>
</trkpt>
<trkpt lat="40.0713749" lon="-105.229789">
  <ele>1583.0</ele>
  <time>2026-08-28T17:56:07Z</time>
  <course>247.68</course>
  <speed>0.0316227766016838</speed>
  <fix>3d</fix>
</trkpt>
<trkpt lat="40.0713749" lon="-105.229789">
  <ele>1583.0</ele>
  <time>2026-08-28T17:56:07Z</time>
  <course>0.0</course>
  <speed>0.0</speed>
  <fix>3d</fix>
</trkpt>
<trkpt lat="40.0713749" lon="-105.229789">
  <ele>1583.0</ele>
  <time>2026-08-28T17:56:07Z</time>
  <course>247.68</course>
  <speed>0.0316227766016838</speed>
  <fix>3d</fix>
</trkpt>
<trkpt lat="40.0713749" lon="-105.229789">
  <ele>1583.0</ele>
  <time>2026-08-28T17:56:07Z</time>
  <course>0.0</course>
  <speed>0.0</speed>
  <fix>3d</fix>
</trkpt>
<trkpt lat="40.0713749" lon="-105.229789">
  <ele>1583.0</ele>
  <time>2026-08-28T17:56:07Z</time>
  <course>247.67</course>
  <speed>0.0316227766016838</speed>
  <fix>3d</fix>
</trkpt>
<trkpt lat="40.0713749" lon="-105.229789">
  <ele>1583.0</ele>
  <time>2026-08-28T17:56:07Z</time>
  <course>0.0</course>
  <speed>0.0</speed>
  <fix>3d</fix>
</trkpt>
<trkpt lat="40.0713749" lon="-105.229789">
  <ele>1583.0</ele>
  <time>2026-08-28T17:56:07Z</time>
  <course>247.67</course>
  <speed>0.0316227766016838</speed>
  <fix>3d</fix>
</trkpt>
<trkpt lat="40.0713749" lon="-105.229789">
  <ele>1583.0</ele>
  <time>2026-08-28T17:56:07Z</time>
  <course>0.0</course>
  <speed>0.0</speed>
  <fix>3d</fix>
</trkpt>
<trkpt lat="40.0713749" lon="-105.229789">
  <ele>1583.0</ele>
  <time>2026-08-28T17:56:07Z</time>
  <course>247.67</course>
  <speed>0.0316227766016838</speed>
  <fix>3d</fix>
</trkpt>
<trkpt lat="40.0713749" lon="-105.229789">
  <ele>1583.0</ele>
  <time>2026-08-28T17:56:07Z</time>
  <course>0.0</course>
  <speed>0.0</speed>
  <fix>3d</fix>
</trkpt>
<trkpt lat="40.0713749" lon="-105.229789">
  <ele>1583.0</ele>
  <time>2026-08-28T17:56:07Z</time>
  <course>247.66</course>
  <speed>0.0316227766016838</speed>
  <fix>3d</fix>
</trkpt>
<trkpt lat="40.0713749" lon="-105.229789">
  <ele>1583.0</ele>
  <time>2026-08-28T17:56:07Z</time>
  <course>0.0</course>
  <speed>0.0</speed>
  <fix>3d</fix>
</trkpt>
<trkpt lat="40.0713749" lon="-105.229789">
  <ele>1583.0</ele>
  <time>2026-08-28T17:56:07Z</time>
  <course>247.66</course>
  <speed>0.0316227766016838</speed>
  <fix>3d</fix>
</trkpt>
<trkpt lat="40.0713749" lon="-105.229789">
  <ele>1583.0</ele>
  <time>2026-08-28T17:56:07Z</time>
  <course>0.0</course>
  <speed>0.0</speed>
  <fix>3d</fix>
</trkpt>
<trkpt lat="40.0713749" lon="-105.229789">
  <ele>1583.0</ele>
  <time>2026-08-28T17:56:07Z</time>
  <course>247.66</course>
  <speed>0.0316227766016838</speed>
  <fix>3d</fix>
</trkpt>
<trkpt lat="40.0713749" lon="-105.229789">
  <ele>1583.0</ele>
  <time>2026-08-28T17:56:07Z</time>
  <course>0.0</course>
  <speed>0.0</speed>
  <fix>3d</fix>
</trkpt>
<trkpt lat="40.0713749" lon="-105.229789">
  <ele>1583.0</ele>
  <time>2026-08-28T17:56:07Z</time>
  <course>247.65</course>
  <speed>0.0316227766016838</speed>
  <fix>3d</fix>
</trkpt>
<trkpt lat="40.0713749" lon="-105.229789">
  <ele>1583.0</ele>
  <time>2026-08-28T17:56:07Z</time>
  <course>0.0</course>
  <speed>0.0</speed>
  <fix>3d</fix>
</trkpt>
<trkpt lat="40.0713749" lon="-105.229789">
  <ele>1583.0</ele>
  <time>2026-08-28T17:56:07Z</time>
  <course>247.65</course>
  <speed>0.0316227766016838</speed>
  <fix>3d</fix>
</trkpt>
<trkpt lat="40.0713749" lon="-105.229789">
  <ele>1583.0</ele>
  <time>2026-08-28T17:56:07Z</time>
  <course>0.0</course>
  <speed>0.0</speed>
  <fix>3d</fix>
</trkpt>
<trkpt lat="40.0713749" lon="-105.229789">
  <ele>1583.0</ele>
  <time>2026-08-28T17:56:07Z</time>
  <course>247.65</course>
  <speed>0.0316227766016838</speed>
  <fix>3d</fix>
</trkpt>
<trkpt lat="40.0713749" lon="-105.229789">
  <ele>1583.0</ele>
  <time>2026-08-28T17:56:07Z</time>
  <course>0.0</course>
  <speed>0.0</speed>
  <fix>3d</fix>
</trkpt>
<trkpt lat="40.0713749" lon="-105.229789">
  <ele>1583.0</ele>
  <time>2026-08-28T17:56:07Z</time>
  <course>247.64</course>
  <speed>0.0316227766016838</speed>
  <fix>3d</fix>
</trkpt>
<trkpt lat="40.0713749" lon="-105.229789">
  <ele>1583.0</ele>
  <time>2026-08-28T17:56:07Z</time>
  <course>0.0</course>
  <speed>0.0</speed>
  <fix>3d</fix>
</trkpt>
<trkpt lat="40.0713749" lon="-105.229789">
  <ele>1583.0</ele>
  <time>2026-08-28T17:56:07Z</time>
  <course>247.64</course>
  <speed>0.0316227766016838</speed>
  <fix>3d</fix>
</trkpt>
<trkpt lat="40.0713749" lon="-105.229789">
  <ele>1583.0</ele>
  <time>2026-08-28T17:56:07Z</time>
  <course>0.0</course>
  <speed>0.0</speed>
  <fix>3d</fix>
</trkpt>
<trkpt lat="40.0713749" lon="-105.229789">
  <ele>1583.0</ele>
  <time>2026-08-28T17:56:07Z</time>
  <course>247.64</course>
  <speed>0.0316227766016838</speed>
  <fix>3d</fix>
</trkpt>
<trkpt lat="40.0713749" lon="-105.229789">
  <ele>1583.0</ele>
  <time>2026-08-28T17:56:07Z</time>
  <course>0.0</course>
  <speed>0.0</speed>
  <fix>3d</fix>
</trkpt>
<trkpt lat="40.0713749" lon="-105.229789">
  <ele>1583.0</ele>
  <time>2026-08-28T17:56:07Z</time>
  <course>247.64</course>
  <speed>0.0316227766016838</speed>
  <fix>3d</fix>
</trkpt>
<trkpt lat="40.0713749" lon="-105.229789">
  <ele>1583.0</ele>
  <time>2026-08-28T17:56:07Z</time>
  <course>0.0</course>
  <speed>0.0</speed>
  <fix>3d</fix>
</trkpt>
<trkpt lat="40.0713749" lon="-105.229789">
  <ele>1583.0</ele>
  <time>2026-08-28T17:56:07Z</time>
  <course>247.63</course>
  <speed>0.0316227766016838</speed>
  <fix>3d</fix>
</trkpt>
<trkpt lat="40.0713749" lon="-105.229789">
  <ele>1583.0</ele>
  <time>2026-08-28T17:56:07Z</time>
  <course>0.0</course>
  <speed>0.0</speed>
  <fix>3d</fix>
</trkpt>
<trkpt lat="40.0713749" lon="-105.229789">
  <ele>1583.0</ele>
  <time>2026-08-28T17:56:07Z</time>
  <course>247.63</course>
  <speed>0.0316227766016838</speed>
  <fix>3d</fix>
</trkpt>
<trkpt lat="40.0713749" lon="-105.229789">
  <ele>1583.0</ele>
  <time>2026-08-28T17:56:07Z</time>
  <course>0.0</course>
  <speed>0.0</speed>
  <fix>3d</fix>
</trkpt>
<trkpt lat="40.0713749" lon="-105.229789">
  <ele>1583.0</ele>
  <time>2026-08-28T17:56:07Z</time>
  <course>247.63</course>
  <speed>0.0316227766016838</speed>
  <fix>3d</fix>
</trkpt>
<trkpt lat="40.0713749" lon="-105.229789">
  <ele>1583.0</ele>
  <time>2026-08-28T17:56:07Z</time>
  <course>0.0</course>
  <speed>0.0</speed>
  <fix>3d</fix>
</trkpt>
<trkpt lat="40.0713749" lon="-105.229789">
  <ele>1583.0</ele>
  <time>2026-08-28T17:56:07Z</time>
  <course>247.62</course>
  <speed>0.0316227766016838</speed>
  <fix>3d</fix>
</trkpt>
<trkpt lat="40.0713749" lon="-105.229789">
  <ele>1583.0</ele>
  <time>2026-08-28T17:56:07Z</time>
  <course>0.0</course>
  <speed>0.0</speed>
  <fix>3d</fix>
</trkpt>
<trkpt lat="40.0713749" lon="-105.229789">
  <ele>1583.0</ele>
  <time>2026-08-28T17:56:07Z</time>
  <course>247.62</course>
  <speed>0.0316227766016838</speed>
  <fix>3d</fix>
</trkpt>
<trkpt lat="40.0713749" lon="-105.229789">
  <ele>1583.0</ele>
  <time>2026-08-28T17:56:07Z</time>
  <course>0.0</course>
  <speed>0.0</speed>
  <fix>3d</fix>
</trkpt>
<trkpt lat="40.0713749" lon="-105.229789">
  <ele>1583.0</ele>
  <time>2026-08-28T17:56:07Z</time>
  <course>247.62</course>
  <speed>0.0316227766016838</speed>
  <fix>3d</fix>
</trkpt>
<trkpt lat="40.0713749" lon="-105.229789">
  <ele>1583.0</ele>
  <time>2026-08-28T17:56:07Z</time>
  <course>0.0</course>
  <speed>0.0</speed>
  <fix>3d</fix>
</trkpt>
<trkpt lat="40.0713749" lon="-105.229789">
  <ele>1583.0</ele>
  <time>2026-08-28T17:56:07Z</time>
  <course>247.62</course>
  <speed>0.0316227766016838</speed>
  <fix>3d</fix>
</trkpt>
<trkpt lat="40.0713749" lon="-105.229789">
  <ele>1583.0</ele>
  <time>2026-08-28T17:56:07Z</time>
  <course>0.0</course>
  <speed>0.0</speed>
  <fix>3d</fix>
</trkpt>
<trkpt lat="40.0713749" lon="-105.229789">
  <ele>1583.0</ele>
  <time>2026-08-28T17:56:07Z</time>
  <course>247.61</course>
  <speed>0.0316227766016838</speed>
  <fix>3d</fix>
</trkpt>
<trkpt lat="40.0713749" lon="-105.229789">
  <ele>1583.0</ele>
  <time>2026-08-28T17:56:07Z</time>
  <course>0.0</course>
  <speed>0.0</speed>
  <fix>3d</fix>
</trkpt>
<trkpt lat="40.0713749" lon="-105.229789">
  <ele>1583.0</ele>
  <time>2026-08-28T17:56:07Z</time>
  <course>247.61</course>
  <speed>0.0316227766016838</speed>
  <fix>3d</fix>
</trkpt>
<trkpt lat="40.0713749" lon="-105.229789">
  <ele>1583.0</ele>
  <time>2026-08-28T17:56:07Z</time>
  <course>0.0</course>
  <speed>0.0</speed>
  <fix>3d</fix>
</trkpt>
<trkpt lat="40.0713749" lon="-105.229789">
  <ele>1583.0</ele>
  <time>2026-08-28T17:56:07Z</time>
  <course>247.61</course>
  <speed>0.0316227766016838</speed>
  <fix>3d</fix>
</trkpt>
<trkpt lat="40.0713749" lon="-105.229789">
  <ele>1583.0</ele>
  <time>2026-08-28T17:56:07Z</time>
  <course>0.0</course>
  <speed>0.0</speed>
  <fix>3d</fix>
</trkpt>
<trkpt lat="40.0713749" lon="-105.229789">
  <ele>1583.0</ele>
  <time>2026-08-28T17:56:07Z</time>
  <course>247.6</course>
  <speed>0.0316227766016838</speed>
  <fix>3d</fix>
</trkpt>
<trkpt lat="40.0713749" lon="-105.229789">
  <ele>1583.0</ele>
  <time>2026-08-28T17:56:07Z</time>
  <course>0.0</course>
  <speed>0.0</speed>
  <fix>3d</fix>
</trkpt>
<trkpt lat="40.0713749" lon="-105.229789">
  <ele>1583.0</ele>
  <time>2026-08-28T17:56:07Z</time>
  <course>247.6</course>
  <speed>0.0316227766016838</speed>
  <fix>3d</fix>
</trkpt>
<trkpt lat="40.0713749" lon="-105.229789">
  <ele>1583.0</ele>
  <time>2026-08-28T17:56:07Z</time>
  <course>0.0</course>
  <speed>0.0</speed>
  <fix>3d</fix>
</trkpt>
<trkpt lat="40.0713749" lon="-105.229789">
  <ele>1583.0</ele>
  <time>2026-08-28T17:56:07Z</time>
  <course>247.6</course>
  <speed>0.0316227766016838</speed>
  <fix>3d</fix>
</trkpt>
<trkpt lat="40.0713749" lon="-105.229789">
  <ele>1583.0</ele>
  <time>2026-08-28T17:56:07Z</time>
  <course>0.0</course>
  <speed>0.0</speed>
  <fix>3d</fix>
</trkpt>
<trkpt lat="40.0713749" lon="-105.229789">
  <ele>1583.0</ele>
  <time>2026-08-28T17:56:07Z</time>
  <course>247.6</course>
  <speed>0.0316227766016838</speed>
  <fix>3d</fix>
</trkpt>
<trkpt lat="40.0713749" lon="-105.229789">
  <ele>1583.0</ele>
  <time>2026-08-28T17:56:07Z</time>
  <course>0.0</course>
  <speed>0.0</speed>
  <fix>3d</fix>
</trkpt>
<trkpt lat="40.0713749" lon="-105.229789">
  <ele>1583.0</ele>
  <time>2026-08-28T17:56:07Z</time>
  <course>247.59</course>
  <speed>0.0316227766016838</speed>
  <fix>3d</fix>
</trkpt>
<trkpt lat="40.0713749" lon="-105.229789">
  <ele>1583.0</ele>
  <time>2026-08-28T17:56:07Z</time>
  <course>0.0</course>
  <speed>0.0</speed>
  <fix>3d</fix>
</trkpt>
<trkpt lat="40.0713749" lon="-105.229789">
  <ele>1582.92</ele>
  <time>2026-08-28T17:56:07Z</time>
  <course>247.59</course>
  <speed>0.0</speed>
  <fix>3d</fix>
</trkpt>
<trkpt lat="40.0713749" lon="-105.229789">
  <ele>1583.0</ele>
  <time>2026-08-28T17:56:07Z</time>
  <course>0.0</course>
  <speed>0.0</speed>
  <fix>3d</fix>
</trkpt>
<trkpt lat="40.0713749" lon="-105.229789">
  <ele>1582.92</ele>
  <time>2026-08-28T17:56:07Z</time>
  <course>247.59</course>
  <speed>0.0</speed>
  <fix>3d</fix>
</trkpt>
<trkpt lat="40.0713749" lon="-105.229789">
  <ele>1583.0</ele>
  <time>2026-08-28T17:56:07Z</time>
  <course>0.0</course>
  <speed>0.0</speed>
  <fix>3d</fix>
</trkpt>
<trkpt lat="40.0713749" lon="-105.229789">
  <ele>1582.91</ele>
  <time>2026-08-28T17:56:07Z</time>
  <course>247.58</course>
  <speed>0.0</speed>
  <fix>3d</fix>
</trkpt>
<trkpt lat="40.0713749" lon="-105.229789">
  <ele>1583.0</ele>
  <time>2026-08-28T17:56:08Z</time>
  <course>0.0</course>
  <speed>0.0</speed>
  <fix>3d</fix>
</trkpt>
<trkpt lat="40.0713749" lon="-105.229789">
  <ele>1582.91</ele>
  <time>2026-08-28T17:56:08Z</time>
  <course>247.58</course>
  <speed>0.0</speed>
  <fix>3d</fix>
</trkpt>
<trkpt lat="40.0713749" lon="-105.229789">
  <ele>1583.0</ele>
  <time>2026-08-28T17:56:08Z</time>
  <course>0.0</course>
  <speed>0.0</speed>
  <fix>3d</fix>
</trkpt>
<trkpt lat="40.0713749" lon="-105.229789">
  <ele>1582.9</ele>
  <time>2026-08-28T17:56:08Z</time>
  <course>247.58</course>
  <speed>0.0</speed>
  <fix>3d</fix>
</trkpt>
<trkpt lat="40.0713749" lon="-105.229789">
  <ele>1583.0</ele>
  <time>2026-08-28T17:56:08Z</time>
  <course>0.0</course>
  <speed>0.0</speed>
  <fix>3d</fix>
</trkpt>
<trkpt lat="40.0713749" lon="-105.229789">
  <ele>1582.9</ele>
  <time>2026-08-28T17:56:08Z</time>
  <course>247.58</course>
  <speed>0.0</speed>
  <fix>3d</fix>
</trkpt>
<trkpt lat="40.0713749" lon="-105.229789">
  <ele>1583.0</ele>
  <time>2026-08-28T17:56:08Z</time>
  <course>0.0</course>
  <speed>0.0</speed>
  <fix>3d</fix>
</trkpt>
<trkpt lat="40.0713749" lon="-105.229789">
  <ele>1582.9</ele>
  <time>2026-08-28T17:56:08Z</time>
  <course>247.57</course>
  <speed>0.0</speed>
  <fix>3d</fix>
</trkpt>
<trkpt lat="40.0713749" lon="-105.229789">
  <ele>1583.0</ele>
  <time>2026-08-28T17:56:08Z</time>
  <course>0.0</course>
  <speed>0.0</speed>
  <fix>3d</fix>
</trkpt>
<trkpt lat="40.0713749" lon="-105.229789">
  <ele>1582.9</ele>
  <time>2026-08-28T17:56:08Z</time>
  <course>247.57</course>
  <speed>0.0</speed>
  <fix>3d</fix>
</trkpt>
<trkpt lat="40.0713749" lon="-105.229789">
  <ele>1583.0</ele>
  <time>2026-08-28T17:56:08Z</time>
  <course>0.0</course>
  <speed>0.0</speed>
  <fix>3d</fix>
</trkpt>
<trkpt lat="40.0713749" lon="-105.229789">
  <ele>1582.9</ele>
  <time>2026-08-28T17:56:08Z</time>
  <course>247.57</course>
  <speed>0.0</speed>
  <fix>3d</fix>
</trkpt>
<trkpt lat="40.0713749" lon="-105.229789">
  <ele>1583.0</ele>
  <time>2026-08-28T17:56:08Z</time>
  <course>0.0</course>
  <speed>0.0</speed>
  <fix>3d</fix>
</trkpt>
<trkpt lat="40.0713749" lon="-105.229789">
  <ele>1582.9</ele>
  <time>2026-08-28T17:56:08Z</time>
  <course>247.57</course>
  <speed>0.01</speed>
  <fix>3d</fix>
</trkpt>
<trkpt lat="40.0713749" lon="-105.229789">
  <ele>1583.0</ele>
  <time>2026-08-28T17:56:08Z</time>
  <course>0.0</course>
  <speed>0.0</speed>
  <fix>3d</fix>
</trkpt>
<trkpt lat="40.0713749" lon="-105.229789">
  <ele>1582.9</ele>
  <time>2026-08-28T17:56:08Z</time>
  <course>247.56</course>
  <speed>0.01</speed>
  <fix>3d</fix>
</trkpt>
<trkpt lat="40.0713749" lon="-105.229789">
  <ele>1583.0</ele>
  <time>2026-08-28T17:56:08Z</time>
  <course>0.0</course>
  <speed>0.0</speed>
  <fix>3d</fix>
</trkpt>
<trkpt lat="40.0713749" lon="-105.229789">
  <ele>1582.91</ele>
  <time>2026-08-28T17:56:08Z</time>
  <course>247.56</course>
  <speed>0.01</speed>
  <fix>3d</fix>
</trkpt>
<trkpt lat="40.0713749" lon="-105.229789">
  <ele>1583.0</ele>
  <time>2026-08-28T17:56:08Z</time>
  <course>0.0</course>
  <speed>0.0</speed>
  <fix>3d</fix>
</trkpt>
<trkpt lat="40.0713749" lon="-105.229789">
  <ele>1582.91</ele>
  <time>2026-08-28T17:56:08Z</time>
  <course>247.56</course>
  <speed>0.01</speed>
  <fix>3d</fix>
</trkpt>
<trkpt lat="40.0713749" lon="-105.229789">
  <ele>1583.0</ele>
  <time>2026-08-28T17:56:08Z</time>
  <course>0.0</course>
  <speed>0.0</speed>
  <fix>3d</fix>
</trkpt>
<trkpt lat="40.0713749" lon="-105.229789">
  <ele>1582.92</ele>
  <time>2026-08-28T17:56:08Z</time>
  <course>247.56</course>
  <speed>0.01</speed>
  <fix>3d</fix>
</trkpt>
<trkpt lat="40.0713749" lon="-105.229789">
  <ele>1583.0</ele>
  <time>2026-08-28T17:56:08Z</time>
  <course>0.0</course>
  <speed>0.0</speed>
  <fix>3d</fix>
</trkpt>
<trkpt lat="40.0713749" lon="-105.229789">
  <ele>1582.92</ele>
  <time>2026-08-28T17:56:08Z</time>
  <course>247.55</course>
  <speed>0.01</speed>
  <fix>3d</fix>
</trkpt>
<trkpt lat="40.0713749" lon="-105.229789">
  <ele>1583.0</ele>
  <time>2026-08-28T17:56:08Z</time>
  <course>0.0</course>
  <speed>0.0</speed>
  <fix>3d</fix>
</trkpt>
<trkpt lat="40.0713749" lon="-105.229789">
  <ele>1582.92</ele>
  <time>2026-08-28T17:56:08Z</time>
  <course>247.55</course>
  <speed>0.01</speed>
  <fix>3d</fix>
</trkpt>
<trkpt lat="40.0713749" lon="-105.229789">
  <ele>1583.0</ele>
  <time>2026-08-28T17:56:08Z</time>
  <course>0.0</course>
  <speed>0.0</speed>
  <fix>3d</fix>
</trkpt>
<trkpt lat="40.0713749" lon="-105.229789">
  <ele>1582.93</ele>
  <time>2026-08-28T17:56:08Z</time>
  <course>247.55</course>
  <speed>0.01</speed>
  <fix>3d</fix>
</trkpt>
<trkpt lat="40.0713749" lon="-105.229789">
  <ele>1583.0</ele>
  <time>2026-08-28T17:56:08Z</time>
  <course>0.0</course>
  <speed>0.0</speed>
  <fix>3d</fix>
</trkpt>
<trkpt lat="40.0713749" lon="-105.229789">
  <ele>1582.93</ele>
  <time>2026-08-28T17:56:08Z</time>
  <course>247.55</course>
  <speed>0.01</speed>
  <fix>3d</fix>
</trkpt>
<trkpt lat="40.0713749" lon="-105.229789">
  <ele>1583.0</ele>
  <time>2026-08-28T17:56:08Z</time>
  <course>0.0</course>
  <speed>0.0</speed>
  <fix>3d</fix>
</trkpt>
<trkpt lat="40.0713749" lon="-105.229789">
  <ele>1582.93</ele>
  <time>2026-08-28T17:56:08Z</time>
  <course>247.54</course>
  <speed>0.02</speed>
  <fix>3d</fix>
</trkpt>
<trkpt lat="40.0713749" lon="-105.229789">
  <ele>1583.0</ele>
  <time>2026-08-28T17:56:08Z</time>
  <course>0.0</course>
  <speed>0.0</speed>
  <fix>3d</fix>
</trkpt>
<trkpt lat="40.0713749" lon="-105.229789">
  <ele>1582.93</ele>
  <time>2026-08-28T17:56:08Z</time>
  <course>247.54</course>
  <speed>0.02</speed>
  <fix>3d</fix>
</trkpt>
<trkpt lat="40.0713749" lon="-105.229789">
  <ele>1583.0</ele>
  <time>2026-08-28T17:56:08Z</time>
  <course>0.0</course>
  <speed>0.0</speed>
  <fix>3d</fix>
</trkpt>
<trkpt lat="40.0713749" lon="-105.229789">
  <ele>1582.93</ele>
  <time>2026-08-28T17:56:08Z</time>
  <course>247.54</course>
  <speed>0.02</speed>
  <fix>3d</fix>
</trkpt>
<trkpt lat="40.0713749" lon="-105.229789">
  <ele>1583.0</ele>
  <time>2026-08-28T17:56:08Z</time>
  <course>0.0</course>
  <speed>0.0</speed>
  <fix>3d</fix>
</trkpt>
<trkpt lat="40.0713749" lon="-105.229789">
  <ele>1582.93</ele>
  <time>2026-08-28T17:56:08Z</time>
  <course>247.54</course>
  <speed>0.022360679774997897</speed>
  <fix>3d</fix>
</trkpt>
<trkpt lat="40.0713749" lon="-105.229789">
  <ele>1583.0</ele>
  <time>2026-08-28T17:56:08Z</time>
  <course>0.0</course>
  <speed>0.0</speed>
  <fix>3d</fix>
</trkpt>
<trkpt lat="40.0713749" lon="-105.229789">
  <ele>1582.94</ele>
  <time>2026-08-28T17:56:08Z</time>
  <course>247.53</course>
  <speed>0.022360679774997897</speed>
  <fix>3d</fix>
</trkpt>
<trkpt lat="40.0713749" lon="-105.229789">
  <ele>1583.0</ele>
  <time>2026-08-28T17:56:08Z</time>
  <course>0.0</course>
  <speed>0.0</speed>
  <fix>3d</fix>
</trkpt>
<trkpt lat="40.0713749" lon="-105.229789">
  <ele>1582.94</ele>
  <time>2026-08-28T17:56:08Z</time>
  <course>247.53</course>
  <speed>0.022360679774997897</speed>
  <fix>3d</fix>
</trkpt>
<trkpt lat="40.0713749" lon="-105.229789">
  <ele>1583.0</ele>
  <time>2026-08-28T17:56:08Z</time>
  <course>0.0</course>
  <speed>0.0</speed>
  <fix>3d</fix>
</trkpt>
<trkpt lat="40.071375" lon="-105.229789">
  <ele>1582.94</ele>
  <time>2026-08-28T17:56:08Z</time>
  <course>247.53</course>
  <speed>0.022360679774997897</speed>
  <fix>3d</fix>
</trkpt>
<trkpt lat="40.0713749" lon="-105.229789">
  <ele>1583.0</ele>
  <time>2026-08-28T17:56:08Z</time>
  <course>0.0</course>
  <speed>0.0</speed>
  <fix>3d</fix>
</trkpt>
<trkpt lat="39.655741" lon="-104.1383097">
  <ele>1566.58</ele>
  <time>2026-08-28T17:56:08Z</time>
  <course>0.0</course>
  <speed>0.0</speed>
  <fix>3d</fix>
</trkpt>
<trkpt lat="40.0713749" lon="-105.229789">
  <ele>1583.0</ele>
  <time>2026-08-28T17:56:08Z</time>
  <course>0.0</course>
  <speed>0.0</speed>
  <fix>3d</fix>
</trkpt>
<trkpt lat="40.0713749" lon="-105.229789">
  <ele>1583.0</ele>
  <time>2026-08-28T17:56:08Z</time>
  <course>238.36</course>
  <speed>0.0</speed>
  <fix>3d</fix>
</trkpt>
<trkpt lat="40.0713749" lon="-105.229789">
  <ele>1583.0</ele>
  <time>2026-08-28T17:56:08Z</time>
  <course>0.0</course>
  <speed>0.0</speed>
  <fix>3d</fix>
</trkpt>
<trkpt lat="40.0713749" lon="-105.229789">
  <ele>1583.0</ele>
  <time>2026-08-28T17:56:08Z</time>
  <course>238.44</course>
  <speed>0.0</speed>
  <fix>3d</fix>
</trkpt>
<trkpt lat="40.0713749" lon="-105.229789">
  <ele>1583.0</ele>
  <time>2026-08-28T17:56:08Z</time>
  <course>0.0</course>
  <speed>0.0</speed>
  <fix>3d</fix>
</trkpt>
<trkpt lat="40.0713749" lon="-105.229789">
  <ele>1583.0</ele>
  <time>2026-08-28T17:56:08Z</time>
  <course>238.64</course>
  <speed>0.0</speed>
  <fix>3d</fix>
</trkpt>
<trkpt lat="40.0713749" lon="-105.229789">
  <ele>1583.0</ele>
  <time>2026-08-28T17:56:08Z</time>
  <course>0.0</course>
  <speed>0.0</speed>
  <fix>3d</fix>
</trkpt>
<trkpt lat="40.0713749" lon="-105.229789">
  <ele>1583.0</ele>
  <time>2026-08-28T17:56:08Z</time>
  <course>238.93</course>
  <speed>0.0</speed>
  <fix>3d</fix>
</trkpt>
<trkpt lat="40.0713749" lon="-105.229789">
  <ele>1583.0</ele>
  <time>2026-08-28T17:56:08Z</time>
  <course>0.0</course>
  <speed>0.0</speed>
  <fix>3d</fix>
</trkpt>
<trkpt lat="40.0713749" lon="-105.229789">
  <ele>1583.0</ele>
  <time>2026-08-28T17:56:08Z</time>
  <course>239.26</course>
  <speed>0.0</speed>
  <fix>3d</fix>
</trkpt>
<trkpt lat="40.0713749" lon="-105.229789">
  <ele>1583.0</ele>
  <time>2026-08-28T17:56:08Z</time>
  <course>0.0</course>
  <speed>0.0</speed>
  <fix>3d</fix>
</trkpt>
<trkpt lat="40.0713749" lon="-105.229789">
  <ele>1583.0</ele>
  <time>2026-08-28T17:56:08Z</time>
  <course>239.61</course>
  <speed>0.0</speed>
  <fix>3d</fix>
</trkpt>
<trkpt lat="40.0713749" lon="-105.229789">
  <ele>1583.0</ele>
  <time>2026-08-28T17:56:08Z</time>
  <course>0.0</course>
  <speed>0.0</speed>
  <fix>3d</fix>
</trkpt>
<trkpt lat="40.0713749" lon="-105.229789">
  <ele>1583.0</ele>
  <time>2026-08-28T17:56:08Z</time>
  <course>239.96</course>
  <speed>0.0</speed>
  <fix>3d</fix>
</trkpt>
<trkpt lat="40.0713749" lon="-105.229789">
  <ele>1583.0</ele>
  <time>2026-08-28T17:56:08Z</time>
  <course>0.0</course>
  <speed>0.0</speed>
  <fix>3d</fix>
</trkpt>
<trkpt lat="40.0713749" lon="-105.229789">
  <ele>1583.0</ele>
  <time>2026-08-28T17:56:08Z</time>
  <course>240.29</course>
  <speed>0.0</speed>
  <fix>3d</fix>
</trkpt>
<trkpt lat="40.0713749" lon="-105.229789">
  <ele>1583.0</ele>
  <time>2026-08-28T17:56:08Z</time>
  <course>0.0</course>
  <speed>0.0</speed>
  <fix>3d</fix>
</trkpt>
<trkpt lat="40.0713749" lon="-105.229789">
  <ele>1583.0</ele>
  <time>2026-08-28T17:56:08Z</time>
  <course>240.61</course>
  <speed>0.0</speed>
  <fix>3d</fix>
</trkpt>
<trkpt lat="40.0713749" lon="-105.229789">
  <ele>1583.0</ele>
  <time>2026-08-28T17:56:08Z</time>
  <course>0.0</course>
  <speed>0.0</speed>
  <fix>3d</fix>
</trkpt>
<trkpt lat="40.0713749" lon="-105.229789">
  <ele>1583.0</ele>
  <time>2026-08-28T17:56:08Z</time>
  <course>240.92</course>
  <speed>0.0</speed>
  <fix>3d</fix>
</trkpt>
<trkpt lat="40.0713749" lon="-105.229789">
  <ele>1583.0</ele>
  <time>2026-08-28T17:56:08Z</time>
  <course>0.0</course>
  <speed>0.0</speed>
  <fix>3d</fix>
</trkpt>
<trkpt lat="40.0713749" lon="-105.229789">
  <ele>1583.0</ele>
  <time>2026-08-28T17:56:08Z</time>
  <course>241.21</course>
  <speed>0.0</speed>
  <fix>3d</fix>
</trkpt>
<trkpt lat="40.0713749" lon="-105.229789">
  <ele>1583.0</ele>
  <time>2026-08-28T17:56:08Z</time>
  <course>0.0</course>
  <speed>0.0</speed>
  <fix>3d</fix>
</trkpt>
<trkpt lat="40.0713749" lon="-105.229789">
  <ele>1583.0</ele>
  <time>2026-08-28T17:56:08Z</time>
  <course>241.49</course>
  <speed>0.0</speed>
  <fix>3d</fix>
</trkpt>
<trkpt lat="40.0713749" lon="-105.229789">
  <ele>1583.0</ele>
  <time>2026-08-28T17:56:08Z</time>
  <course>0.0</course>
  <speed>0.0</speed>
  <fix>3d</fix>
</trkpt>
<trkpt lat="40.0713749" lon="-105.229789">
  <ele>1583.0</ele>
  <time>2026-08-28T17:56:08Z</time>
  <course>241.77</course>
  <speed>0.0</speed>
  <fix>3d</fix>
</trkpt>
<trkpt lat="40.0713749" lon="-105.229789">
  <ele>1583.0</ele>
  <time>2026-08-28T17:56:08Z</time>
  <course>0.0</course>
  <speed>0.0</speed>
  <fix>3d</fix>
</trkpt>
<trkpt lat="40.0713749" lon="-105.229789">
  <ele>1583.0</ele>
  <time>2026-08-28T17:56:08Z</time>
  <course>242.03</course>
  <speed>0.0</speed>
  <fix>3d</fix>
</trkpt>
<trkpt lat="40.0713749" lon="-105.229789">
  <ele>1583.0</ele>
  <time>2026-08-28T17:56:08Z</time>
  <course>0.0</course>
  <speed>0.0</speed>
  <fix>3d</fix>
</trkpt>
<trkpt lat="40.0713749" lon="-105.229789">
  <ele>1583.0</ele>
  <time>2026-08-28T17:56:08Z</time>
  <course>242.29</course>
  <speed>0.0</speed>
  <fix>3d</fix>
</trkpt>
<trkpt lat="40.0713749" lon="-105.229789">
  <ele>1583.0</ele>
  <time>2026-08-28T17:56:08Z</time>
  <course>0.0</course>
  <speed>0.0</speed>
  <fix>3d</fix>
</trkpt>
<trkpt lat="40.0713749" lon="-105.229789">
  <ele>1583.0</ele>
  <time>2026-08-28T17:56:08Z</time>
  <course>242.54</course>
  <speed>0.0</speed>
  <fix>3d</fix>
</trkpt>
<trkpt lat="40.0713749" lon="-105.229789">
  <ele>1583.0</ele>
  <time>2026-08-28T17:56:08Z</time>
  <course>0.0</course>
  <speed>0.0</speed>
  <fix>3d</fix>
</trkpt>
<trkpt lat="40.0713749" lon="-105.229789">
  <ele>1583.0</ele>
  <time>2026-08-28T17:56:08Z</time>
  <course>242.79</course>
  <speed>0.0</speed>
  <fix>3d</fix>
</trkpt>
<trkpt lat="40.0713749" lon="-105.229789">
  <ele>1583.0</ele>
  <time>2026-08-28T17:56:08Z</time>
  <course>0.0</course>
  <speed>0.0</speed>
  <fix>3d</fix>
</trkpt>
<trkpt lat="40.0713749" lon="-105.229789">
  <ele>1583.0</ele>
  <time>2026-08-28T17:56:08Z</time>
  <course>243.02</course>
  <speed>0.0</speed>
  <fix>3d</fix>
</trkpt>
<trkpt lat="40.0713749" lon="-105.229789">
  <ele>1583.0</ele>
  <time>2026-08-28T17:56:08Z</time>
  <course>0.0</course>
  <speed>0.0</speed>
  <fix>3d</fix>
</trkpt>
<trkpt lat="40.0713749" lon="-105.229789">
  <ele>1583.0</ele>
  <time>2026-08-28T17:56:08Z</time>
  <course>243.25</course>
  <speed>0.0</speed>
  <fix>3d</fix>
</trkpt>
<trkpt lat="40.0713749" lon="-105.229789">
  <ele>1583.0</ele>
  <time>2026-08-28T17:56:08Z</time>
  <course>0.0</course>
  <speed>0.0</speed>
  <fix>3d</fix>
</trkpt>
<trkpt lat="40.0713749" lon="-105.229789">
  <ele>1583.0</ele>
  <time>2026-08-28T17:56:08Z</time>
  <course>243.47</course>
  <speed>0.0</speed>
  <fix>3d</fix>
</trkpt>
<trkpt lat="40.0713749" lon="-105.229789">
  <ele>1583.0</ele>
  <time>2026-08-28T17:56:08Z</time>
  <course>0.0</course>
  <speed>0.0</speed>
  <fix>3d</fix>
</trkpt>
<trkpt lat="40.0713749" lon="-105.229789">
  <ele>1583.0</ele>
  <time>2026-08-28T17:56:08Z</time>
  <course>243.68</course>
  <speed>0.0</speed>
  <fix>3d</fix>
</trkpt>
<trkpt lat="40.0713749" lon="-105.229789">
  <ele>1583.0</ele>
  <time>2026-08-28T17:56:08Z</time>
  <course>0.0</course>
  <speed>0.0</speed>
  <fix>3d</fix>
</trkpt>
<trkpt lat="40.0713749" lon="-105.229789">
  <ele>1583.0</ele>
  <time>2026-08-28T17:56:08Z</time>
  <course>243.89</course>
  <speed>0.0</speed>
  <fix>3d</fix>
</trkpt>
<trkpt lat="40.0713749" lon="-105.229789">
  <ele>1583.0</ele>
  <time>2026-08-28T17:56:08Z</time>
  <course>0.0</course>
  <speed>0.0</speed>
  <fix>3d</fix>
</trkpt>
<trkpt lat="40.0713749" lon="-105.229789">
  <ele>1583.0</ele>
  <time>2026-08-28T17:56:08Z</time>
  <course>244.09</course>
  <speed>0.0</speed>
  <fix>3d</fix>
</trkpt>
<trkpt lat="40.0713749" lon="-105.229789">
  <ele>1583.0</ele>
  <time>2026-08-28T17:56:08Z</time>
  <course>0.0</course>
  <speed>0.0</speed>
  <fix>3d</fix>
</trkpt>
<trkpt lat="40.0713749" lon="-105.229789">
  <ele>1583.0</ele>
  <time>2026-08-28T17:56:08Z</time>
  <course>244.28</course>
  <speed>0.0</speed>
  <fix>3d</fix>
</trkpt>
<trkpt lat="40.0713749" lon="-105.229789">
  <ele>1583.0</ele>
  <time>2026-08-28T17:56:08Z</time>
  <course>0.0</course>
  <speed>0.0</speed>
  <fix>3d</fix>
</trkpt>
<trkpt lat="40.0713749" lon="-105.229789">
  <ele>1583.0</ele>
  <time>2026-08-28T17:56:08Z</time>
  <course>244.46</course>
  <speed>0.0</speed>
  <fix>3d</fix>
</trkpt>
<trkpt lat="40.0713749" lon="-105.229789">
  <ele>1583.0</ele>
  <time>2026-08-28T17:56:08Z</time>
  <course>0.0</course>
  <speed>0.0</speed>
  <fix>3d</fix>
</trkpt>
<trkpt lat="40.0713749" lon="-105.229789">
  <ele>1583.0</ele>
  <time>2026-08-28T17:56:08Z</time>
  <course>244.64</course>
  <speed>0.0</speed>
  <fix>3d</fix>
</trkpt>
<trkpt lat="40.0713749" lon="-105.229789">
  <ele>1583.0</ele>
  <time>2026-08-28T17:56:08Z</time>
  <course>0.0</course>
  <speed>0.0</speed>
  <fix>3d</fix>
</trkpt>
<trkpt lat="40.0713749" lon="-105.229789">
  <ele>1583.0</ele>
  <time>2026-08-28T17:56:08Z</time>
  <course>244.81</course>
  <speed>0.0</speed>
  <fix>3d</fix>
</trkpt>
<trkpt lat="40.0713749" lon="-105.229789">
  <ele>1583.0</ele>
  <time>2026-08-28T17:56:08Z</time>
  <course>0.0</course>
  <speed>0.0</speed>
  <fix>3d</fix>
</trkpt>
<trkpt lat="40.0713749" lon="-105.229789">
  <ele>1583.0</ele>
  <time>2026-08-28T17:56:08Z</time>
  <course>244.97</course>
  <speed>0.0</speed>
  <fix>3d</fix>
</trkpt>
<trkpt lat="40.0713749" lon="-105.229789">
  <ele>1583.0</ele>
  <time>2026-08-28T17:56:08Z</time>
  <course>0.0</course>
  <speed>0.0</speed>
  <fix>3d</fix>
</trkpt>
<trkpt lat="40.0713749" lon="-105.229789">
  <ele>1583.0</ele>
  <time>2026-08-28T17:56:08Z</time>
  <course>245.13</course>
  <speed>0.0</speed>
  <fix>3d</fix>
</trkpt>
<trkpt lat="40.0713749" lon="-105.229789">
  <ele>1583.0</ele>
  <time>2026-08-28T17:56:08Z</time>
  <course>0.0</course>
  <speed>0.0</speed>
  <fix>3d</fix>
</trkpt>
<trkpt lat="40.0713749" lon="-105.229789">
  <ele>1583.0</ele>
  <time>2026-08-28T17:56:08Z</time>
  <course>245.29</course>
  <speed>0.0</speed>
  <fix>3d</fix>
</trkpt>
<trkpt lat="40.0713749" lon="-105.229789">
  <ele>1583.0</ele>
  <time>2026-08-28T17:56:08Z</time>
  <course>0.0</course>
  <speed>0.0</speed>
  <fix>3d</fix>
</trkpt>
<trkpt lat="40.0713749" lon="-105.229789">
  <ele>1583.0</ele>
  <time>2026-08-28T17:56:08Z</time>
  <course>245.43</course>
  <speed>0.0</speed>
  <fix>3d</fix>
</trkpt>
<trkpt lat="40.0713749" lon="-105.229789">
  <ele>1583.0</ele>
  <time>2026-08-28T17:56:08Z</time>
  <course>0.0</course>
  <speed>0.0</speed>
  <fix>3d</fix>
</trkpt>
<trkpt lat="40.0713749" lon="-105.229789">
  <ele>1583.0</ele>
  <time>2026-08-28T17:56:08Z</time>
  <course>245.57</course>
  <speed>0.0</speed>
  <fix>3d</fix>
</trkpt>
<trkpt lat="40.0713749" lon="-105.229789">
  <ele>1583.0</ele>
  <time>2026-08-28T17:56:08Z</time>
  <course>0.0</course>
  <speed>0.0</speed>
  <fix>3d</fix>
</trkpt>
<trkpt lat="40.0713749" lon="-105.229789">
  <ele>1583.0</ele>
  <time>2026-08-28T17:56:08Z</time>
  <course>245.71</course>
  <speed>0.0</speed>
  <fix>3d</fix>
</trkpt>
<trkpt lat="40.0713749" lon="-105.229789">
  <ele>1583.0</ele>
  <time>2026-08-28T17:56:08Z</time>
  <course>0.0</course>
  <speed>0.0</speed>
  <fix>3d</fix>
</trkpt>
<trkpt lat="40.0713749" lon="-105.229789">
  <ele>1583.0</ele>
  <time>2026-08-28T17:56:08Z</time>
  <course>245.84</course>
  <speed>0.0</speed>
  <fix>3d</fix>
</trkpt>
<trkpt lat="40.0713749" lon="-105.229789">
  <ele>1583.0</ele>
  <time>2026-08-28T17:56:08Z</time>
  <course>0.0</course>
  <speed>0.0</speed>
  <fix>3d</fix>
</trkpt>
<trkpt lat="40.0713749" lon="-105.229789">
  <ele>1583.0</ele>
  <time>2026-08-28T17:56:08Z</time>
  <course>245.96</course>
  <speed>0.0</speed>
  <fix>3d</fix>
</trkpt>
<trkpt lat="40.0713749" lon="-105.229789">
  <ele>1583.0</ele>
  <time>2026-08-28T17:56:08Z</time>
  <course>0.0</course>
  <speed>0.0</speed>
  <fix>3d</fix>
</trkpt>
<trkpt lat="40.0713749" lon="-105.229789">
  <ele>1583.0</ele>
  <time>2026-08-28T17:56:08Z</time>
  <course>246.08</course>
  <speed>0.0</speed>
  <fix>3d</fix>
</trkpt>
<trkpt lat="40.0713749" lon="-105.229789">
  <ele>1583.0</ele>
  <time>2026-08-28T17:56:08Z</time>
  <course>0.0</course>
  <speed>0.0</speed>
  <fix>3d</fix>
</trkpt>
<trkpt lat="40.0713749" lon="-105.229789">
  <ele>1583.0</ele>
  <time>2026-08-28T17:56:08Z</time>
  <course>246.19</course>
  <speed>0.0</speed>
  <fix>3d</fix>
</trkpt>
<trkpt lat="40.0713749" lon="-105.229789">
  <ele>1583.0</ele>
  <time>2026-08-28T17:56:08Z</time>
  <course>0.0</course>
  <speed>0.0</speed>
  <fix>3d</fix>
</trkpt>
<trkpt lat="40.0713749" lon="-105.229789">
  <ele>1583.0</ele>
  <time>2026-08-28T17:56:08Z</time>
  <course>246.3</course>
  <speed>0.0</speed>
  <fix>3d</fix>
</trkpt>
<trkpt lat="40.0713749" lon="-105.229789">
  <ele>1583.0</ele>
  <time>2026-08-28T17:56:08Z</time>
  <course>0.0</course>
  <speed>0.0</speed>
  <fix>3d</fix>
</trkpt>
<trkpt lat="40.0713749" lon="-105.229789">
  <ele>1583.0</ele>
  <time>2026-08-28T17:56:08Z</time>
  <course>246.41</course>
  <speed>0.0</speed>
  <fix>3d</fix>
</trkpt>
<trkpt lat="40.0713749" lon="-105.229789">
  <ele>1583.0</ele>
  <time>2026-08-28T17:56:08Z</time>
  <course>0.0</course>
  <speed>0.0</speed>
  <fix>3d</fix>
</trkpt>
<trkpt lat="40.0713749" lon="-105.229789">
  <ele>1583.0</ele>
  <time>2026-08-28T17:56:08Z</time>
  <course>246.51</course>
  <speed>0.0</speed>
  <fix>3d</fix>
</trkpt>
<trkpt lat="40.0713749" lon="-105.229789">
  <ele>1583.0</ele>
  <time>2026-08-28T17:56:08Z</time>
  <course>0.0</course>
  <speed>0.0</speed>
  <fix>3d</fix>
</trkpt>
<trkpt lat="40.0713749" lon="-105.229789">
  <ele>1583.0</ele>
  <time>2026-08-28T17:56:08Z</time>
  <course>246.6</course>
  <speed>0.0</speed>
  <fix>3d</fix>
</trkpt>
<trkpt lat="40.0713749" lon="-105.229789">
  <ele>1583.0</ele>
  <time>2026-08-28T17:56:08Z</time>
  <course>0.0</course>
  <speed>0.0</speed>
  <fix>3d</fix>
</trkpt>
<trkpt lat="40.0713749" lon="-105.229789">
  <ele>1583.0</ele>
  <time>2026-08-28T17:56:08Z</time>
  <course>246.7</course>
  <speed>0.0</speed>
  <fix>3d</fix>
</trkpt>
<trkpt lat="40.0713749" lon="-105.229789">
  <ele>1583.0</ele>
  <time>2026-08-28T17:56:08Z</time>
  <course>0.0</course>
  <speed>0.0</speed>
  <fix>3d</fix>
</trkpt>
<trkpt lat="40.0713749" lon="-105.229789">
  <ele>1583.0</ele>
  <time>2026-08-28T17:56:08Z</time>
  <course>246.78</course>
  <speed>0.0</speed>
  <fix>3d</fix>
</trkpt>
<trkpt lat="40.0713749" lon="-105.229789">
  <ele>1583.0</ele>
  <time>2026-08-28T17:56:08Z</time>
  <course>0.0</course>
  <speed>0.0</speed>
  <fix>3d</fix>
</trkpt>
<trkpt lat="40.0713749" lon="-105.229789">
  <ele>1583.0</ele>
  <time>2026-08-28T17:56:08Z</time>
  <course>246.87</course>
  <speed>0.0</speed>
  <fix>3d</fix>
</trkpt>
<trkpt lat="40.0713749" lon="-105.229789">
  <ele>1583.0</ele>
  <time>2026-08-28T17:56:08Z</time>
  <course>0.0</course>
  <speed>0.0</speed>
  <fix>3d</fix>
</trkpt>
<trkpt lat="40.0713749" lon="-105.229789">
  <ele>1583.0</ele>
  <time>2026-08-28T17:56:08Z</time>
  <course>246.95</course>
  <speed>0.0</speed>
  <fix>3d</fix>
</trkpt>
<trkpt lat="40.0713749" lon="-105.229789">
  <ele>1583.0</ele>
  <time>2026-08-28T17:56:08Z</time>
  <course>0.0</course>
  <speed>0.0</speed>
  <fix>3d</fix>
</trkpt>
<trkpt lat="40.0713749" lon="-105.229789">
  <ele>1583.0</ele>
  <time>2026-08-28T17:56:08Z</time>
  <course>247.02</course>
  <speed>0.0</speed>
  <fix>3d</fix>
</trkpt>
<trkpt lat="40.0713749" lon="-105.229789">
  <ele>1583.0</ele>
  <time>2026-08-28T17:56:08Z</time>
  <course>0.0</course>
  <speed>0.0</speed>
  <fix>3d</fix>
</trkpt>
<trkpt lat="40.0713749" lon="-105.229789">
  <ele>1583.0</ele>
  <time>2026-08-28T17:56:08Z</time>
  <course>247.1</course>
  <speed>0.0</speed>
  <fix>3d</fix>
</trkpt>
<trkpt lat="40.0713749" lon="-105.229789">
  <ele>1583.0</ele>
  <time>2026-08-28T17:56:08Z</time>
  <course>0.0</course>
  <speed>0.0</speed>
  <fix>3d</fix>
</trkpt>
<trkpt lat="40.0713749" lon="-105.229789">
  <ele>1583.0</ele>
  <time>2026-08-28T17:56:08Z</time>
  <course>247.17</course>
  <speed>0.0</speed>
  <fix>3d</fix>
</trkpt>
<trkpt lat="40.0713749" lon="-105.229789">
  <ele>1583.0</ele>
  <time>2026-08-28T17:56:08Z</time>
  <course>0.0</course>
  <speed>0.0</speed>
  <fix>3d</fix>
</trkpt>
<trkpt lat="40.0713749" lon="-105.229789">
  <ele>1583.0</ele>
  <time>2026-08-28T17:56:08Z</time>
  <course>247.24</course>
  <speed>0.0</speed>
  <fix>3d</fix>
</trkpt>
<trkpt lat="40.0713749" lon="-105.229789">
  <ele>1583.0</ele>
  <time>2026-08-28T17:56:08Z</time>
  <course>0.0</course>
  <speed>0.0</speed>
  <fix>3d</fix>
</trkpt>
<trkpt lat="40.0713749" lon="-105.229789">
  <ele>1583.0</ele>
  <time>2026-08-28T17:56:08Z</time>
  <course>247.3</course>
  <speed>0.0</speed>
  <fix>3d</fix>
</trkpt>
<trkpt lat="40.0713749" lon="-105.229789">
  <ele>1583.0</ele>
  <time>2026-08-28T17:56:08Z</time>
  <course>0.0</course>
  <speed>0.0</speed>
  <fix>3d</fix>
</trkpt>
<trkpt lat="40.0713749" lon="-105.229789">
  <ele>1583.0</ele>
  <time>2026-08-28T17:56:08Z</time>
  <course>247.36</course>
  <speed>0.0</speed>
  <fix>3d</fix>
</trkpt>
<trkpt lat="40.0713749" lon="-105.229789">
  <ele>1583.0</ele>
  <time>2026-08-28T17:56:08Z</time>
  <course>0.0</course>
  <speed>0.0</speed>
  <fix>3d</fix>
</trkpt>
<trkpt lat="40.0713749" lon="-105.229789">
  <ele>1583.0</ele>
  <time>2026-08-28T17:56:08Z</time>
  <course>247.42</course>
  <speed>0.0</speed>
  <fix>3d</fix>
</trkpt>
<trkpt lat="40.0713749" lon="-105.229789">
  <ele>1583.0</ele>
  <time>2026-08-28T17:56:08Z</time>
  <course>0.0</course>
  <speed>0.0</speed>
  <fix>3d</fix>
</trkpt>
<trkpt lat="40.0713749" lon="-105.229789">
  <ele>1583.0</ele>
  <time>2026-08-28T17:56:08Z</time>
  <course>247.47</course>
  <speed>0.0</speed>
  <fix>3d</fix>
</trkpt>
<trkpt lat="40.0713749" lon="-105.229789">
  <ele>1583.0</ele>
  <time>2026-08-28T17:56:08Z</time>
  <course>0.0</course>
  <speed>0.0</speed>
  <fix>3d</fix>
</trkpt>
<trkpt lat="40.0713749" lon="-105.229789">
  <ele>1583.0</ele>
  <time>2026-08-28T17:56:08Z</time>
  <course>247.53</course>
  <speed>0.0</speed>
  <fix>3d</fix>
</trkpt>
<trkpt lat="40.0713749" lon="-105.229789">
  <ele>1583.0</ele>
  <time>2026-08-28T17:56:08Z</time>
  <course>0.0</course>
  <speed>0.0</speed>
  <fix>3d</fix>
</trkpt>
<trkpt lat="40.0713749" lon="-105.229789">
  <ele>1583.0</ele>
  <time>2026-08-28T17:56:08Z</time>
  <course>247.58</course>
  <speed>0.0</speed>
  <fix>3d</fix>
</trkpt>
<trkpt lat="40.0713749" lon="-105.229789">
  <ele>1583.0</ele>
  <time>2026-08-28T17:56:08Z</time>
  <course>0.0</course>
  <speed>0.0</speed>
  <fix>3d</fix>
</trkpt>
<trkpt lat="40.0713749" lon="-105.229789">
  <ele>1583.0</ele>
  <time>2026-08-28T17:56:08Z</time>
  <course>247.63</course>
  <speed>0.0</speed>
  <fix>3d</fix>
</trkpt>
<trkpt lat="40.0713749" lon="-105.229789">
  <ele>1583.0</ele>
  <time>2026-08-28T17:56:08Z</time>
  <course>0.0</course>
  <speed>0.0</speed>
  <fix>3d</fix>
</trkpt>
<trkpt lat="40.0713749" lon="-105.229789">
  <ele>1583.0</ele>
  <time>2026-08-28T17:56:08Z</time>
  <course>247.67</course>
  <speed>0.0</speed>
  <fix>3d</fix>
</trkpt>
<trkpt lat="40.0713749" lon="-105.229789">
  <ele>1583.0</ele>
  <time>2026-08-28T17:56:08Z</time>
  <course>0.0</course>
  <speed>0.0</speed>
  <fix>3d</fix>
</trkpt>
<trkpt lat="40.0713749" lon="-105.229789">
  <ele>1583.0</ele>
  <time>2026-08-28T17:56:08Z</time>
  <course>247.72</course>
  <speed>0.0</speed>
  <fix>3d</fix>
</trkpt>
<trkpt lat="40.0713749" lon="-105.229789">
  <ele>1583.0</ele>
  <time>2026-08-28T17:56:08Z</time>
  <course>0.0</course>
  <speed>0.0</speed>
  <fix>3d</fix>
</trkpt>
<trkpt lat="40.0713749" lon="-105.229789">
  <ele>1583.0</ele>
  <time>2026-08-28T17:56:08Z</time>
  <course>247.76</course>
  <speed>0.0</speed>
  <fix>3d</fix>
</trkpt>
<trkpt lat="40.0713749" lon="-105.229789">
  <ele>1583.0</ele>
  <time>2026-08-28T17:56:08Z</time>
  <course>0.0</course>
  <speed>0.0</speed>
  <fix>3d</fix>
</trkpt>
<trkpt lat="40.0713749" lon="-105.229789">
  <ele>1583.0</ele>
  <time>2026-08-28T17:56:08Z</time>
  <course>247.8</course>
  <speed>0.0</speed>
  <fix>3d</fix>
</trkpt>
<trkpt lat="40.0713749" lon="-105.229789">
  <ele>1583.0</ele>
  <time>2026-08-28T17:56:08Z</time>
  <course>0.0</course>
  <speed>0.0</speed>
  <fix>3d</fix>
</trkpt>
<trkpt lat="40.0713749" lon="-105.229789">
  <ele>1583.0</ele>
  <time>2026-08-28T17:56:08Z</time>
  <course>247.83</course>
  <speed>0.0</speed>
  <fix>3d</fix>
</trkpt>
<trkpt lat="40.0713749" lon="-105.229789">
  <ele>1583.0</ele>
  <time>2026-08-28T17:56:08Z</time>
  <course>0.0</course>
  <speed>0.0</speed>
  <fix>3d</fix>
</trkpt>
<trkpt lat="40.0713749" lon="-105.229789">
  <ele>1583.0</ele>
  <time>2026-08-28T17:56:08Z</time>
  <course>247.87</course>
  <speed>0.0</speed>
  <fix>3d</fix>
</trkpt>
<trkpt lat="40.0713749" lon="-105.229789">
  <ele>1583.0</ele>
  <time>2026-08-28T17:56:08Z</time>
  <course>0.0</course>
  <speed>0.0</speed>
  <fix>3d</fix>
</trkpt>
<trkpt lat="40.0713749" lon="-105.229789">
  <ele>1583.0</ele>
  <time>2026-08-28T17:56:08Z</time>
  <course>247.9</course>
  <speed>0.0</speed>
  <fix>3d</fix>
</trkpt>
<trkpt lat="40.0713749" lon="-105.229789">
  <ele>1583.0</ele>
  <time>2026-08-28T17:56:08Z</time>
  <course>0.0</course>
  <speed>0.0</speed>
  <fix>3d</fix>
</trkpt>
<trkpt lat="40.0713749" lon="-105.229789">
  <ele>1583.0</ele>
  <time>2026-08-28T17:56:08Z</time>
  <course>247.94</course>
  <speed>0.0</speed>
  <fix>3d</fix>
</trkpt>
<trkpt lat="40.0713749" lon="-105.229789">
  <ele>1583.0</ele>
  <time>2026-08-28T17:56:08Z</time>
  <course>0.0</course>
  <speed>0.0</speed>
  <fix>3d</fix>
</trkpt>
<trkpt lat="40.0713749" lon="-105.229789">
  <ele>1583.0</ele>
  <time>2026-08-28T17:56:08Z</time>
  <course>247.97</course>
  <speed>0.0</speed>
  <fix>3d</fix>
</trkpt>
<trkpt lat="40.0713749" lon="-105.229789">
  <ele>1583.0</ele>
  <time>2026-08-28T17:56:08Z</time>
  <course>0.0</course>
  <speed>0.0</speed>
  <fix>3d</fix>
</trkpt>
<trkpt lat="40.0713749" lon="-105.229789">
  <ele>1583.0</ele>
  <time>2026-08-28T17:56:08Z</time>
  <course>248.0</course>
  <speed>0.0</speed>
  <fix>3d</fix>
</trkpt>
<trkpt lat="40.0713749" lon="-105.229789">
  <ele>1583.0</ele>
  <time>2026-08-28T17:56:08Z</time>
  <course>0.0</course>
  <speed>0.0</speed>
  <fix>3d</fix>
</trkpt>
<trkpt lat="40.0713749" lon="-105.229789">
  <ele>1583.0</ele>
  <time>2026-08-28T17:56:08Z</time>
  <course>248.02</course>
  <speed>0.0</speed>
  <fix>3d</fix>
</trkpt>
<trkpt lat="40.0713749" lon="-105.229789">
  <ele>1583.0</ele>
  <time>2026-08-28T17:56:08Z</time>
  <course>0.0</course>
  <speed>0.0</speed>
  <fix>3d</fix>
</trkpt>
<trkpt lat="40.0713749" lon="-105.229789">
  <ele>1583.0</ele>
  <time>2026-08-28T17:56:08Z</time>
  <course>248.05</course>
  <speed>0.0</speed>
  <fix>3d</fix>
</trkpt>
<trkpt lat="40.0713749" lon="-105.229789">
  <ele>1583.0</ele>
  <time>2026-08-28T17:56:08Z</time>
  <course>0.0</course>
  <speed>0.0</speed>
  <fix>3d</fix>
</trkpt>
<trkpt lat="40.0713749" lon="-105.229789">
  <ele>1583.0</ele>
  <time>2026-08-28T17:56:08Z</time>
  <course>248.08</course>
  <speed>0.0</speed>
  <fix>3d</fix>
</trkpt>
<trkpt lat="40.0713749" lon="-105.229789">
  <ele>1583.0</ele>
  <time>2026-08-28T17:56:08Z</time>
  <course>0.0</course>
  <speed>0.0</speed>
  <fix>3d</fix>
</trkpt>
<trkpt lat="40.0713749" lon="-105.229789">
  <ele>1583.0</ele>
  <time>2026-08-28T17:56:08Z</time>
  <course>248.1</course>
  <speed>0.0</speed>
  <fix>3d</fix>
</trkpt>
<trkpt lat="40.0713749" lon="-105.229789">
  <ele>1583.0</ele>
  <time>2026-08-28T17:56:08Z</time>
  <course>0.0</course>
  <speed>0.0</speed>
  <fix>3d</fix>
</trkpt>
<trkpt lat="40.0713749" lon="-105.229789">
  <ele>1583.0</ele>
  <time>2026-08-28T17:56:08Z</time>
  <course>248.12</course>
  <speed>0.0</speed>
  <fix>3d</fix>
</trkpt>
<trkpt lat="40.0713749" lon="-105.229789">
  <ele>1583.0</ele>
  <time>2026-08-28T17:56:08Z</time>
  <course>0.0</course>
  <speed>0.0</speed>
  <fix>3d</fix>
</trkpt>
<trkpt lat="40.0713749" lon="-105.229789">
  <ele>1583.0</ele>
  <time>2026-08-28T17:56:08Z</time>
  <course>248.14</course>
  <speed>0.0</speed>
  <fix>3d</fix>
</trkpt>
<trkpt lat="40.0713749" lon="-105.229789">
  <ele>1583.0</ele>
  <time>2026-08-28T17:56:08Z</time>
  <course>0.0</course>
  <speed>0.0</speed>
  <fix>3d</fix>
</trkpt>
<trkpt lat="40.0713749" lon="-105.229789">
  <ele>1583.0</ele>
  <time>2026-08-28T17:56:08Z</time>
  <course>248.16</course>
  <speed>0.0</speed>
  <fix>3d</fix>
</trkpt>
<trkpt lat="40.0713749" lon="-105.229789">
  <ele>1583.0</ele>
  <time>2026-08-28T17:56:08Z</time>
  <course>0.0</course>
  <speed>0.0</speed>
  <fix>3d</fix>
</trkpt>
<trkpt lat="40.0713749" lon="-105.229789">
  <ele>1583.0</ele>
  <time>2026-08-28T17:56:08Z</time>
  <course>248.18</course>
  <speed>0.0</speed>
  <fix>3d</fix>
</trkpt>
<trkpt lat="40.0713749" lon="-105.229789">
  <ele>1583.0</ele>
  <time>2026-08-28T17:56:08Z</time>
  <course>0.0</course>
  <speed>0.0</speed>
  <fix>3d</fix>
</trkpt>
<trkpt lat="40.0713749" lon="-105.229789">
  <ele>1583.0</ele>
  <time>2026-08-28T17:56:08Z</time>
  <course>248.2</course>
  <speed>0.0</speed>
  <fix>3d</fix>
</trkpt>
<trkpt lat="40.0713749" lon="-105.229789">
  <ele>1583.0</ele>
  <time>2026-08-28T17:56:08Z</time>
  <course>0.0</course>
  <speed>0.0</speed>
  <fix>3d</fix>
</trkpt>
<trkpt lat="40.0713749" lon="-105.229789">
  <ele>1583.0</ele>
  <time>2026-08-28T17:56:08Z</time>
  <course>248.22</course>
  <speed>0.0</speed>
  <fix>3d</fix>
</trkpt>
<trkpt lat="40.0713749" lon="-105.229789">
  <ele>1583.0</ele>
  <time>2026-08-28T17:56:08Z</time>
  <course>0.0</course>
  <speed>0.0</speed>
  <fix>3d</fix>
</trkpt>
<trkpt lat="40.0713749" lon="-105.229789">
  <ele>1583.0</ele>
  <time>2026-08-28T17:56:08Z</time>
  <course>248.23</course>
  <speed>0.0</speed>
  <fix>3d</fix>
</trkpt>
<trkpt lat="40.0713749" lon="-105.229789">
  <ele>1583.0</ele>
  <time>2026-08-28T17:56:08Z</time>
  <course>0.0</course>
  <speed>0.0</speed>
  <fix>3d</fix>
</trkpt>
<trkpt lat="40.0713749" lon="-105.229789">
  <ele>1583.0</ele>
  <time>2026-08-28T17:56:08Z</time>
  <course>248.25</course>
  <speed>0.0</speed>
  <fix>3d</fix>
</trkpt>
<trkpt lat="40.0713749" lon="-105.229789">
  <ele>1583.0</ele>
  <time>2026-08-28T17:56:08Z</time>
  <course>0.0</course>
  <speed>0.0</speed>
  <fix>3d</fix>
</trkpt>
<trkpt lat="40.0713749" lon="-105.229789">
  <ele>1583.0</ele>
  <time>2026-08-28T17:56:08Z</time>
  <course>248.26</course>
  <speed>0.0</speed>
  <fix>3d</fix>
</trkpt>
<trkpt lat="40.0713749" lon="-105.229789">
  <ele>1583.0</ele>
  <time>2026-08-28T17:56:08Z</time>
  <course>0.0</course>
  <speed>0.0</speed>
  <fix>3d</fix>
</trkpt>
<trkpt lat="40.0713749" lon="-105.229789">
  <ele>1583.0</ele>
  <time>2026-08-28T17:56:08Z</time>
  <course>248.28</course>
  <speed>0.0</speed>
  <fix>3d</fix>
</trkpt>
<trkpt lat="40.0713749" lon="-105.229789">
  <ele>1583.0</ele>
  <time>2026-08-28T17:56:08Z</time>
  <course>0.0</course>
  <speed>0.0</speed>
  <fix>3d</fix>
</trkpt>
<trkpt lat="40.0713749" lon="-105.229789">
  <ele>1583.0</ele>
  <time>2026-08-28T17:56:08Z</time>
  <course>248.29</course>
  <speed>0.0</speed>
  <fix>3d</fix>
</trkpt>
<trkpt lat="40.0713749" lon="-105.229789">
  <ele>1583.0</ele>
  <time>2026-08-28T17:56:08Z</time>
  <course>0.0</course>
  <speed>0.0</speed>
  <fix>3d</fix>
</trkpt>
<trkpt lat="40.0713749" lon="-105.229789">
  <ele>1583.0</ele>
  <time>2026-08-28T17:56:08Z</time>
  <course>248.3</course>
  <speed>0.0</speed>
  <fix>3d</fix>
</trkpt>
<trkpt lat="40.0713749" lon="-105.229789">
  <ele>1583.0</ele>
  <time>2026-08-28T17:56:08Z</time>
  <course>0.0</course>
  <speed>0.0</speed>
  <fix>3d</fix>
</trkpt>
<trkpt lat="40.0713749" lon="-105.229789">
  <ele>1583.0</ele>
  <time>2026-08-28T17:56:08Z</time>
  <course>248.31</course>
  <speed>0.0</speed>
  <fix>3d</fix>
</trkpt>
<trkpt lat="40.0713749" lon="-105.229789">
  <ele>1583.0</ele>
  <time>2026-08-28T17:56:08Z</time>
  <course>0.0</course>
  <speed>0.0</speed>
  <fix>3d</fix>
</trkpt>
<trkpt lat="40.0713749" lon="-105.229789">
  <ele>1583.0</ele>
  <time>2026-08-28T17:56:08Z</time>
  <course>248.32</course>
  <speed>0.0</speed>
  <fix>3d</fix>
</trkpt>
<trkpt lat="40.0713749" lon="-105.229789">
  <ele>1583.0</ele>
  <time>2026-08-28T17:56:08Z</time>
  <course>0.0</course>
  <speed>0.0</speed>
  <fix>3d</fix>
</trkpt>
<trkpt lat="40.0713749" lon="-105.229789">
  <ele>1583.0</ele>
  <time>2026-08-28T17:56:08Z</time>
  <course>248.33</course>
  <speed>0.0</speed>
  <fix>3d</fix>
</trkpt>
<trkpt lat="40.0713749" lon="-105.229789">
  <ele>1583.0</ele>
  <time>2026-08-28T17:56:08Z</time>
  <course>0.0</course>
  <speed>0.0</speed>
  <fix>3d</fix>
</trkpt>
<trkpt lat="40.0713749" lon="-105.229789">
  <ele>1583.0</ele>
  <time>2026-08-28T17:56:08Z</time>
  <course>248.34</course>
  <speed>0.0</speed>
  <fix>3d</fix>
</trkpt>
<trkpt lat="40.0713749" lon="-105.229789">
  <ele>1583.0</ele>
  <time>2026-08-28T17:56:08Z</time>
  <course>0.0</course>
  <speed>0.0</speed>
  <fix>3d</fix>
</trkpt>
<trkpt lat="40.0713749" lon="-105.229789">
  <ele>1583.0</ele>
  <time>2026-08-28T17:56:08Z</time>
  <course>248.35</course>
  <speed>0.0</speed>
  <fix>3d</fix>
</trkpt>
<trkpt lat="40.0713749" lon="-105.229789">
  <ele>1583.0</ele>
  <time>2026-08-28T17:56:08Z</time>
  <course>0.0</course>
  <speed>0.0</speed>
  <fix>3d</fix>
</trkpt>
<trkpt lat="40.0713749" lon="-105.229789">
  <ele>1583.0</ele>
  <time>2026-08-28T17:56:08Z</time>
  <course>248.35</course>
  <speed>0.0</speed>
  <fix>3d</fix>
</trkpt>
<trkpt lat="40.0713749" lon="-105.229789">
  <ele>1583.0</ele>
  <time>2026-08-28T17:56:08Z</time>
  <course>0.0</course>
  <speed>0.0</speed>
  <fix>3d</fix>
</trkpt>
<trkpt lat="40.0713749" lon="-105.229789">
  <ele>1583.0</ele>
  <time>2026-08-28T17:56:08Z</time>
  <course>248.36</course>
  <speed>0.0</speed>
  <fix>3d</fix>
</trkpt>
<trkpt lat="40.0713749" lon="-105.229789">
  <ele>1583.0</ele>
  <time>2026-08-28T17:56:08Z</time>
  <course>0.0</course>
  <speed>0.0</speed>
  <fix>3d</fix>
</trkpt>
<trkpt lat="40.0713749" lon="-105.229789">
  <ele>1583.0</ele>
  <time>2026-08-28T17:56:08Z</time>
  <course>248.37</course>
  <speed>0.0</speed>
  <fix>3d</fix>
</trkpt>
<trkpt lat="40.0713749" lon="-105.229789">
  <ele>1583.0</ele>
  <time>2026-08-28T17:56:08Z</time>
  <course>0.0</course>
  <speed>0.0</speed>
  <fix>3d</fix>
</trkpt>
<trkpt lat="40.0713749" lon="-105.229789">
  <ele>1583.0</ele>
  <time>2026-08-28T17:56:08Z</time>
  <course>248.37</course>
  <speed>0.0</speed>
  <fix>3d</fix>
</trkpt>
<trkpt lat="40.0713749" lon="-105.229789">
  <ele>1583.0</ele>
  <time>2026-08-28T17:56:08Z</time>
  <course>0.0</course>
  <speed>0.0</speed>
  <fix>3d</fix>
</trkpt>
<trkpt lat="40.0713749" lon="-105.229789">
  <ele>1583.0</ele>
  <time>2026-08-28T17:56:08Z</time>
  <course>248.38</course>
  <speed>0.0</speed>
  <fix>3d</fix>
</trkpt>
<trkpt lat="40.0713749" lon="-105.229789">
  <ele>1583.0</ele>
  <time>2026-08-28T17:56:08Z</time>
  <course>0.0</course>
  <speed>0.0</speed>
  <fix>3d</fix>
</trkpt>
<trkpt lat="40.0713749" lon="-105.229789">
  <ele>1583.0</ele>
  <time>2026-08-28T17:56:08Z</time>
  <course>248.38</course>
  <speed>0.0</speed>
  <fix>3d</fix>
</trkpt>
<trkpt lat="40.0713749" lon="-105.229789">
  <ele>1583.0</ele>
  <time>2026-08-28T17:56:08Z</time>
  <course>0.0</course>
  <speed>0.0</speed>
  <fix>3d</fix>
</trkpt>
<trkpt lat="40.0713749" lon="-105.229789">
  <ele>1583.0</ele>
  <time>2026-08-28T17:56:08Z</time>
  <course>248.39</course>
  <speed>0.0</speed>
  <fix>3d</fix>
</trkpt>
<trkpt lat="40.0713749" lon="-105.229789">
  <ele>1583.0</ele>
  <time>2026-08-28T17:56:08Z</time>
  <course>0.0</course>
  <speed>0.0</speed>
  <fix>3d</fix>
</trkpt>
<trkpt lat="40.0713749" lon="-105.229789">
  <ele>1583.0</ele>
  <time>2026-08-28T17:56:08Z</time>
  <course>248.39</course>
  <speed>0.0</speed>
  <fix>3d</fix>
</trkpt>
<trkpt lat="40.0713749" lon="-105.229789">
  <ele>1583.0</ele>
  <time>2026-08-28T17:56:08Z</time>
  <course>0.0</course>
  <speed>0.0</speed>
  <fix>3d</fix>
</trkpt>
<trkpt lat="40.0713749" lon="-105.229789">
  <ele>1583.0</ele>
  <time>2026-08-28T17:56:08Z</time>
  <course>248.4</course>
  <speed>0.0</speed>
  <fix>3d</fix>
</trkpt>
<trkpt lat="40.0713749" lon="-105.229789">
  <ele>1583.0</ele>
  <time>2026-08-28T17:56:08Z</time>
  <course>0.0</course>
  <speed>0.0</speed>
  <fix>3d</fix>
</trkpt>
<trkpt lat="40.0713749" lon="-105.229789">
  <ele>1583.0</ele>
  <time>2026-08-28T17:56:08Z</time>
  <course>248.4</course>
  <speed>0.0</speed>
  <fix>3d</fix>
</trkpt>
<trkpt lat="40.0713749" lon="-105.229789">
  <ele>1583.0</ele>
  <time>2026-08-28T17:56:08Z</time>
  <course>0.0</course>
  <speed>0.0</speed>
  <fix>3d</fix>
</trkpt>
<trkpt lat="40.0713749" lon="-105.229789">
  <ele>1583.0</ele>
  <time>2026-08-28T17:56:08Z</time>
  <course>248.4</course>
  <speed>0.0</speed>
  <fix>3d</fix>
</trkpt>
<trkpt lat="40.0713749" lon="-105.229789">
  <ele>1583.0</ele>
  <time>2026-08-28T17:56:08Z</time>
  <course>0.0</course>
  <speed>0.0</speed>
  <fix>3d</fix>
</trkpt>
<trkpt lat="40.0713749" lon="-105.229789">
  <ele>1583.0</ele>
  <time>2026-08-28T17:56:08Z</time>
  <course>248.4</course>
  <speed>0.0</speed>
  <fix>3d</fix>
</trkpt>
<trkpt lat="40.0713749" lon="-105.229789">
  <ele>1583.0</ele>
  <time>2026-08-28T17:56:08Z</time>
  <course>0.0</course>
  <speed>0.0</speed>
  <fix>3d</fix>
</trkpt>
<trkpt lat="40.0713749" lon="-105.229789">
  <ele>1583.0</ele>
  <time>2026-08-28T17:56:08Z</time>
  <course>248.41</course>
  <speed>0.0</speed>
  <fix>3d</fix>
</trkpt>
<trkpt lat="40.0713749" lon="-105.229789">
  <ele>1583.0</ele>
  <time>2026-08-28T17:56:08Z</time>
  <course>0.0</course>
  <speed>0.0</speed>
  <fix>3d</fix>
</trkpt>
<trkpt lat="40.0713749" lon="-105.229789">
  <ele>1583.0</ele>
  <time>2026-08-28T17:56:08Z</time>
  <course>248.41</course>
  <speed>0.0</speed>
  <fix>3d</fix>
</trkpt>
<trkpt lat="40.0713749" lon="-105.229789">
  <ele>1583.0</ele>
  <time>2026-08-28T17:56:08Z</time>
  <course>0.0</course>
  <speed>0.0</speed>
  <fix>3d</fix>
</trkpt>
<trkpt lat="40.0713749" lon="-105.229789">
  <ele>1583.0</ele>
  <time>2026-08-28T17:56:08Z</time>
  <course>248.41</course>
  <speed>0.0</speed>
  <fix>3d</fix>
</trkpt>
<trkpt lat="40.0713749" lon="-105.229789">
  <ele>1583.0</ele>
  <time>2026-08-28T17:56:08Z</time>
  <course>0.0</course>
  <speed>0.0</speed>
  <fix>3d</fix>
</trkpt>
<trkpt lat="40.0713749" lon="-105.229789">
  <ele>1583.0</ele>
  <time>2026-08-28T17:56:08Z</time>
  <course>248.41</course>
  <speed>0.0</speed>
  <fix>3d</fix>
</trkpt>
<trkpt lat="40.0713749" lon="-105.229789">
  <ele>1583.0</ele>
  <time>2026-08-28T17:56:08Z</time>
  <course>0.0</course>
  <speed>0.0</speed>
  <fix>3d</fix>
</trkpt>
<trkpt lat="40.0713749" lon="-105.229789">
  <ele>1583.0</ele>
  <time>2026-08-28T17:56:08Z</time>
  <course>248.41</course>
  <speed>0.0</speed>
  <fix>3d</fix>
</trkpt>
<trkpt lat="40.0713749" lon="-105.229789">
  <ele>1583.0</ele>
  <time>2026-08-28T17:56:08Z</time>
  <course>0.0</course>
  <speed>0.0</speed>
  <fix>3d</fix>
</trkpt>
<trkpt lat="40.0713749" lon="-105.229789">
  <ele>1583.0</ele>
  <time>2026-08-28T17:56:08Z</time>
  <course>248.41</course>
  <speed>0.0</speed>
  <fix>3d</fix>
</trkpt>
<trkpt lat="40.0713749" lon="-105.229789">
  <ele>1583.0</ele>
  <time>2026-08-28T17:56:08Z</time>
  <course>0.0</course>
  <speed>0.0</speed>
  <fix>3d</fix>
</trkpt>
<trkpt lat="40.0713749" lon="-105.229789">
  <ele>1583.0</ele>
  <time>2026-08-28T17:56:08Z</time>
  <course>248.41</course>
  <speed>0.0</speed>
  <fix>3d</fix>
</trkpt>
<trkpt lat="40.0713749" lon="-105.229789">
  <ele>1583.0</ele>
  <time>2026-08-28T17:56:08Z</time>
  <course>0.0</course>
  <speed>0.0</speed>
  <fix>3d</fix>
</trkpt>
<trkpt lat="40.0713749" lon="-105.229789">
  <ele>1583.0</ele>
  <time>2026-08-28T17:56:08Z</time>
  <course>248.41</course>
  <speed>0.0</speed>
  <fix>3d</fix>
</trkpt>
<trkpt lat="40.0713749" lon="-105.229789">
  <ele>1583.0</ele>
  <time>2026-08-28T17:56:08Z</time>
  <course>0.0</course>
  <speed>0.0</speed>
  <fix>3d</fix>
</trkpt>
<trkpt lat="40.0713749" lon="-105.229789">
  <ele>1583.0</ele>
  <time>2026-08-28T17:56:08Z</time>
  <course>248.41</course>
  <speed>0.0</speed>
  <fix>3d</fix>
</trkpt>
<trkpt lat="40.0713749" lon="-105.229789">
  <ele>1583.0</ele>
  <time>2026-08-28T17:56:08Z</time>
  <course>0.0</course>
  <speed>0.0</speed>
  <fix>3d</fix>
</trkpt>
<trkpt lat="40.0713749" lon="-105.229789">
  <ele>1583.0</ele>
  <time>2026-08-28T17:56:08Z</time>
  <course>248.41</course>
  <speed>0.0</speed>
  <fix>3d</fix>
</trkpt>
<trkpt lat="40.0713749" lon="-105.229789">
  <ele>1583.0</ele>
  <time>2026-08-28T17:56:08Z</time>
  <course>0.0</course>
  <speed>0.0</speed>
  <fix>3d</fix>
</trkpt>
<trkpt lat="40.0713749" lon="-105.229789">
  <ele>1583.0</ele>
  <time>2026-08-28T17:56:08Z</time>
  <course>248.41</course>
  <speed>0.0</speed>
  <fix>3d</fix>
</trkpt>
<trkpt lat="40.0713749" lon="-105.229789">
  <ele>1583.0</ele>
  <time>2026-08-28T17:56:08Z</time>
  <course>0.0</course>
  <speed>0.0</speed>
  <fix>3d</fix>
</trkpt>
<trkpt lat="40.0713749" lon="-105.229789">
  <ele>1583.0</ele>
  <time>2026-08-28T17:56:08Z</time>
  <course>248.41</course>
  <speed>0.0</speed>
  <fix>3d</fix>
</trkpt>
<trkpt lat="40.0713749" lon="-105.229789">
  <ele>1583.0</ele>
  <time>2026-08-28T17:56:08Z</time>
  <course>0.0</course>
  <speed>0.0</speed>
  <fix>3d</fix>
</trkpt>
<trkpt lat="40.0713749" lon="-105.229789">
  <ele>1583.0</ele>
  <time>2026-08-28T17:56:08Z</time>
  <course>248.41</course>
  <speed>0.0</speed>
  <fix>3d</fix>
</trkpt>
<trkpt lat="40.0713749" lon="-105.229789">
  <ele>1583.0</ele>
  <time>2026-08-28T17:56:08Z</time>
  <course>0.0</course>
  <speed>0.0</speed>
  <fix>3d</fix>
</trkpt>
<trkpt lat="40.0713749" lon="-105.229789">
  <ele>1583.0</ele>
  <time>2026-08-28T17:56:08Z</time>
  <course>248.41</course>
  <speed>0.0</speed>
  <fix>3d</fix>
</trkpt>
<trkpt lat="40.0713749" lon="-105.229789">
  <ele>1583.0</ele>
  <time>2026-08-28T17:56:08Z</time>
  <course>0.0</course>
  <speed>0.0</speed>
  <fix>3d</fix>
</trkpt>
<trkpt lat="40.0713749" lon="-105.229789">
  <ele>1583.0</ele>
  <time>2026-08-28T17:56:08Z</time>
  <course>248.41</course>
  <speed>0.0</speed>
  <fix>3d</fix>
</trkpt>
<trkpt lat="40.0713749" lon="-105.229789">
  <ele>1583.0</ele>
  <time>2026-08-28T17:56:08Z</time>
  <course>0.0</course>
  <speed>0.0</speed>
  <fix>3d</fix>
</trkpt>
<trkpt lat="40.0713749" lon="-105.229789">
  <ele>1583.0</ele>
  <time>2026-08-28T17:56:08Z</time>
  <course>248.41</course>
  <speed>0.0</speed>
  <fix>3d</fix>
</trkpt>
<trkpt lat="40.0713749" lon="-105.229789">
  <ele>1583.0</ele>
  <time>2026-08-28T17:56:08Z</time>
  <course>0.0</course>
  <speed>0.0</speed>
  <fix>3d</fix>
</trkpt>
<trkpt lat="40.0713749" lon="-105.229789">
  <ele>1583.0</ele>
  <time>2026-08-28T17:56:08Z</time>
  <course>248.4</course>
  <speed>0.0</speed>
  <fix>3d</fix>
</trkpt>
<trkpt lat="40.0713749" lon="-105.229789">
  <ele>1583.0</ele>
  <time>2026-08-28T17:56:08Z</time>
  <course>0.0</course>
  <speed>0.0</speed>
  <fix>3d</fix>
</trkpt>
<trkpt lat="40.0713749" lon="-105.229789">
  <ele>1583.0</ele>
  <time>2026-08-28T17:56:08Z</time>
  <course>248.4</course>
  <speed>0.01</speed>
  <fix>3d</fix>
</trkpt>
<trkpt lat="40.0713749" lon="-105.229789">
  <ele>1583.0</ele>
  <time>2026-08-28T17:56:08Z</time>
  <course>0.0</course>
  <speed>0.0</speed>
  <fix>3d</fix>
</trkpt>
<trkpt lat="40.0713749" lon="-105.229789">
  <ele>1583.0</ele>
  <time>2026-08-28T17:56:08Z</time>
  <course>248.4</course>
  <speed>0.01</speed>
  <fix>3d</fix>
</trkpt>
<trkpt lat="40.0713749" lon="-105.229789">
  <ele>1583.0</ele>
  <time>2026-08-28T17:56:08Z</time>
  <course>0.0</course>
  <speed>0.0</speed>
  <fix>3d</fix>
</trkpt>
<trkpt lat="40.0713749" lon="-105.229789">
  <ele>1583.0</ele>
  <time>2026-08-28T17:56:08Z</time>
  <course>248.4</course>
  <speed>0.01</speed>
  <fix>3d</fix>
</trkpt>
<trkpt lat="40.0713749" lon="-105.229789">
  <ele>1583.0</ele>
  <time>2026-08-28T17:56:08Z</time>
  <course>0.0</course>
  <speed>0.0</speed>
  <fix>3d</fix>
</trkpt>
<trkpt lat="40.0713749" lon="-105.229789">
  <ele>1583.0</ele>
  <time>2026-08-28T17:56:08Z</time>
  <course>248.4</course>
  <speed>0.01</speed>
  <fix>3d</fix>
</trkpt>
<trkpt lat="40.0713749" lon="-105.229789">
  <ele>1583.0</ele>
  <time>2026-08-28T17:56:08Z</time>
  <course>0.0</course>
  <speed>0.0</speed>
  <fix>3d</fix>
</trkpt>
<trkpt lat="40.0713749" lon="-105.229789">
  <ele>1583.0</ele>
  <time>2026-08-28T17:56:08Z</time>
  <course>248.39</course>
  <speed>0.01</speed>
  <fix>3d</fix>
</trkpt>
<trkpt lat="40.0713749" lon="-105.229789">
  <ele>1583.0</ele>
  <time>2026-08-28T17:56:08Z</time>
  <course>0.0</course>
  <speed>0.0</speed>
  <fix>3d</fix>
</trkpt>
<trkpt lat="40.0713749" lon="-105.229789">
  <ele>1583.0</ele>
  <time>2026-08-28T17:56:08Z</time>
  <course>248.39</course>
  <speed>0.01</speed>
  <fix>3d</fix>
</trkpt>
<trkpt lat="40.0713749" lon="-105.229789">
  <ele>1583.0</ele>
  <time>2026-08-28T17:56:08Z</time>
  <course>0.0</course>
  <speed>0.0</speed>
  <fix>3d</fix>
</trkpt>
<trkpt lat="40.0713749" lon="-105.229789">
  <ele>1583.0</ele>
  <time>2026-08-28T17:56:08Z</time>
  <course>248.39</course>
  <speed>0.01</speed>
  <fix>3d</fix>
</trkpt>
<trkpt lat="40.0713749" lon="-105.229789">
  <ele>1583.0</ele>
  <time>2026-08-28T17:56:08Z</time>
  <course>0.0</course>
  <speed>0.0</speed>
  <fix>3d</fix>
</trkpt>
<trkpt lat="40.0713749" lon="-105.229789">
  <ele>1583.0</ele>
  <time>2026-08-28T17:56:08Z</time>
  <course>248.38</course>
  <speed>0.01</speed>
  <fix>3d</fix>
</trkpt>
<trkpt lat="40.0713749" lon="-105.229789">
  <ele>1583.0</ele>
  <time>2026-08-28T17:56:08Z</time>
  <course>0.0</course>
  <speed>0.0</speed>
  <fix>3d</fix>
</trkpt>
<trkpt lat="40.0713749" lon="-105.229789">
  <ele>1583.0</ele>
  <time>2026-08-28T17:56:08Z</time>
  <course>248.38</course>
  <speed>0.01</speed>
  <fix>3d</fix>
</trkpt>
<trkpt lat="40.0713749" lon="-105.229789">
  <ele>1583.0</ele>
  <time>2026-08-28T17:56:08Z</time>
  <course>0.0</course>
  <speed>0.0</speed>
  <fix>3d</fix>
</trkpt>
<trkpt lat="40.0713749" lon="-105.229789">
  <ele>1583.0</ele>
  <time>2026-08-28T17:56:08Z</time>
  <course>248.38</course>
  <speed>0.01</speed>
  <fix>3d</fix>
</trkpt>
<trkpt lat="40.0713749" lon="-105.229789">
  <ele>1583.0</ele>
  <time>2026-08-28T17:56:08Z</time>
  <course>0.0</course>
  <speed>0.0</speed>
  <fix>3d</fix>
</trkpt>
<trkpt lat="40.0713749" lon="-105.229789">
  <ele>1583.0</ele>
  <time>2026-08-28T17:56:08Z</time>
  <course>248.37</course>
  <speed>0.01</speed>
  <fix>3d</fix>
</trkpt>
<trkpt lat="40.0713749" lon="-105.229789">
  <ele>1583.0</ele>
  <time>2026-08-28T17:56:08Z</time>
  <course>0.0</course>
  <speed>0.0</speed>
  <fix>3d</fix>
</trkpt>
<trkpt lat="40.0713749" lon="-105.229789">
  <ele>1583.0</ele>
  <time>2026-08-28T17:56:08Z</time>
  <course>248.37</course>
  <speed>0.01</speed>
  <fix>3d</fix>
</trkpt>
<trkpt lat="40.0713749" lon="-105.229789">
  <ele>1583.0</ele>
  <time>2026-08-28T17:56:08Z</time>
  <course>0.0</course>
  <speed>0.0</speed>
  <fix>3d</fix>
</trkpt>
<trkpt lat="40.0713749" lon="-105.229789">
  <ele>1583.0</ele>
  <time>2026-08-28T17:56:08Z</time>
  <course>248.37</course>
  <speed>0.01</speed>
  <fix>3d</fix>
</trkpt>
<trkpt lat="40.0713749" lon="-105.229789">
  <ele>1583.0</ele>
  <time>2026-08-28T17:56:08Z</time>
  <course>0.0</course>
  <speed>0.0</speed>
  <fix>3d</fix>
</trkpt>
<trkpt lat="40.0713749" lon="-105.229789">
  <ele>1583.0</ele>
  <time>2026-08-28T17:56:08Z</time>
  <course>248.36</course>
  <speed>0.01</speed>
  <fix>3d</fix>
</trkpt>
<trkpt lat="40.0713749" lon="-105.229789">
  <ele>1583.0</ele>
  <time>2026-08-28T17:56:08Z</time>
  <course>0.0</course>
  <speed>0.0</speed>
  <fix>3d</fix>
</trkpt>
<trkpt lat="40.0713749" lon="-105.229789">
  <ele>1583.0</ele>
  <time>2026-08-28T17:56:08Z</time>
  <course>248.36</course>
  <speed>0.01</speed>
  <fix>3d</fix>
</trkpt>
<trkpt lat="40.0713749" lon="-105.229789">
  <ele>1583.0</ele>
  <time>2026-08-28T17:56:08Z</time>
  <course>0.0</course>
  <speed>0.0</speed>
  <fix>3d</fix>
</trkpt>
<trkpt lat="40.0713749" lon="-105.229789">
  <ele>1583.0</ele>
  <time>2026-08-28T17:56:08Z</time>
  <course>248.36</course>
  <speed>0.01</speed>
  <fix>3d</fix>
</trkpt>
<trkpt lat="40.0713749" lon="-105.229789">
  <ele>1583.0</ele>
  <time>2026-08-28T17:56:08Z</time>
  <course>0.0</course>
  <speed>0.0</speed>
  <fix>3d</fix>
</trkpt>
<trkpt lat="40.0713749" lon="-105.229789">
  <ele>1583.0</ele>
  <time>2026-08-28T17:56:08Z</time>
  <course>248.35</course>
  <speed>0.01</speed>
  <fix>3d</fix>
</trkpt>
<trkpt lat="40.0713749" lon="-105.229789">
  <ele>1583.0</ele>
  <time>2026-08-28T17:56:08Z</time>
  <course>0.0</course>
  <speed>0.0</speed>
  <fix>3d</fix>
</trkpt>
<trkpt lat="40.0713749" lon="-105.229789">
  <ele>1583.0</ele>
  <time>2026-08-28T17:56:08Z</time>
  <course>248.35</course>
  <speed>0.01</speed>
  <fix>3d</fix>
</trkpt>
<trkpt lat="40.0713749" lon="-105.229789">
  <ele>1583.0</ele>
  <time>2026-08-28T17:56:08Z</time>
  <course>0.0</course>
  <speed>0.0</speed>
  <fix>3d</fix>
</trkpt>
<trkpt lat="40.0713749" lon="-105.229789">
  <ele>1583.0</ele>
  <time>2026-08-28T17:56:08Z</time>
  <course>248.35</course>
  <speed>0.01</speed>
  <fix>3d</fix>
</trkpt>
<trkpt lat="40.0713749" lon="-105.229789">
  <ele>1583.0</ele>
  <time>2026-08-28T17:56:08Z</time>
  <course>0.0</course>
  <speed>0.0</speed>
  <fix>3d</fix>
</trkpt>
<trkpt lat="40.0713749" lon="-105.229789">
  <ele>1583.0</ele>
  <time>2026-08-28T17:56:08Z</time>
  <course>248.34</course>
  <speed>0.01</speed>
  <fix>3d</fix>
</trkpt>
<trkpt lat="40.0713749" lon="-105.229789">
  <ele>1583.0</ele>
  <time>2026-08-28T17:56:08Z</time>
  <course>0.0</course>
  <speed>0.0</speed>
  <fix>3d</fix>
</trkpt>
<trkpt lat="40.0713749" lon="-105.229789">
  <ele>1583.0</ele>
  <time>2026-08-28T17:56:08Z</time>
  <course>248.34</course>
  <speed>0.01</speed>
  <fix>3d</fix>
</trkpt>
<trkpt lat="40.0713749" lon="-105.229789">
  <ele>1583.0</ele>
  <time>2026-08-28T17:56:08Z</time>
  <course>0.0</course>
  <speed>0.0</speed>
  <fix>3d</fix>
</trkpt>
<trkpt lat="40.0713749" lon="-105.229789">
  <ele>1583.0</ele>
  <time>2026-08-28T17:56:08Z</time>
  <course>248.33</course>
  <speed>0.01</speed>
  <fix>3d</fix>
</trkpt>
<trkpt lat="40.0713749" lon="-105.229789">
  <ele>1583.0</ele>
  <time>2026-08-28T17:56:08Z</time>
  <course>0.0</course>
  <speed>0.0</speed>
  <fix>3d</fix>
</trkpt>
<trkpt lat="40.0713749" lon="-105.229789">
  <ele>1583.0</ele>
  <time>2026-08-28T17:56:08Z</time>
  <course>248.33</course>
  <speed>0.01</speed>
  <fix>3d</fix>
</trkpt>
<trkpt lat="40.0713749" lon="-105.229789">
  <ele>1583.0</ele>
  <time>2026-08-28T17:56:08Z</time>
  <course>0.0</course>
  <speed>0.0</speed>
  <fix>3d</fix>
</trkpt>
<trkpt lat="40.0713749" lon="-105.229789">
  <ele>1583.0</ele>
  <time>2026-08-28T17:56:08Z</time>
  <course>248.32</course>
  <speed>0.01</speed>
  <fix>3d</fix>
</trkpt>
<trkpt lat="40.0713749" lon="-105.229789">
  <ele>1583.0</ele>
  <time>2026-08-28T17:56:08Z</time>
  <course>0.0</course>
  <speed>0.0</speed>
  <fix>3d</fix>
</trkpt>
<trkpt lat="40.0713749" lon="-105.229789">
  <ele>1583.0</ele>
  <time>2026-08-28T17:56:08Z</time>
  <course>248.32</course>
  <speed>0.01</speed>
  <fix>3d</fix>
</trkpt>
<trkpt lat="40.0713749" lon="-105.229789">
  <ele>1583.0</ele>
  <time>2026-08-28T17:56:08Z</time>
  <course>0.0</course>
  <speed>0.0</speed>
  <fix>3d</fix>
</trkpt>
<trkpt lat="40.0713749" lon="-105.229789">
  <ele>1583.0</ele>
  <time>2026-08-28T17:56:08Z</time>
  <course>248.32</course>
  <speed>0.01</speed>
  <fix>3d</fix>
</trkpt>
<trkpt lat="40.0713749" lon="-105.229789">
  <ele>1583.0</ele>
  <time>2026-08-28T17:56:08Z</time>
  <course>0.0</course>
  <speed>0.0</speed>
  <fix>3d</fix>
</trkpt>
<trkpt lat="40.0713749" lon="-105.229789">
  <ele>1583.0</ele>
  <time>2026-08-28T17:56:08Z</time>
  <course>248.31</course>
  <speed>0.01</speed>
  <fix>3d</fix>
</trkpt>
<trkpt lat="40.0713749" lon="-105.229789">
  <ele>1583.0</ele>
  <time>2026-08-28T17:56:08Z</time>
  <course>0.0</course>
  <speed>0.0</speed>
  <fix>3d</fix>
</trkpt>
<trkpt lat="40.0713749" lon="-105.229789">
  <ele>1583.0</ele>
  <time>2026-08-28T17:56:08Z</time>
  <course>248.31</course>
  <speed>0.01</speed>
  <fix>3d</fix>
</trkpt>
<trkpt lat="40.0713749" lon="-105.229789">
  <ele>1583.0</ele>
  <time>2026-08-28T17:56:08Z</time>
  <course>0.0</course>
  <speed>0.0</speed>
  <fix>3d</fix>
</trkpt>
<trkpt lat="40.0713749" lon="-105.229789">
  <ele>1583.0</ele>
  <time>2026-08-28T17:56:08Z</time>
  <course>248.3</course>
  <speed>0.01</speed>
  <fix>3d</fix>
</trkpt>
<trkpt lat="40.0713749" lon="-105.229789">
  <ele>1583.0</ele>
  <time>2026-08-28T17:56:08Z</time>
  <course>0.0</course>
  <speed>0.0</speed>
  <fix>3d</fix>
</trkpt>
<trkpt lat="40.0713749" lon="-105.229789">
  <ele>1583.0</ele>
  <time>2026-08-28T17:56:08Z</time>
  <course>248.3</course>
  <speed>0.01</speed>
  <fix>3d</fix>
</trkpt>
<trkpt lat="40.0713749" lon="-105.229789">
  <ele>1583.0</ele>
  <time>2026-08-28T17:56:08Z</time>
  <course>0.0</course>
  <speed>0.0</speed>
  <fix>3d</fix>
</trkpt>
<trkpt lat="40.0713749" lon="-105.229789">
  <ele>1583.0</ele>
  <time>2026-08-28T17:56:08Z</time>
  <course>248.29</course>
  <speed>0.01</speed>
  <fix>3d</fix>
</trkpt>
<trkpt lat="40.0713749" lon="-105.229789">
  <ele>1583.0</ele>
  <time>2026-08-28T17:56:08Z</time>
  <course>0.0</course>
  <speed>0.0</speed>
  <fix>3d</fix>
</trkpt>
<trkpt lat="40.0713749" lon="-105.229789">
  <ele>1583.0</ele>
  <time>2026-08-28T17:56:08Z</time>
  <course>248.29</course>
  <speed>0.01</speed>
  <fix>3d</fix>
</trkpt>
<trkpt lat="40.0713749" lon="-105.229789">
  <ele>1583.0</ele>
  <time>2026-08-28T17:56:08Z</time>
  <course>0.0</course>
  <speed>0.0</speed>
  <fix>3d</fix>
</trkpt>
<trkpt lat="40.0713749" lon="-105.229789">
  <ele>1583.0</ele>
  <time>2026-08-28T17:56:08Z</time>
  <course>248.28</course>
  <speed>0.01</speed>
  <fix>3d</fix>
</trkpt>
<trkpt lat="40.0713749" lon="-105.229789">
  <ele>1583.0</ele>
  <time>2026-08-28T17:56:08Z</time>
  <course>0.0</course>
  <speed>0.0</speed>
  <fix>3d</fix>
</trkpt>
<trkpt lat="40.0713749" lon="-105.229789">
  <ele>1583.0</ele>
  <time>2026-08-28T17:56:08Z</time>
  <course>248.28</course>
  <speed>0.01</speed>
  <fix>3d</fix>
</trkpt>
<trkpt lat="40.0713749" lon="-105.229789">
  <ele>1583.0</ele>
  <time>2026-08-28T17:56:08Z</time>
  <course>0.0</course>
  <speed>0.0</speed>
  <fix>3d</fix>
</trkpt>
<trkpt lat="40.0713749" lon="-105.229789">
  <ele>1583.0</ele>
  <time>2026-08-28T17:56:08Z</time>
  <course>248.27</course>
  <speed>0.01</speed>
  <fix>3d</fix>
</trkpt>
<trkpt lat="40.0713749" lon="-105.229789">
  <ele>1583.0</ele>
  <time>2026-08-28T17:56:08Z</time>
  <course>0.0</course>
  <speed>0.0</speed>
  <fix>3d</fix>
</trkpt>
<trkpt lat="40.0713749" lon="-105.229789">
  <ele>1583.0</ele>
  <time>2026-08-28T17:56:08Z</time>
  <course>248.27</course>
  <speed>0.01</speed>
  <fix>3d</fix>
</trkpt>
<trkpt lat="40.0713749" lon="-105.229789">
  <ele>1583.0</ele>
  <time>2026-08-28T17:56:08Z</time>
  <course>0.0</course>
  <speed>0.0</speed>
  <fix>3d</fix>
</trkpt>
<trkpt lat="40.0713749" lon="-105.229789">
  <ele>1583.0</ele>
  <time>2026-08-28T17:56:08Z</time>
  <course>248.26</course>
  <speed>0.01</speed>
  <fix>3d</fix>
</trkpt>
<trkpt lat="40.0713749" lon="-105.229789">
  <ele>1583.0</ele>
  <time>2026-08-28T17:56:08Z</time>
  <course>0.0</course>
  <speed>0.0</speed>
  <fix>3d</fix>
</trkpt>
<trkpt lat="40.0713749" lon="-105.229789">
  <ele>1583.0</ele>
  <time>2026-08-28T17:56:08Z</time>
  <course>248.26</course>
  <speed>0.01</speed>
  <fix>3d</fix>
</trkpt>
<trkpt lat="40.0713749" lon="-105.229789">
  <ele>1583.0</ele>
  <time>2026-08-28T17:56:08Z</time>
  <course>0.0</course>
  <speed>0.0</speed>
  <fix>3d</fix>
</trkpt>
<trkpt lat="40.0713749" lon="-105.229789">
  <ele>1583.0</ele>
  <time>2026-08-28T17:56:08Z</time>
  <course>248.26</course>
  <speed>0.01</speed>
  <fix>3d</fix>
</trkpt>
<trkpt lat="40.0713749" lon="-105.229789">
  <ele>1583.0</ele>
  <time>2026-08-28T17:56:08Z</time>
  <course>0.0</course>
  <speed>0.0</speed>
  <fix>3d</fix>
</trkpt>
<trkpt lat="40.0713749" lon="-105.229789">
  <ele>1583.0</ele>
  <time>2026-08-28T17:56:08Z</time>
  <course>248.25</course>
  <speed>0.01</speed>
  <fix>3d</fix>
</trkpt>
<trkpt lat="40.0713749" lon="-105.229789">
  <ele>1583.0</ele>
  <time>2026-08-28T17:56:08Z</time>
  <course>0.0</course>
  <speed>0.0</speed>
  <fix>3d</fix>
</trkpt>
<trkpt lat="40.0713749" lon="-105.229789">
  <ele>1583.0</ele>
  <time>2026-08-28T17:56:08Z</time>
  <course>248.25</course>
  <speed>0.01</speed>
  <fix>3d</fix>
</trkpt>
<trkpt lat="40.0713749" lon="-105.229789">
  <ele>1583.0</ele>
  <time>2026-08-28T17:56:08Z</time>
  <course>0.0</course>
  <speed>0.0</speed>
  <fix>3d</fix>
</trkpt>
<trkpt lat="40.0713749" lon="-105.229789">
  <ele>1583.0</ele>
  <time>2026-08-28T17:56:08Z</time>
  <course>248.24</course>
  <speed>0.01</speed>
  <fix>3d</fix>
</trkpt>
<trkpt lat="40.0713749" lon="-105.229789">
  <ele>1583.0</ele>
  <time>2026-08-28T17:56:08Z</time>
  <course>0.0</course>
  <speed>0.0</speed>
  <fix>3d</fix>
</trkpt>
<trkpt lat="40.0713749" lon="-105.229789">
  <ele>1583.0</ele>
  <time>2026-08-28T17:56:08Z</time>
  <course>248.24</course>
  <speed>0.01</speed>
  <fix>3d</fix>
</trkpt>
<trkpt lat="40.0713749" lon="-105.229789">
  <ele>1583.0</ele>
  <time>2026-08-28T17:56:08Z</time>
  <course>0.0</course>
  <speed>0.0</speed>
  <fix>3d</fix>
</trkpt>
<trkpt lat="40.0713749" lon="-105.229789">
  <ele>1583.0</ele>
  <time>2026-08-28T17:56:08Z</time>
  <course>248.23</course>
  <speed>0.01</speed>
  <fix>3d</fix>
</trkpt>
<trkpt lat="40.0713749" lon="-105.229789">
  <ele>1583.0</ele>
  <time>2026-08-28T17:56:08Z</time>
  <course>0.0</course>
  <speed>0.0</speed>
  <fix>3d</fix>
</trkpt>
<trkpt lat="40.0713749" lon="-105.229789">
  <ele>1583.0</ele>
  <time>2026-08-28T17:56:08Z</time>
  <course>248.23</course>
  <speed>0.01</speed>
  <fix>3d</fix>
</trkpt>
<trkpt lat="40.0713749" lon="-105.229789">
  <ele>1583.0</ele>
  <time>2026-08-28T17:56:08Z</time>
  <course>0.0</course>
  <speed>0.0</speed>
  <fix>3d</fix>
</trkpt>
<trkpt lat="40.0713749" lon="-105.229789">
  <ele>1583.0</ele>
  <time>2026-08-28T17:56:08Z</time>
  <course>248.22</course>
  <speed>0.01</speed>
  <fix>3d</fix>
</trkpt>
<trkpt lat="40.0713749" lon="-105.229789">
  <ele>1583.0</ele>
  <time>2026-08-28T17:56:08Z</time>
  <course>0.0</course>
  <speed>0.0</speed>
  <fix>3d</fix>
</trkpt>
<trkpt lat="40.0713749" lon="-105.229789">
  <ele>1583.0</ele>
  <time>2026-08-28T17:56:08Z</time>
  <course>248.22</course>
  <speed>0.01</speed>
  <fix>3d</fix>
</trkpt>
<trkpt lat="40.0713749" lon="-105.229789">
  <ele>1583.0</ele>
  <time>2026-08-28T17:56:08Z</time>
  <course>0.0</course>
  <speed>0.0</speed>
  <fix>3d</fix>
</trkpt>
<trkpt lat="40.0713749" lon="-105.229789">
  <ele>1583.0</ele>
  <time>2026-08-28T17:56:08Z</time>
  <course>248.21</course>
  <speed>0.01</speed>
  <fix>3d</fix>
</trkpt>
<trkpt lat="40.0713749" lon="-105.229789">
  <ele>1583.0</ele>
  <time>2026-08-28T17:56:08Z</time>
  <course>0.0</course>
  <speed>0.0</speed>
  <fix>3d</fix>
</trkpt>
<trkpt lat="40.0713749" lon="-105.229789">
  <ele>1583.0</ele>
  <time>2026-08-28T17:56:08Z</time>
  <course>248.21</course>
  <speed>0.01</speed>
  <fix>3d</fix>
</trkpt>
<trkpt lat="40.0713749" lon="-105.229789">
  <ele>1583.0</ele>
  <time>2026-08-28T17:56:08Z</time>
  <course>0.0</course>
  <speed>0.0</speed>
  <fix>3d</fix>
</trkpt>
<trkpt lat="40.0713749" lon="-105.229789">
  <ele>1583.0</ele>
  <time>2026-08-28T17:56:08Z</time>
  <course>248.2</course>
  <speed>0.01</speed>
  <fix>3d</fix>
</trkpt>
<trkpt lat="40.0713749" lon="-105.229789">
  <ele>1583.0</ele>
  <time>2026-08-28T17:56:08Z</time>
  <course>0.0</course>
  <speed>0.0</speed>
  <fix>3d</fix>
</trkpt>
<trkpt lat="40.0713749" lon="-105.229789">
  <ele>1583.0</ele>
  <time>2026-08-28T17:56:08Z</time>
  <course>248.2</course>
  <speed>0.01</speed>
  <fix>3d</fix>
</trkpt>
<trkpt lat="40.0713749" lon="-105.229789">
  <ele>1583.0</ele>
  <time>2026-08-28T17:56:08Z</time>
  <course>0.0</course>
  <speed>0.0</speed>
  <fix>3d</fix>
</trkpt>
<trkpt lat="40.0713749" lon="-105.229789">
  <ele>1583.0</ele>
  <time>2026-08-28T17:56:08Z</time>
  <course>248.19</course>
  <speed>0.01</speed>
  <fix>3d</fix>
</trkpt>
<trkpt lat="40.0713749" lon="-105.229789">
  <ele>1583.0</ele>
  <time>2026-08-28T17:56:08Z</time>
  <course>0.0</course>
  <speed>0.0</speed>
  <fix>3d</fix>
</trkpt>
<trkpt lat="40.0713749" lon="-105.229789">
  <ele>1583.0</ele>
  <time>2026-08-28T17:56:08Z</time>
  <course>248.19</course>
  <speed>0.01</speed>
  <fix>3d</fix>
</trkpt>
<trkpt lat="40.0713749" lon="-105.229789">
  <ele>1583.0</ele>
  <time>2026-08-28T17:56:08Z</time>
  <course>0.0</course>
  <speed>0.0</speed>
  <fix>3d</fix>
</trkpt>
<trkpt lat="40.0713749" lon="-105.229789">
  <ele>1583.0</ele>
  <time>2026-08-28T17:56:08Z</time>
  <course>248.18</course>
  <speed>0.01</speed>
  <fix>3d</fix>
</trkpt>
<trkpt lat="40.0713749" lon="-105.229789">
  <ele>1583.0</ele>
  <time>2026-08-28T17:56:08Z</time>
  <course>0.0</course>
  <speed>0.0</speed>
  <fix>3d</fix>
</trkpt>
<trkpt lat="40.0713749" lon="-105.229789">
  <ele>1583.0</ele>
  <time>2026-08-28T17:56:08Z</time>
  <course>248.18</course>
  <speed>0.01</speed>
  <fix>3d</fix>
</trkpt>
<trkpt lat="40.0713749" lon="-105.229789">
  <ele>1583.0</ele>
  <time>2026-08-28T17:56:08Z</time>
  <course>0.0</course>
  <speed>0.0</speed>
  <fix>3d</fix>
</trkpt>
<trkpt lat="40.0713749" lon="-105.229789">
  <ele>1583.0</ele>
  <time>2026-08-28T17:56:08Z</time>
  <course>248.17</course>
  <speed>0.022360679774997897</speed>
  <fix>3d</fix>
</trkpt>
<trkpt lat="40.0713749" lon="-105.229789">
  <ele>1583.0</ele>
  <time>2026-08-28T17:56:08Z</time>
  <course>0.0</course>
  <speed>0.0</speed>
  <fix>3d</fix>
</trkpt>
<trkpt lat="40.0713749" lon="-105.229789">
  <ele>1583.0</ele>
  <time>2026-08-28T17:56:08Z</time>
  <course>248.17</course>
  <speed>0.022360679774997897</speed>
  <fix>3d</fix>
</trkpt>
<trkpt lat="40.0713749" lon="-105.229789">
  <ele>1583.0</ele>
  <time>2026-08-28T17:56:08Z</time>
  <course>0.0</course>
  <speed>0.0</speed>
  <fix>3d</fix>
</trkpt>
<trkpt lat="40.0713749" lon="-105.229789">
  <ele>1583.0</ele>
  <time>2026-08-28T17:56:08Z</time>
  <course>248.16</course>
  <speed>0.022360679774997897</speed>
  <fix>3d</fix>
</trkpt>
<trkpt lat="40.0713749" lon="-105.229789">
  <ele>1583.0</ele>
  <time>2026-08-28T17:56:08Z</time>
  <course>0.0</course>
  <speed>0.0</speed>
  <fix>3d</fix>
</trkpt>
<trkpt lat="40.0713749" lon="-105.229789">
  <ele>1583.0</ele>
  <time>2026-08-28T17:56:08Z</time>
  <course>248.16</course>
  <speed>0.022360679774997897</speed>
  <fix>3d</fix>
</trkpt>
<trkpt lat="40.0713749" lon="-105.229789">
  <ele>1583.0</ele>
  <time>2026-08-28T17:56:08Z</time>
  <course>0.0</course>
  <speed>0.0</speed>
  <fix>3d</fix>
</trkpt>
<trkpt lat="40.0713749" lon="-105.229789">
  <ele>1583.0</ele>
  <time>2026-08-28T17:56:08Z</time>
  <course>248.15</course>
  <speed>0.022360679774997897</speed>
  <fix>3d</fix>
</trkpt>
<trkpt lat="40.0713749" lon="-105.229789">
  <ele>1583.0</ele>
  <time>2026-08-28T17:56:08Z</time>
  <course>0.0</course>
  <speed>0.0</speed>
  <fix>3d</fix>
</trkpt>
<trkpt lat="40.0713749" lon="-105.229789">
  <ele>1583.0</ele>
  <time>2026-08-28T17:56:08Z</time>
  <course>248.15</course>
  <speed>0.022360679774997897</speed>
  <fix>3d</fix>
</trkpt>
<trkpt lat="40.0713749" lon="-105.229789">
  <ele>1583.0</ele>
  <time>2026-08-28T17:56:08Z</time>
  <course>0.0</course>
  <speed>0.0</speed>
  <fix>3d</fix>
</trkpt>
<trkpt lat="40.0713749" lon="-105.229789">
  <ele>1583.0</ele>
  <time>2026-08-28T17:56:08Z</time>
  <course>248.14</course>
  <speed>0.022360679774997897</speed>
  <fix>3d</fix>
</trkpt>
<trkpt lat="40.0713749" lon="-105.229789">
  <ele>1583.0</ele>
  <time>2026-08-28T17:56:08Z</time>
  <course>0.0</course>
  <speed>0.0</speed>
  <fix>3d</fix>
</trkpt>
<trkpt lat="40.0713749" lon="-105.229789">
  <ele>1583.0</ele>
  <time>2026-08-28T17:56:08Z</time>
  <course>248.14</course>
  <speed>0.022360679774997897</speed>
  <fix>3d</fix>
</trkpt>
<trkpt lat="40.0713749" lon="-105.229789">
  <ele>1583.0</ele>
  <time>2026-08-28T17:56:08Z</time>
  <course>0.0</course>
  <speed>0.0</speed>
  <fix>3d</fix>
</trkpt>
<trkpt lat="40.0713749" lon="-105.229789">
  <ele>1583.0</ele>
  <time>2026-08-28T17:56:08Z</time>
  <course>248.13</course>
  <speed>0.022360679774997897</speed>
  <fix>3d</fix>
</trkpt>
<trkpt lat="40.0713749" lon="-105.229789">
  <ele>1583.0</ele>
  <time>2026-08-28T17:56:08Z</time>
  <course>0.0</course>
  <speed>0.0</speed>
  <fix>3d</fix>
</trkpt>
<trkpt lat="40.0713749" lon="-105.229789">
  <ele>1583.0</ele>
  <time>2026-08-28T17:56:08Z</time>
  <course>248.13</course>
  <speed>0.022360679774997897</speed>
  <fix>3d</fix>
</trkpt>
<trkpt lat="40.0713749" lon="-105.229789">
  <ele>1583.0</ele>
  <time>2026-08-28T17:56:08Z</time>
  <course>0.0</course>
  <speed>0.0</speed>
  <fix>3d</fix>
</trkpt>
<trkpt lat="40.0713749" lon="-105.229789">
  <ele>1583.0</ele>
  <time>2026-08-28T17:56:08Z</time>
  <course>248.12</course>
  <speed>0.022360679774997897</speed>
  <fix>3d</fix>
</trkpt>
<trkpt lat="40.0713749" lon="-105.229789">
  <ele>1583.0</ele>
  <time>2026-08-28T17:56:08Z</time>
  <course>0.0</course>
  <speed>0.0</speed>
  <fix>3d</fix>
</trkpt>
<trkpt lat="40.0713749" lon="-105.229789">
  <ele>1583.0</ele>
  <time>2026-08-28T17:56:08Z</time>
  <course>248.12</course>
  <speed>0.022360679774997897</speed>
  <fix>3d</fix>
</trkpt>
<trkpt lat="40.0713749" lon="-105.229789">
  <ele>1583.0</ele>
  <time>2026-08-28T17:56:08Z</time>
  <course>0.0</course>
  <speed>0.0</speed>
  <fix>3d</fix>
</trkpt>
<trkpt lat="40.0713749" lon="-105.229789">
  <ele>1583.0</ele>
  <time>2026-08-28T17:56:08Z</time>
  <course>248.11</course>
  <speed>0.022360679774997897</speed>
  <fix>3d</fix>
</trkpt>
<trkpt lat="40.0713749" lon="-105.229789">
  <ele>1583.0</ele>
  <time>2026-08-28T17:56:09Z</time>
  <course>0.0</course>
  <speed>0.0</speed>
  <fix>3d</fix>
</trkpt>
<trkpt lat="40.0713749" lon="-105.229789">
  <ele>1583.0</ele>
  <time>2026-08-28T17:56:09Z</time>
  <course>248.11</course>
  <speed>0.022360679774997897</speed>
  <fix>3d</fix>
</trkpt>
<trkpt lat="40.0713749" lon="-105.229789">
  <ele>1583.0</ele>
  <time>2026-08-28T17:56:09Z</time>
  <course>0.0</course>
  <speed>0.0</speed>
  <fix>3d</fix>
</trkpt>
<trkpt lat="40.0713749" lon="-105.229789">
  <ele>1583.0</ele>
  <time>2026-08-28T17:56:09Z</time>
  <course>248.1</course>
  <speed>0.022360679774997897</speed>
  <fix>3d</fix>
</trkpt>
<trkpt lat="40.0713749" lon="-105.229789">
  <ele>1583.0</ele>
  <time>2026-08-28T17:56:09Z</time>
  <course>0.0</course>
  <speed>0.0</speed>
  <fix>3d</fix>
</trkpt>
<trkpt lat="40.0713749" lon="-105.229789">
  <ele>1583.0</ele>
  <time>2026-08-28T17:56:09Z</time>
  <course>248.1</course>
  <speed>0.022360679774997897</speed>
  <fix>3d</fix>
</trkpt>
<trkpt lat="40.0713749" lon="-105.229789">
  <ele>1583.0</ele>
  <time>2026-08-28T17:56:09Z</time>
  <course>0.0</course>
  <speed>0.0</speed>
  <fix>3d</fix>
</trkpt>
<trkpt lat="40.0713749" lon="-105.229789">
  <ele>1583.0</ele>
  <time>2026-08-28T17:56:09Z</time>
  <course>248.09</course>
  <speed>0.022360679774997897</speed>
  <fix>3d</fix>
</trkpt>
<trkpt lat="40.0713749" lon="-105.229789">
  <ele>1583.0</ele>
  <time>2026-08-28T17:56:09Z</time>
  <course>0.0</course>
  <speed>0.0</speed>
  <fix>3d</fix>
</trkpt>
<trkpt lat="40.0713749" lon="-105.229789">
  <ele>1583.0</ele>
  <time>2026-08-28T17:56:09Z</time>
  <course>248.09</course>
  <speed>0.022360679774997897</speed>
  <fix>3d</fix>
</trkpt>
<trkpt lat="40.0713749" lon="-105.229789">
  <ele>1583.0</ele>
  <time>2026-08-28T17:56:09Z</time>
  <course>0.0</course>
  <speed>0.0</speed>
  <fix>3d</fix>
</trkpt>
<trkpt lat="40.0713749" lon="-105.229789">
  <ele>1583.0</ele>
  <time>2026-08-28T17:56:09Z</time>
  <course>248.08</course>
  <speed>0.022360679774997897</speed>
  <fix>3d</fix>
</trkpt>
<trkpt lat="40.0713749" lon="-105.229789">
  <ele>1583.0</ele>
  <time>2026-08-28T17:56:09Z</time>
  <course>0.0</course>
  <speed>0.0</speed>
  <fix>3d</fix>
</trkpt>
<trkpt lat="40.0713749" lon="-105.229789">
  <ele>1583.0</ele>
  <time>2026-08-28T17:56:09Z</time>
  <course>248.08</course>
  <speed>0.022360679774997897</speed>
  <fix>3d</fix>
</trkpt>
<trkpt lat="40.0713749" lon="-105.229789">
  <ele>1583.0</ele>
  <time>2026-08-28T17:56:09Z</time>
  <course>0.0</course>
  <speed>0.0</speed>
  <fix>3d</fix>
</trkpt>
<trkpt lat="40.0713749" lon="-105.229789">
  <ele>1583.0</ele>
  <time>2026-08-28T17:56:09Z</time>
  <course>248.07</course>
  <speed>0.022360679774997897</speed>
  <fix>3d</fix>
</trkpt>
<trkpt lat="40.0713749" lon="-105.229789">
  <ele>1583.0</ele>
  <time>2026-08-28T17:56:09Z</time>
  <course>0.0</course>
  <speed>0.0</speed>
  <fix>3d</fix>
</trkpt>
<trkpt lat="40.0713749" lon="-105.229789">
  <ele>1583.0</ele>
  <time>2026-08-28T17:56:09Z</time>
  <course>248.07</course>
  <speed>0.022360679774997897</speed>
  <fix>3d</fix>
</trkpt>
<trkpt lat="40.0713749" lon="-105.229789">
  <ele>1583.0</ele>
  <time>2026-08-28T17:56:09Z</time>
  <course>0.0</course>
  <speed>0.0</speed>
  <fix>3d</fix>
</trkpt>
<trkpt lat="40.0713749" lon="-105.229789">
  <ele>1583.0</ele>
  <time>2026-08-28T17:56:09Z</time>
  <course>248.06</course>
  <speed>0.022360679774997897</speed>
  <fix>3d</fix>
</trkpt>
<trkpt lat="40.0713749" lon="-105.229789">
  <ele>1583.0</ele>
  <time>2026-08-28T17:56:09Z</time>
  <course>0.0</course>
  <speed>0.0</speed>
  <fix>3d</fix>
</trkpt>
<trkpt lat="40.0713749" lon="-105.229789">
  <ele>1583.0</ele>
  <time>2026-08-28T17:56:09Z</time>
  <course>248.06</course>
  <speed>0.022360679774997897</speed>
  <fix>3d</fix>
</trkpt>
<trkpt lat="40.0713749" lon="-105.229789">
  <ele>1583.0</ele>
  <time>2026-08-28T17:56:09Z</time>
  <course>0.0</course>
  <speed>0.0</speed>
  <fix>3d</fix>
</trkpt>
<trkpt lat="40.0713749" lon="-105.229789">
  <ele>1583.0</ele>
  <time>2026-08-28T17:56:09Z</time>
  <course>248.05</course>
  <speed>0.022360679774997897</speed>
  <fix>3d</fix>
</trkpt>
<trkpt lat="40.0713749" lon="-105.229789">
  <ele>1583.0</ele>
  <time>2026-08-28T17:56:09Z</time>
  <course>0.0</course>
  <speed>0.0</speed>
  <fix>3d</fix>
</trkpt>
<trkpt lat="40.0713749" lon="-105.229789">
  <ele>1583.0</ele>
  <time>2026-08-28T17:56:09Z</time>
  <course>248.05</course>
  <speed>0.022360679774997897</speed>
  <fix>3d</fix>
</trkpt>
<trkpt lat="40.0713749" lon="-105.229789">
  <ele>1583.0</ele>
  <time>2026-08-28T17:56:09Z</time>
  <course>0.0</course>
  <speed>0.0</speed>
  <fix>3d</fix>
</trkpt>
<trkpt lat="40.0713749" lon="-105.229789">
  <ele>1583.0</ele>
  <time>2026-08-28T17:56:09Z</time>
  <course>248.05</course>
  <speed>0.022360679774997897</speed>
  <fix>3d</fix>
</trkpt>
<trkpt lat="40.0713749" lon="-105.229789">
  <ele>1583.0</ele>
  <time>2026-08-28T17:56:09Z</time>
  <course>0.0</course>
  <speed>0.0</speed>
  <fix>3d</fix>
</trkpt>
<trkpt lat="40.0713749" lon="-105.229789">
  <ele>1583.0</ele>
  <time>2026-08-28T17:56:09Z</time>
  <course>248.04</course>
  <speed>0.022360679774997897</speed>
  <fix>3d</fix>
</trkpt>
<trkpt lat="40.0713749" lon="-105.229789">
  <ele>1583.0</ele>
  <time>2026-08-28T17:56:09Z</time>
  <course>0.0</course>
  <speed>0.0</speed>
  <fix>3d</fix>
</trkpt>
<trkpt lat="40.0713749" lon="-105.229789">
  <ele>1583.0</ele>
  <time>2026-08-28T17:56:09Z</time>
  <course>248.04</course>
  <speed>0.022360679774997897</speed>
  <fix>3d</fix>
</trkpt>
<trkpt lat="40.0713749" lon="-105.229789">
  <ele>1583.0</ele>
  <time>2026-08-28T17:56:09Z</time>
  <course>0.0</course>
  <speed>0.0</speed>
  <fix>3d</fix>
</trkpt>
<trkpt lat="40.0713749" lon="-105.229789">
  <ele>1583.0</ele>
  <time>2026-08-28T17:56:09Z</time>
  <course>248.03</course>
  <speed>0.022360679774997897</speed>
  <fix>3d</fix>
</trkpt>
<trkpt lat="40.0713749" lon="-105.229789">
  <ele>1583.0</ele>
  <time>2026-08-28T17:56:09Z</time>
  <course>0.0</course>
  <speed>0.0</speed>
  <fix>3d</fix>
</trkpt>
<trkpt lat="40.0713749" lon="-105.229789">
  <ele>1583.0</ele>
  <time>2026-08-28T17:56:09Z</time>
  <course>248.03</course>
  <speed>0.022360679774997897</speed>
  <fix>3d</fix>
</trkpt>
<trkpt lat="40.0713749" lon="-105.229789">
  <ele>1583.0</ele>
  <time>2026-08-28T17:56:09Z</time>
  <course>0.0</course>
  <speed>0.0</speed>
  <fix>3d</fix>
</trkpt>
<trkpt lat="40.0713749" lon="-105.229789">
  <ele>1583.0</ele>
  <time>2026-08-28T17:56:09Z</time>
  <course>248.02</course>
  <speed>0.022360679774997897</speed>
  <fix>3d</fix>
</trkpt>
<trkpt lat="40.0713749" lon="-105.229789">
  <ele>1583.0</ele>
  <time>2026-08-28T17:56:09Z</time>
  <course>0.0</course>
  <speed>0.0</speed>
  <fix>3d</fix>
</trkpt>
<trkpt lat="40.0713749" lon="-105.229789">
  <ele>1583.0</ele>
  <time>2026-08-28T17:56:09Z</time>
  <course>248.02</course>
  <speed>0.022360679774997897</speed>
  <fix>3d</fix>
</trkpt>
<trkpt lat="40.0713749" lon="-105.229789">
  <ele>1583.0</ele>
  <time>2026-08-28T17:56:09Z</time>
  <course>0.0</course>
  <speed>0.0</speed>
  <fix>3d</fix>
</trkpt>
<trkpt lat="40.0713749" lon="-105.229789">
  <ele>1583.0</ele>
  <time>2026-08-28T17:56:09Z</time>
  <course>248.01</course>
  <speed>0.022360679774997897</speed>
  <fix>3d</fix>
</trkpt>
<trkpt lat="40.0713749" lon="-105.229789">
  <ele>1583.0</ele>
  <time>2026-08-28T17:56:09Z</time>
  <course>0.0</course>
  <speed>0.0</speed>
  <fix>3d</fix>
</trkpt>
<trkpt lat="40.0713749" lon="-105.229789">
  <ele>1583.0</ele>
  <time>2026-08-28T17:56:09Z</time>
  <course>248.01</course>
  <speed>0.022360679774997897</speed>
  <fix>3d</fix>
</trkpt>
<trkpt lat="40.0713749" lon="-105.229789">
  <ele>1583.0</ele>
  <time>2026-08-28T17:56:09Z</time>
  <course>0.0</course>
  <speed>0.0</speed>
  <fix>3d</fix>
</trkpt>
<trkpt lat="40.0713749" lon="-105.229789">
  <ele>1583.0</ele>
  <time>2026-08-28T17:56:09Z</time>
  <course>248.0</course>
  <speed>0.022360679774997897</speed>
  <fix>3d</fix>
</trkpt>
<trkpt lat="40.0713749" lon="-105.229789">
  <ele>1583.0</ele>
  <time>2026-08-28T17:56:09Z</time>
  <course>0.0</course>
  <speed>0.0</speed>
  <fix>3d</fix>
</trkpt>
<trkpt lat="40.0713749" lon="-105.229789">
  <ele>1583.0</ele>
  <time>2026-08-28T17:56:09Z</time>
  <course>248.0</course>
  <speed>0.022360679774997897</speed>
  <fix>3d</fix>
</trkpt>
<trkpt lat="40.0713749" lon="-105.229789">
  <ele>1583.0</ele>
  <time>2026-08-28T17:56:09Z</time>
  <course>0.0</course>
  <speed>0.0</speed>
  <fix>3d</fix>
</trkpt>
<trkpt lat="40.0713749" lon="-105.229789">
  <ele>1583.0</ele>
  <time>2026-08-28T17:56:09Z</time>
  <course>247.99</course>
  <speed>0.022360679774997897</speed>
  <fix>3d</fix>
</trkpt>
<trkpt lat="40.0713749" lon="-105.229789">
  <ele>1583.0</ele>
  <time>2026-08-28T17:56:09Z</time>
  <course>0.0</course>
  <speed>0.0</speed>
  <fix>3d</fix>
</trkpt>
<trkpt lat="40.0713749" lon="-105.229789">
  <ele>1583.0</ele>
  <time>2026-08-28T17:56:09Z</time>
  <course>247.99</course>
  <speed>0.022360679774997897</speed>
  <fix>3d</fix>
</trkpt>
<trkpt lat="40.0713749" lon="-105.229789">
  <ele>1583.0</ele>
  <time>2026-08-28T17:56:09Z</time>
  <course>0.0</course>
  <speed>0.0</speed>
  <fix>3d</fix>
</trkpt>
<trkpt lat="40.0713749" lon="-105.229789">
  <ele>1583.0</ele>
  <time>2026-08-28T17:56:09Z</time>
  <course>247.99</course>
  <speed>0.022360679774997897</speed>
  <fix>3d</fix>
</trkpt>
<trkpt lat="40.0713749" lon="-105.229789">
  <ele>1583.0</ele>
  <time>2026-08-28T17:56:09Z</time>
  <course>0.0</course>
  <speed>0.0</speed>
  <fix>3d</fix>
</trkpt>
<trkpt lat="40.0713749" lon="-105.229789">
  <ele>1583.0</ele>
  <time>2026-08-28T17:56:09Z</time>
  <course>247.98</course>
  <speed>0.022360679774997897</speed>
  <fix>3d</fix>
</trkpt>
<trkpt lat="40.0713749" lon="-105.229789">
  <ele>1583.0</ele>
  <time>2026-08-28T17:56:09Z</time>
  <course>0.0</course>
  <speed>0.0</speed>
  <fix>3d</fix>
</trkpt>
<trkpt lat="40.0713749" lon="-105.229789">
  <ele>1583.0</ele>
  <time>2026-08-28T17:56:09Z</time>
  <course>247.98</course>
  <speed>0.022360679774997897</speed>
  <fix>3d</fix>
</trkpt>
<trkpt lat="40.0713749" lon="-105.229789">
  <ele>1583.0</ele>
  <time>2026-08-28T17:56:09Z</time>
  <course>0.0</course>
  <speed>0.0</speed>
  <fix>3d</fix>
</trkpt>
<trkpt lat="40.0713749" lon="-105.229789">
  <ele>1583.0</ele>
  <time>2026-08-28T17:56:09Z</time>
  <course>247.97</course>
  <speed>0.022360679774997897</speed>
  <fix>3d</fix>
</trkpt>
<trkpt lat="40.0713749" lon="-105.229789">
  <ele>1583.0</ele>
  <time>2026-08-28T17:56:09Z</time>
  <course>0.0</course>
  <speed>0.0</speed>
  <fix>3d</fix>
</trkpt>
<trkpt lat="40.0713749" lon="-105.229789">
  <ele>1583.0</ele>
  <time>2026-08-28T17:56:09Z</time>
  <course>247.97</course>
  <speed>0.022360679774997897</speed>
  <fix>3d</fix>
</trkpt>
<trkpt lat="40.0713749" lon="-105.229789">
  <ele>1583.0</ele>
  <time>2026-08-28T17:56:09Z</time>
  <course>0.0</course>
  <speed>0.0</speed>
  <fix>3d</fix>
</trkpt>
<trkpt lat="40.0713749" lon="-105.229789">
  <ele>1583.0</ele>
  <time>2026-08-28T17:56:09Z</time>
  <course>247.96</course>
  <speed>0.022360679774997897</speed>
  <fix>3d</fix>
</trkpt>
<trkpt lat="40.0713749" lon="-105.229789">
  <ele>1583.0</ele>
  <time>2026-08-28T17:56:09Z</time>
  <course>0.0</course>
  <speed>0.0</speed>
  <fix>3d</fix>
</trkpt>
<trkpt lat="40.0713749" lon="-105.229789">
  <ele>1583.0</ele>
  <time>2026-08-28T17:56:09Z</time>
  <course>247.96</course>
  <speed>0.022360679774997897</speed>
  <fix>3d</fix>
</trkpt>
<trkpt lat="40.0713749" lon="-105.229789">
  <ele>1583.0</ele>
  <time>2026-08-28T17:56:09Z</time>
  <course>0.0</course>
  <speed>0.0</speed>
  <fix>3d</fix>
</trkpt>
<trkpt lat="40.0713749" lon="-105.229789">
  <ele>1583.0</ele>
  <time>2026-08-28T17:56:09Z</time>
  <course>247.95</course>
  <speed>0.022360679774997897</speed>
  <fix>3d</fix>
</trkpt>
<trkpt lat="40.0713749" lon="-105.229789">
  <ele>1583.0</ele>
  <time>2026-08-28T17:56:09Z</time>
  <course>0.0</course>
  <speed>0.0</speed>
  <fix>3d</fix>
</trkpt>
<trkpt lat="40.0713749" lon="-105.229789">
  <ele>1583.0</ele>
  <time>2026-08-28T17:56:09Z</time>
  <course>247.95</course>
  <speed>0.022360679774997897</speed>
  <fix>3d</fix>
</trkpt>
<trkpt lat="40.0713749" lon="-105.229789">
  <ele>1583.0</ele>
  <time>2026-08-28T17:56:09Z</time>
  <course>0.0</course>
  <speed>0.0</speed>
  <fix>3d</fix>
</trkpt>
<trkpt lat="40.0713749" lon="-105.229789">
  <ele>1583.0</ele>
  <time>2026-08-28T17:56:09Z</time>
  <course>247.95</course>
  <speed>0.022360679774997897</speed>
  <fix>3d</fix>
</trkpt>
<trkpt lat="40.0713749" lon="-105.229789">
  <ele>1583.0</ele>
  <time>2026-08-28T17:56:09Z</time>
  <course>0.0</course>
  <speed>0.0</speed>
  <fix>3d</fix>
</trkpt>
<trkpt lat="40.0713749" lon="-105.229789">
  <ele>1583.0</ele>
  <time>2026-08-28T17:56:09Z</time>
  <course>247.94</course>
  <speed>0.022360679774997897</speed>
  <fix>3d</fix>
</trkpt>
<trkpt lat="40.0713749" lon="-105.229789">
  <ele>1583.0</ele>
  <time>2026-08-28T17:56:09Z</time>
  <course>0.0</course>
  <speed>0.0</speed>
  <fix>3d</fix>
</trkpt>
<trkpt lat="40.0713749" lon="-105.229789">
  <ele>1583.0</ele>
  <time>2026-08-28T17:56:09Z</time>
  <course>247.94</course>
  <speed>0.022360679774997897</speed>
  <fix>3d</fix>
</trkpt>
<trkpt lat="40.0713749" lon="-105.229789">
  <ele>1583.0</ele>
  <time>2026-08-28T17:56:09Z</time>
  <course>0.0</course>
  <speed>0.0</speed>
  <fix>3d</fix>
</trkpt>
<trkpt lat="40.0713749" lon="-105.229789">
  <ele>1583.0</ele>
  <time>2026-08-28T17:56:09Z</time>
  <course>247.93</course>
  <speed>0.022360679774997897</speed>
  <fix>3d</fix>
</trkpt>
<trkpt lat="40.0713749" lon="-105.229789">
  <ele>1583.0</ele>
  <time>2026-08-28T17:56:09Z</time>
  <course>0.0</course>
  <speed>0.0</speed>
  <fix>3d</fix>
</trkpt>
<trkpt lat="40.0713749" lon="-105.229789">
  <ele>1583.0</ele>
  <time>2026-08-28T17:56:09Z</time>
  <course>247.93</course>
  <speed>0.022360679774997897</speed>
  <fix>3d</fix>
</trkpt>
<trkpt lat="40.0713749" lon="-105.229789">
  <ele>1583.0</ele>
  <time>2026-08-28T17:56:09Z</time>
  <course>0.0</course>
  <speed>0.0</speed>
  <fix>3d</fix>
</trkpt>
<trkpt lat="40.0713749" lon="-105.229789">
  <ele>1583.0</ele>
  <time>2026-08-28T17:56:09Z</time>
  <course>247.92</course>
  <speed>0.022360679774997897</speed>
  <fix>3d</fix>
</trkpt>
<trkpt lat="40.0713749" lon="-105.229789">
  <ele>1583.0</ele>
  <time>2026-08-28T17:56:09Z</time>
  <course>0.0</course>
  <speed>0.0</speed>
  <fix>3d</fix>
</trkpt>
<trkpt lat="40.0713749" lon="-105.229789">
  <ele>1583.0</ele>
  <time>2026-08-28T17:56:09Z</time>
  <course>247.92</course>
  <speed>0.022360679774997897</speed>
  <fix>3d</fix>
</trkpt>
<trkpt lat="40.0713749" lon="-105.229789">
  <ele>1583.0</ele>
  <time>2026-08-28T17:56:09Z</time>
  <course>0.0</course>
  <speed>0.0</speed>
  <fix>3d</fix>
</trkpt>
<trkpt lat="40.0713749" lon="-105.229789">
  <ele>1583.0</ele>
  <time>2026-08-28T17:56:09Z</time>
  <course>247.92</course>
  <speed>0.022360679774997897</speed>
  <fix>3d</fix>
</trkpt>
<trkpt lat="40.0713749" lon="-105.229789">
  <ele>1583.0</ele>
  <time>2026-08-28T17:56:09Z</time>
  <course>0.0</course>
  <speed>0.0</speed>
  <fix>3d</fix>
</trkpt>
<trkpt lat="40.0713749" lon="-105.229789">
  <ele>1583.0</ele>
  <time>2026-08-28T17:56:09Z</time>
  <course>247.91</course>
  <speed>0.022360679774997897</speed>
  <fix>3d</fix>
</trkpt>
<trkpt lat="40.0713749" lon="-105.229789">
  <ele>1583.0</ele>
  <time>2026-08-28T17:56:09Z</time>
  <course>0.0</course>
  <speed>0.0</speed>
  <fix>3d</fix>
</trkpt>
<trkpt lat="40.0713749" lon="-105.229789">
  <ele>1583.0</ele>
  <time>2026-08-28T17:56:09Z</time>
  <course>247.91</course>
  <speed>0.022360679774997897</speed>
  <fix>3d</fix>
</trkpt>
<trkpt lat="40.0713749" lon="-105.229789">
  <ele>1583.0</ele>
  <time>2026-08-28T17:56:09Z</time>
  <course>0.0</course>
  <speed>0.0</speed>
  <fix>3d</fix>
</trkpt>
<trkpt lat="40.0713749" lon="-105.229789">
  <ele>1583.0</ele>
  <time>2026-08-28T17:56:09Z</time>
  <course>247.9</course>
  <speed>0.022360679774997897</speed>
  <fix>3d</fix>
</trkpt>
<trkpt lat="40.0713749" lon="-105.229789">
  <ele>1583.0</ele>
  <time>2026-08-28T17:56:09Z</time>
  <course>0.0</course>
  <speed>0.0</speed>
  <fix>3d</fix>
</trkpt>
<trkpt lat="40.0713749" lon="-105.229789">
  <ele>1583.0</ele>
  <time>2026-08-28T17:56:09Z</time>
  <course>247.9</course>
  <speed>0.022360679774997897</speed>
  <fix>3d</fix>
</trkpt>
<trkpt lat="40.0713749" lon="-105.229789">
  <ele>1583.0</ele>
  <time>2026-08-28T17:56:09Z</time>
  <course>0.0</course>
  <speed>0.0</speed>
  <fix>3d</fix>
</trkpt>
<trkpt lat="40.0713749" lon="-105.229789">
  <ele>1583.0</ele>
  <time>2026-08-28T17:56:09Z</time>
  <course>247.89</course>
  <speed>0.022360679774997897</speed>
  <fix>3d</fix>
</trkpt>
<trkpt lat="40.0713749" lon="-105.229789">
  <ele>1583.0</ele>
  <time>2026-08-28T17:56:09Z</time>
  <course>0.0</course>
  <speed>0.0</speed>
  <fix>3d</fix>
</trkpt>
<trkpt lat="40.0713749" lon="-105.229789">
  <ele>1583.0</ele>
  <time>2026-08-28T17:56:09Z</time>
  <course>247.89</course>
  <speed>0.022360679774997897</speed>
  <fix>3d</fix>
</trkpt>
<trkpt lat="40.0713749" lon="-105.229789">
  <ele>1583.0</ele>
  <time>2026-08-28T17:56:09Z</time>
  <course>0.0</course>
  <speed>0.0</speed>
  <fix>3d</fix>
</trkpt>
<trkpt lat="40.0713749" lon="-105.229789">
  <ele>1583.0</ele>
  <time>2026-08-28T17:56:09Z</time>
  <course>247.89</course>
  <speed>0.022360679774997897</speed>
  <fix>3d</fix>
</trkpt>
<trkpt lat="40.0713749" lon="-105.229789">
  <ele>1583.0</ele>
  <time>2026-08-28T17:56:09Z</time>
  <course>0.0</course>
  <speed>0.0</speed>
  <fix>3d</fix>
</trkpt>
<trkpt lat="40.0713749" lon="-105.229789">
  <ele>1583.0</ele>
  <time>2026-08-28T17:56:09Z</time>
  <course>247.88</course>
  <speed>0.0316227766016838</speed>
  <fix>3d</fix>
</trkpt>
<trkpt lat="40.0713749" lon="-105.229789">
  <ele>1583.0</ele>
  <time>2026-08-28T17:56:09Z</time>
  <course>0.0</course>
  <speed>0.0</speed>
  <fix>3d</fix>
</trkpt>
<trkpt lat="40.0713749" lon="-105.229789">
  <ele>1583.0</ele>
  <time>2026-08-28T17:56:09Z</time>
  <course>247.88</course>
  <speed>0.0316227766016838</speed>
  <fix>3d</fix>
</trkpt>
<trkpt lat="40.0713749" lon="-105.229789">
  <ele>1583.0</ele>
  <time>2026-08-28T17:56:09Z</time>
  <course>0.0</course>
  <speed>0.0</speed>
  <fix>3d</fix>
</trkpt>
<trkpt lat="40.0713749" lon="-105.229789">
  <ele>1583.0</ele>
  <time>2026-08-28T17:56:09Z</time>
  <course>247.87</course>
  <speed>0.0316227766016838</speed>
  <fix>3d</fix>
</trkpt>
<trkpt lat="40.0713749" lon="-105.229789">
  <ele>1583.0</ele>
  <time>2026-08-28T17:56:09Z</time>
  <course>0.0</course>
  <speed>0.0</speed>
  <fix>3d</fix>
</trkpt>
<trkpt lat="40.0713749" lon="-105.229789">
  <ele>1583.0</ele>
  <time>2026-08-28T17:56:09Z</time>
  <course>247.87</course>
  <speed>0.0316227766016838</speed>
  <fix>3d</fix>
</trkpt>
<trkpt lat="40.0713749" lon="-105.229789">
  <ele>1583.0</ele>
  <time>2026-08-28T17:56:09Z</time>
  <course>0.0</course>
  <speed>0.0</speed>
  <fix>3d</fix>
</trkpt>
<trkpt lat="40.0713749" lon="-105.229789">
  <ele>1583.0</ele>
  <time>2026-08-28T17:56:09Z</time>
  <course>247.87</course>
  <speed>0.0316227766016838</speed>
  <fix>3d</fix>
</trkpt>
<trkpt lat="40.0713749" lon="-105.229789">
  <ele>1583.0</ele>
  <time>2026-08-28T17:56:09Z</time>
  <course>0.0</course>
  <speed>0.0</speed>
  <fix>3d</fix>
</trkpt>
<trkpt lat="40.0713749" lon="-105.229789">
  <ele>1583.0</ele>
  <time>2026-08-28T17:56:09Z</time>
  <course>247.86</course>
  <speed>0.0316227766016838</speed>
  <fix>3d</fix>
</trkpt>
<trkpt lat="40.0713749" lon="-105.229789">
  <ele>1583.0</ele>
  <time>2026-08-28T17:56:09Z</time>
  <course>0.0</course>
  <speed>0.0</speed>
  <fix>3d</fix>
</trkpt>
<trkpt lat="40.0713749" lon="-105.229789">
  <ele>1583.0</ele>
  <time>2026-08-28T17:56:09Z</time>
  <course>247.86</course>
  <speed>0.0316227766016838</speed>
  <fix>3d</fix>
</trkpt>
<trkpt lat="40.0713749" lon="-105.229789">
  <ele>1583.0</ele>
  <time>2026-08-28T17:56:09Z</time>
  <course>0.0</course>
  <speed>0.0</speed>
  <fix>3d</fix>
</trkpt>
<trkpt lat="40.0713749" lon="-105.229789">
  <ele>1583.0</ele>
  <time>2026-08-28T17:56:09Z</time>
  <course>247.85</course>
  <speed>0.0316227766016838</speed>
  <fix>3d</fix>
</trkpt>
<trkpt lat="40.0713749" lon="-105.229789">
  <ele>1583.0</ele>
  <time>2026-08-28T17:56:09Z</time>
  <course>0.0</course>
  <speed>0.0</speed>
  <fix>3d</fix>
</trkpt>
<trkpt lat="40.0713749" lon="-105.229789">
  <ele>1583.0</ele>
  <time>2026-08-28T17:56:09Z</time>
  <course>247.85</course>
  <speed>0.0316227766016838</speed>
  <fix>3d</fix>
</trkpt>
<trkpt lat="40.0713749" lon="-105.229789">
  <ele>1583.0</ele>
  <time>2026-08-28T17:56:09Z</time>
  <course>0.0</course>
  <speed>0.0</speed>
  <fix>3d</fix>
</trkpt>
<trkpt lat="40.0713749" lon="-105.229789">
  <ele>1583.0</ele>
  <time>2026-08-28T17:56:09Z</time>
  <course>247.85</course>
  <speed>0.0316227766016838</speed>
  <fix>3d</fix>
</trkpt>
<trkpt lat="40.0713749" lon="-105.229789">
  <ele>1583.0</ele>
  <time>2026-08-28T17:56:09Z</time>
  <course>0.0</course>
  <speed>0.0</speed>
  <fix>3d</fix>
</trkpt>
<trkpt lat="40.0713749" lon="-105.229789">
  <ele>1583.0</ele>
  <time>2026-08-28T17:56:09Z</time>
  <course>247.84</course>
  <speed>0.0316227766016838</speed>
  <fix>3d</fix>
</trkpt>
<trkpt lat="40.0713749" lon="-105.229789">
  <ele>1583.0</ele>
  <time>2026-08-28T17:56:09Z</time>
  <course>0.0</course>
  <speed>0.0</speed>
  <fix>3d</fix>
</trkpt>
<trkpt lat="40.0713749" lon="-105.229789">
  <ele>1583.0</ele>
  <time>2026-08-28T17:56:09Z</time>
  <course>247.84</course>
  <speed>0.0316227766016838</speed>
  <fix>3d</fix>
</trkpt>
<trkpt lat="40.0713749" lon="-105.229789">
  <ele>1583.0</ele>
  <time>2026-08-28T17:56:09Z</time>
  <course>0.0</course>
  <speed>0.0</speed>
  <fix>3d</fix>
</trkpt>
<trkpt lat="40.0713749" lon="-105.229789">
  <ele>1583.0</ele>
  <time>2026-08-28T17:56:09Z</time>
  <course>247.83</course>
  <speed>0.0316227766016838</speed>
  <fix>3d</fix>
</trkpt>
<trkpt lat="40.0713749" lon="-105.229789">
  <ele>1583.0</ele>
  <time>2026-08-28T17:56:09Z</time>
  <course>0.0</course>
  <speed>0.0</speed>
  <fix>3d</fix>
</trkpt>
<trkpt lat="40.0713749" lon="-105.229789">
  <ele>1583.0</ele>
  <time>2026-08-28T17:56:09Z</time>
  <course>247.83</course>
  <speed>0.0316227766016838</speed>
  <fix>3d</fix>
</trkpt>
<trkpt lat="40.0713749" lon="-105.229789">
  <ele>1583.0</ele>
  <time>2026-08-28T17:56:09Z</time>
  <course>0.0</course>
  <speed>0.0</speed>
  <fix>3d</fix>
</trkpt>
<trkpt lat="40.0713749" lon="-105.229789">
  <ele>1583.0</ele>
  <time>2026-08-28T17:56:09Z</time>
  <course>247.83</course>
  <speed>0.0316227766016838</speed>
  <fix>3d</fix>
</trkpt>
<trkpt lat="40.0713749" lon="-105.229789">
  <ele>1583.0</ele>
  <time>2026-08-28T17:56:09Z</time>
  <course>0.0</course>
  <speed>0.0</speed>
  <fix>3d</fix>
</trkpt>
<trkpt lat="40.0713749" lon="-105.229789">
  <ele>1583.0</ele>
  <time>2026-08-28T17:56:09Z</time>
  <course>247.82</course>
  <speed>0.0316227766016838</speed>
  <fix>3d</fix>
</trkpt>
<trkpt lat="40.0713749" lon="-105.229789">
  <ele>1583.0</ele>
  <time>2026-08-28T17:56:09Z</time>
  <course>0.0</course>
  <speed>0.0</speed>
  <fix>3d</fix>
</trkpt>
<trkpt lat="40.0713749" lon="-105.229789">
  <ele>1583.0</ele>
  <time>2026-08-28T17:56:09Z</time>
  <course>247.82</course>
  <speed>0.0316227766016838</speed>
  <fix>3d</fix>
</trkpt>
<trkpt lat="40.0713749" lon="-105.229789">
  <ele>1583.0</ele>
  <time>2026-08-28T17:56:09Z</time>
  <course>0.0</course>
  <speed>0.0</speed>
  <fix>3d</fix>
</trkpt>
<trkpt lat="40.0713749" lon="-105.229789">
  <ele>1583.0</ele>
  <time>2026-08-28T17:56:09Z</time>
  <course>247.82</course>
  <speed>0.0316227766016838</speed>
  <fix>3d</fix>
</trkpt>
<trkpt lat="40.0713749" lon="-105.229789">
  <ele>1583.0</ele>
  <time>2026-08-28T17:56:09Z</time>
  <course>0.0</course>
  <speed>0.0</speed>
  <fix>3d</fix>
</trkpt>
<trkpt lat="40.0713749" lon="-105.229789">
  <ele>1583.0</ele>
  <time>2026-08-28T17:56:09Z</time>
  <course>247.81</course>
  <speed>0.0316227766016838</speed>
  <fix>3d</fix>
</trkpt>
<trkpt lat="40.0713749" lon="-105.229789">
  <ele>1583.0</ele>
  <time>2026-08-28T17:56:09Z</time>
  <course>0.0</course>
  <speed>0.0</speed>
  <fix>3d</fix>
</trkpt>
<trkpt lat="40.0713749" lon="-105.229789">
  <ele>1583.0</ele>
  <time>2026-08-28T17:56:09Z</time>
  <course>247.81</course>
  <speed>0.0316227766016838</speed>
  <fix>3d</fix>
</trkpt>
<trkpt lat="40.0713749" lon="-105.229789">
  <ele>1583.0</ele>
  <time>2026-08-28T17:56:09Z</time>
  <course>0.0</course>
  <speed>0.0</speed>
  <fix>3d</fix>
</trkpt>
<trkpt lat="40.0713749" lon="-105.229789">
  <ele>1583.0</ele>
  <time>2026-08-28T17:56:09Z</time>
  <course>247.8</course>
  <speed>0.0316227766016838</speed>
  <fix>3d</fix>
</trkpt>
<trkpt lat="40.0713749" lon="-105.229789">
  <ele>1583.0</ele>
  <time>2026-08-28T17:56:09Z</time>
  <course>0.0</course>
  <speed>0.0</speed>
  <fix>3d</fix>
</trkpt>
<trkpt lat="40.0713749" lon="-105.229789">
  <ele>1583.0</ele>
  <time>2026-08-28T17:56:09Z</time>
  <course>247.8</course>
  <speed>0.0316227766016838</speed>
  <fix>3d</fix>
</trkpt>
<trkpt lat="40.0713749" lon="-105.229789">
  <ele>1583.0</ele>
  <time>2026-08-28T17:56:09Z</time>
  <course>0.0</course>
  <speed>0.0</speed>
  <fix>3d</fix>
</trkpt>
<trkpt lat="40.0713749" lon="-105.229789">
  <ele>1583.0</ele>
  <time>2026-08-28T17:56:09Z</time>
  <course>247.8</course>
  <speed>0.0316227766016838</speed>
  <fix>3d</fix>
</trkpt>
<trkpt lat="40.0713749" lon="-105.229789">
  <ele>1583.0</ele>
  <time>2026-08-28T17:56:09Z</time>
  <course>0.0</course>
  <speed>0.0</speed>
  <fix>3d</fix>
</trkpt>
<trkpt lat="40.0713749" lon="-105.229789">
  <ele>1583.0</ele>
  <time>2026-08-28T17:56:09Z</time>
  <course>247.79</course>
  <speed>0.0316227766016838</speed>
  <fix>3d</fix>
</trkpt>
<trkpt lat="40.0713749" lon="-105.229789">
  <ele>1583.0</ele>
  <time>2026-08-28T17:56:09Z</time>
  <course>0.0</course>
  <speed>0.0</speed>
  <fix>3d</fix>
</trkpt>
<trkpt lat="40.0713749" lon="-105.229789">
  <ele>1583.0</ele>
  <time>2026-08-28T17:56:09Z</time>
  <course>247.79</course>
  <speed>0.0316227766016838</speed>
  <fix>3d</fix>
</trkpt>
<trkpt lat="40.0713749" lon="-105.229789">
  <ele>1583.0</ele>
  <time>2026-08-28T17:56:09Z</time>
  <course>0.0</course>
  <speed>0.0</speed>
  <fix>3d</fix>
</trkpt>
<trkpt lat="40.0713749" lon="-105.229789">
  <ele>1583.0</ele>
  <time>2026-08-28T17:56:09Z</time>
  <course>247.79</course>
  <speed>0.0316227766016838</speed>
  <fix>3d</fix>
</trkpt>
<trkpt lat="40.0713749" lon="-105.229789">
  <ele>1583.0</ele>
  <time>2026-08-28T17:56:09Z</time>
  <course>0.0</course>
  <speed>0.0</speed>
  <fix>3d</fix>
</trkpt>
<trkpt lat="40.0713749" lon="-105.229789">
  <ele>1583.0</ele>
  <time>2026-08-28T17:56:09Z</time>
  <course>247.78</course>
  <speed>0.0316227766016838</speed>
  <fix>3d</fix>
</trkpt>
<trkpt lat="40.0713749" lon="-105.229789">
  <ele>1583.0</ele>
  <time>2026-08-28T17:56:09Z</time>
  <course>0.0</course>
  <speed>0.0</speed>
  <fix>3d</fix>
</trkpt>
<trkpt lat="40.0713749" lon="-105.229789">
  <ele>1583.0</ele>
  <time>2026-08-28T17:56:09Z</time>
  <course>247.78</course>
  <speed>0.0316227766016838</speed>
  <fix>3d</fix>
</trkpt>
<trkpt lat="40.0713749" lon="-105.229789">
  <ele>1583.0</ele>
  <time>2026-08-28T17:56:09Z</time>
  <course>0.0</course>
  <speed>0.0</speed>
  <fix>3d</fix>
</trkpt>
<trkpt lat="40.0713749" lon="-105.229789">
  <ele>1583.0</ele>
  <time>2026-08-28T17:56:09Z</time>
  <course>247.78</course>
  <speed>0.0316227766016838</speed>
  <fix>3d</fix>
</trkpt>
<trkpt lat="40.0713749" lon="-105.229789">
  <ele>1583.0</ele>
  <time>2026-08-28T17:56:09Z</time>
  <course>0.0</course>
  <speed>0.0</speed>
  <fix>3d</fix>
</trkpt>
<trkpt lat="40.0713749" lon="-105.229789">
  <ele>1583.0</ele>
  <time>2026-08-28T17:56:09Z</time>
  <course>247.77</course>
  <speed>0.0316227766016838</speed>
  <fix>3d</fix>
</trkpt>
<trkpt lat="40.0713749" lon="-105.229789">
  <ele>1583.0</ele>
  <time>2026-08-28T17:56:09Z</time>
  <course>0.0</course>
  <speed>0.0</speed>
  <fix>3d</fix>
</trkpt>
<trkpt lat="40.0713749" lon="-105.229789">
  <ele>1583.0</ele>
  <time>2026-08-28T17:56:09Z</time>
  <course>247.77</course>
  <speed>0.0316227766016838</speed>
  <fix>3d</fix>
</trkpt>
<trkpt lat="40.0713749" lon="-105.229789">
  <ele>1583.0</ele>
  <time>2026-08-28T17:56:09Z</time>
  <course>0.0</course>
  <speed>0.0</speed>
  <fix>3d</fix>
</trkpt>
<trkpt lat="40.0713749" lon="-105.229789">
  <ele>1583.0</ele>
  <time>2026-08-28T17:56:09Z</time>
  <course>247.76</course>
  <speed>0.0316227766016838</speed>
  <fix>3d</fix>
</trkpt>
<trkpt lat="40.0713749" lon="-105.229789">
  <ele>1583.0</ele>
  <time>2026-08-28T17:56:09Z</time>
  <course>0.0</course>
  <speed>0.0</speed>
  <fix>3d</fix>
</trkpt>
<trkpt lat="40.0713749" lon="-105.229789">
  <ele>1583.0</ele>
  <time>2026-08-28T17:56:09Z</time>
  <course>247.76</course>
  <speed>0.0316227766016838</speed>
  <fix>3d</fix>
</trkpt>
<trkpt lat="40.0713749" lon="-105.229789">
  <ele>1583.0</ele>
  <time>2026-08-28T17:56:09Z</time>
  <course>0.0</course>
  <speed>0.0</speed>
  <fix>3d</fix>
</trkpt>
<trkpt lat="40.0713749" lon="-105.229789">
  <ele>1583.0</ele>
  <time>2026-08-28T17:56:09Z</time>
  <course>247.76</course>
  <speed>0.0316227766016838</speed>
  <fix>3d</fix>
</trkpt>
<trkpt lat="40.0713749" lon="-105.229789">
  <ele>1583.0</ele>
  <time>2026-08-28T17:56:09Z</time>
  <course>0.0</course>
  <speed>0.0</speed>
  <fix>3d</fix>
</trkpt>
<trkpt lat="40.0713749" lon="-105.229789">
  <ele>1583.0</ele>
  <time>2026-08-28T17:56:09Z</time>
  <course>247.75</course>
  <speed>0.0316227766016838</speed>
  <fix>3d</fix>
</trkpt>
<trkpt lat="40.0713749" lon="-105.229789">
  <ele>1583.0</ele>
  <time>2026-08-28T17:56:09Z</time>
  <course>0.0</course>
  <speed>0.0</speed>
  <fix>3d</fix>
</trkpt>
<trkpt lat="40.0713749" lon="-105.229789">
  <ele>1583.0</ele>
  <time>2026-08-28T17:56:09Z</time>
  <course>247.75</course>
  <speed>0.0316227766016838</speed>
  <fix>3d</fix>
</trkpt>
<trkpt lat="40.0713749" lon="-105.229789">
  <ele>1583.0</ele>
  <time>2026-08-28T17:56:09Z</time>
  <course>0.0</course>
  <speed>0.0</speed>
  <fix>3d</fix>
</trkpt>
<trkpt lat="40.0713749" lon="-105.229789">
  <ele>1583.0</ele>
  <time>2026-08-28T17:56:09Z</time>
  <course>247.75</course>
  <speed>0.0316227766016838</speed>
  <fix>3d</fix>
</trkpt>
<trkpt lat="40.0713749" lon="-105.229789">
  <ele>1583.0</ele>
  <time>2026-08-28T17:56:09Z</time>
  <course>0.0</course>
  <speed>0.0</speed>
  <fix>3d</fix>
</trkpt>
<trkpt lat="40.0713749" lon="-105.229789">
  <ele>1583.0</ele>
  <time>2026-08-28T17:56:09Z</time>
  <course>247.74</course>
  <speed>0.0316227766016838</speed>
  <fix>3d</fix>
</trkpt>
<trkpt lat="40.0713749" lon="-105.229789">
  <ele>1583.0</ele>
  <time>2026-08-28T17:56:09Z</time>
  <course>0.0</course>
  <speed>0.0</speed>
  <fix>3d</fix>
</trkpt>
<trkpt lat="40.0713749" lon="-105.229789">
  <ele>1583.0</ele>
  <time>2026-08-28T17:56:09Z</time>
  <course>247.74</course>
  <speed>0.0316227766016838</speed>
  <fix>3d</fix>
</trkpt>
<trkpt lat="40.0713749" lon="-105.229789">
  <ele>1583.0</ele>
  <time>2026-08-28T17:56:09Z</time>
  <course>0.0</course>
  <speed>0.0</speed>
  <fix>3d</fix>
</trkpt>
<trkpt lat="40.0713749" lon="-105.229789">
  <ele>1583.0</ele>
  <time>2026-08-28T17:56:09Z</time>
  <course>247.74</course>
  <speed>0.0316227766016838</speed>
  <fix>3d</fix>
</trkpt>
<trkpt lat="40.0713749" lon="-105.229789">
  <ele>1583.0</ele>
  <time>2026-08-28T17:56:09Z</time>
  <course>0.0</course>
  <speed>0.0</speed>
  <fix>3d</fix>
</trkpt>
<trkpt lat="40.0713749" lon="-105.229789">
  <ele>1583.0</ele>
  <time>2026-08-28T17:56:09Z</time>
  <course>247.73</course>
  <speed>0.0316227766016838</speed>
  <fix>3d</fix>
</trkpt>
<trkpt lat="40.0713749" lon="-105.229789">
  <ele>1583.0</ele>
  <time>2026-08-28T17:56:09Z</time>
  <course>0.0</course>
  <speed>0.0</speed>
  <fix>3d</fix>
</trkpt>
<trkpt lat="40.0713749" lon="-105.229789">
  <ele>1583.0</ele>
  <time>2026-08-28T17:56:09Z</time>
  <course>247.73</course>
  <speed>0.0316227766016838</speed>
  <fix>3d</fix>
</trkpt>
<trkpt lat="40.0713749" lon="-105.229789">
  <ele>1583.0</ele>
  <time>2026-08-28T17:56:09Z</time>
  <course>0.0</course>
  <speed>0.0</speed>
  <fix>3d</fix>
</trkpt>
<trkpt lat="40.0713749" lon="-105.229789">
  <ele>1583.0</ele>
  <time>2026-08-28T17:56:09Z</time>
  <course>247.73</course>
  <speed>0.0316227766016838</speed>
  <fix>3d</fix>
</trkpt>
<trkpt lat="40.0713749" lon="-105.229789">
  <ele>1583.0</ele>
  <time>2026-08-28T17:56:09Z</time>
  <course>0.0</course>
  <speed>0.0</speed>
  <fix>3d</fix>
</trkpt>
<trkpt lat="40.0713749" lon="-105.229789">
  <ele>1583.0</ele>
  <time>2026-08-28T17:56:09Z</time>
  <course>247.72</course>
  <speed>0.0316227766016838</speed>
  <fix>3d</fix>
</trkpt>
<trkpt lat="40.0713749" lon="-105.229789">
  <ele>1583.0</ele>
  <time>2026-08-28T17:56:09Z</time>
  <course>0.0</course>
  <speed>0.0</speed>
  <fix>3d</fix>
</trkpt>
<trkpt lat="40.0713749" lon="-105.229789">
  <ele>1583.0</ele>
  <time>2026-08-28T17:56:09Z</time>
  <course>247.72</course>
  <speed>0.0316227766016838</speed>
  <fix>3d</fix>
</trkpt>
<trkpt lat="40.0713749" lon="-105.229789">
  <ele>1583.0</ele>
  <time>2026-08-28T17:56:09Z</time>
  <course>0.0</course>
  <speed>0.0</speed>
  <fix>3d</fix>
</trkpt>
<trkpt lat="40.0713749" lon="-105.229789">
  <ele>1583.0</ele>
  <time>2026-08-28T17:56:09Z</time>
  <course>247.72</course>
  <speed>0.0316227766016838</speed>
  <fix>3d</fix>
</trkpt>
<trkpt lat="40.0713749" lon="-105.229789">
  <ele>1583.0</ele>
  <time>2026-08-28T17:56:09Z</time>
  <course>0.0</course>
  <speed>0.0</speed>
  <fix>3d</fix>
</trkpt>
<trkpt lat="40.0713749" lon="-105.229789">
  <ele>1583.0</ele>
  <time>2026-08-28T17:56:09Z</time>
  <course>247.71</course>
  <speed>0.0316227766016838</speed>
  <fix>3d</fix>
</trkpt>
<trkpt lat="40.0713749" lon="-105.229789">
  <ele>1583.0</ele>
  <time>2026-08-28T17:56:09Z</time>
  <course>0.0</course>
  <speed>0.0</speed>
  <fix>3d</fix>
</trkpt>
<trkpt lat="40.0713749" lon="-105.229789">
  <ele>1583.0</ele>
  <time>2026-08-28T17:56:09Z</time>
  <course>247.71</course>
  <speed>0.0316227766016838</speed>
  <fix>3d</fix>
</trkpt>
<trkpt lat="40.0713749" lon="-105.229789">
  <ele>1583.0</ele>
  <time>2026-08-28T17:56:09Z</time>
  <course>0.0</course>
  <speed>0.0</speed>
  <fix>3d</fix>
</trkpt>
<trkpt lat="40.0713749" lon="-105.229789">
  <ele>1583.0</ele>
  <time>2026-08-28T17:56:09Z</time>
  <course>247.71</course>
  <speed>0.0316227766016838</speed>
  <fix>3d</fix>
</trkpt>
<trkpt lat="40.0713749" lon="-105.229789">
  <ele>1583.0</ele>
  <time>2026-08-28T17:56:09Z</time>
  <course>0.0</course>
  <speed>0.0</speed>
  <fix>3d</fix>
</trkpt>
<trkpt lat="40.0713749" lon="-105.229789">
  <ele>1583.0</ele>
  <time>2026-08-28T17:56:09Z</time>
  <course>247.7</course>
  <speed>0.0316227766016838</speed>
  <fix>3d</fix>
</trkpt>
<trkpt lat="40.0713749" lon="-105.229789">
  <ele>1583.0</ele>
  <time>2026-08-28T17:56:09Z</time>
  <course>0.0</course>
  <speed>0.0</speed>
  <fix>3d</fix>
</trkpt>
<trkpt lat="40.0713749" lon="-105.229789">
  <ele>1583.0</ele>
  <time>2026-08-28T17:56:09Z</time>
  <course>247.7</course>
  <speed>0.0316227766016838</speed>
  <fix>3d</fix>
</trkpt>
<trkpt lat="40.0713749" lon="-105.229789">
  <ele>1583.0</ele>
  <time>2026-08-28T17:56:09Z</time>
  <course>0.0</course>
  <speed>0.0</speed>
  <fix>3d</fix>
</trkpt>
<trkpt lat="40.0713749" lon="-105.229789">
  <ele>1583.0</ele>
  <time>2026-08-28T17:56:09Z</time>
  <course>247.7</course>
  <speed>0.0316227766016838</speed>
  <fix>3d</fix>
</trkpt>
<trkpt lat="40.0713749" lon="-105.229789">
  <ele>1583.0</ele>
  <time>2026-08-28T17:56:09Z</time>
  <course>0.0</course>
  <speed>0.0</speed>
  <fix>3d</fix>
</trkpt>
<trkpt lat="40.0713749" lon="-105.229789">
  <ele>1583.0</ele>
  <time>2026-08-28T17:56:09Z</time>
  <course>247.69</course>
  <speed>0.0316227766016838</speed>
  <fix>3d</fix>
</trkpt>
<trkpt lat="40.0713749" lon="-105.229789">
  <ele>1583.0</ele>
  <time>2026-08-28T17:56:09Z</time>
  <course>0.0</course>
  <speed>0.0</speed>
  <fix>3d</fix>
</trkpt>
<trkpt lat="40.0713749" lon="-105.229789">
  <ele>1583.0</ele>
  <time>2026-08-28T17:56:09Z</time>
  <course>247.69</course>
  <speed>0.0316227766016838</speed>
  <fix>3d</fix>
</trkpt>
<trkpt lat="40.0713749" lon="-105.229789">
  <ele>1583.0</ele>
  <time>2026-08-28T17:56:09Z</time>
  <course>0.0</course>
  <speed>0.0</speed>
  <fix>3d</fix>
</trkpt>
<trkpt lat="40.0713749" lon="-105.229789">
  <ele>1583.0</ele>
  <time>2026-08-28T17:56:09Z</time>
  <course>247.69</course>
  <speed>0.0316227766016838</speed>
  <fix>3d</fix>
</trkpt>
<trkpt lat="40.0713749" lon="-105.229789">
  <ele>1583.0</ele>
  <time>2026-08-28T17:56:09Z</time>
  <course>0.0</course>
  <speed>0.0</speed>
  <fix>3d</fix>
</trkpt>
<trkpt lat="40.0713749" lon="-105.229789">
  <ele>1583.0</ele>
  <time>2026-08-28T17:56:09Z</time>
  <course>247.68</course>
  <speed>0.0316227766016838</speed>
  <fix>3d</fix>
</trkpt>
<trkpt lat="40.0713749" lon="-105.229789">
  <ele>1583.0</ele>
  <time>2026-08-28T17:56:09Z</time>
  <course>0.0</course>
  <speed>0.0</speed>
  <fix>3d</fix>
</trkpt>
<trkpt lat="40.0713749" lon="-105.229789">
  <ele>1583.0</ele>
  <time>2026-08-28T17:56:09Z</time>
  <course>247.68</course>
  <speed>0.0316227766016838</speed>
  <fix>3d</fix>
</trkpt>
<trkpt lat="40.0713749" lon="-105.229789">
  <ele>1583.0</ele>
  <time>2026-08-28T17:56:09Z</time>
  <course>0.0</course>
  <speed>0.0</speed>
  <fix>3d</fix>
</trkpt>
<trkpt lat="40.0713749" lon="-105.229789">
  <ele>1583.0</ele>
  <time>2026-08-28T17:56:09Z</time>
  <course>247.68</course>
  <speed>0.0316227766016838</speed>
  <fix>3d</fix>
</trkpt>
<trkpt lat="40.0713749" lon="-105.229789">
  <ele>1583.0</ele>
  <time>2026-08-28T17:56:09Z</time>
  <course>0.0</course>
  <speed>0.0</speed>
  <fix>3d</fix>
</trkpt>
<trkpt lat="40.0713749" lon="-105.229789">
  <ele>1583.0</ele>
  <time>2026-08-28T17:56:09Z</time>
  <course>247.67</course>
  <speed>0.0316227766016838</speed>
  <fix>3d</fix>
</trkpt>
<trkpt lat="40.0713749" lon="-105.229789">
  <ele>1583.0</ele>
  <time>2026-08-28T17:56:09Z</time>
  <course>0.0</course>
  <speed>0.0</speed>
  <fix>3d</fix>
</trkpt>
<trkpt lat="40.0713749" lon="-105.229789">
  <ele>1583.0</ele>
  <time>2026-08-28T17:56:09Z</time>
  <course>247.67</course>
  <speed>0.0316227766016838</speed>
  <fix>3d</fix>
</trkpt>
<trkpt lat="40.0713749" lon="-105.229789">
  <ele>1583.0</ele>
  <time>2026-08-28T17:56:09Z</time>
  <course>0.0</course>
  <speed>0.0</speed>
  <fix>3d</fix>
</trkpt>
<trkpt lat="40.0713749" lon="-105.229789">
  <ele>1583.0</ele>
  <time>2026-08-28T17:56:09Z</time>
  <course>247.67</course>
  <speed>0.0316227766016838</speed>
  <fix>3d</fix>
</trkpt>
<trkpt lat="40.0713749" lon="-105.229789">
  <ele>1583.0</ele>
  <time>2026-08-28T17:56:09Z</time>
  <course>0.0</course>
  <speed>0.0</speed>
  <fix>3d</fix>
</trkpt>
<trkpt lat="40.0713749" lon="-105.229789">
  <ele>1583.0</ele>
  <time>2026-08-28T17:56:09Z</time>
  <course>247.66</course>
  <speed>0.0316227766016838</speed>
  <fix>3d</fix>
</trkpt>
<trkpt lat="40.0713749" lon="-105.229789">
  <ele>1583.0</ele>
  <time>2026-08-28T17:56:09Z</time>
  <course>0.0</course>
  <speed>0.0</speed>
  <fix>3d</fix>
</trkpt>
<trkpt lat="40.0713749" lon="-105.229789">
  <ele>1583.0</ele>
  <time>2026-08-28T17:56:09Z</time>
  <course>247.66</course>
  <speed>0.0316227766016838</speed>
  <fix>3d</fix>
</trkpt>
<trkpt lat="40.0713749" lon="-105.229789">
  <ele>1583.0</ele>
  <time>2026-08-28T17:56:09Z</time>
  <course>0.0</course>
  <speed>0.0</speed>
  <fix>3d</fix>
</trkpt>
<trkpt lat="40.0713749" lon="-105.229789">
  <ele>1583.0</ele>
  <time>2026-08-28T17:56:09Z</time>
  <course>247.66</course>
  <speed>0.0316227766016838</speed>
  <fix>3d</fix>
</trkpt>
<trkpt lat="40.0713749" lon="-105.229789">
  <ele>1583.0</ele>
  <time>2026-08-28T17:56:09Z</time>
  <course>0.0</course>
  <speed>0.0</speed>
  <fix>3d</fix>
</trkpt>
<trkpt lat="40.0713749" lon="-105.229789">
  <ele>1583.0</ele>
  <time>2026-08-28T17:56:09Z</time>
  <course>247.65</course>
  <speed>0.0316227766016838</speed>
  <fix>3d</fix>
</trkpt>
<trkpt lat="40.0713749" lon="-105.229789">
  <ele>1583.0</ele>
  <time>2026-08-28T17:56:09Z</time>
  <course>0.0</course>
  <speed>0.0</speed>
  <fix>3d</fix>
</trkpt>
<trkpt lat="40.0713749" lon="-105.229789">
  <ele>1583.0</ele>
  <time>2026-08-28T17:56:09Z</time>
  <course>247.65</course>
  <speed>0.0316227766016838</speed>
  <fix>3d</fix>
</trkpt>
<trkpt lat="40.0713749" lon="-105.229789">
  <ele>1583.0</ele>
  <time>2026-08-28T17:56:09Z</time>
  <course>0.0</course>
  <speed>0.0</speed>
  <fix>3d</fix>
</trkpt>
<trkpt lat="40.0713749" lon="-105.229789">
  <ele>1583.0</ele>
  <time>2026-08-28T17:56:09Z</time>
  <course>247.65</course>
  <speed>0.0316227766016838</speed>
  <fix>3d</fix>
</trkpt>
<trkpt lat="40.0713749" lon="-105.229789">
  <ele>1583.0</ele>
  <time>2026-08-28T17:56:09Z</time>
  <course>0.0</course>
  <speed>0.0</speed>
  <fix>3d</fix>
</trkpt>
<trkpt lat="40.0713749" lon="-105.229789">
  <ele>1583.0</ele>
  <time>2026-08-28T17:56:09Z</time>
  <course>247.64</course>
  <speed>0.0316227766016838</speed>
  <fix>3d</fix>
</trkpt>
<trkpt lat="40.0713749" lon="-105.229789">
  <ele>1583.0</ele>
  <time>2026-08-28T17:56:09Z</time>
  <course>0.0</course>
  <speed>0.0</speed>
  <fix>3d</fix>
</trkpt>
<trkpt lat="40.0713749" lon="-105.229789">
  <ele>1583.0</ele>
  <time>2026-08-28T17:56:09Z</time>
  <course>247.64</course>
  <speed>0.0316227766016838</speed>
  <fix>3d</fix>
</trkpt>
<trkpt lat="40.0713749" lon="-105.229789">
  <ele>1583.0</ele>
  <time>2026-08-28T17:56:09Z</time>
  <course>0.0</course>
  <speed>0.0</speed>
  <fix>3d</fix>
</trkpt>
<trkpt lat="40.0713749" lon="-105.229789">
  <ele>1583.0</ele>
  <time>2026-08-28T17:56:09Z</time>
  <course>247.64</course>
  <speed>0.0316227766016838</speed>
  <fix>3d</fix>
</trkpt>
<trkpt lat="40.0713749" lon="-105.229789">
  <ele>1583.0</ele>
  <time>2026-08-28T17:56:09Z</time>
  <course>0.0</course>
  <speed>0.0</speed>
  <fix>3d</fix>
</trkpt>
<trkpt lat="40.0713749" lon="-105.229789">
  <ele>1583.0</ele>
  <time>2026-08-28T17:56:09Z</time>
  <course>247.64</course>
  <speed>0.0316227766016838</speed>
  <fix>3d</fix>
</trkpt>
<trkpt lat="40.0713749" lon="-105.229789">
  <ele>1583.0</ele>
  <time>2026-08-28T17:56:09Z</time>
  <course>0.0</course>
  <speed>0.0</speed>
  <fix>3d</fix>
</trkpt>
<trkpt lat="40.0713749" lon="-105.229789">
  <ele>1583.0</ele>
  <time>2026-08-28T17:56:09Z</time>
  <course>247.63</course>
  <speed>0.0316227766016838</speed>
  <fix>3d</fix>
</trkpt>
<trkpt lat="40.0713749" lon="-105.229789">
  <ele>1583.0</ele>
  <time>2026-08-28T17:56:09Z</time>
  <course>0.0</course>
  <speed>0.0</speed>
  <fix>3d</fix>
</trkpt>
<trkpt lat="40.0713749" lon="-105.229789">
  <ele>1583.0</ele>
  <time>2026-08-28T17:56:09Z</time>
  <course>247.63</course>
  <speed>0.0316227766016838</speed>
  <fix>3d</fix>
</trkpt>
<trkpt lat="40.0713749" lon="-105.229789">
  <ele>1583.0</ele>
  <time>2026-08-28T17:56:09Z</time>
  <course>0.0</course>
  <speed>0.0</speed>
  <fix>3d</fix>
</trkpt>
<trkpt lat="40.0713749" lon="-105.229789">
  <ele>1583.0</ele>
  <time>2026-08-28T17:56:09Z</time>
  <course>247.63</course>
  <speed>0.0316227766016838</speed>
  <fix>3d</fix>
</trkpt>
<trkpt lat="40.0713749" lon="-105.229789">
  <ele>1583.0</ele>
  <time>2026-08-28T17:56:09Z</time>
  <course>0.0</course>
  <speed>0.0</speed>
  <fix>3d</fix>
</trkpt>
<trkpt lat="40.0713749" lon="-105.229789">
  <ele>1583.0</ele>
  <time>2026-08-28T17:56:09Z</time>
  <course>247.62</course>
  <speed>0.0316227766016838</speed>
  <fix>3d</fix>
</trkpt>
<trkpt lat="40.0713749" lon="-105.229789">
  <ele>1583.0</ele>
  <time>2026-08-28T17:56:09Z</time>
  <course>0.0</course>
  <speed>0.0</speed>
  <fix>3d</fix>
</trkpt>
<trkpt lat="40.0713749" lon="-105.229789">
  <ele>1583.0</ele>
  <time>2026-08-28T17:56:09Z</time>
  <course>247.62</course>
  <speed>0.0316227766016838</speed>
  <fix>3d</fix>
</trkpt>
<trkpt lat="40.0713749" lon="-105.229789">
  <ele>1583.0</ele>
  <time>2026-08-28T17:56:09Z</time>
  <course>0.0</course>
  <speed>0.0</speed>
  <fix>3d</fix>
</trkpt>
<trkpt lat="40.0713749" lon="-105.229789">
  <ele>1583.0</ele>
  <time>2026-08-28T17:56:09Z</time>
  <course>247.62</course>
  <speed>0.0316227766016838</speed>
  <fix>3d</fix>
</trkpt>
<trkpt lat="40.0713749" lon="-105.229789">
  <ele>1583.0</ele>
  <time>2026-08-28T17:56:09Z</time>
  <course>0.0</course>
  <speed>0.0</speed>
  <fix>3d</fix>
</trkpt>
<trkpt lat="40.0713749" lon="-105.229789">
  <ele>1583.0</ele>
  <time>2026-08-28T17:56:09Z</time>
  <course>247.62</course>
  <speed>0.0316227766016838</speed>
  <fix>3d</fix>
</trkpt>
<trkpt lat="40.0713749" lon="-105.229789">
  <ele>1583.0</ele>
  <time>2026-08-28T17:56:09Z</time>
  <course>0.0</course>
  <speed>0.0</speed>
  <fix>3d</fix>
</trkpt>
<trkpt lat="40.0713749" lon="-105.229789">
  <ele>1583.0</ele>
  <time>2026-08-28T17:56:09Z</time>
  <course>247.61</course>
  <speed>0.0316227766016838</speed>
  <fix>3d</fix>
</trkpt>
<trkpt lat="40.0713749" lon="-105.229789">
  <ele>1583.0</ele>
  <time>2026-08-28T17:56:09Z</time>
  <course>0.0</course>
  <speed>0.0</speed>
  <fix>3d</fix>
</trkpt>
<trkpt lat="40.0713749" lon="-105.229789">
  <ele>1583.0</ele>
  <time>2026-08-28T17:56:09Z</time>
  <course>247.61</course>
  <speed>0.0316227766016838</speed>
  <fix>3d</fix>
</trkpt>
<trkpt lat="40.0713749" lon="-105.229789">
  <ele>1583.0</ele>
  <time>2026-08-28T17:56:09Z</time>
  <course>0.0</course>
  <speed>0.0</speed>
  <fix>3d</fix>
</trkpt>
<trkpt lat="40.0713749" lon="-105.229789">
  <ele>1583.0</ele>
  <time>2026-08-28T17:56:09Z</time>
  <course>247.61</course>
  <speed>0.0316227766016838</speed>
  <fix>3d</fix>
</trkpt>
<trkpt lat="40.0713749" lon="-105.229789">
  <ele>1583.0</ele>
  <time>2026-08-28T17:56:09Z</time>
  <course>0.0</course>
  <speed>0.0</speed>
  <fix>3d</fix>
</trkpt>
<trkpt lat="40.0713749" lon="-105.229789">
  <ele>1583.0</ele>
  <time>2026-08-28T17:56:09Z</time>
  <course>247.6</course>
  <speed>0.0316227766016838</speed>
  <fix>3d</fix>
</trkpt>
<trkpt lat="40.0713749" lon="-105.229789">
  <ele>1583.0</ele>
  <time>2026-08-28T17:56:09Z</time>
  <course>0.0</course>
  <speed>0.0</speed>
  <fix>3d</fix>
</trkpt>
<trkpt lat="40.0713749" lon="-105.229789">
  <ele>1583.0</ele>
  <time>2026-08-28T17:56:09Z</time>
  <course>247.6</course>
  <speed>0.0316227766016838</speed>
  <fix>3d</fix>
</trkpt>
<trkpt lat="40.0713749" lon="-105.229789">
  <ele>1583.0</ele>
  <time>2026-08-28T17:56:09Z</time>
  <course>0.0</course>
  <speed>0.0</speed>
  <fix>3d</fix>
</trkpt>
<trkpt lat="40.0713749" lon="-105.229789">
  <ele>1583.0</ele>
  <time>2026-08-28T17:56:09Z</time>
  <course>247.6</course>
  <speed>0.0316227766016838</speed>
  <fix>3d</fix>
</trkpt>
<trkpt lat="40.0713749" lon="-105.229789">
  <ele>1583.0</ele>
  <time>2026-08-28T17:56:09Z</time>
  <course>0.0</course>
  <speed>0.0</speed>
  <fix>3d</fix>
</trkpt>
<trkpt lat="40.0713749" lon="-105.229789">
  <ele>1583.0</ele>
  <time>2026-08-28T17:56:09Z</time>
  <course>247.6</course>
  <speed>0.0316227766016838</speed>
  <fix>3d</fix>
</trkpt>
<trkpt lat="40.0713749" lon="-105.229789">
  <ele>1583.0</ele>
  <time>2026-08-28T17:56:09Z</time>
  <course>0.0</course>
  <speed>0.0</speed>
  <fix>3d</fix>
</trkpt>
<trkpt lat="40.0713749" lon="-105.229789">
  <ele>1583.0</ele>
  <time>2026-08-28T17:56:09Z</time>
  <course>247.59</course>
  <speed>0.0316227766016838</speed>
  <fix>3d</fix>
</trkpt>
<trkpt lat="40.0713749" lon="-105.229789">
  <ele>1583.0</ele>
  <time>2026-08-28T17:56:09Z</time>
  <course>0.0</course>
  <speed>0.0</speed>
  <fix>3d</fix>
</trkpt>
<trkpt lat="40.0713749" lon="-105.229789">
  <ele>1582.92</ele>
  <time>2026-08-28T17:56:09Z</time>
  <course>247.59</course>
  <speed>0.0</speed>
  <fix>3d</fix>
</trkpt>
<trkpt lat="40.0713749" lon="-105.229789">
  <ele>1583.0</ele>
  <time>2026-08-28T17:56:09Z</time>
  <course>0.0</course>
  <speed>0.0</speed>
  <fix>3d</fix>
</trkpt>
<trkpt lat="40.0713749" lon="-105.229789">
  <ele>1582.92</ele>
  <time>2026-08-28T17:56:09Z</time>
  <course>247.59</course>
  <speed>0.0</speed>
  <fix>3d</fix>
</trkpt>
<trkpt lat="40.0713749" lon="-105.229789">
  <ele>1583.0</ele>
  <time>2026-08-28T17:56:09Z</time>
  <course>0.0</course>
  <speed>0.0</speed>
  <fix>3d</fix>
</trkpt>
<trkpt lat="40.0713749" lon="-105.229789">
  <ele>1582.91</ele>
  <time>2026-08-28T17:56:09Z</time>
  <course>247.58</course>
  <speed>0.0</speed>
  <fix>3d</fix>
</trkpt>
<trkpt lat="40.0713749" lon="-105.229789">
  <ele>1583.0</ele>
  <time>2026-08-28T17:56:09Z</time>
  <course>0.0</course>
  <speed>0.0</speed>
  <fix>3d</fix>
</trkpt>
<trkpt lat="40.0713749" lon="-105.229789">
  <ele>1582.91</ele>
  <time>2026-08-28T17:56:09Z</time>
  <course>247.58</course>
  <speed>0.0</speed>
  <fix>3d</fix>
</trkpt>
<trkpt lat="40.0713749" lon="-105.229789">
  <ele>1583.0</ele>
  <time>2026-08-28T17:56:09Z</time>
  <course>0.0</course>
  <speed>0.0</speed>
  <fix>3d</fix>
</trkpt>
<trkpt lat="40.0713749" lon="-105.229789">
  <ele>1582.9</ele>
  <time>2026-08-28T17:56:09Z</time>
  <course>247.58</course>
  <speed>0.0</speed>
  <fix>3d</fix>
</trkpt>
<trkpt lat="40.0713749" lon="-105.229789">
  <ele>1583.0</ele>
  <time>2026-08-28T17:56:09Z</time>
  <course>0.0</course>
  <speed>0.0</speed>
  <fix>3d</fix>
</trkpt>
<trkpt lat="40.0713749" lon="-105.229789">
  <ele>1582.9</ele>
  <time>2026-08-28T17:56:09Z</time>
  <course>247.58</course>
  <speed>0.0</speed>
  <fix>3d</fix>
</trkpt>
<trkpt lat="40.0713749" lon="-105.229789">
  <ele>1583.0</ele>
  <time>2026-08-28T17:56:09Z</time>
  <course>0.0</course>
  <speed>0.0</speed>
  <fix>3d</fix>
</trkpt>
<trkpt lat="40.0713749" lon="-105.229789">
  <ele>1582.9</ele>
  <time>2026-08-28T17:56:09Z</time>
  <course>247.57</course>
  <speed>0.0</speed>
  <fix>3d</fix>
</trkpt>
<trkpt lat="40.0713749" lon="-105.229789">
  <ele>1583.0</ele>
  <time>2026-08-28T17:56:09Z</time>
  <course>0.0</course>
  <speed>0.0</speed>
  <fix>3d</fix>
</trkpt>
<trkpt lat="40.0713749" lon="-105.229789">
  <ele>1582.9</ele>
  <time>2026-08-28T17:56:09Z</time>
  <course>247.57</course>
  <speed>0.0</speed>
  <fix>3d</fix>
</trkpt>
<trkpt lat="40.0713749" lon="-105.229789">
  <ele>1583.0</ele>
  <time>2026-08-28T17:56:09Z</time>
  <course>0.0</course>
  <speed>0.0</speed>
  <fix>3d</fix>
</trkpt>
<trkpt lat="40.0713749" lon="-105.229789">
  <ele>1582.9</ele>
  <time>2026-08-28T17:56:09Z</time>
  <course>247.57</course>
  <speed>0.0</speed>
  <fix>3d</fix>
</trkpt>
<trkpt lat="40.0713749" lon="-105.229789">
  <ele>1583.0</ele>
  <time>2026-08-28T17:56:09Z</time>
  <course>0.0</course>
  <speed>0.0</speed>
  <fix>3d</fix>
</trkpt>
<trkpt lat="40.0713749" lon="-105.229789">
  <ele>1582.9</ele>
  <time>2026-08-28T17:56:09Z</time>
  <course>247.57</course>
  <speed>0.01</speed>
  <fix>3d</fix>
</trkpt>
<trkpt lat="40.0713749" lon="-105.229789">
  <ele>1583.0</ele>
  <time>2026-08-28T17:56:09Z</time>
  <course>0.0</course>
  <speed>0.0</speed>
  <fix>3d</fix>
</trkpt>
<trkpt lat="40.0713749" lon="-105.229789">
  <ele>1582.9</ele>
  <time>2026-08-28T17:56:09Z</time>
  <course>247.56</course>
  <speed>0.01</speed>
  <fix>3d</fix>
</trkpt>
<trkpt lat="40.0713749" lon="-105.229789">
  <ele>1583.0</ele>
  <time>2026-08-28T17:56:09Z</time>
  <course>0.0</course>
  <speed>0.0</speed>
  <fix>3d</fix>
</trkpt>
<trkpt lat="40.0713749" lon="-105.229789">
  <ele>1582.91</ele>
  <time>2026-08-28T17:56:09Z</time>
  <course>247.56</course>
  <speed>0.01</speed>
  <fix>3d</fix>
</trkpt>
<trkpt lat="40.0713749" lon="-105.229789">
  <ele>1583.0</ele>
  <time>2026-08-28T17:56:09Z</time>
  <course>0.0</course>
  <speed>0.0</speed>
  <fix>3d</fix>
</trkpt>
<trkpt lat="40.0713749" lon="-105.229789">
  <ele>1582.91</ele>
  <time>2026-08-28T17:56:09Z</time>
  <course>247.56</course>
  <speed>0.01</speed>
  <fix>3d</fix>
</trkpt>
<trkpt lat="40.0713749" lon="-105.229789">
  <ele>1583.0</ele>
  <time>2026-08-28T17:56:09Z</time>
  <course>0.0</course>
  <speed>0.0</speed>
  <fix>3d</fix>
</trkpt>
<trkpt lat="40.0713749" lon="-105.229789">
  <ele>1582.92</ele>
  <time>2026-08-28T17:56:09Z</time>
  <course>247.56</course>
  <speed>0.01</speed>
  <fix>3d</fix>
</trkpt>
<trkpt lat="40.0713749" lon="-105.229789">
  <ele>1583.0</ele>
  <time>2026-08-28T17:56:09Z</time>
  <course>0.0</course>
  <speed>0.0</speed>
  <fix>3d</fix>
</trkpt>
<trkpt lat="40.0713749" lon="-105.229789">
  <ele>1582.92</ele>
  <time>2026-08-28T17:56:09Z</time>
  <course>247.55</course>
  <speed>0.01</speed>
  <fix>3d</fix>
</trkpt>
<trkpt lat="40.0713749" lon="-105.229789">
  <ele>1583.0</ele>
  <time>2026-08-28T17:56:09Z</time>
  <course>0.0</course>
  <speed>0.0</speed>
  <fix>3d</fix>
</trkpt>
<trkpt lat="39.655741" lon="-104.1383097">
  <ele>1566.58</ele>
  <time>2026-08-28T17:56:09Z</time>
  <course>0.0</course>
  <speed>0.0</speed>
  <fix>3d</fix>
</trkpt>
<trkpt lat="40.0713749" lon="-105.229789">
  <ele>1583.0</ele>
  <time>2026-08-28T17:56:09Z</time>
  <course>0.0</course>
  <speed>0.0</speed>
  <fix>3d</fix>
</trkpt>
<trkpt lat="40.0713749" lon="-105.229789">
  <ele>1583.0</ele>
  <time>2026-08-28T17:56:09Z</time>
  <course>238.36</course>
  <speed>0.0</speed>
  <fix>3d</fix>
</trkpt>
<trkpt lat="40.0713749" lon="-105.229789">
  <ele>1583.0</ele>
  <time>2026-08-28T17:56:09Z</time>
  <course>0.0</course>
  <speed>0.0</speed>
  <fix>3d</fix>
</trkpt>
<trkpt lat="40.0713749" lon="-105.229789">
  <ele>1583.0</ele>
  <time>2026-08-28T17:56:09Z</time>
  <course>238.44</course>
  <speed>0.0</speed>
  <fix>3d</fix>
</trkpt>
<trkpt lat="40.0713749" lon="-105.229789">
  <ele>1583.0</ele>
  <time>2026-08-28T17:56:09Z</time>
  <course>0.0</course>
  <speed>0.0</speed>
  <fix>3d</fix>
</trkpt>
<trkpt lat="40.0713749" lon="-105.229789">
  <ele>1583.0</ele>
  <time>2026-08-28T17:56:09Z</time>
  <course>238.64</course>
  <speed>0.0</speed>
  <fix>3d</fix>
</trkpt>
<trkpt lat="40.0713749" lon="-105.229789">
  <ele>1583.0</ele>
  <time>2026-08-28T17:56:09Z</time>
  <course>0.0</course>
  <speed>0.0</speed>
  <fix>3d</fix>
</trkpt>
<trkpt lat="40.0713749" lon="-105.229789">
  <ele>1583.0</ele>
  <time>2026-08-28T17:56:09Z</time>
  <course>238.93</course>
  <speed>0.0</speed>
  <fix>3d</fix>
</trkpt>
<trkpt lat="40.0713749" lon="-105.229789">
  <ele>1583.0</ele>
  <time>2026-08-28T17:56:09Z</time>
  <course>0.0</course>
  <speed>0.0</speed>
  <fix>3d</fix>
</trkpt>
<trkpt lat="40.0713749" lon="-105.229789">
  <ele>1583.0</ele>
  <time>2026-08-28T17:56:09Z</time>
  <course>239.26</course>
  <speed>0.0</speed>
  <fix>3d</fix>
</trkpt>
<trkpt lat="40.0713749" lon="-105.229789">
  <ele>1583.0</ele>
  <time>2026-08-28T17:56:09Z</time>
  <course>0.0</course>
  <speed>0.0</speed>
  <fix>3d</fix>
</trkpt>
<trkpt lat="40.0713749" lon="-105.229789">
  <ele>1583.0</ele>
  <time>2026-08-28T17:56:09Z</time>
  <course>239.61</course>
  <speed>0.0</speed>
  <fix>3d</fix>
</trkpt>
<trkpt lat="40.0713749" lon="-105.229789">
  <ele>1583.0</ele>
  <time>2026-08-28T17:56:09Z</time>
  <course>0.0</course>
  <speed>0.0</speed>
  <fix>3d</fix>
</trkpt>
<trkpt lat="40.0713749" lon="-105.229789">
  <ele>1583.0</ele>
  <time>2026-08-28T17:56:09Z</time>
  <course>239.96</course>
  <speed>0.0</speed>
  <fix>3d</fix>
</trkpt>
<trkpt lat="40.0713749" lon="-105.229789">
  <ele>1583.0</ele>
  <time>2026-08-28T17:56:09Z</time>
  <course>0.0</course>
  <speed>0.0</speed>
  <fix>3d</fix>
</trkpt>
<trkpt lat="40.0713749" lon="-105.229789">
  <ele>1583.0</ele>
  <time>2026-08-28T17:56:09Z</time>
  <course>240.29</course>
  <speed>0.0</speed>
  <fix>3d</fix>
</trkpt>
<trkpt lat="40.0713749" lon="-105.229789">
  <ele>1583.0</ele>
  <time>2026-08-28T17:56:09Z</time>
  <course>0.0</course>
  <speed>0.0</speed>
  <fix>3d</fix>
</trkpt>
<trkpt lat="40.0713749" lon="-105.229789">
  <ele>1583.0</ele>
  <time>2026-08-28T17:56:09Z</time>
  <course>240.61</course>
  <speed>0.0</speed>
  <fix>3d</fix>
</trkpt>
<trkpt lat="40.0713749" lon="-105.229789">
  <ele>1583.0</ele>
  <time>2026-08-28T17:56:09Z</time>
  <course>0.0</course>
  <speed>0.0</speed>
  <fix>3d</fix>
</trkpt>
<trkpt lat="40.0713749" lon="-105.229789">
  <ele>1583.0</ele>
  <time>2026-08-28T17:56:09Z</time>
  <course>240.92</course>
  <speed>0.0</speed>
  <fix>3d</fix>
</trkpt>
<trkpt lat="40.0713749" lon="-105.229789">
  <ele>1583.0</ele>
  <time>2026-08-28T17:56:09Z</time>
  <course>0.0</course>
  <speed>0.0</speed>
  <fix>3d</fix>
</trkpt>
<trkpt lat="40.0713749" lon="-105.229789">
  <ele>1583.0</ele>
  <time>2026-08-28T17:56:09Z</time>
  <course>241.21</course>
  <speed>0.0</speed>
  <fix>3d</fix>
</trkpt>
<trkpt lat="40.0713749" lon="-105.229789">
  <ele>1583.0</ele>
  <time>2026-08-28T17:56:09Z</time>
  <course>0.0</course>
  <speed>0.0</speed>
  <fix>3d</fix>
</trkpt>
<trkpt lat="40.0713749" lon="-105.229789">
  <ele>1583.0</ele>
  <time>2026-08-28T17:56:09Z</time>
  <course>241.49</course>
  <speed>0.0</speed>
  <fix>3d</fix>
</trkpt>
<trkpt lat="40.0713749" lon="-105.229789">
  <ele>1583.0</ele>
  <time>2026-08-28T17:56:09Z</time>
  <course>0.0</course>
  <speed>0.0</speed>
  <fix>3d</fix>
</trkpt>
<trkpt lat="40.0713749" lon="-105.229789">
  <ele>1583.0</ele>
  <time>2026-08-28T17:56:09Z</time>
  <course>241.77</course>
  <speed>0.0</speed>
  <fix>3d</fix>
</trkpt>
<trkpt lat="40.0713749" lon="-105.229789">
  <ele>1583.0</ele>
  <time>2026-08-28T17:56:09Z</time>
  <course>0.0</course>
  <speed>0.0</speed>
  <fix>3d</fix>
</trkpt>
<trkpt lat="40.0713749" lon="-105.229789">
  <ele>1583.0</ele>
  <time>2026-08-28T17:56:09Z</time>
  <course>242.03</course>
  <speed>0.0</speed>
  <fix>3d</fix>
</trkpt>
<trkpt lat="40.0713749" lon="-105.229789">
  <ele>1583.0</ele>
  <time>2026-08-28T17:56:09Z</time>
  <course>0.0</course>
  <speed>0.0</speed>
  <fix>3d</fix>
</trkpt>
<trkpt lat="40.0713749" lon="-105.229789">
  <ele>1583.0</ele>
  <time>2026-08-28T17:56:09Z</time>
  <course>242.29</course>
  <speed>0.0</speed>
  <fix>3d</fix>
</trkpt>
<trkpt lat="40.0713749" lon="-105.229789">
  <ele>1583.0</ele>
  <time>2026-08-28T17:56:09Z</time>
  <course>0.0</course>
  <speed>0.0</speed>
  <fix>3d</fix>
</trkpt>
<trkpt lat="40.0713749" lon="-105.229789">
  <ele>1583.0</ele>
  <time>2026-08-28T17:56:09Z</time>
  <course>242.54</course>
  <speed>0.0</speed>
  <fix>3d</fix>
</trkpt>
<trkpt lat="40.0713749" lon="-105.229789">
  <ele>1583.0</ele>
  <time>2026-08-28T17:56:09Z</time>
  <course>0.0</course>
  <speed>0.0</speed>
  <fix>3d</fix>
</trkpt>
<trkpt lat="40.0713749" lon="-105.229789">
  <ele>1583.0</ele>
  <time>2026-08-28T17:56:09Z</time>
  <course>242.79</course>
  <speed>0.0</speed>
  <fix>3d</fix>
</trkpt>
<trkpt lat="40.0713749" lon="-105.229789">
  <ele>1583.0</ele>
  <time>2026-08-28T17:56:09Z</time>
  <course>0.0</course>
  <speed>0.0</speed>
  <fix>3d</fix>
</trkpt>
<trkpt lat="40.0713749" lon="-105.229789">
  <ele>1583.0</ele>
  <time>2026-08-28T17:56:09Z</time>
  <course>243.02</course>
  <speed>0.0</speed>
  <fix>3d</fix>
</trkpt>
<trkpt lat="40.0713749" lon="-105.229789">
  <ele>1583.0</ele>
  <time>2026-08-28T17:56:09Z</time>
  <course>0.0</course>
  <speed>0.0</speed>
  <fix>3d</fix>
</trkpt>
<trkpt lat="40.0713749" lon="-105.229789">
  <ele>1583.0</ele>
  <time>2026-08-28T17:56:09Z</time>
  <course>243.25</course>
  <speed>0.0</speed>
  <fix>3d</fix>
</trkpt>
<trkpt lat="40.0713749" lon="-105.229789">
  <ele>1583.0</ele>
  <time>2026-08-28T17:56:09Z</time>
  <course>0.0</course>
  <speed>0.0</speed>
  <fix>3d</fix>
</trkpt>
<trkpt lat="40.0713749" lon="-105.229789">
  <ele>1583.0</ele>
  <time>2026-08-28T17:56:09Z</time>
  <course>243.47</course>
  <speed>0.0</speed>
  <fix>3d</fix>
</trkpt>
<trkpt lat="40.0713749" lon="-105.229789">
  <ele>1583.0</ele>
  <time>2026-08-28T17:56:09Z</time>
  <course>0.0</course>
  <speed>0.0</speed>
  <fix>3d</fix>
</trkpt>
<trkpt lat="40.0713749" lon="-105.229789">
  <ele>1583.0</ele>
  <time>2026-08-28T17:56:09Z</time>
  <course>243.68</course>
  <speed>0.0</speed>
  <fix>3d</fix>
</trkpt>
<trkpt lat="40.0713749" lon="-105.229789">
  <ele>1583.0</ele>
  <time>2026-08-28T17:56:09Z</time>
  <course>0.0</course>
  <speed>0.0</speed>
  <fix>3d</fix>
</trkpt>
<trkpt lat="40.0713749" lon="-105.229789">
  <ele>1583.0</ele>
  <time>2026-08-28T17:56:09Z</time>
  <course>243.89</course>
  <speed>0.0</speed>
  <fix>3d</fix>
</trkpt>
<trkpt lat="40.0713749" lon="-105.229789">
  <ele>1583.0</ele>
  <time>2026-08-28T17:56:09Z</time>
  <course>0.0</course>
  <speed>0.0</speed>
  <fix>3d</fix>
</trkpt>
<trkpt lat="40.0713749" lon="-105.229789">
  <ele>1583.0</ele>
  <time>2026-08-28T17:56:09Z</time>
  <course>244.09</course>
  <speed>0.0</speed>
  <fix>3d</fix>
</trkpt>
<trkpt lat="40.0713749" lon="-105.229789">
  <ele>1583.0</ele>
  <time>2026-08-28T17:56:09Z</time>
  <course>0.0</course>
  <speed>0.0</speed>
  <fix>3d</fix>
</trkpt>
<trkpt lat="40.0713749" lon="-105.229789">
  <ele>1583.0</ele>
  <time>2026-08-28T17:56:09Z</time>
  <course>244.28</course>
  <speed>0.0</speed>
  <fix>3d</fix>
</trkpt>
<trkpt lat="40.0713749" lon="-105.229789">
  <ele>1583.0</ele>
  <time>2026-08-28T17:56:09Z</time>
  <course>0.0</course>
  <speed>0.0</speed>
  <fix>3d</fix>
</trkpt>
<trkpt lat="40.0713749" lon="-105.229789">
  <ele>1583.0</ele>
  <time>2026-08-28T17:56:09Z</time>
  <course>244.46</course>
  <speed>0.0</speed>
  <fix>3d</fix>
</trkpt>
<trkpt lat="40.0713749" lon="-105.229789">
  <ele>1583.0</ele>
  <time>2026-08-28T17:56:09Z</time>
  <course>0.0</course>
  <speed>0.0</speed>
  <fix>3d</fix>
</trkpt>
<trkpt lat="40.0713749" lon="-105.229789">
  <ele>1583.0</ele>
  <time>2026-08-28T17:56:09Z</time>
  <course>244.64</course>
  <speed>0.0</speed>
  <fix>3d</fix>
</trkpt>
<trkpt lat="40.0713749" lon="-105.229789">
  <ele>1583.0</ele>
  <time>2026-08-28T17:56:09Z</time>
  <course>0.0</course>
  <speed>0.0</speed>
  <fix>3d</fix>
</trkpt>
<trkpt lat="40.0713749" lon="-105.229789">
  <ele>1583.0</ele>
  <time>2026-08-28T17:56:09Z</time>
  <course>244.81</course>
  <speed>0.0</speed>
  <fix>3d</fix>
</trkpt>
<trkpt lat="40.0713749" lon="-105.229789">
  <ele>1583.0</ele>
  <time>2026-08-28T17:56:09Z</time>
  <course>0.0</course>
  <speed>0.0</speed>
  <fix>3d</fix>
</trkpt>
<trkpt lat="40.0713749" lon="-105.229789">
  <ele>1583.0</ele>
  <time>2026-08-28T17:56:09Z</time>
  <course>244.97</course>
  <speed>0.0</speed>
  <fix>3d</fix>
</trkpt>
<trkpt lat="40.0713749" lon="-105.229789">
  <ele>1583.0</ele>
  <time>2026-08-28T17:56:09Z</time>
  <course>0.0</course>
  <speed>0.0</speed>
  <fix>3d</fix>
</trkpt>
<trkpt lat="40.0713749" lon="-105.229789">
  <ele>1583.0</ele>
  <time>2026-08-28T17:56:09Z</time>
  <course>245.13</course>
  <speed>0.0</speed>
  <fix>3d</fix>
</trkpt>
<trkpt lat="40.0713749" lon="-105.229789">
  <ele>1583.0</ele>
  <time>2026-08-28T17:56:09Z</time>
  <course>0.0</course>
  <speed>0.0</speed>
  <fix>3d</fix>
</trkpt>
<trkpt lat="40.0713749" lon="-105.229789">
  <ele>1583.0</ele>
  <time>2026-08-28T17:56:09Z</time>
  <course>245.29</course>
  <speed>0.0</speed>
  <fix>3d</fix>
</trkpt>
<trkpt lat="40.0713749" lon="-105.229789">
  <ele>1583.0</ele>
  <time>2026-08-28T17:56:09Z</time>
  <course>0.0</course>
  <speed>0.0</speed>
  <fix>3d</fix>
</trkpt>
<trkpt lat="40.0713749" lon="-105.229789">
  <ele>1583.0</ele>
  <time>2026-08-28T17:56:09Z</time>
  <course>245.43</course>
  <speed>0.0</speed>
  <fix>3d</fix>
</trkpt>
<trkpt lat="40.0713749" lon="-105.229789">
  <ele>1583.0</ele>
  <time>2026-08-28T17:56:09Z</time>
  <course>0.0</course>
  <speed>0.0</speed>
  <fix>3d</fix>
</trkpt>
<trkpt lat="40.0713749" lon="-105.229789">
  <ele>1583.0</ele>
  <time>2026-08-28T17:56:09Z</time>
  <course>245.57</course>
  <speed>0.0</speed>
  <fix>3d</fix>
</trkpt>
<trkpt lat="40.0713749" lon="-105.229789">
  <ele>1583.0</ele>
  <time>2026-08-28T17:56:09Z</time>
  <course>0.0</course>
  <speed>0.0</speed>
  <fix>3d</fix>
</trkpt>
<trkpt lat="40.0713749" lon="-105.229789">
  <ele>1583.0</ele>
  <time>2026-08-28T17:56:09Z</time>
  <course>245.71</course>
  <speed>0.0</speed>
  <fix>3d</fix>
</trkpt>
<trkpt lat="40.0713749" lon="-105.229789">
  <ele>1583.0</ele>
  <time>2026-08-28T17:56:09Z</time>
  <course>0.0</course>
  <speed>0.0</speed>
  <fix>3d</fix>
</trkpt>
<trkpt lat="40.0713749" lon="-105.229789">
  <ele>1583.0</ele>
  <time>2026-08-28T17:56:09Z</time>
  <course>245.84</course>
  <speed>0.0</speed>
  <fix>3d</fix>
</trkpt>
<trkpt lat="40.0713749" lon="-105.229789">
  <ele>1583.0</ele>
  <time>2026-08-28T17:56:09Z</time>
  <course>0.0</course>
  <speed>0.0</speed>
  <fix>3d</fix>
</trkpt>
<trkpt lat="40.0713749" lon="-105.229789">
  <ele>1583.0</ele>
  <time>2026-08-28T17:56:09Z</time>
  <course>245.96</course>
  <speed>0.0</speed>
  <fix>3d</fix>
</trkpt>
<trkpt lat="40.0713749" lon="-105.229789">
  <ele>1583.0</ele>
  <time>2026-08-28T17:56:09Z</time>
  <course>0.0</course>
  <speed>0.0</speed>
  <fix>3d</fix>
</trkpt>
<trkpt lat="40.0713749" lon="-105.229789">
  <ele>1583.0</ele>
  <time>2026-08-28T17:56:09Z</time>
  <course>246.08</course>
  <speed>0.0</speed>
  <fix>3d</fix>
</trkpt>
<trkpt lat="40.0713749" lon="-105.229789">
  <ele>1583.0</ele>
  <time>2026-08-28T17:56:09Z</time>
  <course>0.0</course>
  <speed>0.0</speed>
  <fix>3d</fix>
</trkpt>
<trkpt lat="40.0713749" lon="-105.229789">
  <ele>1583.0</ele>
  <time>2026-08-28T17:56:09Z</time>
  <course>246.19</course>
  <speed>0.0</speed>
  <fix>3d</fix>
</trkpt>
<trkpt lat="40.0713749" lon="-105.229789">
  <ele>1583.0</ele>
  <time>2026-08-28T17:56:09Z</time>
  <course>0.0</course>
  <speed>0.0</speed>
  <fix>3d</fix>
</trkpt>
<trkpt lat="40.0713749" lon="-105.229789">
  <ele>1583.0</ele>
  <time>2026-08-28T17:56:09Z</time>
  <course>246.3</course>
  <speed>0.0</speed>
  <fix>3d</fix>
</trkpt>
<trkpt lat="40.0713749" lon="-105.229789">
  <ele>1583.0</ele>
  <time>2026-08-28T17:56:09Z</time>
  <course>0.0</course>
  <speed>0.0</speed>
  <fix>3d</fix>
</trkpt>
<trkpt lat="40.0713749" lon="-105.229789">
  <ele>1583.0</ele>
  <time>2026-08-28T17:56:09Z</time>
  <course>246.41</course>
  <speed>0.0</speed>
  <fix>3d</fix>
</trkpt>
<trkpt lat="40.0713749" lon="-105.229789">
  <ele>1583.0</ele>
  <time>2026-08-28T17:56:09Z</time>
  <course>0.0</course>
  <speed>0.0</speed>
  <fix>3d</fix>
</trkpt>
<trkpt lat="40.0713749" lon="-105.229789">
  <ele>1583.0</ele>
  <time>2026-08-28T17:56:09Z</time>
  <course>246.51</course>
  <speed>0.0</speed>
  <fix>3d</fix>
</trkpt>
<trkpt lat="40.0713749" lon="-105.229789">
  <ele>1583.0</ele>
  <time>2026-08-28T17:56:09Z</time>
  <course>0.0</course>
  <speed>0.0</speed>
  <fix>3d</fix>
</trkpt>
<trkpt lat="40.0713749" lon="-105.229789">
  <ele>1583.0</ele>
  <time>2026-08-28T17:56:09Z</time>
  <course>246.6</course>
  <speed>0.0</speed>
  <fix>3d</fix>
</trkpt>
<trkpt lat="40.0713749" lon="-105.229789">
  <ele>1583.0</ele>
  <time>2026-08-28T17:56:09Z</time>
  <course>0.0</course>
  <speed>0.0</speed>
  <fix>3d</fix>
</trkpt>
<trkpt lat="40.0713749" lon="-105.229789">
  <ele>1583.0</ele>
  <time>2026-08-28T17:56:09Z</time>
  <course>246.7</course>
  <speed>0.0</speed>
  <fix>3d</fix>
</trkpt>
<trkpt lat="40.0713749" lon="-105.229789">
  <ele>1583.0</ele>
  <time>2026-08-28T17:56:09Z</time>
  <course>0.0</course>
  <speed>0.0</speed>
  <fix>3d</fix>
</trkpt>
<trkpt lat="40.0713749" lon="-105.229789">
  <ele>1583.0</ele>
  <time>2026-08-28T17:56:09Z</time>
  <course>246.78</course>
  <speed>0.0</speed>
  <fix>3d</fix>
</trkpt>
<trkpt lat="40.0713749" lon="-105.229789">
  <ele>1583.0</ele>
  <time>2026-08-28T17:56:09Z</time>
  <course>0.0</course>
  <speed>0.0</speed>
  <fix>3d</fix>
</trkpt>
<trkpt lat="40.0713749" lon="-105.229789">
  <ele>1583.0</ele>
  <time>2026-08-28T17:56:09Z</time>
  <course>246.87</course>
  <speed>0.0</speed>
  <fix>3d</fix>
</trkpt>
<trkpt lat="40.0713749" lon="-105.229789">
  <ele>1583.0</ele>
  <time>2026-08-28T17:56:09Z</time>
  <course>0.0</course>
  <speed>0.0</speed>
  <fix>3d</fix>
</trkpt>
<trkpt lat="40.0713749" lon="-105.229789">
  <ele>1583.0</ele>
  <time>2026-08-28T17:56:09Z</time>
  <course>246.95</course>
  <speed>0.0</speed>
  <fix>3d</fix>
</trkpt>
<trkpt lat="40.0713749" lon="-105.229789">
  <ele>1583.0</ele>
  <time>2026-08-28T17:56:09Z</time>
  <course>0.0</course>
  <speed>0.0</speed>
  <fix>3d</fix>
</trkpt>
<trkpt lat="40.0713749" lon="-105.229789">
  <ele>1583.0</ele>
  <time>2026-08-28T17:56:09Z</time>
  <course>247.02</course>
  <speed>0.0</speed>
  <fix>3d</fix>
</trkpt>
<trkpt lat="40.0713749" lon="-105.229789">
  <ele>1583.0</ele>
  <time>2026-08-28T17:56:09Z</time>
  <course>0.0</course>
  <speed>0.0</speed>
  <fix>3d</fix>
</trkpt>
<trkpt lat="40.0713749" lon="-105.229789">
  <ele>1583.0</ele>
  <time>2026-08-28T17:56:09Z</time>
  <course>247.1</course>
  <speed>0.0</speed>
  <fix>3d</fix>
</trkpt>
<trkpt lat="40.0713749" lon="-105.229789">
  <ele>1583.0</ele>
  <time>2026-08-28T17:56:09Z</time>
  <course>0.0</course>
  <speed>0.0</speed>
  <fix>3d</fix>
</trkpt>
<trkpt lat="40.0713749" lon="-105.229789">
  <ele>1583.0</ele>
  <time>2026-08-28T17:56:09Z</time>
  <course>247.17</course>
  <speed>0.0</speed>
  <fix>3d</fix>
</trkpt>
<trkpt lat="40.0713749" lon="-105.229789">
  <ele>1583.0</ele>
  <time>2026-08-28T17:56:09Z</time>
  <course>0.0</course>
  <speed>0.0</speed>
  <fix>3d</fix>
</trkpt>
<trkpt lat="40.0713749" lon="-105.229789">
  <ele>1583.0</ele>
  <time>2026-08-28T17:56:09Z</time>
  <course>247.24</course>
  <speed>0.0</speed>
  <fix>3d</fix>
</trkpt>
<trkpt lat="40.0713749" lon="-105.229789">
  <ele>1583.0</ele>
  <time>2026-08-28T17:56:09Z</time>
  <course>0.0</course>
  <speed>0.0</speed>
  <fix>3d</fix>
</trkpt>
<trkpt lat="40.0713749" lon="-105.229789">
  <ele>1583.0</ele>
  <time>2026-08-28T17:56:09Z</time>
  <course>247.3</course>
  <speed>0.0</speed>
  <fix>3d</fix>
</trkpt>
<trkpt lat="40.0713749" lon="-105.229789">
  <ele>1583.0</ele>
  <time>2026-08-28T17:56:09Z</time>
  <course>0.0</course>
  <speed>0.0</speed>
  <fix>3d</fix>
</trkpt>
<trkpt lat="40.0713749" lon="-105.229789">
  <ele>1583.0</ele>
  <time>2026-08-28T17:56:09Z</time>
  <course>247.36</course>
  <speed>0.0</speed>
  <fix>3d</fix>
</trkpt>
<trkpt lat="40.0713749" lon="-105.229789">
  <ele>1583.0</ele>
  <time>2026-08-28T17:56:09Z</time>
  <course>0.0</course>
  <speed>0.0</speed>
  <fix>3d</fix>
</trkpt>
<trkpt lat="40.0713749" lon="-105.229789">
  <ele>1583.0</ele>
  <time>2026-08-28T17:56:09Z</time>
  <course>247.42</course>
  <speed>0.0</speed>
  <fix>3d</fix>
</trkpt>
<trkpt lat="40.0713749" lon="-105.229789">
  <ele>1583.0</ele>
  <time>2026-08-28T17:56:09Z</time>
  <course>0.0</course>
  <speed>0.0</speed>
  <fix>3d</fix>
</trkpt>
<trkpt lat="40.0713749" lon="-105.229789">
  <ele>1583.0</ele>
  <time>2026-08-28T17:56:09Z</time>
  <course>247.47</course>
  <speed>0.0</speed>
  <fix>3d</fix>
</trkpt>
<trkpt lat="40.0713749" lon="-105.229789">
  <ele>1583.0</ele>
  <time>2026-08-28T17:56:09Z</time>
  <course>0.0</course>
  <speed>0.0</speed>
  <fix>3d</fix>
</trkpt>
<trkpt lat="40.0713749" lon="-105.229789">
  <ele>1583.0</ele>
  <time>2026-08-28T17:56:10Z</time>
  <course>247.53</course>
  <speed>0.0</speed>
  <fix>3d</fix>
</trkpt>
<trkpt lat="40.0713749" lon="-105.229789">
  <ele>1583.0</ele>
  <time>2026-08-28T17:56:10Z</time>
  <course>0.0</course>
  <speed>0.0</speed>
  <fix>3d</fix>
</trkpt>
<trkpt lat="40.0713749" lon="-105.229789">
  <ele>1583.0</ele>
  <time>2026-08-28T17:56:10Z</time>
  <course>247.58</course>
  <speed>0.0</speed>
  <fix>3d</fix>
</trkpt>
<trkpt lat="40.0713749" lon="-105.229789">
  <ele>1583.0</ele>
  <time>2026-08-28T17:56:10Z</time>
  <course>0.0</course>
  <speed>0.0</speed>
  <fix>3d</fix>
</trkpt>
<trkpt lat="40.0713749" lon="-105.229789">
  <ele>1583.0</ele>
  <time>2026-08-28T17:56:10Z</time>
  <course>247.63</course>
  <speed>0.0</speed>
  <fix>3d</fix>
</trkpt>
<trkpt lat="40.0713749" lon="-105.229789">
  <ele>1583.0</ele>
  <time>2026-08-28T17:56:10Z</time>
  <course>0.0</course>
  <speed>0.0</speed>
  <fix>3d</fix>
</trkpt>
<trkpt lat="40.0713749" lon="-105.229789">
  <ele>1583.0</ele>
  <time>2026-08-28T17:56:10Z</time>
  <course>247.67</course>
  <speed>0.0</speed>
  <fix>3d</fix>
</trkpt>
<trkpt lat="40.0713749" lon="-105.229789">
  <ele>1583.0</ele>
  <time>2026-08-28T17:56:10Z</time>
  <course>0.0</course>
  <speed>0.0</speed>
  <fix>3d</fix>
</trkpt>
<trkpt lat="40.0713749" lon="-105.229789">
  <ele>1583.0</ele>
  <time>2026-08-28T17:56:10Z</time>
  <course>247.72</course>
  <speed>0.0</speed>
  <fix>3d</fix>
</trkpt>
<trkpt lat="40.0713749" lon="-105.229789">
  <ele>1583.0</ele>
  <time>2026-08-28T17:56:10Z</time>
  <course>0.0</course>
  <speed>0.0</speed>
  <fix>3d</fix>
</trkpt>
<trkpt lat="40.0713749" lon="-105.229789">
  <ele>1583.0</ele>
  <time>2026-08-28T17:56:10Z</time>
  <course>247.76</course>
  <speed>0.0</speed>
  <fix>3d</fix>
</trkpt>
<trkpt lat="40.0713749" lon="-105.229789">
  <ele>1583.0</ele>
  <time>2026-08-28T17:56:10Z</time>
  <course>0.0</course>
  <speed>0.0</speed>
  <fix>3d</fix>
</trkpt>
<trkpt lat="40.0713749" lon="-105.229789">
  <ele>1583.0</ele>
  <time>2026-08-28T17:56:10Z</time>
  <course>247.8</course>
  <speed>0.0</speed>
  <fix>3d</fix>
</trkpt>
<trkpt lat="40.0713749" lon="-105.229789">
  <ele>1583.0</ele>
  <time>2026-08-28T17:56:10Z</time>
  <course>0.0</course>
  <speed>0.0</speed>
  <fix>3d</fix>
</trkpt>
<trkpt lat="40.0713749" lon="-105.229789">
  <ele>1583.0</ele>
  <time>2026-08-28T17:56:10Z</time>
  <course>247.83</course>
  <speed>0.0</speed>
  <fix>3d</fix>
</trkpt>
<trkpt lat="40.0713749" lon="-105.229789">
  <ele>1583.0</ele>
  <time>2026-08-28T17:56:10Z</time>
  <course>0.0</course>
  <speed>0.0</speed>
  <fix>3d</fix>
</trkpt>
<trkpt lat="40.0713749" lon="-105.229789">
  <ele>1583.0</ele>
  <time>2026-08-28T17:56:10Z</time>
  <course>247.87</course>
  <speed>0.0</speed>
  <fix>3d</fix>
</trkpt>
<trkpt lat="40.0713749" lon="-105.229789">
  <ele>1583.0</ele>
  <time>2026-08-28T17:56:10Z</time>
  <course>0.0</course>
  <speed>0.0</speed>
  <fix>3d</fix>
</trkpt>
<trkpt lat="40.0713749" lon="-105.229789">
  <ele>1583.0</ele>
  <time>2026-08-28T17:56:10Z</time>
  <course>247.9</course>
  <speed>0.0</speed>
  <fix>3d</fix>
</trkpt>
<trkpt lat="40.0713749" lon="-105.229789">
  <ele>1583.0</ele>
  <time>2026-08-28T17:56:10Z</time>
  <course>0.0</course>
  <speed>0.0</speed>
  <fix>3d</fix>
</trkpt>
<trkpt lat="40.0713749" lon="-105.229789">
  <ele>1583.0</ele>
  <time>2026-08-28T17:56:10Z</time>
  <course>247.94</course>
  <speed>0.0</speed>
  <fix>3d</fix>
</trkpt>
<trkpt lat="40.0713749" lon="-105.229789">
  <ele>1583.0</ele>
  <time>2026-08-28T17:56:10Z</time>
  <course>0.0</course>
  <speed>0.0</speed>
  <fix>3d</fix>
</trkpt>
<trkpt lat="40.0713749" lon="-105.229789">
  <ele>1583.0</ele>
  <time>2026-08-28T17:56:10Z</time>
  <course>247.97</course>
  <speed>0.0</speed>
  <fix>3d</fix>
</trkpt>
<trkpt lat="40.0713749" lon="-105.229789">
  <ele>1583.0</ele>
  <time>2026-08-28T17:56:10Z</time>
  <course>0.0</course>
  <speed>0.0</speed>
  <fix>3d</fix>
</trkpt>
<trkpt lat="40.0713749" lon="-105.229789">
  <ele>1583.0</ele>
  <time>2026-08-28T17:56:10Z</time>
  <course>248.0</course>
  <speed>0.0</speed>
  <fix>3d</fix>
</trkpt>
<trkpt lat="40.0713749" lon="-105.229789">
  <ele>1583.0</ele>
  <time>2026-08-28T17:56:10Z</time>
  <course>0.0</course>
  <speed>0.0</speed>
  <fix>3d</fix>
</trkpt>
<trkpt lat="40.0713749" lon="-105.229789">
  <ele>1583.0</ele>
  <time>2026-08-28T17:56:10Z</time>
  <course>248.02</course>
  <speed>0.0</speed>
  <fix>3d</fix>
</trkpt>
<trkpt lat="40.0713749" lon="-105.229789">
  <ele>1583.0</ele>
  <time>2026-08-28T17:56:10Z</time>
  <course>0.0</course>
  <speed>0.0</speed>
  <fix>3d</fix>
</trkpt>
<trkpt lat="40.0713749" lon="-105.229789">
  <ele>1583.0</ele>
  <time>2026-08-28T17:56:10Z</time>
  <course>248.05</course>
  <speed>0.0</speed>
  <fix>3d</fix>
</trkpt>
<trkpt lat="40.0713749" lon="-105.229789">
  <ele>1583.0</ele>
  <time>2026-08-28T17:56:10Z</time>
  <course>0.0</course>
  <speed>0.0</speed>
  <fix>3d</fix>
</trkpt>
<trkpt lat="40.0713749" lon="-105.229789">
  <ele>1583.0</ele>
  <time>2026-08-28T17:56:10Z</time>
  <course>248.08</course>
  <speed>0.0</speed>
  <fix>3d</fix>
</trkpt>
<trkpt lat="40.0713749" lon="-105.229789">
  <ele>1583.0</ele>
  <time>2026-08-28T17:56:10Z</time>
  <course>0.0</course>
  <speed>0.0</speed>
  <fix>3d</fix>
</trkpt>
<trkpt lat="40.0713749" lon="-105.229789">
  <ele>1583.0</ele>
  <time>2026-08-28T17:56:10Z</time>
  <course>248.1</course>
  <speed>0.0</speed>
  <fix>3d</fix>
</trkpt>
<trkpt lat="40.0713749" lon="-105.229789">
  <ele>1583.0</ele>
  <time>2026-08-28T17:56:10Z</time>
  <course>0.0</course>
  <speed>0.0</speed>
  <fix>3d</fix>
</trkpt>
<trkpt lat="40.0713749" lon="-105.229789">
  <ele>1583.0</ele>
  <time>2026-08-28T17:56:10Z</time>
  <course>248.12</course>
  <speed>0.0</speed>
  <fix>3d</fix>
</trkpt>
<trkpt lat="40.0713749" lon="-105.229789">
  <ele>1583.0</ele>
  <time>2026-08-28T17:56:10Z</time>
  <course>0.0</course>
  <speed>0.0</speed>
  <fix>3d</fix>
</trkpt>
<trkpt lat="40.0713749" lon="-105.229789">
  <ele>1583.0</ele>
  <time>2026-08-28T17:56:10Z</time>
  <course>248.14</course>
  <speed>0.0</speed>
  <fix>3d</fix>
</trkpt>
<trkpt lat="40.0713749" lon="-105.229789">
  <ele>1583.0</ele>
  <time>2026-08-28T17:56:10Z</time>
  <course>0.0</course>
  <speed>0.0</speed>
  <fix>3d</fix>
</trkpt>
<trkpt lat="40.0713749" lon="-105.229789">
  <ele>1583.0</ele>
  <time>2026-08-28T17:56:10Z</time>
  <course>248.16</course>
  <speed>0.0</speed>
  <fix>3d</fix>
</trkpt>
<trkpt lat="40.0713749" lon="-105.229789">
  <ele>1583.0</ele>
  <time>2026-08-28T17:56:10Z</time>
  <course>0.0</course>
  <speed>0.0</speed>
  <fix>3d</fix>
</trkpt>
<trkpt lat="40.0713749" lon="-105.229789">
  <ele>1583.0</ele>
  <time>2026-08-28T17:56:10Z</time>
  <course>248.18</course>
  <speed>0.0</speed>
  <fix>3d</fix>
</trkpt>
<trkpt lat="40.0713749" lon="-105.229789">
  <ele>1583.0</ele>
  <time>2026-08-28T17:56:10Z</time>
  <course>0.0</course>
  <speed>0.0</speed>
  <fix>3d</fix>
</trkpt>
<trkpt lat="40.0713749" lon="-105.229789">
  <ele>1583.0</ele>
  <time>2026-08-28T17:56:10Z</time>
  <course>248.2</course>
  <speed>0.0</speed>
  <fix>3d</fix>
</trkpt>
<trkpt lat="40.0713749" lon="-105.229789">
  <ele>1583.0</ele>
  <time>2026-08-28T17:56:10Z</time>
  <course>0.0</course>
  <speed>0.0</speed>
  <fix>3d</fix>
</trkpt>
<trkpt lat="40.0713749" lon="-105.229789">
  <ele>1583.0</ele>
  <time>2026-08-28T17:56:10Z</time>
  <course>248.22</course>
  <speed>0.0</speed>
  <fix>3d</fix>
</trkpt>
<trkpt lat="40.0713749" lon="-105.229789">
  <ele>1583.0</ele>
  <time>2026-08-28T17:56:10Z</time>
  <course>0.0</course>
  <speed>0.0</speed>
  <fix>3d</fix>
</trkpt>
<trkpt lat="40.0713749" lon="-105.229789">
  <ele>1583.0</ele>
  <time>2026-08-28T17:56:10Z</time>
  <course>248.23</course>
  <speed>0.0</speed>
  <fix>3d</fix>
</trkpt>
<trkpt lat="40.0713749" lon="-105.229789">
  <ele>1583.0</ele>
  <time>2026-08-28T17:56:10Z</time>
  <course>0.0</course>
  <speed>0.0</speed>
  <fix>3d</fix>
</trkpt>
<trkpt lat="40.0713749" lon="-105.229789">
  <ele>1583.0</ele>
  <time>2026-08-28T17:56:10Z</time>
  <course>248.25</course>
  <speed>0.0</speed>
  <fix>3d</fix>
</trkpt>
<trkpt lat="40.0713749" lon="-105.229789">
  <ele>1583.0</ele>
  <time>2026-08-28T17:56:10Z</time>
  <course>0.0</course>
  <speed>0.0</speed>
  <fix>3d</fix>
</trkpt>
<trkpt lat="40.0713749" lon="-105.229789">
  <ele>1583.0</ele>
  <time>2026-08-28T17:56:10Z</time>
  <course>248.26</course>
  <speed>0.0</speed>
  <fix>3d</fix>
</trkpt>
<trkpt lat="40.0713749" lon="-105.229789">
  <ele>1583.0</ele>
  <time>2026-08-28T17:56:10Z</time>
  <course>0.0</course>
  <speed>0.0</speed>
  <fix>3d</fix>
</trkpt>
<trkpt lat="40.0713749" lon="-105.229789">
  <ele>1583.0</ele>
  <time>2026-08-28T17:56:10Z</time>
  <course>248.28</course>
  <speed>0.0</speed>
  <fix>3d</fix>
</trkpt>
<trkpt lat="40.0713749" lon="-105.229789">
  <ele>1583.0</ele>
  <time>2026-08-28T17:56:10Z</time>
  <course>0.0</course>
  <speed>0.0</speed>
  <fix>3d</fix>
</trkpt>
<trkpt lat="40.0713749" lon="-105.229789">
  <ele>1583.0</ele>
  <time>2026-08-28T17:56:10Z</time>
  <course>248.29</course>
  <speed>0.0</speed>
  <fix>3d</fix>
</trkpt>
<trkpt lat="40.0713749" lon="-105.229789">
  <ele>1583.0</ele>
  <time>2026-08-28T17:56:10Z</time>
  <course>0.0</course>
  <speed>0.0</speed>
  <fix>3d</fix>
</trkpt>
<trkpt lat="40.0713749" lon="-105.229789">
  <ele>1583.0</ele>
  <time>2026-08-28T17:56:10Z</time>
  <course>248.3</course>
  <speed>0.0</speed>
  <fix>3d</fix>
</trkpt>
<trkpt lat="40.0713749" lon="-105.229789">
  <ele>1583.0</ele>
  <time>2026-08-28T17:56:10Z</time>
  <course>0.0</course>
  <speed>0.0</speed>
  <fix>3d</fix>
</trkpt>
<trkpt lat="40.0713749" lon="-105.229789">
  <ele>1583.0</ele>
  <time>2026-08-28T17:56:10Z</time>
  <course>248.31</course>
  <speed>0.0</speed>
  <fix>3d</fix>
</trkpt>
<trkpt lat="40.0713749" lon="-105.229789">
  <ele>1583.0</ele>
  <time>2026-08-28T17:56:10Z</time>
  <course>0.0</course>
  <speed>0.0</speed>
  <fix>3d</fix>
</trkpt>
<trkpt lat="40.0713749" lon="-105.229789">
  <ele>1583.0</ele>
  <time>2026-08-28T17:56:10Z</time>
  <course>248.32</course>
  <speed>0.0</speed>
  <fix>3d</fix>
</trkpt>
<trkpt lat="40.0713749" lon="-105.229789">
  <ele>1583.0</ele>
  <time>2026-08-28T17:56:10Z</time>
  <course>0.0</course>
  <speed>0.0</speed>
  <fix>3d</fix>
</trkpt>
<trkpt lat="40.0713749" lon="-105.229789">
  <ele>1583.0</ele>
  <time>2026-08-28T17:56:10Z</time>
  <course>248.33</course>
  <speed>0.0</speed>
  <fix>3d</fix>
</trkpt>
<trkpt lat="40.0713749" lon="-105.229789">
  <ele>1583.0</ele>
  <time>2026-08-28T17:56:10Z</time>
  <course>0.0</course>
  <speed>0.0</speed>
  <fix>3d</fix>
</trkpt>
<trkpt lat="40.0713749" lon="-105.229789">
  <ele>1583.0</ele>
  <time>2026-08-28T17:56:10Z</time>
  <course>248.34</course>
  <speed>0.0</speed>
  <fix>3d</fix>
</trkpt>
<trkpt lat="40.0713749" lon="-105.229789">
  <ele>1583.0</ele>
  <time>2026-08-28T17:56:10Z</time>
  <course>0.0</course>
  <speed>0.0</speed>
  <fix>3d</fix>
</trkpt>
<trkpt lat="40.0713749" lon="-105.229789">
  <ele>1583.0</ele>
  <time>2026-08-28T17:56:10Z</time>
  <course>248.35</course>
  <speed>0.0</speed>
  <fix>3d</fix>
</trkpt>
<trkpt lat="40.0713749" lon="-105.229789">
  <ele>1583.0</ele>
  <time>2026-08-28T17:56:10Z</time>
  <course>0.0</course>
  <speed>0.0</speed>
  <fix>3d</fix>
</trkpt>
<trkpt lat="40.0713749" lon="-105.229789">
  <ele>1583.0</ele>
  <time>2026-08-28T17:56:10Z</time>
  <course>248.35</course>
  <speed>0.0</speed>
  <fix>3d</fix>
</trkpt>
<trkpt lat="40.0713749" lon="-105.229789">
  <ele>1583.0</ele>
  <time>2026-08-28T17:56:10Z</time>
  <course>0.0</course>
  <speed>0.0</speed>
  <fix>3d</fix>
</trkpt>
<trkpt lat="40.0713749" lon="-105.229789">
  <ele>1583.0</ele>
  <time>2026-08-28T17:56:10Z</time>
  <course>248.36</course>
  <speed>0.0</speed>
  <fix>3d</fix>
</trkpt>
<trkpt lat="40.0713749" lon="-105.229789">
  <ele>1583.0</ele>
  <time>2026-08-28T17:56:10Z</time>
  <course>0.0</course>
  <speed>0.0</speed>
  <fix>3d</fix>
</trkpt>
<trkpt lat="40.0713749" lon="-105.229789">
  <ele>1583.0</ele>
  <time>2026-08-28T17:56:10Z</time>
  <course>248.37</course>
  <speed>0.0</speed>
  <fix>3d</fix>
</trkpt>
<trkpt lat="40.0713749" lon="-105.229789">
  <ele>1583.0</ele>
  <time>2026-08-28T17:56:10Z</time>
  <course>0.0</course>
  <speed>0.0</speed>
  <fix>3d</fix>
</trkpt>
<trkpt lat="40.0713749" lon="-105.229789">
  <ele>1583.0</ele>
  <time>2026-08-28T17:56:10Z</time>
  <course>248.37</course>
  <speed>0.0</speed>
  <fix>3d</fix>
</trkpt>
<trkpt lat="40.0713749" lon="-105.229789">
  <ele>1583.0</ele>
  <time>2026-08-28T17:56:10Z</time>
  <course>0.0</course>
  <speed>0.0</speed>
  <fix>3d</fix>
</trkpt>
<trkpt lat="40.0713749" lon="-105.229789">
  <ele>1583.0</ele>
  <time>2026-08-28T17:56:10Z</time>
  <course>248.38</course>
  <speed>0.0</speed>
  <fix>3d</fix>
</trkpt>
<trkpt lat="40.0713749" lon="-105.229789">
  <ele>1583.0</ele>
  <time>2026-08-28T17:56:10Z</time>
  <course>0.0</course>
  <speed>0.0</speed>
  <fix>3d</fix>
</trkpt>
<trkpt lat="40.0713749" lon="-105.229789">
  <ele>1583.0</ele>
  <time>2026-08-28T17:56:10Z</time>
  <course>248.38</course>
  <speed>0.0</speed>
  <fix>3d</fix>
</trkpt>
<trkpt lat="40.0713749" lon="-105.229789">
  <ele>1583.0</ele>
  <time>2026-08-28T17:56:10Z</time>
  <course>0.0</course>
  <speed>0.0</speed>
  <fix>3d</fix>
</trkpt>
<trkpt lat="40.0713749" lon="-105.229789">
  <ele>1583.0</ele>
  <time>2026-08-28T17:56:10Z</time>
  <course>248.39</course>
  <speed>0.0</speed>
  <fix>3d</fix>
</trkpt>
<trkpt lat="40.0713749" lon="-105.229789">
  <ele>1583.0</ele>
  <time>2026-08-28T17:56:10Z</time>
  <course>0.0</course>
  <speed>0.0</speed>
  <fix>3d</fix>
</trkpt>
<trkpt lat="40.0713749" lon="-105.229789">
  <ele>1583.0</ele>
  <time>2026-08-28T17:56:10Z</time>
  <course>248.39</course>
  <speed>0.0</speed>
  <fix>3d</fix>
</trkpt>
<trkpt lat="40.0713749" lon="-105.229789">
  <ele>1583.0</ele>
  <time>2026-08-28T17:56:10Z</time>
  <course>0.0</course>
  <speed>0.0</speed>
  <fix>3d</fix>
</trkpt>
<trkpt lat="40.0713749" lon="-105.229789">
  <ele>1583.0</ele>
  <time>2026-08-28T17:56:10Z</time>
  <course>248.4</course>
  <speed>0.0</speed>
  <fix>3d</fix>
</trkpt>
<trkpt lat="40.0713749" lon="-105.229789">
  <ele>1583.0</ele>
  <time>2026-08-28T17:56:10Z</time>
  <course>0.0</course>
  <speed>0.0</speed>
  <fix>3d</fix>
</trkpt>
<trkpt lat="40.0713749" lon="-105.229789">
  <ele>1583.0</ele>
  <time>2026-08-28T17:56:10Z</time>
  <course>248.4</course>
  <speed>0.0</speed>
  <fix>3d</fix>
</trkpt>
<trkpt lat="40.0713749" lon="-105.229789">
  <ele>1583.0</ele>
  <time>2026-08-28T17:56:10Z</time>
  <course>0.0</course>
  <speed>0.0</speed>
  <fix>3d</fix>
</trkpt>
<trkpt lat="40.0713749" lon="-105.229789">
  <ele>1583.0</ele>
  <time>2026-08-28T17:56:10Z</time>
  <course>248.4</course>
  <speed>0.0</speed>
  <fix>3d</fix>
</trkpt>
<trkpt lat="40.0713749" lon="-105.229789">
  <ele>1583.0</ele>
  <time>2026-08-28T17:56:10Z</time>
  <course>0.0</course>
  <speed>0.0</speed>
  <fix>3d</fix>
</trkpt>
<trkpt lat="40.0713749" lon="-105.229789">
  <ele>1583.0</ele>
  <time>2026-08-28T17:56:10Z</time>
  <course>248.4</course>
  <speed>0.0</speed>
  <fix>3d</fix>
</trkpt>
<trkpt lat="40.0713749" lon="-105.229789">
  <ele>1583.0</ele>
  <time>2026-08-28T17:56:10Z</time>
  <course>0.0</course>
  <speed>0.0</speed>
  <fix>3d</fix>
</trkpt>
<trkpt lat="40.0713749" lon="-105.229789">
  <ele>1583.0</ele>
  <time>2026-08-28T17:56:10Z</time>
  <course>248.41</course>
  <speed>0.0</speed>
  <fix>3d</fix>
</trkpt>
<trkpt lat="40.0713749" lon="-105.229789">
  <ele>1583.0</ele>
  <time>2026-08-28T17:56:10Z</time>
  <course>0.0</course>
  <speed>0.0</speed>
  <fix>3d</fix>
</trkpt>
<trkpt lat="40.0713749" lon="-105.229789">
  <ele>1583.0</ele>
  <time>2026-08-28T17:56:10Z</time>
  <course>248.41</course>
  <speed>0.0</speed>
  <fix>3d</fix>
</trkpt>
<trkpt lat="40.0713749" lon="-105.229789">
  <ele>1583.0</ele>
  <time>2026-08-28T17:56:10Z</time>
  <course>0.0</course>
  <speed>0.0</speed>
  <fix>3d</fix>
</trkpt>
<trkpt lat="40.0713749" lon="-105.229789">
  <ele>1583.0</ele>
  <time>2026-08-28T17:56:10Z</time>
  <course>248.41</course>
  <speed>0.0</speed>
  <fix>3d</fix>
</trkpt>
<trkpt lat="40.0713749" lon="-105.229789">
  <ele>1583.0</ele>
  <time>2026-08-28T17:56:10Z</time>
  <course>0.0</course>
  <speed>0.0</speed>
  <fix>3d</fix>
</trkpt>
<trkpt lat="40.0713749" lon="-105.229789">
  <ele>1583.0</ele>
  <time>2026-08-28T17:56:10Z</time>
  <course>248.41</course>
  <speed>0.0</speed>
  <fix>3d</fix>
</trkpt>
<trkpt lat="40.0713749" lon="-105.229789">
  <ele>1583.0</ele>
  <time>2026-08-28T17:56:10Z</time>
  <course>0.0</course>
  <speed>0.0</speed>
  <fix>3d</fix>
</trkpt>
<trkpt lat="40.0713749" lon="-105.229789">
  <ele>1583.0</ele>
  <time>2026-08-28T17:56:10Z</time>
  <course>248.41</course>
  <speed>0.0</speed>
  <fix>3d</fix>
</trkpt>
<trkpt lat="40.0713749" lon="-105.229789">
  <ele>1583.0</ele>
  <time>2026-08-28T17:56:10Z</time>
  <course>0.0</course>
  <speed>0.0</speed>
  <fix>3d</fix>
</trkpt>
<trkpt lat="40.0713749" lon="-105.229789">
  <ele>1583.0</ele>
  <time>2026-08-28T17:56:10Z</time>
  <course>248.41</course>
  <speed>0.0</speed>
  <fix>3d</fix>
</trkpt>
<trkpt lat="40.0713749" lon="-105.229789">
  <ele>1583.0</ele>
  <time>2026-08-28T17:56:10Z</time>
  <course>0.0</course>
  <speed>0.0</speed>
  <fix>3d</fix>
</trkpt>
<trkpt lat="40.0713749" lon="-105.229789">
  <ele>1583.0</ele>
  <time>2026-08-28T17:56:10Z</time>
  <course>248.41</course>
  <speed>0.0</speed>
  <fix>3d</fix>
</trkpt>
<trkpt lat="40.0713749" lon="-105.229789">
  <ele>1583.0</ele>
  <time>2026-08-28T17:56:10Z</time>
  <course>0.0</course>
  <speed>0.0</speed>
  <fix>3d</fix>
</trkpt>
<trkpt lat="40.0713749" lon="-105.229789">
  <ele>1583.0</ele>
  <time>2026-08-28T17:56:10Z</time>
  <course>248.41</course>
  <speed>0.0</speed>
  <fix>3d</fix>
</trkpt>
<trkpt lat="40.0713749" lon="-105.229789">
  <ele>1583.0</ele>
  <time>2026-08-28T17:56:10Z</time>
  <course>0.0</course>
  <speed>0.0</speed>
  <fix>3d</fix>
</trkpt>
<trkpt lat="40.0713749" lon="-105.229789">
  <ele>1583.0</ele>
  <time>2026-08-28T17:56:10Z</time>
  <course>248.41</course>
  <speed>0.0</speed>
  <fix>3d</fix>
</trkpt>
<trkpt lat="40.0713749" lon="-105.229789">
  <ele>1583.0</ele>
  <time>2026-08-28T17:56:10Z</time>
  <course>0.0</course>
  <speed>0.0</speed>
  <fix>3d</fix>
</trkpt>
<trkpt lat="40.0713749" lon="-105.229789">
  <ele>1583.0</ele>
  <time>2026-08-28T17:56:10Z</time>
  <course>248.41</course>
  <speed>0.0</speed>
  <fix>3d</fix>
</trkpt>
<trkpt lat="40.0713749" lon="-105.229789">
  <ele>1583.0</ele>
  <time>2026-08-28T17:56:10Z</time>
  <course>0.0</course>
  <speed>0.0</speed>
  <fix>3d</fix>
</trkpt>
<trkpt lat="40.0713749" lon="-105.229789">
  <ele>1583.0</ele>
  <time>2026-08-28T17:56:10Z</time>
  <course>248.41</course>
  <speed>0.0</speed>
  <fix>3d</fix>
</trkpt>
<trkpt lat="40.0713749" lon="-105.229789">
  <ele>1583.0</ele>
  <time>2026-08-28T17:56:10Z</time>
  <course>0.0</course>
  <speed>0.0</speed>
  <fix>3d</fix>
</trkpt>
<trkpt lat="40.0713749" lon="-105.229789">
  <ele>1583.0</ele>
  <time>2026-08-28T17:56:10Z</time>
  <course>248.41</course>
  <speed>0.0</speed>
  <fix>3d</fix>
</trkpt>
<trkpt lat="40.0713749" lon="-105.229789">
  <ele>1583.0</ele>
  <time>2026-08-28T17:56:10Z</time>
  <course>0.0</course>
  <speed>0.0</speed>
  <fix>3d</fix>
</trkpt>
<trkpt lat="40.0713749" lon="-105.229789">
  <ele>1583.0</ele>
  <time>2026-08-28T17:56:10Z</time>
  <course>248.41</course>
  <speed>0.0</speed>
  <fix>3d</fix>
</trkpt>
<trkpt lat="40.0713749" lon="-105.229789">
  <ele>1583.0</ele>
  <time>2026-08-28T17:56:10Z</time>
  <course>0.0</course>
  <speed>0.0</speed>
  <fix>3d</fix>
</trkpt>
<trkpt lat="40.0713749" lon="-105.229789">
  <ele>1583.0</ele>
  <time>2026-08-28T17:56:10Z</time>
  <course>248.41</course>
  <speed>0.0</speed>
  <fix>3d</fix>
</trkpt>
<trkpt lat="40.0713749" lon="-105.229789">
  <ele>1583.0</ele>
  <time>2026-08-28T17:56:10Z</time>
  <course>0.0</course>
  <speed>0.0</speed>
  <fix>3d</fix>
</trkpt>
<trkpt lat="40.0713749" lon="-105.229789">
  <ele>1583.0</ele>
  <time>2026-08-28T17:56:10Z</time>
  <course>248.41</course>
  <speed>0.0</speed>
  <fix>3d</fix>
</trkpt>
<trkpt lat="40.0713749" lon="-105.229789">
  <ele>1583.0</ele>
  <time>2026-08-28T17:56:10Z</time>
  <course>0.0</course>
  <speed>0.0</speed>
  <fix>3d</fix>
</trkpt>
<trkpt lat="40.0713749" lon="-105.229789">
  <ele>1583.0</ele>
  <time>2026-08-28T17:56:10Z</time>
  <course>248.41</course>
  <speed>0.0</speed>
  <fix>3d</fix>
</trkpt>
<trkpt lat="40.0713749" lon="-105.229789">
  <ele>1583.0</ele>
  <time>2026-08-28T17:56:10Z</time>
  <course>0.0</course>
  <speed>0.0</speed>
  <fix>3d</fix>
</trkpt>
<trkpt lat="40.0713749" lon="-105.229789">
  <ele>1583.0</ele>
  <time>2026-08-28T17:56:10Z</time>
  <course>248.4</course>
  <speed>0.0</speed>
  <fix>3d</fix>
</trkpt>
<trkpt lat="40.0713749" lon="-105.229789">
  <ele>1583.0</ele>
  <time>2026-08-28T17:56:10Z</time>
  <course>0.0</course>
  <speed>0.0</speed>
  <fix>3d</fix>
</trkpt>
<trkpt lat="40.0713749" lon="-105.229789">
  <ele>1583.0</ele>
  <time>2026-08-28T17:56:10Z</time>
  <course>248.4</course>
  <speed>0.01</speed>
  <fix>3d</fix>
</trkpt>
<trkpt lat="40.0713749" lon="-105.229789">
  <ele>1583.0</ele>
  <time>2026-08-28T17:56:10Z</time>
  <course>0.0</course>
  <speed>0.0</speed>
  <fix>3d</fix>
</trkpt>
<trkpt lat="40.0713749" lon="-105.229789">
  <ele>1583.0</ele>
  <time>2026-08-28T17:56:10Z</time>
  <course>248.4</course>
  <speed>0.01</speed>
  <fix>3d</fix>
</trkpt>
<trkpt lat="40.0713749" lon="-105.229789">
  <ele>1583.0</ele>
  <time>2026-08-28T17:56:10Z</time>
  <course>0.0</course>
  <speed>0.0</speed>
  <fix>3d</fix>
</trkpt>
<trkpt lat="40.0713749" lon="-105.229789">
  <ele>1583.0</ele>
  <time>2026-08-28T17:56:10Z</time>
  <course>248.4</course>
  <speed>0.01</speed>
  <fix>3d</fix>
</trkpt>
<trkpt lat="40.0713749" lon="-105.229789">
  <ele>1583.0</ele>
  <time>2026-08-28T17:56:10Z</time>
  <course>0.0</course>
  <speed>0.0</speed>
  <fix>3d</fix>
</trkpt>
<trkpt lat="40.0713749" lon="-105.229789">
  <ele>1583.0</ele>
  <time>2026-08-28T17:56:10Z</time>
  <course>248.4</course>
  <speed>0.01</speed>
  <fix>3d</fix>
</trkpt>
<trkpt lat="40.0713749" lon="-105.229789">
  <ele>1583.0</ele>
  <time>2026-08-28T17:56:10Z</time>
  <course>0.0</course>
  <speed>0.0</speed>
  <fix>3d</fix>
</trkpt>
<trkpt lat="40.0713749" lon="-105.229789">
  <ele>1583.0</ele>
  <time>2026-08-28T17:56:10Z</time>
  <course>248.39</course>
  <speed>0.01</speed>
  <fix>3d</fix>
</trkpt>
<trkpt lat="40.0713749" lon="-105.229789">
  <ele>1583.0</ele>
  <time>2026-08-28T17:56:10Z</time>
  <course>0.0</course>
  <speed>0.0</speed>
  <fix>3d</fix>
</trkpt>
<trkpt lat="40.0713749" lon="-105.229789">
  <ele>1583.0</ele>
  <time>2026-08-28T17:56:10Z</time>
  <course>248.39</course>
  <speed>0.01</speed>
  <fix>3d</fix>
</trkpt>
<trkpt lat="40.0713749" lon="-105.229789">
  <ele>1583.0</ele>
  <time>2026-08-28T17:56:10Z</time>
  <course>0.0</course>
  <speed>0.0</speed>
  <fix>3d</fix>
</trkpt>
<trkpt lat="40.0713749" lon="-105.229789">
  <ele>1583.0</ele>
  <time>2026-08-28T17:56:10Z</time>
  <course>248.39</course>
  <speed>0.01</speed>
  <fix>3d</fix>
</trkpt>
<trkpt lat="40.0713749" lon="-105.229789">
  <ele>1583.0</ele>
  <time>2026-08-28T17:56:10Z</time>
  <course>0.0</course>
  <speed>0.0</speed>
  <fix>3d</fix>
</trkpt>
<trkpt lat="40.0713749" lon="-105.229789">
  <ele>1583.0</ele>
  <time>2026-08-28T17:56:10Z</time>
  <course>248.38</course>
  <speed>0.01</speed>
  <fix>3d</fix>
</trkpt>
<trkpt lat="40.0713749" lon="-105.229789">
  <ele>1583.0</ele>
  <time>2026-08-28T17:56:10Z</time>
  <course>0.0</course>
  <speed>0.0</speed>
  <fix>3d</fix>
</trkpt>
<trkpt lat="40.0713749" lon="-105.229789">
  <ele>1583.0</ele>
  <time>2026-08-28T17:56:10Z</time>
  <course>248.38</course>
  <speed>0.01</speed>
  <fix>3d</fix>
</trkpt>
<trkpt lat="40.0713749" lon="-105.229789">
  <ele>1583.0</ele>
  <time>2026-08-28T17:56:10Z</time>
  <course>0.0</course>
  <speed>0.0</speed>
  <fix>3d</fix>
</trkpt>
<trkpt lat="40.0713749" lon="-105.229789">
  <ele>1583.0</ele>
  <time>2026-08-28T17:56:10Z</time>
  <course>248.38</course>
  <speed>0.01</speed>
  <fix>3d</fix>
</trkpt>
<trkpt lat="40.0713749" lon="-105.229789">
  <ele>1583.0</ele>
  <time>2026-08-28T17:56:10Z</time>
  <course>0.0</course>
  <speed>0.0</speed>
  <fix>3d</fix>
</trkpt>
<trkpt lat="40.0713749" lon="-105.229789">
  <ele>1583.0</ele>
  <time>2026-08-28T17:56:10Z</time>
  <course>248.37</course>
  <speed>0.01</speed>
  <fix>3d</fix>
</trkpt>
<trkpt lat="40.0713749" lon="-105.229789">
  <ele>1583.0</ele>
  <time>2026-08-28T17:56:10Z</time>
  <course>0.0</course>
  <speed>0.0</speed>
  <fix>3d</fix>
</trkpt>
<trkpt lat="40.0713749" lon="-105.229789">
  <ele>1583.0</ele>
  <time>2026-08-28T17:56:10Z</time>
  <course>248.37</course>
  <speed>0.01</speed>
  <fix>3d</fix>
</trkpt>
<trkpt lat="40.0713749" lon="-105.229789">
  <ele>1583.0</ele>
  <time>2026-08-28T17:56:10Z</time>
  <course>0.0</course>
  <speed>0.0</speed>
  <fix>3d</fix>
</trkpt>
<trkpt lat="40.0713749" lon="-105.229789">
  <ele>1583.0</ele>
  <time>2026-08-28T17:56:10Z</time>
  <course>248.37</course>
  <speed>0.01</speed>
  <fix>3d</fix>
</trkpt>
<trkpt lat="40.0713749" lon="-105.229789">
  <ele>1583.0</ele>
  <time>2026-08-28T17:56:10Z</time>
  <course>0.0</course>
  <speed>0.0</speed>
  <fix>3d</fix>
</trkpt>
<trkpt lat="40.0713749" lon="-105.229789">
  <ele>1583.0</ele>
  <time>2026-08-28T17:56:10Z</time>
  <course>248.36</course>
  <speed>0.01</speed>
  <fix>3d</fix>
</trkpt>
<trkpt lat="40.0713749" lon="-105.229789">
  <ele>1583.0</ele>
  <time>2026-08-28T17:56:10Z</time>
  <course>0.0</course>
  <speed>0.0</speed>
  <fix>3d</fix>
</trkpt>
<trkpt lat="40.0713749" lon="-105.229789">
  <ele>1583.0</ele>
  <time>2026-08-28T17:56:10Z</time>
  <course>248.36</course>
  <speed>0.01</speed>
  <fix>3d</fix>
</trkpt>
<trkpt lat="40.0713749" lon="-105.229789">
  <ele>1583.0</ele>
  <time>2026-08-28T17:56:10Z</time>
  <course>0.0</course>
  <speed>0.0</speed>
  <fix>3d</fix>
</trkpt>
<trkpt lat="40.0713749" lon="-105.229789">
  <ele>1583.0</ele>
  <time>2026-08-28T17:56:10Z</time>
  <course>248.36</course>
  <speed>0.01</speed>
  <fix>3d</fix>
</trkpt>
<trkpt lat="40.0713749" lon="-105.229789">
  <ele>1583.0</ele>
  <time>2026-08-28T17:56:10Z</time>
  <course>0.0</course>
  <speed>0.0</speed>
  <fix>3d</fix>
</trkpt>
<trkpt lat="40.0713749" lon="-105.229789">
  <ele>1583.0</ele>
  <time>2026-08-28T17:56:10Z</time>
  <course>248.35</course>
  <speed>0.01</speed>
  <fix>3d</fix>
</trkpt>
<trkpt lat="40.0713749" lon="-105.229789">
  <ele>1583.0</ele>
  <time>2026-08-28T17:56:10Z</time>
  <course>0.0</course>
  <speed>0.0</speed>
  <fix>3d</fix>
</trkpt>
<trkpt lat="40.0713749" lon="-105.229789">
  <ele>1583.0</ele>
  <time>2026-08-28T17:56:10Z</time>
  <course>248.35</course>
  <speed>0.01</speed>
  <fix>3d</fix>
</trkpt>
<trkpt lat="40.0713749" lon="-105.229789">
  <ele>1583.0</ele>
  <time>2026-08-28T17:56:10Z</time>
  <course>0.0</course>
  <speed>0.0</speed>
  <fix>3d</fix>
</trkpt>
<trkpt lat="40.0713749" lon="-105.229789">
  <ele>1583.0</ele>
  <time>2026-08-28T17:56:10Z</time>
  <course>248.35</course>
  <speed>0.01</speed>
  <fix>3d</fix>
</trkpt>
<trkpt lat="40.0713749" lon="-105.229789">
  <ele>1583.0</ele>
  <time>2026-08-28T17:56:10Z</time>
  <course>0.0</course>
  <speed>0.0</speed>
  <fix>3d</fix>
</trkpt>
<trkpt lat="40.0713749" lon="-105.229789">
  <ele>1583.0</ele>
  <time>2026-08-28T17:56:10Z</time>
  <course>248.34</course>
  <speed>0.01</speed>
  <fix>3d</fix>
</trkpt>
<trkpt lat="40.0713749" lon="-105.229789">
  <ele>1583.0</ele>
  <time>2026-08-28T17:56:10Z</time>
  <course>0.0</course>
  <speed>0.0</speed>
  <fix>3d</fix>
</trkpt>
<trkpt lat="40.0713749" lon="-105.229789">
  <ele>1583.0</ele>
  <time>2026-08-28T17:56:10Z</time>
  <course>248.34</course>
  <speed>0.01</speed>
  <fix>3d</fix>
</trkpt>
<trkpt lat="40.0713749" lon="-105.229789">
  <ele>1583.0</ele>
  <time>2026-08-28T17:56:10Z</time>
  <course>0.0</course>
  <speed>0.0</speed>
  <fix>3d</fix>
</trkpt>
<trkpt lat="40.0713749" lon="-105.229789">
  <ele>1583.0</ele>
  <time>2026-08-28T17:56:10Z</time>
  <course>248.33</course>
  <speed>0.01</speed>
  <fix>3d</fix>
</trkpt>
<trkpt lat="40.0713749" lon="-105.229789">
  <ele>1583.0</ele>
  <time>2026-08-28T17:56:10Z</time>
  <course>0.0</course>
  <speed>0.0</speed>
  <fix>3d</fix>
</trkpt>
<trkpt lat="40.0713749" lon="-105.229789">
  <ele>1583.0</ele>
  <time>2026-08-28T17:56:10Z</time>
  <course>248.33</course>
  <speed>0.01</speed>
  <fix>3d</fix>
</trkpt>
<trkpt lat="40.0713749" lon="-105.229789">
  <ele>1583.0</ele>
  <time>2026-08-28T17:56:10Z</time>
  <course>0.0</course>
  <speed>0.0</speed>
  <fix>3d</fix>
</trkpt>
<trkpt lat="40.0713749" lon="-105.229789">
  <ele>1583.0</ele>
  <time>2026-08-28T17:56:10Z</time>
  <course>248.32</course>
  <speed>0.01</speed>
  <fix>3d</fix>
</trkpt>
<trkpt lat="40.0713749" lon="-105.229789">
  <ele>1583.0</ele>
  <time>2026-08-28T17:56:10Z</time>
  <course>0.0</course>
  <speed>0.0</speed>
  <fix>3d</fix>
</trkpt>
<trkpt lat="40.0713749" lon="-105.229789">
  <ele>1583.0</ele>
  <time>2026-08-28T17:56:10Z</time>
  <course>248.32</course>
  <speed>0.01</speed>
  <fix>3d</fix>
</trkpt>
<trkpt lat="40.0713749" lon="-105.229789">
  <ele>1583.0</ele>
  <time>2026-08-28T17:56:10Z</time>
  <course>0.0</course>
  <speed>0.0</speed>
  <fix>3d</fix>
</trkpt>
<trkpt lat="40.0713749" lon="-105.229789">
  <ele>1583.0</ele>
  <time>2026-08-28T17:56:10Z</time>
  <course>248.32</course>
  <speed>0.01</speed>
  <fix>3d</fix>
</trkpt>
<trkpt lat="40.0713749" lon="-105.229789">
  <ele>1583.0</ele>
  <time>2026-08-28T17:56:10Z</time>
  <course>0.0</course>
  <speed>0.0</speed>
  <fix>3d</fix>
</trkpt>
<trkpt lat="40.0713749" lon="-105.229789">
  <ele>1583.0</ele>
  <time>2026-08-28T17:56:10Z</time>
  <course>248.31</course>
  <speed>0.01</speed>
  <fix>3d</fix>
</trkpt>
<trkpt lat="40.0713749" lon="-105.229789">
  <ele>1583.0</ele>
  <time>2026-08-28T17:56:10Z</time>
  <course>0.0</course>
  <speed>0.0</speed>
  <fix>3d</fix>
</trkpt>
<trkpt lat="40.0713749" lon="-105.229789">
  <ele>1583.0</ele>
  <time>2026-08-28T17:56:10Z</time>
  <course>248.31</course>
  <speed>0.01</speed>
  <fix>3d</fix>
</trkpt>
<trkpt lat="40.0713749" lon="-105.229789">
  <ele>1583.0</ele>
  <time>2026-08-28T17:56:10Z</time>
  <course>0.0</course>
  <speed>0.0</speed>
  <fix>3d</fix>
</trkpt>
<trkpt lat="40.0713749" lon="-105.229789">
  <ele>1583.0</ele>
  <time>2026-08-28T17:56:10Z</time>
  <course>248.3</course>
  <speed>0.01</speed>
  <fix>3d</fix>
</trkpt>
<trkpt lat="40.0713749" lon="-105.229789">
  <ele>1583.0</ele>
  <time>2026-08-28T17:56:10Z</time>
  <course>0.0</course>
  <speed>0.0</speed>
  <fix>3d</fix>
</trkpt>
<trkpt lat="40.0713749" lon="-105.229789">
  <ele>1583.0</ele>
  <time>2026-08-28T17:56:10Z</time>
  <course>248.3</course>
  <speed>0.01</speed>
  <fix>3d</fix>
</trkpt>
<trkpt lat="40.0713749" lon="-105.229789">
  <ele>1583.0</ele>
  <time>2026-08-28T17:56:10Z</time>
  <course>0.0</course>
  <speed>0.0</speed>
  <fix>3d</fix>
</trkpt>
<trkpt lat="40.0713749" lon="-105.229789">
  <ele>1583.0</ele>
  <time>2026-08-28T17:56:10Z</time>
  <course>248.29</course>
  <speed>0.01</speed>
  <fix>3d</fix>
</trkpt>
<trkpt lat="40.0713749" lon="-105.229789">
  <ele>1583.0</ele>
  <time>2026-08-28T17:56:10Z</time>
  <course>0.0</course>
  <speed>0.0</speed>
  <fix>3d</fix>
</trkpt>
<trkpt lat="40.0713749" lon="-105.229789">
  <ele>1583.0</ele>
  <time>2026-08-28T17:56:10Z</time>
  <course>248.29</course>
  <speed>0.01</speed>
  <fix>3d</fix>
</trkpt>
<trkpt lat="40.0713749" lon="-105.229789">
  <ele>1583.0</ele>
  <time>2026-08-28T17:56:10Z</time>
  <course>0.0</course>
  <speed>0.0</speed>
  <fix>3d</fix>
</trkpt>
<trkpt lat="40.0713749" lon="-105.229789">
  <ele>1583.0</ele>
  <time>2026-08-28T17:56:10Z</time>
  <course>248.28</course>
  <speed>0.01</speed>
  <fix>3d</fix>
</trkpt>
<trkpt lat="40.0713749" lon="-105.229789">
  <ele>1583.0</ele>
  <time>2026-08-28T17:56:10Z</time>
  <course>0.0</course>
  <speed>0.0</speed>
  <fix>3d</fix>
</trkpt>
<trkpt lat="40.0713749" lon="-105.229789">
  <ele>1583.0</ele>
  <time>2026-08-28T17:56:10Z</time>
  <course>248.28</course>
  <speed>0.01</speed>
  <fix>3d</fix>
</trkpt>
<trkpt lat="40.0713749" lon="-105.229789">
  <ele>1583.0</ele>
  <time>2026-08-28T17:56:10Z</time>
  <course>0.0</course>
  <speed>0.0</speed>
  <fix>3d</fix>
</trkpt>
<trkpt lat="40.0713749" lon="-105.229789">
  <ele>1583.0</ele>
  <time>2026-08-28T17:56:10Z</time>
  <course>248.27</course>
  <speed>0.01</speed>
  <fix>3d</fix>
</trkpt>
<trkpt lat="40.0713749" lon="-105.229789">
  <ele>1583.0</ele>
  <time>2026-08-28T17:56:10Z</time>
  <course>0.0</course>
  <speed>0.0</speed>
  <fix>3d</fix>
</trkpt>
<trkpt lat="40.0713749" lon="-105.229789">
  <ele>1583.0</ele>
  <time>2026-08-28T17:56:10Z</time>
  <course>248.27</course>
  <speed>0.01</speed>
  <fix>3d</fix>
</trkpt>
<trkpt lat="40.0713749" lon="-105.229789">
  <ele>1583.0</ele>
  <time>2026-08-28T17:56:10Z</time>
  <course>0.0</course>
  <speed>0.0</speed>
  <fix>3d</fix>
</trkpt>
<trkpt lat="40.0713749" lon="-105.229789">
  <ele>1583.0</ele>
  <time>2026-08-28T17:56:10Z</time>
  <course>248.26</course>
  <speed>0.01</speed>
  <fix>3d</fix>
</trkpt>
<trkpt lat="40.0713749" lon="-105.229789">
  <ele>1583.0</ele>
  <time>2026-08-28T17:56:10Z</time>
  <course>0.0</course>
  <speed>0.0</speed>
  <fix>3d</fix>
</trkpt>
<trkpt lat="40.0713749" lon="-105.229789">
  <ele>1583.0</ele>
  <time>2026-08-28T17:56:10Z</time>
  <course>248.26</course>
  <speed>0.01</speed>
  <fix>3d</fix>
</trkpt>
<trkpt lat="40.0713749" lon="-105.229789">
  <ele>1583.0</ele>
  <time>2026-08-28T17:56:10Z</time>
  <course>0.0</course>
  <speed>0.0</speed>
  <fix>3d</fix>
</trkpt>
<trkpt lat="40.0713749" lon="-105.229789">
  <ele>1583.0</ele>
  <time>2026-08-28T17:56:10Z</time>
  <course>248.26</course>
  <speed>0.01</speed>
  <fix>3d</fix>
</trkpt>
<trkpt lat="40.0713749" lon="-105.229789">
  <ele>1583.0</ele>
  <time>2026-08-28T17:56:10Z</time>
  <course>0.0</course>
  <speed>0.0</speed>
  <fix>3d</fix>
</trkpt>
<trkpt lat="40.0713749" lon="-105.229789">
  <ele>1583.0</ele>
  <time>2026-08-28T17:56:10Z</time>
  <course>248.25</course>
  <speed>0.01</speed>
  <fix>3d</fix>
</trkpt>
<trkpt lat="40.0713749" lon="-105.229789">
  <ele>1583.0</ele>
  <time>2026-08-28T17:56:10Z</time>
  <course>0.0</course>
  <speed>0.0</speed>
  <fix>3d</fix>
</trkpt>
<trkpt lat="40.0713749" lon="-105.229789">
  <ele>1583.0</ele>
  <time>2026-08-28T17:56:10Z</time>
  <course>248.25</course>
  <speed>0.01</speed>
  <fix>3d</fix>
</trkpt>
<trkpt lat="40.0713749" lon="-105.229789">
  <ele>1583.0</ele>
  <time>2026-08-28T17:56:10Z</time>
  <course>0.0</course>
  <speed>0.0</speed>
  <fix>3d</fix>
</trkpt>
<trkpt lat="40.0713749" lon="-105.229789">
  <ele>1583.0</ele>
  <time>2026-08-28T17:56:10Z</time>
  <course>248.24</course>
  <speed>0.01</speed>
  <fix>3d</fix>
</trkpt>
<trkpt lat="40.0713749" lon="-105.229789">
  <ele>1583.0</ele>
  <time>2026-08-28T17:56:10Z</time>
  <course>0.0</course>
  <speed>0.0</speed>
  <fix>3d</fix>
</trkpt>
<trkpt lat="40.0713749" lon="-105.229789">
  <ele>1583.0</ele>
  <time>2026-08-28T17:56:10Z</time>
  <course>248.24</course>
  <speed>0.01</speed>
  <fix>3d</fix>
</trkpt>
<trkpt lat="40.0713749" lon="-105.229789">
  <ele>1583.0</ele>
  <time>2026-08-28T17:56:10Z</time>
  <course>0.0</course>
  <speed>0.0</speed>
  <fix>3d</fix>
</trkpt>
<trkpt lat="40.0713749" lon="-105.229789">
  <ele>1583.0</ele>
  <time>2026-08-28T17:56:10Z</time>
  <course>248.23</course>
  <speed>0.01</speed>
  <fix>3d</fix>
</trkpt>
<trkpt lat="40.0713749" lon="-105.229789">
  <ele>1583.0</ele>
  <time>2026-08-28T17:56:10Z</time>
  <course>0.0</course>
  <speed>0.0</speed>
  <fix>3d</fix>
</trkpt>
<trkpt lat="40.0713749" lon="-105.229789">
  <ele>1583.0</ele>
  <time>2026-08-28T17:56:10Z</time>
  <course>248.23</course>
  <speed>0.01</speed>
  <fix>3d</fix>
</trkpt>
<trkpt lat="40.0713749" lon="-105.229789">
  <ele>1583.0</ele>
  <time>2026-08-28T17:56:10Z</time>
  <course>0.0</course>
  <speed>0.0</speed>
  <fix>3d</fix>
</trkpt>
<trkpt lat="40.0713749" lon="-105.229789">
  <ele>1583.0</ele>
  <time>2026-08-28T17:56:10Z</time>
  <course>248.22</course>
  <speed>0.01</speed>
  <fix>3d</fix>
</trkpt>
<trkpt lat="40.0713749" lon="-105.229789">
  <ele>1583.0</ele>
  <time>2026-08-28T17:56:10Z</time>
  <course>0.0</course>
  <speed>0.0</speed>
  <fix>3d</fix>
</trkpt>
<trkpt lat="40.0713749" lon="-105.229789">
  <ele>1583.0</ele>
  <time>2026-08-28T17:56:10Z</time>
  <course>248.22</course>
  <speed>0.01</speed>
  <fix>3d</fix>
</trkpt>
<trkpt lat="40.0713749" lon="-105.229789">
  <ele>1583.0</ele>
  <time>2026-08-28T17:56:10Z</time>
  <course>0.0</course>
  <speed>0.0</speed>
  <fix>3d</fix>
</trkpt>
<trkpt lat="40.0713749" lon="-105.229789">
  <ele>1583.0</ele>
  <time>2026-08-28T17:56:10Z</time>
  <course>248.21</course>
  <speed>0.01</speed>
  <fix>3d</fix>
</trkpt>
<trkpt lat="40.0713749" lon="-105.229789">
  <ele>1583.0</ele>
  <time>2026-08-28T17:56:10Z</time>
  <course>0.0</course>
  <speed>0.0</speed>
  <fix>3d</fix>
</trkpt>
<trkpt lat="40.0713749" lon="-105.229789">
  <ele>1583.0</ele>
  <time>2026-08-28T17:56:10Z</time>
  <course>248.21</course>
  <speed>0.01</speed>
  <fix>3d</fix>
</trkpt>
<trkpt lat="40.0713749" lon="-105.229789">
  <ele>1583.0</ele>
  <time>2026-08-28T17:56:10Z</time>
  <course>0.0</course>
  <speed>0.0</speed>
  <fix>3d</fix>
</trkpt>
<trkpt lat="40.0713749" lon="-105.229789">
  <ele>1583.0</ele>
  <time>2026-08-28T17:56:10Z</time>
  <course>248.2</course>
  <speed>0.01</speed>
  <fix>3d</fix>
</trkpt>
<trkpt lat="40.0713749" lon="-105.229789">
  <ele>1583.0</ele>
  <time>2026-08-28T17:56:10Z</time>
  <course>0.0</course>
  <speed>0.0</speed>
  <fix>3d</fix>
</trkpt>
<trkpt lat="40.0713749" lon="-105.229789">
  <ele>1583.0</ele>
  <time>2026-08-28T17:56:10Z</time>
  <course>248.2</course>
  <speed>0.01</speed>
  <fix>3d</fix>
</trkpt>
<trkpt lat="40.0713749" lon="-105.229789">
  <ele>1583.0</ele>
  <time>2026-08-28T17:56:10Z</time>
  <course>0.0</course>
  <speed>0.0</speed>
  <fix>3d</fix>
</trkpt>
<trkpt lat="40.0713749" lon="-105.229789">
  <ele>1583.0</ele>
  <time>2026-08-28T17:56:10Z</time>
  <course>248.19</course>
  <speed>0.01</speed>
  <fix>3d</fix>
</trkpt>
<trkpt lat="40.0713749" lon="-105.229789">
  <ele>1583.0</ele>
  <time>2026-08-28T17:56:10Z</time>
  <course>0.0</course>
  <speed>0.0</speed>
  <fix>3d</fix>
</trkpt>
<trkpt lat="40.0713749" lon="-105.229789">
  <ele>1583.0</ele>
  <time>2026-08-28T17:56:10Z</time>
  <course>248.19</course>
  <speed>0.01</speed>
  <fix>3d</fix>
</trkpt>
<trkpt lat="40.0713749" lon="-105.229789">
  <ele>1583.0</ele>
  <time>2026-08-28T17:56:10Z</time>
  <course>0.0</course>
  <speed>0.0</speed>
  <fix>3d</fix>
</trkpt>
<trkpt lat="40.0713749" lon="-105.229789">
  <ele>1583.0</ele>
  <time>2026-08-28T17:56:10Z</time>
  <course>248.18</course>
  <speed>0.01</speed>
  <fix>3d</fix>
</trkpt>
<trkpt lat="40.0713749" lon="-105.229789">
  <ele>1583.0</ele>
  <time>2026-08-28T17:56:10Z</time>
  <course>0.0</course>
  <speed>0.0</speed>
  <fix>3d</fix>
</trkpt>
<trkpt lat="40.0713749" lon="-105.229789">
  <ele>1583.0</ele>
  <time>2026-08-28T17:56:10Z</time>
  <course>248.18</course>
  <speed>0.01</speed>
  <fix>3d</fix>
</trkpt>
<trkpt lat="40.0713749" lon="-105.229789">
  <ele>1583.0</ele>
  <time>2026-08-28T17:56:10Z</time>
  <course>0.0</course>
  <speed>0.0</speed>
  <fix>3d</fix>
</trkpt>
<trkpt lat="40.0713749" lon="-105.229789">
  <ele>1583.0</ele>
  <time>2026-08-28T17:56:10Z</time>
  <course>248.17</course>
  <speed>0.022360679774997897</speed>
  <fix>3d</fix>
</trkpt>
<trkpt lat="40.0713749" lon="-105.229789">
  <ele>1583.0</ele>
  <time>2026-08-28T17:56:10Z</time>
  <course>0.0</course>
  <speed>0.0</speed>
  <fix>3d</fix>
</trkpt>
<trkpt lat="40.0713749" lon="-105.229789">
  <ele>1583.0</ele>
  <time>2026-08-28T17:56:10Z</time>
  <course>248.17</course>
  <speed>0.022360679774997897</speed>
  <fix>3d</fix>
</trkpt>
<trkpt lat="40.0713749" lon="-105.229789">
  <ele>1583.0</ele>
  <time>2026-08-28T17:56:10Z</time>
  <course>0.0</course>
  <speed>0.0</speed>
  <fix>3d</fix>
</trkpt>
<trkpt lat="40.0713749" lon="-105.229789">
  <ele>1583.0</ele>
  <time>2026-08-28T17:56:10Z</time>
  <course>248.16</course>
  <speed>0.022360679774997897</speed>
  <fix>3d</fix>
</trkpt>
<trkpt lat="40.0713749" lon="-105.229789">
  <ele>1583.0</ele>
  <time>2026-08-28T17:56:10Z</time>
  <course>0.0</course>
  <speed>0.0</speed>
  <fix>3d</fix>
</trkpt>
<trkpt lat="40.0713749" lon="-105.229789">
  <ele>1583.0</ele>
  <time>2026-08-28T17:56:10Z</time>
  <course>248.16</course>
  <speed>0.022360679774997897</speed>
  <fix>3d</fix>
</trkpt>
<trkpt lat="40.0713749" lon="-105.229789">
  <ele>1583.0</ele>
  <time>2026-08-28T17:56:10Z</time>
  <course>0.0</course>
  <speed>0.0</speed>
  <fix>3d</fix>
</trkpt>
<trkpt lat="40.0713749" lon="-105.229789">
  <ele>1583.0</ele>
  <time>2026-08-28T17:56:10Z</time>
  <course>248.15</course>
  <speed>0.022360679774997897</speed>
  <fix>3d</fix>
</trkpt>
<trkpt lat="40.0713749" lon="-105.229789">
  <ele>1583.0</ele>
  <time>2026-08-28T17:56:10Z</time>
  <course>0.0</course>
  <speed>0.0</speed>
  <fix>3d</fix>
</trkpt>
<trkpt lat="40.0713749" lon="-105.229789">
  <ele>1583.0</ele>
  <time>2026-08-28T17:56:10Z</time>
  <course>248.15</course>
  <speed>0.022360679774997897</speed>
  <fix>3d</fix>
</trkpt>
<trkpt lat="40.0713749" lon="-105.229789">
  <ele>1583.0</ele>
  <time>2026-08-28T17:56:10Z</time>
  <course>0.0</course>
  <speed>0.0</speed>
  <fix>3d</fix>
</trkpt>
<trkpt lat="40.0713749" lon="-105.229789">
  <ele>1583.0</ele>
  <time>2026-08-28T17:56:10Z</time>
  <course>248.14</course>
  <speed>0.022360679774997897</speed>
  <fix>3d</fix>
</trkpt>
<trkpt lat="40.0713749" lon="-105.229789">
  <ele>1583.0</ele>
  <time>2026-08-28T17:56:10Z</time>
  <course>0.0</course>
  <speed>0.0</speed>
  <fix>3d</fix>
</trkpt>
<trkpt lat="40.0713749" lon="-105.229789">
  <ele>1583.0</ele>
  <time>2026-08-28T17:56:10Z</time>
  <course>248.14</course>
  <speed>0.022360679774997897</speed>
  <fix>3d</fix>
</trkpt>
<trkpt lat="40.0713749" lon="-105.229789">
  <ele>1583.0</ele>
  <time>2026-08-28T17:56:10Z</time>
  <course>0.0</course>
  <speed>0.0</speed>
  <fix>3d</fix>
</trkpt>
<trkpt lat="40.0713749" lon="-105.229789">
  <ele>1583.0</ele>
  <time>2026-08-28T17:56:10Z</time>
  <course>248.13</course>
  <speed>0.022360679774997897</speed>
  <fix>3d</fix>
</trkpt>
<trkpt lat="40.0713749" lon="-105.229789">
  <ele>1583.0</ele>
  <time>2026-08-28T17:56:10Z</time>
  <course>0.0</course>
  <speed>0.0</speed>
  <fix>3d</fix>
</trkpt>
<trkpt lat="40.0713749" lon="-105.229789">
  <ele>1583.0</ele>
  <time>2026-08-28T17:56:10Z</time>
  <course>248.13</course>
  <speed>0.022360679774997897</speed>
  <fix>3d</fix>
</trkpt>
<trkpt lat="40.0713749" lon="-105.229789">
  <ele>1583.0</ele>
  <time>2026-08-28T17:56:10Z</time>
  <course>0.0</course>
  <speed>0.0</speed>
  <fix>3d</fix>
</trkpt>
<trkpt lat="40.0713749" lon="-105.229789">
  <ele>1583.0</ele>
  <time>2026-08-28T17:56:10Z</time>
  <course>248.12</course>
  <speed>0.022360679774997897</speed>
  <fix>3d</fix>
</trkpt>
<trkpt lat="40.0713749" lon="-105.229789">
  <ele>1583.0</ele>
  <time>2026-08-28T17:56:10Z</time>
  <course>0.0</course>
  <speed>0.0</speed>
  <fix>3d</fix>
</trkpt>
<trkpt lat="40.0713749" lon="-105.229789">
  <ele>1583.0</ele>
  <time>2026-08-28T17:56:10Z</time>
  <course>248.12</course>
  <speed>0.022360679774997897</speed>
  <fix>3d</fix>
</trkpt>
<trkpt lat="40.0713749" lon="-105.229789">
  <ele>1583.0</ele>
  <time>2026-08-28T17:56:10Z</time>
  <course>0.0</course>
  <speed>0.0</speed>
  <fix>3d</fix>
</trkpt>
<trkpt lat="40.0713749" lon="-105.229789">
  <ele>1583.0</ele>
  <time>2026-08-28T17:56:10Z</time>
  <course>248.11</course>
  <speed>0.022360679774997897</speed>
  <fix>3d</fix>
</trkpt>
<trkpt lat="40.0713749" lon="-105.229789">
  <ele>1583.0</ele>
  <time>2026-08-28T17:56:10Z</time>
  <course>0.0</course>
  <speed>0.0</speed>
  <fix>3d</fix>
</trkpt>
<trkpt lat="40.0713749" lon="-105.229789">
  <ele>1583.0</ele>
  <time>2026-08-28T17:56:10Z</time>
  <course>248.11</course>
  <speed>0.022360679774997897</speed>
  <fix>3d</fix>
</trkpt>
<trkpt lat="40.0713749" lon="-105.229789">
  <ele>1583.0</ele>
  <time>2026-08-28T17:56:10Z</time>
  <course>0.0</course>
  <speed>0.0</speed>
  <fix>3d</fix>
</trkpt>
<trkpt lat="40.0713749" lon="-105.229789">
  <ele>1583.0</ele>
  <time>2026-08-28T17:56:10Z</time>
  <course>248.1</course>
  <speed>0.022360679774997897</speed>
  <fix>3d</fix>
</trkpt>
<trkpt lat="40.0713749" lon="-105.229789">
  <ele>1583.0</ele>
  <time>2026-08-28T17:56:10Z</time>
  <course>0.0</course>
  <speed>0.0</speed>
  <fix>3d</fix>
</trkpt>
<trkpt lat="40.0713749" lon="-105.229789">
  <ele>1583.0</ele>
  <time>2026-08-28T17:56:10Z</time>
  <course>248.1</course>
  <speed>0.022360679774997897</speed>
  <fix>3d</fix>
</trkpt>
<trkpt lat="40.0713749" lon="-105.229789">
  <ele>1583.0</ele>
  <time>2026-08-28T17:56:10Z</time>
  <course>0.0</course>
  <speed>0.0</speed>
  <fix>3d</fix>
</trkpt>
<trkpt lat="40.0713749" lon="-105.229789">
  <ele>1583.0</ele>
  <time>2026-08-28T17:56:10Z</time>
  <course>248.09</course>
  <speed>0.022360679774997897</speed>
  <fix>3d</fix>
</trkpt>
<trkpt lat="40.0713749" lon="-105.229789">
  <ele>1583.0</ele>
  <time>2026-08-28T17:56:10Z</time>
  <course>0.0</course>
  <speed>0.0</speed>
  <fix>3d</fix>
</trkpt>
<trkpt lat="40.0713749" lon="-105.229789">
  <ele>1583.0</ele>
  <time>2026-08-28T17:56:10Z</time>
  <course>248.09</course>
  <speed>0.022360679774997897</speed>
  <fix>3d</fix>
</trkpt>
<trkpt lat="40.0713749" lon="-105.229789">
  <ele>1583.0</ele>
  <time>2026-08-28T17:56:10Z</time>
  <course>0.0</course>
  <speed>0.0</speed>
  <fix>3d</fix>
</trkpt>
<trkpt lat="40.0713749" lon="-105.229789">
  <ele>1583.0</ele>
  <time>2026-08-28T17:56:10Z</time>
  <course>248.08</course>
  <speed>0.022360679774997897</speed>
  <fix>3d</fix>
</trkpt>
<trkpt lat="40.0713749" lon="-105.229789">
  <ele>1583.0</ele>
  <time>2026-08-28T17:56:10Z</time>
  <course>0.0</course>
  <speed>0.0</speed>
  <fix>3d</fix>
</trkpt>
<trkpt lat="40.0713749" lon="-105.229789">
  <ele>1583.0</ele>
  <time>2026-08-28T17:56:10Z</time>
  <course>248.08</course>
  <speed>0.022360679774997897</speed>
  <fix>3d</fix>
</trkpt>
<trkpt lat="40.0713749" lon="-105.229789">
  <ele>1583.0</ele>
  <time>2026-08-28T17:56:10Z</time>
  <course>0.0</course>
  <speed>0.0</speed>
  <fix>3d</fix>
</trkpt>
<trkpt lat="40.0713749" lon="-105.229789">
  <ele>1583.0</ele>
  <time>2026-08-28T17:56:10Z</time>
  <course>248.07</course>
  <speed>0.022360679774997897</speed>
  <fix>3d</fix>
</trkpt>
<trkpt lat="40.0713749" lon="-105.229789">
  <ele>1583.0</ele>
  <time>2026-08-28T17:56:10Z</time>
  <course>0.0</course>
  <speed>0.0</speed>
  <fix>3d</fix>
</trkpt>
<trkpt lat="40.0713749" lon="-105.229789">
  <ele>1583.0</ele>
  <time>2026-08-28T17:56:10Z</time>
  <course>248.07</course>
  <speed>0.022360679774997897</speed>
  <fix>3d</fix>
</trkpt>
<trkpt lat="40.0713749" lon="-105.229789">
  <ele>1583.0</ele>
  <time>2026-08-28T17:56:10Z</time>
  <course>0.0</course>
  <speed>0.0</speed>
  <fix>3d</fix>
</trkpt>
<trkpt lat="40.0713749" lon="-105.229789">
  <ele>1583.0</ele>
  <time>2026-08-28T17:56:10Z</time>
  <course>248.06</course>
  <speed>0.022360679774997897</speed>
  <fix>3d</fix>
</trkpt>
<trkpt lat="40.0713749" lon="-105.229789">
  <ele>1583.0</ele>
  <time>2026-08-28T17:56:10Z</time>
  <course>0.0</course>
  <speed>0.0</speed>
  <fix>3d</fix>
</trkpt>
<trkpt lat="40.0713749" lon="-105.229789">
  <ele>1583.0</ele>
  <time>2026-08-28T17:56:10Z</time>
  <course>248.06</course>
  <speed>0.022360679774997897</speed>
  <fix>3d</fix>
</trkpt>
<trkpt lat="40.0713749" lon="-105.229789">
  <ele>1583.0</ele>
  <time>2026-08-28T17:56:10Z</time>
  <course>0.0</course>
  <speed>0.0</speed>
  <fix>3d</fix>
</trkpt>
<trkpt lat="40.0713749" lon="-105.229789">
  <ele>1583.0</ele>
  <time>2026-08-28T17:56:10Z</time>
  <course>248.05</course>
  <speed>0.022360679774997897</speed>
  <fix>3d</fix>
</trkpt>
<trkpt lat="40.0713749" lon="-105.229789">
  <ele>1583.0</ele>
  <time>2026-08-28T17:56:10Z</time>
  <course>0.0</course>
  <speed>0.0</speed>
  <fix>3d</fix>
</trkpt>
<trkpt lat="40.0713749" lon="-105.229789">
  <ele>1583.0</ele>
  <time>2026-08-28T17:56:10Z</time>
  <course>248.05</course>
  <speed>0.022360679774997897</speed>
  <fix>3d</fix>
</trkpt>
<trkpt lat="40.0713749" lon="-105.229789">
  <ele>1583.0</ele>
  <time>2026-08-28T17:56:10Z</time>
  <course>0.0</course>
  <speed>0.0</speed>
  <fix>3d</fix>
</trkpt>
<trkpt lat="40.0713749" lon="-105.229789">
  <ele>1583.0</ele>
  <time>2026-08-28T17:56:10Z</time>
  <course>248.05</course>
  <speed>0.022360679774997897</speed>
  <fix>3d</fix>
</trkpt>
<trkpt lat="40.0713749" lon="-105.229789">
  <ele>1583.0</ele>
  <time>2026-08-28T17:56:10Z</time>
  <course>0.0</course>
  <speed>0.0</speed>
  <fix>3d</fix>
</trkpt>
<trkpt lat="40.0713749" lon="-105.229789">
  <ele>1583.0</ele>
  <time>2026-08-28T17:56:10Z</time>
  <course>248.04</course>
  <speed>0.022360679774997897</speed>
  <fix>3d</fix>
</trkpt>
<trkpt lat="40.0713749" lon="-105.229789">
  <ele>1583.0</ele>
  <time>2026-08-28T17:56:10Z</time>
  <course>0.0</course>
  <speed>0.0</speed>
  <fix>3d</fix>
</trkpt>
<trkpt lat="40.0713749" lon="-105.229789">
  <ele>1583.0</ele>
  <time>2026-08-28T17:56:10Z</time>
  <course>248.04</course>
  <speed>0.022360679774997897</speed>
  <fix>3d</fix>
</trkpt>
<trkpt lat="40.0713749" lon="-105.229789">
  <ele>1583.0</ele>
  <time>2026-08-28T17:56:10Z</time>
  <course>0.0</course>
  <speed>0.0</speed>
  <fix>3d</fix>
</trkpt>
<trkpt lat="40.0713749" lon="-105.229789">
  <ele>1583.0</ele>
  <time>2026-08-28T17:56:10Z</time>
  <course>248.03</course>
  <speed>0.022360679774997897</speed>
  <fix>3d</fix>
</trkpt>
<trkpt lat="40.0713749" lon="-105.229789">
  <ele>1583.0</ele>
  <time>2026-08-28T17:56:10Z</time>
  <course>0.0</course>
  <speed>0.0</speed>
  <fix>3d</fix>
</trkpt>
<trkpt lat="40.0713749" lon="-105.229789">
  <ele>1583.0</ele>
  <time>2026-08-28T17:56:10Z</time>
  <course>248.03</course>
  <speed>0.022360679774997897</speed>
  <fix>3d</fix>
</trkpt>
<trkpt lat="40.0713749" lon="-105.229789">
  <ele>1583.0</ele>
  <time>2026-08-28T17:56:10Z</time>
  <course>0.0</course>
  <speed>0.0</speed>
  <fix>3d</fix>
</trkpt>
<trkpt lat="40.0713749" lon="-105.229789">
  <ele>1583.0</ele>
  <time>2026-08-28T17:56:10Z</time>
  <course>248.02</course>
  <speed>0.022360679774997897</speed>
  <fix>3d</fix>
</trkpt>
<trkpt lat="40.0713749" lon="-105.229789">
  <ele>1583.0</ele>
  <time>2026-08-28T17:56:10Z</time>
  <course>0.0</course>
  <speed>0.0</speed>
  <fix>3d</fix>
</trkpt>
<trkpt lat="40.0713749" lon="-105.229789">
  <ele>1583.0</ele>
  <time>2026-08-28T17:56:10Z</time>
  <course>248.02</course>
  <speed>0.022360679774997897</speed>
  <fix>3d</fix>
</trkpt>
<trkpt lat="40.0713749" lon="-105.229789">
  <ele>1583.0</ele>
  <time>2026-08-28T17:56:10Z</time>
  <course>0.0</course>
  <speed>0.0</speed>
  <fix>3d</fix>
</trkpt>
<trkpt lat="40.0713749" lon="-105.229789">
  <ele>1583.0</ele>
  <time>2026-08-28T17:56:10Z</time>
  <course>248.01</course>
  <speed>0.022360679774997897</speed>
  <fix>3d</fix>
</trkpt>
<trkpt lat="40.0713749" lon="-105.229789">
  <ele>1583.0</ele>
  <time>2026-08-28T17:56:10Z</time>
  <course>0.0</course>
  <speed>0.0</speed>
  <fix>3d</fix>
</trkpt>
<trkpt lat="40.0713749" lon="-105.229789">
  <ele>1583.0</ele>
  <time>2026-08-28T17:56:10Z</time>
  <course>248.01</course>
  <speed>0.022360679774997897</speed>
  <fix>3d</fix>
</trkpt>
<trkpt lat="40.0713749" lon="-105.229789">
  <ele>1583.0</ele>
  <time>2026-08-28T17:56:10Z</time>
  <course>0.0</course>
  <speed>0.0</speed>
  <fix>3d</fix>
</trkpt>
<trkpt lat="40.0713749" lon="-105.229789">
  <ele>1583.0</ele>
  <time>2026-08-28T17:56:10Z</time>
  <course>248.0</course>
  <speed>0.022360679774997897</speed>
  <fix>3d</fix>
</trkpt>
<trkpt lat="40.0713749" lon="-105.229789">
  <ele>1583.0</ele>
  <time>2026-08-28T17:56:10Z</time>
  <course>0.0</course>
  <speed>0.0</speed>
  <fix>3d</fix>
</trkpt>
<trkpt lat="40.0713749" lon="-105.229789">
  <ele>1583.0</ele>
  <time>2026-08-28T17:56:10Z</time>
  <course>248.0</course>
  <speed>0.022360679774997897</speed>
  <fix>3d</fix>
</trkpt>
<trkpt lat="40.0713749" lon="-105.229789">
  <ele>1583.0</ele>
  <time>2026-08-28T17:56:10Z</time>
  <course>0.0</course>
  <speed>0.0</speed>
  <fix>3d</fix>
</trkpt>
<trkpt lat="40.0713749" lon="-105.229789">
  <ele>1583.0</ele>
  <time>2026-08-28T17:56:10Z</time>
  <course>247.99</course>
  <speed>0.022360679774997897</speed>
  <fix>3d</fix>
</trkpt>
<trkpt lat="40.0713749" lon="-105.229789">
  <ele>1583.0</ele>
  <time>2026-08-28T17:56:10Z</time>
  <course>0.0</course>
  <speed>0.0</speed>
  <fix>3d</fix>
</trkpt>
<trkpt lat="40.0713749" lon="-105.229789">
  <ele>1583.0</ele>
  <time>2026-08-28T17:56:10Z</time>
  <course>247.99</course>
  <speed>0.022360679774997897</speed>
  <fix>3d</fix>
</trkpt>
<trkpt lat="40.0713749" lon="-105.229789">
  <ele>1583.0</ele>
  <time>2026-08-28T17:56:10Z</time>
  <course>0.0</course>
  <speed>0.0</speed>
  <fix>3d</fix>
</trkpt>
<trkpt lat="40.0713749" lon="-105.229789">
  <ele>1583.0</ele>
  <time>2026-08-28T17:56:10Z</time>
  <course>247.99</course>
  <speed>0.022360679774997897</speed>
  <fix>3d</fix>
</trkpt>
<trkpt lat="40.0713749" lon="-105.229789">
  <ele>1583.0</ele>
  <time>2026-08-28T17:56:10Z</time>
  <course>0.0</course>
  <speed>0.0</speed>
  <fix>3d</fix>
</trkpt>
<trkpt lat="40.0713749" lon="-105.229789">
  <ele>1583.0</ele>
  <time>2026-08-28T17:56:10Z</time>
  <course>247.98</course>
  <speed>0.022360679774997897</speed>
  <fix>3d</fix>
</trkpt>
<trkpt lat="40.0713749" lon="-105.229789">
  <ele>1583.0</ele>
  <time>2026-08-28T17:56:10Z</time>
  <course>0.0</course>
  <speed>0.0</speed>
  <fix>3d</fix>
</trkpt>
<trkpt lat="40.0713749" lon="-105.229789">
  <ele>1583.0</ele>
  <time>2026-08-28T17:56:10Z</time>
  <course>247.98</course>
  <speed>0.022360679774997897</speed>
  <fix>3d</fix>
</trkpt>
<trkpt lat="40.0713749" lon="-105.229789">
  <ele>1583.0</ele>
  <time>2026-08-28T17:56:10Z</time>
  <course>0.0</course>
  <speed>0.0</speed>
  <fix>3d</fix>
</trkpt>
<trkpt lat="40.0713749" lon="-105.229789">
  <ele>1583.0</ele>
  <time>2026-08-28T17:56:10Z</time>
  <course>247.97</course>
  <speed>0.022360679774997897</speed>
  <fix>3d</fix>
</trkpt>
<trkpt lat="40.0713749" lon="-105.229789">
  <ele>1583.0</ele>
  <time>2026-08-28T17:56:10Z</time>
  <course>0.0</course>
  <speed>0.0</speed>
  <fix>3d</fix>
</trkpt>
<trkpt lat="40.0713749" lon="-105.229789">
  <ele>1583.0</ele>
  <time>2026-08-28T17:56:10Z</time>
  <course>247.97</course>
  <speed>0.022360679774997897</speed>
  <fix>3d</fix>
</trkpt>
<trkpt lat="40.0713749" lon="-105.229789">
  <ele>1583.0</ele>
  <time>2026-08-28T17:56:10Z</time>
  <course>0.0</course>
  <speed>0.0</speed>
  <fix>3d</fix>
</trkpt>
<trkpt lat="40.0713749" lon="-105.229789">
  <ele>1583.0</ele>
  <time>2026-08-28T17:56:10Z</time>
  <course>247.96</course>
  <speed>0.022360679774997897</speed>
  <fix>3d</fix>
</trkpt>
<trkpt lat="40.0713749" lon="-105.229789">
  <ele>1583.0</ele>
  <time>2026-08-28T17:56:10Z</time>
  <course>0.0</course>
  <speed>0.0</speed>
  <fix>3d</fix>
</trkpt>
<trkpt lat="40.0713749" lon="-105.229789">
  <ele>1583.0</ele>
  <time>2026-08-28T17:56:10Z</time>
  <course>247.96</course>
  <speed>0.022360679774997897</speed>
  <fix>3d</fix>
</trkpt>
<trkpt lat="40.0713749" lon="-105.229789">
  <ele>1583.0</ele>
  <time>2026-08-28T17:56:10Z</time>
  <course>0.0</course>
  <speed>0.0</speed>
  <fix>3d</fix>
</trkpt>
<trkpt lat="40.0713749" lon="-105.229789">
  <ele>1583.0</ele>
  <time>2026-08-28T17:56:10Z</time>
  <course>247.95</course>
  <speed>0.022360679774997897</speed>
  <fix>3d</fix>
</trkpt>
<trkpt lat="40.0713749" lon="-105.229789">
  <ele>1583.0</ele>
  <time>2026-08-28T17:56:10Z</time>
  <course>0.0</course>
  <speed>0.0</speed>
  <fix>3d</fix>
</trkpt>
<trkpt lat="40.0713749" lon="-105.229789">
  <ele>1583.0</ele>
  <time>2026-08-28T17:56:10Z</time>
  <course>247.95</course>
  <speed>0.022360679774997897</speed>
  <fix>3d</fix>
</trkpt>
<trkpt lat="40.0713749" lon="-105.229789">
  <ele>1583.0</ele>
  <time>2026-08-28T17:56:10Z</time>
  <course>0.0</course>
  <speed>0.0</speed>
  <fix>3d</fix>
</trkpt>
<trkpt lat="40.0713749" lon="-105.229789">
  <ele>1583.0</ele>
  <time>2026-08-28T17:56:10Z</time>
  <course>247.95</course>
  <speed>0.022360679774997897</speed>
  <fix>3d</fix>
</trkpt>
<trkpt lat="40.0713749" lon="-105.229789">
  <ele>1583.0</ele>
  <time>2026-08-28T17:56:10Z</time>
  <course>0.0</course>
  <speed>0.0</speed>
  <fix>3d</fix>
</trkpt>
<trkpt lat="40.0713749" lon="-105.229789">
  <ele>1583.0</ele>
  <time>2026-08-28T17:56:10Z</time>
  <course>247.94</course>
  <speed>0.022360679774997897</speed>
  <fix>3d</fix>
</trkpt>
<trkpt lat="40.0713749" lon="-105.229789">
  <ele>1583.0</ele>
  <time>2026-08-28T17:56:10Z</time>
  <course>0.0</course>
  <speed>0.0</speed>
  <fix>3d</fix>
</trkpt>
<trkpt lat="40.0713749" lon="-105.229789">
  <ele>1583.0</ele>
  <time>2026-08-28T17:56:10Z</time>
  <course>247.94</course>
  <speed>0.022360679774997897</speed>
  <fix>3d</fix>
</trkpt>
<trkpt lat="40.0713749" lon="-105.229789">
  <ele>1583.0</ele>
  <time>2026-08-28T17:56:10Z</time>
  <course>0.0</course>
  <speed>0.0</speed>
  <fix>3d</fix>
</trkpt>
<trkpt lat="40.0713749" lon="-105.229789">
  <ele>1583.0</ele>
  <time>2026-08-28T17:56:10Z</time>
  <course>247.93</course>
  <speed>0.022360679774997897</speed>
  <fix>3d</fix>
</trkpt>
<trkpt lat="40.0713749" lon="-105.229789">
  <ele>1583.0</ele>
  <time>2026-08-28T17:56:10Z</time>
  <course>0.0</course>
  <speed>0.0</speed>
  <fix>3d</fix>
</trkpt>
<trkpt lat="40.0713749" lon="-105.229789">
  <ele>1583.0</ele>
  <time>2026-08-28T17:56:10Z</time>
  <course>247.93</course>
  <speed>0.022360679774997897</speed>
  <fix>3d</fix>
</trkpt>
<trkpt lat="40.0713749" lon="-105.229789">
  <ele>1583.0</ele>
  <time>2026-08-28T17:56:10Z</time>
  <course>0.0</course>
  <speed>0.0</speed>
  <fix>3d</fix>
</trkpt>
<trkpt lat="40.0713749" lon="-105.229789">
  <ele>1583.0</ele>
  <time>2026-08-28T17:56:10Z</time>
  <course>247.92</course>
  <speed>0.022360679774997897</speed>
  <fix>3d</fix>
</trkpt>
<trkpt lat="40.0713749" lon="-105.229789">
  <ele>1583.0</ele>
  <time>2026-08-28T17:56:10Z</time>
  <course>0.0</course>
  <speed>0.0</speed>
  <fix>3d</fix>
</trkpt>
<trkpt lat="40.0713749" lon="-105.229789">
  <ele>1583.0</ele>
  <time>2026-08-28T17:56:10Z</time>
  <course>247.92</course>
  <speed>0.022360679774997897</speed>
  <fix>3d</fix>
</trkpt>
<trkpt lat="40.0713749" lon="-105.229789">
  <ele>1583.0</ele>
  <time>2026-08-28T17:56:10Z</time>
  <course>0.0</course>
  <speed>0.0</speed>
  <fix>3d</fix>
</trkpt>
<trkpt lat="40.0713749" lon="-105.229789">
  <ele>1583.0</ele>
  <time>2026-08-28T17:56:10Z</time>
  <course>247.92</course>
  <speed>0.022360679774997897</speed>
  <fix>3d</fix>
</trkpt>
<trkpt lat="40.0713749" lon="-105.229789">
  <ele>1583.0</ele>
  <time>2026-08-28T17:56:10Z</time>
  <course>0.0</course>
  <speed>0.0</speed>
  <fix>3d</fix>
</trkpt>
<trkpt lat="40.0713749" lon="-105.229789">
  <ele>1583.0</ele>
  <time>2026-08-28T17:56:10Z</time>
  <course>247.91</course>
  <speed>0.022360679774997897</speed>
  <fix>3d</fix>
</trkpt>
<trkpt lat="40.0713749" lon="-105.229789">
  <ele>1583.0</ele>
  <time>2026-08-28T17:56:10Z</time>
  <course>0.0</course>
  <speed>0.0</speed>
  <fix>3d</fix>
</trkpt>
<trkpt lat="40.0713749" lon="-105.229789">
  <ele>1583.0</ele>
  <time>2026-08-28T17:56:10Z</time>
  <course>247.91</course>
  <speed>0.022360679774997897</speed>
  <fix>3d</fix>
</trkpt>
<trkpt lat="40.0713749" lon="-105.229789">
  <ele>1583.0</ele>
  <time>2026-08-28T17:56:10Z</time>
  <course>0.0</course>
  <speed>0.0</speed>
  <fix>3d</fix>
</trkpt>
<trkpt lat="40.0713749" lon="-105.229789">
  <ele>1583.0</ele>
  <time>2026-08-28T17:56:10Z</time>
  <course>247.9</course>
  <speed>0.022360679774997897</speed>
  <fix>3d</fix>
</trkpt>
<trkpt lat="40.0713749" lon="-105.229789">
  <ele>1583.0</ele>
  <time>2026-08-28T17:56:10Z</time>
  <course>0.0</course>
  <speed>0.0</speed>
  <fix>3d</fix>
</trkpt>
<trkpt lat="40.0713749" lon="-105.229789">
  <ele>1583.0</ele>
  <time>2026-08-28T17:56:10Z</time>
  <course>247.9</course>
  <speed>0.022360679774997897</speed>
  <fix>3d</fix>
</trkpt>
<trkpt lat="40.0713749" lon="-105.229789">
  <ele>1583.0</ele>
  <time>2026-08-28T17:56:10Z</time>
  <course>0.0</course>
  <speed>0.0</speed>
  <fix>3d</fix>
</trkpt>
<trkpt lat="40.0713749" lon="-105.229789">
  <ele>1583.0</ele>
  <time>2026-08-28T17:56:10Z</time>
  <course>247.89</course>
  <speed>0.022360679774997897</speed>
  <fix>3d</fix>
</trkpt>
<trkpt lat="40.0713749" lon="-105.229789">
  <ele>1583.0</ele>
  <time>2026-08-28T17:56:10Z</time>
  <course>0.0</course>
  <speed>0.0</speed>
  <fix>3d</fix>
</trkpt>
<trkpt lat="40.0713749" lon="-105.229789">
  <ele>1583.0</ele>
  <time>2026-08-28T17:56:10Z</time>
  <course>247.89</course>
  <speed>0.022360679774997897</speed>
  <fix>3d</fix>
</trkpt>
<trkpt lat="40.0713749" lon="-105.229789">
  <ele>1583.0</ele>
  <time>2026-08-28T17:56:10Z</time>
  <course>0.0</course>
  <speed>0.0</speed>
  <fix>3d</fix>
</trkpt>
<trkpt lat="40.0713749" lon="-105.229789">
  <ele>1583.0</ele>
  <time>2026-08-28T17:56:10Z</time>
  <course>247.89</course>
  <speed>0.022360679774997897</speed>
  <fix>3d</fix>
</trkpt>
<trkpt lat="40.0713749" lon="-105.229789">
  <ele>1583.0</ele>
  <time>2026-08-28T17:56:10Z</time>
  <course>0.0</course>
  <speed>0.0</speed>
  <fix>3d</fix>
</trkpt>
<trkpt lat="40.0713749" lon="-105.229789">
  <ele>1583.0</ele>
  <time>2026-08-28T17:56:10Z</time>
  <course>247.88</course>
  <speed>0.0316227766016838</speed>
  <fix>3d</fix>
</trkpt>
<trkpt lat="40.0713749" lon="-105.229789">
  <ele>1583.0</ele>
  <time>2026-08-28T17:56:10Z</time>
  <course>0.0</course>
  <speed>0.0</speed>
  <fix>3d</fix>
</trkpt>
<trkpt lat="40.0713749" lon="-105.229789">
  <ele>1583.0</ele>
  <time>2026-08-28T17:56:10Z</time>
  <course>247.88</course>
  <speed>0.0316227766016838</speed>
  <fix>3d</fix>
</trkpt>
<trkpt lat="40.0713749" lon="-105.229789">
  <ele>1583.0</ele>
  <time>2026-08-28T17:56:10Z</time>
  <course>0.0</course>
  <speed>0.0</speed>
  <fix>3d</fix>
</trkpt>
<trkpt lat="40.0713749" lon="-105.229789">
  <ele>1583.0</ele>
  <time>2026-08-28T17:56:10Z</time>
  <course>247.87</course>
  <speed>0.0316227766016838</speed>
  <fix>3d</fix>
</trkpt>
<trkpt lat="40.0713749" lon="-105.229789">
  <ele>1583.0</ele>
  <time>2026-08-28T17:56:10Z</time>
  <course>0.0</course>
  <speed>0.0</speed>
  <fix>3d</fix>
</trkpt>
<trkpt lat="40.0713749" lon="-105.229789">
  <ele>1583.0</ele>
  <time>2026-08-28T17:56:10Z</time>
  <course>247.87</course>
  <speed>0.0316227766016838</speed>
  <fix>3d</fix>
</trkpt>
<trkpt lat="40.0713749" lon="-105.229789">
  <ele>1583.0</ele>
  <time>2026-08-28T17:56:10Z</time>
  <course>0.0</course>
  <speed>0.0</speed>
  <fix>3d</fix>
</trkpt>
<trkpt lat="40.0713749" lon="-105.229789">
  <ele>1583.0</ele>
  <time>2026-08-28T17:56:10Z</time>
  <course>247.87</course>
  <speed>0.0316227766016838</speed>
  <fix>3d</fix>
</trkpt>
<trkpt lat="40.0713749" lon="-105.229789">
  <ele>1583.0</ele>
  <time>2026-08-28T17:56:10Z</time>
  <course>0.0</course>
  <speed>0.0</speed>
  <fix>3d</fix>
</trkpt>
<trkpt lat="40.0713749" lon="-105.229789">
  <ele>1583.0</ele>
  <time>2026-08-28T17:56:10Z</time>
  <course>247.86</course>
  <speed>0.0316227766016838</speed>
  <fix>3d</fix>
</trkpt>
<trkpt lat="40.0713749" lon="-105.229789">
  <ele>1583.0</ele>
  <time>2026-08-28T17:56:10Z</time>
  <course>0.0</course>
  <speed>0.0</speed>
  <fix>3d</fix>
</trkpt>
<trkpt lat="40.0713749" lon="-105.229789">
  <ele>1583.0</ele>
  <time>2026-08-28T17:56:10Z</time>
  <course>247.86</course>
  <speed>0.0316227766016838</speed>
  <fix>3d</fix>
</trkpt>
<trkpt lat="40.0713749" lon="-105.229789">
  <ele>1583.0</ele>
  <time>2026-08-28T17:56:10Z</time>
  <course>0.0</course>
  <speed>0.0</speed>
  <fix>3d</fix>
</trkpt>
<trkpt lat="40.0713749" lon="-105.229789">
  <ele>1583.0</ele>
  <time>2026-08-28T17:56:10Z</time>
  <course>247.85</course>
  <speed>0.0316227766016838</speed>
  <fix>3d</fix>
</trkpt>
<trkpt lat="40.0713749" lon="-105.229789">
  <ele>1583.0</ele>
  <time>2026-08-28T17:56:10Z</time>
  <course>0.0</course>
  <speed>0.0</speed>
  <fix>3d</fix>
</trkpt>
<trkpt lat="40.0713749" lon="-105.229789">
  <ele>1583.0</ele>
  <time>2026-08-28T17:56:10Z</time>
  <course>247.85</course>
  <speed>0.0316227766016838</speed>
  <fix>3d</fix>
</trkpt>
<trkpt lat="40.0713749" lon="-105.229789">
  <ele>1583.0</ele>
  <time>2026-08-28T17:56:10Z</time>
  <course>0.0</course>
  <speed>0.0</speed>
  <fix>3d</fix>
</trkpt>
<trkpt lat="40.0713749" lon="-105.229789">
  <ele>1583.0</ele>
  <time>2026-08-28T17:56:10Z</time>
  <course>247.85</course>
  <speed>0.0316227766016838</speed>
  <fix>3d</fix>
</trkpt>
<trkpt lat="40.0713749" lon="-105.229789">
  <ele>1583.0</ele>
  <time>2026-08-28T17:56:10Z</time>
  <course>0.0</course>
  <speed>0.0</speed>
  <fix>3d</fix>
</trkpt>
<trkpt lat="40.0713749" lon="-105.229789">
  <ele>1583.0</ele>
  <time>2026-08-28T17:56:10Z</time>
  <course>247.84</course>
  <speed>0.0316227766016838</speed>
  <fix>3d</fix>
</trkpt>
<trkpt lat="40.0713749" lon="-105.229789">
  <ele>1583.0</ele>
  <time>2026-08-28T17:56:10Z</time>
  <course>0.0</course>
  <speed>0.0</speed>
  <fix>3d</fix>
</trkpt>
<trkpt lat="40.0713749" lon="-105.229789">
  <ele>1583.0</ele>
  <time>2026-08-28T17:56:10Z</time>
  <course>247.84</course>
  <speed>0.0316227766016838</speed>
  <fix>3d</fix>
</trkpt>
<trkpt lat="40.0713749" lon="-105.229789">
  <ele>1583.0</ele>
  <time>2026-08-28T17:56:10Z</time>
  <course>0.0</course>
  <speed>0.0</speed>
  <fix>3d</fix>
</trkpt>
<trkpt lat="40.0713749" lon="-105.229789">
  <ele>1583.0</ele>
  <time>2026-08-28T17:56:10Z</time>
  <course>247.83</course>
  <speed>0.0316227766016838</speed>
  <fix>3d</fix>
</trkpt>
<trkpt lat="40.0713749" lon="-105.229789">
  <ele>1583.0</ele>
  <time>2026-08-28T17:56:10Z</time>
  <course>0.0</course>
  <speed>0.0</speed>
  <fix>3d</fix>
</trkpt>
<trkpt lat="40.0713749" lon="-105.229789">
  <ele>1583.0</ele>
  <time>2026-08-28T17:56:10Z</time>
  <course>247.83</course>
  <speed>0.0316227766016838</speed>
  <fix>3d</fix>
</trkpt>
<trkpt lat="40.0713749" lon="-105.229789">
  <ele>1583.0</ele>
  <time>2026-08-28T17:56:10Z</time>
  <course>0.0</course>
  <speed>0.0</speed>
  <fix>3d</fix>
</trkpt>
<trkpt lat="40.0713749" lon="-105.229789">
  <ele>1583.0</ele>
  <time>2026-08-28T17:56:10Z</time>
  <course>247.83</course>
  <speed>0.0316227766016838</speed>
  <fix>3d</fix>
</trkpt>
<trkpt lat="40.0713749" lon="-105.229789">
  <ele>1583.0</ele>
  <time>2026-08-28T17:56:10Z</time>
  <course>0.0</course>
  <speed>0.0</speed>
  <fix>3d</fix>
</trkpt>
<trkpt lat="40.0713749" lon="-105.229789">
  <ele>1583.0</ele>
  <time>2026-08-28T17:56:10Z</time>
  <course>247.82</course>
  <speed>0.0316227766016838</speed>
  <fix>3d</fix>
</trkpt>
<trkpt lat="40.0713749" lon="-105.229789">
  <ele>1583.0</ele>
  <time>2026-08-28T17:56:10Z</time>
  <course>0.0</course>
  <speed>0.0</speed>
  <fix>3d</fix>
</trkpt>
<trkpt lat="40.0713749" lon="-105.229789">
  <ele>1583.0</ele>
  <time>2026-08-28T17:56:10Z</time>
  <course>247.82</course>
  <speed>0.0316227766016838</speed>
  <fix>3d</fix>
</trkpt>
<trkpt lat="40.0713749" lon="-105.229789">
  <ele>1583.0</ele>
  <time>2026-08-28T17:56:10Z</time>
  <course>0.0</course>
  <speed>0.0</speed>
  <fix>3d</fix>
</trkpt>
<trkpt lat="40.0713749" lon="-105.229789">
  <ele>1583.0</ele>
  <time>2026-08-28T17:56:10Z</time>
  <course>247.82</course>
  <speed>0.0316227766016838</speed>
  <fix>3d</fix>
</trkpt>
<trkpt lat="40.0713749" lon="-105.229789">
  <ele>1583.0</ele>
  <time>2026-08-28T17:56:10Z</time>
  <course>0.0</course>
  <speed>0.0</speed>
  <fix>3d</fix>
</trkpt>
<trkpt lat="40.0713749" lon="-105.229789">
  <ele>1583.0</ele>
  <time>2026-08-28T17:56:10Z</time>
  <course>247.81</course>
  <speed>0.0316227766016838</speed>
  <fix>3d</fix>
</trkpt>
<trkpt lat="40.0713749" lon="-105.229789">
  <ele>1583.0</ele>
  <time>2026-08-28T17:56:10Z</time>
  <course>0.0</course>
  <speed>0.0</speed>
  <fix>3d</fix>
</trkpt>
<trkpt lat="40.0713749" lon="-105.229789">
  <ele>1583.0</ele>
  <time>2026-08-28T17:56:10Z</time>
  <course>247.81</course>
  <speed>0.0316227766016838</speed>
  <fix>3d</fix>
</trkpt>
<trkpt lat="40.0713749" lon="-105.229789">
  <ele>1583.0</ele>
  <time>2026-08-28T17:56:10Z</time>
  <course>0.0</course>
  <speed>0.0</speed>
  <fix>3d</fix>
</trkpt>
<trkpt lat="40.0713749" lon="-105.229789">
  <ele>1583.0</ele>
  <time>2026-08-28T17:56:10Z</time>
  <course>247.8</course>
  <speed>0.0316227766016838</speed>
  <fix>3d</fix>
</trkpt>
<trkpt lat="40.0713749" lon="-105.229789">
  <ele>1583.0</ele>
  <time>2026-08-28T17:56:10Z</time>
  <course>0.0</course>
  <speed>0.0</speed>
  <fix>3d</fix>
</trkpt>
<trkpt lat="40.0713749" lon="-105.229789">
  <ele>1583.0</ele>
  <time>2026-08-28T17:56:10Z</time>
  <course>247.8</course>
  <speed>0.0316227766016838</speed>
  <fix>3d</fix>
</trkpt>
<trkpt lat="40.0713749" lon="-105.229789">
  <ele>1583.0</ele>
  <time>2026-08-28T17:56:10Z</time>
  <course>0.0</course>
  <speed>0.0</speed>
  <fix>3d</fix>
</trkpt>
<trkpt lat="40.0713749" lon="-105.229789">
  <ele>1583.0</ele>
  <time>2026-08-28T17:56:10Z</time>
  <course>247.8</course>
  <speed>0.0316227766016838</speed>
  <fix>3d</fix>
</trkpt>
<trkpt lat="40.0713749" lon="-105.229789">
  <ele>1583.0</ele>
  <time>2026-08-28T17:56:10Z</time>
  <course>0.0</course>
  <speed>0.0</speed>
  <fix>3d</fix>
</trkpt>
<trkpt lat="40.0713749" lon="-105.229789">
  <ele>1583.0</ele>
  <time>2026-08-28T17:56:10Z</time>
  <course>247.79</course>
  <speed>0.0316227766016838</speed>
  <fix>3d</fix>
</trkpt>
<trkpt lat="40.0713749" lon="-105.229789">
  <ele>1583.0</ele>
  <time>2026-08-28T17:56:10Z</time>
  <course>0.0</course>
  <speed>0.0</speed>
  <fix>3d</fix>
</trkpt>
<trkpt lat="40.0713749" lon="-105.229789">
  <ele>1583.0</ele>
  <time>2026-08-28T17:56:10Z</time>
  <course>247.79</course>
  <speed>0.0316227766016838</speed>
  <fix>3d</fix>
</trkpt>
<trkpt lat="40.0713749" lon="-105.229789">
  <ele>1583.0</ele>
  <time>2026-08-28T17:56:10Z</time>
  <course>0.0</course>
  <speed>0.0</speed>
  <fix>3d</fix>
</trkpt>
<trkpt lat="40.0713749" lon="-105.229789">
  <ele>1583.0</ele>
  <time>2026-08-28T17:56:10Z</time>
  <course>247.79</course>
  <speed>0.0316227766016838</speed>
  <fix>3d</fix>
</trkpt>
<trkpt lat="40.0713749" lon="-105.229789">
  <ele>1583.0</ele>
  <time>2026-08-28T17:56:10Z</time>
  <course>0.0</course>
  <speed>0.0</speed>
  <fix>3d</fix>
</trkpt>
<trkpt lat="40.0713749" lon="-105.229789">
  <ele>1583.0</ele>
  <time>2026-08-28T17:56:10Z</time>
  <course>247.78</course>
  <speed>0.0316227766016838</speed>
  <fix>3d</fix>
</trkpt>
<trkpt lat="40.0713749" lon="-105.229789">
  <ele>1583.0</ele>
  <time>2026-08-28T17:56:10Z</time>
  <course>0.0</course>
  <speed>0.0</speed>
  <fix>3d</fix>
</trkpt>
<trkpt lat="40.0713749" lon="-105.229789">
  <ele>1583.0</ele>
  <time>2026-08-28T17:56:10Z</time>
  <course>247.78</course>
  <speed>0.0316227766016838</speed>
  <fix>3d</fix>
</trkpt>
<trkpt lat="40.0713749" lon="-105.229789">
  <ele>1583.0</ele>
  <time>2026-08-28T17:56:10Z</time>
  <course>0.0</course>
  <speed>0.0</speed>
  <fix>3d</fix>
</trkpt>
<trkpt lat="40.0713749" lon="-105.229789">
  <ele>1583.0</ele>
  <time>2026-08-28T17:56:10Z</time>
  <course>247.78</course>
  <speed>0.0316227766016838</speed>
  <fix>3d</fix>
</trkpt>
<trkpt lat="40.0713749" lon="-105.229789">
  <ele>1583.0</ele>
  <time>2026-08-28T17:56:10Z</time>
  <course>0.0</course>
  <speed>0.0</speed>
  <fix>3d</fix>
</trkpt>
<trkpt lat="40.0713749" lon="-105.229789">
  <ele>1583.0</ele>
  <time>2026-08-28T17:56:10Z</time>
  <course>247.77</course>
  <speed>0.0316227766016838</speed>
  <fix>3d</fix>
</trkpt>
<trkpt lat="40.0713749" lon="-105.229789">
  <ele>1583.0</ele>
  <time>2026-08-28T17:56:10Z</time>
  <course>0.0</course>
  <speed>0.0</speed>
  <fix>3d</fix>
</trkpt>
<trkpt lat="40.0713749" lon="-105.229789">
  <ele>1583.0</ele>
  <time>2026-08-28T17:56:10Z</time>
  <course>247.77</course>
  <speed>0.0316227766016838</speed>
  <fix>3d</fix>
</trkpt>
<trkpt lat="40.0713749" lon="-105.229789">
  <ele>1583.0</ele>
  <time>2026-08-28T17:56:10Z</time>
  <course>0.0</course>
  <speed>0.0</speed>
  <fix>3d</fix>
</trkpt>
<trkpt lat="40.0713749" lon="-105.229789">
  <ele>1583.0</ele>
  <time>2026-08-28T17:56:10Z</time>
  <course>247.76</course>
  <speed>0.0316227766016838</speed>
  <fix>3d</fix>
</trkpt>
<trkpt lat="40.0713749" lon="-105.229789">
  <ele>1583.0</ele>
  <time>2026-08-28T17:56:10Z</time>
  <course>0.0</course>
  <speed>0.0</speed>
  <fix>3d</fix>
</trkpt>
<trkpt lat="40.0713749" lon="-105.229789">
  <ele>1583.0</ele>
  <time>2026-08-28T17:56:10Z</time>
  <course>247.76</course>
  <speed>0.0316227766016838</speed>
  <fix>3d</fix>
</trkpt>
<trkpt lat="40.0713749" lon="-105.229789">
  <ele>1583.0</ele>
  <time>2026-08-28T17:56:10Z</time>
  <course>0.0</course>
  <speed>0.0</speed>
  <fix>3d</fix>
</trkpt>
<trkpt lat="40.0713749" lon="-105.229789">
  <ele>1583.0</ele>
  <time>2026-08-28T17:56:10Z</time>
  <course>247.76</course>
  <speed>0.0316227766016838</speed>
  <fix>3d</fix>
</trkpt>
<trkpt lat="40.0713749" lon="-105.229789">
  <ele>1583.0</ele>
  <time>2026-08-28T17:56:10Z</time>
  <course>0.0</course>
  <speed>0.0</speed>
  <fix>3d</fix>
</trkpt>
<trkpt lat="40.0713749" lon="-105.229789">
  <ele>1583.0</ele>
  <time>2026-08-28T17:56:10Z</time>
  <course>247.75</course>
  <speed>0.0316227766016838</speed>
  <fix>3d</fix>
</trkpt>
<trkpt lat="40.0713749" lon="-105.229789">
  <ele>1583.0</ele>
  <time>2026-08-28T17:56:10Z</time>
  <course>0.0</course>
  <speed>0.0</speed>
  <fix>3d</fix>
</trkpt>
<trkpt lat="40.0713749" lon="-105.229789">
  <ele>1583.0</ele>
  <time>2026-08-28T17:56:10Z</time>
  <course>247.75</course>
  <speed>0.0316227766016838</speed>
  <fix>3d</fix>
</trkpt>
<trkpt lat="40.0713749" lon="-105.229789">
  <ele>1583.0</ele>
  <time>2026-08-28T17:56:10Z</time>
  <course>0.0</course>
  <speed>0.0</speed>
  <fix>3d</fix>
</trkpt>
<trkpt lat="40.0713749" lon="-105.229789">
  <ele>1583.0</ele>
  <time>2026-08-28T17:56:10Z</time>
  <course>247.75</course>
  <speed>0.0316227766016838</speed>
  <fix>3d</fix>
</trkpt>
<trkpt lat="40.0713749" lon="-105.229789">
  <ele>1583.0</ele>
  <time>2026-08-28T17:56:10Z</time>
  <course>0.0</course>
  <speed>0.0</speed>
  <fix>3d</fix>
</trkpt>
<trkpt lat="40.0713749" lon="-105.229789">
  <ele>1583.0</ele>
  <time>2026-08-28T17:56:10Z</time>
  <course>247.74</course>
  <speed>0.0316227766016838</speed>
  <fix>3d</fix>
</trkpt>
<trkpt lat="40.0713749" lon="-105.229789">
  <ele>1583.0</ele>
  <time>2026-08-28T17:56:10Z</time>
  <course>0.0</course>
  <speed>0.0</speed>
  <fix>3d</fix>
</trkpt>
<trkpt lat="40.0713749" lon="-105.229789">
  <ele>1583.0</ele>
  <time>2026-08-28T17:56:10Z</time>
  <course>247.74</course>
  <speed>0.0316227766016838</speed>
  <fix>3d</fix>
</trkpt>
<trkpt lat="40.0713749" lon="-105.229789">
  <ele>1583.0</ele>
  <time>2026-08-28T17:56:10Z</time>
  <course>0.0</course>
  <speed>0.0</speed>
  <fix>3d</fix>
</trkpt>
<trkpt lat="40.0713749" lon="-105.229789">
  <ele>1583.0</ele>
  <time>2026-08-28T17:56:10Z</time>
  <course>247.74</course>
  <speed>0.0316227766016838</speed>
  <fix>3d</fix>
</trkpt>
<trkpt lat="40.0713749" lon="-105.229789">
  <ele>1583.0</ele>
  <time>2026-08-28T17:56:10Z</time>
  <course>0.0</course>
  <speed>0.0</speed>
  <fix>3d</fix>
</trkpt>
<trkpt lat="40.0713749" lon="-105.229789">
  <ele>1583.0</ele>
  <time>2026-08-28T17:56:10Z</time>
  <course>247.73</course>
  <speed>0.0316227766016838</speed>
  <fix>3d</fix>
</trkpt>
<trkpt lat="40.0713749" lon="-105.229789">
  <ele>1583.0</ele>
  <time>2026-08-28T17:56:10Z</time>
  <course>0.0</course>
  <speed>0.0</speed>
  <fix>3d</fix>
</trkpt>
<trkpt lat="40.0713749" lon="-105.229789">
  <ele>1583.0</ele>
  <time>2026-08-28T17:56:10Z</time>
  <course>247.73</course>
  <speed>0.0316227766016838</speed>
  <fix>3d</fix>
</trkpt>
<trkpt lat="40.0713749" lon="-105.229789">
  <ele>1583.0</ele>
  <time>2026-08-28T17:56:10Z</time>
  <course>0.0</course>
  <speed>0.0</speed>
  <fix>3d</fix>
</trkpt>
<trkpt lat="40.0713749" lon="-105.229789">
  <ele>1583.0</ele>
  <time>2026-08-28T17:56:10Z</time>
  <course>247.73</course>
  <speed>0.0316227766016838</speed>
  <fix>3d</fix>
</trkpt>
<trkpt lat="40.0713749" lon="-105.229789">
  <ele>1583.0</ele>
  <time>2026-08-28T17:56:10Z</time>
  <course>0.0</course>
  <speed>0.0</speed>
  <fix>3d</fix>
</trkpt>
<trkpt lat="40.0713749" lon="-105.229789">
  <ele>1583.0</ele>
  <time>2026-08-28T17:56:10Z</time>
  <course>247.72</course>
  <speed>0.0316227766016838</speed>
  <fix>3d</fix>
</trkpt>
<trkpt lat="40.0713749" lon="-105.229789">
  <ele>1583.0</ele>
  <time>2026-08-28T17:56:10Z</time>
  <course>0.0</course>
  <speed>0.0</speed>
  <fix>3d</fix>
</trkpt>
<trkpt lat="40.0713749" lon="-105.229789">
  <ele>1583.0</ele>
  <time>2026-08-28T17:56:10Z</time>
  <course>247.72</course>
  <speed>0.0316227766016838</speed>
  <fix>3d</fix>
</trkpt>
<trkpt lat="40.0713749" lon="-105.229789">
  <ele>1583.0</ele>
  <time>2026-08-28T17:56:10Z</time>
  <course>0.0</course>
  <speed>0.0</speed>
  <fix>3d</fix>
</trkpt>
<trkpt lat="40.0713749" lon="-105.229789">
  <ele>1583.0</ele>
  <time>2026-08-28T17:56:10Z</time>
  <course>247.72</course>
  <speed>0.0316227766016838</speed>
  <fix>3d</fix>
</trkpt>
<trkpt lat="40.0713749" lon="-105.229789">
  <ele>1583.0</ele>
  <time>2026-08-28T17:56:10Z</time>
  <course>0.0</course>
  <speed>0.0</speed>
  <fix>3d</fix>
</trkpt>
<trkpt lat="40.0713749" lon="-105.229789">
  <ele>1583.0</ele>
  <time>2026-08-28T17:56:10Z</time>
  <course>247.71</course>
  <speed>0.0316227766016838</speed>
  <fix>3d</fix>
</trkpt>
<trkpt lat="40.0713749" lon="-105.229789">
  <ele>1583.0</ele>
  <time>2026-08-28T17:56:10Z</time>
  <course>0.0</course>
  <speed>0.0</speed>
  <fix>3d</fix>
</trkpt>
<trkpt lat="40.0713749" lon="-105.229789">
  <ele>1583.0</ele>
  <time>2026-08-28T17:56:10Z</time>
  <course>247.71</course>
  <speed>0.0316227766016838</speed>
  <fix>3d</fix>
</trkpt>
<trkpt lat="40.0713749" lon="-105.229789">
  <ele>1583.0</ele>
  <time>2026-08-28T17:56:10Z</time>
  <course>0.0</course>
  <speed>0.0</speed>
  <fix>3d</fix>
</trkpt>
<trkpt lat="40.0713749" lon="-105.229789">
  <ele>1583.0</ele>
  <time>2026-08-28T17:56:10Z</time>
  <course>247.71</course>
  <speed>0.0316227766016838</speed>
  <fix>3d</fix>
</trkpt>
<trkpt lat="40.0713749" lon="-105.229789">
  <ele>1583.0</ele>
  <time>2026-08-28T17:56:10Z</time>
  <course>0.0</course>
  <speed>0.0</speed>
  <fix>3d</fix>
</trkpt>
<trkpt lat="40.0713749" lon="-105.229789">
  <ele>1583.0</ele>
  <time>2026-08-28T17:56:10Z</time>
  <course>247.7</course>
  <speed>0.0316227766016838</speed>
  <fix>3d</fix>
</trkpt>
<trkpt lat="40.0713749" lon="-105.229789">
  <ele>1583.0</ele>
  <time>2026-08-28T17:56:10Z</time>
  <course>0.0</course>
  <speed>0.0</speed>
  <fix>3d</fix>
</trkpt>
<trkpt lat="40.0713749" lon="-105.229789">
  <ele>1583.0</ele>
  <time>2026-08-28T17:56:10Z</time>
  <course>247.7</course>
  <speed>0.0316227766016838</speed>
  <fix>3d</fix>
</trkpt>
<trkpt lat="40.0713749" lon="-105.229789">
  <ele>1583.0</ele>
  <time>2026-08-28T17:56:10Z</time>
  <course>0.0</course>
  <speed>0.0</speed>
  <fix>3d</fix>
</trkpt>
<trkpt lat="40.0713749" lon="-105.229789">
  <ele>1583.0</ele>
  <time>2026-08-28T17:56:10Z</time>
  <course>247.7</course>
  <speed>0.0316227766016838</speed>
  <fix>3d</fix>
</trkpt>
<trkpt lat="40.0713749" lon="-105.229789">
  <ele>1583.0</ele>
  <time>2026-08-28T17:56:10Z</time>
  <course>0.0</course>
  <speed>0.0</speed>
  <fix>3d</fix>
</trkpt>
<trkpt lat="40.0713749" lon="-105.229789">
  <ele>1583.0</ele>
  <time>2026-08-28T17:56:10Z</time>
  <course>247.69</course>
  <speed>0.0316227766016838</speed>
  <fix>3d</fix>
</trkpt>
<trkpt lat="40.0713749" lon="-105.229789">
  <ele>1583.0</ele>
  <time>2026-08-28T17:56:10Z</time>
  <course>0.0</course>
  <speed>0.0</speed>
  <fix>3d</fix>
</trkpt>
<trkpt lat="40.0713749" lon="-105.229789">
  <ele>1583.0</ele>
  <time>2026-08-28T17:56:10Z</time>
  <course>247.69</course>
  <speed>0.0316227766016838</speed>
  <fix>3d</fix>
</trkpt>
<trkpt lat="40.0713749" lon="-105.229789">
  <ele>1583.0</ele>
  <time>2026-08-28T17:56:10Z</time>
  <course>0.0</course>
  <speed>0.0</speed>
  <fix>3d</fix>
</trkpt>
<trkpt lat="40.0713749" lon="-105.229789">
  <ele>1583.0</ele>
  <time>2026-08-28T17:56:10Z</time>
  <course>247.69</course>
  <speed>0.0316227766016838</speed>
  <fix>3d</fix>
</trkpt>
<trkpt lat="40.0713749" lon="-105.229789">
  <ele>1583.0</ele>
  <time>2026-08-28T17:56:10Z</time>
  <course>0.0</course>
  <speed>0.0</speed>
  <fix>3d</fix>
</trkpt>
<trkpt lat="40.0713749" lon="-105.229789">
  <ele>1583.0</ele>
  <time>2026-08-28T17:56:10Z</time>
  <course>247.68</course>
  <speed>0.0316227766016838</speed>
  <fix>3d</fix>
</trkpt>
<trkpt lat="40.0713749" lon="-105.229789">
  <ele>1583.0</ele>
  <time>2026-08-28T17:56:10Z</time>
  <course>0.0</course>
  <speed>0.0</speed>
  <fix>3d</fix>
</trkpt>
<trkpt lat="40.0713749" lon="-105.229789">
  <ele>1583.0</ele>
  <time>2026-08-28T17:56:10Z</time>
  <course>247.68</course>
  <speed>0.0316227766016838</speed>
  <fix>3d</fix>
</trkpt>
<trkpt lat="40.0713749" lon="-105.229789">
  <ele>1583.0</ele>
  <time>2026-08-28T17:56:10Z</time>
  <course>0.0</course>
  <speed>0.0</speed>
  <fix>3d</fix>
</trkpt>
<trkpt lat="40.0713749" lon="-105.229789">
  <ele>1583.0</ele>
  <time>2026-08-28T17:56:10Z</time>
  <course>247.68</course>
  <speed>0.0316227766016838</speed>
  <fix>3d</fix>
</trkpt>
<trkpt lat="40.0713749" lon="-105.229789">
  <ele>1583.0</ele>
  <time>2026-08-28T17:56:10Z</time>
  <course>0.0</course>
  <speed>0.0</speed>
  <fix>3d</fix>
</trkpt>
<trkpt lat="40.0713749" lon="-105.229789">
  <ele>1583.0</ele>
  <time>2026-08-28T17:56:10Z</time>
  <course>247.67</course>
  <speed>0.0316227766016838</speed>
  <fix>3d</fix>
</trkpt>
<trkpt lat="40.0713749" lon="-105.229789">
  <ele>1583.0</ele>
  <time>2026-08-28T17:56:10Z</time>
  <course>0.0</course>
  <speed>0.0</speed>
  <fix>3d</fix>
</trkpt>
<trkpt lat="40.0713749" lon="-105.229789">
  <ele>1583.0</ele>
  <time>2026-08-28T17:56:10Z</time>
  <course>247.67</course>
  <speed>0.0316227766016838</speed>
  <fix>3d</fix>
</trkpt>
<trkpt lat="40.0713749" lon="-105.229789">
  <ele>1583.0</ele>
  <time>2026-08-28T17:56:10Z</time>
  <course>0.0</course>
  <speed>0.0</speed>
  <fix>3d</fix>
</trkpt>
<trkpt lat="40.0713749" lon="-105.229789">
  <ele>1583.0</ele>
  <time>2026-08-28T17:56:10Z</time>
  <course>247.67</course>
  <speed>0.0316227766016838</speed>
  <fix>3d</fix>
</trkpt>
<trkpt lat="40.0713749" lon="-105.229789">
  <ele>1583.0</ele>
  <time>2026-08-28T17:56:10Z</time>
  <course>0.0</course>
  <speed>0.0</speed>
  <fix>3d</fix>
</trkpt>
<trkpt lat="40.0713749" lon="-105.229789">
  <ele>1583.0</ele>
  <time>2026-08-28T17:56:10Z</time>
  <course>247.66</course>
  <speed>0.0316227766016838</speed>
  <fix>3d</fix>
</trkpt>
<trkpt lat="40.0713749" lon="-105.229789">
  <ele>1583.0</ele>
  <time>2026-08-28T17:56:10Z</time>
  <course>0.0</course>
  <speed>0.0</speed>
  <fix>3d</fix>
</trkpt>
<trkpt lat="40.0713749" lon="-105.229789">
  <ele>1583.0</ele>
  <time>2026-08-28T17:56:10Z</time>
  <course>247.66</course>
  <speed>0.0316227766016838</speed>
  <fix>3d</fix>
</trkpt>
<trkpt lat="40.0713749" lon="-105.229789">
  <ele>1583.0</ele>
  <time>2026-08-28T17:56:10Z</time>
  <course>0.0</course>
  <speed>0.0</speed>
  <fix>3d</fix>
</trkpt>
<trkpt lat="40.0713749" lon="-105.229789">
  <ele>1583.0</ele>
  <time>2026-08-28T17:56:10Z</time>
  <course>247.66</course>
  <speed>0.0316227766016838</speed>
  <fix>3d</fix>
</trkpt>
<trkpt lat="40.0713749" lon="-105.229789">
  <ele>1583.0</ele>
  <time>2026-08-28T17:56:10Z</time>
  <course>0.0</course>
  <speed>0.0</speed>
  <fix>3d</fix>
</trkpt>
<trkpt lat="40.0713749" lon="-105.229789">
  <ele>1583.0</ele>
  <time>2026-08-28T17:56:10Z</time>
  <course>247.65</course>
  <speed>0.0316227766016838</speed>
  <fix>3d</fix>
</trkpt>
<trkpt lat="40.0713749" lon="-105.229789">
  <ele>1583.0</ele>
  <time>2026-08-28T17:56:10Z</time>
  <course>0.0</course>
  <speed>0.0</speed>
  <fix>3d</fix>
</trkpt>
<trkpt lat="40.0713749" lon="-105.229789">
  <ele>1583.0</ele>
  <time>2026-08-28T17:56:10Z</time>
  <course>247.65</course>
  <speed>0.0316227766016838</speed>
  <fix>3d</fix>
</trkpt>
<trkpt lat="40.0713749" lon="-105.229789">
  <ele>1583.0</ele>
  <time>2026-08-28T17:56:10Z</time>
  <course>0.0</course>
  <speed>0.0</speed>
  <fix>3d</fix>
</trkpt>
<trkpt lat="40.0713749" lon="-105.229789">
  <ele>1583.0</ele>
  <time>2026-08-28T17:56:10Z</time>
  <course>247.65</course>
  <speed>0.0316227766016838</speed>
  <fix>3d</fix>
</trkpt>
<trkpt lat="40.0713749" lon="-105.229789">
  <ele>1583.0</ele>
  <time>2026-08-28T17:56:10Z</time>
  <course>0.0</course>
  <speed>0.0</speed>
  <fix>3d</fix>
</trkpt>
<trkpt lat="40.0713749" lon="-105.229789">
  <ele>1583.0</ele>
  <time>2026-08-28T17:56:10Z</time>
  <course>247.64</course>
  <speed>0.0316227766016838</speed>
  <fix>3d</fix>
</trkpt>
<trkpt lat="40.0713749" lon="-105.229789">
  <ele>1583.0</ele>
  <time>2026-08-28T17:56:10Z</time>
  <course>0.0</course>
  <speed>0.0</speed>
  <fix>3d</fix>
</trkpt>
<trkpt lat="40.0713749" lon="-105.229789">
  <ele>1583.0</ele>
  <time>2026-08-28T17:56:10Z</time>
  <course>247.64</course>
  <speed>0.0316227766016838</speed>
  <fix>3d</fix>
</trkpt>
<trkpt lat="40.0713749" lon="-105.229789">
  <ele>1583.0</ele>
  <time>2026-08-28T17:56:10Z</time>
  <course>0.0</course>
  <speed>0.0</speed>
  <fix>3d</fix>
</trkpt>
<trkpt lat="40.0713749" lon="-105.229789">
  <ele>1583.0</ele>
  <time>2026-08-28T17:56:10Z</time>
  <course>247.64</course>
  <speed>0.0316227766016838</speed>
  <fix>3d</fix>
</trkpt>
<trkpt lat="40.0713749" lon="-105.229789">
  <ele>1583.0</ele>
  <time>2026-08-28T17:56:10Z</time>
  <course>0.0</course>
  <speed>0.0</speed>
  <fix>3d</fix>
</trkpt>
<trkpt lat="40.0713749" lon="-105.229789">
  <ele>1583.0</ele>
  <time>2026-08-28T17:56:10Z</time>
  <course>247.64</course>
  <speed>0.0316227766016838</speed>
  <fix>3d</fix>
</trkpt>
<trkpt lat="40.0713749" lon="-105.229789">
  <ele>1583.0</ele>
  <time>2026-08-28T17:56:10Z</time>
  <course>0.0</course>
  <speed>0.0</speed>
  <fix>3d</fix>
</trkpt>
<trkpt lat="40.0713749" lon="-105.229789">
  <ele>1583.0</ele>
  <time>2026-08-28T17:56:10Z</time>
  <course>247.63</course>
  <speed>0.0316227766016838</speed>
  <fix>3d</fix>
</trkpt>
<trkpt lat="40.0713749" lon="-105.229789">
  <ele>1583.0</ele>
  <time>2026-08-28T17:56:10Z</time>
  <course>0.0</course>
  <speed>0.0</speed>
  <fix>3d</fix>
</trkpt>
<trkpt lat="40.0713749" lon="-105.229789">
  <ele>1583.0</ele>
  <time>2026-08-28T17:56:10Z</time>
  <course>247.63</course>
  <speed>0.0316227766016838</speed>
  <fix>3d</fix>
</trkpt>
<trkpt lat="40.0713749" lon="-105.229789">
  <ele>1583.0</ele>
  <time>2026-08-28T17:56:10Z</time>
  <course>0.0</course>
  <speed>0.0</speed>
  <fix>3d</fix>
</trkpt>
<trkpt lat="40.0713749" lon="-105.229789">
  <ele>1583.0</ele>
  <time>2026-08-28T17:56:10Z</time>
  <course>247.63</course>
  <speed>0.0316227766016838</speed>
  <fix>3d</fix>
</trkpt>
<trkpt lat="40.0713749" lon="-105.229789">
  <ele>1583.0</ele>
  <time>2026-08-28T17:56:10Z</time>
  <course>0.0</course>
  <speed>0.0</speed>
  <fix>3d</fix>
</trkpt>
<trkpt lat="40.0713749" lon="-105.229789">
  <ele>1583.0</ele>
  <time>2026-08-28T17:56:10Z</time>
  <course>247.62</course>
  <speed>0.0316227766016838</speed>
  <fix>3d</fix>
</trkpt>
<trkpt lat="40.0713749" lon="-105.229789">
  <ele>1583.0</ele>
  <time>2026-08-28T17:56:10Z</time>
  <course>0.0</course>
  <speed>0.0</speed>
  <fix>3d</fix>
</trkpt>
<trkpt lat="40.0713749" lon="-105.229789">
  <ele>1583.0</ele>
  <time>2026-08-28T17:56:10Z</time>
  <course>247.62</course>
  <speed>0.0316227766016838</speed>
  <fix>3d</fix>
</trkpt>
<trkpt lat="40.0713749" lon="-105.229789">
  <ele>1583.0</ele>
  <time>2026-08-28T17:56:10Z</time>
  <course>0.0</course>
  <speed>0.0</speed>
  <fix>3d</fix>
</trkpt>
<trkpt lat="40.0713749" lon="-105.229789">
  <ele>1583.0</ele>
  <time>2026-08-28T17:56:10Z</time>
  <course>247.62</course>
  <speed>0.0316227766016838</speed>
  <fix>3d</fix>
</trkpt>
<trkpt lat="40.0713749" lon="-105.229789">
  <ele>1583.0</ele>
  <time>2026-08-28T17:56:10Z</time>
  <course>0.0</course>
  <speed>0.0</speed>
  <fix>3d</fix>
</trkpt>
<trkpt lat="40.0713749" lon="-105.229789">
  <ele>1583.0</ele>
  <time>2026-08-28T17:56:10Z</time>
  <course>247.62</course>
  <speed>0.0316227766016838</speed>
  <fix>3d</fix>
</trkpt>
<trkpt lat="40.0713749" lon="-105.229789">
  <ele>1583.0</ele>
  <time>2026-08-28T17:56:10Z</time>
  <course>0.0</course>
  <speed>0.0</speed>
  <fix>3d</fix>
</trkpt>
<trkpt lat="40.0713749" lon="-105.229789">
  <ele>1583.0</ele>
  <time>2026-08-28T17:56:10Z</time>
  <course>247.61</course>
  <speed>0.0316227766016838</speed>
  <fix>3d</fix>
</trkpt>
<trkpt lat="40.0713749" lon="-105.229789">
  <ele>1583.0</ele>
  <time>2026-08-28T17:56:10Z</time>
  <course>0.0</course>
  <speed>0.0</speed>
  <fix>3d</fix>
</trkpt>
<trkpt lat="40.0713749" lon="-105.229789">
  <ele>1583.0</ele>
  <time>2026-08-28T17:56:10Z</time>
  <course>247.61</course>
  <speed>0.0316227766016838</speed>
  <fix>3d</fix>
</trkpt>
<trkpt lat="40.0713749" lon="-105.229789">
  <ele>1583.0</ele>
  <time>2026-08-28T17:56:10Z</time>
  <course>0.0</course>
  <speed>0.0</speed>
  <fix>3d</fix>
</trkpt>
<trkpt lat="40.0713749" lon="-105.229789">
  <ele>1583.0</ele>
  <time>2026-08-28T17:56:10Z</time>
  <course>247.61</course>
  <speed>0.0316227766016838</speed>
  <fix>3d</fix>
</trkpt>
<trkpt lat="40.0713749" lon="-105.229789">
  <ele>1583.0</ele>
  <time>2026-08-28T17:56:10Z</time>
  <course>0.0</course>
  <speed>0.0</speed>
  <fix>3d</fix>
</trkpt>
<trkpt lat="40.0713749" lon="-105.229789">
  <ele>1583.0</ele>
  <time>2026-08-28T17:56:10Z</time>
  <course>247.6</course>
  <speed>0.0316227766016838</speed>
  <fix>3d</fix>
</trkpt>
<trkpt lat="40.0713749" lon="-105.229789">
  <ele>1583.0</ele>
  <time>2026-08-28T17:56:10Z</time>
  <course>0.0</course>
  <speed>0.0</speed>
  <fix>3d</fix>
</trkpt>
<trkpt lat="40.0713749" lon="-105.229789">
  <ele>1583.0</ele>
  <time>2026-08-28T17:56:10Z</time>
  <course>247.6</course>
  <speed>0.0316227766016838</speed>
  <fix>3d</fix>
</trkpt>
<trkpt lat="40.0713749" lon="-105.229789">
  <ele>1583.0</ele>
  <time>2026-08-28T17:56:10Z</time>
  <course>0.0</course>
  <speed>0.0</speed>
  <fix>3d</fix>
</trkpt>
<trkpt lat="40.0713749" lon="-105.229789">
  <ele>1583.0</ele>
  <time>2026-08-28T17:56:10Z</time>
  <course>247.6</course>
  <speed>0.0316227766016838</speed>
  <fix>3d</fix>
</trkpt>
<trkpt lat="40.0713749" lon="-105.229789">
  <ele>1583.0</ele>
  <time>2026-08-28T17:56:10Z</time>
  <course>0.0</course>
  <speed>0.0</speed>
  <fix>3d</fix>
</trkpt>
<trkpt lat="40.0713749" lon="-105.229789">
  <ele>1583.0</ele>
  <time>2026-08-28T17:56:10Z</time>
  <course>247.6</course>
  <speed>0.0316227766016838</speed>
  <fix>3d</fix>
</trkpt>
<trkpt lat="40.0713749" lon="-105.229789">
  <ele>1583.0</ele>
  <time>2026-08-28T17:56:10Z</time>
  <course>0.0</course>
  <speed>0.0</speed>
  <fix>3d</fix>
</trkpt>
<trkpt lat="40.0713749" lon="-105.229789">
  <ele>1583.0</ele>
  <time>2026-08-28T17:56:10Z</time>
  <course>247.59</course>
  <speed>0.0316227766016838</speed>
  <fix>3d</fix>
</trkpt>
<trkpt lat="40.0713749" lon="-105.229789">
  <ele>1583.0</ele>
  <time>2026-08-28T17:56:10Z</time>
  <course>0.0</course>
  <speed>0.0</speed>
  <fix>3d</fix>
</trkpt>
<trkpt lat="40.0713749" lon="-105.229789">
  <ele>1582.92</ele>
  <time>2026-08-28T17:56:10Z</time>
  <course>247.59</course>
  <speed>0.0</speed>
  <fix>3d</fix>
</trkpt>
<trkpt lat="40.0713749" lon="-105.229789">
  <ele>1583.0</ele>
  <time>2026-08-28T17:56:10Z</time>
  <course>0.0</course>
  <speed>0.0</speed>
  <fix>3d</fix>
</trkpt>
<trkpt lat="40.0713749" lon="-105.229789">
  <ele>1582.92</ele>
  <time>2026-08-28T17:56:10Z</time>
  <course>247.59</course>
  <speed>0.0</speed>
  <fix>3d</fix>
</trkpt>
<trkpt lat="40.0713749" lon="-105.229789">
  <ele>1583.0</ele>
  <time>2026-08-28T17:56:10Z</time>
  <course>0.0</course>
  <speed>0.0</speed>
  <fix>3d</fix>
</trkpt>
<trkpt lat="40.0713749" lon="-105.229789">
  <ele>1582.91</ele>
  <time>2026-08-28T17:56:10Z</time>
  <course>247.58</course>
  <speed>0.0</speed>
  <fix>3d</fix>
</trkpt>
<trkpt lat="40.0713749" lon="-105.229789">
  <ele>1583.0</ele>
  <time>2026-08-28T17:56:10Z</time>
  <course>0.0</course>
  <speed>0.0</speed>
  <fix>3d</fix>
</trkpt>
<trkpt lat="40.0713749" lon="-105.229789">
  <ele>1582.91</ele>
  <time>2026-08-28T17:56:10Z</time>
  <course>247.58</course>
  <speed>0.0</speed>
  <fix>3d</fix>
</trkpt>
<trkpt lat="40.0713749" lon="-105.229789">
  <ele>1583.0</ele>
  <time>2026-08-28T17:56:10Z</time>
  <course>0.0</course>
  <speed>0.0</speed>
  <fix>3d</fix>
</trkpt>
<trkpt lat="40.0713749" lon="-105.229789">
  <ele>1582.9</ele>
  <time>2026-08-28T17:56:10Z</time>
  <course>247.58</course>
  <speed>0.0</speed>
  <fix>3d</fix>
</trkpt>
<trkpt lat="40.0713749" lon="-105.229789">
  <ele>1583.0</ele>
  <time>2026-08-28T17:56:10Z</time>
  <course>0.0</course>
  <speed>0.0</speed>
  <fix>3d</fix>
</trkpt>
<trkpt lat="40.0713749" lon="-105.229789">
  <ele>1582.9</ele>
  <time>2026-08-28T17:56:10Z</time>
  <course>247.58</course>
  <speed>0.0</speed>
  <fix>3d</fix>
</trkpt>
<trkpt lat="40.0713749" lon="-105.229789">
  <ele>1583.0</ele>
  <time>2026-08-28T17:56:10Z</time>
  <course>0.0</course>
  <speed>0.0</speed>
  <fix>3d</fix>
</trkpt>
<trkpt lat="40.0713749" lon="-105.229789">
  <ele>1582.9</ele>
  <time>2026-08-28T17:56:10Z</time>
  <course>247.57</course>
  <speed>0.0</speed>
  <fix>3d</fix>
</trkpt>
<trkpt lat="40.0713749" lon="-105.229789">
  <ele>1583.0</ele>
  <time>2026-08-28T17:56:10Z</time>
  <course>0.0</course>
  <speed>0.0</speed>
  <fix>3d</fix>
</trkpt>
<trkpt lat="40.0713749" lon="-105.229789">
  <ele>1582.9</ele>
  <time>2026-08-28T17:56:10Z</time>
  <course>247.57</course>
  <speed>0.0</speed>
  <fix>3d</fix>
</trkpt>
<trkpt lat="40.0713749" lon="-105.229789">
  <ele>1583.0</ele>
  <time>2026-08-28T17:56:10Z</time>
  <course>0.0</course>
  <speed>0.0</speed>
  <fix>3d</fix>
</trkpt>
<trkpt lat="40.0713749" lon="-105.229789">
  <ele>1582.9</ele>
  <time>2026-08-28T17:56:10Z</time>
  <course>247.57</course>
  <speed>0.0</speed>
  <fix>3d</fix>
</trkpt>
<trkpt lat="40.0713749" lon="-105.229789">
  <ele>1583.0</ele>
  <time>2026-08-28T17:56:10Z</time>
  <course>0.0</course>
  <speed>0.0</speed>
  <fix>3d</fix>
</trkpt>
<trkpt lat="40.0713749" lon="-105.229789">
  <ele>1582.9</ele>
  <time>2026-08-28T17:56:10Z</time>
  <course>247.57</course>
  <speed>0.01</speed>
  <fix>3d</fix>
</trkpt>
<trkpt lat="40.0713749" lon="-105.229789">
  <ele>1583.0</ele>
  <time>2026-08-28T17:56:10Z</time>
  <course>0.0</course>
  <speed>0.0</speed>
  <fix>3d</fix>
</trkpt>
<trkpt lat="40.0713749" lon="-105.229789">
  <ele>1582.9</ele>
  <time>2026-08-28T17:56:10Z</time>
  <course>247.56</course>
  <speed>0.01</speed>
  <fix>3d</fix>
</trkpt>
<trkpt lat="40.0713749" lon="-105.229789">
  <ele>1583.0</ele>
  <time>2026-08-28T17:56:10Z</time>
  <course>0.0</course>
  <speed>0.0</speed>
  <fix>3d</fix>
</trkpt>
<trkpt lat="40.0713749" lon="-105.229789">
  <ele>1582.91</ele>
  <time>2026-08-28T17:56:10Z</time>
  <course>247.56</course>
  <speed>0.01</speed>
  <fix>3d</fix>
</trkpt>
<trkpt lat="40.0713749" lon="-105.229789">
  <ele>1583.0</ele>
  <time>2026-08-28T17:56:10Z</time>
  <course>0.0</course>
  <speed>0.0</speed>
  <fix>3d</fix>
</trkpt>
<trkpt lat="40.0713749" lon="-105.229789">
  <ele>1582.91</ele>
  <time>2026-08-28T17:56:10Z</time>
  <course>247.56</course>
  <speed>0.01</speed>
  <fix>3d</fix>
</trkpt>
<trkpt lat="40.0713749" lon="-105.229789">
  <ele>1583.0</ele>
  <time>2026-08-28T17:56:10Z</time>
  <course>0.0</course>
  <speed>0.0</speed>
  <fix>3d</fix>
</trkpt>
<trkpt lat="40.0713749" lon="-105.229789">
  <ele>1582.92</ele>
  <time>2026-08-28T17:56:10Z</time>
  <course>247.56</course>
  <speed>0.01</speed>
  <fix>3d</fix>
</trkpt>
<trkpt lat="40.0713749" lon="-105.229789">
  <ele>1583.0</ele>
  <time>2026-08-28T17:56:10Z</time>
  <course>0.0</course>
  <speed>0.0</speed>
  <fix>3d</fix>
</trkpt>
<trkpt lat="40.0713749" lon="-105.229789">
  <ele>1582.92</ele>
  <time>2026-08-28T17:56:10Z</time>
  <course>247.55</course>
  <speed>0.01</speed>
  <fix>3d</fix>
</trkpt>
<trkpt lat="40.0713749" lon="-105.229789">
  <ele>1583.0</ele>
  <time>2026-08-28T17:56:10Z</time>
  <course>0.0</course>
  <speed>0.0</speed>
  <fix>3d</fix>
</trkpt>
<trkpt lat="40.0713749" lon="-105.229789">
  <ele>1582.92</ele>
  <time>2026-08-28T17:56:10Z</time>
  <course>247.55</course>
  <speed>0.01</speed>
  <fix>3d</fix>
</trkpt>
<trkpt lat="40.0713749" lon="-105.229789">
  <ele>1583.0</ele>
  <time>2026-08-28T17:56:10Z</time>
  <course>0.0</course>
  <speed>0.0</speed>
  <fix>3d</fix>
</trkpt>
<trkpt lat="40.0713749" lon="-105.229789">
  <ele>1582.93</ele>
  <time>2026-08-28T17:56:10Z</time>
  <course>247.55</course>
  <speed>0.01</speed>
  <fix>3d</fix>
</trkpt>
<trkpt lat="40.0713749" lon="-105.229789">
  <ele>1583.0</ele>
  <time>2026-08-28T17:56:10Z</time>
  <course>0.0</course>
  <speed>0.0</speed>
  <fix>3d</fix>
</trkpt>
<trkpt lat="40.0713749" lon="-105.229789">
  <ele>1582.93</ele>
  <time>2026-08-28T17:56:10Z</time>
  <course>247.55</course>
  <speed>0.01</speed>
  <fix>3d</fix>
</trkpt>
<trkpt lat="40.0713749" lon="-105.229789">
  <ele>1583.0</ele>
  <time>2026-08-28T17:56:10Z</time>
  <course>0.0</course>
  <speed>0.0</speed>
  <fix>3d</fix>
</trkpt>
<trkpt lat="40.0713749" lon="-105.229789">
  <ele>1582.93</ele>
  <time>2026-08-28T17:56:10Z</time>
  <course>247.54</course>
  <speed>0.02</speed>
  <fix>3d</fix>
</trkpt>
<trkpt lat="40.0713749" lon="-105.229789">
  <ele>1583.0</ele>
  <time>2026-08-28T17:56:10Z</time>
  <course>0.0</course>
  <speed>0.0</speed>
  <fix>3d</fix>
</trkpt>
<trkpt lat="40.0713749" lon="-105.229789">
  <ele>1582.93</ele>
  <time>2026-08-28T17:56:10Z</time>
  <course>247.54</course>
  <speed>0.02</speed>
  <fix>3d</fix>
</trkpt>
<trkpt lat="40.0713749" lon="-105.229789">
  <ele>1583.0</ele>
  <time>2026-08-28T17:56:10Z</time>
  <course>0.0</course>
  <speed>0.0</speed>
  <fix>3d</fix>
</trkpt>
<trkpt lat="40.0713749" lon="-105.229789">
  <ele>1582.93</ele>
  <time>2026-08-28T17:56:10Z</time>
  <course>247.54</course>
  <speed>0.02</speed>
  <fix>3d</fix>
</trkpt>
<trkpt lat="40.0713749" lon="-105.229789">
  <ele>1583.0</ele>
  <time>2026-08-28T17:56:10Z</time>
  <course>0.0</course>
  <speed>0.0</speed>
  <fix>3d</fix>
</trkpt>
<trkpt lat="40.0713749" lon="-105.229789">
  <ele>1582.93</ele>
  <time>2026-08-28T17:56:10Z</time>
  <course>247.54</course>
  <speed>0.022360679774997897</speed>
  <fix>3d</fix>
</trkpt>
<trkpt lat="40.0713749" lon="-105.229789">
  <ele>1583.0</ele>
  <time>2026-08-28T17:56:10Z</time>
  <course>0.0</course>
  <speed>0.0</speed>
  <fix>3d</fix>
</trkpt>
<trkpt lat="40.0713749" lon="-105.229789">
  <ele>1582.94</ele>
  <time>2026-08-28T17:56:10Z</time>
  <course>247.53</course>
  <speed>0.022360679774997897</speed>
  <fix>3d</fix>
</trkpt>
<trkpt lat="40.0713749" lon="-105.229789">
  <ele>1583.0</ele>
  <time>2026-08-28T17:56:10Z</time>
  <course>0.0</course>
  <speed>0.0</speed>
  <fix>3d</fix>
</trkpt>
<trkpt lat="40.0713749" lon="-105.229789">
  <ele>1582.94</ele>
  <time>2026-08-28T17:56:10Z</time>
  <course>247.53</course>
  <speed>0.022360679774997897</speed>
  <fix>3d</fix>
</trkpt>
<trkpt lat="40.0713749" lon="-105.229789">
  <ele>1583.0</ele>
  <time>2026-08-28T17:56:10Z</time>
  <course>0.0</course>
  <speed>0.0</speed>
  <fix>3d</fix>
</trkpt>
<trkpt lat="40.071375" lon="-105.229789">
  <ele>1582.94</ele>
  <time>2026-08-28T17:56:10Z</time>
  <course>247.53</course>
  <speed>0.022360679774997897</speed>
  <fix>3d</fix>
</trkpt>
<trkpt lat="40.0713749" lon="-105.229789">
  <ele>1583.0</ele>
  <time>2026-08-28T17:56:10Z</time>
  <course>0.0</course>
  <speed>0.0</speed>
  <fix>3d</fix>
</trkpt>
<trkpt lat="39.655741" lon="-104.1383097">
  <ele>1566.58</ele>
  <time>2026-08-28T17:56:11Z</time>
  <course>0.0</course>
  <speed>0.0</speed>
  <fix>3d</fix>
</trkpt>
<trkpt lat="40.0713749" lon="-105.229789">
  <ele>1583.0</ele>
  <time>2026-08-28T17:56:11Z</time>
  <course>0.0</course>
  <speed>0.0</speed>
  <fix>3d</fix>
</trkpt>
<trkpt lat="40.0713749" lon="-105.229789">
  <ele>1583.0</ele>
  <time>2026-08-28T17:56:11Z</time>
  <course>238.36</course>
  <speed>0.0</speed>
  <fix>3d</fix>
</trkpt>
<trkpt lat="40.0713749" lon="-105.229789">
  <ele>1583.0</ele>
  <time>2026-08-28T17:56:11Z</time>
  <course>0.0</course>
  <speed>0.0</speed>
  <fix>3d</fix>
</trkpt>
<trkpt lat="40.0713749" lon="-105.229789">
  <ele>1583.0</ele>
  <time>2026-08-28T17:56:11Z</time>
  <course>238.44</course>
  <speed>0.0</speed>
  <fix>3d</fix>
</trkpt>
<trkpt lat="40.0713749" lon="-105.229789">
  <ele>1583.0</ele>
  <time>2026-08-28T17:56:11Z</time>
  <course>0.0</course>
  <speed>0.0</speed>
  <fix>3d</fix>
</trkpt>
<trkpt lat="40.0713749" lon="-105.229789">
  <ele>1583.0</ele>
  <time>2026-08-28T17:56:11Z</time>
  <course>238.64</course>
  <speed>0.0</speed>
  <fix>3d</fix>
</trkpt>
<trkpt lat="40.0713749" lon="-105.229789">
  <ele>1583.0</ele>
  <time>2026-08-28T17:56:11Z</time>
  <course>0.0</course>
  <speed>0.0</speed>
  <fix>3d</fix>
</trkpt>
<trkpt lat="40.0713749" lon="-105.229789">
  <ele>1583.0</ele>
  <time>2026-08-28T17:56:11Z</time>
  <course>238.93</course>
  <speed>0.0</speed>
  <fix>3d</fix>
</trkpt>
<trkpt lat="40.0713749" lon="-105.229789">
  <ele>1583.0</ele>
  <time>2026-08-28T17:56:11Z</time>
  <course>0.0</course>
  <speed>0.0</speed>
  <fix>3d</fix>
</trkpt>
<trkpt lat="40.0713749" lon="-105.229789">
  <ele>1583.0</ele>
  <time>2026-08-28T17:56:11Z</time>
  <course>239.26</course>
  <speed>0.0</speed>
  <fix>3d</fix>
</trkpt>
<trkpt lat="40.0713749" lon="-105.229789">
  <ele>1583.0</ele>
  <time>2026-08-28T17:56:11Z</time>
  <course>0.0</course>
  <speed>0.0</speed>
  <fix>3d</fix>
</trkpt>
<trkpt lat="40.0713749" lon="-105.229789">
  <ele>1583.0</ele>
  <time>2026-08-28T17:56:11Z</time>
  <course>239.61</course>
  <speed>0.0</speed>
  <fix>3d</fix>
</trkpt>
<trkpt lat="40.0713749" lon="-105.229789">
  <ele>1583.0</ele>
  <time>2026-08-28T17:56:11Z</time>
  <course>0.0</course>
  <speed>0.0</speed>
  <fix>3d</fix>
</trkpt>
<trkpt lat="40.0713749" lon="-105.229789">
  <ele>1583.0</ele>
  <time>2026-08-28T17:56:11Z</time>
  <course>239.96</course>
  <speed>0.0</speed>
  <fix>3d</fix>
</trkpt>
<trkpt lat="40.0713749" lon="-105.229789">
  <ele>1583.0</ele>
  <time>2026-08-28T17:56:11Z</time>
  <course>0.0</course>
  <speed>0.0</speed>
  <fix>3d</fix>
</trkpt>
<trkpt lat="40.0713749" lon="-105.229789">
  <ele>1583.0</ele>
  <time>2026-08-28T17:56:11Z</time>
  <course>240.29</course>
  <speed>0.0</speed>
  <fix>3d</fix>
</trkpt>
<trkpt lat="40.0713749" lon="-105.229789">
  <ele>1583.0</ele>
  <time>2026-08-28T17:56:11Z</time>
  <course>0.0</course>
  <speed>0.0</speed>
  <fix>3d</fix>
</trkpt>
<trkpt lat="40.0713749" lon="-105.229789">
  <ele>1583.0</ele>
  <time>2026-08-28T17:56:11Z</time>
  <course>240.61</course>
  <speed>0.0</speed>
  <fix>3d</fix>
</trkpt>
<trkpt lat="40.0713749" lon="-105.229789">
  <ele>1583.0</ele>
  <time>2026-08-28T17:56:11Z</time>
  <course>0.0</course>
  <speed>0.0</speed>
  <fix>3d</fix>
</trkpt>
<trkpt lat="40.0713749" lon="-105.229789">
  <ele>1583.0</ele>
  <time>2026-08-28T17:56:11Z</time>
  <course>240.92</course>
  <speed>0.0</speed>
  <fix>3d</fix>
</trkpt>
<trkpt lat="40.0713749" lon="-105.229789">
  <ele>1583.0</ele>
  <time>2026-08-28T17:56:11Z</time>
  <course>0.0</course>
  <speed>0.0</speed>
  <fix>3d</fix>
</trkpt>
<trkpt lat="40.0713749" lon="-105.229789">
  <ele>1583.0</ele>
  <time>2026-08-28T17:56:11Z</time>
  <course>241.21</course>
  <speed>0.0</speed>
  <fix>3d</fix>
</trkpt>
<trkpt lat="40.0713749" lon="-105.229789">
  <ele>1583.0</ele>
  <time>2026-08-28T17:56:11Z</time>
  <course>0.0</course>
  <speed>0.0</speed>
  <fix>3d</fix>
</trkpt>
<trkpt lat="40.0713749" lon="-105.229789">
  <ele>1583.0</ele>
  <time>2026-08-28T17:56:11Z</time>
  <course>241.49</course>
  <speed>0.0</speed>
  <fix>3d</fix>
</trkpt>
<trkpt lat="40.0713749" lon="-105.229789">
  <ele>1583.0</ele>
  <time>2026-08-28T17:56:11Z</time>
  <course>0.0</course>
  <speed>0.0</speed>
  <fix>3d</fix>
</trkpt>
<trkpt lat="40.0713749" lon="-105.229789">
  <ele>1583.0</ele>
  <time>2026-08-28T17:56:11Z</time>
  <course>241.77</course>
  <speed>0.0</speed>
  <fix>3d</fix>
</trkpt>
<trkpt lat="40.0713749" lon="-105.229789">
  <ele>1583.0</ele>
  <time>2026-08-28T17:56:11Z</time>
  <course>0.0</course>
  <speed>0.0</speed>
  <fix>3d</fix>
</trkpt>
<trkpt lat="40.0713749" lon="-105.229789">
  <ele>1583.0</ele>
  <time>2026-08-28T17:56:11Z</time>
  <course>242.03</course>
  <speed>0.0</speed>
  <fix>3d</fix>
</trkpt>
<trkpt lat="40.0713749" lon="-105.229789">
  <ele>1583.0</ele>
  <time>2026-08-28T17:56:11Z</time>
  <course>0.0</course>
  <speed>0.0</speed>
  <fix>3d</fix>
</trkpt>
<trkpt lat="40.0713749" lon="-105.229789">
  <ele>1583.0</ele>
  <time>2026-08-28T17:56:11Z</time>
  <course>242.29</course>
  <speed>0.0</speed>
  <fix>3d</fix>
</trkpt>
<trkpt lat="40.0713749" lon="-105.229789">
  <ele>1583.0</ele>
  <time>2026-08-28T17:56:11Z</time>
  <course>0.0</course>
  <speed>0.0</speed>
  <fix>3d</fix>
</trkpt>
<trkpt lat="40.0713749" lon="-105.229789">
  <ele>1583.0</ele>
  <time>2026-08-28T17:56:11Z</time>
  <course>242.54</course>
  <speed>0.0</speed>
  <fix>3d</fix>
</trkpt>
<trkpt lat="40.0713749" lon="-105.229789">
  <ele>1583.0</ele>
  <time>2026-08-28T17:56:11Z</time>
  <course>0.0</course>
  <speed>0.0</speed>
  <fix>3d</fix>
</trkpt>
<trkpt lat="40.0713749" lon="-105.229789">
  <ele>1583.0</ele>
  <time>2026-08-28T17:56:11Z</time>
  <course>242.79</course>
  <speed>0.0</speed>
  <fix>3d</fix>
</trkpt>
<trkpt lat="40.0713749" lon="-105.229789">
  <ele>1583.0</ele>
  <time>2026-08-28T17:56:11Z</time>
  <course>0.0</course>
  <speed>0.0</speed>
  <fix>3d</fix>
</trkpt>
<trkpt lat="40.0713749" lon="-105.229789">
  <ele>1583.0</ele>
  <time>2026-08-28T17:56:11Z</time>
  <course>243.02</course>
  <speed>0.0</speed>
  <fix>3d</fix>
</trkpt>
<trkpt lat="40.0713749" lon="-105.229789">
  <ele>1583.0</ele>
  <time>2026-08-28T17:56:11Z</time>
  <course>0.0</course>
  <speed>0.0</speed>
  <fix>3d</fix>
</trkpt>
<trkpt lat="40.0713749" lon="-105.229789">
  <ele>1583.0</ele>
  <time>2026-08-28T17:56:11Z</time>
  <course>243.25</course>
  <speed>0.0</speed>
  <fix>3d</fix>
</trkpt>
<trkpt lat="40.0713749" lon="-105.229789">
  <ele>1583.0</ele>
  <time>2026-08-28T17:56:11Z</time>
  <course>0.0</course>
  <speed>0.0</speed>
  <fix>3d</fix>
</trkpt>
<trkpt lat="40.0713749" lon="-105.229789">
  <ele>1583.0</ele>
  <time>2026-08-28T17:56:11Z</time>
  <course>243.47</course>
  <speed>0.0</speed>
  <fix>3d</fix>
</trkpt>
<trkpt lat="40.0713749" lon="-105.229789">
  <ele>1583.0</ele>
  <time>2026-08-28T17:56:11Z</time>
  <course>0.0</course>
  <speed>0.0</speed>
  <fix>3d</fix>
</trkpt>
<trkpt lat="40.0713749" lon="-105.229789">
  <ele>1583.0</ele>
  <time>2026-08-28T17:56:11Z</time>
  <course>243.68</course>
  <speed>0.0</speed>
  <fix>3d</fix>
</trkpt>
<trkpt lat="40.0713749" lon="-105.229789">
  <ele>1583.0</ele>
  <time>2026-08-28T17:56:11Z</time>
  <course>0.0</course>
  <speed>0.0</speed>
  <fix>3d</fix>
</trkpt>
<trkpt lat="40.0713749" lon="-105.229789">
  <ele>1583.0</ele>
  <time>2026-08-28T17:56:11Z</time>
  <course>243.89</course>
  <speed>0.0</speed>
  <fix>3d</fix>
</trkpt>
<trkpt lat="40.0713749" lon="-105.229789">
  <ele>1583.0</ele>
  <time>2026-08-28T17:56:11Z</time>
  <course>0.0</course>
  <speed>0.0</speed>
  <fix>3d</fix>
</trkpt>
<trkpt lat="40.0713749" lon="-105.229789">
  <ele>1583.0</ele>
  <time>2026-08-28T17:56:11Z</time>
  <course>244.09</course>
  <speed>0.0</speed>
  <fix>3d</fix>
</trkpt>
<trkpt lat="40.0713749" lon="-105.229789">
  <ele>1583.0</ele>
  <time>2026-08-28T17:56:11Z</time>
  <course>0.0</course>
  <speed>0.0</speed>
  <fix>3d</fix>
</trkpt>
<trkpt lat="40.0713749" lon="-105.229789">
  <ele>1583.0</ele>
  <time>2026-08-28T17:56:11Z</time>
  <course>244.28</course>
  <speed>0.0</speed>
  <fix>3d</fix>
</trkpt>
<trkpt lat="40.0713749" lon="-105.229789">
  <ele>1583.0</ele>
  <time>2026-08-28T17:56:11Z</time>
  <course>0.0</course>
  <speed>0.0</speed>
  <fix>3d</fix>
</trkpt>
<trkpt lat="40.0713749" lon="-105.229789">
  <ele>1583.0</ele>
  <time>2026-08-28T17:56:11Z</time>
  <course>244.46</course>
  <speed>0.0</speed>
  <fix>3d</fix>
</trkpt>
<trkpt lat="40.0713749" lon="-105.229789">
  <ele>1583.0</ele>
  <time>2026-08-28T17:56:11Z</time>
  <course>0.0</course>
  <speed>0.0</speed>
  <fix>3d</fix>
</trkpt>
<trkpt lat="40.0713749" lon="-105.229789">
  <ele>1583.0</ele>
  <time>2026-08-28T17:56:11Z</time>
  <course>244.64</course>
  <speed>0.0</speed>
  <fix>3d</fix>
</trkpt>
<trkpt lat="40.0713749" lon="-105.229789">
  <ele>1583.0</ele>
  <time>2026-08-28T17:56:11Z</time>
  <course>0.0</course>
  <speed>0.0</speed>
  <fix>3d</fix>
</trkpt>
<trkpt lat="40.0713749" lon="-105.229789">
  <ele>1583.0</ele>
  <time>2026-08-28T17:56:11Z</time>
  <course>244.81</course>
  <speed>0.0</speed>
  <fix>3d</fix>
</trkpt>
<trkpt lat="40.0713749" lon="-105.229789">
  <ele>1583.0</ele>
  <time>2026-08-28T17:56:11Z</time>
  <course>0.0</course>
  <speed>0.0</speed>
  <fix>3d</fix>
</trkpt>
<trkpt lat="40.0713749" lon="-105.229789">
  <ele>1583.0</ele>
  <time>2026-08-28T17:56:11Z</time>
  <course>244.97</course>
  <speed>0.0</speed>
  <fix>3d</fix>
</trkpt>
<trkpt lat="40.0713749" lon="-105.229789">
  <ele>1583.0</ele>
  <time>2026-08-28T17:56:11Z</time>
  <course>0.0</course>
  <speed>0.0</speed>
  <fix>3d</fix>
</trkpt>
<trkpt lat="40.0713749" lon="-105.229789">
  <ele>1583.0</ele>
  <time>2026-08-28T17:56:11Z</time>
  <course>245.13</course>
  <speed>0.0</speed>
  <fix>3d</fix>
</trkpt>
<trkpt lat="40.0713749" lon="-105.229789">
  <ele>1583.0</ele>
  <time>2026-08-28T17:56:11Z</time>
  <course>0.0</course>
  <speed>0.0</speed>
  <fix>3d</fix>
</trkpt>
<trkpt lat="40.0713749" lon="-105.229789">
  <ele>1583.0</ele>
  <time>2026-08-28T17:56:11Z</time>
  <course>245.29</course>
  <speed>0.0</speed>
  <fix>3d</fix>
</trkpt>
<trkpt lat="40.0713749" lon="-105.229789">
  <ele>1583.0</ele>
  <time>2026-08-28T17:56:11Z</time>
  <course>0.0</course>
  <speed>0.0</speed>
  <fix>3d</fix>
</trkpt>
<trkpt lat="40.0713749" lon="-105.229789">
  <ele>1583.0</ele>
  <time>2026-08-28T17:56:11Z</time>
  <course>245.43</course>
  <speed>0.0</speed>
  <fix>3d</fix>
</trkpt>
<trkpt lat="40.0713749" lon="-105.229789">
  <ele>1583.0</ele>
  <time>2026-08-28T17:56:11Z</time>
  <course>0.0</course>
  <speed>0.0</speed>
  <fix>3d</fix>
</trkpt>
<trkpt lat="40.0713749" lon="-105.229789">
  <ele>1583.0</ele>
  <time>2026-08-28T17:56:11Z</time>
  <course>245.57</course>
  <speed>0.0</speed>
  <fix>3d</fix>
</trkpt>
<trkpt lat="40.0713749" lon="-105.229789">
  <ele>1583.0</ele>
  <time>2026-08-28T17:56:11Z</time>
  <course>0.0</course>
  <speed>0.0</speed>
  <fix>3d</fix>
</trkpt>
<trkpt lat="40.0713749" lon="-105.229789">
  <ele>1583.0</ele>
  <time>2026-08-28T17:56:11Z</time>
  <course>245.71</course>
  <speed>0.0</speed>
  <fix>3d</fix>
</trkpt>
<trkpt lat="40.0713749" lon="-105.229789">
  <ele>1583.0</ele>
  <time>2026-08-28T17:56:11Z</time>
  <course>0.0</course>
  <speed>0.0</speed>
  <fix>3d</fix>
</trkpt>
<trkpt lat="40.0713749" lon="-105.229789">
  <ele>1583.0</ele>
  <time>2026-08-28T17:56:11Z</time>
  <course>245.84</course>
  <speed>0.0</speed>
  <fix>3d</fix>
</trkpt>
<trkpt lat="40.0713749" lon="-105.229789">
  <ele>1583.0</ele>
  <time>2026-08-28T17:56:11Z</time>
  <course>0.0</course>
  <speed>0.0</speed>
  <fix>3d</fix>
</trkpt>
<trkpt lat="40.0713749" lon="-105.229789">
  <ele>1583.0</ele>
  <time>2026-08-28T17:56:11Z</time>
  <course>245.96</course>
  <speed>0.0</speed>
  <fix>3d</fix>
</trkpt>
<trkpt lat="40.0713749" lon="-105.229789">
  <ele>1583.0</ele>
  <time>2026-08-28T17:56:11Z</time>
  <course>0.0</course>
  <speed>0.0</speed>
  <fix>3d</fix>
</trkpt>
<trkpt lat="40.0713749" lon="-105.229789">
  <ele>1583.0</ele>
  <time>2026-08-28T17:56:11Z</time>
  <course>246.08</course>
  <speed>0.0</speed>
  <fix>3d</fix>
</trkpt>
<trkpt lat="40.0713749" lon="-105.229789">
  <ele>1583.0</ele>
  <time>2026-08-28T17:56:11Z</time>
  <course>0.0</course>
  <speed>0.0</speed>
  <fix>3d</fix>
</trkpt>
<trkpt lat="40.0713749" lon="-105.229789">
  <ele>1583.0</ele>
  <time>2026-08-28T17:56:11Z</time>
  <course>246.19</course>
  <speed>0.0</speed>
  <fix>3d</fix>
</trkpt>
<trkpt lat="40.0713749" lon="-105.229789">
  <ele>1583.0</ele>
  <time>2026-08-28T17:56:11Z</time>
  <course>0.0</course>
  <speed>0.0</speed>
  <fix>3d</fix>
</trkpt>
<trkpt lat="40.0713749" lon="-105.229789">
  <ele>1583.0</ele>
  <time>2026-08-28T17:56:11Z</time>
  <course>246.3</course>
  <speed>0.0</speed>
  <fix>3d</fix>
</trkpt>
<trkpt lat="40.0713749" lon="-105.229789">
  <ele>1583.0</ele>
  <time>2026-08-28T17:56:11Z</time>
  <course>0.0</course>
  <speed>0.0</speed>
  <fix>3d</fix>
</trkpt>
<trkpt lat="40.0713749" lon="-105.229789">
  <ele>1583.0</ele>
  <time>2026-08-28T17:56:11Z</time>
  <course>246.41</course>
  <speed>0.0</speed>
  <fix>3d</fix>
</trkpt>
<trkpt lat="40.0713749" lon="-105.229789">
  <ele>1583.0</ele>
  <time>2026-08-28T17:56:11Z</time>
  <course>0.0</course>
  <speed>0.0</speed>
  <fix>3d</fix>
</trkpt>
<trkpt lat="40.0713749" lon="-105.229789">
  <ele>1583.0</ele>
  <time>2026-08-28T17:56:11Z</time>
  <course>246.51</course>
  <speed>0.0</speed>
  <fix>3d</fix>
</trkpt>
<trkpt lat="40.0713749" lon="-105.229789">
  <ele>1583.0</ele>
  <time>2026-08-28T17:56:11Z</time>
  <course>0.0</course>
  <speed>0.0</speed>
  <fix>3d</fix>
</trkpt>
<trkpt lat="40.0713749" lon="-105.229789">
  <ele>1583.0</ele>
  <time>2026-08-28T17:56:11Z</time>
  <course>246.6</course>
  <speed>0.0</speed>
  <fix>3d</fix>
</trkpt>
<trkpt lat="40.0713749" lon="-105.229789">
  <ele>1583.0</ele>
  <time>2026-08-28T17:56:11Z</time>
  <course>0.0</course>
  <speed>0.0</speed>
  <fix>3d</fix>
</trkpt>
<trkpt lat="40.0713749" lon="-105.229789">
  <ele>1583.0</ele>
  <time>2026-08-28T17:56:11Z</time>
  <course>246.7</course>
  <speed>0.0</speed>
  <fix>3d</fix>
</trkpt>
<trkpt lat="40.0713749" lon="-105.229789">
  <ele>1583.0</ele>
  <time>2026-08-28T17:56:11Z</time>
  <course>0.0</course>
  <speed>0.0</speed>
  <fix>3d</fix>
</trkpt>
<trkpt lat="40.0713749" lon="-105.229789">
  <ele>1583.0</ele>
  <time>2026-08-28T17:56:11Z</time>
  <course>246.78</course>
  <speed>0.0</speed>
  <fix>3d</fix>
</trkpt>
<trkpt lat="40.0713749" lon="-105.229789">
  <ele>1583.0</ele>
  <time>2026-08-28T17:56:11Z</time>
  <course>0.0</course>
  <speed>0.0</speed>
  <fix>3d</fix>
</trkpt>
<trkpt lat="40.0713749" lon="-105.229789">
  <ele>1583.0</ele>
  <time>2026-08-28T17:56:11Z</time>
  <course>246.87</course>
  <speed>0.0</speed>
  <fix>3d</fix>
</trkpt>
<trkpt lat="40.0713749" lon="-105.229789">
  <ele>1583.0</ele>
  <time>2026-08-28T17:56:11Z</time>
  <course>0.0</course>
  <speed>0.0</speed>
  <fix>3d</fix>
</trkpt>
<trkpt lat="40.0713749" lon="-105.229789">
  <ele>1583.0</ele>
  <time>2026-08-28T17:56:11Z</time>
  <course>246.95</course>
  <speed>0.0</speed>
  <fix>3d</fix>
</trkpt>
<trkpt lat="40.0713749" lon="-105.229789">
  <ele>1583.0</ele>
  <time>2026-08-28T17:56:11Z</time>
  <course>0.0</course>
  <speed>0.0</speed>
  <fix>3d</fix>
</trkpt>
<trkpt lat="40.0713749" lon="-105.229789">
  <ele>1583.0</ele>
  <time>2026-08-28T17:56:11Z</time>
  <course>247.02</course>
  <speed>0.0</speed>
  <fix>3d</fix>
</trkpt>
<trkpt lat="40.0713749" lon="-105.229789">
  <ele>1583.0</ele>
  <time>2026-08-28T17:56:11Z</time>
  <course>0.0</course>
  <speed>0.0</speed>
  <fix>3d</fix>
</trkpt>
<trkpt lat="40.0713749" lon="-105.229789">
  <ele>1583.0</ele>
  <time>2026-08-28T17:56:11Z</time>
  <course>247.1</course>
  <speed>0.0</speed>
  <fix>3d</fix>
</trkpt>
<trkpt lat="40.0713749" lon="-105.229789">
  <ele>1583.0</ele>
  <time>2026-08-28T17:56:11Z</time>
  <course>0.0</course>
  <speed>0.0</speed>
  <fix>3d</fix>
</trkpt>
<trkpt lat="40.0713749" lon="-105.229789">
  <ele>1583.0</ele>
  <time>2026-08-28T17:56:11Z</time>
  <course>247.17</course>
  <speed>0.0</speed>
  <fix>3d</fix>
</trkpt>
<trkpt lat="40.0713749" lon="-105.229789">
  <ele>1583.0</ele>
  <time>2026-08-28T17:56:11Z</time>
  <course>0.0</course>
  <speed>0.0</speed>
  <fix>3d</fix>
</trkpt>
<trkpt lat="40.0713749" lon="-105.229789">
  <ele>1583.0</ele>
  <time>2026-08-28T17:56:11Z</time>
  <course>247.24</course>
  <speed>0.0</speed>
  <fix>3d</fix>
</trkpt>
<trkpt lat="40.0713749" lon="-105.229789">
  <ele>1583.0</ele>
  <time>2026-08-28T17:56:11Z</time>
  <course>0.0</course>
  <speed>0.0</speed>
  <fix>3d</fix>
</trkpt>
<trkpt lat="40.0713749" lon="-105.229789">
  <ele>1583.0</ele>
  <time>2026-08-28T17:56:11Z</time>
  <course>247.3</course>
  <speed>0.0</speed>
  <fix>3d</fix>
</trkpt>
<trkpt lat="40.0713749" lon="-105.229789">
  <ele>1583.0</ele>
  <time>2026-08-28T17:56:11Z</time>
  <course>0.0</course>
  <speed>0.0</speed>
  <fix>3d</fix>
</trkpt>
<trkpt lat="40.0713749" lon="-105.229789">
  <ele>1583.0</ele>
  <time>2026-08-28T17:56:11Z</time>
  <course>247.36</course>
  <speed>0.0</speed>
  <fix>3d</fix>
</trkpt>
<trkpt lat="40.0713749" lon="-105.229789">
  <ele>1583.0</ele>
  <time>2026-08-28T17:56:11Z</time>
  <course>0.0</course>
  <speed>0.0</speed>
  <fix>3d</fix>
</trkpt>
<trkpt lat="40.0713749" lon="-105.229789">
  <ele>1583.0</ele>
  <time>2026-08-28T17:56:11Z</time>
  <course>247.42</course>
  <speed>0.0</speed>
  <fix>3d</fix>
</trkpt>
<trkpt lat="40.0713749" lon="-105.229789">
  <ele>1583.0</ele>
  <time>2026-08-28T17:56:11Z</time>
  <course>0.0</course>
  <speed>0.0</speed>
  <fix>3d</fix>
</trkpt>
<trkpt lat="40.0713749" lon="-105.229789">
  <ele>1583.0</ele>
  <time>2026-08-28T17:56:11Z</time>
  <course>247.47</course>
  <speed>0.0</speed>
  <fix>3d</fix>
</trkpt>
<trkpt lat="40.0713749" lon="-105.229789">
  <ele>1583.0</ele>
  <time>2026-08-28T17:56:11Z</time>
  <course>0.0</course>
  <speed>0.0</speed>
  <fix>3d</fix>
</trkpt>
<trkpt lat="40.0713749" lon="-105.229789">
  <ele>1583.0</ele>
  <time>2026-08-28T17:56:11Z</time>
  <course>247.53</course>
  <speed>0.0</speed>
  <fix>3d</fix>
</trkpt>
<trkpt lat="40.0713749" lon="-105.229789">
  <ele>1583.0</ele>
  <time>2026-08-28T17:56:11Z</time>
  <course>0.0</course>
  <speed>0.0</speed>
  <fix>3d</fix>
</trkpt>
<trkpt lat="40.0713749" lon="-105.229789">
  <ele>1583.0</ele>
  <time>2026-08-28T17:56:11Z</time>
  <course>247.58</course>
  <speed>0.0</speed>
  <fix>3d</fix>
</trkpt>
<trkpt lat="40.0713749" lon="-105.229789">
  <ele>1583.0</ele>
  <time>2026-08-28T17:56:11Z</time>
  <course>0.0</course>
  <speed>0.0</speed>
  <fix>3d</fix>
</trkpt>
<trkpt lat="40.0713749" lon="-105.229789">
  <ele>1583.0</ele>
  <time>2026-08-28T17:56:11Z</time>
  <course>247.63</course>
  <speed>0.0</speed>
  <fix>3d</fix>
</trkpt>
<trkpt lat="40.0713749" lon="-105.229789">
  <ele>1583.0</ele>
  <time>2026-08-28T17:56:11Z</time>
  <course>0.0</course>
  <speed>0.0</speed>
  <fix>3d</fix>
</trkpt>
<trkpt lat="40.0713749" lon="-105.229789">
  <ele>1583.0</ele>
  <time>2026-08-28T17:56:11Z</time>
  <course>247.67</course>
  <speed>0.0</speed>
  <fix>3d</fix>
</trkpt>
<trkpt lat="40.0713749" lon="-105.229789">
  <ele>1583.0</ele>
  <time>2026-08-28T17:56:11Z</time>
  <course>0.0</course>
  <speed>0.0</speed>
  <fix>3d</fix>
</trkpt>
<trkpt lat="40.0713749" lon="-105.229789">
  <ele>1583.0</ele>
  <time>2026-08-28T17:56:11Z</time>
  <course>247.72</course>
  <speed>0.0</speed>
  <fix>3d</fix>
</trkpt>
<trkpt lat="40.0713749" lon="-105.229789">
  <ele>1583.0</ele>
  <time>2026-08-28T17:56:11Z</time>
  <course>0.0</course>
  <speed>0.0</speed>
  <fix>3d</fix>
</trkpt>
<trkpt lat="40.0713749" lon="-105.229789">
  <ele>1583.0</ele>
  <time>2026-08-28T17:56:11Z</time>
  <course>247.76</course>
  <speed>0.0</speed>
  <fix>3d</fix>
</trkpt>
<trkpt lat="40.0713749" lon="-105.229789">
  <ele>1583.0</ele>
  <time>2026-08-28T17:56:11Z</time>
  <course>0.0</course>
  <speed>0.0</speed>
  <fix>3d</fix>
</trkpt>
<trkpt lat="40.0713749" lon="-105.229789">
  <ele>1583.0</ele>
  <time>2026-08-28T17:56:11Z</time>
  <course>247.8</course>
  <speed>0.0</speed>
  <fix>3d</fix>
</trkpt>
<trkpt lat="40.0713749" lon="-105.229789">
  <ele>1583.0</ele>
  <time>2026-08-28T17:56:11Z</time>
  <course>0.0</course>
  <speed>0.0</speed>
  <fix>3d</fix>
</trkpt>
<trkpt lat="40.0713749" lon="-105.229789">
  <ele>1583.0</ele>
  <time>2026-08-28T17:56:11Z</time>
  <course>247.83</course>
  <speed>0.0</speed>
  <fix>3d</fix>
</trkpt>
<trkpt lat="40.0713749" lon="-105.229789">
  <ele>1583.0</ele>
  <time>2026-08-28T17:56:11Z</time>
  <course>0.0</course>
  <speed>0.0</speed>
  <fix>3d</fix>
</trkpt>
<trkpt lat="40.0713749" lon="-105.229789">
  <ele>1583.0</ele>
  <time>2026-08-28T17:56:11Z</time>
  <course>247.87</course>
  <speed>0.0</speed>
  <fix>3d</fix>
</trkpt>
<trkpt lat="40.0713749" lon="-105.229789">
  <ele>1583.0</ele>
  <time>2026-08-28T17:56:11Z</time>
  <course>0.0</course>
  <speed>0.0</speed>
  <fix>3d</fix>
</trkpt>
<trkpt lat="40.0713749" lon="-105.229789">
  <ele>1583.0</ele>
  <time>2026-08-28T17:56:11Z</time>
  <course>247.9</course>
  <speed>0.0</speed>
  <fix>3d</fix>
</trkpt>
<trkpt lat="40.0713749" lon="-105.229789">
  <ele>1583.0</ele>
  <time>2026-08-28T17:56:11Z</time>
  <course>0.0</course>
  <speed>0.0</speed>
  <fix>3d</fix>
</trkpt>
<trkpt lat="40.0713749" lon="-105.229789">
  <ele>1583.0</ele>
  <time>2026-08-28T17:56:11Z</time>
  <course>247.94</course>
  <speed>0.0</speed>
  <fix>3d</fix>
</trkpt>
<trkpt lat="40.0713749" lon="-105.229789">
  <ele>1583.0</ele>
  <time>2026-08-28T17:56:11Z</time>
  <course>0.0</course>
  <speed>0.0</speed>
  <fix>3d</fix>
</trkpt>
<trkpt lat="40.0713749" lon="-105.229789">
  <ele>1583.0</ele>
  <time>2026-08-28T17:56:11Z</time>
  <course>247.97</course>
  <speed>0.0</speed>
  <fix>3d</fix>
</trkpt>
<trkpt lat="40.0713749" lon="-105.229789">
  <ele>1583.0</ele>
  <time>2026-08-28T17:56:11Z</time>
  <course>0.0</course>
  <speed>0.0</speed>
  <fix>3d</fix>
</trkpt>
<trkpt lat="40.0713749" lon="-105.229789">
  <ele>1583.0</ele>
  <time>2026-08-28T17:56:11Z</time>
  <course>248.0</course>
  <speed>0.0</speed>
  <fix>3d</fix>
</trkpt>
<trkpt lat="40.0713749" lon="-105.229789">
  <ele>1583.0</ele>
  <time>2026-08-28T17:56:11Z</time>
  <course>0.0</course>
  <speed>0.0</speed>
  <fix>3d</fix>
</trkpt>
<trkpt lat="40.0713749" lon="-105.229789">
  <ele>1583.0</ele>
  <time>2026-08-28T17:56:11Z</time>
  <course>248.02</course>
  <speed>0.0</speed>
  <fix>3d</fix>
</trkpt>
<trkpt lat="40.0713749" lon="-105.229789">
  <ele>1583.0</ele>
  <time>2026-08-28T17:56:11Z</time>
  <course>0.0</course>
  <speed>0.0</speed>
  <fix>3d</fix>
</trkpt>
<trkpt lat="40.0713749" lon="-105.229789">
  <ele>1583.0</ele>
  <time>2026-08-28T17:56:11Z</time>
  <course>248.05</course>
  <speed>0.0</speed>
  <fix>3d</fix>
</trkpt>
<trkpt lat="40.0713749" lon="-105.229789">
  <ele>1583.0</ele>
  <time>2026-08-28T17:56:11Z</time>
  <course>0.0</course>
  <speed>0.0</speed>
  <fix>3d</fix>
</trkpt>
<trkpt lat="40.0713749" lon="-105.229789">
  <ele>1583.0</ele>
  <time>2026-08-28T17:56:11Z</time>
  <course>248.08</course>
  <speed>0.0</speed>
  <fix>3d</fix>
</trkpt>
<trkpt lat="40.0713749" lon="-105.229789">
  <ele>1583.0</ele>
  <time>2026-08-28T17:56:11Z</time>
  <course>0.0</course>
  <speed>0.0</speed>
  <fix>3d</fix>
</trkpt>
<trkpt lat="40.0713749" lon="-105.229789">
  <ele>1583.0</ele>
  <time>2026-08-28T17:56:11Z</time>
  <course>248.1</course>
  <speed>0.0</speed>
  <fix>3d</fix>
</trkpt>
<trkpt lat="40.0713749" lon="-105.229789">
  <ele>1583.0</ele>
  <time>2026-08-28T17:56:11Z</time>
  <course>0.0</course>
  <speed>0.0</speed>
  <fix>3d</fix>
</trkpt>
<trkpt lat="40.0713749" lon="-105.229789">
  <ele>1583.0</ele>
  <time>2026-08-28T17:56:11Z</time>
  <course>248.12</course>
  <speed>0.0</speed>
  <fix>3d</fix>
</trkpt>
<trkpt lat="40.0713749" lon="-105.229789">
  <ele>1583.0</ele>
  <time>2026-08-28T17:56:11Z</time>
  <course>0.0</course>
  <speed>0.0</speed>
  <fix>3d</fix>
</trkpt>
<trkpt lat="40.0713749" lon="-105.229789">
  <ele>1583.0</ele>
  <time>2026-08-28T17:56:11Z</time>
  <course>248.14</course>
  <speed>0.0</speed>
  <fix>3d</fix>
</trkpt>
<trkpt lat="40.0713749" lon="-105.229789">
  <ele>1583.0</ele>
  <time>2026-08-28T17:56:11Z</time>
  <course>0.0</course>
  <speed>0.0</speed>
  <fix>3d</fix>
</trkpt>
<trkpt lat="40.0713749" lon="-105.229789">
  <ele>1583.0</ele>
  <time>2026-08-28T17:56:11Z</time>
  <course>248.16</course>
  <speed>0.0</speed>
  <fix>3d</fix>
</trkpt>
<trkpt lat="40.0713749" lon="-105.229789">
  <ele>1583.0</ele>
  <time>2026-08-28T17:56:11Z</time>
  <course>0.0</course>
  <speed>0.0</speed>
  <fix>3d</fix>
</trkpt>
<trkpt lat="40.0713749" lon="-105.229789">
  <ele>1583.0</ele>
  <time>2026-08-28T17:56:11Z</time>
  <course>248.18</course>
  <speed>0.0</speed>
  <fix>3d</fix>
</trkpt>
<trkpt lat="40.0713749" lon="-105.229789">
  <ele>1583.0</ele>
  <time>2026-08-28T17:56:11Z</time>
  <course>0.0</course>
  <speed>0.0</speed>
  <fix>3d</fix>
</trkpt>
<trkpt lat="40.0713749" lon="-105.229789">
  <ele>1583.0</ele>
  <time>2026-08-28T17:56:11Z</time>
  <course>248.2</course>
  <speed>0.0</speed>
  <fix>3d</fix>
</trkpt>
<trkpt lat="40.0713749" lon="-105.229789">
  <ele>1583.0</ele>
  <time>2026-08-28T17:56:11Z</time>
  <course>0.0</course>
  <speed>0.0</speed>
  <fix>3d</fix>
</trkpt>
<trkpt lat="39.655741" lon="-104.1383097">
  <ele>1566.58</ele>
  <time>2026-08-28T17:56:13Z</time>
  <course>0.0</course>
  <speed>0.0</speed>
  <fix>3d</fix>
</trkpt>
<trkpt lat="40.0713749" lon="-105.229789">
  <ele>1583.0</ele>
  <time>2026-08-28T17:56:13Z</time>
  <course>0.0</course>
  <speed>0.0</speed>
  <fix>3d</fix>
</trkpt>
<trkpt lat="40.0713749" lon="-105.229789">
  <ele>1583.0</ele>
  <time>2026-08-28T17:56:13Z</time>
  <course>0.0</course>
  <speed>0.0</speed>
  <fix>3d</fix>
</trkpt>
<trkpt lat="40.0713749" lon="-105.229789">
  <ele>-0.07</ele>
  <time>2026-08-28T17:56:13Z</time>
  <course>238.36</course>
  <speed>0.0</speed>
  <fix>3d</fix>
</trkpt>
<trkpt lat="40.0713749" lon="-105.229789">
  <ele>1583.0</ele>
  <time>2026-08-28T17:56:13Z</time>
  <course>0.0</course>
  <speed>0.0</speed>
  <fix>3d</fix>
</trkpt>
<trkpt lat="40.0713749" lon="-105.229789">
  <ele>-0.17</ele>
  <time>2026-08-28T17:56:13Z</time>
  <course>239.2</course>
  <speed>0.0</speed>
  <fix>3d</fix>
</trkpt>
<trkpt lat="40.0713749" lon="-105.229789">
  <ele>1583.0</ele>
  <time>2026-08-28T17:56:13Z</time>
  <course>0.0</course>
  <speed>0.0</speed>
  <fix>3d</fix>
</trkpt>
<trkpt lat="40.0713749" lon="-105.229789">
  <ele>-0.08</ele>
  <time>2026-08-28T17:56:13Z</time>
  <course>240.11</course>
  <speed>0.0</speed>
  <fix>3d</fix>
</trkpt>
<trkpt lat="40.0713749" lon="-105.229789">
  <ele>1583.0</ele>
  <time>2026-08-28T17:56:13Z</time>
  <course>0.0</course>
  <speed>0.0</speed>
  <fix>3d</fix>
</trkpt>
<trkpt lat="40.0713749" lon="-105.229789">
  <ele>0.01</ele>
  <time>2026-08-28T17:56:13Z</time>
  <course>240.91</course>
  <speed>0.0</speed>
  <fix>3d</fix>
</trkpt>
<trkpt lat="40.0713749" lon="-105.229789">
  <ele>1583.0</ele>
  <time>2026-08-28T17:56:13Z</time>
  <course>0.0</course>
  <speed>0.0</speed>
  <fix>3d</fix>
</trkpt>
<trkpt lat="40.0713749" lon="-105.229789">
  <ele>-0.03</ele>
  <time>2026-08-28T17:56:13Z</time>
  <course>241.6</course>
  <speed>0.0</speed>
  <fix>3d</fix>
</trkpt>
<trkpt lat="40.0713749" lon="-105.229789">
  <ele>1583.0</ele>
  <time>2026-08-28T17:56:13Z</time>
  <course>0.0</course>
  <speed>0.0</speed>
  <fix>3d</fix>
</trkpt>
<trkpt lat="40.0713749" lon="-105.229789">
  <ele>0.01</ele>
  <time>2026-08-28T17:56:13Z</time>
  <course>242.19</course>
  <speed>0.0</speed>
  <fix>3d</fix>
</trkpt>
<trkpt lat="40.0713749" lon="-105.229789">
  <ele>1583.0</ele>
  <time>2026-08-28T17:56:13Z</time>
  <course>0.0</course>
  <speed>0.0</speed>
  <fix>3d</fix>
</trkpt>
<trkpt lat="40.0713749" lon="-105.229789">
  <ele>-0.05</ele>
  <time>2026-08-28T17:56:13Z</time>
  <course>242.71</course>
  <speed>0.0</speed>
  <fix>3d</fix>
</trkpt>
<trkpt lat="40.0713749" lon="-105.229789">
  <ele>1583.0</ele>
  <time>2026-08-28T17:56:13Z</time>
  <course>0.0</course>
  <speed>0.0</speed>
  <fix>3d</fix>
</trkpt>
<trkpt lat="40.0713749" lon="-105.229789">
  <ele>0.09</ele>
  <time>2026-08-28T17:56:13Z</time>
  <course>243.16</course>
  <speed>0.0</speed>
  <fix>3d</fix>
</trkpt>
<trkpt lat="40.0713749" lon="-105.229789">
  <ele>1583.0</ele>
  <time>2026-08-28T17:56:13Z</time>
  <course>0.0</course>
  <speed>0.0</speed>
  <fix>3d</fix>
</trkpt>
<trkpt lat="40.0713749" lon="-105.229789">
  <ele>-0.11</ele>
  <time>2026-08-28T17:56:13Z</time>
  <course>243.54</course>
  <speed>0.0</speed>
  <fix>3d</fix>
</trkpt>
<trkpt lat="40.0713749" lon="-105.229789">
  <ele>1583.0</ele>
  <time>2026-08-28T17:56:13Z</time>
  <course>0.0</course>
  <speed>0.0</speed>
  <fix>3d</fix>
</trkpt>
<trkpt lat="40.0713749" lon="-105.229789">
  <ele>-0.12</ele>
  <time>2026-08-28T17:56:13Z</time>
  <course>243.87</course>
  <speed>0.0</speed>
  <fix>3d</fix>
</trkpt>
<trkpt lat="40.0713749" lon="-105.229789">
  <ele>1583.0</ele>
  <time>2026-08-28T17:56:13Z</time>
  <course>0.0</course>
  <speed>0.0</speed>
  <fix>3d</fix>
</trkpt>
<trkpt lat="40.0713749" lon="-105.229789">
  <ele>-0.1</ele>
  <time>2026-08-28T17:56:13Z</time>
  <course>244.16</course>
  <speed>0.0</speed>
  <fix>3d</fix>
</trkpt>
<trkpt lat="40.0713749" lon="-105.229789">
  <ele>1583.0</ele>
  <time>2026-08-28T17:56:13Z</time>
  <course>0.0</course>
  <speed>0.0</speed>
  <fix>3d</fix>
</trkpt>
<trkpt lat="40.0713749" lon="-105.229789">
  <ele>0.0</ele>
  <time>2026-08-28T17:56:13Z</time>
  <course>244.41</course>
  <speed>0.0</speed>
  <fix>3d</fix>
</trkpt>
<trkpt lat="40.0713749" lon="-105.229789">
  <ele>1583.0</ele>
  <time>2026-08-28T17:56:13Z</time>
  <course>0.0</course>
  <speed>0.0</speed>
  <fix>3d</fix>
</trkpt>
<trkpt lat="40.0713749" lon="-105.229789">
  <ele>0.11</ele>
  <time>2026-08-28T17:56:13Z</time>
  <course>244.62</course>
  <speed>0.0</speed>
  <fix>3d</fix>
</trkpt>
<trkpt lat="40.0713749" lon="-105.229789">
  <ele>1583.0</ele>
  <time>2026-08-28T17:56:13Z</time>
  <course>0.0</course>
  <speed>0.0</speed>
  <fix>3d</fix>
</trkpt>
<trkpt lat="40.0713749" lon="-105.229789">
  <ele>-0.12</ele>
  <time>2026-08-28T17:56:13Z</time>
  <course>244.81</course>
  <speed>0.0</speed>
  <fix>3d</fix>
</trkpt>
<trkpt lat="40.0713749" lon="-105.229789">
  <ele>1583.0</ele>
  <time>2026-08-28T17:56:13Z</time>
  <course>0.0</course>
  <speed>0.0</speed>
  <fix>3d</fix>
</trkpt>
<trkpt lat="40.0713749" lon="-105.229789">
  <ele>-0.09</ele>
  <time>2026-08-28T17:56:13Z</time>
  <course>244.97</course>
  <speed>0.0</speed>
  <fix>3d</fix>
</trkpt>
<trkpt lat="40.0713749" lon="-105.229789">
  <ele>1583.0</ele>
  <time>2026-08-28T17:56:13Z</time>
  <course>0.0</course>
  <speed>0.0</speed>
  <fix>3d</fix>
</trkpt>
<trkpt lat="40.0713749" lon="-105.229789">
  <ele>0.03</ele>
  <time>2026-08-28T17:56:13Z</time>
  <course>245.11</course>
  <speed>0.0</speed>
  <fix>3d</fix>
</trkpt>
<trkpt lat="40.0713749" lon="-105.229789">
  <ele>1583.0</ele>
  <time>2026-08-28T17:56:13Z</time>
  <course>0.0</course>
  <speed>0.0</speed>
  <fix>3d</fix>
</trkpt>
<trkpt lat="40.0713749" lon="-105.229789">
  <ele>0.28</ele>
  <time>2026-08-28T17:56:13Z</time>
  <course>245.23</course>
  <speed>0.0</speed>
  <fix>3d</fix>
</trkpt>
<trkpt lat="40.0713749" lon="-105.229789">
  <ele>1583.0</ele>
  <time>2026-08-28T17:56:13Z</time>
  <course>0.0</course>
  <speed>0.0</speed>
  <fix>3d</fix>
</trkpt>
<trkpt lat="40.0713749" lon="-105.229789">
  <ele>0.25</ele>
  <time>2026-08-28T17:56:13Z</time>
  <course>245.33</course>
  <speed>0.0</speed>
  <fix>3d</fix>
</trkpt>
<trkpt lat="40.0713749" lon="-105.229789">
  <ele>1583.0</ele>
  <time>2026-08-28T17:56:13Z</time>
  <course>0.0</course>
  <speed>0.0</speed>
  <fix>3d</fix>
</trkpt>
<trkpt lat="40.0713749" lon="-105.229789">
  <ele>0.29</ele>
  <time>2026-08-28T17:56:13Z</time>
  <course>245.42</course>
  <speed>0.0</speed>
  <fix>3d</fix>
</trkpt>
<trkpt lat="40.0713749" lon="-105.229789">
  <ele>1583.0</ele>
  <time>2026-08-28T17:56:13Z</time>
  <course>0.0</course>
  <speed>0.0</speed>
  <fix>3d</fix>
</trkpt>
<trkpt lat="40.0713749" lon="-105.229789">
  <ele>0.2</ele>
  <time>2026-08-28T17:56:13Z</time>
  <course>245.5</course>
  <speed>0.0</speed>
  <fix>3d</fix>
</trkpt>
<trkpt lat="40.0713749" lon="-105.229789">
  <ele>1583.0</ele>
  <time>2026-08-28T17:56:13Z</time>
  <course>0.0</course>
  <speed>0.0</speed>
  <fix>3d</fix>
</trkpt>
<trkpt lat="40.0713749" lon="-105.229789">
  <ele>0.02</ele>
  <time>2026-08-28T17:56:13Z</time>
  <course>245.57</course>
  <speed>0.0</speed>
  <fix>3d</fix>
</trkpt>
<trkpt lat="40.0713749" lon="-105.229789">
  <ele>1583.0</ele>
  <time>2026-08-28T17:56:13Z</time>
  <course>0.0</course>
  <speed>0.0</speed>
  <fix>3d</fix>
</trkpt>
<trkpt lat="40.0713749" lon="-105.229789">
  <ele>0.32</ele>
  <time>2026-08-28T17:56:13Z</time>
  <course>245.63</course>
  <speed>0.0</speed>
  <fix>3d</fix>
</trkpt>
<trkpt lat="40.0713749" lon="-105.229789">
  <ele>1583.0</ele>
  <time>2026-08-28T17:56:13Z</time>
  <course>0.0</course>
  <speed>0.0</speed>
  <fix>3d</fix>
</trkpt>
<trkpt lat="40.0713749" lon="-105.229789">
  <ele>0.3</ele>
  <time>2026-08-28T17:56:13Z</time>
  <course>245.68</course>
  <speed>0.0</speed>
  <fix>3d</fix>
</trkpt>
<trkpt lat="40.0713749" lon="-105.229789">
  <ele>1583.0</ele>
  <time>2026-08-28T17:56:13Z</time>
  <course>0.0</course>
  <speed>0.0</speed>
  <fix>3d</fix>
</trkpt>
<trkpt lat="40.0713749" lon="-105.229789">
  <ele>0.1</ele>
  <time>2026-08-28T17:56:13Z</time>
  <course>245.72</course>
  <speed>0.0</speed>
  <fix>3d</fix>
</trkpt>
<trkpt lat="40.0713749" lon="-105.229789">
  <ele>1583.0</ele>
  <time>2026-08-28T17:56:13Z</time>
  <course>0.0</course>
  <speed>0.0</speed>
  <fix>3d</fix>
</trkpt>
<trkpt lat="40.0713749" lon="-105.229789">
  <ele>0.35</ele>
  <time>2026-08-28T17:56:13Z</time>
  <course>245.76</course>
  <speed>0.0</speed>
  <fix>3d</fix>
</trkpt>
<trkpt lat="40.0713749" lon="-105.229789">
  <ele>1583.0</ele>
  <time>2026-08-28T17:56:13Z</time>
  <course>0.0</course>
  <speed>0.0</speed>
  <fix>3d</fix>
</trkpt>
<trkpt lat="40.0713749" lon="-105.229789">
  <ele>-0.21</ele>
  <time>2026-08-28T17:56:13Z</time>
  <course>245.8</course>
  <speed>0.0</speed>
  <fix>3d</fix>
</trkpt>
<trkpt lat="40.0713749" lon="-105.229789">
  <ele>1583.0</ele>
  <time>2026-08-28T17:56:13Z</time>
  <course>0.0</course>
  <speed>0.0</speed>
  <fix>3d</fix>
</trkpt>
<trkpt lat="40.0713749" lon="-105.229789">
  <ele>-0.33</ele>
  <time>2026-08-28T17:56:13Z</time>
  <course>245.83</course>
  <speed>0.0</speed>
  <fix>3d</fix>
</trkpt>
<trkpt lat="40.0713749" lon="-105.229789">
  <ele>1583.0</ele>
  <time>2026-08-28T17:56:13Z</time>
  <course>0.0</course>
  <speed>0.0</speed>
  <fix>3d</fix>
</trkpt>
<trkpt lat="40.0713749" lon="-105.229789">
  <ele>-0.06</ele>
  <time>2026-08-28T17:56:13Z</time>
  <course>245.85</course>
  <speed>0.0</speed>
  <fix>3d</fix>
</trkpt>
<trkpt lat="40.0713749" lon="-105.229789">
  <ele>1583.0</ele>
  <time>2026-08-28T17:56:13Z</time>
  <course>0.0</course>
  <speed>0.0</speed>
  <fix>3d</fix>
</trkpt>
<trkpt lat="40.0713749" lon="-105.229789">
  <ele>-0.03</ele>
  <time>2026-08-28T17:56:13Z</time>
  <course>245.88</course>
  <speed>0.0</speed>
  <fix>3d</fix>
</trkpt>
<trkpt lat="40.0713749" lon="-105.229789">
  <ele>1583.0</ele>
  <time>2026-08-28T17:56:13Z</time>
  <course>0.0</course>
  <speed>0.0</speed>
  <fix>3d</fix>
</trkpt>
<trkpt lat="40.0713749" lon="-105.229789">
  <ele>0.01</ele>
  <time>2026-08-28T17:56:13Z</time>
  <course>245.9</course>
  <speed>0.0</speed>
  <fix>3d</fix>
</trkpt>
<trkpt lat="40.0713749" lon="-105.229789">
  <ele>1583.0</ele>
  <time>2026-08-28T17:56:13Z</time>
  <course>0.0</course>
  <speed>0.0</speed>
  <fix>3d</fix>
</trkpt>
<trkpt lat="40.0713749" lon="-105.229789">
  <ele>-0.03</ele>
  <time>2026-08-28T17:56:13Z</time>
  <course>245.92</course>
  <speed>0.0</speed>
  <fix>3d</fix>
</trkpt>
<trkpt lat="40.0713749" lon="-105.229789">
  <ele>1583.0</ele>
  <time>2026-08-28T17:56:13Z</time>
  <course>0.0</course>
  <speed>0.0</speed>
  <fix>3d</fix>
</trkpt>
<trkpt lat="40.0713749" lon="-105.229789">
  <ele>-0.31</ele>
  <time>2026-08-28T17:56:13Z</time>
  <course>245.93</course>
  <speed>0.0</speed>
  <fix>3d</fix>
</trkpt>
<trkpt lat="40.0713749" lon="-105.229789">
  <ele>1583.0</ele>
  <time>2026-08-28T17:56:13Z</time>
  <course>0.0</course>
  <speed>0.0</speed>
  <fix>3d</fix>
</trkpt>
<trkpt lat="40.0713749" lon="-105.229789">
  <ele>-0.03</ele>
  <time>2026-08-28T17:56:13Z</time>
  <course>245.94</course>
  <speed>0.0</speed>
  <fix>3d</fix>
</trkpt>
<trkpt lat="40.0713749" lon="-105.229789">
  <ele>1583.0</ele>
  <time>2026-08-28T17:56:13Z</time>
  <course>0.0</course>
  <speed>0.0</speed>
  <fix>3d</fix>
</trkpt>
<trkpt lat="40.0713749" lon="-105.229789">
  <ele>-0.27</ele>
  <time>2026-08-28T17:56:13Z</time>
  <course>245.95</course>
  <speed>0.0</speed>
  <fix>3d</fix>
</trkpt>
<trkpt lat="40.0713749" lon="-105.229789">
  <ele>1583.0</ele>
  <time>2026-08-28T17:56:13Z</time>
  <course>0.0</course>
  <speed>0.0</speed>
  <fix>3d</fix>
</trkpt>
<trkpt lat="40.0713749" lon="-105.229789">
  <ele>-0.36</ele>
  <time>2026-08-28T17:56:13Z</time>
  <course>245.96</course>
  <speed>0.0</speed>
  <fix>3d</fix>
</trkpt>
<trkpt lat="40.0713749" lon="-105.229789">
  <ele>1583.0</ele>
  <time>2026-08-28T17:56:13Z</time>
  <course>0.0</course>
  <speed>0.0</speed>
  <fix>3d</fix>
</trkpt>
<trkpt lat="40.0713749" lon="-105.229789">
  <ele>0.22</ele>
  <time>2026-08-28T17:56:13Z</time>
  <course>245.97</course>
  <speed>0.0</speed>
  <fix>3d</fix>
</trkpt>
<trkpt lat="40.0713749" lon="-105.229789">
  <ele>1583.0</ele>
  <time>2026-08-28T17:56:13Z</time>
  <course>0.0</course>
  <speed>0.0</speed>
  <fix>3d</fix>
</trkpt>
<trkpt lat="40.0713749" lon="-105.229789">
  <ele>0.26</ele>
  <time>2026-08-28T17:56:13Z</time>
  <course>245.98</course>
  <speed>0.0</speed>
  <fix>3d</fix>
</trkpt>
<trkpt lat="40.0713749" lon="-105.229789">
  <ele>1583.0</ele>
  <time>2026-08-28T17:56:13Z</time>
  <course>0.0</course>
  <speed>0.0</speed>
  <fix>3d</fix>
</trkpt>
<trkpt lat="40.0713749" lon="-105.229789">
  <ele>0.02</ele>
  <time>2026-08-28T17:56:13Z</time>
  <course>245.99</course>
  <speed>0.0</speed>
  <fix>3d</fix>
</trkpt>
<trkpt lat="40.0713749" lon="-105.229789">
  <ele>1583.0</ele>
  <time>2026-08-28T17:56:13Z</time>
  <course>0.0</course>
  <speed>0.0</speed>
  <fix>3d</fix>
</trkpt>
<trkpt lat="40.0713749" lon="-105.229789">
  <ele>0.21</ele>
  <time>2026-08-28T17:56:13Z</time>
  <course>245.99</course>
  <speed>0.0</speed>
  <fix>3d</fix>
</trkpt>
<trkpt lat="40.0713749" lon="-105.229789">
  <ele>1583.0</ele>
  <time>2026-08-28T17:56:13Z</time>
  <course>0.0</course>
  <speed>0.0</speed>
  <fix>3d</fix>
</trkpt>
<trkpt lat="40.0713749" lon="-105.229789">
  <ele>0.37</ele>
  <time>2026-08-28T17:56:13Z</time>
  <course>246.0</course>
  <speed>0.0</speed>
  <fix>3d</fix>
</trkpt>
<trkpt lat="40.0713749" lon="-105.229789">
  <ele>1583.0</ele>
  <time>2026-08-28T17:56:13Z</time>
  <course>0.0</course>
  <speed>0.0</speed>
  <fix>3d</fix>
</trkpt>
<trkpt lat="40.0713749" lon="-105.229789">
  <ele>0.03</ele>
  <time>2026-08-28T17:56:13Z</time>
  <course>246.0</course>
  <speed>0.0</speed>
  <fix>3d</fix>
</trkpt>
<trkpt lat="40.0713749" lon="-105.229789">
  <ele>1583.0</ele>
  <time>2026-08-28T17:56:13Z</time>
  <course>0.0</course>
  <speed>0.0</speed>
  <fix>3d</fix>
</trkpt>
<trkpt lat="40.0713749" lon="-105.229789">
  <ele>0.16</ele>
  <time>2026-08-28T17:56:13Z</time>
  <course>246.01</course>
  <speed>0.0</speed>
  <fix>3d</fix>
</trkpt>
<trkpt lat="40.0713749" lon="-105.229789">
  <ele>1583.0</ele>
  <time>2026-08-28T17:56:13Z</time>
  <course>0.0</course>
  <speed>0.0</speed>
  <fix>3d</fix>
</trkpt>
<trkpt lat="40.0713749" lon="-105.229789">
  <ele>0.26</ele>
  <time>2026-08-28T17:56:13Z</time>
  <course>246.01</course>
  <speed>0.0</speed>
  <fix>3d</fix>
</trkpt>
<trkpt lat="40.0713749" lon="-105.229789">
  <ele>1583.0</ele>
  <time>2026-08-28T17:56:13Z</time>
  <course>0.0</course>
  <speed>0.0</speed>
  <fix>3d</fix>
</trkpt>
<trkpt lat="40.0713749" lon="-105.229789">
  <ele>0.01</ele>
  <time>2026-08-28T17:56:13Z</time>
  <course>246.01</course>
  <speed>0.0</speed>
  <fix>3d</fix>
</trkpt>
<trkpt lat="40.0713749" lon="-105.229789">
  <ele>1583.0</ele>
  <time>2026-08-28T17:56:13Z</time>
  <course>0.0</course>
  <speed>0.0</speed>
  <fix>3d</fix>
</trkpt>
<trkpt lat="40.0713749" lon="-105.229789">
  <ele>0.31</ele>
  <time>2026-08-28T17:56:13Z</time>
  <course>246.02</course>
  <speed>0.0</speed>
  <fix>3d</fix>
</trkpt>
<trkpt lat="40.0713749" lon="-105.229789">
  <ele>1583.0</ele>
  <time>2026-08-28T17:56:13Z</time>
  <course>0.0</course>
  <speed>0.0</speed>
  <fix>3d</fix>
</trkpt>
<trkpt lat="40.0713749" lon="-105.229789">
  <ele>0.04</ele>
  <time>2026-08-28T17:56:13Z</time>
  <course>246.02</course>
  <speed>0.0</speed>
  <fix>3d</fix>
</trkpt>
<trkpt lat="40.0713749" lon="-105.229789">
  <ele>1583.0</ele>
  <time>2026-08-28T17:56:13Z</time>
  <course>0.0</course>
  <speed>0.0</speed>
  <fix>3d</fix>
</trkpt>
<trkpt lat="40.0713749" lon="-105.229789">
  <ele>0.03</ele>
  <time>2026-08-28T17:56:13Z</time>
  <course>246.02</course>
  <speed>0.0</speed>
  <fix>3d</fix>
</trkpt>
<trkpt lat="40.0713749" lon="-105.229789">
  <ele>1583.0</ele>
  <time>2026-08-28T17:56:13Z</time>
  <course>0.0</course>
  <speed>0.0</speed>
  <fix>3d</fix>
</trkpt>
<trkpt lat="40.0713749" lon="-105.229789">
  <ele>-0.18</ele>
  <time>2026-08-28T17:56:13Z</time>
  <course>246.02</course>
  <speed>0.0</speed>
  <fix>3d</fix>
</trkpt>
<trkpt lat="40.0713749" lon="-105.229789">
  <ele>1583.0</ele>
  <time>2026-08-28T17:56:13Z</time>
  <course>0.0</course>
  <speed>0.0</speed>
  <fix>3d</fix>
</trkpt>
<trkpt lat="40.0713749" lon="-105.229789">
  <ele>-0.11</ele>
  <time>2026-08-28T17:56:13Z</time>
  <course>246.02</course>
  <speed>0.0</speed>
  <fix>3d</fix>
</trkpt>
<trkpt lat="40.0713749" lon="-105.229789">
  <ele>1583.0</ele>
  <time>2026-08-28T17:56:13Z</time>
  <course>0.0</course>
  <speed>0.0</speed>
  <fix>3d</fix>
</trkpt>
<trkpt lat="40.0713749" lon="-105.229789">
  <ele>-0.08</ele>
  <time>2026-08-28T17:56:13Z</time>
  <course>246.02</course>
  <speed>0.0</speed>
  <fix>3d</fix>
</trkpt>
<trkpt lat="40.0713749" lon="-105.229789">
  <ele>1583.0</ele>
  <time>2026-08-28T17:56:13Z</time>
  <course>0.0</course>
  <speed>0.0</speed>
  <fix>3d</fix>
</trkpt>
<trkpt lat="40.0713749" lon="-105.229789">
  <ele>-0.28</ele>
  <time>2026-08-28T17:56:13Z</time>
  <course>246.03</course>
  <speed>0.0</speed>
  <fix>3d</fix>
</trkpt>
<trkpt lat="40.0713749" lon="-105.229789">
  <ele>1583.0</ele>
  <time>2026-08-28T17:56:13Z</time>
  <course>0.0</course>
  <speed>0.0</speed>
  <fix>3d</fix>
</trkpt>
<trkpt lat="40.0713749" lon="-105.229789">
  <ele>-0.28</ele>
  <time>2026-08-28T17:56:13Z</time>
  <course>246.03</course>
  <speed>0.0</speed>
  <fix>3d</fix>
</trkpt>
<trkpt lat="40.0713749" lon="-105.229789">
  <ele>1583.0</ele>
  <time>2026-08-28T17:56:13Z</time>
  <course>0.0</course>
  <speed>0.0</speed>
  <fix>3d</fix>
</trkpt>
<trkpt lat="40.0713749" lon="-105.229789">
  <ele>-0.13</ele>
  <time>2026-08-28T17:56:13Z</time>
  <course>246.03</course>
  <speed>0.0</speed>
  <fix>3d</fix>
</trkpt>
<trkpt lat="40.0713749" lon="-105.229789">
  <ele>1583.0</ele>
  <time>2026-08-28T17:56:13Z</time>
  <course>0.0</course>
  <speed>0.0</speed>
  <fix>3d</fix>
</trkpt>
<trkpt lat="40.0713749" lon="-105.229789">
  <ele>-0.23</ele>
  <time>2026-08-28T17:56:13Z</time>
  <course>246.03</course>
  <speed>0.0</speed>
  <fix>3d</fix>
</trkpt>
<trkpt lat="40.0713749" lon="-105.229789">
  <ele>1583.0</ele>
  <time>2026-08-28T17:56:13Z</time>
  <course>0.0</course>
  <speed>0.0</speed>
  <fix>3d</fix>
</trkpt>
<trkpt lat="40.0713749" lon="-105.229789">
  <ele>0.03</ele>
  <time>2026-08-28T17:56:13Z</time>
  <course>246.03</course>
  <speed>0.0</speed>
  <fix>3d</fix>
</trkpt>
<trkpt lat="40.0713749" lon="-105.229789">
  <ele>1583.0</ele>
  <time>2026-08-28T17:56:13Z</time>
  <course>0.0</course>
  <speed>0.0</speed>
  <fix>3d</fix>
</trkpt>
<trkpt lat="40.0713749" lon="-105.229789">
  <ele>0.03</ele>
  <time>2026-08-28T17:56:13Z</time>
  <course>246.03</course>
  <speed>0.0</speed>
  <fix>3d</fix>
</trkpt>
<trkpt lat="40.0713749" lon="-105.229789">
  <ele>1583.0</ele>
  <time>2026-08-28T17:56:13Z</time>
  <course>0.0</course>
  <speed>0.0</speed>
  <fix>3d</fix>
</trkpt>
<trkpt lat="40.0713749" lon="-105.229789">
  <ele>-0.08</ele>
  <time>2026-08-28T17:56:13Z</time>
  <course>246.03</course>
  <speed>0.0</speed>
  <fix>3d</fix>
</trkpt>
<trkpt lat="40.0713749" lon="-105.229789">
  <ele>1583.0</ele>
  <time>2026-08-28T17:56:13Z</time>
  <course>0.0</course>
  <speed>0.0</speed>
  <fix>3d</fix>
</trkpt>
<trkpt lat="40.0713749" lon="-105.229789">
  <ele>0.02</ele>
  <time>2026-08-28T17:56:13Z</time>
  <course>246.03</course>
  <speed>0.0</speed>
  <fix>3d</fix>
</trkpt>
<trkpt lat="40.0713749" lon="-105.229789">
  <ele>1583.0</ele>
  <time>2026-08-28T17:56:13Z</time>
  <course>0.0</course>
  <speed>0.0</speed>
  <fix>3d</fix>
</trkpt>
<trkpt lat="40.0713749" lon="-105.229789">
  <ele>-0.11</ele>
  <time>2026-08-28T17:56:13Z</time>
  <course>246.03</course>
  <speed>0.0</speed>
  <fix>3d</fix>
</trkpt>
<trkpt lat="40.0713749" lon="-105.229789">
  <ele>1583.0</ele>
  <time>2026-08-28T17:56:13Z</time>
  <course>0.0</course>
  <speed>0.0</speed>
  <fix>3d</fix>
</trkpt>
<trkpt lat="40.0713749" lon="-105.229789">
  <ele>-0.24</ele>
  <time>2026-08-28T17:56:13Z</time>
  <course>246.03</course>
  <speed>0.0</speed>
  <fix>3d</fix>
</trkpt>
<trkpt lat="40.0713749" lon="-105.229789">
  <ele>1583.0</ele>
  <time>2026-08-28T17:56:13Z</time>
  <course>0.0</course>
  <speed>0.0</speed>
  <fix>3d</fix>
</trkpt>
<trkpt lat="40.0713749" lon="-105.229789">
  <ele>-0.13</ele>
  <time>2026-08-28T17:56:13Z</time>
  <course>246.03</course>
  <speed>0.0</speed>
  <fix>3d</fix>
</trkpt>
<trkpt lat="40.0713749" lon="-105.229789">
  <ele>1583.0</ele>
  <time>2026-08-28T17:56:13Z</time>
  <course>0.0</course>
  <speed>0.0</speed>
  <fix>3d</fix>
</trkpt>
<trkpt lat="40.0713749" lon="-105.229789">
  <ele>-0.07</ele>
  <time>2026-08-28T17:56:13Z</time>
  <course>246.03</course>
  <speed>0.0</speed>
  <fix>3d</fix>
</trkpt>
<trkpt lat="40.0713749" lon="-105.229789">
  <ele>1583.0</ele>
  <time>2026-08-28T17:56:13Z</time>
  <course>0.0</course>
  <speed>0.0</speed>
  <fix>3d</fix>
</trkpt>
<trkpt lat="40.0713749" lon="-105.229789">
  <ele>-0.21</ele>
  <time>2026-08-28T17:56:13Z</time>
  <course>246.03</course>
  <speed>0.0</speed>
  <fix>3d</fix>
</trkpt>
<trkpt lat="40.0713749" lon="-105.229789">
  <ele>1583.0</ele>
  <time>2026-08-28T17:56:13Z</time>
  <course>0.0</course>
  <speed>0.0</speed>
  <fix>3d</fix>
</trkpt>
<trkpt lat="40.0713749" lon="-105.229789">
  <ele>0.01</ele>
  <time>2026-08-28T17:56:13Z</time>
  <course>246.03</course>
  <speed>0.0</speed>
  <fix>3d</fix>
</trkpt>
<trkpt lat="40.0713749" lon="-105.229789">
  <ele>1583.0</ele>
  <time>2026-08-28T17:56:13Z</time>
  <course>0.0</course>
  <speed>0.0</speed>
  <fix>3d</fix>
</trkpt>
<trkpt lat="40.0713749" lon="-105.229789">
  <ele>-0.01</ele>
  <time>2026-08-28T17:56:13Z</time>
  <course>246.03</course>
  <speed>0.0</speed>
  <fix>3d</fix>
</trkpt>
<trkpt lat="40.0713749" lon="-105.229789">
  <ele>1583.0</ele>
  <time>2026-08-28T17:56:13Z</time>
  <course>0.0</course>
  <speed>0.0</speed>
  <fix>3d</fix>
</trkpt>
<trkpt lat="40.0713749" lon="-105.229789">
  <ele>0.0</ele>
  <time>2026-08-28T17:56:13Z</time>
  <course>246.03</course>
  <speed>0.0</speed>
  <fix>3d</fix>
</trkpt>
<trkpt lat="40.0713749" lon="-105.229789">
  <ele>1583.0</ele>
  <time>2026-08-28T17:56:13Z</time>
  <course>0.0</course>
  <speed>0.0</speed>
  <fix>3d</fix>
</trkpt>
<trkpt lat="40.0713749" lon="-105.229789">
  <ele>0.04</ele>
  <time>2026-08-28T17:56:13Z</time>
  <course>246.03</course>
  <speed>0.0</speed>
  <fix>3d</fix>
</trkpt>
<trkpt lat="40.0713749" lon="-105.229789">
  <ele>1583.0</ele>
  <time>2026-08-28T17:56:13Z</time>
  <course>0.0</course>
  <speed>0.0</speed>
  <fix>3d</fix>
</trkpt>
<trkpt lat="40.0713749" lon="-105.229789">
  <ele>-0.04</ele>
  <time>2026-08-28T17:56:13Z</time>
  <course>246.03</course>
  <speed>0.0</speed>
  <fix>3d</fix>
</trkpt>
<trkpt lat="40.0713749" lon="-105.229789">
  <ele>1583.0</ele>
  <time>2026-08-28T17:56:13Z</time>
  <course>0.0</course>
  <speed>0.0</speed>
  <fix>3d</fix>
</trkpt>
<trkpt lat="40.0713749" lon="-105.229789">
  <ele>-0.11</ele>
  <time>2026-08-28T17:56:13Z</time>
  <course>246.03</course>
  <speed>0.0</speed>
  <fix>3d</fix>
</trkpt>
<trkpt lat="40.0713749" lon="-105.229789">
  <ele>1583.0</ele>
  <time>2026-08-28T17:56:13Z</time>
  <course>0.0</course>
  <speed>0.0</speed>
  <fix>3d</fix>
</trkpt>
<trkpt lat="40.0713749" lon="-105.229789">
  <ele>-0.25</ele>
  <time>2026-08-28T17:56:13Z</time>
  <course>246.03</course>
  <speed>0.0</speed>
  <fix>3d</fix>
</trkpt>
<trkpt lat="40.0713749" lon="-105.229789">
  <ele>1583.0</ele>
  <time>2026-08-28T17:56:13Z</time>
  <course>0.0</course>
  <speed>0.0</speed>
  <fix>3d</fix>
</trkpt>
<trkpt lat="40.0713749" lon="-105.229789">
  <ele>-0.22</ele>
  <time>2026-08-28T17:56:13Z</time>
  <course>246.03</course>
  <speed>0.0</speed>
  <fix>3d</fix>
</trkpt>
<trkpt lat="40.0713749" lon="-105.229789">
  <ele>1583.0</ele>
  <time>2026-08-28T17:56:13Z</time>
  <course>0.0</course>
  <speed>0.0</speed>
  <fix>3d</fix>
</trkpt>
<trkpt lat="40.0713749" lon="-105.229789">
  <ele>-0.27</ele>
  <time>2026-08-28T17:56:13Z</time>
  <course>246.03</course>
  <speed>0.0</speed>
  <fix>3d</fix>
</trkpt>
<trkpt lat="40.0713749" lon="-105.229789">
  <ele>1583.0</ele>
  <time>2026-08-28T17:56:13Z</time>
  <course>0.0</course>
  <speed>0.0</speed>
  <fix>3d</fix>
</trkpt>
<trkpt lat="40.0713749" lon="-105.229789">
  <ele>-0.07</ele>
  <time>2026-08-28T17:56:13Z</time>
  <course>246.03</course>
  <speed>0.0</speed>
  <fix>3d</fix>
</trkpt>
<trkpt lat="40.0713749" lon="-105.229789">
  <ele>1583.0</ele>
  <time>2026-08-28T17:56:13Z</time>
  <course>0.0</course>
  <speed>0.0</speed>
  <fix>3d</fix>
</trkpt>
<trkpt lat="40.0713749" lon="-105.229789">
  <ele>-0.07</ele>
  <time>2026-08-28T17:56:13Z</time>
  <course>246.03</course>
  <speed>0.0</speed>
  <fix>3d</fix>
</trkpt>
<trkpt lat="40.0713749" lon="-105.229789">
  <ele>1583.0</ele>
  <time>2026-08-28T17:56:13Z</time>
  <course>0.0</course>
  <speed>0.0</speed>
  <fix>3d</fix>
</trkpt>
<trkpt lat="40.0713749" lon="-105.229789">
  <ele>-0.02</ele>
  <time>2026-08-28T17:56:13Z</time>
  <course>246.03</course>
  <speed>0.0</speed>
  <fix>3d</fix>
</trkpt>
<trkpt lat="40.0713749" lon="-105.229789">
  <ele>1583.0</ele>
  <time>2026-08-28T17:56:13Z</time>
  <course>0.0</course>
  <speed>0.0</speed>
  <fix>3d</fix>
</trkpt>
<trkpt lat="40.0713749" lon="-105.229789">
  <ele>-0.25</ele>
  <time>2026-08-28T17:56:13Z</time>
  <course>246.03</course>
  <speed>0.0</speed>
  <fix>3d</fix>
</trkpt>
<trkpt lat="40.0713749" lon="-105.229789">
  <ele>1583.0</ele>
  <time>2026-08-28T17:56:13Z</time>
  <course>0.0</course>
  <speed>0.0</speed>
  <fix>3d</fix>
</trkpt>
<trkpt lat="40.0713749" lon="-105.229789">
  <ele>0.01</ele>
  <time>2026-08-28T17:56:13Z</time>
  <course>246.03</course>
  <speed>0.0</speed>
  <fix>3d</fix>
</trkpt>
<trkpt lat="40.0713749" lon="-105.229789">
  <ele>1583.0</ele>
  <time>2026-08-28T17:56:13Z</time>
  <course>0.0</course>
  <speed>0.0</speed>
  <fix>3d</fix>
</trkpt>
<trkpt lat="40.0713749" lon="-105.229789">
  <ele>0.01</ele>
  <time>2026-08-28T17:56:13Z</time>
  <course>246.03</course>
  <speed>0.0</speed>
  <fix>3d</fix>
</trkpt>
<trkpt lat="40.0713749" lon="-105.229789">
  <ele>1583.0</ele>
  <time>2026-08-28T17:56:13Z</time>
  <course>0.0</course>
  <speed>0.0</speed>
  <fix>3d</fix>
</trkpt>
<trkpt lat="40.0713749" lon="-105.229789">
  <ele>0.1</ele>
  <time>2026-08-28T17:56:13Z</time>
  <course>246.03</course>
  <speed>0.0</speed>
  <fix>3d</fix>
</trkpt>
<trkpt lat="40.0713749" lon="-105.229789">
  <ele>1583.0</ele>
  <time>2026-08-28T17:56:13Z</time>
  <course>0.0</course>
  <speed>0.0</speed>
  <fix>3d</fix>
</trkpt>
<trkpt lat="40.0713749" lon="-105.229789">
  <ele>-0.13</ele>
  <time>2026-08-28T17:56:13Z</time>
  <course>246.03</course>
  <speed>0.0</speed>
  <fix>3d</fix>
</trkpt>
<trkpt lat="40.0713749" lon="-105.229789">
  <ele>1583.0</ele>
  <time>2026-08-28T17:56:13Z</time>
  <course>0.0</course>
  <speed>0.0</speed>
  <fix>3d</fix>
</trkpt>
<trkpt lat="40.0713749" lon="-105.229789">
  <ele>-0.04</ele>
  <time>2026-08-28T17:56:13Z</time>
  <course>246.03</course>
  <speed>0.0</speed>
  <fix>3d</fix>
</trkpt>
<trkpt lat="40.0713749" lon="-105.229789">
  <ele>1583.0</ele>
  <time>2026-08-28T17:56:13Z</time>
  <course>0.0</course>
  <speed>0.0</speed>
  <fix>3d</fix>
</trkpt>
<trkpt lat="40.0713749" lon="-105.229789">
  <ele>-0.25</ele>
  <time>2026-08-28T17:56:13Z</time>
  <course>246.03</course>
  <speed>0.0</speed>
  <fix>3d</fix>
</trkpt>
<trkpt lat="40.0713749" lon="-105.229789">
  <ele>1583.0</ele>
  <time>2026-08-28T17:56:13Z</time>
  <course>0.0</course>
  <speed>0.0</speed>
  <fix>3d</fix>
</trkpt>
<trkpt lat="40.0713749" lon="-105.229789">
  <ele>-0.12</ele>
  <time>2026-08-28T17:56:13Z</time>
  <course>246.03</course>
  <speed>0.0</speed>
  <fix>3d</fix>
</trkpt>
<trkpt lat="40.0713749" lon="-105.229789">
  <ele>1583.0</ele>
  <time>2026-08-28T17:56:13Z</time>
  <course>0.0</course>
  <speed>0.0</speed>
  <fix>3d</fix>
</trkpt>
<trkpt lat="40.0713749" lon="-105.229789">
  <ele>-0.26</ele>
  <time>2026-08-28T17:56:13Z</time>
  <course>246.03</course>
  <speed>0.0</speed>
  <fix>3d</fix>
</trkpt>
<trkpt lat="40.0713749" lon="-105.229789">
  <ele>1583.0</ele>
  <time>2026-08-28T17:56:13Z</time>
  <course>0.0</course>
  <speed>0.0</speed>
  <fix>3d</fix>
</trkpt>
<trkpt lat="40.0713749" lon="-105.229789">
  <ele>-0.2</ele>
  <time>2026-08-28T17:56:13Z</time>
  <course>246.03</course>
  <speed>0.0</speed>
  <fix>3d</fix>
</trkpt>
<trkpt lat="40.0713749" lon="-105.229789">
  <ele>1583.0</ele>
  <time>2026-08-28T17:56:13Z</time>
  <course>0.0</course>
  <speed>0.0</speed>
  <fix>3d</fix>
</trkpt>
<trkpt lat="40.0713749" lon="-105.229789">
  <ele>-0.03</ele>
  <time>2026-08-28T17:56:13Z</time>
  <course>246.03</course>
  <speed>0.0</speed>
  <fix>3d</fix>
</trkpt>
<trkpt lat="40.0713749" lon="-105.229789">
  <ele>1583.0</ele>
  <time>2026-08-28T17:56:13Z</time>
  <course>0.0</course>
  <speed>0.0</speed>
  <fix>3d</fix>
</trkpt>
<trkpt lat="40.0713749" lon="-105.229789">
  <ele>0.25</ele>
  <time>2026-08-28T17:56:13Z</time>
  <course>246.03</course>
  <speed>0.0</speed>
  <fix>3d</fix>
</trkpt>
<trkpt lat="40.0713749" lon="-105.229789">
  <ele>1583.0</ele>
  <time>2026-08-28T17:56:13Z</time>
  <course>0.0</course>
  <speed>0.0</speed>
  <fix>3d</fix>
</trkpt>
<trkpt lat="40.0713749" lon="-105.229789">
  <ele>0.16</ele>
  <time>2026-08-28T17:56:13Z</time>
  <course>246.03</course>
  <speed>0.0</speed>
  <fix>3d</fix>
</trkpt>
<trkpt lat="40.0713749" lon="-105.229789">
  <ele>1583.0</ele>
  <time>2026-08-28T17:56:13Z</time>
  <course>0.0</course>
  <speed>0.0</speed>
  <fix>3d</fix>
</trkpt>
<trkpt lat="40.0713749" lon="-105.229789">
  <ele>0.27</ele>
  <time>2026-08-28T17:56:13Z</time>
  <course>246.03</course>
  <speed>0.0</speed>
  <fix>3d</fix>
</trkpt>
<trkpt lat="40.0713749" lon="-105.229789">
  <ele>1583.0</ele>
  <time>2026-08-28T17:56:13Z</time>
  <course>0.0</course>
  <speed>0.0</speed>
  <fix>3d</fix>
</trkpt>
<trkpt lat="40.0713749" lon="-105.229789">
  <ele>-0.04</ele>
  <time>2026-08-28T17:56:13Z</time>
  <course>246.03</course>
  <speed>0.0</speed>
  <fix>3d</fix>
</trkpt>
<trkpt lat="40.0713749" lon="-105.229789">
  <ele>1583.0</ele>
  <time>2026-08-28T17:56:13Z</time>
  <course>0.0</course>
  <speed>0.0</speed>
  <fix>3d</fix>
</trkpt>
<trkpt lat="40.0713749" lon="-105.229789">
  <ele>-0.06</ele>
  <time>2026-08-28T17:56:13Z</time>
  <course>246.03</course>
  <speed>0.0</speed>
  <fix>3d</fix>
</trkpt>
<trkpt lat="40.0713749" lon="-105.229789">
  <ele>1583.0</ele>
  <time>2026-08-28T17:56:13Z</time>
  <course>0.0</course>
  <speed>0.0</speed>
  <fix>3d</fix>
</trkpt>
<trkpt lat="40.0713749" lon="-105.229789">
  <ele>0.26</ele>
  <time>2026-08-28T17:56:13Z</time>
  <course>246.03</course>
  <speed>0.0</speed>
  <fix>3d</fix>
</trkpt>
<trkpt lat="40.0713749" lon="-105.229789">
  <ele>1583.0</ele>
  <time>2026-08-28T17:56:13Z</time>
  <course>0.0</course>
  <speed>0.0</speed>
  <fix>3d</fix>
</trkpt>
<trkpt lat="40.0713749" lon="-105.229789">
  <ele>0.04</ele>
  <time>2026-08-28T17:56:13Z</time>
  <course>246.03</course>
  <speed>0.0</speed>
  <fix>3d</fix>
</trkpt>
<trkpt lat="40.0713749" lon="-105.229789">
  <ele>1583.0</ele>
  <time>2026-08-28T17:56:13Z</time>
  <course>0.0</course>
  <speed>0.0</speed>
  <fix>3d</fix>
</trkpt>
<trkpt lat="40.0713749" lon="-105.229789">
  <ele>0.25</ele>
  <time>2026-08-28T17:56:13Z</time>
  <course>246.03</course>
  <speed>0.0</speed>
  <fix>3d</fix>
</trkpt>
<trkpt lat="40.0713749" lon="-105.229789">
  <ele>1583.0</ele>
  <time>2026-08-28T17:56:13Z</time>
  <course>0.0</course>
  <speed>0.0</speed>
  <fix>3d</fix>
</trkpt>
<trkpt lat="40.0713749" lon="-105.229789">
  <ele>0.27</ele>
  <time>2026-08-28T17:56:13Z</time>
  <course>246.03</course>
  <speed>0.0</speed>
  <fix>3d</fix>
</trkpt>
<trkpt lat="40.0713749" lon="-105.229789">
  <ele>1583.0</ele>
  <time>2026-08-28T17:56:13Z</time>
  <course>0.0</course>
  <speed>0.0</speed>
  <fix>3d</fix>
</trkpt>
<trkpt lat="40.0713749" lon="-105.229789">
  <ele>-0.25</ele>
  <time>2026-08-28T17:56:13Z</time>
  <course>246.03</course>
  <speed>0.0</speed>
  <fix>3d</fix>
</trkpt>
<trkpt lat="40.0713749" lon="-105.229789">
  <ele>1583.0</ele>
  <time>2026-08-28T17:56:13Z</time>
  <course>0.0</course>
  <speed>0.0</speed>
  <fix>3d</fix>
</trkpt>
<trkpt lat="40.0713749" lon="-105.229789">
  <ele>-0.16</ele>
  <time>2026-08-28T17:56:13Z</time>
  <course>246.03</course>
  <speed>0.0</speed>
  <fix>3d</fix>
</trkpt>
<trkpt lat="40.0713749" lon="-105.229789">
  <ele>1583.0</ele>
  <time>2026-08-28T17:56:13Z</time>
  <course>0.0</course>
  <speed>0.0</speed>
  <fix>3d</fix>
</trkpt>
<trkpt lat="40.0713749" lon="-105.229789">
  <ele>-0.13</ele>
  <time>2026-08-28T17:56:13Z</time>
  <course>246.03</course>
  <speed>0.0</speed>
  <fix>3d</fix>
</trkpt>
<trkpt lat="40.0713749" lon="-105.229789">
  <ele>1583.0</ele>
  <time>2026-08-28T17:56:13Z</time>
  <course>0.0</course>
  <speed>0.0</speed>
  <fix>3d</fix>
</trkpt>
<trkpt lat="40.0713749" lon="-105.229789">
  <ele>-0.3</ele>
  <time>2026-08-28T17:56:13Z</time>
  <course>246.03</course>
  <speed>0.0</speed>
  <fix>3d</fix>
</trkpt>
<trkpt lat="40.0713749" lon="-105.229789">
  <ele>1583.0</ele>
  <time>2026-08-28T17:56:13Z</time>
  <course>0.0</course>
  <speed>0.0</speed>
  <fix>3d</fix>
</trkpt>
<trkpt lat="40.0713749" lon="-105.229789">
  <ele>-0.1</ele>
  <time>2026-08-28T17:56:13Z</time>
  <course>246.03</course>
  <speed>0.0</speed>
  <fix>3d</fix>
</trkpt>
<trkpt lat="40.0713749" lon="-105.229789">
  <ele>1583.0</ele>
  <time>2026-08-28T17:56:13Z</time>
  <course>0.0</course>
  <speed>0.0</speed>
  <fix>3d</fix>
</trkpt>
<trkpt lat="40.0713749" lon="-105.229789">
  <ele>-0.26</ele>
  <time>2026-08-28T17:56:13Z</time>
  <course>246.03</course>
  <speed>0.0</speed>
  <fix>3d</fix>
</trkpt>
<trkpt lat="40.0713749" lon="-105.229789">
  <ele>1583.0</ele>
  <time>2026-08-28T17:56:13Z</time>
  <course>0.0</course>
  <speed>0.0</speed>
  <fix>3d</fix>
</trkpt>
<trkpt lat="40.0713749" lon="-105.229789">
  <ele>-0.19</ele>
  <time>2026-08-28T17:56:13Z</time>
  <course>246.03</course>
  <speed>0.0</speed>
  <fix>3d</fix>
</trkpt>
<trkpt lat="40.0713749" lon="-105.229789">
  <ele>1583.0</ele>
  <time>2026-08-28T17:56:13Z</time>
  <course>0.0</course>
  <speed>0.0</speed>
  <fix>3d</fix>
</trkpt>
<trkpt lat="40.0713749" lon="-105.229789">
  <ele>-0.09</ele>
  <time>2026-08-28T17:56:13Z</time>
  <course>246.03</course>
  <speed>0.0</speed>
  <fix>3d</fix>
</trkpt>
<trkpt lat="40.0713749" lon="-105.229789">
  <ele>1583.0</ele>
  <time>2026-08-28T17:56:13Z</time>
  <course>0.0</course>
  <speed>0.0</speed>
  <fix>3d</fix>
</trkpt>
<trkpt lat="40.0713749" lon="-105.229789">
  <ele>-0.24</ele>
  <time>2026-08-28T17:56:13Z</time>
  <course>246.03</course>
  <speed>0.0</speed>
  <fix>3d</fix>
</trkpt>
<trkpt lat="40.0713749" lon="-105.229789">
  <ele>1583.0</ele>
  <time>2026-08-28T17:56:13Z</time>
  <course>0.0</course>
  <speed>0.0</speed>
  <fix>3d</fix>
</trkpt>
<trkpt lat="40.0713749" lon="-105.229789">
  <ele>-0.08</ele>
  <time>2026-08-28T17:56:13Z</time>
  <course>246.03</course>
  <speed>0.0</speed>
  <fix>3d</fix>
</trkpt>
<trkpt lat="40.0713749" lon="-105.229789">
  <ele>1583.0</ele>
  <time>2026-08-28T17:56:13Z</time>
  <course>0.0</course>
  <speed>0.0</speed>
  <fix>3d</fix>
</trkpt>
<trkpt lat="40.0713749" lon="-105.229789">
  <ele>0.05</ele>
  <time>2026-08-28T17:56:13Z</time>
  <course>246.03</course>
  <speed>0.0</speed>
  <fix>3d</fix>
</trkpt>
<trkpt lat="40.0713749" lon="-105.229789">
  <ele>1583.0</ele>
  <time>2026-08-28T17:56:13Z</time>
  <course>0.0</course>
  <speed>0.0</speed>
  <fix>3d</fix>
</trkpt>
<trkpt lat="40.0713749" lon="-105.229789">
  <ele>0.0</ele>
  <time>2026-08-28T17:56:13Z</time>
  <course>246.03</course>
  <speed>0.0</speed>
  <fix>3d</fix>
</trkpt>
<trkpt lat="40.0713749" lon="-105.229789">
  <ele>1583.0</ele>
  <time>2026-08-28T17:56:13Z</time>
  <course>0.0</course>
  <speed>0.0</speed>
  <fix>3d</fix>
</trkpt>
<trkpt lat="40.0713749" lon="-105.229789">
  <ele>-0.07</ele>
  <time>2026-08-28T17:56:13Z</time>
  <course>246.03</course>
  <speed>0.0</speed>
  <fix>3d</fix>
</trkpt>
<trkpt lat="40.0713749" lon="-105.229789">
  <ele>1583.0</ele>
  <time>2026-08-28T17:56:13Z</time>
  <course>0.0</course>
  <speed>0.0</speed>
  <fix>3d</fix>
</trkpt>
<trkpt lat="40.0713749" lon="-105.229789">
  <ele>0.13</ele>
  <time>2026-08-28T17:56:13Z</time>
  <course>246.03</course>
  <speed>0.0</speed>
  <fix>3d</fix>
</trkpt>
<trkpt lat="40.0713749" lon="-105.229789">
  <ele>1583.0</ele>
  <time>2026-08-28T17:56:13Z</time>
  <course>0.0</course>
  <speed>0.0</speed>
  <fix>3d</fix>
</trkpt>
<trkpt lat="40.0713749" lon="-105.229789">
  <ele>-0.14</ele>
  <time>2026-08-28T17:56:13Z</time>
  <course>246.03</course>
  <speed>0.0</speed>
  <fix>3d</fix>
</trkpt>
<trkpt lat="40.0713749" lon="-105.229789">
  <ele>1583.0</ele>
  <time>2026-08-28T17:56:13Z</time>
  <course>0.0</course>
  <speed>0.0</speed>
  <fix>3d</fix>
</trkpt>
<trkpt lat="40.0713749" lon="-105.229789">
  <ele>-0.16</ele>
  <time>2026-08-28T17:56:13Z</time>
  <course>246.03</course>
  <speed>0.0</speed>
  <fix>3d</fix>
</trkpt>
<trkpt lat="40.0713749" lon="-105.229789">
  <ele>1583.0</ele>
  <time>2026-08-28T17:56:13Z</time>
  <course>0.0</course>
  <speed>0.0</speed>
  <fix>3d</fix>
</trkpt>
<trkpt lat="40.0713749" lon="-105.229789">
  <ele>-0.06</ele>
  <time>2026-08-28T17:56:13Z</time>
  <course>246.03</course>
  <speed>0.0</speed>
  <fix>3d</fix>
</trkpt>
<trkpt lat="40.0713749" lon="-105.229789">
  <ele>1583.0</ele>
  <time>2026-08-28T17:56:13Z</time>
  <course>0.0</course>
  <speed>0.0</speed>
  <fix>3d</fix>
</trkpt>
<trkpt lat="40.0713749" lon="-105.229789">
  <ele>-0.04</ele>
  <time>2026-08-28T17:56:13Z</time>
  <course>246.03</course>
  <speed>0.0</speed>
  <fix>3d</fix>
</trkpt>
<trkpt lat="40.0713749" lon="-105.229789">
  <ele>1583.0</ele>
  <time>2026-08-28T17:56:13Z</time>
  <course>0.0</course>
  <speed>0.0</speed>
  <fix>3d</fix>
</trkpt>
<trkpt lat="40.0713749" lon="-105.229789">
  <ele>-0.02</ele>
  <time>2026-08-28T17:56:13Z</time>
  <course>246.03</course>
  <speed>0.0</speed>
  <fix>3d</fix>
</trkpt>
<trkpt lat="40.0713749" lon="-105.229789">
  <ele>1583.0</ele>
  <time>2026-08-28T17:56:13Z</time>
  <course>0.0</course>
  <speed>0.0</speed>
  <fix>3d</fix>
</trkpt>
<trkpt lat="40.0713749" lon="-105.229789">
  <ele>-0.17</ele>
  <time>2026-08-28T17:56:13Z</time>
  <course>246.03</course>
  <speed>0.0</speed>
  <fix>3d</fix>
</trkpt>
<trkpt lat="40.0713749" lon="-105.229789">
  <ele>1583.0</ele>
  <time>2026-08-28T17:56:13Z</time>
  <course>0.0</course>
  <speed>0.0</speed>
  <fix>3d</fix>
</trkpt>
<trkpt lat="40.0713749" lon="-105.229789">
  <ele>0.1</ele>
  <time>2026-08-28T17:56:13Z</time>
  <course>246.03</course>
  <speed>0.0</speed>
  <fix>3d</fix>
</trkpt>
<trkpt lat="40.0713749" lon="-105.229789">
  <ele>1583.0</ele>
  <time>2026-08-28T17:56:13Z</time>
  <course>0.0</course>
  <speed>0.0</speed>
  <fix>3d</fix>
</trkpt>
<trkpt lat="40.0713749" lon="-105.229789">
  <ele>-0.04</ele>
  <time>2026-08-28T17:56:13Z</time>
  <course>246.03</course>
  <speed>0.0</speed>
  <fix>3d</fix>
</trkpt>
<trkpt lat="40.0713749" lon="-105.229789">
  <ele>1583.0</ele>
  <time>2026-08-28T17:56:13Z</time>
  <course>0.0</course>
  <speed>0.0</speed>
  <fix>3d</fix>
</trkpt>
<trkpt lat="40.0713749" lon="-105.229789">
  <ele>0.04</ele>
  <time>2026-08-28T17:56:13Z</time>
  <course>246.03</course>
  <speed>0.0</speed>
  <fix>3d</fix>
</trkpt>
<trkpt lat="40.0713749" lon="-105.229789">
  <ele>1583.0</ele>
  <time>2026-08-28T17:56:13Z</time>
  <course>0.0</course>
  <speed>0.0</speed>
  <fix>3d</fix>
</trkpt>
<trkpt lat="40.0713749" lon="-105.229789">
  <ele>0.27</ele>
  <time>2026-08-28T17:56:13Z</time>
  <course>246.03</course>
  <speed>0.0</speed>
  <fix>3d</fix>
</trkpt>
<trkpt lat="40.0713749" lon="-105.229789">
  <ele>1583.0</ele>
  <time>2026-08-28T17:56:13Z</time>
  <course>0.0</course>
  <speed>0.0</speed>
  <fix>3d</fix>
</trkpt>
<trkpt lat="40.0713749" lon="-105.229789">
  <ele>0.03</ele>
  <time>2026-08-28T17:56:13Z</time>
  <course>246.03</course>
  <speed>0.0</speed>
  <fix>3d</fix>
</trkpt>
<trkpt lat="40.0713749" lon="-105.229789">
  <ele>1583.0</ele>
  <time>2026-08-28T17:56:13Z</time>
  <course>0.0</course>
  <speed>0.0</speed>
  <fix>3d</fix>
</trkpt>
<trkpt lat="40.0713749" lon="-105.229789">
  <ele>0.08</ele>
  <time>2026-08-28T17:56:13Z</time>
  <course>246.03</course>
  <speed>0.0</speed>
  <fix>3d</fix>
</trkpt>
<trkpt lat="40.0713749" lon="-105.229789">
  <ele>1583.0</ele>
  <time>2026-08-28T17:56:13Z</time>
  <course>0.0</course>
  <speed>0.0</speed>
  <fix>3d</fix>
</trkpt>
<trkpt lat="40.0713749" lon="-105.229789">
  <ele>0.07</ele>
  <time>2026-08-28T17:56:13Z</time>
  <course>246.03</course>
  <speed>0.0</speed>
  <fix>3d</fix>
</trkpt>
<trkpt lat="40.0713749" lon="-105.229789">
  <ele>1583.0</ele>
  <time>2026-08-28T17:56:13Z</time>
  <course>0.0</course>
  <speed>0.0</speed>
  <fix>3d</fix>
</trkpt>
<trkpt lat="40.0713749" lon="-105.229789">
  <ele>0.2</ele>
  <time>2026-08-28T17:56:13Z</time>
  <course>246.03</course>
  <speed>0.0</speed>
  <fix>3d</fix>
</trkpt>
<trkpt lat="40.0713749" lon="-105.229789">
  <ele>1583.0</ele>
  <time>2026-08-28T17:56:13Z</time>
  <course>0.0</course>
  <speed>0.0</speed>
  <fix>3d</fix>
</trkpt>
<trkpt lat="40.0713749" lon="-105.229789">
  <ele>0.0</ele>
  <time>2026-08-28T17:56:13Z</time>
  <course>246.03</course>
  <speed>0.0</speed>
  <fix>3d</fix>
</trkpt>
<trkpt lat="40.0713749" lon="-105.229789">
  <ele>1583.0</ele>
  <time>2026-08-28T17:56:13Z</time>
  <course>0.0</course>
  <speed>0.0</speed>
  <fix>3d</fix>
</trkpt>
<trkpt lat="40.0713749" lon="-105.229789">
  <ele>0.0</ele>
  <time>2026-08-28T17:56:13Z</time>
  <course>246.04</course>
  <speed>0.0</speed>
  <fix>3d</fix>
</trkpt>
<trkpt lat="40.0713749" lon="-105.229789">
  <ele>1583.0</ele>
  <time>2026-08-28T17:56:13Z</time>
  <course>0.0</course>
  <speed>0.0</speed>
  <fix>3d</fix>
</trkpt>
<trkpt lat="40.0713749" lon="-105.229789">
  <ele>0.12</ele>
  <time>2026-08-28T17:56:13Z</time>
  <course>246.04</course>
  <speed>0.0</speed>
  <fix>3d</fix>
</trkpt>
<trkpt lat="40.0713749" lon="-105.229789">
  <ele>1583.0</ele>
  <time>2026-08-28T17:56:13Z</time>
  <course>0.0</course>
  <speed>0.0</speed>
  <fix>3d</fix>
</trkpt>
<trkpt lat="40.0713749" lon="-105.229789">
  <ele>0.22</ele>
  <time>2026-08-28T17:56:13Z</time>
  <course>246.05</course>
  <speed>0.0</speed>
  <fix>3d</fix>
</trkpt>
<trkpt lat="40.0713749" lon="-105.229789">
  <ele>1583.0</ele>
  <time>2026-08-28T17:56:13Z</time>
  <course>0.0</course>
  <speed>0.0</speed>
  <fix>3d</fix>
</trkpt>
<trkpt lat="40.0713749" lon="-105.229789">
  <ele>0.22</ele>
  <time>2026-08-28T17:56:13Z</time>
  <course>246.05</course>
  <speed>0.0</speed>
  <fix>3d</fix>
</trkpt>
<trkpt lat="40.0713749" lon="-105.229789">
  <ele>1583.0</ele>
  <time>2026-08-28T17:56:13Z</time>
  <course>0.0</course>
  <speed>0.0</speed>
  <fix>3d</fix>
</trkpt>
<trkpt lat="40.0713749" lon="-105.229789">
  <ele>0.04</ele>
  <time>2026-08-28T17:56:13Z</time>
  <course>246.06</course>
  <speed>0.0</speed>
  <fix>3d</fix>
</trkpt>
<trkpt lat="40.0713749" lon="-105.229789">
  <ele>1583.0</ele>
  <time>2026-08-28T17:56:13Z</time>
  <course>0.0</course>
  <speed>0.0</speed>
  <fix>3d</fix>
</trkpt>
<trkpt lat="40.0713749" lon="-105.229789">
  <ele>0.33</ele>
  <time>2026-08-28T17:56:13Z</time>
  <course>246.06</course>
  <speed>0.0</speed>
  <fix>3d</fix>
</trkpt>
<trkpt lat="40.0713749" lon="-105.229789">
  <ele>1583.0</ele>
  <time>2026-08-28T17:56:13Z</time>
  <course>0.0</course>
  <speed>0.0</speed>
  <fix>3d</fix>
</trkpt>
<trkpt lat="40.0713749" lon="-105.229789">
  <ele>0.21</ele>
  <time>2026-08-28T17:56:13Z</time>
  <course>246.07</course>
  <speed>0.0</speed>
  <fix>3d</fix>
</trkpt>
<trkpt lat="40.0713749" lon="-105.229789">
  <ele>1583.0</ele>
  <time>2026-08-28T17:56:13Z</time>
  <course>0.0</course>
  <speed>0.0</speed>
  <fix>3d</fix>
</trkpt>
<trkpt lat="40.0713749" lon="-105.229789">
  <ele>-0.01</ele>
  <time>2026-08-28T17:56:13Z</time>
  <course>246.07</course>
  <speed>0.0</speed>
  <fix>3d</fix>
</trkpt>
<trkpt lat="40.0713749" lon="-105.229789">
  <ele>1583.0</ele>
  <time>2026-08-28T17:56:13Z</time>
  <course>0.0</course>
  <speed>0.0</speed>
  <fix>3d</fix>
</trkpt>
<trkpt lat="40.0713749" lon="-105.229789">
  <ele>-0.03</ele>
  <time>2026-08-28T17:56:13Z</time>
  <course>246.08</course>
  <speed>0.0</speed>
  <fix>3d</fix>
</trkpt>
<trkpt lat="40.0713749" lon="-105.229789">
  <ele>1583.0</ele>
  <time>2026-08-28T17:56:13Z</time>
  <course>0.0</course>
  <speed>0.0</speed>
  <fix>3d</fix>
</trkpt>
<trkpt lat="40.0713749" lon="-105.229789">
  <ele>0.33</ele>
  <time>2026-08-28T17:56:13Z</time>
  <course>246.08</course>
  <speed>0.0</speed>
  <fix>3d</fix>
</trkpt>
<trkpt lat="40.0713749" lon="-105.229789">
  <ele>1583.0</ele>
  <time>2026-08-28T17:56:13Z</time>
  <course>0.0</course>
  <speed>0.0</speed>
  <fix>3d</fix>
</trkpt>
<trkpt lat="40.0713749" lon="-105.229789">
  <ele>0.11</ele>
  <time>2026-08-28T17:56:13Z</time>
  <course>246.09</course>
  <speed>0.0</speed>
  <fix>3d</fix>
</trkpt>
<trkpt lat="40.0713749" lon="-105.229789">
  <ele>1583.0</ele>
  <time>2026-08-28T17:56:13Z</time>
  <course>0.0</course>
  <speed>0.0</speed>
  <fix>3d</fix>
</trkpt>
<trkpt lat="40.0713749" lon="-105.229789">
  <ele>0.05</ele>
  <time>2026-08-28T17:56:13Z</time>
  <course>246.09</course>
  <speed>0.0</speed>
  <fix>3d</fix>
</trkpt>
<trkpt lat="40.0713749" lon="-105.229789">
  <ele>1583.0</ele>
  <time>2026-08-28T17:56:13Z</time>
  <course>0.0</course>
  <speed>0.0</speed>
  <fix>3d</fix>
</trkpt>
<trkpt lat="40.0713749" lon="-105.229789">
  <ele>-0.06</ele>
  <time>2026-08-28T17:56:13Z</time>
  <course>246.09</course>
  <speed>0.0</speed>
  <fix>3d</fix>
</trkpt>
<trkpt lat="40.0713749" lon="-105.229789">
  <ele>1583.0</ele>
  <time>2026-08-28T17:56:13Z</time>
  <course>0.0</course>
  <speed>0.0</speed>
  <fix>3d</fix>
</trkpt>
<trkpt lat="40.0713749" lon="-105.229789">
  <ele>0.12</ele>
  <time>2026-08-28T17:56:13Z</time>
  <course>246.1</course>
  <speed>0.0</speed>
  <fix>3d</fix>
</trkpt>
<trkpt lat="40.0713749" lon="-105.229789">
  <ele>1583.0</ele>
  <time>2026-08-28T17:56:13Z</time>
  <course>0.0</course>
  <speed>0.0</speed>
  <fix>3d</fix>
</trkpt>
<trkpt lat="40.0713749" lon="-105.229789">
  <ele>0.18</ele>
  <time>2026-08-28T17:56:13Z</time>
  <course>246.1</course>
  <speed>0.0</speed>
  <fix>3d</fix>
</trkpt>
<trkpt lat="40.0713749" lon="-105.229789">
  <ele>1583.0</ele>
  <time>2026-08-28T17:56:13Z</time>
  <course>0.0</course>
  <speed>0.0</speed>
  <fix>3d</fix>
</trkpt>
<trkpt lat="40.0713749" lon="-105.229789">
  <ele>-0.01</ele>
  <time>2026-08-28T17:56:13Z</time>
  <course>246.11</course>
  <speed>0.0</speed>
  <fix>3d</fix>
</trkpt>
<trkpt lat="40.0713749" lon="-105.229789">
  <ele>1583.0</ele>
  <time>2026-08-28T17:56:13Z</time>
  <course>0.0</course>
  <speed>0.0</speed>
  <fix>3d</fix>
</trkpt>
<trkpt lat="40.0713749" lon="-105.229789">
  <ele>0.12</ele>
  <time>2026-08-28T17:56:13Z</time>
  <course>246.11</course>
  <speed>0.0</speed>
  <fix>3d</fix>
</trkpt>
<trkpt lat="40.0713749" lon="-105.229789">
  <ele>1583.0</ele>
  <time>2026-08-28T17:56:13Z</time>
  <course>0.0</course>
  <speed>0.0</speed>
  <fix>3d</fix>
</trkpt>
<trkpt lat="40.0713749" lon="-105.229789">
  <ele>0.1</ele>
  <time>2026-08-28T17:56:13Z</time>
  <course>246.11</course>
  <speed>0.0</speed>
  <fix>3d</fix>
</trkpt>
<trkpt lat="40.0713749" lon="-105.229789">
  <ele>1583.0</ele>
  <time>2026-08-28T17:56:13Z</time>
  <course>0.0</course>
  <speed>0.0</speed>
  <fix>3d</fix>
</trkpt>
<trkpt lat="40.0713749" lon="-105.229789">
  <ele>-0.13</ele>
  <time>2026-08-28T17:56:13Z</time>
  <course>246.12</course>
  <speed>0.0</speed>
  <fix>3d</fix>
</trkpt>
<trkpt lat="40.0713749" lon="-105.229789">
  <ele>1583.0</ele>
  <time>2026-08-28T17:56:13Z</time>
  <course>0.0</course>
  <speed>0.0</speed>
  <fix>3d</fix>
</trkpt>
<trkpt lat="40.0713749" lon="-105.229789">
  <ele>-0.04</ele>
  <time>2026-08-28T17:56:13Z</time>
  <course>246.12</course>
  <speed>0.0</speed>
  <fix>3d</fix>
</trkpt>
<trkpt lat="40.0713749" lon="-105.229789">
  <ele>1583.0</ele>
  <time>2026-08-28T17:56:13Z</time>
  <course>0.0</course>
  <speed>0.0</speed>
  <fix>3d</fix>
</trkpt>
<trkpt lat="40.0713749" lon="-105.229789">
  <ele>0.05</ele>
  <time>2026-08-28T17:56:13Z</time>
  <course>246.13</course>
  <speed>0.0</speed>
  <fix>3d</fix>
</trkpt>
<trkpt lat="40.0713749" lon="-105.229789">
  <ele>1583.0</ele>
  <time>2026-08-28T17:56:13Z</time>
  <course>0.0</course>
  <speed>0.0</speed>
  <fix>3d</fix>
</trkpt>
<trkpt lat="40.0713749" lon="-105.229789">
  <ele>0.21</ele>
  <time>2026-08-28T17:56:13Z</time>
  <course>246.13</course>
  <speed>0.0</speed>
  <fix>3d</fix>
</trkpt>
<trkpt lat="40.0713749" lon="-105.229789">
  <ele>1583.0</ele>
  <time>2026-08-28T17:56:13Z</time>
  <course>0.0</course>
  <speed>0.0</speed>
  <fix>3d</fix>
</trkpt>
<trkpt lat="40.0713749" lon="-105.229789">
  <ele>0.2</ele>
  <time>2026-08-28T17:56:13Z</time>
  <course>246.13</course>
  <speed>0.0</speed>
  <fix>3d</fix>
</trkpt>
<trkpt lat="40.0713749" lon="-105.229789">
  <ele>1583.0</ele>
  <time>2026-08-28T17:56:13Z</time>
  <course>0.0</course>
  <speed>0.0</speed>
  <fix>3d</fix>
</trkpt>
<trkpt lat="40.0713749" lon="-105.229789">
  <ele>0.08</ele>
  <time>2026-08-28T17:56:13Z</time>
  <course>246.14</course>
  <speed>0.0</speed>
  <fix>3d</fix>
</trkpt>
<trkpt lat="40.0713749" lon="-105.229789">
  <ele>1583.0</ele>
  <time>2026-08-28T17:56:13Z</time>
  <course>0.0</course>
  <speed>0.0</speed>
  <fix>3d</fix>
</trkpt>
<trkpt lat="40.0713749" lon="-105.229789">
  <ele>0.15</ele>
  <time>2026-08-28T17:56:13Z</time>
  <course>246.14</course>
  <speed>0.0</speed>
  <fix>3d</fix>
</trkpt>
<trkpt lat="40.0713749" lon="-105.229789">
  <ele>1583.0</ele>
  <time>2026-08-28T17:56:13Z</time>
  <course>0.0</course>
  <speed>0.0</speed>
  <fix>3d</fix>
</trkpt>
<trkpt lat="40.0713749" lon="-105.229789">
  <ele>-0.06</ele>
  <time>2026-08-28T17:56:13Z</time>
  <course>246.15</course>
  <speed>0.0</speed>
  <fix>3d</fix>
</trkpt>
<trkpt lat="40.0713749" lon="-105.229789">
  <ele>1583.0</ele>
  <time>2026-08-28T17:56:13Z</time>
  <course>0.0</course>
  <speed>0.0</speed>
  <fix>3d</fix>
</trkpt>
<trkpt lat="40.0713749" lon="-105.229789">
  <ele>-0.03</ele>
  <time>2026-08-28T17:56:13Z</time>
  <course>246.15</course>
  <speed>0.0</speed>
  <fix>3d</fix>
</trkpt>
<trkpt lat="40.0713749" lon="-105.229789">
  <ele>1583.0</ele>
  <time>2026-08-28T17:56:13Z</time>
  <course>0.0</course>
  <speed>0.0</speed>
  <fix>3d</fix>
</trkpt>
<trkpt lat="40.0713749" lon="-105.229789">
  <ele>-0.13</ele>
  <time>2026-08-28T17:56:13Z</time>
  <course>246.15</course>
  <speed>0.0</speed>
  <fix>3d</fix>
</trkpt>
<trkpt lat="40.0713749" lon="-105.229789">
  <ele>1583.0</ele>
  <time>2026-08-28T17:56:13Z</time>
  <course>0.0</course>
  <speed>0.0</speed>
  <fix>3d</fix>
</trkpt>
<trkpt lat="40.0713749" lon="-105.229789">
  <ele>0.01</ele>
  <time>2026-08-28T17:56:13Z</time>
  <course>246.16</course>
  <speed>0.0</speed>
  <fix>3d</fix>
</trkpt>
<trkpt lat="40.0713749" lon="-105.229789">
  <ele>1583.0</ele>
  <time>2026-08-28T17:56:13Z</time>
  <course>0.0</course>
  <speed>0.0</speed>
  <fix>3d</fix>
</trkpt>
<trkpt lat="40.0713749" lon="-105.229789">
  <ele>0.01</ele>
  <time>2026-08-28T17:56:13Z</time>
  <course>246.16</course>
  <speed>0.0</speed>
  <fix>3d</fix>
</trkpt>
<trkpt lat="40.0713749" lon="-105.229789">
  <ele>1583.0</ele>
  <time>2026-08-28T17:56:13Z</time>
  <course>0.0</course>
  <speed>0.0</speed>
  <fix>3d</fix>
</trkpt>
<trkpt lat="40.0713749" lon="-105.229789">
  <ele>-0.18</ele>
  <time>2026-08-28T17:56:13Z</time>
  <course>246.16</course>
  <speed>0.0</speed>
  <fix>3d</fix>
</trkpt>
<trkpt lat="40.0713749" lon="-105.229789">
  <ele>1583.0</ele>
  <time>2026-08-28T17:56:13Z</time>
  <course>0.0</course>
  <speed>0.0</speed>
  <fix>3d</fix>
</trkpt>
<trkpt lat="40.0713749" lon="-105.229789">
  <ele>0.3</ele>
  <time>2026-08-28T17:56:13Z</time>
  <course>246.17</course>
  <speed>0.0</speed>
  <fix>3d</fix>
</trkpt>
<trkpt lat="40.0713749" lon="-105.229789">
  <ele>1583.0</ele>
  <time>2026-08-28T17:56:13Z</time>
  <course>0.0</course>
  <speed>0.0</speed>
  <fix>3d</fix>
</trkpt>
<trkpt lat="40.0713749" lon="-105.229789">
  <ele>0.3</ele>
  <time>2026-08-28T17:56:13Z</time>
  <course>246.17</course>
  <speed>0.0</speed>
  <fix>3d</fix>
</trkpt>
<trkpt lat="40.0713749" lon="-105.229789">
  <ele>1583.0</ele>
  <time>2026-08-28T17:56:13Z</time>
  <course>0.0</course>
  <speed>0.0</speed>
  <fix>3d</fix>
</trkpt>
<trkpt lat="40.0713749" lon="-105.229789">
  <ele>0.17</ele>
  <time>2026-08-28T17:56:13Z</time>
  <course>246.17</course>
  <speed>0.0</speed>
  <fix>3d</fix>
</trkpt>
<trkpt lat="40.0713749" lon="-105.229789">
  <ele>1583.0</ele>
  <time>2026-08-28T17:56:13Z</time>
  <course>0.0</course>
  <speed>0.0</speed>
  <fix>3d</fix>
</trkpt>
<trkpt lat="40.0713749" lon="-105.229789">
  <ele>0.38</ele>
  <time>2026-08-28T17:56:13Z</time>
  <course>246.18</course>
  <speed>0.0</speed>
  <fix>3d</fix>
</trkpt>
<trkpt lat="40.0713749" lon="-105.229789">
  <ele>1583.0</ele>
  <time>2026-08-28T17:56:13Z</time>
  <course>0.0</course>
  <speed>0.0</speed>
  <fix>3d</fix>
</trkpt>
<trkpt lat="40.0713749" lon="-105.229789">
  <ele>0.16</ele>
  <time>2026-08-28T17:56:13Z</time>
  <course>246.18</course>
  <speed>0.0</speed>
  <fix>3d</fix>
</trkpt>
<trkpt lat="40.0713749" lon="-105.229789">
  <ele>1583.0</ele>
  <time>2026-08-28T17:56:13Z</time>
  <course>0.0</course>
  <speed>0.0</speed>
  <fix>3d</fix>
</trkpt>
<trkpt lat="40.0713749" lon="-105.229789">
  <ele>0.18</ele>
  <time>2026-08-28T17:56:13Z</time>
  <course>246.18</course>
  <speed>0.0</speed>
  <fix>3d</fix>
</trkpt>
<trkpt lat="40.0713749" lon="-105.229789">
  <ele>1583.0</ele>
  <time>2026-08-28T17:56:13Z</time>
  <course>0.0</course>
  <speed>0.0</speed>
  <fix>3d</fix>
</trkpt>
<trkpt lat="40.0713749" lon="-105.229789">
  <ele>0.04</ele>
  <time>2026-08-28T17:56:13Z</time>
  <course>246.19</course>
  <speed>0.0</speed>
  <fix>3d</fix>
</trkpt>
<trkpt lat="40.0713749" lon="-105.229789">
  <ele>1583.0</ele>
  <time>2026-08-28T17:56:13Z</time>
  <course>0.0</course>
  <speed>0.0</speed>
  <fix>3d</fix>
</trkpt>
<trkpt lat="40.0713749" lon="-105.229789">
  <ele>0.28</ele>
  <time>2026-08-28T17:56:13Z</time>
  <course>246.19</course>
  <speed>0.0</speed>
  <fix>3d</fix>
</trkpt>
<trkpt lat="40.0713749" lon="-105.229789">
  <ele>1583.0</ele>
  <time>2026-08-28T17:56:13Z</time>
  <course>0.0</course>
  <speed>0.0</speed>
  <fix>3d</fix>
</trkpt>
<trkpt lat="40.0713749" lon="-105.229789">
  <ele>0.01</ele>
  <time>2026-08-28T17:56:13Z</time>
  <course>246.19</course>
  <speed>0.0</speed>
  <fix>3d</fix>
</trkpt>
<trkpt lat="40.0713749" lon="-105.229789">
  <ele>1583.0</ele>
  <time>2026-08-28T17:56:13Z</time>
  <course>0.0</course>
  <speed>0.0</speed>
  <fix>3d</fix>
</trkpt>
<trkpt lat="40.0713749" lon="-105.229789">
  <ele>0.27</ele>
  <time>2026-08-28T17:56:13Z</time>
  <course>246.2</course>
  <speed>0.0</speed>
  <fix>3d</fix>
</trkpt>
<trkpt lat="40.0713749" lon="-105.229789">
  <ele>1583.0</ele>
  <time>2026-08-28T17:56:13Z</time>
  <course>0.0</course>
  <speed>0.0</speed>
  <fix>3d</fix>
</trkpt>
<trkpt lat="40.0713749" lon="-105.229789">
  <ele>-0.03</ele>
  <time>2026-08-28T17:56:13Z</time>
  <course>246.2</course>
  <speed>0.0</speed>
  <fix>3d</fix>
</trkpt>
<trkpt lat="40.0713749" lon="-105.229789">
  <ele>1583.0</ele>
  <time>2026-08-28T17:56:13Z</time>
  <course>0.0</course>
  <speed>0.0</speed>
  <fix>3d</fix>
</trkpt>
<trkpt lat="40.0713749" lon="-105.229789">
  <ele>-0.05</ele>
  <time>2026-08-28T17:56:13Z</time>
  <course>246.2</course>
  <speed>0.0</speed>
  <fix>3d</fix>
</trkpt>
<trkpt lat="40.0713749" lon="-105.229789">
  <ele>1583.0</ele>
  <time>2026-08-28T17:56:13Z</time>
  <course>0.0</course>
  <speed>0.0</speed>
  <fix>3d</fix>
</trkpt>
<trkpt lat="40.0713749" lon="-105.229789">
  <ele>-0.13</ele>
  <time>2026-08-28T17:56:13Z</time>
  <course>246.2</course>
  <speed>0.0</speed>
  <fix>3d</fix>
</trkpt>
<trkpt lat="40.0713749" lon="-105.229789">
  <ele>1583.0</ele>
  <time>2026-08-28T17:56:13Z</time>
  <course>0.0</course>
  <speed>0.0</speed>
  <fix>3d</fix>
</trkpt>
<trkpt lat="40.0713749" lon="-105.229789">
  <ele>-0.15</ele>
  <time>2026-08-28T17:56:13Z</time>
  <course>246.21</course>
  <speed>0.0</speed>
  <fix>3d</fix>
</trkpt>
<trkpt lat="40.0713749" lon="-105.229789">
  <ele>1583.0</ele>
  <time>2026-08-28T17:56:13Z</time>
  <course>0.0</course>
  <speed>0.0</speed>
  <fix>3d</fix>
</trkpt>
<trkpt lat="40.0713749" lon="-105.229789">
  <ele>0.02</ele>
  <time>2026-08-28T17:56:13Z</time>
  <course>246.21</course>
  <speed>0.0</speed>
  <fix>3d</fix>
</trkpt>
<trkpt lat="40.0713749" lon="-105.229789">
  <ele>1583.0</ele>
  <time>2026-08-28T17:56:13Z</time>
  <course>0.0</course>
  <speed>0.0</speed>
  <fix>3d</fix>
</trkpt>
<trkpt lat="40.0713749" lon="-105.229789">
  <ele>-0.02</ele>
  <time>2026-08-28T17:56:13Z</time>
  <course>246.21</course>
  <speed>0.0</speed>
  <fix>3d</fix>
</trkpt>
<trkpt lat="40.0713749" lon="-105.229789">
  <ele>1583.0</ele>
  <time>2026-08-28T17:56:13Z</time>
  <course>0.0</course>
  <speed>0.0</speed>
  <fix>3d</fix>
</trkpt>
<trkpt lat="40.0713749" lon="-105.229789">
  <ele>-0.15</ele>
  <time>2026-08-28T17:56:13Z</time>
  <course>246.22</course>
  <speed>0.0</speed>
  <fix>3d</fix>
</trkpt>
<trkpt lat="40.0713749" lon="-105.229789">
  <ele>1583.0</ele>
  <time>2026-08-28T17:56:13Z</time>
  <course>0.0</course>
  <speed>0.0</speed>
  <fix>3d</fix>
</trkpt>
<trkpt lat="40.0713749" lon="-105.229789">
  <ele>-0.01</ele>
  <time>2026-08-28T17:56:13Z</time>
  <course>246.22</course>
  <speed>0.0</speed>
  <fix>3d</fix>
</trkpt>
<trkpt lat="40.0713749" lon="-105.229789">
  <ele>1583.0</ele>
  <time>2026-08-28T17:56:13Z</time>
  <course>0.0</course>
  <speed>0.0</speed>
  <fix>3d</fix>
</trkpt>
<trkpt lat="40.0713749" lon="-105.229789">
  <ele>-0.06</ele>
  <time>2026-08-28T17:56:13Z</time>
  <course>246.22</course>
  <speed>0.0</speed>
  <fix>3d</fix>
</trkpt>
<trkpt lat="40.0713749" lon="-105.229789">
  <ele>1583.0</ele>
  <time>2026-08-28T17:56:13Z</time>
  <course>0.0</course>
  <speed>0.0</speed>
  <fix>3d</fix>
</trkpt>
<trkpt lat="40.0713749" lon="-105.229789">
  <ele>0.13</ele>
  <time>2026-08-28T17:56:13Z</time>
  <course>246.22</course>
  <speed>0.0</speed>
  <fix>3d</fix>
</trkpt>
<trkpt lat="40.0713749" lon="-105.229789">
  <ele>1583.0</ele>
  <time>2026-08-28T17:56:13Z</time>
  <course>0.0</course>
  <speed>0.0</speed>
  <fix>3d</fix>
</trkpt>
<trkpt lat="40.0713749" lon="-105.229789">
  <ele>-0.13</ele>
  <time>2026-08-28T17:56:13Z</time>
  <course>246.23</course>
  <speed>0.0</speed>
  <fix>3d</fix>
</trkpt>
<trkpt lat="40.0713749" lon="-105.229789">
  <ele>1583.0</ele>
  <time>2026-08-28T17:56:13Z</time>
  <course>0.0</course>
  <speed>0.0</speed>
  <fix>3d</fix>
</trkpt>
<trkpt lat="40.0713749" lon="-105.229789">
  <ele>-0.24</ele>
  <time>2026-08-28T17:56:13Z</time>
  <course>246.23</course>
  <speed>0.0</speed>
  <fix>3d</fix>
</trkpt>
<trkpt lat="40.0713749" lon="-105.229789">
  <ele>1583.0</ele>
  <time>2026-08-28T17:56:13Z</time>
  <course>0.0</course>
  <speed>0.0</speed>
  <fix>3d</fix>
</trkpt>
<trkpt lat="40.0713749" lon="-105.229789">
  <ele>-0.08</ele>
  <time>2026-08-28T17:56:13Z</time>
  <course>246.23</course>
  <speed>0.0</speed>
  <fix>3d</fix>
</trkpt>
<trkpt lat="40.0713749" lon="-105.229789">
  <ele>1583.0</ele>
  <time>2026-08-28T17:56:13Z</time>
  <course>0.0</course>
  <speed>0.0</speed>
  <fix>3d</fix>
</trkpt>
<trkpt lat="40.0713749" lon="-105.229789">
  <ele>-0.36</ele>
  <time>2026-08-28T17:56:13Z</time>
  <course>246.23</course>
  <speed>0.0</speed>
  <fix>3d</fix>
</trkpt>
<trkpt lat="40.0713749" lon="-105.229789">
  <ele>1583.0</ele>
  <time>2026-08-28T17:56:13Z</time>
  <course>0.0</course>
  <speed>0.0</speed>
  <fix>3d</fix>
</trkpt>
<trkpt lat="40.0713749" lon="-105.229789">
  <ele>-0.27</ele>
  <time>2026-08-28T17:56:13Z</time>
  <course>246.24</course>
  <speed>0.0</speed>
  <fix>3d</fix>
</trkpt>
<trkpt lat="40.0713749" lon="-105.229789">
  <ele>1583.0</ele>
  <time>2026-08-28T17:56:13Z</time>
  <course>0.0</course>
  <speed>0.0</speed>
  <fix>3d</fix>
</trkpt>
<trkpt lat="40.0713749" lon="-105.229789">
  <ele>-0.04</ele>
  <time>2026-08-28T17:56:13Z</time>
  <course>246.24</course>
  <speed>0.0</speed>
  <fix>3d</fix>
</trkpt>
<trkpt lat="40.0713749" lon="-105.229789">
  <ele>1583.0</ele>
  <time>2026-08-28T17:56:13Z</time>
  <course>0.0</course>
  <speed>0.0</speed>
  <fix>3d</fix>
</trkpt>
<trkpt lat="40.0713749" lon="-105.229789">
  <ele>-0.33</ele>
  <time>2026-08-28T17:56:13Z</time>
  <course>246.24</course>
  <speed>0.0</speed>
  <fix>3d</fix>
</trkpt>
<trkpt lat="40.0713749" lon="-105.229789">
  <ele>1583.0</ele>
  <time>2026-08-28T17:56:13Z</time>
  <course>0.0</course>
  <speed>0.0</speed>
  <fix>3d</fix>
</trkpt>
<trkpt lat="40.0713749" lon="-105.229789">
  <ele>-0.01</ele>
  <time>2026-08-28T17:56:13Z</time>
  <course>246.24</course>
  <speed>0.0</speed>
  <fix>3d</fix>
</trkpt>
<trkpt lat="40.0713749" lon="-105.229789">
  <ele>1583.0</ele>
  <time>2026-08-28T17:56:13Z</time>
  <course>0.0</course>
  <speed>0.0</speed>
  <fix>3d</fix>
</trkpt>
<trkpt lat="40.0713749" lon="-105.229789">
  <ele>-0.28</ele>
  <time>2026-08-28T17:56:13Z</time>
  <course>246.24</course>
  <speed>0.0</speed>
  <fix>3d</fix>
</trkpt>
<trkpt lat="40.0713749" lon="-105.229789">
  <ele>1583.0</ele>
  <time>2026-08-28T17:56:13Z</time>
  <course>0.0</course>
  <speed>0.0</speed>
  <fix>3d</fix>
</trkpt>
<trkpt lat="40.0713749" lon="-105.229789">
  <ele>-0.19</ele>
  <time>2026-08-28T17:56:13Z</time>
  <course>246.25</course>
  <speed>0.0</speed>
  <fix>3d</fix>
</trkpt>
<trkpt lat="40.0713749" lon="-105.229789">
  <ele>1583.0</ele>
  <time>2026-08-28T17:56:13Z</time>
  <course>0.0</course>
  <speed>0.0</speed>
  <fix>3d</fix>
</trkpt>
<trkpt lat="40.0713749" lon="-105.229789">
  <ele>0.17</ele>
  <time>2026-08-28T17:56:13Z</time>
  <course>246.25</course>
  <speed>0.0</speed>
  <fix>3d</fix>
</trkpt>
<trkpt lat="40.0713749" lon="-105.229789">
  <ele>1583.0</ele>
  <time>2026-08-28T17:56:13Z</time>
  <course>0.0</course>
  <speed>0.0</speed>
  <fix>3d</fix>
</trkpt>
<trkpt lat="40.0713749" lon="-105.229789">
  <ele>-0.06</ele>
  <time>2026-08-28T17:56:13Z</time>
  <course>246.25</course>
  <speed>0.0</speed>
  <fix>3d</fix>
</trkpt>
<trkpt lat="40.0713749" lon="-105.229789">
  <ele>1583.0</ele>
  <time>2026-08-28T17:56:13Z</time>
  <course>0.0</course>
  <speed>0.0</speed>
  <fix>3d</fix>
</trkpt>
<trkpt lat="40.0713749" lon="-105.229789">
  <ele>0.08</ele>
  <time>2026-08-28T17:56:13Z</time>
  <course>246.25</course>
  <speed>0.0</speed>
  <fix>3d</fix>
</trkpt>
<trkpt lat="40.0713749" lon="-105.229789">
  <ele>1583.0</ele>
  <time>2026-08-28T17:56:13Z</time>
  <course>0.0</course>
  <speed>0.0</speed>
  <fix>3d</fix>
</trkpt>
<trkpt lat="40.0713749" lon="-105.229789">
  <ele>-0.04</ele>
  <time>2026-08-28T17:56:13Z</time>
  <course>246.25</course>
  <speed>0.0</speed>
  <fix>3d</fix>
</trkpt>
<trkpt lat="40.0713749" lon="-105.229789">
  <ele>1583.0</ele>
  <time>2026-08-28T17:56:13Z</time>
  <course>0.0</course>
  <speed>0.0</speed>
  <fix>3d</fix>
</trkpt>
<trkpt lat="40.0713749" lon="-105.229789">
  <ele>0.0</ele>
  <time>2026-08-28T17:56:13Z</time>
  <course>246.25</course>
  <speed>0.0</speed>
  <fix>3d</fix>
</trkpt>
<trkpt lat="40.0713749" lon="-105.229789">
  <ele>1583.0</ele>
  <time>2026-08-28T17:56:13Z</time>
  <course>0.0</course>
  <speed>0.0</speed>
  <fix>3d</fix>
</trkpt>
<trkpt lat="40.0713749" lon="-105.229789">
  <ele>0.21</ele>
  <time>2026-08-28T17:56:13Z</time>
  <course>246.26</course>
  <speed>0.0</speed>
  <fix>3d</fix>
</trkpt>
<trkpt lat="40.0713749" lon="-105.229789">
  <ele>1583.0</ele>
  <time>2026-08-28T17:56:13Z</time>
  <course>0.0</course>
  <speed>0.0</speed>
  <fix>3d</fix>
</trkpt>
<trkpt lat="40.0713749" lon="-105.229789">
  <ele>0.03</ele>
  <time>2026-08-28T17:56:13Z</time>
  <course>246.26</course>
  <speed>0.0</speed>
  <fix>3d</fix>
</trkpt>
<trkpt lat="40.0713749" lon="-105.229789">
  <ele>1583.0</ele>
  <time>2026-08-28T17:56:13Z</time>
  <course>0.0</course>
  <speed>0.0</speed>
  <fix>3d</fix>
</trkpt>
<trkpt lat="40.0713749" lon="-105.229789">
  <ele>-0.04</ele>
  <time>2026-08-28T17:56:13Z</time>
  <course>246.26</course>
  <speed>0.0</speed>
  <fix>3d</fix>
</trkpt>
<trkpt lat="40.0713749" lon="-105.229789">
  <ele>1583.0</ele>
  <time>2026-08-28T17:56:13Z</time>
  <course>0.0</course>
  <speed>0.0</speed>
  <fix>3d</fix>
</trkpt>
<trkpt lat="40.0713749" lon="-105.229789">
  <ele>0.19</ele>
  <time>2026-08-28T17:56:13Z</time>
  <course>246.26</course>
  <speed>0.0</speed>
  <fix>3d</fix>
</trkpt>
<trkpt lat="40.0713749" lon="-105.229789">
  <ele>1583.0</ele>
  <time>2026-08-28T17:56:13Z</time>
  <course>0.0</course>
  <speed>0.0</speed>
  <fix>3d</fix>
</trkpt>
<trkpt lat="40.0713749" lon="-105.229789">
  <ele>0.12</ele>
  <time>2026-08-28T17:56:13Z</time>
  <course>246.26</course>
  <speed>0.0</speed>
  <fix>3d</fix>
</trkpt>
<trkpt lat="40.0713749" lon="-105.229789">
  <ele>1583.0</ele>
  <time>2026-08-28T17:56:13Z</time>
  <course>0.0</course>
  <speed>0.0</speed>
  <fix>3d</fix>
</trkpt>
<trkpt lat="40.0713749" lon="-105.229789">
  <ele>-0.18</ele>
  <time>2026-08-28T17:56:13Z</time>
  <course>246.27</course>
  <speed>0.0</speed>
  <fix>3d</fix>
</trkpt>
<trkpt lat="40.0713749" lon="-105.229789">
  <ele>1583.0</ele>
  <time>2026-08-28T17:56:13Z</time>
  <course>0.0</course>
  <speed>0.0</speed>
  <fix>3d</fix>
</trkpt>
<trkpt lat="40.0713749" lon="-105.229789">
  <ele>-0.16</ele>
  <time>2026-08-28T17:56:13Z</time>
  <course>246.27</course>
  <speed>0.0</speed>
  <fix>3d</fix>
</trkpt>
<trkpt lat="40.0713749" lon="-105.229789">
  <ele>1583.0</ele>
  <time>2026-08-28T17:56:13Z</time>
  <course>0.0</course>
  <speed>0.0</speed>
  <fix>3d</fix>
</trkpt>
<trkpt lat="40.0713749" lon="-105.229789">
  <ele>-0.2</ele>
  <time>2026-08-28T17:56:13Z</time>
  <course>246.27</course>
  <speed>0.0</speed>
  <fix>3d</fix>
</trkpt>
<trkpt lat="40.0713749" lon="-105.229789">
  <ele>1583.0</ele>
  <time>2026-08-28T17:56:13Z</time>
  <course>0.0</course>
  <speed>0.0</speed>
  <fix>3d</fix>
</trkpt>
<trkpt lat="40.0713749" lon="-105.229789">
  <ele>0.03</ele>
  <time>2026-08-28T17:56:13Z</time>
  <course>246.27</course>
  <speed>0.0</speed>
  <fix>3d</fix>
</trkpt>
<trkpt lat="40.0713749" lon="-105.229789">
  <ele>1583.0</ele>
  <time>2026-08-28T17:56:13Z</time>
  <course>0.0</course>
  <speed>0.0</speed>
  <fix>3d</fix>
</trkpt>
<trkpt lat="40.0713749" lon="-105.229789">
  <ele>-0.23</ele>
  <time>2026-08-28T17:56:13Z</time>
  <course>246.27</course>
  <speed>0.0</speed>
  <fix>3d</fix>
</trkpt>
<trkpt lat="40.0713749" lon="-105.229789">
  <ele>1583.0</ele>
  <time>2026-08-28T17:56:13Z</time>
  <course>0.0</course>
  <speed>0.0</speed>
  <fix>3d</fix>
</trkpt>
<trkpt lat="40.0713749" lon="-105.229789">
  <ele>-0.24</ele>
  <time>2026-08-28T17:56:13Z</time>
  <course>246.27</course>
  <speed>0.0</speed>
  <fix>3d</fix>
</trkpt>
<trkpt lat="40.0713749" lon="-105.229789">
  <ele>1583.0</ele>
  <time>2026-08-28T17:56:13Z</time>
  <course>0.0</course>
  <speed>0.0</speed>
  <fix>3d</fix>
</trkpt>
<trkpt lat="40.0713749" lon="-105.229789">
  <ele>0.02</ele>
  <time>2026-08-28T17:56:13Z</time>
  <course>246.28</course>
  <speed>0.0</speed>
  <fix>3d</fix>
</trkpt>
<trkpt lat="40.0713749" lon="-105.229789">
  <ele>1583.0</ele>
  <time>2026-08-28T17:56:13Z</time>
  <course>0.0</course>
  <speed>0.0</speed>
  <fix>3d</fix>
</trkpt>
<trkpt lat="40.0713749" lon="-105.229789">
  <ele>-0.16</ele>
  <time>2026-08-28T17:56:13Z</time>
  <course>246.28</course>
  <speed>0.0</speed>
  <fix>3d</fix>
</trkpt>
<trkpt lat="40.0713749" lon="-105.229789">
  <ele>1583.0</ele>
  <time>2026-08-28T17:56:13Z</time>
  <course>0.0</course>
  <speed>0.0</speed>
  <fix>3d</fix>
</trkpt>
<trkpt lat="40.0713749" lon="-105.229789">
  <ele>-0.1</ele>
  <time>2026-08-28T17:56:13Z</time>
  <course>246.28</course>
  <speed>0.0</speed>
  <fix>3d</fix>
</trkpt>
<trkpt lat="40.0713749" lon="-105.229789">
  <ele>1583.0</ele>
  <time>2026-08-28T17:56:13Z</time>
  <course>0.0</course>
  <speed>0.0</speed>
  <fix>3d</fix>
</trkpt>
<trkpt lat="40.0713749" lon="-105.229789">
  <ele>-0.25</ele>
  <time>2026-08-28T17:56:13Z</time>
  <course>246.28</course>
  <speed>0.0</speed>
  <fix>3d</fix>
</trkpt>
<trkpt lat="40.0713749" lon="-105.229789">
  <ele>1583.0</ele>
  <time>2026-08-28T17:56:13Z</time>
  <course>0.0</course>
  <speed>0.0</speed>
  <fix>3d</fix>
</trkpt>
<trkpt lat="40.0713749" lon="-105.229789">
  <ele>0.36</ele>
  <time>2026-08-28T17:56:13Z</time>
  <course>246.28</course>
  <speed>0.0</speed>
  <fix>3d</fix>
</trkpt>
<trkpt lat="40.0713749" lon="-105.229789">
  <ele>1583.0</ele>
  <time>2026-08-28T17:56:13Z</time>
  <course>0.0</course>
  <speed>0.0</speed>
  <fix>3d</fix>
</trkpt>
<trkpt lat="40.0713749" lon="-105.229789">
  <ele>0.29</ele>
  <time>2026-08-28T17:56:13Z</time>
  <course>246.28</course>
  <speed>0.0</speed>
  <fix>3d</fix>
</trkpt>
<trkpt lat="40.0713749" lon="-105.229789">
  <ele>1583.0</ele>
  <time>2026-08-28T17:56:13Z</time>
  <course>0.0</course>
  <speed>0.0</speed>
  <fix>3d</fix>
</trkpt>
<trkpt lat="40.0713749" lon="-105.229789">
  <ele>0.06</ele>
  <time>2026-08-28T17:56:13Z</time>
  <course>246.29</course>
  <speed>0.0</speed>
  <fix>3d</fix>
</trkpt>
<trkpt lat="40.0713749" lon="-105.229789">
  <ele>1583.0</ele>
  <time>2026-08-28T17:56:13Z</time>
  <course>0.0</course>
  <speed>0.0</speed>
  <fix>3d</fix>
</trkpt>
<trkpt lat="40.0713749" lon="-105.229789">
  <ele>0.0</ele>
  <time>2026-08-28T17:56:13Z</time>
  <course>246.29</course>
  <speed>0.0</speed>
  <fix>3d</fix>
</trkpt>
<trkpt lat="40.0713749" lon="-105.229789">
  <ele>1583.0</ele>
  <time>2026-08-28T17:56:13Z</time>
  <course>0.0</course>
  <speed>0.0</speed>
  <fix>3d</fix>
</trkpt>
<trkpt lat="40.0713749" lon="-105.229789">
  <ele>0.03</ele>
  <time>2026-08-28T17:56:13Z</time>
  <course>246.29</course>
  <speed>0.0</speed>
  <fix>3d</fix>
</trkpt>
<trkpt lat="40.0713749" lon="-105.229789">
  <ele>1583.0</ele>
  <time>2026-08-28T17:56:13Z</time>
  <course>0.0</course>
  <speed>0.0</speed>
  <fix>3d</fix>
</trkpt>
<trkpt lat="40.0713749" lon="-105.229789">
  <ele>0.28</ele>
  <time>2026-08-28T17:56:13Z</time>
  <course>246.29</course>
  <speed>0.0</speed>
  <fix>3d</fix>
</trkpt>
<trkpt lat="40.0713749" lon="-105.229789">
  <ele>1583.0</ele>
  <time>2026-08-28T17:56:13Z</time>
  <course>0.0</course>
  <speed>0.0</speed>
  <fix>3d</fix>
</trkpt>
<trkpt lat="40.0713749" lon="-105.229789">
  <ele>0.33</ele>
  <time>2026-08-28T17:56:13Z</time>
  <course>246.29</course>
  <speed>0.0</speed>
  <fix>3d</fix>
</trkpt>
<trkpt lat="40.0713749" lon="-105.229789">
  <ele>1583.0</ele>
  <time>2026-08-28T17:56:13Z</time>
  <course>0.0</course>
  <speed>0.0</speed>
  <fix>3d</fix>
</trkpt>
<trkpt lat="40.0713749" lon="-105.229789">
  <ele>0.31</ele>
  <time>2026-08-28T17:56:13Z</time>
  <course>246.29</course>
  <speed>0.0</speed>
  <fix>3d</fix>
</trkpt>
<trkpt lat="40.0713749" lon="-105.229789">
  <ele>1583.0</ele>
  <time>2026-08-28T17:56:13Z</time>
  <course>0.0</course>
  <speed>0.0</speed>
  <fix>3d</fix>
</trkpt>
<trkpt lat="40.0713749" lon="-105.229789">
  <ele>0.32</ele>
  <time>2026-08-28T17:56:13Z</time>
  <course>246.3</course>
  <speed>0.0</speed>
  <fix>3d</fix>
</trkpt>
<trkpt lat="40.0713749" lon="-105.229789">
  <ele>1583.0</ele>
  <time>2026-08-28T17:56:13Z</time>
  <course>0.0</course>
  <speed>0.0</speed>
  <fix>3d</fix>
</trkpt>
<trkpt lat="40.0713749" lon="-105.229789">
  <ele>0.05</ele>
  <time>2026-08-28T17:56:13Z</time>
  <course>246.3</course>
  <speed>0.0</speed>
  <fix>3d</fix>
</trkpt>
<trkpt lat="40.0713749" lon="-105.229789">
  <ele>1583.0</ele>
  <time>2026-08-28T17:56:13Z</time>
  <course>0.0</course>
  <speed>0.0</speed>
  <fix>3d</fix>
</trkpt>
<trkpt lat="40.0713749" lon="-105.229789">
  <ele>-0.02</ele>
  <time>2026-08-28T17:56:13Z</time>
  <course>246.3</course>
  <speed>0.0</speed>
  <fix>3d</fix>
</trkpt>
<trkpt lat="40.0713749" lon="-105.229789">
  <ele>1583.0</ele>
  <time>2026-08-28T17:56:13Z</time>
  <course>0.0</course>
  <speed>0.0</speed>
  <fix>3d</fix>
</trkpt>
<trkpt lat="40.0713749" lon="-105.229789">
  <ele>0.18</ele>
  <time>2026-08-28T17:56:13Z</time>
  <course>246.3</course>
  <speed>0.0</speed>
  <fix>3d</fix>
</trkpt>
<trkpt lat="40.0713749" lon="-105.229789">
  <ele>1583.0</ele>
  <time>2026-08-28T17:56:13Z</time>
  <course>0.0</course>
  <speed>0.0</speed>
  <fix>3d</fix>
</trkpt>
<trkpt lat="40.0713749" lon="-105.229789">
  <ele>0.03</ele>
  <time>2026-08-28T17:56:13Z</time>
  <course>246.3</course>
  <speed>0.0</speed>
  <fix>3d</fix>
</trkpt>
<trkpt lat="40.0713749" lon="-105.229789">
  <ele>1583.0</ele>
  <time>2026-08-28T17:56:13Z</time>
  <course>0.0</course>
  <speed>0.0</speed>
  <fix>3d</fix>
</trkpt>
<trkpt lat="40.0713749" lon="-105.229789">
  <ele>0.01</ele>
  <time>2026-08-28T17:56:13Z</time>
  <course>246.3</course>
  <speed>0.0</speed>
  <fix>3d</fix>
</trkpt>
<trkpt lat="40.0713749" lon="-105.229789">
  <ele>1583.0</ele>
  <time>2026-08-28T17:56:13Z</time>
  <course>0.0</course>
  <speed>0.0</speed>
  <fix>3d</fix>
</trkpt>
<trkpt lat="40.0713749" lon="-105.229789">
  <ele>0.19</ele>
  <time>2026-08-28T17:56:13Z</time>
  <course>246.3</course>
  <speed>0.0</speed>
  <fix>3d</fix>
</trkpt>
<trkpt lat="40.0713749" lon="-105.229789">
  <ele>1583.0</ele>
  <time>2026-08-28T17:56:13Z</time>
  <course>0.0</course>
  <speed>0.0</speed>
  <fix>3d</fix>
</trkpt>
<trkpt lat="40.0713749" lon="-105.229789">
  <ele>0.08</ele>
  <time>2026-08-28T17:56:13Z</time>
  <course>246.31</course>
  <speed>0.0</speed>
  <fix>3d</fix>
</trkpt>
<trkpt lat="40.0713749" lon="-105.229789">
  <ele>1583.0</ele>
  <time>2026-08-28T17:56:13Z</time>
  <course>0.0</course>
  <speed>0.0</speed>
  <fix>3d</fix>
</trkpt>
<trkpt lat="40.0713749" lon="-105.229789">
  <ele>0.0</ele>
  <time>2026-08-28T17:56:13Z</time>
  <course>246.31</course>
  <speed>0.0</speed>
  <fix>3d</fix>
</trkpt>
<trkpt lat="40.0713749" lon="-105.229789">
  <ele>1583.0</ele>
  <time>2026-08-28T17:56:13Z</time>
  <course>0.0</course>
  <speed>0.0</speed>
  <fix>3d</fix>
</trkpt>
<trkpt lat="40.0713749" lon="-105.229789">
  <ele>0.25</ele>
  <time>2026-08-28T17:56:13Z</time>
  <course>246.31</course>
  <speed>0.0</speed>
  <fix>3d</fix>
</trkpt>
<trkpt lat="40.0713749" lon="-105.229789">
  <ele>1583.0</ele>
  <time>2026-08-28T17:56:13Z</time>
  <course>0.0</course>
  <speed>0.0</speed>
  <fix>3d</fix>
</trkpt>
<trkpt lat="40.0713749" lon="-105.229789">
  <ele>-0.03</ele>
  <time>2026-08-28T17:56:13Z</time>
  <course>246.31</course>
  <speed>0.0</speed>
  <fix>3d</fix>
</trkpt>
<trkpt lat="40.0713749" lon="-105.229789">
  <ele>1583.0</ele>
  <time>2026-08-28T17:56:13Z</time>
  <course>0.0</course>
  <speed>0.0</speed>
  <fix>3d</fix>
</trkpt>
<trkpt lat="40.0713749" lon="-105.229789">
  <ele>0.11</ele>
  <time>2026-08-28T17:56:13Z</time>
  <course>246.31</course>
  <speed>0.0</speed>
  <fix>3d</fix>
</trkpt>
<trkpt lat="40.0713749" lon="-105.229789">
  <ele>1583.0</ele>
  <time>2026-08-28T17:56:13Z</time>
  <course>0.0</course>
  <speed>0.0</speed>
  <fix>3d</fix>
</trkpt>
<trkpt lat="40.0713749" lon="-105.229789">
  <ele>-0.07</ele>
  <time>2026-08-28T17:56:13Z</time>
  <course>246.31</course>
  <speed>0.0</speed>
  <fix>3d</fix>
</trkpt>
<trkpt lat="40.0713749" lon="-105.229789">
  <ele>1583.0</ele>
  <time>2026-08-28T17:56:13Z</time>
  <course>0.0</course>
  <speed>0.0</speed>
  <fix>3d</fix>
</trkpt>
<trkpt lat="40.0713749" lon="-105.229789">
  <ele>0.04</ele>
  <time>2026-08-28T17:56:13Z</time>
  <course>246.31</course>
  <speed>0.0</speed>
  <fix>3d</fix>
</trkpt>
<trkpt lat="40.0713749" lon="-105.229789">
  <ele>1583.0</ele>
  <time>2026-08-28T17:56:13Z</time>
  <course>0.0</course>
  <speed>0.0</speed>
  <fix>3d</fix>
</trkpt>
<trkpt lat="40.0713749" lon="-105.229789">
  <ele>0.2</ele>
  <time>2026-08-28T17:56:13Z</time>
  <course>246.31</course>
  <speed>0.0</speed>
  <fix>3d</fix>
</trkpt>
<trkpt lat="40.0713749" lon="-105.229789">
  <ele>1583.0</ele>
  <time>2026-08-28T17:56:13Z</time>
  <course>0.0</course>
  <speed>0.0</speed>
  <fix>3d</fix>
</trkpt>
<trkpt lat="40.0713749" lon="-105.229789">
  <ele>0.11</ele>
  <time>2026-08-28T17:56:13Z</time>
  <course>246.31</course>
  <speed>0.0</speed>
  <fix>3d</fix>
</trkpt>
<trkpt lat="40.0713749" lon="-105.229789">
  <ele>1583.0</ele>
  <time>2026-08-28T17:56:13Z</time>
  <course>0.0</course>
  <speed>0.0</speed>
  <fix>3d</fix>
</trkpt>
<trkpt lat="40.0713749" lon="-105.229789">
  <ele>0.09</ele>
  <time>2026-08-28T17:56:13Z</time>
  <course>246.31</course>
  <speed>0.0</speed>
  <fix>3d</fix>
</trkpt>
<trkpt lat="40.0713749" lon="-105.229789">
  <ele>1583.0</ele>
  <time>2026-08-28T17:56:13Z</time>
  <course>0.0</course>
  <speed>0.0</speed>
  <fix>3d</fix>
</trkpt>
<trkpt lat="40.0713749" lon="-105.229789">
  <ele>0.0</ele>
  <time>2026-08-28T17:56:13Z</time>
  <course>246.31</course>
  <speed>0.0</speed>
  <fix>3d</fix>
</trkpt>
<trkpt lat="40.0713749" lon="-105.229789">
  <ele>1583.0</ele>
  <time>2026-08-28T17:56:13Z</time>
  <course>0.0</course>
  <speed>0.0</speed>
  <fix>3d</fix>
</trkpt>
<trkpt lat="40.0713749" lon="-105.229789">
  <ele>-0.14</ele>
  <time>2026-08-28T17:56:13Z</time>
  <course>246.31</course>
  <speed>0.0</speed>
  <fix>3d</fix>
</trkpt>
<trkpt lat="40.0713749" lon="-105.229789">
  <ele>1583.0</ele>
  <time>2026-08-28T17:56:13Z</time>
  <course>0.0</course>
  <speed>0.0</speed>
  <fix>3d</fix>
</trkpt>
<trkpt lat="40.0713749" lon="-105.229789">
  <ele>-0.01</ele>
  <time>2026-08-28T17:56:13Z</time>
  <course>246.31</course>
  <speed>0.0</speed>
  <fix>3d</fix>
</trkpt>
<trkpt lat="40.0713749" lon="-105.229789">
  <ele>1583.0</ele>
  <time>2026-08-28T17:56:13Z</time>
  <course>0.0</course>
  <speed>0.0</speed>
  <fix>3d</fix>
</trkpt>
<trkpt lat="40.0713749" lon="-105.229789">
  <ele>0.21</ele>
  <time>2026-08-28T17:56:13Z</time>
  <course>246.31</course>
  <speed>0.0</speed>
  <fix>3d</fix>
</trkpt>
<trkpt lat="40.0713749" lon="-105.229789">
  <ele>1583.0</ele>
  <time>2026-08-28T17:56:13Z</time>
  <course>0.0</course>
  <speed>0.0</speed>
  <fix>3d</fix>
</trkpt>
<trkpt lat="40.0713749" lon="-105.229789">
  <ele>-0.13</ele>
  <time>2026-08-28T17:56:13Z</time>
  <course>246.31</course>
  <speed>0.0</speed>
  <fix>3d</fix>
</trkpt>
<trkpt lat="40.0713749" lon="-105.229789">
  <ele>1583.0</ele>
  <time>2026-08-28T17:56:13Z</time>
  <course>0.0</course>
  <speed>0.0</speed>
  <fix>3d</fix>
</trkpt>
<trkpt lat="40.0713749" lon="-105.229789">
  <ele>0.28</ele>
  <time>2026-08-28T17:56:13Z</time>
  <course>246.31</course>
  <speed>0.0</speed>
  <fix>3d</fix>
</trkpt>
<trkpt lat="40.0713749" lon="-105.229789">
  <ele>1583.0</ele>
  <time>2026-08-28T17:56:13Z</time>
  <course>0.0</course>
  <speed>0.0</speed>
  <fix>3d</fix>
</trkpt>
<trkpt lat="40.0713749" lon="-105.229789">
  <ele>0.32</ele>
  <time>2026-08-28T17:56:13Z</time>
  <course>246.32</course>
  <speed>0.0</speed>
  <fix>3d</fix>
</trkpt>
<trkpt lat="40.0713749" lon="-105.229789">
  <ele>1583.0</ele>
  <time>2026-08-28T17:56:13Z</time>
  <course>0.0</course>
  <speed>0.0</speed>
  <fix>3d</fix>
</trkpt>
<trkpt lat="40.0713749" lon="-105.229789">
  <ele>0.28</ele>
  <time>2026-08-28T17:56:13Z</time>
  <course>246.32</course>
  <speed>0.0</speed>
  <fix>3d</fix>
</trkpt>
<trkpt lat="40.0713749" lon="-105.229789">
  <ele>1583.0</ele>
  <time>2026-08-28T17:56:13Z</time>
  <course>0.0</course>
  <speed>0.0</speed>
  <fix>3d</fix>
</trkpt>
<trkpt lat="40.0713749" lon="-105.229789">
  <ele>0.15</ele>
  <time>2026-08-28T17:56:13Z</time>
  <course>246.32</course>
  <speed>0.0</speed>
  <fix>3d</fix>
</trkpt>
<trkpt lat="40.0713749" lon="-105.229789">
  <ele>1583.0</ele>
  <time>2026-08-28T17:56:13Z</time>
  <course>0.0</course>
  <speed>0.0</speed>
  <fix>3d</fix>
</trkpt>
<trkpt lat="40.0713749" lon="-105.229789">
  <ele>0.03</ele>
  <time>2026-08-28T17:56:13Z</time>
  <course>246.32</course>
  <speed>0.0</speed>
  <fix>3d</fix>
</trkpt>
<trkpt lat="40.0713749" lon="-105.229789">
  <ele>1583.0</ele>
  <time>2026-08-28T17:56:13Z</time>
  <course>0.0</course>
  <speed>0.0</speed>
  <fix>3d</fix>
</trkpt>
<trkpt lat="40.0713749" lon="-105.229789">
  <ele>0.23</ele>
  <time>2026-08-28T17:56:13Z</time>
  <course>246.32</course>
  <speed>0.0</speed>
  <fix>3d</fix>
</trkpt>
<trkpt lat="40.0713749" lon="-105.229789">
  <ele>1583.0</ele>
  <time>2026-08-28T17:56:13Z</time>
  <course>0.0</course>
  <speed>0.0</speed>
  <fix>3d</fix>
</trkpt>
<trkpt lat="40.0713749" lon="-105.229789">
  <ele>0.01</ele>
  <time>2026-08-28T17:56:13Z</time>
  <course>246.32</course>
  <speed>0.0</speed>
  <fix>3d</fix>
</trkpt>
<trkpt lat="40.0713749" lon="-105.229789">
  <ele>1583.0</ele>
  <time>2026-08-28T17:56:13Z</time>
  <course>0.0</course>
  <speed>0.0</speed>
  <fix>3d</fix>
</trkpt>
<trkpt lat="40.0713749" lon="-105.229789">
  <ele>0.01</ele>
  <time>2026-08-28T17:56:13Z</time>
  <course>246.32</course>
  <speed>0.0</speed>
  <fix>3d</fix>
</trkpt>
<trkpt lat="40.0713749" lon="-105.229789">
  <ele>1583.0</ele>
  <time>2026-08-28T17:56:13Z</time>
  <course>0.0</course>
  <speed>0.0</speed>
  <fix>3d</fix>
</trkpt>
<trkpt lat="40.0713749" lon="-105.229789">
  <ele>0.16</ele>
  <time>2026-08-28T17:56:13Z</time>
  <course>246.32</course>
  <speed>0.0</speed>
  <fix>3d</fix>
</trkpt>
<trkpt lat="40.0713749" lon="-105.229789">
  <ele>1583.0</ele>
  <time>2026-08-28T17:56:13Z</time>
  <course>0.0</course>
  <speed>0.0</speed>
  <fix>3d</fix>
</trkpt>
<trkpt lat="40.0713749" lon="-105.229789">
  <ele>0.2</ele>
  <time>2026-08-28T17:56:13Z</time>
  <course>246.32</course>
  <speed>0.0</speed>
  <fix>3d</fix>
</trkpt>
<trkpt lat="40.0713749" lon="-105.229789">
  <ele>1583.0</ele>
  <time>2026-08-28T17:56:13Z</time>
  <course>0.0</course>
  <speed>0.0</speed>
  <fix>3d</fix>
</trkpt>
<trkpt lat="40.0713749" lon="-105.229789">
  <ele>-0.21</ele>
  <time>2026-08-28T17:56:13Z</time>
  <course>246.32</course>
  <speed>0.0</speed>
  <fix>3d</fix>
</trkpt>
<trkpt lat="40.0713749" lon="-105.229789">
  <ele>1583.0</ele>
  <time>2026-08-28T17:56:13Z</time>
  <course>0.0</course>
  <speed>0.0</speed>
  <fix>3d</fix>
</trkpt>
<trkpt lat="40.0713749" lon="-105.229789">
  <ele>-0.18</ele>
  <time>2026-08-28T17:56:13Z</time>
  <course>246.32</course>
  <speed>0.0</speed>
  <fix>3d</fix>
</trkpt>
<trkpt lat="40.0713749" lon="-105.229789">
  <ele>1583.0</ele>
  <time>2026-08-28T17:56:13Z</time>
  <course>0.0</course>
  <speed>0.0</speed>
  <fix>3d</fix>
</trkpt>
<trkpt lat="40.0713749" lon="-105.229789">
  <ele>-0.06</ele>
  <time>2026-08-28T17:56:13Z</time>
  <course>246.32</course>
  <speed>0.0</speed>
  <fix>3d</fix>
</trkpt>
<trkpt lat="40.0713749" lon="-105.229789">
  <ele>1583.0</ele>
  <time>2026-08-28T17:56:13Z</time>
  <course>0.0</course>
  <speed>0.0</speed>
  <fix>3d</fix>
</trkpt>
<trkpt lat="40.0713749" lon="-105.229789">
  <ele>0.01</ele>
  <time>2026-08-28T17:56:13Z</time>
  <course>246.32</course>
  <speed>0.0</speed>
  <fix>3d</fix>
</trkpt>
<trkpt lat="40.0713749" lon="-105.229789">
  <ele>1583.0</ele>
  <time>2026-08-28T17:56:13Z</time>
  <course>0.0</course>
  <speed>0.0</speed>
  <fix>3d</fix>
</trkpt>
<trkpt lat="40.0713749" lon="-105.229789">
  <ele>0.16</ele>
  <time>2026-08-28T17:56:13Z</time>
  <course>246.32</course>
  <speed>0.0</speed>
  <fix>3d</fix>
</trkpt>
<trkpt lat="40.0713749" lon="-105.229789">
  <ele>1583.0</ele>
  <time>2026-08-28T17:56:13Z</time>
  <course>0.0</course>
  <speed>0.0</speed>
  <fix>3d</fix>
</trkpt>
<trkpt lat="40.0713749" lon="-105.229789">
  <ele>-0.13</ele>
  <time>2026-08-28T17:56:13Z</time>
  <course>246.32</course>
  <speed>0.0</speed>
  <fix>3d</fix>
</trkpt>
<trkpt lat="40.0713749" lon="-105.229789">
  <ele>1583.0</ele>
  <time>2026-08-28T17:56:13Z</time>
  <course>0.0</course>
  <speed>0.0</speed>
  <fix>3d</fix>
</trkpt>
<trkpt lat="40.0713749" lon="-105.229789">
  <ele>-0.08</ele>
  <time>2026-08-28T17:56:13Z</time>
  <course>246.32</course>
  <speed>0.0</speed>
  <fix>3d</fix>
</trkpt>
<trkpt lat="40.0713749" lon="-105.229789">
  <ele>1583.0</ele>
  <time>2026-08-28T17:56:13Z</time>
  <course>0.0</course>
  <speed>0.0</speed>
  <fix>3d</fix>
</trkpt>
<trkpt lat="40.0713749" lon="-105.229789">
  <ele>0.03</ele>
  <time>2026-08-28T17:56:13Z</time>
  <course>246.32</course>
  <speed>0.0</speed>
  <fix>3d</fix>
</trkpt>
<trkpt lat="40.0713749" lon="-105.229789">
  <ele>1583.0</ele>
  <time>2026-08-28T17:56:13Z</time>
  <course>0.0</course>
  <speed>0.0</speed>
  <fix>3d</fix>
</trkpt>
<trkpt lat="40.0713749" lon="-105.229789">
  <ele>0.13</ele>
  <time>2026-08-28T17:56:13Z</time>
  <course>246.32</course>
  <speed>0.0</speed>
  <fix>3d</fix>
</trkpt>
<trkpt lat="40.0713749" lon="-105.229789">
  <ele>1583.0</ele>
  <time>2026-08-28T17:56:13Z</time>
  <course>0.0</course>
  <speed>0.0</speed>
  <fix>3d</fix>
</trkpt>
<trkpt lat="40.0713749" lon="-105.229789">
  <ele>0.01</ele>
  <time>2026-08-28T17:56:13Z</time>
  <course>246.32</course>
  <speed>0.0</speed>
  <fix>3d</fix>
</trkpt>
<trkpt lat="40.0713749" lon="-105.229789">
  <ele>1583.0</ele>
  <time>2026-08-28T17:56:13Z</time>
  <course>0.0</course>
  <speed>0.0</speed>
  <fix>3d</fix>
</trkpt>
<trkpt lat="40.0713749" lon="-105.229789">
  <ele>-0.14</ele>
  <time>2026-08-28T17:56:13Z</time>
  <course>246.32</course>
  <speed>0.0</speed>
  <fix>3d</fix>
</trkpt>
<trkpt lat="40.0713749" lon="-105.229789">
  <ele>1583.0</ele>
  <time>2026-08-28T17:56:13Z</time>
  <course>0.0</course>
  <speed>0.0</speed>
  <fix>3d</fix>
</trkpt>
<trkpt lat="40.0713749" lon="-105.229789">
  <ele>-0.14</ele>
  <time>2026-08-28T17:56:13Z</time>
  <course>246.32</course>
  <speed>0.0</speed>
  <fix>3d</fix>
</trkpt>
<trkpt lat="40.0713749" lon="-105.229789">
  <ele>1583.0</ele>
  <time>2026-08-28T17:56:13Z</time>
  <course>0.0</course>
  <speed>0.0</speed>
  <fix>3d</fix>
</trkpt>
<trkpt lat="40.0713749" lon="-105.229789">
  <ele>-0.19</ele>
  <time>2026-08-28T17:56:13Z</time>
  <course>246.32</course>
  <speed>0.0</speed>
  <fix>3d</fix>
</trkpt>
<trkpt lat="40.0713749" lon="-105.229789">
  <ele>1583.0</ele>
  <time>2026-08-28T17:56:13Z</time>
  <course>0.0</course>
  <speed>0.0</speed>
  <fix>3d</fix>
</trkpt>
<trkpt lat="40.0713749" lon="-105.229789">
  <ele>-0.07</ele>
  <time>2026-08-28T17:56:13Z</time>
  <course>246.32</course>
  <speed>0.0</speed>
  <fix>3d</fix>
</trkpt>
<trkpt lat="40.0713749" lon="-105.229789">
  <ele>1583.0</ele>
  <time>2026-08-28T17:56:13Z</time>
  <course>0.0</course>
  <speed>0.0</speed>
  <fix>3d</fix>
</trkpt>
<trkpt lat="40.0713749" lon="-105.229789">
  <ele>0.07</ele>
  <time>2026-08-28T17:56:13Z</time>
  <course>246.32</course>
  <speed>0.0</speed>
  <fix>3d</fix>
</trkpt>
<trkpt lat="40.0713749" lon="-105.229789">
  <ele>1583.0</ele>
  <time>2026-08-28T17:56:13Z</time>
  <course>0.0</course>
  <speed>0.0</speed>
  <fix>3d</fix>
</trkpt>
<trkpt lat="40.0713749" lon="-105.229789">
  <ele>0.16</ele>
  <time>2026-08-28T17:56:13Z</time>
  <course>246.32</course>
  <speed>0.0</speed>
  <fix>3d</fix>
</trkpt>
<trkpt lat="40.0713749" lon="-105.229789">
  <ele>1583.0</ele>
  <time>2026-08-28T17:56:14Z</time>
  <course>0.0</course>
  <speed>0.0</speed>
  <fix>3d</fix>
</trkpt>
<trkpt lat="40.0713749" lon="-105.229789">
  <ele>0.01</ele>
  <time>2026-08-28T17:56:14Z</time>
  <course>246.33</course>
  <speed>0.0</speed>
  <fix>3d</fix>
</trkpt>
<trkpt lat="40.0713749" lon="-105.229789">
  <ele>1583.0</ele>
  <time>2026-08-28T17:56:14Z</time>
  <course>0.0</course>
  <speed>0.0</speed>
  <fix>3d</fix>
</trkpt>
<trkpt lat="40.0713749" lon="-105.229789">
  <ele>0.14</ele>
  <time>2026-08-28T17:56:14Z</time>
  <course>246.33</course>
  <speed>0.0</speed>
  <fix>3d</fix>
</trkpt>
<trkpt lat="40.0713749" lon="-105.229789">
  <ele>1583.0</ele>
  <time>2026-08-28T17:56:14Z</time>
  <course>0.0</course>
  <speed>0.0</speed>
  <fix>3d</fix>
</trkpt>
<trkpt lat="40.0713749" lon="-105.229789">
  <ele>-0.04</ele>
  <time>2026-08-28T17:56:14Z</time>
  <course>246.33</course>
  <speed>0.0</speed>
  <fix>3d</fix>
</trkpt>
<trkpt lat="40.0713749" lon="-105.229789">
  <ele>1583.0</ele>
  <time>2026-08-28T17:56:14Z</time>
  <course>0.0</course>
  <speed>0.0</speed>
  <fix>3d</fix>
</trkpt>
<trkpt lat="40.0713749" lon="-105.229789">
  <ele>0.13</ele>
  <time>2026-08-28T17:56:14Z</time>
  <course>246.33</course>
  <speed>0.0</speed>
  <fix>3d</fix>
</trkpt>
<trkpt lat="40.0713749" lon="-105.229789">
  <ele>1583.0</ele>
  <time>2026-08-28T17:56:14Z</time>
  <course>0.0</course>
  <speed>0.0</speed>
  <fix>3d</fix>
</trkpt>
<trkpt lat="40.0713749" lon="-105.229789">
  <ele>-0.09</ele>
  <time>2026-08-28T17:56:14Z</time>
  <course>246.33</course>
  <speed>0.0</speed>
  <fix>3d</fix>
</trkpt>
<trkpt lat="40.0713749" lon="-105.229789">
  <ele>1583.0</ele>
  <time>2026-08-28T17:56:14Z</time>
  <course>0.0</course>
  <speed>0.0</speed>
  <fix>3d</fix>
</trkpt>
<trkpt lat="40.0713749" lon="-105.229789">
  <ele>0.02</ele>
  <time>2026-08-28T17:56:14Z</time>
  <course>246.33</course>
  <speed>0.0</speed>
  <fix>3d</fix>
</trkpt>
<trkpt lat="40.0713749" lon="-105.229789">
  <ele>1583.0</ele>
  <time>2026-08-28T17:56:14Z</time>
  <course>0.0</course>
  <speed>0.0</speed>
  <fix>3d</fix>
</trkpt>
<trkpt lat="40.0713749" lon="-105.229789">
  <ele>-0.04</ele>
  <time>2026-08-28T17:56:14Z</time>
  <course>246.33</course>
  <speed>0.0</speed>
  <fix>3d</fix>
</trkpt>
<trkpt lat="40.0713749" lon="-105.229789">
  <ele>1583.0</ele>
  <time>2026-08-28T17:56:14Z</time>
  <course>0.0</course>
  <speed>0.0</speed>
  <fix>3d</fix>
</trkpt>
<trkpt lat="40.0713749" lon="-105.229789">
  <ele>-0.16</ele>
  <time>2026-08-28T17:56:14Z</time>
  <course>246.33</course>
  <speed>0.0</speed>
  <fix>3d</fix>
</trkpt>
<trkpt lat="40.0713749" lon="-105.229789">
  <ele>1583.0</ele>
  <time>2026-08-28T17:56:14Z</time>
  <course>0.0</course>
  <speed>0.0</speed>
  <fix>3d</fix>
</trkpt>
<trkpt lat="40.0713749" lon="-105.229789">
  <ele>-0.06</ele>
  <time>2026-08-28T17:56:14Z</time>
  <course>246.33</course>
  <speed>0.0</speed>
  <fix>3d</fix>
</trkpt>
<trkpt lat="40.0713749" lon="-105.229789">
  <ele>1583.0</ele>
  <time>2026-08-28T17:56:14Z</time>
  <course>0.0</course>
  <speed>0.0</speed>
  <fix>3d</fix>
</trkpt>
<trkpt lat="40.0713749" lon="-105.229789">
  <ele>0.01</ele>
  <time>2026-08-28T17:56:14Z</time>
  <course>246.33</course>
  <speed>0.0</speed>
  <fix>3d</fix>
</trkpt>
<trkpt lat="40.0713749" lon="-105.229789">
  <ele>1583.0</ele>
  <time>2026-08-28T17:56:14Z</time>
  <course>0.0</course>
  <speed>0.0</speed>
  <fix>3d</fix>
</trkpt>
<trkpt lat="40.0713749" lon="-105.229789">
  <ele>-0.06</ele>
  <time>2026-08-28T17:56:14Z</time>
  <course>246.33</course>
  <speed>0.0</speed>
  <fix>3d</fix>
</trkpt>
<trkpt lat="40.0713749" lon="-105.229789">
  <ele>1583.0</ele>
  <time>2026-08-28T17:56:14Z</time>
  <course>0.0</course>
  <speed>0.0</speed>
  <fix>3d</fix>
</trkpt>
<trkpt lat="40.0713749" lon="-105.229789">
  <ele>-0.18</ele>
  <time>2026-08-28T17:56:14Z</time>
  <course>246.33</course>
  <speed>0.0</speed>
  <fix>3d</fix>
</trkpt>
<trkpt lat="40.0713749" lon="-105.229789">
  <ele>1583.0</ele>
  <time>2026-08-28T17:56:14Z</time>
  <course>0.0</course>
  <speed>0.0</speed>
  <fix>3d</fix>
</trkpt>
<trkpt lat="40.0713749" lon="-105.229789">
  <ele>-0.17</ele>
  <time>2026-08-28T17:56:14Z</time>
  <course>246.33</course>
  <speed>0.0</speed>
  <fix>3d</fix>
</trkpt>
<trkpt lat="40.0713749" lon="-105.229789">
  <ele>1583.0</ele>
  <time>2026-08-28T17:56:14Z</time>
  <course>0.0</course>
  <speed>0.0</speed>
  <fix>3d</fix>
</trkpt>
<trkpt lat="40.0713749" lon="-105.229789">
  <ele>0.02</ele>
  <time>2026-08-28T17:56:14Z</time>
  <course>246.33</course>
  <speed>0.0</speed>
  <fix>3d</fix>
</trkpt>
<trkpt lat="40.0713749" lon="-105.229789">
  <ele>1583.0</ele>
  <time>2026-08-28T17:56:14Z</time>
  <course>0.0</course>
  <speed>0.0</speed>
  <fix>3d</fix>
</trkpt>
<trkpt lat="40.0713749" lon="-105.229789">
  <ele>-0.16</ele>
  <time>2026-08-28T17:56:14Z</time>
  <course>246.33</course>
  <speed>0.0</speed>
  <fix>3d</fix>
</trkpt>
<trkpt lat="40.0713749" lon="-105.229789">
  <ele>1583.0</ele>
  <time>2026-08-28T17:56:14Z</time>
  <course>0.0</course>
  <speed>0.0</speed>
  <fix>3d</fix>
</trkpt>
<trkpt lat="40.0713749" lon="-105.229789">
  <ele>0.03</ele>
  <time>2026-08-28T17:56:14Z</time>
  <course>246.33</course>
  <speed>0.0</speed>
  <fix>3d</fix>
</trkpt>
<trkpt lat="40.0713749" lon="-105.229789">
  <ele>1583.0</ele>
  <time>2026-08-28T17:56:14Z</time>
  <course>0.0</course>
  <speed>0.0</speed>
  <fix>3d</fix>
</trkpt>
<trkpt lat="40.0713749" lon="-105.229789">
  <ele>-0.18</ele>
  <time>2026-08-28T17:56:14Z</time>
  <course>246.33</course>
  <speed>0.0</speed>
  <fix>3d</fix>
</trkpt>
<trkpt lat="40.0713749" lon="-105.229789">
  <ele>1583.0</ele>
  <time>2026-08-28T17:56:14Z</time>
  <course>0.0</course>
  <speed>0.0</speed>
  <fix>3d</fix>
</trkpt>
<trkpt lat="40.0713749" lon="-105.229789">
  <ele>0.01</ele>
  <time>2026-08-28T17:56:14Z</time>
  <course>246.33</course>
  <speed>0.0</speed>
  <fix>3d</fix>
</trkpt>
<trkpt lat="40.0713749" lon="-105.229789">
  <ele>1583.0</ele>
  <time>2026-08-28T17:56:14Z</time>
  <course>0.0</course>
  <speed>0.0</speed>
  <fix>3d</fix>
</trkpt>
<trkpt lat="40.0713749" lon="-105.229789">
  <ele>-0.32</ele>
  <time>2026-08-28T17:56:14Z</time>
  <course>246.33</course>
  <speed>0.0</speed>
  <fix>3d</fix>
</trkpt>
<trkpt lat="40.0713749" lon="-105.229789">
  <ele>1583.0</ele>
  <time>2026-08-28T17:56:14Z</time>
  <course>0.0</course>
  <speed>0.0</speed>
  <fix>3d</fix>
</trkpt>
<trkpt lat="40.0713749" lon="-105.229789">
  <ele>-0.11</ele>
  <time>2026-08-28T17:56:14Z</time>
  <course>246.33</course>
  <speed>0.0</speed>
  <fix>3d</fix>
</trkpt>
<trkpt lat="40.0713749" lon="-105.229789">
  <ele>1583.0</ele>
  <time>2026-08-28T17:56:14Z</time>
  <course>0.0</course>
  <speed>0.0</speed>
  <fix>3d</fix>
</trkpt>
<trkpt lat="40.0713749" lon="-105.229789">
  <ele>-0.33</ele>
  <time>2026-08-28T17:56:14Z</time>
  <course>246.33</course>
  <speed>0.0</speed>
  <fix>3d</fix>
</trkpt>
<trkpt lat="40.0713749" lon="-105.229789">
  <ele>1583.0</ele>
  <time>2026-08-28T17:56:14Z</time>
  <course>0.0</course>
  <speed>0.0</speed>
  <fix>3d</fix>
</trkpt>
<trkpt lat="40.0713749" lon="-105.229789">
  <ele>-0.18</ele>
  <time>2026-08-28T17:56:14Z</time>
  <course>246.32</course>
  <speed>0.0</speed>
  <fix>3d</fix>
</trkpt>
<trkpt lat="40.0713749" lon="-105.229789">
  <ele>1583.0</ele>
  <time>2026-08-28T17:56:14Z</time>
  <course>0.0</course>
  <speed>0.0</speed>
  <fix>3d</fix>
</trkpt>
<trkpt lat="40.0713749" lon="-105.229789">
  <ele>-0.33</ele>
  <time>2026-08-28T17:56:14Z</time>
  <course>246.32</course>
  <speed>0.0</speed>
  <fix>3d</fix>
</trkpt>
<trkpt lat="40.0713749" lon="-105.229789">
  <ele>1583.0</ele>
  <time>2026-08-28T17:56:14Z</time>
  <course>0.0</course>
  <speed>0.0</speed>
  <fix>3d</fix>
</trkpt>
<trkpt lat="40.0713749" lon="-105.229789">
  <ele>-0.35</ele>
  <time>2026-08-28T17:56:14Z</time>
  <course>246.32</course>
  <speed>0.0</speed>
  <fix>3d</fix>
</trkpt>
<trkpt lat="40.0713749" lon="-105.229789">
  <ele>1583.0</ele>
  <time>2026-08-28T17:56:14Z</time>
  <course>0.0</course>
  <speed>0.0</speed>
  <fix>3d</fix>
</trkpt>
<trkpt lat="40.0713749" lon="-105.229789">
  <ele>0.27</ele>
  <time>2026-08-28T17:56:14Z</time>
  <course>246.32</course>
  <speed>0.0</speed>
  <fix>3d</fix>
</trkpt>
<trkpt lat="40.0713749" lon="-105.229789">
  <ele>1583.0</ele>
  <time>2026-08-28T17:56:14Z</time>
  <course>0.0</course>
  <speed>0.0</speed>
  <fix>3d</fix>
</trkpt>
<trkpt lat="40.0713749" lon="-105.229789">
  <ele>0.07</ele>
  <time>2026-08-28T17:56:14Z</time>
  <course>246.32</course>
  <speed>0.0</speed>
  <fix>3d</fix>
</trkpt>
<trkpt lat="40.0713749" lon="-105.229789">
  <ele>1583.0</ele>
  <time>2026-08-28T17:56:14Z</time>
  <course>0.0</course>
  <speed>0.0</speed>
  <fix>3d</fix>
</trkpt>
<trkpt lat="40.0713749" lon="-105.229789">
  <ele>0.18</ele>
  <time>2026-08-28T17:56:14Z</time>
  <course>246.32</course>
  <speed>0.0</speed>
  <fix>3d</fix>
</trkpt>
<trkpt lat="40.0713749" lon="-105.229789">
  <ele>1583.0</ele>
  <time>2026-08-28T17:56:14Z</time>
  <course>0.0</course>
  <speed>0.0</speed>
  <fix>3d</fix>
</trkpt>
<trkpt lat="40.0713749" lon="-105.229789">
  <ele>0.14</ele>
  <time>2026-08-28T17:56:14Z</time>
  <course>246.32</course>
  <speed>0.0</speed>
  <fix>3d</fix>
</trkpt>
<trkpt lat="40.0713749" lon="-105.229789">
  <ele>1583.0</ele>
  <time>2026-08-28T17:56:14Z</time>
  <course>0.0</course>
  <speed>0.0</speed>
  <fix>3d</fix>
</trkpt>
<trkpt lat="40.0713749" lon="-105.229789">
  <ele>0.3</ele>
  <time>2026-08-28T17:56:14Z</time>
  <course>246.32</course>
  <speed>0.0</speed>
  <fix>3d</fix>
</trkpt>
<trkpt lat="40.0713749" lon="-105.229789">
  <ele>1583.0</ele>
  <time>2026-08-28T17:56:14Z</time>
  <course>0.0</course>
  <speed>0.0</speed>
  <fix>3d</fix>
</trkpt>
<trkpt lat="40.0713749" lon="-105.229789">
  <ele>0.23</ele>
  <time>2026-08-28T17:56:14Z</time>
  <course>246.32</course>
  <speed>0.0</speed>
  <fix>3d</fix>
</trkpt>
<trkpt lat="40.0713749" lon="-105.229789">
  <ele>1583.0</ele>
  <time>2026-08-28T17:56:14Z</time>
  <course>0.0</course>
  <speed>0.0</speed>
  <fix>3d</fix>
</trkpt>
<trkpt lat="40.0713749" lon="-105.229789">
  <ele>0.17</ele>
  <time>2026-08-28T17:56:14Z</time>
  <course>246.32</course>
  <speed>0.0</speed>
  <fix>3d</fix>
</trkpt>
<trkpt lat="40.0713749" lon="-105.229789">
  <ele>1583.0</ele>
  <time>2026-08-28T17:56:14Z</time>
  <course>0.0</course>
  <speed>0.0</speed>
  <fix>3d</fix>
</trkpt>
<trkpt lat="40.0713749" lon="-105.229789">
  <ele>0.01</ele>
  <time>2026-08-28T17:56:14Z</time>
  <course>246.32</course>
  <speed>0.0</speed>
  <fix>3d</fix>
</trkpt>
<trkpt lat="40.0713749" lon="-105.229789">
  <ele>1583.0</ele>
  <time>2026-08-28T17:56:14Z</time>
  <course>0.0</course>
  <speed>0.0</speed>
  <fix>3d</fix>
</trkpt>
<trkpt lat="40.0713749" lon="-105.229789">
  <ele>0.08</ele>
  <time>2026-08-28T17:56:14Z</time>
  <course>246.32</course>
  <speed>0.0</speed>
  <fix>3d</fix>
</trkpt>
<trkpt lat="40.0713749" lon="-105.229789">
  <ele>1583.0</ele>
  <time>2026-08-28T17:56:14Z</time>
  <course>0.0</course>
  <speed>0.0</speed>
  <fix>3d</fix>
</trkpt>
<trkpt lat="40.0713749" lon="-105.229789">
  <ele>0.37</ele>
  <time>2026-08-28T17:56:14Z</time>
  <course>246.32</course>
  <speed>0.0</speed>
  <fix>3d</fix>
</trkpt>
<trkpt lat="40.0713749" lon="-105.229789">
  <ele>1583.0</ele>
  <time>2026-08-28T17:56:14Z</time>
  <course>0.0</course>
  <speed>0.0</speed>
  <fix>3d</fix>
</trkpt>
<trkpt lat="40.0713749" lon="-105.229789">
  <ele>-0.24</ele>
  <time>2026-08-28T17:56:14Z</time>
  <course>246.32</course>
  <speed>0.0</speed>
  <fix>3d</fix>
</trkpt>
<trkpt lat="40.0713749" lon="-105.229789">
  <ele>1583.0</ele>
  <time>2026-08-28T17:56:14Z</time>
  <course>0.0</course>
  <speed>0.0</speed>
  <fix>3d</fix>
</trkpt>
<trkpt lat="40.0713749" lon="-105.229789">
  <ele>-0.32</ele>
  <time>2026-08-28T17:56:14Z</time>
  <course>246.32</course>
  <speed>0.0</speed>
  <fix>3d</fix>
</trkpt>
<trkpt lat="40.0713749" lon="-105.229789">
  <ele>1583.0</ele>
  <time>2026-08-28T17:56:14Z</time>
  <course>0.0</course>
  <speed>0.0</speed>
  <fix>3d</fix>
</trkpt>
<trkpt lat="40.0713749" lon="-105.229789">
  <ele>0.01</ele>
  <time>2026-08-28T17:56:14Z</time>
  <course>246.32</course>
  <speed>0.0</speed>
  <fix>3d</fix>
</trkpt>
<trkpt lat="40.0713749" lon="-105.229789">
  <ele>1583.0</ele>
  <time>2026-08-28T17:56:14Z</time>
  <course>0.0</course>
  <speed>0.0</speed>
  <fix>3d</fix>
</trkpt>
<trkpt lat="40.0713749" lon="-105.229789">
  <ele>-0.19</ele>
  <time>2026-08-28T17:56:14Z</time>
  <course>246.32</course>
  <speed>0.0</speed>
  <fix>3d</fix>
</trkpt>
<trkpt lat="40.0713749" lon="-105.229789">
  <ele>1583.0</ele>
  <time>2026-08-28T17:56:14Z</time>
  <course>0.0</course>
  <speed>0.0</speed>
  <fix>3d</fix>
</trkpt>
<trkpt lat="40.0713749" lon="-105.229789">
  <ele>-0.22</ele>
  <time>2026-08-28T17:56:14Z</time>
  <course>246.31</course>
  <speed>0.0</speed>
  <fix>3d</fix>
</trkpt>
<trkpt lat="40.0713749" lon="-105.229789">
  <ele>1583.0</ele>
  <time>2026-08-28T17:56:14Z</time>
  <course>0.0</course>
  <speed>0.0</speed>
  <fix>3d</fix>
</trkpt>
<trkpt lat="40.0713749" lon="-105.229789">
  <ele>0.0</ele>
  <time>2026-08-28T17:56:14Z</time>
  <course>246.31</course>
  <speed>0.0</speed>
  <fix>3d</fix>
</trkpt>
<trkpt lat="40.0713749" lon="-105.229789">
  <ele>1583.0</ele>
  <time>2026-08-28T17:56:14Z</time>
  <course>0.0</course>
  <speed>0.0</speed>
  <fix>3d</fix>
</trkpt>
<trkpt lat="40.0713749" lon="-105.229789">
  <ele>-0.18</ele>
  <time>2026-08-28T17:56:14Z</time>
  <course>246.31</course>
  <speed>0.0</speed>
  <fix>3d</fix>
</trkpt>
<trkpt lat="40.0713749" lon="-105.229789">
  <ele>1583.0</ele>
  <time>2026-08-28T17:56:14Z</time>
  <course>0.0</course>
  <speed>0.0</speed>
  <fix>3d</fix>
</trkpt>
<trkpt lat="40.0713749" lon="-105.229789">
  <ele>-0.22</ele>
  <time>2026-08-28T17:56:14Z</time>
  <course>246.31</course>
  <speed>0.0</speed>
  <fix>3d</fix>
</trkpt>
<trkpt lat="40.0713749" lon="-105.229789">
  <ele>1583.0</ele>
  <time>2026-08-28T17:56:14Z</time>
  <course>0.0</course>
  <speed>0.0</speed>
  <fix>3d</fix>
</trkpt>
<trkpt lat="40.0713749" lon="-105.229789">
  <ele>-0.12</ele>
  <time>2026-08-28T17:56:14Z</time>
  <course>246.31</course>
  <speed>0.0</speed>
  <fix>3d</fix>
</trkpt>
<trkpt lat="40.0713749" lon="-105.229789">
  <ele>1583.0</ele>
  <time>2026-08-28T17:56:14Z</time>
  <course>0.0</course>
  <speed>0.0</speed>
  <fix>3d</fix>
</trkpt>
<trkpt lat="40.0713749" lon="-105.229789">
  <ele>-0.07</ele>
  <time>2026-08-28T17:56:14Z</time>
  <course>246.31</course>
  <speed>0.0</speed>
  <fix>3d</fix>
</trkpt>
<trkpt lat="40.0713749" lon="-105.229789">
  <ele>1583.0</ele>
  <time>2026-08-28T17:56:14Z</time>
  <course>0.0</course>
  <speed>0.0</speed>
  <fix>3d</fix>
</trkpt>
<trkpt lat="40.0713749" lon="-105.229789">
  <ele>0.04</ele>
  <time>2026-08-28T17:56:14Z</time>
  <course>246.31</course>
  <speed>0.0</speed>
  <fix>3d</fix>
</trkpt>
<trkpt lat="40.0713749" lon="-105.229789">
  <ele>1583.0</ele>
  <time>2026-08-28T17:56:14Z</time>
  <course>0.0</course>
  <speed>0.0</speed>
  <fix>3d</fix>
</trkpt>
<trkpt lat="40.0713749" lon="-105.229789">
  <ele>0.09</ele>
  <time>2026-08-28T17:56:14Z</time>
  <course>246.31</course>
  <speed>0.0</speed>
  <fix>3d</fix>
</trkpt>
<trkpt lat="40.0713749" lon="-105.229789">
  <ele>1583.0</ele>
  <time>2026-08-28T17:56:14Z</time>
  <course>0.0</course>
  <speed>0.0</speed>
  <fix>3d</fix>
</trkpt>
<trkpt lat="40.0713749" lon="-105.229789">
  <ele>-0.14</ele>
  <time>2026-08-28T17:56:14Z</time>
  <course>246.31</course>
  <speed>0.0</speed>
  <fix>3d</fix>
</trkpt>
<trkpt lat="40.0713749" lon="-105.229789">
  <ele>1583.0</ele>
  <time>2026-08-28T17:56:14Z</time>
  <course>0.0</course>
  <speed>0.0</speed>
  <fix>3d</fix>
</trkpt>
<trkpt lat="40.0713749" lon="-105.229789">
  <ele>0.05</ele>
  <time>2026-08-28T17:56:14Z</time>
  <course>246.31</course>
  <speed>0.0</speed>
  <fix>3d</fix>
</trkpt>
<trkpt lat="40.0713749" lon="-105.229789">
  <ele>1583.0</ele>
  <time>2026-08-28T17:56:14Z</time>
  <course>0.0</course>
  <speed>0.0</speed>
  <fix>3d</fix>
</trkpt>
<trkpt lat="40.0713749" lon="-105.229789">
  <ele>-0.19</ele>
  <time>2026-08-28T17:56:14Z</time>
  <course>246.31</course>
  <speed>0.0</speed>
  <fix>3d</fix>
</trkpt>
<trkpt lat="40.0713749" lon="-105.229789">
  <ele>1583.0</ele>
  <time>2026-08-28T17:56:14Z</time>
  <course>0.0</course>
  <speed>0.0</speed>
  <fix>3d</fix>
</trkpt>
<trkpt lat="40.0713749" lon="-105.229789">
  <ele>0.03</ele>
  <time>2026-08-28T17:56:14Z</time>
  <course>246.31</course>
  <speed>0.0</speed>
  <fix>3d</fix>
</trkpt>
<trkpt lat="40.0713749" lon="-105.229789">
  <ele>1583.0</ele>
  <time>2026-08-28T17:56:14Z</time>
  <course>0.0</course>
  <speed>0.0</speed>
  <fix>3d</fix>
</trkpt>
<trkpt lat="40.0713749" lon="-105.229789">
  <ele>-0.03</ele>
  <time>2026-08-28T17:56:14Z</time>
  <course>246.31</course>
  <speed>0.0</speed>
  <fix>3d</fix>
</trkpt>
<trkpt lat="40.0713749" lon="-105.229789">
  <ele>1583.0</ele>
  <time>2026-08-28T17:56:14Z</time>
  <course>0.0</course>
  <speed>0.0</speed>
  <fix>3d</fix>
</trkpt>
<trkpt lat="40.0713749" lon="-105.229789">
  <ele>-0.11</ele>
  <time>2026-08-28T17:56:14Z</time>
  <course>246.31</course>
  <speed>0.0</speed>
  <fix>3d</fix>
</trkpt>
<trkpt lat="40.0713749" lon="-105.229789">
  <ele>1583.0</ele>
  <time>2026-08-28T17:56:14Z</time>
  <course>0.0</course>
  <speed>0.0</speed>
  <fix>3d</fix>
</trkpt>
<trkpt lat="40.0713749" lon="-105.229789">
  <ele>0.0</ele>
  <time>2026-08-28T17:56:14Z</time>
  <course>246.31</course>
  <speed>0.0</speed>
  <fix>3d</fix>
</trkpt>
<trkpt lat="40.0713749" lon="-105.229789">
  <ele>1583.0</ele>
  <time>2026-08-28T17:56:14Z</time>
  <course>0.0</course>
  <speed>0.0</speed>
  <fix>3d</fix>
</trkpt>
<trkpt lat="40.0713749" lon="-105.229789">
  <ele>0.01</ele>
  <time>2026-08-28T17:56:14Z</time>
  <course>246.31</course>
  <speed>0.0</speed>
  <fix>3d</fix>
</trkpt>
<trkpt lat="40.0713749" lon="-105.229789">
  <ele>1583.0</ele>
  <time>2026-08-28T17:56:14Z</time>
  <course>0.0</course>
  <speed>0.0</speed>
  <fix>3d</fix>
</trkpt>
<trkpt lat="40.0713749" lon="-105.229789">
  <ele>0.06</ele>
  <time>2026-08-28T17:56:14Z</time>
  <course>246.31</course>
  <speed>0.0</speed>
  <fix>3d</fix>
</trkpt>
<trkpt lat="40.0713749" lon="-105.229789">
  <ele>1583.0</ele>
  <time>2026-08-28T17:56:14Z</time>
  <course>0.0</course>
  <speed>0.0</speed>
  <fix>3d</fix>
</trkpt>
<trkpt lat="40.0713749" lon="-105.229789">
  <ele>-0.01</ele>
  <time>2026-08-28T17:56:14Z</time>
  <course>246.31</course>
  <speed>0.0</speed>
  <fix>3d</fix>
</trkpt>
<trkpt lat="40.0713749" lon="-105.229789">
  <ele>1583.0</ele>
  <time>2026-08-28T17:56:14Z</time>
  <course>0.0</course>
  <speed>0.0</speed>
  <fix>3d</fix>
</trkpt>
<trkpt lat="40.0713749" lon="-105.229789">
  <ele>-0.16</ele>
  <time>2026-08-28T17:56:14Z</time>
  <course>246.31</course>
  <speed>0.0</speed>
  <fix>3d</fix>
</trkpt>
<trkpt lat="40.0713749" lon="-105.229789">
  <ele>1583.0</ele>
  <time>2026-08-28T17:56:14Z</time>
  <course>0.0</course>
  <speed>0.0</speed>
  <fix>3d</fix>
</trkpt>
<trkpt lat="40.0713749" lon="-105.229789">
  <ele>-0.22</ele>
  <time>2026-08-28T17:56:14Z</time>
  <course>246.31</course>
  <speed>0.0</speed>
  <fix>3d</fix>
</trkpt>
<trkpt lat="40.0713749" lon="-105.229789">
  <ele>1583.0</ele>
  <time>2026-08-28T17:56:14Z</time>
  <course>0.0</course>
  <speed>0.0</speed>
  <fix>3d</fix>
</trkpt>
<trkpt lat="40.0713749" lon="-105.229789">
  <ele>0.02</ele>
  <time>2026-08-28T17:56:14Z</time>
  <course>246.31</course>
  <speed>0.0</speed>
  <fix>3d</fix>
</trkpt>
<trkpt lat="40.0713749" lon="-105.229789">
  <ele>1583.0</ele>
  <time>2026-08-28T17:56:14Z</time>
  <course>0.0</course>
  <speed>0.0</speed>
  <fix>3d</fix>
</trkpt>
<trkpt lat="40.0713749" lon="-105.229789">
  <ele>-0.17</ele>
  <time>2026-08-28T17:56:14Z</time>
  <course>246.31</course>
  <speed>0.0</speed>
  <fix>3d</fix>
</trkpt>
<trkpt lat="40.0713749" lon="-105.229789">
  <ele>1583.0</ele>
  <time>2026-08-28T17:56:14Z</time>
  <course>0.0</course>
  <speed>0.0</speed>
  <fix>3d</fix>
</trkpt>
<trkpt lat="40.0713749" lon="-105.229789">
  <ele>-0.28</ele>
  <time>2026-08-28T17:56:14Z</time>
  <course>246.31</course>
  <speed>0.0</speed>
  <fix>3d</fix>
</trkpt>
<trkpt lat="40.0713749" lon="-105.229789">
  <ele>1583.0</ele>
  <time>2026-08-28T17:56:14Z</time>
  <course>0.0</course>
  <speed>0.0</speed>
  <fix>3d</fix>
</trkpt>
<trkpt lat="40.0713749" lon="-105.229789">
  <ele>-0.23</ele>
  <time>2026-08-28T17:56:14Z</time>
  <course>246.31</course>
  <speed>0.0</speed>
  <fix>3d</fix>
</trkpt>
<trkpt lat="40.0713749" lon="-105.229789">
  <ele>1583.0</ele>
  <time>2026-08-28T17:56:14Z</time>
  <course>0.0</course>
  <speed>0.0</speed>
  <fix>3d</fix>
</trkpt>
<trkpt lat="40.0713749" lon="-105.229789">
  <ele>0.01</ele>
  <time>2026-08-28T17:56:14Z</time>
  <course>246.31</course>
  <speed>0.0</speed>
  <fix>3d</fix>
</trkpt>
<trkpt lat="40.0713749" lon="-105.229789">
  <ele>1583.0</ele>
  <time>2026-08-28T17:56:14Z</time>
  <course>0.0</course>
  <speed>0.0</speed>
  <fix>3d</fix>
</trkpt>
<trkpt lat="40.0713749" lon="-105.229789">
  <ele>-0.09</ele>
  <time>2026-08-28T17:56:14Z</time>
  <course>246.31</course>
  <speed>0.0</speed>
  <fix>3d</fix>
</trkpt>
<trkpt lat="40.0713749" lon="-105.229789">
  <ele>1583.0</ele>
  <time>2026-08-28T17:56:14Z</time>
  <course>0.0</course>
  <speed>0.0</speed>
  <fix>3d</fix>
</trkpt>
<trkpt lat="40.0713749" lon="-105.229789">
  <ele>0.13</ele>
  <time>2026-08-28T17:56:14Z</time>
  <course>246.31</course>
  <speed>0.0</speed>
  <fix>3d</fix>
</trkpt>
<trkpt lat="40.0713749" lon="-105.229789">
  <ele>1583.0</ele>
  <time>2026-08-28T17:56:14Z</time>
  <course>0.0</course>
  <speed>0.0</speed>
  <fix>3d</fix>
</trkpt>
<trkpt lat="40.0713749" lon="-105.229789">
  <ele>0.12</ele>
  <time>2026-08-28T17:56:14Z</time>
  <course>246.31</course>
  <speed>0.0</speed>
  <fix>3d</fix>
</trkpt>
<trkpt lat="40.0713749" lon="-105.229789">
  <ele>1583.0</ele>
  <time>2026-08-28T17:56:14Z</time>
  <course>0.0</course>
  <speed>0.0</speed>
  <fix>3d</fix>
</trkpt>
<trkpt lat="40.0713749" lon="-105.229789">
  <ele>-0.11</ele>
  <time>2026-08-28T17:56:14Z</time>
  <course>246.31</course>
  <speed>0.0</speed>
  <fix>3d</fix>
</trkpt>
<trkpt lat="40.0713749" lon="-105.229789">
  <ele>1583.0</ele>
  <time>2026-08-28T17:56:14Z</time>
  <course>0.0</course>
  <speed>0.0</speed>
  <fix>3d</fix>
</trkpt>
<trkpt lat="40.0713749" lon="-105.229789">
  <ele>-0.11</ele>
  <time>2026-08-28T17:56:14Z</time>
  <course>246.31</course>
  <speed>0.0</speed>
  <fix>3d</fix>
</trkpt>
<trkpt lat="40.0713749" lon="-105.229789">
  <ele>1583.0</ele>
  <time>2026-08-28T17:56:14Z</time>
  <course>0.0</course>
  <speed>0.0</speed>
  <fix>3d</fix>
</trkpt>
<trkpt lat="40.0713749" lon="-105.229789">
  <ele>0.16</ele>
  <time>2026-08-28T17:56:14Z</time>
  <course>246.3</course>
  <speed>0.0</speed>
  <fix>3d</fix>
</trkpt>
<trkpt lat="40.0713749" lon="-105.229789">
  <ele>1583.0</ele>
  <time>2026-08-28T17:56:14Z</time>
  <course>0.0</course>
  <speed>0.0</speed>
  <fix>3d</fix>
</trkpt>
<trkpt lat="40.0713749" lon="-105.229789">
  <ele>0.09</ele>
  <time>2026-08-28T17:56:14Z</time>
  <course>246.3</course>
  <speed>0.0</speed>
  <fix>3d</fix>
</trkpt>
<trkpt lat="40.0713749" lon="-105.229789">
  <ele>1583.0</ele>
  <time>2026-08-28T17:56:14Z</time>
  <course>0.0</course>
  <speed>0.0</speed>
  <fix>3d</fix>
</trkpt>
<trkpt lat="40.0713749" lon="-105.229789">
  <ele>-0.12</ele>
  <time>2026-08-28T17:56:14Z</time>
  <course>246.3</course>
  <speed>0.0</speed>
  <fix>3d</fix>
</trkpt>
<trkpt lat="40.0713749" lon="-105.229789">
  <ele>1583.0</ele>
  <time>2026-08-28T17:56:14Z</time>
  <course>0.0</course>
  <speed>0.0</speed>
  <fix>3d</fix>
</trkpt>
<trkpt lat="40.0713749" lon="-105.229789">
  <ele>-0.03</ele>
  <time>2026-08-28T17:56:14Z</time>
  <course>246.3</course>
  <speed>0.0</speed>
  <fix>3d</fix>
</trkpt>
<trkpt lat="40.0713749" lon="-105.229789">
  <ele>1583.0</ele>
  <time>2026-08-28T17:56:14Z</time>
  <course>0.0</course>
  <speed>0.0</speed>
  <fix>3d</fix>
</trkpt>
<trkpt lat="40.0713749" lon="-105.229789">
  <ele>0.1</ele>
  <time>2026-08-28T17:56:14Z</time>
  <course>246.3</course>
  <speed>0.0</speed>
  <fix>3d</fix>
</trkpt>
<trkpt lat="40.0713749" lon="-105.229789">
  <ele>1583.0</ele>
  <time>2026-08-28T17:56:14Z</time>
  <course>0.0</course>
  <speed>0.0</speed>
  <fix>3d</fix>
</trkpt>
<trkpt lat="40.0713749" lon="-105.229789">
  <ele>0.03</ele>
  <time>2026-08-28T17:56:14Z</time>
  <course>246.3</course>
  <speed>0.0</speed>
  <fix>3d</fix>
</trkpt>
<trkpt lat="40.0713749" lon="-105.229789">
  <ele>1583.0</ele>
  <time>2026-08-28T17:56:14Z</time>
  <course>0.0</course>
  <speed>0.0</speed>
  <fix>3d</fix>
</trkpt>
<trkpt lat="40.0713749" lon="-105.229789">
  <ele>-0.02</ele>
  <time>2026-08-28T17:56:14Z</time>
  <course>246.3</course>
  <speed>0.0</speed>
  <fix>3d</fix>
</trkpt>
<trkpt lat="40.0713749" lon="-105.229789">
  <ele>1583.0</ele>
  <time>2026-08-28T17:56:14Z</time>
  <course>0.0</course>
  <speed>0.0</speed>
  <fix>3d</fix>
</trkpt>
<trkpt lat="40.0713749" lon="-105.229789">
  <ele>-0.2</ele>
  <time>2026-08-28T17:56:14Z</time>
  <course>246.3</course>
  <speed>0.0</speed>
  <fix>3d</fix>
</trkpt>
<trkpt lat="40.0713749" lon="-105.229789">
  <ele>1583.0</ele>
  <time>2026-08-28T17:56:14Z</time>
  <course>0.0</course>
  <speed>0.0</speed>
  <fix>3d</fix>
</trkpt>
<trkpt lat="40.0713749" lon="-105.229789">
  <ele>0.15</ele>
  <time>2026-08-28T17:56:14Z</time>
  <course>246.29</course>
  <speed>0.0</speed>
  <fix>3d</fix>
</trkpt>
<trkpt lat="40.0713749" lon="-105.229789">
  <ele>1583.0</ele>
  <time>2026-08-28T17:56:14Z</time>
  <course>0.0</course>
  <speed>0.0</speed>
  <fix>3d</fix>
</trkpt>
<trkpt lat="40.0713749" lon="-105.229789">
  <ele>-0.03</ele>
  <time>2026-08-28T17:56:14Z</time>
  <course>246.29</course>
  <speed>0.0</speed>
  <fix>3d</fix>
</trkpt>
<trkpt lat="40.0713749" lon="-105.229789">
  <ele>1583.0</ele>
  <time>2026-08-28T17:56:14Z</time>
  <course>0.0</course>
  <speed>0.0</speed>
  <fix>3d</fix>
</trkpt>
<trkpt lat="40.0713749" lon="-105.229789">
  <ele>-0.11</ele>
  <time>2026-08-28T17:56:14Z</time>
  <course>246.29</course>
  <speed>0.0</speed>
  <fix>3d</fix>
</trkpt>
<trkpt lat="40.0713749" lon="-105.229789">
  <ele>1583.0</ele>
  <time>2026-08-28T17:56:14Z</time>
  <course>0.0</course>
  <speed>0.0</speed>
  <fix>3d</fix>
</trkpt>
<trkpt lat="40.0713749" lon="-105.229789">
  <ele>0.15</ele>
  <time>2026-08-28T17:56:14Z</time>
  <course>246.29</course>
  <speed>0.0</speed>
  <fix>3d</fix>
</trkpt>
<trkpt lat="40.0713749" lon="-105.229789">
  <ele>1583.0</ele>
  <time>2026-08-28T17:56:14Z</time>
  <course>0.0</course>
  <speed>0.0</speed>
  <fix>3d</fix>
</trkpt>
<trkpt lat="40.0713749" lon="-105.229789">
  <ele>0.11</ele>
  <time>2026-08-28T17:56:14Z</time>
  <course>246.29</course>
  <speed>0.0</speed>
  <fix>3d</fix>
</trkpt>
<trkpt lat="40.0713749" lon="-105.229789">
  <ele>1583.0</ele>
  <time>2026-08-28T17:56:14Z</time>
  <course>0.0</course>
  <speed>0.0</speed>
  <fix>3d</fix>
</trkpt>
<trkpt lat="40.0713749" lon="-105.229789">
  <ele>0.0</ele>
  <time>2026-08-28T17:56:14Z</time>
  <course>246.29</course>
  <speed>0.0</speed>
  <fix>3d</fix>
</trkpt>
<trkpt lat="40.0713749" lon="-105.229789">
  <ele>1583.0</ele>
  <time>2026-08-28T17:56:14Z</time>
  <course>0.0</course>
  <speed>0.0</speed>
  <fix>3d</fix>
</trkpt>
<trkpt lat="40.0713749" lon="-105.229789">
  <ele>-0.14</ele>
  <time>2026-08-28T17:56:14Z</time>
  <course>246.29</course>
  <speed>0.0</speed>
  <fix>3d</fix>
</trkpt>
<trkpt lat="40.0713749" lon="-105.229789">
  <ele>1583.0</ele>
  <time>2026-08-28T17:56:14Z</time>
  <course>0.0</course>
  <speed>0.0</speed>
  <fix>3d</fix>
</trkpt>
<trkpt lat="40.0713749" lon="-105.229789">
  <ele>-0.02</ele>
  <time>2026-08-28T17:56:14Z</time>
  <course>246.29</course>
  <speed>0.0</speed>
  <fix>3d</fix>
</trkpt>
<trkpt lat="40.0713749" lon="-105.229789">
  <ele>1583.0</ele>
  <time>2026-08-28T17:56:14Z</time>
  <course>0.0</course>
  <speed>0.0</speed>
  <fix>3d</fix>
</trkpt>
<trkpt lat="40.0713749" lon="-105.229789">
  <ele>0.0</ele>
  <time>2026-08-28T17:56:14Z</time>
  <course>246.29</course>
  <speed>0.0</speed>
  <fix>3d</fix>
</trkpt>
<trkpt lat="40.0713749" lon="-105.229789">
  <ele>1583.0</ele>
  <time>2026-08-28T17:56:14Z</time>
  <course>0.0</course>
  <speed>0.0</speed>
  <fix>3d</fix>
</trkpt>
<trkpt lat="40.0713749" lon="-105.229789">
  <ele>0.03</ele>
  <time>2026-08-28T17:56:14Z</time>
  <course>246.29</course>
  <speed>0.0</speed>
  <fix>3d</fix>
</trkpt>
<trkpt lat="40.0713749" lon="-105.229789">
  <ele>1583.0</ele>
  <time>2026-08-28T17:56:14Z</time>
  <course>0.0</course>
  <speed>0.0</speed>
  <fix>3d</fix>
</trkpt>
<trkpt lat="40.0713749" lon="-105.229789">
  <ele>0.01</ele>
  <time>2026-08-28T17:56:14Z</time>
  <course>246.29</course>
  <speed>0.0</speed>
  <fix>3d</fix>
</trkpt>
<trkpt lat="40.0713749" lon="-105.229789">
  <ele>1583.0</ele>
  <time>2026-08-28T17:56:14Z</time>
  <course>0.0</course>
  <speed>0.0</speed>
  <fix>3d</fix>
</trkpt>
<trkpt lat="40.0713749" lon="-105.229789">
  <ele>-0.15</ele>
  <time>2026-08-28T17:56:14Z</time>
  <course>246.28</course>
  <speed>0.0</speed>
  <fix>3d</fix>
</trkpt>
<trkpt lat="40.0713749" lon="-105.229789">
  <ele>1583.0</ele>
  <time>2026-08-28T17:56:14Z</time>
  <course>0.0</course>
  <speed>0.0</speed>
  <fix>3d</fix>
</trkpt>
<trkpt lat="40.0713749" lon="-105.229789">
  <ele>-0.12</ele>
  <time>2026-08-28T17:56:14Z</time>
  <course>246.28</course>
  <speed>0.0</speed>
  <fix>3d</fix>
</trkpt>
<trkpt lat="40.0713749" lon="-105.229789">
  <ele>1583.0</ele>
  <time>2026-08-28T17:56:14Z</time>
  <course>0.0</course>
  <speed>0.0</speed>
  <fix>3d</fix>
</trkpt>
<trkpt lat="40.0713749" lon="-105.229789">
  <ele>-0.07</ele>
  <time>2026-08-28T17:56:14Z</time>
  <course>246.28</course>
  <speed>0.0</speed>
  <fix>3d</fix>
</trkpt>
<trkpt lat="40.0713749" lon="-105.229789">
  <ele>1583.0</ele>
  <time>2026-08-28T17:56:14Z</time>
  <course>0.0</course>
  <speed>0.0</speed>
  <fix>3d</fix>
</trkpt>
<trkpt lat="40.0713749" lon="-105.229789">
  <ele>-0.07</ele>
  <time>2026-08-28T17:56:14Z</time>
  <course>246.28</course>
  <speed>0.0</speed>
  <fix>3d</fix>
</trkpt>
<trkpt lat="40.0713749" lon="-105.229789">
  <ele>1583.0</ele>
  <time>2026-08-28T17:56:14Z</time>
  <course>0.0</course>
  <speed>0.0</speed>
  <fix>3d</fix>
</trkpt>
<trkpt lat="40.0713749" lon="-105.229789">
  <ele>0.18</ele>
  <time>2026-08-28T17:56:14Z</time>
  <course>246.28</course>
  <speed>0.0</speed>
  <fix>3d</fix>
</trkpt>
<trkpt lat="40.0713749" lon="-105.229789">
  <ele>1583.0</ele>
  <time>2026-08-28T17:56:14Z</time>
  <course>0.0</course>
  <speed>0.0</speed>
  <fix>3d</fix>
</trkpt>
<trkpt lat="40.0713749" lon="-105.229789">
  <ele>-0.03</ele>
  <time>2026-08-28T17:56:14Z</time>
  <course>246.28</course>
  <speed>0.0</speed>
  <fix>3d</fix>
</trkpt>
<trkpt lat="40.0713749" lon="-105.229789">
  <ele>1583.0</ele>
  <time>2026-08-28T17:56:14Z</time>
  <course>0.0</course>
  <speed>0.0</speed>
  <fix>3d</fix>
</trkpt>
<trkpt lat="40.0713749" lon="-105.229789">
  <ele>-0.09</ele>
  <time>2026-08-28T17:56:14Z</time>
  <course>246.28</course>
  <speed>0.0</speed>
  <fix>3d</fix>
</trkpt>
<trkpt lat="40.0713749" lon="-105.229789">
  <ele>1583.0</ele>
  <time>2026-08-28T17:56:14Z</time>
  <course>0.0</course>
  <speed>0.0</speed>
  <fix>3d</fix>
</trkpt>
<trkpt lat="40.0713749" lon="-105.229789">
  <ele>0.03</ele>
  <time>2026-08-28T17:56:14Z</time>
  <course>246.28</course>
  <speed>0.0</speed>
  <fix>3d</fix>
</trkpt>
<trkpt lat="40.0713749" lon="-105.229789">
  <ele>1583.0</ele>
  <time>2026-08-28T17:56:14Z</time>
  <course>0.0</course>
  <speed>0.0</speed>
  <fix>3d</fix>
</trkpt>
<trkpt lat="40.0713749" lon="-105.229789">
  <ele>0.0</ele>
  <time>2026-08-28T17:56:14Z</time>
  <course>246.28</course>
  <speed>0.0</speed>
  <fix>3d</fix>
</trkpt>
<trkpt lat="40.0713749" lon="-105.229789">
  <ele>1583.0</ele>
  <time>2026-08-28T17:56:14Z</time>
  <course>0.0</course>
  <speed>0.0</speed>
  <fix>3d</fix>
</trkpt>
<trkpt lat="40.0713749" lon="-105.229789">
  <ele>0.09</ele>
  <time>2026-08-28T17:56:14Z</time>
  <course>246.28</course>
  <speed>0.0</speed>
  <fix>3d</fix>
</trkpt>
<trkpt lat="40.0713749" lon="-105.229789">
  <ele>1583.0</ele>
  <time>2026-08-28T17:56:14Z</time>
  <course>0.0</course>
  <speed>0.0</speed>
  <fix>3d</fix>
</trkpt>
<trkpt lat="40.0713749" lon="-105.229789">
  <ele>-0.06</ele>
  <time>2026-08-28T17:56:14Z</time>
  <course>246.28</course>
  <speed>0.0</speed>
  <fix>3d</fix>
</trkpt>
<trkpt lat="40.0713749" lon="-105.229789">
  <ele>1583.0</ele>
  <time>2026-08-28T17:56:14Z</time>
  <course>0.0</course>
  <speed>0.0</speed>
  <fix>3d</fix>
</trkpt>
<trkpt lat="40.0713749" lon="-105.229789">
  <ele>0.28</ele>
  <time>2026-08-28T17:56:14Z</time>
  <course>246.28</course>
  <speed>0.0</speed>
  <fix>3d</fix>
</trkpt>
<trkpt lat="40.0713749" lon="-105.229789">
  <ele>1583.0</ele>
  <time>2026-08-28T17:56:14Z</time>
  <course>0.0</course>
  <speed>0.0</speed>
  <fix>3d</fix>
</trkpt>
<trkpt lat="40.0713749" lon="-105.229789">
  <ele>0.13</ele>
  <time>2026-08-28T17:56:14Z</time>
  <course>246.28</course>
  <speed>0.0</speed>
  <fix>3d</fix>
</trkpt>
<trkpt lat="40.0713749" lon="-105.229789">
  <ele>1583.0</ele>
  <time>2026-08-28T17:56:14Z</time>
  <course>0.0</course>
  <speed>0.0</speed>
  <fix>3d</fix>
</trkpt>
<trkpt lat="40.0713749" lon="-105.229789">
  <ele>0.3</ele>
  <time>2026-08-28T17:56:14Z</time>
  <course>246.28</course>
  <speed>0.0</speed>
  <fix>3d</fix>
</trkpt>
<trkpt lat="40.0713749" lon="-105.229789">
  <ele>1583.0</ele>
  <time>2026-08-28T17:56:14Z</time>
  <course>0.0</course>
  <speed>0.0</speed>
  <fix>3d</fix>
</trkpt>
<trkpt lat="40.0713749" lon="-105.229789">
  <ele>0.21</ele>
  <time>2026-08-28T17:56:14Z</time>
  <course>246.28</course>
  <speed>0.0</speed>
  <fix>3d</fix>
</trkpt>
<trkpt lat="40.0713749" lon="-105.229789">
  <ele>1583.0</ele>
  <time>2026-08-28T17:56:14Z</time>
  <course>0.0</course>
  <speed>0.0</speed>
  <fix>3d</fix>
</trkpt>
<trkpt lat="40.0713749" lon="-105.229789">
  <ele>0.31</ele>
  <time>2026-08-28T17:56:14Z</time>
  <course>246.28</course>
  <speed>0.0</speed>
  <fix>3d</fix>
</trkpt>
<trkpt lat="40.0713749" lon="-105.229789">
  <ele>1583.0</ele>
  <time>2026-08-28T17:56:14Z</time>
  <course>0.0</course>
  <speed>0.0</speed>
  <fix>3d</fix>
</trkpt>
<trkpt lat="40.0713749" lon="-105.229789">
  <ele>0.2</ele>
  <time>2026-08-28T17:56:14Z</time>
  <course>246.28</course>
  <speed>0.0</speed>
  <fix>3d</fix>
</trkpt>
<trkpt lat="40.0713749" lon="-105.229789">
  <ele>1583.0</ele>
  <time>2026-08-28T17:56:14Z</time>
  <course>0.0</course>
  <speed>0.0</speed>
  <fix>3d</fix>
</trkpt>
<trkpt lat="40.0713749" lon="-105.229789">
  <ele>0.0</ele>
  <time>2026-08-28T17:56:14Z</time>
  <course>246.27</course>
  <speed>0.0</speed>
  <fix>3d</fix>
</trkpt>
<trkpt lat="40.0713749" lon="-105.229789">
  <ele>1583.0</ele>
  <time>2026-08-28T17:56:14Z</time>
  <course>0.0</course>
  <speed>0.0</speed>
  <fix>3d</fix>
</trkpt>
<trkpt lat="40.0713749" lon="-105.229789">
  <ele>-0.07</ele>
  <time>2026-08-28T17:56:14Z</time>
  <course>246.27</course>
  <speed>0.0</speed>
  <fix>3d</fix>
</trkpt>
<trkpt lat="40.0713749" lon="-105.229789">
  <ele>1583.0</ele>
  <time>2026-08-28T17:56:14Z</time>
  <course>0.0</course>
  <speed>0.0</speed>
  <fix>3d</fix>
</trkpt>
<trkpt lat="40.0713749" lon="-105.229789">
  <ele>-0.22</ele>
  <time>2026-08-28T17:56:14Z</time>
  <course>246.27</course>
  <speed>0.0</speed>
  <fix>3d</fix>
</trkpt>
<trkpt lat="40.0713749" lon="-105.229789">
  <ele>1583.0</ele>
  <time>2026-08-28T17:56:14Z</time>
  <course>0.0</course>
  <speed>0.0</speed>
  <fix>3d</fix>
</trkpt>
<trkpt lat="40.0713749" lon="-105.229789">
  <ele>-0.1</ele>
  <time>2026-08-28T17:56:14Z</time>
  <course>246.27</course>
  <speed>0.0</speed>
  <fix>3d</fix>
</trkpt>
<trkpt lat="40.0713749" lon="-105.229789">
  <ele>1583.0</ele>
  <time>2026-08-28T17:56:14Z</time>
  <course>0.0</course>
  <speed>0.0</speed>
  <fix>3d</fix>
</trkpt>
<trkpt lat="40.0713749" lon="-105.229789">
  <ele>-0.16</ele>
  <time>2026-08-28T17:56:14Z</time>
  <course>246.27</course>
  <speed>0.0</speed>
  <fix>3d</fix>
</trkpt>
<trkpt lat="40.0713749" lon="-105.229789">
  <ele>1583.0</ele>
  <time>2026-08-28T17:56:14Z</time>
  <course>0.0</course>
  <speed>0.0</speed>
  <fix>3d</fix>
</trkpt>
<trkpt lat="40.0713749" lon="-105.229789">
  <ele>-0.15</ele>
  <time>2026-08-28T17:56:14Z</time>
  <course>246.27</course>
  <speed>0.0</speed>
  <fix>3d</fix>
</trkpt>
<trkpt lat="40.0713749" lon="-105.229789">
  <ele>1583.0</ele>
  <time>2026-08-28T17:56:14Z</time>
  <course>0.0</course>
  <speed>0.0</speed>
  <fix>3d</fix>
</trkpt>
<trkpt lat="40.0713749" lon="-105.229789">
  <ele>-0.13</ele>
  <time>2026-08-28T17:56:14Z</time>
  <course>246.27</course>
  <speed>0.0</speed>
  <fix>3d</fix>
</trkpt>
<trkpt lat="40.0713749" lon="-105.229789">
  <ele>1583.0</ele>
  <time>2026-08-28T17:56:14Z</time>
  <course>0.0</course>
  <speed>0.0</speed>
  <fix>3d</fix>
</trkpt>
<trkpt lat="40.0713749" lon="-105.229789">
  <ele>0.0</ele>
  <time>2026-08-28T17:56:14Z</time>
  <course>246.27</course>
  <speed>0.0</speed>
  <fix>3d</fix>
</trkpt>
<trkpt lat="40.0713749" lon="-105.229789">
  <ele>1583.0</ele>
  <time>2026-08-28T17:56:14Z</time>
  <course>0.0</course>
  <speed>0.0</speed>
  <fix>3d</fix>
</trkpt>
<trkpt lat="40.0713749" lon="-105.229789">
  <ele>-0.02</ele>
  <time>2026-08-28T17:56:14Z</time>
  <course>246.27</course>
  <speed>0.0</speed>
  <fix>3d</fix>
</trkpt>
<trkpt lat="40.0713749" lon="-105.229789">
  <ele>1583.0</ele>
  <time>2026-08-28T17:56:14Z</time>
  <course>0.0</course>
  <speed>0.0</speed>
  <fix>3d</fix>
</trkpt>
<trkpt lat="40.0713749" lon="-105.229789">
  <ele>-0.13</ele>
  <time>2026-08-28T17:56:14Z</time>
  <course>246.27</course>
  <speed>0.0</speed>
  <fix>3d</fix>
</trkpt>
<trkpt lat="40.0713749" lon="-105.229789">
  <ele>1583.0</ele>
  <time>2026-08-28T17:56:14Z</time>
  <course>0.0</course>
  <speed>0.0</speed>
  <fix>3d</fix>
</trkpt>
<trkpt lat="40.0713749" lon="-105.229789">
  <ele>0.09</ele>
  <time>2026-08-28T17:56:14Z</time>
  <course>246.27</course>
  <speed>0.0</speed>
  <fix>3d</fix>
</trkpt>
<trkpt lat="40.0713749" lon="-105.229789">
  <ele>1583.0</ele>
  <time>2026-08-28T17:56:14Z</time>
  <course>0.0</course>
  <speed>0.0</speed>
  <fix>3d</fix>
</trkpt>
<trkpt lat="40.0713749" lon="-105.229789">
  <ele>0.17</ele>
  <time>2026-08-28T17:56:14Z</time>
  <course>246.27</course>
  <speed>0.0</speed>
  <fix>3d</fix>
</trkpt>
<trkpt lat="40.0713749" lon="-105.229789">
  <ele>1583.0</ele>
  <time>2026-08-28T17:56:14Z</time>
  <course>0.0</course>
  <speed>0.0</speed>
  <fix>3d</fix>
</trkpt>
<trkpt lat="40.0713749" lon="-105.229789">
  <ele>0.12</ele>
  <time>2026-08-28T17:56:14Z</time>
  <course>246.27</course>
  <speed>0.0</speed>
  <fix>3d</fix>
</trkpt>
<trkpt lat="40.0713749" lon="-105.229789">
  <ele>1583.0</ele>
  <time>2026-08-28T17:56:14Z</time>
  <course>0.0</course>
  <speed>0.0</speed>
  <fix>3d</fix>
</trkpt>
<trkpt lat="40.0713749" lon="-105.229789">
  <ele>-0.1</ele>
  <time>2026-08-28T17:56:14Z</time>
  <course>246.27</course>
  <speed>0.0</speed>
  <fix>3d</fix>
</trkpt>
<trkpt lat="40.0713749" lon="-105.229789">
  <ele>1583.0</ele>
  <time>2026-08-28T17:56:14Z</time>
  <course>0.0</course>
  <speed>0.0</speed>
  <fix>3d</fix>
</trkpt>
<trkpt lat="40.0713749" lon="-105.229789">
  <ele>0.0</ele>
  <time>2026-08-28T17:56:14Z</time>
  <course>246.27</course>
  <speed>0.0</speed>
  <fix>3d</fix>
</trkpt>
<trkpt lat="40.0713749" lon="-105.229789">
  <ele>1583.0</ele>
  <time>2026-08-28T17:56:14Z</time>
  <course>0.0</course>
  <speed>0.0</speed>
  <fix>3d</fix>
</trkpt>
<trkpt lat="40.0713749" lon="-105.229789">
  <ele>0.08</ele>
  <time>2026-08-28T17:56:14Z</time>
  <course>246.26</course>
  <speed>0.0</speed>
  <fix>3d</fix>
</trkpt>
<trkpt lat="40.0713749" lon="-105.229789">
  <ele>1583.0</ele>
  <time>2026-08-28T17:56:14Z</time>
  <course>0.0</course>
  <speed>0.0</speed>
  <fix>3d</fix>
</trkpt>
<trkpt lat="40.0713749" lon="-105.229789">
  <ele>-0.05</ele>
  <time>2026-08-28T17:56:14Z</time>
  <course>246.26</course>
  <speed>0.0</speed>
  <fix>3d</fix>
</trkpt>
<trkpt lat="40.0713749" lon="-105.229789">
  <ele>1583.0</ele>
  <time>2026-08-28T17:56:14Z</time>
  <course>0.0</course>
  <speed>0.0</speed>
  <fix>3d</fix>
</trkpt>
<trkpt lat="40.0713749" lon="-105.229789">
  <ele>0.14</ele>
  <time>2026-08-28T17:56:14Z</time>
  <course>246.26</course>
  <speed>0.0</speed>
  <fix>3d</fix>
</trkpt>
<trkpt lat="40.0713749" lon="-105.229789">
  <ele>1583.0</ele>
  <time>2026-08-28T17:56:14Z</time>
  <course>0.0</course>
  <speed>0.0</speed>
  <fix>3d</fix>
</trkpt>
<trkpt lat="40.0713749" lon="-105.229789">
  <ele>0.06</ele>
  <time>2026-08-28T17:56:14Z</time>
  <course>246.26</course>
  <speed>0.0</speed>
  <fix>3d</fix>
</trkpt>
<trkpt lat="40.0713749" lon="-105.229789">
  <ele>1583.0</ele>
  <time>2026-08-28T17:56:14Z</time>
  <course>0.0</course>
  <speed>0.0</speed>
  <fix>3d</fix>
</trkpt>
<trkpt lat="40.0713749" lon="-105.229789">
  <ele>0.11</ele>
  <time>2026-08-28T17:56:14Z</time>
  <course>246.26</course>
  <speed>0.0</speed>
  <fix>3d</fix>
</trkpt>
<trkpt lat="40.0713749" lon="-105.229789">
  <ele>1583.0</ele>
  <time>2026-08-28T17:56:14Z</time>
  <course>0.0</course>
  <speed>0.0</speed>
  <fix>3d</fix>
</trkpt>
<trkpt lat="40.0713749" lon="-105.229789">
  <ele>0.15</ele>
  <time>2026-08-28T17:56:14Z</time>
  <course>246.26</course>
  <speed>0.0</speed>
  <fix>3d</fix>
</trkpt>
<trkpt lat="40.0713749" lon="-105.229789">
  <ele>1583.0</ele>
  <time>2026-08-28T17:56:14Z</time>
  <course>0.0</course>
  <speed>0.0</speed>
  <fix>3d</fix>
</trkpt>
<trkpt lat="40.0713749" lon="-105.229789">
  <ele>0.15</ele>
  <time>2026-08-28T17:56:14Z</time>
  <course>246.26</course>
  <speed>0.0</speed>
  <fix>3d</fix>
</trkpt>
<trkpt lat="40.0713749" lon="-105.229789">
  <ele>1583.0</ele>
  <time>2026-08-28T17:56:14Z</time>
  <course>0.0</course>
  <speed>0.0</speed>
  <fix>3d</fix>
</trkpt>
<trkpt lat="40.0713749" lon="-105.229789">
  <ele>-0.04</ele>
  <time>2026-08-28T17:56:14Z</time>
  <course>246.26</course>
  <speed>0.0</speed>
  <fix>3d</fix>
</trkpt>
<trkpt lat="40.0713749" lon="-105.229789">
  <ele>1583.0</ele>
  <time>2026-08-28T17:56:14Z</time>
  <course>0.0</course>
  <speed>0.0</speed>
  <fix>3d</fix>
</trkpt>
<trkpt lat="40.0713749" lon="-105.229789">
  <ele>0.05</ele>
  <time>2026-08-28T17:56:14Z</time>
  <course>246.25</course>
  <speed>0.0</speed>
  <fix>3d</fix>
</trkpt>
<trkpt lat="40.0713749" lon="-105.229789">
  <ele>1583.0</ele>
  <time>2026-08-28T17:56:14Z</time>
  <course>0.0</course>
  <speed>0.0</speed>
  <fix>3d</fix>
</trkpt>
<trkpt lat="40.0713749" lon="-105.229789">
  <ele>-0.18</ele>
  <time>2026-08-28T17:56:14Z</time>
  <course>246.25</course>
  <speed>0.0</speed>
  <fix>3d</fix>
</trkpt>
<trkpt lat="40.0713749" lon="-105.229789">
  <ele>1583.0</ele>
  <time>2026-08-28T17:56:14Z</time>
  <course>0.0</course>
  <speed>0.0</speed>
  <fix>3d</fix>
</trkpt>
<trkpt lat="40.0713749" lon="-105.229789">
  <ele>0.12</ele>
  <time>2026-08-28T17:56:14Z</time>
  <course>246.25</course>
  <speed>0.0</speed>
  <fix>3d</fix>
</trkpt>
<trkpt lat="40.0713749" lon="-105.229789">
  <ele>1583.0</ele>
  <time>2026-08-28T17:56:14Z</time>
  <course>0.0</course>
  <speed>0.0</speed>
  <fix>3d</fix>
</trkpt>
<trkpt lat="40.0713749" lon="-105.229789">
  <ele>-0.03</ele>
  <time>2026-08-28T17:56:14Z</time>
  <course>246.25</course>
  <speed>0.0</speed>
  <fix>3d</fix>
</trkpt>
<trkpt lat="40.0713749" lon="-105.229789">
  <ele>1583.0</ele>
  <time>2026-08-28T17:56:14Z</time>
  <course>0.0</course>
  <speed>0.0</speed>
  <fix>3d</fix>
</trkpt>
<trkpt lat="40.0713749" lon="-105.229789">
  <ele>0.17</ele>
  <time>2026-08-28T17:56:14Z</time>
  <course>246.25</course>
  <speed>0.0</speed>
  <fix>3d</fix>
</trkpt>
<trkpt lat="40.0713749" lon="-105.229789">
  <ele>1583.0</ele>
  <time>2026-08-28T17:56:14Z</time>
  <course>0.0</course>
  <speed>0.0</speed>
  <fix>3d</fix>
</trkpt>
<trkpt lat="40.0713749" lon="-105.229789">
  <ele>-0.12</ele>
  <time>2026-08-28T17:56:14Z</time>
  <course>246.25</course>
  <speed>0.0</speed>
  <fix>3d</fix>
</trkpt>
<trkpt lat="40.0713749" lon="-105.229789">
  <ele>1583.0</ele>
  <time>2026-08-28T17:56:14Z</time>
  <course>0.0</course>
  <speed>0.0</speed>
  <fix>3d</fix>
</trkpt>
<trkpt lat="40.0713749" lon="-105.229789">
  <ele>-0.07</ele>
  <time>2026-08-28T17:56:14Z</time>
  <course>246.25</course>
  <speed>0.0</speed>
  <fix>3d</fix>
</trkpt>
<trkpt lat="40.0713749" lon="-105.229789">
  <ele>1583.0</ele>
  <time>2026-08-28T17:56:14Z</time>
  <course>0.0</course>
  <speed>0.0</speed>
  <fix>3d</fix>
</trkpt>
<trkpt lat="40.0713749" lon="-105.229789">
  <ele>-0.01</ele>
  <time>2026-08-28T17:56:14Z</time>
  <course>246.25</course>
  <speed>0.0</speed>
  <fix>3d</fix>
</trkpt>
<trkpt lat="40.0713749" lon="-105.229789">
  <ele>1583.0</ele>
  <time>2026-08-28T17:56:14Z</time>
  <course>0.0</course>
  <speed>0.0</speed>
  <fix>3d</fix>
</trkpt>
<trkpt lat="40.0713749" lon="-105.229789">
  <ele>0.23</ele>
  <time>2026-08-28T17:56:14Z</time>
  <course>246.25</course>
  <speed>0.0</speed>
  <fix>3d</fix>
</trkpt>
<trkpt lat="40.0713749" lon="-105.229789">
  <ele>1583.0</ele>
  <time>2026-08-28T17:56:14Z</time>
  <course>0.0</course>
  <speed>0.0</speed>
  <fix>3d</fix>
</trkpt>
<trkpt lat="40.0713749" lon="-105.229789">
  <ele>-0.09</ele>
  <time>2026-08-28T17:56:14Z</time>
  <course>246.25</course>
  <speed>0.0</speed>
  <fix>3d</fix>
</trkpt>
<trkpt lat="40.0713749" lon="-105.229789">
  <ele>1583.0</ele>
  <time>2026-08-28T17:56:14Z</time>
  <course>0.0</course>
  <speed>0.0</speed>
  <fix>3d</fix>
</trkpt>
<trkpt lat="40.0713749" lon="-105.229789">
  <ele>-0.06</ele>
  <time>2026-08-28T17:56:14Z</time>
  <course>246.24</course>
  <speed>0.0</speed>
  <fix>3d</fix>
</trkpt>
<trkpt lat="40.0713749" lon="-105.229789">
  <ele>1583.0</ele>
  <time>2026-08-28T17:56:14Z</time>
  <course>0.0</course>
  <speed>0.0</speed>
  <fix>3d</fix>
</trkpt>
<trkpt lat="40.0713749" lon="-105.229789">
  <ele>0.23</ele>
  <time>2026-08-28T17:56:14Z</time>
  <course>246.24</course>
  <speed>0.0</speed>
  <fix>3d</fix>
</trkpt>
<trkpt lat="40.0713749" lon="-105.229789">
  <ele>1583.0</ele>
  <time>2026-08-28T17:56:14Z</time>
  <course>0.0</course>
  <speed>0.0</speed>
  <fix>3d</fix>
</trkpt>
<trkpt lat="40.0713749" lon="-105.229789">
  <ele>0.15</ele>
  <time>2026-08-28T17:56:14Z</time>
  <course>246.24</course>
  <speed>0.0</speed>
  <fix>3d</fix>
</trkpt>
<trkpt lat="40.0713749" lon="-105.229789">
  <ele>1583.0</ele>
  <time>2026-08-28T17:56:14Z</time>
  <course>0.0</course>
  <speed>0.0</speed>
  <fix>3d</fix>
</trkpt>
<trkpt lat="40.0713749" lon="-105.229789">
  <ele>-0.04</ele>
  <time>2026-08-28T17:56:14Z</time>
  <course>246.24</course>
  <speed>0.0</speed>
  <fix>3d</fix>
</trkpt>
<trkpt lat="40.0713749" lon="-105.229789">
  <ele>1583.0</ele>
  <time>2026-08-28T17:56:14Z</time>
  <course>0.0</course>
  <speed>0.0</speed>
  <fix>3d</fix>
</trkpt>
<trkpt lat="40.0713749" lon="-105.229789">
  <ele>0.03</ele>
  <time>2026-08-28T17:56:14Z</time>
  <course>246.24</course>
  <speed>0.0</speed>
  <fix>3d</fix>
</trkpt>
<trkpt lat="40.0713749" lon="-105.229789">
  <ele>1583.0</ele>
  <time>2026-08-28T17:56:14Z</time>
  <course>0.0</course>
  <speed>0.0</speed>
  <fix>3d</fix>
</trkpt>
<trkpt lat="40.0713749" lon="-105.229789">
  <ele>0.11</ele>
  <time>2026-08-28T17:56:14Z</time>
  <course>246.24</course>
  <speed>0.0</speed>
  <fix>3d</fix>
</trkpt>
<trkpt lat="40.0713749" lon="-105.229789">
  <ele>1583.0</ele>
  <time>2026-08-28T17:56:14Z</time>
  <course>0.0</course>
  <speed>0.0</speed>
  <fix>3d</fix>
</trkpt>
<trkpt lat="40.0713749" lon="-105.229789">
  <ele>-0.03</ele>
  <time>2026-08-28T17:56:14Z</time>
  <course>246.24</course>
  <speed>0.0</speed>
  <fix>3d</fix>
</trkpt>
<trkpt lat="40.0713749" lon="-105.229789">
  <ele>1583.0</ele>
  <time>2026-08-28T17:56:14Z</time>
  <course>0.0</course>
  <speed>0.0</speed>
  <fix>3d</fix>
</trkpt>
<trkpt lat="40.0713749" lon="-105.229789">
  <ele>0.01</ele>
  <time>2026-08-28T17:56:14Z</time>
  <course>246.24</course>
  <speed>0.0</speed>
  <fix>3d</fix>
</trkpt>
<trkpt lat="40.0713749" lon="-105.229789">
  <ele>1583.0</ele>
  <time>2026-08-28T17:56:14Z</time>
  <course>0.0</course>
  <speed>0.0</speed>
  <fix>3d</fix>
</trkpt>
<trkpt lat="40.0713749" lon="-105.229789">
  <ele>0.05</ele>
  <time>2026-08-28T17:56:14Z</time>
  <course>246.24</course>
  <speed>0.0</speed>
  <fix>3d</fix>
</trkpt>
<trkpt lat="40.0713749" lon="-105.229789">
  <ele>1583.0</ele>
  <time>2026-08-28T17:56:14Z</time>
  <course>0.0</course>
  <speed>0.0</speed>
  <fix>3d</fix>
</trkpt>
<trkpt lat="40.0713749" lon="-105.229789">
  <ele>0.26</ele>
  <time>2026-08-28T17:56:14Z</time>
  <course>246.24</course>
  <speed>0.0</speed>
  <fix>3d</fix>
</trkpt>
<trkpt lat="40.0713749" lon="-105.229789">
  <ele>1583.0</ele>
  <time>2026-08-28T17:56:14Z</time>
  <course>0.0</course>
  <speed>0.0</speed>
  <fix>3d</fix>
</trkpt>
<trkpt lat="40.0713749" lon="-105.229789">
  <ele>0.01</ele>
  <time>2026-08-28T17:56:14Z</time>
  <course>246.24</course>
  <speed>0.0</speed>
  <fix>3d</fix>
</trkpt>
<trkpt lat="40.0713749" lon="-105.229789">
  <ele>1583.0</ele>
  <time>2026-08-28T17:56:14Z</time>
  <course>0.0</course>
  <speed>0.0</speed>
  <fix>3d</fix>
</trkpt>
<trkpt lat="40.0713749" lon="-105.229789">
  <ele>0.23</ele>
  <time>2026-08-28T17:56:14Z</time>
  <course>246.24</course>
  <speed>0.0</speed>
  <fix>3d</fix>
</trkpt>
<trkpt lat="40.0713749" lon="-105.229789">
  <ele>1583.0</ele>
  <time>2026-08-28T17:56:14Z</time>
  <course>0.0</course>
  <speed>0.0</speed>
  <fix>3d</fix>
</trkpt>
<trkpt lat="40.0713749" lon="-105.229789">
  <ele>0.0</ele>
  <time>2026-08-28T17:56:14Z</time>
  <course>246.24</course>
  <speed>0.0</speed>
  <fix>3d</fix>
</trkpt>
<trkpt lat="40.0713749" lon="-105.229789">
  <ele>1583.0</ele>
  <time>2026-08-28T17:56:14Z</time>
  <course>0.0</course>
  <speed>0.0</speed>
  <fix>3d</fix>
</trkpt>
<trkpt lat="40.0713749" lon="-105.229789">
  <ele>0.15</ele>
  <time>2026-08-28T17:56:14Z</time>
  <course>246.24</course>
  <speed>0.0</speed>
  <fix>3d</fix>
</trkpt>
<trkpt lat="40.0713749" lon="-105.229789">
  <ele>1583.0</ele>
  <time>2026-08-28T17:56:14Z</time>
  <course>0.0</course>
  <speed>0.0</speed>
  <fix>3d</fix>
</trkpt>
<trkpt lat="40.0713749" lon="-105.229789">
  <ele>0.3</ele>
  <time>2026-08-28T17:56:14Z</time>
  <course>246.24</course>
  <speed>0.0</speed>
  <fix>3d</fix>
</trkpt>
<trkpt lat="40.0713749" lon="-105.229789">
  <ele>1583.0</ele>
  <time>2026-08-28T17:56:14Z</time>
  <course>0.0</course>
  <speed>0.0</speed>
  <fix>3d</fix>
</trkpt>
<trkpt lat="40.0713749" lon="-105.229789">
  <ele>0.0</ele>
  <time>2026-08-28T17:56:14Z</time>
  <course>246.24</course>
  <speed>0.0</speed>
  <fix>3d</fix>
</trkpt>
<trkpt lat="40.0713749" lon="-105.229789">
  <ele>1583.0</ele>
  <time>2026-08-28T17:56:14Z</time>
  <course>0.0</course>
  <speed>0.0</speed>
  <fix>3d</fix>
</trkpt>
<trkpt lat="40.0713749" lon="-105.229789">
  <ele>0.08</ele>
  <time>2026-08-28T17:56:14Z</time>
  <course>246.23</course>
  <speed>0.0</speed>
  <fix>3d</fix>
</trkpt>
<trkpt lat="40.0713749" lon="-105.229789">
  <ele>1583.0</ele>
  <time>2026-08-28T17:56:14Z</time>
  <course>0.0</course>
  <speed>0.0</speed>
  <fix>3d</fix>
</trkpt>
<trkpt lat="40.0713749" lon="-105.229789">
  <ele>0.12</ele>
  <time>2026-08-28T17:56:14Z</time>
  <course>246.23</course>
  <speed>0.0</speed>
  <fix>3d</fix>
</trkpt>
<trkpt lat="40.0713749" lon="-105.229789">
  <ele>1583.0</ele>
  <time>2026-08-28T17:56:14Z</time>
  <course>0.0</course>
  <speed>0.0</speed>
  <fix>3d</fix>
</trkpt>
<trkpt lat="40.0713749" lon="-105.229789">
  <ele>-0.09</ele>
  <time>2026-08-28T17:56:14Z</time>
  <course>246.23</course>
  <speed>0.0</speed>
  <fix>3d</fix>
</trkpt>
<trkpt lat="40.0713749" lon="-105.229789">
  <ele>1583.0</ele>
  <time>2026-08-28T17:56:14Z</time>
  <course>0.0</course>
  <speed>0.0</speed>
  <fix>3d</fix>
</trkpt>
<trkpt lat="40.0713749" lon="-105.229789">
  <ele>0.17</ele>
  <time>2026-08-28T17:56:14Z</time>
  <course>246.23</course>
  <speed>0.0</speed>
  <fix>3d</fix>
</trkpt>
<trkpt lat="40.0713749" lon="-105.229789">
  <ele>1583.0</ele>
  <time>2026-08-28T17:56:14Z</time>
  <course>0.0</course>
  <speed>0.0</speed>
  <fix>3d</fix>
</trkpt>
<trkpt lat="40.0713749" lon="-105.229789">
  <ele>0.16</ele>
  <time>2026-08-28T17:56:14Z</time>
  <course>246.23</course>
  <speed>0.0</speed>
  <fix>3d</fix>
</trkpt>
<trkpt lat="40.0713749" lon="-105.229789">
  <ele>1583.0</ele>
  <time>2026-08-28T17:56:14Z</time>
  <course>0.0</course>
  <speed>0.0</speed>
  <fix>3d</fix>
</trkpt>
<trkpt lat="40.0713749" lon="-105.229789">
  <ele>0.17</ele>
  <time>2026-08-28T17:56:14Z</time>
  <course>246.23</course>
  <speed>0.0</speed>
  <fix>3d</fix>
</trkpt>
<trkpt lat="40.0713749" lon="-105.229789">
  <ele>1583.0</ele>
  <time>2026-08-28T17:56:14Z</time>
  <course>0.0</course>
  <speed>0.0</speed>
  <fix>3d</fix>
</trkpt>
<trkpt lat="40.0713749" lon="-105.229789">
  <ele>-0.13</ele>
  <time>2026-08-28T17:56:14Z</time>
  <course>246.23</course>
  <speed>0.0</speed>
  <fix>3d</fix>
</trkpt>
<trkpt lat="40.0713749" lon="-105.229789">
  <ele>1583.0</ele>
  <time>2026-08-28T17:56:14Z</time>
  <course>0.0</course>
  <speed>0.0</speed>
  <fix>3d</fix>
</trkpt>
<trkpt lat="40.0713749" lon="-105.229789">
  <ele>-0.03</ele>
  <time>2026-08-28T17:56:14Z</time>
  <course>246.23</course>
  <speed>0.0</speed>
  <fix>3d</fix>
</trkpt>
<trkpt lat="40.0713749" lon="-105.229789">
  <ele>1583.0</ele>
  <time>2026-08-28T17:56:14Z</time>
  <course>0.0</course>
  <speed>0.0</speed>
  <fix>3d</fix>
</trkpt>
<trkpt lat="40.0713749" lon="-105.229789">
  <ele>-0.02</ele>
  <time>2026-08-28T17:56:14Z</time>
  <course>246.23</course>
  <speed>0.0</speed>
  <fix>3d</fix>
</trkpt>
<trkpt lat="40.0713749" lon="-105.229789">
  <ele>1583.0</ele>
  <time>2026-08-28T17:56:14Z</time>
  <course>0.0</course>
  <speed>0.0</speed>
  <fix>3d</fix>
</trkpt>
<trkpt lat="40.0713749" lon="-105.229789">
  <ele>0.16</ele>
  <time>2026-08-28T17:56:14Z</time>
  <course>246.23</course>
  <speed>0.0</speed>
  <fix>3d</fix>
</trkpt>
<trkpt lat="40.0713749" lon="-105.229789">
  <ele>1583.0</ele>
  <time>2026-08-28T17:56:14Z</time>
  <course>0.0</course>
  <speed>0.0</speed>
  <fix>3d</fix>
</trkpt>
<trkpt lat="40.0713749" lon="-105.229789">
  <ele>0.12</ele>
  <time>2026-08-28T17:56:14Z</time>
  <course>246.23</course>
  <speed>0.0</speed>
  <fix>3d</fix>
</trkpt>
<trkpt lat="40.0713749" lon="-105.229789">
  <ele>1583.0</ele>
  <time>2026-08-28T17:56:14Z</time>
  <course>0.0</course>
  <speed>0.0</speed>
  <fix>3d</fix>
</trkpt>
<trkpt lat="40.0713749" lon="-105.229789">
  <ele>-0.13</ele>
  <time>2026-08-28T17:56:14Z</time>
  <course>246.23</course>
  <speed>0.0</speed>
  <fix>3d</fix>
</trkpt>
<trkpt lat="40.0713749" lon="-105.229789">
  <ele>1583.0</ele>
  <time>2026-08-28T17:56:14Z</time>
  <course>0.0</course>
  <speed>0.0</speed>
  <fix>3d</fix>
</trkpt>
<trkpt lat="40.0713749" lon="-105.229789">
  <ele>0.08</ele>
  <time>2026-08-28T17:56:14Z</time>
  <course>246.23</course>
  <speed>0.0</speed>
  <fix>3d</fix>
</trkpt>
<trkpt lat="40.0713749" lon="-105.229789">
  <ele>1583.0</ele>
  <time>2026-08-28T17:56:14Z</time>
  <course>0.0</course>
  <speed>0.0</speed>
  <fix>3d</fix>
</trkpt>
<trkpt lat="40.0713749" lon="-105.229789">
  <ele>0.0</ele>
  <time>2026-08-28T17:56:14Z</time>
  <course>246.23</course>
  <speed>0.0</speed>
  <fix>3d</fix>
</trkpt>
<trkpt lat="40.0713749" lon="-105.229789">
  <ele>1583.0</ele>
  <time>2026-08-28T17:56:14Z</time>
  <course>0.0</course>
  <speed>0.0</speed>
  <fix>3d</fix>
</trkpt>
<trkpt lat="40.0713749" lon="-105.229789">
  <ele>-0.27</ele>
  <time>2026-08-28T17:56:14Z</time>
  <course>246.23</course>
  <speed>0.0</speed>
  <fix>3d</fix>
</trkpt>
<trkpt lat="40.0713749" lon="-105.229789">
  <ele>1583.0</ele>
  <time>2026-08-28T17:56:14Z</time>
  <course>0.0</course>
  <speed>0.0</speed>
  <fix>3d</fix>
</trkpt>
<trkpt lat="40.0713749" lon="-105.229789">
  <ele>0.01</ele>
  <time>2026-08-28T17:56:14Z</time>
  <course>246.23</course>
  <speed>0.0</speed>
  <fix>3d</fix>
</trkpt>
<trkpt lat="40.0713749" lon="-105.229789">
  <ele>1583.0</ele>
  <time>2026-08-28T17:56:14Z</time>
  <course>0.0</course>
  <speed>0.0</speed>
  <fix>3d</fix>
</trkpt>
<trkpt lat="40.0713749" lon="-105.229789">
  <ele>0.0</ele>
  <time>2026-08-28T17:56:14Z</time>
  <course>246.22</course>
  <speed>0.0</speed>
  <fix>3d</fix>
</trkpt>
<trkpt lat="40.0713749" lon="-105.229789">
  <ele>1583.0</ele>
  <time>2026-08-28T17:56:14Z</time>
  <course>0.0</course>
  <speed>0.0</speed>
  <fix>3d</fix>
</trkpt>
<trkpt lat="40.0713749" lon="-105.229789">
  <ele>-0.12</ele>
  <time>2026-08-28T17:56:14Z</time>
  <course>246.22</course>
  <speed>0.0</speed>
  <fix>3d</fix>
</trkpt>
<trkpt lat="40.0713749" lon="-105.229789">
  <ele>1583.0</ele>
  <time>2026-08-28T17:56:14Z</time>
  <course>0.0</course>
  <speed>0.0</speed>
  <fix>3d</fix>
</trkpt>
<trkpt lat="40.0713749" lon="-105.229789">
  <ele>-0.02</ele>
  <time>2026-08-28T17:56:14Z</time>
  <course>246.22</course>
  <speed>0.0</speed>
  <fix>3d</fix>
</trkpt>
<trkpt lat="40.0713749" lon="-105.229789">
  <ele>1583.0</ele>
  <time>2026-08-28T17:56:14Z</time>
  <course>0.0</course>
  <speed>0.0</speed>
  <fix>3d</fix>
</trkpt>
<trkpt lat="40.0713749" lon="-105.229789">
  <ele>-0.13</ele>
  <time>2026-08-28T17:56:14Z</time>
  <course>246.22</course>
  <speed>0.0</speed>
  <fix>3d</fix>
</trkpt>
<trkpt lat="40.0713749" lon="-105.229789">
  <ele>1583.0</ele>
  <time>2026-08-28T17:56:14Z</time>
  <course>0.0</course>
  <speed>0.0</speed>
  <fix>3d</fix>
</trkpt>
<trkpt lat="40.0713749" lon="-105.229789">
  <ele>-0.02</ele>
  <time>2026-08-28T17:56:14Z</time>
  <course>246.22</course>
  <speed>0.0</speed>
  <fix>3d</fix>
</trkpt>
<trkpt lat="40.0713749" lon="-105.229789">
  <ele>1583.0</ele>
  <time>2026-08-28T17:56:14Z</time>
  <course>0.0</course>
  <speed>0.0</speed>
  <fix>3d</fix>
</trkpt>
<trkpt lat="40.0713749" lon="-105.229789">
  <ele>0.12</ele>
  <time>2026-08-28T17:56:14Z</time>
  <course>246.22</course>
  <speed>0.0</speed>
  <fix>3d</fix>
</trkpt>
<trkpt lat="40.0713749" lon="-105.229789">
  <ele>1583.0</ele>
  <time>2026-08-28T17:56:14Z</time>
  <course>0.0</course>
  <speed>0.0</speed>
  <fix>3d</fix>
</trkpt>
<trkpt lat="40.0713749" lon="-105.229789">
  <ele>0.14</ele>
  <time>2026-08-28T17:56:14Z</time>
  <course>246.22</course>
  <speed>0.0</speed>
  <fix>3d</fix>
</trkpt>
<trkpt lat="40.0713749" lon="-105.229789">
  <ele>1583.0</ele>
  <time>2026-08-28T17:56:14Z</time>
  <course>0.0</course>
  <speed>0.0</speed>
  <fix>3d</fix>
</trkpt>
<trkpt lat="40.0713749" lon="-105.229789">
  <ele>-0.21</ele>
  <time>2026-08-28T17:56:14Z</time>
  <course>246.22</course>
  <speed>0.0</speed>
  <fix>3d</fix>
</trkpt>
<trkpt lat="40.0713749" lon="-105.229789">
  <ele>1583.0</ele>
  <time>2026-08-28T17:56:14Z</time>
  <course>0.0</course>
  <speed>0.0</speed>
  <fix>3d</fix>
</trkpt>
<trkpt lat="40.0713749" lon="-105.229789">
  <ele>-0.03</ele>
  <time>2026-08-28T17:56:14Z</time>
  <course>246.22</course>
  <speed>0.0</speed>
  <fix>3d</fix>
</trkpt>
<trkpt lat="40.0713749" lon="-105.229789">
  <ele>1583.0</ele>
  <time>2026-08-28T17:56:14Z</time>
  <course>0.0</course>
  <speed>0.0</speed>
  <fix>3d</fix>
</trkpt>
<trkpt lat="40.0713749" lon="-105.229789">
  <ele>0.13</ele>
  <time>2026-08-28T17:56:14Z</time>
  <course>246.22</course>
  <speed>0.0</speed>
  <fix>3d</fix>
</trkpt>
<trkpt lat="40.0713749" lon="-105.229789">
  <ele>1583.0</ele>
  <time>2026-08-28T17:56:14Z</time>
  <course>0.0</course>
  <speed>0.0</speed>
  <fix>3d</fix>
</trkpt>
<trkpt lat="40.0713749" lon="-105.229789">
  <ele>-0.11</ele>
  <time>2026-08-28T17:56:14Z</time>
  <course>246.22</course>
  <speed>0.0</speed>
  <fix>3d</fix>
</trkpt>
<trkpt lat="40.0713749" lon="-105.229789">
  <ele>1583.0</ele>
  <time>2026-08-28T17:56:14Z</time>
  <course>0.0</course>
  <speed>0.0</speed>
  <fix>3d</fix>
</trkpt>
<trkpt lat="40.0713749" lon="-105.229789">
  <ele>-0.02</ele>
  <time>2026-08-28T17:56:14Z</time>
  <course>246.21</course>
  <speed>0.0</speed>
  <fix>3d</fix>
</trkpt>
<trkpt lat="40.0713749" lon="-105.229789">
  <ele>1583.0</ele>
  <time>2026-08-28T17:56:14Z</time>
  <course>0.0</course>
  <speed>0.0</speed>
  <fix>3d</fix>
</trkpt>
<trkpt lat="40.0713749" lon="-105.229789">
  <ele>0.11</ele>
  <time>2026-08-28T17:56:14Z</time>
  <course>246.21</course>
  <speed>0.0</speed>
  <fix>3d</fix>
</trkpt>
<trkpt lat="40.0713749" lon="-105.229789">
  <ele>1583.0</ele>
  <time>2026-08-28T17:56:14Z</time>
  <course>0.0</course>
  <speed>0.0</speed>
  <fix>3d</fix>
</trkpt>
<trkpt lat="40.0713749" lon="-105.229789">
  <ele>0.13</ele>
  <time>2026-08-28T17:56:14Z</time>
  <course>246.21</course>
  <speed>0.0</speed>
  <fix>3d</fix>
</trkpt>
<trkpt lat="40.0713749" lon="-105.229789">
  <ele>1583.0</ele>
  <time>2026-08-28T17:56:14Z</time>
  <course>0.0</course>
  <speed>0.0</speed>
  <fix>3d</fix>
</trkpt>
<trkpt lat="40.0713749" lon="-105.229789">
  <ele>0.12</ele>
  <time>2026-08-28T17:56:14Z</time>
  <course>246.21</course>
  <speed>0.0</speed>
  <fix>3d</fix>
</trkpt>
<trkpt lat="40.0713749" lon="-105.229789">
  <ele>1583.0</ele>
  <time>2026-08-28T17:56:14Z</time>
  <course>0.0</course>
  <speed>0.0</speed>
  <fix>3d</fix>
</trkpt>
<trkpt lat="40.0713749" lon="-105.229789">
  <ele>-0.22</ele>
  <time>2026-08-28T17:56:14Z</time>
  <course>246.21</course>
  <speed>0.0</speed>
  <fix>3d</fix>
</trkpt>
<trkpt lat="40.0713749" lon="-105.229789">
  <ele>1583.0</ele>
  <time>2026-08-28T17:56:14Z</time>
  <course>0.0</course>
  <speed>0.0</speed>
  <fix>3d</fix>
</trkpt>
<trkpt lat="40.0713749" lon="-105.229789">
  <ele>0.01</ele>
  <time>2026-08-28T17:56:14Z</time>
  <course>246.21</course>
  <speed>0.0</speed>
  <fix>3d</fix>
</trkpt>
<trkpt lat="40.0713749" lon="-105.229789">
  <ele>1583.0</ele>
  <time>2026-08-28T17:56:14Z</time>
  <course>0.0</course>
  <speed>0.0</speed>
  <fix>3d</fix>
</trkpt>
<trkpt lat="40.0713749" lon="-105.229789">
  <ele>-0.26</ele>
  <time>2026-08-28T17:56:14Z</time>
  <course>246.21</course>
  <speed>0.0</speed>
  <fix>3d</fix>
</trkpt>
<trkpt lat="40.0713749" lon="-105.229789">
  <ele>1583.0</ele>
  <time>2026-08-28T17:56:14Z</time>
  <course>0.0</course>
  <speed>0.0</speed>
  <fix>3d</fix>
</trkpt>
<trkpt lat="40.0713749" lon="-105.229789">
  <ele>0.01</ele>
  <time>2026-08-28T17:56:14Z</time>
  <course>246.21</course>
  <speed>0.0</speed>
  <fix>3d</fix>
</trkpt>
<trkpt lat="40.0713749" lon="-105.229789">
  <ele>1583.0</ele>
  <time>2026-08-28T17:56:14Z</time>
  <course>0.0</course>
  <speed>0.0</speed>
  <fix>3d</fix>
</trkpt>
<trkpt lat="40.0713749" lon="-105.229789">
  <ele>-0.06</ele>
  <time>2026-08-28T17:56:14Z</time>
  <course>246.21</course>
  <speed>0.0</speed>
  <fix>3d</fix>
</trkpt>
<trkpt lat="40.0713749" lon="-105.229789">
  <ele>1583.0</ele>
  <time>2026-08-28T17:56:14Z</time>
  <course>0.0</course>
  <speed>0.0</speed>
  <fix>3d</fix>
</trkpt>
<trkpt lat="40.0713749" lon="-105.229789">
  <ele>0.03</ele>
  <time>2026-08-28T17:56:14Z</time>
  <course>246.21</course>
  <speed>0.0</speed>
  <fix>3d</fix>
</trkpt>
<trkpt lat="40.0713749" lon="-105.229789">
  <ele>1583.0</ele>
  <time>2026-08-28T17:56:14Z</time>
  <course>0.0</course>
  <speed>0.0</speed>
  <fix>3d</fix>
</trkpt>
<trkpt lat="40.0713749" lon="-105.229789">
  <ele>-0.28</ele>
  <time>2026-08-28T17:56:14Z</time>
  <course>246.21</course>
  <speed>0.0</speed>
  <fix>3d</fix>
</trkpt>
<trkpt lat="40.0713749" lon="-105.229789">
  <ele>1583.0</ele>
  <time>2026-08-28T17:56:14Z</time>
  <course>0.0</course>
  <speed>0.0</speed>
  <fix>3d</fix>
</trkpt>
<trkpt lat="40.0713749" lon="-105.229789">
  <ele>-0.35</ele>
  <time>2026-08-28T17:56:14Z</time>
  <course>246.21</course>
  <speed>0.0</speed>
  <fix>3d</fix>
</trkpt>
<trkpt lat="40.0713749" lon="-105.229789">
  <ele>1583.0</ele>
  <time>2026-08-28T17:56:14Z</time>
  <course>0.0</course>
  <speed>0.0</speed>
  <fix>3d</fix>
</trkpt>
<trkpt lat="40.0713749" lon="-105.229789">
  <ele>-0.1</ele>
  <time>2026-08-28T17:56:14Z</time>
  <course>246.2</course>
  <speed>0.0</speed>
  <fix>3d</fix>
</trkpt>
<trkpt lat="40.0713749" lon="-105.229789">
  <ele>1583.0</ele>
  <time>2026-08-28T17:56:14Z</time>
  <course>0.0</course>
  <speed>0.0</speed>
  <fix>3d</fix>
</trkpt>
<trkpt lat="40.0713749" lon="-105.229789">
  <ele>0.0</ele>
  <time>2026-08-28T17:56:14Z</time>
  <course>246.2</course>
  <speed>0.0</speed>
  <fix>3d</fix>
</trkpt>
<trkpt lat="40.0713749" lon="-105.229789">
  <ele>1583.0</ele>
  <time>2026-08-28T17:56:14Z</time>
  <course>0.0</course>
  <speed>0.0</speed>
  <fix>3d</fix>
</trkpt>
<trkpt lat="40.0713749" lon="-105.229789">
  <ele>-0.01</ele>
  <time>2026-08-28T17:56:14Z</time>
  <course>246.2</course>
  <speed>0.0</speed>
  <fix>3d</fix>
</trkpt>
<trkpt lat="40.0713749" lon="-105.229789">
  <ele>1583.0</ele>
  <time>2026-08-28T17:56:14Z</time>
  <course>0.0</course>
  <speed>0.0</speed>
  <fix>3d</fix>
</trkpt>
<trkpt lat="40.0713749" lon="-105.229789">
  <ele>-0.34</ele>
  <time>2026-08-28T17:56:14Z</time>
  <course>246.2</course>
  <speed>0.0</speed>
  <fix>3d</fix>
</trkpt>
<trkpt lat="40.0713749" lon="-105.229789">
  <ele>1583.0</ele>
  <time>2026-08-28T17:56:14Z</time>
  <course>0.0</course>
  <speed>0.0</speed>
  <fix>3d</fix>
</trkpt>
<trkpt lat="40.0713749" lon="-105.229789">
  <ele>0.0</ele>
  <time>2026-08-28T17:56:14Z</time>
  <course>246.2</course>
  <speed>0.0</speed>
  <fix>3d</fix>
</trkpt>
<trkpt lat="40.0713749" lon="-105.229789">
  <ele>1583.0</ele>
  <time>2026-08-28T17:56:14Z</time>
  <course>0.0</course>
  <speed>0.0</speed>
  <fix>3d</fix>
</trkpt>
<trkpt lat="40.0713749" lon="-105.229789">
  <ele>-0.26</ele>
  <time>2026-08-28T17:56:14Z</time>
  <course>246.2</course>
  <speed>0.0</speed>
  <fix>3d</fix>
</trkpt>
<trkpt lat="40.0713749" lon="-105.229789">
  <ele>1583.0</ele>
  <time>2026-08-28T17:56:14Z</time>
  <course>0.0</course>
  <speed>0.0</speed>
  <fix>3d</fix>
</trkpt>
<trkpt lat="40.0713749" lon="-105.229789">
  <ele>-0.15</ele>
  <time>2026-08-28T17:56:14Z</time>
  <course>246.2</course>
  <speed>0.0</speed>
  <fix>3d</fix>
</trkpt>
<trkpt lat="40.0713749" lon="-105.229789">
  <ele>1583.0</ele>
  <time>2026-08-28T17:56:14Z</time>
  <course>0.0</course>
  <speed>0.0</speed>
  <fix>3d</fix>
</trkpt>
<trkpt lat="40.0713749" lon="-105.229789">
  <ele>-0.18</ele>
  <time>2026-08-28T17:56:14Z</time>
  <course>246.2</course>
  <speed>0.0</speed>
  <fix>3d</fix>
</trkpt>
<trkpt lat="40.0713749" lon="-105.229789">
  <ele>1583.0</ele>
  <time>2026-08-28T17:56:14Z</time>
  <course>0.0</course>
  <speed>0.0</speed>
  <fix>3d</fix>
</trkpt>
<trkpt lat="40.0713749" lon="-105.229789">
  <ele>-0.16</ele>
  <time>2026-08-28T17:56:14Z</time>
  <course>246.2</course>
  <speed>0.0</speed>
  <fix>3d</fix>
</trkpt>
<trkpt lat="40.0713749" lon="-105.229789">
  <ele>1583.0</ele>
  <time>2026-08-28T17:56:14Z</time>
  <course>0.0</course>
  <speed>0.0</speed>
  <fix>3d</fix>
</trkpt>
<trkpt lat="40.0713749" lon="-105.229789">
  <ele>-0.21</ele>
  <time>2026-08-28T17:56:14Z</time>
  <course>246.2</course>
  <speed>0.0</speed>
  <fix>3d</fix>
</trkpt>
<trkpt lat="40.0713749" lon="-105.229789">
  <ele>1583.0</ele>
  <time>2026-08-28T17:56:14Z</time>
  <course>0.0</course>
  <speed>0.0</speed>
  <fix>3d</fix>
</trkpt>
<trkpt lat="40.0713749" lon="-105.229789">
  <ele>-0.12</ele>
  <time>2026-08-28T17:56:14Z</time>
  <course>246.2</course>
  <speed>0.0</speed>
  <fix>3d</fix>
</trkpt>
<trkpt lat="40.0713749" lon="-105.229789">
  <ele>1583.0</ele>
  <time>2026-08-28T17:56:14Z</time>
  <course>0.0</course>
  <speed>0.0</speed>
  <fix>3d</fix>
</trkpt>
<trkpt lat="40.0713749" lon="-105.229789">
  <ele>-0.04</ele>
  <time>2026-08-28T17:56:14Z</time>
  <course>246.2</course>
  <speed>0.0</speed>
  <fix>3d</fix>
</trkpt>
<trkpt lat="40.0713749" lon="-105.229789">
  <ele>1583.0</ele>
  <time>2026-08-28T17:56:14Z</time>
  <course>0.0</course>
  <speed>0.0</speed>
  <fix>3d</fix>
</trkpt>
<trkpt lat="40.0713749" lon="-105.229789">
  <ele>0.05</ele>
  <time>2026-08-28T17:56:14Z</time>
  <course>246.2</course>
  <speed>0.0</speed>
  <fix>3d</fix>
</trkpt>
<trkpt lat="40.0713749" lon="-105.229789">
  <ele>1583.0</ele>
  <time>2026-08-28T17:56:14Z</time>
  <course>0.0</course>
  <speed>0.0</speed>
  <fix>3d</fix>
</trkpt>
<trkpt lat="40.0713749" lon="-105.229789">
  <ele>-0.16</ele>
  <time>2026-08-28T17:56:14Z</time>
  <course>246.2</course>
  <speed>0.0</speed>
  <fix>3d</fix>
</trkpt>
<trkpt lat="40.0713749" lon="-105.229789">
  <ele>1583.0</ele>
  <time>2026-08-28T17:56:14Z</time>
  <course>0.0</course>
  <speed>0.0</speed>
  <fix>3d</fix>
</trkpt>
<trkpt lat="40.0713749" lon="-105.229789">
  <ele>0.06</ele>
  <time>2026-08-28T17:56:14Z</time>
  <course>246.2</course>
  <speed>0.0</speed>
  <fix>3d</fix>
</trkpt>
<trkpt lat="40.0713749" lon="-105.229789">
  <ele>1583.0</ele>
  <time>2026-08-28T17:56:14Z</time>
  <course>0.0</course>
  <speed>0.0</speed>
  <fix>3d</fix>
</trkpt>
<trkpt lat="40.0713749" lon="-105.229789">
  <ele>-0.13</ele>
  <time>2026-08-28T17:56:14Z</time>
  <course>246.2</course>
  <speed>0.0</speed>
  <fix>3d</fix>
</trkpt>
<trkpt lat="40.0713749" lon="-105.229789">
  <ele>1583.0</ele>
  <time>2026-08-28T17:56:14Z</time>
  <course>0.0</course>
  <speed>0.0</speed>
  <fix>3d</fix>
</trkpt>
<trkpt lat="40.0713749" lon="-105.229789">
  <ele>-0.01</ele>
  <time>2026-08-28T17:56:14Z</time>
  <course>246.2</course>
  <speed>0.0</speed>
  <fix>3d</fix>
</trkpt>
<trkpt lat="40.0713749" lon="-105.229789">
  <ele>1583.0</ele>
  <time>2026-08-28T17:56:14Z</time>
  <course>0.0</course>
  <speed>0.0</speed>
  <fix>3d</fix>
</trkpt>
<trkpt lat="40.0713749" lon="-105.229789">
  <ele>-0.21</ele>
  <time>2026-08-28T17:56:14Z</time>
  <course>246.2</course>
  <speed>0.0</speed>
  <fix>3d</fix>
</trkpt>
<trkpt lat="40.0713749" lon="-105.229789">
  <ele>1583.0</ele>
  <time>2026-08-28T17:56:14Z</time>
  <course>0.0</course>
  <speed>0.0</speed>
  <fix>3d</fix>
</trkpt>
<trkpt lat="40.0713749" lon="-105.229789">
  <ele>-0.25</ele>
  <time>2026-08-28T17:56:14Z</time>
  <course>246.2</course>
  <speed>0.0</speed>
  <fix>3d</fix>
</trkpt>
<trkpt lat="40.0713749" lon="-105.229789">
  <ele>1583.0</ele>
  <time>2026-08-28T17:56:14Z</time>
  <course>0.0</course>
  <speed>0.0</speed>
  <fix>3d</fix>
</trkpt>
<trkpt lat="40.0713749" lon="-105.229789">
  <ele>0.08</ele>
  <time>2026-08-28T17:56:14Z</time>
  <course>246.2</course>
  <speed>0.0</speed>
  <fix>3d</fix>
</trkpt>
<trkpt lat="40.0713749" lon="-105.229789">
  <ele>1583.0</ele>
  <time>2026-08-28T17:56:14Z</time>
  <course>0.0</course>
  <speed>0.0</speed>
  <fix>3d</fix>
</trkpt>
<trkpt lat="40.0713749" lon="-105.229789">
  <ele>-0.21</ele>
  <time>2026-08-28T17:56:14Z</time>
  <course>246.2</course>
  <speed>0.0</speed>
  <fix>3d</fix>
</trkpt>
<trkpt lat="40.0713749" lon="-105.229789">
  <ele>1583.0</ele>
  <time>2026-08-28T17:56:14Z</time>
  <course>0.0</course>
  <speed>0.0</speed>
  <fix>3d</fix>
</trkpt>
<trkpt lat="40.0713749" lon="-105.229789">
  <ele>-0.28</ele>
  <time>2026-08-28T17:56:14Z</time>
  <course>246.2</course>
  <speed>0.0</speed>
  <fix>3d</fix>
</trkpt>
<trkpt lat="40.0713749" lon="-105.229789">
  <ele>1583.0</ele>
  <time>2026-08-28T17:56:14Z</time>
  <course>0.0</course>
  <speed>0.0</speed>
  <fix>3d</fix>
</trkpt>
<trkpt lat="40.0713749" lon="-105.229789">
  <ele>0.34</ele>
  <time>2026-08-28T17:56:14Z</time>
  <course>246.2</course>
  <speed>0.0</speed>
  <fix>3d</fix>
</trkpt>
<trkpt lat="40.0713749" lon="-105.229789">
  <ele>1583.0</ele>
  <time>2026-08-28T17:56:14Z</time>
  <course>0.0</course>
  <speed>0.0</speed>
  <fix>3d</fix>
</trkpt>
<trkpt lat="40.0713749" lon="-105.229789">
  <ele>0.09</ele>
  <time>2026-08-28T17:56:14Z</time>
  <course>246.19</course>
  <speed>0.0</speed>
  <fix>3d</fix>
</trkpt>
<trkpt lat="40.0713749" lon="-105.229789">
  <ele>1583.0</ele>
  <time>2026-08-28T17:56:14Z</time>
  <course>0.0</course>
  <speed>0.0</speed>
  <fix>3d</fix>
</trkpt>
<trkpt lat="40.0713749" lon="-105.229789">
  <ele>0.08</ele>
  <time>2026-08-28T17:56:14Z</time>
  <course>246.19</course>
  <speed>0.0</speed>
  <fix>3d</fix>
</trkpt>
<trkpt lat="40.0713749" lon="-105.229789">
  <ele>1583.0</ele>
  <time>2026-08-28T17:56:14Z</time>
  <course>0.0</course>
  <speed>0.0</speed>
  <fix>3d</fix>
</trkpt>
<trkpt lat="40.0713749" lon="-105.229789">
  <ele>0.15</ele>
  <time>2026-08-28T17:56:14Z</time>
  <course>246.19</course>
  <speed>0.0</speed>
  <fix>3d</fix>
</trkpt>
<trkpt lat="40.0713749" lon="-105.229789">
  <ele>1583.0</ele>
  <time>2026-08-28T17:56:14Z</time>
  <course>0.0</course>
  <speed>0.0</speed>
  <fix>3d</fix>
</trkpt>
<trkpt lat="40.0713749" lon="-105.229789">
  <ele>0.3</ele>
  <time>2026-08-28T17:56:14Z</time>
  <course>246.19</course>
  <speed>0.0</speed>
  <fix>3d</fix>
</trkpt>
<trkpt lat="40.0713749" lon="-105.229789">
  <ele>1583.0</ele>
  <time>2026-08-28T17:56:14Z</time>
  <course>0.0</course>
  <speed>0.0</speed>
  <fix>3d</fix>
</trkpt>
<trkpt lat="40.0713749" lon="-105.229789">
  <ele>0.12</ele>
  <time>2026-08-28T17:56:14Z</time>
  <course>246.19</course>
  <speed>0.0</speed>
  <fix>3d</fix>
</trkpt>
<trkpt lat="40.0713749" lon="-105.229789">
  <ele>1583.0</ele>
  <time>2026-08-28T17:56:14Z</time>
  <course>0.0</course>
  <speed>0.0</speed>
  <fix>3d</fix>
</trkpt>
<trkpt lat="40.0713749" lon="-105.229789">
  <ele>0.13</ele>
  <time>2026-08-28T17:56:14Z</time>
  <course>246.19</course>
  <speed>0.0</speed>
  <fix>3d</fix>
</trkpt>
<trkpt lat="40.0713749" lon="-105.229789">
  <ele>1583.0</ele>
  <time>2026-08-28T17:56:14Z</time>
  <course>0.0</course>
  <speed>0.0</speed>
  <fix>3d</fix>
</trkpt>
<trkpt lat="40.0713749" lon="-105.229789">
  <ele>0.01</ele>
  <time>2026-08-28T17:56:14Z</time>
  <course>246.19</course>
  <speed>0.0</speed>
  <fix>3d</fix>
</trkpt>
<trkpt lat="40.0713749" lon="-105.229789">
  <ele>1583.0</ele>
  <time>2026-08-28T17:56:14Z</time>
  <course>0.0</course>
  <speed>0.0</speed>
  <fix>3d</fix>
</trkpt>
<trkpt lat="40.0713749" lon="-105.229789">
  <ele>0.13</ele>
  <time>2026-08-28T17:56:14Z</time>
  <course>246.19</course>
  <speed>0.0</speed>
  <fix>3d</fix>
</trkpt>
<trkpt lat="40.0713749" lon="-105.229789">
  <ele>1583.0</ele>
  <time>2026-08-28T17:56:14Z</time>
  <course>0.0</course>
  <speed>0.0</speed>
  <fix>3d</fix>
</trkpt>
<trkpt lat="40.0713749" lon="-105.229789">
  <ele>0.08</ele>
  <time>2026-08-28T17:56:14Z</time>
  <course>246.19</course>
  <speed>0.0</speed>
  <fix>3d</fix>
</trkpt>
<trkpt lat="40.0713749" lon="-105.229789">
  <ele>1583.0</ele>
  <time>2026-08-28T17:56:14Z</time>
  <course>0.0</course>
  <speed>0.0</speed>
  <fix>3d</fix>
</trkpt>
<trkpt lat="40.0713749" lon="-105.229789">
  <ele>0.26</ele>
  <time>2026-08-28T17:56:14Z</time>
  <course>246.19</course>
  <speed>0.0</speed>
  <fix>3d</fix>
</trkpt>
<trkpt lat="40.0713749" lon="-105.229789">
  <ele>1583.0</ele>
  <time>2026-08-28T17:56:14Z</time>
  <course>0.0</course>
  <speed>0.0</speed>
  <fix>3d</fix>
</trkpt>
<trkpt lat="40.0713749" lon="-105.229789">
  <ele>0.01</ele>
  <time>2026-08-28T17:56:14Z</time>
  <course>246.19</course>
  <speed>0.0</speed>
  <fix>3d</fix>
</trkpt>
<trkpt lat="40.0713749" lon="-105.229789">
  <ele>1583.0</ele>
  <time>2026-08-28T17:56:14Z</time>
  <course>0.0</course>
  <speed>0.0</speed>
  <fix>3d</fix>
</trkpt>
<trkpt lat="40.0713749" lon="-105.229789">
  <ele>-0.06</ele>
  <time>2026-08-28T17:56:14Z</time>
  <course>246.19</course>
  <speed>0.0</speed>
  <fix>3d</fix>
</trkpt>
<trkpt lat="40.0713749" lon="-105.229789">
  <ele>1583.0</ele>
  <time>2026-08-28T17:56:14Z</time>
  <course>0.0</course>
  <speed>0.0</speed>
  <fix>3d</fix>
</trkpt>
<trkpt lat="40.0713749" lon="-105.229789">
  <ele>-0.06</ele>
  <time>2026-08-28T17:56:14Z</time>
  <course>246.18</course>
  <speed>0.0</speed>
  <fix>3d</fix>
</trkpt>
<trkpt lat="40.0713749" lon="-105.229789">
  <ele>1583.0</ele>
  <time>2026-08-28T17:56:14Z</time>
  <course>0.0</course>
  <speed>0.0</speed>
  <fix>3d</fix>
</trkpt>
<trkpt lat="40.0713749" lon="-105.229789">
  <ele>-0.03</ele>
  <time>2026-08-28T17:56:14Z</time>
  <course>246.18</course>
  <speed>0.0</speed>
  <fix>3d</fix>
</trkpt>
<trkpt lat="40.0713749" lon="-105.229789">
  <ele>1583.0</ele>
  <time>2026-08-28T17:56:14Z</time>
  <course>0.0</course>
  <speed>0.0</speed>
  <fix>3d</fix>
</trkpt>
<trkpt lat="40.0713749" lon="-105.229789">
  <ele>0.27</ele>
  <time>2026-08-28T17:56:14Z</time>
  <course>246.18</course>
  <speed>0.0</speed>
  <fix>3d</fix>
</trkpt>
<trkpt lat="40.0713749" lon="-105.229789">
  <ele>1583.0</ele>
  <time>2026-08-28T17:56:14Z</time>
  <course>0.0</course>
  <speed>0.0</speed>
  <fix>3d</fix>
</trkpt>
<trkpt lat="40.0713749" lon="-105.229789">
  <ele>0.13</ele>
  <time>2026-08-28T17:56:14Z</time>
  <course>246.18</course>
  <speed>0.0</speed>
  <fix>3d</fix>
</trkpt>
<trkpt lat="40.0713749" lon="-105.229789">
  <ele>1583.0</ele>
  <time>2026-08-28T17:56:14Z</time>
  <course>0.0</course>
  <speed>0.0</speed>
  <fix>3d</fix>
</trkpt>
<trkpt lat="40.0713749" lon="-105.229789">
  <ele>0.27</ele>
  <time>2026-08-28T17:56:14Z</time>
  <course>246.18</course>
  <speed>0.0</speed>
  <fix>3d</fix>
</trkpt>
<trkpt lat="40.0713749" lon="-105.229789">
  <ele>1583.0</ele>
  <time>2026-08-28T17:56:14Z</time>
  <course>0.0</course>
  <speed>0.0</speed>
  <fix>3d</fix>
</trkpt>
<trkpt lat="40.0713749" lon="-105.229789">
  <ele>0.04</ele>
  <time>2026-08-28T17:56:14Z</time>
  <course>246.18</course>
  <speed>0.0</speed>
  <fix>3d</fix>
</trkpt>
<trkpt lat="40.0713749" lon="-105.229789">
  <ele>1583.0</ele>
  <time>2026-08-28T17:56:14Z</time>
  <course>0.0</course>
  <speed>0.0</speed>
  <fix>3d</fix>
</trkpt>
<trkpt lat="40.0713749" lon="-105.229789">
  <ele>0.3</ele>
  <time>2026-08-28T17:56:14Z</time>
  <course>246.18</course>
  <speed>0.0</speed>
  <fix>3d</fix>
</trkpt>
<trkpt lat="40.0713749" lon="-105.229789">
  <ele>1583.0</ele>
  <time>2026-08-28T17:56:14Z</time>
  <course>0.0</course>
  <speed>0.0</speed>
  <fix>3d</fix>
</trkpt>
<trkpt lat="40.0713749" lon="-105.229789">
  <ele>-0.22</ele>
  <time>2026-08-28T17:56:14Z</time>
  <course>246.18</course>
  <speed>0.0</speed>
  <fix>3d</fix>
</trkpt>
<trkpt lat="40.0713749" lon="-105.229789">
  <ele>1583.0</ele>
  <time>2026-08-28T17:56:14Z</time>
  <course>0.0</course>
  <speed>0.0</speed>
  <fix>3d</fix>
</trkpt>
<trkpt lat="40.0713749" lon="-105.229789">
  <ele>-0.08</ele>
  <time>2026-08-28T17:56:14Z</time>
  <course>246.18</course>
  <speed>0.0</speed>
  <fix>3d</fix>
</trkpt>
<trkpt lat="40.0713749" lon="-105.229789">
  <ele>1583.0</ele>
  <time>2026-08-28T17:56:14Z</time>
  <course>0.0</course>
  <speed>0.0</speed>
  <fix>3d</fix>
</trkpt>
<trkpt lat="40.0713749" lon="-105.229789">
  <ele>-0.14</ele>
  <time>2026-08-28T17:56:14Z</time>
  <course>246.18</course>
  <speed>0.0</speed>
  <fix>3d</fix>
</trkpt>
<trkpt lat="40.0713749" lon="-105.229789">
  <ele>1583.0</ele>
  <time>2026-08-28T17:56:14Z</time>
  <course>0.0</course>
  <speed>0.0</speed>
  <fix>3d</fix>
</trkpt>
<trkpt lat="40.0713749" lon="-105.229789">
  <ele>-0.34</ele>
  <time>2026-08-28T17:56:14Z</time>
  <course>246.18</course>
  <speed>0.0</speed>
  <fix>3d</fix>
</trkpt>
<trkpt lat="40.0713749" lon="-105.229789">
  <ele>1583.0</ele>
  <time>2026-08-28T17:56:14Z</time>
  <course>0.0</course>
  <speed>0.0</speed>
  <fix>3d</fix>
</trkpt>
<trkpt lat="40.0713749" lon="-105.229789">
  <ele>-0.35</ele>
  <time>2026-08-28T17:56:14Z</time>
  <course>246.18</course>
  <speed>0.0</speed>
  <fix>3d</fix>
</trkpt>
<trkpt lat="40.0713749" lon="-105.229789">
  <ele>1583.0</ele>
  <time>2026-08-28T17:56:14Z</time>
  <course>0.0</course>
  <speed>0.0</speed>
  <fix>3d</fix>
</trkpt>
<trkpt lat="40.0713749" lon="-105.229789">
  <ele>-0.2</ele>
  <time>2026-08-28T17:56:14Z</time>
  <course>246.18</course>
  <speed>0.0</speed>
  <fix>3d</fix>
</trkpt>
<trkpt lat="40.0713749" lon="-105.229789">
  <ele>1583.0</ele>
  <time>2026-08-28T17:56:14Z</time>
  <course>0.0</course>
  <speed>0.0</speed>
  <fix>3d</fix>
</trkpt>
<trkpt lat="40.0713749" lon="-105.229789">
  <ele>-0.11</ele>
  <time>2026-08-28T17:56:14Z</time>
  <course>246.18</course>
  <speed>0.0</speed>
  <fix>3d</fix>
</trkpt>
<trkpt lat="40.0713749" lon="-105.229789">
  <ele>1583.0</ele>
  <time>2026-08-28T17:56:14Z</time>
  <course>0.0</course>
  <speed>0.0</speed>
  <fix>3d</fix>
</trkpt>
<trkpt lat="40.0713749" lon="-105.229789">
  <ele>-0.26</ele>
  <time>2026-08-28T17:56:14Z</time>
  <course>246.18</course>
  <speed>0.0</speed>
  <fix>3d</fix>
</trkpt>
<trkpt lat="40.0713749" lon="-105.229789">
  <ele>1583.0</ele>
  <time>2026-08-28T17:56:14Z</time>
  <course>0.0</course>
  <speed>0.0</speed>
  <fix>3d</fix>
</trkpt>
<trkpt lat="40.0713749" lon="-105.229789">
  <ele>0.01</ele>
  <time>2026-08-28T17:56:14Z</time>
  <course>246.18</course>
  <speed>0.0</speed>
  <fix>3d</fix>
</trkpt>
<trkpt lat="40.0713749" lon="-105.229789">
  <ele>1583.0</ele>
  <time>2026-08-28T17:56:14Z</time>
  <course>0.0</course>
  <speed>0.0</speed>
  <fix>3d</fix>
</trkpt>
<trkpt lat="40.0713749" lon="-105.229789">
  <ele>-0.31</ele>
  <time>2026-08-28T17:56:14Z</time>
  <course>246.17</course>
  <speed>0.0</speed>
  <fix>3d</fix>
</trkpt>
<trkpt lat="40.0713749" lon="-105.229789">
  <ele>1583.0</ele>
  <time>2026-08-28T17:56:14Z</time>
  <course>0.0</course>
  <speed>0.0</speed>
  <fix>3d</fix>
</trkpt>
<trkpt lat="40.0713749" lon="-105.229789">
  <ele>0.23</ele>
  <time>2026-08-28T17:56:14Z</time>
  <course>246.17</course>
  <speed>0.0</speed>
  <fix>3d</fix>
</trkpt>
<trkpt lat="40.0713749" lon="-105.229789">
  <ele>1583.0</ele>
  <time>2026-08-28T17:56:14Z</time>
  <course>0.0</course>
  <speed>0.0</speed>
  <fix>3d</fix>
</trkpt>
<trkpt lat="40.0713749" lon="-105.229789">
  <ele>0.33</ele>
  <time>2026-08-28T17:56:14Z</time>
  <course>246.17</course>
  <speed>0.0</speed>
  <fix>3d</fix>
</trkpt>
<trkpt lat="40.0713749" lon="-105.229789">
  <ele>1583.0</ele>
  <time>2026-08-28T17:56:14Z</time>
  <course>0.0</course>
  <speed>0.0</speed>
  <fix>3d</fix>
</trkpt>
<trkpt lat="40.0713749" lon="-105.229789">
  <ele>0.27</ele>
  <time>2026-08-28T17:56:14Z</time>
  <course>246.17</course>
  <speed>0.0</speed>
  <fix>3d</fix>
</trkpt>
<trkpt lat="40.0713749" lon="-105.229789">
  <ele>1583.0</ele>
  <time>2026-08-28T17:56:14Z</time>
  <course>0.0</course>
  <speed>0.0</speed>
  <fix>3d</fix>
</trkpt>
<trkpt lat="40.0713749" lon="-105.229789">
  <ele>-0.03</ele>
  <time>2026-08-28T17:56:14Z</time>
  <course>246.17</course>
  <speed>0.0</speed>
  <fix>3d</fix>
</trkpt>
<trkpt lat="40.0713749" lon="-105.229789">
  <ele>1583.0</ele>
  <time>2026-08-28T17:56:14Z</time>
  <course>0.0</course>
  <speed>0.0</speed>
  <fix>3d</fix>
</trkpt>
<trkpt lat="40.0713749" lon="-105.229789">
  <ele>0.16</ele>
  <time>2026-08-28T17:56:14Z</time>
  <course>246.17</course>
  <speed>0.0</speed>
  <fix>3d</fix>
</trkpt>
<trkpt lat="40.0713749" lon="-105.229789">
  <ele>1583.0</ele>
  <time>2026-08-28T17:56:14Z</time>
  <course>0.0</course>
  <speed>0.0</speed>
  <fix>3d</fix>
</trkpt>
<trkpt lat="40.0713749" lon="-105.229789">
  <ele>0.16</ele>
  <time>2026-08-28T17:56:14Z</time>
  <course>246.17</course>
  <speed>0.0</speed>
  <fix>3d</fix>
</trkpt>
<trkpt lat="40.0713749" lon="-105.229789">
  <ele>1583.0</ele>
  <time>2026-08-28T17:56:14Z</time>
  <course>0.0</course>
  <speed>0.0</speed>
  <fix>3d</fix>
</trkpt>
<trkpt lat="40.0713749" lon="-105.229789">
  <ele>0.11</ele>
  <time>2026-08-28T17:56:14Z</time>
  <course>246.17</course>
  <speed>0.0</speed>
  <fix>3d</fix>
</trkpt>
<trkpt lat="40.0713749" lon="-105.229789">
  <ele>1583.0</ele>
  <time>2026-08-28T17:56:14Z</time>
  <course>0.0</course>
  <speed>0.0</speed>
  <fix>3d</fix>
</trkpt>
<trkpt lat="40.0713749" lon="-105.229789">
  <ele>0.34</ele>
  <time>2026-08-28T17:56:14Z</time>
  <course>246.17</course>
  <speed>0.0</speed>
  <fix>3d</fix>
</trkpt>
<trkpt lat="40.0713749" lon="-105.229789">
  <ele>1583.0</ele>
  <time>2026-08-28T17:56:14Z</time>
  <course>0.0</course>
  <speed>0.0</speed>
  <fix>3d</fix>
</trkpt>
<trkpt lat="40.0713749" lon="-105.229789">
  <ele>-0.01</ele>
  <time>2026-08-28T17:56:14Z</time>
  <course>246.17</course>
  <speed>0.0</speed>
  <fix>3d</fix>
</trkpt>
<trkpt lat="40.0713749" lon="-105.229789">
  <ele>1583.0</ele>
  <time>2026-08-28T17:56:14Z</time>
  <course>0.0</course>
  <speed>0.0</speed>
  <fix>3d</fix>
</trkpt>
<trkpt lat="40.0713749" lon="-105.229789">
  <ele>0.16</ele>
  <time>2026-08-28T17:56:14Z</time>
  <course>246.17</course>
  <speed>0.0</speed>
  <fix>3d</fix>
</trkpt>
<trkpt lat="40.0713749" lon="-105.229789">
  <ele>1583.0</ele>
  <time>2026-08-28T17:56:14Z</time>
  <course>0.0</course>
  <speed>0.0</speed>
  <fix>3d</fix>
</trkpt>
<trkpt lat="40.0713749" lon="-105.229789">
  <ele>0.11</ele>
  <time>2026-08-28T17:56:14Z</time>
  <course>246.17</course>
  <speed>0.0</speed>
  <fix>3d</fix>
</trkpt>
<trkpt lat="40.0713749" lon="-105.229789">
  <ele>1583.0</ele>
  <time>2026-08-28T17:56:14Z</time>
  <course>0.0</course>
  <speed>0.0</speed>
  <fix>3d</fix>
</trkpt>
<trkpt lat="40.0713749" lon="-105.229789">
  <ele>0.09</ele>
  <time>2026-08-28T17:56:14Z</time>
  <course>246.17</course>
  <speed>0.0</speed>
  <fix>3d</fix>
</trkpt>
<trkpt lat="40.0713749" lon="-105.229789">
  <ele>1583.0</ele>
  <time>2026-08-28T17:56:14Z</time>
  <course>0.0</course>
  <speed>0.0</speed>
  <fix>3d</fix>
</trkpt>
<trkpt lat="40.0713749" lon="-105.229789">
  <ele>0.11</ele>
  <time>2026-08-28T17:56:14Z</time>
  <course>246.17</course>
  <speed>0.0</speed>
  <fix>3d</fix>
</trkpt>
<trkpt lat="40.0713749" lon="-105.229789">
  <ele>1583.0</ele>
  <time>2026-08-28T17:56:14Z</time>
  <course>0.0</course>
  <speed>0.0</speed>
  <fix>3d</fix>
</trkpt>
<trkpt lat="40.0713749" lon="-105.229789">
  <ele>0.06</ele>
  <time>2026-08-28T17:56:14Z</time>
  <course>246.17</course>
  <speed>0.0</speed>
  <fix>3d</fix>
</trkpt>
<trkpt lat="40.0713749" lon="-105.229789">
  <ele>1583.0</ele>
  <time>2026-08-28T17:56:14Z</time>
  <course>0.0</course>
  <speed>0.0</speed>
  <fix>3d</fix>
</trkpt>
<trkpt lat="40.0713749" lon="-105.229789">
  <ele>0.17</ele>
  <time>2026-08-28T17:56:14Z</time>
  <course>246.17</course>
  <speed>0.0</speed>
  <fix>3d</fix>
</trkpt>
<trkpt lat="40.0713749" lon="-105.229789">
  <ele>1583.0</ele>
  <time>2026-08-28T17:56:14Z</time>
  <course>0.0</course>
  <speed>0.0</speed>
  <fix>3d</fix>
</trkpt>
<trkpt lat="40.0713749" lon="-105.229789">
  <ele>0.06</ele>
  <time>2026-08-28T17:56:14Z</time>
  <course>246.17</course>
  <speed>0.0</speed>
  <fix>3d</fix>
</trkpt>
<trkpt lat="40.0713749" lon="-105.229789">
  <ele>1583.0</ele>
  <time>2026-08-28T17:56:14Z</time>
  <course>0.0</course>
  <speed>0.0</speed>
  <fix>3d</fix>
</trkpt>
<trkpt lat="40.0713749" lon="-105.229789">
  <ele>0.02</ele>
  <time>2026-08-28T17:56:14Z</time>
  <course>246.17</course>
  <speed>0.0</speed>
  <fix>3d</fix>
</trkpt>
<trkpt lat="40.0713749" lon="-105.229789">
  <ele>1583.0</ele>
  <time>2026-08-28T17:56:14Z</time>
  <course>0.0</course>
  <speed>0.0</speed>
  <fix>3d</fix>
</trkpt>
<trkpt lat="40.0713749" lon="-105.229789">
  <ele>-0.15</ele>
  <time>2026-08-28T17:56:14Z</time>
  <course>246.17</course>
  <speed>0.0</speed>
  <fix>3d</fix>
</trkpt>
<trkpt lat="40.0713749" lon="-105.229789">
  <ele>1583.0</ele>
  <time>2026-08-28T17:56:14Z</time>
  <course>0.0</course>
  <speed>0.0</speed>
  <fix>3d</fix>
</trkpt>
<trkpt lat="40.0713749" lon="-105.229789">
  <ele>0.15</ele>
  <time>2026-08-28T17:56:14Z</time>
  <course>246.17</course>
  <speed>0.0</speed>
  <fix>3d</fix>
</trkpt>
<trkpt lat="40.0713749" lon="-105.229789">
  <ele>1583.0</ele>
  <time>2026-08-28T17:56:14Z</time>
  <course>0.0</course>
  <speed>0.0</speed>
  <fix>3d</fix>
</trkpt>
<trkpt lat="40.0713749" lon="-105.229789">
  <ele>0.02</ele>
  <time>2026-08-28T17:56:14Z</time>
  <course>246.17</course>
  <speed>0.0</speed>
  <fix>3d</fix>
</trkpt>
<trkpt lat="40.0713749" lon="-105.229789">
  <ele>1583.0</ele>
  <time>2026-08-28T17:56:14Z</time>
  <course>0.0</course>
  <speed>0.0</speed>
  <fix>3d</fix>
</trkpt>
<trkpt lat="40.0713749" lon="-105.229789">
  <ele>-0.21</ele>
  <time>2026-08-28T17:56:14Z</time>
  <course>246.17</course>
  <speed>0.0</speed>
  <fix>3d</fix>
</trkpt>
<trkpt lat="40.0713749" lon="-105.229789">
  <ele>1583.0</ele>
  <time>2026-08-28T17:56:14Z</time>
  <course>0.0</course>
  <speed>0.0</speed>
  <fix>3d</fix>
</trkpt>
<trkpt lat="40.0713749" lon="-105.229789">
  <ele>0.0</ele>
  <time>2026-08-28T17:56:14Z</time>
  <course>246.17</course>
  <speed>0.0</speed>
  <fix>3d</fix>
</trkpt>
<trkpt lat="40.0713749" lon="-105.229789">
  <ele>1583.0</ele>
  <time>2026-08-28T17:56:14Z</time>
  <course>0.0</course>
  <speed>0.0</speed>
  <fix>3d</fix>
</trkpt>
<trkpt lat="40.0713749" lon="-105.229789">
  <ele>-0.19</ele>
  <time>2026-08-28T17:56:14Z</time>
  <course>246.17</course>
  <speed>0.0</speed>
  <fix>3d</fix>
</trkpt>
<trkpt lat="40.0713749" lon="-105.229789">
  <ele>1583.0</ele>
  <time>2026-08-28T17:56:14Z</time>
  <course>0.0</course>
  <speed>0.0</speed>
  <fix>3d</fix>
</trkpt>
<trkpt lat="40.0713749" lon="-105.229789">
  <ele>-0.19</ele>
  <time>2026-08-28T17:56:14Z</time>
  <course>246.17</course>
  <speed>0.0</speed>
  <fix>3d</fix>
</trkpt>
<trkpt lat="40.0713749" lon="-105.229789">
  <ele>1583.0</ele>
  <time>2026-08-28T17:56:14Z</time>
  <course>0.0</course>
  <speed>0.0</speed>
  <fix>3d</fix>
</trkpt>
<trkpt lat="40.0713749" lon="-105.229789">
  <ele>0.09</ele>
  <time>2026-08-28T17:56:14Z</time>
  <course>246.17</course>
  <speed>0.0</speed>
  <fix>3d</fix>
</trkpt>
<trkpt lat="40.0713749" lon="-105.229789">
  <ele>1583.0</ele>
  <time>2026-08-28T17:56:14Z</time>
  <course>0.0</course>
  <speed>0.0</speed>
  <fix>3d</fix>
</trkpt>
<trkpt lat="40.0713749" lon="-105.229789">
  <ele>-0.2</ele>
  <time>2026-08-28T17:56:14Z</time>
  <course>246.17</course>
  <speed>0.0</speed>
  <fix>3d</fix>
</trkpt>
<trkpt lat="40.0713749" lon="-105.229789">
  <ele>1583.0</ele>
  <time>2026-08-28T17:56:14Z</time>
  <course>0.0</course>
  <speed>0.0</speed>
  <fix>3d</fix>
</trkpt>
<trkpt lat="40.0713749" lon="-105.229789">
  <ele>-0.18</ele>
  <time>2026-08-28T17:56:14Z</time>
  <course>246.17</course>
  <speed>0.0</speed>
  <fix>3d</fix>
</trkpt>
<trkpt lat="40.0713749" lon="-105.229789">
  <ele>1583.0</ele>
  <time>2026-08-28T17:56:14Z</time>
  <course>0.0</course>
  <speed>0.0</speed>
  <fix>3d</fix>
</trkpt>
<trkpt lat="40.0713749" lon="-105.229789">
  <ele>0.03</ele>
  <time>2026-08-28T17:56:14Z</time>
  <course>246.16</course>
  <speed>0.0</speed>
  <fix>3d</fix>
</trkpt>
<trkpt lat="40.0713749" lon="-105.229789">
  <ele>1583.0</ele>
  <time>2026-08-28T17:56:14Z</time>
  <course>0.0</course>
  <speed>0.0</speed>
  <fix>3d</fix>
</trkpt>
<trkpt lat="40.0713749" lon="-105.229789">
  <ele>0.15</ele>
  <time>2026-08-28T17:56:14Z</time>
  <course>246.16</course>
  <speed>0.0</speed>
  <fix>3d</fix>
</trkpt>
<trkpt lat="40.0713749" lon="-105.229789">
  <ele>1583.0</ele>
  <time>2026-08-28T17:56:14Z</time>
  <course>0.0</course>
  <speed>0.0</speed>
  <fix>3d</fix>
</trkpt>
<trkpt lat="40.0713749" lon="-105.229789">
  <ele>0.01</ele>
  <time>2026-08-28T17:56:14Z</time>
  <course>246.16</course>
  <speed>0.0</speed>
  <fix>3d</fix>
</trkpt>
<trkpt lat="40.0713749" lon="-105.229789">
  <ele>1583.0</ele>
  <time>2026-08-28T17:56:14Z</time>
  <course>0.0</course>
  <speed>0.0</speed>
  <fix>3d</fix>
</trkpt>
<trkpt lat="40.0713749" lon="-105.229789">
  <ele>0.06</ele>
  <time>2026-08-28T17:56:14Z</time>
  <course>246.16</course>
  <speed>0.0</speed>
  <fix>3d</fix>
</trkpt>
<trkpt lat="40.0713749" lon="-105.229789">
  <ele>1583.0</ele>
  <time>2026-08-28T17:56:14Z</time>
  <course>0.0</course>
  <speed>0.0</speed>
  <fix>3d</fix>
</trkpt>
<trkpt lat="40.0713749" lon="-105.229789">
  <ele>0.02</ele>
  <time>2026-08-28T17:56:14Z</time>
  <course>246.16</course>
  <speed>0.0</speed>
  <fix>3d</fix>
</trkpt>
<trkpt lat="40.0713749" lon="-105.229789">
  <ele>1583.0</ele>
  <time>2026-08-28T17:56:14Z</time>
  <course>0.0</course>
  <speed>0.0</speed>
  <fix>3d</fix>
</trkpt>
<trkpt lat="40.0713749" lon="-105.229789">
  <ele>-0.11</ele>
  <time>2026-08-28T17:56:14Z</time>
  <course>246.16</course>
  <speed>0.0</speed>
  <fix>3d</fix>
</trkpt>
<trkpt lat="40.0713749" lon="-105.229789">
  <ele>1583.0</ele>
  <time>2026-08-28T17:56:14Z</time>
  <course>0.0</course>
  <speed>0.0</speed>
  <fix>3d</fix>
</trkpt>
<trkpt lat="40.0713749" lon="-105.229789">
  <ele>-0.22</ele>
  <time>2026-08-28T17:56:14Z</time>
  <course>246.16</course>
  <speed>0.0</speed>
  <fix>3d</fix>
</trkpt>
<trkpt lat="40.0713749" lon="-105.229789">
  <ele>1583.0</ele>
  <time>2026-08-28T17:56:14Z</time>
  <course>0.0</course>
  <speed>0.0</speed>
  <fix>3d</fix>
</trkpt>
<trkpt lat="40.0713749" lon="-105.229789">
  <ele>-0.13</ele>
  <time>2026-08-28T17:56:14Z</time>
  <course>246.16</course>
  <speed>0.0</speed>
  <fix>3d</fix>
</trkpt>
<trkpt lat="40.0713749" lon="-105.229789">
  <ele>1583.0</ele>
  <time>2026-08-28T17:56:14Z</time>
  <course>0.0</course>
  <speed>0.0</speed>
  <fix>3d</fix>
</trkpt>
<trkpt lat="40.0713749" lon="-105.229789">
  <ele>0.07</ele>
  <time>2026-08-28T17:56:14Z</time>
  <course>246.16</course>
  <speed>0.0</speed>
  <fix>3d</fix>
</trkpt>
<trkpt lat="40.0713749" lon="-105.229789">
  <ele>1583.0</ele>
  <time>2026-08-28T17:56:14Z</time>
  <course>0.0</course>
  <speed>0.0</speed>
  <fix>3d</fix>
</trkpt>
<trkpt lat="40.0713749" lon="-105.229789">
  <ele>-0.22</ele>
  <time>2026-08-28T17:56:14Z</time>
  <course>246.16</course>
  <speed>0.0</speed>
  <fix>3d</fix>
</trkpt>
<trkpt lat="40.0713749" lon="-105.229789">
  <ele>1583.0</ele>
  <time>2026-08-28T17:56:14Z</time>
  <course>0.0</course>
  <speed>0.0</speed>
  <fix>3d</fix>
</trkpt>
<trkpt lat="40.0713749" lon="-105.229789">
  <ele>0.05</ele>
  <time>2026-08-28T17:56:14Z</time>
  <course>246.16</course>
  <speed>0.0</speed>
  <fix>3d</fix>
</trkpt>
<trkpt lat="40.0713749" lon="-105.229789">
  <ele>1583.0</ele>
  <time>2026-08-28T17:56:14Z</time>
  <course>0.0</course>
  <speed>0.0</speed>
  <fix>3d</fix>
</trkpt>
<trkpt lat="40.0713749" lon="-105.229789">
  <ele>1583.0</ele>
  <time>2026-08-28T17:56:14Z</time>
  <course>247.23</course>
  <speed>0.053851648071345036</speed>
  <fix>3d</fix>
</trkpt>
<trkpt lat="40.0713749" lon="-105.229789">
  <ele>1583.0</ele>
  <time>2026-08-28T17:56:14Z</time>
  <course>0.0</course>
  <speed>0.0</speed>
  <fix>3d</fix>
</trkpt>
<trkpt lat="40.0713749" lon="-105.229789">
  <ele>1583.0</ele>
  <time>2026-08-28T17:56:14Z</time>
  <course>247.23</course>
  <speed>0.053851648071345036</speed>
  <fix>3d</fix>
</trkpt>
<trkpt lat="40.0713749" lon="-105.229789">
  <ele>1583.0</ele>
  <time>2026-08-28T17:56:14Z</time>
  <course>0.0</course>
  <speed>0.0</speed>
  <fix>3d</fix>
</trkpt>
<trkpt lat="40.0713749" lon="-105.229789">
  <ele>1583.0</ele>
  <time>2026-08-28T17:56:14Z</time>
  <course>247.23</course>
  <speed>0.053851648071345036</speed>
  <fix>3d</fix>
</trkpt>
<trkpt lat="40.0713749" lon="-105.229789">
  <ele>1583.0</ele>
  <time>2026-08-28T17:56:14Z</time>
  <course>0.0</course>
  <speed>0.0</speed>
  <fix>3d</fix>
</trkpt>
<trkpt lat="40.0713749" lon="-105.229789">
  <ele>1583.0</ele>
  <time>2026-08-28T17:56:14Z</time>
  <course>247.23</course>
  <speed>0.053851648071345036</speed>
  <fix>3d</fix>
</trkpt>
<trkpt lat="40.0713749" lon="-105.229789">
  <ele>1583.0</ele>
  <time>2026-08-28T17:56:14Z</time>
  <course>0.0</course>
  <speed>0.0</speed>
  <fix>3d</fix>
</trkpt>
<trkpt lat="40.0713749" lon="-105.229789">
  <ele>1583.0</ele>
  <time>2026-08-28T17:56:14Z</time>
  <course>247.23</course>
  <speed>0.053851648071345036</speed>
  <fix>3d</fix>
</trkpt>
<trkpt lat="40.0713749" lon="-105.229789">
  <ele>1583.0</ele>
  <time>2026-08-28T17:56:14Z</time>
  <course>0.0</course>
  <speed>0.0</speed>
  <fix>3d</fix>
</trkpt>
<trkpt lat="40.0713749" lon="-105.229789">
  <ele>1583.0</ele>
  <time>2026-08-28T17:56:14Z</time>
  <course>247.23</course>
  <speed>0.053851648071345036</speed>
  <fix>3d</fix>
</trkpt>
<trkpt lat="40.0713749" lon="-105.229789">
  <ele>1583.0</ele>
  <time>2026-08-28T17:56:14Z</time>
  <course>0.0</course>
  <speed>0.0</speed>
  <fix>3d</fix>
</trkpt>
<trkpt lat="40.0713749" lon="-105.229789">
  <ele>1583.0</ele>
  <time>2026-08-28T17:56:14Z</time>
  <course>247.23</course>
  <speed>0.053851648071345036</speed>
  <fix>3d</fix>
</trkpt>
<trkpt lat="40.0713749" lon="-105.229789">
  <ele>1583.0</ele>
  <time>2026-08-28T17:56:14Z</time>
  <course>0.0</course>
  <speed>0.0</speed>
  <fix>3d</fix>
</trkpt>
<trkpt lat="40.0713749" lon="-105.229789">
  <ele>1583.0</ele>
  <time>2026-08-28T17:56:14Z</time>
  <course>247.23</course>
  <speed>0.053851648071345036</speed>
  <fix>3d</fix>
</trkpt>
<trkpt lat="40.0713749" lon="-105.229789">
  <ele>1583.0</ele>
  <time>2026-08-28T17:56:14Z</time>
  <course>0.0</course>
  <speed>0.0</speed>
  <fix>3d</fix>
</trkpt>
<trkpt lat="40.0713749" lon="-105.229789">
  <ele>1583.0</ele>
  <time>2026-08-28T17:56:14Z</time>
  <course>247.23</course>
  <speed>0.053851648071345036</speed>
  <fix>3d</fix>
</trkpt>
<trkpt lat="40.0713749" lon="-105.229789">
  <ele>1583.0</ele>
  <time>2026-08-28T17:56:14Z</time>
  <course>0.0</course>
  <speed>0.0</speed>
  <fix>3d</fix>
</trkpt>
<trkpt lat="40.0713749" lon="-105.229789">
  <ele>1583.0</ele>
  <time>2026-08-28T17:56:14Z</time>
  <course>247.22</course>
  <speed>0.053851648071345036</speed>
  <fix>3d</fix>
</trkpt>
<trkpt lat="40.0713749" lon="-105.229789">
  <ele>1583.0</ele>
  <time>2026-08-28T17:56:14Z</time>
  <course>0.0</course>
  <speed>0.0</speed>
  <fix>3d</fix>
</trkpt>
<trkpt lat="40.0713749" lon="-105.229789">
  <ele>1583.0</ele>
  <time>2026-08-28T17:56:14Z</time>
  <course>247.22</course>
  <speed>0.053851648071345036</speed>
  <fix>3d</fix>
</trkpt>
<trkpt lat="40.0713749" lon="-105.229789">
  <ele>1583.0</ele>
  <time>2026-08-28T17:56:14Z</time>
  <course>0.0</course>
  <speed>0.0</speed>
  <fix>3d</fix>
</trkpt>
<trkpt lat="39.655741" lon="-104.1383097">
  <ele>1566.58</ele>
  <time>2026-08-28T17:56:15Z</time>
  <course>0.0</course>
  <speed>0.0</speed>
  <fix>3d</fix>
</trkpt>
<trkpt lat="40.0713749" lon="-105.229789">
  <ele>1583.0</ele>
  <time>2026-08-28T17:56:15Z</time>
  <course>238.36</course>
  <speed>0.0</speed>
  <fix>3d</fix>
</trkpt>
<trkpt lat="40.0713749" lon="-105.229789">
  <ele>1583.0</ele>
  <time>2026-08-28T17:56:15Z</time>
  <course>0.0</course>
  <speed>0.0</speed>
  <fix>3d</fix>
</trkpt>
<trkpt lat="40.0713749" lon="-105.229789">
  <ele>1583.0</ele>
  <time>2026-08-28T17:56:15Z</time>
  <course>238.36</course>
  <speed>0.0</speed>
  <fix>3d</fix>
</trkpt>
<trkpt lat="40.0713749" lon="-105.229789">
  <ele>1583.0</ele>
  <time>2026-08-28T17:56:15Z</time>
  <course>0.0</course>
  <speed>0.0</speed>
  <fix>3d</fix>
</trkpt>
<trkpt lat="40.0713749" lon="-105.229789">
  <ele>1583.0</ele>
  <time>2026-08-28T17:56:15Z</time>
  <course>238.47</course>
  <speed>0.0</speed>
  <fix>3d</fix>
</trkpt>
<trkpt lat="40.0713749" lon="-105.229789">
  <ele>1583.0</ele>
  <time>2026-08-28T17:56:15Z</time>
  <course>0.0</course>
  <speed>0.0</speed>
  <fix>3d</fix>
</trkpt>
<trkpt lat="40.0713749" lon="-105.229789">
  <ele>1583.0</ele>
  <time>2026-08-28T17:56:15Z</time>
  <course>238.69</course>
  <speed>0.0</speed>
  <fix>3d</fix>
</trkpt>
<trkpt lat="40.0713749" lon="-105.229789">
  <ele>1583.0</ele>
  <time>2026-08-28T17:56:15Z</time>
  <course>0.0</course>
  <speed>0.0</speed>
  <fix>3d</fix>
</trkpt>
<trkpt lat="40.0713749" lon="-105.229789">
  <ele>1583.0</ele>
  <time>2026-08-28T17:56:15Z</time>
  <course>238.98</course>
  <speed>0.0</speed>
  <fix>3d</fix>
</trkpt>
<trkpt lat="40.0713749" lon="-105.229789">
  <ele>1583.0</ele>
  <time>2026-08-28T17:56:15Z</time>
  <course>0.0</course>
  <speed>0.0</speed>
  <fix>3d</fix>
</trkpt>
<trkpt lat="40.0713749" lon="-105.229789">
  <ele>1583.0</ele>
  <time>2026-08-28T17:56:15Z</time>
  <course>239.32</course>
  <speed>0.0</speed>
  <fix>3d</fix>
</trkpt>
<trkpt lat="40.0713749" lon="-105.229789">
  <ele>1583.0</ele>
  <time>2026-08-28T17:56:15Z</time>
  <course>0.0</course>
  <speed>0.0</speed>
  <fix>3d</fix>
</trkpt>
<trkpt lat="40.0713749" lon="-105.229789">
  <ele>1583.0</ele>
  <time>2026-08-28T17:56:15Z</time>
  <course>239.67</course>
  <speed>0.0</speed>
  <fix>3d</fix>
</trkpt>
<trkpt lat="40.0713749" lon="-105.229789">
  <ele>1583.0</ele>
  <time>2026-08-28T17:56:15Z</time>
  <course>0.0</course>
  <speed>0.0</speed>
  <fix>3d</fix>
</trkpt>
<trkpt lat="40.0713749" lon="-105.229789">
  <ele>1583.0</ele>
  <time>2026-08-28T17:56:15Z</time>
  <course>240.02</course>
  <speed>0.0</speed>
  <fix>3d</fix>
</trkpt>
<trkpt lat="40.0713749" lon="-105.229789">
  <ele>1583.0</ele>
  <time>2026-08-28T17:56:15Z</time>
  <course>0.0</course>
  <speed>0.0</speed>
  <fix>3d</fix>
</trkpt>
<trkpt lat="40.0713749" lon="-105.229789">
  <ele>1583.0</ele>
  <time>2026-08-28T17:56:15Z</time>
  <course>240.35</course>
  <speed>0.0</speed>
  <fix>3d</fix>
</trkpt>
<trkpt lat="40.0713749" lon="-105.229789">
  <ele>1583.0</ele>
  <time>2026-08-28T17:56:15Z</time>
  <course>0.0</course>
  <speed>0.0</speed>
  <fix>3d</fix>
</trkpt>
<trkpt lat="40.0713749" lon="-105.229789">
  <ele>1583.0</ele>
  <time>2026-08-28T17:56:15Z</time>
  <course>240.61</course>
  <speed>0.0</speed>
  <fix>3d</fix>
</trkpt>
<trkpt lat="40.0713749" lon="-105.229789">
  <ele>1583.0</ele>
  <time>2026-08-28T17:56:15Z</time>
  <course>0.0</course>
  <speed>0.0</speed>
  <fix>3d</fix>
</trkpt>
<trkpt lat="40.0713749" lon="-105.229789">
  <ele>1583.0</ele>
  <time>2026-08-28T17:56:15Z</time>
  <course>240.92</course>
  <speed>0.0</speed>
  <fix>3d</fix>
</trkpt>
<trkpt lat="40.0713749" lon="-105.229789">
  <ele>1583.0</ele>
  <time>2026-08-28T17:56:15Z</time>
  <course>0.0</course>
  <speed>0.0</speed>
  <fix>3d</fix>
</trkpt>
<trkpt lat="40.0713749" lon="-105.229789">
  <ele>1583.0</ele>
  <time>2026-08-28T17:56:15Z</time>
  <course>241.21</course>
  <speed>0.0</speed>
  <fix>3d</fix>
</trkpt>
<trkpt lat="40.0713749" lon="-105.229789">
  <ele>1583.0</ele>
  <time>2026-08-28T17:56:15Z</time>
  <course>0.0</course>
  <speed>0.0</speed>
  <fix>3d</fix>
</trkpt>
<trkpt lat="40.0713749" lon="-105.229789">
  <ele>1583.0</ele>
  <time>2026-08-28T17:56:15Z</time>
  <course>241.49</course>
  <speed>0.0</speed>
  <fix>3d</fix>
</trkpt>
<trkpt lat="40.0713749" lon="-105.229789">
  <ele>1583.0</ele>
  <time>2026-08-28T17:56:15Z</time>
  <course>0.0</course>
  <speed>0.0</speed>
  <fix>3d</fix>
</trkpt>
<trkpt lat="40.0713749" lon="-105.229789">
  <ele>1583.0</ele>
  <time>2026-08-28T17:56:15Z</time>
  <course>241.77</course>
  <speed>0.0</speed>
  <fix>3d</fix>
</trkpt>
<trkpt lat="40.0713749" lon="-105.229789">
  <ele>1583.0</ele>
  <time>2026-08-28T17:56:15Z</time>
  <course>0.0</course>
  <speed>0.0</speed>
  <fix>3d</fix>
</trkpt>
<trkpt lat="40.0713749" lon="-105.229789">
  <ele>1583.0</ele>
  <time>2026-08-28T17:56:15Z</time>
  <course>242.03</course>
  <speed>0.0</speed>
  <fix>3d</fix>
</trkpt>
<trkpt lat="40.0713749" lon="-105.229789">
  <ele>1583.0</ele>
  <time>2026-08-28T17:56:15Z</time>
  <course>0.0</course>
  <speed>0.0</speed>
  <fix>3d</fix>
</trkpt>
<trkpt lat="40.0713749" lon="-105.229789">
  <ele>1583.0</ele>
  <time>2026-08-28T17:56:15Z</time>
  <course>242.29</course>
  <speed>0.0</speed>
  <fix>3d</fix>
</trkpt>
<trkpt lat="40.0713749" lon="-105.229789">
  <ele>1583.0</ele>
  <time>2026-08-28T17:56:15Z</time>
  <course>0.0</course>
  <speed>0.0</speed>
  <fix>3d</fix>
</trkpt>
<trkpt lat="40.0713749" lon="-105.229789">
  <ele>1583.0</ele>
  <time>2026-08-28T17:56:15Z</time>
  <course>242.54</course>
  <speed>0.0</speed>
  <fix>3d</fix>
</trkpt>
<trkpt lat="40.0713749" lon="-105.229789">
  <ele>1583.0</ele>
  <time>2026-08-28T17:56:15Z</time>
  <course>0.0</course>
  <speed>0.0</speed>
  <fix>3d</fix>
</trkpt>
<trkpt lat="40.0713749" lon="-105.229789">
  <ele>1583.0</ele>
  <time>2026-08-28T17:56:15Z</time>
  <course>242.79</course>
  <speed>0.0</speed>
  <fix>3d</fix>
</trkpt>
<trkpt lat="40.0713749" lon="-105.229789">
  <ele>1583.0</ele>
  <time>2026-08-28T17:56:15Z</time>
  <course>0.0</course>
  <speed>0.0</speed>
  <fix>3d</fix>
</trkpt>
<trkpt lat="40.0713749" lon="-105.229789">
  <ele>1583.0</ele>
  <time>2026-08-28T17:56:15Z</time>
  <course>243.02</course>
  <speed>0.0</speed>
  <fix>3d</fix>
</trkpt>
<trkpt lat="40.0713749" lon="-105.229789">
  <ele>1583.0</ele>
  <time>2026-08-28T17:56:15Z</time>
  <course>0.0</course>
  <speed>0.0</speed>
  <fix>3d</fix>
</trkpt>
<trkpt lat="40.0713749" lon="-105.229789">
  <ele>1583.0</ele>
  <time>2026-08-28T17:56:15Z</time>
  <course>243.29</course>
  <speed>0.0</speed>
  <fix>3d</fix>
</trkpt>
<trkpt lat="40.0713749" lon="-105.229789">
  <ele>1583.0</ele>
  <time>2026-08-28T17:56:15Z</time>
  <course>0.0</course>
  <speed>0.0</speed>
  <fix>3d</fix>
</trkpt>
<trkpt lat="40.0713749" lon="-105.229789">
  <ele>1583.0</ele>
  <time>2026-08-28T17:56:15Z</time>
  <course>243.51</course>
  <speed>0.0</speed>
  <fix>3d</fix>
</trkpt>
<trkpt lat="40.0713749" lon="-105.229789">
  <ele>1583.0</ele>
  <time>2026-08-28T17:56:15Z</time>
  <course>0.0</course>
  <speed>0.0</speed>
  <fix>3d</fix>
</trkpt>
<trkpt lat="40.0713749" lon="-105.229789">
  <ele>1583.0</ele>
  <time>2026-08-28T17:56:15Z</time>
  <course>243.72</course>
  <speed>0.0</speed>
  <fix>3d</fix>
</trkpt>
<trkpt lat="40.0713749" lon="-105.229789">
  <ele>1583.0</ele>
  <time>2026-08-28T17:56:15Z</time>
  <course>0.0</course>
  <speed>0.0</speed>
  <fix>3d</fix>
</trkpt>
<trkpt lat="40.0713749" lon="-105.229789">
  <ele>1583.0</ele>
  <time>2026-08-28T17:56:15Z</time>
  <course>243.93</course>
  <speed>0.0</speed>
  <fix>3d</fix>
</trkpt>
<trkpt lat="40.0713749" lon="-105.229789">
  <ele>1583.0</ele>
  <time>2026-08-28T17:56:15Z</time>
  <course>0.0</course>
  <speed>0.0</speed>
  <fix>3d</fix>
</trkpt>
<trkpt lat="40.0713749" lon="-105.229789">
  <ele>1583.0</ele>
  <time>2026-08-28T17:56:15Z</time>
  <course>244.12</course>
  <speed>0.0</speed>
  <fix>3d</fix>
</trkpt>
<trkpt lat="40.0713749" lon="-105.229789">
  <ele>1583.0</ele>
  <time>2026-08-28T17:56:15Z</time>
  <course>0.0</course>
  <speed>0.0</speed>
  <fix>3d</fix>
</trkpt>
<trkpt lat="40.0713749" lon="-105.229789">
  <ele>1583.0</ele>
  <time>2026-08-28T17:56:15Z</time>
  <course>244.31</course>
  <speed>0.0</speed>
  <fix>3d</fix>
</trkpt>
<trkpt lat="40.0713749" lon="-105.229789">
  <ele>1583.0</ele>
  <time>2026-08-28T17:56:15Z</time>
  <course>0.0</course>
  <speed>0.0</speed>
  <fix>3d</fix>
</trkpt>
<trkpt lat="40.0713749" lon="-105.229789">
  <ele>1583.0</ele>
  <time>2026-08-28T17:56:15Z</time>
  <course>244.5</course>
  <speed>0.0</speed>
  <fix>3d</fix>
</trkpt>
<trkpt lat="40.0713749" lon="-105.229789">
  <ele>1583.0</ele>
  <time>2026-08-28T17:56:15Z</time>
  <course>0.0</course>
  <speed>0.0</speed>
  <fix>3d</fix>
</trkpt>
<trkpt lat="40.0713749" lon="-105.229789">
  <ele>1583.0</ele>
  <time>2026-08-28T17:56:15Z</time>
  <course>244.67</course>
  <speed>0.0</speed>
  <fix>3d</fix>
</trkpt>
<trkpt lat="40.0713749" lon="-105.229789">
  <ele>1583.0</ele>
  <time>2026-08-28T17:56:15Z</time>
  <course>0.0</course>
  <speed>0.0</speed>
  <fix>3d</fix>
</trkpt>
<trkpt lat="40.0713749" lon="-105.229789">
  <ele>1583.0</ele>
  <time>2026-08-28T17:56:15Z</time>
  <course>244.84</course>
  <speed>0.0</speed>
  <fix>3d</fix>
</trkpt>
<trkpt lat="40.0713749" lon="-105.229789">
  <ele>1583.0</ele>
  <time>2026-08-28T17:56:15Z</time>
  <course>0.0</course>
  <speed>0.0</speed>
  <fix>3d</fix>
</trkpt>
<trkpt lat="40.0713749" lon="-105.229789">
  <ele>1583.0</ele>
  <time>2026-08-28T17:56:15Z</time>
  <course>245.01</course>
  <speed>0.0</speed>
  <fix>3d</fix>
</trkpt>
<trkpt lat="40.0713749" lon="-105.229789">
  <ele>1583.0</ele>
  <time>2026-08-28T17:56:15Z</time>
  <course>0.0</course>
  <speed>0.0</speed>
  <fix>3d</fix>
</trkpt>
<trkpt lat="40.0713749" lon="-105.229789">
  <ele>1583.0</ele>
  <time>2026-08-28T17:56:15Z</time>
  <course>245.16</course>
  <speed>0.0</speed>
  <fix>3d</fix>
</trkpt>
<trkpt lat="40.0713749" lon="-105.229789">
  <ele>1583.0</ele>
  <time>2026-08-28T17:56:15Z</time>
  <course>0.0</course>
  <speed>0.0</speed>
  <fix>3d</fix>
</trkpt>
<trkpt lat="40.0713749" lon="-105.229789">
  <ele>1583.0</ele>
  <time>2026-08-28T17:56:15Z</time>
  <course>245.29</course>
  <speed>0.0</speed>
  <fix>3d</fix>
</trkpt>
<trkpt lat="40.0713749" lon="-105.229789">
  <ele>1583.0</ele>
  <time>2026-08-28T17:56:15Z</time>
  <course>0.0</course>
  <speed>0.0</speed>
  <fix>3d</fix>
</trkpt>
<trkpt lat="40.0713749" lon="-105.229789">
  <ele>1583.0</ele>
  <time>2026-08-28T17:56:15Z</time>
  <course>245.43</course>
  <speed>0.0</speed>
  <fix>3d</fix>
</trkpt>
<trkpt lat="40.0713749" lon="-105.229789">
  <ele>1583.0</ele>
  <time>2026-08-28T17:56:15Z</time>
  <course>0.0</course>
  <speed>0.0</speed>
  <fix>3d</fix>
</trkpt>
<trkpt lat="40.0713749" lon="-105.229789">
  <ele>1583.0</ele>
  <time>2026-08-28T17:56:15Z</time>
  <course>245.57</course>
  <speed>0.0</speed>
  <fix>3d</fix>
</trkpt>
<trkpt lat="40.0713749" lon="-105.229789">
  <ele>1583.0</ele>
  <time>2026-08-28T17:56:15Z</time>
  <course>0.0</course>
  <speed>0.0</speed>
  <fix>3d</fix>
</trkpt>
<trkpt lat="40.0713749" lon="-105.229789">
  <ele>1583.0</ele>
  <time>2026-08-28T17:56:15Z</time>
  <course>245.71</course>
  <speed>0.0</speed>
  <fix>3d</fix>
</trkpt>
<trkpt lat="40.0713749" lon="-105.229789">
  <ele>1583.0</ele>
  <time>2026-08-28T17:56:15Z</time>
  <course>0.0</course>
  <speed>0.0</speed>
  <fix>3d</fix>
</trkpt>
<trkpt lat="40.0713749" lon="-105.229789">
  <ele>1583.0</ele>
  <time>2026-08-28T17:56:15Z</time>
  <course>245.84</course>
  <speed>0.0</speed>
  <fix>3d</fix>
</trkpt>
<trkpt lat="40.0713749" lon="-105.229789">
  <ele>1583.0</ele>
  <time>2026-08-28T17:56:15Z</time>
  <course>0.0</course>
  <speed>0.0</speed>
  <fix>3d</fix>
</trkpt>
<trkpt lat="40.0713749" lon="-105.229789">
  <ele>1583.0</ele>
  <time>2026-08-28T17:56:15Z</time>
  <course>245.96</course>
  <speed>0.0</speed>
  <fix>3d</fix>
</trkpt>
<trkpt lat="40.0713749" lon="-105.229789">
  <ele>1583.0</ele>
  <time>2026-08-28T17:56:15Z</time>
  <course>0.0</course>
  <speed>0.0</speed>
  <fix>3d</fix>
</trkpt>
<trkpt lat="40.0713749" lon="-105.229789">
  <ele>1583.0</ele>
  <time>2026-08-28T17:56:15Z</time>
  <course>246.08</course>
  <speed>0.0</speed>
  <fix>3d</fix>
</trkpt>
<trkpt lat="40.0713749" lon="-105.229789">
  <ele>1583.0</ele>
  <time>2026-08-28T17:56:15Z</time>
  <course>0.0</course>
  <speed>0.0</speed>
  <fix>3d</fix>
</trkpt>
<trkpt lat="40.0713749" lon="-105.229789">
  <ele>1583.0</ele>
  <time>2026-08-28T17:56:15Z</time>
  <course>246.19</course>
  <speed>0.0</speed>
  <fix>3d</fix>
</trkpt>
<trkpt lat="40.0713749" lon="-105.229789">
  <ele>1583.0</ele>
  <time>2026-08-28T17:56:15Z</time>
  <course>0.0</course>
  <speed>0.0</speed>
  <fix>3d</fix>
</trkpt>
<trkpt lat="40.0713749" lon="-105.229789">
  <ele>1583.0</ele>
  <time>2026-08-28T17:56:15Z</time>
  <course>246.3</course>
  <speed>0.0</speed>
  <fix>3d</fix>
</trkpt>
<trkpt lat="40.0713749" lon="-105.229789">
  <ele>1583.0</ele>
  <time>2026-08-28T17:56:15Z</time>
  <course>0.0</course>
  <speed>0.0</speed>
  <fix>3d</fix>
</trkpt>
<trkpt lat="40.0713749" lon="-105.229789">
  <ele>1583.0</ele>
  <time>2026-08-28T17:56:15Z</time>
  <course>246.41</course>
  <speed>0.0</speed>
  <fix>3d</fix>
</trkpt>
<trkpt lat="40.0713749" lon="-105.229789">
  <ele>1583.0</ele>
  <time>2026-08-28T17:56:15Z</time>
  <course>0.0</course>
  <speed>0.0</speed>
  <fix>3d</fix>
</trkpt>
<trkpt lat="40.0713749" lon="-105.229789">
  <ele>1583.0</ele>
  <time>2026-08-28T17:56:15Z</time>
  <course>246.53</course>
  <speed>0.0</speed>
  <fix>3d</fix>
</trkpt>
<trkpt lat="40.0713749" lon="-105.229789">
  <ele>1583.0</ele>
  <time>2026-08-28T17:56:15Z</time>
  <course>0.0</course>
  <speed>0.0</speed>
  <fix>3d</fix>
</trkpt>
<trkpt lat="40.0713749" lon="-105.229789">
  <ele>1583.0</ele>
  <time>2026-08-28T17:56:15Z</time>
  <course>246.62</course>
  <speed>0.0</speed>
  <fix>3d</fix>
</trkpt>
<trkpt lat="40.0713749" lon="-105.229789">
  <ele>1583.0</ele>
  <time>2026-08-28T17:56:15Z</time>
  <course>0.0</course>
  <speed>0.0</speed>
  <fix>3d</fix>
</trkpt>
<trkpt lat="40.0713749" lon="-105.229789">
  <ele>1583.0</ele>
  <time>2026-08-28T17:56:15Z</time>
  <course>246.71</course>
  <speed>0.0</speed>
  <fix>3d</fix>
</trkpt>
<trkpt lat="40.0713749" lon="-105.229789">
  <ele>1583.0</ele>
  <time>2026-08-28T17:56:15Z</time>
  <course>0.0</course>
  <speed>0.0</speed>
  <fix>3d</fix>
</trkpt>
<trkpt lat="40.0713749" lon="-105.229789">
  <ele>1583.0</ele>
  <time>2026-08-28T17:56:15Z</time>
  <course>246.8</course>
  <speed>0.0</speed>
  <fix>3d</fix>
</trkpt>
<trkpt lat="40.0713749" lon="-105.229789">
  <ele>1583.0</ele>
  <time>2026-08-28T17:56:15Z</time>
  <course>0.0</course>
  <speed>0.0</speed>
  <fix>3d</fix>
</trkpt>
<trkpt lat="40.0713749" lon="-105.229789">
  <ele>1583.0</ele>
  <time>2026-08-28T17:56:15Z</time>
  <course>246.88</course>
  <speed>0.0</speed>
  <fix>3d</fix>
</trkpt>
<trkpt lat="40.0713749" lon="-105.229789">
  <ele>1583.0</ele>
  <time>2026-08-28T17:56:15Z</time>
  <course>0.0</course>
  <speed>0.0</speed>
  <fix>3d</fix>
</trkpt>
<trkpt lat="40.0713749" lon="-105.229789">
  <ele>1583.0</ele>
  <time>2026-08-28T17:56:15Z</time>
  <course>246.96</course>
  <speed>0.0</speed>
  <fix>3d</fix>
</trkpt>
<trkpt lat="40.0713749" lon="-105.229789">
  <ele>1583.0</ele>
  <time>2026-08-28T17:56:15Z</time>
  <course>0.0</course>
  <speed>0.0</speed>
  <fix>3d</fix>
</trkpt>
<trkpt lat="40.0713749" lon="-105.229789">
  <ele>1583.0</ele>
  <time>2026-08-28T17:56:15Z</time>
  <course>247.04</course>
  <speed>0.0</speed>
  <fix>3d</fix>
</trkpt>
<trkpt lat="40.0713749" lon="-105.229789">
  <ele>1583.0</ele>
  <time>2026-08-28T17:56:15Z</time>
  <course>0.0</course>
  <speed>0.0</speed>
  <fix>3d</fix>
</trkpt>
<trkpt lat="40.0713749" lon="-105.229789">
  <ele>1583.0</ele>
  <time>2026-08-28T17:56:15Z</time>
  <course>247.11</course>
  <speed>0.0</speed>
  <fix>3d</fix>
</trkpt>
<trkpt lat="40.0713749" lon="-105.229789">
  <ele>1583.0</ele>
  <time>2026-08-28T17:56:15Z</time>
  <course>0.0</course>
  <speed>0.0</speed>
  <fix>3d</fix>
</trkpt>
<trkpt lat="40.0713749" lon="-105.229789">
  <ele>1583.0</ele>
  <time>2026-08-28T17:56:15Z</time>
  <course>247.18</course>
  <speed>0.0</speed>
  <fix>3d</fix>
</trkpt>
<trkpt lat="40.0713749" lon="-105.229789">
  <ele>1583.0</ele>
  <time>2026-08-28T17:56:15Z</time>
  <course>0.0</course>
  <speed>0.0</speed>
  <fix>3d</fix>
</trkpt>
<trkpt lat="40.0713749" lon="-105.229789">
  <ele>1583.0</ele>
  <time>2026-08-28T17:56:15Z</time>
  <course>247.25</course>
  <speed>0.0</speed>
  <fix>3d</fix>
</trkpt>
<trkpt lat="40.0713749" lon="-105.229789">
  <ele>1583.0</ele>
  <time>2026-08-28T17:56:15Z</time>
  <course>0.0</course>
  <speed>0.0</speed>
  <fix>3d</fix>
</trkpt>
<trkpt lat="40.0713749" lon="-105.229789">
  <ele>1583.0</ele>
  <time>2026-08-28T17:56:15Z</time>
  <course>247.31</course>
  <speed>0.0</speed>
  <fix>3d</fix>
</trkpt>
<trkpt lat="40.0713749" lon="-105.229789">
  <ele>1583.0</ele>
  <time>2026-08-28T17:56:15Z</time>
  <course>0.0</course>
  <speed>0.0</speed>
  <fix>3d</fix>
</trkpt>
<trkpt lat="40.0713749" lon="-105.229789">
  <ele>1583.0</ele>
  <time>2026-08-28T17:56:15Z</time>
  <course>247.36</course>
  <speed>0.0</speed>
  <fix>3d</fix>
</trkpt>
<trkpt lat="40.0713749" lon="-105.229789">
  <ele>1583.0</ele>
  <time>2026-08-28T17:56:15Z</time>
  <course>0.0</course>
  <speed>0.0</speed>
  <fix>3d</fix>
</trkpt>
<trkpt lat="40.0713749" lon="-105.229789">
  <ele>1583.0</ele>
  <time>2026-08-28T17:56:15Z</time>
  <course>247.42</course>
  <speed>0.0</speed>
  <fix>3d</fix>
</trkpt>
<trkpt lat="40.0713749" lon="-105.229789">
  <ele>1583.0</ele>
  <time>2026-08-28T17:56:15Z</time>
  <course>0.0</course>
  <speed>0.0</speed>
  <fix>3d</fix>
</trkpt>
<trkpt lat="40.0713749" lon="-105.229789">
  <ele>1583.0</ele>
  <time>2026-08-28T17:56:15Z</time>
  <course>247.47</course>
  <speed>0.0</speed>
  <fix>3d</fix>
</trkpt>
<trkpt lat="40.0713749" lon="-105.229789">
  <ele>1583.0</ele>
  <time>2026-08-28T17:56:15Z</time>
  <course>0.0</course>
  <speed>0.0</speed>
  <fix>3d</fix>
</trkpt>
<trkpt lat="40.0713749" lon="-105.229789">
  <ele>1583.0</ele>
  <time>2026-08-28T17:56:15Z</time>
  <course>247.53</course>
  <speed>0.0</speed>
  <fix>3d</fix>
</trkpt>
<trkpt lat="40.0713749" lon="-105.229789">
  <ele>1583.0</ele>
  <time>2026-08-28T17:56:15Z</time>
  <course>0.0</course>
  <speed>0.0</speed>
  <fix>3d</fix>
</trkpt>
<trkpt lat="40.0713749" lon="-105.229789">
  <ele>1583.0</ele>
  <time>2026-08-28T17:56:15Z</time>
  <course>247.58</course>
  <speed>0.0</speed>
  <fix>3d</fix>
</trkpt>
<trkpt lat="40.0713749" lon="-105.229789">
  <ele>1583.0</ele>
  <time>2026-08-28T17:56:15Z</time>
  <course>0.0</course>
  <speed>0.0</speed>
  <fix>3d</fix>
</trkpt>
<trkpt lat="40.0713749" lon="-105.229789">
  <ele>1583.0</ele>
  <time>2026-08-28T17:56:15Z</time>
  <course>247.63</course>
  <speed>0.0</speed>
  <fix>3d</fix>
</trkpt>
<trkpt lat="40.0713749" lon="-105.229789">
  <ele>1583.0</ele>
  <time>2026-08-28T17:56:15Z</time>
  <course>0.0</course>
  <speed>0.0</speed>
  <fix>3d</fix>
</trkpt>
<trkpt lat="40.0713749" lon="-105.229789">
  <ele>1583.0</ele>
  <time>2026-08-28T17:56:15Z</time>
  <course>247.67</course>
  <speed>0.0</speed>
  <fix>3d</fix>
</trkpt>
<trkpt lat="40.0713749" lon="-105.229789">
  <ele>1583.0</ele>
  <time>2026-08-28T17:56:15Z</time>
  <course>0.0</course>
  <speed>0.0</speed>
  <fix>3d</fix>
</trkpt>
<trkpt lat="40.0713749" lon="-105.229789">
  <ele>1583.0</ele>
  <time>2026-08-28T17:56:15Z</time>
  <course>247.72</course>
  <speed>0.0</speed>
  <fix>3d</fix>
</trkpt>
<trkpt lat="40.0713749" lon="-105.229789">
  <ele>1583.0</ele>
  <time>2026-08-28T17:56:15Z</time>
  <course>0.0</course>
  <speed>0.0</speed>
  <fix>3d</fix>
</trkpt>
<trkpt lat="40.0713749" lon="-105.229789">
  <ele>1583.0</ele>
  <time>2026-08-28T17:56:15Z</time>
  <course>247.76</course>
  <speed>0.0</speed>
  <fix>3d</fix>
</trkpt>
<trkpt lat="40.0713749" lon="-105.229789">
  <ele>1583.0</ele>
  <time>2026-08-28T17:56:15Z</time>
  <course>0.0</course>
  <speed>0.0</speed>
  <fix>3d</fix>
</trkpt>
<trkpt lat="40.0713749" lon="-105.229789">
  <ele>1583.0</ele>
  <time>2026-08-28T17:56:15Z</time>
  <course>247.81</course>
  <speed>0.0</speed>
  <fix>3d</fix>
</trkpt>
<trkpt lat="40.0713749" lon="-105.229789">
  <ele>1583.0</ele>
  <time>2026-08-28T17:56:15Z</time>
  <course>0.0</course>
  <speed>0.0</speed>
  <fix>3d</fix>
</trkpt>
<trkpt lat="40.0713749" lon="-105.229789">
  <ele>1583.0</ele>
  <time>2026-08-28T17:56:15Z</time>
  <course>247.84</course>
  <speed>0.0</speed>
  <fix>3d</fix>
</trkpt>
<trkpt lat="40.0713749" lon="-105.229789">
  <ele>1583.0</ele>
  <time>2026-08-28T17:56:15Z</time>
  <course>0.0</course>
  <speed>0.0</speed>
  <fix>3d</fix>
</trkpt>
<trkpt lat="40.0713749" lon="-105.229789">
  <ele>1583.0</ele>
  <time>2026-08-28T17:56:15Z</time>
  <course>247.88</course>
  <speed>0.0</speed>
  <fix>3d</fix>
</trkpt>
<trkpt lat="40.0713749" lon="-105.229789">
  <ele>1583.0</ele>
  <time>2026-08-28T17:56:15Z</time>
  <course>0.0</course>
  <speed>0.0</speed>
  <fix>3d</fix>
</trkpt>
<trkpt lat="40.0713749" lon="-105.229789">
  <ele>1583.0</ele>
  <time>2026-08-28T17:56:15Z</time>
  <course>247.91</course>
  <speed>0.0</speed>
  <fix>3d</fix>
</trkpt>
<trkpt lat="40.0713749" lon="-105.229789">
  <ele>1583.0</ele>
  <time>2026-08-28T17:56:15Z</time>
  <course>0.0</course>
  <speed>0.0</speed>
  <fix>3d</fix>
</trkpt>
<trkpt lat="40.0713749" lon="-105.229789">
  <ele>1583.0</ele>
  <time>2026-08-28T17:56:15Z</time>
  <course>247.94</course>
  <speed>0.0</speed>
  <fix>3d</fix>
</trkpt>
<trkpt lat="40.0713749" lon="-105.229789">
  <ele>1583.0</ele>
  <time>2026-08-28T17:56:15Z</time>
  <course>0.0</course>
  <speed>0.0</speed>
  <fix>3d</fix>
</trkpt>
<trkpt lat="40.0713749" lon="-105.229789">
  <ele>1583.0</ele>
  <time>2026-08-28T17:56:15Z</time>
  <course>247.97</course>
  <speed>0.0</speed>
  <fix>3d</fix>
</trkpt>
<trkpt lat="40.0713749" lon="-105.229789">
  <ele>1583.0</ele>
  <time>2026-08-28T17:56:15Z</time>
  <course>0.0</course>
  <speed>0.0</speed>
  <fix>3d</fix>
</trkpt>
<trkpt lat="40.0713749" lon="-105.229789">
  <ele>1583.0</ele>
  <time>2026-08-28T17:56:15Z</time>
  <course>248.0</course>
  <speed>0.0</speed>
  <fix>3d</fix>
</trkpt>
<trkpt lat="40.0713749" lon="-105.229789">
  <ele>1583.0</ele>
  <time>2026-08-28T17:56:15Z</time>
  <course>0.0</course>
  <speed>0.0</speed>
  <fix>3d</fix>
</trkpt>
<trkpt lat="40.0713749" lon="-105.229789">
  <ele>1583.0</ele>
  <time>2026-08-28T17:56:15Z</time>
  <course>248.03</course>
  <speed>0.0</speed>
  <fix>3d</fix>
</trkpt>
<trkpt lat="40.0713749" lon="-105.229789">
  <ele>1583.0</ele>
  <time>2026-08-28T17:56:15Z</time>
  <course>0.0</course>
  <speed>0.0</speed>
  <fix>3d</fix>
</trkpt>
<trkpt lat="40.0713749" lon="-105.229789">
  <ele>1583.0</ele>
  <time>2026-08-28T17:56:15Z</time>
  <course>248.06</course>
  <speed>0.0</speed>
  <fix>3d</fix>
</trkpt>
<trkpt lat="40.0713749" lon="-105.229789">
  <ele>1583.0</ele>
  <time>2026-08-28T17:56:15Z</time>
  <course>0.0</course>
  <speed>0.0</speed>
  <fix>3d</fix>
</trkpt>
<trkpt lat="40.0713749" lon="-105.229789">
  <ele>1583.0</ele>
  <time>2026-08-28T17:56:15Z</time>
  <course>248.08</course>
  <speed>0.0</speed>
  <fix>3d</fix>
</trkpt>
<trkpt lat="40.0713749" lon="-105.229789">
  <ele>1583.0</ele>
  <time>2026-08-28T17:56:15Z</time>
  <course>0.0</course>
  <speed>0.0</speed>
  <fix>3d</fix>
</trkpt>
<trkpt lat="40.0713749" lon="-105.229789">
  <ele>1583.0</ele>
  <time>2026-08-28T17:56:15Z</time>
  <course>248.11</course>
  <speed>0.0</speed>
  <fix>3d</fix>
</trkpt>
<trkpt lat="40.0713749" lon="-105.229789">
  <ele>1583.0</ele>
  <time>2026-08-28T17:56:15Z</time>
  <course>0.0</course>
  <speed>0.0</speed>
  <fix>3d</fix>
</trkpt>
<trkpt lat="40.0713749" lon="-105.229789">
  <ele>1583.0</ele>
  <time>2026-08-28T17:56:15Z</time>
  <course>248.12</course>
  <speed>0.0</speed>
  <fix>3d</fix>
</trkpt>
<trkpt lat="40.0713749" lon="-105.229789">
  <ele>1583.0</ele>
  <time>2026-08-28T17:56:15Z</time>
  <course>0.0</course>
  <speed>0.0</speed>
  <fix>3d</fix>
</trkpt>
<trkpt lat="40.0713749" lon="-105.229789">
  <ele>1583.0</ele>
  <time>2026-08-28T17:56:15Z</time>
  <course>248.14</course>
  <speed>0.0</speed>
  <fix>3d</fix>
</trkpt>
<trkpt lat="40.0713749" lon="-105.229789">
  <ele>1583.0</ele>
  <time>2026-08-28T17:56:15Z</time>
  <course>0.0</course>
  <speed>0.0</speed>
  <fix>3d</fix>
</trkpt>
<trkpt lat="40.0713749" lon="-105.229789">
  <ele>1583.0</ele>
  <time>2026-08-28T17:56:15Z</time>
  <course>248.16</course>
  <speed>0.0</speed>
  <fix>3d</fix>
</trkpt>
<trkpt lat="40.0713749" lon="-105.229789">
  <ele>1583.0</ele>
  <time>2026-08-28T17:56:15Z</time>
  <course>0.0</course>
  <speed>0.0</speed>
  <fix>3d</fix>
</trkpt>
<trkpt lat="40.0713749" lon="-105.229789">
  <ele>1583.0</ele>
  <time>2026-08-28T17:56:15Z</time>
  <course>248.18</course>
  <speed>0.0</speed>
  <fix>3d</fix>
</trkpt>
<trkpt lat="40.0713749" lon="-105.229789">
  <ele>1583.0</ele>
  <time>2026-08-28T17:56:15Z</time>
  <course>0.0</course>
  <speed>0.0</speed>
  <fix>3d</fix>
</trkpt>
<trkpt lat="40.0713749" lon="-105.229789">
  <ele>1583.0</ele>
  <time>2026-08-28T17:56:15Z</time>
  <course>248.2</course>
  <speed>0.0</speed>
  <fix>3d</fix>
</trkpt>
<trkpt lat="40.0713749" lon="-105.229789">
  <ele>1583.0</ele>
  <time>2026-08-28T17:56:15Z</time>
  <course>0.0</course>
  <speed>0.0</speed>
  <fix>3d</fix>
</trkpt>
<trkpt lat="40.0713749" lon="-105.229789">
  <ele>1583.0</ele>
  <time>2026-08-28T17:56:15Z</time>
  <course>248.22</course>
  <speed>0.0</speed>
  <fix>3d</fix>
</trkpt>
<trkpt lat="40.0713749" lon="-105.229789">
  <ele>1583.0</ele>
  <time>2026-08-28T17:56:15Z</time>
  <course>0.0</course>
  <speed>0.0</speed>
  <fix>3d</fix>
</trkpt>
<trkpt lat="40.0713749" lon="-105.229789">
  <ele>1583.0</ele>
  <time>2026-08-28T17:56:15Z</time>
  <course>248.23</course>
  <speed>0.0</speed>
  <fix>3d</fix>
</trkpt>
<trkpt lat="40.0713749" lon="-105.229789">
  <ele>1583.0</ele>
  <time>2026-08-28T17:56:15Z</time>
  <course>0.0</course>
  <speed>0.0</speed>
  <fix>3d</fix>
</trkpt>
<trkpt lat="40.0713749" lon="-105.229789">
  <ele>1583.0</ele>
  <time>2026-08-28T17:56:15Z</time>
  <course>248.25</course>
  <speed>0.0</speed>
  <fix>3d</fix>
</trkpt>
<trkpt lat="40.0713749" lon="-105.229789">
  <ele>1583.0</ele>
  <time>2026-08-28T17:56:15Z</time>
  <course>0.0</course>
  <speed>0.0</speed>
  <fix>3d</fix>
</trkpt>
<trkpt lat="40.0713749" lon="-105.229789">
  <ele>1583.0</ele>
  <time>2026-08-28T17:56:15Z</time>
  <course>248.26</course>
  <speed>0.0</speed>
  <fix>3d</fix>
</trkpt>
<trkpt lat="40.0713749" lon="-105.229789">
  <ele>1583.0</ele>
  <time>2026-08-28T17:56:15Z</time>
  <course>0.0</course>
  <speed>0.0</speed>
  <fix>3d</fix>
</trkpt>
<trkpt lat="40.0713749" lon="-105.229789">
  <ele>1583.0</ele>
  <time>2026-08-28T17:56:15Z</time>
  <course>248.28</course>
  <speed>0.0</speed>
  <fix>3d</fix>
</trkpt>
<trkpt lat="40.0713749" lon="-105.229789">
  <ele>1583.0</ele>
  <time>2026-08-28T17:56:15Z</time>
  <course>0.0</course>
  <speed>0.0</speed>
  <fix>3d</fix>
</trkpt>
<trkpt lat="40.0713749" lon="-105.229789">
  <ele>1583.0</ele>
  <time>2026-08-28T17:56:15Z</time>
  <course>248.29</course>
  <speed>0.0</speed>
  <fix>3d</fix>
</trkpt>
<trkpt lat="40.0713749" lon="-105.229789">
  <ele>1583.0</ele>
  <time>2026-08-28T17:56:15Z</time>
  <course>0.0</course>
  <speed>0.0</speed>
  <fix>3d</fix>
</trkpt>
<trkpt lat="40.0713749" lon="-105.229789">
  <ele>1583.0</ele>
  <time>2026-08-28T17:56:15Z</time>
  <course>248.3</course>
  <speed>0.0</speed>
  <fix>3d</fix>
</trkpt>
<trkpt lat="40.0713749" lon="-105.229789">
  <ele>1583.0</ele>
  <time>2026-08-28T17:56:15Z</time>
  <course>0.0</course>
  <speed>0.0</speed>
  <fix>3d</fix>
</trkpt>
<trkpt lat="40.0713749" lon="-105.229789">
  <ele>1583.0</ele>
  <time>2026-08-28T17:56:15Z</time>
  <course>248.31</course>
  <speed>0.0</speed>
  <fix>3d</fix>
</trkpt>
<trkpt lat="40.0713749" lon="-105.229789">
  <ele>1583.0</ele>
  <time>2026-08-28T17:56:15Z</time>
  <course>0.0</course>
  <speed>0.0</speed>
  <fix>3d</fix>
</trkpt>
<trkpt lat="40.0713749" lon="-105.229789">
  <ele>1583.0</ele>
  <time>2026-08-28T17:56:15Z</time>
  <course>248.32</course>
  <speed>0.0</speed>
  <fix>3d</fix>
</trkpt>
<trkpt lat="40.0713749" lon="-105.229789">
  <ele>1583.0</ele>
  <time>2026-08-28T17:56:15Z</time>
  <course>0.0</course>
  <speed>0.0</speed>
  <fix>3d</fix>
</trkpt>
<trkpt lat="40.0713749" lon="-105.229789">
  <ele>1583.0</ele>
  <time>2026-08-28T17:56:15Z</time>
  <course>248.33</course>
  <speed>0.0</speed>
  <fix>3d</fix>
</trkpt>
<trkpt lat="40.0713749" lon="-105.229789">
  <ele>1583.0</ele>
  <time>2026-08-28T17:56:15Z</time>
  <course>0.0</course>
  <speed>0.0</speed>
  <fix>3d</fix>
</trkpt>
<trkpt lat="40.0713749" lon="-105.229789">
  <ele>1583.0</ele>
  <time>2026-08-28T17:56:15Z</time>
  <course>248.34</course>
  <speed>0.0</speed>
  <fix>3d</fix>
</trkpt>
<trkpt lat="40.0713749" lon="-105.229789">
  <ele>1583.0</ele>
  <time>2026-08-28T17:56:15Z</time>
  <course>0.0</course>
  <speed>0.0</speed>
  <fix>3d</fix>
</trkpt>
<trkpt lat="40.0713749" lon="-105.229789">
  <ele>1583.0</ele>
  <time>2026-08-28T17:56:15Z</time>
  <course>248.35</course>
  <speed>0.0</speed>
  <fix>3d</fix>
</trkpt>
<trkpt lat="40.0713749" lon="-105.229789">
  <ele>1583.0</ele>
  <time>2026-08-28T17:56:15Z</time>
  <course>0.0</course>
  <speed>0.0</speed>
  <fix>3d</fix>
</trkpt>
<trkpt lat="40.0713749" lon="-105.229789">
  <ele>1583.0</ele>
  <time>2026-08-28T17:56:15Z</time>
  <course>248.36</course>
  <speed>0.0</speed>
  <fix>3d</fix>
</trkpt>
<trkpt lat="40.0713749" lon="-105.229789">
  <ele>1583.0</ele>
  <time>2026-08-28T17:56:15Z</time>
  <course>0.0</course>
  <speed>0.0</speed>
  <fix>3d</fix>
</trkpt>
<trkpt lat="40.0713749" lon="-105.229789">
  <ele>1583.0</ele>
  <time>2026-08-28T17:56:15Z</time>
  <course>248.36</course>
  <speed>0.0</speed>
  <fix>3d</fix>
</trkpt>
<trkpt lat="40.0713749" lon="-105.229789">
  <ele>1583.0</ele>
  <time>2026-08-28T17:56:15Z</time>
  <course>0.0</course>
  <speed>0.0</speed>
  <fix>3d</fix>
</trkpt>
<trkpt lat="40.0713749" lon="-105.229789">
  <ele>1583.0</ele>
  <time>2026-08-28T17:56:15Z</time>
  <course>248.37</course>
  <speed>0.0</speed>
  <fix>3d</fix>
</trkpt>
<trkpt lat="40.0713749" lon="-105.229789">
  <ele>1583.0</ele>
  <time>2026-08-28T17:56:15Z</time>
  <course>0.0</course>
  <speed>0.0</speed>
  <fix>3d</fix>
</trkpt>
<trkpt lat="40.0713749" lon="-105.229789">
  <ele>1583.0</ele>
  <time>2026-08-28T17:56:15Z</time>
  <course>248.38</course>
  <speed>0.0</speed>
  <fix>3d</fix>
</trkpt>
<trkpt lat="40.0713749" lon="-105.229789">
  <ele>1583.0</ele>
  <time>2026-08-28T17:56:15Z</time>
  <course>0.0</course>
  <speed>0.0</speed>
  <fix>3d</fix>
</trkpt>
<trkpt lat="40.0713749" lon="-105.229789">
  <ele>1583.0</ele>
  <time>2026-08-28T17:56:15Z</time>
  <course>248.38</course>
  <speed>0.0</speed>
  <fix>3d</fix>
</trkpt>
<trkpt lat="40.0713749" lon="-105.229789">
  <ele>1583.0</ele>
  <time>2026-08-28T17:56:15Z</time>
  <course>0.0</course>
  <speed>0.0</speed>
  <fix>3d</fix>
</trkpt>
<trkpt lat="40.0713749" lon="-105.229789">
  <ele>1583.0</ele>
  <time>2026-08-28T17:56:15Z</time>
  <course>248.38</course>
  <speed>0.0</speed>
  <fix>3d</fix>
</trkpt>
<trkpt lat="40.0713749" lon="-105.229789">
  <ele>1583.0</ele>
  <time>2026-08-28T17:56:15Z</time>
  <course>0.0</course>
  <speed>0.0</speed>
  <fix>3d</fix>
</trkpt>
<trkpt lat="40.0713749" lon="-105.229789">
  <ele>1583.0</ele>
  <time>2026-08-28T17:56:15Z</time>
  <course>248.39</course>
  <speed>0.0</speed>
  <fix>3d</fix>
</trkpt>
<trkpt lat="40.0713749" lon="-105.229789">
  <ele>1583.0</ele>
  <time>2026-08-28T17:56:15Z</time>
  <course>0.0</course>
  <speed>0.0</speed>
  <fix>3d</fix>
</trkpt>
<trkpt lat="40.0713749" lon="-105.229789">
  <ele>1583.0</ele>
  <time>2026-08-28T17:56:15Z</time>
  <course>248.39</course>
  <speed>0.0</speed>
  <fix>3d</fix>
</trkpt>
<trkpt lat="40.0713749" lon="-105.229789">
  <ele>1583.0</ele>
  <time>2026-08-28T17:56:15Z</time>
  <course>0.0</course>
  <speed>0.0</speed>
  <fix>3d</fix>
</trkpt>
<trkpt lat="40.0713749" lon="-105.229789">
  <ele>1583.0</ele>
  <time>2026-08-28T17:56:15Z</time>
  <course>248.4</course>
  <speed>0.0</speed>
  <fix>3d</fix>
</trkpt>
<trkpt lat="40.0713749" lon="-105.229789">
  <ele>1583.0</ele>
  <time>2026-08-28T17:56:15Z</time>
  <course>0.0</course>
  <speed>0.0</speed>
  <fix>3d</fix>
</trkpt>
<trkpt lat="40.0713749" lon="-105.229789">
  <ele>1583.0</ele>
  <time>2026-08-28T17:56:15Z</time>
  <course>248.4</course>
  <speed>0.0</speed>
  <fix>3d</fix>
</trkpt>
<trkpt lat="40.0713749" lon="-105.229789">
  <ele>1583.0</ele>
  <time>2026-08-28T17:56:15Z</time>
  <course>0.0</course>
  <speed>0.0</speed>
  <fix>3d</fix>
</trkpt>
<trkpt lat="40.0713749" lon="-105.229789">
  <ele>1583.0</ele>
  <time>2026-08-28T17:56:15Z</time>
  <course>248.4</course>
  <speed>0.0</speed>
  <fix>3d</fix>
</trkpt>
<trkpt lat="40.0713749" lon="-105.229789">
  <ele>1583.0</ele>
  <time>2026-08-28T17:56:15Z</time>
  <course>0.0</course>
  <speed>0.0</speed>
  <fix>3d</fix>
</trkpt>
<trkpt lat="40.0713749" lon="-105.229789">
  <ele>1583.0</ele>
  <time>2026-08-28T17:56:15Z</time>
  <course>248.4</course>
  <speed>0.0</speed>
  <fix>3d</fix>
</trkpt>
<trkpt lat="40.0713749" lon="-105.229789">
  <ele>1583.0</ele>
  <time>2026-08-28T17:56:15Z</time>
  <course>0.0</course>
  <speed>0.0</speed>
  <fix>3d</fix>
</trkpt>
<trkpt lat="40.0713749" lon="-105.229789">
  <ele>1583.0</ele>
  <time>2026-08-28T17:56:15Z</time>
  <course>248.41</course>
  <speed>0.0</speed>
  <fix>3d</fix>
</trkpt>
<trkpt lat="40.0713749" lon="-105.229789">
  <ele>1583.0</ele>
  <time>2026-08-28T17:56:15Z</time>
  <course>0.0</course>
  <speed>0.0</speed>
  <fix>3d</fix>
</trkpt>
<trkpt lat="40.0713749" lon="-105.229789">
  <ele>1583.0</ele>
  <time>2026-08-28T17:56:15Z</time>
  <course>248.41</course>
  <speed>0.0</speed>
  <fix>3d</fix>
</trkpt>
<trkpt lat="40.0713749" lon="-105.229789">
  <ele>1583.0</ele>
  <time>2026-08-28T17:56:15Z</time>
  <course>0.0</course>
  <speed>0.0</speed>
  <fix>3d</fix>
</trkpt>
<trkpt lat="40.0713749" lon="-105.229789">
  <ele>1583.0</ele>
  <time>2026-08-28T17:56:15Z</time>
  <course>248.41</course>
  <speed>0.0</speed>
  <fix>3d</fix>
</trkpt>
<trkpt lat="40.0713749" lon="-105.229789">
  <ele>1583.0</ele>
  <time>2026-08-28T17:56:15Z</time>
  <course>0.0</course>
  <speed>0.0</speed>
  <fix>3d</fix>
</trkpt>
<trkpt lat="40.0713749" lon="-105.229789">
  <ele>1583.0</ele>
  <time>2026-08-28T17:56:15Z</time>
  <course>248.41</course>
  <speed>0.0</speed>
  <fix>3d</fix>
</trkpt>
<trkpt lat="40.0713749" lon="-105.229789">
  <ele>1583.0</ele>
  <time>2026-08-28T17:56:15Z</time>
  <course>0.0</course>
  <speed>0.0</speed>
  <fix>3d</fix>
</trkpt>
<trkpt lat="40.0713749" lon="-105.229789">
  <ele>1583.0</ele>
  <time>2026-08-28T17:56:15Z</time>
  <course>248.41</course>
  <speed>0.0</speed>
  <fix>3d</fix>
</trkpt>
<trkpt lat="40.0713749" lon="-105.229789">
  <ele>1583.0</ele>
  <time>2026-08-28T17:56:15Z</time>
  <course>0.0</course>
  <speed>0.0</speed>
  <fix>3d</fix>
</trkpt>
<trkpt lat="40.0713749" lon="-105.229789">
  <ele>1583.0</ele>
  <time>2026-08-28T17:56:15Z</time>
  <course>248.41</course>
  <speed>0.0</speed>
  <fix>3d</fix>
</trkpt>
<trkpt lat="40.0713749" lon="-105.229789">
  <ele>1583.0</ele>
  <time>2026-08-28T17:56:15Z</time>
  <course>0.0</course>
  <speed>0.0</speed>
  <fix>3d</fix>
</trkpt>
<trkpt lat="40.0713749" lon="-105.229789">
  <ele>1583.0</ele>
  <time>2026-08-28T17:56:15Z</time>
  <course>248.41</course>
  <speed>0.0</speed>
  <fix>3d</fix>
</trkpt>
<trkpt lat="40.0713749" lon="-105.229789">
  <ele>1583.0</ele>
  <time>2026-08-28T17:56:15Z</time>
  <course>0.0</course>
  <speed>0.0</speed>
  <fix>3d</fix>
</trkpt>
<trkpt lat="40.0713749" lon="-105.229789">
  <ele>1583.0</ele>
  <time>2026-08-28T17:56:15Z</time>
  <course>248.41</course>
  <speed>0.0</speed>
  <fix>3d</fix>
</trkpt>
<trkpt lat="40.0713749" lon="-105.229789">
  <ele>1583.0</ele>
  <time>2026-08-28T17:56:15Z</time>
  <course>0.0</course>
  <speed>0.0</speed>
  <fix>3d</fix>
</trkpt>
<trkpt lat="40.0713749" lon="-105.229789">
  <ele>1583.0</ele>
  <time>2026-08-28T17:56:15Z</time>
  <course>248.41</course>
  <speed>0.0</speed>
  <fix>3d</fix>
</trkpt>
<trkpt lat="40.0713749" lon="-105.229789">
  <ele>1583.0</ele>
  <time>2026-08-28T17:56:15Z</time>
  <course>0.0</course>
  <speed>0.0</speed>
  <fix>3d</fix>
</trkpt>
<trkpt lat="40.0713749" lon="-105.229789">
  <ele>1583.0</ele>
  <time>2026-08-28T17:56:15Z</time>
  <course>248.41</course>
  <speed>0.0</speed>
  <fix>3d</fix>
</trkpt>
<trkpt lat="40.0713749" lon="-105.229789">
  <ele>1583.0</ele>
  <time>2026-08-28T17:56:15Z</time>
  <course>0.0</course>
  <speed>0.0</speed>
  <fix>3d</fix>
</trkpt>
<trkpt lat="40.0713749" lon="-105.229789">
  <ele>1583.0</ele>
  <time>2026-08-28T17:56:15Z</time>
  <course>248.41</course>
  <speed>0.0</speed>
  <fix>3d</fix>
</trkpt>
<trkpt lat="40.0713749" lon="-105.229789">
  <ele>1583.0</ele>
  <time>2026-08-28T17:56:15Z</time>
  <course>0.0</course>
  <speed>0.0</speed>
  <fix>3d</fix>
</trkpt>
<trkpt lat="40.0713749" lon="-105.229789">
  <ele>1583.0</ele>
  <time>2026-08-28T17:56:15Z</time>
  <course>248.41</course>
  <speed>0.0</speed>
  <fix>3d</fix>
</trkpt>
<trkpt lat="40.0713749" lon="-105.229789">
  <ele>1583.0</ele>
  <time>2026-08-28T17:56:15Z</time>
  <course>0.0</course>
  <speed>0.0</speed>
  <fix>3d</fix>
</trkpt>
<trkpt lat="40.0713749" lon="-105.229789">
  <ele>1583.0</ele>
  <time>2026-08-28T17:56:15Z</time>
  <course>248.41</course>
  <speed>0.0</speed>
  <fix>3d</fix>
</trkpt>
<trkpt lat="40.0713749" lon="-105.229789">
  <ele>1583.0</ele>
  <time>2026-08-28T17:56:15Z</time>
  <course>0.0</course>
  <speed>0.0</speed>
  <fix>3d</fix>
</trkpt>
<trkpt lat="40.0713749" lon="-105.229789">
  <ele>1583.0</ele>
  <time>2026-08-28T17:56:15Z</time>
  <course>248.41</course>
  <speed>0.0</speed>
  <fix>3d</fix>
</trkpt>
<trkpt lat="40.0713749" lon="-105.229789">
  <ele>1583.0</ele>
  <time>2026-08-28T17:56:15Z</time>
  <course>0.0</course>
  <speed>0.0</speed>
  <fix>3d</fix>
</trkpt>
<trkpt lat="40.0713749" lon="-105.229789">
  <ele>1583.0</ele>
  <time>2026-08-28T17:56:15Z</time>
  <course>248.41</course>
  <speed>0.0</speed>
  <fix>3d</fix>
</trkpt>
<trkpt lat="40.0713749" lon="-105.229789">
  <ele>1583.0</ele>
  <time>2026-08-28T17:56:15Z</time>
  <course>0.0</course>
  <speed>0.0</speed>
  <fix>3d</fix>
</trkpt>
<trkpt lat="40.0713749" lon="-105.229789">
  <ele>1583.0</ele>
  <time>2026-08-28T17:56:15Z</time>
  <course>248.41</course>
  <speed>0.0</speed>
  <fix>3d</fix>
</trkpt>
<trkpt lat="40.0713749" lon="-105.229789">
  <ele>1583.0</ele>
  <time>2026-08-28T17:56:15Z</time>
  <course>0.0</course>
  <speed>0.0</speed>
  <fix>3d</fix>
</trkpt>
<trkpt lat="40.0713749" lon="-105.229789">
  <ele>1583.0</ele>
  <time>2026-08-28T17:56:15Z</time>
  <course>248.4</course>
  <speed>0.0</speed>
  <fix>3d</fix>
</trkpt>
<trkpt lat="40.0713749" lon="-105.229789">
  <ele>1583.0</ele>
  <time>2026-08-28T17:56:15Z</time>
  <course>0.0</course>
  <speed>0.0</speed>
  <fix>3d</fix>
</trkpt>
<trkpt lat="40.0713749" lon="-105.229789">
  <ele>1583.0</ele>
  <time>2026-08-28T17:56:15Z</time>
  <course>248.4</course>
  <speed>0.01</speed>
  <fix>3d</fix>
</trkpt>
<trkpt lat="40.0713749" lon="-105.229789">
  <ele>1583.0</ele>
  <time>2026-08-28T17:56:15Z</time>
  <course>0.0</course>
  <speed>0.0</speed>
  <fix>3d</fix>
</trkpt>
<trkpt lat="40.0713749" lon="-105.229789">
  <ele>1583.0</ele>
  <time>2026-08-28T17:56:15Z</time>
  <course>248.4</course>
  <speed>0.01</speed>
  <fix>3d</fix>
</trkpt>
<trkpt lat="40.0713749" lon="-105.229789">
  <ele>1583.0</ele>
  <time>2026-08-28T17:56:15Z</time>
  <course>0.0</course>
  <speed>0.0</speed>
  <fix>3d</fix>
</trkpt>
<trkpt lat="40.0713749" lon="-105.229789">
  <ele>1583.0</ele>
  <time>2026-08-28T17:56:15Z</time>
  <course>248.4</course>
  <speed>0.01</speed>
  <fix>3d</fix>
</trkpt>
<trkpt lat="40.0713749" lon="-105.229789">
  <ele>1583.0</ele>
  <time>2026-08-28T17:56:15Z</time>
  <course>0.0</course>
  <speed>0.0</speed>
  <fix>3d</fix>
</trkpt>
<trkpt lat="40.0713749" lon="-105.229789">
  <ele>1583.0</ele>
  <time>2026-08-28T17:56:15Z</time>
  <course>248.4</course>
  <speed>0.01</speed>
  <fix>3d</fix>
</trkpt>
<trkpt lat="40.0713749" lon="-105.229789">
  <ele>1583.0</ele>
  <time>2026-08-28T17:56:15Z</time>
  <course>0.0</course>
  <speed>0.0</speed>
  <fix>3d</fix>
</trkpt>
<trkpt lat="40.0713749" lon="-105.229789">
  <ele>1583.0</ele>
  <time>2026-08-28T17:56:15Z</time>
  <course>248.39</course>
  <speed>0.01</speed>
  <fix>3d</fix>
</trkpt>
<trkpt lat="40.0713749" lon="-105.229789">
  <ele>1583.0</ele>
  <time>2026-08-28T17:56:15Z</time>
  <course>0.0</course>
  <speed>0.0</speed>
  <fix>3d</fix>
</trkpt>
<trkpt lat="40.0713749" lon="-105.229789">
  <ele>1583.0</ele>
  <time>2026-08-28T17:56:15Z</time>
  <course>248.39</course>
  <speed>0.01</speed>
  <fix>3d</fix>
</trkpt>
<trkpt lat="40.0713749" lon="-105.229789">
  <ele>1583.0</ele>
  <time>2026-08-28T17:56:15Z</time>
  <course>0.0</course>
  <speed>0.0</speed>
  <fix>3d</fix>
</trkpt>
<trkpt lat="40.0713749" lon="-105.229789">
  <ele>1583.0</ele>
  <time>2026-08-28T17:56:15Z</time>
  <course>248.39</course>
  <speed>0.01</speed>
  <fix>3d</fix>
</trkpt>
<trkpt lat="40.0713749" lon="-105.229789">
  <ele>1583.0</ele>
  <time>2026-08-28T17:56:15Z</time>
  <course>0.0</course>
  <speed>0.0</speed>
  <fix>3d</fix>
</trkpt>
<trkpt lat="40.0713749" lon="-105.229789">
  <ele>1583.0</ele>
  <time>2026-08-28T17:56:15Z</time>
  <course>248.38</course>
  <speed>0.01</speed>
  <fix>3d</fix>
</trkpt>
<trkpt lat="40.0713749" lon="-105.229789">
  <ele>1583.0</ele>
  <time>2026-08-28T17:56:15Z</time>
  <course>0.0</course>
  <speed>0.0</speed>
  <fix>3d</fix>
</trkpt>
<trkpt lat="40.0713749" lon="-105.229789">
  <ele>1583.0</ele>
  <time>2026-08-28T17:56:15Z</time>
  <course>248.38</course>
  <speed>0.01</speed>
  <fix>3d</fix>
</trkpt>
<trkpt lat="40.0713749" lon="-105.229789">
  <ele>1583.0</ele>
  <time>2026-08-28T17:56:15Z</time>
  <course>0.0</course>
  <speed>0.0</speed>
  <fix>3d</fix>
</trkpt>
<trkpt lat="40.0713749" lon="-105.229789">
  <ele>1583.0</ele>
  <time>2026-08-28T17:56:15Z</time>
  <course>248.38</course>
  <speed>0.01</speed>
  <fix>3d</fix>
</trkpt>
<trkpt lat="40.0713749" lon="-105.229789">
  <ele>1583.0</ele>
  <time>2026-08-28T17:56:15Z</time>
  <course>0.0</course>
  <speed>0.0</speed>
  <fix>3d</fix>
</trkpt>
<trkpt lat="40.0713749" lon="-105.229789">
  <ele>1583.0</ele>
  <time>2026-08-28T17:56:15Z</time>
  <course>248.38</course>
  <speed>0.01</speed>
  <fix>3d</fix>
</trkpt>
<trkpt lat="40.0713749" lon="-105.229789">
  <ele>1583.0</ele>
  <time>2026-08-28T17:56:15Z</time>
  <course>0.0</course>
  <speed>0.0</speed>
  <fix>3d</fix>
</trkpt>
<trkpt lat="40.0713749" lon="-105.229789">
  <ele>1583.0</ele>
  <time>2026-08-28T17:56:15Z</time>
  <course>248.37</course>
  <speed>0.01</speed>
  <fix>3d</fix>
</trkpt>
<trkpt lat="40.0713749" lon="-105.229789">
  <ele>1583.0</ele>
  <time>2026-08-28T17:56:15Z</time>
  <course>0.0</course>
  <speed>0.0</speed>
  <fix>3d</fix>
</trkpt>
<trkpt lat="40.0713749" lon="-105.229789">
  <ele>1583.0</ele>
  <time>2026-08-28T17:56:15Z</time>
  <course>248.37</course>
  <speed>0.01</speed>
  <fix>3d</fix>
</trkpt>
<trkpt lat="40.0713749" lon="-105.229789">
  <ele>1583.0</ele>
  <time>2026-08-28T17:56:15Z</time>
  <course>0.0</course>
  <speed>0.0</speed>
  <fix>3d</fix>
</trkpt>
<trkpt lat="40.0713749" lon="-105.229789">
  <ele>1583.0</ele>
  <time>2026-08-28T17:56:15Z</time>
  <course>248.37</course>
  <speed>0.01</speed>
  <fix>3d</fix>
</trkpt>
<trkpt lat="40.0713749" lon="-105.229789">
  <ele>1583.0</ele>
  <time>2026-08-28T17:56:15Z</time>
  <course>0.0</course>
  <speed>0.0</speed>
  <fix>3d</fix>
</trkpt>
<trkpt lat="40.0713749" lon="-105.229789">
  <ele>1583.0</ele>
  <time>2026-08-28T17:56:15Z</time>
  <course>248.36</course>
  <speed>0.01</speed>
  <fix>3d</fix>
</trkpt>
<trkpt lat="40.0713749" lon="-105.229789">
  <ele>1583.0</ele>
  <time>2026-08-28T17:56:15Z</time>
  <course>0.0</course>
  <speed>0.0</speed>
  <fix>3d</fix>
</trkpt>
<trkpt lat="40.0713749" lon="-105.229789">
  <ele>1583.0</ele>
  <time>2026-08-28T17:56:15Z</time>
  <course>248.36</course>
  <speed>0.01</speed>
  <fix>3d</fix>
</trkpt>
<trkpt lat="40.0713749" lon="-105.229789">
  <ele>1583.0</ele>
  <time>2026-08-28T17:56:15Z</time>
  <course>0.0</course>
  <speed>0.0</speed>
  <fix>3d</fix>
</trkpt>
<trkpt lat="40.0713749" lon="-105.229789">
  <ele>1583.0</ele>
  <time>2026-08-28T17:56:15Z</time>
  <course>248.35</course>
  <speed>0.01</speed>
  <fix>3d</fix>
</trkpt>
<trkpt lat="40.0713749" lon="-105.229789">
  <ele>1583.0</ele>
  <time>2026-08-28T17:56:15Z</time>
  <course>0.0</course>
  <speed>0.0</speed>
  <fix>3d</fix>
</trkpt>
<trkpt lat="40.0713749" lon="-105.229789">
  <ele>1583.0</ele>
  <time>2026-08-28T17:56:15Z</time>
  <course>248.35</course>
  <speed>0.01</speed>
  <fix>3d</fix>
</trkpt>
<trkpt lat="40.0713749" lon="-105.229789">
  <ele>1583.0</ele>
  <time>2026-08-28T17:56:15Z</time>
  <course>0.0</course>
  <speed>0.0</speed>
  <fix>3d</fix>
</trkpt>
<trkpt lat="40.0713749" lon="-105.229789">
  <ele>1583.0</ele>
  <time>2026-08-28T17:56:15Z</time>
  <course>248.35</course>
  <speed>0.01</speed>
  <fix>3d</fix>
</trkpt>
<trkpt lat="40.0713749" lon="-105.229789">
  <ele>1583.0</ele>
  <time>2026-08-28T17:56:15Z</time>
  <course>0.0</course>
  <speed>0.0</speed>
  <fix>3d</fix>
</trkpt>
<trkpt lat="40.0713749" lon="-105.229789">
  <ele>1583.0</ele>
  <time>2026-08-28T17:56:15Z</time>
  <course>248.34</course>
  <speed>0.01</speed>
  <fix>3d</fix>
</trkpt>
<trkpt lat="40.0713749" lon="-105.229789">
  <ele>1583.0</ele>
  <time>2026-08-28T17:56:15Z</time>
  <course>0.0</course>
  <speed>0.0</speed>
  <fix>3d</fix>
</trkpt>
<trkpt lat="40.0713749" lon="-105.229789">
  <ele>1583.0</ele>
  <time>2026-08-28T17:56:15Z</time>
  <course>248.34</course>
  <speed>0.01</speed>
  <fix>3d</fix>
</trkpt>
<trkpt lat="40.0713749" lon="-105.229789">
  <ele>1583.0</ele>
  <time>2026-08-28T17:56:15Z</time>
  <course>0.0</course>
  <speed>0.0</speed>
  <fix>3d</fix>
</trkpt>
<trkpt lat="40.0713749" lon="-105.229789">
  <ele>1583.0</ele>
  <time>2026-08-28T17:56:15Z</time>
  <course>248.33</course>
  <speed>0.01</speed>
  <fix>3d</fix>
</trkpt>
<trkpt lat="40.0713749" lon="-105.229789">
  <ele>1583.0</ele>
  <time>2026-08-28T17:56:15Z</time>
  <course>0.0</course>
  <speed>0.0</speed>
  <fix>3d</fix>
</trkpt>
<trkpt lat="40.0713749" lon="-105.229789">
  <ele>1583.0</ele>
  <time>2026-08-28T17:56:15Z</time>
  <course>248.33</course>
  <speed>0.01</speed>
  <fix>3d</fix>
</trkpt>
<trkpt lat="40.0713749" lon="-105.229789">
  <ele>1583.0</ele>
  <time>2026-08-28T17:56:15Z</time>
  <course>0.0</course>
  <speed>0.0</speed>
  <fix>3d</fix>
</trkpt>
<trkpt lat="40.0713749" lon="-105.229789">
  <ele>1583.0</ele>
  <time>2026-08-28T17:56:15Z</time>
  <course>248.32</course>
  <speed>0.01</speed>
  <fix>3d</fix>
</trkpt>
<trkpt lat="40.0713749" lon="-105.229789">
  <ele>1583.0</ele>
  <time>2026-08-28T17:56:15Z</time>
  <course>0.0</course>
  <speed>0.0</speed>
  <fix>3d</fix>
</trkpt>
<trkpt lat="40.0713749" lon="-105.229789">
  <ele>1583.0</ele>
  <time>2026-08-28T17:56:15Z</time>
  <course>248.32</course>
  <speed>0.01</speed>
  <fix>3d</fix>
</trkpt>
<trkpt lat="40.0713749" lon="-105.229789">
  <ele>1583.0</ele>
  <time>2026-08-28T17:56:15Z</time>
  <course>0.0</course>
  <speed>0.0</speed>
  <fix>3d</fix>
</trkpt>
<trkpt lat="40.0713749" lon="-105.229789">
  <ele>1583.0</ele>
  <time>2026-08-28T17:56:15Z</time>
  <course>248.32</course>
  <speed>0.01</speed>
  <fix>3d</fix>
</trkpt>
<trkpt lat="40.0713749" lon="-105.229789">
  <ele>1583.0</ele>
  <time>2026-08-28T17:56:15Z</time>
  <course>0.0</course>
  <speed>0.0</speed>
  <fix>3d</fix>
</trkpt>
<trkpt lat="40.0713749" lon="-105.229789">
  <ele>1583.0</ele>
  <time>2026-08-28T17:56:15Z</time>
  <course>248.31</course>
  <speed>0.01</speed>
  <fix>3d</fix>
</trkpt>
<trkpt lat="40.0713749" lon="-105.229789">
  <ele>1583.0</ele>
  <time>2026-08-28T17:56:15Z</time>
  <course>0.0</course>
  <speed>0.0</speed>
  <fix>3d</fix>
</trkpt>
<trkpt lat="40.0713749" lon="-105.229789">
  <ele>1583.0</ele>
  <time>2026-08-28T17:56:15Z</time>
  <course>248.31</course>
  <speed>0.01</speed>
  <fix>3d</fix>
</trkpt>
<trkpt lat="40.0713749" lon="-105.229789">
  <ele>1583.0</ele>
  <time>2026-08-28T17:56:15Z</time>
  <course>0.0</course>
  <speed>0.0</speed>
  <fix>3d</fix>
</trkpt>
<trkpt lat="40.0713749" lon="-105.229789">
  <ele>1583.0</ele>
  <time>2026-08-28T17:56:15Z</time>
  <course>248.3</course>
  <speed>0.01</speed>
  <fix>3d</fix>
</trkpt>
<trkpt lat="40.0713749" lon="-105.229789">
  <ele>1583.0</ele>
  <time>2026-08-28T17:56:15Z</time>
  <course>0.0</course>
  <speed>0.0</speed>
  <fix>3d</fix>
</trkpt>
<trkpt lat="40.0713749" lon="-105.229789">
  <ele>1583.0</ele>
  <time>2026-08-28T17:56:15Z</time>
  <course>248.3</course>
  <speed>0.01</speed>
  <fix>3d</fix>
</trkpt>
<trkpt lat="40.0713749" lon="-105.229789">
  <ele>1583.0</ele>
  <time>2026-08-28T17:56:15Z</time>
  <course>0.0</course>
  <speed>0.0</speed>
  <fix>3d</fix>
</trkpt>
<trkpt lat="40.0713749" lon="-105.229789">
  <ele>1583.0</ele>
  <time>2026-08-28T17:56:15Z</time>
  <course>248.29</course>
  <speed>0.01</speed>
  <fix>3d</fix>
</trkpt>
<trkpt lat="40.0713749" lon="-105.229789">
  <ele>1583.0</ele>
  <time>2026-08-28T17:56:15Z</time>
  <course>0.0</course>
  <speed>0.0</speed>
  <fix>3d</fix>
</trkpt>
<trkpt lat="40.0713749" lon="-105.229789">
  <ele>1583.0</ele>
  <time>2026-08-28T17:56:15Z</time>
  <course>248.29</course>
  <speed>0.01</speed>
  <fix>3d</fix>
</trkpt>
<trkpt lat="40.0713749" lon="-105.229789">
  <ele>1583.0</ele>
  <time>2026-08-28T17:56:15Z</time>
  <course>0.0</course>
  <speed>0.0</speed>
  <fix>3d</fix>
</trkpt>
<trkpt lat="40.0713749" lon="-105.229789">
  <ele>1583.0</ele>
  <time>2026-08-28T17:56:15Z</time>
  <course>248.28</course>
  <speed>0.01</speed>
  <fix>3d</fix>
</trkpt>
<trkpt lat="40.0713749" lon="-105.229789">
  <ele>1583.0</ele>
  <time>2026-08-28T17:56:15Z</time>
  <course>0.0</course>
  <speed>0.0</speed>
  <fix>3d</fix>
</trkpt>
<trkpt lat="40.0713749" lon="-105.229789">
  <ele>1583.0</ele>
  <time>2026-08-28T17:56:15Z</time>
  <course>248.28</course>
  <speed>0.01</speed>
  <fix>3d</fix>
</trkpt>
<trkpt lat="40.0713749" lon="-105.229789">
  <ele>1583.0</ele>
  <time>2026-08-28T17:56:15Z</time>
  <course>0.0</course>
  <speed>0.0</speed>
  <fix>3d</fix>
</trkpt>
<trkpt lat="40.0713749" lon="-105.229789">
  <ele>1583.0</ele>
  <time>2026-08-28T17:56:15Z</time>
  <course>248.27</course>
  <speed>0.01</speed>
  <fix>3d</fix>
</trkpt>
<trkpt lat="40.0713749" lon="-105.229789">
  <ele>1583.0</ele>
  <time>2026-08-28T17:56:15Z</time>
  <course>0.0</course>
  <speed>0.0</speed>
  <fix>3d</fix>
</trkpt>
<trkpt lat="40.0713749" lon="-105.229789">
  <ele>1583.0</ele>
  <time>2026-08-28T17:56:15Z</time>
  <course>248.27</course>
  <speed>0.01</speed>
  <fix>3d</fix>
</trkpt>
<trkpt lat="40.0713749" lon="-105.229789">
  <ele>1583.0</ele>
  <time>2026-08-28T17:56:15Z</time>
  <course>0.0</course>
  <speed>0.0</speed>
  <fix>3d</fix>
</trkpt>
<trkpt lat="40.0713749" lon="-105.229789">
  <ele>1583.0</ele>
  <time>2026-08-28T17:56:15Z</time>
  <course>248.27</course>
  <speed>0.01</speed>
  <fix>3d</fix>
</trkpt>
<trkpt lat="40.0713749" lon="-105.229789">
  <ele>1583.0</ele>
  <time>2026-08-28T17:56:15Z</time>
  <course>0.0</course>
  <speed>0.0</speed>
  <fix>3d</fix>
</trkpt>
<trkpt lat="40.0713749" lon="-105.229789">
  <ele>1583.0</ele>
  <time>2026-08-28T17:56:15Z</time>
  <course>248.26</course>
  <speed>0.01</speed>
  <fix>3d</fix>
</trkpt>
<trkpt lat="40.0713749" lon="-105.229789">
  <ele>1583.0</ele>
  <time>2026-08-28T17:56:15Z</time>
  <course>0.0</course>
  <speed>0.0</speed>
  <fix>3d</fix>
</trkpt>
<trkpt lat="40.0713749" lon="-105.229789">
  <ele>1583.0</ele>
  <time>2026-08-28T17:56:15Z</time>
  <course>248.26</course>
  <speed>0.01</speed>
  <fix>3d</fix>
</trkpt>
<trkpt lat="40.0713749" lon="-105.229789">
  <ele>1583.0</ele>
  <time>2026-08-28T17:56:15Z</time>
  <course>0.0</course>
  <speed>0.0</speed>
  <fix>3d</fix>
</trkpt>
<trkpt lat="40.0713749" lon="-105.229789">
  <ele>1583.0</ele>
  <time>2026-08-28T17:56:15Z</time>
  <course>248.25</course>
  <speed>0.01</speed>
  <fix>3d</fix>
</trkpt>
<trkpt lat="40.0713749" lon="-105.229789">
  <ele>1583.0</ele>
  <time>2026-08-28T17:56:15Z</time>
  <course>0.0</course>
  <speed>0.0</speed>
  <fix>3d</fix>
</trkpt>
<trkpt lat="40.0713749" lon="-105.229789">
  <ele>1583.0</ele>
  <time>2026-08-28T17:56:15Z</time>
  <course>248.25</course>
  <speed>0.01</speed>
  <fix>3d</fix>
</trkpt>
<trkpt lat="40.0713749" lon="-105.229789">
  <ele>1583.0</ele>
  <time>2026-08-28T17:56:15Z</time>
  <course>0.0</course>
  <speed>0.0</speed>
  <fix>3d</fix>
</trkpt>
<trkpt lat="40.0713749" lon="-105.229789">
  <ele>1583.0</ele>
  <time>2026-08-28T17:56:15Z</time>
  <course>248.24</course>
  <speed>0.01</speed>
  <fix>3d</fix>
</trkpt>
<trkpt lat="40.0713749" lon="-105.229789">
  <ele>1583.0</ele>
  <time>2026-08-28T17:56:15Z</time>
  <course>0.0</course>
  <speed>0.0</speed>
  <fix>3d</fix>
</trkpt>
<trkpt lat="40.0713749" lon="-105.229789">
  <ele>1583.0</ele>
  <time>2026-08-28T17:56:15Z</time>
  <course>248.24</course>
  <speed>0.01</speed>
  <fix>3d</fix>
</trkpt>
<trkpt lat="40.0713749" lon="-105.229789">
  <ele>1583.0</ele>
  <time>2026-08-28T17:56:15Z</time>
  <course>0.0</course>
  <speed>0.0</speed>
  <fix>3d</fix>
</trkpt>
<trkpt lat="40.0713749" lon="-105.229789">
  <ele>1583.0</ele>
  <time>2026-08-28T17:56:15Z</time>
  <course>248.23</course>
  <speed>0.01</speed>
  <fix>3d</fix>
</trkpt>
<trkpt lat="40.0713749" lon="-105.229789">
  <ele>1583.0</ele>
  <time>2026-08-28T17:56:15Z</time>
  <course>0.0</course>
  <speed>0.0</speed>
  <fix>3d</fix>
</trkpt>
<trkpt lat="40.0713749" lon="-105.229789">
  <ele>1583.0</ele>
  <time>2026-08-28T17:56:15Z</time>
  <course>248.23</course>
  <speed>0.01</speed>
  <fix>3d</fix>
</trkpt>
<trkpt lat="40.0713749" lon="-105.229789">
  <ele>1583.0</ele>
  <time>2026-08-28T17:56:15Z</time>
  <course>0.0</course>
  <speed>0.0</speed>
  <fix>3d</fix>
</trkpt>
<trkpt lat="40.0713749" lon="-105.229789">
  <ele>1583.0</ele>
  <time>2026-08-28T17:56:15Z</time>
  <course>248.22</course>
  <speed>0.01</speed>
  <fix>3d</fix>
</trkpt>
<trkpt lat="40.0713749" lon="-105.229789">
  <ele>1583.0</ele>
  <time>2026-08-28T17:56:15Z</time>
  <course>0.0</course>
  <speed>0.0</speed>
  <fix>3d</fix>
</trkpt>
<trkpt lat="40.0713749" lon="-105.229789">
  <ele>1583.0</ele>
  <time>2026-08-28T17:56:15Z</time>
  <course>248.22</course>
  <speed>0.01</speed>
  <fix>3d</fix>
</trkpt>
<trkpt lat="40.0713749" lon="-105.229789">
  <ele>1583.0</ele>
  <time>2026-08-28T17:56:15Z</time>
  <course>0.0</course>
  <speed>0.0</speed>
  <fix>3d</fix>
</trkpt>
<trkpt lat="40.0713749" lon="-105.229789">
  <ele>1583.0</ele>
  <time>2026-08-28T17:56:15Z</time>
  <course>248.21</course>
  <speed>0.01</speed>
  <fix>3d</fix>
</trkpt>
<trkpt lat="40.0713749" lon="-105.229789">
  <ele>1583.0</ele>
  <time>2026-08-28T17:56:15Z</time>
  <course>0.0</course>
  <speed>0.0</speed>
  <fix>3d</fix>
</trkpt>
<trkpt lat="40.0713749" lon="-105.229789">
  <ele>1583.0</ele>
  <time>2026-08-28T17:56:15Z</time>
  <course>248.21</course>
  <speed>0.01</speed>
  <fix>3d</fix>
</trkpt>
<trkpt lat="40.0713749" lon="-105.229789">
  <ele>1583.0</ele>
  <time>2026-08-28T17:56:15Z</time>
  <course>0.0</course>
  <speed>0.0</speed>
  <fix>3d</fix>
</trkpt>
<trkpt lat="40.0713749" lon="-105.229789">
  <ele>1583.0</ele>
  <time>2026-08-28T17:56:15Z</time>
  <course>248.2</course>
  <speed>0.01</speed>
  <fix>3d</fix>
</trkpt>
<trkpt lat="40.0713749" lon="-105.229789">
  <ele>1583.0</ele>
  <time>2026-08-28T17:56:15Z</time>
  <course>0.0</course>
  <speed>0.0</speed>
  <fix>3d</fix>
</trkpt>
<trkpt lat="40.0713749" lon="-105.229789">
  <ele>1583.0</ele>
  <time>2026-08-28T17:56:15Z</time>
  <course>248.2</course>
  <speed>0.01</speed>
  <fix>3d</fix>
</trkpt>
<trkpt lat="40.0713749" lon="-105.229789">
  <ele>1583.0</ele>
  <time>2026-08-28T17:56:15Z</time>
  <course>0.0</course>
  <speed>0.0</speed>
  <fix>3d</fix>
</trkpt>
<trkpt lat="40.0713749" lon="-105.229789">
  <ele>1583.0</ele>
  <time>2026-08-28T17:56:15Z</time>
  <course>248.19</course>
  <speed>0.01</speed>
  <fix>3d</fix>
</trkpt>
<trkpt lat="40.0713749" lon="-105.229789">
  <ele>1583.0</ele>
  <time>2026-08-28T17:56:15Z</time>
  <course>0.0</course>
  <speed>0.0</speed>
  <fix>3d</fix>
</trkpt>
<trkpt lat="40.0713749" lon="-105.229789">
  <ele>1583.0</ele>
  <time>2026-08-28T17:56:15Z</time>
  <course>248.19</course>
  <speed>0.01</speed>
  <fix>3d</fix>
</trkpt>
<trkpt lat="40.0713749" lon="-105.229789">
  <ele>1583.0</ele>
  <time>2026-08-28T17:56:15Z</time>
  <course>0.0</course>
  <speed>0.0</speed>
  <fix>3d</fix>
</trkpt>
<trkpt lat="40.0713749" lon="-105.229789">
  <ele>1583.0</ele>
  <time>2026-08-28T17:56:15Z</time>
  <course>248.18</course>
  <speed>0.01</speed>
  <fix>3d</fix>
</trkpt>
<trkpt lat="40.0713749" lon="-105.229789">
  <ele>1583.0</ele>
  <time>2026-08-28T17:56:15Z</time>
  <course>0.0</course>
  <speed>0.0</speed>
  <fix>3d</fix>
</trkpt>
<trkpt lat="40.0713749" lon="-105.229789">
  <ele>1583.0</ele>
  <time>2026-08-28T17:56:15Z</time>
  <course>248.18</course>
  <speed>0.01</speed>
  <fix>3d</fix>
</trkpt>
<trkpt lat="40.0713749" lon="-105.229789">
  <ele>1583.0</ele>
  <time>2026-08-28T17:56:15Z</time>
  <course>0.0</course>
  <speed>0.0</speed>
  <fix>3d</fix>
</trkpt>
<trkpt lat="40.0713749" lon="-105.229789">
  <ele>1583.0</ele>
  <time>2026-08-28T17:56:15Z</time>
  <course>248.17</course>
  <speed>0.022360679774997897</speed>
  <fix>3d</fix>
</trkpt>
<trkpt lat="40.0713749" lon="-105.229789">
  <ele>1583.0</ele>
  <time>2026-08-28T17:56:15Z</time>
  <course>0.0</course>
  <speed>0.0</speed>
  <fix>3d</fix>
</trkpt>
<trkpt lat="40.0713749" lon="-105.229789">
  <ele>1583.0</ele>
  <time>2026-08-28T17:56:15Z</time>
  <course>248.17</course>
  <speed>0.022360679774997897</speed>
  <fix>3d</fix>
</trkpt>
<trkpt lat="40.0713749" lon="-105.229789">
  <ele>1583.0</ele>
  <time>2026-08-28T17:56:15Z</time>
  <course>0.0</course>
  <speed>0.0</speed>
  <fix>3d</fix>
</trkpt>
<trkpt lat="40.0713749" lon="-105.229789">
  <ele>1583.0</ele>
  <time>2026-08-28T17:56:15Z</time>
  <course>248.16</course>
  <speed>0.022360679774997897</speed>
  <fix>3d</fix>
</trkpt>
<trkpt lat="40.0713749" lon="-105.229789">
  <ele>1583.0</ele>
  <time>2026-08-28T17:56:15Z</time>
  <course>0.0</course>
  <speed>0.0</speed>
  <fix>3d</fix>
</trkpt>
<trkpt lat="40.0713749" lon="-105.229789">
  <ele>1583.0</ele>
  <time>2026-08-28T17:56:15Z</time>
  <course>248.16</course>
  <speed>0.022360679774997897</speed>
  <fix>3d</fix>
</trkpt>
<trkpt lat="40.0713749" lon="-105.229789">
  <ele>1583.0</ele>
  <time>2026-08-28T17:56:15Z</time>
  <course>0.0</course>
  <speed>0.0</speed>
  <fix>3d</fix>
</trkpt>
<trkpt lat="40.0713749" lon="-105.229789">
  <ele>1583.0</ele>
  <time>2026-08-28T17:56:15Z</time>
  <course>248.15</course>
  <speed>0.022360679774997897</speed>
  <fix>3d</fix>
</trkpt>
<trkpt lat="40.0713749" lon="-105.229789">
  <ele>1583.0</ele>
  <time>2026-08-28T17:56:15Z</time>
  <course>0.0</course>
  <speed>0.0</speed>
  <fix>3d</fix>
</trkpt>
<trkpt lat="40.0713749" lon="-105.229789">
  <ele>1583.0</ele>
  <time>2026-08-28T17:56:15Z</time>
  <course>248.15</course>
  <speed>0.022360679774997897</speed>
  <fix>3d</fix>
</trkpt>
<trkpt lat="40.0713749" lon="-105.229789">
  <ele>1583.0</ele>
  <time>2026-08-28T17:56:15Z</time>
  <course>0.0</course>
  <speed>0.0</speed>
  <fix>3d</fix>
</trkpt>
<trkpt lat="40.0713749" lon="-105.229789">
  <ele>1583.0</ele>
  <time>2026-08-28T17:56:15Z</time>
  <course>248.14</course>
  <speed>0.022360679774997897</speed>
  <fix>3d</fix>
</trkpt>
<trkpt lat="40.0713749" lon="-105.229789">
  <ele>1583.0</ele>
  <time>2026-08-28T17:56:15Z</time>
  <course>0.0</course>
  <speed>0.0</speed>
  <fix>3d</fix>
</trkpt>
<trkpt lat="40.0713749" lon="-105.229789">
  <ele>1583.0</ele>
  <time>2026-08-28T17:56:15Z</time>
  <course>248.14</course>
  <speed>0.022360679774997897</speed>
  <fix>3d</fix>
</trkpt>
<trkpt lat="40.0713749" lon="-105.229789">
  <ele>1583.0</ele>
  <time>2026-08-28T17:56:15Z</time>
  <course>0.0</course>
  <speed>0.0</speed>
  <fix>3d</fix>
</trkpt>
<trkpt lat="40.0713749" lon="-105.229789">
  <ele>1583.0</ele>
  <time>2026-08-28T17:56:15Z</time>
  <course>248.13</course>
  <speed>0.022360679774997897</speed>
  <fix>3d</fix>
</trkpt>
<trkpt lat="40.0713749" lon="-105.229789">
  <ele>1583.0</ele>
  <time>2026-08-28T17:56:15Z</time>
  <course>0.0</course>
  <speed>0.0</speed>
  <fix>3d</fix>
</trkpt>
<trkpt lat="40.0713749" lon="-105.229789">
  <ele>1583.0</ele>
  <time>2026-08-28T17:56:15Z</time>
  <course>248.13</course>
  <speed>0.022360679774997897</speed>
  <fix>3d</fix>
</trkpt>
<trkpt lat="40.0713749" lon="-105.229789">
  <ele>1583.0</ele>
  <time>2026-08-28T17:56:15Z</time>
  <course>0.0</course>
  <speed>0.0</speed>
  <fix>3d</fix>
</trkpt>
<trkpt lat="40.0713749" lon="-105.229789">
  <ele>1583.0</ele>
  <time>2026-08-28T17:56:15Z</time>
  <course>248.12</course>
  <speed>0.022360679774997897</speed>
  <fix>3d</fix>
</trkpt>
<trkpt lat="40.0713749" lon="-105.229789">
  <ele>1583.0</ele>
  <time>2026-08-28T17:56:15Z</time>
  <course>0.0</course>
  <speed>0.0</speed>
  <fix>3d</fix>
</trkpt>
<trkpt lat="40.0713749" lon="-105.229789">
  <ele>1583.0</ele>
  <time>2026-08-28T17:56:15Z</time>
  <course>248.12</course>
  <speed>0.022360679774997897</speed>
  <fix>3d</fix>
</trkpt>
<trkpt lat="40.0713749" lon="-105.229789">
  <ele>1583.0</ele>
  <time>2026-08-28T17:56:15Z</time>
  <course>0.0</course>
  <speed>0.0</speed>
  <fix>3d</fix>
</trkpt>
<trkpt lat="40.0713749" lon="-105.229789">
  <ele>1583.0</ele>
  <time>2026-08-28T17:56:15Z</time>
  <course>248.11</course>
  <speed>0.022360679774997897</speed>
  <fix>3d</fix>
</trkpt>
<trkpt lat="40.0713749" lon="-105.229789">
  <ele>1583.0</ele>
  <time>2026-08-28T17:56:15Z</time>
  <course>0.0</course>
  <speed>0.0</speed>
  <fix>3d</fix>
</trkpt>
<trkpt lat="40.0713749" lon="-105.229789">
  <ele>1583.0</ele>
  <time>2026-08-28T17:56:15Z</time>
  <course>248.11</course>
  <speed>0.022360679774997897</speed>
  <fix>3d</fix>
</trkpt>
<trkpt lat="40.0713749" lon="-105.229789">
  <ele>1583.0</ele>
  <time>2026-08-28T17:56:15Z</time>
  <course>0.0</course>
  <speed>0.0</speed>
  <fix>3d</fix>
</trkpt>
<trkpt lat="40.0713749" lon="-105.229789">
  <ele>1583.0</ele>
  <time>2026-08-28T17:56:15Z</time>
  <course>248.1</course>
  <speed>0.022360679774997897</speed>
  <fix>3d</fix>
</trkpt>
<trkpt lat="40.0713749" lon="-105.229789">
  <ele>1583.0</ele>
  <time>2026-08-28T17:56:15Z</time>
  <course>0.0</course>
  <speed>0.0</speed>
  <fix>3d</fix>
</trkpt>
<trkpt lat="40.0713749" lon="-105.229789">
  <ele>1583.0</ele>
  <time>2026-08-28T17:56:15Z</time>
  <course>248.1</course>
  <speed>0.022360679774997897</speed>
  <fix>3d</fix>
</trkpt>
<trkpt lat="40.0713749" lon="-105.229789">
  <ele>1583.0</ele>
  <time>2026-08-28T17:56:15Z</time>
  <course>0.0</course>
  <speed>0.0</speed>
  <fix>3d</fix>
</trkpt>
<trkpt lat="40.0713749" lon="-105.229789">
  <ele>1583.0</ele>
  <time>2026-08-28T17:56:15Z</time>
  <course>248.09</course>
  <speed>0.022360679774997897</speed>
  <fix>3d</fix>
</trkpt>
<trkpt lat="40.0713749" lon="-105.229789">
  <ele>1583.0</ele>
  <time>2026-08-28T17:56:15Z</time>
  <course>0.0</course>
  <speed>0.0</speed>
  <fix>3d</fix>
</trkpt>
<trkpt lat="40.0713749" lon="-105.229789">
  <ele>1583.0</ele>
  <time>2026-08-28T17:56:15Z</time>
  <course>248.09</course>
  <speed>0.022360679774997897</speed>
  <fix>3d</fix>
</trkpt>
<trkpt lat="40.0713749" lon="-105.229789">
  <ele>1583.0</ele>
  <time>2026-08-28T17:56:15Z</time>
  <course>0.0</course>
  <speed>0.0</speed>
  <fix>3d</fix>
</trkpt>
<trkpt lat="40.0713749" lon="-105.229789">
  <ele>1583.0</ele>
  <time>2026-08-28T17:56:15Z</time>
  <course>248.08</course>
  <speed>0.022360679774997897</speed>
  <fix>3d</fix>
</trkpt>
<trkpt lat="40.0713749" lon="-105.229789">
  <ele>1583.0</ele>
  <time>2026-08-28T17:56:15Z</time>
  <course>0.0</course>
  <speed>0.0</speed>
  <fix>3d</fix>
</trkpt>
<trkpt lat="40.0713749" lon="-105.229789">
  <ele>1583.0</ele>
  <time>2026-08-28T17:56:15Z</time>
  <course>248.08</course>
  <speed>0.022360679774997897</speed>
  <fix>3d</fix>
</trkpt>
<trkpt lat="40.0713749" lon="-105.229789">
  <ele>1583.0</ele>
  <time>2026-08-28T17:56:15Z</time>
  <course>0.0</course>
  <speed>0.0</speed>
  <fix>3d</fix>
</trkpt>
<trkpt lat="40.0713749" lon="-105.229789">
  <ele>1583.0</ele>
  <time>2026-08-28T17:56:15Z</time>
  <course>248.07</course>
  <speed>0.022360679774997897</speed>
  <fix>3d</fix>
</trkpt>
<trkpt lat="40.0713749" lon="-105.229789">
  <ele>1583.0</ele>
  <time>2026-08-28T17:56:15Z</time>
  <course>0.0</course>
  <speed>0.0</speed>
  <fix>3d</fix>
</trkpt>
<trkpt lat="40.0713749" lon="-105.229789">
  <ele>1583.0</ele>
  <time>2026-08-28T17:56:15Z</time>
  <course>248.07</course>
  <speed>0.022360679774997897</speed>
  <fix>3d</fix>
</trkpt>
<trkpt lat="40.0713749" lon="-105.229789">
  <ele>1583.0</ele>
  <time>2026-08-28T17:56:15Z</time>
  <course>0.0</course>
  <speed>0.0</speed>
  <fix>3d</fix>
</trkpt>
<trkpt lat="40.0713749" lon="-105.229789">
  <ele>1583.0</ele>
  <time>2026-08-28T17:56:15Z</time>
  <course>248.06</course>
  <speed>0.022360679774997897</speed>
  <fix>3d</fix>
</trkpt>
<trkpt lat="40.0713749" lon="-105.229789">
  <ele>1583.0</ele>
  <time>2026-08-28T17:56:15Z</time>
  <course>0.0</course>
  <speed>0.0</speed>
  <fix>3d</fix>
</trkpt>
<trkpt lat="40.0713749" lon="-105.229789">
  <ele>1583.0</ele>
  <time>2026-08-28T17:56:15Z</time>
  <course>248.06</course>
  <speed>0.022360679774997897</speed>
  <fix>3d</fix>
</trkpt>
<trkpt lat="40.0713749" lon="-105.229789">
  <ele>1583.0</ele>
  <time>2026-08-28T17:56:15Z</time>
  <course>0.0</course>
  <speed>0.0</speed>
  <fix>3d</fix>
</trkpt>
<trkpt lat="40.0713749" lon="-105.229789">
  <ele>1583.0</ele>
  <time>2026-08-28T17:56:15Z</time>
  <course>248.05</course>
  <speed>0.022360679774997897</speed>
  <fix>3d</fix>
</trkpt>
<trkpt lat="40.0713749" lon="-105.229789">
  <ele>1583.0</ele>
  <time>2026-08-28T17:56:15Z</time>
  <course>0.0</course>
  <speed>0.0</speed>
  <fix>3d</fix>
</trkpt>
<trkpt lat="40.0713749" lon="-105.229789">
  <ele>1583.0</ele>
  <time>2026-08-28T17:56:15Z</time>
  <course>248.05</course>
  <speed>0.022360679774997897</speed>
  <fix>3d</fix>
</trkpt>
<trkpt lat="40.0713749" lon="-105.229789">
  <ele>1583.0</ele>
  <time>2026-08-28T17:56:15Z</time>
  <course>0.0</course>
  <speed>0.0</speed>
  <fix>3d</fix>
</trkpt>
<trkpt lat="40.0713749" lon="-105.229789">
  <ele>1583.0</ele>
  <time>2026-08-28T17:56:15Z</time>
  <course>248.05</course>
  <speed>0.022360679774997897</speed>
  <fix>3d</fix>
</trkpt>
<trkpt lat="40.0713749" lon="-105.229789">
  <ele>1583.0</ele>
  <time>2026-08-28T17:56:15Z</time>
  <course>0.0</course>
  <speed>0.0</speed>
  <fix>3d</fix>
</trkpt>
<trkpt lat="40.0713749" lon="-105.229789">
  <ele>1583.0</ele>
  <time>2026-08-28T17:56:15Z</time>
  <course>248.04</course>
  <speed>0.022360679774997897</speed>
  <fix>3d</fix>
</trkpt>
<trkpt lat="40.0713749" lon="-105.229789">
  <ele>1583.0</ele>
  <time>2026-08-28T17:56:15Z</time>
  <course>0.0</course>
  <speed>0.0</speed>
  <fix>3d</fix>
</trkpt>
<trkpt lat="40.0713749" lon="-105.229789">
  <ele>1583.0</ele>
  <time>2026-08-28T17:56:15Z</time>
  <course>248.04</course>
  <speed>0.022360679774997897</speed>
  <fix>3d</fix>
</trkpt>
<trkpt lat="40.0713749" lon="-105.229789">
  <ele>1583.0</ele>
  <time>2026-08-28T17:56:15Z</time>
  <course>0.0</course>
  <speed>0.0</speed>
  <fix>3d</fix>
</trkpt>
<trkpt lat="40.0713749" lon="-105.229789">
  <ele>1583.0</ele>
  <time>2026-08-28T17:56:15Z</time>
  <course>248.03</course>
  <speed>0.022360679774997897</speed>
  <fix>3d</fix>
</trkpt>
<trkpt lat="40.0713749" lon="-105.229789">
  <ele>1583.0</ele>
  <time>2026-08-28T17:56:15Z</time>
  <course>0.0</course>
  <speed>0.0</speed>
  <fix>3d</fix>
</trkpt>
<trkpt lat="40.0713749" lon="-105.229789">
  <ele>1583.0</ele>
  <time>2026-08-28T17:56:15Z</time>
  <course>248.03</course>
  <speed>0.022360679774997897</speed>
  <fix>3d</fix>
</trkpt>
<trkpt lat="40.0713749" lon="-105.229789">
  <ele>1583.0</ele>
  <time>2026-08-28T17:56:15Z</time>
  <course>0.0</course>
  <speed>0.0</speed>
  <fix>3d</fix>
</trkpt>
<trkpt lat="40.0713749" lon="-105.229789">
  <ele>1583.0</ele>
  <time>2026-08-28T17:56:15Z</time>
  <course>248.02</course>
  <speed>0.022360679774997897</speed>
  <fix>3d</fix>
</trkpt>
<trkpt lat="40.0713749" lon="-105.229789">
  <ele>1583.0</ele>
  <time>2026-08-28T17:56:15Z</time>
  <course>0.0</course>
  <speed>0.0</speed>
  <fix>3d</fix>
</trkpt>
<trkpt lat="40.0713749" lon="-105.229789">
  <ele>1583.0</ele>
  <time>2026-08-28T17:56:15Z</time>
  <course>248.02</course>
  <speed>0.022360679774997897</speed>
  <fix>3d</fix>
</trkpt>
<trkpt lat="40.0713749" lon="-105.229789">
  <ele>1583.0</ele>
  <time>2026-08-28T17:56:15Z</time>
  <course>0.0</course>
  <speed>0.0</speed>
  <fix>3d</fix>
</trkpt>
<trkpt lat="40.0713749" lon="-105.229789">
  <ele>1583.0</ele>
  <time>2026-08-28T17:56:15Z</time>
  <course>248.01</course>
  <speed>0.022360679774997897</speed>
  <fix>3d</fix>
</trkpt>
<trkpt lat="40.0713749" lon="-105.229789">
  <ele>1583.0</ele>
  <time>2026-08-28T17:56:15Z</time>
  <course>0.0</course>
  <speed>0.0</speed>
  <fix>3d</fix>
</trkpt>
<trkpt lat="40.0713749" lon="-105.229789">
  <ele>1583.0</ele>
  <time>2026-08-28T17:56:15Z</time>
  <course>248.01</course>
  <speed>0.022360679774997897</speed>
  <fix>3d</fix>
</trkpt>
<trkpt lat="40.0713749" lon="-105.229789">
  <ele>1583.0</ele>
  <time>2026-08-28T17:56:15Z</time>
  <course>0.0</course>
  <speed>0.0</speed>
  <fix>3d</fix>
</trkpt>
<trkpt lat="40.0713749" lon="-105.229789">
  <ele>1583.0</ele>
  <time>2026-08-28T17:56:15Z</time>
  <course>248.0</course>
  <speed>0.022360679774997897</speed>
  <fix>3d</fix>
</trkpt>
<trkpt lat="40.0713749" lon="-105.229789">
  <ele>1583.0</ele>
  <time>2026-08-28T17:56:15Z</time>
  <course>0.0</course>
  <speed>0.0</speed>
  <fix>3d</fix>
</trkpt>
<trkpt lat="40.0713749" lon="-105.229789">
  <ele>1583.0</ele>
  <time>2026-08-28T17:56:15Z</time>
  <course>248.0</course>
  <speed>0.022360679774997897</speed>
  <fix>3d</fix>
</trkpt>
<trkpt lat="40.0713749" lon="-105.229789">
  <ele>1583.0</ele>
  <time>2026-08-28T17:56:15Z</time>
  <course>0.0</course>
  <speed>0.0</speed>
  <fix>3d</fix>
</trkpt>
<trkpt lat="40.0713749" lon="-105.229789">
  <ele>1583.0</ele>
  <time>2026-08-28T17:56:15Z</time>
  <course>247.99</course>
  <speed>0.022360679774997897</speed>
  <fix>3d</fix>
</trkpt>
<trkpt lat="40.0713749" lon="-105.229789">
  <ele>1583.0</ele>
  <time>2026-08-28T17:56:15Z</time>
  <course>0.0</course>
  <speed>0.0</speed>
  <fix>3d</fix>
</trkpt>
<trkpt lat="40.0713749" lon="-105.229789">
  <ele>1583.0</ele>
  <time>2026-08-28T17:56:15Z</time>
  <course>247.99</course>
  <speed>0.022360679774997897</speed>
  <fix>3d</fix>
</trkpt>
<trkpt lat="40.0713749" lon="-105.229789">
  <ele>1583.0</ele>
  <time>2026-08-28T17:56:15Z</time>
  <course>0.0</course>
  <speed>0.0</speed>
  <fix>3d</fix>
</trkpt>
<trkpt lat="40.0713749" lon="-105.229789">
  <ele>1583.0</ele>
  <time>2026-08-28T17:56:15Z</time>
  <course>247.99</course>
  <speed>0.022360679774997897</speed>
  <fix>3d</fix>
</trkpt>
<trkpt lat="40.0713749" lon="-105.229789">
  <ele>1583.0</ele>
  <time>2026-08-28T17:56:15Z</time>
  <course>0.0</course>
  <speed>0.0</speed>
  <fix>3d</fix>
</trkpt>
<trkpt lat="40.0713749" lon="-105.229789">
  <ele>1583.0</ele>
  <time>2026-08-28T17:56:16Z</time>
  <course>247.98</course>
  <speed>0.022360679774997897</speed>
  <fix>3d</fix>
</trkpt>
<trkpt lat="40.0713749" lon="-105.229789">
  <ele>1583.0</ele>
  <time>2026-08-28T17:56:16Z</time>
  <course>0.0</course>
  <speed>0.0</speed>
  <fix>3d</fix>
</trkpt>
<trkpt lat="40.0713749" lon="-105.229789">
  <ele>1583.0</ele>
  <time>2026-08-28T17:56:16Z</time>
  <course>247.98</course>
  <speed>0.022360679774997897</speed>
  <fix>3d</fix>
</trkpt>
<trkpt lat="40.0713749" lon="-105.229789">
  <ele>1583.0</ele>
  <time>2026-08-28T17:56:16Z</time>
  <course>0.0</course>
  <speed>0.0</speed>
  <fix>3d</fix>
</trkpt>
<trkpt lat="40.0713749" lon="-105.229789">
  <ele>1583.0</ele>
  <time>2026-08-28T17:56:16Z</time>
  <course>247.97</course>
  <speed>0.022360679774997897</speed>
  <fix>3d</fix>
</trkpt>
<trkpt lat="40.0713749" lon="-105.229789">
  <ele>1583.0</ele>
  <time>2026-08-28T17:56:16Z</time>
  <course>0.0</course>
  <speed>0.0</speed>
  <fix>3d</fix>
</trkpt>
<trkpt lat="40.0713749" lon="-105.229789">
  <ele>1583.0</ele>
  <time>2026-08-28T17:56:16Z</time>
  <course>247.97</course>
  <speed>0.022360679774997897</speed>
  <fix>3d</fix>
</trkpt>
<trkpt lat="40.0713749" lon="-105.229789">
  <ele>1583.0</ele>
  <time>2026-08-28T17:56:16Z</time>
  <course>0.0</course>
  <speed>0.0</speed>
  <fix>3d</fix>
</trkpt>
<trkpt lat="40.0713749" lon="-105.229789">
  <ele>1583.0</ele>
  <time>2026-08-28T17:56:16Z</time>
  <course>247.96</course>
  <speed>0.022360679774997897</speed>
  <fix>3d</fix>
</trkpt>
<trkpt lat="40.0713749" lon="-105.229789">
  <ele>1583.0</ele>
  <time>2026-08-28T17:56:16Z</time>
  <course>0.0</course>
  <speed>0.0</speed>
  <fix>3d</fix>
</trkpt>
<trkpt lat="40.0713749" lon="-105.229789">
  <ele>1583.0</ele>
  <time>2026-08-28T17:56:16Z</time>
  <course>247.96</course>
  <speed>0.022360679774997897</speed>
  <fix>3d</fix>
</trkpt>
<trkpt lat="40.0713749" lon="-105.229789">
  <ele>1583.0</ele>
  <time>2026-08-28T17:56:16Z</time>
  <course>0.0</course>
  <speed>0.0</speed>
  <fix>3d</fix>
</trkpt>
<trkpt lat="40.0713749" lon="-105.229789">
  <ele>1583.0</ele>
  <time>2026-08-28T17:56:16Z</time>
  <course>247.95</course>
  <speed>0.022360679774997897</speed>
  <fix>3d</fix>
</trkpt>
<trkpt lat="40.0713749" lon="-105.229789">
  <ele>1583.0</ele>
  <time>2026-08-28T17:56:16Z</time>
  <course>0.0</course>
  <speed>0.0</speed>
  <fix>3d</fix>
</trkpt>
<trkpt lat="40.0713749" lon="-105.229789">
  <ele>1583.0</ele>
  <time>2026-08-28T17:56:16Z</time>
  <course>247.95</course>
  <speed>0.022360679774997897</speed>
  <fix>3d</fix>
</trkpt>
<trkpt lat="40.0713749" lon="-105.229789">
  <ele>1583.0</ele>
  <time>2026-08-28T17:56:16Z</time>
  <course>0.0</course>
  <speed>0.0</speed>
  <fix>3d</fix>
</trkpt>
<trkpt lat="40.0713749" lon="-105.229789">
  <ele>1583.0</ele>
  <time>2026-08-28T17:56:16Z</time>
  <course>247.95</course>
  <speed>0.022360679774997897</speed>
  <fix>3d</fix>
</trkpt>
<trkpt lat="40.0713749" lon="-105.229789">
  <ele>1583.0</ele>
  <time>2026-08-28T17:56:16Z</time>
  <course>0.0</course>
  <speed>0.0</speed>
  <fix>3d</fix>
</trkpt>
<trkpt lat="40.0713749" lon="-105.229789">
  <ele>1583.0</ele>
  <time>2026-08-28T17:56:16Z</time>
  <course>247.94</course>
  <speed>0.022360679774997897</speed>
  <fix>3d</fix>
</trkpt>
<trkpt lat="40.0713749" lon="-105.229789">
  <ele>1583.0</ele>
  <time>2026-08-28T17:56:16Z</time>
  <course>0.0</course>
  <speed>0.0</speed>
  <fix>3d</fix>
</trkpt>
<trkpt lat="40.0713749" lon="-105.229789">
  <ele>1583.0</ele>
  <time>2026-08-28T17:56:16Z</time>
  <course>247.94</course>
  <speed>0.022360679774997897</speed>
  <fix>3d</fix>
</trkpt>
<trkpt lat="40.0713749" lon="-105.229789">
  <ele>1583.0</ele>
  <time>2026-08-28T17:56:16Z</time>
  <course>0.0</course>
  <speed>0.0</speed>
  <fix>3d</fix>
</trkpt>
<trkpt lat="40.0713749" lon="-105.229789">
  <ele>1583.0</ele>
  <time>2026-08-28T17:56:16Z</time>
  <course>247.93</course>
  <speed>0.022360679774997897</speed>
  <fix>3d</fix>
</trkpt>
<trkpt lat="40.0713749" lon="-105.229789">
  <ele>1583.0</ele>
  <time>2026-08-28T17:56:16Z</time>
  <course>0.0</course>
  <speed>0.0</speed>
  <fix>3d</fix>
</trkpt>
<trkpt lat="40.0713749" lon="-105.229789">
  <ele>1583.0</ele>
  <time>2026-08-28T17:56:16Z</time>
  <course>247.93</course>
  <speed>0.022360679774997897</speed>
  <fix>3d</fix>
</trkpt>
<trkpt lat="40.0713749" lon="-105.229789">
  <ele>1583.0</ele>
  <time>2026-08-28T17:56:16Z</time>
  <course>0.0</course>
  <speed>0.0</speed>
  <fix>3d</fix>
</trkpt>
<trkpt lat="40.0713749" lon="-105.229789">
  <ele>1583.0</ele>
  <time>2026-08-28T17:56:16Z</time>
  <course>247.92</course>
  <speed>0.022360679774997897</speed>
  <fix>3d</fix>
</trkpt>
<trkpt lat="40.0713749" lon="-105.229789">
  <ele>1583.0</ele>
  <time>2026-08-28T17:56:16Z</time>
  <course>0.0</course>
  <speed>0.0</speed>
  <fix>3d</fix>
</trkpt>
<trkpt lat="40.0713749" lon="-105.229789">
  <ele>1583.0</ele>
  <time>2026-08-28T17:56:16Z</time>
  <course>247.92</course>
  <speed>0.022360679774997897</speed>
  <fix>3d</fix>
</trkpt>
<trkpt lat="40.0713749" lon="-105.229789">
  <ele>1583.0</ele>
  <time>2026-08-28T17:56:16Z</time>
  <course>0.0</course>
  <speed>0.0</speed>
  <fix>3d</fix>
</trkpt>
<trkpt lat="40.0713749" lon="-105.229789">
  <ele>1583.0</ele>
  <time>2026-08-28T17:56:16Z</time>
  <course>247.92</course>
  <speed>0.022360679774997897</speed>
  <fix>3d</fix>
</trkpt>
<trkpt lat="40.0713749" lon="-105.229789">
  <ele>1583.0</ele>
  <time>2026-08-28T17:56:16Z</time>
  <course>0.0</course>
  <speed>0.0</speed>
  <fix>3d</fix>
</trkpt>
<trkpt lat="40.0713749" lon="-105.229789">
  <ele>1583.0</ele>
  <time>2026-08-28T17:56:16Z</time>
  <course>247.91</course>
  <speed>0.022360679774997897</speed>
  <fix>3d</fix>
</trkpt>
<trkpt lat="40.0713749" lon="-105.229789">
  <ele>1583.0</ele>
  <time>2026-08-28T17:56:16Z</time>
  <course>0.0</course>
  <speed>0.0</speed>
  <fix>3d</fix>
</trkpt>
<trkpt lat="40.0713749" lon="-105.229789">
  <ele>1583.0</ele>
  <time>2026-08-28T17:56:16Z</time>
  <course>247.91</course>
  <speed>0.022360679774997897</speed>
  <fix>3d</fix>
</trkpt>
<trkpt lat="40.0713749" lon="-105.229789">
  <ele>1583.0</ele>
  <time>2026-08-28T17:56:16Z</time>
  <course>0.0</course>
  <speed>0.0</speed>
  <fix>3d</fix>
</trkpt>
<trkpt lat="40.0713749" lon="-105.229789">
  <ele>1583.0</ele>
  <time>2026-08-28T17:56:16Z</time>
  <course>247.9</course>
  <speed>0.022360679774997897</speed>
  <fix>3d</fix>
</trkpt>
<trkpt lat="40.0713749" lon="-105.229789">
  <ele>1583.0</ele>
  <time>2026-08-28T17:56:16Z</time>
  <course>0.0</course>
  <speed>0.0</speed>
  <fix>3d</fix>
</trkpt>
<trkpt lat="40.0713749" lon="-105.229789">
  <ele>1583.0</ele>
  <time>2026-08-28T17:56:16Z</time>
  <course>247.9</course>
  <speed>0.022360679774997897</speed>
  <fix>3d</fix>
</trkpt>
<trkpt lat="40.0713749" lon="-105.229789">
  <ele>1583.0</ele>
  <time>2026-08-28T17:56:16Z</time>
  <course>0.0</course>
  <speed>0.0</speed>
  <fix>3d</fix>
</trkpt>
<trkpt lat="40.0713749" lon="-105.229789">
  <ele>1583.0</ele>
  <time>2026-08-28T17:56:16Z</time>
  <course>247.89</course>
  <speed>0.022360679774997897</speed>
  <fix>3d</fix>
</trkpt>
<trkpt lat="40.0713749" lon="-105.229789">
  <ele>1583.0</ele>
  <time>2026-08-28T17:56:16Z</time>
  <course>0.0</course>
  <speed>0.0</speed>
  <fix>3d</fix>
</trkpt>
<trkpt lat="40.0713749" lon="-105.229789">
  <ele>1583.0</ele>
  <time>2026-08-28T17:56:16Z</time>
  <course>247.89</course>
  <speed>0.022360679774997897</speed>
  <fix>3d</fix>
</trkpt>
<trkpt lat="40.0713749" lon="-105.229789">
  <ele>1583.0</ele>
  <time>2026-08-28T17:56:16Z</time>
  <course>0.0</course>
  <speed>0.0</speed>
  <fix>3d</fix>
</trkpt>
<trkpt lat="40.0713749" lon="-105.229789">
  <ele>1583.0</ele>
  <time>2026-08-28T17:56:16Z</time>
  <course>247.89</course>
  <speed>0.022360679774997897</speed>
  <fix>3d</fix>
</trkpt>
<trkpt lat="40.0713749" lon="-105.229789">
  <ele>1583.0</ele>
  <time>2026-08-28T17:56:16Z</time>
  <course>0.0</course>
  <speed>0.0</speed>
  <fix>3d</fix>
</trkpt>
<trkpt lat="40.0713749" lon="-105.229789">
  <ele>1583.0</ele>
  <time>2026-08-28T17:56:16Z</time>
  <course>247.88</course>
  <speed>0.0316227766016838</speed>
  <fix>3d</fix>
</trkpt>
<trkpt lat="40.0713749" lon="-105.229789">
  <ele>1583.0</ele>
  <time>2026-08-28T17:56:16Z</time>
  <course>0.0</course>
  <speed>0.0</speed>
  <fix>3d</fix>
</trkpt>
<trkpt lat="40.0713749" lon="-105.229789">
  <ele>1583.0</ele>
  <time>2026-08-28T17:56:16Z</time>
  <course>247.88</course>
  <speed>0.0316227766016838</speed>
  <fix>3d</fix>
</trkpt>
<trkpt lat="40.0713749" lon="-105.229789">
  <ele>1583.0</ele>
  <time>2026-08-28T17:56:16Z</time>
  <course>0.0</course>
  <speed>0.0</speed>
  <fix>3d</fix>
</trkpt>
<trkpt lat="40.0713749" lon="-105.229789">
  <ele>1583.0</ele>
  <time>2026-08-28T17:56:16Z</time>
  <course>247.87</course>
  <speed>0.0316227766016838</speed>
  <fix>3d</fix>
</trkpt>
<trkpt lat="40.0713749" lon="-105.229789">
  <ele>1583.0</ele>
  <time>2026-08-28T17:56:16Z</time>
  <course>0.0</course>
  <speed>0.0</speed>
  <fix>3d</fix>
</trkpt>
<trkpt lat="40.0713749" lon="-105.229789">
  <ele>1583.0</ele>
  <time>2026-08-28T17:56:16Z</time>
  <course>247.87</course>
  <speed>0.0316227766016838</speed>
  <fix>3d</fix>
</trkpt>
<trkpt lat="40.0713749" lon="-105.229789">
  <ele>1583.0</ele>
  <time>2026-08-28T17:56:16Z</time>
  <course>0.0</course>
  <speed>0.0</speed>
  <fix>3d</fix>
</trkpt>
<trkpt lat="40.0713749" lon="-105.229789">
  <ele>1583.0</ele>
  <time>2026-08-28T17:56:16Z</time>
  <course>247.87</course>
  <speed>0.0316227766016838</speed>
  <fix>3d</fix>
</trkpt>
<trkpt lat="40.0713749" lon="-105.229789">
  <ele>1583.0</ele>
  <time>2026-08-28T17:56:16Z</time>
  <course>0.0</course>
  <speed>0.0</speed>
  <fix>3d</fix>
</trkpt>
<trkpt lat="40.0713749" lon="-105.229789">
  <ele>1583.0</ele>
  <time>2026-08-28T17:56:16Z</time>
  <course>247.86</course>
  <speed>0.0316227766016838</speed>
  <fix>3d</fix>
</trkpt>
<trkpt lat="40.0713749" lon="-105.229789">
  <ele>1583.0</ele>
  <time>2026-08-28T17:56:16Z</time>
  <course>0.0</course>
  <speed>0.0</speed>
  <fix>3d</fix>
</trkpt>
<trkpt lat="40.0713749" lon="-105.229789">
  <ele>1583.0</ele>
  <time>2026-08-28T17:56:16Z</time>
  <course>247.86</course>
  <speed>0.0316227766016838</speed>
  <fix>3d</fix>
</trkpt>
<trkpt lat="40.0713749" lon="-105.229789">
  <ele>1583.0</ele>
  <time>2026-08-28T17:56:16Z</time>
  <course>0.0</course>
  <speed>0.0</speed>
  <fix>3d</fix>
</trkpt>
<trkpt lat="40.0713749" lon="-105.229789">
  <ele>1583.0</ele>
  <time>2026-08-28T17:56:16Z</time>
  <course>247.85</course>
  <speed>0.0316227766016838</speed>
  <fix>3d</fix>
</trkpt>
<trkpt lat="40.0713749" lon="-105.229789">
  <ele>1583.0</ele>
  <time>2026-08-28T17:56:16Z</time>
  <course>0.0</course>
  <speed>0.0</speed>
  <fix>3d</fix>
</trkpt>
<trkpt lat="40.0713749" lon="-105.229789">
  <ele>1583.0</ele>
  <time>2026-08-28T17:56:16Z</time>
  <course>247.85</course>
  <speed>0.0316227766016838</speed>
  <fix>3d</fix>
</trkpt>
<trkpt lat="40.0713749" lon="-105.229789">
  <ele>1583.0</ele>
  <time>2026-08-28T17:56:16Z</time>
  <course>0.0</course>
  <speed>0.0</speed>
  <fix>3d</fix>
</trkpt>
<trkpt lat="40.0713749" lon="-105.229789">
  <ele>1583.0</ele>
  <time>2026-08-28T17:56:16Z</time>
  <course>247.85</course>
  <speed>0.0316227766016838</speed>
  <fix>3d</fix>
</trkpt>
<trkpt lat="40.0713749" lon="-105.229789">
  <ele>1583.0</ele>
  <time>2026-08-28T17:56:16Z</time>
  <course>0.0</course>
  <speed>0.0</speed>
  <fix>3d</fix>
</trkpt>
<trkpt lat="40.0713749" lon="-105.229789">
  <ele>1583.0</ele>
  <time>2026-08-28T17:56:16Z</time>
  <course>247.84</course>
  <speed>0.0316227766016838</speed>
  <fix>3d</fix>
</trkpt>
<trkpt lat="40.0713749" lon="-105.229789">
  <ele>1583.0</ele>
  <time>2026-08-28T17:56:16Z</time>
  <course>0.0</course>
  <speed>0.0</speed>
  <fix>3d</fix>
</trkpt>
<trkpt lat="40.0713749" lon="-105.229789">
  <ele>1583.0</ele>
  <time>2026-08-28T17:56:16Z</time>
  <course>247.84</course>
  <speed>0.0316227766016838</speed>
  <fix>3d</fix>
</trkpt>
<trkpt lat="40.0713749" lon="-105.229789">
  <ele>1583.0</ele>
  <time>2026-08-28T17:56:16Z</time>
  <course>0.0</course>
  <speed>0.0</speed>
  <fix>3d</fix>
</trkpt>
<trkpt lat="40.0713749" lon="-105.229789">
  <ele>1583.0</ele>
  <time>2026-08-28T17:56:16Z</time>
  <course>247.83</course>
  <speed>0.0316227766016838</speed>
  <fix>3d</fix>
</trkpt>
<trkpt lat="40.0713749" lon="-105.229789">
  <ele>1583.0</ele>
  <time>2026-08-28T17:56:16Z</time>
  <course>0.0</course>
  <speed>0.0</speed>
  <fix>3d</fix>
</trkpt>
<trkpt lat="40.0713749" lon="-105.229789">
  <ele>1583.0</ele>
  <time>2026-08-28T17:56:16Z</time>
  <course>247.83</course>
  <speed>0.0316227766016838</speed>
  <fix>3d</fix>
</trkpt>
<trkpt lat="40.0713749" lon="-105.229789">
  <ele>1583.0</ele>
  <time>2026-08-28T17:56:16Z</time>
  <course>0.0</course>
  <speed>0.0</speed>
  <fix>3d</fix>
</trkpt>
<trkpt lat="40.0713749" lon="-105.229789">
  <ele>1583.0</ele>
  <time>2026-08-28T17:56:16Z</time>
  <course>247.83</course>
  <speed>0.0316227766016838</speed>
  <fix>3d</fix>
</trkpt>
<trkpt lat="40.0713749" lon="-105.229789">
  <ele>1583.0</ele>
  <time>2026-08-28T17:56:16Z</time>
  <course>0.0</course>
  <speed>0.0</speed>
  <fix>3d</fix>
</trkpt>
<trkpt lat="40.0713749" lon="-105.229789">
  <ele>1583.0</ele>
  <time>2026-08-28T17:56:16Z</time>
  <course>247.82</course>
  <speed>0.0316227766016838</speed>
  <fix>3d</fix>
</trkpt>
<trkpt lat="40.0713749" lon="-105.229789">
  <ele>1583.0</ele>
  <time>2026-08-28T17:56:16Z</time>
  <course>0.0</course>
  <speed>0.0</speed>
  <fix>3d</fix>
</trkpt>
<trkpt lat="40.0713749" lon="-105.229789">
  <ele>1583.0</ele>
  <time>2026-08-28T17:56:16Z</time>
  <course>247.82</course>
  <speed>0.0316227766016838</speed>
  <fix>3d</fix>
</trkpt>
<trkpt lat="40.0713749" lon="-105.229789">
  <ele>1583.0</ele>
  <time>2026-08-28T17:56:16Z</time>
  <course>0.0</course>
  <speed>0.0</speed>
  <fix>3d</fix>
</trkpt>
<trkpt lat="40.0713749" lon="-105.229789">
  <ele>1583.0</ele>
  <time>2026-08-28T17:56:16Z</time>
  <course>247.82</course>
  <speed>0.0316227766016838</speed>
  <fix>3d</fix>
</trkpt>
<trkpt lat="40.0713749" lon="-105.229789">
  <ele>1583.0</ele>
  <time>2026-08-28T17:56:16Z</time>
  <course>0.0</course>
  <speed>0.0</speed>
  <fix>3d</fix>
</trkpt>
<trkpt lat="40.0713749" lon="-105.229789">
  <ele>1583.0</ele>
  <time>2026-08-28T17:56:16Z</time>
  <course>247.81</course>
  <speed>0.0316227766016838</speed>
  <fix>3d</fix>
</trkpt>
<trkpt lat="40.0713749" lon="-105.229789">
  <ele>1583.0</ele>
  <time>2026-08-28T17:56:16Z</time>
  <course>0.0</course>
  <speed>0.0</speed>
  <fix>3d</fix>
</trkpt>
<trkpt lat="40.0713749" lon="-105.229789">
  <ele>1583.0</ele>
  <time>2026-08-28T17:56:16Z</time>
  <course>247.81</course>
  <speed>0.0316227766016838</speed>
  <fix>3d</fix>
</trkpt>
<trkpt lat="40.0713749" lon="-105.229789">
  <ele>1583.0</ele>
  <time>2026-08-28T17:56:16Z</time>
  <course>0.0</course>
  <speed>0.0</speed>
  <fix>3d</fix>
</trkpt>
<trkpt lat="40.0713749" lon="-105.229789">
  <ele>1583.0</ele>
  <time>2026-08-28T17:56:16Z</time>
  <course>247.8</course>
  <speed>0.0316227766016838</speed>
  <fix>3d</fix>
</trkpt>
<trkpt lat="40.0713749" lon="-105.229789">
  <ele>1583.0</ele>
  <time>2026-08-28T17:56:16Z</time>
  <course>0.0</course>
  <speed>0.0</speed>
  <fix>3d</fix>
</trkpt>
<trkpt lat="40.0713749" lon="-105.229789">
  <ele>1583.0</ele>
  <time>2026-08-28T17:56:16Z</time>
  <course>247.8</course>
  <speed>0.0316227766016838</speed>
  <fix>3d</fix>
</trkpt>
<trkpt lat="40.0713749" lon="-105.229789">
  <ele>1583.0</ele>
  <time>2026-08-28T17:56:16Z</time>
  <course>0.0</course>
  <speed>0.0</speed>
  <fix>3d</fix>
</trkpt>
<trkpt lat="40.0713749" lon="-105.229789">
  <ele>1583.0</ele>
  <time>2026-08-28T17:56:16Z</time>
  <course>247.8</course>
  <speed>0.0316227766016838</speed>
  <fix>3d</fix>
</trkpt>
<trkpt lat="40.0713749" lon="-105.229789">
  <ele>1583.0</ele>
  <time>2026-08-28T17:56:16Z</time>
  <course>0.0</course>
  <speed>0.0</speed>
  <fix>3d</fix>
</trkpt>
<trkpt lat="40.0713749" lon="-105.229789">
  <ele>1583.0</ele>
  <time>2026-08-28T17:56:16Z</time>
  <course>247.79</course>
  <speed>0.0316227766016838</speed>
  <fix>3d</fix>
</trkpt>
<trkpt lat="40.0713749" lon="-105.229789">
  <ele>1583.0</ele>
  <time>2026-08-28T17:56:16Z</time>
  <course>0.0</course>
  <speed>0.0</speed>
  <fix>3d</fix>
</trkpt>
<trkpt lat="40.0713749" lon="-105.229789">
  <ele>1583.0</ele>
  <time>2026-08-28T17:56:16Z</time>
  <course>247.79</course>
  <speed>0.0316227766016838</speed>
  <fix>3d</fix>
</trkpt>
<trkpt lat="40.0713749" lon="-105.229789">
  <ele>1583.0</ele>
  <time>2026-08-28T17:56:16Z</time>
  <course>0.0</course>
  <speed>0.0</speed>
  <fix>3d</fix>
</trkpt>
<trkpt lat="40.0713749" lon="-105.229789">
  <ele>1583.0</ele>
  <time>2026-08-28T17:56:16Z</time>
  <course>247.79</course>
  <speed>0.0316227766016838</speed>
  <fix>3d</fix>
</trkpt>
<trkpt lat="40.0713749" lon="-105.229789">
  <ele>1583.0</ele>
  <time>2026-08-28T17:56:16Z</time>
  <course>0.0</course>
  <speed>0.0</speed>
  <fix>3d</fix>
</trkpt>
<trkpt lat="40.0713749" lon="-105.229789">
  <ele>1583.0</ele>
  <time>2026-08-28T17:56:16Z</time>
  <course>247.78</course>
  <speed>0.0316227766016838</speed>
  <fix>3d</fix>
</trkpt>
<trkpt lat="40.0713749" lon="-105.229789">
  <ele>1583.0</ele>
  <time>2026-08-28T17:56:16Z</time>
  <course>0.0</course>
  <speed>0.0</speed>
  <fix>3d</fix>
</trkpt>
<trkpt lat="40.0713749" lon="-105.229789">
  <ele>1583.0</ele>
  <time>2026-08-28T17:56:16Z</time>
  <course>247.78</course>
  <speed>0.0316227766016838</speed>
  <fix>3d</fix>
</trkpt>
<trkpt lat="40.0713749" lon="-105.229789">
  <ele>1583.0</ele>
  <time>2026-08-28T17:56:16Z</time>
  <course>0.0</course>
  <speed>0.0</speed>
  <fix>3d</fix>
</trkpt>
<trkpt lat="40.0713749" lon="-105.229789">
  <ele>1583.0</ele>
  <time>2026-08-28T17:56:16Z</time>
  <course>247.78</course>
  <speed>0.0316227766016838</speed>
  <fix>3d</fix>
</trkpt>
<trkpt lat="40.0713749" lon="-105.229789">
  <ele>1583.0</ele>
  <time>2026-08-28T17:56:16Z</time>
  <course>0.0</course>
  <speed>0.0</speed>
  <fix>3d</fix>
</trkpt>
<trkpt lat="40.0713749" lon="-105.229789">
  <ele>1583.0</ele>
  <time>2026-08-28T17:56:16Z</time>
  <course>247.77</course>
  <speed>0.0316227766016838</speed>
  <fix>3d</fix>
</trkpt>
<trkpt lat="40.0713749" lon="-105.229789">
  <ele>1583.0</ele>
  <time>2026-08-28T17:56:16Z</time>
  <course>0.0</course>
  <speed>0.0</speed>
  <fix>3d</fix>
</trkpt>
<trkpt lat="40.0713749" lon="-105.229789">
  <ele>1583.0</ele>
  <time>2026-08-28T17:56:16Z</time>
  <course>247.77</course>
  <speed>0.0316227766016838</speed>
  <fix>3d</fix>
</trkpt>
<trkpt lat="40.0713749" lon="-105.229789">
  <ele>1583.0</ele>
  <time>2026-08-28T17:56:16Z</time>
  <course>0.0</course>
  <speed>0.0</speed>
  <fix>3d</fix>
</trkpt>
<trkpt lat="40.0713749" lon="-105.229789">
  <ele>1583.0</ele>
  <time>2026-08-28T17:56:16Z</time>
  <course>247.76</course>
  <speed>0.0316227766016838</speed>
  <fix>3d</fix>
</trkpt>
<trkpt lat="40.0713749" lon="-105.229789">
  <ele>1583.0</ele>
  <time>2026-08-28T17:56:16Z</time>
  <course>0.0</course>
  <speed>0.0</speed>
  <fix>3d</fix>
</trkpt>
<trkpt lat="40.0713749" lon="-105.229789">
  <ele>1583.0</ele>
  <time>2026-08-28T17:56:16Z</time>
  <course>247.76</course>
  <speed>0.0316227766016838</speed>
  <fix>3d</fix>
</trkpt>
<trkpt lat="40.0713749" lon="-105.229789">
  <ele>1583.0</ele>
  <time>2026-08-28T17:56:16Z</time>
  <course>0.0</course>
  <speed>0.0</speed>
  <fix>3d</fix>
</trkpt>
<trkpt lat="40.0713749" lon="-105.229789">
  <ele>1583.0</ele>
  <time>2026-08-28T17:56:16Z</time>
  <course>247.76</course>
  <speed>0.0316227766016838</speed>
  <fix>3d</fix>
</trkpt>
<trkpt lat="40.0713749" lon="-105.229789">
  <ele>1583.0</ele>
  <time>2026-08-28T17:56:16Z</time>
  <course>0.0</course>
  <speed>0.0</speed>
  <fix>3d</fix>
</trkpt>
<trkpt lat="40.0713749" lon="-105.229789">
  <ele>1583.0</ele>
  <time>2026-08-28T17:56:16Z</time>
  <course>247.75</course>
  <speed>0.0316227766016838</speed>
  <fix>3d</fix>
</trkpt>
<trkpt lat="40.0713749" lon="-105.229789">
  <ele>1583.0</ele>
  <time>2026-08-28T17:56:16Z</time>
  <course>0.0</course>
  <speed>0.0</speed>
  <fix>3d</fix>
</trkpt>
<trkpt lat="40.0713749" lon="-105.229789">
  <ele>1583.0</ele>
  <time>2026-08-28T17:56:16Z</time>
  <course>247.75</course>
  <speed>0.0316227766016838</speed>
  <fix>3d</fix>
</trkpt>
<trkpt lat="40.0713749" lon="-105.229789">
  <ele>1583.0</ele>
  <time>2026-08-28T17:56:16Z</time>
  <course>0.0</course>
  <speed>0.0</speed>
  <fix>3d</fix>
</trkpt>
<trkpt lat="40.0713749" lon="-105.229789">
  <ele>1583.0</ele>
  <time>2026-08-28T17:56:16Z</time>
  <course>247.75</course>
  <speed>0.0316227766016838</speed>
  <fix>3d</fix>
</trkpt>
<trkpt lat="40.0713749" lon="-105.229789">
  <ele>1583.0</ele>
  <time>2026-08-28T17:56:16Z</time>
  <course>0.0</course>
  <speed>0.0</speed>
  <fix>3d</fix>
</trkpt>
<trkpt lat="40.0713749" lon="-105.229789">
  <ele>1583.0</ele>
  <time>2026-08-28T17:56:16Z</time>
  <course>247.74</course>
  <speed>0.0316227766016838</speed>
  <fix>3d</fix>
</trkpt>
<trkpt lat="40.0713749" lon="-105.229789">
  <ele>1583.0</ele>
  <time>2026-08-28T17:56:16Z</time>
  <course>0.0</course>
  <speed>0.0</speed>
  <fix>3d</fix>
</trkpt>
<trkpt lat="40.0713749" lon="-105.229789">
  <ele>1583.0</ele>
  <time>2026-08-28T17:56:16Z</time>
  <course>247.74</course>
  <speed>0.0316227766016838</speed>
  <fix>3d</fix>
</trkpt>
<trkpt lat="40.0713749" lon="-105.229789">
  <ele>1583.0</ele>
  <time>2026-08-28T17:56:16Z</time>
  <course>0.0</course>
  <speed>0.0</speed>
  <fix>3d</fix>
</trkpt>
<trkpt lat="40.0713749" lon="-105.229789">
  <ele>1583.0</ele>
  <time>2026-08-28T17:56:16Z</time>
  <course>247.74</course>
  <speed>0.0316227766016838</speed>
  <fix>3d</fix>
</trkpt>
<trkpt lat="40.0713749" lon="-105.229789">
  <ele>1583.0</ele>
  <time>2026-08-28T17:56:16Z</time>
  <course>0.0</course>
  <speed>0.0</speed>
  <fix>3d</fix>
</trkpt>
<trkpt lat="40.0713749" lon="-105.229789">
  <ele>1583.0</ele>
  <time>2026-08-28T17:56:16Z</time>
  <course>247.73</course>
  <speed>0.0316227766016838</speed>
  <fix>3d</fix>
</trkpt>
<trkpt lat="40.0713749" lon="-105.229789">
  <ele>1583.0</ele>
  <time>2026-08-28T17:56:16Z</time>
  <course>0.0</course>
  <speed>0.0</speed>
  <fix>3d</fix>
</trkpt>
<trkpt lat="40.0713749" lon="-105.229789">
  <ele>1583.0</ele>
  <time>2026-08-28T17:56:16Z</time>
  <course>247.73</course>
  <speed>0.0316227766016838</speed>
  <fix>3d</fix>
</trkpt>
<trkpt lat="40.0713749" lon="-105.229789">
  <ele>1583.0</ele>
  <time>2026-08-28T17:56:16Z</time>
  <course>0.0</course>
  <speed>0.0</speed>
  <fix>3d</fix>
</trkpt>
<trkpt lat="40.0713749" lon="-105.229789">
  <ele>1583.0</ele>
  <time>2026-08-28T17:56:16Z</time>
  <course>247.73</course>
  <speed>0.0316227766016838</speed>
  <fix>3d</fix>
</trkpt>
<trkpt lat="40.0713749" lon="-105.229789">
  <ele>1583.0</ele>
  <time>2026-08-28T17:56:16Z</time>
  <course>0.0</course>
  <speed>0.0</speed>
  <fix>3d</fix>
</trkpt>
<trkpt lat="40.0713749" lon="-105.229789">
  <ele>1583.0</ele>
  <time>2026-08-28T17:56:16Z</time>
  <course>247.72</course>
  <speed>0.0316227766016838</speed>
  <fix>3d</fix>
</trkpt>
<trkpt lat="40.0713749" lon="-105.229789">
  <ele>1583.0</ele>
  <time>2026-08-28T17:56:16Z</time>
  <course>0.0</course>
  <speed>0.0</speed>
  <fix>3d</fix>
</trkpt>
<trkpt lat="40.0713749" lon="-105.229789">
  <ele>1583.0</ele>
  <time>2026-08-28T17:56:16Z</time>
  <course>247.72</course>
  <speed>0.0316227766016838</speed>
  <fix>3d</fix>
</trkpt>
<trkpt lat="40.0713749" lon="-105.229789">
  <ele>1583.0</ele>
  <time>2026-08-28T17:56:16Z</time>
  <course>0.0</course>
  <speed>0.0</speed>
  <fix>3d</fix>
</trkpt>
<trkpt lat="40.0713749" lon="-105.229789">
  <ele>1583.0</ele>
  <time>2026-08-28T17:56:16Z</time>
  <course>247.72</course>
  <speed>0.0316227766016838</speed>
  <fix>3d</fix>
</trkpt>
<trkpt lat="40.0713749" lon="-105.229789">
  <ele>1583.0</ele>
  <time>2026-08-28T17:56:16Z</time>
  <course>0.0</course>
  <speed>0.0</speed>
  <fix>3d</fix>
</trkpt>
<trkpt lat="40.0713749" lon="-105.229789">
  <ele>1583.0</ele>
  <time>2026-08-28T17:56:16Z</time>
  <course>247.71</course>
  <speed>0.0316227766016838</speed>
  <fix>3d</fix>
</trkpt>
<trkpt lat="40.0713749" lon="-105.229789">
  <ele>1583.0</ele>
  <time>2026-08-28T17:56:16Z</time>
  <course>0.0</course>
  <speed>0.0</speed>
  <fix>3d</fix>
</trkpt>
<trkpt lat="40.0713749" lon="-105.229789">
  <ele>1583.0</ele>
  <time>2026-08-28T17:56:16Z</time>
  <course>247.71</course>
  <speed>0.0316227766016838</speed>
  <fix>3d</fix>
</trkpt>
<trkpt lat="40.0713749" lon="-105.229789">
  <ele>1583.0</ele>
  <time>2026-08-28T17:56:16Z</time>
  <course>0.0</course>
  <speed>0.0</speed>
  <fix>3d</fix>
</trkpt>
<trkpt lat="40.0713749" lon="-105.229789">
  <ele>1583.0</ele>
  <time>2026-08-28T17:56:16Z</time>
  <course>247.71</course>
  <speed>0.0316227766016838</speed>
  <fix>3d</fix>
</trkpt>
<trkpt lat="40.0713749" lon="-105.229789">
  <ele>1583.0</ele>
  <time>2026-08-28T17:56:16Z</time>
  <course>0.0</course>
  <speed>0.0</speed>
  <fix>3d</fix>
</trkpt>
<trkpt lat="40.0713749" lon="-105.229789">
  <ele>1583.0</ele>
  <time>2026-08-28T17:56:16Z</time>
  <course>247.7</course>
  <speed>0.0316227766016838</speed>
  <fix>3d</fix>
</trkpt>
<trkpt lat="40.0713749" lon="-105.229789">
  <ele>1583.0</ele>
  <time>2026-08-28T17:56:16Z</time>
  <course>0.0</course>
  <speed>0.0</speed>
  <fix>3d</fix>
</trkpt>
<trkpt lat="40.0713749" lon="-105.229789">
  <ele>1583.0</ele>
  <time>2026-08-28T17:56:16Z</time>
  <course>247.7</course>
  <speed>0.0316227766016838</speed>
  <fix>3d</fix>
</trkpt>
<trkpt lat="40.0713749" lon="-105.229789">
  <ele>1583.0</ele>
  <time>2026-08-28T17:56:16Z</time>
  <course>0.0</course>
  <speed>0.0</speed>
  <fix>3d</fix>
</trkpt>
<trkpt lat="40.0713749" lon="-105.229789">
  <ele>1583.0</ele>
  <time>2026-08-28T17:56:16Z</time>
  <course>247.7</course>
  <speed>0.0316227766016838</speed>
  <fix>3d</fix>
</trkpt>
<trkpt lat="40.0713749" lon="-105.229789">
  <ele>1583.0</ele>
  <time>2026-08-28T17:56:16Z</time>
  <course>0.0</course>
  <speed>0.0</speed>
  <fix>3d</fix>
</trkpt>
<trkpt lat="40.0713749" lon="-105.229789">
  <ele>1583.0</ele>
  <time>2026-08-28T17:56:16Z</time>
  <course>247.69</course>
  <speed>0.0316227766016838</speed>
  <fix>3d</fix>
</trkpt>
<trkpt lat="40.0713749" lon="-105.229789">
  <ele>1583.0</ele>
  <time>2026-08-28T17:56:16Z</time>
  <course>0.0</course>
  <speed>0.0</speed>
  <fix>3d</fix>
</trkpt>
<trkpt lat="40.0713749" lon="-105.229789">
  <ele>1583.0</ele>
  <time>2026-08-28T17:56:16Z</time>
  <course>247.69</course>
  <speed>0.0316227766016838</speed>
  <fix>3d</fix>
</trkpt>
<trkpt lat="40.0713749" lon="-105.229789">
  <ele>1583.0</ele>
  <time>2026-08-28T17:56:16Z</time>
  <course>0.0</course>
  <speed>0.0</speed>
  <fix>3d</fix>
</trkpt>
<trkpt lat="40.0713749" lon="-105.229789">
  <ele>1583.0</ele>
  <time>2026-08-28T17:56:16Z</time>
  <course>247.69</course>
  <speed>0.0316227766016838</speed>
  <fix>3d</fix>
</trkpt>
<trkpt lat="40.0713749" lon="-105.229789">
  <ele>1583.0</ele>
  <time>2026-08-28T17:56:16Z</time>
  <course>0.0</course>
  <speed>0.0</speed>
  <fix>3d</fix>
</trkpt>
<trkpt lat="40.0713749" lon="-105.229789">
  <ele>1583.0</ele>
  <time>2026-08-28T17:56:16Z</time>
  <course>247.68</course>
  <speed>0.0316227766016838</speed>
  <fix>3d</fix>
</trkpt>
<trkpt lat="40.0713749" lon="-105.229789">
  <ele>1583.0</ele>
  <time>2026-08-28T17:56:16Z</time>
  <course>0.0</course>
  <speed>0.0</speed>
  <fix>3d</fix>
</trkpt>
<trkpt lat="40.0713749" lon="-105.229789">
  <ele>1583.0</ele>
  <time>2026-08-28T17:56:16Z</time>
  <course>247.68</course>
  <speed>0.0316227766016838</speed>
  <fix>3d</fix>
</trkpt>
<trkpt lat="40.0713749" lon="-105.229789">
  <ele>1583.0</ele>
  <time>2026-08-28T17:56:16Z</time>
  <course>0.0</course>
  <speed>0.0</speed>
  <fix>3d</fix>
</trkpt>
<trkpt lat="40.0713749" lon="-105.229789">
  <ele>1583.0</ele>
  <time>2026-08-28T17:56:16Z</time>
  <course>247.68</course>
  <speed>0.0316227766016838</speed>
  <fix>3d</fix>
</trkpt>
<trkpt lat="40.0713749" lon="-105.229789">
  <ele>1583.0</ele>
  <time>2026-08-28T17:56:16Z</time>
  <course>0.0</course>
  <speed>0.0</speed>
  <fix>3d</fix>
</trkpt>
<trkpt lat="40.0713749" lon="-105.229789">
  <ele>1583.0</ele>
  <time>2026-08-28T17:56:16Z</time>
  <course>247.67</course>
  <speed>0.0316227766016838</speed>
  <fix>3d</fix>
</trkpt>
<trkpt lat="40.0713749" lon="-105.229789">
  <ele>1583.0</ele>
  <time>2026-08-28T17:56:16Z</time>
  <course>0.0</course>
  <speed>0.0</speed>
  <fix>3d</fix>
</trkpt>
<trkpt lat="40.0713749" lon="-105.229789">
  <ele>1583.0</ele>
  <time>2026-08-28T17:56:16Z</time>
  <course>247.67</course>
  <speed>0.0316227766016838</speed>
  <fix>3d</fix>
</trkpt>
<trkpt lat="40.0713749" lon="-105.229789">
  <ele>1583.0</ele>
  <time>2026-08-28T17:56:16Z</time>
  <course>0.0</course>
  <speed>0.0</speed>
  <fix>3d</fix>
</trkpt>
<trkpt lat="40.0713749" lon="-105.229789">
  <ele>1583.0</ele>
  <time>2026-08-28T17:56:16Z</time>
  <course>247.67</course>
  <speed>0.0316227766016838</speed>
  <fix>3d</fix>
</trkpt>
<trkpt lat="40.0713749" lon="-105.229789">
  <ele>1583.0</ele>
  <time>2026-08-28T17:56:16Z</time>
  <course>0.0</course>
  <speed>0.0</speed>
  <fix>3d</fix>
</trkpt>
<trkpt lat="40.0713749" lon="-105.229789">
  <ele>1583.0</ele>
  <time>2026-08-28T17:56:16Z</time>
  <course>247.66</course>
  <speed>0.0316227766016838</speed>
  <fix>3d</fix>
</trkpt>
<trkpt lat="40.0713749" lon="-105.229789">
  <ele>1583.0</ele>
  <time>2026-08-28T17:56:16Z</time>
  <course>0.0</course>
  <speed>0.0</speed>
  <fix>3d</fix>
</trkpt>
<trkpt lat="40.0713749" lon="-105.229789">
  <ele>1583.0</ele>
  <time>2026-08-28T17:56:16Z</time>
  <course>247.66</course>
  <speed>0.0316227766016838</speed>
  <fix>3d</fix>
</trkpt>
<trkpt lat="40.0713749" lon="-105.229789">
  <ele>1583.0</ele>
  <time>2026-08-28T17:56:16Z</time>
  <course>0.0</course>
  <speed>0.0</speed>
  <fix>3d</fix>
</trkpt>
<trkpt lat="40.0713749" lon="-105.229789">
  <ele>1583.0</ele>
  <time>2026-08-28T17:56:16Z</time>
  <course>247.66</course>
  <speed>0.0316227766016838</speed>
  <fix>3d</fix>
</trkpt>
<trkpt lat="40.0713749" lon="-105.229789">
  <ele>1583.0</ele>
  <time>2026-08-28T17:56:16Z</time>
  <course>0.0</course>
  <speed>0.0</speed>
  <fix>3d</fix>
</trkpt>
<trkpt lat="40.0713749" lon="-105.229789">
  <ele>1583.0</ele>
  <time>2026-08-28T17:56:16Z</time>
  <course>247.65</course>
  <speed>0.0316227766016838</speed>
  <fix>3d</fix>
</trkpt>
<trkpt lat="40.0713749" lon="-105.229789">
  <ele>1583.0</ele>
  <time>2026-08-28T17:56:16Z</time>
  <course>0.0</course>
  <speed>0.0</speed>
  <fix>3d</fix>
</trkpt>
<trkpt lat="40.0713749" lon="-105.229789">
  <ele>1583.0</ele>
  <time>2026-08-28T17:56:16Z</time>
  <course>247.65</course>
  <speed>0.0316227766016838</speed>
  <fix>3d</fix>
</trkpt>
<trkpt lat="40.0713749" lon="-105.229789">
  <ele>1583.0</ele>
  <time>2026-08-28T17:56:16Z</time>
  <course>0.0</course>
  <speed>0.0</speed>
  <fix>3d</fix>
</trkpt>
<trkpt lat="40.0713749" lon="-105.229789">
  <ele>1583.0</ele>
  <time>2026-08-28T17:56:16Z</time>
  <course>247.65</course>
  <speed>0.0316227766016838</speed>
  <fix>3d</fix>
</trkpt>
<trkpt lat="40.0713749" lon="-105.229789">
  <ele>1583.0</ele>
  <time>2026-08-28T17:56:16Z</time>
  <course>0.0</course>
  <speed>0.0</speed>
  <fix>3d</fix>
</trkpt>
<trkpt lat="40.0713749" lon="-105.229789">
  <ele>1583.0</ele>
  <time>2026-08-28T17:56:16Z</time>
  <course>247.64</course>
  <speed>0.0316227766016838</speed>
  <fix>3d</fix>
</trkpt>
<trkpt lat="40.0713749" lon="-105.229789">
  <ele>1583.0</ele>
  <time>2026-08-28T17:56:16Z</time>
  <course>0.0</course>
  <speed>0.0</speed>
  <fix>3d</fix>
</trkpt>
<trkpt lat="40.0713749" lon="-105.229789">
  <ele>1583.0</ele>
  <time>2026-08-28T17:56:16Z</time>
  <course>247.64</course>
  <speed>0.0316227766016838</speed>
  <fix>3d</fix>
</trkpt>
<trkpt lat="40.0713749" lon="-105.229789">
  <ele>1583.0</ele>
  <time>2026-08-28T17:56:16Z</time>
  <course>0.0</course>
  <speed>0.0</speed>
  <fix>3d</fix>
</trkpt>
<trkpt lat="40.0713749" lon="-105.229789">
  <ele>1583.0</ele>
  <time>2026-08-28T17:56:16Z</time>
  <course>247.64</course>
  <speed>0.0316227766016838</speed>
  <fix>3d</fix>
</trkpt>
<trkpt lat="40.0713749" lon="-105.229789">
  <ele>1583.0</ele>
  <time>2026-08-28T17:56:16Z</time>
  <course>0.0</course>
  <speed>0.0</speed>
  <fix>3d</fix>
</trkpt>
<trkpt lat="40.0713749" lon="-105.229789">
  <ele>1583.0</ele>
  <time>2026-08-28T17:56:16Z</time>
  <course>247.64</course>
  <speed>0.0316227766016838</speed>
  <fix>3d</fix>
</trkpt>
<trkpt lat="40.0713749" lon="-105.229789">
  <ele>1583.0</ele>
  <time>2026-08-28T17:56:16Z</time>
  <course>0.0</course>
  <speed>0.0</speed>
  <fix>3d</fix>
</trkpt>
<trkpt lat="40.0713749" lon="-105.229789">
  <ele>1583.0</ele>
  <time>2026-08-28T17:56:16Z</time>
  <course>247.63</course>
  <speed>0.0316227766016838</speed>
  <fix>3d</fix>
</trkpt>
<trkpt lat="40.0713749" lon="-105.229789">
  <ele>1583.0</ele>
  <time>2026-08-28T17:56:16Z</time>
  <course>0.0</course>
  <speed>0.0</speed>
  <fix>3d</fix>
</trkpt>
<trkpt lat="40.0713749" lon="-105.229789">
  <ele>1583.0</ele>
  <time>2026-08-28T17:56:16Z</time>
  <course>247.63</course>
  <speed>0.0316227766016838</speed>
  <fix>3d</fix>
</trkpt>
<trkpt lat="40.0713749" lon="-105.229789">
  <ele>1583.0</ele>
  <time>2026-08-28T17:56:16Z</time>
  <course>0.0</course>
  <speed>0.0</speed>
  <fix>3d</fix>
</trkpt>
<trkpt lat="40.0713749" lon="-105.229789">
  <ele>1583.0</ele>
  <time>2026-08-28T17:56:16Z</time>
  <course>247.63</course>
  <speed>0.0316227766016838</speed>
  <fix>3d</fix>
</trkpt>
<trkpt lat="40.0713749" lon="-105.229789">
  <ele>1583.0</ele>
  <time>2026-08-28T17:56:16Z</time>
  <course>0.0</course>
  <speed>0.0</speed>
  <fix>3d</fix>
</trkpt>
<trkpt lat="40.0713749" lon="-105.229789">
  <ele>1583.0</ele>
  <time>2026-08-28T17:56:16Z</time>
  <course>247.62</course>
  <speed>0.0316227766016838</speed>
  <fix>3d</fix>
</trkpt>
<trkpt lat="40.0713749" lon="-105.229789">
  <ele>1583.0</ele>
  <time>2026-08-28T17:56:16Z</time>
  <course>0.0</course>
  <speed>0.0</speed>
  <fix>3d</fix>
</trkpt>
<trkpt lat="40.0713749" lon="-105.229789">
  <ele>1583.0</ele>
  <time>2026-08-28T17:56:16Z</time>
  <course>247.62</course>
  <speed>0.0316227766016838</speed>
  <fix>3d</fix>
</trkpt>
<trkpt lat="40.0713749" lon="-105.229789">
  <ele>1583.0</ele>
  <time>2026-08-28T17:56:16Z</time>
  <course>0.0</course>
  <speed>0.0</speed>
  <fix>3d</fix>
</trkpt>
<trkpt lat="40.0713749" lon="-105.229789">
  <ele>1583.0</ele>
  <time>2026-08-28T17:56:16Z</time>
  <course>247.62</course>
  <speed>0.0316227766016838</speed>
  <fix>3d</fix>
</trkpt>
<trkpt lat="40.0713749" lon="-105.229789">
  <ele>1583.0</ele>
  <time>2026-08-28T17:56:16Z</time>
  <course>0.0</course>
  <speed>0.0</speed>
  <fix>3d</fix>
</trkpt>
<trkpt lat="40.0713749" lon="-105.229789">
  <ele>1583.0</ele>
  <time>2026-08-28T17:56:16Z</time>
  <course>247.61</course>
  <speed>0.0316227766016838</speed>
  <fix>3d</fix>
</trkpt>
<trkpt lat="40.0713749" lon="-105.229789">
  <ele>1583.0</ele>
  <time>2026-08-28T17:56:16Z</time>
  <course>0.0</course>
  <speed>0.0</speed>
  <fix>3d</fix>
</trkpt>
<trkpt lat="40.0713749" lon="-105.229789">
  <ele>1583.0</ele>
  <time>2026-08-28T17:56:16Z</time>
  <course>247.61</course>
  <speed>0.0316227766016838</speed>
  <fix>3d</fix>
</trkpt>
<trkpt lat="40.0713749" lon="-105.229789">
  <ele>1583.0</ele>
  <time>2026-08-28T17:56:16Z</time>
  <course>0.0</course>
  <speed>0.0</speed>
  <fix>3d</fix>
</trkpt>
<trkpt lat="40.0713749" lon="-105.229789">
  <ele>1583.0</ele>
  <time>2026-08-28T17:56:16Z</time>
  <course>247.61</course>
  <speed>0.0316227766016838</speed>
  <fix>3d</fix>
</trkpt>
<trkpt lat="40.0713749" lon="-105.229789">
  <ele>1583.0</ele>
  <time>2026-08-28T17:56:16Z</time>
  <course>0.0</course>
  <speed>0.0</speed>
  <fix>3d</fix>
</trkpt>
<trkpt lat="40.0713749" lon="-105.229789">
  <ele>1583.0</ele>
  <time>2026-08-28T17:56:16Z</time>
  <course>247.61</course>
  <speed>0.0316227766016838</speed>
  <fix>3d</fix>
</trkpt>
<trkpt lat="40.0713749" lon="-105.229789">
  <ele>1583.0</ele>
  <time>2026-08-28T17:56:16Z</time>
  <course>0.0</course>
  <speed>0.0</speed>
  <fix>3d</fix>
</trkpt>
<trkpt lat="40.0713749" lon="-105.229789">
  <ele>1583.0</ele>
  <time>2026-08-28T17:56:16Z</time>
  <course>247.6</course>
  <speed>0.0316227766016838</speed>
  <fix>3d</fix>
</trkpt>
<trkpt lat="40.0713749" lon="-105.229789">
  <ele>1583.0</ele>
  <time>2026-08-28T17:56:16Z</time>
  <course>0.0</course>
  <speed>0.0</speed>
  <fix>3d</fix>
</trkpt>
<trkpt lat="40.0713749" lon="-105.229789">
  <ele>1583.0</ele>
  <time>2026-08-28T17:56:16Z</time>
  <course>247.6</course>
  <speed>0.0316227766016838</speed>
  <fix>3d</fix>
</trkpt>
<trkpt lat="40.0713749" lon="-105.229789">
  <ele>1583.0</ele>
  <time>2026-08-28T17:56:16Z</time>
  <course>0.0</course>
  <speed>0.0</speed>
  <fix>3d</fix>
</trkpt>
<trkpt lat="40.0713749" lon="-105.229789">
  <ele>1583.0</ele>
  <time>2026-08-28T17:56:16Z</time>
  <course>247.6</course>
  <speed>0.0316227766016838</speed>
  <fix>3d</fix>
</trkpt>
<trkpt lat="40.0713749" lon="-105.229789">
  <ele>1583.0</ele>
  <time>2026-08-28T17:56:16Z</time>
  <course>0.0</course>
  <speed>0.0</speed>
  <fix>3d</fix>
</trkpt>
<trkpt lat="40.0713749" lon="-105.229789">
  <ele>1583.0</ele>
  <time>2026-08-28T17:56:16Z</time>
  <course>247.6</course>
  <speed>0.0316227766016838</speed>
  <fix>3d</fix>
</trkpt>
<trkpt lat="40.0713749" lon="-105.229789">
  <ele>1583.0</ele>
  <time>2026-08-28T17:56:16Z</time>
  <course>0.0</course>
  <speed>0.0</speed>
  <fix>3d</fix>
</trkpt>
<trkpt lat="40.0713749" lon="-105.229789">
  <ele>1583.0</ele>
  <time>2026-08-28T17:56:16Z</time>
  <course>247.59</course>
  <speed>0.0316227766016838</speed>
  <fix>3d</fix>
</trkpt>
<trkpt lat="40.0713749" lon="-105.229789">
  <ele>1583.0</ele>
  <time>2026-08-28T17:56:16Z</time>
  <course>0.0</course>
  <speed>0.0</speed>
  <fix>3d</fix>
</trkpt>
<trkpt lat="40.0713749" lon="-105.229789">
  <ele>1582.92</ele>
  <time>2026-08-28T17:56:16Z</time>
  <course>247.59</course>
  <speed>0.0</speed>
  <fix>3d</fix>
</trkpt>
<trkpt lat="40.0713749" lon="-105.229789">
  <ele>1583.0</ele>
  <time>2026-08-28T17:56:16Z</time>
  <course>0.0</course>
  <speed>0.0</speed>
  <fix>3d</fix>
</trkpt>
<trkpt lat="40.0713749" lon="-105.229789">
  <ele>1582.92</ele>
  <time>2026-08-28T17:56:16Z</time>
  <course>247.59</course>
  <speed>0.0</speed>
  <fix>3d</fix>
</trkpt>
<trkpt lat="40.0713749" lon="-105.229789">
  <ele>1583.0</ele>
  <time>2026-08-28T17:56:16Z</time>
  <course>0.0</course>
  <speed>0.0</speed>
  <fix>3d</fix>
</trkpt>
<trkpt lat="40.0713749" lon="-105.229789">
  <ele>1582.91</ele>
  <time>2026-08-28T17:56:16Z</time>
  <course>247.58</course>
  <speed>0.0</speed>
  <fix>3d</fix>
</trkpt>
<trkpt lat="40.0713749" lon="-105.229789">
  <ele>1583.0</ele>
  <time>2026-08-28T17:56:16Z</time>
  <course>0.0</course>
  <speed>0.0</speed>
  <fix>3d</fix>
</trkpt>
<trkpt lat="40.0713749" lon="-105.229789">
  <ele>1582.91</ele>
  <time>2026-08-28T17:56:16Z</time>
  <course>247.58</course>
  <speed>0.0</speed>
  <fix>3d</fix>
</trkpt>
<trkpt lat="40.0713749" lon="-105.229789">
  <ele>1583.0</ele>
  <time>2026-08-28T17:56:16Z</time>
  <course>0.0</course>
  <speed>0.0</speed>
  <fix>3d</fix>
</trkpt>
<trkpt lat="40.0713749" lon="-105.229789">
  <ele>1582.9</ele>
  <time>2026-08-28T17:56:16Z</time>
  <course>247.58</course>
  <speed>0.0</speed>
  <fix>3d</fix>
</trkpt>
<trkpt lat="40.0713749" lon="-105.229789">
  <ele>1583.0</ele>
  <time>2026-08-28T17:56:16Z</time>
  <course>0.0</course>
  <speed>0.0</speed>
  <fix>3d</fix>
</trkpt>
<trkpt lat="40.0713749" lon="-105.229789">
  <ele>1582.9</ele>
  <time>2026-08-28T17:56:16Z</time>
  <course>247.58</course>
  <speed>0.0</speed>
  <fix>3d</fix>
</trkpt>
<trkpt lat="40.0713749" lon="-105.229789">
  <ele>1583.0</ele>
  <time>2026-08-28T17:56:16Z</time>
  <course>0.0</course>
  <speed>0.0</speed>
  <fix>3d</fix>
</trkpt>
<trkpt lat="40.0713749" lon="-105.229789">
  <ele>1582.9</ele>
  <time>2026-08-28T17:56:16Z</time>
  <course>247.57</course>
  <speed>0.0</speed>
  <fix>3d</fix>
</trkpt>
<trkpt lat="40.0713749" lon="-105.229789">
  <ele>1583.0</ele>
  <time>2026-08-28T17:56:16Z</time>
  <course>0.0</course>
  <speed>0.0</speed>
  <fix>3d</fix>
</trkpt>
<trkpt lat="40.0713749" lon="-105.229789">
  <ele>1582.9</ele>
  <time>2026-08-28T17:56:16Z</time>
  <course>247.57</course>
  <speed>0.0</speed>
  <fix>3d</fix>
</trkpt>
<trkpt lat="40.0713749" lon="-105.229789">
  <ele>1583.0</ele>
  <time>2026-08-28T17:56:16Z</time>
  <course>0.0</course>
  <speed>0.0</speed>
  <fix>3d</fix>
</trkpt>
<trkpt lat="40.0713749" lon="-105.229789">
  <ele>1582.9</ele>
  <time>2026-08-28T17:56:16Z</time>
  <course>247.57</course>
  <speed>0.0</speed>
  <fix>3d</fix>
</trkpt>
<trkpt lat="40.0713749" lon="-105.229789">
  <ele>1583.0</ele>
  <time>2026-08-28T17:56:16Z</time>
  <course>0.0</course>
  <speed>0.0</speed>
  <fix>3d</fix>
</trkpt>
<trkpt lat="40.0713749" lon="-105.229789">
  <ele>1582.9</ele>
  <time>2026-08-28T17:56:16Z</time>
  <course>247.57</course>
  <speed>0.01</speed>
  <fix>3d</fix>
</trkpt>
<trkpt lat="40.0713749" lon="-105.229789">
  <ele>1583.0</ele>
  <time>2026-08-28T17:56:16Z</time>
  <course>0.0</course>
  <speed>0.0</speed>
  <fix>3d</fix>
</trkpt>
<trkpt lat="40.0713749" lon="-105.229789">
  <ele>1582.91</ele>
  <time>2026-08-28T17:56:16Z</time>
  <course>247.56</course>
  <speed>0.01</speed>
  <fix>3d</fix>
</trkpt>
<trkpt lat="40.0713749" lon="-105.229789">
  <ele>1583.0</ele>
  <time>2026-08-28T17:56:16Z</time>
  <course>0.0</course>
  <speed>0.0</speed>
  <fix>3d</fix>
</trkpt>
<trkpt lat="40.0713749" lon="-105.229789">
  <ele>1582.91</ele>
  <time>2026-08-28T17:56:16Z</time>
  <course>247.56</course>
  <speed>0.01</speed>
  <fix>3d</fix>
</trkpt>
<trkpt lat="40.0713749" lon="-105.229789">
  <ele>1583.0</ele>
  <time>2026-08-28T17:56:16Z</time>
  <course>0.0</course>
  <speed>0.0</speed>
  <fix>3d</fix>
</trkpt>
<trkpt lat="40.0713749" lon="-105.229789">
  <ele>1582.91</ele>
  <time>2026-08-28T17:56:16Z</time>
  <course>247.56</course>
  <speed>0.01</speed>
  <fix>3d</fix>
</trkpt>
<trkpt lat="40.0713749" lon="-105.229789">
  <ele>1583.0</ele>
  <time>2026-08-28T17:56:16Z</time>
  <course>0.0</course>
  <speed>0.0</speed>
  <fix>3d</fix>
</trkpt>
<trkpt lat="40.0713749" lon="-105.229789">
  <ele>1582.92</ele>
  <time>2026-08-28T17:56:16Z</time>
  <course>247.56</course>
  <speed>0.01</speed>
  <fix>3d</fix>
</trkpt>
<trkpt lat="40.0713749" lon="-105.229789">
  <ele>1583.0</ele>
  <time>2026-08-28T17:56:16Z</time>
  <course>0.0</course>
  <speed>0.0</speed>
  <fix>3d</fix>
</trkpt>
<trkpt lat="40.0713749" lon="-105.229789">
  <ele>1582.92</ele>
  <time>2026-08-28T17:56:16Z</time>
  <course>247.55</course>
  <speed>0.01</speed>
  <fix>3d</fix>
</trkpt>
<trkpt lat="40.0713749" lon="-105.229789">
  <ele>1583.0</ele>
  <time>2026-08-28T17:56:16Z</time>
  <course>0.0</course>
  <speed>0.0</speed>
  <fix>3d</fix>
</trkpt>
<trkpt lat="40.0713749" lon="-105.229789">
  <ele>1582.92</ele>
  <time>2026-08-28T17:56:16Z</time>
  <course>247.55</course>
  <speed>0.01</speed>
  <fix>3d</fix>
</trkpt>
<trkpt lat="40.0713749" lon="-105.229789">
  <ele>1583.0</ele>
  <time>2026-08-28T17:56:16Z</time>
  <course>0.0</course>
  <speed>0.0</speed>
  <fix>3d</fix>
</trkpt>
<trkpt lat="40.0713749" lon="-105.229789">
  <ele>1582.93</ele>
  <time>2026-08-28T17:56:16Z</time>
  <course>247.55</course>
  <speed>0.01</speed>
  <fix>3d</fix>
</trkpt>
<trkpt lat="40.0713749" lon="-105.229789">
  <ele>1583.0</ele>
  <time>2026-08-28T17:56:16Z</time>
  <course>0.0</course>
  <speed>0.0</speed>
  <fix>3d</fix>
</trkpt>
<trkpt lat="40.0713749" lon="-105.229789">
  <ele>1582.93</ele>
  <time>2026-08-28T17:56:16Z</time>
  <course>247.55</course>
  <speed>0.02</speed>
  <fix>3d</fix>
</trkpt>
<trkpt lat="40.0713749" lon="-105.229789">
  <ele>1583.0</ele>
  <time>2026-08-28T17:56:16Z</time>
  <course>0.0</course>
  <speed>0.0</speed>
  <fix>3d</fix>
</trkpt>
<trkpt lat="40.0713749" lon="-105.229789">
  <ele>1582.93</ele>
  <time>2026-08-28T17:56:16Z</time>
  <course>247.54</course>
  <speed>0.02</speed>
  <fix>3d</fix>
</trkpt>
<trkpt lat="40.0713749" lon="-105.229789">
  <ele>1583.0</ele>
  <time>2026-08-28T17:56:16Z</time>
  <course>0.0</course>
  <speed>0.0</speed>
  <fix>3d</fix>
</trkpt>
<trkpt lat="40.0713749" lon="-105.229789">
  <ele>1582.93</ele>
  <time>2026-08-28T17:56:16Z</time>
  <course>247.54</course>
  <speed>0.02</speed>
  <fix>3d</fix>
</trkpt>
<trkpt lat="40.0713749" lon="-105.229789">
  <ele>1583.0</ele>
  <time>2026-08-28T17:56:16Z</time>
  <course>0.0</course>
  <speed>0.0</speed>
  <fix>3d</fix>
</trkpt>
<trkpt lat="40.0713749" lon="-105.229789">
  <ele>1582.93</ele>
  <time>2026-08-28T17:56:16Z</time>
  <course>247.54</course>
  <speed>0.02</speed>
  <fix>3d</fix>
</trkpt>
<trkpt lat="40.0713749" lon="-105.229789">
  <ele>1583.0</ele>
  <time>2026-08-28T17:56:16Z</time>
  <course>0.0</course>
  <speed>0.0</speed>
  <fix>3d</fix>
</trkpt>
<trkpt lat="40.0713749" lon="-105.229789">
  <ele>1582.93</ele>
  <time>2026-08-28T17:56:16Z</time>
  <course>247.54</course>
  <speed>0.022360679774997897</speed>
  <fix>3d</fix>
</trkpt>
<trkpt lat="40.0713749" lon="-105.229789">
  <ele>1583.0</ele>
  <time>2026-08-28T17:56:16Z</time>
  <course>0.0</course>
  <speed>0.0</speed>
  <fix>3d</fix>
</trkpt>
<trkpt lat="40.0713749" lon="-105.229789">
  <ele>1582.94</ele>
  <time>2026-08-28T17:56:16Z</time>
  <course>247.53</course>
  <speed>0.022360679774997897</speed>
  <fix>3d</fix>
</trkpt>
<trkpt lat="40.0713749" lon="-105.229789">
  <ele>1583.0</ele>
  <time>2026-08-28T17:56:16Z</time>
  <course>0.0</course>
  <speed>0.0</speed>
  <fix>3d</fix>
</trkpt>
<trkpt lat="40.0713749" lon="-105.229789">
  <ele>1582.94</ele>
  <time>2026-08-28T17:56:16Z</time>
  <course>247.53</course>
  <speed>0.022360679774997897</speed>
  <fix>3d</fix>
</trkpt>
<trkpt lat="40.0713749" lon="-105.229789">
  <ele>1583.0</ele>
  <time>2026-08-28T17:56:16Z</time>
  <course>0.0</course>
  <speed>0.0</speed>
  <fix>3d</fix>
</trkpt>
<trkpt lat="40.071375" lon="-105.229789">
  <ele>1582.94</ele>
  <time>2026-08-28T17:56:16Z</time>
  <course>247.53</course>
  <speed>0.022360679774997897</speed>
  <fix>3d</fix>
</trkpt>
<trkpt lat="40.0713749" lon="-105.229789">
  <ele>1583.0</ele>
  <time>2026-08-28T17:56:16Z</time>
  <course>0.0</course>
  <speed>0.0</speed>
  <fix>3d</fix>
</trkpt>
<trkpt lat="40.071375" lon="-105.229789">
  <ele>1582.95</ele>
  <time>2026-08-28T17:56:16Z</time>
  <course>247.53</course>
  <speed>0.022360679774997897</speed>
  <fix>3d</fix>
</trkpt>
<trkpt lat="40.0713749" lon="-105.229789">
  <ele>1583.0</ele>
  <time>2026-08-28T17:56:16Z</time>
  <course>0.0</course>
  <speed>0.0</speed>
  <fix>3d</fix>
</trkpt>
<trkpt lat="40.071375" lon="-105.229789">
  <ele>1582.95</ele>
  <time>2026-08-28T17:56:16Z</time>
  <course>247.53</course>
  <speed>0.022360679774997897</speed>
  <fix>3d</fix>
</trkpt>
<trkpt lat="40.0713749" lon="-105.229789">
  <ele>1583.0</ele>
  <time>2026-08-28T17:56:16Z</time>
  <course>0.0</course>
  <speed>0.0</speed>
  <fix>3d</fix>
</trkpt>
<trkpt lat="40.071375" lon="-105.229789">
  <ele>1582.95</ele>
  <time>2026-08-28T17:56:16Z</time>
  <course>247.52</course>
  <speed>0.022360679774997897</speed>
  <fix>3d</fix>
</trkpt>
<trkpt lat="40.0713749" lon="-105.229789">
  <ele>1583.0</ele>
  <time>2026-08-28T17:56:16Z</time>
  <course>0.0</course>
  <speed>0.0</speed>
  <fix>3d</fix>
</trkpt>
<trkpt lat="40.071375" lon="-105.229789">
  <ele>1582.95</ele>
  <time>2026-08-28T17:56:16Z</time>
  <course>247.52</course>
  <speed>0.022360679774997897</speed>
  <fix>3d</fix>
</trkpt>
<trkpt lat="40.0713749" lon="-105.229789">
  <ele>1583.0</ele>
  <time>2026-08-28T17:56:16Z</time>
  <course>0.0</course>
  <speed>0.0</speed>
  <fix>3d</fix>
</trkpt>
<trkpt lat="40.071375" lon="-105.229789">
  <ele>1582.95</ele>
  <time>2026-08-28T17:56:16Z</time>
  <course>247.52</course>
  <speed>0.022360679774997897</speed>
  <fix>3d</fix>
</trkpt>
<trkpt lat="40.0713749" lon="-105.229789">
  <ele>1583.0</ele>
  <time>2026-08-28T17:56:16Z</time>
  <course>0.0</course>
  <speed>0.0</speed>
  <fix>3d</fix>
</trkpt>
<trkpt lat="40.071375" lon="-105.229789">
  <ele>1582.95</ele>
  <time>2026-08-28T17:56:16Z</time>
  <course>247.52</course>
  <speed>0.022360679774997897</speed>
  <fix>3d</fix>
</trkpt>
<trkpt lat="40.0713749" lon="-105.229789">
  <ele>1583.0</ele>
  <time>2026-08-28T17:56:16Z</time>
  <course>0.0</course>
  <speed>0.0</speed>
  <fix>3d</fix>
</trkpt>
<trkpt lat="40.071375" lon="-105.229789">
  <ele>1582.95</ele>
  <time>2026-08-28T17:56:16Z</time>
  <course>247.51</course>
  <speed>0.0316227766016838</speed>
  <fix>3d</fix>
</trkpt>
<trkpt lat="40.0713749" lon="-105.229789">
  <ele>1583.0</ele>
  <time>2026-08-28T17:56:16Z</time>
  <course>0.0</course>
  <speed>0.0</speed>
  <fix>3d</fix>
</trkpt>
<trkpt lat="40.071375" lon="-105.229789">
  <ele>1582.95</ele>
  <time>2026-08-28T17:56:16Z</time>
  <course>247.51</course>
  <speed>0.0316227766016838</speed>
  <fix>3d</fix>
</trkpt>
<trkpt lat="40.0713749" lon="-105.229789">
  <ele>1583.0</ele>
  <time>2026-08-28T17:56:16Z</time>
  <course>0.0</course>
  <speed>0.0</speed>
  <fix>3d</fix>
</trkpt>
<trkpt lat="40.071375" lon="-105.229789">
  <ele>1582.95</ele>
  <time>2026-08-28T17:56:16Z</time>
  <course>247.51</course>
  <speed>0.0316227766016838</speed>
  <fix>3d</fix>
</trkpt>
<trkpt lat="40.0713749" lon="-105.229789">
  <ele>1583.0</ele>
  <time>2026-08-28T17:56:16Z</time>
  <course>0.0</course>
  <speed>0.0</speed>
  <fix>3d</fix>
</trkpt>
<trkpt lat="40.071375" lon="-105.2297889">
  <ele>1582.95</ele>
  <time>2026-08-28T17:56:16Z</time>
  <course>247.51</course>
  <speed>0.0316227766016838</speed>
  <fix>3d</fix>
</trkpt>
<trkpt lat="40.0713749" lon="-105.229789">
  <ele>1583.0</ele>
  <time>2026-08-28T17:56:16Z</time>
  <course>0.0</course>
  <speed>0.0</speed>
  <fix>3d</fix>
</trkpt>
<trkpt lat="40.071375" lon="-105.2297889">
  <ele>1582.95</ele>
  <time>2026-08-28T17:56:16Z</time>
  <course>247.5</course>
  <speed>0.0316227766016838</speed>
  <fix>3d</fix>
</trkpt>
<trkpt lat="40.0713749" lon="-105.229789">
  <ele>1583.0</ele>
  <time>2026-08-28T17:56:16Z</time>
  <course>0.0</course>
  <speed>0.0</speed>
  <fix>3d</fix>
</trkpt>
<trkpt lat="40.071375" lon="-105.2297889">
  <ele>1582.95</ele>
  <time>2026-08-28T17:56:16Z</time>
  <course>247.5</course>
  <speed>0.0316227766016838</speed>
  <fix>3d</fix>
</trkpt>
<trkpt lat="40.0713749" lon="-105.229789">
  <ele>1583.0</ele>
  <time>2026-08-28T17:56:16Z</time>
  <course>0.0</course>
  <speed>0.0</speed>
  <fix>3d</fix>
</trkpt>
<trkpt lat="40.0713751" lon="-105.2297889">
  <ele>1582.95</ele>
  <time>2026-08-28T17:56:16Z</time>
  <course>247.5</course>
  <speed>0.0316227766016838</speed>
  <fix>3d</fix>
</trkpt>
<trkpt lat="40.0713749" lon="-105.229789">
  <ele>1583.0</ele>
  <time>2026-08-28T17:56:16Z</time>
  <course>0.0</course>
  <speed>0.0</speed>
  <fix>3d</fix>
</trkpt>
<trkpt lat="40.0713751" lon="-105.2297889">
  <ele>1582.95</ele>
  <time>2026-08-28T17:56:16Z</time>
  <course>247.5</course>
  <speed>0.0316227766016838</speed>
  <fix>3d</fix>
</trkpt>
<trkpt lat="40.0713749" lon="-105.229789">
  <ele>1583.0</ele>
  <time>2026-08-28T17:56:16Z</time>
  <course>0.0</course>
  <speed>0.0</speed>
  <fix>3d</fix>
</trkpt>
<trkpt lat="40.0713751" lon="-105.2297889">
  <ele>1582.95</ele>
  <time>2026-08-28T17:56:16Z</time>
  <course>247.5</course>
  <speed>0.0316227766016838</speed>
  <fix>3d</fix>
</trkpt>
<trkpt lat="40.0713749" lon="-105.229789">
  <ele>1583.0</ele>
  <time>2026-08-28T17:56:16Z</time>
  <course>0.0</course>
  <speed>0.0</speed>
  <fix>3d</fix>
</trkpt>
<trkpt lat="40.0713751" lon="-105.2297889">
  <ele>1582.96</ele>
  <time>2026-08-28T17:56:16Z</time>
  <course>247.49</course>
  <speed>0.0316227766016838</speed>
  <fix>3d</fix>
</trkpt>
<trkpt lat="40.0713749" lon="-105.229789">
  <ele>1583.0</ele>
  <time>2026-08-28T17:56:16Z</time>
  <course>0.0</course>
  <speed>0.0</speed>
  <fix>3d</fix>
</trkpt>
<trkpt lat="40.0713751" lon="-105.2297889">
  <ele>1582.96</ele>
  <time>2026-08-28T17:56:16Z</time>
  <course>247.49</course>
  <speed>0.0316227766016838</speed>
  <fix>3d</fix>
</trkpt>
<trkpt lat="40.0713749" lon="-105.229789">
  <ele>1583.0</ele>
  <time>2026-08-28T17:56:16Z</time>
  <course>0.0</course>
  <speed>0.0</speed>
  <fix>3d</fix>
</trkpt>
<trkpt lat="40.0713751" lon="-105.2297889">
  <ele>1582.97</ele>
  <time>2026-08-28T17:56:16Z</time>
  <course>247.49</course>
  <speed>0.0316227766016838</speed>
  <fix>3d</fix>
</trkpt>
<trkpt lat="40.0713749" lon="-105.229789">
  <ele>1583.0</ele>
  <time>2026-08-28T17:56:16Z</time>
  <course>0.0</course>
  <speed>0.0</speed>
  <fix>3d</fix>
</trkpt>
<trkpt lat="40.0713751" lon="-105.2297889">
  <ele>1582.98</ele>
  <time>2026-08-28T17:56:16Z</time>
  <course>247.49</course>
  <speed>0.0316227766016838</speed>
  <fix>3d</fix>
</trkpt>
<trkpt lat="40.0713749" lon="-105.229789">
  <ele>1583.0</ele>
  <time>2026-08-28T17:56:16Z</time>
  <course>0.0</course>
  <speed>0.0</speed>
  <fix>3d</fix>
</trkpt>
<trkpt lat="40.0713751" lon="-105.2297889">
  <ele>1582.98</ele>
  <time>2026-08-28T17:56:16Z</time>
  <course>247.49</course>
  <speed>0.022360679774997897</speed>
  <fix>3d</fix>
</trkpt>
<trkpt lat="40.0713749" lon="-105.229789">
  <ele>1583.0</ele>
  <time>2026-08-28T17:56:16Z</time>
  <course>0.0</course>
  <speed>0.0</speed>
  <fix>3d</fix>
</trkpt>
<trkpt lat="40.0713751" lon="-105.2297889">
  <ele>1582.99</ele>
  <time>2026-08-28T17:56:16Z</time>
  <course>247.48</course>
  <speed>0.022360679774997897</speed>
  <fix>3d</fix>
</trkpt>
<trkpt lat="40.0713749" lon="-105.229789">
  <ele>1583.0</ele>
  <time>2026-08-28T17:56:16Z</time>
  <course>0.0</course>
  <speed>0.0</speed>
  <fix>3d</fix>
</trkpt>
<trkpt lat="40.0713751" lon="-105.2297889">
  <ele>1583.0</ele>
  <time>2026-08-28T17:56:16Z</time>
  <course>247.48</course>
  <speed>0.022360679774997897</speed>
  <fix>3d</fix>
</trkpt>
<trkpt lat="40.0713749" lon="-105.229789">
  <ele>1583.0</ele>
  <time>2026-08-28T17:56:16Z</time>
  <course>0.0</course>
  <speed>0.0</speed>
  <fix>3d</fix>
</trkpt>
<trkpt lat="40.0713751" lon="-105.2297889">
  <ele>1583.01</ele>
  <time>2026-08-28T17:56:16Z</time>
  <course>247.48</course>
  <speed>0.022360679774997897</speed>
  <fix>3d</fix>
</trkpt>
<trkpt lat="40.0713749" lon="-105.229789">
  <ele>1583.0</ele>
  <time>2026-08-28T17:56:16Z</time>
  <course>0.0</course>
  <speed>0.0</speed>
  <fix>3d</fix>
</trkpt>
<trkpt lat="40.071375" lon="-105.2297889">
  <ele>1583.01</ele>
  <time>2026-08-28T17:56:16Z</time>
  <course>247.48</course>
  <speed>0.022360679774997897</speed>
  <fix>3d</fix>
</trkpt>
<trkpt lat="40.0713749" lon="-105.229789">
  <ele>1583.0</ele>
  <time>2026-08-28T17:56:16Z</time>
  <course>0.0</course>
  <speed>0.0</speed>
  <fix>3d</fix>
</trkpt>
<trkpt lat="40.071375" lon="-105.2297889">
  <ele>1583.01</ele>
  <time>2026-08-28T17:56:16Z</time>
  <course>247.47</course>
  <speed>0.02</speed>
  <fix>3d</fix>
</trkpt>
<trkpt lat="40.0713749" lon="-105.229789">
  <ele>1583.0</ele>
  <time>2026-08-28T17:56:16Z</time>
  <course>0.0</course>
  <speed>0.0</speed>
  <fix>3d</fix>
</trkpt>
<trkpt lat="40.071375" lon="-105.229789">
  <ele>1583.01</ele>
  <time>2026-08-28T17:56:16Z</time>
  <course>247.47</course>
  <speed>0.02</speed>
  <fix>3d</fix>
</trkpt>
<trkpt lat="40.0713749" lon="-105.229789">
  <ele>1583.0</ele>
  <time>2026-08-28T17:56:16Z</time>
  <course>0.0</course>
  <speed>0.0</speed>
  <fix>3d</fix>
</trkpt>
<trkpt lat="40.071375" lon="-105.229789">
  <ele>1583.01</ele>
  <time>2026-08-28T17:56:16Z</time>
  <course>247.47</course>
  <speed>0.01</speed>
  <fix>3d</fix>
</trkpt>
<trkpt lat="40.0713749" lon="-105.229789">
  <ele>1583.0</ele>
  <time>2026-08-28T17:56:16Z</time>
  <course>0.0</course>
  <speed>0.0</speed>
  <fix>3d</fix>
</trkpt>
<trkpt lat="40.071375" lon="-105.229789">
  <ele>1583.0</ele>
  <time>2026-08-28T17:56:16Z</time>
  <course>247.47</course>
  <speed>0.01</speed>
  <fix>3d</fix>
</trkpt>
<trkpt lat="40.0713749" lon="-105.229789">
  <ele>1583.0</ele>
  <time>2026-08-28T17:56:16Z</time>
  <course>0.0</course>
  <speed>0.0</speed>
  <fix>3d</fix>
</trkpt>
<trkpt lat="40.071375" lon="-105.229789">
  <ele>1583.0</ele>
  <time>2026-08-28T17:56:16Z</time>
  <course>247.47</course>
  <speed>0.01</speed>
  <fix>3d</fix>
</trkpt>
<trkpt lat="40.0713749" lon="-105.229789">
  <ele>1583.0</ele>
  <time>2026-08-28T17:56:16Z</time>
  <course>0.0</course>
  <speed>0.0</speed>
  <fix>3d</fix>
</trkpt>
<trkpt lat="40.071375" lon="-105.229789">
  <ele>1582.99</ele>
  <time>2026-08-28T17:56:16Z</time>
  <course>247.46</course>
  <speed>0.01</speed>
  <fix>3d</fix>
</trkpt>
<trkpt lat="40.0713749" lon="-105.229789">
  <ele>1583.0</ele>
  <time>2026-08-28T17:56:16Z</time>
  <course>0.0</course>
  <speed>0.0</speed>
  <fix>3d</fix>
</trkpt>
<trkpt lat="40.071375" lon="-105.229789">
  <ele>1582.99</ele>
  <time>2026-08-28T17:56:16Z</time>
  <course>247.46</course>
  <speed>0.01</speed>
  <fix>3d</fix>
</trkpt>
<trkpt lat="40.0713749" lon="-105.229789">
  <ele>1583.0</ele>
  <time>2026-08-28T17:56:16Z</time>
  <course>0.0</course>
  <speed>0.0</speed>
  <fix>3d</fix>
</trkpt>
<trkpt lat="40.071375" lon="-105.229789">
  <ele>1582.99</ele>
  <time>2026-08-28T17:56:16Z</time>
  <course>247.46</course>
  <speed>0.0</speed>
  <fix>3d</fix>
</trkpt>
<trkpt lat="40.0713749" lon="-105.229789">
  <ele>1583.0</ele>
  <time>2026-08-28T17:56:16Z</time>
  <course>0.0</course>
  <speed>0.0</speed>
  <fix>3d</fix>
</trkpt>
<trkpt lat="40.071375" lon="-105.229789">
  <ele>1582.99</ele>
  <time>2026-08-28T17:56:16Z</time>
  <course>247.46</course>
  <speed>0.0</speed>
  <fix>3d</fix>
</trkpt>
<trkpt lat="40.0713749" lon="-105.229789">
  <ele>1583.0</ele>
  <time>2026-08-28T17:56:16Z</time>
  <course>0.0</course>
  <speed>0.0</speed>
  <fix>3d</fix>
</trkpt>
<trkpt lat="40.071375" lon="-105.229789">
  <ele>1582.99</ele>
  <time>2026-08-28T17:56:16Z</time>
  <course>247.45</course>
  <speed>0.0</speed>
  <fix>3d</fix>
</trkpt>
<trkpt lat="40.0713749" lon="-105.229789">
  <ele>1583.0</ele>
  <time>2026-08-28T17:56:16Z</time>
  <course>0.0</course>
  <speed>0.0</speed>
  <fix>3d</fix>
</trkpt>
<trkpt lat="40.071375" lon="-105.229789">
  <ele>1582.99</ele>
  <time>2026-08-28T17:56:16Z</time>
  <course>247.45</course>
  <speed>0.0</speed>
  <fix>3d</fix>
</trkpt>
<trkpt lat="40.0713749" lon="-105.229789">
  <ele>1583.0</ele>
  <time>2026-08-28T17:56:16Z</time>
  <course>0.0</course>
  <speed>0.0</speed>
  <fix>3d</fix>
</trkpt>
<trkpt lat="40.071375" lon="-105.229789">
  <ele>1582.99</ele>
  <time>2026-08-28T17:56:16Z</time>
  <course>247.45</course>
  <speed>0.0</speed>
  <fix>3d</fix>
</trkpt>
<trkpt lat="40.0713749" lon="-105.229789">
  <ele>1583.0</ele>
  <time>2026-08-28T17:56:16Z</time>
  <course>0.0</course>
  <speed>0.0</speed>
  <fix>3d</fix>
</trkpt>
<trkpt lat="40.071375" lon="-105.229789">
  <ele>1582.99</ele>
  <time>2026-08-28T17:56:16Z</time>
  <course>247.45</course>
  <speed>0.0</speed>
  <fix>3d</fix>
</trkpt>
<trkpt lat="40.0713749" lon="-105.229789">
  <ele>1583.0</ele>
  <time>2026-08-28T17:56:16Z</time>
  <course>0.0</course>
  <speed>0.0</speed>
  <fix>3d</fix>
</trkpt>
<trkpt lat="40.071375" lon="-105.229789">
  <ele>1583.0</ele>
  <time>2026-08-28T17:56:16Z</time>
  <course>247.45</course>
  <speed>0.0</speed>
  <fix>3d</fix>
</trkpt>
<trkpt lat="40.0713749" lon="-105.229789">
  <ele>1583.0</ele>
  <time>2026-08-28T17:56:16Z</time>
  <course>0.0</course>
  <speed>0.0</speed>
  <fix>3d</fix>
</trkpt>
<trkpt lat="40.071375" lon="-105.229789">
  <ele>1583.0</ele>
  <time>2026-08-28T17:56:16Z</time>
  <course>247.44</course>
  <speed>0.0</speed>
  <fix>3d</fix>
</trkpt>
<trkpt lat="40.0713749" lon="-105.229789">
  <ele>1583.0</ele>
  <time>2026-08-28T17:56:16Z</time>
  <course>0.0</course>
  <speed>0.0</speed>
  <fix>3d</fix>
</trkpt>
<trkpt lat="40.071375" lon="-105.229789">
  <ele>1583.0</ele>
  <time>2026-08-28T17:56:16Z</time>
  <course>247.44</course>
  <speed>0.0</speed>
  <fix>3d</fix>
</trkpt>
<trkpt lat="40.0713749" lon="-105.229789">
  <ele>1583.0</ele>
  <time>2026-08-28T17:56:16Z</time>
  <course>0.0</course>
  <speed>0.0</speed>
  <fix>3d</fix>
</trkpt>
<trkpt lat="40.071375" lon="-105.229789">
  <ele>1583.0</ele>
  <time>2026-08-28T17:56:16Z</time>
  <course>247.44</course>
  <speed>0.0</speed>
  <fix>3d</fix>
</trkpt>
<trkpt lat="40.0713749" lon="-105.229789">
  <ele>1583.0</ele>
  <time>2026-08-28T17:56:16Z</time>
  <course>0.0</course>
  <speed>0.0</speed>
  <fix>3d</fix>
</trkpt>
<trkpt lat="40.071375" lon="-105.229789">
  <ele>1583.0</ele>
  <time>2026-08-28T17:56:16Z</time>
  <course>247.44</course>
  <speed>0.0</speed>
  <fix>3d</fix>
</trkpt>
<trkpt lat="40.0713749" lon="-105.229789">
  <ele>1583.0</ele>
  <time>2026-08-28T17:56:16Z</time>
  <course>0.0</course>
  <speed>0.0</speed>
  <fix>3d</fix>
</trkpt>
<trkpt lat="40.071375" lon="-105.229789">
  <ele>1583.01</ele>
  <time>2026-08-28T17:56:16Z</time>
  <course>247.44</course>
  <speed>0.0</speed>
  <fix>3d</fix>
</trkpt>
<trkpt lat="40.0713749" lon="-105.229789">
  <ele>1583.0</ele>
  <time>2026-08-28T17:56:16Z</time>
  <course>0.0</course>
  <speed>0.0</speed>
  <fix>3d</fix>
</trkpt>
<trkpt lat="40.071375" lon="-105.229789">
  <ele>1583.01</ele>
  <time>2026-08-28T17:56:16Z</time>
  <course>247.43</course>
  <speed>0.0</speed>
  <fix>3d</fix>
</trkpt>
<trkpt lat="40.0713749" lon="-105.229789">
  <ele>1583.0</ele>
  <time>2026-08-28T17:56:16Z</time>
  <course>0.0</course>
  <speed>0.0</speed>
  <fix>3d</fix>
</trkpt>
<trkpt lat="40.071375" lon="-105.229789">
  <ele>1583.01</ele>
  <time>2026-08-28T17:56:16Z</time>
  <course>247.43</course>
  <speed>0.0</speed>
  <fix>3d</fix>
</trkpt>
<trkpt lat="40.0713749" lon="-105.229789">
  <ele>1583.0</ele>
  <time>2026-08-28T17:56:16Z</time>
  <course>0.0</course>
  <speed>0.0</speed>
  <fix>3d</fix>
</trkpt>
<trkpt lat="40.071375" lon="-105.229789">
  <ele>1583.01</ele>
  <time>2026-08-28T17:56:16Z</time>
  <course>247.43</course>
  <speed>0.0</speed>
  <fix>3d</fix>
</trkpt>
<trkpt lat="40.0713749" lon="-105.229789">
  <ele>1583.0</ele>
  <time>2026-08-28T17:56:16Z</time>
  <course>0.0</course>
  <speed>0.0</speed>
  <fix>3d</fix>
</trkpt>
<trkpt lat="40.071375" lon="-105.229789">
  <ele>1583.01</ele>
  <time>2026-08-28T17:56:16Z</time>
  <course>247.43</course>
  <speed>0.0</speed>
  <fix>3d</fix>
</trkpt>
<trkpt lat="40.0713749" lon="-105.229789">
  <ele>1583.0</ele>
  <time>2026-08-28T17:56:16Z</time>
  <course>0.0</course>
  <speed>0.0</speed>
  <fix>3d</fix>
</trkpt>
<trkpt lat="40.0713749" lon="-105.229789">
  <ele>1583.01</ele>
  <time>2026-08-28T17:56:16Z</time>
  <course>247.43</course>
  <speed>0.0</speed>
  <fix>3d</fix>
</trkpt>
<trkpt lat="40.0713749" lon="-105.229789">
  <ele>1583.0</ele>
  <time>2026-08-28T17:56:16Z</time>
  <course>0.0</course>
  <speed>0.0</speed>
  <fix>3d</fix>
</trkpt>
<trkpt lat="40.0713749" lon="-105.229789">
  <ele>1583.01</ele>
  <time>2026-08-28T17:56:16Z</time>
  <course>247.43</course>
  <speed>0.0</speed>
  <fix>3d</fix>
</trkpt>
<trkpt lat="40.0713749" lon="-105.229789">
  <ele>1583.0</ele>
  <time>2026-08-28T17:56:16Z</time>
  <course>0.0</course>
  <speed>0.0</speed>
  <fix>3d</fix>
</trkpt>
<trkpt lat="40.0713749" lon="-105.229789">
  <ele>1583.02</ele>
  <time>2026-08-28T17:56:16Z</time>
  <course>247.42</course>
  <speed>0.0</speed>
  <fix>3d</fix>
</trkpt>
<trkpt lat="40.0713749" lon="-105.229789">
  <ele>1583.0</ele>
  <time>2026-08-28T17:56:16Z</time>
  <course>0.0</course>
  <speed>0.0</speed>
  <fix>3d</fix>
</trkpt>
<trkpt lat="40.0713749" lon="-105.229789">
  <ele>1583.01</ele>
  <time>2026-08-28T17:56:16Z</time>
  <course>247.42</course>
  <speed>0.0</speed>
  <fix>3d</fix>
</trkpt>
<trkpt lat="40.0713749" lon="-105.229789">
  <ele>1583.0</ele>
  <time>2026-08-28T17:56:16Z</time>
  <course>0.0</course>
  <speed>0.0</speed>
  <fix>3d</fix>
</trkpt>
<trkpt lat="40.0713749" lon="-105.229789">
  <ele>1583.01</ele>
  <time>2026-08-28T17:56:16Z</time>
  <course>247.42</course>
  <speed>0.0</speed>
  <fix>3d</fix>
</trkpt>
<trkpt lat="40.0713749" lon="-105.229789">
  <ele>1583.0</ele>
  <time>2026-08-28T17:56:16Z</time>
  <course>0.0</course>
  <speed>0.0</speed>
  <fix>3d</fix>
</trkpt>
<trkpt lat="40.0713749" lon="-105.229789">
  <ele>1583.01</ele>
  <time>2026-08-28T17:56:16Z</time>
  <course>247.42</course>
  <speed>0.0</speed>
  <fix>3d</fix>
</trkpt>
<trkpt lat="40.0713749" lon="-105.229789">
  <ele>1583.0</ele>
  <time>2026-08-28T17:56:16Z</time>
  <course>0.0</course>
  <speed>0.0</speed>
  <fix>3d</fix>
</trkpt>
<trkpt lat="40.0713749" lon="-105.229789">
  <ele>1583.01</ele>
  <time>2026-08-28T17:56:16Z</time>
  <course>247.42</course>
  <speed>0.0</speed>
  <fix>3d</fix>
</trkpt>
<trkpt lat="40.0713749" lon="-105.229789">
  <ele>1583.0</ele>
  <time>2026-08-28T17:56:16Z</time>
  <course>0.0</course>
  <speed>0.0</speed>
  <fix>3d</fix>
</trkpt>
<trkpt lat="40.071375" lon="-105.229789">
  <ele>1583.01</ele>
  <time>2026-08-28T17:56:16Z</time>
  <course>247.41</course>
  <speed>0.0</speed>
  <fix>3d</fix>
</trkpt>
<trkpt lat="40.0713749" lon="-105.229789">
  <ele>1583.0</ele>
  <time>2026-08-28T17:56:16Z</time>
  <course>0.0</course>
  <speed>0.0</speed>
  <fix>3d</fix>
</trkpt>
<trkpt lat="40.071375" lon="-105.229789">
  <ele>1583.01</ele>
  <time>2026-08-28T17:56:16Z</time>
  <course>247.41</course>
  <speed>0.0</speed>
  <fix>3d</fix>
</trkpt>
<trkpt lat="40.0713749" lon="-105.229789">
  <ele>1583.0</ele>
  <time>2026-08-28T17:56:16Z</time>
  <course>0.0</course>
  <speed>0.0</speed>
  <fix>3d</fix>
</trkpt>
<trkpt lat="40.071375" lon="-105.229789">
  <ele>1583.02</ele>
  <time>2026-08-28T17:56:16Z</time>
  <course>247.41</course>
  <speed>0.0</speed>
  <fix>3d</fix>
</trkpt>
<trkpt lat="40.0713749" lon="-105.229789">
  <ele>1583.0</ele>
  <time>2026-08-28T17:56:16Z</time>
  <course>0.0</course>
  <speed>0.0</speed>
  <fix>3d</fix>
</trkpt>
<trkpt lat="40.071375" lon="-105.229789">
  <ele>1583.02</ele>
  <time>2026-08-28T17:56:16Z</time>
  <course>247.41</course>
  <speed>0.0</speed>
  <fix>3d</fix>
</trkpt>
<trkpt lat="40.0713749" lon="-105.229789">
  <ele>1583.0</ele>
  <time>2026-08-28T17:56:16Z</time>
  <course>0.0</course>
  <speed>0.0</speed>
  <fix>3d</fix>
</trkpt>
<trkpt lat="40.071375" lon="-105.229789">
  <ele>1583.02</ele>
  <time>2026-08-28T17:56:16Z</time>
  <course>247.41</course>
  <speed>0.0</speed>
  <fix>3d</fix>
</trkpt>
<trkpt lat="40.0713749" lon="-105.229789">
  <ele>1583.0</ele>
  <time>2026-08-28T17:56:16Z</time>
  <course>0.0</course>
  <speed>0.0</speed>
  <fix>3d</fix>
</trkpt>
<trkpt lat="40.071375" lon="-105.229789">
  <ele>1583.02</ele>
  <time>2026-08-28T17:56:16Z</time>
  <course>247.41</course>
  <speed>0.0</speed>
  <fix>3d</fix>
</trkpt>
<trkpt lat="40.0713749" lon="-105.229789">
  <ele>1583.0</ele>
  <time>2026-08-28T17:56:16Z</time>
  <course>0.0</course>
  <speed>0.0</speed>
  <fix>3d</fix>
</trkpt>
<trkpt lat="40.071375" lon="-105.229789">
  <ele>1583.02</ele>
  <time>2026-08-28T17:56:16Z</time>
  <course>247.4</course>
  <speed>0.0</speed>
  <fix>3d</fix>
</trkpt>
<trkpt lat="40.0713749" lon="-105.229789">
  <ele>1583.0</ele>
  <time>2026-08-28T17:56:16Z</time>
  <course>0.0</course>
  <speed>0.0</speed>
  <fix>3d</fix>
</trkpt>
<trkpt lat="40.071375" lon="-105.229789">
  <ele>1583.02</ele>
  <time>2026-08-28T17:56:16Z</time>
  <course>247.4</course>
  <speed>0.0</speed>
  <fix>3d</fix>
</trkpt>
<trkpt lat="40.0713749" lon="-105.229789">
  <ele>1583.0</ele>
  <time>2026-08-28T17:56:16Z</time>
  <course>0.0</course>
  <speed>0.0</speed>
  <fix>3d</fix>
</trkpt>
<trkpt lat="40.071375" lon="-105.229789">
  <ele>1583.02</ele>
  <time>2026-08-28T17:56:16Z</time>
  <course>247.4</course>
  <speed>0.0</speed>
  <fix>3d</fix>
</trkpt>
<trkpt lat="40.0713749" lon="-105.229789">
  <ele>1583.0</ele>
  <time>2026-08-28T17:56:16Z</time>
  <course>0.0</course>
  <speed>0.0</speed>
  <fix>3d</fix>
</trkpt>
<trkpt lat="40.071375" lon="-105.229789">
  <ele>1583.02</ele>
  <time>2026-08-28T17:56:16Z</time>
  <course>247.4</course>
  <speed>0.0</speed>
  <fix>3d</fix>
</trkpt>
<trkpt lat="40.0713749" lon="-105.229789">
  <ele>1583.0</ele>
  <time>2026-08-28T17:56:16Z</time>
  <course>0.0</course>
  <speed>0.0</speed>
  <fix>3d</fix>
</trkpt>
<trkpt lat="40.071375" lon="-105.229789">
  <ele>1583.03</ele>
  <time>2026-08-28T17:56:16Z</time>
  <course>247.4</course>
  <speed>0.0</speed>
  <fix>3d</fix>
</trkpt>
<trkpt lat="40.0713749" lon="-105.229789">
  <ele>1583.0</ele>
  <time>2026-08-28T17:56:16Z</time>
  <course>0.0</course>
  <speed>0.0</speed>
  <fix>3d</fix>
</trkpt>
<trkpt lat="40.071375" lon="-105.229789">
  <ele>1583.03</ele>
  <time>2026-08-28T17:56:16Z</time>
  <course>247.4</course>
  <speed>0.0</speed>
  <fix>3d</fix>
</trkpt>
<trkpt lat="40.0713749" lon="-105.229789">
  <ele>1583.0</ele>
  <time>2026-08-28T17:56:16Z</time>
  <course>0.0</course>
  <speed>0.0</speed>
  <fix>3d</fix>
</trkpt>
<trkpt lat="40.071375" lon="-105.229789">
  <ele>1583.03</ele>
  <time>2026-08-28T17:56:16Z</time>
  <course>247.4</course>
  <speed>0.0</speed>
  <fix>3d</fix>
</trkpt>
<trkpt lat="40.0713749" lon="-105.229789">
  <ele>1583.0</ele>
  <time>2026-08-28T17:56:16Z</time>
  <course>0.0</course>
  <speed>0.0</speed>
  <fix>3d</fix>
</trkpt>
<trkpt lat="40.071375" lon="-105.229789">
  <ele>1583.03</ele>
  <time>2026-08-28T17:56:16Z</time>
  <course>247.39</course>
  <speed>0.01</speed>
  <fix>3d</fix>
</trkpt>
<trkpt lat="40.0713749" lon="-105.229789">
  <ele>1583.0</ele>
  <time>2026-08-28T17:56:16Z</time>
  <course>0.0</course>
  <speed>0.0</speed>
  <fix>3d</fix>
</trkpt>
<trkpt lat="40.071375" lon="-105.229789">
  <ele>1583.03</ele>
  <time>2026-08-28T17:56:16Z</time>
  <course>247.39</course>
  <speed>0.15811388300841897</speed>
  <fix>3d</fix>
</trkpt>
<trkpt lat="40.0713749" lon="-105.229789">
  <ele>1583.0</ele>
  <time>2026-08-28T17:56:16Z</time>
  <course>246.0</course>
  <speed>0.06</speed>
  <fix>3d</fix>
</trkpt>
<trkpt lat="40.0713749" lon="-105.2297894">
  <ele>1583.04</ele>
  <time>2026-08-28T17:56:16Z</time>
  <course>247.39</course>
  <speed>0.38626415831655936</speed>
  <fix>3d</fix>
</trkpt>
<trkpt lat="40.0713749" lon="-105.229789">
  <ele>1583.0</ele>
  <time>2026-08-28T17:56:16Z</time>
  <course>246.0</course>
  <speed>0.06</speed>
  <fix>3d</fix>
</trkpt>
<trkpt lat="40.0713747" lon="-105.22979">
  <ele>1583.04</ele>
  <time>2026-08-28T17:56:16Z</time>
  <course>247.39</course>
  <speed>0.7000714249274855</speed>
  <fix>3d</fix>
</trkpt>
<trkpt lat="40.0713748" lon="-105.2297893">
  <ele>1583.0</ele>
  <time>2026-08-28T17:56:16Z</time>
  <course>246.0</course>
  <speed>0.39</speed>
  <fix>3d</fix>
</trkpt>
<trkpt lat="40.0713743" lon="-105.229791">
  <ele>1583.04</ele>
  <time>2026-08-28T17:56:16Z</time>
  <course>247.39</course>
  <speed>1.0231813133555558</speed>
  <fix>3d</fix>
</trkpt>
<trkpt lat="40.0713748" lon="-105.2297893">
  <ele>1583.0</ele>
  <time>2026-08-28T17:56:16Z</time>
  <course>246.0</course>
  <speed>0.39</speed>
  <fix>3d</fix>
</trkpt>
<trkpt lat="40.0713739" lon="-105.2297923">
  <ele>1583.04</ele>
  <time>2026-08-28T17:56:16Z</time>
  <course>247.39</course>
  <speed>1.327742444904131</speed>
  <fix>3d</fix>
</trkpt>
<trkpt lat="40.0713744" lon="-105.2297908">
  <ele>1583.0</ele>
  <time>2026-08-28T17:56:16Z</time>
  <course>246.0</course>
  <speed>0.95</speed>
  <fix>3d</fix>
</trkpt>
<trkpt lat="40.0713734" lon="-105.229794">
  <ele>1583.05</ele>
  <time>2026-08-28T17:56:16Z</time>
  <course>247.38</course>
  <speed>1.6230834852218785</speed>
  <fix>3d</fix>
</trkpt>
<trkpt lat="40.0713744" lon="-105.2297908">
  <ele>1583.0</ele>
  <time>2026-08-28T17:56:16Z</time>
  <course>246.0</course>
  <speed>0.95</speed>
  <fix>3d</fix>
</trkpt>
<trkpt lat="40.0713727" lon="-105.229796">
  <ele>1583.05</ele>
  <time>2026-08-28T17:56:16Z</time>
  <course>247.37</course>
  <speed>1.9053870997778903</speed>
  <fix>3d</fix>
</trkpt>
<trkpt lat="40.0713735" lon="-105.2297935">
  <ele>1583.0</ele>
  <time>2026-08-28T17:56:16Z</time>
  <course>246.0</course>
  <speed>1.55</speed>
  <fix>3d</fix>
</trkpt>
<trkpt lat="40.071372" lon="-105.2297983">
  <ele>1583.05</ele>
  <time>2026-08-28T17:56:16Z</time>
  <course>247.36</course>
  <speed>2.174626404695758</speed>
  <fix>3d</fix>
</trkpt>
<trkpt lat="40.0713735" lon="-105.2297935">
  <ele>1583.0</ele>
  <time>2026-08-28T17:56:16Z</time>
  <course>246.0</course>
  <speed>1.55</speed>
  <fix>3d</fix>
</trkpt>
<trkpt lat="40.0713712" lon="-105.2298008">
  <ele>1583.06</ele>
  <time>2026-08-28T17:56:16Z</time>
  <course>247.35</course>
  <speed>2.4253865671269805</speed>
  <fix>3d</fix>
</trkpt>
<trkpt lat="40.0713721" lon="-105.2297974">
  <ele>1583.0</ele>
  <time>2026-08-28T17:56:16Z</time>
  <course>246.0</course>
  <speed>2.08</speed>
  <fix>3d</fix>
</trkpt>
<trkpt lat="40.0713703" lon="-105.2298036">
  <ele>1583.06</ele>
  <time>2026-08-28T17:56:16Z</time>
  <course>247.33</course>
  <speed>2.653846265328872</speed>
  <fix>3d</fix>
</trkpt>
<trkpt lat="40.0713721" lon="-105.2297974">
  <ele>1583.0</ele>
  <time>2026-08-28T17:56:16Z</time>
  <course>246.0</course>
  <speed>2.08</speed>
  <fix>3d</fix>
</trkpt>
<trkpt lat="40.0713693" lon="-105.2298066">
  <ele>1583.06</ele>
  <time>2026-08-28T17:56:16Z</time>
  <course>247.32</course>
  <speed>2.8823081028925412</speed>
  <fix>3d</fix>
</trkpt>
<trkpt lat="40.0713704" lon="-105.2298025">
  <ele>1583.0</ele>
  <time>2026-08-28T17:56:16Z</time>
  <course>246.0</course>
  <speed>2.57</speed>
  <fix>3d</fix>
</trkpt>
<trkpt lat="40.0713682" lon="-105.2298099">
  <ele>1583.06</ele>
  <time>2026-08-28T17:56:16Z</time>
  <course>247.29</course>
  <speed>3.101548000595831</speed>
  <fix>3d</fix>
</trkpt>
<trkpt lat="40.0713704" lon="-105.2298025">
  <ele>1583.0</ele>
  <time>2026-08-28T17:56:16Z</time>
  <course>246.0</course>
  <speed>2.57</speed>
  <fix>3d</fix>
</trkpt>
<trkpt lat="40.0713673" lon="-105.2298126">
  <ele>1583.06</ele>
  <time>2026-08-28T17:56:16Z</time>
  <course>247.28</course>
  <speed>3.2669557695199978</speed>
  <fix>3d</fix>
</trkpt>
<trkpt lat="40.0713684" lon="-105.2298084">
  <ele>1583.0</ele>
  <time>2026-08-28T17:56:16Z</time>
  <course>246.0</course>
  <speed>3.01</speed>
  <fix>3d</fix>
</trkpt>
<trkpt lat="40.071366" lon="-105.2298163">
  <ele>1583.06</ele>
  <time>2026-08-28T17:56:16Z</time>
  <course>247.25</course>
  <speed>3.4638995366494107</speed>
  <fix>3d</fix>
</trkpt>
<trkpt lat="40.0713684" lon="-105.2298084">
  <ele>1583.0</ele>
  <time>2026-08-28T17:56:16Z</time>
  <course>246.0</course>
  <speed>3.01</speed>
  <fix>3d</fix>
</trkpt>
<trkpt lat="40.0713647" lon="-105.2298202">
  <ele>1583.06</ele>
  <time>2026-08-28T17:56:16Z</time>
  <course>247.23</course>
  <speed>3.6516434656192818</speed>
  <fix>3d</fix>
</trkpt>
<trkpt lat="40.071366" lon="-105.2298154">
  <ele>1583.0</ele>
  <time>2026-08-28T17:56:16Z</time>
  <course>246.0</course>
  <speed>3.41</speed>
  <fix>3d</fix>
</trkpt>
<trkpt lat="40.0713633" lon="-105.2298242">
  <ele>1583.07</ele>
  <time>2026-08-28T17:56:16Z</time>
  <course>247.2</course>
  <speed>3.8354791095767946</speed>
  <fix>3d</fix>
</trkpt>
<trkpt lat="40.071366" lon="-105.2298154">
  <ele>1583.0</ele>
  <time>2026-08-28T17:56:16Z</time>
  <course>246.0</course>
  <speed>3.41</speed>
  <fix>3d</fix>
</trkpt>
<trkpt lat="40.0713619" lon="-105.2298285">
  <ele>1583.07</ele>
  <time>2026-08-28T17:56:16Z</time>
  <course>247.18</course>
  <speed>4.004847063247235</speed>
  <fix>3d</fix>
</trkpt>
<trkpt lat="40.0713633" lon="-105.2298231">
  <ele>1583.0</ele>
  <time>2026-08-28T17:56:16Z</time>
  <course>246.0</course>
  <speed>3.77</speed>
  <fix>3d</fix>
</trkpt>
<trkpt lat="40.0713604" lon="-105.2298329">
  <ele>1583.07</ele>
  <time>2026-08-28T17:56:16Z</time>
  <course>247.16</course>
  <speed>4.1702997494185</speed>
  <fix>3d</fix>
</trkpt>
<trkpt lat="40.0713633" lon="-105.2298231">
  <ele>1583.0</ele>
  <time>2026-08-28T17:56:16Z</time>
  <course>246.0</course>
  <speed>3.77</speed>
  <fix>3d</fix>
</trkpt>
<trkpt lat="40.0713588" lon="-105.2298375">
  <ele>1583.07</ele>
  <time>2026-08-28T17:56:16Z</time>
  <course>247.14</course>
  <speed>4.322614949310197</speed>
  <fix>3d</fix>
</trkpt>
<trkpt lat="40.0713605" lon="-105.2298315">
  <ele>1583.0</ele>
  <time>2026-08-28T17:56:16Z</time>
  <course>246.0</course>
  <speed>4.09</speed>
  <fix>3d</fix>
</trkpt>
<trkpt lat="40.0713571" lon="-105.2298423">
  <ele>1583.07</ele>
  <time>2026-08-28T17:56:16Z</time>
  <course>247.12</course>
  <speed>4.474930167052889</speed>
  <fix>3d</fix>
</trkpt>
<trkpt lat="40.0713605" lon="-105.2298315">
  <ele>1583.0</ele>
  <time>2026-08-28T17:56:16Z</time>
  <course>246.0</course>
  <speed>4.09</speed>
  <fix>3d</fix>
</trkpt>
<trkpt lat="40.0713555" lon="-105.2298472">
  <ele>1583.07</ele>
  <time>2026-08-28T17:56:16Z</time>
  <course>247.11</course>
  <speed>4.608882727950452</speed>
  <fix>3d</fix>
</trkpt>
<trkpt lat="40.0713573" lon="-105.2298407">
  <ele>1583.0</ele>
  <time>2026-08-28T17:56:16Z</time>
  <course>246.0</course>
  <speed>4.39</speed>
  <fix>3d</fix>
</trkpt>
<trkpt lat="40.0713534" lon="-105.2298533">
  <ele>1583.07</ele>
  <time>2026-08-28T17:56:16Z</time>
  <course>247.09</course>
  <speed>4.774348123042558</speed>
  <fix>3d</fix>
</trkpt>
<trkpt lat="40.0713573" lon="-105.2298407">
  <ele>1583.0</ele>
  <time>2026-08-28T17:56:16Z</time>
  <course>246.0</course>
  <speed>4.39</speed>
  <fix>3d</fix>
</trkpt>
<trkpt lat="40.0713516" lon="-105.2298585">
  <ele>1583.08</ele>
  <time>2026-08-28T17:56:16Z</time>
  <course>247.08</course>
  <speed>4.895160875803777</speed>
  <fix>3d</fix>
</trkpt>
<trkpt lat="40.071354" lon="-105.2298504">
  <ele>1583.0</ele>
  <time>2026-08-28T17:56:16Z</time>
  <course>246.0</course>
  <speed>4.66</speed>
  <fix>3d</fix>
</trkpt>
<trkpt lat="40.0713498" lon="-105.2298638">
  <ele>1583.08</ele>
  <time>2026-08-28T17:56:16Z</time>
  <course>247.06</course>
  <speed>5.015974481593781</speed>
  <fix>3d</fix>
</trkpt>
<trkpt lat="40.071354" lon="-105.2298504">
  <ele>1583.0</ele>
  <time>2026-08-28T17:56:16Z</time>
  <course>246.0</course>
  <speed>4.66</speed>
  <fix>3d</fix>
</trkpt>
<trkpt lat="40.0713479" lon="-105.2298693">
  <ele>1583.08</ele>
  <time>2026-08-28T17:56:16Z</time>
  <course>247.05</course>
  <speed>5.127621280866987</speed>
  <fix>3d</fix>
</trkpt>
<trkpt lat="40.0713505" lon="-105.2298606">
  <ele>1583.0</ele>
  <time>2026-08-28T17:56:16Z</time>
  <course>246.0</course>
  <speed>4.9</speed>
  <fix>3d</fix>
</trkpt>
<trkpt lat="40.071346" lon="-105.2298748">
  <ele>1583.08</ele>
  <time>2026-08-28T17:56:16Z</time>
  <course>247.04</course>
  <speed>5.230114721495122</speed>
  <fix>3d</fix>
</trkpt>
<trkpt lat="40.0713505" lon="-105.2298606">
  <ele>1583.0</ele>
  <time>2026-08-28T17:56:16Z</time>
  <course>246.0</course>
  <speed>4.9</speed>
  <fix>3d</fix>
</trkpt>
<trkpt lat="40.071344" lon="-105.2298805">
  <ele>1583.08</ele>
  <time>2026-08-28T17:56:16Z</time>
  <course>247.03</course>
  <speed>5.328602068085024</speed>
  <fix>3d</fix>
</trkpt>
<trkpt lat="40.0713469" lon="-105.2298713">
  <ele>1583.0</ele>
  <time>2026-08-28T17:56:16Z</time>
  <course>246.0</course>
  <speed>5.12</speed>
  <fix>3d</fix>
</trkpt>
<trkpt lat="40.0713421" lon="-105.2298862">
  <ele>1583.09</ele>
  <time>2026-08-28T17:56:16Z</time>
  <course>247.03</course>
  <speed>5.427089459369544</speed>
  <fix>3d</fix>
</trkpt>
<trkpt lat="40.0713469" lon="-105.2298713">
  <ele>1583.0</ele>
  <time>2026-08-28T17:56:16Z</time>
  <course>246.0</course>
  <speed>5.12</speed>
  <fix>3d</fix>
</trkpt>
<trkpt lat="40.0713401" lon="-105.2298919">
  <ele>1583.09</ele>
  <time>2026-08-28T17:56:16Z</time>
  <course>247.02</course>
  <speed>5.5072679252057455</speed>
  <fix>3d</fix>
</trkpt>
<trkpt lat="40.0713431" lon="-105.2298826">
  <ele>1583.0</ele>
  <time>2026-08-28T17:56:16Z</time>
  <course>246.0</course>
  <speed>5.32</speed>
  <fix>3d</fix>
</trkpt>
<trkpt lat="40.0713381" lon="-105.2298978">
  <ele>1583.09</ele>
  <time>2026-08-28T17:56:16Z</time>
  <course>247.02</course>
  <speed>5.592575435342826</speed>
  <fix>3d</fix>
</trkpt>
<trkpt lat="40.0713431" lon="-105.2298826">
  <ele>1583.0</ele>
  <time>2026-08-28T17:56:16Z</time>
  <course>246.0</course>
  <speed>5.32</speed>
  <fix>3d</fix>
</trkpt>
<trkpt lat="40.0713361" lon="-105.2299037">
  <ele>1583.09</ele>
  <time>2026-08-28T17:56:16Z</time>
  <course>247.02</course>
  <speed>5.668730016502815</speed>
  <fix>3d</fix>
</trkpt>
<trkpt lat="40.0713392" lon="-105.2298941">
  <ele>1583.0</ele>
  <time>2026-08-28T17:56:16Z</time>
  <course>246.0</course>
  <speed>5.49</speed>
  <fix>3d</fix>
</trkpt>
<trkpt lat="40.071334" lon="-105.2299097">
  <ele>1583.1</ele>
  <time>2026-08-28T17:56:16Z</time>
  <course>247.02</course>
  <speed>5.735730119174018</speed>
  <fix>3d</fix>
</trkpt>
<trkpt lat="40.0713392" lon="-105.2298941">
  <ele>1583.0</ele>
  <time>2026-08-28T17:56:16Z</time>
  <course>246.0</course>
  <speed>5.49</speed>
  <fix>3d</fix>
</trkpt>
<trkpt lat="40.0713324" lon="-105.2299146">
  <ele>1583.1</ele>
  <time>2026-08-28T17:56:16Z</time>
  <course>247.01</course>
  <speed>5.793582656698703</speed>
  <fix>3d</fix>
</trkpt>
<trkpt lat="40.0713351" lon="-105.2299061">
  <ele>1583.0</ele>
  <time>2026-08-28T17:56:16Z</time>
  <course>245.99</course>
  <speed>5.66</speed>
  <fix>3d</fix>
</trkpt>
<trkpt lat="40.0713302" lon="-105.2299208">
  <ele>1583.1</ele>
  <time>2026-08-28T17:56:16Z</time>
  <course>247.01</course>
  <speed>5.860588707629977</speed>
  <fix>3d</fix>
</trkpt>
<trkpt lat="40.0713351" lon="-105.2299061">
  <ele>1583.0</ele>
  <time>2026-08-28T17:56:16Z</time>
  <course>245.99</course>
  <speed>5.66</speed>
  <fix>3d</fix>
</trkpt>
<trkpt lat="40.0713281" lon="-105.229927">
  <ele>1583.11</ele>
  <time>2026-08-28T17:56:16Z</time>
  <course>247.01</course>
  <speed>5.923554676037017</speed>
  <fix>3d</fix>
</trkpt>
<trkpt lat="40.0713308" lon="-105.2299185">
  <ele>1583.0</ele>
  <time>2026-08-28T17:56:16Z</time>
  <course>245.99</course>
  <speed>5.8</speed>
  <fix>3d</fix>
</trkpt>
<trkpt lat="40.0713259" lon="-105.2299333">
  <ele>1583.11</ele>
  <time>2026-08-28T17:56:16Z</time>
  <course>247.01</course>
  <speed>5.990559239336508</speed>
  <fix>3d</fix>
</trkpt>
<trkpt lat="40.0713308" lon="-105.2299185">
  <ele>1583.0</ele>
  <time>2026-08-28T17:56:16Z</time>
  <course>245.99</course>
  <speed>5.8</speed>
  <fix>3d</fix>
</trkpt>
<trkpt lat="40.0713237" lon="-105.2299398">
  <ele>1583.11</ele>
  <time>2026-08-28T17:56:16Z</time>
  <course>247.01</course>
  <speed>6.048421281623826</speed>
  <fix>3d</fix>
</trkpt>
<trkpt lat="40.0713266" lon="-105.229931">
  <ele>1583.0</ele>
  <time>2026-08-28T17:56:16Z</time>
  <course>245.99</course>
  <speed>5.93</speed>
  <fix>3d</fix>
</trkpt>
<trkpt lat="40.0713215" lon="-105.2299463">
  <ele>1583.11</ele>
  <time>2026-08-28T17:56:16Z</time>
  <course>247.01</course>
  <speed>6.102237294632191</speed>
  <fix>3d</fix>
</trkpt>
<trkpt lat="40.0713266" lon="-105.229931">
  <ele>1583.0</ele>
  <time>2026-08-28T17:56:16Z</time>
  <course>245.99</course>
  <speed>5.93</speed>
  <fix>3d</fix>
</trkpt>
<trkpt lat="40.0713193" lon="-105.2299529">
  <ele>1583.12</ele>
  <time>2026-08-28T17:56:16Z</time>
  <course>247.01</course>
  <speed>6.156053930887871</speed>
  <fix>3d</fix>
</trkpt>
<trkpt lat="40.0713222" lon="-105.2299439">
  <ele>1583.0</ele>
  <time>2026-08-28T17:56:16Z</time>
  <course>246.0</course>
  <speed>6.05</speed>
  <fix>3d</fix>
</trkpt>
<trkpt lat="40.071317" lon="-105.2299595">
  <ele>1583.12</ele>
  <time>2026-08-28T17:56:16Z</time>
  <course>247.01</course>
  <speed>6.213919857867496</speed>
  <fix>3d</fix>
</trkpt>
<trkpt lat="40.0713222" lon="-105.2299439">
  <ele>1583.0</ele>
  <time>2026-08-28T17:56:16Z</time>
  <course>246.0</course>
  <speed>6.05</speed>
  <fix>3d</fix>
</trkpt>
<trkpt lat="40.0713147" lon="-105.2299662">
  <ele>1583.12</ele>
  <time>2026-08-28T17:56:16Z</time>
  <course>247.01</course>
  <speed>6.267734838041571</speed>
  <fix>3d</fix>
</trkpt>
<trkpt lat="40.0713177" lon="-105.2299571">
  <ele>1583.0</ele>
  <time>2026-08-28T17:56:16Z</time>
  <course>246.0</course>
  <speed>6.16</speed>
  <fix>3d</fix>
</trkpt>
<trkpt lat="40.0713124" lon="-105.229973">
  <ele>1583.12</ele>
  <time>2026-08-28T17:56:16Z</time>
  <course>247.01</course>
  <speed>6.312408415177206</speed>
  <fix>3d</fix>
</trkpt>
<trkpt lat="40.0713177" lon="-105.2299571">
  <ele>1583.0</ele>
  <time>2026-08-28T17:56:16Z</time>
  <course>246.0</course>
  <speed>6.16</speed>
  <fix>3d</fix>
</trkpt>
<trkpt lat="40.0713096" lon="-105.2299812">
  <ele>1583.12</ele>
  <time>2026-08-28T17:56:16Z</time>
  <course>247.01</course>
  <speed>6.366223370256498</speed>
  <fix>3d</fix>
</trkpt>
<trkpt lat="40.0713132" lon="-105.2299704">
  <ele>1583.0</ele>
  <time>2026-08-28T17:56:16Z</time>
  <course>246.0</course>
  <speed>6.26</speed>
  <fix>3d</fix>
</trkpt>
<trkpt lat="40.0713073" lon="-105.229988">
  <ele>1583.12</ele>
  <time>2026-08-28T17:56:16Z</time>
  <course>247.02</course>
  <speed>6.410896973123184</speed>
  <fix>3d</fix>
</trkpt>
<trkpt lat="40.0713132" lon="-105.2299704">
  <ele>1583.0</ele>
  <time>2026-08-28T17:56:16Z</time>
  <course>246.0</course>
  <speed>6.26</speed>
  <fix>3d</fix>
</trkpt>
<trkpt lat="40.0713049" lon="-105.2299949">
  <ele>1583.12</ele>
  <time>2026-08-28T17:56:16Z</time>
  <course>247.02</course>
  <speed>6.303268993149507</speed>
  <fix>3d</fix>
</trkpt>
<trkpt lat="40.0713085" lon="-105.2299839">
  <ele>1583.0</ele>
  <time>2026-08-28T17:56:16Z</time>
  <course>246.0</course>
  <speed>6.31</speed>
  <fix>3d</fix>
</trkpt>
<trkpt lat="40.0713027" lon="-105.2300014">
  <ele>1583.12</ele>
  <time>2026-08-28T17:56:16Z</time>
  <course>247.02</course>
  <speed>5.998666518485587</speed>
  <fix>3d</fix>
</trkpt>
<trkpt lat="40.0713085" lon="-105.2299839">
  <ele>1583.0</ele>
  <time>2026-08-28T17:56:16Z</time>
  <course>246.0</course>
  <speed>6.31</speed>
  <fix>3d</fix>
</trkpt>
<trkpt lat="40.0713005" lon="-105.2300077">
  <ele>1583.12</ele>
  <time>2026-08-28T17:56:16Z</time>
  <course>247.02</course>
  <speed>5.70727605780551</speed>
  <fix>3d</fix>
</trkpt>
<trkpt lat="40.0713041" lon="-105.2299972">
  <ele>1583.0</ele>
  <time>2026-08-28T17:56:16Z</time>
  <course>246.0</course>
  <speed>6.02</speed>
  <fix>3d</fix>
</trkpt>
<trkpt lat="40.0712985" lon="-105.2300135">
  <ele>1583.12</ele>
  <time>2026-08-28T17:56:16Z</time>
  <course>247.02</course>
  <speed>5.415902510200863</speed>
  <fix>3d</fix>
</trkpt>
<trkpt lat="40.0713041" lon="-105.2299972">
  <ele>1583.0</ele>
  <time>2026-08-28T17:56:16Z</time>
  <course>246.0</course>
  <speed>6.02</speed>
  <fix>3d</fix>
</trkpt>
<trkpt lat="40.0712966" lon="-105.2300191">
  <ele>1583.12</ele>
  <time>2026-08-28T17:56:16Z</time>
  <course>247.03</course>
  <speed>5.15190256119038</speed>
  <fix>3d</fix>
</trkpt>
<trkpt lat="40.0712999" lon="-105.2300095">
  <ele>1583.0</ele>
  <time>2026-08-28T17:56:16Z</time>
  <course>245.99</course>
  <speed>5.44</speed>
  <fix>3d</fix>
</trkpt>
<trkpt lat="40.0712948" lon="-105.2300243">
  <ele>1583.11</ele>
  <time>2026-08-28T17:56:16Z</time>
  <course>247.03</course>
  <speed>4.892003679475312</speed>
  <fix>3d</fix>
</trkpt>
<trkpt lat="40.0712999" lon="-105.2300095">
  <ele>1583.0</ele>
  <time>2026-08-28T17:56:16Z</time>
  <course>245.99</course>
  <speed>5.44</speed>
  <fix>3d</fix>
</trkpt>
<trkpt lat="40.0712931" lon="-105.2300293">
  <ele>1583.11</ele>
  <time>2026-08-28T17:56:16Z</time>
  <course>247.03</course>
  <speed>4.641228285701965</speed>
  <fix>3d</fix>
</trkpt>
<trkpt lat="40.0712961" lon="-105.2300206">
  <ele>1583.0</ele>
  <time>2026-08-28T17:56:16Z</time>
  <course>245.99</course>
  <speed>4.93</speed>
  <fix>3d</fix>
</trkpt>
<trkpt lat="40.0712915" lon="-105.2300339">
  <ele>1583.11</ele>
  <time>2026-08-28T17:56:16Z</time>
  <course>247.02</course>
  <speed>4.403691633164157</speed>
  <fix>3d</fix>
</trkpt>
<trkpt lat="40.0712961" lon="-105.2300206">
  <ele>1583.0</ele>
  <time>2026-08-28T17:56:16Z</time>
  <course>245.99</course>
  <speed>4.93</speed>
  <fix>3d</fix>
</trkpt>
<trkpt lat="40.0712899" lon="-105.2300384">
  <ele>1583.11</ele>
  <time>2026-08-28T17:56:16Z</time>
  <course>247.02</course>
  <speed>4.184375700149307</speed>
  <fix>3d</fix>
</trkpt>
<trkpt lat="40.0712927" lon="-105.2300307">
  <ele>1583.0</ele>
  <time>2026-08-28T17:56:16Z</time>
  <course>245.99</course>
  <speed>4.46</speed>
  <fix>3d</fix>
</trkpt>
<trkpt lat="40.0712888" lon="-105.2300418">
  <ele>1583.11</ele>
  <time>2026-08-28T17:56:16Z</time>
  <course>247.01</course>
  <speed>4.009750615686716</speed>
  <fix>3d</fix>
</trkpt>
<trkpt lat="40.0712927" lon="-105.2300307">
  <ele>1583.0</ele>
  <time>2026-08-28T17:56:16Z</time>
  <course>245.99</course>
  <speed>4.46</speed>
  <fix>3d</fix>
</trkpt>
<trkpt lat="40.0712874" lon="-105.2300459">
  <ele>1583.11</ele>
  <time>2026-08-28T17:56:16Z</time>
  <course>247.0</course>
  <speed>3.8036824262811426</speed>
  <fix>3d</fix>
</trkpt>
<trkpt lat="40.0712896" lon="-105.2300398">
  <ele>1583.0</ele>
  <time>2026-08-28T17:56:16Z</time>
  <course>245.99</course>
  <speed>4.03</speed>
  <fix>3d</fix>
</trkpt>
<trkpt lat="40.071286" lon="-105.2300497">
  <ele>1583.1</ele>
  <time>2026-08-28T17:56:16Z</time>
  <course>246.99</course>
  <speed>3.6067159577654575</speed>
  <fix>3d</fix>
</trkpt>
<trkpt lat="40.0712896" lon="-105.2300398">
  <ele>1583.0</ele>
  <time>2026-08-28T17:56:16Z</time>
  <course>245.99</course>
  <speed>4.03</speed>
  <fix>3d</fix>
</trkpt>
<trkpt lat="40.0712848" lon="-105.2300534">
  <ele>1583.1</ele>
  <time>2026-08-28T17:56:16Z</time>
  <course>246.98</course>
  <speed>3.432098483435462</speed>
  <fix>3d</fix>
</trkpt>
<trkpt lat="40.0712867" lon="-105.230048">
  <ele>1583.0</ele>
  <time>2026-08-28T17:56:16Z</time>
  <course>245.99</course>
  <speed>3.65</speed>
  <fix>3d</fix>
</trkpt>
<trkpt lat="40.0712836" lon="-105.2300569">
  <ele>1583.09</ele>
  <time>2026-08-28T17:56:16Z</time>
  <course>246.96</course>
  <speed>3.257483691440373</speed>
  <fix>3d</fix>
</trkpt>
<trkpt lat="40.0712867" lon="-105.230048">
  <ele>1583.0</ele>
  <time>2026-08-28T17:56:16Z</time>
  <course>245.99</course>
  <speed>3.65</speed>
  <fix>3d</fix>
</trkpt>
<trkpt lat="40.0712824" lon="-105.2300603">
  <ele>1583.09</ele>
  <time>2026-08-28T17:56:16Z</time>
  <course>246.95</course>
  <speed>3.0828720375649716</speed>
  <fix>3d</fix>
</trkpt>
<trkpt lat="40.0712842" lon="-105.2300554">
  <ele>1583.0</ele>
  <time>2026-08-28T17:56:16Z</time>
  <course>245.99</course>
  <speed>3.3</speed>
  <fix>3d</fix>
</trkpt>
<trkpt lat="40.0712813" lon="-105.2300634">
  <ele>1583.08</ele>
  <time>2026-08-28T17:56:16Z</time>
  <course>246.94</course>
  <speed>2.930614270080592</speed>
  <fix>3d</fix>
</trkpt>
<trkpt lat="40.0712842" lon="-105.2300554">
  <ele>1583.0</ele>
  <time>2026-08-28T17:56:16Z</time>
  <course>245.99</course>
  <speed>3.3</speed>
  <fix>3d</fix>
</trkpt>
<trkpt lat="40.0712803" lon="-105.2300665">
  <ele>1583.07</ele>
  <time>2026-08-28T17:56:16Z</time>
  <course>246.92</course>
  <speed>2.7741665415039525</speed>
  <fix>3d</fix>
</trkpt>
<trkpt lat="40.0712819" lon="-105.2300621">
  <ele>1583.0</ele>
  <time>2026-08-28T17:56:16Z</time>
  <course>245.99</course>
  <speed>2.99</speed>
  <fix>3d</fix>
</trkpt>
<trkpt lat="40.0712793" lon="-105.2300694">
  <ele>1583.06</ele>
  <time>2026-08-28T17:56:16Z</time>
  <course>246.91</course>
  <speed>2.6309884074240997</speed>
  <fix>3d</fix>
</trkpt>
<trkpt lat="40.0712819" lon="-105.2300621">
  <ele>1583.0</ele>
  <time>2026-08-28T17:56:16Z</time>
  <course>245.99</course>
  <speed>2.99</speed>
  <fix>3d</fix>
</trkpt>
<trkpt lat="40.0712783" lon="-105.2300721">
  <ele>1583.05</ele>
  <time>2026-08-28T17:56:16Z</time>
  <course>246.9</course>
  <speed>2.5010797668207227</speed>
  <fix>3d</fix>
</trkpt>
<trkpt lat="40.0712798" lon="-105.2300683">
  <ele>1583.0</ele>
  <time>2026-08-28T17:56:16Z</time>
  <course>245.99</course>
  <speed>2.7</speed>
  <fix>3d</fix>
</trkpt>
<trkpt lat="40.0712773" lon="-105.2300752">
  <ele>1583.04</ele>
  <time>2026-08-28T17:56:16Z</time>
  <course>246.89</course>
  <speed>2.344632167313244</speed>
  <fix>3d</fix>
</trkpt>
<trkpt lat="40.0712798" lon="-105.2300683">
  <ele>1583.0</ele>
  <time>2026-08-28T17:56:16Z</time>
  <course>245.99</course>
  <speed>2.7</speed>
  <fix>3d</fix>
</trkpt>
<trkpt lat="40.0712765" lon="-105.2300776">
  <ele>1583.04</ele>
  <time>2026-08-28T17:56:16Z</time>
  <course>246.88</course>
  <speed>2.223803048833237</speed>
  <fix>3d</fix>
</trkpt>
<trkpt lat="40.0712779" lon="-105.2300738">
  <ele>1583.0</ele>
  <time>2026-08-28T17:56:16Z</time>
  <course>245.99</course>
  <speed>2.44</speed>
  <fix>3d</fix>
</trkpt>
<trkpt lat="40.0712757" lon="-105.23008">
  <ele>1583.04</ele>
  <time>2026-08-28T17:56:16Z</time>
  <course>246.87</course>
  <speed>2.102974084481309</speed>
  <fix>3d</fix>
</trkpt>
<trkpt lat="40.0712779" lon="-105.2300738">
  <ele>1583.0</ele>
  <time>2026-08-28T17:56:16Z</time>
  <course>245.99</course>
  <speed>2.44</speed>
  <fix>3d</fix>
</trkpt>
<trkpt lat="40.0712749" lon="-105.2300822">
  <ele>1583.03</ele>
  <time>2026-08-28T17:56:16Z</time>
  <course>246.86</course>
  <speed>1.995419755339713</speed>
  <fix>3d</fix>
</trkpt>
<trkpt lat="40.0712762" lon="-105.2300788">
  <ele>1583.0</ele>
  <time>2026-08-28T17:56:16Z</time>
  <course>245.99</course>
  <speed>2.21</speed>
  <fix>3d</fix>
</trkpt>
<trkpt lat="40.0712742" lon="-105.2300843">
  <ele>1583.04</ele>
  <time>2026-08-28T17:56:16Z</time>
  <course>246.85</course>
  <speed>1.89274932307477</speed>
  <fix>3d</fix>
</trkpt>
<trkpt lat="40.0712762" lon="-105.2300788">
  <ele>1583.0</ele>
  <time>2026-08-28T17:56:16Z</time>
  <course>245.99</course>
  <speed>2.21</speed>
  <fix>3d</fix>
</trkpt>
<trkpt lat="40.0712735" lon="-105.2300863">
  <ele>1583.04</ele>
  <time>2026-08-28T17:56:16Z</time>
  <course>246.85</course>
  <speed>1.7942686532400882</speed>
  <fix>3d</fix>
</trkpt>
<trkpt lat="40.0712747" lon="-105.2300833">
  <ele>1583.0</ele>
  <time>2026-08-28T17:56:16Z</time>
  <course>245.99</course>
  <speed>2.0</speed>
  <fix>3d</fix>
</trkpt>
<trkpt lat="40.0712729" lon="-105.2300882">
  <ele>1583.04</ele>
  <time>2026-08-28T17:56:16Z</time>
  <course>246.84</course>
  <speed>1.6957889019568444</speed>
  <fix>3d</fix>
</trkpt>
<trkpt lat="40.0712747" lon="-105.2300833">
  <ele>1583.0</ele>
  <time>2026-08-28T17:56:16Z</time>
  <course>245.99</course>
  <speed>2.0</speed>
  <fix>3d</fix>
</trkpt>
<trkpt lat="40.0712723" lon="-105.2300899">
  <ele>1583.04</ele>
  <time>2026-08-28T17:56:16Z</time>
  <course>246.84</course>
  <speed>1.6063934760823702</speed>
  <fix>3d</fix>
</trkpt>
<trkpt lat="40.0712733" lon="-105.2300874">
  <ele>1583.0</ele>
  <time>2026-08-28T17:56:16Z</time>
  <course>245.99</course>
  <speed>1.81</speed>
  <fix>3d</fix>
</trkpt>
<trkpt lat="40.0712717" lon="-105.2300916">
  <ele>1583.04</ele>
  <time>2026-08-28T17:56:16Z</time>
  <course>246.84</course>
  <speed>1.517003625572464</speed>
  <fix>3d</fix>
</trkpt>
<trkpt lat="40.0712733" lon="-105.2300874">
  <ele>1583.0</ele>
  <time>2026-08-28T17:56:16Z</time>
  <course>245.99</course>
  <speed>1.81</speed>
  <fix>3d</fix>
</trkpt>
<trkpt lat="40.0712712" lon="-105.2300932">
  <ele>1583.04</ele>
  <time>2026-08-28T17:56:16Z</time>
  <course>246.83</course>
  <speed>1.4408677940741128</speed>
  <fix>3d</fix>
</trkpt>
<trkpt lat="40.0712721" lon="-105.2300911">
  <ele>1583.0</ele>
  <time>2026-08-28T17:56:16Z</time>
  <course>245.99</course>
  <speed>1.64</speed>
  <fix>3d</fix>
</trkpt>
<trkpt lat="40.0712707" lon="-105.2300948">
  <ele>1583.05</ele>
  <time>2026-08-28T17:56:16Z</time>
  <course>246.83</course>
  <speed>1.364734406395618</speed>
  <fix>3d</fix>
</trkpt>
<trkpt lat="40.0712721" lon="-105.2300911">
  <ele>1583.0</ele>
  <time>2026-08-28T17:56:16Z</time>
  <course>245.99</course>
  <speed>1.64</speed>
  <fix>3d</fix>
</trkpt>
<trkpt lat="40.0712703" lon="-105.230096">
  <ele>1583.05</ele>
  <time>2026-08-28T17:56:16Z</time>
  <course>246.83</course>
  <speed>1.3067899601695752</speed>
  <fix>3d</fix>
</trkpt>
<trkpt lat="40.0712709" lon="-105.2300944">
  <ele>1583.0</ele>
  <time>2026-08-28T17:56:16Z</time>
  <course>245.99</course>
  <speed>1.48</speed>
  <fix>3d</fix>
</trkpt>
<trkpt lat="40.0712698" lon="-105.2300974">
  <ele>1583.05</ele>
  <time>2026-08-28T17:56:16Z</time>
  <course>246.83</course>
  <speed>1.239758040909596</speed>
  <fix>3d</fix>
</trkpt>
<trkpt lat="40.0712709" lon="-105.2300944">
  <ele>1583.0</ele>
  <time>2026-08-28T17:56:16Z</time>
  <course>245.99</course>
  <speed>1.48</speed>
  <fix>3d</fix>
</trkpt>
<trkpt lat="40.0712694" lon="-105.2300987">
  <ele>1583.05</ele>
  <time>2026-08-28T17:56:16Z</time>
  <course>246.83</course>
  <speed>1.172731853408954</speed>
  <fix>3d</fix>
</trkpt>
<trkpt lat="40.0712699" lon="-105.2300975">
  <ele>1583.0</ele>
  <time>2026-08-28T17:56:16Z</time>
  <course>245.99</course>
  <speed>1.34</speed>
  <fix>3d</fix>
</trkpt>
<trkpt lat="40.0712689" lon="-105.2301">
  <ele>1583.05</ele>
  <time>2026-08-28T17:56:16Z</time>
  <course>246.83</course>
  <speed>1.1057124400132252</speed>
  <fix>3d</fix>
</trkpt>
<trkpt lat="40.0712699" lon="-105.2300975">
  <ele>1583.0</ele>
  <time>2026-08-28T17:56:16Z</time>
  <course>245.99</course>
  <speed>1.34</speed>
  <fix>3d</fix>
</trkpt>
<trkpt lat="40.0712685" lon="-105.2301012">
  <ele>1583.04</ele>
  <time>2026-08-28T17:56:16Z</time>
  <course>246.83</course>
  <speed>1.0519030373565805</speed>
  <fix>3d</fix>
</trkpt>
<trkpt lat="40.0712689" lon="-105.2301003">
  <ele>1583.0</ele>
  <time>2026-08-28T17:56:16Z</time>
  <course>245.99</course>
  <speed>1.21</speed>
  <fix>3d</fix>
</trkpt>
<trkpt lat="40.0712681" lon="-105.2301024">
  <ele>1583.04</ele>
  <time>2026-08-28T17:56:16Z</time>
  <course>246.83</course>
  <speed>0.9940321926376429</speed>
  <fix>3d</fix>
</trkpt>
<trkpt lat="40.0712689" lon="-105.2301003">
  <ele>1583.0</ele>
  <time>2026-08-28T17:56:16Z</time>
  <course>245.99</course>
  <speed>1.21</speed>
  <fix>3d</fix>
</trkpt>
<trkpt lat="40.0712678" lon="-105.2301035">
  <ele>1583.05</ele>
  <time>2026-08-28T17:56:16Z</time>
  <course>246.84</course>
  <speed>0.9402127418834527</speed>
  <fix>3d</fix>
</trkpt>
<trkpt lat="40.0712681" lon="-105.2301028">
  <ele>1583.0</ele>
  <time>2026-08-28T17:56:16Z</time>
  <course>245.99</course>
  <speed>1.1</speed>
  <fix>3d</fix>
</trkpt>
<trkpt lat="40.0712674" lon="-105.2301046">
  <ele>1583.05</ele>
  <time>2026-08-28T17:56:16Z</time>
  <course>246.84</course>
  <speed>0.8863972021616494</speed>
  <fix>3d</fix>
</trkpt>
<trkpt lat="40.0712681" lon="-105.2301028">
  <ele>1583.0</ele>
  <time>2026-08-28T17:56:16Z</time>
  <course>245.99</course>
  <speed>1.1</speed>
  <fix>3d</fix>
</trkpt>
<trkpt lat="40.0712671" lon="-105.2301056">
  <ele>1583.05</ele>
  <time>2026-08-28T17:56:16Z</time>
  <course>246.84</course>
  <speed>0.8417244204607586</speed>
  <fix>3d</fix>
</trkpt>
<trkpt lat="40.0712673" lon="-105.230105">
  <ele>1583.0</ele>
  <time>2026-08-28T17:56:16Z</time>
  <course>245.99</course>
  <speed>0.99</speed>
  <fix>3d</fix>
</trkpt>
<trkpt lat="40.0712668" lon="-105.2301066">
  <ele>1583.05</ele>
  <time>2026-08-28T17:56:16Z</time>
  <course>246.85</course>
  <speed>0.797057087039567</speed>
  <fix>3d</fix>
</trkpt>
<trkpt lat="40.0712673" lon="-105.230105">
  <ele>1583.0</ele>
  <time>2026-08-28T17:56:16Z</time>
  <course>245.99</course>
  <speed>0.99</speed>
  <fix>3d</fix>
</trkpt>
<trkpt lat="40.0712664" lon="-105.2301077">
  <ele>1583.05</ele>
  <time>2026-08-28T17:56:16Z</time>
  <course>246.85</course>
  <speed>0.7523961722390672</speed>
  <fix>3d</fix>
</trkpt>
<trkpt lat="40.0712666" lon="-105.230107">
  <ele>1583.0</ele>
  <time>2026-08-28T17:56:16Z</time>
  <course>245.99</course>
  <speed>0.9</speed>
  <fix>3d</fix>
</trkpt>
<trkpt lat="40.0712661" lon="-105.2301086">
  <ele>1583.05</ele>
  <time>2026-08-28T17:56:16Z</time>
  <course>246.86</course>
  <speed>0.7077428911688198</speed>
  <fix>3d</fix>
</trkpt>
<trkpt lat="40.0712666" lon="-105.230107">
  <ele>1583.0</ele>
  <time>2026-08-28T17:56:16Z</time>
  <course>245.99</course>
  <speed>0.9</speed>
  <fix>3d</fix>
</trkpt>
<trkpt lat="40.0712658" lon="-105.2301094">
  <ele>1583.04</ele>
  <time>2026-08-28T17:56:16Z</time>
  <course>246.86</course>
  <speed>0.6723094525588644</speed>
  <fix>3d</fix>
</trkpt>
<trkpt lat="40.0712659" lon="-105.2301089">
  <ele>1583.0</ele>
  <time>2026-08-28T17:56:16Z</time>
  <course>245.99</course>
  <speed>0.81</speed>
  <fix>3d</fix>
</trkpt>
<trkpt lat="40.0712656" lon="-105.2301102">
  <ele>1583.03</ele>
  <time>2026-08-28T17:56:16Z</time>
  <course>246.87</course>
  <speed>0.6276941930590086</speed>
  <fix>3d</fix>
</trkpt>
<trkpt lat="40.0712659" lon="-105.2301089">
  <ele>1583.0</ele>
  <time>2026-08-28T17:56:16Z</time>
  <course>245.99</course>
  <speed>0.81</speed>
  <fix>3d</fix>
</trkpt>
<trkpt lat="40.0712653" lon="-105.2301109">
  <ele>1583.02</ele>
  <time>2026-08-28T17:56:16Z</time>
  <course>246.88</course>
  <speed>0.5961543424315552</speed>
  <fix>3d</fix>
</trkpt>
<trkpt lat="40.0712654" lon="-105.2301105">
  <ele>1583.0</ele>
  <time>2026-08-28T17:56:16Z</time>
  <course>245.99</course>
  <speed>0.73</speed>
  <fix>3d</fix>
</trkpt>
<trkpt lat="40.0712651" lon="-105.2301117">
  <ele>1583.01</ele>
  <time>2026-08-28T17:56:16Z</time>
  <course>246.88</course>
  <speed>0.5738466694161429</speed>
  <fix>3d</fix>
</trkpt>
<trkpt lat="40.0712654" lon="-105.2301105">
  <ele>1583.0</ele>
  <time>2026-08-28T17:56:16Z</time>
  <course>245.99</course>
  <speed>0.73</speed>
  <fix>3d</fix>
</trkpt>
<trkpt lat="40.0712649" lon="-105.2301123">
  <ele>1583.0</ele>
  <time>2026-08-28T17:56:16Z</time>
  <course>246.89</course>
  <speed>0.5385164807134504</speed>
  <fix>3d</fix>
</trkpt>
<trkpt lat="40.0712649" lon="-105.2301121">
  <ele>1583.0</ele>
  <time>2026-08-28T17:56:16Z</time>
  <course>245.99</course>
  <speed>0.66</speed>
  <fix>3d</fix>
</trkpt>
<trkpt lat="40.0712647" lon="-105.230113">
  <ele>1583.0</ele>
  <time>2026-08-28T17:56:16Z</time>
  <course>246.9</course>
  <speed>0.5069516742254631</speed>
  <fix>3d</fix>
</trkpt>
<trkpt lat="40.0712649" lon="-105.2301121">
  <ele>1583.0</ele>
  <time>2026-08-28T17:56:16Z</time>
  <course>245.99</course>
  <speed>0.66</speed>
  <fix>3d</fix>
</trkpt>
<trkpt lat="40.0712645" lon="-105.2301136">
  <ele>1582.99</ele>
  <time>2026-08-28T17:56:16Z</time>
  <course>246.9</course>
  <speed>0.48466483264210536</speed>
  <fix>3d</fix>
</trkpt>
<trkpt lat="40.0712645" lon="-105.2301134">
  <ele>1583.0</ele>
  <time>2026-08-28T17:56:16Z</time>
  <course>245.99</course>
  <speed>0.6</speed>
  <fix>3d</fix>
</trkpt>
<trkpt lat="40.0712643" lon="-105.2301142">
  <ele>1582.98</ele>
  <time>2026-08-28T17:56:16Z</time>
  <course>246.91</course>
  <speed>0.44944410108488464</speed>
  <fix>3d</fix>
</trkpt>
<trkpt lat="40.0712645" lon="-105.2301134">
  <ele>1583.0</ele>
  <time>2026-08-28T17:56:16Z</time>
  <course>245.99</course>
  <speed>0.6</speed>
  <fix>3d</fix>
</trkpt>
<trkpt lat="40.0712641" lon="-105.2301148">
  <ele>1582.98</ele>
  <time>2026-08-28T17:56:16Z</time>
  <course>246.91</course>
  <speed>0.42720018726587655</speed>
  <fix>3d</fix>
</trkpt>
<trkpt lat="40.071264" lon="-105.2301146">
  <ele>1583.0</ele>
  <time>2026-08-28T17:56:16Z</time>
  <course>245.99</course>
  <speed>0.54</speed>
  <fix>3d</fix>
</trkpt>
<trkpt lat="40.071264" lon="-105.2301152">
  <ele>1582.98</ele>
  <time>2026-08-28T17:56:16Z</time>
  <course>246.92</course>
  <speed>0.4143669871020132</speed>
  <fix>3d</fix>
</trkpt>
<trkpt lat="40.071264" lon="-105.2301146">
  <ele>1583.0</ele>
  <time>2026-08-28T17:56:16Z</time>
  <course>245.99</course>
  <speed>0.54</speed>
  <fix>3d</fix>
</trkpt>
<trkpt lat="40.0712638" lon="-105.2301157">
  <ele>1582.99</ele>
  <time>2026-08-28T17:56:16Z</time>
  <course>246.92</course>
  <speed>0.3921734310225516</speed>
  <fix>3d</fix>
</trkpt>
<trkpt lat="40.0712637" lon="-105.2301157">
  <ele>1583.0</ele>
  <time>2026-08-28T17:56:16Z</time>
  <course>245.99</course>
  <speed>0.49</speed>
  <fix>3d</fix>
</trkpt>
<trkpt lat="40.0712636" lon="-105.2301162">
  <ele>1582.99</ele>
  <time>2026-08-28T17:56:16Z</time>
  <course>246.93</course>
  <speed>0.37</speed>
  <fix>3d</fix>
</trkpt>
<trkpt lat="40.0712637" lon="-105.2301157">
  <ele>1583.0</ele>
  <time>2026-08-28T17:56:16Z</time>
  <course>245.99</course>
  <speed>0.49</speed>
  <fix>3d</fix>
</trkpt>
<trkpt lat="40.0712635" lon="-105.2301167">
  <ele>1582.99</ele>
  <time>2026-08-28T17:56:16Z</time>
  <course>246.93</course>
  <speed>0.3478505426185217</speed>
  <fix>3d</fix>
</trkpt>
<trkpt lat="40.0712633" lon="-105.2301167">
  <ele>1583.0</ele>
  <time>2026-08-28T17:56:16Z</time>
  <course>245.99</course>
  <speed>0.44</speed>
  <fix>3d</fix>
</trkpt>
<trkpt lat="40.0712634" lon="-105.2301171">
  <ele>1583.0</ele>
  <time>2026-08-28T17:56:16Z</time>
  <course>246.94</course>
  <speed>0.33837848631377265</speed>
  <fix>3d</fix>
</trkpt>
<trkpt lat="40.0712633" lon="-105.2301167">
  <ele>1583.0</ele>
  <time>2026-08-28T17:56:16Z</time>
  <course>245.99</course>
  <speed>0.44</speed>
  <fix>3d</fix>
</trkpt>
<trkpt lat="40.0712632" lon="-105.2301176">
  <ele>1583.0</ele>
  <time>2026-08-28T17:56:16Z</time>
  <course>246.94</course>
  <speed>0.31622776601683794</speed>
  <fix>3d</fix>
</trkpt>
<trkpt lat="40.071263" lon="-105.2301176">
  <ele>1583.0</ele>
  <time>2026-08-28T17:56:16Z</time>
  <course>245.99</course>
  <speed>0.4</speed>
  <fix>3d</fix>
</trkpt>
<trkpt lat="40.0712631" lon="-105.230118">
  <ele>1583.01</ele>
  <time>2026-08-28T17:56:16Z</time>
  <course>246.95</course>
  <speed>0.29410882339705485</speed>
  <fix>3d</fix>
</trkpt>
<trkpt lat="40.071263" lon="-105.2301176">
  <ele>1583.0</ele>
  <time>2026-08-28T17:56:16Z</time>
  <course>245.99</course>
  <speed>0.4</speed>
  <fix>3d</fix>
</trkpt>
<trkpt lat="40.071263" lon="-105.2301184">
  <ele>1583.01</ele>
  <time>2026-08-28T17:56:16Z</time>
  <course>246.95</course>
  <speed>0.2816025568065745</speed>
  <fix>3d</fix>
</trkpt>
<trkpt lat="40.0712627" lon="-105.2301185">
  <ele>1583.0</ele>
  <time>2026-08-28T17:56:16Z</time>
  <course>245.99</course>
  <speed>0.36</speed>
  <fix>3d</fix>
</trkpt>
<trkpt lat="40.0712628" lon="-105.2301188">
  <ele>1583.02</ele>
  <time>2026-08-28T17:56:16Z</time>
  <course>246.96</course>
  <speed>0.2720294101747089</speed>
  <fix>3d</fix>
</trkpt>
<trkpt lat="40.0712627" lon="-105.2301185">
  <ele>1583.0</ele>
  <time>2026-08-28T17:56:16Z</time>
  <course>245.99</course>
  <speed>0.36</speed>
  <fix>3d</fix>
</trkpt>
<trkpt lat="40.0712627" lon="-105.2301191">
  <ele>1583.02</ele>
  <time>2026-08-28T17:56:16Z</time>
  <course>246.96</course>
  <speed>0.2596150997149434</speed>
  <fix>3d</fix>
</trkpt>
<trkpt lat="40.0712624" lon="-105.2301192">
  <ele>1583.0</ele>
  <time>2026-08-28T17:56:16Z</time>
  <course>245.99</course>
  <speed>0.33</speed>
  <fix>3d</fix>
</trkpt>
<trkpt lat="40.0712626" lon="-105.2301195">
  <ele>1583.02</ele>
  <time>2026-08-28T17:56:17Z</time>
  <course>246.97</course>
  <speed>0.23769728648009425</speed>
  <fix>3d</fix>
</trkpt>
<trkpt lat="40.0712624" lon="-105.2301192">
  <ele>1583.0</ele>
  <time>2026-08-28T17:56:17Z</time>
  <course>245.99</course>
  <speed>0.33</speed>
  <fix>3d</fix>
</trkpt>
<trkpt lat="40.0712625" lon="-105.2301199">
  <ele>1583.03</ele>
  <time>2026-08-28T17:56:17Z</time>
  <course>246.97</course>
  <speed>0.22803508501982758</speed>
  <fix>3d</fix>
</trkpt>
<trkpt lat="40.0712623" lon="-105.2301199">
  <ele>1583.0</ele>
  <time>2026-08-28T17:56:17Z</time>
  <course>245.99</course>
  <speed>0.29</speed>
  <fix>3d</fix>
</trkpt>
<trkpt lat="40.0712624" lon="-105.2301202">
  <ele>1583.03</ele>
  <time>2026-08-28T17:56:17Z</time>
  <course>246.97</course>
  <speed>0.215870331449229</speed>
  <fix>3d</fix>
</trkpt>
<trkpt lat="40.0712623" lon="-105.2301199">
  <ele>1583.0</ele>
  <time>2026-08-28T17:56:17Z</time>
  <course>245.99</course>
  <speed>0.29</speed>
  <fix>3d</fix>
</trkpt>
<trkpt lat="40.0712623" lon="-105.2301205">
  <ele>1583.03</ele>
  <time>2026-08-28T17:56:17Z</time>
  <course>246.98</course>
  <speed>0.20615528128088303</speed>
  <fix>3d</fix>
</trkpt>
<trkpt lat="40.0712621" lon="-105.2301205">
  <ele>1583.0</ele>
  <time>2026-08-28T17:56:17Z</time>
  <course>245.99</course>
  <speed>0.27</speed>
  <fix>3d</fix>
</trkpt>
<trkpt lat="40.0712622" lon="-105.2301208">
  <ele>1583.04</ele>
  <time>2026-08-28T17:56:17Z</time>
  <course>246.98</course>
  <speed>0.194164878389476</speed>
  <fix>3d</fix>
</trkpt>
<trkpt lat="40.0712621" lon="-105.2301205">
  <ele>1583.0</ele>
  <time>2026-08-28T17:56:17Z</time>
  <course>245.99</course>
  <speed>0.27</speed>
  <fix>3d</fix>
</trkpt>
<trkpt lat="40.0712622" lon="-105.230121">
  <ele>1583.04</ele>
  <time>2026-08-28T17:56:17Z</time>
  <course>246.98</course>
  <speed>0.18439088914585774</speed>
  <fix>3d</fix>
</trkpt>
<trkpt lat="40.0712618" lon="-105.230121">
  <ele>1583.0</ele>
  <time>2026-08-28T17:56:17Z</time>
  <course>245.99</course>
  <speed>0.24</speed>
  <fix>3d</fix>
</trkpt>
<trkpt lat="40.0712621" lon="-105.2301213">
  <ele>1583.04</ele>
  <time>2026-08-28T17:56:17Z</time>
  <course>246.98</course>
  <speed>0.17262676501632068</speed>
  <fix>3d</fix>
</trkpt>
<trkpt lat="40.0712618" lon="-105.230121">
  <ele>1583.0</ele>
  <time>2026-08-28T17:56:17Z</time>
  <course>245.99</course>
  <speed>0.24</speed>
  <fix>3d</fix>
</trkpt>
<trkpt lat="40.071262" lon="-105.2301215">
  <ele>1583.04</ele>
  <time>2026-08-28T17:56:17Z</time>
  <course>246.99</course>
  <speed>0.17262676501632068</speed>
  <fix>3d</fix>
</trkpt>
<trkpt lat="40.0712616" lon="-105.2301215">
  <ele>1583.0</ele>
  <time>2026-08-28T17:56:17Z</time>
  <course>245.99</course>
  <speed>0.22</speed>
  <fix>3d</fix>
</trkpt>
<trkpt lat="40.0712619" lon="-105.2301217">
  <ele>1583.03</ele>
  <time>2026-08-28T17:56:17Z</time>
  <course>246.99</course>
  <speed>0.16278820596099705</speed>
  <fix>3d</fix>
</trkpt>
<trkpt lat="40.0712616" lon="-105.2301215">
  <ele>1583.0</ele>
  <time>2026-08-28T17:56:17Z</time>
  <course>245.99</course>
  <speed>0.22</speed>
  <fix>3d</fix>
</trkpt>
<trkpt lat="40.0712619" lon="-105.230122">
  <ele>1583.03</ele>
  <time>2026-08-28T17:56:17Z</time>
  <course>246.99</course>
  <speed>0.15132745950421556</speed>
  <fix>3d</fix>
</trkpt>
<trkpt lat="40.0712615" lon="-105.230122">
  <ele>1583.0</ele>
  <time>2026-08-28T17:56:17Z</time>
  <course>245.99</course>
  <speed>0.2</speed>
  <fix>3d</fix>
</trkpt>
<trkpt lat="40.0712618" lon="-105.2301222">
  <ele>1583.03</ele>
  <time>2026-08-28T17:56:17Z</time>
  <course>246.99</course>
  <speed>0.1414213562373095</speed>
  <fix>3d</fix>
</trkpt>
<trkpt lat="40.0712615" lon="-105.230122">
  <ele>1583.0</ele>
  <time>2026-08-28T17:56:17Z</time>
  <course>245.99</course>
  <speed>0.2</speed>
  <fix>3d</fix>
</trkpt>
<trkpt lat="40.0712617" lon="-105.2301223">
  <ele>1583.02</ele>
  <time>2026-08-28T17:56:17Z</time>
  <course>246.99</course>
  <speed>0.1414213562373095</speed>
  <fix>3d</fix>
</trkpt>
<trkpt lat="40.0712614" lon="-105.2301224">
  <ele>1583.0</ele>
  <time>2026-08-28T17:56:17Z</time>
  <course>245.99</course>
  <speed>0.18</speed>
  <fix>3d</fix>
</trkpt>
<trkpt lat="40.0712617" lon="-105.2301225">
  <ele>1583.02</ele>
  <time>2026-08-28T17:56:17Z</time>
  <course>246.99</course>
  <speed>0.130384048104053</speed>
  <fix>3d</fix>
</trkpt>
<trkpt lat="40.0712614" lon="-105.2301224">
  <ele>1583.0</ele>
  <time>2026-08-28T17:56:17Z</time>
  <course>245.99</course>
  <speed>0.18</speed>
  <fix>3d</fix>
</trkpt>
<trkpt lat="40.0712616" lon="-105.2301227">
  <ele>1583.01</ele>
  <time>2026-08-28T17:56:17Z</time>
  <course>246.99</course>
  <speed>0.130384048104053</speed>
  <fix>3d</fix>
</trkpt>
<trkpt lat="40.0712612" lon="-105.2301228">
  <ele>1583.0</ele>
  <time>2026-08-28T17:56:17Z</time>
  <course>245.99</course>
  <speed>0.16</speed>
  <fix>3d</fix>
</trkpt>
<trkpt lat="40.0712615" lon="-105.2301229">
  <ele>1583.01</ele>
  <time>2026-08-28T17:56:17Z</time>
  <course>246.99</course>
  <speed>0.12041594578792296</speed>
  <fix>3d</fix>
</trkpt>
<trkpt lat="40.0712612" lon="-105.2301228">
  <ele>1583.0</ele>
  <time>2026-08-28T17:56:17Z</time>
  <course>245.99</course>
  <speed>0.16</speed>
  <fix>3d</fix>
</trkpt>
<trkpt lat="40.0712615" lon="-105.2301231">
  <ele>1583.0</ele>
  <time>2026-08-28T17:56:17Z</time>
  <course>246.99</course>
  <speed>0.12041594578792296</speed>
  <fix>3d</fix>
</trkpt>
<trkpt lat="40.0712611" lon="-105.2301231">
  <ele>1583.0</ele>
  <time>2026-08-28T17:56:17Z</time>
  <course>245.99</course>
  <speed>0.14</speed>
  <fix>3d</fix>
</trkpt>
<trkpt lat="40.0712614" lon="-105.2301232">
  <ele>1583.0</ele>
  <time>2026-08-28T17:56:17Z</time>
  <course>246.99</course>
  <speed>0.11</speed>
  <fix>3d</fix>
</trkpt>
<trkpt lat="40.0712611" lon="-105.2301231">
  <ele>1583.0</ele>
  <time>2026-08-28T17:56:17Z</time>
  <course>245.99</course>
  <speed>0.14</speed>
  <fix>3d</fix>
</trkpt>
<trkpt lat="40.0712614" lon="-105.2301234">
  <ele>1582.99</ele>
  <time>2026-08-28T17:56:17Z</time>
  <course>246.99</course>
  <speed>0.11</speed>
  <fix>3d</fix>
</trkpt>
<trkpt lat="40.071261" lon="-105.2301234">
  <ele>1583.0</ele>
  <time>2026-08-28T17:56:17Z</time>
  <course>245.99</course>
  <speed>0.13</speed>
  <fix>3d</fix>
</trkpt>
<trkpt lat="40.0712613" lon="-105.2301235">
  <ele>1582.99</ele>
  <time>2026-08-28T17:56:17Z</time>
  <course>246.99</course>
  <speed>0.1</speed>
  <fix>3d</fix>
</trkpt>
<trkpt lat="40.071261" lon="-105.2301234">
  <ele>1583.0</ele>
  <time>2026-08-28T17:56:17Z</time>
  <course>245.99</course>
  <speed>0.13</speed>
  <fix>3d</fix>
</trkpt>
<trkpt lat="40.0712613" lon="-105.2301237">
  <ele>1582.99</ele>
  <time>2026-08-28T17:56:17Z</time>
  <course>246.99</course>
  <speed>0.1</speed>
  <fix>3d</fix>
</trkpt>
<trkpt lat="40.0712609" lon="-105.2301237">
  <ele>1583.0</ele>
  <time>2026-08-28T17:56:17Z</time>
  <course>245.99</course>
  <speed>0.12</speed>
  <fix>3d</fix>
</trkpt>
<trkpt lat="40.0712612" lon="-105.2301238">
  <ele>1582.99</ele>
  <time>2026-08-28T17:56:17Z</time>
  <course>246.99</course>
  <speed>0.09</speed>
  <fix>3d</fix>
</trkpt>
<trkpt lat="40.0712609" lon="-105.2301237">
  <ele>1583.0</ele>
  <time>2026-08-28T17:56:17Z</time>
  <course>245.99</course>
  <speed>0.12</speed>
  <fix>3d</fix>
</trkpt>
<trkpt lat="40.0712612" lon="-105.230124">
  <ele>1582.99</ele>
  <time>2026-08-28T17:56:17Z</time>
  <course>246.99</course>
  <speed>0.09</speed>
  <fix>3d</fix>
</trkpt>
<trkpt lat="40.0712609" lon="-105.2301239">
  <ele>1583.0</ele>
  <time>2026-08-28T17:56:17Z</time>
  <course>245.99</course>
  <speed>0.11</speed>
  <fix>3d</fix>
</trkpt>
<trkpt lat="40.0712611" lon="-105.2301241">
  <ele>1582.98</ele>
  <time>2026-08-28T17:56:17Z</time>
  <course>246.99</course>
  <speed>0.08</speed>
  <fix>3d</fix>
</trkpt>
<trkpt lat="40.0712609" lon="-105.2301239">
  <ele>1583.0</ele>
  <time>2026-08-28T17:56:17Z</time>
  <course>245.99</course>
  <speed>0.11</speed>
  <fix>3d</fix>
</trkpt>
<trkpt lat="40.0712611" lon="-105.2301242">
  <ele>1582.98</ele>
  <time>2026-08-28T17:56:17Z</time>
  <course>246.99</course>
  <speed>0.08</speed>
  <fix>3d</fix>
</trkpt>
<trkpt lat="40.0712608" lon="-105.2301242">
  <ele>1583.0</ele>
  <time>2026-08-28T17:56:17Z</time>
  <course>245.99</course>
  <speed>0.09</speed>
  <fix>3d</fix>
</trkpt>
<trkpt lat="40.0712611" lon="-105.2301243">
  <ele>1582.98</ele>
  <time>2026-08-28T17:56:17Z</time>
  <course>246.99</course>
  <speed>0.08</speed>
  <fix>3d</fix>
</trkpt>
<trkpt lat="40.0712608" lon="-105.2301242">
  <ele>1583.0</ele>
  <time>2026-08-28T17:56:17Z</time>
  <course>245.99</course>
  <speed>0.09</speed>
  <fix>3d</fix>
</trkpt>
<trkpt lat="40.071261" lon="-105.2301244">
  <ele>1582.97</ele>
  <time>2026-08-28T17:56:17Z</time>
  <course>246.99</course>
  <speed>0.07</speed>
  <fix>3d</fix>
</trkpt>
<trkpt lat="40.0712607" lon="-105.2301243">
  <ele>1583.0</ele>
  <time>2026-08-28T17:56:17Z</time>
  <course>245.99</course>
  <speed>0.09</speed>
  <fix>3d</fix>
</trkpt>
<trkpt lat="40.071261" lon="-105.2301245">
  <ele>1582.97</ele>
  <time>2026-08-28T17:56:17Z</time>
  <course>246.99</course>
  <speed>0.07</speed>
  <fix>3d</fix>
</trkpt>
<trkpt lat="40.0712607" lon="-105.2301243">
  <ele>1583.0</ele>
  <time>2026-08-28T17:56:17Z</time>
  <course>245.99</course>
  <speed>0.09</speed>
  <fix>3d</fix>
</trkpt>
<trkpt lat="40.071261" lon="-105.2301246">
  <ele>1582.97</ele>
  <time>2026-08-28T17:56:17Z</time>
  <course>246.99</course>
  <speed>0.07</speed>
  <fix>3d</fix>
</trkpt>
<trkpt lat="40.0712606" lon="-105.2301246">
  <ele>1583.0</ele>
  <time>2026-08-28T17:56:17Z</time>
  <course>245.99</course>
  <speed>0.08</speed>
  <fix>3d</fix>
</trkpt>
<trkpt lat="40.0712609" lon="-105.2301247">
  <ele>1582.97</ele>
  <time>2026-08-28T17:56:17Z</time>
  <course>246.99</course>
  <speed>0.06</speed>
  <fix>3d</fix>
</trkpt>
<trkpt lat="40.0712606" lon="-105.2301246">
  <ele>1583.0</ele>
  <time>2026-08-28T17:56:17Z</time>
  <course>245.99</course>
  <speed>0.08</speed>
  <fix>3d</fix>
</trkpt>
<trkpt lat="40.0712609" lon="-105.2301248">
  <ele>1582.96</ele>
  <time>2026-08-28T17:56:17Z</time>
  <course>246.98</course>
  <speed>0.06</speed>
  <fix>3d</fix>
</trkpt>
<trkpt lat="40.0712606" lon="-105.2301248">
  <ele>1583.0</ele>
  <time>2026-08-28T17:56:17Z</time>
  <course>245.99</course>
  <speed>0.07</speed>
  <fix>3d</fix>
</trkpt>
<trkpt lat="40.0712609" lon="-105.2301248">
  <ele>1582.96</ele>
  <time>2026-08-28T17:56:17Z</time>
  <course>246.98</course>
  <speed>0.06</speed>
  <fix>3d</fix>
</trkpt>
<trkpt lat="40.0712606" lon="-105.2301248">
  <ele>1583.0</ele>
  <time>2026-08-28T17:56:17Z</time>
  <course>245.99</course>
  <speed>0.07</speed>
  <fix>3d</fix>
</trkpt>
<trkpt lat="40.0712609" lon="-105.2301249">
  <ele>1582.96</ele>
  <time>2026-08-28T17:56:17Z</time>
  <course>246.98</course>
  <speed>0.06082762530298219</speed>
  <fix>3d</fix>
</trkpt>
<trkpt lat="40.0712605" lon="-105.2301249">
  <ele>1583.0</ele>
  <time>2026-08-28T17:56:17Z</time>
  <course>245.99</course>
  <speed>0.06</speed>
  <fix>3d</fix>
</trkpt>
<trkpt lat="40.0712608" lon="-105.230125">
  <ele>1582.96</ele>
  <time>2026-08-28T17:56:17Z</time>
  <course>246.98</course>
  <speed>0.06082762530298219</speed>
  <fix>3d</fix>
</trkpt>
<trkpt lat="40.0712605" lon="-105.2301249">
  <ele>1583.0</ele>
  <time>2026-08-28T17:56:17Z</time>
  <course>245.99</course>
  <speed>0.06</speed>
  <fix>3d</fix>
</trkpt>
<trkpt lat="40.0712608" lon="-105.2301251">
  <ele>1582.96</ele>
  <time>2026-08-28T17:56:17Z</time>
  <course>246.98</course>
  <speed>0.05099019513592785</speed>
  <fix>3d</fix>
</trkpt>
<trkpt lat="40.0712605" lon="-105.230125">
  <ele>1583.0</ele>
  <time>2026-08-28T17:56:17Z</time>
  <course>245.99</course>
  <speed>0.06</speed>
  <fix>3d</fix>
</trkpt>
<trkpt lat="40.0712608" lon="-105.2301251">
  <ele>1582.96</ele>
  <time>2026-08-28T17:56:17Z</time>
  <course>246.98</course>
  <speed>0.05099019513592785</speed>
  <fix>3d</fix>
</trkpt>
<trkpt lat="40.0712605" lon="-105.230125">
  <ele>1583.0</ele>
  <time>2026-08-28T17:56:17Z</time>
  <course>245.99</course>
  <speed>0.06</speed>
  <fix>3d</fix>
</trkpt>
<trkpt lat="40.0712608" lon="-105.2301252">
  <ele>1582.96</ele>
  <time>2026-08-28T17:56:17Z</time>
  <course>246.98</course>
  <speed>0.05099019513592785</speed>
  <fix>3d</fix>
</trkpt>
<trkpt lat="40.0712605" lon="-105.2301252">
  <ele>1583.0</ele>
  <time>2026-08-28T17:56:17Z</time>
  <course>245.99</course>
  <speed>0.05</speed>
  <fix>3d</fix>
</trkpt>
<trkpt lat="40.0712607" lon="-105.2301252">
  <ele>1582.97</ele>
  <time>2026-08-28T17:56:17Z</time>
  <course>246.98</course>
  <speed>0.05099019513592785</speed>
  <fix>3d</fix>
</trkpt>
<trkpt lat="40.0712605" lon="-105.2301252">
  <ele>1583.0</ele>
  <time>2026-08-28T17:56:17Z</time>
  <course>245.99</course>
  <speed>0.05</speed>
  <fix>3d</fix>
</trkpt>
<trkpt lat="40.0712607" lon="-105.2301253">
  <ele>1582.97</ele>
  <time>2026-08-28T17:56:17Z</time>
  <course>246.98</course>
  <speed>0.0412310562561766</speed>
  <fix>3d</fix>
</trkpt>
<trkpt lat="40.0712604" lon="-105.2301253">
  <ele>1583.0</ele>
  <time>2026-08-28T17:56:17Z</time>
  <course>245.99</course>
  <speed>0.04</speed>
  <fix>3d</fix>
</trkpt>
<trkpt lat="40.0712607" lon="-105.2301254">
  <ele>1582.97</ele>
  <time>2026-08-28T17:56:17Z</time>
  <course>246.98</course>
  <speed>0.0412310562561766</speed>
  <fix>3d</fix>
</trkpt>
<trkpt lat="40.0712604" lon="-105.2301253">
  <ele>1583.0</ele>
  <time>2026-08-28T17:56:17Z</time>
  <course>245.99</course>
  <speed>0.04</speed>
  <fix>3d</fix>
</trkpt>
<trkpt lat="40.0712607" lon="-105.2301254">
  <ele>1582.97</ele>
  <time>2026-08-28T17:56:17Z</time>
  <course>246.97</course>
  <speed>0.0412310562561766</speed>
  <fix>3d</fix>
</trkpt>
<trkpt lat="40.0712604" lon="-105.2301254">
  <ele>1583.0</ele>
  <time>2026-08-28T17:56:17Z</time>
  <course>245.99</course>
  <speed>0.04</speed>
  <fix>3d</fix>
</trkpt>
<trkpt lat="40.0712607" lon="-105.2301255">
  <ele>1582.98</ele>
  <time>2026-08-28T17:56:17Z</time>
  <course>246.97</course>
  <speed>0.0412310562561766</speed>
  <fix>3d</fix>
</trkpt>
<trkpt lat="40.0712604" lon="-105.2301254">
  <ele>1583.0</ele>
  <time>2026-08-28T17:56:17Z</time>
  <course>245.99</course>
  <speed>0.04</speed>
  <fix>3d</fix>
</trkpt>
<trkpt lat="40.0712606" lon="-105.2301255">
  <ele>1582.98</ele>
  <time>2026-08-28T17:56:17Z</time>
  <course>246.97</course>
  <speed>0.0412310562561766</speed>
  <fix>3d</fix>
</trkpt>
<trkpt lat="40.0712604" lon="-105.2301255">
  <ele>1583.0</ele>
  <time>2026-08-28T17:56:17Z</time>
  <course>245.99</course>
  <speed>0.04</speed>
  <fix>3d</fix>
</trkpt>
<trkpt lat="40.0712606" lon="-105.2301256">
  <ele>1582.98</ele>
  <time>2026-08-28T17:56:17Z</time>
  <course>246.97</course>
  <speed>0.17464249196572978</speed>
  <fix>3d</fix>
</trkpt>
<trkpt lat="40.0712604" lon="-105.2301255">
  <ele>1583.0</ele>
  <time>2026-08-28T17:56:17Z</time>
  <course>245.99</course>
  <speed>0.04</speed>
  <fix>3d</fix>
</trkpt>
<trkpt lat="40.0712605" lon="-105.230126">
  <ele>1582.99</ele>
  <time>2026-08-28T17:56:17Z</time>
  <course>246.97</course>
  <speed>0.5092150822589606</speed>
  <fix>3d</fix>
</trkpt>
<trkpt lat="40.0712603" lon="-105.2301257">
  <ele>1583.0</ele>
  <time>2026-08-28T17:56:17Z</time>
  <course>245.99</course>
  <speed>0.24</speed>
  <fix>3d</fix>
</trkpt>
<trkpt lat="40.0712602" lon="-105.2301268">
  <ele>1582.99</ele>
  <time>2026-08-28T17:56:17Z</time>
  <course>246.97</course>
  <speed>0.8450443775329198</speed>
  <fix>3d</fix>
</trkpt>
<trkpt lat="40.0712603" lon="-105.2301257">
  <ele>1583.0</ele>
  <time>2026-08-28T17:56:17Z</time>
  <course>245.99</course>
  <speed>0.24</speed>
  <fix>3d</fix>
</trkpt>
<trkpt lat="40.0712599" lon="-105.2301279">
  <ele>1583.0</ele>
  <time>2026-08-28T17:56:17Z</time>
  <course>246.97</course>
  <speed>1.158792474949678</speed>
  <fix>3d</fix>
</trkpt>
<trkpt lat="40.0712599" lon="-105.2301267">
  <ele>1583.0</ele>
  <time>2026-08-28T17:56:17Z</time>
  <course>245.99</course>
  <speed>0.77</speed>
  <fix>3d</fix>
</trkpt>
<trkpt lat="40.0712594" lon="-105.2301294">
  <ele>1583.0</ele>
  <time>2026-08-28T17:56:17Z</time>
  <course>246.97</course>
  <speed>1.453994497926316</speed>
  <fix>3d</fix>
</trkpt>
<trkpt lat="40.0712599" lon="-105.2301267">
  <ele>1583.0</ele>
  <time>2026-08-28T17:56:17Z</time>
  <course>245.99</course>
  <speed>0.77</speed>
  <fix>3d</fix>
</trkpt>
<trkpt lat="40.0712588" lon="-105.2301312">
  <ele>1583.01</ele>
  <time>2026-08-28T17:56:17Z</time>
  <course>246.97</course>
  <speed>1.7362603491412225</speed>
  <fix>3d</fix>
</trkpt>
<trkpt lat="40.0712592" lon="-105.2301291">
  <ele>1583.0</ele>
  <time>2026-08-28T17:56:17Z</time>
  <course>245.99</course>
  <speed>1.38</speed>
  <fix>3d</fix>
</trkpt>
<trkpt lat="40.0712581" lon="-105.2301333">
  <ele>1583.01</ele>
  <time>2026-08-28T17:56:17Z</time>
  <course>246.96</course>
  <speed>2.0092784774639876</speed>
  <fix>3d</fix>
</trkpt>
<trkpt lat="40.0712592" lon="-105.2301291">
  <ele>1583.0</ele>
  <time>2026-08-28T17:56:17Z</time>
  <course>245.99</course>
  <speed>1.38</speed>
  <fix>3d</fix>
</trkpt>
<trkpt lat="40.0712573" lon="-105.2301356">
  <ele>1583.02</ele>
  <time>2026-08-28T17:56:17Z</time>
  <course>246.96</course>
  <speed>2.260022123785517</speed>
  <fix>3d</fix>
</trkpt>
<trkpt lat="40.0712579" lon="-105.2301326">
  <ele>1583.0</ele>
  <time>2026-08-28T17:56:17Z</time>
  <course>245.99</course>
  <speed>1.94</speed>
  <fix>3d</fix>
</trkpt>
<trkpt lat="40.0712564" lon="-105.2301382">
  <ele>1583.03</ele>
  <time>2026-08-28T17:56:17Z</time>
  <course>246.95</course>
  <speed>2.5107767722360346</speed>
  <fix>3d</fix>
</trkpt>
<trkpt lat="40.0712579" lon="-105.2301326">
  <ele>1583.0</ele>
  <time>2026-08-28T17:56:17Z</time>
  <course>245.99</course>
  <speed>1.94</speed>
  <fix>3d</fix>
</trkpt>
<trkpt lat="40.0712555" lon="-105.2301411">
  <ele>1583.03</ele>
  <time>2026-08-28T17:56:17Z</time>
  <course>246.94</course>
  <speed>2.7392334694216918</speed>
  <fix>3d</fix>
</trkpt>
<trkpt lat="40.0712563" lon="-105.2301373">
  <ele>1583.0</ele>
  <time>2026-08-28T17:56:17Z</time>
  <course>245.99</course>
  <speed>2.44</speed>
  <fix>3d</fix>
</trkpt>
<trkpt lat="40.0712546" lon="-105.2301436">
  <ele>1583.03</ele>
  <time>2026-08-28T17:56:17Z</time>
  <course>246.93</course>
  <speed>2.9138462553813644</speed>
  <fix>3d</fix>
</trkpt>
<trkpt lat="40.0712563" lon="-105.2301373">
  <ele>1583.0</ele>
  <time>2026-08-28T17:56:17Z</time>
  <course>245.99</course>
  <speed>2.44</speed>
  <fix>3d</fix>
</trkpt>
<trkpt lat="40.0712535" lon="-105.2301469">
  <ele>1583.04</ele>
  <time>2026-08-28T17:56:17Z</time>
  <course>246.91</course>
  <speed>3.133081550167502</speed>
  <fix>3d</fix>
</trkpt>
<trkpt lat="40.0712543" lon="-105.230143">
  <ele>1583.0</ele>
  <time>2026-08-28T17:56:17Z</time>
  <course>245.99</course>
  <speed>2.89</speed>
  <fix>3d</fix>
</trkpt>
<trkpt lat="40.0712523" lon="-105.2301504">
  <ele>1583.04</ele>
  <time>2026-08-28T17:56:17Z</time>
  <course>246.9</course>
  <speed>3.330015014981164</speed>
  <fix>3d</fix>
</trkpt>
<trkpt lat="40.0712543" lon="-105.230143">
  <ele>1583.0</ele>
  <time>2026-08-28T17:56:17Z</time>
  <course>245.99</course>
  <speed>2.89</speed>
  <fix>3d</fix>
</trkpt>
<trkpt lat="40.0712511" lon="-105.2301542">
  <ele>1583.04</ele>
  <time>2026-08-28T17:56:17Z</time>
  <course>246.88</course>
  <speed>3.526953359487477</speed>
  <fix>3d</fix>
</trkpt>
<trkpt lat="40.071252" lon="-105.2301497">
  <ele>1583.0</ele>
  <time>2026-08-28T17:56:17Z</time>
  <course>245.99</course>
  <speed>3.3</speed>
  <fix>3d</fix>
</trkpt>
<trkpt lat="40.0712497" lon="-105.2301581">
  <ele>1583.04</ele>
  <time>2026-08-28T17:56:17Z</time>
  <course>246.87</course>
  <speed>3.7146870662277864</speed>
  <fix>3d</fix>
</trkpt>
<trkpt lat="40.071252" lon="-105.2301497">
  <ele>1583.0</ele>
  <time>2026-08-28T17:56:17Z</time>
  <course>245.99</course>
  <speed>3.3</speed>
  <fix>3d</fix>
</trkpt>
<trkpt lat="40.0712483" lon="-105.2301623">
  <ele>1583.05</ele>
  <time>2026-08-28T17:56:17Z</time>
  <course>246.85</course>
  <speed>3.889318706406046</speed>
  <fix>3d</fix>
</trkpt>
<trkpt lat="40.0712495" lon="-105.2301572">
  <ele>1583.0</ele>
  <time>2026-08-28T17:56:17Z</time>
  <course>245.99</course>
  <speed>3.67</speed>
  <fix>3d</fix>
</trkpt>
<trkpt lat="40.0712468" lon="-105.2301666">
  <ele>1583.05</ele>
  <time>2026-08-28T17:56:17Z</time>
  <course>246.83</course>
  <speed>4.0547503005733905</speed>
  <fix>3d</fix>
</trkpt>
<trkpt lat="40.0712495" lon="-105.2301572">
  <ele>1583.0</ele>
  <time>2026-08-28T17:56:17Z</time>
  <course>245.99</course>
  <speed>3.67</speed>
  <fix>3d</fix>
</trkpt>
<trkpt lat="40.0712453" lon="-105.2301711">
  <ele>1583.05</ele>
  <time>2026-08-28T17:56:17Z</time>
  <course>246.82</course>
  <speed>4.216266120633279</speed>
  <fix>3d</fix>
</trkpt>
<trkpt lat="40.0712467" lon="-105.2301655">
  <ele>1583.0</ele>
  <time>2026-08-28T17:56:17Z</time>
  <course>245.99</course>
  <speed>4.01</speed>
  <fix>3d</fix>
</trkpt>
<trkpt lat="40.0712437" lon="-105.2301758">
  <ele>1583.06</ele>
  <time>2026-08-28T17:56:17Z</time>
  <course>246.8</course>
  <speed>4.363312961500699</speed>
  <fix>3d</fix>
</trkpt>
<trkpt lat="40.0712467" lon="-105.2301655">
  <ele>1583.0</ele>
  <time>2026-08-28T17:56:17Z</time>
  <course>245.99</course>
  <speed>4.01</speed>
  <fix>3d</fix>
</trkpt>
<trkpt lat="40.071242" lon="-105.2301807">
  <ele>1583.06</ele>
  <time>2026-08-28T17:56:17Z</time>
  <course>246.79</course>
  <speed>4.515628416953724</speed>
  <fix>3d</fix>
</trkpt>
<trkpt lat="40.0712436" lon="-105.2301744">
  <ele>1583.0</ele>
  <time>2026-08-28T17:56:17Z</time>
  <course>245.99</course>
  <speed>4.31</speed>
  <fix>3d</fix>
</trkpt>
<trkpt lat="40.07124" lon="-105.2301867">
  <ele>1583.06</ele>
  <time>2026-08-28T17:56:17Z</time>
  <course>246.77</course>
  <speed>4.671894690593956</speed>
  <fix>3d</fix>
</trkpt>
<trkpt lat="40.0712436" lon="-105.2301744">
  <ele>1583.0</ele>
  <time>2026-08-28T17:56:17Z</time>
  <course>245.99</course>
  <speed>4.31</speed>
  <fix>3d</fix>
</trkpt>
<trkpt lat="40.0712382" lon="-105.2301918">
  <ele>1583.06</ele>
  <time>2026-08-28T17:56:17Z</time>
  <course>246.76</course>
  <speed>4.801885046520793</speed>
  <fix>3d</fix>
</trkpt>
<trkpt lat="40.0712404" lon="-105.2301839">
  <ele>1583.0</ele>
  <time>2026-08-28T17:56:17Z</time>
  <course>245.99</course>
  <speed>4.58</speed>
  <fix>3d</fix>
</trkpt>
<trkpt lat="40.0712364" lon="-105.230197">
  <ele>1583.06</ele>
  <time>2026-08-28T17:56:17Z</time>
  <course>246.74</course>
  <speed>4.922692352767944</speed>
  <fix>3d</fix>
</trkpt>
<trkpt lat="40.0712404" lon="-105.2301839">
  <ele>1583.0</ele>
  <time>2026-08-28T17:56:17Z</time>
  <course>245.99</course>
  <speed>4.58</speed>
  <fix>3d</fix>
</trkpt>
<trkpt lat="40.0712346" lon="-105.2302024">
  <ele>1583.07</ele>
  <time>2026-08-28T17:56:17Z</time>
  <course>246.73</course>
  <speed>5.043500768315595</speed>
  <fix>3d</fix>
</trkpt>
<trkpt lat="40.071237" lon="-105.2301941">
  <ele>1583.0</ele>
  <time>2026-08-28T17:56:17Z</time>
  <course>245.99</course>
  <speed>4.83</speed>
  <fix>3d</fix>
</trkpt>
<trkpt lat="40.0712327" lon="-105.2302079">
  <ele>1583.07</ele>
  <time>2026-08-28T17:56:17Z</time>
  <course>246.72</course>
  <speed>5.155133363939289</speed>
  <fix>3d</fix>
</trkpt>
<trkpt lat="40.071237" lon="-105.2301941">
  <ele>1583.0</ele>
  <time>2026-08-28T17:56:17Z</time>
  <course>245.99</course>
  <speed>4.83</speed>
  <fix>3d</fix>
</trkpt>
<trkpt lat="40.0712308" lon="-105.2302135">
  <ele>1583.08</ele>
  <time>2026-08-28T17:56:17Z</time>
  <course>246.71</course>
  <speed>5.253617801096688</speed>
  <fix>3d</fix>
</trkpt>
<trkpt lat="40.0712333" lon="-105.2302047">
  <ele>1583.0</ele>
  <time>2026-08-28T17:56:17Z</time>
  <course>245.99</course>
  <speed>5.06</speed>
  <fix>3d</fix>
</trkpt>
<trkpt lat="40.0712288" lon="-105.2302192">
  <ele>1583.08</ele>
  <time>2026-08-28T17:56:17Z</time>
  <course>246.7</course>
  <speed>5.352102390649865</speed>
  <fix>3d</fix>
</trkpt>
<trkpt lat="40.0712333" lon="-105.2302047">
  <ele>1583.0</ele>
  <time>2026-08-28T17:56:17Z</time>
  <course>245.99</course>
  <speed>5.06</speed>
  <fix>3d</fix>
</trkpt>
<trkpt lat="40.0712269" lon="-105.2302249">
  <ele>1583.08</ele>
  <time>2026-08-28T17:56:17Z</time>
  <course>246.69</course>
  <speed>5.441415257081562</speed>
  <fix>3d</fix>
</trkpt>
<trkpt lat="40.0712295" lon="-105.2302158">
  <ele>1583.0</ele>
  <time>2026-08-28T17:56:17Z</time>
  <course>245.99</course>
  <speed>5.26</speed>
  <fix>3d</fix>
</trkpt>
<trkpt lat="40.0712249" lon="-105.2302307">
  <ele>1583.08</ele>
  <time>2026-08-28T17:56:17Z</time>
  <course>246.68</course>
  <speed>5.5307323204074885</speed>
  <fix>3d</fix>
</trkpt>
<trkpt lat="40.0712295" lon="-105.2302158">
  <ele>1583.0</ele>
  <time>2026-08-28T17:56:17Z</time>
  <course>245.99</course>
  <speed>5.26</speed>
  <fix>3d</fix>
</trkpt>
<trkpt lat="40.0712229" lon="-105.2302366">
  <ele>1583.08</ele>
  <time>2026-08-28T17:56:17Z</time>
  <course>246.68</course>
  <speed>5.606888620259903</speed>
  <fix>3d</fix>
</trkpt>
<trkpt lat="40.0712257" lon="-105.2302273">
  <ele>1583.0</ele>
  <time>2026-08-28T17:56:17Z</time>
  <course>245.99</course>
  <speed>5.45</speed>
  <fix>3d</fix>
</trkpt>
<trkpt lat="40.0712208" lon="-105.2302426">
  <ele>1583.08</ele>
  <time>2026-08-28T17:56:17Z</time>
  <course>246.67</course>
  <speed>5.687046685231272</speed>
  <fix>3d</fix>
</trkpt>
<trkpt lat="40.0712257" lon="-105.2302273">
  <ele>1583.0</ele>
  <time>2026-08-28T17:56:17Z</time>
  <course>245.99</course>
  <speed>5.45</speed>
  <fix>3d</fix>
</trkpt>
<trkpt lat="40.0712191" lon="-105.2302475">
  <ele>1583.08</ele>
  <time>2026-08-28T17:56:17Z</time>
  <course>246.67</course>
  <speed>5.750034782503494</speed>
  <fix>3d</fix>
</trkpt>
<trkpt lat="40.0712216" lon="-105.2302392">
  <ele>1583.0</ele>
  <time>2026-08-28T17:56:17Z</time>
  <course>245.99</course>
  <speed>5.61</speed>
  <fix>3d</fix>
</trkpt>
<trkpt lat="40.071217" lon="-105.2302537">
  <ele>1583.08</ele>
  <time>2026-08-28T17:56:17Z</time>
  <course>246.66</course>
  <speed>5.817026731931013</speed>
  <fix>3d</fix>
</trkpt>
<trkpt lat="40.0712216" lon="-105.2302392">
  <ele>1583.0</ele>
  <time>2026-08-28T17:56:17Z</time>
  <course>245.99</course>
  <speed>5.61</speed>
  <fix>3d</fix>
</trkpt>
<trkpt lat="40.0712149" lon="-105.2302599">
  <ele>1583.08</ele>
  <time>2026-08-28T17:56:17Z</time>
  <course>246.65</course>
  <speed>5.884020734157893</speed>
  <fix>3d</fix>
</trkpt>
<trkpt lat="40.0712175" lon="-105.2302514">
  <ele>1583.0</ele>
  <time>2026-08-28T17:56:17Z</time>
  <course>245.99</course>
  <speed>5.76</speed>
  <fix>3d</fix>
</trkpt>
<trkpt lat="40.0712127" lon="-105.2302662">
  <ele>1583.08</ele>
  <time>2026-08-28T17:56:17Z</time>
  <course>246.65</course>
  <speed>5.951016719855524</speed>
  <fix>3d</fix>
</trkpt>
<trkpt lat="40.0712175" lon="-105.2302514">
  <ele>1583.0</ele>
  <time>2026-08-28T17:56:17Z</time>
  <course>245.99</course>
  <speed>5.76</speed>
  <fix>3d</fix>
</trkpt>
<trkpt lat="40.0712105" lon="-105.2302726">
  <ele>1583.08</ele>
  <time>2026-08-28T17:56:17Z</time>
  <course>246.65</course>
  <speed>6.018014622780506</speed>
  <fix>3d</fix>
</trkpt>
<trkpt lat="40.0712132" lon="-105.2302639">
  <ele>1583.0</ele>
  <time>2026-08-28T17:56:17Z</time>
  <course>245.99</course>
  <speed>5.9</speed>
  <fix>3d</fix>
</trkpt>
<trkpt lat="40.0712083" lon="-105.2302791">
  <ele>1583.08</ele>
  <time>2026-08-28T17:56:17Z</time>
  <course>246.64</course>
  <speed>6.0718366249430655</speed>
  <fix>3d</fix>
</trkpt>
<trkpt lat="40.0712132" lon="-105.2302639">
  <ele>1583.0</ele>
  <time>2026-08-28T17:56:17Z</time>
  <course>245.99</course>
  <speed>5.9</speed>
  <fix>3d</fix>
</trkpt>
<trkpt lat="40.0712061" lon="-105.2302857">
  <ele>1583.08</ele>
  <time>2026-08-28T17:56:17Z</time>
  <course>246.64</course>
  <speed>6.138835394437613</speed>
  <fix>3d</fix>
</trkpt>
<trkpt lat="40.0712089" lon="-105.2302766">
  <ele>1583.0</ele>
  <time>2026-08-28T17:56:17Z</time>
  <course>245.99</course>
  <speed>6.02</speed>
  <fix>3d</fix>
</trkpt>
<trkpt lat="40.0712038" lon="-105.2302923">
  <ele>1583.07</ele>
  <time>2026-08-28T17:56:17Z</time>
  <course>246.64</course>
  <speed>6.183502243874422</speed>
  <fix>3d</fix>
</trkpt>
<trkpt lat="40.0712089" lon="-105.2302766">
  <ele>1583.0</ele>
  <time>2026-08-28T17:56:17Z</time>
  <course>245.99</course>
  <speed>6.02</speed>
  <fix>3d</fix>
</trkpt>
<trkpt lat="40.0712015" lon="-105.230299">
  <ele>1583.07</ele>
  <time>2026-08-28T17:56:17Z</time>
  <course>246.64</course>
  <speed>6.237323143785321</speed>
  <fix>3d</fix>
</trkpt>
<trkpt lat="40.0712044" lon="-105.2302896">
  <ele>1583.0</ele>
  <time>2026-08-28T17:56:17Z</time>
  <course>245.99</course>
  <speed>6.13</speed>
  <fix>3d</fix>
</trkpt>
<trkpt lat="40.0711992" lon="-105.2303057">
  <ele>1583.07</ele>
  <time>2026-08-28T17:56:17Z</time>
  <course>246.64</course>
  <speed>6.281990130523925</speed>
  <fix>3d</fix>
</trkpt>
<trkpt lat="40.0712044" lon="-105.2302896">
  <ele>1583.0</ele>
  <time>2026-08-28T17:56:17Z</time>
  <course>245.99</course>
  <speed>6.13</speed>
  <fix>3d</fix>
</trkpt>
<trkpt lat="40.0711965" lon="-105.2303138">
  <ele>1583.07</ele>
  <time>2026-08-28T17:56:17Z</time>
  <course>246.64</course>
  <speed>6.339842269331313</speed>
  <fix>3d</fix>
</trkpt>
<trkpt lat="40.0711998" lon="-105.2303029">
  <ele>1583.0</ele>
  <time>2026-08-28T17:56:17Z</time>
  <course>245.99</course>
  <speed>6.23</speed>
  <fix>3d</fix>
</trkpt>
<trkpt lat="40.0711941" lon="-105.2303206">
  <ele>1583.07</ele>
  <time>2026-08-28T17:56:17Z</time>
  <course>246.63</course>
  <speed>6.384512510756009</speed>
  <fix>3d</fix>
</trkpt>
<trkpt lat="40.0711998" lon="-105.2303029">
  <ele>1583.0</ele>
  <time>2026-08-28T17:56:17Z</time>
  <course>245.99</course>
  <speed>6.23</speed>
  <fix>3d</fix>
</trkpt>
<trkpt lat="40.0711918" lon="-105.2303275">
  <ele>1583.07</ele>
  <time>2026-08-28T17:56:17Z</time>
  <course>246.63</course>
  <speed>6.425145912740037</speed>
  <fix>3d</fix>
</trkpt>
<trkpt lat="40.0711953" lon="-105.2303164">
  <ele>1583.0</ele>
  <time>2026-08-28T17:56:17Z</time>
  <course>245.99</course>
  <speed>6.33</speed>
  <fix>3d</fix>
</trkpt>
<trkpt lat="40.0711894" lon="-105.2303344">
  <ele>1583.07</ele>
  <time>2026-08-28T17:56:17Z</time>
  <course>246.63</course>
  <speed>6.447480127925949</speed>
  <fix>3d</fix>
</trkpt>
<trkpt lat="40.0711953" lon="-105.2303164">
  <ele>1583.0</ele>
  <time>2026-08-28T17:56:17Z</time>
  <course>245.99</course>
  <speed>6.33</speed>
  <fix>3d</fix>
</trkpt>
<trkpt lat="40.0711871" lon="-105.2303413">
  <ele>1583.07</ele>
  <time>2026-08-28T17:56:17Z</time>
  <course>246.63</course>
  <speed>6.3936609231331625</speed>
  <fix>3d</fix>
</trkpt>
<trkpt lat="40.0711906" lon="-105.2303301">
  <ele>1583.0</ele>
  <time>2026-08-28T17:56:17Z</time>
  <course>245.99</course>
  <speed>6.37</speed>
  <fix>3d</fix>
</trkpt>
<trkpt lat="40.0711848" lon="-105.2303479">
  <ele>1583.07</ele>
  <time>2026-08-28T17:56:17Z</time>
  <course>246.64</course>
  <speed>6.232206671797719</speed>
  <fix>3d</fix>
</trkpt>
<trkpt lat="40.0711906" lon="-105.2303301">
  <ele>1583.0</ele>
  <time>2026-08-28T17:56:17Z</time>
  <course>245.99</course>
  <speed>6.37</speed>
  <fix>3d</fix>
</trkpt>
<trkpt lat="40.0711826" lon="-105.2303544">
  <ele>1583.07</ele>
  <time>2026-08-28T17:56:17Z</time>
  <course>246.64</course>
  <speed>5.981412876570217</speed>
  <fix>3d</fix>
</trkpt>
<trkpt lat="40.071186" lon="-105.2303436">
  <ele>1583.0</ele>
  <time>2026-08-28T17:56:17Z</time>
  <course>245.99</course>
  <speed>6.18</speed>
  <fix>3d</fix>
</trkpt>
<trkpt lat="40.0711805" lon="-105.2303605">
  <ele>1583.07</ele>
  <time>2026-08-28T17:56:17Z</time>
  <course>246.64</course>
  <speed>5.6859475903318</speed>
  <fix>3d</fix>
</trkpt>
<trkpt lat="40.071186" lon="-105.2303436">
  <ele>1583.0</ele>
  <time>2026-08-28T17:56:17Z</time>
  <course>245.99</course>
  <speed>6.18</speed>
  <fix>3d</fix>
</trkpt>
<trkpt lat="40.0711785" lon="-105.2303663">
  <ele>1583.07</ele>
  <time>2026-08-28T17:56:17Z</time>
  <course>246.64</course>
  <speed>5.403674675625838</speed>
  <fix>3d</fix>
</trkpt>
<trkpt lat="40.0711816" lon="-105.2303565">
  <ele>1583.0</ele>
  <time>2026-08-28T17:56:17Z</time>
  <course>245.99</course>
  <speed>5.72</speed>
  <fix>3d</fix>
</trkpt>
<trkpt lat="40.0711766" lon="-105.2303718">
  <ele>1583.07</ele>
  <time>2026-08-28T17:56:17Z</time>
  <course>246.64</course>
  <speed>5.1254755876894</speed>
  <fix>3d</fix>
</trkpt>
<trkpt lat="40.0711816" lon="-105.2303565">
  <ele>1583.0</ele>
  <time>2026-08-28T17:56:17Z</time>
  <course>245.99</course>
  <speed>5.72</speed>
  <fix>3d</fix>
</trkpt>
<trkpt lat="40.0711748" lon="-105.2303771">
  <ele>1583.08</ele>
  <time>2026-08-28T17:56:17Z</time>
  <course>246.65</course>
  <speed>4.870615977471433</speed>
  <fix>3d</fix>
</trkpt>
<trkpt lat="40.0711777" lon="-105.2303681">
  <ele>1583.0</ele>
  <time>2026-08-28T17:56:17Z</time>
  <course>245.99</course>
  <speed>5.17</speed>
  <fix>3d</fix>
</trkpt>
<trkpt lat="40.0711734" lon="-105.2303811">
  <ele>1583.08</ele>
  <time>2026-08-28T17:56:17Z</time>
  <course>246.65</course>
  <speed>4.668586509854991</speed>
  <fix>3d</fix>
</trkpt>
<trkpt lat="40.0711777" lon="-105.2303681">
  <ele>1583.0</ele>
  <time>2026-08-28T17:56:17Z</time>
  <course>245.99</course>
  <speed>5.17</speed>
  <fix>3d</fix>
</trkpt>
<trkpt lat="40.0711717" lon="-105.2303858">
  <ele>1583.08</ele>
  <time>2026-08-28T17:56:17Z</time>
  <course>246.65</course>
  <speed>4.436056807571337</speed>
  <fix>3d</fix>
</trkpt>
<trkpt lat="40.071174" lon="-105.2303787">
  <ele>1583.0</ele>
  <time>2026-08-28T17:56:17Z</time>
  <course>245.99</course>
  <speed>4.68</speed>
  <fix>3d</fix>
</trkpt>
<trkpt lat="40.0711702" lon="-105.2303903">
  <ele>1583.09</ele>
  <time>2026-08-28T17:56:17Z</time>
  <course>246.66</course>
  <speed>4.207612149426322</speed>
  <fix>3d</fix>
</trkpt>
<trkpt lat="40.071174" lon="-105.2303787">
  <ele>1583.0</ele>
  <time>2026-08-28T17:56:17Z</time>
  <course>245.99</course>
  <speed>4.68</speed>
  <fix>3d</fix>
</trkpt>
<trkpt lat="40.0711687" lon="-105.2303946">
  <ele>1583.09</ele>
  <time>2026-08-28T17:56:17Z</time>
  <course>246.66</course>
  <speed>4.001512214151045</speed>
  <fix>3d</fix>
</trkpt>
<trkpt lat="40.0711708" lon="-105.2303882">
  <ele>1583.0</ele>
  <time>2026-08-28T17:56:17Z</time>
  <course>245.99</course>
  <speed>4.24</speed>
  <fix>3d</fix>
</trkpt>
<trkpt lat="40.0711673" lon="-105.2303987">
  <ele>1583.08</ele>
  <time>2026-08-28T17:56:17Z</time>
  <course>246.66</course>
  <speed>3.7954182905181875</speed>
  <fix>3d</fix>
</trkpt>
<trkpt lat="40.0711708" lon="-105.2303882">
  <ele>1583.0</ele>
  <time>2026-08-28T17:56:17Z</time>
  <course>245.99</course>
  <speed>4.24</speed>
  <fix>3d</fix>
</trkpt>
<trkpt lat="40.0711659" lon="-105.2304026">
  <ele>1583.08</ele>
  <time>2026-08-28T17:56:17Z</time>
  <course>246.66</course>
  <speed>3.59844410822233</speed>
  <fix>3d</fix>
</trkpt>
<trkpt lat="40.0711679" lon="-105.2303969">
  <ele>1583.0</ele>
  <time>2026-08-28T17:56:17Z</time>
  <course>245.99</course>
  <speed>3.83</speed>
  <fix>3d</fix>
</trkpt>
<trkpt lat="40.0711646" lon="-105.2304063">
  <ele>1583.08</ele>
  <time>2026-08-28T17:56:17Z</time>
  <course>246.67</course>
  <speed>3.414703501037828</speed>
  <fix>3d</fix>
</trkpt>
<trkpt lat="40.0711679" lon="-105.2303969">
  <ele>1583.0</ele>
  <time>2026-08-28T17:56:17Z</time>
  <course>245.99</course>
  <speed>3.83</speed>
  <fix>3d</fix>
</trkpt>
<trkpt lat="40.0711634" lon="-105.2304098">
  <ele>1583.08</ele>
  <time>2026-08-28T17:56:17Z</time>
  <course>246.67</course>
  <speed>3.2400771595750615</speed>
  <fix>3d</fix>
</trkpt>
<trkpt lat="40.0711652" lon="-105.2304048">
  <ele>1583.0</ele>
  <time>2026-08-28T17:56:17Z</time>
  <course>245.99</course>
  <speed>3.47</speed>
  <fix>3d</fix>
</trkpt>
<trkpt lat="40.0711623" lon="-105.2304132">
  <ele>1583.08</ele>
  <time>2026-08-28T17:56:17Z</time>
  <course>246.67</course>
  <speed>3.0745568786412134</speed>
  <fix>3d</fix>
</trkpt>
<trkpt lat="40.0711652" lon="-105.2304048">
  <ele>1583.0</ele>
  <time>2026-08-28T17:56:17Z</time>
  <course>245.99</course>
  <speed>3.47</speed>
  <fix>3d</fix>
</trkpt>
<trkpt lat="40.0711612" lon="-105.2304164">
  <ele>1583.08</ele>
  <time>2026-08-28T17:56:17Z</time>
  <course>246.67</course>
  <speed>2.92227650984639</speed>
  <fix>3d</fix>
</trkpt>
<trkpt lat="40.0711628" lon="-105.2304118">
  <ele>1583.0</ele>
  <time>2026-08-28T17:56:17Z</time>
  <course>245.99</course>
  <speed>3.14</speed>
  <fix>3d</fix>
</trkpt>
<trkpt lat="40.0711599" lon="-105.23042">
  <ele>1583.08</ele>
  <time>2026-08-28T17:56:17Z</time>
  <course>246.67</course>
  <speed>2.7344103569142653</speed>
  <fix>3d</fix>
</trkpt>
<trkpt lat="40.0711628" lon="-105.2304118">
  <ele>1583.0</ele>
  <time>2026-08-28T17:56:17Z</time>
  <course>245.99</course>
  <speed>3.14</speed>
  <fix>3d</fix>
</trkpt>
<trkpt lat="40.0711589" lon="-105.2304228">
  <ele>1583.08</ele>
  <time>2026-08-28T17:56:17Z</time>
  <course>246.67</course>
  <speed>2.5953805116013338</speed>
  <fix>3d</fix>
</trkpt>
<trkpt lat="40.0711606" lon="-105.2304182">
  <ele>1583.0</ele>
  <time>2026-08-28T17:56:17Z</time>
  <course>245.99</course>
  <speed>2.84</speed>
  <fix>3d</fix>
</trkpt>
<trkpt lat="40.071158" lon="-105.2304255">
  <ele>1583.08</ele>
  <time>2026-08-28T17:56:17Z</time>
  <course>246.67</course>
  <speed>2.4613004692641653</speed>
  <fix>3d</fix>
</trkpt>
<trkpt lat="40.0711606" lon="-105.2304182">
  <ele>1583.0</ele>
  <time>2026-08-28T17:56:17Z</time>
  <course>245.99</course>
  <speed>2.84</speed>
  <fix>3d</fix>
</trkpt>
<trkpt lat="40.0711571" lon="-105.2304281">
  <ele>1583.08</ele>
  <time>2026-08-28T17:56:17Z</time>
  <course>246.67</course>
  <speed>2.3313729860320507</speed>
  <fix>3d</fix>
</trkpt>
<trkpt lat="40.0711586" lon="-105.230424">
  <ele>1583.0</ele>
  <time>2026-08-28T17:56:17Z</time>
  <course>245.99</course>
  <speed>2.57</speed>
  <fix>3d</fix>
</trkpt>
<trkpt lat="40.0711563" lon="-105.2304305">
  <ele>1583.08</ele>
  <time>2026-08-28T17:56:17Z</time>
  <course>246.67</course>
  <speed>2.21054291973714</speed>
  <fix>3d</fix>
</trkpt>
<trkpt lat="40.0711586" lon="-105.230424">
  <ele>1583.0</ele>
  <time>2026-08-28T17:56:17Z</time>
  <course>245.99</course>
  <speed>2.57</speed>
  <fix>3d</fix>
</trkpt>
<trkpt lat="40.0711555" lon="-105.2304329">
  <ele>1583.08</ele>
  <time>2026-08-28T17:56:17Z</time>
  <course>246.67</course>
  <speed>2.0988091861815357</speed>
  <fix>3d</fix>
</trkpt>
<trkpt lat="40.0711568" lon="-105.2304293">
  <ele>1583.0</ele>
  <time>2026-08-28T17:56:17Z</time>
  <course>245.99</course>
  <speed>2.32</speed>
  <fix>3d</fix>
</trkpt>
<trkpt lat="40.0711548" lon="-105.230435">
  <ele>1583.08</ele>
  <time>2026-08-28T17:56:17Z</time>
  <course>246.67</course>
  <speed>1.9912307751739877</speed>
  <fix>3d</fix>
</trkpt>
<trkpt lat="40.0711568" lon="-105.2304293">
  <ele>1583.0</ele>
  <time>2026-08-28T17:56:17Z</time>
  <course>245.99</course>
  <speed>2.32</speed>
  <fix>3d</fix>
</trkpt>
<trkpt lat="40.071154" lon="-105.2304371">
  <ele>1583.08</ele>
  <time>2026-08-28T17:56:17Z</time>
  <course>246.68</course>
  <speed>1.8794946129212502</speed>
  <fix>3d</fix>
</trkpt>
<trkpt lat="40.0711552" lon="-105.230434">
  <ele>1583.0</ele>
  <time>2026-08-28T17:56:17Z</time>
  <course>245.99</course>
  <speed>2.1</speed>
  <fix>3d</fix>
</trkpt>
<trkpt lat="40.0711534" lon="-105.2304391">
  <ele>1583.08</ele>
  <time>2026-08-28T17:56:17Z</time>
  <course>246.68</course>
  <speed>1.7810109488714547</speed>
  <fix>3d</fix>
</trkpt>
<trkpt lat="40.0711552" lon="-105.230434">
  <ele>1583.0</ele>
  <time>2026-08-28T17:56:17Z</time>
  <course>245.99</course>
  <speed>2.1</speed>
  <fix>3d</fix>
</trkpt>
<trkpt lat="40.0711527" lon="-105.230441">
  <ele>1583.07</ele>
  <time>2026-08-28T17:56:17Z</time>
  <course>246.68</course>
  <speed>1.69162643630324</speed>
  <fix>3d</fix>
</trkpt>
<trkpt lat="40.0711538" lon="-105.2304383">
  <ele>1583.0</ele>
  <time>2026-08-28T17:56:17Z</time>
  <course>245.99</course>
  <speed>1.9</speed>
  <fix>3d</fix>
</trkpt>
<trkpt lat="40.0711506" lon="-105.2304474">
  <ele>1583.05</ele>
  <time>2026-08-28T17:56:17Z</time>
  <course>246.68</course>
  <speed>1.3738267721950974</speed>
  <fix>3d</fix>
</trkpt>
<trkpt lat="40.0711512" lon="-105.2304457">
  <ele>1583.0</ele>
  <time>2026-08-28T17:56:17Z</time>
  <course>245.99</course>
  <speed>1.55</speed>
  <fix>3d</fix>
</trkpt>
<trkpt lat="40.0711491" lon="-105.2304517">
  <ele>1583.04</ele>
  <time>2026-08-28T17:56:17Z</time>
  <course>246.69</course>
  <speed>1.172731853408954</speed>
  <fix>3d</fix>
</trkpt>
<trkpt lat="40.0711502" lon="-105.2304489">
  <ele>1583.0</ele>
  <time>2026-08-28T17:56:17Z</time>
  <course>245.99</course>
  <speed>1.41</speed>
  <fix>3d</fix>
</trkpt>
<trkpt lat="40.0711487" lon="-105.2304529">
  <ele>1583.04</ele>
  <time>2026-08-28T17:56:17Z</time>
  <course>246.69</course>
  <speed>1.109819805193618</speed>
  <fix>3d</fix>
</trkpt>
<trkpt lat="40.0711491" lon="-105.2304518">
  <ele>1583.0</ele>
  <time>2026-08-28T17:56:17Z</time>
  <course>245.99</course>
  <speed>1.27</speed>
  <fix>3d</fix>
</trkpt>
<trkpt lat="40.0711483" lon="-105.2304542">
  <ele>1583.04</ele>
  <time>2026-08-28T17:56:17Z</time>
  <course>246.7</course>
  <speed>1.0519030373565805</speed>
  <fix>3d</fix>
</trkpt>
<trkpt lat="40.0711491" lon="-105.2304518">
  <ele>1583.0</ele>
  <time>2026-08-28T17:56:17Z</time>
  <course>245.99</course>
  <speed>1.27</speed>
  <fix>3d</fix>
</trkpt>
<trkpt lat="40.0711479" lon="-105.2304554">
  <ele>1583.04</ele>
  <time>2026-08-28T17:56:17Z</time>
  <course>246.7</course>
  <speed>0.9980981915623331</speed>
  <fix>3d</fix>
</trkpt>
<trkpt lat="40.0711483" lon="-105.2304544">
  <ele>1583.0</ele>
  <time>2026-08-28T17:56:17Z</time>
  <course>245.99</course>
  <speed>1.15</speed>
  <fix>3d</fix>
</trkpt>
<trkpt lat="40.0711474" lon="-105.2304567">
  <ele>1583.04</ele>
  <time>2026-08-28T17:56:17Z</time>
  <course>246.7</course>
  <speed>0.9402127418834527</speed>
  <fix>3d</fix>
</trkpt>
<trkpt lat="40.0711483" lon="-105.2304544">
  <ele>1583.0</ele>
  <time>2026-08-28T17:56:17Z</time>
  <course>245.99</course>
  <speed>1.15</speed>
  <fix>3d</fix>
</trkpt>
<trkpt lat="40.0711467" lon="-105.2304588">
  <ele>1583.04</ele>
  <time>2026-08-28T17:56:17Z</time>
  <course>246.71</course>
  <speed>0.8417244204607586</speed>
  <fix>3d</fix>
</trkpt>
<trkpt lat="40.0711474" lon="-105.2304567">
  <ele>1583.0</ele>
  <time>2026-08-28T17:56:17Z</time>
  <course>245.99</course>
  <speed>1.04</speed>
  <fix>3d</fix>
</trkpt>
<trkpt lat="40.0711464" lon="-105.2304598">
  <ele>1583.04</ele>
  <time>2026-08-28T17:56:17Z</time>
  <course>246.72</course>
  <speed>0.797057087039567</speed>
  <fix>3d</fix>
</trkpt>
<trkpt lat="40.0711467" lon="-105.2304589">
  <ele>1583.0</ele>
  <time>2026-08-28T17:56:17Z</time>
  <course>245.99</course>
  <speed>0.94</speed>
  <fix>3d</fix>
</trkpt>
<trkpt lat="40.0711461" lon="-105.2304607">
  <ele>1583.04</ele>
  <time>2026-08-28T17:56:17Z</time>
  <course>246.72</course>
  <speed>0.7615773105863909</speed>
  <fix>3d</fix>
</trkpt>
<trkpt lat="40.0711467" lon="-105.2304589">
  <ele>1583.0</ele>
  <time>2026-08-28T17:56:17Z</time>
  <course>245.99</course>
  <speed>0.94</speed>
  <fix>3d</fix>
</trkpt>
<trkpt lat="40.0711458" lon="-105.2304616">
  <ele>1583.04</ele>
  <time>2026-08-28T17:56:17Z</time>
  <course>246.72</course>
  <speed>0.7169379331573968</speed>
  <fix>3d</fix>
</trkpt>
<trkpt lat="40.071146" lon="-105.2304608">
  <ele>1583.0</ele>
  <time>2026-08-28T17:56:17Z</time>
  <course>245.99</course>
  <speed>0.85</speed>
  <fix>3d</fix>
</trkpt>
<trkpt lat="40.0711455" lon="-105.2304624">
  <ele>1583.04</ele>
  <time>2026-08-28T17:56:17Z</time>
  <course>246.73</course>
  <speed>0.6854195795277518</speed>
  <fix>3d</fix>
</trkpt>
<trkpt lat="40.071146" lon="-105.2304608">
  <ele>1583.0</ele>
  <time>2026-08-28T17:56:17Z</time>
  <course>245.99</course>
  <speed>0.85</speed>
  <fix>3d</fix>
</trkpt>
<trkpt lat="40.0711453" lon="-105.2304632">
  <ele>1583.03</ele>
  <time>2026-08-28T17:56:17Z</time>
  <course>246.73</course>
  <speed>0.6407807737440318</speed>
  <fix>3d</fix>
</trkpt>
<trkpt lat="40.0711455" lon="-105.2304626">
  <ele>1583.0</ele>
  <time>2026-08-28T17:56:17Z</time>
  <course>245.99</course>
  <speed>0.77</speed>
  <fix>3d</fix>
</trkpt>
<trkpt lat="40.071145" lon="-105.2304639">
  <ele>1583.03</ele>
  <time>2026-08-28T17:56:17Z</time>
  <course>246.74</course>
  <speed>0.6092618484691127</speed>
  <fix>3d</fix>
</trkpt>
<trkpt lat="40.0711455" lon="-105.2304626">
  <ele>1583.0</ele>
  <time>2026-08-28T17:56:17Z</time>
  <course>245.99</course>
  <speed>0.77</speed>
  <fix>3d</fix>
</trkpt>
<trkpt lat="40.0711448" lon="-105.2304647">
  <ele>1583.02</ele>
  <time>2026-08-28T17:56:17Z</time>
  <course>246.74</course>
  <speed>0.58309518948453</speed>
  <fix>3d</fix>
</trkpt>
<trkpt lat="40.0711449" lon="-105.2304641">
  <ele>1583.0</ele>
  <time>2026-08-28T17:56:17Z</time>
  <course>245.99</course>
  <speed>0.7</speed>
  <fix>3d</fix>
</trkpt>
<trkpt lat="40.0711446" lon="-105.2304653">
  <ele>1583.01</ele>
  <time>2026-08-28T17:56:17Z</time>
  <course>246.74</course>
  <speed>0.551543289325507</speed>
  <fix>3d</fix>
</trkpt>
<trkpt lat="40.0711449" lon="-105.2304641">
  <ele>1583.0</ele>
  <time>2026-08-28T17:56:17Z</time>
  <course>245.99</course>
  <speed>0.7</speed>
  <fix>3d</fix>
</trkpt>
<trkpt lat="40.0711444" lon="-105.230466">
  <ele>1583.0</ele>
  <time>2026-08-28T17:56:17Z</time>
  <course>246.75</course>
  <speed>0.52</speed>
  <fix>3d</fix>
</trkpt>
<trkpt lat="40.0711445" lon="-105.2304656">
  <ele>1583.0</ele>
  <time>2026-08-28T17:56:17Z</time>
  <course>245.99</course>
  <speed>0.63</speed>
  <fix>3d</fix>
</trkpt>
<trkpt lat="40.0711442" lon="-105.2304665">
  <ele>1583.0</ele>
  <time>2026-08-28T17:56:17Z</time>
  <course>246.75</course>
  <speed>0.49769468552517215</speed>
  <fix>3d</fix>
</trkpt>
<trkpt lat="40.0711445" lon="-105.2304656">
  <ele>1583.0</ele>
  <time>2026-08-28T17:56:17Z</time>
  <course>245.99</course>
  <speed>0.63</speed>
  <fix>3d</fix>
</trkpt>
<trkpt lat="40.071144" lon="-105.2304671">
  <ele>1582.99</ele>
  <time>2026-08-28T17:56:17Z</time>
  <course>246.75</course>
  <speed>0.4753945729601885</speed>
  <fix>3d</fix>
</trkpt>
<trkpt lat="40.071144" lon="-105.2304668">
  <ele>1583.0</ele>
  <time>2026-08-28T17:56:17Z</time>
  <course>245.99</course>
  <speed>0.57</speed>
  <fix>3d</fix>
</trkpt>
<trkpt lat="40.0711438" lon="-105.2304677">
  <ele>1582.99</ele>
  <time>2026-08-28T17:56:17Z</time>
  <course>246.76</course>
  <speed>0.45310043036836767</speed>
  <fix>3d</fix>
</trkpt>
<trkpt lat="40.071144" lon="-105.2304668">
  <ele>1583.0</ele>
  <time>2026-08-28T17:56:17Z</time>
  <course>245.99</course>
  <speed>0.57</speed>
  <fix>3d</fix>
</trkpt>
<trkpt lat="40.0711437" lon="-105.2304682">
  <ele>1582.98</ele>
  <time>2026-08-28T17:56:17Z</time>
  <course>246.76</course>
  <speed>0.42720018726587655</speed>
  <fix>3d</fix>
</trkpt>
<trkpt lat="40.0711436" lon="-105.230468">
  <ele>1583.0</ele>
  <time>2026-08-28T17:56:17Z</time>
  <course>245.99</course>
  <speed>0.51</speed>
  <fix>3d</fix>
</trkpt>
<trkpt lat="40.0711435" lon="-105.2304687">
  <ele>1582.98</ele>
  <time>2026-08-28T17:56:17Z</time>
  <course>246.76</course>
  <speed>0.4049691346263317</speed>
  <fix>3d</fix>
</trkpt>
<trkpt lat="40.0711436" lon="-105.230468">
  <ele>1583.0</ele>
  <time>2026-08-28T17:56:17Z</time>
  <course>245.99</course>
  <speed>0.51</speed>
  <fix>3d</fix>
</trkpt>
<trkpt lat="40.0711434" lon="-105.2304691">
  <ele>1582.97</ele>
  <time>2026-08-28T17:56:17Z</time>
  <course>246.76</course>
  <speed>0.3827531841800928</speed>
  <fix>3d</fix>
</trkpt>
<trkpt lat="40.0711433" lon="-105.2304691">
  <ele>1583.0</ele>
  <time>2026-08-28T17:56:17Z</time>
  <course>245.99</course>
  <speed>0.46</speed>
  <fix>3d</fix>
</trkpt>
<trkpt lat="40.0711432" lon="-105.2304696">
  <ele>1582.96</ele>
  <time>2026-08-28T17:56:17Z</time>
  <course>246.77</course>
  <speed>0.3605551275463989</speed>
  <fix>3d</fix>
</trkpt>
<trkpt lat="40.0711433" lon="-105.2304691">
  <ele>1583.0</ele>
  <time>2026-08-28T17:56:17Z</time>
  <course>245.99</course>
  <speed>0.46</speed>
  <fix>3d</fix>
</trkpt>
<trkpt lat="40.0711431" lon="-105.23047">
  <ele>1582.96</ele>
  <time>2026-08-28T17:56:17Z</time>
  <course>246.77</course>
  <speed>0.33837848631377265</speed>
  <fix>3d</fix>
</trkpt>
<trkpt lat="40.0711429" lon="-105.2304701">
  <ele>1583.0</ele>
  <time>2026-08-28T17:56:17Z</time>
  <course>245.99</course>
  <speed>0.42</speed>
  <fix>3d</fix>
</trkpt>
<trkpt lat="40.071143" lon="-105.2304703">
  <ele>1582.95</ele>
  <time>2026-08-28T17:56:17Z</time>
  <course>246.77</course>
  <speed>0.31622776601683794</speed>
  <fix>3d</fix>
</trkpt>
<trkpt lat="40.0711429" lon="-105.2304701">
  <ele>1583.0</ele>
  <time>2026-08-28T17:56:17Z</time>
  <course>245.99</course>
  <speed>0.42</speed>
  <fix>3d</fix>
</trkpt>
<trkpt lat="40.0711429" lon="-105.2304708">
  <ele>1582.95</ele>
  <time>2026-08-28T17:56:17Z</time>
  <course>246.78</course>
  <speed>0.29410882339705485</speed>
  <fix>3d</fix>
</trkpt>
<trkpt lat="40.0711426" lon="-105.230471">
  <ele>1583.0</ele>
  <time>2026-08-28T17:56:17Z</time>
  <course>245.99</course>
  <speed>0.38</speed>
  <fix>3d</fix>
</trkpt>
<trkpt lat="40.0711428" lon="-105.2304711">
  <ele>1582.95</ele>
  <time>2026-08-28T17:56:17Z</time>
  <course>246.78</course>
  <speed>0.2720294101747089</speed>
  <fix>3d</fix>
</trkpt>
<trkpt lat="40.0711426" lon="-105.230471">
  <ele>1583.0</ele>
  <time>2026-08-28T17:56:17Z</time>
  <course>245.99</course>
  <speed>0.38</speed>
  <fix>3d</fix>
</trkpt>
<trkpt lat="39.655741" lon="-104.1383097">
  <ele>1566.58</ele>
  <time>2026-08-28T17:56:17Z</time>
  <course>0.0</course>
  <speed>0.0</speed>
  <fix>3d</fix>
</trkpt>
<trkpt lat="40.0713749" lon="-105.229789">
  <ele>1583.0</ele>
  <time>2026-08-28T17:56:17Z</time>
  <course>0.0</course>
  <speed>0.0</speed>
  <fix>3d</fix>
</trkpt>
<trkpt lat="40.0713749" lon="-105.229789">
  <ele>1583.0</ele>
  <time>2026-08-28T17:56:17Z</time>
  <course>0.0</course>
  <speed>0.0</speed>
  <fix>3d</fix>
</trkpt>
<trkpt lat="40.0713749" lon="-105.229789">
  <ele>1583.0</ele>
  <time>2026-08-28T17:56:17Z</time>
  <course>0.0</course>
  <speed>0.0</speed>
  <fix>3d</fix>
</trkpt>
<trkpt lat="40.0713749" lon="-105.229789">
  <ele>1583.0</ele>
  <time>2026-08-28T17:56:17Z</time>
  <course>0.0</course>
  <speed>0.0</speed>
  <fix>3d</fix>
</trkpt>
<trkpt lat="40.0713749" lon="-105.229789">
  <ele>1583.0</ele>
  <time>2026-08-28T17:56:17Z</time>
  <course>0.0</course>
  <speed>0.0</speed>
  <fix>3d</fix>
</trkpt>
<trkpt lat="40.0713749" lon="-105.229789">
  <ele>1583.0</ele>
  <time>2026-08-28T17:56:17Z</time>
  <course>0.0</course>
  <speed>0.0</speed>
  <fix>3d</fix>
</trkpt>
<trkpt lat="40.0713749" lon="-105.229789">
  <ele>1583.0</ele>
  <time>2026-08-28T17:56:17Z</time>
  <course>0.0</course>
  <speed>0.0</speed>
  <fix>3d</fix>
</trkpt>
<trkpt lat="40.0713749" lon="-105.229789">
  <ele>1583.0</ele>
  <time>2026-08-28T17:56:17Z</time>
  <course>0.0</course>
  <speed>0.0</speed>
  <fix>3d</fix>
</trkpt>
<trkpt lat="40.0713749" lon="-105.229789">
  <ele>1583.0</ele>
  <time>2026-08-28T17:56:17Z</time>
  <course>0.0</course>
  <speed>0.0</speed>
  <fix>3d</fix>
</trkpt>
<trkpt lat="40.0713749" lon="-105.229789">
  <ele>1583.0</ele>
  <time>2026-08-28T17:56:17Z</time>
  <course>0.0</course>
  <speed>0.0</speed>
  <fix>3d</fix>
</trkpt>
<trkpt lat="40.0713749" lon="-105.229789">
  <ele>1583.0</ele>
  <time>2026-08-28T17:56:17Z</time>
  <course>0.0</course>
  <speed>0.0</speed>
  <fix>3d</fix>
</trkpt>
<trkpt lat="40.0713749" lon="-105.229789">
  <ele>1583.0</ele>
  <time>2026-08-28T17:56:17Z</time>
  <course>0.0</course>
  <speed>0.0</speed>
  <fix>3d</fix>
</trkpt>
<trkpt lat="40.0713749" lon="-105.229789">
  <ele>1583.0</ele>
  <time>2026-08-28T17:56:17Z</time>
  <course>0.0</course>
  <speed>0.0</speed>
  <fix>3d</fix>
</trkpt>
<trkpt lat="40.0713749" lon="-105.229789">
  <ele>1583.0</ele>
  <time>2026-08-28T17:56:17Z</time>
  <course>0.0</course>
  <speed>0.0</speed>
  <fix>3d</fix>
</trkpt>
<trkpt lat="40.0713749" lon="-105.229789">
  <ele>1583.0</ele>
  <time>2026-08-28T17:56:17Z</time>
  <course>0.0</course>
  <speed>0.0</speed>
  <fix>3d</fix>
</trkpt>
<trkpt lat="40.0713749" lon="-105.229789">
  <ele>1583.0</ele>
  <time>2026-08-28T17:56:17Z</time>
  <course>0.0</course>
  <speed>0.0</speed>
  <fix>3d</fix>
</trkpt>
<trkpt lat="40.0713749" lon="-105.229789">
  <ele>1583.0</ele>
  <time>2026-08-28T17:56:17Z</time>
  <course>0.0</course>
  <speed>0.0</speed>
  <fix>3d</fix>
</trkpt>
<trkpt lat="40.0713749" lon="-105.229789">
  <ele>1583.0</ele>
  <time>2026-08-28T17:56:17Z</time>
  <course>0.0</course>
  <speed>0.0</speed>
  <fix>3d</fix>
</trkpt>
<trkpt lat="40.0713749" lon="-105.229789">
  <ele>1583.0</ele>
  <time>2026-08-28T17:56:17Z</time>
  <course>0.0</course>
  <speed>0.0</speed>
  <fix>3d</fix>
</trkpt>
<trkpt lat="40.0713749" lon="-105.229789">
  <ele>1583.0</ele>
  <time>2026-08-28T17:56:17Z</time>
  <course>0.0</course>
  <speed>0.0</speed>
  <fix>3d</fix>
</trkpt>
<trkpt lat="40.0713749" lon="-105.229789">
  <ele>1583.0</ele>
  <time>2026-08-28T17:56:17Z</time>
  <course>0.0</course>
  <speed>0.0</speed>
  <fix>3d</fix>
</trkpt>
<trkpt lat="40.0713749" lon="-105.229789">
  <ele>1583.0</ele>
  <time>2026-08-28T17:56:17Z</time>
  <course>0.0</course>
  <speed>0.0</speed>
  <fix>3d</fix>
</trkpt>
<trkpt lat="40.0713749" lon="-105.229789">
  <ele>1583.0</ele>
  <time>2026-08-28T17:56:17Z</time>
  <course>0.0</course>
  <speed>0.0</speed>
  <fix>3d</fix>
</trkpt>
<trkpt lat="40.0713749" lon="-105.229789">
  <ele>1583.0</ele>
  <time>2026-08-28T17:56:17Z</time>
  <course>0.0</course>
  <speed>0.0</speed>
  <fix>3d</fix>
</trkpt>
<trkpt lat="40.0713749" lon="-105.229789">
  <ele>1583.0</ele>
  <time>2026-08-28T17:56:17Z</time>
  <course>0.0</course>
  <speed>0.0</speed>
  <fix>3d</fix>
</trkpt>
<trkpt lat="40.0713749" lon="-105.229789">
  <ele>1583.0</ele>
  <time>2026-08-28T17:56:17Z</time>
  <course>0.0</course>
  <speed>0.0</speed>
  <fix>3d</fix>
</trkpt>
<trkpt lat="40.0713749" lon="-105.229789">
  <ele>1583.0</ele>
  <time>2026-08-28T17:56:17Z</time>
  <course>0.0</course>
  <speed>0.0</speed>
  <fix>3d</fix>
</trkpt>
<trkpt lat="40.0713749" lon="-105.229789">
  <ele>1583.0</ele>
  <time>2026-08-28T17:56:17Z</time>
  <course>0.0</course>
  <speed>0.0</speed>
  <fix>3d</fix>
</trkpt>
<trkpt lat="40.0713749" lon="-105.229789">
  <ele>1583.0</ele>
  <time>2026-08-28T17:56:17Z</time>
  <course>0.0</course>
  <speed>0.0</speed>
  <fix>3d</fix>
</trkpt>
<trkpt lat="40.0713749" lon="-105.229789">
  <ele>1583.0</ele>
  <time>2026-08-28T17:56:17Z</time>
  <course>0.0</course>
  <speed>0.0</speed>
  <fix>3d</fix>
</trkpt>
<trkpt lat="40.0713749" lon="-105.229789">
  <ele>1583.0</ele>
  <time>2026-08-28T17:56:18Z</time>
  <course>0.0</course>
  <speed>0.0</speed>
  <fix>3d</fix>
</trkpt>
<trkpt lat="40.0713749" lon="-105.229789">
  <ele>1583.0</ele>
  <time>2026-08-28T17:56:18Z</time>
  <course>0.0</course>
  <speed>0.0</speed>
  <fix>3d</fix>
</trkpt>
<trkpt lat="40.0713749" lon="-105.229789">
  <ele>1583.0</ele>
  <time>2026-08-28T17:56:18Z</time>
  <course>0.0</course>
  <speed>0.0</speed>
  <fix>3d</fix>
</trkpt>
<trkpt lat="40.0713749" lon="-105.229789">
  <ele>1583.0</ele>
  <time>2026-08-28T17:56:18Z</time>
  <course>0.0</course>
  <speed>0.0</speed>
  <fix>3d</fix>
</trkpt>
<trkpt lat="40.0713749" lon="-105.229789">
  <ele>1583.0</ele>
  <time>2026-08-28T17:56:18Z</time>
  <course>0.0</course>
  <speed>0.0</speed>
  <fix>3d</fix>
</trkpt>
<trkpt lat="40.0713749" lon="-105.229789">
  <ele>1583.0</ele>
  <time>2026-08-28T17:56:18Z</time>
  <course>0.0</course>
  <speed>0.0</speed>
  <fix>3d</fix>
</trkpt>
<trkpt lat="40.0713749" lon="-105.229789">
  <ele>1583.0</ele>
  <time>2026-08-28T17:56:18Z</time>
  <course>0.0</course>
  <speed>0.0</speed>
  <fix>3d</fix>
</trkpt>
<trkpt lat="40.0713749" lon="-105.229789">
  <ele>1583.0</ele>
  <time>2026-08-28T17:56:18Z</time>
  <course>0.0</course>
  <speed>0.0</speed>
  <fix>3d</fix>
</trkpt>
<trkpt lat="40.0713749" lon="-105.229789">
  <ele>1583.0</ele>
  <time>2026-08-28T17:56:18Z</time>
  <course>0.0</course>
  <speed>0.0</speed>
  <fix>3d</fix>
</trkpt>
<trkpt lat="40.0713749" lon="-105.229789">
  <ele>1583.0</ele>
  <time>2026-08-28T17:56:18Z</time>
  <course>0.0</course>
  <speed>0.0</speed>
  <fix>3d</fix>
</trkpt>
<trkpt lat="40.0713749" lon="-105.229789">
  <ele>1583.0</ele>
  <time>2026-08-28T17:56:18Z</time>
  <course>0.0</course>
  <speed>0.0</speed>
  <fix>3d</fix>
</trkpt>
<trkpt lat="40.0713749" lon="-105.229789">
  <ele>1583.0</ele>
  <time>2026-08-28T17:56:18Z</time>
  <course>0.0</course>
  <speed>0.0</speed>
  <fix>3d</fix>
</trkpt>
<trkpt lat="40.0713749" lon="-105.229789">
  <ele>1583.0</ele>
  <time>2026-08-28T17:56:18Z</time>
  <course>0.0</course>
  <speed>0.0</speed>
  <fix>3d</fix>
</trkpt>
<trkpt lat="40.0713749" lon="-105.229789">
  <ele>1583.0</ele>
  <time>2026-08-28T17:56:18Z</time>
  <course>0.0</course>
  <speed>0.0</speed>
  <fix>3d</fix>
</trkpt>
<trkpt lat="40.0713749" lon="-105.229789">
  <ele>1583.0</ele>
  <time>2026-08-28T17:56:18Z</time>
  <course>0.0</course>
  <speed>0.0</speed>
  <fix>3d</fix>
</trkpt>
<trkpt lat="40.0713749" lon="-105.229789">
  <ele>1583.0</ele>
  <time>2026-08-28T17:56:18Z</time>
  <course>0.0</course>
  <speed>0.0</speed>
  <fix>3d</fix>
</trkpt>
<trkpt lat="40.0713749" lon="-105.229789">
  <ele>1583.0</ele>
  <time>2026-08-28T17:56:18Z</time>
  <course>0.0</course>
  <speed>0.0</speed>
  <fix>3d</fix>
</trkpt>
<trkpt lat="40.0713749" lon="-105.229789">
  <ele>1583.0</ele>
  <time>2026-08-28T17:56:18Z</time>
  <course>0.0</course>
  <speed>0.0</speed>
  <fix>3d</fix>
</trkpt>
<trkpt lat="40.0713749" lon="-105.229789">
  <ele>1583.0</ele>
  <time>2026-08-28T17:56:18Z</time>
  <course>0.0</course>
  <speed>0.0</speed>
  <fix>3d</fix>
</trkpt>
<trkpt lat="40.0713749" lon="-105.229789">
  <ele>1583.0</ele>
  <time>2026-08-28T17:56:18Z</time>
  <course>0.0</course>
  <speed>0.0</speed>
  <fix>3d</fix>
</trkpt>
<trkpt lat="40.0713749" lon="-105.229789">
  <ele>1583.0</ele>
  <time>2026-08-28T17:56:18Z</time>
  <course>0.0</course>
  <speed>0.0</speed>
  <fix>3d</fix>
</trkpt>
<trkpt lat="40.0713749" lon="-105.229789">
  <ele>1583.0</ele>
  <time>2026-08-28T17:56:18Z</time>
  <course>0.0</course>
  <speed>0.0</speed>
  <fix>3d</fix>
</trkpt>
<trkpt lat="40.0713749" lon="-105.229789">
  <ele>1583.0</ele>
  <time>2026-08-28T17:56:18Z</time>
  <course>0.0</course>
  <speed>0.0</speed>
  <fix>3d</fix>
</trkpt>
<trkpt lat="40.0713749" lon="-105.229789">
  <ele>1583.0</ele>
  <time>2026-08-28T17:56:18Z</time>
  <course>0.0</course>
  <speed>0.0</speed>
  <fix>3d</fix>
</trkpt>
<trkpt lat="40.0713749" lon="-105.229789">
  <ele>1583.0</ele>
  <time>2026-08-28T17:56:18Z</time>
  <course>0.0</course>
  <speed>0.0</speed>
  <fix>3d</fix>
</trkpt>
<trkpt lat="40.0713749" lon="-105.229789">
  <ele>1583.0</ele>
  <time>2026-08-28T17:56:18Z</time>
  <course>0.0</course>
  <speed>0.0</speed>
  <fix>3d</fix>
</trkpt>
<trkpt lat="40.0713749" lon="-105.229789">
  <ele>1583.0</ele>
  <time>2026-08-28T17:56:18Z</time>
  <course>0.0</course>
  <speed>0.0</speed>
  <fix>3d</fix>
</trkpt>
<trkpt lat="40.0713749" lon="-105.229789">
  <ele>1583.0</ele>
  <time>2026-08-28T17:56:18Z</time>
  <course>0.0</course>
  <speed>0.0</speed>
  <fix>3d</fix>
</trkpt>
<trkpt lat="40.0713749" lon="-105.229789">
  <ele>1583.0</ele>
  <time>2026-08-28T17:56:18Z</time>
  <course>0.0</course>
  <speed>0.0</speed>
  <fix>3d</fix>
</trkpt>
<trkpt lat="40.0713749" lon="-105.229789">
  <ele>1583.0</ele>
  <time>2026-08-28T17:56:18Z</time>
  <course>0.0</course>
  <speed>0.0</speed>
  <fix>3d</fix>
</trkpt>
<trkpt lat="40.0713749" lon="-105.229789">
  <ele>1583.0</ele>
  <time>2026-08-28T17:56:18Z</time>
  <course>0.0</course>
  <speed>0.0</speed>
  <fix>3d</fix>
</trkpt>
<trkpt lat="40.0713749" lon="-105.229789">
  <ele>1583.0</ele>
  <time>2026-08-28T17:56:18Z</time>
  <course>0.0</course>
  <speed>0.0</speed>
  <fix>3d</fix>
</trkpt>
<trkpt lat="40.0713749" lon="-105.229789">
  <ele>1583.0</ele>
  <time>2026-08-28T17:56:18Z</time>
  <course>0.0</course>
  <speed>0.0</speed>
  <fix>3d</fix>
</trkpt>
<trkpt lat="40.0713749" lon="-105.229789">
  <ele>1583.0</ele>
  <time>2026-08-28T17:56:18Z</time>
  <course>0.0</course>
  <speed>0.0</speed>
  <fix>3d</fix>
</trkpt>
<trkpt lat="40.0713749" lon="-105.229789">
  <ele>1583.0</ele>
  <time>2026-08-28T17:56:18Z</time>
  <course>0.0</course>
  <speed>0.0</speed>
  <fix>3d</fix>
</trkpt>
<trkpt lat="40.0713749" lon="-105.229789">
  <ele>1583.0</ele>
  <time>2026-08-28T17:56:18Z</time>
  <course>0.0</course>
  <speed>0.0</speed>
  <fix>3d</fix>
</trkpt>
<trkpt lat="40.0713749" lon="-105.229789">
  <ele>1583.0</ele>
  <time>2026-08-28T17:56:18Z</time>
  <course>0.0</course>
  <speed>0.0</speed>
  <fix>3d</fix>
</trkpt>
<trkpt lat="40.0713749" lon="-105.229789">
  <ele>1583.0</ele>
  <time>2026-08-28T17:56:18Z</time>
  <course>238.38</course>
  <speed>0.0</speed>
  <fix>3d</fix>
</trkpt>
<trkpt lat="40.0713749" lon="-105.229789">
  <ele>1583.0</ele>
  <time>2026-08-28T17:56:18Z</time>
  <course>0.0</course>
  <speed>0.0</speed>
  <fix>3d</fix>
</trkpt>
<trkpt lat="40.0713749" lon="-105.229789">
  <ele>1583.0</ele>
  <time>2026-08-28T17:56:18Z</time>
  <course>238.44</course>
  <speed>0.0</speed>
  <fix>3d</fix>
</trkpt>
<trkpt lat="40.0713749" lon="-105.229789">
  <ele>1583.0</ele>
  <time>2026-08-28T17:56:18Z</time>
  <course>0.0</course>
  <speed>0.0</speed>
  <fix>3d</fix>
</trkpt>
<trkpt lat="40.0713749" lon="-105.229789">
  <ele>1583.0</ele>
  <time>2026-08-28T17:56:18Z</time>
  <course>238.59</course>
  <speed>0.0</speed>
  <fix>3d</fix>
</trkpt>
<trkpt lat="40.0713749" lon="-105.229789">
  <ele>1583.0</ele>
  <time>2026-08-28T17:56:18Z</time>
  <course>0.0</course>
  <speed>0.0</speed>
  <fix>3d</fix>
</trkpt>
<trkpt lat="40.0713749" lon="-105.229789">
  <ele>1583.0</ele>
  <time>2026-08-28T17:56:18Z</time>
  <course>238.8</course>
  <speed>0.0</speed>
  <fix>3d</fix>
</trkpt>
<trkpt lat="40.0713749" lon="-105.229789">
  <ele>1583.0</ele>
  <time>2026-08-28T17:56:18Z</time>
  <course>0.0</course>
  <speed>0.0</speed>
  <fix>3d</fix>
</trkpt>
<trkpt lat="40.0713749" lon="-105.229789">
  <ele>1583.0</ele>
  <time>2026-08-28T17:56:18Z</time>
  <course>239.05</course>
  <speed>0.0</speed>
  <fix>3d</fix>
</trkpt>
<trkpt lat="40.0713749" lon="-105.229789">
  <ele>1583.0</ele>
  <time>2026-08-28T17:56:18Z</time>
  <course>0.0</course>
  <speed>0.0</speed>
  <fix>3d</fix>
</trkpt>
<trkpt lat="40.0713749" lon="-105.229789">
  <ele>1583.0</ele>
  <time>2026-08-28T17:56:18Z</time>
  <course>239.31</course>
  <speed>0.0</speed>
  <fix>3d</fix>
</trkpt>
<trkpt lat="40.0713749" lon="-105.229789">
  <ele>1583.0</ele>
  <time>2026-08-28T17:56:18Z</time>
  <course>0.0</course>
  <speed>0.0</speed>
  <fix>3d</fix>
</trkpt>
<trkpt lat="40.0713749" lon="-105.229789">
  <ele>1583.0</ele>
  <time>2026-08-28T17:56:18Z</time>
  <course>239.57</course>
  <speed>0.0</speed>
  <fix>3d</fix>
</trkpt>
<trkpt lat="40.0713749" lon="-105.229789">
  <ele>1583.0</ele>
  <time>2026-08-28T17:56:18Z</time>
  <course>0.0</course>
  <speed>0.0</speed>
  <fix>3d</fix>
</trkpt>
<trkpt lat="40.0713749" lon="-105.229789">
  <ele>1583.0</ele>
  <time>2026-08-28T17:56:18Z</time>
  <course>239.82</course>
  <speed>0.0</speed>
  <fix>3d</fix>
</trkpt>
<trkpt lat="40.0713749" lon="-105.229789">
  <ele>1583.0</ele>
  <time>2026-08-28T17:56:18Z</time>
  <course>0.0</course>
  <speed>0.0</speed>
  <fix>3d</fix>
</trkpt>
<trkpt lat="40.0713749" lon="-105.229789">
  <ele>1583.0</ele>
  <time>2026-08-28T17:56:18Z</time>
  <course>240.05</course>
  <speed>0.0</speed>
  <fix>3d</fix>
</trkpt>
<trkpt lat="40.0713749" lon="-105.229789">
  <ele>1583.0</ele>
  <time>2026-08-28T17:56:18Z</time>
  <course>0.0</course>
  <speed>0.0</speed>
  <fix>3d</fix>
</trkpt>
<trkpt lat="39.655741" lon="-104.1383097">
  <ele>1566.58</ele>
  <time>2026-08-28T17:56:18Z</time>
  <course>0.0</course>
  <speed>0.0</speed>
  <fix>3d</fix>
</trkpt>
<trkpt lat="40.0713749" lon="-105.229789">
  <ele>1583.0</ele>
  <time>2026-08-28T17:56:18Z</time>
  <course>238.36</course>
  <speed>0.0</speed>
  <fix>3d</fix>
</trkpt>
<trkpt lat="40.0713749" lon="-105.229789">
  <ele>1583.0</ele>
  <time>2026-08-28T17:56:18Z</time>
  <course>0.0</course>
  <speed>0.0</speed>
  <fix>3d</fix>
</trkpt>
<trkpt lat="40.0713749" lon="-105.229789">
  <ele>1583.0</ele>
  <time>2026-08-28T17:56:18Z</time>
  <course>238.36</course>
  <speed>0.0</speed>
  <fix>3d</fix>
</trkpt>
<trkpt lat="40.0713749" lon="-105.229789">
  <ele>1583.0</ele>
  <time>2026-08-28T17:56:18Z</time>
  <course>0.0</course>
  <speed>0.0</speed>
  <fix>3d</fix>
</trkpt>
<trkpt lat="40.0713749" lon="-105.229789">
  <ele>1583.0</ele>
  <time>2026-08-28T17:56:18Z</time>
  <course>238.47</course>
  <speed>0.0</speed>
  <fix>3d</fix>
</trkpt>
<trkpt lat="40.0713749" lon="-105.229789">
  <ele>1583.0</ele>
  <time>2026-08-28T17:56:18Z</time>
  <course>0.0</course>
  <speed>0.0</speed>
  <fix>3d</fix>
</trkpt>
<trkpt lat="40.0713749" lon="-105.229789">
  <ele>1583.0</ele>
  <time>2026-08-28T17:56:18Z</time>
  <course>238.69</course>
  <speed>0.0</speed>
  <fix>3d</fix>
</trkpt>
<trkpt lat="40.0713749" lon="-105.229789">
  <ele>1583.0</ele>
  <time>2026-08-28T17:56:18Z</time>
  <course>0.0</course>
  <speed>0.0</speed>
  <fix>3d</fix>
</trkpt>
<trkpt lat="40.0713749" lon="-105.229789">
  <ele>1583.0</ele>
  <time>2026-08-28T17:56:18Z</time>
  <course>238.98</course>
  <speed>0.0</speed>
  <fix>3d</fix>
</trkpt>
<trkpt lat="40.0713749" lon="-105.229789">
  <ele>1583.0</ele>
  <time>2026-08-28T17:56:18Z</time>
  <course>0.0</course>
  <speed>0.0</speed>
  <fix>3d</fix>
</trkpt>
<trkpt lat="40.0713749" lon="-105.229789">
  <ele>1583.0</ele>
  <time>2026-08-28T17:56:18Z</time>
  <course>239.32</course>
  <speed>0.0</speed>
  <fix>3d</fix>
</trkpt>
<trkpt lat="40.0713749" lon="-105.229789">
  <ele>1583.0</ele>
  <time>2026-08-28T17:56:18Z</time>
  <course>0.0</course>
  <speed>0.0</speed>
  <fix>3d</fix>
</trkpt>
<trkpt lat="40.0713749" lon="-105.229789">
  <ele>1583.0</ele>
  <time>2026-08-28T17:56:18Z</time>
  <course>239.67</course>
  <speed>0.0</speed>
  <fix>3d</fix>
</trkpt>
<trkpt lat="40.0713749" lon="-105.229789">
  <ele>1583.0</ele>
  <time>2026-08-28T17:56:18Z</time>
  <course>0.0</course>
  <speed>0.0</speed>
  <fix>3d</fix>
</trkpt>
<trkpt lat="40.0713749" lon="-105.229789">
  <ele>1583.0</ele>
  <time>2026-08-28T17:56:18Z</time>
  <course>240.02</course>
  <speed>0.0</speed>
  <fix>3d</fix>
</trkpt>
<trkpt lat="40.0713749" lon="-105.229789">
  <ele>1583.0</ele>
  <time>2026-08-28T17:56:18Z</time>
  <course>0.0</course>
  <speed>0.0</speed>
  <fix>3d</fix>
</trkpt>
<trkpt lat="40.0713749" lon="-105.229789">
  <ele>1583.0</ele>
  <time>2026-08-28T17:56:18Z</time>
  <course>240.35</course>
  <speed>0.0</speed>
  <fix>3d</fix>
</trkpt>
<trkpt lat="40.0713749" lon="-105.229789">
  <ele>1583.0</ele>
  <time>2026-08-28T17:56:18Z</time>
  <course>0.0</course>
  <speed>0.0</speed>
  <fix>3d</fix>
</trkpt>
<trkpt lat="40.0713749" lon="-105.229789">
  <ele>1583.0</ele>
  <time>2026-08-28T17:56:18Z</time>
  <course>240.61</course>
  <speed>0.0</speed>
  <fix>3d</fix>
</trkpt>
<trkpt lat="40.0713749" lon="-105.229789">
  <ele>1583.0</ele>
  <time>2026-08-28T17:56:18Z</time>
  <course>0.0</course>
  <speed>0.0</speed>
  <fix>3d</fix>
</trkpt>
<trkpt lat="40.0713749" lon="-105.229789">
  <ele>1583.0</ele>
  <time>2026-08-28T17:56:18Z</time>
  <course>240.92</course>
  <speed>0.0</speed>
  <fix>3d</fix>
</trkpt>
<trkpt lat="40.0713749" lon="-105.229789">
  <ele>1583.0</ele>
  <time>2026-08-28T17:56:18Z</time>
  <course>0.0</course>
  <speed>0.0</speed>
  <fix>3d</fix>
</trkpt>
<trkpt lat="40.0713749" lon="-105.229789">
  <ele>1583.0</ele>
  <time>2026-08-28T17:56:18Z</time>
  <course>241.21</course>
  <speed>0.0</speed>
  <fix>3d</fix>
</trkpt>
<trkpt lat="40.0713749" lon="-105.229789">
  <ele>1583.0</ele>
  <time>2026-08-28T17:56:18Z</time>
  <course>0.0</course>
  <speed>0.0</speed>
  <fix>3d</fix>
</trkpt>
<trkpt lat="40.0713749" lon="-105.229789">
  <ele>1583.0</ele>
  <time>2026-08-28T17:56:18Z</time>
  <course>241.49</course>
  <speed>0.0</speed>
  <fix>3d</fix>
</trkpt>
<trkpt lat="40.0713749" lon="-105.229789">
  <ele>1583.0</ele>
  <time>2026-08-28T17:56:18Z</time>
  <course>0.0</course>
  <speed>0.0</speed>
  <fix>3d</fix>
</trkpt>
<trkpt lat="40.0713749" lon="-105.229789">
  <ele>1583.0</ele>
  <time>2026-08-28T17:56:18Z</time>
  <course>241.77</course>
  <speed>0.0</speed>
  <fix>3d</fix>
</trkpt>
<trkpt lat="40.0713749" lon="-105.229789">
  <ele>1583.0</ele>
  <time>2026-08-28T17:56:18Z</time>
  <course>0.0</course>
  <speed>0.0</speed>
  <fix>3d</fix>
</trkpt>
<trkpt lat="40.0713749" lon="-105.229789">
  <ele>1583.0</ele>
  <time>2026-08-28T17:56:18Z</time>
  <course>242.03</course>
  <speed>0.0</speed>
  <fix>3d</fix>
</trkpt>
<trkpt lat="40.0713749" lon="-105.229789">
  <ele>1583.0</ele>
  <time>2026-08-28T17:56:18Z</time>
  <course>0.0</course>
  <speed>0.0</speed>
  <fix>3d</fix>
</trkpt>
<trkpt lat="40.0713749" lon="-105.229789">
  <ele>1583.0</ele>
  <time>2026-08-28T17:56:18Z</time>
  <course>242.29</course>
  <speed>0.0</speed>
  <fix>3d</fix>
</trkpt>
<trkpt lat="40.0713749" lon="-105.229789">
  <ele>1583.0</ele>
  <time>2026-08-28T17:56:18Z</time>
  <course>0.0</course>
  <speed>0.0</speed>
  <fix>3d</fix>
</trkpt>
<trkpt lat="40.0713749" lon="-105.229789">
  <ele>1583.0</ele>
  <time>2026-08-28T17:56:18Z</time>
  <course>242.54</course>
  <speed>0.0</speed>
  <fix>3d</fix>
</trkpt>
<trkpt lat="40.0713749" lon="-105.229789">
  <ele>1583.0</ele>
  <time>2026-08-28T17:56:18Z</time>
  <course>0.0</course>
  <speed>0.0</speed>
  <fix>3d</fix>
</trkpt>
<trkpt lat="40.0713749" lon="-105.229789">
  <ele>1583.0</ele>
  <time>2026-08-28T17:56:18Z</time>
  <course>242.79</course>
  <speed>0.0</speed>
  <fix>3d</fix>
</trkpt>
<trkpt lat="40.0713749" lon="-105.229789">
  <ele>1583.0</ele>
  <time>2026-08-28T17:56:18Z</time>
  <course>0.0</course>
  <speed>0.0</speed>
  <fix>3d</fix>
</trkpt>
<trkpt lat="40.0713749" lon="-105.229789">
  <ele>1583.0</ele>
  <time>2026-08-28T17:56:18Z</time>
  <course>243.02</course>
  <speed>0.0</speed>
  <fix>3d</fix>
</trkpt>
<trkpt lat="40.0713749" lon="-105.229789">
  <ele>1583.0</ele>
  <time>2026-08-28T17:56:18Z</time>
  <course>0.0</course>
  <speed>0.0</speed>
  <fix>3d</fix>
</trkpt>
<trkpt lat="40.0713749" lon="-105.229789">
  <ele>1583.0</ele>
  <time>2026-08-28T17:56:18Z</time>
  <course>243.29</course>
  <speed>0.0</speed>
  <fix>3d</fix>
</trkpt>
<trkpt lat="40.0713749" lon="-105.229789">
  <ele>1583.0</ele>
  <time>2026-08-28T17:56:18Z</time>
  <course>0.0</course>
  <speed>0.0</speed>
  <fix>3d</fix>
</trkpt>
<trkpt lat="40.0713749" lon="-105.229789">
  <ele>1583.0</ele>
  <time>2026-08-28T17:56:18Z</time>
  <course>243.51</course>
  <speed>0.0</speed>
  <fix>3d</fix>
</trkpt>
<trkpt lat="40.0713749" lon="-105.229789">
  <ele>1583.0</ele>
  <time>2026-08-28T17:56:18Z</time>
  <course>0.0</course>
  <speed>0.0</speed>
  <fix>3d</fix>
</trkpt>
<trkpt lat="40.0713749" lon="-105.229789">
  <ele>1583.0</ele>
  <time>2026-08-28T17:56:18Z</time>
  <course>243.72</course>
  <speed>0.0</speed>
  <fix>3d</fix>
</trkpt>
<trkpt lat="40.0713749" lon="-105.229789">
  <ele>1583.0</ele>
  <time>2026-08-28T17:56:18Z</time>
  <course>0.0</course>
  <speed>0.0</speed>
  <fix>3d</fix>
</trkpt>
<trkpt lat="40.0713749" lon="-105.229789">
  <ele>1583.0</ele>
  <time>2026-08-28T17:56:18Z</time>
  <course>243.93</course>
  <speed>0.0</speed>
  <fix>3d</fix>
</trkpt>
<trkpt lat="40.0713749" lon="-105.229789">
  <ele>1583.0</ele>
  <time>2026-08-28T17:56:18Z</time>
  <course>0.0</course>
  <speed>0.0</speed>
  <fix>3d</fix>
</trkpt>
<trkpt lat="40.0713749" lon="-105.229789">
  <ele>1583.0</ele>
  <time>2026-08-28T17:56:18Z</time>
  <course>244.12</course>
  <speed>0.0</speed>
  <fix>3d</fix>
</trkpt>
<trkpt lat="40.0713749" lon="-105.229789">
  <ele>1583.0</ele>
  <time>2026-08-28T17:56:18Z</time>
  <course>0.0</course>
  <speed>0.0</speed>
  <fix>3d</fix>
</trkpt>
<trkpt lat="40.0713749" lon="-105.229789">
  <ele>1583.0</ele>
  <time>2026-08-28T17:56:18Z</time>
  <course>244.31</course>
  <speed>0.0</speed>
  <fix>3d</fix>
</trkpt>
<trkpt lat="40.0713749" lon="-105.229789">
  <ele>1583.0</ele>
  <time>2026-08-28T17:56:18Z</time>
  <course>0.0</course>
  <speed>0.0</speed>
  <fix>3d</fix>
</trkpt>
<trkpt lat="40.0713749" lon="-105.229789">
  <ele>1583.0</ele>
  <time>2026-08-28T17:56:18Z</time>
  <course>244.5</course>
  <speed>0.0</speed>
  <fix>3d</fix>
</trkpt>
<trkpt lat="40.0713749" lon="-105.229789">
  <ele>1583.0</ele>
  <time>2026-08-28T17:56:18Z</time>
  <course>0.0</course>
  <speed>0.0</speed>
  <fix>3d</fix>
</trkpt>
<trkpt lat="40.0713749" lon="-105.229789">
  <ele>1583.0</ele>
  <time>2026-08-28T17:56:18Z</time>
  <course>244.67</course>
  <speed>0.0</speed>
  <fix>3d</fix>
</trkpt>
<trkpt lat="40.0713749" lon="-105.229789">
  <ele>1583.0</ele>
  <time>2026-08-28T17:56:18Z</time>
  <course>0.0</course>
  <speed>0.0</speed>
  <fix>3d</fix>
</trkpt>
<trkpt lat="40.0713749" lon="-105.229789">
  <ele>1583.0</ele>
  <time>2026-08-28T17:56:18Z</time>
  <course>244.84</course>
  <speed>0.0</speed>
  <fix>3d</fix>
</trkpt>
<trkpt lat="40.0713749" lon="-105.229789">
  <ele>1583.0</ele>
  <time>2026-08-28T17:56:18Z</time>
  <course>0.0</course>
  <speed>0.0</speed>
  <fix>3d</fix>
</trkpt>
<trkpt lat="40.0713749" lon="-105.229789">
  <ele>1583.0</ele>
  <time>2026-08-28T17:56:18Z</time>
  <course>245.01</course>
  <speed>0.0</speed>
  <fix>3d</fix>
</trkpt>
<trkpt lat="40.0713749" lon="-105.229789">
  <ele>1583.0</ele>
  <time>2026-08-28T17:56:18Z</time>
  <course>0.0</course>
  <speed>0.0</speed>
  <fix>3d</fix>
</trkpt>
<trkpt lat="40.0713749" lon="-105.229789">
  <ele>1583.0</ele>
  <time>2026-08-28T17:56:18Z</time>
  <course>245.16</course>
  <speed>0.0</speed>
  <fix>3d</fix>
</trkpt>
<trkpt lat="40.0713749" lon="-105.229789">
  <ele>1583.0</ele>
  <time>2026-08-28T17:56:18Z</time>
  <course>0.0</course>
  <speed>0.0</speed>
  <fix>3d</fix>
</trkpt>
<trkpt lat="40.0713749" lon="-105.229789">
  <ele>1583.0</ele>
  <time>2026-08-28T17:56:18Z</time>
  <course>245.29</course>
  <speed>0.0</speed>
  <fix>3d</fix>
</trkpt>
<trkpt lat="40.0713749" lon="-105.229789">
  <ele>1583.0</ele>
  <time>2026-08-28T17:56:18Z</time>
  <course>0.0</course>
  <speed>0.0</speed>
  <fix>3d</fix>
</trkpt>
<trkpt lat="40.0713749" lon="-105.229789">
  <ele>1583.0</ele>
  <time>2026-08-28T17:56:18Z</time>
  <course>245.43</course>
  <speed>0.0</speed>
  <fix>3d</fix>
</trkpt>
<trkpt lat="40.0713749" lon="-105.229789">
  <ele>1583.0</ele>
  <time>2026-08-28T17:56:18Z</time>
  <course>0.0</course>
  <speed>0.0</speed>
  <fix>3d</fix>
</trkpt>
<trkpt lat="40.0713749" lon="-105.229789">
  <ele>1583.0</ele>
  <time>2026-08-28T17:56:18Z</time>
  <course>245.57</course>
  <speed>0.0</speed>
  <fix>3d</fix>
</trkpt>
<trkpt lat="40.0713749" lon="-105.229789">
  <ele>1583.0</ele>
  <time>2026-08-28T17:56:18Z</time>
  <course>0.0</course>
  <speed>0.0</speed>
  <fix>3d</fix>
</trkpt>
<trkpt lat="40.0713749" lon="-105.229789">
  <ele>1583.0</ele>
  <time>2026-08-28T17:56:18Z</time>
  <course>245.71</course>
  <speed>0.0</speed>
  <fix>3d</fix>
</trkpt>
<trkpt lat="40.0713749" lon="-105.229789">
  <ele>1583.0</ele>
  <time>2026-08-28T17:56:18Z</time>
  <course>0.0</course>
  <speed>0.0</speed>
  <fix>3d</fix>
</trkpt>
<trkpt lat="40.0713749" lon="-105.229789">
  <ele>1583.0</ele>
  <time>2026-08-28T17:56:18Z</time>
  <course>245.84</course>
  <speed>0.0</speed>
  <fix>3d</fix>
</trkpt>
<trkpt lat="40.0713749" lon="-105.229789">
  <ele>1583.0</ele>
  <time>2026-08-28T17:56:18Z</time>
  <course>0.0</course>
  <speed>0.0</speed>
  <fix>3d</fix>
</trkpt>
<trkpt lat="40.0713749" lon="-105.229789">
  <ele>1583.0</ele>
  <time>2026-08-28T17:56:18Z</time>
  <course>245.96</course>
  <speed>0.0</speed>
  <fix>3d</fix>
</trkpt>
<trkpt lat="40.0713749" lon="-105.229789">
  <ele>1583.0</ele>
  <time>2026-08-28T17:56:18Z</time>
  <course>0.0</course>
  <speed>0.0</speed>
  <fix>3d</fix>
</trkpt>
<trkpt lat="40.0713749" lon="-105.229789">
  <ele>1583.0</ele>
  <time>2026-08-28T17:56:18Z</time>
  <course>246.08</course>
  <speed>0.0</speed>
  <fix>3d</fix>
</trkpt>
<trkpt lat="40.0713749" lon="-105.229789">
  <ele>1583.0</ele>
  <time>2026-08-28T17:56:18Z</time>
  <course>0.0</course>
  <speed>0.0</speed>
  <fix>3d</fix>
</trkpt>
<trkpt lat="40.0713749" lon="-105.229789">
  <ele>1583.0</ele>
  <time>2026-08-28T17:56:18Z</time>
  <course>246.19</course>
  <speed>0.0</speed>
  <fix>3d</fix>
</trkpt>
<trkpt lat="40.0713749" lon="-105.229789">
  <ele>1583.0</ele>
  <time>2026-08-28T17:56:18Z</time>
  <course>0.0</course>
  <speed>0.0</speed>
  <fix>3d</fix>
</trkpt>
<trkpt lat="40.0713749" lon="-105.229789">
  <ele>1583.0</ele>
  <time>2026-08-28T17:56:18Z</time>
  <course>246.3</course>
  <speed>0.0</speed>
  <fix>3d</fix>
</trkpt>
<trkpt lat="40.0713749" lon="-105.229789">
  <ele>1583.0</ele>
  <time>2026-08-28T17:56:18Z</time>
  <course>0.0</course>
  <speed>0.0</speed>
  <fix>3d</fix>
</trkpt>
<trkpt lat="40.0713749" lon="-105.229789">
  <ele>1583.0</ele>
  <time>2026-08-28T17:56:18Z</time>
  <course>246.41</course>
  <speed>0.0</speed>
  <fix>3d</fix>
</trkpt>
<trkpt lat="40.0713749" lon="-105.229789">
  <ele>1583.0</ele>
  <time>2026-08-28T17:56:18Z</time>
  <course>0.0</course>
  <speed>0.0</speed>
  <fix>3d</fix>
</trkpt>
<trkpt lat="40.0713749" lon="-105.229789">
  <ele>1583.0</ele>
  <time>2026-08-28T17:56:18Z</time>
  <course>246.53</course>
  <speed>0.0</speed>
  <fix>3d</fix>
</trkpt>
<trkpt lat="40.0713749" lon="-105.229789">
  <ele>1583.0</ele>
  <time>2026-08-28T17:56:18Z</time>
  <course>0.0</course>
  <speed>0.0</speed>
  <fix>3d</fix>
</trkpt>
<trkpt lat="40.0713749" lon="-105.229789">
  <ele>1583.0</ele>
  <time>2026-08-28T17:56:18Z</time>
  <course>246.62</course>
  <speed>0.0</speed>
  <fix>3d</fix>
</trkpt>
<trkpt lat="40.0713749" lon="-105.229789">
  <ele>1583.0</ele>
  <time>2026-08-28T17:56:18Z</time>
  <course>0.0</course>
  <speed>0.0</speed>
  <fix>3d</fix>
</trkpt>
<trkpt lat="40.0713749" lon="-105.229789">
  <ele>1583.0</ele>
  <time>2026-08-28T17:56:18Z</time>
  <course>246.71</course>
  <speed>0.0</speed>
  <fix>3d</fix>
</trkpt>
<trkpt lat="40.0713749" lon="-105.229789">
  <ele>1583.0</ele>
  <time>2026-08-28T17:56:18Z</time>
  <course>0.0</course>
  <speed>0.0</speed>
  <fix>3d</fix>
</trkpt>
<trkpt lat="40.0713749" lon="-105.229789">
  <ele>1583.0</ele>
  <time>2026-08-28T17:56:18Z</time>
  <course>246.8</course>
  <speed>0.0</speed>
  <fix>3d</fix>
</trkpt>
<trkpt lat="40.0713749" lon="-105.229789">
  <ele>1583.0</ele>
  <time>2026-08-28T17:56:18Z</time>
  <course>0.0</course>
  <speed>0.0</speed>
  <fix>3d</fix>
</trkpt>
<trkpt lat="40.0713749" lon="-105.229789">
  <ele>1583.0</ele>
  <time>2026-08-28T17:56:18Z</time>
  <course>246.88</course>
  <speed>0.0</speed>
  <fix>3d</fix>
</trkpt>
<trkpt lat="40.0713749" lon="-105.229789">
  <ele>1583.0</ele>
  <time>2026-08-28T17:56:18Z</time>
  <course>0.0</course>
  <speed>0.0</speed>
  <fix>3d</fix>
</trkpt>
<trkpt lat="40.0713749" lon="-105.229789">
  <ele>1583.0</ele>
  <time>2026-08-28T17:56:18Z</time>
  <course>246.96</course>
  <speed>0.0</speed>
  <fix>3d</fix>
</trkpt>
<trkpt lat="40.0713749" lon="-105.229789">
  <ele>1583.0</ele>
  <time>2026-08-28T17:56:18Z</time>
  <course>0.0</course>
  <speed>0.0</speed>
  <fix>3d</fix>
</trkpt>
<trkpt lat="40.0713749" lon="-105.229789">
  <ele>1583.0</ele>
  <time>2026-08-28T17:56:18Z</time>
  <course>247.04</course>
  <speed>0.0</speed>
  <fix>3d</fix>
</trkpt>
<trkpt lat="40.0713749" lon="-105.229789">
  <ele>1583.0</ele>
  <time>2026-08-28T17:56:18Z</time>
  <course>0.0</course>
  <speed>0.0</speed>
  <fix>3d</fix>
</trkpt>
<trkpt lat="40.0713749" lon="-105.229789">
  <ele>1583.0</ele>
  <time>2026-08-28T17:56:18Z</time>
  <course>247.11</course>
  <speed>0.0</speed>
  <fix>3d</fix>
</trkpt>
<trkpt lat="40.0713749" lon="-105.229789">
  <ele>1583.0</ele>
  <time>2026-08-28T17:56:18Z</time>
  <course>0.0</course>
  <speed>0.0</speed>
  <fix>3d</fix>
</trkpt>
<trkpt lat="40.0713749" lon="-105.229789">
  <ele>1583.0</ele>
  <time>2026-08-28T17:56:18Z</time>
  <course>247.18</course>
  <speed>0.0</speed>
  <fix>3d</fix>
</trkpt>
<trkpt lat="40.0713749" lon="-105.229789">
  <ele>1583.0</ele>
  <time>2026-08-28T17:56:18Z</time>
  <course>0.0</course>
  <speed>0.0</speed>
  <fix>3d</fix>
</trkpt>
<trkpt lat="40.0713749" lon="-105.229789">
  <ele>1583.0</ele>
  <time>2026-08-28T17:56:18Z</time>
  <course>247.25</course>
  <speed>0.0</speed>
  <fix>3d</fix>
</trkpt>
<trkpt lat="40.0713749" lon="-105.229789">
  <ele>1583.0</ele>
  <time>2026-08-28T17:56:18Z</time>
  <course>0.0</course>
  <speed>0.0</speed>
  <fix>3d</fix>
</trkpt>
<trkpt lat="40.0713749" lon="-105.229789">
  <ele>1583.0</ele>
  <time>2026-08-28T17:56:18Z</time>
  <course>247.31</course>
  <speed>0.0</speed>
  <fix>3d</fix>
</trkpt>
<trkpt lat="40.0713749" lon="-105.229789">
  <ele>1583.0</ele>
  <time>2026-08-28T17:56:18Z</time>
  <course>0.0</course>
  <speed>0.0</speed>
  <fix>3d</fix>
</trkpt>
<trkpt lat="40.0713749" lon="-105.229789">
  <ele>1583.0</ele>
  <time>2026-08-28T17:56:18Z</time>
  <course>247.36</course>
  <speed>0.0</speed>
  <fix>3d</fix>
</trkpt>
<trkpt lat="40.0713749" lon="-105.229789">
  <ele>1583.0</ele>
  <time>2026-08-28T17:56:18Z</time>
  <course>0.0</course>
  <speed>0.0</speed>
  <fix>3d</fix>
</trkpt>
<trkpt lat="40.0713749" lon="-105.229789">
  <ele>1583.0</ele>
  <time>2026-08-28T17:56:18Z</time>
  <course>247.42</course>
  <speed>0.0</speed>
  <fix>3d</fix>
</trkpt>
<trkpt lat="40.0713749" lon="-105.229789">
  <ele>1583.0</ele>
  <time>2026-08-28T17:56:18Z</time>
  <course>0.0</course>
  <speed>0.0</speed>
  <fix>3d</fix>
</trkpt>
<trkpt lat="40.0713749" lon="-105.229789">
  <ele>1583.0</ele>
  <time>2026-08-28T17:56:18Z</time>
  <course>247.47</course>
  <speed>0.0</speed>
  <fix>3d</fix>
</trkpt>
<trkpt lat="40.0713749" lon="-105.229789">
  <ele>1583.0</ele>
  <time>2026-08-28T17:56:18Z</time>
  <course>0.0</course>
  <speed>0.0</speed>
  <fix>3d</fix>
</trkpt>
<trkpt lat="40.0713749" lon="-105.229789">
  <ele>1583.0</ele>
  <time>2026-08-28T17:56:18Z</time>
  <course>247.53</course>
  <speed>0.0</speed>
  <fix>3d</fix>
</trkpt>
<trkpt lat="40.0713749" lon="-105.229789">
  <ele>1583.0</ele>
  <time>2026-08-28T17:56:18Z</time>
  <course>0.0</course>
  <speed>0.0</speed>
  <fix>3d</fix>
</trkpt>
<trkpt lat="40.0713749" lon="-105.229789">
  <ele>1583.0</ele>
  <time>2026-08-28T17:56:18Z</time>
  <course>247.58</course>
  <speed>0.0</speed>
  <fix>3d</fix>
</trkpt>
<trkpt lat="40.0713749" lon="-105.229789">
  <ele>1583.0</ele>
  <time>2026-08-28T17:56:18Z</time>
  <course>0.0</course>
  <speed>0.0</speed>
  <fix>3d</fix>
</trkpt>
<trkpt lat="40.0713749" lon="-105.229789">
  <ele>1583.0</ele>
  <time>2026-08-28T17:56:18Z</time>
  <course>247.63</course>
  <speed>0.0</speed>
  <fix>3d</fix>
</trkpt>
<trkpt lat="40.0713749" lon="-105.229789">
  <ele>1583.0</ele>
  <time>2026-08-28T17:56:18Z</time>
  <course>0.0</course>
  <speed>0.0</speed>
  <fix>3d</fix>
</trkpt>
<trkpt lat="40.0713749" lon="-105.229789">
  <ele>1583.0</ele>
  <time>2026-08-28T17:56:18Z</time>
  <course>247.67</course>
  <speed>0.0</speed>
  <fix>3d</fix>
</trkpt>
<trkpt lat="40.0713749" lon="-105.229789">
  <ele>1583.0</ele>
  <time>2026-08-28T17:56:18Z</time>
  <course>0.0</course>
  <speed>0.0</speed>
  <fix>3d</fix>
</trkpt>
<trkpt lat="40.0713749" lon="-105.229789">
  <ele>1583.0</ele>
  <time>2026-08-28T17:56:18Z</time>
  <course>247.72</course>
  <speed>0.0</speed>
  <fix>3d</fix>
</trkpt>
<trkpt lat="40.0713749" lon="-105.229789">
  <ele>1583.0</ele>
  <time>2026-08-28T17:56:18Z</time>
  <course>0.0</course>
  <speed>0.0</speed>
  <fix>3d</fix>
</trkpt>
<trkpt lat="40.0713749" lon="-105.229789">
  <ele>1583.0</ele>
  <time>2026-08-28T17:56:18Z</time>
  <course>247.76</course>
  <speed>0.0</speed>
  <fix>3d</fix>
</trkpt>
<trkpt lat="40.0713749" lon="-105.229789">
  <ele>1583.0</ele>
  <time>2026-08-28T17:56:18Z</time>
  <course>0.0</course>
  <speed>0.0</speed>
  <fix>3d</fix>
</trkpt>
<trkpt lat="40.0713749" lon="-105.229789">
  <ele>1583.0</ele>
  <time>2026-08-28T17:56:18Z</time>
  <course>247.81</course>
  <speed>0.0</speed>
  <fix>3d</fix>
</trkpt>
<trkpt lat="40.0713749" lon="-105.229789">
  <ele>1583.0</ele>
  <time>2026-08-28T17:56:18Z</time>
  <course>0.0</course>
  <speed>0.0</speed>
  <fix>3d</fix>
</trkpt>
<trkpt lat="40.0713749" lon="-105.229789">
  <ele>1583.0</ele>
  <time>2026-08-28T17:56:18Z</time>
  <course>247.84</course>
  <speed>0.0</speed>
  <fix>3d</fix>
</trkpt>
<trkpt lat="40.0713749" lon="-105.229789">
  <ele>1583.0</ele>
  <time>2026-08-28T17:56:18Z</time>
  <course>0.0</course>
  <speed>0.0</speed>
  <fix>3d</fix>
</trkpt>
<trkpt lat="40.0713749" lon="-105.229789">
  <ele>1583.0</ele>
  <time>2026-08-28T17:56:18Z</time>
  <course>247.88</course>
  <speed>0.0</speed>
  <fix>3d</fix>
</trkpt>
<trkpt lat="40.0713749" lon="-105.229789">
  <ele>1583.0</ele>
  <time>2026-08-28T17:56:18Z</time>
  <course>0.0</course>
  <speed>0.0</speed>
  <fix>3d</fix>
</trkpt>
<trkpt lat="40.0713749" lon="-105.229789">
  <ele>1583.0</ele>
  <time>2026-08-28T17:56:18Z</time>
  <course>247.91</course>
  <speed>0.0</speed>
  <fix>3d</fix>
</trkpt>
<trkpt lat="40.0713749" lon="-105.229789">
  <ele>1583.0</ele>
  <time>2026-08-28T17:56:18Z</time>
  <course>0.0</course>
  <speed>0.0</speed>
  <fix>3d</fix>
</trkpt>
<trkpt lat="40.0713749" lon="-105.229789">
  <ele>1583.0</ele>
  <time>2026-08-28T17:56:18Z</time>
  <course>247.94</course>
  <speed>0.0</speed>
  <fix>3d</fix>
</trkpt>
<trkpt lat="40.0713749" lon="-105.229789">
  <ele>1583.0</ele>
  <time>2026-08-28T17:56:18Z</time>
  <course>0.0</course>
  <speed>0.0</speed>
  <fix>3d</fix>
</trkpt>
<trkpt lat="40.0713749" lon="-105.229789">
  <ele>1583.0</ele>
  <time>2026-08-28T17:56:18Z</time>
  <course>247.97</course>
  <speed>0.0</speed>
  <fix>3d</fix>
</trkpt>
<trkpt lat="40.0713749" lon="-105.229789">
  <ele>1583.0</ele>
  <time>2026-08-28T17:56:18Z</time>
  <course>0.0</course>
  <speed>0.0</speed>
  <fix>3d</fix>
</trkpt>
<trkpt lat="40.0713749" lon="-105.229789">
  <ele>1583.0</ele>
  <time>2026-08-28T17:56:18Z</time>
  <course>248.0</course>
  <speed>0.0</speed>
  <fix>3d</fix>
</trkpt>
<trkpt lat="40.0713749" lon="-105.229789">
  <ele>1583.0</ele>
  <time>2026-08-28T17:56:18Z</time>
  <course>0.0</course>
  <speed>0.0</speed>
  <fix>3d</fix>
</trkpt>
<trkpt lat="40.0713749" lon="-105.229789">
  <ele>1583.0</ele>
  <time>2026-08-28T17:56:18Z</time>
  <course>248.03</course>
  <speed>0.0</speed>
  <fix>3d</fix>
</trkpt>
<trkpt lat="40.0713749" lon="-105.229789">
  <ele>1583.0</ele>
  <time>2026-08-28T17:56:18Z</time>
  <course>0.0</course>
  <speed>0.0</speed>
  <fix>3d</fix>
</trkpt>
<trkpt lat="40.0713749" lon="-105.229789">
  <ele>1583.0</ele>
  <time>2026-08-28T17:56:18Z</time>
  <course>248.06</course>
  <speed>0.0</speed>
  <fix>3d</fix>
</trkpt>
<trkpt lat="40.0713749" lon="-105.229789">
  <ele>1583.0</ele>
  <time>2026-08-28T17:56:18Z</time>
  <course>0.0</course>
  <speed>0.0</speed>
  <fix>3d</fix>
</trkpt>
<trkpt lat="40.0713749" lon="-105.229789">
  <ele>1583.0</ele>
  <time>2026-08-28T17:56:18Z</time>
  <course>248.08</course>
  <speed>0.0</speed>
  <fix>3d</fix>
</trkpt>
<trkpt lat="40.0713749" lon="-105.229789">
  <ele>1583.0</ele>
  <time>2026-08-28T17:56:18Z</time>
  <course>0.0</course>
  <speed>0.0</speed>
  <fix>3d</fix>
</trkpt>
<trkpt lat="40.0713749" lon="-105.229789">
  <ele>1583.0</ele>
  <time>2026-08-28T17:56:18Z</time>
  <course>248.11</course>
  <speed>0.0</speed>
  <fix>3d</fix>
</trkpt>
<trkpt lat="40.0713749" lon="-105.229789">
  <ele>1583.0</ele>
  <time>2026-08-28T17:56:18Z</time>
  <course>0.0</course>
  <speed>0.0</speed>
  <fix>3d</fix>
</trkpt>
<trkpt lat="40.0713749" lon="-105.229789">
  <ele>1583.0</ele>
  <time>2026-08-28T17:56:18Z</time>
  <course>248.12</course>
  <speed>0.0</speed>
  <fix>3d</fix>
</trkpt>
<trkpt lat="40.0713749" lon="-105.229789">
  <ele>1583.0</ele>
  <time>2026-08-28T17:56:18Z</time>
  <course>0.0</course>
  <speed>0.0</speed>
  <fix>3d</fix>
</trkpt>
<trkpt lat="40.0713749" lon="-105.229789">
  <ele>1583.0</ele>
  <time>2026-08-28T17:56:18Z</time>
  <course>248.14</course>
  <speed>0.0</speed>
  <fix>3d</fix>
</trkpt>
<trkpt lat="40.0713749" lon="-105.229789">
  <ele>1583.0</ele>
  <time>2026-08-28T17:56:18Z</time>
  <course>0.0</course>
  <speed>0.0</speed>
  <fix>3d</fix>
</trkpt>
<trkpt lat="40.0713749" lon="-105.229789">
  <ele>1583.0</ele>
  <time>2026-08-28T17:56:18Z</time>
  <course>248.16</course>
  <speed>0.0</speed>
  <fix>3d</fix>
</trkpt>
<trkpt lat="40.0713749" lon="-105.229789">
  <ele>1583.0</ele>
  <time>2026-08-28T17:56:18Z</time>
  <course>0.0</course>
  <speed>0.0</speed>
  <fix>3d</fix>
</trkpt>
<trkpt lat="40.0713749" lon="-105.229789">
  <ele>1583.0</ele>
  <time>2026-08-28T17:56:18Z</time>
  <course>248.18</course>
  <speed>0.0</speed>
  <fix>3d</fix>
</trkpt>
<trkpt lat="40.0713749" lon="-105.229789">
  <ele>1583.0</ele>
  <time>2026-08-28T17:56:18Z</time>
  <course>0.0</course>
  <speed>0.0</speed>
  <fix>3d</fix>
</trkpt>
<trkpt lat="40.0713749" lon="-105.229789">
  <ele>1583.0</ele>
  <time>2026-08-28T17:56:18Z</time>
  <course>248.2</course>
  <speed>0.0</speed>
  <fix>3d</fix>
</trkpt>
<trkpt lat="40.0713749" lon="-105.229789">
  <ele>1583.0</ele>
  <time>2026-08-28T17:56:18Z</time>
  <course>0.0</course>
  <speed>0.0</speed>
  <fix>3d</fix>
</trkpt>
<trkpt lat="40.0713749" lon="-105.229789">
  <ele>1583.0</ele>
  <time>2026-08-28T17:56:18Z</time>
  <course>248.22</course>
  <speed>0.0</speed>
  <fix>3d</fix>
</trkpt>
<trkpt lat="40.0713749" lon="-105.229789">
  <ele>1583.0</ele>
  <time>2026-08-28T17:56:18Z</time>
  <course>0.0</course>
  <speed>0.0</speed>
  <fix>3d</fix>
</trkpt>
<trkpt lat="40.0713749" lon="-105.229789">
  <ele>1583.0</ele>
  <time>2026-08-28T17:56:18Z</time>
  <course>248.23</course>
  <speed>0.0</speed>
  <fix>3d</fix>
</trkpt>
<trkpt lat="40.0713749" lon="-105.229789">
  <ele>1583.0</ele>
  <time>2026-08-28T17:56:18Z</time>
  <course>0.0</course>
  <speed>0.0</speed>
  <fix>3d</fix>
</trkpt>
<trkpt lat="40.0713749" lon="-105.229789">
  <ele>1583.0</ele>
  <time>2026-08-28T17:56:18Z</time>
  <course>248.25</course>
  <speed>0.0</speed>
  <fix>3d</fix>
</trkpt>
<trkpt lat="40.0713749" lon="-105.229789">
  <ele>1583.0</ele>
  <time>2026-08-28T17:56:18Z</time>
  <course>0.0</course>
  <speed>0.0</speed>
  <fix>3d</fix>
</trkpt>
<trkpt lat="40.0713749" lon="-105.229789">
  <ele>1583.0</ele>
  <time>2026-08-28T17:56:18Z</time>
  <course>248.26</course>
  <speed>0.0</speed>
  <fix>3d</fix>
</trkpt>
<trkpt lat="40.0713749" lon="-105.229789">
  <ele>1583.0</ele>
  <time>2026-08-28T17:56:18Z</time>
  <course>0.0</course>
  <speed>0.0</speed>
  <fix>3d</fix>
</trkpt>
<trkpt lat="40.0713749" lon="-105.229789">
  <ele>1583.0</ele>
  <time>2026-08-28T17:56:18Z</time>
  <course>248.28</course>
  <speed>0.0</speed>
  <fix>3d</fix>
</trkpt>
<trkpt lat="40.0713749" lon="-105.229789">
  <ele>1583.0</ele>
  <time>2026-08-28T17:56:18Z</time>
  <course>0.0</course>
  <speed>0.0</speed>
  <fix>3d</fix>
</trkpt>
<trkpt lat="40.0713749" lon="-105.229789">
  <ele>1583.0</ele>
  <time>2026-08-28T17:56:18Z</time>
  <course>248.29</course>
  <speed>0.0</speed>
  <fix>3d</fix>
</trkpt>
<trkpt lat="40.0713749" lon="-105.229789">
  <ele>1583.0</ele>
  <time>2026-08-28T17:56:18Z</time>
  <course>0.0</course>
  <speed>0.0</speed>
  <fix>3d</fix>
</trkpt>
<trkpt lat="40.0713749" lon="-105.229789">
  <ele>1583.0</ele>
  <time>2026-08-28T17:56:18Z</time>
  <course>248.3</course>
  <speed>0.0</speed>
  <fix>3d</fix>
</trkpt>
<trkpt lat="40.0713749" lon="-105.229789">
  <ele>1583.0</ele>
  <time>2026-08-28T17:56:18Z</time>
  <course>0.0</course>
  <speed>0.0</speed>
  <fix>3d</fix>
</trkpt>
<trkpt lat="40.0713749" lon="-105.229789">
  <ele>1583.0</ele>
  <time>2026-08-28T17:56:18Z</time>
  <course>248.31</course>
  <speed>0.0</speed>
  <fix>3d</fix>
</trkpt>
<trkpt lat="40.0713749" lon="-105.229789">
  <ele>1583.0</ele>
  <time>2026-08-28T17:56:18Z</time>
  <course>0.0</course>
  <speed>0.0</speed>
  <fix>3d</fix>
</trkpt>
<trkpt lat="40.0713749" lon="-105.229789">
  <ele>1583.0</ele>
  <time>2026-08-28T17:56:18Z</time>
  <course>248.32</course>
  <speed>0.0</speed>
  <fix>3d</fix>
</trkpt>
<trkpt lat="40.0713749" lon="-105.229789">
  <ele>1583.0</ele>
  <time>2026-08-28T17:56:18Z</time>
  <course>0.0</course>
  <speed>0.0</speed>
  <fix>3d</fix>
</trkpt>
<trkpt lat="40.0713749" lon="-105.229789">
  <ele>1583.0</ele>
  <time>2026-08-28T17:56:18Z</time>
  <course>248.33</course>
  <speed>0.0</speed>
  <fix>3d</fix>
</trkpt>
<trkpt lat="40.0713749" lon="-105.229789">
  <ele>1583.0</ele>
  <time>2026-08-28T17:56:18Z</time>
  <course>0.0</course>
  <speed>0.0</speed>
  <fix>3d</fix>
</trkpt>
<trkpt lat="40.0713749" lon="-105.229789">
  <ele>1583.0</ele>
  <time>2026-08-28T17:56:18Z</time>
  <course>248.34</course>
  <speed>0.0</speed>
  <fix>3d</fix>
</trkpt>
<trkpt lat="40.0713749" lon="-105.229789">
  <ele>1583.0</ele>
  <time>2026-08-28T17:56:18Z</time>
  <course>0.0</course>
  <speed>0.0</speed>
  <fix>3d</fix>
</trkpt>
<trkpt lat="40.0713749" lon="-105.229789">
  <ele>1583.0</ele>
  <time>2026-08-28T17:56:18Z</time>
  <course>248.35</course>
  <speed>0.0</speed>
  <fix>3d</fix>
</trkpt>
<trkpt lat="40.0713749" lon="-105.229789">
  <ele>1583.0</ele>
  <time>2026-08-28T17:56:18Z</time>
  <course>0.0</course>
  <speed>0.0</speed>
  <fix>3d</fix>
</trkpt>
<trkpt lat="40.0713749" lon="-105.229789">
  <ele>1583.0</ele>
  <time>2026-08-28T17:56:18Z</time>
  <course>248.36</course>
  <speed>0.0</speed>
  <fix>3d</fix>
</trkpt>
<trkpt lat="40.0713749" lon="-105.229789">
  <ele>1583.0</ele>
  <time>2026-08-28T17:56:18Z</time>
  <course>0.0</course>
  <speed>0.0</speed>
  <fix>3d</fix>
</trkpt>
<trkpt lat="40.0713749" lon="-105.229789">
  <ele>1583.0</ele>
  <time>2026-08-28T17:56:18Z</time>
  <course>248.36</course>
  <speed>0.0</speed>
  <fix>3d</fix>
</trkpt>
<trkpt lat="40.0713749" lon="-105.229789">
  <ele>1583.0</ele>
  <time>2026-08-28T17:56:18Z</time>
  <course>0.0</course>
  <speed>0.0</speed>
  <fix>3d</fix>
</trkpt>
<trkpt lat="40.0713749" lon="-105.229789">
  <ele>1583.0</ele>
  <time>2026-08-28T17:56:18Z</time>
  <course>248.37</course>
  <speed>0.0</speed>
  <fix>3d</fix>
</trkpt>
<trkpt lat="40.0713749" lon="-105.229789">
  <ele>1583.0</ele>
  <time>2026-08-28T17:56:18Z</time>
  <course>0.0</course>
  <speed>0.0</speed>
  <fix>3d</fix>
</trkpt>
<trkpt lat="40.0713749" lon="-105.229789">
  <ele>1583.0</ele>
  <time>2026-08-28T17:56:18Z</time>
  <course>248.38</course>
  <speed>0.0</speed>
  <fix>3d</fix>
</trkpt>
<trkpt lat="40.0713749" lon="-105.229789">
  <ele>1583.0</ele>
  <time>2026-08-28T17:56:18Z</time>
  <course>0.0</course>
  <speed>0.0</speed>
  <fix>3d</fix>
</trkpt>
<trkpt lat="40.0713749" lon="-105.229789">
  <ele>1583.0</ele>
  <time>2026-08-28T17:56:18Z</time>
  <course>248.38</course>
  <speed>0.0</speed>
  <fix>3d</fix>
</trkpt>
<trkpt lat="40.0713749" lon="-105.229789">
  <ele>1583.0</ele>
  <time>2026-08-28T17:56:18Z</time>
  <course>0.0</course>
  <speed>0.0</speed>
  <fix>3d</fix>
</trkpt>
<trkpt lat="40.0713749" lon="-105.229789">
  <ele>1583.0</ele>
  <time>2026-08-28T17:56:18Z</time>
  <course>248.38</course>
  <speed>0.0</speed>
  <fix>3d</fix>
</trkpt>
<trkpt lat="40.0713749" lon="-105.229789">
  <ele>1583.0</ele>
  <time>2026-08-28T17:56:18Z</time>
  <course>0.0</course>
  <speed>0.0</speed>
  <fix>3d</fix>
</trkpt>
<trkpt lat="40.0713749" lon="-105.229789">
  <ele>1583.0</ele>
  <time>2026-08-28T17:56:18Z</time>
  <course>248.39</course>
  <speed>0.0</speed>
  <fix>3d</fix>
</trkpt>
<trkpt lat="40.0713749" lon="-105.229789">
  <ele>1583.0</ele>
  <time>2026-08-28T17:56:18Z</time>
  <course>0.0</course>
  <speed>0.0</speed>
  <fix>3d</fix>
</trkpt>
<trkpt lat="40.0713749" lon="-105.229789">
  <ele>1583.0</ele>
  <time>2026-08-28T17:56:18Z</time>
  <course>248.39</course>
  <speed>0.0</speed>
  <fix>3d</fix>
</trkpt>
<trkpt lat="40.0713749" lon="-105.229789">
  <ele>1583.0</ele>
  <time>2026-08-28T17:56:18Z</time>
  <course>0.0</course>
  <speed>0.0</speed>
  <fix>3d</fix>
</trkpt>
<trkpt lat="40.0713749" lon="-105.229789">
  <ele>1583.0</ele>
  <time>2026-08-28T17:56:18Z</time>
  <course>248.4</course>
  <speed>0.0</speed>
  <fix>3d</fix>
</trkpt>
<trkpt lat="40.0713749" lon="-105.229789">
  <ele>1583.0</ele>
  <time>2026-08-28T17:56:18Z</time>
  <course>0.0</course>
  <speed>0.0</speed>
  <fix>3d</fix>
</trkpt>
<trkpt lat="40.0713749" lon="-105.229789">
  <ele>1583.0</ele>
  <time>2026-08-28T17:56:18Z</time>
  <course>248.4</course>
  <speed>0.0</speed>
  <fix>3d</fix>
</trkpt>
<trkpt lat="40.0713749" lon="-105.229789">
  <ele>1583.0</ele>
  <time>2026-08-28T17:56:18Z</time>
  <course>0.0</course>
  <speed>0.0</speed>
  <fix>3d</fix>
</trkpt>
<trkpt lat="40.0713749" lon="-105.229789">
  <ele>1583.0</ele>
  <time>2026-08-28T17:56:18Z</time>
  <course>248.4</course>
  <speed>0.0</speed>
  <fix>3d</fix>
</trkpt>
<trkpt lat="40.0713749" lon="-105.229789">
  <ele>1583.0</ele>
  <time>2026-08-28T17:56:18Z</time>
  <course>0.0</course>
  <speed>0.0</speed>
  <fix>3d</fix>
</trkpt>
<trkpt lat="40.0713749" lon="-105.229789">
  <ele>1583.0</ele>
  <time>2026-08-28T17:56:18Z</time>
  <course>248.4</course>
  <speed>0.0</speed>
  <fix>3d</fix>
</trkpt>
<trkpt lat="40.0713749" lon="-105.229789">
  <ele>1583.0</ele>
  <time>2026-08-28T17:56:18Z</time>
  <course>0.0</course>
  <speed>0.0</speed>
  <fix>3d</fix>
</trkpt>
<trkpt lat="40.0713749" lon="-105.229789">
  <ele>1583.0</ele>
  <time>2026-08-28T17:56:18Z</time>
  <course>248.41</course>
  <speed>0.0</speed>
  <fix>3d</fix>
</trkpt>
<trkpt lat="40.0713749" lon="-105.229789">
  <ele>1583.0</ele>
  <time>2026-08-28T17:56:18Z</time>
  <course>0.0</course>
  <speed>0.0</speed>
  <fix>3d</fix>
</trkpt>
<trkpt lat="40.0713749" lon="-105.229789">
  <ele>1583.0</ele>
  <time>2026-08-28T17:56:18Z</time>
  <course>248.41</course>
  <speed>0.0</speed>
  <fix>3d</fix>
</trkpt>
<trkpt lat="40.0713749" lon="-105.229789">
  <ele>1583.0</ele>
  <time>2026-08-28T17:56:18Z</time>
  <course>0.0</course>
  <speed>0.0</speed>
  <fix>3d</fix>
</trkpt>
<trkpt lat="40.0713749" lon="-105.229789">
  <ele>1583.0</ele>
  <time>2026-08-28T17:56:18Z</time>
  <course>248.41</course>
  <speed>0.0</speed>
  <fix>3d</fix>
</trkpt>
<trkpt lat="40.0713749" lon="-105.229789">
  <ele>1583.0</ele>
  <time>2026-08-28T17:56:18Z</time>
  <course>0.0</course>
  <speed>0.0</speed>
  <fix>3d</fix>
</trkpt>
<trkpt lat="40.0713749" lon="-105.229789">
  <ele>1583.0</ele>
  <time>2026-08-28T17:56:18Z</time>
  <course>248.41</course>
  <speed>0.0</speed>
  <fix>3d</fix>
</trkpt>
<trkpt lat="40.0713749" lon="-105.229789">
  <ele>1583.0</ele>
  <time>2026-08-28T17:56:18Z</time>
  <course>0.0</course>
  <speed>0.0</speed>
  <fix>3d</fix>
</trkpt>
<trkpt lat="40.0713749" lon="-105.229789">
  <ele>1583.0</ele>
  <time>2026-08-28T17:56:18Z</time>
  <course>248.41</course>
  <speed>0.0</speed>
  <fix>3d</fix>
</trkpt>
<trkpt lat="40.0713749" lon="-105.229789">
  <ele>1583.0</ele>
  <time>2026-08-28T17:56:18Z</time>
  <course>0.0</course>
  <speed>0.0</speed>
  <fix>3d</fix>
</trkpt>
<trkpt lat="40.0713749" lon="-105.229789">
  <ele>1583.0</ele>
  <time>2026-08-28T17:56:18Z</time>
  <course>248.41</course>
  <speed>0.0</speed>
  <fix>3d</fix>
</trkpt>
<trkpt lat="40.0713749" lon="-105.229789">
  <ele>1583.0</ele>
  <time>2026-08-28T17:56:18Z</time>
  <course>0.0</course>
  <speed>0.0</speed>
  <fix>3d</fix>
</trkpt>
<trkpt lat="40.0713749" lon="-105.229789">
  <ele>1583.0</ele>
  <time>2026-08-28T17:56:18Z</time>
  <course>248.41</course>
  <speed>0.0</speed>
  <fix>3d</fix>
</trkpt>
<trkpt lat="40.0713749" lon="-105.229789">
  <ele>1583.0</ele>
  <time>2026-08-28T17:56:18Z</time>
  <course>0.0</course>
  <speed>0.0</speed>
  <fix>3d</fix>
</trkpt>
<trkpt lat="40.0713749" lon="-105.229789">
  <ele>1583.0</ele>
  <time>2026-08-28T17:56:18Z</time>
  <course>248.41</course>
  <speed>0.0</speed>
  <fix>3d</fix>
</trkpt>
<trkpt lat="40.0713749" lon="-105.229789">
  <ele>1583.0</ele>
  <time>2026-08-28T17:56:18Z</time>
  <course>0.0</course>
  <speed>0.0</speed>
  <fix>3d</fix>
</trkpt>
<trkpt lat="40.0713749" lon="-105.229789">
  <ele>1583.0</ele>
  <time>2026-08-28T17:56:18Z</time>
  <course>248.41</course>
  <speed>0.0</speed>
  <fix>3d</fix>
</trkpt>
<trkpt lat="40.0713749" lon="-105.229789">
  <ele>1583.0</ele>
  <time>2026-08-28T17:56:18Z</time>
  <course>0.0</course>
  <speed>0.0</speed>
  <fix>3d</fix>
</trkpt>
<trkpt lat="40.0713749" lon="-105.229789">
  <ele>1583.0</ele>
  <time>2026-08-28T17:56:18Z</time>
  <course>248.41</course>
  <speed>0.0</speed>
  <fix>3d</fix>
</trkpt>
<trkpt lat="40.0713749" lon="-105.229789">
  <ele>1583.0</ele>
  <time>2026-08-28T17:56:18Z</time>
  <course>0.0</course>
  <speed>0.0</speed>
  <fix>3d</fix>
</trkpt>
<trkpt lat="40.0713749" lon="-105.229789">
  <ele>1583.0</ele>
  <time>2026-08-28T17:56:18Z</time>
  <course>248.41</course>
  <speed>0.0</speed>
  <fix>3d</fix>
</trkpt>
<trkpt lat="40.0713749" lon="-105.229789">
  <ele>1583.0</ele>
  <time>2026-08-28T17:56:18Z</time>
  <course>0.0</course>
  <speed>0.0</speed>
  <fix>3d</fix>
</trkpt>
<trkpt lat="40.0713749" lon="-105.229789">
  <ele>1583.0</ele>
  <time>2026-08-28T17:56:18Z</time>
  <course>248.41</course>
  <speed>0.0</speed>
  <fix>3d</fix>
</trkpt>
<trkpt lat="40.0713749" lon="-105.229789">
  <ele>1583.0</ele>
  <time>2026-08-28T17:56:18Z</time>
  <course>0.0</course>
  <speed>0.0</speed>
  <fix>3d</fix>
</trkpt>
<trkpt lat="40.0713749" lon="-105.229789">
  <ele>1583.0</ele>
  <time>2026-08-28T17:56:18Z</time>
  <course>248.41</course>
  <speed>0.0</speed>
  <fix>3d</fix>
</trkpt>
<trkpt lat="40.0713749" lon="-105.229789">
  <ele>1583.0</ele>
  <time>2026-08-28T17:56:18Z</time>
  <course>0.0</course>
  <speed>0.0</speed>
  <fix>3d</fix>
</trkpt>
<trkpt lat="40.0713749" lon="-105.229789">
  <ele>1583.0</ele>
  <time>2026-08-28T17:56:18Z</time>
  <course>248.41</course>
  <speed>0.0</speed>
  <fix>3d</fix>
</trkpt>
<trkpt lat="40.0713749" lon="-105.229789">
  <ele>1583.0</ele>
  <time>2026-08-28T17:56:18Z</time>
  <course>0.0</course>
  <speed>0.0</speed>
  <fix>3d</fix>
</trkpt>
<trkpt lat="40.0713749" lon="-105.229789">
  <ele>1583.0</ele>
  <time>2026-08-28T17:56:18Z</time>
  <course>248.41</course>
  <speed>0.0</speed>
  <fix>3d</fix>
</trkpt>
<trkpt lat="40.0713749" lon="-105.229789">
  <ele>1583.0</ele>
  <time>2026-08-28T17:56:18Z</time>
  <course>0.0</course>
  <speed>0.0</speed>
  <fix>3d</fix>
</trkpt>
<trkpt lat="40.0713749" lon="-105.229789">
  <ele>1583.0</ele>
  <time>2026-08-28T17:56:18Z</time>
  <course>248.41</course>
  <speed>0.0</speed>
  <fix>3d</fix>
</trkpt>
<trkpt lat="40.0713749" lon="-105.229789">
  <ele>1583.0</ele>
  <time>2026-08-28T17:56:18Z</time>
  <course>0.0</course>
  <speed>0.0</speed>
  <fix>3d</fix>
</trkpt>
<trkpt lat="40.0713749" lon="-105.229789">
  <ele>1583.0</ele>
  <time>2026-08-28T17:56:18Z</time>
  <course>248.4</course>
  <speed>0.0</speed>
  <fix>3d</fix>
</trkpt>
<trkpt lat="40.0713749" lon="-105.229789">
  <ele>1583.0</ele>
  <time>2026-08-28T17:56:18Z</time>
  <course>0.0</course>
  <speed>0.0</speed>
  <fix>3d</fix>
</trkpt>
<trkpt lat="40.0713749" lon="-105.229789">
  <ele>1583.0</ele>
  <time>2026-08-28T17:56:18Z</time>
  <course>248.4</course>
  <speed>0.01</speed>
  <fix>3d</fix>
</trkpt>
<trkpt lat="40.0713749" lon="-105.229789">
  <ele>1583.0</ele>
  <time>2026-08-28T17:56:18Z</time>
  <course>0.0</course>
  <speed>0.0</speed>
  <fix>3d</fix>
</trkpt>
<trkpt lat="40.0713749" lon="-105.229789">
  <ele>1583.0</ele>
  <time>2026-08-28T17:56:18Z</time>
  <course>248.4</course>
  <speed>0.01</speed>
  <fix>3d</fix>
</trkpt>
<trkpt lat="40.0713749" lon="-105.229789">
  <ele>1583.0</ele>
  <time>2026-08-28T17:56:18Z</time>
  <course>0.0</course>
  <speed>0.0</speed>
  <fix>3d</fix>
</trkpt>
<trkpt lat="40.0713749" lon="-105.229789">
  <ele>1583.0</ele>
  <time>2026-08-28T17:56:18Z</time>
  <course>248.4</course>
  <speed>0.01</speed>
  <fix>3d</fix>
</trkpt>
<trkpt lat="40.0713749" lon="-105.229789">
  <ele>1583.0</ele>
  <time>2026-08-28T17:56:18Z</time>
  <course>0.0</course>
  <speed>0.0</speed>
  <fix>3d</fix>
</trkpt>
<trkpt lat="40.0713749" lon="-105.229789">
  <ele>1583.0</ele>
  <time>2026-08-28T17:56:18Z</time>
  <course>248.4</course>
  <speed>0.01</speed>
  <fix>3d</fix>
</trkpt>
<trkpt lat="40.0713749" lon="-105.229789">
  <ele>1583.0</ele>
  <time>2026-08-28T17:56:18Z</time>
  <course>0.0</course>
  <speed>0.0</speed>
  <fix>3d</fix>
</trkpt>
<trkpt lat="40.0713749" lon="-105.229789">
  <ele>1583.0</ele>
  <time>2026-08-28T17:56:18Z</time>
  <course>248.39</course>
  <speed>0.01</speed>
  <fix>3d</fix>
</trkpt>
<trkpt lat="40.0713749" lon="-105.229789">
  <ele>1583.0</ele>
  <time>2026-08-28T17:56:18Z</time>
  <course>0.0</course>
  <speed>0.0</speed>
  <fix>3d</fix>
</trkpt>
<trkpt lat="40.0713749" lon="-105.229789">
  <ele>1583.0</ele>
  <time>2026-08-28T17:56:18Z</time>
  <course>248.39</course>
  <speed>0.01</speed>
  <fix>3d</fix>
</trkpt>
<trkpt lat="40.0713749" lon="-105.229789">
  <ele>1583.0</ele>
  <time>2026-08-28T17:56:18Z</time>
  <course>0.0</course>
  <speed>0.0</speed>
  <fix>3d</fix>
</trkpt>
<trkpt lat="40.0713749" lon="-105.229789">
  <ele>1583.0</ele>
  <time>2026-08-28T17:56:18Z</time>
  <course>248.39</course>
  <speed>0.01</speed>
  <fix>3d</fix>
</trkpt>
<trkpt lat="40.0713749" lon="-105.229789">
  <ele>1583.0</ele>
  <time>2026-08-28T17:56:18Z</time>
  <course>0.0</course>
  <speed>0.0</speed>
  <fix>3d</fix>
</trkpt>
<trkpt lat="40.0713749" lon="-105.229789">
  <ele>1583.0</ele>
  <time>2026-08-28T17:56:18Z</time>
  <course>248.38</course>
  <speed>0.01</speed>
  <fix>3d</fix>
</trkpt>
<trkpt lat="40.0713749" lon="-105.229789">
  <ele>1583.0</ele>
  <time>2026-08-28T17:56:18Z</time>
  <course>0.0</course>
  <speed>0.0</speed>
  <fix>3d</fix>
</trkpt>
<trkpt lat="40.0713749" lon="-105.229789">
  <ele>1583.0</ele>
  <time>2026-08-28T17:56:18Z</time>
  <course>248.38</course>
  <speed>0.01</speed>
  <fix>3d</fix>
</trkpt>
<trkpt lat="40.0713749" lon="-105.229789">
  <ele>1583.0</ele>
  <time>2026-08-28T17:56:18Z</time>
  <course>0.0</course>
  <speed>0.0</speed>
  <fix>3d</fix>
</trkpt>
<trkpt lat="40.0713749" lon="-105.229789">
  <ele>1583.0</ele>
  <time>2026-08-28T17:56:18Z</time>
  <course>248.38</course>
  <speed>0.01</speed>
  <fix>3d</fix>
</trkpt>
<trkpt lat="40.0713749" lon="-105.229789">
  <ele>1583.0</ele>
  <time>2026-08-28T17:56:18Z</time>
  <course>0.0</course>
  <speed>0.0</speed>
  <fix>3d</fix>
</trkpt>
<trkpt lat="40.0713749" lon="-105.229789">
  <ele>1583.0</ele>
  <time>2026-08-28T17:56:18Z</time>
  <course>248.38</course>
  <speed>0.01</speed>
  <fix>3d</fix>
</trkpt>
<trkpt lat="40.0713749" lon="-105.229789">
  <ele>1583.0</ele>
  <time>2026-08-28T17:56:18Z</time>
  <course>0.0</course>
  <speed>0.0</speed>
  <fix>3d</fix>
</trkpt>
<trkpt lat="40.0713749" lon="-105.229789">
  <ele>1583.0</ele>
  <time>2026-08-28T17:56:18Z</time>
  <course>248.37</course>
  <speed>0.01</speed>
  <fix>3d</fix>
</trkpt>
<trkpt lat="40.0713749" lon="-105.229789">
  <ele>1583.0</ele>
  <time>2026-08-28T17:56:18Z</time>
  <course>0.0</course>
  <speed>0.0</speed>
  <fix>3d</fix>
</trkpt>
<trkpt lat="40.0713749" lon="-105.229789">
  <ele>1583.0</ele>
  <time>2026-08-28T17:56:18Z</time>
  <course>248.37</course>
  <speed>0.01</speed>
  <fix>3d</fix>
</trkpt>
<trkpt lat="40.0713749" lon="-105.229789">
  <ele>1583.0</ele>
  <time>2026-08-28T17:56:18Z</time>
  <course>0.0</course>
  <speed>0.0</speed>
  <fix>3d</fix>
</trkpt>
<trkpt lat="40.0713749" lon="-105.229789">
  <ele>1583.0</ele>
  <time>2026-08-28T17:56:18Z</time>
  <course>248.37</course>
  <speed>0.01</speed>
  <fix>3d</fix>
</trkpt>
<trkpt lat="40.0713749" lon="-105.229789">
  <ele>1583.0</ele>
  <time>2026-08-28T17:56:18Z</time>
  <course>0.0</course>
  <speed>0.0</speed>
  <fix>3d</fix>
</trkpt>
<trkpt lat="40.0713749" lon="-105.229789">
  <ele>1583.0</ele>
  <time>2026-08-28T17:56:18Z</time>
  <course>248.36</course>
  <speed>0.01</speed>
  <fix>3d</fix>
</trkpt>
<trkpt lat="40.0713749" lon="-105.229789">
  <ele>1583.0</ele>
  <time>2026-08-28T17:56:18Z</time>
  <course>0.0</course>
  <speed>0.0</speed>
  <fix>3d</fix>
</trkpt>
<trkpt lat="40.0713749" lon="-105.229789">
  <ele>1583.0</ele>
  <time>2026-08-28T17:56:18Z</time>
  <course>248.36</course>
  <speed>0.01</speed>
  <fix>3d</fix>
</trkpt>
<trkpt lat="40.0713749" lon="-105.229789">
  <ele>1583.0</ele>
  <time>2026-08-28T17:56:18Z</time>
  <course>0.0</course>
  <speed>0.0</speed>
  <fix>3d</fix>
</trkpt>
<trkpt lat="40.0713749" lon="-105.229789">
  <ele>1583.0</ele>
  <time>2026-08-28T17:56:18Z</time>
  <course>248.35</course>
  <speed>0.01</speed>
  <fix>3d</fix>
</trkpt>
<trkpt lat="40.0713749" lon="-105.229789">
  <ele>1583.0</ele>
  <time>2026-08-28T17:56:18Z</time>
  <course>0.0</course>
  <speed>0.0</speed>
  <fix>3d</fix>
</trkpt>
<trkpt lat="40.0713749" lon="-105.229789">
  <ele>1583.0</ele>
  <time>2026-08-28T17:56:18Z</time>
  <course>248.35</course>
  <speed>0.01</speed>
  <fix>3d</fix>
</trkpt>
<trkpt lat="40.0713749" lon="-105.229789">
  <ele>1583.0</ele>
  <time>2026-08-28T17:56:18Z</time>
  <course>0.0</course>
  <speed>0.0</speed>
  <fix>3d</fix>
</trkpt>
<trkpt lat="40.0713749" lon="-105.229789">
  <ele>1583.0</ele>
  <time>2026-08-28T17:56:18Z</time>
  <course>248.35</course>
  <speed>0.01</speed>
  <fix>3d</fix>
</trkpt>
<trkpt lat="40.0713749" lon="-105.229789">
  <ele>1583.0</ele>
  <time>2026-08-28T17:56:18Z</time>
  <course>0.0</course>
  <speed>0.0</speed>
  <fix>3d</fix>
</trkpt>
<trkpt lat="40.0713749" lon="-105.229789">
  <ele>1583.0</ele>
  <time>2026-08-28T17:56:18Z</time>
  <course>248.34</course>
  <speed>0.01</speed>
  <fix>3d</fix>
</trkpt>
<trkpt lat="40.0713749" lon="-105.229789">
  <ele>1583.0</ele>
  <time>2026-08-28T17:56:18Z</time>
  <course>0.0</course>
  <speed>0.0</speed>
  <fix>3d</fix>
</trkpt>
<trkpt lat="40.0713749" lon="-105.229789">
  <ele>1583.0</ele>
  <time>2026-08-28T17:56:18Z</time>
  <course>248.34</course>
  <speed>0.01</speed>
  <fix>3d</fix>
</trkpt>
<trkpt lat="40.0713749" lon="-105.229789">
  <ele>1583.0</ele>
  <time>2026-08-28T17:56:18Z</time>
  <course>0.0</course>
  <speed>0.0</speed>
  <fix>3d</fix>
</trkpt>
<trkpt lat="40.0713749" lon="-105.229789">
  <ele>1583.0</ele>
  <time>2026-08-28T17:56:18Z</time>
  <course>248.33</course>
  <speed>0.01</speed>
  <fix>3d</fix>
</trkpt>
<trkpt lat="40.0713749" lon="-105.229789">
  <ele>1583.0</ele>
  <time>2026-08-28T17:56:18Z</time>
  <course>0.0</course>
  <speed>0.0</speed>
  <fix>3d</fix>
</trkpt>
<trkpt lat="40.0713749" lon="-105.229789">
  <ele>1583.0</ele>
  <time>2026-08-28T17:56:18Z</time>
  <course>248.33</course>
  <speed>0.01</speed>
  <fix>3d</fix>
</trkpt>
<trkpt lat="40.0713749" lon="-105.229789">
  <ele>1583.0</ele>
  <time>2026-08-28T17:56:18Z</time>
  <course>0.0</course>
  <speed>0.0</speed>
  <fix>3d</fix>
</trkpt>
<trkpt lat="40.0713749" lon="-105.229789">
  <ele>1583.0</ele>
  <time>2026-08-28T17:56:18Z</time>
  <course>248.32</course>
  <speed>0.01</speed>
  <fix>3d</fix>
</trkpt>
<trkpt lat="40.0713749" lon="-105.229789">
  <ele>1583.0</ele>
  <time>2026-08-28T17:56:18Z</time>
  <course>0.0</course>
  <speed>0.0</speed>
  <fix>3d</fix>
</trkpt>
<trkpt lat="40.0713749" lon="-105.229789">
  <ele>1583.0</ele>
  <time>2026-08-28T17:56:18Z</time>
  <course>248.32</course>
  <speed>0.01</speed>
  <fix>3d</fix>
</trkpt>
<trkpt lat="40.0713749" lon="-105.229789">
  <ele>1583.0</ele>
  <time>2026-08-28T17:56:18Z</time>
  <course>0.0</course>
  <speed>0.0</speed>
  <fix>3d</fix>
</trkpt>
<trkpt lat="40.0713749" lon="-105.229789">
  <ele>1583.0</ele>
  <time>2026-08-28T17:56:18Z</time>
  <course>248.32</course>
  <speed>0.01</speed>
  <fix>3d</fix>
</trkpt>
<trkpt lat="40.0713749" lon="-105.229789">
  <ele>1583.0</ele>
  <time>2026-08-28T17:56:18Z</time>
  <course>0.0</course>
  <speed>0.0</speed>
  <fix>3d</fix>
</trkpt>
<trkpt lat="40.0713749" lon="-105.229789">
  <ele>1583.0</ele>
  <time>2026-08-28T17:56:18Z</time>
  <course>248.31</course>
  <speed>0.01</speed>
  <fix>3d</fix>
</trkpt>
<trkpt lat="40.0713749" lon="-105.229789">
  <ele>1583.0</ele>
  <time>2026-08-28T17:56:18Z</time>
  <course>0.0</course>
  <speed>0.0</speed>
  <fix>3d</fix>
</trkpt>
<trkpt lat="40.0713749" lon="-105.229789">
  <ele>1583.0</ele>
  <time>2026-08-28T17:56:18Z</time>
  <course>248.31</course>
  <speed>0.01</speed>
  <fix>3d</fix>
</trkpt>
<trkpt lat="40.0713749" lon="-105.229789">
  <ele>1583.0</ele>
  <time>2026-08-28T17:56:18Z</time>
  <course>0.0</course>
  <speed>0.0</speed>
  <fix>3d</fix>
</trkpt>
<trkpt lat="40.0713749" lon="-105.229789">
  <ele>1583.0</ele>
  <time>2026-08-28T17:56:18Z</time>
  <course>248.3</course>
  <speed>0.01</speed>
  <fix>3d</fix>
</trkpt>
<trkpt lat="40.0713749" lon="-105.229789">
  <ele>1583.0</ele>
  <time>2026-08-28T17:56:18Z</time>
  <course>0.0</course>
  <speed>0.0</speed>
  <fix>3d</fix>
</trkpt>
<trkpt lat="40.0713749" lon="-105.229789">
  <ele>1583.0</ele>
  <time>2026-08-28T17:56:18Z</time>
  <course>248.3</course>
  <speed>0.01</speed>
  <fix>3d</fix>
</trkpt>
<trkpt lat="40.0713749" lon="-105.229789">
  <ele>1583.0</ele>
  <time>2026-08-28T17:56:18Z</time>
  <course>0.0</course>
  <speed>0.0</speed>
  <fix>3d</fix>
</trkpt>
<trkpt lat="40.0713749" lon="-105.229789">
  <ele>1583.0</ele>
  <time>2026-08-28T17:56:18Z</time>
  <course>248.29</course>
  <speed>0.01</speed>
  <fix>3d</fix>
</trkpt>
<trkpt lat="40.0713749" lon="-105.229789">
  <ele>1583.0</ele>
  <time>2026-08-28T17:56:18Z</time>
  <course>0.0</course>
  <speed>0.0</speed>
  <fix>3d</fix>
</trkpt>
<trkpt lat="40.0713749" lon="-105.229789">
  <ele>1583.0</ele>
  <time>2026-08-28T17:56:18Z</time>
  <course>248.29</course>
  <speed>0.01</speed>
  <fix>3d</fix>
</trkpt>
<trkpt lat="40.0713749" lon="-105.229789">
  <ele>1583.0</ele>
  <time>2026-08-28T17:56:18Z</time>
  <course>0.0</course>
  <speed>0.0</speed>
  <fix>3d</fix>
</trkpt>
<trkpt lat="40.0713749" lon="-105.229789">
  <ele>1583.0</ele>
  <time>2026-08-28T17:56:18Z</time>
  <course>248.28</course>
  <speed>0.01</speed>
  <fix>3d</fix>
</trkpt>
<trkpt lat="40.0713749" lon="-105.229789">
  <ele>1583.0</ele>
  <time>2026-08-28T17:56:18Z</time>
  <course>0.0</course>
  <speed>0.0</speed>
  <fix>3d</fix>
</trkpt>
<trkpt lat="40.0713749" lon="-105.229789">
  <ele>1583.0</ele>
  <time>2026-08-28T17:56:18Z</time>
  <course>248.28</course>
  <speed>0.01</speed>
  <fix>3d</fix>
</trkpt>
<trkpt lat="40.0713749" lon="-105.229789">
  <ele>1583.0</ele>
  <time>2026-08-28T17:56:18Z</time>
  <course>0.0</course>
  <speed>0.0</speed>
  <fix>3d</fix>
</trkpt>
<trkpt lat="40.0713749" lon="-105.229789">
  <ele>1583.0</ele>
  <time>2026-08-28T17:56:18Z</time>
  <course>248.27</course>
  <speed>0.01</speed>
  <fix>3d</fix>
</trkpt>
<trkpt lat="40.0713749" lon="-105.229789">
  <ele>1583.0</ele>
  <time>2026-08-28T17:56:18Z</time>
  <course>0.0</course>
  <speed>0.0</speed>
  <fix>3d</fix>
</trkpt>
<trkpt lat="40.0713749" lon="-105.229789">
  <ele>1583.0</ele>
  <time>2026-08-28T17:56:18Z</time>
  <course>248.27</course>
  <speed>0.01</speed>
  <fix>3d</fix>
</trkpt>
<trkpt lat="40.0713749" lon="-105.229789">
  <ele>1583.0</ele>
  <time>2026-08-28T17:56:18Z</time>
  <course>0.0</course>
  <speed>0.0</speed>
  <fix>3d</fix>
</trkpt>
<trkpt lat="40.0713749" lon="-105.229789">
  <ele>1583.0</ele>
  <time>2026-08-28T17:56:18Z</time>
  <course>248.27</course>
  <speed>0.01</speed>
  <fix>3d</fix>
</trkpt>
<trkpt lat="40.0713749" lon="-105.229789">
  <ele>1583.0</ele>
  <time>2026-08-28T17:56:18Z</time>
  <course>0.0</course>
  <speed>0.0</speed>
  <fix>3d</fix>
</trkpt>
<trkpt lat="40.0713749" lon="-105.229789">
  <ele>1583.0</ele>
  <time>2026-08-28T17:56:18Z</time>
  <course>248.26</course>
  <speed>0.01</speed>
  <fix>3d</fix>
</trkpt>
<trkpt lat="40.0713749" lon="-105.229789">
  <ele>1583.0</ele>
  <time>2026-08-28T17:56:18Z</time>
  <course>0.0</course>
  <speed>0.0</speed>
  <fix>3d</fix>
</trkpt>
<trkpt lat="40.0713749" lon="-105.229789">
  <ele>1583.0</ele>
  <time>2026-08-28T17:56:18Z</time>
  <course>248.26</course>
  <speed>0.01</speed>
  <fix>3d</fix>
</trkpt>
<trkpt lat="40.0713749" lon="-105.229789">
  <ele>1583.0</ele>
  <time>2026-08-28T17:56:18Z</time>
  <course>0.0</course>
  <speed>0.0</speed>
  <fix>3d</fix>
</trkpt>
<trkpt lat="40.0713749" lon="-105.229789">
  <ele>1583.0</ele>
  <time>2026-08-28T17:56:18Z</time>
  <course>248.25</course>
  <speed>0.01</speed>
  <fix>3d</fix>
</trkpt>
<trkpt lat="40.0713749" lon="-105.229789">
  <ele>1583.0</ele>
  <time>2026-08-28T17:56:18Z</time>
  <course>0.0</course>
  <speed>0.0</speed>
  <fix>3d</fix>
</trkpt>
<trkpt lat="40.0713749" lon="-105.229789">
  <ele>1583.0</ele>
  <time>2026-08-28T17:56:18Z</time>
  <course>248.25</course>
  <speed>0.01</speed>
  <fix>3d</fix>
</trkpt>
<trkpt lat="40.0713749" lon="-105.229789">
  <ele>1583.0</ele>
  <time>2026-08-28T17:56:18Z</time>
  <course>0.0</course>
  <speed>0.0</speed>
  <fix>3d</fix>
</trkpt>
<trkpt lat="40.0713749" lon="-105.229789">
  <ele>1583.0</ele>
  <time>2026-08-28T17:56:18Z</time>
  <course>248.24</course>
  <speed>0.01</speed>
  <fix>3d</fix>
</trkpt>
<trkpt lat="40.0713749" lon="-105.229789">
  <ele>1583.0</ele>
  <time>2026-08-28T17:56:18Z</time>
  <course>0.0</course>
  <speed>0.0</speed>
  <fix>3d</fix>
</trkpt>
<trkpt lat="40.0713749" lon="-105.229789">
  <ele>1583.0</ele>
  <time>2026-08-28T17:56:19Z</time>
  <course>248.24</course>
  <speed>0.01</speed>
  <fix>3d</fix>
</trkpt>
<trkpt lat="40.0713749" lon="-105.229789">
  <ele>1583.0</ele>
  <time>2026-08-28T17:56:19Z</time>
  <course>0.0</course>
  <speed>0.0</speed>
  <fix>3d</fix>
</trkpt>
<trkpt lat="40.0713749" lon="-105.229789">
  <ele>1583.0</ele>
  <time>2026-08-28T17:56:19Z</time>
  <course>248.23</course>
  <speed>0.01</speed>
  <fix>3d</fix>
</trkpt>
<trkpt lat="40.0713749" lon="-105.229789">
  <ele>1583.0</ele>
  <time>2026-08-28T17:56:19Z</time>
  <course>0.0</course>
  <speed>0.0</speed>
  <fix>3d</fix>
</trkpt>
<trkpt lat="40.0713749" lon="-105.229789">
  <ele>1583.0</ele>
  <time>2026-08-28T17:56:19Z</time>
  <course>248.23</course>
  <speed>0.01</speed>
  <fix>3d</fix>
</trkpt>
<trkpt lat="40.0713749" lon="-105.229789">
  <ele>1583.0</ele>
  <time>2026-08-28T17:56:19Z</time>
  <course>0.0</course>
  <speed>0.0</speed>
  <fix>3d</fix>
</trkpt>
<trkpt lat="40.0713749" lon="-105.229789">
  <ele>1583.0</ele>
  <time>2026-08-28T17:56:19Z</time>
  <course>248.22</course>
  <speed>0.01</speed>
  <fix>3d</fix>
</trkpt>
<trkpt lat="40.0713749" lon="-105.229789">
  <ele>1583.0</ele>
  <time>2026-08-28T17:56:19Z</time>
  <course>0.0</course>
  <speed>0.0</speed>
  <fix>3d</fix>
</trkpt>
<trkpt lat="40.0713749" lon="-105.229789">
  <ele>1583.0</ele>
  <time>2026-08-28T17:56:19Z</time>
  <course>248.22</course>
  <speed>0.01</speed>
  <fix>3d</fix>
</trkpt>
<trkpt lat="40.0713749" lon="-105.229789">
  <ele>1583.0</ele>
  <time>2026-08-28T17:56:19Z</time>
  <course>0.0</course>
  <speed>0.0</speed>
  <fix>3d</fix>
</trkpt>
<trkpt lat="40.0713749" lon="-105.229789">
  <ele>1583.0</ele>
  <time>2026-08-28T17:56:19Z</time>
  <course>248.21</course>
  <speed>0.01</speed>
  <fix>3d</fix>
</trkpt>
<trkpt lat="40.0713749" lon="-105.229789">
  <ele>1583.0</ele>
  <time>2026-08-28T17:56:19Z</time>
  <course>0.0</course>
  <speed>0.0</speed>
  <fix>3d</fix>
</trkpt>
<trkpt lat="40.0713749" lon="-105.229789">
  <ele>1583.0</ele>
  <time>2026-08-28T17:56:19Z</time>
  <course>248.21</course>
  <speed>0.01</speed>
  <fix>3d</fix>
</trkpt>
<trkpt lat="40.0713749" lon="-105.229789">
  <ele>1583.0</ele>
  <time>2026-08-28T17:56:19Z</time>
  <course>0.0</course>
  <speed>0.0</speed>
  <fix>3d</fix>
</trkpt>
<trkpt lat="40.0713749" lon="-105.229789">
  <ele>1583.0</ele>
  <time>2026-08-28T17:56:19Z</time>
  <course>248.2</course>
  <speed>0.01</speed>
  <fix>3d</fix>
</trkpt>
<trkpt lat="40.0713749" lon="-105.229789">
  <ele>1583.0</ele>
  <time>2026-08-28T17:56:19Z</time>
  <course>0.0</course>
  <speed>0.0</speed>
  <fix>3d</fix>
</trkpt>
<trkpt lat="40.0713749" lon="-105.229789">
  <ele>1583.0</ele>
  <time>2026-08-28T17:56:19Z</time>
  <course>248.2</course>
  <speed>0.01</speed>
  <fix>3d</fix>
</trkpt>
<trkpt lat="40.0713749" lon="-105.229789">
  <ele>1583.0</ele>
  <time>2026-08-28T17:56:19Z</time>
  <course>0.0</course>
  <speed>0.0</speed>
  <fix>3d</fix>
</trkpt>
<trkpt lat="40.0713749" lon="-105.229789">
  <ele>1583.0</ele>
  <time>2026-08-28T17:56:19Z</time>
  <course>248.19</course>
  <speed>0.01</speed>
  <fix>3d</fix>
</trkpt>
<trkpt lat="40.0713749" lon="-105.229789">
  <ele>1583.0</ele>
  <time>2026-08-28T17:56:19Z</time>
  <course>0.0</course>
  <speed>0.0</speed>
  <fix>3d</fix>
</trkpt>
<trkpt lat="40.0713749" lon="-105.229789">
  <ele>1583.0</ele>
  <time>2026-08-28T17:56:19Z</time>
  <course>248.19</course>
  <speed>0.01</speed>
  <fix>3d</fix>
</trkpt>
<trkpt lat="40.0713749" lon="-105.229789">
  <ele>1583.0</ele>
  <time>2026-08-28T17:56:19Z</time>
  <course>0.0</course>
  <speed>0.0</speed>
  <fix>3d</fix>
</trkpt>
<trkpt lat="40.0713749" lon="-105.229789">
  <ele>1583.0</ele>
  <time>2026-08-28T17:56:19Z</time>
  <course>248.18</course>
  <speed>0.01</speed>
  <fix>3d</fix>
</trkpt>
<trkpt lat="40.0713749" lon="-105.229789">
  <ele>1583.0</ele>
  <time>2026-08-28T17:56:19Z</time>
  <course>0.0</course>
  <speed>0.0</speed>
  <fix>3d</fix>
</trkpt>
<trkpt lat="40.0713749" lon="-105.229789">
  <ele>1583.0</ele>
  <time>2026-08-28T17:56:19Z</time>
  <course>248.18</course>
  <speed>0.01</speed>
  <fix>3d</fix>
</trkpt>
<trkpt lat="40.0713749" lon="-105.229789">
  <ele>1583.0</ele>
  <time>2026-08-28T17:56:19Z</time>
  <course>0.0</course>
  <speed>0.0</speed>
  <fix>3d</fix>
</trkpt>
<trkpt lat="40.0713749" lon="-105.229789">
  <ele>1583.0</ele>
  <time>2026-08-28T17:56:19Z</time>
  <course>248.17</course>
  <speed>0.022360679774997897</speed>
  <fix>3d</fix>
</trkpt>
<trkpt lat="40.0713749" lon="-105.229789">
  <ele>1583.0</ele>
  <time>2026-08-28T17:56:19Z</time>
  <course>0.0</course>
  <speed>0.0</speed>
  <fix>3d</fix>
</trkpt>
<trkpt lat="40.0713749" lon="-105.229789">
  <ele>1583.0</ele>
  <time>2026-08-28T17:56:19Z</time>
  <course>248.17</course>
  <speed>0.022360679774997897</speed>
  <fix>3d</fix>
</trkpt>
<trkpt lat="40.0713749" lon="-105.229789">
  <ele>1583.0</ele>
  <time>2026-08-28T17:56:19Z</time>
  <course>0.0</course>
  <speed>0.0</speed>
  <fix>3d</fix>
</trkpt>
<trkpt lat="40.0713749" lon="-105.229789">
  <ele>1583.0</ele>
  <time>2026-08-28T17:56:19Z</time>
  <course>248.16</course>
  <speed>0.022360679774997897</speed>
  <fix>3d</fix>
</trkpt>
<trkpt lat="40.0713749" lon="-105.229789">
  <ele>1583.0</ele>
  <time>2026-08-28T17:56:19Z</time>
  <course>0.0</course>
  <speed>0.0</speed>
  <fix>3d</fix>
</trkpt>
<trkpt lat="40.0713749" lon="-105.229789">
  <ele>1583.0</ele>
  <time>2026-08-28T17:56:19Z</time>
  <course>248.16</course>
  <speed>0.022360679774997897</speed>
  <fix>3d</fix>
</trkpt>
<trkpt lat="40.0713749" lon="-105.229789">
  <ele>1583.0</ele>
  <time>2026-08-28T17:56:19Z</time>
  <course>0.0</course>
  <speed>0.0</speed>
  <fix>3d</fix>
</trkpt>
<trkpt lat="40.0713749" lon="-105.229789">
  <ele>1583.0</ele>
  <time>2026-08-28T17:56:19Z</time>
  <course>248.15</course>
  <speed>0.022360679774997897</speed>
  <fix>3d</fix>
</trkpt>
<trkpt lat="40.0713749" lon="-105.229789">
  <ele>1583.0</ele>
  <time>2026-08-28T17:56:19Z</time>
  <course>0.0</course>
  <speed>0.0</speed>
  <fix>3d</fix>
</trkpt>
<trkpt lat="40.0713749" lon="-105.229789">
  <ele>1583.0</ele>
  <time>2026-08-28T17:56:19Z</time>
  <course>248.15</course>
  <speed>0.022360679774997897</speed>
  <fix>3d</fix>
</trkpt>
<trkpt lat="40.0713749" lon="-105.229789">
  <ele>1583.0</ele>
  <time>2026-08-28T17:56:19Z</time>
  <course>0.0</course>
  <speed>0.0</speed>
  <fix>3d</fix>
</trkpt>
<trkpt lat="40.0713749" lon="-105.229789">
  <ele>1583.0</ele>
  <time>2026-08-28T17:56:19Z</time>
  <course>248.14</course>
  <speed>0.022360679774997897</speed>
  <fix>3d</fix>
</trkpt>
<trkpt lat="40.0713749" lon="-105.229789">
  <ele>1583.0</ele>
  <time>2026-08-28T17:56:19Z</time>
  <course>0.0</course>
  <speed>0.0</speed>
  <fix>3d</fix>
</trkpt>
<trkpt lat="40.0713749" lon="-105.229789">
  <ele>1583.0</ele>
  <time>2026-08-28T17:56:19Z</time>
  <course>248.14</course>
  <speed>0.022360679774997897</speed>
  <fix>3d</fix>
</trkpt>
<trkpt lat="40.0713749" lon="-105.229789">
  <ele>1583.0</ele>
  <time>2026-08-28T17:56:19Z</time>
  <course>0.0</course>
  <speed>0.0</speed>
  <fix>3d</fix>
</trkpt>
<trkpt lat="40.0713749" lon="-105.229789">
  <ele>1583.0</ele>
  <time>2026-08-28T17:56:19Z</time>
  <course>248.13</course>
  <speed>0.022360679774997897</speed>
  <fix>3d</fix>
</trkpt>
<trkpt lat="40.0713749" lon="-105.229789">
  <ele>1583.0</ele>
  <time>2026-08-28T17:56:19Z</time>
  <course>0.0</course>
  <speed>0.0</speed>
  <fix>3d</fix>
</trkpt>
<trkpt lat="40.0713749" lon="-105.229789">
  <ele>1583.0</ele>
  <time>2026-08-28T17:56:19Z</time>
  <course>248.13</course>
  <speed>0.022360679774997897</speed>
  <fix>3d</fix>
</trkpt>
<trkpt lat="40.0713749" lon="-105.229789">
  <ele>1583.0</ele>
  <time>2026-08-28T17:56:19Z</time>
  <course>0.0</course>
  <speed>0.0</speed>
  <fix>3d</fix>
</trkpt>
<trkpt lat="40.0713749" lon="-105.229789">
  <ele>1583.0</ele>
  <time>2026-08-28T17:56:19Z</time>
  <course>248.12</course>
  <speed>0.022360679774997897</speed>
  <fix>3d</fix>
</trkpt>
<trkpt lat="40.0713749" lon="-105.229789">
  <ele>1583.0</ele>
  <time>2026-08-28T17:56:19Z</time>
  <course>0.0</course>
  <speed>0.0</speed>
  <fix>3d</fix>
</trkpt>
<trkpt lat="40.0713749" lon="-105.229789">
  <ele>1583.0</ele>
  <time>2026-08-28T17:56:19Z</time>
  <course>248.12</course>
  <speed>0.022360679774997897</speed>
  <fix>3d</fix>
</trkpt>
<trkpt lat="40.0713749" lon="-105.229789">
  <ele>1583.0</ele>
  <time>2026-08-28T17:56:19Z</time>
  <course>0.0</course>
  <speed>0.0</speed>
  <fix>3d</fix>
</trkpt>
<trkpt lat="40.0713749" lon="-105.229789">
  <ele>1583.0</ele>
  <time>2026-08-28T17:56:19Z</time>
  <course>248.11</course>
  <speed>0.022360679774997897</speed>
  <fix>3d</fix>
</trkpt>
<trkpt lat="40.0713749" lon="-105.229789">
  <ele>1583.0</ele>
  <time>2026-08-28T17:56:19Z</time>
  <course>0.0</course>
  <speed>0.0</speed>
  <fix>3d</fix>
</trkpt>
<trkpt lat="40.0713749" lon="-105.229789">
  <ele>1583.0</ele>
  <time>2026-08-28T17:56:19Z</time>
  <course>248.11</course>
  <speed>0.022360679774997897</speed>
  <fix>3d</fix>
</trkpt>
<trkpt lat="40.0713749" lon="-105.229789">
  <ele>1583.0</ele>
  <time>2026-08-28T17:56:19Z</time>
  <course>0.0</course>
  <speed>0.0</speed>
  <fix>3d</fix>
</trkpt>
<trkpt lat="40.0713749" lon="-105.229789">
  <ele>1583.0</ele>
  <time>2026-08-28T17:56:19Z</time>
  <course>248.1</course>
  <speed>0.022360679774997897</speed>
  <fix>3d</fix>
</trkpt>
<trkpt lat="40.0713749" lon="-105.229789">
  <ele>1583.0</ele>
  <time>2026-08-28T17:56:19Z</time>
  <course>0.0</course>
  <speed>0.0</speed>
  <fix>3d</fix>
</trkpt>
<trkpt lat="40.0713749" lon="-105.229789">
  <ele>1583.0</ele>
  <time>2026-08-28T17:56:19Z</time>
  <course>248.1</course>
  <speed>0.022360679774997897</speed>
  <fix>3d</fix>
</trkpt>
<trkpt lat="40.0713749" lon="-105.229789">
  <ele>1583.0</ele>
  <time>2026-08-28T17:56:19Z</time>
  <course>0.0</course>
  <speed>0.0</speed>
  <fix>3d</fix>
</trkpt>
<trkpt lat="40.0713749" lon="-105.229789">
  <ele>1583.0</ele>
  <time>2026-08-28T17:56:19Z</time>
  <course>248.09</course>
  <speed>0.022360679774997897</speed>
  <fix>3d</fix>
</trkpt>
<trkpt lat="40.0713749" lon="-105.229789">
  <ele>1583.0</ele>
  <time>2026-08-28T17:56:19Z</time>
  <course>0.0</course>
  <speed>0.0</speed>
  <fix>3d</fix>
</trkpt>
<trkpt lat="40.0713749" lon="-105.229789">
  <ele>1583.0</ele>
  <time>2026-08-28T17:56:19Z</time>
  <course>248.09</course>
  <speed>0.022360679774997897</speed>
  <fix>3d</fix>
</trkpt>
<trkpt lat="40.0713749" lon="-105.229789">
  <ele>1583.0</ele>
  <time>2026-08-28T17:56:19Z</time>
  <course>0.0</course>
  <speed>0.0</speed>
  <fix>3d</fix>
</trkpt>
<trkpt lat="40.0713749" lon="-105.229789">
  <ele>1583.0</ele>
  <time>2026-08-28T17:56:19Z</time>
  <course>248.08</course>
  <speed>0.022360679774997897</speed>
  <fix>3d</fix>
</trkpt>
<trkpt lat="40.0713749" lon="-105.229789">
  <ele>1583.0</ele>
  <time>2026-08-28T17:56:19Z</time>
  <course>0.0</course>
  <speed>0.0</speed>
  <fix>3d</fix>
</trkpt>
<trkpt lat="40.0713749" lon="-105.229789">
  <ele>1583.0</ele>
  <time>2026-08-28T17:56:19Z</time>
  <course>248.08</course>
  <speed>0.022360679774997897</speed>
  <fix>3d</fix>
</trkpt>
<trkpt lat="40.0713749" lon="-105.229789">
  <ele>1583.0</ele>
  <time>2026-08-28T17:56:19Z</time>
  <course>0.0</course>
  <speed>0.0</speed>
  <fix>3d</fix>
</trkpt>
<trkpt lat="40.0713749" lon="-105.229789">
  <ele>1583.0</ele>
  <time>2026-08-28T17:56:19Z</time>
  <course>248.07</course>
  <speed>0.022360679774997897</speed>
  <fix>3d</fix>
</trkpt>
<trkpt lat="40.0713749" lon="-105.229789">
  <ele>1583.0</ele>
  <time>2026-08-28T17:56:19Z</time>
  <course>0.0</course>
  <speed>0.0</speed>
  <fix>3d</fix>
</trkpt>
<trkpt lat="40.0713749" lon="-105.229789">
  <ele>1583.0</ele>
  <time>2026-08-28T17:56:19Z</time>
  <course>248.07</course>
  <speed>0.022360679774997897</speed>
  <fix>3d</fix>
</trkpt>
<trkpt lat="40.0713749" lon="-105.229789">
  <ele>1583.0</ele>
  <time>2026-08-28T17:56:19Z</time>
  <course>0.0</course>
  <speed>0.0</speed>
  <fix>3d</fix>
</trkpt>
<trkpt lat="40.0713749" lon="-105.229789">
  <ele>1583.0</ele>
  <time>2026-08-28T17:56:19Z</time>
  <course>248.06</course>
  <speed>0.022360679774997897</speed>
  <fix>3d</fix>
</trkpt>
<trkpt lat="40.0713749" lon="-105.229789">
  <ele>1583.0</ele>
  <time>2026-08-28T17:56:19Z</time>
  <course>0.0</course>
  <speed>0.0</speed>
  <fix>3d</fix>
</trkpt>
<trkpt lat="40.0713749" lon="-105.229789">
  <ele>1583.0</ele>
  <time>2026-08-28T17:56:19Z</time>
  <course>248.06</course>
  <speed>0.022360679774997897</speed>
  <fix>3d</fix>
</trkpt>
<trkpt lat="40.0713749" lon="-105.229789">
  <ele>1583.0</ele>
  <time>2026-08-28T17:56:19Z</time>
  <course>0.0</course>
  <speed>0.0</speed>
  <fix>3d</fix>
</trkpt>
<trkpt lat="40.0713749" lon="-105.229789">
  <ele>1583.0</ele>
  <time>2026-08-28T17:56:19Z</time>
  <course>248.05</course>
  <speed>0.022360679774997897</speed>
  <fix>3d</fix>
</trkpt>
<trkpt lat="40.0713749" lon="-105.229789">
  <ele>1583.0</ele>
  <time>2026-08-28T17:56:19Z</time>
  <course>0.0</course>
  <speed>0.0</speed>
  <fix>3d</fix>
</trkpt>
<trkpt lat="40.0713749" lon="-105.229789">
  <ele>1583.0</ele>
  <time>2026-08-28T17:56:19Z</time>
  <course>248.05</course>
  <speed>0.022360679774997897</speed>
  <fix>3d</fix>
</trkpt>
<trkpt lat="40.0713749" lon="-105.229789">
  <ele>1583.0</ele>
  <time>2026-08-28T17:56:19Z</time>
  <course>0.0</course>
  <speed>0.0</speed>
  <fix>3d</fix>
</trkpt>
<trkpt lat="40.0713749" lon="-105.229789">
  <ele>1583.0</ele>
  <time>2026-08-28T17:56:19Z</time>
  <course>248.05</course>
  <speed>0.022360679774997897</speed>
  <fix>3d</fix>
</trkpt>
<trkpt lat="40.0713749" lon="-105.229789">
  <ele>1583.0</ele>
  <time>2026-08-28T17:56:19Z</time>
  <course>0.0</course>
  <speed>0.0</speed>
  <fix>3d</fix>
</trkpt>
<trkpt lat="40.0713749" lon="-105.229789">
  <ele>1583.0</ele>
  <time>2026-08-28T17:56:19Z</time>
  <course>248.04</course>
  <speed>0.022360679774997897</speed>
  <fix>3d</fix>
</trkpt>
<trkpt lat="40.0713749" lon="-105.229789">
  <ele>1583.0</ele>
  <time>2026-08-28T17:56:19Z</time>
  <course>0.0</course>
  <speed>0.0</speed>
  <fix>3d</fix>
</trkpt>
<trkpt lat="40.0713749" lon="-105.229789">
  <ele>1583.0</ele>
  <time>2026-08-28T17:56:19Z</time>
  <course>248.04</course>
  <speed>0.022360679774997897</speed>
  <fix>3d</fix>
</trkpt>
<trkpt lat="40.0713749" lon="-105.229789">
  <ele>1583.0</ele>
  <time>2026-08-28T17:56:19Z</time>
  <course>0.0</course>
  <speed>0.0</speed>
  <fix>3d</fix>
</trkpt>
<trkpt lat="40.0713749" lon="-105.229789">
  <ele>1583.0</ele>
  <time>2026-08-28T17:56:19Z</time>
  <course>248.03</course>
  <speed>0.022360679774997897</speed>
  <fix>3d</fix>
</trkpt>
<trkpt lat="40.0713749" lon="-105.229789">
  <ele>1583.0</ele>
  <time>2026-08-28T17:56:19Z</time>
  <course>0.0</course>
  <speed>0.0</speed>
  <fix>3d</fix>
</trkpt>
<trkpt lat="40.0713749" lon="-105.229789">
  <ele>1583.0</ele>
  <time>2026-08-28T17:56:19Z</time>
  <course>248.03</course>
  <speed>0.022360679774997897</speed>
  <fix>3d</fix>
</trkpt>
<trkpt lat="40.0713749" lon="-105.229789">
  <ele>1583.0</ele>
  <time>2026-08-28T17:56:19Z</time>
  <course>0.0</course>
  <speed>0.0</speed>
  <fix>3d</fix>
</trkpt>
<trkpt lat="40.0713749" lon="-105.229789">
  <ele>1583.0</ele>
  <time>2026-08-28T17:56:19Z</time>
  <course>248.02</course>
  <speed>0.022360679774997897</speed>
  <fix>3d</fix>
</trkpt>
<trkpt lat="40.0713749" lon="-105.229789">
  <ele>1583.0</ele>
  <time>2026-08-28T17:56:19Z</time>
  <course>0.0</course>
  <speed>0.0</speed>
  <fix>3d</fix>
</trkpt>
<trkpt lat="40.0713749" lon="-105.229789">
  <ele>1583.0</ele>
  <time>2026-08-28T17:56:19Z</time>
  <course>248.02</course>
  <speed>0.022360679774997897</speed>
  <fix>3d</fix>
</trkpt>
<trkpt lat="40.0713749" lon="-105.229789">
  <ele>1583.0</ele>
  <time>2026-08-28T17:56:19Z</time>
  <course>0.0</course>
  <speed>0.0</speed>
  <fix>3d</fix>
</trkpt>
<trkpt lat="40.0713749" lon="-105.229789">
  <ele>1583.0</ele>
  <time>2026-08-28T17:56:19Z</time>
  <course>248.01</course>
  <speed>0.022360679774997897</speed>
  <fix>3d</fix>
</trkpt>
<trkpt lat="40.0713749" lon="-105.229789">
  <ele>1583.0</ele>
  <time>2026-08-28T17:56:19Z</time>
  <course>0.0</course>
  <speed>0.0</speed>
  <fix>3d</fix>
</trkpt>
<trkpt lat="40.0713749" lon="-105.229789">
  <ele>1583.0</ele>
  <time>2026-08-28T17:56:19Z</time>
  <course>248.01</course>
  <speed>0.022360679774997897</speed>
  <fix>3d</fix>
</trkpt>
<trkpt lat="40.0713749" lon="-105.229789">
  <ele>1583.0</ele>
  <time>2026-08-28T17:56:19Z</time>
  <course>0.0</course>
  <speed>0.0</speed>
  <fix>3d</fix>
</trkpt>
<trkpt lat="40.0713749" lon="-105.229789">
  <ele>1583.0</ele>
  <time>2026-08-28T17:56:19Z</time>
  <course>248.0</course>
  <speed>0.022360679774997897</speed>
  <fix>3d</fix>
</trkpt>
<trkpt lat="40.0713749" lon="-105.229789">
  <ele>1583.0</ele>
  <time>2026-08-28T17:56:19Z</time>
  <course>0.0</course>
  <speed>0.0</speed>
  <fix>3d</fix>
</trkpt>
<trkpt lat="40.0713749" lon="-105.229789">
  <ele>1583.0</ele>
  <time>2026-08-28T17:56:19Z</time>
  <course>248.0</course>
  <speed>0.022360679774997897</speed>
  <fix>3d</fix>
</trkpt>
<trkpt lat="40.0713749" lon="-105.229789">
  <ele>1583.0</ele>
  <time>2026-08-28T17:56:19Z</time>
  <course>0.0</course>
  <speed>0.0</speed>
  <fix>3d</fix>
</trkpt>
<trkpt lat="40.0713749" lon="-105.229789">
  <ele>1583.0</ele>
  <time>2026-08-28T17:56:19Z</time>
  <course>247.99</course>
  <speed>0.022360679774997897</speed>
  <fix>3d</fix>
</trkpt>
<trkpt lat="40.0713749" lon="-105.229789">
  <ele>1583.0</ele>
  <time>2026-08-28T17:56:19Z</time>
  <course>0.0</course>
  <speed>0.0</speed>
  <fix>3d</fix>
</trkpt>
<trkpt lat="40.0713749" lon="-105.229789">
  <ele>1583.0</ele>
  <time>2026-08-28T17:56:19Z</time>
  <course>247.99</course>
  <speed>0.022360679774997897</speed>
  <fix>3d</fix>
</trkpt>
<trkpt lat="40.0713749" lon="-105.229789">
  <ele>1583.0</ele>
  <time>2026-08-28T17:56:19Z</time>
  <course>0.0</course>
  <speed>0.0</speed>
  <fix>3d</fix>
</trkpt>
<trkpt lat="40.0713749" lon="-105.229789">
  <ele>1583.0</ele>
  <time>2026-08-28T17:56:19Z</time>
  <course>247.99</course>
  <speed>0.022360679774997897</speed>
  <fix>3d</fix>
</trkpt>
<trkpt lat="40.0713749" lon="-105.229789">
  <ele>1583.0</ele>
  <time>2026-08-28T17:56:19Z</time>
  <course>0.0</course>
  <speed>0.0</speed>
  <fix>3d</fix>
</trkpt>
<trkpt lat="40.0713749" lon="-105.229789">
  <ele>1583.0</ele>
  <time>2026-08-28T17:56:19Z</time>
  <course>247.98</course>
  <speed>0.022360679774997897</speed>
  <fix>3d</fix>
</trkpt>
<trkpt lat="40.0713749" lon="-105.229789">
  <ele>1583.0</ele>
  <time>2026-08-28T17:56:19Z</time>
  <course>0.0</course>
  <speed>0.0</speed>
  <fix>3d</fix>
</trkpt>
<trkpt lat="40.0713749" lon="-105.229789">
  <ele>1583.0</ele>
  <time>2026-08-28T17:56:19Z</time>
  <course>247.98</course>
  <speed>0.022360679774997897</speed>
  <fix>3d</fix>
</trkpt>
<trkpt lat="40.0713749" lon="-105.229789">
  <ele>1583.0</ele>
  <time>2026-08-28T17:56:19Z</time>
  <course>0.0</course>
  <speed>0.0</speed>
  <fix>3d</fix>
</trkpt>
<trkpt lat="40.0713749" lon="-105.229789">
  <ele>1583.0</ele>
  <time>2026-08-28T17:56:19Z</time>
  <course>247.97</course>
  <speed>0.022360679774997897</speed>
  <fix>3d</fix>
</trkpt>
<trkpt lat="40.0713749" lon="-105.229789">
  <ele>1583.0</ele>
  <time>2026-08-28T17:56:19Z</time>
  <course>0.0</course>
  <speed>0.0</speed>
  <fix>3d</fix>
</trkpt>
<trkpt lat="40.0713749" lon="-105.229789">
  <ele>1583.0</ele>
  <time>2026-08-28T17:56:19Z</time>
  <course>247.97</course>
  <speed>0.022360679774997897</speed>
  <fix>3d</fix>
</trkpt>
<trkpt lat="40.0713749" lon="-105.229789">
  <ele>1583.0</ele>
  <time>2026-08-28T17:56:19Z</time>
  <course>0.0</course>
  <speed>0.0</speed>
  <fix>3d</fix>
</trkpt>
<trkpt lat="40.0713749" lon="-105.229789">
  <ele>1583.0</ele>
  <time>2026-08-28T17:56:19Z</time>
  <course>247.96</course>
  <speed>0.022360679774997897</speed>
  <fix>3d</fix>
</trkpt>
<trkpt lat="40.0713749" lon="-105.229789">
  <ele>1583.0</ele>
  <time>2026-08-28T17:56:19Z</time>
  <course>0.0</course>
  <speed>0.0</speed>
  <fix>3d</fix>
</trkpt>
<trkpt lat="40.0713749" lon="-105.229789">
  <ele>1583.0</ele>
  <time>2026-08-28T17:56:19Z</time>
  <course>247.96</course>
  <speed>0.022360679774997897</speed>
  <fix>3d</fix>
</trkpt>
<trkpt lat="40.0713749" lon="-105.229789">
  <ele>1583.0</ele>
  <time>2026-08-28T17:56:19Z</time>
  <course>0.0</course>
  <speed>0.0</speed>
  <fix>3d</fix>
</trkpt>
<trkpt lat="40.0713749" lon="-105.229789">
  <ele>1583.0</ele>
  <time>2026-08-28T17:56:19Z</time>
  <course>247.95</course>
  <speed>0.022360679774997897</speed>
  <fix>3d</fix>
</trkpt>
<trkpt lat="40.0713749" lon="-105.229789">
  <ele>1583.0</ele>
  <time>2026-08-28T17:56:19Z</time>
  <course>0.0</course>
  <speed>0.0</speed>
  <fix>3d</fix>
</trkpt>
<trkpt lat="40.0713749" lon="-105.229789">
  <ele>1583.0</ele>
  <time>2026-08-28T17:56:19Z</time>
  <course>247.95</course>
  <speed>0.022360679774997897</speed>
  <fix>3d</fix>
</trkpt>
<trkpt lat="40.0713749" lon="-105.229789">
  <ele>1583.0</ele>
  <time>2026-08-28T17:56:19Z</time>
  <course>0.0</course>
  <speed>0.0</speed>
  <fix>3d</fix>
</trkpt>
<trkpt lat="40.0713749" lon="-105.229789">
  <ele>1583.0</ele>
  <time>2026-08-28T17:56:19Z</time>
  <course>247.95</course>
  <speed>0.022360679774997897</speed>
  <fix>3d</fix>
</trkpt>
<trkpt lat="40.0713749" lon="-105.229789">
  <ele>1583.0</ele>
  <time>2026-08-28T17:56:19Z</time>
  <course>0.0</course>
  <speed>0.0</speed>
  <fix>3d</fix>
</trkpt>
<trkpt lat="40.0713749" lon="-105.229789">
  <ele>1583.0</ele>
  <time>2026-08-28T17:56:19Z</time>
  <course>247.94</course>
  <speed>0.022360679774997897</speed>
  <fix>3d</fix>
</trkpt>
<trkpt lat="40.0713749" lon="-105.229789">
  <ele>1583.0</ele>
  <time>2026-08-28T17:56:19Z</time>
  <course>0.0</course>
  <speed>0.0</speed>
  <fix>3d</fix>
</trkpt>
<trkpt lat="40.0713749" lon="-105.229789">
  <ele>1583.0</ele>
  <time>2026-08-28T17:56:19Z</time>
  <course>247.94</course>
  <speed>0.022360679774997897</speed>
  <fix>3d</fix>
</trkpt>
<trkpt lat="40.0713749" lon="-105.229789">
  <ele>1583.0</ele>
  <time>2026-08-28T17:56:19Z</time>
  <course>0.0</course>
  <speed>0.0</speed>
  <fix>3d</fix>
</trkpt>
<trkpt lat="40.0713749" lon="-105.229789">
  <ele>1583.0</ele>
  <time>2026-08-28T17:56:19Z</time>
  <course>247.93</course>
  <speed>0.022360679774997897</speed>
  <fix>3d</fix>
</trkpt>
<trkpt lat="40.0713749" lon="-105.229789">
  <ele>1583.0</ele>
  <time>2026-08-28T17:56:19Z</time>
  <course>0.0</course>
  <speed>0.0</speed>
  <fix>3d</fix>
</trkpt>
<trkpt lat="40.0713749" lon="-105.229789">
  <ele>1583.0</ele>
  <time>2026-08-28T17:56:19Z</time>
  <course>247.93</course>
  <speed>0.022360679774997897</speed>
  <fix>3d</fix>
</trkpt>
<trkpt lat="40.0713749" lon="-105.229789">
  <ele>1583.0</ele>
  <time>2026-08-28T17:56:19Z</time>
  <course>0.0</course>
  <speed>0.0</speed>
  <fix>3d</fix>
</trkpt>
<trkpt lat="40.0713749" lon="-105.229789">
  <ele>1583.0</ele>
  <time>2026-08-28T17:56:19Z</time>
  <course>247.92</course>
  <speed>0.022360679774997897</speed>
  <fix>3d</fix>
</trkpt>
<trkpt lat="40.0713749" lon="-105.229789">
  <ele>1583.0</ele>
  <time>2026-08-28T17:56:19Z</time>
  <course>0.0</course>
  <speed>0.0</speed>
  <fix>3d</fix>
</trkpt>
<trkpt lat="40.0713749" lon="-105.229789">
  <ele>1583.0</ele>
  <time>2026-08-28T17:56:19Z</time>
  <course>247.92</course>
  <speed>0.022360679774997897</speed>
  <fix>3d</fix>
</trkpt>
<trkpt lat="40.0713749" lon="-105.229789">
  <ele>1583.0</ele>
  <time>2026-08-28T17:56:19Z</time>
  <course>0.0</course>
  <speed>0.0</speed>
  <fix>3d</fix>
</trkpt>
<trkpt lat="40.0713749" lon="-105.229789">
  <ele>1583.0</ele>
  <time>2026-08-28T17:56:19Z</time>
  <course>247.92</course>
  <speed>0.022360679774997897</speed>
  <fix>3d</fix>
</trkpt>
<trkpt lat="40.0713749" lon="-105.229789">
  <ele>1583.0</ele>
  <time>2026-08-28T17:56:19Z</time>
  <course>0.0</course>
  <speed>0.0</speed>
  <fix>3d</fix>
</trkpt>
<trkpt lat="40.0713749" lon="-105.229789">
  <ele>1583.0</ele>
  <time>2026-08-28T17:56:19Z</time>
  <course>247.91</course>
  <speed>0.022360679774997897</speed>
  <fix>3d</fix>
</trkpt>
<trkpt lat="40.0713749" lon="-105.229789">
  <ele>1583.0</ele>
  <time>2026-08-28T17:56:19Z</time>
  <course>0.0</course>
  <speed>0.0</speed>
  <fix>3d</fix>
</trkpt>
<trkpt lat="40.0713749" lon="-105.229789">
  <ele>1583.0</ele>
  <time>2026-08-28T17:56:19Z</time>
  <course>247.91</course>
  <speed>0.022360679774997897</speed>
  <fix>3d</fix>
</trkpt>
<trkpt lat="40.0713749" lon="-105.229789">
  <ele>1583.0</ele>
  <time>2026-08-28T17:56:19Z</time>
  <course>0.0</course>
  <speed>0.0</speed>
  <fix>3d</fix>
</trkpt>
<trkpt lat="40.0713749" lon="-105.229789">
  <ele>1583.0</ele>
  <time>2026-08-28T17:56:19Z</time>
  <course>247.9</course>
  <speed>0.022360679774997897</speed>
  <fix>3d</fix>
</trkpt>
<trkpt lat="40.0713749" lon="-105.229789">
  <ele>1583.0</ele>
  <time>2026-08-28T17:56:19Z</time>
  <course>0.0</course>
  <speed>0.0</speed>
  <fix>3d</fix>
</trkpt>
<trkpt lat="40.0713749" lon="-105.229789">
  <ele>1583.0</ele>
  <time>2026-08-28T17:56:19Z</time>
  <course>247.9</course>
  <speed>0.022360679774997897</speed>
  <fix>3d</fix>
</trkpt>
<trkpt lat="40.0713749" lon="-105.229789">
  <ele>1583.0</ele>
  <time>2026-08-28T17:56:19Z</time>
  <course>0.0</course>
  <speed>0.0</speed>
  <fix>3d</fix>
</trkpt>
<trkpt lat="40.0713749" lon="-105.229789">
  <ele>1583.0</ele>
  <time>2026-08-28T17:56:19Z</time>
  <course>247.89</course>
  <speed>0.022360679774997897</speed>
  <fix>3d</fix>
</trkpt>
<trkpt lat="40.0713749" lon="-105.229789">
  <ele>1583.0</ele>
  <time>2026-08-28T17:56:19Z</time>
  <course>0.0</course>
  <speed>0.0</speed>
  <fix>3d</fix>
</trkpt>
<trkpt lat="40.0713749" lon="-105.229789">
  <ele>1583.0</ele>
  <time>2026-08-28T17:56:19Z</time>
  <course>247.89</course>
  <speed>0.022360679774997897</speed>
  <fix>3d</fix>
</trkpt>
<trkpt lat="40.0713749" lon="-105.229789">
  <ele>1583.0</ele>
  <time>2026-08-28T17:56:19Z</time>
  <course>0.0</course>
  <speed>0.0</speed>
  <fix>3d</fix>
</trkpt>
<trkpt lat="40.0713749" lon="-105.229789">
  <ele>1583.0</ele>
  <time>2026-08-28T17:56:19Z</time>
  <course>247.89</course>
  <speed>0.022360679774997897</speed>
  <fix>3d</fix>
</trkpt>
<trkpt lat="40.0713749" lon="-105.229789">
  <ele>1583.0</ele>
  <time>2026-08-28T17:56:19Z</time>
  <course>0.0</course>
  <speed>0.0</speed>
  <fix>3d</fix>
</trkpt>
<trkpt lat="40.0713749" lon="-105.229789">
  <ele>1583.0</ele>
  <time>2026-08-28T17:56:19Z</time>
  <course>247.88</course>
  <speed>0.0316227766016838</speed>
  <fix>3d</fix>
</trkpt>
<trkpt lat="40.0713749" lon="-105.229789">
  <ele>1583.0</ele>
  <time>2026-08-28T17:56:19Z</time>
  <course>0.0</course>
  <speed>0.0</speed>
  <fix>3d</fix>
</trkpt>
<trkpt lat="40.0713749" lon="-105.229789">
  <ele>1583.0</ele>
  <time>2026-08-28T17:56:19Z</time>
  <course>247.88</course>
  <speed>0.0316227766016838</speed>
  <fix>3d</fix>
</trkpt>
<trkpt lat="40.0713749" lon="-105.229789">
  <ele>1583.0</ele>
  <time>2026-08-28T17:56:19Z</time>
  <course>0.0</course>
  <speed>0.0</speed>
  <fix>3d</fix>
</trkpt>
<trkpt lat="40.0713749" lon="-105.229789">
  <ele>1583.0</ele>
  <time>2026-08-28T17:56:19Z</time>
  <course>247.87</course>
  <speed>0.0316227766016838</speed>
  <fix>3d</fix>
</trkpt>
<trkpt lat="40.0713749" lon="-105.229789">
  <ele>1583.0</ele>
  <time>2026-08-28T17:56:19Z</time>
  <course>0.0</course>
  <speed>0.0</speed>
  <fix>3d</fix>
</trkpt>
<trkpt lat="40.0713749" lon="-105.229789">
  <ele>1583.0</ele>
  <time>2026-08-28T17:56:19Z</time>
  <course>247.87</course>
  <speed>0.0316227766016838</speed>
  <fix>3d</fix>
</trkpt>
<trkpt lat="40.0713749" lon="-105.229789">
  <ele>1583.0</ele>
  <time>2026-08-28T17:56:19Z</time>
  <course>0.0</course>
  <speed>0.0</speed>
  <fix>3d</fix>
</trkpt>
<trkpt lat="40.0713749" lon="-105.229789">
  <ele>1583.0</ele>
  <time>2026-08-28T17:56:19Z</time>
  <course>247.87</course>
  <speed>0.0316227766016838</speed>
  <fix>3d</fix>
</trkpt>
<trkpt lat="40.0713749" lon="-105.229789">
  <ele>1583.0</ele>
  <time>2026-08-28T17:56:19Z</time>
  <course>0.0</course>
  <speed>0.0</speed>
  <fix>3d</fix>
</trkpt>
<trkpt lat="40.0713749" lon="-105.229789">
  <ele>1583.0</ele>
  <time>2026-08-28T17:56:19Z</time>
  <course>247.86</course>
  <speed>0.0316227766016838</speed>
  <fix>3d</fix>
</trkpt>
<trkpt lat="40.0713749" lon="-105.229789">
  <ele>1583.0</ele>
  <time>2026-08-28T17:56:19Z</time>
  <course>0.0</course>
  <speed>0.0</speed>
  <fix>3d</fix>
</trkpt>
<trkpt lat="40.0713749" lon="-105.229789">
  <ele>1583.0</ele>
  <time>2026-08-28T17:56:19Z</time>
  <course>247.86</course>
  <speed>0.0316227766016838</speed>
  <fix>3d</fix>
</trkpt>
<trkpt lat="40.0713749" lon="-105.229789">
  <ele>1583.0</ele>
  <time>2026-08-28T17:56:19Z</time>
  <course>0.0</course>
  <speed>0.0</speed>
  <fix>3d</fix>
</trkpt>
<trkpt lat="40.0713749" lon="-105.229789">
  <ele>1583.0</ele>
  <time>2026-08-28T17:56:19Z</time>
  <course>247.85</course>
  <speed>0.0316227766016838</speed>
  <fix>3d</fix>
</trkpt>
<trkpt lat="40.0713749" lon="-105.229789">
  <ele>1583.0</ele>
  <time>2026-08-28T17:56:19Z</time>
  <course>0.0</course>
  <speed>0.0</speed>
  <fix>3d</fix>
</trkpt>
<trkpt lat="40.0713749" lon="-105.229789">
  <ele>1583.0</ele>
  <time>2026-08-28T17:56:19Z</time>
  <course>247.85</course>
  <speed>0.0316227766016838</speed>
  <fix>3d</fix>
</trkpt>
<trkpt lat="40.0713749" lon="-105.229789">
  <ele>1583.0</ele>
  <time>2026-08-28T17:56:19Z</time>
  <course>0.0</course>
  <speed>0.0</speed>
  <fix>3d</fix>
</trkpt>
<trkpt lat="40.0713749" lon="-105.229789">
  <ele>1583.0</ele>
  <time>2026-08-28T17:56:19Z</time>
  <course>247.85</course>
  <speed>0.0316227766016838</speed>
  <fix>3d</fix>
</trkpt>
<trkpt lat="40.0713749" lon="-105.229789">
  <ele>1583.0</ele>
  <time>2026-08-28T17:56:19Z</time>
  <course>0.0</course>
  <speed>0.0</speed>
  <fix>3d</fix>
</trkpt>
<trkpt lat="40.0713749" lon="-105.229789">
  <ele>1583.0</ele>
  <time>2026-08-28T17:56:19Z</time>
  <course>247.84</course>
  <speed>0.0316227766016838</speed>
  <fix>3d</fix>
</trkpt>
<trkpt lat="40.0713749" lon="-105.229789">
  <ele>1583.0</ele>
  <time>2026-08-28T17:56:19Z</time>
  <course>0.0</course>
  <speed>0.0</speed>
  <fix>3d</fix>
</trkpt>
<trkpt lat="40.0713749" lon="-105.229789">
  <ele>1583.0</ele>
  <time>2026-08-28T17:56:19Z</time>
  <course>247.84</course>
  <speed>0.0316227766016838</speed>
  <fix>3d</fix>
</trkpt>
<trkpt lat="40.0713749" lon="-105.229789">
  <ele>1583.0</ele>
  <time>2026-08-28T17:56:19Z</time>
  <course>0.0</course>
  <speed>0.0</speed>
  <fix>3d</fix>
</trkpt>
<trkpt lat="40.0713749" lon="-105.229789">
  <ele>1583.0</ele>
  <time>2026-08-28T17:56:19Z</time>
  <course>247.83</course>
  <speed>0.0316227766016838</speed>
  <fix>3d</fix>
</trkpt>
<trkpt lat="40.0713749" lon="-105.229789">
  <ele>1583.0</ele>
  <time>2026-08-28T17:56:19Z</time>
  <course>0.0</course>
  <speed>0.0</speed>
  <fix>3d</fix>
</trkpt>
<trkpt lat="40.0713749" lon="-105.229789">
  <ele>1583.0</ele>
  <time>2026-08-28T17:56:19Z</time>
  <course>247.83</course>
  <speed>0.0316227766016838</speed>
  <fix>3d</fix>
</trkpt>
<trkpt lat="40.0713749" lon="-105.229789">
  <ele>1583.0</ele>
  <time>2026-08-28T17:56:19Z</time>
  <course>0.0</course>
  <speed>0.0</speed>
  <fix>3d</fix>
</trkpt>
<trkpt lat="40.0713749" lon="-105.229789">
  <ele>1583.0</ele>
  <time>2026-08-28T17:56:19Z</time>
  <course>247.83</course>
  <speed>0.0316227766016838</speed>
  <fix>3d</fix>
</trkpt>
<trkpt lat="40.0713749" lon="-105.229789">
  <ele>1583.0</ele>
  <time>2026-08-28T17:56:19Z</time>
  <course>0.0</course>
  <speed>0.0</speed>
  <fix>3d</fix>
</trkpt>
<trkpt lat="40.0713749" lon="-105.229789">
  <ele>1583.0</ele>
  <time>2026-08-28T17:56:19Z</time>
  <course>247.82</course>
  <speed>0.0316227766016838</speed>
  <fix>3d</fix>
</trkpt>
<trkpt lat="40.0713749" lon="-105.229789">
  <ele>1583.0</ele>
  <time>2026-08-28T17:56:19Z</time>
  <course>0.0</course>
  <speed>0.0</speed>
  <fix>3d</fix>
</trkpt>
<trkpt lat="40.0713749" lon="-105.229789">
  <ele>1583.0</ele>
  <time>2026-08-28T17:56:19Z</time>
  <course>247.82</course>
  <speed>0.0316227766016838</speed>
  <fix>3d</fix>
</trkpt>
<trkpt lat="40.0713749" lon="-105.229789">
  <ele>1583.0</ele>
  <time>2026-08-28T17:56:19Z</time>
  <course>0.0</course>
  <speed>0.0</speed>
  <fix>3d</fix>
</trkpt>
<trkpt lat="40.0713749" lon="-105.229789">
  <ele>1583.0</ele>
  <time>2026-08-28T17:56:19Z</time>
  <course>247.82</course>
  <speed>0.0316227766016838</speed>
  <fix>3d</fix>
</trkpt>
<trkpt lat="40.0713749" lon="-105.229789">
  <ele>1583.0</ele>
  <time>2026-08-28T17:56:19Z</time>
  <course>0.0</course>
  <speed>0.0</speed>
  <fix>3d</fix>
</trkpt>
<trkpt lat="40.0713749" lon="-105.229789">
  <ele>1583.0</ele>
  <time>2026-08-28T17:56:19Z</time>
  <course>247.81</course>
  <speed>0.0316227766016838</speed>
  <fix>3d</fix>
</trkpt>
<trkpt lat="40.0713749" lon="-105.229789">
  <ele>1583.0</ele>
  <time>2026-08-28T17:56:19Z</time>
  <course>0.0</course>
  <speed>0.0</speed>
  <fix>3d</fix>
</trkpt>
<trkpt lat="40.0713749" lon="-105.229789">
  <ele>1583.0</ele>
  <time>2026-08-28T17:56:19Z</time>
  <course>247.81</course>
  <speed>0.0316227766016838</speed>
  <fix>3d</fix>
</trkpt>
<trkpt lat="40.0713749" lon="-105.229789">
  <ele>1583.0</ele>
  <time>2026-08-28T17:56:19Z</time>
  <course>0.0</course>
  <speed>0.0</speed>
  <fix>3d</fix>
</trkpt>
<trkpt lat="40.0713749" lon="-105.229789">
  <ele>1583.0</ele>
  <time>2026-08-28T17:56:19Z</time>
  <course>247.8</course>
  <speed>0.0316227766016838</speed>
  <fix>3d</fix>
</trkpt>
<trkpt lat="40.0713749" lon="-105.229789">
  <ele>1583.0</ele>
  <time>2026-08-28T17:56:19Z</time>
  <course>0.0</course>
  <speed>0.0</speed>
  <fix>3d</fix>
</trkpt>
<trkpt lat="40.0713749" lon="-105.229789">
  <ele>1583.0</ele>
  <time>2026-08-28T17:56:19Z</time>
  <course>247.8</course>
  <speed>0.0316227766016838</speed>
  <fix>3d</fix>
</trkpt>
<trkpt lat="40.0713749" lon="-105.229789">
  <ele>1583.0</ele>
  <time>2026-08-28T17:56:19Z</time>
  <course>0.0</course>
  <speed>0.0</speed>
  <fix>3d</fix>
</trkpt>
<trkpt lat="40.0713749" lon="-105.229789">
  <ele>1583.0</ele>
  <time>2026-08-28T17:56:19Z</time>
  <course>247.8</course>
  <speed>0.0316227766016838</speed>
  <fix>3d</fix>
</trkpt>
<trkpt lat="40.0713749" lon="-105.229789">
  <ele>1583.0</ele>
  <time>2026-08-28T17:56:19Z</time>
  <course>0.0</course>
  <speed>0.0</speed>
  <fix>3d</fix>
</trkpt>
<trkpt lat="40.0713749" lon="-105.229789">
  <ele>1583.0</ele>
  <time>2026-08-28T17:56:19Z</time>
  <course>247.79</course>
  <speed>0.0316227766016838</speed>
  <fix>3d</fix>
</trkpt>
<trkpt lat="40.0713749" lon="-105.229789">
  <ele>1583.0</ele>
  <time>2026-08-28T17:56:19Z</time>
  <course>0.0</course>
  <speed>0.0</speed>
  <fix>3d</fix>
</trkpt>
<trkpt lat="40.0713749" lon="-105.229789">
  <ele>1583.0</ele>
  <time>2026-08-28T17:56:19Z</time>
  <course>247.79</course>
  <speed>0.0316227766016838</speed>
  <fix>3d</fix>
</trkpt>
<trkpt lat="40.0713749" lon="-105.229789">
  <ele>1583.0</ele>
  <time>2026-08-28T17:56:19Z</time>
  <course>0.0</course>
  <speed>0.0</speed>
  <fix>3d</fix>
</trkpt>
<trkpt lat="40.0713749" lon="-105.229789">
  <ele>1583.0</ele>
  <time>2026-08-28T17:56:19Z</time>
  <course>247.79</course>
  <speed>0.0316227766016838</speed>
  <fix>3d</fix>
</trkpt>
<trkpt lat="40.0713749" lon="-105.229789">
  <ele>1583.0</ele>
  <time>2026-08-28T17:56:19Z</time>
  <course>0.0</course>
  <speed>0.0</speed>
  <fix>3d</fix>
</trkpt>
<trkpt lat="40.0713749" lon="-105.229789">
  <ele>1583.0</ele>
  <time>2026-08-28T17:56:19Z</time>
  <course>247.78</course>
  <speed>0.0316227766016838</speed>
  <fix>3d</fix>
</trkpt>
<trkpt lat="40.0713749" lon="-105.229789">
  <ele>1583.0</ele>
  <time>2026-08-28T17:56:19Z</time>
  <course>0.0</course>
  <speed>0.0</speed>
  <fix>3d</fix>
</trkpt>
<trkpt lat="40.0713749" lon="-105.229789">
  <ele>1583.0</ele>
  <time>2026-08-28T17:56:19Z</time>
  <course>247.78</course>
  <speed>0.0316227766016838</speed>
  <fix>3d</fix>
</trkpt>
<trkpt lat="40.0713749" lon="-105.229789">
  <ele>1583.0</ele>
  <time>2026-08-28T17:56:19Z</time>
  <course>0.0</course>
  <speed>0.0</speed>
  <fix>3d</fix>
</trkpt>
<trkpt lat="40.0713749" lon="-105.229789">
  <ele>1583.0</ele>
  <time>2026-08-28T17:56:19Z</time>
  <course>247.78</course>
  <speed>0.0316227766016838</speed>
  <fix>3d</fix>
</trkpt>
<trkpt lat="40.0713749" lon="-105.229789">
  <ele>1583.0</ele>
  <time>2026-08-28T17:56:19Z</time>
  <course>0.0</course>
  <speed>0.0</speed>
  <fix>3d</fix>
</trkpt>
<trkpt lat="40.0713749" lon="-105.229789">
  <ele>1583.0</ele>
  <time>2026-08-28T17:56:19Z</time>
  <course>247.77</course>
  <speed>0.0316227766016838</speed>
  <fix>3d</fix>
</trkpt>
<trkpt lat="40.0713749" lon="-105.229789">
  <ele>1583.0</ele>
  <time>2026-08-28T17:56:19Z</time>
  <course>0.0</course>
  <speed>0.0</speed>
  <fix>3d</fix>
</trkpt>
<trkpt lat="40.0713749" lon="-105.229789">
  <ele>1583.0</ele>
  <time>2026-08-28T17:56:19Z</time>
  <course>247.77</course>
  <speed>0.0316227766016838</speed>
  <fix>3d</fix>
</trkpt>
<trkpt lat="40.0713749" lon="-105.229789">
  <ele>1583.0</ele>
  <time>2026-08-28T17:56:19Z</time>
  <course>0.0</course>
  <speed>0.0</speed>
  <fix>3d</fix>
</trkpt>
<trkpt lat="40.0713749" lon="-105.229789">
  <ele>1583.0</ele>
  <time>2026-08-28T17:56:19Z</time>
  <course>247.76</course>
  <speed>0.0316227766016838</speed>
  <fix>3d</fix>
</trkpt>
<trkpt lat="40.0713749" lon="-105.229789">
  <ele>1583.0</ele>
  <time>2026-08-28T17:56:19Z</time>
  <course>0.0</course>
  <speed>0.0</speed>
  <fix>3d</fix>
</trkpt>
<trkpt lat="40.0713749" lon="-105.229789">
  <ele>1583.0</ele>
  <time>2026-08-28T17:56:19Z</time>
  <course>247.76</course>
  <speed>0.0316227766016838</speed>
  <fix>3d</fix>
</trkpt>
<trkpt lat="40.0713749" lon="-105.229789">
  <ele>1583.0</ele>
  <time>2026-08-28T17:56:19Z</time>
  <course>0.0</course>
  <speed>0.0</speed>
  <fix>3d</fix>
</trkpt>
<trkpt lat="40.0713749" lon="-105.229789">
  <ele>1583.0</ele>
  <time>2026-08-28T17:56:19Z</time>
  <course>247.76</course>
  <speed>0.0316227766016838</speed>
  <fix>3d</fix>
</trkpt>
<trkpt lat="40.0713749" lon="-105.229789">
  <ele>1583.0</ele>
  <time>2026-08-28T17:56:19Z</time>
  <course>0.0</course>
  <speed>0.0</speed>
  <fix>3d</fix>
</trkpt>
<trkpt lat="40.0713749" lon="-105.229789">
  <ele>1583.0</ele>
  <time>2026-08-28T17:56:19Z</time>
  <course>247.75</course>
  <speed>0.0316227766016838</speed>
  <fix>3d</fix>
</trkpt>
<trkpt lat="40.0713749" lon="-105.229789">
  <ele>1583.0</ele>
  <time>2026-08-28T17:56:19Z</time>
  <course>0.0</course>
  <speed>0.0</speed>
  <fix>3d</fix>
</trkpt>
<trkpt lat="40.0713749" lon="-105.229789">
  <ele>1583.0</ele>
  <time>2026-08-28T17:56:19Z</time>
  <course>247.75</course>
  <speed>0.0316227766016838</speed>
  <fix>3d</fix>
</trkpt>
<trkpt lat="40.0713749" lon="-105.229789">
  <ele>1583.0</ele>
  <time>2026-08-28T17:56:19Z</time>
  <course>0.0</course>
  <speed>0.0</speed>
  <fix>3d</fix>
</trkpt>
<trkpt lat="40.0713749" lon="-105.229789">
  <ele>1583.0</ele>
  <time>2026-08-28T17:56:19Z</time>
  <course>247.75</course>
  <speed>0.0316227766016838</speed>
  <fix>3d</fix>
</trkpt>
<trkpt lat="40.0713749" lon="-105.229789">
  <ele>1583.0</ele>
  <time>2026-08-28T17:56:19Z</time>
  <course>0.0</course>
  <speed>0.0</speed>
  <fix>3d</fix>
</trkpt>
<trkpt lat="40.0713749" lon="-105.229789">
  <ele>1583.0</ele>
  <time>2026-08-28T17:56:19Z</time>
  <course>247.74</course>
  <speed>0.0316227766016838</speed>
  <fix>3d</fix>
</trkpt>
<trkpt lat="40.0713749" lon="-105.229789">
  <ele>1583.0</ele>
  <time>2026-08-28T17:56:19Z</time>
  <course>0.0</course>
  <speed>0.0</speed>
  <fix>3d</fix>
</trkpt>
<trkpt lat="40.0713749" lon="-105.229789">
  <ele>1583.0</ele>
  <time>2026-08-28T17:56:19Z</time>
  <course>247.74</course>
  <speed>0.0316227766016838</speed>
  <fix>3d</fix>
</trkpt>
<trkpt lat="40.0713749" lon="-105.229789">
  <ele>1583.0</ele>
  <time>2026-08-28T17:56:19Z</time>
  <course>0.0</course>
  <speed>0.0</speed>
  <fix>3d</fix>
</trkpt>
<trkpt lat="40.0713749" lon="-105.229789">
  <ele>1583.0</ele>
  <time>2026-08-28T17:56:19Z</time>
  <course>247.74</course>
  <speed>0.0316227766016838</speed>
  <fix>3d</fix>
</trkpt>
<trkpt lat="40.0713749" lon="-105.229789">
  <ele>1583.0</ele>
  <time>2026-08-28T17:56:19Z</time>
  <course>0.0</course>
  <speed>0.0</speed>
  <fix>3d</fix>
</trkpt>
<trkpt lat="40.0713749" lon="-105.229789">
  <ele>1583.0</ele>
  <time>2026-08-28T17:56:19Z</time>
  <course>247.73</course>
  <speed>0.0316227766016838</speed>
  <fix>3d</fix>
</trkpt>
<trkpt lat="40.0713749" lon="-105.229789">
  <ele>1583.0</ele>
  <time>2026-08-28T17:56:19Z</time>
  <course>0.0</course>
  <speed>0.0</speed>
  <fix>3d</fix>
</trkpt>
<trkpt lat="40.0713749" lon="-105.229789">
  <ele>1583.0</ele>
  <time>2026-08-28T17:56:19Z</time>
  <course>247.73</course>
  <speed>0.0316227766016838</speed>
  <fix>3d</fix>
</trkpt>
<trkpt lat="40.0713749" lon="-105.229789">
  <ele>1583.0</ele>
  <time>2026-08-28T17:56:19Z</time>
  <course>0.0</course>
  <speed>0.0</speed>
  <fix>3d</fix>
</trkpt>
<trkpt lat="40.0713749" lon="-105.229789">
  <ele>1583.0</ele>
  <time>2026-08-28T17:56:19Z</time>
  <course>247.73</course>
  <speed>0.0316227766016838</speed>
  <fix>3d</fix>
</trkpt>
<trkpt lat="40.0713749" lon="-105.229789">
  <ele>1583.0</ele>
  <time>2026-08-28T17:56:19Z</time>
  <course>0.0</course>
  <speed>0.0</speed>
  <fix>3d</fix>
</trkpt>
<trkpt lat="40.0713749" lon="-105.229789">
  <ele>1583.0</ele>
  <time>2026-08-28T17:56:19Z</time>
  <course>247.72</course>
  <speed>0.0316227766016838</speed>
  <fix>3d</fix>
</trkpt>
<trkpt lat="40.0713749" lon="-105.229789">
  <ele>1583.0</ele>
  <time>2026-08-28T17:56:19Z</time>
  <course>0.0</course>
  <speed>0.0</speed>
  <fix>3d</fix>
</trkpt>
<trkpt lat="40.0713749" lon="-105.229789">
  <ele>1583.0</ele>
  <time>2026-08-28T17:56:19Z</time>
  <course>247.72</course>
  <speed>0.0316227766016838</speed>
  <fix>3d</fix>
</trkpt>
<trkpt lat="40.0713749" lon="-105.229789">
  <ele>1583.0</ele>
  <time>2026-08-28T17:56:19Z</time>
  <course>0.0</course>
  <speed>0.0</speed>
  <fix>3d</fix>
</trkpt>
<trkpt lat="40.0713749" lon="-105.229789">
  <ele>1583.0</ele>
  <time>2026-08-28T17:56:19Z</time>
  <course>247.72</course>
  <speed>0.0316227766016838</speed>
  <fix>3d</fix>
</trkpt>
<trkpt lat="40.0713749" lon="-105.229789">
  <ele>1583.0</ele>
  <time>2026-08-28T17:56:19Z</time>
  <course>0.0</course>
  <speed>0.0</speed>
  <fix>3d</fix>
</trkpt>
<trkpt lat="40.0713749" lon="-105.229789">
  <ele>1583.0</ele>
  <time>2026-08-28T17:56:19Z</time>
  <course>247.71</course>
  <speed>0.0316227766016838</speed>
  <fix>3d</fix>
</trkpt>
<trkpt lat="40.0713749" lon="-105.229789">
  <ele>1583.0</ele>
  <time>2026-08-28T17:56:19Z</time>
  <course>0.0</course>
  <speed>0.0</speed>
  <fix>3d</fix>
</trkpt>
<trkpt lat="40.0713749" lon="-105.229789">
  <ele>1583.0</ele>
  <time>2026-08-28T17:56:19Z</time>
  <course>247.71</course>
  <speed>0.0316227766016838</speed>
  <fix>3d</fix>
</trkpt>
<trkpt lat="40.0713749" lon="-105.229789">
  <ele>1583.0</ele>
  <time>2026-08-28T17:56:19Z</time>
  <course>0.0</course>
  <speed>0.0</speed>
  <fix>3d</fix>
</trkpt>
<trkpt lat="40.0713749" lon="-105.229789">
  <ele>1583.0</ele>
  <time>2026-08-28T17:56:19Z</time>
  <course>247.71</course>
  <speed>0.0316227766016838</speed>
  <fix>3d</fix>
</trkpt>
<trkpt lat="40.0713749" lon="-105.229789">
  <ele>1583.0</ele>
  <time>2026-08-28T17:56:19Z</time>
  <course>0.0</course>
  <speed>0.0</speed>
  <fix>3d</fix>
</trkpt>
<trkpt lat="40.0713749" lon="-105.229789">
  <ele>1583.0</ele>
  <time>2026-08-28T17:56:19Z</time>
  <course>247.7</course>
  <speed>0.0316227766016838</speed>
  <fix>3d</fix>
</trkpt>
<trkpt lat="40.0713749" lon="-105.229789">
  <ele>1583.0</ele>
  <time>2026-08-28T17:56:19Z</time>
  <course>0.0</course>
  <speed>0.0</speed>
  <fix>3d</fix>
</trkpt>
<trkpt lat="40.0713749" lon="-105.229789">
  <ele>1583.0</ele>
  <time>2026-08-28T17:56:19Z</time>
  <course>247.7</course>
  <speed>0.0316227766016838</speed>
  <fix>3d</fix>
</trkpt>
<trkpt lat="40.0713749" lon="-105.229789">
  <ele>1583.0</ele>
  <time>2026-08-28T17:56:19Z</time>
  <course>0.0</course>
  <speed>0.0</speed>
  <fix>3d</fix>
</trkpt>
<trkpt lat="40.0713749" lon="-105.229789">
  <ele>1583.0</ele>
  <time>2026-08-28T17:56:19Z</time>
  <course>247.7</course>
  <speed>0.0316227766016838</speed>
  <fix>3d</fix>
</trkpt>
<trkpt lat="40.0713749" lon="-105.229789">
  <ele>1583.0</ele>
  <time>2026-08-28T17:56:19Z</time>
  <course>0.0</course>
  <speed>0.0</speed>
  <fix>3d</fix>
</trkpt>
<trkpt lat="40.0713749" lon="-105.229789">
  <ele>1583.0</ele>
  <time>2026-08-28T17:56:19Z</time>
  <course>247.69</course>
  <speed>0.0316227766016838</speed>
  <fix>3d</fix>
</trkpt>
<trkpt lat="40.0713749" lon="-105.229789">
  <ele>1583.0</ele>
  <time>2026-08-28T17:56:19Z</time>
  <course>0.0</course>
  <speed>0.0</speed>
  <fix>3d</fix>
</trkpt>
<trkpt lat="40.0713749" lon="-105.229789">
  <ele>1583.0</ele>
  <time>2026-08-28T17:56:19Z</time>
  <course>247.69</course>
  <speed>0.0316227766016838</speed>
  <fix>3d</fix>
</trkpt>
<trkpt lat="40.0713749" lon="-105.229789">
  <ele>1583.0</ele>
  <time>2026-08-28T17:56:19Z</time>
  <course>0.0</course>
  <speed>0.0</speed>
  <fix>3d</fix>
</trkpt>
<trkpt lat="40.0713749" lon="-105.229789">
  <ele>1583.0</ele>
  <time>2026-08-28T17:56:19Z</time>
  <course>247.69</course>
  <speed>0.0316227766016838</speed>
  <fix>3d</fix>
</trkpt>
<trkpt lat="40.0713749" lon="-105.229789">
  <ele>1583.0</ele>
  <time>2026-08-28T17:56:19Z</time>
  <course>0.0</course>
  <speed>0.0</speed>
  <fix>3d</fix>
</trkpt>
<trkpt lat="40.0713749" lon="-105.229789">
  <ele>1583.0</ele>
  <time>2026-08-28T17:56:19Z</time>
  <course>247.68</course>
  <speed>0.0316227766016838</speed>
  <fix>3d</fix>
</trkpt>
<trkpt lat="40.0713749" lon="-105.229789">
  <ele>1583.0</ele>
  <time>2026-08-28T17:56:19Z</time>
  <course>0.0</course>
  <speed>0.0</speed>
  <fix>3d</fix>
</trkpt>
<trkpt lat="40.0713749" lon="-105.229789">
  <ele>1583.0</ele>
  <time>2026-08-28T17:56:19Z</time>
  <course>247.68</course>
  <speed>0.0316227766016838</speed>
  <fix>3d</fix>
</trkpt>
<trkpt lat="40.0713749" lon="-105.229789">
  <ele>1583.0</ele>
  <time>2026-08-28T17:56:19Z</time>
  <course>0.0</course>
  <speed>0.0</speed>
  <fix>3d</fix>
</trkpt>
<trkpt lat="40.0713749" lon="-105.229789">
  <ele>1583.0</ele>
  <time>2026-08-28T17:56:19Z</time>
  <course>247.68</course>
  <speed>0.0316227766016838</speed>
  <fix>3d</fix>
</trkpt>
<trkpt lat="40.0713749" lon="-105.229789">
  <ele>1583.0</ele>
  <time>2026-08-28T17:56:19Z</time>
  <course>0.0</course>
  <speed>0.0</speed>
  <fix>3d</fix>
</trkpt>
<trkpt lat="40.0713749" lon="-105.229789">
  <ele>1583.0</ele>
  <time>2026-08-28T17:56:19Z</time>
  <course>247.67</course>
  <speed>0.0316227766016838</speed>
  <fix>3d</fix>
</trkpt>
<trkpt lat="40.0713749" lon="-105.229789">
  <ele>1583.0</ele>
  <time>2026-08-28T17:56:19Z</time>
  <course>0.0</course>
  <speed>0.0</speed>
  <fix>3d</fix>
</trkpt>
<trkpt lat="40.0713749" lon="-105.229789">
  <ele>1583.0</ele>
  <time>2026-08-28T17:56:19Z</time>
  <course>247.67</course>
  <speed>0.0316227766016838</speed>
  <fix>3d</fix>
</trkpt>
<trkpt lat="40.0713749" lon="-105.229789">
  <ele>1583.0</ele>
  <time>2026-08-28T17:56:19Z</time>
  <course>0.0</course>
  <speed>0.0</speed>
  <fix>3d</fix>
</trkpt>
<trkpt lat="40.0713749" lon="-105.229789">
  <ele>1583.0</ele>
  <time>2026-08-28T17:56:19Z</time>
  <course>247.67</course>
  <speed>0.0316227766016838</speed>
  <fix>3d</fix>
</trkpt>
<trkpt lat="40.0713749" lon="-105.229789">
  <ele>1583.0</ele>
  <time>2026-08-28T17:56:19Z</time>
  <course>0.0</course>
  <speed>0.0</speed>
  <fix>3d</fix>
</trkpt>
<trkpt lat="40.0713749" lon="-105.229789">
  <ele>1583.0</ele>
  <time>2026-08-28T17:56:19Z</time>
  <course>247.66</course>
  <speed>0.0316227766016838</speed>
  <fix>3d</fix>
</trkpt>
<trkpt lat="40.0713749" lon="-105.229789">
  <ele>1583.0</ele>
  <time>2026-08-28T17:56:19Z</time>
  <course>0.0</course>
  <speed>0.0</speed>
  <fix>3d</fix>
</trkpt>
<trkpt lat="40.0713749" lon="-105.229789">
  <ele>1583.0</ele>
  <time>2026-08-28T17:56:19Z</time>
  <course>247.66</course>
  <speed>0.0316227766016838</speed>
  <fix>3d</fix>
</trkpt>
<trkpt lat="40.0713749" lon="-105.229789">
  <ele>1583.0</ele>
  <time>2026-08-28T17:56:19Z</time>
  <course>0.0</course>
  <speed>0.0</speed>
  <fix>3d</fix>
</trkpt>
<trkpt lat="40.0713749" lon="-105.229789">
  <ele>1583.0</ele>
  <time>2026-08-28T17:56:19Z</time>
  <course>247.66</course>
  <speed>0.0316227766016838</speed>
  <fix>3d</fix>
</trkpt>
<trkpt lat="40.0713749" lon="-105.229789">
  <ele>1583.0</ele>
  <time>2026-08-28T17:56:19Z</time>
  <course>0.0</course>
  <speed>0.0</speed>
  <fix>3d</fix>
</trkpt>
<trkpt lat="40.0713749" lon="-105.229789">
  <ele>1583.0</ele>
  <time>2026-08-28T17:56:19Z</time>
  <course>247.65</course>
  <speed>0.0316227766016838</speed>
  <fix>3d</fix>
</trkpt>
<trkpt lat="40.0713749" lon="-105.229789">
  <ele>1583.0</ele>
  <time>2026-08-28T17:56:19Z</time>
  <course>0.0</course>
  <speed>0.0</speed>
  <fix>3d</fix>
</trkpt>
<trkpt lat="40.0713749" lon="-105.229789">
  <ele>1583.0</ele>
  <time>2026-08-28T17:56:19Z</time>
  <course>247.65</course>
  <speed>0.0316227766016838</speed>
  <fix>3d</fix>
</trkpt>
<trkpt lat="40.0713749" lon="-105.229789">
  <ele>1583.0</ele>
  <time>2026-08-28T17:56:19Z</time>
  <course>0.0</course>
  <speed>0.0</speed>
  <fix>3d</fix>
</trkpt>
<trkpt lat="40.0713749" lon="-105.229789">
  <ele>1583.0</ele>
  <time>2026-08-28T17:56:19Z</time>
  <course>247.65</course>
  <speed>0.0316227766016838</speed>
  <fix>3d</fix>
</trkpt>
<trkpt lat="40.0713749" lon="-105.229789">
  <ele>1583.0</ele>
  <time>2026-08-28T17:56:19Z</time>
  <course>0.0</course>
  <speed>0.0</speed>
  <fix>3d</fix>
</trkpt>
<trkpt lat="40.0713749" lon="-105.229789">
  <ele>1583.0</ele>
  <time>2026-08-28T17:56:19Z</time>
  <course>247.64</course>
  <speed>0.0316227766016838</speed>
  <fix>3d</fix>
</trkpt>
<trkpt lat="40.0713749" lon="-105.229789">
  <ele>1583.0</ele>
  <time>2026-08-28T17:56:19Z</time>
  <course>0.0</course>
  <speed>0.0</speed>
  <fix>3d</fix>
</trkpt>
<trkpt lat="40.0713749" lon="-105.229789">
  <ele>1583.0</ele>
  <time>2026-08-28T17:56:19Z</time>
  <course>247.64</course>
  <speed>0.0316227766016838</speed>
  <fix>3d</fix>
</trkpt>
<trkpt lat="40.0713749" lon="-105.229789">
  <ele>1583.0</ele>
  <time>2026-08-28T17:56:19Z</time>
  <course>0.0</course>
  <speed>0.0</speed>
  <fix>3d</fix>
</trkpt>
<trkpt lat="40.0713749" lon="-105.229789">
  <ele>1583.0</ele>
  <time>2026-08-28T17:56:19Z</time>
  <course>247.64</course>
  <speed>0.0316227766016838</speed>
  <fix>3d</fix>
</trkpt>
<trkpt lat="40.0713749" lon="-105.229789">
  <ele>1583.0</ele>
  <time>2026-08-28T17:56:19Z</time>
  <course>0.0</course>
  <speed>0.0</speed>
  <fix>3d</fix>
</trkpt>
<trkpt lat="40.0713749" lon="-105.229789">
  <ele>1583.0</ele>
  <time>2026-08-28T17:56:19Z</time>
  <course>247.64</course>
  <speed>0.0316227766016838</speed>
  <fix>3d</fix>
</trkpt>
<trkpt lat="40.0713749" lon="-105.229789">
  <ele>1583.0</ele>
  <time>2026-08-28T17:56:19Z</time>
  <course>0.0</course>
  <speed>0.0</speed>
  <fix>3d</fix>
</trkpt>
<trkpt lat="40.0713749" lon="-105.229789">
  <ele>1583.0</ele>
  <time>2026-08-28T17:56:19Z</time>
  <course>247.63</course>
  <speed>0.0316227766016838</speed>
  <fix>3d</fix>
</trkpt>
<trkpt lat="40.0713749" lon="-105.229789">
  <ele>1583.0</ele>
  <time>2026-08-28T17:56:19Z</time>
  <course>0.0</course>
  <speed>0.0</speed>
  <fix>3d</fix>
</trkpt>
<trkpt lat="40.0713749" lon="-105.229789">
  <ele>1583.0</ele>
  <time>2026-08-28T17:56:19Z</time>
  <course>247.63</course>
  <speed>0.0316227766016838</speed>
  <fix>3d</fix>
</trkpt>
<trkpt lat="40.0713749" lon="-105.229789">
  <ele>1583.0</ele>
  <time>2026-08-28T17:56:19Z</time>
  <course>0.0</course>
  <speed>0.0</speed>
  <fix>3d</fix>
</trkpt>
<trkpt lat="40.0713749" lon="-105.229789">
  <ele>1583.0</ele>
  <time>2026-08-28T17:56:19Z</time>
  <course>247.63</course>
  <speed>0.0316227766016838</speed>
  <fix>3d</fix>
</trkpt>
<trkpt lat="40.0713749" lon="-105.229789">
  <ele>1583.0</ele>
  <time>2026-08-28T17:56:19Z</time>
  <course>0.0</course>
  <speed>0.0</speed>
  <fix>3d</fix>
</trkpt>
<trkpt lat="40.0713749" lon="-105.229789">
  <ele>1583.0</ele>
  <time>2026-08-28T17:56:19Z</time>
  <course>247.62</course>
  <speed>0.0316227766016838</speed>
  <fix>3d</fix>
</trkpt>
<trkpt lat="40.0713749" lon="-105.229789">
  <ele>1583.0</ele>
  <time>2026-08-28T17:56:19Z</time>
  <course>0.0</course>
  <speed>0.0</speed>
  <fix>3d</fix>
</trkpt>
<trkpt lat="40.0713749" lon="-105.229789">
  <ele>1583.0</ele>
  <time>2026-08-28T17:56:19Z</time>
  <course>247.62</course>
  <speed>0.0316227766016838</speed>
  <fix>3d</fix>
</trkpt>
<trkpt lat="40.0713749" lon="-105.229789">
  <ele>1583.0</ele>
  <time>2026-08-28T17:56:19Z</time>
  <course>0.0</course>
  <speed>0.0</speed>
  <fix>3d</fix>
</trkpt>
<trkpt lat="40.0713749" lon="-105.229789">
  <ele>1583.0</ele>
  <time>2026-08-28T17:56:19Z</time>
  <course>247.62</course>
  <speed>0.0316227766016838</speed>
  <fix>3d</fix>
</trkpt>
<trkpt lat="40.0713749" lon="-105.229789">
  <ele>1583.0</ele>
  <time>2026-08-28T17:56:19Z</time>
  <course>0.0</course>
  <speed>0.0</speed>
  <fix>3d</fix>
</trkpt>
<trkpt lat="40.0713749" lon="-105.229789">
  <ele>1583.0</ele>
  <time>2026-08-28T17:56:19Z</time>
  <course>247.61</course>
  <speed>0.0316227766016838</speed>
  <fix>3d</fix>
</trkpt>
<trkpt lat="40.0713749" lon="-105.229789">
  <ele>1583.0</ele>
  <time>2026-08-28T17:56:19Z</time>
  <course>0.0</course>
  <speed>0.0</speed>
  <fix>3d</fix>
</trkpt>
<trkpt lat="40.0713749" lon="-105.229789">
  <ele>1583.0</ele>
  <time>2026-08-28T17:56:19Z</time>
  <course>247.61</course>
  <speed>0.0316227766016838</speed>
  <fix>3d</fix>
</trkpt>
<trkpt lat="40.0713749" lon="-105.229789">
  <ele>1583.0</ele>
  <time>2026-08-28T17:56:19Z</time>
  <course>0.0</course>
  <speed>0.0</speed>
  <fix>3d</fix>
</trkpt>
<trkpt lat="40.0713749" lon="-105.229789">
  <ele>1583.0</ele>
  <time>2026-08-28T17:56:19Z</time>
  <course>247.61</course>
  <speed>0.0316227766016838</speed>
  <fix>3d</fix>
</trkpt>
<trkpt lat="40.0713749" lon="-105.229789">
  <ele>1583.0</ele>
  <time>2026-08-28T17:56:19Z</time>
  <course>0.0</course>
  <speed>0.0</speed>
  <fix>3d</fix>
</trkpt>
<trkpt lat="40.0713749" lon="-105.229789">
  <ele>1583.0</ele>
  <time>2026-08-28T17:56:19Z</time>
  <course>247.61</course>
  <speed>0.0316227766016838</speed>
  <fix>3d</fix>
</trkpt>
<trkpt lat="40.0713749" lon="-105.229789">
  <ele>1583.0</ele>
  <time>2026-08-28T17:56:19Z</time>
  <course>0.0</course>
  <speed>0.0</speed>
  <fix>3d</fix>
</trkpt>
<trkpt lat="40.0713749" lon="-105.229789">
  <ele>1583.0</ele>
  <time>2026-08-28T17:56:19Z</time>
  <course>247.6</course>
  <speed>0.0316227766016838</speed>
  <fix>3d</fix>
</trkpt>
<trkpt lat="40.0713749" lon="-105.229789">
  <ele>1583.0</ele>
  <time>2026-08-28T17:56:19Z</time>
  <course>0.0</course>
  <speed>0.0</speed>
  <fix>3d</fix>
</trkpt>
<trkpt lat="40.0713749" lon="-105.229789">
  <ele>1583.0</ele>
  <time>2026-08-28T17:56:19Z</time>
  <course>247.6</course>
  <speed>0.0316227766016838</speed>
  <fix>3d</fix>
</trkpt>
<trkpt lat="40.0713749" lon="-105.229789">
  <ele>1583.0</ele>
  <time>2026-08-28T17:56:19Z</time>
  <course>0.0</course>
  <speed>0.0</speed>
  <fix>3d</fix>
</trkpt>
<trkpt lat="40.0713749" lon="-105.229789">
  <ele>1583.0</ele>
  <time>2026-08-28T17:56:19Z</time>
  <course>247.6</course>
  <speed>0.0316227766016838</speed>
  <fix>3d</fix>
</trkpt>
<trkpt lat="40.0713749" lon="-105.229789">
  <ele>1583.0</ele>
  <time>2026-08-28T17:56:19Z</time>
  <course>0.0</course>
  <speed>0.0</speed>
  <fix>3d</fix>
</trkpt>
<trkpt lat="40.0713749" lon="-105.229789">
  <ele>1583.0</ele>
  <time>2026-08-28T17:56:19Z</time>
  <course>247.6</course>
  <speed>0.0316227766016838</speed>
  <fix>3d</fix>
</trkpt>
<trkpt lat="40.0713749" lon="-105.229789">
  <ele>1583.0</ele>
  <time>2026-08-28T17:56:19Z</time>
  <course>0.0</course>
  <speed>0.0</speed>
  <fix>3d</fix>
</trkpt>
<trkpt lat="40.0713749" lon="-105.229789">
  <ele>1583.0</ele>
  <time>2026-08-28T17:56:19Z</time>
  <course>247.59</course>
  <speed>0.0316227766016838</speed>
  <fix>3d</fix>
</trkpt>
<trkpt lat="40.0713749" lon="-105.229789">
  <ele>1583.0</ele>
  <time>2026-08-28T17:56:19Z</time>
  <course>0.0</course>
  <speed>0.0</speed>
  <fix>3d</fix>
</trkpt>
<trkpt lat="40.0713749" lon="-105.229789">
  <ele>1582.92</ele>
  <time>2026-08-28T17:56:19Z</time>
  <course>247.59</course>
  <speed>0.0</speed>
  <fix>3d</fix>
</trkpt>
<trkpt lat="40.0713749" lon="-105.229789">
  <ele>1583.0</ele>
  <time>2026-08-28T17:56:19Z</time>
  <course>0.0</course>
  <speed>0.0</speed>
  <fix>3d</fix>
</trkpt>
<trkpt lat="40.0713749" lon="-105.229789">
  <ele>1582.92</ele>
  <time>2026-08-28T17:56:19Z</time>
  <course>247.59</course>
  <speed>0.0</speed>
  <fix>3d</fix>
</trkpt>
<trkpt lat="40.0713749" lon="-105.229789">
  <ele>1583.0</ele>
  <time>2026-08-28T17:56:19Z</time>
  <course>0.0</course>
  <speed>0.0</speed>
  <fix>3d</fix>
</trkpt>
<trkpt lat="40.0713749" lon="-105.229789">
  <ele>1582.91</ele>
  <time>2026-08-28T17:56:19Z</time>
  <course>247.58</course>
  <speed>0.0</speed>
  <fix>3d</fix>
</trkpt>
<trkpt lat="40.0713749" lon="-105.229789">
  <ele>1583.0</ele>
  <time>2026-08-28T17:56:19Z</time>
  <course>0.0</course>
  <speed>0.0</speed>
  <fix>3d</fix>
</trkpt>
<trkpt lat="40.0713749" lon="-105.229789">
  <ele>1582.91</ele>
  <time>2026-08-28T17:56:19Z</time>
  <course>247.58</course>
  <speed>0.0</speed>
  <fix>3d</fix>
</trkpt>
<trkpt lat="40.0713749" lon="-105.229789">
  <ele>1583.0</ele>
  <time>2026-08-28T17:56:19Z</time>
  <course>0.0</course>
  <speed>0.0</speed>
  <fix>3d</fix>
</trkpt>
<trkpt lat="40.0713749" lon="-105.229789">
  <ele>1582.9</ele>
  <time>2026-08-28T17:56:19Z</time>
  <course>247.58</course>
  <speed>0.0</speed>
  <fix>3d</fix>
</trkpt>
<trkpt lat="40.0713749" lon="-105.229789">
  <ele>1583.0</ele>
  <time>2026-08-28T17:56:19Z</time>
  <course>0.0</course>
  <speed>0.0</speed>
  <fix>3d</fix>
</trkpt>
<trkpt lat="40.0713749" lon="-105.229789">
  <ele>1582.9</ele>
  <time>2026-08-28T17:56:19Z</time>
  <course>247.58</course>
  <speed>0.0</speed>
  <fix>3d</fix>
</trkpt>
<trkpt lat="40.0713749" lon="-105.229789">
  <ele>1583.0</ele>
  <time>2026-08-28T17:56:19Z</time>
  <course>0.0</course>
  <speed>0.0</speed>
  <fix>3d</fix>
</trkpt>
<trkpt lat="40.0713749" lon="-105.229789">
  <ele>1582.9</ele>
  <time>2026-08-28T17:56:19Z</time>
  <course>247.57</course>
  <speed>0.0</speed>
  <fix>3d</fix>
</trkpt>
<trkpt lat="40.0713749" lon="-105.229789">
  <ele>1583.0</ele>
  <time>2026-08-28T17:56:19Z</time>
  <course>0.0</course>
  <speed>0.0</speed>
  <fix>3d</fix>
</trkpt>
<trkpt lat="40.0713749" lon="-105.229789">
  <ele>1582.9</ele>
  <time>2026-08-28T17:56:19Z</time>
  <course>247.57</course>
  <speed>0.0</speed>
  <fix>3d</fix>
</trkpt>
<trkpt lat="40.0713749" lon="-105.229789">
  <ele>1583.0</ele>
  <time>2026-08-28T17:56:19Z</time>
  <course>0.0</course>
  <speed>0.0</speed>
  <fix>3d</fix>
</trkpt>
<trkpt lat="40.0713749" lon="-105.229789">
  <ele>1582.9</ele>
  <time>2026-08-28T17:56:19Z</time>
  <course>247.57</course>
  <speed>0.0</speed>
  <fix>3d</fix>
</trkpt>
<trkpt lat="40.0713749" lon="-105.229789">
  <ele>1583.0</ele>
  <time>2026-08-28T17:56:19Z</time>
  <course>0.0</course>
  <speed>0.0</speed>
  <fix>3d</fix>
</trkpt>
<trkpt lat="40.0713749" lon="-105.229789">
  <ele>1582.9</ele>
  <time>2026-08-28T17:56:19Z</time>
  <course>247.57</course>
  <speed>0.01</speed>
  <fix>3d</fix>
</trkpt>
<trkpt lat="40.0713749" lon="-105.229789">
  <ele>1583.0</ele>
  <time>2026-08-28T17:56:19Z</time>
  <course>0.0</course>
  <speed>0.0</speed>
  <fix>3d</fix>
</trkpt>
<trkpt lat="40.0713749" lon="-105.229789">
  <ele>1582.91</ele>
  <time>2026-08-28T17:56:19Z</time>
  <course>247.56</course>
  <speed>0.01</speed>
  <fix>3d</fix>
</trkpt>
<trkpt lat="40.0713749" lon="-105.229789">
  <ele>1583.0</ele>
  <time>2026-08-28T17:56:19Z</time>
  <course>0.0</course>
  <speed>0.0</speed>
  <fix>3d</fix>
</trkpt>
<trkpt lat="40.0713749" lon="-105.229789">
  <ele>1582.91</ele>
  <time>2026-08-28T17:56:19Z</time>
  <course>247.56</course>
  <speed>0.01</speed>
  <fix>3d</fix>
</trkpt>
<trkpt lat="40.0713749" lon="-105.229789">
  <ele>1583.0</ele>
  <time>2026-08-28T17:56:19Z</time>
  <course>0.0</course>
  <speed>0.0</speed>
  <fix>3d</fix>
</trkpt>
<trkpt lat="40.0713749" lon="-105.229789">
  <ele>1582.91</ele>
  <time>2026-08-28T17:56:19Z</time>
  <course>247.56</course>
  <speed>0.01</speed>
  <fix>3d</fix>
</trkpt>
<trkpt lat="40.0713749" lon="-105.229789">
  <ele>1583.0</ele>
  <time>2026-08-28T17:56:19Z</time>
  <course>0.0</course>
  <speed>0.0</speed>
  <fix>3d</fix>
</trkpt>
<trkpt lat="40.0713749" lon="-105.229789">
  <ele>1582.92</ele>
  <time>2026-08-28T17:56:19Z</time>
  <course>247.56</course>
  <speed>0.01</speed>
  <fix>3d</fix>
</trkpt>
<trkpt lat="40.0713749" lon="-105.229789">
  <ele>1583.0</ele>
  <time>2026-08-28T17:56:19Z</time>
  <course>0.0</course>
  <speed>0.0</speed>
  <fix>3d</fix>
</trkpt>
<trkpt lat="40.0713749" lon="-105.229789">
  <ele>1582.92</ele>
  <time>2026-08-28T17:56:19Z</time>
  <course>247.55</course>
  <speed>0.01</speed>
  <fix>3d</fix>
</trkpt>
<trkpt lat="40.0713749" lon="-105.229789">
  <ele>1583.0</ele>
  <time>2026-08-28T17:56:19Z</time>
  <course>0.0</course>
  <speed>0.0</speed>
  <fix>3d</fix>
</trkpt>
<trkpt lat="40.0713749" lon="-105.229789">
  <ele>1582.92</ele>
  <time>2026-08-28T17:56:19Z</time>
  <course>247.55</course>
  <speed>0.01</speed>
  <fix>3d</fix>
</trkpt>
<trkpt lat="40.0713749" lon="-105.229789">
  <ele>1583.0</ele>
  <time>2026-08-28T17:56:19Z</time>
  <course>0.0</course>
  <speed>0.0</speed>
  <fix>3d</fix>
</trkpt>
<trkpt lat="40.0713749" lon="-105.229789">
  <ele>1582.93</ele>
  <time>2026-08-28T17:56:19Z</time>
  <course>247.55</course>
  <speed>0.01</speed>
  <fix>3d</fix>
</trkpt>
<trkpt lat="40.0713749" lon="-105.229789">
  <ele>1583.0</ele>
  <time>2026-08-28T17:56:19Z</time>
  <course>0.0</course>
  <speed>0.0</speed>
  <fix>3d</fix>
</trkpt>
<trkpt lat="40.0713749" lon="-105.229789">
  <ele>1582.93</ele>
  <time>2026-08-28T17:56:19Z</time>
  <course>247.55</course>
  <speed>0.01</speed>
  <fix>3d</fix>
</trkpt>
<trkpt lat="40.0713749" lon="-105.229789">
  <ele>1583.0</ele>
  <time>2026-08-28T17:56:19Z</time>
  <course>0.0</course>
  <speed>0.0</speed>
  <fix>3d</fix>
</trkpt>
<trkpt lat="40.0713749" lon="-105.229789">
  <ele>1582.93</ele>
  <time>2026-08-28T17:56:19Z</time>
  <course>247.54</course>
  <speed>0.01</speed>
  <fix>3d</fix>
</trkpt>
<trkpt lat="40.0713749" lon="-105.229789">
  <ele>1583.0</ele>
  <time>2026-08-28T17:56:19Z</time>
  <course>0.0</course>
  <speed>0.0</speed>
  <fix>3d</fix>
</trkpt>
<trkpt lat="40.0713749" lon="-105.229789">
  <ele>1582.93</ele>
  <time>2026-08-28T17:56:19Z</time>
  <course>247.54</course>
  <speed>0.01</speed>
  <fix>3d</fix>
</trkpt>
<trkpt lat="40.0713749" lon="-105.229789">
  <ele>1583.0</ele>
  <time>2026-08-28T17:56:19Z</time>
  <course>0.0</course>
  <speed>0.0</speed>
  <fix>3d</fix>
</trkpt>
<trkpt lat="40.0713749" lon="-105.229789">
  <ele>1582.94</ele>
  <time>2026-08-28T17:56:19Z</time>
  <course>247.54</course>
  <speed>0.01</speed>
  <fix>3d</fix>
</trkpt>
<trkpt lat="40.0713749" lon="-105.229789">
  <ele>1583.0</ele>
  <time>2026-08-28T17:56:19Z</time>
  <course>0.0</course>
  <speed>0.0</speed>
  <fix>3d</fix>
</trkpt>
<trkpt lat="40.0713749" lon="-105.229789">
  <ele>1582.94</ele>
  <time>2026-08-28T17:56:19Z</time>
  <course>247.54</course>
  <speed>0.01</speed>
  <fix>3d</fix>
</trkpt>
<trkpt lat="40.0713749" lon="-105.229789">
  <ele>1583.0</ele>
  <time>2026-08-28T17:56:19Z</time>
  <course>0.0</course>
  <speed>0.0</speed>
  <fix>3d</fix>
</trkpt>
<trkpt lat="40.0713749" lon="-105.229789">
  <ele>1582.94</ele>
  <time>2026-08-28T17:56:19Z</time>
  <course>247.53</course>
  <speed>0.01</speed>
  <fix>3d</fix>
</trkpt>
<trkpt lat="40.0713749" lon="-105.229789">
  <ele>1583.0</ele>
  <time>2026-08-28T17:56:19Z</time>
  <course>0.0</course>
  <speed>0.0</speed>
  <fix>3d</fix>
</trkpt>
<trkpt lat="40.0713749" lon="-105.229789">
  <ele>1582.95</ele>
  <time>2026-08-28T17:56:19Z</time>
  <course>247.53</course>
  <speed>0.01</speed>
  <fix>3d</fix>
</trkpt>
<trkpt lat="40.0713749" lon="-105.229789">
  <ele>1583.0</ele>
  <time>2026-08-28T17:56:19Z</time>
  <course>0.0</course>
  <speed>0.0</speed>
  <fix>3d</fix>
</trkpt>
<trkpt lat="40.0713749" lon="-105.229789">
  <ele>1582.95</ele>
  <time>2026-08-28T17:56:19Z</time>
  <course>247.53</course>
  <speed>0.01</speed>
  <fix>3d</fix>
</trkpt>
<trkpt lat="40.0713749" lon="-105.229789">
  <ele>1583.0</ele>
  <time>2026-08-28T17:56:19Z</time>
  <course>0.0</course>
  <speed>0.0</speed>
  <fix>3d</fix>
</trkpt>
<trkpt lat="40.0713749" lon="-105.229789">
  <ele>1582.95</ele>
  <time>2026-08-28T17:56:19Z</time>
  <course>247.53</course>
  <speed>0.01</speed>
  <fix>3d</fix>
</trkpt>
<trkpt lat="40.0713749" lon="-105.229789">
  <ele>1583.0</ele>
  <time>2026-08-28T17:56:19Z</time>
  <course>0.0</course>
  <speed>0.0</speed>
  <fix>3d</fix>
</trkpt>
<trkpt lat="40.0713749" lon="-105.229789">
  <ele>1582.96</ele>
  <time>2026-08-28T17:56:19Z</time>
  <course>247.53</course>
  <speed>0.01</speed>
  <fix>3d</fix>
</trkpt>
<trkpt lat="40.0713749" lon="-105.229789">
  <ele>1583.0</ele>
  <time>2026-08-28T17:56:19Z</time>
  <course>0.0</course>
  <speed>0.0</speed>
  <fix>3d</fix>
</trkpt>
<trkpt lat="40.0713749" lon="-105.229789">
  <ele>1582.96</ele>
  <time>2026-08-28T17:56:19Z</time>
  <course>247.52</course>
  <speed>0.01</speed>
  <fix>3d</fix>
</trkpt>
<trkpt lat="40.0713749" lon="-105.229789">
  <ele>1583.0</ele>
  <time>2026-08-28T17:56:19Z</time>
  <course>0.0</course>
  <speed>0.0</speed>
  <fix>3d</fix>
</trkpt>
<trkpt lat="40.0713749" lon="-105.229789">
  <ele>1582.96</ele>
  <time>2026-08-28T17:56:19Z</time>
  <course>247.52</course>
  <speed>0.01</speed>
  <fix>3d</fix>
</trkpt>
<trkpt lat="40.0713749" lon="-105.229789">
  <ele>1583.0</ele>
  <time>2026-08-28T17:56:19Z</time>
  <course>0.0</course>
  <speed>0.0</speed>
  <fix>3d</fix>
</trkpt>
<trkpt lat="40.0713749" lon="-105.229789">
  <ele>1582.96</ele>
  <time>2026-08-28T17:56:19Z</time>
  <course>247.52</course>
  <speed>0.01</speed>
  <fix>3d</fix>
</trkpt>
<trkpt lat="40.0713749" lon="-105.229789">
  <ele>1583.0</ele>
  <time>2026-08-28T17:56:19Z</time>
  <course>0.0</course>
  <speed>0.0</speed>
  <fix>3d</fix>
</trkpt>
<trkpt lat="40.0713749" lon="-105.229789">
  <ele>1582.96</ele>
  <time>2026-08-28T17:56:19Z</time>
  <course>247.52</course>
  <speed>0.01</speed>
  <fix>3d</fix>
</trkpt>
<trkpt lat="40.0713749" lon="-105.229789">
  <ele>1583.0</ele>
  <time>2026-08-28T17:56:19Z</time>
  <course>0.0</course>
  <speed>0.0</speed>
  <fix>3d</fix>
</trkpt>
<trkpt lat="40.0713749" lon="-105.229789">
  <ele>1582.96</ele>
  <time>2026-08-28T17:56:19Z</time>
  <course>247.51</course>
  <speed>0.01</speed>
  <fix>3d</fix>
</trkpt>
<trkpt lat="40.0713749" lon="-105.229789">
  <ele>1583.0</ele>
  <time>2026-08-28T17:56:19Z</time>
  <course>0.0</course>
  <speed>0.0</speed>
  <fix>3d</fix>
</trkpt>
<trkpt lat="40.0713749" lon="-105.229789">
  <ele>1582.95</ele>
  <time>2026-08-28T17:56:19Z</time>
  <course>247.51</course>
  <speed>0.01</speed>
  <fix>3d</fix>
</trkpt>
<trkpt lat="40.0713749" lon="-105.229789">
  <ele>1583.0</ele>
  <time>2026-08-28T17:56:19Z</time>
  <course>0.0</course>
  <speed>0.0</speed>
  <fix>3d</fix>
</trkpt>
<trkpt lat="40.0713749" lon="-105.229789">
  <ele>1582.95</ele>
  <time>2026-08-28T17:56:19Z</time>
  <course>247.51</course>
  <speed>0.01</speed>
  <fix>3d</fix>
</trkpt>
<trkpt lat="40.0713749" lon="-105.229789">
  <ele>1583.0</ele>
  <time>2026-08-28T17:56:19Z</time>
  <course>0.0</course>
  <speed>0.0</speed>
  <fix>3d</fix>
</trkpt>
<trkpt lat="40.0713749" lon="-105.229789">
  <ele>1582.95</ele>
  <time>2026-08-28T17:56:19Z</time>
  <course>247.51</course>
  <speed>0.01</speed>
  <fix>3d</fix>
</trkpt>
<trkpt lat="40.0713749" lon="-105.229789">
  <ele>1583.0</ele>
  <time>2026-08-28T17:56:19Z</time>
  <course>0.0</course>
  <speed>0.0</speed>
  <fix>3d</fix>
</trkpt>
<trkpt lat="40.0713749" lon="-105.229789">
  <ele>1582.95</ele>
  <time>2026-08-28T17:56:19Z</time>
  <course>247.51</course>
  <speed>0.01</speed>
  <fix>3d</fix>
</trkpt>
<trkpt lat="40.0713749" lon="-105.229789">
  <ele>1583.0</ele>
  <time>2026-08-28T17:56:19Z</time>
  <course>0.0</course>
  <speed>0.0</speed>
  <fix>3d</fix>
</trkpt>
<trkpt lat="40.0713749" lon="-105.229789">
  <ele>1582.95</ele>
  <time>2026-08-28T17:56:19Z</time>
  <course>247.5</course>
  <speed>0.01</speed>
  <fix>3d</fix>
</trkpt>
<trkpt lat="40.0713749" lon="-105.229789">
  <ele>1583.0</ele>
  <time>2026-08-28T17:56:19Z</time>
  <course>0.0</course>
  <speed>0.0</speed>
  <fix>3d</fix>
</trkpt>
<trkpt lat="40.0713749" lon="-105.229789">
  <ele>1582.95</ele>
  <time>2026-08-28T17:56:19Z</time>
  <course>247.5</course>
  <speed>0.01</speed>
  <fix>3d</fix>
</trkpt>
<trkpt lat="40.0713749" lon="-105.229789">
  <ele>1583.0</ele>
  <time>2026-08-28T17:56:19Z</time>
  <course>0.0</course>
  <speed>0.0</speed>
  <fix>3d</fix>
</trkpt>
<trkpt lat="40.0713749" lon="-105.229789">
  <ele>1582.95</ele>
  <time>2026-08-28T17:56:19Z</time>
  <course>247.5</course>
  <speed>0.01</speed>
  <fix>3d</fix>
</trkpt>
<trkpt lat="40.0713749" lon="-105.229789">
  <ele>1583.0</ele>
  <time>2026-08-28T17:56:19Z</time>
  <course>0.0</course>
  <speed>0.0</speed>
  <fix>3d</fix>
</trkpt>
<trkpt lat="40.0713749" lon="-105.229789">
  <ele>1582.95</ele>
  <time>2026-08-28T17:56:19Z</time>
  <course>247.5</course>
  <speed>0.01</speed>
  <fix>3d</fix>
</trkpt>
<trkpt lat="40.0713749" lon="-105.229789">
  <ele>1583.0</ele>
  <time>2026-08-28T17:56:19Z</time>
  <course>0.0</course>
  <speed>0.0</speed>
  <fix>3d</fix>
</trkpt>
<trkpt lat="40.0713749" lon="-105.229789">
  <ele>1582.95</ele>
  <time>2026-08-28T17:56:19Z</time>
  <course>247.5</course>
  <speed>0.01</speed>
  <fix>3d</fix>
</trkpt>
<trkpt lat="40.0713749" lon="-105.229789">
  <ele>1583.0</ele>
  <time>2026-08-28T17:56:19Z</time>
  <course>0.0</course>
  <speed>0.0</speed>
  <fix>3d</fix>
</trkpt>
<trkpt lat="40.0713749" lon="-105.229789">
  <ele>1582.95</ele>
  <time>2026-08-28T17:56:19Z</time>
  <course>247.49</course>
  <speed>0.01</speed>
  <fix>3d</fix>
</trkpt>
<trkpt lat="40.0713749" lon="-105.229789">
  <ele>1583.0</ele>
  <time>2026-08-28T17:56:19Z</time>
  <course>0.0</course>
  <speed>0.0</speed>
  <fix>3d</fix>
</trkpt>
<trkpt lat="40.0713749" lon="-105.229789">
  <ele>1582.95</ele>
  <time>2026-08-28T17:56:19Z</time>
  <course>247.49</course>
  <speed>0.01</speed>
  <fix>3d</fix>
</trkpt>
<trkpt lat="40.0713749" lon="-105.229789">
  <ele>1583.0</ele>
  <time>2026-08-28T17:56:19Z</time>
  <course>0.0</course>
  <speed>0.0</speed>
  <fix>3d</fix>
</trkpt>
<trkpt lat="40.0713749" lon="-105.229789">
  <ele>1582.95</ele>
  <time>2026-08-28T17:56:19Z</time>
  <course>247.49</course>
  <speed>0.01</speed>
  <fix>3d</fix>
</trkpt>
<trkpt lat="40.0713749" lon="-105.229789">
  <ele>1583.0</ele>
  <time>2026-08-28T17:56:19Z</time>
  <course>0.0</course>
  <speed>0.0</speed>
  <fix>3d</fix>
</trkpt>
<trkpt lat="40.0713749" lon="-105.229789">
  <ele>1582.96</ele>
  <time>2026-08-28T17:56:19Z</time>
  <course>247.49</course>
  <speed>0.0</speed>
  <fix>3d</fix>
</trkpt>
<trkpt lat="40.0713749" lon="-105.229789">
  <ele>1583.0</ele>
  <time>2026-08-28T17:56:19Z</time>
  <course>0.0</course>
  <speed>0.0</speed>
  <fix>3d</fix>
</trkpt>
<trkpt lat="40.0713749" lon="-105.229789">
  <ele>1582.97</ele>
  <time>2026-08-28T17:56:19Z</time>
  <course>247.49</course>
  <speed>0.0</speed>
  <fix>3d</fix>
</trkpt>
<trkpt lat="40.0713749" lon="-105.229789">
  <ele>1583.0</ele>
  <time>2026-08-28T17:56:19Z</time>
  <course>0.0</course>
  <speed>0.0</speed>
  <fix>3d</fix>
</trkpt>
<trkpt lat="40.0713749" lon="-105.229789">
  <ele>1582.97</ele>
  <time>2026-08-28T17:56:19Z</time>
  <course>247.48</course>
  <speed>0.0</speed>
  <fix>3d</fix>
</trkpt>
<trkpt lat="40.0713749" lon="-105.229789">
  <ele>1583.0</ele>
  <time>2026-08-28T17:56:19Z</time>
  <course>0.0</course>
  <speed>0.0</speed>
  <fix>3d</fix>
</trkpt>
<trkpt lat="40.0713749" lon="-105.229789">
  <ele>1582.98</ele>
  <time>2026-08-28T17:56:19Z</time>
  <course>247.48</course>
  <speed>0.0</speed>
  <fix>3d</fix>
</trkpt>
<trkpt lat="40.0713749" lon="-105.229789">
  <ele>1583.0</ele>
  <time>2026-08-28T17:56:19Z</time>
  <course>0.0</course>
  <speed>0.0</speed>
  <fix>3d</fix>
</trkpt>
<trkpt lat="40.0713749" lon="-105.229789">
  <ele>1582.98</ele>
  <time>2026-08-28T17:56:19Z</time>
  <course>247.48</course>
  <speed>0.01</speed>
  <fix>3d</fix>
</trkpt>
<trkpt lat="40.0713749" lon="-105.229789">
  <ele>1583.0</ele>
  <time>2026-08-28T17:56:19Z</time>
  <course>0.0</course>
  <speed>0.0</speed>
  <fix>3d</fix>
</trkpt>
<trkpt lat="40.0713749" lon="-105.229789">
  <ele>1582.98</ele>
  <time>2026-08-28T17:56:19Z</time>
  <course>247.48</course>
  <speed>0.01</speed>
  <fix>3d</fix>
</trkpt>
<trkpt lat="40.0713749" lon="-105.229789">
  <ele>1583.0</ele>
  <time>2026-08-28T17:56:19Z</time>
  <course>0.0</course>
  <speed>0.0</speed>
  <fix>3d</fix>
</trkpt>
<trkpt lat="40.0713749" lon="-105.229789">
  <ele>1582.98</ele>
  <time>2026-08-28T17:56:19Z</time>
  <course>247.48</course>
  <speed>0.01</speed>
  <fix>3d</fix>
</trkpt>
<trkpt lat="40.0713749" lon="-105.229789">
  <ele>1583.0</ele>
  <time>2026-08-28T17:56:19Z</time>
  <course>0.0</course>
  <speed>0.0</speed>
  <fix>3d</fix>
</trkpt>
<trkpt lat="40.0713749" lon="-105.229789">
  <ele>1582.98</ele>
  <time>2026-08-28T17:56:19Z</time>
  <course>247.47</course>
  <speed>0.01</speed>
  <fix>3d</fix>
</trkpt>
<trkpt lat="40.0713749" lon="-105.229789">
  <ele>1583.0</ele>
  <time>2026-08-28T17:56:19Z</time>
  <course>0.0</course>
  <speed>0.0</speed>
  <fix>3d</fix>
</trkpt>
<trkpt lat="40.0713749" lon="-105.229789">
  <ele>1582.98</ele>
  <time>2026-08-28T17:56:19Z</time>
  <course>247.47</course>
  <speed>0.01</speed>
  <fix>3d</fix>
</trkpt>
<trkpt lat="40.0713749" lon="-105.229789">
  <ele>1583.0</ele>
  <time>2026-08-28T17:56:19Z</time>
  <course>0.0</course>
  <speed>0.0</speed>
  <fix>3d</fix>
</trkpt>
<trkpt lat="40.071375" lon="-105.229789">
  <ele>1582.98</ele>
  <time>2026-08-28T17:56:19Z</time>
  <course>247.47</course>
  <speed>0.01</speed>
  <fix>3d</fix>
</trkpt>
<trkpt lat="40.0713749" lon="-105.229789">
  <ele>1583.0</ele>
  <time>2026-08-28T17:56:19Z</time>
  <course>0.0</course>
  <speed>0.0</speed>
  <fix>3d</fix>
</trkpt>
<trkpt lat="40.071375" lon="-105.229789">
  <ele>1582.98</ele>
  <time>2026-08-28T17:56:19Z</time>
  <course>247.47</course>
  <speed>0.01</speed>
  <fix>3d</fix>
</trkpt>
<trkpt lat="40.0713749" lon="-105.229789">
  <ele>1583.0</ele>
  <time>2026-08-28T17:56:19Z</time>
  <course>0.0</course>
  <speed>0.0</speed>
  <fix>3d</fix>
</trkpt>
<trkpt lat="40.071375" lon="-105.229789">
  <ele>1582.98</ele>
  <time>2026-08-28T17:56:19Z</time>
  <course>247.47</course>
  <speed>0.01</speed>
  <fix>3d</fix>
</trkpt>
<trkpt lat="40.0713749" lon="-105.229789">
  <ele>1583.0</ele>
  <time>2026-08-28T17:56:19Z</time>
  <course>0.0</course>
  <speed>0.0</speed>
  <fix>3d</fix>
</trkpt>
<trkpt lat="40.071375" lon="-105.229789">
  <ele>1582.98</ele>
  <time>2026-08-28T17:56:19Z</time>
  <course>247.47</course>
  <speed>0.02</speed>
  <fix>3d</fix>
</trkpt>
<trkpt lat="40.0713749" lon="-105.229789">
  <ele>1583.0</ele>
  <time>2026-08-28T17:56:19Z</time>
  <course>0.0</course>
  <speed>0.0</speed>
  <fix>3d</fix>
</trkpt>
<trkpt lat="40.071375" lon="-105.2297889">
  <ele>1582.98</ele>
  <time>2026-08-28T17:56:19Z</time>
  <course>247.46</course>
  <speed>0.02</speed>
  <fix>3d</fix>
</trkpt>
<trkpt lat="40.0713749" lon="-105.229789">
  <ele>1583.0</ele>
  <time>2026-08-28T17:56:19Z</time>
  <course>0.0</course>
  <speed>0.0</speed>
  <fix>3d</fix>
</trkpt>
<trkpt lat="40.0713751" lon="-105.2297889">
  <ele>1582.98</ele>
  <time>2026-08-28T17:56:19Z</time>
  <course>247.46</course>
  <speed>0.02</speed>
  <fix>3d</fix>
</trkpt>
<trkpt lat="40.0713749" lon="-105.229789">
  <ele>1583.0</ele>
  <time>2026-08-28T17:56:19Z</time>
  <course>0.0</course>
  <speed>0.0</speed>
  <fix>3d</fix>
</trkpt>
<trkpt lat="40.0713751" lon="-105.2297889">
  <ele>1582.98</ele>
  <time>2026-08-28T17:56:19Z</time>
  <course>247.46</course>
  <speed>0.022360679774997897</speed>
  <fix>3d</fix>
</trkpt>
<trkpt lat="40.0713749" lon="-105.229789">
  <ele>1583.0</ele>
  <time>2026-08-28T17:56:19Z</time>
  <course>0.0</course>
  <speed>0.0</speed>
  <fix>3d</fix>
</trkpt>
<trkpt lat="40.0713751" lon="-105.2297889">
  <ele>1582.98</ele>
  <time>2026-08-28T17:56:19Z</time>
  <course>247.46</course>
  <speed>0.022360679774997897</speed>
  <fix>3d</fix>
</trkpt>
<trkpt lat="40.0713749" lon="-105.229789">
  <ele>1583.0</ele>
  <time>2026-08-28T17:56:19Z</time>
  <course>0.0</course>
  <speed>0.0</speed>
  <fix>3d</fix>
</trkpt>
<trkpt lat="40.0713751" lon="-105.2297889">
  <ele>1582.98</ele>
  <time>2026-08-28T17:56:19Z</time>
  <course>247.46</course>
  <speed>0.022360679774997897</speed>
  <fix>3d</fix>
</trkpt>
<trkpt lat="40.0713749" lon="-105.229789">
  <ele>1583.0</ele>
  <time>2026-08-28T17:56:19Z</time>
  <course>0.0</course>
  <speed>0.0</speed>
  <fix>3d</fix>
</trkpt>
<trkpt lat="40.0713752" lon="-105.2297889">
  <ele>1582.98</ele>
  <time>2026-08-28T17:56:19Z</time>
  <course>247.46</course>
  <speed>0.022360679774997897</speed>
  <fix>3d</fix>
</trkpt>
<trkpt lat="40.0713749" lon="-105.229789">
  <ele>1583.0</ele>
  <time>2026-08-28T17:56:19Z</time>
  <course>0.0</course>
  <speed>0.0</speed>
  <fix>3d</fix>
</trkpt>
<trkpt lat="40.0713752" lon="-105.2297889">
  <ele>1582.98</ele>
  <time>2026-08-28T17:56:19Z</time>
  <course>247.45</course>
  <speed>0.0316227766016838</speed>
  <fix>3d</fix>
</trkpt>
<trkpt lat="40.0713749" lon="-105.229789">
  <ele>1583.0</ele>
  <time>2026-08-28T17:56:19Z</time>
  <course>0.0</course>
  <speed>0.0</speed>
  <fix>3d</fix>
</trkpt>
<trkpt lat="40.0713752" lon="-105.2297888">
  <ele>1582.98</ele>
  <time>2026-08-28T17:56:19Z</time>
  <course>247.45</course>
  <speed>0.0316227766016838</speed>
  <fix>3d</fix>
</trkpt>
<trkpt lat="40.0713749" lon="-105.229789">
  <ele>1583.0</ele>
  <time>2026-08-28T17:56:19Z</time>
  <course>0.0</course>
  <speed>0.0</speed>
  <fix>3d</fix>
</trkpt>
<trkpt lat="40.0713753" lon="-105.2297888">
  <ele>1582.98</ele>
  <time>2026-08-28T17:56:19Z</time>
  <course>247.45</course>
  <speed>0.0316227766016838</speed>
  <fix>3d</fix>
</trkpt>
<trkpt lat="40.0713749" lon="-105.229789">
  <ele>1583.0</ele>
  <time>2026-08-28T17:56:19Z</time>
  <course>0.0</course>
  <speed>0.0</speed>
  <fix>3d</fix>
</trkpt>
<trkpt lat="40.0713753" lon="-105.2297888">
  <ele>1582.98</ele>
  <time>2026-08-28T17:56:19Z</time>
  <course>247.45</course>
  <speed>0.0316227766016838</speed>
  <fix>3d</fix>
</trkpt>
<trkpt lat="40.0713749" lon="-105.229789">
  <ele>1583.0</ele>
  <time>2026-08-28T17:56:19Z</time>
  <course>0.0</course>
  <speed>0.0</speed>
  <fix>3d</fix>
</trkpt>
<trkpt lat="40.0713753" lon="-105.2297888">
  <ele>1582.99</ele>
  <time>2026-08-28T17:56:19Z</time>
  <course>247.45</course>
  <speed>0.0316227766016838</speed>
  <fix>3d</fix>
</trkpt>
<trkpt lat="40.0713749" lon="-105.229789">
  <ele>1583.0</ele>
  <time>2026-08-28T17:56:19Z</time>
  <course>0.0</course>
  <speed>0.0</speed>
  <fix>3d</fix>
</trkpt>
<trkpt lat="40.0713754" lon="-105.2297888">
  <ele>1582.99</ele>
  <time>2026-08-28T17:56:19Z</time>
  <course>247.45</course>
  <speed>0.0316227766016838</speed>
  <fix>3d</fix>
</trkpt>
<trkpt lat="40.0713749" lon="-105.229789">
  <ele>1583.0</ele>
  <time>2026-08-28T17:56:19Z</time>
  <course>0.0</course>
  <speed>0.0</speed>
  <fix>3d</fix>
</trkpt>
<trkpt lat="40.0713754" lon="-105.2297887">
  <ele>1583.0</ele>
  <time>2026-08-28T17:56:19Z</time>
  <course>247.45</course>
  <speed>0.0412310562561766</speed>
  <fix>3d</fix>
</trkpt>
<trkpt lat="40.0713749" lon="-105.229789">
  <ele>1583.0</ele>
  <time>2026-08-28T17:56:19Z</time>
  <course>0.0</course>
  <speed>0.0</speed>
  <fix>3d</fix>
</trkpt>
<trkpt lat="40.0713755" lon="-105.2297887">
  <ele>1583.0</ele>
  <time>2026-08-28T17:56:19Z</time>
  <course>247.44</course>
  <speed>0.0412310562561766</speed>
  <fix>3d</fix>
</trkpt>
<trkpt lat="40.0713749" lon="-105.229789">
  <ele>1583.0</ele>
  <time>2026-08-28T17:56:19Z</time>
  <course>0.0</course>
  <speed>0.0</speed>
  <fix>3d</fix>
</trkpt>
<trkpt lat="40.0713755" lon="-105.2297887">
  <ele>1583.0</ele>
  <time>2026-08-28T17:56:19Z</time>
  <course>247.44</course>
  <speed>0.0412310562561766</speed>
  <fix>3d</fix>
</trkpt>
<trkpt lat="40.0713749" lon="-105.229789">
  <ele>1583.0</ele>
  <time>2026-08-28T17:56:19Z</time>
  <course>0.0</course>
  <speed>0.0</speed>
  <fix>3d</fix>
</trkpt>
<trkpt lat="40.0713755" lon="-105.2297887">
  <ele>1583.0</ele>
  <time>2026-08-28T17:56:19Z</time>
  <course>247.44</course>
  <speed>0.0412310562561766</speed>
  <fix>3d</fix>
</trkpt>
<trkpt lat="40.0713749" lon="-105.229789">
  <ele>1583.0</ele>
  <time>2026-08-28T17:56:19Z</time>
  <course>0.0</course>
  <speed>0.0</speed>
  <fix>3d</fix>
</trkpt>
<trkpt lat="40.0713756" lon="-105.2297886">
  <ele>1583.01</ele>
  <time>2026-08-28T17:56:19Z</time>
  <course>247.44</course>
  <speed>0.044721359549995794</speed>
  <fix>3d</fix>
</trkpt>
<trkpt lat="40.0713749" lon="-105.229789">
  <ele>1583.0</ele>
  <time>2026-08-28T17:56:19Z</time>
  <course>0.0</course>
  <speed>0.0</speed>
  <fix>3d</fix>
</trkpt>
<trkpt lat="40.0713756" lon="-105.2297886">
  <ele>1583.01</ele>
  <time>2026-08-28T17:56:19Z</time>
  <course>247.44</course>
  <speed>0.053851648071345036</speed>
  <fix>3d</fix>
</trkpt>
<trkpt lat="40.0713749" lon="-105.229789">
  <ele>1583.0</ele>
  <time>2026-08-28T17:56:19Z</time>
  <course>0.0</course>
  <speed>0.0</speed>
  <fix>3d</fix>
</trkpt>
<trkpt lat="40.0713757" lon="-105.2297886">
  <ele>1583.01</ele>
  <time>2026-08-28T17:56:19Z</time>
  <course>247.44</course>
  <speed>0.053851648071345036</speed>
  <fix>3d</fix>
</trkpt>
<trkpt lat="40.0713749" lon="-105.229789">
  <ele>1583.0</ele>
  <time>2026-08-28T17:56:19Z</time>
  <course>0.0</course>
  <speed>0.0</speed>
  <fix>3d</fix>
</trkpt>
<trkpt lat="40.0713757" lon="-105.2297886">
  <ele>1583.01</ele>
  <time>2026-08-28T17:56:19Z</time>
  <course>247.44</course>
  <speed>0.053851648071345036</speed>
  <fix>3d</fix>
</trkpt>
<trkpt lat="40.0713749" lon="-105.229789">
  <ele>1583.0</ele>
  <time>2026-08-28T17:56:19Z</time>
  <course>0.0</course>
  <speed>0.0</speed>
  <fix>3d</fix>
</trkpt>
<trkpt lat="40.0713758" lon="-105.2297885">
  <ele>1583.01</ele>
  <time>2026-08-28T17:56:19Z</time>
  <course>247.43</course>
  <speed>0.053851648071345036</speed>
  <fix>3d</fix>
</trkpt>
<trkpt lat="40.0713749" lon="-105.229789">
  <ele>1583.0</ele>
  <time>2026-08-28T17:56:19Z</time>
  <course>0.0</course>
  <speed>0.0</speed>
  <fix>3d</fix>
</trkpt>
<trkpt lat="40.0713758" lon="-105.2297885">
  <ele>1583.01</ele>
  <time>2026-08-28T17:56:19Z</time>
  <course>247.43</course>
  <speed>0.0632455532033676</speed>
  <fix>3d</fix>
</trkpt>
<trkpt lat="40.0713749" lon="-105.229789">
  <ele>1583.0</ele>
  <time>2026-08-28T17:56:19Z</time>
  <course>0.0</course>
  <speed>0.0</speed>
  <fix>3d</fix>
</trkpt>
<trkpt lat="40.0713759" lon="-105.2297885">
  <ele>1583.01</ele>
  <time>2026-08-28T17:56:19Z</time>
  <course>247.43</course>
  <speed>0.0632455532033676</speed>
  <fix>3d</fix>
</trkpt>
<trkpt lat="40.0713749" lon="-105.229789">
  <ele>1583.0</ele>
  <time>2026-08-28T17:56:19Z</time>
  <course>0.0</course>
  <speed>0.0</speed>
  <fix>3d</fix>
</trkpt>
<trkpt lat="40.071376" lon="-105.2297884">
  <ele>1583.01</ele>
  <time>2026-08-28T17:56:19Z</time>
  <course>247.43</course>
  <speed>0.0632455532033676</speed>
  <fix>3d</fix>
</trkpt>
<trkpt lat="40.0713749" lon="-105.229789">
  <ele>1583.0</ele>
  <time>2026-08-28T17:56:19Z</time>
  <course>0.0</course>
  <speed>0.0</speed>
  <fix>3d</fix>
</trkpt>
<trkpt lat="40.071376" lon="-105.2297884">
  <ele>1583.01</ele>
  <time>2026-08-28T17:56:19Z</time>
  <course>247.43</course>
  <speed>0.0632455532033676</speed>
  <fix>3d</fix>
</trkpt>
<trkpt lat="40.0713749" lon="-105.229789">
  <ele>1583.0</ele>
  <time>2026-08-28T17:56:19Z</time>
  <course>0.0</course>
  <speed>0.0</speed>
  <fix>3d</fix>
</trkpt>
<trkpt lat="40.0713761" lon="-105.2297884">
  <ele>1583.02</ele>
  <time>2026-08-28T17:56:19Z</time>
  <course>247.43</course>
  <speed>0.07280109889280519</speed>
  <fix>3d</fix>
</trkpt>
<trkpt lat="40.0713749" lon="-105.229789">
  <ele>1583.0</ele>
  <time>2026-08-28T17:56:19Z</time>
  <course>0.0</course>
  <speed>0.0</speed>
  <fix>3d</fix>
</trkpt>
<trkpt lat="40.0713762" lon="-105.2297883">
  <ele>1583.02</ele>
  <time>2026-08-28T17:56:19Z</time>
  <course>247.43</course>
  <speed>0.07615773105863909</speed>
  <fix>3d</fix>
</trkpt>
<trkpt lat="40.0713749" lon="-105.229789">
  <ele>1583.0</ele>
  <time>2026-08-28T17:56:19Z</time>
  <course>0.0</course>
  <speed>0.0</speed>
  <fix>3d</fix>
</trkpt>
<trkpt lat="40.0713762" lon="-105.2297883">
  <ele>1583.02</ele>
  <time>2026-08-28T17:56:19Z</time>
  <course>247.43</course>
  <speed>0.07615773105863909</speed>
  <fix>3d</fix>
</trkpt>
<trkpt lat="40.0713749" lon="-105.229789">
  <ele>1583.0</ele>
  <time>2026-08-28T17:56:19Z</time>
  <course>0.0</course>
  <speed>0.0</speed>
  <fix>3d</fix>
</trkpt>
<trkpt lat="40.0713763" lon="-105.2297883">
  <ele>1583.02</ele>
  <time>2026-08-28T17:56:19Z</time>
  <course>247.42</course>
  <speed>0.07615773105863909</speed>
  <fix>3d</fix>
</trkpt>
<trkpt lat="40.0713749" lon="-105.229789">
  <ele>1583.0</ele>
  <time>2026-08-28T17:56:19Z</time>
  <course>0.0</course>
  <speed>0.0</speed>
  <fix>3d</fix>
</trkpt>
<trkpt lat="40.0713764" lon="-105.2297882">
  <ele>1583.02</ele>
  <time>2026-08-28T17:56:19Z</time>
  <course>247.42</course>
  <speed>0.0854400374531753</speed>
  <fix>3d</fix>
</trkpt>
<trkpt lat="40.0713749" lon="-105.229789">
  <ele>1583.0</ele>
  <time>2026-08-28T17:56:19Z</time>
  <course>0.0</course>
  <speed>0.0</speed>
  <fix>3d</fix>
</trkpt>
<trkpt lat="40.0713764" lon="-105.2297882">
  <ele>1583.01</ele>
  <time>2026-08-28T17:56:19Z</time>
  <course>247.42</course>
  <speed>0.0854400374531753</speed>
  <fix>3d</fix>
</trkpt>
<trkpt lat="40.0713749" lon="-105.229789">
  <ele>1583.0</ele>
  <time>2026-08-28T17:56:19Z</time>
  <course>0.0</course>
  <speed>0.0</speed>
  <fix>3d</fix>
</trkpt>
<trkpt lat="40.0713765" lon="-105.2297881">
  <ele>1583.01</ele>
  <time>2026-08-28T17:56:19Z</time>
  <course>247.42</course>
  <speed>0.0854400374531753</speed>
  <fix>3d</fix>
</trkpt>
<trkpt lat="40.0713749" lon="-105.229789">
  <ele>1583.0</ele>
  <time>2026-08-28T17:56:19Z</time>
  <course>0.0</course>
  <speed>0.0</speed>
  <fix>3d</fix>
</trkpt>
<trkpt lat="40.0713766" lon="-105.2297881">
  <ele>1583.01</ele>
  <time>2026-08-28T17:56:19Z</time>
  <course>247.42</course>
  <speed>0.0854400374531753</speed>
  <fix>3d</fix>
</trkpt>
<trkpt lat="40.0713749" lon="-105.229789">
  <ele>1583.0</ele>
  <time>2026-08-28T17:56:19Z</time>
  <course>0.0</course>
  <speed>0.0</speed>
  <fix>3d</fix>
</trkpt>
<trkpt lat="40.0713767" lon="-105.2297881">
  <ele>1583.01</ele>
  <time>2026-08-28T17:56:19Z</time>
  <course>247.42</course>
  <speed>0.09486832980505139</speed>
  <fix>3d</fix>
</trkpt>
<trkpt lat="40.0713749" lon="-105.229789">
  <ele>1583.0</ele>
  <time>2026-08-28T17:56:19Z</time>
  <course>0.0</course>
  <speed>0.0</speed>
  <fix>3d</fix>
</trkpt>
<trkpt lat="40.0713767" lon="-105.229788">
  <ele>1583.01</ele>
  <time>2026-08-28T17:56:19Z</time>
  <course>247.42</course>
  <speed>0.09486832980505139</speed>
  <fix>3d</fix>
</trkpt>
<trkpt lat="40.0713749" lon="-105.229789">
  <ele>1583.0</ele>
  <time>2026-08-28T17:56:19Z</time>
  <course>0.0</course>
  <speed>0.0</speed>
  <fix>3d</fix>
</trkpt>
<trkpt lat="40.0713768" lon="-105.229788">
  <ele>1583.01</ele>
  <time>2026-08-28T17:56:19Z</time>
  <course>247.42</course>
  <speed>0.09848857801796104</speed>
  <fix>3d</fix>
</trkpt>
<trkpt lat="40.0713749" lon="-105.229789">
  <ele>1583.0</ele>
  <time>2026-08-28T17:56:19Z</time>
  <course>0.0</course>
  <speed>0.0</speed>
  <fix>3d</fix>
</trkpt>
<trkpt lat="40.0713769" lon="-105.2297879">
  <ele>1583.02</ele>
  <time>2026-08-28T17:56:19Z</time>
  <course>247.42</course>
  <speed>0.10770329614269007</speed>
  <fix>3d</fix>
</trkpt>
<trkpt lat="40.0713749" lon="-105.229789">
  <ele>1583.0</ele>
  <time>2026-08-28T17:56:19Z</time>
  <course>0.0</course>
  <speed>0.0</speed>
  <fix>3d</fix>
</trkpt>
<trkpt lat="40.071377" lon="-105.2297878">
  <ele>1583.02</ele>
  <time>2026-08-28T17:56:19Z</time>
  <course>247.42</course>
  <speed>0.10770329614269007</speed>
  <fix>3d</fix>
</trkpt>
<trkpt lat="40.0713749" lon="-105.229789">
  <ele>1583.0</ele>
  <time>2026-08-28T17:56:19Z</time>
  <course>0.0</course>
  <speed>0.0</speed>
  <fix>3d</fix>
</trkpt>
<trkpt lat="40.0713771" lon="-105.2297878">
  <ele>1583.02</ele>
  <time>2026-08-28T17:56:19Z</time>
  <course>247.41</course>
  <speed>0.10770329614269007</speed>
  <fix>3d</fix>
</trkpt>
<trkpt lat="40.0713749" lon="-105.229789">
  <ele>1583.0</ele>
  <time>2026-08-28T17:56:19Z</time>
  <course>0.0</course>
  <speed>0.0</speed>
  <fix>3d</fix>
</trkpt>
<trkpt lat="40.0713772" lon="-105.2297877">
  <ele>1583.02</ele>
  <time>2026-08-28T17:56:19Z</time>
  <course>247.41</course>
  <speed>0.10770329614269007</speed>
  <fix>3d</fix>
</trkpt>
<trkpt lat="40.0713749" lon="-105.229789">
  <ele>1583.0</ele>
  <time>2026-08-28T17:56:19Z</time>
  <course>0.0</course>
  <speed>0.0</speed>
  <fix>3d</fix>
</trkpt>
<trkpt lat="40.0713773" lon="-105.2297877">
  <ele>1583.02</ele>
  <time>2026-08-28T17:56:19Z</time>
  <course>247.41</course>
  <speed>0.11704699910719625</speed>
  <fix>3d</fix>
</trkpt>
<trkpt lat="40.0713749" lon="-105.229789">
  <ele>1583.0</ele>
  <time>2026-08-28T17:56:19Z</time>
  <course>0.0</course>
  <speed>0.0</speed>
  <fix>3d</fix>
</trkpt>
<trkpt lat="40.0713774" lon="-105.2297876">
  <ele>1583.02</ele>
  <time>2026-08-28T17:56:19Z</time>
  <course>247.41</course>
  <speed>0.11704699910719625</speed>
  <fix>3d</fix>
</trkpt>
<trkpt lat="40.0713749" lon="-105.229789">
  <ele>1583.0</ele>
  <time>2026-08-28T17:56:19Z</time>
  <course>0.0</course>
  <speed>0.0</speed>
  <fix>3d</fix>
</trkpt>
<trkpt lat="40.0713775" lon="-105.2297876">
  <ele>1583.02</ele>
  <time>2026-08-28T17:56:19Z</time>
  <course>247.41</course>
  <speed>0.11704699910719625</speed>
  <fix>3d</fix>
</trkpt>
<trkpt lat="40.0713749" lon="-105.229789">
  <ele>1583.0</ele>
  <time>2026-08-28T17:56:19Z</time>
  <course>0.0</course>
  <speed>0.0</speed>
  <fix>3d</fix>
</trkpt>
<trkpt lat="40.0713776" lon="-105.2297875">
  <ele>1583.03</ele>
  <time>2026-08-28T17:56:19Z</time>
  <course>247.41</course>
  <speed>0.13</speed>
  <fix>3d</fix>
</trkpt>
<trkpt lat="40.0713749" lon="-105.229789">
  <ele>1583.0</ele>
  <time>2026-08-28T17:56:19Z</time>
  <course>0.0</course>
  <speed>0.0</speed>
  <fix>3d</fix>
</trkpt>
<trkpt lat="40.0713778" lon="-105.2297875">
  <ele>1583.03</ele>
  <time>2026-08-28T17:56:19Z</time>
  <course>247.41</course>
  <speed>0.13</speed>
  <fix>3d</fix>
</trkpt>
<trkpt lat="40.0713749" lon="-105.229789">
  <ele>1583.0</ele>
  <time>2026-08-28T17:56:19Z</time>
  <course>0.0</course>
  <speed>0.0</speed>
  <fix>3d</fix>
</trkpt>
<trkpt lat="40.0713779" lon="-105.2297874">
  <ele>1583.03</ele>
  <time>2026-08-28T17:56:19Z</time>
  <course>247.41</course>
  <speed>0.13</speed>
  <fix>3d</fix>
</trkpt>
<trkpt lat="40.0713749" lon="-105.229789">
  <ele>1583.0</ele>
  <time>2026-08-28T17:56:19Z</time>
  <course>0.0</course>
  <speed>0.0</speed>
  <fix>3d</fix>
</trkpt>
<trkpt lat="40.071378" lon="-105.2297873">
  <ele>1583.03</ele>
  <time>2026-08-28T17:56:19Z</time>
  <course>247.41</course>
  <speed>0.1392838827718412</speed>
  <fix>3d</fix>
</trkpt>
<trkpt lat="40.0713749" lon="-105.229789">
  <ele>1583.0</ele>
  <time>2026-08-28T17:56:19Z</time>
  <course>0.0</course>
  <speed>0.0</speed>
  <fix>3d</fix>
</trkpt>
<trkpt lat="40.0713781" lon="-105.2297873">
  <ele>1583.03</ele>
  <time>2026-08-28T17:56:19Z</time>
  <course>247.41</course>
  <speed>0.1392838827718412</speed>
  <fix>3d</fix>
</trkpt>
<trkpt lat="40.0713749" lon="-105.229789">
  <ele>1583.0</ele>
  <time>2026-08-28T17:56:19Z</time>
  <course>0.0</course>
  <speed>0.0</speed>
  <fix>3d</fix>
</trkpt>
<trkpt lat="40.0713782" lon="-105.2297872">
  <ele>1583.03</ele>
  <time>2026-08-28T17:56:19Z</time>
  <course>247.41</course>
  <speed>0.1392838827718412</speed>
  <fix>3d</fix>
</trkpt>
<trkpt lat="40.0713749" lon="-105.229789">
  <ele>1583.0</ele>
  <time>2026-08-28T17:56:19Z</time>
  <course>0.0</course>
  <speed>0.0</speed>
  <fix>3d</fix>
</trkpt>
<trkpt lat="40.0713783" lon="-105.2297871">
  <ele>1583.03</ele>
  <time>2026-08-28T17:56:19Z</time>
  <course>247.4</course>
  <speed>0.14866068747318506</speed>
  <fix>3d</fix>
</trkpt>
<trkpt lat="40.0713749" lon="-105.229789">
  <ele>1583.0</ele>
  <time>2026-08-28T17:56:19Z</time>
  <course>0.0</course>
  <speed>0.0</speed>
  <fix>3d</fix>
</trkpt>
<trkpt lat="40.0713785" lon="-105.2297871">
  <ele>1583.03</ele>
  <time>2026-08-28T17:56:19Z</time>
  <course>247.4</course>
  <speed>0.15231546211727817</speed>
  <fix>3d</fix>
</trkpt>
<trkpt lat="40.0713749" lon="-105.229789">
  <ele>1583.0</ele>
  <time>2026-08-28T17:56:19Z</time>
  <course>0.0</course>
  <speed>0.0</speed>
  <fix>3d</fix>
</trkpt>
<trkpt lat="40.0713786" lon="-105.229787">
  <ele>1583.04</ele>
  <time>2026-08-28T17:56:19Z</time>
  <course>247.4</course>
  <speed>0.15231546211727817</speed>
  <fix>3d</fix>
</trkpt>
<trkpt lat="40.0713749" lon="-105.229789">
  <ele>1583.0</ele>
  <time>2026-08-28T17:56:19Z</time>
  <course>0.0</course>
  <speed>0.0</speed>
  <fix>3d</fix>
</trkpt>
<trkpt lat="40.0713787" lon="-105.2297869">
  <ele>1583.04</ele>
  <time>2026-08-28T17:56:19Z</time>
  <course>247.4</course>
  <speed>0.1615549442140351</speed>
  <fix>3d</fix>
</trkpt>
<trkpt lat="40.0713749" lon="-105.229789">
  <ele>1583.0</ele>
  <time>2026-08-28T17:56:19Z</time>
  <course>0.0</course>
  <speed>0.0</speed>
  <fix>3d</fix>
</trkpt>
<trkpt lat="40.0713789" lon="-105.2297868">
  <ele>1583.04</ele>
  <time>2026-08-28T17:56:19Z</time>
  <course>247.4</course>
  <speed>0.1615549442140351</speed>
  <fix>3d</fix>
</trkpt>
<trkpt lat="40.0713749" lon="-105.229789">
  <ele>1583.0</ele>
  <time>2026-08-28T17:56:19Z</time>
  <course>0.0</course>
  <speed>0.0</speed>
  <fix>3d</fix>
</trkpt>
<trkpt lat="40.071379" lon="-105.2297868">
  <ele>1583.04</ele>
  <time>2026-08-28T17:56:19Z</time>
  <course>247.4</course>
  <speed>0.1708800749063506</speed>
  <fix>3d</fix>
</trkpt>
<trkpt lat="40.0713749" lon="-105.229789">
  <ele>1583.0</ele>
  <time>2026-08-28T17:56:19Z</time>
  <course>0.0</course>
  <speed>0.0</speed>
  <fix>3d</fix>
</trkpt>
<trkpt lat="40.0713792" lon="-105.2297867">
  <ele>1583.04</ele>
  <time>2026-08-28T17:56:19Z</time>
  <course>247.4</course>
  <speed>0.1708800749063506</speed>
  <fix>3d</fix>
</trkpt>
<trkpt lat="40.0713749" lon="-105.229789">
  <ele>1583.0</ele>
  <time>2026-08-28T17:56:19Z</time>
  <course>0.0</course>
  <speed>0.0</speed>
  <fix>3d</fix>
</trkpt>
<trkpt lat="40.0713793" lon="-105.2297866">
  <ele>1583.04</ele>
  <time>2026-08-28T17:56:19Z</time>
  <course>247.4</course>
  <speed>0.1708800749063506</speed>
  <fix>3d</fix>
</trkpt>
<trkpt lat="40.0713749" lon="-105.229789">
  <ele>1583.0</ele>
  <time>2026-08-28T17:56:19Z</time>
  <course>0.0</course>
  <speed>0.0</speed>
  <fix>3d</fix>
</trkpt>
<trkpt lat="40.0713795" lon="-105.2297865">
  <ele>1583.04</ele>
  <time>2026-08-28T17:56:19Z</time>
  <course>247.4</course>
  <speed>0.18384776310850234</speed>
  <fix>3d</fix>
</trkpt>
<trkpt lat="40.0713749" lon="-105.229789">
  <ele>1583.0</ele>
  <time>2026-08-28T17:56:19Z</time>
  <course>0.0</course>
  <speed>0.0</speed>
  <fix>3d</fix>
</trkpt>
<trkpt lat="40.0713796" lon="-105.2297864">
  <ele>1583.04</ele>
  <time>2026-08-28T17:56:19Z</time>
  <course>247.4</course>
  <speed>0.18384776310850234</speed>
  <fix>3d</fix>
</trkpt>
<trkpt lat="40.0713749" lon="-105.229789">
  <ele>1583.0</ele>
  <time>2026-08-28T17:56:19Z</time>
  <course>0.0</course>
  <speed>0.0</speed>
  <fix>3d</fix>
</trkpt>
<trkpt lat="40.0713749" lon="-105.229789">
  <ele>1583.2</ele>
  <time>2026-08-28T17:56:19Z</time>
  <course>247.4</course>
  <speed>0.19313207915827968</speed>
  <fix>3d</fix>
</trkpt>
<trkpt lat="40.0713749" lon="-105.229789">
  <ele>1583.0</ele>
  <time>2026-08-28T17:56:19Z</time>
  <course>0.0</course>
  <speed>0.0</speed>
  <fix>3d</fix>
</trkpt>
<trkpt lat="40.0713749" lon="-105.229789">
  <ele>1582.83</ele>
  <time>2026-08-28T17:56:19Z</time>
  <course>247.4</course>
  <speed>0.19313207915827968</speed>
  <fix>3d</fix>
</trkpt>
<trkpt lat="40.0713749" lon="-105.229789">
  <ele>1583.0</ele>
  <time>2026-08-28T17:56:19Z</time>
  <course>0.0</course>
  <speed>0.0</speed>
  <fix>3d</fix>
</trkpt>
<trkpt lat="40.0713749" lon="-105.229789">
  <ele>1583.01</ele>
  <time>2026-08-28T17:56:19Z</time>
  <course>247.4</course>
  <speed>0.19313207915827968</speed>
  <fix>3d</fix>
</trkpt>
<trkpt lat="40.0713749" lon="-105.229789">
  <ele>1583.0</ele>
  <time>2026-08-28T17:56:19Z</time>
  <course>0.0</course>
  <speed>0.0</speed>
  <fix>3d</fix>
</trkpt>
<trkpt lat="40.0713749" lon="-105.229789">
  <ele>1583.18</ele>
  <time>2026-08-28T17:56:19Z</time>
  <course>247.4</course>
  <speed>0.20615528128088303</speed>
  <fix>3d</fix>
</trkpt>
<trkpt lat="40.0713749" lon="-105.229789">
  <ele>1583.0</ele>
  <time>2026-08-28T17:56:19Z</time>
  <course>0.0</course>
  <speed>0.0</speed>
  <fix>3d</fix>
</trkpt>
<trkpt lat="40.0713749" lon="-105.229789">
  <ele>1582.93</ele>
  <time>2026-08-28T17:56:19Z</time>
  <course>247.4</course>
  <speed>0.20615528128088303</speed>
  <fix>3d</fix>
</trkpt>
<trkpt lat="40.0713749" lon="-105.229789">
  <ele>1583.0</ele>
  <time>2026-08-28T17:56:19Z</time>
  <course>0.0</course>
  <speed>0.0</speed>
  <fix>3d</fix>
</trkpt>
<trkpt lat="40.0713749" lon="-105.229789">
  <ele>1583.03</ele>
  <time>2026-08-28T17:56:19Z</time>
  <course>247.4</course>
  <speed>0.21540659228538014</speed>
  <fix>3d</fix>
</trkpt>
<trkpt lat="40.0713749" lon="-105.229789">
  <ele>1583.0</ele>
  <time>2026-08-28T17:56:19Z</time>
  <course>0.0</course>
  <speed>0.0</speed>
  <fix>3d</fix>
</trkpt>
<trkpt lat="40.0713749" lon="-105.229789">
  <ele>1583.17</ele>
  <time>2026-08-28T17:56:19Z</time>
  <course>247.39</course>
  <speed>0.21540659228538014</speed>
  <fix>3d</fix>
</trkpt>
<trkpt lat="40.0713749" lon="-105.229789">
  <ele>1583.0</ele>
  <time>2026-08-28T17:56:19Z</time>
  <course>0.0</course>
  <speed>0.0</speed>
  <fix>3d</fix>
</trkpt>
<trkpt lat="40.0713749" lon="-105.229789">
  <ele>1583.19</ele>
  <time>2026-08-28T17:56:19Z</time>
  <course>247.39</course>
  <speed>0.22472205054244232</speed>
  <fix>3d</fix>
</trkpt>
<trkpt lat="40.0713749" lon="-105.229789">
  <ele>1583.0</ele>
  <time>2026-08-28T17:56:19Z</time>
  <course>0.0</course>
  <speed>0.0</speed>
  <fix>3d</fix>
</trkpt>
<trkpt lat="40.0713749" lon="-105.229789">
  <ele>1583.18</ele>
  <time>2026-08-28T17:56:19Z</time>
  <course>247.39</course>
  <speed>0.22472205054244232</speed>
  <fix>3d</fix>
</trkpt>
<trkpt lat="40.0713749" lon="-105.229789">
  <ele>1583.0</ele>
  <time>2026-08-28T17:56:19Z</time>
  <course>0.0</course>
  <speed>0.0</speed>
  <fix>3d</fix>
</trkpt>
<trkpt lat="40.0713749" lon="-105.229789">
  <ele>1583.18</ele>
  <time>2026-08-28T17:56:19Z</time>
  <course>247.39</course>
  <speed>0.22847319317591727</speed>
  <fix>3d</fix>
</trkpt>
<trkpt lat="40.0713749" lon="-105.229789">
  <ele>1583.0</ele>
  <time>2026-08-28T17:56:19Z</time>
  <course>0.0</course>
  <speed>0.0</speed>
  <fix>3d</fix>
</trkpt>
<trkpt lat="40.0713749" lon="-105.229789">
  <ele>1582.94</ele>
  <time>2026-08-28T17:56:19Z</time>
  <course>247.39</course>
  <speed>0.23769728648009425</speed>
  <fix>3d</fix>
</trkpt>
<trkpt lat="40.0713749" lon="-105.229789">
  <ele>1583.0</ele>
  <time>2026-08-28T17:56:19Z</time>
  <course>0.0</course>
  <speed>0.0</speed>
  <fix>3d</fix>
</trkpt>
<trkpt lat="40.0713749" lon="-105.229789">
  <ele>1583.18</ele>
  <time>2026-08-28T17:56:19Z</time>
  <course>247.39</course>
  <speed>0.0</speed>
  <fix>3d</fix>
</trkpt>
<trkpt lat="40.0713749" lon="-105.229789">
  <ele>1583.0</ele>
  <time>2026-08-28T17:56:19Z</time>
  <course>0.0</course>
  <speed>0.0</speed>
  <fix>3d</fix>
</trkpt>
<trkpt lat="40.0713749" lon="-105.229789">
  <ele>1582.91</ele>
  <time>2026-08-28T17:56:19Z</time>
  <course>247.39</course>
  <speed>0.0</speed>
  <fix>3d</fix>
</trkpt>
<trkpt lat="40.0713749" lon="-105.229789">
  <ele>1583.0</ele>
  <time>2026-08-28T17:56:19Z</time>
  <course>0.0</course>
  <speed>0.0</speed>
  <fix>3d</fix>
</trkpt>
<trkpt lat="40.0713749" lon="-105.229789">
  <ele>1583.19</ele>
  <time>2026-08-28T17:56:19Z</time>
  <course>247.39</course>
  <speed>0.01</speed>
  <fix>3d</fix>
</trkpt>
<trkpt lat="40.0713749" lon="-105.229789">
  <ele>1583.0</ele>
  <time>2026-08-28T17:56:19Z</time>
  <course>0.0</course>
  <speed>0.0</speed>
  <fix>3d</fix>
</trkpt>
<trkpt lat="40.0713749" lon="-105.229789">
  <ele>1583.1</ele>
  <time>2026-08-28T17:56:19Z</time>
  <course>247.39</course>
  <speed>0.01</speed>
  <fix>3d</fix>
</trkpt>
<trkpt lat="40.0713749" lon="-105.229789">
  <ele>1583.0</ele>
  <time>2026-08-28T17:56:19Z</time>
  <course>0.0</course>
  <speed>0.0</speed>
  <fix>3d</fix>
</trkpt>
<trkpt lat="40.0713749" lon="-105.229789">
  <ele>1583.2</ele>
  <time>2026-08-28T17:56:19Z</time>
  <course>247.39</course>
  <speed>0.022360679774997897</speed>
  <fix>3d</fix>
</trkpt>
<trkpt lat="40.0713749" lon="-105.229789">
  <ele>1583.0</ele>
  <time>2026-08-28T17:56:19Z</time>
  <course>0.0</course>
  <speed>0.0</speed>
  <fix>3d</fix>
</trkpt>
<trkpt lat="40.0713749" lon="-105.229789">
  <ele>1582.88</ele>
  <time>2026-08-28T17:56:19Z</time>
  <course>247.39</course>
  <speed>0.0316227766016838</speed>
  <fix>3d</fix>
</trkpt>
<trkpt lat="40.0713749" lon="-105.229789">
  <ele>1583.0</ele>
  <time>2026-08-28T17:56:19Z</time>
  <course>0.0</course>
  <speed>0.0</speed>
  <fix>3d</fix>
</trkpt>
<trkpt lat="40.0713749" lon="-105.229789">
  <ele>1582.82</ele>
  <time>2026-08-28T17:56:19Z</time>
  <course>247.39</course>
  <speed>0.0316227766016838</speed>
  <fix>3d</fix>
</trkpt>
<trkpt lat="40.0713749" lon="-105.229789">
  <ele>1583.0</ele>
  <time>2026-08-28T17:56:19Z</time>
  <course>0.0</course>
  <speed>0.0</speed>
  <fix>3d</fix>
</trkpt>
<trkpt lat="40.0713749" lon="-105.229789">
  <ele>1583.06</ele>
  <time>2026-08-28T17:56:19Z</time>
  <course>247.39</course>
  <speed>0.0412310562561766</speed>
  <fix>3d</fix>
</trkpt>
<trkpt lat="40.0713749" lon="-105.229789">
  <ele>1583.0</ele>
  <time>2026-08-28T17:56:19Z</time>
  <course>0.0</course>
  <speed>0.0</speed>
  <fix>3d</fix>
</trkpt>
<trkpt lat="40.0713749" lon="-105.229789">
  <ele>1582.97</ele>
  <time>2026-08-28T17:56:19Z</time>
  <course>247.39</course>
  <speed>0.0412310562561766</speed>
  <fix>3d</fix>
</trkpt>
<trkpt lat="40.0713749" lon="-105.229789">
  <ele>1583.0</ele>
  <time>2026-08-28T17:56:19Z</time>
  <course>0.0</course>
  <speed>0.0</speed>
  <fix>3d</fix>
</trkpt>
<trkpt lat="40.0713749" lon="-105.229789">
  <ele>1582.64</ele>
  <time>2026-08-28T17:56:19Z</time>
  <course>247.39</course>
  <speed>0.053851648071345036</speed>
  <fix>3d</fix>
</trkpt>
<trkpt lat="40.0713749" lon="-105.229789">
  <ele>1583.0</ele>
  <time>2026-08-28T17:56:19Z</time>
  <course>0.0</course>
  <speed>0.0</speed>
  <fix>3d</fix>
</trkpt>
<trkpt lat="40.0713749" lon="-105.229789">
  <ele>1582.99</ele>
  <time>2026-08-28T17:56:19Z</time>
  <course>247.39</course>
  <speed>0.053851648071345036</speed>
  <fix>3d</fix>
</trkpt>
<trkpt lat="40.0713749" lon="-105.229789">
  <ele>1583.0</ele>
  <time>2026-08-28T17:56:19Z</time>
  <course>0.0</course>
  <speed>0.0</speed>
  <fix>3d</fix>
</trkpt>
<trkpt lat="40.0713749" lon="-105.229789">
  <ele>1582.72</ele>
  <time>2026-08-28T17:56:19Z</time>
  <course>247.39</course>
  <speed>0.053851648071345036</speed>
  <fix>3d</fix>
</trkpt>
<trkpt lat="40.0713749" lon="-105.229789">
  <ele>1583.0</ele>
  <time>2026-08-28T17:56:19Z</time>
  <course>0.0</course>
  <speed>0.0</speed>
  <fix>3d</fix>
</trkpt>
<trkpt lat="40.0713749" lon="-105.229789">
  <ele>1582.83</ele>
  <time>2026-08-28T17:56:19Z</time>
  <course>247.39</course>
  <speed>0.0412310562561766</speed>
  <fix>3d</fix>
</trkpt>
<trkpt lat="40.0713749" lon="-105.229789">
  <ele>1583.0</ele>
  <time>2026-08-28T17:56:19Z</time>
  <course>0.0</course>
  <speed>0.0</speed>
  <fix>3d</fix>
</trkpt>
<trkpt lat="40.0713749" lon="-105.229789">
  <ele>1582.8</ele>
  <time>2026-08-28T17:56:19Z</time>
  <course>247.39</course>
  <speed>0.0316227766016838</speed>
  <fix>3d</fix>
</trkpt>
<trkpt lat="40.0713749" lon="-105.229789">
  <ele>1583.0</ele>
  <time>2026-08-28T17:56:19Z</time>
  <course>0.0</course>
  <speed>0.0</speed>
  <fix>3d</fix>
</trkpt>
<trkpt lat="40.0713749" lon="-105.229789">
  <ele>1582.82</ele>
  <time>2026-08-28T17:56:19Z</time>
  <course>247.39</course>
  <speed>0.0316227766016838</speed>
  <fix>3d</fix>
</trkpt>
<trkpt lat="40.0713749" lon="-105.229789">
  <ele>1583.0</ele>
  <time>2026-08-28T17:56:19Z</time>
  <course>0.0</course>
  <speed>0.0</speed>
  <fix>3d</fix>
</trkpt>
<trkpt lat="40.0713749" lon="-105.229789">
  <ele>1582.77</ele>
  <time>2026-08-28T17:56:19Z</time>
  <course>247.39</course>
  <speed>0.0316227766016838</speed>
  <fix>3d</fix>
</trkpt>
<trkpt lat="40.0713749" lon="-105.229789">
  <ele>1583.0</ele>
  <time>2026-08-28T17:56:19Z</time>
  <course>0.0</course>
  <speed>0.0</speed>
  <fix>3d</fix>
</trkpt>
<trkpt lat="40.0713749" lon="-105.229789">
  <ele>1582.86</ele>
  <time>2026-08-28T17:56:19Z</time>
  <course>247.39</course>
  <speed>0.0316227766016838</speed>
  <fix>3d</fix>
</trkpt>
<trkpt lat="40.0713749" lon="-105.229789">
  <ele>1583.0</ele>
  <time>2026-08-28T17:56:19Z</time>
  <course>0.0</course>
  <speed>0.0</speed>
  <fix>3d</fix>
</trkpt>
<trkpt lat="40.0713749" lon="-105.229789">
  <ele>1582.94</ele>
  <time>2026-08-28T17:56:20Z</time>
  <course>247.39</course>
  <speed>0.0412310562561766</speed>
  <fix>3d</fix>
</trkpt>
<trkpt lat="40.0713749" lon="-105.229789">
  <ele>1583.0</ele>
  <time>2026-08-28T17:56:20Z</time>
  <course>0.0</course>
  <speed>0.0</speed>
  <fix>3d</fix>
</trkpt>
<trkpt lat="40.0713749" lon="-105.229789">
  <ele>1583.04</ele>
  <time>2026-08-28T17:56:20Z</time>
  <course>247.39</course>
  <speed>0.0412310562561766</speed>
  <fix>3d</fix>
</trkpt>
<trkpt lat="40.0713749" lon="-105.229789">
  <ele>1583.0</ele>
  <time>2026-08-28T17:56:20Z</time>
  <course>0.0</course>
  <speed>0.0</speed>
  <fix>3d</fix>
</trkpt>
<trkpt lat="40.0713749" lon="-105.229789">
  <ele>1583.04</ele>
  <time>2026-08-28T17:56:20Z</time>
  <course>247.39</course>
  <speed>0.044721359549995794</speed>
  <fix>3d</fix>
</trkpt>
<trkpt lat="40.0713749" lon="-105.229789">
  <ele>1583.0</ele>
  <time>2026-08-28T17:56:20Z</time>
  <course>0.0</course>
  <speed>0.0</speed>
  <fix>3d</fix>
</trkpt>
<trkpt lat="40.0713749" lon="-105.229789">
  <ele>1582.83</ele>
  <time>2026-08-28T17:56:20Z</time>
  <course>247.39</course>
  <speed>0.053851648071345036</speed>
  <fix>3d</fix>
</trkpt>
<trkpt lat="40.0713749" lon="-105.229789">
  <ele>1583.0</ele>
  <time>2026-08-28T17:56:20Z</time>
  <course>0.0</course>
  <speed>0.0</speed>
  <fix>3d</fix>
</trkpt>
<trkpt lat="40.071375" lon="-105.2297889">
  <ele>1582.98</ele>
  <time>2026-08-28T17:56:20Z</time>
  <course>247.39</course>
  <speed>0.0412310562561766</speed>
  <fix>3d</fix>
</trkpt>
<trkpt lat="40.0713749" lon="-105.229789">
  <ele>1583.0</ele>
  <time>2026-08-28T17:56:20Z</time>
  <course>0.0</course>
  <speed>0.0</speed>
  <fix>3d</fix>
</trkpt>
<trkpt lat="40.071375" lon="-105.2297889">
  <ele>1582.98</ele>
  <time>2026-08-28T17:56:20Z</time>
  <course>247.38</course>
  <speed>0.0412310562561766</speed>
  <fix>3d</fix>
</trkpt>
<trkpt lat="40.0713749" lon="-105.229789">
  <ele>1583.0</ele>
  <time>2026-08-28T17:56:20Z</time>
  <course>0.0</course>
  <speed>0.0</speed>
  <fix>3d</fix>
</trkpt>
<trkpt lat="40.071375" lon="-105.2297889">
  <ele>1582.97</ele>
  <time>2026-08-28T17:56:20Z</time>
  <course>247.38</course>
  <speed>0.0316227766016838</speed>
  <fix>3d</fix>
</trkpt>
<trkpt lat="40.0713749" lon="-105.229789">
  <ele>1583.0</ele>
  <time>2026-08-28T17:56:20Z</time>
  <course>0.0</course>
  <speed>0.0</speed>
  <fix>3d</fix>
</trkpt>
<trkpt lat="40.071375" lon="-105.2297889">
  <ele>1582.97</ele>
  <time>2026-08-28T17:56:20Z</time>
  <course>247.38</course>
  <speed>0.0316227766016838</speed>
  <fix>3d</fix>
</trkpt>
<trkpt lat="40.0713749" lon="-105.229789">
  <ele>1583.0</ele>
  <time>2026-08-28T17:56:20Z</time>
  <course>0.0</course>
  <speed>0.0</speed>
  <fix>3d</fix>
</trkpt>
<trkpt lat="40.071375" lon="-105.2297889">
  <ele>1582.95</ele>
  <time>2026-08-28T17:56:20Z</time>
  <course>247.38</course>
  <speed>0.0316227766016838</speed>
  <fix>3d</fix>
</trkpt>
<trkpt lat="40.0713749" lon="-105.229789">
  <ele>1583.0</ele>
  <time>2026-08-28T17:56:20Z</time>
  <course>0.0</course>
  <speed>0.0</speed>
  <fix>3d</fix>
</trkpt>
<trkpt lat="40.071375" lon="-105.2297889">
  <ele>1582.94</ele>
  <time>2026-08-28T17:56:20Z</time>
  <course>247.38</course>
  <speed>0.0412310562561766</speed>
  <fix>3d</fix>
</trkpt>
<trkpt lat="40.0713749" lon="-105.229789">
  <ele>1583.0</ele>
  <time>2026-08-28T17:56:20Z</time>
  <course>0.0</course>
  <speed>0.0</speed>
  <fix>3d</fix>
</trkpt>
<trkpt lat="40.071375" lon="-105.2297889">
  <ele>1582.95</ele>
  <time>2026-08-28T17:56:20Z</time>
  <course>247.38</course>
  <speed>0.0412310562561766</speed>
  <fix>3d</fix>
</trkpt>
<trkpt lat="40.0713749" lon="-105.229789">
  <ele>1583.0</ele>
  <time>2026-08-28T17:56:20Z</time>
  <course>0.0</course>
  <speed>0.0</speed>
  <fix>3d</fix>
</trkpt>
<trkpt lat="40.071375" lon="-105.2297889">
  <ele>1582.95</ele>
  <time>2026-08-28T17:56:20Z</time>
  <course>247.38</course>
  <speed>0.0412310562561766</speed>
  <fix>3d</fix>
</trkpt>
<trkpt lat="40.0713749" lon="-105.229789">
  <ele>1583.0</ele>
  <time>2026-08-28T17:56:20Z</time>
  <course>0.0</course>
  <speed>0.0</speed>
  <fix>3d</fix>
</trkpt>
<trkpt lat="40.071375" lon="-105.2297889">
  <ele>1582.96</ele>
  <time>2026-08-28T17:56:20Z</time>
  <course>247.38</course>
  <speed>0.044721359549995794</speed>
  <fix>3d</fix>
</trkpt>
<trkpt lat="40.0713749" lon="-105.229789">
  <ele>1583.0</ele>
  <time>2026-08-28T17:56:20Z</time>
  <course>0.0</course>
  <speed>0.0</speed>
  <fix>3d</fix>
</trkpt>
<trkpt lat="40.071375" lon="-105.2297889">
  <ele>1582.97</ele>
  <time>2026-08-28T17:56:20Z</time>
  <course>247.38</course>
  <speed>0.053851648071345036</speed>
  <fix>3d</fix>
</trkpt>
<trkpt lat="40.0713749" lon="-105.229789">
  <ele>1583.0</ele>
  <time>2026-08-28T17:56:20Z</time>
  <course>0.0</course>
  <speed>0.0</speed>
  <fix>3d</fix>
</trkpt>
<trkpt lat="40.0713751" lon="-105.2297889">
  <ele>1582.98</ele>
  <time>2026-08-28T17:56:20Z</time>
  <course>247.38</course>
  <speed>0.053851648071345036</speed>
  <fix>3d</fix>
</trkpt>
<trkpt lat="40.0713749" lon="-105.229789">
  <ele>1583.0</ele>
  <time>2026-08-28T17:56:20Z</time>
  <course>0.0</course>
  <speed>0.0</speed>
  <fix>3d</fix>
</trkpt>
<trkpt lat="40.0713751" lon="-105.2297889">
  <ele>1582.98</ele>
  <time>2026-08-28T17:56:20Z</time>
  <course>247.38</course>
  <speed>0.053851648071345036</speed>
  <fix>3d</fix>
</trkpt>
<trkpt lat="40.0713749" lon="-105.229789">
  <ele>1583.0</ele>
  <time>2026-08-28T17:56:20Z</time>
  <course>0.0</course>
  <speed>0.0</speed>
  <fix>3d</fix>
</trkpt>
<trkpt lat="40.0713751" lon="-105.2297889">
  <ele>1582.99</ele>
  <time>2026-08-28T17:56:20Z</time>
  <course>247.38</course>
  <speed>0.053851648071345036</speed>
  <fix>3d</fix>
</trkpt>
<trkpt lat="40.0713749" lon="-105.229789">
  <ele>1583.0</ele>
  <time>2026-08-28T17:56:20Z</time>
  <course>0.0</course>
  <speed>0.0</speed>
  <fix>3d</fix>
</trkpt>
<trkpt lat="40.0713751" lon="-105.2297889">
  <ele>1583.0</ele>
  <time>2026-08-28T17:56:20Z</time>
  <course>247.38</course>
  <speed>0.053851648071345036</speed>
  <fix>3d</fix>
</trkpt>
<trkpt lat="40.0713749" lon="-105.229789">
  <ele>1583.0</ele>
  <time>2026-08-28T17:56:20Z</time>
  <course>0.0</course>
  <speed>0.0</speed>
  <fix>3d</fix>
</trkpt>
<trkpt lat="40.0713751" lon="-105.2297889">
  <ele>1583.0</ele>
  <time>2026-08-28T17:56:20Z</time>
  <course>247.38</course>
  <speed>0.053851648071345036</speed>
  <fix>3d</fix>
</trkpt>
<trkpt lat="40.0713749" lon="-105.229789">
  <ele>1583.0</ele>
  <time>2026-08-28T17:56:20Z</time>
  <course>0.0</course>
  <speed>0.0</speed>
  <fix>3d</fix>
</trkpt>
<trkpt lat="40.0713751" lon="-105.2297889">
  <ele>1583.0</ele>
  <time>2026-08-28T17:56:20Z</time>
  <course>247.38</course>
  <speed>0.053851648071345036</speed>
  <fix>3d</fix>
</trkpt>
<trkpt lat="40.0713749" lon="-105.229789">
  <ele>1583.0</ele>
  <time>2026-08-28T17:56:20Z</time>
  <course>0.0</course>
  <speed>0.0</speed>
  <fix>3d</fix>
</trkpt>
<trkpt lat="40.0713751" lon="-105.2297889">
  <ele>1583.0</ele>
  <time>2026-08-28T17:56:20Z</time>
  <course>247.38</course>
  <speed>0.053851648071345036</speed>
  <fix>3d</fix>
</trkpt>
<trkpt lat="40.0713749" lon="-105.229789">
  <ele>1583.0</ele>
  <time>2026-08-28T17:56:20Z</time>
  <course>0.0</course>
  <speed>0.0</speed>
  <fix>3d</fix>
</trkpt>
<trkpt lat="40.0713751" lon="-105.2297889">
  <ele>1583.0</ele>
  <time>2026-08-28T17:56:20Z</time>
  <course>247.38</course>
  <speed>0.053851648071345036</speed>
  <fix>3d</fix>
</trkpt>
<trkpt lat="40.0713749" lon="-105.229789">
  <ele>1583.0</ele>
  <time>2026-08-28T17:56:20Z</time>
  <course>0.0</course>
  <speed>0.0</speed>
  <fix>3d</fix>
</trkpt>
<trkpt lat="40.0713751" lon="-105.2297889">
  <ele>1583.01</ele>
  <time>2026-08-28T17:56:20Z</time>
  <course>247.38</course>
  <speed>0.053851648071345036</speed>
  <fix>3d</fix>
</trkpt>
<trkpt lat="40.0713749" lon="-105.229789">
  <ele>1583.0</ele>
  <time>2026-08-28T17:56:20Z</time>
  <course>0.0</course>
  <speed>0.0</speed>
  <fix>3d</fix>
</trkpt>
<trkpt lat="40.0713751" lon="-105.2297889">
  <ele>1583.01</ele>
  <time>2026-08-28T17:56:20Z</time>
  <course>247.38</course>
  <speed>0.053851648071345036</speed>
  <fix>3d</fix>
</trkpt>
<trkpt lat="40.0713749" lon="-105.229789">
  <ele>1583.0</ele>
  <time>2026-08-28T17:56:20Z</time>
  <course>0.0</course>
  <speed>0.0</speed>
  <fix>3d</fix>
</trkpt>
<trkpt lat="40.0713751" lon="-105.2297889">
  <ele>1583.02</ele>
  <time>2026-08-28T17:56:20Z</time>
  <course>247.38</course>
  <speed>0.044721359549995794</speed>
  <fix>3d</fix>
</trkpt>
<trkpt lat="40.0713749" lon="-105.229789">
  <ele>1583.0</ele>
  <time>2026-08-28T17:56:20Z</time>
  <course>0.0</course>
  <speed>0.0</speed>
  <fix>3d</fix>
</trkpt>
<trkpt lat="40.0713751" lon="-105.2297889">
  <ele>1583.02</ele>
  <time>2026-08-28T17:56:20Z</time>
  <course>247.38</course>
  <speed>0.0412310562561766</speed>
  <fix>3d</fix>
</trkpt>
<trkpt lat="40.0713749" lon="-105.229789">
  <ele>1583.0</ele>
  <time>2026-08-28T17:56:20Z</time>
  <course>0.0</course>
  <speed>0.0</speed>
  <fix>3d</fix>
</trkpt>
<trkpt lat="40.0713751" lon="-105.2297889">
  <ele>1583.03</ele>
  <time>2026-08-28T17:56:20Z</time>
  <course>247.38</course>
  <speed>0.0412310562561766</speed>
  <fix>3d</fix>
</trkpt>
<trkpt lat="40.0713749" lon="-105.229789">
  <ele>1583.0</ele>
  <time>2026-08-28T17:56:20Z</time>
  <course>0.0</course>
  <speed>0.0</speed>
  <fix>3d</fix>
</trkpt>
<trkpt lat="40.0713751" lon="-105.2297889">
  <ele>1583.03</ele>
  <time>2026-08-28T17:56:20Z</time>
  <course>247.38</course>
  <speed>0.0412310562561766</speed>
  <fix>3d</fix>
</trkpt>
<trkpt lat="40.0713749" lon="-105.229789">
  <ele>1583.0</ele>
  <time>2026-08-28T17:56:20Z</time>
  <course>0.0</course>
  <speed>0.0</speed>
  <fix>3d</fix>
</trkpt>
<trkpt lat="40.0713751" lon="-105.2297889">
  <ele>1583.03</ele>
  <time>2026-08-28T17:56:20Z</time>
  <course>247.37</course>
  <speed>0.0412310562561766</speed>
  <fix>3d</fix>
</trkpt>
<trkpt lat="40.0713749" lon="-105.229789">
  <ele>1583.0</ele>
  <time>2026-08-28T17:56:20Z</time>
  <course>0.0</course>
  <speed>0.0</speed>
  <fix>3d</fix>
</trkpt>
<trkpt lat="40.0713751" lon="-105.2297889">
  <ele>1583.02</ele>
  <time>2026-08-28T17:56:20Z</time>
  <course>247.37</course>
  <speed>0.0412310562561766</speed>
  <fix>3d</fix>
</trkpt>
<trkpt lat="40.0713749" lon="-105.229789">
  <ele>1583.0</ele>
  <time>2026-08-28T17:56:20Z</time>
  <course>0.0</course>
  <speed>0.0</speed>
  <fix>3d</fix>
</trkpt>
<trkpt lat="40.0713751" lon="-105.2297889">
  <ele>1583.02</ele>
  <time>2026-08-28T17:56:20Z</time>
  <course>247.37</course>
  <speed>0.0412310562561766</speed>
  <fix>3d</fix>
</trkpt>
<trkpt lat="40.0713749" lon="-105.229789">
  <ele>1583.0</ele>
  <time>2026-08-28T17:56:20Z</time>
  <course>0.0</course>
  <speed>0.0</speed>
  <fix>3d</fix>
</trkpt>
<trkpt lat="40.0713751" lon="-105.2297889">
  <ele>1583.01</ele>
  <time>2026-08-28T17:56:20Z</time>
  <course>247.37</course>
  <speed>0.0412310562561766</speed>
  <fix>3d</fix>
</trkpt>
<trkpt lat="40.0713749" lon="-105.229789">
  <ele>1583.0</ele>
  <time>2026-08-28T17:56:20Z</time>
  <course>0.0</course>
  <speed>0.0</speed>
  <fix>3d</fix>
</trkpt>
<trkpt lat="40.0713751" lon="-105.2297889">
  <ele>1583.0</ele>
  <time>2026-08-28T17:56:20Z</time>
  <course>247.37</course>
  <speed>0.0316227766016838</speed>
  <fix>3d</fix>
</trkpt>
<trkpt lat="40.0713749" lon="-105.229789">
  <ele>1583.0</ele>
  <time>2026-08-28T17:56:20Z</time>
  <course>0.0</course>
  <speed>0.0</speed>
  <fix>3d</fix>
</trkpt>
<trkpt lat="40.0713751" lon="-105.2297889">
  <ele>1582.99</ele>
  <time>2026-08-28T17:56:20Z</time>
  <course>247.37</course>
  <speed>0.0316227766016838</speed>
  <fix>3d</fix>
</trkpt>
<trkpt lat="40.0713749" lon="-105.229789">
  <ele>1583.0</ele>
  <time>2026-08-28T17:56:20Z</time>
  <course>0.0</course>
  <speed>0.0</speed>
  <fix>3d</fix>
</trkpt>
<trkpt lat="40.0713751" lon="-105.2297889">
  <ele>1582.98</ele>
  <time>2026-08-28T17:56:20Z</time>
  <course>247.37</course>
  <speed>0.0316227766016838</speed>
  <fix>3d</fix>
</trkpt>
<trkpt lat="40.0713749" lon="-105.229789">
  <ele>1583.0</ele>
  <time>2026-08-28T17:56:20Z</time>
  <course>0.0</course>
  <speed>0.0</speed>
  <fix>3d</fix>
</trkpt>
<trkpt lat="40.0713751" lon="-105.2297889">
  <ele>1582.97</ele>
  <time>2026-08-28T17:56:20Z</time>
  <course>247.37</course>
  <speed>0.0316227766016838</speed>
  <fix>3d</fix>
</trkpt>
<trkpt lat="40.0713749" lon="-105.229789">
  <ele>1583.0</ele>
  <time>2026-08-28T17:56:20Z</time>
  <course>0.0</course>
  <speed>0.0</speed>
  <fix>3d</fix>
</trkpt>
<trkpt lat="40.0713751" lon="-105.2297889">
  <ele>1582.97</ele>
  <time>2026-08-28T17:56:20Z</time>
  <course>247.37</course>
  <speed>0.0316227766016838</speed>
  <fix>3d</fix>
</trkpt>
<trkpt lat="40.0713749" lon="-105.229789">
  <ele>1583.0</ele>
  <time>2026-08-28T17:56:20Z</time>
  <course>0.0</course>
  <speed>0.0</speed>
  <fix>3d</fix>
</trkpt>
<trkpt lat="40.0713751" lon="-105.2297889">
  <ele>1582.97</ele>
  <time>2026-08-28T17:56:20Z</time>
  <course>247.37</course>
  <speed>0.0316227766016838</speed>
  <fix>3d</fix>
</trkpt>
<trkpt lat="40.0713749" lon="-105.229789">
  <ele>1583.0</ele>
  <time>2026-08-28T17:56:20Z</time>
  <course>0.0</course>
  <speed>0.0</speed>
  <fix>3d</fix>
</trkpt>
<trkpt lat="40.0713751" lon="-105.2297889">
  <ele>1582.97</ele>
  <time>2026-08-28T17:56:20Z</time>
  <course>247.37</course>
  <speed>0.0316227766016838</speed>
  <fix>3d</fix>
</trkpt>
<trkpt lat="40.0713749" lon="-105.229789">
  <ele>1583.0</ele>
  <time>2026-08-28T17:56:20Z</time>
  <course>0.0</course>
  <speed>0.0</speed>
  <fix>3d</fix>
</trkpt>
<trkpt lat="40.071375" lon="-105.2297889">
  <ele>1582.97</ele>
  <time>2026-08-28T17:56:20Z</time>
  <course>247.36</course>
  <speed>0.0316227766016838</speed>
  <fix>3d</fix>
</trkpt>
<trkpt lat="40.0713749" lon="-105.229789">
  <ele>1583.0</ele>
  <time>2026-08-28T17:56:20Z</time>
  <course>0.0</course>
  <speed>0.0</speed>
  <fix>3d</fix>
</trkpt>
<trkpt lat="40.071375" lon="-105.2297889">
  <ele>1582.98</ele>
  <time>2026-08-28T17:56:20Z</time>
  <course>247.36</course>
  <speed>0.022360679774997897</speed>
  <fix>3d</fix>
</trkpt>
<trkpt lat="40.0713749" lon="-105.229789">
  <ele>1583.0</ele>
  <time>2026-08-28T17:56:20Z</time>
  <course>0.0</course>
  <speed>0.0</speed>
  <fix>3d</fix>
</trkpt>
<trkpt lat="40.071375" lon="-105.2297889">
  <ele>1582.98</ele>
  <time>2026-08-28T17:56:20Z</time>
  <course>247.36</course>
  <speed>0.022360679774997897</speed>
  <fix>3d</fix>
</trkpt>
<trkpt lat="40.0713749" lon="-105.229789">
  <ele>1583.0</ele>
  <time>2026-08-28T17:56:20Z</time>
  <course>0.0</course>
  <speed>0.0</speed>
  <fix>3d</fix>
</trkpt>
<trkpt lat="40.071375" lon="-105.2297889">
  <ele>1582.99</ele>
  <time>2026-08-28T17:56:20Z</time>
  <course>247.36</course>
  <speed>0.022360679774997897</speed>
  <fix>3d</fix>
</trkpt>
<trkpt lat="40.0713749" lon="-105.229789">
  <ele>1583.0</ele>
  <time>2026-08-28T17:56:20Z</time>
  <course>0.0</course>
  <speed>0.0</speed>
  <fix>3d</fix>
</trkpt>
<trkpt lat="40.071375" lon="-105.2297889">
  <ele>1582.99</ele>
  <time>2026-08-28T17:56:20Z</time>
  <course>247.36</course>
  <speed>0.022360679774997897</speed>
  <fix>3d</fix>
</trkpt>
<trkpt lat="40.0713749" lon="-105.229789">
  <ele>1583.0</ele>
  <time>2026-08-28T17:56:20Z</time>
  <course>0.0</course>
  <speed>0.0</speed>
  <fix>3d</fix>
</trkpt>
<trkpt lat="40.071375" lon="-105.2297889">
  <ele>1583.0</ele>
  <time>2026-08-28T17:56:20Z</time>
  <course>247.36</course>
  <speed>0.022360679774997897</speed>
  <fix>3d</fix>
</trkpt>
<trkpt lat="40.0713749" lon="-105.229789">
  <ele>1583.0</ele>
  <time>2026-08-28T17:56:20Z</time>
  <course>0.0</course>
  <speed>0.0</speed>
  <fix>3d</fix>
</trkpt>
<trkpt lat="40.071375" lon="-105.2297889">
  <ele>1583.01</ele>
  <time>2026-08-28T17:56:20Z</time>
  <course>247.36</course>
  <speed>0.022360679774997897</speed>
  <fix>3d</fix>
</trkpt>
<trkpt lat="40.0713749" lon="-105.229789">
  <ele>1583.0</ele>
  <time>2026-08-28T17:56:20Z</time>
  <course>0.0</course>
  <speed>0.0</speed>
  <fix>3d</fix>
</trkpt>
<trkpt lat="40.071375" lon="-105.2297889">
  <ele>1583.01</ele>
  <time>2026-08-28T17:56:20Z</time>
  <course>247.36</course>
  <speed>0.022360679774997897</speed>
  <fix>3d</fix>
</trkpt>
<trkpt lat="40.0713749" lon="-105.229789">
  <ele>1583.0</ele>
  <time>2026-08-28T17:56:20Z</time>
  <course>0.0</course>
  <speed>0.0</speed>
  <fix>3d</fix>
</trkpt>
<trkpt lat="40.071375" lon="-105.2297889">
  <ele>1583.02</ele>
  <time>2026-08-28T17:56:20Z</time>
  <course>247.36</course>
  <speed>0.02</speed>
  <fix>3d</fix>
</trkpt>
<trkpt lat="40.0713749" lon="-105.229789">
  <ele>1583.0</ele>
  <time>2026-08-28T17:56:20Z</time>
  <course>0.0</course>
  <speed>0.0</speed>
  <fix>3d</fix>
</trkpt>
<trkpt lat="40.071375" lon="-105.2297889">
  <ele>1583.02</ele>
  <time>2026-08-28T17:56:20Z</time>
  <course>247.36</course>
  <speed>0.02</speed>
  <fix>3d</fix>
</trkpt>
<trkpt lat="40.0713749" lon="-105.229789">
  <ele>1583.0</ele>
  <time>2026-08-28T17:56:20Z</time>
  <course>0.0</course>
  <speed>0.0</speed>
  <fix>3d</fix>
</trkpt>
<trkpt lat="40.071375" lon="-105.2297889">
  <ele>1583.03</ele>
  <time>2026-08-28T17:56:20Z</time>
  <course>247.35</course>
  <speed>0.02</speed>
  <fix>3d</fix>
</trkpt>
<trkpt lat="40.0713749" lon="-105.229789">
  <ele>1583.0</ele>
  <time>2026-08-28T17:56:20Z</time>
  <course>0.0</course>
  <speed>0.0</speed>
  <fix>3d</fix>
</trkpt>
<trkpt lat="40.071375" lon="-105.2297889">
  <ele>1583.03</ele>
  <time>2026-08-28T17:56:20Z</time>
  <course>247.35</course>
  <speed>0.02</speed>
  <fix>3d</fix>
</trkpt>
<trkpt lat="40.0713749" lon="-105.229789">
  <ele>1583.0</ele>
  <time>2026-08-28T17:56:20Z</time>
  <course>0.0</course>
  <speed>0.0</speed>
  <fix>3d</fix>
</trkpt>
<trkpt lat="40.071375" lon="-105.2297889">
  <ele>1583.03</ele>
  <time>2026-08-28T17:56:20Z</time>
  <course>247.35</course>
  <speed>0.02</speed>
  <fix>3d</fix>
</trkpt>
<trkpt lat="40.0713749" lon="-105.229789">
  <ele>1583.0</ele>
  <time>2026-08-28T17:56:20Z</time>
  <course>0.0</course>
  <speed>0.0</speed>
  <fix>3d</fix>
</trkpt>
<trkpt lat="40.071375" lon="-105.2297889">
  <ele>1583.04</ele>
  <time>2026-08-28T17:56:20Z</time>
  <course>247.35</course>
  <speed>0.02</speed>
  <fix>3d</fix>
</trkpt>
<trkpt lat="40.0713749" lon="-105.229789">
  <ele>1583.0</ele>
  <time>2026-08-28T17:56:20Z</time>
  <course>0.0</course>
  <speed>0.0</speed>
  <fix>3d</fix>
</trkpt>
<trkpt lat="40.071375" lon="-105.2297889">
  <ele>1583.04</ele>
  <time>2026-08-28T17:56:20Z</time>
  <course>247.35</course>
  <speed>0.02</speed>
  <fix>3d</fix>
</trkpt>
<trkpt lat="40.0713749" lon="-105.229789">
  <ele>1583.0</ele>
  <time>2026-08-28T17:56:20Z</time>
  <course>0.0</course>
  <speed>0.0</speed>
  <fix>3d</fix>
</trkpt>
<trkpt lat="40.071375" lon="-105.2297889">
  <ele>1583.04</ele>
  <time>2026-08-28T17:56:20Z</time>
  <course>247.35</course>
  <speed>0.02</speed>
  <fix>3d</fix>
</trkpt>
<trkpt lat="40.0713749" lon="-105.229789">
  <ele>1583.0</ele>
  <time>2026-08-28T17:56:20Z</time>
  <course>0.0</course>
  <speed>0.0</speed>
  <fix>3d</fix>
</trkpt>
<trkpt lat="40.071375" lon="-105.2297889">
  <ele>1583.04</ele>
  <time>2026-08-28T17:56:20Z</time>
  <course>247.35</course>
  <speed>0.01</speed>
  <fix>3d</fix>
</trkpt>
<trkpt lat="40.0713749" lon="-105.229789">
  <ele>1583.0</ele>
  <time>2026-08-28T17:56:20Z</time>
  <course>0.0</course>
  <speed>0.0</speed>
  <fix>3d</fix>
</trkpt>
<trkpt lat="40.071375" lon="-105.2297889">
  <ele>1583.04</ele>
  <time>2026-08-28T17:56:20Z</time>
  <course>247.34</course>
  <speed>0.01</speed>
  <fix>3d</fix>
</trkpt>
<trkpt lat="40.0713749" lon="-105.229789">
  <ele>1583.0</ele>
  <time>2026-08-28T17:56:20Z</time>
  <course>245.99</course>
  <speed>0.0</speed>
  <fix>3d</fix>
</trkpt>
<trkpt lat="40.071375" lon="-105.2297889">
  <ele>1583.03</ele>
  <time>2026-08-28T17:56:20Z</time>
  <course>247.32</course>
  <speed>0.01</speed>
  <fix>3d</fix>
</trkpt>
<trkpt lat="40.0713749" lon="-105.229789">
  <ele>1583.0</ele>
  <time>2026-08-28T17:56:20Z</time>
  <course>245.99</course>
  <speed>0.0</speed>
  <fix>3d</fix>
</trkpt>
<trkpt lat="40.071375" lon="-105.2297889">
  <ele>1583.03</ele>
  <time>2026-08-28T17:56:20Z</time>
  <course>247.36</course>
  <speed>0.01</speed>
  <fix>3d</fix>
</trkpt>
<trkpt lat="40.0713749" lon="-105.229789">
  <ele>1583.0</ele>
  <time>2026-08-28T17:56:20Z</time>
  <course>245.97</course>
  <speed>0.0</speed>
  <fix>3d</fix>
</trkpt>
<trkpt lat="40.071375" lon="-105.229789">
  <ele>1583.03</ele>
  <time>2026-08-28T17:56:20Z</time>
  <course>247.48</course>
  <speed>0.03</speed>
  <fix>3d</fix>
</trkpt>
<trkpt lat="40.0713749" lon="-105.229789">
  <ele>1583.0</ele>
  <time>2026-08-28T17:56:20Z</time>
  <course>246.09</course>
  <speed>0.03</speed>
  <fix>3d</fix>
</trkpt>
<trkpt lat="40.071375" lon="-105.229789">
  <ele>1583.02</ele>
  <time>2026-08-28T17:56:20Z</time>
  <course>247.72</course>
  <speed>0.05</speed>
  <fix>3d</fix>
</trkpt>
<trkpt lat="40.0713749" lon="-105.229789">
  <ele>1583.0</ele>
  <time>2026-08-28T17:56:20Z</time>
  <course>246.09</course>
  <speed>0.03</speed>
  <fix>3d</fix>
</trkpt>
<trkpt lat="40.071375" lon="-105.2297891">
  <ele>1583.02</ele>
  <time>2026-08-28T17:56:20Z</time>
  <course>248.11</course>
  <speed>0.0824621125123532</speed>
  <fix>3d</fix>
</trkpt>
<trkpt lat="40.0713749" lon="-105.2297891">
  <ele>1583.0</ele>
  <time>2026-08-28T17:56:20Z</time>
  <course>246.57</course>
  <speed>0.07</speed>
  <fix>3d</fix>
</trkpt>
<trkpt lat="40.0713749" lon="-105.2297893">
  <ele>1583.01</ele>
  <time>2026-08-28T17:56:20Z</time>
  <course>248.73</course>
  <speed>0.12369316876852982</speed>
  <fix>3d</fix>
</trkpt>
<trkpt lat="40.0713749" lon="-105.2297891">
  <ele>1583.0</ele>
  <time>2026-08-28T17:56:20Z</time>
  <course>246.57</course>
  <speed>0.07</speed>
  <fix>3d</fix>
</trkpt>
<trkpt lat="40.0713749" lon="-105.2297894">
  <ele>1583.01</ele>
  <time>2026-08-28T17:56:20Z</time>
  <course>249.62</course>
  <speed>0.1649242250247064</speed>
  <fix>3d</fix>
</trkpt>
<trkpt lat="40.0713749" lon="-105.2297893">
  <ele>1583.0</ele>
  <time>2026-08-28T17:56:20Z</time>
  <course>247.74</course>
  <speed>0.14</speed>
  <fix>3d</fix>
</trkpt>
<trkpt lat="40.0713748" lon="-105.2297897">
  <ele>1583.0</ele>
  <time>2026-08-28T17:56:20Z</time>
  <course>250.85</course>
  <speed>0.20615528128088303</speed>
  <fix>3d</fix>
</trkpt>
<trkpt lat="40.0713749" lon="-105.2297893">
  <ele>1583.0</ele>
  <time>2026-08-28T17:56:20Z</time>
  <course>247.74</course>
  <speed>0.14</speed>
  <fix>3d</fix>
</trkpt>
<trkpt lat="40.0713748" lon="-105.22979">
  <ele>1583.0</ele>
  <time>2026-08-28T17:56:20Z</time>
  <course>252.41</course>
  <speed>0.2570992026436488</speed>
  <fix>3d</fix>
</trkpt>
<trkpt lat="40.0713748" lon="-105.2297897">
  <ele>1583.0</ele>
  <time>2026-08-28T17:56:20Z</time>
  <course>249.98</course>
  <speed>0.22</speed>
  <fix>3d</fix>
</trkpt>
<trkpt lat="40.0713747" lon="-105.2297903">
  <ele>1583.0</ele>
  <time>2026-08-28T17:56:20Z</time>
  <course>254.3</course>
  <speed>0.3080584360149873</speed>
  <fix>3d</fix>
</trkpt>
<trkpt lat="40.0713748" lon="-105.2297897">
  <ele>1583.0</ele>
  <time>2026-08-28T17:56:20Z</time>
  <course>249.98</course>
  <speed>0.22</speed>
  <fix>3d</fix>
</trkpt>
<trkpt lat="40.0713746" lon="-105.2297907">
  <ele>1583.0</ele>
  <time>2026-08-28T17:56:20Z</time>
  <course>256.49</course>
  <speed>0.366742416417845</speed>
  <fix>3d</fix>
</trkpt>
<trkpt lat="40.0713746" lon="-105.2297903">
  <ele>1583.0</ele>
  <time>2026-08-28T17:56:20Z</time>
  <course>253.45</course>
  <speed>0.32</speed>
  <fix>3d</fix>
</trkpt>
<trkpt lat="40.0713745" lon="-105.2297912">
  <ele>1583.0</ele>
  <time>2026-08-28T17:56:20Z</time>
  <course>259.02</course>
  <speed>0.4143669871020132</speed>
  <fix>3d</fix>
</trkpt>
<trkpt lat="40.0713746" lon="-105.2297903">
  <ele>1583.0</ele>
  <time>2026-08-28T17:56:20Z</time>
  <course>253.45</course>
  <speed>0.32</speed>
  <fix>3d</fix>
</trkpt>
<trkpt lat="40.0713745" lon="-105.2297917">
  <ele>1583.0</ele>
  <time>2026-08-28T17:56:20Z</time>
  <course>261.87</course>
  <speed>0.472652091923859</speed>
  <fix>3d</fix>
</trkpt>
<trkpt lat="40.0713745" lon="-105.2297911">
  <ele>1583.0</ele>
  <time>2026-08-28T17:56:20Z</time>
  <course>258.19</course>
  <speed>0.42</speed>
  <fix>3d</fix>
</trkpt>
<trkpt lat="40.0713744" lon="-105.2297923">
  <ele>1583.0</ele>
  <time>2026-08-28T17:56:20Z</time>
  <course>265.06</course>
  <speed>0.5308483775994799</speed>
  <fix>3d</fix>
</trkpt>
<trkpt lat="40.0713745" lon="-105.2297911">
  <ele>1583.0</ele>
  <time>2026-08-28T17:56:20Z</time>
  <course>258.19</course>
  <speed>0.42</speed>
  <fix>3d</fix>
</trkpt>
<trkpt lat="40.0713744" lon="-105.229793">
  <ele>1582.99</ele>
  <time>2026-08-28T17:56:20Z</time>
  <course>268.57</course>
  <speed>0.58</speed>
  <fix>3d</fix>
</trkpt>
<trkpt lat="40.0713743" lon="-105.2297922">
  <ele>1583.0</ele>
  <time>2026-08-28T17:56:20Z</time>
  <course>264.23</course>
  <speed>0.52</speed>
  <fix>3d</fix>
</trkpt>
<trkpt lat="40.0713744" lon="-105.2297937">
  <ele>1582.99</ele>
  <time>2026-08-28T17:56:20Z</time>
  <course>272.39</course>
  <speed>0.6312685640834652</speed>
  <fix>3d</fix>
</trkpt>
<trkpt lat="40.0713743" lon="-105.2297922">
  <ele>1583.0</ele>
  <time>2026-08-28T17:56:20Z</time>
  <course>264.23</course>
  <speed>0.52</speed>
  <fix>3d</fix>
</trkpt>
<trkpt lat="40.0713744" lon="-105.2297945">
  <ele>1582.99</ele>
  <time>2026-08-28T17:56:20Z</time>
  <course>276.5</course>
  <speed>0.6760177512462228</speed>
  <fix>3d</fix>
</trkpt>
<trkpt lat="40.0713743" lon="-105.2297922">
  <ele>1583.0</ele>
  <time>2026-08-28T17:56:20Z</time>
  <course>264.23</course>
  <speed>0.52</speed>
  <fix>3d</fix>
</trkpt>
<trkpt lat="40.0713745" lon="-105.2297953">
  <ele>1582.99</ele>
  <time>2026-08-28T17:56:20Z</time>
  <course>280.88</course>
  <speed>0.7158910531638176</speed>
  <fix>3d</fix>
</trkpt>
<trkpt lat="40.0713742" lon="-105.2297936">
  <ele>1583.0</ele>
  <time>2026-08-28T17:56:20Z</time>
  <course>271.55</course>
  <speed>0.62</speed>
  <fix>3d</fix>
</trkpt>
<trkpt lat="40.0713746" lon="-105.2297962">
  <ele>1582.99</ele>
  <time>2026-08-28T17:56:20Z</time>
  <course>285.52</course>
  <speed>0.7596051605933176</speed>
  <fix>3d</fix>
</trkpt>
<trkpt lat="40.0713742" lon="-105.2297936">
  <ele>1583.0</ele>
  <time>2026-08-28T17:56:20Z</time>
  <course>271.55</course>
  <speed>0.62</speed>
  <fix>3d</fix>
</trkpt>
<trkpt lat="40.0713748" lon="-105.229797">
  <ele>1582.98</ele>
  <time>2026-08-28T17:56:20Z</time>
  <course>290.38</course>
  <speed>0.7947955712005447</speed>
  <fix>3d</fix>
</trkpt>
<trkpt lat="40.0713743" lon="-105.2297951">
  <ele>1583.0</ele>
  <time>2026-08-28T17:56:20Z</time>
  <course>280.01</course>
  <speed>0.7</speed>
  <fix>3d</fix>
</trkpt>
<trkpt lat="40.0713751" lon="-105.2297979">
  <ele>1582.98</ele>
  <time>2026-08-28T17:56:20Z</time>
  <course>295.46</course>
  <speed>0.8273451516749222</speed>
  <fix>3d</fix>
</trkpt>
<trkpt lat="40.0713743" lon="-105.2297951">
  <ele>1583.0</ele>
  <time>2026-08-28T17:56:20Z</time>
  <course>280.01</course>
  <speed>0.7</speed>
  <fix>3d</fix>
</trkpt>
<trkpt lat="40.0713754" lon="-105.2297988">
  <ele>1582.98</ele>
  <time>2026-08-28T17:56:20Z</time>
  <course>300.72</course>
  <speed>0.8575546629807339</speed>
  <fix>3d</fix>
</trkpt>
<trkpt lat="40.0713746" lon="-105.2297968">
  <ele>1583.0</ele>
  <time>2026-08-28T17:56:20Z</time>
  <course>289.47</course>
  <speed>0.77</speed>
  <fix>3d</fix>
</trkpt>
<trkpt lat="40.0713759" lon="-105.2297996">
  <ele>1582.97</ele>
  <time>2026-08-28T17:56:20Z</time>
  <course>306.21</course>
  <speed>0.8860022573334675</speed>
  <fix>3d</fix>
</trkpt>
<trkpt lat="40.0713753" lon="-105.2297986">
  <ele>1583.0</ele>
  <time>2026-08-28T17:56:20Z</time>
  <course>299.78</course>
  <speed>0.83</speed>
  <fix>3d</fix>
</trkpt>
<trkpt lat="40.0713764" lon="-105.2298004">
  <ele>1582.97</ele>
  <time>2026-08-28T17:56:20Z</time>
  <course>311.83</course>
  <speed>0.9202173656261873</speed>
  <fix>3d</fix>
</trkpt>
<trkpt lat="40.0713753" lon="-105.2297986">
  <ele>1583.0</ele>
  <time>2026-08-28T17:56:20Z</time>
  <course>299.78</course>
  <speed>0.83</speed>
  <fix>3d</fix>
</trkpt>
<trkpt lat="40.071377" lon="-105.2298012">
  <ele>1582.97</ele>
  <time>2026-08-28T17:56:20Z</time>
  <course>317.61</course>
  <speed>0.9417536832951597</speed>
  <fix>3d</fix>
</trkpt>
<trkpt lat="40.0713761" lon="-105.2298002">
  <ele>1583.0</ele>
  <time>2026-08-28T17:56:20Z</time>
  <course>310.82</course>
  <speed>0.89</speed>
  <fix>3d</fix>
</trkpt>
<trkpt lat="40.0713776" lon="-105.2298019">
  <ele>1582.96</ele>
  <time>2026-08-28T17:56:20Z</time>
  <course>323.54</course>
  <speed>0.9741663102366043</speed>
  <fix>3d</fix>
</trkpt>
<trkpt lat="40.0713761" lon="-105.2298002">
  <ele>1583.0</ele>
  <time>2026-08-28T17:56:20Z</time>
  <course>310.82</course>
  <speed>0.89</speed>
  <fix>3d</fix>
</trkpt>
<trkpt lat="40.0713783" lon="-105.2298026">
  <ele>1582.96</ele>
  <time>2026-08-28T17:56:20Z</time>
  <course>324.74</course>
  <speed>0.9626006440887103</speed>
  <fix>3d</fix>
</trkpt>
<trkpt lat="40.0713773" lon="-105.2298017">
  <ele>1583.0</ele>
  <time>2026-08-28T17:56:20Z</time>
  <course>319.96</course>
  <speed>0.92</speed>
  <fix>3d</fix>
</trkpt>
<trkpt lat="40.071379" lon="-105.2298032">
  <ele>1582.95</ele>
  <time>2026-08-28T17:56:20Z</time>
  <course>324.74</course>
  <speed>0.912633551870629</speed>
  <fix>3d</fix>
</trkpt>
<trkpt lat="40.0713773" lon="-105.2298017">
  <ele>1583.0</ele>
  <time>2026-08-28T17:56:20Z</time>
  <course>319.96</course>
  <speed>0.92</speed>
  <fix>3d</fix>
</trkpt>
<trkpt lat="40.0713796" lon="-105.2298038">
  <ele>1582.95</ele>
  <time>2026-08-28T17:56:20Z</time>
  <course>324.73</course>
  <speed>0.876584280032445</speed>
  <fix>3d</fix>
</trkpt>
<trkpt lat="40.0713786" lon="-105.229803">
  <ele>1583.0</ele>
  <time>2026-08-28T17:56:20Z</time>
  <course>323.51</course>
  <speed>0.88</speed>
  <fix>3d</fix>
</trkpt>
<trkpt lat="40.0713802" lon="-105.2298044">
  <ele>1582.95</ele>
  <time>2026-08-28T17:56:20Z</time>
  <course>324.73</course>
  <speed>0.840535543567314</speed>
  <fix>3d</fix>
</trkpt>
<trkpt lat="40.0713786" lon="-105.229803">
  <ele>1583.0</ele>
  <time>2026-08-28T17:56:20Z</time>
  <course>323.51</course>
  <speed>0.88</speed>
  <fix>3d</fix>
</trkpt>
<trkpt lat="40.0713808" lon="-105.2298049">
  <ele>1582.95</ele>
  <time>2026-08-28T17:56:20Z</time>
  <course>324.73</course>
  <speed>0.7988116173416608</speed>
  <fix>3d</fix>
</trkpt>
<trkpt lat="40.0713798" lon="-105.2298042">
  <ele>1583.0</ele>
  <time>2026-08-28T17:56:20Z</time>
  <course>323.51</course>
  <speed>0.8</speed>
  <fix>3d</fix>
</trkpt>
<trkpt lat="40.0713814" lon="-105.2298054">
  <ele>1582.95</ele>
  <time>2026-08-28T17:56:20Z</time>
  <course>324.73</course>
  <speed>0.7627581530209953</speed>
  <fix>3d</fix>
</trkpt>
<trkpt lat="40.0713798" lon="-105.2298042">
  <ele>1583.0</ele>
  <time>2026-08-28T17:56:20Z</time>
  <course>323.51</course>
  <speed>0.8</speed>
  <fix>3d</fix>
</trkpt>
<trkpt lat="40.0713819" lon="-105.2298059">
  <ele>1582.94</ele>
  <time>2026-08-28T17:56:20Z</time>
  <course>324.73</course>
  <speed>0.7267048919609665</speed>
  <fix>3d</fix>
</trkpt>
<trkpt lat="40.071381" lon="-105.2298053">
  <ele>1583.0</ele>
  <time>2026-08-28T17:56:20Z</time>
  <course>323.51</course>
  <speed>0.72</speed>
  <fix>3d</fix>
</trkpt>
<trkpt lat="40.0713824" lon="-105.2298064">
  <ele>1582.94</ele>
  <time>2026-08-28T17:56:20Z</time>
  <course>324.73</course>
  <speed>0.6963476143421474</speed>
  <fix>3d</fix>
</trkpt>
<trkpt lat="40.071381" lon="-105.2298053">
  <ele>1583.0</ele>
  <time>2026-08-28T17:56:20Z</time>
  <course>323.51</course>
  <speed>0.72</speed>
  <fix>3d</fix>
</trkpt>
<trkpt lat="40.0713829" lon="-105.2298069">
  <ele>1582.94</ele>
  <time>2026-08-28T17:56:20Z</time>
  <course>324.73</course>
  <speed>0.660302960768767</speed>
  <fix>3d</fix>
</trkpt>
<trkpt lat="40.071382" lon="-105.2298062">
  <ele>1583.0</ele>
  <time>2026-08-28T17:56:20Z</time>
  <course>323.51</course>
  <speed>0.65</speed>
  <fix>3d</fix>
</trkpt>
<trkpt lat="40.0713833" lon="-105.2298073">
  <ele>1582.94</ele>
  <time>2026-08-28T17:56:20Z</time>
  <course>324.74</course>
  <speed>0.6324555320336759</speed>
  <fix>3d</fix>
</trkpt>
<trkpt lat="40.071382" lon="-105.2298062">
  <ele>1583.0</ele>
  <time>2026-08-28T17:56:20Z</time>
  <course>323.51</course>
  <speed>0.65</speed>
  <fix>3d</fix>
</trkpt>
<trkpt lat="40.0713837" lon="-105.2298077">
  <ele>1582.95</ele>
  <time>2026-08-28T17:56:20Z</time>
  <course>324.74</course>
  <speed>0.6103277807866851</speed>
  <fix>3d</fix>
</trkpt>
<trkpt lat="40.071382" lon="-105.2298062">
  <ele>1583.0</ele>
  <time>2026-08-28T17:56:20Z</time>
  <course>323.51</course>
  <speed>0.65</speed>
  <fix>3d</fix>
</trkpt>
<trkpt lat="40.0713841" lon="-105.2298081">
  <ele>1582.95</ele>
  <time>2026-08-28T17:56:20Z</time>
  <course>324.74</course>
  <speed>0.5742821606144493</speed>
  <fix>3d</fix>
</trkpt>
<trkpt lat="40.0713829" lon="-105.2298071">
  <ele>1583.0</ele>
  <time>2026-08-28T17:56:20Z</time>
  <course>323.51</course>
  <speed>0.59</speed>
  <fix>3d</fix>
</trkpt>
<trkpt lat="40.0713845" lon="-105.2298084">
  <ele>1582.95</ele>
  <time>2026-08-28T17:56:20Z</time>
  <course>324.74</course>
  <speed>0.5521775076911409</speed>
  <fix>3d</fix>
</trkpt>
<trkpt lat="40.0713829" lon="-105.2298071">
  <ele>1583.0</ele>
  <time>2026-08-28T17:56:20Z</time>
  <course>323.51</course>
  <speed>0.59</speed>
  <fix>3d</fix>
</trkpt>
<trkpt lat="40.0713848" lon="-105.2298088">
  <ele>1582.95</ele>
  <time>2026-08-28T17:56:20Z</time>
  <course>324.74</course>
  <speed>0.5243090691567331</speed>
  <fix>3d</fix>
</trkpt>
<trkpt lat="40.0713837" lon="-105.2298079">
  <ele>1583.0</ele>
  <time>2026-08-28T17:56:20Z</time>
  <course>323.51</course>
  <speed>0.53</speed>
  <fix>3d</fix>
</trkpt>
<trkpt lat="40.0713852" lon="-105.2298091">
  <ele>1582.96</ele>
  <time>2026-08-28T17:56:20Z</time>
  <course>324.75</course>
  <speed>0.5021951811795887</speed>
  <fix>3d</fix>
</trkpt>
<trkpt lat="40.0713837" lon="-105.2298079">
  <ele>1583.0</ele>
  <time>2026-08-28T17:56:20Z</time>
  <course>323.51</course>
  <speed>0.53</speed>
  <fix>3d</fix>
</trkpt>
<trkpt lat="40.0713855" lon="-105.2298094">
  <ele>1582.96</ele>
  <time>2026-08-28T17:56:20Z</time>
  <course>324.75</course>
  <speed>0.4743416490252569</speed>
  <fix>3d</fix>
</trkpt>
<trkpt lat="40.0713844" lon="-105.2298086">
  <ele>1583.0</ele>
  <time>2026-08-28T17:56:20Z</time>
  <course>323.51</course>
  <speed>0.48</speed>
  <fix>3d</fix>
</trkpt>
<trkpt lat="40.0713858" lon="-105.2298097">
  <ele>1582.96</ele>
  <time>2026-08-28T17:56:20Z</time>
  <course>324.75</course>
  <speed>0.4522167621838005</speed>
  <fix>3d</fix>
</trkpt>
<trkpt lat="40.0713844" lon="-105.2298086">
  <ele>1583.0</ele>
  <time>2026-08-28T17:56:20Z</time>
  <course>323.51</course>
  <speed>0.48</speed>
  <fix>3d</fix>
</trkpt>
<trkpt lat="40.0713861" lon="-105.22981">
  <ele>1582.96</ele>
  <time>2026-08-28T17:56:20Z</time>
  <course>324.75</course>
  <speed>0.4301162633521314</speed>
  <fix>3d</fix>
</trkpt>
<trkpt lat="40.0713851" lon="-105.2298093">
  <ele>1583.0</ele>
  <time>2026-08-28T17:56:20Z</time>
  <course>323.51</course>
  <speed>0.44</speed>
  <fix>3d</fix>
</trkpt>
<trkpt lat="40.0713863" lon="-105.2298103">
  <ele>1582.96</ele>
  <time>2026-08-28T17:56:20Z</time>
  <course>324.75</course>
  <speed>0.4080441152620633</speed>
  <fix>3d</fix>
</trkpt>
<trkpt lat="40.0713856" lon="-105.2298098">
  <ele>1583.0</ele>
  <time>2026-08-28T17:56:20Z</time>
  <course>323.51</course>
  <speed>0.39</speed>
  <fix>3d</fix>
</trkpt>
<trkpt lat="40.0713866" lon="-105.2298105">
  <ele>1582.96</ele>
  <time>2026-08-28T17:56:20Z</time>
  <course>324.75</course>
  <speed>0.39408120990476064</speed>
  <fix>3d</fix>
</trkpt>
<trkpt lat="40.0713856" lon="-105.2298098">
  <ele>1583.0</ele>
  <time>2026-08-28T17:56:20Z</time>
  <course>323.51</course>
  <speed>0.39</speed>
  <fix>3d</fix>
</trkpt>
<trkpt lat="40.0713868" lon="-105.2298108">
  <ele>1582.96</ele>
  <time>2026-08-28T17:56:20Z</time>
  <course>324.75</course>
  <speed>0.3720215047547655</speed>
  <fix>3d</fix>
</trkpt>
<trkpt lat="40.0713862" lon="-105.2298104">
  <ele>1583.0</ele>
  <time>2026-08-28T17:56:20Z</time>
  <course>323.51</course>
  <speed>0.36</speed>
  <fix>3d</fix>
</trkpt>
<trkpt lat="40.071387" lon="-105.229811">
  <ele>1582.96</ele>
  <time>2026-08-28T17:56:20Z</time>
  <course>324.76</course>
  <speed>0.35805027579936316</speed>
  <fix>3d</fix>
</trkpt>
<trkpt lat="40.0713862" lon="-105.2298104">
  <ele>1583.0</ele>
  <time>2026-08-28T17:56:20Z</time>
  <course>323.51</course>
  <speed>0.36</speed>
  <fix>3d</fix>
</trkpt>
<trkpt lat="40.0713873" lon="-105.2298112">
  <ele>1582.96</ele>
  <time>2026-08-28T17:56:20Z</time>
  <course>324.76</course>
  <speed>0.33600595232822883</speed>
  <fix>3d</fix>
</trkpt>
<trkpt lat="40.0713867" lon="-105.2298108">
  <ele>1583.0</ele>
  <time>2026-08-28T17:56:20Z</time>
  <course>323.51</course>
  <speed>0.32</speed>
  <fix>3d</fix>
</trkpt>
<trkpt lat="40.0713875" lon="-105.2298115">
  <ele>1582.96</ele>
  <time>2026-08-28T17:56:20Z</time>
  <course>324.76</course>
  <speed>0.32202484376209234</speed>
  <fix>3d</fix>
</trkpt>
<trkpt lat="40.0713867" lon="-105.2298108">
  <ele>1583.0</ele>
  <time>2026-08-28T17:56:20Z</time>
  <course>323.51</course>
  <speed>0.32</speed>
  <fix>3d</fix>
</trkpt>
<trkpt lat="40.0713877" lon="-105.2298117">
  <ele>1582.96</ele>
  <time>2026-08-28T17:56:20Z</time>
  <course>324.76</course>
  <speed>0.3080584360149873</speed>
  <fix>3d</fix>
</trkpt>
<trkpt lat="40.0713872" lon="-105.2298113">
  <ele>1583.0</ele>
  <time>2026-08-28T17:56:20Z</time>
  <course>323.51</course>
  <speed>0.29</speed>
  <fix>3d</fix>
</trkpt>
<trkpt lat="40.0713878" lon="-105.2298118">
  <ele>1582.96</ele>
  <time>2026-08-28T17:56:20Z</time>
  <course>324.76</course>
  <speed>0.28600699292150183</speed>
  <fix>3d</fix>
</trkpt>
<trkpt lat="40.0713872" lon="-105.2298113">
  <ele>1583.0</ele>
  <time>2026-08-28T17:56:20Z</time>
  <course>323.51</course>
  <speed>0.29</speed>
  <fix>3d</fix>
</trkpt>
<trkpt lat="40.071388" lon="-105.229812">
  <ele>1582.96</ele>
  <time>2026-08-28T17:56:20Z</time>
  <course>324.76</course>
  <speed>0.2720294101747089</speed>
  <fix>3d</fix>
</trkpt>
<trkpt lat="40.0713875" lon="-105.2298117">
  <ele>1583.0</ele>
  <time>2026-08-28T17:56:20Z</time>
  <course>323.51</course>
  <speed>0.26</speed>
  <fix>3d</fix>
</trkpt>
<trkpt lat="40.0713882" lon="-105.2298122">
  <ele>1582.95</ele>
  <time>2026-08-28T17:56:20Z</time>
  <course>324.76</course>
  <speed>0.2580697580112788</speed>
  <fix>3d</fix>
</trkpt>
<trkpt lat="40.0713875" lon="-105.2298117">
  <ele>1583.0</ele>
  <time>2026-08-28T17:56:20Z</time>
  <course>323.51</course>
  <speed>0.26</speed>
  <fix>3d</fix>
</trkpt>
<trkpt lat="40.0713884" lon="-105.2298124">
  <ele>1582.94</ele>
  <time>2026-08-28T17:56:20Z</time>
  <course>324.76</course>
  <speed>0.25</speed>
  <fix>3d</fix>
</trkpt>
<trkpt lat="40.071388" lon="-105.229812">
  <ele>1583.0</ele>
  <time>2026-08-28T17:56:20Z</time>
  <course>323.51</course>
  <speed>0.24</speed>
  <fix>3d</fix>
</trkpt>
<trkpt lat="40.0713885" lon="-105.2298125">
  <ele>1582.94</ele>
  <time>2026-08-28T17:56:20Z</time>
  <course>324.76</course>
  <speed>0.23600847442411893</speed>
  <fix>3d</fix>
</trkpt>
<trkpt lat="40.071388" lon="-105.229812">
  <ele>1583.0</ele>
  <time>2026-08-28T17:56:20Z</time>
  <course>323.51</course>
  <speed>0.24</speed>
  <fix>3d</fix>
</trkpt>
<trkpt lat="40.0713886" lon="-105.2298127">
  <ele>1582.94</ele>
  <time>2026-08-28T17:56:20Z</time>
  <course>324.76</course>
  <speed>0.2220360331117452</speed>
  <fix>3d</fix>
</trkpt>
<trkpt lat="40.0713883" lon="-105.2298123">
  <ele>1583.0</ele>
  <time>2026-08-28T17:56:20Z</time>
  <course>323.51</course>
  <speed>0.21</speed>
  <fix>3d</fix>
</trkpt>
<trkpt lat="40.0713888" lon="-105.2298128">
  <ele>1582.93</ele>
  <time>2026-08-28T17:56:20Z</time>
  <course>324.77</course>
  <speed>0.21400934559032694</speed>
  <fix>3d</fix>
</trkpt>
<trkpt lat="40.0713883" lon="-105.2298123">
  <ele>1583.0</ele>
  <time>2026-08-28T17:56:20Z</time>
  <course>323.51</course>
  <speed>0.21</speed>
  <fix>3d</fix>
</trkpt>
<trkpt lat="40.0713889" lon="-105.2298129">
  <ele>1582.93</ele>
  <time>2026-08-28T17:56:20Z</time>
  <course>324.77</course>
  <speed>0.2</speed>
  <fix>3d</fix>
</trkpt>
<trkpt lat="40.0713883" lon="-105.2298123">
  <ele>1583.0</ele>
  <time>2026-08-28T17:56:20Z</time>
  <course>323.51</course>
  <speed>0.21</speed>
  <fix>3d</fix>
</trkpt>
<trkpt lat="40.071389" lon="-105.229813">
  <ele>1582.93</ele>
  <time>2026-08-28T17:56:20Z</time>
  <course>324.77</course>
  <speed>0.18601075237738274</speed>
  <fix>3d</fix>
</trkpt>
<trkpt lat="40.0713886" lon="-105.2298126">
  <ele>1583.0</ele>
  <time>2026-08-28T17:56:20Z</time>
  <course>323.51</course>
  <speed>0.19</speed>
  <fix>3d</fix>
</trkpt>
<trkpt lat="40.0713892" lon="-105.2298132">
  <ele>1582.93</ele>
  <time>2026-08-28T17:56:20Z</time>
  <course>324.77</course>
  <speed>0.18601075237738274</speed>
  <fix>3d</fix>
</trkpt>
<trkpt lat="40.0713886" lon="-105.2298126">
  <ele>1583.0</ele>
  <time>2026-08-28T17:56:20Z</time>
  <course>323.51</course>
  <speed>0.19</speed>
  <fix>3d</fix>
</trkpt>
<trkpt lat="40.0713893" lon="-105.2298133">
  <ele>1582.93</ele>
  <time>2026-08-28T17:56:20Z</time>
  <course>324.77</course>
  <speed>0.17204650534085253</speed>
  <fix>3d</fix>
</trkpt>
<trkpt lat="40.0713889" lon="-105.2298129">
  <ele>1583.0</ele>
  <time>2026-08-28T17:56:20Z</time>
  <course>323.51</course>
  <speed>0.17</speed>
  <fix>3d</fix>
</trkpt>
<trkpt lat="40.0713894" lon="-105.2298134">
  <ele>1582.93</ele>
  <time>2026-08-28T17:56:20Z</time>
  <course>324.77</course>
  <speed>0.16401219466856726</speed>
  <fix>3d</fix>
</trkpt>
<trkpt lat="40.0713889" lon="-105.2298129">
  <ele>1583.0</ele>
  <time>2026-08-28T17:56:20Z</time>
  <course>323.51</course>
  <speed>0.17</speed>
  <fix>3d</fix>
</trkpt>
<trkpt lat="40.0713895" lon="-105.2298135">
  <ele>1582.94</ele>
  <time>2026-08-28T17:56:20Z</time>
  <course>324.77</course>
  <speed>0.15</speed>
  <fix>3d</fix>
</trkpt>
<trkpt lat="40.0713891" lon="-105.2298132">
  <ele>1583.0</ele>
  <time>2026-08-28T17:56:20Z</time>
  <course>323.51</course>
  <speed>0.16</speed>
  <fix>3d</fix>
</trkpt>
<trkpt lat="40.0713896" lon="-105.2298136">
  <ele>1582.94</ele>
  <time>2026-08-28T17:56:20Z</time>
  <course>324.77</course>
  <speed>0.15</speed>
  <fix>3d</fix>
</trkpt>
<trkpt lat="40.0713894" lon="-105.2298133">
  <ele>1583.0</ele>
  <time>2026-08-28T17:56:20Z</time>
  <course>323.51</course>
  <speed>0.14</speed>
  <fix>3d</fix>
</trkpt>
<trkpt lat="40.0713897" lon="-105.2298136">
  <ele>1582.95</ele>
  <time>2026-08-28T17:56:20Z</time>
  <course>324.77</course>
  <speed>0.13601470508735444</speed>
  <fix>3d</fix>
</trkpt>
<trkpt lat="40.0713894" lon="-105.2298133">
  <ele>1583.0</ele>
  <time>2026-08-28T17:56:20Z</time>
  <course>323.51</course>
  <speed>0.14</speed>
  <fix>3d</fix>
</trkpt>
<trkpt lat="40.0713898" lon="-105.2298137">
  <ele>1582.95</ele>
  <time>2026-08-28T17:56:20Z</time>
  <course>324.78</course>
  <speed>0.13601470508735444</speed>
  <fix>3d</fix>
</trkpt>
<trkpt lat="40.0713895" lon="-105.2298136">
  <ele>1583.0</ele>
  <time>2026-08-28T17:56:20Z</time>
  <course>323.51</course>
  <speed>0.13</speed>
  <fix>3d</fix>
</trkpt>
<trkpt lat="40.0713898" lon="-105.2298138">
  <ele>1582.96</ele>
  <time>2026-08-28T17:56:20Z</time>
  <course>324.78</course>
  <speed>0.12206555615733702</speed>
  <fix>3d</fix>
</trkpt>
<trkpt lat="40.0713895" lon="-105.2298136">
  <ele>1583.0</ele>
  <time>2026-08-28T17:56:20Z</time>
  <course>323.51</course>
  <speed>0.13</speed>
  <fix>3d</fix>
</trkpt>
<trkpt lat="40.0713899" lon="-105.2298139">
  <ele>1582.97</ele>
  <time>2026-08-28T17:56:20Z</time>
  <course>324.78</course>
  <speed>0.11401754250991379</speed>
  <fix>3d</fix>
</trkpt>
<trkpt lat="40.0713897" lon="-105.2298137">
  <ele>1583.0</ele>
  <time>2026-08-28T17:56:20Z</time>
  <course>323.51</course>
  <speed>0.12</speed>
  <fix>3d</fix>
</trkpt>
<trkpt lat="40.07139" lon="-105.229814">
  <ele>1582.97</ele>
  <time>2026-08-28T17:56:20Z</time>
  <course>324.78</course>
  <speed>0.10816653826391968</speed>
  <fix>3d</fix>
</trkpt>
<trkpt lat="40.0713897" lon="-105.2298137">
  <ele>1583.0</ele>
  <time>2026-08-28T17:56:20Z</time>
  <course>323.51</course>
  <speed>0.12</speed>
  <fix>3d</fix>
</trkpt>
<trkpt lat="40.07139" lon="-105.229814">
  <ele>1582.98</ele>
  <time>2026-08-28T17:56:20Z</time>
  <course>324.78</course>
  <speed>0.1</speed>
  <fix>3d</fix>
</trkpt>
<trkpt lat="40.0713899" lon="-105.2298139">
  <ele>1583.0</ele>
  <time>2026-08-28T17:56:20Z</time>
  <course>323.51</course>
  <speed>0.1</speed>
  <fix>3d</fix>
</trkpt>
<trkpt lat="40.0713901" lon="-105.2298141">
  <ele>1582.98</ele>
  <time>2026-08-28T17:56:20Z</time>
  <course>324.78</course>
  <speed>0.1</speed>
  <fix>3d</fix>
</trkpt>
<trkpt lat="40.0713899" lon="-105.2298139">
  <ele>1583.0</ele>
  <time>2026-08-28T17:56:20Z</time>
  <course>323.51</course>
  <speed>0.1</speed>
  <fix>3d</fix>
</trkpt>
<trkpt lat="40.0713902" lon="-105.2298141">
  <ele>1582.98</ele>
  <time>2026-08-28T17:56:20Z</time>
  <course>324.79</course>
  <speed>0.08602325267042626</speed>
  <fix>3d</fix>
</trkpt>
<trkpt lat="40.07139" lon="-105.229814">
  <ele>1583.0</ele>
  <time>2026-08-28T17:56:20Z</time>
  <course>323.51</course>
  <speed>0.09</speed>
  <fix>3d</fix>
</trkpt>
<trkpt lat="40.0713902" lon="-105.2298142">
  <ele>1582.99</ele>
  <time>2026-08-28T17:56:20Z</time>
  <course>324.79</course>
  <speed>0.08602325267042626</speed>
  <fix>3d</fix>
</trkpt>
<trkpt lat="40.07139" lon="-105.229814">
  <ele>1583.0</ele>
  <time>2026-08-28T17:56:20Z</time>
  <course>323.51</course>
  <speed>0.09</speed>
  <fix>3d</fix>
</trkpt>
<trkpt lat="40.0713903" lon="-105.2298142">
  <ele>1582.99</ele>
  <time>2026-08-28T17:56:20Z</time>
  <course>324.79</course>
  <speed>0.07810249675906654</speed>
  <fix>3d</fix>
</trkpt>
<trkpt lat="40.0713901" lon="-105.2298141">
  <ele>1583.0</ele>
  <time>2026-08-28T17:56:20Z</time>
  <course>323.51</course>
  <speed>0.08</speed>
  <fix>3d</fix>
</trkpt>
<trkpt lat="40.0713903" lon="-105.2298143">
  <ele>1582.99</ele>
  <time>2026-08-28T17:56:20Z</time>
  <course>324.79</course>
  <speed>0.07211102550927978</speed>
  <fix>3d</fix>
</trkpt>
<trkpt lat="40.0713901" lon="-105.2298141">
  <ele>1583.0</ele>
  <time>2026-08-28T17:56:20Z</time>
  <course>323.51</course>
  <speed>0.08</speed>
  <fix>3d</fix>
</trkpt>
<trkpt lat="40.0713904" lon="-105.2298143">
  <ele>1583.0</ele>
  <time>2026-08-28T17:56:20Z</time>
  <course>324.79</course>
  <speed>0.07211102550927978</speed>
  <fix>3d</fix>
</trkpt>
<trkpt lat="40.0713903" lon="-105.2298143">
  <ele>1583.0</ele>
  <time>2026-08-28T17:56:20Z</time>
  <course>323.51</course>
  <speed>0.08</speed>
  <fix>3d</fix>
</trkpt>
<trkpt lat="40.0713904" lon="-105.2298144">
  <ele>1583.0</ele>
  <time>2026-08-28T17:56:20Z</time>
  <course>324.8</course>
  <speed>0.05830951894845301</speed>
  <fix>3d</fix>
</trkpt>
<trkpt lat="40.0713903" lon="-105.2298143">
  <ele>1583.0</ele>
  <time>2026-08-28T17:56:20Z</time>
  <course>323.51</course>
  <speed>0.08</speed>
  <fix>3d</fix>
</trkpt>
<trkpt lat="40.0713905" lon="-105.2298144">
  <ele>1583.01</ele>
  <time>2026-08-28T17:56:20Z</time>
  <course>324.83</course>
  <speed>0.05</speed>
  <fix>3d</fix>
</trkpt>
<trkpt lat="40.0713903" lon="-105.2298143">
  <ele>1583.0</ele>
  <time>2026-08-28T17:56:20Z</time>
  <course>323.51</course>
  <speed>0.08</speed>
  <fix>3d</fix>
</trkpt>
<trkpt lat="40.0713905" lon="-105.2298144">
  <ele>1583.01</ele>
  <time>2026-08-28T17:56:20Z</time>
  <course>324.87</course>
  <speed>0.03605551275463989</speed>
  <fix>3d</fix>
</trkpt>
<trkpt lat="40.0713904" lon="-105.2298144">
  <ele>1583.0</ele>
  <time>2026-08-28T17:56:20Z</time>
  <course>323.52</course>
  <speed>0.06</speed>
  <fix>3d</fix>
</trkpt>
<trkpt lat="40.0713905" lon="-105.2298145">
  <ele>1583.02</ele>
  <time>2026-08-28T17:56:20Z</time>
  <course>324.94</course>
  <speed>0.03605551275463989</speed>
  <fix>3d</fix>
</trkpt>
<trkpt lat="40.0713904" lon="-105.2298144">
  <ele>1583.0</ele>
  <time>2026-08-28T17:56:20Z</time>
  <course>323.52</course>
  <speed>0.06</speed>
  <fix>3d</fix>
</trkpt>
<trkpt lat="40.0713905" lon="-105.2298145">
  <ele>1583.02</ele>
  <time>2026-08-28T17:56:20Z</time>
  <course>325.03</course>
  <speed>0.03605551275463989</speed>
  <fix>3d</fix>
</trkpt>
<trkpt lat="40.0713905" lon="-105.2298144">
  <ele>1583.0</ele>
  <time>2026-08-28T17:56:20Z</time>
  <course>323.59</course>
  <speed>0.05</speed>
  <fix>3d</fix>
</trkpt>
<trkpt lat="40.0713906" lon="-105.2298145">
  <ele>1583.02</ele>
  <time>2026-08-28T17:56:20Z</time>
  <course>325.15</course>
  <speed>0.044721359549995794</speed>
  <fix>3d</fix>
</trkpt>
<trkpt lat="40.0713905" lon="-105.2298144">
  <ele>1583.0</ele>
  <time>2026-08-28T17:56:20Z</time>
  <course>323.59</course>
  <speed>0.05</speed>
  <fix>3d</fix>
</trkpt>
<trkpt lat="40.0713906" lon="-105.2298146">
  <ele>1583.03</ele>
  <time>2026-08-28T17:56:20Z</time>
  <course>325.34</course>
  <speed>0.05830951894845301</speed>
  <fix>3d</fix>
</trkpt>
<trkpt lat="40.0713906" lon="-105.2298145">
  <ele>1583.0</ele>
  <time>2026-08-28T17:56:20Z</time>
  <course>323.76</course>
  <speed>0.05</speed>
  <fix>3d</fix>
</trkpt>
<trkpt lat="40.0713907" lon="-105.2298146">
  <ele>1583.03</ele>
  <time>2026-08-28T17:56:20Z</time>
  <course>325.62</course>
  <speed>0.08062257748298549</speed>
  <fix>3d</fix>
</trkpt>
<trkpt lat="40.0713906" lon="-105.2298145">
  <ele>1583.0</ele>
  <time>2026-08-28T17:56:20Z</time>
  <course>323.76</course>
  <speed>0.05</speed>
  <fix>3d</fix>
</trkpt>
<trkpt lat="40.0713908" lon="-105.2298147">
  <ele>1583.04</ele>
  <time>2026-08-28T17:56:20Z</time>
  <course>326.05</course>
  <speed>0.11661903789690602</speed>
  <fix>3d</fix>
</trkpt>
<trkpt lat="40.0713906" lon="-105.2298146">
  <ele>1583.0</ele>
  <time>2026-08-28T17:56:20Z</time>
  <course>324.15</course>
  <speed>0.08</speed>
  <fix>3d</fix>
</trkpt>
<trkpt lat="40.0713909" lon="-105.2298148">
  <ele>1583.05</ele>
  <time>2026-08-28T17:56:20Z</time>
  <course>326.66</course>
  <speed>0.16124515496597097</speed>
  <fix>3d</fix>
</trkpt>
<trkpt lat="40.0713909" lon="-105.2298147">
  <ele>1583.0</ele>
  <time>2026-08-28T17:56:20Z</time>
  <course>324.99</course>
  <speed>0.14</speed>
  <fix>3d</fix>
</trkpt>
<trkpt lat="40.071391" lon="-105.2298149">
  <ele>1583.05</ele>
  <time>2026-08-28T17:56:20Z</time>
  <course>327.53</course>
  <speed>0.2109502310972899</speed>
  <fix>3d</fix>
</trkpt>
<trkpt lat="40.0713909" lon="-105.2298147">
  <ele>1583.0</ele>
  <time>2026-08-28T17:56:20Z</time>
  <course>324.99</course>
  <speed>0.14</speed>
  <fix>3d</fix>
</trkpt>
<trkpt lat="40.0713912" lon="-105.229815">
  <ele>1583.06</ele>
  <time>2026-08-28T17:56:20Z</time>
  <course>328.67</course>
  <speed>0.2641968962724581</speed>
  <fix>3d</fix>
</trkpt>
<trkpt lat="40.0713911" lon="-105.229815">
  <ele>1583.0</ele>
  <time>2026-08-28T17:56:20Z</time>
  <course>326.6</course>
  <speed>0.23</speed>
  <fix>3d</fix>
</trkpt>
<trkpt lat="40.0713915" lon="-105.2298152">
  <ele>1583.06</ele>
  <time>2026-08-28T17:56:20Z</time>
  <course>330.12</course>
  <speed>0.32649655434629016</speed>
  <fix>3d</fix>
</trkpt>
<trkpt lat="40.0713911" lon="-105.229815">
  <ele>1583.0</ele>
  <time>2026-08-28T17:56:20Z</time>
  <course>326.6</course>
  <speed>0.23</speed>
  <fix>3d</fix>
</trkpt>
<trkpt lat="40.0713918" lon="-105.2298154">
  <ele>1583.06</ele>
  <time>2026-08-28T17:56:20Z</time>
  <course>331.86</course>
  <speed>0.40249223594996214</speed>
  <fix>3d</fix>
</trkpt>
<trkpt lat="40.0713915" lon="-105.2298153">
  <ele>1583.0</ele>
  <time>2026-08-28T17:56:20Z</time>
  <course>329.28</course>
  <speed>0.34</speed>
  <fix>3d</fix>
</trkpt>
<trkpt lat="40.0713922" lon="-105.2298157">
  <ele>1583.06</ele>
  <time>2026-08-28T17:56:20Z</time>
  <course>333.87</course>
  <speed>0.474236228055175</speed>
  <fix>3d</fix>
</trkpt>
<trkpt lat="40.0713915" lon="-105.2298153">
  <ele>1583.0</ele>
  <time>2026-08-28T17:56:20Z</time>
  <course>329.28</course>
  <speed>0.34</speed>
  <fix>3d</fix>
</trkpt>
<trkpt lat="40.0713926" lon="-105.229816">
  <ele>1583.06</ele>
  <time>2026-08-28T17:56:20Z</time>
  <course>336.14</course>
  <speed>0.551543289325507</speed>
  <fix>3d</fix>
</trkpt>
<trkpt lat="40.0713922" lon="-105.2298159">
  <ele>1583.0</ele>
  <time>2026-08-28T17:56:20Z</time>
  <course>333.04</course>
  <speed>0.48</speed>
  <fix>3d</fix>
</trkpt>
<trkpt lat="40.0713931" lon="-105.2298162">
  <ele>1583.07</ele>
  <time>2026-08-28T17:56:20Z</time>
  <course>338.58</course>
  <speed>0.6390618123468184</speed>
  <fix>3d</fix>
</trkpt>
<trkpt lat="40.0713922" lon="-105.2298159">
  <ele>1583.0</ele>
  <time>2026-08-28T17:56:20Z</time>
  <course>333.04</course>
  <speed>0.48</speed>
  <fix>3d</fix>
</trkpt>
<trkpt lat="40.0713937" lon="-105.2298165">
  <ele>1583.07</ele>
  <time>2026-08-28T17:56:20Z</time>
  <course>341.15</course>
  <speed>0.7242237223399962</speed>
  <fix>3d</fix>
</trkpt>
<trkpt lat="40.0713931" lon="-105.2298164">
  <ele>1583.0</ele>
  <time>2026-08-28T17:56:20Z</time>
  <course>337.66</course>
  <speed>0.64</speed>
  <fix>3d</fix>
</trkpt>
<trkpt lat="40.0713944" lon="-105.2298168">
  <ele>1583.07</ele>
  <time>2026-08-28T17:56:20Z</time>
  <course>343.76</course>
  <speed>0.8077747210701756</speed>
  <fix>3d</fix>
</trkpt>
<trkpt lat="40.0713931" lon="-105.2298164">
  <ele>1583.0</ele>
  <time>2026-08-28T17:56:20Z</time>
  <course>337.66</course>
  <speed>0.64</speed>
  <fix>3d</fix>
</trkpt>
<trkpt lat="40.0713952" lon="-105.2298171">
  <ele>1583.07</ele>
  <time>2026-08-28T17:56:20Z</time>
  <course>346.32</course>
  <speed>0.8905054744357274</speed>
  <fix>3d</fix>
</trkpt>
<trkpt lat="40.0713944" lon="-105.229817">
  <ele>1583.0</ele>
  <time>2026-08-28T17:56:20Z</time>
  <course>342.71</course>
  <speed>0.81</speed>
  <fix>3d</fix>
</trkpt>
<trkpt lat="40.071396" lon="-105.2298173">
  <ele>1583.07</ele>
  <time>2026-08-28T17:56:20Z</time>
  <course>348.64</course>
  <speed>0.9865596788841515</speed>
  <fix>3d</fix>
</trkpt>
<trkpt lat="40.0713944" lon="-105.229817">
  <ele>1583.0</ele>
  <time>2026-08-28T17:56:20Z</time>
  <course>342.71</course>
  <speed>0.81</speed>
  <fix>3d</fix>
</trkpt>
<trkpt lat="40.071397" lon="-105.2298176">
  <ele>1583.08</ele>
  <time>2026-08-28T17:56:20Z</time>
  <course>350.64</course>
  <speed>1.0705606008068858</speed>
  <fix>3d</fix>
</trkpt>
<trkpt lat="40.0713959" lon="-105.2298175">
  <ele>1583.0</ele>
  <time>2026-08-28T17:56:20Z</time>
  <course>347.38</course>
  <speed>0.98</speed>
  <fix>3d</fix>
</trkpt>
<trkpt lat="40.071398" lon="-105.2298178">
  <ele>1583.08</ele>
  <time>2026-08-28T17:56:20Z</time>
  <course>352.3</course>
  <speed>1.1584903970253704</speed>
  <fix>3d</fix>
</trkpt>
<trkpt lat="40.0713959" lon="-105.2298175">
  <ele>1583.0</ele>
  <time>2026-08-28T17:56:20Z</time>
  <course>347.38</course>
  <speed>0.98</speed>
  <fix>3d</fix>
</trkpt>
<trkpt lat="40.0713991" lon="-105.229818">
  <ele>1583.09</ele>
  <time>2026-08-28T17:56:20Z</time>
  <course>353.67</course>
  <speed>1.245792920191795</speed>
  <fix>3d</fix>
</trkpt>
<trkpt lat="40.0713959" lon="-105.2298175">
  <ele>1583.0</ele>
  <time>2026-08-28T17:56:20Z</time>
  <course>347.38</course>
  <speed>0.98</speed>
  <fix>3d</fix>
</trkpt>
<trkpt lat="40.0714003" lon="-105.2298181">
  <ele>1583.09</ele>
  <time>2026-08-28T17:56:20Z</time>
  <course>354.82</course>
  <speed>1.3337541002748594</speed>
  <fix>3d</fix>
</trkpt>
<trkpt lat="40.0713978" lon="-105.229818">
  <ele>1583.0</ele>
  <time>2026-08-28T17:56:20Z</time>
  <course>350.99</course>
  <speed>1.15</speed>
  <fix>3d</fix>
</trkpt>
<trkpt lat="40.0714015" lon="-105.2298183">
  <ele>1583.1</ele>
  <time>2026-08-28T17:56:20Z</time>
  <course>355.79</course>
  <speed>1.4328293687665674</speed>
  <fix>3d</fix>
</trkpt>
<trkpt lat="40.0713978" lon="-105.229818">
  <ele>1583.0</ele>
  <time>2026-08-28T17:56:20Z</time>
  <course>350.99</course>
  <speed>1.15</speed>
  <fix>3d</fix>
</trkpt>
<trkpt lat="40.0714028" lon="-105.2298184">
  <ele>1583.1</ele>
  <time>2026-08-28T17:56:20Z</time>
  <course>356.62</course>
  <speed>1.5216109883935514</speed>
  <fix>3d</fix>
</trkpt>
<trkpt lat="40.0714" lon="-105.2298184">
  <ele>1583.0</ele>
  <time>2026-08-28T17:56:20Z</time>
  <course>353.52</course>
  <speed>1.32</speed>
  <fix>3d</fix>
</trkpt>
<trkpt lat="40.0714042" lon="-105.2298185">
  <ele>1583.11</ele>
  <time>2026-08-28T17:56:20Z</time>
  <course>357.31</course>
  <speed>1.6111176245079064</speed>
  <fix>3d</fix>
</trkpt>
<trkpt lat="40.0714" lon="-105.2298184">
  <ele>1583.0</ele>
  <time>2026-08-28T17:56:20Z</time>
  <course>353.52</course>
  <speed>1.32</speed>
  <fix>3d</fix>
</trkpt>
<trkpt lat="40.0714057" lon="-105.2298186">
  <ele>1583.11</ele>
  <time>2026-08-28T17:56:20Z</time>
  <course>357.9</course>
  <speed>1.7007351351694948</speed>
  <fix>3d</fix>
</trkpt>
<trkpt lat="40.0714025" lon="-105.2298187">
  <ele>1583.0</ele>
  <time>2026-08-28T17:56:20Z</time>
  <course>355.32</course>
  <speed>1.5</speed>
  <fix>3d</fix>
</trkpt>
<trkpt lat="40.0714072" lon="-105.2298187">
  <ele>1583.11</ele>
  <time>2026-08-28T17:56:20Z</time>
  <course>358.01</course>
  <speed>1.6504847772699995</speed>
  <fix>3d</fix>
</trkpt>
<trkpt lat="40.0714054" lon="-105.2298189">
  <ele>1583.0</ele>
  <time>2026-08-28T17:56:20Z</time>
  <course>356.39</course>
  <speed>1.6</speed>
  <fix>3d</fix>
</trkpt>
<trkpt lat="40.0714087" lon="-105.2298188">
  <ele>1583.12</ele>
  <time>2026-08-28T17:56:20Z</time>
  <course>358.0</course>
  <speed>1.5705094714773293</speed>
  <fix>3d</fix>
</trkpt>
<trkpt lat="40.0714054" lon="-105.2298189">
  <ele>1583.0</ele>
  <time>2026-08-28T17:56:20Z</time>
  <course>356.39</course>
  <speed>1.6</speed>
  <fix>3d</fix>
</trkpt>
<trkpt lat="40.0714101" lon="-105.2298189">
  <ele>1583.12</ele>
  <time>2026-08-28T17:56:20Z</time>
  <course>358.0</course>
  <speed>1.4905368160498418</speed>
  <fix>3d</fix>
</trkpt>
<trkpt lat="40.0714082" lon="-105.2298192">
  <ele>1583.0</ele>
  <time>2026-08-28T17:56:20Z</time>
  <course>356.74</course>
  <speed>1.54</speed>
  <fix>3d</fix>
</trkpt>
<trkpt lat="40.0714113" lon="-105.229819">
  <ele>1583.12</ele>
  <time>2026-08-28T17:56:20Z</time>
  <course>357.99</course>
  <speed>1.420563268566381</speed>
  <fix>3d</fix>
</trkpt>
<trkpt lat="40.0714082" lon="-105.2298192">
  <ele>1583.0</ele>
  <time>2026-08-28T17:56:20Z</time>
  <course>356.74</course>
  <speed>1.54</speed>
  <fix>3d</fix>
</trkpt>
<trkpt lat="40.0714126" lon="-105.2298191">
  <ele>1583.13</ele>
  <time>2026-08-28T17:56:20Z</time>
  <course>357.99</course>
  <speed>1.3505924625881784</speed>
  <fix>3d</fix>
</trkpt>
<trkpt lat="40.0714108" lon="-105.2298194">
  <ele>1583.0</ele>
  <time>2026-08-28T17:56:20Z</time>
  <course>356.74</course>
  <speed>1.4</speed>
  <fix>3d</fix>
</trkpt>
<trkpt lat="40.0714137" lon="-105.2298192">
  <ele>1583.13</ele>
  <time>2026-08-28T17:56:20Z</time>
  <course>357.99</course>
  <speed>1.2906200060436068</speed>
  <fix>3d</fix>
</trkpt>
<trkpt lat="40.0714108" lon="-105.2298194">
  <ele>1583.0</ele>
  <time>2026-08-28T17:56:20Z</time>
  <course>356.74</course>
  <speed>1.4</speed>
  <fix>3d</fix>
</trkpt>
<trkpt lat="40.0714149" lon="-105.2298193">
  <ele>1583.13</ele>
  <time>2026-08-28T17:56:20Z</time>
  <course>357.98</course>
  <speed>1.2203687967167958</speed>
  <fix>3d</fix>
</trkpt>
<trkpt lat="40.0714132" lon="-105.2298195">
  <ele>1583.0</ele>
  <time>2026-08-28T17:56:20Z</time>
  <course>356.74</course>
  <speed>1.26</speed>
  <fix>3d</fix>
</trkpt>
<trkpt lat="40.0714159" lon="-105.2298194">
  <ele>1583.13</ele>
  <time>2026-08-28T17:56:20Z</time>
  <course>357.98</course>
  <speed>1.1603878661895772</speed>
  <fix>3d</fix>
</trkpt>
<trkpt lat="40.0714132" lon="-105.2298195">
  <ele>1583.0</ele>
  <time>2026-08-28T17:56:20Z</time>
  <course>356.74</course>
  <speed>1.26</speed>
  <fix>3d</fix>
</trkpt>
<trkpt lat="40.0714169" lon="-105.2298194">
  <ele>1583.13</ele>
  <time>2026-08-28T17:56:20Z</time>
  <course>357.98</course>
  <speed>1.110405331399305</speed>
  <fix>3d</fix>
</trkpt>
<trkpt lat="40.0714154" lon="-105.2298197">
  <ele>1583.0</ele>
  <time>2026-08-28T17:56:20Z</time>
  <course>356.74</course>
  <speed>1.14</speed>
  <fix>3d</fix>
</trkpt>
<trkpt lat="40.0714179" lon="-105.2298195">
  <ele>1583.13</ele>
  <time>2026-08-28T17:56:20Z</time>
  <course>357.98</course>
  <speed>1.0504284840006957</speed>
  <fix>3d</fix>
</trkpt>
<trkpt lat="40.0714154" lon="-105.2298197">
  <ele>1583.0</ele>
  <time>2026-08-28T17:56:20Z</time>
  <course>356.74</course>
  <speed>1.14</speed>
  <fix>3d</fix>
</trkpt>
<trkpt lat="40.0714188" lon="-105.2298196">
  <ele>1583.13</ele>
  <time>2026-08-28T17:56:20Z</time>
  <course>357.98</course>
  <speed>1.0004498987955368</speed>
  <fix>3d</fix>
</trkpt>
<trkpt lat="40.0714174" lon="-105.2298199">
  <ele>1583.0</ele>
  <time>2026-08-28T17:56:20Z</time>
  <course>356.74</course>
  <speed>1.03</speed>
  <fix>3d</fix>
</trkpt>
<trkpt lat="40.0714196" lon="-105.2298197">
  <ele>1583.13</ele>
  <time>2026-08-28T17:56:20Z</time>
  <course>357.99</course>
  <speed>0.9504735661763561</speed>
  <fix>3d</fix>
</trkpt>
<trkpt lat="40.0714174" lon="-105.2298199">
  <ele>1583.0</ele>
  <time>2026-08-28T17:56:20Z</time>
  <course>356.74</course>
  <speed>1.03</speed>
  <fix>3d</fix>
</trkpt>
<trkpt lat="40.0714204" lon="-105.2298197">
  <ele>1583.12</ele>
  <time>2026-08-28T17:56:20Z</time>
  <course>357.99</course>
  <speed>0.900499861188218</speed>
  <fix>3d</fix>
</trkpt>
<trkpt lat="40.0714191" lon="-105.22982">
  <ele>1583.0</ele>
  <time>2026-08-28T17:56:20Z</time>
  <course>356.74</course>
  <speed>0.93</speed>
  <fix>3d</fix>
</trkpt>
<trkpt lat="40.0714212" lon="-105.2298198">
  <ele>1583.12</ele>
  <time>2026-08-28T17:56:20Z</time>
  <course>357.99</course>
  <speed>0.8602325267042628</speed>
  <fix>3d</fix>
</trkpt>
<trkpt lat="40.0714191" lon="-105.22982">
  <ele>1583.0</ele>
  <time>2026-08-28T17:56:20Z</time>
  <course>356.74</course>
  <speed>0.93</speed>
  <fix>3d</fix>
</trkpt>
<trkpt lat="40.0714219" lon="-105.2298199">
  <ele>1583.12</ele>
  <time>2026-08-28T17:56:20Z</time>
  <course>357.99</course>
  <speed>0.8202438661763951</speed>
  <fix>3d</fix>
</trkpt>
<trkpt lat="40.0714191" lon="-105.22982">
  <ele>1583.0</ele>
  <time>2026-08-28T17:56:20Z</time>
  <course>356.74</course>
  <speed>0.93</speed>
  <fix>3d</fix>
</trkpt>
<trkpt lat="40.0714226" lon="-105.2298199">
  <ele>1583.12</ele>
  <time>2026-08-28T17:56:20Z</time>
  <course>357.99</course>
  <speed>0.7702596964660685</speed>
  <fix>3d</fix>
</trkpt>
<trkpt lat="40.0714207" lon="-105.2298201">
  <ele>1583.0</ele>
  <time>2026-08-28T17:56:20Z</time>
  <course>356.74</course>
  <speed>0.85</speed>
  <fix>3d</fix>
</trkpt>
<trkpt lat="40.0714233" lon="-105.22982">
  <ele>1583.11</ele>
  <time>2026-08-28T17:56:20Z</time>
  <course>358.0</course>
  <speed>0.7302739212103907</speed>
  <fix>3d</fix>
</trkpt>
<trkpt lat="40.0714207" lon="-105.2298201">
  <ele>1583.0</ele>
  <time>2026-08-28T17:56:20Z</time>
  <course>356.74</course>
  <speed>0.85</speed>
  <fix>3d</fix>
</trkpt>
<trkpt lat="40.0714239" lon="-105.2298201">
  <ele>1583.1</ele>
  <time>2026-08-28T17:56:20Z</time>
  <course>358.0</course>
  <speed>0.7002856560004639</speed>
  <fix>3d</fix>
</trkpt>
<trkpt lat="40.0714222" lon="-105.2298202">
  <ele>1583.0</ele>
  <time>2026-08-28T17:56:20Z</time>
  <course>356.74</course>
  <speed>0.76</speed>
  <fix>3d</fix>
</trkpt>
<trkpt lat="40.0714245" lon="-105.2298201">
  <ele>1583.09</ele>
  <time>2026-08-28T17:56:20Z</time>
  <course>358.0</course>
  <speed>0.660302960768767</speed>
  <fix>3d</fix>
</trkpt>
<trkpt lat="40.0714222" lon="-105.2298202">
  <ele>1583.0</ele>
  <time>2026-08-28T17:56:20Z</time>
  <course>356.74</course>
  <speed>0.76</speed>
  <fix>3d</fix>
</trkpt>
<trkpt lat="40.071425" lon="-105.2298202">
  <ele>1583.08</ele>
  <time>2026-08-28T17:56:20Z</time>
  <course>358.0</course>
  <speed>0.630317380372777</speed>
  <fix>3d</fix>
</trkpt>
<trkpt lat="40.0714235" lon="-105.2298203">
  <ele>1583.0</ele>
  <time>2026-08-28T17:56:20Z</time>
  <course>356.74</course>
  <speed>0.69</speed>
  <fix>3d</fix>
</trkpt>
<trkpt lat="40.0714255" lon="-105.2298202">
  <ele>1583.07</ele>
  <time>2026-08-28T17:56:20Z</time>
  <course>358.01</course>
  <speed>0.5903388857258176</speed>
  <fix>3d</fix>
</trkpt>
<trkpt lat="40.0714235" lon="-105.2298203">
  <ele>1583.0</ele>
  <time>2026-08-28T17:56:20Z</time>
  <course>356.74</course>
  <speed>0.69</speed>
  <fix>3d</fix>
</trkpt>
<trkpt lat="40.071426" lon="-105.2298203">
  <ele>1583.06</ele>
  <time>2026-08-28T17:56:20Z</time>
  <course>358.01</course>
  <speed>0.5600892785976178</speed>
  <fix>3d</fix>
</trkpt>
<trkpt lat="40.0714247" lon="-105.2298204">
  <ele>1583.0</ele>
  <time>2026-08-28T17:56:20Z</time>
  <course>356.74</course>
  <speed>0.62</speed>
  <fix>3d</fix>
</trkpt>
<trkpt lat="40.0714265" lon="-105.2298203">
  <ele>1583.06</ele>
  <time>2026-08-28T17:56:20Z</time>
  <course>358.02</course>
  <speed>0.5300943312279428</speed>
  <fix>3d</fix>
</trkpt>
<trkpt lat="40.0714258" lon="-105.2298205">
  <ele>1583.0</ele>
  <time>2026-08-28T17:56:20Z</time>
  <course>356.74</course>
  <speed>0.56</speed>
  <fix>3d</fix>
</trkpt>
<trkpt lat="40.071427" lon="-105.2298203">
  <ele>1583.05</ele>
  <time>2026-08-28T17:56:20Z</time>
  <course>358.02</course>
  <speed>0.510098029794274</speed>
  <fix>3d</fix>
</trkpt>
<trkpt lat="40.0714258" lon="-105.2298205">
  <ele>1583.0</ele>
  <time>2026-08-28T17:56:20Z</time>
  <course>356.74</course>
  <speed>0.56</speed>
  <fix>3d</fix>
</trkpt>
<trkpt lat="40.0714274" lon="-105.2298204">
  <ele>1583.05</ele>
  <time>2026-08-28T17:56:20Z</time>
  <course>358.02</course>
  <speed>0.4801041553663121</speed>
  <fix>3d</fix>
</trkpt>
<trkpt lat="40.0714267" lon="-105.2298206">
  <ele>1583.0</ele>
  <time>2026-08-28T17:56:20Z</time>
  <course>356.74</course>
  <speed>0.51</speed>
  <fix>3d</fix>
</trkpt>
<trkpt lat="40.0714278" lon="-105.2298204">
  <ele>1583.04</ele>
  <time>2026-08-28T17:56:20Z</time>
  <course>358.03</course>
  <speed>0.450111097397076</speed>
  <fix>3d</fix>
</trkpt>
<trkpt lat="40.0714267" lon="-105.2298206">
  <ele>1583.0</ele>
  <time>2026-08-28T17:56:20Z</time>
  <course>356.74</course>
  <speed>0.51</speed>
  <fix>3d</fix>
</trkpt>
<trkpt lat="40.0714282" lon="-105.2298205">
  <ele>1583.03</ele>
  <time>2026-08-28T17:56:20Z</time>
  <course>358.03</course>
  <speed>0.4301162633521314</speed>
  <fix>3d</fix>
</trkpt>
<trkpt lat="40.0714276" lon="-105.2298206">
  <ele>1583.0</ele>
  <time>2026-08-28T17:56:20Z</time>
  <course>356.74</course>
  <speed>0.46</speed>
  <fix>3d</fix>
</trkpt>
<trkpt lat="40.0714286" lon="-105.2298205">
  <ele>1583.02</ele>
  <time>2026-08-28T17:56:20Z</time>
  <course>358.03</course>
  <speed>0.41012193308819755</speed>
  <fix>3d</fix>
</trkpt>
<trkpt lat="40.0714276" lon="-105.2298206">
  <ele>1583.0</ele>
  <time>2026-08-28T17:56:20Z</time>
  <course>356.74</course>
  <speed>0.46</speed>
  <fix>3d</fix>
</trkpt>
<trkpt lat="40.0714289" lon="-105.2298205">
  <ele>1583.02</ele>
  <time>2026-08-28T17:56:20Z</time>
  <course>358.04</course>
  <speed>0.38013155617496425</speed>
  <fix>3d</fix>
</trkpt>
<trkpt lat="40.0714284" lon="-105.2298206">
  <ele>1583.0</ele>
  <time>2026-08-28T17:56:20Z</time>
  <course>356.74</course>
  <speed>0.42</speed>
  <fix>3d</fix>
</trkpt>
<trkpt lat="40.0714292" lon="-105.2298206">
  <ele>1583.01</ele>
  <time>2026-08-28T17:56:20Z</time>
  <course>358.04</course>
  <speed>0.36013886210738216</speed>
  <fix>3d</fix>
</trkpt>
<trkpt lat="40.0714284" lon="-105.2298206">
  <ele>1583.0</ele>
  <time>2026-08-28T17:56:20Z</time>
  <course>356.74</course>
  <speed>0.42</speed>
  <fix>3d</fix>
</trkpt>
<trkpt lat="40.0714296" lon="-105.2298206">
  <ele>1583.01</ele>
  <time>2026-08-28T17:56:20Z</time>
  <course>358.04</course>
  <speed>0.340147027033899</speed>
  <fix>3d</fix>
</trkpt>
<trkpt lat="40.0714291" lon="-105.2298207">
  <ele>1583.0</ele>
  <time>2026-08-28T17:56:20Z</time>
  <course>356.74</course>
  <speed>0.38</speed>
  <fix>3d</fix>
</trkpt>
<trkpt lat="40.0714299" lon="-105.2298206">
  <ele>1583.01</ele>
  <time>2026-08-28T17:56:20Z</time>
  <course>358.05</course>
  <speed>0.32</speed>
  <fix>3d</fix>
</trkpt>
<trkpt lat="40.0714291" lon="-105.2298207">
  <ele>1583.0</ele>
  <time>2026-08-28T17:56:20Z</time>
  <course>356.74</course>
  <speed>0.38</speed>
  <fix>3d</fix>
</trkpt>
<trkpt lat="40.0714301" lon="-105.2298206">
  <ele>1583.01</ele>
  <time>2026-08-28T17:56:20Z</time>
  <course>358.05</course>
  <speed>0.31</speed>
  <fix>3d</fix>
</trkpt>
<trkpt lat="40.0714298" lon="-105.2298208">
  <ele>1583.0</ele>
  <time>2026-08-28T17:56:20Z</time>
  <course>356.74</course>
  <speed>0.34</speed>
  <fix>3d</fix>
</trkpt>
<trkpt lat="40.0714304" lon="-105.2298206">
  <ele>1583.01</ele>
  <time>2026-08-28T17:56:20Z</time>
  <course>358.06</course>
  <speed>0.29</speed>
  <fix>3d</fix>
</trkpt>
<trkpt lat="40.0714298" lon="-105.2298208">
  <ele>1583.0</ele>
  <time>2026-08-28T17:56:20Z</time>
  <course>356.74</course>
  <speed>0.34</speed>
  <fix>3d</fix>
</trkpt>
<trkpt lat="40.0714307" lon="-105.2298207">
  <ele>1583.01</ele>
  <time>2026-08-28T17:56:20Z</time>
  <course>358.06</course>
  <speed>0.27</speed>
  <fix>3d</fix>
</trkpt>
<trkpt lat="40.0714298" lon="-105.2298208">
  <ele>1583.0</ele>
  <time>2026-08-28T17:56:20Z</time>
  <course>356.74</course>
  <speed>0.34</speed>
  <fix>3d</fix>
</trkpt>
<trkpt lat="40.0714309" lon="-105.2298207">
  <ele>1583.01</ele>
  <time>2026-08-28T17:56:20Z</time>
  <course>358.06</course>
  <speed>0.26</speed>
  <fix>3d</fix>
</trkpt>
<trkpt lat="40.0714303" lon="-105.2298208">
  <ele>1583.0</ele>
  <time>2026-08-28T17:56:20Z</time>
  <course>356.74</course>
  <speed>0.31</speed>
  <fix>3d</fix>
</trkpt>
<trkpt lat="40.0714311" lon="-105.2298207">
  <ele>1583.01</ele>
  <time>2026-08-28T17:56:20Z</time>
  <course>358.07</course>
  <speed>0.24</speed>
  <fix>3d</fix>
</trkpt>
<trkpt lat="40.0714303" lon="-105.2298208">
  <ele>1583.0</ele>
  <time>2026-08-28T17:56:20Z</time>
  <course>356.74</course>
  <speed>0.31</speed>
  <fix>3d</fix>
</trkpt>
<trkpt lat="40.0714314" lon="-105.2298207">
  <ele>1583.02</ele>
  <time>2026-08-28T17:56:20Z</time>
  <course>358.07</course>
  <speed>0.23</speed>
  <fix>3d</fix>
</trkpt>
<trkpt lat="40.0714309" lon="-105.2298208">
  <ele>1583.0</ele>
  <time>2026-08-28T17:56:20Z</time>
  <course>356.74</course>
  <speed>0.28</speed>
  <fix>3d</fix>
</trkpt>
<trkpt lat="40.0714316" lon="-105.2298207">
  <ele>1583.02</ele>
  <time>2026-08-28T17:56:20Z</time>
  <course>358.07</course>
  <speed>0.21</speed>
  <fix>3d</fix>
</trkpt>
<trkpt lat="40.0714309" lon="-105.2298208">
  <ele>1583.0</ele>
  <time>2026-08-28T17:56:20Z</time>
  <course>356.74</course>
  <speed>0.28</speed>
  <fix>3d</fix>
</trkpt>
<trkpt lat="40.0714323" lon="-105.2298208">
  <ele>1583.04</ele>
  <time>2026-08-28T17:56:20Z</time>
  <course>358.09</course>
  <speed>0.17</speed>
  <fix>3d</fix>
</trkpt>
<trkpt lat="40.0714322" lon="-105.229821">
  <ele>1583.0</ele>
  <time>2026-08-28T17:56:20Z</time>
  <course>356.74</course>
  <speed>0.2</speed>
  <fix>3d</fix>
</trkpt>
<trkpt lat="40.0714326" lon="-105.2298208">
  <ele>1583.04</ele>
  <time>2026-08-28T17:56:20Z</time>
  <course>358.1</course>
  <speed>0.15</speed>
  <fix>3d</fix>
</trkpt>
<trkpt lat="40.0714325" lon="-105.229821">
  <ele>1583.0</ele>
  <time>2026-08-28T17:56:20Z</time>
  <course>356.74</course>
  <speed>0.18</speed>
  <fix>3d</fix>
</trkpt>
<trkpt lat="40.0714327" lon="-105.2298208">
  <ele>1583.04</ele>
  <time>2026-08-28T17:56:20Z</time>
  <course>358.1</course>
  <speed>0.14</speed>
  <fix>3d</fix>
</trkpt>
<trkpt lat="40.0714325" lon="-105.229821">
  <ele>1583.0</ele>
  <time>2026-08-28T17:56:20Z</time>
  <course>356.74</course>
  <speed>0.18</speed>
  <fix>3d</fix>
</trkpt>
<trkpt lat="40.0714329" lon="-105.2298209">
  <ele>1583.04</ele>
  <time>2026-08-28T17:56:20Z</time>
  <course>358.1</course>
  <speed>0.13</speed>
  <fix>3d</fix>
</trkpt>
<trkpt lat="40.0714329" lon="-105.229821">
  <ele>1583.0</ele>
  <time>2026-08-28T17:56:20Z</time>
  <course>356.74</course>
  <speed>0.17</speed>
  <fix>3d</fix>
</trkpt>
<trkpt lat="40.071433" lon="-105.2298209">
  <ele>1583.03</ele>
  <time>2026-08-28T17:56:20Z</time>
  <course>358.11</course>
  <speed>0.12</speed>
  <fix>3d</fix>
</trkpt>
<trkpt lat="40.0714329" lon="-105.229821">
  <ele>1583.0</ele>
  <time>2026-08-28T17:56:20Z</time>
  <course>356.74</course>
  <speed>0.17</speed>
  <fix>3d</fix>
</trkpt>
<trkpt lat="40.0714331" lon="-105.2298209">
  <ele>1583.03</ele>
  <time>2026-08-28T17:56:20Z</time>
  <course>358.11</course>
  <speed>0.11</speed>
  <fix>3d</fix>
</trkpt>
<trkpt lat="40.0714332" lon="-105.2298211">
  <ele>1583.0</ele>
  <time>2026-08-28T17:56:20Z</time>
  <course>356.74</course>
  <speed>0.15</speed>
  <fix>3d</fix>
</trkpt>
<trkpt lat="40.0714334" lon="-105.2298209">
  <ele>1583.01</ele>
  <time>2026-08-28T17:56:20Z</time>
  <course>358.12</course>
  <speed>0.1</speed>
  <fix>3d</fix>
</trkpt>
<trkpt lat="40.0714335" lon="-105.2298211">
  <ele>1583.0</ele>
  <time>2026-08-28T17:56:20Z</time>
  <course>356.74</course>
  <speed>0.14</speed>
  <fix>3d</fix>
</trkpt>
<trkpt lat="40.0714335" lon="-105.2298209">
  <ele>1583.01</ele>
  <time>2026-08-28T17:56:20Z</time>
  <course>358.12</course>
  <speed>0.09</speed>
  <fix>3d</fix>
</trkpt>
<trkpt lat="40.0714335" lon="-105.2298211">
  <ele>1583.0</ele>
  <time>2026-08-28T17:56:20Z</time>
  <course>356.74</course>
  <speed>0.14</speed>
  <fix>3d</fix>
</trkpt>
<trkpt lat="40.0714336" lon="-105.2298209">
  <ele>1583.01</ele>
  <time>2026-08-28T17:56:20Z</time>
  <course>358.13</course>
  <speed>0.08</speed>
  <fix>3d</fix>
</trkpt>
<trkpt lat="40.0714337" lon="-105.2298211">
  <ele>1583.0</ele>
  <time>2026-08-28T17:56:20Z</time>
  <course>356.74</course>
  <speed>0.12</speed>
  <fix>3d</fix>
</trkpt>
<trkpt lat="40.0714337" lon="-105.2298209">
  <ele>1583.0</ele>
  <time>2026-08-28T17:56:20Z</time>
  <course>358.13</course>
  <speed>0.08</speed>
  <fix>3d</fix>
</trkpt>
<trkpt lat="40.0714337" lon="-105.2298211">
  <ele>1583.0</ele>
  <time>2026-08-28T17:56:20Z</time>
  <course>356.74</course>
  <speed>0.12</speed>
  <fix>3d</fix>
</trkpt>
<trkpt lat="40.0714338" lon="-105.2298209">
  <ele>1583.0</ele>
  <time>2026-08-28T17:56:20Z</time>
  <course>358.13</course>
  <speed>0.07</speed>
  <fix>3d</fix>
</trkpt>
<trkpt lat="40.0714339" lon="-105.2298211">
  <ele>1583.0</ele>
  <time>2026-08-28T17:56:20Z</time>
  <course>356.74</course>
  <speed>0.11</speed>
  <fix>3d</fix>
</trkpt>
<trkpt lat="39.6561709" lon="-104.1394387">
  <ele>1566.59</ele>
  <time>2026-08-28T17:56:21Z</time>
  <course>0.0</course>
  <speed>0.0</speed>
  <fix>3d</fix>
</trkpt>
<trkpt lat="40.0713749" lon="-105.229789">
  <ele>1583.0</ele>
  <time>2026-08-28T17:56:21Z</time>
  <course>0.0</course>
  <speed>0.0</speed>
  <fix>3d</fix>
</trkpt>
<trkpt lat="40.0713749" lon="-105.229789">
  <ele>1583.0</ele>
  <time>2026-08-28T17:56:21Z</time>
  <course>238.36</course>
  <speed>0.0</speed>
  <fix>3d</fix>
</trkpt>
<trkpt lat="40.0713749" lon="-105.229789">
  <ele>1583.0</ele>
  <time>2026-08-28T17:56:21Z</time>
  <course>0.0</course>
  <speed>0.0</speed>
  <fix>3d</fix>
</trkpt>
<trkpt lat="40.0713749" lon="-105.229789">
  <ele>1583.0</ele>
  <time>2026-08-28T17:56:21Z</time>
  <course>238.45</course>
  <speed>0.0</speed>
  <fix>3d</fix>
</trkpt>
<trkpt lat="40.0713749" lon="-105.229789">
  <ele>1583.0</ele>
  <time>2026-08-28T17:56:21Z</time>
  <course>0.0</course>
  <speed>0.0</speed>
  <fix>3d</fix>
</trkpt>
<trkpt lat="40.0713749" lon="-105.229789">
  <ele>1583.0</ele>
  <time>2026-08-28T17:56:21Z</time>
  <course>238.64</course>
  <speed>0.0</speed>
  <fix>3d</fix>
</trkpt>
<trkpt lat="40.0713749" lon="-105.229789">
  <ele>1583.0</ele>
  <time>2026-08-28T17:56:21Z</time>
  <course>0.0</course>
  <speed>0.0</speed>
  <fix>3d</fix>
</trkpt>
<trkpt lat="40.0713749" lon="-105.229789">
  <ele>1583.0</ele>
  <time>2026-08-28T17:56:21Z</time>
  <course>238.93</course>
  <speed>0.0</speed>
  <fix>3d</fix>
</trkpt>
<trkpt lat="40.0713749" lon="-105.229789">
  <ele>1583.0</ele>
  <time>2026-08-28T17:56:21Z</time>
  <course>0.0</course>
  <speed>0.0</speed>
  <fix>3d</fix>
</trkpt>
<trkpt lat="40.0713749" lon="-105.229789">
  <ele>1583.0</ele>
  <time>2026-08-28T17:56:21Z</time>
  <course>239.26</course>
  <speed>0.0</speed>
  <fix>3d</fix>
</trkpt>
<trkpt lat="40.0713749" lon="-105.229789">
  <ele>1583.0</ele>
  <time>2026-08-28T17:56:21Z</time>
  <course>0.0</course>
  <speed>0.0</speed>
  <fix>3d</fix>
</trkpt>
<trkpt lat="40.0713749" lon="-105.229789">
  <ele>1583.0</ele>
  <time>2026-08-28T17:56:21Z</time>
  <course>239.61</course>
  <speed>0.0</speed>
  <fix>3d</fix>
</trkpt>
<trkpt lat="40.0713749" lon="-105.229789">
  <ele>1583.0</ele>
  <time>2026-08-28T17:56:21Z</time>
  <course>0.0</course>
  <speed>0.0</speed>
  <fix>3d</fix>
</trkpt>
<trkpt lat="40.0713749" lon="-105.229789">
  <ele>1583.0</ele>
  <time>2026-08-28T17:56:21Z</time>
  <course>239.96</course>
  <speed>0.0</speed>
  <fix>3d</fix>
</trkpt>
<trkpt lat="40.0713749" lon="-105.229789">
  <ele>1583.0</ele>
  <time>2026-08-28T17:56:21Z</time>
  <course>0.0</course>
  <speed>0.0</speed>
  <fix>3d</fix>
</trkpt>
<trkpt lat="40.0713749" lon="-105.229789">
  <ele>1583.0</ele>
  <time>2026-08-28T17:56:21Z</time>
  <course>240.29</course>
  <speed>0.0</speed>
  <fix>3d</fix>
</trkpt>
<trkpt lat="40.0713749" lon="-105.229789">
  <ele>1583.0</ele>
  <time>2026-08-28T17:56:21Z</time>
  <course>0.0</course>
  <speed>0.0</speed>
  <fix>3d</fix>
</trkpt>
<trkpt lat="40.0713749" lon="-105.229789">
  <ele>1583.0</ele>
  <time>2026-08-28T17:56:21Z</time>
  <course>240.61</course>
  <speed>0.0</speed>
  <fix>3d</fix>
</trkpt>
<trkpt lat="40.0713749" lon="-105.229789">
  <ele>1583.0</ele>
  <time>2026-08-28T17:56:21Z</time>
  <course>0.0</course>
  <speed>0.0</speed>
  <fix>3d</fix>
</trkpt>
<trkpt lat="40.0713749" lon="-105.229789">
  <ele>1583.0</ele>
  <time>2026-08-28T17:56:21Z</time>
  <course>240.92</course>
  <speed>0.0</speed>
  <fix>3d</fix>
</trkpt>
<trkpt lat="40.0713749" lon="-105.229789">
  <ele>1583.0</ele>
  <time>2026-08-28T17:56:21Z</time>
  <course>0.0</course>
  <speed>0.0</speed>
  <fix>3d</fix>
</trkpt>
<trkpt lat="40.0713749" lon="-105.229789">
  <ele>1583.0</ele>
  <time>2026-08-28T17:56:21Z</time>
  <course>241.21</course>
  <speed>0.0</speed>
  <fix>3d</fix>
</trkpt>
<trkpt lat="40.0713749" lon="-105.229789">
  <ele>1583.0</ele>
  <time>2026-08-28T17:56:21Z</time>
  <course>0.0</course>
  <speed>0.0</speed>
  <fix>3d</fix>
</trkpt>
<trkpt lat="40.0713749" lon="-105.229789">
  <ele>1583.0</ele>
  <time>2026-08-28T17:56:21Z</time>
  <course>241.49</course>
  <speed>0.0</speed>
  <fix>3d</fix>
</trkpt>
<trkpt lat="40.0713749" lon="-105.229789">
  <ele>1583.0</ele>
  <time>2026-08-28T17:56:21Z</time>
  <course>0.0</course>
  <speed>0.0</speed>
  <fix>3d</fix>
</trkpt>
<trkpt lat="40.0713749" lon="-105.229789">
  <ele>1583.0</ele>
  <time>2026-08-28T17:56:21Z</time>
  <course>241.77</course>
  <speed>0.0</speed>
  <fix>3d</fix>
</trkpt>
<trkpt lat="40.0713749" lon="-105.229789">
  <ele>1583.0</ele>
  <time>2026-08-28T17:56:21Z</time>
  <course>0.0</course>
  <speed>0.0</speed>
  <fix>3d</fix>
</trkpt>
<trkpt lat="40.0713749" lon="-105.229789">
  <ele>1583.0</ele>
  <time>2026-08-28T17:56:21Z</time>
  <course>242.03</course>
  <speed>0.0</speed>
  <fix>3d</fix>
</trkpt>
<trkpt lat="40.0713749" lon="-105.229789">
  <ele>1583.0</ele>
  <time>2026-08-28T17:56:21Z</time>
  <course>0.0</course>
  <speed>0.0</speed>
  <fix>3d</fix>
</trkpt>
<trkpt lat="40.0713749" lon="-105.229789">
  <ele>1583.0</ele>
  <time>2026-08-28T17:56:21Z</time>
  <course>242.29</course>
  <speed>0.0</speed>
  <fix>3d</fix>
</trkpt>
<trkpt lat="40.0713749" lon="-105.229789">
  <ele>1583.0</ele>
  <time>2026-08-28T17:56:21Z</time>
  <course>0.0</course>
  <speed>0.0</speed>
  <fix>3d</fix>
</trkpt>
<trkpt lat="40.0713749" lon="-105.229789">
  <ele>1583.0</ele>
  <time>2026-08-28T17:56:21Z</time>
  <course>242.54</course>
  <speed>0.0</speed>
  <fix>3d</fix>
</trkpt>
<trkpt lat="40.0713749" lon="-105.229789">
  <ele>1583.0</ele>
  <time>2026-08-28T17:56:21Z</time>
  <course>0.0</course>
  <speed>0.0</speed>
  <fix>3d</fix>
</trkpt>
<trkpt lat="40.0713749" lon="-105.229789">
  <ele>1583.0</ele>
  <time>2026-08-28T17:56:21Z</time>
  <course>242.78</course>
  <speed>0.0</speed>
  <fix>3d</fix>
</trkpt>
<trkpt lat="40.0713749" lon="-105.229789">
  <ele>1583.0</ele>
  <time>2026-08-28T17:56:21Z</time>
  <course>0.0</course>
  <speed>0.0</speed>
  <fix>3d</fix>
</trkpt>
<trkpt lat="40.0713749" lon="-105.229789">
  <ele>1583.0</ele>
  <time>2026-08-28T17:56:21Z</time>
  <course>243.02</course>
  <speed>0.0</speed>
  <fix>3d</fix>
</trkpt>
<trkpt lat="40.0713749" lon="-105.229789">
  <ele>1583.0</ele>
  <time>2026-08-28T17:56:21Z</time>
  <course>0.0</course>
  <speed>0.0</speed>
  <fix>3d</fix>
</trkpt>
<trkpt lat="40.0713749" lon="-105.229789">
  <ele>1583.0</ele>
  <time>2026-08-28T17:56:21Z</time>
  <course>243.25</course>
  <speed>0.0</speed>
  <fix>3d</fix>
</trkpt>
<trkpt lat="40.0713749" lon="-105.229789">
  <ele>1583.0</ele>
  <time>2026-08-28T17:56:21Z</time>
  <course>0.0</course>
  <speed>0.0</speed>
  <fix>3d</fix>
</trkpt>
<trkpt lat="40.0713749" lon="-105.229789">
  <ele>1583.0</ele>
  <time>2026-08-28T17:56:21Z</time>
  <course>243.47</course>
  <speed>0.0</speed>
  <fix>3d</fix>
</trkpt>
<trkpt lat="40.0713749" lon="-105.229789">
  <ele>1583.0</ele>
  <time>2026-08-28T17:56:21Z</time>
  <course>0.0</course>
  <speed>0.0</speed>
  <fix>3d</fix>
</trkpt>
<trkpt lat="40.0713749" lon="-105.229789">
  <ele>1583.0</ele>
  <time>2026-08-28T17:56:21Z</time>
  <course>243.68</course>
  <speed>0.0</speed>
  <fix>3d</fix>
</trkpt>
<trkpt lat="40.0713749" lon="-105.229789">
  <ele>1583.0</ele>
  <time>2026-08-28T17:56:21Z</time>
  <course>0.0</course>
  <speed>0.0</speed>
  <fix>3d</fix>
</trkpt>
<trkpt lat="40.0713749" lon="-105.229789">
  <ele>1583.0</ele>
  <time>2026-08-28T17:56:21Z</time>
  <course>243.89</course>
  <speed>0.0</speed>
  <fix>3d</fix>
</trkpt>
<trkpt lat="40.0713749" lon="-105.229789">
  <ele>1583.0</ele>
  <time>2026-08-28T17:56:21Z</time>
  <course>0.0</course>
  <speed>0.0</speed>
  <fix>3d</fix>
</trkpt>
<trkpt lat="40.0713749" lon="-105.229789">
  <ele>1583.0</ele>
  <time>2026-08-28T17:56:21Z</time>
  <course>244.08</course>
  <speed>0.0</speed>
  <fix>3d</fix>
</trkpt>
<trkpt lat="40.0713749" lon="-105.229789">
  <ele>1583.0</ele>
  <time>2026-08-28T17:56:21Z</time>
  <course>0.0</course>
  <speed>0.0</speed>
  <fix>3d</fix>
</trkpt>
<trkpt lat="40.0713749" lon="-105.229789">
  <ele>1583.0</ele>
  <time>2026-08-28T17:56:21Z</time>
  <course>244.27</course>
  <speed>0.0</speed>
  <fix>3d</fix>
</trkpt>
<trkpt lat="40.0713749" lon="-105.229789">
  <ele>1583.0</ele>
  <time>2026-08-28T17:56:21Z</time>
  <course>0.0</course>
  <speed>0.0</speed>
  <fix>3d</fix>
</trkpt>
<trkpt lat="40.0713749" lon="-105.229789">
  <ele>1583.0</ele>
  <time>2026-08-28T17:56:21Z</time>
  <course>244.46</course>
  <speed>0.0</speed>
  <fix>3d</fix>
</trkpt>
<trkpt lat="40.0713749" lon="-105.229789">
  <ele>1583.0</ele>
  <time>2026-08-28T17:56:21Z</time>
  <course>0.0</course>
  <speed>0.0</speed>
  <fix>3d</fix>
</trkpt>
<trkpt lat="40.0713749" lon="-105.229789">
  <ele>1583.0</ele>
  <time>2026-08-28T17:56:21Z</time>
  <course>244.64</course>
  <speed>0.0</speed>
  <fix>3d</fix>
</trkpt>
<trkpt lat="40.0713749" lon="-105.229789">
  <ele>1583.0</ele>
  <time>2026-08-28T17:56:21Z</time>
  <course>0.0</course>
  <speed>0.0</speed>
  <fix>3d</fix>
</trkpt>
<trkpt lat="40.0713749" lon="-105.229789">
  <ele>1583.0</ele>
  <time>2026-08-28T17:56:21Z</time>
  <course>244.81</course>
  <speed>0.0</speed>
  <fix>3d</fix>
</trkpt>
<trkpt lat="40.0713749" lon="-105.229789">
  <ele>1583.0</ele>
  <time>2026-08-28T17:56:21Z</time>
  <course>0.0</course>
  <speed>0.0</speed>
  <fix>3d</fix>
</trkpt>
<trkpt lat="40.0713749" lon="-105.229789">
  <ele>1583.0</ele>
  <time>2026-08-28T17:56:21Z</time>
  <course>244.97</course>
  <speed>0.0</speed>
  <fix>3d</fix>
</trkpt>
<trkpt lat="40.0713749" lon="-105.229789">
  <ele>1583.0</ele>
  <time>2026-08-28T17:56:21Z</time>
  <course>0.0</course>
  <speed>0.0</speed>
  <fix>3d</fix>
</trkpt>
<trkpt lat="40.0713749" lon="-105.229789">
  <ele>1583.0</ele>
  <time>2026-08-28T17:56:21Z</time>
  <course>245.13</course>
  <speed>0.0</speed>
  <fix>3d</fix>
</trkpt>
<trkpt lat="40.0713749" lon="-105.229789">
  <ele>1583.0</ele>
  <time>2026-08-28T17:56:21Z</time>
  <course>0.0</course>
  <speed>0.0</speed>
  <fix>3d</fix>
</trkpt>
<trkpt lat="40.0713749" lon="-105.229789">
  <ele>1583.0</ele>
  <time>2026-08-28T17:56:21Z</time>
  <course>245.28</course>
  <speed>0.0</speed>
  <fix>3d</fix>
</trkpt>
<trkpt lat="40.0713749" lon="-105.229789">
  <ele>1583.0</ele>
  <time>2026-08-28T17:56:21Z</time>
  <course>0.0</course>
  <speed>0.0</speed>
  <fix>3d</fix>
</trkpt>
<trkpt lat="40.0713749" lon="-105.229789">
  <ele>1583.0</ele>
  <time>2026-08-28T17:56:21Z</time>
  <course>245.43</course>
  <speed>0.0</speed>
  <fix>3d</fix>
</trkpt>
<trkpt lat="40.0713749" lon="-105.229789">
  <ele>1583.0</ele>
  <time>2026-08-28T17:56:21Z</time>
  <course>0.0</course>
  <speed>0.0</speed>
  <fix>3d</fix>
</trkpt>
<trkpt lat="40.0713749" lon="-105.229789">
  <ele>1583.0</ele>
  <time>2026-08-28T17:56:21Z</time>
  <course>245.57</course>
  <speed>0.0</speed>
  <fix>3d</fix>
</trkpt>
<trkpt lat="40.0713749" lon="-105.229789">
  <ele>1583.0</ele>
  <time>2026-08-28T17:56:21Z</time>
  <course>0.0</course>
  <speed>0.0</speed>
  <fix>3d</fix>
</trkpt>
<trkpt lat="40.0713749" lon="-105.229789">
  <ele>1583.0</ele>
  <time>2026-08-28T17:56:21Z</time>
  <course>245.7</course>
  <speed>0.0</speed>
  <fix>3d</fix>
</trkpt>
<trkpt lat="40.0713749" lon="-105.229789">
  <ele>1583.0</ele>
  <time>2026-08-28T17:56:21Z</time>
  <course>0.0</course>
  <speed>0.0</speed>
  <fix>3d</fix>
</trkpt>
<trkpt lat="40.0713749" lon="-105.229789">
  <ele>1583.0</ele>
  <time>2026-08-28T17:56:21Z</time>
  <course>245.83</course>
  <speed>0.0</speed>
  <fix>3d</fix>
</trkpt>
<trkpt lat="40.0713749" lon="-105.229789">
  <ele>1583.0</ele>
  <time>2026-08-28T17:56:21Z</time>
  <course>0.0</course>
  <speed>0.0</speed>
  <fix>3d</fix>
</trkpt>
<trkpt lat="40.0713749" lon="-105.229789">
  <ele>1583.0</ele>
  <time>2026-08-28T17:56:21Z</time>
  <course>245.96</course>
  <speed>0.0</speed>
  <fix>3d</fix>
</trkpt>
<trkpt lat="40.0713749" lon="-105.229789">
  <ele>1583.0</ele>
  <time>2026-08-28T17:56:21Z</time>
  <course>0.0</course>
  <speed>0.0</speed>
  <fix>3d</fix>
</trkpt>
<trkpt lat="40.0713749" lon="-105.229789">
  <ele>1583.0</ele>
  <time>2026-08-28T17:56:21Z</time>
  <course>246.07</course>
  <speed>0.0</speed>
  <fix>3d</fix>
</trkpt>
<trkpt lat="40.0713749" lon="-105.229789">
  <ele>1583.0</ele>
  <time>2026-08-28T17:56:21Z</time>
  <course>0.0</course>
  <speed>0.0</speed>
  <fix>3d</fix>
</trkpt>
<trkpt lat="40.0713749" lon="-105.229789">
  <ele>1583.0</ele>
  <time>2026-08-28T17:56:21Z</time>
  <course>246.19</course>
  <speed>0.0</speed>
  <fix>3d</fix>
</trkpt>
<trkpt lat="40.0713749" lon="-105.229789">
  <ele>1583.0</ele>
  <time>2026-08-28T17:56:21Z</time>
  <course>0.0</course>
  <speed>0.0</speed>
  <fix>3d</fix>
</trkpt>
<trkpt lat="40.0713749" lon="-105.229789">
  <ele>1583.0</ele>
  <time>2026-08-28T17:56:21Z</time>
  <course>246.3</course>
  <speed>0.0</speed>
  <fix>3d</fix>
</trkpt>
<trkpt lat="40.0713749" lon="-105.229789">
  <ele>1583.0</ele>
  <time>2026-08-28T17:56:21Z</time>
  <course>0.0</course>
  <speed>0.0</speed>
  <fix>3d</fix>
</trkpt>
<trkpt lat="40.0713749" lon="-105.229789">
  <ele>1583.0</ele>
  <time>2026-08-28T17:56:21Z</time>
  <course>246.4</course>
  <speed>0.0</speed>
  <fix>3d</fix>
</trkpt>
<trkpt lat="40.0713749" lon="-105.229789">
  <ele>1583.0</ele>
  <time>2026-08-28T17:56:21Z</time>
  <course>0.0</course>
  <speed>0.0</speed>
  <fix>3d</fix>
</trkpt>
<trkpt lat="40.0713749" lon="-105.229789">
  <ele>1583.0</ele>
  <time>2026-08-28T17:56:21Z</time>
  <course>246.5</course>
  <speed>0.0</speed>
  <fix>3d</fix>
</trkpt>
<trkpt lat="40.0713749" lon="-105.229789">
  <ele>1583.0</ele>
  <time>2026-08-28T17:56:21Z</time>
  <course>0.0</course>
  <speed>0.0</speed>
  <fix>3d</fix>
</trkpt>
<trkpt lat="40.0713749" lon="-105.229789">
  <ele>1583.0</ele>
  <time>2026-08-28T17:56:21Z</time>
  <course>246.6</course>
  <speed>0.0</speed>
  <fix>3d</fix>
</trkpt>
<trkpt lat="40.0713749" lon="-105.229789">
  <ele>1583.0</ele>
  <time>2026-08-28T17:56:21Z</time>
  <course>0.0</course>
  <speed>0.0</speed>
  <fix>3d</fix>
</trkpt>
<trkpt lat="40.0713749" lon="-105.229789">
  <ele>1583.0</ele>
  <time>2026-08-28T17:56:21Z</time>
  <course>246.69</course>
  <speed>0.0</speed>
  <fix>3d</fix>
</trkpt>
<trkpt lat="40.0713749" lon="-105.229789">
  <ele>1583.0</ele>
  <time>2026-08-28T17:56:21Z</time>
  <course>0.0</course>
  <speed>0.0</speed>
  <fix>3d</fix>
</trkpt>
<trkpt lat="40.0713749" lon="-105.229789">
  <ele>1583.0</ele>
  <time>2026-08-28T17:56:21Z</time>
  <course>246.78</course>
  <speed>0.0</speed>
  <fix>3d</fix>
</trkpt>
<trkpt lat="40.0713749" lon="-105.229789">
  <ele>1583.0</ele>
  <time>2026-08-28T17:56:21Z</time>
  <course>0.0</course>
  <speed>0.0</speed>
  <fix>3d</fix>
</trkpt>
<trkpt lat="40.0713749" lon="-105.229789">
  <ele>1583.0</ele>
  <time>2026-08-28T17:56:21Z</time>
  <course>246.86</course>
  <speed>0.0</speed>
  <fix>3d</fix>
</trkpt>
<trkpt lat="40.0713749" lon="-105.229789">
  <ele>1583.0</ele>
  <time>2026-08-28T17:56:21Z</time>
  <course>0.0</course>
  <speed>0.0</speed>
  <fix>3d</fix>
</trkpt>
<trkpt lat="40.0713749" lon="-105.229789">
  <ele>1583.0</ele>
  <time>2026-08-28T17:56:21Z</time>
  <course>246.94</course>
  <speed>0.0</speed>
  <fix>3d</fix>
</trkpt>
<trkpt lat="40.0713749" lon="-105.229789">
  <ele>1583.0</ele>
  <time>2026-08-28T17:56:21Z</time>
  <course>0.0</course>
  <speed>0.0</speed>
  <fix>3d</fix>
</trkpt>
<trkpt lat="40.0713749" lon="-105.229789">
  <ele>1583.0</ele>
  <time>2026-08-28T17:56:21Z</time>
  <course>247.02</course>
  <speed>0.0</speed>
  <fix>3d</fix>
</trkpt>
<trkpt lat="40.0713749" lon="-105.229789">
  <ele>1583.0</ele>
  <time>2026-08-28T17:56:21Z</time>
  <course>0.0</course>
  <speed>0.0</speed>
  <fix>3d</fix>
</trkpt>
<trkpt lat="40.0713749" lon="-105.229789">
  <ele>1583.0</ele>
  <time>2026-08-28T17:56:21Z</time>
  <course>247.09</course>
  <speed>0.0</speed>
  <fix>3d</fix>
</trkpt>
<trkpt lat="40.0713749" lon="-105.229789">
  <ele>1583.0</ele>
  <time>2026-08-28T17:56:21Z</time>
  <course>0.0</course>
  <speed>0.0</speed>
  <fix>3d</fix>
</trkpt>
<trkpt lat="40.0713749" lon="-105.229789">
  <ele>1583.0</ele>
  <time>2026-08-28T17:56:21Z</time>
  <course>247.16</course>
  <speed>0.0</speed>
  <fix>3d</fix>
</trkpt>
<trkpt lat="40.0713749" lon="-105.229789">
  <ele>1583.0</ele>
  <time>2026-08-28T17:56:21Z</time>
  <course>0.0</course>
  <speed>0.0</speed>
  <fix>3d</fix>
</trkpt>
<trkpt lat="40.0713749" lon="-105.229789">
  <ele>1583.0</ele>
  <time>2026-08-28T17:56:21Z</time>
  <course>247.23</course>
  <speed>0.0</speed>
  <fix>3d</fix>
</trkpt>
<trkpt lat="40.0713749" lon="-105.229789">
  <ele>1583.0</ele>
  <time>2026-08-28T17:56:21Z</time>
  <course>0.0</course>
  <speed>0.0</speed>
  <fix>3d</fix>
</trkpt>
<trkpt lat="40.0713749" lon="-105.229789">
  <ele>1583.0</ele>
  <time>2026-08-28T17:56:21Z</time>
  <course>247.29</course>
  <speed>0.0</speed>
  <fix>3d</fix>
</trkpt>
<trkpt lat="40.0713749" lon="-105.229789">
  <ele>1583.0</ele>
  <time>2026-08-28T17:56:21Z</time>
  <course>0.0</course>
  <speed>0.0</speed>
  <fix>3d</fix>
</trkpt>
<trkpt lat="40.0713749" lon="-105.229789">
  <ele>1583.0</ele>
  <time>2026-08-28T17:56:21Z</time>
  <course>247.35</course>
  <speed>0.0</speed>
  <fix>3d</fix>
</trkpt>
<trkpt lat="40.0713749" lon="-105.229789">
  <ele>1583.0</ele>
  <time>2026-08-28T17:56:21Z</time>
  <course>0.0</course>
  <speed>0.0</speed>
  <fix>3d</fix>
</trkpt>
<trkpt lat="40.0713749" lon="-105.229789">
  <ele>1583.0</ele>
  <time>2026-08-28T17:56:21Z</time>
  <course>247.41</course>
  <speed>0.0</speed>
  <fix>3d</fix>
</trkpt>
<trkpt lat="40.0713749" lon="-105.229789">
  <ele>1583.0</ele>
  <time>2026-08-28T17:56:21Z</time>
  <course>0.0</course>
  <speed>0.0</speed>
  <fix>3d</fix>
</trkpt>
<trkpt lat="40.0713749" lon="-105.229789">
  <ele>1583.0</ele>
  <time>2026-08-28T17:56:21Z</time>
  <course>247.47</course>
  <speed>0.0</speed>
  <fix>3d</fix>
</trkpt>
<trkpt lat="40.0713749" lon="-105.229789">
  <ele>1583.0</ele>
  <time>2026-08-28T17:56:21Z</time>
  <course>0.0</course>
  <speed>0.0</speed>
  <fix>3d</fix>
</trkpt>
<trkpt lat="40.0713749" lon="-105.229789">
  <ele>1583.0</ele>
  <time>2026-08-28T17:56:21Z</time>
  <course>247.52</course>
  <speed>0.0</speed>
  <fix>3d</fix>
</trkpt>
<trkpt lat="40.0713749" lon="-105.229789">
  <ele>1583.0</ele>
  <time>2026-08-28T17:56:21Z</time>
  <course>0.0</course>
  <speed>0.0</speed>
  <fix>3d</fix>
</trkpt>
<trkpt lat="40.0713749" lon="-105.229789">
  <ele>1583.0</ele>
  <time>2026-08-28T17:56:21Z</time>
  <course>247.57</course>
  <speed>0.0</speed>
  <fix>3d</fix>
</trkpt>
<trkpt lat="40.0713749" lon="-105.229789">
  <ele>1583.0</ele>
  <time>2026-08-28T17:56:21Z</time>
  <course>0.0</course>
  <speed>0.0</speed>
  <fix>3d</fix>
</trkpt>
<trkpt lat="40.0713749" lon="-105.229789">
  <ele>1583.0</ele>
  <time>2026-08-28T17:56:21Z</time>
  <course>247.62</course>
  <speed>0.0</speed>
  <fix>3d</fix>
</trkpt>
<trkpt lat="40.0713749" lon="-105.229789">
  <ele>1583.0</ele>
  <time>2026-08-28T17:56:21Z</time>
  <course>0.0</course>
  <speed>0.0</speed>
  <fix>3d</fix>
</trkpt>
<trkpt lat="40.0713749" lon="-105.229789">
  <ele>1583.0</ele>
  <time>2026-08-28T17:56:21Z</time>
  <course>247.66</course>
  <speed>0.0</speed>
  <fix>3d</fix>
</trkpt>
<trkpt lat="40.0713749" lon="-105.229789">
  <ele>1583.0</ele>
  <time>2026-08-28T17:56:21Z</time>
  <course>0.0</course>
  <speed>0.0</speed>
  <fix>3d</fix>
</trkpt>
<trkpt lat="40.0713749" lon="-105.229789">
  <ele>1583.0</ele>
  <time>2026-08-28T17:56:21Z</time>
  <course>247.71</course>
  <speed>0.0</speed>
  <fix>3d</fix>
</trkpt>
<trkpt lat="40.0713749" lon="-105.229789">
  <ele>1583.0</ele>
  <time>2026-08-28T17:56:21Z</time>
  <course>0.0</course>
  <speed>0.0</speed>
  <fix>3d</fix>
</trkpt>
<trkpt lat="40.0713749" lon="-105.229789">
  <ele>1583.0</ele>
  <time>2026-08-28T17:56:21Z</time>
  <course>247.75</course>
  <speed>0.0</speed>
  <fix>3d</fix>
</trkpt>
<trkpt lat="40.0713749" lon="-105.229789">
  <ele>1583.0</ele>
  <time>2026-08-28T17:56:21Z</time>
  <course>0.0</course>
  <speed>0.0</speed>
  <fix>3d</fix>
</trkpt>
<trkpt lat="40.0713749" lon="-105.229789">
  <ele>1583.0</ele>
  <time>2026-08-28T17:56:21Z</time>
  <course>247.79</course>
  <speed>0.0</speed>
  <fix>3d</fix>
</trkpt>
<trkpt lat="40.0713749" lon="-105.229789">
  <ele>1583.0</ele>
  <time>2026-08-28T17:56:21Z</time>
  <course>0.0</course>
  <speed>0.0</speed>
  <fix>3d</fix>
</trkpt>
<trkpt lat="40.0713749" lon="-105.229789">
  <ele>1583.0</ele>
  <time>2026-08-28T17:56:21Z</time>
  <course>247.83</course>
  <speed>0.0</speed>
  <fix>3d</fix>
</trkpt>
<trkpt lat="40.0713749" lon="-105.229789">
  <ele>1583.0</ele>
  <time>2026-08-28T17:56:21Z</time>
  <course>0.0</course>
  <speed>0.0</speed>
  <fix>3d</fix>
</trkpt>
<trkpt lat="40.0713749" lon="-105.229789">
  <ele>1583.0</ele>
  <time>2026-08-28T17:56:21Z</time>
  <course>247.86</course>
  <speed>0.0</speed>
  <fix>3d</fix>
</trkpt>
<trkpt lat="40.0713749" lon="-105.229789">
  <ele>1583.0</ele>
  <time>2026-08-28T17:56:21Z</time>
  <course>0.0</course>
  <speed>0.0</speed>
  <fix>3d</fix>
</trkpt>
<trkpt lat="40.0713749" lon="-105.229789">
  <ele>1583.0</ele>
  <time>2026-08-28T17:56:21Z</time>
  <course>247.89</course>
  <speed>0.0</speed>
  <fix>3d</fix>
</trkpt>
<trkpt lat="40.0713749" lon="-105.229789">
  <ele>1583.0</ele>
  <time>2026-08-28T17:56:21Z</time>
  <course>0.0</course>
  <speed>0.0</speed>
  <fix>3d</fix>
</trkpt>
<trkpt lat="40.0713749" lon="-105.229789">
  <ele>1583.0</ele>
  <time>2026-08-28T17:56:21Z</time>
  <course>247.93</course>
  <speed>0.0</speed>
  <fix>3d</fix>
</trkpt>
<trkpt lat="40.0713749" lon="-105.229789">
  <ele>1583.0</ele>
  <time>2026-08-28T17:56:21Z</time>
  <course>0.0</course>
  <speed>0.0</speed>
  <fix>3d</fix>
</trkpt>
<trkpt lat="40.0713749" lon="-105.229789">
  <ele>1583.0</ele>
  <time>2026-08-28T17:56:21Z</time>
  <course>247.96</course>
  <speed>0.0</speed>
  <fix>3d</fix>
</trkpt>
<trkpt lat="40.0713749" lon="-105.229789">
  <ele>1583.0</ele>
  <time>2026-08-28T17:56:21Z</time>
  <course>0.0</course>
  <speed>0.0</speed>
  <fix>3d</fix>
</trkpt>
<trkpt lat="40.0713749" lon="-105.229789">
  <ele>1583.0</ele>
  <time>2026-08-28T17:56:21Z</time>
  <course>247.99</course>
  <speed>0.0</speed>
  <fix>3d</fix>
</trkpt>
<trkpt lat="40.0713749" lon="-105.229789">
  <ele>1583.0</ele>
  <time>2026-08-28T17:56:21Z</time>
  <course>0.0</course>
  <speed>0.0</speed>
  <fix>3d</fix>
</trkpt>
<trkpt lat="40.0713749" lon="-105.229789">
  <ele>1583.0</ele>
  <time>2026-08-28T17:56:21Z</time>
  <course>248.02</course>
  <speed>0.0</speed>
  <fix>3d</fix>
</trkpt>
<trkpt lat="40.0713749" lon="-105.229789">
  <ele>1583.0</ele>
  <time>2026-08-28T17:56:21Z</time>
  <course>0.0</course>
  <speed>0.0</speed>
  <fix>3d</fix>
</trkpt>
<trkpt lat="40.0713749" lon="-105.229789">
  <ele>1583.0</ele>
  <time>2026-08-28T17:56:21Z</time>
  <course>248.04</course>
  <speed>0.0</speed>
  <fix>3d</fix>
</trkpt>
<trkpt lat="40.0713749" lon="-105.229789">
  <ele>1583.0</ele>
  <time>2026-08-28T17:56:21Z</time>
  <course>0.0</course>
  <speed>0.0</speed>
  <fix>3d</fix>
</trkpt>
<trkpt lat="40.0713749" lon="-105.229789">
  <ele>1583.0</ele>
  <time>2026-08-28T17:56:21Z</time>
  <course>248.07</course>
  <speed>0.0</speed>
  <fix>3d</fix>
</trkpt>
<trkpt lat="40.0713749" lon="-105.229789">
  <ele>1583.0</ele>
  <time>2026-08-28T17:56:21Z</time>
  <course>0.0</course>
  <speed>0.0</speed>
  <fix>3d</fix>
</trkpt>
<trkpt lat="40.0713749" lon="-105.229789">
  <ele>1583.0</ele>
  <time>2026-08-28T17:56:21Z</time>
  <course>248.09</course>
  <speed>0.0</speed>
  <fix>3d</fix>
</trkpt>
<trkpt lat="40.0713749" lon="-105.229789">
  <ele>1583.0</ele>
  <time>2026-08-28T17:56:21Z</time>
  <course>0.0</course>
  <speed>0.0</speed>
  <fix>3d</fix>
</trkpt>
<trkpt lat="40.0713749" lon="-105.229789">
  <ele>1583.0</ele>
  <time>2026-08-28T17:56:21Z</time>
  <course>248.11</course>
  <speed>0.0</speed>
  <fix>3d</fix>
</trkpt>
<trkpt lat="40.0713749" lon="-105.229789">
  <ele>1583.0</ele>
  <time>2026-08-28T17:56:21Z</time>
  <course>0.0</course>
  <speed>0.0</speed>
  <fix>3d</fix>
</trkpt>
<trkpt lat="40.0713749" lon="-105.229789">
  <ele>1583.0</ele>
  <time>2026-08-28T17:56:21Z</time>
  <course>248.13</course>
  <speed>0.0</speed>
  <fix>3d</fix>
</trkpt>
<trkpt lat="40.0713749" lon="-105.229789">
  <ele>1583.0</ele>
  <time>2026-08-28T17:56:21Z</time>
  <course>0.0</course>
  <speed>0.0</speed>
  <fix>3d</fix>
</trkpt>
<trkpt lat="40.0713749" lon="-105.229789">
  <ele>1583.0</ele>
  <time>2026-08-28T17:56:21Z</time>
  <course>248.15</course>
  <speed>0.0</speed>
  <fix>3d</fix>
</trkpt>
<trkpt lat="40.0713749" lon="-105.229789">
  <ele>1583.0</ele>
  <time>2026-08-28T17:56:21Z</time>
  <course>0.0</course>
  <speed>0.0</speed>
  <fix>3d</fix>
</trkpt>
<trkpt lat="40.0713749" lon="-105.229789">
  <ele>1583.0</ele>
  <time>2026-08-28T17:56:21Z</time>
  <course>248.17</course>
  <speed>0.0</speed>
  <fix>3d</fix>
</trkpt>
<trkpt lat="40.0713749" lon="-105.229789">
  <ele>1583.0</ele>
  <time>2026-08-28T17:56:21Z</time>
  <course>0.0</course>
  <speed>0.0</speed>
  <fix>3d</fix>
</trkpt>
<trkpt lat="40.0713749" lon="-105.229789">
  <ele>1583.0</ele>
  <time>2026-08-28T17:56:21Z</time>
  <course>248.19</course>
  <speed>0.0</speed>
  <fix>3d</fix>
</trkpt>
<trkpt lat="40.0713749" lon="-105.229789">
  <ele>1583.0</ele>
  <time>2026-08-28T17:56:21Z</time>
  <course>0.0</course>
  <speed>0.0</speed>
  <fix>3d</fix>
</trkpt>
<trkpt lat="40.0713749" lon="-105.229789">
  <ele>1583.0</ele>
  <time>2026-08-28T17:56:21Z</time>
  <course>248.21</course>
  <speed>0.0</speed>
  <fix>3d</fix>
</trkpt>
<trkpt lat="40.0713749" lon="-105.229789">
  <ele>1583.0</ele>
  <time>2026-08-28T17:56:21Z</time>
  <course>0.0</course>
  <speed>0.0</speed>
  <fix>3d</fix>
</trkpt>
<trkpt lat="40.0713749" lon="-105.229789">
  <ele>1583.0</ele>
  <time>2026-08-28T17:56:21Z</time>
  <course>248.22</course>
  <speed>0.0</speed>
  <fix>3d</fix>
</trkpt>
<trkpt lat="40.0713749" lon="-105.229789">
  <ele>1583.0</ele>
  <time>2026-08-28T17:56:21Z</time>
  <course>0.0</course>
  <speed>0.0</speed>
  <fix>3d</fix>
</trkpt>
<trkpt lat="40.0713749" lon="-105.229789">
  <ele>1583.0</ele>
  <time>2026-08-28T17:56:21Z</time>
  <course>248.24</course>
  <speed>0.0</speed>
  <fix>3d</fix>
</trkpt>
<trkpt lat="40.0713749" lon="-105.229789">
  <ele>1583.0</ele>
  <time>2026-08-28T17:56:21Z</time>
  <course>0.0</course>
  <speed>0.0</speed>
  <fix>3d</fix>
</trkpt>
<trkpt lat="40.0713749" lon="-105.229789">
  <ele>1583.0</ele>
  <time>2026-08-28T17:56:21Z</time>
  <course>248.25</course>
  <speed>0.0</speed>
  <fix>3d</fix>
</trkpt>
<trkpt lat="40.0713749" lon="-105.229789">
  <ele>1583.0</ele>
  <time>2026-08-28T17:56:21Z</time>
  <course>0.0</course>
  <speed>0.0</speed>
  <fix>3d</fix>
</trkpt>
<trkpt lat="40.0713749" lon="-105.229789">
  <ele>1583.0</ele>
  <time>2026-08-28T17:56:21Z</time>
  <course>248.26</course>
  <speed>0.0</speed>
  <fix>3d</fix>
</trkpt>
<trkpt lat="40.0713749" lon="-105.229789">
  <ele>1583.0</ele>
  <time>2026-08-28T17:56:21Z</time>
  <course>0.0</course>
  <speed>0.0</speed>
  <fix>3d</fix>
</trkpt>
<trkpt lat="40.0713749" lon="-105.229789">
  <ele>1583.0</ele>
  <time>2026-08-28T17:56:21Z</time>
  <course>248.28</course>
  <speed>0.0</speed>
  <fix>3d</fix>
</trkpt>
<trkpt lat="40.0713749" lon="-105.229789">
  <ele>1583.0</ele>
  <time>2026-08-28T17:56:21Z</time>
  <course>0.0</course>
  <speed>0.0</speed>
  <fix>3d</fix>
</trkpt>
<trkpt lat="40.0713749" lon="-105.229789">
  <ele>1583.0</ele>
  <time>2026-08-28T17:56:21Z</time>
  <course>248.29</course>
  <speed>0.0</speed>
  <fix>3d</fix>
</trkpt>
<trkpt lat="40.0713749" lon="-105.229789">
  <ele>1583.0</ele>
  <time>2026-08-28T17:56:21Z</time>
  <course>0.0</course>
  <speed>0.0</speed>
  <fix>3d</fix>
</trkpt>
<trkpt lat="40.0713749" lon="-105.229789">
  <ele>1583.0</ele>
  <time>2026-08-28T17:56:21Z</time>
  <course>248.3</course>
  <speed>0.0</speed>
  <fix>3d</fix>
</trkpt>
<trkpt lat="40.0713749" lon="-105.229789">
  <ele>1583.0</ele>
  <time>2026-08-28T17:56:21Z</time>
  <course>0.0</course>
  <speed>0.0</speed>
  <fix>3d</fix>
</trkpt>
<trkpt lat="40.0713749" lon="-105.229789">
  <ele>1583.0</ele>
  <time>2026-08-28T17:56:21Z</time>
  <course>248.31</course>
  <speed>0.0</speed>
  <fix>3d</fix>
</trkpt>
<trkpt lat="40.0713749" lon="-105.229789">
  <ele>1583.0</ele>
  <time>2026-08-28T17:56:21Z</time>
  <course>0.0</course>
  <speed>0.0</speed>
  <fix>3d</fix>
</trkpt>
<trkpt lat="40.0713749" lon="-105.229789">
  <ele>1583.0</ele>
  <time>2026-08-28T17:56:21Z</time>
  <course>248.32</course>
  <speed>0.0</speed>
  <fix>3d</fix>
</trkpt>
<trkpt lat="40.0713749" lon="-105.229789">
  <ele>1583.0</ele>
  <time>2026-08-28T17:56:21Z</time>
  <course>0.0</course>
  <speed>0.0</speed>
  <fix>3d</fix>
</trkpt>
<trkpt lat="40.0713749" lon="-105.229789">
  <ele>1583.0</ele>
  <time>2026-08-28T17:56:21Z</time>
  <course>248.33</course>
  <speed>0.0</speed>
  <fix>3d</fix>
</trkpt>
<trkpt lat="40.0713749" lon="-105.229789">
  <ele>1583.0</ele>
  <time>2026-08-28T17:56:21Z</time>
  <course>0.0</course>
  <speed>0.0</speed>
  <fix>3d</fix>
</trkpt>
<trkpt lat="40.0713749" lon="-105.229789">
  <ele>1583.0</ele>
  <time>2026-08-28T17:56:21Z</time>
  <course>248.34</course>
  <speed>0.0</speed>
  <fix>3d</fix>
</trkpt>
<trkpt lat="40.0713749" lon="-105.229789">
  <ele>1583.0</ele>
  <time>2026-08-28T17:56:21Z</time>
  <course>0.0</course>
  <speed>0.0</speed>
  <fix>3d</fix>
</trkpt>
<trkpt lat="40.0713749" lon="-105.229789">
  <ele>1583.0</ele>
  <time>2026-08-28T17:56:21Z</time>
  <course>248.34</course>
  <speed>0.0</speed>
  <fix>3d</fix>
</trkpt>
<trkpt lat="40.0713749" lon="-105.229789">
  <ele>1583.0</ele>
  <time>2026-08-28T17:56:21Z</time>
  <course>0.0</course>
  <speed>0.0</speed>
  <fix>3d</fix>
</trkpt>
<trkpt lat="40.0713749" lon="-105.229789">
  <ele>1583.0</ele>
  <time>2026-08-28T17:56:21Z</time>
  <course>248.35</course>
  <speed>0.0</speed>
  <fix>3d</fix>
</trkpt>
<trkpt lat="40.0713749" lon="-105.229789">
  <ele>1583.0</ele>
  <time>2026-08-28T17:56:21Z</time>
  <course>0.0</course>
  <speed>0.0</speed>
  <fix>3d</fix>
</trkpt>
<trkpt lat="40.0713749" lon="-105.229789">
  <ele>1583.0</ele>
  <time>2026-08-28T17:56:21Z</time>
  <course>248.36</course>
  <speed>0.0</speed>
  <fix>3d</fix>
</trkpt>
<trkpt lat="40.0713749" lon="-105.229789">
  <ele>1583.0</ele>
  <time>2026-08-28T17:56:21Z</time>
  <course>0.0</course>
  <speed>0.0</speed>
  <fix>3d</fix>
</trkpt>
<trkpt lat="40.0713749" lon="-105.229789">
  <ele>1583.0</ele>
  <time>2026-08-28T17:56:21Z</time>
  <course>248.36</course>
  <speed>0.0</speed>
  <fix>3d</fix>
</trkpt>
<trkpt lat="40.0713749" lon="-105.229789">
  <ele>1583.0</ele>
  <time>2026-08-28T17:56:21Z</time>
  <course>0.0</course>
  <speed>0.0</speed>
  <fix>3d</fix>
</trkpt>
<trkpt lat="40.0713749" lon="-105.229789">
  <ele>1583.0</ele>
  <time>2026-08-28T17:56:21Z</time>
  <course>248.37</course>
  <speed>0.0</speed>
  <fix>3d</fix>
</trkpt>
<trkpt lat="40.0713749" lon="-105.229789">
  <ele>1583.0</ele>
  <time>2026-08-28T17:56:21Z</time>
  <course>0.0</course>
  <speed>0.0</speed>
  <fix>3d</fix>
</trkpt>
<trkpt lat="40.0713749" lon="-105.229789">
  <ele>1583.0</ele>
  <time>2026-08-28T17:56:21Z</time>
  <course>248.37</course>
  <speed>0.0</speed>
  <fix>3d</fix>
</trkpt>
<trkpt lat="40.0713749" lon="-105.229789">
  <ele>1583.0</ele>
  <time>2026-08-28T17:56:21Z</time>
  <course>0.0</course>
  <speed>0.0</speed>
  <fix>3d</fix>
</trkpt>
<trkpt lat="40.0713749" lon="-105.229789">
  <ele>1583.0</ele>
  <time>2026-08-28T17:56:21Z</time>
  <course>248.38</course>
  <speed>0.0</speed>
  <fix>3d</fix>
</trkpt>
<trkpt lat="40.0713749" lon="-105.229789">
  <ele>1583.0</ele>
  <time>2026-08-28T17:56:21Z</time>
  <course>0.0</course>
  <speed>0.0</speed>
  <fix>3d</fix>
</trkpt>
<trkpt lat="40.0713749" lon="-105.229789">
  <ele>1583.0</ele>
  <time>2026-08-28T17:56:21Z</time>
  <course>248.38</course>
  <speed>0.0</speed>
  <fix>3d</fix>
</trkpt>
<trkpt lat="40.0713749" lon="-105.229789">
  <ele>1583.0</ele>
  <time>2026-08-28T17:56:21Z</time>
  <course>0.0</course>
  <speed>0.0</speed>
  <fix>3d</fix>
</trkpt>
<trkpt lat="40.0713749" lon="-105.229789">
  <ele>1583.0</ele>
  <time>2026-08-28T17:56:21Z</time>
  <course>248.39</course>
  <speed>0.0</speed>
  <fix>3d</fix>
</trkpt>
<trkpt lat="40.0713749" lon="-105.229789">
  <ele>1583.0</ele>
  <time>2026-08-28T17:56:21Z</time>
  <course>0.0</course>
  <speed>0.0</speed>
  <fix>3d</fix>
</trkpt>
<trkpt lat="40.0713749" lon="-105.229789">
  <ele>1583.0</ele>
  <time>2026-08-28T17:56:21Z</time>
  <course>248.39</course>
  <speed>0.0</speed>
  <fix>3d</fix>
</trkpt>
<trkpt lat="40.0713749" lon="-105.229789">
  <ele>1583.0</ele>
  <time>2026-08-28T17:56:21Z</time>
  <course>0.0</course>
  <speed>0.0</speed>
  <fix>3d</fix>
</trkpt>
<trkpt lat="40.0713749" lon="-105.229789">
  <ele>1583.0</ele>
  <time>2026-08-28T17:56:21Z</time>
  <course>248.39</course>
  <speed>0.0</speed>
  <fix>3d</fix>
</trkpt>
<trkpt lat="40.0713749" lon="-105.229789">
  <ele>1583.0</ele>
  <time>2026-08-28T17:56:21Z</time>
  <course>0.0</course>
  <speed>0.0</speed>
  <fix>3d</fix>
</trkpt>
<trkpt lat="40.0713749" lon="-105.229789">
  <ele>1583.0</ele>
  <time>2026-08-28T17:56:21Z</time>
  <course>248.39</course>
  <speed>0.0</speed>
  <fix>3d</fix>
</trkpt>
<trkpt lat="40.0713749" lon="-105.229789">
  <ele>1583.0</ele>
  <time>2026-08-28T17:56:21Z</time>
  <course>0.0</course>
  <speed>0.0</speed>
  <fix>3d</fix>
</trkpt>
<trkpt lat="40.0713749" lon="-105.229789">
  <ele>1583.0</ele>
  <time>2026-08-28T17:56:21Z</time>
  <course>248.4</course>
  <speed>0.0</speed>
  <fix>3d</fix>
</trkpt>
<trkpt lat="40.0713749" lon="-105.229789">
  <ele>1583.0</ele>
  <time>2026-08-28T17:56:21Z</time>
  <course>0.0</course>
  <speed>0.0</speed>
  <fix>3d</fix>
</trkpt>
<trkpt lat="40.0713749" lon="-105.229789">
  <ele>1583.0</ele>
  <time>2026-08-28T17:56:21Z</time>
  <course>248.4</course>
  <speed>0.0</speed>
  <fix>3d</fix>
</trkpt>
<trkpt lat="40.0713749" lon="-105.229789">
  <ele>1583.0</ele>
  <time>2026-08-28T17:56:21Z</time>
  <course>0.0</course>
  <speed>0.0</speed>
  <fix>3d</fix>
</trkpt>
<trkpt lat="40.0713749" lon="-105.229789">
  <ele>1583.0</ele>
  <time>2026-08-28T17:56:21Z</time>
  <course>248.4</course>
  <speed>0.0</speed>
  <fix>3d</fix>
</trkpt>
<trkpt lat="40.0713749" lon="-105.229789">
  <ele>1583.0</ele>
  <time>2026-08-28T17:56:21Z</time>
  <course>0.0</course>
  <speed>0.0</speed>
  <fix>3d</fix>
</trkpt>
<trkpt lat="40.0713749" lon="-105.229789">
  <ele>1583.0</ele>
  <time>2026-08-28T17:56:21Z</time>
  <course>248.4</course>
  <speed>0.0</speed>
  <fix>3d</fix>
</trkpt>
<trkpt lat="40.0713749" lon="-105.229789">
  <ele>1583.0</ele>
  <time>2026-08-28T17:56:21Z</time>
  <course>0.0</course>
  <speed>0.0</speed>
  <fix>3d</fix>
</trkpt>
<trkpt lat="40.0713749" lon="-105.229789">
  <ele>1583.0</ele>
  <time>2026-08-28T17:56:21Z</time>
  <course>248.4</course>
  <speed>0.0</speed>
  <fix>3d</fix>
</trkpt>
<trkpt lat="40.0713749" lon="-105.229789">
  <ele>1583.0</ele>
  <time>2026-08-28T17:56:21Z</time>
  <course>0.0</course>
  <speed>0.0</speed>
  <fix>3d</fix>
</trkpt>
<trkpt lat="40.0713749" lon="-105.229789">
  <ele>1583.0</ele>
  <time>2026-08-28T17:56:21Z</time>
  <course>248.4</course>
  <speed>0.0</speed>
  <fix>3d</fix>
</trkpt>
<trkpt lat="40.0713749" lon="-105.229789">
  <ele>1583.0</ele>
  <time>2026-08-28T17:56:21Z</time>
  <course>0.0</course>
  <speed>0.0</speed>
  <fix>3d</fix>
</trkpt>
<trkpt lat="40.0713749" lon="-105.229789">
  <ele>1583.0</ele>
  <time>2026-08-28T17:56:21Z</time>
  <course>248.4</course>
  <speed>0.0</speed>
  <fix>3d</fix>
</trkpt>
<trkpt lat="40.0713749" lon="-105.229789">
  <ele>1583.0</ele>
  <time>2026-08-28T17:56:21Z</time>
  <course>0.0</course>
  <speed>0.0</speed>
  <fix>3d</fix>
</trkpt>
<trkpt lat="40.0713749" lon="-105.229789">
  <ele>1583.0</ele>
  <time>2026-08-28T17:56:21Z</time>
  <course>248.4</course>
  <speed>0.0</speed>
  <fix>3d</fix>
</trkpt>
<trkpt lat="40.0713749" lon="-105.229789">
  <ele>1583.0</ele>
  <time>2026-08-28T17:56:21Z</time>
  <course>0.0</course>
  <speed>0.0</speed>
  <fix>3d</fix>
</trkpt>
<trkpt lat="40.0713749" lon="-105.229789">
  <ele>1583.0</ele>
  <time>2026-08-28T17:56:21Z</time>
  <course>248.4</course>
  <speed>0.0</speed>
  <fix>3d</fix>
</trkpt>
<trkpt lat="40.0713749" lon="-105.229789">
  <ele>1583.0</ele>
  <time>2026-08-28T17:56:21Z</time>
  <course>0.0</course>
  <speed>0.0</speed>
  <fix>3d</fix>
</trkpt>
<trkpt lat="40.0713749" lon="-105.229789">
  <ele>1583.0</ele>
  <time>2026-08-28T17:56:21Z</time>
  <course>248.4</course>
  <speed>0.0</speed>
  <fix>3d</fix>
</trkpt>
<trkpt lat="40.0713749" lon="-105.229789">
  <ele>1583.0</ele>
  <time>2026-08-28T17:56:21Z</time>
  <course>0.0</course>
  <speed>0.0</speed>
  <fix>3d</fix>
</trkpt>
<trkpt lat="40.0713749" lon="-105.229789">
  <ele>1583.0</ele>
  <time>2026-08-28T17:56:21Z</time>
  <course>248.4</course>
  <speed>0.0</speed>
  <fix>3d</fix>
</trkpt>
<trkpt lat="40.0713749" lon="-105.229789">
  <ele>1583.0</ele>
  <time>2026-08-28T17:56:21Z</time>
  <course>0.0</course>
  <speed>0.0</speed>
  <fix>3d</fix>
</trkpt>
<trkpt lat="40.0713749" lon="-105.229789">
  <ele>1583.0</ele>
  <time>2026-08-28T17:56:21Z</time>
  <course>248.4</course>
  <speed>0.0</speed>
  <fix>3d</fix>
</trkpt>
<trkpt lat="40.0713749" lon="-105.229789">
  <ele>1583.0</ele>
  <time>2026-08-28T17:56:21Z</time>
  <course>0.0</course>
  <speed>0.0</speed>
  <fix>3d</fix>
</trkpt>
<trkpt lat="40.0713749" lon="-105.229789">
  <ele>1583.0</ele>
  <time>2026-08-28T17:56:21Z</time>
  <course>248.4</course>
  <speed>0.0</speed>
  <fix>3d</fix>
</trkpt>
<trkpt lat="40.0713749" lon="-105.229789">
  <ele>1583.0</ele>
  <time>2026-08-28T17:56:21Z</time>
  <course>0.0</course>
  <speed>0.0</speed>
  <fix>3d</fix>
</trkpt>
<trkpt lat="40.0713749" lon="-105.229789">
  <ele>1583.0</ele>
  <time>2026-08-28T17:56:21Z</time>
  <course>248.4</course>
  <speed>0.0</speed>
  <fix>3d</fix>
</trkpt>
<trkpt lat="40.0713749" lon="-105.229789">
  <ele>1583.0</ele>
  <time>2026-08-28T17:56:21Z</time>
  <course>0.0</course>
  <speed>0.0</speed>
  <fix>3d</fix>
</trkpt>
<trkpt lat="40.0713749" lon="-105.229789">
  <ele>1583.0</ele>
  <time>2026-08-28T17:56:21Z</time>
  <course>248.4</course>
  <speed>0.01</speed>
  <fix>3d</fix>
</trkpt>
<trkpt lat="40.0713749" lon="-105.229789">
  <ele>1583.0</ele>
  <time>2026-08-28T17:56:21Z</time>
  <course>0.0</course>
  <speed>0.0</speed>
  <fix>3d</fix>
</trkpt>
<trkpt lat="40.0713749" lon="-105.229789">
  <ele>1583.0</ele>
  <time>2026-08-28T17:56:21Z</time>
  <course>248.4</course>
  <speed>0.01</speed>
  <fix>3d</fix>
</trkpt>
<trkpt lat="40.0713749" lon="-105.229789">
  <ele>1583.0</ele>
  <time>2026-08-28T17:56:21Z</time>
  <course>0.0</course>
  <speed>0.0</speed>
  <fix>3d</fix>
</trkpt>
<trkpt lat="40.0713749" lon="-105.229789">
  <ele>1583.0</ele>
  <time>2026-08-28T17:56:21Z</time>
  <course>248.4</course>
  <speed>0.01</speed>
  <fix>3d</fix>
</trkpt>
<trkpt lat="40.0713749" lon="-105.229789">
  <ele>1583.0</ele>
  <time>2026-08-28T17:56:21Z</time>
  <course>0.0</course>
  <speed>0.0</speed>
  <fix>3d</fix>
</trkpt>
<trkpt lat="40.0713749" lon="-105.229789">
  <ele>1583.0</ele>
  <time>2026-08-28T17:56:21Z</time>
  <course>248.39</course>
  <speed>0.01</speed>
  <fix>3d</fix>
</trkpt>
<trkpt lat="40.0713749" lon="-105.229789">
  <ele>1583.0</ele>
  <time>2026-08-28T17:56:21Z</time>
  <course>0.0</course>
  <speed>0.0</speed>
  <fix>3d</fix>
</trkpt>
<trkpt lat="40.0713749" lon="-105.229789">
  <ele>1583.0</ele>
  <time>2026-08-28T17:56:21Z</time>
  <course>248.39</course>
  <speed>0.01</speed>
  <fix>3d</fix>
</trkpt>
<trkpt lat="40.0713749" lon="-105.229789">
  <ele>1583.0</ele>
  <time>2026-08-28T17:56:21Z</time>
  <course>0.0</course>
  <speed>0.0</speed>
  <fix>3d</fix>
</trkpt>
<trkpt lat="40.0713749" lon="-105.229789">
  <ele>1583.0</ele>
  <time>2026-08-28T17:56:21Z</time>
  <course>248.39</course>
  <speed>0.01</speed>
  <fix>3d</fix>
</trkpt>
<trkpt lat="40.0713749" lon="-105.229789">
  <ele>1583.0</ele>
  <time>2026-08-28T17:56:21Z</time>
  <course>0.0</course>
  <speed>0.0</speed>
  <fix>3d</fix>
</trkpt>
<trkpt lat="40.0713749" lon="-105.229789">
  <ele>1583.0</ele>
  <time>2026-08-28T17:56:21Z</time>
  <course>248.39</course>
  <speed>0.01</speed>
  <fix>3d</fix>
</trkpt>
<trkpt lat="40.0713749" lon="-105.229789">
  <ele>1583.0</ele>
  <time>2026-08-28T17:56:21Z</time>
  <course>0.0</course>
  <speed>0.0</speed>
  <fix>3d</fix>
</trkpt>
<trkpt lat="40.0713749" lon="-105.229789">
  <ele>1583.0</ele>
  <time>2026-08-28T17:56:21Z</time>
  <course>248.38</course>
  <speed>0.01</speed>
  <fix>3d</fix>
</trkpt>
<trkpt lat="40.0713749" lon="-105.229789">
  <ele>1583.0</ele>
  <time>2026-08-28T17:56:21Z</time>
  <course>0.0</course>
  <speed>0.0</speed>
  <fix>3d</fix>
</trkpt>
<trkpt lat="40.0713749" lon="-105.229789">
  <ele>1583.0</ele>
  <time>2026-08-28T17:56:21Z</time>
  <course>248.38</course>
  <speed>0.01</speed>
  <fix>3d</fix>
</trkpt>
<trkpt lat="40.0713749" lon="-105.229789">
  <ele>1583.0</ele>
  <time>2026-08-28T17:56:21Z</time>
  <course>0.0</course>
  <speed>0.0</speed>
  <fix>3d</fix>
</trkpt>
<trkpt lat="40.0713749" lon="-105.229789">
  <ele>1583.0</ele>
  <time>2026-08-28T17:56:21Z</time>
  <course>248.38</course>
  <speed>0.01</speed>
  <fix>3d</fix>
</trkpt>
<trkpt lat="40.0713749" lon="-105.229789">
  <ele>1583.0</ele>
  <time>2026-08-28T17:56:21Z</time>
  <course>0.0</course>
  <speed>0.0</speed>
  <fix>3d</fix>
</trkpt>
<trkpt lat="40.0713749" lon="-105.229789">
  <ele>1583.0</ele>
  <time>2026-08-28T17:56:21Z</time>
  <course>248.38</course>
  <speed>0.01</speed>
  <fix>3d</fix>
</trkpt>
<trkpt lat="40.0713749" lon="-105.229789">
  <ele>1583.0</ele>
  <time>2026-08-28T17:56:21Z</time>
  <course>0.0</course>
  <speed>0.0</speed>
  <fix>3d</fix>
</trkpt>
<trkpt lat="40.0713749" lon="-105.229789">
  <ele>1583.0</ele>
  <time>2026-08-28T17:56:21Z</time>
  <course>248.37</course>
  <speed>0.01</speed>
  <fix>3d</fix>
</trkpt>
<trkpt lat="40.0713749" lon="-105.229789">
  <ele>1583.0</ele>
  <time>2026-08-28T17:56:21Z</time>
  <course>0.0</course>
  <speed>0.0</speed>
  <fix>3d</fix>
</trkpt>
<trkpt lat="40.0713749" lon="-105.229789">
  <ele>1583.0</ele>
  <time>2026-08-28T17:56:21Z</time>
  <course>248.37</course>
  <speed>0.01</speed>
  <fix>3d</fix>
</trkpt>
<trkpt lat="40.0713749" lon="-105.229789">
  <ele>1583.0</ele>
  <time>2026-08-28T17:56:21Z</time>
  <course>0.0</course>
  <speed>0.0</speed>
  <fix>3d</fix>
</trkpt>
<trkpt lat="40.0713749" lon="-105.229789">
  <ele>1583.0</ele>
  <time>2026-08-28T17:56:21Z</time>
  <course>248.37</course>
  <speed>0.01</speed>
  <fix>3d</fix>
</trkpt>
<trkpt lat="40.0713749" lon="-105.229789">
  <ele>1583.0</ele>
  <time>2026-08-28T17:56:21Z</time>
  <course>0.0</course>
  <speed>0.0</speed>
  <fix>3d</fix>
</trkpt>
<trkpt lat="40.0713749" lon="-105.229789">
  <ele>1583.0</ele>
  <time>2026-08-28T17:56:21Z</time>
  <course>248.36</course>
  <speed>0.01</speed>
  <fix>3d</fix>
</trkpt>
<trkpt lat="40.0713749" lon="-105.229789">
  <ele>1583.0</ele>
  <time>2026-08-28T17:56:21Z</time>
  <course>0.0</course>
  <speed>0.0</speed>
  <fix>3d</fix>
</trkpt>
<trkpt lat="40.0713749" lon="-105.229789">
  <ele>1583.0</ele>
  <time>2026-08-28T17:56:21Z</time>
  <course>248.36</course>
  <speed>0.01</speed>
  <fix>3d</fix>
</trkpt>
<trkpt lat="40.0713749" lon="-105.229789">
  <ele>1583.0</ele>
  <time>2026-08-28T17:56:21Z</time>
  <course>0.0</course>
  <speed>0.0</speed>
  <fix>3d</fix>
</trkpt>
<trkpt lat="40.0713749" lon="-105.229789">
  <ele>1583.0</ele>
  <time>2026-08-28T17:56:21Z</time>
  <course>248.36</course>
  <speed>0.01</speed>
  <fix>3d</fix>
</trkpt>
<trkpt lat="40.0713749" lon="-105.229789">
  <ele>1583.0</ele>
  <time>2026-08-28T17:56:21Z</time>
  <course>0.0</course>
  <speed>0.0</speed>
  <fix>3d</fix>
</trkpt>
<trkpt lat="40.0713749" lon="-105.229789">
  <ele>1583.0</ele>
  <time>2026-08-28T17:56:21Z</time>
  <course>248.35</course>
  <speed>0.01</speed>
  <fix>3d</fix>
</trkpt>
<trkpt lat="40.0713749" lon="-105.229789">
  <ele>1583.0</ele>
  <time>2026-08-28T17:56:21Z</time>
  <course>0.0</course>
  <speed>0.0</speed>
  <fix>3d</fix>
</trkpt>
<trkpt lat="40.0713749" lon="-105.229789">
  <ele>1583.0</ele>
  <time>2026-08-28T17:56:21Z</time>
  <course>248.35</course>
  <speed>0.01</speed>
  <fix>3d</fix>
</trkpt>
<trkpt lat="40.0713749" lon="-105.229789">
  <ele>1583.0</ele>
  <time>2026-08-28T17:56:21Z</time>
  <course>0.0</course>
  <speed>0.0</speed>
  <fix>3d</fix>
</trkpt>
<trkpt lat="40.0713749" lon="-105.229789">
  <ele>1583.0</ele>
  <time>2026-08-28T17:56:21Z</time>
  <course>248.35</course>
  <speed>0.01</speed>
  <fix>3d</fix>
</trkpt>
<trkpt lat="40.0713749" lon="-105.229789">
  <ele>1583.0</ele>
  <time>2026-08-28T17:56:21Z</time>
  <course>0.0</course>
  <speed>0.0</speed>
  <fix>3d</fix>
</trkpt>
<trkpt lat="40.0713749" lon="-105.229789">
  <ele>1583.0</ele>
  <time>2026-08-28T17:56:21Z</time>
  <course>248.34</course>
  <speed>0.01</speed>
  <fix>3d</fix>
</trkpt>
<trkpt lat="40.0713749" lon="-105.229789">
  <ele>1583.0</ele>
  <time>2026-08-28T17:56:21Z</time>
  <course>0.0</course>
  <speed>0.0</speed>
  <fix>3d</fix>
</trkpt>
<trkpt lat="40.0713749" lon="-105.229789">
  <ele>1583.0</ele>
  <time>2026-08-28T17:56:21Z</time>
  <course>248.34</course>
  <speed>0.01</speed>
  <fix>3d</fix>
</trkpt>
<trkpt lat="40.0713749" lon="-105.229789">
  <ele>1583.0</ele>
  <time>2026-08-28T17:56:21Z</time>
  <course>0.0</course>
  <speed>0.0</speed>
  <fix>3d</fix>
</trkpt>
<trkpt lat="40.0713749" lon="-105.229789">
  <ele>1583.0</ele>
  <time>2026-08-28T17:56:21Z</time>
  <course>248.33</course>
  <speed>0.01</speed>
  <fix>3d</fix>
</trkpt>
<trkpt lat="40.0713749" lon="-105.229789">
  <ele>1583.0</ele>
  <time>2026-08-28T17:56:21Z</time>
  <course>0.0</course>
  <speed>0.0</speed>
  <fix>3d</fix>
</trkpt>
<trkpt lat="40.0713749" lon="-105.229789">
  <ele>1583.0</ele>
  <time>2026-08-28T17:56:21Z</time>
  <course>248.33</course>
  <speed>0.01</speed>
  <fix>3d</fix>
</trkpt>
<trkpt lat="40.0713749" lon="-105.229789">
  <ele>1583.0</ele>
  <time>2026-08-28T17:56:21Z</time>
  <course>0.0</course>
  <speed>0.0</speed>
  <fix>3d</fix>
</trkpt>
<trkpt lat="40.0713749" lon="-105.229789">
  <ele>1583.0</ele>
  <time>2026-08-28T17:56:21Z</time>
  <course>248.33</course>
  <speed>0.01</speed>
  <fix>3d</fix>
</trkpt>
<trkpt lat="40.0713749" lon="-105.229789">
  <ele>1583.0</ele>
  <time>2026-08-28T17:56:21Z</time>
  <course>0.0</course>
  <speed>0.0</speed>
  <fix>3d</fix>
</trkpt>
<trkpt lat="40.0713749" lon="-105.229789">
  <ele>1583.0</ele>
  <time>2026-08-28T17:56:21Z</time>
  <course>248.32</course>
  <speed>0.01</speed>
  <fix>3d</fix>
</trkpt>
<trkpt lat="40.0713749" lon="-105.229789">
  <ele>1583.0</ele>
  <time>2026-08-28T17:56:21Z</time>
  <course>0.0</course>
  <speed>0.0</speed>
  <fix>3d</fix>
</trkpt>
<trkpt lat="40.0713749" lon="-105.229789">
  <ele>1583.0</ele>
  <time>2026-08-28T17:56:21Z</time>
  <course>248.32</course>
  <speed>0.01</speed>
  <fix>3d</fix>
</trkpt>
<trkpt lat="40.0713749" lon="-105.229789">
  <ele>1583.0</ele>
  <time>2026-08-28T17:56:21Z</time>
  <course>0.0</course>
  <speed>0.0</speed>
  <fix>3d</fix>
</trkpt>
<trkpt lat="40.0713749" lon="-105.229789">
  <ele>1583.0</ele>
  <time>2026-08-28T17:56:21Z</time>
  <course>248.31</course>
  <speed>0.01</speed>
  <fix>3d</fix>
</trkpt>
<trkpt lat="40.0713749" lon="-105.229789">
  <ele>1583.0</ele>
  <time>2026-08-28T17:56:21Z</time>
  <course>0.0</course>
  <speed>0.0</speed>
  <fix>3d</fix>
</trkpt>
<trkpt lat="40.0713749" lon="-105.229789">
  <ele>1583.0</ele>
  <time>2026-08-28T17:56:21Z</time>
  <course>248.31</course>
  <speed>0.01</speed>
  <fix>3d</fix>
</trkpt>
<trkpt lat="40.0713749" lon="-105.229789">
  <ele>1583.0</ele>
  <time>2026-08-28T17:56:21Z</time>
  <course>0.0</course>
  <speed>0.0</speed>
  <fix>3d</fix>
</trkpt>
<trkpt lat="40.0713749" lon="-105.229789">
  <ele>1583.0</ele>
  <time>2026-08-28T17:56:21Z</time>
  <course>248.3</course>
  <speed>0.01</speed>
  <fix>3d</fix>
</trkpt>
<trkpt lat="40.0713749" lon="-105.229789">
  <ele>1583.0</ele>
  <time>2026-08-28T17:56:21Z</time>
  <course>0.0</course>
  <speed>0.0</speed>
  <fix>3d</fix>
</trkpt>
<trkpt lat="40.0713749" lon="-105.229789">
  <ele>1583.0</ele>
  <time>2026-08-28T17:56:21Z</time>
  <course>248.3</course>
  <speed>0.01</speed>
  <fix>3d</fix>
</trkpt>
<trkpt lat="40.0713749" lon="-105.229789">
  <ele>1583.0</ele>
  <time>2026-08-28T17:56:21Z</time>
  <course>0.0</course>
  <speed>0.0</speed>
  <fix>3d</fix>
</trkpt>
<trkpt lat="40.0713749" lon="-105.229789">
  <ele>1583.0</ele>
  <time>2026-08-28T17:56:21Z</time>
  <course>248.29</course>
  <speed>0.01</speed>
  <fix>3d</fix>
</trkpt>
<trkpt lat="40.0713749" lon="-105.229789">
  <ele>1583.0</ele>
  <time>2026-08-28T17:56:21Z</time>
  <course>0.0</course>
  <speed>0.0</speed>
  <fix>3d</fix>
</trkpt>
<trkpt lat="40.0713749" lon="-105.229789">
  <ele>1583.0</ele>
  <time>2026-08-28T17:56:21Z</time>
  <course>248.29</course>
  <speed>0.01</speed>
  <fix>3d</fix>
</trkpt>
<trkpt lat="40.0713749" lon="-105.229789">
  <ele>1583.0</ele>
  <time>2026-08-28T17:56:21Z</time>
  <course>0.0</course>
  <speed>0.0</speed>
  <fix>3d</fix>
</trkpt>
<trkpt lat="40.0713749" lon="-105.229789">
  <ele>1583.0</ele>
  <time>2026-08-28T17:56:21Z</time>
  <course>248.29</course>
  <speed>0.01</speed>
  <fix>3d</fix>
</trkpt>
<trkpt lat="40.0713749" lon="-105.229789">
  <ele>1583.0</ele>
  <time>2026-08-28T17:56:21Z</time>
  <course>0.0</course>
  <speed>0.0</speed>
  <fix>3d</fix>
</trkpt>
<trkpt lat="40.0713749" lon="-105.229789">
  <ele>1583.0</ele>
  <time>2026-08-28T17:56:21Z</time>
  <course>248.28</course>
  <speed>0.01</speed>
  <fix>3d</fix>
</trkpt>
<trkpt lat="40.0713749" lon="-105.229789">
  <ele>1583.0</ele>
  <time>2026-08-28T17:56:21Z</time>
  <course>0.0</course>
  <speed>0.0</speed>
  <fix>3d</fix>
</trkpt>
<trkpt lat="40.0713749" lon="-105.229789">
  <ele>1583.0</ele>
  <time>2026-08-28T17:56:21Z</time>
  <course>248.28</course>
  <speed>0.01</speed>
  <fix>3d</fix>
</trkpt>
<trkpt lat="40.0713749" lon="-105.229789">
  <ele>1583.0</ele>
  <time>2026-08-28T17:56:21Z</time>
  <course>0.0</course>
  <speed>0.0</speed>
  <fix>3d</fix>
</trkpt>
<trkpt lat="40.0713749" lon="-105.229789">
  <ele>1583.0</ele>
  <time>2026-08-28T17:56:21Z</time>
  <course>248.27</course>
  <speed>0.01</speed>
  <fix>3d</fix>
</trkpt>
<trkpt lat="40.0713749" lon="-105.229789">
  <ele>1583.0</ele>
  <time>2026-08-28T17:56:21Z</time>
  <course>0.0</course>
  <speed>0.0</speed>
  <fix>3d</fix>
</trkpt>
<trkpt lat="40.0713749" lon="-105.229789">
  <ele>1583.0</ele>
  <time>2026-08-28T17:56:21Z</time>
  <course>248.27</course>
  <speed>0.01</speed>
  <fix>3d</fix>
</trkpt>
<trkpt lat="40.0713749" lon="-105.229789">
  <ele>1583.0</ele>
  <time>2026-08-28T17:56:21Z</time>
  <course>0.0</course>
  <speed>0.0</speed>
  <fix>3d</fix>
</trkpt>
<trkpt lat="40.0713749" lon="-105.229789">
  <ele>1583.0</ele>
  <time>2026-08-28T17:56:21Z</time>
  <course>248.26</course>
  <speed>0.01</speed>
  <fix>3d</fix>
</trkpt>
<trkpt lat="40.0713749" lon="-105.229789">
  <ele>1583.0</ele>
  <time>2026-08-28T17:56:21Z</time>
  <course>0.0</course>
  <speed>0.0</speed>
  <fix>3d</fix>
</trkpt>
<trkpt lat="40.0713749" lon="-105.229789">
  <ele>1583.0</ele>
  <time>2026-08-28T17:56:21Z</time>
  <course>248.26</course>
  <speed>0.01</speed>
  <fix>3d</fix>
</trkpt>
<trkpt lat="40.0713749" lon="-105.229789">
  <ele>1583.0</ele>
  <time>2026-08-28T17:56:21Z</time>
  <course>0.0</course>
  <speed>0.0</speed>
  <fix>3d</fix>
</trkpt>
<trkpt lat="40.0713749" lon="-105.229789">
  <ele>1583.0</ele>
  <time>2026-08-28T17:56:21Z</time>
  <course>248.25</course>
  <speed>0.01</speed>
  <fix>3d</fix>
</trkpt>
<trkpt lat="40.0713749" lon="-105.229789">
  <ele>1583.0</ele>
  <time>2026-08-28T17:56:21Z</time>
  <course>0.0</course>
  <speed>0.0</speed>
  <fix>3d</fix>
</trkpt>
<trkpt lat="40.0713749" lon="-105.229789">
  <ele>1583.0</ele>
  <time>2026-08-28T17:56:21Z</time>
  <course>248.25</course>
  <speed>0.01</speed>
  <fix>3d</fix>
</trkpt>
<trkpt lat="40.0713749" lon="-105.229789">
  <ele>1583.0</ele>
  <time>2026-08-28T17:56:21Z</time>
  <course>0.0</course>
  <speed>0.0</speed>
  <fix>3d</fix>
</trkpt>
<trkpt lat="40.0713749" lon="-105.229789">
  <ele>1583.0</ele>
  <time>2026-08-28T17:56:21Z</time>
  <course>248.24</course>
  <speed>0.01</speed>
  <fix>3d</fix>
</trkpt>
<trkpt lat="40.0713749" lon="-105.229789">
  <ele>1583.0</ele>
  <time>2026-08-28T17:56:21Z</time>
  <course>0.0</course>
  <speed>0.0</speed>
  <fix>3d</fix>
</trkpt>
<trkpt lat="40.0713749" lon="-105.229789">
  <ele>1583.0</ele>
  <time>2026-08-28T17:56:21Z</time>
  <course>248.24</course>
  <speed>0.01</speed>
  <fix>3d</fix>
</trkpt>
<trkpt lat="40.0713749" lon="-105.229789">
  <ele>1583.0</ele>
  <time>2026-08-28T17:56:21Z</time>
  <course>0.0</course>
  <speed>0.0</speed>
  <fix>3d</fix>
</trkpt>
<trkpt lat="40.0713749" lon="-105.229789">
  <ele>1583.0</ele>
  <time>2026-08-28T17:56:21Z</time>
  <course>248.23</course>
  <speed>0.01</speed>
  <fix>3d</fix>
</trkpt>
<trkpt lat="40.0713749" lon="-105.229789">
  <ele>1583.0</ele>
  <time>2026-08-28T17:56:21Z</time>
  <course>0.0</course>
  <speed>0.0</speed>
  <fix>3d</fix>
</trkpt>
<trkpt lat="40.0713749" lon="-105.229789">
  <ele>1583.0</ele>
  <time>2026-08-28T17:56:21Z</time>
  <course>248.23</course>
  <speed>0.01</speed>
  <fix>3d</fix>
</trkpt>
<trkpt lat="40.0713749" lon="-105.229789">
  <ele>1583.0</ele>
  <time>2026-08-28T17:56:21Z</time>
  <course>0.0</course>
  <speed>0.0</speed>
  <fix>3d</fix>
</trkpt>
<trkpt lat="40.0713749" lon="-105.229789">
  <ele>1583.0</ele>
  <time>2026-08-28T17:56:21Z</time>
  <course>248.22</course>
  <speed>0.01</speed>
  <fix>3d</fix>
</trkpt>
<trkpt lat="40.0713749" lon="-105.229789">
  <ele>1583.0</ele>
  <time>2026-08-28T17:56:21Z</time>
  <course>0.0</course>
  <speed>0.0</speed>
  <fix>3d</fix>
</trkpt>
<trkpt lat="40.0713749" lon="-105.229789">
  <ele>1583.0</ele>
  <time>2026-08-28T17:56:21Z</time>
  <course>248.22</course>
  <speed>0.01</speed>
  <fix>3d</fix>
</trkpt>
<trkpt lat="40.0713749" lon="-105.229789">
  <ele>1583.0</ele>
  <time>2026-08-28T17:56:21Z</time>
  <course>0.0</course>
  <speed>0.0</speed>
  <fix>3d</fix>
</trkpt>
<trkpt lat="40.0713749" lon="-105.229789">
  <ele>1583.0</ele>
  <time>2026-08-28T17:56:21Z</time>
  <course>248.21</course>
  <speed>0.01</speed>
  <fix>3d</fix>
</trkpt>
<trkpt lat="40.0713749" lon="-105.229789">
  <ele>1583.0</ele>
  <time>2026-08-28T17:56:21Z</time>
  <course>0.0</course>
  <speed>0.0</speed>
  <fix>3d</fix>
</trkpt>
<trkpt lat="40.0713749" lon="-105.229789">
  <ele>1583.0</ele>
  <time>2026-08-28T17:56:21Z</time>
  <course>248.21</course>
  <speed>0.01</speed>
  <fix>3d</fix>
</trkpt>
<trkpt lat="40.0713749" lon="-105.229789">
  <ele>1583.0</ele>
  <time>2026-08-28T17:56:21Z</time>
  <course>0.0</course>
  <speed>0.0</speed>
  <fix>3d</fix>
</trkpt>
<trkpt lat="40.0713749" lon="-105.229789">
  <ele>1583.0</ele>
  <time>2026-08-28T17:56:21Z</time>
  <course>248.2</course>
  <speed>0.01</speed>
  <fix>3d</fix>
</trkpt>
<trkpt lat="40.0713749" lon="-105.229789">
  <ele>1583.0</ele>
  <time>2026-08-28T17:56:21Z</time>
  <course>0.0</course>
  <speed>0.0</speed>
  <fix>3d</fix>
</trkpt>
<trkpt lat="40.0713749" lon="-105.229789">
  <ele>1583.0</ele>
  <time>2026-08-28T17:56:21Z</time>
  <course>248.2</course>
  <speed>0.01</speed>
  <fix>3d</fix>
</trkpt>
<trkpt lat="40.0713749" lon="-105.229789">
  <ele>1583.0</ele>
  <time>2026-08-28T17:56:21Z</time>
  <course>0.0</course>
  <speed>0.0</speed>
  <fix>3d</fix>
</trkpt>
<trkpt lat="40.0713749" lon="-105.229789">
  <ele>1583.0</ele>
  <time>2026-08-28T17:56:21Z</time>
  <course>248.19</course>
  <speed>0.01</speed>
  <fix>3d</fix>
</trkpt>
<trkpt lat="40.0713749" lon="-105.229789">
  <ele>1583.0</ele>
  <time>2026-08-28T17:56:21Z</time>
  <course>0.0</course>
  <speed>0.0</speed>
  <fix>3d</fix>
</trkpt>
<trkpt lat="40.0713749" lon="-105.229789">
  <ele>1583.0</ele>
  <time>2026-08-28T17:56:21Z</time>
  <course>248.19</course>
  <speed>0.01</speed>
  <fix>3d</fix>
</trkpt>
<trkpt lat="40.0713749" lon="-105.229789">
  <ele>1583.0</ele>
  <time>2026-08-28T17:56:21Z</time>
  <course>0.0</course>
  <speed>0.0</speed>
  <fix>3d</fix>
</trkpt>
<trkpt lat="40.0713749" lon="-105.229789">
  <ele>1583.0</ele>
  <time>2026-08-28T17:56:21Z</time>
  <course>248.18</course>
  <speed>0.01</speed>
  <fix>3d</fix>
</trkpt>
<trkpt lat="40.0713749" lon="-105.229789">
  <ele>1583.0</ele>
  <time>2026-08-28T17:56:21Z</time>
  <course>0.0</course>
  <speed>0.0</speed>
  <fix>3d</fix>
</trkpt>
<trkpt lat="40.0713749" lon="-105.229789">
  <ele>1583.0</ele>
  <time>2026-08-28T17:56:21Z</time>
  <course>248.18</course>
  <speed>0.01</speed>
  <fix>3d</fix>
</trkpt>
<trkpt lat="40.0713749" lon="-105.229789">
  <ele>1583.0</ele>
  <time>2026-08-28T17:56:21Z</time>
  <course>0.0</course>
  <speed>0.0</speed>
  <fix>3d</fix>
</trkpt>
<trkpt lat="40.0713749" lon="-105.229789">
  <ele>1583.0</ele>
  <time>2026-08-28T17:56:21Z</time>
  <course>248.18</course>
  <speed>0.02</speed>
  <fix>3d</fix>
</trkpt>
<trkpt lat="40.0713749" lon="-105.229789">
  <ele>1583.0</ele>
  <time>2026-08-28T17:56:21Z</time>
  <course>0.0</course>
  <speed>0.0</speed>
  <fix>3d</fix>
</trkpt>
<trkpt lat="40.0713749" lon="-105.229789">
  <ele>1583.0</ele>
  <time>2026-08-28T17:56:21Z</time>
  <course>248.17</course>
  <speed>0.02</speed>
  <fix>3d</fix>
</trkpt>
<trkpt lat="40.0713749" lon="-105.229789">
  <ele>1583.0</ele>
  <time>2026-08-28T17:56:21Z</time>
  <course>0.0</course>
  <speed>0.0</speed>
  <fix>3d</fix>
</trkpt>
<trkpt lat="40.0713749" lon="-105.229789">
  <ele>1583.0</ele>
  <time>2026-08-28T17:56:21Z</time>
  <course>248.17</course>
  <speed>0.02</speed>
  <fix>3d</fix>
</trkpt>
<trkpt lat="40.0713749" lon="-105.229789">
  <ele>1583.0</ele>
  <time>2026-08-28T17:56:21Z</time>
  <course>0.0</course>
  <speed>0.0</speed>
  <fix>3d</fix>
</trkpt>
<trkpt lat="40.0713749" lon="-105.229789">
  <ele>1583.0</ele>
  <time>2026-08-28T17:56:21Z</time>
  <course>248.16</course>
  <speed>0.02</speed>
  <fix>3d</fix>
</trkpt>
<trkpt lat="40.0713749" lon="-105.229789">
  <ele>1583.0</ele>
  <time>2026-08-28T17:56:21Z</time>
  <course>0.0</course>
  <speed>0.0</speed>
  <fix>3d</fix>
</trkpt>
<trkpt lat="40.0713749" lon="-105.229789">
  <ele>1583.0</ele>
  <time>2026-08-28T17:56:21Z</time>
  <course>248.16</course>
  <speed>0.02</speed>
  <fix>3d</fix>
</trkpt>
<trkpt lat="40.0713749" lon="-105.229789">
  <ele>1583.0</ele>
  <time>2026-08-28T17:56:21Z</time>
  <course>0.0</course>
  <speed>0.0</speed>
  <fix>3d</fix>
</trkpt>
<trkpt lat="40.0713749" lon="-105.229789">
  <ele>1583.0</ele>
  <time>2026-08-28T17:56:21Z</time>
  <course>248.15</course>
  <speed>0.022360679774997897</speed>
  <fix>3d</fix>
</trkpt>
<trkpt lat="40.0713749" lon="-105.229789">
  <ele>1583.0</ele>
  <time>2026-08-28T17:56:21Z</time>
  <course>0.0</course>
  <speed>0.0</speed>
  <fix>3d</fix>
</trkpt>
<trkpt lat="40.0713749" lon="-105.229789">
  <ele>1583.0</ele>
  <time>2026-08-28T17:56:21Z</time>
  <course>248.15</course>
  <speed>0.022360679774997897</speed>
  <fix>3d</fix>
</trkpt>
<trkpt lat="40.0713749" lon="-105.229789">
  <ele>1583.0</ele>
  <time>2026-08-28T17:56:21Z</time>
  <course>0.0</course>
  <speed>0.0</speed>
  <fix>3d</fix>
</trkpt>
<trkpt lat="40.0713749" lon="-105.229789">
  <ele>1583.0</ele>
  <time>2026-08-28T17:56:21Z</time>
  <course>248.14</course>
  <speed>0.022360679774997897</speed>
  <fix>3d</fix>
</trkpt>
<trkpt lat="40.0713749" lon="-105.229789">
  <ele>1583.0</ele>
  <time>2026-08-28T17:56:21Z</time>
  <course>0.0</course>
  <speed>0.0</speed>
  <fix>3d</fix>
</trkpt>
<trkpt lat="40.0713749" lon="-105.229789">
  <ele>1583.0</ele>
  <time>2026-08-28T17:56:21Z</time>
  <course>248.14</course>
  <speed>0.022360679774997897</speed>
  <fix>3d</fix>
</trkpt>
<trkpt lat="40.0713749" lon="-105.229789">
  <ele>1583.0</ele>
  <time>2026-08-28T17:56:21Z</time>
  <course>0.0</course>
  <speed>0.0</speed>
  <fix>3d</fix>
</trkpt>
<trkpt lat="40.0713749" lon="-105.229789">
  <ele>1583.0</ele>
  <time>2026-08-28T17:56:21Z</time>
  <course>248.13</course>
  <speed>0.022360679774997897</speed>
  <fix>3d</fix>
</trkpt>
<trkpt lat="40.0713749" lon="-105.229789">
  <ele>1583.0</ele>
  <time>2026-08-28T17:56:21Z</time>
  <course>0.0</course>
  <speed>0.0</speed>
  <fix>3d</fix>
</trkpt>
<trkpt lat="40.0713749" lon="-105.229789">
  <ele>1583.0</ele>
  <time>2026-08-28T17:56:21Z</time>
  <course>248.13</course>
  <speed>0.022360679774997897</speed>
  <fix>3d</fix>
</trkpt>
<trkpt lat="40.0713749" lon="-105.229789">
  <ele>1583.0</ele>
  <time>2026-08-28T17:56:21Z</time>
  <course>0.0</course>
  <speed>0.0</speed>
  <fix>3d</fix>
</trkpt>
<trkpt lat="40.0713749" lon="-105.229789">
  <ele>1583.0</ele>
  <time>2026-08-28T17:56:21Z</time>
  <course>248.12</course>
  <speed>0.022360679774997897</speed>
  <fix>3d</fix>
</trkpt>
<trkpt lat="40.0713749" lon="-105.229789">
  <ele>1583.0</ele>
  <time>2026-08-28T17:56:21Z</time>
  <course>0.0</course>
  <speed>0.0</speed>
  <fix>3d</fix>
</trkpt>
<trkpt lat="40.0713749" lon="-105.229789">
  <ele>1583.0</ele>
  <time>2026-08-28T17:56:21Z</time>
  <course>248.12</course>
  <speed>0.022360679774997897</speed>
  <fix>3d</fix>
</trkpt>
<trkpt lat="40.0713749" lon="-105.229789">
  <ele>1583.0</ele>
  <time>2026-08-28T17:56:21Z</time>
  <course>0.0</course>
  <speed>0.0</speed>
  <fix>3d</fix>
</trkpt>
<trkpt lat="40.0713749" lon="-105.229789">
  <ele>1583.0</ele>
  <time>2026-08-28T17:56:21Z</time>
  <course>248.11</course>
  <speed>0.022360679774997897</speed>
  <fix>3d</fix>
</trkpt>
<trkpt lat="40.0713749" lon="-105.229789">
  <ele>1583.0</ele>
  <time>2026-08-28T17:56:21Z</time>
  <course>0.0</course>
  <speed>0.0</speed>
  <fix>3d</fix>
</trkpt>
<trkpt lat="40.0713749" lon="-105.229789">
  <ele>1583.0</ele>
  <time>2026-08-28T17:56:21Z</time>
  <course>248.11</course>
  <speed>0.022360679774997897</speed>
  <fix>3d</fix>
</trkpt>
<trkpt lat="40.0713749" lon="-105.229789">
  <ele>1583.0</ele>
  <time>2026-08-28T17:56:21Z</time>
  <course>0.0</course>
  <speed>0.0</speed>
  <fix>3d</fix>
</trkpt>
<trkpt lat="40.0713749" lon="-105.229789">
  <ele>1583.0</ele>
  <time>2026-08-28T17:56:21Z</time>
  <course>248.1</course>
  <speed>0.022360679774997897</speed>
  <fix>3d</fix>
</trkpt>
<trkpt lat="40.0713749" lon="-105.229789">
  <ele>1583.0</ele>
  <time>2026-08-28T17:56:21Z</time>
  <course>0.0</course>
  <speed>0.0</speed>
  <fix>3d</fix>
</trkpt>
<trkpt lat="40.0713749" lon="-105.229789">
  <ele>1583.0</ele>
  <time>2026-08-28T17:56:21Z</time>
  <course>248.1</course>
  <speed>0.022360679774997897</speed>
  <fix>3d</fix>
</trkpt>
<trkpt lat="40.0713749" lon="-105.229789">
  <ele>1583.0</ele>
  <time>2026-08-28T17:56:21Z</time>
  <course>0.0</course>
  <speed>0.0</speed>
  <fix>3d</fix>
</trkpt>
<trkpt lat="40.0713749" lon="-105.229789">
  <ele>1583.0</ele>
  <time>2026-08-28T17:56:21Z</time>
  <course>248.09</course>
  <speed>0.022360679774997897</speed>
  <fix>3d</fix>
</trkpt>
<trkpt lat="40.0713749" lon="-105.229789">
  <ele>1583.0</ele>
  <time>2026-08-28T17:56:21Z</time>
  <course>0.0</course>
  <speed>0.0</speed>
  <fix>3d</fix>
</trkpt>
<trkpt lat="40.0713749" lon="-105.229789">
  <ele>1583.0</ele>
  <time>2026-08-28T17:56:21Z</time>
  <course>248.09</course>
  <speed>0.022360679774997897</speed>
  <fix>3d</fix>
</trkpt>
<trkpt lat="40.0713749" lon="-105.229789">
  <ele>1583.0</ele>
  <time>2026-08-28T17:56:21Z</time>
  <course>0.0</course>
  <speed>0.0</speed>
  <fix>3d</fix>
</trkpt>
<trkpt lat="40.0713749" lon="-105.229789">
  <ele>1583.0</ele>
  <time>2026-08-28T17:56:21Z</time>
  <course>248.08</course>
  <speed>0.022360679774997897</speed>
  <fix>3d</fix>
</trkpt>
<trkpt lat="40.0713749" lon="-105.229789">
  <ele>1583.0</ele>
  <time>2026-08-28T17:56:21Z</time>
  <course>0.0</course>
  <speed>0.0</speed>
  <fix>3d</fix>
</trkpt>
<trkpt lat="40.0713749" lon="-105.229789">
  <ele>1583.0</ele>
  <time>2026-08-28T17:56:21Z</time>
  <course>248.08</course>
  <speed>0.022360679774997897</speed>
  <fix>3d</fix>
</trkpt>
<trkpt lat="40.0713749" lon="-105.229789">
  <ele>1583.0</ele>
  <time>2026-08-28T17:56:21Z</time>
  <course>0.0</course>
  <speed>0.0</speed>
  <fix>3d</fix>
</trkpt>
<trkpt lat="40.0713749" lon="-105.229789">
  <ele>1583.0</ele>
  <time>2026-08-28T17:56:21Z</time>
  <course>248.07</course>
  <speed>0.022360679774997897</speed>
  <fix>3d</fix>
</trkpt>
<trkpt lat="40.0713749" lon="-105.229789">
  <ele>1583.0</ele>
  <time>2026-08-28T17:56:22Z</time>
  <course>0.0</course>
  <speed>0.0</speed>
  <fix>3d</fix>
</trkpt>
<trkpt lat="40.0713749" lon="-105.229789">
  <ele>1583.0</ele>
  <time>2026-08-28T17:56:22Z</time>
  <course>248.07</course>
  <speed>0.022360679774997897</speed>
  <fix>3d</fix>
</trkpt>
<trkpt lat="40.0713749" lon="-105.229789">
  <ele>1583.0</ele>
  <time>2026-08-28T17:56:22Z</time>
  <course>0.0</course>
  <speed>0.0</speed>
  <fix>3d</fix>
</trkpt>
<trkpt lat="40.0713749" lon="-105.229789">
  <ele>1583.0</ele>
  <time>2026-08-28T17:56:22Z</time>
  <course>248.06</course>
  <speed>0.022360679774997897</speed>
  <fix>3d</fix>
</trkpt>
<trkpt lat="40.0713749" lon="-105.229789">
  <ele>1583.0</ele>
  <time>2026-08-28T17:56:22Z</time>
  <course>0.0</course>
  <speed>0.0</speed>
  <fix>3d</fix>
</trkpt>
<trkpt lat="40.0713749" lon="-105.229789">
  <ele>1583.0</ele>
  <time>2026-08-28T17:56:22Z</time>
  <course>248.06</course>
  <speed>0.022360679774997897</speed>
  <fix>3d</fix>
</trkpt>
<trkpt lat="40.0713749" lon="-105.229789">
  <ele>1583.0</ele>
  <time>2026-08-28T17:56:22Z</time>
  <course>0.0</course>
  <speed>0.0</speed>
  <fix>3d</fix>
</trkpt>
<trkpt lat="40.0713749" lon="-105.229789">
  <ele>1583.0</ele>
  <time>2026-08-28T17:56:22Z</time>
  <course>248.05</course>
  <speed>0.022360679774997897</speed>
  <fix>3d</fix>
</trkpt>
<trkpt lat="40.0713749" lon="-105.229789">
  <ele>1583.0</ele>
  <time>2026-08-28T17:56:22Z</time>
  <course>0.0</course>
  <speed>0.0</speed>
  <fix>3d</fix>
</trkpt>
<trkpt lat="40.0713749" lon="-105.229789">
  <ele>1583.0</ele>
  <time>2026-08-28T17:56:22Z</time>
  <course>248.05</course>
  <speed>0.022360679774997897</speed>
  <fix>3d</fix>
</trkpt>
<trkpt lat="40.0713749" lon="-105.229789">
  <ele>1583.0</ele>
  <time>2026-08-28T17:56:22Z</time>
  <course>0.0</course>
  <speed>0.0</speed>
  <fix>3d</fix>
</trkpt>
<trkpt lat="40.0713749" lon="-105.229789">
  <ele>1583.0</ele>
  <time>2026-08-28T17:56:22Z</time>
  <course>248.04</course>
  <speed>0.022360679774997897</speed>
  <fix>3d</fix>
</trkpt>
<trkpt lat="40.0713749" lon="-105.229789">
  <ele>1583.0</ele>
  <time>2026-08-28T17:56:22Z</time>
  <course>0.0</course>
  <speed>0.0</speed>
  <fix>3d</fix>
</trkpt>
<trkpt lat="40.0713749" lon="-105.229789">
  <ele>1583.0</ele>
  <time>2026-08-28T17:56:22Z</time>
  <course>248.04</course>
  <speed>0.022360679774997897</speed>
  <fix>3d</fix>
</trkpt>
<trkpt lat="40.0713749" lon="-105.229789">
  <ele>1583.0</ele>
  <time>2026-08-28T17:56:22Z</time>
  <course>0.0</course>
  <speed>0.0</speed>
  <fix>3d</fix>
</trkpt>
<trkpt lat="40.0713749" lon="-105.229789">
  <ele>1583.0</ele>
  <time>2026-08-28T17:56:22Z</time>
  <course>248.04</course>
  <speed>0.022360679774997897</speed>
  <fix>3d</fix>
</trkpt>
<trkpt lat="40.0713749" lon="-105.229789">
  <ele>1583.0</ele>
  <time>2026-08-28T17:56:22Z</time>
  <course>0.0</course>
  <speed>0.0</speed>
  <fix>3d</fix>
</trkpt>
<trkpt lat="40.0713749" lon="-105.229789">
  <ele>1583.0</ele>
  <time>2026-08-28T17:56:22Z</time>
  <course>248.03</course>
  <speed>0.022360679774997897</speed>
  <fix>3d</fix>
</trkpt>
<trkpt lat="40.0713749" lon="-105.229789">
  <ele>1583.0</ele>
  <time>2026-08-28T17:56:22Z</time>
  <course>0.0</course>
  <speed>0.0</speed>
  <fix>3d</fix>
</trkpt>
<trkpt lat="40.0713749" lon="-105.229789">
  <ele>1583.0</ele>
  <time>2026-08-28T17:56:22Z</time>
  <course>248.03</course>
  <speed>0.022360679774997897</speed>
  <fix>3d</fix>
</trkpt>
<trkpt lat="40.0713749" lon="-105.229789">
  <ele>1583.0</ele>
  <time>2026-08-28T17:56:22Z</time>
  <course>0.0</course>
  <speed>0.0</speed>
  <fix>3d</fix>
</trkpt>
<trkpt lat="40.0713749" lon="-105.229789">
  <ele>1583.0</ele>
  <time>2026-08-28T17:56:22Z</time>
  <course>248.02</course>
  <speed>0.022360679774997897</speed>
  <fix>3d</fix>
</trkpt>
<trkpt lat="40.0713749" lon="-105.229789">
  <ele>1583.0</ele>
  <time>2026-08-28T17:56:22Z</time>
  <course>0.0</course>
  <speed>0.0</speed>
  <fix>3d</fix>
</trkpt>
<trkpt lat="40.0713749" lon="-105.229789">
  <ele>1583.0</ele>
  <time>2026-08-28T17:56:22Z</time>
  <course>248.02</course>
  <speed>0.022360679774997897</speed>
  <fix>3d</fix>
</trkpt>
<trkpt lat="40.0713749" lon="-105.229789">
  <ele>1583.0</ele>
  <time>2026-08-28T17:56:22Z</time>
  <course>0.0</course>
  <speed>0.0</speed>
  <fix>3d</fix>
</trkpt>
<trkpt lat="40.0713749" lon="-105.229789">
  <ele>1583.0</ele>
  <time>2026-08-28T17:56:22Z</time>
  <course>248.01</course>
  <speed>0.022360679774997897</speed>
  <fix>3d</fix>
</trkpt>
<trkpt lat="40.0713749" lon="-105.229789">
  <ele>1583.0</ele>
  <time>2026-08-28T17:56:22Z</time>
  <course>0.0</course>
  <speed>0.0</speed>
  <fix>3d</fix>
</trkpt>
<trkpt lat="40.0713749" lon="-105.229789">
  <ele>1583.0</ele>
  <time>2026-08-28T17:56:22Z</time>
  <course>248.01</course>
  <speed>0.022360679774997897</speed>
  <fix>3d</fix>
</trkpt>
<trkpt lat="40.0713749" lon="-105.229789">
  <ele>1583.0</ele>
  <time>2026-08-28T17:56:22Z</time>
  <course>0.0</course>
  <speed>0.0</speed>
  <fix>3d</fix>
</trkpt>
<trkpt lat="40.0713749" lon="-105.229789">
  <ele>1583.0</ele>
  <time>2026-08-28T17:56:22Z</time>
  <course>248.0</course>
  <speed>0.022360679774997897</speed>
  <fix>3d</fix>
</trkpt>
<trkpt lat="40.0713749" lon="-105.229789">
  <ele>1583.0</ele>
  <time>2026-08-28T17:56:22Z</time>
  <course>0.0</course>
  <speed>0.0</speed>
  <fix>3d</fix>
</trkpt>
<trkpt lat="40.0713749" lon="-105.229789">
  <ele>1583.0</ele>
  <time>2026-08-28T17:56:22Z</time>
  <course>248.0</course>
  <speed>0.022360679774997897</speed>
  <fix>3d</fix>
</trkpt>
<trkpt lat="40.0713749" lon="-105.229789">
  <ele>1583.0</ele>
  <time>2026-08-28T17:56:22Z</time>
  <course>0.0</course>
  <speed>0.0</speed>
  <fix>3d</fix>
</trkpt>
<trkpt lat="40.0713749" lon="-105.229789">
  <ele>1583.0</ele>
  <time>2026-08-28T17:56:22Z</time>
  <course>247.99</course>
  <speed>0.022360679774997897</speed>
  <fix>3d</fix>
</trkpt>
<trkpt lat="40.0713749" lon="-105.229789">
  <ele>1583.0</ele>
  <time>2026-08-28T17:56:22Z</time>
  <course>0.0</course>
  <speed>0.0</speed>
  <fix>3d</fix>
</trkpt>
<trkpt lat="40.0713749" lon="-105.229789">
  <ele>1583.0</ele>
  <time>2026-08-28T17:56:22Z</time>
  <course>247.99</course>
  <speed>0.022360679774997897</speed>
  <fix>3d</fix>
</trkpt>
<trkpt lat="40.0713749" lon="-105.229789">
  <ele>1583.0</ele>
  <time>2026-08-28T17:56:22Z</time>
  <course>0.0</course>
  <speed>0.0</speed>
  <fix>3d</fix>
</trkpt>
<trkpt lat="40.0713749" lon="-105.229789">
  <ele>1583.0</ele>
  <time>2026-08-28T17:56:22Z</time>
  <course>247.98</course>
  <speed>0.022360679774997897</speed>
  <fix>3d</fix>
</trkpt>
<trkpt lat="40.0713749" lon="-105.229789">
  <ele>1583.0</ele>
  <time>2026-08-28T17:56:22Z</time>
  <course>0.0</course>
  <speed>0.0</speed>
  <fix>3d</fix>
</trkpt>
<trkpt lat="40.0713749" lon="-105.229789">
  <ele>1583.0</ele>
  <time>2026-08-28T17:56:22Z</time>
  <course>247.98</course>
  <speed>0.022360679774997897</speed>
  <fix>3d</fix>
</trkpt>
<trkpt lat="40.0713749" lon="-105.229789">
  <ele>1583.0</ele>
  <time>2026-08-28T17:56:22Z</time>
  <course>0.0</course>
  <speed>0.0</speed>
  <fix>3d</fix>
</trkpt>
<trkpt lat="40.0713749" lon="-105.229789">
  <ele>1583.0</ele>
  <time>2026-08-28T17:56:22Z</time>
  <course>247.98</course>
  <speed>0.022360679774997897</speed>
  <fix>3d</fix>
</trkpt>
<trkpt lat="40.0713749" lon="-105.229789">
  <ele>1583.0</ele>
  <time>2026-08-28T17:56:22Z</time>
  <course>0.0</course>
  <speed>0.0</speed>
  <fix>3d</fix>
</trkpt>
<trkpt lat="40.0713749" lon="-105.229789">
  <ele>1583.0</ele>
  <time>2026-08-28T17:56:22Z</time>
  <course>247.97</course>
  <speed>0.022360679774997897</speed>
  <fix>3d</fix>
</trkpt>
<trkpt lat="40.0713749" lon="-105.229789">
  <ele>1583.0</ele>
  <time>2026-08-28T17:56:22Z</time>
  <course>0.0</course>
  <speed>0.0</speed>
  <fix>3d</fix>
</trkpt>
<trkpt lat="40.0713749" lon="-105.229789">
  <ele>1583.0</ele>
  <time>2026-08-28T17:56:22Z</time>
  <course>247.97</course>
  <speed>0.022360679774997897</speed>
  <fix>3d</fix>
</trkpt>
<trkpt lat="40.0713749" lon="-105.229789">
  <ele>1583.0</ele>
  <time>2026-08-28T17:56:22Z</time>
  <course>0.0</course>
  <speed>0.0</speed>
  <fix>3d</fix>
</trkpt>
<trkpt lat="40.0713749" lon="-105.229789">
  <ele>1583.0</ele>
  <time>2026-08-28T17:56:22Z</time>
  <course>247.96</course>
  <speed>0.022360679774997897</speed>
  <fix>3d</fix>
</trkpt>
<trkpt lat="40.0713749" lon="-105.229789">
  <ele>1583.0</ele>
  <time>2026-08-28T17:56:22Z</time>
  <course>0.0</course>
  <speed>0.0</speed>
  <fix>3d</fix>
</trkpt>
<trkpt lat="40.0713749" lon="-105.229789">
  <ele>1583.0</ele>
  <time>2026-08-28T17:56:22Z</time>
  <course>247.96</course>
  <speed>0.022360679774997897</speed>
  <fix>3d</fix>
</trkpt>
<trkpt lat="40.0713749" lon="-105.229789">
  <ele>1583.0</ele>
  <time>2026-08-28T17:56:22Z</time>
  <course>0.0</course>
  <speed>0.0</speed>
  <fix>3d</fix>
</trkpt>
<trkpt lat="40.0713749" lon="-105.229789">
  <ele>1583.0</ele>
  <time>2026-08-28T17:56:22Z</time>
  <course>247.95</course>
  <speed>0.022360679774997897</speed>
  <fix>3d</fix>
</trkpt>
<trkpt lat="40.0713749" lon="-105.229789">
  <ele>1583.0</ele>
  <time>2026-08-28T17:56:22Z</time>
  <course>0.0</course>
  <speed>0.0</speed>
  <fix>3d</fix>
</trkpt>
<trkpt lat="40.0713749" lon="-105.229789">
  <ele>1583.0</ele>
  <time>2026-08-28T17:56:22Z</time>
  <course>247.95</course>
  <speed>0.022360679774997897</speed>
  <fix>3d</fix>
</trkpt>
<trkpt lat="40.0713749" lon="-105.229789">
  <ele>1583.0</ele>
  <time>2026-08-28T17:56:22Z</time>
  <course>0.0</course>
  <speed>0.0</speed>
  <fix>3d</fix>
</trkpt>
<trkpt lat="40.0713749" lon="-105.229789">
  <ele>1583.0</ele>
  <time>2026-08-28T17:56:22Z</time>
  <course>247.95</course>
  <speed>0.022360679774997897</speed>
  <fix>3d</fix>
</trkpt>
<trkpt lat="40.0713749" lon="-105.229789">
  <ele>1583.0</ele>
  <time>2026-08-28T17:56:22Z</time>
  <course>0.0</course>
  <speed>0.0</speed>
  <fix>3d</fix>
</trkpt>
<trkpt lat="40.0713749" lon="-105.229789">
  <ele>1583.0</ele>
  <time>2026-08-28T17:56:22Z</time>
  <course>247.94</course>
  <speed>0.022360679774997897</speed>
  <fix>3d</fix>
</trkpt>
<trkpt lat="40.0713749" lon="-105.229789">
  <ele>1583.0</ele>
  <time>2026-08-28T17:56:22Z</time>
  <course>0.0</course>
  <speed>0.0</speed>
  <fix>3d</fix>
</trkpt>
<trkpt lat="40.0713749" lon="-105.229789">
  <ele>1583.0</ele>
  <time>2026-08-28T17:56:22Z</time>
  <course>247.94</course>
  <speed>0.022360679774997897</speed>
  <fix>3d</fix>
</trkpt>
<trkpt lat="40.0713749" lon="-105.229789">
  <ele>1583.0</ele>
  <time>2026-08-28T17:56:22Z</time>
  <course>0.0</course>
  <speed>0.0</speed>
  <fix>3d</fix>
</trkpt>
<trkpt lat="40.0713749" lon="-105.229789">
  <ele>1583.0</ele>
  <time>2026-08-28T17:56:22Z</time>
  <course>247.93</course>
  <speed>0.022360679774997897</speed>
  <fix>3d</fix>
</trkpt>
<trkpt lat="40.0713749" lon="-105.229789">
  <ele>1583.0</ele>
  <time>2026-08-28T17:56:22Z</time>
  <course>0.0</course>
  <speed>0.0</speed>
  <fix>3d</fix>
</trkpt>
<trkpt lat="40.0713749" lon="-105.229789">
  <ele>1583.0</ele>
  <time>2026-08-28T17:56:22Z</time>
  <course>247.93</course>
  <speed>0.022360679774997897</speed>
  <fix>3d</fix>
</trkpt>
<trkpt lat="40.0713749" lon="-105.229789">
  <ele>1583.0</ele>
  <time>2026-08-28T17:56:22Z</time>
  <course>0.0</course>
  <speed>0.0</speed>
  <fix>3d</fix>
</trkpt>
<trkpt lat="40.0713749" lon="-105.229789">
  <ele>1583.0</ele>
  <time>2026-08-28T17:56:22Z</time>
  <course>247.92</course>
  <speed>0.022360679774997897</speed>
  <fix>3d</fix>
</trkpt>
<trkpt lat="40.0713749" lon="-105.229789">
  <ele>1583.0</ele>
  <time>2026-08-28T17:56:22Z</time>
  <course>0.0</course>
  <speed>0.0</speed>
  <fix>3d</fix>
</trkpt>
<trkpt lat="40.0713749" lon="-105.229789">
  <ele>1583.0</ele>
  <time>2026-08-28T17:56:22Z</time>
  <course>247.92</course>
  <speed>0.022360679774997897</speed>
  <fix>3d</fix>
</trkpt>
<trkpt lat="40.0713749" lon="-105.229789">
  <ele>1583.0</ele>
  <time>2026-08-28T17:56:22Z</time>
  <course>0.0</course>
  <speed>0.0</speed>
  <fix>3d</fix>
</trkpt>
<trkpt lat="40.0713749" lon="-105.229789">
  <ele>1583.0</ele>
  <time>2026-08-28T17:56:22Z</time>
  <course>247.92</course>
  <speed>0.022360679774997897</speed>
  <fix>3d</fix>
</trkpt>
<trkpt lat="40.0713749" lon="-105.229789">
  <ele>1583.0</ele>
  <time>2026-08-28T17:56:22Z</time>
  <course>0.0</course>
  <speed>0.0</speed>
  <fix>3d</fix>
</trkpt>
<trkpt lat="40.0713749" lon="-105.229789">
  <ele>1583.0</ele>
  <time>2026-08-28T17:56:22Z</time>
  <course>247.91</course>
  <speed>0.022360679774997897</speed>
  <fix>3d</fix>
</trkpt>
<trkpt lat="40.0713749" lon="-105.229789">
  <ele>1583.0</ele>
  <time>2026-08-28T17:56:22Z</time>
  <course>0.0</course>
  <speed>0.0</speed>
  <fix>3d</fix>
</trkpt>
<trkpt lat="40.0713749" lon="-105.229789">
  <ele>1583.0</ele>
  <time>2026-08-28T17:56:22Z</time>
  <course>247.91</course>
  <speed>0.022360679774997897</speed>
  <fix>3d</fix>
</trkpt>
<trkpt lat="40.0713749" lon="-105.229789">
  <ele>1583.0</ele>
  <time>2026-08-28T17:56:22Z</time>
  <course>0.0</course>
  <speed>0.0</speed>
  <fix>3d</fix>
</trkpt>
<trkpt lat="40.0713749" lon="-105.229789">
  <ele>1583.0</ele>
  <time>2026-08-28T17:56:22Z</time>
  <course>247.9</course>
  <speed>0.022360679774997897</speed>
  <fix>3d</fix>
</trkpt>
<trkpt lat="40.0713749" lon="-105.229789">
  <ele>1583.0</ele>
  <time>2026-08-28T17:56:22Z</time>
  <course>0.0</course>
  <speed>0.0</speed>
  <fix>3d</fix>
</trkpt>
<trkpt lat="40.0713749" lon="-105.229789">
  <ele>1583.0</ele>
  <time>2026-08-28T17:56:22Z</time>
  <course>247.9</course>
  <speed>0.022360679774997897</speed>
  <fix>3d</fix>
</trkpt>
<trkpt lat="40.0713749" lon="-105.229789">
  <ele>1583.0</ele>
  <time>2026-08-28T17:56:22Z</time>
  <course>0.0</course>
  <speed>0.0</speed>
  <fix>3d</fix>
</trkpt>
<trkpt lat="40.0713749" lon="-105.229789">
  <ele>1583.0</ele>
  <time>2026-08-28T17:56:22Z</time>
  <course>247.89</course>
  <speed>0.022360679774997897</speed>
  <fix>3d</fix>
</trkpt>
<trkpt lat="40.0713749" lon="-105.229789">
  <ele>1583.0</ele>
  <time>2026-08-28T17:56:22Z</time>
  <course>0.0</course>
  <speed>0.0</speed>
  <fix>3d</fix>
</trkpt>
<trkpt lat="40.0713749" lon="-105.229789">
  <ele>1583.0</ele>
  <time>2026-08-28T17:56:22Z</time>
  <course>247.89</course>
  <speed>0.022360679774997897</speed>
  <fix>3d</fix>
</trkpt>
<trkpt lat="40.0713749" lon="-105.229789">
  <ele>1583.0</ele>
  <time>2026-08-28T17:56:22Z</time>
  <course>0.0</course>
  <speed>0.0</speed>
  <fix>3d</fix>
</trkpt>
<trkpt lat="40.0713749" lon="-105.229789">
  <ele>1583.0</ele>
  <time>2026-08-28T17:56:22Z</time>
  <course>247.89</course>
  <speed>0.022360679774997897</speed>
  <fix>3d</fix>
</trkpt>
<trkpt lat="40.0713749" lon="-105.229789">
  <ele>1583.0</ele>
  <time>2026-08-28T17:56:22Z</time>
  <course>0.0</course>
  <speed>0.0</speed>
  <fix>3d</fix>
</trkpt>
<trkpt lat="40.0713749" lon="-105.229789">
  <ele>1583.0</ele>
  <time>2026-08-28T17:56:22Z</time>
  <course>247.88</course>
  <speed>0.022360679774997897</speed>
  <fix>3d</fix>
</trkpt>
<trkpt lat="40.0713749" lon="-105.229789">
  <ele>1583.0</ele>
  <time>2026-08-28T17:56:22Z</time>
  <course>0.0</course>
  <speed>0.0</speed>
  <fix>3d</fix>
</trkpt>
<trkpt lat="40.0713749" lon="-105.229789">
  <ele>1583.0</ele>
  <time>2026-08-28T17:56:22Z</time>
  <course>247.88</course>
  <speed>0.0316227766016838</speed>
  <fix>3d</fix>
</trkpt>
<trkpt lat="40.0713749" lon="-105.229789">
  <ele>1583.0</ele>
  <time>2026-08-28T17:56:22Z</time>
  <course>0.0</course>
  <speed>0.0</speed>
  <fix>3d</fix>
</trkpt>
<trkpt lat="40.0713749" lon="-105.229789">
  <ele>1583.0</ele>
  <time>2026-08-28T17:56:22Z</time>
  <course>247.87</course>
  <speed>0.0316227766016838</speed>
  <fix>3d</fix>
</trkpt>
<trkpt lat="40.0713749" lon="-105.229789">
  <ele>1583.0</ele>
  <time>2026-08-28T17:56:22Z</time>
  <course>0.0</course>
  <speed>0.0</speed>
  <fix>3d</fix>
</trkpt>
<trkpt lat="40.0713749" lon="-105.229789">
  <ele>1583.0</ele>
  <time>2026-08-28T17:56:22Z</time>
  <course>247.87</course>
  <speed>0.0316227766016838</speed>
  <fix>3d</fix>
</trkpt>
<trkpt lat="40.0713749" lon="-105.229789">
  <ele>1583.0</ele>
  <time>2026-08-28T17:56:22Z</time>
  <course>0.0</course>
  <speed>0.0</speed>
  <fix>3d</fix>
</trkpt>
<trkpt lat="40.0713749" lon="-105.229789">
  <ele>1583.0</ele>
  <time>2026-08-28T17:56:22Z</time>
  <course>247.87</course>
  <speed>0.0316227766016838</speed>
  <fix>3d</fix>
</trkpt>
<trkpt lat="40.0713749" lon="-105.229789">
  <ele>1583.0</ele>
  <time>2026-08-28T17:56:22Z</time>
  <course>0.0</course>
  <speed>0.0</speed>
  <fix>3d</fix>
</trkpt>
<trkpt lat="40.0713749" lon="-105.229789">
  <ele>1583.0</ele>
  <time>2026-08-28T17:56:22Z</time>
  <course>247.86</course>
  <speed>0.0316227766016838</speed>
  <fix>3d</fix>
</trkpt>
<trkpt lat="40.0713749" lon="-105.229789">
  <ele>1583.0</ele>
  <time>2026-08-28T17:56:22Z</time>
  <course>0.0</course>
  <speed>0.0</speed>
  <fix>3d</fix>
</trkpt>
<trkpt lat="40.0713749" lon="-105.229789">
  <ele>1583.0</ele>
  <time>2026-08-28T17:56:22Z</time>
  <course>247.86</course>
  <speed>0.0316227766016838</speed>
  <fix>3d</fix>
</trkpt>
<trkpt lat="40.0713749" lon="-105.229789">
  <ele>1583.0</ele>
  <time>2026-08-28T17:56:22Z</time>
  <course>0.0</course>
  <speed>0.0</speed>
  <fix>3d</fix>
</trkpt>
<trkpt lat="40.0713749" lon="-105.229789">
  <ele>1583.0</ele>
  <time>2026-08-28T17:56:22Z</time>
  <course>247.85</course>
  <speed>0.0316227766016838</speed>
  <fix>3d</fix>
</trkpt>
<trkpt lat="40.0713749" lon="-105.229789">
  <ele>1583.0</ele>
  <time>2026-08-28T17:56:22Z</time>
  <course>0.0</course>
  <speed>0.0</speed>
  <fix>3d</fix>
</trkpt>
<trkpt lat="40.0713749" lon="-105.229789">
  <ele>1583.0</ele>
  <time>2026-08-28T17:56:22Z</time>
  <course>247.85</course>
  <speed>0.0316227766016838</speed>
  <fix>3d</fix>
</trkpt>
<trkpt lat="40.0713749" lon="-105.229789">
  <ele>1583.0</ele>
  <time>2026-08-28T17:56:22Z</time>
  <course>0.0</course>
  <speed>0.0</speed>
  <fix>3d</fix>
</trkpt>
<trkpt lat="40.0713749" lon="-105.229789">
  <ele>1583.0</ele>
  <time>2026-08-28T17:56:22Z</time>
  <course>247.85</course>
  <speed>0.0316227766016838</speed>
  <fix>3d</fix>
</trkpt>
<trkpt lat="40.0713749" lon="-105.229789">
  <ele>1583.0</ele>
  <time>2026-08-28T17:56:22Z</time>
  <course>0.0</course>
  <speed>0.0</speed>
  <fix>3d</fix>
</trkpt>
<trkpt lat="40.0713749" lon="-105.229789">
  <ele>1583.0</ele>
  <time>2026-08-28T17:56:22Z</time>
  <course>247.84</course>
  <speed>0.0316227766016838</speed>
  <fix>3d</fix>
</trkpt>
<trkpt lat="40.0713749" lon="-105.229789">
  <ele>1583.0</ele>
  <time>2026-08-28T17:56:22Z</time>
  <course>0.0</course>
  <speed>0.0</speed>
  <fix>3d</fix>
</trkpt>
<trkpt lat="40.0713749" lon="-105.229789">
  <ele>1583.0</ele>
  <time>2026-08-28T17:56:22Z</time>
  <course>247.84</course>
  <speed>0.0316227766016838</speed>
  <fix>3d</fix>
</trkpt>
<trkpt lat="40.0713749" lon="-105.229789">
  <ele>1583.0</ele>
  <time>2026-08-28T17:56:22Z</time>
  <course>0.0</course>
  <speed>0.0</speed>
  <fix>3d</fix>
</trkpt>
<trkpt lat="40.0713749" lon="-105.229789">
  <ele>1583.0</ele>
  <time>2026-08-28T17:56:22Z</time>
  <course>247.83</course>
  <speed>0.0316227766016838</speed>
  <fix>3d</fix>
</trkpt>
<trkpt lat="40.0713749" lon="-105.229789">
  <ele>1583.0</ele>
  <time>2026-08-28T17:56:22Z</time>
  <course>0.0</course>
  <speed>0.0</speed>
  <fix>3d</fix>
</trkpt>
<trkpt lat="40.0713749" lon="-105.229789">
  <ele>1583.0</ele>
  <time>2026-08-28T17:56:22Z</time>
  <course>247.83</course>
  <speed>0.0316227766016838</speed>
  <fix>3d</fix>
</trkpt>
<trkpt lat="40.0713749" lon="-105.229789">
  <ele>1583.0</ele>
  <time>2026-08-28T17:56:22Z</time>
  <course>0.0</course>
  <speed>0.0</speed>
  <fix>3d</fix>
</trkpt>
<trkpt lat="40.0713749" lon="-105.229789">
  <ele>1583.0</ele>
  <time>2026-08-28T17:56:22Z</time>
  <course>247.83</course>
  <speed>0.0316227766016838</speed>
  <fix>3d</fix>
</trkpt>
<trkpt lat="40.0713749" lon="-105.229789">
  <ele>1583.0</ele>
  <time>2026-08-28T17:56:22Z</time>
  <course>0.0</course>
  <speed>0.0</speed>
  <fix>3d</fix>
</trkpt>
<trkpt lat="40.0713749" lon="-105.229789">
  <ele>1583.0</ele>
  <time>2026-08-28T17:56:22Z</time>
  <course>247.82</course>
  <speed>0.0316227766016838</speed>
  <fix>3d</fix>
</trkpt>
<trkpt lat="40.0713749" lon="-105.229789">
  <ele>1583.0</ele>
  <time>2026-08-28T17:56:22Z</time>
  <course>0.0</course>
  <speed>0.0</speed>
  <fix>3d</fix>
</trkpt>
<trkpt lat="40.0713749" lon="-105.229789">
  <ele>1583.0</ele>
  <time>2026-08-28T17:56:22Z</time>
  <course>247.82</course>
  <speed>0.0316227766016838</speed>
  <fix>3d</fix>
</trkpt>
<trkpt lat="40.0713749" lon="-105.229789">
  <ele>1583.0</ele>
  <time>2026-08-28T17:56:22Z</time>
  <course>0.0</course>
  <speed>0.0</speed>
  <fix>3d</fix>
</trkpt>
<trkpt lat="40.0713749" lon="-105.229789">
  <ele>1583.0</ele>
  <time>2026-08-28T17:56:22Z</time>
  <course>247.81</course>
  <speed>0.0316227766016838</speed>
  <fix>3d</fix>
</trkpt>
<trkpt lat="40.0713749" lon="-105.229789">
  <ele>1583.0</ele>
  <time>2026-08-28T17:56:22Z</time>
  <course>0.0</course>
  <speed>0.0</speed>
  <fix>3d</fix>
</trkpt>
<trkpt lat="40.0713749" lon="-105.229789">
  <ele>1583.0</ele>
  <time>2026-08-28T17:56:22Z</time>
  <course>247.81</course>
  <speed>0.0316227766016838</speed>
  <fix>3d</fix>
</trkpt>
<trkpt lat="40.0713749" lon="-105.229789">
  <ele>1583.0</ele>
  <time>2026-08-28T17:56:22Z</time>
  <course>0.0</course>
  <speed>0.0</speed>
  <fix>3d</fix>
</trkpt>
<trkpt lat="40.0713749" lon="-105.229789">
  <ele>1583.0</ele>
  <time>2026-08-28T17:56:22Z</time>
  <course>247.81</course>
  <speed>0.0316227766016838</speed>
  <fix>3d</fix>
</trkpt>
<trkpt lat="40.0713749" lon="-105.229789">
  <ele>1583.0</ele>
  <time>2026-08-28T17:56:22Z</time>
  <course>0.0</course>
  <speed>0.0</speed>
  <fix>3d</fix>
</trkpt>
<trkpt lat="40.0713749" lon="-105.229789">
  <ele>1583.0</ele>
  <time>2026-08-28T17:56:22Z</time>
  <course>247.8</course>
  <speed>0.0316227766016838</speed>
  <fix>3d</fix>
</trkpt>
<trkpt lat="40.0713749" lon="-105.229789">
  <ele>1583.0</ele>
  <time>2026-08-28T17:56:22Z</time>
  <course>0.0</course>
  <speed>0.0</speed>
  <fix>3d</fix>
</trkpt>
<trkpt lat="40.0713749" lon="-105.229789">
  <ele>1583.0</ele>
  <time>2026-08-28T17:56:22Z</time>
  <course>247.8</course>
  <speed>0.0316227766016838</speed>
  <fix>3d</fix>
</trkpt>
<trkpt lat="40.0713749" lon="-105.229789">
  <ele>1583.0</ele>
  <time>2026-08-28T17:56:22Z</time>
  <course>0.0</course>
  <speed>0.0</speed>
  <fix>3d</fix>
</trkpt>
<trkpt lat="40.0713749" lon="-105.229789">
  <ele>1583.0</ele>
  <time>2026-08-28T17:56:22Z</time>
  <course>247.8</course>
  <speed>0.0316227766016838</speed>
  <fix>3d</fix>
</trkpt>
<trkpt lat="40.0713749" lon="-105.229789">
  <ele>1583.0</ele>
  <time>2026-08-28T17:56:22Z</time>
  <course>0.0</course>
  <speed>0.0</speed>
  <fix>3d</fix>
</trkpt>
<trkpt lat="40.0713749" lon="-105.229789">
  <ele>1583.0</ele>
  <time>2026-08-28T17:56:22Z</time>
  <course>247.79</course>
  <speed>0.0316227766016838</speed>
  <fix>3d</fix>
</trkpt>
<trkpt lat="40.0713749" lon="-105.229789">
  <ele>1583.0</ele>
  <time>2026-08-28T17:56:22Z</time>
  <course>0.0</course>
  <speed>0.0</speed>
  <fix>3d</fix>
</trkpt>
<trkpt lat="40.0713749" lon="-105.229789">
  <ele>1583.0</ele>
  <time>2026-08-28T17:56:22Z</time>
  <course>247.79</course>
  <speed>0.0316227766016838</speed>
  <fix>3d</fix>
</trkpt>
<trkpt lat="40.0713749" lon="-105.229789">
  <ele>1583.0</ele>
  <time>2026-08-28T17:56:22Z</time>
  <course>0.0</course>
  <speed>0.0</speed>
  <fix>3d</fix>
</trkpt>
<trkpt lat="40.0713749" lon="-105.229789">
  <ele>1583.0</ele>
  <time>2026-08-28T17:56:22Z</time>
  <course>247.78</course>
  <speed>0.0316227766016838</speed>
  <fix>3d</fix>
</trkpt>
<trkpt lat="40.0713749" lon="-105.229789">
  <ele>1583.0</ele>
  <time>2026-08-28T17:56:22Z</time>
  <course>0.0</course>
  <speed>0.0</speed>
  <fix>3d</fix>
</trkpt>
<trkpt lat="40.0713749" lon="-105.229789">
  <ele>1583.0</ele>
  <time>2026-08-28T17:56:22Z</time>
  <course>247.78</course>
  <speed>0.0316227766016838</speed>
  <fix>3d</fix>
</trkpt>
<trkpt lat="40.0713749" lon="-105.229789">
  <ele>1583.0</ele>
  <time>2026-08-28T17:56:22Z</time>
  <course>0.0</course>
  <speed>0.0</speed>
  <fix>3d</fix>
</trkpt>
<trkpt lat="40.0713749" lon="-105.229789">
  <ele>1583.0</ele>
  <time>2026-08-28T17:56:22Z</time>
  <course>247.78</course>
  <speed>0.0316227766016838</speed>
  <fix>3d</fix>
</trkpt>
<trkpt lat="40.0713749" lon="-105.229789">
  <ele>1583.0</ele>
  <time>2026-08-28T17:56:22Z</time>
  <course>0.0</course>
  <speed>0.0</speed>
  <fix>3d</fix>
</trkpt>
<trkpt lat="40.0713749" lon="-105.229789">
  <ele>1583.0</ele>
  <time>2026-08-28T17:56:22Z</time>
  <course>247.77</course>
  <speed>0.0316227766016838</speed>
  <fix>3d</fix>
</trkpt>
<trkpt lat="40.0713749" lon="-105.229789">
  <ele>1583.0</ele>
  <time>2026-08-28T17:56:22Z</time>
  <course>0.0</course>
  <speed>0.0</speed>
  <fix>3d</fix>
</trkpt>
<trkpt lat="40.0713749" lon="-105.229789">
  <ele>1583.0</ele>
  <time>2026-08-28T17:56:22Z</time>
  <course>247.77</course>
  <speed>0.0316227766016838</speed>
  <fix>3d</fix>
</trkpt>
<trkpt lat="40.0713749" lon="-105.229789">
  <ele>1583.0</ele>
  <time>2026-08-28T17:56:22Z</time>
  <course>0.0</course>
  <speed>0.0</speed>
  <fix>3d</fix>
</trkpt>
<trkpt lat="40.0713749" lon="-105.229789">
  <ele>1583.0</ele>
  <time>2026-08-28T17:56:22Z</time>
  <course>247.77</course>
  <speed>0.0316227766016838</speed>
  <fix>3d</fix>
</trkpt>
<trkpt lat="40.0713749" lon="-105.229789">
  <ele>1583.0</ele>
  <time>2026-08-28T17:56:22Z</time>
  <course>0.0</course>
  <speed>0.0</speed>
  <fix>3d</fix>
</trkpt>
<trkpt lat="40.0713749" lon="-105.229789">
  <ele>1583.0</ele>
  <time>2026-08-28T17:56:22Z</time>
  <course>247.76</course>
  <speed>0.0316227766016838</speed>
  <fix>3d</fix>
</trkpt>
<trkpt lat="40.0713749" lon="-105.229789">
  <ele>1583.0</ele>
  <time>2026-08-28T17:56:22Z</time>
  <course>0.0</course>
  <speed>0.0</speed>
  <fix>3d</fix>
</trkpt>
<trkpt lat="40.0713749" lon="-105.229789">
  <ele>1583.0</ele>
  <time>2026-08-28T17:56:22Z</time>
  <course>247.76</course>
  <speed>0.0316227766016838</speed>
  <fix>3d</fix>
</trkpt>
<trkpt lat="40.0713749" lon="-105.229789">
  <ele>1583.0</ele>
  <time>2026-08-28T17:56:22Z</time>
  <course>0.0</course>
  <speed>0.0</speed>
  <fix>3d</fix>
</trkpt>
<trkpt lat="40.0713749" lon="-105.229789">
  <ele>1583.0</ele>
  <time>2026-08-28T17:56:22Z</time>
  <course>247.75</course>
  <speed>0.0316227766016838</speed>
  <fix>3d</fix>
</trkpt>
<trkpt lat="40.0713749" lon="-105.229789">
  <ele>1583.0</ele>
  <time>2026-08-28T17:56:22Z</time>
  <course>0.0</course>
  <speed>0.0</speed>
  <fix>3d</fix>
</trkpt>
<trkpt lat="40.0713749" lon="-105.229789">
  <ele>1583.0</ele>
  <time>2026-08-28T17:56:22Z</time>
  <course>247.75</course>
  <speed>0.0316227766016838</speed>
  <fix>3d</fix>
</trkpt>
<trkpt lat="40.0713749" lon="-105.229789">
  <ele>1583.0</ele>
  <time>2026-08-28T17:56:22Z</time>
  <course>0.0</course>
  <speed>0.0</speed>
  <fix>3d</fix>
</trkpt>
<trkpt lat="40.0713749" lon="-105.229789">
  <ele>1583.0</ele>
  <time>2026-08-28T17:56:22Z</time>
  <course>247.75</course>
  <speed>0.0316227766016838</speed>
  <fix>3d</fix>
</trkpt>
<trkpt lat="40.0713749" lon="-105.229789">
  <ele>1583.0</ele>
  <time>2026-08-28T17:56:22Z</time>
  <course>0.0</course>
  <speed>0.0</speed>
  <fix>3d</fix>
</trkpt>
<trkpt lat="40.0713749" lon="-105.229789">
  <ele>1583.0</ele>
  <time>2026-08-28T17:56:22Z</time>
  <course>247.74</course>
  <speed>0.0316227766016838</speed>
  <fix>3d</fix>
</trkpt>
<trkpt lat="40.0713749" lon="-105.229789">
  <ele>1583.0</ele>
  <time>2026-08-28T17:56:22Z</time>
  <course>0.0</course>
  <speed>0.0</speed>
  <fix>3d</fix>
</trkpt>
<trkpt lat="40.0713749" lon="-105.229789">
  <ele>1583.0</ele>
  <time>2026-08-28T17:56:22Z</time>
  <course>247.74</course>
  <speed>0.0316227766016838</speed>
  <fix>3d</fix>
</trkpt>
<trkpt lat="40.0713749" lon="-105.229789">
  <ele>1583.0</ele>
  <time>2026-08-28T17:56:22Z</time>
  <course>0.0</course>
  <speed>0.0</speed>
  <fix>3d</fix>
</trkpt>
<trkpt lat="40.0713749" lon="-105.229789">
  <ele>1583.0</ele>
  <time>2026-08-28T17:56:22Z</time>
  <course>247.74</course>
  <speed>0.0316227766016838</speed>
  <fix>3d</fix>
</trkpt>
<trkpt lat="40.0713749" lon="-105.229789">
  <ele>1583.0</ele>
  <time>2026-08-28T17:56:22Z</time>
  <course>0.0</course>
  <speed>0.0</speed>
  <fix>3d</fix>
</trkpt>
<trkpt lat="40.0713749" lon="-105.229789">
  <ele>1583.0</ele>
  <time>2026-08-28T17:56:22Z</time>
  <course>247.73</course>
  <speed>0.0316227766016838</speed>
  <fix>3d</fix>
</trkpt>
<trkpt lat="40.0713749" lon="-105.229789">
  <ele>1583.0</ele>
  <time>2026-08-28T17:56:22Z</time>
  <course>0.0</course>
  <speed>0.0</speed>
  <fix>3d</fix>
</trkpt>
<trkpt lat="40.0713749" lon="-105.229789">
  <ele>1583.0</ele>
  <time>2026-08-28T17:56:22Z</time>
  <course>247.73</course>
  <speed>0.0316227766016838</speed>
  <fix>3d</fix>
</trkpt>
<trkpt lat="40.0713749" lon="-105.229789">
  <ele>1583.0</ele>
  <time>2026-08-28T17:56:22Z</time>
  <course>0.0</course>
  <speed>0.0</speed>
  <fix>3d</fix>
</trkpt>
<trkpt lat="40.0713749" lon="-105.229789">
  <ele>1583.0</ele>
  <time>2026-08-28T17:56:22Z</time>
  <course>247.73</course>
  <speed>0.0316227766016838</speed>
  <fix>3d</fix>
</trkpt>
<trkpt lat="40.0713749" lon="-105.229789">
  <ele>1583.0</ele>
  <time>2026-08-28T17:56:22Z</time>
  <course>0.0</course>
  <speed>0.0</speed>
  <fix>3d</fix>
</trkpt>
<trkpt lat="40.0713749" lon="-105.229789">
  <ele>1583.0</ele>
  <time>2026-08-28T17:56:22Z</time>
  <course>247.72</course>
  <speed>0.0316227766016838</speed>
  <fix>3d</fix>
</trkpt>
<trkpt lat="40.0713749" lon="-105.229789">
  <ele>1583.0</ele>
  <time>2026-08-28T17:56:22Z</time>
  <course>0.0</course>
  <speed>0.0</speed>
  <fix>3d</fix>
</trkpt>
<trkpt lat="40.0713749" lon="-105.229789">
  <ele>1583.0</ele>
  <time>2026-08-28T17:56:22Z</time>
  <course>247.72</course>
  <speed>0.0316227766016838</speed>
  <fix>3d</fix>
</trkpt>
<trkpt lat="40.0713749" lon="-105.229789">
  <ele>1583.0</ele>
  <time>2026-08-28T17:56:22Z</time>
  <course>0.0</course>
  <speed>0.0</speed>
  <fix>3d</fix>
</trkpt>
<trkpt lat="40.0713749" lon="-105.229789">
  <ele>1583.0</ele>
  <time>2026-08-28T17:56:22Z</time>
  <course>247.72</course>
  <speed>0.0316227766016838</speed>
  <fix>3d</fix>
</trkpt>
<trkpt lat="40.0713749" lon="-105.229789">
  <ele>1583.0</ele>
  <time>2026-08-28T17:56:22Z</time>
  <course>0.0</course>
  <speed>0.0</speed>
  <fix>3d</fix>
</trkpt>
<trkpt lat="40.0713749" lon="-105.229789">
  <ele>1583.0</ele>
  <time>2026-08-28T17:56:22Z</time>
  <course>247.71</course>
  <speed>0.0316227766016838</speed>
  <fix>3d</fix>
</trkpt>
<trkpt lat="40.0713749" lon="-105.229789">
  <ele>1583.0</ele>
  <time>2026-08-28T17:56:22Z</time>
  <course>0.0</course>
  <speed>0.0</speed>
  <fix>3d</fix>
</trkpt>
<trkpt lat="40.0713749" lon="-105.229789">
  <ele>1583.0</ele>
  <time>2026-08-28T17:56:22Z</time>
  <course>247.71</course>
  <speed>0.0316227766016838</speed>
  <fix>3d</fix>
</trkpt>
<trkpt lat="40.0713749" lon="-105.229789">
  <ele>1583.0</ele>
  <time>2026-08-28T17:56:22Z</time>
  <course>0.0</course>
  <speed>0.0</speed>
  <fix>3d</fix>
</trkpt>
<trkpt lat="40.0713749" lon="-105.229789">
  <ele>1583.0</ele>
  <time>2026-08-28T17:56:22Z</time>
  <course>247.71</course>
  <speed>0.0316227766016838</speed>
  <fix>3d</fix>
</trkpt>
<trkpt lat="40.0713749" lon="-105.229789">
  <ele>1583.0</ele>
  <time>2026-08-28T17:56:22Z</time>
  <course>0.0</course>
  <speed>0.0</speed>
  <fix>3d</fix>
</trkpt>
<trkpt lat="40.0713749" lon="-105.229789">
  <ele>1583.0</ele>
  <time>2026-08-28T17:56:22Z</time>
  <course>247.7</course>
  <speed>0.0316227766016838</speed>
  <fix>3d</fix>
</trkpt>
<trkpt lat="40.0713749" lon="-105.229789">
  <ele>1583.0</ele>
  <time>2026-08-28T17:56:22Z</time>
  <course>0.0</course>
  <speed>0.0</speed>
  <fix>3d</fix>
</trkpt>
<trkpt lat="40.0713749" lon="-105.229789">
  <ele>1583.0</ele>
  <time>2026-08-28T17:56:22Z</time>
  <course>247.7</course>
  <speed>0.0316227766016838</speed>
  <fix>3d</fix>
</trkpt>
<trkpt lat="40.0713749" lon="-105.229789">
  <ele>1583.0</ele>
  <time>2026-08-28T17:56:22Z</time>
  <course>0.0</course>
  <speed>0.0</speed>
  <fix>3d</fix>
</trkpt>
<trkpt lat="40.0713749" lon="-105.229789">
  <ele>1583.0</ele>
  <time>2026-08-28T17:56:22Z</time>
  <course>247.7</course>
  <speed>0.0316227766016838</speed>
  <fix>3d</fix>
</trkpt>
<trkpt lat="40.0713749" lon="-105.229789">
  <ele>1583.0</ele>
  <time>2026-08-28T17:56:22Z</time>
  <course>0.0</course>
  <speed>0.0</speed>
  <fix>3d</fix>
</trkpt>
<trkpt lat="40.0713749" lon="-105.229789">
  <ele>1583.0</ele>
  <time>2026-08-28T17:56:22Z</time>
  <course>247.69</course>
  <speed>0.0316227766016838</speed>
  <fix>3d</fix>
</trkpt>
<trkpt lat="40.0713749" lon="-105.229789">
  <ele>1583.0</ele>
  <time>2026-08-28T17:56:22Z</time>
  <course>0.0</course>
  <speed>0.0</speed>
  <fix>3d</fix>
</trkpt>
<trkpt lat="40.0713749" lon="-105.229789">
  <ele>1583.0</ele>
  <time>2026-08-28T17:56:22Z</time>
  <course>247.69</course>
  <speed>0.0316227766016838</speed>
  <fix>3d</fix>
</trkpt>
<trkpt lat="40.0713749" lon="-105.229789">
  <ele>1583.0</ele>
  <time>2026-08-28T17:56:22Z</time>
  <course>0.0</course>
  <speed>0.0</speed>
  <fix>3d</fix>
</trkpt>
<trkpt lat="40.0713749" lon="-105.229789">
  <ele>1583.0</ele>
  <time>2026-08-28T17:56:22Z</time>
  <course>247.69</course>
  <speed>0.0316227766016838</speed>
  <fix>3d</fix>
</trkpt>
<trkpt lat="40.0713749" lon="-105.229789">
  <ele>1583.0</ele>
  <time>2026-08-28T17:56:22Z</time>
  <course>0.0</course>
  <speed>0.0</speed>
  <fix>3d</fix>
</trkpt>
<trkpt lat="40.0713749" lon="-105.229789">
  <ele>1583.0</ele>
  <time>2026-08-28T17:56:22Z</time>
  <course>247.68</course>
  <speed>0.0316227766016838</speed>
  <fix>3d</fix>
</trkpt>
<trkpt lat="40.0713749" lon="-105.229789">
  <ele>1583.0</ele>
  <time>2026-08-28T17:56:22Z</time>
  <course>0.0</course>
  <speed>0.0</speed>
  <fix>3d</fix>
</trkpt>
<trkpt lat="40.0713749" lon="-105.229789">
  <ele>1583.0</ele>
  <time>2026-08-28T17:56:22Z</time>
  <course>247.68</course>
  <speed>0.0316227766016838</speed>
  <fix>3d</fix>
</trkpt>
<trkpt lat="40.0713749" lon="-105.229789">
  <ele>1583.0</ele>
  <time>2026-08-28T17:56:22Z</time>
  <course>0.0</course>
  <speed>0.0</speed>
  <fix>3d</fix>
</trkpt>
<trkpt lat="40.0713749" lon="-105.229789">
  <ele>1583.0</ele>
  <time>2026-08-28T17:56:22Z</time>
  <course>247.68</course>
  <speed>0.0316227766016838</speed>
  <fix>3d</fix>
</trkpt>
<trkpt lat="40.0713749" lon="-105.229789">
  <ele>1583.0</ele>
  <time>2026-08-28T17:56:22Z</time>
  <course>0.0</course>
  <speed>0.0</speed>
  <fix>3d</fix>
</trkpt>
<trkpt lat="40.0713749" lon="-105.229789">
  <ele>1583.0</ele>
  <time>2026-08-28T17:56:22Z</time>
  <course>247.67</course>
  <speed>0.0316227766016838</speed>
  <fix>3d</fix>
</trkpt>
<trkpt lat="40.0713749" lon="-105.229789">
  <ele>1583.0</ele>
  <time>2026-08-28T17:56:22Z</time>
  <course>0.0</course>
  <speed>0.0</speed>
  <fix>3d</fix>
</trkpt>
<trkpt lat="40.0713749" lon="-105.229789">
  <ele>1583.0</ele>
  <time>2026-08-28T17:56:22Z</time>
  <course>247.67</course>
  <speed>0.0316227766016838</speed>
  <fix>3d</fix>
</trkpt>
<trkpt lat="40.0713749" lon="-105.229789">
  <ele>1583.0</ele>
  <time>2026-08-28T17:56:22Z</time>
  <course>0.0</course>
  <speed>0.0</speed>
  <fix>3d</fix>
</trkpt>
<trkpt lat="40.0713749" lon="-105.229789">
  <ele>1583.0</ele>
  <time>2026-08-28T17:56:22Z</time>
  <course>247.67</course>
  <speed>0.0316227766016838</speed>
  <fix>3d</fix>
</trkpt>
<trkpt lat="40.0713749" lon="-105.229789">
  <ele>1583.0</ele>
  <time>2026-08-28T17:56:22Z</time>
  <course>0.0</course>
  <speed>0.0</speed>
  <fix>3d</fix>
</trkpt>
<trkpt lat="40.0713749" lon="-105.229789">
  <ele>1583.0</ele>
  <time>2026-08-28T17:56:22Z</time>
  <course>247.67</course>
  <speed>0.0316227766016838</speed>
  <fix>3d</fix>
</trkpt>
<trkpt lat="40.0713749" lon="-105.229789">
  <ele>1583.0</ele>
  <time>2026-08-28T17:56:22Z</time>
  <course>0.0</course>
  <speed>0.0</speed>
  <fix>3d</fix>
</trkpt>
<trkpt lat="40.0713749" lon="-105.229789">
  <ele>1583.0</ele>
  <time>2026-08-28T17:56:22Z</time>
  <course>247.66</course>
  <speed>0.0316227766016838</speed>
  <fix>3d</fix>
</trkpt>
<trkpt lat="40.0713749" lon="-105.229789">
  <ele>1583.0</ele>
  <time>2026-08-28T17:56:22Z</time>
  <course>0.0</course>
  <speed>0.0</speed>
  <fix>3d</fix>
</trkpt>
<trkpt lat="40.0713749" lon="-105.229789">
  <ele>1583.0</ele>
  <time>2026-08-28T17:56:22Z</time>
  <course>247.66</course>
  <speed>0.0316227766016838</speed>
  <fix>3d</fix>
</trkpt>
<trkpt lat="40.0713749" lon="-105.229789">
  <ele>1583.0</ele>
  <time>2026-08-28T17:56:22Z</time>
  <course>0.0</course>
  <speed>0.0</speed>
  <fix>3d</fix>
</trkpt>
<trkpt lat="40.0713749" lon="-105.229789">
  <ele>1583.0</ele>
  <time>2026-08-28T17:56:22Z</time>
  <course>247.66</course>
  <speed>0.0316227766016838</speed>
  <fix>3d</fix>
</trkpt>
<trkpt lat="40.0713749" lon="-105.229789">
  <ele>1583.0</ele>
  <time>2026-08-28T17:56:22Z</time>
  <course>0.0</course>
  <speed>0.0</speed>
  <fix>3d</fix>
</trkpt>
<trkpt lat="40.0713749" lon="-105.229789">
  <ele>1583.0</ele>
  <time>2026-08-28T17:56:22Z</time>
  <course>247.65</course>
  <speed>0.0316227766016838</speed>
  <fix>3d</fix>
</trkpt>
<trkpt lat="40.0713749" lon="-105.229789">
  <ele>1583.0</ele>
  <time>2026-08-28T17:56:22Z</time>
  <course>0.0</course>
  <speed>0.0</speed>
  <fix>3d</fix>
</trkpt>
<trkpt lat="40.0713749" lon="-105.229789">
  <ele>1583.0</ele>
  <time>2026-08-28T17:56:22Z</time>
  <course>247.65</course>
  <speed>0.0316227766016838</speed>
  <fix>3d</fix>
</trkpt>
<trkpt lat="40.0713749" lon="-105.229789">
  <ele>1583.0</ele>
  <time>2026-08-28T17:56:22Z</time>
  <course>0.0</course>
  <speed>0.0</speed>
  <fix>3d</fix>
</trkpt>
<trkpt lat="40.0713749" lon="-105.229789">
  <ele>1583.0</ele>
  <time>2026-08-28T17:56:22Z</time>
  <course>247.65</course>
  <speed>0.0316227766016838</speed>
  <fix>3d</fix>
</trkpt>
<trkpt lat="40.0713749" lon="-105.229789">
  <ele>1583.0</ele>
  <time>2026-08-28T17:56:22Z</time>
  <course>0.0</course>
  <speed>0.0</speed>
  <fix>3d</fix>
</trkpt>
<trkpt lat="40.0713749" lon="-105.229789">
  <ele>1583.0</ele>
  <time>2026-08-28T17:56:22Z</time>
  <course>247.64</course>
  <speed>0.0316227766016838</speed>
  <fix>3d</fix>
</trkpt>
<trkpt lat="40.0713749" lon="-105.229789">
  <ele>1583.0</ele>
  <time>2026-08-28T17:56:22Z</time>
  <course>0.0</course>
  <speed>0.0</speed>
  <fix>3d</fix>
</trkpt>
<trkpt lat="40.0713749" lon="-105.229789">
  <ele>1583.0</ele>
  <time>2026-08-28T17:56:22Z</time>
  <course>247.64</course>
  <speed>0.0316227766016838</speed>
  <fix>3d</fix>
</trkpt>
<trkpt lat="40.0713749" lon="-105.229789">
  <ele>1583.0</ele>
  <time>2026-08-28T17:56:22Z</time>
  <course>0.0</course>
  <speed>0.0</speed>
  <fix>3d</fix>
</trkpt>
<trkpt lat="40.0713749" lon="-105.229789">
  <ele>1583.0</ele>
  <time>2026-08-28T17:56:22Z</time>
  <course>247.64</course>
  <speed>0.0316227766016838</speed>
  <fix>3d</fix>
</trkpt>
<trkpt lat="40.0713749" lon="-105.229789">
  <ele>1583.0</ele>
  <time>2026-08-28T17:56:22Z</time>
  <course>0.0</course>
  <speed>0.0</speed>
  <fix>3d</fix>
</trkpt>
<trkpt lat="40.0713749" lon="-105.229789">
  <ele>1583.0</ele>
  <time>2026-08-28T17:56:22Z</time>
  <course>247.64</course>
  <speed>0.0316227766016838</speed>
  <fix>3d</fix>
</trkpt>
<trkpt lat="40.0713749" lon="-105.229789">
  <ele>1583.0</ele>
  <time>2026-08-28T17:56:22Z</time>
  <course>0.0</course>
  <speed>0.0</speed>
  <fix>3d</fix>
</trkpt>
<trkpt lat="40.0713749" lon="-105.229789">
  <ele>1583.0</ele>
  <time>2026-08-28T17:56:22Z</time>
  <course>247.63</course>
  <speed>0.0316227766016838</speed>
  <fix>3d</fix>
</trkpt>
<trkpt lat="40.0713749" lon="-105.229789">
  <ele>1583.0</ele>
  <time>2026-08-28T17:56:22Z</time>
  <course>0.0</course>
  <speed>0.0</speed>
  <fix>3d</fix>
</trkpt>
<trkpt lat="40.0713749" lon="-105.229789">
  <ele>1583.0</ele>
  <time>2026-08-28T17:56:22Z</time>
  <course>247.63</course>
  <speed>0.0316227766016838</speed>
  <fix>3d</fix>
</trkpt>
<trkpt lat="40.0713749" lon="-105.229789">
  <ele>1583.0</ele>
  <time>2026-08-28T17:56:22Z</time>
  <course>0.0</course>
  <speed>0.0</speed>
  <fix>3d</fix>
</trkpt>
<trkpt lat="40.0713749" lon="-105.229789">
  <ele>1583.0</ele>
  <time>2026-08-28T17:56:22Z</time>
  <course>247.63</course>
  <speed>0.0316227766016838</speed>
  <fix>3d</fix>
</trkpt>
<trkpt lat="40.0713749" lon="-105.229789">
  <ele>1583.0</ele>
  <time>2026-08-28T17:56:22Z</time>
  <course>0.0</course>
  <speed>0.0</speed>
  <fix>3d</fix>
</trkpt>
<trkpt lat="40.0713749" lon="-105.229789">
  <ele>1583.0</ele>
  <time>2026-08-28T17:56:22Z</time>
  <course>247.62</course>
  <speed>0.0316227766016838</speed>
  <fix>3d</fix>
</trkpt>
<trkpt lat="40.0713749" lon="-105.229789">
  <ele>1583.0</ele>
  <time>2026-08-28T17:56:22Z</time>
  <course>0.0</course>
  <speed>0.0</speed>
  <fix>3d</fix>
</trkpt>
<trkpt lat="40.0713749" lon="-105.229789">
  <ele>1583.0</ele>
  <time>2026-08-28T17:56:22Z</time>
  <course>247.62</course>
  <speed>0.0316227766016838</speed>
  <fix>3d</fix>
</trkpt>
<trkpt lat="40.0713749" lon="-105.229789">
  <ele>1583.0</ele>
  <time>2026-08-28T17:56:22Z</time>
  <course>0.0</course>
  <speed>0.0</speed>
  <fix>3d</fix>
</trkpt>
<trkpt lat="40.0713749" lon="-105.229789">
  <ele>1583.0</ele>
  <time>2026-08-28T17:56:22Z</time>
  <course>247.62</course>
  <speed>0.0316227766016838</speed>
  <fix>3d</fix>
</trkpt>
<trkpt lat="40.0713749" lon="-105.229789">
  <ele>1583.0</ele>
  <time>2026-08-28T17:56:22Z</time>
  <course>0.0</course>
  <speed>0.0</speed>
  <fix>3d</fix>
</trkpt>
<trkpt lat="40.0713749" lon="-105.229789">
  <ele>1583.0</ele>
  <time>2026-08-28T17:56:22Z</time>
  <course>247.61</course>
  <speed>0.0316227766016838</speed>
  <fix>3d</fix>
</trkpt>
<trkpt lat="40.0713749" lon="-105.229789">
  <ele>1583.0</ele>
  <time>2026-08-28T17:56:22Z</time>
  <course>0.0</course>
  <speed>0.0</speed>
  <fix>3d</fix>
</trkpt>
<trkpt lat="40.0713749" lon="-105.229789">
  <ele>1583.0</ele>
  <time>2026-08-28T17:56:22Z</time>
  <course>247.61</course>
  <speed>0.0316227766016838</speed>
  <fix>3d</fix>
</trkpt>
<trkpt lat="40.0713749" lon="-105.229789">
  <ele>1583.0</ele>
  <time>2026-08-28T17:56:22Z</time>
  <course>0.0</course>
  <speed>0.0</speed>
  <fix>3d</fix>
</trkpt>
<trkpt lat="40.0713749" lon="-105.229789">
  <ele>1583.0</ele>
  <time>2026-08-28T17:56:22Z</time>
  <course>247.61</course>
  <speed>0.0316227766016838</speed>
  <fix>3d</fix>
</trkpt>
<trkpt lat="40.0713749" lon="-105.229789">
  <ele>1583.0</ele>
  <time>2026-08-28T17:56:22Z</time>
  <course>0.0</course>
  <speed>0.0</speed>
  <fix>3d</fix>
</trkpt>
<trkpt lat="40.0713749" lon="-105.229789">
  <ele>1583.0</ele>
  <time>2026-08-28T17:56:22Z</time>
  <course>247.61</course>
  <speed>0.0316227766016838</speed>
  <fix>3d</fix>
</trkpt>
<trkpt lat="40.0713749" lon="-105.229789">
  <ele>1583.0</ele>
  <time>2026-08-28T17:56:22Z</time>
  <course>0.0</course>
  <speed>0.0</speed>
  <fix>3d</fix>
</trkpt>
<trkpt lat="40.0713749" lon="-105.229789">
  <ele>1583.0</ele>
  <time>2026-08-28T17:56:22Z</time>
  <course>247.6</course>
  <speed>0.0316227766016838</speed>
  <fix>3d</fix>
</trkpt>
<trkpt lat="40.0713749" lon="-105.229789">
  <ele>1583.0</ele>
  <time>2026-08-28T17:56:22Z</time>
  <course>0.0</course>
  <speed>0.0</speed>
  <fix>3d</fix>
</trkpt>
<trkpt lat="40.0713749" lon="-105.229789">
  <ele>1583.0</ele>
  <time>2026-08-28T17:56:22Z</time>
  <course>247.6</course>
  <speed>0.0316227766016838</speed>
  <fix>3d</fix>
</trkpt>
<trkpt lat="40.0713749" lon="-105.229789">
  <ele>1583.0</ele>
  <time>2026-08-28T17:56:22Z</time>
  <course>0.0</course>
  <speed>0.0</speed>
  <fix>3d</fix>
</trkpt>
<trkpt lat="40.0713749" lon="-105.229789">
  <ele>1583.0</ele>
  <time>2026-08-28T17:56:22Z</time>
  <course>247.6</course>
  <speed>0.0316227766016838</speed>
  <fix>3d</fix>
</trkpt>
<trkpt lat="40.0713749" lon="-105.229789">
  <ele>1583.0</ele>
  <time>2026-08-28T17:56:22Z</time>
  <course>0.0</course>
  <speed>0.0</speed>
  <fix>3d</fix>
</trkpt>
<trkpt lat="40.0713749" lon="-105.229789">
  <ele>1583.0</ele>
  <time>2026-08-28T17:56:22Z</time>
  <course>247.59</course>
  <speed>0.0316227766016838</speed>
  <fix>3d</fix>
</trkpt>
<trkpt lat="40.0713749" lon="-105.229789">
  <ele>1583.0</ele>
  <time>2026-08-28T17:56:22Z</time>
  <course>0.0</course>
  <speed>0.0</speed>
  <fix>3d</fix>
</trkpt>
<trkpt lat="40.0713749" lon="-105.229789">
  <ele>1583.0</ele>
  <time>2026-08-28T17:56:22Z</time>
  <course>247.59</course>
  <speed>0.0316227766016838</speed>
  <fix>3d</fix>
</trkpt>
<trkpt lat="40.0713749" lon="-105.229789">
  <ele>1583.0</ele>
  <time>2026-08-28T17:56:22Z</time>
  <course>0.0</course>
  <speed>0.0</speed>
  <fix>3d</fix>
</trkpt>
<trkpt lat="40.0713749" lon="-105.229789">
  <ele>1583.0</ele>
  <time>2026-08-28T17:56:22Z</time>
  <course>247.59</course>
  <speed>0.0316227766016838</speed>
  <fix>3d</fix>
</trkpt>
<trkpt lat="40.0713749" lon="-105.229789">
  <ele>1583.0</ele>
  <time>2026-08-28T17:56:22Z</time>
  <course>0.0</course>
  <speed>0.0</speed>
  <fix>3d</fix>
</trkpt>
<trkpt lat="40.0713749" lon="-105.229789">
  <ele>1582.96</ele>
  <time>2026-08-28T17:56:22Z</time>
  <course>247.59</course>
  <speed>0.0</speed>
  <fix>3d</fix>
</trkpt>
<trkpt lat="40.0713749" lon="-105.229789">
  <ele>1583.0</ele>
  <time>2026-08-28T17:56:22Z</time>
  <course>0.0</course>
  <speed>0.0</speed>
  <fix>3d</fix>
</trkpt>
<trkpt lat="40.0713749" lon="-105.229789">
  <ele>1582.95</ele>
  <time>2026-08-28T17:56:22Z</time>
  <course>247.58</course>
  <speed>0.0</speed>
  <fix>3d</fix>
</trkpt>
<trkpt lat="40.0713749" lon="-105.229789">
  <ele>1583.0</ele>
  <time>2026-08-28T17:56:22Z</time>
  <course>0.0</course>
  <speed>0.0</speed>
  <fix>3d</fix>
</trkpt>
<trkpt lat="40.0713749" lon="-105.229789">
  <ele>1582.95</ele>
  <time>2026-08-28T17:56:22Z</time>
  <course>247.58</course>
  <speed>0.0</speed>
  <fix>3d</fix>
</trkpt>
<trkpt lat="40.0713749" lon="-105.229789">
  <ele>1583.0</ele>
  <time>2026-08-28T17:56:22Z</time>
  <course>0.0</course>
  <speed>0.0</speed>
  <fix>3d</fix>
</trkpt>
<trkpt lat="40.0713749" lon="-105.229789">
  <ele>1582.95</ele>
  <time>2026-08-28T17:56:22Z</time>
  <course>247.58</course>
  <speed>0.0</speed>
  <fix>3d</fix>
</trkpt>
<trkpt lat="40.0713749" lon="-105.229789">
  <ele>1583.0</ele>
  <time>2026-08-28T17:56:22Z</time>
  <course>0.0</course>
  <speed>0.0</speed>
  <fix>3d</fix>
</trkpt>
<trkpt lat="40.0713749" lon="-105.229789">
  <ele>1582.94</ele>
  <time>2026-08-28T17:56:22Z</time>
  <course>247.58</course>
  <speed>0.0</speed>
  <fix>3d</fix>
</trkpt>
<trkpt lat="40.0713749" lon="-105.229789">
  <ele>1583.0</ele>
  <time>2026-08-28T17:56:22Z</time>
  <course>0.0</course>
  <speed>0.0</speed>
  <fix>3d</fix>
</trkpt>
<trkpt lat="40.0713749" lon="-105.229789">
  <ele>1582.94</ele>
  <time>2026-08-28T17:56:22Z</time>
  <course>247.57</course>
  <speed>0.0</speed>
  <fix>3d</fix>
</trkpt>
<trkpt lat="40.0713749" lon="-105.229789">
  <ele>1583.0</ele>
  <time>2026-08-28T17:56:22Z</time>
  <course>0.0</course>
  <speed>0.0</speed>
  <fix>3d</fix>
</trkpt>
<trkpt lat="40.0713749" lon="-105.229789">
  <ele>1582.94</ele>
  <time>2026-08-28T17:56:22Z</time>
  <course>247.57</course>
  <speed>0.0</speed>
  <fix>3d</fix>
</trkpt>
<trkpt lat="40.0713749" lon="-105.229789">
  <ele>1583.0</ele>
  <time>2026-08-28T17:56:22Z</time>
  <course>0.0</course>
  <speed>0.0</speed>
  <fix>3d</fix>
</trkpt>
<trkpt lat="40.0713749" lon="-105.229789">
  <ele>1582.94</ele>
  <time>2026-08-28T17:56:22Z</time>
  <course>247.57</course>
  <speed>0.0</speed>
  <fix>3d</fix>
</trkpt>
<trkpt lat="40.0713749" lon="-105.229789">
  <ele>1583.0</ele>
  <time>2026-08-28T17:56:22Z</time>
  <course>0.0</course>
  <speed>0.0</speed>
  <fix>3d</fix>
</trkpt>
<trkpt lat="40.0713749" lon="-105.229789">
  <ele>1582.93</ele>
  <time>2026-08-28T17:56:22Z</time>
  <course>247.56</course>
  <speed>0.0</speed>
  <fix>3d</fix>
</trkpt>
<trkpt lat="40.0713749" lon="-105.229789">
  <ele>1583.0</ele>
  <time>2026-08-28T17:56:22Z</time>
  <course>0.0</course>
  <speed>0.0</speed>
  <fix>3d</fix>
</trkpt>
<trkpt lat="40.0713749" lon="-105.229789">
  <ele>1582.93</ele>
  <time>2026-08-28T17:56:22Z</time>
  <course>247.56</course>
  <speed>0.01</speed>
  <fix>3d</fix>
</trkpt>
<trkpt lat="40.0713749" lon="-105.229789">
  <ele>1583.0</ele>
  <time>2026-08-28T17:56:22Z</time>
  <course>0.0</course>
  <speed>0.0</speed>
  <fix>3d</fix>
</trkpt>
<trkpt lat="40.0713749" lon="-105.229789">
  <ele>1582.93</ele>
  <time>2026-08-28T17:56:22Z</time>
  <course>247.56</course>
  <speed>0.01</speed>
  <fix>3d</fix>
</trkpt>
<trkpt lat="40.0713749" lon="-105.229789">
  <ele>1583.0</ele>
  <time>2026-08-28T17:56:22Z</time>
  <course>0.0</course>
  <speed>0.0</speed>
  <fix>3d</fix>
</trkpt>
<trkpt lat="40.0713749" lon="-105.229789">
  <ele>1582.93</ele>
  <time>2026-08-28T17:56:22Z</time>
  <course>247.56</course>
  <speed>0.01</speed>
  <fix>3d</fix>
</trkpt>
<trkpt lat="40.0713749" lon="-105.229789">
  <ele>1583.0</ele>
  <time>2026-08-28T17:56:22Z</time>
  <course>0.0</course>
  <speed>0.0</speed>
  <fix>3d</fix>
</trkpt>
<trkpt lat="40.0713749" lon="-105.229789">
  <ele>1582.93</ele>
  <time>2026-08-28T17:56:22Z</time>
  <course>247.55</course>
  <speed>0.01</speed>
  <fix>3d</fix>
</trkpt>
<trkpt lat="40.0713749" lon="-105.229789">
  <ele>1583.0</ele>
  <time>2026-08-28T17:56:22Z</time>
  <course>0.0</course>
  <speed>0.0</speed>
  <fix>3d</fix>
</trkpt>
<trkpt lat="40.0713749" lon="-105.229789">
  <ele>1582.94</ele>
  <time>2026-08-28T17:56:22Z</time>
  <course>247.55</course>
  <speed>0.01</speed>
  <fix>3d</fix>
</trkpt>
<trkpt lat="40.0713749" lon="-105.229789">
  <ele>1583.0</ele>
  <time>2026-08-28T17:56:22Z</time>
  <course>0.0</course>
  <speed>0.0</speed>
  <fix>3d</fix>
</trkpt>
<trkpt lat="40.0713749" lon="-105.229789">
  <ele>1582.94</ele>
  <time>2026-08-28T17:56:22Z</time>
  <course>247.55</course>
  <speed>0.01</speed>
  <fix>3d</fix>
</trkpt>
<trkpt lat="40.0713749" lon="-105.229789">
  <ele>1583.0</ele>
  <time>2026-08-28T17:56:22Z</time>
  <course>0.0</course>
  <speed>0.0</speed>
  <fix>3d</fix>
</trkpt>
<trkpt lat="40.0713749" lon="-105.229789">
  <ele>1582.94</ele>
  <time>2026-08-28T17:56:22Z</time>
  <course>247.55</course>
  <speed>0.01</speed>
  <fix>3d</fix>
</trkpt>
<trkpt lat="40.0713749" lon="-105.229789">
  <ele>1583.0</ele>
  <time>2026-08-28T17:56:22Z</time>
  <course>0.0</course>
  <speed>0.0</speed>
  <fix>3d</fix>
</trkpt>
<trkpt lat="40.0713749" lon="-105.229789">
  <ele>1582.93</ele>
  <time>2026-08-28T17:56:22Z</time>
  <course>247.54</course>
  <speed>0.01</speed>
  <fix>3d</fix>
</trkpt>
<trkpt lat="40.0713749" lon="-105.229789">
  <ele>1583.0</ele>
  <time>2026-08-28T17:56:22Z</time>
  <course>0.0</course>
  <speed>0.0</speed>
  <fix>3d</fix>
</trkpt>
<trkpt lat="40.0713749" lon="-105.229789">
  <ele>1582.93</ele>
  <time>2026-08-28T17:56:22Z</time>
  <course>247.53</course>
  <speed>0.02</speed>
  <fix>3d</fix>
</trkpt>
<trkpt lat="40.0713749" lon="-105.229789">
  <ele>1583.0</ele>
  <time>2026-08-28T17:56:22Z</time>
  <course>0.0</course>
  <speed>0.0</speed>
  <fix>3d</fix>
</trkpt>
<trkpt lat="40.0713749" lon="-105.229789">
  <ele>1582.94</ele>
  <time>2026-08-28T17:56:22Z</time>
  <course>247.52</course>
  <speed>0.02</speed>
  <fix>3d</fix>
</trkpt>
<trkpt lat="40.0713749" lon="-105.229789">
  <ele>1583.0</ele>
  <time>2026-08-28T17:56:22Z</time>
  <course>0.0</course>
  <speed>0.0</speed>
  <fix>3d</fix>
</trkpt>
<trkpt lat="40.0713749" lon="-105.229789">
  <ele>1582.94</ele>
  <time>2026-08-28T17:56:22Z</time>
  <course>247.51</course>
  <speed>0.02</speed>
  <fix>3d</fix>
</trkpt>
<trkpt lat="40.0713749" lon="-105.229789">
  <ele>1583.0</ele>
  <time>2026-08-28T17:56:22Z</time>
  <course>0.0</course>
  <speed>0.0</speed>
  <fix>3d</fix>
</trkpt>
<trkpt lat="40.0713749" lon="-105.229789">
  <ele>1582.95</ele>
  <time>2026-08-28T17:56:22Z</time>
  <course>247.49</course>
  <speed>0.02</speed>
  <fix>3d</fix>
</trkpt>
<trkpt lat="40.0713749" lon="-105.229789">
  <ele>1583.0</ele>
  <time>2026-08-28T17:56:22Z</time>
  <course>0.0</course>
  <speed>0.0</speed>
  <fix>3d</fix>
</trkpt>
<trkpt lat="40.0713749" lon="-105.229789">
  <ele>1582.96</ele>
  <time>2026-08-28T17:56:22Z</time>
  <course>247.48</course>
  <speed>0.02</speed>
  <fix>3d</fix>
</trkpt>
<trkpt lat="40.0713749" lon="-105.229789">
  <ele>1583.0</ele>
  <time>2026-08-28T17:56:22Z</time>
  <course>0.0</course>
  <speed>0.0</speed>
  <fix>3d</fix>
</trkpt>
<trkpt lat="40.0713749" lon="-105.229789">
  <ele>1582.96</ele>
  <time>2026-08-28T17:56:22Z</time>
  <course>247.46</course>
  <speed>0.02</speed>
  <fix>3d</fix>
</trkpt>
<trkpt lat="40.0713749" lon="-105.229789">
  <ele>1583.0</ele>
  <time>2026-08-28T17:56:22Z</time>
  <course>0.0</course>
  <speed>0.0</speed>
  <fix>3d</fix>
</trkpt>
<trkpt lat="40.071375" lon="-105.229789">
  <ele>1582.97</ele>
  <time>2026-08-28T17:56:22Z</time>
  <course>247.44</course>
  <speed>0.02</speed>
  <fix>3d</fix>
</trkpt>
<trkpt lat="40.0713749" lon="-105.229789">
  <ele>1583.0</ele>
  <time>2026-08-28T17:56:22Z</time>
  <course>0.0</course>
  <speed>0.0</speed>
  <fix>3d</fix>
</trkpt>
<trkpt lat="40.071375" lon="-105.229789">
  <ele>1582.98</ele>
  <time>2026-08-28T17:56:22Z</time>
  <course>247.43</course>
  <speed>0.02</speed>
  <fix>3d</fix>
</trkpt>
<trkpt lat="40.0713749" lon="-105.229789">
  <ele>1583.0</ele>
  <time>2026-08-28T17:56:22Z</time>
  <course>0.0</course>
  <speed>0.0</speed>
  <fix>3d</fix>
</trkpt>
<trkpt lat="40.071375" lon="-105.229789">
  <ele>1583.0</ele>
  <time>2026-08-28T17:56:22Z</time>
  <course>247.39</course>
  <speed>0.02</speed>
  <fix>3d</fix>
</trkpt>
<trkpt lat="40.0713749" lon="-105.229789">
  <ele>1583.0</ele>
  <time>2026-08-28T17:56:22Z</time>
  <course>0.0</course>
  <speed>0.0</speed>
  <fix>3d</fix>
</trkpt>
<trkpt lat="40.071375" lon="-105.229789">
  <ele>1583.01</ele>
  <time>2026-08-28T17:56:22Z</time>
  <course>247.38</course>
  <speed>0.02</speed>
  <fix>3d</fix>
</trkpt>
<trkpt lat="40.0713749" lon="-105.229789">
  <ele>1583.0</ele>
  <time>2026-08-28T17:56:22Z</time>
  <course>0.0</course>
  <speed>0.0</speed>
  <fix>3d</fix>
</trkpt>
<trkpt lat="40.071375" lon="-105.229789">
  <ele>1583.02</ele>
  <time>2026-08-28T17:56:22Z</time>
  <course>247.37</course>
  <speed>0.02</speed>
  <fix>3d</fix>
</trkpt>
<trkpt lat="40.0713749" lon="-105.229789">
  <ele>1583.0</ele>
  <time>2026-08-28T17:56:22Z</time>
  <course>0.0</course>
  <speed>0.0</speed>
  <fix>3d</fix>
</trkpt>
<trkpt lat="40.071375" lon="-105.229789">
  <ele>1583.03</ele>
  <time>2026-08-28T17:56:22Z</time>
  <course>247.36</course>
  <speed>0.02</speed>
  <fix>3d</fix>
</trkpt>
<trkpt lat="40.0713749" lon="-105.229789">
  <ele>1583.0</ele>
  <time>2026-08-28T17:56:22Z</time>
  <course>0.0</course>
  <speed>0.0</speed>
  <fix>3d</fix>
</trkpt>
<trkpt lat="40.071375" lon="-105.229789">
  <ele>1583.05</ele>
  <time>2026-08-28T17:56:22Z</time>
  <course>247.35</course>
  <speed>0.02</speed>
  <fix>3d</fix>
</trkpt>
<trkpt lat="40.0713749" lon="-105.229789">
  <ele>1583.0</ele>
  <time>2026-08-28T17:56:22Z</time>
  <course>0.0</course>
  <speed>0.0</speed>
  <fix>3d</fix>
</trkpt>
<trkpt lat="40.071375" lon="-105.229789">
  <ele>1583.06</ele>
  <time>2026-08-28T17:56:22Z</time>
  <course>247.34</course>
  <speed>0.01</speed>
  <fix>3d</fix>
</trkpt>
<trkpt lat="40.0713749" lon="-105.229789">
  <ele>1583.0</ele>
  <time>2026-08-28T17:56:22Z</time>
  <course>0.0</course>
  <speed>0.0</speed>
  <fix>3d</fix>
</trkpt>
<trkpt lat="40.071375" lon="-105.229789">
  <ele>1583.06</ele>
  <time>2026-08-28T17:56:22Z</time>
  <course>247.34</course>
  <speed>0.01</speed>
  <fix>3d</fix>
</trkpt>
<trkpt lat="40.0713749" lon="-105.229789">
  <ele>1583.0</ele>
  <time>2026-08-28T17:56:22Z</time>
  <course>0.0</course>
  <speed>0.0</speed>
  <fix>3d</fix>
</trkpt>
<trkpt lat="40.071375" lon="-105.229789">
  <ele>1583.07</ele>
  <time>2026-08-28T17:56:22Z</time>
  <course>247.33</course>
  <speed>0.01</speed>
  <fix>3d</fix>
</trkpt>
<trkpt lat="40.0713749" lon="-105.229789">
  <ele>1583.0</ele>
  <time>2026-08-28T17:56:22Z</time>
  <course>0.0</course>
  <speed>0.0</speed>
  <fix>3d</fix>
</trkpt>
<trkpt lat="40.071375" lon="-105.229789">
  <ele>1583.07</ele>
  <time>2026-08-28T17:56:22Z</time>
  <course>247.33</course>
  <speed>0.01</speed>
  <fix>3d</fix>
</trkpt>
<trkpt lat="40.0713749" lon="-105.229789">
  <ele>1583.0</ele>
  <time>2026-08-28T17:56:22Z</time>
  <course>0.0</course>
  <speed>0.0</speed>
  <fix>3d</fix>
</trkpt>
<trkpt lat="40.0713749" lon="-105.229789">
  <ele>1583.08</ele>
  <time>2026-08-28T17:56:22Z</time>
  <course>247.32</course>
  <speed>0.01</speed>
  <fix>3d</fix>
</trkpt>
<trkpt lat="40.0713749" lon="-105.229789">
  <ele>1583.0</ele>
  <time>2026-08-28T17:56:22Z</time>
  <course>0.0</course>
  <speed>0.0</speed>
  <fix>3d</fix>
</trkpt>
<trkpt lat="40.0713749" lon="-105.229789">
  <ele>1583.08</ele>
  <time>2026-08-28T17:56:22Z</time>
  <course>247.32</course>
  <speed>0.01</speed>
  <fix>3d</fix>
</trkpt>
<trkpt lat="40.0713749" lon="-105.229789">
  <ele>1583.0</ele>
  <time>2026-08-28T17:56:22Z</time>
  <course>0.0</course>
  <speed>0.0</speed>
  <fix>3d</fix>
</trkpt>
<trkpt lat="40.0713749" lon="-105.229789">
  <ele>1583.09</ele>
  <time>2026-08-28T17:56:22Z</time>
  <course>247.32</course>
  <speed>0.0</speed>
  <fix>3d</fix>
</trkpt>
<trkpt lat="40.0713749" lon="-105.229789">
  <ele>1583.0</ele>
  <time>2026-08-28T17:56:22Z</time>
  <course>0.0</course>
  <speed>0.0</speed>
  <fix>3d</fix>
</trkpt>
<trkpt lat="40.0713749" lon="-105.229789">
  <ele>1583.09</ele>
  <time>2026-08-28T17:56:22Z</time>
  <course>247.32</course>
  <speed>0.0</speed>
  <fix>3d</fix>
</trkpt>
<trkpt lat="40.0713749" lon="-105.229789">
  <ele>1583.0</ele>
  <time>2026-08-28T17:56:22Z</time>
  <course>0.0</course>
  <speed>0.0</speed>
  <fix>3d</fix>
</trkpt>
<trkpt lat="40.0713749" lon="-105.229789">
  <ele>1583.1</ele>
  <time>2026-08-28T17:56:22Z</time>
  <course>247.32</course>
  <speed>0.0</speed>
  <fix>3d</fix>
</trkpt>
<trkpt lat="40.0713749" lon="-105.229789">
  <ele>1583.0</ele>
  <time>2026-08-28T17:56:22Z</time>
  <course>0.0</course>
  <speed>0.0</speed>
  <fix>3d</fix>
</trkpt>
<trkpt lat="40.0713749" lon="-105.229789">
  <ele>1583.1</ele>
  <time>2026-08-28T17:56:22Z</time>
  <course>247.32</course>
  <speed>0.0</speed>
  <fix>3d</fix>
</trkpt>
<trkpt lat="40.0713749" lon="-105.229789">
  <ele>1583.0</ele>
  <time>2026-08-28T17:56:22Z</time>
  <course>0.0</course>
  <speed>0.0</speed>
  <fix>3d</fix>
</trkpt>
<trkpt lat="40.0713749" lon="-105.229789">
  <ele>1583.11</ele>
  <time>2026-08-28T17:56:22Z</time>
  <course>247.32</course>
  <speed>0.0</speed>
  <fix>3d</fix>
</trkpt>
<trkpt lat="40.0713749" lon="-105.229789">
  <ele>1583.0</ele>
  <time>2026-08-28T17:56:22Z</time>
  <course>0.0</course>
  <speed>0.0</speed>
  <fix>3d</fix>
</trkpt>
<trkpt lat="40.0713749" lon="-105.229789">
  <ele>1583.11</ele>
  <time>2026-08-28T17:56:22Z</time>
  <course>247.32</course>
  <speed>0.0</speed>
  <fix>3d</fix>
</trkpt>
<trkpt lat="40.0713749" lon="-105.229789">
  <ele>1583.0</ele>
  <time>2026-08-28T17:56:22Z</time>
  <course>0.0</course>
  <speed>0.0</speed>
  <fix>3d</fix>
</trkpt>
<trkpt lat="40.0713749" lon="-105.229789">
  <ele>1583.11</ele>
  <time>2026-08-28T17:56:22Z</time>
  <course>247.33</course>
  <speed>0.0</speed>
  <fix>3d</fix>
</trkpt>
<trkpt lat="40.0713749" lon="-105.229789">
  <ele>1583.0</ele>
  <time>2026-08-28T17:56:22Z</time>
  <course>0.0</course>
  <speed>0.0</speed>
  <fix>3d</fix>
</trkpt>
<trkpt lat="40.0713749" lon="-105.229789">
  <ele>1583.12</ele>
  <time>2026-08-28T17:56:22Z</time>
  <course>247.33</course>
  <speed>0.0</speed>
  <fix>3d</fix>
</trkpt>
<trkpt lat="40.0713749" lon="-105.229789">
  <ele>1583.0</ele>
  <time>2026-08-28T17:56:22Z</time>
  <course>0.0</course>
  <speed>0.0</speed>
  <fix>3d</fix>
</trkpt>
<trkpt lat="40.0713749" lon="-105.229789">
  <ele>1583.12</ele>
  <time>2026-08-28T17:56:22Z</time>
  <course>247.33</course>
  <speed>0.0</speed>
  <fix>3d</fix>
</trkpt>
<trkpt lat="40.0713749" lon="-105.229789">
  <ele>1583.0</ele>
  <time>2026-08-28T17:56:22Z</time>
  <course>0.0</course>
  <speed>0.0</speed>
  <fix>3d</fix>
</trkpt>
<trkpt lat="40.0713749" lon="-105.229789">
  <ele>1583.12</ele>
  <time>2026-08-28T17:56:22Z</time>
  <course>247.34</course>
  <speed>0.0</speed>
  <fix>3d</fix>
</trkpt>
<trkpt lat="40.0713749" lon="-105.229789">
  <ele>1583.0</ele>
  <time>2026-08-28T17:56:22Z</time>
  <course>0.0</course>
  <speed>0.0</speed>
  <fix>3d</fix>
</trkpt>
<trkpt lat="40.0713749" lon="-105.229789">
  <ele>1583.13</ele>
  <time>2026-08-28T17:56:22Z</time>
  <course>247.34</course>
  <speed>0.0</speed>
  <fix>3d</fix>
</trkpt>
<trkpt lat="40.0713749" lon="-105.229789">
  <ele>1583.0</ele>
  <time>2026-08-28T17:56:22Z</time>
  <course>0.0</course>
  <speed>0.0</speed>
  <fix>3d</fix>
</trkpt>
<trkpt lat="40.0713749" lon="-105.229789">
  <ele>1583.13</ele>
  <time>2026-08-28T17:56:22Z</time>
  <course>247.34</course>
  <speed>0.0</speed>
  <fix>3d</fix>
</trkpt>
<trkpt lat="40.0713749" lon="-105.229789">
  <ele>1583.0</ele>
  <time>2026-08-28T17:56:22Z</time>
  <course>0.0</course>
  <speed>0.0</speed>
  <fix>3d</fix>
</trkpt>
<trkpt lat="40.0713749" lon="-105.229789">
  <ele>1583.13</ele>
  <time>2026-08-28T17:56:22Z</time>
  <course>247.35</course>
  <speed>0.0</speed>
  <fix>3d</fix>
</trkpt>
<trkpt lat="40.0713749" lon="-105.229789">
  <ele>1583.0</ele>
  <time>2026-08-28T17:56:22Z</time>
  <course>0.0</course>
  <speed>0.0</speed>
  <fix>3d</fix>
</trkpt>
<trkpt lat="40.0713749" lon="-105.229789">
  <ele>1583.13</ele>
  <time>2026-08-28T17:56:22Z</time>
  <course>247.35</course>
  <speed>0.0</speed>
  <fix>3d</fix>
</trkpt>
<trkpt lat="40.0713749" lon="-105.229789">
  <ele>1583.0</ele>
  <time>2026-08-28T17:56:22Z</time>
  <course>0.0</course>
  <speed>0.0</speed>
  <fix>3d</fix>
</trkpt>
<trkpt lat="40.0713749" lon="-105.229789">
  <ele>1583.12</ele>
  <time>2026-08-28T17:56:22Z</time>
  <course>247.35</course>
  <speed>0.022360679774997897</speed>
  <fix>3d</fix>
</trkpt>
<trkpt lat="40.0713749" lon="-105.229789">
  <ele>1583.0</ele>
  <time>2026-08-28T17:56:22Z</time>
  <course>245.88</course>
  <speed>0.0</speed>
  <fix>3d</fix>
</trkpt>
<trkpt lat="40.0713749" lon="-105.229789">
  <ele>1583.12</ele>
  <time>2026-08-28T17:56:22Z</time>
  <course>247.34</course>
  <speed>0.044721359549995794</speed>
  <fix>3d</fix>
</trkpt>
<trkpt lat="40.0713749" lon="-105.229789">
  <ele>1583.0</ele>
  <time>2026-08-28T17:56:22Z</time>
  <course>245.88</course>
  <speed>0.0</speed>
  <fix>3d</fix>
</trkpt>
<trkpt lat="40.0713749" lon="-105.2297891">
  <ele>1583.12</ele>
  <time>2026-08-28T17:56:22Z</time>
  <course>247.31</course>
  <speed>0.07615773105863909</speed>
  <fix>3d</fix>
</trkpt>
<trkpt lat="40.0713749" lon="-105.229789">
  <ele>1583.0</ele>
  <time>2026-08-28T17:56:22Z</time>
  <course>245.87</course>
  <speed>0.03</speed>
  <fix>3d</fix>
</trkpt>
<trkpt lat="40.0713749" lon="-105.2297892">
  <ele>1583.12</ele>
  <time>2026-08-28T17:56:22Z</time>
  <course>247.26</course>
  <speed>0.10770329614269007</speed>
  <fix>3d</fix>
</trkpt>
<trkpt lat="40.0713749" lon="-105.229789">
  <ele>1583.0</ele>
  <time>2026-08-28T17:56:22Z</time>
  <course>245.87</course>
  <speed>0.03</speed>
  <fix>3d</fix>
</trkpt>
<trkpt lat="40.0713748" lon="-105.2297894">
  <ele>1583.12</ele>
  <time>2026-08-28T17:56:22Z</time>
  <course>247.17</course>
  <speed>0.15231546211727817</speed>
  <fix>3d</fix>
</trkpt>
<trkpt lat="40.0713749" lon="-105.2297891">
  <ele>1583.0</ele>
  <time>2026-08-28T17:56:22Z</time>
  <course>245.8</course>
  <speed>0.09</speed>
  <fix>3d</fix>
</trkpt>
<trkpt lat="40.0713747" lon="-105.2297896">
  <ele>1583.12</ele>
  <time>2026-08-28T17:56:22Z</time>
  <course>247.03</course>
  <speed>0.20615528128088303</speed>
  <fix>3d</fix>
</trkpt>
<trkpt lat="40.0713749" lon="-105.2297891">
  <ele>1583.0</ele>
  <time>2026-08-28T17:56:22Z</time>
  <course>245.8</course>
  <speed>0.09</speed>
  <fix>3d</fix>
</trkpt>
<trkpt lat="40.0713747" lon="-105.2297898">
  <ele>1583.12</ele>
  <time>2026-08-28T17:56:22Z</time>
  <course>246.82</course>
  <speed>0.26</speed>
  <fix>3d</fix>
</trkpt>
<trkpt lat="40.0713748" lon="-105.2297893">
  <ele>1583.0</ele>
  <time>2026-08-28T17:56:22Z</time>
  <course>245.6</course>
  <speed>0.17</speed>
  <fix>3d</fix>
</trkpt>
<trkpt lat="40.0713745" lon="-105.2297901">
  <ele>1583.13</ele>
  <time>2026-08-28T17:56:22Z</time>
  <course>246.54</course>
  <speed>0.32695565448543634</speed>
  <fix>3d</fix>
</trkpt>
<trkpt lat="40.0713748" lon="-105.2297893">
  <ele>1583.0</ele>
  <time>2026-08-28T17:56:22Z</time>
  <course>245.6</course>
  <speed>0.17</speed>
  <fix>3d</fix>
</trkpt>
<trkpt lat="40.0713744" lon="-105.2297905">
  <ele>1583.13</ele>
  <time>2026-08-28T17:56:22Z</time>
  <course>246.16</course>
  <speed>0.40311288741492746</speed>
  <fix>3d</fix>
</trkpt>
<trkpt lat="40.0713747" lon="-105.2297898">
  <ele>1583.0</ele>
  <time>2026-08-28T17:56:22Z</time>
  <course>245.19</course>
  <speed>0.28</speed>
  <fix>3d</fix>
</trkpt>
<trkpt lat="40.0713742" lon="-105.229791">
  <ele>1583.13</ele>
  <time>2026-08-28T17:56:22Z</time>
  <course>245.68</course>
  <speed>0.4833218389437829</speed>
  <fix>3d</fix>
</trkpt>
<trkpt lat="40.0713747" lon="-105.2297898">
  <ele>1583.0</ele>
  <time>2026-08-28T17:56:22Z</time>
  <course>245.19</course>
  <speed>0.28</speed>
  <fix>3d</fix>
</trkpt>
<trkpt lat="40.071374" lon="-105.2297916">
  <ele>1583.14</ele>
  <time>2026-08-28T17:56:22Z</time>
  <course>245.11</course>
  <speed>0.5727128425310541</speed>
  <fix>3d</fix>
</trkpt>
<trkpt lat="40.0713744" lon="-105.2297906">
  <ele>1583.0</ele>
  <time>2026-08-28T17:56:22Z</time>
  <course>244.45</course>
  <speed>0.43</speed>
  <fix>3d</fix>
</trkpt>
<trkpt lat="40.0713738" lon="-105.2297921">
  <ele>1583.14</ele>
  <time>2026-08-28T17:56:22Z</time>
  <course>244.6</course>
  <speed>0.6530696746902278</speed>
  <fix>3d</fix>
</trkpt>
<trkpt lat="40.0713744" lon="-105.2297906">
  <ele>1583.0</ele>
  <time>2026-08-28T17:56:22Z</time>
  <course>244.45</course>
  <speed>0.43</speed>
  <fix>3d</fix>
</trkpt>
<trkpt lat="40.0713736" lon="-105.2297929">
  <ele>1583.15</ele>
  <time>2026-08-28T17:56:22Z</time>
  <course>243.91</course>
  <speed>0.7602631123499285</speed>
  <fix>3d</fix>
</trkpt>
<trkpt lat="40.071374" lon="-105.2297917">
  <ele>1583.0</ele>
  <time>2026-08-28T17:56:22Z</time>
  <course>243.37</course>
  <speed>0.6</speed>
  <fix>3d</fix>
</trkpt>
<trkpt lat="40.0713732" lon="-105.2297938">
  <ele>1583.15</ele>
  <time>2026-08-28T17:56:22Z</time>
  <course>243.2</course>
  <speed>0.8631338250816034</speed>
  <fix>3d</fix>
</trkpt>
<trkpt lat="40.071374" lon="-105.2297917">
  <ele>1583.0</ele>
  <time>2026-08-28T17:56:22Z</time>
  <course>243.37</course>
  <speed>0.6</speed>
  <fix>3d</fix>
</trkpt>
<trkpt lat="40.0713728" lon="-105.2297948">
  <ele>1583.15</ele>
  <time>2026-08-28T17:56:22Z</time>
  <course>242.48</course>
  <speed>0.9706183596038146</speed>
  <fix>3d</fix>
</trkpt>
<trkpt lat="40.0713734" lon="-105.2297932">
  <ele>1583.0</ele>
  <time>2026-08-28T17:56:22Z</time>
  <course>242.04</course>
  <speed>0.8</speed>
  <fix>3d</fix>
</trkpt>
<trkpt lat="40.0713724" lon="-105.2297959">
  <ele>1583.15</ele>
  <time>2026-08-28T17:56:22Z</time>
  <course>241.8</course>
  <speed>1.0694391053257777</speed>
  <fix>3d</fix>
</trkpt>
<trkpt lat="40.0713734" lon="-105.2297932">
  <ele>1583.0</ele>
  <time>2026-08-28T17:56:22Z</time>
  <course>242.04</course>
  <speed>0.8</speed>
  <fix>3d</fix>
</trkpt>
<trkpt lat="40.0713718" lon="-105.229797">
  <ele>1583.16</ele>
  <time>2026-08-28T17:56:22Z</time>
  <course>241.22</course>
  <speed>1.1772000679578642</speed>
  <fix>3d</fix>
</trkpt>
<trkpt lat="40.0713726" lon="-105.229795">
  <ele>1583.0</ele>
  <time>2026-08-28T17:56:22Z</time>
  <course>240.67</course>
  <speed>1.01</speed>
  <fix>3d</fix>
</trkpt>
<trkpt lat="40.0713713" lon="-105.2297983">
  <ele>1583.16</ele>
  <time>2026-08-28T17:56:22Z</time>
  <course>240.77</course>
  <speed>1.2763228431709588</speed>
  <fix>3d</fix>
</trkpt>
<trkpt lat="40.0713726" lon="-105.229795">
  <ele>1583.0</ele>
  <time>2026-08-28T17:56:22Z</time>
  <course>240.67</course>
  <speed>1.01</speed>
  <fix>3d</fix>
</trkpt>
<trkpt lat="40.0713706" lon="-105.2297997">
  <ele>1583.16</ele>
  <time>2026-08-28T17:56:22Z</time>
  <course>240.4</course>
  <speed>1.3755726080436466</speed>
  <fix>3d</fix>
</trkpt>
<trkpt lat="40.0713716" lon="-105.2297973">
  <ele>1583.0</ele>
  <time>2026-08-28T17:56:22Z</time>
  <course>239.56</course>
  <speed>1.21</speed>
  <fix>3d</fix>
</trkpt>
<trkpt lat="40.07137" lon="-105.2298012">
  <ele>1583.17</ele>
  <time>2026-08-28T17:56:22Z</time>
  <course>240.1</course>
  <speed>1.469863939281456</speed>
  <fix>3d</fix>
</trkpt>
<trkpt lat="40.0713716" lon="-105.2297973">
  <ele>1583.0</ele>
  <time>2026-08-28T17:56:22Z</time>
  <course>239.56</course>
  <speed>1.21</speed>
  <fix>3d</fix>
</trkpt>
<trkpt lat="40.0713692" lon="-105.2298027">
  <ele>1583.17</ele>
  <time>2026-08-28T17:56:22Z</time>
  <course>239.86</course>
  <speed>1.5606408939919525</speed>
  <fix>3d</fix>
</trkpt>
<trkpt lat="40.0713704" lon="-105.2298">
  <ele>1583.0</ele>
  <time>2026-08-28T17:56:22Z</time>
  <course>238.81</course>
  <speed>1.4</speed>
  <fix>3d</fix>
</trkpt>
<trkpt lat="40.0713683" lon="-105.2298047">
  <ele>1583.17</ele>
  <time>2026-08-28T17:56:22Z</time>
  <course>239.62</course>
  <speed>1.6686821147240718</speed>
  <fix>3d</fix>
</trkpt>
<trkpt lat="40.0713704" lon="-105.2298">
  <ele>1583.0</ele>
  <time>2026-08-28T17:56:22Z</time>
  <course>238.81</course>
  <speed>1.4</speed>
  <fix>3d</fix>
</trkpt>
<trkpt lat="40.0713675" lon="-105.2298065">
  <ele>1583.17</ele>
  <time>2026-08-28T17:56:22Z</time>
  <course>239.45</course>
  <speed>1.7630087918101827</speed>
  <fix>3d</fix>
</trkpt>
<trkpt lat="40.071369" lon="-105.229803">
  <ele>1583.0</ele>
  <time>2026-08-28T17:56:22Z</time>
  <course>238.33</course>
  <speed>1.59</speed>
  <fix>3d</fix>
</trkpt>
<trkpt lat="40.0713666" lon="-105.2298083">
  <ele>1583.17</ele>
  <time>2026-08-28T17:56:22Z</time>
  <course>239.32</course>
  <speed>1.8487833837418595</speed>
  <fix>3d</fix>
</trkpt>
<trkpt lat="40.071369" lon="-105.229803">
  <ele>1583.0</ele>
  <time>2026-08-28T17:56:22Z</time>
  <course>238.33</course>
  <speed>1.59</speed>
  <fix>3d</fix>
</trkpt>
<trkpt lat="40.0713657" lon="-105.2298102">
  <ele>1583.18</ele>
  <time>2026-08-28T17:56:22Z</time>
  <course>239.2</course>
  <speed>1.9431160541768986</speed>
  <fix>3d</fix>
</trkpt>
<trkpt lat="40.0713674" lon="-105.2298063">
  <ele>1583.0</ele>
  <time>2026-08-28T17:56:22Z</time>
  <course>238.01</course>
  <speed>1.77</speed>
  <fix>3d</fix>
</trkpt>
<trkpt lat="40.0713647" lon="-105.2298122">
  <ele>1583.18</ele>
  <time>2026-08-28T17:56:22Z</time>
  <course>239.11</course>
  <speed>2.0289159667172023</speed>
  <fix>3d</fix>
</trkpt>
<trkpt lat="40.0713674" lon="-105.2298063">
  <ele>1583.0</ele>
  <time>2026-08-28T17:56:22Z</time>
  <course>238.01</course>
  <speed>1.77</speed>
  <fix>3d</fix>
</trkpt>
<trkpt lat="40.0713637" lon="-105.2298143">
  <ele>1583.19</ele>
  <time>2026-08-28T17:56:22Z</time>
  <course>239.03</course>
  <speed>2.114734025829253</speed>
  <fix>3d</fix>
</trkpt>
<trkpt lat="40.0713656" lon="-105.22981">
  <ele>1583.0</ele>
  <time>2026-08-28T17:56:22Z</time>
  <course>237.8</course>
  <speed>1.94</speed>
  <fix>3d</fix>
</trkpt>
<trkpt lat="40.0713627" lon="-105.2298165">
  <ele>1583.19</ele>
  <time>2026-08-28T17:56:22Z</time>
  <course>238.97</course>
  <speed>2.195313189501671</speed>
  <fix>3d</fix>
</trkpt>
<trkpt lat="40.0713656" lon="-105.22981">
  <ele>1583.0</ele>
  <time>2026-08-28T17:56:22Z</time>
  <course>237.8</course>
  <speed>1.94</speed>
  <fix>3d</fix>
</trkpt>
<trkpt lat="40.0713616" lon="-105.2298187">
  <ele>1583.19</ele>
  <time>2026-08-28T17:56:22Z</time>
  <course>238.92</course>
  <speed>2.2896506283710623</speed>
  <fix>3d</fix>
</trkpt>
<trkpt lat="40.0713637" lon="-105.2298141">
  <ele>1583.0</ele>
  <time>2026-08-28T17:56:22Z</time>
  <course>237.67</course>
  <speed>2.11</speed>
  <fix>3d</fix>
</trkpt>
<trkpt lat="40.0713605" lon="-105.229821">
  <ele>1583.19</ele>
  <time>2026-08-28T17:56:22Z</time>
  <course>238.88</course>
  <speed>2.375478899085403</speed>
  <fix>3d</fix>
</trkpt>
<trkpt lat="40.0713637" lon="-105.2298141">
  <ele>1583.0</ele>
  <time>2026-08-28T17:56:22Z</time>
  <course>237.67</course>
  <speed>2.11</speed>
  <fix>3d</fix>
</trkpt>
<trkpt lat="40.0713593" lon="-105.2298234">
  <ele>1583.19</ele>
  <time>2026-08-28T17:56:22Z</time>
  <course>238.86</course>
  <speed>2.4613207836444237</speed>
  <fix>3d</fix>
</trkpt>
<trkpt lat="40.0713616" lon="-105.2298184">
  <ele>1583.0</ele>
  <time>2026-08-28T17:56:22Z</time>
  <course>237.59</course>
  <speed>2.29</speed>
  <fix>3d</fix>
</trkpt>
<trkpt lat="40.0713582" lon="-105.2298259">
  <ele>1583.18</ele>
  <time>2026-08-28T17:56:22Z</time>
  <course>238.85</course>
  <speed>2.5503921267130667</speed>
  <fix>3d</fix>
</trkpt>
<trkpt lat="40.0713616" lon="-105.2298184">
  <ele>1583.0</ele>
  <time>2026-08-28T17:56:22Z</time>
  <course>237.59</course>
  <speed>2.29</speed>
  <fix>3d</fix>
</trkpt>
<trkpt lat="40.0713572" lon="-105.229828">
  <ele>1583.18</ele>
  <time>2026-08-28T17:56:22Z</time>
  <course>238.85</course>
  <speed>2.6224606765402605</speed>
  <fix>3d</fix>
</trkpt>
<trkpt lat="40.0713593" lon="-105.2298232">
  <ele>1583.0</ele>
  <time>2026-08-28T17:56:22Z</time>
  <course>237.56</course>
  <speed>2.47</speed>
  <fix>3d</fix>
</trkpt>
<trkpt lat="40.0713559" lon="-105.2298306">
  <ele>1583.18</ele>
  <time>2026-08-28T17:56:22Z</time>
  <course>238.85</course>
  <speed>2.716799587750263</speed>
  <fix>3d</fix>
</trkpt>
<trkpt lat="40.0713593" lon="-105.2298232">
  <ele>1583.0</ele>
  <time>2026-08-28T17:56:22Z</time>
  <course>237.56</course>
  <speed>2.47</speed>
  <fix>3d</fix>
</trkpt>
<trkpt lat="40.0713545" lon="-105.2298334">
  <ele>1583.18</ele>
  <time>2026-08-28T17:56:22Z</time>
  <course>238.85</course>
  <speed>2.811138559374119</speed>
  <fix>3d</fix>
</trkpt>
<trkpt lat="40.0713568" lon="-105.2298283">
  <ele>1583.0</ele>
  <time>2026-08-28T17:56:22Z</time>
  <course>237.55</course>
  <speed>2.65</speed>
  <fix>3d</fix>
</trkpt>
<trkpt lat="40.0713532" lon="-105.2298362">
  <ele>1583.18</ele>
  <time>2026-08-28T17:56:22Z</time>
  <course>238.86</course>
  <speed>2.9054775855270334</speed>
  <fix>3d</fix>
</trkpt>
<trkpt lat="40.0713568" lon="-105.2298283">
  <ele>1583.0</ele>
  <time>2026-08-28T17:56:22Z</time>
  <course>237.55</course>
  <speed>2.65</speed>
  <fix>3d</fix>
</trkpt>
<trkpt lat="40.0713517" lon="-105.2298392">
  <ele>1583.18</ele>
  <time>2026-08-28T17:56:22Z</time>
  <course>238.87</course>
  <speed>2.9860509037858014</speed>
  <fix>3d</fix>
</trkpt>
<trkpt lat="40.0713542" lon="-105.2298337">
  <ele>1583.0</ele>
  <time>2026-08-28T17:56:22Z</time>
  <course>237.55</course>
  <speed>2.83</speed>
  <fix>3d</fix>
</trkpt>
<trkpt lat="40.0713503" lon="-105.2298422">
  <ele>1583.18</ele>
  <time>2026-08-28T17:56:22Z</time>
  <course>238.88</course>
  <speed>3.0803895857504777</speed>
  <fix>3d</fix>
</trkpt>
<trkpt lat="40.0713542" lon="-105.2298337">
  <ele>1583.0</ele>
  <time>2026-08-28T17:56:22Z</time>
  <course>237.55</course>
  <speed>2.83</speed>
  <fix>3d</fix>
</trkpt>
<trkpt lat="40.0713487" lon="-105.2298454">
  <ele>1583.18</ele>
  <time>2026-08-28T17:56:22Z</time>
  <course>238.89</course>
  <speed>3.1747283348343363</speed>
  <fix>3d</fix>
</trkpt>
<trkpt lat="40.0713513" lon="-105.2298395">
  <ele>1583.0</ele>
  <time>2026-08-28T17:56:22Z</time>
  <course>237.55</course>
  <speed>3.01</speed>
  <fix>3d</fix>
</trkpt>
<trkpt lat="40.0713472" lon="-105.2298486">
  <ele>1583.19</ele>
  <time>2026-08-28T17:56:22Z</time>
  <course>238.89</course>
  <speed>3.2690671452266016</speed>
  <fix>3d</fix>
</trkpt>
<trkpt lat="40.0713513" lon="-105.2298395">
  <ele>1583.0</ele>
  <time>2026-08-28T17:56:22Z</time>
  <course>237.55</course>
  <speed>3.01</speed>
  <fix>3d</fix>
</trkpt>
<trkpt lat="40.0713456" lon="-105.2298519">
  <ele>1583.19</ele>
  <time>2026-08-28T17:56:22Z</time>
  <course>238.89</course>
  <speed>3.3581542549442247</speed>
  <fix>3d</fix>
</trkpt>
<trkpt lat="40.0713483" lon="-105.2298457">
  <ele>1583.0</ele>
  <time>2026-08-28T17:56:22Z</time>
  <course>237.55</course>
  <speed>3.19</speed>
  <fix>3d</fix>
</trkpt>
<trkpt lat="40.0713439" lon="-105.2298553">
  <ele>1583.2</ele>
  <time>2026-08-28T17:56:22Z</time>
  <course>238.89</course>
  <speed>3.443980255460243</speed>
  <fix>3d</fix>
</trkpt>
<trkpt lat="40.0713483" lon="-105.2298457">
  <ele>1583.0</ele>
  <time>2026-08-28T17:56:22Z</time>
  <course>237.55</course>
  <speed>3.19</speed>
  <fix>3d</fix>
</trkpt>
<trkpt lat="40.0713419" lon="-105.2298596">
  <ele>1583.2</ele>
  <time>2026-08-28T17:56:22Z</time>
  <course>238.87</course>
  <speed>3.560589838776716</speed>
  <fix>3d</fix>
</trkpt>
<trkpt lat="40.0713451" lon="-105.2298522">
  <ele>1583.0</ele>
  <time>2026-08-28T17:56:22Z</time>
  <course>237.55</course>
  <speed>3.37</speed>
  <fix>3d</fix>
</trkpt>
<trkpt lat="40.0713402" lon="-105.2298631">
  <ele>1583.2</ele>
  <time>2026-08-28T17:56:22Z</time>
  <course>238.85</course>
  <speed>3.6549281798689286</speed>
  <fix>3d</fix>
</trkpt>
<trkpt lat="40.0713451" lon="-105.2298522">
  <ele>1583.0</ele>
  <time>2026-08-28T17:56:22Z</time>
  <course>237.55</course>
  <speed>3.37</speed>
  <fix>3d</fix>
</trkpt>
<trkpt lat="40.0713384" lon="-105.2298669">
  <ele>1583.2</ele>
  <time>2026-08-28T17:56:22Z</time>
  <course>238.83</course>
  <speed>3.740761954468635</speed>
  <fix>3d</fix>
</trkpt>
<trkpt lat="40.0713419" lon="-105.229859">
  <ele>1583.0</ele>
  <time>2026-08-28T17:56:22Z</time>
  <course>237.55</course>
  <speed>3.55</speed>
  <fix>3d</fix>
</trkpt>
<trkpt lat="40.0713365" lon="-105.2298706">
  <ele>1583.21</ele>
  <time>2026-08-28T17:56:22Z</time>
  <course>238.8</course>
  <speed>3.8351010416936866</speed>
  <fix>3d</fix>
</trkpt>
<trkpt lat="40.0713419" lon="-105.229859">
  <ele>1583.0</ele>
  <time>2026-08-28T17:56:22Z</time>
  <course>237.55</course>
  <speed>3.55</speed>
  <fix>3d</fix>
</trkpt>
<trkpt lat="40.0713347" lon="-105.2298745">
  <ele>1583.21</ele>
  <time>2026-08-28T17:56:22Z</time>
  <course>238.78</course>
  <speed>3.924181443307636</speed>
  <fix>3d</fix>
</trkpt>
<trkpt lat="40.0713383" lon="-105.2298663">
  <ele>1583.0</ele>
  <time>2026-08-28T17:56:22Z</time>
  <course>237.56</course>
  <speed>3.73</speed>
  <fix>3d</fix>
</trkpt>
<trkpt lat="40.0713327" lon="-105.2298785">
  <ele>1583.21</ele>
  <time>2026-08-28T17:56:22Z</time>
  <course>238.77</course>
  <speed>4.018519627922701</speed>
  <fix>3d</fix>
</trkpt>
<trkpt lat="40.0713383" lon="-105.2298663">
  <ele>1583.0</ele>
  <time>2026-08-28T17:56:22Z</time>
  <course>237.56</course>
  <speed>3.73</speed>
  <fix>3d</fix>
</trkpt>
<trkpt lat="40.0713308" lon="-105.2298825">
  <ele>1583.21</ele>
  <time>2026-08-28T17:56:22Z</time>
  <course>238.76</course>
  <speed>4.104351349482644</speed>
  <fix>3d</fix>
</trkpt>
<trkpt lat="40.0713346" lon="-105.2298739">
  <ele>1583.0</ele>
  <time>2026-08-28T17:56:22Z</time>
  <course>237.56</course>
  <speed>3.92</speed>
  <fix>3d</fix>
</trkpt>
<trkpt lat="40.0713288" lon="-105.2298866">
  <ele>1583.2</ele>
  <time>2026-08-28T17:56:22Z</time>
  <course>238.75</course>
  <speed>4.1986902719776795</speed>
  <fix>3d</fix>
</trkpt>
<trkpt lat="40.0713346" lon="-105.2298739">
  <ele>1583.0</ele>
  <time>2026-08-28T17:56:22Z</time>
  <course>237.56</course>
  <speed>3.92</speed>
  <fix>3d</fix>
</trkpt>
<trkpt lat="40.0713268" lon="-105.2298908">
  <ele>1583.2</ele>
  <time>2026-08-28T17:56:22Z</time>
  <course>238.75</course>
  <speed>4.28453031264805</speed>
  <fix>3d</fix>
</trkpt>
<trkpt lat="40.0713308" lon="-105.2298818">
  <ele>1583.0</ele>
  <time>2026-08-28T17:56:22Z</time>
  <course>237.56</course>
  <speed>4.1</speed>
  <fix>3d</fix>
</trkpt>
<trkpt lat="40.0713247" lon="-105.229895">
  <ele>1583.2</ele>
  <time>2026-08-28T17:56:22Z</time>
  <course>238.75</course>
  <speed>4.378869717175883</speed>
  <fix>3d</fix>
</trkpt>
<trkpt lat="40.0713308" lon="-105.2298818">
  <ele>1583.0</ele>
  <time>2026-08-28T17:56:22Z</time>
  <course>237.56</course>
  <speed>4.1</speed>
  <fix>3d</fix>
</trkpt>
<trkpt lat="40.0713226" lon="-105.2298994">
  <ele>1583.2</ele>
  <time>2026-08-28T17:56:22Z</time>
  <course>238.76</course>
  <speed>4.473209138862166</speed>
  <fix>3d</fix>
</trkpt>
<trkpt lat="40.0713267" lon="-105.2298901">
  <ele>1583.0</ele>
  <time>2026-08-28T17:56:22Z</time>
  <course>237.56</course>
  <speed>4.29</speed>
  <fix>3d</fix>
</trkpt>
<trkpt lat="40.0713209" lon="-105.229903">
  <ele>1583.2</ele>
  <time>2026-08-28T17:56:22Z</time>
  <course>238.75</course>
  <speed>4.545283269500373</speed>
  <fix>3d</fix>
</trkpt>
<trkpt lat="40.0713267" lon="-105.2298901">
  <ele>1583.0</ele>
  <time>2026-08-28T17:56:22Z</time>
  <course>237.56</course>
  <speed>4.29</speed>
  <fix>3d</fix>
</trkpt>
<trkpt lat="40.0713187" lon="-105.2299075">
  <ele>1583.2</ele>
  <time>2026-08-28T17:56:22Z</time>
  <course>238.75</course>
  <speed>4.6311337704713305</speed>
  <fix>3d</fix>
</trkpt>
<trkpt lat="40.0713225" lon="-105.2298988">
  <ele>1583.0</ele>
  <time>2026-08-28T17:56:22Z</time>
  <course>237.56</course>
  <speed>4.47</speed>
  <fix>3d</fix>
</trkpt>
<trkpt lat="40.0713164" lon="-105.2299121">
  <ele>1583.2</ele>
  <time>2026-08-28T17:56:22Z</time>
  <course>238.74</course>
  <speed>4.7116982076529474</speed>
  <fix>3d</fix>
</trkpt>
<trkpt lat="40.0713225" lon="-105.2298988">
  <ele>1583.0</ele>
  <time>2026-08-28T17:56:22Z</time>
  <course>237.56</course>
  <speed>4.47</speed>
  <fix>3d</fix>
</trkpt>
<trkpt lat="40.0713141" lon="-105.2299169">
  <ele>1583.19</ele>
  <time>2026-08-28T17:56:22Z</time>
  <course>238.73</course>
  <speed>4.783774660244774</speed>
  <fix>3d</fix>
</trkpt>
<trkpt lat="40.0713181" lon="-105.2299079">
  <ele>1583.0</ele>
  <time>2026-08-28T17:56:22Z</time>
  <course>237.56</course>
  <speed>4.65</speed>
  <fix>3d</fix>
</trkpt>
<trkpt lat="40.0713118" lon="-105.2299217">
  <ele>1583.19</ele>
  <time>2026-08-28T17:56:22Z</time>
  <course>238.71</course>
  <speed>4.847370421166511</speed>
  <fix>3d</fix>
</trkpt>
<trkpt lat="40.0713181" lon="-105.2299079">
  <ele>1583.0</ele>
  <time>2026-08-28T17:56:22Z</time>
  <course>237.56</course>
  <speed>4.65</speed>
  <fix>3d</fix>
</trkpt>
<trkpt lat="40.0713094" lon="-105.2299265">
  <ele>1583.19</ele>
  <time>2026-08-28T17:56:22Z</time>
  <course>238.7</course>
  <speed>4.897193073588175</speed>
  <fix>3d</fix>
</trkpt>
<trkpt lat="40.0713135" lon="-105.2299172">
  <ele>1583.0</ele>
  <time>2026-08-28T17:56:22Z</time>
  <course>237.56</course>
  <speed>4.79</speed>
  <fix>3d</fix>
</trkpt>
<trkpt lat="40.071307" lon="-105.2299314">
  <ele>1583.18</ele>
  <time>2026-08-28T17:56:22Z</time>
  <course>238.69</course>
  <speed>4.93323423323888</speed>
  <fix>3d</fix>
</trkpt>
<trkpt lat="40.0713135" lon="-105.2299172">
  <ele>1583.0</ele>
  <time>2026-08-28T17:56:22Z</time>
  <course>237.56</course>
  <speed>4.79</speed>
  <fix>3d</fix>
</trkpt>
<trkpt lat="40.0713046" lon="-105.2299364">
  <ele>1583.18</ele>
  <time>2026-08-28T17:56:22Z</time>
  <course>238.71</course>
  <speed>4.963970185244872</speed>
  <fix>3d</fix>
</trkpt>
<trkpt lat="40.0713089" lon="-105.2299268">
  <ele>1583.0</ele>
  <time>2026-08-28T17:56:22Z</time>
  <course>237.58</course>
  <speed>4.9</speed>
  <fix>3d</fix>
</trkpt>
<trkpt lat="40.0713022" lon="-105.2299413">
  <ele>1583.18</ele>
  <time>2026-08-28T17:56:22Z</time>
  <course>238.75</course>
  <speed>4.986231041578399</speed>
  <fix>3d</fix>
</trkpt>
<trkpt lat="40.0713089" lon="-105.2299268">
  <ele>1583.0</ele>
  <time>2026-08-28T17:56:22Z</time>
  <course>237.58</course>
  <speed>4.9</speed>
  <fix>3d</fix>
</trkpt>
<trkpt lat="40.0712997" lon="-105.2299463">
  <ele>1583.17</ele>
  <time>2026-08-28T17:56:22Z</time>
  <course>238.78</course>
  <speed>5.00000999999</speed>
  <fix>3d</fix>
</trkpt>
<trkpt lat="40.0713041" lon="-105.2299366">
  <ele>1583.0</ele>
  <time>2026-08-28T17:56:22Z</time>
  <course>237.61</course>
  <speed>4.96</speed>
  <fix>3d</fix>
</trkpt>
<trkpt lat="40.0712968" lon="-105.2299523">
  <ele>1583.17</ele>
  <time>2026-08-28T17:56:22Z</time>
  <course>238.82</course>
  <speed>5.00000999999</speed>
  <fix>3d</fix>
</trkpt>
<trkpt lat="40.0713041" lon="-105.2299366">
  <ele>1583.0</ele>
  <time>2026-08-28T17:56:22Z</time>
  <course>237.61</course>
  <speed>4.96</speed>
  <fix>3d</fix>
</trkpt>
<trkpt lat="40.0712944" lon="-105.2299573">
  <ele>1583.17</ele>
  <time>2026-08-28T17:56:22Z</time>
  <course>238.87</course>
  <speed>4.9947172092121495</speed>
  <fix>3d</fix>
</trkpt>
<trkpt lat="40.0712994" lon="-105.2299465">
  <ele>1583.0</ele>
  <time>2026-08-28T17:56:22Z</time>
  <course>237.66</course>
  <speed>4.98</speed>
  <fix>3d</fix>
</trkpt>
<trkpt lat="40.071292" lon="-105.2299622">
  <ele>1583.17</ele>
  <time>2026-08-28T17:56:22Z</time>
  <course>238.9</course>
  <speed>4.9947172092121495</speed>
  <fix>3d</fix>
</trkpt>
<trkpt lat="40.0712994" lon="-105.2299465">
  <ele>1583.0</ele>
  <time>2026-08-28T17:56:22Z</time>
  <course>237.66</course>
  <speed>4.98</speed>
  <fix>3d</fix>
</trkpt>
<trkpt lat="40.0712896" lon="-105.2299672">
  <ele>1583.17</ele>
  <time>2026-08-28T17:56:22Z</time>
  <course>238.9</course>
  <speed>4.9947172092121495</speed>
  <fix>3d</fix>
</trkpt>
<trkpt lat="40.0712946" lon="-105.2299564">
  <ele>1583.0</ele>
  <time>2026-08-28T17:56:22Z</time>
  <course>237.74</course>
  <speed>4.99</speed>
  <fix>3d</fix>
</trkpt>
<trkpt lat="40.0712872" lon="-105.2299722">
  <ele>1583.17</ele>
  <time>2026-08-28T17:56:22Z</time>
  <course>238.93</course>
  <speed>4.980943685688486</speed>
  <fix>3d</fix>
</trkpt>
<trkpt lat="40.0712946" lon="-105.2299564">
  <ele>1583.0</ele>
  <time>2026-08-28T17:56:22Z</time>
  <course>237.74</course>
  <speed>4.99</speed>
  <fix>3d</fix>
</trkpt>
<trkpt lat="40.0712848" lon="-105.2299772">
  <ele>1583.17</ele>
  <time>2026-08-28T17:56:22Z</time>
  <course>238.95</course>
  <speed>4.980943685688486</speed>
  <fix>3d</fix>
</trkpt>
<trkpt lat="40.0712897" lon="-105.2299663">
  <ele>1583.0</ele>
  <time>2026-08-28T17:56:22Z</time>
  <course>237.8</course>
  <speed>4.98</speed>
  <fix>3d</fix>
</trkpt>
<trkpt lat="40.0712825" lon="-105.2299821">
  <ele>1583.17</ele>
  <time>2026-08-28T17:56:22Z</time>
  <course>238.96</course>
  <speed>4.975670809046756</speed>
  <fix>3d</fix>
</trkpt>
<trkpt lat="40.0712897" lon="-105.2299663">
  <ele>1583.0</ele>
  <time>2026-08-28T17:56:22Z</time>
  <course>237.8</course>
  <speed>4.98</speed>
  <fix>3d</fix>
</trkpt>
<trkpt lat="40.0712801" lon="-105.229987">
  <ele>1583.17</ele>
  <time>2026-08-28T17:56:22Z</time>
  <course>239.01</course>
  <speed>4.967172233776477</speed>
  <fix>3d</fix>
</trkpt>
<trkpt lat="40.0712849" lon="-105.2299762">
  <ele>1583.0</ele>
  <time>2026-08-28T17:56:22Z</time>
  <course>237.84</course>
  <speed>4.97</speed>
  <fix>3d</fix>
</trkpt>
<trkpt lat="40.0712777" lon="-105.2299919">
  <ele>1583.17</ele>
  <time>2026-08-28T17:56:22Z</time>
  <course>239.03</course>
  <speed>4.9534028707546085</speed>
  <fix>3d</fix>
</trkpt>
<trkpt lat="40.0712849" lon="-105.2299762">
  <ele>1583.0</ele>
  <time>2026-08-28T17:56:22Z</time>
  <course>237.84</course>
  <speed>4.97</speed>
  <fix>3d</fix>
</trkpt>
<trkpt lat="40.0712754" lon="-105.2299967">
  <ele>1583.17</ele>
  <time>2026-08-28T17:56:22Z</time>
  <course>239.1</course>
  <speed>4.944906470298503</speed>
  <fix>3d</fix>
</trkpt>
<trkpt lat="40.0712802" lon="-105.2299861">
  <ele>1583.0</ele>
  <time>2026-08-28T17:56:22Z</time>
  <course>237.9</course>
  <speed>4.96</speed>
  <fix>3d</fix>
</trkpt>
<trkpt lat="40.0712731" lon="-105.2300016">
  <ele>1583.17</ele>
  <time>2026-08-28T17:56:22Z</time>
  <course>239.15</course>
  <speed>4.925870481447924</speed>
  <fix>3d</fix>
</trkpt>
<trkpt lat="40.0712802" lon="-105.2299861">
  <ele>1583.0</ele>
  <time>2026-08-28T17:56:22Z</time>
  <course>237.9</course>
  <speed>4.96</speed>
  <fix>3d</fix>
</trkpt>
<trkpt lat="40.0712712" lon="-105.2300055">
  <ele>1583.17</ele>
  <time>2026-08-28T17:56:22Z</time>
  <course>239.21</course>
  <speed>4.903600717839902</speed>
  <fix>3d</fix>
</trkpt>
<trkpt lat="40.0712755" lon="-105.229996">
  <ele>1583.0</ele>
  <time>2026-08-28T17:56:22Z</time>
  <course>237.99</course>
  <speed>4.95</speed>
  <fix>3d</fix>
</trkpt>
<trkpt lat="40.0712688" lon="-105.2300104">
  <ele>1583.17</ele>
  <time>2026-08-28T17:56:22Z</time>
  <course>239.28</course>
  <speed>4.876074240616113</speed>
  <fix>3d</fix>
</trkpt>
<trkpt lat="40.0712755" lon="-105.229996">
  <ele>1583.0</ele>
  <time>2026-08-28T17:56:22Z</time>
  <course>237.99</course>
  <speed>4.95</speed>
  <fix>3d</fix>
</trkpt>
<trkpt lat="40.0712665" lon="-105.2300152">
  <ele>1583.17</ele>
  <time>2026-08-28T17:56:22Z</time>
  <course>239.35</course>
  <speed>4.831531848182314</speed>
  <fix>3d</fix>
</trkpt>
<trkpt lat="40.0712708" lon="-105.2300057">
  <ele>1583.0</ele>
  <time>2026-08-28T17:56:22Z</time>
  <course>238.09</course>
  <speed>4.9</speed>
  <fix>3d</fix>
</trkpt>
<trkpt lat="40.0712642" lon="-105.23002">
  <ele>1583.17</ele>
  <time>2026-08-28T17:56:22Z</time>
  <course>239.41</course>
  <speed>4.781736086402092</speed>
  <fix>3d</fix>
</trkpt>
<trkpt lat="40.0712708" lon="-105.2300057">
  <ele>1583.0</ele>
  <time>2026-08-28T17:56:22Z</time>
  <course>238.09</course>
  <speed>4.9</speed>
  <fix>3d</fix>
</trkpt>
<trkpt lat="40.071262" lon="-105.2300248">
  <ele>1583.17</ele>
  <time>2026-08-28T17:56:22Z</time>
  <course>239.47</course>
  <speed>4.718188211591394</speed>
  <fix>3d</fix>
</trkpt>
<trkpt lat="40.0712661" lon="-105.2300155">
  <ele>1583.0</ele>
  <time>2026-08-28T17:56:22Z</time>
  <course>238.22</course>
  <speed>4.83</speed>
  <fix>3d</fix>
</trkpt>
<trkpt lat="40.0712597" lon="-105.2300295">
  <ele>1583.17</ele>
  <time>2026-08-28T17:56:22Z</time>
  <course>239.53</course>
  <speed>4.6513653909363</speed>
  <fix>3d</fix>
</trkpt>
<trkpt lat="40.0712661" lon="-105.2300155">
  <ele>1583.0</ele>
  <time>2026-08-28T17:56:22Z</time>
  <course>238.22</course>
  <speed>4.83</speed>
  <fix>3d</fix>
</trkpt>
<trkpt lat="40.0712575" lon="-105.2300341">
  <ele>1583.17</ele>
  <time>2026-08-28T17:56:22Z</time>
  <course>239.6</course>
  <speed>4.565544874382465</speed>
  <fix>3d</fix>
</trkpt>
<trkpt lat="40.0712616" lon="-105.2300251">
  <ele>1583.0</ele>
  <time>2026-08-28T17:56:22Z</time>
  <course>238.35</course>
  <speed>4.71</speed>
  <fix>3d</fix>
</trkpt>
<trkpt lat="40.0712554" lon="-105.2300386">
  <ele>1583.18</ele>
  <time>2026-08-28T17:56:22Z</time>
  <course>239.61</course>
  <speed>4.4712078904922326</speed>
  <fix>3d</fix>
</trkpt>
<trkpt lat="40.0712616" lon="-105.2300251">
  <ele>1583.0</ele>
  <time>2026-08-28T17:56:22Z</time>
  <course>238.35</course>
  <speed>4.71</speed>
  <fix>3d</fix>
</trkpt>
<trkpt lat="40.0712533" lon="-105.2300431">
  <ele>1583.18</ele>
  <time>2026-08-28T17:56:22Z</time>
  <course>239.51</course>
  <speed>4.373602633984939</speed>
  <fix>3d</fix>
</trkpt>
<trkpt lat="40.0712573" lon="-105.2300343">
  <ele>1583.0</ele>
  <time>2026-08-28T17:56:22Z</time>
  <course>238.42</course>
  <speed>4.55</speed>
  <fix>3d</fix>
</trkpt>
<trkpt lat="40.0712508" lon="-105.2300482">
  <ele>1583.18</ele>
  <time>2026-08-28T17:56:22Z</time>
  <course>239.21</course>
  <speed>4.250599957653037</speed>
  <fix>3d</fix>
</trkpt>
<trkpt lat="40.0712573" lon="-105.2300343">
  <ele>1583.0</ele>
  <time>2026-08-28T17:56:22Z</time>
  <course>238.42</course>
  <speed>4.55</speed>
  <fix>3d</fix>
</trkpt>
<trkpt lat="40.0712488" lon="-105.2300524">
  <ele>1583.18</ele>
  <time>2026-08-28T17:56:22Z</time>
  <course>238.8</course>
  <speed>4.150048192491263</speed>
  <fix>3d</fix>
</trkpt>
<trkpt lat="40.0712531" lon="-105.2300432">
  <ele>1583.0</ele>
  <time>2026-08-28T17:56:22Z</time>
  <course>238.21</course>
  <speed>4.36</speed>
  <fix>3d</fix>
</trkpt>
<trkpt lat="40.0712468" lon="-105.2300564">
  <ele>1583.17</ele>
  <time>2026-08-28T17:56:22Z</time>
  <course>238.23</course>
  <speed>4.038378387422358</speed>
  <fix>3d</fix>
</trkpt>
<trkpt lat="40.0712531" lon="-105.2300432">
  <ele>1583.0</ele>
  <time>2026-08-28T17:56:22Z</time>
  <course>238.21</course>
  <speed>4.36</speed>
  <fix>3d</fix>
</trkpt>
<trkpt lat="40.0712448" lon="-105.2300603">
  <ele>1583.17</ele>
  <time>2026-08-28T17:56:22Z</time>
  <course>237.45</course>
  <speed>3.9328869803237416</speed>
  <fix>3d</fix>
</trkpt>
<trkpt lat="40.0712491" lon="-105.2300517">
  <ele>1583.0</ele>
  <time>2026-08-28T17:56:22Z</time>
  <course>237.43</course>
  <speed>4.16</speed>
  <fix>3d</fix>
</trkpt>
<trkpt lat="40.0712428" lon="-105.2300641">
  <ele>1583.17</ele>
  <time>2026-08-28T17:56:22Z</time>
  <course>236.47</course>
  <speed>3.8282763745581376</speed>
  <fix>3d</fix>
</trkpt>
<trkpt lat="40.0712491" lon="-105.2300517">
  <ele>1583.0</ele>
  <time>2026-08-28T17:56:22Z</time>
  <course>237.43</course>
  <speed>4.16</speed>
  <fix>3d</fix>
</trkpt>
<trkpt lat="40.0712408" lon="-105.2300677">
  <ele>1583.17</ele>
  <time>2026-08-28T17:56:22Z</time>
  <course>235.28</course>
  <speed>3.7202150475476548</speed>
  <fix>3d</fix>
</trkpt>
<trkpt lat="40.0712451" lon="-105.2300597">
  <ele>1583.0</ele>
  <time>2026-08-28T17:56:22Z</time>
  <course>235.97</course>
  <speed>3.94</speed>
  <fix>3d</fix>
</trkpt>
<trkpt lat="40.0712389" lon="-105.2300711">
  <ele>1583.17</ele>
  <time>2026-08-28T17:56:22Z</time>
  <course>233.81</course>
  <speed>3.6064664146502183</speed>
  <fix>3d</fix>
</trkpt>
<trkpt lat="40.0712451" lon="-105.2300597">
  <ele>1583.0</ele>
  <time>2026-08-28T17:56:22Z</time>
  <course>235.97</course>
  <speed>3.94</speed>
  <fix>3d</fix>
</trkpt>
<trkpt lat="40.0712369" lon="-105.2300743">
  <ele>1583.17</ele>
  <time>2026-08-28T17:56:22Z</time>
  <course>232.12</course>
  <speed>3.4954827992710817</speed>
  <fix>3d</fix>
</trkpt>
<trkpt lat="40.071241" lon="-105.2300671">
  <ele>1583.0</ele>
  <time>2026-08-28T17:56:22Z</time>
  <course>233.68</course>
  <speed>3.73</speed>
  <fix>3d</fix>
</trkpt>
<trkpt lat="40.0712349" lon="-105.2300774">
  <ele>1583.17</ele>
  <time>2026-08-28T17:56:22Z</time>
  <course>230.25</course>
  <speed>3.386620734596657</speed>
  <fix>3d</fix>
</trkpt>
<trkpt lat="40.071241" lon="-105.2300671">
  <ele>1583.0</ele>
  <time>2026-08-28T17:56:22Z</time>
  <course>233.68</course>
  <speed>3.73</speed>
  <fix>3d</fix>
</trkpt>
<trkpt lat="40.0712329" lon="-105.2300802">
  <ele>1583.17</ele>
  <time>2026-08-28T17:56:22Z</time>
  <course>228.27</course>
  <speed>3.2751946507039857</speed>
  <fix>3d</fix>
</trkpt>
<trkpt lat="40.0712371" lon="-105.2300738">
  <ele>1583.0</ele>
  <time>2026-08-28T17:56:22Z</time>
  <course>230.51</course>
  <speed>3.51</speed>
  <fix>3d</fix>
</trkpt>
<trkpt lat="40.0712309" lon="-105.2300829">
  <ele>1583.16</ele>
  <time>2026-08-28T17:56:22Z</time>
  <course>226.15</course>
  <speed>3.1609650425147064</speed>
  <fix>3d</fix>
</trkpt>
<trkpt lat="40.0712371" lon="-105.2300738">
  <ele>1583.0</ele>
  <time>2026-08-28T17:56:22Z</time>
  <course>230.51</course>
  <speed>3.51</speed>
  <fix>3d</fix>
</trkpt>
<trkpt lat="40.0712288" lon="-105.2300854">
  <ele>1583.16</ele>
  <time>2026-08-28T17:56:22Z</time>
  <course>223.87</course>
  <speed>3.05196657910928</speed>
  <fix>3d</fix>
</trkpt>
<trkpt lat="40.071233" lon="-105.2300798">
  <ele>1583.0</ele>
  <time>2026-08-28T17:56:22Z</time>
  <course>226.63</course>
  <speed>3.29</speed>
  <fix>3d</fix>
</trkpt>
<trkpt lat="40.0712272" lon="-105.2300872">
  <ele>1583.17</ele>
  <time>2026-08-28T17:56:22Z</time>
  <course>221.96</course>
  <speed>2.960219586449627</speed>
  <fix>3d</fix>
</trkpt>
<trkpt lat="40.071233" lon="-105.2300798">
  <ele>1583.0</ele>
  <time>2026-08-28T17:56:22Z</time>
  <course>226.63</course>
  <speed>3.29</speed>
  <fix>3d</fix>
</trkpt>
<trkpt lat="40.0712252" lon="-105.2300893">
  <ele>1583.17</ele>
  <time>2026-08-28T17:56:22Z</time>
  <course>219.45</course>
  <speed>2.862044723619811</speed>
  <fix>3d</fix>
</trkpt>
<trkpt lat="40.071229" lon="-105.230085">
  <ele>1583.0</ele>
  <time>2026-08-28T17:56:22Z</time>
  <course>222.21</course>
  <speed>3.07</speed>
  <fix>3d</fix>
</trkpt>
<trkpt lat="40.0712231" lon="-105.2300912">
  <ele>1583.17</ele>
  <time>2026-08-28T17:56:22Z</time>
  <course>216.83</course>
  <speed>2.7626074639731213</speed>
  <fix>3d</fix>
</trkpt>
<trkpt lat="40.071229" lon="-105.230085">
  <ele>1583.0</ele>
  <time>2026-08-28T17:56:22Z</time>
  <course>222.21</course>
  <speed>3.07</speed>
  <fix>3d</fix>
</trkpt>
<trkpt lat="40.071221" lon="-105.230093">
  <ele>1583.16</ele>
  <time>2026-08-28T17:56:22Z</time>
  <course>214.08</course>
  <speed>2.6840454541605663</speed>
  <fix>3d</fix>
</trkpt>
<trkpt lat="40.0712249" lon="-105.2300895">
  <ele>1583.0</ele>
  <time>2026-08-28T17:56:22Z</time>
  <course>217.22</course>
  <speed>2.86</speed>
  <fix>3d</fix>
</trkpt>
<trkpt lat="40.071219" lon="-105.2300945">
  <ele>1583.16</ele>
  <time>2026-08-28T17:56:22Z</time>
  <course>211.23</course>
  <speed>2.6129676614914312</speed>
  <fix>3d</fix>
</trkpt>
<trkpt lat="40.0712249" lon="-105.2300895">
  <ele>1583.0</ele>
  <time>2026-08-28T17:56:22Z</time>
  <course>217.22</course>
  <speed>2.86</speed>
  <fix>3d</fix>
</trkpt>
<trkpt lat="40.0712169" lon="-105.2300959">
  <ele>1583.16</ele>
  <time>2026-08-28T17:56:22Z</time>
  <course>208.28</course>
  <speed>2.5542513580303723</speed>
  <fix>3d</fix>
</trkpt>
<trkpt lat="40.0712207" lon="-105.2300932">
  <ele>1583.0</ele>
  <time>2026-08-28T17:56:22Z</time>
  <course>211.72</course>
  <speed>2.69</speed>
  <fix>3d</fix>
</trkpt>
<trkpt lat="40.0712148" lon="-105.2300971">
  <ele>1583.15</ele>
  <time>2026-08-28T17:56:22Z</time>
  <course>205.23</course>
  <speed>2.503197954617253</speed>
  <fix>3d</fix>
</trkpt>
<trkpt lat="40.0712207" lon="-105.2300932">
  <ele>1583.0</ele>
  <time>2026-08-28T17:56:22Z</time>
  <course>211.72</course>
  <speed>2.69</speed>
  <fix>3d</fix>
</trkpt>
<trkpt lat="40.0712127" lon="-105.2300982">
  <ele>1583.15</ele>
  <time>2026-08-28T17:56:22Z</time>
  <course>202.1</course>
  <speed>2.4602845363900494</speed>
  <fix>3d</fix>
</trkpt>
<trkpt lat="40.0712166" lon="-105.2300961">
  <ele>1583.0</ele>
  <time>2026-08-28T17:56:22Z</time>
  <course>205.78</course>
  <speed>2.56</speed>
  <fix>3d</fix>
</trkpt>
<trkpt lat="40.0712105" lon="-105.230099">
  <ele>1583.15</ele>
  <time>2026-08-28T17:56:22Z</time>
  <course>198.92</course>
  <speed>2.438237068047322</speed>
  <fix>3d</fix>
</trkpt>
<trkpt lat="40.0712166" lon="-105.2300961">
  <ele>1583.0</ele>
  <time>2026-08-28T17:56:22Z</time>
  <course>205.78</course>
  <speed>2.56</speed>
  <fix>3d</fix>
</trkpt>
<trkpt lat="40.071208" lon="-105.2300999">
  <ele>1583.14</ele>
  <time>2026-08-28T17:56:22Z</time>
  <course>195.03</course>
  <speed>2.4181191037663963</speed>
  <fix>3d</fix>
</trkpt>
<trkpt lat="40.0712125" lon="-105.2300984">
  <ele>1583.0</ele>
  <time>2026-08-28T17:56:22Z</time>
  <course>199.5</course>
  <speed>2.47</speed>
  <fix>3d</fix>
</trkpt>
<trkpt lat="40.0712058" lon="-105.2301004">
  <ele>1583.14</ele>
  <time>2026-08-28T17:56:22Z</time>
  <course>191.77</course>
  <speed>2.414062965210311</speed>
  <fix>3d</fix>
</trkpt>
<trkpt lat="40.0712125" lon="-105.2300984">
  <ele>1583.0</ele>
  <time>2026-08-28T17:56:22Z</time>
  <course>199.5</course>
  <speed>2.47</speed>
  <fix>3d</fix>
</trkpt>
<trkpt lat="40.0712037" lon="-105.2301007">
  <ele>1583.13</ele>
  <time>2026-08-28T17:56:22Z</time>
  <course>188.55</course>
  <speed>2.4282503989498285</speed>
  <fix>3d</fix>
</trkpt>
<trkpt lat="40.0712082" lon="-105.2301">
  <ele>1583.0</ele>
  <time>2026-08-28T17:56:22Z</time>
  <course>193.0</course>
  <speed>2.43</speed>
  <fix>3d</fix>
</trkpt>
<trkpt lat="40.0712015" lon="-105.2301009">
  <ele>1583.13</ele>
  <time>2026-08-28T17:56:22Z</time>
  <course>185.32</course>
  <speed>2.4407375934335915</speed>
  <fix>3d</fix>
</trkpt>
<trkpt lat="40.0712082" lon="-105.2301">
  <ele>1583.0</ele>
  <time>2026-08-28T17:56:22Z</time>
  <course>193.0</course>
  <speed>2.43</speed>
  <fix>3d</fix>
</trkpt>
<trkpt lat="40.0711993" lon="-105.2301009">
  <ele>1583.12</ele>
  <time>2026-08-28T17:56:22Z</time>
  <course>182.13</course>
  <speed>2.4709917037497315</speed>
  <fix>3d</fix>
</trkpt>
<trkpt lat="40.0712039" lon="-105.230101">
  <ele>1583.0</ele>
  <time>2026-08-28T17:56:22Z</time>
  <course>186.47</course>
  <speed>2.43</speed>
  <fix>3d</fix>
</trkpt>
<trkpt lat="40.071197" lon="-105.2301009">
  <ele>1583.12</ele>
  <time>2026-08-28T17:56:22Z</time>
  <course>178.99</course>
  <speed>2.5079872407968904</speed>
  <fix>3d</fix>
</trkpt>
<trkpt lat="40.0712039" lon="-105.230101">
  <ele>1583.0</ele>
  <time>2026-08-28T17:56:22Z</time>
  <course>186.47</course>
  <speed>2.43</speed>
  <fix>3d</fix>
</trkpt>
<trkpt lat="40.0711947" lon="-105.2301006">
  <ele>1583.12</ele>
  <time>2026-08-28T17:56:22Z</time>
  <course>175.92</course>
  <speed>2.562654873368632</speed>
  <fix>3d</fix>
</trkpt>
<trkpt lat="40.0711995" lon="-105.2301014">
  <ele>1583.0</ele>
  <time>2026-08-28T17:56:22Z</time>
  <course>180.06</course>
  <speed>2.47</speed>
  <fix>3d</fix>
</trkpt>
<trkpt lat="40.0711924" lon="-105.2301002">
  <ele>1583.12</ele>
  <time>2026-08-28T17:56:22Z</time>
  <course>172.96</course>
  <speed>2.6144406667583797</speed>
  <fix>3d</fix>
</trkpt>
<trkpt lat="40.0711995" lon="-105.2301014">
  <ele>1583.0</ele>
  <time>2026-08-28T17:56:22Z</time>
  <course>180.06</course>
  <speed>2.47</speed>
  <fix>3d</fix>
</trkpt>
<trkpt lat="40.0711901" lon="-105.2300996">
  <ele>1583.12</ele>
  <time>2026-08-28T17:56:22Z</time>
  <course>170.08</course>
  <speed>2.6826293072282645</speed>
  <fix>3d</fix>
</trkpt>
<trkpt lat="40.071195" lon="-105.230101">
  <ele>1583.0</ele>
  <time>2026-08-28T17:56:22Z</time>
  <course>173.91</course>
  <speed>2.55</speed>
  <fix>3d</fix>
</trkpt>
<trkpt lat="40.0711878" lon="-105.2300988">
  <ele>1583.11</ele>
  <time>2026-08-28T17:56:22Z</time>
  <course>167.3</course>
  <speed>2.756827887264637</speed>
  <fix>3d</fix>
</trkpt>
<trkpt lat="40.071195" lon="-105.230101">
  <ele>1583.0</ele>
  <time>2026-08-28T17:56:22Z</time>
  <course>173.91</course>
  <speed>2.55</speed>
  <fix>3d</fix>
</trkpt>
<trkpt lat="40.0711854" lon="-105.2300979">
  <ele>1583.11</ele>
  <time>2026-08-28T17:56:22Z</time>
  <course>164.64</course>
  <speed>2.836564823867066</speed>
  <fix>3d</fix>
</trkpt>
<trkpt lat="40.0711904" lon="-105.2301001">
  <ele>1583.0</ele>
  <time>2026-08-28T17:56:22Z</time>
  <course>168.14</course>
  <speed>2.67</speed>
  <fix>3d</fix>
</trkpt>
<trkpt lat="40.0711835" lon="-105.2300971">
  <ele>1583.11</ele>
  <time>2026-08-28T17:56:22Z</time>
  <course>162.57</course>
  <speed>2.904961273407961</speed>
  <fix>3d</fix>
</trkpt>
<trkpt lat="40.0711904" lon="-105.2301001">
  <ele>1583.0</ele>
  <time>2026-08-28T17:56:22Z</time>
  <course>168.14</course>
  <speed>2.67</speed>
  <fix>3d</fix>
</trkpt>
<trkpt lat="40.071181" lon="-105.2300958">
  <ele>1583.11</ele>
  <time>2026-08-28T17:56:22Z</time>
  <course>160.13</course>
  <speed>2.9938603841862768</speed>
  <fix>3d</fix>
</trkpt>
<trkpt lat="40.0711856" lon="-105.2300985">
  <ele>1583.0</ele>
  <time>2026-08-28T17:56:22Z</time>
  <course>162.79</course>
  <speed>2.82</speed>
  <fix>3d</fix>
</trkpt>
<trkpt lat="40.0711785" lon="-105.2300944">
  <ele>1583.11</ele>
  <time>2026-08-28T17:56:22Z</time>
  <course>157.79</course>
  <speed>3.0912942273423276</speed>
  <fix>3d</fix>
</trkpt>
<trkpt lat="40.0711856" lon="-105.2300985">
  <ele>1583.0</ele>
  <time>2026-08-28T17:56:22Z</time>
  <course>162.79</course>
  <speed>2.82</speed>
  <fix>3d</fix>
</trkpt>
<trkpt lat="40.0711759" lon="-105.2300929">
  <ele>1583.11</ele>
  <time>2026-08-28T17:56:22Z</time>
  <course>155.57</course>
  <speed>3.193305497443049</speed>
  <fix>3d</fix>
</trkpt>
<trkpt lat="40.0711807" lon="-105.2300962">
  <ele>1583.0</ele>
  <time>2026-08-28T17:56:22Z</time>
  <course>157.89</course>
  <speed>2.99</speed>
  <fix>3d</fix>
</trkpt>
<trkpt lat="40.0711734" lon="-105.2300911">
  <ele>1583.11</ele>
  <time>2026-08-28T17:56:22Z</time>
  <course>153.46</course>
  <speed>3.29946965435356</speed>
  <fix>3d</fix>
</trkpt>
<trkpt lat="40.0711807" lon="-105.2300962">
  <ele>1583.0</ele>
  <time>2026-08-28T17:56:22Z</time>
  <course>157.89</course>
  <speed>2.99</speed>
  <fix>3d</fix>
</trkpt>
<trkpt lat="40.0711707" lon="-105.2300892">
  <ele>1583.11</ele>
  <time>2026-08-28T17:56:22Z</time>
  <course>151.5</course>
  <speed>3.3956737181301744</speed>
  <fix>3d</fix>
</trkpt>
<trkpt lat="40.0711756" lon="-105.2300932">
  <ele>1583.0</ele>
  <time>2026-08-28T17:56:22Z</time>
  <course>153.44</course>
  <speed>3.18</speed>
  <fix>3d</fix>
</trkpt>
<trkpt lat="40.0711681" lon="-105.2300871">
  <ele>1583.11</ele>
  <time>2026-08-28T17:56:22Z</time>
  <course>149.78</course>
  <speed>3.503512523168713</speed>
  <fix>3d</fix>
</trkpt>
<trkpt lat="40.0711756" lon="-105.2300932">
  <ele>1583.0</ele>
  <time>2026-08-28T17:56:22Z</time>
  <course>153.44</course>
  <speed>3.18</speed>
  <fix>3d</fix>
</trkpt>
<trkpt lat="40.0711654" lon="-105.2300849">
  <ele>1583.11</ele>
  <time>2026-08-28T17:56:22Z</time>
  <course>148.32</course>
  <speed>3.6083929941180184</speed>
  <fix>3d</fix>
</trkpt>
<trkpt lat="40.0711704" lon="-105.2300895">
  <ele>1583.0</ele>
  <time>2026-08-28T17:56:22Z</time>
  <course>149.6</course>
  <speed>3.39</speed>
  <fix>3d</fix>
</trkpt>
<trkpt lat="40.0711627" lon="-105.2300825">
  <ele>1583.12</ele>
  <time>2026-08-28T17:56:22Z</time>
  <course>147.06</course>
  <speed>3.6955784391621296</speed>
  <fix>3d</fix>
</trkpt>
<trkpt lat="40.0711704" lon="-105.2300895">
  <ele>1583.0</ele>
  <time>2026-08-28T17:56:22Z</time>
  <course>149.6</course>
  <speed>3.39</speed>
  <fix>3d</fix>
</trkpt>
<trkpt lat="40.0711599" lon="-105.2300799">
  <ele>1583.12</ele>
  <time>2026-08-28T17:56:22Z</time>
  <course>146.0</course>
  <speed>3.7841907985723977</speed>
  <fix>3d</fix>
</trkpt>
<trkpt lat="40.0711651" lon="-105.2300852">
  <ele>1583.0</ele>
  <time>2026-08-28T17:56:22Z</time>
  <course>146.61</course>
  <speed>3.58</speed>
  <fix>3d</fix>
</trkpt>
<trkpt lat="40.0711566" lon="-105.2300768">
  <ele>1583.12</ele>
  <time>2026-08-28T17:56:22Z</time>
  <course>144.95</course>
  <speed>3.868074456367147</speed>
  <fix>3d</fix>
</trkpt>
<trkpt lat="40.0711651" lon="-105.2300852">
  <ele>1583.0</ele>
  <time>2026-08-28T17:56:22Z</time>
  <course>146.61</course>
  <speed>3.58</speed>
  <fix>3d</fix>
</trkpt>
<trkpt lat="40.0711538" lon="-105.230074">
  <ele>1583.12</ele>
  <time>2026-08-28T17:56:23Z</time>
  <course>144.26</course>
  <speed>3.9344885309274953</speed>
  <fix>3d</fix>
</trkpt>
<trkpt lat="40.0711597" lon="-105.2300803">
  <ele>1583.0</ele>
  <time>2026-08-28T17:56:23Z</time>
  <course>144.43</course>
  <speed>3.75</speed>
  <fix>3d</fix>
</trkpt>
<trkpt lat="40.071151" lon="-105.2300712">
  <ele>1583.12</ele>
  <time>2026-08-28T17:56:23Z</time>
  <course>143.73</course>
  <speed>3.9793592449036317</speed>
  <fix>3d</fix>
</trkpt>
<trkpt lat="40.0711597" lon="-105.2300803">
  <ele>1583.0</ele>
  <time>2026-08-28T17:56:23Z</time>
  <course>144.43</course>
  <speed>3.75</speed>
  <fix>3d</fix>
</trkpt>
<trkpt lat="40.0711482" lon="-105.2300684">
  <ele>1583.12</ele>
  <time>2026-08-28T17:56:23Z</time>
  <course>143.35</course>
  <speed>4.012106678541835</speed>
  <fix>3d</fix>
</trkpt>
<trkpt lat="40.0711541" lon="-105.230075">
  <ele>1583.0</ele>
  <time>2026-08-28T17:56:23Z</time>
  <course>142.94</course>
  <speed>3.88</speed>
  <fix>3d</fix>
</trkpt>
<trkpt lat="40.0711453" lon="-105.2300655">
  <ele>1583.12</ele>
  <time>2026-08-28T17:56:23Z</time>
  <course>143.12</course>
  <speed>4.0324310285484115</speed>
  <fix>3d</fix>
</trkpt>
<trkpt lat="40.0711541" lon="-105.230075">
  <ele>1583.0</ele>
  <time>2026-08-28T17:56:23Z</time>
  <course>142.94</course>
  <speed>3.88</speed>
  <fix>3d</fix>
</trkpt>
<trkpt lat="40.0711425" lon="-105.2300626">
  <ele>1583.12</ele>
  <time>2026-08-28T17:56:23Z</time>
  <course>142.98</course>
  <speed>4.04500927069395</speed>
  <fix>3d</fix>
</trkpt>
<trkpt lat="40.0711486" lon="-105.2300693">
  <ele>1583.0</ele>
  <time>2026-08-28T17:56:23Z</time>
  <course>142.08</course>
  <speed>3.96</speed>
  <fix>3d</fix>
</trkpt>
<trkpt lat="40.0711397" lon="-105.2300597">
  <ele>1583.12</ele>
  <time>2026-08-28T17:56:23Z</time>
  <course>142.78</course>
  <speed>4.04357515077932</speed>
  <fix>3d</fix>
</trkpt>
<trkpt lat="40.0711486" lon="-105.2300693">
  <ele>1583.0</ele>
  <time>2026-08-28T17:56:23Z</time>
  <course>142.08</course>
  <speed>3.96</speed>
  <fix>3d</fix>
</trkpt>
<trkpt lat="40.0711369" lon="-105.2300568">
  <ele>1583.13</ele>
  <time>2026-08-28T17:56:23Z</time>
  <course>142.48</course>
  <speed>4.034476422040411</speed>
  <fix>3d</fix>
</trkpt>
<trkpt lat="40.0711429" lon="-105.2300636">
  <ele>1583.0</ele>
  <time>2026-08-28T17:56:23Z</time>
  <course>141.6</course>
  <speed>3.99</speed>
  <fix>3d</fix>
</trkpt>
<trkpt lat="40.0711342" lon="-105.2300538">
  <ele>1583.13</ele>
  <time>2026-08-28T17:56:23Z</time>
  <course>142.06</course>
  <speed>4.017810348933857</speed>
  <fix>3d</fix>
</trkpt>
<trkpt lat="40.0711429" lon="-105.2300636">
  <ele>1583.0</ele>
  <time>2026-08-28T17:56:23Z</time>
  <course>141.6</course>
  <speed>3.99</speed>
  <fix>3d</fix>
</trkpt>
<trkpt lat="40.0711314" lon="-105.2300509">
  <ele>1583.13</ele>
  <time>2026-08-28T17:56:23Z</time>
  <course>141.52</course>
  <speed>4.007804885470349</speed>
  <fix>3d</fix>
</trkpt>
<trkpt lat="40.0711374" lon="-105.2300577">
  <ele>1583.0</ele>
  <time>2026-08-28T17:56:23Z</time>
  <course>141.02</course>
  <speed>4.0</speed>
  <fix>3d</fix>
</trkpt>
<trkpt lat="40.0711288" lon="-105.230048">
  <ele>1583.13</ele>
  <time>2026-08-28T17:56:23Z</time>
  <course>140.85</course>
  <speed>3.9830139341960633</speed>
  <fix>3d</fix>
</trkpt>
<trkpt lat="40.0711374" lon="-105.2300577">
  <ele>1583.0</ele>
  <time>2026-08-28T17:56:23Z</time>
  <course>141.02</course>
  <speed>4.0</speed>
  <fix>3d</fix>
</trkpt>
<trkpt lat="40.0711266" lon="-105.2300455">
  <ele>1583.13</ele>
  <time>2026-08-28T17:56:23Z</time>
  <course>140.22</course>
  <speed>3.952138661535043</speed>
  <fix>3d</fix>
</trkpt>
<trkpt lat="40.0711318" lon="-105.2300517">
  <ele>1583.0</ele>
  <time>2026-08-28T17:56:23Z</time>
  <course>139.97</course>
  <speed>3.97</speed>
  <fix>3d</fix>
</trkpt>
<trkpt lat="40.071124" lon="-105.2300425">
  <ele>1583.13</ele>
  <time>2026-08-28T17:56:23Z</time>
  <course>139.31</course>
  <speed>3.9204591567825315</speed>
  <fix>3d</fix>
</trkpt>
<trkpt lat="40.0711318" lon="-105.2300517">
  <ele>1583.0</ele>
  <time>2026-08-28T17:56:23Z</time>
  <course>139.97</course>
  <speed>3.97</speed>
  <fix>3d</fix>
</trkpt>
<trkpt lat="40.0711215" lon="-105.2300395">
  <ele>1583.14</ele>
  <time>2026-08-28T17:56:23Z</time>
  <course>138.24</course>
  <speed>3.882795384771131</speed>
  <fix>3d</fix>
</trkpt>
<trkpt lat="40.0711264" lon="-105.2300457">
  <ele>1583.0</ele>
  <time>2026-08-28T17:56:23Z</time>
  <course>138.41</course>
  <speed>3.93</speed>
  <fix>3d</fix>
</trkpt>
<trkpt lat="40.071119" lon="-105.2300364">
  <ele>1583.14</ele>
  <time>2026-08-28T17:56:23Z</time>
  <course>137.01</course>
  <speed>3.8395963329495983</speed>
  <fix>3d</fix>
</trkpt>
<trkpt lat="40.0711264" lon="-105.2300457">
  <ele>1583.0</ele>
  <time>2026-08-28T17:56:23Z</time>
  <course>138.41</course>
  <speed>3.93</speed>
  <fix>3d</fix>
</trkpt>
<trkpt lat="40.0711166" lon="-105.2300332">
  <ele>1583.14</ele>
  <time>2026-08-28T17:56:23Z</time>
  <course>135.62</course>
  <speed>3.791384971220939</speed>
  <fix>3d</fix>
</trkpt>
<trkpt lat="40.0711213" lon="-105.2300395">
  <ele>1583.0</ele>
  <time>2026-08-28T17:56:23Z</time>
  <course>136.26</course>
  <speed>3.86</speed>
  <fix>3d</fix>
</trkpt>
<trkpt lat="40.0711143" lon="-105.23003">
  <ele>1583.14</ele>
  <time>2026-08-28T17:56:23Z</time>
  <course>134.08</course>
  <speed>3.7387698511676266</speed>
  <fix>3d</fix>
</trkpt>
<trkpt lat="40.0711213" lon="-105.2300395">
  <ele>1583.0</ele>
  <time>2026-08-28T17:56:23Z</time>
  <course>136.26</course>
  <speed>3.86</speed>
  <fix>3d</fix>
</trkpt>
<trkpt lat="40.0711121" lon="-105.2300267">
  <ele>1583.14</ele>
  <time>2026-08-28T17:56:23Z</time>
  <course>132.51</course>
  <speed>3.6824584179593938</speed>
  <fix>3d</fix>
</trkpt>
<trkpt lat="40.0711164" lon="-105.2300332">
  <ele>1583.0</ele>
  <time>2026-08-28T17:56:23Z</time>
  <course>133.5</course>
  <speed>3.77</speed>
  <fix>3d</fix>
</trkpt>
<trkpt lat="40.07111" lon="-105.2300234">
  <ele>1583.14</ele>
  <time>2026-08-28T17:56:23Z</time>
  <course>130.89</course>
  <speed>3.63572551219148</speed>
  <fix>3d</fix>
</trkpt>
<trkpt lat="40.0711164" lon="-105.2300332">
  <ele>1583.0</ele>
  <time>2026-08-28T17:56:23Z</time>
  <course>133.5</course>
  <speed>3.77</speed>
  <fix>3d</fix>
</trkpt>
<trkpt lat="40.071108" lon="-105.2300201">
  <ele>1583.14</ele>
  <time>2026-08-28T17:56:23Z</time>
  <course>129.22</course>
  <speed>3.578002235885271</speed>
  <fix>3d</fix>
</trkpt>
<trkpt lat="40.0711119" lon="-105.2300267">
  <ele>1583.0</ele>
  <time>2026-08-28T17:56:23Z</time>
  <course>130.35</course>
  <speed>3.67</speed>
  <fix>3d</fix>
</trkpt>
<trkpt lat="40.0711062" lon="-105.2300167">
  <ele>1583.14</ele>
  <time>2026-08-28T17:56:23Z</time>
  <course>127.51</course>
  <speed>3.5235351566289217</speed>
  <fix>3d</fix>
</trkpt>
<trkpt lat="40.0711119" lon="-105.2300267">
  <ele>1583.0</ele>
  <time>2026-08-28T17:56:23Z</time>
  <course>130.35</course>
  <speed>3.67</speed>
  <fix>3d</fix>
</trkpt>
<trkpt lat="40.071104" lon="-105.2300126">
  <ele>1583.14</ele>
  <time>2026-08-28T17:56:23Z</time>
  <course>125.39</course>
  <speed>3.469899133980698</speed>
  <fix>3d</fix>
</trkpt>
<trkpt lat="40.0711079" lon="-105.23002">
  <ele>1583.0</ele>
  <time>2026-08-28T17:56:23Z</time>
  <course>127.02</course>
  <speed>3.56</speed>
  <fix>3d</fix>
</trkpt>
<trkpt lat="40.0711024" lon="-105.2300093">
  <ele>1583.14</ele>
  <time>2026-08-28T17:56:23Z</time>
  <course>123.59</course>
  <speed>3.4231272252138103</speed>
  <fix>3d</fix>
</trkpt>
<trkpt lat="40.0711079" lon="-105.23002">
  <ele>1583.0</ele>
  <time>2026-08-28T17:56:23Z</time>
  <course>127.02</course>
  <speed>3.56</speed>
  <fix>3d</fix>
</trkpt>
<trkpt lat="40.0711008" lon="-105.2300058">
  <ele>1583.14</ele>
  <time>2026-08-28T17:56:23Z</time>
  <course>121.74</course>
  <speed>3.3849815361387128</speed>
  <fix>3d</fix>
</trkpt>
<trkpt lat="40.0711042" lon="-105.2300133">
  <ele>1583.0</ele>
  <time>2026-08-28T17:56:23Z</time>
  <course>123.53</course>
  <speed>3.46</speed>
  <fix>3d</fix>
</trkpt>
<trkpt lat="40.0710994" lon="-105.2300024">
  <ele>1583.15</ele>
  <time>2026-08-28T17:56:23Z</time>
  <course>119.86</course>
  <speed>3.3455193916640207</speed>
  <fix>3d</fix>
</trkpt>
<trkpt lat="40.0711042" lon="-105.2300133">
  <ele>1583.0</ele>
  <time>2026-08-28T17:56:23Z</time>
  <course>123.53</course>
  <speed>3.46</speed>
  <fix>3d</fix>
</trkpt>
<trkpt lat="40.0710981" lon="-105.2299989">
  <ele>1583.15</ele>
  <time>2026-08-28T17:56:23Z</time>
  <course>117.95</course>
  <speed>3.31436268383531</speed>
  <fix>3d</fix>
</trkpt>
<trkpt lat="40.071101" lon="-105.2300064">
  <ele>1583.0</ele>
  <time>2026-08-28T17:56:23Z</time>
  <course>119.89</course>
  <speed>3.38</speed>
  <fix>3d</fix>
</trkpt>
<trkpt lat="40.0710968" lon="-105.2299954">
  <ele>1583.15</ele>
  <time>2026-08-28T17:56:23Z</time>
  <course>116.01</course>
  <speed>3.28271229321121</speed>
  <fix>3d</fix>
</trkpt>
<trkpt lat="40.071101" lon="-105.2300064">
  <ele>1583.0</ele>
  <time>2026-08-28T17:56:23Z</time>
  <course>119.89</course>
  <speed>3.38</speed>
  <fix>3d</fix>
</trkpt>
<trkpt lat="40.0710957" lon="-105.2299918">
  <ele>1583.15</ele>
  <time>2026-08-28T17:56:23Z</time>
  <course>114.03</course>
  <speed>3.258972230627318</speed>
  <fix>3d</fix>
</trkpt>
<trkpt lat="40.0710981" lon="-105.2299994">
  <ele>1583.0</ele>
  <time>2026-08-28T17:56:23Z</time>
  <course>116.12</course>
  <speed>3.31</speed>
  <fix>3d</fix>
</trkpt>
<trkpt lat="40.0710946" lon="-105.2299883">
  <ele>1583.16</ele>
  <time>2026-08-28T17:56:23Z</time>
  <course>112.06</course>
  <speed>3.2389195729440394</speed>
  <fix>3d</fix>
</trkpt>
<trkpt lat="40.0710981" lon="-105.2299994">
  <ele>1583.0</ele>
  <time>2026-08-28T17:56:23Z</time>
  <course>116.12</course>
  <speed>3.31</speed>
  <fix>3d</fix>
</trkpt>
<trkpt lat="40.0710937" lon="-105.2299847">
  <ele>1583.16</ele>
  <time>2026-08-28T17:56:23Z</time>
  <course>110.07</course>
  <speed>3.232150986572255</speed>
  <fix>3d</fix>
</trkpt>
<trkpt lat="40.0710957" lon="-105.2299924">
  <ele>1583.0</ele>
  <time>2026-08-28T17:56:23Z</time>
  <course>112.24</course>
  <speed>3.27</speed>
  <fix>3d</fix>
</trkpt>
<trkpt lat="40.0710928" lon="-105.2299811">
  <ele>1583.16</ele>
  <time>2026-08-28T17:56:23Z</time>
  <course>108.08</course>
  <speed>3.219767072320605</speed>
  <fix>3d</fix>
</trkpt>
<trkpt lat="40.0710957" lon="-105.2299924">
  <ele>1583.0</ele>
  <time>2026-08-28T17:56:23Z</time>
  <course>112.24</course>
  <speed>3.27</speed>
  <fix>3d</fix>
</trkpt>
<trkpt lat="40.0710921" lon="-105.2299775">
  <ele>1583.16</ele>
  <time>2026-08-28T17:56:23Z</time>
  <course>106.1</course>
  <speed>3.2209470656935673</speed>
  <fix>3d</fix>
</trkpt>
<trkpt lat="40.0710937" lon="-105.2299853">
  <ele>1583.0</ele>
  <time>2026-08-28T17:56:23Z</time>
  <course>108.3</course>
  <speed>3.24</speed>
  <fix>3d</fix>
</trkpt>
<trkpt lat="40.0710916" lon="-105.2299746">
  <ele>1583.16</ele>
  <time>2026-08-28T17:56:23Z</time>
  <course>104.51</course>
  <speed>3.222561093292104</speed>
  <fix>3d</fix>
</trkpt>
<trkpt lat="40.0710937" lon="-105.2299853">
  <ele>1583.0</ele>
  <time>2026-08-28T17:56:23Z</time>
  <course>108.3</course>
  <speed>3.24</speed>
  <fix>3d</fix>
</trkpt>
<trkpt lat="40.071091" lon="-105.2299709">
  <ele>1583.17</ele>
  <time>2026-08-28T17:56:23Z</time>
  <course>102.53</course>
  <speed>3.230681042752441</speed>
  <fix>3d</fix>
</trkpt>
<trkpt lat="40.0710921" lon="-105.2299779">
  <ele>1583.0</ele>
  <time>2026-08-28T17:56:23Z</time>
  <course>104.33</course>
  <speed>3.24</speed>
  <fix>3d</fix>
</trkpt>
<trkpt lat="40.0710905" lon="-105.2299671">
  <ele>1583.16</ele>
  <time>2026-08-28T17:56:23Z</time>
  <course>100.58</course>
  <speed>3.252691193458119</speed>
  <fix>3d</fix>
</trkpt>
<trkpt lat="40.0710921" lon="-105.2299779">
  <ele>1583.0</ele>
  <time>2026-08-28T17:56:23Z</time>
  <course>104.33</course>
  <speed>3.24</speed>
  <fix>3d</fix>
</trkpt>
<trkpt lat="40.0710901" lon="-105.2299633">
  <ele>1583.16</ele>
  <time>2026-08-28T17:56:23Z</time>
  <course>98.64</course>
  <speed>3.2687918257362303</speed>
  <fix>3d</fix>
</trkpt>
<trkpt lat="40.0710908" lon="-105.2299705">
  <ele>1583.0</ele>
  <time>2026-08-28T17:56:23Z</time>
  <course>100.38</course>
  <speed>3.26</speed>
  <fix>3d</fix>
</trkpt>
<trkpt lat="40.0710898" lon="-105.2299594">
  <ele>1583.16</ele>
  <time>2026-08-28T17:56:23Z</time>
  <course>96.73</course>
  <speed>3.2895136418625777</speed>
  <fix>3d</fix>
</trkpt>
<trkpt lat="40.0710908" lon="-105.2299705">
  <ele>1583.0</ele>
  <time>2026-08-28T17:56:23Z</time>
  <course>100.38</course>
  <speed>3.26</speed>
  <fix>3d</fix>
</trkpt>
<trkpt lat="40.0710896" lon="-105.2299555">
  <ele>1583.16</ele>
  <time>2026-08-28T17:56:23Z</time>
  <course>94.85</course>
  <speed>3.3129594021056157</speed>
  <fix>3d</fix>
</trkpt>
<trkpt lat="40.07109" lon="-105.2299629">
  <ele>1583.0</ele>
  <time>2026-08-28T17:56:23Z</time>
  <course>96.49</course>
  <speed>3.3</speed>
  <fix>3d</fix>
</trkpt>
<trkpt lat="40.0710895" lon="-105.2299516">
  <ele>1583.16</ele>
  <time>2026-08-28T17:56:23Z</time>
  <course>92.98</course>
  <speed>3.3501343256651666</speed>
  <fix>3d</fix>
</trkpt>
<trkpt lat="40.07109" lon="-105.2299629">
  <ele>1583.0</ele>
  <time>2026-08-28T17:56:23Z</time>
  <course>96.49</course>
  <speed>3.3</speed>
  <fix>3d</fix>
</trkpt>
<trkpt lat="40.0710895" lon="-105.2299476">
  <ele>1583.16</ele>
  <time>2026-08-28T17:56:23Z</time>
  <course>91.15</course>
  <speed>3.3807247743642193</speed>
  <fix>3d</fix>
</trkpt>
<trkpt lat="40.0710895" lon="-105.2299551">
  <ele>1583.0</ele>
  <time>2026-08-28T17:56:23Z</time>
  <course>92.69</course>
  <speed>3.35</speed>
  <fix>3d</fix>
</trkpt>
<trkpt lat="40.0710897" lon="-105.2299436">
  <ele>1583.15</ele>
  <time>2026-08-28T17:56:23Z</time>
  <course>89.36</course>
  <speed>3.4147474284344956</speed>
  <fix>3d</fix>
</trkpt>
<trkpt lat="40.0710895" lon="-105.2299551">
  <ele>1583.0</ele>
  <time>2026-08-28T17:56:23Z</time>
  <course>92.69</course>
  <speed>3.35</speed>
  <fix>3d</fix>
</trkpt>
<trkpt lat="40.0710898" lon="-105.2299395">
  <ele>1583.15</ele>
  <time>2026-08-28T17:56:23Z</time>
  <course>87.6</course>
  <speed>3.4613436697328974</speed>
  <fix>3d</fix>
</trkpt>
<trkpt lat="40.0710894" lon="-105.2299472">
  <ele>1583.0</ele>
  <time>2026-08-28T17:56:23Z</time>
  <course>89.01</course>
  <speed>3.41</speed>
  <fix>3d</fix>
</trkpt>
<trkpt lat="40.0710902" lon="-105.2299346">
  <ele>1583.15</ele>
  <time>2026-08-28T17:56:23Z</time>
  <course>85.53</course>
  <speed>3.5151813608973295</speed>
  <fix>3d</fix>
</trkpt>
<trkpt lat="40.0710894" lon="-105.2299472">
  <ele>1583.0</ele>
  <time>2026-08-28T17:56:23Z</time>
  <course>89.01</course>
  <speed>3.41</speed>
  <fix>3d</fix>
</trkpt>
<trkpt lat="40.0710906" lon="-105.2299305">
  <ele>1583.15</ele>
  <time>2026-08-28T17:56:23Z</time>
  <course>83.88</course>
  <speed>3.5582017930409737</speed>
  <fix>3d</fix>
</trkpt>
<trkpt lat="40.0710897" lon="-105.2299391">
  <ele>1583.0</ele>
  <time>2026-08-28T17:56:23Z</time>
  <course>85.48</course>
  <speed>3.49</speed>
  <fix>3d</fix>
</trkpt>
<trkpt lat="40.071091" lon="-105.2299263">
  <ele>1583.15</ele>
  <time>2026-08-28T17:56:23Z</time>
  <course>82.26</course>
  <speed>3.605468069474475</speed>
  <fix>3d</fix>
</trkpt>
<trkpt lat="40.0710897" lon="-105.2299391">
  <ele>1583.0</ele>
  <time>2026-08-28T17:56:23Z</time>
  <course>85.48</course>
  <speed>3.49</speed>
  <fix>3d</fix>
</trkpt>
<trkpt lat="40.0710916" lon="-105.229922">
  <ele>1583.15</ele>
  <time>2026-08-28T17:56:23Z</time>
  <course>80.7</course>
  <speed>3.6556805112044457</speed>
  <fix>3d</fix>
</trkpt>
<trkpt lat="40.0710904" lon="-105.2299308">
  <ele>1583.0</ele>
  <time>2026-08-28T17:56:23Z</time>
  <course>82.11</course>
  <speed>3.57</speed>
  <fix>3d</fix>
</trkpt>
<trkpt lat="40.0710923" lon="-105.2299178">
  <ele>1583.15</ele>
  <time>2026-08-28T17:56:23Z</time>
  <course>79.31</course>
  <speed>3.716180835212409</speed>
  <fix>3d</fix>
</trkpt>
<trkpt lat="40.0710904" lon="-105.2299308">
  <ele>1583.0</ele>
  <time>2026-08-28T17:56:23Z</time>
  <course>82.11</course>
  <speed>3.57</speed>
  <fix>3d</fix>
</trkpt>
<trkpt lat="40.0710931" lon="-105.2299134">
  <ele>1583.14</ele>
  <time>2026-08-28T17:56:23Z</time>
  <course>78.08</course>
  <speed>3.7763077205121935</speed>
  <fix>3d</fix>
</trkpt>
<trkpt lat="40.0710914" lon="-105.2299224">
  <ele>1583.0</ele>
  <time>2026-08-28T17:56:23Z</time>
  <course>79.02</course>
  <speed>3.67</speed>
  <fix>3d</fix>
</trkpt>
<trkpt lat="40.071094" lon="-105.2299091">
  <ele>1583.14</ele>
  <time>2026-08-28T17:56:23Z</time>
  <course>77.01</course>
  <speed>3.835374818710682</speed>
  <fix>3d</fix>
</trkpt>
<trkpt lat="40.0710914" lon="-105.2299224">
  <ele>1583.0</ele>
  <time>2026-08-28T17:56:23Z</time>
  <course>79.02</course>
  <speed>3.67</speed>
  <fix>3d</fix>
</trkpt>
<trkpt lat="40.0710949" lon="-105.2299047">
  <ele>1583.14</ele>
  <time>2026-08-28T17:56:23Z</time>
  <course>76.11</course>
  <speed>3.905201659325674</speed>
  <fix>3d</fix>
</trkpt>
<trkpt lat="40.0710928" lon="-105.2299138">
  <ele>1583.0</ele>
  <time>2026-08-28T17:56:23Z</time>
  <course>76.47</course>
  <speed>3.79</speed>
  <fix>3d</fix>
</trkpt>
<trkpt lat="40.0710959" lon="-105.2299003">
  <ele>1583.15</ele>
  <time>2026-08-28T17:56:23Z</time>
  <course>75.36</course>
  <speed>3.982674980462252</speed>
  <fix>3d</fix>
</trkpt>
<trkpt lat="40.0710928" lon="-105.2299138">
  <ele>1583.0</ele>
  <time>2026-08-28T17:56:23Z</time>
  <course>76.47</course>
  <speed>3.79</speed>
  <fix>3d</fix>
</trkpt>
<trkpt lat="40.0710969" lon="-105.2298958">
  <ele>1583.15</ele>
  <time>2026-08-28T17:56:23Z</time>
  <course>74.75</course>
  <speed>4.0577456795614975</speed>
  <fix>3d</fix>
</trkpt>
<trkpt lat="40.0710945" lon="-105.229905">
  <ele>1583.0</ele>
  <time>2026-08-28T17:56:23Z</time>
  <course>74.57</course>
  <speed>3.93</speed>
  <fix>3d</fix>
</trkpt>
<trkpt lat="40.071098" lon="-105.2298912">
  <ele>1583.15</ele>
  <time>2026-08-28T17:56:23Z</time>
  <course>74.28</course>
  <speed>4.139625586934161</speed>
  <fix>3d</fix>
</trkpt>
<trkpt lat="40.0710945" lon="-105.229905">
  <ele>1583.0</ele>
  <time>2026-08-28T17:56:23Z</time>
  <course>74.57</course>
  <speed>3.93</speed>
  <fix>3d</fix>
</trkpt>
<trkpt lat="40.0710989" lon="-105.2298874">
  <ele>1583.15</ele>
  <time>2026-08-28T17:56:23Z</time>
  <course>74.0</course>
  <speed>4.209049773998878</speed>
  <fix>3d</fix>
</trkpt>
<trkpt lat="40.0710965" lon="-105.229896">
  <ele>1583.0</ele>
  <time>2026-08-28T17:56:23Z</time>
  <course>73.28</course>
  <speed>4.09</speed>
  <fix>3d</fix>
</trkpt>
<trkpt lat="40.0711" lon="-105.2298826">
  <ele>1583.15</ele>
  <time>2026-08-28T17:56:23Z</time>
  <course>73.78</course>
  <speed>4.307040747427402</speed>
  <fix>3d</fix>
</trkpt>
<trkpt lat="40.0710965" lon="-105.229896">
  <ele>1583.0</ele>
  <time>2026-08-28T17:56:23Z</time>
  <course>73.28</course>
  <speed>4.09</speed>
  <fix>3d</fix>
</trkpt>
<trkpt lat="40.0711012" lon="-105.2298777">
  <ele>1583.16</ele>
  <time>2026-08-28T17:56:23Z</time>
  <course>73.65</course>
  <speed>4.405053915674586</speed>
  <fix>3d</fix>
</trkpt>
<trkpt lat="40.0710987" lon="-105.2298867">
  <ele>1583.0</ele>
  <time>2026-08-28T17:56:23Z</time>
  <course>72.54</course>
  <speed>4.26</speed>
  <fix>3d</fix>
</trkpt>
<trkpt lat="40.0711025" lon="-105.2298727">
  <ele>1583.15</ele>
  <time>2026-08-28T17:56:23Z</time>
  <course>73.58</course>
  <speed>4.499922221550057</speed>
  <fix>3d</fix>
</trkpt>
<trkpt lat="40.0710987" lon="-105.2298867">
  <ele>1583.0</ele>
  <time>2026-08-28T17:56:23Z</time>
  <course>72.54</course>
  <speed>4.26</speed>
  <fix>3d</fix>
</trkpt>
<trkpt lat="40.0711037" lon="-105.2298676">
  <ele>1583.15</ele>
  <time>2026-08-28T17:56:23Z</time>
  <course>73.53</course>
  <speed>4.594790528413673</speed>
  <fix>3d</fix>
</trkpt>
<trkpt lat="40.0711011" lon="-105.2298768">
  <ele>1583.0</ele>
  <time>2026-08-28T17:56:23Z</time>
  <course>72.22</course>
  <speed>4.45</speed>
  <fix>3d</fix>
</trkpt>
<trkpt lat="40.071105" lon="-105.2298623">
  <ele>1583.15</ele>
  <time>2026-08-28T17:56:23Z</time>
  <course>73.48</course>
  <speed>4.689658836205465</speed>
  <fix>3d</fix>
</trkpt>
<trkpt lat="40.0711011" lon="-105.2298768">
  <ele>1583.0</ele>
  <time>2026-08-28T17:56:23Z</time>
  <course>72.22</course>
  <speed>4.45</speed>
  <fix>3d</fix>
</trkpt>
<trkpt lat="40.0711063" lon="-105.2298569">
  <ele>1583.15</ele>
  <time>2026-08-28T17:56:23Z</time>
  <course>73.42</course>
  <speed>4.771886419436238</speed>
  <fix>3d</fix>
</trkpt>
<trkpt lat="40.0711036" lon="-105.2298667">
  <ele>1583.0</ele>
  <time>2026-08-28T17:56:23Z</time>
  <course>72.07</course>
  <speed>4.64</speed>
  <fix>3d</fix>
</trkpt>
<trkpt lat="40.0711077" lon="-105.2298515">
  <ele>1583.15</ele>
  <time>2026-08-28T17:56:23Z</time>
  <course>73.37</course>
  <speed>4.8477726844397315</speed>
  <fix>3d</fix>
</trkpt>
<trkpt lat="40.0711036" lon="-105.2298667">
  <ele>1583.0</ele>
  <time>2026-08-28T17:56:23Z</time>
  <course>72.07</course>
  <speed>4.64</speed>
  <fix>3d</fix>
</trkpt>
<trkpt lat="40.071109" lon="-105.229846">
  <ele>1583.15</ele>
  <time>2026-08-28T17:56:23Z</time>
  <course>73.32</course>
  <speed>4.911018224360403</speed>
  <fix>3d</fix>
</trkpt>
<trkpt lat="40.0711062" lon="-105.2298561">
  <ele>1583.0</ele>
  <time>2026-08-28T17:56:23Z</time>
  <course>71.94</course>
  <speed>4.81</speed>
  <fix>3d</fix>
</trkpt>
<trkpt lat="40.0711107" lon="-105.2298393">
  <ele>1583.15</ele>
  <time>2026-08-28T17:56:23Z</time>
  <course>73.24</course>
  <speed>4.974263764618841</speed>
  <fix>3d</fix>
</trkpt>
<trkpt lat="40.0711062" lon="-105.2298561">
  <ele>1583.0</ele>
  <time>2026-08-28T17:56:23Z</time>
  <course>71.94</course>
  <speed>4.81</speed>
  <fix>3d</fix>
</trkpt>
<trkpt lat="40.0711121" lon="-105.2298336">
  <ele>1583.15</ele>
  <time>2026-08-28T17:56:23Z</time>
  <course>73.2</course>
  <speed>5.005886534870722</speed>
  <fix>3d</fix>
</trkpt>
<trkpt lat="40.0711089" lon="-105.2298452">
  <ele>1583.0</ele>
  <time>2026-08-28T17:56:23Z</time>
  <course>71.81</course>
  <speed>4.94</speed>
  <fix>3d</fix>
</trkpt>
<trkpt lat="40.0711135" lon="-105.229828">
  <ele>1583.15</ele>
  <time>2026-08-28T17:56:23Z</time>
  <course>73.16</course>
  <speed>5.028021479667723</speed>
  <fix>3d</fix>
</trkpt>
<trkpt lat="40.0711089" lon="-105.2298452">
  <ele>1583.0</ele>
  <time>2026-08-28T17:56:23Z</time>
  <course>71.81</course>
  <speed>4.94</speed>
  <fix>3d</fix>
</trkpt>
<trkpt lat="40.0711149" lon="-105.2298224">
  <ele>1583.15</ele>
  <time>2026-08-28T17:56:23Z</time>
  <course>73.16</course>
  <speed>5.037509305202324</speed>
  <fix>3d</fix>
</trkpt>
<trkpt lat="40.0711118" lon="-105.2298342">
  <ele>1583.0</ele>
  <time>2026-08-28T17:56:23Z</time>
  <course>71.7</course>
  <speed>5.02</speed>
  <fix>3d</fix>
</trkpt>
<trkpt lat="40.0711163" lon="-105.2298167">
  <ele>1583.15</ele>
  <time>2026-08-28T17:56:23Z</time>
  <course>73.14</course>
  <speed>5.037509305202324</speed>
  <fix>3d</fix>
</trkpt>
<trkpt lat="40.0711118" lon="-105.2298342">
  <ele>1583.0</ele>
  <time>2026-08-28T17:56:23Z</time>
  <course>71.7</course>
  <speed>5.02</speed>
  <fix>3d</fix>
</trkpt>
<trkpt lat="40.0711177" lon="-105.2298111">
  <ele>1583.16</ele>
  <time>2026-08-28T17:56:23Z</time>
  <course>73.14</course>
  <speed>5.037509305202324</speed>
  <fix>3d</fix>
</trkpt>
<trkpt lat="40.0711146" lon="-105.2298229">
  <ele>1583.0</ele>
  <time>2026-08-28T17:56:23Z</time>
  <course>71.66</course>
  <speed>5.04</speed>
  <fix>3d</fix>
</trkpt>
<trkpt lat="40.0711192" lon="-105.2298054">
  <ele>1583.16</ele>
  <time>2026-08-28T17:56:23Z</time>
  <course>73.13</course>
  <speed>5.037509305202324</speed>
  <fix>3d</fix>
</trkpt>
<trkpt lat="40.0711146" lon="-105.2298229">
  <ele>1583.0</ele>
  <time>2026-08-28T17:56:23Z</time>
  <course>71.66</course>
  <speed>5.04</speed>
  <fix>3d</fix>
</trkpt>
<trkpt lat="40.0711206" lon="-105.2297998">
  <ele>1583.16</ele>
  <time>2026-08-28T17:56:23Z</time>
  <course>73.14</course>
  <speed>5.024868157474383</speed>
  <fix>3d</fix>
</trkpt>
<trkpt lat="40.0711175" lon="-105.2298116">
  <ele>1583.0</ele>
  <time>2026-08-28T17:56:23Z</time>
  <course>71.66</course>
  <speed>5.05</speed>
  <fix>3d</fix>
</trkpt>
<trkpt lat="40.071122" lon="-105.2297942">
  <ele>1583.16</ele>
  <time>2026-08-28T17:56:23Z</time>
  <course>73.14</course>
  <speed>5.0153763567652625</speed>
  <fix>3d</fix>
</trkpt>
<trkpt lat="40.0711175" lon="-105.2298116">
  <ele>1583.0</ele>
  <time>2026-08-28T17:56:23Z</time>
  <course>71.66</course>
  <speed>5.05</speed>
  <fix>3d</fix>
</trkpt>
<trkpt lat="40.0711234" lon="-105.2297887">
  <ele>1583.16</ele>
  <time>2026-08-28T17:56:23Z</time>
  <course>73.14</course>
  <speed>5.0153763567652625</speed>
  <fix>3d</fix>
</trkpt>
<trkpt lat="40.0711204" lon="-105.2298003">
  <ele>1583.0</ele>
  <time>2026-08-28T17:56:23Z</time>
  <course>71.66</course>
  <speed>5.05</speed>
  <fix>3d</fix>
</trkpt>
<trkpt lat="40.0711248" lon="-105.2297831">
  <ele>1583.17</ele>
  <time>2026-08-28T17:56:23Z</time>
  <course>73.15</course>
  <speed>5.0153763567652625</speed>
  <fix>3d</fix>
</trkpt>
<trkpt lat="40.0711204" lon="-105.2298003">
  <ele>1583.0</ele>
  <time>2026-08-28T17:56:23Z</time>
  <course>71.66</course>
  <speed>5.05</speed>
  <fix>3d</fix>
</trkpt>
<trkpt lat="40.0711262" lon="-105.2297775">
  <ele>1583.17</ele>
  <time>2026-08-28T17:56:23Z</time>
  <course>73.15</course>
  <speed>5.005886534870722</speed>
  <fix>3d</fix>
</trkpt>
<trkpt lat="40.0711232" lon="-105.2297891">
  <ele>1583.0</ele>
  <time>2026-08-28T17:56:23Z</time>
  <course>71.66</course>
  <speed>5.05</speed>
  <fix>3d</fix>
</trkpt>
<trkpt lat="40.0711273" lon="-105.2297731">
  <ele>1583.17</ele>
  <time>2026-08-28T17:56:23Z</time>
  <course>73.15</course>
  <speed>5.005886534870722</speed>
  <fix>3d</fix>
</trkpt>
<trkpt lat="40.0711232" lon="-105.2297891">
  <ele>1583.0</ele>
  <time>2026-08-28T17:56:23Z</time>
  <course>71.66</course>
  <speed>5.05</speed>
  <fix>3d</fix>
</trkpt>
<trkpt lat="40.0711287" lon="-105.2297675">
  <ele>1583.17</ele>
  <time>2026-08-28T17:56:23Z</time>
  <course>73.14</course>
  <speed>5.005886534870722</speed>
  <fix>3d</fix>
</trkpt>
<trkpt lat="40.0711261" lon="-105.2297778">
  <ele>1583.0</ele>
  <time>2026-08-28T17:56:23Z</time>
  <course>71.66</course>
  <speed>5.05</speed>
  <fix>3d</fix>
</trkpt>
<trkpt lat="40.0711302" lon="-105.2297618">
  <ele>1583.17</ele>
  <time>2026-08-28T17:56:23Z</time>
  <course>73.13</course>
  <speed>5.005886534870722</speed>
  <fix>3d</fix>
</trkpt>
<trkpt lat="40.0711261" lon="-105.2297778">
  <ele>1583.0</ele>
  <time>2026-08-28T17:56:23Z</time>
  <course>71.66</course>
  <speed>5.05</speed>
  <fix>3d</fix>
</trkpt>
<trkpt lat="40.0711316" lon="-105.2297562">
  <ele>1583.17</ele>
  <time>2026-08-28T17:56:23Z</time>
  <course>73.12</course>
  <speed>5.005886534870722</speed>
  <fix>3d</fix>
</trkpt>
<trkpt lat="40.0711289" lon="-105.2297666">
  <ele>1583.0</ele>
  <time>2026-08-28T17:56:23Z</time>
  <course>71.66</course>
  <speed>5.05</speed>
  <fix>3d</fix>
</trkpt>
<trkpt lat="40.071133" lon="-105.2297506">
  <ele>1583.18</ele>
  <time>2026-08-28T17:56:23Z</time>
  <course>73.11</course>
  <speed>5.005886534870722</speed>
  <fix>3d</fix>
</trkpt>
<trkpt lat="40.0711289" lon="-105.2297666">
  <ele>1583.0</ele>
  <time>2026-08-28T17:56:23Z</time>
  <course>71.66</course>
  <speed>5.05</speed>
  <fix>3d</fix>
</trkpt>
<trkpt lat="40.0711344" lon="-105.2297449">
  <ele>1583.18</ele>
  <time>2026-08-28T17:56:23Z</time>
  <course>73.1</course>
  <speed>4.996398703066039</speed>
  <fix>3d</fix>
</trkpt>
<trkpt lat="40.0711318" lon="-105.2297553">
  <ele>1583.0</ele>
  <time>2026-08-28T17:56:23Z</time>
  <course>71.66</course>
  <speed>5.05</speed>
  <fix>3d</fix>
</trkpt>
<trkpt lat="40.0711359" lon="-105.2297393">
  <ele>1583.18</ele>
  <time>2026-08-28T17:56:23Z</time>
  <course>73.1</course>
  <speed>4.996398703066039</speed>
  <fix>3d</fix>
</trkpt>
<trkpt lat="40.0711318" lon="-105.2297553">
  <ele>1583.0</ele>
  <time>2026-08-28T17:56:23Z</time>
  <course>71.66</course>
  <speed>5.05</speed>
  <fix>3d</fix>
</trkpt>
<trkpt lat="40.0711373" lon="-105.2297336">
  <ele>1583.18</ele>
  <time>2026-08-28T17:56:23Z</time>
  <course>73.09</course>
  <speed>4.996398703066039</speed>
  <fix>3d</fix>
</trkpt>
<trkpt lat="40.0711346" lon="-105.2297441">
  <ele>1583.0</ele>
  <time>2026-08-28T17:56:23Z</time>
  <course>71.66</course>
  <speed>5.05</speed>
  <fix>3d</fix>
</trkpt>
<trkpt lat="40.0711387" lon="-105.229728">
  <ele>1583.18</ele>
  <time>2026-08-28T17:56:23Z</time>
  <course>73.09</course>
  <speed>4.993245437588663</speed>
  <fix>3d</fix>
</trkpt>
<trkpt lat="40.0711346" lon="-105.2297441">
  <ele>1583.0</ele>
  <time>2026-08-28T17:56:23Z</time>
  <course>71.66</course>
  <speed>5.05</speed>
  <fix>3d</fix>
</trkpt>
<trkpt lat="40.0711404" lon="-105.2297212">
  <ele>1583.18</ele>
  <time>2026-08-28T17:56:23Z</time>
  <course>73.09</course>
  <speed>4.993245437588663</speed>
  <fix>3d</fix>
</trkpt>
<trkpt lat="40.0711375" lon="-105.2297328">
  <ele>1583.0</ele>
  <time>2026-08-28T17:56:23Z</time>
  <course>71.66</course>
  <speed>5.04</speed>
  <fix>3d</fix>
</trkpt>
<trkpt lat="40.0711419" lon="-105.2297156">
  <ele>1583.18</ele>
  <time>2026-08-28T17:56:23Z</time>
  <course>73.09</course>
  <speed>4.993245437588663</speed>
  <fix>3d</fix>
</trkpt>
<trkpt lat="40.0711375" lon="-105.2297328">
  <ele>1583.0</ele>
  <time>2026-08-28T17:56:23Z</time>
  <course>71.66</course>
  <speed>5.04</speed>
  <fix>3d</fix>
</trkpt>
<trkpt lat="40.0711433" lon="-105.22971">
  <ele>1583.17</ele>
  <time>2026-08-28T17:56:23Z</time>
  <course>73.09</course>
  <speed>4.993245437588663</speed>
  <fix>3d</fix>
</trkpt>
<trkpt lat="40.0711404" lon="-105.2297216">
  <ele>1583.0</ele>
  <time>2026-08-28T17:56:23Z</time>
  <course>71.66</course>
  <speed>5.04</speed>
  <fix>3d</fix>
</trkpt>
<trkpt lat="40.0711447" lon="-105.2297043">
  <ele>1583.17</ele>
  <time>2026-08-28T17:56:23Z</time>
  <course>73.09</course>
  <speed>4.993245437588663</speed>
  <fix>3d</fix>
</trkpt>
<trkpt lat="40.0711404" lon="-105.2297216">
  <ele>1583.0</ele>
  <time>2026-08-28T17:56:23Z</time>
  <course>71.66</course>
  <speed>5.04</speed>
  <fix>3d</fix>
</trkpt>
<trkpt lat="40.0711461" lon="-105.2296987">
  <ele>1583.17</ele>
  <time>2026-08-28T17:56:23Z</time>
  <course>73.08</course>
  <speed>4.999609984788814</speed>
  <fix>3d</fix>
</trkpt>
<trkpt lat="40.0711432" lon="-105.2297103">
  <ele>1583.0</ele>
  <time>2026-08-28T17:56:23Z</time>
  <course>71.66</course>
  <speed>5.04</speed>
  <fix>3d</fix>
</trkpt>
<trkpt lat="40.0711476" lon="-105.229693">
  <ele>1583.16</ele>
  <time>2026-08-28T17:56:23Z</time>
  <course>73.07</course>
  <speed>4.999609984788814</speed>
  <fix>3d</fix>
</trkpt>
<trkpt lat="40.0711432" lon="-105.2297103">
  <ele>1583.0</ele>
  <time>2026-08-28T17:56:23Z</time>
  <course>71.66</course>
  <speed>5.04</speed>
  <fix>3d</fix>
</trkpt>
<trkpt lat="40.071149" lon="-105.2296874">
  <ele>1583.16</ele>
  <time>2026-08-28T17:56:23Z</time>
  <course>73.06</course>
  <speed>4.999609984788814</speed>
  <fix>3d</fix>
</trkpt>
<trkpt lat="40.071146" lon="-105.229699">
  <ele>1583.0</ele>
  <time>2026-08-28T17:56:23Z</time>
  <course>71.66</course>
  <speed>5.04</speed>
  <fix>3d</fix>
</trkpt>
<trkpt lat="40.0711504" lon="-105.2296818">
  <ele>1583.16</ele>
  <time>2026-08-28T17:56:23Z</time>
  <course>73.05</course>
  <speed>4.999609984788814</speed>
  <fix>3d</fix>
</trkpt>
<trkpt lat="40.071146" lon="-105.229699">
  <ele>1583.0</ele>
  <time>2026-08-28T17:56:23Z</time>
  <course>71.66</course>
  <speed>5.04</speed>
  <fix>3d</fix>
</trkpt>
<trkpt lat="40.0711518" lon="-105.2296762">
  <ele>1583.15</ele>
  <time>2026-08-28T17:56:23Z</time>
  <course>73.05</course>
  <speed>4.999609984788814</speed>
  <fix>3d</fix>
</trkpt>
<trkpt lat="40.0711489" lon="-105.2296877">
  <ele>1583.0</ele>
  <time>2026-08-28T17:56:23Z</time>
  <course>71.66</course>
  <speed>5.04</speed>
  <fix>3d</fix>
</trkpt>
<trkpt lat="40.0711532" lon="-105.2296706">
  <ele>1583.15</ele>
  <time>2026-08-28T17:56:23Z</time>
  <course>73.05</course>
  <speed>4.999609984788814</speed>
  <fix>3d</fix>
</trkpt>
<trkpt lat="40.0711489" lon="-105.2296877">
  <ele>1583.0</ele>
  <time>2026-08-28T17:56:23Z</time>
  <course>71.66</course>
  <speed>5.04</speed>
  <fix>3d</fix>
</trkpt>
<trkpt lat="40.0711546" lon="-105.2296651">
  <ele>1583.15</ele>
  <time>2026-08-28T17:56:23Z</time>
  <course>73.05</course>
  <speed>4.999609984788814</speed>
  <fix>3d</fix>
</trkpt>
<trkpt lat="40.0711517" lon="-105.2296766">
  <ele>1583.0</ele>
  <time>2026-08-28T17:56:23Z</time>
  <course>71.66</course>
  <speed>5.04</speed>
  <fix>3d</fix>
</trkpt>
<trkpt lat="40.071156" lon="-105.2296594">
  <ele>1583.15</ele>
  <time>2026-08-28T17:56:23Z</time>
  <course>73.06</course>
  <speed>4.99011021922362</speed>
  <fix>3d</fix>
</trkpt>
<trkpt lat="40.0711517" lon="-105.2296766">
  <ele>1583.0</ele>
  <time>2026-08-28T17:56:23Z</time>
  <course>71.66</course>
  <speed>5.04</speed>
  <fix>3d</fix>
</trkpt>
<trkpt lat="40.0711571" lon="-105.229655">
  <ele>1583.15</ele>
  <time>2026-08-28T17:56:23Z</time>
  <course>73.06</course>
  <speed>4.999609984788814</speed>
  <fix>3d</fix>
</trkpt>
<trkpt lat="40.0711546" lon="-105.2296653">
  <ele>1583.0</ele>
  <time>2026-08-28T17:56:23Z</time>
  <course>71.66</course>
  <speed>5.05</speed>
  <fix>3d</fix>
</trkpt>
<trkpt lat="40.0711585" lon="-105.2296493">
  <ele>1583.15</ele>
  <time>2026-08-28T17:56:23Z</time>
  <course>73.06</course>
  <speed>4.999609984788814</speed>
  <fix>3d</fix>
</trkpt>
<trkpt lat="40.0711546" lon="-105.2296653">
  <ele>1583.0</ele>
  <time>2026-08-28T17:56:23Z</time>
  <course>71.66</course>
  <speed>5.05</speed>
  <fix>3d</fix>
</trkpt>
<trkpt lat="40.07116" lon="-105.2296437">
  <ele>1583.15</ele>
  <time>2026-08-28T17:56:23Z</time>
  <course>73.05</course>
  <speed>4.999609984788814</speed>
  <fix>3d</fix>
</trkpt>
<trkpt lat="40.0711575" lon="-105.229654">
  <ele>1583.0</ele>
  <time>2026-08-28T17:56:23Z</time>
  <course>71.66</course>
  <speed>5.05</speed>
  <fix>3d</fix>
</trkpt>
<trkpt lat="40.0711614" lon="-105.2296381">
  <ele>1583.15</ele>
  <time>2026-08-28T17:56:23Z</time>
  <course>73.04</course>
  <speed>4.999609984788814</speed>
  <fix>3d</fix>
</trkpt>
<trkpt lat="40.0711575" lon="-105.229654">
  <ele>1583.0</ele>
  <time>2026-08-28T17:56:23Z</time>
  <course>71.66</course>
  <speed>5.05</speed>
  <fix>3d</fix>
</trkpt>
<trkpt lat="40.0711628" lon="-105.2296324">
  <ele>1583.15</ele>
  <time>2026-08-28T17:56:23Z</time>
  <course>73.03</course>
  <speed>4.999609984788814</speed>
  <fix>3d</fix>
</trkpt>
<trkpt lat="40.0711603" lon="-105.2296427">
  <ele>1583.0</ele>
  <time>2026-08-28T17:56:23Z</time>
  <course>71.66</course>
  <speed>5.05</speed>
  <fix>3d</fix>
</trkpt>
<trkpt lat="40.0711643" lon="-105.2296267">
  <ele>1583.15</ele>
  <time>2026-08-28T17:56:23Z</time>
  <course>73.02</course>
  <speed>4.999609984788814</speed>
  <fix>3d</fix>
</trkpt>
<trkpt lat="40.0711603" lon="-105.2296427">
  <ele>1583.0</ele>
  <time>2026-08-28T17:56:23Z</time>
  <course>71.66</course>
  <speed>5.05</speed>
  <fix>3d</fix>
</trkpt>
<trkpt lat="40.0711657" lon="-105.2296211">
  <ele>1583.15</ele>
  <time>2026-08-28T17:56:23Z</time>
  <course>73.0</course>
  <speed>4.999609984788814</speed>
  <fix>3d</fix>
</trkpt>
<trkpt lat="40.0711632" lon="-105.2296315">
  <ele>1583.0</ele>
  <time>2026-08-28T17:56:23Z</time>
  <course>71.66</course>
  <speed>5.05</speed>
  <fix>3d</fix>
</trkpt>
<trkpt lat="40.0711671" lon="-105.2296154">
  <ele>1583.15</ele>
  <time>2026-08-28T17:56:23Z</time>
  <course>72.99</course>
  <speed>4.999609984788814</speed>
  <fix>3d</fix>
</trkpt>
<trkpt lat="40.0711632" lon="-105.2296315">
  <ele>1583.0</ele>
  <time>2026-08-28T17:56:23Z</time>
  <course>71.66</course>
  <speed>5.05</speed>
  <fix>3d</fix>
</trkpt>
<trkpt lat="40.0711686" lon="-105.2296098">
  <ele>1583.15</ele>
  <time>2026-08-28T17:56:23Z</time>
  <course>72.98</course>
  <speed>4.999609984788814</speed>
  <fix>3d</fix>
</trkpt>
<trkpt lat="40.071166" lon="-105.2296202">
  <ele>1583.0</ele>
  <time>2026-08-28T17:56:23Z</time>
  <course>71.66</course>
  <speed>5.05</speed>
  <fix>3d</fix>
</trkpt>
<trkpt lat="40.0711703" lon="-105.229603">
  <ele>1583.15</ele>
  <time>2026-08-28T17:56:23Z</time>
  <course>72.97</course>
  <speed>4.999609984788814</speed>
  <fix>3d</fix>
</trkpt>
<trkpt lat="40.071166" lon="-105.2296202">
  <ele>1583.0</ele>
  <time>2026-08-28T17:56:23Z</time>
  <course>71.66</course>
  <speed>5.05</speed>
  <fix>3d</fix>
</trkpt>
<trkpt lat="40.0711717" lon="-105.2295973">
  <ele>1583.15</ele>
  <time>2026-08-28T17:56:23Z</time>
  <course>72.97</course>
  <speed>4.999609984788814</speed>
  <fix>3d</fix>
</trkpt>
<trkpt lat="40.0711689" lon="-105.229609">
  <ele>1583.0</ele>
  <time>2026-08-28T17:56:23Z</time>
  <course>71.66</course>
  <speed>5.05</speed>
  <fix>3d</fix>
</trkpt>
<trkpt lat="40.0711731" lon="-105.2295917">
  <ele>1583.15</ele>
  <time>2026-08-28T17:56:23Z</time>
  <course>72.97</course>
  <speed>4.996498774141749</speed>
  <fix>3d</fix>
</trkpt>
<trkpt lat="40.0711689" lon="-105.229609">
  <ele>1583.0</ele>
  <time>2026-08-28T17:56:23Z</time>
  <course>71.66</course>
  <speed>5.05</speed>
  <fix>3d</fix>
</trkpt>
<trkpt lat="40.0711746" lon="-105.2295861">
  <ele>1583.15</ele>
  <time>2026-08-28T17:56:23Z</time>
  <course>72.97</course>
  <speed>4.996498774141749</speed>
  <fix>3d</fix>
</trkpt>
<trkpt lat="40.0711718" lon="-105.2295977">
  <ele>1583.0</ele>
  <time>2026-08-28T17:56:23Z</time>
  <course>71.66</course>
  <speed>5.04</speed>
  <fix>3d</fix>
</trkpt>
<trkpt lat="40.071176" lon="-105.2295804">
  <ele>1583.15</ele>
  <time>2026-08-28T17:56:23Z</time>
  <course>72.97</course>
  <speed>4.996498774141749</speed>
  <fix>3d</fix>
</trkpt>
<trkpt lat="40.0711718" lon="-105.2295977">
  <ele>1583.0</ele>
  <time>2026-08-28T17:56:23Z</time>
  <course>71.66</course>
  <speed>5.04</speed>
  <fix>3d</fix>
</trkpt>
<trkpt lat="40.0711774" lon="-105.2295748">
  <ele>1583.15</ele>
  <time>2026-08-28T17:56:23Z</time>
  <course>72.97</course>
  <speed>4.996498774141749</speed>
  <fix>3d</fix>
</trkpt>
<trkpt lat="40.0711746" lon="-105.2295865">
  <ele>1583.0</ele>
  <time>2026-08-28T17:56:23Z</time>
  <course>71.66</course>
  <speed>5.04</speed>
  <fix>3d</fix>
</trkpt>
<trkpt lat="40.0711788" lon="-105.2295692">
  <ele>1583.15</ele>
  <time>2026-08-28T17:56:23Z</time>
  <course>72.97</course>
  <speed>4.9869930820084365</speed>
  <fix>3d</fix>
</trkpt>
<trkpt lat="40.0711746" lon="-105.2295865">
  <ele>1583.0</ele>
  <time>2026-08-28T17:56:23Z</time>
  <course>71.66</course>
  <speed>5.04</speed>
  <fix>3d</fix>
</trkpt>
<trkpt lat="40.0711802" lon="-105.2295636">
  <ele>1583.15</ele>
  <time>2026-08-28T17:56:23Z</time>
  <course>72.96</course>
  <speed>4.974384384021806</speed>
  <fix>3d</fix>
</trkpt>
<trkpt lat="40.0711775" lon="-105.2295752">
  <ele>1583.0</ele>
  <time>2026-08-28T17:56:23Z</time>
  <course>71.66</course>
  <speed>5.04</speed>
  <fix>3d</fix>
</trkpt>
<trkpt lat="40.0711816" lon="-105.2295581">
  <ele>1583.15</ele>
  <time>2026-08-28T17:56:23Z</time>
  <course>72.96</course>
  <speed>4.942762385549198</speed>
  <fix>3d</fix>
</trkpt>
<trkpt lat="40.0711775" lon="-105.2295752">
  <ele>1583.0</ele>
  <time>2026-08-28T17:56:23Z</time>
  <course>71.66</course>
  <speed>5.04</speed>
  <fix>3d</fix>
</trkpt>
<trkpt lat="40.071183" lon="-105.2295526">
  <ele>1583.15</ele>
  <time>2026-08-28T17:56:23Z</time>
  <course>72.95</course>
  <speed>4.911140397097196</speed>
  <fix>3d</fix>
</trkpt>
<trkpt lat="40.0711803" lon="-105.229564">
  <ele>1583.0</ele>
  <time>2026-08-28T17:56:23Z</time>
  <course>71.66</course>
  <speed>5.01</speed>
  <fix>3d</fix>
</trkpt>
<trkpt lat="40.0711844" lon="-105.2295472">
  <ele>1583.15</ele>
  <time>2026-08-28T17:56:23Z</time>
  <course>72.95</course>
  <speed>4.857406715522183</speed>
  <fix>3d</fix>
</trkpt>
<trkpt lat="40.0711803" lon="-105.229564">
  <ele>1583.0</ele>
  <time>2026-08-28T17:56:23Z</time>
  <course>71.66</course>
  <speed>5.01</speed>
  <fix>3d</fix>
</trkpt>
<trkpt lat="40.0711855" lon="-105.2295428">
  <ele>1583.15</ele>
  <time>2026-08-28T17:56:23Z</time>
  <course>72.95</course>
  <speed>4.806766064621827</speed>
  <fix>3d</fix>
</trkpt>
<trkpt lat="40.0711831" lon="-105.2295529">
  <ele>1583.0</ele>
  <time>2026-08-28T17:56:23Z</time>
  <course>71.66</course>
  <speed>4.94</speed>
  <fix>3d</fix>
</trkpt>
<trkpt lat="40.0711868" lon="-105.2295375">
  <ele>1583.16</ele>
  <time>2026-08-28T17:56:23Z</time>
  <course>72.96</course>
  <speed>4.74352189833672</speed>
  <fix>3d</fix>
</trkpt>
<trkpt lat="40.0711831" lon="-105.2295529">
  <ele>1583.0</ele>
  <time>2026-08-28T17:56:23Z</time>
  <course>71.66</course>
  <speed>4.94</speed>
  <fix>3d</fix>
</trkpt>
<trkpt lat="40.0711882" lon="-105.2295322">
  <ele>1583.16</ele>
  <time>2026-08-28T17:56:23Z</time>
  <course>72.87</course>
  <speed>4.6612659224721344</speed>
  <fix>3d</fix>
</trkpt>
<trkpt lat="40.0711859" lon="-105.229542">
  <ele>1583.0</ele>
  <time>2026-08-28T17:56:23Z</time>
  <course>71.65</course>
  <speed>4.83</speed>
  <fix>3d</fix>
</trkpt>
<trkpt lat="40.0711895" lon="-105.229527">
  <ele>1583.16</ele>
  <time>2026-08-28T17:56:23Z</time>
  <course>72.65</course>
  <speed>4.575816866964848</speed>
  <fix>3d</fix>
</trkpt>
<trkpt lat="40.0711859" lon="-105.229542">
  <ele>1583.0</ele>
  <time>2026-08-28T17:56:23Z</time>
  <course>71.65</course>
  <speed>4.83</speed>
  <fix>3d</fix>
</trkpt>
<trkpt lat="40.0711908" lon="-105.2295219">
  <ele>1583.16</ele>
  <time>2026-08-28T17:56:23Z</time>
  <course>72.29</course>
  <speed>4.481082458513791</speed>
  <fix>3d</fix>
</trkpt>
<trkpt lat="40.0711886" lon="-105.2295313">
  <ele>1583.0</ele>
  <time>2026-08-28T17:56:23Z</time>
  <course>71.43</course>
  <speed>4.68</speed>
  <fix>3d</fix>
</trkpt>
<trkpt lat="40.0711922" lon="-105.229517">
  <ele>1583.16</ele>
  <time>2026-08-28T17:56:23Z</time>
  <course>71.78</course>
  <speed>4.3865818127558045</speed>
  <fix>3d</fix>
</trkpt>
<trkpt lat="40.0711886" lon="-105.2295313">
  <ele>1583.0</ele>
  <time>2026-08-28T17:56:23Z</time>
  <course>71.43</course>
  <speed>4.68</speed>
  <fix>3d</fix>
</trkpt>
<trkpt lat="40.0711935" lon="-105.2295121">
  <ele>1583.16</ele>
  <time>2026-08-28T17:56:23Z</time>
  <course>71.11</course>
  <speed>4.28033877163946</speed>
  <fix>3d</fix>
</trkpt>
<trkpt lat="40.0711912" lon="-105.2295211">
  <ele>1583.0</ele>
  <time>2026-08-28T17:56:23Z</time>
  <course>70.73</course>
  <speed>4.5</speed>
  <fix>3d</fix>
</trkpt>
<trkpt lat="40.0711949" lon="-105.2295074">
  <ele>1583.16</ele>
  <time>2026-08-28T17:56:23Z</time>
  <course>70.25</course>
  <speed>4.178516483155236</speed>
  <fix>3d</fix>
</trkpt>
<trkpt lat="40.0711912" lon="-105.2295211">
  <ele>1583.0</ele>
  <time>2026-08-28T17:56:23Z</time>
  <course>70.73</course>
  <speed>4.5</speed>
  <fix>3d</fix>
</trkpt>
<trkpt lat="40.0711963" lon="-105.2295028">
  <ele>1583.16</ele>
  <time>2026-08-28T17:56:23Z</time>
  <course>69.22</course>
  <speed>4.068636135119482</speed>
  <fix>3d</fix>
</trkpt>
<trkpt lat="40.0711939" lon="-105.2295115">
  <ele>1583.0</ele>
  <time>2026-08-28T17:56:23Z</time>
  <course>69.41</course>
  <speed>4.3</speed>
  <fix>3d</fix>
</trkpt>
<trkpt lat="40.0711977" lon="-105.2294984">
  <ele>1583.17</ele>
  <time>2026-08-28T17:56:23Z</time>
  <course>67.99</course>
  <speed>3.9681229819651507</speed>
  <fix>3d</fix>
</trkpt>
<trkpt lat="40.0711939" lon="-105.2295115">
  <ele>1583.0</ele>
  <time>2026-08-28T17:56:23Z</time>
  <course>69.41</course>
  <speed>4.3</speed>
  <fix>3d</fix>
</trkpt>
<trkpt lat="40.0711995" lon="-105.2294934">
  <ele>1583.17</ele>
  <time>2026-08-28T17:56:23Z</time>
  <course>66.23</course>
  <speed>3.847076812334269</speed>
  <fix>3d</fix>
</trkpt>
<trkpt lat="40.0711967" lon="-105.2295023">
  <ele>1583.0</ele>
  <time>2026-08-28T17:56:23Z</time>
  <course>67.39</course>
  <speed>4.08</speed>
  <fix>3d</fix>
</trkpt>
<trkpt lat="40.071201" lon="-105.2294893">
  <ele>1583.17</ele>
  <time>2026-08-28T17:56:23Z</time>
  <course>64.61</course>
  <speed>3.7477459892580764</speed>
  <fix>3d</fix>
</trkpt>
<trkpt lat="40.0711967" lon="-105.2295023">
  <ele>1583.0</ele>
  <time>2026-08-28T17:56:23Z</time>
  <course>67.39</course>
  <speed>4.08</speed>
  <fix>3d</fix>
</trkpt>
<trkpt lat="40.0712026" lon="-105.2294855">
  <ele>1583.18</ele>
  <time>2026-08-28T17:56:23Z</time>
  <course>62.93</course>
  <speed>3.6472592449673766</speed>
  <fix>3d</fix>
</trkpt>
<trkpt lat="40.0711996" lon="-105.2294938">
  <ele>1583.0</ele>
  <time>2026-08-28T17:56:23Z</time>
  <course>64.62</course>
  <speed>3.88</speed>
  <fix>3d</fix>
</trkpt>
<trkpt lat="40.0712043" lon="-105.2294818">
  <ele>1583.17</ele>
  <time>2026-08-28T17:56:23Z</time>
  <course>61.16</course>
  <speed>3.5638462368626396</speed>
  <fix>3d</fix>
</trkpt>
<trkpt lat="40.0711996" lon="-105.2294938">
  <ele>1583.0</ele>
  <time>2026-08-28T17:56:23Z</time>
  <course>64.62</course>
  <speed>3.88</speed>
  <fix>3d</fix>
</trkpt>
<trkpt lat="40.0712059" lon="-105.2294782">
  <ele>1583.17</ele>
  <time>2026-08-28T17:56:23Z</time>
  <course>59.31</course>
  <speed>3.470518693221519</speed>
  <fix>3d</fix>
</trkpt>
<trkpt lat="40.0712027" lon="-105.2294859">
  <ele>1583.0</ele>
  <time>2026-08-28T17:56:23Z</time>
  <course>61.32</course>
  <speed>3.68</speed>
  <fix>3d</fix>
</trkpt>
<trkpt lat="40.0712077" lon="-105.2294748">
  <ele>1583.17</ele>
  <time>2026-08-28T17:56:23Z</time>
  <course>57.39</course>
  <speed>3.395055227827671</speed>
  <fix>3d</fix>
</trkpt>
<trkpt lat="40.0712027" lon="-105.2294859">
  <ele>1583.0</ele>
  <time>2026-08-28T17:56:23Z</time>
  <course>61.32</course>
  <speed>3.68</speed>
  <fix>3d</fix>
</trkpt>
<trkpt lat="40.0712095" lon="-105.2294716">
  <ele>1583.17</ele>
  <time>2026-08-28T17:56:23Z</time>
  <course>55.37</course>
  <speed>3.3100604224092347</speed>
  <fix>3d</fix>
</trkpt>
<trkpt lat="40.0712059" lon="-105.2294785">
  <ele>1583.0</ele>
  <time>2026-08-28T17:56:23Z</time>
  <course>57.67</course>
  <speed>3.5</speed>
  <fix>3d</fix>
</trkpt>
<trkpt lat="40.0712113" lon="-105.2294685">
  <ele>1583.17</ele>
  <time>2026-08-28T17:56:23Z</time>
  <course>53.28</course>
  <speed>3.2437324180641043</speed>
  <fix>3d</fix>
</trkpt>
<trkpt lat="40.0712059" lon="-105.2294785">
  <ele>1583.0</ele>
  <time>2026-08-28T17:56:23Z</time>
  <course>57.67</course>
  <speed>3.5</speed>
  <fix>3d</fix>
</trkpt>
<trkpt lat="40.0712131" lon="-105.2294656">
  <ele>1583.17</ele>
  <time>2026-08-28T17:56:23Z</time>
  <course>51.13</course>
  <speed>3.175909318604673</speed>
  <fix>3d</fix>
</trkpt>
<trkpt lat="40.0712094" lon="-105.2294719">
  <ele>1583.0</ele>
  <time>2026-08-28T17:56:23Z</time>
  <course>53.69</course>
  <speed>3.34</speed>
  <fix>3d</fix>
</trkpt>
<trkpt lat="40.071215" lon="-105.2294629">
  <ele>1583.16</ele>
  <time>2026-08-28T17:56:23Z</time>
  <course>48.89</course>
  <speed>3.1128443584606025</speed>
  <fix>3d</fix>
</trkpt>
<trkpt lat="40.0712094" lon="-105.2294719">
  <ele>1583.0</ele>
  <time>2026-08-28T17:56:23Z</time>
  <course>53.69</course>
  <speed>3.34</speed>
  <fix>3d</fix>
</trkpt>
<trkpt lat="40.0712169" lon="-105.2294603">
  <ele>1583.16</ele>
  <time>2026-08-28T17:56:23Z</time>
  <course>46.58</course>
  <speed>3.0689737698455493</speed>
  <fix>3d</fix>
</trkpt>
<trkpt lat="40.071213" lon="-105.2294659">
  <ele>1583.0</ele>
  <time>2026-08-28T17:56:23Z</time>
  <course>49.4</course>
  <speed>3.2</speed>
  <fix>3d</fix>
</trkpt>
<trkpt lat="40.0712185" lon="-105.2294583">
  <ele>1583.16</ele>
  <time>2026-08-28T17:56:23Z</time>
  <course>44.68</course>
  <speed>3.0290922732726386</speed>
  <fix>3d</fix>
</trkpt>
<trkpt lat="40.071213" lon="-105.2294659">
  <ele>1583.0</ele>
  <time>2026-08-28T17:56:23Z</time>
  <course>49.4</course>
  <speed>3.2</speed>
  <fix>3d</fix>
</trkpt>
<trkpt lat="40.0712206" lon="-105.229456">
  <ele>1583.16</ele>
  <time>2026-08-28T17:56:23Z</time>
  <course>42.27</course>
  <speed>2.988394217635953</speed>
  <fix>3d</fix>
</trkpt>
<trkpt lat="40.0712169" lon="-105.2294605">
  <ele>1583.0</ele>
  <time>2026-08-28T17:56:23Z</time>
  <course>44.81</course>
  <speed>3.09</speed>
  <fix>3d</fix>
</trkpt>
<trkpt lat="40.0712227" lon="-105.2294538">
  <ele>1583.15</ele>
  <time>2026-08-28T17:56:23Z</time>
  <course>39.81</course>
  <speed>2.9522195040342103</speed>
  <fix>3d</fix>
</trkpt>
<trkpt lat="40.0712169" lon="-105.2294605">
  <ele>1583.0</ele>
  <time>2026-08-28T17:56:23Z</time>
  <course>44.81</course>
  <speed>3.09</speed>
  <fix>3d</fix>
</trkpt>
<trkpt lat="40.0712248" lon="-105.2294517">
  <ele>1583.15</ele>
  <time>2026-08-28T17:56:23Z</time>
  <course>37.31</course>
  <speed>2.929573347776089</speed>
  <fix>3d</fix>
</trkpt>
<trkpt lat="40.0712209" lon="-105.2294557">
  <ele>1583.0</ele>
  <time>2026-08-28T17:56:23Z</time>
  <course>39.98</course>
  <speed>3.0</speed>
  <fix>3d</fix>
</trkpt>
<trkpt lat="40.071227" lon="-105.2294498">
  <ele>1583.15</ele>
  <time>2026-08-28T17:56:23Z</time>
  <course>34.78</course>
  <speed>2.9183043021590462</speed>
  <fix>3d</fix>
</trkpt>
<trkpt lat="40.0712209" lon="-105.2294557">
  <ele>1583.0</ele>
  <time>2026-08-28T17:56:23Z</time>
  <course>39.98</course>
  <speed>3.0</speed>
  <fix>3d</fix>
</trkpt>
<trkpt lat="40.0712293" lon="-105.229448">
  <ele>1583.15</ele>
  <time>2026-08-28T17:56:23Z</time>
  <course>32.22</course>
  <speed>2.9073871431235294</speed>
  <fix>3d</fix>
</trkpt>
<trkpt lat="40.0712252" lon="-105.2294515">
  <ele>1583.0</ele>
  <time>2026-08-28T17:56:23Z</time>
  <course>34.97</course>
  <speed>2.95</speed>
  <fix>3d</fix>
</trkpt>
<trkpt lat="40.0712316" lon="-105.2294464">
  <ele>1583.15</ele>
  <time>2026-08-28T17:56:23Z</time>
  <course>29.65</course>
  <speed>2.911528808031959</speed>
  <fix>3d</fix>
</trkpt>
<trkpt lat="40.0712252" lon="-105.2294515">
  <ele>1583.0</ele>
  <time>2026-08-28T17:56:23Z</time>
  <course>34.97</course>
  <speed>2.95</speed>
  <fix>3d</fix>
</trkpt>
<trkpt lat="40.071234" lon="-105.2294448">
  <ele>1583.15</ele>
  <time>2026-08-28T17:56:23Z</time>
  <course>27.08</course>
  <speed>2.917344683097971</speed>
  <fix>3d</fix>
</trkpt>
<trkpt lat="40.0712296" lon="-105.2294478">
  <ele>1583.0</ele>
  <time>2026-08-28T17:56:23Z</time>
  <course>29.86</course>
  <speed>2.92</speed>
  <fix>3d</fix>
</trkpt>
<trkpt lat="40.0712364" lon="-105.2294435">
  <ele>1583.15</ele>
  <time>2026-08-28T17:56:23Z</time>
  <course>24.52</course>
  <speed>2.92851498203441</speed>
  <fix>3d</fix>
</trkpt>
<trkpt lat="40.0712296" lon="-105.2294478">
  <ele>1583.0</ele>
  <time>2026-08-28T17:56:23Z</time>
  <course>29.86</course>
  <speed>2.92</speed>
  <fix>3d</fix>
</trkpt>
<trkpt lat="40.0712389" lon="-105.2294422">
  <ele>1583.15</ele>
  <time>2026-08-28T17:56:23Z</time>
  <course>21.98</course>
  <speed>2.951016773927251</speed>
  <fix>3d</fix>
</trkpt>
<trkpt lat="40.0712343" lon="-105.2294446">
  <ele>1583.0</ele>
  <time>2026-08-28T17:56:23Z</time>
  <course>24.73</course>
  <speed>2.92</speed>
  <fix>3d</fix>
</trkpt>
<trkpt lat="40.071242" lon="-105.2294409">
  <ele>1583.15</ele>
  <time>2026-08-28T17:56:23Z</time>
  <course>18.98</course>
  <speed>2.986502971704532</speed>
  <fix>3d</fix>
</trkpt>
<trkpt lat="40.0712343" lon="-105.2294446">
  <ele>1583.0</ele>
  <time>2026-08-28T17:56:23Z</time>
  <course>24.73</course>
  <speed>2.92</speed>
  <fix>3d</fix>
</trkpt>
<trkpt lat="40.0712446" lon="-105.2294399">
  <ele>1583.16</ele>
  <time>2026-08-28T17:56:23Z</time>
  <course>16.54</course>
  <speed>3.0123080851732285</speed>
  <fix>3d</fix>
</trkpt>
<trkpt lat="40.0712392" lon="-105.229442">
  <ele>1583.0</ele>
  <time>2026-08-28T17:56:23Z</time>
  <course>19.67</course>
  <speed>2.95</speed>
  <fix>3d</fix>
</trkpt>
<trkpt lat="40.0712473" lon="-105.2294391">
  <ele>1583.16</ele>
  <time>2026-08-28T17:56:23Z</time>
  <course>14.12</course>
  <speed>3.0556505035753023</speed>
  <fix>3d</fix>
</trkpt>
<trkpt lat="40.0712392" lon="-105.229442">
  <ele>1583.0</ele>
  <time>2026-08-28T17:56:23Z</time>
  <course>19.67</course>
  <speed>2.95</speed>
  <fix>3d</fix>
</trkpt>
<trkpt lat="40.07125" lon="-105.2294384">
  <ele>1583.16</ele>
  <time>2026-08-28T17:56:23Z</time>
  <course>11.75</course>
  <speed>3.1038685539178363</speed>
  <fix>3d</fix>
</trkpt>
<trkpt lat="40.0712443" lon="-105.22944">
  <ele>1583.0</ele>
  <time>2026-08-28T17:56:23Z</time>
  <course>14.75</course>
  <speed>3.01</speed>
  <fix>3d</fix>
</trkpt>
<trkpt lat="40.0712528" lon="-105.2294379">
  <ele>1583.16</ele>
  <time>2026-08-28T17:56:23Z</time>
  <course>9.46</course>
  <speed>3.1567388235329195</speed>
  <fix>3d</fix>
</trkpt>
<trkpt lat="40.0712443" lon="-105.22944">
  <ele>1583.0</ele>
  <time>2026-08-28T17:56:23Z</time>
  <course>14.75</course>
  <speed>3.01</speed>
  <fix>3d</fix>
</trkpt>
<trkpt lat="40.0712556" lon="-105.2294375">
  <ele>1583.16</ele>
  <time>2026-08-28T17:56:23Z</time>
  <course>7.21</course>
  <speed>3.213113754600045</speed>
  <fix>3d</fix>
</trkpt>
<trkpt lat="40.0712497" lon="-105.2294384">
  <ele>1583.0</ele>
  <time>2026-08-28T17:56:23Z</time>
  <course>10.02</course>
  <speed>3.09</speed>
  <fix>3d</fix>
</trkpt>
<trkpt lat="40.0712586" lon="-105.2294372">
  <ele>1583.16</ele>
  <time>2026-08-28T17:56:23Z</time>
  <course>5.03</course>
  <speed>3.2844025331862112</speed>
  <fix>3d</fix>
</trkpt>
<trkpt lat="40.0712497" lon="-105.2294384">
  <ele>1583.0</ele>
  <time>2026-08-28T17:56:23Z</time>
  <course>10.02</course>
  <speed>3.09</speed>
  <fix>3d</fix>
</trkpt>
<trkpt lat="40.0712615" lon="-105.229437">
  <ele>1583.16</ele>
  <time>2026-08-28T17:56:23Z</time>
  <course>2.92</course>
  <speed>3.350537270349339</speed>
  <fix>3d</fix>
</trkpt>
<trkpt lat="40.0712553" lon="-105.2294374">
  <ele>1583.0</ele>
  <time>2026-08-28T17:56:23Z</time>
  <course>5.54</course>
  <speed>3.2</speed>
  <fix>3d</fix>
</trkpt>
<trkpt lat="40.0712645" lon="-105.229437">
  <ele>1583.16</ele>
  <time>2026-08-28T17:56:23Z</time>
  <course>0.9</course>
  <speed>3.4203654775476844</speed>
  <fix>3d</fix>
</trkpt>
<trkpt lat="40.0712553" lon="-105.2294374">
  <ele>1583.0</ele>
  <time>2026-08-28T17:56:23Z</time>
  <course>5.54</course>
  <speed>3.2</speed>
  <fix>3d</fix>
</trkpt>
<trkpt lat="40.0712676" lon="-105.229437">
  <ele>1583.16</ele>
  <time>2026-08-28T17:56:23Z</time>
  <course>358.95</course>
  <speed>3.4936656966573088</speed>
  <fix>3d</fix>
</trkpt>
<trkpt lat="40.0712611" lon="-105.2294369">
  <ele>1583.0</ele>
  <time>2026-08-28T17:56:23Z</time>
  <course>1.34</course>
  <speed>3.33</speed>
  <fix>3d</fix>
</trkpt>
<trkpt lat="40.0712707" lon="-105.2294373">
  <ele>1583.16</ele>
  <time>2026-08-28T17:56:23Z</time>
  <course>357.06</course>
  <speed>3.5709942593065027</speed>
  <fix>3d</fix>
</trkpt>
<trkpt lat="40.0712611" lon="-105.2294369">
  <ele>1583.0</ele>
  <time>2026-08-28T17:56:23Z</time>
  <course>1.34</course>
  <speed>3.33</speed>
  <fix>3d</fix>
</trkpt>
<trkpt lat="40.0712733" lon="-105.2294376">
  <ele>1583.16</ele>
  <time>2026-08-28T17:56:23Z</time>
  <course>355.6</course>
  <speed>3.639890108231291</speed>
  <fix>3d</fix>
</trkpt>
<trkpt lat="40.0712673" lon="-105.229437">
  <ele>1583.0</ele>
  <time>2026-08-28T17:56:23Z</time>
  <course>357.42</course>
  <speed>3.48</speed>
  <fix>3d</fix>
</trkpt>
<trkpt lat="40.0712766" lon="-105.2294381">
  <ele>1583.16</ele>
  <time>2026-08-28T17:56:23Z</time>
  <course>353.96</course>
  <speed>3.722391704267567</speed>
  <fix>3d</fix>
</trkpt>
<trkpt lat="40.0712673" lon="-105.229437">
  <ele>1583.0</ele>
  <time>2026-08-28T17:56:23Z</time>
  <course>357.42</course>
  <speed>3.48</speed>
  <fix>3d</fix>
</trkpt>
<trkpt lat="40.0712799" lon="-105.2294387">
  <ele>1583.16</ele>
  <time>2026-08-28T17:56:23Z</time>
  <course>352.52</course>
  <speed>3.8060084077679073</speed>
  <fix>3d</fix>
</trkpt>
<trkpt lat="40.0712736" lon="-105.2294376">
  <ele>1583.0</ele>
  <time>2026-08-28T17:56:23Z</time>
  <course>353.89</course>
  <speed>3.64</speed>
  <fix>3d</fix>
</trkpt>
<trkpt lat="40.0712833" lon="-105.2294395">
  <ele>1583.15</ele>
  <time>2026-08-28T17:56:23Z</time>
  <course>351.28</course>
  <speed>3.901499711649355</speed>
  <fix>3d</fix>
</trkpt>
<trkpt lat="40.0712736" lon="-105.2294376">
  <ele>1583.0</ele>
  <time>2026-08-28T17:56:23Z</time>
  <course>353.89</course>
  <speed>3.64</speed>
  <fix>3d</fix>
</trkpt>
<trkpt lat="40.0712868" lon="-105.2294403">
  <ele>1583.15</ele>
  <time>2026-08-28T17:56:23Z</time>
  <course>350.22</course>
  <speed>3.994909260546477</speed>
  <fix>3d</fix>
</trkpt>
<trkpt lat="40.0712803" lon="-105.2294388">
  <ele>1583.0</ele>
  <time>2026-08-28T17:56:23Z</time>
  <course>350.99</course>
  <speed>3.81</speed>
  <fix>3d</fix>
</trkpt>
<trkpt lat="40.0712904" lon="-105.2294413">
  <ele>1583.15</ele>
  <time>2026-08-28T17:56:23Z</time>
  <course>349.33</course>
  <speed>4.089315346118467</speed>
  <fix>3d</fix>
</trkpt>
<trkpt lat="40.0712803" lon="-105.2294388">
  <ele>1583.0</ele>
  <time>2026-08-28T17:56:23Z</time>
  <course>350.99</course>
  <speed>3.81</speed>
  <fix>3d</fix>
</trkpt>
<trkpt lat="40.071294" lon="-105.2294424">
  <ele>1583.15</ele>
  <time>2026-08-28T17:56:23Z</time>
  <course>348.63</course>
  <speed>4.182439479538228</speed>
  <fix>3d</fix>
</trkpt>
<trkpt lat="40.0712872" lon="-105.2294403">
  <ele>1583.0</ele>
  <time>2026-08-28T17:56:23Z</time>
  <course>348.83</course>
  <speed>4.0</speed>
  <fix>3d</fix>
</trkpt>
<trkpt lat="40.0712978" lon="-105.2294435">
  <ele>1583.15</ele>
  <time>2026-08-28T17:56:23Z</time>
  <course>348.08</course>
  <speed>4.264141179651537</speed>
  <fix>3d</fix>
</trkpt>
<trkpt lat="40.0712872" lon="-105.2294403">
  <ele>1583.0</ele>
  <time>2026-08-28T17:56:23Z</time>
  <course>348.83</course>
  <speed>4.0</speed>
  <fix>3d</fix>
</trkpt>
<trkpt lat="40.0713015" lon="-105.2294446">
  <ele>1583.15</ele>
  <time>2026-08-28T17:56:23Z</time>
  <course>347.67</course>
  <speed>4.3438807534277455</speed>
  <fix>3d</fix>
</trkpt>
<trkpt lat="40.0712944" lon="-105.2294424">
  <ele>1583.0</ele>
  <time>2026-08-28T17:56:23Z</time>
  <course>347.36</course>
  <speed>4.18</speed>
  <fix>3d</fix>
</trkpt>
<trkpt lat="40.0713054" lon="-105.2294459">
  <ele>1583.14</ele>
  <time>2026-08-28T17:56:23Z</time>
  <course>347.39</course>
  <speed>4.409308335782382</speed>
  <fix>3d</fix>
</trkpt>
<trkpt lat="40.0712944" lon="-105.2294424">
  <ele>1583.0</ele>
  <time>2026-08-28T17:56:23Z</time>
  <course>347.36</course>
  <speed>4.18</speed>
  <fix>3d</fix>
</trkpt>
<trkpt lat="40.0713101" lon="-105.2294474">
  <ele>1583.14</ele>
  <time>2026-08-28T17:56:23Z</time>
  <course>347.23</course>
  <speed>4.474784911032037</speed>
  <fix>3d</fix>
</trkpt>
<trkpt lat="40.0713018" lon="-105.2294447">
  <ele>1583.0</ele>
  <time>2026-08-28T17:56:23Z</time>
  <course>346.49</course>
  <speed>4.33</speed>
  <fix>3d</fix>
</trkpt>
<trkpt lat="40.071314" lon="-105.2294487">
  <ele>1583.14</ele>
  <time>2026-08-28T17:56:23Z</time>
  <course>347.15</course>
  <speed>4.518462127759842</speed>
  <fix>3d</fix>
</trkpt>
<trkpt lat="40.0713018" lon="-105.2294447">
  <ele>1583.0</ele>
  <time>2026-08-28T17:56:23Z</time>
  <course>346.49</course>
  <speed>4.33</speed>
  <fix>3d</fix>
</trkpt>
<trkpt lat="40.0713179" lon="-105.22945">
  <ele>1583.14</ele>
  <time>2026-08-28T17:56:23Z</time>
  <course>347.09</course>
  <speed>4.55</speed>
  <fix>3d</fix>
</trkpt>
<trkpt lat="40.0713095" lon="-105.2294471">
  <ele>1583.0</ele>
  <time>2026-08-28T17:56:23Z</time>
  <course>346.09</course>
  <speed>4.45</speed>
  <fix>3d</fix>
</trkpt>
<trkpt lat="40.0713219" lon="-105.2294513">
  <ele>1583.14</ele>
  <time>2026-08-28T17:56:23Z</time>
  <course>347.04</course>
  <speed>4.581539042723525</speed>
  <fix>3d</fix>
</trkpt>
<trkpt lat="40.0713095" lon="-105.2294471">
  <ele>1583.0</ele>
  <time>2026-08-28T17:56:23Z</time>
  <course>346.09</course>
  <speed>4.45</speed>
  <fix>3d</fix>
</trkpt>
<trkpt lat="40.0713259" lon="-105.2294526">
  <ele>1583.14</ele>
  <time>2026-08-28T17:56:23Z</time>
  <course>346.98</course>
  <speed>4.584015706779374</speed>
  <fix>3d</fix>
</trkpt>
<trkpt lat="40.0713174" lon="-105.2294497">
  <ele>1583.0</ele>
  <time>2026-08-28T17:56:23Z</time>
  <course>345.92</course>
  <speed>4.53</speed>
  <fix>3d</fix>
</trkpt>
<trkpt lat="40.0713299" lon="-105.2294539">
  <ele>1583.13</ele>
  <time>2026-08-28T17:56:23Z</time>
  <course>346.93</course>
  <speed>4.593702210635774</speed>
  <fix>3d</fix>
</trkpt>
<trkpt lat="40.0713174" lon="-105.2294497">
  <ele>1583.0</ele>
  <time>2026-08-28T17:56:23Z</time>
  <course>345.92</course>
  <speed>4.53</speed>
  <fix>3d</fix>
</trkpt>
<trkpt lat="40.0713339" lon="-105.2294553">
  <ele>1583.13</ele>
  <time>2026-08-28T17:56:23Z</time>
  <course>346.87</course>
  <speed>4.586512836567668</speed>
  <fix>3d</fix>
</trkpt>
<trkpt lat="40.0713253" lon="-105.2294522">
  <ele>1583.0</ele>
  <time>2026-08-28T17:56:23Z</time>
  <course>345.79</course>
  <speed>4.57</speed>
  <fix>3d</fix>
</trkpt>
<trkpt lat="40.0713378" lon="-105.2294566">
  <ele>1583.14</ele>
  <time>2026-08-28T17:56:23Z</time>
  <course>346.82</course>
  <speed>4.576832966145914</speed>
  <fix>3d</fix>
</trkpt>
<trkpt lat="40.0713253" lon="-105.2294522">
  <ele>1583.0</ele>
  <time>2026-08-28T17:56:23Z</time>
  <course>345.79</course>
  <speed>4.57</speed>
  <fix>3d</fix>
</trkpt>
<trkpt lat="40.0713417" lon="-105.2294579">
  <ele>1583.14</ele>
  <time>2026-08-28T17:56:23Z</time>
  <course>346.82</course>
  <speed>4.557477372406801</speed>
  <fix>3d</fix>
</trkpt>
<trkpt lat="40.0713333" lon="-105.2294549">
  <ele>1583.0</ele>
  <time>2026-08-28T17:56:23Z</time>
  <course>345.67</course>
  <speed>4.57</speed>
  <fix>3d</fix>
</trkpt>
<trkpt lat="40.0713456" lon="-105.2294592">
  <ele>1583.14</ele>
  <time>2026-08-28T17:56:23Z</time>
  <course>346.81</course>
  <speed>4.525925319755066</speed>
  <fix>3d</fix>
</trkpt>
<trkpt lat="40.0713333" lon="-105.2294549">
  <ele>1583.0</ele>
  <time>2026-08-28T17:56:23Z</time>
  <course>345.67</course>
  <speed>4.57</speed>
  <fix>3d</fix>
</trkpt>
<trkpt lat="40.0713495" lon="-105.2294605">
  <ele>1583.14</ele>
  <time>2026-08-28T17:56:23Z</time>
  <course>346.82</course>
  <speed>4.484696199298231</speed>
  <fix>3d</fix>
</trkpt>
<trkpt lat="40.0713413" lon="-105.2294575">
  <ele>1583.0</ele>
  <time>2026-08-28T17:56:23Z</time>
  <course>345.61</course>
  <speed>4.55</speed>
  <fix>3d</fix>
</trkpt>
<trkpt lat="40.0713526" lon="-105.2294615">
  <ele>1583.15</ele>
  <time>2026-08-28T17:56:23Z</time>
  <course>346.83</course>
  <speed>4.4531449560956355</speed>
  <fix>3d</fix>
</trkpt>
<trkpt lat="40.0713413" lon="-105.2294575">
  <ele>1583.0</ele>
  <time>2026-08-28T17:56:23Z</time>
  <course>345.61</course>
  <speed>4.55</speed>
  <fix>3d</fix>
</trkpt>
<trkpt lat="40.0713565" lon="-105.2294628">
  <ele>1583.15</ele>
  <time>2026-08-28T17:56:23Z</time>
  <course>346.85</course>
  <speed>4.392561894839958</speed>
  <fix>3d</fix>
</trkpt>
<trkpt lat="40.0713492" lon="-105.2294602">
  <ele>1583.0</ele>
  <time>2026-08-28T17:56:23Z</time>
  <course>345.6</course>
  <speed>4.49</speed>
  <fix>3d</fix>
</trkpt>
<trkpt lat="40.0713603" lon="-105.2294641">
  <ele>1583.15</ele>
  <time>2026-08-28T17:56:23Z</time>
  <course>346.86</course>
  <speed>4.329457240809753</speed>
  <fix>3d</fix>
</trkpt>
<trkpt lat="40.0713492" lon="-105.2294602">
  <ele>1583.0</ele>
  <time>2026-08-28T17:56:23Z</time>
  <course>345.6</course>
  <speed>4.49</speed>
  <fix>3d</fix>
</trkpt>
<trkpt lat="40.071364" lon="-105.2294653">
  <ele>1583.16</ele>
  <time>2026-08-28T17:56:23Z</time>
  <course>346.87</course>
  <speed>4.256677107791945</speed>
  <fix>3d</fix>
</trkpt>
<trkpt lat="40.0713569" lon="-105.2294628">
  <ele>1583.0</ele>
  <time>2026-08-28T17:56:23Z</time>
  <course>345.61</course>
  <speed>4.39</speed>
  <fix>3d</fix>
</trkpt>
<trkpt lat="40.0713677" lon="-105.2294666">
  <ele>1583.16</ele>
  <time>2026-08-28T17:56:23Z</time>
  <course>346.89</course>
  <speed>4.174218489729545</speed>
  <fix>3d</fix>
</trkpt>
<trkpt lat="40.0713569" lon="-105.2294628">
  <ele>1583.0</ele>
  <time>2026-08-28T17:56:23Z</time>
  <course>345.61</course>
  <speed>4.39</speed>
  <fix>3d</fix>
</trkpt>
<trkpt lat="40.0713713" lon="-105.2294678">
  <ele>1583.16</ele>
  <time>2026-08-28T17:56:23Z</time>
  <course>346.9</course>
  <speed>4.082082801707972</speed>
  <fix>3d</fix>
</trkpt>
<trkpt lat="40.0713644" lon="-105.2294653">
  <ele>1583.0</ele>
  <time>2026-08-28T17:56:23Z</time>
  <course>345.62</course>
  <speed>4.25</speed>
  <fix>3d</fix>
</trkpt>
<trkpt lat="40.0713748" lon="-105.229469">
  <ele>1583.16</ele>
  <time>2026-08-28T17:56:23Z</time>
  <course>346.91</course>
  <speed>3.9802763723138623</speed>
  <fix>3d</fix>
</trkpt>
<trkpt lat="40.0713644" lon="-105.2294653">
  <ele>1583.0</ele>
  <time>2026-08-28T17:56:23Z</time>
  <course>345.62</course>
  <speed>4.25</speed>
  <fix>3d</fix>
</trkpt>
<trkpt lat="40.0713783" lon="-105.2294701">
  <ele>1583.16</ele>
  <time>2026-08-28T17:56:23Z</time>
  <course>346.93</course>
  <speed>3.875938596004844</speed>
  <fix>3d</fix>
</trkpt>
<trkpt lat="40.0713717" lon="-105.2294678">
  <ele>1583.0</ele>
  <time>2026-08-28T17:56:23Z</time>
  <course>345.63</course>
  <speed>4.07</speed>
  <fix>3d</fix>
</trkpt>
<trkpt lat="40.0713816" lon="-105.2294713">
  <ele>1583.16</ele>
  <time>2026-08-28T17:56:23Z</time>
  <course>346.94</course>
  <speed>3.764465433497829</speed>
  <fix>3d</fix>
</trkpt>
<trkpt lat="40.0713717" lon="-105.2294678">
  <ele>1583.0</ele>
  <time>2026-08-28T17:56:23Z</time>
  <course>345.63</course>
  <speed>4.07</speed>
  <fix>3d</fix>
</trkpt>
<trkpt lat="40.0713855" lon="-105.2294726">
  <ele>1583.16</ele>
  <time>2026-08-28T17:56:23Z</time>
  <course>346.95</course>
  <speed>3.638241333391725</speed>
  <fix>3d</fix>
</trkpt>
<trkpt lat="40.0713786" lon="-105.22947">
  <ele>1583.0</ele>
  <time>2026-08-28T17:56:23Z</time>
  <course>345.64</course>
  <speed>3.87</speed>
  <fix>3d</fix>
</trkpt>
<trkpt lat="40.0713886" lon="-105.2294736">
  <ele>1583.16</ele>
  <time>2026-08-28T17:56:23Z</time>
  <course>346.96</course>
  <speed>3.526769059635178</speed>
  <fix>3d</fix>
</trkpt>
<trkpt lat="40.0713786" lon="-105.22947">
  <ele>1583.0</ele>
  <time>2026-08-28T17:56:23Z</time>
  <course>345.64</course>
  <speed>3.87</speed>
  <fix>3d</fix>
</trkpt>
<trkpt lat="40.0713917" lon="-105.2294746">
  <ele>1583.16</ele>
  <time>2026-08-28T17:56:23Z</time>
  <course>346.96</course>
  <speed>3.4127554849417496</speed>
  <fix>3d</fix>
</trkpt>
<trkpt lat="40.0713851" lon="-105.2294723">
  <ele>1583.0</ele>
  <time>2026-08-28T17:56:23Z</time>
  <course>345.66</course>
  <speed>3.66</speed>
  <fix>3d</fix>
</trkpt>
<trkpt lat="40.0713946" lon="-105.2294756">
  <ele>1583.16</ele>
  <time>2026-08-28T17:56:23Z</time>
  <course>346.97</course>
  <speed>3.29874218453034</speed>
  <fix>3d</fix>
</trkpt>
<trkpt lat="40.0713851" lon="-105.2294723">
  <ele>1583.0</ele>
  <time>2026-08-28T17:56:23Z</time>
  <course>345.66</course>
  <speed>3.66</speed>
  <fix>3d</fix>
</trkpt>
<trkpt lat="40.0713974" lon="-105.2294766">
  <ele>1583.16</ele>
  <time>2026-08-28T17:56:23Z</time>
  <course>346.97</course>
  <speed>3.187287247801804</speed>
  <fix>3d</fix>
</trkpt>
<trkpt lat="40.0713913" lon="-105.2294743">
  <ele>1583.0</ele>
  <time>2026-08-28T17:56:23Z</time>
  <course>345.67</course>
  <speed>3.44</speed>
  <fix>3d</fix>
</trkpt>
<trkpt lat="40.0714002" lon="-105.2294775">
  <ele>1583.16</ele>
  <time>2026-08-28T17:56:23Z</time>
  <course>346.98</course>
  <speed>3.073271872125862</speed>
  <fix>3d</fix>
</trkpt>
<trkpt lat="40.0713913" lon="-105.2294743">
  <ele>1583.0</ele>
  <time>2026-08-28T17:56:23Z</time>
  <course>345.67</course>
  <speed>3.44</speed>
  <fix>3d</fix>
</trkpt>
<trkpt lat="40.0714028" lon="-105.2294784">
  <ele>1583.16</ele>
  <time>2026-08-28T17:56:23Z</time>
  <course>347.02</course>
  <speed>2.9592566634207316</speed>
  <fix>3d</fix>
</trkpt>
<trkpt lat="40.0713971" lon="-105.2294763">
  <ele>1583.0</ele>
  <time>2026-08-28T17:56:23Z</time>
  <course>345.7</course>
  <speed>3.22</speed>
  <fix>3d</fix>
</trkpt>
<trkpt lat="40.0714053" lon="-105.2294793">
  <ele>1583.16</ele>
  <time>2026-08-28T17:56:23Z</time>
  <course>347.06</course>
  <speed>2.8452416417590967</speed>
  <fix>3d</fix>
</trkpt>
<trkpt lat="40.0713971" lon="-105.2294763">
  <ele>1583.0</ele>
  <time>2026-08-28T17:56:23Z</time>
  <course>345.7</course>
  <speed>3.22</speed>
  <fix>3d</fix>
</trkpt>
<trkpt lat="40.0714078" lon="-105.2294801">
  <ele>1583.15</ele>
  <time>2026-08-28T17:56:23Z</time>
  <course>347.09</course>
  <speed>2.7312268305653413</speed>
  <fix>3d</fix>
</trkpt>
<trkpt lat="40.0714026" lon="-105.2294781">
  <ele>1583.0</ele>
  <time>2026-08-28T17:56:23Z</time>
  <course>345.78</course>
  <speed>3.0</speed>
  <fix>3d</fix>
</trkpt>
<trkpt lat="40.0714101" lon="-105.2294808">
  <ele>1583.15</ele>
  <time>2026-08-28T17:56:23Z</time>
  <course>347.12</course>
  <speed>2.6172122573455905</speed>
  <fix>3d</fix>
</trkpt>
<trkpt lat="40.0714026" lon="-105.2294781">
  <ele>1583.0</ele>
  <time>2026-08-28T17:56:23Z</time>
  <course>345.78</course>
  <speed>3.0</speed>
  <fix>3d</fix>
</trkpt>
<trkpt lat="40.0714123" lon="-105.2294816">
  <ele>1583.14</ele>
  <time>2026-08-28T17:56:23Z</time>
  <course>347.14</course>
  <speed>2.503197954617253</speed>
  <fix>3d</fix>
</trkpt>
<trkpt lat="40.0714076" lon="-105.2294798">
  <ele>1583.0</ele>
  <time>2026-08-28T17:56:23Z</time>
  <course>345.88</course>
  <speed>2.78</speed>
  <fix>3d</fix>
</trkpt>
<trkpt lat="40.0714145" lon="-105.2294823">
  <ele>1583.14</ele>
  <time>2026-08-28T17:56:23Z</time>
  <course>347.17</course>
  <speed>2.3891839611047114</speed>
  <fix>3d</fix>
</trkpt>
<trkpt lat="40.0714076" lon="-105.2294798">
  <ele>1583.0</ele>
  <time>2026-08-28T17:56:23Z</time>
  <course>345.88</course>
  <speed>2.78</speed>
  <fix>3d</fix>
</trkpt>
<trkpt lat="40.0714161" lon="-105.2294828">
  <ele>1583.14</ele>
  <time>2026-08-28T17:56:23Z</time>
  <course>347.18</course>
  <speed>2.294515199339503</speed>
  <fix>3d</fix>
</trkpt>
<trkpt lat="40.0714123" lon="-105.2294813">
  <ele>1583.0</ele>
  <time>2026-08-28T17:56:23Z</time>
  <course>345.98</course>
  <speed>2.55</speed>
  <fix>3d</fix>
</trkpt>
<trkpt lat="40.0714181" lon="-105.2294835">
  <ele>1583.13</ele>
  <time>2026-08-28T17:56:23Z</time>
  <course>347.2</course>
  <speed>2.190182640785923</speed>
  <fix>3d</fix>
</trkpt>
<trkpt lat="40.0714123" lon="-105.2294813">
  <ele>1583.0</ele>
  <time>2026-08-28T17:56:23Z</time>
  <course>345.98</course>
  <speed>2.55</speed>
  <fix>3d</fix>
</trkpt>
<trkpt lat="40.07142" lon="-105.2294841">
  <ele>1583.13</ele>
  <time>2026-08-28T17:56:23Z</time>
  <course>347.23</course>
  <speed>2.076174366473105</speed>
  <fix>3d</fix>
</trkpt>
<trkpt lat="40.0714165" lon="-105.2294826">
  <ele>1583.0</ele>
  <time>2026-08-28T17:56:23Z</time>
  <course>346.08</course>
  <speed>2.33</speed>
  <fix>3d</fix>
</trkpt>
<trkpt lat="40.0714218" lon="-105.2294846">
  <ele>1583.13</ele>
  <time>2026-08-28T17:56:23Z</time>
  <course>347.24</course>
  <speed>1.96468827043885</speed>
  <fix>3d</fix>
</trkpt>
<trkpt lat="40.0714165" lon="-105.2294826">
  <ele>1583.0</ele>
  <time>2026-08-28T17:56:23Z</time>
  <course>346.08</course>
  <speed>2.33</speed>
  <fix>3d</fix>
</trkpt>
<trkpt lat="40.0714235" lon="-105.2294852">
  <ele>1583.13</ele>
  <time>2026-08-28T17:56:23Z</time>
  <course>347.28</course>
  <speed>1.8603494295427405</speed>
  <fix>3d</fix>
</trkpt>
<trkpt lat="40.0714204" lon="-105.2294838">
  <ele>1583.0</ele>
  <time>2026-08-28T17:56:23Z</time>
  <course>346.19</course>
  <speed>2.11</speed>
  <fix>3d</fix>
</trkpt>
<trkpt lat="40.0714251" lon="-105.2294857">
  <ele>1583.12</ele>
  <time>2026-08-28T17:56:23Z</time>
  <course>347.31</course>
  <speed>1.746339027795004</speed>
  <fix>3d</fix>
</trkpt>
<trkpt lat="40.0714204" lon="-105.2294838">
  <ele>1583.0</ele>
  <time>2026-08-28T17:56:23Z</time>
  <course>346.19</course>
  <speed>2.11</speed>
  <fix>3d</fix>
</trkpt>
<trkpt lat="40.0714266" lon="-105.2294861">
  <ele>1583.12</ele>
  <time>2026-08-28T17:56:23Z</time>
  <course>347.34</course>
  <speed>1.6420109622045769</speed>
  <fix>3d</fix>
</trkpt>
<trkpt lat="40.0714239" lon="-105.229485">
  <ele>1583.0</ele>
  <time>2026-08-28T17:56:23Z</time>
  <course>346.34</course>
  <speed>1.89</speed>
  <fix>3d</fix>
</trkpt>
<trkpt lat="40.071428" lon="-105.2294866">
  <ele>1583.12</ele>
  <time>2026-08-28T17:56:23Z</time>
  <course>347.37</course>
  <speed>1.5280052355931246</speed>
  <fix>3d</fix>
</trkpt>
<trkpt lat="40.0714239" lon="-105.229485">
  <ele>1583.0</ele>
  <time>2026-08-28T17:56:23Z</time>
  <course>346.34</course>
  <speed>1.89</speed>
  <fix>3d</fix>
</trkpt>
<trkpt lat="40.0714293" lon="-105.229487">
  <ele>1583.11</ele>
  <time>2026-08-28T17:56:23Z</time>
  <course>347.4</course>
  <speed>1.4140014144264494</speed>
  <fix>3d</fix>
</trkpt>
<trkpt lat="40.071427" lon="-105.229486">
  <ele>1583.0</ele>
  <time>2026-08-28T17:56:23Z</time>
  <course>346.5</course>
  <speed>1.67</speed>
  <fix>3d</fix>
</trkpt>
<trkpt lat="40.0714308" lon="-105.2294874">
  <ele>1583.11</ele>
  <time>2026-08-28T17:56:23Z</time>
  <course>347.43</course>
  <speed>1.2781627439414747</speed>
  <fix>3d</fix>
</trkpt>
<trkpt lat="40.071427" lon="-105.229486">
  <ele>1583.0</ele>
  <time>2026-08-28T17:56:23Z</time>
  <course>346.5</course>
  <speed>1.67</speed>
  <fix>3d</fix>
</trkpt>
<trkpt lat="40.0714319" lon="-105.2294877">
  <ele>1583.11</ele>
  <time>2026-08-28T17:56:23Z</time>
  <course>347.45</course>
  <speed>1.1641735265844178</speed>
  <fix>3d</fix>
</trkpt>
<trkpt lat="40.0714298" lon="-105.2294868">
  <ele>1583.0</ele>
  <time>2026-08-28T17:56:23Z</time>
  <course>346.68</course>
  <speed>1.45</speed>
  <fix>3d</fix>
</trkpt>
<trkpt lat="40.0714329" lon="-105.229488">
  <ele>1583.11</ele>
  <time>2026-08-28T17:56:23Z</time>
  <course>347.45</course>
  <speed>1.0501904589168576</speed>
  <fix>3d</fix>
</trkpt>
<trkpt lat="40.0714298" lon="-105.2294868">
  <ele>1583.0</ele>
  <time>2026-08-28T17:56:23Z</time>
  <course>346.68</course>
  <speed>1.45</speed>
  <fix>3d</fix>
</trkpt>
<trkpt lat="40.0714338" lon="-105.2294883">
  <ele>1583.11</ele>
  <time>2026-08-28T17:56:23Z</time>
  <course>347.47</course>
  <speed>0.9386160024205852</speed>
  <fix>3d</fix>
</trkpt>
<trkpt lat="40.0714321" lon="-105.2294876">
  <ele>1583.0</ele>
  <time>2026-08-28T17:56:23Z</time>
  <course>346.88</course>
  <speed>1.22</speed>
  <fix>3d</fix>
</trkpt>
<trkpt lat="40.0714346" lon="-105.2294885">
  <ele>1583.11</ele>
  <time>2026-08-28T17:56:23Z</time>
  <course>347.47</course>
  <speed>0.8246211251235321</speed>
  <fix>3d</fix>
</trkpt>
<trkpt lat="40.0714321" lon="-105.2294876">
  <ele>1583.0</ele>
  <time>2026-08-28T17:56:23Z</time>
  <course>346.88</course>
  <speed>1.22</speed>
  <fix>3d</fix>
</trkpt>
<trkpt lat="40.0714354" lon="-105.2294887">
  <ele>1583.11</ele>
  <time>2026-08-28T17:56:23Z</time>
  <course>347.47</course>
  <speed>0.7106335201775947</speed>
  <fix>3d</fix>
</trkpt>
<trkpt lat="40.0714341" lon="-105.2294881">
  <ele>1583.0</ele>
  <time>2026-08-28T17:56:23Z</time>
  <course>347.11</course>
  <speed>1.0</speed>
  <fix>3d</fix>
</trkpt>
<trkpt lat="40.071436" lon="-105.2294889">
  <ele>1583.11</ele>
  <time>2026-08-28T17:56:23Z</time>
  <course>347.46</course>
  <speed>0.5966573556070519</speed>
  <fix>3d</fix>
</trkpt>
<trkpt lat="40.0714341" lon="-105.2294881">
  <ele>1583.0</ele>
  <time>2026-08-28T17:56:23Z</time>
  <course>347.11</course>
  <speed>1.0</speed>
  <fix>3d</fix>
</trkpt>
<trkpt lat="40.0714365" lon="-105.229489">
  <ele>1583.11</ele>
  <time>2026-08-28T17:56:23Z</time>
  <course>347.45</course>
  <speed>0.4827007354458868</speed>
  <fix>3d</fix>
</trkpt>
<trkpt lat="40.0714356" lon="-105.2294886">
  <ele>1583.0</ele>
  <time>2026-08-28T17:56:23Z</time>
  <course>347.44</course>
  <speed>0.77</speed>
  <fix>3d</fix>
</trkpt>
<trkpt lat="40.0714369" lon="-105.2294891">
  <ele>1583.11</ele>
  <time>2026-08-28T17:56:23Z</time>
  <course>347.42</course>
  <speed>0.3687817782917155</speed>
  <fix>3d</fix>
</trkpt>
<trkpt lat="40.0714356" lon="-105.2294886">
  <ele>1583.0</ele>
  <time>2026-08-28T17:56:23Z</time>
  <course>347.44</course>
  <speed>0.77</speed>
  <fix>3d</fix>
</trkpt>
<trkpt lat="40.0714372" lon="-105.2294892">
  <ele>1583.11</ele>
  <time>2026-08-28T17:56:23Z</time>
  <course>347.4</course>
  <speed>0.25495097567963926</speed>
  <fix>3d</fix>
</trkpt>
<trkpt lat="40.0714368" lon="-105.229489">
  <ele>1583.0</ele>
  <time>2026-08-28T17:56:23Z</time>
  <course>347.99</course>
  <speed>0.54</speed>
  <fix>3d</fix>
</trkpt>
<trkpt lat="40.0714374" lon="-105.2294892">
  <ele>1583.11</ele>
  <time>2026-08-28T17:56:23Z</time>
  <course>347.38</course>
  <speed>0.14317821063276354</speed>
  <fix>3d</fix>
</trkpt>
<trkpt lat="40.0714368" lon="-105.229489">
  <ele>1583.0</ele>
  <time>2026-08-28T17:56:23Z</time>
  <course>347.99</course>
  <speed>0.54</speed>
  <fix>3d</fix>
</trkpt>
<trkpt lat="40.0714375" lon="-105.2294892">
  <ele>1583.11</ele>
  <time>2026-08-28T17:56:23Z</time>
  <course>347.36</course>
  <speed>0.06</speed>
  <fix>3d</fix>
</trkpt>
<trkpt lat="40.0714375" lon="-105.2294891">
  <ele>1583.0</ele>
  <time>2026-08-28T17:56:23Z</time>
  <course>349.32</course>
  <speed>0.32</speed>
  <fix>3d</fix>
</trkpt>
<trkpt lat="40.0714376" lon="-105.2294892">
  <ele>1583.11</ele>
  <time>2026-08-28T17:56:23Z</time>
  <course>347.35</course>
  <speed>0.0316227766016838</speed>
  <fix>3d</fix>
</trkpt>
<trkpt lat="40.0714375" lon="-105.2294891">
  <ele>1583.0</ele>
  <time>2026-08-28T17:56:23Z</time>
  <course>349.32</course>
  <speed>0.32</speed>
  <fix>3d</fix>
</trkpt>
<trkpt lat="40.0714376" lon="-105.2294892">
  <ele>1583.12</ele>
  <time>2026-08-28T17:56:23Z</time>
  <course>347.35</course>
  <speed>0.11401754250991379</speed>
  <fix>3d</fix>
</trkpt>
<trkpt lat="40.071438" lon="-105.2294893">
  <ele>1583.0</ele>
  <time>2026-08-28T17:56:23Z</time>
  <course>355.54</course>
  <speed>0.11</speed>
  <fix>3d</fix>
</trkpt>
<trkpt lat="40.0714375" lon="-105.2294891">
  <ele>1583.12</ele>
  <time>2026-08-28T17:56:23Z</time>
  <course>347.33</course>
  <speed>0.1772004514666935</speed>
  <fix>3d</fix>
</trkpt>
<trkpt lat="40.071438" lon="-105.2294893">
  <ele>1583.0</ele>
  <time>2026-08-28T17:56:23Z</time>
  <course>355.54</course>
  <speed>0.11</speed>
  <fix>3d</fix>
</trkpt>
<trkpt lat="40.0714374" lon="-105.229489">
  <ele>1583.12</ele>
  <time>2026-08-28T17:56:23Z</time>
  <course>347.3</course>
  <speed>0.22135943621178655</speed>
  <fix>3d</fix>
</trkpt>
<trkpt lat="40.071438" lon="-105.2294892">
  <ele>1583.0</ele>
  <time>2026-08-28T17:56:23Z</time>
  <course>147.75</course>
  <speed>0.05</speed>
  <fix>3d</fix>
</trkpt>
<trkpt lat="40.0714372" lon="-105.2294889">
  <ele>1583.12</ele>
  <time>2026-08-28T17:56:23Z</time>
  <course>347.26</course>
  <speed>0.2529822128134704</speed>
  <fix>3d</fix>
</trkpt>
<trkpt lat="40.071438" lon="-105.2294892">
  <ele>1583.0</ele>
  <time>2026-08-28T17:56:23Z</time>
  <course>147.75</course>
  <speed>0.05</speed>
  <fix>3d</fix>
</trkpt>
<trkpt lat="40.071437" lon="-105.2294888">
  <ele>1583.12</ele>
  <time>2026-08-28T17:56:23Z</time>
  <course>347.21</course>
  <speed>0.26248809496813374</speed>
  <fix>3d</fix>
</trkpt>
<trkpt lat="40.0714379" lon="-105.2294891">
  <ele>1583.0</ele>
  <time>2026-08-28T17:56:23Z</time>
  <course>159.06</course>
  <speed>0.15</speed>
  <fix>3d</fix>
</trkpt>
<trkpt lat="40.071437" lon="-105.2294888">
  <ele>1583.13</ele>
  <time>2026-08-28T17:56:23Z</time>
  <course>347.15</course>
  <speed>0.26248809496813374</speed>
  <fix>3d</fix>
</trkpt>
<trkpt lat="40.0714379" lon="-105.2294891">
  <ele>1583.0</ele>
  <time>2026-08-28T17:56:23Z</time>
  <course>159.06</course>
  <speed>0.15</speed>
  <fix>3d</fix>
</trkpt>
<trkpt lat="40.0714368" lon="-105.2294887">
  <ele>1583.13</ele>
  <time>2026-08-28T17:56:23Z</time>
  <course>347.09</course>
  <speed>0.24698178070456936</speed>
  <fix>3d</fix>
</trkpt>
<trkpt lat="40.0714376" lon="-105.229489">
  <ele>1583.0</ele>
  <time>2026-08-28T17:56:23Z</time>
  <course>160.15</course>
  <speed>0.18</speed>
  <fix>3d</fix>
</trkpt>
<trkpt lat="40.0714366" lon="-105.2294887">
  <ele>1583.14</ele>
  <time>2026-08-28T17:56:23Z</time>
  <course>347.03</course>
  <speed>0.22472205054244232</speed>
  <fix>3d</fix>
</trkpt>
<trkpt lat="40.0714376" lon="-105.229489">
  <ele>1583.0</ele>
  <time>2026-08-28T17:56:23Z</time>
  <course>160.15</course>
  <speed>0.18</speed>
  <fix>3d</fix>
</trkpt>
<trkpt lat="40.0714365" lon="-105.2294886">
  <ele>1583.14</ele>
  <time>2026-08-28T17:56:23Z</time>
  <course>346.96</course>
  <speed>0.19697715603592209</speed>
  <fix>3d</fix>
</trkpt>
<trkpt lat="40.0714373" lon="-105.2294889">
  <ele>1583.0</ele>
  <time>2026-08-28T17:56:23Z</time>
  <course>159.54</course>
  <speed>0.17</speed>
  <fix>3d</fix>
</trkpt>
<trkpt lat="40.0714364" lon="-105.2294885">
  <ele>1583.15</ele>
  <time>2026-08-28T17:56:23Z</time>
  <course>346.91</course>
  <speed>0.17</speed>
  <fix>3d</fix>
</trkpt>
<trkpt lat="40.0714373" lon="-105.2294889">
  <ele>1583.0</ele>
  <time>2026-08-28T17:56:23Z</time>
  <course>159.54</course>
  <speed>0.17</speed>
  <fix>3d</fix>
</trkpt>
<trkpt lat="40.0714364" lon="-105.2294884">
  <ele>1583.15</ele>
  <time>2026-08-28T17:56:23Z</time>
  <course>346.87</course>
  <speed>0.13892443989449804</speed>
  <fix>3d</fix>
</trkpt>
<trkpt lat="40.0714371" lon="-105.2294888">
  <ele>1583.0</ele>
  <time>2026-08-28T17:56:23Z</time>
  <course>157.2</course>
  <speed>0.12</speed>
  <fix>3d</fix>
</trkpt>
<trkpt lat="40.0714363" lon="-105.2294883">
  <ele>1583.15</ele>
  <time>2026-08-28T17:56:23Z</time>
  <course>346.85</course>
  <speed>0.1063014581273465</speed>
  <fix>3d</fix>
</trkpt>
<trkpt lat="40.0714371" lon="-105.2294888">
  <ele>1583.0</ele>
  <time>2026-08-28T17:56:23Z</time>
  <course>157.2</course>
  <speed>0.12</speed>
  <fix>3d</fix>
</trkpt>
<trkpt lat="40.0714363" lon="-105.2294883">
  <ele>1583.16</ele>
  <time>2026-08-28T17:56:23Z</time>
  <course>346.84</course>
  <speed>0.07810249675906654</speed>
  <fix>3d</fix>
</trkpt>
<trkpt lat="40.0714369" lon="-105.2294887">
  <ele>1583.0</ele>
  <time>2026-08-28T17:56:23Z</time>
  <course>149.9</course>
  <speed>0.06</speed>
  <fix>3d</fix>
</trkpt>
<trkpt lat="40.0714364" lon="-105.2294883">
  <ele>1583.16</ele>
  <time>2026-08-28T17:56:23Z</time>
  <course>346.84</course>
  <speed>0.0632455532033676</speed>
  <fix>3d</fix>
</trkpt>
<trkpt lat="40.0714369" lon="-105.2294887">
  <ele>1583.0</ele>
  <time>2026-08-28T17:56:23Z</time>
  <course>149.9</course>
  <speed>0.06</speed>
  <fix>3d</fix>
</trkpt>
<trkpt lat="40.0714364" lon="-105.2294882">
  <ele>1583.15</ele>
  <time>2026-08-28T17:56:23Z</time>
  <course>346.86</course>
  <speed>0.05</speed>
  <fix>3d</fix>
</trkpt>
<trkpt lat="40.0714368" lon="-105.2294886">
  <ele>1583.0</ele>
  <time>2026-08-28T17:56:23Z</time>
  <course>99.59</course>
  <speed>0.02</speed>
  <fix>3d</fix>
</trkpt>
<trkpt lat="40.0714365" lon="-105.2294882">
  <ele>1583.15</ele>
  <time>2026-08-28T17:56:23Z</time>
  <course>346.88</course>
  <speed>0.05099019513592785</speed>
  <fix>3d</fix>
</trkpt>
<trkpt lat="40.0714368" lon="-105.2294886">
  <ele>1583.0</ele>
  <time>2026-08-28T17:56:23Z</time>
  <course>99.59</course>
  <speed>0.02</speed>
  <fix>3d</fix>
</trkpt>
<trkpt lat="40.0714365" lon="-105.2294882">
  <ele>1583.15</ele>
  <time>2026-08-28T17:56:23Z</time>
  <course>346.85</course>
  <speed>0.05830951894845301</speed>
  <fix>3d</fix>
</trkpt>
<trkpt lat="40.0714368" lon="-105.2294886">
  <ele>1583.0</ele>
  <time>2026-08-28T17:56:23Z</time>
  <course>10.54</course>
  <speed>0.04</speed>
  <fix>3d</fix>
</trkpt>
<trkpt lat="40.0714365" lon="-105.2294882">
  <ele>1583.15</ele>
  <time>2026-08-28T17:56:23Z</time>
  <course>346.8</course>
  <speed>0.06403124237432849</speed>
  <fix>3d</fix>
</trkpt>
<trkpt lat="40.0714368" lon="-105.2294886">
  <ele>1583.0</ele>
  <time>2026-08-28T17:56:23Z</time>
  <course>10.54</course>
  <speed>0.04</speed>
  <fix>3d</fix>
</trkpt>
<trkpt lat="40.0714366" lon="-105.2294882">
  <ele>1583.14</ele>
  <time>2026-08-28T17:56:23Z</time>
  <course>346.75</course>
  <speed>0.06403124237432849</speed>
  <fix>3d</fix>
</trkpt>
<trkpt lat="40.0714369" lon="-105.2294886">
  <ele>1583.0</ele>
  <time>2026-08-28T17:56:23Z</time>
  <course>359.85</course>
  <speed>0.07</speed>
  <fix>3d</fix>
</trkpt>
<trkpt lat="40.0714367" lon="-105.2294882">
  <ele>1583.14</ele>
  <time>2026-08-28T17:56:23Z</time>
  <course>346.71</course>
  <speed>0.07211102550927978</speed>
  <fix>3d</fix>
</trkpt>
<trkpt lat="40.0714369" lon="-105.2294886">
  <ele>1583.0</ele>
  <time>2026-08-28T17:56:23Z</time>
  <course>359.85</course>
  <speed>0.07</speed>
  <fix>3d</fix>
</trkpt>
<trkpt lat="40.0714368" lon="-105.2294882">
  <ele>1583.15</ele>
  <time>2026-08-28T17:56:23Z</time>
  <course>346.65</course>
  <speed>0.07211102550927978</speed>
  <fix>3d</fix>
</trkpt>
<trkpt lat="40.0714371" lon="-105.2294886">
  <ele>1583.0</ele>
  <time>2026-08-28T17:56:23Z</time>
  <course>357.04</course>
  <speed>0.09</speed>
  <fix>3d</fix>
</trkpt>
<trkpt lat="40.0714369" lon="-105.2294882">
  <ele>1583.15</ele>
  <time>2026-08-28T17:56:23Z</time>
  <course>346.6</course>
  <speed>0.07211102550927978</speed>
  <fix>3d</fix>
</trkpt>
<trkpt lat="40.0714371" lon="-105.2294886">
  <ele>1583.0</ele>
  <time>2026-08-28T17:56:23Z</time>
  <course>357.04</course>
  <speed>0.09</speed>
  <fix>3d</fix>
</trkpt>
<trkpt lat="40.071437" lon="-105.2294882">
  <ele>1583.15</ele>
  <time>2026-08-28T17:56:23Z</time>
  <course>346.55</course>
  <speed>0.07810249675906654</speed>
  <fix>3d</fix>
</trkpt>
<trkpt lat="40.0714372" lon="-105.2294886">
  <ele>1583.0</ele>
  <time>2026-08-28T17:56:23Z</time>
  <course>356.33</course>
  <speed>0.09</speed>
  <fix>3d</fix>
</trkpt>
<trkpt lat="40.0714371" lon="-105.2294882">
  <ele>1583.15</ele>
  <time>2026-08-28T17:56:23Z</time>
  <course>346.48</course>
  <speed>0.07071067811865475</speed>
  <fix>3d</fix>
</trkpt>
<trkpt lat="40.0714372" lon="-105.2294886">
  <ele>1583.0</ele>
  <time>2026-08-28T17:56:23Z</time>
  <course>356.33</course>
  <speed>0.09</speed>
  <fix>3d</fix>
</trkpt>
<trkpt lat="40.0714372" lon="-105.2294882">
  <ele>1583.15</ele>
  <time>2026-08-28T17:56:23Z</time>
  <course>346.37</course>
  <speed>0.07071067811865475</speed>
  <fix>3d</fix>
</trkpt>
<trkpt lat="40.0714373" lon="-105.2294886">
  <ele>1583.0</ele>
  <time>2026-08-28T17:56:23Z</time>
  <course>357.32</course>
  <speed>0.08</speed>
  <fix>3d</fix>
</trkpt>
<trkpt lat="40.0714373" lon="-105.2294881">
  <ele>1583.15</ele>
  <time>2026-08-28T17:56:23Z</time>
  <course>346.22</course>
  <speed>0.07071067811865475</speed>
  <fix>3d</fix>
</trkpt>
<trkpt lat="40.0714373" lon="-105.2294886">
  <ele>1583.0</ele>
  <time>2026-08-28T17:56:23Z</time>
  <course>357.32</course>
  <speed>0.08</speed>
  <fix>3d</fix>
</trkpt>
<trkpt lat="40.0714374" lon="-105.2294881">
  <ele>1583.15</ele>
  <time>2026-08-28T17:56:23Z</time>
  <course>346.03</course>
  <speed>0.07071067811865475</speed>
  <fix>3d</fix>
</trkpt>
<trkpt lat="40.0714375" lon="-105.2294886">
  <ele>1583.0</ele>
  <time>2026-08-28T17:56:23Z</time>
  <course>358.7</course>
  <speed>0.07</speed>
  <fix>3d</fix>
</trkpt>
<trkpt lat="40.0714374" lon="-105.2294881">
  <ele>1583.15</ele>
  <time>2026-08-28T17:56:23Z</time>
  <course>345.79</course>
  <speed>0.07211102550927978</speed>
  <fix>3d</fix>
</trkpt>
<trkpt lat="40.0714375" lon="-105.2294886">
  <ele>1583.0</ele>
  <time>2026-08-28T17:56:23Z</time>
  <course>358.7</course>
  <speed>0.07</speed>
  <fix>3d</fix>
</trkpt>
<trkpt lat="40.0714375" lon="-105.2294881">
  <ele>1583.15</ele>
  <time>2026-08-28T17:56:23Z</time>
  <course>345.45</course>
  <speed>0.08944271909999159</speed>
  <fix>3d</fix>
</trkpt>
<trkpt lat="40.0714377" lon="-105.2294886">
  <ele>1583.0</ele>
  <time>2026-08-28T17:56:23Z</time>
  <course>357.09</course>
  <speed>0.08</speed>
  <fix>3d</fix>
</trkpt>
<trkpt lat="40.0714377" lon="-105.2294882">
  <ele>1583.15</ele>
  <time>2026-08-28T17:56:23Z</time>
  <course>344.88</course>
  <speed>0.11401754250991379</speed>
  <fix>3d</fix>
</trkpt>
<trkpt lat="40.0714377" lon="-105.2294886">
  <ele>1583.0</ele>
  <time>2026-08-28T17:56:23Z</time>
  <course>357.09</course>
  <speed>0.08</speed>
  <fix>3d</fix>
</trkpt>
<trkpt lat="40.0714378" lon="-105.2294882">
  <ele>1583.15</ele>
  <time>2026-08-28T17:56:23Z</time>
  <course>344.23</course>
  <speed>0.1414213562373095</speed>
  <fix>3d</fix>
</trkpt>
<trkpt lat="40.0714379" lon="-105.2294886">
  <ele>1583.0</ele>
  <time>2026-08-28T17:56:23Z</time>
  <course>352.92</course>
  <speed>0.11</speed>
  <fix>3d</fix>
</trkpt>
<trkpt lat="40.071438" lon="-105.2294882">
  <ele>1583.15</ele>
  <time>2026-08-28T17:56:23Z</time>
  <course>343.38</course>
  <speed>0.17029386365926402</speed>
  <fix>3d</fix>
</trkpt>
<trkpt lat="40.0714379" lon="-105.2294886">
  <ele>1583.0</ele>
  <time>2026-08-28T17:56:23Z</time>
  <course>352.92</course>
  <speed>0.11</speed>
  <fix>3d</fix>
</trkpt>
<trkpt lat="40.0714382" lon="-105.2294883">
  <ele>1583.15</ele>
  <time>2026-08-28T17:56:23Z</time>
  <course>342.31</course>
  <speed>0.21</speed>
  <fix>3d</fix>
</trkpt>
<trkpt lat="40.0714381" lon="-105.2294886">
  <ele>1583.0</ele>
  <time>2026-08-28T17:56:23Z</time>
  <course>348.76</course>
  <speed>0.17</speed>
  <fix>3d</fix>
</trkpt>
<trkpt lat="40.0714384" lon="-105.2294883">
  <ele>1583.15</ele>
  <time>2026-08-28T17:56:23Z</time>
  <course>340.99</course>
  <speed>0.24020824298928628</speed>
  <fix>3d</fix>
</trkpt>
<trkpt lat="40.0714381" lon="-105.2294886">
  <ele>1583.0</ele>
  <time>2026-08-28T17:56:23Z</time>
  <course>348.76</course>
  <speed>0.17</speed>
  <fix>3d</fix>
</trkpt>
<trkpt lat="40.0714387" lon="-105.2294883">
  <ele>1583.15</ele>
  <time>2026-08-28T17:56:23Z</time>
  <course>339.44</course>
  <speed>0.27166155414412246</speed>
  <fix>3d</fix>
</trkpt>
<trkpt lat="40.0714385" lon="-105.2294887">
  <ele>1583.0</ele>
  <time>2026-08-28T17:56:23Z</time>
  <course>345.01</course>
  <speed>0.23</speed>
  <fix>3d</fix>
</trkpt>
<trkpt lat="40.071439" lon="-105.2294884">
  <ele>1583.15</ele>
  <time>2026-08-28T17:56:23Z</time>
  <course>337.62</course>
  <speed>0.2942787793912432</speed>
  <fix>3d</fix>
</trkpt>
<trkpt lat="40.0714385" lon="-105.2294887">
  <ele>1583.0</ele>
  <time>2026-08-28T17:56:23Z</time>
  <course>345.01</course>
  <speed>0.23</speed>
  <fix>3d</fix>
</trkpt>
<trkpt lat="40.0714393" lon="-105.2294886">
  <ele>1583.15</ele>
  <time>2026-08-28T17:56:23Z</time>
  <course>335.57</course>
  <speed>0.3298484500494128</speed>
  <fix>3d</fix>
</trkpt>
<trkpt lat="40.0714389" lon="-105.2294889">
  <ele>1583.0</ele>
  <time>2026-08-28T17:56:23Z</time>
  <course>341.09</course>
  <speed>0.3</speed>
  <fix>3d</fix>
</trkpt>
<trkpt lat="40.0714396" lon="-105.2294888">
  <ele>1583.15</ele>
  <time>2026-08-28T17:56:23Z</time>
  <course>333.29</course>
  <speed>0.354400902933387</speed>
  <fix>3d</fix>
</trkpt>
<trkpt lat="40.0714389" lon="-105.2294889">
  <ele>1583.0</ele>
  <time>2026-08-28T17:56:23Z</time>
  <course>341.09</course>
  <speed>0.3</speed>
  <fix>3d</fix>
</trkpt>
<trkpt lat="40.0714399" lon="-105.229489">
  <ele>1583.15</ele>
  <time>2026-08-28T17:56:23Z</time>
  <course>330.8</course>
  <speed>0.3827531841800928</speed>
  <fix>3d</fix>
</trkpt>
<trkpt lat="40.0714394" lon="-105.2294892">
  <ele>1583.0</ele>
  <time>2026-08-28T17:56:23Z</time>
  <course>336.63</course>
  <speed>0.36</speed>
  <fix>3d</fix>
</trkpt>
<trkpt lat="40.0714403" lon="-105.2294892">
  <ele>1583.15</ele>
  <time>2026-08-28T17:56:23Z</time>
  <course>328.12</course>
  <speed>0.40311288741492746</speed>
  <fix>3d</fix>
</trkpt>
<trkpt lat="40.0714394" lon="-105.2294892">
  <ele>1583.0</ele>
  <time>2026-08-28T17:56:23Z</time>
  <course>336.63</course>
  <speed>0.36</speed>
  <fix>3d</fix>
</trkpt>
<trkpt lat="40.0714406" lon="-105.2294894">
  <ele>1583.15</ele>
  <time>2026-08-28T17:56:23Z</time>
  <course>325.86</course>
  <speed>0.4114608122288197</speed>
  <fix>3d</fix>
</trkpt>
<trkpt lat="40.0714401" lon="-105.2294896">
  <ele>1583.0</ele>
  <time>2026-08-28T17:56:23Z</time>
  <course>331.55</course>
  <speed>0.41</speed>
  <fix>3d</fix>
</trkpt>
<trkpt lat="40.0714409" lon="-105.2294898">
  <ele>1583.14</ele>
  <time>2026-08-28T17:56:23Z</time>
  <course>322.95</course>
  <speed>0.4304648650006177</speed>
  <fix>3d</fix>
</trkpt>
<trkpt lat="40.0714401" lon="-105.2294896">
  <ele>1583.0</ele>
  <time>2026-08-28T17:56:23Z</time>
  <course>331.55</course>
  <speed>0.41</speed>
  <fix>3d</fix>
</trkpt>
<trkpt lat="40.0714413" lon="-105.2294901">
  <ele>1583.14</ele>
  <time>2026-08-28T17:56:23Z</time>
  <course>319.92</course>
  <speed>0.44654227123532214</speed>
  <fix>3d</fix>
</trkpt>
<trkpt lat="40.0714408" lon="-105.2294901">
  <ele>1583.0</ele>
  <time>2026-08-28T17:56:23Z</time>
  <course>325.92</course>
  <speed>0.45</speed>
  <fix>3d</fix>
</trkpt>
<trkpt lat="40.0714416" lon="-105.2294905">
  <ele>1583.14</ele>
  <time>2026-08-28T17:56:23Z</time>
  <course>316.8</course>
  <speed>0.46400431032480727</speed>
  <fix>3d</fix>
</trkpt>
<trkpt lat="40.0714408" lon="-105.2294901">
  <ele>1583.0</ele>
  <time>2026-08-28T17:56:23Z</time>
  <course>325.92</course>
  <speed>0.45</speed>
  <fix>3d</fix>
</trkpt>
<trkpt lat="40.0714419" lon="-105.2294909">
  <ele>1583.13</ele>
  <time>2026-08-28T17:56:23Z</time>
  <course>313.57</course>
  <speed>0.48166378315169184</speed>
  <fix>3d</fix>
</trkpt>
<trkpt lat="40.0714414" lon="-105.2294908">
  <ele>1583.0</ele>
  <time>2026-08-28T17:56:23Z</time>
  <course>319.86</course>
  <speed>0.48</speed>
  <fix>3d</fix>
</trkpt>
<trkpt lat="40.0714423" lon="-105.2294914">
  <ele>1583.13</ele>
  <time>2026-08-28T17:56:23Z</time>
  <course>310.23</course>
  <speed>0.4949747468305833</speed>
  <fix>3d</fix>
</trkpt>
<trkpt lat="40.0714414" lon="-105.2294908">
  <ele>1583.0</ele>
  <time>2026-08-28T17:56:23Z</time>
  <course>319.86</course>
  <speed>0.48</speed>
  <fix>3d</fix>
</trkpt>
<trkpt lat="40.0714426" lon="-105.2294919">
  <ele>1583.14</ele>
  <time>2026-08-28T17:56:23Z</time>
  <course>306.77</course>
  <speed>0.5173973328110612</speed>
  <fix>3d</fix>
</trkpt>
<trkpt lat="40.0714421" lon="-105.2294916">
  <ele>1583.0</ele>
  <time>2026-08-28T17:56:23Z</time>
  <course>313.36</course>
  <speed>0.52</speed>
  <fix>3d</fix>
</trkpt>
<trkpt lat="40.0714429" lon="-105.2294925">
  <ele>1583.14</ele>
  <time>2026-08-28T17:56:23Z</time>
  <course>303.17</course>
  <speed>0.5420332093147061</speed>
  <fix>3d</fix>
</trkpt>
<trkpt lat="40.0714421" lon="-105.2294916">
  <ele>1583.0</ele>
  <time>2026-08-28T17:56:23Z</time>
  <course>313.36</course>
  <speed>0.52</speed>
  <fix>3d</fix>
</trkpt>
<trkpt lat="40.0714432" lon="-105.2294931">
  <ele>1583.14</ele>
  <time>2026-08-28T17:56:23Z</time>
  <course>299.41</course>
  <speed>0.5714017850864661</speed>
  <fix>3d</fix>
</trkpt>
<trkpt lat="40.0714428" lon="-105.2294926">
  <ele>1583.0</ele>
  <time>2026-08-28T17:56:23Z</time>
  <course>306.34</course>
  <speed>0.56</speed>
  <fix>3d</fix>
</trkpt>
<trkpt lat="40.0714435" lon="-105.2294937">
  <ele>1583.14</ele>
  <time>2026-08-28T17:56:23Z</time>
  <course>295.45</course>
  <speed>0.6041522986797286</speed>
  <fix>3d</fix>
</trkpt>
<trkpt lat="40.0714428" lon="-105.2294926">
  <ele>1583.0</ele>
  <time>2026-08-28T17:56:23Z</time>
  <course>306.34</course>
  <speed>0.56</speed>
  <fix>3d</fix>
</trkpt>
<trkpt lat="40.0714438" lon="-105.2294946">
  <ele>1583.14</ele>
  <time>2026-08-28T17:56:23Z</time>
  <course>290.52</course>
  <speed>0.65</speed>
  <fix>3d</fix>
</trkpt>
<trkpt lat="40.0714433" lon="-105.2294937">
  <ele>1583.0</ele>
  <time>2026-08-28T17:56:23Z</time>
  <course>298.65</course>
  <speed>0.61</speed>
  <fix>3d</fix>
</trkpt>
<trkpt lat="40.071444" lon="-105.2294954">
  <ele>1583.14</ele>
  <time>2026-08-28T17:56:23Z</time>
  <course>286.4</course>
  <speed>0.6957010852370434</speed>
  <fix>3d</fix>
</trkpt>
<trkpt lat="40.0714433" lon="-105.2294937">
  <ele>1583.0</ele>
  <time>2026-08-28T17:56:23Z</time>
  <course>298.65</course>
  <speed>0.61</speed>
  <fix>3d</fix>
</trkpt>
<trkpt lat="40.0714442" lon="-105.2294963">
  <ele>1583.15</ele>
  <time>2026-08-28T17:56:23Z</time>
  <course>282.24</course>
  <speed>0.7518643494673757</speed>
  <fix>3d</fix>
</trkpt>
<trkpt lat="40.0714438" lon="-105.2294951">
  <ele>1583.0</ele>
  <time>2026-08-28T17:56:23Z</time>
  <course>290.37</course>
  <speed>0.69</speed>
  <fix>3d</fix>
</trkpt>
<trkpt lat="40.0714443" lon="-105.2294973">
  <ele>1583.15</ele>
  <time>2026-08-28T17:56:23Z</time>
  <course>278.11</course>
  <speed>0.8104936767180853</speed>
  <fix>3d</fix>
</trkpt>
<trkpt lat="40.0714438" lon="-105.2294951">
  <ele>1583.0</ele>
  <time>2026-08-28T17:56:23Z</time>
  <course>290.37</course>
  <speed>0.69</speed>
  <fix>3d</fix>
</trkpt>
<trkpt lat="40.0714444" lon="-105.2294983">
  <ele>1583.15</ele>
  <time>2026-08-28T17:56:23Z</time>
  <course>274.08</course>
  <speed>0.8736704184073076</speed>
  <fix>3d</fix>
</trkpt>
<trkpt lat="40.0714441" lon="-105.2294968">
  <ele>1583.0</ele>
  <time>2026-08-28T17:56:23Z</time>
  <course>281.87</course>
  <speed>0.79</speed>
  <fix>3d</fix>
</trkpt>
<trkpt lat="40.0714445" lon="-105.2294995">
  <ele>1583.15</ele>
  <time>2026-08-28T17:56:23Z</time>
  <course>270.19</course>
  <speed>0.9402127418834527</speed>
  <fix>3d</fix>
</trkpt>
<trkpt lat="40.0714441" lon="-105.2294968">
  <ele>1583.0</ele>
  <time>2026-08-28T17:56:23Z</time>
  <course>281.87</course>
  <speed>0.79</speed>
  <fix>3d</fix>
</trkpt>
<trkpt lat="40.0714444" lon="-105.2295007">
  <ele>1583.15</ele>
  <time>2026-08-28T17:56:23Z</time>
  <course>266.58</course>
  <speed>1.0107917688624102</speed>
  <fix>3d</fix>
</trkpt>
<trkpt lat="40.0714443" lon="-105.2294988">
  <ele>1583.0</ele>
  <time>2026-08-28T17:56:23Z</time>
  <course>273.62</course>
  <speed>0.91</speed>
  <fix>3d</fix>
</trkpt>
<trkpt lat="40.0714444" lon="-105.229502">
  <ele>1583.15</ele>
  <time>2026-08-28T17:56:23Z</time>
  <course>263.44</course>
  <speed>1.0846197490365</speed>
  <fix>3d</fix>
</trkpt>
<trkpt lat="40.0714443" lon="-105.2294988">
  <ele>1583.0</ele>
  <time>2026-08-28T17:56:23Z</time>
  <course>273.62</course>
  <speed>0.91</speed>
  <fix>3d</fix>
</trkpt>
<trkpt lat="40.0714443" lon="-105.2295033">
  <ele>1583.15</ele>
  <time>2026-08-28T17:56:23Z</time>
  <course>260.94</course>
  <speed>1.161077086157504</speed>
  <fix>3d</fix>
</trkpt>
<trkpt lat="40.0714443" lon="-105.2295011">
  <ele>1583.0</ele>
  <time>2026-08-28T17:56:23Z</time>
  <course>266.31</course>
  <speed>1.05</speed>
  <fix>3d</fix>
</trkpt>
<trkpt lat="40.0714441" lon="-105.2295048">
  <ele>1583.15</ele>
  <time>2026-08-28T17:56:23Z</time>
  <course>258.92</course>
  <speed>1.2396773773849388</speed>
  <fix>3d</fix>
</trkpt>
<trkpt lat="40.0714443" lon="-105.2295011">
  <ele>1583.0</ele>
  <time>2026-08-28T17:56:23Z</time>
  <course>266.31</course>
  <speed>1.05</speed>
  <fix>3d</fix>
</trkpt>
<trkpt lat="40.0714439" lon="-105.2295063">
  <ele>1583.15</ele>
  <time>2026-08-28T17:56:23Z</time>
  <course>257.28</course>
  <speed>1.3179529581893277</speed>
  <fix>3d</fix>
</trkpt>
<trkpt lat="40.0714442" lon="-105.2295038">
  <ele>1583.0</ele>
  <time>2026-08-28T17:56:23Z</time>
  <course>260.79</course>
  <speed>1.19</speed>
  <fix>3d</fix>
</trkpt>
<trkpt lat="40.0714436" lon="-105.2295076">
  <ele>1583.15</ele>
  <time>2026-08-28T17:56:23Z</time>
  <course>256.2</course>
  <speed>1.3851353724455961</speed>
  <fix>3d</fix>
</trkpt>
<trkpt lat="40.0714442" lon="-105.2295038">
  <ele>1583.0</ele>
  <time>2026-08-28T17:56:23Z</time>
  <course>260.79</course>
  <speed>1.19</speed>
  <fix>3d</fix>
</trkpt>
<trkpt lat="40.0714433" lon="-105.2295093">
  <ele>1583.14</ele>
  <time>2026-08-28T17:56:23Z</time>
  <course>255.08</course>
  <speed>1.4746185947559456</speed>
  <fix>3d</fix>
</trkpt>
<trkpt lat="40.0714438" lon="-105.2295067">
  <ele>1583.0</ele>
  <time>2026-08-28T17:56:23Z</time>
  <course>257.11</course>
  <speed>1.35</speed>
  <fix>3d</fix>
</trkpt>
<trkpt lat="40.071443" lon="-105.2295111">
  <ele>1583.14</ele>
  <time>2026-08-28T17:56:23Z</time>
  <course>254.17</course>
  <speed>1.5524174696260025</speed>
  <fix>3d</fix>
</trkpt>
<trkpt lat="40.0714438" lon="-105.2295067">
  <ele>1583.0</ele>
  <time>2026-08-28T17:56:23Z</time>
  <course>257.11</course>
  <speed>1.35</speed>
  <fix>3d</fix>
</trkpt>
<trkpt lat="40.0714426" lon="-105.2295129">
  <ele>1583.14</ele>
  <time>2026-08-28T17:56:23Z</time>
  <course>253.44</course>
  <speed>1.6428329190760695</speed>
  <fix>3d</fix>
</trkpt>
<trkpt lat="40.0714431" lon="-105.2295099">
  <ele>1583.0</ele>
  <time>2026-08-28T17:56:23Z</time>
  <course>254.67</course>
  <speed>1.52</speed>
  <fix>3d</fix>
</trkpt>
<trkpt lat="40.0714421" lon="-105.2295149">
  <ele>1583.14</ele>
  <time>2026-08-28T17:56:23Z</time>
  <course>252.84</course>
  <speed>1.7308090593707903</speed>
  <fix>3d</fix>
</trkpt>
<trkpt lat="40.0714431" lon="-105.2295099">
  <ele>1583.0</ele>
  <time>2026-08-28T17:56:23Z</time>
  <course>254.67</course>
  <speed>1.52</speed>
  <fix>3d</fix>
</trkpt>
<trkpt lat="40.0714416" lon="-105.2295169">
  <ele>1583.14</ele>
  <time>2026-08-28T17:56:23Z</time>
  <course>252.36</course>
  <speed>1.8093645293306708</speed>
  <fix>3d</fix>
</trkpt>
<trkpt lat="40.0714423" lon="-105.2295135">
  <ele>1583.0</ele>
  <time>2026-08-28T17:56:23Z</time>
  <course>253.05</course>
  <speed>1.68</speed>
  <fix>3d</fix>
</trkpt>
<trkpt lat="40.0714411" lon="-105.2295191">
  <ele>1583.14</ele>
  <time>2026-08-28T17:56:23Z</time>
  <course>251.98</course>
  <speed>1.8946503635235712</speed>
  <fix>3d</fix>
</trkpt>
<trkpt lat="40.0714423" lon="-105.2295135">
  <ele>1583.0</ele>
  <time>2026-08-28T17:56:23Z</time>
  <course>253.05</course>
  <speed>1.68</speed>
  <fix>3d</fix>
</trkpt>
<trkpt lat="40.0714405" lon="-105.2295213">
  <ele>1583.13</ele>
  <time>2026-08-28T17:56:23Z</time>
  <course>251.67</course>
  <speed>1.9829523443592891</speed>
  <fix>3d</fix>
</trkpt>
<trkpt lat="40.0714414" lon="-105.2295175">
  <ele>1583.0</ele>
  <time>2026-08-28T17:56:23Z</time>
  <course>251.97</course>
  <speed>1.84</speed>
  <fix>3d</fix>
</trkpt>
<trkpt lat="40.07144" lon="-105.2295236">
  <ele>1583.13</ele>
  <time>2026-08-28T17:56:23Z</time>
  <course>251.44</course>
  <speed>2.0713522153414665</speed>
  <fix>3d</fix>
</trkpt>
<trkpt lat="40.0714414" lon="-105.2295175">
  <ele>1583.0</ele>
  <time>2026-08-28T17:56:23Z</time>
  <course>251.97</course>
  <speed>1.84</speed>
  <fix>3d</fix>
</trkpt>
<trkpt lat="40.0714393" lon="-105.229526">
  <ele>1583.13</ele>
  <time>2026-08-28T17:56:23Z</time>
  <course>251.26</course>
  <speed>2.156710458081937</speed>
  <fix>3d</fix>
</trkpt>
<trkpt lat="40.0714403" lon="-105.2295218">
  <ele>1583.0</ele>
  <time>2026-08-28T17:56:23Z</time>
  <course>251.28</course>
  <speed>2.01</speed>
  <fix>3d</fix>
</trkpt>
<trkpt lat="40.0714386" lon="-105.229529">
  <ele>1583.13</ele>
  <time>2026-08-28T17:56:23Z</time>
  <course>251.11</course>
  <speed>2.264199637841151</speed>
  <fix>3d</fix>
</trkpt>
<trkpt lat="40.0714403" lon="-105.2295218">
  <ele>1583.0</ele>
  <time>2026-08-28T17:56:23Z</time>
  <course>251.28</course>
  <speed>2.01</speed>
  <fix>3d</fix>
</trkpt>
<trkpt lat="40.0714379" lon="-105.2295316">
  <ele>1583.13</ele>
  <time>2026-08-28T17:56:23Z</time>
  <course>251.03</course>
  <speed>2.3495744295510197</speed>
  <fix>3d</fix>
</trkpt>
<trkpt lat="40.071439" lon="-105.2295264">
  <ele>1583.0</ele>
  <time>2026-08-28T17:56:23Z</time>
  <course>250.86</course>
  <speed>2.18</speed>
  <fix>3d</fix>
</trkpt>
<trkpt lat="40.0714372" lon="-105.2295343">
  <ele>1583.13</ele>
  <time>2026-08-28T17:56:23Z</time>
  <course>250.99</course>
  <speed>2.434953798329652</speed>
  <fix>3d</fix>
</trkpt>
<trkpt lat="40.071439" lon="-105.2295264">
  <ele>1583.0</ele>
  <time>2026-08-28T17:56:23Z</time>
  <course>250.86</course>
  <speed>2.18</speed>
  <fix>3d</fix>
</trkpt>
<trkpt lat="40.0714364" lon="-105.2295371">
  <ele>1583.13</ele>
  <time>2026-08-28T17:56:23Z</time>
  <course>250.97</course>
  <speed>2.5298221281347035</speed>
  <fix>3d</fix>
</trkpt>
<trkpt lat="40.0714377" lon="-105.2295314">
  <ele>1583.0</ele>
  <time>2026-08-28T17:56:23Z</time>
  <course>250.62</course>
  <speed>2.35</speed>
  <fix>3d</fix>
</trkpt>
<trkpt lat="40.0714357" lon="-105.22954">
  <ele>1583.13</ele>
  <time>2026-08-28T17:56:23Z</time>
  <course>250.98</course>
  <speed>2.615205536855564</speed>
  <fix>3d</fix>
</trkpt>
<trkpt lat="40.0714377" lon="-105.2295314">
  <ele>1583.0</ele>
  <time>2026-08-28T17:56:23Z</time>
  <course>250.62</course>
  <speed>2.35</speed>
  <fix>3d</fix>
</trkpt>
<trkpt lat="40.0714349" lon="-105.229543">
  <ele>1583.13</ele>
  <time>2026-08-28T17:56:23Z</time>
  <course>250.98</course>
  <speed>2.710073799733136</speed>
  <fix>3d</fix>
</trkpt>
<trkpt lat="40.0714362" lon="-105.2295369">
  <ele>1583.0</ele>
  <time>2026-08-28T17:56:23Z</time>
  <course>250.52</course>
  <speed>2.53</speed>
  <fix>3d</fix>
</trkpt>
<trkpt lat="40.071434" lon="-105.2295461">
  <ele>1583.13</ele>
  <time>2026-08-28T17:56:23Z</time>
  <course>251.03</course>
  <speed>2.795460606054036</speed>
  <fix>3d</fix>
</trkpt>
<trkpt lat="40.0714362" lon="-105.2295369">
  <ele>1583.0</ele>
  <time>2026-08-28T17:56:23Z</time>
  <course>250.52</course>
  <speed>2.53</speed>
  <fix>3d</fix>
</trkpt>
<trkpt lat="40.0714332" lon="-105.2295492">
  <ele>1583.13</ele>
  <time>2026-08-28T17:56:23Z</time>
  <course>251.08</course>
  <speed>2.8903287010303864</speed>
  <fix>3d</fix>
</trkpt>
<trkpt lat="40.0714347" lon="-105.2295427">
  <ele>1583.0</ele>
  <time>2026-08-28T17:56:23Z</time>
  <course>250.49</course>
  <speed>2.7</speed>
  <fix>3d</fix>
</trkpt>
<trkpt lat="40.0714323" lon="-105.2295525">
  <ele>1583.13</ele>
  <time>2026-08-28T17:56:23Z</time>
  <course>251.17</course>
  <speed>2.9757184006555457</speed>
  <fix>3d</fix>
</trkpt>
<trkpt lat="40.0714347" lon="-105.2295427">
  <ele>1583.0</ele>
  <time>2026-08-28T17:56:23Z</time>
  <course>250.49</course>
  <speed>2.7</speed>
  <fix>3d</fix>
</trkpt>
<trkpt lat="40.0714314" lon="-105.2295558">
  <ele>1583.14</ele>
  <time>2026-08-28T17:56:23Z</time>
  <course>251.27</course>
  <speed>3.0705862632402954</speed>
  <fix>3d</fix>
</trkpt>
<trkpt lat="40.071433" lon="-105.2295489">
  <ele>1583.0</ele>
  <time>2026-08-28T17:56:23Z</time>
  <course>250.54</course>
  <speed>2.88</speed>
  <fix>3d</fix>
</trkpt>
<trkpt lat="40.0714305" lon="-105.2295592">
  <ele>1583.14</ele>
  <time>2026-08-28T17:56:23Z</time>
  <course>251.37</course>
  <speed>3.152792413083995</speed>
  <fix>3d</fix>
</trkpt>
<trkpt lat="40.071433" lon="-105.2295489">
  <ele>1583.0</ele>
  <time>2026-08-28T17:56:23Z</time>
  <course>250.54</course>
  <speed>2.88</speed>
  <fix>3d</fix>
</trkpt>
<trkpt lat="40.0714297" lon="-105.2295621">
  <ele>1583.14</ele>
  <time>2026-08-28T17:56:23Z</time>
  <course>251.44</course>
  <speed>3.228699428562529</speed>
  <fix>3d</fix>
</trkpt>
<trkpt lat="40.0714312" lon="-105.2295555">
  <ele>1583.0</ele>
  <time>2026-08-28T17:56:23Z</time>
  <course>250.65</course>
  <speed>3.06</speed>
  <fix>3d</fix>
</trkpt>
<trkpt lat="40.0714288" lon="-105.2295658">
  <ele>1583.14</ele>
  <time>2026-08-28T17:56:23Z</time>
  <course>251.54</course>
  <speed>3.3203915431767985</speed>
  <fix>3d</fix>
</trkpt>
<trkpt lat="40.0714312" lon="-105.2295555">
  <ele>1583.0</ele>
  <time>2026-08-28T17:56:23Z</time>
  <course>250.65</course>
  <speed>3.06</speed>
  <fix>3d</fix>
</trkpt>
<trkpt lat="40.0714278" lon="-105.2295695">
  <ele>1583.14</ele>
  <time>2026-08-28T17:56:23Z</time>
  <course>251.63</course>
  <speed>3.4152598729818497</speed>
  <fix>3d</fix>
</trkpt>
<trkpt lat="40.0714293" lon="-105.2295625">
  <ele>1583.0</ele>
  <time>2026-08-28T17:56:23Z</time>
  <course>250.79</course>
  <speed>3.25</speed>
  <fix>3d</fix>
</trkpt>
<trkpt lat="40.0714267" lon="-105.2295734">
  <ele>1583.14</ele>
  <time>2026-08-28T17:56:23Z</time>
  <course>251.72</course>
  <speed>3.5101282027869014</speed>
  <fix>3d</fix>
</trkpt>
<trkpt lat="40.0714293" lon="-105.2295625">
  <ele>1583.0</ele>
  <time>2026-08-28T17:56:23Z</time>
  <course>250.79</course>
  <speed>3.25</speed>
  <fix>3d</fix>
</trkpt>
<trkpt lat="40.0714257" lon="-105.2295774">
  <ele>1583.14</ele>
  <time>2026-08-28T17:56:23Z</time>
  <course>251.81</course>
  <speed>3.601846748544419</speed>
  <fix>3d</fix>
</trkpt>
<trkpt lat="40.0714274" lon="-105.2295699">
  <ele>1583.0</ele>
  <time>2026-08-28T17:56:23Z</time>
  <course>250.95</course>
  <speed>3.43</speed>
  <fix>3d</fix>
</trkpt>
<trkpt lat="40.0714246" lon="-105.2295815">
  <ele>1583.14</ele>
  <time>2026-08-28T17:56:24Z</time>
  <course>251.9</course>
  <speed>3.696714757727461</speed>
  <fix>3d</fix>
</trkpt>
<trkpt lat="40.0714274" lon="-105.2295699">
  <ele>1583.0</ele>
  <time>2026-08-28T17:56:24Z</time>
  <course>250.95</course>
  <speed>3.43</speed>
  <fix>3d</fix>
</trkpt>
<trkpt lat="40.0714235" lon="-105.2295857">
  <ele>1583.14</ele>
  <time>2026-08-28T17:56:24Z</time>
  <course>252.0</course>
  <speed>3.7884561499375966</speed>
  <fix>3d</fix>
</trkpt>
<trkpt lat="40.0714253" lon="-105.2295777">
  <ele>1583.0</ele>
  <time>2026-08-28T17:56:24Z</time>
  <course>251.12</course>
  <speed>3.62</speed>
  <fix>3d</fix>
</trkpt>
<trkpt lat="40.0714224" lon="-105.22959">
  <ele>1583.14</ele>
  <time>2026-08-28T17:56:24Z</time>
  <course>252.09</course>
  <speed>3.883323319014269</speed>
  <fix>3d</fix>
</trkpt>
<trkpt lat="40.0714253" lon="-105.2295777">
  <ele>1583.0</ele>
  <time>2026-08-28T17:56:24Z</time>
  <course>251.12</course>
  <speed>3.62</speed>
  <fix>3d</fix>
</trkpt>
<trkpt lat="40.0714213" lon="-105.2295944">
  <ele>1583.14</ele>
  <time>2026-08-28T17:56:24Z</time>
  <course>252.2</course>
  <speed>3.9750849047536083</speed>
  <fix>3d</fix>
</trkpt>
<trkpt lat="40.0714232" lon="-105.229586">
  <ele>1583.0</ele>
  <time>2026-08-28T17:56:24Z</time>
  <course>251.3</course>
  <speed>3.8</speed>
  <fix>3d</fix>
</trkpt>
<trkpt lat="40.0714199" lon="-105.2295998">
  <ele>1583.15</ele>
  <time>2026-08-28T17:56:24Z</time>
  <course>252.33</course>
  <speed>4.088972976188519</speed>
  <fix>3d</fix>
</trkpt>
<trkpt lat="40.0714232" lon="-105.229586">
  <ele>1583.0</ele>
  <time>2026-08-28T17:56:24Z</time>
  <course>251.3</course>
  <speed>3.8</speed>
  <fix>3d</fix>
</trkpt>
<trkpt lat="40.0714187" lon="-105.2296045">
  <ele>1583.15</ele>
  <time>2026-08-28T17:56:24Z</time>
  <course>252.44</course>
  <speed>4.1807654801483425</speed>
  <fix>3d</fix>
</trkpt>
<trkpt lat="40.0714209" lon="-105.2295947">
  <ele>1583.0</ele>
  <time>2026-08-28T17:56:24Z</time>
  <course>251.49</course>
  <speed>3.98</speed>
  <fix>3d</fix>
</trkpt>
<trkpt lat="40.0714175" lon="-105.2296092">
  <ele>1583.15</ele>
  <time>2026-08-28T17:56:24Z</time>
  <course>252.56</course>
  <speed>4.263050550955267</speed>
  <fix>3d</fix>
</trkpt>
<trkpt lat="40.0714209" lon="-105.2295947">
  <ele>1583.0</ele>
  <time>2026-08-28T17:56:24Z</time>
  <course>251.49</course>
  <speed>3.98</speed>
  <fix>3d</fix>
</trkpt>
<trkpt lat="40.0714163" lon="-105.229614">
  <ele>1583.15</ele>
  <time>2026-08-28T17:56:24Z</time>
  <course>252.65</course>
  <speed>4.332782016210832</speed>
  <fix>3d</fix>
</trkpt>
<trkpt lat="40.0714186" lon="-105.2296037">
  <ele>1583.0</ele>
  <time>2026-08-28T17:56:24Z</time>
  <course>251.7</course>
  <speed>4.16</speed>
  <fix>3d</fix>
</trkpt>
<trkpt lat="40.0714151" lon="-105.2296189">
  <ele>1583.15</ele>
  <time>2026-08-28T17:56:24Z</time>
  <course>252.74</course>
  <speed>4.405553313716678</speed>
  <fix>3d</fix>
</trkpt>
<trkpt lat="40.0714186" lon="-105.2296037">
  <ele>1583.0</ele>
  <time>2026-08-28T17:56:24Z</time>
  <course>251.7</course>
  <speed>4.16</speed>
  <fix>3d</fix>
</trkpt>
<trkpt lat="40.0714139" lon="-105.2296238">
  <ele>1583.16</ele>
  <time>2026-08-28T17:56:24Z</time>
  <course>252.8</course>
  <speed>4.456242812055914</speed>
  <fix>3d</fix>
</trkpt>
<trkpt lat="40.0714162" lon="-105.2296132">
  <ele>1583.0</ele>
  <time>2026-08-28T17:56:24Z</time>
  <course>251.88</course>
  <speed>4.31</speed>
  <fix>3d</fix>
</trkpt>
<trkpt lat="40.0714126" lon="-105.2296288">
  <ele>1583.16</ele>
  <time>2026-08-28T17:56:24Z</time>
  <course>252.85</course>
  <speed>4.5069390943299865</speed>
  <fix>3d</fix>
</trkpt>
<trkpt lat="40.0714162" lon="-105.2296132">
  <ele>1583.0</ele>
  <time>2026-08-28T17:56:24Z</time>
  <course>251.88</course>
  <speed>4.31</speed>
  <fix>3d</fix>
</trkpt>
<trkpt lat="40.0714114" lon="-105.2296339">
  <ele>1583.16</ele>
  <time>2026-08-28T17:56:24Z</time>
  <course>252.91</course>
  <speed>4.548098503770559</speed>
  <fix>3d</fix>
</trkpt>
<trkpt lat="40.0714138" lon="-105.229623">
  <ele>1583.0</ele>
  <time>2026-08-28T17:56:24Z</time>
  <course>252.01</course>
  <speed>4.43</speed>
  <fix>3d</fix>
</trkpt>
<trkpt lat="40.0714102" lon="-105.2296389">
  <ele>1583.16</ele>
  <time>2026-08-28T17:56:24Z</time>
  <course>252.96</course>
  <speed>4.567187318251793</speed>
  <fix>3d</fix>
</trkpt>
<trkpt lat="40.0714138" lon="-105.229623">
  <ele>1583.0</ele>
  <time>2026-08-28T17:56:24Z</time>
  <course>252.01</course>
  <speed>4.43</speed>
  <fix>3d</fix>
</trkpt>
<trkpt lat="40.0714089" lon="-105.229644">
  <ele>1583.17</ele>
  <time>2026-08-28T17:56:24Z</time>
  <course>253.02</course>
  <speed>4.58628389875725</speed>
  <fix>3d</fix>
</trkpt>
<trkpt lat="40.0714113" lon="-105.229633">
  <ele>1583.0</ele>
  <time>2026-08-28T17:56:24Z</time>
  <course>252.13</course>
  <speed>4.51</speed>
  <fix>3d</fix>
</trkpt>
<trkpt lat="40.0714077" lon="-105.229649">
  <ele>1583.17</ele>
  <time>2026-08-28T17:56:24Z</time>
  <course>253.08</course>
  <speed>4.595835071018106</speed>
  <fix>3d</fix>
</trkpt>
<trkpt lat="40.0714113" lon="-105.229633">
  <ele>1583.0</ele>
  <time>2026-08-28T17:56:24Z</time>
  <course>252.13</course>
  <speed>4.51</speed>
  <fix>3d</fix>
</trkpt>
<trkpt lat="40.0714064" lon="-105.2296542">
  <ele>1583.17</ele>
  <time>2026-08-28T17:56:24Z</time>
  <course>253.14</course>
  <speed>4.595835071018106</speed>
  <fix>3d</fix>
</trkpt>
<trkpt lat="40.0714088" lon="-105.2296432">
  <ele>1583.0</ele>
  <time>2026-08-28T17:56:24Z</time>
  <course>252.25</course>
  <speed>4.56</speed>
  <fix>3d</fix>
</trkpt>
<trkpt lat="40.0714055" lon="-105.2296582">
  <ele>1583.17</ele>
  <time>2026-08-28T17:56:24Z</time>
  <course>253.2</course>
  <speed>4.583328484845921</speed>
  <fix>3d</fix>
</trkpt>
<trkpt lat="40.0714088" lon="-105.2296432">
  <ele>1583.0</ele>
  <time>2026-08-28T17:56:24Z</time>
  <course>252.25</course>
  <speed>4.56</speed>
  <fix>3d</fix>
</trkpt>
<trkpt lat="40.0714042" lon="-105.2296633">
  <ele>1583.18</ele>
  <time>2026-08-28T17:56:24Z</time>
  <course>253.26</course>
  <speed>4.573773059520991</speed>
  <fix>3d</fix>
</trkpt>
<trkpt lat="40.0714063" lon="-105.2296533">
  <ele>1583.0</ele>
  <time>2026-08-28T17:56:24Z</time>
  <course>252.37</course>
  <speed>4.57</speed>
  <fix>3d</fix>
</trkpt>
<trkpt lat="40.071403" lon="-105.2296684">
  <ele>1583.18</ele>
  <time>2026-08-28T17:56:24Z</time>
  <course>253.33</course>
  <speed>4.551713962893539</speed>
  <fix>3d</fix>
</trkpt>
<trkpt lat="40.0714063" lon="-105.2296533">
  <ele>1583.0</ele>
  <time>2026-08-28T17:56:24Z</time>
  <course>252.37</course>
  <speed>4.57</speed>
  <fix>3d</fix>
</trkpt>
<trkpt lat="40.0714017" lon="-105.2296735">
  <ele>1583.18</ele>
  <time>2026-08-28T17:56:24Z</time>
  <course>253.39</course>
  <speed>4.529657823721346</speed>
  <fix>3d</fix>
</trkpt>
<trkpt lat="40.0714039" lon="-105.2296636">
  <ele>1583.0</ele>
  <time>2026-08-28T17:56:24Z</time>
  <course>252.49</course>
  <speed>4.55</speed>
  <fix>3d</fix>
</trkpt>
<trkpt lat="40.0714005" lon="-105.2296785">
  <ele>1583.18</ele>
  <time>2026-08-28T17:56:24Z</time>
  <course>253.45</course>
  <speed>4.488485267882696</speed>
  <fix>3d</fix>
</trkpt>
<trkpt lat="40.0714039" lon="-105.2296636">
  <ele>1583.0</ele>
  <time>2026-08-28T17:56:24Z</time>
  <course>252.49</course>
  <speed>4.55</speed>
  <fix>3d</fix>
</trkpt>
<trkpt lat="40.0713993" lon="-105.2296835">
  <ele>1583.19</ele>
  <time>2026-08-28T17:56:24Z</time>
  <course>253.51</course>
  <speed>4.434816794412144</speed>
  <fix>3d</fix>
</trkpt>
<trkpt lat="40.0714015" lon="-105.2296737">
  <ele>1583.0</ele>
  <time>2026-08-28T17:56:24Z</time>
  <course>252.62</course>
  <speed>4.5</speed>
  <fix>3d</fix>
</trkpt>
<trkpt lat="40.0713981" lon="-105.2296885">
  <ele>1583.19</ele>
  <time>2026-08-28T17:56:24Z</time>
  <course>253.57</course>
  <speed>4.381152816325859</speed>
  <fix>3d</fix>
</trkpt>
<trkpt lat="40.0714015" lon="-105.2296737">
  <ele>1583.0</ele>
  <time>2026-08-28T17:56:24Z</time>
  <course>252.62</course>
  <speed>4.5</speed>
  <fix>3d</fix>
</trkpt>
<trkpt lat="40.071397" lon="-105.2296934">
  <ele>1583.19</ele>
  <time>2026-08-28T17:56:24Z</time>
  <course>253.62</course>
  <speed>4.308363958627451</speed>
  <fix>3d</fix>
</trkpt>
<trkpt lat="40.0713991" lon="-105.2296837">
  <ele>1583.0</ele>
  <time>2026-08-28T17:56:24Z</time>
  <course>252.75</course>
  <speed>4.41</speed>
  <fix>3d</fix>
</trkpt>
<trkpt lat="40.0713958" lon="-105.2296982">
  <ele>1583.19</ele>
  <time>2026-08-28T17:56:24Z</time>
  <course>253.68</course>
  <speed>4.2230912848291595</speed>
  <fix>3d</fix>
</trkpt>
<trkpt lat="40.0713991" lon="-105.2296837">
  <ele>1583.0</ele>
  <time>2026-08-28T17:56:24Z</time>
  <course>252.75</course>
  <speed>4.41</speed>
  <fix>3d</fix>
</trkpt>
<trkpt lat="40.0713945" lon="-105.2297038">
  <ele>1583.19</ele>
  <time>2026-08-28T17:56:24Z</time>
  <course>253.75</course>
  <speed>4.118689111841291</speed>
  <fix>3d</fix>
</trkpt>
<trkpt lat="40.0713967" lon="-105.2296935">
  <ele>1583.0</ele>
  <time>2026-08-28T17:56:24Z</time>
  <course>252.88</course>
  <speed>4.27</speed>
  <fix>3d</fix>
</trkpt>
<trkpt lat="40.0713934" lon="-105.2297083">
  <ele>1583.18</ele>
  <time>2026-08-28T17:56:24Z</time>
  <course>253.81</course>
  <speed>4.011383801133968</speed>
  <fix>3d</fix>
</trkpt>
<trkpt lat="40.0713967" lon="-105.2296935">
  <ele>1583.0</ele>
  <time>2026-08-28T17:56:24Z</time>
  <course>252.88</course>
  <speed>4.27</speed>
  <fix>3d</fix>
</trkpt>
<trkpt lat="40.0713924" lon="-105.2297127">
  <ele>1583.18</ele>
  <time>2026-08-28T17:56:24Z</time>
  <course>253.87</course>
  <speed>3.906980931614589</speed>
  <fix>3d</fix>
</trkpt>
<trkpt lat="40.0713945" lon="-105.2297028">
  <ele>1583.0</ele>
  <time>2026-08-28T17:56:24Z</time>
  <course>253.0</course>
  <speed>4.1</speed>
  <fix>3d</fix>
</trkpt>
<trkpt lat="40.0713914" lon="-105.2297171">
  <ele>1583.18</ele>
  <time>2026-08-28T17:56:24Z</time>
  <course>253.93</course>
  <speed>3.802578072834271</speed>
  <fix>3d</fix>
</trkpt>
<trkpt lat="40.0713945" lon="-105.2297028">
  <ele>1583.0</ele>
  <time>2026-08-28T17:56:24Z</time>
  <course>253.0</course>
  <speed>4.1</speed>
  <fix>3d</fix>
</trkpt>
<trkpt lat="40.0713904" lon="-105.2297213">
  <ele>1583.18</ele>
  <time>2026-08-28T17:56:24Z</time>
  <course>254.01</course>
  <speed>3.6952943049234928</speed>
  <fix>3d</fix>
</trkpt>
<trkpt lat="40.0713925" lon="-105.2297118">
  <ele>1583.0</ele>
  <time>2026-08-28T17:56:24Z</time>
  <course>253.14</course>
  <speed>3.89</speed>
  <fix>3d</fix>
</trkpt>
<trkpt lat="40.0713894" lon="-105.2297253">
  <ele>1583.18</ele>
  <time>2026-08-28T17:56:24Z</time>
  <course>254.09</course>
  <speed>3.5784493848593137</speed>
  <fix>3d</fix>
</trkpt>
<trkpt lat="40.0713925" lon="-105.2297118">
  <ele>1583.0</ele>
  <time>2026-08-28T17:56:24Z</time>
  <course>253.14</course>
  <speed>3.89</speed>
  <fix>3d</fix>
</trkpt>
<trkpt lat="40.0713885" lon="-105.2297293">
  <ele>1583.18</ele>
  <time>2026-08-28T17:56:24Z</time>
  <course>254.14</course>
  <speed>3.464462440264002</speed>
  <fix>3d</fix>
</trkpt>
<trkpt lat="40.0713904" lon="-105.2297204">
  <ele>1583.0</ele>
  <time>2026-08-28T17:56:24Z</time>
  <course>253.29</course>
  <speed>3.68</speed>
  <fix>3d</fix>
</trkpt>
<trkpt lat="40.0713877" lon="-105.2297331">
  <ele>1583.18</ele>
  <time>2026-08-28T17:56:24Z</time>
  <course>254.21</course>
  <speed>3.347626024513491</speed>
  <fix>3d</fix>
</trkpt>
<trkpt lat="40.0713904" lon="-105.2297204">
  <ele>1583.0</ele>
  <time>2026-08-28T17:56:24Z</time>
  <course>253.29</course>
  <speed>3.68</speed>
  <fix>3d</fix>
</trkpt>
<trkpt lat="40.0713868" lon="-105.2297367">
  <ele>1583.18</ele>
  <time>2026-08-28T17:56:24Z</time>
  <course>254.28</course>
  <speed>3.2336357246913265</speed>
  <fix>3d</fix>
</trkpt>
<trkpt lat="40.0713886" lon="-105.2297284">
  <ele>1583.0</ele>
  <time>2026-08-28T17:56:24Z</time>
  <course>253.44</course>
  <speed>3.46</speed>
  <fix>3d</fix>
</trkpt>
<trkpt lat="40.071386" lon="-105.2297402">
  <ele>1583.18</ele>
  <time>2026-08-28T17:56:24Z</time>
  <course>254.33</course>
  <speed>3.116809265899984</speed>
  <fix>3d</fix>
</trkpt>
<trkpt lat="40.0713886" lon="-105.2297284">
  <ele>1583.0</ele>
  <time>2026-08-28T17:56:24Z</time>
  <course>253.44</course>
  <speed>3.46</speed>
  <fix>3d</fix>
</trkpt>
<trkpt lat="40.0713852" lon="-105.2297436">
  <ele>1583.18</ele>
  <time>2026-08-28T17:56:24Z</time>
  <course>254.39</course>
  <speed>3.0028153456381563</speed>
  <fix>3d</fix>
</trkpt>
<trkpt lat="40.0713869" lon="-105.229736">
  <ele>1583.0</ele>
  <time>2026-08-28T17:56:24Z</time>
  <course>253.6</course>
  <speed>3.24</speed>
  <fix>3d</fix>
</trkpt>
<trkpt lat="40.0713846" lon="-105.2297463">
  <ele>1583.18</ele>
  <time>2026-08-28T17:56:24Z</time>
  <course>254.45</course>
  <speed>2.917601754866486</speed>
  <fix>3d</fix>
</trkpt>
<trkpt lat="40.0713869" lon="-105.229736">
  <ele>1583.0</ele>
  <time>2026-08-28T17:56:24Z</time>
  <course>253.6</course>
  <speed>3.24</speed>
  <fix>3d</fix>
</trkpt>
<trkpt lat="40.0713839" lon="-105.2297495">
  <ele>1583.18</ele>
  <time>2026-08-28T17:56:24Z</time>
  <course>254.51</course>
  <speed>2.800803456153252</speed>
  <fix>3d</fix>
</trkpt>
<trkpt lat="40.0713853" lon="-105.229743">
  <ele>1583.0</ele>
  <time>2026-08-28T17:56:24Z</time>
  <course>253.77</course>
  <speed>3.02</speed>
  <fix>3d</fix>
</trkpt>
<trkpt lat="40.0713832" lon="-105.2297526">
  <ele>1583.19</ele>
  <time>2026-08-28T17:56:24Z</time>
  <course>254.59</course>
  <speed>2.6868010719068876</speed>
  <fix>3d</fix>
</trkpt>
<trkpt lat="40.0713853" lon="-105.229743">
  <ele>1583.0</ele>
  <time>2026-08-28T17:56:24Z</time>
  <course>253.77</course>
  <speed>3.02</speed>
  <fix>3d</fix>
</trkpt>
<trkpt lat="40.0713826" lon="-105.2297555">
  <ele>1583.19</ele>
  <time>2026-08-28T17:56:24Z</time>
  <course>254.67</course>
  <speed>2.572800031094527</speed>
  <fix>3d</fix>
</trkpt>
<trkpt lat="40.0713839" lon="-105.2297496">
  <ele>1583.0</ele>
  <time>2026-08-28T17:56:24Z</time>
  <course>253.94</course>
  <speed>2.8</speed>
  <fix>3d</fix>
</trkpt>
<trkpt lat="40.071382" lon="-105.2297583">
  <ele>1583.19</ele>
  <time>2026-08-28T17:56:24Z</time>
  <course>254.74</course>
  <speed>2.465623653358314</speed>
  <fix>3d</fix>
</trkpt>
<trkpt lat="40.0713839" lon="-105.2297496">
  <ele>1583.0</ele>
  <time>2026-08-28T17:56:24Z</time>
  <course>253.94</course>
  <speed>2.8</speed>
  <fix>3d</fix>
</trkpt>
<trkpt lat="40.0713814" lon="-105.2297611">
  <ele>1583.19</ele>
  <time>2026-08-28T17:56:24Z</time>
  <course>254.82</course>
  <speed>2.3516164653276266</speed>
  <fix>3d</fix>
</trkpt>
<trkpt lat="40.0713826" lon="-105.2297557">
  <ele>1583.0</ele>
  <time>2026-08-28T17:56:24Z</time>
  <course>254.13</course>
  <speed>2.58</speed>
  <fix>3d</fix>
</trkpt>
<trkpt lat="40.0713808" lon="-105.2297637">
  <ele>1583.18</ele>
  <time>2026-08-28T17:56:24Z</time>
  <course>254.89</course>
  <speed>2.2376103324752505</speed>
  <fix>3d</fix>
</trkpt>
<trkpt lat="40.0713826" lon="-105.2297557">
  <ele>1583.0</ele>
  <time>2026-08-28T17:56:24Z</time>
  <course>254.13</course>
  <speed>2.58</speed>
  <fix>3d</fix>
</trkpt>
<trkpt lat="40.0713803" lon="-105.2297661">
  <ele>1583.18</ele>
  <time>2026-08-28T17:56:24Z</time>
  <course>254.95</course>
  <speed>2.123605424743495</speed>
  <fix>3d</fix>
</trkpt>
<trkpt lat="40.0713814" lon="-105.2297613">
  <ele>1583.0</ele>
  <time>2026-08-28T17:56:24Z</time>
  <course>254.32</course>
  <speed>2.36</speed>
  <fix>3d</fix>
</trkpt>
<trkpt lat="40.0713798" lon="-105.2297685">
  <ele>1583.18</ele>
  <time>2026-08-28T17:56:24Z</time>
  <course>255.01</course>
  <speed>2.0164572894063486</speed>
  <fix>3d</fix>
</trkpt>
<trkpt lat="40.0713814" lon="-105.2297613">
  <ele>1583.0</ele>
  <time>2026-08-28T17:56:24Z</time>
  <course>254.32</course>
  <speed>2.36</speed>
  <fix>3d</fix>
</trkpt>
<trkpt lat="40.0713793" lon="-105.2297707">
  <ele>1583.17</ele>
  <time>2026-08-28T17:56:24Z</time>
  <course>255.07</course>
  <speed>1.9120669444347391</speed>
  <fix>3d</fix>
</trkpt>
<trkpt lat="40.0713803" lon="-105.2297664">
  <ele>1583.0</ele>
  <time>2026-08-28T17:56:24Z</time>
  <course>254.5</course>
  <speed>2.14</speed>
  <fix>3d</fix>
</trkpt>
<trkpt lat="40.0713787" lon="-105.2297733">
  <ele>1583.17</ele>
  <time>2026-08-28T17:56:24Z</time>
  <course>255.12</course>
  <speed>1.7788198334851115</speed>
  <fix>3d</fix>
</trkpt>
<trkpt lat="40.0713803" lon="-105.2297664">
  <ele>1583.0</ele>
  <time>2026-08-28T17:56:24Z</time>
  <course>254.5</course>
  <speed>2.14</speed>
  <fix>3d</fix>
</trkpt>
<trkpt lat="40.0713783" lon="-105.2297752">
  <ele>1583.17</ele>
  <time>2026-08-28T17:56:24Z</time>
  <course>255.17</course>
  <speed>1.6744252745345194</speed>
  <fix>3d</fix>
</trkpt>
<trkpt lat="40.0713793" lon="-105.229771">
  <ele>1583.0</ele>
  <time>2026-08-28T17:56:24Z</time>
  <course>254.69</course>
  <speed>1.93</speed>
  <fix>3d</fix>
</trkpt>
<trkpt lat="40.0713779" lon="-105.2297771">
  <ele>1583.17</ele>
  <time>2026-08-28T17:56:24Z</time>
  <course>255.21</course>
  <speed>1.5700318468107581</speed>
  <fix>3d</fix>
</trkpt>
<trkpt lat="40.0713793" lon="-105.229771">
  <ele>1583.0</ele>
  <time>2026-08-28T17:56:24Z</time>
  <course>254.69</course>
  <speed>1.93</speed>
  <fix>3d</fix>
</trkpt>
<trkpt lat="40.0713776" lon="-105.2297788">
  <ele>1583.17</ele>
  <time>2026-08-28T17:56:24Z</time>
  <course>255.26</course>
  <speed>1.4560219778561037</speed>
  <fix>3d</fix>
</trkpt>
<trkpt lat="40.0713784" lon="-105.2297752">
  <ele>1583.0</ele>
  <time>2026-08-28T17:56:24Z</time>
  <course>254.89</course>
  <speed>1.72</speed>
  <fix>3d</fix>
</trkpt>
<trkpt lat="40.0713772" lon="-105.2297804">
  <ele>1583.17</ele>
  <time>2026-08-28T17:56:24Z</time>
  <course>255.31</course>
  <speed>1.351628647225265</speed>
  <fix>3d</fix>
</trkpt>
<trkpt lat="40.0713784" lon="-105.2297752">
  <ele>1583.0</ele>
  <time>2026-08-28T17:56:24Z</time>
  <course>254.89</course>
  <speed>1.72</speed>
  <fix>3d</fix>
</trkpt>
<trkpt lat="40.0713769" lon="-105.2297819">
  <ele>1583.17</ele>
  <time>2026-08-28T17:56:24Z</time>
  <course>255.35</course>
  <speed>1.2349089035228469</speed>
  <fix>3d</fix>
</trkpt>
<trkpt lat="40.0713777" lon="-105.2297789">
  <ele>1583.0</ele>
  <time>2026-08-28T17:56:24Z</time>
  <course>255.12</course>
  <speed>1.51</speed>
  <fix>3d</fix>
</trkpt>
<trkpt lat="40.0713767" lon="-105.2297833">
  <ele>1583.17</ele>
  <time>2026-08-28T17:56:24Z</time>
  <course>255.39</course>
  <speed>1.1305308487608818</speed>
  <fix>3d</fix>
</trkpt>
<trkpt lat="40.0713777" lon="-105.2297789">
  <ele>1583.0</ele>
  <time>2026-08-28T17:56:24Z</time>
  <course>255.12</course>
  <speed>1.51</speed>
  <fix>3d</fix>
</trkpt>
<trkpt lat="40.0713764" lon="-105.2297846">
  <ele>1583.18</ele>
  <time>2026-08-28T17:56:24Z</time>
  <course>255.42</course>
  <speed>1.0165136496870073</speed>
  <fix>3d</fix>
</trkpt>
<trkpt lat="40.071377" lon="-105.2297821">
  <ele>1583.0</ele>
  <time>2026-08-28T17:56:24Z</time>
  <course>255.39</course>
  <speed>1.29</speed>
  <fix>3d</fix>
</trkpt>
<trkpt lat="40.0713762" lon="-105.2297857">
  <ele>1583.18</ele>
  <time>2026-08-28T17:56:24Z</time>
  <course>255.44</course>
  <speed>0.9121403400793103</speed>
  <fix>3d</fix>
</trkpt>
<trkpt lat="40.071377" lon="-105.2297821">
  <ele>1583.0</ele>
  <time>2026-08-28T17:56:24Z</time>
  <course>255.39</course>
  <speed>1.29</speed>
  <fix>3d</fix>
</trkpt>
<trkpt lat="40.071376" lon="-105.2297867">
  <ele>1583.18</ele>
  <time>2026-08-28T17:56:24Z</time>
  <course>255.46</course>
  <speed>0.8077747210701756</speed>
  <fix>3d</fix>
</trkpt>
<trkpt lat="40.0713765" lon="-105.2297847">
  <ele>1583.0</ele>
  <time>2026-08-28T17:56:24Z</time>
  <course>255.71</course>
  <speed>1.08</speed>
  <fix>3d</fix>
</trkpt>
<trkpt lat="40.0713758" lon="-105.2297876">
  <ele>1583.18</ele>
  <time>2026-08-28T17:56:24Z</time>
  <course>255.46</course>
  <speed>0.7034202158027589</speed>
  <fix>3d</fix>
</trkpt>
<trkpt lat="40.0713765" lon="-105.2297847">
  <ele>1583.0</ele>
  <time>2026-08-28T17:56:24Z</time>
  <course>255.71</course>
  <speed>1.08</speed>
  <fix>3d</fix>
</trkpt>
<trkpt lat="40.0713757" lon="-105.2297882">
  <ele>1583.17</ele>
  <time>2026-08-28T17:56:24Z</time>
  <course>255.45</course>
  <speed>0.611310068623117</speed>
  <fix>3d</fix>
</trkpt>
<trkpt lat="40.071376" lon="-105.2297869">
  <ele>1583.0</ele>
  <time>2026-08-28T17:56:24Z</time>
  <course>256.1</course>
  <speed>0.87</speed>
  <fix>3d</fix>
</trkpt>
<trkpt lat="40.0713756" lon="-105.2297889">
  <ele>1583.17</ele>
  <time>2026-08-28T17:56:24Z</time>
  <course>255.45</course>
  <speed>0.5069516742254631</speed>
  <fix>3d</fix>
</trkpt>
<trkpt lat="40.071376" lon="-105.2297869">
  <ele>1583.0</ele>
  <time>2026-08-28T17:56:24Z</time>
  <course>256.1</course>
  <speed>0.87</speed>
  <fix>3d</fix>
</trkpt>
<trkpt lat="40.0713755" lon="-105.2297895">
  <ele>1583.17</ele>
  <time>2026-08-28T17:56:24Z</time>
  <course>255.44</course>
  <speed>0.4026164427839479</speed>
  <fix>3d</fix>
</trkpt>
<trkpt lat="40.0713757" lon="-105.2297887">
  <ele>1583.0</ele>
  <time>2026-08-28T17:56:24Z</time>
  <course>256.68</course>
  <speed>0.66</speed>
  <fix>3d</fix>
</trkpt>
<trkpt lat="40.0713754" lon="-105.2297899">
  <ele>1583.17</ele>
  <time>2026-08-28T17:56:24Z</time>
  <course>255.42</course>
  <speed>0.3080584360149873</speed>
  <fix>3d</fix>
</trkpt>
<trkpt lat="40.0713757" lon="-105.2297887">
  <ele>1583.0</ele>
  <time>2026-08-28T17:56:24Z</time>
  <course>256.68</course>
  <speed>0.66</speed>
  <fix>3d</fix>
</trkpt>
<trkpt lat="40.0713754" lon="-105.2297903">
  <ele>1583.18</ele>
  <time>2026-08-28T17:56:24Z</time>
  <course>255.41</course>
  <speed>0.2039607805437114</speed>
  <fix>3d</fix>
</trkpt>
<trkpt lat="40.0713755" lon="-105.22979">
  <ele>1583.0</ele>
  <time>2026-08-28T17:56:24Z</time>
  <course>257.72</course>
  <speed>0.45</speed>
  <fix>3d</fix>
</trkpt>
<trkpt lat="40.0713753" lon="-105.2297905">
  <ele>1583.18</ele>
  <time>2026-08-28T17:56:24Z</time>
  <course>255.39</course>
  <speed>0.1118033988749895</speed>
  <fix>3d</fix>
</trkpt>
<trkpt lat="40.0713755" lon="-105.22979">
  <ele>1583.0</ele>
  <time>2026-08-28T17:56:24Z</time>
  <course>257.72</course>
  <speed>0.45</speed>
  <fix>3d</fix>
</trkpt>
<trkpt lat="40.0713753" lon="-105.2297907">
  <ele>1583.18</ele>
  <time>2026-08-28T17:56:24Z</time>
  <course>255.37</course>
  <speed>0.03</speed>
  <fix>3d</fix>
</trkpt>
<trkpt lat="40.0713754" lon="-105.2297909">
  <ele>1583.0</ele>
  <time>2026-08-28T17:56:24Z</time>
  <course>260.2</course>
  <speed>0.26</speed>
  <fix>3d</fix>
</trkpt>
<trkpt lat="40.0713754" lon="-105.2297907">
  <ele>1583.18</ele>
  <time>2026-08-28T17:56:24Z</time>
  <course>255.37</course>
  <speed>0.044721359549995794</speed>
  <fix>3d</fix>
</trkpt>
<trkpt lat="40.0713754" lon="-105.2297909">
  <ele>1583.0</ele>
  <time>2026-08-28T17:56:24Z</time>
  <course>260.2</course>
  <speed>0.26</speed>
  <fix>3d</fix>
</trkpt>
<trkpt lat="40.0713754" lon="-105.2297907">
  <ele>1583.18</ele>
  <time>2026-08-28T17:56:24Z</time>
  <course>255.38</course>
  <speed>0.10770329614269007</speed>
  <fix>3d</fix>
</trkpt>
<trkpt lat="40.0713754" lon="-105.2297912">
  <ele>1583.0</ele>
  <time>2026-08-28T17:56:24Z</time>
  <course>271.45</course>
  <speed>0.09</speed>
  <fix>3d</fix>
</trkpt>
<trkpt lat="40.0713755" lon="-105.2297906">
  <ele>1583.18</ele>
  <time>2026-08-28T17:56:24Z</time>
  <course>255.37</course>
  <speed>0.1615549442140351</speed>
  <fix>3d</fix>
</trkpt>
<trkpt lat="40.0713754" lon="-105.2297912">
  <ele>1583.0</ele>
  <time>2026-08-28T17:56:24Z</time>
  <course>271.45</course>
  <speed>0.09</speed>
  <fix>3d</fix>
</trkpt>
<trkpt lat="40.0713756" lon="-105.2297904">
  <ele>1583.18</ele>
  <time>2026-08-28T17:56:24Z</time>
  <course>255.34</course>
  <speed>0.20248456731316586</speed>
  <fix>3d</fix>
</trkpt>
<trkpt lat="40.0713754" lon="-105.2297913">
  <ele>1583.0</ele>
  <time>2026-08-28T17:56:24Z</time>
  <course>42.91</course>
  <speed>0.05</speed>
  <fix>3d</fix>
</trkpt>
<trkpt lat="40.0713756" lon="-105.2297902">
  <ele>1583.17</ele>
  <time>2026-08-28T17:56:24Z</time>
  <course>255.31</course>
  <speed>0.22472205054244232</speed>
  <fix>3d</fix>
</trkpt>
<trkpt lat="40.0713754" lon="-105.2297913">
  <ele>1583.0</ele>
  <time>2026-08-28T17:56:24Z</time>
  <course>42.91</course>
  <speed>0.05</speed>
  <fix>3d</fix>
</trkpt>
<trkpt lat="40.0713756" lon="-105.2297902">
  <ele>1583.17</ele>
  <time>2026-08-28T17:56:24Z</time>
  <course>255.27</course>
  <speed>0.22847319317591727</speed>
  <fix>3d</fix>
</trkpt>
<trkpt lat="40.0713754" lon="-105.2297911">
  <ele>1583.0</ele>
  <time>2026-08-28T17:56:24Z</time>
  <course>61.67</course>
  <speed>0.12</speed>
  <fix>3d</fix>
</trkpt>
<trkpt lat="40.0713757" lon="-105.22979">
  <ele>1583.17</ele>
  <time>2026-08-28T17:56:24Z</time>
  <course>255.22</course>
  <speed>0.22847319317591727</speed>
  <fix>3d</fix>
</trkpt>
<trkpt lat="40.0713754" lon="-105.2297911">
  <ele>1583.0</ele>
  <time>2026-08-28T17:56:24Z</time>
  <course>61.67</course>
  <speed>0.12</speed>
  <fix>3d</fix>
</trkpt>
<trkpt lat="40.0713758" lon="-105.2297898">
  <ele>1583.17</ele>
  <time>2026-08-28T17:56:24Z</time>
  <course>255.17</course>
  <speed>0.2193171219946131</speed>
  <fix>3d</fix>
</trkpt>
<trkpt lat="40.0713755" lon="-105.2297909">
  <ele>1583.0</ele>
  <time>2026-08-28T17:56:24Z</time>
  <course>63.73</course>
  <speed>0.15</speed>
  <fix>3d</fix>
</trkpt>
<trkpt lat="40.0713758" lon="-105.2297897">
  <ele>1583.17</ele>
  <time>2026-08-28T17:56:24Z</time>
  <course>255.12</course>
  <speed>0.20124611797498107</speed>
  <fix>3d</fix>
</trkpt>
<trkpt lat="40.0713755" lon="-105.2297909">
  <ele>1583.0</ele>
  <time>2026-08-28T17:56:24Z</time>
  <course>63.73</course>
  <speed>0.15</speed>
  <fix>3d</fix>
</trkpt>
<trkpt lat="40.0713759" lon="-105.2297896">
  <ele>1583.17</ele>
  <time>2026-08-28T17:56:24Z</time>
  <course>255.08</course>
  <speed>0.1835755975068582</speed>
  <fix>3d</fix>
</trkpt>
<trkpt lat="40.0713756" lon="-105.2297906">
  <ele>1583.0</ele>
  <time>2026-08-28T17:56:24Z</time>
  <course>62.7</course>
  <speed>0.13</speed>
  <fix>3d</fix>
</trkpt>
<trkpt lat="40.071376" lon="-105.2297895">
  <ele>1583.17</ele>
  <time>2026-08-28T17:56:24Z</time>
  <course>255.04</course>
  <speed>0.15264337522473748</speed>
  <fix>3d</fix>
</trkpt>
<trkpt lat="40.0713756" lon="-105.2297906">
  <ele>1583.0</ele>
  <time>2026-08-28T17:56:24Z</time>
  <course>62.7</course>
  <speed>0.13</speed>
  <fix>3d</fix>
</trkpt>
<trkpt lat="40.071376" lon="-105.2297894">
  <ele>1583.18</ele>
  <time>2026-08-28T17:56:24Z</time>
  <course>255.02</course>
  <speed>0.12806248474865697</speed>
  <fix>3d</fix>
</trkpt>
<trkpt lat="40.0713757" lon="-105.2297903">
  <ele>1583.0</ele>
  <time>2026-08-28T17:56:24Z</time>
  <course>58.44</course>
  <speed>0.1</speed>
  <fix>3d</fix>
</trkpt>
<trkpt lat="40.0713761" lon="-105.2297894">
  <ele>1583.18</ele>
  <time>2026-08-28T17:56:24Z</time>
  <course>255.0</course>
  <speed>0.09899494936611665</speed>
  <fix>3d</fix>
</trkpt>
<trkpt lat="40.0713757" lon="-105.2297903">
  <ele>1583.0</ele>
  <time>2026-08-28T17:56:24Z</time>
  <course>58.44</course>
  <speed>0.1</speed>
  <fix>3d</fix>
</trkpt>
<trkpt lat="40.0713761" lon="-105.2297894">
  <ele>1583.18</ele>
  <time>2026-08-28T17:56:24Z</time>
  <course>255.0</course>
  <speed>0.08602325267042626</speed>
  <fix>3d</fix>
</trkpt>
<trkpt lat="40.0713758" lon="-105.2297902">
  <ele>1583.0</ele>
  <time>2026-08-28T17:56:24Z</time>
  <course>45.07</course>
  <speed>0.05</speed>
  <fix>3d</fix>
</trkpt>
<trkpt lat="40.0713761" lon="-105.2297894">
  <ele>1583.18</ele>
  <time>2026-08-28T17:56:24Z</time>
  <course>255.0</course>
  <speed>0.0632455532033676</speed>
  <fix>3d</fix>
</trkpt>
<trkpt lat="40.0713758" lon="-105.2297902">
  <ele>1583.0</ele>
  <time>2026-08-28T17:56:24Z</time>
  <course>45.07</course>
  <speed>0.05</speed>
  <fix>3d</fix>
</trkpt>
<trkpt lat="40.0713761" lon="-105.2297895">
  <ele>1583.18</ele>
  <time>2026-08-28T17:56:24Z</time>
  <course>255.02</course>
  <speed>0.06</speed>
  <fix>3d</fix>
</trkpt>
<trkpt lat="40.0713759" lon="-105.2297902">
  <ele>1583.0</ele>
  <time>2026-08-28T17:56:24Z</time>
  <course>346.36</course>
  <speed>0.02</speed>
  <fix>3d</fix>
</trkpt>
<trkpt lat="40.0713762" lon="-105.2297896">
  <ele>1583.17</ele>
  <time>2026-08-28T17:56:24Z</time>
  <course>255.05</course>
  <speed>0.06082762530298219</speed>
  <fix>3d</fix>
</trkpt>
<trkpt lat="40.0713759" lon="-105.2297902">
  <ele>1583.0</ele>
  <time>2026-08-28T17:56:24Z</time>
  <course>346.36</course>
  <speed>0.02</speed>
  <fix>3d</fix>
</trkpt>
<trkpt lat="40.0713762" lon="-105.2297897">
  <ele>1583.17</ele>
  <time>2026-08-28T17:56:24Z</time>
  <course>255.03</course>
  <speed>0.05830951894845301</speed>
  <fix>3d</fix>
</trkpt>
<trkpt lat="40.0713759" lon="-105.2297902">
  <ele>1583.0</ele>
  <time>2026-08-28T17:56:24Z</time>
  <course>288.45</course>
  <speed>0.04</speed>
  <fix>3d</fix>
</trkpt>
<trkpt lat="40.0713762" lon="-105.2297897">
  <ele>1583.17</ele>
  <time>2026-08-28T17:56:24Z</time>
  <course>254.99</course>
  <speed>0.06403124237432849</speed>
  <fix>3d</fix>
</trkpt>
<trkpt lat="40.0713759" lon="-105.2297902">
  <ele>1583.0</ele>
  <time>2026-08-28T17:56:24Z</time>
  <course>288.45</course>
  <speed>0.04</speed>
  <fix>3d</fix>
</trkpt>
<trkpt lat="40.0713762" lon="-105.2297899">
  <ele>1583.17</ele>
  <time>2026-08-28T17:56:24Z</time>
  <course>254.94</course>
  <speed>0.07071067811865475</speed>
  <fix>3d</fix>
</trkpt>
<trkpt lat="40.0713759" lon="-105.2297902">
  <ele>1583.0</ele>
  <time>2026-08-28T17:56:24Z</time>
  <course>275.48</course>
  <speed>0.07</speed>
  <fix>3d</fix>
</trkpt>
<trkpt lat="40.0713762" lon="-105.22979">
  <ele>1583.17</ele>
  <time>2026-08-28T17:56:24Z</time>
  <course>254.88</course>
  <speed>0.07810249675906654</speed>
  <fix>3d</fix>
</trkpt>
<trkpt lat="40.0713759" lon="-105.2297902">
  <ele>1583.0</ele>
  <time>2026-08-28T17:56:24Z</time>
  <course>275.48</course>
  <speed>0.07</speed>
  <fix>3d</fix>
</trkpt>
<trkpt lat="40.0713762" lon="-105.2297902">
  <ele>1583.17</ele>
  <time>2026-08-28T17:56:24Z</time>
  <course>254.82</course>
  <speed>0.08602325267042626</speed>
  <fix>3d</fix>
</trkpt>
<trkpt lat="40.071376" lon="-105.2297905">
  <ele>1583.0</ele>
  <time>2026-08-28T17:56:24Z</time>
  <course>271.29</course>
  <speed>0.09</speed>
  <fix>3d</fix>
</trkpt>
<trkpt lat="40.0713763" lon="-105.2297903">
  <ele>1583.17</ele>
  <time>2026-08-28T17:56:24Z</time>
  <course>254.76</course>
  <speed>0.08602325267042626</speed>
  <fix>3d</fix>
</trkpt>
<trkpt lat="40.071376" lon="-105.2297905">
  <ele>1583.0</ele>
  <time>2026-08-28T17:56:24Z</time>
  <course>271.29</course>
  <speed>0.09</speed>
  <fix>3d</fix>
</trkpt>
<trkpt lat="40.0713763" lon="-105.2297904">
  <ele>1583.16</ele>
  <time>2026-08-28T17:56:24Z</time>
  <course>254.73</course>
  <speed>0.08602325267042626</speed>
  <fix>3d</fix>
</trkpt>
<trkpt lat="40.071376" lon="-105.2297907">
  <ele>1583.0</ele>
  <time>2026-08-28T17:56:24Z</time>
  <course>269.69</course>
  <speed>0.09</speed>
  <fix>3d</fix>
</trkpt>
<trkpt lat="40.0713763" lon="-105.2297906">
  <ele>1583.17</ele>
  <time>2026-08-28T17:56:24Z</time>
  <course>254.73</course>
  <speed>0.08602325267042626</speed>
  <fix>3d</fix>
</trkpt>
<trkpt lat="40.071376" lon="-105.2297907">
  <ele>1583.0</ele>
  <time>2026-08-28T17:56:24Z</time>
  <course>269.69</course>
  <speed>0.09</speed>
  <fix>3d</fix>
</trkpt>
<trkpt lat="40.0713763" lon="-105.2297908">
  <ele>1583.17</ele>
  <time>2026-08-28T17:56:24Z</time>
  <course>254.73</course>
  <speed>0.09433981132056603</speed>
  <fix>3d</fix>
</trkpt>
<trkpt lat="40.071376" lon="-105.229791">
  <ele>1583.0</ele>
  <time>2026-08-28T17:56:24Z</time>
  <course>269.24</course>
  <speed>0.1</speed>
  <fix>3d</fix>
</trkpt>
<trkpt lat="40.0713763" lon="-105.2297909">
  <ele>1583.17</ele>
  <time>2026-08-28T17:56:24Z</time>
  <course>254.73</course>
  <speed>0.09433981132056603</speed>
  <fix>3d</fix>
</trkpt>
<trkpt lat="40.071376" lon="-105.229791">
  <ele>1583.0</ele>
  <time>2026-08-28T17:56:24Z</time>
  <course>269.24</course>
  <speed>0.1</speed>
  <fix>3d</fix>
</trkpt>
<trkpt lat="40.0713763" lon="-105.229791">
  <ele>1583.17</ele>
  <time>2026-08-28T17:56:24Z</time>
  <course>254.72</course>
  <speed>0.09433981132056603</speed>
  <fix>3d</fix>
</trkpt>
<trkpt lat="40.071376" lon="-105.2297911">
  <ele>1583.0</ele>
  <time>2026-08-28T17:56:24Z</time>
  <course>269.32</course>
  <speed>0.1</speed>
  <fix>3d</fix>
</trkpt>
<trkpt lat="40.0713763" lon="-105.2297912">
  <ele>1583.17</ele>
  <time>2026-08-28T17:56:24Z</time>
  <course>254.72</course>
  <speed>0.09433981132056603</speed>
  <fix>3d</fix>
</trkpt>
<trkpt lat="40.071376" lon="-105.2297911">
  <ele>1583.0</ele>
  <time>2026-08-28T17:56:24Z</time>
  <course>269.32</course>
  <speed>0.1</speed>
  <fix>3d</fix>
</trkpt>
<trkpt lat="40.0713763" lon="-105.2297913">
  <ele>1583.17</ele>
  <time>2026-08-28T17:56:24Z</time>
  <course>254.72</course>
  <speed>0.09433981132056603</speed>
  <fix>3d</fix>
</trkpt>
<trkpt lat="40.071376" lon="-105.2297914">
  <ele>1583.0</ele>
  <time>2026-08-28T17:56:24Z</time>
  <course>269.39</course>
  <speed>0.1</speed>
  <fix>3d</fix>
</trkpt>
<trkpt lat="40.0713763" lon="-105.2297914">
  <ele>1583.17</ele>
  <time>2026-08-28T17:56:24Z</time>
  <course>254.71</course>
  <speed>0.09433981132056603</speed>
  <fix>3d</fix>
</trkpt>
<trkpt lat="40.071376" lon="-105.2297914">
  <ele>1583.0</ele>
  <time>2026-08-28T17:56:24Z</time>
  <course>269.39</course>
  <speed>0.1</speed>
  <fix>3d</fix>
</trkpt>
<trkpt lat="40.0713763" lon="-105.2297916">
  <ele>1583.17</ele>
  <time>2026-08-28T17:56:24Z</time>
  <course>254.71</course>
  <speed>0.09433981132056603</speed>
  <fix>3d</fix>
</trkpt>
<trkpt lat="40.071376" lon="-105.2297916">
  <ele>1583.0</ele>
  <time>2026-08-28T17:56:24Z</time>
  <course>269.46</course>
  <speed>0.1</speed>
  <fix>3d</fix>
</trkpt>
<trkpt lat="40.0713763" lon="-105.2297917">
  <ele>1583.17</ele>
  <time>2026-08-28T17:56:24Z</time>
  <course>254.71</course>
  <speed>0.09433981132056603</speed>
  <fix>3d</fix>
</trkpt>
<trkpt lat="40.071376" lon="-105.2297916">
  <ele>1583.0</ele>
  <time>2026-08-28T17:56:24Z</time>
  <course>269.46</course>
  <speed>0.1</speed>
  <fix>3d</fix>
</trkpt>
<trkpt lat="40.0713763" lon="-105.2297918">
  <ele>1583.17</ele>
  <time>2026-08-28T17:56:24Z</time>
  <course>254.7</course>
  <speed>0.10295630140987001</speed>
  <fix>3d</fix>
</trkpt>
<trkpt lat="40.071376" lon="-105.2297919">
  <ele>1583.0</ele>
  <time>2026-08-28T17:56:24Z</time>
  <course>269.53</course>
  <speed>0.09</speed>
  <fix>3d</fix>
</trkpt>
<trkpt lat="40.0713763" lon="-105.229792">
  <ele>1583.17</ele>
  <time>2026-08-28T17:56:24Z</time>
  <course>254.7</course>
  <speed>0.10295630140987001</speed>
  <fix>3d</fix>
</trkpt>
<trkpt lat="40.071376" lon="-105.2297919">
  <ele>1583.0</ele>
  <time>2026-08-28T17:56:24Z</time>
  <course>269.53</course>
  <speed>0.09</speed>
  <fix>3d</fix>
</trkpt>
<trkpt lat="40.0713763" lon="-105.2297921">
  <ele>1583.17</ele>
  <time>2026-08-28T17:56:24Z</time>
  <course>254.7</course>
  <speed>0.10295630140987001</speed>
  <fix>3d</fix>
</trkpt>
<trkpt lat="40.071376" lon="-105.2297921">
  <ele>1583.0</ele>
  <time>2026-08-28T17:56:24Z</time>
  <course>269.61</course>
  <speed>0.09</speed>
  <fix>3d</fix>
</trkpt>
<trkpt lat="40.0713763" lon="-105.2297922">
  <ele>1583.17</ele>
  <time>2026-08-28T17:56:24Z</time>
  <course>254.69</course>
  <speed>0.10295630140987001</speed>
  <fix>3d</fix>
</trkpt>
<trkpt lat="40.071376" lon="-105.2297921">
  <ele>1583.0</ele>
  <time>2026-08-28T17:56:24Z</time>
  <course>269.61</course>
  <speed>0.09</speed>
  <fix>3d</fix>
</trkpt>
<trkpt lat="40.0713763" lon="-105.2297924">
  <ele>1583.17</ele>
  <time>2026-08-28T17:56:24Z</time>
  <course>254.69</course>
  <speed>0.09848857801796104</speed>
  <fix>3d</fix>
</trkpt>
<trkpt lat="40.071376" lon="-105.2297924">
  <ele>1583.0</ele>
  <time>2026-08-28T17:56:24Z</time>
  <course>269.68</course>
  <speed>0.09</speed>
  <fix>3d</fix>
</trkpt>
<trkpt lat="40.0713763" lon="-105.2297925">
  <ele>1583.17</ele>
  <time>2026-08-28T17:56:24Z</time>
  <course>254.68</course>
  <speed>0.09848857801796104</speed>
  <fix>3d</fix>
</trkpt>
<trkpt lat="40.071376" lon="-105.2297924">
  <ele>1583.0</ele>
  <time>2026-08-28T17:56:24Z</time>
  <course>269.68</course>
  <speed>0.09</speed>
  <fix>3d</fix>
</trkpt>
<trkpt lat="40.0713763" lon="-105.2297926">
  <ele>1583.17</ele>
  <time>2026-08-28T17:56:24Z</time>
  <course>254.68</course>
  <speed>0.09848857801796104</speed>
  <fix>3d</fix>
</trkpt>
<trkpt lat="40.071376" lon="-105.2297926">
  <ele>1583.0</ele>
  <time>2026-08-28T17:56:24Z</time>
  <course>269.75</course>
  <speed>0.09</speed>
  <fix>3d</fix>
</trkpt>
<trkpt lat="40.0713763" lon="-105.2297927">
  <ele>1583.16</ele>
  <time>2026-08-28T17:56:24Z</time>
  <course>254.67</course>
  <speed>0.09848857801796104</speed>
  <fix>3d</fix>
</trkpt>
<trkpt lat="40.071376" lon="-105.2297926">
  <ele>1583.0</ele>
  <time>2026-08-28T17:56:24Z</time>
  <course>269.75</course>
  <speed>0.09</speed>
  <fix>3d</fix>
</trkpt>
<trkpt lat="40.0713763" lon="-105.2297929">
  <ele>1583.16</ele>
  <time>2026-08-28T17:56:24Z</time>
  <course>254.67</course>
  <speed>0.09848857801796104</speed>
  <fix>3d</fix>
</trkpt>
<trkpt lat="40.071376" lon="-105.2297928">
  <ele>1583.0</ele>
  <time>2026-08-28T17:56:24Z</time>
  <course>269.82</course>
  <speed>0.09</speed>
  <fix>3d</fix>
</trkpt>
<trkpt lat="40.0713763" lon="-105.229793">
  <ele>1583.15</ele>
  <time>2026-08-28T17:56:24Z</time>
  <course>254.66</course>
  <speed>0.09848857801796104</speed>
  <fix>3d</fix>
</trkpt>
<trkpt lat="40.071376" lon="-105.2297928">
  <ele>1583.0</ele>
  <time>2026-08-28T17:56:24Z</time>
  <course>269.82</course>
  <speed>0.09</speed>
  <fix>3d</fix>
</trkpt>
<trkpt lat="40.0713763" lon="-105.2297931">
  <ele>1583.14</ele>
  <time>2026-08-28T17:56:24Z</time>
  <course>254.66</course>
  <speed>0.09848857801796104</speed>
  <fix>3d</fix>
</trkpt>
<trkpt lat="40.071376" lon="-105.2297931">
  <ele>1583.0</ele>
  <time>2026-08-28T17:56:24Z</time>
  <course>269.89</course>
  <speed>0.09</speed>
  <fix>3d</fix>
</trkpt>
<trkpt lat="40.0713763" lon="-105.2297933">
  <ele>1583.13</ele>
  <time>2026-08-28T17:56:24Z</time>
  <course>254.65</course>
  <speed>0.09848857801796104</speed>
  <fix>3d</fix>
</trkpt>
<trkpt lat="39.6561709" lon="-104.1394387">
  <ele>1566.59</ele>
  <time>2026-08-28T17:56:24Z</time>
  <course>0.0</course>
  <speed>0.0</speed>
  <fix>3d</fix>
</trkpt>
<trkpt lat="40.0713749" lon="-105.229789">
  <ele>1583.0</ele>
  <time>2026-08-28T17:56:24Z</time>
  <course>0.0</course>
  <speed>0.0</speed>
  <fix>3d</fix>
</trkpt>
<trkpt lat="40.0713749" lon="-105.229789">
  <ele>1583.0</ele>
  <time>2026-08-28T17:56:24Z</time>
  <course>238.36</course>
  <speed>0.0</speed>
  <fix>3d</fix>
</trkpt>
<trkpt lat="40.0713749" lon="-105.229789">
  <ele>1583.0</ele>
  <time>2026-08-28T17:56:24Z</time>
  <course>0.0</course>
  <speed>0.0</speed>
  <fix>3d</fix>
</trkpt>
<trkpt lat="40.0713749" lon="-105.229789">
  <ele>1583.0</ele>
  <time>2026-08-28T17:56:24Z</time>
  <course>238.45</course>
  <speed>0.0</speed>
  <fix>3d</fix>
</trkpt>
<trkpt lat="40.0713749" lon="-105.229789">
  <ele>1583.0</ele>
  <time>2026-08-28T17:56:24Z</time>
  <course>0.0</course>
  <speed>0.0</speed>
  <fix>3d</fix>
</trkpt>
<trkpt lat="40.0713749" lon="-105.229789">
  <ele>1583.0</ele>
  <time>2026-08-28T17:56:24Z</time>
  <course>238.64</course>
  <speed>0.0</speed>
  <fix>3d</fix>
</trkpt>
<trkpt lat="40.0713749" lon="-105.229789">
  <ele>1583.0</ele>
  <time>2026-08-28T17:56:24Z</time>
  <course>0.0</course>
  <speed>0.0</speed>
  <fix>3d</fix>
</trkpt>
<trkpt lat="40.0713749" lon="-105.229789">
  <ele>1583.0</ele>
  <time>2026-08-28T17:56:24Z</time>
  <course>238.93</course>
  <speed>0.0</speed>
  <fix>3d</fix>
</trkpt>
<trkpt lat="40.0713749" lon="-105.229789">
  <ele>1583.0</ele>
  <time>2026-08-28T17:56:24Z</time>
  <course>0.0</course>
  <speed>0.0</speed>
  <fix>3d</fix>
</trkpt>
<trkpt lat="40.0713749" lon="-105.229789">
  <ele>1583.0</ele>
  <time>2026-08-28T17:56:24Z</time>
  <course>239.26</course>
  <speed>0.0</speed>
  <fix>3d</fix>
</trkpt>
<trkpt lat="40.0713749" lon="-105.229789">
  <ele>1583.0</ele>
  <time>2026-08-28T17:56:24Z</time>
  <course>0.0</course>
  <speed>0.0</speed>
  <fix>3d</fix>
</trkpt>
<trkpt lat="40.0713749" lon="-105.229789">
  <ele>1583.0</ele>
  <time>2026-08-28T17:56:24Z</time>
  <course>239.61</course>
  <speed>0.0</speed>
  <fix>3d</fix>
</trkpt>
<trkpt lat="40.0713749" lon="-105.229789">
  <ele>1583.0</ele>
  <time>2026-08-28T17:56:24Z</time>
  <course>0.0</course>
  <speed>0.0</speed>
  <fix>3d</fix>
</trkpt>
<trkpt lat="40.0713749" lon="-105.229789">
  <ele>1583.0</ele>
  <time>2026-08-28T17:56:24Z</time>
  <course>239.96</course>
  <speed>0.0</speed>
  <fix>3d</fix>
</trkpt>
<trkpt lat="40.0713749" lon="-105.229789">
  <ele>1583.0</ele>
  <time>2026-08-28T17:56:24Z</time>
  <course>0.0</course>
  <speed>0.0</speed>
  <fix>3d</fix>
</trkpt>
<trkpt lat="40.0713749" lon="-105.229789">
  <ele>1583.0</ele>
  <time>2026-08-28T17:56:24Z</time>
  <course>240.29</course>
  <speed>0.0</speed>
  <fix>3d</fix>
</trkpt>
<trkpt lat="40.0713749" lon="-105.229789">
  <ele>1583.0</ele>
  <time>2026-08-28T17:56:24Z</time>
  <course>0.0</course>
  <speed>0.0</speed>
  <fix>3d</fix>
</trkpt>
<trkpt lat="40.0713749" lon="-105.229789">
  <ele>1583.0</ele>
  <time>2026-08-28T17:56:24Z</time>
  <course>240.61</course>
  <speed>0.0</speed>
  <fix>3d</fix>
</trkpt>
<trkpt lat="40.0713749" lon="-105.229789">
  <ele>1583.0</ele>
  <time>2026-08-28T17:56:24Z</time>
  <course>0.0</course>
  <speed>0.0</speed>
  <fix>3d</fix>
</trkpt>
<trkpt lat="40.0713749" lon="-105.229789">
  <ele>1583.0</ele>
  <time>2026-08-28T17:56:24Z</time>
  <course>240.92</course>
  <speed>0.0</speed>
  <fix>3d</fix>
</trkpt>
<trkpt lat="40.0713749" lon="-105.229789">
  <ele>1583.0</ele>
  <time>2026-08-28T17:56:24Z</time>
  <course>0.0</course>
  <speed>0.0</speed>
  <fix>3d</fix>
</trkpt>
<trkpt lat="40.0713749" lon="-105.229789">
  <ele>1583.0</ele>
  <time>2026-08-28T17:56:24Z</time>
  <course>241.21</course>
  <speed>0.0</speed>
  <fix>3d</fix>
</trkpt>
<trkpt lat="40.0713749" lon="-105.229789">
  <ele>1583.0</ele>
  <time>2026-08-28T17:56:24Z</time>
  <course>0.0</course>
  <speed>0.0</speed>
  <fix>3d</fix>
</trkpt>
<trkpt lat="40.0713749" lon="-105.229789">
  <ele>1583.0</ele>
  <time>2026-08-28T17:56:24Z</time>
  <course>241.49</course>
  <speed>0.0</speed>
  <fix>3d</fix>
</trkpt>
<trkpt lat="40.0713749" lon="-105.229789">
  <ele>1583.0</ele>
  <time>2026-08-28T17:56:24Z</time>
  <course>0.0</course>
  <speed>0.0</speed>
  <fix>3d</fix>
</trkpt>
<trkpt lat="40.0713749" lon="-105.229789">
  <ele>1583.0</ele>
  <time>2026-08-28T17:56:24Z</time>
  <course>241.77</course>
  <speed>0.0</speed>
  <fix>3d</fix>
</trkpt>
<trkpt lat="40.0713749" lon="-105.229789">
  <ele>1583.0</ele>
  <time>2026-08-28T17:56:24Z</time>
  <course>0.0</course>
  <speed>0.0</speed>
  <fix>3d</fix>
</trkpt>
<trkpt lat="40.0713749" lon="-105.229789">
  <ele>1583.0</ele>
  <time>2026-08-28T17:56:24Z</time>
  <course>242.03</course>
  <speed>0.0</speed>
  <fix>3d</fix>
</trkpt>
<trkpt lat="40.0713749" lon="-105.229789">
  <ele>1583.0</ele>
  <time>2026-08-28T17:56:24Z</time>
  <course>0.0</course>
  <speed>0.0</speed>
  <fix>3d</fix>
</trkpt>
<trkpt lat="40.0713749" lon="-105.229789">
  <ele>1583.0</ele>
  <time>2026-08-28T17:56:24Z</time>
  <course>242.29</course>
  <speed>0.0</speed>
  <fix>3d</fix>
</trkpt>
<trkpt lat="40.0713749" lon="-105.229789">
  <ele>1583.0</ele>
  <time>2026-08-28T17:56:24Z</time>
  <course>0.0</course>
  <speed>0.0</speed>
  <fix>3d</fix>
</trkpt>
<trkpt lat="40.0713749" lon="-105.229789">
  <ele>1583.0</ele>
  <time>2026-08-28T17:56:24Z</time>
  <course>242.54</course>
  <speed>0.0</speed>
  <fix>3d</fix>
</trkpt>
<trkpt lat="40.0713749" lon="-105.229789">
  <ele>1583.0</ele>
  <time>2026-08-28T17:56:24Z</time>
  <course>0.0</course>
  <speed>0.0</speed>
  <fix>3d</fix>
</trkpt>
<trkpt lat="40.0713749" lon="-105.229789">
  <ele>1583.0</ele>
  <time>2026-08-28T17:56:24Z</time>
  <course>242.78</course>
  <speed>0.0</speed>
  <fix>3d</fix>
</trkpt>
<trkpt lat="40.0713749" lon="-105.229789">
  <ele>1583.0</ele>
  <time>2026-08-28T17:56:24Z</time>
  <course>0.0</course>
  <speed>0.0</speed>
  <fix>3d</fix>
</trkpt>
<trkpt lat="40.0713749" lon="-105.229789">
  <ele>1583.0</ele>
  <time>2026-08-28T17:56:24Z</time>
  <course>243.02</course>
  <speed>0.0</speed>
  <fix>3d</fix>
</trkpt>
<trkpt lat="40.0713749" lon="-105.229789">
  <ele>1583.0</ele>
  <time>2026-08-28T17:56:24Z</time>
  <course>0.0</course>
  <speed>0.0</speed>
  <fix>3d</fix>
</trkpt>
<trkpt lat="40.0713749" lon="-105.229789">
  <ele>1583.0</ele>
  <time>2026-08-28T17:56:24Z</time>
  <course>243.25</course>
  <speed>0.0</speed>
  <fix>3d</fix>
</trkpt>
<trkpt lat="40.0713749" lon="-105.229789">
  <ele>1583.0</ele>
  <time>2026-08-28T17:56:24Z</time>
  <course>0.0</course>
  <speed>0.0</speed>
  <fix>3d</fix>
</trkpt>
<trkpt lat="40.0713749" lon="-105.229789">
  <ele>1583.0</ele>
  <time>2026-08-28T17:56:24Z</time>
  <course>243.47</course>
  <speed>0.0</speed>
  <fix>3d</fix>
</trkpt>
<trkpt lat="40.0713749" lon="-105.229789">
  <ele>1583.0</ele>
  <time>2026-08-28T17:56:24Z</time>
  <course>0.0</course>
  <speed>0.0</speed>
  <fix>3d</fix>
</trkpt>
<trkpt lat="40.0713749" lon="-105.229789">
  <ele>1583.0</ele>
  <time>2026-08-28T17:56:24Z</time>
  <course>243.68</course>
  <speed>0.0</speed>
  <fix>3d</fix>
</trkpt>
<trkpt lat="40.0713749" lon="-105.229789">
  <ele>1583.0</ele>
  <time>2026-08-28T17:56:24Z</time>
  <course>0.0</course>
  <speed>0.0</speed>
  <fix>3d</fix>
</trkpt>
<trkpt lat="40.0713749" lon="-105.229789">
  <ele>1583.0</ele>
  <time>2026-08-28T17:56:24Z</time>
  <course>243.89</course>
  <speed>0.0</speed>
  <fix>3d</fix>
</trkpt>
<trkpt lat="40.0713749" lon="-105.229789">
  <ele>1583.0</ele>
  <time>2026-08-28T17:56:24Z</time>
  <course>0.0</course>
  <speed>0.0</speed>
  <fix>3d</fix>
</trkpt>
<trkpt lat="40.0713749" lon="-105.229789">
  <ele>1583.0</ele>
  <time>2026-08-28T17:56:24Z</time>
  <course>244.08</course>
  <speed>0.0</speed>
  <fix>3d</fix>
</trkpt>
<trkpt lat="40.0713749" lon="-105.229789">
  <ele>1583.0</ele>
  <time>2026-08-28T17:56:24Z</time>
  <course>0.0</course>
  <speed>0.0</speed>
  <fix>3d</fix>
</trkpt>
<trkpt lat="40.0713749" lon="-105.229789">
  <ele>1583.0</ele>
  <time>2026-08-28T17:56:24Z</time>
  <course>244.27</course>
  <speed>0.0</speed>
  <fix>3d</fix>
</trkpt>
<trkpt lat="40.0713749" lon="-105.229789">
  <ele>1583.0</ele>
  <time>2026-08-28T17:56:24Z</time>
  <course>0.0</course>
  <speed>0.0</speed>
  <fix>3d</fix>
</trkpt>
<trkpt lat="40.0713749" lon="-105.229789">
  <ele>1583.0</ele>
  <time>2026-08-28T17:56:24Z</time>
  <course>244.46</course>
  <speed>0.0</speed>
  <fix>3d</fix>
</trkpt>
<trkpt lat="40.0713749" lon="-105.229789">
  <ele>1583.0</ele>
  <time>2026-08-28T17:56:24Z</time>
  <course>0.0</course>
  <speed>0.0</speed>
  <fix>3d</fix>
</trkpt>
<trkpt lat="40.0713749" lon="-105.229789">
  <ele>1583.0</ele>
  <time>2026-08-28T17:56:24Z</time>
  <course>244.64</course>
  <speed>0.0</speed>
  <fix>3d</fix>
</trkpt>
<trkpt lat="40.0713749" lon="-105.229789">
  <ele>1583.0</ele>
  <time>2026-08-28T17:56:24Z</time>
  <course>0.0</course>
  <speed>0.0</speed>
  <fix>3d</fix>
</trkpt>
<trkpt lat="40.0713749" lon="-105.229789">
  <ele>1583.0</ele>
  <time>2026-08-28T17:56:24Z</time>
  <course>244.81</course>
  <speed>0.0</speed>
  <fix>3d</fix>
</trkpt>
<trkpt lat="40.0713749" lon="-105.229789">
  <ele>1583.0</ele>
  <time>2026-08-28T17:56:24Z</time>
  <course>0.0</course>
  <speed>0.0</speed>
  <fix>3d</fix>
</trkpt>
<trkpt lat="40.0713749" lon="-105.229789">
  <ele>1583.0</ele>
  <time>2026-08-28T17:56:24Z</time>
  <course>244.97</course>
  <speed>0.0</speed>
  <fix>3d</fix>
</trkpt>
<trkpt lat="40.0713749" lon="-105.229789">
  <ele>1583.0</ele>
  <time>2026-08-28T17:56:24Z</time>
  <course>0.0</course>
  <speed>0.0</speed>
  <fix>3d</fix>
</trkpt>
<trkpt lat="40.0713749" lon="-105.229789">
  <ele>1583.0</ele>
  <time>2026-08-28T17:56:24Z</time>
  <course>245.13</course>
  <speed>0.0</speed>
  <fix>3d</fix>
</trkpt>
<trkpt lat="40.0713749" lon="-105.229789">
  <ele>1583.0</ele>
  <time>2026-08-28T17:56:24Z</time>
  <course>0.0</course>
  <speed>0.0</speed>
  <fix>3d</fix>
</trkpt>
<trkpt lat="40.0713749" lon="-105.229789">
  <ele>1583.0</ele>
  <time>2026-08-28T17:56:24Z</time>
  <course>245.28</course>
  <speed>0.0</speed>
  <fix>3d</fix>
</trkpt>
<trkpt lat="40.0713749" lon="-105.229789">
  <ele>1583.0</ele>
  <time>2026-08-28T17:56:24Z</time>
  <course>0.0</course>
  <speed>0.0</speed>
  <fix>3d</fix>
</trkpt>
<trkpt lat="40.0713749" lon="-105.229789">
  <ele>1583.0</ele>
  <time>2026-08-28T17:56:24Z</time>
  <course>245.43</course>
  <speed>0.0</speed>
  <fix>3d</fix>
</trkpt>
<trkpt lat="40.0713749" lon="-105.229789">
  <ele>1583.0</ele>
  <time>2026-08-28T17:56:24Z</time>
  <course>0.0</course>
  <speed>0.0</speed>
  <fix>3d</fix>
</trkpt>
<trkpt lat="40.0713749" lon="-105.229789">
  <ele>1583.0</ele>
  <time>2026-08-28T17:56:24Z</time>
  <course>245.57</course>
  <speed>0.0</speed>
  <fix>3d</fix>
</trkpt>
<trkpt lat="40.0713749" lon="-105.229789">
  <ele>1583.0</ele>
  <time>2026-08-28T17:56:24Z</time>
  <course>0.0</course>
  <speed>0.0</speed>
  <fix>3d</fix>
</trkpt>
<trkpt lat="40.0713749" lon="-105.229789">
  <ele>1583.0</ele>
  <time>2026-08-28T17:56:24Z</time>
  <course>245.7</course>
  <speed>0.0</speed>
  <fix>3d</fix>
</trkpt>
<trkpt lat="40.0713749" lon="-105.229789">
  <ele>1583.0</ele>
  <time>2026-08-28T17:56:24Z</time>
  <course>0.0</course>
  <speed>0.0</speed>
  <fix>3d</fix>
</trkpt>
<trkpt lat="40.0713749" lon="-105.229789">
  <ele>1583.0</ele>
  <time>2026-08-28T17:56:24Z</time>
  <course>245.83</course>
  <speed>0.0</speed>
  <fix>3d</fix>
</trkpt>
<trkpt lat="40.0713749" lon="-105.229789">
  <ele>1583.0</ele>
  <time>2026-08-28T17:56:24Z</time>
  <course>0.0</course>
  <speed>0.0</speed>
  <fix>3d</fix>
</trkpt>
<trkpt lat="40.0713749" lon="-105.229789">
  <ele>1583.0</ele>
  <time>2026-08-28T17:56:24Z</time>
  <course>245.96</course>
  <speed>0.0</speed>
  <fix>3d</fix>
</trkpt>
<trkpt lat="40.0713749" lon="-105.229789">
  <ele>1583.0</ele>
  <time>2026-08-28T17:56:24Z</time>
  <course>0.0</course>
  <speed>0.0</speed>
  <fix>3d</fix>
</trkpt>
<trkpt lat="40.0713749" lon="-105.229789">
  <ele>1583.0</ele>
  <time>2026-08-28T17:56:24Z</time>
  <course>246.07</course>
  <speed>0.0</speed>
  <fix>3d</fix>
</trkpt>
<trkpt lat="40.0713749" lon="-105.229789">
  <ele>1583.0</ele>
  <time>2026-08-28T17:56:24Z</time>
  <course>0.0</course>
  <speed>0.0</speed>
  <fix>3d</fix>
</trkpt>
<trkpt lat="40.0713749" lon="-105.229789">
  <ele>1583.0</ele>
  <time>2026-08-28T17:56:24Z</time>
  <course>246.19</course>
  <speed>0.0</speed>
  <fix>3d</fix>
</trkpt>
<trkpt lat="40.0713749" lon="-105.229789">
  <ele>1583.0</ele>
  <time>2026-08-28T17:56:24Z</time>
  <course>0.0</course>
  <speed>0.0</speed>
  <fix>3d</fix>
</trkpt>
<trkpt lat="40.0713749" lon="-105.229789">
  <ele>1583.0</ele>
  <time>2026-08-28T17:56:24Z</time>
  <course>246.3</course>
  <speed>0.0</speed>
  <fix>3d</fix>
</trkpt>
<trkpt lat="40.0713749" lon="-105.229789">
  <ele>1583.0</ele>
  <time>2026-08-28T17:56:24Z</time>
  <course>0.0</course>
  <speed>0.0</speed>
  <fix>3d</fix>
</trkpt>
<trkpt lat="40.0713749" lon="-105.229789">
  <ele>1583.0</ele>
  <time>2026-08-28T17:56:24Z</time>
  <course>246.4</course>
  <speed>0.0</speed>
  <fix>3d</fix>
</trkpt>
<trkpt lat="40.0713749" lon="-105.229789">
  <ele>1583.0</ele>
  <time>2026-08-28T17:56:24Z</time>
  <course>0.0</course>
  <speed>0.0</speed>
  <fix>3d</fix>
</trkpt>
<trkpt lat="40.0713749" lon="-105.229789">
  <ele>1583.0</ele>
  <time>2026-08-28T17:56:24Z</time>
  <course>246.5</course>
  <speed>0.0</speed>
  <fix>3d</fix>
</trkpt>
<trkpt lat="40.0713749" lon="-105.229789">
  <ele>1583.0</ele>
  <time>2026-08-28T17:56:24Z</time>
  <course>0.0</course>
  <speed>0.0</speed>
  <fix>3d</fix>
</trkpt>
<trkpt lat="40.0713749" lon="-105.229789">
  <ele>1583.0</ele>
  <time>2026-08-28T17:56:24Z</time>
  <course>246.6</course>
  <speed>0.0</speed>
  <fix>3d</fix>
</trkpt>
<trkpt lat="40.0713749" lon="-105.229789">
  <ele>1583.0</ele>
  <time>2026-08-28T17:56:24Z</time>
  <course>0.0</course>
  <speed>0.0</speed>
  <fix>3d</fix>
</trkpt>
<trkpt lat="40.0713749" lon="-105.229789">
  <ele>1583.0</ele>
  <time>2026-08-28T17:56:24Z</time>
  <course>246.69</course>
  <speed>0.0</speed>
  <fix>3d</fix>
</trkpt>
<trkpt lat="40.0713749" lon="-105.229789">
  <ele>1583.0</ele>
  <time>2026-08-28T17:56:24Z</time>
  <course>0.0</course>
  <speed>0.0</speed>
  <fix>3d</fix>
</trkpt>
<trkpt lat="40.0713749" lon="-105.229789">
  <ele>1583.0</ele>
  <time>2026-08-28T17:56:24Z</time>
  <course>246.78</course>
  <speed>0.0</speed>
  <fix>3d</fix>
</trkpt>
<trkpt lat="40.0713749" lon="-105.229789">
  <ele>1583.0</ele>
  <time>2026-08-28T17:56:24Z</time>
  <course>0.0</course>
  <speed>0.0</speed>
  <fix>3d</fix>
</trkpt>
<trkpt lat="40.0713749" lon="-105.229789">
  <ele>1583.0</ele>
  <time>2026-08-28T17:56:24Z</time>
  <course>246.86</course>
  <speed>0.0</speed>
  <fix>3d</fix>
</trkpt>
<trkpt lat="40.0713749" lon="-105.229789">
  <ele>1583.0</ele>
  <time>2026-08-28T17:56:24Z</time>
  <course>0.0</course>
  <speed>0.0</speed>
  <fix>3d</fix>
</trkpt>
<trkpt lat="40.0713749" lon="-105.229789">
  <ele>1583.0</ele>
  <time>2026-08-28T17:56:24Z</time>
  <course>246.94</course>
  <speed>0.0</speed>
  <fix>3d</fix>
</trkpt>
<trkpt lat="40.0713749" lon="-105.229789">
  <ele>1583.0</ele>
  <time>2026-08-28T17:56:24Z</time>
  <course>0.0</course>
  <speed>0.0</speed>
  <fix>3d</fix>
</trkpt>
<trkpt lat="40.0713749" lon="-105.229789">
  <ele>1583.0</ele>
  <time>2026-08-28T17:56:24Z</time>
  <course>247.02</course>
  <speed>0.0</speed>
  <fix>3d</fix>
</trkpt>
<trkpt lat="40.0713749" lon="-105.229789">
  <ele>1583.0</ele>
  <time>2026-08-28T17:56:24Z</time>
  <course>0.0</course>
  <speed>0.0</speed>
  <fix>3d</fix>
</trkpt>
<trkpt lat="40.0713749" lon="-105.229789">
  <ele>1583.0</ele>
  <time>2026-08-28T17:56:24Z</time>
  <course>247.09</course>
  <speed>0.0</speed>
  <fix>3d</fix>
</trkpt>
<trkpt lat="40.0713749" lon="-105.229789">
  <ele>1583.0</ele>
  <time>2026-08-28T17:56:24Z</time>
  <course>0.0</course>
  <speed>0.0</speed>
  <fix>3d</fix>
</trkpt>
<trkpt lat="40.0713749" lon="-105.229789">
  <ele>1583.0</ele>
  <time>2026-08-28T17:56:24Z</time>
  <course>247.16</course>
  <speed>0.0</speed>
  <fix>3d</fix>
</trkpt>
<trkpt lat="40.0713749" lon="-105.229789">
  <ele>1583.0</ele>
  <time>2026-08-28T17:56:24Z</time>
  <course>0.0</course>
  <speed>0.0</speed>
  <fix>3d</fix>
</trkpt>
<trkpt lat="40.0713749" lon="-105.229789">
  <ele>1583.0</ele>
  <time>2026-08-28T17:56:24Z</time>
  <course>247.23</course>
  <speed>0.0</speed>
  <fix>3d</fix>
</trkpt>
<trkpt lat="40.0713749" lon="-105.229789">
  <ele>1583.0</ele>
  <time>2026-08-28T17:56:24Z</time>
  <course>0.0</course>
  <speed>0.0</speed>
  <fix>3d</fix>
</trkpt>
<trkpt lat="40.0713749" lon="-105.229789">
  <ele>1583.0</ele>
  <time>2026-08-28T17:56:24Z</time>
  <course>247.29</course>
  <speed>0.0</speed>
  <fix>3d</fix>
</trkpt>
<trkpt lat="40.0713749" lon="-105.229789">
  <ele>1583.0</ele>
  <time>2026-08-28T17:56:24Z</time>
  <course>0.0</course>
  <speed>0.0</speed>
  <fix>3d</fix>
</trkpt>
<trkpt lat="40.0713749" lon="-105.229789">
  <ele>1583.0</ele>
  <time>2026-08-28T17:56:24Z</time>
  <course>247.35</course>
  <speed>0.0</speed>
  <fix>3d</fix>
</trkpt>
<trkpt lat="40.0713749" lon="-105.229789">
  <ele>1583.0</ele>
  <time>2026-08-28T17:56:24Z</time>
  <course>0.0</course>
  <speed>0.0</speed>
  <fix>3d</fix>
</trkpt>
<trkpt lat="40.0713749" lon="-105.229789">
  <ele>1583.0</ele>
  <time>2026-08-28T17:56:25Z</time>
  <course>247.41</course>
  <speed>0.0</speed>
  <fix>3d</fix>
</trkpt>
<trkpt lat="40.0713749" lon="-105.229789">
  <ele>1583.0</ele>
  <time>2026-08-28T17:56:25Z</time>
  <course>0.0</course>
  <speed>0.0</speed>
  <fix>3d</fix>
</trkpt>
<trkpt lat="40.0713749" lon="-105.229789">
  <ele>1583.0</ele>
  <time>2026-08-28T17:56:25Z</time>
  <course>247.47</course>
  <speed>0.0</speed>
  <fix>3d</fix>
</trkpt>
<trkpt lat="40.0713749" lon="-105.229789">
  <ele>1583.0</ele>
  <time>2026-08-28T17:56:25Z</time>
  <course>0.0</course>
  <speed>0.0</speed>
  <fix>3d</fix>
</trkpt>
<trkpt lat="40.0713749" lon="-105.229789">
  <ele>1583.0</ele>
  <time>2026-08-28T17:56:25Z</time>
  <course>247.52</course>
  <speed>0.0</speed>
  <fix>3d</fix>
</trkpt>
<trkpt lat="40.0713749" lon="-105.229789">
  <ele>1583.0</ele>
  <time>2026-08-28T17:56:25Z</time>
  <course>0.0</course>
  <speed>0.0</speed>
  <fix>3d</fix>
</trkpt>
<trkpt lat="40.0713749" lon="-105.229789">
  <ele>1583.0</ele>
  <time>2026-08-28T17:56:25Z</time>
  <course>247.57</course>
  <speed>0.0</speed>
  <fix>3d</fix>
</trkpt>
<trkpt lat="40.0713749" lon="-105.229789">
  <ele>1583.0</ele>
  <time>2026-08-28T17:56:25Z</time>
  <course>0.0</course>
  <speed>0.0</speed>
  <fix>3d</fix>
</trkpt>
<trkpt lat="40.0713749" lon="-105.229789">
  <ele>1583.0</ele>
  <time>2026-08-28T17:56:25Z</time>
  <course>247.62</course>
  <speed>0.0</speed>
  <fix>3d</fix>
</trkpt>
<trkpt lat="40.0713749" lon="-105.229789">
  <ele>1583.0</ele>
  <time>2026-08-28T17:56:25Z</time>
  <course>0.0</course>
  <speed>0.0</speed>
  <fix>3d</fix>
</trkpt>
<trkpt lat="40.0713749" lon="-105.229789">
  <ele>1583.0</ele>
  <time>2026-08-28T17:56:25Z</time>
  <course>247.66</course>
  <speed>0.0</speed>
  <fix>3d</fix>
</trkpt>
<trkpt lat="40.0713749" lon="-105.229789">
  <ele>1583.0</ele>
  <time>2026-08-28T17:56:25Z</time>
  <course>0.0</course>
  <speed>0.0</speed>
  <fix>3d</fix>
</trkpt>
<trkpt lat="40.0713749" lon="-105.229789">
  <ele>1583.0</ele>
  <time>2026-08-28T17:56:25Z</time>
  <course>247.71</course>
  <speed>0.0</speed>
  <fix>3d</fix>
</trkpt>
<trkpt lat="40.0713749" lon="-105.229789">
  <ele>1583.0</ele>
  <time>2026-08-28T17:56:25Z</time>
  <course>0.0</course>
  <speed>0.0</speed>
  <fix>3d</fix>
</trkpt>
<trkpt lat="40.0713749" lon="-105.229789">
  <ele>1583.0</ele>
  <time>2026-08-28T17:56:25Z</time>
  <course>247.75</course>
  <speed>0.0</speed>
  <fix>3d</fix>
</trkpt>
<trkpt lat="40.0713749" lon="-105.229789">
  <ele>1583.0</ele>
  <time>2026-08-28T17:56:25Z</time>
  <course>0.0</course>
  <speed>0.0</speed>
  <fix>3d</fix>
</trkpt>
<trkpt lat="40.0713749" lon="-105.229789">
  <ele>1583.0</ele>
  <time>2026-08-28T17:56:25Z</time>
  <course>247.79</course>
  <speed>0.0</speed>
  <fix>3d</fix>
</trkpt>
<trkpt lat="40.0713749" lon="-105.229789">
  <ele>1583.0</ele>
  <time>2026-08-28T17:56:25Z</time>
  <course>0.0</course>
  <speed>0.0</speed>
  <fix>3d</fix>
</trkpt>
<trkpt lat="40.0713749" lon="-105.229789">
  <ele>1583.0</ele>
  <time>2026-08-28T17:56:25Z</time>
  <course>247.83</course>
  <speed>0.0</speed>
  <fix>3d</fix>
</trkpt>
<trkpt lat="40.0713749" lon="-105.229789">
  <ele>1583.0</ele>
  <time>2026-08-28T17:56:25Z</time>
  <course>0.0</course>
  <speed>0.0</speed>
  <fix>3d</fix>
</trkpt>
<trkpt lat="40.0713749" lon="-105.229789">
  <ele>1583.0</ele>
  <time>2026-08-28T17:56:25Z</time>
  <course>247.86</course>
  <speed>0.0</speed>
  <fix>3d</fix>
</trkpt>
<trkpt lat="40.0713749" lon="-105.229789">
  <ele>1583.0</ele>
  <time>2026-08-28T17:56:25Z</time>
  <course>0.0</course>
  <speed>0.0</speed>
  <fix>3d</fix>
</trkpt>
<trkpt lat="40.0713749" lon="-105.229789">
  <ele>1583.0</ele>
  <time>2026-08-28T17:56:25Z</time>
  <course>247.89</course>
  <speed>0.0</speed>
  <fix>3d</fix>
</trkpt>
<trkpt lat="40.0713749" lon="-105.229789">
  <ele>1583.0</ele>
  <time>2026-08-28T17:56:25Z</time>
  <course>0.0</course>
  <speed>0.0</speed>
  <fix>3d</fix>
</trkpt>
<trkpt lat="40.0713749" lon="-105.229789">
  <ele>1583.0</ele>
  <time>2026-08-28T17:56:25Z</time>
  <course>247.93</course>
  <speed>0.0</speed>
  <fix>3d</fix>
</trkpt>
<trkpt lat="40.0713749" lon="-105.229789">
  <ele>1583.0</ele>
  <time>2026-08-28T17:56:25Z</time>
  <course>0.0</course>
  <speed>0.0</speed>
  <fix>3d</fix>
</trkpt>
<trkpt lat="40.0713749" lon="-105.229789">
  <ele>1583.0</ele>
  <time>2026-08-28T17:56:25Z</time>
  <course>247.96</course>
  <speed>0.0</speed>
  <fix>3d</fix>
</trkpt>
<trkpt lat="40.0713749" lon="-105.229789">
  <ele>1583.0</ele>
  <time>2026-08-28T17:56:25Z</time>
  <course>0.0</course>
  <speed>0.0</speed>
  <fix>3d</fix>
</trkpt>
<trkpt lat="40.0713749" lon="-105.229789">
  <ele>1583.0</ele>
  <time>2026-08-28T17:56:25Z</time>
  <course>247.99</course>
  <speed>0.0</speed>
  <fix>3d</fix>
</trkpt>
<trkpt lat="40.0713749" lon="-105.229789">
  <ele>1583.0</ele>
  <time>2026-08-28T17:56:25Z</time>
  <course>0.0</course>
  <speed>0.0</speed>
  <fix>3d</fix>
</trkpt>
<trkpt lat="40.0713749" lon="-105.229789">
  <ele>1583.0</ele>
  <time>2026-08-28T17:56:25Z</time>
  <course>248.02</course>
  <speed>0.0</speed>
  <fix>3d</fix>
</trkpt>
<trkpt lat="40.0713749" lon="-105.229789">
  <ele>1583.0</ele>
  <time>2026-08-28T17:56:25Z</time>
  <course>0.0</course>
  <speed>0.0</speed>
  <fix>3d</fix>
</trkpt>
<trkpt lat="40.0713749" lon="-105.229789">
  <ele>1583.0</ele>
  <time>2026-08-28T17:56:25Z</time>
  <course>248.04</course>
  <speed>0.0</speed>
  <fix>3d</fix>
</trkpt>
<trkpt lat="40.0713749" lon="-105.229789">
  <ele>1583.0</ele>
  <time>2026-08-28T17:56:25Z</time>
  <course>0.0</course>
  <speed>0.0</speed>
  <fix>3d</fix>
</trkpt>
<trkpt lat="40.0713749" lon="-105.229789">
  <ele>1583.0</ele>
  <time>2026-08-28T17:56:25Z</time>
  <course>248.07</course>
  <speed>0.0</speed>
  <fix>3d</fix>
</trkpt>
<trkpt lat="40.0713749" lon="-105.229789">
  <ele>1583.0</ele>
  <time>2026-08-28T17:56:25Z</time>
  <course>0.0</course>
  <speed>0.0</speed>
  <fix>3d</fix>
</trkpt>
<trkpt lat="40.0713749" lon="-105.229789">
  <ele>1583.0</ele>
  <time>2026-08-28T17:56:25Z</time>
  <course>248.09</course>
  <speed>0.0</speed>
  <fix>3d</fix>
</trkpt>
<trkpt lat="40.0713749" lon="-105.229789">
  <ele>1583.0</ele>
  <time>2026-08-28T17:56:25Z</time>
  <course>0.0</course>
  <speed>0.0</speed>
  <fix>3d</fix>
</trkpt>
<trkpt lat="40.0713749" lon="-105.229789">
  <ele>1583.0</ele>
  <time>2026-08-28T17:56:25Z</time>
  <course>248.11</course>
  <speed>0.0</speed>
  <fix>3d</fix>
</trkpt>
<trkpt lat="40.0713749" lon="-105.229789">
  <ele>1583.0</ele>
  <time>2026-08-28T17:56:25Z</time>
  <course>0.0</course>
  <speed>0.0</speed>
  <fix>3d</fix>
</trkpt>
<trkpt lat="40.0713749" lon="-105.229789">
  <ele>1583.0</ele>
  <time>2026-08-28T17:56:25Z</time>
  <course>248.13</course>
  <speed>0.0</speed>
  <fix>3d</fix>
</trkpt>
<trkpt lat="40.0713749" lon="-105.229789">
  <ele>1583.0</ele>
  <time>2026-08-28T17:56:25Z</time>
  <course>0.0</course>
  <speed>0.0</speed>
  <fix>3d</fix>
</trkpt>
<trkpt lat="40.0713749" lon="-105.229789">
  <ele>1583.0</ele>
  <time>2026-08-28T17:56:25Z</time>
  <course>248.15</course>
  <speed>0.0</speed>
  <fix>3d</fix>
</trkpt>
<trkpt lat="40.0713749" lon="-105.229789">
  <ele>1583.0</ele>
  <time>2026-08-28T17:56:25Z</time>
  <course>0.0</course>
  <speed>0.0</speed>
  <fix>3d</fix>
</trkpt>
<trkpt lat="40.0713749" lon="-105.229789">
  <ele>1583.0</ele>
  <time>2026-08-28T17:56:25Z</time>
  <course>248.17</course>
  <speed>0.0</speed>
  <fix>3d</fix>
</trkpt>
<trkpt lat="40.0713749" lon="-105.229789">
  <ele>1583.0</ele>
  <time>2026-08-28T17:56:25Z</time>
  <course>0.0</course>
  <speed>0.0</speed>
  <fix>3d</fix>
</trkpt>
<trkpt lat="40.0713749" lon="-105.229789">
  <ele>1583.0</ele>
  <time>2026-08-28T17:56:25Z</time>
  <course>248.19</course>
  <speed>0.0</speed>
  <fix>3d</fix>
</trkpt>
<trkpt lat="40.0713749" lon="-105.229789">
  <ele>1583.0</ele>
  <time>2026-08-28T17:56:25Z</time>
  <course>0.0</course>
  <speed>0.0</speed>
  <fix>3d</fix>
</trkpt>
<trkpt lat="40.0713749" lon="-105.229789">
  <ele>1583.0</ele>
  <time>2026-08-28T17:56:25Z</time>
  <course>248.21</course>
  <speed>0.0</speed>
  <fix>3d</fix>
</trkpt>
<trkpt lat="40.0713749" lon="-105.229789">
  <ele>1583.0</ele>
  <time>2026-08-28T17:56:25Z</time>
  <course>0.0</course>
  <speed>0.0</speed>
  <fix>3d</fix>
</trkpt>
<trkpt lat="40.0713749" lon="-105.229789">
  <ele>1583.0</ele>
  <time>2026-08-28T17:56:25Z</time>
  <course>248.22</course>
  <speed>0.0</speed>
  <fix>3d</fix>
</trkpt>
<trkpt lat="40.0713749" lon="-105.229789">
  <ele>1583.0</ele>
  <time>2026-08-28T17:56:25Z</time>
  <course>0.0</course>
  <speed>0.0</speed>
  <fix>3d</fix>
</trkpt>
<trkpt lat="40.0713749" lon="-105.229789">
  <ele>1583.0</ele>
  <time>2026-08-28T17:56:25Z</time>
  <course>248.24</course>
  <speed>0.0</speed>
  <fix>3d</fix>
</trkpt>
<trkpt lat="40.0713749" lon="-105.229789">
  <ele>1583.0</ele>
  <time>2026-08-28T17:56:25Z</time>
  <course>0.0</course>
  <speed>0.0</speed>
  <fix>3d</fix>
</trkpt>
<trkpt lat="40.0713749" lon="-105.229789">
  <ele>1583.0</ele>
  <time>2026-08-28T17:56:25Z</time>
  <course>248.25</course>
  <speed>0.0</speed>
  <fix>3d</fix>
</trkpt>
<trkpt lat="40.0713749" lon="-105.229789">
  <ele>1583.0</ele>
  <time>2026-08-28T17:56:25Z</time>
  <course>0.0</course>
  <speed>0.0</speed>
  <fix>3d</fix>
</trkpt>
<trkpt lat="40.0713749" lon="-105.229789">
  <ele>1583.0</ele>
  <time>2026-08-28T17:56:25Z</time>
  <course>248.26</course>
  <speed>0.0</speed>
  <fix>3d</fix>
</trkpt>
<trkpt lat="40.0713749" lon="-105.229789">
  <ele>1583.0</ele>
  <time>2026-08-28T17:56:25Z</time>
  <course>0.0</course>
  <speed>0.0</speed>
  <fix>3d</fix>
</trkpt>
<trkpt lat="40.0713749" lon="-105.229789">
  <ele>1583.0</ele>
  <time>2026-08-28T17:56:25Z</time>
  <course>248.28</course>
  <speed>0.0</speed>
  <fix>3d</fix>
</trkpt>
<trkpt lat="40.0713749" lon="-105.229789">
  <ele>1583.0</ele>
  <time>2026-08-28T17:56:25Z</time>
  <course>0.0</course>
  <speed>0.0</speed>
  <fix>3d</fix>
</trkpt>
<trkpt lat="40.0713749" lon="-105.229789">
  <ele>1583.0</ele>
  <time>2026-08-28T17:56:25Z</time>
  <course>248.29</course>
  <speed>0.0</speed>
  <fix>3d</fix>
</trkpt>
<trkpt lat="40.0713749" lon="-105.229789">
  <ele>1583.0</ele>
  <time>2026-08-28T17:56:25Z</time>
  <course>0.0</course>
  <speed>0.0</speed>
  <fix>3d</fix>
</trkpt>
<trkpt lat="40.0713749" lon="-105.229789">
  <ele>1583.0</ele>
  <time>2026-08-28T17:56:25Z</time>
  <course>248.3</course>
  <speed>0.0</speed>
  <fix>3d</fix>
</trkpt>
<trkpt lat="40.0713749" lon="-105.229789">
  <ele>1583.0</ele>
  <time>2026-08-28T17:56:25Z</time>
  <course>0.0</course>
  <speed>0.0</speed>
  <fix>3d</fix>
</trkpt>
<trkpt lat="40.0713749" lon="-105.229789">
  <ele>1583.0</ele>
  <time>2026-08-28T17:56:25Z</time>
  <course>248.31</course>
  <speed>0.0</speed>
  <fix>3d</fix>
</trkpt>
<trkpt lat="40.0713749" lon="-105.229789">
  <ele>1583.0</ele>
  <time>2026-08-28T17:56:25Z</time>
  <course>0.0</course>
  <speed>0.0</speed>
  <fix>3d</fix>
</trkpt>
<trkpt lat="40.0713749" lon="-105.229789">
  <ele>1583.0</ele>
  <time>2026-08-28T17:56:25Z</time>
  <course>248.32</course>
  <speed>0.0</speed>
  <fix>3d</fix>
</trkpt>
<trkpt lat="40.0713749" lon="-105.229789">
  <ele>1583.0</ele>
  <time>2026-08-28T17:56:25Z</time>
  <course>0.0</course>
  <speed>0.0</speed>
  <fix>3d</fix>
</trkpt>
<trkpt lat="40.0713749" lon="-105.229789">
  <ele>1583.0</ele>
  <time>2026-08-28T17:56:25Z</time>
  <course>248.33</course>
  <speed>0.0</speed>
  <fix>3d</fix>
</trkpt>
<trkpt lat="40.0713749" lon="-105.229789">
  <ele>1583.0</ele>
  <time>2026-08-28T17:56:25Z</time>
  <course>0.0</course>
  <speed>0.0</speed>
  <fix>3d</fix>
</trkpt>
<trkpt lat="40.0713749" lon="-105.229789">
  <ele>1583.0</ele>
  <time>2026-08-28T17:56:25Z</time>
  <course>248.34</course>
  <speed>0.0</speed>
  <fix>3d</fix>
</trkpt>
<trkpt lat="40.0713749" lon="-105.229789">
  <ele>1583.0</ele>
  <time>2026-08-28T17:56:25Z</time>
  <course>0.0</course>
  <speed>0.0</speed>
  <fix>3d</fix>
</trkpt>
<trkpt lat="40.0713749" lon="-105.229789">
  <ele>1583.0</ele>
  <time>2026-08-28T17:56:25Z</time>
  <course>248.34</course>
  <speed>0.0</speed>
  <fix>3d</fix>
</trkpt>
<trkpt lat="40.0713749" lon="-105.229789">
  <ele>1583.0</ele>
  <time>2026-08-28T17:56:25Z</time>
  <course>0.0</course>
  <speed>0.0</speed>
  <fix>3d</fix>
</trkpt>
<trkpt lat="40.0713749" lon="-105.229789">
  <ele>1583.0</ele>
  <time>2026-08-28T17:56:25Z</time>
  <course>248.35</course>
  <speed>0.0</speed>
  <fix>3d</fix>
</trkpt>
<trkpt lat="40.0713749" lon="-105.229789">
  <ele>1583.0</ele>
  <time>2026-08-28T17:56:25Z</time>
  <course>0.0</course>
  <speed>0.0</speed>
  <fix>3d</fix>
</trkpt>
<trkpt lat="40.0713749" lon="-105.229789">
  <ele>1583.0</ele>
  <time>2026-08-28T17:56:25Z</time>
  <course>248.36</course>
  <speed>0.0</speed>
  <fix>3d</fix>
</trkpt>
<trkpt lat="40.0713749" lon="-105.229789">
  <ele>1583.0</ele>
  <time>2026-08-28T17:56:25Z</time>
  <course>0.0</course>
  <speed>0.0</speed>
  <fix>3d</fix>
</trkpt>
<trkpt lat="40.0713749" lon="-105.229789">
  <ele>1583.0</ele>
  <time>2026-08-28T17:56:25Z</time>
  <course>248.36</course>
  <speed>0.0</speed>
  <fix>3d</fix>
</trkpt>
<trkpt lat="40.0713749" lon="-105.229789">
  <ele>1583.0</ele>
  <time>2026-08-28T17:56:25Z</time>
  <course>0.0</course>
  <speed>0.0</speed>
  <fix>3d</fix>
</trkpt>
<trkpt lat="40.0713749" lon="-105.229789">
  <ele>1583.0</ele>
  <time>2026-08-28T17:56:25Z</time>
  <course>248.37</course>
  <speed>0.0</speed>
  <fix>3d</fix>
</trkpt>
<trkpt lat="40.0713749" lon="-105.229789">
  <ele>1583.0</ele>
  <time>2026-08-28T17:56:25Z</time>
  <course>0.0</course>
  <speed>0.0</speed>
  <fix>3d</fix>
</trkpt>
<trkpt lat="40.0713749" lon="-105.229789">
  <ele>1583.0</ele>
  <time>2026-08-28T17:56:25Z</time>
  <course>248.37</course>
  <speed>0.0</speed>
  <fix>3d</fix>
</trkpt>
<trkpt lat="40.0713749" lon="-105.229789">
  <ele>1583.0</ele>
  <time>2026-08-28T17:56:25Z</time>
  <course>0.0</course>
  <speed>0.0</speed>
  <fix>3d</fix>
</trkpt>
<trkpt lat="40.0713749" lon="-105.229789">
  <ele>1583.0</ele>
  <time>2026-08-28T17:56:25Z</time>
  <course>248.38</course>
  <speed>0.0</speed>
  <fix>3d</fix>
</trkpt>
<trkpt lat="40.0713749" lon="-105.229789">
  <ele>1583.0</ele>
  <time>2026-08-28T17:56:25Z</time>
  <course>0.0</course>
  <speed>0.0</speed>
  <fix>3d</fix>
</trkpt>
<trkpt lat="40.0713749" lon="-105.229789">
  <ele>1583.0</ele>
  <time>2026-08-28T17:56:25Z</time>
  <course>248.38</course>
  <speed>0.0</speed>
  <fix>3d</fix>
</trkpt>
<trkpt lat="40.0713749" lon="-105.229789">
  <ele>1583.0</ele>
  <time>2026-08-28T17:56:25Z</time>
  <course>0.0</course>
  <speed>0.0</speed>
  <fix>3d</fix>
</trkpt>
<trkpt lat="40.0713749" lon="-105.229789">
  <ele>1583.0</ele>
  <time>2026-08-28T17:56:25Z</time>
  <course>248.39</course>
  <speed>0.0</speed>
  <fix>3d</fix>
</trkpt>
<trkpt lat="40.0713749" lon="-105.229789">
  <ele>1583.0</ele>
  <time>2026-08-28T17:56:25Z</time>
  <course>0.0</course>
  <speed>0.0</speed>
  <fix>3d</fix>
</trkpt>
<trkpt lat="40.0713749" lon="-105.229789">
  <ele>1583.0</ele>
  <time>2026-08-28T17:56:25Z</time>
  <course>248.39</course>
  <speed>0.0</speed>
  <fix>3d</fix>
</trkpt>
<trkpt lat="40.0713749" lon="-105.229789">
  <ele>1583.0</ele>
  <time>2026-08-28T17:56:25Z</time>
  <course>0.0</course>
  <speed>0.0</speed>
  <fix>3d</fix>
</trkpt>
<trkpt lat="40.0713749" lon="-105.229789">
  <ele>1583.0</ele>
  <time>2026-08-28T17:56:25Z</time>
  <course>248.39</course>
  <speed>0.0</speed>
  <fix>3d</fix>
</trkpt>
<trkpt lat="40.0713749" lon="-105.229789">
  <ele>1583.0</ele>
  <time>2026-08-28T17:56:25Z</time>
  <course>0.0</course>
  <speed>0.0</speed>
  <fix>3d</fix>
</trkpt>
<trkpt lat="40.0713749" lon="-105.229789">
  <ele>1583.0</ele>
  <time>2026-08-28T17:56:25Z</time>
  <course>248.39</course>
  <speed>0.0</speed>
  <fix>3d</fix>
</trkpt>
<trkpt lat="40.0713749" lon="-105.229789">
  <ele>1583.0</ele>
  <time>2026-08-28T17:56:25Z</time>
  <course>0.0</course>
  <speed>0.0</speed>
  <fix>3d</fix>
</trkpt>
<trkpt lat="40.0713749" lon="-105.229789">
  <ele>1583.0</ele>
  <time>2026-08-28T17:56:25Z</time>
  <course>248.4</course>
  <speed>0.0</speed>
  <fix>3d</fix>
</trkpt>
<trkpt lat="40.0713749" lon="-105.229789">
  <ele>1583.0</ele>
  <time>2026-08-28T17:56:25Z</time>
  <course>0.0</course>
  <speed>0.0</speed>
  <fix>3d</fix>
</trkpt>
<trkpt lat="40.0713749" lon="-105.229789">
  <ele>1583.0</ele>
  <time>2026-08-28T17:56:25Z</time>
  <course>248.4</course>
  <speed>0.0</speed>
  <fix>3d</fix>
</trkpt>
<trkpt lat="40.0713749" lon="-105.229789">
  <ele>1583.0</ele>
  <time>2026-08-28T17:56:25Z</time>
  <course>0.0</course>
  <speed>0.0</speed>
  <fix>3d</fix>
</trkpt>
<trkpt lat="40.0713749" lon="-105.229789">
  <ele>1583.0</ele>
  <time>2026-08-28T17:56:25Z</time>
  <course>248.4</course>
  <speed>0.0</speed>
  <fix>3d</fix>
</trkpt>
<trkpt lat="40.0713749" lon="-105.229789">
  <ele>1583.0</ele>
  <time>2026-08-28T17:56:25Z</time>
  <course>0.0</course>
  <speed>0.0</speed>
  <fix>3d</fix>
</trkpt>
<trkpt lat="40.0713749" lon="-105.229789">
  <ele>1583.0</ele>
  <time>2026-08-28T17:56:25Z</time>
  <course>248.4</course>
  <speed>0.0</speed>
  <fix>3d</fix>
</trkpt>
<trkpt lat="40.0713749" lon="-105.229789">
  <ele>1583.0</ele>
  <time>2026-08-28T17:56:25Z</time>
  <course>0.0</course>
  <speed>0.0</speed>
  <fix>3d</fix>
</trkpt>
<trkpt lat="40.0713749" lon="-105.229789">
  <ele>1583.0</ele>
  <time>2026-08-28T17:56:25Z</time>
  <course>248.4</course>
  <speed>0.0</speed>
  <fix>3d</fix>
</trkpt>
<trkpt lat="40.0713749" lon="-105.229789">
  <ele>1583.0</ele>
  <time>2026-08-28T17:56:25Z</time>
  <course>0.0</course>
  <speed>0.0</speed>
  <fix>3d</fix>
</trkpt>
<trkpt lat="40.0713749" lon="-105.229789">
  <ele>1583.0</ele>
  <time>2026-08-28T17:56:25Z</time>
  <course>248.4</course>
  <speed>0.0</speed>
  <fix>3d</fix>
</trkpt>
<trkpt lat="40.0713749" lon="-105.229789">
  <ele>1583.0</ele>
  <time>2026-08-28T17:56:25Z</time>
  <course>0.0</course>
  <speed>0.0</speed>
  <fix>3d</fix>
</trkpt>
<trkpt lat="40.0713749" lon="-105.229789">
  <ele>1583.0</ele>
  <time>2026-08-28T17:56:25Z</time>
  <course>248.4</course>
  <speed>0.0</speed>
  <fix>3d</fix>
</trkpt>
<trkpt lat="40.0713749" lon="-105.229789">
  <ele>1583.0</ele>
  <time>2026-08-28T17:56:25Z</time>
  <course>0.0</course>
  <speed>0.0</speed>
  <fix>3d</fix>
</trkpt>
<trkpt lat="40.0713749" lon="-105.229789">
  <ele>1583.0</ele>
  <time>2026-08-28T17:56:25Z</time>
  <course>248.4</course>
  <speed>0.0</speed>
  <fix>3d</fix>
</trkpt>
<trkpt lat="40.0713749" lon="-105.229789">
  <ele>1583.0</ele>
  <time>2026-08-28T17:56:25Z</time>
  <course>0.0</course>
  <speed>0.0</speed>
  <fix>3d</fix>
</trkpt>
<trkpt lat="40.0713749" lon="-105.229789">
  <ele>1583.0</ele>
  <time>2026-08-28T17:56:25Z</time>
  <course>248.4</course>
  <speed>0.0</speed>
  <fix>3d</fix>
</trkpt>
<trkpt lat="40.0713749" lon="-105.229789">
  <ele>1583.0</ele>
  <time>2026-08-28T17:56:25Z</time>
  <course>0.0</course>
  <speed>0.0</speed>
  <fix>3d</fix>
</trkpt>
<trkpt lat="40.0713749" lon="-105.229789">
  <ele>1583.0</ele>
  <time>2026-08-28T17:56:25Z</time>
  <course>248.4</course>
  <speed>0.0</speed>
  <fix>3d</fix>
</trkpt>
<trkpt lat="40.0713749" lon="-105.229789">
  <ele>1583.0</ele>
  <time>2026-08-28T17:56:25Z</time>
  <course>0.0</course>
  <speed>0.0</speed>
  <fix>3d</fix>
</trkpt>
<trkpt lat="40.0713749" lon="-105.229789">
  <ele>1583.0</ele>
  <time>2026-08-28T17:56:25Z</time>
  <course>248.4</course>
  <speed>0.0</speed>
  <fix>3d</fix>
</trkpt>
<trkpt lat="40.0713749" lon="-105.229789">
  <ele>1583.0</ele>
  <time>2026-08-28T17:56:25Z</time>
  <course>0.0</course>
  <speed>0.0</speed>
  <fix>3d</fix>
</trkpt>
<trkpt lat="40.0713749" lon="-105.229789">
  <ele>1583.0</ele>
  <time>2026-08-28T17:56:25Z</time>
  <course>248.4</course>
  <speed>0.0</speed>
  <fix>3d</fix>
</trkpt>
<trkpt lat="40.0713749" lon="-105.229789">
  <ele>1583.0</ele>
  <time>2026-08-28T17:56:25Z</time>
  <course>0.0</course>
  <speed>0.0</speed>
  <fix>3d</fix>
</trkpt>
<trkpt lat="40.0713749" lon="-105.229789">
  <ele>1583.0</ele>
  <time>2026-08-28T17:56:25Z</time>
  <course>248.4</course>
  <speed>0.0</speed>
  <fix>3d</fix>
</trkpt>
<trkpt lat="40.0713749" lon="-105.229789">
  <ele>1583.0</ele>
  <time>2026-08-28T17:56:25Z</time>
  <course>0.0</course>
  <speed>0.0</speed>
  <fix>3d</fix>
</trkpt>
<trkpt lat="40.0713749" lon="-105.229789">
  <ele>1583.0</ele>
  <time>2026-08-28T17:56:25Z</time>
  <course>248.4</course>
  <speed>0.0</speed>
  <fix>3d</fix>
</trkpt>
<trkpt lat="40.0713749" lon="-105.229789">
  <ele>1583.0</ele>
  <time>2026-08-28T17:56:25Z</time>
  <course>0.0</course>
  <speed>0.0</speed>
  <fix>3d</fix>
</trkpt>
<trkpt lat="40.0713749" lon="-105.229789">
  <ele>1583.0</ele>
  <time>2026-08-28T17:56:25Z</time>
  <course>248.4</course>
  <speed>0.01</speed>
  <fix>3d</fix>
</trkpt>
<trkpt lat="40.0713749" lon="-105.229789">
  <ele>1583.0</ele>
  <time>2026-08-28T17:56:25Z</time>
  <course>0.0</course>
  <speed>0.0</speed>
  <fix>3d</fix>
</trkpt>
<trkpt lat="40.0713749" lon="-105.229789">
  <ele>1583.0</ele>
  <time>2026-08-28T17:56:25Z</time>
  <course>248.4</course>
  <speed>0.01</speed>
  <fix>3d</fix>
</trkpt>
<trkpt lat="40.0713749" lon="-105.229789">
  <ele>1583.0</ele>
  <time>2026-08-28T17:56:25Z</time>
  <course>0.0</course>
  <speed>0.0</speed>
  <fix>3d</fix>
</trkpt>
<trkpt lat="40.0713749" lon="-105.229789">
  <ele>1583.0</ele>
  <time>2026-08-28T17:56:25Z</time>
  <course>248.4</course>
  <speed>0.01</speed>
  <fix>3d</fix>
</trkpt>
<trkpt lat="40.0713749" lon="-105.229789">
  <ele>1583.0</ele>
  <time>2026-08-28T17:56:25Z</time>
  <course>0.0</course>
  <speed>0.0</speed>
  <fix>3d</fix>
</trkpt>
<trkpt lat="40.0713749" lon="-105.229789">
  <ele>1583.0</ele>
  <time>2026-08-28T17:56:25Z</time>
  <course>248.39</course>
  <speed>0.01</speed>
  <fix>3d</fix>
</trkpt>
<trkpt lat="40.0713749" lon="-105.229789">
  <ele>1583.0</ele>
  <time>2026-08-28T17:56:25Z</time>
  <course>0.0</course>
  <speed>0.0</speed>
  <fix>3d</fix>
</trkpt>
<trkpt lat="40.0713749" lon="-105.229789">
  <ele>1583.0</ele>
  <time>2026-08-28T17:56:25Z</time>
  <course>248.39</course>
  <speed>0.01</speed>
  <fix>3d</fix>
</trkpt>
<trkpt lat="40.0713749" lon="-105.229789">
  <ele>1583.0</ele>
  <time>2026-08-28T17:56:25Z</time>
  <course>0.0</course>
  <speed>0.0</speed>
  <fix>3d</fix>
</trkpt>
<trkpt lat="40.0713749" lon="-105.229789">
  <ele>1583.0</ele>
  <time>2026-08-28T17:56:25Z</time>
  <course>248.39</course>
  <speed>0.01</speed>
  <fix>3d</fix>
</trkpt>
<trkpt lat="40.0713749" lon="-105.229789">
  <ele>1583.0</ele>
  <time>2026-08-28T17:56:25Z</time>
  <course>0.0</course>
  <speed>0.0</speed>
  <fix>3d</fix>
</trkpt>
<trkpt lat="40.0713749" lon="-105.229789">
  <ele>1583.0</ele>
  <time>2026-08-28T17:56:25Z</time>
  <course>248.39</course>
  <speed>0.01</speed>
  <fix>3d</fix>
</trkpt>
<trkpt lat="40.0713749" lon="-105.229789">
  <ele>1583.0</ele>
  <time>2026-08-28T17:56:25Z</time>
  <course>0.0</course>
  <speed>0.0</speed>
  <fix>3d</fix>
</trkpt>
<trkpt lat="40.0713749" lon="-105.229789">
  <ele>1583.0</ele>
  <time>2026-08-28T17:56:25Z</time>
  <course>248.38</course>
  <speed>0.01</speed>
  <fix>3d</fix>
</trkpt>
<trkpt lat="40.0713749" lon="-105.229789">
  <ele>1583.0</ele>
  <time>2026-08-28T17:56:25Z</time>
  <course>0.0</course>
  <speed>0.0</speed>
  <fix>3d</fix>
</trkpt>
<trkpt lat="40.0713749" lon="-105.229789">
  <ele>1583.0</ele>
  <time>2026-08-28T17:56:25Z</time>
  <course>248.38</course>
  <speed>0.01</speed>
  <fix>3d</fix>
</trkpt>
<trkpt lat="40.0713749" lon="-105.229789">
  <ele>1583.0</ele>
  <time>2026-08-28T17:56:25Z</time>
  <course>0.0</course>
  <speed>0.0</speed>
  <fix>3d</fix>
</trkpt>
<trkpt lat="40.0713749" lon="-105.229789">
  <ele>1583.0</ele>
  <time>2026-08-28T17:56:25Z</time>
  <course>248.38</course>
  <speed>0.01</speed>
  <fix>3d</fix>
</trkpt>
<trkpt lat="40.0713749" lon="-105.229789">
  <ele>1583.0</ele>
  <time>2026-08-28T17:56:25Z</time>
  <course>0.0</course>
  <speed>0.0</speed>
  <fix>3d</fix>
</trkpt>
<trkpt lat="40.0713749" lon="-105.229789">
  <ele>1583.0</ele>
  <time>2026-08-28T17:56:25Z</time>
  <course>248.38</course>
  <speed>0.01</speed>
  <fix>3d</fix>
</trkpt>
<trkpt lat="40.0713749" lon="-105.229789">
  <ele>1583.0</ele>
  <time>2026-08-28T17:56:25Z</time>
  <course>0.0</course>
  <speed>0.0</speed>
  <fix>3d</fix>
</trkpt>
<trkpt lat="40.0713749" lon="-105.229789">
  <ele>1583.0</ele>
  <time>2026-08-28T17:56:25Z</time>
  <course>248.37</course>
  <speed>0.01</speed>
  <fix>3d</fix>
</trkpt>
<trkpt lat="40.0713749" lon="-105.229789">
  <ele>1583.0</ele>
  <time>2026-08-28T17:56:25Z</time>
  <course>0.0</course>
  <speed>0.0</speed>
  <fix>3d</fix>
</trkpt>
<trkpt lat="40.0713749" lon="-105.229789">
  <ele>1583.0</ele>
  <time>2026-08-28T17:56:25Z</time>
  <course>248.37</course>
  <speed>0.01</speed>
  <fix>3d</fix>
</trkpt>
<trkpt lat="40.0713749" lon="-105.229789">
  <ele>1583.0</ele>
  <time>2026-08-28T17:56:25Z</time>
  <course>0.0</course>
  <speed>0.0</speed>
  <fix>3d</fix>
</trkpt>
<trkpt lat="40.0713749" lon="-105.229789">
  <ele>1583.0</ele>
  <time>2026-08-28T17:56:25Z</time>
  <course>248.37</course>
  <speed>0.01</speed>
  <fix>3d</fix>
</trkpt>
<trkpt lat="40.0713749" lon="-105.229789">
  <ele>1583.0</ele>
  <time>2026-08-28T17:56:25Z</time>
  <course>0.0</course>
  <speed>0.0</speed>
  <fix>3d</fix>
</trkpt>
<trkpt lat="40.0713749" lon="-105.229789">
  <ele>1583.0</ele>
  <time>2026-08-28T17:56:25Z</time>
  <course>248.36</course>
  <speed>0.01</speed>
  <fix>3d</fix>
</trkpt>
<trkpt lat="40.0713749" lon="-105.229789">
  <ele>1583.0</ele>
  <time>2026-08-28T17:56:25Z</time>
  <course>0.0</course>
  <speed>0.0</speed>
  <fix>3d</fix>
</trkpt>
<trkpt lat="40.0713749" lon="-105.229789">
  <ele>1583.0</ele>
  <time>2026-08-28T17:56:25Z</time>
  <course>248.36</course>
  <speed>0.01</speed>
  <fix>3d</fix>
</trkpt>
<trkpt lat="40.0713749" lon="-105.229789">
  <ele>1583.0</ele>
  <time>2026-08-28T17:56:25Z</time>
  <course>0.0</course>
  <speed>0.0</speed>
  <fix>3d</fix>
</trkpt>
<trkpt lat="40.0713749" lon="-105.229789">
  <ele>1583.0</ele>
  <time>2026-08-28T17:56:25Z</time>
  <course>248.36</course>
  <speed>0.01</speed>
  <fix>3d</fix>
</trkpt>
<trkpt lat="40.0713749" lon="-105.229789">
  <ele>1583.0</ele>
  <time>2026-08-28T17:56:25Z</time>
  <course>0.0</course>
  <speed>0.0</speed>
  <fix>3d</fix>
</trkpt>
<trkpt lat="40.0713749" lon="-105.229789">
  <ele>1583.0</ele>
  <time>2026-08-28T17:56:25Z</time>
  <course>248.35</course>
  <speed>0.01</speed>
  <fix>3d</fix>
</trkpt>
<trkpt lat="40.0713749" lon="-105.229789">
  <ele>1583.0</ele>
  <time>2026-08-28T17:56:25Z</time>
  <course>0.0</course>
  <speed>0.0</speed>
  <fix>3d</fix>
</trkpt>
<trkpt lat="40.0713749" lon="-105.229789">
  <ele>1583.0</ele>
  <time>2026-08-28T17:56:25Z</time>
  <course>248.35</course>
  <speed>0.01</speed>
  <fix>3d</fix>
</trkpt>
<trkpt lat="40.0713749" lon="-105.229789">
  <ele>1583.0</ele>
  <time>2026-08-28T17:56:25Z</time>
  <course>0.0</course>
  <speed>0.0</speed>
  <fix>3d</fix>
</trkpt>
<trkpt lat="40.0713749" lon="-105.229789">
  <ele>1583.0</ele>
  <time>2026-08-28T17:56:25Z</time>
  <course>248.35</course>
  <speed>0.01</speed>
  <fix>3d</fix>
</trkpt>
<trkpt lat="40.0713749" lon="-105.229789">
  <ele>1583.0</ele>
  <time>2026-08-28T17:56:25Z</time>
  <course>0.0</course>
  <speed>0.0</speed>
  <fix>3d</fix>
</trkpt>
<trkpt lat="40.0713749" lon="-105.229789">
  <ele>1583.0</ele>
  <time>2026-08-28T17:56:25Z</time>
  <course>248.34</course>
  <speed>0.01</speed>
  <fix>3d</fix>
</trkpt>
<trkpt lat="40.0713749" lon="-105.229789">
  <ele>1583.0</ele>
  <time>2026-08-28T17:56:25Z</time>
  <course>0.0</course>
  <speed>0.0</speed>
  <fix>3d</fix>
</trkpt>
<trkpt lat="40.0713749" lon="-105.229789">
  <ele>1583.0</ele>
  <time>2026-08-28T17:56:25Z</time>
  <course>248.34</course>
  <speed>0.01</speed>
  <fix>3d</fix>
</trkpt>
<trkpt lat="40.0713749" lon="-105.229789">
  <ele>1583.0</ele>
  <time>2026-08-28T17:56:25Z</time>
  <course>0.0</course>
  <speed>0.0</speed>
  <fix>3d</fix>
</trkpt>
<trkpt lat="40.0713749" lon="-105.229789">
  <ele>1583.0</ele>
  <time>2026-08-28T17:56:25Z</time>
  <course>248.33</course>
  <speed>0.01</speed>
  <fix>3d</fix>
</trkpt>
<trkpt lat="40.0713749" lon="-105.229789">
  <ele>1583.0</ele>
  <time>2026-08-28T17:56:25Z</time>
  <course>0.0</course>
  <speed>0.0</speed>
  <fix>3d</fix>
</trkpt>
<trkpt lat="40.0713749" lon="-105.229789">
  <ele>1583.0</ele>
  <time>2026-08-28T17:56:25Z</time>
  <course>248.33</course>
  <speed>0.01</speed>
  <fix>3d</fix>
</trkpt>
<trkpt lat="40.0713749" lon="-105.229789">
  <ele>1583.0</ele>
  <time>2026-08-28T17:56:25Z</time>
  <course>0.0</course>
  <speed>0.0</speed>
  <fix>3d</fix>
</trkpt>
<trkpt lat="40.0713749" lon="-105.229789">
  <ele>1583.0</ele>
  <time>2026-08-28T17:56:25Z</time>
  <course>248.33</course>
  <speed>0.01</speed>
  <fix>3d</fix>
</trkpt>
<trkpt lat="40.0713749" lon="-105.229789">
  <ele>1583.0</ele>
  <time>2026-08-28T17:56:25Z</time>
  <course>0.0</course>
  <speed>0.0</speed>
  <fix>3d</fix>
</trkpt>
<trkpt lat="40.0713749" lon="-105.229789">
  <ele>1583.0</ele>
  <time>2026-08-28T17:56:25Z</time>
  <course>248.32</course>
  <speed>0.01</speed>
  <fix>3d</fix>
</trkpt>
<trkpt lat="40.0713749" lon="-105.229789">
  <ele>1583.0</ele>
  <time>2026-08-28T17:56:25Z</time>
  <course>0.0</course>
  <speed>0.0</speed>
  <fix>3d</fix>
</trkpt>
<trkpt lat="40.0713749" lon="-105.229789">
  <ele>1583.0</ele>
  <time>2026-08-28T17:56:25Z</time>
  <course>248.32</course>
  <speed>0.01</speed>
  <fix>3d</fix>
</trkpt>
<trkpt lat="40.0713749" lon="-105.229789">
  <ele>1583.0</ele>
  <time>2026-08-28T17:56:25Z</time>
  <course>0.0</course>
  <speed>0.0</speed>
  <fix>3d</fix>
</trkpt>
<trkpt lat="40.0713749" lon="-105.229789">
  <ele>1583.0</ele>
  <time>2026-08-28T17:56:25Z</time>
  <course>248.31</course>
  <speed>0.01</speed>
  <fix>3d</fix>
</trkpt>
<trkpt lat="40.0713749" lon="-105.229789">
  <ele>1583.0</ele>
  <time>2026-08-28T17:56:25Z</time>
  <course>0.0</course>
  <speed>0.0</speed>
  <fix>3d</fix>
</trkpt>
<trkpt lat="40.0713749" lon="-105.229789">
  <ele>1583.0</ele>
  <time>2026-08-28T17:56:25Z</time>
  <course>248.31</course>
  <speed>0.01</speed>
  <fix>3d</fix>
</trkpt>
<trkpt lat="40.0713749" lon="-105.229789">
  <ele>1583.0</ele>
  <time>2026-08-28T17:56:25Z</time>
  <course>0.0</course>
  <speed>0.0</speed>
  <fix>3d</fix>
</trkpt>
<trkpt lat="40.0713749" lon="-105.229789">
  <ele>1583.0</ele>
  <time>2026-08-28T17:56:25Z</time>
  <course>248.3</course>
  <speed>0.01</speed>
  <fix>3d</fix>
</trkpt>
<trkpt lat="40.0713749" lon="-105.229789">
  <ele>1583.0</ele>
  <time>2026-08-28T17:56:25Z</time>
  <course>0.0</course>
  <speed>0.0</speed>
  <fix>3d</fix>
</trkpt>
<trkpt lat="40.0713749" lon="-105.229789">
  <ele>1583.0</ele>
  <time>2026-08-28T17:56:25Z</time>
  <course>248.3</course>
  <speed>0.01</speed>
  <fix>3d</fix>
</trkpt>
<trkpt lat="40.0713749" lon="-105.229789">
  <ele>1583.0</ele>
  <time>2026-08-28T17:56:25Z</time>
  <course>0.0</course>
  <speed>0.0</speed>
  <fix>3d</fix>
</trkpt>
<trkpt lat="40.0713749" lon="-105.229789">
  <ele>1583.0</ele>
  <time>2026-08-28T17:56:25Z</time>
  <course>248.29</course>
  <speed>0.01</speed>
  <fix>3d</fix>
</trkpt>
<trkpt lat="40.0713749" lon="-105.229789">
  <ele>1583.0</ele>
  <time>2026-08-28T17:56:25Z</time>
  <course>0.0</course>
  <speed>0.0</speed>
  <fix>3d</fix>
</trkpt>
<trkpt lat="40.0713749" lon="-105.229789">
  <ele>1583.0</ele>
  <time>2026-08-28T17:56:25Z</time>
  <course>248.29</course>
  <speed>0.01</speed>
  <fix>3d</fix>
</trkpt>
<trkpt lat="40.0713749" lon="-105.229789">
  <ele>1583.0</ele>
  <time>2026-08-28T17:56:25Z</time>
  <course>0.0</course>
  <speed>0.0</speed>
  <fix>3d</fix>
</trkpt>
<trkpt lat="40.0713749" lon="-105.229789">
  <ele>1583.0</ele>
  <time>2026-08-28T17:56:25Z</time>
  <course>248.29</course>
  <speed>0.01</speed>
  <fix>3d</fix>
</trkpt>
<trkpt lat="40.0713749" lon="-105.229789">
  <ele>1583.0</ele>
  <time>2026-08-28T17:56:25Z</time>
  <course>0.0</course>
  <speed>0.0</speed>
  <fix>3d</fix>
</trkpt>
<trkpt lat="40.0713749" lon="-105.229789">
  <ele>1583.0</ele>
  <time>2026-08-28T17:56:25Z</time>
  <course>248.28</course>
  <speed>0.01</speed>
  <fix>3d</fix>
</trkpt>
<trkpt lat="40.0713749" lon="-105.229789">
  <ele>1583.0</ele>
  <time>2026-08-28T17:56:25Z</time>
  <course>0.0</course>
  <speed>0.0</speed>
  <fix>3d</fix>
</trkpt>
<trkpt lat="40.0713749" lon="-105.229789">
  <ele>1583.0</ele>
  <time>2026-08-28T17:56:25Z</time>
  <course>248.28</course>
  <speed>0.01</speed>
  <fix>3d</fix>
</trkpt>
<trkpt lat="40.0713749" lon="-105.229789">
  <ele>1583.0</ele>
  <time>2026-08-28T17:56:25Z</time>
  <course>0.0</course>
  <speed>0.0</speed>
  <fix>3d</fix>
</trkpt>
<trkpt lat="40.0713749" lon="-105.229789">
  <ele>1583.0</ele>
  <time>2026-08-28T17:56:25Z</time>
  <course>248.27</course>
  <speed>0.01</speed>
  <fix>3d</fix>
</trkpt>
<trkpt lat="40.0713749" lon="-105.229789">
  <ele>1583.0</ele>
  <time>2026-08-28T17:56:25Z</time>
  <course>0.0</course>
  <speed>0.0</speed>
  <fix>3d</fix>
</trkpt>
<trkpt lat="40.0713749" lon="-105.229789">
  <ele>1583.0</ele>
  <time>2026-08-28T17:56:25Z</time>
  <course>248.27</course>
  <speed>0.01</speed>
  <fix>3d</fix>
</trkpt>
<trkpt lat="40.0713749" lon="-105.229789">
  <ele>1583.0</ele>
  <time>2026-08-28T17:56:25Z</time>
  <course>0.0</course>
  <speed>0.0</speed>
  <fix>3d</fix>
</trkpt>
<trkpt lat="40.0713749" lon="-105.229789">
  <ele>1583.0</ele>
  <time>2026-08-28T17:56:25Z</time>
  <course>248.26</course>
  <speed>0.01</speed>
  <fix>3d</fix>
</trkpt>
<trkpt lat="40.0713749" lon="-105.229789">
  <ele>1583.0</ele>
  <time>2026-08-28T17:56:25Z</time>
  <course>0.0</course>
  <speed>0.0</speed>
  <fix>3d</fix>
</trkpt>
<trkpt lat="40.0713749" lon="-105.229789">
  <ele>1583.0</ele>
  <time>2026-08-28T17:56:25Z</time>
  <course>248.26</course>
  <speed>0.01</speed>
  <fix>3d</fix>
</trkpt>
<trkpt lat="40.0713749" lon="-105.229789">
  <ele>1583.0</ele>
  <time>2026-08-28T17:56:25Z</time>
  <course>0.0</course>
  <speed>0.0</speed>
  <fix>3d</fix>
</trkpt>
<trkpt lat="40.0713749" lon="-105.229789">
  <ele>1583.0</ele>
  <time>2026-08-28T17:56:25Z</time>
  <course>248.25</course>
  <speed>0.01</speed>
  <fix>3d</fix>
</trkpt>
<trkpt lat="40.0713749" lon="-105.229789">
  <ele>1583.0</ele>
  <time>2026-08-28T17:56:25Z</time>
  <course>0.0</course>
  <speed>0.0</speed>
  <fix>3d</fix>
</trkpt>
<trkpt lat="40.0713749" lon="-105.229789">
  <ele>1583.0</ele>
  <time>2026-08-28T17:56:25Z</time>
  <course>248.25</course>
  <speed>0.01</speed>
  <fix>3d</fix>
</trkpt>
<trkpt lat="40.0713749" lon="-105.229789">
  <ele>1583.0</ele>
  <time>2026-08-28T17:56:25Z</time>
  <course>0.0</course>
  <speed>0.0</speed>
  <fix>3d</fix>
</trkpt>
<trkpt lat="40.0713749" lon="-105.229789">
  <ele>1583.0</ele>
  <time>2026-08-28T17:56:25Z</time>
  <course>248.24</course>
  <speed>0.01</speed>
  <fix>3d</fix>
</trkpt>
<trkpt lat="40.0713749" lon="-105.229789">
  <ele>1583.0</ele>
  <time>2026-08-28T17:56:25Z</time>
  <course>0.0</course>
  <speed>0.0</speed>
  <fix>3d</fix>
</trkpt>
<trkpt lat="40.0713749" lon="-105.229789">
  <ele>1583.0</ele>
  <time>2026-08-28T17:56:25Z</time>
  <course>248.24</course>
  <speed>0.01</speed>
  <fix>3d</fix>
</trkpt>
<trkpt lat="40.0713749" lon="-105.229789">
  <ele>1583.0</ele>
  <time>2026-08-28T17:56:25Z</time>
  <course>0.0</course>
  <speed>0.0</speed>
  <fix>3d</fix>
</trkpt>
<trkpt lat="40.0713749" lon="-105.229789">
  <ele>1583.0</ele>
  <time>2026-08-28T17:56:25Z</time>
  <course>248.23</course>
  <speed>0.01</speed>
  <fix>3d</fix>
</trkpt>
<trkpt lat="40.0713749" lon="-105.229789">
  <ele>1583.0</ele>
  <time>2026-08-28T17:56:25Z</time>
  <course>0.0</course>
  <speed>0.0</speed>
  <fix>3d</fix>
</trkpt>
<trkpt lat="40.0713749" lon="-105.229789">
  <ele>1583.0</ele>
  <time>2026-08-28T17:56:25Z</time>
  <course>248.23</course>
  <speed>0.01</speed>
  <fix>3d</fix>
</trkpt>
<trkpt lat="40.0713749" lon="-105.229789">
  <ele>1583.0</ele>
  <time>2026-08-28T17:56:25Z</time>
  <course>0.0</course>
  <speed>0.0</speed>
  <fix>3d</fix>
</trkpt>
<trkpt lat="40.0713749" lon="-105.229789">
  <ele>1583.0</ele>
  <time>2026-08-28T17:56:25Z</time>
  <course>248.22</course>
  <speed>0.01</speed>
  <fix>3d</fix>
</trkpt>
<trkpt lat="40.0713749" lon="-105.229789">
  <ele>1583.0</ele>
  <time>2026-08-28T17:56:25Z</time>
  <course>0.0</course>
  <speed>0.0</speed>
  <fix>3d</fix>
</trkpt>
<trkpt lat="40.0713749" lon="-105.229789">
  <ele>1583.0</ele>
  <time>2026-08-28T17:56:25Z</time>
  <course>248.22</course>
  <speed>0.01</speed>
  <fix>3d</fix>
</trkpt>
<trkpt lat="40.0713749" lon="-105.229789">
  <ele>1583.0</ele>
  <time>2026-08-28T17:56:25Z</time>
  <course>0.0</course>
  <speed>0.0</speed>
  <fix>3d</fix>
</trkpt>
<trkpt lat="40.0713749" lon="-105.229789">
  <ele>1583.0</ele>
  <time>2026-08-28T17:56:25Z</time>
  <course>248.21</course>
  <speed>0.01</speed>
  <fix>3d</fix>
</trkpt>
<trkpt lat="40.0713749" lon="-105.229789">
  <ele>1583.0</ele>
  <time>2026-08-28T17:56:25Z</time>
  <course>0.0</course>
  <speed>0.0</speed>
  <fix>3d</fix>
</trkpt>
<trkpt lat="40.0713749" lon="-105.229789">
  <ele>1583.0</ele>
  <time>2026-08-28T17:56:25Z</time>
  <course>248.21</course>
  <speed>0.01</speed>
  <fix>3d</fix>
</trkpt>
<trkpt lat="40.0713749" lon="-105.229789">
  <ele>1583.0</ele>
  <time>2026-08-28T17:56:25Z</time>
  <course>0.0</course>
  <speed>0.0</speed>
  <fix>3d</fix>
</trkpt>
<trkpt lat="40.0713749" lon="-105.229789">
  <ele>1583.0</ele>
  <time>2026-08-28T17:56:25Z</time>
  <course>248.2</course>
  <speed>0.01</speed>
  <fix>3d</fix>
</trkpt>
<trkpt lat="40.0713749" lon="-105.229789">
  <ele>1583.0</ele>
  <time>2026-08-28T17:56:25Z</time>
  <course>0.0</course>
  <speed>0.0</speed>
  <fix>3d</fix>
</trkpt>
<trkpt lat="40.0713749" lon="-105.229789">
  <ele>1583.0</ele>
  <time>2026-08-28T17:56:25Z</time>
  <course>248.2</course>
  <speed>0.01</speed>
  <fix>3d</fix>
</trkpt>
<trkpt lat="40.0713749" lon="-105.229789">
  <ele>1583.0</ele>
  <time>2026-08-28T17:56:25Z</time>
  <course>0.0</course>
  <speed>0.0</speed>
  <fix>3d</fix>
</trkpt>
<trkpt lat="40.0713749" lon="-105.229789">
  <ele>1583.0</ele>
  <time>2026-08-28T17:56:25Z</time>
  <course>248.19</course>
  <speed>0.01</speed>
  <fix>3d</fix>
</trkpt>
<trkpt lat="40.0713749" lon="-105.229789">
  <ele>1583.0</ele>
  <time>2026-08-28T17:56:25Z</time>
  <course>0.0</course>
  <speed>0.0</speed>
  <fix>3d</fix>
</trkpt>
<trkpt lat="40.0713749" lon="-105.229789">
  <ele>1583.0</ele>
  <time>2026-08-28T17:56:25Z</time>
  <course>248.19</course>
  <speed>0.01</speed>
  <fix>3d</fix>
</trkpt>
<trkpt lat="40.0713749" lon="-105.229789">
  <ele>1583.0</ele>
  <time>2026-08-28T17:56:25Z</time>
  <course>0.0</course>
  <speed>0.0</speed>
  <fix>3d</fix>
</trkpt>
<trkpt lat="40.0713749" lon="-105.229789">
  <ele>1583.0</ele>
  <time>2026-08-28T17:56:25Z</time>
  <course>248.18</course>
  <speed>0.01</speed>
  <fix>3d</fix>
</trkpt>
<trkpt lat="40.0713749" lon="-105.229789">
  <ele>1583.0</ele>
  <time>2026-08-28T17:56:25Z</time>
  <course>0.0</course>
  <speed>0.0</speed>
  <fix>3d</fix>
</trkpt>
<trkpt lat="40.0713749" lon="-105.229789">
  <ele>1583.0</ele>
  <time>2026-08-28T17:56:25Z</time>
  <course>248.18</course>
  <speed>0.01</speed>
  <fix>3d</fix>
</trkpt>
<trkpt lat="40.0713749" lon="-105.229789">
  <ele>1583.0</ele>
  <time>2026-08-28T17:56:25Z</time>
  <course>0.0</course>
  <speed>0.0</speed>
  <fix>3d</fix>
</trkpt>
<trkpt lat="40.0713749" lon="-105.229789">
  <ele>1583.0</ele>
  <time>2026-08-28T17:56:25Z</time>
  <course>248.18</course>
  <speed>0.02</speed>
  <fix>3d</fix>
</trkpt>
<trkpt lat="40.0713749" lon="-105.229789">
  <ele>1583.0</ele>
  <time>2026-08-28T17:56:25Z</time>
  <course>0.0</course>
  <speed>0.0</speed>
  <fix>3d</fix>
</trkpt>
<trkpt lat="40.0713749" lon="-105.229789">
  <ele>1583.0</ele>
  <time>2026-08-28T17:56:25Z</time>
  <course>248.17</course>
  <speed>0.02</speed>
  <fix>3d</fix>
</trkpt>
<trkpt lat="40.0713749" lon="-105.229789">
  <ele>1583.0</ele>
  <time>2026-08-28T17:56:25Z</time>
  <course>0.0</course>
  <speed>0.0</speed>
  <fix>3d</fix>
</trkpt>
<trkpt lat="40.0713749" lon="-105.229789">
  <ele>1583.0</ele>
  <time>2026-08-28T17:56:25Z</time>
  <course>248.17</course>
  <speed>0.02</speed>
  <fix>3d</fix>
</trkpt>
<trkpt lat="40.0713749" lon="-105.229789">
  <ele>1583.0</ele>
  <time>2026-08-28T17:56:25Z</time>
  <course>0.0</course>
  <speed>0.0</speed>
  <fix>3d</fix>
</trkpt>
<trkpt lat="40.0713749" lon="-105.229789">
  <ele>1583.0</ele>
  <time>2026-08-28T17:56:25Z</time>
  <course>248.16</course>
  <speed>0.02</speed>
  <fix>3d</fix>
</trkpt>
<trkpt lat="40.0713749" lon="-105.229789">
  <ele>1583.0</ele>
  <time>2026-08-28T17:56:25Z</time>
  <course>0.0</course>
  <speed>0.0</speed>
  <fix>3d</fix>
</trkpt>
<trkpt lat="40.0713749" lon="-105.229789">
  <ele>1583.0</ele>
  <time>2026-08-28T17:56:25Z</time>
  <course>248.16</course>
  <speed>0.02</speed>
  <fix>3d</fix>
</trkpt>
<trkpt lat="40.0713749" lon="-105.229789">
  <ele>1583.0</ele>
  <time>2026-08-28T17:56:25Z</time>
  <course>0.0</course>
  <speed>0.0</speed>
  <fix>3d</fix>
</trkpt>
<trkpt lat="40.0713749" lon="-105.229789">
  <ele>1583.0</ele>
  <time>2026-08-28T17:56:25Z</time>
  <course>248.15</course>
  <speed>0.022360679774997897</speed>
  <fix>3d</fix>
</trkpt>
<trkpt lat="40.0713749" lon="-105.229789">
  <ele>1583.0</ele>
  <time>2026-08-28T17:56:25Z</time>
  <course>0.0</course>
  <speed>0.0</speed>
  <fix>3d</fix>
</trkpt>
<trkpt lat="40.0713749" lon="-105.229789">
  <ele>1583.0</ele>
  <time>2026-08-28T17:56:25Z</time>
  <course>248.15</course>
  <speed>0.022360679774997897</speed>
  <fix>3d</fix>
</trkpt>
<trkpt lat="40.0713749" lon="-105.229789">
  <ele>1583.0</ele>
  <time>2026-08-28T17:56:25Z</time>
  <course>0.0</course>
  <speed>0.0</speed>
  <fix>3d</fix>
</trkpt>
<trkpt lat="40.0713749" lon="-105.229789">
  <ele>1583.0</ele>
  <time>2026-08-28T17:56:25Z</time>
  <course>248.14</course>
  <speed>0.022360679774997897</speed>
  <fix>3d</fix>
</trkpt>
<trkpt lat="40.0713749" lon="-105.229789">
  <ele>1583.0</ele>
  <time>2026-08-28T17:56:25Z</time>
  <course>0.0</course>
  <speed>0.0</speed>
  <fix>3d</fix>
</trkpt>
<trkpt lat="40.0713749" lon="-105.229789">
  <ele>1583.0</ele>
  <time>2026-08-28T17:56:25Z</time>
  <course>248.14</course>
  <speed>0.022360679774997897</speed>
  <fix>3d</fix>
</trkpt>
<trkpt lat="40.0713749" lon="-105.229789">
  <ele>1583.0</ele>
  <time>2026-08-28T17:56:25Z</time>
  <course>0.0</course>
  <speed>0.0</speed>
  <fix>3d</fix>
</trkpt>
<trkpt lat="40.0713749" lon="-105.229789">
  <ele>1583.0</ele>
  <time>2026-08-28T17:56:25Z</time>
  <course>248.13</course>
  <speed>0.022360679774997897</speed>
  <fix>3d</fix>
</trkpt>
<trkpt lat="40.0713749" lon="-105.229789">
  <ele>1583.0</ele>
  <time>2026-08-28T17:56:25Z</time>
  <course>0.0</course>
  <speed>0.0</speed>
  <fix>3d</fix>
</trkpt>
<trkpt lat="40.0713749" lon="-105.229789">
  <ele>1583.0</ele>
  <time>2026-08-28T17:56:25Z</time>
  <course>248.13</course>
  <speed>0.022360679774997897</speed>
  <fix>3d</fix>
</trkpt>
<trkpt lat="40.0713749" lon="-105.229789">
  <ele>1583.0</ele>
  <time>2026-08-28T17:56:25Z</time>
  <course>0.0</course>
  <speed>0.0</speed>
  <fix>3d</fix>
</trkpt>
<trkpt lat="40.0713749" lon="-105.229789">
  <ele>1583.0</ele>
  <time>2026-08-28T17:56:25Z</time>
  <course>248.12</course>
  <speed>0.022360679774997897</speed>
  <fix>3d</fix>
</trkpt>
<trkpt lat="40.0713749" lon="-105.229789">
  <ele>1583.0</ele>
  <time>2026-08-28T17:56:25Z</time>
  <course>0.0</course>
  <speed>0.0</speed>
  <fix>3d</fix>
</trkpt>
<trkpt lat="40.0713749" lon="-105.229789">
  <ele>1583.0</ele>
  <time>2026-08-28T17:56:25Z</time>
  <course>248.12</course>
  <speed>0.022360679774997897</speed>
  <fix>3d</fix>
</trkpt>
<trkpt lat="40.0713749" lon="-105.229789">
  <ele>1583.0</ele>
  <time>2026-08-28T17:56:25Z</time>
  <course>0.0</course>
  <speed>0.0</speed>
  <fix>3d</fix>
</trkpt>
<trkpt lat="40.0713749" lon="-105.229789">
  <ele>1583.0</ele>
  <time>2026-08-28T17:56:25Z</time>
  <course>248.11</course>
  <speed>0.022360679774997897</speed>
  <fix>3d</fix>
</trkpt>
<trkpt lat="40.0713749" lon="-105.229789">
  <ele>1583.0</ele>
  <time>2026-08-28T17:56:25Z</time>
  <course>0.0</course>
  <speed>0.0</speed>
  <fix>3d</fix>
</trkpt>
<trkpt lat="40.0713749" lon="-105.229789">
  <ele>1583.0</ele>
  <time>2026-08-28T17:56:25Z</time>
  <course>248.11</course>
  <speed>0.022360679774997897</speed>
  <fix>3d</fix>
</trkpt>
<trkpt lat="40.0713749" lon="-105.229789">
  <ele>1583.0</ele>
  <time>2026-08-28T17:56:25Z</time>
  <course>0.0</course>
  <speed>0.0</speed>
  <fix>3d</fix>
</trkpt>
<trkpt lat="40.0713749" lon="-105.229789">
  <ele>1583.0</ele>
  <time>2026-08-28T17:56:25Z</time>
  <course>248.1</course>
  <speed>0.022360679774997897</speed>
  <fix>3d</fix>
</trkpt>
<trkpt lat="40.0713749" lon="-105.229789">
  <ele>1583.0</ele>
  <time>2026-08-28T17:56:25Z</time>
  <course>0.0</course>
  <speed>0.0</speed>
  <fix>3d</fix>
</trkpt>
<trkpt lat="40.0713749" lon="-105.229789">
  <ele>1583.0</ele>
  <time>2026-08-28T17:56:25Z</time>
  <course>248.1</course>
  <speed>0.022360679774997897</speed>
  <fix>3d</fix>
</trkpt>
<trkpt lat="40.0713749" lon="-105.229789">
  <ele>1583.0</ele>
  <time>2026-08-28T17:56:25Z</time>
  <course>0.0</course>
  <speed>0.0</speed>
  <fix>3d</fix>
</trkpt>
<trkpt lat="40.0713749" lon="-105.229789">
  <ele>1583.0</ele>
  <time>2026-08-28T17:56:25Z</time>
  <course>248.09</course>
  <speed>0.022360679774997897</speed>
  <fix>3d</fix>
</trkpt>
<trkpt lat="40.0713749" lon="-105.229789">
  <ele>1583.0</ele>
  <time>2026-08-28T17:56:25Z</time>
  <course>0.0</course>
  <speed>0.0</speed>
  <fix>3d</fix>
</trkpt>
<trkpt lat="40.0713749" lon="-105.229789">
  <ele>1583.0</ele>
  <time>2026-08-28T17:56:25Z</time>
  <course>248.09</course>
  <speed>0.022360679774997897</speed>
  <fix>3d</fix>
</trkpt>
<trkpt lat="40.0713749" lon="-105.229789">
  <ele>1583.0</ele>
  <time>2026-08-28T17:56:25Z</time>
  <course>0.0</course>
  <speed>0.0</speed>
  <fix>3d</fix>
</trkpt>
<trkpt lat="40.0713749" lon="-105.229789">
  <ele>1583.0</ele>
  <time>2026-08-28T17:56:25Z</time>
  <course>248.08</course>
  <speed>0.022360679774997897</speed>
  <fix>3d</fix>
</trkpt>
<trkpt lat="40.0713749" lon="-105.229789">
  <ele>1583.0</ele>
  <time>2026-08-28T17:56:25Z</time>
  <course>0.0</course>
  <speed>0.0</speed>
  <fix>3d</fix>
</trkpt>
<trkpt lat="40.0713749" lon="-105.229789">
  <ele>1583.0</ele>
  <time>2026-08-28T17:56:25Z</time>
  <course>248.08</course>
  <speed>0.022360679774997897</speed>
  <fix>3d</fix>
</trkpt>
<trkpt lat="40.0713749" lon="-105.229789">
  <ele>1583.0</ele>
  <time>2026-08-28T17:56:25Z</time>
  <course>0.0</course>
  <speed>0.0</speed>
  <fix>3d</fix>
</trkpt>
<trkpt lat="40.0713749" lon="-105.229789">
  <ele>1583.0</ele>
  <time>2026-08-28T17:56:25Z</time>
  <course>248.07</course>
  <speed>0.022360679774997897</speed>
  <fix>3d</fix>
</trkpt>
<trkpt lat="40.0713749" lon="-105.229789">
  <ele>1583.0</ele>
  <time>2026-08-28T17:56:25Z</time>
  <course>0.0</course>
  <speed>0.0</speed>
  <fix>3d</fix>
</trkpt>
<trkpt lat="40.0713749" lon="-105.229789">
  <ele>1583.0</ele>
  <time>2026-08-28T17:56:25Z</time>
  <course>248.07</course>
  <speed>0.022360679774997897</speed>
  <fix>3d</fix>
</trkpt>
<trkpt lat="40.0713749" lon="-105.229789">
  <ele>1583.0</ele>
  <time>2026-08-28T17:56:25Z</time>
  <course>0.0</course>
  <speed>0.0</speed>
  <fix>3d</fix>
</trkpt>
<trkpt lat="40.0713749" lon="-105.229789">
  <ele>1583.0</ele>
  <time>2026-08-28T17:56:25Z</time>
  <course>248.06</course>
  <speed>0.022360679774997897</speed>
  <fix>3d</fix>
</trkpt>
<trkpt lat="40.0713749" lon="-105.229789">
  <ele>1583.0</ele>
  <time>2026-08-28T17:56:25Z</time>
  <course>0.0</course>
  <speed>0.0</speed>
  <fix>3d</fix>
</trkpt>
<trkpt lat="40.0713749" lon="-105.229789">
  <ele>1583.0</ele>
  <time>2026-08-28T17:56:25Z</time>
  <course>248.06</course>
  <speed>0.022360679774997897</speed>
  <fix>3d</fix>
</trkpt>
<trkpt lat="40.0713749" lon="-105.229789">
  <ele>1583.0</ele>
  <time>2026-08-28T17:56:25Z</time>
  <course>0.0</course>
  <speed>0.0</speed>
  <fix>3d</fix>
</trkpt>
<trkpt lat="40.0713749" lon="-105.229789">
  <ele>1583.0</ele>
  <time>2026-08-28T17:56:25Z</time>
  <course>248.05</course>
  <speed>0.022360679774997897</speed>
  <fix>3d</fix>
</trkpt>
<trkpt lat="40.0713749" lon="-105.229789">
  <ele>1583.0</ele>
  <time>2026-08-28T17:56:25Z</time>
  <course>0.0</course>
  <speed>0.0</speed>
  <fix>3d</fix>
</trkpt>
<trkpt lat="40.0713749" lon="-105.229789">
  <ele>1583.0</ele>
  <time>2026-08-28T17:56:25Z</time>
  <course>248.05</course>
  <speed>0.022360679774997897</speed>
  <fix>3d</fix>
</trkpt>
<trkpt lat="40.0713749" lon="-105.229789">
  <ele>1583.0</ele>
  <time>2026-08-28T17:56:25Z</time>
  <course>0.0</course>
  <speed>0.0</speed>
  <fix>3d</fix>
</trkpt>
<trkpt lat="40.0713749" lon="-105.229789">
  <ele>1583.0</ele>
  <time>2026-08-28T17:56:25Z</time>
  <course>248.04</course>
  <speed>0.022360679774997897</speed>
  <fix>3d</fix>
</trkpt>
<trkpt lat="40.0713749" lon="-105.229789">
  <ele>1583.0</ele>
  <time>2026-08-28T17:56:25Z</time>
  <course>0.0</course>
  <speed>0.0</speed>
  <fix>3d</fix>
</trkpt>
<trkpt lat="40.0713749" lon="-105.229789">
  <ele>1583.0</ele>
  <time>2026-08-28T17:56:25Z</time>
  <course>248.04</course>
  <speed>0.022360679774997897</speed>
  <fix>3d</fix>
</trkpt>
<trkpt lat="40.0713749" lon="-105.229789">
  <ele>1583.0</ele>
  <time>2026-08-28T17:56:25Z</time>
  <course>0.0</course>
  <speed>0.0</speed>
  <fix>3d</fix>
</trkpt>
<trkpt lat="40.0713749" lon="-105.229789">
  <ele>1583.0</ele>
  <time>2026-08-28T17:56:25Z</time>
  <course>248.04</course>
  <speed>0.022360679774997897</speed>
  <fix>3d</fix>
</trkpt>
<trkpt lat="40.0713749" lon="-105.229789">
  <ele>1583.0</ele>
  <time>2026-08-28T17:56:25Z</time>
  <course>0.0</course>
  <speed>0.0</speed>
  <fix>3d</fix>
</trkpt>
<trkpt lat="40.0713749" lon="-105.229789">
  <ele>1583.0</ele>
  <time>2026-08-28T17:56:25Z</time>
  <course>248.03</course>
  <speed>0.022360679774997897</speed>
  <fix>3d</fix>
</trkpt>
<trkpt lat="40.0713749" lon="-105.229789">
  <ele>1583.0</ele>
  <time>2026-08-28T17:56:25Z</time>
  <course>0.0</course>
  <speed>0.0</speed>
  <fix>3d</fix>
</trkpt>
<trkpt lat="40.0713749" lon="-105.229789">
  <ele>1583.0</ele>
  <time>2026-08-28T17:56:25Z</time>
  <course>248.03</course>
  <speed>0.022360679774997897</speed>
  <fix>3d</fix>
</trkpt>
<trkpt lat="40.0713749" lon="-105.229789">
  <ele>1583.0</ele>
  <time>2026-08-28T17:56:25Z</time>
  <course>0.0</course>
  <speed>0.0</speed>
  <fix>3d</fix>
</trkpt>
<trkpt lat="40.0713749" lon="-105.229789">
  <ele>1583.0</ele>
  <time>2026-08-28T17:56:25Z</time>
  <course>248.02</course>
  <speed>0.022360679774997897</speed>
  <fix>3d</fix>
</trkpt>
<trkpt lat="40.0713749" lon="-105.229789">
  <ele>1583.0</ele>
  <time>2026-08-28T17:56:25Z</time>
  <course>0.0</course>
  <speed>0.0</speed>
  <fix>3d</fix>
</trkpt>
<trkpt lat="40.0713749" lon="-105.229789">
  <ele>1583.0</ele>
  <time>2026-08-28T17:56:25Z</time>
  <course>248.02</course>
  <speed>0.022360679774997897</speed>
  <fix>3d</fix>
</trkpt>
<trkpt lat="40.0713749" lon="-105.229789">
  <ele>1583.0</ele>
  <time>2026-08-28T17:56:25Z</time>
  <course>0.0</course>
  <speed>0.0</speed>
  <fix>3d</fix>
</trkpt>
<trkpt lat="40.0713749" lon="-105.229789">
  <ele>1583.0</ele>
  <time>2026-08-28T17:56:25Z</time>
  <course>248.01</course>
  <speed>0.022360679774997897</speed>
  <fix>3d</fix>
</trkpt>
<trkpt lat="40.0713749" lon="-105.229789">
  <ele>1583.0</ele>
  <time>2026-08-28T17:56:25Z</time>
  <course>0.0</course>
  <speed>0.0</speed>
  <fix>3d</fix>
</trkpt>
<trkpt lat="40.0713749" lon="-105.229789">
  <ele>1583.0</ele>
  <time>2026-08-28T17:56:25Z</time>
  <course>248.01</course>
  <speed>0.022360679774997897</speed>
  <fix>3d</fix>
</trkpt>
<trkpt lat="40.0713749" lon="-105.229789">
  <ele>1583.0</ele>
  <time>2026-08-28T17:56:25Z</time>
  <course>0.0</course>
  <speed>0.0</speed>
  <fix>3d</fix>
</trkpt>
<trkpt lat="40.0713749" lon="-105.229789">
  <ele>1583.0</ele>
  <time>2026-08-28T17:56:25Z</time>
  <course>248.0</course>
  <speed>0.022360679774997897</speed>
  <fix>3d</fix>
</trkpt>
<trkpt lat="40.0713749" lon="-105.229789">
  <ele>1583.0</ele>
  <time>2026-08-28T17:56:25Z</time>
  <course>0.0</course>
  <speed>0.0</speed>
  <fix>3d</fix>
</trkpt>
<trkpt lat="40.0713749" lon="-105.229789">
  <ele>1583.0</ele>
  <time>2026-08-28T17:56:25Z</time>
  <course>248.0</course>
  <speed>0.022360679774997897</speed>
  <fix>3d</fix>
</trkpt>
<trkpt lat="40.0713749" lon="-105.229789">
  <ele>1583.0</ele>
  <time>2026-08-28T17:56:25Z</time>
  <course>0.0</course>
  <speed>0.0</speed>
  <fix>3d</fix>
</trkpt>
<trkpt lat="40.0713749" lon="-105.229789">
  <ele>1583.0</ele>
  <time>2026-08-28T17:56:25Z</time>
  <course>247.99</course>
  <speed>0.022360679774997897</speed>
  <fix>3d</fix>
</trkpt>
<trkpt lat="40.0713749" lon="-105.229789">
  <ele>1583.0</ele>
  <time>2026-08-28T17:56:25Z</time>
  <course>0.0</course>
  <speed>0.0</speed>
  <fix>3d</fix>
</trkpt>
<trkpt lat="40.0713749" lon="-105.229789">
  <ele>1583.0</ele>
  <time>2026-08-28T17:56:25Z</time>
  <course>247.99</course>
  <speed>0.022360679774997897</speed>
  <fix>3d</fix>
</trkpt>
<trkpt lat="40.0713749" lon="-105.229789">
  <ele>1583.0</ele>
  <time>2026-08-28T17:56:25Z</time>
  <course>0.0</course>
  <speed>0.0</speed>
  <fix>3d</fix>
</trkpt>
<trkpt lat="40.0713749" lon="-105.229789">
  <ele>1583.0</ele>
  <time>2026-08-28T17:56:25Z</time>
  <course>247.98</course>
  <speed>0.022360679774997897</speed>
  <fix>3d</fix>
</trkpt>
<trkpt lat="40.0713749" lon="-105.229789">
  <ele>1583.0</ele>
  <time>2026-08-28T17:56:25Z</time>
  <course>0.0</course>
  <speed>0.0</speed>
  <fix>3d</fix>
</trkpt>
<trkpt lat="40.0713749" lon="-105.229789">
  <ele>1583.0</ele>
  <time>2026-08-28T17:56:25Z</time>
  <course>247.98</course>
  <speed>0.022360679774997897</speed>
  <fix>3d</fix>
</trkpt>
<trkpt lat="40.0713749" lon="-105.229789">
  <ele>1583.0</ele>
  <time>2026-08-28T17:56:25Z</time>
  <course>0.0</course>
  <speed>0.0</speed>
  <fix>3d</fix>
</trkpt>
<trkpt lat="40.0713749" lon="-105.229789">
  <ele>1583.0</ele>
  <time>2026-08-28T17:56:25Z</time>
  <course>247.98</course>
  <speed>0.022360679774997897</speed>
  <fix>3d</fix>
</trkpt>
<trkpt lat="40.0713749" lon="-105.229789">
  <ele>1583.0</ele>
  <time>2026-08-28T17:56:25Z</time>
  <course>0.0</course>
  <speed>0.0</speed>
  <fix>3d</fix>
</trkpt>
<trkpt lat="40.0713749" lon="-105.229789">
  <ele>1583.0</ele>
  <time>2026-08-28T17:56:25Z</time>
  <course>247.97</course>
  <speed>0.022360679774997897</speed>
  <fix>3d</fix>
</trkpt>
<trkpt lat="40.0713749" lon="-105.229789">
  <ele>1583.0</ele>
  <time>2026-08-28T17:56:25Z</time>
  <course>0.0</course>
  <speed>0.0</speed>
  <fix>3d</fix>
</trkpt>
<trkpt lat="40.0713749" lon="-105.229789">
  <ele>1583.0</ele>
  <time>2026-08-28T17:56:25Z</time>
  <course>247.97</course>
  <speed>0.022360679774997897</speed>
  <fix>3d</fix>
</trkpt>
<trkpt lat="40.0713749" lon="-105.229789">
  <ele>1583.0</ele>
  <time>2026-08-28T17:56:25Z</time>
  <course>0.0</course>
  <speed>0.0</speed>
  <fix>3d</fix>
</trkpt>
<trkpt lat="40.0713749" lon="-105.229789">
  <ele>1583.0</ele>
  <time>2026-08-28T17:56:25Z</time>
  <course>247.96</course>
  <speed>0.022360679774997897</speed>
  <fix>3d</fix>
</trkpt>
<trkpt lat="40.0713749" lon="-105.229789">
  <ele>1583.0</ele>
  <time>2026-08-28T17:56:25Z</time>
  <course>0.0</course>
  <speed>0.0</speed>
  <fix>3d</fix>
</trkpt>
<trkpt lat="40.0713749" lon="-105.229789">
  <ele>1583.0</ele>
  <time>2026-08-28T17:56:25Z</time>
  <course>247.96</course>
  <speed>0.022360679774997897</speed>
  <fix>3d</fix>
</trkpt>
<trkpt lat="40.0713749" lon="-105.229789">
  <ele>1583.0</ele>
  <time>2026-08-28T17:56:25Z</time>
  <course>0.0</course>
  <speed>0.0</speed>
  <fix>3d</fix>
</trkpt>
<trkpt lat="40.0713749" lon="-105.229789">
  <ele>1583.0</ele>
  <time>2026-08-28T17:56:25Z</time>
  <course>247.95</course>
  <speed>0.022360679774997897</speed>
  <fix>3d</fix>
</trkpt>
<trkpt lat="40.0713749" lon="-105.229789">
  <ele>1583.0</ele>
  <time>2026-08-28T17:56:25Z</time>
  <course>0.0</course>
  <speed>0.0</speed>
  <fix>3d</fix>
</trkpt>
<trkpt lat="40.0713749" lon="-105.229789">
  <ele>1583.0</ele>
  <time>2026-08-28T17:56:25Z</time>
  <course>247.95</course>
  <speed>0.022360679774997897</speed>
  <fix>3d</fix>
</trkpt>
<trkpt lat="40.0713749" lon="-105.229789">
  <ele>1583.0</ele>
  <time>2026-08-28T17:56:25Z</time>
  <course>0.0</course>
  <speed>0.0</speed>
  <fix>3d</fix>
</trkpt>
<trkpt lat="40.0713749" lon="-105.229789">
  <ele>1583.0</ele>
  <time>2026-08-28T17:56:25Z</time>
  <course>247.95</course>
  <speed>0.022360679774997897</speed>
  <fix>3d</fix>
</trkpt>
<trkpt lat="40.0713749" lon="-105.229789">
  <ele>1583.0</ele>
  <time>2026-08-28T17:56:25Z</time>
  <course>0.0</course>
  <speed>0.0</speed>
  <fix>3d</fix>
</trkpt>
<trkpt lat="40.0713749" lon="-105.229789">
  <ele>1583.0</ele>
  <time>2026-08-28T17:56:25Z</time>
  <course>247.94</course>
  <speed>0.022360679774997897</speed>
  <fix>3d</fix>
</trkpt>
<trkpt lat="40.0713749" lon="-105.229789">
  <ele>1583.0</ele>
  <time>2026-08-28T17:56:25Z</time>
  <course>0.0</course>
  <speed>0.0</speed>
  <fix>3d</fix>
</trkpt>
<trkpt lat="40.0713749" lon="-105.229789">
  <ele>1583.0</ele>
  <time>2026-08-28T17:56:25Z</time>
  <course>247.94</course>
  <speed>0.022360679774997897</speed>
  <fix>3d</fix>
</trkpt>
<trkpt lat="40.0713749" lon="-105.229789">
  <ele>1583.0</ele>
  <time>2026-08-28T17:56:25Z</time>
  <course>0.0</course>
  <speed>0.0</speed>
  <fix>3d</fix>
</trkpt>
<trkpt lat="40.0713749" lon="-105.229789">
  <ele>1583.0</ele>
  <time>2026-08-28T17:56:25Z</time>
  <course>247.93</course>
  <speed>0.022360679774997897</speed>
  <fix>3d</fix>
</trkpt>
<trkpt lat="40.0713749" lon="-105.229789">
  <ele>1583.0</ele>
  <time>2026-08-28T17:56:25Z</time>
  <course>0.0</course>
  <speed>0.0</speed>
  <fix>3d</fix>
</trkpt>
<trkpt lat="40.0713749" lon="-105.229789">
  <ele>1583.0</ele>
  <time>2026-08-28T17:56:25Z</time>
  <course>247.93</course>
  <speed>0.022360679774997897</speed>
  <fix>3d</fix>
</trkpt>
<trkpt lat="40.0713749" lon="-105.229789">
  <ele>1583.0</ele>
  <time>2026-08-28T17:56:25Z</time>
  <course>0.0</course>
  <speed>0.0</speed>
  <fix>3d</fix>
</trkpt>
<trkpt lat="40.0713749" lon="-105.229789">
  <ele>1583.0</ele>
  <time>2026-08-28T17:56:25Z</time>
  <course>247.92</course>
  <speed>0.022360679774997897</speed>
  <fix>3d</fix>
</trkpt>
<trkpt lat="40.0713749" lon="-105.229789">
  <ele>1583.0</ele>
  <time>2026-08-28T17:56:25Z</time>
  <course>0.0</course>
  <speed>0.0</speed>
  <fix>3d</fix>
</trkpt>
<trkpt lat="40.0713749" lon="-105.229789">
  <ele>1583.0</ele>
  <time>2026-08-28T17:56:25Z</time>
  <course>247.92</course>
  <speed>0.022360679774997897</speed>
  <fix>3d</fix>
</trkpt>
<trkpt lat="40.0713749" lon="-105.229789">
  <ele>1583.0</ele>
  <time>2026-08-28T17:56:25Z</time>
  <course>0.0</course>
  <speed>0.0</speed>
  <fix>3d</fix>
</trkpt>
<trkpt lat="40.0713749" lon="-105.229789">
  <ele>1583.0</ele>
  <time>2026-08-28T17:56:25Z</time>
  <course>247.92</course>
  <speed>0.022360679774997897</speed>
  <fix>3d</fix>
</trkpt>
<trkpt lat="40.0713749" lon="-105.229789">
  <ele>1583.0</ele>
  <time>2026-08-28T17:56:25Z</time>
  <course>0.0</course>
  <speed>0.0</speed>
  <fix>3d</fix>
</trkpt>
<trkpt lat="40.0713749" lon="-105.229789">
  <ele>1583.0</ele>
  <time>2026-08-28T17:56:25Z</time>
  <course>247.91</course>
  <speed>0.022360679774997897</speed>
  <fix>3d</fix>
</trkpt>
<trkpt lat="40.0713749" lon="-105.229789">
  <ele>1583.0</ele>
  <time>2026-08-28T17:56:25Z</time>
  <course>0.0</course>
  <speed>0.0</speed>
  <fix>3d</fix>
</trkpt>
<trkpt lat="40.0713749" lon="-105.229789">
  <ele>1583.0</ele>
  <time>2026-08-28T17:56:25Z</time>
  <course>247.91</course>
  <speed>0.022360679774997897</speed>
  <fix>3d</fix>
</trkpt>
<trkpt lat="40.0713749" lon="-105.229789">
  <ele>1583.0</ele>
  <time>2026-08-28T17:56:25Z</time>
  <course>0.0</course>
  <speed>0.0</speed>
  <fix>3d</fix>
</trkpt>
<trkpt lat="40.0713749" lon="-105.229789">
  <ele>1583.0</ele>
  <time>2026-08-28T17:56:25Z</time>
  <course>247.9</course>
  <speed>0.022360679774997897</speed>
  <fix>3d</fix>
</trkpt>
<trkpt lat="40.0713749" lon="-105.229789">
  <ele>1583.0</ele>
  <time>2026-08-28T17:56:25Z</time>
  <course>0.0</course>
  <speed>0.0</speed>
  <fix>3d</fix>
</trkpt>
<trkpt lat="40.0713749" lon="-105.229789">
  <ele>1583.0</ele>
  <time>2026-08-28T17:56:25Z</time>
  <course>247.9</course>
  <speed>0.022360679774997897</speed>
  <fix>3d</fix>
</trkpt>
<trkpt lat="40.0713749" lon="-105.229789">
  <ele>1583.0</ele>
  <time>2026-08-28T17:56:25Z</time>
  <course>0.0</course>
  <speed>0.0</speed>
  <fix>3d</fix>
</trkpt>
<trkpt lat="40.0713749" lon="-105.229789">
  <ele>1583.0</ele>
  <time>2026-08-28T17:56:25Z</time>
  <course>247.89</course>
  <speed>0.022360679774997897</speed>
  <fix>3d</fix>
</trkpt>
<trkpt lat="40.0713749" lon="-105.229789">
  <ele>1583.0</ele>
  <time>2026-08-28T17:56:25Z</time>
  <course>0.0</course>
  <speed>0.0</speed>
  <fix>3d</fix>
</trkpt>
<trkpt lat="40.0713749" lon="-105.229789">
  <ele>1583.0</ele>
  <time>2026-08-28T17:56:25Z</time>
  <course>247.89</course>
  <speed>0.022360679774997897</speed>
  <fix>3d</fix>
</trkpt>
<trkpt lat="40.0713749" lon="-105.229789">
  <ele>1583.0</ele>
  <time>2026-08-28T17:56:25Z</time>
  <course>0.0</course>
  <speed>0.0</speed>
  <fix>3d</fix>
</trkpt>
<trkpt lat="40.0713749" lon="-105.229789">
  <ele>1583.0</ele>
  <time>2026-08-28T17:56:25Z</time>
  <course>247.89</course>
  <speed>0.022360679774997897</speed>
  <fix>3d</fix>
</trkpt>
<trkpt lat="40.0713749" lon="-105.229789">
  <ele>1583.0</ele>
  <time>2026-08-28T17:56:25Z</time>
  <course>0.0</course>
  <speed>0.0</speed>
  <fix>3d</fix>
</trkpt>
<trkpt lat="40.0713749" lon="-105.229789">
  <ele>1583.0</ele>
  <time>2026-08-28T17:56:25Z</time>
  <course>247.88</course>
  <speed>0.022360679774997897</speed>
  <fix>3d</fix>
</trkpt>
<trkpt lat="40.0713749" lon="-105.229789">
  <ele>1583.0</ele>
  <time>2026-08-28T17:56:25Z</time>
  <course>0.0</course>
  <speed>0.0</speed>
  <fix>3d</fix>
</trkpt>
<trkpt lat="40.0713749" lon="-105.229789">
  <ele>1583.0</ele>
  <time>2026-08-28T17:56:25Z</time>
  <course>247.88</course>
  <speed>0.0316227766016838</speed>
  <fix>3d</fix>
</trkpt>
<trkpt lat="40.0713749" lon="-105.229789">
  <ele>1583.0</ele>
  <time>2026-08-28T17:56:25Z</time>
  <course>0.0</course>
  <speed>0.0</speed>
  <fix>3d</fix>
</trkpt>
<trkpt lat="40.0713749" lon="-105.229789">
  <ele>1583.0</ele>
  <time>2026-08-28T17:56:25Z</time>
  <course>247.87</course>
  <speed>0.0316227766016838</speed>
  <fix>3d</fix>
</trkpt>
<trkpt lat="40.0713749" lon="-105.229789">
  <ele>1583.0</ele>
  <time>2026-08-28T17:56:25Z</time>
  <course>0.0</course>
  <speed>0.0</speed>
  <fix>3d</fix>
</trkpt>
<trkpt lat="40.0713749" lon="-105.229789">
  <ele>1583.0</ele>
  <time>2026-08-28T17:56:25Z</time>
  <course>247.87</course>
  <speed>0.0316227766016838</speed>
  <fix>3d</fix>
</trkpt>
<trkpt lat="40.0713749" lon="-105.229789">
  <ele>1583.0</ele>
  <time>2026-08-28T17:56:25Z</time>
  <course>0.0</course>
  <speed>0.0</speed>
  <fix>3d</fix>
</trkpt>
<trkpt lat="40.0713749" lon="-105.229789">
  <ele>1583.0</ele>
  <time>2026-08-28T17:56:25Z</time>
  <course>247.87</course>
  <speed>0.0316227766016838</speed>
  <fix>3d</fix>
</trkpt>
<trkpt lat="40.0713749" lon="-105.229789">
  <ele>1583.0</ele>
  <time>2026-08-28T17:56:25Z</time>
  <course>0.0</course>
  <speed>0.0</speed>
  <fix>3d</fix>
</trkpt>
<trkpt lat="40.0713749" lon="-105.229789">
  <ele>1583.0</ele>
  <time>2026-08-28T17:56:25Z</time>
  <course>247.86</course>
  <speed>0.0316227766016838</speed>
  <fix>3d</fix>
</trkpt>
<trkpt lat="40.0713749" lon="-105.229789">
  <ele>1583.0</ele>
  <time>2026-08-28T17:56:25Z</time>
  <course>0.0</course>
  <speed>0.0</speed>
  <fix>3d</fix>
</trkpt>
<trkpt lat="40.0713749" lon="-105.229789">
  <ele>1583.0</ele>
  <time>2026-08-28T17:56:25Z</time>
  <course>247.86</course>
  <speed>0.0316227766016838</speed>
  <fix>3d</fix>
</trkpt>
<trkpt lat="40.0713749" lon="-105.229789">
  <ele>1583.0</ele>
  <time>2026-08-28T17:56:25Z</time>
  <course>0.0</course>
  <speed>0.0</speed>
  <fix>3d</fix>
</trkpt>
<trkpt lat="40.0713749" lon="-105.229789">
  <ele>1583.0</ele>
  <time>2026-08-28T17:56:25Z</time>
  <course>247.85</course>
  <speed>0.0316227766016838</speed>
  <fix>3d</fix>
</trkpt>
<trkpt lat="40.0713749" lon="-105.229789">
  <ele>1583.0</ele>
  <time>2026-08-28T17:56:25Z</time>
  <course>0.0</course>
  <speed>0.0</speed>
  <fix>3d</fix>
</trkpt>
<trkpt lat="40.0713749" lon="-105.229789">
  <ele>1583.0</ele>
  <time>2026-08-28T17:56:25Z</time>
  <course>247.85</course>
  <speed>0.0316227766016838</speed>
  <fix>3d</fix>
</trkpt>
<trkpt lat="40.0713749" lon="-105.229789">
  <ele>1583.0</ele>
  <time>2026-08-28T17:56:25Z</time>
  <course>0.0</course>
  <speed>0.0</speed>
  <fix>3d</fix>
</trkpt>
<trkpt lat="40.0713749" lon="-105.229789">
  <ele>1583.0</ele>
  <time>2026-08-28T17:56:25Z</time>
  <course>247.85</course>
  <speed>0.0316227766016838</speed>
  <fix>3d</fix>
</trkpt>
<trkpt lat="40.0713749" lon="-105.229789">
  <ele>1583.0</ele>
  <time>2026-08-28T17:56:25Z</time>
  <course>0.0</course>
  <speed>0.0</speed>
  <fix>3d</fix>
</trkpt>
<trkpt lat="40.0713749" lon="-105.229789">
  <ele>1583.0</ele>
  <time>2026-08-28T17:56:25Z</time>
  <course>247.84</course>
  <speed>0.0316227766016838</speed>
  <fix>3d</fix>
</trkpt>
<trkpt lat="40.0713749" lon="-105.229789">
  <ele>1583.0</ele>
  <time>2026-08-28T17:56:25Z</time>
  <course>0.0</course>
  <speed>0.0</speed>
  <fix>3d</fix>
</trkpt>
<trkpt lat="40.0713749" lon="-105.229789">
  <ele>1583.0</ele>
  <time>2026-08-28T17:56:25Z</time>
  <course>247.84</course>
  <speed>0.0316227766016838</speed>
  <fix>3d</fix>
</trkpt>
<trkpt lat="40.0713749" lon="-105.229789">
  <ele>1583.0</ele>
  <time>2026-08-28T17:56:25Z</time>
  <course>0.0</course>
  <speed>0.0</speed>
  <fix>3d</fix>
</trkpt>
<trkpt lat="40.0713749" lon="-105.229789">
  <ele>1583.0</ele>
  <time>2026-08-28T17:56:25Z</time>
  <course>247.83</course>
  <speed>0.0316227766016838</speed>
  <fix>3d</fix>
</trkpt>
<trkpt lat="40.0713749" lon="-105.229789">
  <ele>1583.0</ele>
  <time>2026-08-28T17:56:25Z</time>
  <course>0.0</course>
  <speed>0.0</speed>
  <fix>3d</fix>
</trkpt>
<trkpt lat="40.0713749" lon="-105.229789">
  <ele>1583.0</ele>
  <time>2026-08-28T17:56:25Z</time>
  <course>247.83</course>
  <speed>0.0316227766016838</speed>
  <fix>3d</fix>
</trkpt>
<trkpt lat="40.0713749" lon="-105.229789">
  <ele>1583.0</ele>
  <time>2026-08-28T17:56:25Z</time>
  <course>0.0</course>
  <speed>0.0</speed>
  <fix>3d</fix>
</trkpt>
<trkpt lat="40.0713749" lon="-105.229789">
  <ele>1583.0</ele>
  <time>2026-08-28T17:56:25Z</time>
  <course>247.83</course>
  <speed>0.0316227766016838</speed>
  <fix>3d</fix>
</trkpt>
<trkpt lat="40.0713749" lon="-105.229789">
  <ele>1583.0</ele>
  <time>2026-08-28T17:56:25Z</time>
  <course>0.0</course>
  <speed>0.0</speed>
  <fix>3d</fix>
</trkpt>
<trkpt lat="40.0713749" lon="-105.229789">
  <ele>1583.0</ele>
  <time>2026-08-28T17:56:25Z</time>
  <course>247.82</course>
  <speed>0.0316227766016838</speed>
  <fix>3d</fix>
</trkpt>
<trkpt lat="40.0713749" lon="-105.229789">
  <ele>1583.0</ele>
  <time>2026-08-28T17:56:25Z</time>
  <course>0.0</course>
  <speed>0.0</speed>
  <fix>3d</fix>
</trkpt>
<trkpt lat="40.0713749" lon="-105.229789">
  <ele>1583.0</ele>
  <time>2026-08-28T17:56:25Z</time>
  <course>247.82</course>
  <speed>0.0316227766016838</speed>
  <fix>3d</fix>
</trkpt>
<trkpt lat="40.0713749" lon="-105.229789">
  <ele>1583.0</ele>
  <time>2026-08-28T17:56:25Z</time>
  <course>0.0</course>
  <speed>0.0</speed>
  <fix>3d</fix>
</trkpt>
<trkpt lat="40.0713749" lon="-105.229789">
  <ele>1583.0</ele>
  <time>2026-08-28T17:56:25Z</time>
  <course>247.81</course>
  <speed>0.0316227766016838</speed>
  <fix>3d</fix>
</trkpt>
<trkpt lat="40.0713749" lon="-105.229789">
  <ele>1583.0</ele>
  <time>2026-08-28T17:56:25Z</time>
  <course>0.0</course>
  <speed>0.0</speed>
  <fix>3d</fix>
</trkpt>
<trkpt lat="40.0713749" lon="-105.229789">
  <ele>1583.0</ele>
  <time>2026-08-28T17:56:25Z</time>
  <course>247.81</course>
  <speed>0.0316227766016838</speed>
  <fix>3d</fix>
</trkpt>
<trkpt lat="40.0713749" lon="-105.229789">
  <ele>1583.0</ele>
  <time>2026-08-28T17:56:25Z</time>
  <course>0.0</course>
  <speed>0.0</speed>
  <fix>3d</fix>
</trkpt>
<trkpt lat="40.0713749" lon="-105.229789">
  <ele>1583.0</ele>
  <time>2026-08-28T17:56:25Z</time>
  <course>247.81</course>
  <speed>0.0316227766016838</speed>
  <fix>3d</fix>
</trkpt>
<trkpt lat="40.0713749" lon="-105.229789">
  <ele>1583.0</ele>
  <time>2026-08-28T17:56:25Z</time>
  <course>0.0</course>
  <speed>0.0</speed>
  <fix>3d</fix>
</trkpt>
<trkpt lat="40.0713749" lon="-105.229789">
  <ele>1583.0</ele>
  <time>2026-08-28T17:56:25Z</time>
  <course>247.8</course>
  <speed>0.0316227766016838</speed>
  <fix>3d</fix>
</trkpt>
<trkpt lat="40.0713749" lon="-105.229789">
  <ele>1583.0</ele>
  <time>2026-08-28T17:56:25Z</time>
  <course>0.0</course>
  <speed>0.0</speed>
  <fix>3d</fix>
</trkpt>
<trkpt lat="40.0713749" lon="-105.229789">
  <ele>1583.0</ele>
  <time>2026-08-28T17:56:25Z</time>
  <course>247.8</course>
  <speed>0.0316227766016838</speed>
  <fix>3d</fix>
</trkpt>
<trkpt lat="40.0713749" lon="-105.229789">
  <ele>1583.0</ele>
  <time>2026-08-28T17:56:25Z</time>
  <course>0.0</course>
  <speed>0.0</speed>
  <fix>3d</fix>
</trkpt>
<trkpt lat="40.0713749" lon="-105.229789">
  <ele>1583.0</ele>
  <time>2026-08-28T17:56:25Z</time>
  <course>247.8</course>
  <speed>0.0316227766016838</speed>
  <fix>3d</fix>
</trkpt>
<trkpt lat="40.0713749" lon="-105.229789">
  <ele>1583.0</ele>
  <time>2026-08-28T17:56:25Z</time>
  <course>0.0</course>
  <speed>0.0</speed>
  <fix>3d</fix>
</trkpt>
<trkpt lat="40.0713749" lon="-105.229789">
  <ele>1583.0</ele>
  <time>2026-08-28T17:56:25Z</time>
  <course>247.79</course>
  <speed>0.0316227766016838</speed>
  <fix>3d</fix>
</trkpt>
<trkpt lat="40.0713749" lon="-105.229789">
  <ele>1583.0</ele>
  <time>2026-08-28T17:56:25Z</time>
  <course>0.0</course>
  <speed>0.0</speed>
  <fix>3d</fix>
</trkpt>
<trkpt lat="40.0713749" lon="-105.229789">
  <ele>1583.0</ele>
  <time>2026-08-28T17:56:25Z</time>
  <course>247.79</course>
  <speed>0.0316227766016838</speed>
  <fix>3d</fix>
</trkpt>
<trkpt lat="40.0713749" lon="-105.229789">
  <ele>1583.0</ele>
  <time>2026-08-28T17:56:25Z</time>
  <course>0.0</course>
  <speed>0.0</speed>
  <fix>3d</fix>
</trkpt>
<trkpt lat="40.0713749" lon="-105.229789">
  <ele>1583.0</ele>
  <time>2026-08-28T17:56:25Z</time>
  <course>247.78</course>
  <speed>0.0316227766016838</speed>
  <fix>3d</fix>
</trkpt>
<trkpt lat="40.0713749" lon="-105.229789">
  <ele>1583.0</ele>
  <time>2026-08-28T17:56:25Z</time>
  <course>0.0</course>
  <speed>0.0</speed>
  <fix>3d</fix>
</trkpt>
<trkpt lat="40.0713749" lon="-105.229789">
  <ele>1583.0</ele>
  <time>2026-08-28T17:56:25Z</time>
  <course>247.78</course>
  <speed>0.0316227766016838</speed>
  <fix>3d</fix>
</trkpt>
<trkpt lat="40.0713749" lon="-105.229789">
  <ele>1583.0</ele>
  <time>2026-08-28T17:56:25Z</time>
  <course>0.0</course>
  <speed>0.0</speed>
  <fix>3d</fix>
</trkpt>
<trkpt lat="40.0713749" lon="-105.229789">
  <ele>1583.0</ele>
  <time>2026-08-28T17:56:25Z</time>
  <course>247.78</course>
  <speed>0.0316227766016838</speed>
  <fix>3d</fix>
</trkpt>
<trkpt lat="40.0713749" lon="-105.229789">
  <ele>1583.0</ele>
  <time>2026-08-28T17:56:25Z</time>
  <course>0.0</course>
  <speed>0.0</speed>
  <fix>3d</fix>
</trkpt>
<trkpt lat="40.0713749" lon="-105.229789">
  <ele>1583.0</ele>
  <time>2026-08-28T17:56:25Z</time>
  <course>247.77</course>
  <speed>0.0316227766016838</speed>
  <fix>3d</fix>
</trkpt>
<trkpt lat="40.0713749" lon="-105.229789">
  <ele>1583.0</ele>
  <time>2026-08-28T17:56:25Z</time>
  <course>0.0</course>
  <speed>0.0</speed>
  <fix>3d</fix>
</trkpt>
<trkpt lat="40.0713749" lon="-105.229789">
  <ele>1583.0</ele>
  <time>2026-08-28T17:56:25Z</time>
  <course>247.77</course>
  <speed>0.0316227766016838</speed>
  <fix>3d</fix>
</trkpt>
<trkpt lat="40.0713749" lon="-105.229789">
  <ele>1583.0</ele>
  <time>2026-08-28T17:56:25Z</time>
  <course>0.0</course>
  <speed>0.0</speed>
  <fix>3d</fix>
</trkpt>
<trkpt lat="40.0713749" lon="-105.229789">
  <ele>1583.0</ele>
  <time>2026-08-28T17:56:25Z</time>
  <course>247.77</course>
  <speed>0.0316227766016838</speed>
  <fix>3d</fix>
</trkpt>
<trkpt lat="40.0713749" lon="-105.229789">
  <ele>1583.0</ele>
  <time>2026-08-28T17:56:25Z</time>
  <course>0.0</course>
  <speed>0.0</speed>
  <fix>3d</fix>
</trkpt>
<trkpt lat="40.0713749" lon="-105.229789">
  <ele>1583.0</ele>
  <time>2026-08-28T17:56:25Z</time>
  <course>247.76</course>
  <speed>0.0316227766016838</speed>
  <fix>3d</fix>
</trkpt>
<trkpt lat="40.0713749" lon="-105.229789">
  <ele>1583.0</ele>
  <time>2026-08-28T17:56:25Z</time>
  <course>0.0</course>
  <speed>0.0</speed>
  <fix>3d</fix>
</trkpt>
<trkpt lat="40.0713749" lon="-105.229789">
  <ele>1583.0</ele>
  <time>2026-08-28T17:56:25Z</time>
  <course>247.76</course>
  <speed>0.0316227766016838</speed>
  <fix>3d</fix>
</trkpt>
<trkpt lat="40.0713749" lon="-105.229789">
  <ele>1583.0</ele>
  <time>2026-08-28T17:56:25Z</time>
  <course>0.0</course>
  <speed>0.0</speed>
  <fix>3d</fix>
</trkpt>
<trkpt lat="40.0713749" lon="-105.229789">
  <ele>1583.0</ele>
  <time>2026-08-28T17:56:25Z</time>
  <course>247.75</course>
  <speed>0.0316227766016838</speed>
  <fix>3d</fix>
</trkpt>
<trkpt lat="40.0713749" lon="-105.229789">
  <ele>1583.0</ele>
  <time>2026-08-28T17:56:25Z</time>
  <course>0.0</course>
  <speed>0.0</speed>
  <fix>3d</fix>
</trkpt>
<trkpt lat="40.0713749" lon="-105.229789">
  <ele>1583.0</ele>
  <time>2026-08-28T17:56:25Z</time>
  <course>247.75</course>
  <speed>0.0316227766016838</speed>
  <fix>3d</fix>
</trkpt>
<trkpt lat="40.0713749" lon="-105.229789">
  <ele>1583.0</ele>
  <time>2026-08-28T17:56:25Z</time>
  <course>0.0</course>
  <speed>0.0</speed>
  <fix>3d</fix>
</trkpt>
<trkpt lat="40.0713749" lon="-105.229789">
  <ele>1583.0</ele>
  <time>2026-08-28T17:56:25Z</time>
  <course>247.75</course>
  <speed>0.0316227766016838</speed>
  <fix>3d</fix>
</trkpt>
<trkpt lat="40.0713749" lon="-105.229789">
  <ele>1583.0</ele>
  <time>2026-08-28T17:56:25Z</time>
  <course>0.0</course>
  <speed>0.0</speed>
  <fix>3d</fix>
</trkpt>
<trkpt lat="40.0713749" lon="-105.229789">
  <ele>1583.0</ele>
  <time>2026-08-28T17:56:25Z</time>
  <course>247.74</course>
  <speed>0.0316227766016838</speed>
  <fix>3d</fix>
</trkpt>
<trkpt lat="40.0713749" lon="-105.229789">
  <ele>1583.0</ele>
  <time>2026-08-28T17:56:25Z</time>
  <course>0.0</course>
  <speed>0.0</speed>
  <fix>3d</fix>
</trkpt>
<trkpt lat="40.0713749" lon="-105.229789">
  <ele>1583.0</ele>
  <time>2026-08-28T17:56:25Z</time>
  <course>247.74</course>
  <speed>0.0316227766016838</speed>
  <fix>3d</fix>
</trkpt>
<trkpt lat="40.0713749" lon="-105.229789">
  <ele>1583.0</ele>
  <time>2026-08-28T17:56:25Z</time>
  <course>0.0</course>
  <speed>0.0</speed>
  <fix>3d</fix>
</trkpt>
<trkpt lat="40.0713749" lon="-105.229789">
  <ele>1583.0</ele>
  <time>2026-08-28T17:56:25Z</time>
  <course>247.74</course>
  <speed>0.0316227766016838</speed>
  <fix>3d</fix>
</trkpt>
<trkpt lat="40.0713749" lon="-105.229789">
  <ele>1583.0</ele>
  <time>2026-08-28T17:56:25Z</time>
  <course>0.0</course>
  <speed>0.0</speed>
  <fix>3d</fix>
</trkpt>
<trkpt lat="40.0713749" lon="-105.229789">
  <ele>1583.0</ele>
  <time>2026-08-28T17:56:25Z</time>
  <course>247.73</course>
  <speed>0.0316227766016838</speed>
  <fix>3d</fix>
</trkpt>
<trkpt lat="40.0713749" lon="-105.229789">
  <ele>1583.0</ele>
  <time>2026-08-28T17:56:25Z</time>
  <course>0.0</course>
  <speed>0.0</speed>
  <fix>3d</fix>
</trkpt>
<trkpt lat="40.0713749" lon="-105.229789">
  <ele>1583.0</ele>
  <time>2026-08-28T17:56:25Z</time>
  <course>247.73</course>
  <speed>0.0316227766016838</speed>
  <fix>3d</fix>
</trkpt>
<trkpt lat="40.0713749" lon="-105.229789">
  <ele>1583.0</ele>
  <time>2026-08-28T17:56:25Z</time>
  <course>0.0</course>
  <speed>0.0</speed>
  <fix>3d</fix>
</trkpt>
<trkpt lat="40.0713749" lon="-105.229789">
  <ele>1583.0</ele>
  <time>2026-08-28T17:56:25Z</time>
  <course>247.73</course>
  <speed>0.0316227766016838</speed>
  <fix>3d</fix>
</trkpt>
<trkpt lat="40.0713749" lon="-105.229789">
  <ele>1583.0</ele>
  <time>2026-08-28T17:56:25Z</time>
  <course>0.0</course>
  <speed>0.0</speed>
  <fix>3d</fix>
</trkpt>
<trkpt lat="40.0713749" lon="-105.229789">
  <ele>1583.0</ele>
  <time>2026-08-28T17:56:25Z</time>
  <course>247.72</course>
  <speed>0.0316227766016838</speed>
  <fix>3d</fix>
</trkpt>
<trkpt lat="40.0713749" lon="-105.229789">
  <ele>1583.0</ele>
  <time>2026-08-28T17:56:25Z</time>
  <course>0.0</course>
  <speed>0.0</speed>
  <fix>3d</fix>
</trkpt>
<trkpt lat="40.0713749" lon="-105.229789">
  <ele>1583.0</ele>
  <time>2026-08-28T17:56:25Z</time>
  <course>247.72</course>
  <speed>0.0316227766016838</speed>
  <fix>3d</fix>
</trkpt>
<trkpt lat="40.0713749" lon="-105.229789">
  <ele>1583.0</ele>
  <time>2026-08-28T17:56:25Z</time>
  <course>0.0</course>
  <speed>0.0</speed>
  <fix>3d</fix>
</trkpt>
<trkpt lat="40.0713749" lon="-105.229789">
  <ele>1583.0</ele>
  <time>2026-08-28T17:56:25Z</time>
  <course>247.72</course>
  <speed>0.0316227766016838</speed>
  <fix>3d</fix>
</trkpt>
<trkpt lat="40.0713749" lon="-105.229789">
  <ele>1583.0</ele>
  <time>2026-08-28T17:56:25Z</time>
  <course>0.0</course>
  <speed>0.0</speed>
  <fix>3d</fix>
</trkpt>
<trkpt lat="40.0713749" lon="-105.229789">
  <ele>1583.0</ele>
  <time>2026-08-28T17:56:25Z</time>
  <course>247.71</course>
  <speed>0.0316227766016838</speed>
  <fix>3d</fix>
</trkpt>
<trkpt lat="40.0713749" lon="-105.229789">
  <ele>1583.0</ele>
  <time>2026-08-28T17:56:25Z</time>
  <course>0.0</course>
  <speed>0.0</speed>
  <fix>3d</fix>
</trkpt>
<trkpt lat="40.0713749" lon="-105.229789">
  <ele>1583.0</ele>
  <time>2026-08-28T17:56:25Z</time>
  <course>247.71</course>
  <speed>0.0316227766016838</speed>
  <fix>3d</fix>
</trkpt>
<trkpt lat="40.0713749" lon="-105.229789">
  <ele>1583.0</ele>
  <time>2026-08-28T17:56:25Z</time>
  <course>0.0</course>
  <speed>0.0</speed>
  <fix>3d</fix>
</trkpt>
<trkpt lat="40.0713749" lon="-105.229789">
  <ele>1583.0</ele>
  <time>2026-08-28T17:56:25Z</time>
  <course>247.71</course>
  <speed>0.0316227766016838</speed>
  <fix>3d</fix>
</trkpt>
<trkpt lat="40.0713749" lon="-105.229789">
  <ele>1583.0</ele>
  <time>2026-08-28T17:56:25Z</time>
  <course>0.0</course>
  <speed>0.0</speed>
  <fix>3d</fix>
</trkpt>
<trkpt lat="40.0713749" lon="-105.229789">
  <ele>1583.0</ele>
  <time>2026-08-28T17:56:25Z</time>
  <course>247.7</course>
  <speed>0.0316227766016838</speed>
  <fix>3d</fix>
</trkpt>
<trkpt lat="40.0713749" lon="-105.229789">
  <ele>1583.0</ele>
  <time>2026-08-28T17:56:25Z</time>
  <course>0.0</course>
  <speed>0.0</speed>
  <fix>3d</fix>
</trkpt>
<trkpt lat="40.0713749" lon="-105.229789">
  <ele>1583.0</ele>
  <time>2026-08-28T17:56:25Z</time>
  <course>247.7</course>
  <speed>0.0316227766016838</speed>
  <fix>3d</fix>
</trkpt>
<trkpt lat="40.0713749" lon="-105.229789">
  <ele>1583.0</ele>
  <time>2026-08-28T17:56:25Z</time>
  <course>0.0</course>
  <speed>0.0</speed>
  <fix>3d</fix>
</trkpt>
<trkpt lat="40.0713749" lon="-105.229789">
  <ele>1583.0</ele>
  <time>2026-08-28T17:56:25Z</time>
  <course>247.7</course>
  <speed>0.0316227766016838</speed>
  <fix>3d</fix>
</trkpt>
<trkpt lat="40.0713749" lon="-105.229789">
  <ele>1583.0</ele>
  <time>2026-08-28T17:56:25Z</time>
  <course>0.0</course>
  <speed>0.0</speed>
  <fix>3d</fix>
</trkpt>
<trkpt lat="40.0713749" lon="-105.229789">
  <ele>1583.0</ele>
  <time>2026-08-28T17:56:25Z</time>
  <course>247.69</course>
  <speed>0.0316227766016838</speed>
  <fix>3d</fix>
</trkpt>
<trkpt lat="40.0713749" lon="-105.229789">
  <ele>1583.0</ele>
  <time>2026-08-28T17:56:25Z</time>
  <course>0.0</course>
  <speed>0.0</speed>
  <fix>3d</fix>
</trkpt>
<trkpt lat="40.0713749" lon="-105.229789">
  <ele>1583.0</ele>
  <time>2026-08-28T17:56:25Z</time>
  <course>247.69</course>
  <speed>0.0316227766016838</speed>
  <fix>3d</fix>
</trkpt>
<trkpt lat="40.0713749" lon="-105.229789">
  <ele>1583.0</ele>
  <time>2026-08-28T17:56:25Z</time>
  <course>0.0</course>
  <speed>0.0</speed>
  <fix>3d</fix>
</trkpt>
<trkpt lat="40.0713749" lon="-105.229789">
  <ele>1583.0</ele>
  <time>2026-08-28T17:56:25Z</time>
  <course>247.69</course>
  <speed>0.0316227766016838</speed>
  <fix>3d</fix>
</trkpt>
<trkpt lat="40.0713749" lon="-105.229789">
  <ele>1583.0</ele>
  <time>2026-08-28T17:56:25Z</time>
  <course>0.0</course>
  <speed>0.0</speed>
  <fix>3d</fix>
</trkpt>
<trkpt lat="40.0713749" lon="-105.229789">
  <ele>1583.0</ele>
  <time>2026-08-28T17:56:25Z</time>
  <course>247.68</course>
  <speed>0.0316227766016838</speed>
  <fix>3d</fix>
</trkpt>
<trkpt lat="40.0713749" lon="-105.229789">
  <ele>1583.0</ele>
  <time>2026-08-28T17:56:25Z</time>
  <course>0.0</course>
  <speed>0.0</speed>
  <fix>3d</fix>
</trkpt>
<trkpt lat="40.0713749" lon="-105.229789">
  <ele>1583.0</ele>
  <time>2026-08-28T17:56:25Z</time>
  <course>247.68</course>
  <speed>0.0316227766016838</speed>
  <fix>3d</fix>
</trkpt>
<trkpt lat="40.0713749" lon="-105.229789">
  <ele>1583.0</ele>
  <time>2026-08-28T17:56:25Z</time>
  <course>0.0</course>
  <speed>0.0</speed>
  <fix>3d</fix>
</trkpt>
<trkpt lat="40.0713749" lon="-105.229789">
  <ele>1583.0</ele>
  <time>2026-08-28T17:56:25Z</time>
  <course>247.68</course>
  <speed>0.0316227766016838</speed>
  <fix>3d</fix>
</trkpt>
<trkpt lat="40.0713749" lon="-105.229789">
  <ele>1583.0</ele>
  <time>2026-08-28T17:56:25Z</time>
  <course>0.0</course>
  <speed>0.0</speed>
  <fix>3d</fix>
</trkpt>
<trkpt lat="40.0713749" lon="-105.229789">
  <ele>1583.0</ele>
  <time>2026-08-28T17:56:25Z</time>
  <course>247.67</course>
  <speed>0.0316227766016838</speed>
  <fix>3d</fix>
</trkpt>
<trkpt lat="40.0713749" lon="-105.229789">
  <ele>1583.0</ele>
  <time>2026-08-28T17:56:25Z</time>
  <course>0.0</course>
  <speed>0.0</speed>
  <fix>3d</fix>
</trkpt>
<trkpt lat="40.0713749" lon="-105.229789">
  <ele>1583.0</ele>
  <time>2026-08-28T17:56:25Z</time>
  <course>247.67</course>
  <speed>0.0316227766016838</speed>
  <fix>3d</fix>
</trkpt>
<trkpt lat="40.0713749" lon="-105.229789">
  <ele>1583.0</ele>
  <time>2026-08-28T17:56:25Z</time>
  <course>0.0</course>
  <speed>0.0</speed>
  <fix>3d</fix>
</trkpt>
<trkpt lat="40.0713749" lon="-105.229789">
  <ele>1583.0</ele>
  <time>2026-08-28T17:56:25Z</time>
  <course>247.67</course>
  <speed>0.0316227766016838</speed>
  <fix>3d</fix>
</trkpt>
<trkpt lat="40.0713749" lon="-105.229789">
  <ele>1583.0</ele>
  <time>2026-08-28T17:56:25Z</time>
  <course>0.0</course>
  <speed>0.0</speed>
  <fix>3d</fix>
</trkpt>
<trkpt lat="40.0713749" lon="-105.229789">
  <ele>1583.0</ele>
  <time>2026-08-28T17:56:25Z</time>
  <course>247.67</course>
  <speed>0.0316227766016838</speed>
  <fix>3d</fix>
</trkpt>
<trkpt lat="40.0713749" lon="-105.229789">
  <ele>1583.0</ele>
  <time>2026-08-28T17:56:25Z</time>
  <course>0.0</course>
  <speed>0.0</speed>
  <fix>3d</fix>
</trkpt>
<trkpt lat="40.0713749" lon="-105.229789">
  <ele>1583.0</ele>
  <time>2026-08-28T17:56:25Z</time>
  <course>247.66</course>
  <speed>0.0316227766016838</speed>
  <fix>3d</fix>
</trkpt>
<trkpt lat="40.0713749" lon="-105.229789">
  <ele>1583.0</ele>
  <time>2026-08-28T17:56:25Z</time>
  <course>0.0</course>
  <speed>0.0</speed>
  <fix>3d</fix>
</trkpt>
<trkpt lat="40.0713749" lon="-105.229789">
  <ele>1583.0</ele>
  <time>2026-08-28T17:56:25Z</time>
  <course>247.66</course>
  <speed>0.0316227766016838</speed>
  <fix>3d</fix>
</trkpt>
<trkpt lat="40.0713749" lon="-105.229789">
  <ele>1583.0</ele>
  <time>2026-08-28T17:56:25Z</time>
  <course>0.0</course>
  <speed>0.0</speed>
  <fix>3d</fix>
</trkpt>
<trkpt lat="40.0713749" lon="-105.229789">
  <ele>1583.0</ele>
  <time>2026-08-28T17:56:25Z</time>
  <course>247.66</course>
  <speed>0.0316227766016838</speed>
  <fix>3d</fix>
</trkpt>
<trkpt lat="40.0713749" lon="-105.229789">
  <ele>1583.0</ele>
  <time>2026-08-28T17:56:25Z</time>
  <course>0.0</course>
  <speed>0.0</speed>
  <fix>3d</fix>
</trkpt>
<trkpt lat="40.0713749" lon="-105.229789">
  <ele>1583.0</ele>
  <time>2026-08-28T17:56:25Z</time>
  <course>247.65</course>
  <speed>0.0316227766016838</speed>
  <fix>3d</fix>
</trkpt>
<trkpt lat="40.0713749" lon="-105.229789">
  <ele>1583.0</ele>
  <time>2026-08-28T17:56:25Z</time>
  <course>0.0</course>
  <speed>0.0</speed>
  <fix>3d</fix>
</trkpt>
<trkpt lat="40.0713749" lon="-105.229789">
  <ele>1583.0</ele>
  <time>2026-08-28T17:56:25Z</time>
  <course>247.65</course>
  <speed>0.0316227766016838</speed>
  <fix>3d</fix>
</trkpt>
<trkpt lat="40.0713749" lon="-105.229789">
  <ele>1583.0</ele>
  <time>2026-08-28T17:56:25Z</time>
  <course>0.0</course>
  <speed>0.0</speed>
  <fix>3d</fix>
</trkpt>
<trkpt lat="40.0713749" lon="-105.229789">
  <ele>1583.0</ele>
  <time>2026-08-28T17:56:25Z</time>
  <course>247.65</course>
  <speed>0.0316227766016838</speed>
  <fix>3d</fix>
</trkpt>
<trkpt lat="40.0713749" lon="-105.229789">
  <ele>1583.0</ele>
  <time>2026-08-28T17:56:25Z</time>
  <course>0.0</course>
  <speed>0.0</speed>
  <fix>3d</fix>
</trkpt>
<trkpt lat="40.0713749" lon="-105.229789">
  <ele>1583.0</ele>
  <time>2026-08-28T17:56:25Z</time>
  <course>247.64</course>
  <speed>0.0316227766016838</speed>
  <fix>3d</fix>
</trkpt>
<trkpt lat="40.0713749" lon="-105.229789">
  <ele>1583.0</ele>
  <time>2026-08-28T17:56:25Z</time>
  <course>0.0</course>
  <speed>0.0</speed>
  <fix>3d</fix>
</trkpt>
<trkpt lat="40.0713749" lon="-105.229789">
  <ele>1583.0</ele>
  <time>2026-08-28T17:56:25Z</time>
  <course>247.64</course>
  <speed>0.0316227766016838</speed>
  <fix>3d</fix>
</trkpt>
<trkpt lat="40.0713749" lon="-105.229789">
  <ele>1583.0</ele>
  <time>2026-08-28T17:56:25Z</time>
  <course>0.0</course>
  <speed>0.0</speed>
  <fix>3d</fix>
</trkpt>
<trkpt lat="40.0713749" lon="-105.229789">
  <ele>1583.0</ele>
  <time>2026-08-28T17:56:25Z</time>
  <course>247.64</course>
  <speed>0.0316227766016838</speed>
  <fix>3d</fix>
</trkpt>
<trkpt lat="40.0713749" lon="-105.229789">
  <ele>1583.0</ele>
  <time>2026-08-28T17:56:25Z</time>
  <course>0.0</course>
  <speed>0.0</speed>
  <fix>3d</fix>
</trkpt>
<trkpt lat="40.0713749" lon="-105.229789">
  <ele>1583.0</ele>
  <time>2026-08-28T17:56:25Z</time>
  <course>247.64</course>
  <speed>0.0316227766016838</speed>
  <fix>3d</fix>
</trkpt>
<trkpt lat="40.0713749" lon="-105.229789">
  <ele>1583.0</ele>
  <time>2026-08-28T17:56:25Z</time>
  <course>0.0</course>
  <speed>0.0</speed>
  <fix>3d</fix>
</trkpt>
<trkpt lat="40.0713749" lon="-105.229789">
  <ele>1583.0</ele>
  <time>2026-08-28T17:56:25Z</time>
  <course>247.63</course>
  <speed>0.0316227766016838</speed>
  <fix>3d</fix>
</trkpt>
<trkpt lat="40.0713749" lon="-105.229789">
  <ele>1583.0</ele>
  <time>2026-08-28T17:56:25Z</time>
  <course>0.0</course>
  <speed>0.0</speed>
  <fix>3d</fix>
</trkpt>
<trkpt lat="40.0713749" lon="-105.229789">
  <ele>1583.0</ele>
  <time>2026-08-28T17:56:25Z</time>
  <course>247.63</course>
  <speed>0.0316227766016838</speed>
  <fix>3d</fix>
</trkpt>
<trkpt lat="40.0713749" lon="-105.229789">
  <ele>1583.0</ele>
  <time>2026-08-28T17:56:25Z</time>
  <course>0.0</course>
  <speed>0.0</speed>
  <fix>3d</fix>
</trkpt>
<trkpt lat="40.0713749" lon="-105.229789">
  <ele>1583.0</ele>
  <time>2026-08-28T17:56:25Z</time>
  <course>247.63</course>
  <speed>0.0316227766016838</speed>
  <fix>3d</fix>
</trkpt>
<trkpt lat="40.0713749" lon="-105.229789">
  <ele>1583.0</ele>
  <time>2026-08-28T17:56:25Z</time>
  <course>0.0</course>
  <speed>0.0</speed>
  <fix>3d</fix>
</trkpt>
<trkpt lat="40.0713749" lon="-105.229789">
  <ele>1583.0</ele>
  <time>2026-08-28T17:56:25Z</time>
  <course>247.62</course>
  <speed>0.0316227766016838</speed>
  <fix>3d</fix>
</trkpt>
<trkpt lat="40.0713749" lon="-105.229789">
  <ele>1583.0</ele>
  <time>2026-08-28T17:56:25Z</time>
  <course>0.0</course>
  <speed>0.0</speed>
  <fix>3d</fix>
</trkpt>
<trkpt lat="40.0713749" lon="-105.229789">
  <ele>1583.0</ele>
  <time>2026-08-28T17:56:25Z</time>
  <course>247.62</course>
  <speed>0.0316227766016838</speed>
  <fix>3d</fix>
</trkpt>
<trkpt lat="40.0713749" lon="-105.229789">
  <ele>1583.0</ele>
  <time>2026-08-28T17:56:25Z</time>
  <course>0.0</course>
  <speed>0.0</speed>
  <fix>3d</fix>
</trkpt>
<trkpt lat="40.0713749" lon="-105.229789">
  <ele>1583.0</ele>
  <time>2026-08-28T17:56:25Z</time>
  <course>247.62</course>
  <speed>0.0316227766016838</speed>
  <fix>3d</fix>
</trkpt>
<trkpt lat="40.0713749" lon="-105.229789">
  <ele>1583.0</ele>
  <time>2026-08-28T17:56:25Z</time>
  <course>0.0</course>
  <speed>0.0</speed>
  <fix>3d</fix>
</trkpt>
<trkpt lat="40.0713749" lon="-105.229789">
  <ele>1583.0</ele>
  <time>2026-08-28T17:56:25Z</time>
  <course>247.61</course>
  <speed>0.0316227766016838</speed>
  <fix>3d</fix>
</trkpt>
<trkpt lat="40.0713749" lon="-105.229789">
  <ele>1583.0</ele>
  <time>2026-08-28T17:56:25Z</time>
  <course>0.0</course>
  <speed>0.0</speed>
  <fix>3d</fix>
</trkpt>
<trkpt lat="40.0713749" lon="-105.229789">
  <ele>1583.0</ele>
  <time>2026-08-28T17:56:25Z</time>
  <course>247.61</course>
  <speed>0.0316227766016838</speed>
  <fix>3d</fix>
</trkpt>
<trkpt lat="40.0713749" lon="-105.229789">
  <ele>1583.0</ele>
  <time>2026-08-28T17:56:25Z</time>
  <course>0.0</course>
  <speed>0.0</speed>
  <fix>3d</fix>
</trkpt>
<trkpt lat="40.0713749" lon="-105.229789">
  <ele>1583.0</ele>
  <time>2026-08-28T17:56:25Z</time>
  <course>247.61</course>
  <speed>0.0316227766016838</speed>
  <fix>3d</fix>
</trkpt>
<trkpt lat="40.0713749" lon="-105.229789">
  <ele>1583.0</ele>
  <time>2026-08-28T17:56:25Z</time>
  <course>0.0</course>
  <speed>0.0</speed>
  <fix>3d</fix>
</trkpt>
<trkpt lat="40.0713749" lon="-105.229789">
  <ele>1583.0</ele>
  <time>2026-08-28T17:56:25Z</time>
  <course>247.61</course>
  <speed>0.0316227766016838</speed>
  <fix>3d</fix>
</trkpt>
<trkpt lat="40.0713749" lon="-105.229789">
  <ele>1583.0</ele>
  <time>2026-08-28T17:56:25Z</time>
  <course>0.0</course>
  <speed>0.0</speed>
  <fix>3d</fix>
</trkpt>
<trkpt lat="40.0713749" lon="-105.229789">
  <ele>1583.0</ele>
  <time>2026-08-28T17:56:25Z</time>
  <course>247.6</course>
  <speed>0.0316227766016838</speed>
  <fix>3d</fix>
</trkpt>
<trkpt lat="40.0713749" lon="-105.229789">
  <ele>1583.0</ele>
  <time>2026-08-28T17:56:25Z</time>
  <course>0.0</course>
  <speed>0.0</speed>
  <fix>3d</fix>
</trkpt>
<trkpt lat="40.0713749" lon="-105.229789">
  <ele>1583.0</ele>
  <time>2026-08-28T17:56:25Z</time>
  <course>247.6</course>
  <speed>0.0316227766016838</speed>
  <fix>3d</fix>
</trkpt>
<trkpt lat="40.0713749" lon="-105.229789">
  <ele>1583.0</ele>
  <time>2026-08-28T17:56:25Z</time>
  <course>0.0</course>
  <speed>0.0</speed>
  <fix>3d</fix>
</trkpt>
<trkpt lat="40.0713749" lon="-105.229789">
  <ele>1583.0</ele>
  <time>2026-08-28T17:56:25Z</time>
  <course>247.6</course>
  <speed>0.0316227766016838</speed>
  <fix>3d</fix>
</trkpt>
<trkpt lat="40.0713749" lon="-105.229789">
  <ele>1583.0</ele>
  <time>2026-08-28T17:56:25Z</time>
  <course>0.0</course>
  <speed>0.0</speed>
  <fix>3d</fix>
</trkpt>
<trkpt lat="40.0713749" lon="-105.229789">
  <ele>1583.0</ele>
  <time>2026-08-28T17:56:25Z</time>
  <course>247.59</course>
  <speed>0.0316227766016838</speed>
  <fix>3d</fix>
</trkpt>
<trkpt lat="40.0713749" lon="-105.229789">
  <ele>1583.0</ele>
  <time>2026-08-28T17:56:25Z</time>
  <course>0.0</course>
  <speed>0.0</speed>
  <fix>3d</fix>
</trkpt>
<trkpt lat="40.0713749" lon="-105.229789">
  <ele>1583.0</ele>
  <time>2026-08-28T17:56:25Z</time>
  <course>247.59</course>
  <speed>0.0316227766016838</speed>
  <fix>3d</fix>
</trkpt>
<trkpt lat="40.0713749" lon="-105.229789">
  <ele>1583.0</ele>
  <time>2026-08-28T17:56:25Z</time>
  <course>0.0</course>
  <speed>0.0</speed>
  <fix>3d</fix>
</trkpt>
<trkpt lat="40.0713749" lon="-105.229789">
  <ele>1583.0</ele>
  <time>2026-08-28T17:56:25Z</time>
  <course>247.59</course>
  <speed>0.0316227766016838</speed>
  <fix>3d</fix>
</trkpt>
<trkpt lat="40.0713749" lon="-105.229789">
  <ele>1583.0</ele>
  <time>2026-08-28T17:56:25Z</time>
  <course>0.0</course>
  <speed>0.0</speed>
  <fix>3d</fix>
</trkpt>
<trkpt lat="40.0713749" lon="-105.229789">
  <ele>1582.96</ele>
  <time>2026-08-28T17:56:25Z</time>
  <course>247.59</course>
  <speed>0.0</speed>
  <fix>3d</fix>
</trkpt>
<trkpt lat="40.0713749" lon="-105.229789">
  <ele>1583.0</ele>
  <time>2026-08-28T17:56:25Z</time>
  <course>0.0</course>
  <speed>0.0</speed>
  <fix>3d</fix>
</trkpt>
<trkpt lat="40.0713749" lon="-105.229789">
  <ele>1582.95</ele>
  <time>2026-08-28T17:56:25Z</time>
  <course>247.58</course>
  <speed>0.0</speed>
  <fix>3d</fix>
</trkpt>
<trkpt lat="40.0713749" lon="-105.229789">
  <ele>1583.0</ele>
  <time>2026-08-28T17:56:25Z</time>
  <course>0.0</course>
  <speed>0.0</speed>
  <fix>3d</fix>
</trkpt>
<trkpt lat="40.0713749" lon="-105.229789">
  <ele>1582.95</ele>
  <time>2026-08-28T17:56:25Z</time>
  <course>247.58</course>
  <speed>0.0</speed>
  <fix>3d</fix>
</trkpt>
<trkpt lat="40.0713749" lon="-105.229789">
  <ele>1583.0</ele>
  <time>2026-08-28T17:56:25Z</time>
  <course>0.0</course>
  <speed>0.0</speed>
  <fix>3d</fix>
</trkpt>
<trkpt lat="40.0713749" lon="-105.229789">
  <ele>1582.95</ele>
  <time>2026-08-28T17:56:25Z</time>
  <course>247.58</course>
  <speed>0.0</speed>
  <fix>3d</fix>
</trkpt>
<trkpt lat="40.0713749" lon="-105.229789">
  <ele>1583.0</ele>
  <time>2026-08-28T17:56:25Z</time>
  <course>0.0</course>
  <speed>0.0</speed>
  <fix>3d</fix>
</trkpt>
<trkpt lat="40.0713749" lon="-105.229789">
  <ele>1582.94</ele>
  <time>2026-08-28T17:56:25Z</time>
  <course>247.58</course>
  <speed>0.0</speed>
  <fix>3d</fix>
</trkpt>
<trkpt lat="40.0713749" lon="-105.229789">
  <ele>1583.0</ele>
  <time>2026-08-28T17:56:25Z</time>
  <course>0.0</course>
  <speed>0.0</speed>
  <fix>3d</fix>
</trkpt>
<trkpt lat="40.0713749" lon="-105.229789">
  <ele>1582.94</ele>
  <time>2026-08-28T17:56:25Z</time>
  <course>247.57</course>
  <speed>0.0</speed>
  <fix>3d</fix>
</trkpt>
<trkpt lat="40.0713749" lon="-105.229789">
  <ele>1583.0</ele>
  <time>2026-08-28T17:56:25Z</time>
  <course>0.0</course>
  <speed>0.0</speed>
  <fix>3d</fix>
</trkpt>
<trkpt lat="40.0713749" lon="-105.229789">
  <ele>1582.94</ele>
  <time>2026-08-28T17:56:25Z</time>
  <course>247.57</course>
  <speed>0.0</speed>
  <fix>3d</fix>
</trkpt>
<trkpt lat="40.0713749" lon="-105.229789">
  <ele>1583.0</ele>
  <time>2026-08-28T17:56:25Z</time>
  <course>0.0</course>
  <speed>0.0</speed>
  <fix>3d</fix>
</trkpt>
<trkpt lat="40.0713749" lon="-105.229789">
  <ele>1582.94</ele>
  <time>2026-08-28T17:56:25Z</time>
  <course>247.57</course>
  <speed>0.0</speed>
  <fix>3d</fix>
</trkpt>
<trkpt lat="40.0713749" lon="-105.229789">
  <ele>1583.0</ele>
  <time>2026-08-28T17:56:25Z</time>
  <course>0.0</course>
  <speed>0.0</speed>
  <fix>3d</fix>
</trkpt>
<trkpt lat="40.0713749" lon="-105.229789">
  <ele>1582.93</ele>
  <time>2026-08-28T17:56:25Z</time>
  <course>247.56</course>
  <speed>0.0</speed>
  <fix>3d</fix>
</trkpt>
<trkpt lat="40.0713749" lon="-105.229789">
  <ele>1583.0</ele>
  <time>2026-08-28T17:56:25Z</time>
  <course>0.0</course>
  <speed>0.0</speed>
  <fix>3d</fix>
</trkpt>
<trkpt lat="40.0713749" lon="-105.229789">
  <ele>1582.93</ele>
  <time>2026-08-28T17:56:25Z</time>
  <course>247.56</course>
  <speed>0.01</speed>
  <fix>3d</fix>
</trkpt>
<trkpt lat="40.0713749" lon="-105.229789">
  <ele>1583.0</ele>
  <time>2026-08-28T17:56:25Z</time>
  <course>0.0</course>
  <speed>0.0</speed>
  <fix>3d</fix>
</trkpt>
<trkpt lat="40.0713749" lon="-105.229789">
  <ele>1582.93</ele>
  <time>2026-08-28T17:56:25Z</time>
  <course>247.56</course>
  <speed>0.01</speed>
  <fix>3d</fix>
</trkpt>
<trkpt lat="40.0713749" lon="-105.229789">
  <ele>1583.0</ele>
  <time>2026-08-28T17:56:25Z</time>
  <course>0.0</course>
  <speed>0.0</speed>
  <fix>3d</fix>
</trkpt>
<trkpt lat="40.0713749" lon="-105.229789">
  <ele>1582.93</ele>
  <time>2026-08-28T17:56:25Z</time>
  <course>247.56</course>
  <speed>0.01</speed>
  <fix>3d</fix>
</trkpt>
<trkpt lat="40.0713749" lon="-105.229789">
  <ele>1583.0</ele>
  <time>2026-08-28T17:56:25Z</time>
  <course>0.0</course>
  <speed>0.0</speed>
  <fix>3d</fix>
</trkpt>
<trkpt lat="40.0713749" lon="-105.229789">
  <ele>1582.93</ele>
  <time>2026-08-28T17:56:25Z</time>
  <course>247.55</course>
  <speed>0.01</speed>
  <fix>3d</fix>
</trkpt>
<trkpt lat="40.0713749" lon="-105.229789">
  <ele>1583.0</ele>
  <time>2026-08-28T17:56:25Z</time>
  <course>0.0</course>
  <speed>0.0</speed>
  <fix>3d</fix>
</trkpt>
<trkpt lat="40.0713749" lon="-105.229789">
  <ele>1582.94</ele>
  <time>2026-08-28T17:56:25Z</time>
  <course>247.55</course>
  <speed>0.01</speed>
  <fix>3d</fix>
</trkpt>
<trkpt lat="40.0713749" lon="-105.229789">
  <ele>1583.0</ele>
  <time>2026-08-28T17:56:25Z</time>
  <course>0.0</course>
  <speed>0.0</speed>
  <fix>3d</fix>
</trkpt>
<trkpt lat="40.0713749" lon="-105.229789">
  <ele>1582.94</ele>
  <time>2026-08-28T17:56:25Z</time>
  <course>247.55</course>
  <speed>0.01</speed>
  <fix>3d</fix>
</trkpt>
<trkpt lat="40.0713749" lon="-105.229789">
  <ele>1583.0</ele>
  <time>2026-08-28T17:56:25Z</time>
  <course>0.0</course>
  <speed>0.0</speed>
  <fix>3d</fix>
</trkpt>
<trkpt lat="40.0713749" lon="-105.229789">
  <ele>1582.94</ele>
  <time>2026-08-28T17:56:25Z</time>
  <course>247.55</course>
  <speed>0.01</speed>
  <fix>3d</fix>
</trkpt>
<trkpt lat="40.0713749" lon="-105.229789">
  <ele>1583.0</ele>
  <time>2026-08-28T17:56:25Z</time>
  <course>0.0</course>
  <speed>0.0</speed>
  <fix>3d</fix>
</trkpt>
<trkpt lat="40.0713749" lon="-105.229789">
  <ele>1582.94</ele>
  <time>2026-08-28T17:56:25Z</time>
  <course>247.54</course>
  <speed>0.01</speed>
  <fix>3d</fix>
</trkpt>
<trkpt lat="40.0713749" lon="-105.229789">
  <ele>1583.0</ele>
  <time>2026-08-28T17:56:25Z</time>
  <course>0.0</course>
  <speed>0.0</speed>
  <fix>3d</fix>
</trkpt>
<trkpt lat="40.0713749" lon="-105.229789">
  <ele>1582.94</ele>
  <time>2026-08-28T17:56:25Z</time>
  <course>247.54</course>
  <speed>0.02</speed>
  <fix>3d</fix>
</trkpt>
<trkpt lat="40.0713749" lon="-105.229789">
  <ele>1583.0</ele>
  <time>2026-08-28T17:56:25Z</time>
  <course>0.0</course>
  <speed>0.0</speed>
  <fix>3d</fix>
</trkpt>
<trkpt lat="40.0713749" lon="-105.229789">
  <ele>1582.94</ele>
  <time>2026-08-28T17:56:25Z</time>
  <course>247.53</course>
  <speed>0.02</speed>
  <fix>3d</fix>
</trkpt>
<trkpt lat="40.0713749" lon="-105.229789">
  <ele>1583.0</ele>
  <time>2026-08-28T17:56:25Z</time>
  <course>0.0</course>
  <speed>0.0</speed>
  <fix>3d</fix>
</trkpt>
<trkpt lat="40.0713749" lon="-105.229789">
  <ele>1582.94</ele>
  <time>2026-08-28T17:56:25Z</time>
  <course>247.52</course>
  <speed>0.02</speed>
  <fix>3d</fix>
</trkpt>
<trkpt lat="40.0713749" lon="-105.229789">
  <ele>1583.0</ele>
  <time>2026-08-28T17:56:25Z</time>
  <course>0.0</course>
  <speed>0.0</speed>
  <fix>3d</fix>
</trkpt>
<trkpt lat="40.0713749" lon="-105.229789">
  <ele>1582.95</ele>
  <time>2026-08-28T17:56:25Z</time>
  <course>247.51</course>
  <speed>0.02</speed>
  <fix>3d</fix>
</trkpt>
<trkpt lat="40.0713749" lon="-105.229789">
  <ele>1583.0</ele>
  <time>2026-08-28T17:56:25Z</time>
  <course>0.0</course>
  <speed>0.0</speed>
  <fix>3d</fix>
</trkpt>
<trkpt lat="40.0713749" lon="-105.229789">
  <ele>1582.96</ele>
  <time>2026-08-28T17:56:25Z</time>
  <course>247.49</course>
  <speed>0.02</speed>
  <fix>3d</fix>
</trkpt>
<trkpt lat="40.0713749" lon="-105.229789">
  <ele>1583.0</ele>
  <time>2026-08-28T17:56:25Z</time>
  <course>0.0</course>
  <speed>0.0</speed>
  <fix>3d</fix>
</trkpt>
<trkpt lat="40.0713749" lon="-105.229789">
  <ele>1582.96</ele>
  <time>2026-08-28T17:56:25Z</time>
  <course>247.47</course>
  <speed>0.02</speed>
  <fix>3d</fix>
</trkpt>
<trkpt lat="40.0713749" lon="-105.229789">
  <ele>1583.0</ele>
  <time>2026-08-28T17:56:25Z</time>
  <course>0.0</course>
  <speed>0.0</speed>
  <fix>3d</fix>
</trkpt>
<trkpt lat="40.071375" lon="-105.229789">
  <ele>1582.97</ele>
  <time>2026-08-28T17:56:25Z</time>
  <course>247.46</course>
  <speed>0.02</speed>
  <fix>3d</fix>
</trkpt>
<trkpt lat="40.0713749" lon="-105.229789">
  <ele>1583.0</ele>
  <time>2026-08-28T17:56:25Z</time>
  <course>0.0</course>
  <speed>0.0</speed>
  <fix>3d</fix>
</trkpt>
<trkpt lat="40.071375" lon="-105.229789">
  <ele>1582.99</ele>
  <time>2026-08-28T17:56:25Z</time>
  <course>247.42</course>
  <speed>0.02</speed>
  <fix>3d</fix>
</trkpt>
<trkpt lat="40.0713749" lon="-105.229789">
  <ele>1583.0</ele>
  <time>2026-08-28T17:56:25Z</time>
  <course>0.0</course>
  <speed>0.0</speed>
  <fix>3d</fix>
</trkpt>
<trkpt lat="40.071375" lon="-105.229789">
  <ele>1583.0</ele>
  <time>2026-08-28T17:56:25Z</time>
  <course>247.41</course>
  <speed>0.02</speed>
  <fix>3d</fix>
</trkpt>
<trkpt lat="40.0713749" lon="-105.229789">
  <ele>1583.0</ele>
  <time>2026-08-28T17:56:25Z</time>
  <course>0.0</course>
  <speed>0.0</speed>
  <fix>3d</fix>
</trkpt>
<trkpt lat="40.071375" lon="-105.229789">
  <ele>1583.01</ele>
  <time>2026-08-28T17:56:25Z</time>
  <course>247.39</course>
  <speed>0.02</speed>
  <fix>3d</fix>
</trkpt>
<trkpt lat="40.0713749" lon="-105.229789">
  <ele>1583.0</ele>
  <time>2026-08-28T17:56:25Z</time>
  <course>0.0</course>
  <speed>0.0</speed>
  <fix>3d</fix>
</trkpt>
<trkpt lat="40.071375" lon="-105.229789">
  <ele>1583.02</ele>
  <time>2026-08-28T17:56:25Z</time>
  <course>247.38</course>
  <speed>0.02</speed>
  <fix>3d</fix>
</trkpt>
<trkpt lat="40.0713749" lon="-105.229789">
  <ele>1583.0</ele>
  <time>2026-08-28T17:56:25Z</time>
  <course>0.0</course>
  <speed>0.0</speed>
  <fix>3d</fix>
</trkpt>
<trkpt lat="40.071375" lon="-105.229789">
  <ele>1583.03</ele>
  <time>2026-08-28T17:56:25Z</time>
  <course>247.37</course>
  <speed>0.02</speed>
  <fix>3d</fix>
</trkpt>
<trkpt lat="40.0713749" lon="-105.229789">
  <ele>1583.0</ele>
  <time>2026-08-28T17:56:25Z</time>
  <course>0.0</course>
  <speed>0.0</speed>
  <fix>3d</fix>
</trkpt>
<trkpt lat="40.071375" lon="-105.229789">
  <ele>1583.04</ele>
  <time>2026-08-28T17:56:25Z</time>
  <course>247.36</course>
  <speed>0.02</speed>
  <fix>3d</fix>
</trkpt>
<trkpt lat="40.0713749" lon="-105.229789">
  <ele>1583.0</ele>
  <time>2026-08-28T17:56:25Z</time>
  <course>0.0</course>
  <speed>0.0</speed>
  <fix>3d</fix>
</trkpt>
<trkpt lat="40.071375" lon="-105.229789">
  <ele>1583.05</ele>
  <time>2026-08-28T17:56:25Z</time>
  <course>247.35</course>
  <speed>0.02</speed>
  <fix>3d</fix>
</trkpt>
<trkpt lat="40.0713749" lon="-105.229789">
  <ele>1583.0</ele>
  <time>2026-08-28T17:56:25Z</time>
  <course>0.0</course>
  <speed>0.0</speed>
  <fix>3d</fix>
</trkpt>
<trkpt lat="40.071375" lon="-105.229789">
  <ele>1583.06</ele>
  <time>2026-08-28T17:56:25Z</time>
  <course>247.34</course>
  <speed>0.01</speed>
  <fix>3d</fix>
</trkpt>
<trkpt lat="40.0713749" lon="-105.229789">
  <ele>1583.0</ele>
  <time>2026-08-28T17:56:25Z</time>
  <course>0.0</course>
  <speed>0.0</speed>
  <fix>3d</fix>
</trkpt>
<trkpt lat="40.071375" lon="-105.229789">
  <ele>1583.07</ele>
  <time>2026-08-28T17:56:25Z</time>
  <course>247.34</course>
  <speed>0.01</speed>
  <fix>3d</fix>
</trkpt>
<trkpt lat="40.0713749" lon="-105.229789">
  <ele>1583.0</ele>
  <time>2026-08-28T17:56:25Z</time>
  <course>0.0</course>
  <speed>0.0</speed>
  <fix>3d</fix>
</trkpt>
<trkpt lat="40.071375" lon="-105.229789">
  <ele>1583.07</ele>
  <time>2026-08-28T17:56:25Z</time>
  <course>247.33</course>
  <speed>0.01</speed>
  <fix>3d</fix>
</trkpt>
<trkpt lat="40.0713749" lon="-105.229789">
  <ele>1583.0</ele>
  <time>2026-08-28T17:56:25Z</time>
  <course>0.0</course>
  <speed>0.0</speed>
  <fix>3d</fix>
</trkpt>
<trkpt lat="40.071375" lon="-105.229789">
  <ele>1583.08</ele>
  <time>2026-08-28T17:56:25Z</time>
  <course>247.33</course>
  <speed>0.01</speed>
  <fix>3d</fix>
</trkpt>
<trkpt lat="40.0713749" lon="-105.229789">
  <ele>1583.0</ele>
  <time>2026-08-28T17:56:25Z</time>
  <course>0.0</course>
  <speed>0.0</speed>
  <fix>3d</fix>
</trkpt>
<trkpt lat="40.0713749" lon="-105.229789">
  <ele>1583.08</ele>
  <time>2026-08-28T17:56:25Z</time>
  <course>247.32</course>
  <speed>0.01</speed>
  <fix>3d</fix>
</trkpt>
<trkpt lat="40.0713749" lon="-105.229789">
  <ele>1583.0</ele>
  <time>2026-08-28T17:56:25Z</time>
  <course>0.0</course>
  <speed>0.0</speed>
  <fix>3d</fix>
</trkpt>
<trkpt lat="40.0713749" lon="-105.229789">
  <ele>1583.09</ele>
  <time>2026-08-28T17:56:25Z</time>
  <course>247.32</course>
  <speed>0.01</speed>
  <fix>3d</fix>
</trkpt>
<trkpt lat="40.0713749" lon="-105.229789">
  <ele>1583.0</ele>
  <time>2026-08-28T17:56:25Z</time>
  <course>0.0</course>
  <speed>0.0</speed>
  <fix>3d</fix>
</trkpt>
<trkpt lat="40.0713749" lon="-105.229789">
  <ele>1583.09</ele>
  <time>2026-08-28T17:56:25Z</time>
  <course>247.32</course>
  <speed>0.0</speed>
  <fix>3d</fix>
</trkpt>
<trkpt lat="40.0713749" lon="-105.229789">
  <ele>1583.0</ele>
  <time>2026-08-28T17:56:25Z</time>
  <course>0.0</course>
  <speed>0.0</speed>
  <fix>3d</fix>
</trkpt>
<trkpt lat="40.0713749" lon="-105.229789">
  <ele>1583.1</ele>
  <time>2026-08-28T17:56:26Z</time>
  <course>247.32</course>
  <speed>0.0</speed>
  <fix>3d</fix>
</trkpt>
<trkpt lat="40.0713749" lon="-105.229789">
  <ele>1583.0</ele>
  <time>2026-08-28T17:56:26Z</time>
  <course>0.0</course>
  <speed>0.0</speed>
  <fix>3d</fix>
</trkpt>
<trkpt lat="40.0713749" lon="-105.229789">
  <ele>1583.1</ele>
  <time>2026-08-28T17:56:26Z</time>
  <course>247.32</course>
  <speed>0.0</speed>
  <fix>3d</fix>
</trkpt>
<trkpt lat="40.0713749" lon="-105.229789">
  <ele>1583.0</ele>
  <time>2026-08-28T17:56:26Z</time>
  <course>0.0</course>
  <speed>0.0</speed>
  <fix>3d</fix>
</trkpt>
<trkpt lat="40.0713749" lon="-105.229789">
  <ele>1583.11</ele>
  <time>2026-08-28T17:56:26Z</time>
  <course>247.32</course>
  <speed>0.0</speed>
  <fix>3d</fix>
</trkpt>
<trkpt lat="40.0713749" lon="-105.229789">
  <ele>1583.0</ele>
  <time>2026-08-28T17:56:26Z</time>
  <course>0.0</course>
  <speed>0.0</speed>
  <fix>3d</fix>
</trkpt>
<trkpt lat="40.0713749" lon="-105.229789">
  <ele>1583.11</ele>
  <time>2026-08-28T17:56:26Z</time>
  <course>247.32</course>
  <speed>0.0</speed>
  <fix>3d</fix>
</trkpt>
<trkpt lat="40.0713749" lon="-105.229789">
  <ele>1583.0</ele>
  <time>2026-08-28T17:56:26Z</time>
  <course>0.0</course>
  <speed>0.0</speed>
  <fix>3d</fix>
</trkpt>
<trkpt lat="40.0713749" lon="-105.229789">
  <ele>1583.11</ele>
  <time>2026-08-28T17:56:26Z</time>
  <course>247.32</course>
  <speed>0.0</speed>
  <fix>3d</fix>
</trkpt>
<trkpt lat="40.0713749" lon="-105.229789">
  <ele>1583.0</ele>
  <time>2026-08-28T17:56:26Z</time>
  <course>0.0</course>
  <speed>0.0</speed>
  <fix>3d</fix>
</trkpt>
<trkpt lat="40.0713749" lon="-105.229789">
  <ele>1583.12</ele>
  <time>2026-08-28T17:56:26Z</time>
  <course>247.33</course>
  <speed>0.0</speed>
  <fix>3d</fix>
</trkpt>
<trkpt lat="40.0713749" lon="-105.229789">
  <ele>1583.0</ele>
  <time>2026-08-28T17:56:26Z</time>
  <course>0.0</course>
  <speed>0.0</speed>
  <fix>3d</fix>
</trkpt>
<trkpt lat="40.0713749" lon="-105.229789">
  <ele>1583.12</ele>
  <time>2026-08-28T17:56:26Z</time>
  <course>247.33</course>
  <speed>0.0</speed>
  <fix>3d</fix>
</trkpt>
<trkpt lat="40.0713749" lon="-105.229789">
  <ele>1583.0</ele>
  <time>2026-08-28T17:56:26Z</time>
  <course>0.0</course>
  <speed>0.0</speed>
  <fix>3d</fix>
</trkpt>
<trkpt lat="40.0713749" lon="-105.229789">
  <ele>1583.12</ele>
  <time>2026-08-28T17:56:26Z</time>
  <course>247.33</course>
  <speed>0.0</speed>
  <fix>3d</fix>
</trkpt>
<trkpt lat="40.0713749" lon="-105.229789">
  <ele>1583.0</ele>
  <time>2026-08-28T17:56:26Z</time>
  <course>0.0</course>
  <speed>0.0</speed>
  <fix>3d</fix>
</trkpt>
<trkpt lat="40.0713749" lon="-105.229789">
  <ele>1583.13</ele>
  <time>2026-08-28T17:56:26Z</time>
  <course>247.33</course>
  <speed>0.0</speed>
  <fix>3d</fix>
</trkpt>
<trkpt lat="40.0713749" lon="-105.229789">
  <ele>1583.0</ele>
  <time>2026-08-28T17:56:26Z</time>
  <course>245.86</course>
  <speed>0.0</speed>
  <fix>3d</fix>
</trkpt>
<trkpt lat="40.0713749" lon="-105.229789">
  <ele>1583.13</ele>
  <time>2026-08-28T17:56:26Z</time>
  <course>247.32</course>
  <speed>0.0</speed>
  <fix>3d</fix>
</trkpt>
<trkpt lat="40.0713749" lon="-105.229789">
  <ele>1583.0</ele>
  <time>2026-08-28T17:56:26Z</time>
  <course>245.86</course>
  <speed>0.0</speed>
  <fix>3d</fix>
</trkpt>
<trkpt lat="40.0713749" lon="-105.229789">
  <ele>1583.13</ele>
  <time>2026-08-28T17:56:26Z</time>
  <course>247.29</course>
  <speed>0.01</speed>
  <fix>3d</fix>
</trkpt>
<trkpt lat="40.0713749" lon="-105.229789">
  <ele>1583.0</ele>
  <time>2026-08-28T17:56:26Z</time>
  <course>245.82</course>
  <speed>0.01</speed>
  <fix>3d</fix>
</trkpt>
<trkpt lat="40.0713749" lon="-105.229789">
  <ele>1583.13</ele>
  <time>2026-08-28T17:56:26Z</time>
  <course>247.24</course>
  <speed>0.044721359549995794</speed>
  <fix>3d</fix>
</trkpt>
<trkpt lat="40.0713749" lon="-105.229789">
  <ele>1583.0</ele>
  <time>2026-08-28T17:56:26Z</time>
  <course>245.82</course>
  <speed>0.01</speed>
  <fix>3d</fix>
</trkpt>
<trkpt lat="40.0713749" lon="-105.2297891">
  <ele>1583.12</ele>
  <time>2026-08-28T17:56:26Z</time>
  <course>247.15</course>
  <speed>0.09848857801796104</speed>
  <fix>3d</fix>
</trkpt>
<trkpt lat="40.0713749" lon="-105.229789">
  <ele>1583.0</ele>
  <time>2026-08-28T17:56:26Z</time>
  <course>245.73</course>
  <speed>0.05</speed>
  <fix>3d</fix>
</trkpt>
<trkpt lat="40.0713748" lon="-105.2297893">
  <ele>1583.12</ele>
  <time>2026-08-28T17:56:26Z</time>
  <course>247.05</course>
  <speed>0.1615549442140351</speed>
  <fix>3d</fix>
</trkpt>
<trkpt lat="40.0713749" lon="-105.229789">
  <ele>1583.0</ele>
  <time>2026-08-28T17:56:26Z</time>
  <course>245.73</course>
  <speed>0.05</speed>
  <fix>3d</fix>
</trkpt>
<trkpt lat="40.0713748" lon="-105.2297895">
  <ele>1583.12</ele>
  <time>2026-08-28T17:56:26Z</time>
  <course>246.93</course>
  <speed>0.23769728648009425</speed>
  <fix>3d</fix>
</trkpt>
<trkpt lat="40.0713749" lon="-105.2297892">
  <ele>1583.0</ele>
  <time>2026-08-28T17:56:26Z</time>
  <course>245.57</course>
  <speed>0.14</speed>
  <fix>3d</fix>
</trkpt>
<trkpt lat="40.0713747" lon="-105.2297898">
  <ele>1583.12</ele>
  <time>2026-08-28T17:56:26Z</time>
  <course>246.79</course>
  <speed>0.3361547262794322</speed>
  <fix>3d</fix>
</trkpt>
<trkpt lat="40.0713749" lon="-105.2297892">
  <ele>1583.0</ele>
  <time>2026-08-28T17:56:26Z</time>
  <course>245.57</course>
  <speed>0.14</speed>
  <fix>3d</fix>
</trkpt>
<trkpt lat="40.0713745" lon="-105.2297903">
  <ele>1583.12</ele>
  <time>2026-08-28T17:56:26Z</time>
  <course>246.62</course>
  <speed>0.4477722635447622</speed>
  <fix>3d</fix>
</trkpt>
<trkpt lat="40.0713748" lon="-105.2297897">
  <ele>1583.0</ele>
  <time>2026-08-28T17:56:26Z</time>
  <course>245.31</course>
  <speed>0.31</speed>
  <fix>3d</fix>
</trkpt>
<trkpt lat="40.0713743" lon="-105.2297908">
  <ele>1583.12</ele>
  <time>2026-08-28T17:56:26Z</time>
  <course>246.41</course>
  <speed>0.5777542730261715</speed>
  <fix>3d</fix>
</trkpt>
<trkpt lat="40.0713748" lon="-105.2297897">
  <ele>1583.0</ele>
  <time>2026-08-28T17:56:26Z</time>
  <course>245.31</course>
  <speed>0.31</speed>
  <fix>3d</fix>
</trkpt>
<trkpt lat="40.0713741" lon="-105.2297916">
  <ele>1583.12</ele>
  <time>2026-08-28T17:56:26Z</time>
  <course>246.18</course>
  <speed>0.7209022125087423</speed>
  <fix>3d</fix>
</trkpt>
<trkpt lat="40.0713745" lon="-105.2297906">
  <ele>1583.0</ele>
  <time>2026-08-28T17:56:26Z</time>
  <course>244.95</course>
  <speed>0.53</speed>
  <fix>3d</fix>
</trkpt>
<trkpt lat="40.0713738" lon="-105.2297925">
  <ele>1583.13</ele>
  <time>2026-08-28T17:56:26Z</time>
  <course>245.92</course>
  <speed>0.8863972021616494</speed>
  <fix>3d</fix>
</trkpt>
<trkpt lat="40.0713745" lon="-105.2297906">
  <ele>1583.0</ele>
  <time>2026-08-28T17:56:26Z</time>
  <course>244.95</course>
  <speed>0.53</speed>
  <fix>3d</fix>
</trkpt>
<trkpt lat="40.0713734" lon="-105.2297935">
  <ele>1583.13</ele>
  <time>2026-08-28T17:56:26Z</time>
  <course>245.64</course>
  <speed>1.0469479452198185</speed>
  <fix>3d</fix>
</trkpt>
<trkpt lat="40.0713739" lon="-105.229792">
  <ele>1583.0</ele>
  <time>2026-08-28T17:56:26Z</time>
  <course>244.48</course>
  <speed>0.82</speed>
  <fix>3d</fix>
</trkpt>
<trkpt lat="40.071373" lon="-105.2297948">
  <ele>1583.13</ele>
  <time>2026-08-28T17:56:26Z</time>
  <course>245.35</course>
  <speed>1.2124768039018314</speed>
  <fix>3d</fix>
</trkpt>
<trkpt lat="40.0713739" lon="-105.229792">
  <ele>1583.0</ele>
  <time>2026-08-28T17:56:26Z</time>
  <course>244.48</course>
  <speed>0.82</speed>
  <fix>3d</fix>
</trkpt>
<trkpt lat="40.0713725" lon="-105.2297962">
  <ele>1583.14</ele>
  <time>2026-08-28T17:56:26Z</time>
  <course>245.04</course>
  <speed>1.3732079230764729</speed>
  <fix>3d</fix>
</trkpt>
<trkpt lat="40.0713731" lon="-105.229794">
  <ele>1583.0</ele>
  <time>2026-08-28T17:56:26Z</time>
  <course>243.93</course>
  <speed>1.14</speed>
  <fix>3d</fix>
</trkpt>
<trkpt lat="40.0713719" lon="-105.2297977">
  <ele>1583.14</ele>
  <time>2026-08-28T17:56:26Z</time>
  <course>244.72</course>
  <speed>1.5297058540778354</speed>
  <fix>3d</fix>
</trkpt>
<trkpt lat="40.0713731" lon="-105.229794">
  <ele>1583.0</ele>
  <time>2026-08-28T17:56:26Z</time>
  <course>243.93</course>
  <speed>1.14</speed>
  <fix>3d</fix>
</trkpt>
<trkpt lat="40.0713714" lon="-105.2297991">
  <ele>1583.15</ele>
  <time>2026-08-28T17:56:26Z</time>
  <course>244.46</course>
  <speed>1.6458432489152788</speed>
  <fix>3d</fix>
</trkpt>
<trkpt lat="40.0713721" lon="-105.2297968">
  <ele>1583.0</ele>
  <time>2026-08-28T17:56:26Z</time>
  <course>243.32</course>
  <speed>1.45</speed>
  <fix>3d</fix>
</trkpt>
<trkpt lat="40.0713707" lon="-105.2298009">
  <ele>1583.15</ele>
  <time>2026-08-28T17:56:26Z</time>
  <course>244.12</course>
  <speed>1.7754436065389405</speed>
  <fix>3d</fix>
</trkpt>
<trkpt lat="40.0713721" lon="-105.2297968">
  <ele>1583.0</ele>
  <time>2026-08-28T17:56:26Z</time>
  <course>243.32</course>
  <speed>1.45</speed>
  <fix>3d</fix>
</trkpt>
<trkpt lat="40.0713699" lon="-105.2298029">
  <ele>1583.15</ele>
  <time>2026-08-28T17:56:26Z</time>
  <course>243.78</course>
  <speed>1.891718795170149</speed>
  <fix>3d</fix>
</trkpt>
<trkpt lat="40.0713708" lon="-105.2298002">
  <ele>1583.0</ele>
  <time>2026-08-28T17:56:26Z</time>
  <course>242.67</course>
  <speed>1.73</speed>
  <fix>3d</fix>
</trkpt>
<trkpt lat="40.0713691" lon="-105.2298049">
  <ele>1583.15</ele>
  <time>2026-08-28T17:56:26Z</time>
  <course>243.44</course>
  <speed>2.008033864256278</speed>
  <fix>3d</fix>
</trkpt>
<trkpt lat="40.0713708" lon="-105.2298002">
  <ele>1583.0</ele>
  <time>2026-08-28T17:56:26Z</time>
  <course>242.67</course>
  <speed>1.73</speed>
  <fix>3d</fix>
</trkpt>
<trkpt lat="40.0713682" lon="-105.2298071">
  <ele>1583.16</ele>
  <time>2026-08-28T17:56:26Z</time>
  <course>243.12</course>
  <speed>2.106608648990125</speed>
  <fix>3d</fix>
</trkpt>
<trkpt lat="40.0713693" lon="-105.229804">
  <ele>1583.0</ele>
  <time>2026-08-28T17:56:26Z</time>
  <course>242.02</course>
  <speed>1.96</speed>
  <fix>3d</fix>
</trkpt>
<trkpt lat="40.0713672" lon="-105.2298094">
  <ele>1583.16</ele>
  <time>2026-08-28T17:56:26Z</time>
  <course>242.8</course>
  <speed>2.2053117693423756</speed>
  <fix>3d</fix>
</trkpt>
<trkpt lat="40.0713693" lon="-105.229804">
  <ele>1583.0</ele>
  <time>2026-08-28T17:56:26Z</time>
  <course>242.02</course>
  <speed>1.96</speed>
  <fix>3d</fix>
</trkpt>
<trkpt lat="40.0713663" lon="-105.2298117">
  <ele>1583.16</ele>
  <time>2026-08-28T17:56:26Z</time>
  <course>242.5</course>
  <speed>2.290589443789524</speed>
  <fix>3d</fix>
</trkpt>
<trkpt lat="40.0713675" lon="-105.2298083">
  <ele>1583.0</ele>
  <time>2026-08-28T17:56:26Z</time>
  <course>241.41</course>
  <speed>2.15</speed>
  <fix>3d</fix>
</trkpt>
<trkpt lat="40.0713652" lon="-105.2298142">
  <ele>1583.17</ele>
  <time>2026-08-28T17:56:26Z</time>
  <course>242.19</course>
  <speed>2.367129062810053</speed>
  <fix>3d</fix>
</trkpt>
<trkpt lat="40.0713675" lon="-105.2298083">
  <ele>1583.0</ele>
  <time>2026-08-28T17:56:26Z</time>
  <course>241.41</course>
  <speed>2.15</speed>
  <fix>3d</fix>
</trkpt>
<trkpt lat="40.0713642" lon="-105.2298167">
  <ele>1583.17</ele>
  <time>2026-08-28T17:56:26Z</time>
  <course>241.89</course>
  <speed>2.4525293066546627</speed>
  <fix>3d</fix>
</trkpt>
<trkpt lat="40.0713655" lon="-105.2298129">
  <ele>1583.0</ele>
  <time>2026-08-28T17:56:26Z</time>
  <course>240.84</course>
  <speed>2.32</speed>
  <fix>3d</fix>
</trkpt>
<trkpt lat="40.0713628" lon="-105.2298198">
  <ele>1583.17</ele>
  <time>2026-08-28T17:56:26Z</time>
  <course>241.55</course>
  <speed>2.542833065696606</speed>
  <fix>3d</fix>
</trkpt>
<trkpt lat="40.0713655" lon="-105.2298129">
  <ele>1583.0</ele>
  <time>2026-08-28T17:56:26Z</time>
  <course>240.84</course>
  <speed>2.32</speed>
  <fix>3d</fix>
</trkpt>
<trkpt lat="40.0713616" lon="-105.2298224">
  <ele>1583.17</ele>
  <time>2026-08-28T17:56:26Z</time>
  <course>241.27</course>
  <speed>2.619637379485947</speed>
  <fix>3d</fix>
</trkpt>
<trkpt lat="40.0713634" lon="-105.2298178">
  <ele>1583.0</ele>
  <time>2026-08-28T17:56:26Z</time>
  <course>240.29</course>
  <speed>2.48</speed>
  <fix>3d</fix>
</trkpt>
<trkpt lat="40.0713604" lon="-105.2298251">
  <ele>1583.17</ele>
  <time>2026-08-28T17:56:26Z</time>
  <course>241.0</course>
  <speed>2.6965162710430657</speed>
  <fix>3d</fix>
</trkpt>
<trkpt lat="40.0713634" lon="-105.2298178">
  <ele>1583.0</ele>
  <time>2026-08-28T17:56:26Z</time>
  <course>240.29</course>
  <speed>2.48</speed>
  <fix>3d</fix>
</trkpt>
<trkpt lat="40.0713592" lon="-105.2298279">
  <ele>1583.18</ele>
  <time>2026-08-28T17:56:26Z</time>
  <course>240.74</course>
  <speed>2.7821214926742504</speed>
  <fix>3d</fix>
</trkpt>
<trkpt lat="40.0713612" lon="-105.2298231">
  <ele>1583.0</ele>
  <time>2026-08-28T17:56:26Z</time>
  <course>239.78</course>
  <speed>2.64</speed>
  <fix>3d</fix>
</trkpt>
<trkpt lat="40.0713579" lon="-105.2298308">
  <ele>1583.18</ele>
  <time>2026-08-28T17:56:26Z</time>
  <course>240.49</course>
  <speed>2.859108252585061</speed>
  <fix>3d</fix>
</trkpt>
<trkpt lat="40.0713612" lon="-105.2298231">
  <ele>1583.0</ele>
  <time>2026-08-28T17:56:26Z</time>
  <course>239.78</course>
  <speed>2.64</speed>
  <fix>3d</fix>
</trkpt>
<trkpt lat="40.0713565" lon="-105.2298337">
  <ele>1583.19</ele>
  <time>2026-08-28T17:56:26Z</time>
  <course>240.26</course>
  <speed>2.9447750338523315</speed>
  <fix>3d</fix>
</trkpt>
<trkpt lat="40.0713587" lon="-105.2298285">
  <ele>1583.0</ele>
  <time>2026-08-28T17:56:26Z</time>
  <course>239.3</course>
  <speed>2.8</speed>
  <fix>3d</fix>
</trkpt>
<trkpt lat="40.0713551" lon="-105.2298367">
  <ele>1583.19</ele>
  <time>2026-08-28T17:56:26Z</time>
  <course>240.04</course>
  <speed>3.0218537357059487</speed>
  <fix>3d</fix>
</trkpt>
<trkpt lat="40.0713587" lon="-105.2298285">
  <ele>1583.0</ele>
  <time>2026-08-28T17:56:26Z</time>
  <course>239.3</course>
  <speed>2.8</speed>
  <fix>3d</fix>
</trkpt>
<trkpt lat="40.0713537" lon="-105.2298398">
  <ele>1583.19</ele>
  <time>2026-08-28T17:56:26Z</time>
  <course>239.83</course>
  <speed>3.112699792784392</speed>
  <fix>3d</fix>
</trkpt>
<trkpt lat="40.0713559" lon="-105.2298343">
  <ele>1583.0</ele>
  <time>2026-08-28T17:56:26Z</time>
  <course>238.84</course>
  <speed>2.96</speed>
  <fix>3d</fix>
</trkpt>
<trkpt lat="40.0713522" lon="-105.2298429">
  <ele>1583.19</ele>
  <time>2026-08-28T17:56:26Z</time>
  <course>239.63</course>
  <speed>3.1898902802447613</speed>
  <fix>3d</fix>
</trkpt>
<trkpt lat="40.0713559" lon="-105.2298343">
  <ele>1583.0</ele>
  <time>2026-08-28T17:56:26Z</time>
  <course>238.84</course>
  <speed>2.96</speed>
  <fix>3d</fix>
</trkpt>
<trkpt lat="40.0713507" lon="-105.2298461">
  <ele>1583.19</ele>
  <time>2026-08-28T17:56:26Z</time>
  <course>239.45</course>
  <speed>3.253382854814354</speed>
  <fix>3d</fix>
</trkpt>
<trkpt lat="40.0713531" lon="-105.2298405">
  <ele>1583.0</ele>
  <time>2026-08-28T17:56:26Z</time>
  <course>238.42</course>
  <speed>3.12</speed>
  <fix>3d</fix>
</trkpt>
<trkpt lat="40.0713492" lon="-105.2298493">
  <ele>1583.19</ele>
  <time>2026-08-28T17:56:26Z</time>
  <course>239.26</course>
  <speed>3.3083681778181826</speed>
  <fix>3d</fix>
</trkpt>
<trkpt lat="40.0713531" lon="-105.2298405">
  <ele>1583.0</ele>
  <time>2026-08-28T17:56:26Z</time>
  <course>238.42</course>
  <speed>3.12</speed>
  <fix>3d</fix>
</trkpt>
<trkpt lat="40.0713479" lon="-105.229852">
  <ele>1583.18</ele>
  <time>2026-08-28T17:56:26Z</time>
  <course>239.12</course>
  <speed>3.3358806933102385</speed>
  <fix>3d</fix>
</trkpt>
<trkpt lat="40.0713501" lon="-105.2298469">
  <ele>1583.0</ele>
  <time>2026-08-28T17:56:26Z</time>
  <course>238.03</course>
  <speed>3.25</speed>
  <fix>3d</fix>
</trkpt>
<trkpt lat="40.0713463" lon="-105.2298553">
  <ele>1583.18</ele>
  <time>2026-08-28T17:56:26Z</time>
  <course>238.94</course>
  <speed>3.3686792664188143</speed>
  <fix>3d</fix>
</trkpt>
<trkpt lat="40.0713501" lon="-105.2298469">
  <ele>1583.0</ele>
  <time>2026-08-28T17:56:26Z</time>
  <course>238.03</course>
  <speed>3.25</speed>
  <fix>3d</fix>
</trkpt>
<trkpt lat="40.0713447" lon="-105.2298586">
  <ele>1583.18</ele>
  <time>2026-08-28T17:56:26Z</time>
  <course>238.77</course>
  <speed>3.3739739180971746</speed>
  <fix>3d</fix>
</trkpt>
<trkpt lat="40.071347" lon="-105.2298534">
  <ele>1583.0</ele>
  <time>2026-08-28T17:56:26Z</time>
  <course>237.67</course>
  <speed>3.33</speed>
  <fix>3d</fix>
</trkpt>
<trkpt lat="40.0713431" lon="-105.2298619">
  <ele>1583.18</ele>
  <time>2026-08-28T17:56:26Z</time>
  <course>238.59</course>
  <speed>3.357037384361395</speed>
  <fix>3d</fix>
</trkpt>
<trkpt lat="40.071347" lon="-105.2298534">
  <ele>1583.0</ele>
  <time>2026-08-28T17:56:26Z</time>
  <course>237.67</course>
  <speed>3.33</speed>
  <fix>3d</fix>
</trkpt>
<trkpt lat="40.0713414" lon="-105.2298652">
  <ele>1583.18</ele>
  <time>2026-08-28T17:56:26Z</time>
  <course>238.42</course>
  <speed>3.340134727821619</speed>
  <fix>3d</fix>
</trkpt>
<trkpt lat="40.0713437" lon="-105.2298601">
  <ele>1583.0</ele>
  <time>2026-08-28T17:56:26Z</time>
  <course>237.33</course>
  <speed>3.33</speed>
  <fix>3d</fix>
</trkpt>
<trkpt lat="40.0713398" lon="-105.2298685">
  <ele>1583.18</ele>
  <time>2026-08-28T17:56:26Z</time>
  <course>238.25</course>
  <speed>3.2872176684850065</speed>
  <fix>3d</fix>
</trkpt>
<trkpt lat="40.0713437" lon="-105.2298601">
  <ele>1583.0</ele>
  <time>2026-08-28T17:56:26Z</time>
  <course>237.33</course>
  <speed>3.33</speed>
  <fix>3d</fix>
</trkpt>
<trkpt lat="40.0713382" lon="-105.2298717">
  <ele>1583.19</ele>
  <time>2026-08-28T17:56:26Z</time>
  <course>238.08</course>
  <speed>3.2343314610596114</speed>
  <fix>3d</fix>
</trkpt>
<trkpt lat="40.0713405" lon="-105.2298665">
  <ele>1583.0</ele>
  <time>2026-08-28T17:56:26Z</time>
  <course>237.02</course>
  <speed>3.27</speed>
  <fix>3d</fix>
</trkpt>
<trkpt lat="40.0713366" lon="-105.2298748">
  <ele>1583.19</ele>
  <time>2026-08-28T17:56:26Z</time>
  <course>237.92</course>
  <speed>3.1676489704511135</speed>
  <fix>3d</fix>
</trkpt>
<trkpt lat="40.0713405" lon="-105.2298665">
  <ele>1583.0</ele>
  <time>2026-08-28T17:56:26Z</time>
  <course>237.02</course>
  <speed>3.27</speed>
  <fix>3d</fix>
</trkpt>
<trkpt lat="40.0713351" lon="-105.2298779">
  <ele>1583.19</ele>
  <time>2026-08-28T17:56:26Z</time>
  <course>237.77</course>
  <speed>3.092604080706096</speed>
  <fix>3d</fix>
</trkpt>
<trkpt lat="40.0713373" lon="-105.2298728">
  <ele>1583.0</ele>
  <time>2026-08-28T17:56:26Z</time>
  <course>236.72</course>
  <speed>3.16</speed>
  <fix>3d</fix>
</trkpt>
<trkpt lat="40.0713336" lon="-105.2298808">
  <ele>1583.2</ele>
  <time>2026-08-28T17:56:26Z</time>
  <course>237.63</course>
  <speed>3.017614952242913</speed>
  <fix>3d</fix>
</trkpt>
<trkpt lat="40.0713373" lon="-105.2298728">
  <ele>1583.0</ele>
  <time>2026-08-28T17:56:26Z</time>
  <course>236.72</course>
  <speed>3.16</speed>
  <fix>3d</fix>
</trkpt>
<trkpt lat="40.0713318" lon="-105.2298843">
  <ele>1583.2</ele>
  <time>2026-08-28T17:56:26Z</time>
  <course>237.48</course>
  <speed>2.937158490786631</speed>
  <fix>3d</fix>
</trkpt>
<trkpt lat="40.0713343" lon="-105.2298789">
  <ele>1583.0</ele>
  <time>2026-08-28T17:56:26Z</time>
  <course>236.45</course>
  <speed>3.02</speed>
  <fix>3d</fix>
</trkpt>
<trkpt lat="40.0713303" lon="-105.2298871">
  <ele>1583.2</ele>
  <time>2026-08-28T17:56:26Z</time>
  <course>237.36</course>
  <speed>2.884441020371191</speed>
  <fix>3d</fix>
</trkpt>
<trkpt lat="40.0713343" lon="-105.2298789">
  <ele>1583.0</ele>
  <time>2026-08-28T17:56:26Z</time>
  <course>236.45</course>
  <speed>3.02</speed>
  <fix>3d</fix>
</trkpt>
<trkpt lat="40.0713289" lon="-105.2298899">
  <ele>1583.2</ele>
  <time>2026-08-28T17:56:26Z</time>
  <course>237.26</course>
  <speed>2.8317662332897466</speed>
  <fix>3d</fix>
</trkpt>
<trkpt lat="40.0713313" lon="-105.2298847">
  <ele>1583.0</ele>
  <time>2026-08-28T17:56:26Z</time>
  <course>236.21</course>
  <speed>2.9</speed>
  <fix>3d</fix>
</trkpt>
<trkpt lat="40.0713275" lon="-105.2298926">
  <ele>1583.21</ele>
  <time>2026-08-28T17:56:26Z</time>
  <course>237.17</course>
  <speed>2.7957110008010484</speed>
  <fix>3d</fix>
</trkpt>
<trkpt lat="40.0713313" lon="-105.2298847">
  <ele>1583.0</ele>
  <time>2026-08-28T17:56:26Z</time>
  <course>236.21</course>
  <speed>2.9</speed>
  <fix>3d</fix>
</trkpt>
<trkpt lat="40.0713261" lon="-105.2298952">
  <ele>1583.21</ele>
  <time>2026-08-28T17:56:26Z</time>
  <course>237.08</course>
  <speed>2.756972977742074</speed>
  <fix>3d</fix>
</trkpt>
<trkpt lat="40.0713284" lon="-105.2298903">
  <ele>1583.0</ele>
  <time>2026-08-28T17:56:26Z</time>
  <course>235.99</course>
  <speed>2.81</speed>
  <fix>3d</fix>
</trkpt>
<trkpt lat="40.0713247" lon="-105.2298979">
  <ele>1583.21</ele>
  <time>2026-08-28T17:56:26Z</time>
  <course>237.0</course>
  <speed>2.7348126078398867</speed>
  <fix>3d</fix>
</trkpt>
<trkpt lat="40.0713284" lon="-105.2298903">
  <ele>1583.0</ele>
  <time>2026-08-28T17:56:26Z</time>
  <course>235.99</course>
  <speed>2.81</speed>
  <fix>3d</fix>
</trkpt>
<trkpt lat="40.0713233" lon="-105.2299005">
  <ele>1583.21</ele>
  <time>2026-08-28T17:56:26Z</time>
  <course>236.93</course>
  <speed>2.7126555254952667</speed>
  <fix>3d</fix>
</trkpt>
<trkpt lat="40.0713257" lon="-105.2298957">
  <ele>1583.0</ele>
  <time>2026-08-28T17:56:26Z</time>
  <course>235.8</course>
  <speed>2.75</speed>
  <fix>3d</fix>
</trkpt>
<trkpt lat="40.0713219" lon="-105.2299031">
  <ele>1583.2</ele>
  <time>2026-08-28T17:56:26Z</time>
  <course>236.86</course>
  <speed>2.704403816000857</speed>
  <fix>3d</fix>
</trkpt>
<trkpt lat="40.0713257" lon="-105.2298957">
  <ele>1583.0</ele>
  <time>2026-08-28T17:56:26Z</time>
  <course>235.8</course>
  <speed>2.75</speed>
  <fix>3d</fix>
</trkpt>
<trkpt lat="40.0713206" lon="-105.2299056">
  <ele>1583.2</ele>
  <time>2026-08-28T17:56:26Z</time>
  <course>236.8</course>
  <speed>2.6961639416029586</speed>
  <fix>3d</fix>
</trkpt>
<trkpt lat="40.0713229" lon="-105.229901">
  <ele>1583.0</ele>
  <time>2026-08-28T17:56:26Z</time>
  <course>235.63</course>
  <speed>2.72</speed>
  <fix>3d</fix>
</trkpt>
<trkpt lat="40.0713192" lon="-105.2299082">
  <ele>1583.2</ele>
  <time>2026-08-28T17:56:26Z</time>
  <course>236.74</course>
  <speed>2.6879360111431225</speed>
  <fix>3d</fix>
</trkpt>
<trkpt lat="40.0713229" lon="-105.229901">
  <ele>1583.0</ele>
  <time>2026-08-28T17:56:26Z</time>
  <course>235.63</course>
  <speed>2.72</speed>
  <fix>3d</fix>
</trkpt>
<trkpt lat="40.0713178" lon="-105.2299108">
  <ele>1583.2</ele>
  <time>2026-08-28T17:56:26Z</time>
  <course>236.67</course>
  <speed>2.6879360111431225</speed>
  <fix>3d</fix>
</trkpt>
<trkpt lat="40.0713201" lon="-105.2299063">
  <ele>1583.0</ele>
  <time>2026-08-28T17:56:26Z</time>
  <course>235.49</course>
  <speed>2.71</speed>
  <fix>3d</fix>
</trkpt>
<trkpt lat="40.0713167" lon="-105.2299128">
  <ele>1583.2</ele>
  <time>2026-08-28T17:56:26Z</time>
  <course>236.63</course>
  <speed>2.693640659033792</speed>
  <fix>3d</fix>
</trkpt>
<trkpt lat="40.0713201" lon="-105.2299063">
  <ele>1583.0</ele>
  <time>2026-08-28T17:56:26Z</time>
  <course>235.49</course>
  <speed>2.71</speed>
  <fix>3d</fix>
</trkpt>
<trkpt lat="40.0713153" lon="-105.2299154">
  <ele>1583.2</ele>
  <time>2026-08-28T17:56:26Z</time>
  <course>236.57</course>
  <speed>2.693640659033792</speed>
  <fix>3d</fix>
</trkpt>
<trkpt lat="40.0713174" lon="-105.2299116">
  <ele>1583.0</ele>
  <time>2026-08-28T17:56:26Z</time>
  <course>235.38</course>
  <speed>2.72</speed>
  <fix>3d</fix>
</trkpt>
<trkpt lat="40.071314" lon="-105.229918">
  <ele>1583.19</ele>
  <time>2026-08-28T17:56:26Z</time>
  <course>236.52</course>
  <speed>2.7075634803269155</speed>
  <fix>3d</fix>
</trkpt>
<trkpt lat="40.0713174" lon="-105.2299116">
  <ele>1583.0</ele>
  <time>2026-08-28T17:56:26Z</time>
  <course>235.38</course>
  <speed>2.72</speed>
  <fix>3d</fix>
</trkpt>
<trkpt lat="40.0713126" lon="-105.2299207">
  <ele>1583.19</ele>
  <time>2026-08-28T17:56:26Z</time>
  <course>236.48</course>
  <speed>2.7075634803269155</speed>
  <fix>3d</fix>
</trkpt>
<trkpt lat="40.0713145" lon="-105.2299168">
  <ele>1583.0</ele>
  <time>2026-08-28T17:56:26Z</time>
  <course>235.29</course>
  <speed>2.73</speed>
  <fix>3d</fix>
</trkpt>
<trkpt lat="40.0713111" lon="-105.2299233">
  <ele>1583.19</ele>
  <time>2026-08-28T17:56:26Z</time>
  <course>236.44</course>
  <speed>2.721488563268271</speed>
  <fix>3d</fix>
</trkpt>
<trkpt lat="40.0713145" lon="-105.2299168">
  <ele>1583.0</ele>
  <time>2026-08-28T17:56:26Z</time>
  <course>235.29</course>
  <speed>2.73</speed>
  <fix>3d</fix>
</trkpt>
<trkpt lat="40.0713097" lon="-105.2299259">
  <ele>1583.19</ele>
  <time>2026-08-28T17:56:26Z</time>
  <course>236.41</course>
  <speed>2.721488563268271</speed>
  <fix>3d</fix>
</trkpt>
<trkpt lat="40.0713118" lon="-105.2299221">
  <ele>1583.0</ele>
  <time>2026-08-28T17:56:26Z</time>
  <course>235.22</course>
  <speed>2.75</speed>
  <fix>3d</fix>
</trkpt>
<trkpt lat="40.0713083" lon="-105.2299286">
  <ele>1583.18</ele>
  <time>2026-08-28T17:56:26Z</time>
  <course>236.39</course>
  <speed>2.729688626931651</speed>
  <fix>3d</fix>
</trkpt>
<trkpt lat="40.0713118" lon="-105.2299221">
  <ele>1583.0</ele>
  <time>2026-08-28T17:56:26Z</time>
  <course>235.22</course>
  <speed>2.75</speed>
  <fix>3d</fix>
</trkpt>
<trkpt lat="40.0713069" lon="-105.2299313">
  <ele>1583.18</ele>
  <time>2026-08-28T17:56:26Z</time>
  <course>236.38</course>
  <speed>2.735415873317986</speed>
  <fix>3d</fix>
</trkpt>
<trkpt lat="40.0713089" lon="-105.2299275">
  <ele>1583.0</ele>
  <time>2026-08-28T17:56:26Z</time>
  <course>235.18</course>
  <speed>2.76</speed>
  <fix>3d</fix>
</trkpt>
<trkpt lat="40.0713054" lon="-105.229934">
  <ele>1583.17</ele>
  <time>2026-08-28T17:56:26Z</time>
  <course>236.38</course>
  <speed>2.7436107595648473</speed>
  <fix>3d</fix>
</trkpt>
<trkpt lat="40.0713089" lon="-105.2299275">
  <ele>1583.0</ele>
  <time>2026-08-28T17:56:26Z</time>
  <course>235.18</course>
  <speed>2.76</speed>
  <fix>3d</fix>
</trkpt>
<trkpt lat="40.071304" lon="-105.2299366">
  <ele>1583.17</ele>
  <time>2026-08-28T17:56:26Z</time>
  <course>236.39</course>
  <speed>2.7436107595648473</speed>
  <fix>3d</fix>
</trkpt>
<trkpt lat="40.0713061" lon="-105.2299328">
  <ele>1583.0</ele>
  <time>2026-08-28T17:56:26Z</time>
  <course>235.16</course>
  <speed>2.77</speed>
  <fix>3d</fix>
</trkpt>
<trkpt lat="40.0713023" lon="-105.2299399">
  <ele>1583.17</ele>
  <time>2026-08-28T17:56:26Z</time>
  <course>236.41</course>
  <speed>2.7518175811634027</speed>
  <fix>3d</fix>
</trkpt>
<trkpt lat="40.0713061" lon="-105.2299328">
  <ele>1583.0</ele>
  <time>2026-08-28T17:56:26Z</time>
  <course>235.16</course>
  <speed>2.77</speed>
  <fix>3d</fix>
</trkpt>
<trkpt lat="40.0713009" lon="-105.2299426">
  <ele>1583.17</ele>
  <time>2026-08-28T17:56:26Z</time>
  <course>236.44</course>
  <speed>2.7518175811634027</speed>
  <fix>3d</fix>
</trkpt>
<trkpt lat="40.0713032" lon="-105.2299381">
  <ele>1583.0</ele>
  <time>2026-08-28T17:56:26Z</time>
  <course>235.16</course>
  <speed>2.78</speed>
  <fix>3d</fix>
</trkpt>
<trkpt lat="40.0712994" lon="-105.2299452">
  <ele>1583.16</ele>
  <time>2026-08-28T17:56:26Z</time>
  <course>236.46</course>
  <speed>2.7518175811634027</speed>
  <fix>3d</fix>
</trkpt>
<trkpt lat="40.0713032" lon="-105.2299381">
  <ele>1583.0</ele>
  <time>2026-08-28T17:56:26Z</time>
  <course>235.16</course>
  <speed>2.78</speed>
  <fix>3d</fix>
</trkpt>
<trkpt lat="40.071298" lon="-105.2299479">
  <ele>1583.16</ele>
  <time>2026-08-28T17:56:26Z</time>
  <course>236.49</course>
  <speed>2.760036231646244</speed>
  <fix>3d</fix>
</trkpt>
<trkpt lat="40.0713004" lon="-105.2299435">
  <ele>1583.0</ele>
  <time>2026-08-28T17:56:26Z</time>
  <course>235.17</course>
  <speed>2.79</speed>
  <fix>3d</fix>
</trkpt>
<trkpt lat="40.0712966" lon="-105.2299507">
  <ele>1583.16</ele>
  <time>2026-08-28T17:56:26Z</time>
  <course>236.52</course>
  <speed>2.760036231646244</speed>
  <fix>3d</fix>
</trkpt>
<trkpt lat="40.0713004" lon="-105.2299435">
  <ele>1583.0</ele>
  <time>2026-08-28T17:56:26Z</time>
  <course>235.17</course>
  <speed>2.79</speed>
  <fix>3d</fix>
</trkpt>
<trkpt lat="40.0712952" lon="-105.2299534">
  <ele>1583.16</ele>
  <time>2026-08-28T17:56:26Z</time>
  <course>236.55</course>
  <speed>2.7682666056577716</speed>
  <fix>3d</fix>
</trkpt>
<trkpt lat="40.0712975" lon="-105.229949">
  <ele>1583.0</ele>
  <time>2026-08-28T17:56:26Z</time>
  <course>235.21</course>
  <speed>2.79</speed>
  <fix>3d</fix>
</trkpt>
<trkpt lat="40.0712937" lon="-105.2299561">
  <ele>1583.16</ele>
  <time>2026-08-28T17:56:26Z</time>
  <course>236.57</course>
  <speed>2.7682666056577716</speed>
  <fix>3d</fix>
</trkpt>
<trkpt lat="40.0712975" lon="-105.229949">
  <ele>1583.0</ele>
  <time>2026-08-28T17:56:26Z</time>
  <course>235.21</course>
  <speed>2.79</speed>
  <fix>3d</fix>
</trkpt>
<trkpt lat="40.0712923" lon="-105.2299588">
  <ele>1583.16</ele>
  <time>2026-08-28T17:56:26Z</time>
  <course>236.6</course>
  <speed>2.7682666056577716</speed>
  <fix>3d</fix>
</trkpt>
<trkpt lat="40.0712946" lon="-105.2299544">
  <ele>1583.0</ele>
  <time>2026-08-28T17:56:26Z</time>
  <course>235.25</course>
  <speed>2.8</speed>
  <fix>3d</fix>
</trkpt>
<trkpt lat="40.0712909" lon="-105.2299615">
  <ele>1583.16</ele>
  <time>2026-08-28T17:56:26Z</time>
  <course>236.62</course>
  <speed>2.776508598942204</speed>
  <fix>3d</fix>
</trkpt>
<trkpt lat="40.0712946" lon="-105.2299544">
  <ele>1583.0</ele>
  <time>2026-08-28T17:56:26Z</time>
  <course>235.25</course>
  <speed>2.8</speed>
  <fix>3d</fix>
</trkpt>
<trkpt lat="40.0712895" lon="-105.2299642">
  <ele>1583.16</ele>
  <time>2026-08-28T17:56:26Z</time>
  <course>236.65</course>
  <speed>2.7708662905308152</speed>
  <fix>3d</fix>
</trkpt>
<trkpt lat="40.0712917" lon="-105.2299597">
  <ele>1583.0</ele>
  <time>2026-08-28T17:56:26Z</time>
  <course>235.32</course>
  <speed>2.81</speed>
  <fix>3d</fix>
</trkpt>
<trkpt lat="40.0712881" lon="-105.2299669">
  <ele>1583.16</ele>
  <time>2026-08-28T17:56:26Z</time>
  <course>236.67</course>
  <speed>2.7791365565585293</speed>
  <fix>3d</fix>
</trkpt>
<trkpt lat="40.0712917" lon="-105.2299597">
  <ele>1583.0</ele>
  <time>2026-08-28T17:56:26Z</time>
  <course>235.32</course>
  <speed>2.81</speed>
  <fix>3d</fix>
</trkpt>
<trkpt lat="40.0712869" lon="-105.2299691">
  <ele>1583.16</ele>
  <time>2026-08-28T17:56:26Z</time>
  <course>236.7</course>
  <speed>2.7791365565585293</speed>
  <fix>3d</fix>
</trkpt>
<trkpt lat="40.0712889" lon="-105.2299652">
  <ele>1583.0</ele>
  <time>2026-08-28T17:56:26Z</time>
  <course>235.39</course>
  <speed>2.81</speed>
  <fix>3d</fix>
</trkpt>
<trkpt lat="40.0712855" lon="-105.2299718">
  <ele>1583.16</ele>
  <time>2026-08-28T17:56:26Z</time>
  <course>236.74</course>
  <speed>2.787418160233588</speed>
  <fix>3d</fix>
</trkpt>
<trkpt lat="40.0712889" lon="-105.2299652">
  <ele>1583.0</ele>
  <time>2026-08-28T17:56:26Z</time>
  <course>235.39</course>
  <speed>2.81</speed>
  <fix>3d</fix>
</trkpt>
<trkpt lat="40.0712841" lon="-105.2299745">
  <ele>1583.16</ele>
  <time>2026-08-28T17:56:26Z</time>
  <course>236.78</course>
  <speed>2.787418160233588</speed>
  <fix>3d</fix>
</trkpt>
<trkpt lat="40.071286" lon="-105.2299707">
  <ele>1583.0</ele>
  <time>2026-08-28T17:56:26Z</time>
  <course>235.48</course>
  <speed>2.82</speed>
  <fix>3d</fix>
</trkpt>
<trkpt lat="40.0712826" lon="-105.2299773">
  <ele>1583.16</ele>
  <time>2026-08-28T17:56:26Z</time>
  <course>236.83</course>
  <speed>2.7957110008010484</speed>
  <fix>3d</fix>
</trkpt>
<trkpt lat="40.071286" lon="-105.2299707">
  <ele>1583.0</ele>
  <time>2026-08-28T17:56:26Z</time>
  <course>235.48</course>
  <speed>2.82</speed>
  <fix>3d</fix>
</trkpt>
<trkpt lat="40.0712812" lon="-105.2299801">
  <ele>1583.16</ele>
  <time>2026-08-28T17:56:26Z</time>
  <course>236.89</course>
  <speed>2.7957110008010484</speed>
  <fix>3d</fix>
</trkpt>
<trkpt lat="40.0712831" lon="-105.2299761">
  <ele>1583.0</ele>
  <time>2026-08-28T17:56:26Z</time>
  <course>235.58</course>
  <speed>2.83</speed>
  <fix>3d</fix>
</trkpt>
<trkpt lat="40.0712798" lon="-105.2299828">
  <ele>1583.17</ele>
  <time>2026-08-28T17:56:26Z</time>
  <course>236.95</course>
  <speed>2.8040149785619906</speed>
  <fix>3d</fix>
</trkpt>
<trkpt lat="40.0712831" lon="-105.2299761">
  <ele>1583.0</ele>
  <time>2026-08-28T17:56:26Z</time>
  <course>235.58</course>
  <speed>2.83</speed>
  <fix>3d</fix>
</trkpt>
<trkpt lat="40.0712783" lon="-105.2299856">
  <ele>1583.17</ele>
  <time>2026-08-28T17:56:26Z</time>
  <course>237.03</course>
  <speed>2.8040149785619906</speed>
  <fix>3d</fix>
</trkpt>
<trkpt lat="40.0712802" lon="-105.2299816">
  <ele>1583.0</ele>
  <time>2026-08-28T17:56:26Z</time>
  <course>235.69</course>
  <speed>2.84</speed>
  <fix>3d</fix>
</trkpt>
<trkpt lat="40.0712769" lon="-105.2299884">
  <ele>1583.17</ele>
  <time>2026-08-28T17:56:26Z</time>
  <course>237.11</course>
  <speed>2.8040149785619906</speed>
  <fix>3d</fix>
</trkpt>
<trkpt lat="40.0712802" lon="-105.2299816">
  <ele>1583.0</ele>
  <time>2026-08-28T17:56:26Z</time>
  <course>235.69</course>
  <speed>2.84</speed>
  <fix>3d</fix>
</trkpt>
<trkpt lat="40.0712754" lon="-105.2299912">
  <ele>1583.17</ele>
  <time>2026-08-28T17:56:26Z</time>
  <course>237.19</course>
  <speed>2.8040149785619906</speed>
  <fix>3d</fix>
</trkpt>
<trkpt lat="40.0712774" lon="-105.2299871">
  <ele>1583.0</ele>
  <time>2026-08-28T17:56:26Z</time>
  <course>235.81</course>
  <speed>2.84</speed>
  <fix>3d</fix>
</trkpt>
<trkpt lat="40.071274" lon="-105.2299939">
  <ele>1583.17</ele>
  <time>2026-08-28T17:56:26Z</time>
  <course>237.28</course>
  <speed>2.8123299948619116</speed>
  <fix>3d</fix>
</trkpt>
<trkpt lat="40.0712774" lon="-105.2299871">
  <ele>1583.0</ele>
  <time>2026-08-28T17:56:26Z</time>
  <course>235.81</course>
  <speed>2.84</speed>
  <fix>3d</fix>
</trkpt>
<trkpt lat="40.0712723" lon="-105.2299973">
  <ele>1583.17</ele>
  <time>2026-08-28T17:56:26Z</time>
  <course>237.39</course>
  <speed>2.8067953256338445</speed>
  <fix>3d</fix>
</trkpt>
<trkpt lat="40.0712745" lon="-105.2299927">
  <ele>1583.0</ele>
  <time>2026-08-28T17:56:26Z</time>
  <course>235.95</course>
  <speed>2.84</speed>
  <fix>3d</fix>
</trkpt>
<trkpt lat="40.0712709" lon="-105.2300001">
  <ele>1583.17</ele>
  <time>2026-08-28T17:56:26Z</time>
  <course>237.47</course>
  <speed>2.8067953256338445</speed>
  <fix>3d</fix>
</trkpt>
<trkpt lat="40.0712745" lon="-105.2299927">
  <ele>1583.0</ele>
  <time>2026-08-28T17:56:26Z</time>
  <course>235.95</course>
  <speed>2.84</speed>
  <fix>3d</fix>
</trkpt>
<trkpt lat="40.0712694" lon="-105.2300028">
  <ele>1583.17</ele>
  <time>2026-08-28T17:56:26Z</time>
  <course>237.56</course>
  <speed>2.8151376520518494</speed>
  <fix>3d</fix>
</trkpt>
<trkpt lat="40.0712716" lon="-105.2299982">
  <ele>1583.0</ele>
  <time>2026-08-28T17:56:26Z</time>
  <course>236.09</course>
  <speed>2.85</speed>
  <fix>3d</fix>
</trkpt>
<trkpt lat="40.071268" lon="-105.2300056">
  <ele>1583.17</ele>
  <time>2026-08-28T17:56:26Z</time>
  <course>237.64</course>
  <speed>2.8151376520518494</speed>
  <fix>3d</fix>
</trkpt>
<trkpt lat="40.0712716" lon="-105.2299982">
  <ele>1583.0</ele>
  <time>2026-08-28T17:56:26Z</time>
  <course>236.09</course>
  <speed>2.85</speed>
  <fix>3d</fix>
</trkpt>
<trkpt lat="40.0712666" lon="-105.2300084">
  <ele>1583.16</ele>
  <time>2026-08-28T17:56:26Z</time>
  <course>237.72</course>
  <speed>2.82349074728429</speed>
  <fix>3d</fix>
</trkpt>
<trkpt lat="40.0712688" lon="-105.2300037">
  <ele>1583.0</ele>
  <time>2026-08-28T17:56:26Z</time>
  <course>236.25</course>
  <speed>2.85</speed>
  <fix>3d</fix>
</trkpt>
<trkpt lat="40.0712652" lon="-105.2300112">
  <ele>1583.16</ele>
  <time>2026-08-28T17:56:26Z</time>
  <course>237.8</course>
  <speed>2.82349074728429</speed>
  <fix>3d</fix>
</trkpt>
<trkpt lat="40.0712688" lon="-105.2300037">
  <ele>1583.0</ele>
  <time>2026-08-28T17:56:26Z</time>
  <course>236.25</course>
  <speed>2.85</speed>
  <fix>3d</fix>
</trkpt>
<trkpt lat="40.0712637" lon="-105.230014">
  <ele>1583.16</ele>
  <time>2026-08-28T17:56:26Z</time>
  <course>237.88</course>
  <speed>2.8180134847086875</speed>
  <fix>3d</fix>
</trkpt>
<trkpt lat="40.0712659" lon="-105.2300094">
  <ele>1583.0</ele>
  <time>2026-08-28T17:56:26Z</time>
  <course>236.42</course>
  <speed>2.86</speed>
  <fix>3d</fix>
</trkpt>
<trkpt lat="40.0712623" lon="-105.2300168">
  <ele>1583.16</ele>
  <time>2026-08-28T17:56:26Z</time>
  <course>237.96</course>
  <speed>2.8263934616397624</speed>
  <fix>3d</fix>
</trkpt>
<trkpt lat="40.0712659" lon="-105.2300094">
  <ele>1583.0</ele>
  <time>2026-08-28T17:56:26Z</time>
  <course>236.42</course>
  <speed>2.86</speed>
  <fix>3d</fix>
</trkpt>
<trkpt lat="40.0712609" lon="-105.2300196">
  <ele>1583.16</ele>
  <time>2026-08-28T17:56:26Z</time>
  <course>238.04</course>
  <speed>2.8263934616397624</speed>
  <fix>3d</fix>
</trkpt>
<trkpt lat="40.071263" lon="-105.230015">
  <ele>1583.0</ele>
  <time>2026-08-28T17:56:26Z</time>
  <course>236.59</course>
  <speed>2.87</speed>
  <fix>3d</fix>
</trkpt>
<trkpt lat="40.0712595" lon="-105.2300224">
  <ele>1583.16</ele>
  <time>2026-08-28T17:56:26Z</time>
  <course>238.13</course>
  <speed>2.834783942384322</speed>
  <fix>3d</fix>
</trkpt>
<trkpt lat="40.071263" lon="-105.230015">
  <ele>1583.0</ele>
  <time>2026-08-28T17:56:26Z</time>
  <course>236.59</course>
  <speed>2.87</speed>
  <fix>3d</fix>
</trkpt>
<trkpt lat="40.0712581" lon="-105.2300252">
  <ele>1583.16</ele>
  <time>2026-08-28T17:56:26Z</time>
  <course>238.22</course>
  <speed>2.8293638861058503</speed>
  <fix>3d</fix>
</trkpt>
<trkpt lat="40.0712603" lon="-105.2300207">
  <ele>1583.0</ele>
  <time>2026-08-28T17:56:26Z</time>
  <course>236.77</course>
  <speed>2.87</speed>
  <fix>3d</fix>
</trkpt>
<trkpt lat="40.071257" lon="-105.2300274">
  <ele>1583.16</ele>
  <time>2026-08-28T17:56:26Z</time>
  <course>238.29</course>
  <speed>2.8377808231080848</speed>
  <fix>3d</fix>
</trkpt>
<trkpt lat="40.0712603" lon="-105.2300207">
  <ele>1583.0</ele>
  <time>2026-08-28T17:56:26Z</time>
  <course>236.77</course>
  <speed>2.87</speed>
  <fix>3d</fix>
</trkpt>
<trkpt lat="40.0712556" lon="-105.2300303">
  <ele>1583.16</ele>
  <time>2026-08-28T17:56:26Z</time>
  <course>238.4</course>
  <speed>2.8377808231080848</speed>
  <fix>3d</fix>
</trkpt>
<trkpt lat="40.0712574" lon="-105.2300263">
  <ele>1583.0</ele>
  <time>2026-08-28T17:56:26Z</time>
  <course>236.96</course>
  <speed>2.88</speed>
  <fix>3d</fix>
</trkpt>
<trkpt lat="40.0712542" lon="-105.2300331">
  <ele>1583.16</ele>
  <time>2026-08-28T17:56:26Z</time>
  <course>238.5</course>
  <speed>2.8462080036427415</speed>
  <fix>3d</fix>
</trkpt>
<trkpt lat="40.0712574" lon="-105.2300263">
  <ele>1583.0</ele>
  <time>2026-08-28T17:56:26Z</time>
  <course>236.96</course>
  <speed>2.88</speed>
  <fix>3d</fix>
</trkpt>
<trkpt lat="40.0712528" lon="-105.230036">
  <ele>1583.16</ele>
  <time>2026-08-28T17:56:26Z</time>
  <course>238.61</course>
  <speed>2.8492981591964015</speed>
  <fix>3d</fix>
</trkpt>
<trkpt lat="40.0712546" lon="-105.230032">
  <ele>1583.0</ele>
  <time>2026-08-28T17:56:26Z</time>
  <course>237.15</course>
  <speed>2.89</speed>
  <fix>3d</fix>
</trkpt>
<trkpt lat="40.0712514" lon="-105.2300389">
  <ele>1583.16</ele>
  <time>2026-08-28T17:56:26Z</time>
  <course>238.72</course>
  <speed>2.8492981591964015</speed>
  <fix>3d</fix>
</trkpt>
<trkpt lat="40.0712546" lon="-105.230032">
  <ele>1583.0</ele>
  <time>2026-08-28T17:56:26Z</time>
  <course>237.15</course>
  <speed>2.89</speed>
  <fix>3d</fix>
</trkpt>
<trkpt lat="40.07125" lon="-105.2300417">
  <ele>1583.16</ele>
  <time>2026-08-28T17:56:26Z</time>
  <course>238.83</course>
  <speed>2.8577613616255646</speed>
  <fix>3d</fix>
</trkpt>
<trkpt lat="40.0712518" lon="-105.2300377">
  <ele>1583.0</ele>
  <time>2026-08-28T17:56:26Z</time>
  <course>237.35</course>
  <speed>2.89</speed>
  <fix>3d</fix>
</trkpt>
<trkpt lat="40.0712486" lon="-105.2300446">
  <ele>1583.15</ele>
  <time>2026-08-28T17:56:26Z</time>
  <course>238.93</course>
  <speed>2.8524550829066526</speed>
  <fix>3d</fix>
</trkpt>
<trkpt lat="40.0712518" lon="-105.2300377">
  <ele>1583.0</ele>
  <time>2026-08-28T17:56:26Z</time>
  <course>237.35</course>
  <speed>2.89</speed>
  <fix>3d</fix>
</trkpt>
<trkpt lat="40.0712472" lon="-105.2300475">
  <ele>1583.15</ele>
  <time>2026-08-28T17:56:26Z</time>
  <course>239.03</course>
  <speed>2.8609439001839934</speed>
  <fix>3d</fix>
</trkpt>
<trkpt lat="40.0712489" lon="-105.2300434">
  <ele>1583.0</ele>
  <time>2026-08-28T17:56:26Z</time>
  <course>237.54</course>
  <speed>2.89</speed>
  <fix>3d</fix>
</trkpt>
<trkpt lat="40.0712458" lon="-105.2300504">
  <ele>1583.15</ele>
  <time>2026-08-28T17:56:26Z</time>
  <course>239.13</course>
  <speed>2.8556785533389433</speed>
  <fix>3d</fix>
</trkpt>
<trkpt lat="40.0712489" lon="-105.2300434">
  <ele>1583.0</ele>
  <time>2026-08-28T17:56:26Z</time>
  <course>237.54</course>
  <speed>2.89</speed>
  <fix>3d</fix>
</trkpt>
<trkpt lat="40.0712444" lon="-105.2300533">
  <ele>1583.15</ele>
  <time>2026-08-28T17:56:26Z</time>
  <course>239.22</course>
  <speed>2.864192730945318</speed>
  <fix>3d</fix>
</trkpt>
<trkpt lat="40.0712462" lon="-105.2300492">
  <ele>1583.0</ele>
  <time>2026-08-28T17:56:26Z</time>
  <course>237.72</course>
  <speed>2.89</speed>
  <fix>3d</fix>
</trkpt>
<trkpt lat="40.0712427" lon="-105.2300568">
  <ele>1583.14</ele>
  <time>2026-08-28T17:56:26Z</time>
  <course>239.32</course>
  <speed>2.8589683454001373</speed>
  <fix>3d</fix>
</trkpt>
<trkpt lat="40.0712462" lon="-105.2300492">
  <ele>1583.0</ele>
  <time>2026-08-28T17:56:26Z</time>
  <course>237.72</course>
  <speed>2.89</speed>
  <fix>3d</fix>
</trkpt>
<trkpt lat="40.0712414" lon="-105.2300597">
  <ele>1583.14</ele>
  <time>2026-08-28T17:56:26Z</time>
  <course>239.4</course>
  <speed>2.8589683454001373</speed>
  <fix>3d</fix>
</trkpt>
<trkpt lat="40.0712434" lon="-105.2300549">
  <ele>1583.0</ele>
  <time>2026-08-28T17:56:26Z</time>
  <course>237.91</course>
  <speed>2.89</speed>
  <fix>3d</fix>
</trkpt>
<trkpt lat="40.07124" lon="-105.2300626">
  <ele>1583.13</ele>
  <time>2026-08-28T17:56:26Z</time>
  <course>239.47</course>
  <speed>2.8623242304113625</speed>
  <fix>3d</fix>
</trkpt>
<trkpt lat="40.0712434" lon="-105.2300549">
  <ele>1583.0</ele>
  <time>2026-08-28T17:56:26Z</time>
  <course>237.91</course>
  <speed>2.89</speed>
  <fix>3d</fix>
</trkpt>
<trkpt lat="40.0712386" lon="-105.2300655">
  <ele>1583.13</ele>
  <time>2026-08-28T17:56:26Z</time>
  <course>239.55</course>
  <speed>2.8623242304113625</speed>
  <fix>3d</fix>
</trkpt>
<trkpt lat="40.0712407" lon="-105.2300607">
  <ele>1583.0</ele>
  <time>2026-08-28T17:56:26Z</time>
  <course>238.09</course>
  <speed>2.89</speed>
  <fix>3d</fix>
</trkpt>
<trkpt lat="40.0712372" lon="-105.2300685">
  <ele>1583.13</ele>
  <time>2026-08-28T17:56:26Z</time>
  <course>239.62</course>
  <speed>2.8623242304113625</speed>
  <fix>3d</fix>
</trkpt>
<trkpt lat="40.0712407" lon="-105.2300607">
  <ele>1583.0</ele>
  <time>2026-08-28T17:56:26Z</time>
  <course>238.09</course>
  <speed>2.89</speed>
  <fix>3d</fix>
</trkpt>
<trkpt lat="40.0712359" lon="-105.2300714">
  <ele>1583.13</ele>
  <time>2026-08-28T17:56:26Z</time>
  <course>239.7</course>
  <speed>2.8657459761814197</speed>
  <fix>3d</fix>
</trkpt>
<trkpt lat="40.0712379" lon="-105.2300664">
  <ele>1583.0</ele>
  <time>2026-08-28T17:56:26Z</time>
  <course>238.27</course>
  <speed>2.89</speed>
  <fix>3d</fix>
</trkpt>
<trkpt lat="40.0712345" lon="-105.2300743">
  <ele>1583.12</ele>
  <time>2026-08-28T17:56:26Z</time>
  <course>239.78</course>
  <speed>2.8657459761814197</speed>
  <fix>3d</fix>
</trkpt>
<trkpt lat="40.0712379" lon="-105.2300664">
  <ele>1583.0</ele>
  <time>2026-08-28T17:56:26Z</time>
  <course>238.27</course>
  <speed>2.89</speed>
  <fix>3d</fix>
</trkpt>
<trkpt lat="40.0712332" lon="-105.2300772">
  <ele>1583.12</ele>
  <time>2026-08-28T17:56:26Z</time>
  <course>239.86</course>
  <speed>2.8657459761814197</speed>
  <fix>3d</fix>
</trkpt>
<trkpt lat="40.0712352" lon="-105.2300722">
  <ele>1583.0</ele>
  <time>2026-08-28T17:56:26Z</time>
  <course>238.45</course>
  <speed>2.89</speed>
  <fix>3d</fix>
</trkpt>
<trkpt lat="40.0712318" lon="-105.23008">
  <ele>1583.12</ele>
  <time>2026-08-28T17:56:26Z</time>
  <course>239.89</course>
  <speed>2.860629301395062</speed>
  <fix>3d</fix>
</trkpt>
<trkpt lat="40.0712352" lon="-105.2300722">
  <ele>1583.0</ele>
  <time>2026-08-28T17:56:26Z</time>
  <course>238.45</course>
  <speed>2.89</speed>
  <fix>3d</fix>
</trkpt>
<trkpt lat="40.0712305" lon="-105.2300829">
  <ele>1583.12</ele>
  <time>2026-08-28T17:56:26Z</time>
  <course>239.89</course>
  <speed>2.8383269720030495</speed>
  <fix>3d</fix>
</trkpt>
<trkpt lat="40.0712325" lon="-105.2300781">
  <ele>1583.0</ele>
  <time>2026-08-28T17:56:26Z</time>
  <course>238.56</course>
  <speed>2.88</speed>
  <fix>3d</fix>
</trkpt>
<trkpt lat="40.0712292" lon="-105.2300857">
  <ele>1583.12</ele>
  <time>2026-08-28T17:56:26Z</time>
  <course>239.83</course>
  <speed>2.807436553156634</speed>
  <fix>3d</fix>
</trkpt>
<trkpt lat="40.0712325" lon="-105.2300781">
  <ele>1583.0</ele>
  <time>2026-08-28T17:56:26Z</time>
  <course>238.56</course>
  <speed>2.88</speed>
  <fix>3d</fix>
</trkpt>
<trkpt lat="40.0712281" lon="-105.230088">
  <ele>1583.12</ele>
  <time>2026-08-28T17:56:26Z</time>
  <course>239.74</course>
  <speed>2.7628427389194634</speed>
  <fix>3d</fix>
</trkpt>
<trkpt lat="40.0712298" lon="-105.2300838">
  <ele>1583.0</ele>
  <time>2026-08-28T17:56:26Z</time>
  <course>238.51</course>
  <speed>2.84</speed>
  <fix>3d</fix>
</trkpt>
<trkpt lat="40.0712268" lon="-105.2300907">
  <ele>1583.12</ele>
  <time>2026-08-28T17:56:26Z</time>
  <course>239.58</course>
  <speed>2.692582403567252</speed>
  <fix>3d</fix>
</trkpt>
<trkpt lat="40.0712298" lon="-105.2300838">
  <ele>1583.0</ele>
  <time>2026-08-28T17:56:26Z</time>
  <course>238.51</course>
  <speed>2.84</speed>
  <fix>3d</fix>
</trkpt>
<trkpt lat="40.0712255" lon="-105.2300934">
  <ele>1583.12</ele>
  <time>2026-08-28T17:56:26Z</time>
  <course>239.33</course>
  <speed>2.5949373788205374</speed>
  <fix>3d</fix>
</trkpt>
<trkpt lat="40.0712271" lon="-105.2300894">
  <ele>1583.0</ele>
  <time>2026-08-28T17:56:26Z</time>
  <course>238.23</course>
  <speed>2.73</speed>
  <fix>3d</fix>
</trkpt>
<trkpt lat="40.0712243" lon="-105.2300959">
  <ele>1583.12</ele>
  <time>2026-08-28T17:56:26Z</time>
  <course>239.0</course>
  <speed>2.488875247978492</speed>
  <fix>3d</fix>
</trkpt>
<trkpt lat="40.0712271" lon="-105.2300894">
  <ele>1583.0</ele>
  <time>2026-08-28T17:56:26Z</time>
  <course>238.23</course>
  <speed>2.73</speed>
  <fix>3d</fix>
</trkpt>
<trkpt lat="40.0712231" lon="-105.2300984">
  <ele>1583.12</ele>
  <time>2026-08-28T17:56:26Z</time>
  <course>238.56</course>
  <speed>2.3469128658729534</speed>
  <fix>3d</fix>
</trkpt>
<trkpt lat="40.0712247" lon="-105.2300947">
  <ele>1583.0</ele>
  <time>2026-08-28T17:56:26Z</time>
  <course>237.66</course>
  <speed>2.53</speed>
  <fix>3d</fix>
</trkpt>
<trkpt lat="40.071222" lon="-105.2301006">
  <ele>1583.12</ele>
  <time>2026-08-28T17:56:26Z</time>
  <course>238.0</course>
  <speed>2.1883555469804263</speed>
  <fix>3d</fix>
</trkpt>
<trkpt lat="40.0712247" lon="-105.2300947">
  <ele>1583.0</ele>
  <time>2026-08-28T17:56:26Z</time>
  <course>237.66</course>
  <speed>2.53</speed>
  <fix>3d</fix>
</trkpt>
<trkpt lat="40.0712209" lon="-105.2301027">
  <ele>1583.12</ele>
  <time>2026-08-28T17:56:26Z</time>
  <course>237.3</course>
  <speed>2.016382900145704</speed>
  <fix>3d</fix>
</trkpt>
<trkpt lat="40.0712223" lon="-105.2300994">
  <ele>1583.0</ele>
  <time>2026-08-28T17:56:26Z</time>
  <course>236.7</course>
  <speed>2.25</speed>
  <fix>3d</fix>
</trkpt>
<trkpt lat="40.0712199" lon="-105.2301045">
  <ele>1583.12</ele>
  <time>2026-08-28T17:56:26Z</time>
  <course>236.5</course>
  <speed>1.8309833423600554</speed>
  <fix>3d</fix>
</trkpt>
<trkpt lat="40.0712223" lon="-105.2300994">
  <ele>1583.0</ele>
  <time>2026-08-28T17:56:26Z</time>
  <course>236.7</course>
  <speed>2.25</speed>
  <fix>3d</fix>
</trkpt>
<trkpt lat="40.0712189" lon="-105.2301062">
  <ele>1583.12</ele>
  <time>2026-08-28T17:56:26Z</time>
  <course>235.58</course>
  <speed>1.6461470165206995</speed>
  <fix>3d</fix>
</trkpt>
<trkpt lat="40.0712202" lon="-105.2301035">
  <ele>1583.0</ele>
  <time>2026-08-28T17:56:26Z</time>
  <course>235.29</course>
  <speed>1.91</speed>
  <fix>3d</fix>
</trkpt>
<trkpt lat="40.0712179" lon="-105.2301079">
  <ele>1583.12</ele>
  <time>2026-08-28T17:56:26Z</time>
  <course>234.32</course>
  <speed>1.4401388821915753</speed>
  <fix>3d</fix>
</trkpt>
<trkpt lat="40.0712202" lon="-105.2301035">
  <ele>1583.0</ele>
  <time>2026-08-28T17:56:26Z</time>
  <course>235.29</course>
  <speed>1.91</speed>
  <fix>3d</fix>
</trkpt>
<trkpt lat="40.0712171" lon="-105.2301092">
  <ele>1583.12</ele>
  <time>2026-08-28T17:56:26Z</time>
  <course>233.13</course>
  <speed>1.2791403363196705</speed>
  <fix>3d</fix>
</trkpt>
<trkpt lat="40.0712184" lon="-105.2301068">
  <ele>1583.0</ele>
  <time>2026-08-28T17:56:26Z</time>
  <course>233.42</course>
  <speed>1.55</speed>
  <fix>3d</fix>
</trkpt>
<trkpt lat="40.0712164" lon="-105.2301102">
  <ele>1583.12</ele>
  <time>2026-08-28T17:56:26Z</time>
  <course>231.82</course>
  <speed>1.1345483682946267</speed>
  <fix>3d</fix>
</trkpt>
<trkpt lat="40.0712184" lon="-105.2301068">
  <ele>1583.0</ele>
  <time>2026-08-28T17:56:26Z</time>
  <course>233.42</course>
  <speed>1.55</speed>
  <fix>3d</fix>
</trkpt>
<trkpt lat="40.0712158" lon="-105.2301112">
  <ele>1583.12</ele>
  <time>2026-08-28T17:56:26Z</time>
  <course>230.36</course>
  <speed>1.026498904042279</speed>
  <fix>3d</fix>
</trkpt>
<trkpt lat="40.0712168" lon="-105.2301094">
  <ele>1583.0</ele>
  <time>2026-08-28T17:56:26Z</time>
  <course>231.05</course>
  <speed>1.25</speed>
  <fix>3d</fix>
</trkpt>
<trkpt lat="40.0712152" lon="-105.230112">
  <ele>1583.12</ele>
  <time>2026-08-28T17:56:26Z</time>
  <course>228.77</course>
  <speed>0.9404786015641186</speed>
  <fix>3d</fix>
</trkpt>
<trkpt lat="40.0712168" lon="-105.2301094">
  <ele>1583.0</ele>
  <time>2026-08-28T17:56:26Z</time>
  <course>231.05</course>
  <speed>1.25</speed>
  <fix>3d</fix>
</trkpt>
<trkpt lat="40.0712146" lon="-105.2301128">
  <ele>1583.12</ele>
  <time>2026-08-28T17:56:26Z</time>
  <course>227.05</course>
  <speed>0.8841379982785493</speed>
  <fix>3d</fix>
</trkpt>
<trkpt lat="40.0712155" lon="-105.2301114">
  <ele>1583.0</ele>
  <time>2026-08-28T17:56:26Z</time>
  <course>228.12</course>
  <speed>1.03</speed>
  <fix>3d</fix>
</trkpt>
<trkpt lat="40.071214" lon="-105.2301135">
  <ele>1583.12</ele>
  <time>2026-08-28T17:56:26Z</time>
  <course>225.18</course>
  <speed>0.8570297544426332</speed>
  <fix>3d</fix>
</trkpt>
<trkpt lat="40.0712155" lon="-105.2301114">
  <ele>1583.0</ele>
  <time>2026-08-28T17:56:26Z</time>
  <course>228.12</course>
  <speed>1.03</speed>
  <fix>3d</fix>
</trkpt>
<trkpt lat="40.0712134" lon="-105.2301141">
  <ele>1583.12</ele>
  <time>2026-08-28T17:56:26Z</time>
  <course>223.2</course>
  <speed>0.859127464349732</speed>
  <fix>3d</fix>
</trkpt>
<trkpt lat="40.0712143" lon="-105.2301131">
  <ele>1583.0</ele>
  <time>2026-08-28T17:56:26Z</time>
  <course>224.6</course>
  <speed>0.92</speed>
  <fix>3d</fix>
</trkpt>
<trkpt lat="40.0712128" lon="-105.2301148">
  <ele>1583.12</ele>
  <time>2026-08-28T17:56:26Z</time>
  <course>221.1</course>
  <speed>0.8840814442120137</speed>
  <fix>3d</fix>
</trkpt>
<trkpt lat="40.0712143" lon="-105.2301131">
  <ele>1583.0</ele>
  <time>2026-08-28T17:56:26Z</time>
  <course>224.6</course>
  <speed>0.92</speed>
  <fix>3d</fix>
</trkpt>
<trkpt lat="40.0712121" lon="-105.2301154">
  <ele>1583.12</ele>
  <time>2026-08-28T17:56:26Z</time>
  <course>218.9</course>
  <speed>0.9323089616645333</speed>
  <fix>3d</fix>
</trkpt>
<trkpt lat="40.0712131" lon="-105.2301145">
  <ele>1583.0</ele>
  <time>2026-08-28T17:56:26Z</time>
  <course>220.54</course>
  <speed>0.93</speed>
  <fix>3d</fix>
</trkpt>
<trkpt lat="40.0712114" lon="-105.2301161">
  <ele>1583.12</ele>
  <time>2026-08-28T17:56:26Z</time>
  <course>216.59</course>
  <speed>1.009554357129917</speed>
  <fix>3d</fix>
</trkpt>
<trkpt lat="40.0712131" lon="-105.2301145">
  <ele>1583.0</ele>
  <time>2026-08-28T17:56:26Z</time>
  <course>220.54</course>
  <speed>0.93</speed>
  <fix>3d</fix>
</trkpt>
<trkpt lat="40.0712106" lon="-105.2301168">
  <ele>1583.12</ele>
  <time>2026-08-28T17:56:26Z</time>
  <course>214.17</course>
  <speed>1.099317970379817</speed>
  <fix>3d</fix>
</trkpt>
<trkpt lat="40.0712117" lon="-105.230116">
  <ele>1583.0</ele>
  <time>2026-08-28T17:56:26Z</time>
  <course>216.03</course>
  <speed>1.03</speed>
  <fix>3d</fix>
</trkpt>
<trkpt lat="40.0712098" lon="-105.2301174">
  <ele>1583.12</ele>
  <time>2026-08-28T17:56:26Z</time>
  <course>212.2</course>
  <speed>1.1820744477400735</speed>
  <fix>3d</fix>
</trkpt>
<trkpt lat="40.0712117" lon="-105.230116">
  <ele>1583.0</ele>
  <time>2026-08-28T17:56:26Z</time>
  <course>216.03</course>
  <speed>1.03</speed>
  <fix>3d</fix>
</trkpt>
<trkpt lat="40.0712088" lon="-105.2301181">
  <ele>1583.13</ele>
  <time>2026-08-28T17:56:26Z</time>
  <course>209.66</course>
  <speed>1.2925169244539896</speed>
  <fix>3d</fix>
</trkpt>
<trkpt lat="40.0712101" lon="-105.2301174">
  <ele>1583.0</ele>
  <time>2026-08-28T17:56:26Z</time>
  <course>211.19</course>
  <speed>1.21</speed>
  <fix>3d</fix>
</trkpt>
<trkpt lat="40.0712077" lon="-105.2301189">
  <ele>1583.13</ele>
  <time>2026-08-28T17:56:26Z</time>
  <course>207.05</course>
  <speed>1.409432509913121</speed>
  <fix>3d</fix>
</trkpt>
<trkpt lat="40.0712101" lon="-105.2301174">
  <ele>1583.0</ele>
  <time>2026-08-28T17:56:26Z</time>
  <course>211.19</course>
  <speed>1.21</speed>
  <fix>3d</fix>
</trkpt>
<trkpt lat="40.0712065" lon="-105.2301196">
  <ele>1583.13</ele>
  <time>2026-08-28T17:56:26Z</time>
  <course>204.39</course>
  <speed>1.520855022676389</speed>
  <fix>3d</fix>
</trkpt>
<trkpt lat="40.071208" lon="-105.2301189">
  <ele>1583.0</ele>
  <time>2026-08-28T17:56:26Z</time>
  <course>206.05</course>
  <speed>1.42</speed>
  <fix>3d</fix>
</trkpt>
<trkpt lat="40.0712051" lon="-105.2301203">
  <ele>1583.14</ele>
  <time>2026-08-28T17:56:26Z</time>
  <course>201.67</course>
  <speed>1.6446884203398529</speed>
  <fix>3d</fix>
</trkpt>
<trkpt lat="40.071208" lon="-105.2301189">
  <ele>1583.0</ele>
  <time>2026-08-28T17:56:26Z</time>
  <course>206.05</course>
  <speed>1.42</speed>
  <fix>3d</fix>
</trkpt>
<trkpt lat="40.0712036" lon="-105.230121">
  <ele>1583.14</ele>
  <time>2026-08-28T17:56:26Z</time>
  <course>198.91</course>
  <speed>1.7652761823578769</speed>
  <fix>3d</fix>
</trkpt>
<trkpt lat="40.0712055" lon="-105.2301203">
  <ele>1583.0</ele>
  <time>2026-08-28T17:56:26Z</time>
  <course>200.68</course>
  <speed>1.64</speed>
  <fix>3d</fix>
</trkpt>
<trkpt lat="40.071202" lon="-105.2301216">
  <ele>1583.14</ele>
  <time>2026-08-28T17:56:26Z</time>
  <course>196.1</course>
  <speed>1.8772320048411704</speed>
  <fix>3d</fix>
</trkpt>
<trkpt lat="40.0712055" lon="-105.2301203">
  <ele>1583.0</ele>
  <time>2026-08-28T17:56:26Z</time>
  <course>200.68</course>
  <speed>1.64</speed>
  <fix>3d</fix>
</trkpt>
<trkpt lat="40.0712002" lon="-105.2301221">
  <ele>1583.14</ele>
  <time>2026-08-28T17:56:26Z</time>
  <course>193.27</course>
  <speed>1.9886176103011861</speed>
  <fix>3d</fix>
</trkpt>
<trkpt lat="40.0712025" lon="-105.2301215">
  <ele>1583.0</ele>
  <time>2026-08-28T17:56:26Z</time>
  <course>195.12</course>
  <speed>1.87</speed>
  <fix>3d</fix>
</trkpt>
<trkpt lat="40.0711983" lon="-105.2301226">
  <ele>1583.14</ele>
  <time>2026-08-28T17:56:26Z</time>
  <course>190.42</course>
  <speed>2.1128653530218156</speed>
  <fix>3d</fix>
</trkpt>
<trkpt lat="40.0712025" lon="-105.2301215">
  <ele>1583.0</ele>
  <time>2026-08-28T17:56:26Z</time>
  <course>195.12</course>
  <speed>1.87</speed>
  <fix>3d</fix>
</trkpt>
<trkpt lat="40.071196" lon="-105.230123">
  <ele>1583.14</ele>
  <time>2026-08-28T17:56:26Z</time>
  <course>187.02</course>
  <speed>2.2489108474992956</speed>
  <fix>3d</fix>
</trkpt>
<trkpt lat="40.071199" lon="-105.2301225">
  <ele>1583.0</ele>
  <time>2026-08-28T17:56:26Z</time>
  <course>189.44</course>
  <speed>2.09</speed>
  <fix>3d</fix>
</trkpt>
<trkpt lat="40.0711938" lon="-105.2301232">
  <ele>1583.14</ele>
  <time>2026-08-28T17:56:26Z</time>
  <course>184.21</course>
  <speed>2.3721087664776253</speed>
  <fix>3d</fix>
</trkpt>
<trkpt lat="40.071199" lon="-105.2301225">
  <ele>1583.0</ele>
  <time>2026-08-28T17:56:26Z</time>
  <course>189.44</course>
  <speed>2.09</speed>
  <fix>3d</fix>
</trkpt>
<trkpt lat="40.0711916" lon="-105.2301232">
  <ele>1583.14</ele>
  <time>2026-08-28T17:56:26Z</time>
  <course>181.45</course>
  <speed>2.5</speed>
  <fix>3d</fix>
</trkpt>
<trkpt lat="40.071195" lon="-105.2301232">
  <ele>1583.0</ele>
  <time>2026-08-28T17:56:26Z</time>
  <course>183.77</course>
  <speed>2.32</speed>
  <fix>3d</fix>
</trkpt>
<trkpt lat="40.0711892" lon="-105.2301231">
  <ele>1583.14</ele>
  <time>2026-08-28T17:56:26Z</time>
  <course>178.68</course>
  <speed>2.6232232081925475</speed>
  <fix>3d</fix>
</trkpt>
<trkpt lat="40.071195" lon="-105.2301232">
  <ele>1583.0</ele>
  <time>2026-08-28T17:56:26Z</time>
  <course>183.77</course>
  <speed>2.32</speed>
  <fix>3d</fix>
</trkpt>
<trkpt lat="40.0711868" lon="-105.230123">
  <ele>1583.14</ele>
  <time>2026-08-28T17:56:26Z</time>
  <course>175.97</course>
  <speed>2.7523081222857297</speed>
  <fix>3d</fix>
</trkpt>
<trkpt lat="40.0711907" lon="-105.2301233">
  <ele>1583.0</ele>
  <time>2026-08-28T17:56:26Z</time>
  <course>178.21</course>
  <speed>2.56</speed>
  <fix>3d</fix>
</trkpt>
<trkpt lat="40.0711842" lon="-105.2301226">
  <ele>1583.14</ele>
  <time>2026-08-28T17:56:26Z</time>
  <course>173.32</course>
  <speed>2.8694424545545427</speed>
  <fix>3d</fix>
</trkpt>
<trkpt lat="40.0711907" lon="-105.2301233">
  <ele>1583.0</ele>
  <time>2026-08-28T17:56:26Z</time>
  <course>178.21</course>
  <speed>2.56</speed>
  <fix>3d</fix>
</trkpt>
<trkpt lat="40.0711816" lon="-105.230122">
  <ele>1583.15</ele>
  <time>2026-08-28T17:56:26Z</time>
  <course>170.71</course>
  <speed>2.9811742652854094</speed>
  <fix>3d</fix>
</trkpt>
<trkpt lat="40.0711858" lon="-105.2301229">
  <ele>1583.0</ele>
  <time>2026-08-28T17:56:26Z</time>
  <course>172.81</course>
  <speed>2.79</speed>
  <fix>3d</fix>
</trkpt>
<trkpt lat="40.0711789" lon="-105.2301212">
  <ele>1583.15</ele>
  <time>2026-08-28T17:56:26Z</time>
  <course>168.19</course>
  <speed>3.0828720375649716</speed>
  <fix>3d</fix>
</trkpt>
<trkpt lat="40.0711858" lon="-105.2301229">
  <ele>1583.0</ele>
  <time>2026-08-28T17:56:26Z</time>
  <course>172.81</course>
  <speed>2.79</speed>
  <fix>3d</fix>
</trkpt>
<trkpt lat="40.0711762" lon="-105.2301203">
  <ele>1583.15</ele>
  <time>2026-08-28T17:56:26Z</time>
  <course>165.74</course>
  <speed>3.17855312996338</speed>
  <fix>3d</fix>
</trkpt>
<trkpt lat="40.0711806" lon="-105.2301217">
  <ele>1583.0</ele>
  <time>2026-08-28T17:56:26Z</time>
  <course>167.66</course>
  <speed>3.01</speed>
  <fix>3d</fix>
</trkpt>
<trkpt lat="40.0711734" lon="-105.2301192">
  <ele>1583.16</ele>
  <time>2026-08-28T17:56:26Z</time>
  <course>163.36</course>
  <speed>3.2698929646090864</speed>
  <fix>3d</fix>
</trkpt>
<trkpt lat="40.0711806" lon="-105.2301217">
  <ele>1583.0</ele>
  <time>2026-08-28T17:56:26Z</time>
  <course>167.66</course>
  <speed>3.01</speed>
  <fix>3d</fix>
</trkpt>
<trkpt lat="40.0711706" lon="-105.2301179">
  <ele>1583.16</ele>
  <time>2026-08-28T17:56:26Z</time>
  <course>161.04</course>
  <speed>3.3380383460949035</speed>
  <fix>3d</fix>
</trkpt>
<trkpt lat="40.0711752" lon="-105.2301198">
  <ele>1583.0</ele>
  <time>2026-08-28T17:56:26Z</time>
  <course>162.8</course>
  <speed>3.2</speed>
  <fix>3d</fix>
</trkpt>
<trkpt lat="40.0711683" lon="-105.2301167">
  <ele>1583.16</ele>
  <time>2026-08-28T17:56:26Z</time>
  <course>159.23</course>
  <speed>3.36857536653108</speed>
  <fix>3d</fix>
</trkpt>
<trkpt lat="40.0711752" lon="-105.2301198">
  <ele>1583.0</ele>
  <time>2026-08-28T17:56:26Z</time>
  <course>162.8</course>
  <speed>3.2</speed>
  <fix>3d</fix>
</trkpt>
<trkpt lat="40.0711656" lon="-105.2301151">
  <ele>1583.16</ele>
  <time>2026-08-28T17:56:26Z</time>
  <course>157.05</course>
  <speed>3.392359061184414</speed>
  <fix>3d</fix>
</trkpt>
<trkpt lat="40.0711697" lon="-105.2301172">
  <ele>1583.0</ele>
  <time>2026-08-28T17:56:26Z</time>
  <course>158.24</course>
  <speed>3.32</speed>
  <fix>3d</fix>
</trkpt>
<trkpt lat="40.0711628" lon="-105.2301134">
  <ele>1583.16</ele>
  <time>2026-08-28T17:56:26Z</time>
  <course>154.95</course>
  <speed>3.3988233257996803</speed>
  <fix>3d</fix>
</trkpt>
<trkpt lat="40.0711697" lon="-105.2301172">
  <ele>1583.0</ele>
  <time>2026-08-28T17:56:26Z</time>
  <course>158.24</course>
  <speed>3.32</speed>
  <fix>3d</fix>
</trkpt>
<trkpt lat="40.0711601" lon="-105.2301115">
  <ele>1583.16</ele>
  <time>2026-08-28T17:56:26Z</time>
  <course>152.92</course>
  <speed>3.405436829541843</speed>
  <fix>3d</fix>
</trkpt>
<trkpt lat="40.0711642" lon="-105.2301141">
  <ele>1583.0</ele>
  <time>2026-08-28T17:56:26Z</time>
  <course>153.96</course>
  <speed>3.36</speed>
  <fix>3d</fix>
</trkpt>
<trkpt lat="40.0711574" lon="-105.2301095">
  <ele>1583.16</ele>
  <time>2026-08-28T17:56:26Z</time>
  <course>150.98</course>
  <speed>3.4077118422777475</speed>
  <fix>3d</fix>
</trkpt>
<trkpt lat="40.0711642" lon="-105.2301141">
  <ele>1583.0</ele>
  <time>2026-08-28T17:56:26Z</time>
  <course>153.96</course>
  <speed>3.36</speed>
  <fix>3d</fix>
</trkpt>
<trkpt lat="40.0711548" lon="-105.2301073">
  <ele>1583.16</ele>
  <time>2026-08-28T17:56:26Z</time>
  <course>149.07</course>
  <speed>3.4091787867461574</speed>
  <fix>3d</fix>
</trkpt>
<trkpt lat="40.0711589" lon="-105.2301104">
  <ele>1583.0</ele>
  <time>2026-08-28T17:56:26Z</time>
  <course>149.97</course>
  <speed>3.37</speed>
  <fix>3d</fix>
</trkpt>
<trkpt lat="40.0711523" lon="-105.2301051">
  <ele>1583.16</ele>
  <time>2026-08-28T17:56:26Z</time>
  <course>147.21</course>
  <speed>3.400720511891561</speed>
  <fix>3d</fix>
</trkpt>
<trkpt lat="40.0711589" lon="-105.2301104">
  <ele>1583.0</ele>
  <time>2026-08-28T17:56:26Z</time>
  <course>149.97</course>
  <speed>3.37</speed>
  <fix>3d</fix>
</trkpt>
<trkpt lat="40.0711498" lon="-105.2301028">
  <ele>1583.15</ele>
  <time>2026-08-28T17:56:26Z</time>
  <course>145.4</course>
  <speed>3.390132740763996</speed>
  <fix>3d</fix>
</trkpt>
<trkpt lat="40.0711538" lon="-105.2301062">
  <ele>1583.0</ele>
  <time>2026-08-28T17:56:26Z</time>
  <course>146.2</course>
  <speed>3.36</speed>
  <fix>3d</fix>
</trkpt>
<trkpt lat="40.0711474" lon="-105.2301003">
  <ele>1583.15</ele>
  <time>2026-08-28T17:56:26Z</time>
  <course>143.63</course>
  <speed>3.374996296294264</speed>
  <fix>3d</fix>
</trkpt>
<trkpt lat="40.0711538" lon="-105.2301062">
  <ele>1583.0</ele>
  <time>2026-08-28T17:56:26Z</time>
  <course>146.2</course>
  <speed>3.36</speed>
  <fix>3d</fix>
</trkpt>
<trkpt lat="40.0711451" lon="-105.2300978">
  <ele>1583.15</ele>
  <time>2026-08-28T17:56:26Z</time>
  <course>141.9</course>
  <speed>3.3712460604352215</speed>
  <fix>3d</fix>
</trkpt>
<trkpt lat="40.0711489" lon="-105.2301016">
  <ele>1583.0</ele>
  <time>2026-08-28T17:56:26Z</time>
  <course>142.6</course>
  <speed>3.34</speed>
  <fix>3d</fix>
</trkpt>
<trkpt lat="40.0711424" lon="-105.2300947">
  <ele>1583.15</ele>
  <time>2026-08-28T17:56:26Z</time>
  <course>139.89</course>
  <speed>3.355979737721907</speed>
  <fix>3d</fix>
</trkpt>
<trkpt lat="40.0711489" lon="-105.2301016">
  <ele>1583.0</ele>
  <time>2026-08-28T17:56:26Z</time>
  <course>142.6</course>
  <speed>3.34</speed>
  <fix>3d</fix>
</trkpt>
<trkpt lat="40.0711402" lon="-105.230092">
  <ele>1583.15</ele>
  <time>2026-08-28T17:56:26Z</time>
  <course>138.26</course>
  <speed>3.3310809056520982</speed>
  <fix>3d</fix>
</trkpt>
<trkpt lat="40.0711442" lon="-105.2300966">
  <ele>1583.0</ele>
  <time>2026-08-28T17:56:26Z</time>
  <course>139.18</course>
  <speed>3.32</speed>
  <fix>3d</fix>
</trkpt>
<trkpt lat="40.0711381" lon="-105.2300893">
  <ele>1583.15</ele>
  <time>2026-08-28T17:56:26Z</time>
  <course>136.7</course>
  <speed>3.3093806066996887</speed>
  <fix>3d</fix>
</trkpt>
<trkpt lat="40.0711442" lon="-105.2300966">
  <ele>1583.0</ele>
  <time>2026-08-28T17:56:26Z</time>
  <course>139.18</course>
  <speed>3.32</speed>
  <fix>3d</fix>
</trkpt>
<trkpt lat="40.0711361" lon="-105.2300865">
  <ele>1583.15</ele>
  <time>2026-08-28T17:56:26Z</time>
  <course>135.17</course>
  <speed>3.2761104987469514</speed>
  <fix>3d</fix>
</trkpt>
<trkpt lat="40.0711398" lon="-105.2300914">
  <ele>1583.0</ele>
  <time>2026-08-28T17:56:26Z</time>
  <course>135.94</course>
  <speed>3.28</speed>
  <fix>3d</fix>
</trkpt>
<trkpt lat="40.0711342" lon="-105.2300836">
  <ele>1583.15</ele>
  <time>2026-08-28T17:56:26Z</time>
  <course>133.7</course>
  <speed>3.2379777639755343</speed>
  <fix>3d</fix>
</trkpt>
<trkpt lat="40.0711398" lon="-105.2300914">
  <ele>1583.0</ele>
  <time>2026-08-28T17:56:26Z</time>
  <course>135.94</course>
  <speed>3.28</speed>
  <fix>3d</fix>
</trkpt>
<trkpt lat="40.0711323" lon="-105.2300808">
  <ele>1583.15</ele>
  <time>2026-08-28T17:56:26Z</time>
  <course>132.27</course>
  <speed>3.1945265689926576</speed>
  <fix>3d</fix>
</trkpt>
<trkpt lat="40.0711357" lon="-105.230086">
  <ele>1583.0</ele>
  <time>2026-08-28T17:56:26Z</time>
  <course>132.88</course>
  <speed>3.22</speed>
  <fix>3d</fix>
</trkpt>
<trkpt lat="40.0711305" lon="-105.2300779">
  <ele>1583.14</ele>
  <time>2026-08-28T17:56:26Z</time>
  <course>130.88</course>
  <speed>3.1531730050855122</speed>
  <fix>3d</fix>
</trkpt>
<trkpt lat="40.0711357" lon="-105.230086">
  <ele>1583.0</ele>
  <time>2026-08-28T17:56:26Z</time>
  <course>132.88</course>
  <speed>3.22</speed>
  <fix>3d</fix>
</trkpt>
<trkpt lat="40.0711288" lon="-105.2300751">
  <ele>1583.14</ele>
  <time>2026-08-28T17:56:26Z</time>
  <course>129.55</course>
  <speed>3.1120411308335885</speed>
  <fix>3d</fix>
</trkpt>
<trkpt lat="40.071132" lon="-105.2300803">
  <ele>1583.0</ele>
  <time>2026-08-28T17:56:26Z</time>
  <course>130.02</course>
  <speed>3.14</speed>
  <fix>3d</fix>
</trkpt>
<trkpt lat="40.0711272" lon="-105.2300722">
  <ele>1583.15</ele>
  <time>2026-08-28T17:56:26Z</time>
  <course>128.27</course>
  <speed>3.066626811335217</speed>
  <fix>3d</fix>
</trkpt>
<trkpt lat="40.071132" lon="-105.2300803">
  <ele>1583.0</ele>
  <time>2026-08-28T17:56:26Z</time>
  <course>130.02</course>
  <speed>3.14</speed>
  <fix>3d</fix>
</trkpt>
<trkpt lat="40.0711256" lon="-105.2300694">
  <ele>1583.15</ele>
  <time>2026-08-28T17:56:26Z</time>
  <course>127.04</course>
  <speed>3.0288776799336086</speed>
  <fix>3d</fix>
</trkpt>
<trkpt lat="40.0711285" lon="-105.2300746">
  <ele>1583.0</ele>
  <time>2026-08-28T17:56:26Z</time>
  <course>127.37</course>
  <speed>3.07</speed>
  <fix>3d</fix>
</trkpt>
<trkpt lat="40.0711242" lon="-105.2300665">
  <ele>1583.15</ele>
  <time>2026-08-28T17:56:26Z</time>
  <course>125.86</course>
  <speed>2.989916386790774</speed>
  <fix>3d</fix>
</trkpt>
<trkpt lat="40.0711285" lon="-105.2300746">
  <ele>1583.0</ele>
  <time>2026-08-28T17:56:26Z</time>
  <course>127.37</course>
  <speed>3.07</speed>
  <fix>3d</fix>
</trkpt>
<trkpt lat="40.071123" lon="-105.2300642">
  <ele>1583.15</ele>
  <time>2026-08-28T17:56:26Z</time>
  <course>124.94</course>
  <speed>2.957431317883815</speed>
  <fix>3d</fix>
</trkpt>
<trkpt lat="40.0711252" lon="-105.2300688">
  <ele>1583.0</ele>
  <time>2026-08-28T17:56:26Z</time>
  <course>124.92</course>
  <speed>3.0</speed>
  <fix>3d</fix>
</trkpt>
<trkpt lat="40.0711216" lon="-105.2300613">
  <ele>1583.15</ele>
  <time>2026-08-28T17:56:26Z</time>
  <course>123.85</course>
  <speed>2.925816125459698</speed>
  <fix>3d</fix>
</trkpt>
<trkpt lat="40.0711252" lon="-105.2300688">
  <ele>1583.0</ele>
  <time>2026-08-28T17:56:26Z</time>
  <course>124.92</course>
  <speed>3.0</speed>
  <fix>3d</fix>
</trkpt>
<trkpt lat="40.0711203" lon="-105.2300584">
  <ele>1583.16</ele>
  <time>2026-08-28T17:56:26Z</time>
  <course>122.81</course>
  <speed>2.890069203323685</speed>
  <fix>3d</fix>
</trkpt>
<trkpt lat="40.0711223" lon="-105.2300631">
  <ele>1583.0</ele>
  <time>2026-08-28T17:56:26Z</time>
  <course>122.68</course>
  <speed>2.93</speed>
  <fix>3d</fix>
</trkpt>
<trkpt lat="40.071119" lon="-105.2300555">
  <ele>1583.16</ele>
  <time>2026-08-28T17:56:26Z</time>
  <course>121.82</course>
  <speed>2.8604370295463593</speed>
  <fix>3d</fix>
</trkpt>
<trkpt lat="40.0711223" lon="-105.2300631">
  <ele>1583.0</ele>
  <time>2026-08-28T17:56:26Z</time>
  <course>122.68</course>
  <speed>2.93</speed>
  <fix>3d</fix>
</trkpt>
<trkpt lat="40.0711177" lon="-105.2300526">
  <ele>1583.15</ele>
  <time>2026-08-28T17:56:26Z</time>
  <course>120.88</course>
  <speed>2.8364766877236978</speed>
  <fix>3d</fix>
</trkpt>
<trkpt lat="40.0711195" lon="-105.2300573">
  <ele>1583.0</ele>
  <time>2026-08-28T17:56:26Z</time>
  <course>120.66</course>
  <speed>2.87</speed>
  <fix>3d</fix>
</trkpt>
<trkpt lat="40.0711165" lon="-105.2300497">
  <ele>1583.15</ele>
  <time>2026-08-28T17:56:26Z</time>
  <course>119.99</course>
  <speed>2.8043180989324306</speed>
  <fix>3d</fix>
</trkpt>
<trkpt lat="40.0711195" lon="-105.2300573">
  <ele>1583.0</ele>
  <time>2026-08-28T17:56:26Z</time>
  <course>120.66</course>
  <speed>2.87</speed>
  <fix>3d</fix>
</trkpt>
<trkpt lat="40.0711154" lon="-105.2300468">
  <ele>1583.15</ele>
  <time>2026-08-28T17:56:26Z</time>
  <course>119.16</course>
  <speed>2.7727242920997397</speed>
  <fix>3d</fix>
</trkpt>
<trkpt lat="40.071117" lon="-105.2300515">
  <ele>1583.0</ele>
  <time>2026-08-28T17:56:26Z</time>
  <course>118.86</course>
  <speed>2.81</speed>
  <fix>3d</fix>
</trkpt>
<trkpt lat="40.0711142" lon="-105.2300439">
  <ele>1583.15</ele>
  <time>2026-08-28T17:56:26Z</time>
  <course>118.38</course>
  <speed>2.7417147918775213</speed>
  <fix>3d</fix>
</trkpt>
<trkpt lat="40.071117" lon="-105.2300515">
  <ele>1583.0</ele>
  <time>2026-08-28T17:56:26Z</time>
  <course>118.86</course>
  <speed>2.81</speed>
  <fix>3d</fix>
</trkpt>
<trkpt lat="40.0711132" lon="-105.230041">
  <ele>1583.15</ele>
  <time>2026-08-28T17:56:26Z</time>
  <course>117.65</course>
  <speed>2.7155294143131647</speed>
  <fix>3d</fix>
</trkpt>
<trkpt lat="40.0711146" lon="-105.2300457">
  <ele>1583.0</ele>
  <time>2026-08-28T17:56:26Z</time>
  <course>117.28</course>
  <speed>2.76</speed>
  <fix>3d</fix>
</trkpt>
<trkpt lat="40.0711121" lon="-105.2300382">
  <ele>1583.15</ele>
  <time>2026-08-28T17:56:26Z</time>
  <course>116.98</course>
  <speed>2.68972117514065</speed>
  <fix>3d</fix>
</trkpt>
<trkpt lat="40.0711146" lon="-105.2300457">
  <ele>1583.0</ele>
  <time>2026-08-28T17:56:26Z</time>
  <course>117.28</course>
  <speed>2.76</speed>
  <fix>3d</fix>
</trkpt>
<trkpt lat="40.0711109" lon="-105.2300348">
  <ele>1583.15</ele>
  <time>2026-08-28T17:56:26Z</time>
  <course>116.21</course>
  <speed>2.664301034042512</speed>
  <fix>3d</fix>
</trkpt>
<trkpt lat="40.0711124" lon="-105.23004">
  <ele>1583.0</ele>
  <time>2026-08-28T17:56:26Z</time>
  <course>115.91</course>
  <speed>2.71</speed>
  <fix>3d</fix>
</trkpt>
<trkpt lat="40.0711099" lon="-105.230032">
  <ele>1583.15</ele>
  <time>2026-08-28T17:56:26Z</time>
  <course>115.58</course>
  <speed>2.63928020490436</speed>
  <fix>3d</fix>
</trkpt>
<trkpt lat="40.0711124" lon="-105.23004">
  <ele>1583.0</ele>
  <time>2026-08-28T17:56:26Z</time>
  <course>115.91</course>
  <speed>2.71</speed>
  <fix>3d</fix>
</trkpt>
<trkpt lat="40.071109" lon="-105.2300291">
  <ele>1583.15</ele>
  <time>2026-08-28T17:56:26Z</time>
  <course>114.96</course>
  <speed>2.618472837361503</speed>
  <fix>3d</fix>
</trkpt>
<trkpt lat="40.0711103" lon="-105.2300343">
  <ele>1583.0</ele>
  <time>2026-08-28T17:56:26Z</time>
  <course>114.67</course>
  <speed>2.66</speed>
  <fix>3d</fix>
</trkpt>
<trkpt lat="40.071108" lon="-105.2300263">
  <ele>1583.16</ele>
  <time>2026-08-28T17:56:26Z</time>
  <course>114.33</course>
  <speed>2.5848791074245616</speed>
  <fix>3d</fix>
</trkpt>
<trkpt lat="40.0711103" lon="-105.2300343">
  <ele>1583.0</ele>
  <time>2026-08-28T17:56:26Z</time>
  <course>114.67</course>
  <speed>2.66</speed>
  <fix>3d</fix>
</trkpt>
<trkpt lat="40.0711071" lon="-105.2300235">
  <ele>1583.16</ele>
  <time>2026-08-28T17:56:26Z</time>
  <course>113.7</course>
  <speed>2.564566240127168</speed>
  <fix>3d</fix>
</trkpt>
<trkpt lat="40.0711084" lon="-105.2300286">
  <ele>1583.0</ele>
  <time>2026-08-28T17:56:26Z</time>
  <course>113.45</course>
  <speed>2.61</speed>
  <fix>3d</fix>
</trkpt>
<trkpt lat="40.0711063" lon="-105.2300208">
  <ele>1583.16</ele>
  <time>2026-08-28T17:56:26Z</time>
  <course>113.05</course>
  <speed>2.531600284405103</speed>
  <fix>3d</fix>
</trkpt>
<trkpt lat="40.0711084" lon="-105.2300286">
  <ele>1583.0</ele>
  <time>2026-08-28T17:56:26Z</time>
  <course>113.45</course>
  <speed>2.61</speed>
  <fix>3d</fix>
</trkpt>
<trkpt lat="40.0711055" lon="-105.230018">
  <ele>1583.16</ele>
  <time>2026-08-28T17:56:26Z</time>
  <course>112.38</course>
  <speed>2.49899979991996</speed>
  <fix>3d</fix>
</trkpt>
<trkpt lat="40.0711067" lon="-105.230023">
  <ele>1583.0</ele>
  <time>2026-08-28T17:56:26Z</time>
  <course>112.21</course>
  <speed>2.55</speed>
  <fix>3d</fix>
</trkpt>
<trkpt lat="40.0711047" lon="-105.2300154">
  <ele>1583.16</ele>
  <time>2026-08-28T17:56:26Z</time>
  <course>111.69</course>
  <speed>2.4573359558676544</speed>
  <fix>3d</fix>
</trkpt>
<trkpt lat="40.0711067" lon="-105.230023">
  <ele>1583.0</ele>
  <time>2026-08-28T17:56:26Z</time>
  <course>112.21</course>
  <speed>2.55</speed>
  <fix>3d</fix>
</trkpt>
<trkpt lat="40.0711039" lon="-105.2300127">
  <ele>1583.16</ele>
  <time>2026-08-28T17:56:26Z</time>
  <course>110.98</course>
  <speed>2.4254690268069803</speed>
  <fix>3d</fix>
</trkpt>
<trkpt lat="40.071105" lon="-105.2300175">
  <ele>1583.0</ele>
  <time>2026-08-28T17:56:26Z</time>
  <course>110.89</course>
  <speed>2.49</speed>
  <fix>3d</fix>
</trkpt>
<trkpt lat="40.0711032" lon="-105.23001">
  <ele>1583.17</ele>
  <time>2026-08-28T17:56:26Z</time>
  <course>110.22</course>
  <speed>2.3940133667128927</speed>
  <fix>3d</fix>
</trkpt>
<trkpt lat="40.071105" lon="-105.2300175">
  <ele>1583.0</ele>
  <time>2026-08-28T17:56:26Z</time>
  <course>110.89</course>
  <speed>2.49</speed>
  <fix>3d</fix>
</trkpt>
<trkpt lat="40.0711026" lon="-105.2300074">
  <ele>1583.17</ele>
  <time>2026-08-28T17:56:26Z</time>
  <course>109.43</course>
  <speed>2.3629853998702575</speed>
  <fix>3d</fix>
</trkpt>
<trkpt lat="40.0711035" lon="-105.2300121">
  <ele>1583.0</ele>
  <time>2026-08-28T17:56:26Z</time>
  <course>109.45</course>
  <speed>2.43</speed>
  <fix>3d</fix>
</trkpt>
<trkpt lat="40.071102" lon="-105.2300053">
  <ele>1583.17</ele>
  <time>2026-08-28T17:56:26Z</time>
  <course>108.76</course>
  <speed>2.3352087701102873</speed>
  <fix>3d</fix>
</trkpt>
<trkpt lat="40.0711035" lon="-105.2300121">
  <ele>1583.0</ele>
  <time>2026-08-28T17:56:26Z</time>
  <course>109.45</course>
  <speed>2.43</speed>
  <fix>3d</fix>
</trkpt>
<trkpt lat="40.0711014" lon="-105.2300027">
  <ele>1583.17</ele>
  <time>2026-08-28T17:56:26Z</time>
  <course>107.94</course>
  <speed>2.304951192541829</speed>
  <fix>3d</fix>
</trkpt>
<trkpt lat="40.0711021" lon="-105.2300067">
  <ele>1583.0</ele>
  <time>2026-08-28T17:56:26Z</time>
  <course>107.87</course>
  <speed>2.37</speed>
  <fix>3d</fix>
</trkpt>
<trkpt lat="40.0711009" lon="-105.2300001">
  <ele>1583.17</ele>
  <time>2026-08-28T17:56:26Z</time>
  <course>107.09</course>
  <speed>2.284841351166422</speed>
  <fix>3d</fix>
</trkpt>
<trkpt lat="40.0711021" lon="-105.2300067">
  <ele>1583.0</ele>
  <time>2026-08-28T17:56:26Z</time>
  <course>107.87</course>
  <speed>2.37</speed>
  <fix>3d</fix>
</trkpt>
<trkpt lat="40.0711003" lon="-105.2299976">
  <ele>1583.17</ele>
  <time>2026-08-28T17:56:26Z</time>
  <course>106.24</course>
  <speed>2.255593048402127</speed>
  <fix>3d</fix>
</trkpt>
<trkpt lat="40.0711008" lon="-105.2300014">
  <ele>1583.0</ele>
  <time>2026-08-28T17:56:26Z</time>
  <course>106.19</course>
  <speed>2.32</speed>
  <fix>3d</fix>
</trkpt>
<trkpt lat="40.0710998" lon="-105.229995">
  <ele>1583.17</ele>
  <time>2026-08-28T17:56:26Z</time>
  <course>105.37</course>
  <speed>2.236604569431083</speed>
  <fix>3d</fix>
</trkpt>
<trkpt lat="40.0711008" lon="-105.2300014">
  <ele>1583.0</ele>
  <time>2026-08-28T17:56:26Z</time>
  <course>106.19</course>
  <speed>2.32</speed>
  <fix>3d</fix>
</trkpt>
<trkpt lat="40.0710993" lon="-105.2299924">
  <ele>1583.17</ele>
  <time>2026-08-28T17:56:26Z</time>
  <course>104.48</course>
  <speed>2.2300896842952302</speed>
  <fix>3d</fix>
</trkpt>
<trkpt lat="40.0710998" lon="-105.2299962">
  <ele>1583.0</ele>
  <time>2026-08-28T17:56:26Z</time>
  <course>104.46</course>
  <speed>2.28</speed>
  <fix>3d</fix>
</trkpt>
<trkpt lat="40.0710989" lon="-105.2299898">
  <ele>1583.17</ele>
  <time>2026-08-28T17:56:26Z</time>
  <course>103.57</course>
  <speed>2.2121934815924216</speed>
  <fix>3d</fix>
</trkpt>
<trkpt lat="40.0710998" lon="-105.2299962">
  <ele>1583.0</ele>
  <time>2026-08-28T17:56:26Z</time>
  <course>104.46</course>
  <speed>2.28</speed>
  <fix>3d</fix>
</trkpt>
<trkpt lat="40.0710985" lon="-105.2299873">
  <ele>1583.17</ele>
  <time>2026-08-28T17:56:26Z</time>
  <course>102.65</course>
  <speed>2.2163934668736056</speed>
  <fix>3d</fix>
</trkpt>
<trkpt lat="40.0710988" lon="-105.229991">
  <ele>1583.0</ele>
  <time>2026-08-28T17:56:26Z</time>
  <course>102.67</course>
  <speed>2.25</speed>
  <fix>3d</fix>
</trkpt>
<trkpt lat="40.0710981" lon="-105.2299847">
  <ele>1583.18</ele>
  <time>2026-08-28T17:56:26Z</time>
  <course>101.7</course>
  <speed>2.2095248357961492</speed>
  <fix>3d</fix>
</trkpt>
<trkpt lat="40.0710988" lon="-105.229991">
  <ele>1583.0</ele>
  <time>2026-08-28T17:56:26Z</time>
  <course>102.67</course>
  <speed>2.25</speed>
  <fix>3d</fix>
</trkpt>
<trkpt lat="40.0710977" lon="-105.2299821">
  <ele>1583.18</ele>
  <time>2026-08-28T17:56:26Z</time>
  <course>100.73</course>
  <speed>2.2147234590350102</speed>
  <fix>3d</fix>
</trkpt>
<trkpt lat="40.071098" lon="-105.2299859">
  <ele>1583.0</ele>
  <time>2026-08-28T17:56:26Z</time>
  <course>100.81</course>
  <speed>2.25</speed>
  <fix>3d</fix>
</trkpt>
<trkpt lat="40.0710974" lon="-105.2299789">
  <ele>1583.17</ele>
  <time>2026-08-28T17:56:26Z</time>
  <course>99.53</course>
  <speed>2.2289459392277777</speed>
  <fix>3d</fix>
</trkpt>
<trkpt lat="40.071098" lon="-105.2299859">
  <ele>1583.0</ele>
  <time>2026-08-28T17:56:26Z</time>
  <course>100.81</course>
  <speed>2.25</speed>
  <fix>3d</fix>
</trkpt>
<trkpt lat="40.0710971" lon="-105.2299763">
  <ele>1583.17</ele>
  <time>2026-08-28T17:56:26Z</time>
  <course>98.51</course>
  <speed>2.2439696967650877</speed>
  <fix>3d</fix>
</trkpt>
<trkpt lat="40.0710973" lon="-105.2299807">
  <ele>1583.0</ele>
  <time>2026-08-28T17:56:26Z</time>
  <course>98.86</course>
  <speed>2.26</speed>
  <fix>3d</fix>
</trkpt>
<trkpt lat="40.0710968" lon="-105.2299736">
  <ele>1583.17</ele>
  <time>2026-08-28T17:56:26Z</time>
  <course>97.46</course>
  <speed>2.2607299706068393</speed>
  <fix>3d</fix>
</trkpt>
<trkpt lat="40.0710973" lon="-105.2299807">
  <ele>1583.0</ele>
  <time>2026-08-28T17:56:26Z</time>
  <course>98.86</course>
  <speed>2.26</speed>
  <fix>3d</fix>
</trkpt>
<trkpt lat="40.0710966" lon="-105.2299709">
  <ele>1583.17</ele>
  <time>2026-08-28T17:56:26Z</time>
  <course>96.39</course>
  <speed>2.28709422630551</speed>
  <fix>3d</fix>
</trkpt>
<trkpt lat="40.0710967" lon="-105.2299754">
  <ele>1583.0</ele>
  <time>2026-08-28T17:56:26Z</time>
  <course>96.83</course>
  <speed>2.29</speed>
  <fix>3d</fix>
</trkpt>
<trkpt lat="40.0710964" lon="-105.2299682">
  <ele>1583.16</ele>
  <time>2026-08-28T17:56:26Z</time>
  <course>95.29</course>
  <speed>2.314238535674315</speed>
  <fix>3d</fix>
</trkpt>
<trkpt lat="40.0710967" lon="-105.2299754">
  <ele>1583.0</ele>
  <time>2026-08-28T17:56:26Z</time>
  <course>96.83</course>
  <speed>2.29</speed>
  <fix>3d</fix>
</trkpt>
<trkpt lat="40.0710963" lon="-105.2299654">
  <ele>1583.16</ele>
  <time>2026-08-28T17:56:26Z</time>
  <course>94.16</course>
  <speed>2.352126697267815</speed>
  <fix>3d</fix>
</trkpt>
<trkpt lat="40.0710963" lon="-105.2299699">
  <ele>1583.0</ele>
  <time>2026-08-28T17:56:26Z</time>
  <course>94.69</course>
  <speed>2.34</speed>
  <fix>3d</fix>
</trkpt>
<trkpt lat="40.0710962" lon="-105.2299626">
  <ele>1583.16</ele>
  <time>2026-08-28T17:56:26Z</time>
  <course>93.02</course>
  <speed>2.3907530194480566</speed>
  <fix>3d</fix>
</trkpt>
<trkpt lat="40.0710963" lon="-105.2299699">
  <ele>1583.0</ele>
  <time>2026-08-28T17:56:26Z</time>
  <course>94.69</course>
  <speed>2.34</speed>
  <fix>3d</fix>
</trkpt>
<trkpt lat="40.0710961" lon="-105.2299598">
  <ele>1583.15</ele>
  <time>2026-08-28T17:56:26Z</time>
  <course>91.85</course>
  <speed>2.430020576044573</speed>
  <fix>3d</fix>
</trkpt>
<trkpt lat="40.0710961" lon="-105.2299644">
  <ele>1583.0</ele>
  <time>2026-08-28T17:56:26Z</time>
  <course>92.45</course>
  <speed>2.4</speed>
  <fix>3d</fix>
</trkpt>
<trkpt lat="40.0710961" lon="-105.2299569">
  <ele>1583.15</ele>
  <time>2026-08-28T17:56:26Z</time>
  <course>90.65</course>
  <speed>2.470182179516321</speed>
  <fix>3d</fix>
</trkpt>
<trkpt lat="40.0710961" lon="-105.2299644">
  <ele>1583.0</ele>
  <time>2026-08-28T17:56:26Z</time>
  <course>92.45</course>
  <speed>2.4</speed>
  <fix>3d</fix>
</trkpt>
<trkpt lat="40.0710962" lon="-105.2299539">
  <ele>1583.15</ele>
  <time>2026-08-28T17:56:26Z</time>
  <course>89.44</course>
  <speed>2.521269521491108</speed>
  <fix>3d</fix>
</trkpt>
<trkpt lat="40.071096" lon="-105.2299586">
  <ele>1583.0</ele>
  <time>2026-08-28T17:56:26Z</time>
  <course>90.12</course>
  <speed>2.49</speed>
  <fix>3d</fix>
</trkpt>
<trkpt lat="40.0710962" lon="-105.2299509">
  <ele>1583.15</ele>
  <time>2026-08-28T17:56:26Z</time>
  <course>88.2</course>
  <speed>2.5832731175777757</speed>
  <fix>3d</fix>
</trkpt>
<trkpt lat="40.071096" lon="-105.2299586">
  <ele>1583.0</ele>
  <time>2026-08-28T17:56:26Z</time>
  <course>90.12</course>
  <speed>2.49</speed>
  <fix>3d</fix>
</trkpt>
<trkpt lat="40.0710963" lon="-105.2299484">
  <ele>1583.15</ele>
  <time>2026-08-28T17:56:26Z</time>
  <course>87.19</course>
  <speed>2.626175927084855</speed>
  <fix>3d</fix>
</trkpt>
<trkpt lat="40.071096" lon="-105.2299526">
  <ele>1583.0</ele>
  <time>2026-08-28T17:56:26Z</time>
  <course>87.69</course>
  <speed>2.59</speed>
  <fix>3d</fix>
</trkpt>
<trkpt lat="40.0710964" lon="-105.2299453">
  <ele>1583.15</ele>
  <time>2026-08-28T17:56:26Z</time>
  <course>85.92</course>
  <speed>2.6907248094147422</speed>
  <fix>3d</fix>
</trkpt>
<trkpt lat="40.071096" lon="-105.2299526">
  <ele>1583.0</ele>
  <time>2026-08-28T17:56:26Z</time>
  <course>87.69</course>
  <speed>2.59</speed>
  <fix>3d</fix>
</trkpt>
<trkpt lat="40.0710967" lon="-105.229942">
  <ele>1583.15</ele>
  <time>2026-08-28T17:56:26Z</time>
  <course>84.67</course>
  <speed>2.757480734293533</speed>
  <fix>3d</fix>
</trkpt>
<trkpt lat="40.0710962" lon="-105.2299464">
  <ele>1583.0</ele>
  <time>2026-08-28T17:56:26Z</time>
  <course>85.19</course>
  <speed>2.71</speed>
  <fix>3d</fix>
</trkpt>
<trkpt lat="40.071097" lon="-105.2299387">
  <ele>1583.15</ele>
  <time>2026-08-28T17:56:26Z</time>
  <course>83.45</course>
  <speed>2.814427117549857</speed>
  <fix>3d</fix>
</trkpt>
<trkpt lat="40.0710962" lon="-105.2299464">
  <ele>1583.0</ele>
  <time>2026-08-28T17:56:26Z</time>
  <course>85.19</course>
  <speed>2.71</speed>
  <fix>3d</fix>
</trkpt>
<trkpt lat="40.0710973" lon="-105.2299353">
  <ele>1583.15</ele>
  <time>2026-08-28T17:56:26Z</time>
  <course>82.26</course>
  <speed>2.873882391469769</speed>
  <fix>3d</fix>
</trkpt>
<trkpt lat="40.0710967" lon="-105.22994">
  <ele>1583.0</ele>
  <time>2026-08-28T17:56:26Z</time>
  <course>82.71</course>
  <speed>2.84</speed>
  <fix>3d</fix>
</trkpt>
<trkpt lat="40.0710978" lon="-105.2299319">
  <ele>1583.15</ele>
  <time>2026-08-28T17:56:26Z</time>
  <course>81.1</course>
  <speed>2.9329336848964043</speed>
  <fix>3d</fix>
</trkpt>
<trkpt lat="40.0710967" lon="-105.22994">
  <ele>1583.0</ele>
  <time>2026-08-28T17:56:26Z</time>
  <course>82.71</course>
  <speed>2.84</speed>
  <fix>3d</fix>
</trkpt>
<trkpt lat="40.0710982" lon="-105.2299284">
  <ele>1583.15</ele>
  <time>2026-08-28T17:56:26Z</time>
  <course>79.99</course>
  <speed>2.973213749463701</speed>
  <fix>3d</fix>
</trkpt>
<trkpt lat="40.0710975" lon="-105.2299332">
  <ele>1583.0</ele>
  <time>2026-08-28T17:56:26Z</time>
  <course>80.36</course>
  <speed>2.94</speed>
  <fix>3d</fix>
</trkpt>
<trkpt lat="40.0710988" lon="-105.2299249">
  <ele>1583.15</ele>
  <time>2026-08-28T17:56:26Z</time>
  <course>78.91</course>
  <speed>3.004663042672173</speed>
  <fix>3d</fix>
</trkpt>
<trkpt lat="40.0710975" lon="-105.2299332">
  <ele>1583.0</ele>
  <time>2026-08-28T17:56:26Z</time>
  <course>80.36</course>
  <speed>2.94</speed>
  <fix>3d</fix>
</trkpt>
<trkpt lat="40.0710994" lon="-105.2299213">
  <ele>1583.15</ele>
  <time>2026-08-28T17:56:26Z</time>
  <course>77.88</course>
  <speed>3.0371038836365147</speed>
  <fix>3d</fix>
</trkpt>
<trkpt lat="40.0710985" lon="-105.2299263">
  <ele>1583.0</ele>
  <time>2026-08-28T17:56:26Z</time>
  <course>78.16</course>
  <speed>3.02</speed>
  <fix>3d</fix>
</trkpt>
<trkpt lat="40.0711" lon="-105.2299178">
  <ele>1583.15</ele>
  <time>2026-08-28T17:56:26Z</time>
  <course>76.9</course>
  <speed>3.051098162957069</speed>
  <fix>3d</fix>
</trkpt>
<trkpt lat="40.0710985" lon="-105.2299263">
  <ele>1583.0</ele>
  <time>2026-08-28T17:56:26Z</time>
  <course>78.16</course>
  <speed>3.02</speed>
  <fix>3d</fix>
</trkpt>
<trkpt lat="40.0711009" lon="-105.2299136">
  <ele>1583.15</ele>
  <time>2026-08-28T17:56:26Z</time>
  <course>75.8</course>
  <speed>3.053948264132842</speed>
  <fix>3d</fix>
</trkpt>
<trkpt lat="40.0710997" lon="-105.2299194">
  <ele>1583.0</ele>
  <time>2026-08-28T17:56:26Z</time>
  <course>76.15</course>
  <speed>3.07</speed>
  <fix>3d</fix>
</trkpt>
<trkpt lat="40.0711016" lon="-105.2299101">
  <ele>1583.15</ele>
  <time>2026-08-28T17:56:26Z</time>
  <course>74.95</course>
  <speed>3.0356712601992992</speed>
  <fix>3d</fix>
</trkpt>
<trkpt lat="40.0710997" lon="-105.2299194">
  <ele>1583.0</ele>
  <time>2026-08-28T17:56:26Z</time>
  <course>76.15</course>
  <speed>3.07</speed>
  <fix>3d</fix>
</trkpt>
<trkpt lat="40.0711024" lon="-105.2299066">
  <ele>1583.15</ele>
  <time>2026-08-28T17:56:26Z</time>
  <course>74.14</course>
  <speed>3.018111992620552</speed>
  <fix>3d</fix>
</trkpt>
<trkpt lat="40.0711011" lon="-105.2299123">
  <ele>1583.0</ele>
  <time>2026-08-28T17:56:26Z</time>
  <course>74.34</course>
  <speed>3.06</speed>
  <fix>3d</fix>
</trkpt>
<trkpt lat="40.0711032" lon="-105.2299032">
  <ele>1583.15</ele>
  <time>2026-08-28T17:56:26Z</time>
  <course>73.35</course>
  <speed>2.9982661656364002</speed>
  <fix>3d</fix>
</trkpt>
<trkpt lat="40.0711011" lon="-105.2299123">
  <ele>1583.0</ele>
  <time>2026-08-28T17:56:26Z</time>
  <course>74.34</course>
  <speed>3.06</speed>
  <fix>3d</fix>
</trkpt>
<trkpt lat="40.071104" lon="-105.2298998">
  <ele>1583.15</ele>
  <time>2026-08-28T17:56:26Z</time>
  <course>72.59</course>
  <speed>2.9725410005582766</speed>
  <fix>3d</fix>
</trkpt>
<trkpt lat="40.0711027" lon="-105.2299055">
  <ele>1583.0</ele>
  <time>2026-08-28T17:56:26Z</time>
  <course>72.71</course>
  <speed>3.03</speed>
  <fix>3d</fix>
</trkpt>
<trkpt lat="40.0711049" lon="-105.2298965">
  <ele>1583.15</ele>
  <time>2026-08-28T17:56:26Z</time>
  <course>71.85</course>
  <speed>2.9410882339705484</speed>
  <fix>3d</fix>
</trkpt>
<trkpt lat="40.0711027" lon="-105.2299055">
  <ele>1583.0</ele>
  <time>2026-08-28T17:56:26Z</time>
  <course>72.71</course>
  <speed>3.03</speed>
  <fix>3d</fix>
</trkpt>
<trkpt lat="40.0711058" lon="-105.2298933">
  <ele>1583.15</ele>
  <time>2026-08-28T17:56:26Z</time>
  <course>71.15</course>
  <speed>2.9133657511544957</speed>
  <fix>3d</fix>
</trkpt>
<trkpt lat="40.0711043" lon="-105.2298988">
  <ele>1583.0</ele>
  <time>2026-08-28T17:56:26Z</time>
  <course>71.19</course>
  <speed>2.97</speed>
  <fix>3d</fix>
</trkpt>
<trkpt lat="40.0711067" lon="-105.2298901">
  <ele>1583.15</ele>
  <time>2026-08-28T17:56:26Z</time>
  <course>70.48</course>
  <speed>2.882724405835563</speed>
  <fix>3d</fix>
</trkpt>
<trkpt lat="40.0711043" lon="-105.2298988">
  <ele>1583.0</ele>
  <time>2026-08-28T17:56:26Z</time>
  <course>71.19</course>
  <speed>2.97</speed>
  <fix>3d</fix>
</trkpt>
<trkpt lat="40.0711076" lon="-105.2298869">
  <ele>1583.15</ele>
  <time>2026-08-28T17:56:26Z</time>
  <course>69.83</course>
  <speed>2.8653970056520963</speed>
  <fix>3d</fix>
</trkpt>
<trkpt lat="40.0711062" lon="-105.2298922">
  <ele>1583.0</ele>
  <time>2026-08-28T17:56:26Z</time>
  <course>69.78</course>
  <speed>2.92</speed>
  <fix>3d</fix>
</trkpt>
<trkpt lat="40.0711085" lon="-105.2298838">
  <ele>1583.15</ele>
  <time>2026-08-28T17:56:26Z</time>
  <course>69.21</course>
  <speed>2.8448550050925268</speed>
  <fix>3d</fix>
</trkpt>
<trkpt lat="40.0711062" lon="-105.2298922">
  <ele>1583.0</ele>
  <time>2026-08-28T17:56:26Z</time>
  <course>69.78</course>
  <speed>2.92</speed>
  <fix>3d</fix>
</trkpt>
<trkpt lat="40.0711095" lon="-105.2298808">
  <ele>1583.15</ele>
  <time>2026-08-28T17:56:26Z</time>
  <course>68.62</course>
  <speed>2.8284624798642812</speed>
  <fix>3d</fix>
</trkpt>
<trkpt lat="40.071108" lon="-105.2298859">
  <ele>1583.0</ele>
  <time>2026-08-28T17:56:26Z</time>
  <course>68.48</course>
  <speed>2.88</speed>
  <fix>3d</fix>
</trkpt>
<trkpt lat="40.0711103" lon="-105.2298783">
  <ele>1583.15</ele>
  <time>2026-08-28T17:56:26Z</time>
  <course>68.17</course>
  <speed>2.8139118678451887</speed>
  <fix>3d</fix>
</trkpt>
<trkpt lat="40.071108" lon="-105.2298859">
  <ele>1583.0</ele>
  <time>2026-08-28T17:56:26Z</time>
  <course>68.48</course>
  <speed>2.88</speed>
  <fix>3d</fix>
</trkpt>
<trkpt lat="40.0711113" lon="-105.2298753">
  <ele>1583.16</ele>
  <time>2026-08-28T17:56:26Z</time>
  <course>67.62</course>
  <speed>2.8074543629416313</speed>
  <fix>3d</fix>
</trkpt>
<trkpt lat="40.07111" lon="-105.2298797">
  <ele>1583.0</ele>
  <time>2026-08-28T17:56:26Z</time>
  <course>67.3</course>
  <speed>2.85</speed>
  <fix>3d</fix>
</trkpt>
<trkpt lat="40.0711124" lon="-105.2298722">
  <ele>1583.16</ele>
  <time>2026-08-28T17:56:26Z</time>
  <course>67.11</course>
  <speed>2.797320146139873</speed>
  <fix>3d</fix>
</trkpt>
<trkpt lat="40.07111" lon="-105.2298797">
  <ele>1583.0</ele>
  <time>2026-08-28T17:56:26Z</time>
  <course>67.3</course>
  <speed>2.85</speed>
  <fix>3d</fix>
</trkpt>
<trkpt lat="40.0711134" lon="-105.2298692">
  <ele>1583.16</ele>
  <time>2026-08-28T17:56:26Z</time>
  <course>66.62</course>
  <speed>2.787436097922247</speed>
  <fix>3d</fix>
</trkpt>
<trkpt lat="40.071112" lon="-105.2298735">
  <ele>1583.0</ele>
  <time>2026-08-28T17:56:26Z</time>
  <course>66.22</course>
  <speed>2.84</speed>
  <fix>3d</fix>
</trkpt>
<trkpt lat="40.0711145" lon="-105.2298662">
  <ele>1583.16</ele>
  <time>2026-08-28T17:56:26Z</time>
  <course>66.15</course>
  <speed>2.7868440932352136</speed>
  <fix>3d</fix>
</trkpt>
<trkpt lat="40.071112" lon="-105.2298735">
  <ele>1583.0</ele>
  <time>2026-08-28T17:56:26Z</time>
  <course>66.22</course>
  <speed>2.84</speed>
  <fix>3d</fix>
</trkpt>
<trkpt lat="40.0711156" lon="-105.2298632">
  <ele>1583.16</ele>
  <time>2026-08-28T17:56:26Z</time>
  <course>65.72</course>
  <speed>2.7730849247724096</speed>
  <fix>3d</fix>
</trkpt>
<trkpt lat="40.071114" lon="-105.2298674">
  <ele>1583.0</ele>
  <time>2026-08-28T17:56:26Z</time>
  <course>65.26</course>
  <speed>2.82</speed>
  <fix>3d</fix>
</trkpt>
<trkpt lat="40.0711167" lon="-105.2298602">
  <ele>1583.16</ele>
  <time>2026-08-28T17:56:26Z</time>
  <course>65.3</course>
  <speed>2.7728144546651508</speed>
  <fix>3d</fix>
</trkpt>
<trkpt lat="40.071114" lon="-105.2298674">
  <ele>1583.0</ele>
  <time>2026-08-28T17:56:26Z</time>
  <course>65.26</course>
  <speed>2.82</speed>
  <fix>3d</fix>
</trkpt>
<trkpt lat="40.0711178" lon="-105.2298573">
  <ele>1583.16</ele>
  <time>2026-08-28T17:56:26Z</time>
  <course>64.92</course>
  <speed>2.7727242920997397</speed>
  <fix>3d</fix>
</trkpt>
<trkpt lat="40.0711162" lon="-105.2298614">
  <ele>1583.0</ele>
  <time>2026-08-28T17:56:26Z</time>
  <course>64.42</course>
  <speed>2.81</speed>
  <fix>3d</fix>
</trkpt>
<trkpt lat="40.0711189" lon="-105.2298543">
  <ele>1583.16</ele>
  <time>2026-08-28T17:56:26Z</time>
  <course>64.56</course>
  <speed>2.768284667443</speed>
  <fix>3d</fix>
</trkpt>
<trkpt lat="40.0711162" lon="-105.2298614">
  <ele>1583.0</ele>
  <time>2026-08-28T17:56:26Z</time>
  <course>64.42</course>
  <speed>2.81</speed>
  <fix>3d</fix>
</trkpt>
<trkpt lat="40.0711203" lon="-105.2298508">
  <ele>1583.17</ele>
  <time>2026-08-28T17:56:26Z</time>
  <course>64.16</course>
  <speed>2.7639102735074452</speed>
  <fix>3d</fix>
</trkpt>
<trkpt lat="40.0711184" lon="-105.2298554">
  <ele>1583.0</ele>
  <time>2026-08-28T17:56:26Z</time>
  <course>63.69</course>
  <speed>2.81</speed>
  <fix>3d</fix>
</trkpt>
<trkpt lat="40.0711215" lon="-105.2298478">
  <ele>1583.17</ele>
  <time>2026-08-28T17:56:26Z</time>
  <course>63.87</course>
  <speed>2.7642177917088953</speed>
  <fix>3d</fix>
</trkpt>
<trkpt lat="40.0711184" lon="-105.2298554">
  <ele>1583.0</ele>
  <time>2026-08-28T17:56:26Z</time>
  <course>63.69</course>
  <speed>2.81</speed>
  <fix>3d</fix>
</trkpt>
<trkpt lat="40.0711226" lon="-105.2298449">
  <ele>1583.18</ele>
  <time>2026-08-28T17:56:26Z</time>
  <course>63.6</course>
  <speed>2.768862582361212</speed>
  <fix>3d</fix>
</trkpt>
<trkpt lat="40.0711207" lon="-105.2298496">
  <ele>1583.0</ele>
  <time>2026-08-28T17:56:26Z</time>
  <course>63.07</course>
  <speed>2.8</speed>
  <fix>3d</fix>
</trkpt>
<trkpt lat="40.0711238" lon="-105.229842">
  <ele>1583.18</ele>
  <time>2026-08-28T17:56:26Z</time>
  <course>63.35</course>
  <speed>2.760018115882575</speed>
  <fix>3d</fix>
</trkpt>
<trkpt lat="40.0711207" lon="-105.2298496">
  <ele>1583.0</ele>
  <time>2026-08-28T17:56:26Z</time>
  <course>63.07</course>
  <speed>2.8</speed>
  <fix>3d</fix>
</trkpt>
<trkpt lat="40.071125" lon="-105.229839">
  <ele>1583.17</ele>
  <time>2026-08-28T17:56:26Z</time>
  <course>63.14</course>
  <speed>2.755884612969128</speed>
  <fix>3d</fix>
</trkpt>
<trkpt lat="40.071123" lon="-105.2298437">
  <ele>1583.0</ele>
  <time>2026-08-28T17:56:26Z</time>
  <course>62.56</course>
  <speed>2.8</speed>
  <fix>3d</fix>
</trkpt>
<trkpt lat="40.0711261" lon="-105.2298361">
  <ele>1583.17</ele>
  <time>2026-08-28T17:56:26Z</time>
  <course>62.95</course>
  <speed>2.7606158733152286</speed>
  <fix>3d</fix>
</trkpt>
<trkpt lat="40.071123" lon="-105.2298437">
  <ele>1583.0</ele>
  <time>2026-08-28T17:56:26Z</time>
  <course>62.56</course>
  <speed>2.8</speed>
  <fix>3d</fix>
</trkpt>
<trkpt lat="40.0711273" lon="-105.2298332">
  <ele>1583.17</ele>
  <time>2026-08-28T17:56:26Z</time>
  <course>62.8</course>
  <speed>2.7606158733152286</speed>
  <fix>3d</fix>
</trkpt>
<trkpt lat="40.0711253" lon="-105.2298378">
  <ele>1583.0</ele>
  <time>2026-08-28T17:56:26Z</time>
  <course>62.15</course>
  <speed>2.8</speed>
  <fix>3d</fix>
</trkpt>
<trkpt lat="40.0711285" lon="-105.2298303">
  <ele>1583.17</ele>
  <time>2026-08-28T17:56:26Z</time>
  <course>62.67</course>
  <speed>2.765375200583096</speed>
  <fix>3d</fix>
</trkpt>
<trkpt lat="40.0711253" lon="-105.2298378">
  <ele>1583.0</ele>
  <time>2026-08-28T17:56:26Z</time>
  <course>62.15</course>
  <speed>2.8</speed>
  <fix>3d</fix>
</trkpt>
<trkpt lat="40.0711297" lon="-105.2298274">
  <ele>1583.17</ele>
  <time>2026-08-28T17:56:26Z</time>
  <course>62.57</course>
  <speed>2.765375200583096</speed>
  <fix>3d</fix>
</trkpt>
<trkpt lat="40.0711277" lon="-105.2298321">
  <ele>1583.0</ele>
  <time>2026-08-28T17:56:26Z</time>
  <course>61.85</course>
  <speed>2.8</speed>
  <fix>3d</fix>
</trkpt>
<trkpt lat="40.0711309" lon="-105.2298246">
  <ele>1583.17</ele>
  <time>2026-08-28T17:56:26Z</time>
  <course>62.49</course>
  <speed>2.770162450110101</speed>
  <fix>3d</fix>
</trkpt>
<trkpt lat="40.0711277" lon="-105.2298321">
  <ele>1583.0</ele>
  <time>2026-08-28T17:56:26Z</time>
  <course>61.85</course>
  <speed>2.8</speed>
  <fix>3d</fix>
</trkpt>
<trkpt lat="40.0711321" lon="-105.2298217">
  <ele>1583.16</ele>
  <time>2026-08-28T17:56:26Z</time>
  <course>62.45</course>
  <speed>2.770162450110101</speed>
  <fix>3d</fix>
</trkpt>
<trkpt lat="40.0711301" lon="-105.2298263">
  <ele>1583.0</ele>
  <time>2026-08-28T17:56:26Z</time>
  <course>61.64</course>
  <speed>2.81</speed>
  <fix>3d</fix>
</trkpt>
<trkpt lat="40.0711333" lon="-105.2298188">
  <ele>1583.16</ele>
  <time>2026-08-28T17:56:26Z</time>
  <course>62.42</course>
  <speed>2.7789386463180508</speed>
  <fix>3d</fix>
</trkpt>
<trkpt lat="40.0711301" lon="-105.2298263">
  <ele>1583.0</ele>
  <time>2026-08-28T17:56:26Z</time>
  <course>61.64</course>
  <speed>2.81</speed>
  <fix>3d</fix>
</trkpt>
<trkpt lat="40.0711342" lon="-105.2298165">
  <ele>1583.16</ele>
  <time>2026-08-28T17:56:26Z</time>
  <course>62.42</course>
  <speed>2.7789386463180508</speed>
  <fix>3d</fix>
</trkpt>
<trkpt lat="40.0711325" lon="-105.2298204">
  <ele>1583.0</ele>
  <time>2026-08-28T17:56:26Z</time>
  <course>61.53</course>
  <speed>2.82</speed>
  <fix>3d</fix>
</trkpt>
<trkpt lat="40.0711354" lon="-105.2298135">
  <ele>1583.16</ele>
  <time>2026-08-28T17:56:26Z</time>
  <course>62.44</course>
  <speed>2.7877230852435826</speed>
  <fix>3d</fix>
</trkpt>
<trkpt lat="40.0711325" lon="-105.2298204">
  <ele>1583.0</ele>
  <time>2026-08-28T17:56:26Z</time>
  <course>61.53</course>
  <speed>2.82</speed>
  <fix>3d</fix>
</trkpt>
<trkpt lat="40.0711366" lon="-105.2298106">
  <ele>1583.16</ele>
  <time>2026-08-28T17:56:26Z</time>
  <course>62.48</course>
  <speed>2.796515689210415</speed>
  <fix>3d</fix>
</trkpt>
<trkpt lat="40.0711349" lon="-105.2298146">
  <ele>1583.0</ele>
  <time>2026-08-28T17:56:26Z</time>
  <course>61.52</course>
  <speed>2.83</speed>
  <fix>3d</fix>
</trkpt>
<trkpt lat="40.0711379" lon="-105.2298077">
  <ele>1583.16</ele>
  <time>2026-08-28T17:56:26Z</time>
  <course>62.53</course>
  <speed>2.8053163814443463</speed>
  <fix>3d</fix>
</trkpt>
<trkpt lat="40.0711349" lon="-105.2298146">
  <ele>1583.0</ele>
  <time>2026-08-28T17:56:26Z</time>
  <course>61.52</course>
  <speed>2.83</speed>
  <fix>3d</fix>
</trkpt>
<trkpt lat="40.0711391" lon="-105.2298047">
  <ele>1583.16</ele>
  <time>2026-08-28T17:56:26Z</time>
  <course>62.61</course>
  <speed>2.8053163814443463</speed>
  <fix>3d</fix>
</trkpt>
<trkpt lat="40.0711374" lon="-105.2298087">
  <ele>1583.0</ele>
  <time>2026-08-28T17:56:26Z</time>
  <course>61.58</course>
  <speed>2.84</speed>
  <fix>3d</fix>
</trkpt>
<trkpt lat="40.0711403" lon="-105.2298017">
  <ele>1583.16</ele>
  <time>2026-08-28T17:56:26Z</time>
  <course>62.7</course>
  <speed>2.8141250860613853</speed>
  <fix>3d</fix>
</trkpt>
<trkpt lat="40.0711374" lon="-105.2298087">
  <ele>1583.0</ele>
  <time>2026-08-28T17:56:26Z</time>
  <course>61.58</course>
  <speed>2.84</speed>
  <fix>3d</fix>
</trkpt>
<trkpt lat="40.0711415" lon="-105.2297987">
  <ele>1583.16</ele>
  <time>2026-08-28T17:56:26Z</time>
  <course>62.8</course>
  <speed>2.8182441342083906</speed>
  <fix>3d</fix>
</trkpt>
<trkpt lat="40.0711398" lon="-105.2298028">
  <ele>1583.0</ele>
  <time>2026-08-28T17:56:26Z</time>
  <course>61.73</course>
  <speed>2.85</speed>
  <fix>3d</fix>
</trkpt>
<trkpt lat="40.0711427" lon="-105.2297957">
  <ele>1583.15</ele>
  <time>2026-08-28T17:56:26Z</time>
  <course>62.93</course>
  <speed>2.827083302628347</speed>
  <fix>3d</fix>
</trkpt>
<trkpt lat="40.0711398" lon="-105.2298028">
  <ele>1583.0</ele>
  <time>2026-08-28T17:56:26Z</time>
  <course>61.73</course>
  <speed>2.85</speed>
  <fix>3d</fix>
</trkpt>
<trkpt lat="40.0711439" lon="-105.2297927">
  <ele>1583.16</ele>
  <time>2026-08-28T17:56:26Z</time>
  <course>63.06</course>
  <speed>2.8312894588861806</speed>
  <fix>3d</fix>
</trkpt>
<trkpt lat="40.0711422" lon="-105.2297969">
  <ele>1583.0</ele>
  <time>2026-08-28T17:56:26Z</time>
  <course>61.96</course>
  <speed>2.86</speed>
  <fix>3d</fix>
</trkpt>
<trkpt lat="40.0711453" lon="-105.2297891">
  <ele>1583.16</ele>
  <time>2026-08-28T17:56:26Z</time>
  <course>63.25</course>
  <speed>2.8355599094358777</speed>
  <fix>3d</fix>
</trkpt>
<trkpt lat="40.0711422" lon="-105.2297969">
  <ele>1583.0</ele>
  <time>2026-08-28T17:56:26Z</time>
  <course>61.96</course>
  <speed>2.86</speed>
  <fix>3d</fix>
</trkpt>
<trkpt lat="40.0711465" lon="-105.2297861">
  <ele>1583.16</ele>
  <time>2026-08-28T17:56:26Z</time>
  <course>63.41</course>
  <speed>2.84445073784026</speed>
  <fix>3d</fix>
</trkpt>
<trkpt lat="40.0711446" lon="-105.229791">
  <ele>1583.0</ele>
  <time>2026-08-28T17:56:26Z</time>
  <course>62.26</course>
  <speed>2.87</speed>
  <fix>3d</fix>
</trkpt>
<trkpt lat="40.0711477" lon="-105.2297831">
  <ele>1583.16</ele>
  <time>2026-08-28T17:56:26Z</time>
  <course>63.6</course>
  <speed>2.848806767753826</speed>
  <fix>3d</fix>
</trkpt>
<trkpt lat="40.0711446" lon="-105.229791">
  <ele>1583.0</ele>
  <time>2026-08-28T17:56:26Z</time>
  <course>62.26</course>
  <speed>2.87</speed>
  <fix>3d</fix>
</trkpt>
<trkpt lat="40.0711489" lon="-105.22978">
  <ele>1583.16</ele>
  <time>2026-08-28T17:56:26Z</time>
  <course>63.79</course>
  <speed>2.853226244096321</speed>
  <fix>3d</fix>
</trkpt>
<trkpt lat="40.071147" lon="-105.2297849">
  <ele>1583.0</ele>
  <time>2026-08-28T17:56:26Z</time>
  <course>62.63</course>
  <speed>2.88</speed>
  <fix>3d</fix>
</trkpt>
<trkpt lat="40.0711501" lon="-105.229777">
  <ele>1583.17</ele>
  <time>2026-08-28T17:56:26Z</time>
  <course>64.01</course>
  <speed>2.8666705426330386</speed>
  <fix>3d</fix>
</trkpt>
<trkpt lat="40.071147" lon="-105.2297849">
  <ele>1583.0</ele>
  <time>2026-08-28T17:56:26Z</time>
  <course>62.63</course>
  <speed>2.88</speed>
  <fix>3d</fix>
</trkpt>
<trkpt lat="40.0711512" lon="-105.2297739">
  <ele>1583.17</ele>
  <time>2026-08-28T17:56:26Z</time>
  <course>64.24</course>
  <speed>2.8712366673612957</speed>
  <fix>3d</fix>
</trkpt>
<trkpt lat="40.0711493" lon="-105.2297789">
  <ele>1583.0</ele>
  <time>2026-08-28T17:56:26Z</time>
  <course>63.06</course>
  <speed>2.89</speed>
  <fix>3d</fix>
</trkpt>
<trkpt lat="40.0711524" lon="-105.2297708">
  <ele>1583.17</ele>
  <time>2026-08-28T17:56:26Z</time>
  <course>64.48</course>
  <speed>2.875865087238968</speed>
  <fix>3d</fix>
</trkpt>
<trkpt lat="40.0711493" lon="-105.2297789">
  <ele>1583.0</ele>
  <time>2026-08-28T17:56:26Z</time>
  <course>63.06</course>
  <speed>2.89</speed>
  <fix>3d</fix>
</trkpt>
<trkpt lat="40.0711535" lon="-105.2297678">
  <ele>1583.17</ele>
  <time>2026-08-28T17:56:26Z</time>
  <course>64.74</course>
  <speed>2.8805555019822133</speed>
  <fix>3d</fix>
</trkpt>
<trkpt lat="40.0711517" lon="-105.2297728">
  <ele>1583.0</ele>
  <time>2026-08-28T17:56:26Z</time>
  <course>63.55</course>
  <speed>2.91</speed>
  <fix>3d</fix>
</trkpt>
<trkpt lat="40.0711546" lon="-105.2297647">
  <ele>1583.16</ele>
  <time>2026-08-28T17:56:26Z</time>
  <course>65.02</course>
  <speed>2.885307609250702</speed>
  <fix>3d</fix>
</trkpt>
<trkpt lat="40.0711517" lon="-105.2297728">
  <ele>1583.0</ele>
  <time>2026-08-28T17:56:26Z</time>
  <course>63.55</course>
  <speed>2.91</speed>
  <fix>3d</fix>
</trkpt>
<trkpt lat="40.0711557" lon="-105.2297616">
  <ele>1583.16</ele>
  <time>2026-08-28T17:56:26Z</time>
  <course>65.31</course>
  <speed>2.8991895419237426</speed>
  <fix>3d</fix>
</trkpt>
<trkpt lat="40.071154" lon="-105.2297667">
  <ele>1583.0</ele>
  <time>2026-08-28T17:56:26Z</time>
  <course>64.09</course>
  <speed>2.92</speed>
  <fix>3d</fix>
</trkpt>
<trkpt lat="40.0711568" lon="-105.2297585">
  <ele>1583.16</ele>
  <time>2026-08-28T17:56:26Z</time>
  <course>65.61</course>
  <speed>2.9040833321376986</speed>
  <fix>3d</fix>
</trkpt>
<trkpt lat="40.071154" lon="-105.2297667">
  <ele>1583.0</ele>
  <time>2026-08-28T17:56:26Z</time>
  <course>64.09</course>
  <speed>2.92</speed>
  <fix>3d</fix>
</trkpt>
<trkpt lat="40.0711577" lon="-105.229756">
  <ele>1583.16</ele>
  <time>2026-08-28T17:56:26Z</time>
  <course>65.87</course>
  <speed>2.904926849337174</speed>
  <fix>3d</fix>
</trkpt>
<trkpt lat="40.0711563" lon="-105.2297605">
  <ele>1583.0</ele>
  <time>2026-08-28T17:56:26Z</time>
  <course>64.67</course>
  <speed>2.94</speed>
  <fix>3d</fix>
</trkpt>
<trkpt lat="40.0711588" lon="-105.2297529">
  <ele>1583.16</ele>
  <time>2026-08-28T17:56:26Z</time>
  <course>66.2</course>
  <speed>2.9099828178186895</speed>
  <fix>3d</fix>
</trkpt>
<trkpt lat="40.0711563" lon="-105.2297605">
  <ele>1583.0</ele>
  <time>2026-08-28T17:56:26Z</time>
  <course>64.67</course>
  <speed>2.94</speed>
  <fix>3d</fix>
</trkpt>
<trkpt lat="40.0711599" lon="-105.2297498">
  <ele>1583.16</ele>
  <time>2026-08-28T17:56:26Z</time>
  <course>66.54</course>
  <speed>2.915098626118849</speed>
  <fix>3d</fix>
</trkpt>
<trkpt lat="40.0711585" lon="-105.2297542">
  <ele>1583.0</ele>
  <time>2026-08-28T17:56:26Z</time>
  <course>65.3</course>
  <speed>2.95</speed>
  <fix>3d</fix>
</trkpt>
<trkpt lat="40.071161" lon="-105.2297466">
  <ele>1583.16</ele>
  <time>2026-08-28T17:56:26Z</time>
  <course>66.89</course>
  <speed>2.916316169416478</speed>
  <fix>3d</fix>
</trkpt>
<trkpt lat="40.0711585" lon="-105.2297542">
  <ele>1583.0</ele>
  <time>2026-08-28T17:56:26Z</time>
  <course>65.3</course>
  <speed>2.95</speed>
  <fix>3d</fix>
</trkpt>
<trkpt lat="40.071162" lon="-105.2297434">
  <ele>1583.16</ele>
  <time>2026-08-28T17:56:26Z</time>
  <course>67.25</course>
  <speed>2.921592031752551</speed>
  <fix>3d</fix>
</trkpt>
<trkpt lat="40.0711608" lon="-105.2297479">
  <ele>1583.0</ele>
  <time>2026-08-28T17:56:26Z</time>
  <course>65.97</course>
  <speed>2.95</speed>
  <fix>3d</fix>
</trkpt>
<trkpt lat="40.0711631" lon="-105.2297402">
  <ele>1583.16</ele>
  <time>2026-08-28T17:56:26Z</time>
  <course>67.61</course>
  <speed>2.9230805667993485</speed>
  <fix>3d</fix>
</trkpt>
<trkpt lat="40.0711608" lon="-105.2297479">
  <ele>1583.0</ele>
  <time>2026-08-28T17:56:26Z</time>
  <course>65.97</course>
  <speed>2.95</speed>
  <fix>3d</fix>
</trkpt>
<trkpt lat="40.0711641" lon="-105.229737">
  <ele>1583.16</ele>
  <time>2026-08-28T17:56:26Z</time>
  <course>67.98</course>
  <speed>2.9192636057745798</speed>
  <fix>3d</fix>
</trkpt>
<trkpt lat="40.0711629" lon="-105.2297414">
  <ele>1583.0</ele>
  <time>2026-08-28T17:56:26Z</time>
  <course>66.67</course>
  <speed>2.96</speed>
  <fix>3d</fix>
</trkpt>
<trkpt lat="40.0711651" lon="-105.2297337">
  <ele>1583.16</ele>
  <time>2026-08-28T17:56:26Z</time>
  <course>68.36</course>
  <speed>2.93027302482209</speed>
  <fix>3d</fix>
</trkpt>
<trkpt lat="40.0711629" lon="-105.2297414">
  <ele>1583.0</ele>
  <time>2026-08-28T17:56:26Z</time>
  <course>66.67</course>
  <speed>2.96</speed>
  <fix>3d</fix>
</trkpt>
<trkpt lat="40.0711662" lon="-105.2297305">
  <ele>1583.15</ele>
  <time>2026-08-28T17:56:26Z</time>
  <course>68.74</course>
  <speed>2.932200538844504</speed>
  <fix>3d</fix>
</trkpt>
<trkpt lat="40.0711649" lon="-105.2297351">
  <ele>1583.0</ele>
  <time>2026-08-28T17:56:26Z</time>
  <course>67.4</course>
  <speed>2.97</speed>
  <fix>3d</fix>
</trkpt>
<trkpt lat="40.0711672" lon="-105.2297272">
  <ele>1583.15</ele>
  <time>2026-08-28T17:56:26Z</time>
  <course>69.12</course>
  <speed>2.937890399589474</speed>
  <fix>3d</fix>
</trkpt>
<trkpt lat="40.0711649" lon="-105.2297351">
  <ele>1583.0</ele>
  <time>2026-08-28T17:56:26Z</time>
  <course>67.4</course>
  <speed>2.97</speed>
  <fix>3d</fix>
</trkpt>
<trkpt lat="40.0711683" lon="-105.2297233">
  <ele>1583.15</ele>
  <time>2026-08-28T17:56:26Z</time>
  <course>69.58</course>
  <speed>2.940085032783916</speed>
  <fix>3d</fix>
</trkpt>
<trkpt lat="40.071167" lon="-105.2297286">
  <ele>1583.0</ele>
  <time>2026-08-28T17:56:26Z</time>
  <course>68.16</course>
  <speed>2.97</speed>
  <fix>3d</fix>
</trkpt>
<trkpt lat="40.0711693" lon="-105.22972">
  <ele>1583.14</ele>
  <time>2026-08-28T17:56:26Z</time>
  <course>69.96</course>
  <speed>2.9424479604574145</speed>
  <fix>3d</fix>
</trkpt>
<trkpt lat="40.071167" lon="-105.2297286">
  <ele>1583.0</ele>
  <time>2026-08-28T17:56:26Z</time>
  <course>68.16</course>
  <speed>2.97</speed>
  <fix>3d</fix>
</trkpt>
<trkpt lat="40.0711702" lon="-105.2297167">
  <ele>1583.14</ele>
  <time>2026-08-28T17:56:26Z</time>
  <course>70.34</course>
  <speed>2.944978777512666</speed>
  <fix>3d</fix>
</trkpt>
<trkpt lat="40.0711689" lon="-105.2297221">
  <ele>1583.0</ele>
  <time>2026-08-28T17:56:27Z</time>
  <course>68.95</course>
  <speed>2.98</speed>
  <fix>3d</fix>
</trkpt>
<trkpt lat="40.0711712" lon="-105.2297134">
  <ele>1583.14</ele>
  <time>2026-08-28T17:56:27Z</time>
  <course>70.73</course>
  <speed>2.951016773927251</speed>
  <fix>3d</fix>
</trkpt>
<trkpt lat="40.0711689" lon="-105.2297221">
  <ele>1583.0</ele>
  <time>2026-08-28T17:56:27Z</time>
  <course>68.95</course>
  <speed>2.98</speed>
  <fix>3d</fix>
</trkpt>
<trkpt lat="40.0711721" lon="-105.2297101">
  <ele>1583.14</ele>
  <time>2026-08-28T17:56:27Z</time>
  <course>71.12</course>
  <speed>2.9538110975483858</speed>
  <fix>3d</fix>
</trkpt>
<trkpt lat="40.0711708" lon="-105.2297155">
  <ele>1583.0</ele>
  <time>2026-08-28T17:56:27Z</time>
  <course>69.75</course>
  <speed>2.99</speed>
  <fix>3d</fix>
</trkpt>
<trkpt lat="40.071173" lon="-105.2297068">
  <ele>1583.14</ele>
  <time>2026-08-28T17:56:27Z</time>
  <course>71.51</course>
  <speed>2.9567718883945036</speed>
  <fix>3d</fix>
</trkpt>
<trkpt lat="40.0711708" lon="-105.2297155">
  <ele>1583.0</ele>
  <time>2026-08-28T17:56:27Z</time>
  <course>69.75</course>
  <speed>2.99</speed>
  <fix>3d</fix>
</trkpt>
<trkpt lat="40.0711739" lon="-105.2297034">
  <ele>1583.14</ele>
  <time>2026-08-28T17:56:27Z</time>
  <course>71.91</course>
  <speed>2.959898646913438</speed>
  <fix>3d</fix>
</trkpt>
<trkpt lat="40.0711727" lon="-105.2297089">
  <ele>1583.0</ele>
  <time>2026-08-28T17:56:27Z</time>
  <course>70.56</course>
  <speed>3.0</speed>
  <fix>3d</fix>
</trkpt>
<trkpt lat="40.0711747" lon="-105.2297001">
  <ele>1583.14</ele>
  <time>2026-08-28T17:56:27Z</time>
  <course>72.31</course>
  <speed>2.9631908477180473</speed>
  <fix>3d</fix>
</trkpt>
<trkpt lat="40.0711727" lon="-105.2297089">
  <ele>1583.0</ele>
  <time>2026-08-28T17:56:27Z</time>
  <course>70.56</course>
  <speed>3.0</speed>
  <fix>3d</fix>
</trkpt>
<trkpt lat="40.0711756" lon="-105.2296968">
  <ele>1583.14</ele>
  <time>2026-08-28T17:56:27Z</time>
  <course>72.7</course>
  <speed>2.9666479400158017</speed>
  <fix>3d</fix>
</trkpt>
<trkpt lat="40.0711744" lon="-105.2297022">
  <ele>1583.0</ele>
  <time>2026-08-28T17:56:27Z</time>
  <course>71.37</course>
  <speed>3.0</speed>
  <fix>3d</fix>
</trkpt>
<trkpt lat="40.0711764" lon="-105.2296935">
  <ele>1583.14</ele>
  <time>2026-08-28T17:56:27Z</time>
  <course>73.1</course>
  <speed>2.970269348055829</speed>
  <fix>3d</fix>
</trkpt>
<trkpt lat="40.0711744" lon="-105.2297022">
  <ele>1583.0</ele>
  <time>2026-08-28T17:56:27Z</time>
  <course>71.37</course>
  <speed>3.0</speed>
  <fix>3d</fix>
</trkpt>
<trkpt lat="40.0711772" lon="-105.2296901">
  <ele>1583.14</ele>
  <time>2026-08-28T17:56:27Z</time>
  <course>73.5</course>
  <speed>2.9740544715926105</speed>
  <fix>3d</fix>
</trkpt>
<trkpt lat="40.0711761" lon="-105.2296955">
  <ele>1583.0</ele>
  <time>2026-08-28T17:56:27Z</time>
  <course>72.19</course>
  <speed>3.01</speed>
  <fix>3d</fix>
</trkpt>
<trkpt lat="40.0711778" lon="-105.2296874">
  <ele>1583.15</ele>
  <time>2026-08-28T17:56:27Z</time>
  <course>73.83</course>
  <speed>2.980805260328155</speed>
  <fix>3d</fix>
</trkpt>
<trkpt lat="40.0711761" lon="-105.2296955">
  <ele>1583.0</ele>
  <time>2026-08-28T17:56:27Z</time>
  <course>72.19</course>
  <speed>3.01</speed>
  <fix>3d</fix>
</trkpt>
<trkpt lat="40.0711786" lon="-105.229684">
  <ele>1583.15</ele>
  <time>2026-08-28T17:56:27Z</time>
  <course>74.23</course>
  <speed>2.984845054605012</speed>
  <fix>3d</fix>
</trkpt>
<trkpt lat="40.0711778" lon="-105.2296887">
  <ele>1583.0</ele>
  <time>2026-08-28T17:56:27Z</time>
  <course>73.0</course>
  <speed>3.02</speed>
  <fix>3d</fix>
</trkpt>
<trkpt lat="40.0711793" lon="-105.2296806">
  <ele>1583.15</ele>
  <time>2026-08-28T17:56:27Z</time>
  <course>74.63</course>
  <speed>2.9890466707631047</speed>
  <fix>3d</fix>
</trkpt>
<trkpt lat="40.0711778" lon="-105.2296887">
  <ele>1583.0</ele>
  <time>2026-08-28T17:56:27Z</time>
  <course>73.0</course>
  <speed>3.02</speed>
  <fix>3d</fix>
</trkpt>
<trkpt lat="40.0711801" lon="-105.2296771">
  <ele>1583.16</ele>
  <time>2026-08-28T17:56:27Z</time>
  <course>75.03</course>
  <speed>2.993409427392117</speed>
  <fix>3d</fix>
</trkpt>
<trkpt lat="40.0711793" lon="-105.2296819">
  <ele>1583.0</ele>
  <time>2026-08-28T17:56:27Z</time>
  <course>73.8</course>
  <speed>3.03</speed>
  <fix>3d</fix>
</trkpt>
<trkpt lat="40.0711808" lon="-105.2296737">
  <ele>1583.16</ele>
  <time>2026-08-28T17:56:27Z</time>
  <course>75.43</course>
  <speed>2.997932620990672</speed>
  <fix>3d</fix>
</trkpt>
<trkpt lat="40.0711793" lon="-105.2296819">
  <ele>1583.0</ele>
  <time>2026-08-28T17:56:27Z</time>
  <course>73.8</course>
  <speed>3.03</speed>
  <fix>3d</fix>
</trkpt>
<trkpt lat="40.0711815" lon="-105.2296702">
  <ele>1583.16</ele>
  <time>2026-08-28T17:56:27Z</time>
  <course>75.82</course>
  <speed>3.002615526503518</speed>
  <fix>3d</fix>
</trkpt>
<trkpt lat="40.0711808" lon="-105.229675">
  <ele>1583.0</ele>
  <time>2026-08-28T17:56:27Z</time>
  <course>74.59</course>
  <speed>3.04</speed>
  <fix>3d</fix>
</trkpt>
<trkpt lat="40.0711822" lon="-105.2296667">
  <ele>1583.16</ele>
  <time>2026-08-28T17:56:27Z</time>
  <course>76.21</course>
  <speed>3.0074573978695027</speed>
  <fix>3d</fix>
</trkpt>
<trkpt lat="40.0711808" lon="-105.229675">
  <ele>1583.0</ele>
  <time>2026-08-28T17:56:27Z</time>
  <course>74.59</course>
  <speed>3.04</speed>
  <fix>3d</fix>
</trkpt>
<trkpt lat="40.0711829" lon="-105.2296632">
  <ele>1583.16</ele>
  <time>2026-08-28T17:56:27Z</time>
  <course>76.59</course>
  <speed>3.0124574685794325</speed>
  <fix>3d</fix>
</trkpt>
<trkpt lat="40.0711822" lon="-105.2296681">
  <ele>1583.0</ele>
  <time>2026-08-28T17:56:27Z</time>
  <course>75.37</course>
  <speed>3.05</speed>
  <fix>3d</fix>
</trkpt>
<trkpt lat="40.0711836" lon="-105.2296597">
  <ele>1583.16</ele>
  <time>2026-08-28T17:56:27Z</time>
  <course>76.96</course>
  <speed>3.017614952242913</speed>
  <fix>3d</fix>
</trkpt>
<trkpt lat="40.0711822" lon="-105.2296681">
  <ele>1583.0</ele>
  <time>2026-08-28T17:56:27Z</time>
  <course>75.37</course>
  <speed>3.05</speed>
  <fix>3d</fix>
</trkpt>
<trkpt lat="40.0711842" lon="-105.2296562">
  <ele>1583.16</ele>
  <time>2026-08-28T17:56:27Z</time>
  <course>77.33</course>
  <speed>3.0229290431632694</speed>
  <fix>3d</fix>
</trkpt>
<trkpt lat="40.0711836" lon="-105.2296612">
  <ele>1583.0</ele>
  <time>2026-08-28T17:56:27Z</time>
  <course>76.12</course>
  <speed>3.05</speed>
  <fix>3d</fix>
</trkpt>
<trkpt lat="40.0711849" lon="-105.2296519">
  <ele>1583.17</ele>
  <time>2026-08-28T17:56:27Z</time>
  <course>77.76</course>
  <speed>3.016521175128728</speed>
  <fix>3d</fix>
</trkpt>
<trkpt lat="40.0711836" lon="-105.2296612">
  <ele>1583.0</ele>
  <time>2026-08-28T17:56:27Z</time>
  <course>76.12</course>
  <speed>3.05</speed>
  <fix>3d</fix>
</trkpt>
<trkpt lat="40.0711855" lon="-105.2296484">
  <ele>1583.17</ele>
  <time>2026-08-28T17:56:27Z</time>
  <course>78.1</course>
  <speed>3.0222011845673014</speed>
  <fix>3d</fix>
</trkpt>
<trkpt lat="40.0711849" lon="-105.2296542">
  <ele>1583.0</ele>
  <time>2026-08-28T17:56:27Z</time>
  <course>76.85</course>
  <speed>3.05</speed>
  <fix>3d</fix>
</trkpt>
<trkpt lat="40.0711861" lon="-105.2296449">
  <ele>1583.17</ele>
  <time>2026-08-28T17:56:27Z</time>
  <course>78.44</course>
  <speed>3.020198668962027</speed>
  <fix>3d</fix>
</trkpt>
<trkpt lat="40.0711849" lon="-105.2296542">
  <ele>1583.0</ele>
  <time>2026-08-28T17:56:27Z</time>
  <course>76.85</course>
  <speed>3.05</speed>
  <fix>3d</fix>
</trkpt>
<trkpt lat="40.0711867" lon="-105.2296414">
  <ele>1583.16</ele>
  <time>2026-08-28T17:56:27Z</time>
  <course>78.77</course>
  <speed>3.0261031046545654</speed>
  <fix>3d</fix>
</trkpt>
<trkpt lat="40.0711861" lon="-105.2296473">
  <ele>1583.0</ele>
  <time>2026-08-28T17:56:27Z</time>
  <course>77.55</course>
  <speed>3.05</speed>
  <fix>3d</fix>
</trkpt>
<trkpt lat="40.0711873" lon="-105.2296379">
  <ele>1583.16</ele>
  <time>2026-08-28T17:56:27Z</time>
  <course>79.09</course>
  <speed>3.022333535531775</speed>
  <fix>3d</fix>
</trkpt>
<trkpt lat="40.0711861" lon="-105.2296473">
  <ele>1583.0</ele>
  <time>2026-08-28T17:56:27Z</time>
  <course>77.55</course>
  <speed>3.05</speed>
  <fix>3d</fix>
</trkpt>
<trkpt lat="40.0711878" lon="-105.2296343">
  <ele>1583.16</ele>
  <time>2026-08-28T17:56:27Z</time>
  <course>79.4</course>
  <speed>3.018691769624716</speed>
  <fix>3d</fix>
</trkpt>
<trkpt lat="40.0711872" lon="-105.2296402">
  <ele>1583.0</ele>
  <time>2026-08-28T17:56:27Z</time>
  <course>78.23</course>
  <speed>3.05</speed>
  <fix>3d</fix>
</trkpt>
<trkpt lat="40.0711883" lon="-105.2296308">
  <ele>1583.16</ele>
  <time>2026-08-28T17:56:27Z</time>
  <course>79.71</course>
  <speed>3.0169189581425617</speed>
  <fix>3d</fix>
</trkpt>
<trkpt lat="40.0711872" lon="-105.2296402">
  <ele>1583.0</ele>
  <time>2026-08-28T17:56:27Z</time>
  <course>78.23</course>
  <speed>3.05</speed>
  <fix>3d</fix>
</trkpt>
<trkpt lat="40.0711888" lon="-105.2296273">
  <ele>1583.16</ele>
  <time>2026-08-28T17:56:27Z</time>
  <course>80.0</course>
  <speed>3.0233259830855155</speed>
  <fix>3d</fix>
</trkpt>
<trkpt lat="40.0711883" lon="-105.2296332">
  <ele>1583.0</ele>
  <time>2026-08-28T17:56:27Z</time>
  <course>78.87</course>
  <speed>3.04</speed>
  <fix>3d</fix>
</trkpt>
<trkpt lat="40.0711893" lon="-105.2296238">
  <ele>1583.15</ele>
  <time>2026-08-28T17:56:27Z</time>
  <course>80.29</course>
  <speed>3.0200165562460084</speed>
  <fix>3d</fix>
</trkpt>
<trkpt lat="40.0711883" lon="-105.2296332">
  <ele>1583.0</ele>
  <time>2026-08-28T17:56:27Z</time>
  <course>78.87</course>
  <speed>3.04</speed>
  <fix>3d</fix>
</trkpt>
<trkpt lat="40.0711898" lon="-105.2296203">
  <ele>1583.15</ele>
  <time>2026-08-28T17:56:27Z</time>
  <course>80.58</course>
  <speed>3.008537850850476</speed>
  <fix>3d</fix>
</trkpt>
<trkpt lat="40.0711893" lon="-105.2296261">
  <ele>1583.0</ele>
  <time>2026-08-28T17:56:27Z</time>
  <course>79.47</course>
  <speed>3.04</speed>
  <fix>3d</fix>
</trkpt>
<trkpt lat="40.0711902" lon="-105.2296168">
  <ele>1583.15</ele>
  <time>2026-08-28T17:56:27Z</time>
  <course>80.86</course>
  <speed>3.0054117854297435</speed>
  <fix>3d</fix>
</trkpt>
<trkpt lat="40.0711893" lon="-105.2296261">
  <ele>1583.0</ele>
  <time>2026-08-28T17:56:27Z</time>
  <course>79.47</course>
  <speed>3.04</speed>
  <fix>3d</fix>
</trkpt>
<trkpt lat="40.0711906" lon="-105.229614">
  <ele>1583.14</ele>
  <time>2026-08-28T17:56:27Z</time>
  <course>81.08</course>
  <speed>3.0038974682901545</speed>
  <fix>3d</fix>
</trkpt>
<trkpt lat="40.0711903" lon="-105.2296192">
  <ele>1583.0</ele>
  <time>2026-08-28T17:56:27Z</time>
  <course>80.04</course>
  <speed>3.04</speed>
  <fix>3d</fix>
</trkpt>
<trkpt lat="40.0711911" lon="-105.2296105">
  <ele>1583.14</ele>
  <time>2026-08-28T17:56:27Z</time>
  <course>81.34</course>
  <speed>3.0024156940703595</speed>
  <fix>3d</fix>
</trkpt>
<trkpt lat="40.0711903" lon="-105.2296192">
  <ele>1583.0</ele>
  <time>2026-08-28T17:56:27Z</time>
  <course>80.04</course>
  <speed>3.04</speed>
  <fix>3d</fix>
</trkpt>
<trkpt lat="40.0711915" lon="-105.229607">
  <ele>1583.14</ele>
  <time>2026-08-28T17:56:27Z</time>
  <course>81.59</course>
  <speed>3.000966510976089</speed>
  <fix>3d</fix>
</trkpt>
<trkpt lat="40.0711912" lon="-105.2296121">
  <ele>1583.0</ele>
  <time>2026-08-28T17:56:27Z</time>
  <course>80.57</course>
  <speed>3.03</speed>
  <fix>3d</fix>
</trkpt>
<trkpt lat="40.0711919" lon="-105.2296035">
  <ele>1583.13</ele>
  <time>2026-08-28T17:56:27Z</time>
  <course>81.83</course>
  <speed>2.989648808806814</speed>
  <fix>3d</fix>
</trkpt>
<trkpt lat="40.0711912" lon="-105.2296121">
  <ele>1583.0</ele>
  <time>2026-08-28T17:56:27Z</time>
  <course>80.57</course>
  <speed>3.03</speed>
  <fix>3d</fix>
</trkpt>
<trkpt lat="40.0711923" lon="-105.2296">
  <ele>1583.13</ele>
  <time>2026-08-28T17:56:27Z</time>
  <course>82.07</course>
  <speed>2.9882603634890983</speed>
  <fix>3d</fix>
</trkpt>
<trkpt lat="40.0711921" lon="-105.229605">
  <ele>1583.0</ele>
  <time>2026-08-28T17:56:27Z</time>
  <course>81.07</course>
  <speed>3.02</speed>
  <fix>3d</fix>
</trkpt>
<trkpt lat="40.0711927" lon="-105.2295965">
  <ele>1583.13</ele>
  <time>2026-08-28T17:56:27Z</time>
  <course>82.29</course>
  <speed>2.9869047524151155</speed>
  <fix>3d</fix>
</trkpt>
<trkpt lat="40.0711921" lon="-105.229605">
  <ele>1583.0</ele>
  <time>2026-08-28T17:56:27Z</time>
  <course>81.07</course>
  <speed>3.02</speed>
  <fix>3d</fix>
</trkpt>
<trkpt lat="40.0711931" lon="-105.2295929">
  <ele>1583.13</ele>
  <time>2026-08-28T17:56:27Z</time>
  <course>82.51</course>
  <speed>2.985582020310278</speed>
  <fix>3d</fix>
</trkpt>
<trkpt lat="40.0711929" lon="-105.2295981">
  <ele>1583.0</ele>
  <time>2026-08-28T17:56:27Z</time>
  <course>81.52</course>
  <speed>3.01</speed>
  <fix>3d</fix>
</trkpt>
<trkpt lat="40.0711935" lon="-105.2295894">
  <ele>1583.12</ele>
  <time>2026-08-28T17:56:27Z</time>
  <course>82.71</course>
  <speed>2.974373883693844</speed>
  <fix>3d</fix>
</trkpt>
<trkpt lat="40.0711929" lon="-105.2295981">
  <ele>1583.0</ele>
  <time>2026-08-28T17:56:27Z</time>
  <course>81.52</course>
  <speed>3.01</speed>
  <fix>3d</fix>
</trkpt>
<trkpt lat="40.0711939" lon="-105.2295859">
  <ele>1583.12</ele>
  <time>2026-08-28T17:56:27Z</time>
  <course>82.9</course>
  <speed>2.9731128468324237</speed>
  <fix>3d</fix>
</trkpt>
<trkpt lat="40.0711936" lon="-105.229591">
  <ele>1583.0</ele>
  <time>2026-08-28T17:56:27Z</time>
  <course>81.94</course>
  <speed>3.0</speed>
  <fix>3d</fix>
</trkpt>
<trkpt lat="40.0711943" lon="-105.2295824">
  <ele>1583.12</ele>
  <time>2026-08-28T17:56:27Z</time>
  <course>83.07</course>
  <speed>2.9718849237478895</speed>
  <fix>3d</fix>
</trkpt>
<trkpt lat="40.0711936" lon="-105.229591">
  <ele>1583.0</ele>
  <time>2026-08-28T17:56:27Z</time>
  <course>81.94</course>
  <speed>3.0</speed>
  <fix>3d</fix>
</trkpt>
<trkpt lat="40.0711947" lon="-105.2295782">
  <ele>1583.12</ele>
  <time>2026-08-28T17:56:27Z</time>
  <course>83.27</course>
  <speed>2.9706901555025893</speed>
  <fix>3d</fix>
</trkpt>
<trkpt lat="40.0711944" lon="-105.2295841">
  <ele>1583.0</ele>
  <time>2026-08-28T17:56:27Z</time>
  <course>82.31</course>
  <speed>2.99</speed>
  <fix>3d</fix>
</trkpt>
<trkpt lat="40.071195" lon="-105.2295747">
  <ele>1583.12</ele>
  <time>2026-08-28T17:56:27Z</time>
  <course>83.42</course>
  <speed>2.959594566828369</speed>
  <fix>3d</fix>
</trkpt>
<trkpt lat="40.0711944" lon="-105.2295841">
  <ele>1583.0</ele>
  <time>2026-08-28T17:56:27Z</time>
  <course>82.31</course>
  <speed>2.99</speed>
  <fix>3d</fix>
</trkpt>
<trkpt lat="40.0711954" lon="-105.2295712">
  <ele>1583.12</ele>
  <time>2026-08-28T17:56:27Z</time>
  <course>83.56</course>
  <speed>2.959594566828369</speed>
  <fix>3d</fix>
</trkpt>
<trkpt lat="40.0711951" lon="-105.2295772">
  <ele>1583.0</ele>
  <time>2026-08-28T17:56:27Z</time>
  <course>82.63</course>
  <speed>2.99</speed>
  <fix>3d</fix>
</trkpt>
<trkpt lat="40.0711957" lon="-105.2295678">
  <ele>1583.12</ele>
  <time>2026-08-28T17:56:27Z</time>
  <course>83.69</course>
  <speed>2.9584624384974028</speed>
  <fix>3d</fix>
</trkpt>
<trkpt lat="40.0711951" lon="-105.2295772">
  <ele>1583.0</ele>
  <time>2026-08-28T17:56:27Z</time>
  <course>82.63</course>
  <speed>2.99</speed>
  <fix>3d</fix>
</trkpt>
<trkpt lat="40.071196" lon="-105.2295643">
  <ele>1583.12</ele>
  <time>2026-08-28T17:56:27Z</time>
  <course>83.8</course>
  <speed>2.9584624384974028</speed>
  <fix>3d</fix>
</trkpt>
<trkpt lat="40.0711958" lon="-105.2295701">
  <ele>1583.0</ele>
  <time>2026-08-28T17:56:27Z</time>
  <course>82.92</course>
  <speed>2.98</speed>
  <fix>3d</fix>
</trkpt>
<trkpt lat="40.0711964" lon="-105.2295608">
  <ele>1583.12</ele>
  <time>2026-08-28T17:56:27Z</time>
  <course>83.91</course>
  <speed>2.947422602885443</speed>
  <fix>3d</fix>
</trkpt>
<trkpt lat="40.0711958" lon="-105.2295701">
  <ele>1583.0</ele>
  <time>2026-08-28T17:56:27Z</time>
  <course>82.92</course>
  <speed>2.98</speed>
  <fix>3d</fix>
</trkpt>
<trkpt lat="40.0711967" lon="-105.2295574">
  <ele>1583.12</ele>
  <time>2026-08-28T17:56:27Z</time>
  <course>84.01</course>
  <speed>2.947422602885443</speed>
  <fix>3d</fix>
</trkpt>
<trkpt lat="40.0711965" lon="-105.2295632">
  <ele>1583.0</ele>
  <time>2026-08-28T17:56:27Z</time>
  <course>83.16</course>
  <speed>2.98</speed>
  <fix>3d</fix>
</trkpt>
<trkpt lat="40.071197" lon="-105.2295539">
  <ele>1583.12</ele>
  <time>2026-08-28T17:56:27Z</time>
  <course>84.09</course>
  <speed>2.9463536787018625</speed>
  <fix>3d</fix>
</trkpt>
<trkpt lat="40.0711965" lon="-105.2295632">
  <ele>1583.0</ele>
  <time>2026-08-28T17:56:27Z</time>
  <course>83.16</course>
  <speed>2.98</speed>
  <fix>3d</fix>
</trkpt>
<trkpt lat="40.0711973" lon="-105.2295505">
  <ele>1583.12</ele>
  <time>2026-08-28T17:56:27Z</time>
  <course>84.16</course>
  <speed>2.9463536787018625</speed>
  <fix>3d</fix>
</trkpt>
<trkpt lat="40.071197" lon="-105.2295562">
  <ele>1583.0</ele>
  <time>2026-08-28T17:56:27Z</time>
  <course>83.35</course>
  <speed>2.97</speed>
  <fix>3d</fix>
</trkpt>
<trkpt lat="40.0711976" lon="-105.229547">
  <ele>1583.12</ele>
  <time>2026-08-28T17:56:27Z</time>
  <course>84.23</course>
  <speed>2.9463536787018625</speed>
  <fix>3d</fix>
</trkpt>
<trkpt lat="40.071197" lon="-105.2295562">
  <ele>1583.0</ele>
  <time>2026-08-28T17:56:27Z</time>
  <course>83.35</course>
  <speed>2.97</speed>
  <fix>3d</fix>
</trkpt>
<trkpt lat="40.0711979" lon="-105.2295436">
  <ele>1583.12</ele>
  <time>2026-08-28T17:56:27Z</time>
  <course>84.28</course>
  <speed>2.9463536787018625</speed>
  <fix>3d</fix>
</trkpt>
<trkpt lat="40.0711977" lon="-105.2295493">
  <ele>1583.0</ele>
  <time>2026-08-28T17:56:27Z</time>
  <course>83.5</course>
  <speed>2.97</speed>
  <fix>3d</fix>
</trkpt>
<trkpt lat="40.0711982" lon="-105.2295408">
  <ele>1583.12</ele>
  <time>2026-08-28T17:56:27Z</time>
  <course>84.32</course>
  <speed>2.945318318959769</speed>
  <fix>3d</fix>
</trkpt>
<trkpt lat="40.0711977" lon="-105.2295493">
  <ele>1583.0</ele>
  <time>2026-08-28T17:56:27Z</time>
  <course>83.5</course>
  <speed>2.97</speed>
  <fix>3d</fix>
</trkpt>
<trkpt lat="40.0711985" lon="-105.2295374">
  <ele>1583.12</ele>
  <time>2026-08-28T17:56:27Z</time>
  <course>84.35</course>
  <speed>2.945318318959769</speed>
  <fix>3d</fix>
</trkpt>
<trkpt lat="40.0711982" lon="-105.2295423">
  <ele>1583.0</ele>
  <time>2026-08-28T17:56:27Z</time>
  <course>83.6</course>
  <speed>2.97</speed>
  <fix>3d</fix>
</trkpt>
<trkpt lat="40.0711988" lon="-105.2295339">
  <ele>1583.12</ele>
  <time>2026-08-28T17:56:27Z</time>
  <course>84.37</course>
  <speed>2.945318318959769</speed>
  <fix>3d</fix>
</trkpt>
<trkpt lat="40.0711982" lon="-105.2295423">
  <ele>1583.0</ele>
  <time>2026-08-28T17:56:27Z</time>
  <course>83.6</course>
  <speed>2.97</speed>
  <fix>3d</fix>
</trkpt>
<trkpt lat="40.0711991" lon="-105.2295304">
  <ele>1583.13</ele>
  <time>2026-08-28T17:56:27Z</time>
  <course>84.39</course>
  <speed>2.945318318959769</speed>
  <fix>3d</fix>
</trkpt>
<trkpt lat="40.0711989" lon="-105.2295354">
  <ele>1583.0</ele>
  <time>2026-08-28T17:56:27Z</time>
  <course>83.65</course>
  <speed>2.98</speed>
  <fix>3d</fix>
</trkpt>
<trkpt lat="40.0711994" lon="-105.2295269">
  <ele>1583.13</ele>
  <time>2026-08-28T17:56:27Z</time>
  <course>84.39</course>
  <speed>2.945318318959769</speed>
  <fix>3d</fix>
</trkpt>
<trkpt lat="40.0711989" lon="-105.2295354">
  <ele>1583.0</ele>
  <time>2026-08-28T17:56:27Z</time>
  <course>83.65</course>
  <speed>2.98</speed>
  <fix>3d</fix>
</trkpt>
<trkpt lat="40.0711997" lon="-105.2295235">
  <ele>1583.13</ele>
  <time>2026-08-28T17:56:27Z</time>
  <course>84.37</course>
  <speed>2.945318318959769</speed>
  <fix>3d</fix>
</trkpt>
<trkpt lat="40.0711994" lon="-105.2295284">
  <ele>1583.0</ele>
  <time>2026-08-28T17:56:27Z</time>
  <course>83.66</course>
  <speed>2.98</speed>
  <fix>3d</fix>
</trkpt>
<trkpt lat="40.0712" lon="-105.22952">
  <ele>1583.13</ele>
  <time>2026-08-28T17:56:27Z</time>
  <course>84.35</course>
  <speed>2.945318318959769</speed>
  <fix>3d</fix>
</trkpt>
<trkpt lat="40.0711994" lon="-105.2295284">
  <ele>1583.0</ele>
  <time>2026-08-28T17:56:27Z</time>
  <course>83.66</course>
  <speed>2.98</speed>
  <fix>3d</fix>
</trkpt>
<trkpt lat="40.0712002" lon="-105.2295165">
  <ele>1583.14</ele>
  <time>2026-08-28T17:56:27Z</time>
  <course>84.32</course>
  <speed>2.945318318959769</speed>
  <fix>3d</fix>
</trkpt>
<trkpt lat="40.0712001" lon="-105.2295215">
  <ele>1583.0</ele>
  <time>2026-08-28T17:56:27Z</time>
  <course>83.62</course>
  <speed>2.97</speed>
  <fix>3d</fix>
</trkpt>
<trkpt lat="40.0712006" lon="-105.229513">
  <ele>1583.14</ele>
  <time>2026-08-28T17:56:27Z</time>
  <course>84.27</course>
  <speed>2.945318318959769</speed>
  <fix>3d</fix>
</trkpt>
<trkpt lat="40.0712001" lon="-105.2295215">
  <ele>1583.0</ele>
  <time>2026-08-28T17:56:27Z</time>
  <course>83.62</course>
  <speed>2.97</speed>
  <fix>3d</fix>
</trkpt>
<trkpt lat="40.0712009" lon="-105.2295088">
  <ele>1583.15</ele>
  <time>2026-08-28T17:56:27Z</time>
  <course>84.2</course>
  <speed>2.945318318959769</speed>
  <fix>3d</fix>
</trkpt>
<trkpt lat="40.0712006" lon="-105.2295145">
  <ele>1583.0</ele>
  <time>2026-08-28T17:56:27Z</time>
  <course>83.53</course>
  <speed>2.97</speed>
  <fix>3d</fix>
</trkpt>
<trkpt lat="40.0712012" lon="-105.2295053">
  <ele>1583.15</ele>
  <time>2026-08-28T17:56:27Z</time>
  <course>84.12</course>
  <speed>2.9463536787018625</speed>
  <fix>3d</fix>
</trkpt>
<trkpt lat="40.0712006" lon="-105.2295145">
  <ele>1583.0</ele>
  <time>2026-08-28T17:56:27Z</time>
  <course>83.53</course>
  <speed>2.97</speed>
  <fix>3d</fix>
</trkpt>
<trkpt lat="40.0712015" lon="-105.2295018">
  <ele>1583.16</ele>
  <time>2026-08-28T17:56:27Z</time>
  <course>84.04</course>
  <speed>2.9463536787018625</speed>
  <fix>3d</fix>
</trkpt>
<trkpt lat="40.0712013" lon="-105.2295076">
  <ele>1583.0</ele>
  <time>2026-08-28T17:56:27Z</time>
  <course>83.4</course>
  <speed>2.97</speed>
  <fix>3d</fix>
</trkpt>
<trkpt lat="40.0712018" lon="-105.2294983">
  <ele>1583.16</ele>
  <time>2026-08-28T17:56:27Z</time>
  <course>83.94</course>
  <speed>2.947422602885443</speed>
  <fix>3d</fix>
</trkpt>
<trkpt lat="40.0712013" lon="-105.2295076">
  <ele>1583.0</ele>
  <time>2026-08-28T17:56:27Z</time>
  <course>83.4</course>
  <speed>2.97</speed>
  <fix>3d</fix>
</trkpt>
<trkpt lat="40.0712022" lon="-105.2294949">
  <ele>1583.16</ele>
  <time>2026-08-28T17:56:27Z</time>
  <course>83.83</course>
  <speed>2.947422602885443</speed>
  <fix>3d</fix>
</trkpt>
<trkpt lat="40.0712018" lon="-105.2295007">
  <ele>1583.0</ele>
  <time>2026-08-28T17:56:27Z</time>
  <course>83.23</course>
  <speed>2.97</speed>
  <fix>3d</fix>
</trkpt>
<trkpt lat="40.0712025" lon="-105.2294914">
  <ele>1583.16</ele>
  <time>2026-08-28T17:56:27Z</time>
  <course>83.72</course>
  <speed>2.948525055006316</speed>
  <fix>3d</fix>
</trkpt>
<trkpt lat="40.0712018" lon="-105.2295007">
  <ele>1583.0</ele>
  <time>2026-08-28T17:56:27Z</time>
  <course>83.23</course>
  <speed>2.97</speed>
  <fix>3d</fix>
</trkpt>
<trkpt lat="40.0712028" lon="-105.2294879">
  <ele>1583.16</ele>
  <time>2026-08-28T17:56:27Z</time>
  <course>83.59</course>
  <speed>2.948525055006316</speed>
  <fix>3d</fix>
</trkpt>
<trkpt lat="40.0712025" lon="-105.2294938">
  <ele>1583.0</ele>
  <time>2026-08-28T17:56:27Z</time>
  <course>83.02</course>
  <speed>2.96</speed>
  <fix>3d</fix>
</trkpt>
<trkpt lat="40.0712031" lon="-105.2294844">
  <ele>1583.16</ele>
  <time>2026-08-28T17:56:27Z</time>
  <course>83.43</course>
  <speed>2.939727878562912</speed>
  <fix>3d</fix>
</trkpt>
<trkpt lat="40.0712025" lon="-105.2294938">
  <ele>1583.0</ele>
  <time>2026-08-28T17:56:27Z</time>
  <course>83.02</course>
  <speed>2.96</speed>
  <fix>3d</fix>
</trkpt>
<trkpt lat="40.0712035" lon="-105.229481">
  <ele>1583.15</ele>
  <time>2026-08-28T17:56:27Z</time>
  <course>83.24</course>
  <speed>2.9409012224146527</speed>
  <fix>3d</fix>
</trkpt>
<trkpt lat="40.0712032" lon="-105.2294868">
  <ele>1583.0</ele>
  <time>2026-08-28T17:56:27Z</time>
  <course>82.74</course>
  <speed>2.96</speed>
  <fix>3d</fix>
</trkpt>
<trkpt lat="40.0712038" lon="-105.2294776">
  <ele>1583.15</ele>
  <time>2026-08-28T17:56:27Z</time>
  <course>83.0</course>
  <speed>2.922259399848001</speed>
  <fix>3d</fix>
</trkpt>
<trkpt lat="40.0712032" lon="-105.2294868">
  <ele>1583.0</ele>
  <time>2026-08-28T17:56:27Z</time>
  <course>82.74</course>
  <speed>2.96</speed>
  <fix>3d</fix>
</trkpt>
<trkpt lat="40.0712042" lon="-105.2294742">
  <ele>1583.15</ele>
  <time>2026-08-28T17:56:27Z</time>
  <course>82.7</course>
  <speed>2.8838342532122057</speed>
  <fix>3d</fix>
</trkpt>
<trkpt lat="40.0712039" lon="-105.22948">
  <ele>1583.0</ele>
  <time>2026-08-28T17:56:27Z</time>
  <course>82.34</course>
  <speed>2.94</speed>
  <fix>3d</fix>
</trkpt>
<trkpt lat="40.0712046" lon="-105.2294709">
  <ele>1583.15</ele>
  <time>2026-08-28T17:56:27Z</time>
  <course>82.35</course>
  <speed>2.8270302439132124</speed>
  <fix>3d</fix>
</trkpt>
<trkpt lat="40.0712039" lon="-105.22948">
  <ele>1583.0</ele>
  <time>2026-08-28T17:56:27Z</time>
  <course>82.34</course>
  <speed>2.94</speed>
  <fix>3d</fix>
</trkpt>
<trkpt lat="40.0712049" lon="-105.2294683">
  <ele>1583.15</ele>
  <time>2026-08-28T17:56:27Z</time>
  <course>82.02</course>
  <speed>2.7676163028859326</speed>
  <fix>3d</fix>
</trkpt>
<trkpt lat="40.0712046" lon="-105.2294732">
  <ele>1583.0</ele>
  <time>2026-08-28T17:56:27Z</time>
  <course>81.73</course>
  <speed>2.87</speed>
  <fix>3d</fix>
</trkpt>
<trkpt lat="40.0712053" lon="-105.2294651">
  <ele>1583.15</ele>
  <time>2026-08-28T17:56:27Z</time>
  <course>81.53</course>
  <speed>2.6815294143454778</speed>
  <fix>3d</fix>
</trkpt>
<trkpt lat="40.0712046" lon="-105.2294732">
  <ele>1583.0</ele>
  <time>2026-08-28T17:56:27Z</time>
  <course>81.73</course>
  <speed>2.87</speed>
  <fix>3d</fix>
</trkpt>
<trkpt lat="40.0712057" lon="-105.2294621">
  <ele>1583.15</ele>
  <time>2026-08-28T17:56:27Z</time>
  <course>80.97</course>
  <speed>2.574490240804964</speed>
  <fix>3d</fix>
</trkpt>
<trkpt lat="40.0712053" lon="-105.2294667">
  <ele>1583.0</ele>
  <time>2026-08-28T17:56:27Z</time>
  <course>80.87</course>
  <speed>2.72</speed>
  <fix>3d</fix>
</trkpt>
<trkpt lat="40.0712061" lon="-105.2294591">
  <ele>1583.15</ele>
  <time>2026-08-28T17:56:27Z</time>
  <course>80.31</course>
  <speed>2.4480604567698077</speed>
  <fix>3d</fix>
</trkpt>
<trkpt lat="40.0712053" lon="-105.2294667">
  <ele>1583.0</ele>
  <time>2026-08-28T17:56:27Z</time>
  <course>80.87</course>
  <speed>2.72</speed>
  <fix>3d</fix>
</trkpt>
<trkpt lat="40.0712065" lon="-105.2294564">
  <ele>1583.15</ele>
  <time>2026-08-28T17:56:27Z</time>
  <course>79.53</course>
  <speed>2.3122499864850257</speed>
  <fix>3d</fix>
</trkpt>
<trkpt lat="40.0712062" lon="-105.2294606">
  <ele>1583.0</ele>
  <time>2026-08-28T17:56:27Z</time>
  <course>79.69</course>
  <speed>2.5</speed>
  <fix>3d</fix>
</trkpt>
<trkpt lat="40.0712069" lon="-105.2294538">
  <ele>1583.15</ele>
  <time>2026-08-28T17:56:27Z</time>
  <course>78.65</course>
  <speed>2.1574522010927613</speed>
  <fix>3d</fix>
</trkpt>
<trkpt lat="40.0712062" lon="-105.2294606">
  <ele>1583.0</ele>
  <time>2026-08-28T17:56:27Z</time>
  <course>79.69</course>
  <speed>2.5</speed>
  <fix>3d</fix>
</trkpt>
<trkpt lat="40.0712074" lon="-105.2294514">
  <ele>1583.15</ele>
  <time>2026-08-28T17:56:27Z</time>
  <course>77.66</course>
  <speed>1.9915069670980317</speed>
  <fix>3d</fix>
</trkpt>
<trkpt lat="40.071207" lon="-105.2294552">
  <ele>1583.0</ele>
  <time>2026-08-28T17:56:27Z</time>
  <course>78.1</course>
  <speed>2.21</speed>
  <fix>3d</fix>
</trkpt>
<trkpt lat="40.0712078" lon="-105.2294493">
  <ele>1583.15</ele>
  <time>2026-08-28T17:56:27Z</time>
  <course>76.58</course>
  <speed>1.8360010893242955</speed>
  <fix>3d</fix>
</trkpt>
<trkpt lat="40.071207" lon="-105.2294552">
  <ele>1583.0</ele>
  <time>2026-08-28T17:56:27Z</time>
  <course>78.1</course>
  <speed>2.21</speed>
  <fix>3d</fix>
</trkpt>
<trkpt lat="40.0712082" lon="-105.2294473">
  <ele>1583.15</ele>
  <time>2026-08-28T17:56:27Z</time>
  <course>75.39</course>
  <speed>1.6909760495051374</speed>
  <fix>3d</fix>
</trkpt>
<trkpt lat="40.0712077" lon="-105.2294505">
  <ele>1583.0</ele>
  <time>2026-08-28T17:56:27Z</time>
  <course>76.11</course>
  <speed>1.9</speed>
  <fix>3d</fix>
</trkpt>
<trkpt lat="40.0712087" lon="-105.2294451">
  <ele>1583.15</ele>
  <time>2026-08-28T17:56:27Z</time>
  <course>73.82</course>
  <speed>1.5402921800749363</speed>
  <fix>3d</fix>
</trkpt>
<trkpt lat="40.0712077" lon="-105.2294505">
  <ele>1583.0</ele>
  <time>2026-08-28T17:56:27Z</time>
  <course>76.11</course>
  <speed>1.9</speed>
  <fix>3d</fix>
</trkpt>
<trkpt lat="40.0712092" lon="-105.2294434">
  <ele>1583.15</ele>
  <time>2026-08-28T17:56:27Z</time>
  <course>72.4</course>
  <speed>1.4262187770464951</speed>
  <fix>3d</fix>
</trkpt>
<trkpt lat="40.0712086" lon="-105.2294465">
  <ele>1583.0</ele>
  <time>2026-08-28T17:56:27Z</time>
  <course>73.69</course>
  <speed>1.63</speed>
  <fix>3d</fix>
</trkpt>
<trkpt lat="40.0712096" lon="-105.2294419">
  <ele>1583.14</ele>
  <time>2026-08-28T17:56:27Z</time>
  <course>70.88</course>
  <speed>1.348332303254654</speed>
  <fix>3d</fix>
</trkpt>
<trkpt lat="40.0712086" lon="-105.2294465">
  <ele>1583.0</ele>
  <time>2026-08-28T17:56:27Z</time>
  <course>73.69</course>
  <speed>1.63</speed>
  <fix>3d</fix>
</trkpt>
<trkpt lat="40.0712101" lon="-105.2294405">
  <ele>1583.14</ele>
  <time>2026-08-28T17:56:27Z</time>
  <course>69.23</course>
  <speed>1.2961867149450343</speed>
  <fix>3d</fix>
</trkpt>
<trkpt lat="40.0712094" lon="-105.2294431">
  <ele>1583.0</ele>
  <time>2026-08-28T17:56:27Z</time>
  <course>70.82</course>
  <speed>1.43</speed>
  <fix>3d</fix>
</trkpt>
<trkpt lat="40.0712105" lon="-105.2294391">
  <ele>1583.14</ele>
  <time>2026-08-28T17:56:27Z</time>
  <course>67.49</course>
  <speed>1.2621014222319853</speed>
  <fix>3d</fix>
</trkpt>
<trkpt lat="40.0712094" lon="-105.2294431">
  <ele>1583.0</ele>
  <time>2026-08-28T17:56:27Z</time>
  <course>70.82</course>
  <speed>1.43</speed>
  <fix>3d</fix>
</trkpt>
<trkpt lat="40.071211" lon="-105.2294377">
  <ele>1583.15</ele>
  <time>2026-08-28T17:56:27Z</time>
  <course>65.65</course>
  <speed>1.2567418191498205</speed>
  <fix>3d</fix>
</trkpt>
<trkpt lat="40.0712103" lon="-105.22944">
  <ele>1583.0</ele>
  <time>2026-08-28T17:56:27Z</time>
  <course>67.49</course>
  <speed>1.32</speed>
  <fix>3d</fix>
</trkpt>
<trkpt lat="40.0712116" lon="-105.2294364">
  <ele>1583.15</ele>
  <time>2026-08-28T17:56:27Z</time>
  <course>63.69</course>
  <speed>1.2705904139414872</speed>
  <fix>3d</fix>
</trkpt>
<trkpt lat="40.0712103" lon="-105.22944">
  <ele>1583.0</ele>
  <time>2026-08-28T17:56:27Z</time>
  <course>67.49</course>
  <speed>1.32</speed>
  <fix>3d</fix>
</trkpt>
<trkpt lat="40.0712121" lon="-105.2294351">
  <ele>1583.15</ele>
  <time>2026-08-28T17:56:27Z</time>
  <course>61.66</course>
  <speed>1.3086252328302401</speed>
  <fix>3d</fix>
</trkpt>
<trkpt lat="40.0712113" lon="-105.2294372">
  <ele>1583.0</ele>
  <time>2026-08-28T17:56:27Z</time>
  <course>63.73</course>
  <speed>1.31</speed>
  <fix>3d</fix>
</trkpt>
<trkpt lat="40.0712128" lon="-105.2294337">
  <ele>1583.15</ele>
  <time>2026-08-28T17:56:27Z</time>
  <course>59.55</course>
  <speed>1.362130683891968</speed>
  <fix>3d</fix>
</trkpt>
<trkpt lat="40.0712113" lon="-105.2294372">
  <ele>1583.0</ele>
  <time>2026-08-28T17:56:27Z</time>
  <course>63.73</course>
  <speed>1.31</speed>
  <fix>3d</fix>
</trkpt>
<trkpt lat="40.0712135" lon="-105.2294323">
  <ele>1583.14</ele>
  <time>2026-08-28T17:56:27Z</time>
  <course>57.35</course>
  <speed>1.4230249470757708</speed>
  <fix>3d</fix>
</trkpt>
<trkpt lat="40.0712124" lon="-105.2294345">
  <ele>1583.0</ele>
  <time>2026-08-28T17:56:27Z</time>
  <course>59.61</course>
  <speed>1.38</speed>
  <fix>3d</fix>
</trkpt>
<trkpt lat="40.0712142" lon="-105.2294309">
  <ele>1583.14</ele>
  <time>2026-08-28T17:56:27Z</time>
  <course>55.08</course>
  <speed>1.5</speed>
  <fix>3d</fix>
</trkpt>
<trkpt lat="40.0712124" lon="-105.2294345">
  <ele>1583.0</ele>
  <time>2026-08-28T17:56:27Z</time>
  <course>59.61</course>
  <speed>1.38</speed>
  <fix>3d</fix>
</trkpt>
<trkpt lat="40.0712151" lon="-105.2294295">
  <ele>1583.14</ele>
  <time>2026-08-28T17:56:27Z</time>
  <course>52.73</course>
  <speed>1.5852129194527782</speed>
  <fix>3d</fix>
</trkpt>
<trkpt lat="40.0712139" lon="-105.2294316">
  <ele>1583.0</ele>
  <time>2026-08-28T17:56:27Z</time>
  <course>55.18</course>
  <speed>1.51</speed>
  <fix>3d</fix>
</trkpt>
<trkpt lat="40.0712159" lon="-105.2294283">
  <ele>1583.14</ele>
  <time>2026-08-28T17:56:27Z</time>
  <course>50.82</course>
  <speed>1.658493292117879</speed>
  <fix>3d</fix>
</trkpt>
<trkpt lat="40.0712139" lon="-105.2294316">
  <ele>1583.0</ele>
  <time>2026-08-28T17:56:27Z</time>
  <course>55.18</course>
  <speed>1.51</speed>
  <fix>3d</fix>
</trkpt>
<trkpt lat="40.0712169" lon="-105.2294267">
  <ele>1583.13</ele>
  <time>2026-08-28T17:56:27Z</time>
  <course>48.37</course>
  <speed>1.7613914953808538</speed>
  <fix>3d</fix>
</trkpt>
<trkpt lat="40.0712156" lon="-105.2294286">
  <ele>1583.0</ele>
  <time>2026-08-28T17:56:27Z</time>
  <course>50.49</course>
  <speed>1.68</speed>
  <fix>3d</fix>
</trkpt>
<trkpt lat="40.0712181" lon="-105.2294252">
  <ele>1583.13</ele>
  <time>2026-08-28T17:56:27Z</time>
  <course>45.88</course>
  <speed>1.8528356645962967</speed>
  <fix>3d</fix>
</trkpt>
<trkpt lat="40.0712156" lon="-105.2294286">
  <ele>1583.0</ele>
  <time>2026-08-28T17:56:27Z</time>
  <course>50.49</course>
  <speed>1.68</speed>
  <fix>3d</fix>
</trkpt>
<trkpt lat="40.0712193" lon="-105.2294236">
  <ele>1583.13</ele>
  <time>2026-08-28T17:56:27Z</time>
  <course>43.33</course>
  <speed>1.9474342094150447</speed>
  <fix>3d</fix>
</trkpt>
<trkpt lat="40.0712177" lon="-105.2294254">
  <ele>1583.0</ele>
  <time>2026-08-28T17:56:27Z</time>
  <course>45.59</course>
  <speed>1.86</speed>
  <fix>3d</fix>
</trkpt>
<trkpt lat="40.0712208" lon="-105.229422">
  <ele>1583.13</ele>
  <time>2026-08-28T17:56:27Z</time>
  <course>40.75</course>
  <speed>2.039730374338726</speed>
  <fix>3d</fix>
</trkpt>
<trkpt lat="40.0712177" lon="-105.2294254">
  <ele>1583.0</ele>
  <time>2026-08-28T17:56:27Z</time>
  <course>45.59</course>
  <speed>1.86</speed>
  <fix>3d</fix>
</trkpt>
<trkpt lat="40.0712223" lon="-105.2294204">
  <ele>1583.13</ele>
  <time>2026-08-28T17:56:27Z</time>
  <course>38.13</course>
  <speed>2.1440149253211835</speed>
  <fix>3d</fix>
</trkpt>
<trkpt lat="40.0712202" lon="-105.2294223">
  <ele>1583.0</ele>
  <time>2026-08-28T17:56:27Z</time>
  <course>40.51</course>
  <speed>2.04</speed>
  <fix>3d</fix>
</trkpt>
<trkpt lat="40.0712239" lon="-105.2294189">
  <ele>1583.13</ele>
  <time>2026-08-28T17:56:27Z</time>
  <course>35.47</course>
  <speed>2.2327113561766105</speed>
  <fix>3d</fix>
</trkpt>
<trkpt lat="40.0712202" lon="-105.2294223">
  <ele>1583.0</ele>
  <time>2026-08-28T17:56:27Z</time>
  <course>40.51</course>
  <speed>2.04</speed>
  <fix>3d</fix>
</trkpt>
<trkpt lat="40.0712257" lon="-105.2294174">
  <ele>1583.13</ele>
  <time>2026-08-28T17:56:27Z</time>
  <course>32.79</course>
  <speed>2.3342022191746796</speed>
  <fix>3d</fix>
</trkpt>
<trkpt lat="40.0712233" lon="-105.2294192">
  <ele>1583.0</ele>
  <time>2026-08-28T17:56:27Z</time>
  <course>35.29</course>
  <speed>2.22</speed>
  <fix>3d</fix>
</trkpt>
<trkpt lat="40.0712276" lon="-105.2294159">
  <ele>1583.13</ele>
  <time>2026-08-28T17:56:27Z</time>
  <course>30.09</course>
  <speed>2.421425200166216</speed>
  <fix>3d</fix>
</trkpt>
<trkpt lat="40.0712233" lon="-105.2294192">
  <ele>1583.0</ele>
  <time>2026-08-28T17:56:27Z</time>
  <course>35.29</course>
  <speed>2.22</speed>
  <fix>3d</fix>
</trkpt>
<trkpt lat="40.07123" lon="-105.2294143">
  <ele>1583.13</ele>
  <time>2026-08-28T17:56:27Z</time>
  <course>26.82</course>
  <speed>2.5404920783186866</speed>
  <fix>3d</fix>
</trkpt>
<trkpt lat="40.0712268" lon="-105.2294163">
  <ele>1583.0</ele>
  <time>2026-08-28T17:56:27Z</time>
  <course>29.95</course>
  <speed>2.41</speed>
  <fix>3d</fix>
</trkpt>
<trkpt lat="40.0712321" lon="-105.229413">
  <ele>1583.13</ele>
  <time>2026-08-28T17:56:27Z</time>
  <course>24.09</course>
  <speed>2.63928020490436</speed>
  <fix>3d</fix>
</trkpt>
<trkpt lat="40.0712268" lon="-105.2294163">
  <ele>1583.0</ele>
  <time>2026-08-28T17:56:27Z</time>
  <course>29.95</course>
  <speed>2.41</speed>
  <fix>3d</fix>
</trkpt>
<trkpt lat="40.0712344" lon="-105.2294118">
  <ele>1583.14</ele>
  <time>2026-08-28T17:56:27Z</time>
  <course>21.4</course>
  <speed>2.7399635034065692</speed>
  <fix>3d</fix>
</trkpt>
<trkpt lat="40.0712308" lon="-105.2294137">
  <ele>1583.0</ele>
  <time>2026-08-28T17:56:27Z</time>
  <course>24.55</course>
  <speed>2.59</speed>
  <fix>3d</fix>
</trkpt>
<trkpt lat="40.0712368" lon="-105.2294107">
  <ele>1583.14</ele>
  <time>2026-08-28T17:56:27Z</time>
  <course>18.73</course>
  <speed>2.846225570821821</speed>
  <fix>3d</fix>
</trkpt>
<trkpt lat="40.0712308" lon="-105.2294137">
  <ele>1583.0</ele>
  <time>2026-08-28T17:56:27Z</time>
  <course>24.55</course>
  <speed>2.59</speed>
  <fix>3d</fix>
</trkpt>
<trkpt lat="40.0712393" lon="-105.2294097">
  <ele>1583.14</ele>
  <time>2026-08-28T17:56:27Z</time>
  <course>16.11</course>
  <speed>2.9425329225006136</speed>
  <fix>3d</fix>
</trkpt>
<trkpt lat="40.0712353" lon="-105.2294113">
  <ele>1583.0</ele>
  <time>2026-08-28T17:56:27Z</time>
  <course>19.19</course>
  <speed>2.79</speed>
  <fix>3d</fix>
</trkpt>
<trkpt lat="40.071242" lon="-105.2294088">
  <ele>1583.14</ele>
  <time>2026-08-28T17:56:27Z</time>
  <course>13.55</course>
  <speed>3.044634625041238</speed>
  <fix>3d</fix>
</trkpt>
<trkpt lat="40.0712353" lon="-105.2294113">
  <ele>1583.0</ele>
  <time>2026-08-28T17:56:27Z</time>
  <course>19.19</course>
  <speed>2.79</speed>
  <fix>3d</fix>
</trkpt>
<trkpt lat="40.0712447" lon="-105.2294081">
  <ele>1583.14</ele>
  <time>2026-08-28T17:56:27Z</time>
  <course>11.02</course>
  <speed>3.109035220128585</speed>
  <fix>3d</fix>
</trkpt>
<trkpt lat="40.0712403" lon="-105.2294093">
  <ele>1583.0</ele>
  <time>2026-08-28T17:56:27Z</time>
  <course>14.03</course>
  <speed>2.97</speed>
  <fix>3d</fix>
</trkpt>
<trkpt lat="40.0712475" lon="-105.2294075">
  <ele>1583.14</ele>
  <time>2026-08-28T17:56:27Z</time>
  <course>8.57</course>
  <speed>3.1593986769637037</speed>
  <fix>3d</fix>
</trkpt>
<trkpt lat="40.0712403" lon="-105.2294093">
  <ele>1583.0</ele>
  <time>2026-08-28T17:56:27Z</time>
  <course>14.03</course>
  <speed>2.97</speed>
  <fix>3d</fix>
</trkpt>
<trkpt lat="40.0712503" lon="-105.2294071">
  <ele>1583.14</ele>
  <time>2026-08-28T17:56:27Z</time>
  <course>6.18</course>
  <speed>3.195074334033561</speed>
  <fix>3d</fix>
</trkpt>
<trkpt lat="40.0712457" lon="-105.2294079">
  <ele>1583.0</ele>
  <time>2026-08-28T17:56:27Z</time>
  <course>9.13</course>
  <speed>3.11</speed>
  <fix>3d</fix>
</trkpt>
<trkpt lat="40.0712532" lon="-105.2294068">
  <ele>1583.14</ele>
  <time>2026-08-28T17:56:27Z</time>
  <course>3.87</course>
  <speed>3.2150427679892535</speed>
  <fix>3d</fix>
</trkpt>
<trkpt lat="40.0712457" lon="-105.2294079">
  <ele>1583.0</ele>
  <time>2026-08-28T17:56:27Z</time>
  <course>9.13</course>
  <speed>3.11</speed>
  <fix>3d</fix>
</trkpt>
<trkpt lat="40.0712561" lon="-105.2294067">
  <ele>1583.14</ele>
  <time>2026-08-28T17:56:27Z</time>
  <course>1.62</course>
  <speed>3.2305572274763996</speed>
  <fix>3d</fix>
</trkpt>
<trkpt lat="40.0712513" lon="-105.2294071">
  <ele>1583.0</ele>
  <time>2026-08-28T17:56:27Z</time>
  <course>4.46</course>
  <speed>3.18</speed>
  <fix>3d</fix>
</trkpt>
<trkpt lat="40.0712584" lon="-105.2294067">
  <ele>1583.14</ele>
  <time>2026-08-28T17:56:27Z</time>
  <course>359.87</course>
  <speed>3.2401388859121454</speed>
  <fix>3d</fix>
</trkpt>
<trkpt lat="40.0712513" lon="-105.2294071">
  <ele>1583.0</ele>
  <time>2026-08-28T17:56:27Z</time>
  <course>4.46</course>
  <speed>3.18</speed>
  <fix>3d</fix>
</trkpt>
<trkpt lat="40.0712613" lon="-105.2294068">
  <ele>1583.14</ele>
  <time>2026-08-28T17:56:27Z</time>
  <course>357.76</course>
  <speed>3.253459696999488</speed>
  <fix>3d</fix>
</trkpt>
<trkpt lat="40.071257" lon="-105.2294067">
  <ele>1583.0</ele>
  <time>2026-08-28T17:56:27Z</time>
  <course>0.07</course>
  <speed>3.21</speed>
  <fix>3d</fix>
</trkpt>
<trkpt lat="40.0712642" lon="-105.2294071">
  <ele>1583.13</ele>
  <time>2026-08-28T17:56:27Z</time>
  <course>355.73</course>
  <speed>3.2703516630478746</speed>
  <fix>3d</fix>
</trkpt>
<trkpt lat="40.071257" lon="-105.2294067">
  <ele>1583.0</ele>
  <time>2026-08-28T17:56:27Z</time>
  <course>0.07</course>
  <speed>3.21</speed>
  <fix>3d</fix>
</trkpt>
<trkpt lat="40.0712672" lon="-105.2294075">
  <ele>1583.13</ele>
  <time>2026-08-28T17:56:27Z</time>
  <course>353.77</course>
  <speed>3.2809297462761986</speed>
  <fix>3d</fix>
</trkpt>
<trkpt lat="40.0712628" lon="-105.229407">
  <ele>1583.0</ele>
  <time>2026-08-28T17:56:27Z</time>
  <course>355.97</course>
  <speed>3.24</speed>
  <fix>3d</fix>
</trkpt>
<trkpt lat="40.0712701" lon="-105.229408">
  <ele>1583.13</ele>
  <time>2026-08-28T17:56:27Z</time>
  <course>351.86</course>
  <speed>3.2852549368351918</speed>
  <fix>3d</fix>
</trkpt>
<trkpt lat="40.0712628" lon="-105.229407">
  <ele>1583.0</ele>
  <time>2026-08-28T17:56:27Z</time>
  <course>355.97</course>
  <speed>3.24</speed>
  <fix>3d</fix>
</trkpt>
<trkpt lat="40.071273" lon="-105.2294085">
  <ele>1583.13</ele>
  <time>2026-08-28T17:56:27Z</time>
  <course>349.98</course>
  <speed>3.293281038721111</speed>
  <fix>3d</fix>
</trkpt>
<trkpt lat="40.0712687" lon="-105.2294077">
  <ele>1583.0</ele>
  <time>2026-08-28T17:56:27Z</time>
  <course>352.13</course>
  <speed>3.26</speed>
  <fix>3d</fix>
</trkpt>
<trkpt lat="40.071276" lon="-105.2294093">
  <ele>1583.13</ele>
  <time>2026-08-28T17:56:27Z</time>
  <course>348.15</course>
  <speed>3.302877533303347</speed>
  <fix>3d</fix>
</trkpt>
<trkpt lat="40.0712687" lon="-105.2294077">
  <ele>1583.0</ele>
  <time>2026-08-28T17:56:27Z</time>
  <course>352.13</course>
  <speed>3.26</speed>
  <fix>3d</fix>
</trkpt>
<trkpt lat="40.0712789" lon="-105.2294102">
  <ele>1583.13</ele>
  <time>2026-08-28T17:56:27Z</time>
  <course>346.37</course>
  <speed>3.29607342151233</speed>
  <fix>3d</fix>
</trkpt>
<trkpt lat="40.0712744" lon="-105.229409">
  <ele>1583.0</ele>
  <time>2026-08-28T17:56:27Z</time>
  <course>348.48</course>
  <speed>3.27</speed>
  <fix>3d</fix>
</trkpt>
<trkpt lat="40.0712817" lon="-105.2294112">
  <ele>1583.12</ele>
  <time>2026-08-28T17:56:27Z</time>
  <course>344.63</course>
  <speed>3.302196238868914</speed>
  <fix>3d</fix>
</trkpt>
<trkpt lat="40.0712744" lon="-105.229409">
  <ele>1583.0</ele>
  <time>2026-08-28T17:56:27Z</time>
  <course>348.48</course>
  <speed>3.27</speed>
  <fix>3d</fix>
</trkpt>
<trkpt lat="40.0712846" lon="-105.2294123">
  <ele>1583.12</ele>
  <time>2026-08-28T17:56:27Z</time>
  <course>342.93</course>
  <speed>3.2893768406797057</speed>
  <fix>3d</fix>
</trkpt>
<trkpt lat="40.0712801" lon="-105.2294108">
  <ele>1583.0</ele>
  <time>2026-08-28T17:56:27Z</time>
  <course>345.01</course>
  <speed>3.27</speed>
  <fix>3d</fix>
</trkpt>
<trkpt lat="40.0712879" lon="-105.2294138">
  <ele>1583.12</ele>
  <time>2026-08-28T17:56:27Z</time>
  <course>340.96</course>
  <speed>3.273301086059759</speed>
  <fix>3d</fix>
</trkpt>
<trkpt lat="40.0712801" lon="-105.2294108">
  <ele>1583.0</ele>
  <time>2026-08-28T17:56:27Z</time>
  <course>345.01</course>
  <speed>3.27</speed>
  <fix>3d</fix>
</trkpt>
<trkpt lat="40.0712907" lon="-105.2294151">
  <ele>1583.12</ele>
  <time>2026-08-28T17:56:27Z</time>
  <course>339.37</course>
  <speed>3.2631426570102633</speed>
  <fix>3d</fix>
</trkpt>
<trkpt lat="40.0712858" lon="-105.2294129">
  <ele>1583.0</ele>
  <time>2026-08-28T17:56:27Z</time>
  <course>341.71</course>
  <speed>3.25</speed>
  <fix>3d</fix>
</trkpt>
<trkpt lat="40.0712934" lon="-105.2294166">
  <ele>1583.12</ele>
  <time>2026-08-28T17:56:27Z</time>
  <course>337.85</course>
  <speed>3.242360251421794</speed>
  <fix>3d</fix>
</trkpt>
<trkpt lat="40.0712858" lon="-105.2294129">
  <ele>1583.0</ele>
  <time>2026-08-28T17:56:27Z</time>
  <course>341.71</course>
  <speed>3.25</speed>
  <fix>3d</fix>
</trkpt>
<trkpt lat="40.071296" lon="-105.2294181">
  <ele>1583.12</ele>
  <time>2026-08-28T17:56:27Z</time>
  <course>336.35</course>
  <speed>3.2145917314645107</speed>
  <fix>3d</fix>
</trkpt>
<trkpt lat="40.0712913" lon="-105.2294156">
  <ele>1583.0</ele>
  <time>2026-08-28T17:56:27Z</time>
  <course>338.61</course>
  <speed>3.22</speed>
  <fix>3d</fix>
</trkpt>
<trkpt lat="40.0712986" lon="-105.2294196">
  <ele>1583.12</ele>
  <time>2026-08-28T17:56:27Z</time>
  <course>334.91</course>
  <speed>3.184964677983101</speed>
  <fix>3d</fix>
</trkpt>
<trkpt lat="40.0712913" lon="-105.2294156">
  <ele>1583.0</ele>
  <time>2026-08-28T17:56:27Z</time>
  <course>338.61</course>
  <speed>3.22</speed>
  <fix>3d</fix>
</trkpt>
<trkpt lat="40.0713012" lon="-105.2294213">
  <ele>1583.12</ele>
  <time>2026-08-28T17:56:27Z</time>
  <course>333.52</course>
  <speed>3.1528558482747036</speed>
  <fix>3d</fix>
</trkpt>
<trkpt lat="40.0712965" lon="-105.2294185">
  <ele>1583.0</ele>
  <time>2026-08-28T17:56:27Z</time>
  <course>335.69</course>
  <speed>3.17</speed>
  <fix>3d</fix>
</trkpt>
<trkpt lat="40.0713037" lon="-105.229423">
  <ele>1583.13</ele>
  <time>2026-08-28T17:56:27Z</time>
  <course>332.17</course>
  <speed>3.1223708940483035</speed>
  <fix>3d</fix>
</trkpt>
<trkpt lat="40.0712965" lon="-105.2294185">
  <ele>1583.0</ele>
  <time>2026-08-28T17:56:27Z</time>
  <course>335.69</course>
  <speed>3.17</speed>
  <fix>3d</fix>
</trkpt>
<trkpt lat="40.0713061" lon="-105.2294247">
  <ele>1583.13</ele>
  <time>2026-08-28T17:56:27Z</time>
  <course>330.88</course>
  <speed>3.0848338691086754</speed>
  <fix>3d</fix>
</trkpt>
<trkpt lat="40.0713017" lon="-105.2294217">
  <ele>1583.0</ele>
  <time>2026-08-28T17:56:27Z</time>
  <course>332.97</course>
  <speed>3.11</speed>
  <fix>3d</fix>
</trkpt>
<trkpt lat="40.0713084" lon="-105.2294265">
  <ele>1583.13</ele>
  <time>2026-08-28T17:56:27Z</time>
  <course>329.65</course>
  <speed>3.0527692346458157</speed>
  <fix>3d</fix>
</trkpt>
<trkpt lat="40.0713017" lon="-105.2294217">
  <ele>1583.0</ele>
  <time>2026-08-28T17:56:27Z</time>
  <course>332.97</course>
  <speed>3.11</speed>
  <fix>3d</fix>
</trkpt>
<trkpt lat="40.0713107" lon="-105.2294283">
  <ele>1583.13</ele>
  <time>2026-08-28T17:56:27Z</time>
  <course>328.47</course>
  <speed>3.0083217912982643</speed>
  <fix>3d</fix>
</trkpt>
<trkpt lat="40.0713065" lon="-105.2294251">
  <ele>1583.0</ele>
  <time>2026-08-28T17:56:27Z</time>
  <course>330.46</course>
  <speed>3.04</speed>
  <fix>3d</fix>
</trkpt>
<trkpt lat="40.0713129" lon="-105.2294301">
  <ele>1583.13</ele>
  <time>2026-08-28T17:56:27Z</time>
  <course>327.34</course>
  <speed>2.965164413653988</speed>
  <fix>3d</fix>
</trkpt>
<trkpt lat="40.0713065" lon="-105.2294251">
  <ele>1583.0</ele>
  <time>2026-08-28T17:56:27Z</time>
  <course>330.46</course>
  <speed>3.04</speed>
  <fix>3d</fix>
</trkpt>
<trkpt lat="40.0713147" lon="-105.2294316">
  <ele>1583.13</ele>
  <time>2026-08-28T17:56:27Z</time>
  <course>326.47</course>
  <speed>2.9343653487594215</speed>
  <fix>3d</fix>
</trkpt>
<trkpt lat="40.0713111" lon="-105.2294287">
  <ele>1583.0</ele>
  <time>2026-08-28T17:56:27Z</time>
  <course>328.16</course>
  <speed>2.97</speed>
  <fix>3d</fix>
</trkpt>
<trkpt lat="40.0713168" lon="-105.2294335">
  <ele>1583.13</ele>
  <time>2026-08-28T17:56:27Z</time>
  <course>325.44</course>
  <speed>2.8960145027261173</speed>
  <fix>3d</fix>
</trkpt>
<trkpt lat="40.0713111" lon="-105.2294287">
  <ele>1583.0</ele>
  <time>2026-08-28T17:56:27Z</time>
  <course>328.16</course>
  <speed>2.97</speed>
  <fix>3d</fix>
</trkpt>
<trkpt lat="40.0713189" lon="-105.2294355">
  <ele>1583.14</ele>
  <time>2026-08-28T17:56:27Z</time>
  <course>324.47</course>
  <speed>2.844591359053177</speed>
  <fix>3d</fix>
</trkpt>
<trkpt lat="40.0713156" lon="-105.2294325">
  <ele>1583.0</ele>
  <time>2026-08-28T17:56:27Z</time>
  <course>326.07</course>
  <speed>2.89</speed>
  <fix>3d</fix>
</trkpt>
<trkpt lat="40.071321" lon="-105.2294374">
  <ele>1583.14</ele>
  <time>2026-08-28T17:56:27Z</time>
  <course>323.56</course>
  <speed>2.8020349747995654</speed>
  <fix>3d</fix>
</trkpt>
<trkpt lat="40.0713156" lon="-105.2294325">
  <ele>1583.0</ele>
  <time>2026-08-28T17:56:27Z</time>
  <course>326.07</course>
  <speed>2.89</speed>
  <fix>3d</fix>
</trkpt>
<trkpt lat="40.0713229" lon="-105.2294394">
  <ele>1583.14</ele>
  <time>2026-08-28T17:56:27Z</time>
  <course>322.71</course>
  <speed>2.760163038662753</speed>
  <fix>3d</fix>
</trkpt>
<trkpt lat="40.0713198" lon="-105.2294363">
  <ele>1583.0</ele>
  <time>2026-08-28T17:56:27Z</time>
  <course>324.2</course>
  <speed>2.81</speed>
  <fix>3d</fix>
</trkpt>
<trkpt lat="40.0713249" lon="-105.2294414">
  <ele>1583.14</ele>
  <time>2026-08-28T17:56:27Z</time>
  <course>321.92</course>
  <speed>2.719007171744863</speed>
  <fix>3d</fix>
</trkpt>
<trkpt lat="40.0713198" lon="-105.2294363">
  <ele>1583.0</ele>
  <time>2026-08-28T17:56:27Z</time>
  <course>324.2</course>
  <speed>2.81</speed>
  <fix>3d</fix>
</trkpt>
<trkpt lat="40.0713268" lon="-105.2294433">
  <ele>1583.14</ele>
  <time>2026-08-28T17:56:27Z</time>
  <course>321.18</course>
  <speed>2.6800186566514794</speed>
  <fix>3d</fix>
</trkpt>
<trkpt lat="40.0713238" lon="-105.2294402">
  <ele>1583.0</ele>
  <time>2026-08-28T17:56:27Z</time>
  <course>322.55</course>
  <speed>2.73</speed>
  <fix>3d</fix>
</trkpt>
<trkpt lat="40.0713286" lon="-105.2294453">
  <ele>1583.14</ele>
  <time>2026-08-28T17:56:27Z</time>
  <course>320.51</course>
  <speed>2.6414011433328337</speed>
  <fix>3d</fix>
</trkpt>
<trkpt lat="40.0713238" lon="-105.2294402">
  <ele>1583.0</ele>
  <time>2026-08-28T17:56:27Z</time>
  <course>322.55</course>
  <speed>2.73</speed>
  <fix>3d</fix>
</trkpt>
<trkpt lat="40.0713304" lon="-105.2294473">
  <ele>1583.14</ele>
  <time>2026-08-28T17:56:27Z</time>
  <course>319.89</course>
  <speed>2.6031711430484163</speed>
  <fix>3d</fix>
</trkpt>
<trkpt lat="40.0713276" lon="-105.2294441">
  <ele>1583.0</ele>
  <time>2026-08-28T17:56:27Z</time>
  <course>321.12</course>
  <speed>2.65</speed>
  <fix>3d</fix>
</trkpt>
<trkpt lat="40.0713322" lon="-105.2294492">
  <ele>1583.14</ele>
  <time>2026-08-28T17:56:27Z</time>
  <course>319.33</course>
  <speed>2.5587692353942355</speed>
  <fix>3d</fix>
</trkpt>
<trkpt lat="40.0713276" lon="-105.2294441">
  <ele>1583.0</ele>
  <time>2026-08-28T17:56:27Z</time>
  <course>321.12</course>
  <speed>2.65</speed>
  <fix>3d</fix>
</trkpt>
<trkpt lat="40.0713342" lon="-105.2294516">
  <ele>1583.14</ele>
  <time>2026-08-28T17:56:27Z</time>
  <course>318.74</course>
  <speed>2.5287348615463823</speed>
  <fix>3d</fix>
</trkpt>
<trkpt lat="40.0713312" lon="-105.229448">
  <ele>1583.0</ele>
  <time>2026-08-28T17:56:27Z</time>
  <course>319.92</course>
  <speed>2.57</speed>
  <fix>3d</fix>
</trkpt>
<trkpt lat="40.0713359" lon="-105.2294535">
  <ele>1583.15</ele>
  <time>2026-08-28T17:56:27Z</time>
  <course>318.31</course>
  <speed>2.4922680433693323</speed>
  <fix>3d</fix>
</trkpt>
<trkpt lat="40.0713312" lon="-105.229448">
  <ele>1583.0</ele>
  <time>2026-08-28T17:56:27Z</time>
  <course>319.92</course>
  <speed>2.57</speed>
  <fix>3d</fix>
</trkpt>
<trkpt lat="40.0713376" lon="-105.2294555">
  <ele>1583.15</ele>
  <time>2026-08-28T17:56:27Z</time>
  <course>317.92</course>
  <speed>2.470080970332754</speed>
  <fix>3d</fix>
</trkpt>
<trkpt lat="40.0713346" lon="-105.2294519">
  <ele>1583.0</ele>
  <time>2026-08-28T17:56:27Z</time>
  <course>318.94</course>
  <speed>2.51</speed>
  <fix>3d</fix>
</trkpt>
<trkpt lat="40.0713392" lon="-105.2294574">
  <ele>1583.15</ele>
  <time>2026-08-28T17:56:27Z</time>
  <course>317.59</course>
  <speed>2.4412496799794976</speed>
  <fix>3d</fix>
</trkpt>
<trkpt lat="40.0713346" lon="-105.2294519">
  <ele>1583.0</ele>
  <time>2026-08-28T17:56:27Z</time>
  <course>318.94</course>
  <speed>2.51</speed>
  <fix>3d</fix>
</trkpt>
<trkpt lat="40.0713408" lon="-105.2294593">
  <ele>1583.15</ele>
  <time>2026-08-28T17:56:27Z</time>
  <course>317.31</course>
  <speed>2.412488341940744</speed>
  <fix>3d</fix>
</trkpt>
<trkpt lat="40.071338" lon="-105.2294557">
  <ele>1583.0</ele>
  <time>2026-08-28T17:56:27Z</time>
  <course>318.17</course>
  <speed>2.46</speed>
  <fix>3d</fix>
</trkpt>
<trkpt lat="40.0713424" lon="-105.2294612">
  <ele>1583.16</ele>
  <time>2026-08-28T17:56:27Z</time>
  <course>317.08</course>
  <speed>2.3910667075596197</speed>
  <fix>3d</fix>
</trkpt>
<trkpt lat="40.071338" lon="-105.2294557">
  <ele>1583.0</ele>
  <time>2026-08-28T17:56:27Z</time>
  <course>318.17</course>
  <speed>2.46</speed>
  <fix>3d</fix>
</trkpt>
<trkpt lat="40.0713439" lon="-105.2294631">
  <ele>1583.16</ele>
  <time>2026-08-28T17:56:27Z</time>
  <course>316.89</course>
  <speed>2.376552124402072</speed>
  <fix>3d</fix>
</trkpt>
<trkpt lat="40.0713413" lon="-105.2294596">
  <ele>1583.0</ele>
  <time>2026-08-28T17:56:27Z</time>
  <course>317.6</course>
  <speed>2.42</speed>
  <fix>3d</fix>
</trkpt>
<trkpt lat="40.0713455" lon="-105.229465">
  <ele>1583.16</ele>
  <time>2026-08-28T17:56:27Z</time>
  <course>316.75</course>
  <speed>2.362414019599443</speed>
  <fix>3d</fix>
</trkpt>
<trkpt lat="40.0713413" lon="-105.2294596">
  <ele>1583.0</ele>
  <time>2026-08-28T17:56:27Z</time>
  <course>317.6</course>
  <speed>2.42</speed>
  <fix>3d</fix>
</trkpt>
<trkpt lat="40.071347" lon="-105.2294669">
  <ele>1583.16</ele>
  <time>2026-08-28T17:56:27Z</time>
  <course>316.65</course>
  <speed>2.3482759633399137</speed>
  <fix>3d</fix>
</trkpt>
<trkpt lat="40.0713444" lon="-105.2294634">
  <ele>1583.0</ele>
  <time>2026-08-28T17:56:27Z</time>
  <course>317.24</course>
  <speed>2.39</speed>
  <fix>3d</fix>
</trkpt>
<trkpt lat="40.0713485" lon="-105.2294687">
  <ele>1583.17</ele>
  <time>2026-08-28T17:56:27Z</time>
  <course>316.59</course>
  <speed>2.3341379565055704</speed>
  <fix>3d</fix>
</trkpt>
<trkpt lat="40.0713444" lon="-105.2294634">
  <ele>1583.0</ele>
  <time>2026-08-28T17:56:27Z</time>
  <course>317.24</course>
  <speed>2.39</speed>
  <fix>3d</fix>
</trkpt>
<trkpt lat="40.07135" lon="-105.2294706">
  <ele>1583.17</ele>
  <time>2026-08-28T17:56:27Z</time>
  <course>316.58</course>
  <speed>2.32</speed>
  <fix>3d</fix>
</trkpt>
<trkpt lat="40.0713476" lon="-105.2294671">
  <ele>1583.0</ele>
  <time>2026-08-28T17:56:27Z</time>
  <course>317.07</course>
  <speed>2.37</speed>
  <fix>3d</fix>
</trkpt>
<trkpt lat="40.0713513" lon="-105.229472">
  <ele>1583.17</ele>
  <time>2026-08-28T17:56:27Z</time>
  <course>316.6</course>
  <speed>2.32</speed>
  <fix>3d</fix>
</trkpt>
<trkpt lat="40.0713476" lon="-105.2294671">
  <ele>1583.0</ele>
  <time>2026-08-28T17:56:27Z</time>
  <course>317.07</course>
  <speed>2.37</speed>
  <fix>3d</fix>
</trkpt>
<trkpt lat="40.0713528" lon="-105.2294739">
  <ele>1583.17</ele>
  <time>2026-08-28T17:56:27Z</time>
  <course>316.66</course>
  <speed>2.32038789860661</speed>
  <fix>3d</fix>
</trkpt>
<trkpt lat="40.0713507" lon="-105.2294709">
  <ele>1583.0</ele>
  <time>2026-08-28T17:56:27Z</time>
  <course>317.08</course>
  <speed>2.36</speed>
  <fix>3d</fix>
</trkpt>
<trkpt lat="40.0713543" lon="-105.2294757">
  <ele>1583.18</ele>
  <time>2026-08-28T17:56:27Z</time>
  <course>316.76</course>
  <speed>2.32038789860661</speed>
  <fix>3d</fix>
</trkpt>
<trkpt lat="40.0713507" lon="-105.2294709">
  <ele>1583.0</ele>
  <time>2026-08-28T17:56:27Z</time>
  <course>317.08</course>
  <speed>2.36</speed>
  <fix>3d</fix>
</trkpt>
<trkpt lat="40.0713559" lon="-105.2294776">
  <ele>1583.18</ele>
  <time>2026-08-28T17:56:27Z</time>
  <course>316.91</course>
  <speed>2.3208619088605853</speed>
  <fix>3d</fix>
</trkpt>
<trkpt lat="40.0713538" lon="-105.2294747">
  <ele>1583.0</ele>
  <time>2026-08-28T17:56:27Z</time>
  <course>317.27</course>
  <speed>2.36</speed>
  <fix>3d</fix>
</trkpt>
<trkpt lat="40.0713575" lon="-105.2294794">
  <ele>1583.18</ele>
  <time>2026-08-28T17:56:27Z</time>
  <course>317.09</course>
  <speed>2.3281967270830015</speed>
  <fix>3d</fix>
</trkpt>
<trkpt lat="40.0713538" lon="-105.2294747">
  <ele>1583.0</ele>
  <time>2026-08-28T17:56:27Z</time>
  <course>317.27</course>
  <speed>2.36</speed>
  <fix>3d</fix>
</trkpt>
<trkpt lat="40.071359" lon="-105.2294813">
  <ele>1583.18</ele>
  <time>2026-08-28T17:56:27Z</time>
  <course>317.32</course>
  <speed>2.336193485137736</speed>
  <fix>3d</fix>
</trkpt>
<trkpt lat="40.071357" lon="-105.2294785">
  <ele>1583.0</ele>
  <time>2026-08-28T17:56:27Z</time>
  <course>317.61</course>
  <speed>2.37</speed>
  <fix>3d</fix>
</trkpt>
<trkpt lat="40.0713607" lon="-105.2294831">
  <ele>1583.19</ele>
  <time>2026-08-28T17:56:27Z</time>
  <course>317.58</course>
  <speed>2.3436083290515928</speed>
  <fix>3d</fix>
</trkpt>
<trkpt lat="40.071357" lon="-105.2294785">
  <ele>1583.0</ele>
  <time>2026-08-28T17:56:27Z</time>
  <course>317.61</course>
  <speed>2.37</speed>
  <fix>3d</fix>
</trkpt>
<trkpt lat="40.0713623" lon="-105.229485">
  <ele>1583.19</ele>
  <time>2026-08-28T17:56:27Z</time>
  <course>317.88</course>
  <speed>2.351850335374256</speed>
  <fix>3d</fix>
</trkpt>
<trkpt lat="40.0713602" lon="-105.2294823">
  <ele>1583.0</ele>
  <time>2026-08-28T17:56:27Z</time>
  <course>318.1</course>
  <speed>2.39</speed>
  <fix>3d</fix>
</trkpt>
<trkpt lat="40.0713639" lon="-105.2294869">
  <ele>1583.19</ele>
  <time>2026-08-28T17:56:27Z</time>
  <course>318.23</course>
  <speed>2.366854452643846</speed>
  <fix>3d</fix>
</trkpt>
<trkpt lat="40.0713602" lon="-105.2294823">
  <ele>1583.0</ele>
  <time>2026-08-28T17:56:27Z</time>
  <course>318.1</course>
  <speed>2.39</speed>
  <fix>3d</fix>
</trkpt>
<trkpt lat="40.0713656" lon="-105.2294887">
  <ele>1583.18</ele>
  <time>2026-08-28T17:56:27Z</time>
  <course>318.61</course>
  <speed>2.3753947040439405</speed>
  <fix>3d</fix>
</trkpt>
<trkpt lat="40.0713633" lon="-105.229486">
  <ele>1583.0</ele>
  <time>2026-08-28T17:56:27Z</time>
  <course>318.74</course>
  <speed>2.41</speed>
  <fix>3d</fix>
</trkpt>
<trkpt lat="40.0713676" lon="-105.2294909">
  <ele>1583.18</ele>
  <time>2026-08-28T17:56:27Z</time>
  <course>319.12</course>
  <speed>2.391756676587315</speed>
  <fix>3d</fix>
</trkpt>
<trkpt lat="40.0713633" lon="-105.229486">
  <ele>1583.0</ele>
  <time>2026-08-28T17:56:27Z</time>
  <course>318.74</course>
  <speed>2.41</speed>
  <fix>3d</fix>
</trkpt>
<trkpt lat="40.0713693" lon="-105.2294927">
  <ele>1583.18</ele>
  <time>2026-08-28T17:56:27Z</time>
  <course>319.57</course>
  <speed>2.400708228835816</speed>
  <fix>3d</fix>
</trkpt>
<trkpt lat="40.0713667" lon="-105.2294898">
  <ele>1583.0</ele>
  <time>2026-08-28T17:56:27Z</time>
  <course>319.52</course>
  <speed>2.44</speed>
  <fix>3d</fix>
</trkpt>
<trkpt lat="40.071371" lon="-105.2294946">
  <ele>1583.18</ele>
  <time>2026-08-28T17:56:27Z</time>
  <course>320.07</course>
  <speed>2.4239018131929355</speed>
  <fix>3d</fix>
</trkpt>
<trkpt lat="40.0713667" lon="-105.2294898">
  <ele>1583.0</ele>
  <time>2026-08-28T17:56:27Z</time>
  <course>319.52</course>
  <speed>2.44</speed>
  <fix>3d</fix>
</trkpt>
<trkpt lat="40.0713727" lon="-105.2294964">
  <ele>1583.18</ele>
  <time>2026-08-28T17:56:27Z</time>
  <course>320.58</course>
  <speed>2.4410038918445007</speed>
  <fix>3d</fix>
</trkpt>
<trkpt lat="40.07137" lon="-105.2294935">
  <ele>1583.0</ele>
  <time>2026-08-28T17:56:27Z</time>
  <course>320.41</course>
  <speed>2.47</speed>
  <fix>3d</fix>
</trkpt>
<trkpt lat="40.0713745" lon="-105.2294982">
  <ele>1583.18</ele>
  <time>2026-08-28T17:56:27Z</time>
  <course>321.11</course>
  <speed>2.4583937845674764</speed>
  <fix>3d</fix>
</trkpt>
<trkpt lat="40.07137" lon="-105.2294935">
  <ele>1583.0</ele>
  <time>2026-08-28T17:56:27Z</time>
  <course>320.41</course>
  <speed>2.47</speed>
  <fix>3d</fix>
</trkpt>
<trkpt lat="40.0713763" lon="-105.2295">
  <ele>1583.18</ele>
  <time>2026-08-28T17:56:27Z</time>
  <course>321.66</course>
  <speed>2.4681166909204273</speed>
  <fix>3d</fix>
</trkpt>
<trkpt lat="40.0713735" lon="-105.2294972">
  <ele>1583.0</ele>
  <time>2026-08-28T17:56:27Z</time>
  <course>321.39</course>
  <speed>2.5</speed>
  <fix>3d</fix>
</trkpt>
<trkpt lat="40.0713781" lon="-105.2295018">
  <ele>1583.18</ele>
  <time>2026-08-28T17:56:27Z</time>
  <course>322.22</course>
  <speed>2.486000804505099</speed>
  <fix>3d</fix>
</trkpt>
<trkpt lat="40.0713735" lon="-105.2294972">
  <ele>1583.0</ele>
  <time>2026-08-28T17:56:27Z</time>
  <course>321.39</course>
  <speed>2.5</speed>
  <fix>3d</fix>
</trkpt>
<trkpt lat="40.0713799" lon="-105.2295036">
  <ele>1583.18</ele>
  <time>2026-08-28T17:56:27Z</time>
  <course>322.79</course>
  <speed>2.504156544627352</speed>
  <fix>3d</fix>
</trkpt>
<trkpt lat="40.0713771" lon="-105.2295008">
  <ele>1583.0</ele>
  <time>2026-08-28T17:56:27Z</time>
  <course>322.44</course>
  <speed>2.53</speed>
  <fix>3d</fix>
</trkpt>
<trkpt lat="40.0713818" lon="-105.2295053">
  <ele>1583.18</ele>
  <time>2026-08-28T17:56:27Z</time>
  <course>323.36</course>
  <speed>2.508625121455974</speed>
  <fix>3d</fix>
</trkpt>
<trkpt lat="40.0713771" lon="-105.2295008">
  <ele>1583.0</ele>
  <time>2026-08-28T17:56:27Z</time>
  <course>322.44</course>
  <speed>2.53</speed>
  <fix>3d</fix>
</trkpt>
<trkpt lat="40.0713836" lon="-105.2295071">
  <ele>1583.18</ele>
  <time>2026-08-28T17:56:27Z</time>
  <course>323.95</course>
  <speed>2.527330607577885</speed>
  <fix>3d</fix>
</trkpt>
<trkpt lat="40.0713807" lon="-105.2295044">
  <ele>1583.0</ele>
  <time>2026-08-28T17:56:27Z</time>
  <course>323.53</course>
  <speed>2.56</speed>
  <fix>3d</fix>
</trkpt>
<trkpt lat="40.0713855" lon="-105.2295088">
  <ele>1583.18</ele>
  <time>2026-08-28T17:56:27Z</time>
  <course>324.54</course>
  <speed>2.532390175308694</speed>
  <fix>3d</fix>
</trkpt>
<trkpt lat="40.0713807" lon="-105.2295044">
  <ele>1583.0</ele>
  <time>2026-08-28T17:56:27Z</time>
  <course>323.53</course>
  <speed>2.56</speed>
  <fix>3d</fix>
</trkpt>
<trkpt lat="40.0713871" lon="-105.2295102">
  <ele>1583.18</ele>
  <time>2026-08-28T17:56:27Z</time>
  <course>325.02</course>
  <speed>2.5377549133042776</speed>
  <fix>3d</fix>
</trkpt>
<trkpt lat="40.0713845" lon="-105.2295079">
  <ele>1583.0</ele>
  <time>2026-08-28T17:56:27Z</time>
  <course>324.66</course>
  <speed>2.58</speed>
  <fix>3d</fix>
</trkpt>
<trkpt lat="40.071389" lon="-105.2295119">
  <ele>1583.19</ele>
  <time>2026-08-28T17:56:27Z</time>
  <course>325.63</course>
  <speed>2.5434228905158496</speed>
  <fix>3d</fix>
</trkpt>
<trkpt lat="40.0713845" lon="-105.2295079">
  <ele>1583.0</ele>
  <time>2026-08-28T17:56:27Z</time>
  <course>324.66</course>
  <speed>2.58</speed>
  <fix>3d</fix>
</trkpt>
<trkpt lat="40.071391" lon="-105.2295135">
  <ele>1583.19</ele>
  <time>2026-08-28T17:56:27Z</time>
  <course>326.24</course>
  <speed>2.5133443854752575</speed>
  <fix>3d</fix>
</trkpt>
<trkpt lat="40.0713883" lon="-105.2295115">
  <ele>1583.0</ele>
  <time>2026-08-28T17:56:27Z</time>
  <course>325.86</course>
  <speed>2.59</speed>
  <fix>3d</fix>
</trkpt>
<trkpt lat="40.0713929" lon="-105.2295151">
  <ele>1583.19</ele>
  <time>2026-08-28T17:56:27Z</time>
  <course>326.86</course>
  <speed>2.4613207836444237</speed>
  <fix>3d</fix>
</trkpt>
<trkpt lat="40.0713883" lon="-105.2295115">
  <ele>1583.0</ele>
  <time>2026-08-28T17:56:27Z</time>
  <course>325.86</course>
  <speed>2.59</speed>
  <fix>3d</fix>
</trkpt>
<trkpt lat="40.0713948" lon="-105.2295167">
  <ele>1583.19</ele>
  <time>2026-08-28T17:56:27Z</time>
  <course>327.49</course>
  <speed>2.3735627229968035</speed>
  <fix>3d</fix>
</trkpt>
<trkpt lat="40.0713922" lon="-105.2295148">
  <ele>1583.0</ele>
  <time>2026-08-28T17:56:27Z</time>
  <course>327.12</course>
  <speed>2.51</speed>
  <fix>3d</fix>
</trkpt>
<trkpt lat="40.0713966" lon="-105.2295181">
  <ele>1583.19</ele>
  <time>2026-08-28T17:56:27Z</time>
  <course>328.13</course>
  <speed>2.2587828580897282</speed>
  <fix>3d</fix>
</trkpt>
<trkpt lat="40.0713922" lon="-105.2295148">
  <ele>1583.0</ele>
  <time>2026-08-28T17:56:27Z</time>
  <course>327.12</course>
  <speed>2.51</speed>
  <fix>3d</fix>
</trkpt>
<trkpt lat="40.0713983" lon="-105.2295195">
  <ele>1583.18</ele>
  <time>2026-08-28T17:56:27Z</time>
  <course>328.79</course>
  <speed>2.1272047386182646</speed>
  <fix>3d</fix>
</trkpt>
<trkpt lat="40.0713959" lon="-105.2295178">
  <ele>1583.0</ele>
  <time>2026-08-28T17:56:27Z</time>
  <course>328.51</course>
  <speed>2.32</speed>
  <fix>3d</fix>
</trkpt>
<trkpt lat="40.0714" lon="-105.2295207">
  <ele>1583.18</ele>
  <time>2026-08-28T17:56:27Z</time>
  <course>329.47</course>
  <speed>1.9872594194015034</speed>
  <fix>3d</fix>
</trkpt>
<trkpt lat="40.0713959" lon="-105.2295178">
  <ele>1583.0</ele>
  <time>2026-08-28T17:56:27Z</time>
  <course>328.51</course>
  <speed>2.32</speed>
  <fix>3d</fix>
</trkpt>
<trkpt lat="40.0714015" lon="-105.2295218">
  <ele>1583.18</ele>
  <time>2026-08-28T17:56:27Z</time>
  <course>330.18</course>
  <speed>1.8476471524617464</speed>
  <fix>3d</fix>
</trkpt>
<trkpt lat="40.0713992" lon="-105.2295204">
  <ele>1583.0</ele>
  <time>2026-08-28T17:56:27Z</time>
  <course>330.04</course>
  <speed>2.06</speed>
  <fix>3d</fix>
</trkpt>
<trkpt lat="40.0714032" lon="-105.229523">
  <ele>1583.17</ele>
  <time>2026-08-28T17:56:27Z</time>
  <course>331.06</course>
  <speed>1.6815469068687916</speed>
  <fix>3d</fix>
</trkpt>
<trkpt lat="40.0713992" lon="-105.2295204">
  <ele>1583.0</ele>
  <time>2026-08-28T17:56:27Z</time>
  <course>330.04</course>
  <speed>2.06</speed>
  <fix>3d</fix>
</trkpt>
<trkpt lat="40.0714045" lon="-105.2295239">
  <ele>1583.17</ele>
  <time>2026-08-28T17:56:27Z</time>
  <course>331.82</course>
  <speed>1.5564061166674974</speed>
  <fix>3d</fix>
</trkpt>
<trkpt lat="40.0714023" lon="-105.2295226">
  <ele>1583.0</ele>
  <time>2026-08-28T17:56:27Z</time>
  <course>331.74</course>
  <speed>1.79</speed>
  <fix>3d</fix>
</trkpt>
<trkpt lat="40.0714058" lon="-105.2295247">
  <ele>1583.17</ele>
  <time>2026-08-28T17:56:27Z</time>
  <course>332.6</course>
  <speed>1.4317821063276353</speed>
  <fix>3d</fix>
</trkpt>
<trkpt lat="40.0714023" lon="-105.2295226">
  <ele>1583.0</ele>
  <time>2026-08-28T17:56:27Z</time>
  <course>331.74</course>
  <speed>1.79</speed>
  <fix>3d</fix>
</trkpt>
<trkpt lat="40.0714069" lon="-105.2295254">
  <ele>1583.17</ele>
  <time>2026-08-28T17:56:27Z</time>
  <course>333.41</course>
  <speed>1.3118307817702708</speed>
  <fix>3d</fix>
</trkpt>
<trkpt lat="40.0714049" lon="-105.2295245">
  <ele>1583.0</ele>
  <time>2026-08-28T17:56:27Z</time>
  <course>333.6</course>
  <speed>1.53</speed>
  <fix>3d</fix>
</trkpt>
<trkpt lat="40.0714079" lon="-105.229526">
  <ele>1583.17</ele>
  <time>2026-08-28T17:56:27Z</time>
  <course>334.24</course>
  <speed>1.2146192819151194</speed>
  <fix>3d</fix>
</trkpt>
<trkpt lat="40.0714049" lon="-105.2295245">
  <ele>1583.0</ele>
  <time>2026-08-28T17:56:27Z</time>
  <course>333.6</course>
  <speed>1.53</speed>
  <fix>3d</fix>
</trkpt>
<trkpt lat="40.0714089" lon="-105.2295265">
  <ele>1583.18</ele>
  <time>2026-08-28T17:56:27Z</time>
  <course>335.1</course>
  <speed>1.117899816620434</speed>
  <fix>3d</fix>
</trkpt>
<trkpt lat="40.0714072" lon="-105.2295259">
  <ele>1583.0</ele>
  <time>2026-08-28T17:56:27Z</time>
  <course>335.63</course>
  <speed>1.3</speed>
  <fix>3d</fix>
</trkpt>
<trkpt lat="40.0714098" lon="-105.229527">
  <ele>1583.18</ele>
  <time>2026-08-28T17:56:27Z</time>
  <course>335.99</course>
  <speed>1.0346496991735898</speed>
  <fix>3d</fix>
</trkpt>
<trkpt lat="40.0714072" lon="-105.2295259">
  <ele>1583.0</ele>
  <time>2026-08-28T17:56:27Z</time>
  <course>335.63</course>
  <speed>1.3</speed>
  <fix>3d</fix>
</trkpt>
<trkpt lat="40.0714107" lon="-105.2295275">
  <ele>1583.18</ele>
  <time>2026-08-28T17:56:27Z</time>
  <course>336.9</course>
  <speed>0.951892851112981</speed>
  <fix>3d</fix>
</trkpt>
<trkpt lat="40.0714092" lon="-105.2295269">
  <ele>1583.0</ele>
  <time>2026-08-28T17:56:27Z</time>
  <course>337.8</course>
  <speed>1.12</speed>
  <fix>3d</fix>
</trkpt>
<trkpt lat="40.0714115" lon="-105.2295278">
  <ele>1583.18</ele>
  <time>2026-08-28T17:56:27Z</time>
  <course>337.83</course>
  <speed>0.8918520056601319</speed>
  <fix>3d</fix>
</trkpt>
<trkpt lat="40.0714092" lon="-105.2295269">
  <ele>1583.0</ele>
  <time>2026-08-28T17:56:27Z</time>
  <course>337.8</course>
  <speed>1.12</speed>
  <fix>3d</fix>
</trkpt>
<trkpt lat="40.0714122" lon="-105.2295281">
  <ele>1583.18</ele>
  <time>2026-08-28T17:56:27Z</time>
  <course>338.79</course>
  <speed>0.8324061508662703</speed>
  <fix>3d</fix>
</trkpt>
<trkpt lat="40.071411" lon="-105.2295278">
  <ele>1583.0</ele>
  <time>2026-08-28T17:56:27Z</time>
  <course>340.09</course>
  <speed>0.97</speed>
  <fix>3d</fix>
</trkpt>
<trkpt lat="40.0714129" lon="-105.2295284">
  <ele>1583.18</ele>
  <time>2026-08-28T17:56:27Z</time>
  <course>339.77</course>
  <speed>0.78587530817554</speed>
  <fix>3d</fix>
</trkpt>
<trkpt lat="40.071411" lon="-105.2295278">
  <ele>1583.0</ele>
  <time>2026-08-28T17:56:27Z</time>
  <course>340.09</course>
  <speed>0.97</speed>
  <fix>3d</fix>
</trkpt>
<trkpt lat="40.0714136" lon="-105.2295287">
  <ele>1583.18</ele>
  <time>2026-08-28T17:56:27Z</time>
  <course>340.79</course>
  <speed>0.7397972695272672</speed>
  <fix>3d</fix>
</trkpt>
<trkpt lat="40.0714125" lon="-105.2295286">
  <ele>1583.0</ele>
  <time>2026-08-28T17:56:27Z</time>
  <course>342.49</course>
  <speed>0.85</speed>
  <fix>3d</fix>
</trkpt>
<trkpt lat="40.0714141" lon="-105.2295289">
  <ele>1583.18</ele>
  <time>2026-08-28T17:56:27Z</time>
  <course>341.62</course>
  <speed>0.7061161377563892</speed>
  <fix>3d</fix>
</trkpt>
<trkpt lat="40.0714125" lon="-105.2295286">
  <ele>1583.0</ele>
  <time>2026-08-28T17:56:27Z</time>
  <course>342.49</course>
  <speed>0.85</speed>
  <fix>3d</fix>
</trkpt>
<trkpt lat="40.0714147" lon="-105.2295291">
  <ele>1583.18</ele>
  <time>2026-08-28T17:56:27Z</time>
  <course>342.69</course>
  <speed>0.6708203932499369</speed>
  <fix>3d</fix>
</trkpt>
<trkpt lat="40.0714139" lon="-105.2295291">
  <ele>1583.0</ele>
  <time>2026-08-28T17:56:27Z</time>
  <course>344.97</course>
  <speed>0.76</speed>
  <fix>3d</fix>
</trkpt>
<trkpt lat="40.0714153" lon="-105.2295292">
  <ele>1583.18</ele>
  <time>2026-08-28T17:56:27Z</time>
  <course>343.78</course>
  <speed>0.6378871373526824</speed>
  <fix>3d</fix>
</trkpt>
<trkpt lat="40.0714139" lon="-105.2295291">
  <ele>1583.0</ele>
  <time>2026-08-28T17:56:27Z</time>
  <course>344.97</course>
  <speed>0.76</speed>
  <fix>3d</fix>
</trkpt>
<trkpt lat="40.0714159" lon="-105.2295294">
  <ele>1583.18</ele>
  <time>2026-08-28T17:56:27Z</time>
  <course>344.92</course>
  <speed>0.6152235366108809</speed>
  <fix>3d</fix>
</trkpt>
<trkpt lat="40.0714151" lon="-105.2295295">
  <ele>1583.0</ele>
  <time>2026-08-28T17:56:27Z</time>
  <course>347.54</course>
  <speed>0.69</speed>
  <fix>3d</fix>
</trkpt>
<trkpt lat="40.0714164" lon="-105.2295295">
  <ele>1583.18</ele>
  <time>2026-08-28T17:56:27Z</time>
  <course>346.08</course>
  <speed>0.58309518948453</speed>
  <fix>3d</fix>
</trkpt>
<trkpt lat="40.0714151" lon="-105.2295295">
  <ele>1583.0</ele>
  <time>2026-08-28T17:56:27Z</time>
  <course>347.54</course>
  <speed>0.69</speed>
  <fix>3d</fix>
</trkpt>
<trkpt lat="40.071417" lon="-105.2295296">
  <ele>1583.18</ele>
  <time>2026-08-28T17:56:27Z</time>
  <course>347.29</course>
  <speed>0.561426753904728</speed>
  <fix>3d</fix>
</trkpt>
<trkpt lat="40.0714163" lon="-105.2295298">
  <ele>1583.0</ele>
  <time>2026-08-28T17:56:27Z</time>
  <course>350.25</course>
  <speed>0.63</speed>
  <fix>3d</fix>
</trkpt>
<trkpt lat="40.0714175" lon="-105.2295297">
  <ele>1583.18</ele>
  <time>2026-08-28T17:56:27Z</time>
  <course>348.53</course>
  <speed>0.5403702434442519</speed>
  <fix>3d</fix>
</trkpt>
<trkpt lat="40.0714163" lon="-105.2295298">
  <ele>1583.0</ele>
  <time>2026-08-28T17:56:27Z</time>
  <course>350.25</course>
  <speed>0.63</speed>
  <fix>3d</fix>
</trkpt>
<trkpt lat="40.071418" lon="-105.2295297">
  <ele>1583.18</ele>
  <time>2026-08-28T17:56:27Z</time>
  <course>349.82</course>
  <speed>0.51</speed>
  <fix>3d</fix>
</trkpt>
<trkpt lat="40.0714174" lon="-105.22953">
  <ele>1583.0</ele>
  <time>2026-08-28T17:56:27Z</time>
  <course>353.13</course>
  <speed>0.58</speed>
  <fix>3d</fix>
</trkpt>
<trkpt lat="40.0714185" lon="-105.2295298">
  <ele>1583.18</ele>
  <time>2026-08-28T17:56:27Z</time>
  <course>351.16</course>
  <speed>0.49</speed>
  <fix>3d</fix>
</trkpt>
<trkpt lat="40.0714174" lon="-105.22953">
  <ele>1583.0</ele>
  <time>2026-08-28T17:56:27Z</time>
  <course>353.13</course>
  <speed>0.58</speed>
  <fix>3d</fix>
</trkpt>
<trkpt lat="40.071419" lon="-105.2295298">
  <ele>1583.18</ele>
  <time>2026-08-28T17:56:27Z</time>
  <course>352.83</course>
  <speed>0.4604345773288535</speed>
  <fix>3d</fix>
</trkpt>
<trkpt lat="40.0714185" lon="-105.2295301">
  <ele>1583.0</ele>
  <time>2026-08-28T17:56:27Z</time>
  <course>356.25</course>
  <speed>0.53</speed>
  <fix>3d</fix>
</trkpt>
<trkpt lat="40.0714194" lon="-105.2295298">
  <ele>1583.18</ele>
  <time>2026-08-28T17:56:27Z</time>
  <course>354.27</course>
  <speed>0.43185645763378366</speed>
  <fix>3d</fix>
</trkpt>
<trkpt lat="40.0714185" lon="-105.2295301">
  <ele>1583.0</ele>
  <time>2026-08-28T17:56:27Z</time>
  <course>356.25</course>
  <speed>0.53</speed>
  <fix>3d</fix>
</trkpt>
<trkpt lat="40.0714198" lon="-105.2295298">
  <ele>1583.18</ele>
  <time>2026-08-28T17:56:27Z</time>
  <course>355.72</course>
  <speed>0.41303752856126763</speed>
  <fix>3d</fix>
</trkpt>
<trkpt lat="40.0714193" lon="-105.2295302">
  <ele>1583.0</ele>
  <time>2026-08-28T17:56:27Z</time>
  <course>359.64</course>
  <speed>0.48</speed>
  <fix>3d</fix>
</trkpt>
<trkpt lat="40.0714202" lon="-105.2295298">
  <ele>1583.18</ele>
  <time>2026-08-28T17:56:27Z</time>
  <course>357.21</course>
  <speed>0.396232255123179</speed>
  <fix>3d</fix>
</trkpt>
<trkpt lat="40.0714193" lon="-105.2295302">
  <ele>1583.0</ele>
  <time>2026-08-28T17:56:27Z</time>
  <course>359.64</course>
  <speed>0.48</speed>
  <fix>3d</fix>
</trkpt>
<trkpt lat="40.0714206" lon="-105.2295298">
  <ele>1583.18</ele>
  <time>2026-08-28T17:56:27Z</time>
  <course>358.74</course>
  <speed>0.3687817782917155</speed>
  <fix>3d</fix>
</trkpt>
<trkpt lat="40.0714202" lon="-105.2295302">
  <ele>1583.0</ele>
  <time>2026-08-28T17:56:27Z</time>
  <course>3.31</course>
  <speed>0.43</speed>
  <fix>3d</fix>
</trkpt>
<trkpt lat="40.0714209" lon="-105.2295297">
  <ele>1583.18</ele>
  <time>2026-08-28T17:56:27Z</time>
  <course>0.29</course>
  <speed>0.3420526275297414</speed>
  <fix>3d</fix>
</trkpt>
<trkpt lat="40.0714202" lon="-105.2295302">
  <ele>1583.0</ele>
  <time>2026-08-28T17:56:27Z</time>
  <course>3.31</course>
  <speed>0.43</speed>
  <fix>3d</fix>
</trkpt>
<trkpt lat="40.0714212" lon="-105.2295296">
  <ele>1583.18</ele>
  <time>2026-08-28T17:56:27Z</time>
  <course>1.9</course>
  <speed>0.32572994949804657</speed>
  <fix>3d</fix>
</trkpt>
<trkpt lat="40.0714209" lon="-105.2295301">
  <ele>1583.0</ele>
  <time>2026-08-28T17:56:27Z</time>
  <course>7.29</course>
  <speed>0.38</speed>
  <fix>3d</fix>
</trkpt>
<trkpt lat="40.0714215" lon="-105.2295296">
  <ele>1583.18</ele>
  <time>2026-08-28T17:56:27Z</time>
  <course>3.52</course>
  <speed>0.3101612483854165</speed>
  <fix>3d</fix>
</trkpt>
<trkpt lat="40.0714209" lon="-105.2295301">
  <ele>1583.0</ele>
  <time>2026-08-28T17:56:27Z</time>
  <course>7.29</course>
  <speed>0.38</speed>
  <fix>3d</fix>
</trkpt>
<trkpt lat="40.0714218" lon="-105.2295295">
  <ele>1583.18</ele>
  <time>2026-08-28T17:56:27Z</time>
  <course>5.16</course>
  <speed>0.291547594742265</speed>
  <fix>3d</fix>
</trkpt>
<trkpt lat="40.0714215" lon="-105.22953">
  <ele>1583.0</ele>
  <time>2026-08-28T17:56:27Z</time>
  <course>11.54</course>
  <speed>0.33</speed>
  <fix>3d</fix>
</trkpt>
<trkpt lat="40.0714221" lon="-105.2295294">
  <ele>1583.18</ele>
  <time>2026-08-28T17:56:27Z</time>
  <course>6.83</course>
  <speed>0.2863564212655271</speed>
  <fix>3d</fix>
</trkpt>
<trkpt lat="40.0714215" lon="-105.22953">
  <ele>1583.0</ele>
  <time>2026-08-28T17:56:27Z</time>
  <course>11.54</course>
  <speed>0.33</speed>
  <fix>3d</fix>
</trkpt>
<trkpt lat="40.0714223" lon="-105.2295293">
  <ele>1583.18</ele>
  <time>2026-08-28T17:56:27Z</time>
  <course>8.51</course>
  <speed>0.28178005607210743</speed>
  <fix>3d</fix>
</trkpt>
<trkpt lat="40.0714221" lon="-105.2295298">
  <ele>1583.0</ele>
  <time>2026-08-28T17:56:27Z</time>
  <course>15.72</course>
  <speed>0.31</speed>
  <fix>3d</fix>
</trkpt>
<trkpt lat="40.0714225" lon="-105.2295292">
  <ele>1583.18</ele>
  <time>2026-08-28T17:56:27Z</time>
  <course>9.89</course>
  <speed>0.28178005607210743</speed>
  <fix>3d</fix>
</trkpt>
<trkpt lat="40.0714221" lon="-105.2295298">
  <ele>1583.0</ele>
  <time>2026-08-28T17:56:27Z</time>
  <course>15.72</course>
  <speed>0.31</speed>
  <fix>3d</fix>
</trkpt>
<trkpt lat="40.0714228" lon="-105.229529">
  <ele>1583.18</ele>
  <time>2026-08-28T17:56:27Z</time>
  <course>11.6</course>
  <speed>0.28653097563788804</speed>
  <fix>3d</fix>
</trkpt>
<trkpt lat="40.0714226" lon="-105.2295296">
  <ele>1583.0</ele>
  <time>2026-08-28T17:56:27Z</time>
  <course>19.39</course>
  <speed>0.3</speed>
  <fix>3d</fix>
</trkpt>
<trkpt lat="40.071423" lon="-105.2295289">
  <ele>1583.18</ele>
  <time>2026-08-28T17:56:27Z</time>
  <course>13.33</course>
  <speed>0.30016662039607267</speed>
  <fix>3d</fix>
</trkpt>
<trkpt lat="40.0714226" lon="-105.2295296">
  <ele>1583.0</ele>
  <time>2026-08-28T17:56:27Z</time>
  <course>19.39</course>
  <speed>0.3</speed>
  <fix>3d</fix>
</trkpt>
<trkpt lat="40.0714233" lon="-105.2295288">
  <ele>1583.18</ele>
  <time>2026-08-28T17:56:27Z</time>
  <course>15.07</course>
  <speed>0.3138470965295043</speed>
  <fix>3d</fix>
</trkpt>
<trkpt lat="40.0714232" lon="-105.2295293">
  <ele>1583.0</ele>
  <time>2026-08-28T17:56:27Z</time>
  <course>22.42</course>
  <speed>0.31</speed>
  <fix>3d</fix>
</trkpt>
<trkpt lat="40.0714235" lon="-105.2295286">
  <ele>1583.17</ele>
  <time>2026-08-28T17:56:27Z</time>
  <course>16.82</course>
  <speed>0.32449961479175904</speed>
  <fix>3d</fix>
</trkpt>
<trkpt lat="40.0714232" lon="-105.2295293">
  <ele>1583.0</ele>
  <time>2026-08-28T17:56:27Z</time>
  <course>22.42</course>
  <speed>0.31</speed>
  <fix>3d</fix>
</trkpt>
<trkpt lat="40.0714238" lon="-105.2295284">
  <ele>1583.17</ele>
  <time>2026-08-28T17:56:27Z</time>
  <course>18.57</course>
  <speed>0.33837848631377265</speed>
  <fix>3d</fix>
</trkpt>
<trkpt lat="40.0714237" lon="-105.229529">
  <ele>1583.0</ele>
  <time>2026-08-28T17:56:27Z</time>
  <course>25.12</course>
  <speed>0.33</speed>
  <fix>3d</fix>
</trkpt>
<trkpt lat="40.0714241" lon="-105.2295282">
  <ele>1583.17</ele>
  <time>2026-08-28T17:56:27Z</time>
  <course>20.32</course>
  <speed>0.3522782990761707</speed>
  <fix>3d</fix>
</trkpt>
<trkpt lat="40.0714237" lon="-105.229529">
  <ele>1583.0</ele>
  <time>2026-08-28T17:56:27Z</time>
  <course>25.12</course>
  <speed>0.33</speed>
  <fix>3d</fix>
</trkpt>
<trkpt lat="40.0714244" lon="-105.229528">
  <ele>1583.17</ele>
  <time>2026-08-28T17:56:27Z</time>
  <course>22.07</course>
  <speed>0.3720215047547655</speed>
  <fix>3d</fix>
</trkpt>
<trkpt lat="40.0714243" lon="-105.2295287">
  <ele>1583.0</ele>
  <time>2026-08-28T17:56:27Z</time>
  <course>27.88</course>
  <speed>0.36</speed>
  <fix>3d</fix>
</trkpt>
<trkpt lat="40.0714247" lon="-105.2295278">
  <ele>1583.17</ele>
  <time>2026-08-28T17:56:27Z</time>
  <course>23.8</course>
  <speed>0.378021163428716</speed>
  <fix>3d</fix>
</trkpt>
<trkpt lat="40.0714243" lon="-105.2295287">
  <ele>1583.0</ele>
  <time>2026-08-28T17:56:27Z</time>
  <course>27.88</course>
  <speed>0.36</speed>
  <fix>3d</fix>
</trkpt>
<trkpt lat="40.071425" lon="-105.2295276">
  <ele>1583.17</ele>
  <time>2026-08-28T17:56:27Z</time>
  <course>25.52</course>
  <speed>0.3764306044943742</speed>
  <fix>3d</fix>
</trkpt>
<trkpt lat="40.0714248" lon="-105.2295283">
  <ele>1583.0</ele>
  <time>2026-08-28T17:56:27Z</time>
  <course>30.88</course>
  <speed>0.37</speed>
  <fix>3d</fix>
</trkpt>
<trkpt lat="40.0714254" lon="-105.2295273">
  <ele>1583.17</ele>
  <time>2026-08-28T17:56:27Z</time>
  <course>27.54</course>
  <speed>0.3828837943815329</speed>
  <fix>3d</fix>
</trkpt>
<trkpt lat="40.0714248" lon="-105.2295283">
  <ele>1583.0</ele>
  <time>2026-08-28T17:56:27Z</time>
  <course>30.88</course>
  <speed>0.37</speed>
  <fix>3d</fix>
</trkpt>
<trkpt lat="40.0714257" lon="-105.229527">
  <ele>1583.17</ele>
  <time>2026-08-28T17:56:27Z</time>
  <course>29.19</course>
  <speed>0.38948684188300897</speed>
  <fix>3d</fix>
</trkpt>
<trkpt lat="40.0714254" lon="-105.2295278">
  <ele>1583.0</ele>
  <time>2026-08-28T17:56:27Z</time>
  <course>34.06</course>
  <speed>0.38</speed>
  <fix>3d</fix>
</trkpt>
<trkpt lat="40.0714259" lon="-105.2295267">
  <ele>1583.17</ele>
  <time>2026-08-28T17:56:27Z</time>
  <course>30.77</course>
  <speed>0.3889730067755345</speed>
  <fix>3d</fix>
</trkpt>
<trkpt lat="40.0714254" lon="-105.2295278">
  <ele>1583.0</ele>
  <time>2026-08-28T17:56:27Z</time>
  <course>34.06</course>
  <speed>0.38</speed>
  <fix>3d</fix>
</trkpt>
<trkpt lat="40.0714262" lon="-105.2295264">
  <ele>1583.17</ele>
  <time>2026-08-28T17:56:27Z</time>
  <course>32.32</course>
  <speed>0.3959797974644666</speed>
  <fix>3d</fix>
</trkpt>
<trkpt lat="40.071426" lon="-105.2295273">
  <ele>1583.0</ele>
  <time>2026-08-28T17:56:27Z</time>
  <course>37.12</course>
  <speed>0.39</speed>
  <fix>3d</fix>
</trkpt>
<trkpt lat="40.0714265" lon="-105.2295261">
  <ele>1583.17</ele>
  <time>2026-08-28T17:56:27Z</time>
  <course>33.8</course>
  <speed>0.41012193308819755</speed>
  <fix>3d</fix>
</trkpt>
<trkpt lat="40.071426" lon="-105.2295273">
  <ele>1583.0</ele>
  <time>2026-08-28T17:56:27Z</time>
  <course>37.12</course>
  <speed>0.39</speed>
  <fix>3d</fix>
</trkpt>
<trkpt lat="40.0714268" lon="-105.2295258">
  <ele>1583.17</ele>
  <time>2026-08-28T17:56:27Z</time>
  <course>35.17</course>
  <speed>0.41036569057366384</speed>
  <fix>3d</fix>
</trkpt>
<trkpt lat="40.0714265" lon="-105.2295266">
  <ele>1583.0</ele>
  <time>2026-08-28T17:56:27Z</time>
  <course>39.85</course>
  <speed>0.4</speed>
  <fix>3d</fix>
</trkpt>
<trkpt lat="40.071427" lon="-105.2295255">
  <ele>1583.17</ele>
  <time>2026-08-28T17:56:27Z</time>
  <course>36.29</course>
  <speed>0.33421549934136807</speed>
  <fix>3d</fix>
</trkpt>
<trkpt lat="40.0714265" lon="-105.2295266">
  <ele>1583.0</ele>
  <time>2026-08-28T17:56:27Z</time>
  <course>39.85</course>
  <speed>0.4</speed>
  <fix>3d</fix>
</trkpt>
<trkpt lat="40.0714272" lon="-105.2295253">
  <ele>1583.17</ele>
  <time>2026-08-28T17:56:27Z</time>
  <course>37.19</course>
  <speed>0.20591260281974003</speed>
  <fix>3d</fix>
</trkpt>
<trkpt lat="40.071427" lon="-105.229526">
  <ele>1583.0</ele>
  <time>2026-08-28T17:56:27Z</time>
  <course>43.63</course>
  <speed>0.33</speed>
  <fix>3d</fix>
</trkpt>
<trkpt lat="40.0714272" lon="-105.2295252">
  <ele>1583.18</ele>
  <time>2026-08-28T17:56:27Z</time>
  <course>38.0</course>
  <speed>0.07211102550927978</speed>
  <fix>3d</fix>
</trkpt>
<trkpt lat="40.071427" lon="-105.229526">
  <ele>1583.0</ele>
  <time>2026-08-28T17:56:27Z</time>
  <course>43.63</course>
  <speed>0.33</speed>
  <fix>3d</fix>
</trkpt>
<trkpt lat="40.0714271" lon="-105.2295252">
  <ele>1583.18</ele>
  <time>2026-08-28T17:56:27Z</time>
  <course>38.73</course>
  <speed>0.21840329667841554</speed>
  <fix>3d</fix>
</trkpt>
<trkpt lat="40.0714273" lon="-105.2295257">
  <ele>1583.0</ele>
  <time>2026-08-28T17:56:27Z</time>
  <course>73.53</course>
  <speed>0.08</speed>
  <fix>3d</fix>
</trkpt>
<trkpt lat="40.0714269" lon="-105.2295255">
  <ele>1583.18</ele>
  <time>2026-08-28T17:56:27Z</time>
  <course>39.38</course>
  <speed>0.4341658669218482</speed>
  <fix>3d</fix>
</trkpt>
<trkpt lat="40.0714273" lon="-105.2295257">
  <ele>1583.0</ele>
  <time>2026-08-28T17:56:27Z</time>
  <course>73.53</course>
  <speed>0.08</speed>
  <fix>3d</fix>
</trkpt>
<trkpt lat="40.0714265" lon="-105.2295258">
  <ele>1583.18</ele>
  <time>2026-08-28T17:56:27Z</time>
  <course>39.84</course>
  <speed>0.5883026432033092</speed>
  <fix>3d</fix>
</trkpt>
<trkpt lat="40.0714271" lon="-105.2295257">
  <ele>1583.0</ele>
  <time>2026-08-28T17:56:27Z</time>
  <course>209.51</course>
  <speed>0.33</speed>
  <fix>3d</fix>
</trkpt>
<trkpt lat="40.0714261" lon="-105.2295262">
  <ele>1583.18</ele>
  <time>2026-08-28T17:56:27Z</time>
  <course>40.31</course>
  <speed>0.6989277502002621</speed>
  <fix>3d</fix>
</trkpt>
<trkpt lat="40.0714271" lon="-105.2295257">
  <ele>1583.0</ele>
  <time>2026-08-28T17:56:27Z</time>
  <course>209.51</course>
  <speed>0.33</speed>
  <fix>3d</fix>
</trkpt>
<trkpt lat="40.0714256" lon="-105.2295267">
  <ele>1583.18</ele>
  <time>2026-08-28T17:56:27Z</time>
  <course>40.69</course>
  <speed>0.7545197147855052</speed>
  <fix>3d</fix>
</trkpt>
<trkpt lat="40.0714264" lon="-105.2295263">
  <ele>1583.0</ele>
  <time>2026-08-28T17:56:27Z</time>
  <course>214.58</course>
  <speed>0.64</speed>
  <fix>3d</fix>
</trkpt>
<trkpt lat="40.071425" lon="-105.2295273">
  <ele>1583.19</ele>
  <time>2026-08-28T17:56:27Z</time>
  <course>40.95</course>
  <speed>0.7602631123499285</speed>
  <fix>3d</fix>
</trkpt>
<trkpt lat="40.0714264" lon="-105.2295263">
  <ele>1583.0</ele>
  <time>2026-08-28T17:56:27Z</time>
  <course>214.58</course>
  <speed>0.64</speed>
  <fix>3d</fix>
</trkpt>
<trkpt lat="40.0714245" lon="-105.2295278">
  <ele>1583.19</ele>
  <time>2026-08-28T17:56:27Z</time>
  <course>41.09</course>
  <speed>0.7242237223399962</speed>
  <fix>3d</fix>
</trkpt>
<trkpt lat="40.0714254" lon="-105.2295273">
  <ele>1583.0</ele>
  <time>2026-08-28T17:56:27Z</time>
  <course>215.72</course>
  <speed>0.72</speed>
  <fix>3d</fix>
</trkpt>
<trkpt lat="40.0714239" lon="-105.2295283">
  <ele>1583.19</ele>
  <time>2026-08-28T17:56:27Z</time>
  <course>41.11</course>
  <speed>0.6685057965343307</speed>
  <fix>3d</fix>
</trkpt>
<trkpt lat="40.0714254" lon="-105.2295273">
  <ele>1583.0</ele>
  <time>2026-08-28T17:56:27Z</time>
  <course>215.72</course>
  <speed>0.72</speed>
  <fix>3d</fix>
</trkpt>
<trkpt lat="40.0714235" lon="-105.2295288">
  <ele>1583.19</ele>
  <time>2026-08-28T17:56:27Z</time>
  <course>40.98</course>
  <speed>0.5990826320300063</speed>
  <fix>3d</fix>
</trkpt>
<trkpt lat="40.0714244" lon="-105.2295282">
  <ele>1583.0</ele>
  <time>2026-08-28T17:56:27Z</time>
  <course>215.44</course>
  <speed>0.65</speed>
  <fix>3d</fix>
</trkpt>
<trkpt lat="40.0714231" lon="-105.2295291">
  <ele>1583.19</ele>
  <time>2026-08-28T17:56:27Z</time>
  <course>40.69</course>
  <speed>0.5077400909914441</speed>
  <fix>3d</fix>
</trkpt>
<trkpt lat="40.0714244" lon="-105.2295282">
  <ele>1583.0</ele>
  <time>2026-08-28T17:56:27Z</time>
  <course>215.44</course>
  <speed>0.65</speed>
  <fix>3d</fix>
</trkpt>
<trkpt lat="40.0714227" lon="-105.2295294">
  <ele>1583.19</ele>
  <time>2026-08-28T17:56:27Z</time>
  <course>40.27</course>
  <speed>0.425440947723653</speed>
  <fix>3d</fix>
</trkpt>
<trkpt lat="40.0714234" lon="-105.229529">
  <ele>1583.0</ele>
  <time>2026-08-28T17:56:27Z</time>
  <course>213.75</course>
  <speed>0.51</speed>
  <fix>3d</fix>
</trkpt>
<trkpt lat="40.0714225" lon="-105.2295297">
  <ele>1583.19</ele>
  <time>2026-08-28T17:56:27Z</time>
  <course>39.72</course>
  <speed>0.33541019662496846</speed>
  <fix>3d</fix>
</trkpt>
<trkpt lat="40.0714234" lon="-105.229529">
  <ele>1583.0</ele>
  <time>2026-08-28T17:56:27Z</time>
  <course>213.75</course>
  <speed>0.51</speed>
  <fix>3d</fix>
</trkpt>
<trkpt lat="40.0714222" lon="-105.2295298">
  <ele>1583.18</ele>
  <time>2026-08-28T17:56:27Z</time>
  <course>38.89</course>
  <speed>0.24698178070456936</speed>
  <fix>3d</fix>
</trkpt>
<trkpt lat="40.0714228" lon="-105.2295295">
  <ele>1583.0</ele>
  <time>2026-08-28T17:56:27Z</time>
  <course>209.92</course>
  <speed>0.34</speed>
  <fix>3d</fix>
</trkpt>
<trkpt lat="40.0714221" lon="-105.2295299">
  <ele>1583.18</ele>
  <time>2026-08-28T17:56:27Z</time>
  <course>38.04</course>
  <speed>0.17464249196572978</speed>
  <fix>3d</fix>
</trkpt>
<trkpt lat="40.0714228" lon="-105.2295295">
  <ele>1583.0</ele>
  <time>2026-08-28T17:56:27Z</time>
  <course>209.92</course>
  <speed>0.34</speed>
  <fix>3d</fix>
</trkpt>
<trkpt lat="40.071422" lon="-105.2295299">
  <ele>1583.18</ele>
  <time>2026-08-28T17:56:27Z</time>
  <course>37.04</course>
  <speed>0.12</speed>
  <fix>3d</fix>
</trkpt>
<trkpt lat="40.0714224" lon="-105.2295298">
  <ele>1583.0</ele>
  <time>2026-08-28T17:56:27Z</time>
  <course>201.39</course>
  <speed>0.19</speed>
  <fix>3d</fix>
</trkpt>
<trkpt lat="40.0714219" lon="-105.2295299">
  <ele>1583.18</ele>
  <time>2026-08-28T17:56:27Z</time>
  <course>35.89</course>
  <speed>0.11</speed>
  <fix>3d</fix>
</trkpt>
<trkpt lat="40.0714224" lon="-105.2295298">
  <ele>1583.0</ele>
  <time>2026-08-28T17:56:27Z</time>
  <course>201.39</course>
  <speed>0.19</speed>
  <fix>3d</fix>
</trkpt>
<trkpt lat="40.0714218" lon="-105.2295299">
  <ele>1583.18</ele>
  <time>2026-08-28T17:56:27Z</time>
  <course>34.58</course>
  <speed>0.11</speed>
  <fix>3d</fix>
</trkpt>
<trkpt lat="40.0714222" lon="-105.2295299">
  <ele>1583.0</ele>
  <time>2026-08-28T17:56:27Z</time>
  <course>186.36</course>
  <speed>0.11</speed>
  <fix>3d</fix>
</trkpt>
<trkpt lat="40.0714217" lon="-105.2295299">
  <ele>1583.18</ele>
  <time>2026-08-28T17:56:27Z</time>
  <course>33.1</course>
  <speed>0.11</speed>
  <fix>3d</fix>
</trkpt>
<trkpt lat="40.0714222" lon="-105.2295299">
  <ele>1583.0</ele>
  <time>2026-08-28T17:56:27Z</time>
  <course>186.36</course>
  <speed>0.11</speed>
  <fix>3d</fix>
</trkpt>
<trkpt lat="40.0714216" lon="-105.2295299">
  <ele>1583.17</ele>
  <time>2026-08-28T17:56:27Z</time>
  <course>31.44</course>
  <speed>0.11</speed>
  <fix>3d</fix>
</trkpt>
<trkpt lat="40.071422" lon="-105.22953">
  <ele>1583.0</ele>
  <time>2026-08-28T17:56:27Z</time>
  <course>178.73</course>
  <speed>0.09</speed>
  <fix>3d</fix>
</trkpt>
<trkpt lat="40.0714216" lon="-105.2295299">
  <ele>1583.18</ele>
  <time>2026-08-28T17:56:27Z</time>
  <course>29.62</course>
  <speed>0.11045361017187261</speed>
  <fix>3d</fix>
</trkpt>
<trkpt lat="40.071422" lon="-105.22953">
  <ele>1583.0</ele>
  <time>2026-08-28T17:56:27Z</time>
  <course>178.73</course>
  <speed>0.09</speed>
  <fix>3d</fix>
</trkpt>
<trkpt lat="40.0714215" lon="-105.2295298">
  <ele>1583.18</ele>
  <time>2026-08-28T17:56:27Z</time>
  <course>27.62</course>
  <speed>0.11045361017187261</speed>
  <fix>3d</fix>
</trkpt>
<trkpt lat="40.0714218" lon="-105.2295299">
  <ele>1583.0</ele>
  <time>2026-08-28T17:56:27Z</time>
  <course>176.28</course>
  <speed>0.09</speed>
  <fix>3d</fix>
</trkpt>
<trkpt lat="40.0714214" lon="-105.2295298">
  <ele>1583.18</ele>
  <time>2026-08-28T17:56:27Z</time>
  <course>25.43</course>
  <speed>0.12041594578792296</speed>
  <fix>3d</fix>
</trkpt>
<trkpt lat="40.0714218" lon="-105.2295299">
  <ele>1583.0</ele>
  <time>2026-08-28T17:56:27Z</time>
  <course>176.28</course>
  <speed>0.09</speed>
  <fix>3d</fix>
</trkpt>
<trkpt lat="40.0714213" lon="-105.2295298">
  <ele>1583.18</ele>
  <time>2026-08-28T17:56:27Z</time>
  <course>23.06</course>
  <speed>0.12165525060596438</speed>
  <fix>3d</fix>
</trkpt>
<trkpt lat="40.0714217" lon="-105.2295298">
  <ele>1583.0</ele>
  <time>2026-08-28T17:56:27Z</time>
  <course>173.27</course>
  <speed>0.1</speed>
  <fix>3d</fix>
</trkpt>
<trkpt lat="40.0714213" lon="-105.2295298">
  <ele>1583.19</ele>
  <time>2026-08-28T17:56:27Z</time>
  <course>21.0</course>
  <speed>0.12165525060596438</speed>
  <fix>3d</fix>
</trkpt>
<trkpt lat="40.0714217" lon="-105.2295298">
  <ele>1583.0</ele>
  <time>2026-08-28T17:56:27Z</time>
  <course>173.27</course>
  <speed>0.1</speed>
  <fix>3d</fix>
</trkpt>
<trkpt lat="40.0714212" lon="-105.2295298">
  <ele>1583.19</ele>
  <time>2026-08-28T17:56:27Z</time>
  <course>18.31</course>
  <speed>0.12165525060596438</speed>
  <fix>3d</fix>
</trkpt>
<trkpt lat="40.0714215" lon="-105.2295298">
  <ele>1583.0</ele>
  <time>2026-08-28T17:56:27Z</time>
  <course>169.64</course>
  <speed>0.1</speed>
  <fix>3d</fix>
</trkpt>
<trkpt lat="40.0714211" lon="-105.2295298">
  <ele>1583.19</ele>
  <time>2026-08-28T17:56:27Z</time>
  <course>15.52</course>
  <speed>0.12369316876852982</speed>
  <fix>3d</fix>
</trkpt>
<trkpt lat="40.0714215" lon="-105.2295298">
  <ele>1583.0</ele>
  <time>2026-08-28T17:56:27Z</time>
  <course>169.64</course>
  <speed>0.1</speed>
  <fix>3d</fix>
</trkpt>
<trkpt lat="40.071421" lon="-105.2295298">
  <ele>1583.18</ele>
  <time>2026-08-28T17:56:27Z</time>
  <course>12.65</course>
  <speed>0.12369316876852982</speed>
  <fix>3d</fix>
</trkpt>
<trkpt lat="40.0714213" lon="-105.2295298">
  <ele>1583.0</ele>
  <time>2026-08-28T17:56:27Z</time>
  <course>165.47</course>
  <speed>0.1</speed>
  <fix>3d</fix>
</trkpt>
<trkpt lat="40.0714209" lon="-105.2295297">
  <ele>1583.18</ele>
  <time>2026-08-28T17:56:27Z</time>
  <course>9.68</course>
  <speed>0.1264911064067352</speed>
  <fix>3d</fix>
</trkpt>
<trkpt lat="40.0714213" lon="-105.2295298">
  <ele>1583.0</ele>
  <time>2026-08-28T17:56:27Z</time>
  <course>165.47</course>
  <speed>0.1</speed>
  <fix>3d</fix>
</trkpt>
<trkpt lat="40.0714208" lon="-105.2295297">
  <ele>1583.18</ele>
  <time>2026-08-28T17:56:27Z</time>
  <course>6.62</course>
  <speed>0.1264911064067352</speed>
  <fix>3d</fix>
</trkpt>
<trkpt lat="40.071421" lon="-105.2295298">
  <ele>1583.0</ele>
  <time>2026-08-28T17:56:27Z</time>
  <course>160.88</course>
  <speed>0.11</speed>
  <fix>3d</fix>
</trkpt>
<trkpt lat="40.0714207" lon="-105.2295296">
  <ele>1583.18</ele>
  <time>2026-08-28T17:56:27Z</time>
  <course>3.5</course>
  <speed>0.13</speed>
  <fix>3d</fix>
</trkpt>
<trkpt lat="40.071421" lon="-105.2295298">
  <ele>1583.0</ele>
  <time>2026-08-28T17:56:27Z</time>
  <course>160.88</course>
  <speed>0.11</speed>
  <fix>3d</fix>
</trkpt>
<trkpt lat="40.0714206" lon="-105.2295296">
  <ele>1583.18</ele>
  <time>2026-08-28T17:56:27Z</time>
  <course>0.37</course>
  <speed>0.1341640786499874</speed>
  <fix>3d</fix>
</trkpt>
<trkpt lat="40.0714209" lon="-105.2295297">
  <ele>1583.0</ele>
  <time>2026-08-28T17:56:27Z</time>
  <course>155.94</course>
  <speed>0.11</speed>
  <fix>3d</fix>
</trkpt>
<trkpt lat="40.0714205" lon="-105.2295295">
  <ele>1583.18</ele>
  <time>2026-08-28T17:56:27Z</time>
  <course>357.24</course>
  <speed>0.1341640786499874</speed>
  <fix>3d</fix>
</trkpt>
<trkpt lat="40.0714209" lon="-105.2295297">
  <ele>1583.0</ele>
  <time>2026-08-28T17:56:27Z</time>
  <course>155.94</course>
  <speed>0.11</speed>
  <fix>3d</fix>
</trkpt>
<trkpt lat="40.0714204" lon="-105.2295294">
  <ele>1583.18</ele>
  <time>2026-08-28T17:56:27Z</time>
  <course>354.11</course>
  <speed>0.13892443989449804</speed>
  <fix>3d</fix>
</trkpt>
<trkpt lat="40.0714207" lon="-105.2295296">
  <ele>1583.0</ele>
  <time>2026-08-28T17:56:27Z</time>
  <course>150.8</course>
  <speed>0.12</speed>
  <fix>3d</fix>
</trkpt>
<trkpt lat="40.0714203" lon="-105.2295293">
  <ele>1583.18</ele>
  <time>2026-08-28T17:56:27Z</time>
  <course>350.35</course>
  <speed>0.14422205101855956</speed>
  <fix>3d</fix>
</trkpt>
<trkpt lat="40.0714207" lon="-105.2295296">
  <ele>1583.0</ele>
  <time>2026-08-28T17:56:27Z</time>
  <course>150.8</course>
  <speed>0.12</speed>
  <fix>3d</fix>
</trkpt>
<trkpt lat="40.0714203" lon="-105.2295292">
  <ele>1583.18</ele>
  <time>2026-08-28T17:56:27Z</time>
  <course>347.3</course>
  <speed>0.09899494936611665</speed>
  <fix>3d</fix>
</trkpt>
<trkpt lat="40.0714205" lon="-105.2295294">
  <ele>1583.0</ele>
  <time>2026-08-28T17:56:27Z</time>
  <course>143.82</course>
  <speed>0.11</speed>
  <fix>3d</fix>
</trkpt>
<trkpt lat="40.0714203" lon="-105.2295292">
  <ele>1583.18</ele>
  <time>2026-08-28T17:56:27Z</time>
  <course>344.31</course>
  <speed>0.05830951894845301</speed>
  <fix>3d</fix>
</trkpt>
<trkpt lat="40.0714205" lon="-105.2295294">
  <ele>1583.0</ele>
  <time>2026-08-28T17:56:27Z</time>
  <course>143.82</course>
  <speed>0.11</speed>
  <fix>3d</fix>
</trkpt>
<trkpt lat="40.0714204" lon="-105.2295291">
  <ele>1583.18</ele>
  <time>2026-08-28T17:56:27Z</time>
  <course>341.36</course>
  <speed>0.17</speed>
  <fix>3d</fix>
</trkpt>
<trkpt lat="40.0714204" lon="-105.2295293">
  <ele>1583.0</ele>
  <time>2026-08-28T17:56:27Z</time>
  <course>61.67</course>
  <speed>0.04</speed>
  <fix>3d</fix>
</trkpt>
<trkpt lat="40.0714205" lon="-105.2295292">
  <ele>1583.18</ele>
  <time>2026-08-28T17:56:27Z</time>
  <course>338.46</course>
  <speed>0.34713109915419565</speed>
  <fix>3d</fix>
</trkpt>
<trkpt lat="40.0714204" lon="-105.2295293">
  <ele>1583.0</ele>
  <time>2026-08-28T17:56:27Z</time>
  <course>61.67</course>
  <speed>0.04</speed>
  <fix>3d</fix>
</trkpt>
<trkpt lat="40.0714209" lon="-105.2295294">
  <ele>1583.17</ele>
  <time>2026-08-28T17:56:27Z</time>
  <course>335.55</course>
  <speed>0.5375872022286245</speed>
  <fix>3d</fix>
</trkpt>
<trkpt lat="40.0714206" lon="-105.2295293">
  <ele>1583.0</ele>
  <time>2026-08-28T17:56:27Z</time>
  <course>347.08</course>
  <speed>0.3</speed>
  <fix>3d</fix>
</trkpt>
<trkpt lat="40.0714215" lon="-105.2295296">
  <ele>1583.17</ele>
  <time>2026-08-28T17:56:27Z</time>
  <course>332.68</course>
  <speed>0.7392563831310488</speed>
  <fix>3d</fix>
</trkpt>
<trkpt lat="40.0714206" lon="-105.2295293">
  <ele>1583.0</ele>
  <time>2026-08-28T17:56:27Z</time>
  <course>347.08</course>
  <speed>0.3</speed>
  <fix>3d</fix>
</trkpt>
<trkpt lat="40.0714222" lon="-105.22953">
  <ele>1583.17</ele>
  <time>2026-08-28T17:56:27Z</time>
  <course>329.82</course>
  <speed>0.9391485505499116</speed>
  <fix>3d</fix>
</trkpt>
<trkpt lat="40.0714214" lon="-105.2295296">
  <ele>1583.0</ele>
  <time>2026-08-28T17:56:27Z</time>
  <course>336.47</course>
  <speed>0.67</speed>
  <fix>3d</fix>
</trkpt>
<trkpt lat="40.0714231" lon="-105.2295306">
  <ele>1583.17</ele>
  <time>2026-08-28T17:56:27Z</time>
  <course>326.97</course>
  <speed>1.1337107214805724</speed>
  <fix>3d</fix>
</trkpt>
<trkpt lat="40.0714214" lon="-105.2295296">
  <ele>1583.0</ele>
  <time>2026-08-28T17:56:27Z</time>
  <course>336.47</course>
  <speed>0.67</speed>
  <fix>3d</fix>
</trkpt>
<trkpt lat="40.0714241" lon="-105.2295314">
  <ele>1583.17</ele>
  <time>2026-08-28T17:56:27Z</time>
  <course>324.12</course>
  <speed>1.3201893803541975</speed>
  <fix>3d</fix>
</trkpt>
<trkpt lat="40.0714228" lon="-105.2295305">
  <ele>1583.0</ele>
  <time>2026-08-28T17:56:27Z</time>
  <course>329.39</course>
  <speed>1.07</speed>
  <fix>3d</fix>
</trkpt>
<trkpt lat="40.0714251" lon="-105.2295324">
  <ele>1583.17</ele>
  <time>2026-08-28T17:56:27Z</time>
  <course>321.27</course>
  <speed>1.5</speed>
  <fix>3d</fix>
</trkpt>
<trkpt lat="40.0714228" lon="-105.2295305">
  <ele>1583.0</ele>
  <time>2026-08-28T17:56:27Z</time>
  <course>329.39</course>
  <speed>1.07</speed>
  <fix>3d</fix>
</trkpt>
<trkpt lat="40.071426" lon="-105.2295334">
  <ele>1583.17</ele>
  <time>2026-08-28T17:56:27Z</time>
  <course>318.97</course>
  <speed>1.6414932226482082</speed>
  <fix>3d</fix>
</trkpt>
<trkpt lat="40.0714247" lon="-105.2295322">
  <ele>1583.0</ele>
  <time>2026-08-28T17:56:27Z</time>
  <course>323.12</course>
  <speed>1.44</speed>
  <fix>3d</fix>
</trkpt>
<trkpt lat="40.0714272" lon="-105.2295348">
  <ele>1583.16</ele>
  <time>2026-08-28T17:56:27Z</time>
  <course>316.12</course>
  <speed>1.804799157801222</speed>
  <fix>3d</fix>
</trkpt>
<trkpt lat="40.0714247" lon="-105.2295322">
  <ele>1583.0</ele>
  <time>2026-08-28T17:56:27Z</time>
  <course>323.12</course>
  <speed>1.44</speed>
  <fix>3d</fix>
</trkpt>
<trkpt lat="40.0714285" lon="-105.2295364">
  <ele>1583.16</ele>
  <time>2026-08-28T17:56:27Z</time>
  <course>313.27</course>
  <speed>1.951665955024066</speed>
  <fix>3d</fix>
</trkpt>
<trkpt lat="40.0714269" lon="-105.2295346">
  <ele>1583.0</ele>
  <time>2026-08-28T17:56:27Z</time>
  <course>317.13</course>
  <speed>1.77</speed>
  <fix>3d</fix>
</trkpt>
<trkpt lat="40.0714298" lon="-105.2295382">
  <ele>1583.16</ele>
  <time>2026-08-28T17:56:27Z</time>
  <course>310.43</course>
  <speed>2.0894257584322062</speed>
  <fix>3d</fix>
</trkpt>
<trkpt lat="40.0714269" lon="-105.2295346">
  <ele>1583.0</ele>
  <time>2026-08-28T17:56:27Z</time>
  <course>317.13</course>
  <speed>1.77</speed>
  <fix>3d</fix>
</trkpt>
<trkpt lat="40.071431" lon="-105.2295402">
  <ele>1583.15</ele>
  <time>2026-08-28T17:56:27Z</time>
  <course>307.59</course>
  <speed>2.2270383921252908</speed>
  <fix>3d</fix>
</trkpt>
<trkpt lat="40.0714293" lon="-105.2295379">
  <ele>1583.0</ele>
  <time>2026-08-28T17:56:27Z</time>
  <course>311.28</course>
  <speed>2.06</speed>
  <fix>3d</fix>
</trkpt>
<trkpt lat="40.0714323" lon="-105.2295425">
  <ele>1583.15</ele>
  <time>2026-08-28T17:56:27Z</time>
  <course>304.76</course>
  <speed>2.3505318547086316</speed>
  <fix>3d</fix>
</trkpt>
<trkpt lat="40.0714293" lon="-105.2295379">
  <ele>1583.0</ele>
  <time>2026-08-28T17:56:27Z</time>
  <course>311.28</course>
  <speed>2.06</speed>
  <fix>3d</fix>
</trkpt>
<trkpt lat="40.0714335" lon="-105.2295449">
  <ele>1583.15</ele>
  <time>2026-08-28T17:56:27Z</time>
  <course>301.95</course>
  <speed>2.4742675683927153</speed>
  <fix>3d</fix>
</trkpt>
<trkpt lat="40.0714318" lon="-105.2295419">
  <ele>1583.0</ele>
  <time>2026-08-28T17:56:27Z</time>
  <course>305.51</course>
  <speed>2.32</speed>
  <fix>3d</fix>
</trkpt>
<trkpt lat="40.0714347" lon="-105.2295475">
  <ele>1583.14</ele>
  <time>2026-08-28T17:56:27Z</time>
  <course>299.15</course>
  <speed>2.607220742476555</speed>
  <fix>3d</fix>
</trkpt>
<trkpt lat="40.0714318" lon="-105.2295419">
  <ele>1583.0</ele>
  <time>2026-08-28T17:56:27Z</time>
  <course>305.51</course>
  <speed>2.32</speed>
  <fix>3d</fix>
</trkpt>
<trkpt lat="40.0714359" lon="-105.2295504">
  <ele>1583.14</ele>
  <time>2026-08-28T17:56:27Z</time>
  <course>296.4</course>
  <speed>2.750454507895013</speed>
  <fix>3d</fix>
</trkpt>
<trkpt lat="40.0714341" lon="-105.2295468">
  <ele>1583.0</ele>
  <time>2026-08-28T17:56:27Z</time>
  <course>299.83</course>
  <speed>2.57</speed>
  <fix>3d</fix>
</trkpt>
<trkpt lat="40.071437" lon="-105.2295535">
  <ele>1583.14</ele>
  <time>2026-08-28T17:56:27Z</time>
  <course>293.67</course>
  <speed>2.9090376415577714</speed>
  <fix>3d</fix>
</trkpt>
<trkpt lat="40.0714341" lon="-105.2295468">
  <ele>1583.0</ele>
  <time>2026-08-28T17:56:27Z</time>
  <course>299.83</course>
  <speed>2.57</speed>
  <fix>3d</fix>
</trkpt>
<trkpt lat="40.0714382" lon="-105.2295575">
  <ele>1583.14</ele>
  <time>2026-08-28T17:56:27Z</time>
  <course>290.5</course>
  <speed>3.0678494096027595</speed>
  <fix>3d</fix>
</trkpt>
<trkpt lat="40.0714363" lon="-105.2295524">
  <ele>1583.0</ele>
  <time>2026-08-28T17:56:27Z</time>
  <course>294.28</course>
  <speed>2.85</speed>
  <fix>3d</fix>
</trkpt>
<trkpt lat="40.0714391" lon="-105.229561">
  <ele>1583.14</ele>
  <time>2026-08-28T17:56:27Z</time>
  <course>287.95</course>
  <speed>3.1338315206788003</speed>
  <fix>3d</fix>
</trkpt>
<trkpt lat="40.0714363" lon="-105.2295524">
  <ele>1583.0</ele>
  <time>2026-08-28T17:56:27Z</time>
  <course>294.28</course>
  <speed>2.85</speed>
  <fix>3d</fix>
</trkpt>
<trkpt lat="40.07144" lon="-105.2295646">
  <ele>1583.14</ele>
  <time>2026-08-28T17:56:27Z</time>
  <course>285.45</course>
  <speed>3.162040480449294</speed>
  <fix>3d</fix>
</trkpt>
<trkpt lat="40.0714382" lon="-105.2295589">
  <ele>1583.0</ele>
  <time>2026-08-28T17:56:27Z</time>
  <course>289.11</course>
  <speed>3.06</speed>
  <fix>3d</fix>
</trkpt>
<trkpt lat="40.0714406" lon="-105.2295683">
  <ele>1583.14</ele>
  <time>2026-08-28T17:56:27Z</time>
  <course>283.01</course>
  <speed>3.1579265349276255</speed>
  <fix>3d</fix>
</trkpt>
<trkpt lat="40.0714382" lon="-105.2295589">
  <ele>1583.0</ele>
  <time>2026-08-28T17:56:27Z</time>
  <course>289.11</course>
  <speed>3.06</speed>
  <fix>3d</fix>
</trkpt>
<trkpt lat="40.0714412" lon="-105.2295719">
  <ele>1583.14</ele>
  <time>2026-08-28T17:56:27Z</time>
  <course>280.65</course>
  <speed>3.1496348994764456</speed>
  <fix>3d</fix>
</trkpt>
<trkpt lat="40.0714399" lon="-105.2295659">
  <ele>1583.0</ele>
  <time>2026-08-28T17:56:27Z</time>
  <course>284.22</course>
  <speed>3.12</speed>
  <fix>3d</fix>
</trkpt>
<trkpt lat="40.0714417" lon="-105.2295756">
  <ele>1583.14</ele>
  <time>2026-08-28T17:56:27Z</time>
  <course>278.35</course>
  <speed>3.1468237955119127</speed>
  <fix>3d</fix>
</trkpt>
<trkpt lat="40.0714399" lon="-105.2295659">
  <ele>1583.0</ele>
  <time>2026-08-28T17:56:27Z</time>
  <course>284.22</course>
  <speed>3.12</speed>
  <fix>3d</fix>
</trkpt>
<trkpt lat="40.071442" lon="-105.2295793">
  <ele>1583.14</ele>
  <time>2026-08-28T17:56:27Z</time>
  <course>276.13</course>
  <speed>3.1506348566598446</speed>
  <fix>3d</fix>
</trkpt>
<trkpt lat="40.071441" lon="-105.2295731">
  <ele>1583.0</ele>
  <time>2026-08-28T17:56:27Z</time>
  <course>279.59</course>
  <speed>3.12</speed>
  <fix>3d</fix>
</trkpt>
<trkpt lat="40.0714422" lon="-105.229583">
  <ele>1583.14</ele>
  <time>2026-08-28T17:56:27Z</time>
  <course>273.99</course>
  <speed>3.1691008188443615</speed>
  <fix>3d</fix>
</trkpt>
<trkpt lat="40.071441" lon="-105.2295731">
  <ele>1583.0</ele>
  <time>2026-08-28T17:56:27Z</time>
  <course>279.59</course>
  <speed>3.12</speed>
  <fix>3d</fix>
</trkpt>
<trkpt lat="40.0714424" lon="-105.2295867">
  <ele>1583.14</ele>
  <time>2026-08-28T17:56:27Z</time>
  <course>271.92</course>
  <speed>3.202639536382451</speed>
  <fix>3d</fix>
</trkpt>
<trkpt lat="40.0714418" lon="-105.2295803">
  <ele>1583.0</ele>
  <time>2026-08-28T17:56:27Z</time>
  <course>275.2</course>
  <speed>3.13</speed>
  <fix>3d</fix>
</trkpt>
<trkpt lat="40.0714424" lon="-105.2295904">
  <ele>1583.14</ele>
  <time>2026-08-28T17:56:27Z</time>
  <course>269.92</course>
  <speed>3.2400154320620143</speed>
  <fix>3d</fix>
</trkpt>
<trkpt lat="40.0714418" lon="-105.2295803">
  <ele>1583.0</ele>
  <time>2026-08-28T17:56:27Z</time>
  <course>275.2</course>
  <speed>3.13</speed>
  <fix>3d</fix>
</trkpt>
<trkpt lat="40.0714423" lon="-105.2295942">
  <ele>1583.13</ele>
  <time>2026-08-28T17:56:27Z</time>
  <course>268.0</course>
  <speed>3.291230772826482</speed>
  <fix>3d</fix>
</trkpt>
<trkpt lat="40.0714421" lon="-105.2295877">
  <ele>1583.0</ele>
  <time>2026-08-28T17:56:27Z</time>
  <course>271.07</course>
  <speed>3.19</speed>
  <fix>3d</fix>
</trkpt>
<trkpt lat="40.0714422" lon="-105.2295973">
  <ele>1583.13</ele>
  <time>2026-08-28T17:56:27Z</time>
  <course>266.48</course>
  <speed>3.3248759375351136</speed>
  <fix>3d</fix>
</trkpt>
<trkpt lat="40.0714421" lon="-105.2295877">
  <ele>1583.0</ele>
  <time>2026-08-28T17:56:27Z</time>
  <course>271.07</course>
  <speed>3.19</speed>
  <fix>3d</fix>
</trkpt>
<trkpt lat="40.071442" lon="-105.2296012">
  <ele>1583.13</ele>
  <time>2026-08-28T17:56:27Z</time>
  <course>264.66</course>
  <speed>3.3634060117684275</speed>
  <fix>3d</fix>
</trkpt>
<trkpt lat="40.071442" lon="-105.2295953">
  <ele>1583.0</ele>
  <time>2026-08-28T17:56:27Z</time>
  <course>267.19</course>
  <speed>3.28</speed>
  <fix>3d</fix>
</trkpt>
<trkpt lat="40.0714417" lon="-105.2296051">
  <ele>1583.14</ele>
  <time>2026-08-28T17:56:27Z</time>
  <course>262.89</course>
  <speed>3.3948490393535913</speed>
  <fix>3d</fix>
</trkpt>
<trkpt lat="40.071442" lon="-105.2295953">
  <ele>1583.0</ele>
  <time>2026-08-28T17:56:27Z</time>
  <course>267.19</course>
  <speed>3.28</speed>
  <fix>3d</fix>
</trkpt>
<trkpt lat="40.0714412" lon="-105.2296091">
  <ele>1583.14</ele>
  <time>2026-08-28T17:56:27Z</time>
  <course>261.17</course>
  <speed>3.4182597911803017</speed>
  <fix>3d</fix>
</trkpt>
<trkpt lat="40.0714416" lon="-105.2296031">
  <ele>1583.0</ele>
  <time>2026-08-28T17:56:27Z</time>
  <course>263.55</course>
  <speed>3.35</speed>
  <fix>3d</fix>
</trkpt>
<trkpt lat="40.0714407" lon="-105.2296131">
  <ele>1583.14</ele>
  <time>2026-08-28T17:56:27Z</time>
  <course>259.49</course>
  <speed>3.4363934582640563</speed>
  <fix>3d</fix>
</trkpt>
<trkpt lat="40.0714416" lon="-105.2296031">
  <ele>1583.0</ele>
  <time>2026-08-28T17:56:27Z</time>
  <course>263.55</course>
  <speed>3.35</speed>
  <fix>3d</fix>
</trkpt>
<trkpt lat="40.07144" lon="-105.229617">
  <ele>1583.14</ele>
  <time>2026-08-28T17:56:27Z</time>
  <course>257.86</course>
  <speed>3.436277055186325</speed>
  <fix>3d</fix>
</trkpt>
<trkpt lat="40.0714407" lon="-105.229611">
  <ele>1583.0</ele>
  <time>2026-08-28T17:56:27Z</time>
  <course>260.13</course>
  <speed>3.39</speed>
  <fix>3d</fix>
</trkpt>
<trkpt lat="40.0714393" lon="-105.229621">
  <ele>1583.14</ele>
  <time>2026-08-28T17:56:27Z</time>
  <course>256.26</course>
  <speed>3.4173820389298</speed>
  <fix>3d</fix>
</trkpt>
<trkpt lat="40.0714407" lon="-105.229611">
  <ele>1583.0</ele>
  <time>2026-08-28T17:56:27Z</time>
  <course>260.13</course>
  <speed>3.39</speed>
  <fix>3d</fix>
</trkpt>
<trkpt lat="40.0714385" lon="-105.2296248">
  <ele>1583.15</ele>
  <time>2026-08-28T17:56:27Z</time>
  <course>254.71</course>
  <speed>3.388952640566109</speed>
  <fix>3d</fix>
</trkpt>
<trkpt lat="40.0714395" lon="-105.2296188">
  <ele>1583.0</ele>
  <time>2026-08-28T17:56:27Z</time>
  <course>256.89</course>
  <speed>3.38</speed>
  <fix>3d</fix>
</trkpt>
<trkpt lat="40.0714377" lon="-105.2296286">
  <ele>1583.15</ele>
  <time>2026-08-28T17:56:28Z</time>
  <course>253.19</course>
  <speed>3.340898082851376</speed>
  <fix>3d</fix>
</trkpt>
<trkpt lat="40.0714395" lon="-105.2296188">
  <ele>1583.0</ele>
  <time>2026-08-28T17:56:28Z</time>
  <course>256.89</course>
  <speed>3.38</speed>
  <fix>3d</fix>
</trkpt>
<trkpt lat="40.0714365" lon="-105.2296331">
  <ele>1583.15</ele>
  <time>2026-08-28T17:56:28Z</time>
  <course>251.41</course>
  <speed>3.269801217199602</speed>
  <fix>3d</fix>
</trkpt>
<trkpt lat="40.071438" lon="-105.2296264">
  <ele>1583.0</ele>
  <time>2026-08-28T17:56:28Z</time>
  <course>253.82</course>
  <speed>3.31</speed>
  <fix>3d</fix>
</trkpt>
<trkpt lat="40.0714356" lon="-105.2296366">
  <ele>1583.15</ele>
  <time>2026-08-28T17:56:28Z</time>
  <course>249.96</course>
  <speed>3.204699673916419</speed>
  <fix>3d</fix>
</trkpt>
<trkpt lat="40.071438" lon="-105.2296264">
  <ele>1583.0</ele>
  <time>2026-08-28T17:56:28Z</time>
  <course>253.82</course>
  <speed>3.31</speed>
  <fix>3d</fix>
</trkpt>
<trkpt lat="40.0714346" lon="-105.2296401">
  <ele>1583.15</ele>
  <time>2026-08-28T17:56:28Z</time>
  <course>248.56</course>
  <speed>3.134645115479582</speed>
  <fix>3d</fix>
</trkpt>
<trkpt lat="40.0714362" lon="-105.2296337">
  <ele>1583.0</ele>
  <time>2026-08-28T17:56:28Z</time>
  <course>250.91</course>
  <speed>3.2</speed>
  <fix>3d</fix>
</trkpt>
<trkpt lat="40.0714335" lon="-105.2296434">
  <ele>1583.15</ele>
  <time>2026-08-28T17:56:28Z</time>
  <course>247.17</course>
  <speed>3.07001628660175</speed>
  <fix>3d</fix>
</trkpt>
<trkpt lat="40.0714362" lon="-105.2296337">
  <ele>1583.0</ele>
  <time>2026-08-28T17:56:28Z</time>
  <course>250.91</course>
  <speed>3.2</speed>
  <fix>3d</fix>
</trkpt>
<trkpt lat="40.0714324" lon="-105.2296467">
  <ele>1583.15</ele>
  <time>2026-08-28T17:56:28Z</time>
  <course>245.82</course>
  <speed>3.012540456159884</speed>
  <fix>3d</fix>
</trkpt>
<trkpt lat="40.0714342" lon="-105.2296406">
  <ele>1583.0</ele>
  <time>2026-08-28T17:56:28Z</time>
  <course>248.13</course>
  <speed>3.07</speed>
  <fix>3d</fix>
</trkpt>
<trkpt lat="40.0714313" lon="-105.2296498">
  <ele>1583.14</ele>
  <time>2026-08-28T17:56:28Z</time>
  <course>244.51</course>
  <speed>2.956653513687392</speed>
  <fix>3d</fix>
</trkpt>
<trkpt lat="40.0714342" lon="-105.2296406">
  <ele>1583.0</ele>
  <time>2026-08-28T17:56:28Z</time>
  <course>248.13</course>
  <speed>3.07</speed>
  <fix>3d</fix>
</trkpt>
<trkpt lat="40.0714301" lon="-105.2296529">
  <ele>1583.14</ele>
  <time>2026-08-28T17:56:28Z</time>
  <course>243.23</course>
  <speed>2.8979475495598606</speed>
  <fix>3d</fix>
</trkpt>
<trkpt lat="40.071432" lon="-105.2296471">
  <ele>1583.0</ele>
  <time>2026-08-28T17:56:28Z</time>
  <course>245.49</course>
  <speed>2.95</speed>
  <fix>3d</fix>
</trkpt>
<trkpt lat="40.0714289" lon="-105.2296558">
  <ele>1583.14</ele>
  <time>2026-08-28T17:56:28Z</time>
  <course>242.0</course>
  <speed>2.849438541186667</speed>
  <fix>3d</fix>
</trkpt>
<trkpt lat="40.071432" lon="-105.2296471">
  <ele>1583.0</ele>
  <time>2026-08-28T17:56:28Z</time>
  <course>245.49</course>
  <speed>2.95</speed>
  <fix>3d</fix>
</trkpt>
<trkpt lat="40.0714277" lon="-105.2296587">
  <ele>1583.14</ele>
  <time>2026-08-28T17:56:28Z</time>
  <course>240.81</course>
  <speed>2.802159881234474</speed>
  <fix>3d</fix>
</trkpt>
<trkpt lat="40.0714298" lon="-105.2296533">
  <ele>1583.0</ele>
  <time>2026-08-28T17:56:28Z</time>
  <course>243.01</course>
  <speed>2.85</speed>
  <fix>3d</fix>
</trkpt>
<trkpt lat="40.0714265" lon="-105.2296615">
  <ele>1583.14</ele>
  <time>2026-08-28T17:56:28Z</time>
  <course>239.66</course>
  <speed>2.7648146411649375</speed>
  <fix>3d</fix>
</trkpt>
<trkpt lat="40.0714298" lon="-105.2296533">
  <ele>1583.0</ele>
  <time>2026-08-28T17:56:28Z</time>
  <course>243.01</course>
  <speed>2.85</speed>
  <fix>3d</fix>
</trkpt>
<trkpt lat="40.0714252" lon="-105.2296642">
  <ele>1583.14</ele>
  <time>2026-08-28T17:56:28Z</time>
  <course>238.57</course>
  <speed>2.7371518043396863</speed>
  <fix>3d</fix>
</trkpt>
<trkpt lat="40.0714274" lon="-105.2296591">
  <ele>1583.0</ele>
  <time>2026-08-28T17:56:28Z</time>
  <course>240.69</course>
  <speed>2.78</speed>
  <fix>3d</fix>
</trkpt>
<trkpt lat="40.0714239" lon="-105.2296669">
  <ele>1583.14</ele>
  <time>2026-08-28T17:56:28Z</time>
  <course>237.51</course>
  <speed>2.710461215365385</speed>
  <fix>3d</fix>
</trkpt>
<trkpt lat="40.0714274" lon="-105.2296591">
  <ele>1583.0</ele>
  <time>2026-08-28T17:56:28Z</time>
  <course>240.69</course>
  <speed>2.78</speed>
  <fix>3d</fix>
</trkpt>
<trkpt lat="40.0714229" lon="-105.229669">
  <ele>1583.14</ele>
  <time>2026-08-28T17:56:28Z</time>
  <course>236.71</course>
  <speed>2.687638368531005</speed>
  <fix>3d</fix>
</trkpt>
<trkpt lat="40.0714249" lon="-105.2296647">
  <ele>1583.0</ele>
  <time>2026-08-28T17:56:28Z</time>
  <course>238.55</course>
  <speed>2.72</speed>
  <fix>3d</fix>
</trkpt>
<trkpt lat="40.0714216" lon="-105.2296715">
  <ele>1583.13</ele>
  <time>2026-08-28T17:56:28Z</time>
  <course>235.75</course>
  <speed>2.6627053911388696</speed>
  <fix>3d</fix>
</trkpt>
<trkpt lat="40.0714249" lon="-105.2296647">
  <ele>1583.0</ele>
  <time>2026-08-28T17:56:28Z</time>
  <course>238.55</course>
  <speed>2.72</speed>
  <fix>3d</fix>
</trkpt>
<trkpt lat="40.0714202" lon="-105.2296741">
  <ele>1583.13</ele>
  <time>2026-08-28T17:56:28Z</time>
  <course>234.84</course>
  <speed>2.641211843075068</speed>
  <fix>3d</fix>
</trkpt>
<trkpt lat="40.0714223" lon="-105.22967">
  <ele>1583.0</ele>
  <time>2026-08-28T17:56:28Z</time>
  <course>236.57</course>
  <speed>2.67</speed>
  <fix>3d</fix>
</trkpt>
<trkpt lat="40.0714189" lon="-105.2296766">
  <ele>1583.13</ele>
  <time>2026-08-28T17:56:28Z</time>
  <course>233.97</course>
  <speed>2.6203053257206492</speed>
  <fix>3d</fix>
</trkpt>
<trkpt lat="40.0714223" lon="-105.22967">
  <ele>1583.0</ele>
  <time>2026-08-28T17:56:28Z</time>
  <course>236.57</course>
  <speed>2.67</speed>
  <fix>3d</fix>
</trkpt>
<trkpt lat="40.0714175" lon="-105.229679">
  <ele>1583.13</ele>
  <time>2026-08-28T17:56:28Z</time>
  <course>233.16</course>
  <speed>2.6</speed>
  <fix>3d</fix>
</trkpt>
<trkpt lat="40.0714196" lon="-105.2296752">
  <ele>1583.0</ele>
  <time>2026-08-28T17:56:28Z</time>
  <course>234.77</course>
  <speed>2.64</speed>
  <fix>3d</fix>
</trkpt>
<trkpt lat="40.071416" lon="-105.2296815">
  <ele>1583.13</ele>
  <time>2026-08-28T17:56:28Z</time>
  <course>232.39</course>
  <speed>2.5803100588882724</speed>
  <fix>3d</fix>
</trkpt>
<trkpt lat="40.0714196" lon="-105.2296752">
  <ele>1583.0</ele>
  <time>2026-08-28T17:56:28Z</time>
  <course>234.77</course>
  <speed>2.64</speed>
  <fix>3d</fix>
</trkpt>
<trkpt lat="40.0714146" lon="-105.2296839">
  <ele>1583.13</ele>
  <time>2026-08-28T17:56:28Z</time>
  <course>231.67</course>
  <speed>2.569065978132909</speed>
  <fix>3d</fix>
</trkpt>
<trkpt lat="40.0714169" lon="-105.2296802">
  <ele>1583.0</ele>
  <time>2026-08-28T17:56:28Z</time>
  <course>233.16</course>
  <speed>2.6</speed>
  <fix>3d</fix>
</trkpt>
<trkpt lat="40.0714132" lon="-105.2296862">
  <ele>1583.13</ele>
  <time>2026-08-28T17:56:28Z</time>
  <course>230.99</course>
  <speed>2.551960031034969</speed>
  <fix>3d</fix>
</trkpt>
<trkpt lat="40.0714169" lon="-105.2296802">
  <ele>1583.0</ele>
  <time>2026-08-28T17:56:28Z</time>
  <course>233.16</course>
  <speed>2.6</speed>
  <fix>3d</fix>
</trkpt>
<trkpt lat="40.0714117" lon="-105.2296885">
  <ele>1583.13</ele>
  <time>2026-08-28T17:56:28Z</time>
  <course>230.35</course>
  <speed>2.5415349692656206</speed>
  <fix>3d</fix>
</trkpt>
<trkpt lat="40.071414" lon="-105.229685">
  <ele>1583.0</ele>
  <time>2026-08-28T17:56:28Z</time>
  <course>231.74</course>
  <speed>2.58</speed>
  <fix>3d</fix>
</trkpt>
<trkpt lat="40.07141" lon="-105.2296913">
  <ele>1583.13</ele>
  <time>2026-08-28T17:56:28Z</time>
  <course>229.65</course>
  <speed>2.525074256333861</speed>
  <fix>3d</fix>
</trkpt>
<trkpt lat="40.071414" lon="-105.229685">
  <ele>1583.0</ele>
  <time>2026-08-28T17:56:28Z</time>
  <course>231.74</course>
  <speed>2.58</speed>
  <fix>3d</fix>
</trkpt>
<trkpt lat="40.0714085" lon="-105.2296935">
  <ele>1583.13</ele>
  <time>2026-08-28T17:56:28Z</time>
  <course>229.11</course>
  <speed>2.5089041432466086</speed>
  <fix>3d</fix>
</trkpt>
<trkpt lat="40.0714111" lon="-105.2296897">
  <ele>1583.0</ele>
  <time>2026-08-28T17:56:28Z</time>
  <course>230.5</course>
  <speed>2.55</speed>
  <fix>3d</fix>
</trkpt>
<trkpt lat="40.071407" lon="-105.2296958">
  <ele>1583.13</ele>
  <time>2026-08-28T17:56:28Z</time>
  <course>228.62</course>
  <speed>2.5004999500099974</speed>
  <fix>3d</fix>
</trkpt>
<trkpt lat="40.0714111" lon="-105.2296897">
  <ele>1583.0</ele>
  <time>2026-08-28T17:56:28Z</time>
  <course>230.5</course>
  <speed>2.55</speed>
  <fix>3d</fix>
</trkpt>
<trkpt lat="40.0714055" lon="-105.229698">
  <ele>1583.13</ele>
  <time>2026-08-28T17:56:28Z</time>
  <course>228.17</course>
  <speed>2.4855784035109414</speed>
  <fix>3d</fix>
</trkpt>
<trkpt lat="40.0714081" lon="-105.2296943">
  <ele>1583.0</ele>
  <time>2026-08-28T17:56:28Z</time>
  <course>229.47</course>
  <speed>2.53</speed>
  <fix>3d</fix>
</trkpt>
<trkpt lat="40.071404" lon="-105.2297002">
  <ele>1583.13</ele>
  <time>2026-08-28T17:56:28Z</time>
  <course>227.78</course>
  <speed>2.4774583750287307</speed>
  <fix>3d</fix>
</trkpt>
<trkpt lat="40.0714081" lon="-105.2296943">
  <ele>1583.0</ele>
  <time>2026-08-28T17:56:28Z</time>
  <course>229.47</course>
  <speed>2.53</speed>
  <fix>3d</fix>
</trkpt>
<trkpt lat="40.0714025" lon="-105.2297023">
  <ele>1583.12</ele>
  <time>2026-08-28T17:56:28Z</time>
  <course>227.43</course>
  <speed>2.4627220712049502</speed>
  <fix>3d</fix>
</trkpt>
<trkpt lat="40.0714052" lon="-105.2296988">
  <ele>1583.0</ele>
  <time>2026-08-28T17:56:28Z</time>
  <course>228.62</course>
  <speed>2.51</speed>
  <fix>3d</fix>
</trkpt>
<trkpt lat="40.071401" lon="-105.2297045">
  <ele>1583.12</ele>
  <time>2026-08-28T17:56:28Z</time>
  <course>227.12</course>
  <speed>2.4480604567698077</speed>
  <fix>3d</fix>
</trkpt>
<trkpt lat="40.0714052" lon="-105.2296988">
  <ele>1583.0</ele>
  <time>2026-08-28T17:56:28Z</time>
  <course>228.62</course>
  <speed>2.51</speed>
  <fix>3d</fix>
</trkpt>
<trkpt lat="40.0713995" lon="-105.2297066">
  <ele>1583.12</ele>
  <time>2026-08-28T17:56:28Z</time>
  <course>226.87</course>
  <speed>2.4407580789582566</speed>
  <fix>3d</fix>
</trkpt>
<trkpt lat="40.0714021" lon="-105.2297031">
  <ele>1583.0</ele>
  <time>2026-08-28T17:56:28Z</time>
  <course>227.96</course>
  <speed>2.49</speed>
  <fix>3d</fix>
</trkpt>
<trkpt lat="40.071398" lon="-105.2297087">
  <ele>1583.12</ele>
  <time>2026-08-28T17:56:28Z</time>
  <course>226.67</course>
  <speed>2.4334748817277734</speed>
  <fix>3d</fix>
</trkpt>
<trkpt lat="40.0714021" lon="-105.2297031">
  <ele>1583.0</ele>
  <time>2026-08-28T17:56:28Z</time>
  <course>227.96</course>
  <speed>2.49</speed>
  <fix>3d</fix>
</trkpt>
<trkpt lat="40.0713966" lon="-105.2297108">
  <ele>1583.12</ele>
  <time>2026-08-28T17:56:28Z</time>
  <course>226.51</course>
  <speed>2.426211037811839</speed>
  <fix>3d</fix>
</trkpt>
<trkpt lat="40.0713992" lon="-105.2297075">
  <ele>1583.0</ele>
  <time>2026-08-28T17:56:28Z</time>
  <course>227.48</course>
  <speed>2.48</speed>
  <fix>3d</fix>
</trkpt>
<trkpt lat="40.0713951" lon="-105.2297129">
  <ele>1583.12</ele>
  <time>2026-08-28T17:56:28Z</time>
  <course>226.4</course>
  <speed>2.426211037811839</speed>
  <fix>3d</fix>
</trkpt>
<trkpt lat="40.0713992" lon="-105.2297075">
  <ele>1583.0</ele>
  <time>2026-08-28T17:56:28Z</time>
  <course>227.48</course>
  <speed>2.48</speed>
  <fix>3d</fix>
</trkpt>
<trkpt lat="40.0713939" lon="-105.2297146">
  <ele>1583.12</ele>
  <time>2026-08-28T17:56:28Z</time>
  <course>226.35</course>
  <speed>2.4189667215569544</speed>
  <fix>3d</fix>
</trkpt>
<trkpt lat="40.0713961" lon="-105.2297117">
  <ele>1583.0</ele>
  <time>2026-08-28T17:56:28Z</time>
  <course>227.18</course>
  <speed>2.47</speed>
  <fix>3d</fix>
</trkpt>
<trkpt lat="40.0713924" lon="-105.2297167">
  <ele>1583.13</ele>
  <time>2026-08-28T17:56:28Z</time>
  <course>226.33</course>
  <speed>2.4189667215569544</speed>
  <fix>3d</fix>
</trkpt>
<trkpt lat="40.0713961" lon="-105.2297117">
  <ele>1583.0</ele>
  <time>2026-08-28T17:56:28Z</time>
  <course>227.18</course>
  <speed>2.47</speed>
  <fix>3d</fix>
</trkpt>
<trkpt lat="40.0713909" lon="-105.2297187">
  <ele>1583.13</ele>
  <time>2026-08-28T17:56:28Z</time>
  <course>226.35</course>
  <speed>2.426211037811839</speed>
  <fix>3d</fix>
</trkpt>
<trkpt lat="40.0713932" lon="-105.229716">
  <ele>1583.0</ele>
  <time>2026-08-28T17:56:28Z</time>
  <course>227.05</course>
  <speed>2.47</speed>
  <fix>3d</fix>
</trkpt>
<trkpt lat="40.0713894" lon="-105.2297209">
  <ele>1583.13</ele>
  <time>2026-08-28T17:56:28Z</time>
  <course>226.41</course>
  <speed>2.419338752634695</speed>
  <fix>3d</fix>
</trkpt>
<trkpt lat="40.0713932" lon="-105.229716">
  <ele>1583.0</ele>
  <time>2026-08-28T17:56:28Z</time>
  <course>227.05</course>
  <speed>2.47</speed>
  <fix>3d</fix>
</trkpt>
<trkpt lat="40.0713879" lon="-105.229723">
  <ele>1583.13</ele>
  <time>2026-08-28T17:56:28Z</time>
  <course>226.51</course>
  <speed>2.4266231681083075</speed>
  <fix>3d</fix>
</trkpt>
<trkpt lat="40.0713901" lon="-105.2297203">
  <ele>1583.0</ele>
  <time>2026-08-28T17:56:28Z</time>
  <course>227.08</course>
  <speed>2.47</speed>
  <fix>3d</fix>
</trkpt>
<trkpt lat="40.0713864" lon="-105.2297251">
  <ele>1583.14</ele>
  <time>2026-08-28T17:56:28Z</time>
  <course>226.65</course>
  <speed>2.433926868252208</speed>
  <fix>3d</fix>
</trkpt>
<trkpt lat="40.0713901" lon="-105.2297203">
  <ele>1583.0</ele>
  <time>2026-08-28T17:56:28Z</time>
  <course>227.08</course>
  <speed>2.47</speed>
  <fix>3d</fix>
</trkpt>
<trkpt lat="40.0713849" lon="-105.2297273">
  <ele>1583.14</ele>
  <time>2026-08-28T17:56:28Z</time>
  <course>226.82</course>
  <speed>2.4412496799794976</speed>
  <fix>3d</fix>
</trkpt>
<trkpt lat="40.071387" lon="-105.2297246">
  <ele>1583.0</ele>
  <time>2026-08-28T17:56:28Z</time>
  <course>227.26</course>
  <speed>2.48</speed>
  <fix>3d</fix>
</trkpt>
<trkpt lat="40.0713834" lon="-105.2297295">
  <ele>1583.14</ele>
  <time>2026-08-28T17:56:28Z</time>
  <course>227.02</course>
  <speed>2.4418230894149557</speed>
  <fix>3d</fix>
</trkpt>
<trkpt lat="40.071387" lon="-105.2297246">
  <ele>1583.0</ele>
  <time>2026-08-28T17:56:28Z</time>
  <course>227.26</course>
  <speed>2.48</speed>
  <fix>3d</fix>
</trkpt>
<trkpt lat="40.0713819" lon="-105.2297317">
  <ele>1583.14</ele>
  <time>2026-08-28T17:56:28Z</time>
  <course>227.23</course>
  <speed>2.4424782496472717</speed>
  <fix>3d</fix>
</trkpt>
<trkpt lat="40.0713841" lon="-105.2297289">
  <ele>1583.0</ele>
  <time>2026-08-28T17:56:28Z</time>
  <course>227.59</course>
  <speed>2.49</speed>
  <fix>3d</fix>
</trkpt>
<trkpt lat="40.0713804" lon="-105.2297339">
  <ele>1583.14</ele>
  <time>2026-08-28T17:56:28Z</time>
  <course>227.45</course>
  <speed>2.4432150949108022</speed>
  <fix>3d</fix>
</trkpt>
<trkpt lat="40.0713841" lon="-105.2297289">
  <ele>1583.0</ele>
  <time>2026-08-28T17:56:28Z</time>
  <course>227.59</course>
  <speed>2.49</speed>
  <fix>3d</fix>
</trkpt>
<trkpt lat="40.0713786" lon="-105.2297365">
  <ele>1583.14</ele>
  <time>2026-08-28T17:56:28Z</time>
  <course>227.72</course>
  <speed>2.422436789681002</speed>
  <fix>3d</fix>
</trkpt>
<trkpt lat="40.071381" lon="-105.2297332">
  <ele>1583.0</ele>
  <time>2026-08-28T17:56:28Z</time>
  <course>228.01</course>
  <speed>2.48</speed>
  <fix>3d</fix>
</trkpt>
<trkpt lat="40.0713772" lon="-105.2297387">
  <ele>1583.14</ele>
  <time>2026-08-28T17:56:28Z</time>
  <course>227.96</course>
  <speed>2.3950782868207043</speed>
  <fix>3d</fix>
</trkpt>
<trkpt lat="40.071381" lon="-105.2297332">
  <ele>1583.0</ele>
  <time>2026-08-28T17:56:28Z</time>
  <course>228.01</course>
  <speed>2.48</speed>
  <fix>3d</fix>
</trkpt>
<trkpt lat="40.0713758" lon="-105.2297408">
  <ele>1583.14</ele>
  <time>2026-08-28T17:56:28Z</time>
  <course>228.21</course>
  <speed>2.353720459187964</speed>
  <fix>3d</fix>
</trkpt>
<trkpt lat="40.0713781" lon="-105.2297375">
  <ele>1583.0</ele>
  <time>2026-08-28T17:56:28Z</time>
  <course>228.51</course>
  <speed>2.44</speed>
  <fix>3d</fix>
</trkpt>
<trkpt lat="40.0713744" lon="-105.229743">
  <ele>1583.15</ele>
  <time>2026-08-28T17:56:28Z</time>
  <course>228.47</course>
  <speed>2.290785891348207</speed>
  <fix>3d</fix>
</trkpt>
<trkpt lat="40.0713781" lon="-105.2297375">
  <ele>1583.0</ele>
  <time>2026-08-28T17:56:28Z</time>
  <course>228.51</course>
  <speed>2.44</speed>
  <fix>3d</fix>
</trkpt>
<trkpt lat="40.0713731" lon="-105.229745">
  <ele>1583.15</ele>
  <time>2026-08-28T17:56:28Z</time>
  <course>228.74</course>
  <speed>2.221463481581455</speed>
  <fix>3d</fix>
</trkpt>
<trkpt lat="40.0713753" lon="-105.2297418">
  <ele>1583.0</ele>
  <time>2026-08-28T17:56:28Z</time>
  <course>229.1</course>
  <speed>2.35</speed>
  <fix>3d</fix>
</trkpt>
<trkpt lat="40.0713718" lon="-105.229747">
  <ele>1583.15</ele>
  <time>2026-08-28T17:56:28Z</time>
  <course>229.02</course>
  <speed>2.144621178670023</speed>
  <fix>3d</fix>
</trkpt>
<trkpt lat="40.0713753" lon="-105.2297418">
  <ele>1583.0</ele>
  <time>2026-08-28T17:56:28Z</time>
  <course>229.1</course>
  <speed>2.35</speed>
  <fix>3d</fix>
</trkpt>
<trkpt lat="40.0713706" lon="-105.2297489">
  <ele>1583.15</ele>
  <time>2026-08-28T17:56:28Z</time>
  <course>229.31</course>
  <speed>2.039730374338726</speed>
  <fix>3d</fix>
</trkpt>
<trkpt lat="40.0713725" lon="-105.2297458">
  <ele>1583.0</ele>
  <time>2026-08-28T17:56:28Z</time>
  <course>229.76</course>
  <speed>2.21</speed>
  <fix>3d</fix>
</trkpt>
<trkpt lat="40.0713694" lon="-105.2297508">
  <ele>1583.16</ele>
  <time>2026-08-28T17:56:28Z</time>
  <course>229.61</course>
  <speed>1.9412624758130983</speed>
  <fix>3d</fix>
</trkpt>
<trkpt lat="40.0713725" lon="-105.2297458">
  <ele>1583.0</ele>
  <time>2026-08-28T17:56:28Z</time>
  <course>229.76</course>
  <speed>2.21</speed>
  <fix>3d</fix>
</trkpt>
<trkpt lat="40.0713684" lon="-105.2297525">
  <ele>1583.16</ele>
  <time>2026-08-28T17:56:28Z</time>
  <course>229.91</course>
  <speed>1.8225805880673698</speed>
  <fix>3d</fix>
</trkpt>
<trkpt lat="40.0713701" lon="-105.2297497">
  <ele>1583.0</ele>
  <time>2026-08-28T17:56:28Z</time>
  <course>230.51</course>
  <speed>2.02</speed>
  <fix>3d</fix>
</trkpt>
<trkpt lat="40.0713674" lon="-105.2297542">
  <ele>1583.16</ele>
  <time>2026-08-28T17:56:28Z</time>
  <course>230.23</course>
  <speed>1.710263137648707</speed>
  <fix>3d</fix>
</trkpt>
<trkpt lat="40.0713701" lon="-105.2297497">
  <ele>1583.0</ele>
  <time>2026-08-28T17:56:28Z</time>
  <course>230.51</course>
  <speed>2.02</speed>
  <fix>3d</fix>
</trkpt>
<trkpt lat="40.0713665" lon="-105.2297557">
  <ele>1583.15</ele>
  <time>2026-08-28T17:56:28Z</time>
  <course>230.58</course>
  <speed>1.5840454538932902</speed>
  <fix>3d</fix>
</trkpt>
<trkpt lat="40.0713679" lon="-105.2297532">
  <ele>1583.0</ele>
  <time>2026-08-28T17:56:28Z</time>
  <course>231.36</course>
  <speed>1.8</speed>
  <fix>3d</fix>
</trkpt>
<trkpt lat="40.0713658" lon="-105.2297569">
  <ele>1583.15</ele>
  <time>2026-08-28T17:56:28Z</time>
  <course>230.87</course>
  <speed>1.4860013458944108</speed>
  <fix>3d</fix>
</trkpt>
<trkpt lat="40.0713679" lon="-105.2297532">
  <ele>1583.0</ele>
  <time>2026-08-28T17:56:28Z</time>
  <course>231.36</course>
  <speed>1.8</speed>
  <fix>3d</fix>
</trkpt>
<trkpt lat="40.071365" lon="-105.2297582">
  <ele>1583.15</ele>
  <time>2026-08-28T17:56:28Z</time>
  <course>231.26</course>
  <speed>1.3660527076214886</speed>
  <fix>3d</fix>
</trkpt>
<trkpt lat="40.0713661" lon="-105.2297563">
  <ele>1583.0</ele>
  <time>2026-08-28T17:56:28Z</time>
  <course>232.35</course>
  <speed>1.57</speed>
  <fix>3d</fix>
</trkpt>
<trkpt lat="40.0713643" lon="-105.2297595">
  <ele>1583.14</ele>
  <time>2026-08-28T17:56:28Z</time>
  <course>231.66</course>
  <speed>1.254312560727987</speed>
  <fix>3d</fix>
</trkpt>
<trkpt lat="40.0713661" lon="-105.2297563">
  <ele>1583.0</ele>
  <time>2026-08-28T17:56:28Z</time>
  <course>232.35</course>
  <speed>1.57</speed>
  <fix>3d</fix>
</trkpt>
<trkpt lat="40.0713637" lon="-105.2297607">
  <ele>1583.14</ele>
  <time>2026-08-28T17:56:28Z</time>
  <course>232.08</course>
  <speed>1.1567627241573788</speed>
  <fix>3d</fix>
</trkpt>
<trkpt lat="40.0713645" lon="-105.229759">
  <ele>1583.0</ele>
  <time>2026-08-28T17:56:28Z</time>
  <course>233.51</course>
  <speed>1.34</speed>
  <fix>3d</fix>
</trkpt>
<trkpt lat="40.0713631" lon="-105.2297618">
  <ele>1583.14</ele>
  <time>2026-08-28T17:56:28Z</time>
  <course>232.52</course>
  <speed>1.0594810050208545</speed>
  <fix>3d</fix>
</trkpt>
<trkpt lat="40.0713645" lon="-105.229759">
  <ele>1583.0</ele>
  <time>2026-08-28T17:56:28Z</time>
  <course>233.51</course>
  <speed>1.34</speed>
  <fix>3d</fix>
</trkpt>
<trkpt lat="40.0713626" lon="-105.2297628">
  <ele>1583.14</ele>
  <time>2026-08-28T17:56:28Z</time>
  <course>232.98</course>
  <speed>0.9763708311906906</speed>
  <fix>3d</fix>
</trkpt>
<trkpt lat="40.0713632" lon="-105.2297614">
  <ele>1583.0</ele>
  <time>2026-08-28T17:56:28Z</time>
  <course>234.8</course>
  <speed>1.14</speed>
  <fix>3d</fix>
</trkpt>
<trkpt lat="40.0713621" lon="-105.2297637">
  <ele>1583.14</ele>
  <time>2026-08-28T17:56:28Z</time>
  <course>233.45</course>
  <speed>0.8988882021697693</speed>
  <fix>3d</fix>
</trkpt>
<trkpt lat="40.0713632" lon="-105.2297614">
  <ele>1583.0</ele>
  <time>2026-08-28T17:56:28Z</time>
  <course>234.8</course>
  <speed>1.14</speed>
  <fix>3d</fix>
</trkpt>
<trkpt lat="40.0713616" lon="-105.2297646">
  <ele>1583.14</ele>
  <time>2026-08-28T17:56:28Z</time>
  <course>233.93</course>
  <speed>0.8300602387778854</speed>
  <fix>3d</fix>
</trkpt>
<trkpt lat="40.0713621" lon="-105.2297634">
  <ele>1583.0</ele>
  <time>2026-08-28T17:56:28Z</time>
  <course>236.22</course>
  <speed>0.98</speed>
  <fix>3d</fix>
</trkpt>
<trkpt lat="40.0713612" lon="-105.2297655">
  <ele>1583.15</ele>
  <time>2026-08-28T17:56:28Z</time>
  <course>234.42</course>
  <speed>0.7752418977325722</speed>
  <fix>3d</fix>
</trkpt>
<trkpt lat="40.0713621" lon="-105.2297634">
  <ele>1583.0</ele>
  <time>2026-08-28T17:56:28Z</time>
  <course>236.22</course>
  <speed>0.98</speed>
  <fix>3d</fix>
</trkpt>
<trkpt lat="40.0713609" lon="-105.2297662">
  <ele>1583.15</ele>
  <time>2026-08-28T17:56:28Z</time>
  <course>234.93</course>
  <speed>0.7256031973468694</speed>
  <fix>3d</fix>
</trkpt>
<trkpt lat="40.0713612" lon="-105.2297653">
  <ele>1583.0</ele>
  <time>2026-08-28T17:56:28Z</time>
  <course>237.72</course>
  <speed>0.85</speed>
  <fix>3d</fix>
</trkpt>
<trkpt lat="40.0713605" lon="-105.2297671">
  <ele>1583.14</ele>
  <time>2026-08-28T17:56:28Z</time>
  <course>235.55</course>
  <speed>0.6711929677819934</speed>
  <fix>3d</fix>
</trkpt>
<trkpt lat="40.0713612" lon="-105.2297653">
  <ele>1583.0</ele>
  <time>2026-08-28T17:56:28Z</time>
  <course>237.72</course>
  <speed>0.85</speed>
  <fix>3d</fix>
</trkpt>
<trkpt lat="40.0713602" lon="-105.2297679">
  <ele>1583.15</ele>
  <time>2026-08-28T17:56:28Z</time>
  <course>236.08</course>
  <speed>0.6306346010171024</speed>
  <fix>3d</fix>
</trkpt>
<trkpt lat="40.0713604" lon="-105.2297669">
  <ele>1583.0</ele>
  <time>2026-08-28T17:56:28Z</time>
  <course>239.28</course>
  <speed>0.76</speed>
  <fix>3d</fix>
</trkpt>
<trkpt lat="40.0713599" lon="-105.2297685">
  <ele>1583.15</ele>
  <time>2026-08-28T17:56:28Z</time>
  <course>236.62</course>
  <speed>0.5993329625508679</speed>
  <fix>3d</fix>
</trkpt>
<trkpt lat="40.0713604" lon="-105.2297669">
  <ele>1583.0</ele>
  <time>2026-08-28T17:56:28Z</time>
  <course>239.28</course>
  <speed>0.76</speed>
  <fix>3d</fix>
</trkpt>
<trkpt lat="40.0713596" lon="-105.2297692">
  <ele>1583.15</ele>
  <time>2026-08-28T17:56:28Z</time>
  <course>237.17</course>
  <speed>0.563648826841678</speed>
  <fix>3d</fix>
</trkpt>
<trkpt lat="40.0713597" lon="-105.2297684">
  <ele>1583.0</ele>
  <time>2026-08-28T17:56:28Z</time>
  <course>240.89</course>
  <speed>0.68</speed>
  <fix>3d</fix>
</trkpt>
<trkpt lat="40.0713594" lon="-105.2297698">
  <ele>1583.15</ele>
  <time>2026-08-28T17:56:28Z</time>
  <course>237.73</course>
  <speed>0.5371219600798314</speed>
  <fix>3d</fix>
</trkpt>
<trkpt lat="40.0713597" lon="-105.2297684">
  <ele>1583.0</ele>
  <time>2026-08-28T17:56:28Z</time>
  <course>240.89</course>
  <speed>0.68</speed>
  <fix>3d</fix>
</trkpt>
<trkpt lat="40.0713592" lon="-105.2297704">
  <ele>1583.15</ele>
  <time>2026-08-28T17:56:28Z</time>
  <course>238.31</course>
  <speed>0.5107837115648853</speed>
  <fix>3d</fix>
</trkpt>
<trkpt lat="40.0713592" lon="-105.2297697">
  <ele>1583.0</ele>
  <time>2026-08-28T17:56:28Z</time>
  <course>242.58</course>
  <speed>0.61</speed>
  <fix>3d</fix>
</trkpt>
<trkpt lat="40.071359" lon="-105.229771">
  <ele>1583.16</ele>
  <time>2026-08-28T17:56:28Z</time>
  <course>238.9</course>
  <speed>0.48466483264210536</speed>
  <fix>3d</fix>
</trkpt>
<trkpt lat="40.0713592" lon="-105.2297697">
  <ele>1583.0</ele>
  <time>2026-08-28T17:56:28Z</time>
  <course>242.58</course>
  <speed>0.61</speed>
  <fix>3d</fix>
</trkpt>
<trkpt lat="40.0713588" lon="-105.2297716">
  <ele>1583.16</ele>
  <time>2026-08-28T17:56:28Z</time>
  <course>239.5</course>
  <speed>0.45880278987817846</speed>
  <fix>3d</fix>
</trkpt>
<trkpt lat="40.0713588" lon="-105.229771">
  <ele>1583.0</ele>
  <time>2026-08-28T17:56:28Z</time>
  <course>244.35</course>
  <speed>0.56</speed>
  <fix>3d</fix>
</trkpt>
<trkpt lat="40.0713586" lon="-105.2297721">
  <ele>1583.16</ele>
  <time>2026-08-28T17:56:28Z</time>
  <course>240.11</course>
  <speed>0.4332435804486894</speed>
  <fix>3d</fix>
</trkpt>
<trkpt lat="40.0713588" lon="-105.229771">
  <ele>1583.0</ele>
  <time>2026-08-28T17:56:28Z</time>
  <course>244.35</course>
  <speed>0.56</speed>
  <fix>3d</fix>
</trkpt>
<trkpt lat="40.0713585" lon="-105.2297726">
  <ele>1583.16</ele>
  <time>2026-08-28T17:56:28Z</time>
  <course>240.73</course>
  <speed>0.4080441152620633</speed>
  <fix>3d</fix>
</trkpt>
<trkpt lat="40.0713583" lon="-105.229772">
  <ele>1583.0</ele>
  <time>2026-08-28T17:56:28Z</time>
  <course>246.27</course>
  <speed>0.5</speed>
  <fix>3d</fix>
</trkpt>
<trkpt lat="40.0713583" lon="-105.2297731">
  <ele>1583.16</ele>
  <time>2026-08-28T17:56:28Z</time>
  <course>241.35</course>
  <speed>0.383275357934736</speed>
  <fix>3d</fix>
</trkpt>
<trkpt lat="40.0713583" lon="-105.229772">
  <ele>1583.0</ele>
  <time>2026-08-28T17:56:28Z</time>
  <course>246.27</course>
  <speed>0.5</speed>
  <fix>3d</fix>
</trkpt>
<trkpt lat="40.0713582" lon="-105.2297735">
  <ele>1583.16</ele>
  <time>2026-08-28T17:56:28Z</time>
  <course>241.85</course>
  <speed>0.36138621999185305</speed>
  <fix>3d</fix>
</trkpt>
<trkpt lat="40.071358" lon="-105.229773">
  <ele>1583.0</ele>
  <time>2026-08-28T17:56:28Z</time>
  <course>248.39</course>
  <speed>0.45</speed>
  <fix>3d</fix>
</trkpt>
<trkpt lat="40.0713581" lon="-105.2297739">
  <ele>1583.16</ele>
  <time>2026-08-28T17:56:28Z</time>
  <course>242.47</course>
  <speed>0.33734255586865997</speed>
  <fix>3d</fix>
</trkpt>
<trkpt lat="40.071358" lon="-105.229773">
  <ele>1583.0</ele>
  <time>2026-08-28T17:56:28Z</time>
  <course>248.39</course>
  <speed>0.45</speed>
  <fix>3d</fix>
</trkpt>
<trkpt lat="40.071358" lon="-105.2297743">
  <ele>1583.16</ele>
  <time>2026-08-28T17:56:28Z</time>
  <course>243.09</course>
  <speed>0.31400636936215165</speed>
  <fix>3d</fix>
</trkpt>
<trkpt lat="40.0713578" lon="-105.229774">
  <ele>1583.0</ele>
  <time>2026-08-28T17:56:28Z</time>
  <course>250.78</course>
  <speed>0.39</speed>
  <fix>3d</fix>
</trkpt>
<trkpt lat="40.0713579" lon="-105.2297747">
  <ele>1583.15</ele>
  <time>2026-08-28T17:56:28Z</time>
  <course>243.71</course>
  <speed>0.2816025568065745</speed>
  <fix>3d</fix>
</trkpt>
<trkpt lat="40.0713578" lon="-105.229774">
  <ele>1583.0</ele>
  <time>2026-08-28T17:56:28Z</time>
  <course>250.78</course>
  <speed>0.39</speed>
  <fix>3d</fix>
</trkpt>
<trkpt lat="40.0713578" lon="-105.2297751">
  <ele>1583.15</ele>
  <time>2026-08-28T17:56:28Z</time>
  <course>244.33</course>
  <speed>0.260768096208106</speed>
  <fix>3d</fix>
</trkpt>
<trkpt lat="40.0713576" lon="-105.2297749">
  <ele>1583.0</ele>
  <time>2026-08-28T17:56:28Z</time>
  <course>253.59</course>
  <speed>0.34</speed>
  <fix>3d</fix>
</trkpt>
<trkpt lat="40.0713578" lon="-105.2297754">
  <ele>1583.15</ele>
  <time>2026-08-28T17:56:28Z</time>
  <course>244.96</course>
  <speed>0.24</speed>
  <fix>3d</fix>
</trkpt>
<trkpt lat="40.0713576" lon="-105.2297749">
  <ele>1583.0</ele>
  <time>2026-08-28T17:56:28Z</time>
  <course>253.59</course>
  <speed>0.34</speed>
  <fix>3d</fix>
</trkpt>
<trkpt lat="40.0713577" lon="-105.2297757">
  <ele>1583.16</ele>
  <time>2026-08-28T17:56:28Z</time>
  <course>245.59</course>
  <speed>0.22</speed>
  <fix>3d</fix>
</trkpt>
<trkpt lat="40.0713574" lon="-105.2297756">
  <ele>1583.0</ele>
  <time>2026-08-28T17:56:28Z</time>
  <course>256.99</course>
  <speed>0.28</speed>
  <fix>3d</fix>
</trkpt>
<trkpt lat="40.0713577" lon="-105.229776">
  <ele>1583.15</ele>
  <time>2026-08-28T17:56:28Z</time>
  <course>246.22</course>
  <speed>0.19026297590440447</speed>
  <fix>3d</fix>
</trkpt>
<trkpt lat="40.0713574" lon="-105.2297756">
  <ele>1583.0</ele>
  <time>2026-08-28T17:56:28Z</time>
  <course>256.99</course>
  <speed>0.28</speed>
  <fix>3d</fix>
</trkpt>
<trkpt lat="40.0713577" lon="-105.2297763">
  <ele>1583.16</ele>
  <time>2026-08-28T17:56:28Z</time>
  <course>246.86</course>
  <speed>0.17262676501632068</speed>
  <fix>3d</fix>
</trkpt>
<trkpt lat="40.0713573" lon="-105.2297762">
  <ele>1583.0</ele>
  <time>2026-08-28T17:56:28Z</time>
  <course>261.25</course>
  <speed>0.23</speed>
  <fix>3d</fix>
</trkpt>
<trkpt lat="40.0713577" lon="-105.2297765">
  <ele>1583.16</ele>
  <time>2026-08-28T17:56:28Z</time>
  <course>247.51</course>
  <speed>0.15524174696260024</speed>
  <fix>3d</fix>
</trkpt>
<trkpt lat="40.0713573" lon="-105.2297762">
  <ele>1583.0</ele>
  <time>2026-08-28T17:56:28Z</time>
  <course>261.25</course>
  <speed>0.23</speed>
  <fix>3d</fix>
</trkpt>
<trkpt lat="40.0713577" lon="-105.2297767">
  <ele>1583.16</ele>
  <time>2026-08-28T17:56:28Z</time>
  <course>248.29</course>
  <speed>0.1392838827718412</speed>
  <fix>3d</fix>
</trkpt>
<trkpt lat="40.0713572" lon="-105.2297767">
  <ele>1583.0</ele>
  <time>2026-08-28T17:56:28Z</time>
  <course>266.68</course>
  <speed>0.18</speed>
  <fix>3d</fix>
</trkpt>
<trkpt lat="40.0713577" lon="-105.2297769">
  <ele>1583.16</ele>
  <time>2026-08-28T17:56:28Z</time>
  <course>248.95</course>
  <speed>0.1341640786499874</speed>
  <fix>3d</fix>
</trkpt>
<trkpt lat="40.0713572" lon="-105.2297767">
  <ele>1583.0</ele>
  <time>2026-08-28T17:56:28Z</time>
  <course>266.68</course>
  <speed>0.18</speed>
  <fix>3d</fix>
</trkpt>
<trkpt lat="40.0713577" lon="-105.2297771">
  <ele>1583.16</ele>
  <time>2026-08-28T17:56:28Z</time>
  <course>249.63</course>
  <speed>0.11661903789690602</speed>
  <fix>3d</fix>
</trkpt>
<trkpt lat="40.0713572" lon="-105.229777">
  <ele>1583.0</ele>
  <time>2026-08-28T17:56:28Z</time>
  <course>273.38</course>
  <speed>0.15</speed>
  <fix>3d</fix>
</trkpt>
<trkpt lat="40.0713577" lon="-105.2297772">
  <ele>1583.16</ele>
  <time>2026-08-28T17:56:28Z</time>
  <course>250.32</course>
  <speed>0.12206555615733702</speed>
  <fix>3d</fix>
</trkpt>
<trkpt lat="40.0713572" lon="-105.229777">
  <ele>1583.0</ele>
  <time>2026-08-28T17:56:28Z</time>
  <course>273.38</course>
  <speed>0.15</speed>
  <fix>3d</fix>
</trkpt>
<trkpt lat="40.0713577" lon="-105.2297774">
  <ele>1583.16</ele>
  <time>2026-08-28T17:56:28Z</time>
  <course>251.03</course>
  <speed>0.11401754250991379</speed>
  <fix>3d</fix>
</trkpt>
<trkpt lat="40.0713572" lon="-105.2297774">
  <ele>1583.0</ele>
  <time>2026-08-28T17:56:28Z</time>
  <course>280.17</course>
  <speed>0.12</speed>
  <fix>3d</fix>
</trkpt>
<trkpt lat="40.0713577" lon="-105.2297775">
  <ele>1583.16</ele>
  <time>2026-08-28T17:56:28Z</time>
  <course>251.76</course>
  <speed>0.11401754250991379</speed>
  <fix>3d</fix>
</trkpt>
<trkpt lat="40.0713572" lon="-105.2297774">
  <ele>1583.0</ele>
  <time>2026-08-28T17:56:28Z</time>
  <course>280.17</course>
  <speed>0.12</speed>
  <fix>3d</fix>
</trkpt>
<trkpt lat="40.0713577" lon="-105.2297776">
  <ele>1583.16</ele>
  <time>2026-08-28T17:56:28Z</time>
  <course>252.49</course>
  <speed>0.12206555615733702</speed>
  <fix>3d</fix>
</trkpt>
<trkpt lat="40.0713572" lon="-105.2297777">
  <ele>1583.0</ele>
  <time>2026-08-28T17:56:28Z</time>
  <course>284.18</course>
  <speed>0.11</speed>
  <fix>3d</fix>
</trkpt>
<trkpt lat="40.0713577" lon="-105.2297778">
  <ele>1583.16</ele>
  <time>2026-08-28T17:56:28Z</time>
  <course>253.25</course>
  <speed>0.130384048104053</speed>
  <fix>3d</fix>
</trkpt>
<trkpt lat="40.0713572" lon="-105.2297777">
  <ele>1583.0</ele>
  <time>2026-08-28T17:56:28Z</time>
  <course>284.18</course>
  <speed>0.11</speed>
  <fix>3d</fix>
</trkpt>
<trkpt lat="40.0713577" lon="-105.2297779">
  <ele>1583.16</ele>
  <time>2026-08-28T17:56:28Z</time>
  <course>254.01</course>
  <speed>0.13892443989449804</speed>
  <fix>3d</fix>
</trkpt>
<trkpt lat="40.0713573" lon="-105.2297779">
  <ele>1583.0</ele>
  <time>2026-08-28T17:56:28Z</time>
  <course>283.89</course>
  <speed>0.12</speed>
  <fix>3d</fix>
</trkpt>
<trkpt lat="40.0713578" lon="-105.2297781">
  <ele>1583.16</ele>
  <time>2026-08-28T17:56:28Z</time>
  <course>254.8</course>
  <speed>0.147648230602334</speed>
  <fix>3d</fix>
</trkpt>
<trkpt lat="40.0713573" lon="-105.2297779">
  <ele>1583.0</ele>
  <time>2026-08-28T17:56:28Z</time>
  <course>283.89</course>
  <speed>0.12</speed>
  <fix>3d</fix>
</trkpt>
<trkpt lat="40.0713578" lon="-105.2297783">
  <ele>1583.16</ele>
  <time>2026-08-28T17:56:28Z</time>
  <course>255.6</course>
  <speed>0.15652475842498528</speed>
  <fix>3d</fix>
</trkpt>
<trkpt lat="40.0713573" lon="-105.2297782">
  <ele>1583.0</ele>
  <time>2026-08-28T17:56:28Z</time>
  <course>281.36</course>
  <speed>0.13</speed>
  <fix>3d</fix>
</trkpt>
<trkpt lat="40.0713578" lon="-105.2297785">
  <ele>1583.16</ele>
  <time>2026-08-28T17:56:28Z</time>
  <course>256.25</course>
  <speed>0.16552945357246848</speed>
  <fix>3d</fix>
</trkpt>
<trkpt lat="40.0713573" lon="-105.2297782">
  <ele>1583.0</ele>
  <time>2026-08-28T17:56:28Z</time>
  <course>281.36</course>
  <speed>0.13</speed>
  <fix>3d</fix>
</trkpt>
<trkpt lat="40.0713578" lon="-105.2297787">
  <ele>1583.16</ele>
  <time>2026-08-28T17:56:28Z</time>
  <course>257.08</course>
  <speed>0.17464249196572978</speed>
  <fix>3d</fix>
</trkpt>
<trkpt lat="40.0713574" lon="-105.2297786">
  <ele>1583.0</ele>
  <time>2026-08-28T17:56:28Z</time>
  <course>279.28</course>
  <speed>0.15</speed>
  <fix>3d</fix>
</trkpt>
<trkpt lat="40.0713578" lon="-105.2297789">
  <ele>1583.16</ele>
  <time>2026-08-28T17:56:28Z</time>
  <course>257.92</course>
  <speed>0.18384776310850234</speed>
  <fix>3d</fix>
</trkpt>
<trkpt lat="40.0713574" lon="-105.2297786">
  <ele>1583.0</ele>
  <time>2026-08-28T17:56:28Z</time>
  <course>279.28</course>
  <speed>0.15</speed>
  <fix>3d</fix>
</trkpt>
<trkpt lat="40.0713578" lon="-105.2297791">
  <ele>1583.16</ele>
  <time>2026-08-28T17:56:28Z</time>
  <course>258.78</course>
  <speed>0.18384776310850234</speed>
  <fix>3d</fix>
</trkpt>
<trkpt lat="40.0713575" lon="-105.2297789">
  <ele>1583.0</ele>
  <time>2026-08-28T17:56:28Z</time>
  <course>278.91</course>
  <speed>0.17</speed>
  <fix>3d</fix>
</trkpt>
<trkpt lat="40.0713578" lon="-105.2297793">
  <ele>1583.16</ele>
  <time>2026-08-28T17:56:28Z</time>
  <course>259.66</course>
  <speed>0.18384776310850234</speed>
  <fix>3d</fix>
</trkpt>
<trkpt lat="40.0713575" lon="-105.2297789">
  <ele>1583.0</ele>
  <time>2026-08-28T17:56:28Z</time>
  <course>278.91</course>
  <speed>0.17</speed>
  <fix>3d</fix>
</trkpt>
<trkpt lat="40.0713579" lon="-105.2297795">
  <ele>1583.17</ele>
  <time>2026-08-28T17:56:28Z</time>
  <course>260.55</course>
  <speed>0.17464249196572978</speed>
  <fix>3d</fix>
</trkpt>
<trkpt lat="40.0713575" lon="-105.2297794">
  <ele>1583.0</ele>
  <time>2026-08-28T17:56:28Z</time>
  <course>280.49</course>
  <speed>0.17</speed>
  <fix>3d</fix>
</trkpt>
<trkpt lat="40.0713579" lon="-105.2297797">
  <ele>1583.17</ele>
  <time>2026-08-28T17:56:28Z</time>
  <course>261.45</course>
  <speed>0.17</speed>
  <fix>3d</fix>
</trkpt>
<trkpt lat="40.0713575" lon="-105.2297794">
  <ele>1583.0</ele>
  <time>2026-08-28T17:56:28Z</time>
  <course>280.49</course>
  <speed>0.17</speed>
  <fix>3d</fix>
</trkpt>
<trkpt lat="40.0713579" lon="-105.2297799">
  <ele>1583.17</ele>
  <time>2026-08-28T17:56:28Z</time>
  <course>262.37</course>
  <speed>0.16124515496597097</speed>
  <fix>3d</fix>
</trkpt>
<trkpt lat="40.0713576" lon="-105.2297797">
  <ele>1583.0</ele>
  <time>2026-08-28T17:56:28Z</time>
  <course>284.3</course>
  <speed>0.15</speed>
  <fix>3d</fix>
</trkpt>
<trkpt lat="40.071358" lon="-105.2297801">
  <ele>1583.18</ele>
  <time>2026-08-28T17:56:28Z</time>
  <course>263.3</course>
  <speed>0.14422205101855956</speed>
  <fix>3d</fix>
</trkpt>
<trkpt lat="40.0713576" lon="-105.2297797">
  <ele>1583.0</ele>
  <time>2026-08-28T17:56:28Z</time>
  <course>284.3</course>
  <speed>0.15</speed>
  <fix>3d</fix>
</trkpt>
<trkpt lat="40.071358" lon="-105.2297802">
  <ele>1583.18</ele>
  <time>2026-08-28T17:56:28Z</time>
  <course>264.43</course>
  <speed>0.1345362404707371</speed>
  <fix>3d</fix>
</trkpt>
<trkpt lat="40.0713577" lon="-105.2297801">
  <ele>1583.0</ele>
  <time>2026-08-28T17:56:28Z</time>
  <course>291.11</course>
  <speed>0.13</speed>
  <fix>3d</fix>
</trkpt>
<trkpt lat="40.0713581" lon="-105.2297804">
  <ele>1583.18</ele>
  <time>2026-08-28T17:56:28Z</time>
  <course>265.38</course>
  <speed>0.12041594578792296</speed>
  <fix>3d</fix>
</trkpt>
<trkpt lat="40.0713577" lon="-105.2297801">
  <ele>1583.0</ele>
  <time>2026-08-28T17:56:28Z</time>
  <course>291.11</course>
  <speed>0.13</speed>
  <fix>3d</fix>
</trkpt>
<trkpt lat="40.0713581" lon="-105.2297805">
  <ele>1583.18</ele>
  <time>2026-08-28T17:56:28Z</time>
  <course>266.34</course>
  <speed>0.11401754250991379</speed>
  <fix>3d</fix>
</trkpt>
<trkpt lat="40.0713577" lon="-105.2297804">
  <ele>1583.0</ele>
  <time>2026-08-28T17:56:28Z</time>
  <course>301.95</course>
  <speed>0.1</speed>
  <fix>3d</fix>
</trkpt>
<trkpt lat="40.0713582" lon="-105.2297805">
  <ele>1583.18</ele>
  <time>2026-08-28T17:56:28Z</time>
  <course>267.31</course>
  <speed>0.11661903789690602</speed>
  <fix>3d</fix>
</trkpt>
<trkpt lat="40.0713577" lon="-105.2297804">
  <ele>1583.0</ele>
  <time>2026-08-28T17:56:28Z</time>
  <course>301.95</course>
  <speed>0.1</speed>
  <fix>3d</fix>
</trkpt>
<trkpt lat="40.0713582" lon="-105.2297806">
  <ele>1583.18</ele>
  <time>2026-08-28T17:56:28Z</time>
  <course>268.29</course>
  <speed>0.1118033988749895</speed>
  <fix>3d</fix>
</trkpt>
<trkpt lat="40.0713578" lon="-105.2297805">
  <ele>1583.0</ele>
  <time>2026-08-28T17:56:28Z</time>
  <course>315.96</course>
  <speed>0.08</speed>
  <fix>3d</fix>
</trkpt>
<trkpt lat="40.0713583" lon="-105.2297807">
  <ele>1583.18</ele>
  <time>2026-08-28T17:56:28Z</time>
  <course>269.28</course>
  <speed>0.10770329614269007</speed>
  <fix>3d</fix>
</trkpt>
<trkpt lat="40.0713578" lon="-105.2297805">
  <ele>1583.0</ele>
  <time>2026-08-28T17:56:28Z</time>
  <course>315.96</course>
  <speed>0.08</speed>
  <fix>3d</fix>
</trkpt>
<trkpt lat="40.0713583" lon="-105.2297807">
  <ele>1583.19</ele>
  <time>2026-08-28T17:56:28Z</time>
  <course>270.29</course>
  <speed>0.1118033988749895</speed>
  <fix>3d</fix>
</trkpt>
<trkpt lat="40.071358" lon="-105.2297806">
  <ele>1583.0</ele>
  <time>2026-08-28T17:56:28Z</time>
  <course>325.42</course>
  <speed>0.07</speed>
  <fix>3d</fix>
</trkpt>
<trkpt lat="40.0713584" lon="-105.2297808">
  <ele>1583.19</ele>
  <time>2026-08-28T17:56:28Z</time>
  <course>271.29</course>
  <speed>0.1118033988749895</speed>
  <fix>3d</fix>
</trkpt>
<trkpt lat="40.071358" lon="-105.2297806">
  <ele>1583.0</ele>
  <time>2026-08-28T17:56:28Z</time>
  <course>325.42</course>
  <speed>0.07</speed>
  <fix>3d</fix>
</trkpt>
<trkpt lat="40.0713584" lon="-105.2297808">
  <ele>1583.19</ele>
  <time>2026-08-28T17:56:28Z</time>
  <course>272.3</course>
  <speed>0.12206555615733702</speed>
  <fix>3d</fix>
</trkpt>
<trkpt lat="40.0713581" lon="-105.2297807">
  <ele>1583.0</ele>
  <time>2026-08-28T17:56:28Z</time>
  <course>323.17</course>
  <speed>0.08</speed>
  <fix>3d</fix>
</trkpt>
<trkpt lat="40.0713585" lon="-105.2297809">
  <ele>1583.19</ele>
  <time>2026-08-28T17:56:28Z</time>
  <course>273.32</course>
  <speed>0.12806248474865697</speed>
  <fix>3d</fix>
</trkpt>
<trkpt lat="40.0713581" lon="-105.2297807">
  <ele>1583.0</ele>
  <time>2026-08-28T17:56:28Z</time>
  <course>323.17</course>
  <speed>0.08</speed>
  <fix>3d</fix>
</trkpt>
<trkpt lat="40.0713586" lon="-105.229781">
  <ele>1583.2</ele>
  <time>2026-08-28T17:56:28Z</time>
  <course>274.34</course>
  <speed>0.1345362404707371</speed>
  <fix>3d</fix>
</trkpt>
<trkpt lat="40.0713582" lon="-105.2297809">
  <ele>1583.0</ele>
  <time>2026-08-28T17:56:28Z</time>
  <course>314.05</course>
  <speed>0.09</speed>
  <fix>3d</fix>
</trkpt>
<trkpt lat="40.0713586" lon="-105.2297811">
  <ele>1583.2</ele>
  <time>2026-08-28T17:56:28Z</time>
  <course>275.36</course>
  <speed>0.15556349186104046</speed>
  <fix>3d</fix>
</trkpt>
<trkpt lat="40.0713582" lon="-105.2297809">
  <ele>1583.0</ele>
  <time>2026-08-28T17:56:28Z</time>
  <course>314.05</course>
  <speed>0.09</speed>
  <fix>3d</fix>
</trkpt>
<trkpt lat="40.0713587" lon="-105.2297812">
  <ele>1583.2</ele>
  <time>2026-08-28T17:56:28Z</time>
  <course>276.19</course>
  <speed>0.16278820596099705</speed>
  <fix>3d</fix>
</trkpt>
<trkpt lat="40.0713583" lon="-105.2297811">
  <ele>1583.0</ele>
  <time>2026-08-28T17:56:28Z</time>
  <course>306.71</course>
  <speed>0.11</speed>
  <fix>3d</fix>
</trkpt>
<trkpt lat="40.0713587" lon="-105.2297814">
  <ele>1583.2</ele>
  <time>2026-08-28T17:56:28Z</time>
  <course>277.2</course>
  <speed>0.17029386365926402</speed>
  <fix>3d</fix>
</trkpt>
<trkpt lat="40.0713583" lon="-105.2297811">
  <ele>1583.0</ele>
  <time>2026-08-28T17:56:28Z</time>
  <course>306.71</course>
  <speed>0.11</speed>
  <fix>3d</fix>
</trkpt>
<trkpt lat="40.0713588" lon="-105.2297815">
  <ele>1583.2</ele>
  <time>2026-08-28T17:56:28Z</time>
  <course>278.21</course>
  <speed>0.17029386365926402</speed>
  <fix>3d</fix>
</trkpt>
<trkpt lat="40.0713585" lon="-105.2297813">
  <ele>1583.0</ele>
  <time>2026-08-28T17:56:28Z</time>
  <course>303.6</course>
  <speed>0.13</speed>
  <fix>3d</fix>
</trkpt>
<trkpt lat="40.0713589" lon="-105.2297817">
  <ele>1583.2</ele>
  <time>2026-08-28T17:56:28Z</time>
  <course>279.21</course>
  <speed>0.1769180601295413</speed>
  <fix>3d</fix>
</trkpt>
<trkpt lat="40.0713585" lon="-105.2297813">
  <ele>1583.0</ele>
  <time>2026-08-28T17:56:28Z</time>
  <course>303.6</course>
  <speed>0.13</speed>
  <fix>3d</fix>
</trkpt>
<trkpt lat="40.071359" lon="-105.2297818">
  <ele>1583.21</ele>
  <time>2026-08-28T17:56:28Z</time>
  <course>280.19</course>
  <speed>0.1769180601295413</speed>
  <fix>3d</fix>
</trkpt>
<trkpt lat="40.0713586" lon="-105.2297816">
  <ele>1583.0</ele>
  <time>2026-08-28T17:56:28Z</time>
  <course>303.44</course>
  <speed>0.15</speed>
  <fix>3d</fix>
</trkpt>
<trkpt lat="40.071359" lon="-105.229782">
  <ele>1583.21</ele>
  <time>2026-08-28T17:56:28Z</time>
  <course>281.14</course>
  <speed>0.18439088914585774</speed>
  <fix>3d</fix>
</trkpt>
<trkpt lat="40.0713586" lon="-105.2297816">
  <ele>1583.0</ele>
  <time>2026-08-28T17:56:28Z</time>
  <course>303.44</course>
  <speed>0.15</speed>
  <fix>3d</fix>
</trkpt>
<trkpt lat="40.0713591" lon="-105.2297822">
  <ele>1583.21</ele>
  <time>2026-08-28T17:56:28Z</time>
  <course>282.06</course>
  <speed>0.18439088914585774</speed>
  <fix>3d</fix>
</trkpt>
<trkpt lat="40.0713588" lon="-105.2297819">
  <ele>1583.0</ele>
  <time>2026-08-28T17:56:28Z</time>
  <course>304.14</course>
  <speed>0.15</speed>
  <fix>3d</fix>
</trkpt>
<trkpt lat="40.0713592" lon="-105.2297823">
  <ele>1583.21</ele>
  <time>2026-08-28T17:56:28Z</time>
  <course>282.06</course>
  <speed>0.18439088914585774</speed>
  <fix>3d</fix>
</trkpt>
<trkpt lat="40.0713588" lon="-105.2297819">
  <ele>1583.0</ele>
  <time>2026-08-28T17:56:28Z</time>
  <course>304.14</course>
  <speed>0.15</speed>
  <fix>3d</fix>
</trkpt>
<trkpt lat="40.0713593" lon="-105.2297825">
  <ele>1583.21</ele>
  <time>2026-08-28T17:56:28Z</time>
  <course>282.07</course>
  <speed>0.1769180601295413</speed>
  <fix>3d</fix>
</trkpt>
<trkpt lat="40.0713589" lon="-105.2297822">
  <ele>1583.0</ele>
  <time>2026-08-28T17:56:28Z</time>
  <course>304.7</course>
  <speed>0.16</speed>
  <fix>3d</fix>
</trkpt>
<trkpt lat="40.0713594" lon="-105.2297827">
  <ele>1583.21</ele>
  <time>2026-08-28T17:56:28Z</time>
  <course>282.07</course>
  <speed>0.1769180601295413</speed>
  <fix>3d</fix>
</trkpt>
<trkpt lat="40.0713589" lon="-105.2297822">
  <ele>1583.0</ele>
  <time>2026-08-28T17:56:28Z</time>
  <course>304.7</course>
  <speed>0.16</speed>
  <fix>3d</fix>
</trkpt>
<trkpt lat="40.0713595" lon="-105.2297828">
  <ele>1583.21</ele>
  <time>2026-08-28T17:56:28Z</time>
  <course>282.07</course>
  <speed>0.1769180601295413</speed>
  <fix>3d</fix>
</trkpt>
<trkpt lat="40.071359" lon="-105.2297825">
  <ele>1583.0</ele>
  <time>2026-08-28T17:56:28Z</time>
  <course>305.07</course>
  <speed>0.15</speed>
  <fix>3d</fix>
</trkpt>
<trkpt lat="40.0713595" lon="-105.229783">
  <ele>1583.21</ele>
  <time>2026-08-28T17:56:28Z</time>
  <course>282.07</course>
  <speed>0.1769180601295413</speed>
  <fix>3d</fix>
</trkpt>
<trkpt lat="40.071359" lon="-105.2297825">
  <ele>1583.0</ele>
  <time>2026-08-28T17:56:28Z</time>
  <course>305.07</course>
  <speed>0.15</speed>
  <fix>3d</fix>
</trkpt>
<trkpt lat="40.0713596" lon="-105.2297831">
  <ele>1583.21</ele>
  <time>2026-08-28T17:56:28Z</time>
  <course>282.07</course>
  <speed>0.1769180601295413</speed>
  <fix>3d</fix>
</trkpt>
<trkpt lat="40.0713593" lon="-105.2297828">
  <ele>1583.0</ele>
  <time>2026-08-28T17:56:28Z</time>
  <course>305.22</course>
  <speed>0.15</speed>
  <fix>3d</fix>
</trkpt>
<trkpt lat="40.0713597" lon="-105.2297833">
  <ele>1583.21</ele>
  <time>2026-08-28T17:56:28Z</time>
  <course>282.07</course>
  <speed>0.1769180601295413</speed>
  <fix>3d</fix>
</trkpt>
<trkpt lat="40.0713593" lon="-105.2297828">
  <ele>1583.0</ele>
  <time>2026-08-28T17:56:28Z</time>
  <course>305.22</course>
  <speed>0.15</speed>
  <fix>3d</fix>
</trkpt>
<trkpt lat="40.0713598" lon="-105.2297834">
  <ele>1583.21</ele>
  <time>2026-08-28T17:56:28Z</time>
  <course>282.07</course>
  <speed>0.1769180601295413</speed>
  <fix>3d</fix>
</trkpt>
<trkpt lat="40.0713594" lon="-105.2297831">
  <ele>1583.0</ele>
  <time>2026-08-28T17:56:28Z</time>
  <course>305.38</course>
  <speed>0.15</speed>
  <fix>3d</fix>
</trkpt>
<trkpt lat="40.0713598" lon="-105.2297835">
  <ele>1583.2</ele>
  <time>2026-08-28T17:56:28Z</time>
  <course>282.07</course>
  <speed>0.1769180601295413</speed>
  <fix>3d</fix>
</trkpt>
<trkpt lat="40.0713594" lon="-105.2297831">
  <ele>1583.0</ele>
  <time>2026-08-28T17:56:28Z</time>
  <course>305.38</course>
  <speed>0.15</speed>
  <fix>3d</fix>
</trkpt>
<trkpt lat="40.0713599" lon="-105.2297837">
  <ele>1583.2</ele>
  <time>2026-08-28T17:56:28Z</time>
  <course>282.07</course>
  <speed>0.1769180601295413</speed>
  <fix>3d</fix>
</trkpt>
<trkpt lat="40.0713595" lon="-105.2297834">
  <ele>1583.0</ele>
  <time>2026-08-28T17:56:28Z</time>
  <course>305.53</course>
  <speed>0.15</speed>
  <fix>3d</fix>
</trkpt>
<trkpt lat="40.07136" lon="-105.2297838">
  <ele>1583.2</ele>
  <time>2026-08-28T17:56:28Z</time>
  <course>282.06</course>
  <speed>0.16278820596099705</speed>
  <fix>3d</fix>
</trkpt>
<trkpt lat="40.0713595" lon="-105.2297834">
  <ele>1583.0</ele>
  <time>2026-08-28T17:56:28Z</time>
  <course>305.53</course>
  <speed>0.15</speed>
  <fix>3d</fix>
</trkpt>
<trkpt lat="40.0713601" lon="-105.229784">
  <ele>1583.2</ele>
  <time>2026-08-28T17:56:28Z</time>
  <course>282.06</course>
  <speed>0.16278820596099705</speed>
  <fix>3d</fix>
</trkpt>
<trkpt lat="40.0713597" lon="-105.2297837">
  <ele>1583.0</ele>
  <time>2026-08-28T17:56:28Z</time>
  <course>305.68</course>
  <speed>0.15</speed>
  <fix>3d</fix>
</trkpt>
<trkpt lat="40.0713601" lon="-105.2297841">
  <ele>1583.2</ele>
  <time>2026-08-28T17:56:28Z</time>
  <course>282.06</course>
  <speed>0.16278820596099705</speed>
  <fix>3d</fix>
</trkpt>
<trkpt lat="40.0713597" lon="-105.2297837">
  <ele>1583.0</ele>
  <time>2026-08-28T17:56:28Z</time>
  <course>305.68</course>
  <speed>0.15</speed>
  <fix>3d</fix>
</trkpt>
<trkpt lat="40.0713602" lon="-105.2297843">
  <ele>1583.19</ele>
  <time>2026-08-28T17:56:28Z</time>
  <course>282.06</course>
  <speed>0.16278820596099705</speed>
  <fix>3d</fix>
</trkpt>
<trkpt lat="40.0713599" lon="-105.229784">
  <ele>1583.0</ele>
  <time>2026-08-28T17:56:28Z</time>
  <course>305.83</course>
  <speed>0.15</speed>
  <fix>3d</fix>
</trkpt>
<trkpt lat="40.0713603" lon="-105.2297844">
  <ele>1583.19</ele>
  <time>2026-08-28T17:56:28Z</time>
  <course>282.06</course>
  <speed>0.16278820596099705</speed>
  <fix>3d</fix>
</trkpt>
<trkpt lat="39.6561709" lon="-104.1394387">
  <ele>1566.59</ele>
  <time>2026-08-28T17:56:28Z</time>
  <course>0.0</course>
  <speed>0.0</speed>
  <fix>3d</fix>
</trkpt>
<trkpt lat="40.0713749" lon="-105.229789">
  <ele>1583.0</ele>
  <time>2026-08-28T17:56:28Z</time>
  <course>0.0</course>
  <speed>0.0</speed>
  <fix>3d</fix>
</trkpt>
<trkpt lat="40.0713749" lon="-105.229789">
  <ele>1583.0</ele>
  <time>2026-08-28T17:56:28Z</time>
  <course>238.36</course>
  <speed>0.0</speed>
  <fix>3d</fix>
</trkpt>
<trkpt lat="40.0713749" lon="-105.229789">
  <ele>1583.0</ele>
  <time>2026-08-28T17:56:28Z</time>
  <course>0.0</course>
  <speed>0.0</speed>
  <fix>3d</fix>
</trkpt>
<trkpt lat="40.0713749" lon="-105.229789">
  <ele>1583.0</ele>
  <time>2026-08-28T17:56:28Z</time>
  <course>238.45</course>
  <speed>0.0</speed>
  <fix>3d</fix>
</trkpt>
<trkpt lat="40.0713749" lon="-105.229789">
  <ele>1583.0</ele>
  <time>2026-08-28T17:56:28Z</time>
  <course>0.0</course>
  <speed>0.0</speed>
  <fix>3d</fix>
</trkpt>
<trkpt lat="40.0713749" lon="-105.229789">
  <ele>1583.0</ele>
  <time>2026-08-28T17:56:28Z</time>
  <course>238.65</course>
  <speed>0.0</speed>
  <fix>3d</fix>
</trkpt>
<trkpt lat="40.0713749" lon="-105.229789">
  <ele>1583.0</ele>
  <time>2026-08-28T17:56:28Z</time>
  <course>0.0</course>
  <speed>0.0</speed>
  <fix>3d</fix>
</trkpt>
<trkpt lat="40.0713749" lon="-105.229789">
  <ele>1583.0</ele>
  <time>2026-08-28T17:56:28Z</time>
  <course>238.93</course>
  <speed>0.0</speed>
  <fix>3d</fix>
</trkpt>
<trkpt lat="40.0713749" lon="-105.229789">
  <ele>1583.0</ele>
  <time>2026-08-28T17:56:28Z</time>
  <course>0.0</course>
  <speed>0.0</speed>
  <fix>3d</fix>
</trkpt>
<trkpt lat="40.0713749" lon="-105.229789">
  <ele>1583.0</ele>
  <time>2026-08-28T17:56:28Z</time>
  <course>239.26</course>
  <speed>0.0</speed>
  <fix>3d</fix>
</trkpt>
<trkpt lat="40.0713749" lon="-105.229789">
  <ele>1583.0</ele>
  <time>2026-08-28T17:56:28Z</time>
  <course>0.0</course>
  <speed>0.0</speed>
  <fix>3d</fix>
</trkpt>
<trkpt lat="40.0713749" lon="-105.229789">
  <ele>1583.0</ele>
  <time>2026-08-28T17:56:28Z</time>
  <course>239.61</course>
  <speed>0.0</speed>
  <fix>3d</fix>
</trkpt>
<trkpt lat="40.0713749" lon="-105.229789">
  <ele>1583.0</ele>
  <time>2026-08-28T17:56:28Z</time>
  <course>0.0</course>
  <speed>0.0</speed>
  <fix>3d</fix>
</trkpt>
<trkpt lat="40.0713749" lon="-105.229789">
  <ele>1583.0</ele>
  <time>2026-08-28T17:56:28Z</time>
  <course>239.96</course>
  <speed>0.0</speed>
  <fix>3d</fix>
</trkpt>
<trkpt lat="40.0713749" lon="-105.229789">
  <ele>1583.0</ele>
  <time>2026-08-28T17:56:28Z</time>
  <course>0.0</course>
  <speed>0.0</speed>
  <fix>3d</fix>
</trkpt>
<trkpt lat="40.0713749" lon="-105.229789">
  <ele>1583.0</ele>
  <time>2026-08-28T17:56:28Z</time>
  <course>240.3</course>
  <speed>0.0</speed>
  <fix>3d</fix>
</trkpt>
<trkpt lat="40.0713749" lon="-105.229789">
  <ele>1583.0</ele>
  <time>2026-08-28T17:56:28Z</time>
  <course>0.0</course>
  <speed>0.0</speed>
  <fix>3d</fix>
</trkpt>
<trkpt lat="40.0713749" lon="-105.229789">
  <ele>1583.0</ele>
  <time>2026-08-28T17:56:28Z</time>
  <course>240.61</course>
  <speed>0.0</speed>
  <fix>3d</fix>
</trkpt>
<trkpt lat="40.0713749" lon="-105.229789">
  <ele>1583.0</ele>
  <time>2026-08-28T17:56:28Z</time>
  <course>0.0</course>
  <speed>0.0</speed>
  <fix>3d</fix>
</trkpt>
<trkpt lat="40.0713749" lon="-105.229789">
  <ele>1583.0</ele>
  <time>2026-08-28T17:56:28Z</time>
  <course>240.92</course>
  <speed>0.0</speed>
  <fix>3d</fix>
</trkpt>
<trkpt lat="40.0713749" lon="-105.229789">
  <ele>1583.0</ele>
  <time>2026-08-28T17:56:28Z</time>
  <course>0.0</course>
  <speed>0.0</speed>
  <fix>3d</fix>
</trkpt>
<trkpt lat="40.0713749" lon="-105.229789">
  <ele>1583.0</ele>
  <time>2026-08-28T17:56:28Z</time>
  <course>241.21</course>
  <speed>0.0</speed>
  <fix>3d</fix>
</trkpt>
<trkpt lat="40.0713749" lon="-105.229789">
  <ele>1583.0</ele>
  <time>2026-08-28T17:56:28Z</time>
  <course>0.0</course>
  <speed>0.0</speed>
  <fix>3d</fix>
</trkpt>
<trkpt lat="40.0713749" lon="-105.229789">
  <ele>1583.0</ele>
  <time>2026-08-28T17:56:28Z</time>
  <course>241.49</course>
  <speed>0.0</speed>
  <fix>3d</fix>
</trkpt>
<trkpt lat="40.0713749" lon="-105.229789">
  <ele>1583.0</ele>
  <time>2026-08-28T17:56:28Z</time>
  <course>0.0</course>
  <speed>0.0</speed>
  <fix>3d</fix>
</trkpt>
<trkpt lat="40.0713749" lon="-105.229789">
  <ele>1583.0</ele>
  <time>2026-08-28T17:56:28Z</time>
  <course>241.77</course>
  <speed>0.0</speed>
  <fix>3d</fix>
</trkpt>
<trkpt lat="40.0713749" lon="-105.229789">
  <ele>1583.0</ele>
  <time>2026-08-28T17:56:28Z</time>
  <course>0.0</course>
  <speed>0.0</speed>
  <fix>3d</fix>
</trkpt>
<trkpt lat="40.0713749" lon="-105.229789">
  <ele>1583.0</ele>
  <time>2026-08-28T17:56:28Z</time>
  <course>242.03</course>
  <speed>0.0</speed>
  <fix>3d</fix>
</trkpt>
<trkpt lat="40.0713749" lon="-105.229789">
  <ele>1583.0</ele>
  <time>2026-08-28T17:56:28Z</time>
  <course>0.0</course>
  <speed>0.0</speed>
  <fix>3d</fix>
</trkpt>
<trkpt lat="40.0713749" lon="-105.229789">
  <ele>1583.0</ele>
  <time>2026-08-28T17:56:28Z</time>
  <course>242.29</course>
  <speed>0.0</speed>
  <fix>3d</fix>
</trkpt>
<trkpt lat="40.0713749" lon="-105.229789">
  <ele>1583.0</ele>
  <time>2026-08-28T17:56:28Z</time>
  <course>0.0</course>
  <speed>0.0</speed>
  <fix>3d</fix>
</trkpt>
<trkpt lat="40.0713749" lon="-105.229789">
  <ele>1583.0</ele>
  <time>2026-08-28T17:56:28Z</time>
  <course>242.54</course>
  <speed>0.0</speed>
  <fix>3d</fix>
</trkpt>
<trkpt lat="40.0713749" lon="-105.229789">
  <ele>1583.0</ele>
  <time>2026-08-28T17:56:28Z</time>
  <course>0.0</course>
  <speed>0.0</speed>
  <fix>3d</fix>
</trkpt>
<trkpt lat="40.0713749" lon="-105.229789">
  <ele>1583.0</ele>
  <time>2026-08-28T17:56:28Z</time>
  <course>242.79</course>
  <speed>0.0</speed>
  <fix>3d</fix>
</trkpt>
<trkpt lat="40.0713749" lon="-105.229789">
  <ele>1583.0</ele>
  <time>2026-08-28T17:56:28Z</time>
  <course>0.0</course>
  <speed>0.0</speed>
  <fix>3d</fix>
</trkpt>
<trkpt lat="40.0713749" lon="-105.229789">
  <ele>1583.0</ele>
  <time>2026-08-28T17:56:28Z</time>
  <course>243.02</course>
  <speed>0.0</speed>
  <fix>3d</fix>
</trkpt>
<trkpt lat="40.0713749" lon="-105.229789">
  <ele>1583.0</ele>
  <time>2026-08-28T17:56:28Z</time>
  <course>0.0</course>
  <speed>0.0</speed>
  <fix>3d</fix>
</trkpt>
<trkpt lat="40.0713749" lon="-105.229789">
  <ele>1583.0</ele>
  <time>2026-08-28T17:56:28Z</time>
  <course>243.25</course>
  <speed>0.0</speed>
  <fix>3d</fix>
</trkpt>
<trkpt lat="40.0713749" lon="-105.229789">
  <ele>1583.0</ele>
  <time>2026-08-28T17:56:28Z</time>
  <course>0.0</course>
  <speed>0.0</speed>
  <fix>3d</fix>
</trkpt>
<trkpt lat="40.0713749" lon="-105.229789">
  <ele>1583.0</ele>
  <time>2026-08-28T17:56:29Z</time>
  <course>243.47</course>
  <speed>0.0</speed>
  <fix>3d</fix>
</trkpt>
<trkpt lat="40.0713749" lon="-105.229789">
  <ele>1583.0</ele>
  <time>2026-08-28T17:56:29Z</time>
  <course>0.0</course>
  <speed>0.0</speed>
  <fix>3d</fix>
</trkpt>
<trkpt lat="40.0713749" lon="-105.229789">
  <ele>1583.0</ele>
  <time>2026-08-28T17:56:29Z</time>
  <course>243.68</course>
  <speed>0.0</speed>
  <fix>3d</fix>
</trkpt>
<trkpt lat="40.0713749" lon="-105.229789">
  <ele>1583.0</ele>
  <time>2026-08-28T17:56:29Z</time>
  <course>0.0</course>
  <speed>0.0</speed>
  <fix>3d</fix>
</trkpt>
<trkpt lat="40.0713749" lon="-105.229789">
  <ele>1583.0</ele>
  <time>2026-08-28T17:56:29Z</time>
  <course>243.89</course>
  <speed>0.0</speed>
  <fix>3d</fix>
</trkpt>
<trkpt lat="40.0713749" lon="-105.229789">
  <ele>1583.0</ele>
  <time>2026-08-28T17:56:29Z</time>
  <course>0.0</course>
  <speed>0.0</speed>
  <fix>3d</fix>
</trkpt>
<trkpt lat="40.0713749" lon="-105.229789">
  <ele>1583.0</ele>
  <time>2026-08-28T17:56:29Z</time>
  <course>244.09</course>
  <speed>0.0</speed>
  <fix>3d</fix>
</trkpt>
<trkpt lat="40.0713749" lon="-105.229789">
  <ele>1583.0</ele>
  <time>2026-08-28T17:56:29Z</time>
  <course>0.0</course>
  <speed>0.0</speed>
  <fix>3d</fix>
</trkpt>
<trkpt lat="40.0713749" lon="-105.229789">
  <ele>1583.0</ele>
  <time>2026-08-28T17:56:29Z</time>
  <course>244.28</course>
  <speed>0.0</speed>
  <fix>3d</fix>
</trkpt>
<trkpt lat="40.0713749" lon="-105.229789">
  <ele>1583.0</ele>
  <time>2026-08-28T17:56:29Z</time>
  <course>0.0</course>
  <speed>0.0</speed>
  <fix>3d</fix>
</trkpt>
<trkpt lat="40.0713749" lon="-105.229789">
  <ele>1583.0</ele>
  <time>2026-08-28T17:56:29Z</time>
  <course>244.46</course>
  <speed>0.0</speed>
  <fix>3d</fix>
</trkpt>
<trkpt lat="40.0713749" lon="-105.229789">
  <ele>1583.0</ele>
  <time>2026-08-28T17:56:29Z</time>
  <course>0.0</course>
  <speed>0.0</speed>
  <fix>3d</fix>
</trkpt>
<trkpt lat="40.0713749" lon="-105.229789">
  <ele>1583.0</ele>
  <time>2026-08-28T17:56:29Z</time>
  <course>244.64</course>
  <speed>0.0</speed>
  <fix>3d</fix>
</trkpt>
<trkpt lat="40.0713749" lon="-105.229789">
  <ele>1583.0</ele>
  <time>2026-08-28T17:56:29Z</time>
  <course>0.0</course>
  <speed>0.0</speed>
  <fix>3d</fix>
</trkpt>
<trkpt lat="40.0713749" lon="-105.229789">
  <ele>1583.0</ele>
  <time>2026-08-28T17:56:29Z</time>
  <course>244.81</course>
  <speed>0.0</speed>
  <fix>3d</fix>
</trkpt>
<trkpt lat="40.0713749" lon="-105.229789">
  <ele>1583.0</ele>
  <time>2026-08-28T17:56:29Z</time>
  <course>0.0</course>
  <speed>0.0</speed>
  <fix>3d</fix>
</trkpt>
<trkpt lat="40.0713749" lon="-105.229789">
  <ele>1583.0</ele>
  <time>2026-08-28T17:56:29Z</time>
  <course>244.97</course>
  <speed>0.0</speed>
  <fix>3d</fix>
</trkpt>
<trkpt lat="40.0713749" lon="-105.229789">
  <ele>1583.0</ele>
  <time>2026-08-28T17:56:29Z</time>
  <course>0.0</course>
  <speed>0.0</speed>
  <fix>3d</fix>
</trkpt>
<trkpt lat="40.0713749" lon="-105.229789">
  <ele>1583.0</ele>
  <time>2026-08-28T17:56:29Z</time>
  <course>245.13</course>
  <speed>0.0</speed>
  <fix>3d</fix>
</trkpt>
<trkpt lat="40.0713749" lon="-105.229789">
  <ele>1583.0</ele>
  <time>2026-08-28T17:56:29Z</time>
  <course>0.0</course>
  <speed>0.0</speed>
  <fix>3d</fix>
</trkpt>
<trkpt lat="40.0713749" lon="-105.229789">
  <ele>1583.0</ele>
  <time>2026-08-28T17:56:29Z</time>
  <course>245.29</course>
  <speed>0.0</speed>
  <fix>3d</fix>
</trkpt>
<trkpt lat="40.0713749" lon="-105.229789">
  <ele>1583.0</ele>
  <time>2026-08-28T17:56:29Z</time>
  <course>0.0</course>
  <speed>0.0</speed>
  <fix>3d</fix>
</trkpt>
<trkpt lat="40.0713749" lon="-105.229789">
  <ele>1583.0</ele>
  <time>2026-08-28T17:56:29Z</time>
  <course>245.43</course>
  <speed>0.0</speed>
  <fix>3d</fix>
</trkpt>
<trkpt lat="40.0713749" lon="-105.229789">
  <ele>1583.0</ele>
  <time>2026-08-28T17:56:29Z</time>
  <course>0.0</course>
  <speed>0.0</speed>
  <fix>3d</fix>
</trkpt>
<trkpt lat="40.0713749" lon="-105.229789">
  <ele>1583.0</ele>
  <time>2026-08-28T17:56:29Z</time>
  <course>245.57</course>
  <speed>0.0</speed>
  <fix>3d</fix>
</trkpt>
<trkpt lat="40.0713749" lon="-105.229789">
  <ele>1583.0</ele>
  <time>2026-08-28T17:56:29Z</time>
  <course>0.0</course>
  <speed>0.0</speed>
  <fix>3d</fix>
</trkpt>
<trkpt lat="40.0713749" lon="-105.229789">
  <ele>1583.0</ele>
  <time>2026-08-28T17:56:29Z</time>
  <course>245.71</course>
  <speed>0.0</speed>
  <fix>3d</fix>
</trkpt>
<trkpt lat="40.0713749" lon="-105.229789">
  <ele>1583.0</ele>
  <time>2026-08-28T17:56:29Z</time>
  <course>0.0</course>
  <speed>0.0</speed>
  <fix>3d</fix>
</trkpt>
<trkpt lat="40.0713749" lon="-105.229789">
  <ele>1583.0</ele>
  <time>2026-08-28T17:56:29Z</time>
  <course>245.83</course>
  <speed>0.0</speed>
  <fix>3d</fix>
</trkpt>
<trkpt lat="40.0713749" lon="-105.229789">
  <ele>1583.0</ele>
  <time>2026-08-28T17:56:29Z</time>
  <course>0.0</course>
  <speed>0.0</speed>
  <fix>3d</fix>
</trkpt>
<trkpt lat="40.0713749" lon="-105.229789">
  <ele>1583.0</ele>
  <time>2026-08-28T17:56:29Z</time>
  <course>245.96</course>
  <speed>0.0</speed>
  <fix>3d</fix>
</trkpt>
<trkpt lat="40.0713749" lon="-105.229789">
  <ele>1583.0</ele>
  <time>2026-08-28T17:56:29Z</time>
  <course>0.0</course>
  <speed>0.0</speed>
  <fix>3d</fix>
</trkpt>
<trkpt lat="40.0713749" lon="-105.229789">
  <ele>1583.0</ele>
  <time>2026-08-28T17:56:29Z</time>
  <course>246.08</course>
  <speed>0.0</speed>
  <fix>3d</fix>
</trkpt>
<trkpt lat="40.0713749" lon="-105.229789">
  <ele>1583.0</ele>
  <time>2026-08-28T17:56:29Z</time>
  <course>0.0</course>
  <speed>0.0</speed>
  <fix>3d</fix>
</trkpt>
<trkpt lat="40.0713749" lon="-105.229789">
  <ele>1583.0</ele>
  <time>2026-08-28T17:56:29Z</time>
  <course>246.19</course>
  <speed>0.0</speed>
  <fix>3d</fix>
</trkpt>
<trkpt lat="40.0713749" lon="-105.229789">
  <ele>1583.0</ele>
  <time>2026-08-28T17:56:29Z</time>
  <course>0.0</course>
  <speed>0.0</speed>
  <fix>3d</fix>
</trkpt>
<trkpt lat="40.0713749" lon="-105.229789">
  <ele>1583.0</ele>
  <time>2026-08-28T17:56:29Z</time>
  <course>246.3</course>
  <speed>0.0</speed>
  <fix>3d</fix>
</trkpt>
<trkpt lat="40.0713749" lon="-105.229789">
  <ele>1583.0</ele>
  <time>2026-08-28T17:56:29Z</time>
  <course>0.0</course>
  <speed>0.0</speed>
  <fix>3d</fix>
</trkpt>
<trkpt lat="40.0713749" lon="-105.229789">
  <ele>1583.0</ele>
  <time>2026-08-28T17:56:29Z</time>
  <course>246.41</course>
  <speed>0.0</speed>
  <fix>3d</fix>
</trkpt>
<trkpt lat="40.0713749" lon="-105.229789">
  <ele>1583.0</ele>
  <time>2026-08-28T17:56:29Z</time>
  <course>0.0</course>
  <speed>0.0</speed>
  <fix>3d</fix>
</trkpt>
<trkpt lat="40.0713749" lon="-105.229789">
  <ele>1583.0</ele>
  <time>2026-08-28T17:56:29Z</time>
  <course>246.51</course>
  <speed>0.0</speed>
  <fix>3d</fix>
</trkpt>
<trkpt lat="40.0713749" lon="-105.229789">
  <ele>1583.0</ele>
  <time>2026-08-28T17:56:29Z</time>
  <course>0.0</course>
  <speed>0.0</speed>
  <fix>3d</fix>
</trkpt>
<trkpt lat="40.0713749" lon="-105.229789">
  <ele>1583.0</ele>
  <time>2026-08-28T17:56:29Z</time>
  <course>246.6</course>
  <speed>0.0</speed>
  <fix>3d</fix>
</trkpt>
<trkpt lat="40.0713749" lon="-105.229789">
  <ele>1583.0</ele>
  <time>2026-08-28T17:56:29Z</time>
  <course>0.0</course>
  <speed>0.0</speed>
  <fix>3d</fix>
</trkpt>
<trkpt lat="40.0713749" lon="-105.229789">
  <ele>1583.0</ele>
  <time>2026-08-28T17:56:29Z</time>
  <course>246.69</course>
  <speed>0.0</speed>
  <fix>3d</fix>
</trkpt>
<trkpt lat="40.0713749" lon="-105.229789">
  <ele>1583.0</ele>
  <time>2026-08-28T17:56:29Z</time>
  <course>0.0</course>
  <speed>0.0</speed>
  <fix>3d</fix>
</trkpt>
<trkpt lat="40.0713749" lon="-105.229789">
  <ele>1583.0</ele>
  <time>2026-08-28T17:56:29Z</time>
  <course>246.78</course>
  <speed>0.0</speed>
  <fix>3d</fix>
</trkpt>
<trkpt lat="40.0713749" lon="-105.229789">
  <ele>1583.0</ele>
  <time>2026-08-28T17:56:29Z</time>
  <course>0.0</course>
  <speed>0.0</speed>
  <fix>3d</fix>
</trkpt>
<trkpt lat="40.0713749" lon="-105.229789">
  <ele>1583.0</ele>
  <time>2026-08-28T17:56:29Z</time>
  <course>246.86</course>
  <speed>0.0</speed>
  <fix>3d</fix>
</trkpt>
<trkpt lat="40.0713749" lon="-105.229789">
  <ele>1583.0</ele>
  <time>2026-08-28T17:56:29Z</time>
  <course>0.0</course>
  <speed>0.0</speed>
  <fix>3d</fix>
</trkpt>
<trkpt lat="40.0713749" lon="-105.229789">
  <ele>1583.0</ele>
  <time>2026-08-28T17:56:29Z</time>
  <course>246.95</course>
  <speed>0.0</speed>
  <fix>3d</fix>
</trkpt>
<trkpt lat="40.0713749" lon="-105.229789">
  <ele>1583.0</ele>
  <time>2026-08-28T17:56:29Z</time>
  <course>0.0</course>
  <speed>0.0</speed>
  <fix>3d</fix>
</trkpt>
<trkpt lat="40.0713749" lon="-105.229789">
  <ele>1583.0</ele>
  <time>2026-08-28T17:56:29Z</time>
  <course>247.02</course>
  <speed>0.0</speed>
  <fix>3d</fix>
</trkpt>
<trkpt lat="40.0713749" lon="-105.229789">
  <ele>1583.0</ele>
  <time>2026-08-28T17:56:29Z</time>
  <course>0.0</course>
  <speed>0.0</speed>
  <fix>3d</fix>
</trkpt>
<trkpt lat="40.0713749" lon="-105.229789">
  <ele>1583.0</ele>
  <time>2026-08-28T17:56:29Z</time>
  <course>247.1</course>
  <speed>0.0</speed>
  <fix>3d</fix>
</trkpt>
<trkpt lat="40.0713749" lon="-105.229789">
  <ele>1583.0</ele>
  <time>2026-08-28T17:56:29Z</time>
  <course>0.0</course>
  <speed>0.0</speed>
  <fix>3d</fix>
</trkpt>
<trkpt lat="40.0713749" lon="-105.229789">
  <ele>1583.0</ele>
  <time>2026-08-28T17:56:29Z</time>
  <course>247.17</course>
  <speed>0.0</speed>
  <fix>3d</fix>
</trkpt>
<trkpt lat="40.0713749" lon="-105.229789">
  <ele>1583.0</ele>
  <time>2026-08-28T17:56:29Z</time>
  <course>0.0</course>
  <speed>0.0</speed>
  <fix>3d</fix>
</trkpt>
<trkpt lat="40.0713749" lon="-105.229789">
  <ele>1583.0</ele>
  <time>2026-08-28T17:56:29Z</time>
  <course>247.23</course>
  <speed>0.0</speed>
  <fix>3d</fix>
</trkpt>
<trkpt lat="40.0713749" lon="-105.229789">
  <ele>1583.0</ele>
  <time>2026-08-28T17:56:29Z</time>
  <course>0.0</course>
  <speed>0.0</speed>
  <fix>3d</fix>
</trkpt>
<trkpt lat="40.0713749" lon="-105.229789">
  <ele>1583.0</ele>
  <time>2026-08-28T17:56:29Z</time>
  <course>247.3</course>
  <speed>0.0</speed>
  <fix>3d</fix>
</trkpt>
<trkpt lat="40.0713749" lon="-105.229789">
  <ele>1583.0</ele>
  <time>2026-08-28T17:56:29Z</time>
  <course>0.0</course>
  <speed>0.0</speed>
  <fix>3d</fix>
</trkpt>
<trkpt lat="40.0713749" lon="-105.229789">
  <ele>1583.0</ele>
  <time>2026-08-28T17:56:29Z</time>
  <course>247.36</course>
  <speed>0.0</speed>
  <fix>3d</fix>
</trkpt>
<trkpt lat="40.0713749" lon="-105.229789">
  <ele>1583.0</ele>
  <time>2026-08-28T17:56:29Z</time>
  <course>0.0</course>
  <speed>0.0</speed>
  <fix>3d</fix>
</trkpt>
<trkpt lat="40.0713749" lon="-105.229789">
  <ele>1583.0</ele>
  <time>2026-08-28T17:56:29Z</time>
  <course>247.42</course>
  <speed>0.0</speed>
  <fix>3d</fix>
</trkpt>
<trkpt lat="40.0713749" lon="-105.229789">
  <ele>1583.0</ele>
  <time>2026-08-28T17:56:29Z</time>
  <course>0.0</course>
  <speed>0.0</speed>
  <fix>3d</fix>
</trkpt>
<trkpt lat="40.0713749" lon="-105.229789">
  <ele>1583.0</ele>
  <time>2026-08-28T17:56:29Z</time>
  <course>247.47</course>
  <speed>0.0</speed>
  <fix>3d</fix>
</trkpt>
<trkpt lat="40.0713749" lon="-105.229789">
  <ele>1583.0</ele>
  <time>2026-08-28T17:56:29Z</time>
  <course>0.0</course>
  <speed>0.0</speed>
  <fix>3d</fix>
</trkpt>
<trkpt lat="40.0713749" lon="-105.229789">
  <ele>1583.0</ele>
  <time>2026-08-28T17:56:29Z</time>
  <course>247.52</course>
  <speed>0.0</speed>
  <fix>3d</fix>
</trkpt>
<trkpt lat="40.0713749" lon="-105.229789">
  <ele>1583.0</ele>
  <time>2026-08-28T17:56:29Z</time>
  <course>0.0</course>
  <speed>0.0</speed>
  <fix>3d</fix>
</trkpt>
<trkpt lat="40.0713749" lon="-105.229789">
  <ele>1583.0</ele>
  <time>2026-08-28T17:56:29Z</time>
  <course>247.57</course>
  <speed>0.0</speed>
  <fix>3d</fix>
</trkpt>
<trkpt lat="40.0713749" lon="-105.229789">
  <ele>1583.0</ele>
  <time>2026-08-28T17:56:29Z</time>
  <course>0.0</course>
  <speed>0.0</speed>
  <fix>3d</fix>
</trkpt>
<trkpt lat="40.0713749" lon="-105.229789">
  <ele>1583.0</ele>
  <time>2026-08-28T17:56:29Z</time>
  <course>247.62</course>
  <speed>0.0</speed>
  <fix>3d</fix>
</trkpt>
<trkpt lat="40.0713749" lon="-105.229789">
  <ele>1583.0</ele>
  <time>2026-08-28T17:56:29Z</time>
  <course>0.0</course>
  <speed>0.0</speed>
  <fix>3d</fix>
</trkpt>
<trkpt lat="40.0713749" lon="-105.229789">
  <ele>1583.0</ele>
  <time>2026-08-28T17:56:29Z</time>
  <course>247.67</course>
  <speed>0.0</speed>
  <fix>3d</fix>
</trkpt>
<trkpt lat="40.0713749" lon="-105.229789">
  <ele>1583.0</ele>
  <time>2026-08-28T17:56:29Z</time>
  <course>0.0</course>
  <speed>0.0</speed>
  <fix>3d</fix>
</trkpt>
<trkpt lat="40.0713749" lon="-105.229789">
  <ele>1583.0</ele>
  <time>2026-08-28T17:56:29Z</time>
  <course>247.71</course>
  <speed>0.0</speed>
  <fix>3d</fix>
</trkpt>
<trkpt lat="40.0713749" lon="-105.229789">
  <ele>1583.0</ele>
  <time>2026-08-28T17:56:29Z</time>
  <course>0.0</course>
  <speed>0.0</speed>
  <fix>3d</fix>
</trkpt>
<trkpt lat="40.0713749" lon="-105.229789">
  <ele>1583.0</ele>
  <time>2026-08-28T17:56:29Z</time>
  <course>247.75</course>
  <speed>0.0</speed>
  <fix>3d</fix>
</trkpt>
<trkpt lat="40.0713749" lon="-105.229789">
  <ele>1583.0</ele>
  <time>2026-08-28T17:56:29Z</time>
  <course>0.0</course>
  <speed>0.0</speed>
  <fix>3d</fix>
</trkpt>
<trkpt lat="40.0713749" lon="-105.229789">
  <ele>1583.0</ele>
  <time>2026-08-28T17:56:29Z</time>
  <course>247.79</course>
  <speed>0.0</speed>
  <fix>3d</fix>
</trkpt>
<trkpt lat="40.0713749" lon="-105.229789">
  <ele>1583.0</ele>
  <time>2026-08-28T17:56:29Z</time>
  <course>0.0</course>
  <speed>0.0</speed>
  <fix>3d</fix>
</trkpt>
<trkpt lat="40.0713749" lon="-105.229789">
  <ele>1583.0</ele>
  <time>2026-08-28T17:56:29Z</time>
  <course>247.83</course>
  <speed>0.0</speed>
  <fix>3d</fix>
</trkpt>
<trkpt lat="40.0713749" lon="-105.229789">
  <ele>1583.0</ele>
  <time>2026-08-28T17:56:29Z</time>
  <course>0.0</course>
  <speed>0.0</speed>
  <fix>3d</fix>
</trkpt>
<trkpt lat="40.0713749" lon="-105.229789">
  <ele>1583.0</ele>
  <time>2026-08-28T17:56:29Z</time>
  <course>247.87</course>
  <speed>0.0</speed>
  <fix>3d</fix>
</trkpt>
<trkpt lat="40.0713749" lon="-105.229789">
  <ele>1583.0</ele>
  <time>2026-08-28T17:56:29Z</time>
  <course>0.0</course>
  <speed>0.0</speed>
  <fix>3d</fix>
</trkpt>
<trkpt lat="40.0713749" lon="-105.229789">
  <ele>1583.0</ele>
  <time>2026-08-28T17:56:29Z</time>
  <course>247.9</course>
  <speed>0.0</speed>
  <fix>3d</fix>
</trkpt>
<trkpt lat="40.0713749" lon="-105.229789">
  <ele>1583.0</ele>
  <time>2026-08-28T17:56:29Z</time>
  <course>0.0</course>
  <speed>0.0</speed>
  <fix>3d</fix>
</trkpt>
<trkpt lat="40.0713749" lon="-105.229789">
  <ele>1583.0</ele>
  <time>2026-08-28T17:56:29Z</time>
  <course>247.93</course>
  <speed>0.0</speed>
  <fix>3d</fix>
</trkpt>
<trkpt lat="40.0713749" lon="-105.229789">
  <ele>1583.0</ele>
  <time>2026-08-28T17:56:29Z</time>
  <course>0.0</course>
  <speed>0.0</speed>
  <fix>3d</fix>
</trkpt>
<trkpt lat="40.0713749" lon="-105.229789">
  <ele>1583.0</ele>
  <time>2026-08-28T17:56:29Z</time>
  <course>247.96</course>
  <speed>0.0</speed>
  <fix>3d</fix>
</trkpt>
<trkpt lat="40.0713749" lon="-105.229789">
  <ele>1583.0</ele>
  <time>2026-08-28T17:56:29Z</time>
  <course>0.0</course>
  <speed>0.0</speed>
  <fix>3d</fix>
</trkpt>
<trkpt lat="40.0713749" lon="-105.229789">
  <ele>1583.0</ele>
  <time>2026-08-28T17:56:29Z</time>
  <course>247.99</course>
  <speed>0.0</speed>
  <fix>3d</fix>
</trkpt>
<trkpt lat="40.0713749" lon="-105.229789">
  <ele>1583.0</ele>
  <time>2026-08-28T17:56:29Z</time>
  <course>0.0</course>
  <speed>0.0</speed>
  <fix>3d</fix>
</trkpt>
<trkpt lat="40.0713749" lon="-105.229789">
  <ele>1583.0</ele>
  <time>2026-08-28T17:56:29Z</time>
  <course>248.02</course>
  <speed>0.0</speed>
  <fix>3d</fix>
</trkpt>
<trkpt lat="40.0713749" lon="-105.229789">
  <ele>1583.0</ele>
  <time>2026-08-28T17:56:29Z</time>
  <course>0.0</course>
  <speed>0.0</speed>
  <fix>3d</fix>
</trkpt>
<trkpt lat="40.0713749" lon="-105.229789">
  <ele>1583.0</ele>
  <time>2026-08-28T17:56:29Z</time>
  <course>248.05</course>
  <speed>0.0</speed>
  <fix>3d</fix>
</trkpt>
<trkpt lat="40.0713749" lon="-105.229789">
  <ele>1583.0</ele>
  <time>2026-08-28T17:56:29Z</time>
  <course>0.0</course>
  <speed>0.0</speed>
  <fix>3d</fix>
</trkpt>
<trkpt lat="40.0713749" lon="-105.229789">
  <ele>1583.0</ele>
  <time>2026-08-28T17:56:29Z</time>
  <course>248.07</course>
  <speed>0.0</speed>
  <fix>3d</fix>
</trkpt>
<trkpt lat="40.0713749" lon="-105.229789">
  <ele>1583.0</ele>
  <time>2026-08-28T17:56:29Z</time>
  <course>0.0</course>
  <speed>0.0</speed>
  <fix>3d</fix>
</trkpt>
<trkpt lat="40.0713749" lon="-105.229789">
  <ele>1583.0</ele>
  <time>2026-08-28T17:56:29Z</time>
  <course>248.1</course>
  <speed>0.0</speed>
  <fix>3d</fix>
</trkpt>
<trkpt lat="40.0713749" lon="-105.229789">
  <ele>1583.0</ele>
  <time>2026-08-28T17:56:29Z</time>
  <course>0.0</course>
  <speed>0.0</speed>
  <fix>3d</fix>
</trkpt>
<trkpt lat="40.0713749" lon="-105.229789">
  <ele>1583.0</ele>
  <time>2026-08-28T17:56:29Z</time>
  <course>248.12</course>
  <speed>0.0</speed>
  <fix>3d</fix>
</trkpt>
<trkpt lat="40.0713749" lon="-105.229789">
  <ele>1583.0</ele>
  <time>2026-08-28T17:56:29Z</time>
  <course>0.0</course>
  <speed>0.0</speed>
  <fix>3d</fix>
</trkpt>
<trkpt lat="40.0713749" lon="-105.229789">
  <ele>1583.0</ele>
  <time>2026-08-28T17:56:29Z</time>
  <course>248.14</course>
  <speed>0.0</speed>
  <fix>3d</fix>
</trkpt>
<trkpt lat="40.0713749" lon="-105.229789">
  <ele>1583.0</ele>
  <time>2026-08-28T17:56:29Z</time>
  <course>0.0</course>
  <speed>0.0</speed>
  <fix>3d</fix>
</trkpt>
<trkpt lat="40.0713749" lon="-105.229789">
  <ele>1583.0</ele>
  <time>2026-08-28T17:56:29Z</time>
  <course>248.16</course>
  <speed>0.0</speed>
  <fix>3d</fix>
</trkpt>
<trkpt lat="40.0713749" lon="-105.229789">
  <ele>1583.0</ele>
  <time>2026-08-28T17:56:29Z</time>
  <course>0.0</course>
  <speed>0.0</speed>
  <fix>3d</fix>
</trkpt>
<trkpt lat="40.0713749" lon="-105.229789">
  <ele>1583.0</ele>
  <time>2026-08-28T17:56:29Z</time>
  <course>248.18</course>
  <speed>0.0</speed>
  <fix>3d</fix>
</trkpt>
<trkpt lat="40.0713749" lon="-105.229789">
  <ele>1583.0</ele>
  <time>2026-08-28T17:56:29Z</time>
  <course>0.0</course>
  <speed>0.0</speed>
  <fix>3d</fix>
</trkpt>
<trkpt lat="40.0713749" lon="-105.229789">
  <ele>1583.0</ele>
  <time>2026-08-28T17:56:29Z</time>
  <course>248.2</course>
  <speed>0.0</speed>
  <fix>3d</fix>
</trkpt>
<trkpt lat="40.0713749" lon="-105.229789">
  <ele>1583.0</ele>
  <time>2026-08-28T17:56:29Z</time>
  <course>0.0</course>
  <speed>0.0</speed>
  <fix>3d</fix>
</trkpt>
<trkpt lat="40.0713749" lon="-105.229789">
  <ele>1583.0</ele>
  <time>2026-08-28T17:56:29Z</time>
  <course>248.21</course>
  <speed>0.0</speed>
  <fix>3d</fix>
</trkpt>
<trkpt lat="40.0713749" lon="-105.229789">
  <ele>1583.0</ele>
  <time>2026-08-28T17:56:29Z</time>
  <course>0.0</course>
  <speed>0.0</speed>
  <fix>3d</fix>
</trkpt>
<trkpt lat="40.0713749" lon="-105.229789">
  <ele>1583.0</ele>
  <time>2026-08-28T17:56:29Z</time>
  <course>248.23</course>
  <speed>0.0</speed>
  <fix>3d</fix>
</trkpt>
<trkpt lat="40.0713749" lon="-105.229789">
  <ele>1583.0</ele>
  <time>2026-08-28T17:56:29Z</time>
  <course>0.0</course>
  <speed>0.0</speed>
  <fix>3d</fix>
</trkpt>
<trkpt lat="40.0713749" lon="-105.229789">
  <ele>1583.0</ele>
  <time>2026-08-28T17:56:29Z</time>
  <course>248.24</course>
  <speed>0.0</speed>
  <fix>3d</fix>
</trkpt>
<trkpt lat="40.0713749" lon="-105.229789">
  <ele>1583.0</ele>
  <time>2026-08-28T17:56:29Z</time>
  <course>0.0</course>
  <speed>0.0</speed>
  <fix>3d</fix>
</trkpt>
<trkpt lat="40.0713749" lon="-105.229789">
  <ele>1583.0</ele>
  <time>2026-08-28T17:56:29Z</time>
  <course>248.26</course>
  <speed>0.0</speed>
  <fix>3d</fix>
</trkpt>
<trkpt lat="40.0713749" lon="-105.229789">
  <ele>1583.0</ele>
  <time>2026-08-28T17:56:29Z</time>
  <course>0.0</course>
  <speed>0.0</speed>
  <fix>3d</fix>
</trkpt>
<trkpt lat="40.0713749" lon="-105.229789">
  <ele>1583.0</ele>
  <time>2026-08-28T17:56:29Z</time>
  <course>248.27</course>
  <speed>0.0</speed>
  <fix>3d</fix>
</trkpt>
<trkpt lat="40.0713749" lon="-105.229789">
  <ele>1583.0</ele>
  <time>2026-08-28T17:56:29Z</time>
  <course>0.0</course>
  <speed>0.0</speed>
  <fix>3d</fix>
</trkpt>
<trkpt lat="40.0713749" lon="-105.229789">
  <ele>1583.0</ele>
  <time>2026-08-28T17:56:29Z</time>
  <course>248.28</course>
  <speed>0.0</speed>
  <fix>3d</fix>
</trkpt>
<trkpt lat="40.0713749" lon="-105.229789">
  <ele>1583.0</ele>
  <time>2026-08-28T17:56:29Z</time>
  <course>0.0</course>
  <speed>0.0</speed>
  <fix>3d</fix>
</trkpt>
<trkpt lat="40.0713749" lon="-105.229789">
  <ele>1583.0</ele>
  <time>2026-08-28T17:56:29Z</time>
  <course>248.29</course>
  <speed>0.0</speed>
  <fix>3d</fix>
</trkpt>
<trkpt lat="40.0713749" lon="-105.229789">
  <ele>1583.0</ele>
  <time>2026-08-28T17:56:29Z</time>
  <course>0.0</course>
  <speed>0.0</speed>
  <fix>3d</fix>
</trkpt>
<trkpt lat="40.0713749" lon="-105.229789">
  <ele>1583.0</ele>
  <time>2026-08-28T17:56:29Z</time>
  <course>248.3</course>
  <speed>0.0</speed>
  <fix>3d</fix>
</trkpt>
<trkpt lat="40.0713749" lon="-105.229789">
  <ele>1583.0</ele>
  <time>2026-08-28T17:56:29Z</time>
  <course>0.0</course>
  <speed>0.0</speed>
  <fix>3d</fix>
</trkpt>
<trkpt lat="40.0713749" lon="-105.229789">
  <ele>1583.0</ele>
  <time>2026-08-28T17:56:29Z</time>
  <course>248.31</course>
  <speed>0.0</speed>
  <fix>3d</fix>
</trkpt>
<trkpt lat="40.0713749" lon="-105.229789">
  <ele>1583.0</ele>
  <time>2026-08-28T17:56:29Z</time>
  <course>0.0</course>
  <speed>0.0</speed>
  <fix>3d</fix>
</trkpt>
<trkpt lat="40.0713749" lon="-105.229789">
  <ele>1583.0</ele>
  <time>2026-08-28T17:56:29Z</time>
  <course>248.32</course>
  <speed>0.0</speed>
  <fix>3d</fix>
</trkpt>
<trkpt lat="40.0713749" lon="-105.229789">
  <ele>1583.0</ele>
  <time>2026-08-28T17:56:29Z</time>
  <course>0.0</course>
  <speed>0.0</speed>
  <fix>3d</fix>
</trkpt>
<trkpt lat="40.0713749" lon="-105.229789">
  <ele>1583.0</ele>
  <time>2026-08-28T17:56:29Z</time>
  <course>248.33</course>
  <speed>0.0</speed>
  <fix>3d</fix>
</trkpt>
<trkpt lat="40.0713749" lon="-105.229789">
  <ele>1583.0</ele>
  <time>2026-08-28T17:56:29Z</time>
  <course>0.0</course>
  <speed>0.0</speed>
  <fix>3d</fix>
</trkpt>
<trkpt lat="40.0713749" lon="-105.229789">
  <ele>1583.0</ele>
  <time>2026-08-28T17:56:29Z</time>
  <course>248.34</course>
  <speed>0.0</speed>
  <fix>3d</fix>
</trkpt>
<trkpt lat="40.0713749" lon="-105.229789">
  <ele>1583.0</ele>
  <time>2026-08-28T17:56:29Z</time>
  <course>0.0</course>
  <speed>0.0</speed>
  <fix>3d</fix>
</trkpt>
<trkpt lat="40.0713749" lon="-105.229789">
  <ele>1583.0</ele>
  <time>2026-08-28T17:56:29Z</time>
  <course>248.35</course>
  <speed>0.0</speed>
  <fix>3d</fix>
</trkpt>
<trkpt lat="40.0713749" lon="-105.229789">
  <ele>1583.0</ele>
  <time>2026-08-28T17:56:29Z</time>
  <course>0.0</course>
  <speed>0.0</speed>
  <fix>3d</fix>
</trkpt>
<trkpt lat="40.0713749" lon="-105.229789">
  <ele>1583.0</ele>
  <time>2026-08-28T17:56:29Z</time>
  <course>248.36</course>
  <speed>0.0</speed>
  <fix>3d</fix>
</trkpt>
<trkpt lat="40.0713749" lon="-105.229789">
  <ele>1583.0</ele>
  <time>2026-08-28T17:56:29Z</time>
  <course>0.0</course>
  <speed>0.0</speed>
  <fix>3d</fix>
</trkpt>
<trkpt lat="40.0713749" lon="-105.229789">
  <ele>1583.0</ele>
  <time>2026-08-28T17:56:29Z</time>
  <course>248.36</course>
  <speed>0.0</speed>
  <fix>3d</fix>
</trkpt>
<trkpt lat="40.0713749" lon="-105.229789">
  <ele>1583.0</ele>
  <time>2026-08-28T17:56:29Z</time>
  <course>0.0</course>
  <speed>0.0</speed>
  <fix>3d</fix>
</trkpt>
<trkpt lat="40.0713749" lon="-105.229789">
  <ele>1583.0</ele>
  <time>2026-08-28T17:56:29Z</time>
  <course>248.37</course>
  <speed>0.0</speed>
  <fix>3d</fix>
</trkpt>
<trkpt lat="40.0713749" lon="-105.229789">
  <ele>1583.0</ele>
  <time>2026-08-28T17:56:29Z</time>
  <course>0.0</course>
  <speed>0.0</speed>
  <fix>3d</fix>
</trkpt>
<trkpt lat="40.0713749" lon="-105.229789">
  <ele>1583.0</ele>
  <time>2026-08-28T17:56:29Z</time>
  <course>248.37</course>
  <speed>0.0</speed>
  <fix>3d</fix>
</trkpt>
<trkpt lat="40.0713749" lon="-105.229789">
  <ele>1583.0</ele>
  <time>2026-08-28T17:56:29Z</time>
  <course>0.0</course>
  <speed>0.0</speed>
  <fix>3d</fix>
</trkpt>
<trkpt lat="40.0713749" lon="-105.229789">
  <ele>1583.0</ele>
  <time>2026-08-28T17:56:29Z</time>
  <course>248.38</course>
  <speed>0.0</speed>
  <fix>3d</fix>
</trkpt>
<trkpt lat="40.0713749" lon="-105.229789">
  <ele>1583.0</ele>
  <time>2026-08-28T17:56:29Z</time>
  <course>0.0</course>
  <speed>0.0</speed>
  <fix>3d</fix>
</trkpt>
<trkpt lat="40.0713749" lon="-105.229789">
  <ele>1583.0</ele>
  <time>2026-08-28T17:56:29Z</time>
  <course>248.38</course>
  <speed>0.0</speed>
  <fix>3d</fix>
</trkpt>
<trkpt lat="40.0713749" lon="-105.229789">
  <ele>1583.0</ele>
  <time>2026-08-28T17:56:29Z</time>
  <course>0.0</course>
  <speed>0.0</speed>
  <fix>3d</fix>
</trkpt>
<trkpt lat="40.0713749" lon="-105.229789">
  <ele>1583.0</ele>
  <time>2026-08-28T17:56:29Z</time>
  <course>248.39</course>
  <speed>0.0</speed>
  <fix>3d</fix>
</trkpt>
<trkpt lat="40.0713749" lon="-105.229789">
  <ele>1583.0</ele>
  <time>2026-08-28T17:56:29Z</time>
  <course>0.0</course>
  <speed>0.0</speed>
  <fix>3d</fix>
</trkpt>
<trkpt lat="40.0713749" lon="-105.229789">
  <ele>1583.0</ele>
  <time>2026-08-28T17:56:29Z</time>
  <course>248.39</course>
  <speed>0.0</speed>
  <fix>3d</fix>
</trkpt>
<trkpt lat="40.0713749" lon="-105.229789">
  <ele>1583.0</ele>
  <time>2026-08-28T17:56:29Z</time>
  <course>0.0</course>
  <speed>0.0</speed>
  <fix>3d</fix>
</trkpt>
<trkpt lat="40.0713749" lon="-105.229789">
  <ele>1583.0</ele>
  <time>2026-08-28T17:56:29Z</time>
  <course>248.39</course>
  <speed>0.0</speed>
  <fix>3d</fix>
</trkpt>
<trkpt lat="40.0713749" lon="-105.229789">
  <ele>1583.0</ele>
  <time>2026-08-28T17:56:29Z</time>
  <course>0.0</course>
  <speed>0.0</speed>
  <fix>3d</fix>
</trkpt>
<trkpt lat="40.0713749" lon="-105.229789">
  <ele>1583.0</ele>
  <time>2026-08-28T17:56:29Z</time>
  <course>248.4</course>
  <speed>0.0</speed>
  <fix>3d</fix>
</trkpt>
<trkpt lat="40.0713749" lon="-105.229789">
  <ele>1583.0</ele>
  <time>2026-08-28T17:56:29Z</time>
  <course>0.0</course>
  <speed>0.0</speed>
  <fix>3d</fix>
</trkpt>
<trkpt lat="40.0713749" lon="-105.229789">
  <ele>1583.0</ele>
  <time>2026-08-28T17:56:29Z</time>
  <course>248.4</course>
  <speed>0.0</speed>
  <fix>3d</fix>
</trkpt>
<trkpt lat="40.0713749" lon="-105.229789">
  <ele>1583.0</ele>
  <time>2026-08-28T17:56:29Z</time>
  <course>0.0</course>
  <speed>0.0</speed>
  <fix>3d</fix>
</trkpt>
<trkpt lat="40.0713749" lon="-105.229789">
  <ele>1583.0</ele>
  <time>2026-08-28T17:56:29Z</time>
  <course>248.4</course>
  <speed>0.0</speed>
  <fix>3d</fix>
</trkpt>
<trkpt lat="40.0713749" lon="-105.229789">
  <ele>1583.0</ele>
  <time>2026-08-28T17:56:29Z</time>
  <course>0.0</course>
  <speed>0.0</speed>
  <fix>3d</fix>
</trkpt>
<trkpt lat="40.0713749" lon="-105.229789">
  <ele>1583.0</ele>
  <time>2026-08-28T17:56:29Z</time>
  <course>248.4</course>
  <speed>0.0</speed>
  <fix>3d</fix>
</trkpt>
<trkpt lat="40.0713749" lon="-105.229789">
  <ele>1583.0</ele>
  <time>2026-08-28T17:56:29Z</time>
  <course>0.0</course>
  <speed>0.0</speed>
  <fix>3d</fix>
</trkpt>
<trkpt lat="40.0713749" lon="-105.229789">
  <ele>1583.0</ele>
  <time>2026-08-28T17:56:29Z</time>
  <course>248.4</course>
  <speed>0.0</speed>
  <fix>3d</fix>
</trkpt>
<trkpt lat="40.0713749" lon="-105.229789">
  <ele>1583.0</ele>
  <time>2026-08-28T17:56:29Z</time>
  <course>0.0</course>
  <speed>0.0</speed>
  <fix>3d</fix>
</trkpt>
<trkpt lat="40.0713749" lon="-105.229789">
  <ele>1583.0</ele>
  <time>2026-08-28T17:56:29Z</time>
  <course>248.4</course>
  <speed>0.0</speed>
  <fix>3d</fix>
</trkpt>
<trkpt lat="40.0713749" lon="-105.229789">
  <ele>1583.0</ele>
  <time>2026-08-28T17:56:29Z</time>
  <course>0.0</course>
  <speed>0.0</speed>
  <fix>3d</fix>
</trkpt>
<trkpt lat="40.0713749" lon="-105.229789">
  <ele>1583.0</ele>
  <time>2026-08-28T17:56:29Z</time>
  <course>248.4</course>
  <speed>0.0</speed>
  <fix>3d</fix>
</trkpt>
<trkpt lat="40.0713749" lon="-105.229789">
  <ele>1583.0</ele>
  <time>2026-08-28T17:56:29Z</time>
  <course>0.0</course>
  <speed>0.0</speed>
  <fix>3d</fix>
</trkpt>
<trkpt lat="40.0713749" lon="-105.229789">
  <ele>1583.0</ele>
  <time>2026-08-28T17:56:29Z</time>
  <course>248.41</course>
  <speed>0.0</speed>
  <fix>3d</fix>
</trkpt>
<trkpt lat="40.0713749" lon="-105.229789">
  <ele>1583.0</ele>
  <time>2026-08-28T17:56:29Z</time>
  <course>0.0</course>
  <speed>0.0</speed>
  <fix>3d</fix>
</trkpt>
<trkpt lat="40.0713749" lon="-105.229789">
  <ele>1583.0</ele>
  <time>2026-08-28T17:56:29Z</time>
  <course>248.41</course>
  <speed>0.0</speed>
  <fix>3d</fix>
</trkpt>
<trkpt lat="40.0713749" lon="-105.229789">
  <ele>1583.0</ele>
  <time>2026-08-28T17:56:29Z</time>
  <course>0.0</course>
  <speed>0.0</speed>
  <fix>3d</fix>
</trkpt>
<trkpt lat="40.0713749" lon="-105.229789">
  <ele>1583.0</ele>
  <time>2026-08-28T17:56:29Z</time>
  <course>248.41</course>
  <speed>0.0</speed>
  <fix>3d</fix>
</trkpt>
<trkpt lat="40.0713749" lon="-105.229789">
  <ele>1583.0</ele>
  <time>2026-08-28T17:56:29Z</time>
  <course>0.0</course>
  <speed>0.0</speed>
  <fix>3d</fix>
</trkpt>
<trkpt lat="40.0713749" lon="-105.229789">
  <ele>1583.0</ele>
  <time>2026-08-28T17:56:29Z</time>
  <course>248.41</course>
  <speed>0.0</speed>
  <fix>3d</fix>
</trkpt>
<trkpt lat="40.0713749" lon="-105.229789">
  <ele>1583.0</ele>
  <time>2026-08-28T17:56:29Z</time>
  <course>0.0</course>
  <speed>0.0</speed>
  <fix>3d</fix>
</trkpt>
<trkpt lat="40.0713749" lon="-105.229789">
  <ele>1583.0</ele>
  <time>2026-08-28T17:56:29Z</time>
  <course>248.41</course>
  <speed>0.0</speed>
  <fix>3d</fix>
</trkpt>
<trkpt lat="40.0713749" lon="-105.229789">
  <ele>1583.0</ele>
  <time>2026-08-28T17:56:29Z</time>
  <course>0.0</course>
  <speed>0.0</speed>
  <fix>3d</fix>
</trkpt>
<trkpt lat="40.0713749" lon="-105.229789">
  <ele>1583.0</ele>
  <time>2026-08-28T17:56:29Z</time>
  <course>248.41</course>
  <speed>0.0</speed>
  <fix>3d</fix>
</trkpt>
<trkpt lat="40.0713749" lon="-105.229789">
  <ele>1583.0</ele>
  <time>2026-08-28T17:56:29Z</time>
  <course>0.0</course>
  <speed>0.0</speed>
  <fix>3d</fix>
</trkpt>
<trkpt lat="40.0713749" lon="-105.229789">
  <ele>1583.0</ele>
  <time>2026-08-28T17:56:29Z</time>
  <course>248.4</course>
  <speed>0.0</speed>
  <fix>3d</fix>
</trkpt>
<trkpt lat="40.0713749" lon="-105.229789">
  <ele>1583.0</ele>
  <time>2026-08-28T17:56:29Z</time>
  <course>0.0</course>
  <speed>0.0</speed>
  <fix>3d</fix>
</trkpt>
<trkpt lat="40.0713749" lon="-105.229789">
  <ele>1583.0</ele>
  <time>2026-08-28T17:56:29Z</time>
  <course>248.4</course>
  <speed>0.0</speed>
  <fix>3d</fix>
</trkpt>
<trkpt lat="40.0713749" lon="-105.229789">
  <ele>1583.0</ele>
  <time>2026-08-28T17:56:29Z</time>
  <course>0.0</course>
  <speed>0.0</speed>
  <fix>3d</fix>
</trkpt>
<trkpt lat="40.0713749" lon="-105.229789">
  <ele>1583.0</ele>
  <time>2026-08-28T17:56:29Z</time>
  <course>248.4</course>
  <speed>0.0</speed>
  <fix>3d</fix>
</trkpt>
<trkpt lat="40.0713749" lon="-105.229789">
  <ele>1583.0</ele>
  <time>2026-08-28T17:56:29Z</time>
  <course>0.0</course>
  <speed>0.0</speed>
  <fix>3d</fix>
</trkpt>
<trkpt lat="40.0713749" lon="-105.229789">
  <ele>1583.0</ele>
  <time>2026-08-28T17:56:29Z</time>
  <course>248.4</course>
  <speed>0.0</speed>
  <fix>3d</fix>
</trkpt>
<trkpt lat="40.0713749" lon="-105.229789">
  <ele>1583.0</ele>
  <time>2026-08-28T17:56:29Z</time>
  <course>0.0</course>
  <speed>0.0</speed>
  <fix>3d</fix>
</trkpt>
<trkpt lat="40.0713749" lon="-105.229789">
  <ele>1583.0</ele>
  <time>2026-08-28T17:56:29Z</time>
  <course>248.4</course>
  <speed>0.0</speed>
  <fix>3d</fix>
</trkpt>
<trkpt lat="40.0713749" lon="-105.229789">
  <ele>1583.0</ele>
  <time>2026-08-28T17:56:29Z</time>
  <course>0.0</course>
  <speed>0.0</speed>
  <fix>3d</fix>
</trkpt>
<trkpt lat="40.0713749" lon="-105.229789">
  <ele>1583.0</ele>
  <time>2026-08-28T17:56:29Z</time>
  <course>248.4</course>
  <speed>0.0</speed>
  <fix>3d</fix>
</trkpt>
<trkpt lat="40.0713749" lon="-105.229789">
  <ele>1583.0</ele>
  <time>2026-08-28T17:56:29Z</time>
  <course>0.0</course>
  <speed>0.0</speed>
  <fix>3d</fix>
</trkpt>
<trkpt lat="40.0713749" lon="-105.229789">
  <ele>1583.0</ele>
  <time>2026-08-28T17:56:29Z</time>
  <course>248.4</course>
  <speed>0.0</speed>
  <fix>3d</fix>
</trkpt>
<trkpt lat="40.0713749" lon="-105.229789">
  <ele>1583.0</ele>
  <time>2026-08-28T17:56:29Z</time>
  <course>0.0</course>
  <speed>0.0</speed>
  <fix>3d</fix>
</trkpt>
<trkpt lat="40.0713749" lon="-105.229789">
  <ele>1583.0</ele>
  <time>2026-08-28T17:56:29Z</time>
  <course>248.39</course>
  <speed>0.01</speed>
  <fix>3d</fix>
</trkpt>
<trkpt lat="40.0713749" lon="-105.229789">
  <ele>1583.0</ele>
  <time>2026-08-28T17:56:29Z</time>
  <course>0.0</course>
  <speed>0.0</speed>
  <fix>3d</fix>
</trkpt>
<trkpt lat="40.0713749" lon="-105.229789">
  <ele>1583.0</ele>
  <time>2026-08-28T17:56:29Z</time>
  <course>248.39</course>
  <speed>0.01</speed>
  <fix>3d</fix>
</trkpt>
<trkpt lat="40.0713749" lon="-105.229789">
  <ele>1583.0</ele>
  <time>2026-08-28T17:56:29Z</time>
  <course>0.0</course>
  <speed>0.0</speed>
  <fix>3d</fix>
</trkpt>
<trkpt lat="40.0713749" lon="-105.229789">
  <ele>1583.0</ele>
  <time>2026-08-28T17:56:29Z</time>
  <course>248.39</course>
  <speed>0.01</speed>
  <fix>3d</fix>
</trkpt>
<trkpt lat="40.0713749" lon="-105.229789">
  <ele>1583.0</ele>
  <time>2026-08-28T17:56:29Z</time>
  <course>0.0</course>
  <speed>0.0</speed>
  <fix>3d</fix>
</trkpt>
<trkpt lat="40.0713749" lon="-105.229789">
  <ele>1583.0</ele>
  <time>2026-08-28T17:56:29Z</time>
  <course>248.39</course>
  <speed>0.01</speed>
  <fix>3d</fix>
</trkpt>
<trkpt lat="40.0713749" lon="-105.229789">
  <ele>1583.0</ele>
  <time>2026-08-28T17:56:29Z</time>
  <course>0.0</course>
  <speed>0.0</speed>
  <fix>3d</fix>
</trkpt>
<trkpt lat="40.0713749" lon="-105.229789">
  <ele>1583.0</ele>
  <time>2026-08-28T17:56:29Z</time>
  <course>248.38</course>
  <speed>0.01</speed>
  <fix>3d</fix>
</trkpt>
<trkpt lat="40.0713749" lon="-105.229789">
  <ele>1583.0</ele>
  <time>2026-08-28T17:56:29Z</time>
  <course>0.0</course>
  <speed>0.0</speed>
  <fix>3d</fix>
</trkpt>
<trkpt lat="40.0713749" lon="-105.229789">
  <ele>1583.0</ele>
  <time>2026-08-28T17:56:29Z</time>
  <course>248.38</course>
  <speed>0.01</speed>
  <fix>3d</fix>
</trkpt>
<trkpt lat="40.0713749" lon="-105.229789">
  <ele>1583.0</ele>
  <time>2026-08-28T17:56:29Z</time>
  <course>0.0</course>
  <speed>0.0</speed>
  <fix>3d</fix>
</trkpt>
<trkpt lat="40.0713749" lon="-105.229789">
  <ele>1583.0</ele>
  <time>2026-08-28T17:56:29Z</time>
  <course>248.38</course>
  <speed>0.01</speed>
  <fix>3d</fix>
</trkpt>
<trkpt lat="40.0713749" lon="-105.229789">
  <ele>1583.0</ele>
  <time>2026-08-28T17:56:29Z</time>
  <course>0.0</course>
  <speed>0.0</speed>
  <fix>3d</fix>
</trkpt>
<trkpt lat="40.0713749" lon="-105.229789">
  <ele>1583.0</ele>
  <time>2026-08-28T17:56:29Z</time>
  <course>248.37</course>
  <speed>0.01</speed>
  <fix>3d</fix>
</trkpt>
<trkpt lat="40.0713749" lon="-105.229789">
  <ele>1583.0</ele>
  <time>2026-08-28T17:56:29Z</time>
  <course>0.0</course>
  <speed>0.0</speed>
  <fix>3d</fix>
</trkpt>
<trkpt lat="40.0713749" lon="-105.229789">
  <ele>1583.0</ele>
  <time>2026-08-28T17:56:29Z</time>
  <course>248.37</course>
  <speed>0.01</speed>
  <fix>3d</fix>
</trkpt>
<trkpt lat="40.0713749" lon="-105.229789">
  <ele>1583.0</ele>
  <time>2026-08-28T17:56:29Z</time>
  <course>0.0</course>
  <speed>0.0</speed>
  <fix>3d</fix>
</trkpt>
<trkpt lat="40.0713749" lon="-105.229789">
  <ele>1583.0</ele>
  <time>2026-08-28T17:56:29Z</time>
  <course>248.37</course>
  <speed>0.01</speed>
  <fix>3d</fix>
</trkpt>
<trkpt lat="40.0713749" lon="-105.229789">
  <ele>1583.0</ele>
  <time>2026-08-28T17:56:29Z</time>
  <course>0.0</course>
  <speed>0.0</speed>
  <fix>3d</fix>
</trkpt>
<trkpt lat="40.0713749" lon="-105.229789">
  <ele>1583.0</ele>
  <time>2026-08-28T17:56:29Z</time>
  <course>248.36</course>
  <speed>0.01</speed>
  <fix>3d</fix>
</trkpt>
<trkpt lat="40.0713749" lon="-105.229789">
  <ele>1583.0</ele>
  <time>2026-08-28T17:56:29Z</time>
  <course>0.0</course>
  <speed>0.0</speed>
  <fix>3d</fix>
</trkpt>
<trkpt lat="40.0713749" lon="-105.229789">
  <ele>1583.0</ele>
  <time>2026-08-28T17:56:29Z</time>
  <course>248.36</course>
  <speed>0.01</speed>
  <fix>3d</fix>
</trkpt>
<trkpt lat="40.0713749" lon="-105.229789">
  <ele>1583.0</ele>
  <time>2026-08-28T17:56:29Z</time>
  <course>0.0</course>
  <speed>0.0</speed>
  <fix>3d</fix>
</trkpt>
<trkpt lat="40.0713749" lon="-105.229789">
  <ele>1583.0</ele>
  <time>2026-08-28T17:56:29Z</time>
  <course>248.36</course>
  <speed>0.01</speed>
  <fix>3d</fix>
</trkpt>
<trkpt lat="40.0713749" lon="-105.229789">
  <ele>1583.0</ele>
  <time>2026-08-28T17:56:29Z</time>
  <course>0.0</course>
  <speed>0.0</speed>
  <fix>3d</fix>
</trkpt>
<trkpt lat="40.0713749" lon="-105.229789">
  <ele>1583.0</ele>
  <time>2026-08-28T17:56:29Z</time>
  <course>248.35</course>
  <speed>0.01</speed>
  <fix>3d</fix>
</trkpt>
<trkpt lat="40.0713749" lon="-105.229789">
  <ele>1583.0</ele>
  <time>2026-08-28T17:56:29Z</time>
  <course>0.0</course>
  <speed>0.0</speed>
  <fix>3d</fix>
</trkpt>
<trkpt lat="40.0713749" lon="-105.229789">
  <ele>1583.0</ele>
  <time>2026-08-28T17:56:29Z</time>
  <course>248.35</course>
  <speed>0.01</speed>
  <fix>3d</fix>
</trkpt>
<trkpt lat="40.0713749" lon="-105.229789">
  <ele>1583.0</ele>
  <time>2026-08-28T17:56:29Z</time>
  <course>0.0</course>
  <speed>0.0</speed>
  <fix>3d</fix>
</trkpt>
<trkpt lat="40.0713749" lon="-105.229789">
  <ele>1583.0</ele>
  <time>2026-08-28T17:56:29Z</time>
  <course>248.35</course>
  <speed>0.01</speed>
  <fix>3d</fix>
</trkpt>
<trkpt lat="40.0713749" lon="-105.229789">
  <ele>1583.0</ele>
  <time>2026-08-28T17:56:29Z</time>
  <course>0.0</course>
  <speed>0.0</speed>
  <fix>3d</fix>
</trkpt>
<trkpt lat="40.0713749" lon="-105.229789">
  <ele>1583.0</ele>
  <time>2026-08-28T17:56:29Z</time>
  <course>248.34</course>
  <speed>0.01</speed>
  <fix>3d</fix>
</trkpt>
<trkpt lat="40.0713749" lon="-105.229789">
  <ele>1583.0</ele>
  <time>2026-08-28T17:56:29Z</time>
  <course>0.0</course>
  <speed>0.0</speed>
  <fix>3d</fix>
</trkpt>
<trkpt lat="40.0713749" lon="-105.229789">
  <ele>1583.0</ele>
  <time>2026-08-28T17:56:29Z</time>
  <course>248.34</course>
  <speed>0.01</speed>
  <fix>3d</fix>
</trkpt>
<trkpt lat="40.0713749" lon="-105.229789">
  <ele>1583.0</ele>
  <time>2026-08-28T17:56:29Z</time>
  <course>0.0</course>
  <speed>0.0</speed>
  <fix>3d</fix>
</trkpt>
<trkpt lat="40.0713749" lon="-105.229789">
  <ele>1583.0</ele>
  <time>2026-08-28T17:56:29Z</time>
  <course>248.34</course>
  <speed>0.01</speed>
  <fix>3d</fix>
</trkpt>
<trkpt lat="40.0713749" lon="-105.229789">
  <ele>1583.0</ele>
  <time>2026-08-28T17:56:29Z</time>
  <course>0.0</course>
  <speed>0.0</speed>
  <fix>3d</fix>
</trkpt>
<trkpt lat="40.0713749" lon="-105.229789">
  <ele>1583.0</ele>
  <time>2026-08-28T17:56:29Z</time>
  <course>248.33</course>
  <speed>0.01</speed>
  <fix>3d</fix>
</trkpt>
<trkpt lat="40.0713749" lon="-105.229789">
  <ele>1583.0</ele>
  <time>2026-08-28T17:56:29Z</time>
  <course>0.0</course>
  <speed>0.0</speed>
  <fix>3d</fix>
</trkpt>
<trkpt lat="40.0713749" lon="-105.229789">
  <ele>1583.0</ele>
  <time>2026-08-28T17:56:29Z</time>
  <course>248.33</course>
  <speed>0.01</speed>
  <fix>3d</fix>
</trkpt>
<trkpt lat="40.0713749" lon="-105.229789">
  <ele>1583.0</ele>
  <time>2026-08-28T17:56:29Z</time>
  <course>0.0</course>
  <speed>0.0</speed>
  <fix>3d</fix>
</trkpt>
<trkpt lat="40.0713749" lon="-105.229789">
  <ele>1583.0</ele>
  <time>2026-08-28T17:56:29Z</time>
  <course>248.32</course>
  <speed>0.01</speed>
  <fix>3d</fix>
</trkpt>
<trkpt lat="40.0713749" lon="-105.229789">
  <ele>1583.0</ele>
  <time>2026-08-28T17:56:29Z</time>
  <course>0.0</course>
  <speed>0.0</speed>
  <fix>3d</fix>
</trkpt>
<trkpt lat="40.0713749" lon="-105.229789">
  <ele>1583.0</ele>
  <time>2026-08-28T17:56:29Z</time>
  <course>248.32</course>
  <speed>0.01</speed>
  <fix>3d</fix>
</trkpt>
<trkpt lat="40.0713749" lon="-105.229789">
  <ele>1583.0</ele>
  <time>2026-08-28T17:56:29Z</time>
  <course>0.0</course>
  <speed>0.0</speed>
  <fix>3d</fix>
</trkpt>
<trkpt lat="40.0713749" lon="-105.229789">
  <ele>1583.0</ele>
  <time>2026-08-28T17:56:29Z</time>
  <course>248.31</course>
  <speed>0.01</speed>
  <fix>3d</fix>
</trkpt>
<trkpt lat="40.0713749" lon="-105.229789">
  <ele>1583.0</ele>
  <time>2026-08-28T17:56:29Z</time>
  <course>0.0</course>
  <speed>0.0</speed>
  <fix>3d</fix>
</trkpt>
<trkpt lat="40.0713749" lon="-105.229789">
  <ele>1583.0</ele>
  <time>2026-08-28T17:56:29Z</time>
  <course>248.31</course>
  <speed>0.01</speed>
  <fix>3d</fix>
</trkpt>
<trkpt lat="40.0713749" lon="-105.229789">
  <ele>1583.0</ele>
  <time>2026-08-28T17:56:29Z</time>
  <course>0.0</course>
  <speed>0.0</speed>
  <fix>3d</fix>
</trkpt>
<trkpt lat="40.0713749" lon="-105.229789">
  <ele>1583.0</ele>
  <time>2026-08-28T17:56:29Z</time>
  <course>248.31</course>
  <speed>0.01</speed>
  <fix>3d</fix>
</trkpt>
<trkpt lat="40.0713749" lon="-105.229789">
  <ele>1583.0</ele>
  <time>2026-08-28T17:56:29Z</time>
  <course>0.0</course>
  <speed>0.0</speed>
  <fix>3d</fix>
</trkpt>
<trkpt lat="40.0713749" lon="-105.229789">
  <ele>1583.0</ele>
  <time>2026-08-28T17:56:29Z</time>
  <course>248.3</course>
  <speed>0.01</speed>
  <fix>3d</fix>
</trkpt>
<trkpt lat="40.0713749" lon="-105.229789">
  <ele>1583.0</ele>
  <time>2026-08-28T17:56:29Z</time>
  <course>0.0</course>
  <speed>0.0</speed>
  <fix>3d</fix>
</trkpt>
<trkpt lat="40.0713749" lon="-105.229789">
  <ele>1583.0</ele>
  <time>2026-08-28T17:56:29Z</time>
  <course>248.3</course>
  <speed>0.01</speed>
  <fix>3d</fix>
</trkpt>
<trkpt lat="40.0713749" lon="-105.229789">
  <ele>1583.0</ele>
  <time>2026-08-28T17:56:29Z</time>
  <course>0.0</course>
  <speed>0.0</speed>
  <fix>3d</fix>
</trkpt>
<trkpt lat="40.0713749" lon="-105.229789">
  <ele>1583.0</ele>
  <time>2026-08-28T17:56:29Z</time>
  <course>248.29</course>
  <speed>0.01</speed>
  <fix>3d</fix>
</trkpt>
<trkpt lat="40.0713749" lon="-105.229789">
  <ele>1583.0</ele>
  <time>2026-08-28T17:56:29Z</time>
  <course>0.0</course>
  <speed>0.0</speed>
  <fix>3d</fix>
</trkpt>
<trkpt lat="40.0713749" lon="-105.229789">
  <ele>1583.0</ele>
  <time>2026-08-28T17:56:29Z</time>
  <course>248.29</course>
  <speed>0.01</speed>
  <fix>3d</fix>
</trkpt>
<trkpt lat="40.0713749" lon="-105.229789">
  <ele>1583.0</ele>
  <time>2026-08-28T17:56:29Z</time>
  <course>0.0</course>
  <speed>0.0</speed>
  <fix>3d</fix>
</trkpt>
<trkpt lat="40.0713749" lon="-105.229789">
  <ele>1583.0</ele>
  <time>2026-08-28T17:56:29Z</time>
  <course>248.28</course>
  <speed>0.01</speed>
  <fix>3d</fix>
</trkpt>
<trkpt lat="40.0713749" lon="-105.229789">
  <ele>1583.0</ele>
  <time>2026-08-28T17:56:29Z</time>
  <course>0.0</course>
  <speed>0.0</speed>
  <fix>3d</fix>
</trkpt>
<trkpt lat="40.0713749" lon="-105.229789">
  <ele>1583.0</ele>
  <time>2026-08-28T17:56:29Z</time>
  <course>248.28</course>
  <speed>0.01</speed>
  <fix>3d</fix>
</trkpt>
<trkpt lat="40.0713749" lon="-105.229789">
  <ele>1583.0</ele>
  <time>2026-08-28T17:56:29Z</time>
  <course>0.0</course>
  <speed>0.0</speed>
  <fix>3d</fix>
</trkpt>
<trkpt lat="40.0713749" lon="-105.229789">
  <ele>1583.0</ele>
  <time>2026-08-28T17:56:29Z</time>
  <course>248.27</course>
  <speed>0.01</speed>
  <fix>3d</fix>
</trkpt>
<trkpt lat="40.0713749" lon="-105.229789">
  <ele>1583.0</ele>
  <time>2026-08-28T17:56:29Z</time>
  <course>0.0</course>
  <speed>0.0</speed>
  <fix>3d</fix>
</trkpt>
<trkpt lat="40.0713749" lon="-105.229789">
  <ele>1583.0</ele>
  <time>2026-08-28T17:56:29Z</time>
  <course>248.27</course>
  <speed>0.01</speed>
  <fix>3d</fix>
</trkpt>
<trkpt lat="40.0713749" lon="-105.229789">
  <ele>1583.0</ele>
  <time>2026-08-28T17:56:29Z</time>
  <course>0.0</course>
  <speed>0.0</speed>
  <fix>3d</fix>
</trkpt>
<trkpt lat="40.0713749" lon="-105.229789">
  <ele>1583.0</ele>
  <time>2026-08-28T17:56:29Z</time>
  <course>248.26</course>
  <speed>0.01</speed>
  <fix>3d</fix>
</trkpt>
<trkpt lat="40.0713749" lon="-105.229789">
  <ele>1583.0</ele>
  <time>2026-08-28T17:56:29Z</time>
  <course>0.0</course>
  <speed>0.0</speed>
  <fix>3d</fix>
</trkpt>
<trkpt lat="40.0713749" lon="-105.229789">
  <ele>1583.0</ele>
  <time>2026-08-28T17:56:29Z</time>
  <course>248.26</course>
  <speed>0.01</speed>
  <fix>3d</fix>
</trkpt>
<trkpt lat="40.0713749" lon="-105.229789">
  <ele>1583.0</ele>
  <time>2026-08-28T17:56:29Z</time>
  <course>0.0</course>
  <speed>0.0</speed>
  <fix>3d</fix>
</trkpt>
<trkpt lat="40.0713749" lon="-105.229789">
  <ele>1583.0</ele>
  <time>2026-08-28T17:56:29Z</time>
  <course>248.25</course>
  <speed>0.01</speed>
  <fix>3d</fix>
</trkpt>
<trkpt lat="40.0713749" lon="-105.229789">
  <ele>1583.0</ele>
  <time>2026-08-28T17:56:29Z</time>
  <course>0.0</course>
  <speed>0.0</speed>
  <fix>3d</fix>
</trkpt>
<trkpt lat="40.0713749" lon="-105.229789">
  <ele>1583.0</ele>
  <time>2026-08-28T17:56:29Z</time>
  <course>248.25</course>
  <speed>0.01</speed>
  <fix>3d</fix>
</trkpt>
<trkpt lat="40.0713749" lon="-105.229789">
  <ele>1583.0</ele>
  <time>2026-08-28T17:56:29Z</time>
  <course>0.0</course>
  <speed>0.0</speed>
  <fix>3d</fix>
</trkpt>
<trkpt lat="40.0713749" lon="-105.229789">
  <ele>1583.0</ele>
  <time>2026-08-28T17:56:29Z</time>
  <course>248.25</course>
  <speed>0.01</speed>
  <fix>3d</fix>
</trkpt>
<trkpt lat="40.0713749" lon="-105.229789">
  <ele>1583.0</ele>
  <time>2026-08-28T17:56:29Z</time>
  <course>0.0</course>
  <speed>0.0</speed>
  <fix>3d</fix>
</trkpt>
<trkpt lat="40.0713749" lon="-105.229789">
  <ele>1583.0</ele>
  <time>2026-08-28T17:56:29Z</time>
  <course>248.24</course>
  <speed>0.01</speed>
  <fix>3d</fix>
</trkpt>
<trkpt lat="40.0713749" lon="-105.229789">
  <ele>1583.0</ele>
  <time>2026-08-28T17:56:29Z</time>
  <course>0.0</course>
  <speed>0.0</speed>
  <fix>3d</fix>
</trkpt>
<trkpt lat="40.0713749" lon="-105.229789">
  <ele>1583.0</ele>
  <time>2026-08-28T17:56:29Z</time>
  <course>248.24</course>
  <speed>0.01</speed>
  <fix>3d</fix>
</trkpt>
<trkpt lat="40.0713749" lon="-105.229789">
  <ele>1583.0</ele>
  <time>2026-08-28T17:56:29Z</time>
  <course>0.0</course>
  <speed>0.0</speed>
  <fix>3d</fix>
</trkpt>
<trkpt lat="40.0713749" lon="-105.229789">
  <ele>1583.0</ele>
  <time>2026-08-28T17:56:29Z</time>
  <course>248.23</course>
  <speed>0.01</speed>
  <fix>3d</fix>
</trkpt>
<trkpt lat="40.0713749" lon="-105.229789">
  <ele>1583.0</ele>
  <time>2026-08-28T17:56:29Z</time>
  <course>0.0</course>
  <speed>0.0</speed>
  <fix>3d</fix>
</trkpt>
<trkpt lat="40.0713749" lon="-105.229789">
  <ele>1583.0</ele>
  <time>2026-08-28T17:56:29Z</time>
  <course>248.23</course>
  <speed>0.01</speed>
  <fix>3d</fix>
</trkpt>
<trkpt lat="40.0713749" lon="-105.229789">
  <ele>1583.0</ele>
  <time>2026-08-28T17:56:29Z</time>
  <course>0.0</course>
  <speed>0.0</speed>
  <fix>3d</fix>
</trkpt>
<trkpt lat="40.0713749" lon="-105.229789">
  <ele>1583.0</ele>
  <time>2026-08-28T17:56:29Z</time>
  <course>248.22</course>
  <speed>0.01</speed>
  <fix>3d</fix>
</trkpt>
<trkpt lat="40.0713749" lon="-105.229789">
  <ele>1583.0</ele>
  <time>2026-08-28T17:56:29Z</time>
  <course>0.0</course>
  <speed>0.0</speed>
  <fix>3d</fix>
</trkpt>
<trkpt lat="40.0713749" lon="-105.229789">
  <ele>1583.0</ele>
  <time>2026-08-28T17:56:29Z</time>
  <course>248.22</course>
  <speed>0.01</speed>
  <fix>3d</fix>
</trkpt>
<trkpt lat="40.0713749" lon="-105.229789">
  <ele>1583.0</ele>
  <time>2026-08-28T17:56:29Z</time>
  <course>0.0</course>
  <speed>0.0</speed>
  <fix>3d</fix>
</trkpt>
<trkpt lat="40.0713749" lon="-105.229789">
  <ele>1583.0</ele>
  <time>2026-08-28T17:56:29Z</time>
  <course>248.21</course>
  <speed>0.01</speed>
  <fix>3d</fix>
</trkpt>
<trkpt lat="40.0713749" lon="-105.229789">
  <ele>1583.0</ele>
  <time>2026-08-28T17:56:29Z</time>
  <course>0.0</course>
  <speed>0.0</speed>
  <fix>3d</fix>
</trkpt>
<trkpt lat="40.0713749" lon="-105.229789">
  <ele>1583.0</ele>
  <time>2026-08-28T17:56:29Z</time>
  <course>248.21</course>
  <speed>0.01</speed>
  <fix>3d</fix>
</trkpt>
<trkpt lat="40.0713749" lon="-105.229789">
  <ele>1583.0</ele>
  <time>2026-08-28T17:56:29Z</time>
  <course>0.0</course>
  <speed>0.0</speed>
  <fix>3d</fix>
</trkpt>
<trkpt lat="40.0713749" lon="-105.229789">
  <ele>1583.0</ele>
  <time>2026-08-28T17:56:29Z</time>
  <course>248.2</course>
  <speed>0.01</speed>
  <fix>3d</fix>
</trkpt>
<trkpt lat="40.0713749" lon="-105.229789">
  <ele>1583.0</ele>
  <time>2026-08-28T17:56:29Z</time>
  <course>0.0</course>
  <speed>0.0</speed>
  <fix>3d</fix>
</trkpt>
<trkpt lat="40.0713749" lon="-105.229789">
  <ele>1583.0</ele>
  <time>2026-08-28T17:56:29Z</time>
  <course>248.2</course>
  <speed>0.01</speed>
  <fix>3d</fix>
</trkpt>
<trkpt lat="40.0713749" lon="-105.229789">
  <ele>1583.0</ele>
  <time>2026-08-28T17:56:29Z</time>
  <course>0.0</course>
  <speed>0.0</speed>
  <fix>3d</fix>
</trkpt>
<trkpt lat="40.0713749" lon="-105.229789">
  <ele>1583.0</ele>
  <time>2026-08-28T17:56:29Z</time>
  <course>248.19</course>
  <speed>0.01</speed>
  <fix>3d</fix>
</trkpt>
<trkpt lat="40.0713749" lon="-105.229789">
  <ele>1583.0</ele>
  <time>2026-08-28T17:56:29Z</time>
  <course>0.0</course>
  <speed>0.0</speed>
  <fix>3d</fix>
</trkpt>
<trkpt lat="40.0713749" lon="-105.229789">
  <ele>1583.0</ele>
  <time>2026-08-28T17:56:29Z</time>
  <course>248.19</course>
  <speed>0.01</speed>
  <fix>3d</fix>
</trkpt>
<trkpt lat="40.0713749" lon="-105.229789">
  <ele>1583.0</ele>
  <time>2026-08-28T17:56:29Z</time>
  <course>0.0</course>
  <speed>0.0</speed>
  <fix>3d</fix>
</trkpt>
<trkpt lat="40.0713749" lon="-105.229789">
  <ele>1583.0</ele>
  <time>2026-08-28T17:56:29Z</time>
  <course>248.18</course>
  <speed>0.01</speed>
  <fix>3d</fix>
</trkpt>
<trkpt lat="40.0713749" lon="-105.229789">
  <ele>1583.0</ele>
  <time>2026-08-28T17:56:29Z</time>
  <course>0.0</course>
  <speed>0.0</speed>
  <fix>3d</fix>
</trkpt>
<trkpt lat="40.0713749" lon="-105.229789">
  <ele>1583.0</ele>
  <time>2026-08-28T17:56:29Z</time>
  <course>248.18</course>
  <speed>0.01</speed>
  <fix>3d</fix>
</trkpt>
<trkpt lat="40.0713749" lon="-105.229789">
  <ele>1583.0</ele>
  <time>2026-08-28T17:56:29Z</time>
  <course>0.0</course>
  <speed>0.0</speed>
  <fix>3d</fix>
</trkpt>
<trkpt lat="40.0713749" lon="-105.229789">
  <ele>1583.0</ele>
  <time>2026-08-28T17:56:29Z</time>
  <course>248.17</course>
  <speed>0.01</speed>
  <fix>3d</fix>
</trkpt>
<trkpt lat="40.0713749" lon="-105.229789">
  <ele>1583.0</ele>
  <time>2026-08-28T17:56:29Z</time>
  <course>0.0</course>
  <speed>0.0</speed>
  <fix>3d</fix>
</trkpt>
<trkpt lat="40.0713749" lon="-105.229789">
  <ele>1583.0</ele>
  <time>2026-08-28T17:56:29Z</time>
  <course>248.17</course>
  <speed>0.02</speed>
  <fix>3d</fix>
</trkpt>
<trkpt lat="40.0713749" lon="-105.229789">
  <ele>1583.0</ele>
  <time>2026-08-28T17:56:29Z</time>
  <course>0.0</course>
  <speed>0.0</speed>
  <fix>3d</fix>
</trkpt>
<trkpt lat="40.0713749" lon="-105.229789">
  <ele>1583.0</ele>
  <time>2026-08-28T17:56:29Z</time>
  <course>248.16</course>
  <speed>0.02</speed>
  <fix>3d</fix>
</trkpt>
<trkpt lat="40.0713749" lon="-105.229789">
  <ele>1583.0</ele>
  <time>2026-08-28T17:56:29Z</time>
  <course>0.0</course>
  <speed>0.0</speed>
  <fix>3d</fix>
</trkpt>
<trkpt lat="40.0713749" lon="-105.229789">
  <ele>1583.0</ele>
  <time>2026-08-28T17:56:29Z</time>
  <course>248.16</course>
  <speed>0.022360679774997897</speed>
  <fix>3d</fix>
</trkpt>
<trkpt lat="40.0713749" lon="-105.229789">
  <ele>1583.0</ele>
  <time>2026-08-28T17:56:29Z</time>
  <course>0.0</course>
  <speed>0.0</speed>
  <fix>3d</fix>
</trkpt>
<trkpt lat="40.0713749" lon="-105.229789">
  <ele>1583.0</ele>
  <time>2026-08-28T17:56:29Z</time>
  <course>248.15</course>
  <speed>0.022360679774997897</speed>
  <fix>3d</fix>
</trkpt>
<trkpt lat="40.0713749" lon="-105.229789">
  <ele>1583.0</ele>
  <time>2026-08-28T17:56:29Z</time>
  <course>0.0</course>
  <speed>0.0</speed>
  <fix>3d</fix>
</trkpt>
<trkpt lat="40.0713749" lon="-105.229789">
  <ele>1583.0</ele>
  <time>2026-08-28T17:56:29Z</time>
  <course>248.15</course>
  <speed>0.022360679774997897</speed>
  <fix>3d</fix>
</trkpt>
<trkpt lat="40.0713749" lon="-105.229789">
  <ele>1583.0</ele>
  <time>2026-08-28T17:56:29Z</time>
  <course>0.0</course>
  <speed>0.0</speed>
  <fix>3d</fix>
</trkpt>
<trkpt lat="40.0713749" lon="-105.229789">
  <ele>1583.0</ele>
  <time>2026-08-28T17:56:29Z</time>
  <course>248.14</course>
  <speed>0.022360679774997897</speed>
  <fix>3d</fix>
</trkpt>
<trkpt lat="40.0713749" lon="-105.229789">
  <ele>1583.0</ele>
  <time>2026-08-28T17:56:29Z</time>
  <course>0.0</course>
  <speed>0.0</speed>
  <fix>3d</fix>
</trkpt>
<trkpt lat="40.0713749" lon="-105.229789">
  <ele>1583.0</ele>
  <time>2026-08-28T17:56:29Z</time>
  <course>248.14</course>
  <speed>0.022360679774997897</speed>
  <fix>3d</fix>
</trkpt>
<trkpt lat="40.0713749" lon="-105.229789">
  <ele>1583.0</ele>
  <time>2026-08-28T17:56:29Z</time>
  <course>0.0</course>
  <speed>0.0</speed>
  <fix>3d</fix>
</trkpt>
<trkpt lat="40.0713749" lon="-105.229789">
  <ele>1583.0</ele>
  <time>2026-08-28T17:56:29Z</time>
  <course>248.13</course>
  <speed>0.022360679774997897</speed>
  <fix>3d</fix>
</trkpt>
<trkpt lat="40.0713749" lon="-105.229789">
  <ele>1583.0</ele>
  <time>2026-08-28T17:56:29Z</time>
  <course>0.0</course>
  <speed>0.0</speed>
  <fix>3d</fix>
</trkpt>
<trkpt lat="40.0713749" lon="-105.229789">
  <ele>1583.0</ele>
  <time>2026-08-28T17:56:29Z</time>
  <course>248.13</course>
  <speed>0.022360679774997897</speed>
  <fix>3d</fix>
</trkpt>
<trkpt lat="40.0713749" lon="-105.229789">
  <ele>1583.0</ele>
  <time>2026-08-28T17:56:29Z</time>
  <course>0.0</course>
  <speed>0.0</speed>
  <fix>3d</fix>
</trkpt>
<trkpt lat="40.0713749" lon="-105.229789">
  <ele>1583.0</ele>
  <time>2026-08-28T17:56:29Z</time>
  <course>248.12</course>
  <speed>0.022360679774997897</speed>
  <fix>3d</fix>
</trkpt>
<trkpt lat="40.0713749" lon="-105.229789">
  <ele>1583.0</ele>
  <time>2026-08-28T17:56:29Z</time>
  <course>0.0</course>
  <speed>0.0</speed>
  <fix>3d</fix>
</trkpt>
<trkpt lat="40.0713749" lon="-105.229789">
  <ele>1583.0</ele>
  <time>2026-08-28T17:56:29Z</time>
  <course>248.12</course>
  <speed>0.022360679774997897</speed>
  <fix>3d</fix>
</trkpt>
<trkpt lat="40.0713749" lon="-105.229789">
  <ele>1583.0</ele>
  <time>2026-08-28T17:56:29Z</time>
  <course>0.0</course>
  <speed>0.0</speed>
  <fix>3d</fix>
</trkpt>
<trkpt lat="40.0713749" lon="-105.229789">
  <ele>1583.0</ele>
  <time>2026-08-28T17:56:29Z</time>
  <course>248.11</course>
  <speed>0.022360679774997897</speed>
  <fix>3d</fix>
</trkpt>
<trkpt lat="40.0713749" lon="-105.229789">
  <ele>1583.0</ele>
  <time>2026-08-28T17:56:29Z</time>
  <course>0.0</course>
  <speed>0.0</speed>
  <fix>3d</fix>
</trkpt>
<trkpt lat="40.0713749" lon="-105.229789">
  <ele>1583.0</ele>
  <time>2026-08-28T17:56:29Z</time>
  <course>248.11</course>
  <speed>0.022360679774997897</speed>
  <fix>3d</fix>
</trkpt>
<trkpt lat="40.0713749" lon="-105.229789">
  <ele>1583.0</ele>
  <time>2026-08-28T17:56:29Z</time>
  <course>0.0</course>
  <speed>0.0</speed>
  <fix>3d</fix>
</trkpt>
<trkpt lat="40.0713749" lon="-105.229789">
  <ele>1583.0</ele>
  <time>2026-08-28T17:56:29Z</time>
  <course>248.1</course>
  <speed>0.022360679774997897</speed>
  <fix>3d</fix>
</trkpt>
<trkpt lat="40.0713749" lon="-105.229789">
  <ele>1583.0</ele>
  <time>2026-08-28T17:56:29Z</time>
  <course>0.0</course>
  <speed>0.0</speed>
  <fix>3d</fix>
</trkpt>
<trkpt lat="40.0713749" lon="-105.229789">
  <ele>1583.0</ele>
  <time>2026-08-28T17:56:29Z</time>
  <course>248.1</course>
  <speed>0.022360679774997897</speed>
  <fix>3d</fix>
</trkpt>
<trkpt lat="40.0713749" lon="-105.229789">
  <ele>1583.0</ele>
  <time>2026-08-28T17:56:29Z</time>
  <course>0.0</course>
  <speed>0.0</speed>
  <fix>3d</fix>
</trkpt>
<trkpt lat="40.0713749" lon="-105.229789">
  <ele>1583.0</ele>
  <time>2026-08-28T17:56:29Z</time>
  <course>248.09</course>
  <speed>0.022360679774997897</speed>
  <fix>3d</fix>
</trkpt>
<trkpt lat="40.0713749" lon="-105.229789">
  <ele>1583.0</ele>
  <time>2026-08-28T17:56:29Z</time>
  <course>0.0</course>
  <speed>0.0</speed>
  <fix>3d</fix>
</trkpt>
<trkpt lat="40.0713749" lon="-105.229789">
  <ele>1583.0</ele>
  <time>2026-08-28T17:56:29Z</time>
  <course>248.09</course>
  <speed>0.022360679774997897</speed>
  <fix>3d</fix>
</trkpt>
<trkpt lat="40.0713749" lon="-105.229789">
  <ele>1583.0</ele>
  <time>2026-08-28T17:56:29Z</time>
  <course>0.0</course>
  <speed>0.0</speed>
  <fix>3d</fix>
</trkpt>
<trkpt lat="40.0713749" lon="-105.229789">
  <ele>1583.0</ele>
  <time>2026-08-28T17:56:29Z</time>
  <course>248.08</course>
  <speed>0.022360679774997897</speed>
  <fix>3d</fix>
</trkpt>
<trkpt lat="40.0713749" lon="-105.229789">
  <ele>1583.0</ele>
  <time>2026-08-28T17:56:29Z</time>
  <course>0.0</course>
  <speed>0.0</speed>
  <fix>3d</fix>
</trkpt>
<trkpt lat="40.0713749" lon="-105.229789">
  <ele>1583.0</ele>
  <time>2026-08-28T17:56:29Z</time>
  <course>248.08</course>
  <speed>0.022360679774997897</speed>
  <fix>3d</fix>
</trkpt>
<trkpt lat="40.0713749" lon="-105.229789">
  <ele>1583.0</ele>
  <time>2026-08-28T17:56:29Z</time>
  <course>0.0</course>
  <speed>0.0</speed>
  <fix>3d</fix>
</trkpt>
<trkpt lat="40.0713749" lon="-105.229789">
  <ele>1583.0</ele>
  <time>2026-08-28T17:56:29Z</time>
  <course>248.07</course>
  <speed>0.022360679774997897</speed>
  <fix>3d</fix>
</trkpt>
<trkpt lat="40.0713749" lon="-105.229789">
  <ele>1583.0</ele>
  <time>2026-08-28T17:56:29Z</time>
  <course>0.0</course>
  <speed>0.0</speed>
  <fix>3d</fix>
</trkpt>
<trkpt lat="40.0713749" lon="-105.229789">
  <ele>1583.0</ele>
  <time>2026-08-28T17:56:29Z</time>
  <course>248.07</course>
  <speed>0.022360679774997897</speed>
  <fix>3d</fix>
</trkpt>
<trkpt lat="40.0713749" lon="-105.229789">
  <ele>1583.0</ele>
  <time>2026-08-28T17:56:29Z</time>
  <course>0.0</course>
  <speed>0.0</speed>
  <fix>3d</fix>
</trkpt>
<trkpt lat="40.0713749" lon="-105.229789">
  <ele>1583.0</ele>
  <time>2026-08-28T17:56:29Z</time>
  <course>248.06</course>
  <speed>0.022360679774997897</speed>
  <fix>3d</fix>
</trkpt>
<trkpt lat="40.0713749" lon="-105.229789">
  <ele>1583.0</ele>
  <time>2026-08-28T17:56:29Z</time>
  <course>0.0</course>
  <speed>0.0</speed>
  <fix>3d</fix>
</trkpt>
<trkpt lat="40.0713749" lon="-105.229789">
  <ele>1583.0</ele>
  <time>2026-08-28T17:56:29Z</time>
  <course>248.06</course>
  <speed>0.022360679774997897</speed>
  <fix>3d</fix>
</trkpt>
<trkpt lat="40.0713749" lon="-105.229789">
  <ele>1583.0</ele>
  <time>2026-08-28T17:56:29Z</time>
  <course>0.0</course>
  <speed>0.0</speed>
  <fix>3d</fix>
</trkpt>
<trkpt lat="40.0713749" lon="-105.229789">
  <ele>1583.0</ele>
  <time>2026-08-28T17:56:29Z</time>
  <course>248.06</course>
  <speed>0.022360679774997897</speed>
  <fix>3d</fix>
</trkpt>
<trkpt lat="40.0713749" lon="-105.229789">
  <ele>1583.0</ele>
  <time>2026-08-28T17:56:29Z</time>
  <course>0.0</course>
  <speed>0.0</speed>
  <fix>3d</fix>
</trkpt>
<trkpt lat="40.0713749" lon="-105.229789">
  <ele>1583.0</ele>
  <time>2026-08-28T17:56:29Z</time>
  <course>248.05</course>
  <speed>0.022360679774997897</speed>
  <fix>3d</fix>
</trkpt>
<trkpt lat="40.0713749" lon="-105.229789">
  <ele>1583.0</ele>
  <time>2026-08-28T17:56:29Z</time>
  <course>0.0</course>
  <speed>0.0</speed>
  <fix>3d</fix>
</trkpt>
<trkpt lat="40.0713749" lon="-105.229789">
  <ele>1583.0</ele>
  <time>2026-08-28T17:56:29Z</time>
  <course>248.05</course>
  <speed>0.022360679774997897</speed>
  <fix>3d</fix>
</trkpt>
<trkpt lat="40.0713749" lon="-105.229789">
  <ele>1583.0</ele>
  <time>2026-08-28T17:56:29Z</time>
  <course>0.0</course>
  <speed>0.0</speed>
  <fix>3d</fix>
</trkpt>
<trkpt lat="40.0713749" lon="-105.229789">
  <ele>1583.0</ele>
  <time>2026-08-28T17:56:29Z</time>
  <course>248.04</course>
  <speed>0.022360679774997897</speed>
  <fix>3d</fix>
</trkpt>
<trkpt lat="40.0713749" lon="-105.229789">
  <ele>1583.0</ele>
  <time>2026-08-28T17:56:29Z</time>
  <course>0.0</course>
  <speed>0.0</speed>
  <fix>3d</fix>
</trkpt>
<trkpt lat="40.0713749" lon="-105.229789">
  <ele>1583.0</ele>
  <time>2026-08-28T17:56:29Z</time>
  <course>248.04</course>
  <speed>0.022360679774997897</speed>
  <fix>3d</fix>
</trkpt>
<trkpt lat="40.0713749" lon="-105.229789">
  <ele>1583.0</ele>
  <time>2026-08-28T17:56:29Z</time>
  <course>0.0</course>
  <speed>0.0</speed>
  <fix>3d</fix>
</trkpt>
<trkpt lat="40.0713749" lon="-105.229789">
  <ele>1583.0</ele>
  <time>2026-08-28T17:56:29Z</time>
  <course>248.03</course>
  <speed>0.022360679774997897</speed>
  <fix>3d</fix>
</trkpt>
<trkpt lat="40.0713749" lon="-105.229789">
  <ele>1583.0</ele>
  <time>2026-08-28T17:56:29Z</time>
  <course>0.0</course>
  <speed>0.0</speed>
  <fix>3d</fix>
</trkpt>
<trkpt lat="40.0713749" lon="-105.229789">
  <ele>1583.0</ele>
  <time>2026-08-28T17:56:29Z</time>
  <course>248.03</course>
  <speed>0.022360679774997897</speed>
  <fix>3d</fix>
</trkpt>
<trkpt lat="40.0713749" lon="-105.229789">
  <ele>1583.0</ele>
  <time>2026-08-28T17:56:29Z</time>
  <course>0.0</course>
  <speed>0.0</speed>
  <fix>3d</fix>
</trkpt>
<trkpt lat="40.0713749" lon="-105.229789">
  <ele>1583.0</ele>
  <time>2026-08-28T17:56:29Z</time>
  <course>248.02</course>
  <speed>0.022360679774997897</speed>
  <fix>3d</fix>
</trkpt>
<trkpt lat="40.0713749" lon="-105.229789">
  <ele>1583.0</ele>
  <time>2026-08-28T17:56:29Z</time>
  <course>0.0</course>
  <speed>0.0</speed>
  <fix>3d</fix>
</trkpt>
<trkpt lat="40.0713749" lon="-105.229789">
  <ele>1583.0</ele>
  <time>2026-08-28T17:56:29Z</time>
  <course>248.02</course>
  <speed>0.022360679774997897</speed>
  <fix>3d</fix>
</trkpt>
<trkpt lat="40.0713749" lon="-105.229789">
  <ele>1583.0</ele>
  <time>2026-08-28T17:56:29Z</time>
  <course>0.0</course>
  <speed>0.0</speed>
  <fix>3d</fix>
</trkpt>
<trkpt lat="40.0713749" lon="-105.229789">
  <ele>1583.0</ele>
  <time>2026-08-28T17:56:29Z</time>
  <course>248.01</course>
  <speed>0.022360679774997897</speed>
  <fix>3d</fix>
</trkpt>
<trkpt lat="40.0713749" lon="-105.229789">
  <ele>1583.0</ele>
  <time>2026-08-28T17:56:29Z</time>
  <course>0.0</course>
  <speed>0.0</speed>
  <fix>3d</fix>
</trkpt>
<trkpt lat="40.0713749" lon="-105.229789">
  <ele>1583.0</ele>
  <time>2026-08-28T17:56:29Z</time>
  <course>248.01</course>
  <speed>0.022360679774997897</speed>
  <fix>3d</fix>
</trkpt>
<trkpt lat="40.0713749" lon="-105.229789">
  <ele>1583.0</ele>
  <time>2026-08-28T17:56:29Z</time>
  <course>0.0</course>
  <speed>0.0</speed>
  <fix>3d</fix>
</trkpt>
<trkpt lat="40.0713749" lon="-105.229789">
  <ele>1583.0</ele>
  <time>2026-08-28T17:56:29Z</time>
  <course>248.0</course>
  <speed>0.022360679774997897</speed>
  <fix>3d</fix>
</trkpt>
<trkpt lat="40.0713749" lon="-105.229789">
  <ele>1583.0</ele>
  <time>2026-08-28T17:56:29Z</time>
  <course>0.0</course>
  <speed>0.0</speed>
  <fix>3d</fix>
</trkpt>
<trkpt lat="40.0713749" lon="-105.229789">
  <ele>1583.0</ele>
  <time>2026-08-28T17:56:29Z</time>
  <course>248.0</course>
  <speed>0.022360679774997897</speed>
  <fix>3d</fix>
</trkpt>
<trkpt lat="40.0713749" lon="-105.229789">
  <ele>1583.0</ele>
  <time>2026-08-28T17:56:29Z</time>
  <course>0.0</course>
  <speed>0.0</speed>
  <fix>3d</fix>
</trkpt>
<trkpt lat="40.0713749" lon="-105.229789">
  <ele>1583.0</ele>
  <time>2026-08-28T17:56:29Z</time>
  <course>247.99</course>
  <speed>0.022360679774997897</speed>
  <fix>3d</fix>
</trkpt>
<trkpt lat="40.0713749" lon="-105.229789">
  <ele>1583.0</ele>
  <time>2026-08-28T17:56:29Z</time>
  <course>0.0</course>
  <speed>0.0</speed>
  <fix>3d</fix>
</trkpt>
<trkpt lat="40.0713749" lon="-105.229789">
  <ele>1583.0</ele>
  <time>2026-08-28T17:56:29Z</time>
  <course>247.99</course>
  <speed>0.022360679774997897</speed>
  <fix>3d</fix>
</trkpt>
<trkpt lat="40.0713749" lon="-105.229789">
  <ele>1583.0</ele>
  <time>2026-08-28T17:56:29Z</time>
  <course>0.0</course>
  <speed>0.0</speed>
  <fix>3d</fix>
</trkpt>
<trkpt lat="40.0713749" lon="-105.229789">
  <ele>1583.0</ele>
  <time>2026-08-28T17:56:29Z</time>
  <course>247.99</course>
  <speed>0.022360679774997897</speed>
  <fix>3d</fix>
</trkpt>
<trkpt lat="40.0713749" lon="-105.229789">
  <ele>1583.0</ele>
  <time>2026-08-28T17:56:29Z</time>
  <course>0.0</course>
  <speed>0.0</speed>
  <fix>3d</fix>
</trkpt>
<trkpt lat="40.0713749" lon="-105.229789">
  <ele>1583.0</ele>
  <time>2026-08-28T17:56:29Z</time>
  <course>247.98</course>
  <speed>0.022360679774997897</speed>
  <fix>3d</fix>
</trkpt>
<trkpt lat="40.0713749" lon="-105.229789">
  <ele>1583.0</ele>
  <time>2026-08-28T17:56:29Z</time>
  <course>0.0</course>
  <speed>0.0</speed>
  <fix>3d</fix>
</trkpt>
<trkpt lat="40.0713749" lon="-105.229789">
  <ele>1583.0</ele>
  <time>2026-08-28T17:56:29Z</time>
  <course>247.98</course>
  <speed>0.022360679774997897</speed>
  <fix>3d</fix>
</trkpt>
<trkpt lat="40.0713749" lon="-105.229789">
  <ele>1583.0</ele>
  <time>2026-08-28T17:56:29Z</time>
  <course>0.0</course>
  <speed>0.0</speed>
  <fix>3d</fix>
</trkpt>
<trkpt lat="40.0713749" lon="-105.229789">
  <ele>1583.0</ele>
  <time>2026-08-28T17:56:29Z</time>
  <course>247.97</course>
  <speed>0.022360679774997897</speed>
  <fix>3d</fix>
</trkpt>
<trkpt lat="40.0713749" lon="-105.229789">
  <ele>1583.0</ele>
  <time>2026-08-28T17:56:29Z</time>
  <course>0.0</course>
  <speed>0.0</speed>
  <fix>3d</fix>
</trkpt>
<trkpt lat="40.0713749" lon="-105.229789">
  <ele>1583.0</ele>
  <time>2026-08-28T17:56:29Z</time>
  <course>247.97</course>
  <speed>0.022360679774997897</speed>
  <fix>3d</fix>
</trkpt>
<trkpt lat="40.0713749" lon="-105.229789">
  <ele>1583.0</ele>
  <time>2026-08-28T17:56:29Z</time>
  <course>0.0</course>
  <speed>0.0</speed>
  <fix>3d</fix>
</trkpt>
<trkpt lat="40.0713749" lon="-105.229789">
  <ele>1583.0</ele>
  <time>2026-08-28T17:56:29Z</time>
  <course>247.96</course>
  <speed>0.022360679774997897</speed>
  <fix>3d</fix>
</trkpt>
<trkpt lat="40.0713749" lon="-105.229789">
  <ele>1583.0</ele>
  <time>2026-08-28T17:56:29Z</time>
  <course>0.0</course>
  <speed>0.0</speed>
  <fix>3d</fix>
</trkpt>
<trkpt lat="40.0713749" lon="-105.229789">
  <ele>1583.0</ele>
  <time>2026-08-28T17:56:29Z</time>
  <course>247.96</course>
  <speed>0.022360679774997897</speed>
  <fix>3d</fix>
</trkpt>
<trkpt lat="40.0713749" lon="-105.229789">
  <ele>1583.0</ele>
  <time>2026-08-28T17:56:29Z</time>
  <course>0.0</course>
  <speed>0.0</speed>
  <fix>3d</fix>
</trkpt>
<trkpt lat="40.0713749" lon="-105.229789">
  <ele>1583.0</ele>
  <time>2026-08-28T17:56:29Z</time>
  <course>247.95</course>
  <speed>0.022360679774997897</speed>
  <fix>3d</fix>
</trkpt>
<trkpt lat="40.0713749" lon="-105.229789">
  <ele>1583.0</ele>
  <time>2026-08-28T17:56:29Z</time>
  <course>0.0</course>
  <speed>0.0</speed>
  <fix>3d</fix>
</trkpt>
<trkpt lat="40.0713749" lon="-105.229789">
  <ele>1583.0</ele>
  <time>2026-08-28T17:56:29Z</time>
  <course>247.95</course>
  <speed>0.022360679774997897</speed>
  <fix>3d</fix>
</trkpt>
<trkpt lat="40.0713749" lon="-105.229789">
  <ele>1583.0</ele>
  <time>2026-08-28T17:56:29Z</time>
  <course>0.0</course>
  <speed>0.0</speed>
  <fix>3d</fix>
</trkpt>
<trkpt lat="40.0713749" lon="-105.229789">
  <ele>1583.0</ele>
  <time>2026-08-28T17:56:29Z</time>
  <course>247.95</course>
  <speed>0.022360679774997897</speed>
  <fix>3d</fix>
</trkpt>
<trkpt lat="40.0713749" lon="-105.229789">
  <ele>1583.0</ele>
  <time>2026-08-28T17:56:29Z</time>
  <course>0.0</course>
  <speed>0.0</speed>
  <fix>3d</fix>
</trkpt>
<trkpt lat="40.0713749" lon="-105.229789">
  <ele>1583.0</ele>
  <time>2026-08-28T17:56:29Z</time>
  <course>247.94</course>
  <speed>0.022360679774997897</speed>
  <fix>3d</fix>
</trkpt>
<trkpt lat="40.0713749" lon="-105.229789">
  <ele>1583.0</ele>
  <time>2026-08-28T17:56:29Z</time>
  <course>0.0</course>
  <speed>0.0</speed>
  <fix>3d</fix>
</trkpt>
<trkpt lat="40.0713749" lon="-105.229789">
  <ele>1583.0</ele>
  <time>2026-08-28T17:56:29Z</time>
  <course>247.94</course>
  <speed>0.022360679774997897</speed>
  <fix>3d</fix>
</trkpt>
<trkpt lat="40.0713749" lon="-105.229789">
  <ele>1583.0</ele>
  <time>2026-08-28T17:56:29Z</time>
  <course>0.0</course>
  <speed>0.0</speed>
  <fix>3d</fix>
</trkpt>
<trkpt lat="40.0713749" lon="-105.229789">
  <ele>1583.0</ele>
  <time>2026-08-28T17:56:29Z</time>
  <course>247.93</course>
  <speed>0.022360679774997897</speed>
  <fix>3d</fix>
</trkpt>
<trkpt lat="40.0713749" lon="-105.229789">
  <ele>1583.0</ele>
  <time>2026-08-28T17:56:29Z</time>
  <course>0.0</course>
  <speed>0.0</speed>
  <fix>3d</fix>
</trkpt>
<trkpt lat="40.0713749" lon="-105.229789">
  <ele>1583.0</ele>
  <time>2026-08-28T17:56:29Z</time>
  <course>247.93</course>
  <speed>0.022360679774997897</speed>
  <fix>3d</fix>
</trkpt>
<trkpt lat="40.0713749" lon="-105.229789">
  <ele>1583.0</ele>
  <time>2026-08-28T17:56:29Z</time>
  <course>0.0</course>
  <speed>0.0</speed>
  <fix>3d</fix>
</trkpt>
<trkpt lat="40.0713749" lon="-105.229789">
  <ele>1583.0</ele>
  <time>2026-08-28T17:56:29Z</time>
  <course>247.92</course>
  <speed>0.022360679774997897</speed>
  <fix>3d</fix>
</trkpt>
<trkpt lat="40.0713749" lon="-105.229789">
  <ele>1583.0</ele>
  <time>2026-08-28T17:56:29Z</time>
  <course>0.0</course>
  <speed>0.0</speed>
  <fix>3d</fix>
</trkpt>
<trkpt lat="40.0713749" lon="-105.229789">
  <ele>1583.0</ele>
  <time>2026-08-28T17:56:29Z</time>
  <course>247.92</course>
  <speed>0.022360679774997897</speed>
  <fix>3d</fix>
</trkpt>
<trkpt lat="40.0713749" lon="-105.229789">
  <ele>1583.0</ele>
  <time>2026-08-28T17:56:29Z</time>
  <course>0.0</course>
  <speed>0.0</speed>
  <fix>3d</fix>
</trkpt>
<trkpt lat="40.0713749" lon="-105.229789">
  <ele>1583.0</ele>
  <time>2026-08-28T17:56:29Z</time>
  <course>247.91</course>
  <speed>0.022360679774997897</speed>
  <fix>3d</fix>
</trkpt>
<trkpt lat="40.0713749" lon="-105.229789">
  <ele>1583.0</ele>
  <time>2026-08-28T17:56:29Z</time>
  <course>0.0</course>
  <speed>0.0</speed>
  <fix>3d</fix>
</trkpt>
<trkpt lat="40.0713749" lon="-105.229789">
  <ele>1583.0</ele>
  <time>2026-08-28T17:56:29Z</time>
  <course>247.91</course>
  <speed>0.022360679774997897</speed>
  <fix>3d</fix>
</trkpt>
<trkpt lat="40.0713749" lon="-105.229789">
  <ele>1583.0</ele>
  <time>2026-08-28T17:56:29Z</time>
  <course>0.0</course>
  <speed>0.0</speed>
  <fix>3d</fix>
</trkpt>
<trkpt lat="40.0713749" lon="-105.229789">
  <ele>1583.0</ele>
  <time>2026-08-28T17:56:29Z</time>
  <course>247.91</course>
  <speed>0.022360679774997897</speed>
  <fix>3d</fix>
</trkpt>
<trkpt lat="40.0713749" lon="-105.229789">
  <ele>1583.0</ele>
  <time>2026-08-28T17:56:29Z</time>
  <course>0.0</course>
  <speed>0.0</speed>
  <fix>3d</fix>
</trkpt>
<trkpt lat="40.0713749" lon="-105.229789">
  <ele>1583.0</ele>
  <time>2026-08-28T17:56:29Z</time>
  <course>247.9</course>
  <speed>0.022360679774997897</speed>
  <fix>3d</fix>
</trkpt>
<trkpt lat="40.0713749" lon="-105.229789">
  <ele>1583.0</ele>
  <time>2026-08-28T17:56:29Z</time>
  <course>0.0</course>
  <speed>0.0</speed>
  <fix>3d</fix>
</trkpt>
<trkpt lat="40.0713749" lon="-105.229789">
  <ele>1583.0</ele>
  <time>2026-08-28T17:56:29Z</time>
  <course>247.9</course>
  <speed>0.022360679774997897</speed>
  <fix>3d</fix>
</trkpt>
<trkpt lat="40.0713749" lon="-105.229789">
  <ele>1583.0</ele>
  <time>2026-08-28T17:56:29Z</time>
  <course>0.0</course>
  <speed>0.0</speed>
  <fix>3d</fix>
</trkpt>
<trkpt lat="40.0713749" lon="-105.229789">
  <ele>1583.0</ele>
  <time>2026-08-28T17:56:29Z</time>
  <course>247.89</course>
  <speed>0.022360679774997897</speed>
  <fix>3d</fix>
</trkpt>
<trkpt lat="40.0713749" lon="-105.229789">
  <ele>1583.0</ele>
  <time>2026-08-28T17:56:29Z</time>
  <course>0.0</course>
  <speed>0.0</speed>
  <fix>3d</fix>
</trkpt>
<trkpt lat="40.0713749" lon="-105.229789">
  <ele>1583.0</ele>
  <time>2026-08-28T17:56:29Z</time>
  <course>247.89</course>
  <speed>0.022360679774997897</speed>
  <fix>3d</fix>
</trkpt>
<trkpt lat="40.0713749" lon="-105.229789">
  <ele>1583.0</ele>
  <time>2026-08-28T17:56:29Z</time>
  <course>0.0</course>
  <speed>0.0</speed>
  <fix>3d</fix>
</trkpt>
<trkpt lat="40.0713749" lon="-105.229789">
  <ele>1583.0</ele>
  <time>2026-08-28T17:56:29Z</time>
  <course>247.89</course>
  <speed>0.022360679774997897</speed>
  <fix>3d</fix>
</trkpt>
<trkpt lat="40.0713749" lon="-105.229789">
  <ele>1583.0</ele>
  <time>2026-08-28T17:56:29Z</time>
  <course>0.0</course>
  <speed>0.0</speed>
  <fix>3d</fix>
</trkpt>
<trkpt lat="40.0713749" lon="-105.229789">
  <ele>1583.0</ele>
  <time>2026-08-28T17:56:29Z</time>
  <course>247.88</course>
  <speed>0.022360679774997897</speed>
  <fix>3d</fix>
</trkpt>
<trkpt lat="40.0713749" lon="-105.229789">
  <ele>1583.0</ele>
  <time>2026-08-28T17:56:29Z</time>
  <course>0.0</course>
  <speed>0.0</speed>
  <fix>3d</fix>
</trkpt>
<trkpt lat="40.0713749" lon="-105.229789">
  <ele>1583.0</ele>
  <time>2026-08-28T17:56:29Z</time>
  <course>247.88</course>
  <speed>0.0316227766016838</speed>
  <fix>3d</fix>
</trkpt>
<trkpt lat="40.0713749" lon="-105.229789">
  <ele>1583.0</ele>
  <time>2026-08-28T17:56:29Z</time>
  <course>0.0</course>
  <speed>0.0</speed>
  <fix>3d</fix>
</trkpt>
<trkpt lat="40.0713749" lon="-105.229789">
  <ele>1583.0</ele>
  <time>2026-08-28T17:56:29Z</time>
  <course>247.87</course>
  <speed>0.0316227766016838</speed>
  <fix>3d</fix>
</trkpt>
<trkpt lat="40.0713749" lon="-105.229789">
  <ele>1583.0</ele>
  <time>2026-08-28T17:56:29Z</time>
  <course>0.0</course>
  <speed>0.0</speed>
  <fix>3d</fix>
</trkpt>
<trkpt lat="40.0713749" lon="-105.229789">
  <ele>1583.0</ele>
  <time>2026-08-28T17:56:29Z</time>
  <course>247.87</course>
  <speed>0.0316227766016838</speed>
  <fix>3d</fix>
</trkpt>
<trkpt lat="40.0713749" lon="-105.229789">
  <ele>1583.0</ele>
  <time>2026-08-28T17:56:29Z</time>
  <course>0.0</course>
  <speed>0.0</speed>
  <fix>3d</fix>
</trkpt>
<trkpt lat="40.0713749" lon="-105.229789">
  <ele>1583.0</ele>
  <time>2026-08-28T17:56:29Z</time>
  <course>247.87</course>
  <speed>0.0316227766016838</speed>
  <fix>3d</fix>
</trkpt>
<trkpt lat="40.0713749" lon="-105.229789">
  <ele>1583.0</ele>
  <time>2026-08-28T17:56:29Z</time>
  <course>0.0</course>
  <speed>0.0</speed>
  <fix>3d</fix>
</trkpt>
<trkpt lat="40.0713749" lon="-105.229789">
  <ele>1583.0</ele>
  <time>2026-08-28T17:56:29Z</time>
  <course>247.86</course>
  <speed>0.0316227766016838</speed>
  <fix>3d</fix>
</trkpt>
<trkpt lat="40.0713749" lon="-105.229789">
  <ele>1583.0</ele>
  <time>2026-08-28T17:56:29Z</time>
  <course>0.0</course>
  <speed>0.0</speed>
  <fix>3d</fix>
</trkpt>
<trkpt lat="40.0713749" lon="-105.229789">
  <ele>1583.0</ele>
  <time>2026-08-28T17:56:29Z</time>
  <course>247.86</course>
  <speed>0.0316227766016838</speed>
  <fix>3d</fix>
</trkpt>
<trkpt lat="40.0713749" lon="-105.229789">
  <ele>1583.0</ele>
  <time>2026-08-28T17:56:29Z</time>
  <course>0.0</course>
  <speed>0.0</speed>
  <fix>3d</fix>
</trkpt>
<trkpt lat="40.0713749" lon="-105.229789">
  <ele>1583.0</ele>
  <time>2026-08-28T17:56:29Z</time>
  <course>247.85</course>
  <speed>0.0316227766016838</speed>
  <fix>3d</fix>
</trkpt>
<trkpt lat="40.0713749" lon="-105.229789">
  <ele>1583.0</ele>
  <time>2026-08-28T17:56:29Z</time>
  <course>0.0</course>
  <speed>0.0</speed>
  <fix>3d</fix>
</trkpt>
<trkpt lat="40.0713749" lon="-105.229789">
  <ele>1583.0</ele>
  <time>2026-08-28T17:56:29Z</time>
  <course>247.85</course>
  <speed>0.0316227766016838</speed>
  <fix>3d</fix>
</trkpt>
<trkpt lat="40.0713749" lon="-105.229789">
  <ele>1583.0</ele>
  <time>2026-08-28T17:56:29Z</time>
  <course>0.0</course>
  <speed>0.0</speed>
  <fix>3d</fix>
</trkpt>
<trkpt lat="40.0713749" lon="-105.229789">
  <ele>1583.0</ele>
  <time>2026-08-28T17:56:29Z</time>
  <course>247.84</course>
  <speed>0.0316227766016838</speed>
  <fix>3d</fix>
</trkpt>
<trkpt lat="40.0713749" lon="-105.229789">
  <ele>1583.0</ele>
  <time>2026-08-28T17:56:29Z</time>
  <course>0.0</course>
  <speed>0.0</speed>
  <fix>3d</fix>
</trkpt>
<trkpt lat="40.0713749" lon="-105.229789">
  <ele>1583.0</ele>
  <time>2026-08-28T17:56:29Z</time>
  <course>247.84</course>
  <speed>0.0316227766016838</speed>
  <fix>3d</fix>
</trkpt>
<trkpt lat="40.0713749" lon="-105.229789">
  <ele>1583.0</ele>
  <time>2026-08-28T17:56:29Z</time>
  <course>0.0</course>
  <speed>0.0</speed>
  <fix>3d</fix>
</trkpt>
<trkpt lat="40.0713749" lon="-105.229789">
  <ele>1583.0</ele>
  <time>2026-08-28T17:56:29Z</time>
  <course>247.84</course>
  <speed>0.0316227766016838</speed>
  <fix>3d</fix>
</trkpt>
<trkpt lat="40.0713749" lon="-105.229789">
  <ele>1583.0</ele>
  <time>2026-08-28T17:56:29Z</time>
  <course>0.0</course>
  <speed>0.0</speed>
  <fix>3d</fix>
</trkpt>
<trkpt lat="40.0713749" lon="-105.229789">
  <ele>1583.0</ele>
  <time>2026-08-28T17:56:29Z</time>
  <course>247.83</course>
  <speed>0.0316227766016838</speed>
  <fix>3d</fix>
</trkpt>
<trkpt lat="40.0713749" lon="-105.229789">
  <ele>1583.0</ele>
  <time>2026-08-28T17:56:29Z</time>
  <course>0.0</course>
  <speed>0.0</speed>
  <fix>3d</fix>
</trkpt>
<trkpt lat="40.0713749" lon="-105.229789">
  <ele>1583.0</ele>
  <time>2026-08-28T17:56:29Z</time>
  <course>247.83</course>
  <speed>0.0316227766016838</speed>
  <fix>3d</fix>
</trkpt>
<trkpt lat="40.0713749" lon="-105.229789">
  <ele>1583.0</ele>
  <time>2026-08-28T17:56:29Z</time>
  <course>0.0</course>
  <speed>0.0</speed>
  <fix>3d</fix>
</trkpt>
<trkpt lat="40.0713749" lon="-105.229789">
  <ele>1583.0</ele>
  <time>2026-08-28T17:56:29Z</time>
  <course>247.83</course>
  <speed>0.0316227766016838</speed>
  <fix>3d</fix>
</trkpt>
<trkpt lat="40.0713749" lon="-105.229789">
  <ele>1583.0</ele>
  <time>2026-08-28T17:56:29Z</time>
  <course>0.0</course>
  <speed>0.0</speed>
  <fix>3d</fix>
</trkpt>
<trkpt lat="40.0713749" lon="-105.229789">
  <ele>1583.0</ele>
  <time>2026-08-28T17:56:29Z</time>
  <course>247.82</course>
  <speed>0.0316227766016838</speed>
  <fix>3d</fix>
</trkpt>
<trkpt lat="40.0713749" lon="-105.229789">
  <ele>1583.0</ele>
  <time>2026-08-28T17:56:29Z</time>
  <course>0.0</course>
  <speed>0.0</speed>
  <fix>3d</fix>
</trkpt>
<trkpt lat="40.0713749" lon="-105.229789">
  <ele>1583.0</ele>
  <time>2026-08-28T17:56:29Z</time>
  <course>247.82</course>
  <speed>0.0316227766016838</speed>
  <fix>3d</fix>
</trkpt>
<trkpt lat="40.0713749" lon="-105.229789">
  <ele>1583.0</ele>
  <time>2026-08-28T17:56:29Z</time>
  <course>0.0</course>
  <speed>0.0</speed>
  <fix>3d</fix>
</trkpt>
<trkpt lat="40.0713749" lon="-105.229789">
  <ele>1583.0</ele>
  <time>2026-08-28T17:56:29Z</time>
  <course>247.81</course>
  <speed>0.0316227766016838</speed>
  <fix>3d</fix>
</trkpt>
<trkpt lat="40.0713749" lon="-105.229789">
  <ele>1583.0</ele>
  <time>2026-08-28T17:56:29Z</time>
  <course>0.0</course>
  <speed>0.0</speed>
  <fix>3d</fix>
</trkpt>
<trkpt lat="40.0713749" lon="-105.229789">
  <ele>1583.0</ele>
  <time>2026-08-28T17:56:29Z</time>
  <course>247.81</course>
  <speed>0.0316227766016838</speed>
  <fix>3d</fix>
</trkpt>
<trkpt lat="40.0713749" lon="-105.229789">
  <ele>1583.0</ele>
  <time>2026-08-28T17:56:29Z</time>
  <course>0.0</course>
  <speed>0.0</speed>
  <fix>3d</fix>
</trkpt>
<trkpt lat="40.0713749" lon="-105.229789">
  <ele>1583.0</ele>
  <time>2026-08-28T17:56:29Z</time>
  <course>247.81</course>
  <speed>0.0316227766016838</speed>
  <fix>3d</fix>
</trkpt>
<trkpt lat="40.0713749" lon="-105.229789">
  <ele>1583.0</ele>
  <time>2026-08-28T17:56:29Z</time>
  <course>0.0</course>
  <speed>0.0</speed>
  <fix>3d</fix>
</trkpt>
<trkpt lat="40.0713749" lon="-105.229789">
  <ele>1583.0</ele>
  <time>2026-08-28T17:56:29Z</time>
  <course>247.8</course>
  <speed>0.0316227766016838</speed>
  <fix>3d</fix>
</trkpt>
<trkpt lat="40.0713749" lon="-105.229789">
  <ele>1583.0</ele>
  <time>2026-08-28T17:56:29Z</time>
  <course>0.0</course>
  <speed>0.0</speed>
  <fix>3d</fix>
</trkpt>
<trkpt lat="40.0713749" lon="-105.229789">
  <ele>1583.0</ele>
  <time>2026-08-28T17:56:29Z</time>
  <course>247.8</course>
  <speed>0.0316227766016838</speed>
  <fix>3d</fix>
</trkpt>
<trkpt lat="40.0713749" lon="-105.229789">
  <ele>1583.0</ele>
  <time>2026-08-28T17:56:29Z</time>
  <course>0.0</course>
  <speed>0.0</speed>
  <fix>3d</fix>
</trkpt>
<trkpt lat="40.0713749" lon="-105.229789">
  <ele>1583.0</ele>
  <time>2026-08-28T17:56:29Z</time>
  <course>247.8</course>
  <speed>0.0316227766016838</speed>
  <fix>3d</fix>
</trkpt>
<trkpt lat="40.0713749" lon="-105.229789">
  <ele>1583.0</ele>
  <time>2026-08-28T17:56:29Z</time>
  <course>0.0</course>
  <speed>0.0</speed>
  <fix>3d</fix>
</trkpt>
<trkpt lat="40.0713749" lon="-105.229789">
  <ele>1583.0</ele>
  <time>2026-08-28T17:56:29Z</time>
  <course>247.79</course>
  <speed>0.0316227766016838</speed>
  <fix>3d</fix>
</trkpt>
<trkpt lat="40.0713749" lon="-105.229789">
  <ele>1583.0</ele>
  <time>2026-08-28T17:56:29Z</time>
  <course>0.0</course>
  <speed>0.0</speed>
  <fix>3d</fix>
</trkpt>
<trkpt lat="40.0713749" lon="-105.229789">
  <ele>1583.0</ele>
  <time>2026-08-28T17:56:29Z</time>
  <course>247.79</course>
  <speed>0.0316227766016838</speed>
  <fix>3d</fix>
</trkpt>
<trkpt lat="40.0713749" lon="-105.229789">
  <ele>1583.0</ele>
  <time>2026-08-28T17:56:29Z</time>
  <course>0.0</course>
  <speed>0.0</speed>
  <fix>3d</fix>
</trkpt>
<trkpt lat="40.0713749" lon="-105.229789">
  <ele>1583.0</ele>
  <time>2026-08-28T17:56:29Z</time>
  <course>247.78</course>
  <speed>0.0316227766016838</speed>
  <fix>3d</fix>
</trkpt>
<trkpt lat="40.0713749" lon="-105.229789">
  <ele>1583.0</ele>
  <time>2026-08-28T17:56:29Z</time>
  <course>0.0</course>
  <speed>0.0</speed>
  <fix>3d</fix>
</trkpt>
<trkpt lat="40.0713749" lon="-105.229789">
  <ele>1583.0</ele>
  <time>2026-08-28T17:56:29Z</time>
  <course>247.78</course>
  <speed>0.0316227766016838</speed>
  <fix>3d</fix>
</trkpt>
<trkpt lat="40.0713749" lon="-105.229789">
  <ele>1583.0</ele>
  <time>2026-08-28T17:56:29Z</time>
  <course>0.0</course>
  <speed>0.0</speed>
  <fix>3d</fix>
</trkpt>
<trkpt lat="40.0713749" lon="-105.229789">
  <ele>1583.0</ele>
  <time>2026-08-28T17:56:29Z</time>
  <course>247.78</course>
  <speed>0.0316227766016838</speed>
  <fix>3d</fix>
</trkpt>
<trkpt lat="40.0713749" lon="-105.229789">
  <ele>1583.0</ele>
  <time>2026-08-28T17:56:29Z</time>
  <course>0.0</course>
  <speed>0.0</speed>
  <fix>3d</fix>
</trkpt>
<trkpt lat="40.0713749" lon="-105.229789">
  <ele>1583.0</ele>
  <time>2026-08-28T17:56:29Z</time>
  <course>247.77</course>
  <speed>0.0316227766016838</speed>
  <fix>3d</fix>
</trkpt>
<trkpt lat="40.0713749" lon="-105.229789">
  <ele>1583.0</ele>
  <time>2026-08-28T17:56:29Z</time>
  <course>0.0</course>
  <speed>0.0</speed>
  <fix>3d</fix>
</trkpt>
<trkpt lat="40.0713749" lon="-105.229789">
  <ele>1583.0</ele>
  <time>2026-08-28T17:56:29Z</time>
  <course>247.77</course>
  <speed>0.0316227766016838</speed>
  <fix>3d</fix>
</trkpt>
<trkpt lat="40.0713749" lon="-105.229789">
  <ele>1583.0</ele>
  <time>2026-08-28T17:56:29Z</time>
  <course>0.0</course>
  <speed>0.0</speed>
  <fix>3d</fix>
</trkpt>
<trkpt lat="40.0713749" lon="-105.229789">
  <ele>1583.0</ele>
  <time>2026-08-28T17:56:29Z</time>
  <course>247.77</course>
  <speed>0.0316227766016838</speed>
  <fix>3d</fix>
</trkpt>
<trkpt lat="40.0713749" lon="-105.229789">
  <ele>1583.0</ele>
  <time>2026-08-28T17:56:29Z</time>
  <course>0.0</course>
  <speed>0.0</speed>
  <fix>3d</fix>
</trkpt>
<trkpt lat="40.0713749" lon="-105.229789">
  <ele>1583.0</ele>
  <time>2026-08-28T17:56:29Z</time>
  <course>247.76</course>
  <speed>0.0316227766016838</speed>
  <fix>3d</fix>
</trkpt>
<trkpt lat="40.0713749" lon="-105.229789">
  <ele>1583.0</ele>
  <time>2026-08-28T17:56:29Z</time>
  <course>0.0</course>
  <speed>0.0</speed>
  <fix>3d</fix>
</trkpt>
<trkpt lat="40.0713749" lon="-105.229789">
  <ele>1583.0</ele>
  <time>2026-08-28T17:56:29Z</time>
  <course>247.76</course>
  <speed>0.0316227766016838</speed>
  <fix>3d</fix>
</trkpt>
<trkpt lat="40.0713749" lon="-105.229789">
  <ele>1583.0</ele>
  <time>2026-08-28T17:56:29Z</time>
  <course>0.0</course>
  <speed>0.0</speed>
  <fix>3d</fix>
</trkpt>
<trkpt lat="40.0713749" lon="-105.229789">
  <ele>1583.0</ele>
  <time>2026-08-28T17:56:29Z</time>
  <course>247.75</course>
  <speed>0.0316227766016838</speed>
  <fix>3d</fix>
</trkpt>
<trkpt lat="40.0713749" lon="-105.229789">
  <ele>1583.0</ele>
  <time>2026-08-28T17:56:29Z</time>
  <course>0.0</course>
  <speed>0.0</speed>
  <fix>3d</fix>
</trkpt>
<trkpt lat="40.0713749" lon="-105.229789">
  <ele>1583.0</ele>
  <time>2026-08-28T17:56:29Z</time>
  <course>247.75</course>
  <speed>0.0316227766016838</speed>
  <fix>3d</fix>
</trkpt>
<trkpt lat="40.0713749" lon="-105.229789">
  <ele>1583.0</ele>
  <time>2026-08-28T17:56:29Z</time>
  <course>0.0</course>
  <speed>0.0</speed>
  <fix>3d</fix>
</trkpt>
<trkpt lat="40.0713749" lon="-105.229789">
  <ele>1583.0</ele>
  <time>2026-08-28T17:56:29Z</time>
  <course>247.75</course>
  <speed>0.0316227766016838</speed>
  <fix>3d</fix>
</trkpt>
<trkpt lat="40.0713749" lon="-105.229789">
  <ele>1583.0</ele>
  <time>2026-08-28T17:56:29Z</time>
  <course>0.0</course>
  <speed>0.0</speed>
  <fix>3d</fix>
</trkpt>
<trkpt lat="40.0713749" lon="-105.229789">
  <ele>1583.0</ele>
  <time>2026-08-28T17:56:29Z</time>
  <course>247.74</course>
  <speed>0.0316227766016838</speed>
  <fix>3d</fix>
</trkpt>
<trkpt lat="40.0713749" lon="-105.229789">
  <ele>1583.0</ele>
  <time>2026-08-28T17:56:29Z</time>
  <course>0.0</course>
  <speed>0.0</speed>
  <fix>3d</fix>
</trkpt>
<trkpt lat="40.0713749" lon="-105.229789">
  <ele>1583.0</ele>
  <time>2026-08-28T17:56:29Z</time>
  <course>247.74</course>
  <speed>0.0316227766016838</speed>
  <fix>3d</fix>
</trkpt>
<trkpt lat="40.0713749" lon="-105.229789">
  <ele>1583.0</ele>
  <time>2026-08-28T17:56:29Z</time>
  <course>0.0</course>
  <speed>0.0</speed>
  <fix>3d</fix>
</trkpt>
<trkpt lat="40.0713749" lon="-105.229789">
  <ele>1583.0</ele>
  <time>2026-08-28T17:56:29Z</time>
  <course>247.74</course>
  <speed>0.0316227766016838</speed>
  <fix>3d</fix>
</trkpt>
<trkpt lat="40.0713749" lon="-105.229789">
  <ele>1583.0</ele>
  <time>2026-08-28T17:56:29Z</time>
  <course>0.0</course>
  <speed>0.0</speed>
  <fix>3d</fix>
</trkpt>
<trkpt lat="40.0713749" lon="-105.229789">
  <ele>1583.0</ele>
  <time>2026-08-28T17:56:29Z</time>
  <course>247.73</course>
  <speed>0.0316227766016838</speed>
  <fix>3d</fix>
</trkpt>
<trkpt lat="40.0713749" lon="-105.229789">
  <ele>1583.0</ele>
  <time>2026-08-28T17:56:29Z</time>
  <course>0.0</course>
  <speed>0.0</speed>
  <fix>3d</fix>
</trkpt>
<trkpt lat="40.0713749" lon="-105.229789">
  <ele>1583.0</ele>
  <time>2026-08-28T17:56:29Z</time>
  <course>247.73</course>
  <speed>0.0316227766016838</speed>
  <fix>3d</fix>
</trkpt>
<trkpt lat="40.0713749" lon="-105.229789">
  <ele>1583.0</ele>
  <time>2026-08-28T17:56:29Z</time>
  <course>0.0</course>
  <speed>0.0</speed>
  <fix>3d</fix>
</trkpt>
<trkpt lat="40.0713749" lon="-105.229789">
  <ele>1583.0</ele>
  <time>2026-08-28T17:56:29Z</time>
  <course>247.73</course>
  <speed>0.0316227766016838</speed>
  <fix>3d</fix>
</trkpt>
<trkpt lat="40.0713749" lon="-105.229789">
  <ele>1583.0</ele>
  <time>2026-08-28T17:56:29Z</time>
  <course>0.0</course>
  <speed>0.0</speed>
  <fix>3d</fix>
</trkpt>
<trkpt lat="40.0713749" lon="-105.229789">
  <ele>1583.0</ele>
  <time>2026-08-28T17:56:29Z</time>
  <course>247.72</course>
  <speed>0.0316227766016838</speed>
  <fix>3d</fix>
</trkpt>
<trkpt lat="40.0713749" lon="-105.229789">
  <ele>1583.0</ele>
  <time>2026-08-28T17:56:29Z</time>
  <course>0.0</course>
  <speed>0.0</speed>
  <fix>3d</fix>
</trkpt>
<trkpt lat="40.0713749" lon="-105.229789">
  <ele>1583.0</ele>
  <time>2026-08-28T17:56:29Z</time>
  <course>247.72</course>
  <speed>0.0316227766016838</speed>
  <fix>3d</fix>
</trkpt>
<trkpt lat="40.0713749" lon="-105.229789">
  <ele>1583.0</ele>
  <time>2026-08-28T17:56:29Z</time>
  <course>0.0</course>
  <speed>0.0</speed>
  <fix>3d</fix>
</trkpt>
<trkpt lat="40.0713749" lon="-105.229789">
  <ele>1583.0</ele>
  <time>2026-08-28T17:56:29Z</time>
  <course>247.72</course>
  <speed>0.0316227766016838</speed>
  <fix>3d</fix>
</trkpt>
<trkpt lat="40.0713749" lon="-105.229789">
  <ele>1583.0</ele>
  <time>2026-08-28T17:56:29Z</time>
  <course>0.0</course>
  <speed>0.0</speed>
  <fix>3d</fix>
</trkpt>
<trkpt lat="40.0713749" lon="-105.229789">
  <ele>1583.0</ele>
  <time>2026-08-28T17:56:29Z</time>
  <course>247.71</course>
  <speed>0.0316227766016838</speed>
  <fix>3d</fix>
</trkpt>
<trkpt lat="40.0713749" lon="-105.229789">
  <ele>1583.0</ele>
  <time>2026-08-28T17:56:29Z</time>
  <course>0.0</course>
  <speed>0.0</speed>
  <fix>3d</fix>
</trkpt>
<trkpt lat="40.0713749" lon="-105.229789">
  <ele>1583.0</ele>
  <time>2026-08-28T17:56:29Z</time>
  <course>247.71</course>
  <speed>0.0316227766016838</speed>
  <fix>3d</fix>
</trkpt>
<trkpt lat="40.0713749" lon="-105.229789">
  <ele>1583.0</ele>
  <time>2026-08-28T17:56:29Z</time>
  <course>0.0</course>
  <speed>0.0</speed>
  <fix>3d</fix>
</trkpt>
<trkpt lat="40.0713749" lon="-105.229789">
  <ele>1583.0</ele>
  <time>2026-08-28T17:56:29Z</time>
  <course>247.71</course>
  <speed>0.0316227766016838</speed>
  <fix>3d</fix>
</trkpt>
<trkpt lat="40.0713749" lon="-105.229789">
  <ele>1583.0</ele>
  <time>2026-08-28T17:56:29Z</time>
  <course>0.0</course>
  <speed>0.0</speed>
  <fix>3d</fix>
</trkpt>
<trkpt lat="40.0713749" lon="-105.229789">
  <ele>1583.0</ele>
  <time>2026-08-28T17:56:29Z</time>
  <course>247.7</course>
  <speed>0.0316227766016838</speed>
  <fix>3d</fix>
</trkpt>
<trkpt lat="40.0713749" lon="-105.229789">
  <ele>1583.0</ele>
  <time>2026-08-28T17:56:29Z</time>
  <course>0.0</course>
  <speed>0.0</speed>
  <fix>3d</fix>
</trkpt>
<trkpt lat="40.0713749" lon="-105.229789">
  <ele>1583.0</ele>
  <time>2026-08-28T17:56:29Z</time>
  <course>247.7</course>
  <speed>0.0316227766016838</speed>
  <fix>3d</fix>
</trkpt>
<trkpt lat="40.0713749" lon="-105.229789">
  <ele>1583.0</ele>
  <time>2026-08-28T17:56:29Z</time>
  <course>0.0</course>
  <speed>0.0</speed>
  <fix>3d</fix>
</trkpt>
<trkpt lat="40.0713749" lon="-105.229789">
  <ele>1583.0</ele>
  <time>2026-08-28T17:56:29Z</time>
  <course>247.7</course>
  <speed>0.0316227766016838</speed>
  <fix>3d</fix>
</trkpt>
<trkpt lat="40.0713749" lon="-105.229789">
  <ele>1583.0</ele>
  <time>2026-08-28T17:56:29Z</time>
  <course>0.0</course>
  <speed>0.0</speed>
  <fix>3d</fix>
</trkpt>
<trkpt lat="40.0713749" lon="-105.229789">
  <ele>1583.0</ele>
  <time>2026-08-28T17:56:29Z</time>
  <course>247.69</course>
  <speed>0.0316227766016838</speed>
  <fix>3d</fix>
</trkpt>
<trkpt lat="40.0713749" lon="-105.229789">
  <ele>1583.0</ele>
  <time>2026-08-28T17:56:29Z</time>
  <course>0.0</course>
  <speed>0.0</speed>
  <fix>3d</fix>
</trkpt>
<trkpt lat="40.0713749" lon="-105.229789">
  <ele>1583.0</ele>
  <time>2026-08-28T17:56:29Z</time>
  <course>247.69</course>
  <speed>0.0316227766016838</speed>
  <fix>3d</fix>
</trkpt>
<trkpt lat="40.0713749" lon="-105.229789">
  <ele>1583.0</ele>
  <time>2026-08-28T17:56:29Z</time>
  <course>0.0</course>
  <speed>0.0</speed>
  <fix>3d</fix>
</trkpt>
<trkpt lat="40.0713749" lon="-105.229789">
  <ele>1583.0</ele>
  <time>2026-08-28T17:56:29Z</time>
  <course>247.69</course>
  <speed>0.0316227766016838</speed>
  <fix>3d</fix>
</trkpt>
<trkpt lat="40.0713749" lon="-105.229789">
  <ele>1583.0</ele>
  <time>2026-08-28T17:56:29Z</time>
  <course>0.0</course>
  <speed>0.0</speed>
  <fix>3d</fix>
</trkpt>
<trkpt lat="40.0713749" lon="-105.229789">
  <ele>1583.0</ele>
  <time>2026-08-28T17:56:29Z</time>
  <course>247.68</course>
  <speed>0.0316227766016838</speed>
  <fix>3d</fix>
</trkpt>
<trkpt lat="40.0713749" lon="-105.229789">
  <ele>1583.0</ele>
  <time>2026-08-28T17:56:29Z</time>
  <course>0.0</course>
  <speed>0.0</speed>
  <fix>3d</fix>
</trkpt>
<trkpt lat="40.0713749" lon="-105.229789">
  <ele>1583.0</ele>
  <time>2026-08-28T17:56:29Z</time>
  <course>247.68</course>
  <speed>0.0316227766016838</speed>
  <fix>3d</fix>
</trkpt>
<trkpt lat="40.0713749" lon="-105.229789">
  <ele>1583.0</ele>
  <time>2026-08-28T17:56:29Z</time>
  <course>0.0</course>
  <speed>0.0</speed>
  <fix>3d</fix>
</trkpt>
<trkpt lat="40.0713749" lon="-105.229789">
  <ele>1583.0</ele>
  <time>2026-08-28T17:56:29Z</time>
  <course>247.68</course>
  <speed>0.0316227766016838</speed>
  <fix>3d</fix>
</trkpt>
<trkpt lat="40.0713749" lon="-105.229789">
  <ele>1583.0</ele>
  <time>2026-08-28T17:56:29Z</time>
  <course>0.0</course>
  <speed>0.0</speed>
  <fix>3d</fix>
</trkpt>
<trkpt lat="40.0713749" lon="-105.229789">
  <ele>1583.0</ele>
  <time>2026-08-28T17:56:29Z</time>
  <course>247.67</course>
  <speed>0.0316227766016838</speed>
  <fix>3d</fix>
</trkpt>
<trkpt lat="40.0713749" lon="-105.229789">
  <ele>1583.0</ele>
  <time>2026-08-28T17:56:29Z</time>
  <course>0.0</course>
  <speed>0.0</speed>
  <fix>3d</fix>
</trkpt>
<trkpt lat="40.0713749" lon="-105.229789">
  <ele>1583.0</ele>
  <time>2026-08-28T17:56:29Z</time>
  <course>247.67</course>
  <speed>0.0316227766016838</speed>
  <fix>3d</fix>
</trkpt>
<trkpt lat="40.0713749" lon="-105.229789">
  <ele>1583.0</ele>
  <time>2026-08-28T17:56:29Z</time>
  <course>0.0</course>
  <speed>0.0</speed>
  <fix>3d</fix>
</trkpt>
<trkpt lat="40.0713749" lon="-105.229789">
  <ele>1583.0</ele>
  <time>2026-08-28T17:56:29Z</time>
  <course>247.67</course>
  <speed>0.0316227766016838</speed>
  <fix>3d</fix>
</trkpt>
<trkpt lat="40.0713749" lon="-105.229789">
  <ele>1583.0</ele>
  <time>2026-08-28T17:56:29Z</time>
  <course>0.0</course>
  <speed>0.0</speed>
  <fix>3d</fix>
</trkpt>
<trkpt lat="40.0713749" lon="-105.229789">
  <ele>1583.0</ele>
  <time>2026-08-28T17:56:29Z</time>
  <course>247.66</course>
  <speed>0.0316227766016838</speed>
  <fix>3d</fix>
</trkpt>
<trkpt lat="40.0713749" lon="-105.229789">
  <ele>1583.0</ele>
  <time>2026-08-28T17:56:29Z</time>
  <course>0.0</course>
  <speed>0.0</speed>
  <fix>3d</fix>
</trkpt>
<trkpt lat="40.0713749" lon="-105.229789">
  <ele>1583.0</ele>
  <time>2026-08-28T17:56:29Z</time>
  <course>247.66</course>
  <speed>0.0316227766016838</speed>
  <fix>3d</fix>
</trkpt>
<trkpt lat="40.0713749" lon="-105.229789">
  <ele>1583.0</ele>
  <time>2026-08-28T17:56:29Z</time>
  <course>0.0</course>
  <speed>0.0</speed>
  <fix>3d</fix>
</trkpt>
<trkpt lat="40.0713749" lon="-105.229789">
  <ele>1583.0</ele>
  <time>2026-08-28T17:56:29Z</time>
  <course>247.66</course>
  <speed>0.0316227766016838</speed>
  <fix>3d</fix>
</trkpt>
<trkpt lat="40.0713749" lon="-105.229789">
  <ele>1583.0</ele>
  <time>2026-08-28T17:56:29Z</time>
  <course>0.0</course>
  <speed>0.0</speed>
  <fix>3d</fix>
</trkpt>
<trkpt lat="40.0713749" lon="-105.229789">
  <ele>1583.0</ele>
  <time>2026-08-28T17:56:29Z</time>
  <course>247.65</course>
  <speed>0.0316227766016838</speed>
  <fix>3d</fix>
</trkpt>
<trkpt lat="40.0713749" lon="-105.229789">
  <ele>1583.0</ele>
  <time>2026-08-28T17:56:29Z</time>
  <course>0.0</course>
  <speed>0.0</speed>
  <fix>3d</fix>
</trkpt>
<trkpt lat="40.0713749" lon="-105.229789">
  <ele>1583.0</ele>
  <time>2026-08-28T17:56:29Z</time>
  <course>247.65</course>
  <speed>0.0316227766016838</speed>
  <fix>3d</fix>
</trkpt>
<trkpt lat="40.0713749" lon="-105.229789">
  <ele>1583.0</ele>
  <time>2026-08-28T17:56:29Z</time>
  <course>0.0</course>
  <speed>0.0</speed>
  <fix>3d</fix>
</trkpt>
<trkpt lat="40.0713749" lon="-105.229789">
  <ele>1583.0</ele>
  <time>2026-08-28T17:56:29Z</time>
  <course>247.65</course>
  <speed>0.0316227766016838</speed>
  <fix>3d</fix>
</trkpt>
<trkpt lat="40.0713749" lon="-105.229789">
  <ele>1583.0</ele>
  <time>2026-08-28T17:56:29Z</time>
  <course>0.0</course>
  <speed>0.0</speed>
  <fix>3d</fix>
</trkpt>
<trkpt lat="40.0713749" lon="-105.229789">
  <ele>1583.0</ele>
  <time>2026-08-28T17:56:29Z</time>
  <course>247.65</course>
  <speed>0.0316227766016838</speed>
  <fix>3d</fix>
</trkpt>
<trkpt lat="40.0713749" lon="-105.229789">
  <ele>1583.0</ele>
  <time>2026-08-28T17:56:29Z</time>
  <course>0.0</course>
  <speed>0.0</speed>
  <fix>3d</fix>
</trkpt>
<trkpt lat="40.0713749" lon="-105.229789">
  <ele>1583.0</ele>
  <time>2026-08-28T17:56:29Z</time>
  <course>247.64</course>
  <speed>0.0316227766016838</speed>
  <fix>3d</fix>
</trkpt>
<trkpt lat="40.0713749" lon="-105.229789">
  <ele>1583.0</ele>
  <time>2026-08-28T17:56:29Z</time>
  <course>0.0</course>
  <speed>0.0</speed>
  <fix>3d</fix>
</trkpt>
<trkpt lat="40.0713749" lon="-105.229789">
  <ele>1583.0</ele>
  <time>2026-08-28T17:56:29Z</time>
  <course>247.64</course>
  <speed>0.0316227766016838</speed>
  <fix>3d</fix>
</trkpt>
<trkpt lat="40.0713749" lon="-105.229789">
  <ele>1583.0</ele>
  <time>2026-08-28T17:56:29Z</time>
  <course>0.0</course>
  <speed>0.0</speed>
  <fix>3d</fix>
</trkpt>
<trkpt lat="40.0713749" lon="-105.229789">
  <ele>1583.0</ele>
  <time>2026-08-28T17:56:29Z</time>
  <course>247.64</course>
  <speed>0.0316227766016838</speed>
  <fix>3d</fix>
</trkpt>
<trkpt lat="40.0713749" lon="-105.229789">
  <ele>1583.0</ele>
  <time>2026-08-28T17:56:29Z</time>
  <course>0.0</course>
  <speed>0.0</speed>
  <fix>3d</fix>
</trkpt>
<trkpt lat="40.0713749" lon="-105.229789">
  <ele>1583.0</ele>
  <time>2026-08-28T17:56:29Z</time>
  <course>247.63</course>
  <speed>0.0316227766016838</speed>
  <fix>3d</fix>
</trkpt>
<trkpt lat="40.0713749" lon="-105.229789">
  <ele>1583.0</ele>
  <time>2026-08-28T17:56:29Z</time>
  <course>0.0</course>
  <speed>0.0</speed>
  <fix>3d</fix>
</trkpt>
<trkpt lat="40.0713749" lon="-105.229789">
  <ele>1583.0</ele>
  <time>2026-08-28T17:56:29Z</time>
  <course>247.63</course>
  <speed>0.0316227766016838</speed>
  <fix>3d</fix>
</trkpt>
<trkpt lat="40.0713749" lon="-105.229789">
  <ele>1583.0</ele>
  <time>2026-08-28T17:56:29Z</time>
  <course>0.0</course>
  <speed>0.0</speed>
  <fix>3d</fix>
</trkpt>
<trkpt lat="40.0713749" lon="-105.229789">
  <ele>1583.0</ele>
  <time>2026-08-28T17:56:29Z</time>
  <course>247.63</course>
  <speed>0.0316227766016838</speed>
  <fix>3d</fix>
</trkpt>
<trkpt lat="40.0713749" lon="-105.229789">
  <ele>1583.0</ele>
  <time>2026-08-28T17:56:29Z</time>
  <course>0.0</course>
  <speed>0.0</speed>
  <fix>3d</fix>
</trkpt>
<trkpt lat="40.0713749" lon="-105.229789">
  <ele>1583.0</ele>
  <time>2026-08-28T17:56:29Z</time>
  <course>247.62</course>
  <speed>0.0316227766016838</speed>
  <fix>3d</fix>
</trkpt>
<trkpt lat="40.0713749" lon="-105.229789">
  <ele>1583.0</ele>
  <time>2026-08-28T17:56:29Z</time>
  <course>0.0</course>
  <speed>0.0</speed>
  <fix>3d</fix>
</trkpt>
<trkpt lat="40.0713749" lon="-105.229789">
  <ele>1583.0</ele>
  <time>2026-08-28T17:56:29Z</time>
  <course>247.62</course>
  <speed>0.0316227766016838</speed>
  <fix>3d</fix>
</trkpt>
<trkpt lat="40.0713749" lon="-105.229789">
  <ele>1583.0</ele>
  <time>2026-08-28T17:56:29Z</time>
  <course>0.0</course>
  <speed>0.0</speed>
  <fix>3d</fix>
</trkpt>
<trkpt lat="40.0713749" lon="-105.229789">
  <ele>1583.0</ele>
  <time>2026-08-28T17:56:29Z</time>
  <course>247.62</course>
  <speed>0.0316227766016838</speed>
  <fix>3d</fix>
</trkpt>
<trkpt lat="40.0713749" lon="-105.229789">
  <ele>1583.0</ele>
  <time>2026-08-28T17:56:29Z</time>
  <course>0.0</course>
  <speed>0.0</speed>
  <fix>3d</fix>
</trkpt>
<trkpt lat="40.0713749" lon="-105.229789">
  <ele>1583.0</ele>
  <time>2026-08-28T17:56:29Z</time>
  <course>247.62</course>
  <speed>0.0316227766016838</speed>
  <fix>3d</fix>
</trkpt>
<trkpt lat="40.0713749" lon="-105.229789">
  <ele>1583.0</ele>
  <time>2026-08-28T17:56:29Z</time>
  <course>0.0</course>
  <speed>0.0</speed>
  <fix>3d</fix>
</trkpt>
<trkpt lat="40.0713749" lon="-105.229789">
  <ele>1583.0</ele>
  <time>2026-08-28T17:56:29Z</time>
  <course>247.61</course>
  <speed>0.0316227766016838</speed>
  <fix>3d</fix>
</trkpt>
<trkpt lat="40.0713749" lon="-105.229789">
  <ele>1583.0</ele>
  <time>2026-08-28T17:56:29Z</time>
  <course>0.0</course>
  <speed>0.0</speed>
  <fix>3d</fix>
</trkpt>
<trkpt lat="40.0713749" lon="-105.229789">
  <ele>1583.0</ele>
  <time>2026-08-28T17:56:29Z</time>
  <course>247.61</course>
  <speed>0.0316227766016838</speed>
  <fix>3d</fix>
</trkpt>
<trkpt lat="40.0713749" lon="-105.229789">
  <ele>1583.0</ele>
  <time>2026-08-28T17:56:29Z</time>
  <course>0.0</course>
  <speed>0.0</speed>
  <fix>3d</fix>
</trkpt>
<trkpt lat="40.0713749" lon="-105.229789">
  <ele>1583.0</ele>
  <time>2026-08-28T17:56:29Z</time>
  <course>247.61</course>
  <speed>0.0316227766016838</speed>
  <fix>3d</fix>
</trkpt>
<trkpt lat="40.0713749" lon="-105.229789">
  <ele>1583.0</ele>
  <time>2026-08-28T17:56:29Z</time>
  <course>0.0</course>
  <speed>0.0</speed>
  <fix>3d</fix>
</trkpt>
<trkpt lat="40.0713749" lon="-105.229789">
  <ele>1583.0</ele>
  <time>2026-08-28T17:56:29Z</time>
  <course>247.6</course>
  <speed>0.0316227766016838</speed>
  <fix>3d</fix>
</trkpt>
<trkpt lat="40.0713749" lon="-105.229789">
  <ele>1583.0</ele>
  <time>2026-08-28T17:56:29Z</time>
  <course>0.0</course>
  <speed>0.0</speed>
  <fix>3d</fix>
</trkpt>
<trkpt lat="40.0713749" lon="-105.229789">
  <ele>1583.0</ele>
  <time>2026-08-28T17:56:29Z</time>
  <course>247.6</course>
  <speed>0.0316227766016838</speed>
  <fix>3d</fix>
</trkpt>
<trkpt lat="40.0713749" lon="-105.229789">
  <ele>1583.0</ele>
  <time>2026-08-28T17:56:29Z</time>
  <course>0.0</course>
  <speed>0.0</speed>
  <fix>3d</fix>
</trkpt>
<trkpt lat="40.0713749" lon="-105.229789">
  <ele>1583.0</ele>
  <time>2026-08-28T17:56:29Z</time>
  <course>247.6</course>
  <speed>0.0316227766016838</speed>
  <fix>3d</fix>
</trkpt>
<trkpt lat="40.0713749" lon="-105.229789">
  <ele>1583.0</ele>
  <time>2026-08-28T17:56:29Z</time>
  <course>0.0</course>
  <speed>0.0</speed>
  <fix>3d</fix>
</trkpt>
<trkpt lat="40.0713749" lon="-105.229789">
  <ele>1583.0</ele>
  <time>2026-08-28T17:56:29Z</time>
  <course>247.6</course>
  <speed>0.0316227766016838</speed>
  <fix>3d</fix>
</trkpt>
<trkpt lat="40.0713749" lon="-105.229789">
  <ele>1583.0</ele>
  <time>2026-08-28T17:56:29Z</time>
  <course>0.0</course>
  <speed>0.0</speed>
  <fix>3d</fix>
</trkpt>
<trkpt lat="40.0713749" lon="-105.229789">
  <ele>1583.0</ele>
  <time>2026-08-28T17:56:29Z</time>
  <course>247.59</course>
  <speed>0.0316227766016838</speed>
  <fix>3d</fix>
</trkpt>
<trkpt lat="40.0713749" lon="-105.229789">
  <ele>1583.0</ele>
  <time>2026-08-28T17:56:29Z</time>
  <course>0.0</course>
  <speed>0.0</speed>
  <fix>3d</fix>
</trkpt>
<trkpt lat="40.0713749" lon="-105.229789">
  <ele>1583.0</ele>
  <time>2026-08-28T17:56:29Z</time>
  <course>247.59</course>
  <speed>0.0316227766016838</speed>
  <fix>3d</fix>
</trkpt>
<trkpt lat="40.0713749" lon="-105.229789">
  <ele>1583.0</ele>
  <time>2026-08-28T17:56:29Z</time>
  <course>0.0</course>
  <speed>0.0</speed>
  <fix>3d</fix>
</trkpt>
<trkpt lat="40.0713749" lon="-105.229789">
  <ele>1583.0</ele>
  <time>2026-08-28T17:56:29Z</time>
  <course>247.59</course>
  <speed>0.0316227766016838</speed>
  <fix>3d</fix>
</trkpt>
<trkpt lat="40.0713749" lon="-105.229789">
  <ele>1583.0</ele>
  <time>2026-08-28T17:56:29Z</time>
  <course>0.0</course>
  <speed>0.0</speed>
  <fix>3d</fix>
</trkpt>
<trkpt lat="40.0713749" lon="-105.229789">
  <ele>1583.0</ele>
  <time>2026-08-28T17:56:29Z</time>
  <course>247.59</course>
  <speed>0.0</speed>
  <fix>3d</fix>
</trkpt>
<trkpt lat="40.0713749" lon="-105.229789">
  <ele>1583.0</ele>
  <time>2026-08-28T17:56:29Z</time>
  <course>0.0</course>
  <speed>0.0</speed>
  <fix>3d</fix>
</trkpt>
<trkpt lat="40.0713749" lon="-105.229789">
  <ele>1583.0</ele>
  <time>2026-08-28T17:56:29Z</time>
  <course>247.58</course>
  <speed>0.0</speed>
  <fix>3d</fix>
</trkpt>
<trkpt lat="40.0713749" lon="-105.229789">
  <ele>1583.0</ele>
  <time>2026-08-28T17:56:29Z</time>
  <course>0.0</course>
  <speed>0.0</speed>
  <fix>3d</fix>
</trkpt>
<trkpt lat="40.0713749" lon="-105.229789">
  <ele>1583.01</ele>
  <time>2026-08-28T17:56:29Z</time>
  <course>247.58</course>
  <speed>0.0</speed>
  <fix>3d</fix>
</trkpt>
<trkpt lat="40.0713749" lon="-105.229789">
  <ele>1583.0</ele>
  <time>2026-08-28T17:56:29Z</time>
  <course>0.0</course>
  <speed>0.0</speed>
  <fix>3d</fix>
</trkpt>
<trkpt lat="40.0713749" lon="-105.229789">
  <ele>1583.01</ele>
  <time>2026-08-28T17:56:29Z</time>
  <course>247.58</course>
  <speed>0.0</speed>
  <fix>3d</fix>
</trkpt>
<trkpt lat="40.0713749" lon="-105.229789">
  <ele>1583.0</ele>
  <time>2026-08-28T17:56:29Z</time>
  <course>0.0</course>
  <speed>0.0</speed>
  <fix>3d</fix>
</trkpt>
<trkpt lat="40.0713749" lon="-105.229789">
  <ele>1583.02</ele>
  <time>2026-08-28T17:56:29Z</time>
  <course>247.58</course>
  <speed>0.0</speed>
  <fix>3d</fix>
</trkpt>
<trkpt lat="40.0713749" lon="-105.229789">
  <ele>1583.0</ele>
  <time>2026-08-28T17:56:29Z</time>
  <course>0.0</course>
  <speed>0.0</speed>
  <fix>3d</fix>
</trkpt>
<trkpt lat="40.0713749" lon="-105.229789">
  <ele>1583.02</ele>
  <time>2026-08-28T17:56:29Z</time>
  <course>247.57</course>
  <speed>0.0</speed>
  <fix>3d</fix>
</trkpt>
<trkpt lat="40.0713749" lon="-105.229789">
  <ele>1583.0</ele>
  <time>2026-08-28T17:56:29Z</time>
  <course>0.0</course>
  <speed>0.0</speed>
  <fix>3d</fix>
</trkpt>
<trkpt lat="40.0713749" lon="-105.229789">
  <ele>1583.02</ele>
  <time>2026-08-28T17:56:30Z</time>
  <course>247.57</course>
  <speed>0.0</speed>
  <fix>3d</fix>
</trkpt>
<trkpt lat="40.0713749" lon="-105.229789">
  <ele>1583.0</ele>
  <time>2026-08-28T17:56:30Z</time>
  <course>0.0</course>
  <speed>0.0</speed>
  <fix>3d</fix>
</trkpt>
<trkpt lat="40.0713749" lon="-105.229789">
  <ele>1583.02</ele>
  <time>2026-08-28T17:56:30Z</time>
  <course>247.57</course>
  <speed>0.0</speed>
  <fix>3d</fix>
</trkpt>
<trkpt lat="40.0713749" lon="-105.229789">
  <ele>1583.0</ele>
  <time>2026-08-28T17:56:30Z</time>
  <course>0.0</course>
  <speed>0.0</speed>
  <fix>3d</fix>
</trkpt>
<trkpt lat="40.0713749" lon="-105.229789">
  <ele>1583.02</ele>
  <time>2026-08-28T17:56:30Z</time>
  <course>247.57</course>
  <speed>0.0</speed>
  <fix>3d</fix>
</trkpt>
<trkpt lat="40.0713749" lon="-105.229789">
  <ele>1583.0</ele>
  <time>2026-08-28T17:56:30Z</time>
  <course>0.0</course>
  <speed>0.0</speed>
  <fix>3d</fix>
</trkpt>
<trkpt lat="40.0713749" lon="-105.229789">
  <ele>1583.02</ele>
  <time>2026-08-28T17:56:30Z</time>
  <course>247.56</course>
  <speed>0.01</speed>
  <fix>3d</fix>
</trkpt>
<trkpt lat="40.0713749" lon="-105.229789">
  <ele>1583.0</ele>
  <time>2026-08-28T17:56:30Z</time>
  <course>0.0</course>
  <speed>0.0</speed>
  <fix>3d</fix>
</trkpt>
<trkpt lat="40.0713749" lon="-105.229789">
  <ele>1583.02</ele>
  <time>2026-08-28T17:56:30Z</time>
  <course>247.56</course>
  <speed>0.01</speed>
  <fix>3d</fix>
</trkpt>
<trkpt lat="40.0713749" lon="-105.229789">
  <ele>1583.0</ele>
  <time>2026-08-28T17:56:30Z</time>
  <course>0.0</course>
  <speed>0.0</speed>
  <fix>3d</fix>
</trkpt>
<trkpt lat="40.0713749" lon="-105.229789">
  <ele>1583.02</ele>
  <time>2026-08-28T17:56:30Z</time>
  <course>247.56</course>
  <speed>0.01</speed>
  <fix>3d</fix>
</trkpt>
<trkpt lat="40.0713749" lon="-105.229789">
  <ele>1583.0</ele>
  <time>2026-08-28T17:56:30Z</time>
  <course>0.0</course>
  <speed>0.0</speed>
  <fix>3d</fix>
</trkpt>
<trkpt lat="40.0713749" lon="-105.229789">
  <ele>1583.02</ele>
  <time>2026-08-28T17:56:30Z</time>
  <course>247.56</course>
  <speed>0.01</speed>
  <fix>3d</fix>
</trkpt>
<trkpt lat="40.0713749" lon="-105.229789">
  <ele>1583.0</ele>
  <time>2026-08-28T17:56:30Z</time>
  <course>0.0</course>
  <speed>0.0</speed>
  <fix>3d</fix>
</trkpt>
<trkpt lat="40.0713749" lon="-105.229789">
  <ele>1583.02</ele>
  <time>2026-08-28T17:56:30Z</time>
  <course>247.55</course>
  <speed>0.01</speed>
  <fix>3d</fix>
</trkpt>
<trkpt lat="40.0713749" lon="-105.229789">
  <ele>1583.0</ele>
  <time>2026-08-28T17:56:30Z</time>
  <course>0.0</course>
  <speed>0.0</speed>
  <fix>3d</fix>
</trkpt>
<trkpt lat="40.0713749" lon="-105.229789">
  <ele>1583.02</ele>
  <time>2026-08-28T17:56:30Z</time>
  <course>247.55</course>
  <speed>0.01</speed>
  <fix>3d</fix>
</trkpt>
<trkpt lat="40.0713749" lon="-105.229789">
  <ele>1583.0</ele>
  <time>2026-08-28T17:56:30Z</time>
  <course>0.0</course>
  <speed>0.0</speed>
  <fix>3d</fix>
</trkpt>
<trkpt lat="40.0713749" lon="-105.229789">
  <ele>1583.03</ele>
  <time>2026-08-28T17:56:30Z</time>
  <course>247.55</course>
  <speed>0.01</speed>
  <fix>3d</fix>
</trkpt>
<trkpt lat="40.0713749" lon="-105.229789">
  <ele>1583.0</ele>
  <time>2026-08-28T17:56:30Z</time>
  <course>0.0</course>
  <speed>0.0</speed>
  <fix>3d</fix>
</trkpt>
<trkpt lat="40.0713749" lon="-105.229789">
  <ele>1583.04</ele>
  <time>2026-08-28T17:56:30Z</time>
  <course>247.55</course>
  <speed>0.01</speed>
  <fix>3d</fix>
</trkpt>
<trkpt lat="40.0713749" lon="-105.229789">
  <ele>1583.0</ele>
  <time>2026-08-28T17:56:30Z</time>
  <course>0.0</course>
  <speed>0.0</speed>
  <fix>3d</fix>
</trkpt>
<trkpt lat="40.0713749" lon="-105.229789">
  <ele>1583.04</ele>
  <time>2026-08-28T17:56:30Z</time>
  <course>247.55</course>
  <speed>0.01</speed>
  <fix>3d</fix>
</trkpt>
<trkpt lat="40.0713749" lon="-105.229789">
  <ele>1583.0</ele>
  <time>2026-08-28T17:56:30Z</time>
  <course>0.0</course>
  <speed>0.0</speed>
  <fix>3d</fix>
</trkpt>
<trkpt lat="40.0713749" lon="-105.229789">
  <ele>1583.05</ele>
  <time>2026-08-28T17:56:30Z</time>
  <course>247.54</course>
  <speed>0.01</speed>
  <fix>3d</fix>
</trkpt>
<trkpt lat="40.0713749" lon="-105.229789">
  <ele>1583.0</ele>
  <time>2026-08-28T17:56:30Z</time>
  <course>0.0</course>
  <speed>0.0</speed>
  <fix>3d</fix>
</trkpt>
<trkpt lat="40.0713749" lon="-105.229789">
  <ele>1583.05</ele>
  <time>2026-08-28T17:56:30Z</time>
  <course>247.54</course>
  <speed>0.02</speed>
  <fix>3d</fix>
</trkpt>
<trkpt lat="40.0713749" lon="-105.229789">
  <ele>1583.0</ele>
  <time>2026-08-28T17:56:30Z</time>
  <course>0.0</course>
  <speed>0.0</speed>
  <fix>3d</fix>
</trkpt>
<trkpt lat="40.0713749" lon="-105.229789">
  <ele>1583.05</ele>
  <time>2026-08-28T17:56:30Z</time>
  <course>247.54</course>
  <speed>0.02</speed>
  <fix>3d</fix>
</trkpt>
<trkpt lat="40.0713749" lon="-105.229789">
  <ele>1583.0</ele>
  <time>2026-08-28T17:56:30Z</time>
  <course>0.0</course>
  <speed>0.0</speed>
  <fix>3d</fix>
</trkpt>
<trkpt lat="40.0713749" lon="-105.229789">
  <ele>1583.05</ele>
  <time>2026-08-28T17:56:30Z</time>
  <course>247.54</course>
  <speed>0.02</speed>
  <fix>3d</fix>
</trkpt>
<trkpt lat="40.0713749" lon="-105.229789">
  <ele>1583.0</ele>
  <time>2026-08-28T17:56:30Z</time>
  <course>0.0</course>
  <speed>0.0</speed>
  <fix>3d</fix>
</trkpt>
<trkpt lat="40.0713749" lon="-105.229789">
  <ele>1583.05</ele>
  <time>2026-08-28T17:56:30Z</time>
  <course>247.54</course>
  <speed>0.02</speed>
  <fix>3d</fix>
</trkpt>
<trkpt lat="40.0713749" lon="-105.229789">
  <ele>1583.0</ele>
  <time>2026-08-28T17:56:30Z</time>
  <course>0.0</course>
  <speed>0.0</speed>
  <fix>3d</fix>
</trkpt>
<trkpt lat="40.0713749" lon="-105.229789">
  <ele>1583.05</ele>
  <time>2026-08-28T17:56:30Z</time>
  <course>247.53</course>
  <speed>0.02</speed>
  <fix>3d</fix>
</trkpt>
<trkpt lat="40.0713749" lon="-105.229789">
  <ele>1583.0</ele>
  <time>2026-08-28T17:56:30Z</time>
  <course>0.0</course>
  <speed>0.0</speed>
  <fix>3d</fix>
</trkpt>
<trkpt lat="40.0713749" lon="-105.229789">
  <ele>1583.05</ele>
  <time>2026-08-28T17:56:30Z</time>
  <course>247.53</course>
  <speed>0.01</speed>
  <fix>3d</fix>
</trkpt>
<trkpt lat="40.0713749" lon="-105.229789">
  <ele>1583.0</ele>
  <time>2026-08-28T17:56:30Z</time>
  <course>0.0</course>
  <speed>0.0</speed>
  <fix>3d</fix>
</trkpt>
<trkpt lat="40.0713749" lon="-105.229789">
  <ele>1583.05</ele>
  <time>2026-08-28T17:56:30Z</time>
  <course>247.52</course>
  <speed>0.01</speed>
  <fix>3d</fix>
</trkpt>
<trkpt lat="40.0713749" lon="-105.229789">
  <ele>1583.0</ele>
  <time>2026-08-28T17:56:30Z</time>
  <course>0.0</course>
  <speed>0.0</speed>
  <fix>3d</fix>
</trkpt>
<trkpt lat="40.0713749" lon="-105.229789">
  <ele>1583.05</ele>
  <time>2026-08-28T17:56:30Z</time>
  <course>247.52</course>
  <speed>0.01</speed>
  <fix>3d</fix>
</trkpt>
<trkpt lat="40.0713749" lon="-105.229789">
  <ele>1583.0</ele>
  <time>2026-08-28T17:56:30Z</time>
  <course>0.0</course>
  <speed>0.0</speed>
  <fix>3d</fix>
</trkpt>
<trkpt lat="40.0713749" lon="-105.229789">
  <ele>1583.06</ele>
  <time>2026-08-28T17:56:30Z</time>
  <course>247.52</course>
  <speed>0.01</speed>
  <fix>3d</fix>
</trkpt>
<trkpt lat="40.0713749" lon="-105.229789">
  <ele>1583.0</ele>
  <time>2026-08-28T17:56:30Z</time>
  <course>0.0</course>
  <speed>0.0</speed>
  <fix>3d</fix>
</trkpt>
<trkpt lat="40.0713749" lon="-105.229789">
  <ele>1583.06</ele>
  <time>2026-08-28T17:56:30Z</time>
  <course>247.52</course>
  <speed>0.01</speed>
  <fix>3d</fix>
</trkpt>
<trkpt lat="40.0713749" lon="-105.229789">
  <ele>1583.0</ele>
  <time>2026-08-28T17:56:30Z</time>
  <course>0.0</course>
  <speed>0.0</speed>
  <fix>3d</fix>
</trkpt>
<trkpt lat="40.0713749" lon="-105.229789">
  <ele>1583.06</ele>
  <time>2026-08-28T17:56:30Z</time>
  <course>247.51</course>
  <speed>0.01</speed>
  <fix>3d</fix>
</trkpt>
<trkpt lat="40.0713749" lon="-105.229789">
  <ele>1583.0</ele>
  <time>2026-08-28T17:56:30Z</time>
  <course>0.0</course>
  <speed>0.0</speed>
  <fix>3d</fix>
</trkpt>
<trkpt lat="40.0713749" lon="-105.229789">
  <ele>1583.06</ele>
  <time>2026-08-28T17:56:30Z</time>
  <course>247.51</course>
  <speed>0.01</speed>
  <fix>3d</fix>
</trkpt>
<trkpt lat="40.0713749" lon="-105.229789">
  <ele>1583.0</ele>
  <time>2026-08-28T17:56:30Z</time>
  <course>0.0</course>
  <speed>0.0</speed>
  <fix>3d</fix>
</trkpt>
<trkpt lat="40.0713749" lon="-105.229789">
  <ele>1583.06</ele>
  <time>2026-08-28T17:56:30Z</time>
  <course>247.51</course>
  <speed>0.01</speed>
  <fix>3d</fix>
</trkpt>
<trkpt lat="40.0713749" lon="-105.229789">
  <ele>1583.0</ele>
  <time>2026-08-28T17:56:30Z</time>
  <course>0.0</course>
  <speed>0.0</speed>
  <fix>3d</fix>
</trkpt>
<trkpt lat="40.0713749" lon="-105.229789">
  <ele>1583.07</ele>
  <time>2026-08-28T17:56:30Z</time>
  <course>247.51</course>
  <speed>0.01</speed>
  <fix>3d</fix>
</trkpt>
<trkpt lat="40.0713749" lon="-105.229789">
  <ele>1583.0</ele>
  <time>2026-08-28T17:56:30Z</time>
  <course>0.0</course>
  <speed>0.0</speed>
  <fix>3d</fix>
</trkpt>
<trkpt lat="40.0713749" lon="-105.229789">
  <ele>1583.07</ele>
  <time>2026-08-28T17:56:30Z</time>
  <course>247.51</course>
  <speed>0.01</speed>
  <fix>3d</fix>
</trkpt>
<trkpt lat="40.0713749" lon="-105.229789">
  <ele>1583.0</ele>
  <time>2026-08-28T17:56:30Z</time>
  <course>0.0</course>
  <speed>0.0</speed>
  <fix>3d</fix>
</trkpt>
<trkpt lat="40.0713749" lon="-105.229789">
  <ele>1583.07</ele>
  <time>2026-08-28T17:56:30Z</time>
  <course>247.5</course>
  <speed>0.01</speed>
  <fix>3d</fix>
</trkpt>
<trkpt lat="40.0713749" lon="-105.229789">
  <ele>1583.0</ele>
  <time>2026-08-28T17:56:30Z</time>
  <course>0.0</course>
  <speed>0.0</speed>
  <fix>3d</fix>
</trkpt>
<trkpt lat="40.0713749" lon="-105.229789">
  <ele>1583.08</ele>
  <time>2026-08-28T17:56:30Z</time>
  <course>247.5</course>
  <speed>0.01</speed>
  <fix>3d</fix>
</trkpt>
<trkpt lat="40.0713749" lon="-105.229789">
  <ele>1583.0</ele>
  <time>2026-08-28T17:56:30Z</time>
  <course>0.0</course>
  <speed>0.0</speed>
  <fix>3d</fix>
</trkpt>
<trkpt lat="40.0713749" lon="-105.229789">
  <ele>1583.08</ele>
  <time>2026-08-28T17:56:30Z</time>
  <course>247.5</course>
  <speed>0.01</speed>
  <fix>3d</fix>
</trkpt>
<trkpt lat="40.0713749" lon="-105.229789">
  <ele>1583.0</ele>
  <time>2026-08-28T17:56:30Z</time>
  <course>0.0</course>
  <speed>0.0</speed>
  <fix>3d</fix>
</trkpt>
<trkpt lat="40.0713749" lon="-105.229789">
  <ele>1583.09</ele>
  <time>2026-08-28T17:56:30Z</time>
  <course>247.5</course>
  <speed>0.01</speed>
  <fix>3d</fix>
</trkpt>
<trkpt lat="40.0713749" lon="-105.229789">
  <ele>1583.0</ele>
  <time>2026-08-28T17:56:30Z</time>
  <course>0.0</course>
  <speed>0.0</speed>
  <fix>3d</fix>
</trkpt>
<trkpt lat="40.0713749" lon="-105.229789">
  <ele>1583.09</ele>
  <time>2026-08-28T17:56:30Z</time>
  <course>247.5</course>
  <speed>0.01</speed>
  <fix>3d</fix>
</trkpt>
<trkpt lat="40.0713749" lon="-105.229789">
  <ele>1583.0</ele>
  <time>2026-08-28T17:56:30Z</time>
  <course>0.0</course>
  <speed>0.0</speed>
  <fix>3d</fix>
</trkpt>
<trkpt lat="40.0713749" lon="-105.229789">
  <ele>1583.1</ele>
  <time>2026-08-28T17:56:30Z</time>
  <course>247.49</course>
  <speed>0.0</speed>
  <fix>3d</fix>
</trkpt>
<trkpt lat="40.0713749" lon="-105.229789">
  <ele>1583.0</ele>
  <time>2026-08-28T17:56:30Z</time>
  <course>0.0</course>
  <speed>0.0</speed>
  <fix>3d</fix>
</trkpt>
<trkpt lat="40.0713749" lon="-105.229789">
  <ele>1583.1</ele>
  <time>2026-08-28T17:56:30Z</time>
  <course>247.49</course>
  <speed>0.0</speed>
  <fix>3d</fix>
</trkpt>
<trkpt lat="40.0713749" lon="-105.229789">
  <ele>1583.0</ele>
  <time>2026-08-28T17:56:30Z</time>
  <course>0.0</course>
  <speed>0.0</speed>
  <fix>3d</fix>
</trkpt>
<trkpt lat="40.0713749" lon="-105.229789">
  <ele>1583.11</ele>
  <time>2026-08-28T17:56:30Z</time>
  <course>247.49</course>
  <speed>0.0</speed>
  <fix>3d</fix>
</trkpt>
<trkpt lat="40.0713749" lon="-105.229789">
  <ele>1583.0</ele>
  <time>2026-08-28T17:56:30Z</time>
  <course>0.0</course>
  <speed>0.0</speed>
  <fix>3d</fix>
</trkpt>
<trkpt lat="40.0713749" lon="-105.229789">
  <ele>1583.11</ele>
  <time>2026-08-28T17:56:30Z</time>
  <course>247.49</course>
  <speed>0.0</speed>
  <fix>3d</fix>
</trkpt>
<trkpt lat="40.0713749" lon="-105.229789">
  <ele>1583.0</ele>
  <time>2026-08-28T17:56:30Z</time>
  <course>0.0</course>
  <speed>0.0</speed>
  <fix>3d</fix>
</trkpt>
<trkpt lat="40.0713749" lon="-105.229789">
  <ele>1583.12</ele>
  <time>2026-08-28T17:56:30Z</time>
  <course>247.49</course>
  <speed>0.0</speed>
  <fix>3d</fix>
</trkpt>
<trkpt lat="40.0713749" lon="-105.229789">
  <ele>1583.0</ele>
  <time>2026-08-28T17:56:30Z</time>
  <course>0.0</course>
  <speed>0.0</speed>
  <fix>3d</fix>
</trkpt>
<trkpt lat="40.0713749" lon="-105.229789">
  <ele>1583.12</ele>
  <time>2026-08-28T17:56:30Z</time>
  <course>247.48</course>
  <speed>0.0</speed>
  <fix>3d</fix>
</trkpt>
<trkpt lat="40.0713749" lon="-105.229789">
  <ele>1583.0</ele>
  <time>2026-08-28T17:56:30Z</time>
  <course>0.0</course>
  <speed>0.0</speed>
  <fix>3d</fix>
</trkpt>
<trkpt lat="40.0713749" lon="-105.229789">
  <ele>1583.12</ele>
  <time>2026-08-28T17:56:30Z</time>
  <course>247.48</course>
  <speed>0.0</speed>
  <fix>3d</fix>
</trkpt>
<trkpt lat="40.0713749" lon="-105.229789">
  <ele>1583.0</ele>
  <time>2026-08-28T17:56:30Z</time>
  <course>0.0</course>
  <speed>0.0</speed>
  <fix>3d</fix>
</trkpt>
<trkpt lat="40.0713749" lon="-105.229789">
  <ele>1583.13</ele>
  <time>2026-08-28T17:56:30Z</time>
  <course>247.48</course>
  <speed>0.0</speed>
  <fix>3d</fix>
</trkpt>
<trkpt lat="40.0713749" lon="-105.229789">
  <ele>1583.0</ele>
  <time>2026-08-28T17:56:30Z</time>
  <course>0.0</course>
  <speed>0.0</speed>
  <fix>3d</fix>
</trkpt>
<trkpt lat="40.0713749" lon="-105.229789">
  <ele>1583.13</ele>
  <time>2026-08-28T17:56:30Z</time>
  <course>247.48</course>
  <speed>0.0</speed>
  <fix>3d</fix>
</trkpt>
<trkpt lat="40.0713749" lon="-105.229789">
  <ele>1583.0</ele>
  <time>2026-08-28T17:56:30Z</time>
  <course>0.0</course>
  <speed>0.0</speed>
  <fix>3d</fix>
</trkpt>
<trkpt lat="40.0713749" lon="-105.229789">
  <ele>1583.13</ele>
  <time>2026-08-28T17:56:30Z</time>
  <course>247.48</course>
  <speed>0.0</speed>
  <fix>3d</fix>
</trkpt>
<trkpt lat="40.0713749" lon="-105.229789">
  <ele>1583.0</ele>
  <time>2026-08-28T17:56:30Z</time>
  <course>246.0</course>
  <speed>0.0</speed>
  <fix>3d</fix>
</trkpt>
<trkpt lat="40.0713749" lon="-105.229789">
  <ele>1583.14</ele>
  <time>2026-08-28T17:56:30Z</time>
  <course>247.48</course>
  <speed>0.0</speed>
  <fix>3d</fix>
</trkpt>
<trkpt lat="40.0713749" lon="-105.229789">
  <ele>1583.0</ele>
  <time>2026-08-28T17:56:30Z</time>
  <course>246.0</course>
  <speed>0.0</speed>
  <fix>3d</fix>
</trkpt>
<trkpt lat="40.0713749" lon="-105.229789">
  <ele>1583.14</ele>
  <time>2026-08-28T17:56:30Z</time>
  <course>247.47</course>
  <speed>0.01</speed>
  <fix>3d</fix>
</trkpt>
<trkpt lat="40.0713749" lon="-105.229789">
  <ele>1583.0</ele>
  <time>2026-08-28T17:56:30Z</time>
  <course>246.0</course>
  <speed>0.0</speed>
  <fix>3d</fix>
</trkpt>
<trkpt lat="40.0713749" lon="-105.229789">
  <ele>1583.14</ele>
  <time>2026-08-28T17:56:30Z</time>
  <course>247.45</course>
  <speed>0.02</speed>
  <fix>3d</fix>
</trkpt>
<trkpt lat="40.0713749" lon="-105.229789">
  <ele>1583.0</ele>
  <time>2026-08-28T17:56:30Z</time>
  <course>245.98</course>
  <speed>0.02</speed>
  <fix>3d</fix>
</trkpt>
<trkpt lat="40.0713749" lon="-105.229789">
  <ele>1583.14</ele>
  <time>2026-08-28T17:56:30Z</time>
  <course>247.43</course>
  <speed>0.03</speed>
  <fix>3d</fix>
</trkpt>
<trkpt lat="40.0713749" lon="-105.229789">
  <ele>1583.0</ele>
  <time>2026-08-28T17:56:30Z</time>
  <course>245.98</course>
  <speed>0.02</speed>
  <fix>3d</fix>
</trkpt>
<trkpt lat="40.0713749" lon="-105.2297891">
  <ele>1583.13</ele>
  <time>2026-08-28T17:56:30Z</time>
  <course>247.39</course>
  <speed>0.05099019513592785</speed>
  <fix>3d</fix>
</trkpt>
<trkpt lat="40.0713749" lon="-105.229789">
  <ele>1583.0</ele>
  <time>2026-08-28T17:56:30Z</time>
  <course>245.94</course>
  <speed>0.04</speed>
  <fix>3d</fix>
</trkpt>
<trkpt lat="40.0713749" lon="-105.2297892">
  <ele>1583.13</ele>
  <time>2026-08-28T17:56:30Z</time>
  <course>247.33</course>
  <speed>0.07280109889280519</speed>
  <fix>3d</fix>
</trkpt>
<trkpt lat="40.0713749" lon="-105.229789">
  <ele>1583.0</ele>
  <time>2026-08-28T17:56:30Z</time>
  <course>245.94</course>
  <speed>0.04</speed>
  <fix>3d</fix>
</trkpt>
<trkpt lat="40.0713749" lon="-105.2297893">
  <ele>1583.13</ele>
  <time>2026-08-28T17:56:30Z</time>
  <course>247.25</course>
  <speed>0.09486832980505139</speed>
  <fix>3d</fix>
</trkpt>
<trkpt lat="40.0713749" lon="-105.229789">
  <ele>1583.0</ele>
  <time>2026-08-28T17:56:30Z</time>
  <course>245.94</course>
  <speed>0.04</speed>
  <fix>3d</fix>
</trkpt>
<trkpt lat="40.0713748" lon="-105.2297894">
  <ele>1583.13</ele>
  <time>2026-08-28T17:56:30Z</time>
  <course>247.14</course>
  <speed>0.1264911064067352</speed>
  <fix>3d</fix>
</trkpt>
<trkpt lat="40.0713749" lon="-105.2297892">
  <ele>1583.0</ele>
  <time>2026-08-28T17:56:30Z</time>
  <course>245.83</course>
  <speed>0.08</speed>
  <fix>3d</fix>
</trkpt>
<trkpt lat="40.0713748" lon="-105.2297896">
  <ele>1583.13</ele>
  <time>2026-08-28T17:56:30Z</time>
  <course>246.98</course>
  <speed>0.15811388300841897</speed>
  <fix>3d</fix>
</trkpt>
<trkpt lat="40.0713749" lon="-105.2297892">
  <ele>1583.0</ele>
  <time>2026-08-28T17:56:30Z</time>
  <course>245.83</course>
  <speed>0.08</speed>
  <fix>3d</fix>
</trkpt>
<trkpt lat="40.0713747" lon="-105.2297898">
  <ele>1583.13</ele>
  <time>2026-08-28T17:56:30Z</time>
  <course>246.78</course>
  <speed>0.19313207915827968</speed>
  <fix>3d</fix>
</trkpt>
<trkpt lat="40.0713748" lon="-105.2297894">
  <ele>1583.0</ele>
  <time>2026-08-28T17:56:30Z</time>
  <course>245.62</course>
  <speed>0.14</speed>
  <fix>3d</fix>
</trkpt>
<trkpt lat="40.0713747" lon="-105.22979">
  <ele>1583.13</ele>
  <time>2026-08-28T17:56:30Z</time>
  <course>246.53</course>
  <speed>0.2340939982143925</speed>
  <fix>3d</fix>
</trkpt>
<trkpt lat="40.0713748" lon="-105.2297894">
  <ele>1583.0</ele>
  <time>2026-08-28T17:56:30Z</time>
  <course>245.62</course>
  <speed>0.14</speed>
  <fix>3d</fix>
</trkpt>
<trkpt lat="40.0713746" lon="-105.2297903">
  <ele>1583.13</ele>
  <time>2026-08-28T17:56:30Z</time>
  <course>246.22</course>
  <speed>0.2785677655436824</speed>
  <fix>3d</fix>
</trkpt>
<trkpt lat="40.0713747" lon="-105.2297897">
  <ele>1583.0</ele>
  <time>2026-08-28T17:56:30Z</time>
  <course>245.25</course>
  <speed>0.21</speed>
  <fix>3d</fix>
</trkpt>
<trkpt lat="40.0713745" lon="-105.2297906">
  <ele>1583.13</ele>
  <time>2026-08-28T17:56:30Z</time>
  <course>245.92</course>
  <speed>0.3138470965295043</speed>
  <fix>3d</fix>
</trkpt>
<trkpt lat="40.0713747" lon="-105.2297897">
  <ele>1583.0</ele>
  <time>2026-08-28T17:56:30Z</time>
  <course>245.25</course>
  <speed>0.21</speed>
  <fix>3d</fix>
</trkpt>
<trkpt lat="40.0713743" lon="-105.229791">
  <ele>1583.13</ele>
  <time>2026-08-28T17:56:30Z</time>
  <course>245.49</course>
  <speed>0.3676955262170047</speed>
  <fix>3d</fix>
</trkpt>
<trkpt lat="40.0713745" lon="-105.2297903">
  <ele>1583.0</ele>
  <time>2026-08-28T17:56:30Z</time>
  <course>244.67</course>
  <speed>0.29</speed>
  <fix>3d</fix>
</trkpt>
<trkpt lat="40.0713742" lon="-105.2297914">
  <ele>1583.13</ele>
  <time>2026-08-28T17:56:30Z</time>
  <course>245.01</course>
  <speed>0.425440947723653</speed>
  <fix>3d</fix>
</trkpt>
<trkpt lat="40.0713745" lon="-105.2297903">
  <ele>1583.0</ele>
  <time>2026-08-28T17:56:30Z</time>
  <course>244.67</course>
  <speed>0.29</speed>
  <fix>3d</fix>
</trkpt>
<trkpt lat="40.071374" lon="-105.2297919">
  <ele>1583.14</ele>
  <time>2026-08-28T17:56:30Z</time>
  <course>244.48</course>
  <speed>0.4833218389437829</speed>
  <fix>3d</fix>
</trkpt>
<trkpt lat="40.0713742" lon="-105.2297911">
  <ele>1583.0</ele>
  <time>2026-08-28T17:56:30Z</time>
  <course>243.85</course>
  <speed>0.39</speed>
  <fix>3d</fix>
</trkpt>
<trkpt lat="40.0713738" lon="-105.2297925">
  <ele>1583.14</ele>
  <time>2026-08-28T17:56:30Z</time>
  <course>243.91</course>
  <speed>0.5503635162326805</speed>
  <fix>3d</fix>
</trkpt>
<trkpt lat="40.0713742" lon="-105.2297911">
  <ele>1583.0</ele>
  <time>2026-08-28T17:56:30Z</time>
  <course>243.85</course>
  <speed>0.39</speed>
  <fix>3d</fix>
</trkpt>
<trkpt lat="40.0713735" lon="-105.2297931">
  <ele>1583.14</ele>
  <time>2026-08-28T17:56:30Z</time>
  <course>243.31</course>
  <speed>0.6216912416947821</speed>
  <fix>3d</fix>
</trkpt>
<trkpt lat="40.0713739" lon="-105.229792">
  <ele>1583.0</ele>
  <time>2026-08-28T17:56:30Z</time>
  <course>242.83</course>
  <speed>0.51</speed>
  <fix>3d</fix>
</trkpt>
<trkpt lat="40.0713732" lon="-105.2297938">
  <ele>1583.15</ele>
  <time>2026-08-28T17:56:30Z</time>
  <course>242.7</course>
  <speed>0.6931810730249349</speed>
  <fix>3d</fix>
</trkpt>
<trkpt lat="40.0713739" lon="-105.229792">
  <ele>1583.0</ele>
  <time>2026-08-28T17:56:30Z</time>
  <course>242.83</course>
  <speed>0.51</speed>
  <fix>3d</fix>
</trkpt>
<trkpt lat="40.0713729" lon="-105.2297946">
  <ele>1583.15</ele>
  <time>2026-08-28T17:56:30Z</time>
  <course>242.09</course>
  <speed>0.7647875521999558</speed>
  <fix>3d</fix>
</trkpt>
<trkpt lat="40.0713734" lon="-105.2297932">
  <ele>1583.0</ele>
  <time>2026-08-28T17:56:30Z</time>
  <course>241.67</course>
  <speed>0.64</speed>
  <fix>3d</fix>
</trkpt>
<trkpt lat="40.0713726" lon="-105.2297955">
  <ele>1583.15</ele>
  <time>2026-08-28T17:56:30Z</time>
  <course>241.5</course>
  <speed>0.8364807230295268</speed>
  <fix>3d</fix>
</trkpt>
<trkpt lat="40.0713734" lon="-105.2297932">
  <ele>1583.0</ele>
  <time>2026-08-28T17:56:30Z</time>
  <course>241.67</course>
  <speed>0.64</speed>
  <fix>3d</fix>
</trkpt>
<trkpt lat="40.0713722" lon="-105.2297964">
  <ele>1583.15</ele>
  <time>2026-08-28T17:56:30Z</time>
  <course>240.94</course>
  <speed>0.9217917335276988</speed>
  <fix>3d</fix>
</trkpt>
<trkpt lat="40.0713728" lon="-105.2297946">
  <ele>1583.0</ele>
  <time>2026-08-28T17:56:30Z</time>
  <course>240.48</course>
  <speed>0.79</speed>
  <fix>3d</fix>
</trkpt>
<trkpt lat="40.0713716" lon="-105.2297976">
  <ele>1583.15</ele>
  <time>2026-08-28T17:56:30Z</time>
  <course>240.37</course>
  <speed>1.0208329931972222</speed>
  <fix>3d</fix>
</trkpt>
<trkpt lat="40.071372" lon="-105.2297964">
  <ele>1583.0</ele>
  <time>2026-08-28T17:56:30Z</time>
  <course>239.4</course>
  <speed>0.94</speed>
  <fix>3d</fix>
</trkpt>
<trkpt lat="40.0713711" lon="-105.2297987">
  <ele>1583.15</ele>
  <time>2026-08-28T17:56:30Z</time>
  <course>239.99</course>
  <speed>1.1063905277974861</speed>
  <fix>3d</fix>
</trkpt>
<trkpt lat="40.071372" lon="-105.2297964">
  <ele>1583.0</ele>
  <time>2026-08-28T17:56:30Z</time>
  <course>239.4</course>
  <speed>0.94</speed>
  <fix>3d</fix>
</trkpt>
<trkpt lat="40.0713706" lon="-105.2297999">
  <ele>1583.15</ele>
  <time>2026-08-28T17:56:30Z</time>
  <course>239.68</course>
  <speed>1.1920151005754918</speed>
  <fix>3d</fix>
</trkpt>
<trkpt lat="40.0713711" lon="-105.2297985">
  <ele>1583.0</ele>
  <time>2026-08-28T17:56:30Z</time>
  <course>238.58</course>
  <speed>1.11</speed>
  <fix>3d</fix>
</trkpt>
<trkpt lat="40.07137" lon="-105.2298012">
  <ele>1583.15</ele>
  <time>2026-08-28T17:56:30Z</time>
  <course>239.43</course>
  <speed>1.2776932339180638</speed>
  <fix>3d</fix>
</trkpt>
<trkpt lat="40.0713711" lon="-105.2297985">
  <ele>1583.0</ele>
  <time>2026-08-28T17:56:30Z</time>
  <course>238.58</course>
  <speed>1.11</speed>
  <fix>3d</fix>
</trkpt>
<trkpt lat="40.0713693" lon="-105.2298026">
  <ele>1583.15</ele>
  <time>2026-08-28T17:56:30Z</time>
  <course>239.23</course>
  <speed>1.3720058308913996</speed>
  <fix>3d</fix>
</trkpt>
<trkpt lat="40.0713711" lon="-105.2297985">
  <ele>1583.0</ele>
  <time>2026-08-28T17:56:30Z</time>
  <course>238.58</course>
  <speed>1.11</speed>
  <fix>3d</fix>
</trkpt>
<trkpt lat="40.0713687" lon="-105.229804">
  <ele>1583.15</ele>
  <time>2026-08-28T17:56:30Z</time>
  <course>239.07</course>
  <speed>1.457737973711325</speed>
  <fix>3d</fix>
</trkpt>
<trkpt lat="40.0713699" lon="-105.2298009">
  <ele>1583.0</ele>
  <time>2026-08-28T17:56:30Z</time>
  <course>238.03</course>
  <speed>1.28</speed>
  <fix>3d</fix>
</trkpt>
<trkpt lat="40.0713679" lon="-105.2298055">
  <ele>1583.15</ele>
  <time>2026-08-28T17:56:30Z</time>
  <course>238.94</course>
  <speed>1.552063143045411</speed>
  <fix>3d</fix>
</trkpt>
<trkpt lat="40.0713699" lon="-105.2298009">
  <ele>1583.0</ele>
  <time>2026-08-28T17:56:30Z</time>
  <course>238.03</course>
  <speed>1.28</speed>
  <fix>3d</fix>
</trkpt>
<trkpt lat="40.0713671" lon="-105.2298071">
  <ele>1583.15</ele>
  <time>2026-08-28T17:56:30Z</time>
  <course>238.83</course>
  <speed>1.6463899902513983</speed>
  <fix>3d</fix>
</trkpt>
<trkpt lat="40.0713686" lon="-105.2298036">
  <ele>1583.0</ele>
  <time>2026-08-28T17:56:30Z</time>
  <course>237.68</course>
  <speed>1.46</speed>
  <fix>3d</fix>
</trkpt>
<trkpt lat="40.0713663" lon="-105.2298088">
  <ele>1583.15</ele>
  <time>2026-08-28T17:56:30Z</time>
  <course>238.74</course>
  <speed>1.73738308959193</speed>
  <fix>3d</fix>
</trkpt>
<trkpt lat="40.0713686" lon="-105.2298036">
  <ele>1583.0</ele>
  <time>2026-08-28T17:56:30Z</time>
  <course>237.68</course>
  <speed>1.46</speed>
  <fix>3d</fix>
</trkpt>
<trkpt lat="40.0713655" lon="-105.2298106">
  <ele>1583.15</ele>
  <time>2026-08-28T17:56:30Z</time>
  <course>238.68</course>
  <speed>1.8317205026968497</speed>
  <fix>3d</fix>
</trkpt>
<trkpt lat="40.0713671" lon="-105.2298068">
  <ele>1583.0</ele>
  <time>2026-08-28T17:56:30Z</time>
  <course>237.46</course>
  <speed>1.65</speed>
  <fix>3d</fix>
</trkpt>
<trkpt lat="40.0713646" lon="-105.2298125">
  <ele>1583.15</ele>
  <time>2026-08-28T17:56:30Z</time>
  <course>238.62</course>
  <speed>1.9260581507316958</speed>
  <fix>3d</fix>
</trkpt>
<trkpt lat="40.0713671" lon="-105.2298068">
  <ele>1583.0</ele>
  <time>2026-08-28T17:56:30Z</time>
  <course>237.46</course>
  <speed>1.65</speed>
  <fix>3d</fix>
</trkpt>
<trkpt lat="40.0713638" lon="-105.2298141">
  <ele>1583.15</ele>
  <time>2026-08-28T17:56:30Z</time>
  <course>238.59</course>
  <speed>2.0066389809828773</speed>
  <fix>3d</fix>
</trkpt>
<trkpt lat="40.0713654" lon="-105.2298102">
  <ele>1583.0</ele>
  <time>2026-08-28T17:56:30Z</time>
  <course>237.32</course>
  <speed>1.84</speed>
  <fix>3d</fix>
</trkpt>
<trkpt lat="40.0713628" lon="-105.2298161">
  <ele>1583.15</ele>
  <time>2026-08-28T17:56:30Z</time>
  <course>238.55</course>
  <speed>2.106228857460651</speed>
  <fix>3d</fix>
</trkpt>
<trkpt lat="40.0713654" lon="-105.2298102">
  <ele>1583.0</ele>
  <time>2026-08-28T17:56:30Z</time>
  <course>237.32</course>
  <speed>1.84</speed>
  <fix>3d</fix>
</trkpt>
<trkpt lat="40.0713617" lon="-105.2298183">
  <ele>1583.15</ele>
  <time>2026-08-28T17:56:30Z</time>
  <course>238.54</course>
  <speed>2.209072203437452</speed>
  <fix>3d</fix>
</trkpt>
<trkpt lat="40.0713635" lon="-105.2298141">
  <ele>1583.0</ele>
  <time>2026-08-28T17:56:30Z</time>
  <course>237.24</course>
  <speed>2.03</speed>
  <fix>3d</fix>
</trkpt>
<trkpt lat="40.0713606" lon="-105.2298206">
  <ele>1583.14</ele>
  <time>2026-08-28T17:56:30Z</time>
  <course>238.53</course>
  <speed>2.3034105148670307</speed>
  <fix>3d</fix>
</trkpt>
<trkpt lat="40.0713635" lon="-105.2298141">
  <ele>1583.0</ele>
  <time>2026-08-28T17:56:30Z</time>
  <course>237.24</course>
  <speed>2.03</speed>
  <fix>3d</fix>
</trkpt>
<trkpt lat="40.0713594" lon="-105.229823">
  <ele>1583.14</ele>
  <time>2026-08-28T17:56:30Z</time>
  <course>238.52</course>
  <speed>2.403018934590404</speed>
  <fix>3d</fix>
</trkpt>
<trkpt lat="40.0713614" lon="-105.2298182">
  <ele>1583.0</ele>
  <time>2026-08-28T17:56:30Z</time>
  <course>237.22</course>
  <speed>2.23</speed>
  <fix>3d</fix>
</trkpt>
<trkpt lat="40.0713582" lon="-105.2298254">
  <ele>1583.14</ele>
  <time>2026-08-28T17:56:30Z</time>
  <course>238.51</course>
  <speed>2.5058531481313904</speed>
  <fix>3d</fix>
</trkpt>
<trkpt lat="40.0713614" lon="-105.2298182">
  <ele>1583.0</ele>
  <time>2026-08-28T17:56:30Z</time>
  <course>237.22</course>
  <speed>2.23</speed>
  <fix>3d</fix>
</trkpt>
<trkpt lat="40.0713569" lon="-105.229828">
  <ele>1583.14</ele>
  <time>2026-08-28T17:56:30Z</time>
  <course>238.5</course>
  <speed>2.60547500467765</speed>
  <fix>3d</fix>
</trkpt>
<trkpt lat="40.0713591" lon="-105.2298228">
  <ele>1583.0</ele>
  <time>2026-08-28T17:56:30Z</time>
  <course>237.22</course>
  <speed>2.42</speed>
  <fix>3d</fix>
</trkpt>
<trkpt lat="40.0713556" lon="-105.2298307">
  <ele>1583.14</ele>
  <time>2026-08-28T17:56:30Z</time>
  <course>238.48</course>
  <speed>2.7083020511013904</speed>
  <fix>3d</fix>
</trkpt>
<trkpt lat="40.0713591" lon="-105.2298228">
  <ele>1583.0</ele>
  <time>2026-08-28T17:56:30Z</time>
  <course>237.22</course>
  <speed>2.42</speed>
  <fix>3d</fix>
</trkpt>
<trkpt lat="40.0713543" lon="-105.2298335">
  <ele>1583.14</ele>
  <time>2026-08-28T17:56:30Z</time>
  <course>238.47</course>
  <speed>2.8079351844371336</speed>
  <fix>3d</fix>
</trkpt>
<trkpt lat="40.0713567" lon="-105.2298279">
  <ele>1583.0</ele>
  <time>2026-08-28T17:56:30Z</time>
  <course>237.22</course>
  <speed>2.62</speed>
  <fix>3d</fix>
</trkpt>
<trkpt lat="40.0713526" lon="-105.2298369">
  <ele>1583.13</ele>
  <time>2026-08-28T17:56:30Z</time>
  <course>238.46</course>
  <speed>2.924534150937547</speed>
  <fix>3d</fix>
</trkpt>
<trkpt lat="40.071354" lon="-105.2298332">
  <ele>1583.0</ele>
  <time>2026-08-28T17:56:30Z</time>
  <course>237.22</course>
  <speed>2.82</speed>
  <fix>3d</fix>
</trkpt>
<trkpt lat="40.0713511" lon="-105.2298399">
  <ele>1583.13</ele>
  <time>2026-08-28T17:56:30Z</time>
  <course>238.44</course>
  <speed>3.032655601943617</speed>
  <fix>3d</fix>
</trkpt>
<trkpt lat="40.071354" lon="-105.2298332">
  <ele>1583.0</ele>
  <time>2026-08-28T17:56:30Z</time>
  <course>237.22</course>
  <speed>2.82</speed>
  <fix>3d</fix>
</trkpt>
<trkpt lat="40.0713496" lon="-105.229843">
  <ele>1583.13</ele>
  <time>2026-08-28T17:56:30Z</time>
  <course>238.45</course>
  <speed>3.126995362964262</speed>
  <fix>3d</fix>
</trkpt>
<trkpt lat="40.0713512" lon="-105.229839">
  <ele>1583.0</ele>
  <time>2026-08-28T17:56:30Z</time>
  <course>237.23</course>
  <speed>3.02</speed>
  <fix>3d</fix>
</trkpt>
<trkpt lat="40.071348" lon="-105.2298462">
  <ele>1583.13</ele>
  <time>2026-08-28T17:56:30Z</time>
  <course>238.46</course>
  <speed>3.22981423614424</speed>
  <fix>3d</fix>
</trkpt>
<trkpt lat="40.0713512" lon="-105.229839">
  <ele>1583.0</ele>
  <time>2026-08-28T17:56:30Z</time>
  <course>237.23</course>
  <speed>3.02</speed>
  <fix>3d</fix>
</trkpt>
<trkpt lat="40.0713464" lon="-105.2298494">
  <ele>1583.13</ele>
  <time>2026-08-28T17:56:30Z</time>
  <course>238.48</course>
  <speed>3.329459415580854</speed>
  <fix>3d</fix>
</trkpt>
<trkpt lat="40.0713512" lon="-105.229839">
  <ele>1583.0</ele>
  <time>2026-08-28T17:56:30Z</time>
  <course>237.23</course>
  <speed>3.02</speed>
  <fix>3d</fix>
</trkpt>
<trkpt lat="40.0713447" lon="-105.2298528">
  <ele>1583.13</ele>
  <time>2026-08-28T17:56:30Z</time>
  <course>238.5</course>
  <speed>3.423799059524376</speed>
  <fix>3d</fix>
</trkpt>
<trkpt lat="40.0713482" lon="-105.2298452">
  <ele>1583.0</ele>
  <time>2026-08-28T17:56:30Z</time>
  <course>237.26</course>
  <speed>3.21</speed>
  <fix>3d</fix>
</trkpt>
<trkpt lat="40.071343" lon="-105.2298563">
  <ele>1583.14</ele>
  <time>2026-08-28T17:56:30Z</time>
  <course>238.51</course>
  <speed>3.5266131060835124</speed>
  <fix>3d</fix>
</trkpt>
<trkpt lat="40.0713482" lon="-105.2298452">
  <ele>1583.0</ele>
  <time>2026-08-28T17:56:30Z</time>
  <course>237.26</course>
  <speed>3.21</speed>
  <fix>3d</fix>
</trkpt>
<trkpt lat="40.0713413" lon="-105.2298598">
  <ele>1583.14</ele>
  <time>2026-08-28T17:56:30Z</time>
  <course>238.53</course>
  <speed>3.620952913253637</speed>
  <fix>3d</fix>
</trkpt>
<trkpt lat="40.0713449" lon="-105.2298517">
  <ele>1583.0</ele>
  <time>2026-08-28T17:56:30Z</time>
  <course>237.31</course>
  <speed>3.41</speed>
  <fix>3d</fix>
</trkpt>
<trkpt lat="40.0713395" lon="-105.2298634">
  <ele>1583.14</ele>
  <time>2026-08-28T17:56:30Z</time>
  <course>238.56</course>
  <speed>3.7152927206345394</speed>
  <fix>3d</fix>
</trkpt>
<trkpt lat="40.0713449" lon="-105.2298517">
  <ele>1583.0</ele>
  <time>2026-08-28T17:56:30Z</time>
  <course>237.31</course>
  <speed>3.41</speed>
  <fix>3d</fix>
</trkpt>
<trkpt lat="40.0713377" lon="-105.2298672">
  <ele>1583.14</ele>
  <time>2026-08-28T17:56:30Z</time>
  <course>238.56</course>
  <speed>3.8181147180251145</speed>
  <fix>3d</fix>
</trkpt>
<trkpt lat="40.0713415" lon="-105.2298587">
  <ele>1583.0</ele>
  <time>2026-08-28T17:56:30Z</time>
  <course>237.37</course>
  <speed>3.61</speed>
  <fix>3d</fix>
</trkpt>
<trkpt lat="40.0713358" lon="-105.229871">
  <ele>1583.15</ele>
  <time>2026-08-28T17:56:30Z</time>
  <course>238.58</course>
  <speed>3.9124544725785624</speed>
  <fix>3d</fix>
</trkpt>
<trkpt lat="40.0713415" lon="-105.2298587">
  <ele>1583.0</ele>
  <time>2026-08-28T17:56:30Z</time>
  <course>237.37</course>
  <speed>3.61</speed>
  <fix>3d</fix>
</trkpt>
<trkpt lat="40.0713339" lon="-105.2298749">
  <ele>1583.15</ele>
  <time>2026-08-28T17:56:30Z</time>
  <course>238.6</course>
  <speed>4.012094216241687</speed>
  <fix>3d</fix>
</trkpt>
<trkpt lat="40.0713379" lon="-105.229866">
  <ele>1583.0</ele>
  <time>2026-08-28T17:56:30Z</time>
  <course>237.42</course>
  <speed>3.81</speed>
  <fix>3d</fix>
</trkpt>
<trkpt lat="40.0713324" lon="-105.2298781">
  <ele>1583.15</ele>
  <time>2026-08-28T17:56:30Z</time>
  <course>238.6</course>
  <speed>4.092651951974417</speed>
  <fix>3d</fix>
</trkpt>
<trkpt lat="40.0713379" lon="-105.229866">
  <ele>1583.0</ele>
  <time>2026-08-28T17:56:30Z</time>
  <course>237.42</course>
  <speed>3.81</speed>
  <fix>3d</fix>
</trkpt>
<trkpt lat="40.0713303" lon="-105.2298822">
  <ele>1583.15</ele>
  <time>2026-08-28T17:56:30Z</time>
  <course>238.63</course>
  <speed>4.195473751556551</speed>
  <fix>3d</fix>
</trkpt>
<trkpt lat="40.0713341" lon="-105.2298737">
  <ele>1583.0</ele>
  <time>2026-08-28T17:56:30Z</time>
  <course>237.47</course>
  <speed>4.0</speed>
  <fix>3d</fix>
</trkpt>
<trkpt lat="40.0713283" lon="-105.2298865">
  <ele>1583.14</ele>
  <time>2026-08-28T17:56:30Z</time>
  <course>238.64</course>
  <speed>4.28981351576033</speed>
  <fix>3d</fix>
</trkpt>
<trkpt lat="40.0713341" lon="-105.2298737">
  <ele>1583.0</ele>
  <time>2026-08-28T17:56:30Z</time>
  <course>237.47</course>
  <speed>4.0</speed>
  <fix>3d</fix>
</trkpt>
<trkpt lat="40.0713261" lon="-105.2298908">
  <ele>1583.14</ele>
  <time>2026-08-28T17:56:30Z</time>
  <course>238.65</course>
  <speed>4.397931331887754</speed>
  <fix>3d</fix>
</trkpt>
<trkpt lat="40.0713302" lon="-105.2298819">
  <ele>1583.0</ele>
  <time>2026-08-28T17:56:30Z</time>
  <course>237.52</course>
  <speed>4.21</speed>
  <fix>3d</fix>
</trkpt>
<trkpt lat="40.071324" lon="-105.2298953">
  <ele>1583.14</ele>
  <time>2026-08-28T17:56:30Z</time>
  <course>238.67</course>
  <speed>4.500755492136848</speed>
  <fix>3d</fix>
</trkpt>
<trkpt lat="40.0713302" lon="-105.2298819">
  <ele>1583.0</ele>
  <time>2026-08-28T17:56:30Z</time>
  <course>237.52</course>
  <speed>4.21</speed>
  <fix>3d</fix>
</trkpt>
<trkpt lat="40.0713218" lon="-105.2298998">
  <ele>1583.14</ele>
  <time>2026-08-28T17:56:30Z</time>
  <course>238.67</course>
  <speed>4.595095211200743</speed>
  <fix>3d</fix>
</trkpt>
<trkpt lat="40.071326" lon="-105.2298904">
  <ele>1583.0</ele>
  <time>2026-08-28T17:56:30Z</time>
  <course>237.57</course>
  <speed>4.41</speed>
  <fix>3d</fix>
</trkpt>
<trkpt lat="40.0713195" lon="-105.2299045">
  <ele>1583.15</ele>
  <time>2026-08-28T17:56:30Z</time>
  <course>238.69</course>
  <speed>4.697925073902308</speed>
  <fix>3d</fix>
</trkpt>
<trkpt lat="40.071326" lon="-105.2298904">
  <ele>1583.0</ele>
  <time>2026-08-28T17:56:30Z</time>
  <course>237.57</course>
  <speed>4.41</speed>
  <fix>3d</fix>
</trkpt>
<trkpt lat="40.0713172" lon="-105.2299092">
  <ele>1583.15</ele>
  <time>2026-08-28T17:56:30Z</time>
  <course>238.71</course>
  <speed>4.792264600374232</speed>
  <fix>3d</fix>
</trkpt>
<trkpt lat="40.0713217" lon="-105.2298993">
  <ele>1583.0</ele>
  <time>2026-08-28T17:56:30Z</time>
  <course>237.61</course>
  <speed>4.6</speed>
  <fix>3d</fix>
</trkpt>
<trkpt lat="40.0713148" lon="-105.2299141">
  <ele>1583.15</ele>
  <time>2026-08-28T17:56:30Z</time>
  <course>238.73</course>
  <speed>4.878114389802683</speed>
  <fix>3d</fix>
</trkpt>
<trkpt lat="40.0713217" lon="-105.2298993">
  <ele>1583.0</ele>
  <time>2026-08-28T17:56:30Z</time>
  <course>237.61</course>
  <speed>4.6</speed>
  <fix>3d</fix>
</trkpt>
<trkpt lat="40.071312" lon="-105.22992">
  <ele>1583.15</ele>
  <time>2026-08-28T17:56:30Z</time>
  <course>238.74</course>
  <speed>4.980943685688486</speed>
  <fix>3d</fix>
</trkpt>
<trkpt lat="40.0713171" lon="-105.2299087">
  <ele>1583.0</ele>
  <time>2026-08-28T17:56:30Z</time>
  <course>237.66</course>
  <speed>4.79</speed>
  <fix>3d</fix>
</trkpt>
<trkpt lat="40.0713095" lon="-105.2299251">
  <ele>1583.15</ele>
  <time>2026-08-28T17:56:30Z</time>
  <course>238.78</course>
  <speed>5.0530188996282215</speed>
  <fix>3d</fix>
</trkpt>
<trkpt lat="40.0713125" lon="-105.2299184">
  <ele>1583.0</ele>
  <time>2026-08-28T17:56:30Z</time>
  <course>237.72</course>
  <speed>4.96</speed>
  <fix>3d</fix>
</trkpt>
<trkpt lat="40.0713071" lon="-105.2299301">
  <ele>1583.15</ele>
  <time>2026-08-28T17:56:30Z</time>
  <course>238.81</course>
  <speed>5.119814449762804</speed>
  <fix>3d</fix>
</trkpt>
<trkpt lat="40.0713125" lon="-105.2299184">
  <ele>1583.0</ele>
  <time>2026-08-28T17:56:30Z</time>
  <course>237.72</course>
  <speed>4.96</speed>
  <fix>3d</fix>
</trkpt>
<trkpt lat="40.0713046" lon="-105.2299353">
  <ele>1583.15</ele>
  <time>2026-08-28T17:56:30Z</time>
  <course>238.84</course>
  <speed>5.169622810225133</speed>
  <fix>3d</fix>
</trkpt>
<trkpt lat="40.0713077" lon="-105.2299283">
  <ele>1583.0</ele>
  <time>2026-08-28T17:56:30Z</time>
  <course>237.78</course>
  <speed>5.09</speed>
  <fix>3d</fix>
</trkpt>
<trkpt lat="40.0713021" lon="-105.2299405">
  <ele>1583.15</ele>
  <time>2026-08-28T17:56:30Z</time>
  <course>238.86</course>
  <speed>5.214153814378705</speed>
  <fix>3d</fix>
</trkpt>
<trkpt lat="40.0713077" lon="-105.2299283">
  <ele>1583.0</ele>
  <time>2026-08-28T17:56:30Z</time>
  <course>237.78</course>
  <speed>5.09</speed>
  <fix>3d</fix>
</trkpt>
<trkpt lat="40.0712996" lon="-105.2299457">
  <ele>1583.15</ele>
  <time>2026-08-28T17:56:30Z</time>
  <course>238.88</course>
  <speed>5.244921353080521</speed>
  <fix>3d</fix>
</trkpt>
<trkpt lat="40.0713077" lon="-105.2299283">
  <ele>1583.0</ele>
  <time>2026-08-28T17:56:30Z</time>
  <course>237.78</course>
  <speed>5.09</speed>
  <fix>3d</fix>
</trkpt>
<trkpt lat="40.0712971" lon="-105.2299509">
  <ele>1583.15</ele>
  <time>2026-08-28T17:56:30Z</time>
  <course>238.92</course>
  <speed>5.258688049314202</speed>
  <fix>3d</fix>
</trkpt>
<trkpt lat="40.0713028" lon="-105.2299386">
  <ele>1583.0</ele>
  <time>2026-08-28T17:56:30Z</time>
  <course>237.85</course>
  <speed>5.19</speed>
  <fix>3d</fix>
</trkpt>
<trkpt lat="40.0712946" lon="-105.2299562">
  <ele>1583.15</ele>
  <time>2026-08-28T17:56:30Z</time>
  <course>238.97</course>
  <speed>5.267190902179263</speed>
  <fix>3d</fix>
</trkpt>
<trkpt lat="40.0713028" lon="-105.2299386">
  <ele>1583.0</ele>
  <time>2026-08-28T17:56:30Z</time>
  <course>237.85</course>
  <speed>5.19</speed>
  <fix>3d</fix>
</trkpt>
<trkpt lat="40.0712921" lon="-105.2299613">
  <ele>1583.16</ele>
  <time>2026-08-28T17:56:30Z</time>
  <course>238.99</course>
  <speed>5.258688049314202</speed>
  <fix>3d</fix>
</trkpt>
<trkpt lat="40.0712977" lon="-105.229949">
  <ele>1583.0</ele>
  <time>2026-08-28T17:56:30Z</time>
  <course>237.92</course>
  <speed>5.23</speed>
  <fix>3d</fix>
</trkpt>
<trkpt lat="40.0712896" lon="-105.2299665">
  <ele>1583.16</ele>
  <time>2026-08-28T17:56:30Z</time>
  <course>239.02</course>
  <speed>5.253427452625572</speed>
  <fix>3d</fix>
</trkpt>
<trkpt lat="40.0712977" lon="-105.229949">
  <ele>1583.0</ele>
  <time>2026-08-28T17:56:30Z</time>
  <course>237.92</course>
  <speed>5.23</speed>
  <fix>3d</fix>
</trkpt>
<trkpt lat="40.0712871" lon="-105.2299717">
  <ele>1583.16</ele>
  <time>2026-08-28T17:56:30Z</time>
  <course>239.08</course>
  <speed>5.231156659860227</speed>
  <fix>3d</fix>
</trkpt>
<trkpt lat="40.0712927" lon="-105.2299594">
  <ele>1583.0</ele>
  <time>2026-08-28T17:56:30Z</time>
  <course>237.99</course>
  <speed>5.24</speed>
  <fix>3d</fix>
</trkpt>
<trkpt lat="40.0712847" lon="-105.2299769">
  <ele>1583.17</ele>
  <time>2026-08-28T17:56:30Z</time>
  <course>239.09</course>
  <speed>5.208886637276723</speed>
  <fix>3d</fix>
</trkpt>
<trkpt lat="40.0712878" lon="-105.2299698">
  <ele>1583.0</ele>
  <time>2026-08-28T17:56:30Z</time>
  <course>238.05</course>
  <speed>5.22</speed>
  <fix>3d</fix>
</trkpt>
<trkpt lat="40.0712827" lon="-105.229981">
  <ele>1583.17</ele>
  <time>2026-08-28T17:56:30Z</time>
  <course>239.12</course>
  <speed>5.181360825111488</speed>
  <fix>3d</fix>
</trkpt>
<trkpt lat="40.0712878" lon="-105.2299698">
  <ele>1583.0</ele>
  <time>2026-08-28T17:56:30Z</time>
  <course>238.05</course>
  <speed>5.22</speed>
  <fix>3d</fix>
</trkpt>
<trkpt lat="40.0712802" lon="-105.2299861">
  <ele>1583.17</ele>
  <time>2026-08-28T17:56:30Z</time>
  <course>239.17</course>
  <speed>5.159089066879927</speed>
  <fix>3d</fix>
</trkpt>
<trkpt lat="40.0712878" lon="-105.2299698">
  <ele>1583.0</ele>
  <time>2026-08-28T17:56:30Z</time>
  <course>238.05</course>
  <speed>5.22</speed>
  <fix>3d</fix>
</trkpt>
<trkpt lat="40.0712778" lon="-105.2299913">
  <ele>1583.17</ele>
  <time>2026-08-28T17:56:30Z</time>
  <course>239.2</course>
  <speed>5.13156896085398</speed>
  <fix>3d</fix>
</trkpt>
<trkpt lat="40.0712828" lon="-105.2299802">
  <ele>1583.0</ele>
  <time>2026-08-28T17:56:30Z</time>
  <course>238.12</course>
  <speed>5.18</speed>
  <fix>3d</fix>
</trkpt>
<trkpt lat="40.0712753" lon="-105.2299964">
  <ele>1583.17</ele>
  <time>2026-08-28T17:56:30Z</time>
  <course>239.23</course>
  <speed>5.095537263135262</speed>
  <fix>3d</fix>
</trkpt>
<trkpt lat="40.0712828" lon="-105.2299802">
  <ele>1583.0</ele>
  <time>2026-08-28T17:56:30Z</time>
  <course>238.12</course>
  <speed>5.18</speed>
  <fix>3d</fix>
</trkpt>
<trkpt lat="40.0712729" lon="-105.2300015">
  <ele>1583.17</ele>
  <time>2026-08-28T17:56:30Z</time>
  <course>239.3</course>
  <speed>5.059505904730224</speed>
  <fix>3d</fix>
</trkpt>
<trkpt lat="40.071278" lon="-105.2299905">
  <ele>1583.0</ele>
  <time>2026-08-28T17:56:30Z</time>
  <course>238.19</course>
  <speed>5.12</speed>
  <fix>3d</fix>
</trkpt>
<trkpt lat="40.0712705" lon="-105.2300065">
  <ele>1583.17</ele>
  <time>2026-08-28T17:56:30Z</time>
  <course>239.33</course>
  <speed>5.023474892940145</speed>
  <fix>3d</fix>
</trkpt>
<trkpt lat="40.071278" lon="-105.2299905">
  <ele>1583.0</ele>
  <time>2026-08-28T17:56:30Z</time>
  <course>238.19</course>
  <speed>5.12</speed>
  <fix>3d</fix>
</trkpt>
<trkpt lat="40.0712682" lon="-105.2300115">
  <ele>1583.17</ele>
  <time>2026-08-28T17:56:30Z</time>
  <course>239.39</course>
  <speed>4.973690782507493</speed>
  <fix>3d</fix>
</trkpt>
<trkpt lat="40.0712732" lon="-105.2300007">
  <ele>1583.0</ele>
  <time>2026-08-28T17:56:30Z</time>
  <course>238.28</course>
  <speed>5.05</speed>
  <fix>3d</fix>
</trkpt>
<trkpt lat="40.0712658" lon="-105.2300165">
  <ele>1583.17</ele>
  <time>2026-08-28T17:56:30Z</time>
  <course>239.44</course>
  <speed>4.923911047125039</speed>
  <fix>3d</fix>
</trkpt>
<trkpt lat="40.0712732" lon="-105.2300007">
  <ele>1583.0</ele>
  <time>2026-08-28T17:56:30Z</time>
  <course>238.28</course>
  <speed>5.05</speed>
  <fix>3d</fix>
</trkpt>
<trkpt lat="40.0712635" lon="-105.2300214">
  <ele>1583.17</ele>
  <time>2026-08-28T17:56:30Z</time>
  <course>239.49</course>
  <speed>4.865603765207356</speed>
  <fix>3d</fix>
</trkpt>
<trkpt lat="40.0712684" lon="-105.2300107">
  <ele>1583.0</ele>
  <time>2026-08-28T17:56:30Z</time>
  <course>238.38</course>
  <speed>4.97</speed>
  <fix>3d</fix>
</trkpt>
<trkpt lat="40.0712608" lon="-105.2300272">
  <ele>1583.17</ele>
  <time>2026-08-28T17:56:30Z</time>
  <course>239.57</course>
  <speed>4.779801251098209</speed>
  <fix>3d</fix>
</trkpt>
<trkpt lat="40.0712637" lon="-105.2300205">
  <ele>1583.0</ele>
  <time>2026-08-28T17:56:30Z</time>
  <course>238.48</course>
  <speed>4.86</speed>
  <fix>3d</fix>
</trkpt>
<trkpt lat="40.0712586" lon="-105.2300319">
  <ele>1583.17</ele>
  <time>2026-08-28T17:56:30Z</time>
  <course>239.64</course>
  <speed>4.707748931283401</speed>
  <fix>3d</fix>
</trkpt>
<trkpt lat="40.0712637" lon="-105.2300205">
  <ele>1583.0</ele>
  <time>2026-08-28T17:56:30Z</time>
  <course>238.48</course>
  <speed>4.86</speed>
  <fix>3d</fix>
</trkpt>
<trkpt lat="40.0712564" lon="-105.2300366">
  <ele>1583.17</ele>
  <time>2026-08-28T17:56:30Z</time>
  <course>239.71</course>
  <speed>4.621958459354649</speed>
  <fix>3d</fix>
</trkpt>
<trkpt lat="40.0712592" lon="-105.2300301">
  <ele>1583.0</ele>
  <time>2026-08-28T17:56:30Z</time>
  <course>238.6</course>
  <speed>4.72</speed>
  <fix>3d</fix>
</trkpt>
<trkpt lat="40.0712542" lon="-105.2300412">
  <ele>1583.17</ele>
  <time>2026-08-28T17:56:30Z</time>
  <course>239.75</course>
  <speed>4.527626309668235</speed>
  <fix>3d</fix>
</trkpt>
<trkpt lat="40.0712592" lon="-105.2300301">
  <ele>1583.0</ele>
  <time>2026-08-28T17:56:30Z</time>
  <course>238.6</course>
  <speed>4.72</speed>
  <fix>3d</fix>
</trkpt>
<trkpt lat="40.0712521" lon="-105.2300457">
  <ele>1583.17</ele>
  <time>2026-08-28T17:56:30Z</time>
  <course>239.73</course>
  <speed>4.429954853043087</speed>
  <fix>3d</fix>
</trkpt>
<trkpt lat="40.0712592" lon="-105.2300301">
  <ele>1583.0</ele>
  <time>2026-08-28T17:56:30Z</time>
  <course>238.6</course>
  <speed>4.72</speed>
  <fix>3d</fix>
</trkpt>
<trkpt lat="40.0712501" lon="-105.23005">
  <ele>1583.17</ele>
  <time>2026-08-28T17:56:30Z</time>
  <course>239.57</course>
  <speed>4.318564576337837</speed>
  <fix>3d</fix>
</trkpt>
<trkpt lat="40.0712549" lon="-105.2300395">
  <ele>1583.0</ele>
  <time>2026-08-28T17:56:30Z</time>
  <course>238.67</course>
  <speed>4.55</speed>
  <fix>3d</fix>
</trkpt>
<trkpt lat="40.071248" lon="-105.2300543">
  <ele>1583.17</ele>
  <time>2026-08-28T17:56:30Z</time>
  <course>239.25</course>
  <speed>4.20396241657796</speed>
  <fix>3d</fix>
</trkpt>
<trkpt lat="40.0712549" lon="-105.2300395">
  <ele>1583.0</ele>
  <time>2026-08-28T17:56:30Z</time>
  <course>238.67</course>
  <speed>4.55</speed>
  <fix>3d</fix>
</trkpt>
<trkpt lat="40.0712461" lon="-105.2300583">
  <ele>1583.17</ele>
  <time>2026-08-28T17:56:30Z</time>
  <course>238.77</course>
  <speed>4.086392051675904</speed>
  <fix>3d</fix>
</trkpt>
<trkpt lat="40.0712508" lon="-105.2300484">
  <ele>1583.0</ele>
  <time>2026-08-28T17:56:30Z</time>
  <course>238.44</course>
  <speed>4.34</speed>
  <fix>3d</fix>
</trkpt>
<trkpt lat="40.0712441" lon="-105.2300623">
  <ele>1583.17</ele>
  <time>2026-08-28T17:56:30Z</time>
  <course>238.1</course>
  <speed>3.9662702883187375</speed>
  <fix>3d</fix>
</trkpt>
<trkpt lat="40.0712508" lon="-105.2300484">
  <ele>1583.0</ele>
  <time>2026-08-28T17:56:30Z</time>
  <course>238.44</course>
  <speed>4.34</speed>
  <fix>3d</fix>
</trkpt>
<trkpt lat="40.0712422" lon="-105.230066">
  <ele>1583.17</ele>
  <time>2026-08-28T17:56:30Z</time>
  <course>237.25</course>
  <speed>3.8386065179958204</speed>
  <fix>3d</fix>
</trkpt>
<trkpt lat="40.0712468" lon="-105.2300568">
  <ele>1583.0</ele>
  <time>2026-08-28T17:56:30Z</time>
  <course>237.62</course>
  <speed>4.12</speed>
  <fix>3d</fix>
</trkpt>
<trkpt lat="40.0712403" lon="-105.2300696">
  <ele>1583.17</ele>
  <time>2026-08-28T17:56:30Z</time>
  <course>236.17</course>
  <speed>3.7095147930693035</speed>
  <fix>3d</fix>
</trkpt>
<trkpt lat="40.0712468" lon="-105.2300568">
  <ele>1583.0</ele>
  <time>2026-08-28T17:56:30Z</time>
  <course>237.62</course>
  <speed>4.12</speed>
  <fix>3d</fix>
</trkpt>
<trkpt lat="40.0712388" lon="-105.2300724">
  <ele>1583.17</ele>
  <time>2026-08-28T17:56:30Z</time>
  <course>235.14</course>
  <speed>3.6121600186038267</speed>
  <fix>3d</fix>
</trkpt>
<trkpt lat="40.0712428" lon="-105.2300647">
  <ele>1583.0</ele>
  <time>2026-08-28T17:56:30Z</time>
  <course>236.08</course>
  <speed>3.88</speed>
  <fix>3d</fix>
</trkpt>
<trkpt lat="40.0712369" lon="-105.2300757">
  <ele>1583.17</ele>
  <time>2026-08-28T17:56:30Z</time>
  <course>233.66</course>
  <speed>3.4845516210841243</speed>
  <fix>3d</fix>
</trkpt>
<trkpt lat="40.0712428" lon="-105.2300647">
  <ele>1583.0</ele>
  <time>2026-08-28T17:56:30Z</time>
  <course>236.08</course>
  <speed>3.88</speed>
  <fix>3d</fix>
</trkpt>
<trkpt lat="40.0712349" lon="-105.2300788">
  <ele>1583.17</ele>
  <time>2026-08-28T17:56:30Z</time>
  <course>231.9</course>
  <speed>3.3584073606398612</speed>
  <fix>3d</fix>
</trkpt>
<trkpt lat="40.071239" lon="-105.2300719">
  <ele>1583.0</ele>
  <time>2026-08-28T17:56:30Z</time>
  <course>233.7</course>
  <speed>3.63</speed>
  <fix>3d</fix>
</trkpt>
<trkpt lat="40.071233" lon="-105.2300817">
  <ele>1583.17</ele>
  <time>2026-08-28T17:56:30Z</time>
  <course>229.98</course>
  <speed>3.229643943223463</speed>
  <fix>3d</fix>
</trkpt>
<trkpt lat="40.071239" lon="-105.2300719">
  <ele>1583.0</ele>
  <time>2026-08-28T17:56:30Z</time>
  <course>233.7</course>
  <speed>3.63</speed>
  <fix>3d</fix>
</trkpt>
<trkpt lat="40.0712311" lon="-105.2300845">
  <ele>1583.17</ele>
  <time>2026-08-28T17:56:30Z</time>
  <course>227.94</course>
  <speed>3.111784054204276</speed>
  <fix>3d</fix>
</trkpt>
<trkpt lat="40.0712351" lon="-105.2300784">
  <ele>1583.0</ele>
  <time>2026-08-28T17:56:30Z</time>
  <course>230.41</course>
  <speed>3.38</speed>
  <fix>3d</fix>
</trkpt>
<trkpt lat="40.0712291" lon="-105.230087">
  <ele>1583.17</ele>
  <time>2026-08-28T17:56:30Z</time>
  <course>225.76</course>
  <speed>2.991738624947039</speed>
  <fix>3d</fix>
</trkpt>
<trkpt lat="40.0712351" lon="-105.2300784">
  <ele>1583.0</ele>
  <time>2026-08-28T17:56:30Z</time>
  <course>230.41</course>
  <speed>3.38</speed>
  <fix>3d</fix>
</trkpt>
<trkpt lat="40.0712271" lon="-105.2300893">
  <ele>1583.17</ele>
  <time>2026-08-28T17:56:30Z</time>
  <course>223.43</course>
  <speed>2.870139369438355</speed>
  <fix>3d</fix>
</trkpt>
<trkpt lat="40.0712312" lon="-105.2300841">
  <ele>1583.0</ele>
  <time>2026-08-28T17:56:30Z</time>
  <course>226.39</course>
  <speed>3.13</speed>
  <fix>3d</fix>
</trkpt>
<trkpt lat="40.0712252" lon="-105.2300914">
  <ele>1583.17</ele>
  <time>2026-08-28T17:56:30Z</time>
  <course>220.97</course>
  <speed>2.753343422096125</speed>
  <fix>3d</fix>
</trkpt>
<trkpt lat="40.0712312" lon="-105.2300841">
  <ele>1583.0</ele>
  <time>2026-08-28T17:56:30Z</time>
  <course>226.39</course>
  <speed>3.13</speed>
  <fix>3d</fix>
</trkpt>
<trkpt lat="40.0712232" lon="-105.2300934">
  <ele>1583.17</ele>
  <time>2026-08-28T17:56:30Z</time>
  <course>218.38</course>
  <speed>2.6504716561397146</speed>
  <fix>3d</fix>
</trkpt>
<trkpt lat="40.0712273" lon="-105.230089">
  <ele>1583.0</ele>
  <time>2026-08-28T17:56:30Z</time>
  <course>221.82</course>
  <speed>2.89</speed>
  <fix>3d</fix>
</trkpt>
<trkpt lat="40.0712213" lon="-105.2300951">
  <ele>1583.17</ele>
  <time>2026-08-28T17:56:30Z</time>
  <course>215.66</course>
  <speed>2.55180328395431</speed>
  <fix>3d</fix>
</trkpt>
<trkpt lat="40.0712273" lon="-105.230089">
  <ele>1583.0</ele>
  <time>2026-08-28T17:56:30Z</time>
  <course>221.82</course>
  <speed>2.89</speed>
  <fix>3d</fix>
</trkpt>
<trkpt lat="40.071219" lon="-105.2300969">
  <ele>1583.17</ele>
  <time>2026-08-28T17:56:30Z</time>
  <course>212.24</course>
  <speed>2.4447699278255204</speed>
  <fix>3d</fix>
</trkpt>
<trkpt lat="40.0712235" lon="-105.2300932">
  <ele>1583.0</ele>
  <time>2026-08-28T17:56:30Z</time>
  <course>216.7</course>
  <speed>2.67</speed>
  <fix>3d</fix>
</trkpt>
<trkpt lat="40.0712171" lon="-105.2300983">
  <ele>1583.16</ele>
  <time>2026-08-28T17:56:30Z</time>
  <course>209.28</course>
  <speed>2.3703375287076733</speed>
  <fix>3d</fix>
</trkpt>
<trkpt lat="40.0712196" lon="-105.2300966">
  <ele>1583.0</ele>
  <time>2026-08-28T17:56:30Z</time>
  <course>211.09</course>
  <speed>2.48</speed>
  <fix>3d</fix>
</trkpt>
<trkpt lat="40.0712152" lon="-105.2300994">
  <ele>1583.16</ele>
  <time>2026-08-28T17:56:30Z</time>
  <course>206.23</course>
  <speed>2.3031283073246267</speed>
  <fix>3d</fix>
</trkpt>
<trkpt lat="40.0712196" lon="-105.2300966">
  <ele>1583.0</ele>
  <time>2026-08-28T17:56:30Z</time>
  <course>211.09</course>
  <speed>2.48</speed>
  <fix>3d</fix>
</trkpt>
<trkpt lat="40.0712133" lon="-105.2301004">
  <ele>1583.16</ele>
  <time>2026-08-28T17:56:30Z</time>
  <course>203.09</course>
  <speed>2.2487552112224223</speed>
  <fix>3d</fix>
</trkpt>
<trkpt lat="40.0712158" lon="-105.2300992">
  <ele>1583.0</ele>
  <time>2026-08-28T17:56:30Z</time>
  <course>205.05</course>
  <speed>2.33</speed>
  <fix>3d</fix>
</trkpt>
<trkpt lat="40.0712114" lon="-105.2301012">
  <ele>1583.15</ele>
  <time>2026-08-28T17:56:30Z</time>
  <course>199.89</course>
  <speed>2.199204401596177</speed>
  <fix>3d</fix>
</trkpt>
<trkpt lat="40.0712158" lon="-105.2300992">
  <ele>1583.0</ele>
  <time>2026-08-28T17:56:30Z</time>
  <course>205.05</course>
  <speed>2.33</speed>
  <fix>3d</fix>
</trkpt>
<trkpt lat="40.0712094" lon="-105.2301019">
  <ele>1583.15</ele>
  <time>2026-08-28T17:56:30Z</time>
  <course>196.65</course>
  <speed>2.16390850083824</speed>
  <fix>3d</fix>
</trkpt>
<trkpt lat="40.0712158" lon="-105.2300992">
  <ele>1583.0</ele>
  <time>2026-08-28T17:56:30Z</time>
  <course>205.05</course>
  <speed>2.33</speed>
  <fix>3d</fix>
</trkpt>
<trkpt lat="40.0712075" lon="-105.2301024">
  <ele>1583.15</ele>
  <time>2026-08-28T17:56:30Z</time>
  <course>193.36</course>
  <speed>2.148697279748825</speed>
  <fix>3d</fix>
</trkpt>
<trkpt lat="40.0712119" lon="-105.2301012">
  <ele>1583.0</ele>
  <time>2026-08-28T17:56:30Z</time>
  <course>198.68</course>
  <speed>2.22</speed>
  <fix>3d</fix>
</trkpt>
<trkpt lat="40.0712056" lon="-105.2301028">
  <ele>1583.15</ele>
  <time>2026-08-28T17:56:30Z</time>
  <course>190.11</course>
  <speed>2.13243991709028</speed>
  <fix>3d</fix>
</trkpt>
<trkpt lat="40.0712119" lon="-105.2301012">
  <ele>1583.0</ele>
  <time>2026-08-28T17:56:30Z</time>
  <course>198.68</course>
  <speed>2.22</speed>
  <fix>3d</fix>
</trkpt>
<trkpt lat="40.0712038" lon="-105.2301031">
  <ele>1583.15</ele>
  <time>2026-08-28T17:56:30Z</time>
  <course>186.88</course>
  <speed>2.13283848427395</speed>
  <fix>3d</fix>
</trkpt>
<trkpt lat="40.0712082" lon="-105.2301026">
  <ele>1583.0</ele>
  <time>2026-08-28T17:56:30Z</time>
  <course>192.15</course>
  <speed>2.16</speed>
  <fix>3d</fix>
</trkpt>
<trkpt lat="40.0712018" lon="-105.2301032">
  <ele>1583.15</ele>
  <time>2026-08-28T17:56:30Z</time>
  <course>183.7</course>
  <speed>2.15</speed>
  <fix>3d</fix>
</trkpt>
<trkpt lat="40.0712082" lon="-105.2301026">
  <ele>1583.0</ele>
  <time>2026-08-28T17:56:30Z</time>
  <course>192.15</course>
  <speed>2.16</speed>
  <fix>3d</fix>
</trkpt>
<trkpt lat="40.0711999" lon="-105.2301031">
  <ele>1583.15</ele>
  <time>2026-08-28T17:56:30Z</time>
  <course>180.58</course>
  <speed>2.173315439599139</speed>
  <fix>3d</fix>
</trkpt>
<trkpt lat="40.0712044" lon="-105.2301034">
  <ele>1583.0</ele>
  <time>2026-08-28T17:56:30Z</time>
  <course>185.66</course>
  <speed>2.14</speed>
  <fix>3d</fix>
</trkpt>
<trkpt lat="40.0711984" lon="-105.230103">
  <ele>1583.14</ele>
  <time>2026-08-28T17:56:30Z</time>
  <course>178.11</course>
  <speed>2.2000454540758927</speed>
  <fix>3d</fix>
</trkpt>
<trkpt lat="40.0712044" lon="-105.2301034">
  <ele>1583.0</ele>
  <time>2026-08-28T17:56:30Z</time>
  <course>185.66</course>
  <speed>2.14</speed>
  <fix>3d</fix>
</trkpt>
<trkpt lat="40.0711964" lon="-105.2301027">
  <ele>1583.14</ele>
  <time>2026-08-28T17:56:30Z</time>
  <course>175.14</course>
  <speed>2.2443930137121706</speed>
  <fix>3d</fix>
</trkpt>
<trkpt lat="40.0712005" lon="-105.2301036">
  <ele>1583.0</ele>
  <time>2026-08-28T17:56:30Z</time>
  <course>179.35</course>
  <speed>2.17</speed>
  <fix>3d</fix>
</trkpt>
<trkpt lat="40.0711944" lon="-105.2301023">
  <ele>1583.14</ele>
  <time>2026-08-28T17:56:30Z</time>
  <course>172.3</course>
  <speed>2.3043654224102563</speed>
  <fix>3d</fix>
</trkpt>
<trkpt lat="40.0712005" lon="-105.2301036">
  <ele>1583.0</ele>
  <time>2026-08-28T17:56:30Z</time>
  <course>179.35</course>
  <speed>2.17</speed>
  <fix>3d</fix>
</trkpt>
<trkpt lat="40.0711923" lon="-105.2301019">
  <ele>1583.14</ele>
  <time>2026-08-28T17:56:30Z</time>
  <course>169.54</course>
  <speed>2.369578021505095</speed>
  <fix>3d</fix>
</trkpt>
<trkpt lat="40.0711965" lon="-105.2301033">
  <ele>1583.0</ele>
  <time>2026-08-28T17:56:30Z</time>
  <course>173.36</course>
  <speed>2.25</speed>
  <fix>3d</fix>
</trkpt>
<trkpt lat="40.0711902" lon="-105.2301012">
  <ele>1583.14</ele>
  <time>2026-08-28T17:56:30Z</time>
  <course>166.9</course>
  <speed>2.4424577785501227</speed>
  <fix>3d</fix>
</trkpt>
<trkpt lat="40.0711965" lon="-105.2301033">
  <ele>1583.0</ele>
  <time>2026-08-28T17:56:30Z</time>
  <course>173.36</course>
  <speed>2.25</speed>
  <fix>3d</fix>
</trkpt>
<trkpt lat="40.071188" lon="-105.2301003">
  <ele>1583.14</ele>
  <time>2026-08-28T17:56:30Z</time>
  <course>164.38</course>
  <speed>2.526756814574762</speed>
  <fix>3d</fix>
</trkpt>
<trkpt lat="40.0711924" lon="-105.2301024">
  <ele>1583.0</ele>
  <time>2026-08-28T17:56:30Z</time>
  <course>167.78</course>
  <speed>2.37</speed>
  <fix>3d</fix>
</trkpt>
<trkpt lat="40.0711858" lon="-105.2300994">
  <ele>1583.14</ele>
  <time>2026-08-28T17:56:30Z</time>
  <course>161.97</course>
  <speed>2.6184155514356386</speed>
  <fix>3d</fix>
</trkpt>
<trkpt lat="40.0711924" lon="-105.2301024">
  <ele>1583.0</ele>
  <time>2026-08-28T17:56:30Z</time>
  <course>167.78</course>
  <speed>2.37</speed>
  <fix>3d</fix>
</trkpt>
<trkpt lat="40.0711836" lon="-105.2300982">
  <ele>1583.14</ele>
  <time>2026-08-28T17:56:30Z</time>
  <course>159.66</course>
  <speed>2.7141296947640505</speed>
  <fix>3d</fix>
</trkpt>
<trkpt lat="40.0711882" lon="-105.230101">
  <ele>1583.0</ele>
  <time>2026-08-28T17:56:30Z</time>
  <course>162.63</course>
  <speed>2.52</speed>
  <fix>3d</fix>
</trkpt>
<trkpt lat="40.0711813" lon="-105.2300969">
  <ele>1583.14</ele>
  <time>2026-08-28T17:56:30Z</time>
  <course>157.47</course>
  <speed>2.813485382936972</speed>
  <fix>3d</fix>
</trkpt>
<trkpt lat="40.0711882" lon="-105.230101">
  <ele>1583.0</ele>
  <time>2026-08-28T17:56:30Z</time>
  <course>162.63</course>
  <speed>2.52</speed>
  <fix>3d</fix>
</trkpt>
<trkpt lat="40.071179" lon="-105.2300955">
  <ele>1583.14</ele>
  <time>2026-08-28T17:56:30Z</time>
  <course>155.37</course>
  <speed>2.9207190895394235</speed>
  <fix>3d</fix>
</trkpt>
<trkpt lat="40.0711838" lon="-105.230099">
  <ele>1583.0</ele>
  <time>2026-08-28T17:56:30Z</time>
  <course>157.94</course>
  <speed>2.7</speed>
  <fix>3d</fix>
</trkpt>
<trkpt lat="40.0711761" lon="-105.2300935">
  <ele>1583.14</ele>
  <time>2026-08-28T17:56:30Z</time>
  <course>153.0</course>
  <speed>3.0549795416663597</speed>
  <fix>3d</fix>
</trkpt>
<trkpt lat="40.0711792" lon="-105.2300962">
  <ele>1583.0</ele>
  <time>2026-08-28T17:56:30Z</time>
  <course>153.68</course>
  <speed>2.9</speed>
  <fix>3d</fix>
</trkpt>
<trkpt lat="40.0711737" lon="-105.2300917">
  <ele>1583.14</ele>
  <time>2026-08-28T17:56:30Z</time>
  <course>151.15</course>
  <speed>3.164253466459348</speed>
  <fix>3d</fix>
</trkpt>
<trkpt lat="40.0711792" lon="-105.2300962">
  <ele>1583.0</ele>
  <time>2026-08-28T17:56:30Z</time>
  <course>153.68</course>
  <speed>2.9</speed>
  <fix>3d</fix>
</trkpt>
<trkpt lat="40.0711712" lon="-105.2300898">
  <ele>1583.14</ele>
  <time>2026-08-28T17:56:30Z</time>
  <course>149.44</course>
  <speed>3.281249761904753</speed>
  <fix>3d</fix>
</trkpt>
<trkpt lat="40.0711745" lon="-105.2300929">
  <ele>1583.0</ele>
  <time>2026-08-28T17:56:30Z</time>
  <course>149.86</course>
  <speed>3.12</speed>
  <fix>3d</fix>
</trkpt>
<trkpt lat="40.0711687" lon="-105.2300876">
  <ele>1583.14</ele>
  <time>2026-08-28T17:56:30Z</time>
  <course>147.97</course>
  <speed>3.408958785318473</speed>
  <fix>3d</fix>
</trkpt>
<trkpt lat="40.0711745" lon="-105.2300929">
  <ele>1583.0</ele>
  <time>2026-08-28T17:56:30Z</time>
  <course>149.86</course>
  <speed>3.12</speed>
  <fix>3d</fix>
</trkpt>
<trkpt lat="40.0711662" lon="-105.2300853">
  <ele>1583.14</ele>
  <time>2026-08-28T17:56:30Z</time>
  <course>146.68</course>
  <speed>3.5188208252197213</speed>
  <fix>3d</fix>
</trkpt>
<trkpt lat="40.0711745" lon="-105.2300929">
  <ele>1583.0</ele>
  <time>2026-08-28T17:56:30Z</time>
  <course>149.86</course>
  <speed>3.12</speed>
  <fix>3d</fix>
</trkpt>
<trkpt lat="40.0711636" lon="-105.2300829">
  <ele>1583.14</ele>
  <time>2026-08-28T17:56:30Z</time>
  <course>145.58</course>
  <speed>3.638035183996988</speed>
  <fix>3d</fix>
</trkpt>
<trkpt lat="40.0711695" lon="-105.2300889">
  <ele>1583.0</ele>
  <time>2026-08-28T17:56:30Z</time>
  <course>146.69</course>
  <speed>3.35</speed>
  <fix>3d</fix>
</trkpt>
<trkpt lat="40.0711609" lon="-105.2300804">
  <ele>1583.14</ele>
  <time>2026-08-28T17:56:30Z</time>
  <course>144.67</course>
  <speed>3.7442355695121536</speed>
  <fix>3d</fix>
</trkpt>
<trkpt lat="40.0711695" lon="-105.2300889">
  <ele>1583.0</ele>
  <time>2026-08-28T17:56:30Z</time>
  <course>146.69</course>
  <speed>3.35</speed>
  <fix>3d</fix>
</trkpt>
<trkpt lat="40.0711582" lon="-105.2300777">
  <ele>1583.15</ele>
  <time>2026-08-28T17:56:30Z</time>
  <course>143.92</course>
  <speed>3.852959901166894</speed>
  <fix>3d</fix>
</trkpt>
<trkpt lat="40.0711644" lon="-105.2300842">
  <ele>1583.0</ele>
  <time>2026-08-28T17:56:30Z</time>
  <course>144.31</course>
  <speed>3.58</speed>
  <fix>3d</fix>
</trkpt>
<trkpt lat="40.0711555" lon="-105.230075">
  <ele>1583.15</ele>
  <time>2026-08-28T17:56:30Z</time>
  <course>143.31</course>
  <speed>3.9480754805347886</speed>
  <fix>3d</fix>
</trkpt>
<trkpt lat="40.0711644" lon="-105.2300842">
  <ele>1583.0</ele>
  <time>2026-08-28T17:56:30Z</time>
  <course>144.31</course>
  <speed>3.58</speed>
  <fix>3d</fix>
</trkpt>
<trkpt lat="40.0711527" lon="-105.2300721">
  <ele>1583.15</ele>
  <time>2026-08-28T17:56:30Z</time>
  <course>142.84</course>
  <speed>4.02318281960937</speed>
  <fix>3d</fix>
</trkpt>
<trkpt lat="40.0711591" lon="-105.2300791">
  <ele>1583.0</ele>
  <time>2026-08-28T17:56:30Z</time>
  <course>142.64</course>
  <speed>3.8</speed>
  <fix>3d</fix>
</trkpt>
<trkpt lat="40.0711499" lon="-105.2300692">
  <ele>1583.15</ele>
  <time>2026-08-28T17:56:30Z</time>
  <course>142.53</course>
  <speed>4.099865851463923</speed>
  <fix>3d</fix>
</trkpt>
<trkpt lat="40.0711591" lon="-105.2300791">
  <ele>1583.0</ele>
  <time>2026-08-28T17:56:30Z</time>
  <course>142.64</course>
  <speed>3.8</speed>
  <fix>3d</fix>
</trkpt>
<trkpt lat="40.0711476" lon="-105.2300668">
  <ele>1583.15</ele>
  <time>2026-08-28T17:56:30Z</time>
  <course>142.37</course>
  <speed>4.156164096856619</speed>
  <fix>3d</fix>
</trkpt>
<trkpt lat="40.0711535" lon="-105.2300735">
  <ele>1583.0</ele>
  <time>2026-08-28T17:56:30Z</time>
  <course>141.58</course>
  <speed>3.98</speed>
  <fix>3d</fix>
</trkpt>
<trkpt lat="40.0711447" lon="-105.2300637">
  <ele>1583.15</ele>
  <time>2026-08-28T17:56:30Z</time>
  <course>142.29</course>
  <speed>4.2047592083257275</speed>
  <fix>3d</fix>
</trkpt>
<trkpt lat="40.0711535" lon="-105.2300735">
  <ele>1583.0</ele>
  <time>2026-08-28T17:56:30Z</time>
  <course>141.58</course>
  <speed>3.98</speed>
  <fix>3d</fix>
</trkpt>
<trkpt lat="40.0711418" lon="-105.2300607">
  <ele>1583.15</ele>
  <time>2026-08-28T17:56:30Z</time>
  <course>142.22</course>
  <speed>4.246998940428406</speed>
  <fix>3d</fix>
</trkpt>
<trkpt lat="40.0711478" lon="-105.2300675">
  <ele>1583.0</ele>
  <time>2026-08-28T17:56:30Z</time>
  <course>141.07</course>
  <speed>4.13</speed>
  <fix>3d</fix>
</trkpt>
<trkpt lat="40.0711388" lon="-105.2300575">
  <ele>1583.15</ele>
  <time>2026-08-28T17:56:30Z</time>
  <course>142.07</course>
  <speed>4.275160815688692</speed>
  <fix>3d</fix>
</trkpt>
<trkpt lat="40.0711478" lon="-105.2300675">
  <ele>1583.0</ele>
  <time>2026-08-28T17:56:30Z</time>
  <course>141.07</course>
  <speed>4.13</speed>
  <fix>3d</fix>
</trkpt>
<trkpt lat="40.0711359" lon="-105.2300543">
  <ele>1583.15</ele>
  <time>2026-08-28T17:56:30Z</time>
  <course>141.79</course>
  <speed>4.294380048388824</speed>
  <fix>3d</fix>
</trkpt>
<trkpt lat="40.071142" lon="-105.2300613">
  <ele>1583.0</ele>
  <time>2026-08-28T17:56:30Z</time>
  <course>140.81</course>
  <speed>4.23</speed>
  <fix>3d</fix>
</trkpt>
<trkpt lat="40.0711329" lon="-105.2300511">
  <ele>1583.15</ele>
  <time>2026-08-28T17:56:30Z</time>
  <course>141.39</course>
  <speed>4.299627890876139</speed>
  <fix>3d</fix>
</trkpt>
<trkpt lat="40.071142" lon="-105.2300613">
  <ele>1583.0</ele>
  <time>2026-08-28T17:56:30Z</time>
  <course>140.81</course>
  <speed>4.23</speed>
  <fix>3d</fix>
</trkpt>
<trkpt lat="40.0711299" lon="-105.2300479">
  <ele>1583.15</ele>
  <time>2026-08-28T17:56:30Z</time>
  <course>140.86</course>
  <speed>4.296347285776605</speed>
  <fix>3d</fix>
</trkpt>
<trkpt lat="40.071136" lon="-105.2300549">
  <ele>1583.0</ele>
  <time>2026-08-28T17:56:30Z</time>
  <course>140.3</course>
  <speed>4.28</speed>
  <fix>3d</fix>
</trkpt>
<trkpt lat="40.071127" lon="-105.2300446">
  <ele>1583.15</ele>
  <time>2026-08-28T17:56:30Z</time>
  <course>140.18</course>
  <speed>4.2718731254567945</speed>
  <fix>3d</fix>
</trkpt>
<trkpt lat="40.071136" lon="-105.2300549">
  <ele>1583.0</ele>
  <time>2026-08-28T17:56:30Z</time>
  <course>140.3</course>
  <speed>4.28</speed>
  <fix>3d</fix>
</trkpt>
<trkpt lat="40.0711241" lon="-105.2300412">
  <ele>1583.15</ele>
  <time>2026-08-28T17:56:30Z</time>
  <course>139.37</course>
  <speed>4.2472579389530845</speed>
  <fix>3d</fix>
</trkpt>
<trkpt lat="40.0711302" lon="-105.2300485">
  <ele>1583.0</ele>
  <time>2026-08-28T17:56:30Z</time>
  <course>139.3</course>
  <speed>4.27</speed>
  <fix>3d</fix>
</trkpt>
<trkpt lat="40.0711213" lon="-105.2300379">
  <ele>1583.15</ele>
  <time>2026-08-28T17:56:30Z</time>
  <course>138.42</course>
  <speed>4.2021423107743505</speed>
  <fix>3d</fix>
</trkpt>
<trkpt lat="40.0711302" lon="-105.2300485">
  <ele>1583.0</ele>
  <time>2026-08-28T17:56:30Z</time>
  <course>139.3</course>
  <speed>4.27</speed>
  <fix>3d</fix>
</trkpt>
<trkpt lat="40.0711181" lon="-105.2300338">
  <ele>1583.15</ele>
  <time>2026-08-28T17:56:30Z</time>
  <course>137.05</course>
  <speed>4.136629062413018</speed>
  <fix>3d</fix>
</trkpt>
<trkpt lat="40.0711244" lon="-105.2300418">
  <ele>1583.0</ele>
  <time>2026-08-28T17:56:30Z</time>
  <course>137.74</course>
  <speed>4.22</speed>
  <fix>3d</fix>
</trkpt>
<trkpt lat="40.0711155" lon="-105.2300304">
  <ele>1583.15</ele>
  <time>2026-08-28T17:56:30Z</time>
  <course>135.75</course>
  <speed>4.073548821359577</speed>
  <fix>3d</fix>
</trkpt>
<trkpt lat="40.071119" lon="-105.2300351">
  <ele>1583.0</ele>
  <time>2026-08-28T17:56:30Z</time>
  <course>135.59</course>
  <speed>4.12</speed>
  <fix>3d</fix>
</trkpt>
<trkpt lat="40.071113" lon="-105.230027">
  <ele>1583.16</ele>
  <time>2026-08-28T17:56:30Z</time>
  <course>134.26</course>
  <speed>4.0064448080561395</speed>
  <fix>3d</fix>
</trkpt>
<trkpt lat="40.071119" lon="-105.2300351">
  <ele>1583.0</ele>
  <time>2026-08-28T17:56:30Z</time>
  <course>135.59</course>
  <speed>4.12</speed>
  <fix>3d</fix>
</trkpt>
<trkpt lat="40.0711106" lon="-105.2300235">
  <ele>1583.16</ele>
  <time>2026-08-28T17:56:30Z</time>
  <course>132.7</course>
  <speed>3.9210330271498606</speed>
  <fix>3d</fix>
</trkpt>
<trkpt lat="40.0711139" lon="-105.2300283">
  <ele>1583.0</ele>
  <time>2026-08-28T17:56:30Z</time>
  <course>132.82</course>
  <speed>3.99</speed>
  <fix>3d</fix>
</trkpt>
<trkpt lat="40.0711084" lon="-105.23002">
  <ele>1583.16</ele>
  <time>2026-08-28T17:56:30Z</time>
  <course>131.1</course>
  <speed>3.8388539956606844</speed>
  <fix>3d</fix>
</trkpt>
<trkpt lat="40.0711139" lon="-105.2300283">
  <ele>1583.0</ele>
  <time>2026-08-28T17:56:30Z</time>
  <course>132.82</course>
  <speed>3.99</speed>
  <fix>3d</fix>
</trkpt>
<trkpt lat="40.0711063" lon="-105.2300165">
  <ele>1583.16</ele>
  <time>2026-08-28T17:56:30Z</time>
  <course>129.42</course>
  <speed>3.75217270391436</speed>
  <fix>3d</fix>
</trkpt>
<trkpt lat="40.0711139" lon="-105.2300283">
  <ele>1583.0</ele>
  <time>2026-08-28T17:56:30Z</time>
  <course>132.82</course>
  <speed>3.99</speed>
  <fix>3d</fix>
</trkpt>
<trkpt lat="40.0711043" lon="-105.230013">
  <ele>1583.16</ele>
  <time>2026-08-28T17:56:30Z</time>
  <course>127.72</course>
  <speed>3.662963281279243</speed>
  <fix>3d</fix>
</trkpt>
<trkpt lat="40.0711093" lon="-105.2300214">
  <ele>1583.0</ele>
  <time>2026-08-28T17:56:30Z</time>
  <course>129.65</course>
  <speed>3.83</speed>
  <fix>3d</fix>
</trkpt>
<trkpt lat="40.0711025" lon="-105.2300096">
  <ele>1583.16</ele>
  <time>2026-08-28T17:56:30Z</time>
  <course>125.98</course>
  <speed>3.5694957627093493</speed>
  <fix>3d</fix>
</trkpt>
<trkpt lat="40.0711093" lon="-105.2300214">
  <ele>1583.0</ele>
  <time>2026-08-28T17:56:30Z</time>
  <course>129.65</course>
  <speed>3.83</speed>
  <fix>3d</fix>
</trkpt>
<trkpt lat="40.0711008" lon="-105.2300062">
  <ele>1583.15</ele>
  <time>2026-08-28T17:56:30Z</time>
  <course>124.19</course>
  <speed>3.4852833457267143</speed>
  <fix>3d</fix>
</trkpt>
<trkpt lat="40.0711051" lon="-105.2300144">
  <ele>1583.0</ele>
  <time>2026-08-28T17:56:30Z</time>
  <course>126.29</course>
  <speed>3.66</speed>
  <fix>3d</fix>
</trkpt>
<trkpt lat="40.0710993" lon="-105.2300027">
  <ele>1583.15</ele>
  <time>2026-08-28T17:56:30Z</time>
  <course>122.37</course>
  <speed>3.404776057246644</speed>
  <fix>3d</fix>
</trkpt>
<trkpt lat="40.0711051" lon="-105.2300144">
  <ele>1583.0</ele>
  <time>2026-08-28T17:56:30Z</time>
  <course>126.29</course>
  <speed>3.66</speed>
  <fix>3d</fix>
</trkpt>
<trkpt lat="40.0710978" lon="-105.2299994">
  <ele>1583.15</ele>
  <time>2026-08-28T17:56:30Z</time>
  <course>120.51</course>
  <speed>3.3194125986385</speed>
  <fix>3d</fix>
</trkpt>
<trkpt lat="40.0711015" lon="-105.2300075">
  <ele>1583.0</ele>
  <time>2026-08-28T17:56:30Z</time>
  <course>122.75</course>
  <speed>3.49</speed>
  <fix>3d</fix>
</trkpt>
<trkpt lat="40.0710967" lon="-105.2299966">
  <ele>1583.15</ele>
  <time>2026-08-28T17:56:30Z</time>
  <course>118.98</course>
  <speed>3.2646592471496927</speed>
  <fix>3d</fix>
</trkpt>
<trkpt lat="40.0711015" lon="-105.2300075">
  <ele>1583.0</ele>
  <time>2026-08-28T17:56:30Z</time>
  <course>122.75</course>
  <speed>3.49</speed>
  <fix>3d</fix>
</trkpt>
<trkpt lat="40.0710955" lon="-105.2299933">
  <ele>1583.14</ele>
  <time>2026-08-28T17:56:30Z</time>
  <course>117.06</course>
  <speed>3.1995312156626943</speed>
  <fix>3d</fix>
</trkpt>
<trkpt lat="40.0710983" lon="-105.2300007">
  <ele>1583.0</ele>
  <time>2026-08-28T17:56:30Z</time>
  <course>119.06</course>
  <speed>3.33</speed>
  <fix>3d</fix>
</trkpt>
<trkpt lat="40.0710944" lon="-105.2299899">
  <ele>1583.14</ele>
  <time>2026-08-28T17:56:30Z</time>
  <course>115.12</course>
  <speed>3.1384709652950433</speed>
  <fix>3d</fix>
</trkpt>
<trkpt lat="40.0710983" lon="-105.2300007">
  <ele>1583.0</ele>
  <time>2026-08-28T17:56:30Z</time>
  <course>119.06</course>
  <speed>3.33</speed>
  <fix>3d</fix>
</trkpt>
<trkpt lat="40.0710933" lon="-105.2299865">
  <ele>1583.14</ele>
  <time>2026-08-28T17:56:30Z</time>
  <course>113.16</course>
  <speed>3.0852066381362526</speed>
  <fix>3d</fix>
</trkpt>
<trkpt lat="40.0710956" lon="-105.2299939">
  <ele>1583.0</ele>
  <time>2026-08-28T17:56:30Z</time>
  <course>115.25</course>
  <speed>3.2</speed>
  <fix>3d</fix>
</trkpt>
<trkpt lat="40.0710924" lon="-105.2299831">
  <ele>1583.14</ele>
  <time>2026-08-28T17:56:30Z</time>
  <course>111.2</course>
  <speed>3.048442225137291</speed>
  <fix>3d</fix>
</trkpt>
<trkpt lat="40.0710956" lon="-105.2299939">
  <ele>1583.0</ele>
  <time>2026-08-28T17:56:30Z</time>
  <course>115.25</course>
  <speed>3.2</speed>
  <fix>3d</fix>
</trkpt>
<trkpt lat="40.0710916" lon="-105.2299797">
  <ele>1583.14</ele>
  <time>2026-08-28T17:56:30Z</time>
  <course>109.21</course>
  <speed>3.0124076749337894</speed>
  <fix>3d</fix>
</trkpt>
<trkpt lat="40.0710933" lon="-105.229987">
  <ele>1583.0</ele>
  <time>2026-08-28T17:56:30Z</time>
  <course>111.34</course>
  <speed>3.1</speed>
  <fix>3d</fix>
</trkpt>
<trkpt lat="40.0710908" lon="-105.2299763">
  <ele>1583.14</ele>
  <time>2026-08-28T17:56:30Z</time>
  <course>107.23</course>
  <speed>2.995413160150032</speed>
  <fix>3d</fix>
</trkpt>
<trkpt lat="40.0710933" lon="-105.229987">
  <ele>1583.0</ele>
  <time>2026-08-28T17:56:30Z</time>
  <course>111.34</course>
  <speed>3.1</speed>
  <fix>3d</fix>
</trkpt>
<trkpt lat="40.0710902" lon="-105.2299729">
  <ele>1583.14</ele>
  <time>2026-08-28T17:56:30Z</time>
  <course>105.23</course>
  <speed>2.979546945426435</speed>
  <fix>3d</fix>
</trkpt>
<trkpt lat="40.0710916" lon="-105.2299802">
  <ele>1583.0</ele>
  <time>2026-08-28T17:56:30Z</time>
  <course>107.38</course>
  <speed>3.03</speed>
  <fix>3d</fix>
</trkpt>
<trkpt lat="40.0710896" lon="-105.2299695">
  <ele>1583.14</ele>
  <time>2026-08-28T17:56:30Z</time>
  <course>103.25</course>
  <speed>2.9695117443781895</speed>
  <fix>3d</fix>
</trkpt>
<trkpt lat="40.0710916" lon="-105.2299802">
  <ele>1583.0</ele>
  <time>2026-08-28T17:56:30Z</time>
  <course>107.38</course>
  <speed>3.03</speed>
  <fix>3d</fix>
</trkpt>
<trkpt lat="40.0710891" lon="-105.2299654">
  <ele>1583.14</ele>
  <time>2026-08-28T17:56:30Z</time>
  <course>100.91</course>
  <speed>2.9698484809834995</speed>
  <fix>3d</fix>
</trkpt>
<trkpt lat="40.0710901" lon="-105.2299735">
  <ele>1583.0</ele>
  <time>2026-08-28T17:56:30Z</time>
  <course>103.41</course>
  <speed>2.99</speed>
  <fix>3d</fix>
</trkpt>
<trkpt lat="40.0710887" lon="-105.2299619">
  <ele>1583.14</ele>
  <time>2026-08-28T17:56:30Z</time>
  <course>98.96</course>
  <speed>2.9871893143890293</speed>
  <fix>3d</fix>
</trkpt>
<trkpt lat="40.071089" lon="-105.2299665">
  <ele>1583.0</ele>
  <time>2026-08-28T17:56:30Z</time>
  <course>99.47</course>
  <speed>2.99</speed>
  <fix>3d</fix>
</trkpt>
<trkpt lat="40.0710885" lon="-105.2299584">
  <ele>1583.14</ele>
  <time>2026-08-28T17:56:30Z</time>
  <course>97.06</course>
  <speed>3.008055850545332</speed>
  <fix>3d</fix>
</trkpt>
<trkpt lat="40.071089" lon="-105.2299665">
  <ele>1583.0</ele>
  <time>2026-08-28T17:56:30Z</time>
  <course>99.47</course>
  <speed>2.99</speed>
  <fix>3d</fix>
</trkpt>
<trkpt lat="40.0710883" lon="-105.2299548">
  <ele>1583.15</ele>
  <time>2026-08-28T17:56:30Z</time>
  <course>95.17</course>
  <speed>3.0323753065872308</speed>
  <fix>3d</fix>
</trkpt>
<trkpt lat="40.0710883" lon="-105.2299596">
  <ele>1583.0</ele>
  <time>2026-08-28T17:56:30Z</time>
  <course>95.61</course>
  <speed>3.01</speed>
  <fix>3d</fix>
</trkpt>
<trkpt lat="40.0710882" lon="-105.2299512">
  <ele>1583.15</ele>
  <time>2026-08-28T17:56:30Z</time>
  <course>93.3</course>
  <speed>3.0701465763054374</speed>
  <fix>3d</fix>
</trkpt>
<trkpt lat="40.0710883" lon="-105.2299596">
  <ele>1583.0</ele>
  <time>2026-08-28T17:56:30Z</time>
  <course>95.61</course>
  <speed>3.01</speed>
  <fix>3d</fix>
</trkpt>
<trkpt lat="40.0710882" lon="-105.2299476">
  <ele>1583.15</ele>
  <time>2026-08-28T17:56:30Z</time>
  <course>91.47</course>
  <speed>3.100580590792634</speed>
  <fix>3d</fix>
</trkpt>
<trkpt lat="40.0710883" lon="-105.2299596">
  <ele>1583.0</ele>
  <time>2026-08-28T17:56:30Z</time>
  <course>95.61</course>
  <speed>3.01</speed>
  <fix>3d</fix>
</trkpt>
<trkpt lat="40.0710882" lon="-105.2299439">
  <ele>1583.15</ele>
  <time>2026-08-28T17:56:30Z</time>
  <course>89.65</course>
  <speed>3.1540608744918033</speed>
  <fix>3d</fix>
</trkpt>
<trkpt lat="40.0710879" lon="-105.2299524">
  <ele>1583.0</ele>
  <time>2026-08-28T17:56:30Z</time>
  <course>91.85</course>
  <speed>3.07</speed>
  <fix>3d</fix>
</trkpt>
<trkpt lat="40.0710884" lon="-105.2299402">
  <ele>1583.15</ele>
  <time>2026-08-28T17:56:30Z</time>
  <course>87.89</course>
  <speed>3.200578072786227</speed>
  <fix>3d</fix>
</trkpt>
<trkpt lat="40.0710879" lon="-105.2299524">
  <ele>1583.0</ele>
  <time>2026-08-28T17:56:30Z</time>
  <course>91.85</course>
  <speed>3.07</speed>
  <fix>3d</fix>
</trkpt>
<trkpt lat="40.0710886" lon="-105.2299365">
  <ele>1583.15</ele>
  <time>2026-08-28T17:56:30Z</time>
  <course>86.16</course>
  <speed>3.2489075086865737</speed>
  <fix>3d</fix>
</trkpt>
<trkpt lat="40.0710879" lon="-105.2299451">
  <ele>1583.0</ele>
  <time>2026-08-28T17:56:30Z</time>
  <course>88.21</course>
  <speed>3.15</speed>
  <fix>3d</fix>
</trkpt>
<trkpt lat="40.0710889" lon="-105.2299327">
  <ele>1583.16</ele>
  <time>2026-08-28T17:56:30Z</time>
  <course>84.48</course>
  <speed>3.3107249961300016</speed>
  <fix>3d</fix>
</trkpt>
<trkpt lat="40.0710879" lon="-105.2299451">
  <ele>1583.0</ele>
  <time>2026-08-28T17:56:30Z</time>
  <course>88.21</course>
  <speed>3.15</speed>
  <fix>3d</fix>
</trkpt>
<trkpt lat="40.0710893" lon="-105.2299288">
  <ele>1583.16</ele>
  <time>2026-08-28T17:56:30Z</time>
  <course>82.83</course>
  <speed>3.3767588009806087</speed>
  <fix>3d</fix>
</trkpt>
<trkpt lat="40.0710883" lon="-105.2299376">
  <ele>1583.0</ele>
  <time>2026-08-28T17:56:30Z</time>
  <course>84.73</course>
  <speed>3.26</speed>
  <fix>3d</fix>
</trkpt>
<trkpt lat="40.0710898" lon="-105.2299249">
  <ele>1583.16</ele>
  <time>2026-08-28T17:56:30Z</time>
  <course>81.21</course>
  <speed>3.443835071544513</speed>
  <fix>3d</fix>
</trkpt>
<trkpt lat="40.071089" lon="-105.2299299">
  <ele>1583.0</ele>
  <time>2026-08-28T17:56:30Z</time>
  <course>81.4</course>
  <speed>3.38</speed>
  <fix>3d</fix>
</trkpt>
<trkpt lat="40.0710903" lon="-105.2299216">
  <ele>1583.16</ele>
  <time>2026-08-28T17:56:30Z</time>
  <course>79.99</course>
  <speed>3.499142752160877</speed>
  <fix>3d</fix>
</trkpt>
<trkpt lat="40.071089" lon="-105.2299299">
  <ele>1583.0</ele>
  <time>2026-08-28T17:56:30Z</time>
  <course>81.4</course>
  <speed>3.38</speed>
  <fix>3d</fix>
</trkpt>
<trkpt lat="40.071091" lon="-105.2299176">
  <ele>1583.17</ele>
  <time>2026-08-28T17:56:30Z</time>
  <course>78.62</course>
  <speed>3.5702240826032194</speed>
  <fix>3d</fix>
</trkpt>
<trkpt lat="40.071089" lon="-105.2299299">
  <ele>1583.0</ele>
  <time>2026-08-28T17:56:30Z</time>
  <course>81.4</course>
  <speed>3.38</speed>
  <fix>3d</fix>
</trkpt>
<trkpt lat="40.0710918" lon="-105.2299134">
  <ele>1583.17</ele>
  <time>2026-08-28T17:56:30Z</time>
  <course>77.42</course>
  <speed>3.6504520268043517</speed>
  <fix>3d</fix>
</trkpt>
<trkpt lat="40.0710901" lon="-105.2299219">
  <ele>1583.0</ele>
  <time>2026-08-28T17:56:30Z</time>
  <course>78.36</course>
  <speed>3.52</speed>
  <fix>3d</fix>
</trkpt>
<trkpt lat="40.0710926" lon="-105.2299092">
  <ele>1583.17</ele>
  <time>2026-08-28T17:56:30Z</time>
  <course>76.38</course>
  <speed>3.7293699199730774</speed>
  <fix>3d</fix>
</trkpt>
<trkpt lat="40.0710901" lon="-105.2299219">
  <ele>1583.0</ele>
  <time>2026-08-28T17:56:30Z</time>
  <course>78.36</course>
  <speed>3.52</speed>
  <fix>3d</fix>
</trkpt>
<trkpt lat="40.0710935" lon="-105.2299049">
  <ele>1583.17</ele>
  <time>2026-08-28T17:56:30Z</time>
  <course>75.49</course>
  <speed>3.8188610867639583</speed>
  <fix>3d</fix>
</trkpt>
<trkpt lat="40.0710915" lon="-105.2299137">
  <ele>1583.0</ele>
  <time>2026-08-28T17:56:30Z</time>
  <course>75.85</course>
  <speed>3.67</speed>
  <fix>3d</fix>
</trkpt>
<trkpt lat="40.0710945" lon="-105.2299005">
  <ele>1583.17</ele>
  <time>2026-08-28T17:56:30Z</time>
  <course>74.77</course>
  <speed>3.906212999824766</speed>
  <fix>3d</fix>
</trkpt>
<trkpt lat="40.0710915" lon="-105.2299137">
  <ele>1583.0</ele>
  <time>2026-08-28T17:56:30Z</time>
  <course>75.85</course>
  <speed>3.67</speed>
  <fix>3d</fix>
</trkpt>
<trkpt lat="40.0710956" lon="-105.229896">
  <ele>1583.17</ele>
  <time>2026-08-28T17:56:30Z</time>
  <course>74.18</course>
  <speed>4.00056246045478</speed>
  <fix>3d</fix>
</trkpt>
<trkpt lat="40.0710933" lon="-105.2299051">
  <ele>1583.0</ele>
  <time>2026-08-28T17:56:30Z</time>
  <course>73.98</course>
  <speed>3.84</speed>
  <fix>3d</fix>
</trkpt>
<trkpt lat="40.0710967" lon="-105.2298915">
  <ele>1583.17</ele>
  <time>2026-08-28T17:56:30Z</time>
  <course>73.73</course>
  <speed>4.095180093719933</speed>
  <fix>3d</fix>
</trkpt>
<trkpt lat="40.0710933" lon="-105.2299051">
  <ele>1583.0</ele>
  <time>2026-08-28T17:56:30Z</time>
  <course>73.98</course>
  <speed>3.84</speed>
  <fix>3d</fix>
</trkpt>
<trkpt lat="40.0710979" lon="-105.2298868">
  <ele>1583.17</ele>
  <time>2026-08-28T17:56:30Z</time>
  <course>73.41</course>
  <speed>4.196343646557083</speed>
  <fix>3d</fix>
</trkpt>
<trkpt lat="40.0710953" lon="-105.2298962">
  <ele>1583.0</ele>
  <time>2026-08-28T17:56:30Z</time>
  <course>72.71</course>
  <speed>4.02</speed>
  <fix>3d</fix>
</trkpt>
<trkpt lat="40.0710993" lon="-105.229881">
  <ele>1583.17</ele>
  <time>2026-08-28T17:56:30Z</time>
  <course>73.21</course>
  <speed>4.316537964619331</speed>
  <fix>3d</fix>
</trkpt>
<trkpt lat="40.0710976" lon="-105.229887">
  <ele>1583.0</ele>
  <time>2026-08-28T17:56:30Z</time>
  <course>72.0</course>
  <speed>4.21</speed>
  <fix>3d</fix>
</trkpt>
<trkpt lat="40.0711006" lon="-105.2298761">
  <ele>1583.17</ele>
  <time>2026-08-28T17:56:30Z</time>
  <course>73.14</course>
  <speed>4.420882264887858</speed>
  <fix>3d</fix>
</trkpt>
<trkpt lat="40.0710976" lon="-105.229887">
  <ele>1583.0</ele>
  <time>2026-08-28T17:56:30Z</time>
  <course>72.0</course>
  <speed>4.21</speed>
  <fix>3d</fix>
</trkpt>
<trkpt lat="40.0711018" lon="-105.2298711">
  <ele>1583.17</ele>
  <time>2026-08-28T17:56:30Z</time>
  <course>73.09</course>
  <speed>4.528421358486862</speed>
  <fix>3d</fix>
</trkpt>
<trkpt lat="40.0711" lon="-105.2298774">
  <ele>1583.0</ele>
  <time>2026-08-28T17:56:30Z</time>
  <course>71.71</course>
  <speed>4.42</speed>
  <fix>3d</fix>
</trkpt>
<trkpt lat="40.0711031" lon="-105.2298659">
  <ele>1583.17</ele>
  <time>2026-08-28T17:56:30Z</time>
  <course>73.03</course>
  <speed>4.642240838215958</speed>
  <fix>3d</fix>
</trkpt>
<trkpt lat="40.0711" lon="-105.2298774">
  <ele>1583.0</ele>
  <time>2026-08-28T17:56:30Z</time>
  <course>71.71</course>
  <speed>4.42</speed>
  <fix>3d</fix>
</trkpt>
<trkpt lat="40.0711045" lon="-105.2298606">
  <ele>1583.17</ele>
  <time>2026-08-28T17:56:30Z</time>
  <course>72.97</course>
  <speed>4.749778942224575</speed>
  <fix>3d</fix>
</trkpt>
<trkpt lat="40.0711" lon="-105.2298774">
  <ele>1583.0</ele>
  <time>2026-08-28T17:56:30Z</time>
  <course>71.71</course>
  <speed>4.42</speed>
  <fix>3d</fix>
</trkpt>
<trkpt lat="40.0711058" lon="-105.2298553">
  <ele>1583.17</ele>
  <time>2026-08-28T17:56:30Z</time>
  <course>72.91</course>
  <speed>4.8541219597369</speed>
  <fix>3d</fix>
</trkpt>
<trkpt lat="40.0711025" lon="-105.2298673">
  <ele>1583.0</ele>
  <time>2026-08-28T17:56:30Z</time>
  <course>71.58</course>
  <speed>4.64</speed>
  <fix>3d</fix>
</trkpt>
<trkpt lat="40.0711072" lon="-105.2298497">
  <ele>1583.17</ele>
  <time>2026-08-28T17:56:30Z</time>
  <course>72.87</course>
  <speed>4.9521914341026845</speed>
  <fix>3d</fix>
</trkpt>
<trkpt lat="40.0711025" lon="-105.2298673">
  <ele>1583.0</ele>
  <time>2026-08-28T17:56:30Z</time>
  <course>71.58</course>
  <speed>4.64</speed>
  <fix>3d</fix>
</trkpt>
<trkpt lat="40.0711086" lon="-105.2298442">
  <ele>1583.16</ele>
  <time>2026-08-28T17:56:30Z</time>
  <course>72.84</course>
  <speed>5.03438178925675</speed>
  <fix>3d</fix>
</trkpt>
<trkpt lat="40.0711053" lon="-105.2298567">
  <ele>1583.0</ele>
  <time>2026-08-28T17:56:30Z</time>
  <course>71.46</course>
  <speed>4.85</speed>
  <fix>3d</fix>
</trkpt>
<trkpt lat="40.0711101" lon="-105.2298385">
  <ele>1583.16</ele>
  <time>2026-08-28T17:56:30Z</time>
  <course>72.84</course>
  <speed>5.119775385698087</speed>
  <fix>3d</fix>
</trkpt>
<trkpt lat="40.0711053" lon="-105.2298567">
  <ele>1583.0</ele>
  <time>2026-08-28T17:56:30Z</time>
  <course>71.46</course>
  <speed>4.85</speed>
  <fix>3d</fix>
</trkpt>
<trkpt lat="40.0711115" lon="-105.2298328">
  <ele>1583.16</ele>
  <time>2026-08-28T17:56:30Z</time>
  <course>72.84</course>
  <speed>5.192494583531118</speed>
  <fix>3d</fix>
</trkpt>
<trkpt lat="40.0711081" lon="-105.2298457">
  <ele>1583.0</ele>
  <time>2026-08-28T17:56:30Z</time>
  <course>71.4</course>
  <speed>5.04</speed>
  <fix>3d</fix>
</trkpt>
<trkpt lat="40.071113" lon="-105.229827">
  <ele>1583.16</ele>
  <time>2026-08-28T17:56:30Z</time>
  <course>72.84</course>
  <speed>5.243071618812774</speed>
  <fix>3d</fix>
</trkpt>
<trkpt lat="40.0711081" lon="-105.2298457">
  <ele>1583.0</ele>
  <time>2026-08-28T17:56:30Z</time>
  <course>71.4</course>
  <speed>5.04</speed>
  <fix>3d</fix>
</trkpt>
<trkpt lat="40.0711142" lon="-105.2298223">
  <ele>1583.16</ele>
  <time>2026-08-28T17:56:30Z</time>
  <course>72.84</course>
  <speed>5.274694303938381</speed>
  <fix>3d</fix>
</trkpt>
<trkpt lat="40.071111" lon="-105.2298342">
  <ele>1583.0</ele>
  <time>2026-08-28T17:56:30Z</time>
  <course>71.38</course>
  <speed>5.2</speed>
  <fix>3d</fix>
</trkpt>
<trkpt lat="40.0711157" lon="-105.2298164">
  <ele>1583.16</ele>
  <time>2026-08-28T17:56:30Z</time>
  <course>72.84</course>
  <speed>5.306316990154283</speed>
  <fix>3d</fix>
</trkpt>
<trkpt lat="40.071111" lon="-105.2298342">
  <ele>1583.0</ele>
  <time>2026-08-28T17:56:30Z</time>
  <course>71.38</course>
  <speed>5.2</speed>
  <fix>3d</fix>
</trkpt>
<trkpt lat="40.0711172" lon="-105.2298105">
  <ele>1583.16</ele>
  <time>2026-08-28T17:56:30Z</time>
  <course>72.84</course>
  <speed>5.337939677441101</speed>
  <fix>3d</fix>
</trkpt>
<trkpt lat="40.0711141" lon="-105.2298226">
  <ele>1583.0</ele>
  <time>2026-08-28T17:56:30Z</time>
  <course>71.38</course>
  <speed>5.3</speed>
  <fix>3d</fix>
</trkpt>
<trkpt lat="40.0711188" lon="-105.2298045">
  <ele>1583.15</ele>
  <time>2026-08-28T17:56:30Z</time>
  <course>72.84</course>
  <speed>5.347419938624608</speed>
  <fix>3d</fix>
</trkpt>
<trkpt lat="40.0711141" lon="-105.2298226">
  <ele>1583.0</ele>
  <time>2026-08-28T17:56:30Z</time>
  <course>71.38</course>
  <speed>5.3</speed>
  <fix>3d</fix>
</trkpt>
<trkpt lat="40.0711203" lon="-105.2297984">
  <ele>1583.15</ele>
  <time>2026-08-28T17:56:30Z</time>
  <course>72.84</course>
  <speed>5.356902089827664</speed>
  <fix>3d</fix>
</trkpt>
<trkpt lat="40.0711171" lon="-105.2298107">
  <ele>1583.0</ele>
  <time>2026-08-28T17:56:30Z</time>
  <course>71.38</course>
  <speed>5.36</speed>
  <fix>3d</fix>
</trkpt>
<trkpt lat="40.0711218" lon="-105.2297924">
  <ele>1583.16</ele>
  <time>2026-08-28T17:56:30Z</time>
  <course>72.84</course>
  <speed>5.356902089827664</speed>
  <fix>3d</fix>
</trkpt>
<trkpt lat="40.0711171" lon="-105.2298107">
  <ele>1583.0</ele>
  <time>2026-08-28T17:56:30Z</time>
  <course>71.38</course>
  <speed>5.36</speed>
  <fix>3d</fix>
</trkpt>
<trkpt lat="40.0711234" lon="-105.2297864">
  <ele>1583.16</ele>
  <time>2026-08-28T17:56:30Z</time>
  <course>72.84</course>
  <speed>5.347419938624608</speed>
  <fix>3d</fix>
</trkpt>
<trkpt lat="40.0711202" lon="-105.2297988">
  <ele>1583.0</ele>
  <time>2026-08-28T17:56:30Z</time>
  <course>71.38</course>
  <speed>5.38</speed>
  <fix>3d</fix>
</trkpt>
<trkpt lat="40.0711249" lon="-105.2297804">
  <ele>1583.16</ele>
  <time>2026-08-28T17:56:30Z</time>
  <course>72.84</course>
  <speed>5.337939677441101</speed>
  <fix>3d</fix>
</trkpt>
<trkpt lat="40.0711202" lon="-105.2297988">
  <ele>1583.0</ele>
  <time>2026-08-28T17:56:30Z</time>
  <course>71.38</course>
  <speed>5.38</speed>
  <fix>3d</fix>
</trkpt>
<trkpt lat="40.0711265" lon="-105.2297744">
  <ele>1583.16</ele>
  <time>2026-08-28T17:56:30Z</time>
  <course>72.84</course>
  <speed>5.315797212083997</speed>
  <fix>3d</fix>
</trkpt>
<trkpt lat="40.0711233" lon="-105.2297868">
  <ele>1583.0</ele>
  <time>2026-08-28T17:56:30Z</time>
  <course>71.39</course>
  <speed>5.37</speed>
  <fix>3d</fix>
</trkpt>
<trkpt lat="40.071128" lon="-105.2297684">
  <ele>1583.15</ele>
  <time>2026-08-28T17:56:30Z</time>
  <course>72.84</course>
  <speed>5.284174486142562</speed>
  <fix>3d</fix>
</trkpt>
<trkpt lat="40.0711233" lon="-105.2297868">
  <ele>1583.0</ele>
  <time>2026-08-28T17:56:30Z</time>
  <course>71.39</course>
  <speed>5.37</speed>
  <fix>3d</fix>
</trkpt>
<trkpt lat="40.0711298" lon="-105.2297613">
  <ele>1583.15</ele>
  <time>2026-08-28T17:56:30Z</time>
  <course>72.84</course>
  <speed>5.25255176081112</speed>
  <fix>3d</fix>
</trkpt>
<trkpt lat="40.0711264" lon="-105.2297749">
  <ele>1583.0</ele>
  <time>2026-08-28T17:56:30Z</time>
  <course>71.38</course>
  <speed>5.34</speed>
  <fix>3d</fix>
</trkpt>
<trkpt lat="40.0711313" lon="-105.2297554">
  <ele>1583.15</ele>
  <time>2026-08-28T17:56:30Z</time>
  <course>72.84</course>
  <speed>5.22092903610076</speed>
  <fix>3d</fix>
</trkpt>
<trkpt lat="40.0711294" lon="-105.229763">
  <ele>1583.0</ele>
  <time>2026-08-28T17:56:30Z</time>
  <course>71.39</course>
  <speed>5.28</speed>
  <fix>3d</fix>
</trkpt>
<trkpt lat="40.0711328" lon="-105.2297496">
  <ele>1583.15</ele>
  <time>2026-08-28T17:56:30Z</time>
  <course>72.84</course>
  <speed>5.189306312022832</speed>
  <fix>3d</fix>
</trkpt>
<trkpt lat="40.0711294" lon="-105.229763">
  <ele>1583.0</ele>
  <time>2026-08-28T17:56:30Z</time>
  <course>71.39</course>
  <speed>5.28</speed>
  <fix>3d</fix>
</trkpt>
<trkpt lat="40.0711343" lon="-105.2297438">
  <ele>1583.15</ele>
  <time>2026-08-28T17:56:30Z</time>
  <course>72.84</course>
  <speed>5.15768358858897</speed>
  <fix>3d</fix>
</trkpt>
<trkpt lat="40.0711323" lon="-105.2297514">
  <ele>1583.0</ele>
  <time>2026-08-28T17:56:30Z</time>
  <course>71.39</course>
  <speed>5.22</speed>
  <fix>3d</fix>
</trkpt>
<trkpt lat="40.0711358" lon="-105.229738">
  <ele>1583.16</ele>
  <time>2026-08-28T17:56:30Z</time>
  <course>72.84</course>
  <speed>5.1260608658110955</speed>
  <fix>3d</fix>
</trkpt>
<trkpt lat="40.0711323" lon="-105.2297514">
  <ele>1583.0</ele>
  <time>2026-08-28T17:56:30Z</time>
  <course>71.39</course>
  <speed>5.22</speed>
  <fix>3d</fix>
</trkpt>
<trkpt lat="40.0711373" lon="-105.2297323">
  <ele>1583.16</ele>
  <time>2026-08-28T17:56:30Z</time>
  <course>72.84</course>
  <speed>5.0944381437014234</speed>
  <fix>3d</fix>
</trkpt>
<trkpt lat="40.0711323" lon="-105.2297514">
  <ele>1583.0</ele>
  <time>2026-08-28T17:56:30Z</time>
  <course>71.39</course>
  <speed>5.22</speed>
  <fix>3d</fix>
</trkpt>
<trkpt lat="40.0711388" lon="-105.2297266">
  <ele>1583.15</ele>
  <time>2026-08-28T17:56:30Z</time>
  <course>72.84</course>
  <speed>5.053335532101545</speed>
  <fix>3d</fix>
</trkpt>
<trkpt lat="40.0711354" lon="-105.2297398">
  <ele>1583.0</ele>
  <time>2026-08-28T17:56:30Z</time>
  <course>71.39</course>
  <speed>5.16</speed>
  <fix>3d</fix>
</trkpt>
<trkpt lat="40.0711402" lon="-105.229721">
  <ele>1583.16</ele>
  <time>2026-08-28T17:56:30Z</time>
  <course>72.84</course>
  <speed>5.021712855191941</speed>
  <fix>3d</fix>
</trkpt>
<trkpt lat="40.0711354" lon="-105.2297398">
  <ele>1583.0</ele>
  <time>2026-08-28T17:56:30Z</time>
  <course>71.39</course>
  <speed>5.16</speed>
  <fix>3d</fix>
</trkpt>
<trkpt lat="40.0711416" lon="-105.2297154">
  <ele>1583.16</ele>
  <time>2026-08-28T17:56:30Z</time>
  <course>72.84</course>
  <speed>4.99956998150841</speed>
  <fix>3d</fix>
</trkpt>
<trkpt lat="40.0711383" lon="-105.2297284">
  <ele>1583.0</ele>
  <time>2026-08-28T17:56:30Z</time>
  <course>71.39</course>
  <speed>5.09</speed>
  <fix>3d</fix>
</trkpt>
<trkpt lat="40.0711431" lon="-105.2297099">
  <ele>1583.16</ele>
  <time>2026-08-28T17:56:30Z</time>
  <course>72.84</course>
  <speed>4.971136690939005</speed>
  <fix>3d</fix>
</trkpt>
<trkpt lat="40.0711383" lon="-105.2297284">
  <ele>1583.0</ele>
  <time>2026-08-28T17:56:30Z</time>
  <course>71.39</course>
  <speed>5.09</speed>
  <fix>3d</fix>
</trkpt>
<trkpt lat="40.0711445" lon="-105.2297044">
  <ele>1583.16</ele>
  <time>2026-08-28T17:56:30Z</time>
  <course>72.84</course>
  <speed>4.948989795907848</speed>
  <fix>3d</fix>
</trkpt>
<trkpt lat="40.0711412" lon="-105.229717">
  <ele>1583.0</ele>
  <time>2026-08-28T17:56:30Z</time>
  <course>71.39</course>
  <speed>5.04</speed>
  <fix>3d</fix>
</trkpt>
<trkpt lat="40.0711456" lon="-105.2297">
  <ele>1583.16</ele>
  <time>2026-08-28T17:56:30Z</time>
  <course>72.84</course>
  <speed>4.92684483214156</speed>
  <fix>3d</fix>
</trkpt>
<trkpt lat="40.0711412" lon="-105.229717">
  <ele>1583.0</ele>
  <time>2026-08-28T17:56:30Z</time>
  <course>71.39</course>
  <speed>5.04</speed>
  <fix>3d</fix>
</trkpt>
<trkpt lat="40.071147" lon="-105.2296945">
  <ele>1583.16</ele>
  <time>2026-08-28T17:56:30Z</time>
  <course>72.84</course>
  <speed>4.917367181734551</speed>
  <fix>3d</fix>
</trkpt>
<trkpt lat="40.0711441" lon="-105.2297059">
  <ele>1583.0</ele>
  <time>2026-08-28T17:56:30Z</time>
  <course>71.39</course>
  <speed>5.0</speed>
  <fix>3d</fix>
</trkpt>
<trkpt lat="40.0711484" lon="-105.229689">
  <ele>1583.16</ele>
  <time>2026-08-28T17:56:30Z</time>
  <course>72.83</course>
  <speed>4.904701825799403</speed>
  <fix>3d</fix>
</trkpt>
<trkpt lat="40.0711441" lon="-105.2297059">
  <ele>1583.0</ele>
  <time>2026-08-28T17:56:30Z</time>
  <course>71.39</course>
  <speed>5.0</speed>
  <fix>3d</fix>
</trkpt>
<trkpt lat="40.0711498" lon="-105.2296835">
  <ele>1583.16</ele>
  <time>2026-08-28T17:56:30Z</time>
  <course>72.83</course>
  <speed>4.89522216043358</speed>
  <fix>3d</fix>
</trkpt>
<trkpt lat="40.0711469" lon="-105.2296948">
  <ele>1583.0</ele>
  <time>2026-08-28T17:56:30Z</time>
  <course>71.39</course>
  <speed>4.97</speed>
  <fix>3d</fix>
</trkpt>
<trkpt lat="40.0711513" lon="-105.229678">
  <ele>1583.16</ele>
  <time>2026-08-28T17:56:30Z</time>
  <course>72.82</course>
  <speed>4.882560803512845</speed>
  <fix>3d</fix>
</trkpt>
<trkpt lat="40.0711469" lon="-105.2296948">
  <ele>1583.0</ele>
  <time>2026-08-28T17:56:30Z</time>
  <course>71.39</course>
  <speed>4.97</speed>
  <fix>3d</fix>
</trkpt>
<trkpt lat="40.0711527" lon="-105.2296725">
  <ele>1583.16</ele>
  <time>2026-08-28T17:56:30Z</time>
  <course>72.82</course>
  <speed>4.882560803512845</speed>
  <fix>3d</fix>
</trkpt>
<trkpt lat="40.0711498" lon="-105.2296837">
  <ele>1583.0</ele>
  <time>2026-08-28T17:56:30Z</time>
  <course>71.39</course>
  <speed>4.95</speed>
  <fix>3d</fix>
</trkpt>
<trkpt lat="40.0711541" lon="-105.229667">
  <ele>1583.16</ele>
  <time>2026-08-28T17:56:30Z</time>
  <course>72.81</course>
  <speed>4.882560803512845</speed>
  <fix>3d</fix>
</trkpt>
<trkpt lat="40.0711498" lon="-105.2296837">
  <ele>1583.0</ele>
  <time>2026-08-28T17:56:30Z</time>
  <course>71.39</course>
  <speed>4.95</speed>
  <fix>3d</fix>
</trkpt>
<trkpt lat="40.0711555" lon="-105.2296615">
  <ele>1583.16</ele>
  <time>2026-08-28T17:56:30Z</time>
  <course>72.8</course>
  <speed>4.882560803512845</speed>
  <fix>3d</fix>
</trkpt>
<trkpt lat="40.0711527" lon="-105.2296727">
  <ele>1583.0</ele>
  <time>2026-08-28T17:56:30Z</time>
  <course>71.39</course>
  <speed>4.94</speed>
  <fix>3d</fix>
</trkpt>
<trkpt lat="40.0711569" lon="-105.2296559">
  <ele>1583.16</ele>
  <time>2026-08-28T17:56:30Z</time>
  <course>72.8</course>
  <speed>4.882560803512845</speed>
  <fix>3d</fix>
</trkpt>
<trkpt lat="40.0711527" lon="-105.2296727">
  <ele>1583.0</ele>
  <time>2026-08-28T17:56:30Z</time>
  <course>71.39</course>
  <speed>4.94</speed>
  <fix>3d</fix>
</trkpt>
<trkpt lat="40.0711583" lon="-105.2296504">
  <ele>1583.16</ele>
  <time>2026-08-28T17:56:30Z</time>
  <course>72.79</course>
  <speed>4.882560803512845</speed>
  <fix>3d</fix>
</trkpt>
<trkpt lat="40.0711555" lon="-105.2296618">
  <ele>1583.0</ele>
  <time>2026-08-28T17:56:30Z</time>
  <course>71.38</course>
  <speed>4.94</speed>
  <fix>3d</fix>
</trkpt>
<trkpt lat="40.07116" lon="-105.2296438">
  <ele>1583.16</ele>
  <time>2026-08-28T17:56:30Z</time>
  <course>72.78</course>
  <speed>4.89204456234814</speed>
  <fix>3d</fix>
</trkpt>
<trkpt lat="40.0711583" lon="-105.2296508">
  <ele>1583.0</ele>
  <time>2026-08-28T17:56:30Z</time>
  <course>71.39</course>
  <speed>4.94</speed>
  <fix>3d</fix>
</trkpt>
<trkpt lat="40.0711615" lon="-105.2296383">
  <ele>1583.16</ele>
  <time>2026-08-28T17:56:30Z</time>
  <course>72.78</course>
  <speed>4.89204456234814</speed>
  <fix>3d</fix>
</trkpt>
<trkpt lat="40.0711583" lon="-105.2296508">
  <ele>1583.0</ele>
  <time>2026-08-28T17:56:30Z</time>
  <course>71.39</course>
  <speed>4.94</speed>
  <fix>3d</fix>
</trkpt>
<trkpt lat="40.0711629" lon="-105.2296328">
  <ele>1583.16</ele>
  <time>2026-08-28T17:56:30Z</time>
  <course>72.77</course>
  <speed>4.901530373260988</speed>
  <fix>3d</fix>
</trkpt>
<trkpt lat="40.0711612" lon="-105.2296398">
  <ele>1583.0</ele>
  <time>2026-08-28T17:56:30Z</time>
  <course>71.39</course>
  <speed>4.95</speed>
  <fix>3d</fix>
</trkpt>
<trkpt lat="40.0711643" lon="-105.2296273">
  <ele>1583.16</ele>
  <time>2026-08-28T17:56:30Z</time>
  <course>72.77</course>
  <speed>4.901530373260988</speed>
  <fix>3d</fix>
</trkpt>
<trkpt lat="40.0711612" lon="-105.2296398">
  <ele>1583.0</ele>
  <time>2026-08-28T17:56:30Z</time>
  <course>71.39</course>
  <speed>4.95</speed>
  <fix>3d</fix>
</trkpt>
<trkpt lat="40.0711657" lon="-105.2296217">
  <ele>1583.15</ele>
  <time>2026-08-28T17:56:30Z</time>
  <course>72.76</course>
  <speed>4.911018224360403</speed>
  <fix>3d</fix>
</trkpt>
<trkpt lat="40.0711612" lon="-105.2296398">
  <ele>1583.0</ele>
  <time>2026-08-28T17:56:30Z</time>
  <course>71.39</course>
  <speed>4.95</speed>
  <fix>3d</fix>
</trkpt>
<trkpt lat="40.0711671" lon="-105.2296162">
  <ele>1583.15</ele>
  <time>2026-08-28T17:56:30Z</time>
  <course>72.76</course>
  <speed>4.923667332385485</speed>
  <fix>3d</fix>
</trkpt>
<trkpt lat="40.071164" lon="-105.2296287">
  <ele>1583.0</ele>
  <time>2026-08-28T17:56:30Z</time>
  <course>71.39</course>
  <speed>4.96</speed>
  <fix>3d</fix>
</trkpt>
<trkpt lat="40.0711685" lon="-105.2296107">
  <ele>1583.15</ele>
  <time>2026-08-28T17:56:30Z</time>
  <course>72.76</course>
  <speed>4.923667332385485</speed>
  <fix>3d</fix>
</trkpt>
<trkpt lat="40.071164" lon="-105.2296287">
  <ele>1583.0</ele>
  <time>2026-08-28T17:56:30Z</time>
  <course>71.39</course>
  <speed>4.96</speed>
  <fix>3d</fix>
</trkpt>
<trkpt lat="40.07117" lon="-105.2296052">
  <ele>1583.15</ele>
  <time>2026-08-28T17:56:30Z</time>
  <course>72.76</course>
  <speed>4.923667332385485</speed>
  <fix>3d</fix>
</trkpt>
<trkpt lat="40.0711668" lon="-105.2296176">
  <ele>1583.0</ele>
  <time>2026-08-28T17:56:30Z</time>
  <course>71.39</course>
  <speed>4.97</speed>
  <fix>3d</fix>
</trkpt>
<trkpt lat="40.0711714" lon="-105.2295997">
  <ele>1583.15</ele>
  <time>2026-08-28T17:56:30Z</time>
  <course>72.78</course>
  <speed>4.933153149862672</speed>
  <fix>3d</fix>
</trkpt>
<trkpt lat="40.0711668" lon="-105.2296176">
  <ele>1583.0</ele>
  <time>2026-08-28T17:56:30Z</time>
  <course>71.39</course>
  <speed>4.97</speed>
  <fix>3d</fix>
</trkpt>
<trkpt lat="40.0711728" lon="-105.2295942">
  <ele>1583.15</ele>
  <time>2026-08-28T17:56:30Z</time>
  <course>72.79</course>
  <speed>4.93</speed>
  <fix>3d</fix>
</trkpt>
<trkpt lat="40.0711697" lon="-105.2296066">
  <ele>1583.0</ele>
  <time>2026-08-28T17:56:30Z</time>
  <course>71.39</course>
  <speed>4.98</speed>
  <fix>3d</fix>
</trkpt>
<trkpt lat="40.0711742" lon="-105.2295887">
  <ele>1583.15</ele>
  <time>2026-08-28T17:56:30Z</time>
  <course>72.8</course>
  <speed>4.9394939012008106</speed>
  <fix>3d</fix>
</trkpt>
<trkpt lat="40.0711697" lon="-105.2296066">
  <ele>1583.0</ele>
  <time>2026-08-28T17:56:30Z</time>
  <course>71.39</course>
  <speed>4.98</speed>
  <fix>3d</fix>
</trkpt>
<trkpt lat="40.0711753" lon="-105.2295842">
  <ele>1583.15</ele>
  <time>2026-08-28T17:56:30Z</time>
  <course>72.81</course>
  <speed>4.9394939012008106</speed>
  <fix>3d</fix>
</trkpt>
<trkpt lat="40.0711726" lon="-105.2295954">
  <ele>1583.0</ele>
  <time>2026-08-28T17:56:30Z</time>
  <course>71.41</course>
  <speed>4.99</speed>
  <fix>3d</fix>
</trkpt>
<trkpt lat="40.0711767" lon="-105.2295787">
  <ele>1583.15</ele>
  <time>2026-08-28T17:56:30Z</time>
  <course>72.85</course>
  <speed>4.948989795907848</speed>
  <fix>3d</fix>
</trkpt>
<trkpt lat="40.0711726" lon="-105.2295954">
  <ele>1583.0</ele>
  <time>2026-08-28T17:56:30Z</time>
  <course>71.41</course>
  <speed>4.99</speed>
  <fix>3d</fix>
</trkpt>
<trkpt lat="40.0711781" lon="-105.2295731">
  <ele>1583.14</ele>
  <time>2026-08-28T17:56:30Z</time>
  <course>72.85</course>
  <speed>4.948989795907848</speed>
  <fix>3d</fix>
</trkpt>
<trkpt lat="40.0711754" lon="-105.2295843">
  <ele>1583.0</ele>
  <time>2026-08-28T17:56:30Z</time>
  <course>71.45</course>
  <speed>5.0</speed>
  <fix>3d</fix>
</trkpt>
<trkpt lat="40.0711796" lon="-105.2295675">
  <ele>1583.14</ele>
  <time>2026-08-28T17:56:30Z</time>
  <course>72.9</course>
  <speed>4.948989795907848</speed>
  <fix>3d</fix>
</trkpt>
<trkpt lat="40.0711754" lon="-105.2295843">
  <ele>1583.0</ele>
  <time>2026-08-28T17:56:30Z</time>
  <course>71.45</course>
  <speed>5.0</speed>
  <fix>3d</fix>
</trkpt>
<trkpt lat="40.071181" lon="-105.2295619">
  <ele>1583.14</ele>
  <time>2026-08-28T17:56:30Z</time>
  <course>72.92</course>
  <speed>4.945866961413337</speed>
  <fix>3d</fix>
</trkpt>
<trkpt lat="40.0711783" lon="-105.2295732">
  <ele>1583.0</ele>
  <time>2026-08-28T17:56:30Z</time>
  <course>71.51</course>
  <speed>5.01</speed>
  <fix>3d</fix>
</trkpt>
<trkpt lat="40.0711824" lon="-105.2295564">
  <ele>1583.14</ele>
  <time>2026-08-28T17:56:30Z</time>
  <course>72.94</course>
  <speed>4.936365059433915</speed>
  <fix>3d</fix>
</trkpt>
<trkpt lat="40.0711783" lon="-105.2295732">
  <ele>1583.0</ele>
  <time>2026-08-28T17:56:30Z</time>
  <course>71.51</course>
  <speed>5.01</speed>
  <fix>3d</fix>
</trkpt>
<trkpt lat="40.0711838" lon="-105.2295508">
  <ele>1583.14</ele>
  <time>2026-08-28T17:56:30Z</time>
  <course>73.0</course>
  <speed>4.911140397097196</speed>
  <fix>3d</fix>
</trkpt>
<trkpt lat="40.0711812" lon="-105.229562">
  <ele>1583.0</ele>
  <time>2026-08-28T17:56:30Z</time>
  <course>71.57</course>
  <speed>5.0</speed>
  <fix>3d</fix>
</trkpt>
<trkpt lat="40.0711852" lon="-105.2295452">
  <ele>1583.14</ele>
  <time>2026-08-28T17:56:30Z</time>
  <course>73.04</course>
  <speed>4.8795184188606155</speed>
  <fix>3d</fix>
</trkpt>
<trkpt lat="40.0711812" lon="-105.229562">
  <ele>1583.0</ele>
  <time>2026-08-28T17:56:30Z</time>
  <course>71.57</course>
  <speed>5.0</speed>
  <fix>3d</fix>
</trkpt>
<trkpt lat="40.0711866" lon="-105.2295397">
  <ele>1583.13</ele>
  <time>2026-08-28T17:56:30Z</time>
  <course>73.1</course>
  <speed>4.844811657845948</speed>
  <fix>3d</fix>
</trkpt>
<trkpt lat="40.071184" lon="-105.2295509">
  <ele>1583.0</ele>
  <time>2026-08-28T17:56:30Z</time>
  <course>71.66</course>
  <speed>4.96</speed>
  <fix>3d</fix>
</trkpt>
<trkpt lat="40.071188" lon="-105.2295342">
  <ele>1583.13</ele>
  <time>2026-08-28T17:56:30Z</time>
  <course>73.1</course>
  <speed>4.794163117792301</speed>
  <fix>3d</fix>
</trkpt>
<trkpt lat="40.071184" lon="-105.2295509">
  <ele>1583.0</ele>
  <time>2026-08-28T17:56:30Z</time>
  <course>71.66</course>
  <speed>4.96</speed>
  <fix>3d</fix>
</trkpt>
<trkpt lat="40.0711896" lon="-105.2295277">
  <ele>1583.13</ele>
  <time>2026-08-28T17:56:30Z</time>
  <course>73.01</course>
  <speed>4.711899829155964</speed>
  <fix>3d</fix>
</trkpt>
<trkpt lat="40.0711868" lon="-105.2295399">
  <ele>1583.0</ele>
  <time>2026-08-28T17:56:30Z</time>
  <course>71.74</course>
  <speed>4.88</speed>
  <fix>3d</fix>
</trkpt>
<trkpt lat="40.071191" lon="-105.2295225">
  <ele>1583.13</ele>
  <time>2026-08-28T17:56:30Z</time>
  <course>72.77</course>
  <speed>4.635903363962627</speed>
  <fix>3d</fix>
</trkpt>
<trkpt lat="40.0711895" lon="-105.2295292">
  <ele>1583.0</ele>
  <time>2026-08-28T17:56:30Z</time>
  <course>71.6</course>
  <speed>4.76</speed>
  <fix>3d</fix>
</trkpt>
<trkpt lat="40.0711923" lon="-105.2295173">
  <ele>1583.13</ele>
  <time>2026-08-28T17:56:30Z</time>
  <course>72.39</course>
  <speed>4.550571392693449</speed>
  <fix>3d</fix>
</trkpt>
<trkpt lat="40.0711895" lon="-105.2295292">
  <ele>1583.0</ele>
  <time>2026-08-28T17:56:30Z</time>
  <course>71.6</course>
  <speed>4.76</speed>
  <fix>3d</fix>
</trkpt>
<trkpt lat="40.0711937" lon="-105.2295123">
  <ele>1583.14</ele>
  <time>2026-08-28T17:56:30Z</time>
  <course>71.85</course>
  <speed>4.449820221087589</speed>
  <fix>3d</fix>
</trkpt>
<trkpt lat="40.0711922" lon="-105.2295187">
  <ele>1583.0</ele>
  <time>2026-08-28T17:56:30Z</time>
  <course>70.98</course>
  <speed>4.59</speed>
  <fix>3d</fix>
</trkpt>
<trkpt lat="40.0711951" lon="-105.2295074">
  <ele>1583.13</ele>
  <time>2026-08-28T17:56:30Z</time>
  <course>71.15</course>
  <speed>4.343558449013895</speed>
  <fix>3d</fix>
</trkpt>
<trkpt lat="40.0711922" lon="-105.2295187">
  <ele>1583.0</ele>
  <time>2026-08-28T17:56:30Z</time>
  <course>70.98</course>
  <speed>4.59</speed>
  <fix>3d</fix>
</trkpt>
<trkpt lat="40.0711964" lon="-105.2295026">
  <ele>1583.13</ele>
  <time>2026-08-28T17:56:30Z</time>
  <course>70.27</course>
  <speed>4.228782330647913</speed>
  <fix>3d</fix>
</trkpt>
<trkpt lat="40.0711922" lon="-105.2295187">
  <ele>1583.0</ele>
  <time>2026-08-28T17:56:30Z</time>
  <course>70.98</course>
  <speed>4.59</speed>
  <fix>3d</fix>
</trkpt>
<trkpt lat="40.0711978" lon="-105.229498">
  <ele>1583.13</ele>
  <time>2026-08-28T17:56:30Z</time>
  <course>69.19</course>
  <speed>4.113222580896881</speed>
  <fix>3d</fix>
</trkpt>
<trkpt lat="40.0711948" lon="-105.2295088">
  <ele>1583.0</ele>
  <time>2026-08-28T17:56:30Z</time>
  <course>69.73</course>
  <speed>4.38</speed>
  <fix>3d</fix>
</trkpt>
<trkpt lat="40.0711993" lon="-105.2294936">
  <ele>1583.13</ele>
  <time>2026-08-28T17:56:30Z</time>
  <course>67.92</course>
  <speed>3.9864771415373754</speed>
  <fix>3d</fix>
</trkpt>
<trkpt lat="40.0711948" lon="-105.2295088">
  <ele>1583.0</ele>
  <time>2026-08-28T17:56:30Z</time>
  <course>69.73</course>
  <speed>4.38</speed>
  <fix>3d</fix>
</trkpt>
<trkpt lat="40.0712007" lon="-105.2294894">
  <ele>1583.13</ele>
  <time>2026-08-28T17:56:30Z</time>
  <course>66.41</course>
  <speed>3.860945480060551</speed>
  <fix>3d</fix>
</trkpt>
<trkpt lat="40.0711977" lon="-105.2294994">
  <ele>1583.0</ele>
  <time>2026-08-28T17:56:30Z</time>
  <course>67.78</course>
  <speed>4.15</speed>
  <fix>3d</fix>
</trkpt>
<trkpt lat="40.0712022" lon="-105.2294855">
  <ele>1583.13</ele>
  <time>2026-08-28T17:56:30Z</time>
  <course>64.76</course>
  <speed>3.7297855166215657</speed>
  <fix>3d</fix>
</trkpt>
<trkpt lat="40.0711977" lon="-105.2294994">
  <ele>1583.0</ele>
  <time>2026-08-28T17:56:30Z</time>
  <course>67.78</course>
  <speed>4.15</speed>
  <fix>3d</fix>
</trkpt>
<trkpt lat="40.0712038" lon="-105.2294817">
  <ele>1583.13</ele>
  <time>2026-08-28T17:56:30Z</time>
  <course>63.04</course>
  <speed>3.606563461246731</speed>
  <fix>3d</fix>
</trkpt>
<trkpt lat="40.0712006" lon="-105.2294907">
  <ele>1583.0</ele>
  <time>2026-08-28T17:56:30Z</time>
  <course>65.03</course>
  <speed>3.9</speed>
  <fix>3d</fix>
</trkpt>
<trkpt lat="40.0712051" lon="-105.2294787">
  <ele>1583.13</ele>
  <time>2026-08-28T17:56:30Z</time>
  <course>61.59</course>
  <speed>3.512719744016024</speed>
  <fix>3d</fix>
</trkpt>
<trkpt lat="40.0712006" lon="-105.2294907">
  <ele>1583.0</ele>
  <time>2026-08-28T17:56:30Z</time>
  <course>65.03</course>
  <speed>3.9</speed>
  <fix>3d</fix>
</trkpt>
<trkpt lat="40.0712067" lon="-105.2294753">
  <ele>1583.14</ele>
  <time>2026-08-28T17:56:31Z</time>
  <course>59.72</course>
  <speed>3.396233207540378</speed>
  <fix>3d</fix>
</trkpt>
<trkpt lat="40.0712036" lon="-105.2294828">
  <ele>1583.0</ele>
  <time>2026-08-28T17:56:31Z</time>
  <course>61.69</course>
  <speed>3.65</speed>
  <fix>3d</fix>
</trkpt>
<trkpt lat="40.0712084" lon="-105.229472">
  <ele>1583.14</ele>
  <time>2026-08-28T17:56:31Z</time>
  <course>57.77</course>
  <speed>3.283900120283807</speed>
  <fix>3d</fix>
</trkpt>
<trkpt lat="40.0712036" lon="-105.2294828">
  <ele>1583.0</ele>
  <time>2026-08-28T17:56:31Z</time>
  <course>61.69</course>
  <speed>3.65</speed>
  <fix>3d</fix>
</trkpt>
<trkpt lat="40.0712101" lon="-105.2294689">
  <ele>1583.14</ele>
  <time>2026-08-28T17:56:31Z</time>
  <course>55.73</course>
  <speed>3.1761612049768506</speed>
  <fix>3d</fix>
</trkpt>
<trkpt lat="40.0712068" lon="-105.2294757">
  <ele>1583.0</ele>
  <time>2026-08-28T17:56:31Z</time>
  <course>58.0</course>
  <speed>3.42</speed>
  <fix>3d</fix>
</trkpt>
<trkpt lat="40.0712118" lon="-105.2294659">
  <ele>1583.14</ele>
  <time>2026-08-28T17:56:31Z</time>
  <course>53.62</course>
  <speed>3.0813146544940846</speed>
  <fix>3d</fix>
</trkpt>
<trkpt lat="40.0712068" lon="-105.2294757">
  <ele>1583.0</ele>
  <time>2026-08-28T17:56:31Z</time>
  <course>58.0</course>
  <speed>3.42</speed>
  <fix>3d</fix>
</trkpt>
<trkpt lat="40.0712136" lon="-105.2294632">
  <ele>1583.13</ele>
  <time>2026-08-28T17:56:31Z</time>
  <course>51.42</course>
  <speed>2.992557434703635</speed>
  <fix>3d</fix>
</trkpt>
<trkpt lat="40.0712101" lon="-105.2294692">
  <ele>1583.0</ele>
  <time>2026-08-28T17:56:31Z</time>
  <course>53.97</course>
  <speed>3.2</speed>
  <fix>3d</fix>
</trkpt>
<trkpt lat="40.0712154" lon="-105.2294606">
  <ele>1583.13</ele>
  <time>2026-08-28T17:56:31Z</time>
  <course>49.17</course>
  <speed>2.9149614062625258</speed>
  <fix>3d</fix>
</trkpt>
<trkpt lat="40.0712101" lon="-105.2294692">
  <ele>1583.0</ele>
  <time>2026-08-28T17:56:31Z</time>
  <course>53.97</course>
  <speed>3.2</speed>
  <fix>3d</fix>
</trkpt>
<trkpt lat="40.0712172" lon="-105.2294581">
  <ele>1583.14</ele>
  <time>2026-08-28T17:56:31Z</time>
  <course>46.84</course>
  <speed>2.8427099746544666</speed>
  <fix>3d</fix>
</trkpt>
<trkpt lat="40.0712135" lon="-105.2294635">
  <ele>1583.0</ele>
  <time>2026-08-28T17:56:31Z</time>
  <course>49.62</course>
  <speed>3.02</speed>
  <fix>3d</fix>
</trkpt>
<trkpt lat="40.0712191" lon="-105.2294559">
  <ele>1583.14</ele>
  <time>2026-08-28T17:56:31Z</time>
  <course>44.45</course>
  <speed>2.7828941769316344</speed>
  <fix>3d</fix>
</trkpt>
<trkpt lat="40.0712135" lon="-105.2294635">
  <ele>1583.0</ele>
  <time>2026-08-28T17:56:31Z</time>
  <course>49.62</course>
  <speed>3.02</speed>
  <fix>3d</fix>
</trkpt>
<trkpt lat="40.071221" lon="-105.2294537">
  <ele>1583.14</ele>
  <time>2026-08-28T17:56:31Z</time>
  <course>42.01</course>
  <speed>2.7285527299284507</speed>
  <fix>3d</fix>
</trkpt>
<trkpt lat="40.0712171" lon="-105.2294584">
  <ele>1583.0</ele>
  <time>2026-08-28T17:56:31Z</time>
  <course>45.0</course>
  <speed>2.86</speed>
  <fix>3d</fix>
</trkpt>
<trkpt lat="40.0712233" lon="-105.2294514">
  <ele>1583.14</ele>
  <time>2026-08-28T17:56:31Z</time>
  <course>39.04</course>
  <speed>2.6821073804007174</speed>
  <fix>3d</fix>
</trkpt>
<trkpt lat="40.0712209" lon="-105.2294539">
  <ele>1583.0</ele>
  <time>2026-08-28T17:56:31Z</time>
  <course>40.15</course>
  <speed>2.75</speed>
  <fix>3d</fix>
</trkpt>
<trkpt lat="40.0712253" lon="-105.2294496">
  <ele>1583.14</ele>
  <time>2026-08-28T17:56:31Z</time>
  <course>36.55</course>
  <speed>2.651490147068248</speed>
  <fix>3d</fix>
</trkpt>
<trkpt lat="40.0712209" lon="-105.2294539">
  <ele>1583.0</ele>
  <time>2026-08-28T17:56:31Z</time>
  <course>40.15</course>
  <speed>2.75</speed>
  <fix>3d</fix>
</trkpt>
<trkpt lat="40.0712273" lon="-105.2294479">
  <ele>1583.15</ele>
  <time>2026-08-28T17:56:31Z</time>
  <course>34.02</course>
  <speed>2.6290872941003687</speed>
  <fix>3d</fix>
</trkpt>
<trkpt lat="40.0712247" lon="-105.2294501">
  <ele>1583.0</ele>
  <time>2026-08-28T17:56:31Z</time>
  <course>35.14</course>
  <speed>2.67</speed>
  <fix>3d</fix>
</trkpt>
<trkpt lat="40.0712293" lon="-105.2294463">
  <ele>1583.15</ele>
  <time>2026-08-28T17:56:31Z</time>
  <course>31.48</course>
  <speed>2.62251787410496</speed>
  <fix>3d</fix>
</trkpt>
<trkpt lat="40.0712247" lon="-105.2294501">
  <ele>1583.0</ele>
  <time>2026-08-28T17:56:31Z</time>
  <course>35.14</course>
  <speed>2.67</speed>
  <fix>3d</fix>
</trkpt>
<trkpt lat="40.0712314" lon="-105.2294449">
  <ele>1583.15</ele>
  <time>2026-08-28T17:56:31Z</time>
  <course>28.95</course>
  <speed>2.616295090390226</speed>
  <fix>3d</fix>
</trkpt>
<trkpt lat="40.0712247" lon="-105.2294501">
  <ele>1583.0</ele>
  <time>2026-08-28T17:56:31Z</time>
  <course>35.14</course>
  <speed>2.67</speed>
  <fix>3d</fix>
</trkpt>
<trkpt lat="40.0712336" lon="-105.2294436">
  <ele>1583.15</ele>
  <time>2026-08-28T17:56:31Z</time>
  <course>26.4</course>
  <speed>2.628802008520231</speed>
  <fix>3d</fix>
</trkpt>
<trkpt lat="40.0712287" lon="-105.2294467">
  <ele>1583.0</ele>
  <time>2026-08-28T17:56:31Z</time>
  <course>30.05</course>
  <speed>2.63</speed>
  <fix>3d</fix>
</trkpt>
<trkpt lat="40.0712358" lon="-105.2294424">
  <ele>1583.15</ele>
  <time>2026-08-28T17:56:31Z</time>
  <course>23.89</course>
  <speed>2.646393772664983</speed>
  <fix>3d</fix>
</trkpt>
<trkpt lat="40.0712287" lon="-105.2294467">
  <ele>1583.0</ele>
  <time>2026-08-28T17:56:31Z</time>
  <course>30.05</course>
  <speed>2.63</speed>
  <fix>3d</fix>
</trkpt>
<trkpt lat="40.071238" lon="-105.2294413">
  <ele>1583.15</ele>
  <time>2026-08-28T17:56:31Z</time>
  <course>21.41</course>
  <speed>2.6689698387205505</speed>
  <fix>3d</fix>
</trkpt>
<trkpt lat="40.0712329" lon="-105.2294437">
  <ele>1583.0</ele>
  <time>2026-08-28T17:56:31Z</time>
  <course>24.96</course>
  <speed>2.63</speed>
  <fix>3d</fix>
</trkpt>
<trkpt lat="40.0712403" lon="-105.2294403">
  <ele>1583.15</ele>
  <time>2026-08-28T17:56:31Z</time>
  <course>18.97</course>
  <speed>2.6992035862453947</speed>
  <fix>3d</fix>
</trkpt>
<trkpt lat="40.0712329" lon="-105.2294437">
  <ele>1583.0</ele>
  <time>2026-08-28T17:56:31Z</time>
  <course>24.96</course>
  <speed>2.63</speed>
  <fix>3d</fix>
</trkpt>
<trkpt lat="40.0712426" lon="-105.2294395">
  <ele>1583.15</ele>
  <time>2026-08-28T17:56:31Z</time>
  <course>16.57</course>
  <speed>2.740656855573131</speed>
  <fix>3d</fix>
</trkpt>
<trkpt lat="40.0712373" lon="-105.2294414">
  <ele>1583.0</ele>
  <time>2026-08-28T17:56:31Z</time>
  <course>19.96</course>
  <speed>2.67</speed>
  <fix>3d</fix>
</trkpt>
<trkpt lat="40.071245" lon="-105.2294387">
  <ele>1583.15</ele>
  <time>2026-08-28T17:56:31Z</time>
  <course>14.22</course>
  <speed>2.7966408421533147</speed>
  <fix>3d</fix>
</trkpt>
<trkpt lat="40.0712373" lon="-105.2294414">
  <ele>1583.0</ele>
  <time>2026-08-28T17:56:31Z</time>
  <course>19.96</course>
  <speed>2.67</speed>
  <fix>3d</fix>
</trkpt>
<trkpt lat="40.071247" lon="-105.2294382">
  <ele>1583.15</ele>
  <time>2026-08-28T17:56:31Z</time>
  <course>12.37</course>
  <speed>2.8408449447303523</speed>
  <fix>3d</fix>
</trkpt>
<trkpt lat="40.071242" lon="-105.2294395">
  <ele>1583.0</ele>
  <time>2026-08-28T17:56:31Z</time>
  <course>15.11</course>
  <speed>2.74</speed>
  <fix>3d</fix>
</trkpt>
<trkpt lat="40.0712496" lon="-105.2294377">
  <ele>1583.15</ele>
  <time>2026-08-28T17:56:31Z</time>
  <course>10.13</course>
  <speed>2.8950474952926073</speed>
  <fix>3d</fix>
</trkpt>
<trkpt lat="40.071242" lon="-105.2294395">
  <ele>1583.0</ele>
  <time>2026-08-28T17:56:31Z</time>
  <course>15.11</course>
  <speed>2.74</speed>
  <fix>3d</fix>
</trkpt>
<trkpt lat="40.0712522" lon="-105.2294373">
  <ele>1583.15</ele>
  <time>2026-08-28T17:56:31Z</time>
  <course>7.96</course>
  <speed>2.973213749463701</speed>
  <fix>3d</fix>
</trkpt>
<trkpt lat="40.0712469" lon="-105.229438">
  <ele>1583.0</ele>
  <time>2026-08-28T17:56:31Z</time>
  <course>10.47</course>
  <speed>2.84</speed>
  <fix>3d</fix>
</trkpt>
<trkpt lat="40.0712549" lon="-105.229437">
  <ele>1583.15</ele>
  <time>2026-08-28T17:56:31Z</time>
  <course>5.86</course>
  <speed>3.0453242848668847</speed>
  <fix>3d</fix>
</trkpt>
<trkpt lat="40.0712469" lon="-105.229438">
  <ele>1583.0</ele>
  <time>2026-08-28T17:56:31Z</time>
  <course>10.47</course>
  <speed>2.84</speed>
  <fix>3d</fix>
</trkpt>
<trkpt lat="40.0712577" lon="-105.2294368">
  <ele>1583.15</ele>
  <time>2026-08-28T17:56:31Z</time>
  <course>3.84</course>
  <speed>3.1210254725009854</speed>
  <fix>3d</fix>
</trkpt>
<trkpt lat="40.071252" lon="-105.2294371">
  <ele>1583.0</ele>
  <time>2026-08-28T17:56:31Z</time>
  <course>6.08</course>
  <speed>2.97</speed>
  <fix>3d</fix>
</trkpt>
<trkpt lat="40.0712606" lon="-105.2294367">
  <ele>1583.15</ele>
  <time>2026-08-28T17:56:31Z</time>
  <course>1.88</course>
  <speed>3.210015576286196</speed>
  <fix>3d</fix>
</trkpt>
<trkpt lat="40.071252" lon="-105.2294371">
  <ele>1583.0</ele>
  <time>2026-08-28T17:56:31Z</time>
  <course>6.08</course>
  <speed>2.97</speed>
  <fix>3d</fix>
</trkpt>
<trkpt lat="40.0712635" lon="-105.2294368">
  <ele>1583.15</ele>
  <time>2026-08-28T17:56:31Z</time>
  <course>0.0</course>
  <speed>3.3021810973960832</speed>
  <fix>3d</fix>
</trkpt>
<trkpt lat="40.0712575" lon="-105.2294366">
  <ele>1583.0</ele>
  <time>2026-08-28T17:56:31Z</time>
  <course>1.97</course>
  <speed>3.12</speed>
  <fix>3d</fix>
</trkpt>
<trkpt lat="40.0712665" lon="-105.229437">
  <ele>1583.15</ele>
  <time>2026-08-28T17:56:31Z</time>
  <course>358.18</course>
  <speed>3.3878164058874267</speed>
  <fix>3d</fix>
</trkpt>
<trkpt lat="40.0712575" lon="-105.2294366">
  <ele>1583.0</ele>
  <time>2026-08-28T17:56:31Z</time>
  <course>1.97</course>
  <speed>3.12</speed>
  <fix>3d</fix>
</trkpt>
<trkpt lat="40.0712696" lon="-105.2294372">
  <ele>1583.15</ele>
  <time>2026-08-28T17:56:31Z</time>
  <course>356.42</course>
  <speed>3.4866172717979818</speed>
  <fix>3d</fix>
</trkpt>
<trkpt lat="40.0712633" lon="-105.2294365">
  <ele>1583.0</ele>
  <time>2026-08-28T17:56:31Z</time>
  <course>358.14</course>
  <speed>3.29</speed>
  <fix>3d</fix>
</trkpt>
<trkpt lat="40.0712735" lon="-105.2294378">
  <ele>1583.15</ele>
  <time>2026-08-28T17:56:31Z</time>
  <course>354.44</course>
  <speed>3.600805465447974</speed>
  <fix>3d</fix>
</trkpt>
<trkpt lat="40.0712694" lon="-105.2294369">
  <ele>1583.0</ele>
  <time>2026-08-28T17:56:31Z</time>
  <course>354.6</course>
  <speed>3.47</speed>
  <fix>3d</fix>
</trkpt>
<trkpt lat="40.0712767" lon="-105.2294384">
  <ele>1583.15</ele>
  <time>2026-08-28T17:56:31Z</time>
  <course>352.97</course>
  <speed>3.704119328531412</speed>
  <fix>3d</fix>
</trkpt>
<trkpt lat="40.0712694" lon="-105.2294369">
  <ele>1583.0</ele>
  <time>2026-08-28T17:56:31Z</time>
  <course>354.6</course>
  <speed>3.47</speed>
  <fix>3d</fix>
</trkpt>
<trkpt lat="40.0712801" lon="-105.2294391">
  <ele>1583.15</ele>
  <time>2026-08-28T17:56:31Z</time>
  <course>351.72</course>
  <speed>3.7995394457749745</speed>
  <fix>3d</fix>
</trkpt>
<trkpt lat="40.0712757" lon="-105.229438">
  <ele>1583.0</ele>
  <time>2026-08-28T17:56:31Z</time>
  <course>351.54</course>
  <speed>3.67</speed>
  <fix>3d</fix>
</trkpt>
<trkpt lat="40.0712835" lon="-105.2294399">
  <ele>1583.14</ele>
  <time>2026-08-28T17:56:31Z</time>
  <course>350.63</course>
  <speed>3.902742625385384</speed>
  <fix>3d</fix>
</trkpt>
<trkpt lat="40.0712757" lon="-105.229438">
  <ele>1583.0</ele>
  <time>2026-08-28T17:56:31Z</time>
  <course>351.54</course>
  <speed>3.67</speed>
  <fix>3d</fix>
</trkpt>
<trkpt lat="40.071287" lon="-105.2294408">
  <ele>1583.14</ele>
  <time>2026-08-28T17:56:31Z</time>
  <course>349.7</course>
  <speed>4.008989897717379</speed>
  <fix>3d</fix>
</trkpt>
<trkpt lat="40.0712757" lon="-105.229438">
  <ele>1583.0</ele>
  <time>2026-08-28T17:56:31Z</time>
  <course>351.54</course>
  <speed>3.67</speed>
  <fix>3d</fix>
</trkpt>
<trkpt lat="40.0712906" lon="-105.2294418">
  <ele>1583.14</ele>
  <time>2026-08-28T17:56:31Z</time>
  <course>348.94</course>
  <speed>4.111958170993474</speed>
  <fix>3d</fix>
</trkpt>
<trkpt lat="40.0712824" lon="-105.2294395">
  <ele>1583.0</ele>
  <time>2026-08-28T17:56:31Z</time>
  <course>349.17</course>
  <speed>3.87</speed>
  <fix>3d</fix>
</trkpt>
<trkpt lat="40.0712942" lon="-105.2294429">
  <ele>1583.14</ele>
  <time>2026-08-28T17:56:31Z</time>
  <course>348.33</course>
  <speed>4.222913686070318</speed>
  <fix>3d</fix>
</trkpt>
<trkpt lat="40.0712824" lon="-105.2294395">
  <ele>1583.0</ele>
  <time>2026-08-28T17:56:31Z</time>
  <course>349.17</course>
  <speed>3.87</speed>
  <fix>3d</fix>
</trkpt>
<trkpt lat="40.0712979" lon="-105.2294441">
  <ele>1583.14</ele>
  <time>2026-08-28T17:56:31Z</time>
  <course>347.86</course>
  <speed>4.314742170744388</speed>
  <fix>3d</fix>
</trkpt>
<trkpt lat="40.0712894" lon="-105.2294414">
  <ele>1583.0</ele>
  <time>2026-08-28T17:56:31Z</time>
  <course>347.48</course>
  <speed>4.08</speed>
  <fix>3d</fix>
</trkpt>
<trkpt lat="40.0713017" lon="-105.2294453">
  <ele>1583.14</ele>
  <time>2026-08-28T17:56:31Z</time>
  <course>347.52</course>
  <speed>4.411723019410897</speed>
  <fix>3d</fix>
</trkpt>
<trkpt lat="40.0712894" lon="-105.2294414">
  <ele>1583.0</ele>
  <time>2026-08-28T17:56:31Z</time>
  <course>347.48</course>
  <speed>4.08</speed>
  <fix>3d</fix>
</trkpt>
<trkpt lat="40.0713055" lon="-105.2294466">
  <ele>1583.14</ele>
  <time>2026-08-28T17:56:31Z</time>
  <course>347.33</course>
  <speed>4.499077683259092</speed>
  <fix>3d</fix>
</trkpt>
<trkpt lat="40.0712967" lon="-105.2294436">
  <ele>1583.0</ele>
  <time>2026-08-28T17:56:31Z</time>
  <course>346.4</course>
  <speed>4.29</speed>
  <fix>3d</fix>
</trkpt>
<trkpt lat="40.0713095" lon="-105.2294479">
  <ele>1583.14</ele>
  <time>2026-08-28T17:56:31Z</time>
  <course>347.25</course>
  <speed>4.581539042723525</speed>
  <fix>3d</fix>
</trkpt>
<trkpt lat="40.0712967" lon="-105.2294436">
  <ele>1583.0</ele>
  <time>2026-08-28T17:56:31Z</time>
  <course>346.4</course>
  <speed>4.29</speed>
  <fix>3d</fix>
</trkpt>
<trkpt lat="40.0713135" lon="-105.2294492">
  <ele>1583.14</ele>
  <time>2026-08-28T17:56:31Z</time>
  <course>347.18</course>
  <speed>4.654309830683815</speed>
  <fix>3d</fix>
</trkpt>
<trkpt lat="40.0713044" lon="-105.2294461">
  <ele>1583.0</ele>
  <time>2026-08-28T17:56:31Z</time>
  <course>345.86</course>
  <speed>4.47</speed>
  <fix>3d</fix>
</trkpt>
<trkpt lat="40.0713167" lon="-105.2294503">
  <ele>1583.14</ele>
  <time>2026-08-28T17:56:31Z</time>
  <course>347.14</course>
  <speed>4.707706447942565</speed>
  <fix>3d</fix>
</trkpt>
<trkpt lat="40.0713044" lon="-105.2294461">
  <ele>1583.0</ele>
  <time>2026-08-28T17:56:31Z</time>
  <course>345.86</course>
  <speed>4.47</speed>
  <fix>3d</fix>
</trkpt>
<trkpt lat="40.0713209" lon="-105.2294516">
  <ele>1583.14</ele>
  <time>2026-08-28T17:56:31Z</time>
  <course>347.09</course>
  <speed>4.7683120703242565</speed>
  <fix>3d</fix>
</trkpt>
<trkpt lat="40.0713123" lon="-105.2294487">
  <ele>1583.0</ele>
  <time>2026-08-28T17:56:31Z</time>
  <course>345.66</course>
  <speed>4.64</speed>
  <fix>3d</fix>
</trkpt>
<trkpt lat="40.071325" lon="-105.229453">
  <ele>1583.14</ele>
  <time>2026-08-28T17:56:31Z</time>
  <course>347.06</course>
  <speed>4.8120266000927305</speed>
  <fix>3d</fix>
</trkpt>
<trkpt lat="40.0713123" lon="-105.2294487">
  <ele>1583.0</ele>
  <time>2026-08-28T17:56:31Z</time>
  <course>345.66</course>
  <speed>4.64</speed>
  <fix>3d</fix>
</trkpt>
<trkpt lat="40.0713293" lon="-105.2294544">
  <ele>1583.14</ele>
  <time>2026-08-28T17:56:31Z</time>
  <course>347.05</course>
  <speed>4.841084589221717</speed>
  <fix>3d</fix>
</trkpt>
<trkpt lat="40.0713205" lon="-105.2294515">
  <ele>1583.0</ele>
  <time>2026-08-28T17:56:31Z</time>
  <course>345.56</course>
  <speed>4.76</speed>
  <fix>3d</fix>
</trkpt>
<trkpt lat="40.0713335" lon="-105.2294559">
  <ele>1583.14</ele>
  <time>2026-08-28T17:56:31Z</time>
  <course>347.06</course>
  <speed>4.862941496666395</speed>
  <fix>3d</fix>
</trkpt>
<trkpt lat="40.0713205" lon="-105.2294515">
  <ele>1583.0</ele>
  <time>2026-08-28T17:56:31Z</time>
  <course>345.56</course>
  <speed>4.76</speed>
  <fix>3d</fix>
</trkpt>
<trkpt lat="40.0713378" lon="-105.2294573">
  <ele>1583.14</ele>
  <time>2026-08-28T17:56:31Z</time>
  <course>347.06</course>
  <speed>4.872627627882106</speed>
  <fix>3d</fix>
</trkpt>
<trkpt lat="40.0713289" lon="-105.2294543">
  <ele>1583.0</ele>
  <time>2026-08-28T17:56:31Z</time>
  <course>345.52</course>
  <speed>4.84</speed>
  <fix>3d</fix>
</trkpt>
<trkpt lat="40.071342" lon="-105.2294587">
  <ele>1583.14</ele>
  <time>2026-08-28T17:56:31Z</time>
  <course>347.06</course>
  <speed>4.872627627882106</speed>
  <fix>3d</fix>
</trkpt>
<trkpt lat="40.0713289" lon="-105.2294543">
  <ele>1583.0</ele>
  <time>2026-08-28T17:56:31Z</time>
  <course>345.52</course>
  <speed>4.84</speed>
  <fix>3d</fix>
</trkpt>
<trkpt lat="40.0713463" lon="-105.2294602">
  <ele>1583.14</ele>
  <time>2026-08-28T17:56:31Z</time>
  <course>347.07</course>
  <speed>4.853256638588155</speed>
  <fix>3d</fix>
</trkpt>
<trkpt lat="40.0713373" lon="-105.2294572">
  <ele>1583.0</ele>
  <time>2026-08-28T17:56:31Z</time>
  <course>345.52</course>
  <speed>4.86</speed>
  <fix>3d</fix>
</trkpt>
<trkpt lat="40.0713505" lon="-105.2294616">
  <ele>1583.14</ele>
  <time>2026-08-28T17:56:31Z</time>
  <course>347.07</course>
  <speed>4.821711314460873</speed>
  <fix>3d</fix>
</trkpt>
<trkpt lat="40.0713373" lon="-105.2294572">
  <ele>1583.0</ele>
  <time>2026-08-28T17:56:31Z</time>
  <course>345.52</course>
  <speed>4.86</speed>
  <fix>3d</fix>
</trkpt>
<trkpt lat="40.0713555" lon="-105.2294633">
  <ele>1583.15</ele>
  <time>2026-08-28T17:56:31Z</time>
  <course>347.07</course>
  <speed>4.76111331518165</speed>
  <fix>3d</fix>
</trkpt>
<trkpt lat="40.0713457" lon="-105.22946">
  <ele>1583.0</ele>
  <time>2026-08-28T17:56:31Z</time>
  <course>345.52</course>
  <speed>4.84</speed>
  <fix>3d</fix>
</trkpt>
<trkpt lat="40.0713597" lon="-105.2294647">
  <ele>1583.15</ele>
  <time>2026-08-28T17:56:31Z</time>
  <course>347.08</course>
  <speed>4.69802085989409</speed>
  <fix>3d</fix>
</trkpt>
<trkpt lat="40.0713541" lon="-105.2294628">
  <ele>1583.0</ele>
  <time>2026-08-28T17:56:31Z</time>
  <course>345.52</course>
  <speed>4.75</speed>
  <fix>3d</fix>
</trkpt>
<trkpt lat="40.0713637" lon="-105.229466">
  <ele>1583.15</ele>
  <time>2026-08-28T17:56:31Z</time>
  <course>347.08</course>
  <speed>4.615560637669057</speed>
  <fix>3d</fix>
</trkpt>
<trkpt lat="40.0713541" lon="-105.2294628">
  <ele>1583.0</ele>
  <time>2026-08-28T17:56:31Z</time>
  <course>345.52</course>
  <speed>4.75</speed>
  <fix>3d</fix>
</trkpt>
<trkpt lat="40.0713677" lon="-105.2294674">
  <ele>1583.15</ele>
  <time>2026-08-28T17:56:31Z</time>
  <course>347.08</course>
  <speed>4.523416850125577</speed>
  <fix>3d</fix>
</trkpt>
<trkpt lat="40.0713623" lon="-105.2294656">
  <ele>1583.0</ele>
  <time>2026-08-28T17:56:31Z</time>
  <course>345.52</course>
  <speed>4.62</speed>
  <fix>3d</fix>
</trkpt>
<trkpt lat="40.0713716" lon="-105.2294687">
  <ele>1583.15</ele>
  <time>2026-08-28T17:56:31Z</time>
  <course>347.09</course>
  <speed>4.421594734934445</speed>
  <fix>3d</fix>
</trkpt>
<trkpt lat="40.0713623" lon="-105.2294656">
  <ele>1583.0</ele>
  <time>2026-08-28T17:56:31Z</time>
  <course>345.52</course>
  <speed>4.62</speed>
  <fix>3d</fix>
</trkpt>
<trkpt lat="40.0713754" lon="-105.22947">
  <ele>1583.16</ele>
  <time>2026-08-28T17:56:31Z</time>
  <course>347.09</course>
  <speed>4.31010440708807</speed>
  <fix>3d</fix>
</trkpt>
<trkpt lat="40.0713623" lon="-105.2294656">
  <ele>1583.0</ele>
  <time>2026-08-28T17:56:31Z</time>
  <course>345.52</course>
  <speed>4.62</speed>
  <fix>3d</fix>
</trkpt>
<trkpt lat="40.0713791" lon="-105.2294713">
  <ele>1583.16</ele>
  <time>2026-08-28T17:56:31Z</time>
  <course>347.1</course>
  <speed>4.186418517062048</speed>
  <fix>3d</fix>
</trkpt>
<trkpt lat="40.0713702" lon="-105.2294683">
  <ele>1583.0</ele>
  <time>2026-08-28T17:56:31Z</time>
  <course>345.52</course>
  <speed>4.43</speed>
  <fix>3d</fix>
</trkpt>
<trkpt lat="40.0713826" lon="-105.2294725">
  <ele>1583.16</ele>
  <time>2026-08-28T17:56:31Z</time>
  <course>347.13</course>
  <speed>4.050530829409893</speed>
  <fix>3d</fix>
</trkpt>
<trkpt lat="40.0713702" lon="-105.2294683">
  <ele>1583.0</ele>
  <time>2026-08-28T17:56:31Z</time>
  <course>345.52</course>
  <speed>4.43</speed>
  <fix>3d</fix>
</trkpt>
<trkpt lat="40.0713861" lon="-105.2294736">
  <ele>1583.17</ele>
  <time>2026-08-28T17:56:31Z</time>
  <course>347.19</course>
  <speed>3.9171673438851196</speed>
  <fix>3d</fix>
</trkpt>
<trkpt lat="40.0713777" lon="-105.2294708">
  <ele>1583.0</ele>
  <time>2026-08-28T17:56:31Z</time>
  <course>345.53</course>
  <speed>4.2</speed>
  <fix>3d</fix>
</trkpt>
<trkpt lat="40.0713894" lon="-105.2294748">
  <ele>1583.17</ele>
  <time>2026-08-28T17:56:31Z</time>
  <course>347.24</course>
  <speed>3.7716044331292222</speed>
  <fix>3d</fix>
</trkpt>
<trkpt lat="40.0713777" lon="-105.2294708">
  <ele>1583.0</ele>
  <time>2026-08-28T17:56:31Z</time>
  <course>345.53</course>
  <speed>4.2</speed>
  <fix>3d</fix>
</trkpt>
<trkpt lat="40.0713925" lon="-105.2294759">
  <ele>1583.17</ele>
  <time>2026-08-28T17:56:31Z</time>
  <course>347.3</course>
  <speed>3.628567210346255</speed>
  <fix>3d</fix>
</trkpt>
<trkpt lat="40.0713848" lon="-105.2294732">
  <ele>1583.0</ele>
  <time>2026-08-28T17:56:31Z</time>
  <course>345.6</course>
  <speed>3.94</speed>
  <fix>3d</fix>
</trkpt>
<trkpt lat="40.071395" lon="-105.2294767">
  <ele>1583.17</ele>
  <time>2026-08-28T17:56:31Z</time>
  <course>347.34</course>
  <speed>3.5048823090083925</speed>
  <fix>3d</fix>
</trkpt>
<trkpt lat="40.0713848" lon="-105.2294732">
  <ele>1583.0</ele>
  <time>2026-08-28T17:56:31Z</time>
  <course>345.6</course>
  <speed>3.94</speed>
  <fix>3d</fix>
</trkpt>
<trkpt lat="40.071398" lon="-105.2294777">
  <ele>1583.17</ele>
  <time>2026-08-28T17:56:31Z</time>
  <course>347.39</course>
  <speed>3.359315406448165</speed>
  <fix>3d</fix>
</trkpt>
<trkpt lat="40.0713915" lon="-105.2294754">
  <ele>1583.0</ele>
  <time>2026-08-28T17:56:31Z</time>
  <course>345.7</course>
  <speed>3.67</speed>
  <fix>3d</fix>
</trkpt>
<trkpt lat="40.0714008" lon="-105.2294787">
  <ele>1583.17</ele>
  <time>2026-08-28T17:56:31Z</time>
  <course>347.44</course>
  <speed>3.2162866787648143</speed>
  <fix>3d</fix>
</trkpt>
<trkpt lat="40.0713915" lon="-105.2294754">
  <ele>1583.0</ele>
  <time>2026-08-28T17:56:31Z</time>
  <course>345.7</course>
  <speed>3.67</speed>
  <fix>3d</fix>
</trkpt>
<trkpt lat="40.0714036" lon="-105.2294796">
  <ele>1583.17</ele>
  <time>2026-08-28T17:56:31Z</time>
  <course>347.53</course>
  <speed>3.0803895857504777</speed>
  <fix>3d</fix>
</trkpt>
<trkpt lat="40.0713976" lon="-105.2294774">
  <ele>1583.0</ele>
  <time>2026-08-28T17:56:31Z</time>
  <course>345.81</course>
  <speed>3.39</speed>
  <fix>3d</fix>
</trkpt>
<trkpt lat="40.0714062" lon="-105.2294805">
  <ele>1583.17</ele>
  <time>2026-08-28T17:56:31Z</time>
  <course>347.61</course>
  <speed>2.9348253781102547</speed>
  <fix>3d</fix>
</trkpt>
<trkpt lat="40.0713976" lon="-105.2294774">
  <ele>1583.0</ele>
  <time>2026-08-28T17:56:31Z</time>
  <course>345.81</course>
  <speed>3.39</speed>
  <fix>3d</fix>
</trkpt>
<trkpt lat="40.0714087" lon="-105.2294813">
  <ele>1583.17</ele>
  <time>2026-08-28T17:56:31Z</time>
  <course>347.68</course>
  <speed>2.7989462302802464</speed>
  <fix>3d</fix>
</trkpt>
<trkpt lat="40.0714033" lon="-105.2294793">
  <ele>1583.0</ele>
  <time>2026-08-28T17:56:31Z</time>
  <course>345.94</course>
  <speed>3.11</speed>
  <fix>3d</fix>
</trkpt>
<trkpt lat="40.0714111" lon="-105.2294821">
  <ele>1583.17</ele>
  <time>2026-08-28T17:56:31Z</time>
  <course>347.76</course>
  <speed>2.6558990944687637</speed>
  <fix>3d</fix>
</trkpt>
<trkpt lat="40.0714033" lon="-105.2294793">
  <ele>1583.0</ele>
  <time>2026-08-28T17:56:31Z</time>
  <course>345.94</course>
  <speed>3.11</speed>
  <fix>3d</fix>
</trkpt>
<trkpt lat="40.0714134" lon="-105.2294828">
  <ele>1583.17</ele>
  <time>2026-08-28T17:56:31Z</time>
  <course>347.83</course>
  <speed>2.5322124713380587</speed>
  <fix>3d</fix>
</trkpt>
<trkpt lat="40.0714084" lon="-105.2294809">
  <ele>1583.0</ele>
  <time>2026-08-28T17:56:31Z</time>
  <course>346.1</course>
  <speed>2.84</speed>
  <fix>3d</fix>
</trkpt>
<trkpt lat="40.0714155" lon="-105.2294835">
  <ele>1583.17</ele>
  <time>2026-08-28T17:56:31Z</time>
  <course>347.93</course>
  <speed>2.3963305281200253</speed>
  <fix>3d</fix>
</trkpt>
<trkpt lat="40.0714084" lon="-105.2294809">
  <ele>1583.0</ele>
  <time>2026-08-28T17:56:31Z</time>
  <course>346.1</course>
  <speed>2.84</speed>
  <fix>3d</fix>
</trkpt>
<trkpt lat="40.0714176" lon="-105.2294842">
  <ele>1583.17</ele>
  <time>2026-08-28T17:56:31Z</time>
  <course>348.02</course>
  <speed>2.2726416347501863</speed>
  <fix>3d</fix>
</trkpt>
<trkpt lat="40.0714131" lon="-105.2294825">
  <ele>1583.0</ele>
  <time>2026-08-28T17:56:31Z</time>
  <course>346.27</course>
  <speed>2.58</speed>
  <fix>3d</fix>
</trkpt>
<trkpt lat="40.0714199" lon="-105.2294849">
  <ele>1583.18</ele>
  <time>2026-08-28T17:56:31Z</time>
  <course>348.12</course>
  <speed>2.127087210247854</speed>
  <fix>3d</fix>
</trkpt>
<trkpt lat="40.0714174" lon="-105.2294838">
  <ele>1583.0</ele>
  <time>2026-08-28T17:56:31Z</time>
  <course>346.46</course>
  <speed>2.33</speed>
  <fix>3d</fix>
</trkpt>
<trkpt lat="40.0714217" lon="-105.2294855">
  <ele>1583.18</ele>
  <time>2026-08-28T17:56:31Z</time>
  <course>348.22</course>
  <speed>2.0130822139197395</speed>
  <fix>3d</fix>
</trkpt>
<trkpt lat="40.0714174" lon="-105.2294838">
  <ele>1583.0</ele>
  <time>2026-08-28T17:56:31Z</time>
  <course>346.46</course>
  <speed>2.33</speed>
  <fix>3d</fix>
</trkpt>
<trkpt lat="40.0714234" lon="-105.229486">
  <ele>1583.18</ele>
  <time>2026-08-28T17:56:31Z</time>
  <course>348.32</course>
  <speed>1.8990787240133042</speed>
  <fix>3d</fix>
</trkpt>
<trkpt lat="40.0714213" lon="-105.2294851">
  <ele>1583.0</ele>
  <time>2026-08-28T17:56:31Z</time>
  <course>346.66</course>
  <speed>2.1</speed>
  <fix>3d</fix>
</trkpt>
<trkpt lat="40.0714251" lon="-105.2294865">
  <ele>1583.18</ele>
  <time>2026-08-28T17:56:31Z</time>
  <course>348.41</course>
  <speed>1.7850770291502829</speed>
  <fix>3d</fix>
</trkpt>
<trkpt lat="40.0714213" lon="-105.2294851">
  <ele>1583.0</ele>
  <time>2026-08-28T17:56:31Z</time>
  <course>346.66</course>
  <speed>2.1</speed>
  <fix>3d</fix>
</trkpt>
<trkpt lat="40.0714266" lon="-105.229487">
  <ele>1583.18</ele>
  <time>2026-08-28T17:56:31Z</time>
  <course>348.51</course>
  <speed>1.680773631397161</speed>
  <fix>3d</fix>
</trkpt>
<trkpt lat="40.0714213" lon="-105.2294851">
  <ele>1583.0</ele>
  <time>2026-08-28T17:56:31Z</time>
  <course>346.66</course>
  <speed>2.1</speed>
  <fix>3d</fix>
</trkpt>
<trkpt lat="40.0714281" lon="-105.2294874">
  <ele>1583.18</ele>
  <time>2026-08-28T17:56:31Z</time>
  <course>348.62</course>
  <speed>1.566780137734711</speed>
  <fix>3d</fix>
</trkpt>
<trkpt lat="40.0714248" lon="-105.2294862">
  <ele>1583.0</ele>
  <time>2026-08-28T17:56:31Z</time>
  <course>346.87</course>
  <speed>1.87</speed>
  <fix>3d</fix>
</trkpt>
<trkpt lat="40.0714294" lon="-105.2294878">
  <ele>1583.18</ele>
  <time>2026-08-28T17:56:31Z</time>
  <course>348.73</course>
  <speed>1.4624978632463024</speed>
  <fix>3d</fix>
</trkpt>
<trkpt lat="40.0714248" lon="-105.2294862">
  <ele>1583.0</ele>
  <time>2026-08-28T17:56:31Z</time>
  <course>346.87</course>
  <speed>1.87</speed>
  <fix>3d</fix>
</trkpt>
<trkpt lat="40.0714307" lon="-105.2294882">
  <ele>1583.18</ele>
  <time>2026-08-28T17:56:31Z</time>
  <course>348.84</course>
  <speed>1.3582341477079718</speed>
  <fix>3d</fix>
</trkpt>
<trkpt lat="40.0714279" lon="-105.2294871">
  <ele>1583.0</ele>
  <time>2026-08-28T17:56:31Z</time>
  <course>347.1</course>
  <speed>1.66</speed>
  <fix>3d</fix>
</trkpt>
<trkpt lat="40.0714319" lon="-105.2294885">
  <ele>1583.17</ele>
  <time>2026-08-28T17:56:31Z</time>
  <course>348.97</course>
  <speed>1.2660568707605515</speed>
  <fix>3d</fix>
</trkpt>
<trkpt lat="40.0714279" lon="-105.2294871">
  <ele>1583.0</ele>
  <time>2026-08-28T17:56:31Z</time>
  <course>347.1</course>
  <speed>1.66</speed>
  <fix>3d</fix>
</trkpt>
<trkpt lat="40.071433" lon="-105.2294889">
  <ele>1583.17</ele>
  <time>2026-08-28T17:56:31Z</time>
  <course>349.11</course>
  <speed>1.161808934377766</speed>
  <fix>3d</fix>
</trkpt>
<trkpt lat="40.0714307" lon="-105.2294879">
  <ele>1583.0</ele>
  <time>2026-08-28T17:56:31Z</time>
  <course>347.34</course>
  <speed>1.46</speed>
  <fix>3d</fix>
</trkpt>
<trkpt lat="40.071434" lon="-105.2294891">
  <ele>1583.16</ele>
  <time>2026-08-28T17:56:31Z</time>
  <course>349.25</course>
  <speed>1.0696261028976435</speed>
  <fix>3d</fix>
</trkpt>
<trkpt lat="40.0714307" lon="-105.2294879">
  <ele>1583.0</ele>
  <time>2026-08-28T17:56:31Z</time>
  <course>347.34</course>
  <speed>1.46</speed>
  <fix>3d</fix>
</trkpt>
<trkpt lat="40.0714348" lon="-105.2294893">
  <ele>1583.16</ele>
  <time>2026-08-28T17:56:31Z</time>
  <course>349.38</course>
  <speed>0.9871676655968833</speed>
  <fix>3d</fix>
</trkpt>
<trkpt lat="40.0714331" lon="-105.2294886">
  <ele>1583.0</ele>
  <time>2026-08-28T17:56:31Z</time>
  <course>347.62</course>
  <speed>1.26</speed>
  <fix>3d</fix>
</trkpt>
<trkpt lat="40.0714356" lon="-105.2294896">
  <ele>1583.16</ele>
  <time>2026-08-28T17:56:31Z</time>
  <course>349.55</course>
  <speed>0.8926925562588724</speed>
  <fix>3d</fix>
</trkpt>
<trkpt lat="40.0714331" lon="-105.2294886">
  <ele>1583.0</ele>
  <time>2026-08-28T17:56:31Z</time>
  <course>347.62</course>
  <speed>1.26</speed>
  <fix>3d</fix>
</trkpt>
<trkpt lat="40.0714364" lon="-105.2294898">
  <ele>1583.16</ele>
  <time>2026-08-28T17:56:31Z</time>
  <course>349.72</course>
  <speed>0.8004998438475801</speed>
  <fix>3d</fix>
</trkpt>
<trkpt lat="40.0714351" lon="-105.2294891">
  <ele>1583.0</ele>
  <time>2026-08-28T17:56:31Z</time>
  <course>347.94</course>
  <speed>1.07</speed>
  <fix>3d</fix>
</trkpt>
<trkpt lat="40.0714371" lon="-105.2294899">
  <ele>1583.15</ele>
  <time>2026-08-28T17:56:31Z</time>
  <course>349.88</course>
  <speed>0.7061161377563892</speed>
  <fix>3d</fix>
</trkpt>
<trkpt lat="40.0714351" lon="-105.2294891">
  <ele>1583.0</ele>
  <time>2026-08-28T17:56:31Z</time>
  <course>347.94</course>
  <speed>1.07</speed>
  <fix>3d</fix>
</trkpt>
<trkpt lat="40.0714378" lon="-105.2294901">
  <ele>1583.15</ele>
  <time>2026-08-28T17:56:31Z</time>
  <course>350.02</course>
  <speed>0.6139218191268331</speed>
  <fix>3d</fix>
</trkpt>
<trkpt lat="40.0714368" lon="-105.2294896">
  <ele>1583.0</ele>
  <time>2026-08-28T17:56:31Z</time>
  <course>348.29</course>
  <speed>0.88</speed>
  <fix>3d</fix>
</trkpt>
<trkpt lat="40.0714383" lon="-105.2294902">
  <ele>1583.15</ele>
  <time>2026-08-28T17:56:31Z</time>
  <course>350.15</course>
  <speed>0.5217278984298233</speed>
  <fix>3d</fix>
</trkpt>
<trkpt lat="40.0714368" lon="-105.2294896">
  <ele>1583.0</ele>
  <time>2026-08-28T17:56:31Z</time>
  <course>348.29</course>
  <speed>0.88</speed>
  <fix>3d</fix>
</trkpt>
<trkpt lat="40.0714388" lon="-105.2294903">
  <ele>1583.14</ele>
  <time>2026-08-28T17:56:31Z</time>
  <course>350.28</course>
  <speed>0.4295346318982906</speed>
  <fix>3d</fix>
</trkpt>
<trkpt lat="40.0714382" lon="-105.22949">
  <ele>1583.0</ele>
  <time>2026-08-28T17:56:31Z</time>
  <course>348.6</course>
  <speed>0.69</speed>
  <fix>3d</fix>
</trkpt>
<trkpt lat="40.0714392" lon="-105.2294904">
  <ele>1583.14</ele>
  <time>2026-08-28T17:56:31Z</time>
  <course>350.39</course>
  <speed>0.33734255586865997</speed>
  <fix>3d</fix>
</trkpt>
<trkpt lat="40.0714382" lon="-105.22949">
  <ele>1583.0</ele>
  <time>2026-08-28T17:56:31Z</time>
  <course>348.6</course>
  <speed>0.69</speed>
  <fix>3d</fix>
</trkpt>
<trkpt lat="40.0714395" lon="-105.2294905">
  <ele>1583.14</ele>
  <time>2026-08-28T17:56:31Z</time>
  <course>350.48</course>
  <speed>0.24515301344262524</speed>
  <fix>3d</fix>
</trkpt>
<trkpt lat="40.0714393" lon="-105.2294903">
  <ele>1583.0</ele>
  <time>2026-08-28T17:56:31Z</time>
  <course>348.86</course>
  <speed>0.51</speed>
  <fix>3d</fix>
</trkpt>
<trkpt lat="40.0714398" lon="-105.2294905">
  <ele>1583.14</ele>
  <time>2026-08-28T17:56:31Z</time>
  <course>350.55</course>
  <speed>0.15297058540778355</speed>
  <fix>3d</fix>
</trkpt>
<trkpt lat="40.0714393" lon="-105.2294903">
  <ele>1583.0</ele>
  <time>2026-08-28T17:56:31Z</time>
  <course>348.86</course>
  <speed>0.51</speed>
  <fix>3d</fix>
</trkpt>
<trkpt lat="40.0714399" lon="-105.2294905">
  <ele>1583.14</ele>
  <time>2026-08-28T17:56:31Z</time>
  <course>350.6</course>
  <speed>0.05099019513592785</speed>
  <fix>3d</fix>
</trkpt>
<trkpt lat="40.07144" lon="-105.2294905">
  <ele>1583.0</ele>
  <time>2026-08-28T17:56:31Z</time>
  <course>349.06</course>
  <speed>0.32</speed>
  <fix>3d</fix>
</trkpt>
<trkpt lat="40.07144" lon="-105.2294905">
  <ele>1583.14</ele>
  <time>2026-08-28T17:56:31Z</time>
  <course>350.61</course>
  <speed>0.02</speed>
  <fix>3d</fix>
</trkpt>
<trkpt lat="40.0714404" lon="-105.2294905">
  <ele>1583.0</ele>
  <time>2026-08-28T17:56:31Z</time>
  <course>349.18</course>
  <speed>0.15</speed>
  <fix>3d</fix>
</trkpt>
<trkpt lat="40.07144" lon="-105.2294905">
  <ele>1583.14</ele>
  <time>2026-08-28T17:56:31Z</time>
  <course>350.6</course>
  <speed>0.09219544457292887</speed>
  <fix>3d</fix>
</trkpt>
<trkpt lat="40.0714404" lon="-105.2294905">
  <ele>1583.0</ele>
  <time>2026-08-28T17:56:31Z</time>
  <course>349.18</course>
  <speed>0.15</speed>
  <fix>3d</fix>
</trkpt>
<trkpt lat="40.0714399" lon="-105.2294905">
  <ele>1583.13</ele>
  <time>2026-08-28T17:56:31Z</time>
  <course>350.6</course>
  <speed>0.16278820596099705</speed>
  <fix>3d</fix>
</trkpt>
<trkpt lat="40.0714405" lon="-105.2294905">
  <ele>1583.0</ele>
  <time>2026-08-28T17:56:31Z</time>
  <course>344.24</course>
  <speed>0.0</speed>
  <fix>3d</fix>
</trkpt>
<trkpt lat="40.0714398" lon="-105.2294904">
  <ele>1583.13</ele>
  <time>2026-08-28T17:56:31Z</time>
  <course>350.6</course>
  <speed>0.21377558326431947</speed>
  <fix>3d</fix>
</trkpt>
<trkpt lat="40.0714405" lon="-105.2294905">
  <ele>1583.0</ele>
  <time>2026-08-28T17:56:31Z</time>
  <course>344.24</course>
  <speed>0.0</speed>
  <fix>3d</fix>
</trkpt>
<trkpt lat="40.0714397" lon="-105.2294904">
  <ele>1583.13</ele>
  <time>2026-08-28T17:56:31Z</time>
  <course>350.61</course>
  <speed>0.26476404589747454</speed>
  <fix>3d</fix>
</trkpt>
<trkpt lat="40.0714405" lon="-105.2294905">
  <ele>1583.0</ele>
  <time>2026-08-28T17:56:31Z</time>
  <course>344.24</course>
  <speed>0.0</speed>
  <fix>3d</fix>
</trkpt>
<trkpt lat="40.0714395" lon="-105.2294903">
  <ele>1583.12</ele>
  <time>2026-08-28T17:56:31Z</time>
  <course>350.61</course>
  <speed>0.3059411708155671</speed>
  <fix>3d</fix>
</trkpt>
<trkpt lat="40.0714405" lon="-105.2294905">
  <ele>1583.0</ele>
  <time>2026-08-28T17:56:31Z</time>
  <course>169.23</course>
  <speed>0.12</speed>
  <fix>3d</fix>
</trkpt>
<trkpt lat="40.0714393" lon="-105.2294903">
  <ele>1583.12</ele>
  <time>2026-08-28T17:56:31Z</time>
  <course>350.59</course>
  <speed>0.327566787083184</speed>
  <fix>3d</fix>
</trkpt>
<trkpt lat="40.0714405" lon="-105.2294905">
  <ele>1583.0</ele>
  <time>2026-08-28T17:56:31Z</time>
  <course>169.23</course>
  <speed>0.12</speed>
  <fix>3d</fix>
</trkpt>
<trkpt lat="40.0714391" lon="-105.2294902">
  <ele>1583.13</ele>
  <time>2026-08-28T17:56:31Z</time>
  <course>350.57</course>
  <speed>0.33955853692699295</speed>
  <fix>3d</fix>
</trkpt>
<trkpt lat="40.0714403" lon="-105.2294905">
  <ele>1583.0</ele>
  <time>2026-08-28T17:56:31Z</time>
  <course>169.23</course>
  <speed>0.21</speed>
  <fix>3d</fix>
</trkpt>
<trkpt lat="40.0714389" lon="-105.2294901">
  <ele>1583.13</ele>
  <time>2026-08-28T17:56:31Z</time>
  <course>350.54</course>
  <speed>0.33955853692699295</speed>
  <fix>3d</fix>
</trkpt>
<trkpt lat="40.0714403" lon="-105.2294905">
  <ele>1583.0</ele>
  <time>2026-08-28T17:56:31Z</time>
  <course>169.23</course>
  <speed>0.21</speed>
  <fix>3d</fix>
</trkpt>
<trkpt lat="40.0714387" lon="-105.2294901">
  <ele>1583.13</ele>
  <time>2026-08-28T17:56:31Z</time>
  <course>350.5</course>
  <speed>0.33955853692699295</speed>
  <fix>3d</fix>
</trkpt>
<trkpt lat="40.0714398" lon="-105.2294905">
  <ele>1583.0</ele>
  <time>2026-08-28T17:56:31Z</time>
  <course>169.2</course>
  <speed>0.25</speed>
  <fix>3d</fix>
</trkpt>
<trkpt lat="40.0714385" lon="-105.22949">
  <ele>1583.13</ele>
  <time>2026-08-28T17:56:31Z</time>
  <course>350.46</course>
  <speed>0.3298484500494128</speed>
  <fix>3d</fix>
</trkpt>
<trkpt lat="40.0714398" lon="-105.2294905">
  <ele>1583.0</ele>
  <time>2026-08-28T17:56:31Z</time>
  <course>169.2</course>
  <speed>0.25</speed>
  <fix>3d</fix>
</trkpt>
<trkpt lat="40.0714383" lon="-105.2294899">
  <ele>1583.13</ele>
  <time>2026-08-28T17:56:31Z</time>
  <course>350.41</course>
  <speed>0.31048349392520047</speed>
  <fix>3d</fix>
</trkpt>
<trkpt lat="40.0714394" lon="-105.2294904">
  <ele>1583.0</ele>
  <time>2026-08-28T17:56:31Z</time>
  <course>169.14</course>
  <speed>0.25</speed>
  <fix>3d</fix>
</trkpt>
<trkpt lat="40.0714381" lon="-105.2294899">
  <ele>1583.13</ele>
  <time>2026-08-28T17:56:31Z</time>
  <course>350.36</course>
  <speed>0.29120439557122074</speed>
  <fix>3d</fix>
</trkpt>
<trkpt lat="40.0714394" lon="-105.2294904">
  <ele>1583.0</ele>
  <time>2026-08-28T17:56:31Z</time>
  <course>169.14</course>
  <speed>0.25</speed>
  <fix>3d</fix>
</trkpt>
<trkpt lat="40.0714379" lon="-105.2294898">
  <ele>1583.13</ele>
  <time>2026-08-28T17:56:31Z</time>
  <course>350.3</course>
  <speed>0.2720294101747089</speed>
  <fix>3d</fix>
</trkpt>
<trkpt lat="40.071439" lon="-105.2294903">
  <ele>1583.0</ele>
  <time>2026-08-28T17:56:31Z</time>
  <course>169.05</course>
  <speed>0.23</speed>
  <fix>3d</fix>
</trkpt>
<trkpt lat="40.0714378" lon="-105.2294898">
  <ele>1583.13</ele>
  <time>2026-08-28T17:56:31Z</time>
  <course>350.25</course>
  <speed>0.2529822128134704</speed>
  <fix>3d</fix>
</trkpt>
<trkpt lat="40.071439" lon="-105.2294903">
  <ele>1583.0</ele>
  <time>2026-08-28T17:56:31Z</time>
  <course>169.05</course>
  <speed>0.23</speed>
  <fix>3d</fix>
</trkpt>
<trkpt lat="40.0714377" lon="-105.2294897">
  <ele>1583.13</ele>
  <time>2026-08-28T17:56:31Z</time>
  <course>350.2</course>
  <speed>0.22472205054244232</speed>
  <fix>3d</fix>
</trkpt>
<trkpt lat="40.0714385" lon="-105.2294902">
  <ele>1583.0</ele>
  <time>2026-08-28T17:56:31Z</time>
  <course>168.94</course>
  <speed>0.19</speed>
  <fix>3d</fix>
</trkpt>
<trkpt lat="40.0714375" lon="-105.2294897">
  <ele>1583.13</ele>
  <time>2026-08-28T17:56:31Z</time>
  <course>350.15</course>
  <speed>0.19313207915827968</speed>
  <fix>3d</fix>
</trkpt>
<trkpt lat="40.0714385" lon="-105.2294902">
  <ele>1583.0</ele>
  <time>2026-08-28T17:56:31Z</time>
  <course>168.94</course>
  <speed>0.19</speed>
  <fix>3d</fix>
</trkpt>
<trkpt lat="40.0714375" lon="-105.2294896">
  <ele>1583.13</ele>
  <time>2026-08-28T17:56:31Z</time>
  <course>350.11</course>
  <speed>0.17464249196572978</speed>
  <fix>3d</fix>
</trkpt>
<trkpt lat="40.0714382" lon="-105.2294901">
  <ele>1583.0</ele>
  <time>2026-08-28T17:56:31Z</time>
  <course>168.84</course>
  <speed>0.15</speed>
  <fix>3d</fix>
</trkpt>
<trkpt lat="40.0714374" lon="-105.2294896">
  <ele>1583.13</ele>
  <time>2026-08-28T17:56:31Z</time>
  <course>350.07</course>
  <speed>0.147648230602334</speed>
  <fix>3d</fix>
</trkpt>
<trkpt lat="40.0714382" lon="-105.2294901">
  <ele>1583.0</ele>
  <time>2026-08-28T17:56:31Z</time>
  <course>168.84</course>
  <speed>0.15</speed>
  <fix>3d</fix>
</trkpt>
<trkpt lat="40.0714373" lon="-105.2294896">
  <ele>1583.13</ele>
  <time>2026-08-28T17:56:31Z</time>
  <course>350.01</course>
  <speed>0.12529964086141668</speed>
  <fix>3d</fix>
</trkpt>
<trkpt lat="40.071438" lon="-105.22949">
  <ele>1583.0</ele>
  <time>2026-08-28T17:56:31Z</time>
  <course>168.75</course>
  <speed>0.11</speed>
  <fix>3d</fix>
</trkpt>
<trkpt lat="40.0714373" lon="-105.2294895">
  <ele>1583.14</ele>
  <time>2026-08-28T17:56:31Z</time>
  <course>349.91</course>
  <speed>0.1</speed>
  <fix>3d</fix>
</trkpt>
<trkpt lat="40.0714379" lon="-105.22949">
  <ele>1583.0</ele>
  <time>2026-08-28T17:56:31Z</time>
  <course>168.66</course>
  <speed>0.06</speed>
  <fix>3d</fix>
</trkpt>
<trkpt lat="40.0714373" lon="-105.2294895">
  <ele>1583.14</ele>
  <time>2026-08-28T17:56:31Z</time>
  <course>349.84</course>
  <speed>0.07810249675906654</speed>
  <fix>3d</fix>
</trkpt>
<trkpt lat="40.0714379" lon="-105.22949">
  <ele>1583.0</ele>
  <time>2026-08-28T17:56:31Z</time>
  <course>168.66</course>
  <speed>0.06</speed>
  <fix>3d</fix>
</trkpt>
<trkpt lat="40.0714373" lon="-105.2294895">
  <ele>1583.14</ele>
  <time>2026-08-28T17:56:31Z</time>
  <course>349.82</course>
  <speed>0.053851648071345036</speed>
  <fix>3d</fix>
</trkpt>
<trkpt lat="40.0714378" lon="-105.22949">
  <ele>1583.0</ele>
  <time>2026-08-28T17:56:31Z</time>
  <course>168.58</course>
  <speed>0.01</speed>
  <fix>3d</fix>
</trkpt>
<trkpt lat="40.0714374" lon="-105.2294895">
  <ele>1583.14</ele>
  <time>2026-08-28T17:56:31Z</time>
  <course>349.88</course>
  <speed>0.05</speed>
  <fix>3d</fix>
</trkpt>
<trkpt lat="40.0714378" lon="-105.22949">
  <ele>1583.0</ele>
  <time>2026-08-28T17:56:31Z</time>
  <course>168.58</course>
  <speed>0.01</speed>
  <fix>3d</fix>
</trkpt>
<trkpt lat="40.0714374" lon="-105.2294895">
  <ele>1583.14</ele>
  <time>2026-08-28T17:56:31Z</time>
  <course>349.82</course>
  <speed>0.05</speed>
  <fix>3d</fix>
</trkpt>
<trkpt lat="40.0714378" lon="-105.22949">
  <ele>1583.0</ele>
  <time>2026-08-28T17:56:31Z</time>
  <course>168.58</course>
  <speed>0.01</speed>
  <fix>3d</fix>
</trkpt>
<trkpt lat="40.0714375" lon="-105.2294895">
  <ele>1583.14</ele>
  <time>2026-08-28T17:56:31Z</time>
  <course>349.51</course>
  <speed>0.07211102550927978</speed>
  <fix>3d</fix>
</trkpt>
<trkpt lat="40.0714378" lon="-105.22949">
  <ele>1583.0</ele>
  <time>2026-08-28T17:56:31Z</time>
  <course>348.45</course>
  <speed>0.03</speed>
  <fix>3d</fix>
</trkpt>
<trkpt lat="40.0714376" lon="-105.2294895">
  <ele>1583.14</ele>
  <time>2026-08-28T17:56:31Z</time>
  <course>349.05</course>
  <speed>0.09486832980505139</speed>
  <fix>3d</fix>
</trkpt>
<trkpt lat="40.0714378" lon="-105.22949">
  <ele>1583.0</ele>
  <time>2026-08-28T17:56:31Z</time>
  <course>348.45</course>
  <speed>0.03</speed>
  <fix>3d</fix>
</trkpt>
<trkpt lat="40.0714377" lon="-105.2294895">
  <ele>1583.15</ele>
  <time>2026-08-28T17:56:31Z</time>
  <course>348.41</course>
  <speed>0.12165525060596438</speed>
  <fix>3d</fix>
</trkpt>
<trkpt lat="40.0714378" lon="-105.22949">
  <ele>1583.0</ele>
  <time>2026-08-28T17:56:31Z</time>
  <course>347.95</course>
  <speed>0.08</speed>
  <fix>3d</fix>
</trkpt>
<trkpt lat="40.0714379" lon="-105.2294896">
  <ele>1583.15</ele>
  <time>2026-08-28T17:56:31Z</time>
  <course>347.57</course>
  <speed>0.16031219541881397</speed>
  <fix>3d</fix>
</trkpt>
<trkpt lat="40.0714378" lon="-105.22949">
  <ele>1583.0</ele>
  <time>2026-08-28T17:56:31Z</time>
  <course>347.95</course>
  <speed>0.08</speed>
  <fix>3d</fix>
</trkpt>
<trkpt lat="40.0714381" lon="-105.2294896">
  <ele>1583.15</ele>
  <time>2026-08-28T17:56:31Z</time>
  <course>346.52</course>
  <speed>0.19</speed>
  <fix>3d</fix>
</trkpt>
<trkpt lat="40.071438" lon="-105.22949">
  <ele>1583.0</ele>
  <time>2026-08-28T17:56:31Z</time>
  <course>346.8</course>
  <speed>0.15</speed>
  <fix>3d</fix>
</trkpt>
<trkpt lat="40.0714383" lon="-105.2294897">
  <ele>1583.15</ele>
  <time>2026-08-28T17:56:31Z</time>
  <course>345.25</course>
  <speed>0.22</speed>
  <fix>3d</fix>
</trkpt>
<trkpt lat="40.071438" lon="-105.22949">
  <ele>1583.0</ele>
  <time>2026-08-28T17:56:31Z</time>
  <course>346.8</course>
  <speed>0.15</speed>
  <fix>3d</fix>
</trkpt>
<trkpt lat="40.0714385" lon="-105.2294897">
  <ele>1583.15</ele>
  <time>2026-08-28T17:56:31Z</time>
  <course>344.05</course>
  <speed>0.24020824298928628</speed>
  <fix>3d</fix>
</trkpt>
<trkpt lat="40.0714384" lon="-105.2294901">
  <ele>1583.0</ele>
  <time>2026-08-28T17:56:31Z</time>
  <course>344.88</course>
  <speed>0.21</speed>
  <fix>3d</fix>
</trkpt>
<trkpt lat="40.0714387" lon="-105.2294898">
  <ele>1583.15</ele>
  <time>2026-08-28T17:56:31Z</time>
  <course>342.38</course>
  <speed>0.27166155414412246</speed>
  <fix>3d</fix>
</trkpt>
<trkpt lat="40.0714384" lon="-105.2294901">
  <ele>1583.0</ele>
  <time>2026-08-28T17:56:31Z</time>
  <course>344.88</course>
  <speed>0.21</speed>
  <fix>3d</fix>
</trkpt>
<trkpt lat="40.071439" lon="-105.2294899">
  <ele>1583.15</ele>
  <time>2026-08-28T17:56:31Z</time>
  <course>340.47</course>
  <speed>0.2942787793912432</speed>
  <fix>3d</fix>
</trkpt>
<trkpt lat="40.0714387" lon="-105.2294903">
  <ele>1583.0</ele>
  <time>2026-08-28T17:56:31Z</time>
  <course>342.11</course>
  <speed>0.27</speed>
  <fix>3d</fix>
</trkpt>
<trkpt lat="40.0714393" lon="-105.22949">
  <ele>1583.14</ele>
  <time>2026-08-28T17:56:31Z</time>
  <course>338.35</course>
  <speed>0.327566787083184</speed>
  <fix>3d</fix>
</trkpt>
<trkpt lat="40.0714387" lon="-105.2294903">
  <ele>1583.0</ele>
  <time>2026-08-28T17:56:31Z</time>
  <course>342.11</course>
  <speed>0.27</speed>
  <fix>3d</fix>
</trkpt>
<trkpt lat="40.0714397" lon="-105.2294902">
  <ele>1583.14</ele>
  <time>2026-08-28T17:56:31Z</time>
  <course>336.03</course>
  <speed>0.34481879299133333</speed>
  <fix>3d</fix>
</trkpt>
<trkpt lat="40.0714392" lon="-105.2294905">
  <ele>1583.0</ele>
  <time>2026-08-28T17:56:31Z</time>
  <course>338.45</course>
  <speed>0.32</speed>
  <fix>3d</fix>
</trkpt>
<trkpt lat="40.07144" lon="-105.2294904">
  <ele>1583.14</ele>
  <time>2026-08-28T17:56:31Z</time>
  <course>333.56</course>
  <speed>0.37</speed>
  <fix>3d</fix>
</trkpt>
<trkpt lat="40.0714392" lon="-105.2294905">
  <ele>1583.0</ele>
  <time>2026-08-28T17:56:31Z</time>
  <course>338.45</course>
  <speed>0.32</speed>
  <fix>3d</fix>
</trkpt>
<trkpt lat="40.0714403" lon="-105.2294907">
  <ele>1583.14</ele>
  <time>2026-08-28T17:56:31Z</time>
  <course>330.95</course>
  <speed>0.39</speed>
  <fix>3d</fix>
</trkpt>
<trkpt lat="40.0714399" lon="-105.2294908">
  <ele>1583.0</ele>
  <time>2026-08-28T17:56:31Z</time>
  <course>334.0</course>
  <speed>0.37</speed>
  <fix>3d</fix>
</trkpt>
<trkpt lat="40.0714407" lon="-105.2294909">
  <ele>1583.14</ele>
  <time>2026-08-28T17:56:31Z</time>
  <course>328.21</course>
  <speed>0.4114608122288197</speed>
  <fix>3d</fix>
</trkpt>
<trkpt lat="40.0714399" lon="-105.2294908">
  <ele>1583.0</ele>
  <time>2026-08-28T17:56:31Z</time>
  <course>334.0</course>
  <speed>0.37</speed>
  <fix>3d</fix>
</trkpt>
<trkpt lat="40.071441" lon="-105.2294913">
  <ele>1583.14</ele>
  <time>2026-08-28T17:56:31Z</time>
  <course>325.36</course>
  <speed>0.425440947723653</speed>
  <fix>3d</fix>
</trkpt>
<trkpt lat="40.0714404" lon="-105.2294912">
  <ele>1583.0</ele>
  <time>2026-08-28T17:56:31Z</time>
  <course>328.91</course>
  <speed>0.42</speed>
  <fix>3d</fix>
</trkpt>
<trkpt lat="40.0714414" lon="-105.2294916">
  <ele>1583.14</ele>
  <time>2026-08-28T17:56:31Z</time>
  <course>322.39</course>
  <speed>0.4410215414239989</speed>
  <fix>3d</fix>
</trkpt>
<trkpt lat="40.0714404" lon="-105.2294912">
  <ele>1583.0</ele>
  <time>2026-08-28T17:56:31Z</time>
  <course>328.91</course>
  <speed>0.42</speed>
  <fix>3d</fix>
</trkpt>
<trkpt lat="40.0714418" lon="-105.2294921">
  <ele>1583.13</ele>
  <time>2026-08-28T17:56:31Z</time>
  <course>318.69</course>
  <speed>0.46400431032480727</speed>
  <fix>3d</fix>
</trkpt>
<trkpt lat="40.0714411" lon="-105.2294919">
  <ele>1583.0</ele>
  <time>2026-08-28T17:56:31Z</time>
  <course>323.3</course>
  <speed>0.45</speed>
  <fix>3d</fix>
</trkpt>
<trkpt lat="40.0714421" lon="-105.2294925">
  <ele>1583.13</ele>
  <time>2026-08-28T17:56:31Z</time>
  <course>315.53</course>
  <speed>0.47507894080878815</speed>
  <fix>3d</fix>
</trkpt>
<trkpt lat="40.0714418" lon="-105.2294925">
  <ele>1583.0</ele>
  <time>2026-08-28T17:56:31Z</time>
  <course>317.25</course>
  <speed>0.49</speed>
  <fix>3d</fix>
</trkpt>
<trkpt lat="40.0714425" lon="-105.2294929">
  <ele>1583.12</ele>
  <time>2026-08-28T17:56:31Z</time>
  <course>312.25</course>
  <speed>0.4949747468305833</speed>
  <fix>3d</fix>
</trkpt>
<trkpt lat="40.0714418" lon="-105.2294925">
  <ele>1583.0</ele>
  <time>2026-08-28T17:56:31Z</time>
  <course>317.25</course>
  <speed>0.49</speed>
  <fix>3d</fix>
</trkpt>
<trkpt lat="40.0714428" lon="-105.2294934">
  <ele>1583.12</ele>
  <time>2026-08-28T17:56:31Z</time>
  <course>308.86</course>
  <speed>0.5099019513592785</speed>
  <fix>3d</fix>
</trkpt>
<trkpt lat="40.0714418" lon="-105.2294925">
  <ele>1583.0</ele>
  <time>2026-08-28T17:56:31Z</time>
  <course>317.25</course>
  <speed>0.49</speed>
  <fix>3d</fix>
</trkpt>
<trkpt lat="40.0714431" lon="-105.229494">
  <ele>1583.12</ele>
  <time>2026-08-28T17:56:31Z</time>
  <course>305.37</course>
  <speed>0.5280151512977634</speed>
  <fix>3d</fix>
</trkpt>
<trkpt lat="40.0714425" lon="-105.2294934">
  <ele>1583.0</ele>
  <time>2026-08-28T17:56:31Z</time>
  <course>310.76</course>
  <speed>0.52</speed>
  <fix>3d</fix>
</trkpt>
<trkpt lat="40.0714434" lon="-105.2294946">
  <ele>1583.12</ele>
  <time>2026-08-28T17:56:31Z</time>
  <course>301.73</course>
  <speed>0.5408326913195984</speed>
  <fix>3d</fix>
</trkpt>
<trkpt lat="40.0714425" lon="-105.2294934">
  <ele>1583.0</ele>
  <time>2026-08-28T17:56:31Z</time>
  <course>310.76</course>
  <speed>0.52</speed>
  <fix>3d</fix>
</trkpt>
<trkpt lat="40.0714436" lon="-105.2294952">
  <ele>1583.12</ele>
  <time>2026-08-28T17:56:31Z</time>
  <course>297.98</course>
  <speed>0.5643580423808985</speed>
  <fix>3d</fix>
</trkpt>
<trkpt lat="40.071443" lon="-105.2294944">
  <ele>1583.0</ele>
  <time>2026-08-28T17:56:31Z</time>
  <course>303.85</course>
  <speed>0.55</speed>
  <fix>3d</fix>
</trkpt>
<trkpt lat="40.0714439" lon="-105.2294958">
  <ele>1583.13</ele>
  <time>2026-08-28T17:56:31Z</time>
  <course>294.08</course>
  <speed>0.5993329625508679</speed>
  <fix>3d</fix>
</trkpt>
<trkpt lat="40.071443" lon="-105.2294944">
  <ele>1583.0</ele>
  <time>2026-08-28T17:56:31Z</time>
  <course>303.85</course>
  <speed>0.55</speed>
  <fix>3d</fix>
</trkpt>
<trkpt lat="40.0714441" lon="-105.2294966">
  <ele>1583.13</ele>
  <time>2026-08-28T17:56:31Z</time>
  <course>290.15</course>
  <speed>0.620322496770833</speed>
  <fix>3d</fix>
</trkpt>
<trkpt lat="40.0714435" lon="-105.2294956">
  <ele>1583.0</ele>
  <time>2026-08-28T17:56:31Z</time>
  <course>296.45</course>
  <speed>0.6</speed>
  <fix>3d</fix>
</trkpt>
<trkpt lat="40.0714443" lon="-105.2294973">
  <ele>1583.13</ele>
  <time>2026-08-28T17:56:31Z</time>
  <course>286.23</course>
  <speed>0.6580273550544841</speed>
  <fix>3d</fix>
</trkpt>
<trkpt lat="40.0714435" lon="-105.2294956">
  <ele>1583.0</ele>
  <time>2026-08-28T17:56:31Z</time>
  <course>296.45</course>
  <speed>0.6</speed>
  <fix>3d</fix>
</trkpt>
<trkpt lat="40.0714444" lon="-105.2294982">
  <ele>1583.14</ele>
  <time>2026-08-28T17:56:31Z</time>
  <course>282.34</course>
  <speed>0.6865857557508748</speed>
  <fix>3d</fix>
</trkpt>
<trkpt lat="40.071444" lon="-105.229497">
  <ele>1583.0</ele>
  <time>2026-08-28T17:56:31Z</time>
  <course>288.67</course>
  <speed>0.65</speed>
  <fix>3d</fix>
</trkpt>
<trkpt lat="40.0714445" lon="-105.2294989">
  <ele>1583.14</ele>
  <time>2026-08-28T17:56:31Z</time>
  <course>279.25</course>
  <speed>0.7200694410957876</speed>
  <fix>3d</fix>
</trkpt>
<trkpt lat="40.071444" lon="-105.229497">
  <ele>1583.0</ele>
  <time>2026-08-28T17:56:31Z</time>
  <course>288.67</course>
  <speed>0.65</speed>
  <fix>3d</fix>
</trkpt>
<trkpt lat="40.0714446" lon="-105.2294998">
  <ele>1583.13</ele>
  <time>2026-08-28T17:56:31Z</time>
  <course>275.52</course>
  <speed>0.7731752712031082</speed>
  <fix>3d</fix>
</trkpt>
<trkpt lat="40.0714442" lon="-105.2294985">
  <ele>1583.0</ele>
  <time>2026-08-28T17:56:31Z</time>
  <course>280.88</course>
  <speed>0.72</speed>
  <fix>3d</fix>
</trkpt>
<trkpt lat="40.0714446" lon="-105.2295008">
  <ele>1583.14</ele>
  <time>2026-08-28T17:56:31Z</time>
  <course>271.95</course>
  <speed>0.8205485969764374</speed>
  <fix>3d</fix>
</trkpt>
<trkpt lat="40.0714442" lon="-105.2294985">
  <ele>1583.0</ele>
  <time>2026-08-28T17:56:31Z</time>
  <course>280.88</course>
  <speed>0.72</speed>
  <fix>3d</fix>
</trkpt>
<trkpt lat="40.0714446" lon="-105.2295019">
  <ele>1583.14</ele>
  <time>2026-08-28T17:56:31Z</time>
  <course>268.56</course>
  <speed>0.8702298546935746</speed>
  <fix>3d</fix>
</trkpt>
<trkpt lat="40.0714444" lon="-105.2295003">
  <ele>1583.0</ele>
  <time>2026-08-28T17:56:31Z</time>
  <course>273.41</course>
  <speed>0.8</speed>
  <fix>3d</fix>
</trkpt>
<trkpt lat="40.0714445" lon="-105.229503">
  <ele>1583.14</ele>
  <time>2026-08-28T17:56:31Z</time>
  <course>265.5</course>
  <speed>0.9326306878931231</speed>
  <fix>3d</fix>
</trkpt>
<trkpt lat="40.0714444" lon="-105.2295003">
  <ele>1583.0</ele>
  <time>2026-08-28T17:56:31Z</time>
  <course>273.41</course>
  <speed>0.8</speed>
  <fix>3d</fix>
</trkpt>
<trkpt lat="40.0714445" lon="-105.2295042">
  <ele>1583.14</ele>
  <time>2026-08-28T17:56:31Z</time>
  <course>262.86</course>
  <speed>0.9972462083156798</speed>
  <fix>3d</fix>
</trkpt>
<trkpt lat="40.0714445" lon="-105.2295023">
  <ele>1583.0</ele>
  <time>2026-08-28T17:56:31Z</time>
  <course>266.67</course>
  <speed>0.91</speed>
  <fix>3d</fix>
</trkpt>
<trkpt lat="40.0714443" lon="-105.2295055">
  <ele>1583.13</ele>
  <time>2026-08-28T17:56:31Z</time>
  <course>260.66</course>
  <speed>1.0636728820459793</speed>
  <fix>3d</fix>
</trkpt>
<trkpt lat="40.0714445" lon="-105.2295023">
  <ele>1583.0</ele>
  <time>2026-08-28T17:56:31Z</time>
  <course>266.67</course>
  <speed>0.91</speed>
  <fix>3d</fix>
</trkpt>
<trkpt lat="40.0714441" lon="-105.2295068">
  <ele>1583.13</ele>
  <time>2026-08-28T17:56:31Z</time>
  <course>258.88</course>
  <speed>1.131591799192624</speed>
  <fix>3d</fix>
</trkpt>
<trkpt lat="40.0714443" lon="-105.2295046">
  <ele>1583.0</ele>
  <time>2026-08-28T17:56:31Z</time>
  <course>261.24</course>
  <speed>1.02</speed>
  <fix>3d</fix>
</trkpt>
<trkpt lat="40.0714439" lon="-105.2295082">
  <ele>1583.14</ele>
  <time>2026-08-28T17:56:31Z</time>
  <course>257.43</course>
  <speed>1.1985407794480754</speed>
  <fix>3d</fix>
</trkpt>
<trkpt lat="40.0714443" lon="-105.2295046">
  <ele>1583.0</ele>
  <time>2026-08-28T17:56:31Z</time>
  <course>261.24</course>
  <speed>1.02</speed>
  <fix>3d</fix>
</trkpt>
<trkpt lat="40.0714435" lon="-105.22951">
  <ele>1583.14</ele>
  <time>2026-08-28T17:56:31Z</time>
  <course>256.04</course>
  <speed>1.2975746606650425</speed>
  <fix>3d</fix>
</trkpt>
<trkpt lat="40.071444" lon="-105.2295071">
  <ele>1583.0</ele>
  <time>2026-08-28T17:56:31Z</time>
  <course>257.42</course>
  <speed>1.16</speed>
  <fix>3d</fix>
</trkpt>
<trkpt lat="40.0714432" lon="-105.2295116">
  <ele>1583.14</ele>
  <time>2026-08-28T17:56:31Z</time>
  <course>255.12</course>
  <speed>1.3778606605894514</speed>
  <fix>3d</fix>
</trkpt>
<trkpt lat="40.0714435" lon="-105.2295099">
  <ele>1583.0</ele>
  <time>2026-08-28T17:56:31Z</time>
  <course>254.88</course>
  <speed>1.31</speed>
  <fix>3d</fix>
</trkpt>
<trkpt lat="40.0714428" lon="-105.2295132">
  <ele>1583.14</ele>
  <time>2026-08-28T17:56:31Z</time>
  <course>254.37</course>
  <speed>1.465639792036229</speed>
  <fix>3d</fix>
</trkpt>
<trkpt lat="40.0714435" lon="-105.2295099">
  <ele>1583.0</ele>
  <time>2026-08-28T17:56:31Z</time>
  <course>254.88</course>
  <speed>1.31</speed>
  <fix>3d</fix>
</trkpt>
<trkpt lat="40.0714424" lon="-105.229515">
  <ele>1583.15</ele>
  <time>2026-08-28T17:56:31Z</time>
  <course>253.76</course>
  <speed>1.5508062419270823</speed>
  <fix>3d</fix>
</trkpt>
<trkpt lat="40.0714428" lon="-105.229513">
  <ele>1583.0</ele>
  <time>2026-08-28T17:56:31Z</time>
  <course>253.2</course>
  <speed>1.47</speed>
  <fix>3d</fix>
</trkpt>
<trkpt lat="40.071442" lon="-105.2295168">
  <ele>1583.15</ele>
  <time>2026-08-28T17:56:31Z</time>
  <course>253.26</course>
  <speed>1.6388410539158458</speed>
  <fix>3d</fix>
</trkpt>
<trkpt lat="40.0714428" lon="-105.229513">
  <ele>1583.0</ele>
  <time>2026-08-28T17:56:31Z</time>
  <course>253.2</course>
  <speed>1.47</speed>
  <fix>3d</fix>
</trkpt>
<trkpt lat="40.0714415" lon="-105.2295188">
  <ele>1583.16</ele>
  <time>2026-08-28T17:56:31Z</time>
  <course>252.87</course>
  <speed>1.7270205557549105</speed>
  <fix>3d</fix>
</trkpt>
<trkpt lat="40.0714428" lon="-105.229513">
  <ele>1583.0</ele>
  <time>2026-08-28T17:56:31Z</time>
  <course>253.2</course>
  <speed>1.47</speed>
  <fix>3d</fix>
</trkpt>
<trkpt lat="40.071441" lon="-105.2295208">
  <ele>1583.16</ele>
  <time>2026-08-28T17:56:31Z</time>
  <course>252.55</course>
  <speed>1.8248561587149823</speed>
  <fix>3d</fix>
</trkpt>
<trkpt lat="40.0714419" lon="-105.2295165">
  <ele>1583.0</ele>
  <time>2026-08-28T17:56:31Z</time>
  <course>252.1</course>
  <speed>1.64</speed>
  <fix>3d</fix>
</trkpt>
<trkpt lat="40.0714405" lon="-105.2295229">
  <ele>1583.16</ele>
  <time>2026-08-28T17:56:31Z</time>
  <course>252.31</course>
  <speed>1.9101832372837952</speed>
  <fix>3d</fix>
</trkpt>
<trkpt lat="40.0714419" lon="-105.2295165">
  <ele>1583.0</ele>
  <time>2026-08-28T17:56:31Z</time>
  <course>252.1</course>
  <speed>1.64</speed>
  <fix>3d</fix>
</trkpt>
<trkpt lat="40.0714399" lon="-105.2295251">
  <ele>1583.16</ele>
  <time>2026-08-28T17:56:31Z</time>
  <course>252.12</course>
  <speed>2.0081085628023203</speed>
  <fix>3d</fix>
</trkpt>
<trkpt lat="40.071441" lon="-105.2295204">
  <ele>1583.0</ele>
  <time>2026-08-28T17:56:31Z</time>
  <course>251.38</course>
  <speed>1.82</speed>
  <fix>3d</fix>
</trkpt>
<trkpt lat="40.0714393" lon="-105.2295274">
  <ele>1583.16</ele>
  <time>2026-08-28T17:56:31Z</time>
  <course>251.98</course>
  <speed>2.115585025471678</speed>
  <fix>3d</fix>
</trkpt>
<trkpt lat="40.071441" lon="-105.2295204">
  <ele>1583.0</ele>
  <time>2026-08-28T17:56:31Z</time>
  <course>251.38</course>
  <speed>1.82</speed>
  <fix>3d</fix>
</trkpt>
<trkpt lat="40.0714387" lon="-105.2295298">
  <ele>1583.16</ele>
  <time>2026-08-28T17:56:31Z</time>
  <course>251.88</course>
  <speed>2.2104524423746374</speed>
  <fix>3d</fix>
</trkpt>
<trkpt lat="40.0714399" lon="-105.2295247">
  <ele>1583.0</ele>
  <time>2026-08-28T17:56:31Z</time>
  <course>250.94</course>
  <speed>2.01</speed>
  <fix>3d</fix>
</trkpt>
<trkpt lat="40.071438" lon="-105.2295324">
  <ele>1583.16</ele>
  <time>2026-08-28T17:56:31Z</time>
  <course>251.81</course>
  <speed>2.3179516819813135</speed>
  <fix>3d</fix>
</trkpt>
<trkpt lat="40.0714386" lon="-105.2295294">
  <ele>1583.0</ele>
  <time>2026-08-28T17:56:31Z</time>
  <course>250.7</course>
  <speed>2.21</speed>
  <fix>3d</fix>
</trkpt>
<trkpt lat="40.0714375" lon="-105.2295345">
  <ele>1583.16</ele>
  <time>2026-08-28T17:56:31Z</time>
  <course>251.77</course>
  <speed>2.390690276886573</speed>
  <fix>3d</fix>
</trkpt>
<trkpt lat="40.0714386" lon="-105.2295294">
  <ele>1583.0</ele>
  <time>2026-08-28T17:56:31Z</time>
  <course>250.7</course>
  <speed>2.21</speed>
  <fix>3d</fix>
</trkpt>
<trkpt lat="40.0714367" lon="-105.2295373">
  <ele>1583.17</ele>
  <time>2026-08-28T17:56:31Z</time>
  <course>251.75</course>
  <speed>2.4981993515330196</speed>
  <fix>3d</fix>
</trkpt>
<trkpt lat="40.0714386" lon="-105.2295294">
  <ele>1583.0</ele>
  <time>2026-08-28T17:56:31Z</time>
  <course>250.7</course>
  <speed>2.21</speed>
  <fix>3d</fix>
</trkpt>
<trkpt lat="40.071436" lon="-105.2295402">
  <ele>1583.17</ele>
  <time>2026-08-28T17:56:31Z</time>
  <course>251.75</course>
  <speed>2.602556435507211</speed>
  <fix>3d</fix>
</trkpt>
<trkpt lat="40.0714372" lon="-105.2295345">
  <ele>1583.0</ele>
  <time>2026-08-28T17:56:31Z</time>
  <course>250.59</course>
  <speed>2.41</speed>
  <fix>3d</fix>
</trkpt>
<trkpt lat="40.0714352" lon="-105.2295432">
  <ele>1583.17</ele>
  <time>2026-08-28T17:56:31Z</time>
  <course>251.74</course>
  <speed>2.710073799733136</speed>
  <fix>3d</fix>
</trkpt>
<trkpt lat="40.0714372" lon="-105.2295345">
  <ele>1583.0</ele>
  <time>2026-08-28T17:56:31Z</time>
  <course>250.59</course>
  <speed>2.41</speed>
  <fix>3d</fix>
</trkpt>
<trkpt lat="40.0714343" lon="-105.2295463">
  <ele>1583.17</ele>
  <time>2026-08-28T17:56:31Z</time>
  <course>251.75</course>
  <speed>2.814427117549857</speed>
  <fix>3d</fix>
</trkpt>
<trkpt lat="40.0714357" lon="-105.2295401">
  <ele>1583.0</ele>
  <time>2026-08-28T17:56:31Z</time>
  <course>250.57</course>
  <speed>2.61</speed>
  <fix>3d</fix>
</trkpt>
<trkpt lat="40.0714335" lon="-105.2295495">
  <ele>1583.17</ele>
  <time>2026-08-28T17:56:31Z</time>
  <course>251.78</course>
  <speed>2.9187839933780646</speed>
  <fix>3d</fix>
</trkpt>
<trkpt lat="40.0714357" lon="-105.2295401">
  <ele>1583.0</ele>
  <time>2026-08-28T17:56:31Z</time>
  <course>250.57</course>
  <speed>2.61</speed>
  <fix>3d</fix>
</trkpt>
<trkpt lat="40.0714326" lon="-105.2295529">
  <ele>1583.17</ele>
  <time>2026-08-28T17:56:31Z</time>
  <course>251.82</course>
  <speed>3.0263013729633736</speed>
  <fix>3d</fix>
</trkpt>
<trkpt lat="40.0714341" lon="-105.2295461">
  <ele>1583.0</ele>
  <time>2026-08-28T17:56:31Z</time>
  <course>250.6</course>
  <speed>2.82</speed>
  <fix>3d</fix>
</trkpt>
<trkpt lat="40.0714317" lon="-105.2295563">
  <ele>1583.17</ele>
  <time>2026-08-28T17:56:31Z</time>
  <course>251.86</course>
  <speed>3.1306548835666956</speed>
  <fix>3d</fix>
</trkpt>
<trkpt lat="40.0714341" lon="-105.2295461">
  <ele>1583.0</ele>
  <time>2026-08-28T17:56:31Z</time>
  <course>250.6</course>
  <speed>2.82</speed>
  <fix>3d</fix>
</trkpt>
<trkpt lat="40.0714307" lon="-105.2295599">
  <ele>1583.17</ele>
  <time>2026-08-28T17:56:31Z</time>
  <course>251.92</course>
  <speed>3.235011591942137</speed>
  <fix>3d</fix>
</trkpt>
<trkpt lat="40.0714323" lon="-105.2295526">
  <ele>1583.0</ele>
  <time>2026-08-28T17:56:31Z</time>
  <course>250.67</course>
  <speed>3.03</speed>
  <fix>3d</fix>
</trkpt>
<trkpt lat="40.0714296" lon="-105.2295644">
  <ele>1583.17</ele>
  <time>2026-08-28T17:56:31Z</time>
  <course>252.01</course>
  <speed>3.3583626963149764</speed>
  <fix>3d</fix>
</trkpt>
<trkpt lat="40.0714305" lon="-105.2295595">
  <ele>1583.0</ele>
  <time>2026-08-28T17:56:31Z</time>
  <course>250.78</course>
  <speed>3.23</speed>
  <fix>3d</fix>
</trkpt>
<trkpt lat="40.0714285" lon="-105.2295682">
  <ele>1583.17</ele>
  <time>2026-08-28T17:56:31Z</time>
  <course>252.09</course>
  <speed>3.462730136756256</speed>
  <fix>3d</fix>
</trkpt>
<trkpt lat="40.0714305" lon="-105.2295595">
  <ele>1583.0</ele>
  <time>2026-08-28T17:56:31Z</time>
  <course>250.78</course>
  <speed>3.23</speed>
  <fix>3d</fix>
</trkpt>
<trkpt lat="40.0714275" lon="-105.2295721">
  <ele>1583.17</ele>
  <time>2026-08-28T17:56:31Z</time>
  <course>252.18</course>
  <speed>3.567099662190559</speed>
  <fix>3d</fix>
</trkpt>
<trkpt lat="40.0714284" lon="-105.2295669">
  <ele>1583.0</ele>
  <time>2026-08-28T17:56:31Z</time>
  <course>250.95</course>
  <speed>3.43</speed>
  <fix>3d</fix>
</trkpt>
<trkpt lat="40.0714265" lon="-105.2295762">
  <ele>1583.17</ele>
  <time>2026-08-28T17:56:31Z</time>
  <course>252.28</course>
  <speed>3.661966684720111</speed>
  <fix>3d</fix>
</trkpt>
<trkpt lat="40.0714284" lon="-105.2295669">
  <ele>1583.0</ele>
  <time>2026-08-28T17:56:31Z</time>
  <course>250.95</course>
  <speed>3.43</speed>
  <fix>3d</fix>
</trkpt>
<trkpt lat="40.0714254" lon="-105.2295803">
  <ele>1583.17</ele>
  <time>2026-08-28T17:56:31Z</time>
  <course>252.37</course>
  <speed>3.763243282064023</speed>
  <fix>3d</fix>
</trkpt>
<trkpt lat="40.0714284" lon="-105.2295669">
  <ele>1583.0</ele>
  <time>2026-08-28T17:56:31Z</time>
  <course>250.95</course>
  <speed>3.43</speed>
  <fix>3d</fix>
</trkpt>
<trkpt lat="40.0714243" lon="-105.2295846">
  <ele>1583.16</ele>
  <time>2026-08-28T17:56:31Z</time>
  <course>252.47</course>
  <speed>3.867622008418093</speed>
  <fix>3d</fix>
</trkpt>
<trkpt lat="40.0714264" lon="-105.2295748">
  <ele>1583.0</ele>
  <time>2026-08-28T17:56:31Z</time>
  <course>251.14</course>
  <speed>3.63</speed>
  <fix>3d</fix>
</trkpt>
<trkpt lat="40.0714231" lon="-105.229589">
  <ele>1583.16</ele>
  <time>2026-08-28T17:56:31Z</time>
  <course>252.57</course>
  <speed>3.959419149319759</speed>
  <fix>3d</fix>
</trkpt>
<trkpt lat="40.0714264" lon="-105.2295748">
  <ele>1583.0</ele>
  <time>2026-08-28T17:56:31Z</time>
  <course>251.14</course>
  <speed>3.63</speed>
  <fix>3d</fix>
</trkpt>
<trkpt lat="40.071422" lon="-105.2295934">
  <ele>1583.16</ele>
  <time>2026-08-28T17:56:31Z</time>
  <course>252.65</course>
  <speed>4.063803636988382</speed>
  <fix>3d</fix>
</trkpt>
<trkpt lat="40.0714242" lon="-105.2295831">
  <ele>1583.0</ele>
  <time>2026-08-28T17:56:31Z</time>
  <course>251.34</course>
  <speed>3.84</speed>
  <fix>3d</fix>
</trkpt>
<trkpt lat="40.0714208" lon="-105.229598">
  <ele>1583.15</ele>
  <time>2026-08-28T17:56:31Z</time>
  <course>252.73</course>
  <speed>4.158665651383867</speed>
  <fix>3d</fix>
</trkpt>
<trkpt lat="40.0714242" lon="-105.2295831">
  <ele>1583.0</ele>
  <time>2026-08-28T17:56:31Z</time>
  <course>251.34</course>
  <speed>3.84</speed>
  <fix>3d</fix>
</trkpt>
<trkpt lat="40.0714197" lon="-105.2296026">
  <ele>1583.15</ele>
  <time>2026-08-28T17:56:31Z</time>
  <course>252.79</course>
  <speed>4.260011737073032</speed>
  <fix>3d</fix>
</trkpt>
<trkpt lat="40.071422" lon="-105.2295919">
  <ele>1583.0</ele>
  <time>2026-08-28T17:56:31Z</time>
  <course>251.52</course>
  <speed>4.04</speed>
  <fix>3d</fix>
</trkpt>
<trkpt lat="40.0714184" lon="-105.2296074">
  <ele>1583.14</ele>
  <time>2026-08-28T17:56:31Z</time>
  <course>252.85</course>
  <speed>4.354870836201689</speed>
  <fix>3d</fix>
</trkpt>
<trkpt lat="40.071422" lon="-105.2295919">
  <ele>1583.0</ele>
  <time>2026-08-28T17:56:31Z</time>
  <course>251.52</course>
  <speed>4.04</speed>
  <fix>3d</fix>
</trkpt>
<trkpt lat="40.0714175" lon="-105.2296113">
  <ele>1583.14</ele>
  <time>2026-08-28T17:56:31Z</time>
  <course>252.89</course>
  <speed>4.427640455140864</speed>
  <fix>3d</fix>
</trkpt>
<trkpt lat="40.0714197" lon="-105.2296011">
  <ele>1583.0</ele>
  <time>2026-08-28T17:56:31Z</time>
  <course>251.67</course>
  <speed>4.23</speed>
  <fix>3d</fix>
</trkpt>
<trkpt lat="40.0714162" lon="-105.2296163">
  <ele>1583.14</ele>
  <time>2026-08-28T17:56:31Z</time>
  <course>252.95</course>
  <speed>4.509944567286831</speed>
  <fix>3d</fix>
</trkpt>
<trkpt lat="40.0714197" lon="-105.2296011">
  <ele>1583.0</ele>
  <time>2026-08-28T17:56:31Z</time>
  <course>251.67</course>
  <speed>4.23</speed>
  <fix>3d</fix>
</trkpt>
<trkpt lat="40.0714149" lon="-105.2296214">
  <ele>1583.14</ele>
  <time>2026-08-28T17:56:31Z</time>
  <course>253.01</course>
  <speed>4.592254348356589</speed>
  <fix>3d</fix>
</trkpt>
<trkpt lat="40.0714172" lon="-105.2296107">
  <ele>1583.0</ele>
  <time>2026-08-28T17:56:31Z</time>
  <course>251.79</course>
  <speed>4.42</speed>
  <fix>3d</fix>
</trkpt>
<trkpt lat="40.0714136" lon="-105.2296265">
  <ele>1583.14</ele>
  <time>2026-08-28T17:56:31Z</time>
  <course>253.07</course>
  <speed>4.665029474719319</speed>
  <fix>3d</fix>
</trkpt>
<trkpt lat="40.0714172" lon="-105.2296107">
  <ele>1583.0</ele>
  <time>2026-08-28T17:56:31Z</time>
  <course>251.79</course>
  <speed>4.42</speed>
  <fix>3d</fix>
</trkpt>
<trkpt lat="40.0714123" lon="-105.2296318">
  <ele>1583.13</ele>
  <time>2026-08-28T17:56:31Z</time>
  <course>253.13</course>
  <speed>4.72826606696366</speed>
  <fix>3d</fix>
</trkpt>
<trkpt lat="40.0714147" lon="-105.2296208">
  <ele>1583.0</ele>
  <time>2026-08-28T17:56:31Z</time>
  <course>251.91</course>
  <speed>4.58</speed>
  <fix>3d</fix>
</trkpt>
<trkpt lat="40.071411" lon="-105.2296371">
  <ele>1583.14</ele>
  <time>2026-08-28T17:56:31Z</time>
  <course>253.19</course>
  <speed>4.778964322946971</speed>
  <fix>3d</fix>
</trkpt>
<trkpt lat="40.0714147" lon="-105.2296208">
  <ele>1583.0</ele>
  <time>2026-08-28T17:56:31Z</time>
  <course>251.91</course>
  <speed>4.58</speed>
  <fix>3d</fix>
</trkpt>
<trkpt lat="40.0714097" lon="-105.2296426">
  <ele>1583.14</ele>
  <time>2026-08-28T17:56:31Z</time>
  <course>253.25</course>
  <speed>4.829668725699517</speed>
  <fix>3d</fix>
</trkpt>
<trkpt lat="40.0714122" lon="-105.2296312">
  <ele>1583.0</ele>
  <time>2026-08-28T17:56:31Z</time>
  <course>252.04</course>
  <speed>4.71</speed>
  <fix>3d</fix>
</trkpt>
<trkpt lat="40.0714083" lon="-105.229648">
  <ele>1583.13</ele>
  <time>2026-08-28T17:56:31Z</time>
  <course>253.32</course>
  <speed>4.8583124642204725</speed>
  <fix>3d</fix>
</trkpt>
<trkpt lat="40.0714122" lon="-105.2296312">
  <ele>1583.0</ele>
  <time>2026-08-28T17:56:31Z</time>
  <course>252.04</course>
  <speed>4.71</speed>
  <fix>3d</fix>
</trkpt>
<trkpt lat="40.071407" lon="-105.2296535">
  <ele>1583.13</ele>
  <time>2026-08-28T17:56:31Z</time>
  <course>253.38</course>
  <speed>4.870831551183022</speed>
  <fix>3d</fix>
</trkpt>
<trkpt lat="40.0714095" lon="-105.2296418">
  <ele>1583.0</ele>
  <time>2026-08-28T17:56:31Z</time>
  <course>252.17</course>
  <speed>4.8</speed>
  <fix>3d</fix>
</trkpt>
<trkpt lat="40.0714057" lon="-105.229659">
  <ele>1583.13</ele>
  <time>2026-08-28T17:56:31Z</time>
  <course>253.44</course>
  <speed>4.877417349376615</speed>
  <fix>3d</fix>
</trkpt>
<trkpt lat="40.0714095" lon="-105.2296418">
  <ele>1583.0</ele>
  <time>2026-08-28T17:56:31Z</time>
  <course>252.17</course>
  <speed>4.8</speed>
  <fix>3d</fix>
</trkpt>
<trkpt lat="40.0714041" lon="-105.2296655">
  <ele>1583.13</ele>
  <time>2026-08-28T17:56:31Z</time>
  <course>253.52</course>
  <speed>4.867864007960781</speed>
  <fix>3d</fix>
</trkpt>
<trkpt lat="40.0714069" lon="-105.2296527">
  <ele>1583.0</ele>
  <time>2026-08-28T17:56:31Z</time>
  <course>252.3</course>
  <speed>4.85</speed>
  <fix>3d</fix>
</trkpt>
<trkpt lat="40.0714027" lon="-105.229671">
  <ele>1583.13</ele>
  <time>2026-08-28T17:56:31Z</time>
  <course>253.59</course>
  <speed>4.855357865286553</speed>
  <fix>3d</fix>
</trkpt>
<trkpt lat="40.0714042" lon="-105.2296635">
  <ele>1583.0</ele>
  <time>2026-08-28T17:56:31Z</time>
  <course>252.43</course>
  <speed>4.84</speed>
  <fix>3d</fix>
</trkpt>
<trkpt lat="40.0714014" lon="-105.2296764">
  <ele>1583.13</ele>
  <time>2026-08-28T17:56:31Z</time>
  <course>253.65</course>
  <speed>4.820809060728292</speed>
  <fix>3d</fix>
</trkpt>
<trkpt lat="40.0714042" lon="-105.2296635">
  <ele>1583.0</ele>
  <time>2026-08-28T17:56:31Z</time>
  <course>252.43</course>
  <speed>4.84</speed>
  <fix>3d</fix>
</trkpt>
<trkpt lat="40.0714001" lon="-105.2296818">
  <ele>1583.13</ele>
  <time>2026-08-28T17:56:31Z</time>
  <course>253.72</course>
  <speed>4.77007337469771</speed>
  <fix>3d</fix>
</trkpt>
<trkpt lat="40.0714016" lon="-105.2296743">
  <ele>1583.0</ele>
  <time>2026-08-28T17:56:31Z</time>
  <course>252.56</course>
  <speed>4.79</speed>
  <fix>3d</fix>
</trkpt>
<trkpt lat="40.0713988" lon="-105.2296871">
  <ele>1583.13</ele>
  <time>2026-08-28T17:56:31Z</time>
  <course>253.78</course>
  <speed>4.716407531161827</speed>
  <fix>3d</fix>
</trkpt>
<trkpt lat="40.0714016" lon="-105.2296743">
  <ele>1583.0</ele>
  <time>2026-08-28T17:56:31Z</time>
  <course>252.56</course>
  <speed>4.79</speed>
  <fix>3d</fix>
</trkpt>
<trkpt lat="40.0713976" lon="-105.2296923">
  <ele>1583.13</ele>
  <time>2026-08-28T17:56:31Z</time>
  <course>253.85</course>
  <speed>4.643619278106248</speed>
  <fix>3d</fix>
</trkpt>
<trkpt lat="40.0714016" lon="-105.2296743">
  <ele>1583.0</ele>
  <time>2026-08-28T17:56:31Z</time>
  <course>252.56</course>
  <speed>4.79</speed>
  <fix>3d</fix>
</trkpt>
<trkpt lat="40.0713964" lon="-105.2296975">
  <ele>1583.13</ele>
  <time>2026-08-28T17:56:31Z</time>
  <course>253.91</course>
  <speed>4.558343997549987</speed>
  <fix>3d</fix>
</trkpt>
<trkpt lat="40.071399" lon="-105.2296849">
  <ele>1583.0</ele>
  <time>2026-08-28T17:56:31Z</time>
  <course>252.69</course>
  <speed>4.69</speed>
  <fix>3d</fix>
</trkpt>
<trkpt lat="40.0713952" lon="-105.2297025">
  <ele>1583.13</ele>
  <time>2026-08-28T17:56:31Z</time>
  <course>253.97</course>
  <speed>4.463507589329271</speed>
  <fix>3d</fix>
</trkpt>
<trkpt lat="40.071399" lon="-105.2296849">
  <ele>1583.0</ele>
  <time>2026-08-28T17:56:31Z</time>
  <course>252.69</course>
  <speed>4.69</speed>
  <fix>3d</fix>
</trkpt>
<trkpt lat="40.071394" lon="-105.2297074">
  <ele>1583.12</ele>
  <time>2026-08-28T17:56:31Z</time>
  <course>254.03</course>
  <speed>4.359105412811211</speed>
  <fix>3d</fix>
</trkpt>
<trkpt lat="40.0713966" lon="-105.2296954">
  <ele>1583.0</ele>
  <time>2026-08-28T17:56:31Z</time>
  <course>252.81</course>
  <speed>4.54</speed>
  <fix>3d</fix>
</trkpt>
<trkpt lat="40.0713929" lon="-105.2297121">
  <ele>1583.12</ele>
  <time>2026-08-28T17:56:31Z</time>
  <course>254.13</course>
  <speed>4.23265873890159</speed>
  <fix>3d</fix>
</trkpt>
<trkpt lat="40.0713966" lon="-105.2296954">
  <ele>1583.0</ele>
  <time>2026-08-28T17:56:31Z</time>
  <course>252.81</course>
  <speed>4.54</speed>
  <fix>3d</fix>
</trkpt>
<trkpt lat="40.0713918" lon="-105.2297167">
  <ele>1583.12</ele>
  <time>2026-08-28T17:56:31Z</time>
  <course>254.2</course>
  <speed>4.106214801980042</speed>
  <fix>3d</fix>
</trkpt>
<trkpt lat="40.0713942" lon="-105.2297054">
  <ele>1583.0</ele>
  <time>2026-08-28T17:56:31Z</time>
  <course>252.95</course>
  <speed>4.35</speed>
  <fix>3d</fix>
</trkpt>
<trkpt lat="40.0713909" lon="-105.2297203">
  <ele>1583.12</ele>
  <time>2026-08-28T17:56:31Z</time>
  <course>254.29</course>
  <speed>3.99892485550804</speed>
  <fix>3d</fix>
</trkpt>
<trkpt lat="40.0713942" lon="-105.2297054">
  <ele>1583.0</ele>
  <time>2026-08-28T17:56:31Z</time>
  <course>252.95</course>
  <speed>4.35</speed>
  <fix>3d</fix>
</trkpt>
<trkpt lat="40.0713899" lon="-105.2297247">
  <ele>1583.12</ele>
  <time>2026-08-28T17:56:31Z</time>
  <course>254.4</course>
  <speed>3.862913408296903</speed>
  <fix>3d</fix>
</trkpt>
<trkpt lat="40.071392" lon="-105.2297149">
  <ele>1583.0</ele>
  <time>2026-08-28T17:56:31Z</time>
  <course>253.11</course>
  <speed>4.11</speed>
  <fix>3d</fix>
</trkpt>
<trkpt lat="40.0713889" lon="-105.2297289">
  <ele>1583.12</ele>
  <time>2026-08-28T17:56:31Z</time>
  <course>254.51</course>
  <speed>3.7269021988777755</speed>
  <fix>3d</fix>
</trkpt>
<trkpt lat="40.071392" lon="-105.2297149">
  <ele>1583.0</ele>
  <time>2026-08-28T17:56:31Z</time>
  <course>253.11</course>
  <speed>4.11</speed>
  <fix>3d</fix>
</trkpt>
<trkpt lat="40.071388" lon="-105.229733">
  <ele>1583.12</ele>
  <time>2026-08-28T17:56:31Z</time>
  <course>254.61</course>
  <speed>3.588035674293108</speed>
  <fix>3d</fix>
</trkpt>
<trkpt lat="40.0713899" lon="-105.2297238">
  <ele>1583.0</ele>
  <time>2026-08-28T17:56:31Z</time>
  <course>253.31</course>
  <speed>3.85</speed>
  <fix>3d</fix>
</trkpt>
<trkpt lat="40.071387" lon="-105.2297369">
  <ele>1583.12</ele>
  <time>2026-08-28T17:56:31Z</time>
  <course>254.71</course>
  <speed>3.4424409944107977</speed>
  <fix>3d</fix>
</trkpt>
<trkpt lat="40.0713899" lon="-105.2297238">
  <ele>1583.0</ele>
  <time>2026-08-28T17:56:31Z</time>
  <course>253.31</course>
  <speed>3.85</speed>
  <fix>3d</fix>
</trkpt>
<trkpt lat="40.0713862" lon="-105.2297407">
  <ele>1583.12</ele>
  <time>2026-08-28T17:56:31Z</time>
  <course>254.8</course>
  <speed>3.306433123473088</speed>
  <fix>3d</fix>
</trkpt>
<trkpt lat="40.071388" lon="-105.2297322">
  <ele>1583.0</ele>
  <time>2026-08-28T17:56:31Z</time>
  <course>253.51</course>
  <speed>3.58</speed>
  <fix>3d</fix>
</trkpt>
<trkpt lat="40.0713854" lon="-105.2297443">
  <ele>1583.12</ele>
  <time>2026-08-28T17:56:31Z</time>
  <course>254.89</course>
  <speed>3.160838496348714</speed>
  <fix>3d</fix>
</trkpt>
<trkpt lat="40.071388" lon="-105.2297322">
  <ele>1583.0</ele>
  <time>2026-08-28T17:56:31Z</time>
  <course>253.51</course>
  <speed>3.58</speed>
  <fix>3d</fix>
</trkpt>
<trkpt lat="40.0713846" lon="-105.2297478">
  <ele>1583.12</ele>
  <time>2026-08-28T17:56:31Z</time>
  <course>254.98</course>
  <speed>3.0124076749337894</speed>
  <fix>3d</fix>
</trkpt>
<trkpt lat="40.0713863" lon="-105.2297399">
  <ele>1583.0</ele>
  <time>2026-08-28T17:56:31Z</time>
  <course>253.7</course>
  <speed>3.31</speed>
  <fix>3d</fix>
</trkpt>
<trkpt lat="40.0713838" lon="-105.2297511">
  <ele>1583.12</ele>
  <time>2026-08-28T17:56:31Z</time>
  <course>255.06</course>
  <speed>2.8764040050034696</speed>
  <fix>3d</fix>
</trkpt>
<trkpt lat="40.0713863" lon="-105.2297399">
  <ele>1583.0</ele>
  <time>2026-08-28T17:56:31Z</time>
  <course>253.7</course>
  <speed>3.31</speed>
  <fix>3d</fix>
</trkpt>
<trkpt lat="40.0713831" lon="-105.2297543">
  <ele>1583.12</ele>
  <time>2026-08-28T17:56:31Z</time>
  <course>255.16</course>
  <speed>2.7404014304477364</speed>
  <fix>3d</fix>
</trkpt>
<trkpt lat="40.0713847" lon="-105.2297471">
  <ele>1583.0</ele>
  <time>2026-08-28T17:56:31Z</time>
  <course>253.87</course>
  <speed>3.03</speed>
  <fix>3d</fix>
</trkpt>
<trkpt lat="40.0713823" lon="-105.2297578">
  <ele>1583.12</ele>
  <time>2026-08-28T17:56:31Z</time>
  <course>255.27</course>
  <speed>2.585207922005501</speed>
  <fix>3d</fix>
</trkpt>
<trkpt lat="40.0713832" lon="-105.2297536">
  <ele>1583.0</ele>
  <time>2026-08-28T17:56:31Z</time>
  <course>254.05</course>
  <speed>2.76</speed>
  <fix>3d</fix>
</trkpt>
<trkpt lat="40.0713817" lon="-105.2297607">
  <ele>1583.12</ele>
  <time>2026-08-28T17:56:31Z</time>
  <course>255.38</course>
  <speed>2.4492039523077698</speed>
  <fix>3d</fix>
</trkpt>
<trkpt lat="40.0713832" lon="-105.2297536">
  <ele>1583.0</ele>
  <time>2026-08-28T17:56:31Z</time>
  <course>254.05</course>
  <speed>2.76</speed>
  <fix>3d</fix>
</trkpt>
<trkpt lat="40.0713811" lon="-105.2297633">
  <ele>1583.12</ele>
  <time>2026-08-28T17:56:31Z</time>
  <course>255.48</course>
  <speed>2.322800034441191</speed>
  <fix>3d</fix>
</trkpt>
<trkpt lat="40.071382" lon="-105.2297596">
  <ele>1583.0</ele>
  <time>2026-08-28T17:56:31Z</time>
  <course>254.25</course>
  <speed>2.51</speed>
  <fix>3d</fix>
</trkpt>
<trkpt lat="40.0713805" lon="-105.2297659">
  <ele>1583.11</ele>
  <time>2026-08-28T17:56:31Z</time>
  <course>255.57</course>
  <speed>2.206014505845326</speed>
  <fix>3d</fix>
</trkpt>
<trkpt lat="40.071382" lon="-105.2297596">
  <ele>1583.0</ele>
  <time>2026-08-28T17:56:31Z</time>
  <course>254.25</course>
  <speed>2.51</speed>
  <fix>3d</fix>
</trkpt>
<trkpt lat="40.07138" lon="-105.2297683">
  <ele>1583.11</ele>
  <time>2026-08-28T17:56:31Z</time>
  <course>255.66</course>
  <speed>2.082402458700047</speed>
  <fix>3d</fix>
</trkpt>
<trkpt lat="40.071382" lon="-105.2297596">
  <ele>1583.0</ele>
  <time>2026-08-28T17:56:31Z</time>
  <course>254.25</course>
  <speed>2.51</speed>
  <fix>3d</fix>
</trkpt>
<trkpt lat="40.0713795" lon="-105.2297706">
  <ele>1583.11</ele>
  <time>2026-08-28T17:56:31Z</time>
  <course>255.74</course>
  <speed>1.9684003657792792</speed>
  <fix>3d</fix>
</trkpt>
<trkpt lat="40.0713808" lon="-105.229765">
  <ele>1583.0</ele>
  <time>2026-08-28T17:56:31Z</time>
  <course>254.44</course>
  <speed>2.26</speed>
  <fix>3d</fix>
</trkpt>
<trkpt lat="40.071379" lon="-105.2297728">
  <ele>1583.12</ele>
  <time>2026-08-28T17:56:31Z</time>
  <course>255.83</course>
  <speed>1.8516209115258988</speed>
  <fix>3d</fix>
</trkpt>
<trkpt lat="40.0713808" lon="-105.229765">
  <ele>1583.0</ele>
  <time>2026-08-28T17:56:31Z</time>
  <course>254.44</course>
  <speed>2.26</speed>
  <fix>3d</fix>
</trkpt>
<trkpt lat="40.0713786" lon="-105.2297748">
  <ele>1583.11</ele>
  <time>2026-08-28T17:56:31Z</time>
  <course>255.93</course>
  <speed>1.7472263734273243</speed>
  <fix>3d</fix>
</trkpt>
<trkpt lat="40.0713798" lon="-105.2297698">
  <ele>1583.0</ele>
  <time>2026-08-28T17:56:31Z</time>
  <course>254.62</course>
  <speed>2.03</speed>
  <fix>3d</fix>
</trkpt>
<trkpt lat="40.0713782" lon="-105.2297767">
  <ele>1583.12</ele>
  <time>2026-08-28T17:56:31Z</time>
  <course>256.03</course>
  <speed>1.6428329190760695</speed>
  <fix>3d</fix>
</trkpt>
<trkpt lat="40.0713798" lon="-105.2297698">
  <ele>1583.0</ele>
  <time>2026-08-28T17:56:31Z</time>
  <course>254.62</course>
  <speed>2.03</speed>
  <fix>3d</fix>
</trkpt>
<trkpt lat="40.0713778" lon="-105.2297785">
  <ele>1583.11</ele>
  <time>2026-08-28T17:56:31Z</time>
  <course>256.11</course>
  <speed>1.5384407690905748</speed>
  <fix>3d</fix>
</trkpt>
<trkpt lat="40.0713789" lon="-105.2297743">
  <ele>1583.0</ele>
  <time>2026-08-28T17:56:31Z</time>
  <course>254.81</course>
  <speed>1.82</speed>
  <fix>3d</fix>
</trkpt>
<trkpt lat="40.0713775" lon="-105.2297802">
  <ele>1583.11</ele>
  <time>2026-08-28T17:56:31Z</time>
  <course>256.2</course>
  <speed>1.4340502083260542</speed>
  <fix>3d</fix>
</trkpt>
<trkpt lat="40.0713789" lon="-105.2297743">
  <ele>1583.0</ele>
  <time>2026-08-28T17:56:31Z</time>
  <course>254.81</course>
  <speed>1.82</speed>
  <fix>3d</fix>
</trkpt>
<trkpt lat="40.0713772" lon="-105.2297815">
  <ele>1583.12</ele>
  <time>2026-08-28T17:56:31Z</time>
  <course>256.26</course>
  <speed>1.3612494260788506</speed>
  <fix>3d</fix>
</trkpt>
<trkpt lat="40.0713781" lon="-105.2297782">
  <ele>1583.0</ele>
  <time>2026-08-28T17:56:31Z</time>
  <course>254.99</course>
  <speed>1.61</speed>
  <fix>3d</fix>
</trkpt>
<trkpt lat="40.0713769" lon="-105.229783">
  <ele>1583.11</ele>
  <time>2026-08-28T17:56:31Z</time>
  <course>256.35</course>
  <speed>1.2664912159190052</speed>
  <fix>3d</fix>
</trkpt>
<trkpt lat="40.0713781" lon="-105.2297782">
  <ele>1583.0</ele>
  <time>2026-08-28T17:56:31Z</time>
  <course>254.99</course>
  <speed>1.61</speed>
  <fix>3d</fix>
</trkpt>
<trkpt lat="40.0713767" lon="-105.2297844">
  <ele>1583.11</ele>
  <time>2026-08-28T17:56:31Z</time>
  <course>256.44</course>
  <speed>1.1717508267545622</speed>
  <fix>3d</fix>
</trkpt>
<trkpt lat="40.0713774" lon="-105.2297816">
  <ele>1583.0</ele>
  <time>2026-08-28T17:56:31Z</time>
  <course>255.17</course>
  <speed>1.42</speed>
  <fix>3d</fix>
</trkpt>
<trkpt lat="40.0713764" lon="-105.2297857">
  <ele>1583.12</ele>
  <time>2026-08-28T17:56:31Z</time>
  <course>256.52</course>
  <speed>1.0796758772891057</speed>
  <fix>3d</fix>
</trkpt>
<trkpt lat="40.0713774" lon="-105.2297816">
  <ele>1583.0</ele>
  <time>2026-08-28T17:56:31Z</time>
  <course>255.17</course>
  <speed>1.42</speed>
  <fix>3d</fix>
</trkpt>
<trkpt lat="40.0713762" lon="-105.2297869">
  <ele>1583.12</ele>
  <time>2026-08-28T17:56:31Z</time>
  <course>256.61</course>
  <speed>0.9945853407325085</speed>
  <fix>3d</fix>
</trkpt>
<trkpt lat="40.0713767" lon="-105.2297847">
  <ele>1583.0</ele>
  <time>2026-08-28T17:56:31Z</time>
  <course>255.35</course>
  <speed>1.24</speed>
  <fix>3d</fix>
</trkpt>
<trkpt lat="40.0713759" lon="-105.2297881">
  <ele>1583.12</ele>
  <time>2026-08-28T17:56:31Z</time>
  <course>256.69</course>
  <speed>0.9024965373894794</speed>
  <fix>3d</fix>
</trkpt>
<trkpt lat="40.0713767" lon="-105.2297847">
  <ele>1583.0</ele>
  <time>2026-08-28T17:56:31Z</time>
  <course>255.35</course>
  <speed>1.24</speed>
  <fix>3d</fix>
</trkpt>
<trkpt lat="40.0713758" lon="-105.2297891">
  <ele>1583.12</ele>
  <time>2026-08-28T17:56:31Z</time>
  <course>256.78</course>
  <speed>0.8174350127074322</speed>
  <fix>3d</fix>
</trkpt>
<trkpt lat="40.0713762" lon="-105.2297873">
  <ele>1583.0</ele>
  <time>2026-08-28T17:56:31Z</time>
  <course>255.52</course>
  <speed>1.06</speed>
  <fix>3d</fix>
</trkpt>
<trkpt lat="40.0713756" lon="-105.2297901">
  <ele>1583.12</ele>
  <time>2026-08-28T17:56:31Z</time>
  <course>256.86</course>
  <speed>0.7349829930005184</speed>
  <fix>3d</fix>
</trkpt>
<trkpt lat="40.0713762" lon="-105.2297873">
  <ele>1583.0</ele>
  <time>2026-08-28T17:56:31Z</time>
  <course>255.52</course>
  <speed>1.06</speed>
  <fix>3d</fix>
</trkpt>
<trkpt lat="40.0713754" lon="-105.2297909">
  <ele>1583.12</ele>
  <time>2026-08-28T17:56:31Z</time>
  <course>256.94</course>
  <speed>0.6525335240430181</speed>
  <fix>3d</fix>
</trkpt>
<trkpt lat="40.0713758" lon="-105.2297895">
  <ele>1583.0</ele>
  <time>2026-08-28T17:56:31Z</time>
  <course>255.69</course>
  <speed>0.89</speed>
  <fix>3d</fix>
</trkpt>
<trkpt lat="40.0713753" lon="-105.2297917">
  <ele>1583.11</ele>
  <time>2026-08-28T17:56:31Z</time>
  <course>257.0</course>
  <speed>0.5604462507680822</speed>
  <fix>3d</fix>
</trkpt>
<trkpt lat="40.0713758" lon="-105.2297895">
  <ele>1583.0</ele>
  <time>2026-08-28T17:56:31Z</time>
  <course>255.69</course>
  <speed>0.89</speed>
  <fix>3d</fix>
</trkpt>
<trkpt lat="40.0713751" lon="-105.2297924">
  <ele>1583.11</ele>
  <time>2026-08-28T17:56:31Z</time>
  <course>257.08</course>
  <speed>0.4657252408878007</speed>
  <fix>3d</fix>
</trkpt>
<trkpt lat="40.0713754" lon="-105.2297913">
  <ele>1583.0</ele>
  <time>2026-08-28T17:56:31Z</time>
  <course>255.85</course>
  <speed>0.72</speed>
  <fix>3d</fix>
</trkpt>
<trkpt lat="40.071375" lon="-105.229793">
  <ele>1583.11</ele>
  <time>2026-08-28T17:56:31Z</time>
  <course>257.13</course>
  <speed>0.383275357934736</speed>
  <fix>3d</fix>
</trkpt>
<trkpt lat="40.0713752" lon="-105.2297927">
  <ele>1583.0</ele>
  <time>2026-08-28T17:56:31Z</time>
  <course>255.97</course>
  <speed>0.55</speed>
  <fix>3d</fix>
</trkpt>
<trkpt lat="40.071375" lon="-105.2297934">
  <ele>1583.11</ele>
  <time>2026-08-28T17:56:31Z</time>
  <course>257.18</course>
  <speed>0.28861739379323625</speed>
  <fix>3d</fix>
</trkpt>
<trkpt lat="40.0713752" lon="-105.2297927">
  <ele>1583.0</ele>
  <time>2026-08-28T17:56:31Z</time>
  <course>255.97</course>
  <speed>0.55</speed>
  <fix>3d</fix>
</trkpt>
<trkpt lat="40.0713749" lon="-105.2297938">
  <ele>1583.11</ele>
  <time>2026-08-28T17:56:31Z</time>
  <course>257.22</course>
  <speed>0.20615528128088303</speed>
  <fix>3d</fix>
</trkpt>
<trkpt lat="40.0713749" lon="-105.2297938">
  <ele>1583.0</ele>
  <time>2026-08-28T17:56:31Z</time>
  <course>256.07</course>
  <speed>0.38</speed>
  <fix>3d</fix>
</trkpt>
<trkpt lat="40.0713749" lon="-105.229794">
  <ele>1583.11</ele>
  <time>2026-08-28T17:56:31Z</time>
  <course>257.24</course>
  <speed>0.12369316876852982</speed>
  <fix>3d</fix>
</trkpt>
<trkpt lat="40.0713749" lon="-105.2297938">
  <ele>1583.0</ele>
  <time>2026-08-28T17:56:31Z</time>
  <course>256.07</course>
  <speed>0.38</speed>
  <fix>3d</fix>
</trkpt>
<trkpt lat="40.0713748" lon="-105.2297942">
  <ele>1583.12</ele>
  <time>2026-08-28T17:56:31Z</time>
  <course>257.26</course>
  <speed>0.0412310562561766</speed>
  <fix>3d</fix>
</trkpt>
<trkpt lat="40.0713749" lon="-105.2297938">
  <ele>1583.0</ele>
  <time>2026-08-28T17:56:31Z</time>
  <course>256.07</course>
  <speed>0.38</speed>
  <fix>3d</fix>
</trkpt>
<trkpt lat="40.0713748" lon="-105.2297942">
  <ele>1583.12</ele>
  <time>2026-08-28T17:56:31Z</time>
  <course>257.26</course>
  <speed>0.02</speed>
  <fix>3d</fix>
</trkpt>
<trkpt lat="40.0713748" lon="-105.2297945">
  <ele>1583.0</ele>
  <time>2026-08-28T17:56:31Z</time>
  <course>256.14</course>
  <speed>0.21</speed>
  <fix>3d</fix>
</trkpt>
<trkpt lat="40.0713748" lon="-105.2297942">
  <ele>1583.12</ele>
  <time>2026-08-28T17:56:31Z</time>
  <course>257.26</course>
  <speed>0.09219544457292887</speed>
  <fix>3d</fix>
</trkpt>
<trkpt lat="40.0713748" lon="-105.2297945">
  <ele>1583.0</ele>
  <time>2026-08-28T17:56:31Z</time>
  <course>256.14</course>
  <speed>0.21</speed>
  <fix>3d</fix>
</trkpt>
<trkpt lat="40.0713749" lon="-105.2297941">
  <ele>1583.12</ele>
  <time>2026-08-28T17:56:31Z</time>
  <course>257.27</course>
  <speed>0.15297058540778355</speed>
  <fix>3d</fix>
</trkpt>
<trkpt lat="40.0713748" lon="-105.2297948">
  <ele>1583.0</ele>
  <time>2026-08-28T17:56:31Z</time>
  <course>256.15</course>
  <speed>0.05</speed>
  <fix>3d</fix>
</trkpt>
<trkpt lat="40.0713749" lon="-105.229794">
  <ele>1583.12</ele>
  <time>2026-08-28T17:56:31Z</time>
  <course>257.26</course>
  <speed>0.20615528128088303</speed>
  <fix>3d</fix>
</trkpt>
<trkpt lat="40.0713748" lon="-105.2297948">
  <ele>1583.0</ele>
  <time>2026-08-28T17:56:31Z</time>
  <course>256.15</course>
  <speed>0.05</speed>
  <fix>3d</fix>
</trkpt>
<trkpt lat="40.071375" lon="-105.2297938">
  <ele>1583.12</ele>
  <time>2026-08-28T17:56:31Z</time>
  <course>257.26</course>
  <speed>0.24738633753705963</speed>
  <fix>3d</fix>
</trkpt>
<trkpt lat="40.0713748" lon="-105.2297948">
  <ele>1583.0</ele>
  <time>2026-08-28T17:56:31Z</time>
  <course>76.18</course>
  <speed>0.07</speed>
  <fix>3d</fix>
</trkpt>
<trkpt lat="40.071375" lon="-105.2297936">
  <ele>1583.12</ele>
  <time>2026-08-28T17:56:31Z</time>
  <course>257.25</course>
  <speed>0.27892651361962706</speed>
  <fix>3d</fix>
</trkpt>
<trkpt lat="40.0713748" lon="-105.2297948">
  <ele>1583.0</ele>
  <time>2026-08-28T17:56:31Z</time>
  <course>76.18</course>
  <speed>0.07</speed>
  <fix>3d</fix>
</trkpt>
<trkpt lat="40.071375" lon="-105.2297935">
  <ele>1583.12</ele>
  <time>2026-08-28T17:56:31Z</time>
  <course>257.23</course>
  <speed>0.28861739379323625</speed>
  <fix>3d</fix>
</trkpt>
<trkpt lat="40.0713748" lon="-105.2297946">
  <ele>1583.0</ele>
  <time>2026-08-28T17:56:31Z</time>
  <course>76.16</course>
  <speed>0.16</speed>
  <fix>3d</fix>
</trkpt>
<trkpt lat="40.071375" lon="-105.2297932">
  <ele>1583.12</ele>
  <time>2026-08-28T17:56:31Z</time>
  <course>257.2</course>
  <speed>0.30083217912982646</speed>
  <fix>3d</fix>
</trkpt>
<trkpt lat="40.0713748" lon="-105.2297946">
  <ele>1583.0</ele>
  <time>2026-08-28T17:56:31Z</time>
  <course>76.16</course>
  <speed>0.16</speed>
  <fix>3d</fix>
</trkpt>
<trkpt lat="40.0713751" lon="-105.2297929">
  <ele>1583.12</ele>
  <time>2026-08-28T17:56:31Z</time>
  <course>257.16</course>
  <speed>0.30083217912982646</speed>
  <fix>3d</fix>
</trkpt>
<trkpt lat="40.0713748" lon="-105.2297942">
  <ele>1583.0</ele>
  <time>2026-08-28T17:56:31Z</time>
  <course>76.12</course>
  <speed>0.22</speed>
  <fix>3d</fix>
</trkpt>
<trkpt lat="40.0713751" lon="-105.2297926">
  <ele>1583.12</ele>
  <time>2026-08-28T17:56:31Z</time>
  <course>257.12</course>
  <speed>0.29120439557122074</speed>
  <fix>3d</fix>
</trkpt>
<trkpt lat="40.0713748" lon="-105.2297942">
  <ele>1583.0</ele>
  <time>2026-08-28T17:56:31Z</time>
  <course>76.12</course>
  <speed>0.22</speed>
  <fix>3d</fix>
</trkpt>
<trkpt lat="40.0713752" lon="-105.2297924">
  <ele>1583.12</ele>
  <time>2026-08-28T17:56:31Z</time>
  <course>257.08</course>
  <speed>0.2816025568065745</speed>
  <fix>3d</fix>
</trkpt>
<trkpt lat="40.0713749" lon="-105.2297936">
  <ele>1583.0</ele>
  <time>2026-08-28T17:56:31Z</time>
  <course>76.06</course>
  <speed>0.23</speed>
  <fix>3d</fix>
</trkpt>
<trkpt lat="40.0713753" lon="-105.2297922">
  <ele>1583.12</ele>
  <time>2026-08-28T17:56:31Z</time>
  <course>257.03</course>
  <speed>0.26248809496813374</speed>
  <fix>3d</fix>
</trkpt>
<trkpt lat="40.0713749" lon="-105.2297936">
  <ele>1583.0</ele>
  <time>2026-08-28T17:56:31Z</time>
  <course>76.06</course>
  <speed>0.23</speed>
  <fix>3d</fix>
</trkpt>
<trkpt lat="40.0713753" lon="-105.229792">
  <ele>1583.12</ele>
  <time>2026-08-28T17:56:31Z</time>
  <course>256.98</course>
  <speed>0.24351591323771843</speed>
  <fix>3d</fix>
</trkpt>
<trkpt lat="40.071375" lon="-105.2297931">
  <ele>1583.0</ele>
  <time>2026-08-28T17:56:31Z</time>
  <course>75.97</course>
  <speed>0.21</speed>
  <fix>3d</fix>
</trkpt>
<trkpt lat="40.0713754" lon="-105.2297918">
  <ele>1583.12</ele>
  <time>2026-08-28T17:56:31Z</time>
  <course>256.93</course>
  <speed>0.22135943621178655</speed>
  <fix>3d</fix>
</trkpt>
<trkpt lat="40.071375" lon="-105.2297931">
  <ele>1583.0</ele>
  <time>2026-08-28T17:56:31Z</time>
  <course>75.97</course>
  <speed>0.21</speed>
  <fix>3d</fix>
</trkpt>
<trkpt lat="40.0713754" lon="-105.2297916">
  <ele>1583.12</ele>
  <time>2026-08-28T17:56:31Z</time>
  <course>256.88</course>
  <speed>0.19313207915827968</speed>
  <fix>3d</fix>
</trkpt>
<trkpt lat="40.0713751" lon="-105.2297926">
  <ele>1583.0</ele>
  <time>2026-08-28T17:56:31Z</time>
  <course>75.87</course>
  <speed>0.18</speed>
  <fix>3d</fix>
</trkpt>
<trkpt lat="40.0713754" lon="-105.2297914">
  <ele>1583.12</ele>
  <time>2026-08-28T17:56:31Z</time>
  <course>256.84</course>
  <speed>0.1708800749063506</speed>
  <fix>3d</fix>
</trkpt>
<trkpt lat="40.0713752" lon="-105.2297923">
  <ele>1583.0</ele>
  <time>2026-08-28T17:56:31Z</time>
  <course>75.78</course>
  <speed>0.14</speed>
  <fix>3d</fix>
</trkpt>
<trkpt lat="40.0713755" lon="-105.2297914">
  <ele>1583.11</ele>
  <time>2026-08-28T17:56:31Z</time>
  <course>256.82</course>
  <speed>0.14317821063276354</speed>
  <fix>3d</fix>
</trkpt>
<trkpt lat="40.0713752" lon="-105.2297923">
  <ele>1583.0</ele>
  <time>2026-08-28T17:56:31Z</time>
  <course>75.78</course>
  <speed>0.14</speed>
  <fix>3d</fix>
</trkpt>
<trkpt lat="40.0713755" lon="-105.2297913">
  <ele>1583.11</ele>
  <time>2026-08-28T17:56:31Z</time>
  <course>256.81</course>
  <speed>0.1341640786499874</speed>
  <fix>3d</fix>
</trkpt>
<trkpt lat="40.0713752" lon="-105.2297921">
  <ele>1583.0</ele>
  <time>2026-08-28T17:56:31Z</time>
  <course>75.72</course>
  <speed>0.1</speed>
  <fix>3d</fix>
</trkpt>
<trkpt lat="40.0713755" lon="-105.2297912">
  <ele>1583.11</ele>
  <time>2026-08-28T17:56:31Z</time>
  <course>256.82</course>
  <speed>0.12529964086141668</speed>
  <fix>3d</fix>
</trkpt>
<trkpt lat="40.0713752" lon="-105.2297921">
  <ele>1583.0</ele>
  <time>2026-08-28T17:56:31Z</time>
  <course>75.72</course>
  <speed>0.1</speed>
  <fix>3d</fix>
</trkpt>
<trkpt lat="40.0713755" lon="-105.2297912">
  <ele>1583.11</ele>
  <time>2026-08-28T17:56:31Z</time>
  <course>256.82</course>
  <speed>0.11661903789690602</speed>
  <fix>3d</fix>
</trkpt>
<trkpt lat="40.0713752" lon="-105.2297921">
  <ele>1583.0</ele>
  <time>2026-08-28T17:56:31Z</time>
  <course>75.72</course>
  <speed>0.1</speed>
  <fix>3d</fix>
</trkpt>
<trkpt lat="40.0713756" lon="-105.2297911">
  <ele>1583.11</ele>
  <time>2026-08-28T17:56:31Z</time>
  <course>256.82</course>
  <speed>0.11661903789690602</speed>
  <fix>3d</fix>
</trkpt>
<trkpt lat="40.0713753" lon="-105.2297919">
  <ele>1583.0</ele>
  <time>2026-08-28T17:56:31Z</time>
  <course>75.7</course>
  <speed>0.08</speed>
  <fix>3d</fix>
</trkpt>
<trkpt lat="40.0713756" lon="-105.2297911">
  <ele>1583.11</ele>
  <time>2026-08-28T17:56:31Z</time>
  <course>256.82</course>
  <speed>0.10816653826391968</speed>
  <fix>3d</fix>
</trkpt>
<trkpt lat="40.0713753" lon="-105.2297919">
  <ele>1583.0</ele>
  <time>2026-08-28T17:56:31Z</time>
  <course>75.7</course>
  <speed>0.08</speed>
  <fix>3d</fix>
</trkpt>
<trkpt lat="40.0713756" lon="-105.229791">
  <ele>1583.11</ele>
  <time>2026-08-28T17:56:31Z</time>
  <course>256.82</course>
  <speed>0.1</speed>
  <fix>3d</fix>
</trkpt>
<trkpt lat="40.0713753" lon="-105.2297916">
  <ele>1583.0</ele>
  <time>2026-08-28T17:56:31Z</time>
  <course>75.7</course>
  <speed>0.07</speed>
  <fix>3d</fix>
</trkpt>
<trkpt lat="40.0713756" lon="-105.229791">
  <ele>1583.11</ele>
  <time>2026-08-28T17:56:31Z</time>
  <course>256.82</course>
  <speed>0.1</speed>
  <fix>3d</fix>
</trkpt>
<trkpt lat="40.0713753" lon="-105.2297916">
  <ele>1583.0</ele>
  <time>2026-08-28T17:56:31Z</time>
  <course>75.7</course>
  <speed>0.07</speed>
  <fix>3d</fix>
</trkpt>
<trkpt lat="40.0713756" lon="-105.2297909">
  <ele>1583.11</ele>
  <time>2026-08-28T17:56:31Z</time>
  <course>256.82</course>
  <speed>0.09219544457292887</speed>
  <fix>3d</fix>
</trkpt>
<trkpt lat="40.0713753" lon="-105.2297915">
  <ele>1583.0</ele>
  <time>2026-08-28T17:56:31Z</time>
  <course>75.7</course>
  <speed>0.06</speed>
  <fix>3d</fix>
</trkpt>
<trkpt lat="40.0713757" lon="-105.2297909">
  <ele>1583.11</ele>
  <time>2026-08-28T17:56:31Z</time>
  <course>256.82</course>
  <speed>0.09219544457292887</speed>
  <fix>3d</fix>
</trkpt>
<trkpt lat="40.0713754" lon="-105.2297914">
  <ele>1583.0</ele>
  <time>2026-08-28T17:56:31Z</time>
  <course>75.71</course>
  <speed>0.05</speed>
  <fix>3d</fix>
</trkpt>
<trkpt lat="40.0713757" lon="-105.2297909">
  <ele>1583.12</ele>
  <time>2026-08-28T17:56:31Z</time>
  <course>256.81</course>
  <speed>0.07810249675906654</speed>
  <fix>3d</fix>
</trkpt>
<trkpt lat="40.0713754" lon="-105.2297914">
  <ele>1583.0</ele>
  <time>2026-08-28T17:56:31Z</time>
  <course>75.71</course>
  <speed>0.05</speed>
  <fix>3d</fix>
</trkpt>
<trkpt lat="40.0713757" lon="-105.2297908">
  <ele>1583.12</ele>
  <time>2026-08-28T17:56:31Z</time>
  <course>256.81</course>
  <speed>0.07810249675906654</speed>
  <fix>3d</fix>
</trkpt>
<trkpt lat="40.0713754" lon="-105.2297914">
  <ele>1583.0</ele>
  <time>2026-08-28T17:56:31Z</time>
  <course>75.71</course>
  <speed>0.05</speed>
  <fix>3d</fix>
</trkpt>
<trkpt lat="40.0713757" lon="-105.2297908">
  <ele>1583.12</ele>
  <time>2026-08-28T17:56:31Z</time>
  <course>256.81</course>
  <speed>0.07071067811865475</speed>
  <fix>3d</fix>
</trkpt>
<trkpt lat="40.0713754" lon="-105.2297912">
  <ele>1583.0</ele>
  <time>2026-08-28T17:56:31Z</time>
  <course>75.71</course>
  <speed>0.05</speed>
  <fix>3d</fix>
</trkpt>
<trkpt lat="40.0713757" lon="-105.2297908">
  <ele>1583.12</ele>
  <time>2026-08-28T17:56:31Z</time>
  <course>256.81</course>
  <speed>0.07071067811865475</speed>
  <fix>3d</fix>
</trkpt>
<trkpt lat="40.0713754" lon="-105.2297912">
  <ele>1583.0</ele>
  <time>2026-08-28T17:56:31Z</time>
  <course>75.71</course>
  <speed>0.05</speed>
  <fix>3d</fix>
</trkpt>
<trkpt lat="40.0713757" lon="-105.2297908">
  <ele>1583.12</ele>
  <time>2026-08-28T17:56:31Z</time>
  <course>256.8</course>
  <speed>0.07071067811865475</speed>
  <fix>3d</fix>
</trkpt>
<trkpt lat="40.0713754" lon="-105.2297911">
  <ele>1583.0</ele>
  <time>2026-08-28T17:56:31Z</time>
  <course>75.71</course>
  <speed>0.04</speed>
  <fix>3d</fix>
</trkpt>
<trkpt lat="40.0713757" lon="-105.2297907">
  <ele>1583.12</ele>
  <time>2026-08-28T17:56:31Z</time>
  <course>256.8</course>
  <speed>0.06403124237432849</speed>
  <fix>3d</fix>
</trkpt>
<trkpt lat="40.0713754" lon="-105.2297911">
  <ele>1583.0</ele>
  <time>2026-08-28T17:56:31Z</time>
  <course>75.71</course>
  <speed>0.04</speed>
  <fix>3d</fix>
</trkpt>
<trkpt lat="40.0713757" lon="-105.2297907">
  <ele>1583.12</ele>
  <time>2026-08-28T17:56:31Z</time>
  <course>256.8</course>
  <speed>0.06403124237432849</speed>
  <fix>3d</fix>
</trkpt>
<trkpt lat="40.0713754" lon="-105.229791">
  <ele>1583.0</ele>
  <time>2026-08-28T17:56:31Z</time>
  <course>75.71</course>
  <speed>0.04</speed>
  <fix>3d</fix>
</trkpt>
<trkpt lat="40.0713758" lon="-105.2297907">
  <ele>1583.11</ele>
  <time>2026-08-28T17:56:31Z</time>
  <course>256.8</course>
  <speed>0.06403124237432849</speed>
  <fix>3d</fix>
</trkpt>
<trkpt lat="40.0713754" lon="-105.229791">
  <ele>1583.0</ele>
  <time>2026-08-28T17:56:31Z</time>
  <course>75.71</course>
  <speed>0.04</speed>
  <fix>3d</fix>
</trkpt>
<trkpt lat="40.0713758" lon="-105.2297907">
  <ele>1583.1</ele>
  <time>2026-08-28T17:56:31Z</time>
  <course>256.79</course>
  <speed>0.05830951894845301</speed>
  <fix>3d</fix>
</trkpt>
<trkpt lat="40.0713754" lon="-105.2297909">
  <ele>1583.0</ele>
  <time>2026-08-28T17:56:31Z</time>
  <course>75.71</course>
  <speed>0.03</speed>
  <fix>3d</fix>
</trkpt>
<trkpt lat="40.0713758" lon="-105.2297906">
  <ele>1583.09</ele>
  <time>2026-08-28T17:56:31Z</time>
  <course>256.79</course>
  <speed>0.05830951894845301</speed>
  <fix>3d</fix>
</trkpt>
<trkpt lat="39.6561709" lon="-104.1394387">
  <ele>1566.59</ele>
  <time>2026-08-28T17:56:32Z</time>
  <course>0.0</course>
  <speed>0.0</speed>
  <fix>3d</fix>
</trkpt>
<trkpt lat="40.0713749" lon="-105.229789">
  <ele>1583.0</ele>
  <time>2026-08-28T17:56:32Z</time>
  <course>0.0</course>
  <speed>0.0</speed>
  <fix>3d</fix>
</trkpt>
<trkpt lat="40.0713749" lon="-105.229789">
  <ele>1583.0</ele>
  <time>2026-08-28T17:56:32Z</time>
  <course>238.36</course>
  <speed>0.0</speed>
  <fix>3d</fix>
</trkpt>
<trkpt lat="40.0713749" lon="-105.229789">
  <ele>1583.0</ele>
  <time>2026-08-28T17:56:32Z</time>
  <course>0.0</course>
  <speed>0.0</speed>
  <fix>3d</fix>
</trkpt>
<trkpt lat="40.0713749" lon="-105.229789">
  <ele>1583.0</ele>
  <time>2026-08-28T17:56:32Z</time>
  <course>238.45</course>
  <speed>0.0</speed>
  <fix>3d</fix>
</trkpt>
<trkpt lat="40.0713749" lon="-105.229789">
  <ele>1583.0</ele>
  <time>2026-08-28T17:56:32Z</time>
  <course>0.0</course>
  <speed>0.0</speed>
  <fix>3d</fix>
</trkpt>
<trkpt lat="40.0713749" lon="-105.229789">
  <ele>1583.0</ele>
  <time>2026-08-28T17:56:32Z</time>
  <course>238.65</course>
  <speed>0.0</speed>
  <fix>3d</fix>
</trkpt>
<trkpt lat="40.0713749" lon="-105.229789">
  <ele>1583.0</ele>
  <time>2026-08-28T17:56:32Z</time>
  <course>0.0</course>
  <speed>0.0</speed>
  <fix>3d</fix>
</trkpt>
<trkpt lat="40.0713749" lon="-105.229789">
  <ele>1583.0</ele>
  <time>2026-08-28T17:56:32Z</time>
  <course>238.93</course>
  <speed>0.0</speed>
  <fix>3d</fix>
</trkpt>
<trkpt lat="40.0713749" lon="-105.229789">
  <ele>1583.0</ele>
  <time>2026-08-28T17:56:32Z</time>
  <course>0.0</course>
  <speed>0.0</speed>
  <fix>3d</fix>
</trkpt>
<trkpt lat="40.0713749" lon="-105.229789">
  <ele>1583.0</ele>
  <time>2026-08-28T17:56:32Z</time>
  <course>239.26</course>
  <speed>0.0</speed>
  <fix>3d</fix>
</trkpt>
<trkpt lat="40.0713749" lon="-105.229789">
  <ele>1583.0</ele>
  <time>2026-08-28T17:56:32Z</time>
  <course>0.0</course>
  <speed>0.0</speed>
  <fix>3d</fix>
</trkpt>
<trkpt lat="40.0713749" lon="-105.229789">
  <ele>1583.0</ele>
  <time>2026-08-28T17:56:32Z</time>
  <course>239.61</course>
  <speed>0.0</speed>
  <fix>3d</fix>
</trkpt>
<trkpt lat="40.0713749" lon="-105.229789">
  <ele>1583.0</ele>
  <time>2026-08-28T17:56:32Z</time>
  <course>0.0</course>
  <speed>0.0</speed>
  <fix>3d</fix>
</trkpt>
<trkpt lat="40.0713749" lon="-105.229789">
  <ele>1583.0</ele>
  <time>2026-08-28T17:56:32Z</time>
  <course>239.96</course>
  <speed>0.0</speed>
  <fix>3d</fix>
</trkpt>
<trkpt lat="40.0713749" lon="-105.229789">
  <ele>1583.0</ele>
  <time>2026-08-28T17:56:32Z</time>
  <course>0.0</course>
  <speed>0.0</speed>
  <fix>3d</fix>
</trkpt>
<trkpt lat="40.0713749" lon="-105.229789">
  <ele>1583.0</ele>
  <time>2026-08-28T17:56:32Z</time>
  <course>240.3</course>
  <speed>0.0</speed>
  <fix>3d</fix>
</trkpt>
<trkpt lat="40.0713749" lon="-105.229789">
  <ele>1583.0</ele>
  <time>2026-08-28T17:56:32Z</time>
  <course>0.0</course>
  <speed>0.0</speed>
  <fix>3d</fix>
</trkpt>
<trkpt lat="40.0713749" lon="-105.229789">
  <ele>1583.0</ele>
  <time>2026-08-28T17:56:32Z</time>
  <course>240.61</course>
  <speed>0.0</speed>
  <fix>3d</fix>
</trkpt>
<trkpt lat="40.0713749" lon="-105.229789">
  <ele>1583.0</ele>
  <time>2026-08-28T17:56:32Z</time>
  <course>0.0</course>
  <speed>0.0</speed>
  <fix>3d</fix>
</trkpt>
<trkpt lat="40.0713749" lon="-105.229789">
  <ele>1583.0</ele>
  <time>2026-08-28T17:56:32Z</time>
  <course>240.92</course>
  <speed>0.0</speed>
  <fix>3d</fix>
</trkpt>
<trkpt lat="40.0713749" lon="-105.229789">
  <ele>1583.0</ele>
  <time>2026-08-28T17:56:32Z</time>
  <course>0.0</course>
  <speed>0.0</speed>
  <fix>3d</fix>
</trkpt>
<trkpt lat="40.0713749" lon="-105.229789">
  <ele>1583.0</ele>
  <time>2026-08-28T17:56:32Z</time>
  <course>241.21</course>
  <speed>0.0</speed>
  <fix>3d</fix>
</trkpt>
<trkpt lat="40.0713749" lon="-105.229789">
  <ele>1583.0</ele>
  <time>2026-08-28T17:56:32Z</time>
  <course>0.0</course>
  <speed>0.0</speed>
  <fix>3d</fix>
</trkpt>
<trkpt lat="40.0713749" lon="-105.229789">
  <ele>1583.0</ele>
  <time>2026-08-28T17:56:32Z</time>
  <course>241.49</course>
  <speed>0.0</speed>
  <fix>3d</fix>
</trkpt>
<trkpt lat="40.0713749" lon="-105.229789">
  <ele>1583.0</ele>
  <time>2026-08-28T17:56:32Z</time>
  <course>0.0</course>
  <speed>0.0</speed>
  <fix>3d</fix>
</trkpt>
<trkpt lat="40.0713749" lon="-105.229789">
  <ele>1583.0</ele>
  <time>2026-08-28T17:56:32Z</time>
  <course>241.77</course>
  <speed>0.0</speed>
  <fix>3d</fix>
</trkpt>
<trkpt lat="40.0713749" lon="-105.229789">
  <ele>1583.0</ele>
  <time>2026-08-28T17:56:32Z</time>
  <course>0.0</course>
  <speed>0.0</speed>
  <fix>3d</fix>
</trkpt>
<trkpt lat="40.0713749" lon="-105.229789">
  <ele>1583.0</ele>
  <time>2026-08-28T17:56:32Z</time>
  <course>242.03</course>
  <speed>0.0</speed>
  <fix>3d</fix>
</trkpt>
<trkpt lat="40.0713749" lon="-105.229789">
  <ele>1583.0</ele>
  <time>2026-08-28T17:56:32Z</time>
  <course>0.0</course>
  <speed>0.0</speed>
  <fix>3d</fix>
</trkpt>
<trkpt lat="40.0713749" lon="-105.229789">
  <ele>1583.0</ele>
  <time>2026-08-28T17:56:32Z</time>
  <course>242.29</course>
  <speed>0.0</speed>
  <fix>3d</fix>
</trkpt>
<trkpt lat="40.0713749" lon="-105.229789">
  <ele>1583.0</ele>
  <time>2026-08-28T17:56:32Z</time>
  <course>0.0</course>
  <speed>0.0</speed>
  <fix>3d</fix>
</trkpt>
<trkpt lat="40.0713749" lon="-105.229789">
  <ele>1583.0</ele>
  <time>2026-08-28T17:56:32Z</time>
  <course>242.54</course>
  <speed>0.0</speed>
  <fix>3d</fix>
</trkpt>
<trkpt lat="40.0713749" lon="-105.229789">
  <ele>1583.0</ele>
  <time>2026-08-28T17:56:32Z</time>
  <course>0.0</course>
  <speed>0.0</speed>
  <fix>3d</fix>
</trkpt>
<trkpt lat="40.0713749" lon="-105.229789">
  <ele>1583.0</ele>
  <time>2026-08-28T17:56:32Z</time>
  <course>242.79</course>
  <speed>0.0</speed>
  <fix>3d</fix>
</trkpt>
<trkpt lat="40.0713749" lon="-105.229789">
  <ele>1583.0</ele>
  <time>2026-08-28T17:56:32Z</time>
  <course>0.0</course>
  <speed>0.0</speed>
  <fix>3d</fix>
</trkpt>
<trkpt lat="40.0713749" lon="-105.229789">
  <ele>1583.0</ele>
  <time>2026-08-28T17:56:32Z</time>
  <course>243.02</course>
  <speed>0.0</speed>
  <fix>3d</fix>
</trkpt>
<trkpt lat="40.0713749" lon="-105.229789">
  <ele>1583.0</ele>
  <time>2026-08-28T17:56:32Z</time>
  <course>0.0</course>
  <speed>0.0</speed>
  <fix>3d</fix>
</trkpt>
<trkpt lat="40.0713749" lon="-105.229789">
  <ele>1583.0</ele>
  <time>2026-08-28T17:56:32Z</time>
  <course>243.25</course>
  <speed>0.0</speed>
  <fix>3d</fix>
</trkpt>
<trkpt lat="40.0713749" lon="-105.229789">
  <ele>1583.0</ele>
  <time>2026-08-28T17:56:32Z</time>
  <course>0.0</course>
  <speed>0.0</speed>
  <fix>3d</fix>
</trkpt>
<trkpt lat="40.0713749" lon="-105.229789">
  <ele>1583.0</ele>
  <time>2026-08-28T17:56:32Z</time>
  <course>243.47</course>
  <speed>0.0</speed>
  <fix>3d</fix>
</trkpt>
<trkpt lat="40.0713749" lon="-105.229789">
  <ele>1583.0</ele>
  <time>2026-08-28T17:56:32Z</time>
  <course>0.0</course>
  <speed>0.0</speed>
  <fix>3d</fix>
</trkpt>
<trkpt lat="40.0713749" lon="-105.229789">
  <ele>1583.0</ele>
  <time>2026-08-28T17:56:32Z</time>
  <course>243.68</course>
  <speed>0.0</speed>
  <fix>3d</fix>
</trkpt>
<trkpt lat="40.0713749" lon="-105.229789">
  <ele>1583.0</ele>
  <time>2026-08-28T17:56:32Z</time>
  <course>0.0</course>
  <speed>0.0</speed>
  <fix>3d</fix>
</trkpt>
<trkpt lat="40.0713749" lon="-105.229789">
  <ele>1583.0</ele>
  <time>2026-08-28T17:56:32Z</time>
  <course>243.89</course>
  <speed>0.0</speed>
  <fix>3d</fix>
</trkpt>
<trkpt lat="40.0713749" lon="-105.229789">
  <ele>1583.0</ele>
  <time>2026-08-28T17:56:32Z</time>
  <course>0.0</course>
  <speed>0.0</speed>
  <fix>3d</fix>
</trkpt>
<trkpt lat="40.0713749" lon="-105.229789">
  <ele>1583.0</ele>
  <time>2026-08-28T17:56:32Z</time>
  <course>244.09</course>
  <speed>0.0</speed>
  <fix>3d</fix>
</trkpt>
<trkpt lat="40.0713749" lon="-105.229789">
  <ele>1583.0</ele>
  <time>2026-08-28T17:56:32Z</time>
  <course>0.0</course>
  <speed>0.0</speed>
  <fix>3d</fix>
</trkpt>
<trkpt lat="40.0713749" lon="-105.229789">
  <ele>1583.0</ele>
  <time>2026-08-28T17:56:32Z</time>
  <course>244.28</course>
  <speed>0.0</speed>
  <fix>3d</fix>
</trkpt>
<trkpt lat="40.0713749" lon="-105.229789">
  <ele>1583.0</ele>
  <time>2026-08-28T17:56:32Z</time>
  <course>0.0</course>
  <speed>0.0</speed>
  <fix>3d</fix>
</trkpt>
<trkpt lat="40.0713749" lon="-105.229789">
  <ele>1583.0</ele>
  <time>2026-08-28T17:56:32Z</time>
  <course>244.46</course>
  <speed>0.0</speed>
  <fix>3d</fix>
</trkpt>
<trkpt lat="40.0713749" lon="-105.229789">
  <ele>1583.0</ele>
  <time>2026-08-28T17:56:32Z</time>
  <course>0.0</course>
  <speed>0.0</speed>
  <fix>3d</fix>
</trkpt>
<trkpt lat="40.0713749" lon="-105.229789">
  <ele>1583.0</ele>
  <time>2026-08-28T17:56:32Z</time>
  <course>244.64</course>
  <speed>0.0</speed>
  <fix>3d</fix>
</trkpt>
<trkpt lat="40.0713749" lon="-105.229789">
  <ele>1583.0</ele>
  <time>2026-08-28T17:56:32Z</time>
  <course>0.0</course>
  <speed>0.0</speed>
  <fix>3d</fix>
</trkpt>
<trkpt lat="40.0713749" lon="-105.229789">
  <ele>1583.0</ele>
  <time>2026-08-28T17:56:32Z</time>
  <course>244.81</course>
  <speed>0.0</speed>
  <fix>3d</fix>
</trkpt>
<trkpt lat="40.0713749" lon="-105.229789">
  <ele>1583.0</ele>
  <time>2026-08-28T17:56:32Z</time>
  <course>0.0</course>
  <speed>0.0</speed>
  <fix>3d</fix>
</trkpt>
<trkpt lat="40.0713749" lon="-105.229789">
  <ele>1583.0</ele>
  <time>2026-08-28T17:56:32Z</time>
  <course>244.97</course>
  <speed>0.0</speed>
  <fix>3d</fix>
</trkpt>
<trkpt lat="40.0713749" lon="-105.229789">
  <ele>1583.0</ele>
  <time>2026-08-28T17:56:32Z</time>
  <course>0.0</course>
  <speed>0.0</speed>
  <fix>3d</fix>
</trkpt>
<trkpt lat="40.0713749" lon="-105.229789">
  <ele>1583.0</ele>
  <time>2026-08-28T17:56:32Z</time>
  <course>245.13</course>
  <speed>0.0</speed>
  <fix>3d</fix>
</trkpt>
<trkpt lat="40.0713749" lon="-105.229789">
  <ele>1583.0</ele>
  <time>2026-08-28T17:56:32Z</time>
  <course>0.0</course>
  <speed>0.0</speed>
  <fix>3d</fix>
</trkpt>
<trkpt lat="40.0713749" lon="-105.229789">
  <ele>1583.0</ele>
  <time>2026-08-28T17:56:32Z</time>
  <course>245.29</course>
  <speed>0.0</speed>
  <fix>3d</fix>
</trkpt>
<trkpt lat="40.0713749" lon="-105.229789">
  <ele>1583.0</ele>
  <time>2026-08-28T17:56:32Z</time>
  <course>0.0</course>
  <speed>0.0</speed>
  <fix>3d</fix>
</trkpt>
<trkpt lat="40.0713749" lon="-105.229789">
  <ele>1583.0</ele>
  <time>2026-08-28T17:56:32Z</time>
  <course>245.43</course>
  <speed>0.0</speed>
  <fix>3d</fix>
</trkpt>
<trkpt lat="40.0713749" lon="-105.229789">
  <ele>1583.0</ele>
  <time>2026-08-28T17:56:32Z</time>
  <course>0.0</course>
  <speed>0.0</speed>
  <fix>3d</fix>
</trkpt>
<trkpt lat="40.0713749" lon="-105.229789">
  <ele>1583.0</ele>
  <time>2026-08-28T17:56:32Z</time>
  <course>245.57</course>
  <speed>0.0</speed>
  <fix>3d</fix>
</trkpt>
<trkpt lat="40.0713749" lon="-105.229789">
  <ele>1583.0</ele>
  <time>2026-08-28T17:56:32Z</time>
  <course>0.0</course>
  <speed>0.0</speed>
  <fix>3d</fix>
</trkpt>
<trkpt lat="40.0713749" lon="-105.229789">
  <ele>1583.0</ele>
  <time>2026-08-28T17:56:32Z</time>
  <course>245.71</course>
  <speed>0.0</speed>
  <fix>3d</fix>
</trkpt>
<trkpt lat="40.0713749" lon="-105.229789">
  <ele>1583.0</ele>
  <time>2026-08-28T17:56:32Z</time>
  <course>0.0</course>
  <speed>0.0</speed>
  <fix>3d</fix>
</trkpt>
<trkpt lat="40.0713749" lon="-105.229789">
  <ele>1583.0</ele>
  <time>2026-08-28T17:56:32Z</time>
  <course>245.83</course>
  <speed>0.0</speed>
  <fix>3d</fix>
</trkpt>
<trkpt lat="40.0713749" lon="-105.229789">
  <ele>1583.0</ele>
  <time>2026-08-28T17:56:32Z</time>
  <course>0.0</course>
  <speed>0.0</speed>
  <fix>3d</fix>
</trkpt>
<trkpt lat="40.0713749" lon="-105.229789">
  <ele>1583.0</ele>
  <time>2026-08-28T17:56:32Z</time>
  <course>245.96</course>
  <speed>0.0</speed>
  <fix>3d</fix>
</trkpt>
<trkpt lat="40.0713749" lon="-105.229789">
  <ele>1583.0</ele>
  <time>2026-08-28T17:56:32Z</time>
  <course>0.0</course>
  <speed>0.0</speed>
  <fix>3d</fix>
</trkpt>
<trkpt lat="40.0713749" lon="-105.229789">
  <ele>1583.0</ele>
  <time>2026-08-28T17:56:32Z</time>
  <course>246.08</course>
  <speed>0.0</speed>
  <fix>3d</fix>
</trkpt>
<trkpt lat="40.0713749" lon="-105.229789">
  <ele>1583.0</ele>
  <time>2026-08-28T17:56:32Z</time>
  <course>0.0</course>
  <speed>0.0</speed>
  <fix>3d</fix>
</trkpt>
<trkpt lat="40.0713749" lon="-105.229789">
  <ele>1583.0</ele>
  <time>2026-08-28T17:56:32Z</time>
  <course>246.19</course>
  <speed>0.0</speed>
  <fix>3d</fix>
</trkpt>
<trkpt lat="40.0713749" lon="-105.229789">
  <ele>1583.0</ele>
  <time>2026-08-28T17:56:32Z</time>
  <course>0.0</course>
  <speed>0.0</speed>
  <fix>3d</fix>
</trkpt>
<trkpt lat="40.0713749" lon="-105.229789">
  <ele>1583.0</ele>
  <time>2026-08-28T17:56:32Z</time>
  <course>246.3</course>
  <speed>0.0</speed>
  <fix>3d</fix>
</trkpt>
<trkpt lat="40.0713749" lon="-105.229789">
  <ele>1583.0</ele>
  <time>2026-08-28T17:56:32Z</time>
  <course>0.0</course>
  <speed>0.0</speed>
  <fix>3d</fix>
</trkpt>
<trkpt lat="40.0713749" lon="-105.229789">
  <ele>1583.0</ele>
  <time>2026-08-28T17:56:32Z</time>
  <course>246.41</course>
  <speed>0.0</speed>
  <fix>3d</fix>
</trkpt>
<trkpt lat="40.0713749" lon="-105.229789">
  <ele>1583.0</ele>
  <time>2026-08-28T17:56:32Z</time>
  <course>0.0</course>
  <speed>0.0</speed>
  <fix>3d</fix>
</trkpt>
<trkpt lat="40.0713749" lon="-105.229789">
  <ele>1583.0</ele>
  <time>2026-08-28T17:56:32Z</time>
  <course>246.51</course>
  <speed>0.0</speed>
  <fix>3d</fix>
</trkpt>
<trkpt lat="40.0713749" lon="-105.229789">
  <ele>1583.0</ele>
  <time>2026-08-28T17:56:32Z</time>
  <course>0.0</course>
  <speed>0.0</speed>
  <fix>3d</fix>
</trkpt>
<trkpt lat="40.0713749" lon="-105.229789">
  <ele>1583.0</ele>
  <time>2026-08-28T17:56:32Z</time>
  <course>246.6</course>
  <speed>0.0</speed>
  <fix>3d</fix>
</trkpt>
<trkpt lat="40.0713749" lon="-105.229789">
  <ele>1583.0</ele>
  <time>2026-08-28T17:56:32Z</time>
  <course>0.0</course>
  <speed>0.0</speed>
  <fix>3d</fix>
</trkpt>
<trkpt lat="40.0713749" lon="-105.229789">
  <ele>1583.0</ele>
  <time>2026-08-28T17:56:32Z</time>
  <course>246.69</course>
  <speed>0.0</speed>
  <fix>3d</fix>
</trkpt>
<trkpt lat="40.0713749" lon="-105.229789">
  <ele>1583.0</ele>
  <time>2026-08-28T17:56:32Z</time>
  <course>0.0</course>
  <speed>0.0</speed>
  <fix>3d</fix>
</trkpt>
<trkpt lat="40.0713749" lon="-105.229789">
  <ele>1583.0</ele>
  <time>2026-08-28T17:56:32Z</time>
  <course>246.78</course>
  <speed>0.0</speed>
  <fix>3d</fix>
</trkpt>
<trkpt lat="40.0713749" lon="-105.229789">
  <ele>1583.0</ele>
  <time>2026-08-28T17:56:32Z</time>
  <course>0.0</course>
  <speed>0.0</speed>
  <fix>3d</fix>
</trkpt>
<trkpt lat="40.0713749" lon="-105.229789">
  <ele>1583.0</ele>
  <time>2026-08-28T17:56:32Z</time>
  <course>246.86</course>
  <speed>0.0</speed>
  <fix>3d</fix>
</trkpt>
<trkpt lat="40.0713749" lon="-105.229789">
  <ele>1583.0</ele>
  <time>2026-08-28T17:56:32Z</time>
  <course>0.0</course>
  <speed>0.0</speed>
  <fix>3d</fix>
</trkpt>
<trkpt lat="40.0713749" lon="-105.229789">
  <ele>1583.0</ele>
  <time>2026-08-28T17:56:32Z</time>
  <course>246.95</course>
  <speed>0.0</speed>
  <fix>3d</fix>
</trkpt>
<trkpt lat="40.0713749" lon="-105.229789">
  <ele>1583.0</ele>
  <time>2026-08-28T17:56:32Z</time>
  <course>0.0</course>
  <speed>0.0</speed>
  <fix>3d</fix>
</trkpt>
<trkpt lat="40.0713749" lon="-105.229789">
  <ele>1583.0</ele>
  <time>2026-08-28T17:56:32Z</time>
  <course>247.02</course>
  <speed>0.0</speed>
  <fix>3d</fix>
</trkpt>
<trkpt lat="40.0713749" lon="-105.229789">
  <ele>1583.0</ele>
  <time>2026-08-28T17:56:32Z</time>
  <course>0.0</course>
  <speed>0.0</speed>
  <fix>3d</fix>
</trkpt>
<trkpt lat="40.0713749" lon="-105.229789">
  <ele>1583.0</ele>
  <time>2026-08-28T17:56:32Z</time>
  <course>247.1</course>
  <speed>0.0</speed>
  <fix>3d</fix>
</trkpt>
<trkpt lat="40.0713749" lon="-105.229789">
  <ele>1583.0</ele>
  <time>2026-08-28T17:56:32Z</time>
  <course>0.0</course>
  <speed>0.0</speed>
  <fix>3d</fix>
</trkpt>
<trkpt lat="40.0713749" lon="-105.229789">
  <ele>1583.0</ele>
  <time>2026-08-28T17:56:32Z</time>
  <course>247.17</course>
  <speed>0.0</speed>
  <fix>3d</fix>
</trkpt>
<trkpt lat="40.0713749" lon="-105.229789">
  <ele>1583.0</ele>
  <time>2026-08-28T17:56:32Z</time>
  <course>0.0</course>
  <speed>0.0</speed>
  <fix>3d</fix>
</trkpt>
<trkpt lat="40.0713749" lon="-105.229789">
  <ele>1583.0</ele>
  <time>2026-08-28T17:56:32Z</time>
  <course>247.23</course>
  <speed>0.0</speed>
  <fix>3d</fix>
</trkpt>
<trkpt lat="40.0713749" lon="-105.229789">
  <ele>1583.0</ele>
  <time>2026-08-28T17:56:32Z</time>
  <course>0.0</course>
  <speed>0.0</speed>
  <fix>3d</fix>
</trkpt>
<trkpt lat="40.0713749" lon="-105.229789">
  <ele>1583.0</ele>
  <time>2026-08-28T17:56:32Z</time>
  <course>247.3</course>
  <speed>0.0</speed>
  <fix>3d</fix>
</trkpt>
<trkpt lat="40.0713749" lon="-105.229789">
  <ele>1583.0</ele>
  <time>2026-08-28T17:56:32Z</time>
  <course>0.0</course>
  <speed>0.0</speed>
  <fix>3d</fix>
</trkpt>
<trkpt lat="40.0713749" lon="-105.229789">
  <ele>1583.0</ele>
  <time>2026-08-28T17:56:32Z</time>
  <course>247.36</course>
  <speed>0.0</speed>
  <fix>3d</fix>
</trkpt>
<trkpt lat="40.0713749" lon="-105.229789">
  <ele>1583.0</ele>
  <time>2026-08-28T17:56:32Z</time>
  <course>0.0</course>
  <speed>0.0</speed>
  <fix>3d</fix>
</trkpt>
<trkpt lat="40.0713749" lon="-105.229789">
  <ele>1583.0</ele>
  <time>2026-08-28T17:56:32Z</time>
  <course>247.42</course>
  <speed>0.0</speed>
  <fix>3d</fix>
</trkpt>
<trkpt lat="40.0713749" lon="-105.229789">
  <ele>1583.0</ele>
  <time>2026-08-28T17:56:32Z</time>
  <course>0.0</course>
  <speed>0.0</speed>
  <fix>3d</fix>
</trkpt>
<trkpt lat="40.0713749" lon="-105.229789">
  <ele>1583.0</ele>
  <time>2026-08-28T17:56:32Z</time>
  <course>247.47</course>
  <speed>0.0</speed>
  <fix>3d</fix>
</trkpt>
<trkpt lat="40.0713749" lon="-105.229789">
  <ele>1583.0</ele>
  <time>2026-08-28T17:56:32Z</time>
  <course>0.0</course>
  <speed>0.0</speed>
  <fix>3d</fix>
</trkpt>
<trkpt lat="40.0713749" lon="-105.229789">
  <ele>1583.0</ele>
  <time>2026-08-28T17:56:32Z</time>
  <course>247.52</course>
  <speed>0.0</speed>
  <fix>3d</fix>
</trkpt>
<trkpt lat="40.0713749" lon="-105.229789">
  <ele>1583.0</ele>
  <time>2026-08-28T17:56:32Z</time>
  <course>0.0</course>
  <speed>0.0</speed>
  <fix>3d</fix>
</trkpt>
<trkpt lat="40.0713749" lon="-105.229789">
  <ele>1583.0</ele>
  <time>2026-08-28T17:56:32Z</time>
  <course>247.57</course>
  <speed>0.0</speed>
  <fix>3d</fix>
</trkpt>
<trkpt lat="40.0713749" lon="-105.229789">
  <ele>1583.0</ele>
  <time>2026-08-28T17:56:32Z</time>
  <course>0.0</course>
  <speed>0.0</speed>
  <fix>3d</fix>
</trkpt>
<trkpt lat="40.0713749" lon="-105.229789">
  <ele>1583.0</ele>
  <time>2026-08-28T17:56:32Z</time>
  <course>247.62</course>
  <speed>0.0</speed>
  <fix>3d</fix>
</trkpt>
<trkpt lat="40.0713749" lon="-105.229789">
  <ele>1583.0</ele>
  <time>2026-08-28T17:56:32Z</time>
  <course>0.0</course>
  <speed>0.0</speed>
  <fix>3d</fix>
</trkpt>
<trkpt lat="40.0713749" lon="-105.229789">
  <ele>1583.0</ele>
  <time>2026-08-28T17:56:32Z</time>
  <course>247.67</course>
  <speed>0.0</speed>
  <fix>3d</fix>
</trkpt>
<trkpt lat="40.0713749" lon="-105.229789">
  <ele>1583.0</ele>
  <time>2026-08-28T17:56:32Z</time>
  <course>0.0</course>
  <speed>0.0</speed>
  <fix>3d</fix>
</trkpt>
<trkpt lat="40.0713749" lon="-105.229789">
  <ele>1583.0</ele>
  <time>2026-08-28T17:56:32Z</time>
  <course>247.71</course>
  <speed>0.0</speed>
  <fix>3d</fix>
</trkpt>
<trkpt lat="40.0713749" lon="-105.229789">
  <ele>1583.0</ele>
  <time>2026-08-28T17:56:32Z</time>
  <course>0.0</course>
  <speed>0.0</speed>
  <fix>3d</fix>
</trkpt>
<trkpt lat="40.0713749" lon="-105.229789">
  <ele>1583.0</ele>
  <time>2026-08-28T17:56:32Z</time>
  <course>247.75</course>
  <speed>0.0</speed>
  <fix>3d</fix>
</trkpt>
<trkpt lat="40.0713749" lon="-105.229789">
  <ele>1583.0</ele>
  <time>2026-08-28T17:56:32Z</time>
  <course>0.0</course>
  <speed>0.0</speed>
  <fix>3d</fix>
</trkpt>
<trkpt lat="40.0713749" lon="-105.229789">
  <ele>1583.0</ele>
  <time>2026-08-28T17:56:32Z</time>
  <course>247.79</course>
  <speed>0.0</speed>
  <fix>3d</fix>
</trkpt>
<trkpt lat="40.0713749" lon="-105.229789">
  <ele>1583.0</ele>
  <time>2026-08-28T17:56:32Z</time>
  <course>0.0</course>
  <speed>0.0</speed>
  <fix>3d</fix>
</trkpt>
<trkpt lat="40.0713749" lon="-105.229789">
  <ele>1583.0</ele>
  <time>2026-08-28T17:56:32Z</time>
  <course>247.83</course>
  <speed>0.0</speed>
  <fix>3d</fix>
</trkpt>
<trkpt lat="40.0713749" lon="-105.229789">
  <ele>1583.0</ele>
  <time>2026-08-28T17:56:32Z</time>
  <course>0.0</course>
  <speed>0.0</speed>
  <fix>3d</fix>
</trkpt>
<trkpt lat="40.0713749" lon="-105.229789">
  <ele>1583.0</ele>
  <time>2026-08-28T17:56:32Z</time>
  <course>247.87</course>
  <speed>0.0</speed>
  <fix>3d</fix>
</trkpt>
<trkpt lat="40.0713749" lon="-105.229789">
  <ele>1583.0</ele>
  <time>2026-08-28T17:56:32Z</time>
  <course>0.0</course>
  <speed>0.0</speed>
  <fix>3d</fix>
</trkpt>
<trkpt lat="40.0713749" lon="-105.229789">
  <ele>1583.0</ele>
  <time>2026-08-28T17:56:32Z</time>
  <course>247.9</course>
  <speed>0.0</speed>
  <fix>3d</fix>
</trkpt>
<trkpt lat="40.0713749" lon="-105.229789">
  <ele>1583.0</ele>
  <time>2026-08-28T17:56:32Z</time>
  <course>0.0</course>
  <speed>0.0</speed>
  <fix>3d</fix>
</trkpt>
<trkpt lat="40.0713749" lon="-105.229789">
  <ele>1583.0</ele>
  <time>2026-08-28T17:56:32Z</time>
  <course>247.93</course>
  <speed>0.0</speed>
  <fix>3d</fix>
</trkpt>
<trkpt lat="40.0713749" lon="-105.229789">
  <ele>1583.0</ele>
  <time>2026-08-28T17:56:32Z</time>
  <course>0.0</course>
  <speed>0.0</speed>
  <fix>3d</fix>
</trkpt>
<trkpt lat="40.0713749" lon="-105.229789">
  <ele>1583.0</ele>
  <time>2026-08-28T17:56:32Z</time>
  <course>247.96</course>
  <speed>0.0</speed>
  <fix>3d</fix>
</trkpt>
<trkpt lat="40.0713749" lon="-105.229789">
  <ele>1583.0</ele>
  <time>2026-08-28T17:56:32Z</time>
  <course>0.0</course>
  <speed>0.0</speed>
  <fix>3d</fix>
</trkpt>
<trkpt lat="40.0713749" lon="-105.229789">
  <ele>1583.0</ele>
  <time>2026-08-28T17:56:32Z</time>
  <course>247.99</course>
  <speed>0.0</speed>
  <fix>3d</fix>
</trkpt>
<trkpt lat="40.0713749" lon="-105.229789">
  <ele>1583.0</ele>
  <time>2026-08-28T17:56:32Z</time>
  <course>0.0</course>
  <speed>0.0</speed>
  <fix>3d</fix>
</trkpt>
<trkpt lat="40.0713749" lon="-105.229789">
  <ele>1583.0</ele>
  <time>2026-08-28T17:56:32Z</time>
  <course>248.02</course>
  <speed>0.0</speed>
  <fix>3d</fix>
</trkpt>
<trkpt lat="40.0713749" lon="-105.229789">
  <ele>1583.0</ele>
  <time>2026-08-28T17:56:32Z</time>
  <course>0.0</course>
  <speed>0.0</speed>
  <fix>3d</fix>
</trkpt>
<trkpt lat="40.0713749" lon="-105.229789">
  <ele>1583.0</ele>
  <time>2026-08-28T17:56:32Z</time>
  <course>248.05</course>
  <speed>0.0</speed>
  <fix>3d</fix>
</trkpt>
<trkpt lat="40.0713749" lon="-105.229789">
  <ele>1583.0</ele>
  <time>2026-08-28T17:56:32Z</time>
  <course>0.0</course>
  <speed>0.0</speed>
  <fix>3d</fix>
</trkpt>
<trkpt lat="40.0713749" lon="-105.229789">
  <ele>1583.0</ele>
  <time>2026-08-28T17:56:32Z</time>
  <course>248.07</course>
  <speed>0.0</speed>
  <fix>3d</fix>
</trkpt>
<trkpt lat="40.0713749" lon="-105.229789">
  <ele>1583.0</ele>
  <time>2026-08-28T17:56:32Z</time>
  <course>0.0</course>
  <speed>0.0</speed>
  <fix>3d</fix>
</trkpt>
<trkpt lat="40.0713749" lon="-105.229789">
  <ele>1583.0</ele>
  <time>2026-08-28T17:56:32Z</time>
  <course>248.1</course>
  <speed>0.0</speed>
  <fix>3d</fix>
</trkpt>
<trkpt lat="40.0713749" lon="-105.229789">
  <ele>1583.0</ele>
  <time>2026-08-28T17:56:32Z</time>
  <course>0.0</course>
  <speed>0.0</speed>
  <fix>3d</fix>
</trkpt>
<trkpt lat="40.0713749" lon="-105.229789">
  <ele>1583.0</ele>
  <time>2026-08-28T17:56:32Z</time>
  <course>248.12</course>
  <speed>0.0</speed>
  <fix>3d</fix>
</trkpt>
<trkpt lat="40.0713749" lon="-105.229789">
  <ele>1583.0</ele>
  <time>2026-08-28T17:56:32Z</time>
  <course>0.0</course>
  <speed>0.0</speed>
  <fix>3d</fix>
</trkpt>
<trkpt lat="40.0713749" lon="-105.229789">
  <ele>1583.0</ele>
  <time>2026-08-28T17:56:32Z</time>
  <course>248.14</course>
  <speed>0.0</speed>
  <fix>3d</fix>
</trkpt>
<trkpt lat="40.0713749" lon="-105.229789">
  <ele>1583.0</ele>
  <time>2026-08-28T17:56:32Z</time>
  <course>0.0</course>
  <speed>0.0</speed>
  <fix>3d</fix>
</trkpt>
<trkpt lat="40.0713749" lon="-105.229789">
  <ele>1583.0</ele>
  <time>2026-08-28T17:56:32Z</time>
  <course>248.16</course>
  <speed>0.0</speed>
  <fix>3d</fix>
</trkpt>
<trkpt lat="40.0713749" lon="-105.229789">
  <ele>1583.0</ele>
  <time>2026-08-28T17:56:32Z</time>
  <course>0.0</course>
  <speed>0.0</speed>
  <fix>3d</fix>
</trkpt>
<trkpt lat="40.0713749" lon="-105.229789">
  <ele>1583.0</ele>
  <time>2026-08-28T17:56:32Z</time>
  <course>248.18</course>
  <speed>0.0</speed>
  <fix>3d</fix>
</trkpt>
<trkpt lat="40.0713749" lon="-105.229789">
  <ele>1583.0</ele>
  <time>2026-08-28T17:56:32Z</time>
  <course>0.0</course>
  <speed>0.0</speed>
  <fix>3d</fix>
</trkpt>
<trkpt lat="40.0713749" lon="-105.229789">
  <ele>1583.0</ele>
  <time>2026-08-28T17:56:32Z</time>
  <course>248.2</course>
  <speed>0.0</speed>
  <fix>3d</fix>
</trkpt>
<trkpt lat="40.0713749" lon="-105.229789">
  <ele>1583.0</ele>
  <time>2026-08-28T17:56:32Z</time>
  <course>0.0</course>
  <speed>0.0</speed>
  <fix>3d</fix>
</trkpt>
<trkpt lat="40.0713749" lon="-105.229789">
  <ele>1583.0</ele>
  <time>2026-08-28T17:56:32Z</time>
  <course>248.21</course>
  <speed>0.0</speed>
  <fix>3d</fix>
</trkpt>
<trkpt lat="40.0713749" lon="-105.229789">
  <ele>1583.0</ele>
  <time>2026-08-28T17:56:32Z</time>
  <course>0.0</course>
  <speed>0.0</speed>
  <fix>3d</fix>
</trkpt>
<trkpt lat="40.0713749" lon="-105.229789">
  <ele>1583.0</ele>
  <time>2026-08-28T17:56:32Z</time>
  <course>248.23</course>
  <speed>0.0</speed>
  <fix>3d</fix>
</trkpt>
<trkpt lat="40.0713749" lon="-105.229789">
  <ele>1583.0</ele>
  <time>2026-08-28T17:56:32Z</time>
  <course>0.0</course>
  <speed>0.0</speed>
  <fix>3d</fix>
</trkpt>
<trkpt lat="40.0713749" lon="-105.229789">
  <ele>1583.0</ele>
  <time>2026-08-28T17:56:32Z</time>
  <course>248.24</course>
  <speed>0.0</speed>
  <fix>3d</fix>
</trkpt>
<trkpt lat="40.0713749" lon="-105.229789">
  <ele>1583.0</ele>
  <time>2026-08-28T17:56:32Z</time>
  <course>0.0</course>
  <speed>0.0</speed>
  <fix>3d</fix>
</trkpt>
<trkpt lat="40.0713749" lon="-105.229789">
  <ele>1583.0</ele>
  <time>2026-08-28T17:56:32Z</time>
  <course>248.26</course>
  <speed>0.0</speed>
  <fix>3d</fix>
</trkpt>
<trkpt lat="40.0713749" lon="-105.229789">
  <ele>1583.0</ele>
  <time>2026-08-28T17:56:32Z</time>
  <course>0.0</course>
  <speed>0.0</speed>
  <fix>3d</fix>
</trkpt>
<trkpt lat="40.0713749" lon="-105.229789">
  <ele>1583.0</ele>
  <time>2026-08-28T17:56:32Z</time>
  <course>248.27</course>
  <speed>0.0</speed>
  <fix>3d</fix>
</trkpt>
<trkpt lat="40.0713749" lon="-105.229789">
  <ele>1583.0</ele>
  <time>2026-08-28T17:56:32Z</time>
  <course>0.0</course>
  <speed>0.0</speed>
  <fix>3d</fix>
</trkpt>
<trkpt lat="40.0713749" lon="-105.229789">
  <ele>1583.0</ele>
  <time>2026-08-28T17:56:32Z</time>
  <course>248.28</course>
  <speed>0.0</speed>
  <fix>3d</fix>
</trkpt>
<trkpt lat="40.0713749" lon="-105.229789">
  <ele>1583.0</ele>
  <time>2026-08-28T17:56:32Z</time>
  <course>0.0</course>
  <speed>0.0</speed>
  <fix>3d</fix>
</trkpt>
<trkpt lat="40.0713749" lon="-105.229789">
  <ele>1583.0</ele>
  <time>2026-08-28T17:56:32Z</time>
  <course>248.29</course>
  <speed>0.0</speed>
  <fix>3d</fix>
</trkpt>
<trkpt lat="40.0713749" lon="-105.229789">
  <ele>1583.0</ele>
  <time>2026-08-28T17:56:32Z</time>
  <course>0.0</course>
  <speed>0.0</speed>
  <fix>3d</fix>
</trkpt>
<trkpt lat="40.0713749" lon="-105.229789">
  <ele>1583.0</ele>
  <time>2026-08-28T17:56:32Z</time>
  <course>248.3</course>
  <speed>0.0</speed>
  <fix>3d</fix>
</trkpt>
<trkpt lat="40.0713749" lon="-105.229789">
  <ele>1583.0</ele>
  <time>2026-08-28T17:56:32Z</time>
  <course>0.0</course>
  <speed>0.0</speed>
  <fix>3d</fix>
</trkpt>
<trkpt lat="40.0713749" lon="-105.229789">
  <ele>1583.0</ele>
  <time>2026-08-28T17:56:32Z</time>
  <course>248.31</course>
  <speed>0.0</speed>
  <fix>3d</fix>
</trkpt>
<trkpt lat="40.0713749" lon="-105.229789">
  <ele>1583.0</ele>
  <time>2026-08-28T17:56:32Z</time>
  <course>0.0</course>
  <speed>0.0</speed>
  <fix>3d</fix>
</trkpt>
<trkpt lat="40.0713749" lon="-105.229789">
  <ele>1583.0</ele>
  <time>2026-08-28T17:56:32Z</time>
  <course>248.32</course>
  <speed>0.0</speed>
  <fix>3d</fix>
</trkpt>
<trkpt lat="40.0713749" lon="-105.229789">
  <ele>1583.0</ele>
  <time>2026-08-28T17:56:32Z</time>
  <course>0.0</course>
  <speed>0.0</speed>
  <fix>3d</fix>
</trkpt>
<trkpt lat="40.0713749" lon="-105.229789">
  <ele>1583.0</ele>
  <time>2026-08-28T17:56:32Z</time>
  <course>248.33</course>
  <speed>0.0</speed>
  <fix>3d</fix>
</trkpt>
<trkpt lat="40.0713749" lon="-105.229789">
  <ele>1583.0</ele>
  <time>2026-08-28T17:56:32Z</time>
  <course>0.0</course>
  <speed>0.0</speed>
  <fix>3d</fix>
</trkpt>
<trkpt lat="40.0713749" lon="-105.229789">
  <ele>1583.0</ele>
  <time>2026-08-28T17:56:32Z</time>
  <course>248.34</course>
  <speed>0.0</speed>
  <fix>3d</fix>
</trkpt>
<trkpt lat="40.0713749" lon="-105.229789">
  <ele>1583.0</ele>
  <time>2026-08-28T17:56:32Z</time>
  <course>0.0</course>
  <speed>0.0</speed>
  <fix>3d</fix>
</trkpt>
<trkpt lat="40.0713749" lon="-105.229789">
  <ele>1583.0</ele>
  <time>2026-08-28T17:56:32Z</time>
  <course>248.35</course>
  <speed>0.0</speed>
  <fix>3d</fix>
</trkpt>
<trkpt lat="40.0713749" lon="-105.229789">
  <ele>1583.0</ele>
  <time>2026-08-28T17:56:32Z</time>
  <course>0.0</course>
  <speed>0.0</speed>
  <fix>3d</fix>
</trkpt>
<trkpt lat="40.0713749" lon="-105.229789">
  <ele>1583.0</ele>
  <time>2026-08-28T17:56:32Z</time>
  <course>248.36</course>
  <speed>0.0</speed>
  <fix>3d</fix>
</trkpt>
<trkpt lat="40.0713749" lon="-105.229789">
  <ele>1583.0</ele>
  <time>2026-08-28T17:56:32Z</time>
  <course>0.0</course>
  <speed>0.0</speed>
  <fix>3d</fix>
</trkpt>
<trkpt lat="40.0713749" lon="-105.229789">
  <ele>1583.0</ele>
  <time>2026-08-28T17:56:32Z</time>
  <course>248.36</course>
  <speed>0.0</speed>
  <fix>3d</fix>
</trkpt>
<trkpt lat="40.0713749" lon="-105.229789">
  <ele>1583.0</ele>
  <time>2026-08-28T17:56:32Z</time>
  <course>0.0</course>
  <speed>0.0</speed>
  <fix>3d</fix>
</trkpt>
<trkpt lat="40.0713749" lon="-105.229789">
  <ele>1583.0</ele>
  <time>2026-08-28T17:56:32Z</time>
  <course>248.37</course>
  <speed>0.0</speed>
  <fix>3d</fix>
</trkpt>
<trkpt lat="40.0713749" lon="-105.229789">
  <ele>1583.0</ele>
  <time>2026-08-28T17:56:32Z</time>
  <course>0.0</course>
  <speed>0.0</speed>
  <fix>3d</fix>
</trkpt>
<trkpt lat="40.0713749" lon="-105.229789">
  <ele>1583.0</ele>
  <time>2026-08-28T17:56:32Z</time>
  <course>248.37</course>
  <speed>0.0</speed>
  <fix>3d</fix>
</trkpt>
<trkpt lat="40.0713749" lon="-105.229789">
  <ele>1583.0</ele>
  <time>2026-08-28T17:56:32Z</time>
  <course>0.0</course>
  <speed>0.0</speed>
  <fix>3d</fix>
</trkpt>
<trkpt lat="40.0713749" lon="-105.229789">
  <ele>1583.0</ele>
  <time>2026-08-28T17:56:32Z</time>
  <course>248.38</course>
  <speed>0.0</speed>
  <fix>3d</fix>
</trkpt>
<trkpt lat="40.0713749" lon="-105.229789">
  <ele>1583.0</ele>
  <time>2026-08-28T17:56:32Z</time>
  <course>0.0</course>
  <speed>0.0</speed>
  <fix>3d</fix>
</trkpt>
<trkpt lat="40.0713749" lon="-105.229789">
  <ele>1583.0</ele>
  <time>2026-08-28T17:56:32Z</time>
  <course>248.38</course>
  <speed>0.0</speed>
  <fix>3d</fix>
</trkpt>
<trkpt lat="40.0713749" lon="-105.229789">
  <ele>1583.0</ele>
  <time>2026-08-28T17:56:32Z</time>
  <course>0.0</course>
  <speed>0.0</speed>
  <fix>3d</fix>
</trkpt>
<trkpt lat="40.0713749" lon="-105.229789">
  <ele>1583.0</ele>
  <time>2026-08-28T17:56:32Z</time>
  <course>248.39</course>
  <speed>0.0</speed>
  <fix>3d</fix>
</trkpt>
<trkpt lat="40.0713749" lon="-105.229789">
  <ele>1583.0</ele>
  <time>2026-08-28T17:56:32Z</time>
  <course>0.0</course>
  <speed>0.0</speed>
  <fix>3d</fix>
</trkpt>
<trkpt lat="40.0713749" lon="-105.229789">
  <ele>1583.0</ele>
  <time>2026-08-28T17:56:32Z</time>
  <course>248.39</course>
  <speed>0.0</speed>
  <fix>3d</fix>
</trkpt>
<trkpt lat="40.0713749" lon="-105.229789">
  <ele>1583.0</ele>
  <time>2026-08-28T17:56:32Z</time>
  <course>0.0</course>
  <speed>0.0</speed>
  <fix>3d</fix>
</trkpt>
<trkpt lat="40.0713749" lon="-105.229789">
  <ele>1583.0</ele>
  <time>2026-08-28T17:56:32Z</time>
  <course>248.39</course>
  <speed>0.0</speed>
  <fix>3d</fix>
</trkpt>
<trkpt lat="40.0713749" lon="-105.229789">
  <ele>1583.0</ele>
  <time>2026-08-28T17:56:32Z</time>
  <course>0.0</course>
  <speed>0.0</speed>
  <fix>3d</fix>
</trkpt>
<trkpt lat="40.0713749" lon="-105.229789">
  <ele>1583.0</ele>
  <time>2026-08-28T17:56:32Z</time>
  <course>248.4</course>
  <speed>0.0</speed>
  <fix>3d</fix>
</trkpt>
<trkpt lat="40.0713749" lon="-105.229789">
  <ele>1583.0</ele>
  <time>2026-08-28T17:56:32Z</time>
  <course>0.0</course>
  <speed>0.0</speed>
  <fix>3d</fix>
</trkpt>
<trkpt lat="40.0713749" lon="-105.229789">
  <ele>1583.0</ele>
  <time>2026-08-28T17:56:32Z</time>
  <course>248.4</course>
  <speed>0.0</speed>
  <fix>3d</fix>
</trkpt>
<trkpt lat="40.0713749" lon="-105.229789">
  <ele>1583.0</ele>
  <time>2026-08-28T17:56:32Z</time>
  <course>0.0</course>
  <speed>0.0</speed>
  <fix>3d</fix>
</trkpt>
<trkpt lat="40.0713749" lon="-105.229789">
  <ele>1583.0</ele>
  <time>2026-08-28T17:56:32Z</time>
  <course>248.4</course>
  <speed>0.0</speed>
  <fix>3d</fix>
</trkpt>
<trkpt lat="40.0713749" lon="-105.229789">
  <ele>1583.0</ele>
  <time>2026-08-28T17:56:32Z</time>
  <course>0.0</course>
  <speed>0.0</speed>
  <fix>3d</fix>
</trkpt>
<trkpt lat="40.0713749" lon="-105.229789">
  <ele>1583.0</ele>
  <time>2026-08-28T17:56:32Z</time>
  <course>248.4</course>
  <speed>0.0</speed>
  <fix>3d</fix>
</trkpt>
<trkpt lat="40.0713749" lon="-105.229789">
  <ele>1583.0</ele>
  <time>2026-08-28T17:56:32Z</time>
  <course>0.0</course>
  <speed>0.0</speed>
  <fix>3d</fix>
</trkpt>
<trkpt lat="40.0713749" lon="-105.229789">
  <ele>1583.0</ele>
  <time>2026-08-28T17:56:32Z</time>
  <course>248.4</course>
  <speed>0.0</speed>
  <fix>3d</fix>
</trkpt>
<trkpt lat="40.0713749" lon="-105.229789">
  <ele>1583.0</ele>
  <time>2026-08-28T17:56:32Z</time>
  <course>0.0</course>
  <speed>0.0</speed>
  <fix>3d</fix>
</trkpt>
<trkpt lat="40.0713749" lon="-105.229789">
  <ele>1583.0</ele>
  <time>2026-08-28T17:56:32Z</time>
  <course>248.4</course>
  <speed>0.0</speed>
  <fix>3d</fix>
</trkpt>
<trkpt lat="40.0713749" lon="-105.229789">
  <ele>1583.0</ele>
  <time>2026-08-28T17:56:32Z</time>
  <course>0.0</course>
  <speed>0.0</speed>
  <fix>3d</fix>
</trkpt>
<trkpt lat="40.0713749" lon="-105.229789">
  <ele>1583.0</ele>
  <time>2026-08-28T17:56:32Z</time>
  <course>248.4</course>
  <speed>0.0</speed>
  <fix>3d</fix>
</trkpt>
<trkpt lat="40.0713749" lon="-105.229789">
  <ele>1583.0</ele>
  <time>2026-08-28T17:56:32Z</time>
  <course>0.0</course>
  <speed>0.0</speed>
  <fix>3d</fix>
</trkpt>
<trkpt lat="40.0713749" lon="-105.229789">
  <ele>1583.0</ele>
  <time>2026-08-28T17:56:32Z</time>
  <course>248.41</course>
  <speed>0.0</speed>
  <fix>3d</fix>
</trkpt>
<trkpt lat="40.0713749" lon="-105.229789">
  <ele>1583.0</ele>
  <time>2026-08-28T17:56:32Z</time>
  <course>0.0</course>
  <speed>0.0</speed>
  <fix>3d</fix>
</trkpt>
<trkpt lat="40.0713749" lon="-105.229789">
  <ele>1583.0</ele>
  <time>2026-08-28T17:56:32Z</time>
  <course>248.41</course>
  <speed>0.0</speed>
  <fix>3d</fix>
</trkpt>
<trkpt lat="40.0713749" lon="-105.229789">
  <ele>1583.0</ele>
  <time>2026-08-28T17:56:32Z</time>
  <course>0.0</course>
  <speed>0.0</speed>
  <fix>3d</fix>
</trkpt>
<trkpt lat="40.0713749" lon="-105.229789">
  <ele>1583.0</ele>
  <time>2026-08-28T17:56:32Z</time>
  <course>248.41</course>
  <speed>0.0</speed>
  <fix>3d</fix>
</trkpt>
<trkpt lat="40.0713749" lon="-105.229789">
  <ele>1583.0</ele>
  <time>2026-08-28T17:56:32Z</time>
  <course>0.0</course>
  <speed>0.0</speed>
  <fix>3d</fix>
</trkpt>
<trkpt lat="40.0713749" lon="-105.229789">
  <ele>1583.0</ele>
  <time>2026-08-28T17:56:32Z</time>
  <course>248.41</course>
  <speed>0.0</speed>
  <fix>3d</fix>
</trkpt>
<trkpt lat="40.0713749" lon="-105.229789">
  <ele>1583.0</ele>
  <time>2026-08-28T17:56:32Z</time>
  <course>0.0</course>
  <speed>0.0</speed>
  <fix>3d</fix>
</trkpt>
<trkpt lat="40.0713749" lon="-105.229789">
  <ele>1583.0</ele>
  <time>2026-08-28T17:56:32Z</time>
  <course>248.41</course>
  <speed>0.0</speed>
  <fix>3d</fix>
</trkpt>
<trkpt lat="40.0713749" lon="-105.229789">
  <ele>1583.0</ele>
  <time>2026-08-28T17:56:32Z</time>
  <course>0.0</course>
  <speed>0.0</speed>
  <fix>3d</fix>
</trkpt>
<trkpt lat="40.0713749" lon="-105.229789">
  <ele>1583.0</ele>
  <time>2026-08-28T17:56:32Z</time>
  <course>248.41</course>
  <speed>0.0</speed>
  <fix>3d</fix>
</trkpt>
<trkpt lat="40.0713749" lon="-105.229789">
  <ele>1583.0</ele>
  <time>2026-08-28T17:56:32Z</time>
  <course>0.0</course>
  <speed>0.0</speed>
  <fix>3d</fix>
</trkpt>
<trkpt lat="40.0713749" lon="-105.229789">
  <ele>1583.0</ele>
  <time>2026-08-28T17:56:32Z</time>
  <course>248.4</course>
  <speed>0.0</speed>
  <fix>3d</fix>
</trkpt>
<trkpt lat="40.0713749" lon="-105.229789">
  <ele>1583.0</ele>
  <time>2026-08-28T17:56:32Z</time>
  <course>0.0</course>
  <speed>0.0</speed>
  <fix>3d</fix>
</trkpt>
<trkpt lat="40.0713749" lon="-105.229789">
  <ele>1583.0</ele>
  <time>2026-08-28T17:56:32Z</time>
  <course>248.4</course>
  <speed>0.0</speed>
  <fix>3d</fix>
</trkpt>
<trkpt lat="40.0713749" lon="-105.229789">
  <ele>1583.0</ele>
  <time>2026-08-28T17:56:32Z</time>
  <course>0.0</course>
  <speed>0.0</speed>
  <fix>3d</fix>
</trkpt>
<trkpt lat="40.0713749" lon="-105.229789">
  <ele>1583.0</ele>
  <time>2026-08-28T17:56:32Z</time>
  <course>248.4</course>
  <speed>0.0</speed>
  <fix>3d</fix>
</trkpt>
<trkpt lat="40.0713749" lon="-105.229789">
  <ele>1583.0</ele>
  <time>2026-08-28T17:56:32Z</time>
  <course>0.0</course>
  <speed>0.0</speed>
  <fix>3d</fix>
</trkpt>
<trkpt lat="40.0713749" lon="-105.229789">
  <ele>1583.0</ele>
  <time>2026-08-28T17:56:32Z</time>
  <course>248.4</course>
  <speed>0.0</speed>
  <fix>3d</fix>
</trkpt>
<trkpt lat="40.0713749" lon="-105.229789">
  <ele>1583.0</ele>
  <time>2026-08-28T17:56:32Z</time>
  <course>0.0</course>
  <speed>0.0</speed>
  <fix>3d</fix>
</trkpt>
<trkpt lat="40.0713749" lon="-105.229789">
  <ele>1583.0</ele>
  <time>2026-08-28T17:56:32Z</time>
  <course>248.4</course>
  <speed>0.0</speed>
  <fix>3d</fix>
</trkpt>
<trkpt lat="40.0713749" lon="-105.229789">
  <ele>1583.0</ele>
  <time>2026-08-28T17:56:32Z</time>
  <course>0.0</course>
  <speed>0.0</speed>
  <fix>3d</fix>
</trkpt>
<trkpt lat="40.0713749" lon="-105.229789">
  <ele>1583.0</ele>
  <time>2026-08-28T17:56:32Z</time>
  <course>248.4</course>
  <speed>0.0</speed>
  <fix>3d</fix>
</trkpt>
<trkpt lat="40.0713749" lon="-105.229789">
  <ele>1583.0</ele>
  <time>2026-08-28T17:56:32Z</time>
  <course>0.0</course>
  <speed>0.0</speed>
  <fix>3d</fix>
</trkpt>
<trkpt lat="40.0713749" lon="-105.229789">
  <ele>1583.0</ele>
  <time>2026-08-28T17:56:32Z</time>
  <course>248.4</course>
  <speed>0.0</speed>
  <fix>3d</fix>
</trkpt>
<trkpt lat="40.0713749" lon="-105.229789">
  <ele>1583.0</ele>
  <time>2026-08-28T17:56:32Z</time>
  <course>0.0</course>
  <speed>0.0</speed>
  <fix>3d</fix>
</trkpt>
<trkpt lat="40.0713749" lon="-105.229789">
  <ele>1583.0</ele>
  <time>2026-08-28T17:56:32Z</time>
  <course>248.39</course>
  <speed>0.01</speed>
  <fix>3d</fix>
</trkpt>
<trkpt lat="40.0713749" lon="-105.229789">
  <ele>1583.0</ele>
  <time>2026-08-28T17:56:32Z</time>
  <course>0.0</course>
  <speed>0.0</speed>
  <fix>3d</fix>
</trkpt>
<trkpt lat="40.0713749" lon="-105.229789">
  <ele>1583.0</ele>
  <time>2026-08-28T17:56:32Z</time>
  <course>248.39</course>
  <speed>0.01</speed>
  <fix>3d</fix>
</trkpt>
<trkpt lat="40.0713749" lon="-105.229789">
  <ele>1583.0</ele>
  <time>2026-08-28T17:56:32Z</time>
  <course>0.0</course>
  <speed>0.0</speed>
  <fix>3d</fix>
</trkpt>
<trkpt lat="40.0713749" lon="-105.229789">
  <ele>1583.0</ele>
  <time>2026-08-28T17:56:32Z</time>
  <course>248.39</course>
  <speed>0.01</speed>
  <fix>3d</fix>
</trkpt>
<trkpt lat="40.0713749" lon="-105.229789">
  <ele>1583.0</ele>
  <time>2026-08-28T17:56:32Z</time>
  <course>0.0</course>
  <speed>0.0</speed>
  <fix>3d</fix>
</trkpt>
<trkpt lat="40.0713749" lon="-105.229789">
  <ele>1583.0</ele>
  <time>2026-08-28T17:56:32Z</time>
  <course>248.39</course>
  <speed>0.01</speed>
  <fix>3d</fix>
</trkpt>
<trkpt lat="40.0713749" lon="-105.229789">
  <ele>1583.0</ele>
  <time>2026-08-28T17:56:32Z</time>
  <course>0.0</course>
  <speed>0.0</speed>
  <fix>3d</fix>
</trkpt>
<trkpt lat="40.0713749" lon="-105.229789">
  <ele>1583.0</ele>
  <time>2026-08-28T17:56:32Z</time>
  <course>248.38</course>
  <speed>0.01</speed>
  <fix>3d</fix>
</trkpt>
<trkpt lat="40.0713749" lon="-105.229789">
  <ele>1583.0</ele>
  <time>2026-08-28T17:56:32Z</time>
  <course>0.0</course>
  <speed>0.0</speed>
  <fix>3d</fix>
</trkpt>
<trkpt lat="40.0713749" lon="-105.229789">
  <ele>1583.0</ele>
  <time>2026-08-28T17:56:32Z</time>
  <course>248.38</course>
  <speed>0.01</speed>
  <fix>3d</fix>
</trkpt>
<trkpt lat="40.0713749" lon="-105.229789">
  <ele>1583.0</ele>
  <time>2026-08-28T17:56:32Z</time>
  <course>0.0</course>
  <speed>0.0</speed>
  <fix>3d</fix>
</trkpt>
<trkpt lat="40.0713749" lon="-105.229789">
  <ele>1583.0</ele>
  <time>2026-08-28T17:56:32Z</time>
  <course>248.38</course>
  <speed>0.01</speed>
  <fix>3d</fix>
</trkpt>
<trkpt lat="40.0713749" lon="-105.229789">
  <ele>1583.0</ele>
  <time>2026-08-28T17:56:32Z</time>
  <course>0.0</course>
  <speed>0.0</speed>
  <fix>3d</fix>
</trkpt>
<trkpt lat="40.0713749" lon="-105.229789">
  <ele>1583.0</ele>
  <time>2026-08-28T17:56:32Z</time>
  <course>248.37</course>
  <speed>0.01</speed>
  <fix>3d</fix>
</trkpt>
<trkpt lat="40.0713749" lon="-105.229789">
  <ele>1583.0</ele>
  <time>2026-08-28T17:56:32Z</time>
  <course>0.0</course>
  <speed>0.0</speed>
  <fix>3d</fix>
</trkpt>
<trkpt lat="40.0713749" lon="-105.229789">
  <ele>1583.0</ele>
  <time>2026-08-28T17:56:32Z</time>
  <course>248.37</course>
  <speed>0.01</speed>
  <fix>3d</fix>
</trkpt>
<trkpt lat="40.0713749" lon="-105.229789">
  <ele>1583.0</ele>
  <time>2026-08-28T17:56:32Z</time>
  <course>0.0</course>
  <speed>0.0</speed>
  <fix>3d</fix>
</trkpt>
<trkpt lat="40.0713749" lon="-105.229789">
  <ele>1583.0</ele>
  <time>2026-08-28T17:56:32Z</time>
  <course>248.37</course>
  <speed>0.01</speed>
  <fix>3d</fix>
</trkpt>
<trkpt lat="40.0713749" lon="-105.229789">
  <ele>1583.0</ele>
  <time>2026-08-28T17:56:32Z</time>
  <course>0.0</course>
  <speed>0.0</speed>
  <fix>3d</fix>
</trkpt>
<trkpt lat="40.0713749" lon="-105.229789">
  <ele>1583.0</ele>
  <time>2026-08-28T17:56:32Z</time>
  <course>248.36</course>
  <speed>0.01</speed>
  <fix>3d</fix>
</trkpt>
<trkpt lat="40.0713749" lon="-105.229789">
  <ele>1583.0</ele>
  <time>2026-08-28T17:56:32Z</time>
  <course>0.0</course>
  <speed>0.0</speed>
  <fix>3d</fix>
</trkpt>
<trkpt lat="40.0713749" lon="-105.229789">
  <ele>1583.0</ele>
  <time>2026-08-28T17:56:32Z</time>
  <course>248.36</course>
  <speed>0.01</speed>
  <fix>3d</fix>
</trkpt>
<trkpt lat="40.0713749" lon="-105.229789">
  <ele>1583.0</ele>
  <time>2026-08-28T17:56:32Z</time>
  <course>0.0</course>
  <speed>0.0</speed>
  <fix>3d</fix>
</trkpt>
<trkpt lat="40.0713749" lon="-105.229789">
  <ele>1583.0</ele>
  <time>2026-08-28T17:56:32Z</time>
  <course>248.36</course>
  <speed>0.01</speed>
  <fix>3d</fix>
</trkpt>
<trkpt lat="40.0713749" lon="-105.229789">
  <ele>1583.0</ele>
  <time>2026-08-28T17:56:32Z</time>
  <course>0.0</course>
  <speed>0.0</speed>
  <fix>3d</fix>
</trkpt>
<trkpt lat="40.0713749" lon="-105.229789">
  <ele>1583.0</ele>
  <time>2026-08-28T17:56:32Z</time>
  <course>248.35</course>
  <speed>0.01</speed>
  <fix>3d</fix>
</trkpt>
<trkpt lat="40.0713749" lon="-105.229789">
  <ele>1583.0</ele>
  <time>2026-08-28T17:56:32Z</time>
  <course>0.0</course>
  <speed>0.0</speed>
  <fix>3d</fix>
</trkpt>
<trkpt lat="40.0713749" lon="-105.229789">
  <ele>1583.0</ele>
  <time>2026-08-28T17:56:32Z</time>
  <course>248.35</course>
  <speed>0.01</speed>
  <fix>3d</fix>
</trkpt>
<trkpt lat="40.0713749" lon="-105.229789">
  <ele>1583.0</ele>
  <time>2026-08-28T17:56:32Z</time>
  <course>0.0</course>
  <speed>0.0</speed>
  <fix>3d</fix>
</trkpt>
<trkpt lat="40.0713749" lon="-105.229789">
  <ele>1583.0</ele>
  <time>2026-08-28T17:56:32Z</time>
  <course>248.35</course>
  <speed>0.01</speed>
  <fix>3d</fix>
</trkpt>
<trkpt lat="40.0713749" lon="-105.229789">
  <ele>1583.0</ele>
  <time>2026-08-28T17:56:32Z</time>
  <course>0.0</course>
  <speed>0.0</speed>
  <fix>3d</fix>
</trkpt>
<trkpt lat="40.0713749" lon="-105.229789">
  <ele>1583.0</ele>
  <time>2026-08-28T17:56:32Z</time>
  <course>248.34</course>
  <speed>0.01</speed>
  <fix>3d</fix>
</trkpt>
<trkpt lat="40.0713749" lon="-105.229789">
  <ele>1583.0</ele>
  <time>2026-08-28T17:56:32Z</time>
  <course>0.0</course>
  <speed>0.0</speed>
  <fix>3d</fix>
</trkpt>
<trkpt lat="40.0713749" lon="-105.229789">
  <ele>1583.0</ele>
  <time>2026-08-28T17:56:32Z</time>
  <course>248.34</course>
  <speed>0.01</speed>
  <fix>3d</fix>
</trkpt>
<trkpt lat="40.0713749" lon="-105.229789">
  <ele>1583.0</ele>
  <time>2026-08-28T17:56:32Z</time>
  <course>0.0</course>
  <speed>0.0</speed>
  <fix>3d</fix>
</trkpt>
<trkpt lat="40.0713749" lon="-105.229789">
  <ele>1583.0</ele>
  <time>2026-08-28T17:56:32Z</time>
  <course>248.34</course>
  <speed>0.01</speed>
  <fix>3d</fix>
</trkpt>
<trkpt lat="40.0713749" lon="-105.229789">
  <ele>1583.0</ele>
  <time>2026-08-28T17:56:32Z</time>
  <course>0.0</course>
  <speed>0.0</speed>
  <fix>3d</fix>
</trkpt>
<trkpt lat="40.0713749" lon="-105.229789">
  <ele>1583.0</ele>
  <time>2026-08-28T17:56:32Z</time>
  <course>248.33</course>
  <speed>0.01</speed>
  <fix>3d</fix>
</trkpt>
<trkpt lat="40.0713749" lon="-105.229789">
  <ele>1583.0</ele>
  <time>2026-08-28T17:56:32Z</time>
  <course>0.0</course>
  <speed>0.0</speed>
  <fix>3d</fix>
</trkpt>
<trkpt lat="40.0713749" lon="-105.229789">
  <ele>1583.0</ele>
  <time>2026-08-28T17:56:32Z</time>
  <course>248.33</course>
  <speed>0.01</speed>
  <fix>3d</fix>
</trkpt>
<trkpt lat="40.0713749" lon="-105.229789">
  <ele>1583.0</ele>
  <time>2026-08-28T17:56:32Z</time>
  <course>0.0</course>
  <speed>0.0</speed>
  <fix>3d</fix>
</trkpt>
<trkpt lat="40.0713749" lon="-105.229789">
  <ele>1583.0</ele>
  <time>2026-08-28T17:56:32Z</time>
  <course>248.32</course>
  <speed>0.01</speed>
  <fix>3d</fix>
</trkpt>
<trkpt lat="40.0713749" lon="-105.229789">
  <ele>1583.0</ele>
  <time>2026-08-28T17:56:32Z</time>
  <course>0.0</course>
  <speed>0.0</speed>
  <fix>3d</fix>
</trkpt>
<trkpt lat="40.0713749" lon="-105.229789">
  <ele>1583.0</ele>
  <time>2026-08-28T17:56:32Z</time>
  <course>248.32</course>
  <speed>0.01</speed>
  <fix>3d</fix>
</trkpt>
<trkpt lat="40.0713749" lon="-105.229789">
  <ele>1583.0</ele>
  <time>2026-08-28T17:56:32Z</time>
  <course>0.0</course>
  <speed>0.0</speed>
  <fix>3d</fix>
</trkpt>
<trkpt lat="40.0713749" lon="-105.229789">
  <ele>1583.0</ele>
  <time>2026-08-28T17:56:32Z</time>
  <course>248.31</course>
  <speed>0.01</speed>
  <fix>3d</fix>
</trkpt>
<trkpt lat="40.0713749" lon="-105.229789">
  <ele>1583.0</ele>
  <time>2026-08-28T17:56:32Z</time>
  <course>0.0</course>
  <speed>0.0</speed>
  <fix>3d</fix>
</trkpt>
<trkpt lat="40.0713749" lon="-105.229789">
  <ele>1583.0</ele>
  <time>2026-08-28T17:56:32Z</time>
  <course>248.31</course>
  <speed>0.01</speed>
  <fix>3d</fix>
</trkpt>
<trkpt lat="40.0713749" lon="-105.229789">
  <ele>1583.0</ele>
  <time>2026-08-28T17:56:32Z</time>
  <course>0.0</course>
  <speed>0.0</speed>
  <fix>3d</fix>
</trkpt>
<trkpt lat="40.0713749" lon="-105.229789">
  <ele>1583.0</ele>
  <time>2026-08-28T17:56:32Z</time>
  <course>248.31</course>
  <speed>0.01</speed>
  <fix>3d</fix>
</trkpt>
<trkpt lat="40.0713749" lon="-105.229789">
  <ele>1583.0</ele>
  <time>2026-08-28T17:56:32Z</time>
  <course>0.0</course>
  <speed>0.0</speed>
  <fix>3d</fix>
</trkpt>
<trkpt lat="40.0713749" lon="-105.229789">
  <ele>1583.0</ele>
  <time>2026-08-28T17:56:32Z</time>
  <course>248.3</course>
  <speed>0.01</speed>
  <fix>3d</fix>
</trkpt>
<trkpt lat="40.0713749" lon="-105.229789">
  <ele>1583.0</ele>
  <time>2026-08-28T17:56:32Z</time>
  <course>0.0</course>
  <speed>0.0</speed>
  <fix>3d</fix>
</trkpt>
<trkpt lat="40.0713749" lon="-105.229789">
  <ele>1583.0</ele>
  <time>2026-08-28T17:56:32Z</time>
  <course>248.3</course>
  <speed>0.01</speed>
  <fix>3d</fix>
</trkpt>
<trkpt lat="40.0713749" lon="-105.229789">
  <ele>1583.0</ele>
  <time>2026-08-28T17:56:32Z</time>
  <course>0.0</course>
  <speed>0.0</speed>
  <fix>3d</fix>
</trkpt>
<trkpt lat="40.0713749" lon="-105.229789">
  <ele>1583.0</ele>
  <time>2026-08-28T17:56:32Z</time>
  <course>248.29</course>
  <speed>0.01</speed>
  <fix>3d</fix>
</trkpt>
<trkpt lat="40.0713749" lon="-105.229789">
  <ele>1583.0</ele>
  <time>2026-08-28T17:56:32Z</time>
  <course>0.0</course>
  <speed>0.0</speed>
  <fix>3d</fix>
</trkpt>
<trkpt lat="40.0713749" lon="-105.229789">
  <ele>1583.0</ele>
  <time>2026-08-28T17:56:32Z</time>
  <course>248.29</course>
  <speed>0.01</speed>
  <fix>3d</fix>
</trkpt>
<trkpt lat="40.0713749" lon="-105.229789">
  <ele>1583.0</ele>
  <time>2026-08-28T17:56:32Z</time>
  <course>0.0</course>
  <speed>0.0</speed>
  <fix>3d</fix>
</trkpt>
<trkpt lat="40.0713749" lon="-105.229789">
  <ele>1583.0</ele>
  <time>2026-08-28T17:56:32Z</time>
  <course>248.28</course>
  <speed>0.01</speed>
  <fix>3d</fix>
</trkpt>
<trkpt lat="40.0713749" lon="-105.229789">
  <ele>1583.0</ele>
  <time>2026-08-28T17:56:32Z</time>
  <course>0.0</course>
  <speed>0.0</speed>
  <fix>3d</fix>
</trkpt>
<trkpt lat="40.0713749" lon="-105.229789">
  <ele>1583.0</ele>
  <time>2026-08-28T17:56:32Z</time>
  <course>248.28</course>
  <speed>0.01</speed>
  <fix>3d</fix>
</trkpt>
<trkpt lat="40.0713749" lon="-105.229789">
  <ele>1583.0</ele>
  <time>2026-08-28T17:56:32Z</time>
  <course>0.0</course>
  <speed>0.0</speed>
  <fix>3d</fix>
</trkpt>
<trkpt lat="40.0713749" lon="-105.229789">
  <ele>1583.0</ele>
  <time>2026-08-28T17:56:32Z</time>
  <course>248.27</course>
  <speed>0.01</speed>
  <fix>3d</fix>
</trkpt>
<trkpt lat="40.0713749" lon="-105.229789">
  <ele>1583.0</ele>
  <time>2026-08-28T17:56:32Z</time>
  <course>0.0</course>
  <speed>0.0</speed>
  <fix>3d</fix>
</trkpt>
<trkpt lat="40.0713749" lon="-105.229789">
  <ele>1583.0</ele>
  <time>2026-08-28T17:56:32Z</time>
  <course>248.27</course>
  <speed>0.01</speed>
  <fix>3d</fix>
</trkpt>
<trkpt lat="40.0713749" lon="-105.229789">
  <ele>1583.0</ele>
  <time>2026-08-28T17:56:32Z</time>
  <course>0.0</course>
  <speed>0.0</speed>
  <fix>3d</fix>
</trkpt>
<trkpt lat="40.0713749" lon="-105.229789">
  <ele>1583.0</ele>
  <time>2026-08-28T17:56:32Z</time>
  <course>248.26</course>
  <speed>0.01</speed>
  <fix>3d</fix>
</trkpt>
<trkpt lat="40.0713749" lon="-105.229789">
  <ele>1583.0</ele>
  <time>2026-08-28T17:56:32Z</time>
  <course>0.0</course>
  <speed>0.0</speed>
  <fix>3d</fix>
</trkpt>
<trkpt lat="40.0713749" lon="-105.229789">
  <ele>1583.0</ele>
  <time>2026-08-28T17:56:32Z</time>
  <course>248.26</course>
  <speed>0.01</speed>
  <fix>3d</fix>
</trkpt>
<trkpt lat="40.0713749" lon="-105.229789">
  <ele>1583.0</ele>
  <time>2026-08-28T17:56:32Z</time>
  <course>0.0</course>
  <speed>0.0</speed>
  <fix>3d</fix>
</trkpt>
<trkpt lat="40.0713749" lon="-105.229789">
  <ele>1583.0</ele>
  <time>2026-08-28T17:56:32Z</time>
  <course>248.25</course>
  <speed>0.01</speed>
  <fix>3d</fix>
</trkpt>
<trkpt lat="40.0713749" lon="-105.229789">
  <ele>1583.0</ele>
  <time>2026-08-28T17:56:32Z</time>
  <course>0.0</course>
  <speed>0.0</speed>
  <fix>3d</fix>
</trkpt>
<trkpt lat="40.0713749" lon="-105.229789">
  <ele>1583.0</ele>
  <time>2026-08-28T17:56:32Z</time>
  <course>248.25</course>
  <speed>0.01</speed>
  <fix>3d</fix>
</trkpt>
<trkpt lat="40.0713749" lon="-105.229789">
  <ele>1583.0</ele>
  <time>2026-08-28T17:56:32Z</time>
  <course>0.0</course>
  <speed>0.0</speed>
  <fix>3d</fix>
</trkpt>
<trkpt lat="40.0713749" lon="-105.229789">
  <ele>1583.0</ele>
  <time>2026-08-28T17:56:32Z</time>
  <course>248.25</course>
  <speed>0.01</speed>
  <fix>3d</fix>
</trkpt>
<trkpt lat="40.0713749" lon="-105.229789">
  <ele>1583.0</ele>
  <time>2026-08-28T17:56:32Z</time>
  <course>0.0</course>
  <speed>0.0</speed>
  <fix>3d</fix>
</trkpt>
<trkpt lat="40.0713749" lon="-105.229789">
  <ele>1583.0</ele>
  <time>2026-08-28T17:56:32Z</time>
  <course>248.24</course>
  <speed>0.01</speed>
  <fix>3d</fix>
</trkpt>
<trkpt lat="40.0713749" lon="-105.229789">
  <ele>1583.0</ele>
  <time>2026-08-28T17:56:32Z</time>
  <course>0.0</course>
  <speed>0.0</speed>
  <fix>3d</fix>
</trkpt>
<trkpt lat="40.0713749" lon="-105.229789">
  <ele>1583.0</ele>
  <time>2026-08-28T17:56:32Z</time>
  <course>248.24</course>
  <speed>0.01</speed>
  <fix>3d</fix>
</trkpt>
<trkpt lat="40.0713749" lon="-105.229789">
  <ele>1583.0</ele>
  <time>2026-08-28T17:56:32Z</time>
  <course>0.0</course>
  <speed>0.0</speed>
  <fix>3d</fix>
</trkpt>
<trkpt lat="40.0713749" lon="-105.229789">
  <ele>1583.0</ele>
  <time>2026-08-28T17:56:32Z</time>
  <course>248.23</course>
  <speed>0.01</speed>
  <fix>3d</fix>
</trkpt>
<trkpt lat="40.0713749" lon="-105.229789">
  <ele>1583.0</ele>
  <time>2026-08-28T17:56:32Z</time>
  <course>0.0</course>
  <speed>0.0</speed>
  <fix>3d</fix>
</trkpt>
<trkpt lat="40.0713749" lon="-105.229789">
  <ele>1583.0</ele>
  <time>2026-08-28T17:56:32Z</time>
  <course>248.23</course>
  <speed>0.01</speed>
  <fix>3d</fix>
</trkpt>
<trkpt lat="40.0713749" lon="-105.229789">
  <ele>1583.0</ele>
  <time>2026-08-28T17:56:32Z</time>
  <course>0.0</course>
  <speed>0.0</speed>
  <fix>3d</fix>
</trkpt>
<trkpt lat="40.0713749" lon="-105.229789">
  <ele>1583.0</ele>
  <time>2026-08-28T17:56:32Z</time>
  <course>248.22</course>
  <speed>0.01</speed>
  <fix>3d</fix>
</trkpt>
<trkpt lat="40.0713749" lon="-105.229789">
  <ele>1583.0</ele>
  <time>2026-08-28T17:56:32Z</time>
  <course>0.0</course>
  <speed>0.0</speed>
  <fix>3d</fix>
</trkpt>
<trkpt lat="40.0713749" lon="-105.229789">
  <ele>1583.0</ele>
  <time>2026-08-28T17:56:32Z</time>
  <course>248.22</course>
  <speed>0.01</speed>
  <fix>3d</fix>
</trkpt>
<trkpt lat="40.0713749" lon="-105.229789">
  <ele>1583.0</ele>
  <time>2026-08-28T17:56:32Z</time>
  <course>0.0</course>
  <speed>0.0</speed>
  <fix>3d</fix>
</trkpt>
<trkpt lat="40.0713749" lon="-105.229789">
  <ele>1583.0</ele>
  <time>2026-08-28T17:56:32Z</time>
  <course>248.21</course>
  <speed>0.01</speed>
  <fix>3d</fix>
</trkpt>
<trkpt lat="40.0713749" lon="-105.229789">
  <ele>1583.0</ele>
  <time>2026-08-28T17:56:32Z</time>
  <course>0.0</course>
  <speed>0.0</speed>
  <fix>3d</fix>
</trkpt>
<trkpt lat="40.0713749" lon="-105.229789">
  <ele>1583.0</ele>
  <time>2026-08-28T17:56:32Z</time>
  <course>248.21</course>
  <speed>0.01</speed>
  <fix>3d</fix>
</trkpt>
<trkpt lat="40.0713749" lon="-105.229789">
  <ele>1583.0</ele>
  <time>2026-08-28T17:56:32Z</time>
  <course>0.0</course>
  <speed>0.0</speed>
  <fix>3d</fix>
</trkpt>
<trkpt lat="40.0713749" lon="-105.229789">
  <ele>1583.0</ele>
  <time>2026-08-28T17:56:32Z</time>
  <course>248.2</course>
  <speed>0.01</speed>
  <fix>3d</fix>
</trkpt>
<trkpt lat="40.0713749" lon="-105.229789">
  <ele>1583.0</ele>
  <time>2026-08-28T17:56:32Z</time>
  <course>0.0</course>
  <speed>0.0</speed>
  <fix>3d</fix>
</trkpt>
<trkpt lat="40.0713749" lon="-105.229789">
  <ele>1583.0</ele>
  <time>2026-08-28T17:56:32Z</time>
  <course>248.2</course>
  <speed>0.01</speed>
  <fix>3d</fix>
</trkpt>
<trkpt lat="40.0713749" lon="-105.229789">
  <ele>1583.0</ele>
  <time>2026-08-28T17:56:32Z</time>
  <course>0.0</course>
  <speed>0.0</speed>
  <fix>3d</fix>
</trkpt>
<trkpt lat="40.0713749" lon="-105.229789">
  <ele>1583.0</ele>
  <time>2026-08-28T17:56:32Z</time>
  <course>248.19</course>
  <speed>0.01</speed>
  <fix>3d</fix>
</trkpt>
<trkpt lat="40.0713749" lon="-105.229789">
  <ele>1583.0</ele>
  <time>2026-08-28T17:56:32Z</time>
  <course>0.0</course>
  <speed>0.0</speed>
  <fix>3d</fix>
</trkpt>
<trkpt lat="40.0713749" lon="-105.229789">
  <ele>1583.0</ele>
  <time>2026-08-28T17:56:32Z</time>
  <course>248.19</course>
  <speed>0.01</speed>
  <fix>3d</fix>
</trkpt>
<trkpt lat="40.0713749" lon="-105.229789">
  <ele>1583.0</ele>
  <time>2026-08-28T17:56:32Z</time>
  <course>0.0</course>
  <speed>0.0</speed>
  <fix>3d</fix>
</trkpt>
<trkpt lat="40.0713749" lon="-105.229789">
  <ele>1583.0</ele>
  <time>2026-08-28T17:56:32Z</time>
  <course>248.18</course>
  <speed>0.01</speed>
  <fix>3d</fix>
</trkpt>
<trkpt lat="40.0713749" lon="-105.229789">
  <ele>1583.0</ele>
  <time>2026-08-28T17:56:32Z</time>
  <course>0.0</course>
  <speed>0.0</speed>
  <fix>3d</fix>
</trkpt>
<trkpt lat="40.0713749" lon="-105.229789">
  <ele>1583.0</ele>
  <time>2026-08-28T17:56:32Z</time>
  <course>248.18</course>
  <speed>0.01</speed>
  <fix>3d</fix>
</trkpt>
<trkpt lat="40.0713749" lon="-105.229789">
  <ele>1583.0</ele>
  <time>2026-08-28T17:56:32Z</time>
  <course>0.0</course>
  <speed>0.0</speed>
  <fix>3d</fix>
</trkpt>
<trkpt lat="40.0713749" lon="-105.229789">
  <ele>1583.0</ele>
  <time>2026-08-28T17:56:32Z</time>
  <course>248.17</course>
  <speed>0.01</speed>
  <fix>3d</fix>
</trkpt>
<trkpt lat="40.0713749" lon="-105.229789">
  <ele>1583.0</ele>
  <time>2026-08-28T17:56:32Z</time>
  <course>0.0</course>
  <speed>0.0</speed>
  <fix>3d</fix>
</trkpt>
<trkpt lat="40.0713749" lon="-105.229789">
  <ele>1583.0</ele>
  <time>2026-08-28T17:56:32Z</time>
  <course>248.17</course>
  <speed>0.02</speed>
  <fix>3d</fix>
</trkpt>
<trkpt lat="40.0713749" lon="-105.229789">
  <ele>1583.0</ele>
  <time>2026-08-28T17:56:32Z</time>
  <course>0.0</course>
  <speed>0.0</speed>
  <fix>3d</fix>
</trkpt>
<trkpt lat="40.0713749" lon="-105.229789">
  <ele>1583.0</ele>
  <time>2026-08-28T17:56:32Z</time>
  <course>248.16</course>
  <speed>0.02</speed>
  <fix>3d</fix>
</trkpt>
<trkpt lat="40.0713749" lon="-105.229789">
  <ele>1583.0</ele>
  <time>2026-08-28T17:56:32Z</time>
  <course>0.0</course>
  <speed>0.0</speed>
  <fix>3d</fix>
</trkpt>
<trkpt lat="40.0713749" lon="-105.229789">
  <ele>1583.0</ele>
  <time>2026-08-28T17:56:32Z</time>
  <course>248.16</course>
  <speed>0.022360679774997897</speed>
  <fix>3d</fix>
</trkpt>
<trkpt lat="40.0713749" lon="-105.229789">
  <ele>1583.0</ele>
  <time>2026-08-28T17:56:32Z</time>
  <course>0.0</course>
  <speed>0.0</speed>
  <fix>3d</fix>
</trkpt>
<trkpt lat="40.0713749" lon="-105.229789">
  <ele>1583.0</ele>
  <time>2026-08-28T17:56:32Z</time>
  <course>248.15</course>
  <speed>0.022360679774997897</speed>
  <fix>3d</fix>
</trkpt>
<trkpt lat="40.0713749" lon="-105.229789">
  <ele>1583.0</ele>
  <time>2026-08-28T17:56:32Z</time>
  <course>0.0</course>
  <speed>0.0</speed>
  <fix>3d</fix>
</trkpt>
<trkpt lat="40.0713749" lon="-105.229789">
  <ele>1583.0</ele>
  <time>2026-08-28T17:56:32Z</time>
  <course>248.15</course>
  <speed>0.022360679774997897</speed>
  <fix>3d</fix>
</trkpt>
<trkpt lat="40.0713749" lon="-105.229789">
  <ele>1583.0</ele>
  <time>2026-08-28T17:56:32Z</time>
  <course>0.0</course>
  <speed>0.0</speed>
  <fix>3d</fix>
</trkpt>
<trkpt lat="40.0713749" lon="-105.229789">
  <ele>1583.0</ele>
  <time>2026-08-28T17:56:32Z</time>
  <course>248.14</course>
  <speed>0.022360679774997897</speed>
  <fix>3d</fix>
</trkpt>
<trkpt lat="40.0713749" lon="-105.229789">
  <ele>1583.0</ele>
  <time>2026-08-28T17:56:32Z</time>
  <course>0.0</course>
  <speed>0.0</speed>
  <fix>3d</fix>
</trkpt>
<trkpt lat="40.0713749" lon="-105.229789">
  <ele>1583.0</ele>
  <time>2026-08-28T17:56:32Z</time>
  <course>248.14</course>
  <speed>0.022360679774997897</speed>
  <fix>3d</fix>
</trkpt>
<trkpt lat="40.0713749" lon="-105.229789">
  <ele>1583.0</ele>
  <time>2026-08-28T17:56:32Z</time>
  <course>0.0</course>
  <speed>0.0</speed>
  <fix>3d</fix>
</trkpt>
<trkpt lat="40.0713749" lon="-105.229789">
  <ele>1583.0</ele>
  <time>2026-08-28T17:56:32Z</time>
  <course>248.13</course>
  <speed>0.022360679774997897</speed>
  <fix>3d</fix>
</trkpt>
<trkpt lat="40.0713749" lon="-105.229789">
  <ele>1583.0</ele>
  <time>2026-08-28T17:56:32Z</time>
  <course>0.0</course>
  <speed>0.0</speed>
  <fix>3d</fix>
</trkpt>
<trkpt lat="40.0713749" lon="-105.229789">
  <ele>1583.0</ele>
  <time>2026-08-28T17:56:32Z</time>
  <course>248.13</course>
  <speed>0.022360679774997897</speed>
  <fix>3d</fix>
</trkpt>
<trkpt lat="40.0713749" lon="-105.229789">
  <ele>1583.0</ele>
  <time>2026-08-28T17:56:32Z</time>
  <course>0.0</course>
  <speed>0.0</speed>
  <fix>3d</fix>
</trkpt>
<trkpt lat="40.0713749" lon="-105.229789">
  <ele>1583.0</ele>
  <time>2026-08-28T17:56:32Z</time>
  <course>248.12</course>
  <speed>0.022360679774997897</speed>
  <fix>3d</fix>
</trkpt>
<trkpt lat="40.0713749" lon="-105.229789">
  <ele>1583.0</ele>
  <time>2026-08-28T17:56:32Z</time>
  <course>0.0</course>
  <speed>0.0</speed>
  <fix>3d</fix>
</trkpt>
<trkpt lat="40.0713749" lon="-105.229789">
  <ele>1583.0</ele>
  <time>2026-08-28T17:56:32Z</time>
  <course>248.12</course>
  <speed>0.022360679774997897</speed>
  <fix>3d</fix>
</trkpt>
<trkpt lat="40.0713749" lon="-105.229789">
  <ele>1583.0</ele>
  <time>2026-08-28T17:56:32Z</time>
  <course>0.0</course>
  <speed>0.0</speed>
  <fix>3d</fix>
</trkpt>
<trkpt lat="40.0713749" lon="-105.229789">
  <ele>1583.0</ele>
  <time>2026-08-28T17:56:32Z</time>
  <course>248.11</course>
  <speed>0.022360679774997897</speed>
  <fix>3d</fix>
</trkpt>
<trkpt lat="40.0713749" lon="-105.229789">
  <ele>1583.0</ele>
  <time>2026-08-28T17:56:32Z</time>
  <course>0.0</course>
  <speed>0.0</speed>
  <fix>3d</fix>
</trkpt>
<trkpt lat="40.0713749" lon="-105.229789">
  <ele>1583.0</ele>
  <time>2026-08-28T17:56:32Z</time>
  <course>248.11</course>
  <speed>0.022360679774997897</speed>
  <fix>3d</fix>
</trkpt>
<trkpt lat="40.0713749" lon="-105.229789">
  <ele>1583.0</ele>
  <time>2026-08-28T17:56:32Z</time>
  <course>0.0</course>
  <speed>0.0</speed>
  <fix>3d</fix>
</trkpt>
<trkpt lat="40.0713749" lon="-105.229789">
  <ele>1583.0</ele>
  <time>2026-08-28T17:56:32Z</time>
  <course>248.1</course>
  <speed>0.022360679774997897</speed>
  <fix>3d</fix>
</trkpt>
<trkpt lat="40.0713749" lon="-105.229789">
  <ele>1583.0</ele>
  <time>2026-08-28T17:56:32Z</time>
  <course>0.0</course>
  <speed>0.0</speed>
  <fix>3d</fix>
</trkpt>
<trkpt lat="40.0713749" lon="-105.229789">
  <ele>1583.0</ele>
  <time>2026-08-28T17:56:32Z</time>
  <course>248.1</course>
  <speed>0.022360679774997897</speed>
  <fix>3d</fix>
</trkpt>
<trkpt lat="40.0713749" lon="-105.229789">
  <ele>1583.0</ele>
  <time>2026-08-28T17:56:32Z</time>
  <course>0.0</course>
  <speed>0.0</speed>
  <fix>3d</fix>
</trkpt>
<trkpt lat="40.0713749" lon="-105.229789">
  <ele>1583.0</ele>
  <time>2026-08-28T17:56:33Z</time>
  <course>248.09</course>
  <speed>0.022360679774997897</speed>
  <fix>3d</fix>
</trkpt>
<trkpt lat="40.0713749" lon="-105.229789">
  <ele>1583.0</ele>
  <time>2026-08-28T17:56:33Z</time>
  <course>0.0</course>
  <speed>0.0</speed>
  <fix>3d</fix>
</trkpt>
<trkpt lat="40.0713749" lon="-105.229789">
  <ele>1583.0</ele>
  <time>2026-08-28T17:56:33Z</time>
  <course>248.09</course>
  <speed>0.022360679774997897</speed>
  <fix>3d</fix>
</trkpt>
<trkpt lat="40.0713749" lon="-105.229789">
  <ele>1583.0</ele>
  <time>2026-08-28T17:56:33Z</time>
  <course>0.0</course>
  <speed>0.0</speed>
  <fix>3d</fix>
</trkpt>
<trkpt lat="40.0713749" lon="-105.229789">
  <ele>1583.0</ele>
  <time>2026-08-28T17:56:33Z</time>
  <course>248.08</course>
  <speed>0.022360679774997897</speed>
  <fix>3d</fix>
</trkpt>
<trkpt lat="40.0713749" lon="-105.229789">
  <ele>1583.0</ele>
  <time>2026-08-28T17:56:33Z</time>
  <course>0.0</course>
  <speed>0.0</speed>
  <fix>3d</fix>
</trkpt>
<trkpt lat="40.0713749" lon="-105.229789">
  <ele>1583.0</ele>
  <time>2026-08-28T17:56:33Z</time>
  <course>248.08</course>
  <speed>0.022360679774997897</speed>
  <fix>3d</fix>
</trkpt>
<trkpt lat="40.0713749" lon="-105.229789">
  <ele>1583.0</ele>
  <time>2026-08-28T17:56:33Z</time>
  <course>0.0</course>
  <speed>0.0</speed>
  <fix>3d</fix>
</trkpt>
<trkpt lat="40.0713749" lon="-105.229789">
  <ele>1583.0</ele>
  <time>2026-08-28T17:56:33Z</time>
  <course>248.07</course>
  <speed>0.022360679774997897</speed>
  <fix>3d</fix>
</trkpt>
<trkpt lat="40.0713749" lon="-105.229789">
  <ele>1583.0</ele>
  <time>2026-08-28T17:56:33Z</time>
  <course>0.0</course>
  <speed>0.0</speed>
  <fix>3d</fix>
</trkpt>
<trkpt lat="40.0713749" lon="-105.229789">
  <ele>1583.0</ele>
  <time>2026-08-28T17:56:33Z</time>
  <course>248.07</course>
  <speed>0.022360679774997897</speed>
  <fix>3d</fix>
</trkpt>
<trkpt lat="40.0713749" lon="-105.229789">
  <ele>1583.0</ele>
  <time>2026-08-28T17:56:33Z</time>
  <course>0.0</course>
  <speed>0.0</speed>
  <fix>3d</fix>
</trkpt>
<trkpt lat="40.0713749" lon="-105.229789">
  <ele>1583.0</ele>
  <time>2026-08-28T17:56:33Z</time>
  <course>248.06</course>
  <speed>0.022360679774997897</speed>
  <fix>3d</fix>
</trkpt>
<trkpt lat="40.0713749" lon="-105.229789">
  <ele>1583.0</ele>
  <time>2026-08-28T17:56:33Z</time>
  <course>0.0</course>
  <speed>0.0</speed>
  <fix>3d</fix>
</trkpt>
<trkpt lat="40.0713749" lon="-105.229789">
  <ele>1583.0</ele>
  <time>2026-08-28T17:56:33Z</time>
  <course>248.06</course>
  <speed>0.022360679774997897</speed>
  <fix>3d</fix>
</trkpt>
<trkpt lat="40.0713749" lon="-105.229789">
  <ele>1583.0</ele>
  <time>2026-08-28T17:56:33Z</time>
  <course>0.0</course>
  <speed>0.0</speed>
  <fix>3d</fix>
</trkpt>
<trkpt lat="40.0713749" lon="-105.229789">
  <ele>1583.0</ele>
  <time>2026-08-28T17:56:33Z</time>
  <course>248.06</course>
  <speed>0.022360679774997897</speed>
  <fix>3d</fix>
</trkpt>
<trkpt lat="40.0713749" lon="-105.229789">
  <ele>1583.0</ele>
  <time>2026-08-28T17:56:33Z</time>
  <course>0.0</course>
  <speed>0.0</speed>
  <fix>3d</fix>
</trkpt>
<trkpt lat="40.0713749" lon="-105.229789">
  <ele>1583.0</ele>
  <time>2026-08-28T17:56:33Z</time>
  <course>248.05</course>
  <speed>0.022360679774997897</speed>
  <fix>3d</fix>
</trkpt>
<trkpt lat="40.0713749" lon="-105.229789">
  <ele>1583.0</ele>
  <time>2026-08-28T17:56:33Z</time>
  <course>0.0</course>
  <speed>0.0</speed>
  <fix>3d</fix>
</trkpt>
<trkpt lat="40.0713749" lon="-105.229789">
  <ele>1583.0</ele>
  <time>2026-08-28T17:56:33Z</time>
  <course>248.05</course>
  <speed>0.022360679774997897</speed>
  <fix>3d</fix>
</trkpt>
<trkpt lat="40.0713749" lon="-105.229789">
  <ele>1583.0</ele>
  <time>2026-08-28T17:56:33Z</time>
  <course>0.0</course>
  <speed>0.0</speed>
  <fix>3d</fix>
</trkpt>
<trkpt lat="40.0713749" lon="-105.229789">
  <ele>1583.0</ele>
  <time>2026-08-28T17:56:33Z</time>
  <course>248.04</course>
  <speed>0.022360679774997897</speed>
  <fix>3d</fix>
</trkpt>
<trkpt lat="40.0713749" lon="-105.229789">
  <ele>1583.0</ele>
  <time>2026-08-28T17:56:33Z</time>
  <course>0.0</course>
  <speed>0.0</speed>
  <fix>3d</fix>
</trkpt>
<trkpt lat="40.0713749" lon="-105.229789">
  <ele>1583.0</ele>
  <time>2026-08-28T17:56:33Z</time>
  <course>248.04</course>
  <speed>0.022360679774997897</speed>
  <fix>3d</fix>
</trkpt>
<trkpt lat="40.0713749" lon="-105.229789">
  <ele>1583.0</ele>
  <time>2026-08-28T17:56:33Z</time>
  <course>0.0</course>
  <speed>0.0</speed>
  <fix>3d</fix>
</trkpt>
<trkpt lat="40.0713749" lon="-105.229789">
  <ele>1583.0</ele>
  <time>2026-08-28T17:56:33Z</time>
  <course>248.03</course>
  <speed>0.022360679774997897</speed>
  <fix>3d</fix>
</trkpt>
<trkpt lat="40.0713749" lon="-105.229789">
  <ele>1583.0</ele>
  <time>2026-08-28T17:56:33Z</time>
  <course>0.0</course>
  <speed>0.0</speed>
  <fix>3d</fix>
</trkpt>
<trkpt lat="40.0713749" lon="-105.229789">
  <ele>1583.0</ele>
  <time>2026-08-28T17:56:33Z</time>
  <course>248.03</course>
  <speed>0.022360679774997897</speed>
  <fix>3d</fix>
</trkpt>
<trkpt lat="40.0713749" lon="-105.229789">
  <ele>1583.0</ele>
  <time>2026-08-28T17:56:33Z</time>
  <course>0.0</course>
  <speed>0.0</speed>
  <fix>3d</fix>
</trkpt>
<trkpt lat="40.0713749" lon="-105.229789">
  <ele>1583.0</ele>
  <time>2026-08-28T17:56:33Z</time>
  <course>248.02</course>
  <speed>0.022360679774997897</speed>
  <fix>3d</fix>
</trkpt>
<trkpt lat="40.0713749" lon="-105.229789">
  <ele>1583.0</ele>
  <time>2026-08-28T17:56:33Z</time>
  <course>0.0</course>
  <speed>0.0</speed>
  <fix>3d</fix>
</trkpt>
<trkpt lat="40.0713749" lon="-105.229789">
  <ele>1583.0</ele>
  <time>2026-08-28T17:56:33Z</time>
  <course>248.02</course>
  <speed>0.022360679774997897</speed>
  <fix>3d</fix>
</trkpt>
<trkpt lat="40.0713749" lon="-105.229789">
  <ele>1583.0</ele>
  <time>2026-08-28T17:56:33Z</time>
  <course>0.0</course>
  <speed>0.0</speed>
  <fix>3d</fix>
</trkpt>
<trkpt lat="40.0713749" lon="-105.229789">
  <ele>1583.0</ele>
  <time>2026-08-28T17:56:33Z</time>
  <course>248.01</course>
  <speed>0.022360679774997897</speed>
  <fix>3d</fix>
</trkpt>
<trkpt lat="40.0713749" lon="-105.229789">
  <ele>1583.0</ele>
  <time>2026-08-28T17:56:33Z</time>
  <course>0.0</course>
  <speed>0.0</speed>
  <fix>3d</fix>
</trkpt>
<trkpt lat="40.0713749" lon="-105.229789">
  <ele>1583.0</ele>
  <time>2026-08-28T17:56:33Z</time>
  <course>248.01</course>
  <speed>0.022360679774997897</speed>
  <fix>3d</fix>
</trkpt>
<trkpt lat="40.0713749" lon="-105.229789">
  <ele>1583.0</ele>
  <time>2026-08-28T17:56:33Z</time>
  <course>0.0</course>
  <speed>0.0</speed>
  <fix>3d</fix>
</trkpt>
<trkpt lat="40.0713749" lon="-105.229789">
  <ele>1583.0</ele>
  <time>2026-08-28T17:56:33Z</time>
  <course>248.0</course>
  <speed>0.022360679774997897</speed>
  <fix>3d</fix>
</trkpt>
<trkpt lat="40.0713749" lon="-105.229789">
  <ele>1583.0</ele>
  <time>2026-08-28T17:56:33Z</time>
  <course>0.0</course>
  <speed>0.0</speed>
  <fix>3d</fix>
</trkpt>
<trkpt lat="40.0713749" lon="-105.229789">
  <ele>1583.0</ele>
  <time>2026-08-28T17:56:33Z</time>
  <course>248.0</course>
  <speed>0.022360679774997897</speed>
  <fix>3d</fix>
</trkpt>
<trkpt lat="40.0713749" lon="-105.229789">
  <ele>1583.0</ele>
  <time>2026-08-28T17:56:33Z</time>
  <course>0.0</course>
  <speed>0.0</speed>
  <fix>3d</fix>
</trkpt>
<trkpt lat="40.0713749" lon="-105.229789">
  <ele>1583.0</ele>
  <time>2026-08-28T17:56:33Z</time>
  <course>247.99</course>
  <speed>0.022360679774997897</speed>
  <fix>3d</fix>
</trkpt>
<trkpt lat="40.0713749" lon="-105.229789">
  <ele>1583.0</ele>
  <time>2026-08-28T17:56:33Z</time>
  <course>0.0</course>
  <speed>0.0</speed>
  <fix>3d</fix>
</trkpt>
<trkpt lat="40.0713749" lon="-105.229789">
  <ele>1583.0</ele>
  <time>2026-08-28T17:56:33Z</time>
  <course>247.99</course>
  <speed>0.022360679774997897</speed>
  <fix>3d</fix>
</trkpt>
<trkpt lat="40.0713749" lon="-105.229789">
  <ele>1583.0</ele>
  <time>2026-08-28T17:56:33Z</time>
  <course>0.0</course>
  <speed>0.0</speed>
  <fix>3d</fix>
</trkpt>
<trkpt lat="40.0713749" lon="-105.229789">
  <ele>1583.0</ele>
  <time>2026-08-28T17:56:33Z</time>
  <course>247.99</course>
  <speed>0.022360679774997897</speed>
  <fix>3d</fix>
</trkpt>
<trkpt lat="40.0713749" lon="-105.229789">
  <ele>1583.0</ele>
  <time>2026-08-28T17:56:33Z</time>
  <course>0.0</course>
  <speed>0.0</speed>
  <fix>3d</fix>
</trkpt>
<trkpt lat="40.0713749" lon="-105.229789">
  <ele>1583.0</ele>
  <time>2026-08-28T17:56:33Z</time>
  <course>247.98</course>
  <speed>0.022360679774997897</speed>
  <fix>3d</fix>
</trkpt>
<trkpt lat="40.0713749" lon="-105.229789">
  <ele>1583.0</ele>
  <time>2026-08-28T17:56:33Z</time>
  <course>0.0</course>
  <speed>0.0</speed>
  <fix>3d</fix>
</trkpt>
<trkpt lat="40.0713749" lon="-105.229789">
  <ele>1583.0</ele>
  <time>2026-08-28T17:56:33Z</time>
  <course>247.98</course>
  <speed>0.022360679774997897</speed>
  <fix>3d</fix>
</trkpt>
<trkpt lat="40.0713749" lon="-105.229789">
  <ele>1583.0</ele>
  <time>2026-08-28T17:56:33Z</time>
  <course>0.0</course>
  <speed>0.0</speed>
  <fix>3d</fix>
</trkpt>
<trkpt lat="40.0713749" lon="-105.229789">
  <ele>1583.0</ele>
  <time>2026-08-28T17:56:33Z</time>
  <course>247.97</course>
  <speed>0.022360679774997897</speed>
  <fix>3d</fix>
</trkpt>
<trkpt lat="40.0713749" lon="-105.229789">
  <ele>1583.0</ele>
  <time>2026-08-28T17:56:33Z</time>
  <course>0.0</course>
  <speed>0.0</speed>
  <fix>3d</fix>
</trkpt>
<trkpt lat="40.0713749" lon="-105.229789">
  <ele>1583.0</ele>
  <time>2026-08-28T17:56:33Z</time>
  <course>247.97</course>
  <speed>0.022360679774997897</speed>
  <fix>3d</fix>
</trkpt>
<trkpt lat="40.0713749" lon="-105.229789">
  <ele>1583.0</ele>
  <time>2026-08-28T17:56:33Z</time>
  <course>0.0</course>
  <speed>0.0</speed>
  <fix>3d</fix>
</trkpt>
<trkpt lat="40.0713749" lon="-105.229789">
  <ele>1583.0</ele>
  <time>2026-08-28T17:56:33Z</time>
  <course>247.96</course>
  <speed>0.022360679774997897</speed>
  <fix>3d</fix>
</trkpt>
<trkpt lat="40.0713749" lon="-105.229789">
  <ele>1583.0</ele>
  <time>2026-08-28T17:56:33Z</time>
  <course>0.0</course>
  <speed>0.0</speed>
  <fix>3d</fix>
</trkpt>
<trkpt lat="40.0713749" lon="-105.229789">
  <ele>1583.0</ele>
  <time>2026-08-28T17:56:33Z</time>
  <course>247.96</course>
  <speed>0.022360679774997897</speed>
  <fix>3d</fix>
</trkpt>
<trkpt lat="40.0713749" lon="-105.229789">
  <ele>1583.0</ele>
  <time>2026-08-28T17:56:33Z</time>
  <course>0.0</course>
  <speed>0.0</speed>
  <fix>3d</fix>
</trkpt>
<trkpt lat="40.0713749" lon="-105.229789">
  <ele>1583.0</ele>
  <time>2026-08-28T17:56:33Z</time>
  <course>247.95</course>
  <speed>0.022360679774997897</speed>
  <fix>3d</fix>
</trkpt>
<trkpt lat="40.0713749" lon="-105.229789">
  <ele>1583.0</ele>
  <time>2026-08-28T17:56:33Z</time>
  <course>0.0</course>
  <speed>0.0</speed>
  <fix>3d</fix>
</trkpt>
<trkpt lat="40.0713749" lon="-105.229789">
  <ele>1583.0</ele>
  <time>2026-08-28T17:56:33Z</time>
  <course>247.95</course>
  <speed>0.022360679774997897</speed>
  <fix>3d</fix>
</trkpt>
<trkpt lat="40.0713749" lon="-105.229789">
  <ele>1583.0</ele>
  <time>2026-08-28T17:56:33Z</time>
  <course>0.0</course>
  <speed>0.0</speed>
  <fix>3d</fix>
</trkpt>
<trkpt lat="40.0713749" lon="-105.229789">
  <ele>1583.0</ele>
  <time>2026-08-28T17:56:33Z</time>
  <course>247.95</course>
  <speed>0.022360679774997897</speed>
  <fix>3d</fix>
</trkpt>
<trkpt lat="40.0713749" lon="-105.229789">
  <ele>1583.0</ele>
  <time>2026-08-28T17:56:33Z</time>
  <course>0.0</course>
  <speed>0.0</speed>
  <fix>3d</fix>
</trkpt>
<trkpt lat="40.0713749" lon="-105.229789">
  <ele>1583.0</ele>
  <time>2026-08-28T17:56:33Z</time>
  <course>247.94</course>
  <speed>0.022360679774997897</speed>
  <fix>3d</fix>
</trkpt>
<trkpt lat="40.0713749" lon="-105.229789">
  <ele>1583.0</ele>
  <time>2026-08-28T17:56:33Z</time>
  <course>0.0</course>
  <speed>0.0</speed>
  <fix>3d</fix>
</trkpt>
<trkpt lat="40.0713749" lon="-105.229789">
  <ele>1583.0</ele>
  <time>2026-08-28T17:56:33Z</time>
  <course>247.94</course>
  <speed>0.022360679774997897</speed>
  <fix>3d</fix>
</trkpt>
<trkpt lat="40.0713749" lon="-105.229789">
  <ele>1583.0</ele>
  <time>2026-08-28T17:56:33Z</time>
  <course>0.0</course>
  <speed>0.0</speed>
  <fix>3d</fix>
</trkpt>
<trkpt lat="40.0713749" lon="-105.229789">
  <ele>1583.0</ele>
  <time>2026-08-28T17:56:33Z</time>
  <course>247.93</course>
  <speed>0.022360679774997897</speed>
  <fix>3d</fix>
</trkpt>
<trkpt lat="40.0713749" lon="-105.229789">
  <ele>1583.0</ele>
  <time>2026-08-28T17:56:33Z</time>
  <course>0.0</course>
  <speed>0.0</speed>
  <fix>3d</fix>
</trkpt>
<trkpt lat="40.0713749" lon="-105.229789">
  <ele>1583.0</ele>
  <time>2026-08-28T17:56:33Z</time>
  <course>247.93</course>
  <speed>0.022360679774997897</speed>
  <fix>3d</fix>
</trkpt>
<trkpt lat="40.0713749" lon="-105.229789">
  <ele>1583.0</ele>
  <time>2026-08-28T17:56:33Z</time>
  <course>0.0</course>
  <speed>0.0</speed>
  <fix>3d</fix>
</trkpt>
<trkpt lat="40.0713749" lon="-105.229789">
  <ele>1583.0</ele>
  <time>2026-08-28T17:56:33Z</time>
  <course>247.92</course>
  <speed>0.022360679774997897</speed>
  <fix>3d</fix>
</trkpt>
<trkpt lat="40.0713749" lon="-105.229789">
  <ele>1583.0</ele>
  <time>2026-08-28T17:56:33Z</time>
  <course>0.0</course>
  <speed>0.0</speed>
  <fix>3d</fix>
</trkpt>
<trkpt lat="40.0713749" lon="-105.229789">
  <ele>1583.0</ele>
  <time>2026-08-28T17:56:33Z</time>
  <course>247.92</course>
  <speed>0.022360679774997897</speed>
  <fix>3d</fix>
</trkpt>
<trkpt lat="40.0713749" lon="-105.229789">
  <ele>1583.0</ele>
  <time>2026-08-28T17:56:33Z</time>
  <course>0.0</course>
  <speed>0.0</speed>
  <fix>3d</fix>
</trkpt>
<trkpt lat="40.0713749" lon="-105.229789">
  <ele>1583.0</ele>
  <time>2026-08-28T17:56:33Z</time>
  <course>247.91</course>
  <speed>0.022360679774997897</speed>
  <fix>3d</fix>
</trkpt>
<trkpt lat="40.0713749" lon="-105.229789">
  <ele>1583.0</ele>
  <time>2026-08-28T17:56:33Z</time>
  <course>0.0</course>
  <speed>0.0</speed>
  <fix>3d</fix>
</trkpt>
<trkpt lat="40.0713749" lon="-105.229789">
  <ele>1583.0</ele>
  <time>2026-08-28T17:56:33Z</time>
  <course>247.91</course>
  <speed>0.022360679774997897</speed>
  <fix>3d</fix>
</trkpt>
<trkpt lat="40.0713749" lon="-105.229789">
  <ele>1583.0</ele>
  <time>2026-08-28T17:56:33Z</time>
  <course>0.0</course>
  <speed>0.0</speed>
  <fix>3d</fix>
</trkpt>
<trkpt lat="40.0713749" lon="-105.229789">
  <ele>1583.0</ele>
  <time>2026-08-28T17:56:33Z</time>
  <course>247.91</course>
  <speed>0.022360679774997897</speed>
  <fix>3d</fix>
</trkpt>
<trkpt lat="40.0713749" lon="-105.229789">
  <ele>1583.0</ele>
  <time>2026-08-28T17:56:33Z</time>
  <course>0.0</course>
  <speed>0.0</speed>
  <fix>3d</fix>
</trkpt>
<trkpt lat="40.0713749" lon="-105.229789">
  <ele>1583.0</ele>
  <time>2026-08-28T17:56:33Z</time>
  <course>247.9</course>
  <speed>0.022360679774997897</speed>
  <fix>3d</fix>
</trkpt>
<trkpt lat="40.0713749" lon="-105.229789">
  <ele>1583.0</ele>
  <time>2026-08-28T17:56:33Z</time>
  <course>0.0</course>
  <speed>0.0</speed>
  <fix>3d</fix>
</trkpt>
<trkpt lat="40.0713749" lon="-105.229789">
  <ele>1583.0</ele>
  <time>2026-08-28T17:56:33Z</time>
  <course>247.9</course>
  <speed>0.022360679774997897</speed>
  <fix>3d</fix>
</trkpt>
<trkpt lat="40.0713749" lon="-105.229789">
  <ele>1583.0</ele>
  <time>2026-08-28T17:56:33Z</time>
  <course>0.0</course>
  <speed>0.0</speed>
  <fix>3d</fix>
</trkpt>
<trkpt lat="40.0713749" lon="-105.229789">
  <ele>1583.0</ele>
  <time>2026-08-28T17:56:33Z</time>
  <course>247.89</course>
  <speed>0.022360679774997897</speed>
  <fix>3d</fix>
</trkpt>
<trkpt lat="40.0713749" lon="-105.229789">
  <ele>1583.0</ele>
  <time>2026-08-28T17:56:33Z</time>
  <course>0.0</course>
  <speed>0.0</speed>
  <fix>3d</fix>
</trkpt>
<trkpt lat="40.0713749" lon="-105.229789">
  <ele>1583.0</ele>
  <time>2026-08-28T17:56:33Z</time>
  <course>247.89</course>
  <speed>0.022360679774997897</speed>
  <fix>3d</fix>
</trkpt>
<trkpt lat="40.0713749" lon="-105.229789">
  <ele>1583.0</ele>
  <time>2026-08-28T17:56:33Z</time>
  <course>0.0</course>
  <speed>0.0</speed>
  <fix>3d</fix>
</trkpt>
<trkpt lat="40.0713749" lon="-105.229789">
  <ele>1583.0</ele>
  <time>2026-08-28T17:56:33Z</time>
  <course>247.89</course>
  <speed>0.022360679774997897</speed>
  <fix>3d</fix>
</trkpt>
<trkpt lat="40.0713749" lon="-105.229789">
  <ele>1583.0</ele>
  <time>2026-08-28T17:56:33Z</time>
  <course>0.0</course>
  <speed>0.0</speed>
  <fix>3d</fix>
</trkpt>
<trkpt lat="40.0713749" lon="-105.229789">
  <ele>1583.0</ele>
  <time>2026-08-28T17:56:33Z</time>
  <course>247.88</course>
  <speed>0.022360679774997897</speed>
  <fix>3d</fix>
</trkpt>
<trkpt lat="40.0713749" lon="-105.229789">
  <ele>1583.0</ele>
  <time>2026-08-28T17:56:33Z</time>
  <course>0.0</course>
  <speed>0.0</speed>
  <fix>3d</fix>
</trkpt>
<trkpt lat="40.0713749" lon="-105.229789">
  <ele>1583.0</ele>
  <time>2026-08-28T17:56:33Z</time>
  <course>247.88</course>
  <speed>0.0316227766016838</speed>
  <fix>3d</fix>
</trkpt>
<trkpt lat="40.0713749" lon="-105.229789">
  <ele>1583.0</ele>
  <time>2026-08-28T17:56:33Z</time>
  <course>0.0</course>
  <speed>0.0</speed>
  <fix>3d</fix>
</trkpt>
<trkpt lat="40.0713749" lon="-105.229789">
  <ele>1583.0</ele>
  <time>2026-08-28T17:56:33Z</time>
  <course>247.87</course>
  <speed>0.0316227766016838</speed>
  <fix>3d</fix>
</trkpt>
<trkpt lat="40.0713749" lon="-105.229789">
  <ele>1583.0</ele>
  <time>2026-08-28T17:56:33Z</time>
  <course>0.0</course>
  <speed>0.0</speed>
  <fix>3d</fix>
</trkpt>
<trkpt lat="40.0713749" lon="-105.229789">
  <ele>1583.0</ele>
  <time>2026-08-28T17:56:33Z</time>
  <course>247.87</course>
  <speed>0.0316227766016838</speed>
  <fix>3d</fix>
</trkpt>
<trkpt lat="40.0713749" lon="-105.229789">
  <ele>1583.0</ele>
  <time>2026-08-28T17:56:33Z</time>
  <course>0.0</course>
  <speed>0.0</speed>
  <fix>3d</fix>
</trkpt>
<trkpt lat="40.0713749" lon="-105.229789">
  <ele>1583.0</ele>
  <time>2026-08-28T17:56:33Z</time>
  <course>247.87</course>
  <speed>0.0316227766016838</speed>
  <fix>3d</fix>
</trkpt>
<trkpt lat="40.0713749" lon="-105.229789">
  <ele>1583.0</ele>
  <time>2026-08-28T17:56:33Z</time>
  <course>0.0</course>
  <speed>0.0</speed>
  <fix>3d</fix>
</trkpt>
<trkpt lat="40.0713749" lon="-105.229789">
  <ele>1583.0</ele>
  <time>2026-08-28T17:56:33Z</time>
  <course>247.86</course>
  <speed>0.0316227766016838</speed>
  <fix>3d</fix>
</trkpt>
<trkpt lat="40.0713749" lon="-105.229789">
  <ele>1583.0</ele>
  <time>2026-08-28T17:56:33Z</time>
  <course>0.0</course>
  <speed>0.0</speed>
  <fix>3d</fix>
</trkpt>
<trkpt lat="40.0713749" lon="-105.229789">
  <ele>1583.0</ele>
  <time>2026-08-28T17:56:33Z</time>
  <course>247.86</course>
  <speed>0.0316227766016838</speed>
  <fix>3d</fix>
</trkpt>
<trkpt lat="40.0713749" lon="-105.229789">
  <ele>1583.0</ele>
  <time>2026-08-28T17:56:33Z</time>
  <course>0.0</course>
  <speed>0.0</speed>
  <fix>3d</fix>
</trkpt>
<trkpt lat="40.0713749" lon="-105.229789">
  <ele>1583.0</ele>
  <time>2026-08-28T17:56:33Z</time>
  <course>247.85</course>
  <speed>0.0316227766016838</speed>
  <fix>3d</fix>
</trkpt>
<trkpt lat="40.0713749" lon="-105.229789">
  <ele>1583.0</ele>
  <time>2026-08-28T17:56:33Z</time>
  <course>0.0</course>
  <speed>0.0</speed>
  <fix>3d</fix>
</trkpt>
<trkpt lat="40.0713749" lon="-105.229789">
  <ele>1583.0</ele>
  <time>2026-08-28T17:56:33Z</time>
  <course>247.85</course>
  <speed>0.0316227766016838</speed>
  <fix>3d</fix>
</trkpt>
<trkpt lat="40.0713749" lon="-105.229789">
  <ele>1583.0</ele>
  <time>2026-08-28T17:56:33Z</time>
  <course>0.0</course>
  <speed>0.0</speed>
  <fix>3d</fix>
</trkpt>
<trkpt lat="40.0713749" lon="-105.229789">
  <ele>1583.0</ele>
  <time>2026-08-28T17:56:33Z</time>
  <course>247.84</course>
  <speed>0.0316227766016838</speed>
  <fix>3d</fix>
</trkpt>
<trkpt lat="40.0713749" lon="-105.229789">
  <ele>1583.0</ele>
  <time>2026-08-28T17:56:33Z</time>
  <course>0.0</course>
  <speed>0.0</speed>
  <fix>3d</fix>
</trkpt>
<trkpt lat="40.0713749" lon="-105.229789">
  <ele>1583.0</ele>
  <time>2026-08-28T17:56:33Z</time>
  <course>247.84</course>
  <speed>0.0316227766016838</speed>
  <fix>3d</fix>
</trkpt>
<trkpt lat="40.0713749" lon="-105.229789">
  <ele>1583.0</ele>
  <time>2026-08-28T17:56:33Z</time>
  <course>0.0</course>
  <speed>0.0</speed>
  <fix>3d</fix>
</trkpt>
<trkpt lat="40.0713749" lon="-105.229789">
  <ele>1583.0</ele>
  <time>2026-08-28T17:56:33Z</time>
  <course>247.84</course>
  <speed>0.0316227766016838</speed>
  <fix>3d</fix>
</trkpt>
<trkpt lat="40.0713749" lon="-105.229789">
  <ele>1583.0</ele>
  <time>2026-08-28T17:56:33Z</time>
  <course>0.0</course>
  <speed>0.0</speed>
  <fix>3d</fix>
</trkpt>
<trkpt lat="40.0713749" lon="-105.229789">
  <ele>1583.0</ele>
  <time>2026-08-28T17:56:33Z</time>
  <course>247.83</course>
  <speed>0.0316227766016838</speed>
  <fix>3d</fix>
</trkpt>
<trkpt lat="40.0713749" lon="-105.229789">
  <ele>1583.0</ele>
  <time>2026-08-28T17:56:33Z</time>
  <course>0.0</course>
  <speed>0.0</speed>
  <fix>3d</fix>
</trkpt>
<trkpt lat="40.0713749" lon="-105.229789">
  <ele>1583.0</ele>
  <time>2026-08-28T17:56:33Z</time>
  <course>247.83</course>
  <speed>0.0316227766016838</speed>
  <fix>3d</fix>
</trkpt>
<trkpt lat="40.0713749" lon="-105.229789">
  <ele>1583.0</ele>
  <time>2026-08-28T17:56:33Z</time>
  <course>0.0</course>
  <speed>0.0</speed>
  <fix>3d</fix>
</trkpt>
<trkpt lat="40.0713749" lon="-105.229789">
  <ele>1583.0</ele>
  <time>2026-08-28T17:56:33Z</time>
  <course>247.83</course>
  <speed>0.0316227766016838</speed>
  <fix>3d</fix>
</trkpt>
<trkpt lat="40.0713749" lon="-105.229789">
  <ele>1583.0</ele>
  <time>2026-08-28T17:56:33Z</time>
  <course>0.0</course>
  <speed>0.0</speed>
  <fix>3d</fix>
</trkpt>
<trkpt lat="40.0713749" lon="-105.229789">
  <ele>1583.0</ele>
  <time>2026-08-28T17:56:33Z</time>
  <course>247.82</course>
  <speed>0.0316227766016838</speed>
  <fix>3d</fix>
</trkpt>
<trkpt lat="40.0713749" lon="-105.229789">
  <ele>1583.0</ele>
  <time>2026-08-28T17:56:33Z</time>
  <course>0.0</course>
  <speed>0.0</speed>
  <fix>3d</fix>
</trkpt>
<trkpt lat="40.0713749" lon="-105.229789">
  <ele>1583.0</ele>
  <time>2026-08-28T17:56:33Z</time>
  <course>247.82</course>
  <speed>0.0316227766016838</speed>
  <fix>3d</fix>
</trkpt>
<trkpt lat="40.0713749" lon="-105.229789">
  <ele>1583.0</ele>
  <time>2026-08-28T17:56:33Z</time>
  <course>0.0</course>
  <speed>0.0</speed>
  <fix>3d</fix>
</trkpt>
<trkpt lat="40.0713749" lon="-105.229789">
  <ele>1583.0</ele>
  <time>2026-08-28T17:56:33Z</time>
  <course>247.81</course>
  <speed>0.0316227766016838</speed>
  <fix>3d</fix>
</trkpt>
<trkpt lat="40.0713749" lon="-105.229789">
  <ele>1583.0</ele>
  <time>2026-08-28T17:56:33Z</time>
  <course>0.0</course>
  <speed>0.0</speed>
  <fix>3d</fix>
</trkpt>
<trkpt lat="40.0713749" lon="-105.229789">
  <ele>1583.0</ele>
  <time>2026-08-28T17:56:33Z</time>
  <course>247.81</course>
  <speed>0.0316227766016838</speed>
  <fix>3d</fix>
</trkpt>
<trkpt lat="40.0713749" lon="-105.229789">
  <ele>1583.0</ele>
  <time>2026-08-28T17:56:33Z</time>
  <course>0.0</course>
  <speed>0.0</speed>
  <fix>3d</fix>
</trkpt>
<trkpt lat="40.0713749" lon="-105.229789">
  <ele>1583.0</ele>
  <time>2026-08-28T17:56:33Z</time>
  <course>247.81</course>
  <speed>0.0316227766016838</speed>
  <fix>3d</fix>
</trkpt>
<trkpt lat="40.0713749" lon="-105.229789">
  <ele>1583.0</ele>
  <time>2026-08-28T17:56:33Z</time>
  <course>0.0</course>
  <speed>0.0</speed>
  <fix>3d</fix>
</trkpt>
<trkpt lat="40.0713749" lon="-105.229789">
  <ele>1583.0</ele>
  <time>2026-08-28T17:56:33Z</time>
  <course>247.8</course>
  <speed>0.0316227766016838</speed>
  <fix>3d</fix>
</trkpt>
<trkpt lat="40.0713749" lon="-105.229789">
  <ele>1583.0</ele>
  <time>2026-08-28T17:56:33Z</time>
  <course>0.0</course>
  <speed>0.0</speed>
  <fix>3d</fix>
</trkpt>
<trkpt lat="40.0713749" lon="-105.229789">
  <ele>1583.0</ele>
  <time>2026-08-28T17:56:33Z</time>
  <course>247.8</course>
  <speed>0.0316227766016838</speed>
  <fix>3d</fix>
</trkpt>
<trkpt lat="40.0713749" lon="-105.229789">
  <ele>1583.0</ele>
  <time>2026-08-28T17:56:33Z</time>
  <course>0.0</course>
  <speed>0.0</speed>
  <fix>3d</fix>
</trkpt>
<trkpt lat="40.0713749" lon="-105.229789">
  <ele>1583.0</ele>
  <time>2026-08-28T17:56:33Z</time>
  <course>247.8</course>
  <speed>0.0316227766016838</speed>
  <fix>3d</fix>
</trkpt>
<trkpt lat="40.0713749" lon="-105.229789">
  <ele>1583.0</ele>
  <time>2026-08-28T17:56:33Z</time>
  <course>0.0</course>
  <speed>0.0</speed>
  <fix>3d</fix>
</trkpt>
<trkpt lat="40.0713749" lon="-105.229789">
  <ele>1583.0</ele>
  <time>2026-08-28T17:56:33Z</time>
  <course>247.79</course>
  <speed>0.0316227766016838</speed>
  <fix>3d</fix>
</trkpt>
<trkpt lat="40.0713749" lon="-105.229789">
  <ele>1583.0</ele>
  <time>2026-08-28T17:56:33Z</time>
  <course>0.0</course>
  <speed>0.0</speed>
  <fix>3d</fix>
</trkpt>
<trkpt lat="40.0713749" lon="-105.229789">
  <ele>1583.0</ele>
  <time>2026-08-28T17:56:33Z</time>
  <course>247.79</course>
  <speed>0.0316227766016838</speed>
  <fix>3d</fix>
</trkpt>
<trkpt lat="40.0713749" lon="-105.229789">
  <ele>1583.0</ele>
  <time>2026-08-28T17:56:33Z</time>
  <course>0.0</course>
  <speed>0.0</speed>
  <fix>3d</fix>
</trkpt>
<trkpt lat="40.0713749" lon="-105.229789">
  <ele>1583.0</ele>
  <time>2026-08-28T17:56:33Z</time>
  <course>247.78</course>
  <speed>0.0316227766016838</speed>
  <fix>3d</fix>
</trkpt>
<trkpt lat="40.0713749" lon="-105.229789">
  <ele>1583.0</ele>
  <time>2026-08-28T17:56:33Z</time>
  <course>0.0</course>
  <speed>0.0</speed>
  <fix>3d</fix>
</trkpt>
<trkpt lat="40.0713749" lon="-105.229789">
  <ele>1583.0</ele>
  <time>2026-08-28T17:56:33Z</time>
  <course>247.78</course>
  <speed>0.0316227766016838</speed>
  <fix>3d</fix>
</trkpt>
<trkpt lat="40.0713749" lon="-105.229789">
  <ele>1583.0</ele>
  <time>2026-08-28T17:56:33Z</time>
  <course>0.0</course>
  <speed>0.0</speed>
  <fix>3d</fix>
</trkpt>
<trkpt lat="40.0713749" lon="-105.229789">
  <ele>1583.0</ele>
  <time>2026-08-28T17:56:33Z</time>
  <course>247.78</course>
  <speed>0.0316227766016838</speed>
  <fix>3d</fix>
</trkpt>
<trkpt lat="40.0713749" lon="-105.229789">
  <ele>1583.0</ele>
  <time>2026-08-28T17:56:33Z</time>
  <course>0.0</course>
  <speed>0.0</speed>
  <fix>3d</fix>
</trkpt>
<trkpt lat="40.0713749" lon="-105.229789">
  <ele>1583.0</ele>
  <time>2026-08-28T17:56:33Z</time>
  <course>247.77</course>
  <speed>0.0316227766016838</speed>
  <fix>3d</fix>
</trkpt>
<trkpt lat="40.0713749" lon="-105.229789">
  <ele>1583.0</ele>
  <time>2026-08-28T17:56:33Z</time>
  <course>0.0</course>
  <speed>0.0</speed>
  <fix>3d</fix>
</trkpt>
<trkpt lat="40.0713749" lon="-105.229789">
  <ele>1583.0</ele>
  <time>2026-08-28T17:56:33Z</time>
  <course>247.77</course>
  <speed>0.0316227766016838</speed>
  <fix>3d</fix>
</trkpt>
<trkpt lat="40.0713749" lon="-105.229789">
  <ele>1583.0</ele>
  <time>2026-08-28T17:56:33Z</time>
  <course>0.0</course>
  <speed>0.0</speed>
  <fix>3d</fix>
</trkpt>
<trkpt lat="40.0713749" lon="-105.229789">
  <ele>1583.0</ele>
  <time>2026-08-28T17:56:33Z</time>
  <course>247.77</course>
  <speed>0.0316227766016838</speed>
  <fix>3d</fix>
</trkpt>
<trkpt lat="40.0713749" lon="-105.229789">
  <ele>1583.0</ele>
  <time>2026-08-28T17:56:33Z</time>
  <course>0.0</course>
  <speed>0.0</speed>
  <fix>3d</fix>
</trkpt>
<trkpt lat="40.0713749" lon="-105.229789">
  <ele>1583.0</ele>
  <time>2026-08-28T17:56:33Z</time>
  <course>247.76</course>
  <speed>0.0316227766016838</speed>
  <fix>3d</fix>
</trkpt>
<trkpt lat="40.0713749" lon="-105.229789">
  <ele>1583.0</ele>
  <time>2026-08-28T17:56:33Z</time>
  <course>0.0</course>
  <speed>0.0</speed>
  <fix>3d</fix>
</trkpt>
<trkpt lat="40.0713749" lon="-105.229789">
  <ele>1583.0</ele>
  <time>2026-08-28T17:56:33Z</time>
  <course>247.76</course>
  <speed>0.0316227766016838</speed>
  <fix>3d</fix>
</trkpt>
<trkpt lat="40.0713749" lon="-105.229789">
  <ele>1583.0</ele>
  <time>2026-08-28T17:56:33Z</time>
  <course>0.0</course>
  <speed>0.0</speed>
  <fix>3d</fix>
</trkpt>
<trkpt lat="40.0713749" lon="-105.229789">
  <ele>1583.0</ele>
  <time>2026-08-28T17:56:33Z</time>
  <course>247.75</course>
  <speed>0.0316227766016838</speed>
  <fix>3d</fix>
</trkpt>
<trkpt lat="40.0713749" lon="-105.229789">
  <ele>1583.0</ele>
  <time>2026-08-28T17:56:33Z</time>
  <course>0.0</course>
  <speed>0.0</speed>
  <fix>3d</fix>
</trkpt>
<trkpt lat="40.0713749" lon="-105.229789">
  <ele>1583.0</ele>
  <time>2026-08-28T17:56:33Z</time>
  <course>247.75</course>
  <speed>0.0316227766016838</speed>
  <fix>3d</fix>
</trkpt>
<trkpt lat="40.0713749" lon="-105.229789">
  <ele>1583.0</ele>
  <time>2026-08-28T17:56:33Z</time>
  <course>0.0</course>
  <speed>0.0</speed>
  <fix>3d</fix>
</trkpt>
<trkpt lat="40.0713749" lon="-105.229789">
  <ele>1583.0</ele>
  <time>2026-08-28T17:56:33Z</time>
  <course>247.75</course>
  <speed>0.0316227766016838</speed>
  <fix>3d</fix>
</trkpt>
<trkpt lat="40.0713749" lon="-105.229789">
  <ele>1583.0</ele>
  <time>2026-08-28T17:56:33Z</time>
  <course>0.0</course>
  <speed>0.0</speed>
  <fix>3d</fix>
</trkpt>
<trkpt lat="40.0713749" lon="-105.229789">
  <ele>1583.0</ele>
  <time>2026-08-28T17:56:33Z</time>
  <course>247.74</course>
  <speed>0.0316227766016838</speed>
  <fix>3d</fix>
</trkpt>
<trkpt lat="40.0713749" lon="-105.229789">
  <ele>1583.0</ele>
  <time>2026-08-28T17:56:33Z</time>
  <course>0.0</course>
  <speed>0.0</speed>
  <fix>3d</fix>
</trkpt>
<trkpt lat="40.0713749" lon="-105.229789">
  <ele>1583.0</ele>
  <time>2026-08-28T17:56:33Z</time>
  <course>247.74</course>
  <speed>0.0316227766016838</speed>
  <fix>3d</fix>
</trkpt>
<trkpt lat="40.0713749" lon="-105.229789">
  <ele>1583.0</ele>
  <time>2026-08-28T17:56:33Z</time>
  <course>0.0</course>
  <speed>0.0</speed>
  <fix>3d</fix>
</trkpt>
<trkpt lat="40.0713749" lon="-105.229789">
  <ele>1583.0</ele>
  <time>2026-08-28T17:56:33Z</time>
  <course>247.74</course>
  <speed>0.0316227766016838</speed>
  <fix>3d</fix>
</trkpt>
<trkpt lat="40.0713749" lon="-105.229789">
  <ele>1583.0</ele>
  <time>2026-08-28T17:56:33Z</time>
  <course>0.0</course>
  <speed>0.0</speed>
  <fix>3d</fix>
</trkpt>
<trkpt lat="40.0713749" lon="-105.229789">
  <ele>1583.0</ele>
  <time>2026-08-28T17:56:33Z</time>
  <course>247.73</course>
  <speed>0.0316227766016838</speed>
  <fix>3d</fix>
</trkpt>
<trkpt lat="40.0713749" lon="-105.229789">
  <ele>1583.0</ele>
  <time>2026-08-28T17:56:33Z</time>
  <course>0.0</course>
  <speed>0.0</speed>
  <fix>3d</fix>
</trkpt>
<trkpt lat="40.0713749" lon="-105.229789">
  <ele>1583.0</ele>
  <time>2026-08-28T17:56:33Z</time>
  <course>247.73</course>
  <speed>0.0316227766016838</speed>
  <fix>3d</fix>
</trkpt>
<trkpt lat="40.0713749" lon="-105.229789">
  <ele>1583.0</ele>
  <time>2026-08-28T17:56:33Z</time>
  <course>0.0</course>
  <speed>0.0</speed>
  <fix>3d</fix>
</trkpt>
<trkpt lat="40.0713749" lon="-105.229789">
  <ele>1583.0</ele>
  <time>2026-08-28T17:56:33Z</time>
  <course>247.73</course>
  <speed>0.0316227766016838</speed>
  <fix>3d</fix>
</trkpt>
<trkpt lat="40.0713749" lon="-105.229789">
  <ele>1583.0</ele>
  <time>2026-08-28T17:56:33Z</time>
  <course>0.0</course>
  <speed>0.0</speed>
  <fix>3d</fix>
</trkpt>
<trkpt lat="40.0713749" lon="-105.229789">
  <ele>1583.0</ele>
  <time>2026-08-28T17:56:33Z</time>
  <course>247.72</course>
  <speed>0.0316227766016838</speed>
  <fix>3d</fix>
</trkpt>
<trkpt lat="40.0713749" lon="-105.229789">
  <ele>1583.0</ele>
  <time>2026-08-28T17:56:33Z</time>
  <course>0.0</course>
  <speed>0.0</speed>
  <fix>3d</fix>
</trkpt>
<trkpt lat="40.0713749" lon="-105.229789">
  <ele>1583.0</ele>
  <time>2026-08-28T17:56:33Z</time>
  <course>247.72</course>
  <speed>0.0316227766016838</speed>
  <fix>3d</fix>
</trkpt>
<trkpt lat="40.0713749" lon="-105.229789">
  <ele>1583.0</ele>
  <time>2026-08-28T17:56:33Z</time>
  <course>0.0</course>
  <speed>0.0</speed>
  <fix>3d</fix>
</trkpt>
<trkpt lat="40.0713749" lon="-105.229789">
  <ele>1583.0</ele>
  <time>2026-08-28T17:56:33Z</time>
  <course>247.72</course>
  <speed>0.0316227766016838</speed>
  <fix>3d</fix>
</trkpt>
<trkpt lat="40.0713749" lon="-105.229789">
  <ele>1583.0</ele>
  <time>2026-08-28T17:56:33Z</time>
  <course>0.0</course>
  <speed>0.0</speed>
  <fix>3d</fix>
</trkpt>
<trkpt lat="40.0713749" lon="-105.229789">
  <ele>1583.0</ele>
  <time>2026-08-28T17:56:33Z</time>
  <course>247.71</course>
  <speed>0.0316227766016838</speed>
  <fix>3d</fix>
</trkpt>
<trkpt lat="40.0713749" lon="-105.229789">
  <ele>1583.0</ele>
  <time>2026-08-28T17:56:33Z</time>
  <course>0.0</course>
  <speed>0.0</speed>
  <fix>3d</fix>
</trkpt>
<trkpt lat="40.0713749" lon="-105.229789">
  <ele>1583.0</ele>
  <time>2026-08-28T17:56:33Z</time>
  <course>247.71</course>
  <speed>0.0316227766016838</speed>
  <fix>3d</fix>
</trkpt>
<trkpt lat="40.0713749" lon="-105.229789">
  <ele>1583.0</ele>
  <time>2026-08-28T17:56:33Z</time>
  <course>0.0</course>
  <speed>0.0</speed>
  <fix>3d</fix>
</trkpt>
<trkpt lat="40.0713749" lon="-105.229789">
  <ele>1583.0</ele>
  <time>2026-08-28T17:56:33Z</time>
  <course>247.71</course>
  <speed>0.0316227766016838</speed>
  <fix>3d</fix>
</trkpt>
<trkpt lat="40.0713749" lon="-105.229789">
  <ele>1583.0</ele>
  <time>2026-08-28T17:56:33Z</time>
  <course>0.0</course>
  <speed>0.0</speed>
  <fix>3d</fix>
</trkpt>
<trkpt lat="40.0713749" lon="-105.229789">
  <ele>1583.0</ele>
  <time>2026-08-28T17:56:33Z</time>
  <course>247.7</course>
  <speed>0.0316227766016838</speed>
  <fix>3d</fix>
</trkpt>
<trkpt lat="40.0713749" lon="-105.229789">
  <ele>1583.0</ele>
  <time>2026-08-28T17:56:33Z</time>
  <course>0.0</course>
  <speed>0.0</speed>
  <fix>3d</fix>
</trkpt>
<trkpt lat="40.0713749" lon="-105.229789">
  <ele>1583.0</ele>
  <time>2026-08-28T17:56:33Z</time>
  <course>247.7</course>
  <speed>0.0316227766016838</speed>
  <fix>3d</fix>
</trkpt>
<trkpt lat="40.0713749" lon="-105.229789">
  <ele>1583.0</ele>
  <time>2026-08-28T17:56:33Z</time>
  <course>0.0</course>
  <speed>0.0</speed>
  <fix>3d</fix>
</trkpt>
<trkpt lat="40.0713749" lon="-105.229789">
  <ele>1583.0</ele>
  <time>2026-08-28T17:56:33Z</time>
  <course>247.7</course>
  <speed>0.0316227766016838</speed>
  <fix>3d</fix>
</trkpt>
<trkpt lat="40.0713749" lon="-105.229789">
  <ele>1583.0</ele>
  <time>2026-08-28T17:56:33Z</time>
  <course>0.0</course>
  <speed>0.0</speed>
  <fix>3d</fix>
</trkpt>
<trkpt lat="40.0713749" lon="-105.229789">
  <ele>1583.0</ele>
  <time>2026-08-28T17:56:33Z</time>
  <course>247.69</course>
  <speed>0.0316227766016838</speed>
  <fix>3d</fix>
</trkpt>
<trkpt lat="40.0713749" lon="-105.229789">
  <ele>1583.0</ele>
  <time>2026-08-28T17:56:33Z</time>
  <course>0.0</course>
  <speed>0.0</speed>
  <fix>3d</fix>
</trkpt>
<trkpt lat="40.0713749" lon="-105.229789">
  <ele>1583.0</ele>
  <time>2026-08-28T17:56:33Z</time>
  <course>247.69</course>
  <speed>0.0316227766016838</speed>
  <fix>3d</fix>
</trkpt>
<trkpt lat="40.0713749" lon="-105.229789">
  <ele>1583.0</ele>
  <time>2026-08-28T17:56:33Z</time>
  <course>0.0</course>
  <speed>0.0</speed>
  <fix>3d</fix>
</trkpt>
<trkpt lat="40.0713749" lon="-105.229789">
  <ele>1583.0</ele>
  <time>2026-08-28T17:56:33Z</time>
  <course>247.69</course>
  <speed>0.0316227766016838</speed>
  <fix>3d</fix>
</trkpt>
<trkpt lat="40.0713749" lon="-105.229789">
  <ele>1583.0</ele>
  <time>2026-08-28T17:56:33Z</time>
  <course>0.0</course>
  <speed>0.0</speed>
  <fix>3d</fix>
</trkpt>
<trkpt lat="40.0713749" lon="-105.229789">
  <ele>1583.0</ele>
  <time>2026-08-28T17:56:33Z</time>
  <course>247.68</course>
  <speed>0.0316227766016838</speed>
  <fix>3d</fix>
</trkpt>
<trkpt lat="40.0713749" lon="-105.229789">
  <ele>1583.0</ele>
  <time>2026-08-28T17:56:33Z</time>
  <course>0.0</course>
  <speed>0.0</speed>
  <fix>3d</fix>
</trkpt>
<trkpt lat="40.0713749" lon="-105.229789">
  <ele>1583.0</ele>
  <time>2026-08-28T17:56:33Z</time>
  <course>247.68</course>
  <speed>0.0316227766016838</speed>
  <fix>3d</fix>
</trkpt>
<trkpt lat="40.0713749" lon="-105.229789">
  <ele>1583.0</ele>
  <time>2026-08-28T17:56:33Z</time>
  <course>0.0</course>
  <speed>0.0</speed>
  <fix>3d</fix>
</trkpt>
<trkpt lat="40.0713749" lon="-105.229789">
  <ele>1583.0</ele>
  <time>2026-08-28T17:56:33Z</time>
  <course>247.68</course>
  <speed>0.0316227766016838</speed>
  <fix>3d</fix>
</trkpt>
<trkpt lat="40.0713749" lon="-105.229789">
  <ele>1583.0</ele>
  <time>2026-08-28T17:56:33Z</time>
  <course>0.0</course>
  <speed>0.0</speed>
  <fix>3d</fix>
</trkpt>
<trkpt lat="40.0713749" lon="-105.229789">
  <ele>1583.0</ele>
  <time>2026-08-28T17:56:33Z</time>
  <course>247.67</course>
  <speed>0.0316227766016838</speed>
  <fix>3d</fix>
</trkpt>
<trkpt lat="40.0713749" lon="-105.229789">
  <ele>1583.0</ele>
  <time>2026-08-28T17:56:33Z</time>
  <course>0.0</course>
  <speed>0.0</speed>
  <fix>3d</fix>
</trkpt>
<trkpt lat="40.0713749" lon="-105.229789">
  <ele>1583.0</ele>
  <time>2026-08-28T17:56:33Z</time>
  <course>247.67</course>
  <speed>0.0316227766016838</speed>
  <fix>3d</fix>
</trkpt>
<trkpt lat="40.0713749" lon="-105.229789">
  <ele>1583.0</ele>
  <time>2026-08-28T17:56:33Z</time>
  <course>0.0</course>
  <speed>0.0</speed>
  <fix>3d</fix>
</trkpt>
<trkpt lat="40.0713749" lon="-105.229789">
  <ele>1583.0</ele>
  <time>2026-08-28T17:56:33Z</time>
  <course>247.67</course>
  <speed>0.0316227766016838</speed>
  <fix>3d</fix>
</trkpt>
<trkpt lat="40.0713749" lon="-105.229789">
  <ele>1583.0</ele>
  <time>2026-08-28T17:56:33Z</time>
  <course>0.0</course>
  <speed>0.0</speed>
  <fix>3d</fix>
</trkpt>
<trkpt lat="40.0713749" lon="-105.229789">
  <ele>1583.0</ele>
  <time>2026-08-28T17:56:33Z</time>
  <course>247.66</course>
  <speed>0.0316227766016838</speed>
  <fix>3d</fix>
</trkpt>
<trkpt lat="40.0713749" lon="-105.229789">
  <ele>1583.0</ele>
  <time>2026-08-28T17:56:33Z</time>
  <course>0.0</course>
  <speed>0.0</speed>
  <fix>3d</fix>
</trkpt>
<trkpt lat="40.0713749" lon="-105.229789">
  <ele>1583.0</ele>
  <time>2026-08-28T17:56:33Z</time>
  <course>247.66</course>
  <speed>0.0316227766016838</speed>
  <fix>3d</fix>
</trkpt>
<trkpt lat="40.0713749" lon="-105.229789">
  <ele>1583.0</ele>
  <time>2026-08-28T17:56:33Z</time>
  <course>0.0</course>
  <speed>0.0</speed>
  <fix>3d</fix>
</trkpt>
<trkpt lat="40.0713749" lon="-105.229789">
  <ele>1583.0</ele>
  <time>2026-08-28T17:56:33Z</time>
  <course>247.66</course>
  <speed>0.0316227766016838</speed>
  <fix>3d</fix>
</trkpt>
<trkpt lat="40.0713749" lon="-105.229789">
  <ele>1583.0</ele>
  <time>2026-08-28T17:56:33Z</time>
  <course>0.0</course>
  <speed>0.0</speed>
  <fix>3d</fix>
</trkpt>
<trkpt lat="40.0713749" lon="-105.229789">
  <ele>1583.0</ele>
  <time>2026-08-28T17:56:33Z</time>
  <course>247.65</course>
  <speed>0.0316227766016838</speed>
  <fix>3d</fix>
</trkpt>
<trkpt lat="40.0713749" lon="-105.229789">
  <ele>1583.0</ele>
  <time>2026-08-28T17:56:33Z</time>
  <course>0.0</course>
  <speed>0.0</speed>
  <fix>3d</fix>
</trkpt>
<trkpt lat="40.0713749" lon="-105.229789">
  <ele>1583.0</ele>
  <time>2026-08-28T17:56:33Z</time>
  <course>247.65</course>
  <speed>0.0316227766016838</speed>
  <fix>3d</fix>
</trkpt>
<trkpt lat="40.0713749" lon="-105.229789">
  <ele>1583.0</ele>
  <time>2026-08-28T17:56:33Z</time>
  <course>0.0</course>
  <speed>0.0</speed>
  <fix>3d</fix>
</trkpt>
<trkpt lat="40.0713749" lon="-105.229789">
  <ele>1583.0</ele>
  <time>2026-08-28T17:56:33Z</time>
  <course>247.65</course>
  <speed>0.0316227766016838</speed>
  <fix>3d</fix>
</trkpt>
<trkpt lat="40.0713749" lon="-105.229789">
  <ele>1583.0</ele>
  <time>2026-08-28T17:56:33Z</time>
  <course>0.0</course>
  <speed>0.0</speed>
  <fix>3d</fix>
</trkpt>
<trkpt lat="40.0713749" lon="-105.229789">
  <ele>1583.0</ele>
  <time>2026-08-28T17:56:33Z</time>
  <course>247.65</course>
  <speed>0.0316227766016838</speed>
  <fix>3d</fix>
</trkpt>
<trkpt lat="40.0713749" lon="-105.229789">
  <ele>1583.0</ele>
  <time>2026-08-28T17:56:33Z</time>
  <course>0.0</course>
  <speed>0.0</speed>
  <fix>3d</fix>
</trkpt>
<trkpt lat="40.0713749" lon="-105.229789">
  <ele>1583.0</ele>
  <time>2026-08-28T17:56:33Z</time>
  <course>247.64</course>
  <speed>0.0316227766016838</speed>
  <fix>3d</fix>
</trkpt>
<trkpt lat="40.0713749" lon="-105.229789">
  <ele>1583.0</ele>
  <time>2026-08-28T17:56:33Z</time>
  <course>0.0</course>
  <speed>0.0</speed>
  <fix>3d</fix>
</trkpt>
<trkpt lat="40.0713749" lon="-105.229789">
  <ele>1583.0</ele>
  <time>2026-08-28T17:56:33Z</time>
  <course>247.64</course>
  <speed>0.0316227766016838</speed>
  <fix>3d</fix>
</trkpt>
<trkpt lat="40.0713749" lon="-105.229789">
  <ele>1583.0</ele>
  <time>2026-08-28T17:56:33Z</time>
  <course>0.0</course>
  <speed>0.0</speed>
  <fix>3d</fix>
</trkpt>
<trkpt lat="40.0713749" lon="-105.229789">
  <ele>1583.0</ele>
  <time>2026-08-28T17:56:33Z</time>
  <course>247.64</course>
  <speed>0.0316227766016838</speed>
  <fix>3d</fix>
</trkpt>
<trkpt lat="40.0713749" lon="-105.229789">
  <ele>1583.0</ele>
  <time>2026-08-28T17:56:33Z</time>
  <course>0.0</course>
  <speed>0.0</speed>
  <fix>3d</fix>
</trkpt>
<trkpt lat="40.0713749" lon="-105.229789">
  <ele>1583.0</ele>
  <time>2026-08-28T17:56:33Z</time>
  <course>247.63</course>
  <speed>0.0316227766016838</speed>
  <fix>3d</fix>
</trkpt>
<trkpt lat="40.0713749" lon="-105.229789">
  <ele>1583.0</ele>
  <time>2026-08-28T17:56:33Z</time>
  <course>0.0</course>
  <speed>0.0</speed>
  <fix>3d</fix>
</trkpt>
<trkpt lat="40.0713749" lon="-105.229789">
  <ele>1583.0</ele>
  <time>2026-08-28T17:56:33Z</time>
  <course>247.63</course>
  <speed>0.0316227766016838</speed>
  <fix>3d</fix>
</trkpt>
<trkpt lat="40.0713749" lon="-105.229789">
  <ele>1583.0</ele>
  <time>2026-08-28T17:56:33Z</time>
  <course>0.0</course>
  <speed>0.0</speed>
  <fix>3d</fix>
</trkpt>
<trkpt lat="40.0713749" lon="-105.229789">
  <ele>1583.0</ele>
  <time>2026-08-28T17:56:33Z</time>
  <course>247.63</course>
  <speed>0.0316227766016838</speed>
  <fix>3d</fix>
</trkpt>
<trkpt lat="40.0713749" lon="-105.229789">
  <ele>1583.0</ele>
  <time>2026-08-28T17:56:33Z</time>
  <course>0.0</course>
  <speed>0.0</speed>
  <fix>3d</fix>
</trkpt>
<trkpt lat="40.0713749" lon="-105.229789">
  <ele>1583.0</ele>
  <time>2026-08-28T17:56:33Z</time>
  <course>247.62</course>
  <speed>0.0316227766016838</speed>
  <fix>3d</fix>
</trkpt>
<trkpt lat="40.0713749" lon="-105.229789">
  <ele>1583.0</ele>
  <time>2026-08-28T17:56:33Z</time>
  <course>0.0</course>
  <speed>0.0</speed>
  <fix>3d</fix>
</trkpt>
<trkpt lat="40.0713749" lon="-105.229789">
  <ele>1583.0</ele>
  <time>2026-08-28T17:56:33Z</time>
  <course>247.62</course>
  <speed>0.0316227766016838</speed>
  <fix>3d</fix>
</trkpt>
<trkpt lat="40.0713749" lon="-105.229789">
  <ele>1583.0</ele>
  <time>2026-08-28T17:56:33Z</time>
  <course>0.0</course>
  <speed>0.0</speed>
  <fix>3d</fix>
</trkpt>
<trkpt lat="40.0713749" lon="-105.229789">
  <ele>1583.0</ele>
  <time>2026-08-28T17:56:33Z</time>
  <course>247.62</course>
  <speed>0.0316227766016838</speed>
  <fix>3d</fix>
</trkpt>
<trkpt lat="40.0713749" lon="-105.229789">
  <ele>1583.0</ele>
  <time>2026-08-28T17:56:33Z</time>
  <course>0.0</course>
  <speed>0.0</speed>
  <fix>3d</fix>
</trkpt>
<trkpt lat="40.0713749" lon="-105.229789">
  <ele>1583.0</ele>
  <time>2026-08-28T17:56:33Z</time>
  <course>247.62</course>
  <speed>0.0316227766016838</speed>
  <fix>3d</fix>
</trkpt>
<trkpt lat="40.0713749" lon="-105.229789">
  <ele>1583.0</ele>
  <time>2026-08-28T17:56:33Z</time>
  <course>0.0</course>
  <speed>0.0</speed>
  <fix>3d</fix>
</trkpt>
<trkpt lat="40.0713749" lon="-105.229789">
  <ele>1583.0</ele>
  <time>2026-08-28T17:56:33Z</time>
  <course>247.61</course>
  <speed>0.0316227766016838</speed>
  <fix>3d</fix>
</trkpt>
<trkpt lat="40.0713749" lon="-105.229789">
  <ele>1583.0</ele>
  <time>2026-08-28T17:56:33Z</time>
  <course>0.0</course>
  <speed>0.0</speed>
  <fix>3d</fix>
</trkpt>
<trkpt lat="40.0713749" lon="-105.229789">
  <ele>1583.0</ele>
  <time>2026-08-28T17:56:33Z</time>
  <course>247.61</course>
  <speed>0.0316227766016838</speed>
  <fix>3d</fix>
</trkpt>
<trkpt lat="40.0713749" lon="-105.229789">
  <ele>1583.0</ele>
  <time>2026-08-28T17:56:33Z</time>
  <course>0.0</course>
  <speed>0.0</speed>
  <fix>3d</fix>
</trkpt>
<trkpt lat="40.0713749" lon="-105.229789">
  <ele>1583.0</ele>
  <time>2026-08-28T17:56:33Z</time>
  <course>247.61</course>
  <speed>0.0316227766016838</speed>
  <fix>3d</fix>
</trkpt>
<trkpt lat="40.0713749" lon="-105.229789">
  <ele>1583.0</ele>
  <time>2026-08-28T17:56:33Z</time>
  <course>0.0</course>
  <speed>0.0</speed>
  <fix>3d</fix>
</trkpt>
<trkpt lat="40.0713749" lon="-105.229789">
  <ele>1583.0</ele>
  <time>2026-08-28T17:56:33Z</time>
  <course>247.6</course>
  <speed>0.0316227766016838</speed>
  <fix>3d</fix>
</trkpt>
<trkpt lat="40.0713749" lon="-105.229789">
  <ele>1583.0</ele>
  <time>2026-08-28T17:56:33Z</time>
  <course>0.0</course>
  <speed>0.0</speed>
  <fix>3d</fix>
</trkpt>
<trkpt lat="40.0713749" lon="-105.229789">
  <ele>1583.0</ele>
  <time>2026-08-28T17:56:33Z</time>
  <course>247.6</course>
  <speed>0.0316227766016838</speed>
  <fix>3d</fix>
</trkpt>
<trkpt lat="40.0713749" lon="-105.229789">
  <ele>1583.0</ele>
  <time>2026-08-28T17:56:33Z</time>
  <course>0.0</course>
  <speed>0.0</speed>
  <fix>3d</fix>
</trkpt>
<trkpt lat="40.0713749" lon="-105.229789">
  <ele>1583.0</ele>
  <time>2026-08-28T17:56:33Z</time>
  <course>247.6</course>
  <speed>0.0316227766016838</speed>
  <fix>3d</fix>
</trkpt>
<trkpt lat="40.0713749" lon="-105.229789">
  <ele>1583.0</ele>
  <time>2026-08-28T17:56:33Z</time>
  <course>0.0</course>
  <speed>0.0</speed>
  <fix>3d</fix>
</trkpt>
<trkpt lat="40.0713749" lon="-105.229789">
  <ele>1583.0</ele>
  <time>2026-08-28T17:56:33Z</time>
  <course>247.6</course>
  <speed>0.0316227766016838</speed>
  <fix>3d</fix>
</trkpt>
<trkpt lat="40.0713749" lon="-105.229789">
  <ele>1583.0</ele>
  <time>2026-08-28T17:56:33Z</time>
  <course>0.0</course>
  <speed>0.0</speed>
  <fix>3d</fix>
</trkpt>
<trkpt lat="40.0713749" lon="-105.229789">
  <ele>1583.0</ele>
  <time>2026-08-28T17:56:33Z</time>
  <course>247.59</course>
  <speed>0.0316227766016838</speed>
  <fix>3d</fix>
</trkpt>
<trkpt lat="40.0713749" lon="-105.229789">
  <ele>1583.0</ele>
  <time>2026-08-28T17:56:33Z</time>
  <course>0.0</course>
  <speed>0.0</speed>
  <fix>3d</fix>
</trkpt>
<trkpt lat="40.0713749" lon="-105.229789">
  <ele>1583.0</ele>
  <time>2026-08-28T17:56:33Z</time>
  <course>247.59</course>
  <speed>0.0316227766016838</speed>
  <fix>3d</fix>
</trkpt>
<trkpt lat="40.0713749" lon="-105.229789">
  <ele>1583.0</ele>
  <time>2026-08-28T17:56:33Z</time>
  <course>0.0</course>
  <speed>0.0</speed>
  <fix>3d</fix>
</trkpt>
<trkpt lat="40.0713749" lon="-105.229789">
  <ele>1583.0</ele>
  <time>2026-08-28T17:56:33Z</time>
  <course>247.59</course>
  <speed>0.0316227766016838</speed>
  <fix>3d</fix>
</trkpt>
<trkpt lat="40.0713749" lon="-105.229789">
  <ele>1583.0</ele>
  <time>2026-08-28T17:56:33Z</time>
  <course>0.0</course>
  <speed>0.0</speed>
  <fix>3d</fix>
</trkpt>
<trkpt lat="40.0713749" lon="-105.229789">
  <ele>1583.0</ele>
  <time>2026-08-28T17:56:33Z</time>
  <course>247.59</course>
  <speed>0.0</speed>
  <fix>3d</fix>
</trkpt>
<trkpt lat="40.0713749" lon="-105.229789">
  <ele>1583.0</ele>
  <time>2026-08-28T17:56:33Z</time>
  <course>0.0</course>
  <speed>0.0</speed>
  <fix>3d</fix>
</trkpt>
<trkpt lat="40.0713749" lon="-105.229789">
  <ele>1583.0</ele>
  <time>2026-08-28T17:56:33Z</time>
  <course>247.58</course>
  <speed>0.0</speed>
  <fix>3d</fix>
</trkpt>
<trkpt lat="40.0713749" lon="-105.229789">
  <ele>1583.0</ele>
  <time>2026-08-28T17:56:33Z</time>
  <course>0.0</course>
  <speed>0.0</speed>
  <fix>3d</fix>
</trkpt>
<trkpt lat="40.0713749" lon="-105.229789">
  <ele>1583.01</ele>
  <time>2026-08-28T17:56:33Z</time>
  <course>247.58</course>
  <speed>0.0</speed>
  <fix>3d</fix>
</trkpt>
<trkpt lat="40.0713749" lon="-105.229789">
  <ele>1583.0</ele>
  <time>2026-08-28T17:56:33Z</time>
  <course>0.0</course>
  <speed>0.0</speed>
  <fix>3d</fix>
</trkpt>
<trkpt lat="40.0713749" lon="-105.229789">
  <ele>1583.01</ele>
  <time>2026-08-28T17:56:33Z</time>
  <course>247.58</course>
  <speed>0.0</speed>
  <fix>3d</fix>
</trkpt>
<trkpt lat="40.0713749" lon="-105.229789">
  <ele>1583.0</ele>
  <time>2026-08-28T17:56:33Z</time>
  <course>0.0</course>
  <speed>0.0</speed>
  <fix>3d</fix>
</trkpt>
<trkpt lat="40.0713749" lon="-105.229789">
  <ele>1583.02</ele>
  <time>2026-08-28T17:56:33Z</time>
  <course>247.58</course>
  <speed>0.0</speed>
  <fix>3d</fix>
</trkpt>
<trkpt lat="40.0713749" lon="-105.229789">
  <ele>1583.0</ele>
  <time>2026-08-28T17:56:33Z</time>
  <course>0.0</course>
  <speed>0.0</speed>
  <fix>3d</fix>
</trkpt>
<trkpt lat="40.0713749" lon="-105.229789">
  <ele>1583.02</ele>
  <time>2026-08-28T17:56:33Z</time>
  <course>247.57</course>
  <speed>0.0</speed>
  <fix>3d</fix>
</trkpt>
<trkpt lat="40.0713749" lon="-105.229789">
  <ele>1583.0</ele>
  <time>2026-08-28T17:56:33Z</time>
  <course>0.0</course>
  <speed>0.0</speed>
  <fix>3d</fix>
</trkpt>
<trkpt lat="40.0713749" lon="-105.229789">
  <ele>1583.02</ele>
  <time>2026-08-28T17:56:33Z</time>
  <course>247.57</course>
  <speed>0.0</speed>
  <fix>3d</fix>
</trkpt>
<trkpt lat="40.0713749" lon="-105.229789">
  <ele>1583.0</ele>
  <time>2026-08-28T17:56:33Z</time>
  <course>0.0</course>
  <speed>0.0</speed>
  <fix>3d</fix>
</trkpt>
<trkpt lat="40.0713749" lon="-105.229789">
  <ele>1583.02</ele>
  <time>2026-08-28T17:56:33Z</time>
  <course>247.57</course>
  <speed>0.0</speed>
  <fix>3d</fix>
</trkpt>
<trkpt lat="40.0713749" lon="-105.229789">
  <ele>1583.0</ele>
  <time>2026-08-28T17:56:33Z</time>
  <course>0.0</course>
  <speed>0.0</speed>
  <fix>3d</fix>
</trkpt>
<trkpt lat="40.0713749" lon="-105.229789">
  <ele>1583.02</ele>
  <time>2026-08-28T17:56:33Z</time>
  <course>247.57</course>
  <speed>0.0</speed>
  <fix>3d</fix>
</trkpt>
<trkpt lat="40.0713749" lon="-105.229789">
  <ele>1583.0</ele>
  <time>2026-08-28T17:56:33Z</time>
  <course>0.0</course>
  <speed>0.0</speed>
  <fix>3d</fix>
</trkpt>
<trkpt lat="40.0713749" lon="-105.229789">
  <ele>1583.02</ele>
  <time>2026-08-28T17:56:33Z</time>
  <course>247.56</course>
  <speed>0.01</speed>
  <fix>3d</fix>
</trkpt>
<trkpt lat="40.0713749" lon="-105.229789">
  <ele>1583.0</ele>
  <time>2026-08-28T17:56:33Z</time>
  <course>0.0</course>
  <speed>0.0</speed>
  <fix>3d</fix>
</trkpt>
<trkpt lat="40.0713749" lon="-105.229789">
  <ele>1583.02</ele>
  <time>2026-08-28T17:56:33Z</time>
  <course>247.56</course>
  <speed>0.01</speed>
  <fix>3d</fix>
</trkpt>
<trkpt lat="40.0713749" lon="-105.229789">
  <ele>1583.0</ele>
  <time>2026-08-28T17:56:33Z</time>
  <course>0.0</course>
  <speed>0.0</speed>
  <fix>3d</fix>
</trkpt>
<trkpt lat="40.0713749" lon="-105.229789">
  <ele>1583.02</ele>
  <time>2026-08-28T17:56:33Z</time>
  <course>247.56</course>
  <speed>0.01</speed>
  <fix>3d</fix>
</trkpt>
<trkpt lat="40.0713749" lon="-105.229789">
  <ele>1583.0</ele>
  <time>2026-08-28T17:56:33Z</time>
  <course>0.0</course>
  <speed>0.0</speed>
  <fix>3d</fix>
</trkpt>
<trkpt lat="40.0713749" lon="-105.229789">
  <ele>1583.02</ele>
  <time>2026-08-28T17:56:33Z</time>
  <course>247.56</course>
  <speed>0.01</speed>
  <fix>3d</fix>
</trkpt>
<trkpt lat="40.0713749" lon="-105.229789">
  <ele>1583.0</ele>
  <time>2026-08-28T17:56:33Z</time>
  <course>0.0</course>
  <speed>0.0</speed>
  <fix>3d</fix>
</trkpt>
<trkpt lat="40.0713749" lon="-105.229789">
  <ele>1583.02</ele>
  <time>2026-08-28T17:56:33Z</time>
  <course>247.55</course>
  <speed>0.01</speed>
  <fix>3d</fix>
</trkpt>
<trkpt lat="40.0713749" lon="-105.229789">
  <ele>1583.0</ele>
  <time>2026-08-28T17:56:33Z</time>
  <course>0.0</course>
  <speed>0.0</speed>
  <fix>3d</fix>
</trkpt>
<trkpt lat="40.0713749" lon="-105.229789">
  <ele>1583.03</ele>
  <time>2026-08-28T17:56:33Z</time>
  <course>247.55</course>
  <speed>0.01</speed>
  <fix>3d</fix>
</trkpt>
<trkpt lat="40.0713749" lon="-105.229789">
  <ele>1583.0</ele>
  <time>2026-08-28T17:56:33Z</time>
  <course>0.0</course>
  <speed>0.0</speed>
  <fix>3d</fix>
</trkpt>
<trkpt lat="40.0713749" lon="-105.229789">
  <ele>1583.03</ele>
  <time>2026-08-28T17:56:33Z</time>
  <course>247.55</course>
  <speed>0.01</speed>
  <fix>3d</fix>
</trkpt>
<trkpt lat="40.0713749" lon="-105.229789">
  <ele>1583.0</ele>
  <time>2026-08-28T17:56:33Z</time>
  <course>0.0</course>
  <speed>0.0</speed>
  <fix>3d</fix>
</trkpt>
<trkpt lat="40.0713749" lon="-105.229789">
  <ele>1583.04</ele>
  <time>2026-08-28T17:56:33Z</time>
  <course>247.55</course>
  <speed>0.01</speed>
  <fix>3d</fix>
</trkpt>
<trkpt lat="40.0713749" lon="-105.229789">
  <ele>1583.0</ele>
  <time>2026-08-28T17:56:33Z</time>
  <course>0.0</course>
  <speed>0.0</speed>
  <fix>3d</fix>
</trkpt>
<trkpt lat="40.0713749" lon="-105.229789">
  <ele>1583.04</ele>
  <time>2026-08-28T17:56:33Z</time>
  <course>247.55</course>
  <speed>0.01</speed>
  <fix>3d</fix>
</trkpt>
<trkpt lat="40.0713749" lon="-105.229789">
  <ele>1583.0</ele>
  <time>2026-08-28T17:56:33Z</time>
  <course>0.0</course>
  <speed>0.0</speed>
  <fix>3d</fix>
</trkpt>
<trkpt lat="40.0713749" lon="-105.229789">
  <ele>1583.05</ele>
  <time>2026-08-28T17:56:33Z</time>
  <course>247.54</course>
  <speed>0.02</speed>
  <fix>3d</fix>
</trkpt>
<trkpt lat="40.0713749" lon="-105.229789">
  <ele>1583.0</ele>
  <time>2026-08-28T17:56:33Z</time>
  <course>0.0</course>
  <speed>0.0</speed>
  <fix>3d</fix>
</trkpt>
<trkpt lat="40.0713749" lon="-105.229789">
  <ele>1583.05</ele>
  <time>2026-08-28T17:56:33Z</time>
  <course>247.54</course>
  <speed>0.02</speed>
  <fix>3d</fix>
</trkpt>
<trkpt lat="40.0713749" lon="-105.229789">
  <ele>1583.0</ele>
  <time>2026-08-28T17:56:33Z</time>
  <course>0.0</course>
  <speed>0.0</speed>
  <fix>3d</fix>
</trkpt>
<trkpt lat="40.0713749" lon="-105.229789">
  <ele>1583.05</ele>
  <time>2026-08-28T17:56:33Z</time>
  <course>247.54</course>
  <speed>0.02</speed>
  <fix>3d</fix>
</trkpt>
<trkpt lat="40.0713749" lon="-105.229789">
  <ele>1583.0</ele>
  <time>2026-08-28T17:56:33Z</time>
  <course>0.0</course>
  <speed>0.0</speed>
  <fix>3d</fix>
</trkpt>
<trkpt lat="40.0713749" lon="-105.229789">
  <ele>1583.05</ele>
  <time>2026-08-28T17:56:33Z</time>
  <course>247.54</course>
  <speed>0.022360679774997897</speed>
  <fix>3d</fix>
</trkpt>
<trkpt lat="40.0713749" lon="-105.229789">
  <ele>1583.0</ele>
  <time>2026-08-28T17:56:33Z</time>
  <course>0.0</course>
  <speed>0.0</speed>
  <fix>3d</fix>
</trkpt>
<trkpt lat="40.0713749" lon="-105.229789">
  <ele>1583.05</ele>
  <time>2026-08-28T17:56:33Z</time>
  <course>247.54</course>
  <speed>0.022360679774997897</speed>
  <fix>3d</fix>
</trkpt>
<trkpt lat="40.0713749" lon="-105.229789">
  <ele>1583.0</ele>
  <time>2026-08-28T17:56:33Z</time>
  <course>0.0</course>
  <speed>0.0</speed>
  <fix>3d</fix>
</trkpt>
<trkpt lat="40.0713749" lon="-105.229789">
  <ele>1583.05</ele>
  <time>2026-08-28T17:56:33Z</time>
  <course>247.53</course>
  <speed>0.022360679774997897</speed>
  <fix>3d</fix>
</trkpt>
<trkpt lat="40.0713749" lon="-105.229789">
  <ele>1583.0</ele>
  <time>2026-08-28T17:56:33Z</time>
  <course>0.0</course>
  <speed>0.0</speed>
  <fix>3d</fix>
</trkpt>
<trkpt lat="40.071375" lon="-105.229789">
  <ele>1583.04</ele>
  <time>2026-08-28T17:56:33Z</time>
  <course>247.53</course>
  <speed>0.022360679774997897</speed>
  <fix>3d</fix>
</trkpt>
<trkpt lat="40.0713749" lon="-105.229789">
  <ele>1583.0</ele>
  <time>2026-08-28T17:56:33Z</time>
  <course>0.0</course>
  <speed>0.0</speed>
  <fix>3d</fix>
</trkpt>
<trkpt lat="40.071375" lon="-105.229789">
  <ele>1583.05</ele>
  <time>2026-08-28T17:56:33Z</time>
  <course>247.53</course>
  <speed>0.02</speed>
  <fix>3d</fix>
</trkpt>
<trkpt lat="40.0713749" lon="-105.229789">
  <ele>1583.0</ele>
  <time>2026-08-28T17:56:33Z</time>
  <course>0.0</course>
  <speed>0.0</speed>
  <fix>3d</fix>
</trkpt>
<trkpt lat="40.071375" lon="-105.229789">
  <ele>1583.05</ele>
  <time>2026-08-28T17:56:33Z</time>
  <course>247.52</course>
  <speed>0.02</speed>
  <fix>3d</fix>
</trkpt>
<trkpt lat="40.0713749" lon="-105.229789">
  <ele>1583.0</ele>
  <time>2026-08-28T17:56:33Z</time>
  <course>0.0</course>
  <speed>0.0</speed>
  <fix>3d</fix>
</trkpt>
<trkpt lat="40.071375" lon="-105.229789">
  <ele>1583.05</ele>
  <time>2026-08-28T17:56:33Z</time>
  <course>247.52</course>
  <speed>0.02</speed>
  <fix>3d</fix>
</trkpt>
<trkpt lat="40.0713749" lon="-105.229789">
  <ele>1583.0</ele>
  <time>2026-08-28T17:56:33Z</time>
  <course>0.0</course>
  <speed>0.0</speed>
  <fix>3d</fix>
</trkpt>
<trkpt lat="40.071375" lon="-105.229789">
  <ele>1583.06</ele>
  <time>2026-08-28T17:56:33Z</time>
  <course>247.52</course>
  <speed>0.01</speed>
  <fix>3d</fix>
</trkpt>
<trkpt lat="40.0713749" lon="-105.229789">
  <ele>1583.0</ele>
  <time>2026-08-28T17:56:33Z</time>
  <course>0.0</course>
  <speed>0.0</speed>
  <fix>3d</fix>
</trkpt>
<trkpt lat="40.071375" lon="-105.229789">
  <ele>1583.06</ele>
  <time>2026-08-28T17:56:33Z</time>
  <course>247.52</course>
  <speed>0.01</speed>
  <fix>3d</fix>
</trkpt>
<trkpt lat="40.0713749" lon="-105.229789">
  <ele>1583.0</ele>
  <time>2026-08-28T17:56:33Z</time>
  <course>0.0</course>
  <speed>0.0</speed>
  <fix>3d</fix>
</trkpt>
<trkpt lat="40.071375" lon="-105.229789">
  <ele>1583.06</ele>
  <time>2026-08-28T17:56:33Z</time>
  <course>247.51</course>
  <speed>0.01</speed>
  <fix>3d</fix>
</trkpt>
<trkpt lat="40.0713749" lon="-105.229789">
  <ele>1583.0</ele>
  <time>2026-08-28T17:56:33Z</time>
  <course>0.0</course>
  <speed>0.0</speed>
  <fix>3d</fix>
</trkpt>
<trkpt lat="40.0713749" lon="-105.229789">
  <ele>1583.06</ele>
  <time>2026-08-28T17:56:33Z</time>
  <course>247.51</course>
  <speed>0.01</speed>
  <fix>3d</fix>
</trkpt>
<trkpt lat="40.0713749" lon="-105.229789">
  <ele>1583.0</ele>
  <time>2026-08-28T17:56:33Z</time>
  <course>0.0</course>
  <speed>0.0</speed>
  <fix>3d</fix>
</trkpt>
<trkpt lat="40.0713749" lon="-105.229789">
  <ele>1583.06</ele>
  <time>2026-08-28T17:56:33Z</time>
  <course>247.51</course>
  <speed>0.01</speed>
  <fix>3d</fix>
</trkpt>
<trkpt lat="40.0713749" lon="-105.229789">
  <ele>1583.0</ele>
  <time>2026-08-28T17:56:33Z</time>
  <course>0.0</course>
  <speed>0.0</speed>
  <fix>3d</fix>
</trkpt>
<trkpt lat="40.0713749" lon="-105.229789">
  <ele>1583.07</ele>
  <time>2026-08-28T17:56:33Z</time>
  <course>247.51</course>
  <speed>0.01</speed>
  <fix>3d</fix>
</trkpt>
<trkpt lat="40.0713749" lon="-105.229789">
  <ele>1583.0</ele>
  <time>2026-08-28T17:56:33Z</time>
  <course>0.0</course>
  <speed>0.0</speed>
  <fix>3d</fix>
</trkpt>
<trkpt lat="40.0713749" lon="-105.229789">
  <ele>1583.07</ele>
  <time>2026-08-28T17:56:33Z</time>
  <course>247.51</course>
  <speed>0.01</speed>
  <fix>3d</fix>
</trkpt>
<trkpt lat="40.0713749" lon="-105.229789">
  <ele>1583.0</ele>
  <time>2026-08-28T17:56:33Z</time>
  <course>0.0</course>
  <speed>0.0</speed>
  <fix>3d</fix>
</trkpt>
<trkpt lat="40.0713749" lon="-105.229789">
  <ele>1583.07</ele>
  <time>2026-08-28T17:56:33Z</time>
  <course>247.5</course>
  <speed>0.01</speed>
  <fix>3d</fix>
</trkpt>
<trkpt lat="40.0713749" lon="-105.229789">
  <ele>1583.0</ele>
  <time>2026-08-28T17:56:33Z</time>
  <course>0.0</course>
  <speed>0.0</speed>
  <fix>3d</fix>
</trkpt>
<trkpt lat="40.0713749" lon="-105.229789">
  <ele>1583.08</ele>
  <time>2026-08-28T17:56:33Z</time>
  <course>247.5</course>
  <speed>0.01</speed>
  <fix>3d</fix>
</trkpt>
<trkpt lat="40.0713749" lon="-105.229789">
  <ele>1583.0</ele>
  <time>2026-08-28T17:56:33Z</time>
  <course>0.0</course>
  <speed>0.0</speed>
  <fix>3d</fix>
</trkpt>
<trkpt lat="40.0713749" lon="-105.229789">
  <ele>1583.08</ele>
  <time>2026-08-28T17:56:33Z</time>
  <course>247.5</course>
  <speed>0.01</speed>
  <fix>3d</fix>
</trkpt>
<trkpt lat="40.0713749" lon="-105.229789">
  <ele>1583.0</ele>
  <time>2026-08-28T17:56:33Z</time>
  <course>0.0</course>
  <speed>0.0</speed>
  <fix>3d</fix>
</trkpt>
<trkpt lat="40.0713749" lon="-105.229789">
  <ele>1583.09</ele>
  <time>2026-08-28T17:56:33Z</time>
  <course>247.5</course>
  <speed>0.01</speed>
  <fix>3d</fix>
</trkpt>
<trkpt lat="40.0713749" lon="-105.229789">
  <ele>1583.0</ele>
  <time>2026-08-28T17:56:33Z</time>
  <course>0.0</course>
  <speed>0.0</speed>
  <fix>3d</fix>
</trkpt>
<trkpt lat="40.0713749" lon="-105.229789">
  <ele>1583.09</ele>
  <time>2026-08-28T17:56:33Z</time>
  <course>247.5</course>
  <speed>0.01</speed>
  <fix>3d</fix>
</trkpt>
<trkpt lat="40.0713749" lon="-105.229789">
  <ele>1583.0</ele>
  <time>2026-08-28T17:56:33Z</time>
  <course>0.0</course>
  <speed>0.0</speed>
  <fix>3d</fix>
</trkpt>
<trkpt lat="40.0713749" lon="-105.229789">
  <ele>1583.1</ele>
  <time>2026-08-28T17:56:33Z</time>
  <course>247.49</course>
  <speed>0.0</speed>
  <fix>3d</fix>
</trkpt>
<trkpt lat="40.0713749" lon="-105.229789">
  <ele>1583.0</ele>
  <time>2026-08-28T17:56:33Z</time>
  <course>0.0</course>
  <speed>0.0</speed>
  <fix>3d</fix>
</trkpt>
<trkpt lat="40.0713749" lon="-105.229789">
  <ele>1583.1</ele>
  <time>2026-08-28T17:56:33Z</time>
  <course>247.49</course>
  <speed>0.0</speed>
  <fix>3d</fix>
</trkpt>
<trkpt lat="40.0713749" lon="-105.229789">
  <ele>1583.0</ele>
  <time>2026-08-28T17:56:33Z</time>
  <course>0.0</course>
  <speed>0.0</speed>
  <fix>3d</fix>
</trkpt>
<trkpt lat="40.0713749" lon="-105.229789">
  <ele>1583.11</ele>
  <time>2026-08-28T17:56:33Z</time>
  <course>247.49</course>
  <speed>0.0</speed>
  <fix>3d</fix>
</trkpt>
<trkpt lat="40.0713749" lon="-105.229789">
  <ele>1583.0</ele>
  <time>2026-08-28T17:56:33Z</time>
  <course>0.0</course>
  <speed>0.0</speed>
  <fix>3d</fix>
</trkpt>
<trkpt lat="40.0713749" lon="-105.229789">
  <ele>1583.11</ele>
  <time>2026-08-28T17:56:33Z</time>
  <course>247.49</course>
  <speed>0.0</speed>
  <fix>3d</fix>
</trkpt>
<trkpt lat="40.0713749" lon="-105.229789">
  <ele>1583.0</ele>
  <time>2026-08-28T17:56:33Z</time>
  <course>0.0</course>
  <speed>0.0</speed>
  <fix>3d</fix>
</trkpt>
<trkpt lat="40.0713749" lon="-105.229789">
  <ele>1583.12</ele>
  <time>2026-08-28T17:56:33Z</time>
  <course>247.48</course>
  <speed>0.0</speed>
  <fix>3d</fix>
</trkpt>
<trkpt lat="40.0713749" lon="-105.229789">
  <ele>1583.0</ele>
  <time>2026-08-28T17:56:33Z</time>
  <course>260.99</course>
  <speed>0.0</speed>
  <fix>3d</fix>
</trkpt>
<trkpt lat="40.0713749" lon="-105.229789">
  <ele>1583.12</ele>
  <time>2026-08-28T17:56:33Z</time>
  <course>247.41</course>
  <speed>0.0</speed>
  <fix>3d</fix>
</trkpt>
<trkpt lat="40.0713749" lon="-105.229789">
  <ele>1583.0</ele>
  <time>2026-08-28T17:56:33Z</time>
  <course>260.99</course>
  <speed>0.0</speed>
  <fix>3d</fix>
</trkpt>
<trkpt lat="40.0713749" lon="-105.229789">
  <ele>1583.12</ele>
  <time>2026-08-28T17:56:33Z</time>
  <course>247.25</course>
  <speed>0.0</speed>
  <fix>3d</fix>
</trkpt>
<trkpt lat="40.0713749" lon="-105.229789">
  <ele>1583.0</ele>
  <time>2026-08-28T17:56:33Z</time>
  <course>257.13</course>
  <speed>0.0</speed>
  <fix>3d</fix>
</trkpt>
<trkpt lat="40.0713749" lon="-105.229789">
  <ele>1583.13</ele>
  <time>2026-08-28T17:56:33Z</time>
  <course>246.99</course>
  <speed>0.0</speed>
  <fix>3d</fix>
</trkpt>
<trkpt lat="40.0713749" lon="-105.229789">
  <ele>1583.0</ele>
  <time>2026-08-28T17:56:33Z</time>
  <course>257.13</course>
  <speed>0.0</speed>
  <fix>3d</fix>
</trkpt>
<trkpt lat="40.0713749" lon="-105.229789">
  <ele>1583.13</ele>
  <time>2026-08-28T17:56:33Z</time>
  <course>246.64</course>
  <speed>0.0</speed>
  <fix>3d</fix>
</trkpt>
<trkpt lat="40.0713749" lon="-105.229789">
  <ele>1583.0</ele>
  <time>2026-08-28T17:56:33Z</time>
  <course>248.27</course>
  <speed>0.0</speed>
  <fix>3d</fix>
</trkpt>
<trkpt lat="40.0713749" lon="-105.229789">
  <ele>1583.13</ele>
  <time>2026-08-28T17:56:33Z</time>
  <course>246.24</course>
  <speed>0.0</speed>
  <fix>3d</fix>
</trkpt>
<trkpt lat="40.0713749" lon="-105.229789">
  <ele>1583.0</ele>
  <time>2026-08-28T17:56:33Z</time>
  <course>248.27</course>
  <speed>0.0</speed>
  <fix>3d</fix>
</trkpt>
<trkpt lat="40.0713749" lon="-105.229789">
  <ele>1583.14</ele>
  <time>2026-08-28T17:56:33Z</time>
  <course>245.78</course>
  <speed>0.0</speed>
  <fix>3d</fix>
</trkpt>
<trkpt lat="40.0713749" lon="-105.229789">
  <ele>1583.0</ele>
  <time>2026-08-28T17:56:33Z</time>
  <course>245.48</course>
  <speed>0.0</speed>
  <fix>3d</fix>
</trkpt>
<trkpt lat="40.0713749" lon="-105.229789">
  <ele>1583.14</ele>
  <time>2026-08-28T17:56:33Z</time>
  <course>245.2</course>
  <speed>0.0</speed>
  <fix>3d</fix>
</trkpt>
<trkpt lat="40.0713749" lon="-105.229789">
  <ele>1583.0</ele>
  <time>2026-08-28T17:56:33Z</time>
  <course>245.48</course>
  <speed>0.0</speed>
  <fix>3d</fix>
</trkpt>
<trkpt lat="40.0713749" lon="-105.229789">
  <ele>1583.14</ele>
  <time>2026-08-28T17:56:33Z</time>
  <course>244.71</course>
  <speed>0.01</speed>
  <fix>3d</fix>
</trkpt>
<trkpt lat="40.0713749" lon="-105.229789">
  <ele>1583.0</ele>
  <time>2026-08-28T17:56:33Z</time>
  <course>244.41</course>
  <speed>0.01</speed>
  <fix>3d</fix>
</trkpt>
<trkpt lat="40.0713749" lon="-105.229789">
  <ele>1583.14</ele>
  <time>2026-08-28T17:56:33Z</time>
  <course>244.21</course>
  <speed>0.01</speed>
  <fix>3d</fix>
</trkpt>
<trkpt lat="40.0713749" lon="-105.229789">
  <ele>1583.0</ele>
  <time>2026-08-28T17:56:33Z</time>
  <course>244.41</course>
  <speed>0.01</speed>
  <fix>3d</fix>
</trkpt>
<trkpt lat="40.0713749" lon="-105.229789">
  <ele>1583.13</ele>
  <time>2026-08-28T17:56:33Z</time>
  <course>243.71</course>
  <speed>0.02</speed>
  <fix>3d</fix>
</trkpt>
<trkpt lat="40.0713749" lon="-105.229789">
  <ele>1583.0</ele>
  <time>2026-08-28T17:56:33Z</time>
  <course>243.68</course>
  <speed>0.02</speed>
  <fix>3d</fix>
</trkpt>
<trkpt lat="40.0713749" lon="-105.2297891">
  <ele>1583.13</ele>
  <time>2026-08-28T17:56:33Z</time>
  <course>243.21</course>
  <speed>0.03</speed>
  <fix>3d</fix>
</trkpt>
<trkpt lat="40.0713749" lon="-105.229789">
  <ele>1583.0</ele>
  <time>2026-08-28T17:56:33Z</time>
  <course>243.68</course>
  <speed>0.02</speed>
  <fix>3d</fix>
</trkpt>
<trkpt lat="40.0713749" lon="-105.2297891">
  <ele>1583.13</ele>
  <time>2026-08-28T17:56:33Z</time>
  <course>242.74</course>
  <speed>0.0412310562561766</speed>
  <fix>3d</fix>
</trkpt>
<trkpt lat="40.0713749" lon="-105.229789">
  <ele>1583.0</ele>
  <time>2026-08-28T17:56:33Z</time>
  <course>243.01</course>
  <speed>0.04</speed>
  <fix>3d</fix>
</trkpt>
<trkpt lat="40.0713749" lon="-105.2297892">
  <ele>1583.13</ele>
  <time>2026-08-28T17:56:33Z</time>
  <course>242.29</course>
  <speed>0.0412310562561766</speed>
  <fix>3d</fix>
</trkpt>
<trkpt lat="40.0713749" lon="-105.229789">
  <ele>1583.0</ele>
  <time>2026-08-28T17:56:33Z</time>
  <course>243.01</course>
  <speed>0.04</speed>
  <fix>3d</fix>
</trkpt>
<trkpt lat="40.0713749" lon="-105.2297892">
  <ele>1583.13</ele>
  <time>2026-08-28T17:56:33Z</time>
  <course>241.85</course>
  <speed>0.053851648071345036</speed>
  <fix>3d</fix>
</trkpt>
<trkpt lat="40.0713749" lon="-105.2297892">
  <ele>1583.0</ele>
  <time>2026-08-28T17:56:33Z</time>
  <course>242.34</course>
  <speed>0.05</speed>
  <fix>3d</fix>
</trkpt>
<trkpt lat="40.0713749" lon="-105.2297893">
  <ele>1583.13</ele>
  <time>2026-08-28T17:56:33Z</time>
  <course>241.45</course>
  <speed>0.0632455532033676</speed>
  <fix>3d</fix>
</trkpt>
<trkpt lat="40.0713749" lon="-105.2297892">
  <ele>1583.0</ele>
  <time>2026-08-28T17:56:33Z</time>
  <course>242.34</course>
  <speed>0.05</speed>
  <fix>3d</fix>
</trkpt>
<trkpt lat="40.0713748" lon="-105.2297894">
  <ele>1583.13</ele>
  <time>2026-08-28T17:56:33Z</time>
  <course>241.07</course>
  <speed>0.07615773105863909</speed>
  <fix>3d</fix>
</trkpt>
<trkpt lat="40.0713748" lon="-105.2297893">
  <ele>1583.0</ele>
  <time>2026-08-28T17:56:33Z</time>
  <course>241.68</course>
  <speed>0.08</speed>
  <fix>3d</fix>
</trkpt>
<trkpt lat="40.0713748" lon="-105.2297895">
  <ele>1583.13</ele>
  <time>2026-08-28T17:56:33Z</time>
  <course>240.72</course>
  <speed>0.09486832980505139</speed>
  <fix>3d</fix>
</trkpt>
<trkpt lat="40.0713748" lon="-105.2297893">
  <ele>1583.0</ele>
  <time>2026-08-28T17:56:33Z</time>
  <course>241.68</course>
  <speed>0.08</speed>
  <fix>3d</fix>
</trkpt>
<trkpt lat="40.0713748" lon="-105.2297896">
  <ele>1583.13</ele>
  <time>2026-08-28T17:56:33Z</time>
  <course>240.46</course>
  <speed>0.10770329614269007</speed>
  <fix>3d</fix>
</trkpt>
<trkpt lat="40.0713748" lon="-105.2297895">
  <ele>1583.0</ele>
  <time>2026-08-28T17:56:33Z</time>
  <course>241.04</course>
  <speed>0.1</speed>
  <fix>3d</fix>
</trkpt>
<trkpt lat="40.0713747" lon="-105.2297897">
  <ele>1583.13</ele>
  <time>2026-08-28T17:56:33Z</time>
  <course>240.16</course>
  <speed>0.12083045973594572</speed>
  <fix>3d</fix>
</trkpt>
<trkpt lat="40.0713748" lon="-105.2297895">
  <ele>1583.0</ele>
  <time>2026-08-28T17:56:33Z</time>
  <course>241.04</course>
  <speed>0.1</speed>
  <fix>3d</fix>
</trkpt>
<trkpt lat="40.0713746" lon="-105.2297899">
  <ele>1583.13</ele>
  <time>2026-08-28T17:56:33Z</time>
  <course>239.9</course>
  <speed>0.1341640786499874</speed>
  <fix>3d</fix>
</trkpt>
<trkpt lat="40.0713747" lon="-105.2297897">
  <ele>1583.0</ele>
  <time>2026-08-28T17:56:33Z</time>
  <course>240.44</course>
  <speed>0.13</speed>
  <fix>3d</fix>
</trkpt>
<trkpt lat="40.0713746" lon="-105.22979">
  <ele>1583.14</ele>
  <time>2026-08-28T17:56:33Z</time>
  <course>239.64</course>
  <speed>0.15231546211727817</speed>
  <fix>3d</fix>
</trkpt>
<trkpt lat="40.0713747" lon="-105.2297897">
  <ele>1583.0</ele>
  <time>2026-08-28T17:56:33Z</time>
  <course>240.44</course>
  <speed>0.13</speed>
  <fix>3d</fix>
</trkpt>
<trkpt lat="40.0713745" lon="-105.2297902">
  <ele>1583.14</ele>
  <time>2026-08-28T17:56:33Z</time>
  <course>239.41</course>
  <speed>0.16552945357246848</speed>
  <fix>3d</fix>
</trkpt>
<trkpt lat="40.0713745" lon="-105.2297901">
  <ele>1583.0</ele>
  <time>2026-08-28T17:56:33Z</time>
  <course>239.91</course>
  <speed>0.16</speed>
  <fix>3d</fix>
</trkpt>
<trkpt lat="40.0713744" lon="-105.2297904">
  <ele>1583.14</ele>
  <time>2026-08-28T17:56:33Z</time>
  <course>239.22</course>
  <speed>0.18788294228055935</speed>
  <fix>3d</fix>
</trkpt>
<trkpt lat="40.0713745" lon="-105.2297901">
  <ele>1583.0</ele>
  <time>2026-08-28T17:56:33Z</time>
  <course>239.91</course>
  <speed>0.16</speed>
  <fix>3d</fix>
</trkpt>
<trkpt lat="40.0713743" lon="-105.2297906">
  <ele>1583.15</ele>
  <time>2026-08-28T17:56:33Z</time>
  <course>239.05</course>
  <speed>0.20124611797498107</speed>
  <fix>3d</fix>
</trkpt>
<trkpt lat="40.0713743" lon="-105.2297904">
  <ele>1583.0</ele>
  <time>2026-08-28T17:56:33Z</time>
  <course>239.42</course>
  <speed>0.2</speed>
  <fix>3d</fix>
</trkpt>
<trkpt lat="40.0713742" lon="-105.2297909">
  <ele>1583.15</ele>
  <time>2026-08-28T17:56:33Z</time>
  <course>238.89</course>
  <speed>0.223606797749979</speed>
  <fix>3d</fix>
</trkpt>
<trkpt lat="40.0713743" lon="-105.2297904">
  <ele>1583.0</ele>
  <time>2026-08-28T17:56:33Z</time>
  <course>239.42</course>
  <speed>0.2</speed>
  <fix>3d</fix>
</trkpt>
<trkpt lat="40.0713741" lon="-105.2297911">
  <ele>1583.15</ele>
  <time>2026-08-28T17:56:33Z</time>
  <course>238.76</course>
  <speed>0.24596747752497689</speed>
  <fix>3d</fix>
</trkpt>
<trkpt lat="40.0713741" lon="-105.2297909">
  <ele>1583.0</ele>
  <time>2026-08-28T17:56:33Z</time>
  <course>239.0</course>
  <speed>0.24</speed>
  <fix>3d</fix>
</trkpt>
<trkpt lat="40.071374" lon="-105.2297915">
  <ele>1583.15</ele>
  <time>2026-08-28T17:56:33Z</time>
  <course>238.64</course>
  <speed>0.27294688127912364</speed>
  <fix>3d</fix>
</trkpt>
<trkpt lat="40.0713741" lon="-105.2297909">
  <ele>1583.0</ele>
  <time>2026-08-28T17:56:33Z</time>
  <course>239.0</course>
  <speed>0.24</speed>
  <fix>3d</fix>
</trkpt>
<trkpt lat="40.0713738" lon="-105.2297918">
  <ele>1583.15</ele>
  <time>2026-08-28T17:56:33Z</time>
  <course>238.56</course>
  <speed>0.295296461204668</speed>
  <fix>3d</fix>
</trkpt>
<trkpt lat="40.0713739" lon="-105.2297914">
  <ele>1583.0</ele>
  <time>2026-08-28T17:56:33Z</time>
  <course>238.62</course>
  <speed>0.28</speed>
  <fix>3d</fix>
</trkpt>
<trkpt lat="40.0713737" lon="-105.2297921">
  <ele>1583.15</ele>
  <time>2026-08-28T17:56:33Z</time>
  <course>238.47</course>
  <speed>0.3176476034853718</speed>
  <fix>3d</fix>
</trkpt>
<trkpt lat="40.0713739" lon="-105.2297914">
  <ele>1583.0</ele>
  <time>2026-08-28T17:56:33Z</time>
  <course>238.62</course>
  <speed>0.28</speed>
  <fix>3d</fix>
</trkpt>
<trkpt lat="40.0713735" lon="-105.2297924">
  <ele>1583.15</ele>
  <time>2026-08-28T17:56:33Z</time>
  <course>238.41</course>
  <speed>0.34</speed>
  <fix>3d</fix>
</trkpt>
<trkpt lat="40.0713736" lon="-105.229792">
  <ele>1583.0</ele>
  <time>2026-08-28T17:56:33Z</time>
  <course>238.3</course>
  <speed>0.33</speed>
  <fix>3d</fix>
</trkpt>
<trkpt lat="40.0713733" lon="-105.2297928">
  <ele>1583.15</ele>
  <time>2026-08-28T17:56:33Z</time>
  <course>238.35</course>
  <speed>0.3671511950137164</speed>
  <fix>3d</fix>
</trkpt>
<trkpt lat="40.0713736" lon="-105.229792">
  <ele>1583.0</ele>
  <time>2026-08-28T17:56:33Z</time>
  <course>238.3</course>
  <speed>0.33</speed>
  <fix>3d</fix>
</trkpt>
<trkpt lat="40.0713732" lon="-105.2297932">
  <ele>1583.15</ele>
  <time>2026-08-28T17:56:33Z</time>
  <course>238.3</course>
  <speed>0.38948684188300897</speed>
  <fix>3d</fix>
</trkpt>
<trkpt lat="40.0713733" lon="-105.2297927">
  <ele>1583.0</ele>
  <time>2026-08-28T17:56:33Z</time>
  <course>238.04</course>
  <speed>0.37</speed>
  <fix>3d</fix>
</trkpt>
<trkpt lat="40.071373" lon="-105.2297936">
  <ele>1583.15</ele>
  <time>2026-08-28T17:56:33Z</time>
  <course>238.25</course>
  <speed>0.41182520563948005</speed>
  <fix>3d</fix>
</trkpt>
<trkpt lat="40.0713733" lon="-105.2297927">
  <ele>1583.0</ele>
  <time>2026-08-28T17:56:33Z</time>
  <course>238.04</course>
  <speed>0.37</speed>
  <fix>3d</fix>
</trkpt>
<trkpt lat="40.0713728" lon="-105.2297941">
  <ele>1583.15</ele>
  <time>2026-08-28T17:56:33Z</time>
  <course>238.21</course>
  <speed>0.439089968002003</speed>
  <fix>3d</fix>
</trkpt>
<trkpt lat="40.0713729" lon="-105.2297935">
  <ele>1583.0</ele>
  <time>2026-08-28T17:56:33Z</time>
  <course>237.81</course>
  <speed>0.42</speed>
  <fix>3d</fix>
</trkpt>
<trkpt lat="40.0713725" lon="-105.2297945">
  <ele>1583.15</ele>
  <time>2026-08-28T17:56:33Z</time>
  <course>238.16</course>
  <speed>0.4614108798023731</speed>
  <fix>3d</fix>
</trkpt>
<trkpt lat="40.0713729" lon="-105.2297935">
  <ele>1583.0</ele>
  <time>2026-08-28T17:56:33Z</time>
  <course>237.81</course>
  <speed>0.42</speed>
  <fix>3d</fix>
</trkpt>
<trkpt lat="40.0713723" lon="-105.229795">
  <ele>1583.15</ele>
  <time>2026-08-28T17:56:33Z</time>
  <course>238.13</course>
  <speed>0.48373546489791297</speed>
  <fix>3d</fix>
</trkpt>
<trkpt lat="40.0713724" lon="-105.2297945">
  <ele>1583.0</ele>
  <time>2026-08-28T17:56:33Z</time>
  <course>237.62</course>
  <speed>0.47</speed>
  <fix>3d</fix>
</trkpt>
<trkpt lat="40.071372" lon="-105.2297955">
  <ele>1583.15</ele>
  <time>2026-08-28T17:56:33Z</time>
  <course>238.09</course>
  <speed>0.5110772935672255</speed>
  <fix>3d</fix>
</trkpt>
<trkpt lat="40.0713724" lon="-105.2297945">
  <ele>1583.0</ele>
  <time>2026-08-28T17:56:33Z</time>
  <course>237.62</course>
  <speed>0.47</speed>
  <fix>3d</fix>
</trkpt>
<trkpt lat="40.0713718" lon="-105.2297961">
  <ele>1583.15</ele>
  <time>2026-08-28T17:56:33Z</time>
  <course>238.03</course>
  <speed>0.5333854141237835</speed>
  <fix>3d</fix>
</trkpt>
<trkpt lat="40.071372" lon="-105.2297955">
  <ele>1583.0</ele>
  <time>2026-08-28T17:56:33Z</time>
  <course>237.46</course>
  <speed>0.52</speed>
  <fix>3d</fix>
</trkpt>
<trkpt lat="40.0713716" lon="-105.2297965">
  <ele>1583.15</ele>
  <time>2026-08-28T17:56:33Z</time>
  <course>238.01</course>
  <speed>0.5556977595779922</speed>
  <fix>3d</fix>
</trkpt>
<trkpt lat="40.071372" lon="-105.2297955">
  <ele>1583.0</ele>
  <time>2026-08-28T17:56:33Z</time>
  <course>237.46</course>
  <speed>0.52</speed>
  <fix>3d</fix>
</trkpt>
<trkpt lat="40.0713713" lon="-105.2297971">
  <ele>1583.15</ele>
  <time>2026-08-28T17:56:33Z</time>
  <course>238.0</course>
  <speed>0.58309518948453</speed>
  <fix>3d</fix>
</trkpt>
<trkpt lat="40.0713715" lon="-105.2297965">
  <ele>1583.0</ele>
  <time>2026-08-28T17:56:33Z</time>
  <course>237.33</course>
  <speed>0.57</speed>
  <fix>3d</fix>
</trkpt>
<trkpt lat="40.071371" lon="-105.2297978">
  <ele>1583.14</ele>
  <time>2026-08-28T17:56:33Z</time>
  <course>237.98</course>
  <speed>0.6053924347066124</speed>
  <fix>3d</fix>
</trkpt>
<trkpt lat="40.0713715" lon="-105.2297965">
  <ele>1583.0</ele>
  <time>2026-08-28T17:56:33Z</time>
  <course>237.33</course>
  <speed>0.57</speed>
  <fix>3d</fix>
</trkpt>
<trkpt lat="40.0713707" lon="-105.2297984">
  <ele>1583.14</ele>
  <time>2026-08-28T17:56:33Z</time>
  <course>237.94</course>
  <speed>0.6276941930590086</speed>
  <fix>3d</fix>
</trkpt>
<trkpt lat="40.0713709" lon="-105.2297977">
  <ele>1583.0</ele>
  <time>2026-08-28T17:56:33Z</time>
  <course>237.21</course>
  <speed>0.62</speed>
  <fix>3d</fix>
</trkpt>
<trkpt lat="40.0713704" lon="-105.2297991">
  <ele>1583.14</ele>
  <time>2026-08-28T17:56:33Z</time>
  <course>237.92</course>
  <speed>0.655133574166368</speed>
  <fix>3d</fix>
</trkpt>
<trkpt lat="40.0713709" lon="-105.2297977">
  <ele>1583.0</ele>
  <time>2026-08-28T17:56:33Z</time>
  <course>237.21</course>
  <speed>0.62</speed>
  <fix>3d</fix>
</trkpt>
<trkpt lat="40.07137" lon="-105.2297997">
  <ele>1583.14</ele>
  <time>2026-08-28T17:56:33Z</time>
  <course>237.9</course>
  <speed>0.677421582177598</speed>
  <fix>3d</fix>
</trkpt>
<trkpt lat="40.0713702" lon="-105.229799">
  <ele>1583.0</ele>
  <time>2026-08-28T17:56:33Z</time>
  <course>237.11</course>
  <speed>0.67</speed>
  <fix>3d</fix>
</trkpt>
<trkpt lat="40.0713697" lon="-105.2298005">
  <ele>1583.13</ele>
  <time>2026-08-28T17:56:33Z</time>
  <course>237.84</course>
  <speed>0.6997142273814361</speed>
  <fix>3d</fix>
</trkpt>
<trkpt lat="40.0713702" lon="-105.229799">
  <ele>1583.0</ele>
  <time>2026-08-28T17:56:33Z</time>
  <course>237.11</course>
  <speed>0.67</speed>
  <fix>3d</fix>
</trkpt>
<trkpt lat="40.0713693" lon="-105.2298012">
  <ele>1583.14</ele>
  <time>2026-08-28T17:56:33Z</time>
  <course>237.8</course>
  <speed>0.7220110802473879</speed>
  <fix>3d</fix>
</trkpt>
<trkpt lat="40.0713695" lon="-105.2298003">
  <ele>1583.0</ele>
  <time>2026-08-28T17:56:33Z</time>
  <course>237.01</course>
  <speed>0.72</speed>
  <fix>3d</fix>
</trkpt>
<trkpt lat="40.0713689" lon="-105.2298019">
  <ele>1583.13</ele>
  <time>2026-08-28T17:56:33Z</time>
  <course>237.8</course>
  <speed>0.7409453421137081</speed>
  <fix>3d</fix>
</trkpt>
<trkpt lat="40.0713695" lon="-105.2298003">
  <ele>1583.0</ele>
  <time>2026-08-28T17:56:33Z</time>
  <course>237.01</course>
  <speed>0.72</speed>
  <fix>3d</fix>
</trkpt>
<trkpt lat="40.0713685" lon="-105.2298029">
  <ele>1583.13</ele>
  <time>2026-08-28T17:56:33Z</time>
  <course>237.76</course>
  <speed>0.7632168761236874</speed>
  <fix>3d</fix>
</trkpt>
<trkpt lat="40.0713688" lon="-105.2298018">
  <ele>1583.0</ele>
  <time>2026-08-28T17:56:33Z</time>
  <course>236.93</course>
  <speed>0.76</speed>
  <fix>3d</fix>
</trkpt>
<trkpt lat="40.0713681" lon="-105.2298037">
  <ele>1583.13</ele>
  <time>2026-08-28T17:56:33Z</time>
  <course>237.76</course>
  <speed>0.7854934754662193</speed>
  <fix>3d</fix>
</trkpt>
<trkpt lat="40.0713688" lon="-105.2298018">
  <ele>1583.0</ele>
  <time>2026-08-28T17:56:33Z</time>
  <course>236.93</course>
  <speed>0.76</speed>
  <fix>3d</fix>
</trkpt>
<trkpt lat="40.0713677" lon="-105.2298045">
  <ele>1583.13</ele>
  <time>2026-08-28T17:56:33Z</time>
  <course>237.78</course>
  <speed>0.7992496481075234</speed>
  <fix>3d</fix>
</trkpt>
<trkpt lat="40.0713681" lon="-105.2298034">
  <ele>1583.0</ele>
  <time>2026-08-28T17:56:33Z</time>
  <course>236.86</course>
  <speed>0.8</speed>
  <fix>3d</fix>
</trkpt>
<trkpt lat="40.0713673" lon="-105.2298053">
  <ele>1583.13</ele>
  <time>2026-08-28T17:56:33Z</time>
  <course>237.79</course>
  <speed>0.8130190649671138</speed>
  <fix>3d</fix>
</trkpt>
<trkpt lat="40.0713681" lon="-105.2298034">
  <ele>1583.0</ele>
  <time>2026-08-28T17:56:33Z</time>
  <course>236.86</course>
  <speed>0.8</speed>
  <fix>3d</fix>
</trkpt>
<trkpt lat="40.0713669" lon="-105.2298061">
  <ele>1583.13</ele>
  <time>2026-08-28T17:56:33Z</time>
  <course>237.77</course>
  <speed>0.8352843827104635</speed>
  <fix>3d</fix>
</trkpt>
<trkpt lat="40.0713673" lon="-105.229805">
  <ele>1583.0</ele>
  <time>2026-08-28T17:56:33Z</time>
  <course>236.8</course>
  <speed>0.83</speed>
  <fix>3d</fix>
</trkpt>
<trkpt lat="40.0713664" lon="-105.229807">
  <ele>1583.13</ele>
  <time>2026-08-28T17:56:33Z</time>
  <course>237.79</course>
  <speed>0.8490583018850945</speed>
  <fix>3d</fix>
</trkpt>
<trkpt lat="40.0713673" lon="-105.229805">
  <ele>1583.0</ele>
  <time>2026-08-28T17:56:33Z</time>
  <course>236.8</course>
  <speed>0.83</speed>
  <fix>3d</fix>
</trkpt>
<trkpt lat="40.071366" lon="-105.2298078">
  <ele>1583.13</ele>
  <time>2026-08-28T17:56:33Z</time>
  <course>237.81</course>
  <speed>0.8575546629807339</speed>
  <fix>3d</fix>
</trkpt>
<trkpt lat="40.0713664" lon="-105.2298067">
  <ele>1583.0</ele>
  <time>2026-08-28T17:56:33Z</time>
  <course>236.75</course>
  <speed>0.86</speed>
  <fix>3d</fix>
</trkpt>
<trkpt lat="40.0713656" lon="-105.2298087">
  <ele>1583.14</ele>
  <time>2026-08-28T17:56:33Z</time>
  <course>237.83</course>
  <speed>0.8713208364316786</speed>
  <fix>3d</fix>
</trkpt>
<trkpt lat="40.0713664" lon="-105.2298067">
  <ele>1583.0</ele>
  <time>2026-08-28T17:56:33Z</time>
  <course>236.75</course>
  <speed>0.86</speed>
  <fix>3d</fix>
</trkpt>
<trkpt lat="40.0713651" lon="-105.2298096">
  <ele>1583.14</ele>
  <time>2026-08-28T17:56:33Z</time>
  <course>237.82</course>
  <speed>0.8850988645343524</speed>
  <fix>3d</fix>
</trkpt>
<trkpt lat="40.0713655" lon="-105.2298084">
  <ele>1583.0</ele>
  <time>2026-08-28T17:56:33Z</time>
  <course>236.71</course>
  <speed>0.89</speed>
  <fix>3d</fix>
</trkpt>
<trkpt lat="40.0713647" lon="-105.2298105">
  <ele>1583.14</ele>
  <time>2026-08-28T17:56:33Z</time>
  <course>237.85</course>
  <speed>0.8935882720806042</speed>
  <fix>3d</fix>
</trkpt>
<trkpt lat="40.0713655" lon="-105.2298084">
  <ele>1583.0</ele>
  <time>2026-08-28T17:56:33Z</time>
  <course>236.71</course>
  <speed>0.89</speed>
  <fix>3d</fix>
</trkpt>
<trkpt lat="40.0713642" lon="-105.2298114">
  <ele>1583.14</ele>
  <time>2026-08-28T17:56:33Z</time>
  <course>237.9</course>
  <speed>0.9073588044428731</speed>
  <fix>3d</fix>
</trkpt>
<trkpt lat="40.0713646" lon="-105.2298102">
  <ele>1583.0</ele>
  <time>2026-08-28T17:56:33Z</time>
  <course>236.68</course>
  <speed>0.91</speed>
  <fix>3d</fix>
</trkpt>
<trkpt lat="40.0713638" lon="-105.2298123">
  <ele>1583.14</ele>
  <time>2026-08-28T17:56:33Z</time>
  <course>237.91</course>
  <speed>0.9211405973031478</speed>
  <fix>3d</fix>
</trkpt>
<trkpt lat="40.0713646" lon="-105.2298102">
  <ele>1583.0</ele>
  <time>2026-08-28T17:56:33Z</time>
  <course>236.68</course>
  <speed>0.91</speed>
  <fix>3d</fix>
</trkpt>
<trkpt lat="40.0713634" lon="-105.2298131">
  <ele>1583.14</ele>
  <time>2026-08-28T17:56:33Z</time>
  <course>237.93</course>
  <speed>0.929623579735368</speed>
  <fix>3d</fix>
</trkpt>
<trkpt lat="40.0713637" lon="-105.229812">
  <ele>1583.0</ele>
  <time>2026-08-28T17:56:33Z</time>
  <course>236.66</course>
  <speed>0.94</speed>
  <fix>3d</fix>
</trkpt>
<trkpt lat="40.0713629" lon="-105.229814">
  <ele>1583.14</ele>
  <time>2026-08-28T17:56:33Z</time>
  <course>237.98</course>
  <speed>0.9349331526906082</speed>
  <fix>3d</fix>
</trkpt>
<trkpt lat="40.0713637" lon="-105.229812">
  <ele>1583.0</ele>
  <time>2026-08-28T17:56:33Z</time>
  <course>236.66</course>
  <speed>0.94</speed>
  <fix>3d</fix>
</trkpt>
<trkpt lat="40.0713624" lon="-105.229815">
  <ele>1583.14</ele>
  <time>2026-08-28T17:56:33Z</time>
  <course>238.01</course>
  <speed>0.9433981132056605</speed>
  <fix>3d</fix>
</trkpt>
<trkpt lat="40.0713628" lon="-105.2298139">
  <ele>1583.0</ele>
  <time>2026-08-28T17:56:33Z</time>
  <course>236.65</course>
  <speed>0.96</speed>
  <fix>3d</fix>
</trkpt>
<trkpt lat="40.0713619" lon="-105.2298159">
  <ele>1583.14</ele>
  <time>2026-08-28T17:56:33Z</time>
  <course>238.06</course>
  <speed>0.957183368012629</speed>
  <fix>3d</fix>
</trkpt>
<trkpt lat="40.0713628" lon="-105.2298139">
  <ele>1583.0</ele>
  <time>2026-08-28T17:56:33Z</time>
  <course>236.65</course>
  <speed>0.96</speed>
  <fix>3d</fix>
</trkpt>
<trkpt lat="40.0713615" lon="-105.2298169">
  <ele>1583.14</ele>
  <time>2026-08-28T17:56:33Z</time>
  <course>238.11</course>
  <speed>0.957183368012629</speed>
  <fix>3d</fix>
</trkpt>
<trkpt lat="40.0713618" lon="-105.2298158">
  <ele>1583.0</ele>
  <time>2026-08-28T17:56:33Z</time>
  <course>236.65</course>
  <speed>0.97</speed>
  <fix>3d</fix>
</trkpt>
<trkpt lat="40.071361" lon="-105.2298179">
  <ele>1583.14</ele>
  <time>2026-08-28T17:56:33Z</time>
  <course>238.15</course>
  <speed>0.9709788875150684</speed>
  <fix>3d</fix>
</trkpt>
<trkpt lat="40.0713618" lon="-105.2298158">
  <ele>1583.0</ele>
  <time>2026-08-28T17:56:33Z</time>
  <course>236.65</course>
  <speed>0.97</speed>
  <fix>3d</fix>
</trkpt>
<trkpt lat="40.0713605" lon="-105.2298189">
  <ele>1583.14</ele>
  <time>2026-08-28T17:56:33Z</time>
  <course>238.21</course>
  <speed>0.9794386147176352</speed>
  <fix>3d</fix>
</trkpt>
<trkpt lat="40.0713609" lon="-105.2298177">
  <ele>1583.0</ele>
  <time>2026-08-28T17:56:33Z</time>
  <course>236.65</course>
  <speed>0.99</speed>
  <fix>3d</fix>
</trkpt>
<trkpt lat="40.07136" lon="-105.2298199">
  <ele>1583.14</ele>
  <time>2026-08-28T17:56:33Z</time>
  <course>238.27</course>
  <speed>0.9794386147176352</speed>
  <fix>3d</fix>
</trkpt>
<trkpt lat="40.0713609" lon="-105.2298177">
  <ele>1583.0</ele>
  <time>2026-08-28T17:56:33Z</time>
  <course>236.65</course>
  <speed>0.99</speed>
  <fix>3d</fix>
</trkpt>
<trkpt lat="40.0713595" lon="-105.2298209">
  <ele>1583.14</ele>
  <time>2026-08-28T17:56:33Z</time>
  <course>238.33</course>
  <speed>0.9932270636667125</speed>
  <fix>3d</fix>
</trkpt>
<trkpt lat="40.0713599" lon="-105.2298196">
  <ele>1583.0</ele>
  <time>2026-08-28T17:56:33Z</time>
  <course>236.67</course>
  <speed>1.0</speed>
  <fix>3d</fix>
</trkpt>
<trkpt lat="40.0713589" lon="-105.2298221">
  <ele>1583.14</ele>
  <time>2026-08-28T17:56:33Z</time>
  <course>238.4</course>
  <speed>0.9932270636667125</speed>
  <fix>3d</fix>
</trkpt>
<trkpt lat="40.0713599" lon="-105.2298196">
  <ele>1583.0</ele>
  <time>2026-08-28T17:56:33Z</time>
  <course>236.67</course>
  <speed>1.0</speed>
  <fix>3d</fix>
</trkpt>
<trkpt lat="40.0713584" lon="-105.2298231">
  <ele>1583.14</ele>
  <time>2026-08-28T17:56:33Z</time>
  <course>238.46</course>
  <speed>1.0016985574512922</speed>
  <fix>3d</fix>
</trkpt>
<trkpt lat="40.0713589" lon="-105.2298217">
  <ele>1583.0</ele>
  <time>2026-08-28T17:56:33Z</time>
  <course>236.69</course>
  <speed>1.01</speed>
  <fix>3d</fix>
</trkpt>
<trkpt lat="40.0713579" lon="-105.2298241">
  <ele>1583.14</ele>
  <time>2026-08-28T17:56:33Z</time>
  <course>238.53</course>
  <speed>1.0016985574512922</speed>
  <fix>3d</fix>
</trkpt>
<trkpt lat="40.0713589" lon="-105.2298217">
  <ele>1583.0</ele>
  <time>2026-08-28T17:56:33Z</time>
  <course>236.69</course>
  <speed>1.01</speed>
  <fix>3d</fix>
</trkpt>
<trkpt lat="40.0713573" lon="-105.2298251">
  <ele>1583.14</ele>
  <time>2026-08-28T17:56:33Z</time>
  <course>238.58</course>
  <speed>1.0070253224224304</speed>
  <fix>3d</fix>
</trkpt>
<trkpt lat="40.0713578" lon="-105.2298237">
  <ele>1583.0</ele>
  <time>2026-08-28T17:56:33Z</time>
  <course>236.73</course>
  <speed>1.02</speed>
  <fix>3d</fix>
</trkpt>
<trkpt lat="40.0713568" lon="-105.2298261">
  <ele>1583.14</ele>
  <time>2026-08-28T17:56:33Z</time>
  <course>238.67</course>
  <speed>1.0154801819828883</speed>
  <fix>3d</fix>
</trkpt>
<trkpt lat="40.0713578" lon="-105.2298237">
  <ele>1583.0</ele>
  <time>2026-08-28T17:56:33Z</time>
  <course>236.73</course>
  <speed>1.02</speed>
  <fix>3d</fix>
</trkpt>
<trkpt lat="40.0713563" lon="-105.2298272">
  <ele>1583.14</ele>
  <time>2026-08-28T17:56:33Z</time>
  <course>238.74</course>
  <speed>1.0154801819828883</speed>
  <fix>3d</fix>
</trkpt>
<trkpt lat="40.0713569" lon="-105.2298256">
  <ele>1583.0</ele>
  <time>2026-08-28T17:56:33Z</time>
  <course>236.77</course>
  <speed>1.03</speed>
  <fix>3d</fix>
</trkpt>
<trkpt lat="40.0713558" lon="-105.2298282">
  <ele>1583.14</ele>
  <time>2026-08-28T17:56:33Z</time>
  <course>238.82</course>
  <speed>1.0154801819828883</speed>
  <fix>3d</fix>
</trkpt>
<trkpt lat="40.0713569" lon="-105.2298256">
  <ele>1583.0</ele>
  <time>2026-08-28T17:56:33Z</time>
  <course>236.77</course>
  <speed>1.03</speed>
  <fix>3d</fix>
</trkpt>
<trkpt lat="40.0713553" lon="-105.2298292">
  <ele>1583.15</ele>
  <time>2026-08-28T17:56:33Z</time>
  <course>238.89</course>
  <speed>1.0154801819828883</speed>
  <fix>3d</fix>
</trkpt>
<trkpt lat="40.0713558" lon="-105.2298277">
  <ele>1583.0</ele>
  <time>2026-08-28T17:56:33Z</time>
  <course>236.82</course>
  <speed>1.04</speed>
  <fix>3d</fix>
</trkpt>
<trkpt lat="40.0713548" lon="-105.2298302">
  <ele>1583.15</ele>
  <time>2026-08-28T17:56:33Z</time>
  <course>238.96</course>
  <speed>1.0154801819828883</speed>
  <fix>3d</fix>
</trkpt>
<trkpt lat="40.0713558" lon="-105.2298277">
  <ele>1583.0</ele>
  <time>2026-08-28T17:56:33Z</time>
  <course>236.82</course>
  <speed>1.04</speed>
  <fix>3d</fix>
</trkpt>
<trkpt lat="40.0713543" lon="-105.2298312">
  <ele>1583.15</ele>
  <time>2026-08-28T17:56:33Z</time>
  <course>239.05</course>
  <speed>1.0239628899525608</speed>
  <fix>3d</fix>
</trkpt>
<trkpt lat="40.0713547" lon="-105.2298298">
  <ele>1583.0</ele>
  <time>2026-08-28T17:56:33Z</time>
  <course>236.88</course>
  <speed>1.04</speed>
  <fix>3d</fix>
</trkpt>
<trkpt lat="40.0713538" lon="-105.2298322">
  <ele>1583.15</ele>
  <time>2026-08-28T17:56:33Z</time>
  <course>239.12</course>
  <speed>1.0239628899525608</speed>
  <fix>3d</fix>
</trkpt>
<trkpt lat="40.0713547" lon="-105.2298298">
  <ele>1583.0</ele>
  <time>2026-08-28T17:56:33Z</time>
  <course>236.88</course>
  <speed>1.04</speed>
  <fix>3d</fix>
</trkpt>
<trkpt lat="40.0713534" lon="-105.2298331">
  <ele>1583.16</ele>
  <time>2026-08-28T17:56:33Z</time>
  <course>239.18</course>
  <speed>1.0239628899525608</speed>
  <fix>3d</fix>
</trkpt>
<trkpt lat="40.0713538" lon="-105.2298318">
  <ele>1583.0</ele>
  <time>2026-08-28T17:56:33Z</time>
  <course>236.95</course>
  <speed>1.04</speed>
  <fix>3d</fix>
</trkpt>
<trkpt lat="40.0713528" lon="-105.2298341">
  <ele>1583.16</ele>
  <time>2026-08-28T17:56:33Z</time>
  <course>239.28</course>
  <speed>1.0239628899525608</speed>
  <fix>3d</fix>
</trkpt>
<trkpt lat="40.0713538" lon="-105.2298318">
  <ele>1583.0</ele>
  <time>2026-08-28T17:56:33Z</time>
  <course>236.95</course>
  <speed>1.04</speed>
  <fix>3d</fix>
</trkpt>
<trkpt lat="40.0713523" lon="-105.2298351">
  <ele>1583.16</ele>
  <time>2026-08-28T17:56:33Z</time>
  <course>239.35</course>
  <speed>1.0239628899525608</speed>
  <fix>3d</fix>
</trkpt>
<trkpt lat="40.0713528" lon="-105.2298339">
  <ele>1583.0</ele>
  <time>2026-08-28T17:56:33Z</time>
  <course>237.02</course>
  <speed>1.05</speed>
  <fix>3d</fix>
</trkpt>
<trkpt lat="40.0713518" lon="-105.2298362">
  <ele>1583.16</ele>
  <time>2026-08-28T17:56:33Z</time>
  <course>239.44</course>
  <speed>1.0239628899525608</speed>
  <fix>3d</fix>
</trkpt>
<trkpt lat="40.0713528" lon="-105.2298339">
  <ele>1583.0</ele>
  <time>2026-08-28T17:56:33Z</time>
  <course>237.02</course>
  <speed>1.05</speed>
  <fix>3d</fix>
</trkpt>
<trkpt lat="40.0713513" lon="-105.2298372">
  <ele>1583.16</ele>
  <time>2026-08-28T17:56:33Z</time>
  <course>239.51</course>
  <speed>1.0239628899525608</speed>
  <fix>3d</fix>
</trkpt>
<trkpt lat="40.0713517" lon="-105.229836">
  <ele>1583.0</ele>
  <time>2026-08-28T17:56:33Z</time>
  <course>237.1</course>
  <speed>1.05</speed>
  <fix>3d</fix>
</trkpt>
<trkpt lat="40.0713508" lon="-105.2298383">
  <ele>1583.16</ele>
  <time>2026-08-28T17:56:33Z</time>
  <course>239.6</course>
  <speed>1.0239628899525608</speed>
  <fix>3d</fix>
</trkpt>
<trkpt lat="40.0713517" lon="-105.229836">
  <ele>1583.0</ele>
  <time>2026-08-28T17:56:33Z</time>
  <course>237.1</course>
  <speed>1.05</speed>
  <fix>3d</fix>
</trkpt>
<trkpt lat="40.0713503" lon="-105.2298393">
  <ele>1583.16</ele>
  <time>2026-08-28T17:56:33Z</time>
  <course>239.68</course>
  <speed>1.0239628899525608</speed>
  <fix>3d</fix>
</trkpt>
<trkpt lat="40.0713506" lon="-105.2298381">
  <ele>1583.0</ele>
  <time>2026-08-28T17:56:33Z</time>
  <course>237.18</course>
  <speed>1.05</speed>
  <fix>3d</fix>
</trkpt>
<trkpt lat="40.0713497" lon="-105.2298403">
  <ele>1583.16</ele>
  <time>2026-08-28T17:56:33Z</time>
  <course>239.76</course>
  <speed>1.0239628899525608</speed>
  <fix>3d</fix>
</trkpt>
<trkpt lat="40.0713506" lon="-105.2298381">
  <ele>1583.0</ele>
  <time>2026-08-28T17:56:33Z</time>
  <course>237.18</course>
  <speed>1.05</speed>
  <fix>3d</fix>
</trkpt>
<trkpt lat="40.0713492" lon="-105.2298414">
  <ele>1583.16</ele>
  <time>2026-08-28T17:56:33Z</time>
  <course>239.84</course>
  <speed>1.0239628899525608</speed>
  <fix>3d</fix>
</trkpt>
<trkpt lat="40.0713497" lon="-105.2298401">
  <ele>1583.0</ele>
  <time>2026-08-28T17:56:33Z</time>
  <course>237.27</course>
  <speed>1.05</speed>
  <fix>3d</fix>
</trkpt>
<trkpt lat="40.0713487" lon="-105.2298424">
  <ele>1583.16</ele>
  <time>2026-08-28T17:56:33Z</time>
  <course>239.91</course>
  <speed>1.0239628899525608</speed>
  <fix>3d</fix>
</trkpt>
<trkpt lat="40.0713497" lon="-105.2298401">
  <ele>1583.0</ele>
  <time>2026-08-28T17:56:33Z</time>
  <course>237.27</course>
  <speed>1.05</speed>
  <fix>3d</fix>
</trkpt>
<trkpt lat="40.0713481" lon="-105.2298437">
  <ele>1583.16</ele>
  <time>2026-08-28T17:56:33Z</time>
  <course>240.02</course>
  <speed>1.0187246929372038</speed>
  <fix>3d</fix>
</trkpt>
<trkpt lat="40.0713487" lon="-105.2298422">
  <ele>1583.0</ele>
  <time>2026-08-28T17:56:33Z</time>
  <course>237.37</course>
  <speed>1.05</speed>
  <fix>3d</fix>
</trkpt>
<trkpt lat="40.0713476" lon="-105.2298447">
  <ele>1583.16</ele>
  <time>2026-08-28T17:56:33Z</time>
  <course>240.08</course>
  <speed>1.0187246929372038</speed>
  <fix>3d</fix>
</trkpt>
<trkpt lat="40.0713487" lon="-105.2298422">
  <ele>1583.0</ele>
  <time>2026-08-28T17:56:33Z</time>
  <course>237.37</course>
  <speed>1.05</speed>
  <fix>3d</fix>
</trkpt>
<trkpt lat="40.0713471" lon="-105.2298458">
  <ele>1583.16</ele>
  <time>2026-08-28T17:56:33Z</time>
  <course>240.17</course>
  <speed>1.0187246929372038</speed>
  <fix>3d</fix>
</trkpt>
<trkpt lat="40.0713476" lon="-105.2298443">
  <ele>1583.0</ele>
  <time>2026-08-28T17:56:33Z</time>
  <course>237.47</course>
  <speed>1.04</speed>
  <fix>3d</fix>
</trkpt>
<trkpt lat="40.0713466" lon="-105.2298468">
  <ele>1583.16</ele>
  <time>2026-08-28T17:56:33Z</time>
  <course>240.24</course>
  <speed>1.0187246929372038</speed>
  <fix>3d</fix>
</trkpt>
<trkpt lat="40.0713476" lon="-105.2298443">
  <ele>1583.0</ele>
  <time>2026-08-28T17:56:33Z</time>
  <course>237.47</course>
  <speed>1.04</speed>
  <fix>3d</fix>
</trkpt>
<trkpt lat="40.0713461" lon="-105.2298478">
  <ele>1583.16</ele>
  <time>2026-08-28T17:56:33Z</time>
  <course>240.3</course>
  <speed>1.0187246929372038</speed>
  <fix>3d</fix>
</trkpt>
<trkpt lat="40.0713466" lon="-105.2298464">
  <ele>1583.0</ele>
  <time>2026-08-28T17:56:33Z</time>
  <course>237.57</course>
  <speed>1.04</speed>
  <fix>3d</fix>
</trkpt>
<trkpt lat="40.0713456" lon="-105.2298489">
  <ele>1583.16</ele>
  <time>2026-08-28T17:56:33Z</time>
  <course>240.38</course>
  <speed>1.0187246929372038</speed>
  <fix>3d</fix>
</trkpt>
<trkpt lat="40.0713466" lon="-105.2298464">
  <ele>1583.0</ele>
  <time>2026-08-28T17:56:33Z</time>
  <course>237.57</course>
  <speed>1.04</speed>
  <fix>3d</fix>
</trkpt>
<trkpt lat="40.0713451" lon="-105.2298499">
  <ele>1583.16</ele>
  <time>2026-08-28T17:56:33Z</time>
  <course>240.43</course>
  <speed>1.004987562112089</speed>
  <fix>3d</fix>
</trkpt>
<trkpt lat="40.0713456" lon="-105.2298484">
  <ele>1583.0</ele>
  <time>2026-08-28T17:56:33Z</time>
  <course>237.68</course>
  <speed>1.04</speed>
  <fix>3d</fix>
</trkpt>
<trkpt lat="40.0713446" lon="-105.2298509">
  <ele>1583.16</ele>
  <time>2026-08-28T17:56:33Z</time>
  <course>240.49</course>
  <speed>1.004987562112089</speed>
  <fix>3d</fix>
</trkpt>
<trkpt lat="40.0713456" lon="-105.2298484">
  <ele>1583.0</ele>
  <time>2026-08-28T17:56:33Z</time>
  <course>237.68</course>
  <speed>1.04</speed>
  <fix>3d</fix>
</trkpt>
<trkpt lat="40.0713441" lon="-105.2298519">
  <ele>1583.16</ele>
  <time>2026-08-28T17:56:33Z</time>
  <course>240.57</course>
  <speed>1.004987562112089</speed>
  <fix>3d</fix>
</trkpt>
<trkpt lat="40.0713446" lon="-105.2298505">
  <ele>1583.0</ele>
  <time>2026-08-28T17:56:33Z</time>
  <course>237.79</course>
  <speed>1.03</speed>
  <fix>3d</fix>
</trkpt>
<trkpt lat="40.0713436" lon="-105.2298529">
  <ele>1583.16</ele>
  <time>2026-08-28T17:56:33Z</time>
  <course>240.62</course>
  <speed>1.004987562112089</speed>
  <fix>3d</fix>
</trkpt>
<trkpt lat="40.0713446" lon="-105.2298505">
  <ele>1583.0</ele>
  <time>2026-08-28T17:56:33Z</time>
  <course>237.79</course>
  <speed>1.03</speed>
  <fix>3d</fix>
</trkpt>
<trkpt lat="40.0713431" lon="-105.229854">
  <ele>1583.16</ele>
  <time>2026-08-28T17:56:33Z</time>
  <course>240.66</course>
  <speed>0.9998499887483122</speed>
  <fix>3d</fix>
</trkpt>
<trkpt lat="40.0713437" lon="-105.2298525">
  <ele>1583.0</ele>
  <time>2026-08-28T17:56:33Z</time>
  <course>237.89</course>
  <speed>1.03</speed>
  <fix>3d</fix>
</trkpt>
<trkpt lat="40.0713427" lon="-105.2298548">
  <ele>1583.16</ele>
  <time>2026-08-28T17:56:33Z</time>
  <course>240.71</course>
  <speed>0.9998499887483122</speed>
  <fix>3d</fix>
</trkpt>
<trkpt lat="40.0713437" lon="-105.2298525">
  <ele>1583.0</ele>
  <time>2026-08-28T17:56:33Z</time>
  <course>237.89</course>
  <speed>1.03</speed>
  <fix>3d</fix>
</trkpt>
<trkpt lat="40.0713423" lon="-105.2298558">
  <ele>1583.16</ele>
  <time>2026-08-28T17:56:33Z</time>
  <course>240.79</course>
  <speed>0.9912618221237011</speed>
  <fix>3d</fix>
</trkpt>
<trkpt lat="40.0713427" lon="-105.2298546">
  <ele>1583.0</ele>
  <time>2026-08-28T17:56:33Z</time>
  <course>238.0</course>
  <speed>1.02</speed>
  <fix>3d</fix>
</trkpt>
<trkpt lat="40.0713418" lon="-105.2298568">
  <ele>1583.17</ele>
  <time>2026-08-28T17:56:33Z</time>
  <course>240.81</course>
  <speed>0.9912618221237011</speed>
  <fix>3d</fix>
</trkpt>
<trkpt lat="40.0713427" lon="-105.2298546">
  <ele>1583.0</ele>
  <time>2026-08-28T17:56:33Z</time>
  <course>238.0</course>
  <speed>1.02</speed>
  <fix>3d</fix>
</trkpt>
<trkpt lat="40.0713413" lon="-105.2298578">
  <ele>1583.17</ele>
  <time>2026-08-28T17:56:33Z</time>
  <course>240.85</course>
  <speed>0.9912618221237011</speed>
  <fix>3d</fix>
</trkpt>
<trkpt lat="40.0713417" lon="-105.2298567">
  <ele>1583.0</ele>
  <time>2026-08-28T17:56:33Z</time>
  <course>238.11</course>
  <speed>1.02</speed>
  <fix>3d</fix>
</trkpt>
<trkpt lat="40.0713408" lon="-105.2298588">
  <ele>1583.17</ele>
  <time>2026-08-28T17:56:33Z</time>
  <course>240.9</course>
  <speed>0.986154146165801</speed>
  <fix>3d</fix>
</trkpt>
<trkpt lat="40.0713417" lon="-105.2298567">
  <ele>1583.0</ele>
  <time>2026-08-28T17:56:33Z</time>
  <course>238.11</course>
  <speed>1.02</speed>
  <fix>3d</fix>
</trkpt>
<trkpt lat="40.0713403" lon="-105.2298599">
  <ele>1583.17</ele>
  <time>2026-08-28T17:56:33Z</time>
  <course>240.95</course>
  <speed>0.986154146165801</speed>
  <fix>3d</fix>
</trkpt>
<trkpt lat="40.0713407" lon="-105.2298587">
  <ele>1583.0</ele>
  <time>2026-08-28T17:56:33Z</time>
  <course>238.21</course>
  <speed>1.02</speed>
  <fix>3d</fix>
</trkpt>
<trkpt lat="40.0713399" lon="-105.2298609">
  <ele>1583.17</ele>
  <time>2026-08-28T17:56:33Z</time>
  <course>240.96</course>
  <speed>0.986154146165801</speed>
  <fix>3d</fix>
</trkpt>
<trkpt lat="40.0713407" lon="-105.2298587">
  <ele>1583.0</ele>
  <time>2026-08-28T17:56:33Z</time>
  <course>238.21</course>
  <speed>1.02</speed>
  <fix>3d</fix>
</trkpt>
<trkpt lat="40.0713394" lon="-105.2298619">
  <ele>1583.17</ele>
  <time>2026-08-28T17:56:33Z</time>
  <course>241.0</course>
  <speed>0.986154146165801</speed>
  <fix>3d</fix>
</trkpt>
<trkpt lat="40.0713397" lon="-105.2298608">
  <ele>1583.0</ele>
  <time>2026-08-28T17:56:33Z</time>
  <course>238.32</course>
  <speed>1.01</speed>
  <fix>3d</fix>
</trkpt>
<trkpt lat="40.0713389" lon="-105.2298629">
  <ele>1583.17</ele>
  <time>2026-08-28T17:56:33Z</time>
  <course>241.02</course>
  <speed>0.9775479527879949</speed>
  <fix>3d</fix>
</trkpt>
<trkpt lat="40.0713397" lon="-105.2298608">
  <ele>1583.0</ele>
  <time>2026-08-28T17:56:33Z</time>
  <course>238.32</course>
  <speed>1.01</speed>
  <fix>3d</fix>
</trkpt>
<trkpt lat="40.0713384" lon="-105.2298639">
  <ele>1583.17</ele>
  <time>2026-08-28T17:56:33Z</time>
  <course>241.04</course>
  <speed>0.9724710792614863</speed>
  <fix>3d</fix>
</trkpt>
<trkpt lat="40.0713388" lon="-105.2298627">
  <ele>1583.0</ele>
  <time>2026-08-28T17:56:33Z</time>
  <course>238.42</course>
  <speed>1.01</speed>
  <fix>3d</fix>
</trkpt>
<trkpt lat="40.0713379" lon="-105.2298652">
  <ele>1583.17</ele>
  <time>2026-08-28T17:56:33Z</time>
  <course>241.05</course>
  <speed>0.9724710792614863</speed>
  <fix>3d</fix>
</trkpt>
<trkpt lat="40.0713388" lon="-105.2298627">
  <ele>1583.0</ele>
  <time>2026-08-28T17:56:33Z</time>
  <course>238.42</course>
  <speed>1.01</speed>
  <fix>3d</fix>
</trkpt>
<trkpt lat="40.0713374" lon="-105.2298662">
  <ele>1583.16</ele>
  <time>2026-08-28T17:56:33Z</time>
  <course>241.05</course>
  <speed>0.9724710792614863</speed>
  <fix>3d</fix>
</trkpt>
<trkpt lat="40.0713378" lon="-105.2298648">
  <ele>1583.0</ele>
  <time>2026-08-28T17:56:33Z</time>
  <course>238.51</course>
  <speed>1.0</speed>
  <fix>3d</fix>
</trkpt>
<trkpt lat="40.0713369" lon="-105.2298672">
  <ele>1583.16</ele>
  <time>2026-08-28T17:56:33Z</time>
  <course>241.07</course>
  <speed>0.9724710792614863</speed>
  <fix>3d</fix>
</trkpt>
<trkpt lat="40.0713378" lon="-105.2298648">
  <ele>1583.0</ele>
  <time>2026-08-28T17:56:33Z</time>
  <course>238.51</course>
  <speed>1.0</speed>
  <fix>3d</fix>
</trkpt>
<trkpt lat="40.0713364" lon="-105.2298682">
  <ele>1583.16</ele>
  <time>2026-08-28T17:56:33Z</time>
  <course>241.07</course>
  <speed>0.9724710792614863</speed>
  <fix>3d</fix>
</trkpt>
<trkpt lat="40.0713369" lon="-105.2298668">
  <ele>1583.0</ele>
  <time>2026-08-28T17:56:33Z</time>
  <course>238.6</course>
  <speed>1.0</speed>
  <fix>3d</fix>
</trkpt>
<trkpt lat="40.071336" lon="-105.2298692">
  <ele>1583.16</ele>
  <time>2026-08-28T17:56:33Z</time>
  <course>241.09</course>
  <speed>0.9674709297958259</speed>
  <fix>3d</fix>
</trkpt>
<trkpt lat="40.0713369" lon="-105.2298668">
  <ele>1583.0</ele>
  <time>2026-08-28T17:56:33Z</time>
  <course>238.6</course>
  <speed>1.0</speed>
  <fix>3d</fix>
</trkpt>
<trkpt lat="40.0713355" lon="-105.2298702">
  <ele>1583.16</ele>
  <time>2026-08-28T17:56:33Z</time>
  <course>241.06</course>
  <speed>0.9588013350011565</speed>
  <fix>3d</fix>
</trkpt>
<trkpt lat="40.071336" lon="-105.2298687">
  <ele>1583.0</ele>
  <time>2026-08-28T17:56:33Z</time>
  <course>238.68</course>
  <speed>0.99</speed>
  <fix>3d</fix>
</trkpt>
<trkpt lat="40.0713351" lon="-105.2298712">
  <ele>1583.16</ele>
  <time>2026-08-28T17:56:33Z</time>
  <course>241.06</course>
  <speed>0.9588013350011565</speed>
  <fix>3d</fix>
</trkpt>
<trkpt lat="40.071336" lon="-105.2298687">
  <ele>1583.0</ele>
  <time>2026-08-28T17:56:33Z</time>
  <course>238.68</course>
  <speed>0.99</speed>
  <fix>3d</fix>
</trkpt>
<trkpt lat="40.0713346" lon="-105.2298722">
  <ele>1583.16</ele>
  <time>2026-08-28T17:56:33Z</time>
  <course>241.05</course>
  <speed>0.9588013350011565</speed>
  <fix>3d</fix>
</trkpt>
<trkpt lat="40.071335" lon="-105.2298707">
  <ele>1583.0</ele>
  <time>2026-08-28T17:56:33Z</time>
  <course>238.76</course>
  <speed>0.99</speed>
  <fix>3d</fix>
</trkpt>
<trkpt lat="40.0713341" lon="-105.2298731">
  <ele>1583.16</ele>
  <time>2026-08-28T17:56:33Z</time>
  <course>241.03</course>
  <speed>0.9588013350011565</speed>
  <fix>3d</fix>
</trkpt>
<trkpt lat="40.071335" lon="-105.2298707">
  <ele>1583.0</ele>
  <time>2026-08-28T17:56:33Z</time>
  <course>238.76</course>
  <speed>0.99</speed>
  <fix>3d</fix>
</trkpt>
<trkpt lat="40.0713337" lon="-105.2298741">
  <ele>1583.16</ele>
  <time>2026-08-28T17:56:33Z</time>
  <course>241.03</course>
  <speed>0.9451454914456292</speed>
  <fix>3d</fix>
</trkpt>
<trkpt lat="40.0713341" lon="-105.2298728">
  <ele>1583.0</ele>
  <time>2026-08-28T17:56:33Z</time>
  <course>238.83</course>
  <speed>0.98</speed>
  <fix>3d</fix>
</trkpt>
<trkpt lat="40.0713332" lon="-105.2298751">
  <ele>1583.15</ele>
  <time>2026-08-28T17:56:33Z</time>
  <course>241.03</course>
  <speed>0.9451454914456292</speed>
  <fix>3d</fix>
</trkpt>
<trkpt lat="40.0713341" lon="-105.2298728">
  <ele>1583.0</ele>
  <time>2026-08-28T17:56:33Z</time>
  <course>238.83</course>
  <speed>0.98</speed>
  <fix>3d</fix>
</trkpt>
<trkpt lat="40.0713329" lon="-105.2298759">
  <ele>1583.15</ele>
  <time>2026-08-28T17:56:33Z</time>
  <course>241.03</course>
  <speed>0.9451454914456292</speed>
  <fix>3d</fix>
</trkpt>
<trkpt lat="40.0713332" lon="-105.2298748">
  <ele>1583.0</ele>
  <time>2026-08-28T17:56:33Z</time>
  <course>238.89</course>
  <speed>0.98</speed>
  <fix>3d</fix>
</trkpt>
<trkpt lat="40.0713324" lon="-105.2298769">
  <ele>1583.15</ele>
  <time>2026-08-28T17:56:33Z</time>
  <course>241.02</course>
  <speed>0.9451454914456292</speed>
  <fix>3d</fix>
</trkpt>
<trkpt lat="40.0713332" lon="-105.2298748">
  <ele>1583.0</ele>
  <time>2026-08-28T17:56:33Z</time>
  <course>238.89</course>
  <speed>0.98</speed>
  <fix>3d</fix>
</trkpt>
<trkpt lat="40.071332" lon="-105.2298778">
  <ele>1583.15</ele>
  <time>2026-08-28T17:56:33Z</time>
  <course>241.01</course>
  <speed>0.9451454914456292</speed>
  <fix>3d</fix>
</trkpt>
<trkpt lat="40.0713323" lon="-105.2298767">
  <ele>1583.0</ele>
  <time>2026-08-28T17:56:33Z</time>
  <course>238.96</course>
  <speed>0.97</speed>
  <fix>3d</fix>
</trkpt>
<trkpt lat="40.0713315" lon="-105.2298788">
  <ele>1583.15</ele>
  <time>2026-08-28T17:56:33Z</time>
  <course>240.98</course>
  <speed>0.9451454914456292</speed>
  <fix>3d</fix>
</trkpt>
<trkpt lat="40.0713323" lon="-105.2298767">
  <ele>1583.0</ele>
  <time>2026-08-28T17:56:33Z</time>
  <course>238.96</course>
  <speed>0.97</speed>
  <fix>3d</fix>
</trkpt>
<trkpt lat="40.0713311" lon="-105.2298798">
  <ele>1583.15</ele>
  <time>2026-08-28T17:56:33Z</time>
  <course>240.93</course>
  <speed>0.9451454914456292</speed>
  <fix>3d</fix>
</trkpt>
<trkpt lat="40.0713314" lon="-105.2298787">
  <ele>1583.0</ele>
  <time>2026-08-28T17:56:33Z</time>
  <course>239.01</course>
  <speed>0.97</speed>
  <fix>3d</fix>
</trkpt>
<trkpt lat="40.0713306" lon="-105.2298808">
  <ele>1583.15</ele>
  <time>2026-08-28T17:56:33Z</time>
  <course>240.88</course>
  <speed>0.9451454914456292</speed>
  <fix>3d</fix>
</trkpt>
<trkpt lat="40.0713314" lon="-105.2298787">
  <ele>1583.0</ele>
  <time>2026-08-28T17:56:33Z</time>
  <course>239.01</course>
  <speed>0.97</speed>
  <fix>3d</fix>
</trkpt>
<trkpt lat="40.0713302" lon="-105.2298818">
  <ele>1583.15</ele>
  <time>2026-08-28T17:56:33Z</time>
  <course>240.83</course>
  <speed>0.9315041599477696</speed>
  <fix>3d</fix>
</trkpt>
<trkpt lat="40.0713305" lon="-105.2298806">
  <ele>1583.0</ele>
  <time>2026-08-28T17:56:33Z</time>
  <course>239.05</course>
  <speed>0.96</speed>
  <fix>3d</fix>
</trkpt>
<trkpt lat="40.0713297" lon="-105.2298827">
  <ele>1583.15</ele>
  <time>2026-08-28T17:56:34Z</time>
  <course>240.8</course>
  <speed>0.9315041599477696</speed>
  <fix>3d</fix>
</trkpt>
<trkpt lat="40.0713305" lon="-105.2298806">
  <ele>1583.0</ele>
  <time>2026-08-28T17:56:34Z</time>
  <course>239.05</course>
  <speed>0.96</speed>
  <fix>3d</fix>
</trkpt>
<trkpt lat="40.0713293" lon="-105.2298837">
  <ele>1583.15</ele>
  <time>2026-08-28T17:56:34Z</time>
  <course>240.78</course>
  <speed>0.9315041599477696</speed>
  <fix>3d</fix>
</trkpt>
<trkpt lat="40.0713296" lon="-105.2298826">
  <ele>1583.0</ele>
  <time>2026-08-28T17:56:34Z</time>
  <course>239.08</course>
  <speed>0.96</speed>
  <fix>3d</fix>
</trkpt>
<trkpt lat="40.0713288" lon="-105.2298847">
  <ele>1583.15</ele>
  <time>2026-08-28T17:56:34Z</time>
  <course>240.72</course>
  <speed>0.9315041599477696</speed>
  <fix>3d</fix>
</trkpt>
<trkpt lat="40.0713296" lon="-105.2298826">
  <ele>1583.0</ele>
  <time>2026-08-28T17:56:34Z</time>
  <course>239.08</course>
  <speed>0.96</speed>
  <fix>3d</fix>
</trkpt>
<trkpt lat="40.0713283" lon="-105.2298859">
  <ele>1583.15</ele>
  <time>2026-08-28T17:56:34Z</time>
  <course>240.66</course>
  <speed>0.9315041599477696</speed>
  <fix>3d</fix>
</trkpt>
<trkpt lat="40.0713287" lon="-105.2298845">
  <ele>1583.0</ele>
  <time>2026-08-28T17:56:34Z</time>
  <course>239.1</course>
  <speed>0.96</speed>
  <fix>3d</fix>
</trkpt>
<trkpt lat="40.0713279" lon="-105.2298868">
  <ele>1583.15</ele>
  <time>2026-08-28T17:56:34Z</time>
  <course>240.61</course>
  <speed>0.9315041599477696</speed>
  <fix>3d</fix>
</trkpt>
<trkpt lat="40.0713287" lon="-105.2298845">
  <ele>1583.0</ele>
  <time>2026-08-28T17:56:34Z</time>
  <course>239.1</course>
  <speed>0.96</speed>
  <fix>3d</fix>
</trkpt>
<trkpt lat="40.0713274" lon="-105.2298878">
  <ele>1583.15</ele>
  <time>2026-08-28T17:56:34Z</time>
  <course>240.56</course>
  <speed>0.9315041599477696</speed>
  <fix>3d</fix>
</trkpt>
<trkpt lat="40.0713278" lon="-105.2298864">
  <ele>1583.0</ele>
  <time>2026-08-28T17:56:34Z</time>
  <course>239.11</course>
  <speed>0.95</speed>
  <fix>3d</fix>
</trkpt>
<trkpt lat="40.071327" lon="-105.2298888">
  <ele>1583.15</ele>
  <time>2026-08-28T17:56:34Z</time>
  <course>240.51</course>
  <speed>0.9315041599477696</speed>
  <fix>3d</fix>
</trkpt>
<trkpt lat="40.0713278" lon="-105.2298864">
  <ele>1583.0</ele>
  <time>2026-08-28T17:56:34Z</time>
  <course>239.11</course>
  <speed>0.95</speed>
  <fix>3d</fix>
</trkpt>
<trkpt lat="40.0713265" lon="-105.2298897">
  <ele>1583.15</ele>
  <time>2026-08-28T17:56:34Z</time>
  <course>240.47</course>
  <speed>0.9228217596047462</speed>
  <fix>3d</fix>
</trkpt>
<trkpt lat="40.0713269" lon="-105.2298884">
  <ele>1583.0</ele>
  <time>2026-08-28T17:56:34Z</time>
  <course>239.12</course>
  <speed>0.95</speed>
  <fix>3d</fix>
</trkpt>
<trkpt lat="40.0713261" lon="-105.2298907">
  <ele>1583.15</ele>
  <time>2026-08-28T17:56:34Z</time>
  <course>240.42</course>
  <speed>0.9228217596047462</speed>
  <fix>3d</fix>
</trkpt>
<trkpt lat="40.0713269" lon="-105.2298884">
  <ele>1583.0</ele>
  <time>2026-08-28T17:56:34Z</time>
  <course>239.12</course>
  <speed>0.95</speed>
  <fix>3d</fix>
</trkpt>
<trkpt lat="40.0713256" lon="-105.2298916">
  <ele>1583.15</ele>
  <time>2026-08-28T17:56:34Z</time>
  <course>240.37</course>
  <speed>0.9228217596047462</speed>
  <fix>3d</fix>
</trkpt>
<trkpt lat="40.071326" lon="-105.2298903">
  <ele>1583.0</ele>
  <time>2026-08-28T17:56:34Z</time>
  <course>239.12</course>
  <speed>0.95</speed>
  <fix>3d</fix>
</trkpt>
<trkpt lat="40.0713252" lon="-105.2298926">
  <ele>1583.15</ele>
  <time>2026-08-28T17:56:34Z</time>
  <course>240.31</course>
  <speed>0.9228217596047462</speed>
  <fix>3d</fix>
</trkpt>
<trkpt lat="40.071326" lon="-105.2298903">
  <ele>1583.0</ele>
  <time>2026-08-28T17:56:34Z</time>
  <course>239.12</course>
  <speed>0.95</speed>
  <fix>3d</fix>
</trkpt>
<trkpt lat="40.0713248" lon="-105.2298935">
  <ele>1583.15</ele>
  <time>2026-08-28T17:56:34Z</time>
  <course>240.26</course>
  <speed>0.9228217596047462</speed>
  <fix>3d</fix>
</trkpt>
<trkpt lat="40.0713252" lon="-105.2298922">
  <ele>1583.0</ele>
  <time>2026-08-28T17:56:34Z</time>
  <course>239.1</course>
  <speed>0.95</speed>
  <fix>3d</fix>
</trkpt>
<trkpt lat="40.0713243" lon="-105.2298945">
  <ele>1583.15</ele>
  <time>2026-08-28T17:56:34Z</time>
  <course>240.19</course>
  <speed>0.9228217596047462</speed>
  <fix>3d</fix>
</trkpt>
<trkpt lat="40.0713252" lon="-105.2298922">
  <ele>1583.0</ele>
  <time>2026-08-28T17:56:34Z</time>
  <course>239.1</course>
  <speed>0.95</speed>
  <fix>3d</fix>
</trkpt>
<trkpt lat="40.0713239" lon="-105.2298954">
  <ele>1583.16</ele>
  <time>2026-08-28T17:56:34Z</time>
  <course>240.17</course>
  <speed>0.9178779875342911</speed>
  <fix>3d</fix>
</trkpt>
<trkpt lat="40.0713243" lon="-105.2298941">
  <ele>1583.0</ele>
  <time>2026-08-28T17:56:34Z</time>
  <course>239.08</course>
  <speed>0.94</speed>
  <fix>3d</fix>
</trkpt>
<trkpt lat="40.0713235" lon="-105.2298962">
  <ele>1583.15</ele>
  <time>2026-08-28T17:56:34Z</time>
  <course>240.17</course>
  <speed>0.9178779875342911</speed>
  <fix>3d</fix>
</trkpt>
<trkpt lat="40.0713243" lon="-105.2298941">
  <ele>1583.0</ele>
  <time>2026-08-28T17:56:34Z</time>
  <course>239.08</course>
  <speed>0.94</speed>
  <fix>3d</fix>
</trkpt>
<trkpt lat="40.0713231" lon="-105.2298971">
  <ele>1583.15</ele>
  <time>2026-08-28T17:56:34Z</time>
  <course>240.13</course>
  <speed>0.9178779875342911</speed>
  <fix>3d</fix>
</trkpt>
<trkpt lat="40.0713234" lon="-105.229896">
  <ele>1583.0</ele>
  <time>2026-08-28T17:56:34Z</time>
  <course>239.07</course>
  <speed>0.94</speed>
  <fix>3d</fix>
</trkpt>
<trkpt lat="40.0713227" lon="-105.2298981">
  <ele>1583.15</ele>
  <time>2026-08-28T17:56:34Z</time>
  <course>240.08</course>
  <speed>0.9178779875342911</speed>
  <fix>3d</fix>
</trkpt>
<trkpt lat="40.0713234" lon="-105.229896">
  <ele>1583.0</ele>
  <time>2026-08-28T17:56:34Z</time>
  <course>239.07</course>
  <speed>0.94</speed>
  <fix>3d</fix>
</trkpt>
<trkpt lat="40.0713222" lon="-105.229899">
  <ele>1583.15</ele>
  <time>2026-08-28T17:56:34Z</time>
  <course>240.04</course>
  <speed>0.9091754506144565</speed>
  <fix>3d</fix>
</trkpt>
<trkpt lat="40.0713225" lon="-105.229898">
  <ele>1583.0</ele>
  <time>2026-08-28T17:56:34Z</time>
  <course>239.04</course>
  <speed>0.94</speed>
  <fix>3d</fix>
</trkpt>
<trkpt lat="40.0713218" lon="-105.2299">
  <ele>1583.15</ele>
  <time>2026-08-28T17:56:34Z</time>
  <course>240.02</course>
  <speed>0.9091754506144565</speed>
  <fix>3d</fix>
</trkpt>
<trkpt lat="40.0713225" lon="-105.229898">
  <ele>1583.0</ele>
  <time>2026-08-28T17:56:34Z</time>
  <course>239.04</course>
  <speed>0.94</speed>
  <fix>3d</fix>
</trkpt>
<trkpt lat="40.0713214" lon="-105.2299009">
  <ele>1583.15</ele>
  <time>2026-08-28T17:56:34Z</time>
  <course>239.97</course>
  <speed>0.9091754506144565</speed>
  <fix>3d</fix>
</trkpt>
<trkpt lat="40.0713217" lon="-105.2298999">
  <ele>1583.0</ele>
  <time>2026-08-28T17:56:34Z</time>
  <course>239.01</course>
  <speed>0.94</speed>
  <fix>3d</fix>
</trkpt>
<trkpt lat="40.0713209" lon="-105.2299019">
  <ele>1583.15</ele>
  <time>2026-08-28T17:56:34Z</time>
  <course>239.92</course>
  <speed>0.9091754506144565</speed>
  <fix>3d</fix>
</trkpt>
<trkpt lat="40.0713217" lon="-105.2298999">
  <ele>1583.0</ele>
  <time>2026-08-28T17:56:34Z</time>
  <course>239.01</course>
  <speed>0.94</speed>
  <fix>3d</fix>
</trkpt>
<trkpt lat="40.0713205" lon="-105.2299029">
  <ele>1583.15</ele>
  <time>2026-08-28T17:56:34Z</time>
  <course>239.87</course>
  <speed>0.9091754506144565</speed>
  <fix>3d</fix>
</trkpt>
<trkpt lat="40.0713208" lon="-105.2299018">
  <ele>1583.0</ele>
  <time>2026-08-28T17:56:34Z</time>
  <course>238.98</course>
  <speed>0.94</speed>
  <fix>3d</fix>
</trkpt>
<trkpt lat="40.07132" lon="-105.2299038">
  <ele>1583.15</ele>
  <time>2026-08-28T17:56:34Z</time>
  <course>239.82</course>
  <speed>0.914166286842826</speed>
  <fix>3d</fix>
</trkpt>
<trkpt lat="40.0713208" lon="-105.2299018">
  <ele>1583.0</ele>
  <time>2026-08-28T17:56:34Z</time>
  <course>238.98</course>
  <speed>0.94</speed>
  <fix>3d</fix>
</trkpt>
<trkpt lat="40.0713195" lon="-105.229905">
  <ele>1583.15</ele>
  <time>2026-08-28T17:56:34Z</time>
  <course>239.73</course>
  <speed>0.914166286842826</speed>
  <fix>3d</fix>
</trkpt>
<trkpt lat="40.0713199" lon="-105.2299037">
  <ele>1583.0</ele>
  <time>2026-08-28T17:56:34Z</time>
  <course>238.94</course>
  <speed>0.94</speed>
  <fix>3d</fix>
</trkpt>
<trkpt lat="40.0713191" lon="-105.2299059">
  <ele>1583.15</ele>
  <time>2026-08-28T17:56:34Z</time>
  <course>239.68</course>
  <speed>0.914166286842826</speed>
  <fix>3d</fix>
</trkpt>
<trkpt lat="40.0713199" lon="-105.2299037">
  <ele>1583.0</ele>
  <time>2026-08-28T17:56:34Z</time>
  <course>238.94</course>
  <speed>0.94</speed>
  <fix>3d</fix>
</trkpt>
<trkpt lat="40.0713186" lon="-105.2299069">
  <ele>1583.16</ele>
  <time>2026-08-28T17:56:34Z</time>
  <course>239.63</course>
  <speed>0.914166286842826</speed>
  <fix>3d</fix>
</trkpt>
<trkpt lat="40.071319" lon="-105.2299056">
  <ele>1583.0</ele>
  <time>2026-08-28T17:56:34Z</time>
  <course>238.89</course>
  <speed>0.94</speed>
  <fix>3d</fix>
</trkpt>
<trkpt lat="40.0713182" lon="-105.2299078">
  <ele>1583.16</ele>
  <time>2026-08-28T17:56:34Z</time>
  <course>239.6</course>
  <speed>0.914166286842826</speed>
  <fix>3d</fix>
</trkpt>
<trkpt lat="40.071319" lon="-105.2299056">
  <ele>1583.0</ele>
  <time>2026-08-28T17:56:34Z</time>
  <course>238.89</course>
  <speed>0.94</speed>
  <fix>3d</fix>
</trkpt>
<trkpt lat="40.0713178" lon="-105.2299088">
  <ele>1583.16</ele>
  <time>2026-08-28T17:56:34Z</time>
  <course>239.55</course>
  <speed>0.914166286842826</speed>
  <fix>3d</fix>
</trkpt>
<trkpt lat="40.0713182" lon="-105.2299075">
  <ele>1583.0</ele>
  <time>2026-08-28T17:56:34Z</time>
  <course>238.84</course>
  <speed>0.94</speed>
  <fix>3d</fix>
</trkpt>
<trkpt lat="40.0713173" lon="-105.2299097">
  <ele>1583.16</ele>
  <time>2026-08-28T17:56:34Z</time>
  <course>239.55</course>
  <speed>0.914166286842826</speed>
  <fix>3d</fix>
</trkpt>
<trkpt lat="40.0713182" lon="-105.2299075">
  <ele>1583.0</ele>
  <time>2026-08-28T17:56:34Z</time>
  <course>238.84</course>
  <speed>0.94</speed>
  <fix>3d</fix>
</trkpt>
<trkpt lat="40.0713169" lon="-105.2299107">
  <ele>1583.16</ele>
  <time>2026-08-28T17:56:34Z</time>
  <course>239.54</course>
  <speed>0.914166286842826</speed>
  <fix>3d</fix>
</trkpt>
<trkpt lat="40.0713173" lon="-105.2299094">
  <ele>1583.0</ele>
  <time>2026-08-28T17:56:34Z</time>
  <course>238.79</course>
  <speed>0.94</speed>
  <fix>3d</fix>
</trkpt>
<trkpt lat="40.0713164" lon="-105.2299117">
  <ele>1583.16</ele>
  <time>2026-08-28T17:56:34Z</time>
  <course>239.49</course>
  <speed>0.914166286842826</speed>
  <fix>3d</fix>
</trkpt>
<trkpt lat="40.0713173" lon="-105.2299094">
  <ele>1583.0</ele>
  <time>2026-08-28T17:56:34Z</time>
  <course>238.79</course>
  <speed>0.94</speed>
  <fix>3d</fix>
</trkpt>
<trkpt lat="40.071316" lon="-105.2299126">
  <ele>1583.15</ele>
  <time>2026-08-28T17:56:34Z</time>
  <course>239.44</course>
  <speed>0.914166286842826</speed>
  <fix>3d</fix>
</trkpt>
<trkpt lat="40.0713164" lon="-105.2299113">
  <ele>1583.0</ele>
  <time>2026-08-28T17:56:34Z</time>
  <course>238.75</course>
  <speed>0.94</speed>
  <fix>3d</fix>
</trkpt>
<trkpt lat="40.0713156" lon="-105.2299135">
  <ele>1583.15</ele>
  <time>2026-08-28T17:56:34Z</time>
  <course>239.4</course>
  <speed>0.914166286842826</speed>
  <fix>3d</fix>
</trkpt>
<trkpt lat="40.0713164" lon="-105.2299113">
  <ele>1583.0</ele>
  <time>2026-08-28T17:56:34Z</time>
  <course>238.75</course>
  <speed>0.94</speed>
  <fix>3d</fix>
</trkpt>
<trkpt lat="40.0713151" lon="-105.2299145">
  <ele>1583.15</ele>
  <time>2026-08-28T17:56:34Z</time>
  <course>239.35</course>
  <speed>0.914166286842826</speed>
  <fix>3d</fix>
</trkpt>
<trkpt lat="40.0713155" lon="-105.2299131">
  <ele>1583.0</ele>
  <time>2026-08-28T17:56:34Z</time>
  <course>238.69</course>
  <speed>0.94</speed>
  <fix>3d</fix>
</trkpt>
<trkpt lat="40.0713147" lon="-105.2299154">
  <ele>1583.14</ele>
  <time>2026-08-28T17:56:34Z</time>
  <course>239.3</course>
  <speed>0.914166286842826</speed>
  <fix>3d</fix>
</trkpt>
<trkpt lat="40.0713155" lon="-105.2299131">
  <ele>1583.0</ele>
  <time>2026-08-28T17:56:34Z</time>
  <course>238.69</course>
  <speed>0.94</speed>
  <fix>3d</fix>
</trkpt>
<trkpt lat="40.0713143" lon="-105.2299162">
  <ele>1583.14</ele>
  <time>2026-08-28T17:56:34Z</time>
  <course>239.26</course>
  <speed>0.914166286842826</speed>
  <fix>3d</fix>
</trkpt>
<trkpt lat="40.0713146" lon="-105.229915">
  <ele>1583.0</ele>
  <time>2026-08-28T17:56:34Z</time>
  <course>238.63</course>
  <speed>0.94</speed>
  <fix>3d</fix>
</trkpt>
<trkpt lat="40.0713139" lon="-105.2299171">
  <ele>1583.14</ele>
  <time>2026-08-28T17:56:34Z</time>
  <course>239.26</course>
  <speed>0.914166286842826</speed>
  <fix>3d</fix>
</trkpt>
<trkpt lat="40.0713146" lon="-105.229915">
  <ele>1583.0</ele>
  <time>2026-08-28T17:56:34Z</time>
  <course>238.63</course>
  <speed>0.94</speed>
  <fix>3d</fix>
</trkpt>
<trkpt lat="40.0713134" lon="-105.2299181">
  <ele>1583.14</ele>
  <time>2026-08-28T17:56:34Z</time>
  <course>239.23</course>
  <speed>0.914166286842826</speed>
  <fix>3d</fix>
</trkpt>
<trkpt lat="40.0713138" lon="-105.2299169">
  <ele>1583.0</ele>
  <time>2026-08-28T17:56:34Z</time>
  <course>238.58</course>
  <speed>0.94</speed>
  <fix>3d</fix>
</trkpt>
<trkpt lat="40.071313" lon="-105.229919">
  <ele>1583.14</ele>
  <time>2026-08-28T17:56:34Z</time>
  <course>239.21</course>
  <speed>0.914166286842826</speed>
  <fix>3d</fix>
</trkpt>
<trkpt lat="40.0713138" lon="-105.2299169">
  <ele>1583.0</ele>
  <time>2026-08-28T17:56:34Z</time>
  <course>238.58</course>
  <speed>0.94</speed>
  <fix>3d</fix>
</trkpt>
<trkpt lat="40.0713125" lon="-105.2299199">
  <ele>1583.14</ele>
  <time>2026-08-28T17:56:34Z</time>
  <course>239.2</course>
  <speed>0.914166286842826</speed>
  <fix>3d</fix>
</trkpt>
<trkpt lat="40.0713129" lon="-105.2299188">
  <ele>1583.0</ele>
  <time>2026-08-28T17:56:34Z</time>
  <course>238.52</course>
  <speed>0.94</speed>
  <fix>3d</fix>
</trkpt>
<trkpt lat="40.0713121" lon="-105.2299209">
  <ele>1583.14</ele>
  <time>2026-08-28T17:56:34Z</time>
  <course>239.15</course>
  <speed>0.914166286842826</speed>
  <fix>3d</fix>
</trkpt>
<trkpt lat="40.0713129" lon="-105.2299188">
  <ele>1583.0</ele>
  <time>2026-08-28T17:56:34Z</time>
  <course>238.52</course>
  <speed>0.94</speed>
  <fix>3d</fix>
</trkpt>
<trkpt lat="40.0713117" lon="-105.2299218">
  <ele>1583.14</ele>
  <time>2026-08-28T17:56:34Z</time>
  <course>239.12</course>
  <speed>0.914166286842826</speed>
  <fix>3d</fix>
</trkpt>
<trkpt lat="40.071312" lon="-105.2299207">
  <ele>1583.0</ele>
  <time>2026-08-28T17:56:34Z</time>
  <course>238.47</course>
  <speed>0.94</speed>
  <fix>3d</fix>
</trkpt>
<trkpt lat="40.0713112" lon="-105.2299228">
  <ele>1583.14</ele>
  <time>2026-08-28T17:56:34Z</time>
  <course>239.11</course>
  <speed>0.9278469701410895</speed>
  <fix>3d</fix>
</trkpt>
<trkpt lat="40.071312" lon="-105.2299207">
  <ele>1583.0</ele>
  <time>2026-08-28T17:56:34Z</time>
  <course>238.47</course>
  <speed>0.94</speed>
  <fix>3d</fix>
</trkpt>
<trkpt lat="40.0713108" lon="-105.2299237">
  <ele>1583.14</ele>
  <time>2026-08-28T17:56:34Z</time>
  <course>239.06</course>
  <speed>0.9278469701410895</speed>
  <fix>3d</fix>
</trkpt>
<trkpt lat="40.0713111" lon="-105.2299226">
  <ele>1583.0</ele>
  <time>2026-08-28T17:56:34Z</time>
  <course>238.41</course>
  <speed>0.94</speed>
  <fix>3d</fix>
</trkpt>
<trkpt lat="40.0713102" lon="-105.2299249">
  <ele>1583.14</ele>
  <time>2026-08-28T17:56:34Z</time>
  <course>239.05</course>
  <speed>0.9278469701410895</speed>
  <fix>3d</fix>
</trkpt>
<trkpt lat="40.0713111" lon="-105.2299226">
  <ele>1583.0</ele>
  <time>2026-08-28T17:56:34Z</time>
  <course>238.41</course>
  <speed>0.94</speed>
  <fix>3d</fix>
</trkpt>
<trkpt lat="40.0713098" lon="-105.2299258">
  <ele>1583.14</ele>
  <time>2026-08-28T17:56:34Z</time>
  <course>239.05</course>
  <speed>0.9278469701410895</speed>
  <fix>3d</fix>
</trkpt>
<trkpt lat="40.0713102" lon="-105.2299245">
  <ele>1583.0</ele>
  <time>2026-08-28T17:56:34Z</time>
  <course>238.35</course>
  <speed>0.94</speed>
  <fix>3d</fix>
</trkpt>
<trkpt lat="40.0713093" lon="-105.2299268">
  <ele>1583.15</ele>
  <time>2026-08-28T17:56:34Z</time>
  <course>239.04</course>
  <speed>0.9278469701410895</speed>
  <fix>3d</fix>
</trkpt>
<trkpt lat="40.0713102" lon="-105.2299245">
  <ele>1583.0</ele>
  <time>2026-08-28T17:56:34Z</time>
  <course>238.35</course>
  <speed>0.94</speed>
  <fix>3d</fix>
</trkpt>
<trkpt lat="40.0713089" lon="-105.2299277">
  <ele>1583.15</ele>
  <time>2026-08-28T17:56:34Z</time>
  <course>239.04</course>
  <speed>0.9278469701410895</speed>
  <fix>3d</fix>
</trkpt>
<trkpt lat="40.0713093" lon="-105.2299264">
  <ele>1583.0</ele>
  <time>2026-08-28T17:56:34Z</time>
  <course>238.31</course>
  <speed>0.95</speed>
  <fix>3d</fix>
</trkpt>
<trkpt lat="40.0713084" lon="-105.2299287">
  <ele>1583.15</ele>
  <time>2026-08-28T17:56:34Z</time>
  <course>239.02</course>
  <speed>0.9278469701410895</speed>
  <fix>3d</fix>
</trkpt>
<trkpt lat="40.0713093" lon="-105.2299264">
  <ele>1583.0</ele>
  <time>2026-08-28T17:56:34Z</time>
  <course>238.31</course>
  <speed>0.95</speed>
  <fix>3d</fix>
</trkpt>
<trkpt lat="40.071308" lon="-105.2299297">
  <ele>1583.15</ele>
  <time>2026-08-28T17:56:34Z</time>
  <course>239.01</course>
  <speed>0.9278469701410895</speed>
  <fix>3d</fix>
</trkpt>
<trkpt lat="40.0713084" lon="-105.2299283">
  <ele>1583.0</ele>
  <time>2026-08-28T17:56:34Z</time>
  <course>238.26</course>
  <speed>0.95</speed>
  <fix>3d</fix>
</trkpt>
<trkpt lat="40.0713075" lon="-105.2299306">
  <ele>1583.15</ele>
  <time>2026-08-28T17:56:34Z</time>
  <course>239.01</course>
  <speed>0.9278469701410895</speed>
  <fix>3d</fix>
</trkpt>
<trkpt lat="40.0713084" lon="-105.2299283">
  <ele>1583.0</ele>
  <time>2026-08-28T17:56:34Z</time>
  <course>238.26</course>
  <speed>0.95</speed>
  <fix>3d</fix>
</trkpt>
<trkpt lat="40.0713071" lon="-105.2299316">
  <ele>1583.16</ele>
  <time>2026-08-28T17:56:34Z</time>
  <course>238.99</course>
  <speed>0.9278469701410895</speed>
  <fix>3d</fix>
</trkpt>
<trkpt lat="40.0713075" lon="-105.2299302">
  <ele>1583.0</ele>
  <time>2026-08-28T17:56:34Z</time>
  <course>238.21</course>
  <speed>0.95</speed>
  <fix>3d</fix>
</trkpt>
<trkpt lat="40.0713066" lon="-105.2299325">
  <ele>1583.16</ele>
  <time>2026-08-28T17:56:34Z</time>
  <course>238.96</course>
  <speed>0.9278469701410895</speed>
  <fix>3d</fix>
</trkpt>
<trkpt lat="40.0713075" lon="-105.2299302">
  <ele>1583.0</ele>
  <time>2026-08-28T17:56:34Z</time>
  <course>238.21</course>
  <speed>0.95</speed>
  <fix>3d</fix>
</trkpt>
<trkpt lat="40.0713062" lon="-105.2299334">
  <ele>1583.16</ele>
  <time>2026-08-28T17:56:34Z</time>
  <course>238.96</course>
  <speed>0.9278469701410895</speed>
  <fix>3d</fix>
</trkpt>
<trkpt lat="40.0713066" lon="-105.2299321">
  <ele>1583.0</ele>
  <time>2026-08-28T17:56:34Z</time>
  <course>238.16</course>
  <speed>0.95</speed>
  <fix>3d</fix>
</trkpt>
<trkpt lat="40.0713057" lon="-105.2299344">
  <ele>1583.16</ele>
  <time>2026-08-28T17:56:34Z</time>
  <course>238.95</course>
  <speed>0.9278469701410895</speed>
  <fix>3d</fix>
</trkpt>
<trkpt lat="40.0713066" lon="-105.2299321">
  <ele>1583.0</ele>
  <time>2026-08-28T17:56:34Z</time>
  <course>238.16</course>
  <speed>0.95</speed>
  <fix>3d</fix>
</trkpt>
<trkpt lat="40.0713054" lon="-105.2299351">
  <ele>1583.16</ele>
  <time>2026-08-28T17:56:34Z</time>
  <course>238.95</course>
  <speed>0.9278469701410895</speed>
  <fix>3d</fix>
</trkpt>
<trkpt lat="40.0713057" lon="-105.229934">
  <ele>1583.0</ele>
  <time>2026-08-28T17:56:34Z</time>
  <course>238.12</course>
  <speed>0.95</speed>
  <fix>3d</fix>
</trkpt>
<trkpt lat="40.0713049" lon="-105.2299361">
  <ele>1583.17</ele>
  <time>2026-08-28T17:56:34Z</time>
  <course>238.98</course>
  <speed>0.9329523031752481</speed>
  <fix>3d</fix>
</trkpt>
<trkpt lat="40.0713057" lon="-105.229934">
  <ele>1583.0</ele>
  <time>2026-08-28T17:56:34Z</time>
  <course>238.12</course>
  <speed>0.95</speed>
  <fix>3d</fix>
</trkpt>
<trkpt lat="40.0713044" lon="-105.2299371">
  <ele>1583.17</ele>
  <time>2026-08-28T17:56:34Z</time>
  <course>238.98</course>
  <speed>0.9329523031752481</speed>
  <fix>3d</fix>
</trkpt>
<trkpt lat="40.0713048" lon="-105.2299359">
  <ele>1583.0</ele>
  <time>2026-08-28T17:56:34Z</time>
  <course>238.08</course>
  <speed>0.95</speed>
  <fix>3d</fix>
</trkpt>
<trkpt lat="40.071304" lon="-105.229938">
  <ele>1583.17</ele>
  <time>2026-08-28T17:56:34Z</time>
  <course>238.98</course>
  <speed>0.9329523031752481</speed>
  <fix>3d</fix>
</trkpt>
<trkpt lat="40.0713048" lon="-105.2299359">
  <ele>1583.0</ele>
  <time>2026-08-28T17:56:34Z</time>
  <course>238.08</course>
  <speed>0.95</speed>
  <fix>3d</fix>
</trkpt>
<trkpt lat="40.0713035" lon="-105.229939">
  <ele>1583.17</ele>
  <time>2026-08-28T17:56:34Z</time>
  <course>238.98</course>
  <speed>0.9329523031752481</speed>
  <fix>3d</fix>
</trkpt>
<trkpt lat="40.0713039" lon="-105.2299379">
  <ele>1583.0</ele>
  <time>2026-08-28T17:56:34Z</time>
  <course>238.05</course>
  <speed>0.96</speed>
  <fix>3d</fix>
</trkpt>
<trkpt lat="40.0713031" lon="-105.2299399">
  <ele>1583.17</ele>
  <time>2026-08-28T17:56:34Z</time>
  <course>238.98</course>
  <speed>0.9329523031752481</speed>
  <fix>3d</fix>
</trkpt>
<trkpt lat="40.0713039" lon="-105.2299379">
  <ele>1583.0</ele>
  <time>2026-08-28T17:56:34Z</time>
  <course>238.05</course>
  <speed>0.96</speed>
  <fix>3d</fix>
</trkpt>
<trkpt lat="40.0713026" lon="-105.2299409">
  <ele>1583.17</ele>
  <time>2026-08-28T17:56:34Z</time>
  <course>238.98</course>
  <speed>0.9329523031752481</speed>
  <fix>3d</fix>
</trkpt>
<trkpt lat="40.071303" lon="-105.2299398">
  <ele>1583.0</ele>
  <time>2026-08-28T17:56:34Z</time>
  <course>238.01</course>
  <speed>0.96</speed>
  <fix>3d</fix>
</trkpt>
<trkpt lat="40.0713022" lon="-105.2299419">
  <ele>1583.17</ele>
  <time>2026-08-28T17:56:34Z</time>
  <course>238.97</course>
  <speed>0.9415412895885129</speed>
  <fix>3d</fix>
</trkpt>
<trkpt lat="40.071303" lon="-105.2299398">
  <ele>1583.0</ele>
  <time>2026-08-28T17:56:34Z</time>
  <course>238.01</course>
  <speed>0.96</speed>
  <fix>3d</fix>
</trkpt>
<trkpt lat="40.0713017" lon="-105.2299428">
  <ele>1583.17</ele>
  <time>2026-08-28T17:56:34Z</time>
  <course>238.97</course>
  <speed>0.9415412895885129</speed>
  <fix>3d</fix>
</trkpt>
<trkpt lat="40.071302" lon="-105.2299417">
  <ele>1583.0</ele>
  <time>2026-08-28T17:56:34Z</time>
  <course>237.98</course>
  <speed>0.96</speed>
  <fix>3d</fix>
</trkpt>
<trkpt lat="40.0713012" lon="-105.2299438">
  <ele>1583.17</ele>
  <time>2026-08-28T17:56:34Z</time>
  <course>238.97</course>
  <speed>0.9415412895885129</speed>
  <fix>3d</fix>
</trkpt>
<trkpt lat="40.071302" lon="-105.2299417">
  <ele>1583.0</ele>
  <time>2026-08-28T17:56:34Z</time>
  <course>237.98</course>
  <speed>0.96</speed>
  <fix>3d</fix>
</trkpt>
<trkpt lat="40.0713007" lon="-105.229945">
  <ele>1583.17</ele>
  <time>2026-08-28T17:56:34Z</time>
  <course>238.96</course>
  <speed>0.9415412895885129</speed>
  <fix>3d</fix>
</trkpt>
<trkpt lat="40.0713011" lon="-105.2299436">
  <ele>1583.0</ele>
  <time>2026-08-28T17:56:34Z</time>
  <course>237.95</course>
  <speed>0.96</speed>
  <fix>3d</fix>
</trkpt>
<trkpt lat="40.0713002" lon="-105.2299459">
  <ele>1583.18</ele>
  <time>2026-08-28T17:56:34Z</time>
  <course>238.97</course>
  <speed>0.9415412895885129</speed>
  <fix>3d</fix>
</trkpt>
<trkpt lat="40.0713011" lon="-105.2299436">
  <ele>1583.0</ele>
  <time>2026-08-28T17:56:34Z</time>
  <course>237.95</course>
  <speed>0.96</speed>
  <fix>3d</fix>
</trkpt>
<trkpt lat="40.0712997" lon="-105.2299469">
  <ele>1583.18</ele>
  <time>2026-08-28T17:56:34Z</time>
  <course>239.02</course>
  <speed>0.9415412895885129</speed>
  <fix>3d</fix>
</trkpt>
<trkpt lat="40.0713002" lon="-105.2299455">
  <ele>1583.0</ele>
  <time>2026-08-28T17:56:34Z</time>
  <course>237.93</course>
  <speed>0.96</speed>
  <fix>3d</fix>
</trkpt>
<trkpt lat="40.0712993" lon="-105.2299479">
  <ele>1583.17</ele>
  <time>2026-08-28T17:56:34Z</time>
  <course>239.06</course>
  <speed>0.9415412895885129</speed>
  <fix>3d</fix>
</trkpt>
<trkpt lat="40.0713002" lon="-105.2299455">
  <ele>1583.0</ele>
  <time>2026-08-28T17:56:34Z</time>
  <course>237.93</course>
  <speed>0.96</speed>
  <fix>3d</fix>
</trkpt>
<trkpt lat="40.0712988" lon="-105.2299488">
  <ele>1583.17</ele>
  <time>2026-08-28T17:56:34Z</time>
  <course>239.11</course>
  <speed>0.9466784036831093</speed>
  <fix>3d</fix>
</trkpt>
<trkpt lat="40.0712993" lon="-105.2299475">
  <ele>1583.0</ele>
  <time>2026-08-28T17:56:34Z</time>
  <course>237.91</course>
  <speed>0.97</speed>
  <fix>3d</fix>
</trkpt>
<trkpt lat="40.0712984" lon="-105.2299498">
  <ele>1583.17</ele>
  <time>2026-08-28T17:56:34Z</time>
  <course>239.15</course>
  <speed>0.9466784036831093</speed>
  <fix>3d</fix>
</trkpt>
<trkpt lat="40.0712993" lon="-105.2299475">
  <ele>1583.0</ele>
  <time>2026-08-28T17:56:34Z</time>
  <course>237.91</course>
  <speed>0.97</speed>
  <fix>3d</fix>
</trkpt>
<trkpt lat="40.0712979" lon="-105.2299508">
  <ele>1583.17</ele>
  <time>2026-08-28T17:56:34Z</time>
  <course>239.15</course>
  <speed>0.9466784036831093</speed>
  <fix>3d</fix>
</trkpt>
<trkpt lat="40.0712983" lon="-105.2299494">
  <ele>1583.0</ele>
  <time>2026-08-28T17:56:34Z</time>
  <course>237.91</course>
  <speed>0.97</speed>
  <fix>3d</fix>
</trkpt>
<trkpt lat="40.0712974" lon="-105.2299517">
  <ele>1583.16</ele>
  <time>2026-08-28T17:56:34Z</time>
  <course>239.15</course>
  <speed>0.9466784036831093</speed>
  <fix>3d</fix>
</trkpt>
<trkpt lat="40.0712983" lon="-105.2299494">
  <ele>1583.0</ele>
  <time>2026-08-28T17:56:34Z</time>
  <course>237.91</course>
  <speed>0.97</speed>
  <fix>3d</fix>
</trkpt>
<trkpt lat="40.071297" lon="-105.2299527">
  <ele>1583.16</ele>
  <time>2026-08-28T17:56:34Z</time>
  <course>239.18</course>
  <speed>0.9466784036831093</speed>
  <fix>3d</fix>
</trkpt>
<trkpt lat="40.0712974" lon="-105.2299513">
  <ele>1583.0</ele>
  <time>2026-08-28T17:56:34Z</time>
  <course>237.9</course>
  <speed>0.97</speed>
  <fix>3d</fix>
</trkpt>
<trkpt lat="40.0712965" lon="-105.2299536">
  <ele>1583.16</ele>
  <time>2026-08-28T17:56:34Z</time>
  <course>239.23</course>
  <speed>0.9466784036831093</speed>
  <fix>3d</fix>
</trkpt>
<trkpt lat="40.0712974" lon="-105.2299513">
  <ele>1583.0</ele>
  <time>2026-08-28T17:56:34Z</time>
  <course>237.9</course>
  <speed>0.97</speed>
  <fix>3d</fix>
</trkpt>
<trkpt lat="40.071296" lon="-105.2299546">
  <ele>1583.16</ele>
  <time>2026-08-28T17:56:34Z</time>
  <course>239.24</course>
  <speed>0.9466784036831093</speed>
  <fix>3d</fix>
</trkpt>
<trkpt lat="40.0712965" lon="-105.2299532">
  <ele>1583.0</ele>
  <time>2026-08-28T17:56:34Z</time>
  <course>237.9</course>
  <speed>0.97</speed>
  <fix>3d</fix>
</trkpt>
<trkpt lat="40.0712957" lon="-105.2299554">
  <ele>1583.16</ele>
  <time>2026-08-28T17:56:34Z</time>
  <course>239.24</course>
  <speed>0.9466784036831093</speed>
  <fix>3d</fix>
</trkpt>
<trkpt lat="40.0712965" lon="-105.2299532">
  <ele>1583.0</ele>
  <time>2026-08-28T17:56:34Z</time>
  <course>237.9</course>
  <speed>0.97</speed>
  <fix>3d</fix>
</trkpt>
<trkpt lat="40.0712952" lon="-105.2299563">
  <ele>1583.16</ele>
  <time>2026-08-28T17:56:34Z</time>
  <course>239.23</course>
  <speed>0.95524865872714</speed>
  <fix>3d</fix>
</trkpt>
<trkpt lat="40.0712956" lon="-105.2299552">
  <ele>1583.0</ele>
  <time>2026-08-28T17:56:34Z</time>
  <course>237.9</course>
  <speed>0.97</speed>
  <fix>3d</fix>
</trkpt>
<trkpt lat="40.0712947" lon="-105.2299573">
  <ele>1583.16</ele>
  <time>2026-08-28T17:56:34Z</time>
  <course>239.24</course>
  <speed>0.95524865872714</speed>
  <fix>3d</fix>
</trkpt>
<trkpt lat="40.0712956" lon="-105.2299552">
  <ele>1583.0</ele>
  <time>2026-08-28T17:56:34Z</time>
  <course>237.9</course>
  <speed>0.97</speed>
  <fix>3d</fix>
</trkpt>
<trkpt lat="40.0712943" lon="-105.2299583">
  <ele>1583.16</ele>
  <time>2026-08-28T17:56:34Z</time>
  <course>239.29</course>
  <speed>0.95524865872714</speed>
  <fix>3d</fix>
</trkpt>
<trkpt lat="40.0712946" lon="-105.2299572">
  <ele>1583.0</ele>
  <time>2026-08-28T17:56:34Z</time>
  <course>237.9</course>
  <speed>0.97</speed>
  <fix>3d</fix>
</trkpt>
<trkpt lat="40.0712938" lon="-105.2299593">
  <ele>1583.16</ele>
  <time>2026-08-28T17:56:34Z</time>
  <course>239.29</course>
  <speed>0.95524865872714</speed>
  <fix>3d</fix>
</trkpt>
<trkpt lat="40.0712946" lon="-105.2299572">
  <ele>1583.0</ele>
  <time>2026-08-28T17:56:34Z</time>
  <course>237.9</course>
  <speed>0.97</speed>
  <fix>3d</fix>
</trkpt>
<trkpt lat="40.0712933" lon="-105.2299602">
  <ele>1583.16</ele>
  <time>2026-08-28T17:56:34Z</time>
  <course>239.29</course>
  <speed>0.95524865872714</speed>
  <fix>3d</fix>
</trkpt>
<trkpt lat="40.0712937" lon="-105.2299591">
  <ele>1583.0</ele>
  <time>2026-08-28T17:56:34Z</time>
  <course>237.91</course>
  <speed>0.98</speed>
  <fix>3d</fix>
</trkpt>
<trkpt lat="40.0712929" lon="-105.2299612">
  <ele>1583.16</ele>
  <time>2026-08-28T17:56:34Z</time>
  <course>239.29</course>
  <speed>0.95524865872714</speed>
  <fix>3d</fix>
</trkpt>
<trkpt lat="40.0712937" lon="-105.2299591">
  <ele>1583.0</ele>
  <time>2026-08-28T17:56:34Z</time>
  <course>237.91</course>
  <speed>0.98</speed>
  <fix>3d</fix>
</trkpt>
<trkpt lat="40.0712924" lon="-105.2299622">
  <ele>1583.16</ele>
  <time>2026-08-28T17:56:34Z</time>
  <course>239.29</course>
  <speed>0.95524865872714</speed>
  <fix>3d</fix>
</trkpt>
<trkpt lat="40.0712927" lon="-105.2299611">
  <ele>1583.0</ele>
  <time>2026-08-28T17:56:34Z</time>
  <course>237.91</course>
  <speed>0.98</speed>
  <fix>3d</fix>
</trkpt>
<trkpt lat="40.0712919" lon="-105.2299632">
  <ele>1583.16</ele>
  <time>2026-08-28T17:56:34Z</time>
  <course>239.29</course>
  <speed>0.95524865872714</speed>
  <fix>3d</fix>
</trkpt>
<trkpt lat="40.0712927" lon="-105.2299611">
  <ele>1583.0</ele>
  <time>2026-08-28T17:56:34Z</time>
  <course>237.91</course>
  <speed>0.98</speed>
  <fix>3d</fix>
</trkpt>
<trkpt lat="40.0712914" lon="-105.2299642">
  <ele>1583.15</ele>
  <time>2026-08-28T17:56:34Z</time>
  <course>239.29</course>
  <speed>0.95524865872714</speed>
  <fix>3d</fix>
</trkpt>
<trkpt lat="40.0712918" lon="-105.229963">
  <ele>1583.0</ele>
  <time>2026-08-28T17:56:34Z</time>
  <course>237.91</course>
  <speed>0.98</speed>
  <fix>3d</fix>
</trkpt>
<trkpt lat="40.0712909" lon="-105.2299654">
  <ele>1583.15</ele>
  <time>2026-08-28T17:56:34Z</time>
  <course>239.29</course>
  <speed>0.95524865872714</speed>
  <fix>3d</fix>
</trkpt>
<trkpt lat="40.0712918" lon="-105.229963">
  <ele>1583.0</ele>
  <time>2026-08-28T17:56:34Z</time>
  <course>237.91</course>
  <speed>0.98</speed>
  <fix>3d</fix>
</trkpt>
<trkpt lat="40.0712904" lon="-105.2299663">
  <ele>1583.15</ele>
  <time>2026-08-28T17:56:34Z</time>
  <course>239.31</course>
  <speed>0.95524865872714</speed>
  <fix>3d</fix>
</trkpt>
<trkpt lat="40.0712909" lon="-105.2299649">
  <ele>1583.0</ele>
  <time>2026-08-28T17:56:34Z</time>
  <course>237.92</course>
  <speed>0.98</speed>
  <fix>3d</fix>
</trkpt>
<trkpt lat="40.0712899" lon="-105.2299673">
  <ele>1583.16</ele>
  <time>2026-08-28T17:56:34Z</time>
  <course>239.33</course>
  <speed>0.95524865872714</speed>
  <fix>3d</fix>
</trkpt>
<trkpt lat="40.0712909" lon="-105.2299649">
  <ele>1583.0</ele>
  <time>2026-08-28T17:56:34Z</time>
  <course>237.92</course>
  <speed>0.98</speed>
  <fix>3d</fix>
</trkpt>
<trkpt lat="40.0712895" lon="-105.2299683">
  <ele>1583.16</ele>
  <time>2026-08-28T17:56:34Z</time>
  <course>239.34</course>
  <speed>0.9638464608017192</speed>
  <fix>3d</fix>
</trkpt>
<trkpt lat="40.07129" lon="-105.2299669">
  <ele>1583.0</ele>
  <time>2026-08-28T17:56:34Z</time>
  <course>237.92</course>
  <speed>0.98</speed>
  <fix>3d</fix>
</trkpt>
<trkpt lat="40.071289" lon="-105.2299693">
  <ele>1583.16</ele>
  <time>2026-08-28T17:56:34Z</time>
  <course>239.37</course>
  <speed>0.9638464608017192</speed>
  <fix>3d</fix>
</trkpt>
<trkpt lat="40.07129" lon="-105.2299669">
  <ele>1583.0</ele>
  <time>2026-08-28T17:56:34Z</time>
  <course>237.92</course>
  <speed>0.98</speed>
  <fix>3d</fix>
</trkpt>
<trkpt lat="40.0712885" lon="-105.2299703">
  <ele>1583.16</ele>
  <time>2026-08-28T17:56:34Z</time>
  <course>239.39</course>
  <speed>0.9638464608017192</speed>
  <fix>3d</fix>
</trkpt>
<trkpt lat="40.071289" lon="-105.2299688">
  <ele>1583.0</ele>
  <time>2026-08-28T17:56:34Z</time>
  <course>237.93</course>
  <speed>0.98</speed>
  <fix>3d</fix>
</trkpt>
<trkpt lat="40.0712881" lon="-105.2299713">
  <ele>1583.16</ele>
  <time>2026-08-28T17:56:34Z</time>
  <course>239.41</course>
  <speed>0.9638464608017192</speed>
  <fix>3d</fix>
</trkpt>
<trkpt lat="40.071289" lon="-105.2299688">
  <ele>1583.0</ele>
  <time>2026-08-28T17:56:34Z</time>
  <course>237.93</course>
  <speed>0.98</speed>
  <fix>3d</fix>
</trkpt>
<trkpt lat="40.0712876" lon="-105.2299722">
  <ele>1583.16</ele>
  <time>2026-08-28T17:56:34Z</time>
  <course>239.46</course>
  <speed>0.9638464608017192</speed>
  <fix>3d</fix>
</trkpt>
<trkpt lat="40.071288" lon="-105.2299709">
  <ele>1583.0</ele>
  <time>2026-08-28T17:56:34Z</time>
  <course>237.95</course>
  <speed>0.98</speed>
  <fix>3d</fix>
</trkpt>
<trkpt lat="40.0712871" lon="-105.2299732">
  <ele>1583.16</ele>
  <time>2026-08-28T17:56:34Z</time>
  <course>239.48</course>
  <speed>0.9638464608017192</speed>
  <fix>3d</fix>
</trkpt>
<trkpt lat="40.071288" lon="-105.2299709">
  <ele>1583.0</ele>
  <time>2026-08-28T17:56:34Z</time>
  <course>237.95</course>
  <speed>0.98</speed>
  <fix>3d</fix>
</trkpt>
<trkpt lat="40.0712867" lon="-105.2299742">
  <ele>1583.16</ele>
  <time>2026-08-28T17:56:34Z</time>
  <course>239.53</course>
  <speed>0.9638464608017192</speed>
  <fix>3d</fix>
</trkpt>
<trkpt lat="40.0712871" lon="-105.2299728">
  <ele>1583.0</ele>
  <time>2026-08-28T17:56:34Z</time>
  <course>237.97</course>
  <speed>0.98</speed>
  <fix>3d</fix>
</trkpt>
<trkpt lat="40.0712862" lon="-105.2299752">
  <ele>1583.16</ele>
  <time>2026-08-28T17:56:34Z</time>
  <course>239.58</course>
  <speed>0.9638464608017192</speed>
  <fix>3d</fix>
</trkpt>
<trkpt lat="40.0712871" lon="-105.2299728">
  <ele>1583.0</ele>
  <time>2026-08-28T17:56:34Z</time>
  <course>237.97</course>
  <speed>0.98</speed>
  <fix>3d</fix>
</trkpt>
<trkpt lat="40.0712858" lon="-105.229976">
  <ele>1583.16</ele>
  <time>2026-08-28T17:56:34Z</time>
  <course>239.62</course>
  <speed>0.9638464608017192</speed>
  <fix>3d</fix>
</trkpt>
<trkpt lat="40.0712862" lon="-105.2299748">
  <ele>1583.0</ele>
  <time>2026-08-28T17:56:34Z</time>
  <course>238.0</course>
  <speed>0.99</speed>
  <fix>3d</fix>
</trkpt>
<trkpt lat="40.0712853" lon="-105.2299769">
  <ele>1583.16</ele>
  <time>2026-08-28T17:56:34Z</time>
  <course>239.64</course>
  <speed>0.9638464608017192</speed>
  <fix>3d</fix>
</trkpt>
<trkpt lat="40.0712862" lon="-105.2299748">
  <ele>1583.0</ele>
  <time>2026-08-28T17:56:34Z</time>
  <course>238.0</course>
  <speed>0.99</speed>
  <fix>3d</fix>
</trkpt>
<trkpt lat="40.0712849" lon="-105.2299779">
  <ele>1583.16</ele>
  <time>2026-08-28T17:56:34Z</time>
  <course>239.66</course>
  <speed>0.9638464608017192</speed>
  <fix>3d</fix>
</trkpt>
<trkpt lat="40.0712852" lon="-105.2299768">
  <ele>1583.0</ele>
  <time>2026-08-28T17:56:34Z</time>
  <course>238.03</course>
  <speed>0.99</speed>
  <fix>3d</fix>
</trkpt>
<trkpt lat="40.0712844" lon="-105.2299789">
  <ele>1583.16</ele>
  <time>2026-08-28T17:56:34Z</time>
  <course>239.68</course>
  <speed>0.9638464608017192</speed>
  <fix>3d</fix>
</trkpt>
<trkpt lat="40.0712852" lon="-105.2299768">
  <ele>1583.0</ele>
  <time>2026-08-28T17:56:34Z</time>
  <course>238.03</course>
  <speed>0.99</speed>
  <fix>3d</fix>
</trkpt>
<trkpt lat="40.0712839" lon="-105.2299799">
  <ele>1583.16</ele>
  <time>2026-08-28T17:56:34Z</time>
  <course>239.7</course>
  <speed>0.9638464608017192</speed>
  <fix>3d</fix>
</trkpt>
<trkpt lat="40.0712843" lon="-105.2299788">
  <ele>1583.0</ele>
  <time>2026-08-28T17:56:34Z</time>
  <course>238.07</course>
  <speed>0.99</speed>
  <fix>3d</fix>
</trkpt>
<trkpt lat="40.0712834" lon="-105.2299809">
  <ele>1583.17</ele>
  <time>2026-08-28T17:56:34Z</time>
  <course>239.74</course>
  <speed>0.9638464608017192</speed>
  <fix>3d</fix>
</trkpt>
<trkpt lat="40.0712843" lon="-105.2299788">
  <ele>1583.0</ele>
  <time>2026-08-28T17:56:34Z</time>
  <course>238.07</course>
  <speed>0.99</speed>
  <fix>3d</fix>
</trkpt>
<trkpt lat="40.071283" lon="-105.2299819">
  <ele>1583.17</ele>
  <time>2026-08-28T17:56:34Z</time>
  <course>239.79</course>
  <speed>0.9638464608017192</speed>
  <fix>3d</fix>
</trkpt>
<trkpt lat="40.0712834" lon="-105.2299807">
  <ele>1583.0</ele>
  <time>2026-08-28T17:56:34Z</time>
  <course>238.1</course>
  <speed>0.99</speed>
  <fix>3d</fix>
</trkpt>
<trkpt lat="40.0712825" lon="-105.2299829">
  <ele>1583.16</ele>
  <time>2026-08-28T17:56:34Z</time>
  <course>239.82</course>
  <speed>0.9638464608017192</speed>
  <fix>3d</fix>
</trkpt>
<trkpt lat="40.0712834" lon="-105.2299807">
  <ele>1583.0</ele>
  <time>2026-08-28T17:56:34Z</time>
  <course>238.1</course>
  <speed>0.99</speed>
  <fix>3d</fix>
</trkpt>
<trkpt lat="40.071282" lon="-105.2299839">
  <ele>1583.16</ele>
  <time>2026-08-28T17:56:34Z</time>
  <course>239.85</course>
  <speed>0.9638464608017192</speed>
  <fix>3d</fix>
</trkpt>
<trkpt lat="40.0712824" lon="-105.2299826">
  <ele>1583.0</ele>
  <time>2026-08-28T17:56:34Z</time>
  <course>238.14</course>
  <speed>0.99</speed>
  <fix>3d</fix>
</trkpt>
<trkpt lat="40.0712816" lon="-105.2299849">
  <ele>1583.16</ele>
  <time>2026-08-28T17:56:34Z</time>
  <course>239.88</course>
  <speed>0.9638464608017192</speed>
  <fix>3d</fix>
</trkpt>
<trkpt lat="40.0712824" lon="-105.2299826">
  <ele>1583.0</ele>
  <time>2026-08-28T17:56:34Z</time>
  <course>238.14</course>
  <speed>0.99</speed>
  <fix>3d</fix>
</trkpt>
<trkpt lat="40.071281" lon="-105.2299861">
  <ele>1583.16</ele>
  <time>2026-08-28T17:56:34Z</time>
  <course>239.9</course>
  <speed>0.9638464608017192</speed>
  <fix>3d</fix>
</trkpt>
<trkpt lat="40.0712815" lon="-105.2299846">
  <ele>1583.0</ele>
  <time>2026-08-28T17:56:34Z</time>
  <course>238.18</course>
  <speed>0.99</speed>
  <fix>3d</fix>
</trkpt>
<trkpt lat="40.0712805" lon="-105.2299871">
  <ele>1583.16</ele>
  <time>2026-08-28T17:56:34Z</time>
  <course>239.92</course>
  <speed>0.9638464608017192</speed>
  <fix>3d</fix>
</trkpt>
<trkpt lat="40.0712815" lon="-105.2299846">
  <ele>1583.0</ele>
  <time>2026-08-28T17:56:34Z</time>
  <course>238.18</course>
  <speed>0.99</speed>
  <fix>3d</fix>
</trkpt>
<trkpt lat="40.0712801" lon="-105.2299881">
  <ele>1583.16</ele>
  <time>2026-08-28T17:56:34Z</time>
  <course>239.95</course>
  <speed>0.9638464608017192</speed>
  <fix>3d</fix>
</trkpt>
<trkpt lat="40.0712805" lon="-105.2299867">
  <ele>1583.0</ele>
  <time>2026-08-28T17:56:34Z</time>
  <course>238.22</course>
  <speed>0.99</speed>
  <fix>3d</fix>
</trkpt>
<trkpt lat="40.0712796" lon="-105.2299891">
  <ele>1583.16</ele>
  <time>2026-08-28T17:56:34Z</time>
  <course>239.97</course>
  <speed>0.9724710792614863</speed>
  <fix>3d</fix>
</trkpt>
<trkpt lat="40.0712805" lon="-105.2299867">
  <ele>1583.0</ele>
  <time>2026-08-28T17:56:34Z</time>
  <course>238.22</course>
  <speed>0.99</speed>
  <fix>3d</fix>
</trkpt>
<trkpt lat="40.0712791" lon="-105.2299901">
  <ele>1583.15</ele>
  <time>2026-08-28T17:56:34Z</time>
  <course>239.97</course>
  <speed>0.9724710792614863</speed>
  <fix>3d</fix>
</trkpt>
<trkpt lat="40.0712795" lon="-105.2299886">
  <ele>1583.0</ele>
  <time>2026-08-28T17:56:34Z</time>
  <course>238.25</course>
  <speed>0.99</speed>
  <fix>3d</fix>
</trkpt>
<trkpt lat="40.0712786" lon="-105.2299911">
  <ele>1583.15</ele>
  <time>2026-08-28T17:56:34Z</time>
  <course>239.99</course>
  <speed>0.9724710792614863</speed>
  <fix>3d</fix>
</trkpt>
<trkpt lat="40.0712795" lon="-105.2299886">
  <ele>1583.0</ele>
  <time>2026-08-28T17:56:34Z</time>
  <course>238.25</course>
  <speed>0.99</speed>
  <fix>3d</fix>
</trkpt>
<trkpt lat="40.0712782" lon="-105.229992">
  <ele>1583.15</ele>
  <time>2026-08-28T17:56:34Z</time>
  <course>239.99</course>
  <speed>0.9724710792614863</speed>
  <fix>3d</fix>
</trkpt>
<trkpt lat="40.0712786" lon="-105.2299907">
  <ele>1583.0</ele>
  <time>2026-08-28T17:56:34Z</time>
  <course>238.29</course>
  <speed>0.99</speed>
  <fix>3d</fix>
</trkpt>
<trkpt lat="40.0712777" lon="-105.229993">
  <ele>1583.15</ele>
  <time>2026-08-28T17:56:34Z</time>
  <course>240.01</course>
  <speed>0.9724710792614863</speed>
  <fix>3d</fix>
</trkpt>
<trkpt lat="40.0712786" lon="-105.2299907">
  <ele>1583.0</ele>
  <time>2026-08-28T17:56:34Z</time>
  <course>238.29</course>
  <speed>0.99</speed>
  <fix>3d</fix>
</trkpt>
<trkpt lat="40.0712772" lon="-105.229994">
  <ele>1583.15</ele>
  <time>2026-08-28T17:56:34Z</time>
  <course>240.02</course>
  <speed>0.9724710792614863</speed>
  <fix>3d</fix>
</trkpt>
<trkpt lat="40.0712777" lon="-105.2299927">
  <ele>1583.0</ele>
  <time>2026-08-28T17:56:34Z</time>
  <course>238.32</course>
  <speed>0.99</speed>
  <fix>3d</fix>
</trkpt>
<trkpt lat="40.0712768" lon="-105.229995">
  <ele>1583.15</ele>
  <time>2026-08-28T17:56:34Z</time>
  <course>240.02</course>
  <speed>0.9724710792614863</speed>
  <fix>3d</fix>
</trkpt>
<trkpt lat="40.0712777" lon="-105.2299927">
  <ele>1583.0</ele>
  <time>2026-08-28T17:56:34Z</time>
  <course>238.32</course>
  <speed>0.99</speed>
  <fix>3d</fix>
</trkpt>
<trkpt lat="40.0712763" lon="-105.229996">
  <ele>1583.15</ele>
  <time>2026-08-28T17:56:34Z</time>
  <course>240.04</course>
  <speed>0.9724710792614863</speed>
  <fix>3d</fix>
</trkpt>
<trkpt lat="40.0712768" lon="-105.2299946">
  <ele>1583.0</ele>
  <time>2026-08-28T17:56:34Z</time>
  <course>238.36</course>
  <speed>0.99</speed>
  <fix>3d</fix>
</trkpt>
<trkpt lat="40.0712759" lon="-105.2299968">
  <ele>1583.15</ele>
  <time>2026-08-28T17:56:34Z</time>
  <course>240.05</course>
  <speed>0.9724710792614863</speed>
  <fix>3d</fix>
</trkpt>
<trkpt lat="40.0712768" lon="-105.2299946">
  <ele>1583.0</ele>
  <time>2026-08-28T17:56:34Z</time>
  <course>238.36</course>
  <speed>0.99</speed>
  <fix>3d</fix>
</trkpt>
<trkpt lat="40.0712755" lon="-105.2299978">
  <ele>1583.15</ele>
  <time>2026-08-28T17:56:34Z</time>
  <course>240.04</course>
  <speed>0.9724710792614863</speed>
  <fix>3d</fix>
</trkpt>
<trkpt lat="40.0712758" lon="-105.2299966">
  <ele>1583.0</ele>
  <time>2026-08-28T17:56:34Z</time>
  <course>238.39</course>
  <speed>0.99</speed>
  <fix>3d</fix>
</trkpt>
<trkpt lat="40.071275" lon="-105.2299988">
  <ele>1583.14</ele>
  <time>2026-08-28T17:56:34Z</time>
  <course>240.04</course>
  <speed>0.9724710792614863</speed>
  <fix>3d</fix>
</trkpt>
<trkpt lat="40.0712758" lon="-105.2299966">
  <ele>1583.0</ele>
  <time>2026-08-28T17:56:34Z</time>
  <course>238.39</course>
  <speed>0.99</speed>
  <fix>3d</fix>
</trkpt>
<trkpt lat="40.0712745" lon="-105.2299998">
  <ele>1583.14</ele>
  <time>2026-08-28T17:56:34Z</time>
  <course>240.04</course>
  <speed>0.9724710792614863</speed>
  <fix>3d</fix>
</trkpt>
<trkpt lat="40.0712749" lon="-105.2299985">
  <ele>1583.0</ele>
  <time>2026-08-28T17:56:34Z</time>
  <course>238.43</course>
  <speed>0.99</speed>
  <fix>3d</fix>
</trkpt>
<trkpt lat="40.0712741" lon="-105.2300008">
  <ele>1583.14</ele>
  <time>2026-08-28T17:56:34Z</time>
  <course>240.04</course>
  <speed>0.9724710792614863</speed>
  <fix>3d</fix>
</trkpt>
<trkpt lat="40.0712749" lon="-105.2299985">
  <ele>1583.0</ele>
  <time>2026-08-28T17:56:34Z</time>
  <course>238.43</course>
  <speed>0.99</speed>
  <fix>3d</fix>
</trkpt>
<trkpt lat="40.0712736" lon="-105.2300018">
  <ele>1583.14</ele>
  <time>2026-08-28T17:56:34Z</time>
  <course>240.03</course>
  <speed>0.9724710792614863</speed>
  <fix>3d</fix>
</trkpt>
<trkpt lat="40.071274" lon="-105.2300006">
  <ele>1583.0</ele>
  <time>2026-08-28T17:56:34Z</time>
  <course>238.47</course>
  <speed>0.99</speed>
  <fix>3d</fix>
</trkpt>
<trkpt lat="40.0712731" lon="-105.2300028">
  <ele>1583.14</ele>
  <time>2026-08-28T17:56:34Z</time>
  <course>240.01</course>
  <speed>0.9724710792614863</speed>
  <fix>3d</fix>
</trkpt>
<trkpt lat="40.071274" lon="-105.2300006">
  <ele>1583.0</ele>
  <time>2026-08-28T17:56:34Z</time>
  <course>238.47</course>
  <speed>0.99</speed>
  <fix>3d</fix>
</trkpt>
<trkpt lat="40.0712727" lon="-105.2300038">
  <ele>1583.14</ele>
  <time>2026-08-28T17:56:34Z</time>
  <course>240.01</course>
  <speed>0.9724710792614863</speed>
  <fix>3d</fix>
</trkpt>
<trkpt lat="40.071273" lon="-105.2300025">
  <ele>1583.0</ele>
  <time>2026-08-28T17:56:34Z</time>
  <course>238.5</course>
  <speed>0.99</speed>
  <fix>3d</fix>
</trkpt>
<trkpt lat="40.0712722" lon="-105.2300048">
  <ele>1583.13</ele>
  <time>2026-08-28T17:56:34Z</time>
  <course>239.98</course>
  <speed>0.9724710792614863</speed>
  <fix>3d</fix>
</trkpt>
<trkpt lat="40.071273" lon="-105.2300025">
  <ele>1583.0</ele>
  <time>2026-08-28T17:56:34Z</time>
  <course>238.5</course>
  <speed>0.99</speed>
  <fix>3d</fix>
</trkpt>
<trkpt lat="40.0712717" lon="-105.2300058">
  <ele>1583.13</ele>
  <time>2026-08-28T17:56:34Z</time>
  <course>239.98</course>
  <speed>0.9724710792614863</speed>
  <fix>3d</fix>
</trkpt>
<trkpt lat="40.0712721" lon="-105.2300046">
  <ele>1583.0</ele>
  <time>2026-08-28T17:56:34Z</time>
  <course>238.52</course>
  <speed>0.99</speed>
  <fix>3d</fix>
</trkpt>
<trkpt lat="40.0712711" lon="-105.230007">
  <ele>1583.13</ele>
  <time>2026-08-28T17:56:34Z</time>
  <course>239.98</course>
  <speed>0.9724710792614863</speed>
  <fix>3d</fix>
</trkpt>
<trkpt lat="40.0712721" lon="-105.2300046">
  <ele>1583.0</ele>
  <time>2026-08-28T17:56:34Z</time>
  <course>238.52</course>
  <speed>0.99</speed>
  <fix>3d</fix>
</trkpt>
<trkpt lat="40.0712707" lon="-105.230008">
  <ele>1583.13</ele>
  <time>2026-08-28T17:56:34Z</time>
  <course>239.98</course>
  <speed>0.9724710792614863</speed>
  <fix>3d</fix>
</trkpt>
<trkpt lat="40.0712711" lon="-105.2300066">
  <ele>1583.0</ele>
  <time>2026-08-28T17:56:34Z</time>
  <course>238.53</course>
  <speed>0.99</speed>
  <fix>3d</fix>
</trkpt>
<trkpt lat="40.0712702" lon="-105.230009">
  <ele>1583.13</ele>
  <time>2026-08-28T17:56:34Z</time>
  <course>239.98</course>
  <speed>0.9724710792614863</speed>
  <fix>3d</fix>
</trkpt>
<trkpt lat="40.0712711" lon="-105.2300066">
  <ele>1583.0</ele>
  <time>2026-08-28T17:56:34Z</time>
  <course>238.53</course>
  <speed>0.99</speed>
  <fix>3d</fix>
</trkpt>
<trkpt lat="40.0712697" lon="-105.23001">
  <ele>1583.14</ele>
  <time>2026-08-28T17:56:34Z</time>
  <course>239.98</course>
  <speed>0.9724710792614863</speed>
  <fix>3d</fix>
</trkpt>
<trkpt lat="40.0712702" lon="-105.2300085">
  <ele>1583.0</ele>
  <time>2026-08-28T17:56:34Z</time>
  <course>238.54</course>
  <speed>0.99</speed>
  <fix>3d</fix>
</trkpt>
<trkpt lat="40.0712693" lon="-105.230011">
  <ele>1583.13</ele>
  <time>2026-08-28T17:56:34Z</time>
  <course>239.98</course>
  <speed>0.9724710792614863</speed>
  <fix>3d</fix>
</trkpt>
<trkpt lat="40.0712702" lon="-105.2300085">
  <ele>1583.0</ele>
  <time>2026-08-28T17:56:34Z</time>
  <course>238.54</course>
  <speed>0.99</speed>
  <fix>3d</fix>
</trkpt>
<trkpt lat="40.0712688" lon="-105.230012">
  <ele>1583.13</ele>
  <time>2026-08-28T17:56:34Z</time>
  <course>239.98</course>
  <speed>0.9724710792614863</speed>
  <fix>3d</fix>
</trkpt>
<trkpt lat="40.0712693" lon="-105.2300105">
  <ele>1583.0</ele>
  <time>2026-08-28T17:56:34Z</time>
  <course>238.56</course>
  <speed>0.99</speed>
  <fix>3d</fix>
</trkpt>
<trkpt lat="40.0712683" lon="-105.230013">
  <ele>1583.13</ele>
  <time>2026-08-28T17:56:34Z</time>
  <course>239.98</course>
  <speed>0.9724710792614863</speed>
  <fix>3d</fix>
</trkpt>
<trkpt lat="40.0712693" lon="-105.2300105">
  <ele>1583.0</ele>
  <time>2026-08-28T17:56:34Z</time>
  <course>238.56</course>
  <speed>0.99</speed>
  <fix>3d</fix>
</trkpt>
<trkpt lat="40.0712679" lon="-105.230014">
  <ele>1583.13</ele>
  <time>2026-08-28T17:56:34Z</time>
  <course>239.98</course>
  <speed>0.9724710792614863</speed>
  <fix>3d</fix>
</trkpt>
<trkpt lat="40.0712683" lon="-105.2300126">
  <ele>1583.0</ele>
  <time>2026-08-28T17:56:34Z</time>
  <course>238.57</course>
  <speed>0.99</speed>
  <fix>3d</fix>
</trkpt>
<trkpt lat="40.0712674" lon="-105.230015">
  <ele>1583.13</ele>
  <time>2026-08-28T17:56:34Z</time>
  <course>239.98</course>
  <speed>0.9724710792614863</speed>
  <fix>3d</fix>
</trkpt>
<trkpt lat="40.0712683" lon="-105.2300126">
  <ele>1583.0</ele>
  <time>2026-08-28T17:56:34Z</time>
  <course>238.57</course>
  <speed>0.99</speed>
  <fix>3d</fix>
</trkpt>
<trkpt lat="40.0712669" lon="-105.230016">
  <ele>1583.13</ele>
  <time>2026-08-28T17:56:34Z</time>
  <course>239.98</course>
  <speed>0.9724710792614863</speed>
  <fix>3d</fix>
</trkpt>
<trkpt lat="40.0712674" lon="-105.2300146">
  <ele>1583.0</ele>
  <time>2026-08-28T17:56:34Z</time>
  <course>238.58</course>
  <speed>0.99</speed>
  <fix>3d</fix>
</trkpt>
<trkpt lat="40.0712665" lon="-105.230017">
  <ele>1583.13</ele>
  <time>2026-08-28T17:56:34Z</time>
  <course>239.97</course>
  <speed>0.9724710792614863</speed>
  <fix>3d</fix>
</trkpt>
<trkpt lat="40.0712674" lon="-105.2300146">
  <ele>1583.0</ele>
  <time>2026-08-28T17:56:34Z</time>
  <course>238.58</course>
  <speed>0.99</speed>
  <fix>3d</fix>
</trkpt>
<trkpt lat="40.0712661" lon="-105.2300178">
  <ele>1583.13</ele>
  <time>2026-08-28T17:56:34Z</time>
  <course>239.97</course>
  <speed>0.9724710792614863</speed>
  <fix>3d</fix>
</trkpt>
<trkpt lat="40.0712665" lon="-105.2300166">
  <ele>1583.0</ele>
  <time>2026-08-28T17:56:34Z</time>
  <course>238.58</course>
  <speed>0.99</speed>
  <fix>3d</fix>
</trkpt>
<trkpt lat="40.0712656" lon="-105.2300188">
  <ele>1583.14</ele>
  <time>2026-08-28T17:56:34Z</time>
  <course>239.97</course>
  <speed>0.9724710792614863</speed>
  <fix>3d</fix>
</trkpt>
<trkpt lat="40.0712665" lon="-105.2300166">
  <ele>1583.0</ele>
  <time>2026-08-28T17:56:34Z</time>
  <course>238.58</course>
  <speed>0.99</speed>
  <fix>3d</fix>
</trkpt>
<trkpt lat="40.0712652" lon="-105.2300198">
  <ele>1583.14</ele>
  <time>2026-08-28T17:56:34Z</time>
  <course>239.97</course>
  <speed>0.9724710792614863</speed>
  <fix>3d</fix>
</trkpt>
<trkpt lat="40.0712655" lon="-105.2300185">
  <ele>1583.0</ele>
  <time>2026-08-28T17:56:34Z</time>
  <course>238.59</course>
  <speed>0.99</speed>
  <fix>3d</fix>
</trkpt>
<trkpt lat="40.0712647" lon="-105.2300208">
  <ele>1583.14</ele>
  <time>2026-08-28T17:56:34Z</time>
  <course>239.97</course>
  <speed>0.9724710792614863</speed>
  <fix>3d</fix>
</trkpt>
<trkpt lat="40.0712655" lon="-105.2300185">
  <ele>1583.0</ele>
  <time>2026-08-28T17:56:34Z</time>
  <course>238.59</course>
  <speed>0.99</speed>
  <fix>3d</fix>
</trkpt>
<trkpt lat="40.0712642" lon="-105.2300218">
  <ele>1583.14</ele>
  <time>2026-08-28T17:56:34Z</time>
  <course>239.97</course>
  <speed>0.9724710792614863</speed>
  <fix>3d</fix>
</trkpt>
<trkpt lat="40.0712646" lon="-105.2300205">
  <ele>1583.0</ele>
  <time>2026-08-28T17:56:34Z</time>
  <course>238.6</course>
  <speed>0.99</speed>
  <fix>3d</fix>
</trkpt>
<trkpt lat="40.0712638" lon="-105.2300228">
  <ele>1583.14</ele>
  <time>2026-08-28T17:56:34Z</time>
  <course>239.97</course>
  <speed>0.9724710792614863</speed>
  <fix>3d</fix>
</trkpt>
<trkpt lat="40.0712646" lon="-105.2300205">
  <ele>1583.0</ele>
  <time>2026-08-28T17:56:34Z</time>
  <course>238.6</course>
  <speed>0.99</speed>
  <fix>3d</fix>
</trkpt>
<trkpt lat="40.0712633" lon="-105.2300238">
  <ele>1583.14</ele>
  <time>2026-08-28T17:56:34Z</time>
  <course>239.97</course>
  <speed>0.9724710792614863</speed>
  <fix>3d</fix>
</trkpt>
<trkpt lat="40.0712637" lon="-105.2300226">
  <ele>1583.0</ele>
  <time>2026-08-28T17:56:34Z</time>
  <course>238.61</course>
  <speed>0.99</speed>
  <fix>3d</fix>
</trkpt>
<trkpt lat="40.0712628" lon="-105.2300248">
  <ele>1583.14</ele>
  <time>2026-08-28T17:56:34Z</time>
  <course>239.97</course>
  <speed>0.9724710792614863</speed>
  <fix>3d</fix>
</trkpt>
<trkpt lat="40.0712637" lon="-105.2300226">
  <ele>1583.0</ele>
  <time>2026-08-28T17:56:34Z</time>
  <course>238.61</course>
  <speed>0.99</speed>
  <fix>3d</fix>
</trkpt>
<trkpt lat="40.0712624" lon="-105.2300258">
  <ele>1583.14</ele>
  <time>2026-08-28T17:56:34Z</time>
  <course>239.97</course>
  <speed>0.9724710792614863</speed>
  <fix>3d</fix>
</trkpt>
<trkpt lat="40.0712627" lon="-105.2300245">
  <ele>1583.0</ele>
  <time>2026-08-28T17:56:34Z</time>
  <course>238.61</course>
  <speed>0.99</speed>
  <fix>3d</fix>
</trkpt>
<trkpt lat="40.0712618" lon="-105.230027">
  <ele>1583.14</ele>
  <time>2026-08-28T17:56:34Z</time>
  <course>239.97</course>
  <speed>0.9724710792614863</speed>
  <fix>3d</fix>
</trkpt>
<trkpt lat="40.0712627" lon="-105.2300245">
  <ele>1583.0</ele>
  <time>2026-08-28T17:56:34Z</time>
  <course>238.61</course>
  <speed>0.99</speed>
  <fix>3d</fix>
</trkpt>
<trkpt lat="40.0712613" lon="-105.230028">
  <ele>1583.15</ele>
  <time>2026-08-28T17:56:34Z</time>
  <course>239.97</course>
  <speed>0.9724710792614863</speed>
  <fix>3d</fix>
</trkpt>
<trkpt lat="40.0712618" lon="-105.2300266">
  <ele>1583.0</ele>
  <time>2026-08-28T17:56:34Z</time>
  <course>238.62</course>
  <speed>0.99</speed>
  <fix>3d</fix>
</trkpt>
<trkpt lat="40.0712609" lon="-105.230029">
  <ele>1583.15</ele>
  <time>2026-08-28T17:56:34Z</time>
  <course>239.97</course>
  <speed>0.9724710792614863</speed>
  <fix>3d</fix>
</trkpt>
<trkpt lat="40.0712618" lon="-105.2300266">
  <ele>1583.0</ele>
  <time>2026-08-28T17:56:34Z</time>
  <course>238.62</course>
  <speed>0.99</speed>
  <fix>3d</fix>
</trkpt>
<trkpt lat="40.0712604" lon="-105.23003">
  <ele>1583.15</ele>
  <time>2026-08-28T17:56:34Z</time>
  <course>239.96</course>
  <speed>0.9724710792614863</speed>
  <fix>3d</fix>
</trkpt>
<trkpt lat="40.0712609" lon="-105.2300286">
  <ele>1583.0</ele>
  <time>2026-08-28T17:56:34Z</time>
  <course>238.62</course>
  <speed>0.99</speed>
  <fix>3d</fix>
</trkpt>
<trkpt lat="40.0712599" lon="-105.230031">
  <ele>1583.15</ele>
  <time>2026-08-28T17:56:34Z</time>
  <course>239.95</course>
  <speed>0.9724710792614863</speed>
  <fix>3d</fix>
</trkpt>
<trkpt lat="40.0712609" lon="-105.2300286">
  <ele>1583.0</ele>
  <time>2026-08-28T17:56:34Z</time>
  <course>238.62</course>
  <speed>0.99</speed>
  <fix>3d</fix>
</trkpt>
<trkpt lat="40.0712595" lon="-105.230032">
  <ele>1583.15</ele>
  <time>2026-08-28T17:56:34Z</time>
  <course>239.94</course>
  <speed>0.9724710792614863</speed>
  <fix>3d</fix>
</trkpt>
<trkpt lat="40.0712599" lon="-105.2300306">
  <ele>1583.0</ele>
  <time>2026-08-28T17:56:34Z</time>
  <course>238.63</course>
  <speed>0.99</speed>
  <fix>3d</fix>
</trkpt>
<trkpt lat="40.071259" lon="-105.230033">
  <ele>1583.15</ele>
  <time>2026-08-28T17:56:34Z</time>
  <course>239.89</course>
  <speed>0.9724710792614863</speed>
  <fix>3d</fix>
</trkpt>
<trkpt lat="40.0712599" lon="-105.2300306">
  <ele>1583.0</ele>
  <time>2026-08-28T17:56:34Z</time>
  <course>238.63</course>
  <speed>0.99</speed>
  <fix>3d</fix>
</trkpt>
<trkpt lat="40.0712585" lon="-105.230034">
  <ele>1583.15</ele>
  <time>2026-08-28T17:56:34Z</time>
  <course>239.87</course>
  <speed>0.9724710792614863</speed>
  <fix>3d</fix>
</trkpt>
<trkpt lat="40.071259" lon="-105.2300327">
  <ele>1583.0</ele>
  <time>2026-08-28T17:56:34Z</time>
  <course>238.63</course>
  <speed>0.99</speed>
  <fix>3d</fix>
</trkpt>
<trkpt lat="40.0712581" lon="-105.230035">
  <ele>1583.15</ele>
  <time>2026-08-28T17:56:34Z</time>
  <course>239.85</course>
  <speed>0.9724710792614863</speed>
  <fix>3d</fix>
</trkpt>
<trkpt lat="40.071259" lon="-105.2300327">
  <ele>1583.0</ele>
  <time>2026-08-28T17:56:34Z</time>
  <course>238.63</course>
  <speed>0.99</speed>
  <fix>3d</fix>
</trkpt>
<trkpt lat="40.0712576" lon="-105.230036">
  <ele>1583.15</ele>
  <time>2026-08-28T17:56:34Z</time>
  <course>239.82</course>
  <speed>0.9724710792614863</speed>
  <fix>3d</fix>
</trkpt>
<trkpt lat="40.071258" lon="-105.2300347">
  <ele>1583.0</ele>
  <time>2026-08-28T17:56:34Z</time>
  <course>238.64</course>
  <speed>0.99</speed>
  <fix>3d</fix>
</trkpt>
<trkpt lat="40.0712571" lon="-105.230037">
  <ele>1583.15</ele>
  <time>2026-08-28T17:56:34Z</time>
  <course>239.79</course>
  <speed>0.9724710792614863</speed>
  <fix>3d</fix>
</trkpt>
<trkpt lat="40.071258" lon="-105.2300347">
  <ele>1583.0</ele>
  <time>2026-08-28T17:56:34Z</time>
  <course>238.64</course>
  <speed>0.99</speed>
  <fix>3d</fix>
</trkpt>
<trkpt lat="40.0712567" lon="-105.230038">
  <ele>1583.15</ele>
  <time>2026-08-28T17:56:34Z</time>
  <course>239.78</course>
  <speed>0.9724710792614863</speed>
  <fix>3d</fix>
</trkpt>
<trkpt lat="40.0712571" lon="-105.2300367">
  <ele>1583.0</ele>
  <time>2026-08-28T17:56:34Z</time>
  <course>238.63</course>
  <speed>0.99</speed>
  <fix>3d</fix>
</trkpt>
<trkpt lat="40.0712563" lon="-105.2300388">
  <ele>1583.15</ele>
  <time>2026-08-28T17:56:34Z</time>
  <course>239.74</course>
  <speed>0.9724710792614863</speed>
  <fix>3d</fix>
</trkpt>
<trkpt lat="40.0712571" lon="-105.2300367">
  <ele>1583.0</ele>
  <time>2026-08-28T17:56:34Z</time>
  <course>238.63</course>
  <speed>0.99</speed>
  <fix>3d</fix>
</trkpt>
<trkpt lat="40.0712558" lon="-105.2300398">
  <ele>1583.15</ele>
  <time>2026-08-28T17:56:34Z</time>
  <course>239.73</course>
  <speed>0.9724710792614863</speed>
  <fix>3d</fix>
</trkpt>
<trkpt lat="40.0712562" lon="-105.2300387">
  <ele>1583.0</ele>
  <time>2026-08-28T17:56:34Z</time>
  <course>238.62</course>
  <speed>0.99</speed>
  <fix>3d</fix>
</trkpt>
<trkpt lat="40.0712554" lon="-105.2300408">
  <ele>1583.15</ele>
  <time>2026-08-28T17:56:34Z</time>
  <course>239.68</course>
  <speed>0.9724710792614863</speed>
  <fix>3d</fix>
</trkpt>
<trkpt lat="40.0712562" lon="-105.2300387">
  <ele>1583.0</ele>
  <time>2026-08-28T17:56:34Z</time>
  <course>238.62</course>
  <speed>0.99</speed>
  <fix>3d</fix>
</trkpt>
<trkpt lat="40.0712549" lon="-105.2300418">
  <ele>1583.15</ele>
  <time>2026-08-28T17:56:34Z</time>
  <course>239.63</course>
  <speed>0.9724710792614863</speed>
  <fix>3d</fix>
</trkpt>
<trkpt lat="40.0712553" lon="-105.2300406">
  <ele>1583.0</ele>
  <time>2026-08-28T17:56:34Z</time>
  <course>238.61</course>
  <speed>0.99</speed>
  <fix>3d</fix>
</trkpt>
<trkpt lat="40.0712544" lon="-105.2300428">
  <ele>1583.15</ele>
  <time>2026-08-28T17:56:34Z</time>
  <course>239.58</course>
  <speed>0.9724710792614863</speed>
  <fix>3d</fix>
</trkpt>
<trkpt lat="40.0712553" lon="-105.2300406">
  <ele>1583.0</ele>
  <time>2026-08-28T17:56:34Z</time>
  <course>238.61</course>
  <speed>0.99</speed>
  <fix>3d</fix>
</trkpt>
<trkpt lat="40.071254" lon="-105.2300438">
  <ele>1583.15</ele>
  <time>2026-08-28T17:56:34Z</time>
  <course>239.52</course>
  <speed>0.9724710792614863</speed>
  <fix>3d</fix>
</trkpt>
<trkpt lat="40.0712543" lon="-105.2300427">
  <ele>1583.0</ele>
  <time>2026-08-28T17:56:34Z</time>
  <course>238.6</course>
  <speed>0.99</speed>
  <fix>3d</fix>
</trkpt>
<trkpt lat="40.0712535" lon="-105.2300448">
  <ele>1583.15</ele>
  <time>2026-08-28T17:56:34Z</time>
  <course>239.5</course>
  <speed>0.9724710792614863</speed>
  <fix>3d</fix>
</trkpt>
<trkpt lat="40.0712543" lon="-105.2300427">
  <ele>1583.0</ele>
  <time>2026-08-28T17:56:34Z</time>
  <course>238.6</course>
  <speed>0.99</speed>
  <fix>3d</fix>
</trkpt>
<trkpt lat="40.071253" lon="-105.2300459">
  <ele>1583.16</ele>
  <time>2026-08-28T17:56:34Z</time>
  <course>239.5</course>
  <speed>0.9724710792614863</speed>
  <fix>3d</fix>
</trkpt>
<trkpt lat="40.0712533" lon="-105.2300446">
  <ele>1583.0</ele>
  <time>2026-08-28T17:56:34Z</time>
  <course>238.58</course>
  <speed>0.99</speed>
  <fix>3d</fix>
</trkpt>
<trkpt lat="40.0712525" lon="-105.2300469">
  <ele>1583.15</ele>
  <time>2026-08-28T17:56:34Z</time>
  <course>239.5</course>
  <speed>0.9724710792614863</speed>
  <fix>3d</fix>
</trkpt>
<trkpt lat="40.0712533" lon="-105.2300446">
  <ele>1583.0</ele>
  <time>2026-08-28T17:56:34Z</time>
  <course>238.58</course>
  <speed>0.99</speed>
  <fix>3d</fix>
</trkpt>
<trkpt lat="40.071252" lon="-105.2300481">
  <ele>1583.15</ele>
  <time>2026-08-28T17:56:34Z</time>
  <course>239.5</course>
  <speed>0.9724710792614863</speed>
  <fix>3d</fix>
</trkpt>
<trkpt lat="40.0712524" lon="-105.2300467">
  <ele>1583.0</ele>
  <time>2026-08-28T17:56:34Z</time>
  <course>238.56</course>
  <speed>0.99</speed>
  <fix>3d</fix>
</trkpt>
<trkpt lat="40.0712515" lon="-105.2300491">
  <ele>1583.15</ele>
  <time>2026-08-28T17:56:34Z</time>
  <course>239.5</course>
  <speed>0.9724710792614863</speed>
  <fix>3d</fix>
</trkpt>
<trkpt lat="40.0712524" lon="-105.2300467">
  <ele>1583.0</ele>
  <time>2026-08-28T17:56:34Z</time>
  <course>238.56</course>
  <speed>0.99</speed>
  <fix>3d</fix>
</trkpt>
<trkpt lat="40.071251" lon="-105.2300501">
  <ele>1583.15</ele>
  <time>2026-08-28T17:56:34Z</time>
  <course>239.5</course>
  <speed>0.9724710792614863</speed>
  <fix>3d</fix>
</trkpt>
<trkpt lat="40.0712515" lon="-105.2300487">
  <ele>1583.0</ele>
  <time>2026-08-28T17:56:34Z</time>
  <course>238.53</course>
  <speed>0.99</speed>
  <fix>3d</fix>
</trkpt>
<trkpt lat="40.0712506" lon="-105.2300511">
  <ele>1583.15</ele>
  <time>2026-08-28T17:56:34Z</time>
  <course>239.5</course>
  <speed>0.9724710792614863</speed>
  <fix>3d</fix>
</trkpt>
<trkpt lat="40.0712515" lon="-105.2300487">
  <ele>1583.0</ele>
  <time>2026-08-28T17:56:34Z</time>
  <course>238.53</course>
  <speed>0.99</speed>
  <fix>3d</fix>
</trkpt>
<trkpt lat="40.0712501" lon="-105.2300521">
  <ele>1583.14</ele>
  <time>2026-08-28T17:56:34Z</time>
  <course>239.5</course>
  <speed>0.9724710792614863</speed>
  <fix>3d</fix>
</trkpt>
<trkpt lat="40.0712506" lon="-105.2300506">
  <ele>1583.0</ele>
  <time>2026-08-28T17:56:34Z</time>
  <course>238.52</course>
  <speed>0.99</speed>
  <fix>3d</fix>
</trkpt>
<trkpt lat="40.0712496" lon="-105.2300531">
  <ele>1583.14</ele>
  <time>2026-08-28T17:56:34Z</time>
  <course>239.5</course>
  <speed>0.9724710792614863</speed>
  <fix>3d</fix>
</trkpt>
<trkpt lat="40.0712506" lon="-105.2300506">
  <ele>1583.0</ele>
  <time>2026-08-28T17:56:34Z</time>
  <course>238.52</course>
  <speed>0.99</speed>
  <fix>3d</fix>
</trkpt>
<trkpt lat="40.0712492" lon="-105.2300541">
  <ele>1583.14</ele>
  <time>2026-08-28T17:56:34Z</time>
  <course>239.5</course>
  <speed>0.9724710792614863</speed>
  <fix>3d</fix>
</trkpt>
<trkpt lat="40.0712496" lon="-105.2300526">
  <ele>1583.0</ele>
  <time>2026-08-28T17:56:34Z</time>
  <course>238.5</course>
  <speed>0.99</speed>
  <fix>3d</fix>
</trkpt>
<trkpt lat="40.0712487" lon="-105.2300551">
  <ele>1583.14</ele>
  <time>2026-08-28T17:56:34Z</time>
  <course>239.5</course>
  <speed>0.9724710792614863</speed>
  <fix>3d</fix>
</trkpt>
<trkpt lat="40.0712496" lon="-105.2300526">
  <ele>1583.0</ele>
  <time>2026-08-28T17:56:34Z</time>
  <course>238.5</course>
  <speed>0.99</speed>
  <fix>3d</fix>
</trkpt>
<trkpt lat="40.0712482" lon="-105.2300561">
  <ele>1583.14</ele>
  <time>2026-08-28T17:56:34Z</time>
  <course>239.5</course>
  <speed>0.9724710792614863</speed>
  <fix>3d</fix>
</trkpt>
<trkpt lat="40.0712487" lon="-105.2300547">
  <ele>1583.0</ele>
  <time>2026-08-28T17:56:34Z</time>
  <course>238.48</course>
  <speed>0.99</speed>
  <fix>3d</fix>
</trkpt>
<trkpt lat="40.0712478" lon="-105.2300571">
  <ele>1583.14</ele>
  <time>2026-08-28T17:56:34Z</time>
  <course>239.49</course>
  <speed>0.9724710792614863</speed>
  <fix>3d</fix>
</trkpt>
<trkpt lat="40.0712487" lon="-105.2300547">
  <ele>1583.0</ele>
  <time>2026-08-28T17:56:34Z</time>
  <course>238.48</course>
  <speed>0.99</speed>
  <fix>3d</fix>
</trkpt>
<trkpt lat="40.0712473" lon="-105.230058">
  <ele>1583.14</ele>
  <time>2026-08-28T17:56:34Z</time>
  <course>239.49</course>
  <speed>0.9724710792614863</speed>
  <fix>3d</fix>
</trkpt>
<trkpt lat="40.0712477" lon="-105.2300566">
  <ele>1583.0</ele>
  <time>2026-08-28T17:56:34Z</time>
  <course>238.46</course>
  <speed>0.99</speed>
  <fix>3d</fix>
</trkpt>
<trkpt lat="40.0712469" lon="-105.2300588">
  <ele>1583.14</ele>
  <time>2026-08-28T17:56:34Z</time>
  <course>239.49</course>
  <speed>0.9724710792614863</speed>
  <fix>3d</fix>
</trkpt>
<trkpt lat="40.0712477" lon="-105.2300566">
  <ele>1583.0</ele>
  <time>2026-08-28T17:56:34Z</time>
  <course>238.46</course>
  <speed>0.99</speed>
  <fix>3d</fix>
</trkpt>
<trkpt lat="40.0712465" lon="-105.2300598">
  <ele>1583.14</ele>
  <time>2026-08-28T17:56:34Z</time>
  <course>239.49</course>
  <speed>0.9724710792614863</speed>
  <fix>3d</fix>
</trkpt>
<trkpt lat="40.0712468" lon="-105.2300587">
  <ele>1583.0</ele>
  <time>2026-08-28T17:56:34Z</time>
  <course>238.45</course>
  <speed>0.99</speed>
  <fix>3d</fix>
</trkpt>
<trkpt lat="40.071246" lon="-105.2300608">
  <ele>1583.14</ele>
  <time>2026-08-28T17:56:34Z</time>
  <course>239.49</course>
  <speed>0.9724710792614863</speed>
  <fix>3d</fix>
</trkpt>
<trkpt lat="40.0712468" lon="-105.2300587">
  <ele>1583.0</ele>
  <time>2026-08-28T17:56:34Z</time>
  <course>238.45</course>
  <speed>0.99</speed>
  <fix>3d</fix>
</trkpt>
<trkpt lat="40.0712455" lon="-105.2300618">
  <ele>1583.14</ele>
  <time>2026-08-28T17:56:34Z</time>
  <course>239.49</course>
  <speed>0.9724710792614863</speed>
  <fix>3d</fix>
</trkpt>
<trkpt lat="40.0712458" lon="-105.2300607">
  <ele>1583.0</ele>
  <time>2026-08-28T17:56:34Z</time>
  <course>238.44</course>
  <speed>0.99</speed>
  <fix>3d</fix>
</trkpt>
<trkpt lat="40.071245" lon="-105.2300628">
  <ele>1583.14</ele>
  <time>2026-08-28T17:56:34Z</time>
  <course>239.49</course>
  <speed>0.9724710792614863</speed>
  <fix>3d</fix>
</trkpt>
<trkpt lat="40.0712458" lon="-105.2300607">
  <ele>1583.0</ele>
  <time>2026-08-28T17:56:34Z</time>
  <course>238.44</course>
  <speed>0.99</speed>
  <fix>3d</fix>
</trkpt>
<trkpt lat="40.0712446" lon="-105.2300638">
  <ele>1583.14</ele>
  <time>2026-08-28T17:56:34Z</time>
  <course>239.49</course>
  <speed>0.9724710792614863</speed>
  <fix>3d</fix>
</trkpt>
<trkpt lat="40.0712449" lon="-105.2300626">
  <ele>1583.0</ele>
  <time>2026-08-28T17:56:34Z</time>
  <course>238.43</course>
  <speed>0.99</speed>
  <fix>3d</fix>
</trkpt>
<trkpt lat="40.0712441" lon="-105.2300648">
  <ele>1583.14</ele>
  <time>2026-08-28T17:56:34Z</time>
  <course>239.49</course>
  <speed>0.9724710792614863</speed>
  <fix>3d</fix>
</trkpt>
<trkpt lat="40.0712449" lon="-105.2300626">
  <ele>1583.0</ele>
  <time>2026-08-28T17:56:34Z</time>
  <course>238.43</course>
  <speed>0.99</speed>
  <fix>3d</fix>
</trkpt>
<trkpt lat="40.0712436" lon="-105.2300658">
  <ele>1583.14</ele>
  <time>2026-08-28T17:56:34Z</time>
  <course>239.49</course>
  <speed>0.9724710792614863</speed>
  <fix>3d</fix>
</trkpt>
<trkpt lat="40.071244" lon="-105.2300646">
  <ele>1583.0</ele>
  <time>2026-08-28T17:56:34Z</time>
  <course>238.41</course>
  <speed>0.99</speed>
  <fix>3d</fix>
</trkpt>
<trkpt lat="40.0712431" lon="-105.2300668">
  <ele>1583.14</ele>
  <time>2026-08-28T17:56:34Z</time>
  <course>239.49</course>
  <speed>0.9724710792614863</speed>
  <fix>3d</fix>
</trkpt>
<trkpt lat="40.071244" lon="-105.2300646">
  <ele>1583.0</ele>
  <time>2026-08-28T17:56:34Z</time>
  <course>238.41</course>
  <speed>0.99</speed>
  <fix>3d</fix>
</trkpt>
<trkpt lat="40.0712427" lon="-105.2300678">
  <ele>1583.14</ele>
  <time>2026-08-28T17:56:34Z</time>
  <course>239.49</course>
  <speed>0.9724710792614863</speed>
  <fix>3d</fix>
</trkpt>
<trkpt lat="40.071243" lon="-105.2300665">
  <ele>1583.0</ele>
  <time>2026-08-28T17:56:34Z</time>
  <course>238.4</course>
  <speed>0.99</speed>
  <fix>3d</fix>
</trkpt>
<trkpt lat="40.0712421" lon="-105.230069">
  <ele>1583.15</ele>
  <time>2026-08-28T17:56:34Z</time>
  <course>239.49</course>
  <speed>0.9724710792614863</speed>
  <fix>3d</fix>
</trkpt>
<trkpt lat="40.071243" lon="-105.2300665">
  <ele>1583.0</ele>
  <time>2026-08-28T17:56:34Z</time>
  <course>238.4</course>
  <speed>0.99</speed>
  <fix>3d</fix>
</trkpt>
<trkpt lat="40.0712416" lon="-105.23007">
  <ele>1583.15</ele>
  <time>2026-08-28T17:56:34Z</time>
  <course>239.49</course>
  <speed>0.9724710792614863</speed>
  <fix>3d</fix>
</trkpt>
<trkpt lat="40.0712421" lon="-105.2300686">
  <ele>1583.0</ele>
  <time>2026-08-28T17:56:34Z</time>
  <course>238.4</course>
  <speed>0.99</speed>
  <fix>3d</fix>
</trkpt>
<trkpt lat="40.0712412" lon="-105.230071">
  <ele>1583.15</ele>
  <time>2026-08-28T17:56:34Z</time>
  <course>239.49</course>
  <speed>0.9724710792614863</speed>
  <fix>3d</fix>
</trkpt>
<trkpt lat="40.0712421" lon="-105.2300686">
  <ele>1583.0</ele>
  <time>2026-08-28T17:56:34Z</time>
  <course>238.4</course>
  <speed>0.99</speed>
  <fix>3d</fix>
</trkpt>
<trkpt lat="40.0712407" lon="-105.230072">
  <ele>1583.15</ele>
  <time>2026-08-28T17:56:34Z</time>
  <course>239.49</course>
  <speed>0.9724710792614863</speed>
  <fix>3d</fix>
</trkpt>
<trkpt lat="40.0712412" lon="-105.2300706">
  <ele>1583.0</ele>
  <time>2026-08-28T17:56:34Z</time>
  <course>238.39</course>
  <speed>0.99</speed>
  <fix>3d</fix>
</trkpt>
<trkpt lat="40.0712402" lon="-105.230073">
  <ele>1583.16</ele>
  <time>2026-08-28T17:56:34Z</time>
  <course>239.48</course>
  <speed>0.9724710792614863</speed>
  <fix>3d</fix>
</trkpt>
<trkpt lat="40.0712412" lon="-105.2300706">
  <ele>1583.0</ele>
  <time>2026-08-28T17:56:34Z</time>
  <course>238.39</course>
  <speed>0.99</speed>
  <fix>3d</fix>
</trkpt>
<trkpt lat="40.0712397" lon="-105.230074">
  <ele>1583.16</ele>
  <time>2026-08-28T17:56:34Z</time>
  <course>239.48</course>
  <speed>0.9724710792614863</speed>
  <fix>3d</fix>
</trkpt>
<trkpt lat="40.0712403" lon="-105.2300726">
  <ele>1583.0</ele>
  <time>2026-08-28T17:56:34Z</time>
  <course>238.38</course>
  <speed>0.99</speed>
  <fix>3d</fix>
</trkpt>
<trkpt lat="40.0712393" lon="-105.230075">
  <ele>1583.16</ele>
  <time>2026-08-28T17:56:34Z</time>
  <course>239.48</course>
  <speed>0.9724710792614863</speed>
  <fix>3d</fix>
</trkpt>
<trkpt lat="40.0712403" lon="-105.2300726">
  <ele>1583.0</ele>
  <time>2026-08-28T17:56:34Z</time>
  <course>238.38</course>
  <speed>0.99</speed>
  <fix>3d</fix>
</trkpt>
<trkpt lat="40.0712388" lon="-105.230076">
  <ele>1583.17</ele>
  <time>2026-08-28T17:56:34Z</time>
  <course>239.48</course>
  <speed>0.9724710792614863</speed>
  <fix>3d</fix>
</trkpt>
<trkpt lat="40.0712393" lon="-105.2300746">
  <ele>1583.0</ele>
  <time>2026-08-28T17:56:34Z</time>
  <course>238.37</course>
  <speed>0.99</speed>
  <fix>3d</fix>
</trkpt>
<trkpt lat="40.0712384" lon="-105.230077">
  <ele>1583.17</ele>
  <time>2026-08-28T17:56:34Z</time>
  <course>239.48</course>
  <speed>0.9724710792614863</speed>
  <fix>3d</fix>
</trkpt>
<trkpt lat="40.0712393" lon="-105.2300746">
  <ele>1583.0</ele>
  <time>2026-08-28T17:56:34Z</time>
  <course>238.37</course>
  <speed>0.99</speed>
  <fix>3d</fix>
</trkpt>
<trkpt lat="40.0712379" lon="-105.230078">
  <ele>1583.17</ele>
  <time>2026-08-28T17:56:34Z</time>
  <course>239.48</course>
  <speed>0.9724710792614863</speed>
  <fix>3d</fix>
</trkpt>
<trkpt lat="40.0712384" lon="-105.2300765">
  <ele>1583.0</ele>
  <time>2026-08-28T17:56:34Z</time>
  <course>238.36</course>
  <speed>0.99</speed>
  <fix>3d</fix>
</trkpt>
<trkpt lat="40.0712374" lon="-105.230079">
  <ele>1583.17</ele>
  <time>2026-08-28T17:56:34Z</time>
  <course>239.48</course>
  <speed>0.9724710792614863</speed>
  <fix>3d</fix>
</trkpt>
<trkpt lat="40.0712384" lon="-105.2300765">
  <ele>1583.0</ele>
  <time>2026-08-28T17:56:34Z</time>
  <course>238.36</course>
  <speed>0.99</speed>
  <fix>3d</fix>
</trkpt>
<trkpt lat="40.0712371" lon="-105.2300798">
  <ele>1583.17</ele>
  <time>2026-08-28T17:56:34Z</time>
  <course>239.48</course>
  <speed>0.9724710792614863</speed>
  <fix>3d</fix>
</trkpt>
<trkpt lat="40.0712374" lon="-105.2300786">
  <ele>1583.0</ele>
  <time>2026-08-28T17:56:34Z</time>
  <course>238.36</course>
  <speed>0.99</speed>
  <fix>3d</fix>
</trkpt>
<trkpt lat="40.0712366" lon="-105.2300808">
  <ele>1583.17</ele>
  <time>2026-08-28T17:56:34Z</time>
  <course>239.48</course>
  <speed>0.9724710792614863</speed>
  <fix>3d</fix>
</trkpt>
<trkpt lat="40.0712374" lon="-105.2300786">
  <ele>1583.0</ele>
  <time>2026-08-28T17:56:34Z</time>
  <course>238.36</course>
  <speed>0.99</speed>
  <fix>3d</fix>
</trkpt>
<trkpt lat="40.0712361" lon="-105.2300817">
  <ele>1583.17</ele>
  <time>2026-08-28T17:56:34Z</time>
  <course>239.48</course>
  <speed>0.9724710792614863</speed>
  <fix>3d</fix>
</trkpt>
<trkpt lat="40.0712365" lon="-105.2300805">
  <ele>1583.0</ele>
  <time>2026-08-28T17:56:34Z</time>
  <course>238.35</course>
  <speed>0.99</speed>
  <fix>3d</fix>
</trkpt>
<trkpt lat="40.0712356" lon="-105.2300827">
  <ele>1583.17</ele>
  <time>2026-08-28T17:56:34Z</time>
  <course>239.48</course>
  <speed>0.9724710792614863</speed>
  <fix>3d</fix>
</trkpt>
<trkpt lat="40.0712365" lon="-105.2300805">
  <ele>1583.0</ele>
  <time>2026-08-28T17:56:34Z</time>
  <course>238.35</course>
  <speed>0.99</speed>
  <fix>3d</fix>
</trkpt>
<trkpt lat="40.0712352" lon="-105.2300837">
  <ele>1583.17</ele>
  <time>2026-08-28T17:56:34Z</time>
  <course>239.46</course>
  <speed>0.9724710792614863</speed>
  <fix>3d</fix>
</trkpt>
<trkpt lat="40.0712355" lon="-105.2300826">
  <ele>1583.0</ele>
  <time>2026-08-28T17:56:34Z</time>
  <course>238.35</course>
  <speed>0.99</speed>
  <fix>3d</fix>
</trkpt>
<trkpt lat="40.0712347" lon="-105.2300847">
  <ele>1583.17</ele>
  <time>2026-08-28T17:56:34Z</time>
  <course>239.47</course>
  <speed>0.9724710792614863</speed>
  <fix>3d</fix>
</trkpt>
<trkpt lat="40.0712355" lon="-105.2300826">
  <ele>1583.0</ele>
  <time>2026-08-28T17:56:34Z</time>
  <course>238.35</course>
  <speed>0.99</speed>
  <fix>3d</fix>
</trkpt>
<trkpt lat="40.0712342" lon="-105.2300857">
  <ele>1583.18</ele>
  <time>2026-08-28T17:56:34Z</time>
  <course>239.47</course>
  <speed>0.9724710792614863</speed>
  <fix>3d</fix>
</trkpt>
<trkpt lat="40.0712346" lon="-105.2300846">
  <ele>1583.0</ele>
  <time>2026-08-28T17:56:34Z</time>
  <course>238.34</course>
  <speed>0.99</speed>
  <fix>3d</fix>
</trkpt>
<trkpt lat="40.0712338" lon="-105.2300867">
  <ele>1583.17</ele>
  <time>2026-08-28T17:56:34Z</time>
  <course>239.48</course>
  <speed>0.9724710792614863</speed>
  <fix>3d</fix>
</trkpt>
<trkpt lat="40.0712346" lon="-105.2300846">
  <ele>1583.0</ele>
  <time>2026-08-28T17:56:34Z</time>
  <course>238.34</course>
  <speed>0.99</speed>
  <fix>3d</fix>
</trkpt>
<trkpt lat="40.0712333" lon="-105.2300877">
  <ele>1583.17</ele>
  <time>2026-08-28T17:56:34Z</time>
  <course>239.48</course>
  <speed>0.9724710792614863</speed>
  <fix>3d</fix>
</trkpt>
<trkpt lat="40.0712336" lon="-105.2300865">
  <ele>1583.0</ele>
  <time>2026-08-28T17:56:34Z</time>
  <course>238.34</course>
  <speed>0.99</speed>
  <fix>3d</fix>
</trkpt>
<trkpt lat="40.0712328" lon="-105.2300887">
  <ele>1583.18</ele>
  <time>2026-08-28T17:56:34Z</time>
  <course>239.48</course>
  <speed>0.9724710792614863</speed>
  <fix>3d</fix>
</trkpt>
<trkpt lat="40.0712336" lon="-105.2300865">
  <ele>1583.0</ele>
  <time>2026-08-28T17:56:34Z</time>
  <course>238.34</course>
  <speed>0.99</speed>
  <fix>3d</fix>
</trkpt>
<trkpt lat="40.0712322" lon="-105.2300899">
  <ele>1583.18</ele>
  <time>2026-08-28T17:56:34Z</time>
  <course>239.47</course>
  <speed>0.9724710792614863</speed>
  <fix>3d</fix>
</trkpt>
<trkpt lat="40.0712327" lon="-105.2300885">
  <ele>1583.0</ele>
  <time>2026-08-28T17:56:34Z</time>
  <course>238.33</course>
  <speed>0.99</speed>
  <fix>3d</fix>
</trkpt>
<trkpt lat="40.0712318" lon="-105.2300909">
  <ele>1583.18</ele>
  <time>2026-08-28T17:56:34Z</time>
  <course>239.47</course>
  <speed>0.9724710792614863</speed>
  <fix>3d</fix>
</trkpt>
<trkpt lat="40.0712327" lon="-105.2300885">
  <ele>1583.0</ele>
  <time>2026-08-28T17:56:34Z</time>
  <course>238.33</course>
  <speed>0.99</speed>
  <fix>3d</fix>
</trkpt>
<trkpt lat="40.0712313" lon="-105.2300919">
  <ele>1583.18</ele>
  <time>2026-08-28T17:56:34Z</time>
  <course>239.47</course>
  <speed>0.9724710792614863</speed>
  <fix>3d</fix>
</trkpt>
<trkpt lat="40.0712318" lon="-105.2300906">
  <ele>1583.0</ele>
  <time>2026-08-28T17:56:34Z</time>
  <course>238.33</course>
  <speed>0.99</speed>
  <fix>3d</fix>
</trkpt>
<trkpt lat="40.0712308" lon="-105.2300929">
  <ele>1583.19</ele>
  <time>2026-08-28T17:56:34Z</time>
  <course>239.47</course>
  <speed>0.9724710792614863</speed>
  <fix>3d</fix>
</trkpt>
<trkpt lat="40.0712318" lon="-105.2300906">
  <ele>1583.0</ele>
  <time>2026-08-28T17:56:34Z</time>
  <course>238.33</course>
  <speed>0.99</speed>
  <fix>3d</fix>
</trkpt>
<trkpt lat="40.0712304" lon="-105.2300939">
  <ele>1583.19</ele>
  <time>2026-08-28T17:56:34Z</time>
  <course>239.47</course>
  <speed>0.9724710792614863</speed>
  <fix>3d</fix>
</trkpt>
<trkpt lat="40.0712308" lon="-105.2300925">
  <ele>1583.0</ele>
  <time>2026-08-28T17:56:34Z</time>
  <course>238.32</course>
  <speed>0.99</speed>
  <fix>3d</fix>
</trkpt>
<trkpt lat="40.0712299" lon="-105.2300949">
  <ele>1583.18</ele>
  <time>2026-08-28T17:56:34Z</time>
  <course>239.47</course>
  <speed>0.9724710792614863</speed>
  <fix>3d</fix>
</trkpt>
<trkpt lat="40.0712308" lon="-105.2300925">
  <ele>1583.0</ele>
  <time>2026-08-28T17:56:34Z</time>
  <course>238.32</course>
  <speed>0.99</speed>
  <fix>3d</fix>
</trkpt>
<trkpt lat="40.0712294" lon="-105.2300959">
  <ele>1583.18</ele>
  <time>2026-08-28T17:56:34Z</time>
  <course>239.47</course>
  <speed>0.9724710792614863</speed>
  <fix>3d</fix>
</trkpt>
<trkpt lat="40.0712299" lon="-105.2300945">
  <ele>1583.0</ele>
  <time>2026-08-28T17:56:34Z</time>
  <course>238.32</course>
  <speed>0.99</speed>
  <fix>3d</fix>
</trkpt>
<trkpt lat="40.0712289" lon="-105.2300969">
  <ele>1583.18</ele>
  <time>2026-08-28T17:56:34Z</time>
  <course>239.47</course>
  <speed>0.9724710792614863</speed>
  <fix>3d</fix>
</trkpt>
<trkpt lat="40.0712299" lon="-105.2300945">
  <ele>1583.0</ele>
  <time>2026-08-28T17:56:34Z</time>
  <course>238.32</course>
  <speed>0.99</speed>
  <fix>3d</fix>
</trkpt>
<trkpt lat="40.0712285" lon="-105.2300979">
  <ele>1583.18</ele>
  <time>2026-08-28T17:56:34Z</time>
  <course>239.48</course>
  <speed>0.9724710792614863</speed>
  <fix>3d</fix>
</trkpt>
<trkpt lat="40.071229" lon="-105.2300965">
  <ele>1583.0</ele>
  <time>2026-08-28T17:56:34Z</time>
  <course>238.32</course>
  <speed>0.99</speed>
  <fix>3d</fix>
</trkpt>
<trkpt lat="40.071228" lon="-105.2300989">
  <ele>1583.17</ele>
  <time>2026-08-28T17:56:34Z</time>
  <course>239.48</course>
  <speed>0.9724710792614863</speed>
  <fix>3d</fix>
</trkpt>
<trkpt lat="40.071229" lon="-105.2300965">
  <ele>1583.0</ele>
  <time>2026-08-28T17:56:34Z</time>
  <course>238.32</course>
  <speed>0.99</speed>
  <fix>3d</fix>
</trkpt>
<trkpt lat="40.0712276" lon="-105.2300999">
  <ele>1583.17</ele>
  <time>2026-08-28T17:56:34Z</time>
  <course>239.48</course>
  <speed>0.9724710792614863</speed>
  <fix>3d</fix>
</trkpt>
<trkpt lat="40.071228" lon="-105.2300985">
  <ele>1583.0</ele>
  <time>2026-08-28T17:56:34Z</time>
  <course>238.31</course>
  <speed>0.99</speed>
  <fix>3d</fix>
</trkpt>
<trkpt lat="40.0712272" lon="-105.2301007">
  <ele>1583.17</ele>
  <time>2026-08-28T17:56:34Z</time>
  <course>239.48</course>
  <speed>0.9638464608017192</speed>
  <fix>3d</fix>
</trkpt>
<trkpt lat="40.071228" lon="-105.2300985">
  <ele>1583.0</ele>
  <time>2026-08-28T17:56:34Z</time>
  <course>238.31</course>
  <speed>0.99</speed>
  <fix>3d</fix>
</trkpt>
<trkpt lat="40.0712267" lon="-105.2301017">
  <ele>1583.16</ele>
  <time>2026-08-28T17:56:34Z</time>
  <course>239.48</course>
  <speed>0.9638464608017192</speed>
  <fix>3d</fix>
</trkpt>
<trkpt lat="40.0712271" lon="-105.2301004">
  <ele>1583.0</ele>
  <time>2026-08-28T17:56:34Z</time>
  <course>238.31</course>
  <speed>0.99</speed>
  <fix>3d</fix>
</trkpt>
<trkpt lat="40.0712262" lon="-105.2301026">
  <ele>1583.16</ele>
  <time>2026-08-28T17:56:34Z</time>
  <course>239.48</course>
  <speed>0.9638464608017192</speed>
  <fix>3d</fix>
</trkpt>
<trkpt lat="40.0712271" lon="-105.2301004">
  <ele>1583.0</ele>
  <time>2026-08-28T17:56:34Z</time>
  <course>238.31</course>
  <speed>0.99</speed>
  <fix>3d</fix>
</trkpt>
<trkpt lat="40.0712258" lon="-105.2301036">
  <ele>1583.16</ele>
  <time>2026-08-28T17:56:34Z</time>
  <course>239.5</course>
  <speed>0.9638464608017192</speed>
  <fix>3d</fix>
</trkpt>
<trkpt lat="40.0712262" lon="-105.2301024">
  <ele>1583.0</ele>
  <time>2026-08-28T17:56:34Z</time>
  <course>238.3</course>
  <speed>0.99</speed>
  <fix>3d</fix>
</trkpt>
<trkpt lat="40.0712253" lon="-105.2301046">
  <ele>1583.16</ele>
  <time>2026-08-28T17:56:34Z</time>
  <course>239.51</course>
  <speed>0.9638464608017192</speed>
  <fix>3d</fix>
</trkpt>
<trkpt lat="40.0712262" lon="-105.2301024">
  <ele>1583.0</ele>
  <time>2026-08-28T17:56:34Z</time>
  <course>238.3</course>
  <speed>0.99</speed>
  <fix>3d</fix>
</trkpt>
<trkpt lat="40.0712248" lon="-105.2301056">
  <ele>1583.15</ele>
  <time>2026-08-28T17:56:34Z</time>
  <course>239.51</course>
  <speed>0.9638464608017192</speed>
  <fix>3d</fix>
</trkpt>
<trkpt lat="40.0712252" lon="-105.2301045">
  <ele>1583.0</ele>
  <time>2026-08-28T17:56:34Z</time>
  <course>238.3</course>
  <speed>0.99</speed>
  <fix>3d</fix>
</trkpt>
<trkpt lat="40.0712244" lon="-105.2301066">
  <ele>1583.15</ele>
  <time>2026-08-28T17:56:34Z</time>
  <course>239.54</course>
  <speed>0.9724710792614863</speed>
  <fix>3d</fix>
</trkpt>
<trkpt lat="40.0712252" lon="-105.2301045">
  <ele>1583.0</ele>
  <time>2026-08-28T17:56:34Z</time>
  <course>238.3</course>
  <speed>0.99</speed>
  <fix>3d</fix>
</trkpt>
<trkpt lat="40.0712239" lon="-105.2301076">
  <ele>1583.15</ele>
  <time>2026-08-28T17:56:34Z</time>
  <course>239.52</course>
  <speed>0.9724710792614863</speed>
  <fix>3d</fix>
</trkpt>
<trkpt lat="40.0712243" lon="-105.2301064">
  <ele>1583.0</ele>
  <time>2026-08-28T17:56:34Z</time>
  <course>238.31</course>
  <speed>0.99</speed>
  <fix>3d</fix>
</trkpt>
<trkpt lat="40.0712234" lon="-105.2301086">
  <ele>1583.15</ele>
  <time>2026-08-28T17:56:34Z</time>
  <course>239.55</course>
  <speed>0.9724710792614863</speed>
  <fix>3d</fix>
</trkpt>
<trkpt lat="40.0712243" lon="-105.2301064">
  <ele>1583.0</ele>
  <time>2026-08-28T17:56:34Z</time>
  <course>238.31</course>
  <speed>0.99</speed>
  <fix>3d</fix>
</trkpt>
<trkpt lat="40.071223" lon="-105.2301096">
  <ele>1583.14</ele>
  <time>2026-08-28T17:56:34Z</time>
  <course>239.52</course>
  <speed>0.9724710792614863</speed>
  <fix>3d</fix>
</trkpt>
<trkpt lat="40.0712233" lon="-105.2301085">
  <ele>1583.0</ele>
  <time>2026-08-28T17:56:34Z</time>
  <course>238.32</course>
  <speed>0.99</speed>
  <fix>3d</fix>
</trkpt>
<trkpt lat="40.0712224" lon="-105.2301108">
  <ele>1583.14</ele>
  <time>2026-08-28T17:56:34Z</time>
  <course>239.53</course>
  <speed>0.9724710792614863</speed>
  <fix>3d</fix>
</trkpt>
<trkpt lat="40.0712233" lon="-105.2301085">
  <ele>1583.0</ele>
  <time>2026-08-28T17:56:34Z</time>
  <course>238.32</course>
  <speed>0.99</speed>
  <fix>3d</fix>
</trkpt>
<trkpt lat="40.0712219" lon="-105.2301118">
  <ele>1583.14</ele>
  <time>2026-08-28T17:56:34Z</time>
  <course>239.53</course>
  <speed>0.9724710792614863</speed>
  <fix>3d</fix>
</trkpt>
<trkpt lat="40.0712223" lon="-105.2301105">
  <ele>1583.0</ele>
  <time>2026-08-28T17:56:34Z</time>
  <course>238.32</course>
  <speed>0.99</speed>
  <fix>3d</fix>
</trkpt>
<trkpt lat="40.0712214" lon="-105.2301128">
  <ele>1583.14</ele>
  <time>2026-08-28T17:56:34Z</time>
  <course>239.55</course>
  <speed>0.9724710792614863</speed>
  <fix>3d</fix>
</trkpt>
<trkpt lat="40.0712223" lon="-105.2301105">
  <ele>1583.0</ele>
  <time>2026-08-28T17:56:34Z</time>
  <course>238.32</course>
  <speed>0.99</speed>
  <fix>3d</fix>
</trkpt>
<trkpt lat="40.071221" lon="-105.2301138">
  <ele>1583.14</ele>
  <time>2026-08-28T17:56:34Z</time>
  <course>239.55</course>
  <speed>0.9724710792614863</speed>
  <fix>3d</fix>
</trkpt>
<trkpt lat="40.0712214" lon="-105.2301124">
  <ele>1583.0</ele>
  <time>2026-08-28T17:56:34Z</time>
  <course>238.32</course>
  <speed>0.99</speed>
  <fix>3d</fix>
</trkpt>
<trkpt lat="40.0712205" lon="-105.2301148">
  <ele>1583.14</ele>
  <time>2026-08-28T17:56:34Z</time>
  <course>239.55</course>
  <speed>0.9724710792614863</speed>
  <fix>3d</fix>
</trkpt>
<trkpt lat="40.0712214" lon="-105.2301124">
  <ele>1583.0</ele>
  <time>2026-08-28T17:56:34Z</time>
  <course>238.32</course>
  <speed>0.99</speed>
  <fix>3d</fix>
</trkpt>
<trkpt lat="40.07122" lon="-105.2301159">
  <ele>1583.13</ele>
  <time>2026-08-28T17:56:34Z</time>
  <course>239.55</course>
  <speed>0.9724710792614863</speed>
  <fix>3d</fix>
</trkpt>
<trkpt lat="40.0712205" lon="-105.2301145">
  <ele>1583.0</ele>
  <time>2026-08-28T17:56:34Z</time>
  <course>238.32</course>
  <speed>0.99</speed>
  <fix>3d</fix>
</trkpt>
<trkpt lat="40.0712195" lon="-105.2301169">
  <ele>1583.13</ele>
  <time>2026-08-28T17:56:34Z</time>
  <course>239.55</course>
  <speed>0.9724710792614863</speed>
  <fix>3d</fix>
</trkpt>
<trkpt lat="40.0712205" lon="-105.2301145">
  <ele>1583.0</ele>
  <time>2026-08-28T17:56:34Z</time>
  <course>238.32</course>
  <speed>0.99</speed>
  <fix>3d</fix>
</trkpt>
<trkpt lat="40.0712191" lon="-105.2301178">
  <ele>1583.13</ele>
  <time>2026-08-28T17:56:34Z</time>
  <course>239.55</course>
  <speed>0.9724710792614863</speed>
  <fix>3d</fix>
</trkpt>
<trkpt lat="40.0712196" lon="-105.2301165">
  <ele>1583.0</ele>
  <time>2026-08-28T17:56:34Z</time>
  <course>238.32</course>
  <speed>0.99</speed>
  <fix>3d</fix>
</trkpt>
<trkpt lat="40.0712186" lon="-105.2301188">
  <ele>1583.13</ele>
  <time>2026-08-28T17:56:34Z</time>
  <course>239.55</course>
  <speed>0.9724710792614863</speed>
  <fix>3d</fix>
</trkpt>
<trkpt lat="40.0712196" lon="-105.2301165">
  <ele>1583.0</ele>
  <time>2026-08-28T17:56:34Z</time>
  <course>238.32</course>
  <speed>0.99</speed>
  <fix>3d</fix>
</trkpt>
<trkpt lat="40.0712182" lon="-105.2301198">
  <ele>1583.13</ele>
  <time>2026-08-28T17:56:34Z</time>
  <course>239.55</course>
  <speed>0.9724710792614863</speed>
  <fix>3d</fix>
</trkpt>
<trkpt lat="40.0712186" lon="-105.2301185">
  <ele>1583.0</ele>
  <time>2026-08-28T17:56:34Z</time>
  <course>238.32</course>
  <speed>0.99</speed>
  <fix>3d</fix>
</trkpt>
<trkpt lat="40.0712177" lon="-105.2301208">
  <ele>1583.13</ele>
  <time>2026-08-28T17:56:34Z</time>
  <course>239.55</course>
  <speed>0.9724710792614863</speed>
  <fix>3d</fix>
</trkpt>
<trkpt lat="40.0712186" lon="-105.2301185">
  <ele>1583.0</ele>
  <time>2026-08-28T17:56:34Z</time>
  <course>238.32</course>
  <speed>0.99</speed>
  <fix>3d</fix>
</trkpt>
<trkpt lat="40.0712173" lon="-105.2301216">
  <ele>1583.13</ele>
  <time>2026-08-28T17:56:34Z</time>
  <course>239.47</course>
  <speed>0.9724710792614863</speed>
  <fix>3d</fix>
</trkpt>
<trkpt lat="40.0712177" lon="-105.2301205">
  <ele>1583.0</ele>
  <time>2026-08-28T17:56:34Z</time>
  <course>238.33</course>
  <speed>0.99</speed>
  <fix>3d</fix>
</trkpt>
<trkpt lat="40.0712168" lon="-105.2301226">
  <ele>1583.14</ele>
  <time>2026-08-28T17:56:34Z</time>
  <course>238.73</course>
  <speed>0.9724710792614863</speed>
  <fix>3d</fix>
</trkpt>
<trkpt lat="40.0712177" lon="-105.2301205">
  <ele>1583.0</ele>
  <time>2026-08-28T17:56:34Z</time>
  <course>238.33</course>
  <speed>0.99</speed>
  <fix>3d</fix>
</trkpt>
<trkpt lat="40.0712164" lon="-105.2301236">
  <ele>1583.13</ele>
  <time>2026-08-28T17:56:34Z</time>
  <course>237.22</course>
  <speed>0.9724710792614863</speed>
  <fix>3d</fix>
</trkpt>
<trkpt lat="40.0712167" lon="-105.2301224">
  <ele>1583.0</ele>
  <time>2026-08-28T17:56:34Z</time>
  <course>238.29</course>
  <speed>0.99</speed>
  <fix>3d</fix>
</trkpt>
<trkpt lat="40.0712159" lon="-105.2301246">
  <ele>1583.13</ele>
  <time>2026-08-28T17:56:34Z</time>
  <course>234.86</course>
  <speed>0.9638464608017192</speed>
  <fix>3d</fix>
</trkpt>
<trkpt lat="40.0712167" lon="-105.2301224">
  <ele>1583.0</ele>
  <time>2026-08-28T17:56:34Z</time>
  <course>238.29</course>
  <speed>0.99</speed>
  <fix>3d</fix>
</trkpt>
<trkpt lat="40.0712154" lon="-105.2301256">
  <ele>1583.13</ele>
  <time>2026-08-28T17:56:34Z</time>
  <course>231.5</course>
  <speed>0.9689685237405805</speed>
  <fix>3d</fix>
</trkpt>
<trkpt lat="40.0712158" lon="-105.2301244">
  <ele>1583.0</ele>
  <time>2026-08-28T17:56:34Z</time>
  <course>238.07</course>
  <speed>0.99</speed>
  <fix>3d</fix>
</trkpt>
<trkpt lat="40.0712149" lon="-105.2301266">
  <ele>1583.13</ele>
  <time>2026-08-28T17:56:34Z</time>
  <course>226.96</course>
  <speed>0.9604165762834376</speed>
  <fix>3d</fix>
</trkpt>
<trkpt lat="40.0712158" lon="-105.2301244">
  <ele>1583.0</ele>
  <time>2026-08-28T17:56:34Z</time>
  <course>238.07</course>
  <speed>0.99</speed>
  <fix>3d</fix>
</trkpt>
<trkpt lat="40.0712145" lon="-105.2301276">
  <ele>1583.13</ele>
  <time>2026-08-28T17:56:34Z</time>
  <course>221.02</course>
  <speed>0.951892851112981</speed>
  <fix>3d</fix>
</trkpt>
<trkpt lat="40.0712148" lon="-105.2301264">
  <ele>1583.0</ele>
  <time>2026-08-28T17:56:34Z</time>
  <course>237.47</course>
  <speed>0.98</speed>
  <fix>3d</fix>
</trkpt>
<trkpt lat="40.071214" lon="-105.2301285">
  <ele>1583.13</ele>
  <time>2026-08-28T17:56:34Z</time>
  <course>213.61</course>
  <speed>0.9403190947758107</speed>
  <fix>3d</fix>
</trkpt>
<trkpt lat="40.0712148" lon="-105.2301264">
  <ele>1583.0</ele>
  <time>2026-08-28T17:56:34Z</time>
  <course>237.47</course>
  <speed>0.98</speed>
  <fix>3d</fix>
</trkpt>
<trkpt lat="40.0712135" lon="-105.2301295">
  <ele>1583.13</ele>
  <time>2026-08-28T17:56:34Z</time>
  <course>204.79</course>
  <speed>0.931933474020544</speed>
  <fix>3d</fix>
</trkpt>
<trkpt lat="40.0712138" lon="-105.2301283">
  <ele>1583.0</ele>
  <time>2026-08-28T17:56:34Z</time>
  <course>236.3</course>
  <speed>0.96</speed>
  <fix>3d</fix>
</trkpt>
<trkpt lat="40.0712129" lon="-105.2301306">
  <ele>1583.13</ele>
  <time>2026-08-28T17:56:34Z</time>
  <course>192.27</course>
  <speed>0.912633551870629</speed>
  <fix>3d</fix>
</trkpt>
<trkpt lat="40.0712138" lon="-105.2301283">
  <ele>1583.0</ele>
  <time>2026-08-28T17:56:34Z</time>
  <course>236.3</course>
  <speed>0.96</speed>
  <fix>3d</fix>
</trkpt>
<trkpt lat="40.0712124" lon="-105.2301314">
  <ele>1583.14</ele>
  <time>2026-08-28T17:56:34Z</time>
  <course>180.28</course>
  <speed>0.8881441324469808</speed>
  <fix>3d</fix>
</trkpt>
<trkpt lat="40.0712129" lon="-105.2301301">
  <ele>1583.0</ele>
  <time>2026-08-28T17:56:34Z</time>
  <course>234.35</course>
  <speed>0.93</speed>
  <fix>3d</fix>
</trkpt>
<trkpt lat="40.0712119" lon="-105.2301323">
  <ele>1583.14</ele>
  <time>2026-08-28T17:56:34Z</time>
  <course>168.79</course>
  <speed>0.8621484790916237</speed>
  <fix>3d</fix>
</trkpt>
<trkpt lat="40.0712129" lon="-105.2301301">
  <ele>1583.0</ele>
  <time>2026-08-28T17:56:34Z</time>
  <course>234.35</course>
  <speed>0.93</speed>
  <fix>3d</fix>
</trkpt>
<trkpt lat="40.0712114" lon="-105.2301331">
  <ele>1583.14</ele>
  <time>2026-08-28T17:56:34Z</time>
  <course>158.76</course>
  <speed>0.8438601779915912</speed>
  <fix>3d</fix>
</trkpt>
<trkpt lat="40.0712118" lon="-105.2301319">
  <ele>1583.0</ele>
  <time>2026-08-28T17:56:34Z</time>
  <course>231.16</course>
  <speed>0.89</speed>
  <fix>3d</fix>
</trkpt>
<trkpt lat="40.0712108" lon="-105.2301338">
  <ele>1583.14</ele>
  <time>2026-08-28T17:56:34Z</time>
  <course>150.18</course>
  <speed>0.8207313811473277</speed>
  <fix>3d</fix>
</trkpt>
<trkpt lat="40.0712118" lon="-105.2301319">
  <ele>1583.0</ele>
  <time>2026-08-28T17:56:34Z</time>
  <course>231.16</course>
  <speed>0.89</speed>
  <fix>3d</fix>
</trkpt>
<trkpt lat="40.0712103" lon="-105.2301345">
  <ele>1583.14</ele>
  <time>2026-08-28T17:56:34Z</time>
  <course>143.07</course>
  <speed>0.792464510246358</speed>
  <fix>3d</fix>
</trkpt>
<trkpt lat="40.0712108" lon="-105.2301334">
  <ele>1583.0</ele>
  <time>2026-08-28T17:56:34Z</time>
  <course>226.22</course>
  <speed>0.85</speed>
  <fix>3d</fix>
</trkpt>
<trkpt lat="40.0712097" lon="-105.2301351">
  <ele>1583.14</ele>
  <time>2026-08-28T17:56:34Z</time>
  <course>137.15</course>
  <speed>0.7746612162745725</speed>
  <fix>3d</fix>
</trkpt>
<trkpt lat="40.0712108" lon="-105.2301334">
  <ele>1583.0</ele>
  <time>2026-08-28T17:56:34Z</time>
  <course>226.22</course>
  <speed>0.85</speed>
  <fix>3d</fix>
</trkpt>
<trkpt lat="40.0712092" lon="-105.2301356">
  <ele>1583.14</ele>
  <time>2026-08-28T17:56:34Z</time>
  <course>132.4</course>
  <speed>0.740607858451421</speed>
  <fix>3d</fix>
</trkpt>
<trkpt lat="40.0712098" lon="-105.2301348">
  <ele>1583.0</ele>
  <time>2026-08-28T17:56:34Z</time>
  <course>219.39</course>
  <speed>0.79</speed>
  <fix>3d</fix>
</trkpt>
<trkpt lat="40.0712086" lon="-105.2301361">
  <ele>1583.15</ele>
  <time>2026-08-28T17:56:34Z</time>
  <course>128.52</course>
  <speed>0.7169379331573968</speed>
  <fix>3d</fix>
</trkpt>
<trkpt lat="40.0712098" lon="-105.2301348">
  <ele>1583.0</ele>
  <time>2026-08-28T17:56:34Z</time>
  <course>219.39</course>
  <speed>0.79</speed>
  <fix>3d</fix>
</trkpt>
<trkpt lat="40.071208" lon="-105.2301364">
  <ele>1583.15</ele>
  <time>2026-08-28T17:56:34Z</time>
  <course>125.35</course>
  <speed>0.6977822009767805</speed>
  <fix>3d</fix>
</trkpt>
<trkpt lat="40.0712087" lon="-105.2301358">
  <ele>1583.0</ele>
  <time>2026-08-28T17:56:34Z</time>
  <course>210.93</course>
  <speed>0.74</speed>
  <fix>3d</fix>
</trkpt>
<trkpt lat="40.0712074" lon="-105.2301367">
  <ele>1583.15</ele>
  <time>2026-08-28T17:56:34Z</time>
  <course>122.76</course>
  <speed>0.6800735254367721</speed>
  <fix>3d</fix>
</trkpt>
<trkpt lat="40.0712087" lon="-105.2301358">
  <ele>1583.0</ele>
  <time>2026-08-28T17:56:34Z</time>
  <course>210.93</course>
  <speed>0.74</speed>
  <fix>3d</fix>
</trkpt>
<trkpt lat="40.0712068" lon="-105.230137">
  <ele>1583.15</ele>
  <time>2026-08-28T17:56:34Z</time>
  <course>120.65</course>
  <speed>0.6621933252457322</speed>
  <fix>3d</fix>
</trkpt>
<trkpt lat="40.0712075" lon="-105.2301366">
  <ele>1583.0</ele>
  <time>2026-08-28T17:56:34Z</time>
  <course>201.36</course>
  <speed>0.7</speed>
  <fix>3d</fix>
</trkpt>
<trkpt lat="40.0712063" lon="-105.2301371">
  <ele>1583.15</ele>
  <time>2026-08-28T17:56:34Z</time>
  <course>119.26</course>
  <speed>0.6609841147864296</speed>
  <fix>3d</fix>
</trkpt>
<trkpt lat="40.0712075" lon="-105.2301366">
  <ele>1583.0</ele>
  <time>2026-08-28T17:56:34Z</time>
  <course>201.36</course>
  <speed>0.7</speed>
  <fix>3d</fix>
</trkpt>
<trkpt lat="40.0712057" lon="-105.2301372">
  <ele>1583.15</ele>
  <time>2026-08-28T17:56:34Z</time>
  <course>117.82</course>
  <speed>0.6527633568147035</speed>
  <fix>3d</fix>
</trkpt>
<trkpt lat="40.0712063" lon="-105.230137">
  <ele>1583.0</ele>
  <time>2026-08-28T17:56:34Z</time>
  <course>191.23</course>
  <speed>0.67</speed>
  <fix>3d</fix>
</trkpt>
<trkpt lat="40.0712051" lon="-105.2301372">
  <ele>1583.14</ele>
  <time>2026-08-28T17:56:34Z</time>
  <course>116.69</course>
  <speed>0.65</speed>
  <fix>3d</fix>
</trkpt>
<trkpt lat="40.0712063" lon="-105.230137">
  <ele>1583.0</ele>
  <time>2026-08-28T17:56:34Z</time>
  <course>191.23</course>
  <speed>0.67</speed>
  <fix>3d</fix>
</trkpt>
<trkpt lat="40.0712045" lon="-105.2301372">
  <ele>1583.14</ele>
  <time>2026-08-28T17:56:34Z</time>
  <course>115.73</course>
  <speed>0.6519202405202649</speed>
  <fix>3d</fix>
</trkpt>
<trkpt lat="40.0712051" lon="-105.2301372">
  <ele>1583.0</ele>
  <time>2026-08-28T17:56:34Z</time>
  <course>181.04</course>
  <speed>0.66</speed>
  <fix>3d</fix>
</trkpt>
<trkpt lat="40.0712039" lon="-105.2301371">
  <ele>1583.14</ele>
  <time>2026-08-28T17:56:34Z</time>
  <course>114.89</course>
  <speed>0.6592419889539803</speed>
  <fix>3d</fix>
</trkpt>
<trkpt lat="40.0712051" lon="-105.2301372">
  <ele>1583.0</ele>
  <time>2026-08-28T17:56:34Z</time>
  <course>181.04</course>
  <speed>0.66</speed>
  <fix>3d</fix>
</trkpt>
<trkpt lat="40.0712033" lon="-105.230137">
  <ele>1583.14</ele>
  <time>2026-08-28T17:56:34Z</time>
  <course>114.1</course>
  <speed>0.6694027188471824</speed>
  <fix>3d</fix>
</trkpt>
<trkpt lat="40.0712039" lon="-105.2301371">
  <ele>1583.0</ele>
  <time>2026-08-28T17:56:34Z</time>
  <course>171.33</course>
  <speed>0.66</speed>
  <fix>3d</fix>
</trkpt>
<trkpt lat="40.0712027" lon="-105.2301368">
  <ele>1583.14</ele>
  <time>2026-08-28T17:56:34Z</time>
  <course>113.41</course>
  <speed>0.6862215385719105</speed>
  <fix>3d</fix>
</trkpt>
<trkpt lat="40.0712039" lon="-105.2301371">
  <ele>1583.0</ele>
  <time>2026-08-28T17:56:34Z</time>
  <course>171.33</course>
  <speed>0.66</speed>
  <fix>3d</fix>
</trkpt>
<trkpt lat="40.0712021" lon="-105.2301365">
  <ele>1583.14</ele>
  <time>2026-08-28T17:56:34Z</time>
  <course>112.8</course>
  <speed>0.7038465741907111</speed>
  <fix>3d</fix>
</trkpt>
<trkpt lat="40.0712027" lon="-105.2301368">
  <ele>1583.0</ele>
  <time>2026-08-28T17:56:34Z</time>
  <course>162.52</course>
  <speed>0.68</speed>
  <fix>3d</fix>
</trkpt>
<trkpt lat="40.0712015" lon="-105.2301361">
  <ele>1583.13</ele>
  <time>2026-08-28T17:56:34Z</time>
  <course>112.29</course>
  <speed>0.7244998274671982</speed>
  <fix>3d</fix>
</trkpt>
<trkpt lat="40.0712027" lon="-105.2301368">
  <ele>1583.0</ele>
  <time>2026-08-28T17:56:34Z</time>
  <course>162.52</course>
  <speed>0.68</speed>
  <fix>3d</fix>
</trkpt>
<trkpt lat="40.0712008" lon="-105.2301356">
  <ele>1583.13</ele>
  <time>2026-08-28T17:56:34Z</time>
  <course>111.74</course>
  <speed>0.7392563831310488</speed>
  <fix>3d</fix>
</trkpt>
<trkpt lat="40.0712015" lon="-105.2301362">
  <ele>1583.0</ele>
  <time>2026-08-28T17:56:34Z</time>
  <course>154.81</course>
  <speed>0.71</speed>
  <fix>3d</fix>
</trkpt>
<trkpt lat="40.0712002" lon="-105.2301351">
  <ele>1583.13</ele>
  <time>2026-08-28T17:56:34Z</time>
  <course>111.36</course>
  <speed>0.7655063683601856</speed>
  <fix>3d</fix>
</trkpt>
<trkpt lat="40.0712015" lon="-105.2301362">
  <ele>1583.0</ele>
  <time>2026-08-28T17:56:34Z</time>
  <course>154.81</course>
  <speed>0.71</speed>
  <fix>3d</fix>
</trkpt>
<trkpt lat="40.0711996" lon="-105.2301346">
  <ele>1583.12</ele>
  <time>2026-08-28T17:56:34Z</time>
  <course>111.07</course>
  <speed>0.7881624198095213</speed>
  <fix>3d</fix>
</trkpt>
<trkpt lat="40.0712004" lon="-105.2301354">
  <ele>1583.0</ele>
  <time>2026-08-28T17:56:34Z</time>
  <course>148.23</course>
  <speed>0.75</speed>
  <fix>3d</fix>
</trkpt>
<trkpt lat="40.071199" lon="-105.230134">
  <ele>1583.12</ele>
  <time>2026-08-28T17:56:34Z</time>
  <course>110.84</course>
  <speed>0.8043009387039157</speed>
  <fix>3d</fix>
</trkpt>
<trkpt lat="40.0712004" lon="-105.2301354">
  <ele>1583.0</ele>
  <time>2026-08-28T17:56:34Z</time>
  <course>148.23</course>
  <speed>0.75</speed>
  <fix>3d</fix>
</trkpt>
<trkpt lat="40.0711984" lon="-105.2301334">
  <ele>1583.12</ele>
  <time>2026-08-28T17:56:34Z</time>
  <course>110.65</course>
  <speed>0.8297590011563598</speed>
  <fix>3d</fix>
</trkpt>
<trkpt lat="40.0711992" lon="-105.2301343">
  <ele>1583.0</ele>
  <time>2026-08-28T17:56:34Z</time>
  <course>142.67</course>
  <speed>0.79</speed>
  <fix>3d</fix>
</trkpt>
<trkpt lat="40.0711979" lon="-105.2301328">
  <ele>1583.12</ele>
  <time>2026-08-28T17:56:34Z</time>
  <course>110.53</course>
  <speed>0.8421995013059553</speed>
  <fix>3d</fix>
</trkpt>
<trkpt lat="40.0711992" lon="-105.2301343">
  <ele>1583.0</ele>
  <time>2026-08-28T17:56:34Z</time>
  <course>142.67</course>
  <speed>0.79</speed>
  <fix>3d</fix>
</trkpt>
<trkpt lat="40.0711973" lon="-105.2301321">
  <ele>1583.12</ele>
  <time>2026-08-28T17:56:34Z</time>
  <course>110.47</course>
  <speed>0.8697700845625813</speed>
  <fix>3d</fix>
</trkpt>
<trkpt lat="40.0711981" lon="-105.2301331">
  <ele>1583.0</ele>
  <time>2026-08-28T17:56:34Z</time>
  <course>138.03</course>
  <speed>0.83</speed>
  <fix>3d</fix>
</trkpt>
<trkpt lat="40.0711967" lon="-105.2301313">
  <ele>1583.12</ele>
  <time>2026-08-28T17:56:34Z</time>
  <course>110.47</course>
  <speed>0.8841379982785493</speed>
  <fix>3d</fix>
</trkpt>
<trkpt lat="40.0711981" lon="-105.2301331">
  <ele>1583.0</ele>
  <time>2026-08-28T17:56:34Z</time>
  <course>138.03</course>
  <speed>0.83</speed>
  <fix>3d</fix>
</trkpt>
<trkpt lat="40.0711962" lon="-105.2301306">
  <ele>1583.12</ele>
  <time>2026-08-28T17:56:34Z</time>
  <course>110.53</course>
  <speed>0.9060905032059435</speed>
  <fix>3d</fix>
</trkpt>
<trkpt lat="40.071197" lon="-105.2301317">
  <ele>1583.0</ele>
  <time>2026-08-28T17:56:34Z</time>
  <course>134.18</course>
  <speed>0.87</speed>
  <fix>3d</fix>
</trkpt>
<trkpt lat="40.0711957" lon="-105.2301298">
  <ele>1583.13</ele>
  <time>2026-08-28T17:56:34Z</time>
  <course>110.66</course>
  <speed>0.9219544457292888</speed>
  <fix>3d</fix>
</trkpt>
<trkpt lat="40.071197" lon="-105.2301317">
  <ele>1583.0</ele>
  <time>2026-08-28T17:56:34Z</time>
  <course>134.18</course>
  <speed>0.87</speed>
  <fix>3d</fix>
</trkpt>
<trkpt lat="40.0711951" lon="-105.2301289">
  <ele>1583.13</ele>
  <time>2026-08-28T17:56:34Z</time>
  <course>110.84</course>
  <speed>0.9449338601193208</speed>
  <fix>3d</fix>
</trkpt>
<trkpt lat="40.0711959" lon="-105.2301301">
  <ele>1583.0</ele>
  <time>2026-08-28T17:56:34Z</time>
  <course>130.99</course>
  <speed>0.91</speed>
  <fix>3d</fix>
</trkpt>
<trkpt lat="40.0711946" lon="-105.2301281">
  <ele>1583.13</ele>
  <time>2026-08-28T17:56:34Z</time>
  <course>111.1</course>
  <speed>0.9621330469326995</speed>
  <fix>3d</fix>
</trkpt>
<trkpt lat="40.0711959" lon="-105.2301301">
  <ele>1583.0</ele>
  <time>2026-08-28T17:56:34Z</time>
  <course>130.99</course>
  <speed>0.91</speed>
  <fix>3d</fix>
</trkpt>
<trkpt lat="40.0711942" lon="-105.2301274">
  <ele>1583.13</ele>
  <time>2026-08-28T17:56:34Z</time>
  <course>111.3</course>
  <speed>0.978008179924892</speed>
  <fix>3d</fix>
</trkpt>
<trkpt lat="40.0711948" lon="-105.2301285">
  <ele>1583.0</ele>
  <time>2026-08-28T17:56:34Z</time>
  <course>128.36</course>
  <speed>0.95</speed>
  <fix>3d</fix>
</trkpt>
<trkpt lat="40.0711936" lon="-105.2301264">
  <ele>1583.13</ele>
  <time>2026-08-28T17:56:34Z</time>
  <course>111.62</course>
  <speed>0.9940321926376429</speed>
  <fix>3d</fix>
</trkpt>
<trkpt lat="40.0711948" lon="-105.2301285">
  <ele>1583.0</ele>
  <time>2026-08-28T17:56:34Z</time>
  <course>128.36</course>
  <speed>0.95</speed>
  <fix>3d</fix>
</trkpt>
<trkpt lat="40.0711931" lon="-105.2301255">
  <ele>1583.13</ele>
  <time>2026-08-28T17:56:34Z</time>
  <course>112.01</course>
  <speed>1.010198000393982</speed>
  <fix>3d</fix>
</trkpt>
<trkpt lat="40.0711938" lon="-105.2301267">
  <ele>1583.0</ele>
  <time>2026-08-28T17:56:34Z</time>
  <course>126.2</course>
  <speed>0.98</speed>
  <fix>3d</fix>
</trkpt>
<trkpt lat="40.0711926" lon="-105.2301245">
  <ele>1583.13</ele>
  <time>2026-08-28T17:56:34Z</time>
  <course>112.47</course>
  <speed>1.0207840124139878</speed>
  <fix>3d</fix>
</trkpt>
<trkpt lat="40.0711938" lon="-105.2301267">
  <ele>1583.0</ele>
  <time>2026-08-28T17:56:34Z</time>
  <course>126.2</course>
  <speed>0.98</speed>
  <fix>3d</fix>
</trkpt>
<trkpt lat="40.0711921" lon="-105.2301235">
  <ele>1583.13</ele>
  <time>2026-08-28T17:56:34Z</time>
  <course>112.96</course>
  <speed>1.0373041983911953</speed>
  <fix>3d</fix>
</trkpt>
<trkpt lat="40.0711928" lon="-105.2301248">
  <ele>1583.0</ele>
  <time>2026-08-28T17:56:34Z</time>
  <course>124.45</course>
  <speed>1.02</speed>
  <fix>3d</fix>
</trkpt>
<trkpt lat="40.0711915" lon="-105.2301224">
  <ele>1583.13</ele>
  <time>2026-08-28T17:56:34Z</time>
  <course>113.48</course>
  <speed>1.0539449701004318</speed>
  <fix>3d</fix>
</trkpt>
<trkpt lat="40.0711928" lon="-105.2301248">
  <ele>1583.0</ele>
  <time>2026-08-28T17:56:34Z</time>
  <course>124.45</course>
  <speed>1.02</speed>
  <fix>3d</fix>
</trkpt>
<trkpt lat="40.071191" lon="-105.2301214">
  <ele>1583.13</ele>
  <time>2026-08-28T17:56:34Z</time>
  <course>114.06</course>
  <speed>1.0707007051459339</speed>
  <fix>3d</fix>
</trkpt>
<trkpt lat="40.0711917" lon="-105.2301227">
  <ele>1583.0</ele>
  <time>2026-08-28T17:56:34Z</time>
  <course>123.06</course>
  <speed>1.05</speed>
  <fix>3d</fix>
</trkpt>
<trkpt lat="40.0711905" lon="-105.2301203">
  <ele>1583.13</ele>
  <time>2026-08-28T17:56:34Z</time>
  <course>114.72</course>
  <speed>1.0791200118615167</speed>
  <fix>3d</fix>
</trkpt>
<trkpt lat="40.0711917" lon="-105.2301227">
  <ele>1583.0</ele>
  <time>2026-08-28T17:56:34Z</time>
  <course>123.06</course>
  <speed>1.05</speed>
  <fix>3d</fix>
</trkpt>
<trkpt lat="40.07119" lon="-105.2301192">
  <ele>1583.13</ele>
  <time>2026-08-28T17:56:34Z</time>
  <course>115.41</course>
  <speed>1.0960383204979651</speed>
  <fix>3d</fix>
</trkpt>
<trkpt lat="40.0711907" lon="-105.2301206">
  <ele>1583.0</ele>
  <time>2026-08-28T17:56:34Z</time>
  <course>121.98</course>
  <speed>1.08</speed>
  <fix>3d</fix>
</trkpt>
<trkpt lat="40.0711894" lon="-105.2301179">
  <ele>1583.14</ele>
  <time>2026-08-28T17:56:34Z</time>
  <course>116.3</course>
  <speed>1.104536101718726</speed>
  <fix>3d</fix>
</trkpt>
<trkpt lat="40.0711907" lon="-105.2301206">
  <ele>1583.0</ele>
  <time>2026-08-28T17:56:34Z</time>
  <course>121.98</course>
  <speed>1.08</speed>
  <fix>3d</fix>
</trkpt>
<trkpt lat="40.0711889" lon="-105.2301167">
  <ele>1583.14</ele>
  <time>2026-08-28T17:56:34Z</time>
  <course>117.1</course>
  <speed>1.1216059914247962</speed>
  <fix>3d</fix>
</trkpt>
<trkpt lat="40.0711897" lon="-105.2301184">
  <ele>1583.0</ele>
  <time>2026-08-28T17:56:34Z</time>
  <course>121.18</course>
  <speed>1.1</speed>
  <fix>3d</fix>
</trkpt>
<trkpt lat="40.0711883" lon="-105.2301156">
  <ele>1583.14</ele>
  <time>2026-08-28T17:56:34Z</time>
  <course>117.93</course>
  <speed>1.13017697729161</speed>
  <fix>3d</fix>
</trkpt>
<trkpt lat="40.0711897" lon="-105.2301184">
  <ele>1583.0</ele>
  <time>2026-08-28T17:56:34Z</time>
  <course>121.18</course>
  <speed>1.1</speed>
  <fix>3d</fix>
</trkpt>
<trkpt lat="40.0711878" lon="-105.2301145">
  <ele>1583.15</ele>
  <time>2026-08-28T17:56:34Z</time>
  <course>118.8</course>
  <speed>1.1387712676389408</speed>
  <fix>3d</fix>
</trkpt>
<trkpt lat="40.0711887" lon="-105.2301162">
  <ele>1583.0</ele>
  <time>2026-08-28T17:56:34Z</time>
  <course>120.64</course>
  <speed>1.12</speed>
  <fix>3d</fix>
</trkpt>
<trkpt lat="40.0711873" lon="-105.2301133">
  <ele>1583.15</ele>
  <time>2026-08-28T17:56:34Z</time>
  <course>119.72</course>
  <speed>1.1387712676389408</speed>
  <fix>3d</fix>
</trkpt>
<trkpt lat="40.0711887" lon="-105.2301162">
  <ele>1583.0</ele>
  <time>2026-08-28T17:56:34Z</time>
  <course>120.64</course>
  <speed>1.12</speed>
  <fix>3d</fix>
</trkpt>
<trkpt lat="40.0711868" lon="-105.2301121">
  <ele>1583.15</ele>
  <time>2026-08-28T17:56:34Z</time>
  <course>120.69</course>
  <speed>1.1524755962709146</speed>
  <fix>3d</fix>
</trkpt>
<trkpt lat="40.0711876" lon="-105.2301138">
  <ele>1583.0</ele>
  <time>2026-08-28T17:56:34Z</time>
  <course>120.33</course>
  <speed>1.14</speed>
  <fix>3d</fix>
</trkpt>
<trkpt lat="40.0711863" lon="-105.2301109">
  <ele>1583.16</ele>
  <time>2026-08-28T17:56:34Z</time>
  <course>121.69</course>
  <speed>1.161077086157504</speed>
  <fix>3d</fix>
</trkpt>
<trkpt lat="40.0711876" lon="-105.2301138">
  <ele>1583.0</ele>
  <time>2026-08-28T17:56:34Z</time>
  <course>120.33</course>
  <speed>1.14</speed>
  <fix>3d</fix>
</trkpt>
<trkpt lat="40.0711857" lon="-105.2301098">
  <ele>1583.16</ele>
  <time>2026-08-28T17:56:34Z</time>
  <course>122.71</course>
  <speed>1.161077086157504</speed>
  <fix>3d</fix>
</trkpt>
<trkpt lat="40.0711866" lon="-105.2301115">
  <ele>1583.0</ele>
  <time>2026-08-28T17:56:34Z</time>
  <course>120.23</course>
  <speed>1.16</speed>
  <fix>3d</fix>
</trkpt>
<trkpt lat="40.0711852" lon="-105.2301086">
  <ele>1583.16</ele>
  <time>2026-08-28T17:56:34Z</time>
  <course>123.78</course>
  <speed>1.16619037896906</speed>
  <fix>3d</fix>
</trkpt>
<trkpt lat="40.0711866" lon="-105.2301115">
  <ele>1583.0</ele>
  <time>2026-08-28T17:56:34Z</time>
  <course>120.23</course>
  <speed>1.16</speed>
  <fix>3d</fix>
</trkpt>
<trkpt lat="40.0711847" lon="-105.2301074">
  <ele>1583.16</ele>
  <time>2026-08-28T17:56:34Z</time>
  <course>124.89</course>
  <speed>1.1747765745025733</speed>
  <fix>3d</fix>
</trkpt>
<trkpt lat="40.0711855" lon="-105.2301092">
  <ele>1583.0</ele>
  <time>2026-08-28T17:56:34Z</time>
  <course>120.33</course>
  <speed>1.18</speed>
  <fix>3d</fix>
</trkpt>
<trkpt lat="40.0711842" lon="-105.2301062">
  <ele>1583.16</ele>
  <time>2026-08-28T17:56:34Z</time>
  <course>126.02</course>
  <speed>1.1799152511939153</speed>
  <fix>3d</fix>
</trkpt>
<trkpt lat="40.0711855" lon="-105.2301092">
  <ele>1583.0</ele>
  <time>2026-08-28T17:56:34Z</time>
  <course>120.33</course>
  <speed>1.18</speed>
  <fix>3d</fix>
</trkpt>
<trkpt lat="40.0711837" lon="-105.2301053">
  <ele>1583.16</ele>
  <time>2026-08-28T17:56:34Z</time>
  <course>126.94</course>
  <speed>1.1799152511939153</speed>
  <fix>3d</fix>
</trkpt>
<trkpt lat="40.0711844" lon="-105.2301067">
  <ele>1583.0</ele>
  <time>2026-08-28T17:56:34Z</time>
  <course>120.62</course>
  <speed>1.19</speed>
  <fix>3d</fix>
</trkpt>
<trkpt lat="40.0711832" lon="-105.2301041">
  <ele>1583.16</ele>
  <time>2026-08-28T17:56:34Z</time>
  <course>128.11</course>
  <speed>1.1851160280748885</speed>
  <fix>3d</fix>
</trkpt>
<trkpt lat="40.0711844" lon="-105.2301067">
  <ele>1583.0</ele>
  <time>2026-08-28T17:56:34Z</time>
  <course>120.62</course>
  <speed>1.19</speed>
  <fix>3d</fix>
</trkpt>
<trkpt lat="40.0711826" lon="-105.2301029">
  <ele>1583.16</ele>
  <time>2026-08-28T17:56:34Z</time>
  <course>129.29</course>
  <speed>1.1903780911962385</speed>
  <fix>3d</fix>
</trkpt>
<trkpt lat="40.0711833" lon="-105.2301042">
  <ele>1583.0</ele>
  <time>2026-08-28T17:56:34Z</time>
  <course>121.08</course>
  <speed>1.2</speed>
  <fix>3d</fix>
</trkpt>
<trkpt lat="40.071182" lon="-105.2301017">
  <ele>1583.17</ele>
  <time>2026-08-28T17:56:34Z</time>
  <course>130.49</course>
  <speed>1.1903780911962385</speed>
  <fix>3d</fix>
</trkpt>
<trkpt lat="40.0711833" lon="-105.2301042">
  <ele>1583.0</ele>
  <time>2026-08-28T17:56:35Z</time>
  <course>121.08</course>
  <speed>1.2</speed>
  <fix>3d</fix>
</trkpt>
<trkpt lat="40.0711815" lon="-105.2301005">
  <ele>1583.17</ele>
  <time>2026-08-28T17:56:35Z</time>
  <course>131.72</course>
  <speed>1.1872657663724664</speed>
  <fix>3d</fix>
</trkpt>
<trkpt lat="40.0711821" lon="-105.2301018">
  <ele>1583.0</ele>
  <time>2026-08-28T17:56:35Z</time>
  <course>121.69</course>
  <speed>1.21</speed>
  <fix>3d</fix>
</trkpt>
<trkpt lat="40.0711809" lon="-105.2300992">
  <ele>1583.17</ele>
  <time>2026-08-28T17:56:35Z</time>
  <course>132.93</course>
  <speed>1.1926860441876563</speed>
  <fix>3d</fix>
</trkpt>
<trkpt lat="40.0711821" lon="-105.2301018">
  <ele>1583.0</ele>
  <time>2026-08-28T17:56:35Z</time>
  <course>121.69</course>
  <speed>1.21</speed>
  <fix>3d</fix>
</trkpt>
<trkpt lat="40.0711803" lon="-105.230098">
  <ele>1583.17</ele>
  <time>2026-08-28T17:56:35Z</time>
  <course>134.15</course>
  <speed>1.1981652640600127</speed>
  <fix>3d</fix>
</trkpt>
<trkpt lat="40.071181" lon="-105.2300995">
  <ele>1583.0</ele>
  <time>2026-08-28T17:56:35Z</time>
  <course>122.45</course>
  <speed>1.21</speed>
  <fix>3d</fix>
</trkpt>
<trkpt lat="40.0711797" lon="-105.2300968">
  <ele>1583.17</ele>
  <time>2026-08-28T17:56:35Z</time>
  <course>135.4</course>
  <speed>1.1954078801814885</speed>
  <fix>3d</fix>
</trkpt>
<trkpt lat="40.071181" lon="-105.2300995">
  <ele>1583.0</ele>
  <time>2026-08-28T17:56:35Z</time>
  <course>122.45</course>
  <speed>1.21</speed>
  <fix>3d</fix>
</trkpt>
<trkpt lat="40.071179" lon="-105.2300957">
  <ele>1583.17</ele>
  <time>2026-08-28T17:56:35Z</time>
  <course>136.63</course>
  <speed>1.1928118040998756</speed>
  <fix>3d</fix>
</trkpt>
<trkpt lat="40.0711799" lon="-105.2300971">
  <ele>1583.0</ele>
  <time>2026-08-28T17:56:35Z</time>
  <course>123.34</course>
  <speed>1.22</speed>
  <fix>3d</fix>
</trkpt>
<trkpt lat="40.0711784" lon="-105.2300945">
  <ele>1583.17</ele>
  <time>2026-08-28T17:56:35Z</time>
  <course>137.87</course>
  <speed>1.1985407794480754</speed>
  <fix>3d</fix>
</trkpt>
<trkpt lat="40.0711799" lon="-105.2300971">
  <ele>1583.0</ele>
  <time>2026-08-28T17:56:35Z</time>
  <course>123.34</course>
  <speed>1.22</speed>
  <fix>3d</fix>
</trkpt>
<trkpt lat="40.0711777" lon="-105.2300931">
  <ele>1583.17</ele>
  <time>2026-08-28T17:56:35Z</time>
  <course>139.33</course>
  <speed>1.196202324023825</speed>
  <fix>3d</fix>
</trkpt>
<trkpt lat="40.0711786" lon="-105.2300947">
  <ele>1583.0</ele>
  <time>2026-08-28T17:56:35Z</time>
  <course>124.35</course>
  <speed>1.22</speed>
  <fix>3d</fix>
</trkpt>
<trkpt lat="40.071177" lon="-105.2300919">
  <ele>1583.17</ele>
  <time>2026-08-28T17:56:35Z</time>
  <course>140.56</course>
  <speed>1.194026800369238</speed>
  <fix>3d</fix>
</trkpt>
<trkpt lat="40.0711786" lon="-105.2300947">
  <ele>1583.0</ele>
  <time>2026-08-28T17:56:35Z</time>
  <course>124.35</course>
  <speed>1.22</speed>
  <fix>3d</fix>
</trkpt>
<trkpt lat="40.0711764" lon="-105.2300908">
  <ele>1583.17</ele>
  <time>2026-08-28T17:56:35Z</time>
  <course>141.76</course>
  <speed>1.1920151005754918</speed>
  <fix>3d</fix>
</trkpt>
<trkpt lat="40.0711773" lon="-105.2300923">
  <ele>1583.0</ele>
  <time>2026-08-28T17:56:35Z</time>
  <course>125.46</course>
  <speed>1.22</speed>
  <fix>3d</fix>
</trkpt>
<trkpt lat="40.0711757" lon="-105.2300896">
  <ele>1583.17</ele>
  <time>2026-08-28T17:56:35Z</time>
  <course>142.96</course>
  <speed>1.1901680553602503</speed>
  <fix>3d</fix>
</trkpt>
<trkpt lat="40.0711773" lon="-105.2300923">
  <ele>1583.0</ele>
  <time>2026-08-28T17:56:35Z</time>
  <course>125.46</course>
  <speed>1.22</speed>
  <fix>3d</fix>
</trkpt>
<trkpt lat="40.0711751" lon="-105.2300885">
  <ele>1583.17</ele>
  <time>2026-08-28T17:56:35Z</time>
  <course>144.13</course>
  <speed>1.1884864324004711</speed>
  <fix>3d</fix>
</trkpt>
<trkpt lat="40.0711761" lon="-105.23009">
  <ele>1583.0</ele>
  <time>2026-08-28T17:56:35Z</time>
  <course>126.66</course>
  <speed>1.21</speed>
  <fix>3d</fix>
</trkpt>
<trkpt lat="40.0711744" lon="-105.2300874">
  <ele>1583.16</ele>
  <time>2026-08-28T17:56:35Z</time>
  <course>145.3</course>
  <speed>1.1729023829799308</speed>
  <fix>3d</fix>
</trkpt>
<trkpt lat="40.0711761" lon="-105.23009">
  <ele>1583.0</ele>
  <time>2026-08-28T17:56:35Z</time>
  <course>126.66</course>
  <speed>1.21</speed>
  <fix>3d</fix>
</trkpt>
<trkpt lat="40.0711737" lon="-105.2300863">
  <ele>1583.16</ele>
  <time>2026-08-28T17:56:35Z</time>
  <course>146.44</course>
  <speed>1.1715374513859982</speed>
  <fix>3d</fix>
</trkpt>
<trkpt lat="40.0711747" lon="-105.2300877">
  <ele>1583.0</ele>
  <time>2026-08-28T17:56:35Z</time>
  <course>127.95</course>
  <speed>1.21</speed>
  <fix>3d</fix>
</trkpt>
<trkpt lat="40.0711731" lon="-105.2300852">
  <ele>1583.15</ele>
  <time>2026-08-28T17:56:35Z</time>
  <course>147.55</course>
  <speed>1.170341830406826</speed>
  <fix>3d</fix>
</trkpt>
<trkpt lat="40.0711747" lon="-105.2300877">
  <ele>1583.0</ele>
  <time>2026-08-28T17:56:35Z</time>
  <course>127.95</course>
  <speed>1.21</speed>
  <fix>3d</fix>
</trkpt>
<trkpt lat="40.0711724" lon="-105.2300842">
  <ele>1583.15</ele>
  <time>2026-08-28T17:56:35Z</time>
  <course>148.63</course>
  <speed>1.1693160394008115</speed>
  <fix>3d</fix>
</trkpt>
<trkpt lat="40.0711734" lon="-105.2300855">
  <ele>1583.0</ele>
  <time>2026-08-28T17:56:35Z</time>
  <course>129.3</course>
  <speed>1.2</speed>
  <fix>3d</fix>
</trkpt>
<trkpt lat="40.0711717" lon="-105.2300831">
  <ele>1583.15</ele>
  <time>2026-08-28T17:56:35Z</time>
  <course>149.69</course>
  <speed>1.1610340218959994</speed>
  <fix>3d</fix>
</trkpt>
<trkpt lat="40.0711734" lon="-105.2300855">
  <ele>1583.0</ele>
  <time>2026-08-28T17:56:35Z</time>
  <course>129.3</course>
  <speed>1.2</speed>
  <fix>3d</fix>
</trkpt>
<trkpt lat="40.071171" lon="-105.2300821">
  <ele>1583.14</ele>
  <time>2026-08-28T17:56:35Z</time>
  <course>150.72</course>
  <speed>1.1604309544302926</speed>
  <fix>3d</fix>
</trkpt>
<trkpt lat="40.071172" lon="-105.2300833">
  <ele>1583.0</ele>
  <time>2026-08-28T17:56:35Z</time>
  <course>130.7</course>
  <speed>1.2</speed>
  <fix>3d</fix>
</trkpt>
<trkpt lat="40.0711704" lon="-105.2300813">
  <ele>1583.14</ele>
  <time>2026-08-28T17:56:35Z</time>
  <course>151.53</course>
  <speed>1.153126185636247</speed>
  <fix>3d</fix>
</trkpt>
<trkpt lat="40.071172" lon="-105.2300833">
  <ele>1583.0</ele>
  <time>2026-08-28T17:56:35Z</time>
  <course>130.7</course>
  <speed>1.2</speed>
  <fix>3d</fix>
</trkpt>
<trkpt lat="40.0711697" lon="-105.2300803">
  <ele>1583.14</ele>
  <time>2026-08-28T17:56:35Z</time>
  <course>152.48</course>
  <speed>1.1456002793295748</speed>
  <fix>3d</fix>
</trkpt>
<trkpt lat="40.0711706" lon="-105.2300812">
  <ele>1583.0</ele>
  <time>2026-08-28T17:56:35Z</time>
  <course>132.15</course>
  <speed>1.19</speed>
  <fix>3d</fix>
</trkpt>
<trkpt lat="40.071169" lon="-105.2300793">
  <ele>1583.13</ele>
  <time>2026-08-28T17:56:35Z</time>
  <course>153.41</course>
  <speed>1.145512985522207</speed>
  <fix>3d</fix>
</trkpt>
<trkpt lat="40.0711706" lon="-105.2300812">
  <ele>1583.0</ele>
  <time>2026-08-28T17:56:35Z</time>
  <course>132.15</course>
  <speed>1.19</speed>
  <fix>3d</fix>
</trkpt>
<trkpt lat="40.0711682" lon="-105.2300783">
  <ele>1583.13</ele>
  <time>2026-08-28T17:56:35Z</time>
  <course>154.29</course>
  <speed>1.138639539099183</speed>
  <fix>3d</fix>
</trkpt>
<trkpt lat="40.0711691" lon="-105.2300791">
  <ele>1583.0</ele>
  <time>2026-08-28T17:56:35Z</time>
  <course>133.62</course>
  <speed>1.18</speed>
  <fix>3d</fix>
</trkpt>
<trkpt lat="40.0711675" lon="-105.2300773">
  <ele>1583.13</ele>
  <time>2026-08-28T17:56:35Z</time>
  <course>155.13</course>
  <speed>1.1317243480636088</speed>
  <fix>3d</fix>
</trkpt>
<trkpt lat="40.0711691" lon="-105.2300791">
  <ele>1583.0</ele>
  <time>2026-08-28T17:56:35Z</time>
  <course>133.62</course>
  <speed>1.18</speed>
  <fix>3d</fix>
</trkpt>
<trkpt lat="40.0711667" lon="-105.2300763">
  <ele>1583.14</ele>
  <time>2026-08-28T17:56:35Z</time>
  <course>155.95</course>
  <speed>1.1253888216967503</speed>
  <fix>3d</fix>
</trkpt>
<trkpt lat="40.0711676" lon="-105.2300772">
  <ele>1583.0</ele>
  <time>2026-08-28T17:56:35Z</time>
  <course>135.11</course>
  <speed>1.17</speed>
  <fix>3d</fix>
</trkpt>
<trkpt lat="40.071166" lon="-105.2300754">
  <ele>1583.13</ele>
  <time>2026-08-28T17:56:35Z</time>
  <course>156.73</course>
  <speed>1.1260994627474077</speed>
  <fix>3d</fix>
</trkpt>
<trkpt lat="40.0711676" lon="-105.2300772">
  <ele>1583.0</ele>
  <time>2026-08-28T17:56:35Z</time>
  <course>135.11</course>
  <speed>1.17</speed>
  <fix>3d</fix>
</trkpt>
<trkpt lat="40.0711652" lon="-105.2300745">
  <ele>1583.13</ele>
  <time>2026-08-28T17:56:35Z</time>
  <course>157.46</course>
  <speed>1.1128791488746657</speed>
  <fix>3d</fix>
</trkpt>
<trkpt lat="40.0711661" lon="-105.2300753">
  <ele>1583.0</ele>
  <time>2026-08-28T17:56:35Z</time>
  <course>136.6</course>
  <speed>1.16</speed>
  <fix>3d</fix>
</trkpt>
<trkpt lat="40.0711644" lon="-105.2300736">
  <ele>1583.13</ele>
  <time>2026-08-28T17:56:35Z</time>
  <course>158.12</course>
  <speed>1.1139569111954015</speed>
  <fix>3d</fix>
</trkpt>
<trkpt lat="40.0711661" lon="-105.2300753">
  <ele>1583.0</ele>
  <time>2026-08-28T17:56:35Z</time>
  <course>136.6</course>
  <speed>1.16</speed>
  <fix>3d</fix>
</trkpt>
<trkpt lat="40.0711636" lon="-105.2300727">
  <ele>1583.13</ele>
  <time>2026-08-28T17:56:35Z</time>
  <course>158.77</course>
  <speed>1.101135777277262</speed>
  <fix>3d</fix>
</trkpt>
<trkpt lat="40.0711646" lon="-105.2300735">
  <ele>1583.0</ele>
  <time>2026-08-28T17:56:35Z</time>
  <course>138.07</course>
  <speed>1.15</speed>
  <fix>3d</fix>
</trkpt>
<trkpt lat="40.0711627" lon="-105.2300717">
  <ele>1583.13</ele>
  <time>2026-08-28T17:56:35Z</time>
  <course>159.47</course>
  <speed>1.0963576058932596</speed>
  <fix>3d</fix>
</trkpt>
<trkpt lat="40.0711646" lon="-105.2300735">
  <ele>1583.0</ele>
  <time>2026-08-28T17:56:35Z</time>
  <course>138.07</course>
  <speed>1.15</speed>
  <fix>3d</fix>
</trkpt>
<trkpt lat="40.0711619" lon="-105.2300708">
  <ele>1583.13</ele>
  <time>2026-08-28T17:56:35Z</time>
  <course>160.01</course>
  <speed>1.0901834707974616</speed>
  <fix>3d</fix>
</trkpt>
<trkpt lat="40.071163" lon="-105.2300717">
  <ele>1583.0</ele>
  <time>2026-08-28T17:56:35Z</time>
  <course>139.53</course>
  <speed>1.14</speed>
  <fix>3d</fix>
</trkpt>
<trkpt lat="40.0711611" lon="-105.23007">
  <ele>1583.13</ele>
  <time>2026-08-28T17:56:35Z</time>
  <course>160.49</course>
  <speed>1.0860018416190647</speed>
  <fix>3d</fix>
</trkpt>
<trkpt lat="40.071163" lon="-105.2300717">
  <ele>1583.0</ele>
  <time>2026-08-28T17:56:35Z</time>
  <course>139.53</course>
  <speed>1.14</speed>
  <fix>3d</fix>
</trkpt>
<trkpt lat="40.0711603" lon="-105.2300692">
  <ele>1583.13</ele>
  <time>2026-08-28T17:56:35Z</time>
  <course>160.94</course>
  <speed>1.0800462953040486</speed>
  <fix>3d</fix>
</trkpt>
<trkpt lat="40.0711615" lon="-105.23007">
  <ele>1583.0</ele>
  <time>2026-08-28T17:56:35Z</time>
  <course>140.95</course>
  <speed>1.13</speed>
  <fix>3d</fix>
</trkpt>
<trkpt lat="40.0711595" lon="-105.2300684">
  <ele>1583.13</ele>
  <time>2026-08-28T17:56:35Z</time>
  <course>161.33</course>
  <speed>1.0764757312638311</speed>
  <fix>3d</fix>
</trkpt>
<trkpt lat="40.0711615" lon="-105.23007">
  <ele>1583.0</ele>
  <time>2026-08-28T17:56:35Z</time>
  <course>140.95</course>
  <speed>1.13</speed>
  <fix>3d</fix>
</trkpt>
<trkpt lat="40.0711587" lon="-105.2300676">
  <ele>1583.13</ele>
  <time>2026-08-28T17:56:35Z</time>
  <course>161.67</course>
  <speed>1.0707474025184465</speed>
  <fix>3d</fix>
</trkpt>
<trkpt lat="40.0711599" lon="-105.2300683">
  <ele>1583.0</ele>
  <time>2026-08-28T17:56:35Z</time>
  <course>142.34</course>
  <speed>1.11</speed>
  <fix>3d</fix>
</trkpt>
<trkpt lat="40.0711579" lon="-105.2300668">
  <ele>1583.13</ele>
  <time>2026-08-28T17:56:35Z</time>
  <course>161.98</course>
  <speed>1.0594810050208545</speed>
  <fix>3d</fix>
</trkpt>
<trkpt lat="40.0711599" lon="-105.2300683">
  <ele>1583.0</ele>
  <time>2026-08-28T17:56:35Z</time>
  <course>142.34</course>
  <speed>1.11</speed>
  <fix>3d</fix>
</trkpt>
<trkpt lat="40.0711571" lon="-105.2300661">
  <ele>1583.12</ele>
  <time>2026-08-28T17:56:35Z</time>
  <course>162.22</course>
  <speed>1.0539449701004318</speed>
  <fix>3d</fix>
</trkpt>
<trkpt lat="40.0711582" lon="-105.2300668">
  <ele>1583.0</ele>
  <time>2026-08-28T17:56:35Z</time>
  <course>143.67</course>
  <speed>1.1</speed>
  <fix>3d</fix>
</trkpt>
<trkpt lat="40.0711563" lon="-105.2300654">
  <ele>1583.12</ele>
  <time>2026-08-28T17:56:35Z</time>
  <course>162.42</course>
  <speed>1.0484750831564857</speed>
  <fix>3d</fix>
</trkpt>
<trkpt lat="40.0711582" lon="-105.2300668">
  <ele>1583.0</ele>
  <time>2026-08-28T17:56:35Z</time>
  <course>143.67</course>
  <speed>1.1</speed>
  <fix>3d</fix>
</trkpt>
<trkpt lat="40.0711555" lon="-105.2300647">
  <ele>1583.12</ele>
  <time>2026-08-28T17:56:35Z</time>
  <course>162.58</course>
  <speed>1.0377379245262264</speed>
  <fix>3d</fix>
</trkpt>
<trkpt lat="40.0711567" lon="-105.2300652">
  <ele>1583.0</ele>
  <time>2026-08-28T17:56:35Z</time>
  <course>144.94</course>
  <speed>1.09</speed>
  <fix>3d</fix>
</trkpt>
<trkpt lat="40.0711547" lon="-105.230064">
  <ele>1583.12</ele>
  <time>2026-08-28T17:56:35Z</time>
  <course>162.68</course>
  <speed>1.0410091258005378</speed>
  <fix>3d</fix>
</trkpt>
<trkpt lat="40.0711567" lon="-105.2300652">
  <ele>1583.0</ele>
  <time>2026-08-28T17:56:35Z</time>
  <course>144.94</course>
  <speed>1.09</speed>
  <fix>3d</fix>
</trkpt>
<trkpt lat="40.0711541" lon="-105.2300634">
  <ele>1583.12</ele>
  <time>2026-08-28T17:56:35Z</time>
  <course>162.75</course>
  <speed>1.035857133006285</speed>
  <fix>3d</fix>
</trkpt>
<trkpt lat="40.0711551" lon="-105.2300638">
  <ele>1583.0</ele>
  <time>2026-08-28T17:56:35Z</time>
  <course>146.14</course>
  <speed>1.08</speed>
  <fix>3d</fix>
</trkpt>
<trkpt lat="40.0711533" lon="-105.2300627">
  <ele>1583.12</ele>
  <time>2026-08-28T17:56:35Z</time>
  <course>162.78</course>
  <speed>1.0307764064044151</speed>
  <fix>3d</fix>
</trkpt>
<trkpt lat="40.0711551" lon="-105.2300638">
  <ele>1583.0</ele>
  <time>2026-08-28T17:56:35Z</time>
  <course>146.14</course>
  <speed>1.08</speed>
  <fix>3d</fix>
</trkpt>
<trkpt lat="40.0711525" lon="-105.2300621">
  <ele>1583.12</ele>
  <time>2026-08-28T17:56:35Z</time>
  <course>162.75</course>
  <speed>1.0257680049601858</speed>
  <fix>3d</fix>
</trkpt>
<trkpt lat="40.0711534" lon="-105.2300624">
  <ele>1583.0</ele>
  <time>2026-08-28T17:56:35Z</time>
  <course>147.27</course>
  <speed>1.07</speed>
  <fix>3d</fix>
</trkpt>
<trkpt lat="40.0711517" lon="-105.2300614">
  <ele>1583.12</ele>
  <time>2026-08-28T17:56:35Z</time>
  <course>162.68</course>
  <speed>1.0208329931972222</speed>
  <fix>3d</fix>
</trkpt>
<trkpt lat="40.0711534" lon="-105.2300624">
  <ele>1583.0</ele>
  <time>2026-08-28T17:56:35Z</time>
  <course>147.27</course>
  <speed>1.07</speed>
  <fix>3d</fix>
</trkpt>
<trkpt lat="40.0711509" lon="-105.2300608">
  <ele>1583.12</ele>
  <time>2026-08-28T17:56:35Z</time>
  <course>162.59</course>
  <speed>1.0159724405711013</speed>
  <fix>3d</fix>
</trkpt>
<trkpt lat="40.0711519" lon="-105.2300611">
  <ele>1583.0</ele>
  <time>2026-08-28T17:56:35Z</time>
  <course>148.31</course>
  <speed>1.05</speed>
  <fix>3d</fix>
</trkpt>
<trkpt lat="40.0711501" lon="-105.2300601">
  <ele>1583.12</ele>
  <time>2026-08-28T17:56:35Z</time>
  <course>162.44</course>
  <speed>1.0111874208078342</speed>
  <fix>3d</fix>
</trkpt>
<trkpt lat="40.0711519" lon="-105.2300611">
  <ele>1583.0</ele>
  <time>2026-08-28T17:56:35Z</time>
  <course>148.31</course>
  <speed>1.05</speed>
  <fix>3d</fix>
</trkpt>
<trkpt lat="40.0711493" lon="-105.2300595">
  <ele>1583.12</ele>
  <time>2026-08-28T17:56:35Z</time>
  <course>162.25</course>
  <speed>0.9976472322419383</speed>
  <fix>3d</fix>
</trkpt>
<trkpt lat="40.0711502" lon="-105.2300598">
  <ele>1583.0</ele>
  <time>2026-08-28T17:56:35Z</time>
  <course>149.26</course>
  <speed>1.04</speed>
  <fix>3d</fix>
</trkpt>
<trkpt lat="40.0711484" lon="-105.2300589">
  <ele>1583.12</ele>
  <time>2026-08-28T17:56:35Z</time>
  <course>162.02</course>
  <speed>0.9929753269845127</speed>
  <fix>3d</fix>
</trkpt>
<trkpt lat="40.0711502" lon="-105.2300598">
  <ele>1583.0</ele>
  <time>2026-08-28T17:56:35Z</time>
  <course>149.26</course>
  <speed>1.04</speed>
  <fix>3d</fix>
</trkpt>
<trkpt lat="40.0711476" lon="-105.2300583">
  <ele>1583.12</ele>
  <time>2026-08-28T17:56:35Z</time>
  <course>161.76</course>
  <speed>0.988382517044894</speed>
  <fix>3d</fix>
</trkpt>
<trkpt lat="40.0711486" lon="-105.2300586">
  <ele>1583.0</ele>
  <time>2026-08-28T17:56:35Z</time>
  <course>150.13</course>
  <speed>1.03</speed>
  <fix>3d</fix>
</trkpt>
<trkpt lat="40.0711468" lon="-105.2300577">
  <ele>1583.12</ele>
  <time>2026-08-28T17:56:35Z</time>
  <course>161.44</course>
  <speed>0.988382517044894</speed>
  <fix>3d</fix>
</trkpt>
<trkpt lat="40.0711486" lon="-105.2300586">
  <ele>1583.0</ele>
  <time>2026-08-28T17:56:35Z</time>
  <course>150.13</course>
  <speed>1.03</speed>
  <fix>3d</fix>
</trkpt>
<trkpt lat="40.0711459" lon="-105.230057">
  <ele>1583.12</ele>
  <time>2026-08-28T17:56:35Z</time>
  <course>161.02</course>
  <speed>0.9838699100999075</speed>
  <fix>3d</fix>
</trkpt>
<trkpt lat="40.0711469" lon="-105.2300573">
  <ele>1583.0</ele>
  <time>2026-08-28T17:56:35Z</time>
  <course>150.89</course>
  <speed>1.02</speed>
  <fix>3d</fix>
</trkpt>
<trkpt lat="40.0711451" lon="-105.2300564">
  <ele>1583.12</ele>
  <time>2026-08-28T17:56:35Z</time>
  <course>160.64</course>
  <speed>0.9794386147176352</speed>
  <fix>3d</fix>
</trkpt>
<trkpt lat="40.0711469" lon="-105.2300573">
  <ele>1583.0</ele>
  <time>2026-08-28T17:56:35Z</time>
  <course>150.89</course>
  <speed>1.02</speed>
  <fix>3d</fix>
</trkpt>
<trkpt lat="40.0711443" lon="-105.2300559">
  <ele>1583.11</ele>
  <time>2026-08-28T17:56:35Z</time>
  <course>160.23</course>
  <speed>0.9794386147176352</speed>
  <fix>3d</fix>
</trkpt>
<trkpt lat="40.0711454" lon="-105.2300562">
  <ele>1583.0</ele>
  <time>2026-08-28T17:56:35Z</time>
  <course>151.55</course>
  <speed>1.01</speed>
  <fix>3d</fix>
</trkpt>
<trkpt lat="40.0711434" lon="-105.2300553">
  <ele>1583.11</ele>
  <time>2026-08-28T17:56:35Z</time>
  <course>159.79</course>
  <speed>0.9660745312862771</speed>
  <fix>3d</fix>
</trkpt>
<trkpt lat="40.0711454" lon="-105.2300562">
  <ele>1583.0</ele>
  <time>2026-08-28T17:56:35Z</time>
  <course>151.55</course>
  <speed>1.01</speed>
  <fix>3d</fix>
</trkpt>
<trkpt lat="40.0711426" lon="-105.2300548">
  <ele>1583.11</ele>
  <time>2026-08-28T17:56:35Z</time>
  <course>159.29</course>
  <speed>0.9617692030835673</speed>
  <fix>3d</fix>
</trkpt>
<trkpt lat="40.0711438" lon="-105.2300551">
  <ele>1583.0</ele>
  <time>2026-08-28T17:56:35Z</time>
  <course>152.12</course>
  <speed>1.0</speed>
  <fix>3d</fix>
</trkpt>
<trkpt lat="40.0711419" lon="-105.2300542">
  <ele>1583.11</ele>
  <time>2026-08-28T17:56:35Z</time>
  <course>158.77</course>
  <speed>0.9617692030835673</speed>
  <fix>3d</fix>
</trkpt>
<trkpt lat="40.0711438" lon="-105.2300551">
  <ele>1583.0</ele>
  <time>2026-08-28T17:56:35Z</time>
  <course>152.12</course>
  <speed>1.0</speed>
  <fix>3d</fix>
</trkpt>
<trkpt lat="40.0711411" lon="-105.2300537">
  <ele>1583.12</ele>
  <time>2026-08-28T17:56:35Z</time>
  <course>158.24</course>
  <speed>0.9617692030835673</speed>
  <fix>3d</fix>
</trkpt>
<trkpt lat="40.0711422" lon="-105.230054">
  <ele>1583.0</ele>
  <time>2026-08-28T17:56:35Z</time>
  <course>152.57</course>
  <speed>0.99</speed>
  <fix>3d</fix>
</trkpt>
<trkpt lat="40.0711403" lon="-105.2300532">
  <ele>1583.12</ele>
  <time>2026-08-28T17:56:35Z</time>
  <course>157.67</course>
  <speed>0.94847245611035</speed>
  <fix>3d</fix>
</trkpt>
<trkpt lat="40.0711422" lon="-105.230054">
  <ele>1583.0</ele>
  <time>2026-08-28T17:56:35Z</time>
  <course>152.57</course>
  <speed>0.99</speed>
  <fix>3d</fix>
</trkpt>
<trkpt lat="40.0711395" lon="-105.2300526">
  <ele>1583.12</ele>
  <time>2026-08-28T17:56:35Z</time>
  <course>157.07</course>
  <speed>0.94847245611035</speed>
  <fix>3d</fix>
</trkpt>
<trkpt lat="40.0711405" lon="-105.230053">
  <ele>1583.0</ele>
  <time>2026-08-28T17:56:35Z</time>
  <course>152.91</course>
  <speed>0.98</speed>
  <fix>3d</fix>
</trkpt>
<trkpt lat="40.0711387" lon="-105.2300521">
  <ele>1583.12</ele>
  <time>2026-08-28T17:56:35Z</time>
  <course>156.47</course>
  <speed>0.94847245611035</speed>
  <fix>3d</fix>
</trkpt>
<trkpt lat="40.0711405" lon="-105.230053">
  <ele>1583.0</ele>
  <time>2026-08-28T17:56:35Z</time>
  <course>152.91</course>
  <speed>0.98</speed>
  <fix>3d</fix>
</trkpt>
<trkpt lat="40.0711379" lon="-105.2300516">
  <ele>1583.12</ele>
  <time>2026-08-28T17:56:35Z</time>
  <course>155.83</course>
  <speed>0.935200513259055</speed>
  <fix>3d</fix>
</trkpt>
<trkpt lat="40.071139" lon="-105.2300519">
  <ele>1583.0</ele>
  <time>2026-08-28T17:56:35Z</time>
  <course>153.15</course>
  <speed>0.98</speed>
  <fix>3d</fix>
</trkpt>
<trkpt lat="40.0711373" lon="-105.2300512">
  <ele>1583.12</ele>
  <time>2026-08-28T17:56:35Z</time>
  <course>155.3</course>
  <speed>0.935200513259055</speed>
  <fix>3d</fix>
</trkpt>
<trkpt lat="40.071139" lon="-105.2300519">
  <ele>1583.0</ele>
  <time>2026-08-28T17:56:35Z</time>
  <course>153.15</course>
  <speed>0.98</speed>
  <fix>3d</fix>
</trkpt>
<trkpt lat="40.0711366" lon="-105.2300507">
  <ele>1583.12</ele>
  <time>2026-08-28T17:56:35Z</time>
  <course>154.63</course>
  <speed>0.935200513259055</speed>
  <fix>3d</fix>
</trkpt>
<trkpt lat="40.0711375" lon="-105.2300509">
  <ele>1583.0</ele>
  <time>2026-08-28T17:56:35Z</time>
  <course>153.28</course>
  <speed>0.97</speed>
  <fix>3d</fix>
</trkpt>
<trkpt lat="40.0711358" lon="-105.2300502">
  <ele>1583.12</ele>
  <time>2026-08-28T17:56:35Z</time>
  <course>153.92</course>
  <speed>0.935200513259055</speed>
  <fix>3d</fix>
</trkpt>
<trkpt lat="40.0711375" lon="-105.2300509">
  <ele>1583.0</ele>
  <time>2026-08-28T17:56:35Z</time>
  <course>153.28</course>
  <speed>0.97</speed>
  <fix>3d</fix>
</trkpt>
<trkpt lat="40.071135" lon="-105.2300497">
  <ele>1583.12</ele>
  <time>2026-08-28T17:56:35Z</time>
  <course>153.27</course>
  <speed>0.9261209424259879</speed>
  <fix>3d</fix>
</trkpt>
<trkpt lat="40.0711359" lon="-105.2300499">
  <ele>1583.0</ele>
  <time>2026-08-28T17:56:35Z</time>
  <course>153.3</course>
  <speed>0.96</speed>
  <fix>3d</fix>
</trkpt>
<trkpt lat="40.0711342" lon="-105.2300491">
  <ele>1583.13</ele>
  <time>2026-08-28T17:56:35Z</time>
  <course>152.58</course>
  <speed>0.9261209424259879</speed>
  <fix>3d</fix>
</trkpt>
<trkpt lat="40.0711359" lon="-105.2300499">
  <ele>1583.0</ele>
  <time>2026-08-28T17:56:35Z</time>
  <course>153.3</course>
  <speed>0.96</speed>
  <fix>3d</fix>
</trkpt>
<trkpt lat="40.0711335" lon="-105.2300486">
  <ele>1583.13</ele>
  <time>2026-08-28T17:56:35Z</time>
  <course>151.88</course>
  <speed>0.9261209424259879</speed>
  <fix>3d</fix>
</trkpt>
<trkpt lat="40.0711343" lon="-105.2300489">
  <ele>1583.0</ele>
  <time>2026-08-28T17:56:35Z</time>
  <course>153.22</course>
  <speed>0.96</speed>
  <fix>3d</fix>
</trkpt>
<trkpt lat="40.0711327" lon="-105.2300481">
  <ele>1583.13</ele>
  <time>2026-08-28T17:56:35Z</time>
  <course>151.16</course>
  <speed>0.9261209424259879</speed>
  <fix>3d</fix>
</trkpt>
<trkpt lat="40.0711343" lon="-105.2300489">
  <ele>1583.0</ele>
  <time>2026-08-28T17:56:35Z</time>
  <course>153.22</course>
  <speed>0.96</speed>
  <fix>3d</fix>
</trkpt>
<trkpt lat="40.0711319" lon="-105.2300476">
  <ele>1583.12</ele>
  <time>2026-08-28T17:56:35Z</time>
  <course>150.4</course>
  <speed>0.91706052144883</speed>
  <fix>3d</fix>
</trkpt>
<trkpt lat="40.0711328" lon="-105.2300478">
  <ele>1583.0</ele>
  <time>2026-08-28T17:56:35Z</time>
  <course>153.04</course>
  <speed>0.95</speed>
  <fix>3d</fix>
</trkpt>
<trkpt lat="40.0711312" lon="-105.2300471">
  <ele>1583.12</ele>
  <time>2026-08-28T17:56:35Z</time>
  <course>149.68</course>
  <speed>0.9213576938409967</speed>
  <fix>3d</fix>
</trkpt>
<trkpt lat="40.0711328" lon="-105.2300478">
  <ele>1583.0</ele>
  <time>2026-08-28T17:56:35Z</time>
  <course>153.04</course>
  <speed>0.95</speed>
  <fix>3d</fix>
</trkpt>
<trkpt lat="40.0711302" lon="-105.2300465">
  <ele>1583.12</ele>
  <time>2026-08-28T17:56:35Z</time>
  <course>148.78</course>
  <speed>0.9213576938409967</speed>
  <fix>3d</fix>
</trkpt>
<trkpt lat="40.0711313" lon="-105.2300468">
  <ele>1583.0</ele>
  <time>2026-08-28T17:56:35Z</time>
  <course>152.76</course>
  <speed>0.95</speed>
  <fix>3d</fix>
</trkpt>
<trkpt lat="40.0711295" lon="-105.2300459">
  <ele>1583.12</ele>
  <time>2026-08-28T17:56:35Z</time>
  <course>148.01</course>
  <speed>0.9123595782365634</speed>
  <fix>3d</fix>
</trkpt>
<trkpt lat="40.0711313" lon="-105.2300468">
  <ele>1583.0</ele>
  <time>2026-08-28T17:56:35Z</time>
  <course>152.76</course>
  <speed>0.95</speed>
  <fix>3d</fix>
</trkpt>
<trkpt lat="40.0711287" lon="-105.2300454">
  <ele>1583.11</ele>
  <time>2026-08-28T17:56:35Z</time>
  <course>147.27</course>
  <speed>0.9123595782365634</speed>
  <fix>3d</fix>
</trkpt>
<trkpt lat="40.0711297" lon="-105.2300458">
  <ele>1583.0</ele>
  <time>2026-08-28T17:56:35Z</time>
  <course>152.38</course>
  <speed>0.94</speed>
  <fix>3d</fix>
</trkpt>
<trkpt lat="40.071128" lon="-105.2300449">
  <ele>1583.11</ele>
  <time>2026-08-28T17:56:35Z</time>
  <course>146.54</course>
  <speed>0.9167878707749137</speed>
  <fix>3d</fix>
</trkpt>
<trkpt lat="40.0711297" lon="-105.2300458">
  <ele>1583.0</ele>
  <time>2026-08-28T17:56:35Z</time>
  <course>152.38</course>
  <speed>0.94</speed>
  <fix>3d</fix>
</trkpt>
<trkpt lat="40.0711272" lon="-105.2300444">
  <ele>1583.11</ele>
  <time>2026-08-28T17:56:35Z</time>
  <course>145.81</course>
  <speed>0.9078546139112804</speed>
  <fix>3d</fix>
</trkpt>
<trkpt lat="40.0711282" lon="-105.2300447">
  <ele>1583.0</ele>
  <time>2026-08-28T17:56:35Z</time>
  <course>151.91</course>
  <speed>0.94</speed>
  <fix>3d</fix>
</trkpt>
<trkpt lat="40.0711265" lon="-105.2300438">
  <ele>1583.12</ele>
  <time>2026-08-28T17:56:35Z</time>
  <course>145.07</course>
  <speed>0.912414379544733</speed>
  <fix>3d</fix>
</trkpt>
<trkpt lat="40.0711282" lon="-105.2300447">
  <ele>1583.0</ele>
  <time>2026-08-28T17:56:35Z</time>
  <course>151.91</course>
  <speed>0.94</speed>
  <fix>3d</fix>
</trkpt>
<trkpt lat="40.0711257" lon="-105.2300433">
  <ele>1583.12</ele>
  <time>2026-08-28T17:56:35Z</time>
  <course>144.33</course>
  <speed>0.912414379544733</speed>
  <fix>3d</fix>
</trkpt>
<trkpt lat="40.0711267" lon="-105.2300437">
  <ele>1583.0</ele>
  <time>2026-08-28T17:56:35Z</time>
  <course>151.36</course>
  <speed>0.94</speed>
  <fix>3d</fix>
</trkpt>
<trkpt lat="40.071125" lon="-105.2300427">
  <ele>1583.12</ele>
  <time>2026-08-28T17:56:35Z</time>
  <course>143.61</course>
  <speed>0.9035485598461215</speed>
  <fix>3d</fix>
</trkpt>
<trkpt lat="40.0711267" lon="-105.2300437">
  <ele>1583.0</ele>
  <time>2026-08-28T17:56:35Z</time>
  <course>151.36</course>
  <speed>0.94</speed>
  <fix>3d</fix>
</trkpt>
<trkpt lat="40.0711243" lon="-105.2300422">
  <ele>1583.12</ele>
  <time>2026-08-28T17:56:35Z</time>
  <course>142.91</course>
  <speed>0.9082400563727632</speed>
  <fix>3d</fix>
</trkpt>
<trkpt lat="40.0711253" lon="-105.2300426">
  <ele>1583.0</ele>
  <time>2026-08-28T17:56:35Z</time>
  <course>150.73</course>
  <speed>0.94</speed>
  <fix>3d</fix>
</trkpt>
<trkpt lat="40.0711235" lon="-105.2300416">
  <ele>1583.13</ele>
  <time>2026-08-28T17:56:35Z</time>
  <course>142.21</course>
  <speed>0.9082400563727632</speed>
  <fix>3d</fix>
</trkpt>
<trkpt lat="40.0711253" lon="-105.2300426">
  <ele>1583.0</ele>
  <time>2026-08-28T17:56:35Z</time>
  <course>150.73</course>
  <speed>0.94</speed>
  <fix>3d</fix>
</trkpt>
<trkpt lat="40.0711228" lon="-105.2300411">
  <ele>1583.12</ele>
  <time>2026-08-28T17:56:35Z</time>
  <course>141.52</course>
  <speed>0.904267659490264</speed>
  <fix>3d</fix>
</trkpt>
<trkpt lat="40.0711238" lon="-105.2300415">
  <ele>1583.0</ele>
  <time>2026-08-28T17:56:35Z</time>
  <course>150.03</course>
  <speed>0.93</speed>
  <fix>3d</fix>
</trkpt>
<trkpt lat="40.0711221" lon="-105.2300405">
  <ele>1583.12</ele>
  <time>2026-08-28T17:56:35Z</time>
  <course>140.85</course>
  <speed>0.904267659490264</speed>
  <fix>3d</fix>
</trkpt>
<trkpt lat="40.0711238" lon="-105.2300415">
  <ele>1583.0</ele>
  <time>2026-08-28T17:56:35Z</time>
  <course>150.03</course>
  <speed>0.93</speed>
  <fix>3d</fix>
</trkpt>
<trkpt lat="40.0711215" lon="-105.2300401">
  <ele>1583.12</ele>
  <time>2026-08-28T17:56:35Z</time>
  <course>140.33</course>
  <speed>0.900499861188218</speed>
  <fix>3d</fix>
</trkpt>
<trkpt lat="40.0711224" lon="-105.2300404">
  <ele>1583.0</ele>
  <time>2026-08-28T17:56:35Z</time>
  <course>149.27</course>
  <speed>0.93</speed>
  <fix>3d</fix>
</trkpt>
<trkpt lat="40.0711208" lon="-105.2300395">
  <ele>1583.12</ele>
  <time>2026-08-28T17:56:35Z</time>
  <course>139.67</course>
  <speed>0.900499861188218</speed>
  <fix>3d</fix>
</trkpt>
<trkpt lat="40.0711224" lon="-105.2300404">
  <ele>1583.0</ele>
  <time>2026-08-28T17:56:35Z</time>
  <course>149.27</course>
  <speed>0.93</speed>
  <fix>3d</fix>
</trkpt>
<trkpt lat="40.0711201" lon="-105.2300389">
  <ele>1583.12</ele>
  <time>2026-08-28T17:56:35Z</time>
  <course>139.07</course>
  <speed>0.9055385138137417</speed>
  <fix>3d</fix>
</trkpt>
<trkpt lat="40.0711209" lon="-105.2300392">
  <ele>1583.0</ele>
  <time>2026-08-28T17:56:35Z</time>
  <course>148.47</course>
  <speed>0.93</speed>
  <fix>3d</fix>
</trkpt>
<trkpt lat="40.0711194" lon="-105.2300383">
  <ele>1583.13</ele>
  <time>2026-08-28T17:56:35Z</time>
  <course>138.46</course>
  <speed>0.9021086409075129</speed>
  <fix>3d</fix>
</trkpt>
<trkpt lat="40.0711209" lon="-105.2300392">
  <ele>1583.0</ele>
  <time>2026-08-28T17:56:35Z</time>
  <course>148.47</course>
  <speed>0.93</speed>
  <fix>3d</fix>
</trkpt>
<trkpt lat="40.0711187" lon="-105.2300377">
  <ele>1583.12</ele>
  <time>2026-08-28T17:56:35Z</time>
  <course>137.87</course>
  <speed>0.9021086409075129</speed>
  <fix>3d</fix>
</trkpt>
<trkpt lat="40.0711194" lon="-105.2300381">
  <ele>1583.0</ele>
  <time>2026-08-28T17:56:35Z</time>
  <course>147.62</course>
  <speed>0.93</speed>
  <fix>3d</fix>
</trkpt>
<trkpt lat="40.071118" lon="-105.2300371">
  <ele>1583.12</ele>
  <time>2026-08-28T17:56:35Z</time>
  <course>137.31</course>
  <speed>0.9073588044428731</speed>
  <fix>3d</fix>
</trkpt>
<trkpt lat="40.0711194" lon="-105.2300381">
  <ele>1583.0</ele>
  <time>2026-08-28T17:56:35Z</time>
  <course>147.62</course>
  <speed>0.93</speed>
  <fix>3d</fix>
</trkpt>
<trkpt lat="40.0711173" lon="-105.2300365">
  <ele>1583.12</ele>
  <time>2026-08-28T17:56:35Z</time>
  <course>136.8</course>
  <speed>0.904267659490264</speed>
  <fix>3d</fix>
</trkpt>
<trkpt lat="40.0711181" lon="-105.2300369">
  <ele>1583.0</ele>
  <time>2026-08-28T17:56:35Z</time>
  <course>146.74</course>
  <speed>0.93</speed>
  <fix>3d</fix>
</trkpt>
<trkpt lat="40.0711166" lon="-105.2300359">
  <ele>1583.12</ele>
  <time>2026-08-28T17:56:35Z</time>
  <course>136.25</course>
  <speed>0.904267659490264</speed>
  <fix>3d</fix>
</trkpt>
<trkpt lat="40.0711181" lon="-105.2300369">
  <ele>1583.0</ele>
  <time>2026-08-28T17:56:35Z</time>
  <course>146.74</course>
  <speed>0.93</speed>
  <fix>3d</fix>
</trkpt>
<trkpt lat="40.0711159" lon="-105.2300352">
  <ele>1583.12</ele>
  <time>2026-08-28T17:56:35Z</time>
  <course>135.77</course>
  <speed>0.9013878188659973</speed>
  <fix>3d</fix>
</trkpt>
<trkpt lat="40.0711167" lon="-105.2300357">
  <ele>1583.0</ele>
  <time>2026-08-28T17:56:35Z</time>
  <course>145.84</course>
  <speed>0.93</speed>
  <fix>3d</fix>
</trkpt>
<trkpt lat="40.071115" lon="-105.2300345">
  <ele>1583.12</ele>
  <time>2026-08-28T17:56:35Z</time>
  <course>135.21</course>
  <speed>0.9069729874698585</speed>
  <fix>3d</fix>
</trkpt>
<trkpt lat="40.0711167" lon="-105.2300357">
  <ele>1583.0</ele>
  <time>2026-08-28T17:56:35Z</time>
  <course>145.84</course>
  <speed>0.93</speed>
  <fix>3d</fix>
</trkpt>
<trkpt lat="40.0711144" lon="-105.2300338">
  <ele>1583.12</ele>
  <time>2026-08-28T17:56:35Z</time>
  <course>134.75</course>
  <speed>0.9069729874698585</speed>
  <fix>3d</fix>
</trkpt>
<trkpt lat="40.0711153" lon="-105.2300344">
  <ele>1583.0</ele>
  <time>2026-08-28T17:56:35Z</time>
  <course>144.92</course>
  <speed>0.93</speed>
  <fix>3d</fix>
</trkpt>
<trkpt lat="40.0711137" lon="-105.2300332">
  <ele>1583.12</ele>
  <time>2026-08-28T17:56:35Z</time>
  <course>134.34</course>
  <speed>0.904433524367601</speed>
  <fix>3d</fix>
</trkpt>
<trkpt lat="40.0711153" lon="-105.2300344">
  <ele>1583.0</ele>
  <time>2026-08-28T17:56:35Z</time>
  <course>144.92</course>
  <speed>0.93</speed>
  <fix>3d</fix>
</trkpt>
<trkpt lat="40.071113" lon="-105.2300325">
  <ele>1583.11</ele>
  <time>2026-08-28T17:56:35Z</time>
  <course>133.97</course>
  <speed>0.9102197536858887</speed>
  <fix>3d</fix>
</trkpt>
<trkpt lat="40.0711139" lon="-105.2300332">
  <ele>1583.0</ele>
  <time>2026-08-28T17:56:35Z</time>
  <course>144.01</course>
  <speed>0.93</speed>
  <fix>3d</fix>
</trkpt>
<trkpt lat="40.0711123" lon="-105.2300319">
  <ele>1583.11</ele>
  <time>2026-08-28T17:56:35Z</time>
  <course>133.57</course>
  <speed>0.9021086409075129</speed>
  <fix>3d</fix>
</trkpt>
<trkpt lat="40.0711139" lon="-105.2300332">
  <ele>1583.0</ele>
  <time>2026-08-28T17:56:35Z</time>
  <course>144.01</course>
  <speed>0.93</speed>
  <fix>3d</fix>
</trkpt>
<trkpt lat="40.0711117" lon="-105.2300312">
  <ele>1583.11</ele>
  <time>2026-08-28T17:56:35Z</time>
  <course>133.22</course>
  <speed>0.9080198235721508</speed>
  <fix>3d</fix>
</trkpt>
<trkpt lat="40.0711126" lon="-105.2300319">
  <ele>1583.0</ele>
  <time>2026-08-28T17:56:35Z</time>
  <course>143.09</course>
  <speed>0.93</speed>
  <fix>3d</fix>
</trkpt>
<trkpt lat="40.071111" lon="-105.2300305">
  <ele>1583.11</ele>
  <time>2026-08-28T17:56:35Z</time>
  <course>132.91</course>
  <speed>0.9140021881811882</speed>
  <fix>3d</fix>
</trkpt>
<trkpt lat="40.0711126" lon="-105.2300319">
  <ele>1583.0</ele>
  <time>2026-08-28T17:56:35Z</time>
  <course>143.09</course>
  <speed>0.93</speed>
  <fix>3d</fix>
</trkpt>
<trkpt lat="40.0711103" lon="-105.2300298">
  <ele>1583.11</ele>
  <time>2026-08-28T17:56:35Z</time>
  <course>132.63</course>
  <speed>0.9060353193998566</speed>
  <fix>3d</fix>
</trkpt>
<trkpt lat="40.0711112" lon="-105.2300305">
  <ele>1583.0</ele>
  <time>2026-08-28T17:56:35Z</time>
  <course>142.19</course>
  <speed>0.93</speed>
  <fix>3d</fix>
</trkpt>
<trkpt lat="40.0711097" lon="-105.2300291">
  <ele>1583.11</ele>
  <time>2026-08-28T17:56:35Z</time>
  <course>132.34</course>
  <speed>0.9121403400793103</speed>
  <fix>3d</fix>
</trkpt>
<trkpt lat="40.0711112" lon="-105.2300305">
  <ele>1583.0</ele>
  <time>2026-08-28T17:56:35Z</time>
  <course>142.19</course>
  <speed>0.93</speed>
  <fix>3d</fix>
</trkpt>
<trkpt lat="40.071109" lon="-105.2300285">
  <ele>1583.11</ele>
  <time>2026-08-28T17:56:35Z</time>
  <course>132.09</course>
  <speed>0.904267659490264</speed>
  <fix>3d</fix>
</trkpt>
<trkpt lat="40.0711099" lon="-105.2300291">
  <ele>1583.0</ele>
  <time>2026-08-28T17:56:35Z</time>
  <course>141.32</course>
  <speed>0.93</speed>
  <fix>3d</fix>
</trkpt>
<trkpt lat="40.0711084" lon="-105.2300278">
  <ele>1583.11</ele>
  <time>2026-08-28T17:56:35Z</time>
  <course>131.89</course>
  <speed>0.910494371207203</speed>
  <fix>3d</fix>
</trkpt>
<trkpt lat="40.0711099" lon="-105.2300291">
  <ele>1583.0</ele>
  <time>2026-08-28T17:56:35Z</time>
  <course>141.32</course>
  <speed>0.93</speed>
  <fix>3d</fix>
</trkpt>
<trkpt lat="40.0711079" lon="-105.2300272">
  <ele>1583.11</ele>
  <time>2026-08-28T17:56:35Z</time>
  <course>131.74</course>
  <speed>0.910494371207203</speed>
  <fix>3d</fix>
</trkpt>
<trkpt lat="40.0711086" lon="-105.2300277">
  <ele>1583.0</ele>
  <time>2026-08-28T17:56:35Z</time>
  <course>140.47</course>
  <speed>0.94</speed>
  <fix>3d</fix>
</trkpt>
<trkpt lat="40.0711072" lon="-105.2300265">
  <ele>1583.12</ele>
  <time>2026-08-28T17:56:35Z</time>
  <course>131.54</course>
  <speed>0.9090654541890809</speed>
  <fix>3d</fix>
</trkpt>
<trkpt lat="40.0711086" lon="-105.2300277">
  <ele>1583.0</ele>
  <time>2026-08-28T17:56:35Z</time>
  <course>140.47</course>
  <speed>0.94</speed>
  <fix>3d</fix>
</trkpt>
<trkpt lat="40.0711066" lon="-105.2300257">
  <ele>1583.12</ele>
  <time>2026-08-28T17:56:35Z</time>
  <course>131.39</course>
  <speed>0.9090654541890809</speed>
  <fix>3d</fix>
</trkpt>
<trkpt lat="40.0711073" lon="-105.2300264">
  <ele>1583.0</ele>
  <time>2026-08-28T17:56:35Z</time>
  <course>139.66</course>
  <speed>0.94</speed>
  <fix>3d</fix>
</trkpt>
<trkpt lat="40.0711059" lon="-105.230025">
  <ele>1583.12</ele>
  <time>2026-08-28T17:56:35Z</time>
  <course>131.29</course>
  <speed>0.9154780172128657</speed>
  <fix>3d</fix>
</trkpt>
<trkpt lat="40.0711073" lon="-105.2300264">
  <ele>1583.0</ele>
  <time>2026-08-28T17:56:35Z</time>
  <course>139.66</course>
  <speed>0.94</speed>
  <fix>3d</fix>
</trkpt>
<trkpt lat="40.0711053" lon="-105.2300243">
  <ele>1583.13</ele>
  <time>2026-08-28T17:56:35Z</time>
  <course>131.19</course>
  <speed>0.9143850392476902</speed>
  <fix>3d</fix>
</trkpt>
<trkpt lat="40.071106" lon="-105.2300249">
  <ele>1583.0</ele>
  <time>2026-08-28T17:56:35Z</time>
  <course>138.88</course>
  <speed>0.94</speed>
  <fix>3d</fix>
</trkpt>
<trkpt lat="40.0711047" lon="-105.2300235">
  <ele>1583.13</ele>
  <time>2026-08-28T17:56:35Z</time>
  <course>131.11</course>
  <speed>0.9143850392476902</speed>
  <fix>3d</fix>
</trkpt>
<trkpt lat="40.071106" lon="-105.2300249">
  <ele>1583.0</ele>
  <time>2026-08-28T17:56:35Z</time>
  <course>138.88</course>
  <speed>0.94</speed>
  <fix>3d</fix>
</trkpt>
<trkpt lat="40.071104" lon="-105.2300228">
  <ele>1583.13</ele>
  <time>2026-08-28T17:56:35Z</time>
  <course>131.06</course>
  <speed>0.9209777413162601</speed>
  <fix>3d</fix>
</trkpt>
<trkpt lat="40.0711048" lon="-105.2300234">
  <ele>1583.0</ele>
  <time>2026-08-28T17:56:35Z</time>
  <course>138.16</course>
  <speed>0.94</speed>
  <fix>3d</fix>
</trkpt>
<trkpt lat="40.0711034" lon="-105.230022">
  <ele>1583.13</ele>
  <time>2026-08-28T17:56:35Z</time>
  <course>131.03</course>
  <speed>0.9209777413162601</speed>
  <fix>3d</fix>
</trkpt>
<trkpt lat="40.0711048" lon="-105.2300234">
  <ele>1583.0</ele>
  <time>2026-08-28T17:56:35Z</time>
  <course>138.16</course>
  <speed>0.94</speed>
  <fix>3d</fix>
</trkpt>
<trkpt lat="40.0711028" lon="-105.2300213">
  <ele>1583.13</ele>
  <time>2026-08-28T17:56:35Z</time>
  <course>131.02</course>
  <speed>0.9202173656261873</speed>
  <fix>3d</fix>
</trkpt>
<trkpt lat="40.0711035" lon="-105.2300219">
  <ele>1583.0</ele>
  <time>2026-08-28T17:56:35Z</time>
  <course>137.48</course>
  <speed>0.94</speed>
  <fix>3d</fix>
</trkpt>
<trkpt lat="40.0711021" lon="-105.2300205">
  <ele>1583.13</ele>
  <time>2026-08-28T17:56:35Z</time>
  <course>131.06</course>
  <speed>0.9202173656261873</speed>
  <fix>3d</fix>
</trkpt>
<trkpt lat="40.0711035" lon="-105.2300219">
  <ele>1583.0</ele>
  <time>2026-08-28T17:56:35Z</time>
  <course>137.48</course>
  <speed>0.94</speed>
  <fix>3d</fix>
</trkpt>
<trkpt lat="40.0711014" lon="-105.2300196">
  <ele>1583.13</ele>
  <time>2026-08-28T17:56:35Z</time>
  <course>131.12</course>
  <speed>0.9269843580125827</speed>
  <fix>3d</fix>
</trkpt>
<trkpt lat="40.0711023" lon="-105.2300204">
  <ele>1583.0</ele>
  <time>2026-08-28T17:56:35Z</time>
  <course>136.86</course>
  <speed>0.94</speed>
  <fix>3d</fix>
</trkpt>
<trkpt lat="40.0711008" lon="-105.2300188">
  <ele>1583.13</ele>
  <time>2026-08-28T17:56:35Z</time>
  <course>131.17</course>
  <speed>0.9196738552334734</speed>
  <fix>3d</fix>
</trkpt>
<trkpt lat="40.0711023" lon="-105.2300204">
  <ele>1583.0</ele>
  <time>2026-08-28T17:56:35Z</time>
  <course>136.86</course>
  <speed>0.94</speed>
  <fix>3d</fix>
</trkpt>
<trkpt lat="40.0711002" lon="-105.230018">
  <ele>1583.13</ele>
  <time>2026-08-28T17:56:35Z</time>
  <course>131.29</course>
  <speed>0.9196738552334734</speed>
  <fix>3d</fix>
</trkpt>
<trkpt lat="40.071101" lon="-105.2300189">
  <ele>1583.0</ele>
  <time>2026-08-28T17:56:35Z</time>
  <course>136.29</course>
  <speed>0.95</speed>
  <fix>3d</fix>
</trkpt>
<trkpt lat="40.0710996" lon="-105.2300172">
  <ele>1583.13</ele>
  <time>2026-08-28T17:56:35Z</time>
  <course>131.44</course>
  <speed>0.9265527507918802</speed>
  <fix>3d</fix>
</trkpt>
<trkpt lat="40.071101" lon="-105.2300189">
  <ele>1583.0</ele>
  <time>2026-08-28T17:56:35Z</time>
  <course>136.29</course>
  <speed>0.95</speed>
  <fix>3d</fix>
</trkpt>
<trkpt lat="40.0710989" lon="-105.2300164">
  <ele>1583.13</ele>
  <time>2026-08-28T17:56:35Z</time>
  <course>131.59</course>
  <speed>0.9265527507918802</speed>
  <fix>3d</fix>
</trkpt>
<trkpt lat="40.0710998" lon="-105.2300174">
  <ele>1583.0</ele>
  <time>2026-08-28T17:56:35Z</time>
  <course>135.79</course>
  <speed>0.95</speed>
  <fix>3d</fix>
</trkpt>
<trkpt lat="40.0710983" lon="-105.2300157">
  <ele>1583.13</ele>
  <time>2026-08-28T17:56:35Z</time>
  <course>131.74</course>
  <speed>0.9265527507918802</speed>
  <fix>3d</fix>
</trkpt>
<trkpt lat="40.0710998" lon="-105.2300174">
  <ele>1583.0</ele>
  <time>2026-08-28T17:56:35Z</time>
  <course>135.79</course>
  <speed>0.95</speed>
  <fix>3d</fix>
</trkpt>
<trkpt lat="40.0710977" lon="-105.2300149">
  <ele>1583.14</ele>
  <time>2026-08-28T17:56:35Z</time>
  <course>131.92</course>
  <speed>0.9265527507918802</speed>
  <fix>3d</fix>
</trkpt>
<trkpt lat="40.0710986" lon="-105.2300157">
  <ele>1583.0</ele>
  <time>2026-08-28T17:56:35Z</time>
  <course>135.35</course>
  <speed>0.95</speed>
  <fix>3d</fix>
</trkpt>
<trkpt lat="40.0710971" lon="-105.2300141">
  <ele>1583.14</ele>
  <time>2026-08-28T17:56:35Z</time>
  <course>132.08</course>
  <speed>0.9263368717696602</speed>
  <fix>3d</fix>
</trkpt>
<trkpt lat="40.0710986" lon="-105.2300157">
  <ele>1583.0</ele>
  <time>2026-08-28T17:56:35Z</time>
  <course>135.35</course>
  <speed>0.95</speed>
  <fix>3d</fix>
</trkpt>
<trkpt lat="40.0710965" lon="-105.2300133">
  <ele>1583.14</ele>
  <time>2026-08-28T17:56:35Z</time>
  <course>132.28</course>
  <speed>0.9263368717696602</speed>
  <fix>3d</fix>
</trkpt>
<trkpt lat="40.0710974" lon="-105.2300142">
  <ele>1583.0</ele>
  <time>2026-08-28T17:56:35Z</time>
  <course>134.98</course>
  <speed>0.95</speed>
  <fix>3d</fix>
</trkpt>
<trkpt lat="40.0710959" lon="-105.2300125">
  <ele>1583.14</ele>
  <time>2026-08-28T17:56:35Z</time>
  <course>132.53</course>
  <speed>0.9263368717696602</speed>
  <fix>3d</fix>
</trkpt>
<trkpt lat="40.0710974" lon="-105.2300142">
  <ele>1583.0</ele>
  <time>2026-08-28T17:56:35Z</time>
  <course>134.98</course>
  <speed>0.95</speed>
  <fix>3d</fix>
</trkpt>
<trkpt lat="40.0710953" lon="-105.2300117">
  <ele>1583.14</ele>
  <time>2026-08-28T17:56:35Z</time>
  <course>132.78</course>
  <speed>0.9263368717696602</speed>
  <fix>3d</fix>
</trkpt>
<trkpt lat="40.0710961" lon="-105.2300126">
  <ele>1583.0</ele>
  <time>2026-08-28T17:56:35Z</time>
  <course>134.67</course>
  <speed>0.95</speed>
  <fix>3d</fix>
</trkpt>
<trkpt lat="40.0710948" lon="-105.2300111">
  <ele>1583.14</ele>
  <time>2026-08-28T17:56:35Z</time>
  <course>132.94</course>
  <speed>0.9333809511662428</speed>
  <fix>3d</fix>
</trkpt>
<trkpt lat="40.0710961" lon="-105.2300126">
  <ele>1583.0</ele>
  <time>2026-08-28T17:56:35Z</time>
  <course>134.67</course>
  <speed>0.95</speed>
  <fix>3d</fix>
</trkpt>
<trkpt lat="40.0710943" lon="-105.2300103">
  <ele>1583.15</ele>
  <time>2026-08-28T17:56:35Z</time>
  <course>133.2</course>
  <speed>0.9333809511662428</speed>
  <fix>3d</fix>
</trkpt>
<trkpt lat="40.0710949" lon="-105.2300109">
  <ele>1583.0</ele>
  <time>2026-08-28T17:56:35Z</time>
  <course>134.42</course>
  <speed>0.96</speed>
  <fix>3d</fix>
</trkpt>
<trkpt lat="40.0710936" lon="-105.2300094">
  <ele>1583.15</ele>
  <time>2026-08-28T17:56:35Z</time>
  <course>133.5</course>
  <speed>0.9333809511662428</speed>
  <fix>3d</fix>
</trkpt>
<trkpt lat="40.0710949" lon="-105.2300109">
  <ele>1583.0</ele>
  <time>2026-08-28T17:56:35Z</time>
  <course>134.42</course>
  <speed>0.96</speed>
  <fix>3d</fix>
</trkpt>
<trkpt lat="40.071093" lon="-105.2300086">
  <ele>1583.16</ele>
  <time>2026-08-28T17:56:35Z</time>
  <course>133.8</course>
  <speed>0.9333809511662428</speed>
  <fix>3d</fix>
</trkpt>
<trkpt lat="40.0710937" lon="-105.2300094">
  <ele>1583.0</ele>
  <time>2026-08-28T17:56:35Z</time>
  <course>134.24</course>
  <speed>0.96</speed>
  <fix>3d</fix>
</trkpt>
<trkpt lat="40.0710924" lon="-105.2300078">
  <ele>1583.16</ele>
  <time>2026-08-28T17:56:35Z</time>
  <course>134.1</course>
  <speed>0.9333809511662428</speed>
  <fix>3d</fix>
</trkpt>
<trkpt lat="40.0710937" lon="-105.2300094">
  <ele>1583.0</ele>
  <time>2026-08-28T17:56:35Z</time>
  <course>134.24</course>
  <speed>0.96</speed>
  <fix>3d</fix>
</trkpt>
<trkpt lat="40.0710918" lon="-105.230007">
  <ele>1583.16</ele>
  <time>2026-08-28T17:56:35Z</time>
  <course>134.43</course>
  <speed>0.9333809511662428</speed>
  <fix>3d</fix>
</trkpt>
<trkpt lat="40.0710925" lon="-105.2300078">
  <ele>1583.0</ele>
  <time>2026-08-28T17:56:35Z</time>
  <course>134.12</course>
  <speed>0.96</speed>
  <fix>3d</fix>
</trkpt>
<trkpt lat="40.0710912" lon="-105.2300062">
  <ele>1583.16</ele>
  <time>2026-08-28T17:56:35Z</time>
  <course>134.74</course>
  <speed>0.9333809511662428</speed>
  <fix>3d</fix>
</trkpt>
<trkpt lat="40.0710925" lon="-105.2300078">
  <ele>1583.0</ele>
  <time>2026-08-28T17:56:35Z</time>
  <course>134.12</course>
  <speed>0.96</speed>
  <fix>3d</fix>
</trkpt>
<trkpt lat="40.0710906" lon="-105.2300054">
  <ele>1583.16</ele>
  <time>2026-08-28T17:56:35Z</time>
  <course>135.04</course>
  <speed>0.9333809511662428</speed>
  <fix>3d</fix>
</trkpt>
<trkpt lat="40.0710913" lon="-105.2300061">
  <ele>1583.0</ele>
  <time>2026-08-28T17:56:35Z</time>
  <course>134.06</course>
  <speed>0.96</speed>
  <fix>3d</fix>
</trkpt>
<trkpt lat="40.07109" lon="-105.2300045">
  <ele>1583.16</ele>
  <time>2026-08-28T17:56:35Z</time>
  <course>135.34</course>
  <speed>0.9404786015641186</speed>
  <fix>3d</fix>
</trkpt>
<trkpt lat="40.0710913" lon="-105.2300061">
  <ele>1583.0</ele>
  <time>2026-08-28T17:56:35Z</time>
  <course>134.06</course>
  <speed>0.96</speed>
  <fix>3d</fix>
</trkpt>
<trkpt lat="40.0710894" lon="-105.2300037">
  <ele>1583.16</ele>
  <time>2026-08-28T17:56:35Z</time>
  <course>135.64</course>
  <speed>0.9475230867899737</speed>
  <fix>3d</fix>
</trkpt>
<trkpt lat="40.0710901" lon="-105.2300045">
  <ele>1583.0</ele>
  <time>2026-08-28T17:56:35Z</time>
  <course>134.06</course>
  <speed>0.97</speed>
  <fix>3d</fix>
</trkpt>
<trkpt lat="40.0710886" lon="-105.2300027">
  <ele>1583.16</ele>
  <time>2026-08-28T17:56:35Z</time>
  <course>136.05</course>
  <speed>0.9475230867899737</speed>
  <fix>3d</fix>
</trkpt>
<trkpt lat="40.0710901" lon="-105.2300045">
  <ele>1583.0</ele>
  <time>2026-08-28T17:56:35Z</time>
  <course>134.06</course>
  <speed>0.97</speed>
  <fix>3d</fix>
</trkpt>
<trkpt lat="40.071088" lon="-105.2300019">
  <ele>1583.16</ele>
  <time>2026-08-28T17:56:35Z</time>
  <course>136.4</course>
  <speed>0.9475230867899737</speed>
  <fix>3d</fix>
</trkpt>
<trkpt lat="40.0710889" lon="-105.2300028">
  <ele>1583.0</ele>
  <time>2026-08-28T17:56:35Z</time>
  <course>134.11</course>
  <speed>0.97</speed>
  <fix>3d</fix>
</trkpt>
<trkpt lat="40.0710874" lon="-105.2300011">
  <ele>1583.16</ele>
  <time>2026-08-28T17:56:35Z</time>
  <course>136.8</course>
  <speed>0.9475230867899737</speed>
  <fix>3d</fix>
</trkpt>
<trkpt lat="40.0710889" lon="-105.2300028">
  <ele>1583.0</ele>
  <time>2026-08-28T17:56:35Z</time>
  <course>134.11</course>
  <speed>0.97</speed>
  <fix>3d</fix>
</trkpt>
<trkpt lat="40.0710868" lon="-105.2300003">
  <ele>1583.16</ele>
  <time>2026-08-28T17:56:35Z</time>
  <course>137.16</course>
  <speed>0.9475230867899737</speed>
  <fix>3d</fix>
</trkpt>
<trkpt lat="40.0710877" lon="-105.2300012">
  <ele>1583.0</ele>
  <time>2026-08-28T17:56:35Z</time>
  <course>134.21</course>
  <speed>0.97</speed>
  <fix>3d</fix>
</trkpt>
<trkpt lat="40.0710862" lon="-105.2299994">
  <ele>1583.16</ele>
  <time>2026-08-28T17:56:35Z</time>
  <course>137.51</course>
  <speed>0.9475230867899737</speed>
  <fix>3d</fix>
</trkpt>
<trkpt lat="40.0710877" lon="-105.2300012">
  <ele>1583.0</ele>
  <time>2026-08-28T17:56:35Z</time>
  <course>134.21</course>
  <speed>0.97</speed>
  <fix>3d</fix>
</trkpt>
<trkpt lat="40.0710856" lon="-105.2299986">
  <ele>1583.16</ele>
  <time>2026-08-28T17:56:35Z</time>
  <course>137.86</course>
  <speed>0.9476286192385708</speed>
  <fix>3d</fix>
</trkpt>
<trkpt lat="40.0710864" lon="-105.2299995">
  <ele>1583.0</ele>
  <time>2026-08-28T17:56:35Z</time>
  <course>134.37</course>
  <speed>0.97</speed>
  <fix>3d</fix>
</trkpt>
<trkpt lat="40.071085" lon="-105.2299978">
  <ele>1583.16</ele>
  <time>2026-08-28T17:56:35Z</time>
  <course>138.21</course>
  <speed>0.9476286192385708</speed>
  <fix>3d</fix>
</trkpt>
<trkpt lat="40.0710864" lon="-105.2299995">
  <ele>1583.0</ele>
  <time>2026-08-28T17:56:35Z</time>
  <course>134.37</course>
  <speed>0.97</speed>
  <fix>3d</fix>
</trkpt>
<trkpt lat="40.0710843" lon="-105.229997">
  <ele>1583.16</ele>
  <time>2026-08-28T17:56:35Z</time>
  <course>138.6</course>
  <speed>0.9476286192385708</speed>
  <fix>3d</fix>
</trkpt>
<trkpt lat="40.0710852" lon="-105.2299979">
  <ele>1583.0</ele>
  <time>2026-08-28T17:56:35Z</time>
  <course>134.58</course>
  <speed>0.97</speed>
  <fix>3d</fix>
</trkpt>
<trkpt lat="40.0710837" lon="-105.2299962">
  <ele>1583.16</ele>
  <time>2026-08-28T17:56:35Z</time>
  <course>138.98</course>
  <speed>0.9476286192385708</speed>
  <fix>3d</fix>
</trkpt>
<trkpt lat="40.0710852" lon="-105.2299979">
  <ele>1583.0</ele>
  <time>2026-08-28T17:56:35Z</time>
  <course>134.58</course>
  <speed>0.97</speed>
  <fix>3d</fix>
</trkpt>
<trkpt lat="40.0710831" lon="-105.2299954">
  <ele>1583.16</ele>
  <time>2026-08-28T17:56:35Z</time>
  <course>139.33</course>
  <speed>0.9476286192385708</speed>
  <fix>3d</fix>
</trkpt>
<trkpt lat="40.0710839" lon="-105.2299963">
  <ele>1583.0</ele>
  <time>2026-08-28T17:56:35Z</time>
  <course>134.82</course>
  <speed>0.98</speed>
  <fix>3d</fix>
</trkpt>
<trkpt lat="40.0710825" lon="-105.2299946">
  <ele>1583.16</ele>
  <time>2026-08-28T17:56:35Z</time>
  <course>139.67</course>
  <speed>0.954829827770373</speed>
  <fix>3d</fix>
</trkpt>
<trkpt lat="40.0710839" lon="-105.2299963">
  <ele>1583.0</ele>
  <time>2026-08-28T17:56:35Z</time>
  <course>134.82</course>
  <speed>0.98</speed>
  <fix>3d</fix>
</trkpt>
<trkpt lat="40.071082" lon="-105.2299939">
  <ele>1583.16</ele>
  <time>2026-08-28T17:56:35Z</time>
  <course>139.96</course>
  <speed>0.954829827770373</speed>
  <fix>3d</fix>
</trkpt>
<trkpt lat="40.0710827" lon="-105.2299946">
  <ele>1583.0</ele>
  <time>2026-08-28T17:56:35Z</time>
  <course>135.11</course>
  <speed>0.98</speed>
  <fix>3d</fix>
</trkpt>
<trkpt lat="40.0710813" lon="-105.2299931">
  <ele>1583.16</ele>
  <time>2026-08-28T17:56:35Z</time>
  <course>140.31</course>
  <speed>0.954829827770373</speed>
  <fix>3d</fix>
</trkpt>
<trkpt lat="40.0710827" lon="-105.2299946">
  <ele>1583.0</ele>
  <time>2026-08-28T17:56:35Z</time>
  <course>135.11</course>
  <speed>0.98</speed>
  <fix>3d</fix>
</trkpt>
<trkpt lat="40.0710807" lon="-105.2299923">
  <ele>1583.16</ele>
  <time>2026-08-28T17:56:35Z</time>
  <course>140.58</course>
  <speed>0.9479451460923254</speed>
  <fix>3d</fix>
</trkpt>
<trkpt lat="40.0710814" lon="-105.2299931">
  <ele>1583.0</ele>
  <time>2026-08-28T17:56:35Z</time>
  <course>135.43</course>
  <speed>0.98</speed>
  <fix>3d</fix>
</trkpt>
<trkpt lat="40.0710801" lon="-105.2299915">
  <ele>1583.16</ele>
  <time>2026-08-28T17:56:35Z</time>
  <course>140.2</course>
  <speed>0.95524865872714</speed>
  <fix>3d</fix>
</trkpt>
<trkpt lat="40.0710814" lon="-105.2299931">
  <ele>1583.0</ele>
  <time>2026-08-28T17:56:35Z</time>
  <course>135.43</course>
  <speed>0.98</speed>
  <fix>3d</fix>
</trkpt>
<trkpt lat="40.0710794" lon="-105.2299907">
  <ele>1583.16</ele>
  <time>2026-08-28T17:56:35Z</time>
  <course>139.09</course>
  <speed>0.95524865872714</speed>
  <fix>3d</fix>
</trkpt>
<trkpt lat="40.0710802" lon="-105.2299914">
  <ele>1583.0</ele>
  <time>2026-08-28T17:56:35Z</time>
  <course>135.74</course>
  <speed>0.98</speed>
  <fix>3d</fix>
</trkpt>
<trkpt lat="40.0710788" lon="-105.2299899">
  <ele>1583.16</ele>
  <time>2026-08-28T17:56:35Z</time>
  <course>137.21</course>
  <speed>0.95524865872714</speed>
  <fix>3d</fix>
</trkpt>
<trkpt lat="40.0710802" lon="-105.2299914">
  <ele>1583.0</ele>
  <time>2026-08-28T17:56:35Z</time>
  <course>135.74</course>
  <speed>0.98</speed>
  <fix>3d</fix>
</trkpt>
<trkpt lat="40.0710782" lon="-105.2299891">
  <ele>1583.16</ele>
  <time>2026-08-28T17:56:35Z</time>
  <course>134.44</course>
  <speed>0.95524865872714</speed>
  <fix>3d</fix>
</trkpt>
<trkpt lat="40.0710789" lon="-105.2299898">
  <ele>1583.0</ele>
  <time>2026-08-28T17:56:35Z</time>
  <course>135.89</course>
  <speed>0.98</speed>
  <fix>3d</fix>
</trkpt>
<trkpt lat="40.0710775" lon="-105.2299883">
  <ele>1583.16</ele>
  <time>2026-08-28T17:56:35Z</time>
  <course>130.71</course>
  <speed>0.95524865872714</speed>
  <fix>3d</fix>
</trkpt>
<trkpt lat="40.0710789" lon="-105.2299898">
  <ele>1583.0</ele>
  <time>2026-08-28T17:56:35Z</time>
  <course>135.89</course>
  <speed>0.98</speed>
  <fix>3d</fix>
</trkpt>
<trkpt lat="40.0710769" lon="-105.2299875">
  <ele>1583.16</ele>
  <time>2026-08-28T17:56:35Z</time>
  <course>125.94</course>
  <speed>0.9479451460923254</speed>
  <fix>3d</fix>
</trkpt>
<trkpt lat="40.0710776" lon="-105.2299881">
  <ele>1583.0</ele>
  <time>2026-08-28T17:56:35Z</time>
  <course>135.66</course>
  <speed>0.98</speed>
  <fix>3d</fix>
</trkpt>
<trkpt lat="40.0710763" lon="-105.2299867">
  <ele>1583.17</ele>
  <time>2026-08-28T17:56:35Z</time>
  <course>120.01</course>
  <speed>0.9406912352095134</speed>
  <fix>3d</fix>
</trkpt>
<trkpt lat="40.0710776" lon="-105.2299881">
  <ele>1583.0</ele>
  <time>2026-08-28T17:56:35Z</time>
  <course>135.66</course>
  <speed>0.98</speed>
  <fix>3d</fix>
</trkpt>
<trkpt lat="40.0710755" lon="-105.2299857">
  <ele>1583.17</ele>
  <time>2026-08-28T17:56:35Z</time>
  <course>111.28</course>
  <speed>0.9333809511662428</speed>
  <fix>3d</fix>
</trkpt>
<trkpt lat="40.0710763" lon="-105.2299865">
  <ele>1583.0</ele>
  <time>2026-08-28T17:56:35Z</time>
  <course>134.83</course>
  <speed>0.97</speed>
  <fix>3d</fix>
</trkpt>
<trkpt lat="40.0710749" lon="-105.2299849">
  <ele>1583.17</ele>
  <time>2026-08-28T17:56:35Z</time>
  <course>102.83</course>
  <speed>0.9263368717696602</speed>
  <fix>3d</fix>
</trkpt>
<trkpt lat="40.0710763" lon="-105.2299865">
  <ele>1583.0</ele>
  <time>2026-08-28T17:56:35Z</time>
  <course>134.83</course>
  <speed>0.97</speed>
  <fix>3d</fix>
</trkpt>
<trkpt lat="40.0710743" lon="-105.229984">
  <ele>1583.17</ele>
  <time>2026-08-28T17:56:35Z</time>
  <course>93.8</course>
  <speed>0.9128526715741155</speed>
  <fix>3d</fix>
</trkpt>
<trkpt lat="40.0710751" lon="-105.229985">
  <ele>1583.0</ele>
  <time>2026-08-28T17:56:35Z</time>
  <course>133.19</course>
  <speed>0.95</speed>
  <fix>3d</fix>
</trkpt>
<trkpt lat="40.0710738" lon="-105.2299832">
  <ele>1583.17</ele>
  <time>2026-08-28T17:56:35Z</time>
  <course>85.35</course>
  <speed>0.9068627239003707</speed>
  <fix>3d</fix>
</trkpt>
<trkpt lat="40.0710751" lon="-105.229985">
  <ele>1583.0</ele>
  <time>2026-08-28T17:56:35Z</time>
  <course>133.19</course>
  <speed>0.95</speed>
  <fix>3d</fix>
</trkpt>
<trkpt lat="40.0710732" lon="-105.2299824">
  <ele>1583.17</ele>
  <time>2026-08-28T17:56:35Z</time>
  <course>77.88</course>
  <speed>0.8949860334105779</speed>
  <fix>3d</fix>
</trkpt>
<trkpt lat="40.071074" lon="-105.2299833">
  <ele>1583.0</ele>
  <time>2026-08-28T17:56:35Z</time>
  <course>130.45</course>
  <speed>0.93</speed>
  <fix>3d</fix>
</trkpt>
<trkpt lat="40.0710727" lon="-105.2299815">
  <ele>1583.17</ele>
  <time>2026-08-28T17:56:35Z</time>
  <course>71.35</course>
  <speed>0.8780091115700337</speed>
  <fix>3d</fix>
</trkpt>
<trkpt lat="40.071074" lon="-105.2299833">
  <ele>1583.0</ele>
  <time>2026-08-28T17:56:35Z</time>
  <course>130.45</course>
  <speed>0.93</speed>
  <fix>3d</fix>
</trkpt>
<trkpt lat="40.0710723" lon="-105.2299806">
  <ele>1583.17</ele>
  <time>2026-08-28T17:56:35Z</time>
  <course>65.73</course>
  <speed>0.862670273047588</speed>
  <fix>3d</fix>
</trkpt>
<trkpt lat="40.071073" lon="-105.2299816">
  <ele>1583.0</ele>
  <time>2026-08-28T17:56:35Z</time>
  <course>126.49</course>
  <speed>0.9</speed>
  <fix>3d</fix>
</trkpt>
<trkpt lat="40.0710719" lon="-105.2299798">
  <ele>1583.17</ele>
  <time>2026-08-28T17:56:35Z</time>
  <course>61.05</course>
  <speed>0.8490583018850945</speed>
  <fix>3d</fix>
</trkpt>
<trkpt lat="40.071073" lon="-105.2299816">
  <ele>1583.0</ele>
  <time>2026-08-28T17:56:35Z</time>
  <course>126.49</course>
  <speed>0.9</speed>
  <fix>3d</fix>
</trkpt>
<trkpt lat="40.0710715" lon="-105.2299789">
  <ele>1583.17</ele>
  <time>2026-08-28T17:56:35Z</time>
  <course>57.16</course>
  <speed>0.8324061508662703</speed>
  <fix>3d</fix>
</trkpt>
<trkpt lat="40.0710721" lon="-105.2299798">
  <ele>1583.0</ele>
  <time>2026-08-28T17:56:35Z</time>
  <course>121.38</course>
  <speed>0.88</speed>
  <fix>3d</fix>
</trkpt>
<trkpt lat="40.0710712" lon="-105.229978">
  <ele>1583.17</ele>
  <time>2026-08-28T17:56:35Z</time>
  <course>53.98</course>
  <speed>0.8276472678623424</speed>
  <fix>3d</fix>
</trkpt>
<trkpt lat="40.0710721" lon="-105.2299798">
  <ele>1583.0</ele>
  <time>2026-08-28T17:56:35Z</time>
  <course>121.38</course>
  <speed>0.88</speed>
  <fix>3d</fix>
</trkpt>
<trkpt lat="40.0710709" lon="-105.2299771">
  <ele>1583.17</ele>
  <time>2026-08-28T17:56:35Z</time>
  <course>51.41</course>
  <speed>0.8170679286326198</speed>
  <fix>3d</fix>
</trkpt>
<trkpt lat="40.0710713" lon="-105.2299781">
  <ele>1583.0</ele>
  <time>2026-08-28T17:56:35Z</time>
  <course>115.37</course>
  <speed>0.85</speed>
  <fix>3d</fix>
</trkpt>
<trkpt lat="40.0710707" lon="-105.2299763">
  <ele>1583.17</ele>
  <time>2026-08-28T17:56:35Z</time>
  <course>49.74</course>
  <speed>0.8032434251209282</speed>
  <fix>3d</fix>
</trkpt>
<trkpt lat="40.0710713" lon="-105.2299781">
  <ele>1583.0</ele>
  <time>2026-08-28T17:56:35Z</time>
  <course>115.37</course>
  <speed>0.85</speed>
  <fix>3d</fix>
</trkpt>
<trkpt lat="40.0710705" lon="-105.2299754">
  <ele>1583.17</ele>
  <time>2026-08-28T17:56:35Z</time>
  <course>48.13</course>
  <speed>0.800812087820857</speed>
  <fix>3d</fix>
</trkpt>
<trkpt lat="40.0710708" lon="-105.2299762">
  <ele>1583.0</ele>
  <time>2026-08-28T17:56:35Z</time>
  <course>108.91</course>
  <speed>0.83</speed>
  <fix>3d</fix>
</trkpt>
<trkpt lat="40.0710703" lon="-105.2299744">
  <ele>1583.17</ele>
  <time>2026-08-28T17:56:35Z</time>
  <course>46.9</course>
  <speed>0.7983107164506812</speed>
  <fix>3d</fix>
</trkpt>
<trkpt lat="40.0710708" lon="-105.2299762">
  <ele>1583.0</ele>
  <time>2026-08-28T17:56:35Z</time>
  <course>108.91</course>
  <speed>0.83</speed>
  <fix>3d</fix>
</trkpt>
<trkpt lat="40.0710702" lon="-105.2299735">
  <ele>1583.17</ele>
  <time>2026-08-28T17:56:35Z</time>
  <course>45.77</course>
  <speed>0.7990619500389191</speed>
  <fix>3d</fix>
</trkpt>
<trkpt lat="40.0710704" lon="-105.2299743">
  <ele>1583.0</ele>
  <time>2026-08-28T17:56:35Z</time>
  <course>102.38</course>
  <speed>0.82</speed>
  <fix>3d</fix>
</trkpt>
<trkpt lat="40.0710701" lon="-105.2299725">
  <ele>1583.17</ele>
  <time>2026-08-28T17:56:35Z</time>
  <course>44.73</course>
  <speed>0.7940403012442127</speed>
  <fix>3d</fix>
</trkpt>
<trkpt lat="40.0710704" lon="-105.2299743">
  <ele>1583.0</ele>
  <time>2026-08-28T17:56:35Z</time>
  <course>102.38</course>
  <speed>0.82</speed>
  <fix>3d</fix>
</trkpt>
<trkpt lat="40.07107" lon="-105.2299715">
  <ele>1583.16</ele>
  <time>2026-08-28T17:56:35Z</time>
  <course>43.81</course>
  <speed>0.8005623023850174</speed>
  <fix>3d</fix>
</trkpt>
<trkpt lat="40.0710701" lon="-105.2299724">
  <ele>1583.0</ele>
  <time>2026-08-28T17:56:35Z</time>
  <course>96.02</course>
  <speed>0.82</speed>
  <fix>3d</fix>
</trkpt>
<trkpt lat="40.07107" lon="-105.2299705">
  <ele>1583.16</ele>
  <time>2026-08-28T17:56:35Z</time>
  <course>42.99</course>
  <speed>0.8</speed>
  <fix>3d</fix>
</trkpt>
<trkpt lat="40.0710701" lon="-105.2299724">
  <ele>1583.0</ele>
  <time>2026-08-28T17:56:35Z</time>
  <course>96.02</course>
  <speed>0.82</speed>
  <fix>3d</fix>
</trkpt>
<trkpt lat="40.0710701" lon="-105.2299695">
  <ele>1583.16</ele>
  <time>2026-08-28T17:56:35Z</time>
  <course>42.27</course>
  <speed>0.8109870529176159</speed>
  <fix>3d</fix>
</trkpt>
<trkpt lat="40.0710701" lon="-105.2299705">
  <ele>1583.0</ele>
  <time>2026-08-28T17:56:35Z</time>
  <course>89.98</course>
  <speed>0.82</speed>
  <fix>3d</fix>
</trkpt>
<trkpt lat="40.0710701" lon="-105.2299685">
  <ele>1583.16</ele>
  <time>2026-08-28T17:56:35Z</time>
  <course>41.66</course>
  <speed>0.8139410298049853</speed>
  <fix>3d</fix>
</trkpt>
<trkpt lat="40.0710701" lon="-105.2299705">
  <ele>1583.0</ele>
  <time>2026-08-28T17:56:35Z</time>
  <course>89.98</course>
  <speed>0.82</speed>
  <fix>3d</fix>
</trkpt>
<trkpt lat="40.0710701" lon="-105.2299675">
  <ele>1583.16</ele>
  <time>2026-08-28T17:56:35Z</time>
  <course>41.11</course>
  <speed>0.8188406438373709</speed>
  <fix>3d</fix>
</trkpt>
<trkpt lat="40.0710701" lon="-105.2299685">
  <ele>1583.0</ele>
  <time>2026-08-28T17:56:35Z</time>
  <course>84.36</course>
  <speed>0.83</speed>
  <fix>3d</fix>
</trkpt>
<trkpt lat="40.0710703" lon="-105.2299663">
  <ele>1583.16</ele>
  <time>2026-08-28T17:56:35Z</time>
  <course>40.57</course>
  <speed>0.8276472678623424</speed>
  <fix>3d</fix>
</trkpt>
<trkpt lat="40.0710701" lon="-105.2299685">
  <ele>1583.0</ele>
  <time>2026-08-28T17:56:35Z</time>
  <course>84.36</course>
  <speed>0.83</speed>
  <fix>3d</fix>
</trkpt>
<trkpt lat="40.0710705" lon="-105.2299654">
  <ele>1583.16</ele>
  <time>2026-08-28T17:56:35Z</time>
  <course>40.19</course>
  <speed>0.8464632301523793</speed>
  <fix>3d</fix>
</trkpt>
<trkpt lat="40.0710703" lon="-105.2299666">
  <ele>1583.0</ele>
  <time>2026-08-28T17:56:35Z</time>
  <course>79.23</course>
  <speed>0.84</speed>
  <fix>3d</fix>
</trkpt>
<trkpt lat="40.0710707" lon="-105.2299644">
  <ele>1583.16</ele>
  <time>2026-08-28T17:56:35Z</time>
  <course>39.91</course>
  <speed>0.8544003745317531</speed>
  <fix>3d</fix>
</trkpt>
<trkpt lat="40.0710703" lon="-105.2299666">
  <ele>1583.0</ele>
  <time>2026-08-28T17:56:35Z</time>
  <course>79.23</course>
  <speed>0.84</speed>
  <fix>3d</fix>
</trkpt>
<trkpt lat="40.0710709" lon="-105.2299634">
  <ele>1583.15</ele>
  <time>2026-08-28T17:56:35Z</time>
  <course>39.69</course>
  <speed>0.8633075929238663</speed>
  <fix>3d</fix>
</trkpt>
<trkpt lat="40.0710706" lon="-105.2299647">
  <ele>1583.0</ele>
  <time>2026-08-28T17:56:35Z</time>
  <course>74.61</course>
  <speed>0.86</speed>
  <fix>3d</fix>
</trkpt>
<trkpt lat="40.0710712" lon="-105.2299624">
  <ele>1583.15</ele>
  <time>2026-08-28T17:56:35Z</time>
  <course>39.53</course>
  <speed>0.8766413177577246</speed>
  <fix>3d</fix>
</trkpt>
<trkpt lat="40.0710706" lon="-105.2299647">
  <ele>1583.0</ele>
  <time>2026-08-28T17:56:35Z</time>
  <course>74.61</course>
  <speed>0.86</speed>
  <fix>3d</fix>
</trkpt>
<trkpt lat="40.0710715" lon="-105.2299614">
  <ele>1583.15</ele>
  <time>2026-08-28T17:56:35Z</time>
  <course>39.45</course>
  <speed>0.8876936408468858</speed>
  <fix>3d</fix>
</trkpt>
<trkpt lat="40.0710711" lon="-105.2299626">
  <ele>1583.0</ele>
  <time>2026-08-28T17:56:35Z</time>
  <course>70.5</course>
  <speed>0.88</speed>
  <fix>3d</fix>
</trkpt>
<trkpt lat="40.0710718" lon="-105.2299604">
  <ele>1583.15</ele>
  <time>2026-08-28T17:56:35Z</time>
  <course>39.48</course>
  <speed>0.8955445270895244</speed>
  <fix>3d</fix>
</trkpt>
<trkpt lat="40.0710711" lon="-105.2299626">
  <ele>1583.0</ele>
  <time>2026-08-28T17:56:35Z</time>
  <course>70.5</course>
  <speed>0.88</speed>
  <fix>3d</fix>
</trkpt>
<trkpt lat="40.0710722" lon="-105.2299594">
  <ele>1583.15</ele>
  <time>2026-08-28T17:56:35Z</time>
  <course>39.55</course>
  <speed>0.9080198235721508</speed>
  <fix>3d</fix>
</trkpt>
<trkpt lat="40.0710717" lon="-105.2299607">
  <ele>1583.0</ele>
  <time>2026-08-28T17:56:35Z</time>
  <course>66.88</course>
  <speed>0.9</speed>
  <fix>3d</fix>
</trkpt>
<trkpt lat="40.0710725" lon="-105.2299584">
  <ele>1583.15</ele>
  <time>2026-08-28T17:56:35Z</time>
  <course>39.68</course>
  <speed>0.9213034245024816</speed>
  <fix>3d</fix>
</trkpt>
<trkpt lat="40.0710717" lon="-105.2299607">
  <ele>1583.0</ele>
  <time>2026-08-28T17:56:35Z</time>
  <course>66.88</course>
  <speed>0.9</speed>
  <fix>3d</fix>
</trkpt>
<trkpt lat="40.0710729" lon="-105.2299575">
  <ele>1583.15</ele>
  <time>2026-08-28T17:56:35Z</time>
  <course>39.88</course>
  <speed>0.9305912099305473</speed>
  <fix>3d</fix>
</trkpt>
<trkpt lat="40.0710724" lon="-105.2299587">
  <ele>1583.0</ele>
  <time>2026-08-28T17:56:35Z</time>
  <course>63.75</course>
  <speed>0.92</speed>
  <fix>3d</fix>
</trkpt>
<trkpt lat="40.0710733" lon="-105.2299565">
  <ele>1583.15</ele>
  <time>2026-08-28T17:56:35Z</time>
  <course>40.13</course>
  <speed>0.9451454914456292</speed>
  <fix>3d</fix>
</trkpt>
<trkpt lat="40.0710724" lon="-105.2299587">
  <ele>1583.0</ele>
  <time>2026-08-28T17:56:35Z</time>
  <course>63.75</course>
  <speed>0.92</speed>
  <fix>3d</fix>
</trkpt>
<trkpt lat="40.0710737" lon="-105.2299557">
  <ele>1583.15</ele>
  <time>2026-08-28T17:56:35Z</time>
  <course>40.39</course>
  <speed>0.9501578816175763</speed>
  <fix>3d</fix>
</trkpt>
<trkpt lat="40.0710732" lon="-105.2299568">
  <ele>1583.0</ele>
  <time>2026-08-28T17:56:35Z</time>
  <course>61.05</course>
  <speed>0.95</speed>
  <fix>3d</fix>
</trkpt>
<trkpt lat="40.0710741" lon="-105.2299547">
  <ele>1583.15</ele>
  <time>2026-08-28T17:56:35Z</time>
  <course>40.75</course>
  <speed>0.9604165762834376</speed>
  <fix>3d</fix>
</trkpt>
<trkpt lat="40.0710732" lon="-105.2299568">
  <ele>1583.0</ele>
  <time>2026-08-28T17:56:35Z</time>
  <course>61.05</course>
  <speed>0.95</speed>
  <fix>3d</fix>
</trkpt>
<trkpt lat="40.0710746" lon="-105.2299537">
  <ele>1583.14</ele>
  <time>2026-08-28T17:56:35Z</time>
  <course>41.17</course>
  <speed>0.9709788875150684</speed>
  <fix>3d</fix>
</trkpt>
<trkpt lat="40.071074" lon="-105.2299549">
  <ele>1583.0</ele>
  <time>2026-08-28T17:56:35Z</time>
  <course>58.75</course>
  <speed>0.97</speed>
  <fix>3d</fix>
</trkpt>
<trkpt lat="40.0710751" lon="-105.2299527">
  <ele>1583.14</ele>
  <time>2026-08-28T17:56:35Z</time>
  <course>41.65</course>
  <speed>0.9818350166906862</speed>
  <fix>3d</fix>
</trkpt>
<trkpt lat="40.071074" lon="-105.2299549">
  <ele>1583.0</ele>
  <time>2026-08-28T17:56:35Z</time>
  <course>58.75</course>
  <speed>0.97</speed>
  <fix>3d</fix>
</trkpt>
<trkpt lat="40.0710756" lon="-105.2299518">
  <ele>1583.14</ele>
  <time>2026-08-28T17:56:35Z</time>
  <course>42.17</course>
  <speed>0.9929753269845127</speed>
  <fix>3d</fix>
</trkpt>
<trkpt lat="40.071075" lon="-105.2299529">
  <ele>1583.0</ele>
  <time>2026-08-28T17:56:35Z</time>
  <course>56.82</course>
  <speed>0.99</speed>
  <fix>3d</fix>
</trkpt>
<trkpt lat="40.0710761" lon="-105.2299508">
  <ele>1583.14</ele>
  <time>2026-08-28T17:56:35Z</time>
  <course>42.77</course>
  <speed>1.0043903623591774</speed>
  <fix>3d</fix>
</trkpt>
<trkpt lat="40.071075" lon="-105.2299529">
  <ele>1583.0</ele>
  <time>2026-08-28T17:56:35Z</time>
  <course>56.82</course>
  <speed>0.99</speed>
  <fix>3d</fix>
</trkpt>
<trkpt lat="40.0710766" lon="-105.2299498">
  <ele>1583.14</ele>
  <time>2026-08-28T17:56:35Z</time>
  <course>43.42</course>
  <speed>1.010198000393982</speed>
  <fix>3d</fix>
</trkpt>
<trkpt lat="40.071076" lon="-105.229951">
  <ele>1583.0</ele>
  <time>2026-08-28T17:56:35Z</time>
  <course>55.23</course>
  <speed>1.01</speed>
  <fix>3d</fix>
</trkpt>
<trkpt lat="40.0710772" lon="-105.2299488">
  <ele>1583.13</ele>
  <time>2026-08-28T17:56:35Z</time>
  <course>44.1</course>
  <speed>1.016070863670443</speed>
  <fix>3d</fix>
</trkpt>
<trkpt lat="40.071076" lon="-105.229951">
  <ele>1583.0</ele>
  <time>2026-08-28T17:56:35Z</time>
  <course>55.23</course>
  <speed>1.01</speed>
  <fix>3d</fix>
</trkpt>
<trkpt lat="40.0710777" lon="-105.2299478">
  <ele>1583.13</ele>
  <time>2026-08-28T17:56:35Z</time>
  <course>44.85</course>
  <speed>1.0360019305001318</speed>
  <fix>3d</fix>
</trkpt>
<trkpt lat="40.071077" lon="-105.229949">
  <ele>1583.0</ele>
  <time>2026-08-28T17:56:35Z</time>
  <course>53.96</course>
  <speed>1.03</speed>
  <fix>3d</fix>
</trkpt>
<trkpt lat="40.0710784" lon="-105.2299466">
  <ele>1583.12</ele>
  <time>2026-08-28T17:56:35Z</time>
  <course>45.82</course>
  <speed>1.0420172743289815</speed>
  <fix>3d</fix>
</trkpt>
<trkpt lat="40.071077" lon="-105.229949">
  <ele>1583.0</ele>
  <time>2026-08-28T17:56:35Z</time>
  <course>53.96</course>
  <speed>1.03</speed>
  <fix>3d</fix>
</trkpt>
<trkpt lat="40.071079" lon="-105.2299456">
  <ele>1583.12</ele>
  <time>2026-08-28T17:56:35Z</time>
  <course>46.66</course>
  <speed>1.0480935072788113</speed>
  <fix>3d</fix>
</trkpt>
<trkpt lat="40.0710781" lon="-105.229947">
  <ele>1583.0</ele>
  <time>2026-08-28T17:56:35Z</time>
  <course>52.97</course>
  <speed>1.05</speed>
  <fix>3d</fix>
</trkpt>
<trkpt lat="40.0710796" lon="-105.2299446">
  <ele>1583.12</ele>
  <time>2026-08-28T17:56:35Z</time>
  <course>47.55</course>
  <speed>1.054229576515476</speed>
  <fix>3d</fix>
</trkpt>
<trkpt lat="40.0710781" lon="-105.229947">
  <ele>1583.0</ele>
  <time>2026-08-28T17:56:35Z</time>
  <course>52.97</course>
  <speed>1.05</speed>
  <fix>3d</fix>
</trkpt>
<trkpt lat="40.0710802" lon="-105.2299436">
  <ele>1583.12</ele>
  <time>2026-08-28T17:56:35Z</time>
  <course>48.48</course>
  <speed>1.0621205204683695</speed>
  <fix>3d</fix>
</trkpt>
<trkpt lat="40.0710793" lon="-105.2299451">
  <ele>1583.0</ele>
  <time>2026-08-28T17:56:35Z</time>
  <course>52.26</course>
  <speed>1.06</speed>
  <fix>3d</fix>
</trkpt>
<trkpt lat="40.0710808" lon="-105.2299426">
  <ele>1583.12</ele>
  <time>2026-08-28T17:56:35Z</time>
  <course>49.45</course>
  <speed>1.0682696288858913</speed>
  <fix>3d</fix>
</trkpt>
<trkpt lat="40.0710793" lon="-105.2299451">
  <ele>1583.0</ele>
  <time>2026-08-28T17:56:35Z</time>
  <course>52.26</course>
  <speed>1.06</speed>
  <fix>3d</fix>
</trkpt>
<trkpt lat="40.0710814" lon="-105.2299416">
  <ele>1583.12</ele>
  <time>2026-08-28T17:56:35Z</time>
  <course>50.46</course>
  <speed>1.074476616776745</speed>
  <fix>3d</fix>
</trkpt>
<trkpt lat="40.0710805" lon="-105.229943">
  <ele>1583.0</ele>
  <time>2026-08-28T17:56:35Z</time>
  <course>51.8</course>
  <speed>1.08</speed>
  <fix>3d</fix>
</trkpt>
<trkpt lat="40.071082" lon="-105.2299406">
  <ele>1583.12</ele>
  <time>2026-08-28T17:56:35Z</time>
  <course>51.52</course>
  <speed>1.0823123393919152</speed>
  <fix>3d</fix>
</trkpt>
<trkpt lat="40.0710805" lon="-105.229943">
  <ele>1583.0</ele>
  <time>2026-08-28T17:56:35Z</time>
  <course>51.8</course>
  <speed>1.08</speed>
  <fix>3d</fix>
</trkpt>
<trkpt lat="40.0710826" lon="-105.2299396">
  <ele>1583.12</ele>
  <time>2026-08-28T17:56:35Z</time>
  <course>52.58</course>
  <speed>1.0823123393919152</speed>
  <fix>3d</fix>
</trkpt>
<trkpt lat="40.0710817" lon="-105.229941">
  <ele>1583.0</ele>
  <time>2026-08-28T17:56:35Z</time>
  <course>51.57</course>
  <speed>1.09</speed>
  <fix>3d</fix>
</trkpt>
<trkpt lat="40.0710832" lon="-105.2299386">
  <ele>1583.13</ele>
  <time>2026-08-28T17:56:35Z</time>
  <course>53.7</course>
  <speed>1.0901834707974616</speed>
  <fix>3d</fix>
</trkpt>
<trkpt lat="40.0710817" lon="-105.229941">
  <ele>1583.0</ele>
  <time>2026-08-28T17:56:35Z</time>
  <course>51.57</course>
  <speed>1.09</speed>
  <fix>3d</fix>
</trkpt>
<trkpt lat="40.0710838" lon="-105.2299376">
  <ele>1583.13</ele>
  <time>2026-08-28T17:56:35Z</time>
  <course>54.82</course>
  <speed>1.0901834707974616</speed>
  <fix>3d</fix>
</trkpt>
<trkpt lat="40.071083" lon="-105.229939">
  <ele>1583.0</ele>
  <time>2026-08-28T17:56:35Z</time>
  <course>51.55</course>
  <speed>1.1</speed>
  <fix>3d</fix>
</trkpt>
<trkpt lat="40.0710844" lon="-105.2299366">
  <ele>1583.12</ele>
  <time>2026-08-28T17:56:35Z</time>
  <course>55.97</course>
  <speed>1.0901834707974616</speed>
  <fix>3d</fix>
</trkpt>
<trkpt lat="40.071083" lon="-105.229939">
  <ele>1583.0</ele>
  <time>2026-08-28T17:56:35Z</time>
  <course>51.55</course>
  <speed>1.1</speed>
  <fix>3d</fix>
</trkpt>
<trkpt lat="40.071085" lon="-105.2299355">
  <ele>1583.12</ele>
  <time>2026-08-28T17:56:35Z</time>
  <course>57.17</course>
  <speed>1.0980892495603443</speed>
  <fix>3d</fix>
</trkpt>
<trkpt lat="40.0710842" lon="-105.2299369">
  <ele>1583.0</ele>
  <time>2026-08-28T17:56:35Z</time>
  <course>51.74</course>
  <speed>1.11</speed>
  <fix>3d</fix>
</trkpt>
<trkpt lat="40.0710855" lon="-105.2299347">
  <ele>1583.12</ele>
  <time>2026-08-28T17:56:35Z</time>
  <course>58.12</course>
  <speed>1.0980892495603443</speed>
  <fix>3d</fix>
</trkpt>
<trkpt lat="40.0710842" lon="-105.2299369">
  <ele>1583.0</ele>
  <time>2026-08-28T17:56:35Z</time>
  <course>51.74</course>
  <speed>1.11</speed>
  <fix>3d</fix>
</trkpt>
<trkpt lat="40.0710861" lon="-105.2299337">
  <ele>1583.12</ele>
  <time>2026-08-28T17:56:35Z</time>
  <course>59.32</course>
  <speed>1.1060289327137875</speed>
  <fix>3d</fix>
</trkpt>
<trkpt lat="40.0710854" lon="-105.2299349">
  <ele>1583.0</ele>
  <time>2026-08-28T17:56:35Z</time>
  <course>52.11</course>
  <speed>1.12</speed>
  <fix>3d</fix>
</trkpt>
<trkpt lat="40.0710867" lon="-105.2299326">
  <ele>1583.12</ele>
  <time>2026-08-28T17:56:35Z</time>
  <course>60.54</course>
  <speed>1.1140017953306898</speed>
  <fix>3d</fix>
</trkpt>
<trkpt lat="40.0710854" lon="-105.2299349">
  <ele>1583.0</ele>
  <time>2026-08-28T17:56:35Z</time>
  <course>52.11</course>
  <speed>1.12</speed>
  <fix>3d</fix>
</trkpt>
<trkpt lat="40.0710873" lon="-105.2299316">
  <ele>1583.12</ele>
  <time>2026-08-28T17:56:35Z</time>
  <course>61.78</course>
  <speed>1.1080162453682707</speed>
  <fix>3d</fix>
</trkpt>
<trkpt lat="40.0710866" lon="-105.2299328">
  <ele>1583.0</ele>
  <time>2026-08-28T17:56:35Z</time>
  <course>52.66</course>
  <speed>1.13</speed>
  <fix>3d</fix>
</trkpt>
<trkpt lat="40.0710879" lon="-105.2299305">
  <ele>1583.11</ele>
  <time>2026-08-28T17:56:35Z</time>
  <course>62.97</course>
  <speed>1.1160645142642964</speed>
  <fix>3d</fix>
</trkpt>
<trkpt lat="40.0710866" lon="-105.2299328">
  <ele>1583.0</ele>
  <time>2026-08-28T17:56:35Z</time>
  <course>52.66</course>
  <speed>1.13</speed>
  <fix>3d</fix>
</trkpt>
<trkpt lat="40.0710885" lon="-105.2299294">
  <ele>1583.12</ele>
  <time>2026-08-28T17:56:35Z</time>
  <course>64.2</course>
  <speed>1.1183022847155415</speed>
  <fix>3d</fix>
</trkpt>
<trkpt lat="40.0710878" lon="-105.2299306">
  <ele>1583.0</ele>
  <time>2026-08-28T17:56:35Z</time>
  <course>53.36</course>
  <speed>1.13</speed>
  <fix>3d</fix>
</trkpt>
<trkpt lat="40.0710891" lon="-105.2299283">
  <ele>1583.12</ele>
  <time>2026-08-28T17:56:35Z</time>
  <course>65.44</course>
  <speed>1.1125196627475848</speed>
  <fix>3d</fix>
</trkpt>
<trkpt lat="40.0710878" lon="-105.2299306">
  <ele>1583.0</ele>
  <time>2026-08-28T17:56:35Z</time>
  <course>53.36</course>
  <speed>1.13</speed>
  <fix>3d</fix>
</trkpt>
<trkpt lat="40.0710897" lon="-105.2299272">
  <ele>1583.12</ele>
  <time>2026-08-28T17:56:35Z</time>
  <course>66.65</course>
  <speed>1.1150336317797773</speed>
  <fix>3d</fix>
</trkpt>
<trkpt lat="40.071089" lon="-105.2299285">
  <ele>1583.0</ele>
  <time>2026-08-28T17:56:35Z</time>
  <course>54.2</course>
  <speed>1.14</speed>
  <fix>3d</fix>
</trkpt>
<trkpt lat="40.0710903" lon="-105.2299261">
  <ele>1583.11</ele>
  <time>2026-08-28T17:56:35Z</time>
  <course>67.86</course>
  <speed>1.1232987136109434</speed>
  <fix>3d</fix>
</trkpt>
<trkpt lat="40.071089" lon="-105.2299285">
  <ele>1583.0</ele>
  <time>2026-08-28T17:56:35Z</time>
  <course>54.2</course>
  <speed>1.14</speed>
  <fix>3d</fix>
</trkpt>
<trkpt lat="40.071091" lon="-105.2299248">
  <ele>1583.11</ele>
  <time>2026-08-28T17:56:35Z</time>
  <course>69.31</course>
  <speed>1.1260550608207398</speed>
  <fix>3d</fix>
</trkpt>
<trkpt lat="40.0710903" lon="-105.2299264">
  <ele>1583.0</ele>
  <time>2026-08-28T17:56:35Z</time>
  <course>55.17</course>
  <speed>1.14</speed>
  <fix>3d</fix>
</trkpt>
<trkpt lat="40.0710916" lon="-105.2299236">
  <ele>1583.11</ele>
  <time>2026-08-28T17:56:35Z</time>
  <course>70.48</course>
  <speed>1.1205802068571442</speed>
  <fix>3d</fix>
</trkpt>
<trkpt lat="40.0710903" lon="-105.2299264">
  <ele>1583.0</ele>
  <time>2026-08-28T17:56:35Z</time>
  <course>55.17</course>
  <speed>1.14</speed>
  <fix>3d</fix>
</trkpt>
<trkpt lat="40.0710921" lon="-105.2299225">
  <ele>1583.1</ele>
  <time>2026-08-28T17:56:35Z</time>
  <course>71.67</course>
  <speed>1.1183022847155415</speed>
  <fix>3d</fix>
</trkpt>
<trkpt lat="40.0710915" lon="-105.2299241">
  <ele>1583.0</ele>
  <time>2026-08-28T17:56:35Z</time>
  <course>56.25</course>
  <speed>1.14</speed>
  <fix>3d</fix>
</trkpt>
<trkpt lat="40.0710927" lon="-105.2299214">
  <ele>1583.11</ele>
  <time>2026-08-28T17:56:35Z</time>
  <course>72.82</course>
  <speed>1.113058848399311</speed>
  <fix>3d</fix>
</trkpt>
<trkpt lat="40.0710915" lon="-105.2299241">
  <ele>1583.0</ele>
  <time>2026-08-28T17:56:35Z</time>
  <course>56.25</course>
  <speed>1.14</speed>
  <fix>3d</fix>
</trkpt>
<trkpt lat="40.0710932" lon="-105.2299202">
  <ele>1583.11</ele>
  <time>2026-08-28T17:56:35Z</time>
  <course>73.97</course>
  <speed>1.1164676439557037</speed>
  <fix>3d</fix>
</trkpt>
<trkpt lat="40.0710926" lon="-105.2299218">
  <ele>1583.0</ele>
  <time>2026-08-28T17:56:35Z</time>
  <course>57.43</course>
  <speed>1.14</speed>
  <fix>3d</fix>
</trkpt>
<trkpt lat="40.0710937" lon="-105.2299191">
  <ele>1583.11</ele>
  <time>2026-08-28T17:56:35Z</time>
  <course>75.08</course>
  <speed>1.120044641967453</speed>
  <fix>3d</fix>
</trkpt>
<trkpt lat="40.0710926" lon="-105.2299218">
  <ele>1583.0</ele>
  <time>2026-08-28T17:56:35Z</time>
  <course>57.43</course>
  <speed>1.14</speed>
  <fix>3d</fix>
</trkpt>
<trkpt lat="40.0710943" lon="-105.2299179">
  <ele>1583.1</ele>
  <time>2026-08-28T17:56:35Z</time>
  <course>76.19</course>
  <speed>1.1150784725749125</speed>
  <fix>3d</fix>
</trkpt>
<trkpt lat="40.0710937" lon="-105.2299195">
  <ele>1583.0</ele>
  <time>2026-08-28T17:56:35Z</time>
  <course>58.69</course>
  <speed>1.14</speed>
  <fix>3d</fix>
</trkpt>
<trkpt lat="40.0710948" lon="-105.2299168">
  <ele>1583.1</ele>
  <time>2026-08-28T17:56:35Z</time>
  <course>77.27</course>
  <speed>1.114136436887332</speed>
  <fix>3d</fix>
</trkpt>
<trkpt lat="40.0710937" lon="-105.2299195">
  <ele>1583.0</ele>
  <time>2026-08-28T17:56:35Z</time>
  <course>58.69</course>
  <speed>1.14</speed>
  <fix>3d</fix>
</trkpt>
<trkpt lat="40.0710953" lon="-105.2299156">
  <ele>1583.1</ele>
  <time>2026-08-28T17:56:35Z</time>
  <course>78.32</course>
  <speed>1.1094142598686931</speed>
  <fix>3d</fix>
</trkpt>
<trkpt lat="40.0710947" lon="-105.2299172">
  <ele>1583.0</ele>
  <time>2026-08-28T17:56:35Z</time>
  <course>60.02</course>
  <speed>1.14</speed>
  <fix>3d</fix>
</trkpt>
<trkpt lat="40.0710957" lon="-105.2299144">
  <ele>1583.1</ele>
  <time>2026-08-28T17:56:35Z</time>
  <course>79.33</course>
  <speed>1.113642671596235</speed>
  <fix>3d</fix>
</trkpt>
<trkpt lat="40.0710947" lon="-105.2299172">
  <ele>1583.0</ele>
  <time>2026-08-28T17:56:35Z</time>
  <course>60.02</course>
  <speed>1.14</speed>
  <fix>3d</fix>
</trkpt>
<trkpt lat="40.0710962" lon="-105.2299133">
  <ele>1583.1</ele>
  <time>2026-08-28T17:56:35Z</time>
  <course>80.32</course>
  <speed>1.1046266337545914</speed>
  <fix>3d</fix>
</trkpt>
<trkpt lat="40.0710957" lon="-105.2299149">
  <ele>1583.0</ele>
  <time>2026-08-28T17:56:35Z</time>
  <course>61.41</course>
  <speed>1.14</speed>
  <fix>3d</fix>
</trkpt>
<trkpt lat="40.0710966" lon="-105.2299123">
  <ele>1583.11</ele>
  <time>2026-08-28T17:56:35Z</time>
  <course>81.08</course>
  <speed>1.1002272492535348</speed>
  <fix>3d</fix>
</trkpt>
<trkpt lat="40.0710957" lon="-105.2299149">
  <ele>1583.0</ele>
  <time>2026-08-28T17:56:35Z</time>
  <course>61.41</course>
  <speed>1.14</speed>
  <fix>3d</fix>
</trkpt>
<trkpt lat="40.071097" lon="-105.2299112">
  <ele>1583.11</ele>
  <time>2026-08-28T17:56:35Z</time>
  <course>82.0</course>
  <speed>1.104943437466371</speed>
  <fix>3d</fix>
</trkpt>
<trkpt lat="40.0710967" lon="-105.2299125">
  <ele>1583.0</ele>
  <time>2026-08-28T17:56:35Z</time>
  <course>62.83</course>
  <speed>1.13</speed>
  <fix>3d</fix>
</trkpt>
<trkpt lat="40.0710975" lon="-105.22991">
  <ele>1583.12</ele>
  <time>2026-08-28T17:56:35Z</time>
  <course>82.88</course>
  <speed>1.0965856099730653</speed>
  <fix>3d</fix>
</trkpt>
<trkpt lat="40.0710967" lon="-105.2299125">
  <ele>1583.0</ele>
  <time>2026-08-28T17:56:35Z</time>
  <course>62.83</course>
  <speed>1.13</speed>
  <fix>3d</fix>
</trkpt>
<trkpt lat="40.0710979" lon="-105.2299088">
  <ele>1583.12</ele>
  <time>2026-08-28T17:56:35Z</time>
  <course>83.73</course>
  <speed>1.092520022699813</speed>
  <fix>3d</fix>
</trkpt>
<trkpt lat="40.0710976" lon="-105.2299101">
  <ele>1583.0</ele>
  <time>2026-08-28T17:56:35Z</time>
  <course>64.28</course>
  <speed>1.13</speed>
  <fix>3d</fix>
</trkpt>
<trkpt lat="40.0710983" lon="-105.2299075">
  <ele>1583.12</ele>
  <time>2026-08-28T17:56:35Z</time>
  <course>84.53</course>
  <speed>1.0938464243210744</speed>
  <fix>3d</fix>
</trkpt>
<trkpt lat="40.0710976" lon="-105.2299101">
  <ele>1583.0</ele>
  <time>2026-08-28T17:56:35Z</time>
  <course>64.28</course>
  <speed>1.13</speed>
  <fix>3d</fix>
</trkpt>
<trkpt lat="40.0710987" lon="-105.2299063">
  <ele>1583.12</ele>
  <time>2026-08-28T17:56:35Z</time>
  <course>85.29</course>
  <speed>1.0900458705944442</speed>
  <fix>3d</fix>
</trkpt>
<trkpt lat="40.0710985" lon="-105.2299077">
  <ele>1583.0</ele>
  <time>2026-08-28T17:56:35Z</time>
  <course>65.75</course>
  <speed>1.13</speed>
  <fix>3d</fix>
</trkpt>
<trkpt lat="40.0710991" lon="-105.2299051">
  <ele>1583.12</ele>
  <time>2026-08-28T17:56:35Z</time>
  <course>86.01</course>
  <speed>1.0826818553942799</speed>
  <fix>3d</fix>
</trkpt>
<trkpt lat="40.0710985" lon="-105.2299077">
  <ele>1583.0</ele>
  <time>2026-08-28T17:56:35Z</time>
  <course>65.75</course>
  <speed>1.13</speed>
  <fix>3d</fix>
</trkpt>
<trkpt lat="40.0710995" lon="-105.2299039">
  <ele>1583.12</ele>
  <time>2026-08-28T17:56:35Z</time>
  <course>86.7</course>
  <speed>1.0884851859350222</speed>
  <fix>3d</fix>
</trkpt>
<trkpt lat="40.0710993" lon="-105.2299053">
  <ele>1583.0</ele>
  <time>2026-08-28T17:56:35Z</time>
  <course>67.21</course>
  <speed>1.12</speed>
  <fix>3d</fix>
</trkpt>
<trkpt lat="40.0710999" lon="-105.2299027">
  <ele>1583.13</ele>
  <time>2026-08-28T17:56:35Z</time>
  <course>87.33</course>
  <speed>1.0850345616615167</speed>
  <fix>3d</fix>
</trkpt>
<trkpt lat="40.0710993" lon="-105.2299053">
  <ele>1583.0</ele>
  <time>2026-08-28T17:56:35Z</time>
  <course>67.21</course>
  <speed>1.12</speed>
  <fix>3d</fix>
</trkpt>
<trkpt lat="40.0711002" lon="-105.2299014">
  <ele>1583.13</ele>
  <time>2026-08-28T17:56:35Z</time>
  <course>87.93</course>
  <speed>1.0783784122468327</speed>
  <fix>3d</fix>
</trkpt>
<trkpt lat="40.0711" lon="-105.2299029">
  <ele>1583.0</ele>
  <time>2026-08-28T17:56:35Z</time>
  <course>68.67</course>
  <speed>1.11</speed>
  <fix>3d</fix>
</trkpt>
<trkpt lat="40.0711006" lon="-105.2299">
  <ele>1583.13</ele>
  <time>2026-08-28T17:56:35Z</time>
  <course>88.6</course>
  <speed>1.0720541031123383</speed>
  <fix>3d</fix>
</trkpt>
<trkpt lat="40.0711" lon="-105.2299029">
  <ele>1583.0</ele>
  <time>2026-08-28T17:56:35Z</time>
  <course>68.67</course>
  <speed>1.11</speed>
  <fix>3d</fix>
</trkpt>
<trkpt lat="40.0711009" lon="-105.2298987">
  <ele>1583.13</ele>
  <time>2026-08-28T17:56:35Z</time>
  <course>89.13</course>
  <speed>1.0690182411914213</speed>
  <fix>3d</fix>
</trkpt>
<trkpt lat="40.0711007" lon="-105.2299004">
  <ele>1583.0</ele>
  <time>2026-08-28T17:56:35Z</time>
  <course>70.09</course>
  <speed>1.11</speed>
  <fix>3d</fix>
</trkpt>
<trkpt lat="40.0711013" lon="-105.2298975">
  <ele>1583.13</ele>
  <time>2026-08-28T17:56:35Z</time>
  <course>89.59</course>
  <speed>1.0660675400742676</speed>
  <fix>3d</fix>
</trkpt>
<trkpt lat="40.0711007" lon="-105.2299004">
  <ele>1583.0</ele>
  <time>2026-08-28T17:56:35Z</time>
  <course>70.09</course>
  <speed>1.11</speed>
  <fix>3d</fix>
</trkpt>
<trkpt lat="40.0711016" lon="-105.2298963">
  <ele>1583.13</ele>
  <time>2026-08-28T17:56:35Z</time>
  <course>90.01</course>
  <speed>1.0604244433244643</speed>
  <fix>3d</fix>
</trkpt>
<trkpt lat="40.0711014" lon="-105.2298979">
  <ele>1583.0</ele>
  <time>2026-08-28T17:56:35Z</time>
  <course>71.48</course>
  <speed>1.1</speed>
  <fix>3d</fix>
</trkpt>
<trkpt lat="40.0711019" lon="-105.229895">
  <ele>1583.12</ele>
  <time>2026-08-28T17:56:35Z</time>
  <course>90.39</course>
  <speed>1.0577334257741882</speed>
  <fix>3d</fix>
</trkpt>
<trkpt lat="40.0711014" lon="-105.2298979">
  <ele>1583.0</ele>
  <time>2026-08-28T17:56:35Z</time>
  <course>71.48</course>
  <speed>1.1</speed>
  <fix>3d</fix>
</trkpt>
<trkpt lat="40.0711021" lon="-105.2298938">
  <ele>1583.12</ele>
  <time>2026-08-28T17:56:35Z</time>
  <course>90.73</course>
  <speed>1.0551303237041383</speed>
  <fix>3d</fix>
</trkpt>
<trkpt lat="40.0711019" lon="-105.2298955">
  <ele>1583.0</ele>
  <time>2026-08-28T17:56:35Z</time>
  <course>72.83</course>
  <speed>1.09</speed>
  <fix>3d</fix>
</trkpt>
<trkpt lat="40.0711024" lon="-105.2298926">
  <ele>1583.13</ele>
  <time>2026-08-28T17:56:35Z</time>
  <course>91.02</course>
  <speed>1.0501904589168576</speed>
  <fix>3d</fix>
</trkpt>
<trkpt lat="40.0711019" lon="-105.2298955">
  <ele>1583.0</ele>
  <time>2026-08-28T17:56:35Z</time>
  <course>72.83</course>
  <speed>1.09</speed>
  <fix>3d</fix>
</trkpt>
<trkpt lat="40.0711026" lon="-105.2298914">
  <ele>1583.13</ele>
  <time>2026-08-28T17:56:35Z</time>
  <course>91.28</course>
  <speed>1.047854951794379</speed>
  <fix>3d</fix>
</trkpt>
<trkpt lat="40.0711025" lon="-105.229893">
  <ele>1583.0</ele>
  <time>2026-08-28T17:56:35Z</time>
  <course>74.13</course>
  <speed>1.09</speed>
  <fix>3d</fix>
</trkpt>
<trkpt lat="40.0711029" lon="-105.2298901">
  <ele>1583.13</ele>
  <time>2026-08-28T17:56:35Z</time>
  <course>91.49</course>
  <speed>1.045609869884557</speed>
  <fix>3d</fix>
</trkpt>
<trkpt lat="40.0711025" lon="-105.229893">
  <ele>1583.0</ele>
  <time>2026-08-28T17:56:35Z</time>
  <course>74.13</course>
  <speed>1.09</speed>
  <fix>3d</fix>
</trkpt>
<trkpt lat="40.0711031" lon="-105.2298889">
  <ele>1583.13</ele>
  <time>2026-08-28T17:56:35Z</time>
  <course>91.63</course>
  <speed>1.0434557968596465</speed>
  <fix>3d</fix>
</trkpt>
<trkpt lat="40.071103" lon="-105.2298905">
  <ele>1583.0</ele>
  <time>2026-08-28T17:56:35Z</time>
  <course>75.36</course>
  <speed>1.08</speed>
  <fix>3d</fix>
</trkpt>
<trkpt lat="40.0711033" lon="-105.2298877">
  <ele>1583.13</ele>
  <time>2026-08-28T17:56:35Z</time>
  <course>91.75</course>
  <speed>1.041393297462587</speed>
  <fix>3d</fix>
</trkpt>
<trkpt lat="40.071103" lon="-105.2298905">
  <ele>1583.0</ele>
  <time>2026-08-28T17:56:35Z</time>
  <course>75.36</course>
  <speed>1.08</speed>
  <fix>3d</fix>
</trkpt>
<trkpt lat="40.0711035" lon="-105.2298867">
  <ele>1583.13</ele>
  <time>2026-08-28T17:56:35Z</time>
  <course>91.81</course>
  <speed>1.0394229168149025</speed>
  <fix>3d</fix>
</trkpt>
<trkpt lat="40.0711035" lon="-105.2298881">
  <ele>1583.0</ele>
  <time>2026-08-28T17:56:35Z</time>
  <course>76.52</course>
  <speed>1.07</speed>
  <fix>3d</fix>
</trkpt>
<trkpt lat="40.0711037" lon="-105.2298855">
  <ele>1583.13</ele>
  <time>2026-08-28T17:56:35Z</time>
  <course>91.84</course>
  <speed>1.0277159140540737</speed>
  <fix>3d</fix>
</trkpt>
<trkpt lat="40.0711035" lon="-105.2298881">
  <ele>1583.0</ele>
  <time>2026-08-28T17:56:35Z</time>
  <course>76.52</course>
  <speed>1.07</speed>
  <fix>3d</fix>
</trkpt>
<trkpt lat="40.0711039" lon="-105.2298843">
  <ele>1583.13</ele>
  <time>2026-08-28T17:56:35Z</time>
  <course>91.84</course>
  <speed>1.0259142264341596</speed>
  <fix>3d</fix>
</trkpt>
<trkpt lat="40.071104" lon="-105.2298857">
  <ele>1583.0</ele>
  <time>2026-08-28T17:56:35Z</time>
  <course>77.61</course>
  <speed>1.06</speed>
  <fix>3d</fix>
</trkpt>
<trkpt lat="40.0711041" lon="-105.2298831">
  <ele>1583.13</ele>
  <time>2026-08-28T17:56:35Z</time>
  <course>91.79</course>
  <speed>1.0242070103255494</speed>
  <fix>3d</fix>
</trkpt>
<trkpt lat="40.071104" lon="-105.2298857">
  <ele>1583.0</ele>
  <time>2026-08-28T17:56:35Z</time>
  <course>77.61</course>
  <speed>1.06</speed>
  <fix>3d</fix>
</trkpt>
<trkpt lat="40.0711043" lon="-105.2298819">
  <ele>1583.13</ele>
  <time>2026-08-28T17:56:35Z</time>
  <course>91.7</course>
  <speed>1.0225947388873073</speed>
  <fix>3d</fix>
</trkpt>
<trkpt lat="40.0711043" lon="-105.2298832">
  <ele>1583.0</ele>
  <time>2026-08-28T17:56:35Z</time>
  <course>78.62</course>
  <speed>1.05</speed>
  <fix>3d</fix>
</trkpt>
<trkpt lat="40.0711044" lon="-105.2298806">
  <ele>1583.13</ele>
  <time>2026-08-28T17:56:35Z</time>
  <course>91.57</course>
  <speed>1.021077861869505</speed>
  <fix>3d</fix>
</trkpt>
<trkpt lat="40.0711043" lon="-105.2298832">
  <ele>1583.0</ele>
  <time>2026-08-28T17:56:35Z</time>
  <course>78.62</course>
  <speed>1.05</speed>
  <fix>3d</fix>
</trkpt>
<trkpt lat="40.0711046" lon="-105.2298794">
  <ele>1583.14</ele>
  <time>2026-08-28T17:56:35Z</time>
  <course>91.42</course>
  <speed>1.009752444909147</speed>
  <fix>3d</fix>
</trkpt>
<trkpt lat="40.0711047" lon="-105.2298807">
  <ele>1583.0</ele>
  <time>2026-08-28T17:56:35Z</time>
  <course>79.53</course>
  <speed>1.05</speed>
  <fix>3d</fix>
</trkpt>
<trkpt lat="40.0711048" lon="-105.2298782">
  <ele>1583.14</ele>
  <time>2026-08-28T17:56:35Z</time>
  <course>91.21</course>
  <speed>1.0084145972763385</speed>
  <fix>3d</fix>
</trkpt>
<trkpt lat="40.0711047" lon="-105.2298807">
  <ele>1583.0</ele>
  <time>2026-08-28T17:56:35Z</time>
  <course>79.53</course>
  <speed>1.05</speed>
  <fix>3d</fix>
</trkpt>
<trkpt lat="40.0711049" lon="-105.229877">
  <ele>1583.14</ele>
  <time>2026-08-28T17:56:35Z</time>
  <course>90.98</course>
  <speed>1.0084145972763385</speed>
  <fix>3d</fix>
</trkpt>
<trkpt lat="40.071105" lon="-105.2298783">
  <ele>1583.0</ele>
  <time>2026-08-28T17:56:35Z</time>
  <course>80.36</course>
  <speed>1.04</speed>
  <fix>3d</fix>
</trkpt>
<trkpt lat="40.0711051" lon="-105.2298758">
  <ele>1583.14</ele>
  <time>2026-08-28T17:56:35Z</time>
  <course>90.71</course>
  <speed>1.0071742649611337</speed>
  <fix>3d</fix>
</trkpt>
<trkpt lat="40.071105" lon="-105.2298783">
  <ele>1583.0</ele>
  <time>2026-08-28T17:56:35Z</time>
  <course>80.36</course>
  <speed>1.04</speed>
  <fix>3d</fix>
</trkpt>
<trkpt lat="40.0711052" lon="-105.2298743">
  <ele>1583.14</ele>
  <time>2026-08-28T17:56:35Z</time>
  <course>90.33</course>
  <speed>0.9960923651951158</speed>
  <fix>3d</fix>
</trkpt>
<trkpt lat="40.0711053" lon="-105.2298759">
  <ele>1583.0</ele>
  <time>2026-08-28T17:56:35Z</time>
  <course>81.09</course>
  <speed>1.03</speed>
  <fix>3d</fix>
</trkpt>
<trkpt lat="40.0711054" lon="-105.2298731">
  <ele>1583.14</ele>
  <time>2026-08-28T17:56:35Z</time>
  <course>90.0</course>
  <speed>0.9960923651951158</speed>
  <fix>3d</fix>
</trkpt>
<trkpt lat="40.0711053" lon="-105.2298759">
  <ele>1583.0</ele>
  <time>2026-08-28T17:56:35Z</time>
  <course>81.09</course>
  <speed>1.03</speed>
  <fix>3d</fix>
</trkpt>
<trkpt lat="40.0711055" lon="-105.2298719">
  <ele>1583.14</ele>
  <time>2026-08-28T17:56:35Z</time>
  <course>89.6</course>
  <speed>0.9950376877284599</speed>
  <fix>3d</fix>
</trkpt>
<trkpt lat="40.0711056" lon="-105.2298735">
  <ele>1583.0</ele>
  <time>2026-08-28T17:56:35Z</time>
  <course>81.72</course>
  <speed>1.03</speed>
  <fix>3d</fix>
</trkpt>
<trkpt lat="40.0711056" lon="-105.2298707">
  <ele>1583.14</ele>
  <time>2026-08-28T17:56:35Z</time>
  <course>89.2</course>
  <speed>0.9950376877284599</speed>
  <fix>3d</fix>
</trkpt>
<trkpt lat="40.0711056" lon="-105.2298735">
  <ele>1583.0</ele>
  <time>2026-08-28T17:56:35Z</time>
  <course>81.72</course>
  <speed>1.03</speed>
  <fix>3d</fix>
</trkpt>
<trkpt lat="40.0711057" lon="-105.2298696">
  <ele>1583.15</ele>
  <time>2026-08-28T17:56:35Z</time>
  <course>88.76</course>
  <speed>0.9850888284819801</speed>
  <fix>3d</fix>
</trkpt>
<trkpt lat="40.0711059" lon="-105.2298711">
  <ele>1583.0</ele>
  <time>2026-08-28T17:56:35Z</time>
  <course>82.25</course>
  <speed>1.02</speed>
  <fix>3d</fix>
</trkpt>
<trkpt lat="40.0711059" lon="-105.2298684">
  <ele>1583.15</ele>
  <time>2026-08-28T17:56:35Z</time>
  <course>88.3</course>
  <speed>0.9841239759298622</speed>
  <fix>3d</fix>
</trkpt>
<trkpt lat="40.0711059" lon="-105.2298711">
  <ele>1583.0</ele>
  <time>2026-08-28T17:56:35Z</time>
  <course>82.25</course>
  <speed>1.02</speed>
  <fix>3d</fix>
</trkpt>
<trkpt lat="40.071106" lon="-105.2298672">
  <ele>1583.14</ele>
  <time>2026-08-28T17:56:35Z</time>
  <course>87.79</course>
  <speed>0.9841239759298622</speed>
  <fix>3d</fix>
</trkpt>
<trkpt lat="40.0711061" lon="-105.2298687">
  <ele>1583.0</ele>
  <time>2026-08-28T17:56:35Z</time>
  <course>82.67</course>
  <speed>1.01</speed>
  <fix>3d</fix>
</trkpt>
<trkpt lat="40.0711061" lon="-105.229866">
  <ele>1583.14</ele>
  <time>2026-08-28T17:56:35Z</time>
  <course>87.3</course>
  <speed>0.9841239759298622</speed>
  <fix>3d</fix>
</trkpt>
<trkpt lat="40.0711061" lon="-105.2298687">
  <ele>1583.0</ele>
  <time>2026-08-28T17:56:35Z</time>
  <course>82.67</course>
  <speed>1.01</speed>
  <fix>3d</fix>
</trkpt>
<trkpt lat="40.0711062" lon="-105.2298648">
  <ele>1583.14</ele>
  <time>2026-08-28T17:56:35Z</time>
  <course>86.75</course>
  <speed>0.9741663102366043</speed>
  <fix>3d</fix>
</trkpt>
<trkpt lat="40.0711064" lon="-105.2298664">
  <ele>1583.0</ele>
  <time>2026-08-28T17:56:35Z</time>
  <course>83.0</course>
  <speed>1.01</speed>
  <fix>3d</fix>
</trkpt>
<trkpt lat="40.0711063" lon="-105.2298637">
  <ele>1583.14</ele>
  <time>2026-08-28T17:56:35Z</time>
  <course>86.2</course>
  <speed>0.9732933781753578</speed>
  <fix>3d</fix>
</trkpt>
<trkpt lat="40.0711064" lon="-105.2298664">
  <ele>1583.0</ele>
  <time>2026-08-28T17:56:35Z</time>
  <course>83.0</course>
  <speed>1.01</speed>
  <fix>3d</fix>
</trkpt>
<trkpt lat="40.0711064" lon="-105.2298625">
  <ele>1583.15</ele>
  <time>2026-08-28T17:56:35Z</time>
  <course>85.64</course>
  <speed>0.9732933781753578</speed>
  <fix>3d</fix>
</trkpt>
<trkpt lat="40.0711066" lon="-105.2298641">
  <ele>1583.0</ele>
  <time>2026-08-28T17:56:35Z</time>
  <course>83.22</course>
  <speed>1.0</speed>
  <fix>3d</fix>
</trkpt>
<trkpt lat="40.0711065" lon="-105.2298616">
  <ele>1583.14</ele>
  <time>2026-08-28T17:56:35Z</time>
  <course>85.15</course>
  <speed>0.9633275663033837</speed>
  <fix>3d</fix>
</trkpt>
<trkpt lat="40.0711066" lon="-105.2298641">
  <ele>1583.0</ele>
  <time>2026-08-28T17:56:35Z</time>
  <course>83.22</course>
  <speed>1.0</speed>
  <fix>3d</fix>
</trkpt>
<trkpt lat="40.0711066" lon="-105.2298605">
  <ele>1583.14</ele>
  <time>2026-08-28T17:56:35Z</time>
  <course>84.55</course>
  <speed>0.9633275663033837</speed>
  <fix>3d</fix>
</trkpt>
<trkpt lat="40.0711067" lon="-105.2298617">
  <ele>1583.0</ele>
  <time>2026-08-28T17:56:35Z</time>
  <course>83.34</course>
  <speed>1.0</speed>
  <fix>3d</fix>
</trkpt>
<trkpt lat="40.0711067" lon="-105.2298593">
  <ele>1583.15</ele>
  <time>2026-08-28T17:56:35Z</time>
  <course>83.95</course>
  <speed>0.9633275663033837</speed>
  <fix>3d</fix>
</trkpt>
<trkpt lat="40.0711067" lon="-105.2298617">
  <ele>1583.0</ele>
  <time>2026-08-28T17:56:35Z</time>
  <course>83.34</course>
  <speed>1.0</speed>
  <fix>3d</fix>
</trkpt>
<trkpt lat="40.0711068" lon="-105.2298581">
  <ele>1583.15</ele>
  <time>2026-08-28T17:56:35Z</time>
  <course>83.33</course>
  <speed>0.9633275663033837</speed>
  <fix>3d</fix>
</trkpt>
<trkpt lat="40.071107" lon="-105.2298594">
  <ele>1583.0</ele>
  <time>2026-08-28T17:56:35Z</time>
  <course>83.36</course>
  <speed>0.99</speed>
  <fix>3d</fix>
</trkpt>
<trkpt lat="40.0711069" lon="-105.229857">
  <ele>1583.15</ele>
  <time>2026-08-28T17:56:35Z</time>
  <course>82.69</course>
  <speed>0.9642095207992918</speed>
  <fix>3d</fix>
</trkpt>
<trkpt lat="40.071107" lon="-105.2298594">
  <ele>1583.0</ele>
  <time>2026-08-28T17:56:35Z</time>
  <course>83.36</course>
  <speed>0.99</speed>
  <fix>3d</fix>
</trkpt>
<trkpt lat="40.071107" lon="-105.2298558">
  <ele>1583.15</ele>
  <time>2026-08-28T17:56:35Z</time>
  <course>82.01</course>
  <speed>0.9542536350467836</speed>
  <fix>3d</fix>
</trkpt>
<trkpt lat="40.0711072" lon="-105.229857">
  <ele>1583.0</ele>
  <time>2026-08-28T17:56:35Z</time>
  <course>83.29</course>
  <speed>0.99</speed>
  <fix>3d</fix>
</trkpt>
<trkpt lat="40.0711072" lon="-105.2298547">
  <ele>1583.15</ele>
  <time>2026-08-28T17:56:35Z</time>
  <course>81.33</course>
  <speed>0.9542536350467836</speed>
  <fix>3d</fix>
</trkpt>
<trkpt lat="40.0711072" lon="-105.229857">
  <ele>1583.0</ele>
  <time>2026-08-28T17:56:35Z</time>
  <course>83.29</course>
  <speed>0.99</speed>
  <fix>3d</fix>
</trkpt>
<trkpt lat="40.0711073" lon="-105.2298535">
  <ele>1583.15</ele>
  <time>2026-08-28T17:56:35Z</time>
  <course>80.66</course>
  <speed>0.9542536350467836</speed>
  <fix>3d</fix>
</trkpt>
<trkpt lat="40.0711074" lon="-105.2298547">
  <ele>1583.0</ele>
  <time>2026-08-28T17:56:35Z</time>
  <course>83.11</course>
  <speed>0.98</speed>
  <fix>3d</fix>
</trkpt>
<trkpt lat="40.0711074" lon="-105.2298524">
  <ele>1583.15</ele>
  <time>2026-08-28T17:56:35Z</time>
  <course>79.96</course>
  <speed>0.9542536350467836</speed>
  <fix>3d</fix>
</trkpt>
<trkpt lat="40.0711074" lon="-105.2298547">
  <ele>1583.0</ele>
  <time>2026-08-28T17:56:35Z</time>
  <course>83.11</course>
  <speed>0.98</speed>
  <fix>3d</fix>
</trkpt>
<trkpt lat="40.0711075" lon="-105.2298512">
  <ele>1583.15</ele>
  <time>2026-08-28T17:56:35Z</time>
  <course>79.31</course>
  <speed>0.95524865872714</speed>
  <fix>3d</fix>
</trkpt>
<trkpt lat="40.0711076" lon="-105.2298524">
  <ele>1583.0</ele>
  <time>2026-08-28T17:56:35Z</time>
  <course>82.85</course>
  <speed>0.98</speed>
  <fix>3d</fix>
</trkpt>
<trkpt lat="40.0711076" lon="-105.2298498">
  <ele>1583.15</ele>
  <time>2026-08-28T17:56:35Z</time>
  <course>78.51</course>
  <speed>0.945304183847718</speed>
  <fix>3d</fix>
</trkpt>
<trkpt lat="40.0711076" lon="-105.2298524">
  <ele>1583.0</ele>
  <time>2026-08-28T17:56:35Z</time>
  <course>82.85</course>
  <speed>0.98</speed>
  <fix>3d</fix>
</trkpt>
<trkpt lat="40.0711078" lon="-105.2298487">
  <ele>1583.15</ele>
  <time>2026-08-28T17:56:35Z</time>
  <course>77.86</course>
  <speed>0.945304183847718</speed>
  <fix>3d</fix>
</trkpt>
<trkpt lat="40.0711079" lon="-105.2298502">
  <ele>1583.0</ele>
  <time>2026-08-28T17:56:35Z</time>
  <course>82.5</course>
  <speed>0.98</speed>
  <fix>3d</fix>
</trkpt>
<trkpt lat="40.0711079" lon="-105.2298475">
  <ele>1583.15</ele>
  <time>2026-08-28T17:56:35Z</time>
  <course>77.21</course>
  <speed>0.9464142856064675</speed>
  <fix>3d</fix>
</trkpt>
<trkpt lat="40.0711079" lon="-105.2298502">
  <ele>1583.0</ele>
  <time>2026-08-28T17:56:35Z</time>
  <course>82.5</course>
  <speed>0.98</speed>
  <fix>3d</fix>
</trkpt>
<trkpt lat="40.071108" lon="-105.2298464">
  <ele>1583.15</ele>
  <time>2026-08-28T17:56:35Z</time>
  <course>76.56</course>
  <speed>0.9464142856064675</speed>
  <fix>3d</fix>
</trkpt>
<trkpt lat="40.071108" lon="-105.2298479">
  <ele>1583.0</ele>
  <time>2026-08-28T17:56:35Z</time>
  <course>82.08</course>
  <speed>0.97</speed>
  <fix>3d</fix>
</trkpt>
<trkpt lat="40.0711081" lon="-105.2298453">
  <ele>1583.15</ele>
  <time>2026-08-28T17:56:35Z</time>
  <course>75.87</course>
  <speed>0.9476286192385708</speed>
  <fix>3d</fix>
</trkpt>
<trkpt lat="40.071108" lon="-105.2298479">
  <ele>1583.0</ele>
  <time>2026-08-28T17:56:35Z</time>
  <course>82.08</course>
  <speed>0.97</speed>
  <fix>3d</fix>
</trkpt>
<trkpt lat="40.0711083" lon="-105.2298441">
  <ele>1583.15</ele>
  <time>2026-08-28T17:56:35Z</time>
  <course>75.21</course>
  <speed>0.9476286192385708</speed>
  <fix>3d</fix>
</trkpt>
<trkpt lat="40.0711083" lon="-105.2298456">
  <ele>1583.0</ele>
  <time>2026-08-28T17:56:35Z</time>
  <course>81.58</course>
  <speed>0.97</speed>
  <fix>3d</fix>
</trkpt>
<trkpt lat="40.0711084" lon="-105.229843">
  <ele>1583.15</ele>
  <time>2026-08-28T17:56:35Z</time>
  <course>74.56</course>
  <speed>0.9390420650854785</speed>
  <fix>3d</fix>
</trkpt>
<trkpt lat="40.0711083" lon="-105.2298456">
  <ele>1583.0</ele>
  <time>2026-08-28T17:56:35Z</time>
  <course>81.58</course>
  <speed>0.97</speed>
  <fix>3d</fix>
</trkpt>
<trkpt lat="40.0711086" lon="-105.2298419">
  <ele>1583.15</ele>
  <time>2026-08-28T17:56:35Z</time>
  <course>73.89</course>
  <speed>0.9390420650854785</speed>
  <fix>3d</fix>
</trkpt>
<trkpt lat="40.0711086" lon="-105.2298433">
  <ele>1583.0</ele>
  <time>2026-08-28T17:56:35Z</time>
  <course>81.01</course>
  <speed>0.97</speed>
  <fix>3d</fix>
</trkpt>
<trkpt lat="40.0711087" lon="-105.2298408">
  <ele>1583.15</ele>
  <time>2026-08-28T17:56:35Z</time>
  <course>73.29</course>
  <speed>0.9404786015641186</speed>
  <fix>3d</fix>
</trkpt>
<trkpt lat="40.0711086" lon="-105.2298433">
  <ele>1583.0</ele>
  <time>2026-08-28T17:56:35Z</time>
  <course>81.01</course>
  <speed>0.97</speed>
  <fix>3d</fix>
</trkpt>
<trkpt lat="40.0711088" lon="-105.2298397">
  <ele>1583.15</ele>
  <time>2026-08-28T17:56:35Z</time>
  <course>72.66</course>
  <speed>0.9404786015641186</speed>
  <fix>3d</fix>
</trkpt>
<trkpt lat="40.0711089" lon="-105.2298411">
  <ele>1583.0</ele>
  <time>2026-08-28T17:56:35Z</time>
  <course>80.38</course>
  <speed>0.96</speed>
  <fix>3d</fix>
</trkpt>
<trkpt lat="40.071109" lon="-105.2298385">
  <ele>1583.15</ele>
  <time>2026-08-28T17:56:35Z</time>
  <course>72.06</course>
  <speed>0.942019108086455</speed>
  <fix>3d</fix>
</trkpt>
<trkpt lat="40.0711089" lon="-105.2298411">
  <ele>1583.0</ele>
  <time>2026-08-28T17:56:35Z</time>
  <course>80.38</course>
  <speed>0.96</speed>
  <fix>3d</fix>
</trkpt>
<trkpt lat="40.0711091" lon="-105.2298377">
  <ele>1583.15</ele>
  <time>2026-08-28T17:56:35Z</time>
  <course>71.57</course>
  <speed>0.932148056909416</speed>
  <fix>3d</fix>
</trkpt>
<trkpt lat="40.0711091" lon="-105.2298389">
  <ele>1583.0</ele>
  <time>2026-08-28T17:56:35Z</time>
  <course>79.7</course>
  <speed>0.96</speed>
  <fix>3d</fix>
</trkpt>
<trkpt lat="40.0711093" lon="-105.2298365">
  <ele>1583.15</ele>
  <time>2026-08-28T17:56:35Z</time>
  <course>70.97</course>
  <speed>0.9338094023943002</speed>
  <fix>3d</fix>
</trkpt>
<trkpt lat="40.0711091" lon="-105.2298389">
  <ele>1583.0</ele>
  <time>2026-08-28T17:56:35Z</time>
  <course>79.7</course>
  <speed>0.96</speed>
  <fix>3d</fix>
</trkpt>
<trkpt lat="40.0711095" lon="-105.2298354">
  <ele>1583.15</ele>
  <time>2026-08-28T17:56:35Z</time>
  <course>70.42</course>
  <speed>0.9355746896961247</speed>
  <fix>3d</fix>
</trkpt>
<trkpt lat="40.0711095" lon="-105.2298366">
  <ele>1583.0</ele>
  <time>2026-08-28T17:56:35Z</time>
  <course>78.97</course>
  <speed>0.96</speed>
  <fix>3d</fix>
</trkpt>
<trkpt lat="40.0711097" lon="-105.2298343">
  <ele>1583.15</ele>
  <time>2026-08-28T17:56:35Z</time>
  <course>69.88</course>
  <speed>0.9355746896961247</speed>
  <fix>3d</fix>
</trkpt>
<trkpt lat="40.0711095" lon="-105.2298366">
  <ele>1583.0</ele>
  <time>2026-08-28T17:56:35Z</time>
  <course>78.97</course>
  <speed>0.96</speed>
  <fix>3d</fix>
</trkpt>
<trkpt lat="40.0711098" lon="-105.2298332">
  <ele>1583.15</ele>
  <time>2026-08-28T17:56:35Z</time>
  <course>69.34</course>
  <speed>0.9374433316206372</speed>
  <fix>3d</fix>
</trkpt>
<trkpt lat="40.0711098" lon="-105.2298345">
  <ele>1583.0</ele>
  <time>2026-08-28T17:56:35Z</time>
  <course>78.21</course>
  <speed>0.96</speed>
  <fix>3d</fix>
</trkpt>
<trkpt lat="40.07111" lon="-105.2298321">
  <ele>1583.15</ele>
  <time>2026-08-28T17:56:35Z</time>
  <course>68.79</course>
  <speed>0.9394147114027968</speed>
  <fix>3d</fix>
</trkpt>
<trkpt lat="40.0711098" lon="-105.2298345">
  <ele>1583.0</ele>
  <time>2026-08-28T17:56:35Z</time>
  <course>78.21</course>
  <speed>0.96</speed>
  <fix>3d</fix>
</trkpt>
<trkpt lat="40.0711102" lon="-105.229831">
  <ele>1583.15</ele>
  <time>2026-08-28T17:56:35Z</time>
  <course>68.33</course>
  <speed>0.929623579735368</speed>
  <fix>3d</fix>
</trkpt>
<trkpt lat="40.0711101" lon="-105.2298323">
  <ele>1583.0</ele>
  <time>2026-08-28T17:56:35Z</time>
  <course>77.41</course>
  <speed>0.96</speed>
  <fix>3d</fix>
</trkpt>
<trkpt lat="40.0711104" lon="-105.2298299">
  <ele>1583.16</ele>
  <time>2026-08-28T17:56:35Z</time>
  <course>67.88</course>
  <speed>0.9317188417113823</speed>
  <fix>3d</fix>
</trkpt>
<trkpt lat="40.0711101" lon="-105.2298323">
  <ele>1583.0</ele>
  <time>2026-08-28T17:56:35Z</time>
  <course>77.41</course>
  <speed>0.96</speed>
  <fix>3d</fix>
</trkpt>
<trkpt lat="40.0711106" lon="-105.2298288">
  <ele>1583.16</ele>
  <time>2026-08-28T17:56:35Z</time>
  <course>67.4</course>
  <speed>0.9339164844888433</speed>
  <fix>3d</fix>
</trkpt>
<trkpt lat="40.0711106" lon="-105.22983">
  <ele>1583.0</ele>
  <time>2026-08-28T17:56:35Z</time>
  <course>76.6</course>
  <speed>0.96</speed>
  <fix>3d</fix>
</trkpt>
<trkpt lat="40.0711108" lon="-105.2298277">
  <ele>1583.16</ele>
  <time>2026-08-28T17:56:35Z</time>
  <course>66.95</course>
  <speed>0.9339164844888433</speed>
  <fix>3d</fix>
</trkpt>
<trkpt lat="40.0711106" lon="-105.22983">
  <ele>1583.0</ele>
  <time>2026-08-28T17:56:35Z</time>
  <course>76.6</course>
  <speed>0.96</speed>
  <fix>3d</fix>
</trkpt>
<trkpt lat="40.0711111" lon="-105.2298264">
  <ele>1583.17</ele>
  <time>2026-08-28T17:56:35Z</time>
  <course>66.43</course>
  <speed>0.9362157870918435</speed>
  <fix>3d</fix>
</trkpt>
<trkpt lat="40.071111" lon="-105.2298279">
  <ele>1583.0</ele>
  <time>2026-08-28T17:56:35Z</time>
  <course>75.77</course>
  <speed>0.96</speed>
  <fix>3d</fix>
</trkpt>
<trkpt lat="40.0711113" lon="-105.2298253">
  <ele>1583.17</ele>
  <time>2026-08-28T17:56:35Z</time>
  <course>66.06</course>
  <speed>0.9386160024205852</speed>
  <fix>3d</fix>
</trkpt>
<trkpt lat="40.071111" lon="-105.2298279">
  <ele>1583.0</ele>
  <time>2026-08-28T17:56:35Z</time>
  <course>75.77</course>
  <speed>0.96</speed>
  <fix>3d</fix>
</trkpt>
<trkpt lat="40.0711116" lon="-105.2298242">
  <ele>1583.17</ele>
  <time>2026-08-28T17:56:35Z</time>
  <course>65.71</course>
  <speed>0.9289241088485108</speed>
  <fix>3d</fix>
</trkpt>
<trkpt lat="40.0711114" lon="-105.2298256">
  <ele>1583.0</ele>
  <time>2026-08-28T17:56:35Z</time>
  <course>74.94</course>
  <speed>0.96</speed>
  <fix>3d</fix>
</trkpt>
<trkpt lat="40.0711118" lon="-105.2298231">
  <ele>1583.16</ele>
  <time>2026-08-28T17:56:35Z</time>
  <course>65.36</course>
  <speed>0.9314504817756014</speed>
  <fix>3d</fix>
</trkpt>
<trkpt lat="40.0711114" lon="-105.2298256">
  <ele>1583.0</ele>
  <time>2026-08-28T17:56:35Z</time>
  <course>74.94</course>
  <speed>0.96</speed>
  <fix>3d</fix>
</trkpt>
<trkpt lat="40.071112" lon="-105.229822">
  <ele>1583.16</ele>
  <time>2026-08-28T17:56:35Z</time>
  <course>65.04</course>
  <speed>0.9340770846134703</speed>
  <fix>3d</fix>
</trkpt>
<trkpt lat="40.0711119" lon="-105.2298235">
  <ele>1583.0</ele>
  <time>2026-08-28T17:56:35Z</time>
  <course>74.12</course>
  <speed>0.96</speed>
  <fix>3d</fix>
</trkpt>
<trkpt lat="40.0711123" lon="-105.2298209">
  <ele>1583.16</ele>
  <time>2026-08-28T17:56:35Z</time>
  <course>64.75</course>
  <speed>0.9340770846134703</speed>
  <fix>3d</fix>
</trkpt>
<trkpt lat="40.0711119" lon="-105.2298235">
  <ele>1583.0</ele>
  <time>2026-08-28T17:56:35Z</time>
  <course>74.12</course>
  <speed>0.96</speed>
  <fix>3d</fix>
</trkpt>
<trkpt lat="40.0711125" lon="-105.2298199">
  <ele>1583.16</ele>
  <time>2026-08-28T17:56:35Z</time>
  <course>64.47</course>
  <speed>0.9368030742904295</speed>
  <fix>3d</fix>
</trkpt>
<trkpt lat="40.0711124" lon="-105.2298213">
  <ele>1583.0</ele>
  <time>2026-08-28T17:56:35Z</time>
  <course>73.3</course>
  <speed>0.96</speed>
  <fix>3d</fix>
</trkpt>
<trkpt lat="40.0711128" lon="-105.2298188">
  <ele>1583.16</ele>
  <time>2026-08-28T17:56:35Z</time>
  <course>64.2</course>
  <speed>0.9300537618869137</speed>
  <fix>3d</fix>
</trkpt>
<trkpt lat="40.0711124" lon="-105.2298213">
  <ele>1583.0</ele>
  <time>2026-08-28T17:56:35Z</time>
  <course>73.3</course>
  <speed>0.96</speed>
  <fix>3d</fix>
</trkpt>
<trkpt lat="40.0711131" lon="-105.2298177">
  <ele>1583.15</ele>
  <time>2026-08-28T17:56:35Z</time>
  <course>63.95</course>
  <speed>0.9300537618869137</speed>
  <fix>3d</fix>
</trkpt>
<trkpt lat="40.0711129" lon="-105.2298191">
  <ele>1583.0</ele>
  <time>2026-08-28T17:56:36Z</time>
  <course>72.5</course>
  <speed>0.96</speed>
  <fix>3d</fix>
</trkpt>
<trkpt lat="40.0711133" lon="-105.2298167">
  <ele>1583.15</ele>
  <time>2026-08-28T17:56:36Z</time>
  <course>63.72</course>
  <speed>0.9330058949438638</speed>
  <fix>3d</fix>
</trkpt>
<trkpt lat="40.0711129" lon="-105.2298191">
  <ele>1583.0</ele>
  <time>2026-08-28T17:56:36Z</time>
  <course>72.5</course>
  <speed>0.96</speed>
  <fix>3d</fix>
</trkpt>
<trkpt lat="40.0711136" lon="-105.2298156">
  <ele>1583.15</ele>
  <time>2026-08-28T17:56:36Z</time>
  <course>63.56</course>
  <speed>0.9360555539069249</speed>
  <fix>3d</fix>
</trkpt>
<trkpt lat="40.0711134" lon="-105.229817">
  <ele>1583.0</ele>
  <time>2026-08-28T17:56:36Z</time>
  <course>71.72</course>
  <speed>0.96</speed>
  <fix>3d</fix>
</trkpt>
<trkpt lat="40.0711138" lon="-105.2298148">
  <ele>1583.15</ele>
  <time>2026-08-28T17:56:36Z</time>
  <course>63.44</course>
  <speed>0.9360555539069249</speed>
  <fix>3d</fix>
</trkpt>
<trkpt lat="40.0711134" lon="-105.229817">
  <ele>1583.0</ele>
  <time>2026-08-28T17:56:36Z</time>
  <course>71.72</course>
  <speed>0.96</speed>
  <fix>3d</fix>
</trkpt>
<trkpt lat="40.0711141" lon="-105.2298137">
  <ele>1583.15</ele>
  <time>2026-08-28T17:56:36Z</time>
  <course>63.29</course>
  <speed>0.9392017887546851</speed>
  <fix>3d</fix>
</trkpt>
<trkpt lat="40.0711139" lon="-105.2298148">
  <ele>1583.0</ele>
  <time>2026-08-28T17:56:36Z</time>
  <course>70.98</course>
  <speed>0.96</speed>
  <fix>3d</fix>
</trkpt>
<trkpt lat="40.0711144" lon="-105.2298126">
  <ele>1583.15</ele>
  <time>2026-08-28T17:56:36Z</time>
  <course>63.16</course>
  <speed>0.9297311439335567</speed>
  <fix>3d</fix>
</trkpt>
<trkpt lat="40.0711139" lon="-105.2298148">
  <ele>1583.0</ele>
  <time>2026-08-28T17:56:36Z</time>
  <course>70.98</course>
  <speed>0.96</speed>
  <fix>3d</fix>
</trkpt>
<trkpt lat="40.0711147" lon="-105.2298116">
  <ele>1583.15</ele>
  <time>2026-08-28T17:56:36Z</time>
  <course>63.06</course>
  <speed>0.9330058949438638</speed>
  <fix>3d</fix>
</trkpt>
<trkpt lat="40.0711146" lon="-105.2298127">
  <ele>1583.0</ele>
  <time>2026-08-28T17:56:36Z</time>
  <course>70.26</course>
  <speed>0.96</speed>
  <fix>3d</fix>
</trkpt>
<trkpt lat="40.071115" lon="-105.2298105">
  <ele>1583.14</ele>
  <time>2026-08-28T17:56:36Z</time>
  <course>63.01</course>
  <speed>0.9330058949438638</speed>
  <fix>3d</fix>
</trkpt>
<trkpt lat="40.0711146" lon="-105.2298127">
  <ele>1583.0</ele>
  <time>2026-08-28T17:56:36Z</time>
  <course>70.26</course>
  <speed>0.96</speed>
  <fix>3d</fix>
</trkpt>
<trkpt lat="40.0711153" lon="-105.2298094">
  <ele>1583.14</ele>
  <time>2026-08-28T17:56:36Z</time>
  <course>62.96</course>
  <speed>0.93637599285757</speed>
  <fix>3d</fix>
</trkpt>
<trkpt lat="40.0711151" lon="-105.2298106">
  <ele>1583.0</ele>
  <time>2026-08-28T17:56:36Z</time>
  <course>69.59</course>
  <speed>0.96</speed>
  <fix>3d</fix>
</trkpt>
<trkpt lat="40.0711156" lon="-105.2298084">
  <ele>1583.13</ele>
  <time>2026-08-28T17:56:36Z</time>
  <course>62.91</course>
  <speed>0.93637599285757</speed>
  <fix>3d</fix>
</trkpt>
<trkpt lat="40.0711151" lon="-105.2298106">
  <ele>1583.0</ele>
  <time>2026-08-28T17:56:36Z</time>
  <course>69.59</course>
  <speed>0.96</speed>
  <fix>3d</fix>
</trkpt>
<trkpt lat="40.0711159" lon="-105.2298073">
  <ele>1583.13</ele>
  <time>2026-08-28T17:56:36Z</time>
  <course>62.89</course>
  <speed>0.9398404119849285</speed>
  <fix>3d</fix>
</trkpt>
<trkpt lat="40.0711158" lon="-105.2298084">
  <ele>1583.0</ele>
  <time>2026-08-28T17:56:36Z</time>
  <course>68.97</course>
  <speed>0.96</speed>
  <fix>3d</fix>
</trkpt>
<trkpt lat="40.0711163" lon="-105.2298062">
  <ele>1583.13</ele>
  <time>2026-08-28T17:56:36Z</time>
  <course>62.89</course>
  <speed>0.9398404119849285</speed>
  <fix>3d</fix>
</trkpt>
<trkpt lat="40.0711158" lon="-105.2298084">
  <ele>1583.0</ele>
  <time>2026-08-28T17:56:36Z</time>
  <course>68.97</course>
  <speed>0.96</speed>
  <fix>3d</fix>
</trkpt>
<trkpt lat="40.0711167" lon="-105.229805">
  <ele>1583.12</ele>
  <time>2026-08-28T17:56:36Z</time>
  <course>62.93</course>
  <speed>0.9433981132056605</speed>
  <fix>3d</fix>
</trkpt>
<trkpt lat="40.0711163" lon="-105.2298063">
  <ele>1583.0</ele>
  <time>2026-08-28T17:56:36Z</time>
  <course>68.39</course>
  <speed>0.96</speed>
  <fix>3d</fix>
</trkpt>
<trkpt lat="40.071117" lon="-105.2298039">
  <ele>1583.12</ele>
  <time>2026-08-28T17:56:36Z</time>
  <course>62.99</course>
  <speed>0.9433981132056605</speed>
  <fix>3d</fix>
</trkpt>
<trkpt lat="40.0711163" lon="-105.2298063">
  <ele>1583.0</ele>
  <time>2026-08-28T17:56:36Z</time>
  <course>68.39</course>
  <speed>0.96</speed>
  <fix>3d</fix>
</trkpt>
<trkpt lat="40.0711173" lon="-105.2298028">
  <ele>1583.12</ele>
  <time>2026-08-28T17:56:36Z</time>
  <course>63.09</course>
  <speed>0.9470480452437458</speed>
  <fix>3d</fix>
</trkpt>
<trkpt lat="40.071117" lon="-105.2298042">
  <ele>1583.0</ele>
  <time>2026-08-28T17:56:36Z</time>
  <course>67.86</course>
  <speed>0.96</speed>
  <fix>3d</fix>
</trkpt>
<trkpt lat="40.0711177" lon="-105.2298018">
  <ele>1583.12</ele>
  <time>2026-08-28T17:56:36Z</time>
  <course>63.19</course>
  <speed>0.9377632963600143</speed>
  <fix>3d</fix>
</trkpt>
<trkpt lat="40.071117" lon="-105.2298042">
  <ele>1583.0</ele>
  <time>2026-08-28T17:56:36Z</time>
  <course>67.86</course>
  <speed>0.96</speed>
  <fix>3d</fix>
</trkpt>
<trkpt lat="40.071118" lon="-105.2298007">
  <ele>1583.13</ele>
  <time>2026-08-28T17:56:36Z</time>
  <course>63.29</course>
  <speed>0.9377632963600143</speed>
  <fix>3d</fix>
</trkpt>
<trkpt lat="40.0711177" lon="-105.2298021">
  <ele>1583.0</ele>
  <time>2026-08-28T17:56:36Z</time>
  <course>67.39</course>
  <speed>0.96</speed>
  <fix>3d</fix>
</trkpt>
<trkpt lat="40.0711183" lon="-105.2297997">
  <ele>1583.13</ele>
  <time>2026-08-28T17:56:36Z</time>
  <course>63.43</course>
  <speed>0.9415412895885129</speed>
  <fix>3d</fix>
</trkpt>
<trkpt lat="40.0711177" lon="-105.2298021">
  <ele>1583.0</ele>
  <time>2026-08-28T17:56:36Z</time>
  <course>67.39</course>
  <speed>0.96</speed>
  <fix>3d</fix>
</trkpt>
<trkpt lat="40.0711187" lon="-105.2297986">
  <ele>1583.13</ele>
  <time>2026-08-28T17:56:36Z</time>
  <course>63.59</course>
  <speed>0.9415412895885129</speed>
  <fix>3d</fix>
</trkpt>
<trkpt lat="40.0711184" lon="-105.2298">
  <ele>1583.0</ele>
  <time>2026-08-28T17:56:36Z</time>
  <course>66.97</course>
  <speed>0.97</speed>
  <fix>3d</fix>
</trkpt>
<trkpt lat="40.071119" lon="-105.2297976">
  <ele>1583.14</ele>
  <time>2026-08-28T17:56:36Z</time>
  <course>63.74</course>
  <speed>0.9415412895885129</speed>
  <fix>3d</fix>
</trkpt>
<trkpt lat="40.0711184" lon="-105.2298">
  <ele>1583.0</ele>
  <time>2026-08-28T17:56:36Z</time>
  <course>66.97</course>
  <speed>0.97</speed>
  <fix>3d</fix>
</trkpt>
<trkpt lat="40.0711194" lon="-105.2297965">
  <ele>1583.14</ele>
  <time>2026-08-28T17:56:36Z</time>
  <course>63.89</course>
  <speed>0.9415412895885129</speed>
  <fix>3d</fix>
</trkpt>
<trkpt lat="40.071119" lon="-105.2297979">
  <ele>1583.0</ele>
  <time>2026-08-28T17:56:36Z</time>
  <course>66.61</course>
  <speed>0.97</speed>
  <fix>3d</fix>
</trkpt>
<trkpt lat="40.0711197" lon="-105.2297955">
  <ele>1583.14</ele>
  <time>2026-08-28T17:56:36Z</time>
  <course>64.08</course>
  <speed>0.9454099639838793</speed>
  <fix>3d</fix>
</trkpt>
<trkpt lat="40.071119" lon="-105.2297979">
  <ele>1583.0</ele>
  <time>2026-08-28T17:56:36Z</time>
  <course>66.61</course>
  <speed>0.97</speed>
  <fix>3d</fix>
</trkpt>
<trkpt lat="40.0711201" lon="-105.2297944">
  <ele>1583.15</ele>
  <time>2026-08-28T17:56:36Z</time>
  <course>64.29</course>
  <speed>0.9454099639838793</speed>
  <fix>3d</fix>
</trkpt>
<trkpt lat="40.0711197" lon="-105.2297958">
  <ele>1583.0</ele>
  <time>2026-08-28T17:56:36Z</time>
  <course>66.3</course>
  <speed>0.97</speed>
  <fix>3d</fix>
</trkpt>
<trkpt lat="40.0711204" lon="-105.2297934">
  <ele>1583.15</ele>
  <time>2026-08-28T17:56:36Z</time>
  <course>64.54</course>
  <speed>0.9454099639838793</speed>
  <fix>3d</fix>
</trkpt>
<trkpt lat="40.0711197" lon="-105.2297958">
  <ele>1583.0</ele>
  <time>2026-08-28T17:56:36Z</time>
  <course>66.3</course>
  <speed>0.97</speed>
  <fix>3d</fix>
</trkpt>
<trkpt lat="40.0711207" lon="-105.2297926">
  <ele>1583.15</ele>
  <time>2026-08-28T17:56:36Z</time>
  <course>64.74</course>
  <speed>0.9454099639838793</speed>
  <fix>3d</fix>
</trkpt>
<trkpt lat="40.0711205" lon="-105.2297937">
  <ele>1583.0</ele>
  <time>2026-08-28T17:56:36Z</time>
  <course>66.06</course>
  <speed>0.97</speed>
  <fix>3d</fix>
</trkpt>
<trkpt lat="40.0711211" lon="-105.2297915">
  <ele>1583.15</ele>
  <time>2026-08-28T17:56:36Z</time>
  <course>64.97</course>
  <speed>0.9454099639838793</speed>
  <fix>3d</fix>
</trkpt>
<trkpt lat="40.0711205" lon="-105.2297937">
  <ele>1583.0</ele>
  <time>2026-08-28T17:56:36Z</time>
  <course>66.06</course>
  <speed>0.97</speed>
  <fix>3d</fix>
</trkpt>
<trkpt lat="40.0711214" lon="-105.2297905">
  <ele>1583.15</ele>
  <time>2026-08-28T17:56:36Z</time>
  <course>65.2</course>
  <speed>0.9454099639838793</speed>
  <fix>3d</fix>
</trkpt>
<trkpt lat="40.0711212" lon="-105.2297916">
  <ele>1583.0</ele>
  <time>2026-08-28T17:56:36Z</time>
  <course>65.87</course>
  <speed>0.97</speed>
  <fix>3d</fix>
</trkpt>
<trkpt lat="40.0711218" lon="-105.2297894">
  <ele>1583.15</ele>
  <time>2026-08-28T17:56:36Z</time>
  <course>65.44</course>
  <speed>0.9454099639838793</speed>
  <fix>3d</fix>
</trkpt>
<trkpt lat="40.0711212" lon="-105.2297916">
  <ele>1583.0</ele>
  <time>2026-08-28T17:56:36Z</time>
  <course>65.87</course>
  <speed>0.97</speed>
  <fix>3d</fix>
</trkpt>
<trkpt lat="40.0711221" lon="-105.2297884">
  <ele>1583.15</ele>
  <time>2026-08-28T17:56:36Z</time>
  <course>65.71</course>
  <speed>0.9493682109698007</speed>
  <fix>3d</fix>
</trkpt>
<trkpt lat="40.0711219" lon="-105.2297896">
  <ele>1583.0</ele>
  <time>2026-08-28T17:56:36Z</time>
  <course>65.74</course>
  <speed>0.97</speed>
  <fix>3d</fix>
</trkpt>
<trkpt lat="40.0711225" lon="-105.2297873">
  <ele>1583.15</ele>
  <time>2026-08-28T17:56:36Z</time>
  <course>65.96</course>
  <speed>0.9493682109698007</speed>
  <fix>3d</fix>
</trkpt>
<trkpt lat="40.0711219" lon="-105.2297896">
  <ele>1583.0</ele>
  <time>2026-08-28T17:56:36Z</time>
  <course>65.74</course>
  <speed>0.97</speed>
  <fix>3d</fix>
</trkpt>
<trkpt lat="40.0711229" lon="-105.2297863">
  <ele>1583.15</ele>
  <time>2026-08-28T17:56:36Z</time>
  <course>66.26</course>
  <speed>0.9493682109698007</speed>
  <fix>3d</fix>
</trkpt>
<trkpt lat="40.0711226" lon="-105.2297875">
  <ele>1583.0</ele>
  <time>2026-08-28T17:56:36Z</time>
  <course>65.65</course>
  <speed>0.97</speed>
  <fix>3d</fix>
</trkpt>
<trkpt lat="40.0711232" lon="-105.2297852">
  <ele>1583.15</ele>
  <time>2026-08-28T17:56:36Z</time>
  <course>66.56</course>
  <speed>0.9493682109698007</speed>
  <fix>3d</fix>
</trkpt>
<trkpt lat="40.0711226" lon="-105.2297875">
  <ele>1583.0</ele>
  <time>2026-08-28T17:56:36Z</time>
  <course>65.65</course>
  <speed>0.97</speed>
  <fix>3d</fix>
</trkpt>
<trkpt lat="40.0711236" lon="-105.2297842">
  <ele>1583.15</ele>
  <time>2026-08-28T17:56:36Z</time>
  <course>66.86</course>
  <speed>0.9493682109698007</speed>
  <fix>3d</fix>
</trkpt>
<trkpt lat="40.0711233" lon="-105.2297854">
  <ele>1583.0</ele>
  <time>2026-08-28T17:56:36Z</time>
  <course>65.63</course>
  <speed>0.97</speed>
  <fix>3d</fix>
</trkpt>
<trkpt lat="40.071124" lon="-105.2297829">
  <ele>1583.14</ele>
  <time>2026-08-28T17:56:36Z</time>
  <course>67.22</course>
  <speed>0.9493682109698007</speed>
  <fix>3d</fix>
</trkpt>
<trkpt lat="40.0711233" lon="-105.2297854">
  <ele>1583.0</ele>
  <time>2026-08-28T17:56:36Z</time>
  <course>65.63</course>
  <speed>0.97</speed>
  <fix>3d</fix>
</trkpt>
<trkpt lat="40.0711244" lon="-105.2297819">
  <ele>1583.14</ele>
  <time>2026-08-28T17:56:36Z</time>
  <course>67.53</course>
  <speed>0.9585405573057407</speed>
  <fix>3d</fix>
</trkpt>
<trkpt lat="40.0711241" lon="-105.2297833">
  <ele>1583.0</ele>
  <time>2026-08-28T17:56:36Z</time>
  <course>65.65</course>
  <speed>0.97</speed>
  <fix>3d</fix>
</trkpt>
<trkpt lat="40.0711248" lon="-105.2297808">
  <ele>1583.14</ele>
  <time>2026-08-28T17:56:36Z</time>
  <course>67.84</course>
  <speed>0.9585405573057407</speed>
  <fix>3d</fix>
</trkpt>
<trkpt lat="40.0711241" lon="-105.2297833">
  <ele>1583.0</ele>
  <time>2026-08-28T17:56:36Z</time>
  <course>65.65</course>
  <speed>0.97</speed>
  <fix>3d</fix>
</trkpt>
<trkpt lat="40.0711251" lon="-105.2297798">
  <ele>1583.14</ele>
  <time>2026-08-28T17:56:36Z</time>
  <course>68.19</course>
  <speed>0.9585405573057407</speed>
  <fix>3d</fix>
</trkpt>
<trkpt lat="40.0711248" lon="-105.2297812">
  <ele>1583.0</ele>
  <time>2026-08-28T17:56:36Z</time>
  <course>65.73</course>
  <speed>0.98</speed>
  <fix>3d</fix>
</trkpt>
<trkpt lat="40.0711255" lon="-105.2297787">
  <ele>1583.14</ele>
  <time>2026-08-28T17:56:36Z</time>
  <course>68.54</course>
  <speed>0.9546203433826455</speed>
  <fix>3d</fix>
</trkpt>
<trkpt lat="40.0711248" lon="-105.2297812">
  <ele>1583.0</ele>
  <time>2026-08-28T17:56:36Z</time>
  <course>65.73</course>
  <speed>0.98</speed>
  <fix>3d</fix>
</trkpt>
<trkpt lat="40.0711258" lon="-105.2297777">
  <ele>1583.14</ele>
  <time>2026-08-28T17:56:36Z</time>
  <course>68.88</course>
  <speed>0.9546203433826455</speed>
  <fix>3d</fix>
</trkpt>
<trkpt lat="40.0711255" lon="-105.2297791">
  <ele>1583.0</ele>
  <time>2026-08-28T17:56:36Z</time>
  <course>65.84</course>
  <speed>0.98</speed>
  <fix>3d</fix>
</trkpt>
<trkpt lat="40.0711262" lon="-105.2297766">
  <ele>1583.13</ele>
  <time>2026-08-28T17:56:36Z</time>
  <course>69.18</course>
  <speed>0.9546203433826455</speed>
  <fix>3d</fix>
</trkpt>
<trkpt lat="40.0711255" lon="-105.2297791">
  <ele>1583.0</ele>
  <time>2026-08-28T17:56:36Z</time>
  <course>65.84</course>
  <speed>0.98</speed>
  <fix>3d</fix>
</trkpt>
<trkpt lat="40.0711266" lon="-105.2297755">
  <ele>1583.13</ele>
  <time>2026-08-28T17:56:36Z</time>
  <course>69.48</course>
  <speed>0.9546203433826455</speed>
  <fix>3d</fix>
</trkpt>
<trkpt lat="40.0711262" lon="-105.229777">
  <ele>1583.0</ele>
  <time>2026-08-28T17:56:36Z</time>
  <course>66.01</course>
  <speed>0.98</speed>
  <fix>3d</fix>
</trkpt>
<trkpt lat="40.0711269" lon="-105.2297745">
  <ele>1583.13</ele>
  <time>2026-08-28T17:56:36Z</time>
  <course>69.78</course>
  <speed>0.9546203433826455</speed>
  <fix>3d</fix>
</trkpt>
<trkpt lat="40.0711262" lon="-105.229777">
  <ele>1583.0</ele>
  <time>2026-08-28T17:56:36Z</time>
  <course>66.01</course>
  <speed>0.98</speed>
  <fix>3d</fix>
</trkpt>
<trkpt lat="40.0711273" lon="-105.2297735">
  <ele>1583.13</ele>
  <time>2026-08-28T17:56:36Z</time>
  <course>70.11</course>
  <speed>0.9546203433826455</speed>
  <fix>3d</fix>
</trkpt>
<trkpt lat="40.0711269" lon="-105.2297749">
  <ele>1583.0</ele>
  <time>2026-08-28T17:56:36Z</time>
  <course>66.21</course>
  <speed>0.98</speed>
  <fix>3d</fix>
</trkpt>
<trkpt lat="40.0711276" lon="-105.2297724">
  <ele>1583.13</ele>
  <time>2026-08-28T17:56:36Z</time>
  <course>70.42</course>
  <speed>0.950789145920377</speed>
  <fix>3d</fix>
</trkpt>
<trkpt lat="40.0711269" lon="-105.2297749">
  <ele>1583.0</ele>
  <time>2026-08-28T17:56:36Z</time>
  <course>66.21</course>
  <speed>0.98</speed>
  <fix>3d</fix>
</trkpt>
<trkpt lat="40.0711279" lon="-105.2297716">
  <ele>1583.13</ele>
  <time>2026-08-28T17:56:36Z</time>
  <course>70.66</course>
  <speed>0.950789145920377</speed>
  <fix>3d</fix>
</trkpt>
<trkpt lat="40.0711276" lon="-105.2297728">
  <ele>1583.0</ele>
  <time>2026-08-28T17:56:36Z</time>
  <course>66.44</course>
  <speed>0.98</speed>
  <fix>3d</fix>
</trkpt>
<trkpt lat="40.0711282" lon="-105.2297705">
  <ele>1583.12</ele>
  <time>2026-08-28T17:56:36Z</time>
  <course>70.98</course>
  <speed>0.9600520819205591</speed>
  <fix>3d</fix>
</trkpt>
<trkpt lat="40.0711276" lon="-105.2297728">
  <ele>1583.0</ele>
  <time>2026-08-28T17:56:36Z</time>
  <course>66.44</course>
  <speed>0.98</speed>
  <fix>3d</fix>
</trkpt>
<trkpt lat="40.0711286" lon="-105.2297694">
  <ele>1583.12</ele>
  <time>2026-08-28T17:56:36Z</time>
  <course>71.3</course>
  <speed>0.9600520819205591</speed>
  <fix>3d</fix>
</trkpt>
<trkpt lat="40.0711283" lon="-105.2297706">
  <ele>1583.0</ele>
  <time>2026-08-28T17:56:36Z</time>
  <course>66.71</course>
  <speed>0.98</speed>
  <fix>3d</fix>
</trkpt>
<trkpt lat="40.0711289" lon="-105.2297684">
  <ele>1583.12</ele>
  <time>2026-08-28T17:56:36Z</time>
  <course>71.58</course>
  <speed>0.9563472172804185</speed>
  <fix>3d</fix>
</trkpt>
<trkpt lat="40.0711283" lon="-105.2297706">
  <ele>1583.0</ele>
  <time>2026-08-28T17:56:36Z</time>
  <course>66.71</course>
  <speed>0.98</speed>
  <fix>3d</fix>
</trkpt>
<trkpt lat="40.0711293" lon="-105.2297673">
  <ele>1583.12</ele>
  <time>2026-08-28T17:56:36Z</time>
  <course>71.88</course>
  <speed>0.9563472172804185</speed>
  <fix>3d</fix>
</trkpt>
<trkpt lat="40.071129" lon="-105.2297685">
  <ele>1583.0</ele>
  <time>2026-08-28T17:56:36Z</time>
  <course>67.01</course>
  <speed>0.98</speed>
  <fix>3d</fix>
</trkpt>
<trkpt lat="40.0711296" lon="-105.2297662">
  <ele>1583.12</ele>
  <time>2026-08-28T17:56:36Z</time>
  <course>72.17</course>
  <speed>0.9563472172804185</speed>
  <fix>3d</fix>
</trkpt>
<trkpt lat="40.071129" lon="-105.2297685">
  <ele>1583.0</ele>
  <time>2026-08-28T17:56:36Z</time>
  <course>67.01</course>
  <speed>0.98</speed>
  <fix>3d</fix>
</trkpt>
<trkpt lat="40.0711299" lon="-105.2297652">
  <ele>1583.13</ele>
  <time>2026-08-28T17:56:36Z</time>
  <course>72.46</course>
  <speed>0.9563472172804185</speed>
  <fix>3d</fix>
</trkpt>
<trkpt lat="40.0711297" lon="-105.2297664">
  <ele>1583.0</ele>
  <time>2026-08-28T17:56:36Z</time>
  <course>67.34</course>
  <speed>0.98</speed>
  <fix>3d</fix>
</trkpt>
<trkpt lat="40.0711303" lon="-105.2297641">
  <ele>1583.13</ele>
  <time>2026-08-28T17:56:36Z</time>
  <course>72.72</course>
  <speed>0.9620810776644555</speed>
  <fix>3d</fix>
</trkpt>
<trkpt lat="40.0711297" lon="-105.2297664">
  <ele>1583.0</ele>
  <time>2026-08-28T17:56:36Z</time>
  <course>67.34</course>
  <speed>0.98</speed>
  <fix>3d</fix>
</trkpt>
<trkpt lat="40.0711306" lon="-105.229763">
  <ele>1583.13</ele>
  <time>2026-08-28T17:56:36Z</time>
  <course>72.99</course>
  <speed>0.9620810776644555</speed>
  <fix>3d</fix>
</trkpt>
<trkpt lat="40.0711304" lon="-105.2297643">
  <ele>1583.0</ele>
  <time>2026-08-28T17:56:36Z</time>
  <course>67.68</course>
  <speed>0.98</speed>
  <fix>3d</fix>
</trkpt>
<trkpt lat="40.0711309" lon="-105.2297619">
  <ele>1583.13</ele>
  <time>2026-08-28T17:56:36Z</time>
  <course>73.24</course>
  <speed>0.9620810776644555</speed>
  <fix>3d</fix>
</trkpt>
<trkpt lat="40.0711304" lon="-105.2297643">
  <ele>1583.0</ele>
  <time>2026-08-28T17:56:36Z</time>
  <course>67.68</course>
  <speed>0.98</speed>
  <fix>3d</fix>
</trkpt>
<trkpt lat="40.0711313" lon="-105.2297606">
  <ele>1583.13</ele>
  <time>2026-08-28T17:56:36Z</time>
  <course>73.54</course>
  <speed>0.9620810776644555</speed>
  <fix>3d</fix>
</trkpt>
<trkpt lat="40.0711311" lon="-105.229762">
  <ele>1583.0</ele>
  <time>2026-08-28T17:56:36Z</time>
  <course>68.04</course>
  <speed>0.98</speed>
  <fix>3d</fix>
</trkpt>
<trkpt lat="40.0711317" lon="-105.2297595">
  <ele>1583.13</ele>
  <time>2026-08-28T17:56:36Z</time>
  <course>73.77</course>
  <speed>0.9585927185202274</speed>
  <fix>3d</fix>
</trkpt>
<trkpt lat="40.0711311" lon="-105.229762">
  <ele>1583.0</ele>
  <time>2026-08-28T17:56:36Z</time>
  <course>68.04</course>
  <speed>0.98</speed>
  <fix>3d</fix>
</trkpt>
<trkpt lat="40.071132" lon="-105.2297584">
  <ele>1583.12</ele>
  <time>2026-08-28T17:56:36Z</time>
  <course>73.97</course>
  <speed>0.9585927185202274</speed>
  <fix>3d</fix>
</trkpt>
<trkpt lat="40.0711318" lon="-105.2297599">
  <ele>1583.0</ele>
  <time>2026-08-28T17:56:36Z</time>
  <course>68.41</course>
  <speed>0.99</speed>
  <fix>3d</fix>
</trkpt>
<trkpt lat="40.0711323" lon="-105.2297574">
  <ele>1583.12</ele>
  <time>2026-08-28T17:56:36Z</time>
  <course>74.17</course>
  <speed>0.9679876032264049</speed>
  <fix>3d</fix>
</trkpt>
<trkpt lat="40.0711318" lon="-105.2297599">
  <ele>1583.0</ele>
  <time>2026-08-28T17:56:36Z</time>
  <course>68.41</course>
  <speed>0.99</speed>
  <fix>3d</fix>
</trkpt>
<trkpt lat="40.0711326" lon="-105.2297563">
  <ele>1583.12</ele>
  <time>2026-08-28T17:56:36Z</time>
  <course>74.37</course>
  <speed>0.9646242791885347</speed>
  <fix>3d</fix>
</trkpt>
<trkpt lat="40.0711324" lon="-105.2297577">
  <ele>1583.0</ele>
  <time>2026-08-28T17:56:36Z</time>
  <course>68.78</course>
  <speed>0.99</speed>
  <fix>3d</fix>
</trkpt>
<trkpt lat="40.0711329" lon="-105.2297552">
  <ele>1583.12</ele>
  <time>2026-08-28T17:56:36Z</time>
  <course>74.57</course>
  <speed>0.9646242791885347</speed>
  <fix>3d</fix>
</trkpt>
<trkpt lat="40.0711324" lon="-105.2297577">
  <ele>1583.0</ele>
  <time>2026-08-28T17:56:36Z</time>
  <course>68.78</course>
  <speed>0.99</speed>
  <fix>3d</fix>
</trkpt>
<trkpt lat="40.0711333" lon="-105.2297541">
  <ele>1583.12</ele>
  <time>2026-08-28T17:56:36Z</time>
  <course>74.77</course>
  <speed>0.9646242791885347</speed>
  <fix>3d</fix>
</trkpt>
<trkpt lat="40.0711331" lon="-105.2297556">
  <ele>1583.0</ele>
  <time>2026-08-28T17:56:36Z</time>
  <course>69.16</course>
  <speed>0.99</speed>
  <fix>3d</fix>
</trkpt>
<trkpt lat="40.0711336" lon="-105.229753">
  <ele>1583.12</ele>
  <time>2026-08-28T17:56:36Z</time>
  <course>74.97</course>
  <speed>0.9646242791885347</speed>
  <fix>3d</fix>
</trkpt>
<trkpt lat="40.0711331" lon="-105.2297556">
  <ele>1583.0</ele>
  <time>2026-08-28T17:56:36Z</time>
  <course>69.16</course>
  <speed>0.99</speed>
  <fix>3d</fix>
</trkpt>
<trkpt lat="40.0711339" lon="-105.2297519">
  <ele>1583.12</ele>
  <time>2026-08-28T17:56:36Z</time>
  <course>75.17</course>
  <speed>0.9613532129243653</speed>
  <fix>3d</fix>
</trkpt>
<trkpt lat="40.0711337" lon="-105.2297533">
  <ele>1583.0</ele>
  <time>2026-08-28T17:56:36Z</time>
  <course>69.54</course>
  <speed>0.99</speed>
  <fix>3d</fix>
</trkpt>
<trkpt lat="40.0711342" lon="-105.2297508">
  <ele>1583.12</ele>
  <time>2026-08-28T17:56:36Z</time>
  <course>75.37</course>
  <speed>0.9613532129243653</speed>
  <fix>3d</fix>
</trkpt>
<trkpt lat="40.0711337" lon="-105.2297533">
  <ele>1583.0</ele>
  <time>2026-08-28T17:56:36Z</time>
  <course>69.54</course>
  <speed>0.99</speed>
  <fix>3d</fix>
</trkpt>
<trkpt lat="40.0711345" lon="-105.2297497">
  <ele>1583.12</ele>
  <time>2026-08-28T17:56:36Z</time>
  <course>75.56</course>
  <speed>0.97082439194738</speed>
  <fix>3d</fix>
</trkpt>
<trkpt lat="40.0711343" lon="-105.2297512">
  <ele>1583.0</ele>
  <time>2026-08-28T17:56:36Z</time>
  <course>69.92</course>
  <speed>0.99</speed>
  <fix>3d</fix>
</trkpt>
<trkpt lat="40.0711347" lon="-105.2297489">
  <ele>1583.12</ele>
  <time>2026-08-28T17:56:36Z</time>
  <course>75.68</course>
  <speed>0.9676776322722356</speed>
  <fix>3d</fix>
</trkpt>
<trkpt lat="40.0711343" lon="-105.2297512">
  <ele>1583.0</ele>
  <time>2026-08-28T17:56:36Z</time>
  <course>69.92</course>
  <speed>0.99</speed>
  <fix>3d</fix>
</trkpt>
<trkpt lat="40.071135" lon="-105.2297478">
  <ele>1583.12</ele>
  <time>2026-08-28T17:56:36Z</time>
  <course>75.83</course>
  <speed>0.9676776322722356</speed>
  <fix>3d</fix>
</trkpt>
<trkpt lat="40.0711349" lon="-105.229749">
  <ele>1583.0</ele>
  <time>2026-08-28T17:56:36Z</time>
  <course>70.3</course>
  <speed>0.99</speed>
  <fix>3d</fix>
</trkpt>
<trkpt lat="40.0711353" lon="-105.2297467">
  <ele>1583.13</ele>
  <time>2026-08-28T17:56:36Z</time>
  <course>75.98</course>
  <speed>0.9676776322722356</speed>
  <fix>3d</fix>
</trkpt>
<trkpt lat="40.0711349" lon="-105.229749">
  <ele>1583.0</ele>
  <time>2026-08-28T17:56:36Z</time>
  <course>70.3</course>
  <speed>0.99</speed>
  <fix>3d</fix>
</trkpt>
<trkpt lat="40.0711356" lon="-105.2297456">
  <ele>1583.13</ele>
  <time>2026-08-28T17:56:36Z</time>
  <course>76.13</course>
  <speed>0.9676776322722356</speed>
  <fix>3d</fix>
</trkpt>
<trkpt lat="40.0711354" lon="-105.2297469">
  <ele>1583.0</ele>
  <time>2026-08-28T17:56:36Z</time>
  <course>70.68</course>
  <speed>0.99</speed>
  <fix>3d</fix>
</trkpt>
<trkpt lat="40.0711359" lon="-105.2297445">
  <ele>1583.13</ele>
  <time>2026-08-28T17:56:36Z</time>
  <course>76.28</course>
  <speed>0.9646242791885347</speed>
  <fix>3d</fix>
</trkpt>
<trkpt lat="40.0711354" lon="-105.2297469">
  <ele>1583.0</ele>
  <time>2026-08-28T17:56:36Z</time>
  <course>70.68</course>
  <speed>0.99</speed>
  <fix>3d</fix>
</trkpt>
<trkpt lat="40.0711362" lon="-105.2297434">
  <ele>1583.13</ele>
  <time>2026-08-28T17:56:36Z</time>
  <course>76.43</course>
  <speed>0.9646242791885347</speed>
  <fix>3d</fix>
</trkpt>
<trkpt lat="40.0711361" lon="-105.2297446">
  <ele>1583.0</ele>
  <time>2026-08-28T17:56:36Z</time>
  <course>71.06</course>
  <speed>0.99</speed>
  <fix>3d</fix>
</trkpt>
<trkpt lat="40.0711365" lon="-105.2297422">
  <ele>1583.13</ele>
  <time>2026-08-28T17:56:36Z</time>
  <course>76.57</course>
  <speed>0.9646242791885347</speed>
  <fix>3d</fix>
</trkpt>
<trkpt lat="40.0711361" lon="-105.2297446">
  <ele>1583.0</ele>
  <time>2026-08-28T17:56:36Z</time>
  <course>71.06</course>
  <speed>0.99</speed>
  <fix>3d</fix>
</trkpt>
<trkpt lat="40.0711368" lon="-105.2297411">
  <ele>1583.14</ele>
  <time>2026-08-28T17:56:36Z</time>
  <course>76.67</course>
  <speed>0.9712363255150623</speed>
  <fix>3d</fix>
</trkpt>
<trkpt lat="40.0711366" lon="-105.2297423">
  <ele>1583.0</ele>
  <time>2026-08-28T17:56:36Z</time>
  <course>71.42</course>
  <speed>0.99</speed>
  <fix>3d</fix>
</trkpt>
<trkpt lat="40.0711371" lon="-105.22974">
  <ele>1583.14</ele>
  <time>2026-08-28T17:56:36Z</time>
  <course>76.77</course>
  <speed>0.9712363255150623</speed>
  <fix>3d</fix>
</trkpt>
<trkpt lat="40.0711366" lon="-105.2297423">
  <ele>1583.0</ele>
  <time>2026-08-28T17:56:36Z</time>
  <course>71.42</course>
  <speed>0.99</speed>
  <fix>3d</fix>
</trkpt>
<trkpt lat="40.0711373" lon="-105.2297389">
  <ele>1583.14</ele>
  <time>2026-08-28T17:56:36Z</time>
  <course>76.82</course>
  <speed>0.9712363255150623</speed>
  <fix>3d</fix>
</trkpt>
<trkpt lat="40.0711372" lon="-105.2297402">
  <ele>1583.0</ele>
  <time>2026-08-28T17:56:36Z</time>
  <course>71.77</course>
  <speed>0.99</speed>
  <fix>3d</fix>
</trkpt>
<trkpt lat="40.0711377" lon="-105.2297375">
  <ele>1583.14</ele>
  <time>2026-08-28T17:56:36Z</time>
  <course>76.88</course>
  <speed>0.9712363255150623</speed>
  <fix>3d</fix>
</trkpt>
<trkpt lat="40.0711372" lon="-105.2297402">
  <ele>1583.0</ele>
  <time>2026-08-28T17:56:36Z</time>
  <course>71.77</course>
  <speed>0.99</speed>
  <fix>3d</fix>
</trkpt>
<trkpt lat="40.0711379" lon="-105.2297364">
  <ele>1583.13</ele>
  <time>2026-08-28T17:56:36Z</time>
  <course>76.93</course>
  <speed>0.9684007434941384</speed>
  <fix>3d</fix>
</trkpt>
<trkpt lat="40.0711378" lon="-105.229738">
  <ele>1583.0</ele>
  <time>2026-08-28T17:56:36Z</time>
  <course>72.1</course>
  <speed>0.99</speed>
  <fix>3d</fix>
</trkpt>
<trkpt lat="40.0711382" lon="-105.2297353">
  <ele>1583.13</ele>
  <time>2026-08-28T17:56:36Z</time>
  <course>76.98</course>
  <speed>0.9684007434941384</speed>
  <fix>3d</fix>
</trkpt>
<trkpt lat="40.0711378" lon="-105.229738">
  <ele>1583.0</ele>
  <time>2026-08-28T17:56:36Z</time>
  <course>72.1</course>
  <speed>0.99</speed>
  <fix>3d</fix>
</trkpt>
<trkpt lat="40.0711385" lon="-105.2297342">
  <ele>1583.14</ele>
  <time>2026-08-28T17:56:36Z</time>
  <course>77.03</course>
  <speed>0.9684007434941384</speed>
  <fix>3d</fix>
</trkpt>
<trkpt lat="40.0711383" lon="-105.2297357">
  <ele>1583.0</ele>
  <time>2026-08-28T17:56:36Z</time>
  <course>72.42</course>
  <speed>0.99</speed>
  <fix>3d</fix>
</trkpt>
<trkpt lat="40.0711387" lon="-105.2297331">
  <ele>1583.14</ele>
  <time>2026-08-28T17:56:36Z</time>
  <course>77.08</course>
  <speed>0.9684007434941384</speed>
  <fix>3d</fix>
</trkpt>
<trkpt lat="40.0711383" lon="-105.2297357">
  <ele>1583.0</ele>
  <time>2026-08-28T17:56:36Z</time>
  <course>72.42</course>
  <speed>0.99</speed>
  <fix>3d</fix>
</trkpt>
<trkpt lat="40.071139" lon="-105.2297319">
  <ele>1583.14</ele>
  <time>2026-08-28T17:56:36Z</time>
  <course>77.11</course>
  <speed>0.9752948272189288</speed>
  <fix>3d</fix>
</trkpt>
<trkpt lat="40.0711388" lon="-105.2297335">
  <ele>1583.0</ele>
  <time>2026-08-28T17:56:36Z</time>
  <course>72.72</course>
  <speed>0.99</speed>
  <fix>3d</fix>
</trkpt>
<trkpt lat="40.0711393" lon="-105.2297308">
  <ele>1583.14</ele>
  <time>2026-08-28T17:56:36Z</time>
  <course>77.14</course>
  <speed>0.9752948272189288</speed>
  <fix>3d</fix>
</trkpt>
<trkpt lat="40.0711388" lon="-105.2297335">
  <ele>1583.0</ele>
  <time>2026-08-28T17:56:36Z</time>
  <course>72.72</course>
  <speed>0.99</speed>
  <fix>3d</fix>
</trkpt>
<trkpt lat="40.0711395" lon="-105.2297297">
  <ele>1583.14</ele>
  <time>2026-08-28T17:56:36Z</time>
  <course>77.14</course>
  <speed>0.9752948272189288</speed>
  <fix>3d</fix>
</trkpt>
<trkpt lat="40.0711394" lon="-105.2297313">
  <ele>1583.0</ele>
  <time>2026-08-28T17:56:36Z</time>
  <course>73.0</course>
  <speed>0.99</speed>
  <fix>3d</fix>
</trkpt>
<trkpt lat="40.0711398" lon="-105.2297286">
  <ele>1583.14</ele>
  <time>2026-08-28T17:56:36Z</time>
  <course>77.14</course>
  <speed>0.9752948272189288</speed>
  <fix>3d</fix>
</trkpt>
<trkpt lat="40.0711394" lon="-105.2297313">
  <ele>1583.0</ele>
  <time>2026-08-28T17:56:36Z</time>
  <course>73.0</course>
  <speed>0.99</speed>
  <fix>3d</fix>
</trkpt>
<trkpt lat="40.07114" lon="-105.2297275">
  <ele>1583.14</ele>
  <time>2026-08-28T17:56:36Z</time>
  <course>77.11</course>
  <speed>0.9726767191621274</speed>
  <fix>3d</fix>
</trkpt>
<trkpt lat="40.0711399" lon="-105.229729">
  <ele>1583.0</ele>
  <time>2026-08-28T17:56:36Z</time>
  <course>73.27</course>
  <speed>0.99</speed>
  <fix>3d</fix>
</trkpt>
<trkpt lat="40.0711403" lon="-105.2297264">
  <ele>1583.14</ele>
  <time>2026-08-28T17:56:36Z</time>
  <course>77.08</course>
  <speed>0.9726767191621274</speed>
  <fix>3d</fix>
</trkpt>
<trkpt lat="40.0711399" lon="-105.229729">
  <ele>1583.0</ele>
  <time>2026-08-28T17:56:36Z</time>
  <course>73.27</course>
  <speed>0.99</speed>
  <fix>3d</fix>
</trkpt>
<trkpt lat="40.0711405" lon="-105.2297255">
  <ele>1583.14</ele>
  <time>2026-08-28T17:56:36Z</time>
  <course>77.04</course>
  <speed>0.9726767191621274</speed>
  <fix>3d</fix>
</trkpt>
<trkpt lat="40.0711404" lon="-105.2297268">
  <ele>1583.0</ele>
  <time>2026-08-28T17:56:36Z</time>
  <course>73.51</course>
  <speed>0.99</speed>
  <fix>3d</fix>
</trkpt>
<trkpt lat="40.0711407" lon="-105.2297244">
  <ele>1583.14</ele>
  <time>2026-08-28T17:56:36Z</time>
  <course>76.99</course>
  <speed>0.9726767191621274</speed>
  <fix>3d</fix>
</trkpt>
<trkpt lat="40.0711404" lon="-105.2297268">
  <ele>1583.0</ele>
  <time>2026-08-28T17:56:36Z</time>
  <course>73.51</course>
  <speed>0.99</speed>
  <fix>3d</fix>
</trkpt>
<trkpt lat="40.071141" lon="-105.2297232">
  <ele>1583.14</ele>
  <time>2026-08-28T17:56:36Z</time>
  <course>76.94</course>
  <speed>0.9726767191621274</speed>
  <fix>3d</fix>
</trkpt>
<trkpt lat="40.0711409" lon="-105.2297245">
  <ele>1583.0</ele>
  <time>2026-08-28T17:56:36Z</time>
  <course>73.72</course>
  <speed>0.99</speed>
  <fix>3d</fix>
</trkpt>
<trkpt lat="40.0711412" lon="-105.2297221">
  <ele>1583.14</ele>
  <time>2026-08-28T17:56:36Z</time>
  <course>76.89</course>
  <speed>0.9726767191621274</speed>
  <fix>3d</fix>
</trkpt>
<trkpt lat="40.0711409" lon="-105.2297245">
  <ele>1583.0</ele>
  <time>2026-08-28T17:56:36Z</time>
  <course>73.72</course>
  <speed>0.99</speed>
  <fix>3d</fix>
</trkpt>
<trkpt lat="40.0711415" lon="-105.229721">
  <ele>1583.14</ele>
  <time>2026-08-28T17:56:36Z</time>
  <course>76.84</course>
  <speed>0.9726767191621274</speed>
  <fix>3d</fix>
</trkpt>
<trkpt lat="40.0711414" lon="-105.2297222">
  <ele>1583.0</ele>
  <time>2026-08-28T17:56:36Z</time>
  <course>73.9</course>
  <speed>0.99</speed>
  <fix>3d</fix>
</trkpt>
<trkpt lat="40.0711417" lon="-105.2297198">
  <ele>1583.14</ele>
  <time>2026-08-28T17:56:36Z</time>
  <course>76.79</course>
  <speed>0.9701546268507922</speed>
  <fix>3d</fix>
</trkpt>
<trkpt lat="40.0711414" lon="-105.2297222">
  <ele>1583.0</ele>
  <time>2026-08-28T17:56:36Z</time>
  <course>73.9</course>
  <speed>0.99</speed>
  <fix>3d</fix>
</trkpt>
<trkpt lat="40.071142" lon="-105.2297187">
  <ele>1583.14</ele>
  <time>2026-08-28T17:56:36Z</time>
  <course>76.74</course>
  <speed>0.9701546268507922</speed>
  <fix>3d</fix>
</trkpt>
<trkpt lat="40.0711419" lon="-105.22972">
  <ele>1583.0</ele>
  <time>2026-08-28T17:56:36Z</time>
  <course>74.06</course>
  <speed>0.99</speed>
  <fix>3d</fix>
</trkpt>
<trkpt lat="40.0711422" lon="-105.2297176">
  <ele>1583.15</ele>
  <time>2026-08-28T17:56:36Z</time>
  <course>76.68</course>
  <speed>0.9701546268507922</speed>
  <fix>3d</fix>
</trkpt>
<trkpt lat="40.0711419" lon="-105.22972">
  <ele>1583.0</ele>
  <time>2026-08-28T17:56:36Z</time>
  <course>74.06</course>
  <speed>0.99</speed>
  <fix>3d</fix>
</trkpt>
<trkpt lat="40.0711425" lon="-105.2297164">
  <ele>1583.15</ele>
  <time>2026-08-28T17:56:36Z</time>
  <course>76.58</course>
  <speed>0.9701546268507922</speed>
  <fix>3d</fix>
</trkpt>
<trkpt lat="40.0711424" lon="-105.2297177">
  <ele>1583.0</ele>
  <time>2026-08-28T17:56:36Z</time>
  <course>74.2</course>
  <speed>0.99</speed>
  <fix>3d</fix>
</trkpt>
<trkpt lat="40.0711427" lon="-105.2297153">
  <ele>1583.16</ele>
  <time>2026-08-28T17:56:36Z</time>
  <course>76.48</course>
  <speed>0.9701546268507922</speed>
  <fix>3d</fix>
</trkpt>
<trkpt lat="40.0711424" lon="-105.2297177">
  <ele>1583.0</ele>
  <time>2026-08-28T17:56:36Z</time>
  <course>74.2</course>
  <speed>0.99</speed>
  <fix>3d</fix>
</trkpt>
<trkpt lat="40.071143" lon="-105.2297139">
  <ele>1583.16</ele>
  <time>2026-08-28T17:56:36Z</time>
  <course>76.38</course>
  <speed>0.9701546268507922</speed>
  <fix>3d</fix>
</trkpt>
<trkpt lat="40.0711429" lon="-105.2297155">
  <ele>1583.0</ele>
  <time>2026-08-28T17:56:36Z</time>
  <course>74.32</course>
  <speed>0.99</speed>
  <fix>3d</fix>
</trkpt>
<trkpt lat="40.0711433" lon="-105.2297128">
  <ele>1583.17</ele>
  <time>2026-08-28T17:56:36Z</time>
  <course>76.31</course>
  <speed>0.9701546268507922</speed>
  <fix>3d</fix>
</trkpt>
<trkpt lat="40.0711429" lon="-105.2297155">
  <ele>1583.0</ele>
  <time>2026-08-28T17:56:36Z</time>
  <course>74.32</course>
  <speed>0.99</speed>
  <fix>3d</fix>
</trkpt>
<trkpt lat="40.0711435" lon="-105.2297117">
  <ele>1583.17</ele>
  <time>2026-08-28T17:56:36Z</time>
  <course>76.24</course>
  <speed>0.9701546268507922</speed>
  <fix>3d</fix>
</trkpt>
<trkpt lat="40.0711434" lon="-105.2297132">
  <ele>1583.0</ele>
  <time>2026-08-28T17:56:36Z</time>
  <course>74.42</course>
  <speed>0.99</speed>
  <fix>3d</fix>
</trkpt>
<trkpt lat="40.0711437" lon="-105.2297105">
  <ele>1583.17</ele>
  <time>2026-08-28T17:56:36Z</time>
  <course>76.14</course>
  <speed>0.9701546268507922</speed>
  <fix>3d</fix>
</trkpt>
<trkpt lat="40.0711434" lon="-105.2297132">
  <ele>1583.0</ele>
  <time>2026-08-28T17:56:36Z</time>
  <course>74.42</course>
  <speed>0.99</speed>
  <fix>3d</fix>
</trkpt>
<trkpt lat="40.071144" lon="-105.2297094">
  <ele>1583.16</ele>
  <time>2026-08-28T17:56:36Z</time>
  <course>76.04</course>
  <speed>0.9701546268507922</speed>
  <fix>3d</fix>
</trkpt>
<trkpt lat="40.0711438" lon="-105.229711">
  <ele>1583.0</ele>
  <time>2026-08-28T17:56:36Z</time>
  <course>74.49</course>
  <speed>0.99</speed>
  <fix>3d</fix>
</trkpt>
<trkpt lat="40.0711442" lon="-105.2297083">
  <ele>1583.16</ele>
  <time>2026-08-28T17:56:36Z</time>
  <course>75.94</course>
  <speed>0.9701546268507922</speed>
  <fix>3d</fix>
</trkpt>
<trkpt lat="40.0711438" lon="-105.229711">
  <ele>1583.0</ele>
  <time>2026-08-28T17:56:36Z</time>
  <course>74.49</course>
  <speed>0.99</speed>
  <fix>3d</fix>
</trkpt>
<trkpt lat="40.0711445" lon="-105.2297072">
  <ele>1583.16</ele>
  <time>2026-08-28T17:56:36Z</time>
  <course>75.84</course>
  <speed>0.9701546268507922</speed>
  <fix>3d</fix>
</trkpt>
<trkpt lat="40.0711443" lon="-105.2297087">
  <ele>1583.0</ele>
  <time>2026-08-28T17:56:36Z</time>
  <course>74.53</course>
  <speed>0.99</speed>
  <fix>3d</fix>
</trkpt>
<trkpt lat="40.0711447" lon="-105.229706">
  <ele>1583.16</ele>
  <time>2026-08-28T17:56:36Z</time>
  <course>75.74</course>
  <speed>0.9701546268507922</speed>
  <fix>3d</fix>
</trkpt>
<trkpt lat="40.0711443" lon="-105.2297087">
  <ele>1583.0</ele>
  <time>2026-08-28T17:56:36Z</time>
  <course>74.53</course>
  <speed>0.99</speed>
  <fix>3d</fix>
</trkpt>
<trkpt lat="40.0711449" lon="-105.2297049">
  <ele>1583.15</ele>
  <time>2026-08-28T17:56:36Z</time>
  <course>75.64</course>
  <speed>0.9701546268507922</speed>
  <fix>3d</fix>
</trkpt>
<trkpt lat="40.0711448" lon="-105.2297064">
  <ele>1583.0</ele>
  <time>2026-08-28T17:56:36Z</time>
  <course>74.56</course>
  <speed>0.99</speed>
  <fix>3d</fix>
</trkpt>
<trkpt lat="40.0711452" lon="-105.2297038">
  <ele>1583.15</ele>
  <time>2026-08-28T17:56:36Z</time>
  <course>75.54</course>
  <speed>0.9701546268507922</speed>
  <fix>3d</fix>
</trkpt>
<trkpt lat="40.0711448" lon="-105.2297064">
  <ele>1583.0</ele>
  <time>2026-08-28T17:56:36Z</time>
  <course>74.56</course>
  <speed>0.99</speed>
  <fix>3d</fix>
</trkpt>
<trkpt lat="40.0711454" lon="-105.2297027">
  <ele>1583.15</ele>
  <time>2026-08-28T17:56:36Z</time>
  <course>75.39</course>
  <speed>0.9701546268507922</speed>
  <fix>3d</fix>
</trkpt>
<trkpt lat="40.0711453" lon="-105.2297041">
  <ele>1583.0</ele>
  <time>2026-08-28T17:56:36Z</time>
  <course>74.56</course>
  <speed>0.99</speed>
  <fix>3d</fix>
</trkpt>
<trkpt lat="40.0711456" lon="-105.2297018">
  <ele>1583.15</ele>
  <time>2026-08-28T17:56:36Z</time>
  <course>75.29</course>
  <speed>0.9701546268507922</speed>
  <fix>3d</fix>
</trkpt>
<trkpt lat="40.0711453" lon="-105.2297041">
  <ele>1583.0</ele>
  <time>2026-08-28T17:56:36Z</time>
  <course>74.56</course>
  <speed>0.99</speed>
  <fix>3d</fix>
</trkpt>
<trkpt lat="40.0711458" lon="-105.2297006">
  <ele>1583.15</ele>
  <time>2026-08-28T17:56:36Z</time>
  <course>75.14</course>
  <speed>0.9701546268507922</speed>
  <fix>3d</fix>
</trkpt>
<trkpt lat="40.0711458" lon="-105.2297019">
  <ele>1583.0</ele>
  <time>2026-08-28T17:56:36Z</time>
  <course>74.55</course>
  <speed>0.99</speed>
  <fix>3d</fix>
</trkpt>
<trkpt lat="40.0711461" lon="-105.2296995">
  <ele>1583.15</ele>
  <time>2026-08-28T17:56:36Z</time>
  <course>74.99</course>
  <speed>0.9701546268507922</speed>
  <fix>3d</fix>
</trkpt>
<trkpt lat="40.0711458" lon="-105.2297019">
  <ele>1583.0</ele>
  <time>2026-08-28T17:56:36Z</time>
  <course>74.55</course>
  <speed>0.99</speed>
  <fix>3d</fix>
</trkpt>
<trkpt lat="40.0711463" lon="-105.2296984">
  <ele>1583.15</ele>
  <time>2026-08-28T17:56:36Z</time>
  <course>74.86</course>
  <speed>0.9701546268507922</speed>
  <fix>3d</fix>
</trkpt>
<trkpt lat="40.0711462" lon="-105.2296997">
  <ele>1583.0</ele>
  <time>2026-08-28T17:56:36Z</time>
  <course>74.52</course>
  <speed>0.99</speed>
  <fix>3d</fix>
</trkpt>
<trkpt lat="40.0711466" lon="-105.2296972">
  <ele>1583.15</ele>
  <time>2026-08-28T17:56:36Z</time>
  <course>74.74</course>
  <speed>0.9701546268507922</speed>
  <fix>3d</fix>
</trkpt>
<trkpt lat="40.0711462" lon="-105.2296997">
  <ele>1583.0</ele>
  <time>2026-08-28T17:56:36Z</time>
  <course>74.52</course>
  <speed>0.99</speed>
  <fix>3d</fix>
</trkpt>
<trkpt lat="40.0711468" lon="-105.2296961">
  <ele>1583.14</ele>
  <time>2026-08-28T17:56:36Z</time>
  <course>74.6</course>
  <speed>0.9701546268507922</speed>
  <fix>3d</fix>
</trkpt>
<trkpt lat="40.0711467" lon="-105.2296974">
  <ele>1583.0</ele>
  <time>2026-08-28T17:56:36Z</time>
  <course>74.46</course>
  <speed>0.99</speed>
  <fix>3d</fix>
</trkpt>
<trkpt lat="40.071147" lon="-105.229695">
  <ele>1583.14</ele>
  <time>2026-08-28T17:56:36Z</time>
  <course>74.49</course>
  <speed>0.9701546268507922</speed>
  <fix>3d</fix>
</trkpt>
<trkpt lat="40.0711467" lon="-105.2296974">
  <ele>1583.0</ele>
  <time>2026-08-28T17:56:36Z</time>
  <course>74.46</course>
  <speed>0.99</speed>
  <fix>3d</fix>
</trkpt>
<trkpt lat="40.0711473" lon="-105.2296939">
  <ele>1583.14</ele>
  <time>2026-08-28T17:56:36Z</time>
  <course>74.34</course>
  <speed>0.9701546268507922</speed>
  <fix>3d</fix>
</trkpt>
<trkpt lat="40.0711472" lon="-105.2296951">
  <ele>1583.0</ele>
  <time>2026-08-28T17:56:36Z</time>
  <course>74.4</course>
  <speed>0.99</speed>
  <fix>3d</fix>
</trkpt>
<trkpt lat="40.0711475" lon="-105.2296927">
  <ele>1583.13</ele>
  <time>2026-08-28T17:56:36Z</time>
  <course>74.19</course>
  <speed>0.9701546268507922</speed>
  <fix>3d</fix>
</trkpt>
<trkpt lat="40.0711472" lon="-105.2296951">
  <ele>1583.0</ele>
  <time>2026-08-28T17:56:36Z</time>
  <course>74.4</course>
  <speed>0.99</speed>
  <fix>3d</fix>
</trkpt>
<trkpt lat="40.0711478" lon="-105.2296914">
  <ele>1583.13</ele>
  <time>2026-08-28T17:56:36Z</time>
  <course>74.01</course>
  <speed>0.9701546268507922</speed>
  <fix>3d</fix>
</trkpt>
<trkpt lat="40.0711477" lon="-105.2296929">
  <ele>1583.0</ele>
  <time>2026-08-28T17:56:36Z</time>
  <course>74.31</course>
  <speed>0.99</speed>
  <fix>3d</fix>
</trkpt>
<trkpt lat="40.0711481" lon="-105.2296902">
  <ele>1583.13</ele>
  <time>2026-08-28T17:56:36Z</time>
  <course>73.86</course>
  <speed>0.9701546268507922</speed>
  <fix>3d</fix>
</trkpt>
<trkpt lat="40.0711477" lon="-105.2296929">
  <ele>1583.0</ele>
  <time>2026-08-28T17:56:36Z</time>
  <course>74.31</course>
  <speed>0.99</speed>
  <fix>3d</fix>
</trkpt>
<trkpt lat="40.0711483" lon="-105.2296891">
  <ele>1583.13</ele>
  <time>2026-08-28T17:56:36Z</time>
  <course>73.71</course>
  <speed>0.9701546268507922</speed>
  <fix>3d</fix>
</trkpt>
<trkpt lat="40.0711482" lon="-105.2296906">
  <ele>1583.0</ele>
  <time>2026-08-28T17:56:36Z</time>
  <course>74.21</course>
  <speed>0.99</speed>
  <fix>3d</fix>
</trkpt>
<trkpt lat="40.0711486" lon="-105.229688">
  <ele>1583.13</ele>
  <time>2026-08-28T17:56:36Z</time>
  <course>73.56</course>
  <speed>0.9726767191621274</speed>
  <fix>3d</fix>
</trkpt>
<trkpt lat="40.0711482" lon="-105.2296906">
  <ele>1583.0</ele>
  <time>2026-08-28T17:56:36Z</time>
  <course>74.21</course>
  <speed>0.99</speed>
  <fix>3d</fix>
</trkpt>
<trkpt lat="40.0711488" lon="-105.2296868">
  <ele>1583.13</ele>
  <time>2026-08-28T17:56:36Z</time>
  <course>73.41</course>
  <speed>0.9726767191621274</speed>
  <fix>3d</fix>
</trkpt>
<trkpt lat="40.0711487" lon="-105.2296883">
  <ele>1583.0</ele>
  <time>2026-08-28T17:56:36Z</time>
  <course>74.1</course>
  <speed>0.99</speed>
  <fix>3d</fix>
</trkpt>
<trkpt lat="40.0711491" lon="-105.2296857">
  <ele>1583.12</ele>
  <time>2026-08-28T17:56:36Z</time>
  <course>73.26</course>
  <speed>0.9726767191621274</speed>
  <fix>3d</fix>
</trkpt>
<trkpt lat="40.0711487" lon="-105.2296883">
  <ele>1583.0</ele>
  <time>2026-08-28T17:56:36Z</time>
  <course>74.1</course>
  <speed>0.99</speed>
  <fix>3d</fix>
</trkpt>
<trkpt lat="40.0711493" lon="-105.2296846">
  <ele>1583.12</ele>
  <time>2026-08-28T17:56:36Z</time>
  <course>73.12</course>
  <speed>0.9726767191621274</speed>
  <fix>3d</fix>
</trkpt>
<trkpt lat="40.0711492" lon="-105.2296861">
  <ele>1583.0</ele>
  <time>2026-08-28T17:56:36Z</time>
  <course>73.97</course>
  <speed>0.99</speed>
  <fix>3d</fix>
</trkpt>
<trkpt lat="40.0711496" lon="-105.2296834">
  <ele>1583.13</ele>
  <time>2026-08-28T17:56:36Z</time>
  <course>73.01</course>
  <speed>0.9726767191621274</speed>
  <fix>3d</fix>
</trkpt>
<trkpt lat="40.0711492" lon="-105.2296861">
  <ele>1583.0</ele>
  <time>2026-08-28T17:56:36Z</time>
  <course>73.97</course>
  <speed>0.99</speed>
  <fix>3d</fix>
</trkpt>
<trkpt lat="40.0711498" lon="-105.2296823">
  <ele>1583.13</ele>
  <time>2026-08-28T17:56:36Z</time>
  <course>72.9</course>
  <speed>0.9726767191621274</speed>
  <fix>3d</fix>
</trkpt>
<trkpt lat="40.0711497" lon="-105.2296839">
  <ele>1583.0</ele>
  <time>2026-08-28T17:56:36Z</time>
  <course>73.83</course>
  <speed>0.99</speed>
  <fix>3d</fix>
</trkpt>
<trkpt lat="40.0711501" lon="-105.2296812">
  <ele>1583.13</ele>
  <time>2026-08-28T17:56:36Z</time>
  <course>72.77</course>
  <speed>0.9726767191621274</speed>
  <fix>3d</fix>
</trkpt>
<trkpt lat="40.0711497" lon="-105.2296839">
  <ele>1583.0</ele>
  <time>2026-08-28T17:56:36Z</time>
  <course>73.83</course>
  <speed>0.99</speed>
  <fix>3d</fix>
</trkpt>
<trkpt lat="40.0711503" lon="-105.2296801">
  <ele>1583.13</ele>
  <time>2026-08-28T17:56:36Z</time>
  <course>72.63</course>
  <speed>0.9726767191621274</speed>
  <fix>3d</fix>
</trkpt>
<trkpt lat="40.0711502" lon="-105.2296816">
  <ele>1583.0</ele>
  <time>2026-08-28T17:56:36Z</time>
  <course>73.67</course>
  <speed>0.99</speed>
  <fix>3d</fix>
</trkpt>
<trkpt lat="40.0711506" lon="-105.229679">
  <ele>1583.13</ele>
  <time>2026-08-28T17:56:36Z</time>
  <course>72.48</course>
  <speed>0.9752948272189288</speed>
  <fix>3d</fix>
</trkpt>
<trkpt lat="40.0711502" lon="-105.2296816">
  <ele>1583.0</ele>
  <time>2026-08-28T17:56:36Z</time>
  <course>73.67</course>
  <speed>0.99</speed>
  <fix>3d</fix>
</trkpt>
<trkpt lat="40.0711508" lon="-105.2296781">
  <ele>1583.14</ele>
  <time>2026-08-28T17:56:36Z</time>
  <course>72.39</course>
  <speed>0.9752948272189288</speed>
  <fix>3d</fix>
</trkpt>
<trkpt lat="40.0711507" lon="-105.2296794">
  <ele>1583.0</ele>
  <time>2026-08-28T17:56:36Z</time>
  <course>73.51</course>
  <speed>0.99</speed>
  <fix>3d</fix>
</trkpt>
<trkpt lat="40.071151" lon="-105.229677">
  <ele>1583.14</ele>
  <time>2026-08-28T17:56:36Z</time>
  <course>72.3</course>
  <speed>0.9752948272189288</speed>
  <fix>3d</fix>
</trkpt>
<trkpt lat="40.0711507" lon="-105.2296794">
  <ele>1583.0</ele>
  <time>2026-08-28T17:56:36Z</time>
  <course>73.51</course>
  <speed>0.99</speed>
  <fix>3d</fix>
</trkpt>
<trkpt lat="40.0711513" lon="-105.2296758">
  <ele>1583.14</ele>
  <time>2026-08-28T17:56:36Z</time>
  <course>72.19</course>
  <speed>0.9656603957913983</speed>
  <fix>3d</fix>
</trkpt>
<trkpt lat="40.0711512" lon="-105.2296771">
  <ele>1583.0</ele>
  <time>2026-08-28T17:56:36Z</time>
  <course>73.35</course>
  <speed>0.99</speed>
  <fix>3d</fix>
</trkpt>
<trkpt lat="40.0711516" lon="-105.2296747">
  <ele>1583.15</ele>
  <time>2026-08-28T17:56:36Z</time>
  <course>72.09</course>
  <speed>0.9656603957913983</speed>
  <fix>3d</fix>
</trkpt>
<trkpt lat="40.0711512" lon="-105.2296771">
  <ele>1583.0</ele>
  <time>2026-08-28T17:56:36Z</time>
  <course>73.35</course>
  <speed>0.99</speed>
  <fix>3d</fix>
</trkpt>
<trkpt lat="40.0711518" lon="-105.2296736">
  <ele>1583.15</ele>
  <time>2026-08-28T17:56:36Z</time>
  <course>72.05</course>
  <speed>0.9656603957913983</speed>
  <fix>3d</fix>
</trkpt>
<trkpt lat="40.0711517" lon="-105.2296748">
  <ele>1583.0</ele>
  <time>2026-08-28T17:56:36Z</time>
  <course>73.18</course>
  <speed>0.99</speed>
  <fix>3d</fix>
</trkpt>
<trkpt lat="40.0711521" lon="-105.2296725">
  <ele>1583.15</ele>
  <time>2026-08-28T17:56:36Z</time>
  <course>71.95</course>
  <speed>0.9684007434941384</speed>
  <fix>3d</fix>
</trkpt>
<trkpt lat="40.0711517" lon="-105.2296748">
  <ele>1583.0</ele>
  <time>2026-08-28T17:56:36Z</time>
  <course>73.18</course>
  <speed>0.99</speed>
  <fix>3d</fix>
</trkpt>
<trkpt lat="40.0711524" lon="-105.2296713">
  <ele>1583.15</ele>
  <time>2026-08-28T17:56:36Z</time>
  <course>71.89</course>
  <speed>0.9684007434941384</speed>
  <fix>3d</fix>
</trkpt>
<trkpt lat="40.0711522" lon="-105.2296726">
  <ele>1583.0</ele>
  <time>2026-08-28T17:56:36Z</time>
  <course>73.01</course>
  <speed>0.99</speed>
  <fix>3d</fix>
</trkpt>
<trkpt lat="40.0711526" lon="-105.2296702">
  <ele>1583.15</ele>
  <time>2026-08-28T17:56:36Z</time>
  <course>71.84</course>
  <speed>0.9684007434941384</speed>
  <fix>3d</fix>
</trkpt>
<trkpt lat="40.0711522" lon="-105.2296726">
  <ele>1583.0</ele>
  <time>2026-08-28T17:56:36Z</time>
  <course>73.01</course>
  <speed>0.99</speed>
  <fix>3d</fix>
</trkpt>
<trkpt lat="40.0711529" lon="-105.2296691">
  <ele>1583.15</ele>
  <time>2026-08-28T17:56:36Z</time>
  <course>71.79</course>
  <speed>0.9684007434941384</speed>
  <fix>3d</fix>
</trkpt>
<trkpt lat="40.0711527" lon="-105.2296704">
  <ele>1583.0</ele>
  <time>2026-08-28T17:56:36Z</time>
  <course>72.85</course>
  <speed>0.99</speed>
  <fix>3d</fix>
</trkpt>
<trkpt lat="40.0711532" lon="-105.2296677">
  <ele>1583.15</ele>
  <time>2026-08-28T17:56:36Z</time>
  <course>71.73</course>
  <speed>0.9684007434941384</speed>
  <fix>3d</fix>
</trkpt>
<trkpt lat="40.0711527" lon="-105.2296704">
  <ele>1583.0</ele>
  <time>2026-08-28T17:56:36Z</time>
  <course>72.85</course>
  <speed>0.99</speed>
  <fix>3d</fix>
</trkpt>
<trkpt lat="40.0711535" lon="-105.2296666">
  <ele>1583.14</ele>
  <time>2026-08-28T17:56:36Z</time>
  <course>71.68</course>
  <speed>0.9684007434941384</speed>
  <fix>3d</fix>
</trkpt>
<trkpt lat="40.0711533" lon="-105.2296681">
  <ele>1583.0</ele>
  <time>2026-08-28T17:56:36Z</time>
  <course>72.69</course>
  <speed>0.99</speed>
  <fix>3d</fix>
</trkpt>
<trkpt lat="40.0711537" lon="-105.2296655">
  <ele>1583.14</ele>
  <time>2026-08-28T17:56:36Z</time>
  <course>71.63</course>
  <speed>0.9684007434941384</speed>
  <fix>3d</fix>
</trkpt>
<trkpt lat="40.0711533" lon="-105.2296681">
  <ele>1583.0</ele>
  <time>2026-08-28T17:56:36Z</time>
  <course>72.69</course>
  <speed>0.99</speed>
  <fix>3d</fix>
</trkpt>
<trkpt lat="40.071154" lon="-105.2296644">
  <ele>1583.14</ele>
  <time>2026-08-28T17:56:36Z</time>
  <course>71.58</course>
  <speed>0.9684007434941384</speed>
  <fix>3d</fix>
</trkpt>
<trkpt lat="40.0711538" lon="-105.2296659">
  <ele>1583.0</ele>
  <time>2026-08-28T17:56:36Z</time>
  <course>72.54</course>
  <speed>0.99</speed>
  <fix>3d</fix>
</trkpt>
<trkpt lat="40.0711543" lon="-105.2296633">
  <ele>1583.14</ele>
  <time>2026-08-28T17:56:36Z</time>
  <course>71.53</course>
  <speed>0.9712363255150623</speed>
  <fix>3d</fix>
</trkpt>
<trkpt lat="40.0711538" lon="-105.2296659">
  <ele>1583.0</ele>
  <time>2026-08-28T17:56:36Z</time>
  <course>72.54</course>
  <speed>0.99</speed>
  <fix>3d</fix>
</trkpt>
<trkpt lat="40.0711545" lon="-105.2296621">
  <ele>1583.14</ele>
  <time>2026-08-28T17:56:36Z</time>
  <course>71.48</course>
  <speed>0.9712363255150623</speed>
  <fix>3d</fix>
</trkpt>
<trkpt lat="40.0711544" lon="-105.2296637">
  <ele>1583.0</ele>
  <time>2026-08-28T17:56:36Z</time>
  <course>72.4</course>
  <speed>0.99</speed>
  <fix>3d</fix>
</trkpt>
<trkpt lat="40.0711548" lon="-105.229661">
  <ele>1583.14</ele>
  <time>2026-08-28T17:56:36Z</time>
  <course>71.43</course>
  <speed>0.9712363255150623</speed>
  <fix>3d</fix>
</trkpt>
<trkpt lat="40.0711544" lon="-105.2296637">
  <ele>1583.0</ele>
  <time>2026-08-28T17:56:36Z</time>
  <course>72.4</course>
  <speed>0.99</speed>
  <fix>3d</fix>
</trkpt>
<trkpt lat="40.0711551" lon="-105.2296599">
  <ele>1583.14</ele>
  <time>2026-08-28T17:56:36Z</time>
  <course>71.38</course>
  <speed>0.9712363255150623</speed>
  <fix>3d</fix>
</trkpt>
<trkpt lat="40.0711549" lon="-105.2296614">
  <ele>1583.0</ele>
  <time>2026-08-28T17:56:36Z</time>
  <course>72.25</course>
  <speed>0.99</speed>
  <fix>3d</fix>
</trkpt>
<trkpt lat="40.0711554" lon="-105.2296588">
  <ele>1583.14</ele>
  <time>2026-08-28T17:56:36Z</time>
  <course>71.34</course>
  <speed>0.9712363255150623</speed>
  <fix>3d</fix>
</trkpt>
<trkpt lat="40.0711549" lon="-105.2296614">
  <ele>1583.0</ele>
  <time>2026-08-28T17:56:36Z</time>
  <course>72.25</course>
  <speed>0.99</speed>
  <fix>3d</fix>
</trkpt>
<trkpt lat="40.0711556" lon="-105.2296577">
  <ele>1583.14</ele>
  <time>2026-08-28T17:56:36Z</time>
  <course>71.34</course>
  <speed>0.9712363255150623</speed>
  <fix>3d</fix>
</trkpt>
<trkpt lat="40.0711555" lon="-105.2296593">
  <ele>1583.0</ele>
  <time>2026-08-28T17:56:36Z</time>
  <course>72.11</course>
  <speed>0.99</speed>
  <fix>3d</fix>
</trkpt>
<trkpt lat="40.0711559" lon="-105.2296566">
  <ele>1583.14</ele>
  <time>2026-08-28T17:56:36Z</time>
  <course>71.34</course>
  <speed>0.9712363255150623</speed>
  <fix>3d</fix>
</trkpt>
<trkpt lat="40.0711555" lon="-105.2296593">
  <ele>1583.0</ele>
  <time>2026-08-28T17:56:36Z</time>
  <course>72.11</course>
  <speed>0.99</speed>
  <fix>3d</fix>
</trkpt>
<trkpt lat="40.0711562" lon="-105.2296555">
  <ele>1583.14</ele>
  <time>2026-08-28T17:56:36Z</time>
  <course>71.34</course>
  <speed>0.9712363255150623</speed>
  <fix>3d</fix>
</trkpt>
<trkpt lat="40.071156" lon="-105.229657">
  <ele>1583.0</ele>
  <time>2026-08-28T17:56:36Z</time>
  <course>71.97</course>
  <speed>0.99</speed>
  <fix>3d</fix>
</trkpt>
<trkpt lat="40.0711564" lon="-105.2296546">
  <ele>1583.15</ele>
  <time>2026-08-28T17:56:36Z</time>
  <course>71.34</course>
  <speed>0.9712363255150623</speed>
  <fix>3d</fix>
</trkpt>
<trkpt lat="40.071156" lon="-105.229657">
  <ele>1583.0</ele>
  <time>2026-08-28T17:56:36Z</time>
  <course>71.97</course>
  <speed>0.99</speed>
  <fix>3d</fix>
</trkpt>
<trkpt lat="40.0711567" lon="-105.2296535">
  <ele>1583.15</ele>
  <time>2026-08-28T17:56:36Z</time>
  <course>71.34</course>
  <speed>0.9712363255150623</speed>
  <fix>3d</fix>
</trkpt>
<trkpt lat="40.0711565" lon="-105.2296547">
  <ele>1583.0</ele>
  <time>2026-08-28T17:56:36Z</time>
  <course>71.85</course>
  <speed>0.99</speed>
  <fix>3d</fix>
</trkpt>
<trkpt lat="40.071157" lon="-105.2296524">
  <ele>1583.15</ele>
  <time>2026-08-28T17:56:36Z</time>
  <course>71.34</course>
  <speed>0.9712363255150623</speed>
  <fix>3d</fix>
</trkpt>
<trkpt lat="40.0711565" lon="-105.2296547">
  <ele>1583.0</ele>
  <time>2026-08-28T17:56:36Z</time>
  <course>71.85</course>
  <speed>0.99</speed>
  <fix>3d</fix>
</trkpt>
<trkpt lat="40.0711573" lon="-105.2296513">
  <ele>1583.15</ele>
  <time>2026-08-28T17:56:36Z</time>
  <course>71.34</course>
  <speed>0.9646242791885347</speed>
  <fix>3d</fix>
</trkpt>
<trkpt lat="40.0711571" lon="-105.2296526">
  <ele>1583.0</ele>
  <time>2026-08-28T17:56:36Z</time>
  <course>71.73</course>
  <speed>0.99</speed>
  <fix>3d</fix>
</trkpt>
<trkpt lat="40.0711575" lon="-105.2296502">
  <ele>1583.15</ele>
  <time>2026-08-28T17:56:36Z</time>
  <course>71.34</course>
  <speed>0.9741663102366043</speed>
  <fix>3d</fix>
</trkpt>
<trkpt lat="40.0711571" lon="-105.2296526">
  <ele>1583.0</ele>
  <time>2026-08-28T17:56:36Z</time>
  <course>71.73</course>
  <speed>0.99</speed>
  <fix>3d</fix>
</trkpt>
<trkpt lat="40.0711578" lon="-105.2296491">
  <ele>1583.15</ele>
  <time>2026-08-28T17:56:36Z</time>
  <course>71.34</course>
  <speed>0.9646242791885347</speed>
  <fix>3d</fix>
</trkpt>
<trkpt lat="40.0711577" lon="-105.2296504">
  <ele>1583.0</ele>
  <time>2026-08-28T17:56:36Z</time>
  <course>71.62</course>
  <speed>0.99</speed>
  <fix>3d</fix>
</trkpt>
<trkpt lat="40.0711581" lon="-105.229648">
  <ele>1583.15</ele>
  <time>2026-08-28T17:56:36Z</time>
  <course>71.34</course>
  <speed>0.9646242791885347</speed>
  <fix>3d</fix>
</trkpt>
<trkpt lat="40.0711577" lon="-105.2296504">
  <ele>1583.0</ele>
  <time>2026-08-28T17:56:36Z</time>
  <course>71.62</course>
  <speed>0.99</speed>
  <fix>3d</fix>
</trkpt>
<trkpt lat="40.0711584" lon="-105.2296469">
  <ele>1583.15</ele>
  <time>2026-08-28T17:56:36Z</time>
  <course>71.34</course>
  <speed>0.9646242791885347</speed>
  <fix>3d</fix>
</trkpt>
<trkpt lat="40.0711582" lon="-105.2296481">
  <ele>1583.0</ele>
  <time>2026-08-28T17:56:36Z</time>
  <course>71.52</course>
  <speed>0.99</speed>
  <fix>3d</fix>
</trkpt>
<trkpt lat="40.0711587" lon="-105.2296457">
  <ele>1583.15</ele>
  <time>2026-08-28T17:56:36Z</time>
  <course>71.34</course>
  <speed>0.9646242791885347</speed>
  <fix>3d</fix>
</trkpt>
<trkpt lat="40.0711582" lon="-105.2296481">
  <ele>1583.0</ele>
  <time>2026-08-28T17:56:36Z</time>
  <course>71.52</course>
  <speed>0.99</speed>
  <fix>3d</fix>
</trkpt>
<trkpt lat="40.071159" lon="-105.2296444">
  <ele>1583.15</ele>
  <time>2026-08-28T17:56:36Z</time>
  <course>71.34</course>
  <speed>0.9646242791885347</speed>
  <fix>3d</fix>
</trkpt>
<trkpt lat="40.0711588" lon="-105.2296459">
  <ele>1583.0</ele>
  <time>2026-08-28T17:56:36Z</time>
  <course>71.43</course>
  <speed>0.99</speed>
  <fix>3d</fix>
</trkpt>
<trkpt lat="40.0711593" lon="-105.2296433">
  <ele>1583.15</ele>
  <time>2026-08-28T17:56:36Z</time>
  <course>71.34</course>
  <speed>0.9646242791885347</speed>
  <fix>3d</fix>
</trkpt>
<trkpt lat="40.0711588" lon="-105.2296459">
  <ele>1583.0</ele>
  <time>2026-08-28T17:56:36Z</time>
  <course>71.43</course>
  <speed>0.99</speed>
  <fix>3d</fix>
</trkpt>
<trkpt lat="40.0711596" lon="-105.2296422">
  <ele>1583.15</ele>
  <time>2026-08-28T17:56:36Z</time>
  <course>71.34</course>
  <speed>0.9646242791885347</speed>
  <fix>3d</fix>
</trkpt>
<trkpt lat="40.0711594" lon="-105.2296437">
  <ele>1583.0</ele>
  <time>2026-08-28T17:56:36Z</time>
  <course>71.34</course>
  <speed>0.99</speed>
  <fix>3d</fix>
</trkpt>
<trkpt lat="40.0711599" lon="-105.2296411">
  <ele>1583.15</ele>
  <time>2026-08-28T17:56:36Z</time>
  <course>71.34</course>
  <speed>0.9741663102366043</speed>
  <fix>3d</fix>
</trkpt>
<trkpt lat="40.0711594" lon="-105.2296437">
  <ele>1583.0</ele>
  <time>2026-08-28T17:56:36Z</time>
  <course>71.34</course>
  <speed>0.99</speed>
  <fix>3d</fix>
</trkpt>
<trkpt lat="40.0711602" lon="-105.22964">
  <ele>1583.15</ele>
  <time>2026-08-28T17:56:36Z</time>
  <course>71.34</course>
  <speed>0.9646242791885347</speed>
  <fix>3d</fix>
</trkpt>
<trkpt lat="40.0711599" lon="-105.2296414">
  <ele>1583.0</ele>
  <time>2026-08-28T17:56:36Z</time>
  <course>71.27</course>
  <speed>0.99</speed>
  <fix>3d</fix>
</trkpt>
<trkpt lat="40.0711604" lon="-105.2296389">
  <ele>1583.15</ele>
  <time>2026-08-28T17:56:36Z</time>
  <course>71.34</course>
  <speed>0.9646242791885347</speed>
  <fix>3d</fix>
</trkpt>
<trkpt lat="40.0711599" lon="-105.2296414">
  <ele>1583.0</ele>
  <time>2026-08-28T17:56:36Z</time>
  <course>71.27</course>
  <speed>0.99</speed>
  <fix>3d</fix>
</trkpt>
<trkpt lat="40.0711607" lon="-105.2296378">
  <ele>1583.15</ele>
  <time>2026-08-28T17:56:36Z</time>
  <course>71.34</course>
  <speed>0.9646242791885347</speed>
  <fix>3d</fix>
</trkpt>
<trkpt lat="40.0711606" lon="-105.2296393">
  <ele>1583.0</ele>
  <time>2026-08-28T17:56:36Z</time>
  <course>71.19</course>
  <speed>0.99</speed>
  <fix>3d</fix>
</trkpt>
<trkpt lat="40.071161" lon="-105.2296367">
  <ele>1583.15</ele>
  <time>2026-08-28T17:56:36Z</time>
  <course>71.34</course>
  <speed>0.9646242791885347</speed>
  <fix>3d</fix>
</trkpt>
<trkpt lat="40.0711606" lon="-105.2296393">
  <ele>1583.0</ele>
  <time>2026-08-28T17:56:36Z</time>
  <course>71.19</course>
  <speed>0.99</speed>
  <fix>3d</fix>
</trkpt>
<trkpt lat="40.0711613" lon="-105.2296356">
  <ele>1583.15</ele>
  <time>2026-08-28T17:56:36Z</time>
  <course>71.39</course>
  <speed>0.9646242791885347</speed>
  <fix>3d</fix>
</trkpt>
<trkpt lat="40.0711611" lon="-105.229637">
  <ele>1583.0</ele>
  <time>2026-08-28T17:56:36Z</time>
  <course>71.13</course>
  <speed>0.99</speed>
  <fix>3d</fix>
</trkpt>
<trkpt lat="40.0711616" lon="-105.2296345">
  <ele>1583.15</ele>
  <time>2026-08-28T17:56:36Z</time>
  <course>71.44</course>
  <speed>0.9676776322722356</speed>
  <fix>3d</fix>
</trkpt>
<trkpt lat="40.0711611" lon="-105.229637">
  <ele>1583.0</ele>
  <time>2026-08-28T17:56:36Z</time>
  <course>71.13</course>
  <speed>0.99</speed>
  <fix>3d</fix>
</trkpt>
<trkpt lat="40.0711619" lon="-105.2296334">
  <ele>1583.15</ele>
  <time>2026-08-28T17:56:36Z</time>
  <course>71.51</course>
  <speed>0.9676776322722356</speed>
  <fix>3d</fix>
</trkpt>
<trkpt lat="40.0711617" lon="-105.2296349">
  <ele>1583.0</ele>
  <time>2026-08-28T17:56:36Z</time>
  <course>71.07</course>
  <speed>0.99</speed>
  <fix>3d</fix>
</trkpt>
<trkpt lat="40.0711621" lon="-105.2296325">
  <ele>1583.15</ele>
  <time>2026-08-28T17:56:36Z</time>
  <course>71.57</course>
  <speed>0.9676776322722356</speed>
  <fix>3d</fix>
</trkpt>
<trkpt lat="40.0711617" lon="-105.2296349">
  <ele>1583.0</ele>
  <time>2026-08-28T17:56:36Z</time>
  <course>71.07</course>
  <speed>0.99</speed>
  <fix>3d</fix>
</trkpt>
<trkpt lat="40.0711624" lon="-105.2296314">
  <ele>1583.15</ele>
  <time>2026-08-28T17:56:36Z</time>
  <course>71.67</course>
  <speed>0.9676776322722356</speed>
  <fix>3d</fix>
</trkpt>
<trkpt lat="40.0711623" lon="-105.2296327">
  <ele>1583.0</ele>
  <time>2026-08-28T17:56:36Z</time>
  <course>71.02</course>
  <speed>0.99</speed>
  <fix>3d</fix>
</trkpt>
<trkpt lat="40.0711627" lon="-105.2296303">
  <ele>1583.15</ele>
  <time>2026-08-28T17:56:36Z</time>
  <course>71.77</course>
  <speed>0.9676776322722356</speed>
  <fix>3d</fix>
</trkpt>
<trkpt lat="40.0711623" lon="-105.2296327">
  <ele>1583.0</ele>
  <time>2026-08-28T17:56:36Z</time>
  <course>71.02</course>
  <speed>0.99</speed>
  <fix>3d</fix>
</trkpt>
<trkpt lat="40.071163" lon="-105.2296292">
  <ele>1583.16</ele>
  <time>2026-08-28T17:56:36Z</time>
  <course>71.87</course>
  <speed>0.9676776322722356</speed>
  <fix>3d</fix>
</trkpt>
<trkpt lat="40.0711629" lon="-105.2296304">
  <ele>1583.0</ele>
  <time>2026-08-28T17:56:36Z</time>
  <course>71.0</course>
  <speed>0.99</speed>
  <fix>3d</fix>
</trkpt>
<trkpt lat="40.0711633" lon="-105.2296281">
  <ele>1583.16</ele>
  <time>2026-08-28T17:56:36Z</time>
  <course>71.95</course>
  <speed>0.9676776322722356</speed>
  <fix>3d</fix>
</trkpt>
<trkpt lat="40.0711629" lon="-105.2296304">
  <ele>1583.0</ele>
  <time>2026-08-28T17:56:36Z</time>
  <course>71.0</course>
  <speed>0.99</speed>
  <fix>3d</fix>
</trkpt>
<trkpt lat="40.0711636" lon="-105.229627">
  <ele>1583.16</ele>
  <time>2026-08-28T17:56:36Z</time>
  <course>72.05</course>
  <speed>0.9676776322722356</speed>
  <fix>3d</fix>
</trkpt>
<trkpt lat="40.0711635" lon="-105.2296282">
  <ele>1583.0</ele>
  <time>2026-08-28T17:56:36Z</time>
  <course>70.99</course>
  <speed>0.99</speed>
  <fix>3d</fix>
</trkpt>
<trkpt lat="40.0711639" lon="-105.2296259">
  <ele>1583.15</ele>
  <time>2026-08-28T17:56:36Z</time>
  <course>72.15</course>
  <speed>0.9676776322722356</speed>
  <fix>3d</fix>
</trkpt>
<trkpt lat="40.0711635" lon="-105.2296282">
  <ele>1583.0</ele>
  <time>2026-08-28T17:56:36Z</time>
  <course>70.99</course>
  <speed>0.99</speed>
  <fix>3d</fix>
</trkpt>
<trkpt lat="40.0711642" lon="-105.2296247">
  <ele>1583.15</ele>
  <time>2026-08-28T17:56:36Z</time>
  <course>72.25</course>
  <speed>0.9676776322722356</speed>
  <fix>3d</fix>
</trkpt>
<trkpt lat="40.071164" lon="-105.229626">
  <ele>1583.0</ele>
  <time>2026-08-28T17:56:36Z</time>
  <course>71.01</course>
  <speed>0.99</speed>
  <fix>3d</fix>
</trkpt>
<trkpt lat="40.0711645" lon="-105.2296236">
  <ele>1583.16</ele>
  <time>2026-08-28T17:56:36Z</time>
  <course>72.35</course>
  <speed>0.9676776322722356</speed>
  <fix>3d</fix>
</trkpt>
<trkpt lat="40.071164" lon="-105.229626">
  <ele>1583.0</ele>
  <time>2026-08-28T17:56:36Z</time>
  <course>71.01</course>
  <speed>0.99</speed>
  <fix>3d</fix>
</trkpt>
<trkpt lat="40.0711648" lon="-105.2296225">
  <ele>1583.16</ele>
  <time>2026-08-28T17:56:36Z</time>
  <course>72.45</course>
  <speed>0.9676776322722356</speed>
  <fix>3d</fix>
</trkpt>
<trkpt lat="40.0711646" lon="-105.2296237">
  <ele>1583.0</ele>
  <time>2026-08-28T17:56:36Z</time>
  <course>71.03</course>
  <speed>0.99</speed>
  <fix>3d</fix>
</trkpt>
<trkpt lat="40.0711651" lon="-105.2296212">
  <ele>1583.15</ele>
  <time>2026-08-28T17:56:36Z</time>
  <course>72.57</course>
  <speed>0.9676776322722356</speed>
  <fix>3d</fix>
</trkpt>
<trkpt lat="40.0711646" lon="-105.2296237">
  <ele>1583.0</ele>
  <time>2026-08-28T17:56:36Z</time>
  <course>71.03</course>
  <speed>0.99</speed>
  <fix>3d</fix>
</trkpt>
<trkpt lat="40.0711654" lon="-105.2296201">
  <ele>1583.15</ele>
  <time>2026-08-28T17:56:36Z</time>
  <course>72.67</course>
  <speed>0.9771898484941398</speed>
  <fix>3d</fix>
</trkpt>
<trkpt lat="40.0711651" lon="-105.2296216">
  <ele>1583.0</ele>
  <time>2026-08-28T17:56:36Z</time>
  <course>71.07</course>
  <speed>0.99</speed>
  <fix>3d</fix>
</trkpt>
<trkpt lat="40.0711657" lon="-105.229619">
  <ele>1583.15</ele>
  <time>2026-08-28T17:56:36Z</time>
  <course>72.77</course>
  <speed>0.9741663102366043</speed>
  <fix>3d</fix>
</trkpt>
<trkpt lat="40.0711651" lon="-105.2296216">
  <ele>1583.0</ele>
  <time>2026-08-28T17:56:36Z</time>
  <course>71.07</course>
  <speed>0.99</speed>
  <fix>3d</fix>
</trkpt>
<trkpt lat="40.071166" lon="-105.2296178">
  <ele>1583.15</ele>
  <time>2026-08-28T17:56:36Z</time>
  <course>72.87</course>
  <speed>0.9741663102366043</speed>
  <fix>3d</fix>
</trkpt>
<trkpt lat="40.0711658" lon="-105.2296193">
  <ele>1583.0</ele>
  <time>2026-08-28T17:56:36Z</time>
  <course>71.13</course>
  <speed>0.99</speed>
  <fix>3d</fix>
</trkpt>
<trkpt lat="40.0711663" lon="-105.2296167">
  <ele>1583.15</ele>
  <time>2026-08-28T17:56:36Z</time>
  <course>72.95</course>
  <speed>0.9741663102366043</speed>
  <fix>3d</fix>
</trkpt>
<trkpt lat="40.0711658" lon="-105.2296193">
  <ele>1583.0</ele>
  <time>2026-08-28T17:56:36Z</time>
  <course>71.13</course>
  <speed>0.99</speed>
  <fix>3d</fix>
</trkpt>
<trkpt lat="40.0711666" lon="-105.2296156">
  <ele>1583.16</ele>
  <time>2026-08-28T17:56:36Z</time>
  <course>73.02</course>
  <speed>0.9741663102366043</speed>
  <fix>3d</fix>
</trkpt>
<trkpt lat="40.0711663" lon="-105.2296172">
  <ele>1583.0</ele>
  <time>2026-08-28T17:56:36Z</time>
  <course>71.19</course>
  <speed>0.99</speed>
  <fix>3d</fix>
</trkpt>
<trkpt lat="40.0711668" lon="-105.2296145">
  <ele>1583.16</ele>
  <time>2026-08-28T17:56:36Z</time>
  <course>73.1</course>
  <speed>0.9741663102366043</speed>
  <fix>3d</fix>
</trkpt>
<trkpt lat="40.0711663" lon="-105.2296172">
  <ele>1583.0</ele>
  <time>2026-08-28T17:56:36Z</time>
  <course>71.19</course>
  <speed>0.99</speed>
  <fix>3d</fix>
</trkpt>
<trkpt lat="40.0711671" lon="-105.2296134">
  <ele>1583.16</ele>
  <time>2026-08-28T17:56:36Z</time>
  <course>73.18</course>
  <speed>0.9741663102366043</speed>
  <fix>3d</fix>
</trkpt>
<trkpt lat="40.0711669" lon="-105.2296149">
  <ele>1583.0</ele>
  <time>2026-08-28T17:56:36Z</time>
  <course>71.26</course>
  <speed>0.99</speed>
  <fix>3d</fix>
</trkpt>
<trkpt lat="40.0711674" lon="-105.2296123">
  <ele>1583.16</ele>
  <time>2026-08-28T17:56:36Z</time>
  <course>73.26</course>
  <speed>0.9741663102366043</speed>
  <fix>3d</fix>
</trkpt>
<trkpt lat="40.0711669" lon="-105.2296149">
  <ele>1583.0</ele>
  <time>2026-08-28T17:56:36Z</time>
  <course>71.26</course>
  <speed>0.99</speed>
  <fix>3d</fix>
</trkpt>
<trkpt lat="40.0711677" lon="-105.2296112">
  <ele>1583.16</ele>
  <time>2026-08-28T17:56:36Z</time>
  <course>73.32</course>
  <speed>0.9741663102366043</speed>
  <fix>3d</fix>
</trkpt>
<trkpt lat="40.0711675" lon="-105.2296126">
  <ele>1583.0</ele>
  <time>2026-08-28T17:56:36Z</time>
  <course>71.33</course>
  <speed>0.99</speed>
  <fix>3d</fix>
</trkpt>
<trkpt lat="40.071168" lon="-105.2296101">
  <ele>1583.16</ele>
  <time>2026-08-28T17:56:36Z</time>
  <course>73.37</course>
  <speed>0.9741663102366043</speed>
  <fix>3d</fix>
</trkpt>
<trkpt lat="40.0711675" lon="-105.2296126">
  <ele>1583.0</ele>
  <time>2026-08-28T17:56:36Z</time>
  <course>71.33</course>
  <speed>0.99</speed>
  <fix>3d</fix>
</trkpt>
<trkpt lat="40.0711682" lon="-105.2296092">
  <ele>1583.16</ele>
  <time>2026-08-28T17:56:36Z</time>
  <course>73.41</course>
  <speed>0.9741663102366043</speed>
  <fix>3d</fix>
</trkpt>
<trkpt lat="40.071168" lon="-105.2296105">
  <ele>1583.0</ele>
  <time>2026-08-28T17:56:36Z</time>
  <course>71.42</course>
  <speed>0.99</speed>
  <fix>3d</fix>
</trkpt>
<trkpt lat="40.0711685" lon="-105.2296081">
  <ele>1583.17</ele>
  <time>2026-08-28T17:56:36Z</time>
  <course>73.46</course>
  <speed>0.9741663102366043</speed>
  <fix>3d</fix>
</trkpt>
<trkpt lat="40.071168" lon="-105.2296105">
  <ele>1583.0</ele>
  <time>2026-08-28T17:56:36Z</time>
  <course>71.42</course>
  <speed>0.99</speed>
  <fix>3d</fix>
</trkpt>
<trkpt lat="40.0711688" lon="-105.229607">
  <ele>1583.17</ele>
  <time>2026-08-28T17:56:36Z</time>
  <course>73.51</course>
  <speed>0.9741663102366043</speed>
  <fix>3d</fix>
</trkpt>
<trkpt lat="40.0711687" lon="-105.2296083">
  <ele>1583.0</ele>
  <time>2026-08-28T17:56:36Z</time>
  <course>71.51</course>
  <speed>0.99</speed>
  <fix>3d</fix>
</trkpt>
<trkpt lat="40.071169" lon="-105.2296059">
  <ele>1583.17</ele>
  <time>2026-08-28T17:56:36Z</time>
  <course>73.56</course>
  <speed>0.9741663102366043</speed>
  <fix>3d</fix>
</trkpt>
<trkpt lat="40.0711687" lon="-105.2296083">
  <ele>1583.0</ele>
  <time>2026-08-28T17:56:36Z</time>
  <course>71.51</course>
  <speed>0.99</speed>
  <fix>3d</fix>
</trkpt>
<trkpt lat="40.0711693" lon="-105.2296048">
  <ele>1583.17</ele>
  <time>2026-08-28T17:56:36Z</time>
  <course>73.61</course>
  <speed>0.9712363255150623</speed>
  <fix>3d</fix>
</trkpt>
<trkpt lat="40.0711692" lon="-105.229606">
  <ele>1583.0</ele>
  <time>2026-08-28T17:56:36Z</time>
  <course>71.6</course>
  <speed>0.99</speed>
  <fix>3d</fix>
</trkpt>
<trkpt lat="40.0711696" lon="-105.2296036">
  <ele>1583.17</ele>
  <time>2026-08-28T17:56:36Z</time>
  <course>73.64</course>
  <speed>0.9712363255150623</speed>
  <fix>3d</fix>
</trkpt>
<trkpt lat="40.0711692" lon="-105.229606">
  <ele>1583.0</ele>
  <time>2026-08-28T17:56:36Z</time>
  <course>71.6</course>
  <speed>0.99</speed>
  <fix>3d</fix>
</trkpt>
<trkpt lat="40.0711699" lon="-105.2296025">
  <ele>1583.16</ele>
  <time>2026-08-28T17:56:36Z</time>
  <course>73.67</course>
  <speed>0.9712363255150623</speed>
  <fix>3d</fix>
</trkpt>
<trkpt lat="40.0711697" lon="-105.2296038">
  <ele>1583.0</ele>
  <time>2026-08-28T17:56:36Z</time>
  <course>71.69</course>
  <speed>0.99</speed>
  <fix>3d</fix>
</trkpt>
<trkpt lat="40.0711702" lon="-105.2296014">
  <ele>1583.16</ele>
  <time>2026-08-28T17:56:36Z</time>
  <course>73.7</course>
  <speed>0.9712363255150623</speed>
  <fix>3d</fix>
</trkpt>
<trkpt lat="40.0711697" lon="-105.2296038">
  <ele>1583.0</ele>
  <time>2026-08-28T17:56:36Z</time>
  <course>71.69</course>
  <speed>0.99</speed>
  <fix>3d</fix>
</trkpt>
<trkpt lat="40.0711705" lon="-105.2296003">
  <ele>1583.16</ele>
  <time>2026-08-28T17:56:36Z</time>
  <course>73.7</course>
  <speed>0.9712363255150623</speed>
  <fix>3d</fix>
</trkpt>
<trkpt lat="40.0711703" lon="-105.2296016">
  <ele>1583.0</ele>
  <time>2026-08-28T17:56:36Z</time>
  <course>71.77</course>
  <speed>0.99</speed>
  <fix>3d</fix>
</trkpt>
<trkpt lat="40.0711707" lon="-105.2295992">
  <ele>1583.15</ele>
  <time>2026-08-28T17:56:36Z</time>
  <course>73.73</course>
  <speed>0.9712363255150623</speed>
  <fix>3d</fix>
</trkpt>
<trkpt lat="40.0711703" lon="-105.2296016">
  <ele>1583.0</ele>
  <time>2026-08-28T17:56:36Z</time>
  <course>71.77</course>
  <speed>0.99</speed>
  <fix>3d</fix>
</trkpt>
<trkpt lat="40.0711711" lon="-105.2295978">
  <ele>1583.15</ele>
  <time>2026-08-28T17:56:36Z</time>
  <course>73.74</course>
  <speed>0.9712363255150623</speed>
  <fix>3d</fix>
</trkpt>
<trkpt lat="40.0711709" lon="-105.2295993">
  <ele>1583.0</ele>
  <time>2026-08-28T17:56:36Z</time>
  <course>71.85</course>
  <speed>0.99</speed>
  <fix>3d</fix>
</trkpt>
<trkpt lat="40.0711713" lon="-105.2295967">
  <ele>1583.14</ele>
  <time>2026-08-28T17:56:36Z</time>
  <course>73.79</course>
  <speed>0.9712363255150623</speed>
  <fix>3d</fix>
</trkpt>
<trkpt lat="40.0711709" lon="-105.2295993">
  <ele>1583.0</ele>
  <time>2026-08-28T17:56:36Z</time>
  <course>71.85</course>
  <speed>0.99</speed>
  <fix>3d</fix>
</trkpt>
<trkpt lat="40.0711716" lon="-105.2295956">
  <ele>1583.14</ele>
  <time>2026-08-28T17:56:36Z</time>
  <course>73.81</course>
  <speed>0.9712363255150623</speed>
  <fix>3d</fix>
</trkpt>
<trkpt lat="40.0711714" lon="-105.2295972">
  <ele>1583.0</ele>
  <time>2026-08-28T17:56:36Z</time>
  <course>71.92</course>
  <speed>0.99</speed>
  <fix>3d</fix>
</trkpt>
<trkpt lat="40.0711719" lon="-105.2295945">
  <ele>1583.14</ele>
  <time>2026-08-28T17:56:36Z</time>
  <course>73.85</course>
  <speed>0.9712363255150623</speed>
  <fix>3d</fix>
</trkpt>
<trkpt lat="40.0711714" lon="-105.2295972">
  <ele>1583.0</ele>
  <time>2026-08-28T17:56:36Z</time>
  <course>71.92</course>
  <speed>0.99</speed>
  <fix>3d</fix>
</trkpt>
<trkpt lat="40.0711722" lon="-105.2295934">
  <ele>1583.14</ele>
  <time>2026-08-28T17:56:36Z</time>
  <course>73.88</course>
  <speed>0.9712363255150623</speed>
  <fix>3d</fix>
</trkpt>
<trkpt lat="40.071172" lon="-105.2295949">
  <ele>1583.0</ele>
  <time>2026-08-28T17:56:36Z</time>
  <course>71.99</course>
  <speed>0.99</speed>
  <fix>3d</fix>
</trkpt>
<trkpt lat="40.0711724" lon="-105.2295922">
  <ele>1583.14</ele>
  <time>2026-08-28T17:56:36Z</time>
  <course>73.88</course>
  <speed>0.9712363255150623</speed>
  <fix>3d</fix>
</trkpt>
<trkpt lat="40.071172" lon="-105.2295949">
  <ele>1583.0</ele>
  <time>2026-08-28T17:56:36Z</time>
  <course>71.99</course>
  <speed>0.99</speed>
  <fix>3d</fix>
</trkpt>
<trkpt lat="40.0711727" lon="-105.2295911">
  <ele>1583.14</ele>
  <time>2026-08-28T17:56:36Z</time>
  <course>73.88</course>
  <speed>0.9712363255150623</speed>
  <fix>3d</fix>
</trkpt>
<trkpt lat="40.0711726" lon="-105.2295926">
  <ele>1583.0</ele>
  <time>2026-08-28T17:56:36Z</time>
  <course>72.06</course>
  <speed>0.99</speed>
  <fix>3d</fix>
</trkpt>
<trkpt lat="40.071173" lon="-105.22959">
  <ele>1583.14</ele>
  <time>2026-08-28T17:56:36Z</time>
  <course>73.88</course>
  <speed>0.9712363255150623</speed>
  <fix>3d</fix>
</trkpt>
<trkpt lat="40.0711726" lon="-105.2295926">
  <ele>1583.0</ele>
  <time>2026-08-28T17:56:36Z</time>
  <course>72.06</course>
  <speed>0.99</speed>
  <fix>3d</fix>
</trkpt>
<trkpt lat="40.0711733" lon="-105.2295889">
  <ele>1583.14</ele>
  <time>2026-08-28T17:56:36Z</time>
  <course>73.88</course>
  <speed>0.9712363255150623</speed>
  <fix>3d</fix>
</trkpt>
<trkpt lat="40.0711731" lon="-105.2295905">
  <ele>1583.0</ele>
  <time>2026-08-28T17:56:36Z</time>
  <course>72.12</course>
  <speed>0.99</speed>
  <fix>3d</fix>
</trkpt>
<trkpt lat="40.0711735" lon="-105.2295878">
  <ele>1583.14</ele>
  <time>2026-08-28T17:56:36Z</time>
  <course>73.88</course>
  <speed>0.9712363255150623</speed>
  <fix>3d</fix>
</trkpt>
<trkpt lat="40.0711731" lon="-105.2295905">
  <ele>1583.0</ele>
  <time>2026-08-28T17:56:36Z</time>
  <course>72.12</course>
  <speed>0.99</speed>
  <fix>3d</fix>
</trkpt>
<trkpt lat="40.0711738" lon="-105.2295867">
  <ele>1583.14</ele>
  <time>2026-08-28T17:56:36Z</time>
  <course>73.88</course>
  <speed>0.9684007434941384</speed>
  <fix>3d</fix>
</trkpt>
<trkpt lat="40.0711737" lon="-105.2295882">
  <ele>1583.0</ele>
  <time>2026-08-28T17:56:36Z</time>
  <course>72.18</course>
  <speed>0.99</speed>
  <fix>3d</fix>
</trkpt>
<trkpt lat="40.071174" lon="-105.2295858">
  <ele>1583.15</ele>
  <time>2026-08-28T17:56:36Z</time>
  <course>73.88</course>
  <speed>0.9684007434941384</speed>
  <fix>3d</fix>
</trkpt>
<trkpt lat="40.0711737" lon="-105.2295882">
  <ele>1583.0</ele>
  <time>2026-08-28T17:56:36Z</time>
  <course>72.18</course>
  <speed>0.99</speed>
  <fix>3d</fix>
</trkpt>
<trkpt lat="40.0711743" lon="-105.2295847">
  <ele>1583.15</ele>
  <time>2026-08-28T17:56:36Z</time>
  <course>73.88</course>
  <speed>0.9684007434941384</speed>
  <fix>3d</fix>
</trkpt>
<trkpt lat="40.0711742" lon="-105.2295859">
  <ele>1583.0</ele>
  <time>2026-08-28T17:56:36Z</time>
  <course>72.24</course>
  <speed>0.99</speed>
  <fix>3d</fix>
</trkpt>
<trkpt lat="40.0711746" lon="-105.2295836">
  <ele>1583.15</ele>
  <time>2026-08-28T17:56:36Z</time>
  <course>73.88</course>
  <speed>0.9684007434941384</speed>
  <fix>3d</fix>
</trkpt>
<trkpt lat="40.0711742" lon="-105.2295859">
  <ele>1583.0</ele>
  <time>2026-08-28T17:56:36Z</time>
  <course>72.24</course>
  <speed>0.99</speed>
  <fix>3d</fix>
</trkpt>
<trkpt lat="40.0711749" lon="-105.2295825">
  <ele>1583.15</ele>
  <time>2026-08-28T17:56:36Z</time>
  <course>73.88</course>
  <speed>0.9684007434941384</speed>
  <fix>3d</fix>
</trkpt>
<trkpt lat="40.0711747" lon="-105.2295838">
  <ele>1583.0</ele>
  <time>2026-08-28T17:56:36Z</time>
  <course>72.29</course>
  <speed>0.99</speed>
  <fix>3d</fix>
</trkpt>
<trkpt lat="40.0711751" lon="-105.2295814">
  <ele>1583.15</ele>
  <time>2026-08-28T17:56:36Z</time>
  <course>73.88</course>
  <speed>0.9684007434941384</speed>
  <fix>3d</fix>
</trkpt>
<trkpt lat="40.0711747" lon="-105.2295838">
  <ele>1583.0</ele>
  <time>2026-08-28T17:56:36Z</time>
  <course>72.29</course>
  <speed>0.99</speed>
  <fix>3d</fix>
</trkpt>
<trkpt lat="40.0711754" lon="-105.2295802">
  <ele>1583.14</ele>
  <time>2026-08-28T17:56:36Z</time>
  <course>73.88</course>
  <speed>0.9684007434941384</speed>
  <fix>3d</fix>
</trkpt>
<trkpt lat="40.0711753" lon="-105.2295815">
  <ele>1583.0</ele>
  <time>2026-08-28T17:56:36Z</time>
  <course>72.34</course>
  <speed>0.99</speed>
  <fix>3d</fix>
</trkpt>
<trkpt lat="40.0711757" lon="-105.2295791">
  <ele>1583.14</ele>
  <time>2026-08-28T17:56:36Z</time>
  <course>73.88</course>
  <speed>0.9684007434941384</speed>
  <fix>3d</fix>
</trkpt>
<trkpt lat="40.0711753" lon="-105.2295815">
  <ele>1583.0</ele>
  <time>2026-08-28T17:56:36Z</time>
  <course>72.34</course>
  <speed>0.99</speed>
  <fix>3d</fix>
</trkpt>
<trkpt lat="40.0711759" lon="-105.229578">
  <ele>1583.14</ele>
  <time>2026-08-28T17:56:36Z</time>
  <course>73.88</course>
  <speed>0.9684007434941384</speed>
  <fix>3d</fix>
</trkpt>
<trkpt lat="40.0711758" lon="-105.2295792">
  <ele>1583.0</ele>
  <time>2026-08-28T17:56:36Z</time>
  <course>72.38</course>
  <speed>0.99</speed>
  <fix>3d</fix>
</trkpt>
<trkpt lat="40.0711762" lon="-105.2295769">
  <ele>1583.14</ele>
  <time>2026-08-28T17:56:36Z</time>
  <course>73.88</course>
  <speed>0.9684007434941384</speed>
  <fix>3d</fix>
</trkpt>
<trkpt lat="40.0711758" lon="-105.2295792">
  <ele>1583.0</ele>
  <time>2026-08-28T17:56:36Z</time>
  <course>72.38</course>
  <speed>0.99</speed>
  <fix>3d</fix>
</trkpt>
<trkpt lat="40.0711765" lon="-105.2295757">
  <ele>1583.14</ele>
  <time>2026-08-28T17:56:36Z</time>
  <course>73.88</course>
  <speed>0.9684007434941384</speed>
  <fix>3d</fix>
</trkpt>
<trkpt lat="40.0711764" lon="-105.2295771">
  <ele>1583.0</ele>
  <time>2026-08-28T17:56:36Z</time>
  <course>72.42</course>
  <speed>0.99</speed>
  <fix>3d</fix>
</trkpt>
<trkpt lat="40.0711768" lon="-105.2295744">
  <ele>1583.14</ele>
  <time>2026-08-28T17:56:36Z</time>
  <course>73.88</course>
  <speed>0.9684007434941384</speed>
  <fix>3d</fix>
</trkpt>
<trkpt lat="40.0711764" lon="-105.2295771">
  <ele>1583.0</ele>
  <time>2026-08-28T17:56:36Z</time>
  <course>72.42</course>
  <speed>0.99</speed>
  <fix>3d</fix>
</trkpt>
<trkpt lat="40.0711771" lon="-105.2295733">
  <ele>1583.14</ele>
  <time>2026-08-28T17:56:36Z</time>
  <course>73.88</course>
  <speed>0.9684007434941384</speed>
  <fix>3d</fix>
</trkpt>
<trkpt lat="40.0711769" lon="-105.2295748">
  <ele>1583.0</ele>
  <time>2026-08-28T17:56:36Z</time>
  <course>72.46</course>
  <speed>0.99</speed>
  <fix>3d</fix>
</trkpt>
<trkpt lat="40.0711774" lon="-105.2295722">
  <ele>1583.14</ele>
  <time>2026-08-28T17:56:36Z</time>
  <course>73.88</course>
  <speed>0.9684007434941384</speed>
  <fix>3d</fix>
</trkpt>
<trkpt lat="40.0711769" lon="-105.2295748">
  <ele>1583.0</ele>
  <time>2026-08-28T17:56:36Z</time>
  <course>72.46</course>
  <speed>0.99</speed>
  <fix>3d</fix>
</trkpt>
<trkpt lat="40.0711776" lon="-105.229571">
  <ele>1583.14</ele>
  <time>2026-08-28T17:56:36Z</time>
  <course>73.88</course>
  <speed>0.978008179924892</speed>
  <fix>3d</fix>
</trkpt>
<trkpt lat="40.0711775" lon="-105.2295725">
  <ele>1583.0</ele>
  <time>2026-08-28T17:56:36Z</time>
  <course>72.49</course>
  <speed>0.99</speed>
  <fix>3d</fix>
</trkpt>
<trkpt lat="40.0711779" lon="-105.2295699">
  <ele>1583.14</ele>
  <time>2026-08-28T17:56:36Z</time>
  <course>73.83</course>
  <speed>0.978008179924892</speed>
  <fix>3d</fix>
</trkpt>
<trkpt lat="40.0711775" lon="-105.2295725">
  <ele>1583.0</ele>
  <time>2026-08-28T17:56:36Z</time>
  <course>72.49</course>
  <speed>0.99</speed>
  <fix>3d</fix>
</trkpt>
<trkpt lat="40.0711782" lon="-105.2295688">
  <ele>1583.14</ele>
  <time>2026-08-28T17:56:36Z</time>
  <course>73.8</course>
  <speed>0.978008179924892</speed>
  <fix>3d</fix>
</trkpt>
<trkpt lat="40.071178" lon="-105.2295703">
  <ele>1583.0</ele>
  <time>2026-08-28T17:56:36Z</time>
  <course>72.52</course>
  <speed>0.99</speed>
  <fix>3d</fix>
</trkpt>
<trkpt lat="40.0711784" lon="-105.2295677">
  <ele>1583.14</ele>
  <time>2026-08-28T17:56:36Z</time>
  <course>73.75</course>
  <speed>0.978008179924892</speed>
  <fix>3d</fix>
</trkpt>
<trkpt lat="40.071178" lon="-105.2295703">
  <ele>1583.0</ele>
  <time>2026-08-28T17:56:36Z</time>
  <course>72.52</course>
  <speed>0.99</speed>
  <fix>3d</fix>
</trkpt>
<trkpt lat="40.0711787" lon="-105.2295665">
  <ele>1583.14</ele>
  <time>2026-08-28T17:56:36Z</time>
  <course>73.7</course>
  <speed>0.978008179924892</speed>
  <fix>3d</fix>
</trkpt>
<trkpt lat="40.0711785" lon="-105.2295681">
  <ele>1583.0</ele>
  <time>2026-08-28T17:56:36Z</time>
  <course>72.55</course>
  <speed>0.99</speed>
  <fix>3d</fix>
</trkpt>
<trkpt lat="40.071179" lon="-105.2295654">
  <ele>1583.15</ele>
  <time>2026-08-28T17:56:36Z</time>
  <course>73.67</course>
  <speed>0.978008179924892</speed>
  <fix>3d</fix>
</trkpt>
<trkpt lat="40.0711785" lon="-105.2295681">
  <ele>1583.0</ele>
  <time>2026-08-28T17:56:36Z</time>
  <course>72.55</course>
  <speed>0.99</speed>
  <fix>3d</fix>
</trkpt>
<trkpt lat="40.0711792" lon="-105.2295643">
  <ele>1583.15</ele>
  <time>2026-08-28T17:56:36Z</time>
  <course>73.64</course>
  <speed>0.9684007434941384</speed>
  <fix>3d</fix>
</trkpt>
<trkpt lat="40.071179" lon="-105.2295658">
  <ele>1583.0</ele>
  <time>2026-08-28T17:56:36Z</time>
  <course>72.57</course>
  <speed>0.99</speed>
  <fix>3d</fix>
</trkpt>
<trkpt lat="40.0711795" lon="-105.2295632">
  <ele>1583.14</ele>
  <time>2026-08-28T17:56:36Z</time>
  <course>73.64</course>
  <speed>0.9684007434941384</speed>
  <fix>3d</fix>
</trkpt>
<trkpt lat="40.071179" lon="-105.2295658">
  <ele>1583.0</ele>
  <time>2026-08-28T17:56:36Z</time>
  <course>72.57</course>
  <speed>0.99</speed>
  <fix>3d</fix>
</trkpt>
<trkpt lat="40.0711797" lon="-105.2295623">
  <ele>1583.15</ele>
  <time>2026-08-28T17:56:36Z</time>
  <course>73.64</course>
  <speed>0.9684007434941384</speed>
  <fix>3d</fix>
</trkpt>
<trkpt lat="40.0711796" lon="-105.2295636">
  <ele>1583.0</ele>
  <time>2026-08-28T17:56:36Z</time>
  <course>72.58</course>
  <speed>0.99</speed>
  <fix>3d</fix>
</trkpt>
<trkpt lat="40.07118" lon="-105.2295612">
  <ele>1583.15</ele>
  <time>2026-08-28T17:56:36Z</time>
  <course>73.64</course>
  <speed>0.9684007434941384</speed>
  <fix>3d</fix>
</trkpt>
<trkpt lat="40.0711796" lon="-105.2295636">
  <ele>1583.0</ele>
  <time>2026-08-28T17:56:36Z</time>
  <course>72.58</course>
  <speed>0.99</speed>
  <fix>3d</fix>
</trkpt>
<trkpt lat="40.0711802" lon="-105.2295601">
  <ele>1583.15</ele>
  <time>2026-08-28T17:56:36Z</time>
  <course>73.64</course>
  <speed>0.9684007434941384</speed>
  <fix>3d</fix>
</trkpt>
<trkpt lat="40.0711802" lon="-105.2295614">
  <ele>1583.0</ele>
  <time>2026-08-28T17:56:36Z</time>
  <course>72.58</course>
  <speed>0.99</speed>
  <fix>3d</fix>
</trkpt>
<trkpt lat="40.0711805" lon="-105.229559">
  <ele>1583.14</ele>
  <time>2026-08-28T17:56:36Z</time>
  <course>73.64</course>
  <speed>0.9684007434941384</speed>
  <fix>3d</fix>
</trkpt>
<trkpt lat="40.0711802" lon="-105.2295614">
  <ele>1583.0</ele>
  <time>2026-08-28T17:56:36Z</time>
  <course>72.58</course>
  <speed>0.99</speed>
  <fix>3d</fix>
</trkpt>
<trkpt lat="40.0711808" lon="-105.2295578">
  <ele>1583.14</ele>
  <time>2026-08-28T17:56:36Z</time>
  <course>73.64</course>
  <speed>0.9684007434941384</speed>
  <fix>3d</fix>
</trkpt>
<trkpt lat="40.0711807" lon="-105.2295591">
  <ele>1583.0</ele>
  <time>2026-08-28T17:56:36Z</time>
  <course>72.59</course>
  <speed>0.99</speed>
  <fix>3d</fix>
</trkpt>
<trkpt lat="40.0711811" lon="-105.2295567">
  <ele>1583.15</ele>
  <time>2026-08-28T17:56:36Z</time>
  <course>73.61</course>
  <speed>0.9684007434941384</speed>
  <fix>3d</fix>
</trkpt>
<trkpt lat="40.0711807" lon="-105.2295591">
  <ele>1583.0</ele>
  <time>2026-08-28T17:56:36Z</time>
  <course>72.59</course>
  <speed>0.99</speed>
  <fix>3d</fix>
</trkpt>
<trkpt lat="40.0711813" lon="-105.2295556">
  <ele>1583.15</ele>
  <time>2026-08-28T17:56:36Z</time>
  <course>73.58</course>
  <speed>0.9684007434941384</speed>
  <fix>3d</fix>
</trkpt>
<trkpt lat="40.0711812" lon="-105.2295569">
  <ele>1583.0</ele>
  <time>2026-08-28T17:56:36Z</time>
  <course>72.59</course>
  <speed>0.99</speed>
  <fix>3d</fix>
</trkpt>
<trkpt lat="40.0711816" lon="-105.2295545">
  <ele>1583.14</ele>
  <time>2026-08-28T17:56:36Z</time>
  <course>73.54</course>
  <speed>0.978008179924892</speed>
  <fix>3d</fix>
</trkpt>
<trkpt lat="40.0711812" lon="-105.2295569">
  <ele>1583.0</ele>
  <time>2026-08-28T17:56:36Z</time>
  <course>72.59</course>
  <speed>0.99</speed>
  <fix>3d</fix>
</trkpt>
<trkpt lat="40.0711819" lon="-105.2295533">
  <ele>1583.14</ele>
  <time>2026-08-28T17:56:36Z</time>
  <course>73.49</course>
  <speed>0.978008179924892</speed>
  <fix>3d</fix>
</trkpt>
<trkpt lat="40.0711818" lon="-105.2295547">
  <ele>1583.0</ele>
  <time>2026-08-28T17:56:36Z</time>
  <course>72.59</course>
  <speed>0.99</speed>
  <fix>3d</fix>
</trkpt>
<trkpt lat="40.0711822" lon="-105.229552">
  <ele>1583.13</ele>
  <time>2026-08-28T17:56:36Z</time>
  <course>73.43</course>
  <speed>0.978008179924892</speed>
  <fix>3d</fix>
</trkpt>
<trkpt lat="40.0711818" lon="-105.2295547">
  <ele>1583.0</ele>
  <time>2026-08-28T17:56:36Z</time>
  <course>72.59</course>
  <speed>0.99</speed>
  <fix>3d</fix>
</trkpt>
<trkpt lat="40.0711825" lon="-105.2295509">
  <ele>1583.13</ele>
  <time>2026-08-28T17:56:36Z</time>
  <course>73.38</course>
  <speed>0.978008179924892</speed>
  <fix>3d</fix>
</trkpt>
<trkpt lat="40.0711823" lon="-105.2295524">
  <ele>1583.0</ele>
  <time>2026-08-28T17:56:36Z</time>
  <course>72.59</course>
  <speed>0.99</speed>
  <fix>3d</fix>
</trkpt>
<trkpt lat="40.0711827" lon="-105.2295498">
  <ele>1583.13</ele>
  <time>2026-08-28T17:56:36Z</time>
  <course>73.33</course>
  <speed>0.978008179924892</speed>
  <fix>3d</fix>
</trkpt>
<trkpt lat="40.0711823" lon="-105.2295524">
  <ele>1583.0</ele>
  <time>2026-08-28T17:56:36Z</time>
  <course>72.59</course>
  <speed>0.99</speed>
  <fix>3d</fix>
</trkpt>
<trkpt lat="40.071183" lon="-105.2295486">
  <ele>1583.12</ele>
  <time>2026-08-28T17:56:36Z</time>
  <course>73.28</course>
  <speed>0.978008179924892</speed>
  <fix>3d</fix>
</trkpt>
<trkpt lat="40.0711828" lon="-105.2295502">
  <ele>1583.0</ele>
  <time>2026-08-28T17:56:36Z</time>
  <course>72.58</course>
  <speed>0.99</speed>
  <fix>3d</fix>
</trkpt>
<trkpt lat="40.0711833" lon="-105.2295475">
  <ele>1583.12</ele>
  <time>2026-08-28T17:56:36Z</time>
  <course>73.23</course>
  <speed>0.978008179924892</speed>
  <fix>3d</fix>
</trkpt>
<trkpt lat="40.0711828" lon="-105.2295502">
  <ele>1583.0</ele>
  <time>2026-08-28T17:56:36Z</time>
  <course>72.58</course>
  <speed>0.99</speed>
  <fix>3d</fix>
</trkpt>
<trkpt lat="40.0711835" lon="-105.2295464">
  <ele>1583.12</ele>
  <time>2026-08-28T17:56:36Z</time>
  <course>73.18</course>
  <speed>0.978008179924892</speed>
  <fix>3d</fix>
</trkpt>
<trkpt lat="40.0711833" lon="-105.229548">
  <ele>1583.0</ele>
  <time>2026-08-28T17:56:36Z</time>
  <course>72.56</course>
  <speed>0.99</speed>
  <fix>3d</fix>
</trkpt>
<trkpt lat="40.0711838" lon="-105.2295453">
  <ele>1583.12</ele>
  <time>2026-08-28T17:56:36Z</time>
  <course>73.13</course>
  <speed>0.9684007434941384</speed>
  <fix>3d</fix>
</trkpt>
<trkpt lat="40.0711833" lon="-105.229548">
  <ele>1583.0</ele>
  <time>2026-08-28T17:56:36Z</time>
  <course>72.56</course>
  <speed>0.99</speed>
  <fix>3d</fix>
</trkpt>
<trkpt lat="40.0711841" lon="-105.2295442">
  <ele>1583.12</ele>
  <time>2026-08-28T17:56:36Z</time>
  <course>73.08</course>
  <speed>0.9684007434941384</speed>
  <fix>3d</fix>
</trkpt>
<trkpt lat="40.0711839" lon="-105.2295457">
  <ele>1583.0</ele>
  <time>2026-08-28T17:56:36Z</time>
  <course>72.54</course>
  <speed>0.99</speed>
  <fix>3d</fix>
</trkpt>
<trkpt lat="40.0711843" lon="-105.2295431">
  <ele>1583.12</ele>
  <time>2026-08-28T17:56:36Z</time>
  <course>73.07</course>
  <speed>0.9684007434941384</speed>
  <fix>3d</fix>
</trkpt>
<trkpt lat="40.0711839" lon="-105.2295457">
  <ele>1583.0</ele>
  <time>2026-08-28T17:56:36Z</time>
  <course>72.54</course>
  <speed>0.99</speed>
  <fix>3d</fix>
</trkpt>
<trkpt lat="40.0711846" lon="-105.229542">
  <ele>1583.12</ele>
  <time>2026-08-28T17:56:36Z</time>
  <course>73.06</course>
  <speed>0.9684007434941384</speed>
  <fix>3d</fix>
</trkpt>
<trkpt lat="40.0711845" lon="-105.2295435">
  <ele>1583.0</ele>
  <time>2026-08-28T17:56:36Z</time>
  <course>72.51</course>
  <speed>0.99</speed>
  <fix>3d</fix>
</trkpt>
<trkpt lat="40.0711849" lon="-105.2295408">
  <ele>1583.12</ele>
  <time>2026-08-28T17:56:36Z</time>
  <course>73.06</course>
  <speed>0.9684007434941384</speed>
  <fix>3d</fix>
</trkpt>
<trkpt lat="40.0711845" lon="-105.2295435">
  <ele>1583.0</ele>
  <time>2026-08-28T17:56:36Z</time>
  <course>72.51</course>
  <speed>0.99</speed>
  <fix>3d</fix>
</trkpt>
<trkpt lat="40.0711851" lon="-105.2295397">
  <ele>1583.12</ele>
  <time>2026-08-28T17:56:36Z</time>
  <course>73.06</course>
  <speed>0.9684007434941384</speed>
  <fix>3d</fix>
</trkpt>
<trkpt lat="40.071185" lon="-105.2295412">
  <ele>1583.0</ele>
  <time>2026-08-28T17:56:36Z</time>
  <course>72.47</course>
  <speed>0.99</speed>
  <fix>3d</fix>
</trkpt>
<trkpt lat="40.0711854" lon="-105.2295388">
  <ele>1583.12</ele>
  <time>2026-08-28T17:56:36Z</time>
  <course>73.06</course>
  <speed>0.9684007434941384</speed>
  <fix>3d</fix>
</trkpt>
<trkpt lat="40.071185" lon="-105.2295412">
  <ele>1583.0</ele>
  <time>2026-08-28T17:56:36Z</time>
  <course>72.47</course>
  <speed>0.99</speed>
  <fix>3d</fix>
</trkpt>
<trkpt lat="40.0711856" lon="-105.2295377">
  <ele>1583.12</ele>
  <time>2026-08-28T17:56:36Z</time>
  <course>73.04</course>
  <speed>0.9684007434941384</speed>
  <fix>3d</fix>
</trkpt>
<trkpt lat="40.0711855" lon="-105.2295389">
  <ele>1583.0</ele>
  <time>2026-08-28T17:56:36Z</time>
  <course>72.44</course>
  <speed>0.99</speed>
  <fix>3d</fix>
</trkpt>
<trkpt lat="40.0711859" lon="-105.2295366">
  <ele>1583.12</ele>
  <time>2026-08-28T17:56:36Z</time>
  <course>73.02</course>
  <speed>0.9684007434941384</speed>
  <fix>3d</fix>
</trkpt>
<trkpt lat="40.0711855" lon="-105.2295389">
  <ele>1583.0</ele>
  <time>2026-08-28T17:56:36Z</time>
  <course>72.44</course>
  <speed>0.99</speed>
  <fix>3d</fix>
</trkpt>
<trkpt lat="40.0711862" lon="-105.2295355">
  <ele>1583.12</ele>
  <time>2026-08-28T17:56:36Z</time>
  <course>73.01</course>
  <speed>0.9684007434941384</speed>
  <fix>3d</fix>
</trkpt>
<trkpt lat="40.071186" lon="-105.2295368">
  <ele>1583.0</ele>
  <time>2026-08-28T17:56:36Z</time>
  <course>72.41</course>
  <speed>0.99</speed>
  <fix>3d</fix>
</trkpt>
<trkpt lat="40.0711864" lon="-105.2295344">
  <ele>1583.12</ele>
  <time>2026-08-28T17:56:36Z</time>
  <course>73.0</course>
  <speed>0.9684007434941384</speed>
  <fix>3d</fix>
</trkpt>
<trkpt lat="40.071186" lon="-105.2295368">
  <ele>1583.0</ele>
  <time>2026-08-28T17:56:36Z</time>
  <course>72.41</course>
  <speed>0.99</speed>
  <fix>3d</fix>
</trkpt>
<trkpt lat="40.0711867" lon="-105.2295333">
  <ele>1583.12</ele>
  <time>2026-08-28T17:56:36Z</time>
  <course>73.0</course>
  <speed>0.9684007434941384</speed>
  <fix>3d</fix>
</trkpt>
<trkpt lat="40.0711866" lon="-105.2295345">
  <ele>1583.0</ele>
  <time>2026-08-28T17:56:36Z</time>
  <course>72.37</course>
  <speed>0.99</speed>
  <fix>3d</fix>
</trkpt>
<trkpt lat="40.071187" lon="-105.2295321">
  <ele>1583.12</ele>
  <time>2026-08-28T17:56:36Z</time>
  <course>72.99</course>
  <speed>0.9684007434941384</speed>
  <fix>3d</fix>
</trkpt>
<trkpt lat="40.0711866" lon="-105.2295345">
  <ele>1583.0</ele>
  <time>2026-08-28T17:56:36Z</time>
  <course>72.37</course>
  <speed>0.99</speed>
  <fix>3d</fix>
</trkpt>
<trkpt lat="40.0711873" lon="-105.229531">
  <ele>1583.12</ele>
  <time>2026-08-28T17:56:36Z</time>
  <course>72.99</course>
  <speed>0.9684007434941384</speed>
  <fix>3d</fix>
</trkpt>
<trkpt lat="40.0711872" lon="-105.2295322">
  <ele>1583.0</ele>
  <time>2026-08-28T17:56:36Z</time>
  <course>72.34</course>
  <speed>0.99</speed>
  <fix>3d</fix>
</trkpt>
<trkpt lat="40.0711875" lon="-105.2295299">
  <ele>1583.12</ele>
  <time>2026-08-28T17:56:36Z</time>
  <course>72.99</course>
  <speed>0.9712363255150623</speed>
  <fix>3d</fix>
</trkpt>
<trkpt lat="40.0711872" lon="-105.2295322">
  <ele>1583.0</ele>
  <time>2026-08-28T17:56:36Z</time>
  <course>72.34</course>
  <speed>0.99</speed>
  <fix>3d</fix>
</trkpt>
<trkpt lat="40.0711879" lon="-105.2295285">
  <ele>1583.12</ele>
  <time>2026-08-28T17:56:36Z</time>
  <course>72.99</course>
  <speed>0.9712363255150623</speed>
  <fix>3d</fix>
</trkpt>
<trkpt lat="40.0711877" lon="-105.2295301">
  <ele>1583.0</ele>
  <time>2026-08-28T17:56:36Z</time>
  <course>72.31</course>
  <speed>0.99</speed>
  <fix>3d</fix>
</trkpt>
<trkpt lat="40.0711881" lon="-105.2295274">
  <ele>1583.11</ele>
  <time>2026-08-28T17:56:36Z</time>
  <course>72.99</course>
  <speed>0.9712363255150623</speed>
  <fix>3d</fix>
</trkpt>
<trkpt lat="40.0711877" lon="-105.2295301">
  <ele>1583.0</ele>
  <time>2026-08-28T17:56:36Z</time>
  <course>72.31</course>
  <speed>0.99</speed>
  <fix>3d</fix>
</trkpt>
<trkpt lat="40.0711884" lon="-105.2295263">
  <ele>1583.11</ele>
  <time>2026-08-28T17:56:36Z</time>
  <course>72.99</course>
  <speed>0.9712363255150623</speed>
  <fix>3d</fix>
</trkpt>
<trkpt lat="40.0711883" lon="-105.2295278">
  <ele>1583.0</ele>
  <time>2026-08-28T17:56:36Z</time>
  <course>72.29</course>
  <speed>0.99</speed>
  <fix>3d</fix>
</trkpt>
<trkpt lat="40.0711887" lon="-105.2295252">
  <ele>1583.11</ele>
  <time>2026-08-28T17:56:36Z</time>
  <course>72.99</course>
  <speed>0.9712363255150623</speed>
  <fix>3d</fix>
</trkpt>
<trkpt lat="40.0711883" lon="-105.2295278">
  <ele>1583.0</ele>
  <time>2026-08-28T17:56:36Z</time>
  <course>72.29</course>
  <speed>0.99</speed>
  <fix>3d</fix>
</trkpt>
<trkpt lat="40.071189" lon="-105.229524">
  <ele>1583.11</ele>
  <time>2026-08-28T17:56:36Z</time>
  <course>72.99</course>
  <speed>0.9712363255150623</speed>
  <fix>3d</fix>
</trkpt>
<trkpt lat="40.0711888" lon="-105.2295255">
  <ele>1583.0</ele>
  <time>2026-08-28T17:56:36Z</time>
  <course>72.26</course>
  <speed>0.99</speed>
  <fix>3d</fix>
</trkpt>
<trkpt lat="40.0711892" lon="-105.2295229">
  <ele>1583.11</ele>
  <time>2026-08-28T17:56:36Z</time>
  <course>72.99</course>
  <speed>0.9712363255150623</speed>
  <fix>3d</fix>
</trkpt>
<trkpt lat="40.0711888" lon="-105.2295255">
  <ele>1583.0</ele>
  <time>2026-08-28T17:56:36Z</time>
  <course>72.26</course>
  <speed>0.99</speed>
  <fix>3d</fix>
</trkpt>
<trkpt lat="40.0711895" lon="-105.2295218">
  <ele>1583.11</ele>
  <time>2026-08-28T17:56:36Z</time>
  <course>72.99</course>
  <speed>0.9712363255150623</speed>
  <fix>3d</fix>
</trkpt>
<trkpt lat="40.0711893" lon="-105.2295234">
  <ele>1583.0</ele>
  <time>2026-08-28T17:56:36Z</time>
  <course>72.24</course>
  <speed>0.99</speed>
  <fix>3d</fix>
</trkpt>
<trkpt lat="40.0711898" lon="-105.2295207">
  <ele>1583.11</ele>
  <time>2026-08-28T17:56:36Z</time>
  <course>72.99</course>
  <speed>0.9712363255150623</speed>
  <fix>3d</fix>
</trkpt>
<trkpt lat="40.0711893" lon="-105.2295234">
  <ele>1583.0</ele>
  <time>2026-08-28T17:56:36Z</time>
  <course>72.24</course>
  <speed>0.99</speed>
  <fix>3d</fix>
</trkpt>
<trkpt lat="40.0711901" lon="-105.2295196">
  <ele>1583.11</ele>
  <time>2026-08-28T17:56:36Z</time>
  <course>72.99</course>
  <speed>0.9712363255150623</speed>
  <fix>3d</fix>
</trkpt>
<trkpt lat="40.0711899" lon="-105.2295211">
  <ele>1583.0</ele>
  <time>2026-08-28T17:56:36Z</time>
  <course>72.22</course>
  <speed>0.99</speed>
  <fix>3d</fix>
</trkpt>
<trkpt lat="40.0711903" lon="-105.2295185">
  <ele>1583.1</ele>
  <time>2026-08-28T17:56:36Z</time>
  <course>72.99</course>
  <speed>0.9712363255150623</speed>
  <fix>3d</fix>
</trkpt>
<trkpt lat="40.0711899" lon="-105.2295211">
  <ele>1583.0</ele>
  <time>2026-08-28T17:56:36Z</time>
  <course>72.22</course>
  <speed>0.99</speed>
  <fix>3d</fix>
</trkpt>
<trkpt lat="40.0711906" lon="-105.2295174">
  <ele>1583.1</ele>
  <time>2026-08-28T17:56:36Z</time>
  <course>72.99</course>
  <speed>0.9712363255150623</speed>
  <fix>3d</fix>
</trkpt>
<trkpt lat="40.0711905" lon="-105.2295188">
  <ele>1583.0</ele>
  <time>2026-08-28T17:56:36Z</time>
  <course>72.2</course>
  <speed>0.99</speed>
  <fix>3d</fix>
</trkpt>
<trkpt lat="40.0711908" lon="-105.2295165">
  <ele>1583.1</ele>
  <time>2026-08-28T17:56:36Z</time>
  <course>72.99</course>
  <speed>0.9712363255150623</speed>
  <fix>3d</fix>
</trkpt>
<trkpt lat="40.0711905" lon="-105.2295188">
  <ele>1583.0</ele>
  <time>2026-08-28T17:56:36Z</time>
  <course>72.2</course>
  <speed>0.99</speed>
  <fix>3d</fix>
</trkpt>
<trkpt lat="40.0711911" lon="-105.2295154">
  <ele>1583.11</ele>
  <time>2026-08-28T17:56:36Z</time>
  <course>72.99</course>
  <speed>0.9712363255150623</speed>
  <fix>3d</fix>
</trkpt>
<trkpt lat="40.071191" lon="-105.2295166">
  <ele>1583.0</ele>
  <time>2026-08-28T17:56:36Z</time>
  <course>72.18</course>
  <speed>0.99</speed>
  <fix>3d</fix>
</trkpt>
<trkpt lat="40.0711914" lon="-105.2295143">
  <ele>1583.11</ele>
  <time>2026-08-28T17:56:36Z</time>
  <course>72.99</course>
  <speed>0.9712363255150623</speed>
  <fix>3d</fix>
</trkpt>
<trkpt lat="40.071191" lon="-105.2295166">
  <ele>1583.0</ele>
  <time>2026-08-28T17:56:36Z</time>
  <course>72.18</course>
  <speed>0.99</speed>
  <fix>3d</fix>
</trkpt>
<trkpt lat="40.0711917" lon="-105.2295131">
  <ele>1583.11</ele>
  <time>2026-08-28T17:56:36Z</time>
  <course>72.99</course>
  <speed>0.9712363255150623</speed>
  <fix>3d</fix>
</trkpt>
<trkpt lat="40.0711915" lon="-105.2295144">
  <ele>1583.0</ele>
  <time>2026-08-28T17:56:36Z</time>
  <course>72.16</course>
  <speed>0.99</speed>
  <fix>3d</fix>
</trkpt>
<trkpt lat="40.0711919" lon="-105.229512">
  <ele>1583.11</ele>
  <time>2026-08-28T17:56:36Z</time>
  <course>72.99</course>
  <speed>0.9712363255150623</speed>
  <fix>3d</fix>
</trkpt>
<trkpt lat="40.0711915" lon="-105.2295144">
  <ele>1583.0</ele>
  <time>2026-08-28T17:56:36Z</time>
  <course>72.16</course>
  <speed>0.99</speed>
  <fix>3d</fix>
</trkpt>
<trkpt lat="40.0711922" lon="-105.2295109">
  <ele>1583.11</ele>
  <time>2026-08-28T17:56:36Z</time>
  <course>72.99</course>
  <speed>0.9712363255150623</speed>
  <fix>3d</fix>
</trkpt>
<trkpt lat="40.0711921" lon="-105.2295121">
  <ele>1583.0</ele>
  <time>2026-08-28T17:56:36Z</time>
  <course>72.15</course>
  <speed>0.99</speed>
  <fix>3d</fix>
</trkpt>
<trkpt lat="40.0711925" lon="-105.2295098">
  <ele>1583.11</ele>
  <time>2026-08-28T17:56:36Z</time>
  <course>72.99</course>
  <speed>0.9712363255150623</speed>
  <fix>3d</fix>
</trkpt>
<trkpt lat="40.0711921" lon="-105.2295121">
  <ele>1583.0</ele>
  <time>2026-08-28T17:56:36Z</time>
  <course>72.15</course>
  <speed>0.99</speed>
  <fix>3d</fix>
</trkpt>
<trkpt lat="40.0711928" lon="-105.2295086">
  <ele>1583.11</ele>
  <time>2026-08-28T17:56:36Z</time>
  <course>72.99</course>
  <speed>0.9712363255150623</speed>
  <fix>3d</fix>
</trkpt>
<trkpt lat="40.0711927" lon="-105.2295099">
  <ele>1583.0</ele>
  <time>2026-08-28T17:56:36Z</time>
  <course>72.13</course>
  <speed>0.99</speed>
  <fix>3d</fix>
</trkpt>
<trkpt lat="40.071193" lon="-105.2295075">
  <ele>1583.11</ele>
  <time>2026-08-28T17:56:36Z</time>
  <course>72.99</course>
  <speed>0.9712363255150623</speed>
  <fix>3d</fix>
</trkpt>
<trkpt lat="40.0711927" lon="-105.2295099">
  <ele>1583.0</ele>
  <time>2026-08-28T17:56:36Z</time>
  <course>72.13</course>
  <speed>0.99</speed>
  <fix>3d</fix>
</trkpt>
<trkpt lat="40.0711933" lon="-105.2295064">
  <ele>1583.12</ele>
  <time>2026-08-28T17:56:36Z</time>
  <course>72.99</course>
  <speed>0.9712363255150623</speed>
  <fix>3d</fix>
</trkpt>
<trkpt lat="40.0711932" lon="-105.2295077">
  <ele>1583.0</ele>
  <time>2026-08-28T17:56:36Z</time>
  <course>72.12</course>
  <speed>0.99</speed>
  <fix>3d</fix>
</trkpt>
<trkpt lat="40.0711937" lon="-105.229505">
  <ele>1583.12</ele>
  <time>2026-08-28T17:56:36Z</time>
  <course>72.99</course>
  <speed>0.9712363255150623</speed>
  <fix>3d</fix>
</trkpt>
<trkpt lat="40.0711932" lon="-105.2295077">
  <ele>1583.0</ele>
  <time>2026-08-28T17:56:36Z</time>
  <course>72.12</course>
  <speed>0.99</speed>
  <fix>3d</fix>
</trkpt>
<trkpt lat="40.0711939" lon="-105.2295039">
  <ele>1583.12</ele>
  <time>2026-08-28T17:56:36Z</time>
  <course>72.99</course>
  <speed>0.9712363255150623</speed>
  <fix>3d</fix>
</trkpt>
<trkpt lat="40.0711938" lon="-105.2295054">
  <ele>1583.0</ele>
  <time>2026-08-28T17:56:36Z</time>
  <course>72.11</course>
  <speed>0.99</speed>
  <fix>3d</fix>
</trkpt>
<trkpt lat="40.0711942" lon="-105.2295028">
  <ele>1583.12</ele>
  <time>2026-08-28T17:56:36Z</time>
  <course>72.99</course>
  <speed>0.9712363255150623</speed>
  <fix>3d</fix>
</trkpt>
<trkpt lat="40.0711938" lon="-105.2295054">
  <ele>1583.0</ele>
  <time>2026-08-28T17:56:36Z</time>
  <course>72.11</course>
  <speed>0.99</speed>
  <fix>3d</fix>
</trkpt>
<trkpt lat="40.0711945" lon="-105.2295017">
  <ele>1583.12</ele>
  <time>2026-08-28T17:56:36Z</time>
  <course>72.99</course>
  <speed>0.9712363255150623</speed>
  <fix>3d</fix>
</trkpt>
<trkpt lat="40.0711943" lon="-105.2295032">
  <ele>1583.0</ele>
  <time>2026-08-28T17:56:36Z</time>
  <course>72.1</course>
  <speed>0.99</speed>
  <fix>3d</fix>
</trkpt>
<trkpt lat="40.0711948" lon="-105.2295005">
  <ele>1583.12</ele>
  <time>2026-08-28T17:56:36Z</time>
  <course>72.99</course>
  <speed>0.9712363255150623</speed>
  <fix>3d</fix>
</trkpt>
<trkpt lat="40.0711943" lon="-105.2295032">
  <ele>1583.0</ele>
  <time>2026-08-28T17:56:36Z</time>
  <course>72.1</course>
  <speed>0.99</speed>
  <fix>3d</fix>
</trkpt>
<trkpt lat="40.0711951" lon="-105.2294994">
  <ele>1583.12</ele>
  <time>2026-08-28T17:56:36Z</time>
  <course>73.0</course>
  <speed>0.9712363255150623</speed>
  <fix>3d</fix>
</trkpt>
<trkpt lat="40.0711948" lon="-105.229501">
  <ele>1583.0</ele>
  <time>2026-08-28T17:56:36Z</time>
  <course>72.09</course>
  <speed>0.99</speed>
  <fix>3d</fix>
</trkpt>
<trkpt lat="40.0711953" lon="-105.2294983">
  <ele>1583.12</ele>
  <time>2026-08-28T17:56:36Z</time>
  <course>73.0</course>
  <speed>0.9712363255150623</speed>
  <fix>3d</fix>
</trkpt>
<trkpt lat="40.0711948" lon="-105.229501">
  <ele>1583.0</ele>
  <time>2026-08-28T17:56:36Z</time>
  <course>72.09</course>
  <speed>0.99</speed>
  <fix>3d</fix>
</trkpt>
<trkpt lat="40.0711956" lon="-105.2294972">
  <ele>1583.12</ele>
  <time>2026-08-28T17:56:36Z</time>
  <course>73.0</course>
  <speed>0.9712363255150623</speed>
  <fix>3d</fix>
</trkpt>
<trkpt lat="40.0711954" lon="-105.2294987">
  <ele>1583.0</ele>
  <time>2026-08-28T17:56:36Z</time>
  <course>72.09</course>
  <speed>0.99</speed>
  <fix>3d</fix>
</trkpt>
<trkpt lat="40.0711959" lon="-105.2294961">
  <ele>1583.12</ele>
  <time>2026-08-28T17:56:36Z</time>
  <course>73.0</course>
  <speed>0.9712363255150623</speed>
  <fix>3d</fix>
</trkpt>
<trkpt lat="40.0711954" lon="-105.2294987">
  <ele>1583.0</ele>
  <time>2026-08-28T17:56:36Z</time>
  <course>72.09</course>
  <speed>0.99</speed>
  <fix>3d</fix>
</trkpt>
<trkpt lat="40.0711961" lon="-105.229495">
  <ele>1583.12</ele>
  <time>2026-08-28T17:56:36Z</time>
  <course>73.0</course>
  <speed>0.9712363255150623</speed>
  <fix>3d</fix>
</trkpt>
<trkpt lat="40.071196" lon="-105.2294965">
  <ele>1583.0</ele>
  <time>2026-08-28T17:56:36Z</time>
  <course>72.08</course>
  <speed>0.99</speed>
  <fix>3d</fix>
</trkpt>
<trkpt lat="40.0711964" lon="-105.2294939">
  <ele>1583.13</ele>
  <time>2026-08-28T17:56:36Z</time>
  <course>73.0</course>
  <speed>0.9712363255150623</speed>
  <fix>3d</fix>
</trkpt>
<trkpt lat="40.071196" lon="-105.2294965">
  <ele>1583.0</ele>
  <time>2026-08-28T17:56:36Z</time>
  <course>72.08</course>
  <speed>0.99</speed>
  <fix>3d</fix>
</trkpt>
<trkpt lat="40.0711966" lon="-105.229493">
  <ele>1583.13</ele>
  <time>2026-08-28T17:56:36Z</time>
  <course>73.0</course>
  <speed>0.9712363255150623</speed>
  <fix>3d</fix>
</trkpt>
<trkpt lat="40.0711965" lon="-105.2294943">
  <ele>1583.0</ele>
  <time>2026-08-28T17:56:36Z</time>
  <course>72.08</course>
  <speed>0.99</speed>
  <fix>3d</fix>
</trkpt>
<trkpt lat="40.0711969" lon="-105.2294919">
  <ele>1583.13</ele>
  <time>2026-08-28T17:56:36Z</time>
  <course>73.0</course>
  <speed>0.9712363255150623</speed>
  <fix>3d</fix>
</trkpt>
<trkpt lat="40.0711965" lon="-105.2294943">
  <ele>1583.0</ele>
  <time>2026-08-28T17:56:36Z</time>
  <course>72.08</course>
  <speed>0.99</speed>
  <fix>3d</fix>
</trkpt>
<trkpt lat="40.0711972" lon="-105.2294908">
  <ele>1583.14</ele>
  <time>2026-08-28T17:56:36Z</time>
  <course>73.0</course>
  <speed>0.9712363255150623</speed>
  <fix>3d</fix>
</trkpt>
<trkpt lat="40.071197" lon="-105.229492">
  <ele>1583.0</ele>
  <time>2026-08-28T17:56:36Z</time>
  <course>72.07</course>
  <speed>0.99</speed>
  <fix>3d</fix>
</trkpt>
<trkpt lat="40.0711975" lon="-105.2294896">
  <ele>1583.14</ele>
  <time>2026-08-28T17:56:36Z</time>
  <course>73.0</course>
  <speed>0.9712363255150623</speed>
  <fix>3d</fix>
</trkpt>
<trkpt lat="40.071197" lon="-105.229492">
  <ele>1583.0</ele>
  <time>2026-08-28T17:56:36Z</time>
  <course>72.07</course>
  <speed>0.99</speed>
  <fix>3d</fix>
</trkpt>
<trkpt lat="40.0711977" lon="-105.2294885">
  <ele>1583.14</ele>
  <time>2026-08-28T17:56:36Z</time>
  <course>73.0</course>
  <speed>0.9712363255150623</speed>
  <fix>3d</fix>
</trkpt>
<trkpt lat="40.0711976" lon="-105.2294899">
  <ele>1583.0</ele>
  <time>2026-08-28T17:56:36Z</time>
  <course>72.06</course>
  <speed>0.99</speed>
  <fix>3d</fix>
</trkpt>
<trkpt lat="40.071198" lon="-105.2294874">
  <ele>1583.14</ele>
  <time>2026-08-28T17:56:36Z</time>
  <course>73.0</course>
  <speed>0.9712363255150623</speed>
  <fix>3d</fix>
</trkpt>
<trkpt lat="40.0711976" lon="-105.2294899">
  <ele>1583.0</ele>
  <time>2026-08-28T17:56:36Z</time>
  <course>72.06</course>
  <speed>0.99</speed>
  <fix>3d</fix>
</trkpt>
<trkpt lat="40.0711983" lon="-105.2294863">
  <ele>1583.14</ele>
  <time>2026-08-28T17:56:36Z</time>
  <course>73.0</course>
  <speed>0.9712363255150623</speed>
  <fix>3d</fix>
</trkpt>
<trkpt lat="40.0711982" lon="-105.2294876">
  <ele>1583.0</ele>
  <time>2026-08-28T17:56:36Z</time>
  <course>72.06</course>
  <speed>0.99</speed>
  <fix>3d</fix>
</trkpt>
<trkpt lat="40.0711986" lon="-105.2294852">
  <ele>1583.14</ele>
  <time>2026-08-28T17:56:36Z</time>
  <course>73.0</course>
  <speed>0.9712363255150623</speed>
  <fix>3d</fix>
</trkpt>
<trkpt lat="40.0711982" lon="-105.2294876">
  <ele>1583.0</ele>
  <time>2026-08-28T17:56:36Z</time>
  <course>72.06</course>
  <speed>0.99</speed>
  <fix>3d</fix>
</trkpt>
<trkpt lat="40.0711988" lon="-105.229484">
  <ele>1583.14</ele>
  <time>2026-08-28T17:56:36Z</time>
  <course>73.0</course>
  <speed>0.9712363255150623</speed>
  <fix>3d</fix>
</trkpt>
<trkpt lat="40.0711987" lon="-105.2294853">
  <ele>1583.0</ele>
  <time>2026-08-28T17:56:36Z</time>
  <course>72.05</course>
  <speed>0.99</speed>
  <fix>3d</fix>
</trkpt>
<trkpt lat="40.0711991" lon="-105.2294829">
  <ele>1583.14</ele>
  <time>2026-08-28T17:56:36Z</time>
  <course>73.02</course>
  <speed>0.9712363255150623</speed>
  <fix>3d</fix>
</trkpt>
<trkpt lat="40.0711987" lon="-105.2294853">
  <ele>1583.0</ele>
  <time>2026-08-28T17:56:36Z</time>
  <course>72.05</course>
  <speed>0.99</speed>
  <fix>3d</fix>
</trkpt>
<trkpt lat="40.0711995" lon="-105.2294816">
  <ele>1583.14</ele>
  <time>2026-08-28T17:56:36Z</time>
  <course>73.02</course>
  <speed>0.9712363255150623</speed>
  <fix>3d</fix>
</trkpt>
<trkpt lat="40.0711993" lon="-105.2294832">
  <ele>1583.0</ele>
  <time>2026-08-28T17:56:36Z</time>
  <course>72.05</course>
  <speed>0.99</speed>
  <fix>3d</fix>
</trkpt>
<trkpt lat="40.0711997" lon="-105.2294805">
  <ele>1583.14</ele>
  <time>2026-08-28T17:56:36Z</time>
  <course>73.02</course>
  <speed>0.9712363255150623</speed>
  <fix>3d</fix>
</trkpt>
<trkpt lat="40.0711993" lon="-105.2294832">
  <ele>1583.0</ele>
  <time>2026-08-28T17:56:36Z</time>
  <course>72.05</course>
  <speed>0.99</speed>
  <fix>3d</fix>
</trkpt>
<trkpt lat="40.0712" lon="-105.2294794">
  <ele>1583.14</ele>
  <time>2026-08-28T17:56:36Z</time>
  <course>73.04</course>
  <speed>0.9712363255150623</speed>
  <fix>3d</fix>
</trkpt>
<trkpt lat="40.0711998" lon="-105.2294809">
  <ele>1583.0</ele>
  <time>2026-08-28T17:56:36Z</time>
  <course>72.04</course>
  <speed>0.99</speed>
  <fix>3d</fix>
</trkpt>
<trkpt lat="40.0712003" lon="-105.2294782">
  <ele>1583.14</ele>
  <time>2026-08-28T17:56:36Z</time>
  <course>73.04</course>
  <speed>0.9712363255150623</speed>
  <fix>3d</fix>
</trkpt>
<trkpt lat="40.0711998" lon="-105.2294809">
  <ele>1583.0</ele>
  <time>2026-08-28T17:56:36Z</time>
  <course>72.04</course>
  <speed>0.99</speed>
  <fix>3d</fix>
</trkpt>
<trkpt lat="40.0712006" lon="-105.2294771">
  <ele>1583.14</ele>
  <time>2026-08-28T17:56:37Z</time>
  <course>73.05</course>
  <speed>0.9712363255150623</speed>
  <fix>3d</fix>
</trkpt>
<trkpt lat="40.0712003" lon="-105.2294786">
  <ele>1583.0</ele>
  <time>2026-08-28T17:56:37Z</time>
  <course>72.05</course>
  <speed>0.99</speed>
  <fix>3d</fix>
</trkpt>
<trkpt lat="40.0712008" lon="-105.229476">
  <ele>1583.14</ele>
  <time>2026-08-28T17:56:37Z</time>
  <course>73.06</course>
  <speed>0.9712363255150623</speed>
  <fix>3d</fix>
</trkpt>
<trkpt lat="40.0712003" lon="-105.2294786">
  <ele>1583.0</ele>
  <time>2026-08-28T17:56:37Z</time>
  <course>72.05</course>
  <speed>0.99</speed>
  <fix>3d</fix>
</trkpt>
<trkpt lat="40.0712011" lon="-105.2294749">
  <ele>1583.14</ele>
  <time>2026-08-28T17:56:37Z</time>
  <course>73.08</course>
  <speed>0.9712363255150623</speed>
  <fix>3d</fix>
</trkpt>
<trkpt lat="40.0712009" lon="-105.2294765">
  <ele>1583.0</ele>
  <time>2026-08-28T17:56:37Z</time>
  <course>72.05</course>
  <speed>0.99</speed>
  <fix>3d</fix>
</trkpt>
<trkpt lat="40.0712014" lon="-105.2294738">
  <ele>1583.14</ele>
  <time>2026-08-28T17:56:37Z</time>
  <course>73.08</course>
  <speed>0.9712363255150623</speed>
  <fix>3d</fix>
</trkpt>
<trkpt lat="40.0712009" lon="-105.2294765">
  <ele>1583.0</ele>
  <time>2026-08-28T17:56:37Z</time>
  <course>72.05</course>
  <speed>0.99</speed>
  <fix>3d</fix>
</trkpt>
<trkpt lat="40.0712016" lon="-105.2294727">
  <ele>1583.14</ele>
  <time>2026-08-28T17:56:37Z</time>
  <course>73.08</course>
  <speed>0.9712363255150623</speed>
  <fix>3d</fix>
</trkpt>
<trkpt lat="40.0712015" lon="-105.2294742">
  <ele>1583.0</ele>
  <time>2026-08-28T17:56:37Z</time>
  <course>72.05</course>
  <speed>0.99</speed>
  <fix>3d</fix>
</trkpt>
<trkpt lat="40.0712019" lon="-105.2294716">
  <ele>1583.15</ele>
  <time>2026-08-28T17:56:37Z</time>
  <course>73.08</course>
  <speed>0.9712363255150623</speed>
  <fix>3d</fix>
</trkpt>
<trkpt lat="40.0712015" lon="-105.2294742">
  <ele>1583.0</ele>
  <time>2026-08-28T17:56:37Z</time>
  <course>72.05</course>
  <speed>0.99</speed>
  <fix>3d</fix>
</trkpt>
<trkpt lat="40.0712022" lon="-105.2294705">
  <ele>1583.15</ele>
  <time>2026-08-28T17:56:37Z</time>
  <course>73.08</course>
  <speed>0.9712363255150623</speed>
  <fix>3d</fix>
</trkpt>
<trkpt lat="40.071202" lon="-105.2294719">
  <ele>1583.0</ele>
  <time>2026-08-28T17:56:37Z</time>
  <course>72.05</course>
  <speed>0.99</speed>
  <fix>3d</fix>
</trkpt>
<trkpt lat="40.0712024" lon="-105.2294696">
  <ele>1583.14</ele>
  <time>2026-08-28T17:56:37Z</time>
  <course>73.08</course>
  <speed>0.9712363255150623</speed>
  <fix>3d</fix>
</trkpt>
<trkpt lat="40.071202" lon="-105.2294719">
  <ele>1583.0</ele>
  <time>2026-08-28T17:56:37Z</time>
  <course>72.05</course>
  <speed>0.99</speed>
  <fix>3d</fix>
</trkpt>
<trkpt lat="40.0712027" lon="-105.2294685">
  <ele>1583.15</ele>
  <time>2026-08-28T17:56:37Z</time>
  <course>73.08</course>
  <speed>0.9712363255150623</speed>
  <fix>3d</fix>
</trkpt>
<trkpt lat="40.0712026" lon="-105.2294698">
  <ele>1583.0</ele>
  <time>2026-08-28T17:56:37Z</time>
  <course>72.05</course>
  <speed>0.99</speed>
  <fix>3d</fix>
</trkpt>
<trkpt lat="40.071203" lon="-105.2294674">
  <ele>1583.15</ele>
  <time>2026-08-28T17:56:37Z</time>
  <course>73.09</course>
  <speed>0.9712363255150623</speed>
  <fix>3d</fix>
</trkpt>
<trkpt lat="40.0712026" lon="-105.2294698">
  <ele>1583.0</ele>
  <time>2026-08-28T17:56:37Z</time>
  <course>72.05</course>
  <speed>0.99</speed>
  <fix>3d</fix>
</trkpt>
<trkpt lat="40.0712032" lon="-105.2294663">
  <ele>1583.15</ele>
  <time>2026-08-28T17:56:37Z</time>
  <course>73.1</course>
  <speed>0.9712363255150623</speed>
  <fix>3d</fix>
</trkpt>
<trkpt lat="40.0712032" lon="-105.2294675">
  <ele>1583.0</ele>
  <time>2026-08-28T17:56:37Z</time>
  <course>72.05</course>
  <speed>0.99</speed>
  <fix>3d</fix>
</trkpt>
<trkpt lat="40.0712035" lon="-105.2294651">
  <ele>1583.15</ele>
  <time>2026-08-28T17:56:37Z</time>
  <course>73.11</course>
  <speed>0.9712363255150623</speed>
  <fix>3d</fix>
</trkpt>
<trkpt lat="40.0712032" lon="-105.2294675">
  <ele>1583.0</ele>
  <time>2026-08-28T17:56:37Z</time>
  <course>72.05</course>
  <speed>0.99</speed>
  <fix>3d</fix>
</trkpt>
<trkpt lat="40.0712038" lon="-105.229464">
  <ele>1583.15</ele>
  <time>2026-08-28T17:56:37Z</time>
  <course>73.13</course>
  <speed>0.9712363255150623</speed>
  <fix>3d</fix>
</trkpt>
<trkpt lat="40.0712037" lon="-105.2294652">
  <ele>1583.0</ele>
  <time>2026-08-28T17:56:37Z</time>
  <course>72.06</course>
  <speed>0.99</speed>
  <fix>3d</fix>
</trkpt>
<trkpt lat="40.0712041" lon="-105.2294629">
  <ele>1583.14</ele>
  <time>2026-08-28T17:56:37Z</time>
  <course>73.14</course>
  <speed>0.9712363255150623</speed>
  <fix>3d</fix>
</trkpt>
<trkpt lat="40.0712037" lon="-105.2294652">
  <ele>1583.0</ele>
  <time>2026-08-28T17:56:37Z</time>
  <course>72.06</course>
  <speed>0.99</speed>
  <fix>3d</fix>
</trkpt>
<trkpt lat="40.0712044" lon="-105.2294618">
  <ele>1583.14</ele>
  <time>2026-08-28T17:56:37Z</time>
  <course>73.14</course>
  <speed>0.9712363255150623</speed>
  <fix>3d</fix>
</trkpt>
<trkpt lat="40.0712043" lon="-105.2294631">
  <ele>1583.0</ele>
  <time>2026-08-28T17:56:37Z</time>
  <course>72.06</course>
  <speed>0.99</speed>
  <fix>3d</fix>
</trkpt>
<trkpt lat="40.0712046" lon="-105.2294606">
  <ele>1583.14</ele>
  <time>2026-08-28T17:56:37Z</time>
  <course>73.14</course>
  <speed>0.9712363255150623</speed>
  <fix>3d</fix>
</trkpt>
<trkpt lat="40.0712043" lon="-105.2294631">
  <ele>1583.0</ele>
  <time>2026-08-28T17:56:37Z</time>
  <course>72.06</course>
  <speed>0.99</speed>
  <fix>3d</fix>
</trkpt>
<trkpt lat="40.0712049" lon="-105.2294595">
  <ele>1583.14</ele>
  <time>2026-08-28T17:56:37Z</time>
  <course>73.14</course>
  <speed>0.9712363255150623</speed>
  <fix>3d</fix>
</trkpt>
<trkpt lat="40.0712048" lon="-105.2294608">
  <ele>1583.0</ele>
  <time>2026-08-28T17:56:37Z</time>
  <course>72.07</course>
  <speed>0.99</speed>
  <fix>3d</fix>
</trkpt>
<trkpt lat="40.0712053" lon="-105.2294582">
  <ele>1583.14</ele>
  <time>2026-08-28T17:56:37Z</time>
  <course>73.14</course>
  <speed>0.9712363255150623</speed>
  <fix>3d</fix>
</trkpt>
<trkpt lat="40.0712048" lon="-105.2294608">
  <ele>1583.0</ele>
  <time>2026-08-28T17:56:37Z</time>
  <course>72.07</course>
  <speed>0.99</speed>
  <fix>3d</fix>
</trkpt>
<trkpt lat="40.0712055" lon="-105.2294571">
  <ele>1583.14</ele>
  <time>2026-08-28T17:56:37Z</time>
  <course>73.14</course>
  <speed>0.9712363255150623</speed>
  <fix>3d</fix>
</trkpt>
<trkpt lat="40.0712053" lon="-105.2294585">
  <ele>1583.0</ele>
  <time>2026-08-28T17:56:37Z</time>
  <course>72.07</course>
  <speed>0.99</speed>
  <fix>3d</fix>
</trkpt>
<trkpt lat="40.0712058" lon="-105.2294559">
  <ele>1583.14</ele>
  <time>2026-08-28T17:56:37Z</time>
  <course>73.14</course>
  <speed>0.9712363255150623</speed>
  <fix>3d</fix>
</trkpt>
<trkpt lat="40.0712053" lon="-105.2294585">
  <ele>1583.0</ele>
  <time>2026-08-28T17:56:37Z</time>
  <course>72.07</course>
  <speed>0.99</speed>
  <fix>3d</fix>
</trkpt>
<trkpt lat="40.0712061" lon="-105.2294548">
  <ele>1583.14</ele>
  <time>2026-08-28T17:56:37Z</time>
  <course>73.14</course>
  <speed>0.9712363255150623</speed>
  <fix>3d</fix>
</trkpt>
<trkpt lat="40.0712059" lon="-105.2294564">
  <ele>1583.0</ele>
  <time>2026-08-28T17:56:37Z</time>
  <course>72.07</course>
  <speed>0.99</speed>
  <fix>3d</fix>
</trkpt>
<trkpt lat="40.0712064" lon="-105.2294537">
  <ele>1583.13</ele>
  <time>2026-08-28T17:56:37Z</time>
  <course>73.14</course>
  <speed>0.9712363255150623</speed>
  <fix>3d</fix>
</trkpt>
<trkpt lat="40.0712059" lon="-105.2294564">
  <ele>1583.0</ele>
  <time>2026-08-28T17:56:37Z</time>
  <course>72.07</course>
  <speed>0.99</speed>
  <fix>3d</fix>
</trkpt>
<trkpt lat="40.0712066" lon="-105.2294526">
  <ele>1583.13</ele>
  <time>2026-08-28T17:56:37Z</time>
  <course>73.14</course>
  <speed>0.9712363255150623</speed>
  <fix>3d</fix>
</trkpt>
<trkpt lat="40.0712065" lon="-105.2294541">
  <ele>1583.0</ele>
  <time>2026-08-28T17:56:37Z</time>
  <course>72.08</course>
  <speed>0.99</speed>
  <fix>3d</fix>
</trkpt>
<trkpt lat="40.0712069" lon="-105.2294515">
  <ele>1583.13</ele>
  <time>2026-08-28T17:56:37Z</time>
  <course>73.14</course>
  <speed>0.9712363255150623</speed>
  <fix>3d</fix>
</trkpt>
<trkpt lat="40.0712065" lon="-105.2294541">
  <ele>1583.0</ele>
  <time>2026-08-28T17:56:37Z</time>
  <course>72.08</course>
  <speed>0.99</speed>
  <fix>3d</fix>
</trkpt>
<trkpt lat="40.0712072" lon="-105.2294503">
  <ele>1583.13</ele>
  <time>2026-08-28T17:56:37Z</time>
  <course>73.14</course>
  <speed>0.9712363255150623</speed>
  <fix>3d</fix>
</trkpt>
<trkpt lat="40.071207" lon="-105.2294518">
  <ele>1583.0</ele>
  <time>2026-08-28T17:56:37Z</time>
  <course>72.08</course>
  <speed>0.99</speed>
  <fix>3d</fix>
</trkpt>
<trkpt lat="40.0712075" lon="-105.2294492">
  <ele>1583.13</ele>
  <time>2026-08-28T17:56:37Z</time>
  <course>73.14</course>
  <speed>0.9712363255150623</speed>
  <fix>3d</fix>
</trkpt>
<trkpt lat="40.071207" lon="-105.2294518">
  <ele>1583.0</ele>
  <time>2026-08-28T17:56:37Z</time>
  <course>72.08</course>
  <speed>0.99</speed>
  <fix>3d</fix>
</trkpt>
<trkpt lat="40.0712077" lon="-105.2294481">
  <ele>1583.13</ele>
  <time>2026-08-28T17:56:37Z</time>
  <course>73.14</course>
  <speed>0.9712363255150623</speed>
  <fix>3d</fix>
</trkpt>
<trkpt lat="40.0712075" lon="-105.2294497">
  <ele>1583.0</ele>
  <time>2026-08-28T17:56:37Z</time>
  <course>72.08</course>
  <speed>0.99</speed>
  <fix>3d</fix>
</trkpt>
<trkpt lat="40.071208" lon="-105.229447">
  <ele>1583.13</ele>
  <time>2026-08-28T17:56:37Z</time>
  <course>73.14</course>
  <speed>0.9712363255150623</speed>
  <fix>3d</fix>
</trkpt>
<trkpt lat="40.0712075" lon="-105.2294497">
  <ele>1583.0</ele>
  <time>2026-08-28T17:56:37Z</time>
  <course>72.08</course>
  <speed>0.99</speed>
  <fix>3d</fix>
</trkpt>
<trkpt lat="40.0712082" lon="-105.2294461">
  <ele>1583.13</ele>
  <time>2026-08-28T17:56:37Z</time>
  <course>73.14</course>
  <speed>0.9712363255150623</speed>
  <fix>3d</fix>
</trkpt>
<trkpt lat="40.0712081" lon="-105.2294474">
  <ele>1583.0</ele>
  <time>2026-08-28T17:56:37Z</time>
  <course>72.09</course>
  <speed>0.99</speed>
  <fix>3d</fix>
</trkpt>
<trkpt lat="40.0712085" lon="-105.229445">
  <ele>1583.13</ele>
  <time>2026-08-28T17:56:37Z</time>
  <course>73.15</course>
  <speed>0.9712363255150623</speed>
  <fix>3d</fix>
</trkpt>
<trkpt lat="40.0712081" lon="-105.2294474">
  <ele>1583.0</ele>
  <time>2026-08-28T17:56:37Z</time>
  <course>72.09</course>
  <speed>0.99</speed>
  <fix>3d</fix>
</trkpt>
<trkpt lat="40.0712088" lon="-105.2294439">
  <ele>1583.14</ele>
  <time>2026-08-28T17:56:37Z</time>
  <course>73.17</course>
  <speed>0.9712363255150623</speed>
  <fix>3d</fix>
</trkpt>
<trkpt lat="40.0712087" lon="-105.2294451">
  <ele>1583.0</ele>
  <time>2026-08-28T17:56:37Z</time>
  <course>72.09</course>
  <speed>0.99</speed>
  <fix>3d</fix>
</trkpt>
<trkpt lat="40.0712091" lon="-105.2294428">
  <ele>1583.14</ele>
  <time>2026-08-28T17:56:37Z</time>
  <course>73.17</course>
  <speed>0.9712363255150623</speed>
  <fix>3d</fix>
</trkpt>
<trkpt lat="40.0712087" lon="-105.2294451">
  <ele>1583.0</ele>
  <time>2026-08-28T17:56:37Z</time>
  <course>72.09</course>
  <speed>0.99</speed>
  <fix>3d</fix>
</trkpt>
<trkpt lat="40.0712093" lon="-105.2294417">
  <ele>1583.14</ele>
  <time>2026-08-28T17:56:37Z</time>
  <course>73.17</course>
  <speed>0.9712363255150623</speed>
  <fix>3d</fix>
</trkpt>
<trkpt lat="40.0712092" lon="-105.229443">
  <ele>1583.0</ele>
  <time>2026-08-28T17:56:37Z</time>
  <course>72.1</course>
  <speed>0.99</speed>
  <fix>3d</fix>
</trkpt>
<trkpt lat="40.0712096" lon="-105.2294405">
  <ele>1583.14</ele>
  <time>2026-08-28T17:56:37Z</time>
  <course>73.17</course>
  <speed>0.9712363255150623</speed>
  <fix>3d</fix>
</trkpt>
<trkpt lat="40.0712092" lon="-105.229443">
  <ele>1583.0</ele>
  <time>2026-08-28T17:56:37Z</time>
  <course>72.1</course>
  <speed>0.99</speed>
  <fix>3d</fix>
</trkpt>
<trkpt lat="40.0712099" lon="-105.2294394">
  <ele>1583.15</ele>
  <time>2026-08-28T17:56:37Z</time>
  <course>73.17</course>
  <speed>0.9712363255150623</speed>
  <fix>3d</fix>
</trkpt>
<trkpt lat="40.0712097" lon="-105.2294407">
  <ele>1583.0</ele>
  <time>2026-08-28T17:56:37Z</time>
  <course>72.1</course>
  <speed>0.99</speed>
  <fix>3d</fix>
</trkpt>
<trkpt lat="40.0712102" lon="-105.2294383">
  <ele>1583.15</ele>
  <time>2026-08-28T17:56:37Z</time>
  <course>73.17</course>
  <speed>0.9712363255150623</speed>
  <fix>3d</fix>
</trkpt>
<trkpt lat="40.0712097" lon="-105.2294407">
  <ele>1583.0</ele>
  <time>2026-08-28T17:56:37Z</time>
  <course>72.1</course>
  <speed>0.99</speed>
  <fix>3d</fix>
</trkpt>
<trkpt lat="40.0712104" lon="-105.2294372">
  <ele>1583.15</ele>
  <time>2026-08-28T17:56:37Z</time>
  <course>73.17</course>
  <speed>0.9712363255150623</speed>
  <fix>3d</fix>
</trkpt>
<trkpt lat="40.0712103" lon="-105.2294384">
  <ele>1583.0</ele>
  <time>2026-08-28T17:56:37Z</time>
  <course>72.11</course>
  <speed>0.99</speed>
  <fix>3d</fix>
</trkpt>
<trkpt lat="40.0712107" lon="-105.229436">
  <ele>1583.15</ele>
  <time>2026-08-28T17:56:37Z</time>
  <course>73.17</course>
  <speed>0.9712363255150623</speed>
  <fix>3d</fix>
</trkpt>
<trkpt lat="40.0712103" lon="-105.2294384">
  <ele>1583.0</ele>
  <time>2026-08-28T17:56:37Z</time>
  <course>72.11</course>
  <speed>0.99</speed>
  <fix>3d</fix>
</trkpt>
<trkpt lat="40.071211" lon="-105.2294347">
  <ele>1583.14</ele>
  <time>2026-08-28T17:56:37Z</time>
  <course>73.17</course>
  <speed>0.9712363255150623</speed>
  <fix>3d</fix>
</trkpt>
<trkpt lat="40.0712108" lon="-105.2294363">
  <ele>1583.0</ele>
  <time>2026-08-28T17:56:37Z</time>
  <course>72.11</course>
  <speed>0.99</speed>
  <fix>3d</fix>
</trkpt>
<trkpt lat="40.0712113" lon="-105.2294336">
  <ele>1583.14</ele>
  <time>2026-08-28T17:56:37Z</time>
  <course>73.17</course>
  <speed>0.9712363255150623</speed>
  <fix>3d</fix>
</trkpt>
<trkpt lat="40.0712108" lon="-105.2294363">
  <ele>1583.0</ele>
  <time>2026-08-28T17:56:37Z</time>
  <course>72.11</course>
  <speed>0.99</speed>
  <fix>3d</fix>
</trkpt>
<trkpt lat="40.0712116" lon="-105.2294325">
  <ele>1583.13</ele>
  <time>2026-08-28T17:56:37Z</time>
  <course>73.17</course>
  <speed>0.9712363255150623</speed>
  <fix>3d</fix>
</trkpt>
<trkpt lat="40.0712114" lon="-105.229434">
  <ele>1583.0</ele>
  <time>2026-08-28T17:56:37Z</time>
  <course>72.11</course>
  <speed>0.99</speed>
  <fix>3d</fix>
</trkpt>
<trkpt lat="40.0712119" lon="-105.2294313">
  <ele>1583.13</ele>
  <time>2026-08-28T17:56:37Z</time>
  <course>73.17</course>
  <speed>0.9712363255150623</speed>
  <fix>3d</fix>
</trkpt>
<trkpt lat="40.0712114" lon="-105.229434">
  <ele>1583.0</ele>
  <time>2026-08-28T17:56:37Z</time>
  <course>72.11</course>
  <speed>0.99</speed>
  <fix>3d</fix>
</trkpt>
<trkpt lat="40.0712121" lon="-105.2294302">
  <ele>1583.13</ele>
  <time>2026-08-28T17:56:37Z</time>
  <course>73.17</course>
  <speed>0.9712363255150623</speed>
  <fix>3d</fix>
</trkpt>
<trkpt lat="40.071212" lon="-105.2294317">
  <ele>1583.0</ele>
  <time>2026-08-28T17:56:37Z</time>
  <course>72.12</course>
  <speed>0.99</speed>
  <fix>3d</fix>
</trkpt>
<trkpt lat="40.0712124" lon="-105.2294291">
  <ele>1583.13</ele>
  <time>2026-08-28T17:56:37Z</time>
  <course>73.14</course>
  <speed>0.9712363255150623</speed>
  <fix>3d</fix>
</trkpt>
<trkpt lat="40.071212" lon="-105.2294317">
  <ele>1583.0</ele>
  <time>2026-08-28T17:56:37Z</time>
  <course>72.12</course>
  <speed>0.99</speed>
  <fix>3d</fix>
</trkpt>
<trkpt lat="40.0712127" lon="-105.229428">
  <ele>1583.13</ele>
  <time>2026-08-28T17:56:37Z</time>
  <course>72.58</course>
  <speed>0.9712363255150623</speed>
  <fix>3d</fix>
</trkpt>
<trkpt lat="40.0712125" lon="-105.2294296">
  <ele>1583.0</ele>
  <time>2026-08-28T17:56:37Z</time>
  <course>72.12</course>
  <speed>0.99</speed>
  <fix>3d</fix>
</trkpt>
<trkpt lat="40.071213" lon="-105.2294269">
  <ele>1583.13</ele>
  <time>2026-08-28T17:56:37Z</time>
  <course>71.22</course>
  <speed>0.9712363255150623</speed>
  <fix>3d</fix>
</trkpt>
<trkpt lat="40.0712125" lon="-105.2294296">
  <ele>1583.0</ele>
  <time>2026-08-28T17:56:37Z</time>
  <course>72.12</course>
  <speed>0.99</speed>
  <fix>3d</fix>
</trkpt>
<trkpt lat="40.0712132" lon="-105.2294258">
  <ele>1583.13</ele>
  <time>2026-08-28T17:56:37Z</time>
  <course>69.04</course>
  <speed>0.9712363255150623</speed>
  <fix>3d</fix>
</trkpt>
<trkpt lat="40.071213" lon="-105.2294273">
  <ele>1583.0</ele>
  <time>2026-08-28T17:56:37Z</time>
  <course>72.05</course>
  <speed>0.99</speed>
  <fix>3d</fix>
</trkpt>
<trkpt lat="40.0712135" lon="-105.2294247">
  <ele>1583.13</ele>
  <time>2026-08-28T17:56:37Z</time>
  <course>65.93</course>
  <speed>0.9712363255150623</speed>
  <fix>3d</fix>
</trkpt>
<trkpt lat="40.071213" lon="-105.2294273">
  <ele>1583.0</ele>
  <time>2026-08-28T17:56:37Z</time>
  <course>72.05</course>
  <speed>0.99</speed>
  <fix>3d</fix>
</trkpt>
<trkpt lat="40.0712138" lon="-105.2294236">
  <ele>1583.14</ele>
  <time>2026-08-28T17:56:37Z</time>
  <course>61.7</course>
  <speed>0.9616652224137046</speed>
  <fix>3d</fix>
</trkpt>
<trkpt lat="40.0712137" lon="-105.229425">
  <ele>1583.0</ele>
  <time>2026-08-28T17:56:37Z</time>
  <course>71.74</course>
  <speed>0.99</speed>
  <fix>3d</fix>
</trkpt>
<trkpt lat="40.071214" lon="-105.2294227">
  <ele>1583.14</ele>
  <time>2026-08-28T17:56:37Z</time>
  <course>57.4</course>
  <speed>0.9550916186418976</speed>
  <fix>3d</fix>
</trkpt>
<trkpt lat="40.0712137" lon="-105.229425">
  <ele>1583.0</ele>
  <time>2026-08-28T17:56:37Z</time>
  <course>71.74</course>
  <speed>0.99</speed>
  <fix>3d</fix>
</trkpt>
<trkpt lat="40.0712143" lon="-105.2294216">
  <ele>1583.14</ele>
  <time>2026-08-28T17:56:37Z</time>
  <course>50.81</course>
  <speed>0.9486832980505138</speed>
  <fix>3d</fix>
</trkpt>
<trkpt lat="40.0712142" lon="-105.2294229">
  <ele>1583.0</ele>
  <time>2026-08-28T17:56:37Z</time>
  <course>70.97</course>
  <speed>0.98</speed>
  <fix>3d</fix>
</trkpt>
<trkpt lat="40.0712146" lon="-105.2294206">
  <ele>1583.14</ele>
  <time>2026-08-28T17:56:37Z</time>
  <course>42.75</course>
  <speed>0.942443632266673</speed>
  <fix>3d</fix>
</trkpt>
<trkpt lat="40.0712142" lon="-105.2294229">
  <ele>1583.0</ele>
  <time>2026-08-28T17:56:37Z</time>
  <course>70.97</course>
  <speed>0.98</speed>
  <fix>3d</fix>
</trkpt>
<trkpt lat="40.0712149" lon="-105.2294195">
  <ele>1583.14</ele>
  <time>2026-08-28T17:56:37Z</time>
  <course>33.27</course>
  <speed>0.9269843580125827</speed>
  <fix>3d</fix>
</trkpt>
<trkpt lat="40.0712147" lon="-105.2294207">
  <ele>1583.0</ele>
  <time>2026-08-28T17:56:37Z</time>
  <course>69.53</course>
  <speed>0.96</speed>
  <fix>3d</fix>
</trkpt>
<trkpt lat="40.0712152" lon="-105.2294185">
  <ele>1583.14</ele>
  <time>2026-08-28T17:56:37Z</time>
  <course>22.41</course>
  <speed>0.9118113840043894</speed>
  <fix>3d</fix>
</trkpt>
<trkpt lat="40.0712147" lon="-105.2294207">
  <ele>1583.0</ele>
  <time>2026-08-28T17:56:37Z</time>
  <course>69.53</course>
  <speed>0.96</speed>
  <fix>3d</fix>
</trkpt>
<trkpt lat="40.0712156" lon="-105.2294175">
  <ele>1583.14</ele>
  <time>2026-08-28T17:56:37Z</time>
  <course>11.57</course>
  <speed>0.8915716460273958</speed>
  <fix>3d</fix>
</trkpt>
<trkpt lat="40.0712154" lon="-105.2294187">
  <ele>1583.0</ele>
  <time>2026-08-28T17:56:37Z</time>
  <course>67.15</course>
  <speed>0.93</speed>
  <fix>3d</fix>
</trkpt>
<trkpt lat="40.0712159" lon="-105.2294165">
  <ele>1583.14</ele>
  <time>2026-08-28T17:56:37Z</time>
  <course>1.84</course>
  <speed>0.8723531395025755</speed>
  <fix>3d</fix>
</trkpt>
<trkpt lat="40.0712154" lon="-105.2294187">
  <ele>1583.0</ele>
  <time>2026-08-28T17:56:37Z</time>
  <course>67.15</course>
  <speed>0.93</speed>
  <fix>3d</fix>
</trkpt>
<trkpt lat="40.0712163" lon="-105.2294156">
  <ele>1583.14</ele>
  <time>2026-08-28T17:56:37Z</time>
  <course>353.45</course>
  <speed>0.85</speed>
  <fix>3d</fix>
</trkpt>
<trkpt lat="40.0712161" lon="-105.2294167">
  <ele>1583.0</ele>
  <time>2026-08-28T17:56:37Z</time>
  <course>63.42</course>
  <speed>0.9</speed>
  <fix>3d</fix>
</trkpt>
<trkpt lat="40.0712167" lon="-105.2294147">
  <ele>1583.14</ele>
  <time>2026-08-28T17:56:37Z</time>
  <course>346.35</course>
  <speed>0.8249242389456137</speed>
  <fix>3d</fix>
</trkpt>
<trkpt lat="40.0712161" lon="-105.2294167">
  <ele>1583.0</ele>
  <time>2026-08-28T17:56:37Z</time>
  <course>63.42</course>
  <speed>0.9</speed>
  <fix>3d</fix>
</trkpt>
<trkpt lat="40.0712172" lon="-105.2294137">
  <ele>1583.14</ele>
  <time>2026-08-28T17:56:37Z</time>
  <course>339.41</course>
  <speed>0.8044874144447506</speed>
  <fix>3d</fix>
</trkpt>
<trkpt lat="40.0712168" lon="-105.2294149">
  <ele>1583.0</ele>
  <time>2026-08-28T17:56:37Z</time>
  <course>58.08</course>
  <speed>0.85</speed>
  <fix>3d</fix>
</trkpt>
<trkpt lat="40.0712177" lon="-105.229413">
  <ele>1583.14</ele>
  <time>2026-08-28T17:56:37Z</time>
  <course>334.76</course>
  <speed>0.7824321056807422</speed>
  <fix>3d</fix>
</trkpt>
<trkpt lat="40.0712168" lon="-105.2294149">
  <ele>1583.0</ele>
  <time>2026-08-28T17:56:37Z</time>
  <course>58.08</course>
  <speed>0.85</speed>
  <fix>3d</fix>
</trkpt>
<trkpt lat="40.0712182" lon="-105.2294123">
  <ele>1583.13</ele>
  <time>2026-08-28T17:56:37Z</time>
  <course>331.01</course>
  <speed>0.764198926981712</speed>
  <fix>3d</fix>
</trkpt>
<trkpt lat="40.0712177" lon="-105.2294133">
  <ele>1583.0</ele>
  <time>2026-08-28T17:56:37Z</time>
  <course>51.19</course>
  <speed>0.81</speed>
  <fix>3d</fix>
</trkpt>
<trkpt lat="40.0712187" lon="-105.2294117">
  <ele>1583.13</ele>
  <time>2026-08-28T17:56:37Z</time>
  <course>327.91</course>
  <speed>0.7433034373659253</speed>
  <fix>3d</fix>
</trkpt>
<trkpt lat="40.0712177" lon="-105.2294133">
  <ele>1583.0</ele>
  <time>2026-08-28T17:56:37Z</time>
  <course>51.19</course>
  <speed>0.81</speed>
  <fix>3d</fix>
</trkpt>
<trkpt lat="40.0712192" lon="-105.2294111">
  <ele>1583.13</ele>
  <time>2026-08-28T17:56:37Z</time>
  <course>325.42</course>
  <speed>0.7262231062146123</speed>
  <fix>3d</fix>
</trkpt>
<trkpt lat="40.0712187" lon="-105.2294119">
  <ele>1583.0</ele>
  <time>2026-08-28T17:56:37Z</time>
  <course>43.14</course>
  <speed>0.77</speed>
  <fix>3d</fix>
</trkpt>
<trkpt lat="40.0712198" lon="-105.2294106">
  <ele>1583.13</ele>
  <time>2026-08-28T17:56:37Z</time>
  <course>323.4</course>
  <speed>0.7156116265125938</speed>
  <fix>3d</fix>
</trkpt>
<trkpt lat="40.0712187" lon="-105.2294119">
  <ele>1583.0</ele>
  <time>2026-08-28T17:56:37Z</time>
  <course>43.14</course>
  <speed>0.77</speed>
  <fix>3d</fix>
</trkpt>
<trkpt lat="40.0712203" lon="-105.2294101">
  <ele>1583.13</ele>
  <time>2026-08-28T17:56:37Z</time>
  <course>321.82</course>
  <speed>0.7071067811865476</speed>
  <fix>3d</fix>
</trkpt>
<trkpt lat="40.0712198" lon="-105.2294108">
  <ele>1583.0</ele>
  <time>2026-08-28T17:56:37Z</time>
  <course>34.44</course>
  <speed>0.74</speed>
  <fix>3d</fix>
</trkpt>
<trkpt lat="40.0712209" lon="-105.2294098">
  <ele>1583.13</ele>
  <time>2026-08-28T17:56:37Z</time>
  <course>320.61</course>
  <speed>0.7026378868236469</speed>
  <fix>3d</fix>
</trkpt>
<trkpt lat="40.0712198" lon="-105.2294108">
  <ele>1583.0</ele>
  <time>2026-08-28T17:56:37Z</time>
  <course>34.44</course>
  <speed>0.74</speed>
  <fix>3d</fix>
</trkpt>
<trkpt lat="40.0712216" lon="-105.2294095">
  <ele>1583.13</ele>
  <time>2026-08-28T17:56:37Z</time>
  <course>319.57</course>
  <speed>0.6989277502002621</speed>
  <fix>3d</fix>
</trkpt>
<trkpt lat="40.0712209" lon="-105.2294099">
  <ele>1583.0</ele>
  <time>2026-08-28T17:56:37Z</time>
  <course>25.57</course>
  <speed>0.72</speed>
  <fix>3d</fix>
</trkpt>
<trkpt lat="40.0712222" lon="-105.2294092">
  <ele>1583.13</ele>
  <time>2026-08-28T17:56:37Z</time>
  <course>318.63</course>
  <speed>0.7034202158027589</speed>
  <fix>3d</fix>
</trkpt>
<trkpt lat="40.0712209" lon="-105.2294099">
  <ele>1583.0</ele>
  <time>2026-08-28T17:56:37Z</time>
  <course>25.57</course>
  <speed>0.72</speed>
  <fix>3d</fix>
</trkpt>
<trkpt lat="40.0712228" lon="-105.229409">
  <ele>1583.13</ele>
  <time>2026-08-28T17:56:37Z</time>
  <course>317.8</course>
  <speed>0.7119691004531025</speed>
  <fix>3d</fix>
</trkpt>
<trkpt lat="40.0712221" lon="-105.2294093">
  <ele>1583.0</ele>
  <time>2026-08-28T17:56:37Z</time>
  <course>16.93</course>
  <speed>0.72</speed>
  <fix>3d</fix>
</trkpt>
<trkpt lat="40.0712235" lon="-105.2294089">
  <ele>1583.13</ele>
  <time>2026-08-28T17:56:37Z</time>
  <course>317.04</course>
  <speed>0.7156814934033155</speed>
  <fix>3d</fix>
</trkpt>
<trkpt lat="40.0712221" lon="-105.2294093">
  <ele>1583.0</ele>
  <time>2026-08-28T17:56:37Z</time>
  <course>16.93</course>
  <speed>0.72</speed>
  <fix>3d</fix>
</trkpt>
<trkpt lat="40.071224" lon="-105.2294088">
  <ele>1583.13</ele>
  <time>2026-08-28T17:56:37Z</time>
  <course>316.49</course>
  <speed>0.7217340230306452</speed>
  <fix>3d</fix>
</trkpt>
<trkpt lat="40.0712234" lon="-105.229409">
  <ele>1583.0</ele>
  <time>2026-08-28T17:56:37Z</time>
  <course>8.84</course>
  <speed>0.73</speed>
  <fix>3d</fix>
</trkpt>
<trkpt lat="40.0712247" lon="-105.2294088">
  <ele>1583.13</ele>
  <time>2026-08-28T17:56:37Z</time>
  <course>315.93</course>
  <speed>0.74</speed>
  <fix>3d</fix>
</trkpt>
<trkpt lat="40.0712234" lon="-105.229409">
  <ele>1583.0</ele>
  <time>2026-08-28T17:56:37Z</time>
  <course>8.84</course>
  <speed>0.73</speed>
  <fix>3d</fix>
</trkpt>
<trkpt lat="40.0712254" lon="-105.2294088">
  <ele>1583.13</ele>
  <time>2026-08-28T17:56:37Z</time>
  <course>315.42</course>
  <speed>0.7505997601918082</speed>
  <fix>3d</fix>
</trkpt>
<trkpt lat="40.0712247" lon="-105.2294088">
  <ele>1583.0</ele>
  <time>2026-08-28T17:56:37Z</time>
  <course>1.5</course>
  <speed>0.74</speed>
  <fix>3d</fix>
</trkpt>
<trkpt lat="40.0712261" lon="-105.2294088">
  <ele>1583.13</ele>
  <time>2026-08-28T17:56:37Z</time>
  <course>315.01</course>
  <speed>0.7632168761236874</speed>
  <fix>3d</fix>
</trkpt>
<trkpt lat="40.0712247" lon="-105.2294088">
  <ele>1583.0</ele>
  <time>2026-08-28T17:56:37Z</time>
  <course>1.5</course>
  <speed>0.74</speed>
  <fix>3d</fix>
</trkpt>
<trkpt lat="40.0712268" lon="-105.2294089">
  <ele>1583.13</ele>
  <time>2026-08-28T17:56:37Z</time>
  <course>314.64</course>
  <speed>0.7778174593052023</speed>
  <fix>3d</fix>
</trkpt>
<trkpt lat="40.071226" lon="-105.2294088">
  <ele>1583.0</ele>
  <time>2026-08-28T17:56:37Z</time>
  <course>355.03</course>
  <speed>0.77</speed>
  <fix>3d</fix>
</trkpt>
<trkpt lat="40.0712275" lon="-105.2294091">
  <ele>1583.13</ele>
  <time>2026-08-28T17:56:37Z</time>
  <course>314.35</course>
  <speed>0.804114419718985</speed>
  <fix>3d</fix>
</trkpt>
<trkpt lat="40.071226" lon="-105.2294088">
  <ele>1583.0</ele>
  <time>2026-08-28T17:56:37Z</time>
  <course>355.03</course>
  <speed>0.77</speed>
  <fix>3d</fix>
</trkpt>
<trkpt lat="40.0712283" lon="-105.2294093">
  <ele>1583.13</ele>
  <time>2026-08-28T17:56:37Z</time>
  <course>314.16</course>
  <speed>0.8125269226308751</speed>
  <fix>3d</fix>
</trkpt>
<trkpt lat="40.0712275" lon="-105.229409">
  <ele>1583.0</ele>
  <time>2026-08-28T17:56:37Z</time>
  <course>349.42</course>
  <speed>0.8</speed>
  <fix>3d</fix>
</trkpt>
<trkpt lat="40.071229" lon="-105.2294095">
  <ele>1583.14</ele>
  <time>2026-08-28T17:56:37Z</time>
  <course>314.03</course>
  <speed>0.8324061508662703</speed>
  <fix>3d</fix>
</trkpt>
<trkpt lat="40.0712275" lon="-105.229409">
  <ele>1583.0</ele>
  <time>2026-08-28T17:56:37Z</time>
  <course>349.42</course>
  <speed>0.8</speed>
  <fix>3d</fix>
</trkpt>
<trkpt lat="40.0712297" lon="-105.2294098">
  <ele>1583.14</ele>
  <time>2026-08-28T17:56:37Z</time>
  <course>313.94</course>
  <speed>0.8507055894961546</speed>
  <fix>3d</fix>
</trkpt>
<trkpt lat="40.0712289" lon="-105.2294094">
  <ele>1583.0</ele>
  <time>2026-08-28T17:56:37Z</time>
  <course>344.62</course>
  <speed>0.83</speed>
  <fix>3d</fix>
</trkpt>
<trkpt lat="40.0712306" lon="-105.2294102">
  <ele>1583.15</ele>
  <time>2026-08-28T17:56:37Z</time>
  <course>313.92</course>
  <speed>0.8731551981177229</speed>
  <fix>3d</fix>
</trkpt>
<trkpt lat="40.0712289" lon="-105.2294094">
  <ele>1583.0</ele>
  <time>2026-08-28T17:56:37Z</time>
  <course>344.62</course>
  <speed>0.83</speed>
  <fix>3d</fix>
</trkpt>
<trkpt lat="40.0712314" lon="-105.2294106">
  <ele>1583.15</ele>
  <time>2026-08-28T17:56:37Z</time>
  <course>313.97</course>
  <speed>0.8931965069345043</speed>
  <fix>3d</fix>
</trkpt>
<trkpt lat="40.0712304" lon="-105.22941">
  <ele>1583.0</ele>
  <time>2026-08-28T17:56:37Z</time>
  <course>340.55</course>
  <speed>0.87</speed>
  <fix>3d</fix>
</trkpt>
<trkpt lat="40.0712322" lon="-105.229411">
  <ele>1583.16</ele>
  <time>2026-08-28T17:56:37Z</time>
  <course>314.07</course>
  <speed>0.9138927727036691</speed>
  <fix>3d</fix>
</trkpt>
<trkpt lat="40.0712304" lon="-105.22941">
  <ele>1583.0</ele>
  <time>2026-08-28T17:56:37Z</time>
  <course>340.55</course>
  <speed>0.87</speed>
  <fix>3d</fix>
</trkpt>
<trkpt lat="40.0712329" lon="-105.2294115">
  <ele>1583.16</ele>
  <time>2026-08-28T17:56:37Z</time>
  <course>314.25</course>
  <speed>0.9261209424259879</speed>
  <fix>3d</fix>
</trkpt>
<trkpt lat="40.0712319" lon="-105.2294108">
  <ele>1583.0</ele>
  <time>2026-08-28T17:56:37Z</time>
  <course>337.12</course>
  <speed>0.9</speed>
  <fix>3d</fix>
</trkpt>
<trkpt lat="40.0712337" lon="-105.2294119">
  <ele>1583.16</ele>
  <time>2026-08-28T17:56:37Z</time>
  <course>314.48</course>
  <speed>0.943716058992322</speed>
  <fix>3d</fix>
</trkpt>
<trkpt lat="40.0712319" lon="-105.2294108">
  <ele>1583.0</ele>
  <time>2026-08-28T17:56:37Z</time>
  <course>337.12</course>
  <speed>0.9</speed>
  <fix>3d</fix>
</trkpt>
<trkpt lat="40.0712345" lon="-105.2294124">
  <ele>1583.17</ele>
  <time>2026-08-28T17:56:37Z</time>
  <course>314.77</course>
  <speed>0.9660227740586658</speed>
  <fix>3d</fix>
</trkpt>
<trkpt lat="40.0712334" lon="-105.2294117">
  <ele>1583.0</ele>
  <time>2026-08-28T17:56:37Z</time>
  <course>334.25</course>
  <speed>0.94</speed>
  <fix>3d</fix>
</trkpt>
<trkpt lat="40.0712353" lon="-105.229413">
  <ele>1583.17</ele>
  <time>2026-08-28T17:56:37Z</time>
  <course>315.12</course>
  <speed>0.9752948272189288</speed>
  <fix>3d</fix>
</trkpt>
<trkpt lat="40.0712334" lon="-105.2294117">
  <ele>1583.0</ele>
  <time>2026-08-28T17:56:37Z</time>
  <course>334.25</course>
  <speed>0.94</speed>
  <fix>3d</fix>
</trkpt>
<trkpt lat="40.0712361" lon="-105.2294135">
  <ele>1583.17</ele>
  <time>2026-08-28T17:56:37Z</time>
  <course>315.49</course>
  <speed>0.9936297097007517</speed>
  <fix>3d</fix>
</trkpt>
<trkpt lat="40.0712349" lon="-105.2294127">
  <ele>1583.0</ele>
  <time>2026-08-28T17:56:37Z</time>
  <course>331.86</course>
  <speed>0.97</speed>
  <fix>3d</fix>
</trkpt>
<trkpt lat="40.0712368" lon="-105.2294141">
  <ele>1583.17</ele>
  <time>2026-08-28T17:56:37Z</time>
  <course>315.92</course>
  <speed>1.0034440691936946</speed>
  <fix>3d</fix>
</trkpt>
<trkpt lat="40.0712349" lon="-105.2294127">
  <ele>1583.0</ele>
  <time>2026-08-28T17:56:37Z</time>
  <course>331.86</course>
  <speed>0.97</speed>
  <fix>3d</fix>
</trkpt>
<trkpt lat="40.0712376" lon="-105.2294147">
  <ele>1583.17</ele>
  <time>2026-08-28T17:56:37Z</time>
  <course>316.41</course>
  <speed>1.022154587134451</speed>
  <fix>3d</fix>
</trkpt>
<trkpt lat="40.0712365" lon="-105.2294139">
  <ele>1583.0</ele>
  <time>2026-08-28T17:56:37Z</time>
  <course>329.91</course>
  <speed>1.0</speed>
  <fix>3d</fix>
</trkpt>
<trkpt lat="40.0712384" lon="-105.2294153">
  <ele>1583.17</ele>
  <time>2026-08-28T17:56:37Z</time>
  <course>316.97</course>
  <speed>1.0324727599312247</speed>
  <fix>3d</fix>
</trkpt>
<trkpt lat="40.0712365" lon="-105.2294139">
  <ele>1583.0</ele>
  <time>2026-08-28T17:56:37Z</time>
  <course>329.91</course>
  <speed>1.0</speed>
  <fix>3d</fix>
</trkpt>
<trkpt lat="40.071239" lon="-105.2294159">
  <ele>1583.18</ele>
  <time>2026-08-28T17:56:37Z</time>
  <course>317.47</course>
  <speed>1.0377379245262264</speed>
  <fix>3d</fix>
</trkpt>
<trkpt lat="40.0712381" lon="-105.229415">
  <ele>1583.0</ele>
  <time>2026-08-28T17:56:37Z</time>
  <course>328.33</course>
  <speed>1.03</speed>
  <fix>3d</fix>
</trkpt>
<trkpt lat="40.0712398" lon="-105.2294165">
  <ele>1583.18</ele>
  <time>2026-08-28T17:56:37Z</time>
  <course>318.1</course>
  <speed>1.056882207249228</speed>
  <fix>3d</fix>
</trkpt>
<trkpt lat="40.0712381" lon="-105.229415">
  <ele>1583.0</ele>
  <time>2026-08-28T17:56:37Z</time>
  <course>328.33</course>
  <speed>1.03</speed>
  <fix>3d</fix>
</trkpt>
<trkpt lat="40.0712406" lon="-105.2294172">
  <ele>1583.18</ele>
  <time>2026-08-28T17:56:37Z</time>
  <course>318.77</course>
  <speed>1.0623088063270492</speed>
  <fix>3d</fix>
</trkpt>
<trkpt lat="40.0712396" lon="-105.2294163">
  <ele>1583.0</ele>
  <time>2026-08-28T17:56:37Z</time>
  <course>327.08</course>
  <speed>1.05</speed>
  <fix>3d</fix>
</trkpt>
<trkpt lat="40.0712415" lon="-105.2294179">
  <ele>1583.18</ele>
  <time>2026-08-28T17:56:37Z</time>
  <course>319.51</course>
  <speed>1.0761505470890214</speed>
  <fix>3d</fix>
</trkpt>
<trkpt lat="40.0712396" lon="-105.2294163">
  <ele>1583.0</ele>
  <time>2026-08-28T17:56:37Z</time>
  <course>327.08</course>
  <speed>1.05</speed>
  <fix>3d</fix>
</trkpt>
<trkpt lat="40.0712423" lon="-105.2294186">
  <ele>1583.18</ele>
  <time>2026-08-28T17:56:37Z</time>
  <course>320.29</course>
  <speed>1.0872442227944925</speed>
  <fix>3d</fix>
</trkpt>
<trkpt lat="40.0712412" lon="-105.2294177">
  <ele>1583.0</ele>
  <time>2026-08-28T17:56:37Z</time>
  <course>326.13</course>
  <speed>1.08</speed>
  <fix>3d</fix>
</trkpt>
<trkpt lat="40.0712431" lon="-105.2294193">
  <ele>1583.18</ele>
  <time>2026-08-28T17:56:37Z</time>
  <course>321.14</course>
  <speed>1.101135777277262</speed>
  <fix>3d</fix>
</trkpt>
<trkpt lat="40.0712412" lon="-105.2294177">
  <ele>1583.0</ele>
  <time>2026-08-28T17:56:37Z</time>
  <course>326.13</course>
  <speed>1.08</speed>
  <fix>3d</fix>
</trkpt>
<trkpt lat="40.0712439" lon="-105.2294201">
  <ele>1583.19</ele>
  <time>2026-08-28T17:56:37Z</time>
  <course>322.0</course>
  <speed>1.101135777277262</speed>
  <fix>3d</fix>
</trkpt>
<trkpt lat="40.0712429" lon="-105.2294192">
  <ele>1583.0</ele>
  <time>2026-08-28T17:56:37Z</time>
  <course>325.45</course>
  <speed>1.1</speed>
  <fix>3d</fix>
</trkpt>
<trkpt lat="40.0712447" lon="-105.2294208">
  <ele>1583.19</ele>
  <time>2026-08-28T17:56:37Z</time>
  <course>322.89</course>
  <speed>1.1150336317797773</speed>
  <fix>3d</fix>
</trkpt>
<trkpt lat="40.0712429" lon="-105.2294192">
  <ele>1583.0</ele>
  <time>2026-08-28T17:56:37Z</time>
  <course>325.45</course>
  <speed>1.1</speed>
  <fix>3d</fix>
</trkpt>
<trkpt lat="40.0712456" lon="-105.2294216">
  <ele>1583.19</ele>
  <time>2026-08-28T17:56:37Z</time>
  <course>323.84</course>
  <speed>1.120714058089752</speed>
  <fix>3d</fix>
</trkpt>
<trkpt lat="40.0712445" lon="-105.2294207">
  <ele>1583.0</ele>
  <time>2026-08-28T17:56:37Z</time>
  <course>325.02</course>
  <speed>1.12</speed>
  <fix>3d</fix>
</trkpt>
<trkpt lat="40.0712464" lon="-105.2294224">
  <ele>1583.19</ele>
  <time>2026-08-28T17:56:37Z</time>
  <course>324.85</course>
  <speed>1.128937553631732</speed>
  <fix>3d</fix>
</trkpt>
<trkpt lat="40.0712445" lon="-105.2294207">
  <ele>1583.0</ele>
  <time>2026-08-28T17:56:37Z</time>
  <course>325.02</course>
  <speed>1.12</speed>
  <fix>3d</fix>
</trkpt>
<trkpt lat="40.0712474" lon="-105.2294233">
  <ele>1583.19</ele>
  <time>2026-08-28T17:56:37Z</time>
  <course>326.1</course>
  <speed>1.1428473213863697</speed>
  <fix>3d</fix>
</trkpt>
<trkpt lat="40.0712461" lon="-105.2294222">
  <ele>1583.0</ele>
  <time>2026-08-28T17:56:37Z</time>
  <course>324.81</course>
  <speed>1.13</speed>
  <fix>3d</fix>
</trkpt>
<trkpt lat="40.0712483" lon="-105.2294241">
  <ele>1583.18</ele>
  <time>2026-08-28T17:56:37Z</time>
  <course>327.15</course>
  <speed>1.1428473213863697</speed>
  <fix>3d</fix>
</trkpt>
<trkpt lat="40.0712461" lon="-105.2294222">
  <ele>1583.0</ele>
  <time>2026-08-28T17:56:37Z</time>
  <course>324.81</course>
  <speed>1.13</speed>
  <fix>3d</fix>
</trkpt>
<trkpt lat="40.0712491" lon="-105.2294248">
  <ele>1583.18</ele>
  <time>2026-08-28T17:56:37Z</time>
  <course>328.24</course>
  <speed>1.151086443322134</speed>
  <fix>3d</fix>
</trkpt>
<trkpt lat="40.0712478" lon="-105.2294238">
  <ele>1583.0</ele>
  <time>2026-08-28T17:56:37Z</time>
  <course>324.82</course>
  <speed>1.15</speed>
  <fix>3d</fix>
</trkpt>
<trkpt lat="40.07125" lon="-105.2294256">
  <ele>1583.18</ele>
  <time>2026-08-28T17:56:37Z</time>
  <course>329.37</course>
  <speed>1.151086443322134</speed>
  <fix>3d</fix>
</trkpt>
<trkpt lat="40.0712478" lon="-105.2294238">
  <ele>1583.0</ele>
  <time>2026-08-28T17:56:37Z</time>
  <course>324.82</course>
  <speed>1.15</speed>
  <fix>3d</fix>
</trkpt>
<trkpt lat="40.0712508" lon="-105.2294264">
  <ele>1583.18</ele>
  <time>2026-08-28T17:56:37Z</time>
  <course>330.55</course>
  <speed>1.1593532679903913</speed>
  <fix>3d</fix>
</trkpt>
<trkpt lat="40.0712495" lon="-105.2294254">
  <ele>1583.0</ele>
  <time>2026-08-28T17:56:37Z</time>
  <course>325.01</course>
  <speed>1.16</speed>
  <fix>3d</fix>
</trkpt>
<trkpt lat="40.0712517" lon="-105.2294272">
  <ele>1583.18</ele>
  <time>2026-08-28T17:56:37Z</time>
  <course>331.75</course>
  <speed>1.1676472069936192</speed>
  <fix>3d</fix>
</trkpt>
<trkpt lat="40.0712495" lon="-105.2294254">
  <ele>1583.0</ele>
  <time>2026-08-28T17:56:37Z</time>
  <course>325.01</course>
  <speed>1.16</speed>
  <fix>3d</fix>
</trkpt>
<trkpt lat="40.0712526" lon="-105.229428">
  <ele>1583.18</ele>
  <time>2026-08-28T17:56:37Z</time>
  <course>332.95</course>
  <speed>1.1676472069936192</speed>
  <fix>3d</fix>
</trkpt>
<trkpt lat="40.0712513" lon="-105.2294269">
  <ele>1583.0</ele>
  <time>2026-08-28T17:56:37Z</time>
  <course>325.4</course>
  <speed>1.17</speed>
  <fix>3d</fix>
</trkpt>
<trkpt lat="40.0712534" lon="-105.2294287">
  <ele>1583.18</ele>
  <time>2026-08-28T17:56:37Z</time>
  <course>334.17</course>
  <speed>1.1704699910719625</speed>
  <fix>3d</fix>
</trkpt>
<trkpt lat="40.0712513" lon="-105.2294269">
  <ele>1583.0</ele>
  <time>2026-08-28T17:56:37Z</time>
  <course>325.4</course>
  <speed>1.17</speed>
  <fix>3d</fix>
</trkpt>
<trkpt lat="40.0712543" lon="-105.2294295">
  <ele>1583.17</ele>
  <time>2026-08-28T17:56:37Z</time>
  <course>335.43</course>
  <speed>1.1704699910719625</speed>
  <fix>3d</fix>
</trkpt>
<trkpt lat="40.071253" lon="-105.2294285">
  <ele>1583.0</ele>
  <time>2026-08-28T17:56:37Z</time>
  <course>325.95</course>
  <speed>1.18</speed>
  <fix>3d</fix>
</trkpt>
<trkpt lat="40.0712552" lon="-105.2294303">
  <ele>1583.17</ele>
  <time>2026-08-28T17:56:37Z</time>
  <course>336.66</course>
  <speed>1.1734564329364767</speed>
  <fix>3d</fix>
</trkpt>
<trkpt lat="40.071253" lon="-105.2294285">
  <ele>1583.0</ele>
  <time>2026-08-28T17:56:37Z</time>
  <course>325.95</course>
  <speed>1.18</speed>
  <fix>3d</fix>
</trkpt>
<trkpt lat="40.0712561" lon="-105.229431">
  <ele>1583.17</ele>
  <time>2026-08-28T17:56:37Z</time>
  <course>337.93</course>
  <speed>1.1681181447096864</speed>
  <fix>3d</fix>
</trkpt>
<trkpt lat="40.0712547" lon="-105.22943">
  <ele>1583.0</ele>
  <time>2026-08-28T17:56:37Z</time>
  <course>326.66</course>
  <speed>1.18</speed>
  <fix>3d</fix>
</trkpt>
<trkpt lat="40.0712568" lon="-105.2294316">
  <ele>1583.17</ele>
  <time>2026-08-28T17:56:37Z</time>
  <course>338.94</course>
  <speed>1.1766052864066183</speed>
  <fix>3d</fix>
</trkpt>
<trkpt lat="40.0712547" lon="-105.22943">
  <ele>1583.0</ele>
  <time>2026-08-28T17:56:37Z</time>
  <course>326.66</course>
  <speed>1.18</speed>
  <fix>3d</fix>
</trkpt>
<trkpt lat="40.0712577" lon="-105.2294323">
  <ele>1583.17</ele>
  <time>2026-08-28T17:56:37Z</time>
  <course>340.2</course>
  <speed>1.1713667231059623</speed>
  <fix>3d</fix>
</trkpt>
<trkpt lat="40.0712566" lon="-105.2294315">
  <ele>1583.0</ele>
  <time>2026-08-28T17:56:37Z</time>
  <course>327.51</course>
  <speed>1.19</speed>
  <fix>3d</fix>
</trkpt>
<trkpt lat="40.0712586" lon="-105.2294331">
  <ele>1583.18</ele>
  <time>2026-08-28T17:56:37Z</time>
  <course>341.46</course>
  <speed>1.1747765745025733</speed>
  <fix>3d</fix>
</trkpt>
<trkpt lat="40.0712566" lon="-105.2294315">
  <ele>1583.0</ele>
  <time>2026-08-28T17:56:37Z</time>
  <course>327.51</course>
  <speed>1.19</speed>
  <fix>3d</fix>
</trkpt>
<trkpt lat="40.0712595" lon="-105.2294338">
  <ele>1583.18</ele>
  <time>2026-08-28T17:56:37Z</time>
  <course>342.72</course>
  <speed>1.169700816448377</speed>
  <fix>3d</fix>
</trkpt>
<trkpt lat="40.0712584" lon="-105.229433">
  <ele>1583.0</ele>
  <time>2026-08-28T17:56:37Z</time>
  <course>328.49</course>
  <speed>1.19</speed>
  <fix>3d</fix>
</trkpt>
<trkpt lat="40.0712604" lon="-105.2294345">
  <ele>1583.18</ele>
  <time>2026-08-28T17:56:37Z</time>
  <course>343.98</course>
  <speed>1.1733712115098103</speed>
  <fix>3d</fix>
</trkpt>
<trkpt lat="40.0712584" lon="-105.229433">
  <ele>1583.0</ele>
  <time>2026-08-28T17:56:37Z</time>
  <course>328.49</course>
  <speed>1.19</speed>
  <fix>3d</fix>
</trkpt>
<trkpt lat="40.0712614" lon="-105.2294352">
  <ele>1583.18</ele>
  <time>2026-08-28T17:56:37Z</time>
  <course>345.23</course>
  <speed>1.1772000679578642</speed>
  <fix>3d</fix>
</trkpt>
<trkpt lat="40.0712602" lon="-105.2294345">
  <ele>1583.0</ele>
  <time>2026-08-28T17:56:37Z</time>
  <course>329.58</course>
  <speed>1.19</speed>
  <fix>3d</fix>
</trkpt>
<trkpt lat="40.0712623" lon="-105.2294359">
  <ele>1583.17</ele>
  <time>2026-08-28T17:56:37Z</time>
  <course>346.45</course>
  <speed>1.1676472069936192</speed>
  <fix>3d</fix>
</trkpt>
<trkpt lat="40.0712602" lon="-105.2294345">
  <ele>1583.0</ele>
  <time>2026-08-28T17:56:37Z</time>
  <course>329.58</course>
  <speed>1.19</speed>
  <fix>3d</fix>
</trkpt>
<trkpt lat="40.0712632" lon="-105.2294365">
  <ele>1583.17</ele>
  <time>2026-08-28T17:56:37Z</time>
  <course>347.67</course>
  <speed>1.1718361660232202</speed>
  <fix>3d</fix>
</trkpt>
<trkpt lat="40.0712621" lon="-105.2294359">
  <ele>1583.0</ele>
  <time>2026-08-28T17:56:37Z</time>
  <course>330.78</course>
  <speed>1.19</speed>
  <fix>3d</fix>
</trkpt>
<trkpt lat="40.0712642" lon="-105.2294372">
  <ele>1583.16</ele>
  <time>2026-08-28T17:56:37Z</time>
  <course>348.88</course>
  <speed>1.1672617529928753</speed>
  <fix>3d</fix>
</trkpt>
<trkpt lat="40.0712621" lon="-105.2294359">
  <ele>1583.0</ele>
  <time>2026-08-28T17:56:37Z</time>
  <course>330.78</course>
  <speed>1.19</speed>
  <fix>3d</fix>
</trkpt>
<trkpt lat="40.0712651" lon="-105.2294378">
  <ele>1583.16</ele>
  <time>2026-08-28T17:56:37Z</time>
  <course>350.06</course>
  <speed>1.1673045875006232</speed>
  <fix>3d</fix>
</trkpt>
<trkpt lat="40.071264" lon="-105.2294372">
  <ele>1583.0</ele>
  <time>2026-08-28T17:56:37Z</time>
  <course>332.06</course>
  <speed>1.19</speed>
  <fix>3d</fix>
</trkpt>
<trkpt lat="40.0712663" lon="-105.2294386">
  <ele>1583.16</ele>
  <time>2026-08-28T17:56:37Z</time>
  <course>351.45</course>
  <speed>1.1629703349613008</speed>
  <fix>3d</fix>
</trkpt>
<trkpt lat="40.071264" lon="-105.2294372">
  <ele>1583.0</ele>
  <time>2026-08-28T17:56:37Z</time>
  <course>332.06</course>
  <speed>1.19</speed>
  <fix>3d</fix>
</trkpt>
<trkpt lat="40.0712672" lon="-105.2294392">
  <ele>1583.16</ele>
  <time>2026-08-28T17:56:37Z</time>
  <course>352.58</course>
  <speed>1.1545128842936314</speed>
  <fix>3d</fix>
</trkpt>
<trkpt lat="40.0712659" lon="-105.2294384">
  <ele>1583.0</ele>
  <time>2026-08-28T17:56:37Z</time>
  <course>333.41</course>
  <speed>1.18</speed>
  <fix>3d</fix>
</trkpt>
<trkpt lat="40.0712682" lon="-105.2294398">
  <ele>1583.16</ele>
  <time>2026-08-28T17:56:37Z</time>
  <course>353.69</course>
  <speed>1.1595257651298656</speed>
  <fix>3d</fix>
</trkpt>
<trkpt lat="40.0712659" lon="-105.2294384">
  <ele>1583.0</ele>
  <time>2026-08-28T17:56:37Z</time>
  <course>333.41</course>
  <speed>1.18</speed>
  <fix>3d</fix>
</trkpt>
<trkpt lat="40.0712692" lon="-105.2294403">
  <ele>1583.16</ele>
  <time>2026-08-28T17:56:37Z</time>
  <course>354.78</course>
  <speed>1.1515641536623134</speed>
  <fix>3d</fix>
</trkpt>
<trkpt lat="40.0712678" lon="-105.2294397">
  <ele>1583.0</ele>
  <time>2026-08-28T17:56:37Z</time>
  <course>334.83</course>
  <speed>1.18</speed>
  <fix>3d</fix>
</trkpt>
<trkpt lat="40.0712701" lon="-105.2294409">
  <ele>1583.16</ele>
  <time>2026-08-28T17:56:37Z</time>
  <course>355.82</course>
  <speed>1.1476933388322859</speed>
  <fix>3d</fix>
</trkpt>
<trkpt lat="40.0712678" lon="-105.2294397">
  <ele>1583.0</ele>
  <time>2026-08-28T17:56:37Z</time>
  <course>334.83</course>
  <speed>1.18</speed>
  <fix>3d</fix>
</trkpt>
<trkpt lat="40.0712711" lon="-105.2294414">
  <ele>1583.16</ele>
  <time>2026-08-28T17:56:37Z</time>
  <course>356.83</course>
  <speed>1.149478142462918</speed>
  <fix>3d</fix>
</trkpt>
<trkpt lat="40.0712697" lon="-105.2294408">
  <ele>1583.0</ele>
  <time>2026-08-28T17:56:37Z</time>
  <course>336.3</course>
  <speed>1.17</speed>
  <fix>3d</fix>
</trkpt>
<trkpt lat="40.0712721" lon="-105.2294419">
  <ele>1583.16</ele>
  <time>2026-08-28T17:56:37Z</time>
  <course>357.82</course>
  <speed>1.1423221962301178</speed>
  <fix>3d</fix>
</trkpt>
<trkpt lat="40.0712697" lon="-105.2294408">
  <ele>1583.0</ele>
  <time>2026-08-28T17:56:37Z</time>
  <course>336.3</course>
  <speed>1.17</speed>
  <fix>3d</fix>
</trkpt>
<trkpt lat="40.0712731" lon="-105.2294424">
  <ele>1583.16</ele>
  <time>2026-08-28T17:56:37Z</time>
  <course>358.75</course>
  <speed>1.138859078200635</speed>
  <fix>3d</fix>
</trkpt>
<trkpt lat="40.0712716" lon="-105.2294419">
  <ele>1583.0</ele>
  <time>2026-08-28T17:56:37Z</time>
  <course>337.8</course>
  <speed>1.16</speed>
  <fix>3d</fix>
</trkpt>
<trkpt lat="40.071274" lon="-105.2294429">
  <ele>1583.16</ele>
  <time>2026-08-28T17:56:37Z</time>
  <course>359.65</course>
  <speed>1.1321660655575223</speed>
  <fix>3d</fix>
</trkpt>
<trkpt lat="40.0712716" lon="-105.2294419">
  <ele>1583.0</ele>
  <time>2026-08-28T17:56:37Z</time>
  <course>337.8</course>
  <speed>1.16</speed>
  <fix>3d</fix>
</trkpt>
<trkpt lat="40.071275" lon="-105.2294433">
  <ele>1583.16</ele>
  <time>2026-08-28T17:56:37Z</time>
  <course>0.5</course>
  <speed>1.1257886124845995</speed>
  <fix>3d</fix>
</trkpt>
<trkpt lat="40.0712736" lon="-105.2294429">
  <ele>1583.0</ele>
  <time>2026-08-28T17:56:37Z</time>
  <course>339.33</course>
  <speed>1.15</speed>
  <fix>3d</fix>
</trkpt>
<trkpt lat="40.0712759" lon="-105.2294438">
  <ele>1583.16</ele>
  <time>2026-08-28T17:56:37Z</time>
  <course>1.32</course>
  <speed>1.1227199116431488</speed>
  <fix>3d</fix>
</trkpt>
<trkpt lat="40.0712736" lon="-105.2294429">
  <ele>1583.0</ele>
  <time>2026-08-28T17:56:37Z</time>
  <course>339.33</course>
  <speed>1.15</speed>
  <fix>3d</fix>
</trkpt>
<trkpt lat="40.0712767" lon="-105.2294441">
  <ele>1583.16</ele>
  <time>2026-08-28T17:56:37Z</time>
  <course>1.93</course>
  <speed>1.1168258592994702</speed>
  <fix>3d</fix>
</trkpt>
<trkpt lat="40.0712755" lon="-105.2294438">
  <ele>1583.0</ele>
  <time>2026-08-28T17:56:37Z</time>
  <course>340.86</course>
  <speed>1.15</speed>
  <fix>3d</fix>
</trkpt>
<trkpt lat="40.0712777" lon="-105.2294445">
  <ele>1583.16</ele>
  <time>2026-08-28T17:56:37Z</time>
  <course>2.67</course>
  <speed>1.1140017953306898</speed>
  <fix>3d</fix>
</trkpt>
<trkpt lat="40.0712755" lon="-105.2294438">
  <ele>1583.0</ele>
  <time>2026-08-28T17:56:37Z</time>
  <course>340.86</course>
  <speed>1.15</speed>
  <fix>3d</fix>
</trkpt>
<trkpt lat="40.0712786" lon="-105.2294449">
  <ele>1583.16</ele>
  <time>2026-08-28T17:56:37Z</time>
  <course>3.36</course>
  <speed>1.1086027241532468</speed>
  <fix>3d</fix>
</trkpt>
<trkpt lat="40.0712775" lon="-105.2294446">
  <ele>1583.0</ele>
  <time>2026-08-28T17:56:37Z</time>
  <course>342.38</course>
  <speed>1.14</speed>
  <fix>3d</fix>
</trkpt>
<trkpt lat="40.0712796" lon="-105.2294453">
  <ele>1583.16</ele>
  <time>2026-08-28T17:56:37Z</time>
  <course>4.0</course>
  <speed>1.0963576058932596</speed>
  <fix>3d</fix>
</trkpt>
<trkpt lat="40.0712775" lon="-105.2294446">
  <ele>1583.0</ele>
  <time>2026-08-28T17:56:37Z</time>
  <course>342.38</course>
  <speed>1.14</speed>
  <fix>3d</fix>
</trkpt>
<trkpt lat="40.0712806" lon="-105.2294456">
  <ele>1583.15</ele>
  <time>2026-08-28T17:56:37Z</time>
  <course>4.6</course>
  <speed>1.0914210919713803</speed>
  <fix>3d</fix>
</trkpt>
<trkpt lat="40.0712795" lon="-105.2294454">
  <ele>1583.0</ele>
  <time>2026-08-28T17:56:37Z</time>
  <course>343.89</course>
  <speed>1.13</speed>
  <fix>3d</fix>
</trkpt>
<trkpt lat="40.0712816" lon="-105.2294459">
  <ele>1583.15</ele>
  <time>2026-08-28T17:56:37Z</time>
  <course>5.15</course>
  <speed>1.0868302535354821</speed>
  <fix>3d</fix>
</trkpt>
<trkpt lat="40.0712795" lon="-105.2294454">
  <ele>1583.0</ele>
  <time>2026-08-28T17:56:37Z</time>
  <course>343.89</course>
  <speed>1.13</speed>
  <fix>3d</fix>
</trkpt>
<trkpt lat="40.0712825" lon="-105.2294462">
  <ele>1583.15</ele>
  <time>2026-08-28T17:56:37Z</time>
  <course>5.65</course>
  <speed>1.084665847162157</speed>
  <fix>3d</fix>
</trkpt>
<trkpt lat="40.0712814" lon="-105.2294461">
  <ele>1583.0</ele>
  <time>2026-08-28T17:56:37Z</time>
  <course>345.37</course>
  <speed>1.12</speed>
  <fix>3d</fix>
</trkpt>
<trkpt lat="40.0712835" lon="-105.2294465">
  <ele>1583.15</ele>
  <time>2026-08-28T17:56:37Z</time>
  <course>6.11</course>
  <speed>1.0806016842481785</speed>
  <fix>3d</fix>
</trkpt>
<trkpt lat="40.0712814" lon="-105.2294461">
  <ele>1583.0</ele>
  <time>2026-08-28T17:56:37Z</time>
  <course>345.37</course>
  <speed>1.12</speed>
  <fix>3d</fix>
</trkpt>
<trkpt lat="40.0712845" lon="-105.2294468">
  <ele>1583.15</ele>
  <time>2026-08-28T17:56:37Z</time>
  <course>6.52</course>
  <speed>1.078702924812944</speed>
  <fix>3d</fix>
</trkpt>
<trkpt lat="40.0712834" lon="-105.2294468">
  <ele>1583.0</ele>
  <time>2026-08-28T17:56:37Z</time>
  <course>346.81</course>
  <speed>1.11</speed>
  <fix>3d</fix>
</trkpt>
<trkpt lat="40.0712855" lon="-105.2294471">
  <ele>1583.14</ele>
  <time>2026-08-28T17:56:37Z</time>
  <course>6.88</course>
  <speed>1.067052013727541</speed>
  <fix>3d</fix>
</trkpt>
<trkpt lat="40.0712834" lon="-105.2294468">
  <ele>1583.0</ele>
  <time>2026-08-28T17:56:37Z</time>
  <course>346.81</course>
  <speed>1.11</speed>
  <fix>3d</fix>
</trkpt>
<trkpt lat="40.0712866" lon="-105.2294474">
  <ele>1583.14</ele>
  <time>2026-08-28T17:56:37Z</time>
  <course>7.24</course>
  <speed>1.0636728820459793</speed>
  <fix>3d</fix>
</trkpt>
<trkpt lat="40.0712853" lon="-105.2294473">
  <ele>1583.0</ele>
  <time>2026-08-28T17:56:37Z</time>
  <course>348.2</course>
  <speed>1.09</speed>
  <fix>3d</fix>
</trkpt>
<trkpt lat="40.0712876" lon="-105.2294476">
  <ele>1583.14</ele>
  <time>2026-08-28T17:56:37Z</time>
  <course>7.5</course>
  <speed>1.0621205204683695</speed>
  <fix>3d</fix>
</trkpt>
<trkpt lat="40.0712853" lon="-105.2294473">
  <ele>1583.0</ele>
  <time>2026-08-28T17:56:37Z</time>
  <course>348.2</course>
  <speed>1.09</speed>
  <fix>3d</fix>
</trkpt>
<trkpt lat="40.0712885" lon="-105.2294478">
  <ele>1583.14</ele>
  <time>2026-08-28T17:56:37Z</time>
  <course>7.7</course>
  <speed>1.0493807697875923</speed>
  <fix>3d</fix>
</trkpt>
<trkpt lat="40.0712872" lon="-105.2294478">
  <ele>1583.0</ele>
  <time>2026-08-28T17:56:37Z</time>
  <course>349.53</course>
  <speed>1.08</speed>
  <fix>3d</fix>
</trkpt>
<trkpt lat="40.0712895" lon="-105.229448">
  <ele>1583.14</ele>
  <time>2026-08-28T17:56:37Z</time>
  <course>7.86</course>
  <speed>1.0480935072788113</speed>
  <fix>3d</fix>
</trkpt>
<trkpt lat="40.0712872" lon="-105.2294478">
  <ele>1583.0</ele>
  <time>2026-08-28T17:56:37Z</time>
  <course>349.53</course>
  <speed>1.08</speed>
  <fix>3d</fix>
</trkpt>
<trkpt lat="40.0712904" lon="-105.2294482">
  <ele>1583.15</ele>
  <time>2026-08-28T17:56:37Z</time>
  <course>7.98</course>
  <speed>1.046900186264192</speed>
  <fix>3d</fix>
</trkpt>
<trkpt lat="40.0712891" lon="-105.2294483">
  <ele>1583.0</ele>
  <time>2026-08-28T17:56:37Z</time>
  <course>350.8</course>
  <speed>1.07</speed>
  <fix>3d</fix>
</trkpt>
<trkpt lat="40.0712914" lon="-105.2294484">
  <ele>1583.15</ele>
  <time>2026-08-28T17:56:37Z</time>
  <course>8.04</course>
  <speed>1.035857133006285</speed>
  <fix>3d</fix>
</trkpt>
<trkpt lat="40.0712891" lon="-105.2294483">
  <ele>1583.0</ele>
  <time>2026-08-28T17:56:37Z</time>
  <course>350.8</course>
  <speed>1.07</speed>
  <fix>3d</fix>
</trkpt>
<trkpt lat="40.0712923" lon="-105.2294485">
  <ele>1583.15</ele>
  <time>2026-08-28T17:56:37Z</time>
  <course>8.07</course>
  <speed>1.034842983258813</speed>
  <fix>3d</fix>
</trkpt>
<trkpt lat="40.071291" lon="-105.2294486">
  <ele>1583.0</ele>
  <time>2026-08-28T17:56:37Z</time>
  <course>351.99</course>
  <speed>1.06</speed>
  <fix>3d</fix>
</trkpt>
<trkpt lat="40.0712933" lon="-105.2294487">
  <ele>1583.15</ele>
  <time>2026-08-28T17:56:37Z</time>
  <course>8.04</course>
  <speed>1.0239628899525608</speed>
  <fix>3d</fix>
</trkpt>
<trkpt lat="40.071291" lon="-105.2294486">
  <ele>1583.0</ele>
  <time>2026-08-28T17:56:37Z</time>
  <course>351.99</course>
  <speed>1.06</speed>
  <fix>3d</fix>
</trkpt>
<trkpt lat="40.0712942" lon="-105.2294488">
  <ele>1583.16</ele>
  <time>2026-08-28T17:56:37Z</time>
  <course>7.98</course>
  <speed>1.0231324449942931</speed>
  <fix>3d</fix>
</trkpt>
<trkpt lat="40.0712929" lon="-105.2294489">
  <ele>1583.0</ele>
  <time>2026-08-28T17:56:37Z</time>
  <course>353.09</course>
  <speed>1.05</speed>
  <fix>3d</fix>
</trkpt>
<trkpt lat="40.0712951" lon="-105.2294489">
  <ele>1583.16</ele>
  <time>2026-08-28T17:56:37Z</time>
  <course>7.86</course>
  <speed>1.0124228365658294</speed>
  <fix>3d</fix>
</trkpt>
<trkpt lat="40.0712929" lon="-105.2294489">
  <ele>1583.0</ele>
  <time>2026-08-28T17:56:37Z</time>
  <course>353.09</course>
  <speed>1.05</speed>
  <fix>3d</fix>
</trkpt>
<trkpt lat="40.071296" lon="-105.229449">
  <ele>1583.16</ele>
  <time>2026-08-28T17:56:37Z</time>
  <course>7.7</course>
  <speed>1.0117806086301515</speed>
  <fix>3d</fix>
</trkpt>
<trkpt lat="40.0712948" lon="-105.2294492">
  <ele>1583.0</ele>
  <time>2026-08-28T17:56:37Z</time>
  <course>354.11</course>
  <speed>1.04</speed>
  <fix>3d</fix>
</trkpt>
<trkpt lat="40.0712968" lon="-105.2294491">
  <ele>1583.16</ele>
  <time>2026-08-28T17:56:37Z</time>
  <course>7.55</course>
  <speed>1.0012492197250393</speed>
  <fix>3d</fix>
</trkpt>
<trkpt lat="40.0712948" lon="-105.2294492">
  <ele>1583.0</ele>
  <time>2026-08-28T17:56:37Z</time>
  <course>354.11</course>
  <speed>1.04</speed>
  <fix>3d</fix>
</trkpt>
<trkpt lat="40.0712977" lon="-105.2294492">
  <ele>1583.16</ele>
  <time>2026-08-28T17:56:37Z</time>
  <course>7.3</course>
  <speed>1.0012492197250393</speed>
  <fix>3d</fix>
</trkpt>
<trkpt lat="40.0712967" lon="-105.2294494">
  <ele>1583.0</ele>
  <time>2026-08-28T17:56:37Z</time>
  <course>355.03</course>
  <speed>1.03</speed>
  <fix>3d</fix>
</trkpt>
<trkpt lat="40.0712986" lon="-105.2294493">
  <ele>1583.15</ele>
  <time>2026-08-28T17:56:37Z</time>
  <course>7.01</course>
  <speed>1.0007996802557444</speed>
  <fix>3d</fix>
</trkpt>
<trkpt lat="40.0712967" lon="-105.2294494">
  <ele>1583.0</ele>
  <time>2026-08-28T17:56:37Z</time>
  <course>355.03</course>
  <speed>1.03</speed>
  <fix>3d</fix>
</trkpt>
<trkpt lat="40.0712995" lon="-105.2294494">
  <ele>1583.15</ele>
  <time>2026-08-28T17:56:37Z</time>
  <course>6.69</course>
  <speed>0.9904544411531506</speed>
  <fix>3d</fix>
</trkpt>
<trkpt lat="40.0712985" lon="-105.2294497">
  <ele>1583.0</ele>
  <time>2026-08-28T17:56:37Z</time>
  <course>355.86</course>
  <speed>1.02</speed>
  <fix>3d</fix>
</trkpt>
<trkpt lat="40.0713004" lon="-105.2294495">
  <ele>1583.15</ele>
  <time>2026-08-28T17:56:37Z</time>
  <course>6.34</course>
  <speed>0.9904544411531506</speed>
  <fix>3d</fix>
</trkpt>
<trkpt lat="40.0712985" lon="-105.2294497">
  <ele>1583.0</ele>
  <time>2026-08-28T17:56:37Z</time>
  <course>355.86</course>
  <speed>1.02</speed>
  <fix>3d</fix>
</trkpt>
<trkpt lat="40.0713013" lon="-105.2294495">
  <ele>1583.15</ele>
  <time>2026-08-28T17:56:37Z</time>
  <course>5.95</course>
  <speed>0.9802040603874276</speed>
  <fix>3d</fix>
</trkpt>
<trkpt lat="40.0713004" lon="-105.2294498">
  <ele>1583.0</ele>
  <time>2026-08-28T17:56:37Z</time>
  <course>356.58</course>
  <speed>1.01</speed>
  <fix>3d</fix>
</trkpt>
<trkpt lat="40.0713022" lon="-105.2294496">
  <ele>1583.15</ele>
  <time>2026-08-28T17:56:37Z</time>
  <course>5.51</course>
  <speed>0.9802040603874276</speed>
  <fix>3d</fix>
</trkpt>
<trkpt lat="40.0713004" lon="-105.2294498">
  <ele>1583.0</ele>
  <time>2026-08-28T17:56:37Z</time>
  <course>356.58</course>
  <speed>1.01</speed>
  <fix>3d</fix>
</trkpt>
<trkpt lat="40.0713032" lon="-105.2294497">
  <ele>1583.15</ele>
  <time>2026-08-28T17:56:37Z</time>
  <course>5.06</course>
  <speed>0.9800510190801294</speed>
  <fix>3d</fix>
</trkpt>
<trkpt lat="40.0713022" lon="-105.2294499">
  <ele>1583.0</ele>
  <time>2026-08-28T17:56:37Z</time>
  <course>357.19</course>
  <speed>1.01</speed>
  <fix>3d</fix>
</trkpt>
<trkpt lat="40.0713041" lon="-105.2294497">
  <ele>1583.15</ele>
  <time>2026-08-28T17:56:37Z</time>
  <course>4.57</course>
  <speed>0.970051545022222</speed>
  <fix>3d</fix>
</trkpt>
<trkpt lat="40.0713022" lon="-105.2294499">
  <ele>1583.0</ele>
  <time>2026-08-28T17:56:37Z</time>
  <course>357.19</course>
  <speed>1.01</speed>
  <fix>3d</fix>
</trkpt>
<trkpt lat="40.0713051" lon="-105.2294498">
  <ele>1583.15</ele>
  <time>2026-08-28T17:56:37Z</time>
  <course>3.93</course>
  <speed>0.97</speed>
  <fix>3d</fix>
</trkpt>
<trkpt lat="40.071304" lon="-105.22945">
  <ele>1583.0</ele>
  <time>2026-08-28T17:56:37Z</time>
  <course>357.7</course>
  <speed>1.0</speed>
  <fix>3d</fix>
</trkpt>
<trkpt lat="40.071306" lon="-105.2294498">
  <ele>1583.15</ele>
  <time>2026-08-28T17:56:37Z</time>
  <course>3.38</course>
  <speed>0.97</speed>
  <fix>3d</fix>
</trkpt>
<trkpt lat="40.071304" lon="-105.22945">
  <ele>1583.0</ele>
  <time>2026-08-28T17:56:37Z</time>
  <course>357.7</course>
  <speed>1.0</speed>
  <fix>3d</fix>
</trkpt>
<trkpt lat="40.0713069" lon="-105.2294498">
  <ele>1583.15</ele>
  <time>2026-08-28T17:56:37Z</time>
  <course>2.79</course>
  <speed>0.96</speed>
  <fix>3d</fix>
</trkpt>
<trkpt lat="40.0713058" lon="-105.2294501">
  <ele>1583.0</ele>
  <time>2026-08-28T17:56:37Z</time>
  <course>358.09</course>
  <speed>0.99</speed>
  <fix>3d</fix>
</trkpt>
<trkpt lat="40.0713078" lon="-105.2294499">
  <ele>1583.15</ele>
  <time>2026-08-28T17:56:37Z</time>
  <course>2.19</course>
  <speed>0.96</speed>
  <fix>3d</fix>
</trkpt>
<trkpt lat="40.0713058" lon="-105.2294501">
  <ele>1583.0</ele>
  <time>2026-08-28T17:56:37Z</time>
  <course>358.09</course>
  <speed>0.99</speed>
  <fix>3d</fix>
</trkpt>
<trkpt lat="40.0713087" lon="-105.2294499">
  <ele>1583.15</ele>
  <time>2026-08-28T17:56:37Z</time>
  <course>1.56</course>
  <speed>0.96</speed>
  <fix>3d</fix>
</trkpt>
<trkpt lat="40.0713076" lon="-105.2294502">
  <ele>1583.0</ele>
  <time>2026-08-28T17:56:37Z</time>
  <course>358.37</course>
  <speed>0.98</speed>
  <fix>3d</fix>
</trkpt>
<trkpt lat="40.0713096" lon="-105.2294499">
  <ele>1583.15</ele>
  <time>2026-08-28T17:56:37Z</time>
  <course>0.9</course>
  <speed>0.96</speed>
  <fix>3d</fix>
</trkpt>
<trkpt lat="40.0713076" lon="-105.2294502">
  <ele>1583.0</ele>
  <time>2026-08-28T17:56:37Z</time>
  <course>358.37</course>
  <speed>0.98</speed>
  <fix>3d</fix>
</trkpt>
<trkpt lat="40.0713105" lon="-105.22945">
  <ele>1583.15</ele>
  <time>2026-08-28T17:56:37Z</time>
  <course>0.25</course>
  <speed>0.95</speed>
  <fix>3d</fix>
</trkpt>
<trkpt lat="40.0713094" lon="-105.2294503">
  <ele>1583.0</ele>
  <time>2026-08-28T17:56:37Z</time>
  <course>358.54</course>
  <speed>0.98</speed>
  <fix>3d</fix>
</trkpt>
<trkpt lat="40.0713114" lon="-105.22945">
  <ele>1583.15</ele>
  <time>2026-08-28T17:56:37Z</time>
  <course>359.57</course>
  <speed>0.95</speed>
  <fix>3d</fix>
</trkpt>
<trkpt lat="40.0713094" lon="-105.2294503">
  <ele>1583.0</ele>
  <time>2026-08-28T17:56:37Z</time>
  <course>358.54</course>
  <speed>0.98</speed>
  <fix>3d</fix>
</trkpt>
<trkpt lat="40.0713122" lon="-105.22945">
  <ele>1583.14</ele>
  <time>2026-08-28T17:56:37Z</time>
  <course>358.87</course>
  <speed>0.95</speed>
  <fix>3d</fix>
</trkpt>
<trkpt lat="40.0713111" lon="-105.2294503">
  <ele>1583.0</ele>
  <time>2026-08-28T17:56:37Z</time>
  <course>358.6</course>
  <speed>0.97</speed>
  <fix>3d</fix>
</trkpt>
<trkpt lat="40.0713131" lon="-105.2294501">
  <ele>1583.14</ele>
  <time>2026-08-28T17:56:37Z</time>
  <course>358.17</course>
  <speed>0.94</speed>
  <fix>3d</fix>
</trkpt>
<trkpt lat="40.0713111" lon="-105.2294503">
  <ele>1583.0</ele>
  <time>2026-08-28T17:56:37Z</time>
  <course>358.6</course>
  <speed>0.97</speed>
  <fix>3d</fix>
</trkpt>
<trkpt lat="40.071314" lon="-105.2294501">
  <ele>1583.14</ele>
  <time>2026-08-28T17:56:37Z</time>
  <course>357.43</course>
  <speed>0.94</speed>
  <fix>3d</fix>
</trkpt>
<trkpt lat="40.0713128" lon="-105.2294503">
  <ele>1583.0</ele>
  <time>2026-08-28T17:56:37Z</time>
  <course>358.55</course>
  <speed>0.97</speed>
  <fix>3d</fix>
</trkpt>
<trkpt lat="40.0713148" lon="-105.2294501">
  <ele>1583.14</ele>
  <time>2026-08-28T17:56:37Z</time>
  <course>356.71</course>
  <speed>0.94</speed>
  <fix>3d</fix>
</trkpt>
<trkpt lat="40.0713128" lon="-105.2294503">
  <ele>1583.0</ele>
  <time>2026-08-28T17:56:37Z</time>
  <course>358.55</course>
  <speed>0.97</speed>
  <fix>3d</fix>
</trkpt>
<trkpt lat="40.0713155" lon="-105.2294502">
  <ele>1583.14</ele>
  <time>2026-08-28T17:56:37Z</time>
  <course>356.1</course>
  <speed>0.94</speed>
  <fix>3d</fix>
</trkpt>
<trkpt lat="40.0713146" lon="-105.2294504">
  <ele>1583.0</ele>
  <time>2026-08-28T17:56:37Z</time>
  <course>358.4</course>
  <speed>0.96</speed>
  <fix>3d</fix>
</trkpt>
<trkpt lat="40.0713164" lon="-105.2294502">
  <ele>1583.14</ele>
  <time>2026-08-28T17:56:37Z</time>
  <course>355.35</course>
  <speed>0.94</speed>
  <fix>3d</fix>
</trkpt>
<trkpt lat="40.0713146" lon="-105.2294504">
  <ele>1583.0</ele>
  <time>2026-08-28T17:56:37Z</time>
  <course>358.4</course>
  <speed>0.96</speed>
  <fix>3d</fix>
</trkpt>
<trkpt lat="40.0713172" lon="-105.2294502">
  <ele>1583.14</ele>
  <time>2026-08-28T17:56:37Z</time>
  <course>354.58</course>
  <speed>0.9300537618869137</speed>
  <fix>3d</fix>
</trkpt>
<trkpt lat="40.0713163" lon="-105.2294505">
  <ele>1583.0</ele>
  <time>2026-08-28T17:56:37Z</time>
  <course>358.14</course>
  <speed>0.96</speed>
  <fix>3d</fix>
</trkpt>
<trkpt lat="40.0713181" lon="-105.2294503">
  <ele>1583.15</ele>
  <time>2026-08-28T17:56:37Z</time>
  <course>353.81</course>
  <speed>0.9300537618869137</speed>
  <fix>3d</fix>
</trkpt>
<trkpt lat="40.0713163" lon="-105.2294505">
  <ele>1583.0</ele>
  <time>2026-08-28T17:56:37Z</time>
  <course>358.14</course>
  <speed>0.96</speed>
  <fix>3d</fix>
</trkpt>
<trkpt lat="40.071319" lon="-105.2294503">
  <ele>1583.15</ele>
  <time>2026-08-28T17:56:37Z</time>
  <course>353.03</course>
  <speed>0.9300537618869137</speed>
  <fix>3d</fix>
</trkpt>
<trkpt lat="40.071318" lon="-105.2294506">
  <ele>1583.0</ele>
  <time>2026-08-28T17:56:37Z</time>
  <course>357.78</course>
  <speed>0.95</speed>
  <fix>3d</fix>
</trkpt>
<trkpt lat="40.0713198" lon="-105.2294504">
  <ele>1583.15</ele>
  <time>2026-08-28T17:56:37Z</time>
  <course>352.24</course>
  <speed>0.9302150289046076</speed>
  <fix>3d</fix>
</trkpt>
<trkpt lat="40.071318" lon="-105.2294506">
  <ele>1583.0</ele>
  <time>2026-08-28T17:56:37Z</time>
  <course>357.78</course>
  <speed>0.95</speed>
  <fix>3d</fix>
</trkpt>
<trkpt lat="40.0713207" lon="-105.2294504">
  <ele>1583.14</ele>
  <time>2026-08-28T17:56:37Z</time>
  <course>351.49</course>
  <speed>0.9302150289046076</speed>
  <fix>3d</fix>
</trkpt>
<trkpt lat="40.0713198" lon="-105.2294507">
  <ele>1583.0</ele>
  <time>2026-08-28T17:56:37Z</time>
  <course>357.32</course>
  <speed>0.95</speed>
  <fix>3d</fix>
</trkpt>
<trkpt lat="40.0713216" lon="-105.2294505">
  <ele>1583.14</ele>
  <time>2026-08-28T17:56:37Z</time>
  <course>350.74</course>
  <speed>0.9304837451562494</speed>
  <fix>3d</fix>
</trkpt>
<trkpt lat="40.0713198" lon="-105.2294507">
  <ele>1583.0</ele>
  <time>2026-08-28T17:56:37Z</time>
  <course>357.32</course>
  <speed>0.95</speed>
  <fix>3d</fix>
</trkpt>
<trkpt lat="40.0713224" lon="-105.2294506">
  <ele>1583.14</ele>
  <time>2026-08-28T17:56:37Z</time>
  <course>349.97</course>
  <speed>0.9304837451562494</speed>
  <fix>3d</fix>
</trkpt>
<trkpt lat="40.0713215" lon="-105.2294508">
  <ele>1583.0</ele>
  <time>2026-08-28T17:56:37Z</time>
  <course>356.77</course>
  <speed>0.95</speed>
  <fix>3d</fix>
</trkpt>
<trkpt lat="40.0713234" lon="-105.2294507">
  <ele>1583.14</ele>
  <time>2026-08-28T17:56:37Z</time>
  <course>349.05</course>
  <speed>0.920869154657707</speed>
  <fix>3d</fix>
</trkpt>
<trkpt lat="40.0713215" lon="-105.2294508">
  <ele>1583.0</ele>
  <time>2026-08-28T17:56:37Z</time>
  <course>356.77</course>
  <speed>0.95</speed>
  <fix>3d</fix>
</trkpt>
<trkpt lat="40.0713243" lon="-105.2294508">
  <ele>1583.14</ele>
  <time>2026-08-28T17:56:37Z</time>
  <course>348.33</course>
  <speed>0.9213576938409967</speed>
  <fix>3d</fix>
</trkpt>
<trkpt lat="40.0713232" lon="-105.2294509">
  <ele>1583.0</ele>
  <time>2026-08-28T17:56:37Z</time>
  <course>356.15</course>
  <speed>0.95</speed>
  <fix>3d</fix>
</trkpt>
<trkpt lat="40.0713251" lon="-105.2294509">
  <ele>1583.14</ele>
  <time>2026-08-28T17:56:37Z</time>
  <course>347.59</course>
  <speed>0.9213576938409967</speed>
  <fix>3d</fix>
</trkpt>
<trkpt lat="40.0713232" lon="-105.2294509">
  <ele>1583.0</ele>
  <time>2026-08-28T17:56:37Z</time>
  <course>356.15</course>
  <speed>0.95</speed>
  <fix>3d</fix>
</trkpt>
<trkpt lat="40.071326" lon="-105.229451">
  <ele>1583.14</ele>
  <time>2026-08-28T17:56:37Z</time>
  <course>346.88</course>
  <speed>0.9219544457292888</speed>
  <fix>3d</fix>
</trkpt>
<trkpt lat="40.0713249" lon="-105.2294511">
  <ele>1583.0</ele>
  <time>2026-08-28T17:56:37Z</time>
  <course>355.44</course>
  <speed>0.94</speed>
  <fix>3d</fix>
</trkpt>
<trkpt lat="40.0713269" lon="-105.2294511">
  <ele>1583.13</ele>
  <time>2026-08-28T17:56:37Z</time>
  <course>346.15</course>
  <speed>0.9226592003551474</speed>
  <fix>3d</fix>
</trkpt>
<trkpt lat="40.0713249" lon="-105.2294511">
  <ele>1583.0</ele>
  <time>2026-08-28T17:56:37Z</time>
  <course>355.44</course>
  <speed>0.94</speed>
  <fix>3d</fix>
</trkpt>
<trkpt lat="40.0713277" lon="-105.2294512">
  <ele>1583.13</ele>
  <time>2026-08-28T17:56:37Z</time>
  <course>345.48</course>
  <speed>0.9226592003551474</speed>
  <fix>3d</fix>
</trkpt>
<trkpt lat="40.0713266" lon="-105.2294512">
  <ele>1583.0</ele>
  <time>2026-08-28T17:56:37Z</time>
  <course>354.68</course>
  <speed>0.94</speed>
  <fix>3d</fix>
</trkpt>
<trkpt lat="40.0713286" lon="-105.2294513">
  <ele>1583.13</ele>
  <time>2026-08-28T17:56:37Z</time>
  <course>344.81</course>
  <speed>0.9234717104492156</speed>
  <fix>3d</fix>
</trkpt>
<trkpt lat="40.0713266" lon="-105.2294512">
  <ele>1583.0</ele>
  <time>2026-08-28T17:56:37Z</time>
  <course>354.68</course>
  <speed>0.94</speed>
  <fix>3d</fix>
</trkpt>
<trkpt lat="40.0713294" lon="-105.2294514">
  <ele>1583.12</ele>
  <time>2026-08-28T17:56:37Z</time>
  <course>344.13</course>
  <speed>0.9243916918709297</speed>
  <fix>3d</fix>
</trkpt>
<trkpt lat="40.0713283" lon="-105.2294515">
  <ele>1583.0</ele>
  <time>2026-08-28T17:56:37Z</time>
  <course>353.85</course>
  <speed>0.94</speed>
  <fix>3d</fix>
</trkpt>
<trkpt lat="40.0713302" lon="-105.2294515">
  <ele>1583.12</ele>
  <time>2026-08-28T17:56:37Z</time>
  <course>343.5</course>
  <speed>0.9243916918709297</speed>
  <fix>3d</fix>
</trkpt>
<trkpt lat="40.0713283" lon="-105.2294515">
  <ele>1583.0</ele>
  <time>2026-08-28T17:56:37Z</time>
  <course>353.85</course>
  <speed>0.94</speed>
  <fix>3d</fix>
</trkpt>
<trkpt lat="40.0713311" lon="-105.2294517">
  <ele>1583.12</ele>
  <time>2026-08-28T17:56:37Z</time>
  <course>342.87</course>
  <speed>0.9254188241007419</speed>
  <fix>3d</fix>
</trkpt>
<trkpt lat="40.07133" lon="-105.2294517">
  <ele>1583.0</ele>
  <time>2026-08-28T17:56:37Z</time>
  <course>352.99</course>
  <speed>0.94</speed>
  <fix>3d</fix>
</trkpt>
<trkpt lat="40.0713319" lon="-105.2294518">
  <ele>1583.12</ele>
  <time>2026-08-28T17:56:37Z</time>
  <course>342.26</course>
  <speed>0.9166242414424789</speed>
  <fix>3d</fix>
</trkpt>
<trkpt lat="40.07133" lon="-105.2294517">
  <ele>1583.0</ele>
  <time>2026-08-28T17:56:37Z</time>
  <course>352.99</course>
  <speed>0.94</speed>
  <fix>3d</fix>
</trkpt>
<trkpt lat="40.0713327" lon="-105.229452">
  <ele>1583.12</ele>
  <time>2026-08-28T17:56:37Z</time>
  <course>341.69</course>
  <speed>0.9178779875342911</speed>
  <fix>3d</fix>
</trkpt>
<trkpt lat="40.0713316" lon="-105.229452">
  <ele>1583.0</ele>
  <time>2026-08-28T17:56:37Z</time>
  <course>352.08</course>
  <speed>0.94</speed>
  <fix>3d</fix>
</trkpt>
<trkpt lat="40.0713334" lon="-105.2294521">
  <ele>1583.12</ele>
  <time>2026-08-28T17:56:37Z</time>
  <course>341.25</course>
  <speed>0.9178779875342911</speed>
  <fix>3d</fix>
</trkpt>
<trkpt lat="40.0713316" lon="-105.229452">
  <ele>1583.0</ele>
  <time>2026-08-28T17:56:37Z</time>
  <course>352.08</course>
  <speed>0.94</speed>
  <fix>3d</fix>
</trkpt>
<trkpt lat="40.0713342" lon="-105.2294523">
  <ele>1583.12</ele>
  <time>2026-08-28T17:56:37Z</time>
  <course>340.7</course>
  <speed>0.9192388155425119</speed>
  <fix>3d</fix>
</trkpt>
<trkpt lat="40.0713333" lon="-105.2294524">
  <ele>1583.0</ele>
  <time>2026-08-28T17:56:37Z</time>
  <course>351.15</course>
  <speed>0.94</speed>
  <fix>3d</fix>
</trkpt>
<trkpt lat="40.0713351" lon="-105.2294525">
  <ele>1583.12</ele>
  <time>2026-08-28T17:56:37Z</time>
  <course>340.2</course>
  <speed>0.9207062506576134</speed>
  <fix>3d</fix>
</trkpt>
<trkpt lat="40.0713333" lon="-105.2294524">
  <ele>1583.0</ele>
  <time>2026-08-28T17:56:37Z</time>
  <course>351.15</course>
  <speed>0.94</speed>
  <fix>3d</fix>
</trkpt>
<trkpt lat="40.0713359" lon="-105.2294527">
  <ele>1583.12</ele>
  <time>2026-08-28T17:56:37Z</time>
  <course>339.7</course>
  <speed>0.9222797840135064</speed>
  <fix>3d</fix>
</trkpt>
<trkpt lat="40.071335" lon="-105.2294527">
  <ele>1583.0</ele>
  <time>2026-08-28T17:56:37Z</time>
  <course>350.2</course>
  <speed>0.94</speed>
  <fix>3d</fix>
</trkpt>
<trkpt lat="40.0713367" lon="-105.2294529">
  <ele>1583.13</ele>
  <time>2026-08-28T17:56:37Z</time>
  <course>339.24</course>
  <speed>0.9222797840135064</speed>
  <fix>3d</fix>
</trkpt>
<trkpt lat="40.071335" lon="-105.2294527">
  <ele>1583.0</ele>
  <time>2026-08-28T17:56:37Z</time>
  <course>350.2</course>
  <speed>0.94</speed>
  <fix>3d</fix>
</trkpt>
<trkpt lat="40.0713376" lon="-105.2294531">
  <ele>1583.13</ele>
  <time>2026-08-28T17:56:37Z</time>
  <course>338.79</course>
  <speed>0.9239588735436226</speed>
  <fix>3d</fix>
</trkpt>
<trkpt lat="40.0713367" lon="-105.2294532">
  <ele>1583.0</ele>
  <time>2026-08-28T17:56:37Z</time>
  <course>349.24</course>
  <speed>0.94</speed>
  <fix>3d</fix>
</trkpt>
<trkpt lat="40.0713384" lon="-105.2294534">
  <ele>1583.13</ele>
  <time>2026-08-28T17:56:37Z</time>
  <course>338.39</course>
  <speed>0.9257429448826494</speed>
  <fix>3d</fix>
</trkpt>
<trkpt lat="40.0713367" lon="-105.2294532">
  <ele>1583.0</ele>
  <time>2026-08-28T17:56:37Z</time>
  <course>349.24</course>
  <speed>0.94</speed>
  <fix>3d</fix>
</trkpt>
<trkpt lat="40.0713393" lon="-105.2294536">
  <ele>1583.13</ele>
  <time>2026-08-28T17:56:37Z</time>
  <course>337.99</course>
  <speed>0.9276313923105448</speed>
  <fix>3d</fix>
</trkpt>
<trkpt lat="40.0713383" lon="-105.2294536">
  <ele>1583.0</ele>
  <time>2026-08-28T17:56:37Z</time>
  <course>348.28</course>
  <speed>0.94</speed>
  <fix>3d</fix>
</trkpt>
<trkpt lat="40.0713401" lon="-105.2294538">
  <ele>1583.13</ele>
  <time>2026-08-28T17:56:37Z</time>
  <course>337.61</course>
  <speed>0.929623579735368</speed>
  <fix>3d</fix>
</trkpt>
<trkpt lat="40.0713383" lon="-105.2294536">
  <ele>1583.0</ele>
  <time>2026-08-28T17:56:37Z</time>
  <course>348.28</course>
  <speed>0.94</speed>
  <fix>3d</fix>
</trkpt>
<trkpt lat="40.0713411" lon="-105.2294541">
  <ele>1583.13</ele>
  <time>2026-08-28T17:56:37Z</time>
  <course>337.2</course>
  <speed>0.9219544457292888</speed>
  <fix>3d</fix>
</trkpt>
<trkpt lat="40.07134" lon="-105.229454">
  <ele>1583.0</ele>
  <time>2026-08-28T17:56:37Z</time>
  <course>347.34</course>
  <speed>0.94</speed>
  <fix>3d</fix>
</trkpt>
<trkpt lat="40.0713419" lon="-105.2294544">
  <ele>1583.13</ele>
  <time>2026-08-28T17:56:37Z</time>
  <course>336.9</course>
  <speed>0.9219544457292888</speed>
  <fix>3d</fix>
</trkpt>
<trkpt lat="40.07134" lon="-105.229454">
  <ele>1583.0</ele>
  <time>2026-08-28T17:56:37Z</time>
  <course>347.34</course>
  <speed>0.94</speed>
  <fix>3d</fix>
</trkpt>
<trkpt lat="40.0713428" lon="-105.2294547">
  <ele>1583.12</ele>
  <time>2026-08-28T17:56:37Z</time>
  <course>336.64</course>
  <speed>0.9241753080449618</speed>
  <fix>3d</fix>
</trkpt>
<trkpt lat="40.0713417" lon="-105.2294545">
  <ele>1583.0</ele>
  <time>2026-08-28T17:56:37Z</time>
  <course>346.41</course>
  <speed>0.94</speed>
  <fix>3d</fix>
</trkpt>
<trkpt lat="40.0713436" lon="-105.229455">
  <ele>1583.12</ele>
  <time>2026-08-28T17:56:37Z</time>
  <course>336.39</course>
  <speed>0.9264987857520376</speed>
  <fix>3d</fix>
</trkpt>
<trkpt lat="40.0713417" lon="-105.2294545">
  <ele>1583.0</ele>
  <time>2026-08-28T17:56:37Z</time>
  <course>346.41</course>
  <speed>0.94</speed>
  <fix>3d</fix>
</trkpt>
<trkpt lat="40.0713444" lon="-105.2294552">
  <ele>1583.12</ele>
  <time>2026-08-28T17:56:37Z</time>
  <course>336.14</course>
  <speed>0.9264987857520376</speed>
  <fix>3d</fix>
</trkpt>
<trkpt lat="40.0713433" lon="-105.2294551">
  <ele>1583.0</ele>
  <time>2026-08-28T17:56:37Z</time>
  <course>345.51</course>
  <speed>0.95</speed>
  <fix>3d</fix>
</trkpt>
<trkpt lat="40.0713452" lon="-105.2294555">
  <ele>1583.12</ele>
  <time>2026-08-28T17:56:37Z</time>
  <course>335.97</course>
  <speed>0.9289241088485108</speed>
  <fix>3d</fix>
</trkpt>
<trkpt lat="40.0713433" lon="-105.2294551">
  <ele>1583.0</ele>
  <time>2026-08-28T17:56:37Z</time>
  <course>345.51</course>
  <speed>0.95</speed>
  <fix>3d</fix>
</trkpt>
<trkpt lat="40.0713461" lon="-105.2294559">
  <ele>1583.12</ele>
  <time>2026-08-28T17:56:37Z</time>
  <course>335.82</course>
  <speed>0.9314504817756014</speed>
  <fix>3d</fix>
</trkpt>
<trkpt lat="40.0713449" lon="-105.2294556">
  <ele>1583.0</ele>
  <time>2026-08-28T17:56:37Z</time>
  <course>344.64</course>
  <speed>0.95</speed>
  <fix>3d</fix>
</trkpt>
<trkpt lat="40.0713469" lon="-105.2294562">
  <ele>1583.12</ele>
  <time>2026-08-28T17:56:37Z</time>
  <course>335.67</course>
  <speed>0.9314504817756014</speed>
  <fix>3d</fix>
</trkpt>
<trkpt lat="40.0713449" lon="-105.2294556">
  <ele>1583.0</ele>
  <time>2026-08-28T17:56:37Z</time>
  <course>344.64</course>
  <speed>0.95</speed>
  <fix>3d</fix>
</trkpt>
<trkpt lat="40.0713477" lon="-105.2294565">
  <ele>1583.12</ele>
  <time>2026-08-28T17:56:37Z</time>
  <course>335.56</course>
  <speed>0.9340770846134703</speed>
  <fix>3d</fix>
</trkpt>
<trkpt lat="40.0713466" lon="-105.2294563">
  <ele>1583.0</ele>
  <time>2026-08-28T17:56:37Z</time>
  <course>343.81</course>
  <speed>0.95</speed>
  <fix>3d</fix>
</trkpt>
<trkpt lat="40.0713485" lon="-105.2294568">
  <ele>1583.12</ele>
  <time>2026-08-28T17:56:37Z</time>
  <course>335.48</course>
  <speed>0.9272000862812729</speed>
  <fix>3d</fix>
</trkpt>
<trkpt lat="40.0713466" lon="-105.2294563">
  <ele>1583.0</ele>
  <time>2026-08-28T17:56:37Z</time>
  <course>343.81</course>
  <speed>0.95</speed>
  <fix>3d</fix>
</trkpt>
<trkpt lat="40.0713493" lon="-105.2294571">
  <ele>1583.12</ele>
  <time>2026-08-28T17:56:37Z</time>
  <course>335.39</course>
  <speed>0.9272000862812729</speed>
  <fix>3d</fix>
</trkpt>
<trkpt lat="40.0713482" lon="-105.2294569">
  <ele>1583.0</ele>
  <time>2026-08-28T17:56:37Z</time>
  <course>343.04</course>
  <speed>0.95</speed>
  <fix>3d</fix>
</trkpt>
<trkpt lat="40.07135" lon="-105.2294574">
  <ele>1583.12</ele>
  <time>2026-08-28T17:56:37Z</time>
  <course>335.35</course>
  <speed>0.9300537618869137</speed>
  <fix>3d</fix>
</trkpt>
<trkpt lat="40.0713482" lon="-105.2294569">
  <ele>1583.0</ele>
  <time>2026-08-28T17:56:37Z</time>
  <course>343.04</course>
  <speed>0.95</speed>
  <fix>3d</fix>
</trkpt>
<trkpt lat="40.0713508" lon="-105.2294577">
  <ele>1583.12</ele>
  <time>2026-08-28T17:56:37Z</time>
  <course>335.3</course>
  <speed>0.9300537618869137</speed>
  <fix>3d</fix>
</trkpt>
<trkpt lat="40.0713499" lon="-105.2294576">
  <ele>1583.0</ele>
  <time>2026-08-28T17:56:37Z</time>
  <course>342.31</course>
  <speed>0.95</speed>
  <fix>3d</fix>
</trkpt>
<trkpt lat="40.0713516" lon="-105.2294581">
  <ele>1583.12</ele>
  <time>2026-08-28T17:56:37Z</time>
  <course>335.27</course>
  <speed>0.9330058949438638</speed>
  <fix>3d</fix>
</trkpt>
<trkpt lat="40.0713499" lon="-105.2294576">
  <ele>1583.0</ele>
  <time>2026-08-28T17:56:37Z</time>
  <course>342.31</course>
  <speed>0.95</speed>
  <fix>3d</fix>
</trkpt>
<trkpt lat="40.0713524" lon="-105.2294585">
  <ele>1583.12</ele>
  <time>2026-08-28T17:56:37Z</time>
  <course>335.32</course>
  <speed>0.9330058949438638</speed>
  <fix>3d</fix>
</trkpt>
<trkpt lat="40.0713515" lon="-105.2294583">
  <ele>1583.0</ele>
  <time>2026-08-28T17:56:37Z</time>
  <course>341.63</course>
  <speed>0.95</speed>
  <fix>3d</fix>
</trkpt>
<trkpt lat="40.0713532" lon="-105.2294588">
  <ele>1583.13</ele>
  <time>2026-08-28T17:56:37Z</time>
  <course>335.37</course>
  <speed>0.9360555539069249</speed>
  <fix>3d</fix>
</trkpt>
<trkpt lat="40.0713515" lon="-105.2294583">
  <ele>1583.0</ele>
  <time>2026-08-28T17:56:37Z</time>
  <course>341.63</course>
  <speed>0.95</speed>
  <fix>3d</fix>
</trkpt>
<trkpt lat="40.071354" lon="-105.2294592">
  <ele>1583.13</ele>
  <time>2026-08-28T17:56:37Z</time>
  <course>335.45</course>
  <speed>0.9360555539069249</speed>
  <fix>3d</fix>
</trkpt>
<trkpt lat="40.0713532" lon="-105.229459">
  <ele>1583.0</ele>
  <time>2026-08-28T17:56:37Z</time>
  <course>341.01</course>
  <speed>0.96</speed>
  <fix>3d</fix>
</trkpt>
<trkpt lat="40.0713549" lon="-105.2294596">
  <ele>1583.13</ele>
  <time>2026-08-28T17:56:37Z</time>
  <course>335.55</course>
  <speed>0.9392017887546851</speed>
  <fix>3d</fix>
</trkpt>
<trkpt lat="40.0713532" lon="-105.229459">
  <ele>1583.0</ele>
  <time>2026-08-28T17:56:37Z</time>
  <course>341.01</course>
  <speed>0.96</speed>
  <fix>3d</fix>
</trkpt>
<trkpt lat="40.0713557" lon="-105.22946">
  <ele>1583.14</ele>
  <time>2026-08-28T17:56:37Z</time>
  <course>335.66</course>
  <speed>0.9392017887546851</speed>
  <fix>3d</fix>
</trkpt>
<trkpt lat="40.0713547" lon="-105.2294598">
  <ele>1583.0</ele>
  <time>2026-08-28T17:56:37Z</time>
  <course>340.46</course>
  <speed>0.96</speed>
  <fix>3d</fix>
</trkpt>
<trkpt lat="40.0713565" lon="-105.2294604">
  <ele>1583.14</ele>
  <time>2026-08-28T17:56:37Z</time>
  <course>335.8</course>
  <speed>0.942443632266673</speed>
  <fix>3d</fix>
</trkpt>
<trkpt lat="40.0713547" lon="-105.2294598">
  <ele>1583.0</ele>
  <time>2026-08-28T17:56:37Z</time>
  <course>340.46</course>
  <speed>0.96</speed>
  <fix>3d</fix>
</trkpt>
<trkpt lat="40.0713573" lon="-105.2294608">
  <ele>1583.14</ele>
  <time>2026-08-28T17:56:37Z</time>
  <course>336.0</course>
  <speed>0.942443632266673</speed>
  <fix>3d</fix>
</trkpt>
<trkpt lat="40.0713564" lon="-105.2294605">
  <ele>1583.0</ele>
  <time>2026-08-28T17:56:37Z</time>
  <course>339.97</course>
  <speed>0.96</speed>
  <fix>3d</fix>
</trkpt>
<trkpt lat="40.0713583" lon="-105.2294613">
  <ele>1583.14</ele>
  <time>2026-08-28T17:56:37Z</time>
  <course>336.24</course>
  <speed>0.9457801012920498</speed>
  <fix>3d</fix>
</trkpt>
<trkpt lat="40.0713564" lon="-105.2294605">
  <ele>1583.0</ele>
  <time>2026-08-28T17:56:37Z</time>
  <course>339.97</course>
  <speed>0.96</speed>
  <fix>3d</fix>
</trkpt>
<trkpt lat="40.0713591" lon="-105.2294617">
  <ele>1583.15</ele>
  <time>2026-08-28T17:56:37Z</time>
  <course>336.44</course>
  <speed>0.9457801012920498</speed>
  <fix>3d</fix>
</trkpt>
<trkpt lat="40.0713581" lon="-105.2294613">
  <ele>1583.0</ele>
  <time>2026-08-28T17:56:37Z</time>
  <course>339.54</course>
  <speed>0.96</speed>
  <fix>3d</fix>
</trkpt>
<trkpt lat="40.0713599" lon="-105.2294621">
  <ele>1583.15</ele>
  <time>2026-08-28T17:56:37Z</time>
  <course>336.64</course>
  <speed>0.9457801012920498</speed>
  <fix>3d</fix>
</trkpt>
<trkpt lat="40.0713581" lon="-105.2294613">
  <ele>1583.0</ele>
  <time>2026-08-28T17:56:37Z</time>
  <course>339.54</course>
  <speed>0.96</speed>
  <fix>3d</fix>
</trkpt>
<trkpt lat="40.0713608" lon="-105.2294625">
  <ele>1583.15</ele>
  <time>2026-08-28T17:56:37Z</time>
  <course>336.85</course>
  <speed>0.9457801012920498</speed>
  <fix>3d</fix>
</trkpt>
<trkpt lat="40.0713597" lon="-105.2294621">
  <ele>1583.0</ele>
  <time>2026-08-28T17:56:37Z</time>
  <course>339.19</course>
  <speed>0.96</speed>
  <fix>3d</fix>
</trkpt>
<trkpt lat="40.0713616" lon="-105.2294629">
  <ele>1583.16</ele>
  <time>2026-08-28T17:56:37Z</time>
  <course>337.1</course>
  <speed>0.9492101980067429</speed>
  <fix>3d</fix>
</trkpt>
<trkpt lat="40.0713597" lon="-105.2294621">
  <ele>1583.0</ele>
  <time>2026-08-28T17:56:37Z</time>
  <course>339.19</course>
  <speed>0.96</speed>
  <fix>3d</fix>
</trkpt>
<trkpt lat="40.0713624" lon="-105.2294633">
  <ele>1583.16</ele>
  <time>2026-08-28T17:56:37Z</time>
  <course>337.35</course>
  <speed>0.9492101980067429</speed>
  <fix>3d</fix>
</trkpt>
<trkpt lat="40.0713612" lon="-105.2294628">
  <ele>1583.0</ele>
  <time>2026-08-28T17:56:37Z</time>
  <course>338.9</course>
  <speed>0.96</speed>
  <fix>3d</fix>
</trkpt>
<trkpt lat="40.0713632" lon="-105.2294637">
  <ele>1583.17</ele>
  <time>2026-08-28T17:56:37Z</time>
  <course>337.64</course>
  <speed>0.9492101980067429</speed>
  <fix>3d</fix>
</trkpt>
<trkpt lat="40.0713612" lon="-105.2294628">
  <ele>1583.0</ele>
  <time>2026-08-28T17:56:37Z</time>
  <course>338.9</course>
  <speed>0.96</speed>
  <fix>3d</fix>
</trkpt>
<trkpt lat="40.071364" lon="-105.2294641">
  <ele>1583.17</ele>
  <time>2026-08-28T17:56:37Z</time>
  <course>337.94</course>
  <speed>0.9492101980067429</speed>
  <fix>3d</fix>
</trkpt>
<trkpt lat="40.0713629" lon="-105.2294637">
  <ele>1583.0</ele>
  <time>2026-08-28T17:56:37Z</time>
  <course>338.67</course>
  <speed>0.97</speed>
  <fix>3d</fix>
</trkpt>
<trkpt lat="40.0713648" lon="-105.2294645">
  <ele>1583.17</ele>
  <time>2026-08-28T17:56:37Z</time>
  <course>338.24</course>
  <speed>0.9492101980067429</speed>
  <fix>3d</fix>
</trkpt>
<trkpt lat="40.0713629" lon="-105.2294637">
  <ele>1583.0</ele>
  <time>2026-08-28T17:56:37Z</time>
  <course>338.67</course>
  <speed>0.97</speed>
  <fix>3d</fix>
</trkpt>
<trkpt lat="40.0713656" lon="-105.2294649">
  <ele>1583.17</ele>
  <time>2026-08-28T17:56:37Z</time>
  <course>338.57</course>
  <speed>0.9492101980067429</speed>
  <fix>3d</fix>
</trkpt>
<trkpt lat="40.0713645" lon="-105.2294646">
  <ele>1583.0</ele>
  <time>2026-08-28T17:56:37Z</time>
  <course>338.51</course>
  <speed>0.97</speed>
  <fix>3d</fix>
</trkpt>
<trkpt lat="40.0713664" lon="-105.2294654">
  <ele>1583.17</ele>
  <time>2026-08-28T17:56:37Z</time>
  <course>338.89</course>
  <speed>0.9492101980067429</speed>
  <fix>3d</fix>
</trkpt>
<trkpt lat="40.0713645" lon="-105.2294646">
  <ele>1583.0</ele>
  <time>2026-08-28T17:56:37Z</time>
  <course>338.51</course>
  <speed>0.97</speed>
  <fix>3d</fix>
</trkpt>
<trkpt lat="40.0713671" lon="-105.2294657">
  <ele>1583.17</ele>
  <time>2026-08-28T17:56:37Z</time>
  <course>339.13</course>
  <speed>0.9492101980067429</speed>
  <fix>3d</fix>
</trkpt>
<trkpt lat="40.0713662" lon="-105.2294654">
  <ele>1583.0</ele>
  <time>2026-08-28T17:56:37Z</time>
  <course>338.42</course>
  <speed>0.97</speed>
  <fix>3d</fix>
</trkpt>
<trkpt lat="40.0713679" lon="-105.2294661">
  <ele>1583.18</ele>
  <time>2026-08-28T17:56:37Z</time>
  <course>339.43</course>
  <speed>0.9492101980067429</speed>
  <fix>3d</fix>
</trkpt>
<trkpt lat="40.0713662" lon="-105.2294654">
  <ele>1583.0</ele>
  <time>2026-08-28T17:56:37Z</time>
  <course>338.42</course>
  <speed>0.97</speed>
  <fix>3d</fix>
</trkpt>
<trkpt lat="40.0713687" lon="-105.2294665">
  <ele>1583.17</ele>
  <time>2026-08-28T17:56:37Z</time>
  <course>339.78</course>
  <speed>0.9492101980067429</speed>
  <fix>3d</fix>
</trkpt>
<trkpt lat="40.0713678" lon="-105.2294662">
  <ele>1583.0</ele>
  <time>2026-08-28T17:56:37Z</time>
  <course>338.39</course>
  <speed>0.97</speed>
  <fix>3d</fix>
</trkpt>
<trkpt lat="40.0713695" lon="-105.229467">
  <ele>1583.18</ele>
  <time>2026-08-28T17:56:37Z</time>
  <course>340.14</course>
  <speed>0.9492101980067429</speed>
  <fix>3d</fix>
</trkpt>
<trkpt lat="40.0713678" lon="-105.2294662">
  <ele>1583.0</ele>
  <time>2026-08-28T17:56:37Z</time>
  <course>338.39</course>
  <speed>0.97</speed>
  <fix>3d</fix>
</trkpt>
<trkpt lat="40.0713704" lon="-105.2294674">
  <ele>1583.17</ele>
  <time>2026-08-28T17:56:37Z</time>
  <course>340.54</course>
  <speed>0.9492101980067429</speed>
  <fix>3d</fix>
</trkpt>
<trkpt lat="40.0713695" lon="-105.229467">
  <ele>1583.0</ele>
  <time>2026-08-28T17:56:37Z</time>
  <course>338.41</course>
  <speed>0.97</speed>
  <fix>3d</fix>
</trkpt>
<trkpt lat="40.0713712" lon="-105.2294678">
  <ele>1583.17</ele>
  <time>2026-08-28T17:56:37Z</time>
  <course>340.94</course>
  <speed>0.9585927185202274</speed>
  <fix>3d</fix>
</trkpt>
<trkpt lat="40.0713695" lon="-105.229467">
  <ele>1583.0</ele>
  <time>2026-08-28T17:56:37Z</time>
  <course>338.41</course>
  <speed>0.97</speed>
  <fix>3d</fix>
</trkpt>
<trkpt lat="40.071372" lon="-105.2294682">
  <ele>1583.17</ele>
  <time>2026-08-28T17:56:37Z</time>
  <course>341.34</course>
  <speed>0.9585927185202274</speed>
  <fix>3d</fix>
</trkpt>
<trkpt lat="40.071371" lon="-105.2294679">
  <ele>1583.0</ele>
  <time>2026-08-28T17:56:37Z</time>
  <course>338.49</course>
  <speed>0.97</speed>
  <fix>3d</fix>
</trkpt>
<trkpt lat="40.0713728" lon="-105.2294686">
  <ele>1583.17</ele>
  <time>2026-08-28T17:56:37Z</time>
  <course>341.74</course>
  <speed>0.9585927185202274</speed>
  <fix>3d</fix>
</trkpt>
<trkpt lat="40.071371" lon="-105.2294679">
  <ele>1583.0</ele>
  <time>2026-08-28T17:56:37Z</time>
  <course>338.49</course>
  <speed>0.97</speed>
  <fix>3d</fix>
</trkpt>
<trkpt lat="40.0713737" lon="-105.229469">
  <ele>1583.16</ele>
  <time>2026-08-28T17:56:37Z</time>
  <course>342.09</course>
  <speed>0.9585927185202274</speed>
  <fix>3d</fix>
</trkpt>
<trkpt lat="40.0713727" lon="-105.2294688">
  <ele>1583.0</ele>
  <time>2026-08-28T17:56:37Z</time>
  <course>338.63</course>
  <speed>0.98</speed>
  <fix>3d</fix>
</trkpt>
<trkpt lat="40.0713745" lon="-105.2294695">
  <ele>1583.16</ele>
  <time>2026-08-28T17:56:37Z</time>
  <course>342.44</course>
  <speed>0.9585927185202274</speed>
  <fix>3d</fix>
</trkpt>
<trkpt lat="40.0713727" lon="-105.2294688">
  <ele>1583.0</ele>
  <time>2026-08-28T17:56:37Z</time>
  <course>338.63</course>
  <speed>0.98</speed>
  <fix>3d</fix>
</trkpt>
<trkpt lat="40.0713755" lon="-105.22947">
  <ele>1583.16</ele>
  <time>2026-08-28T17:56:37Z</time>
  <course>342.88</course>
  <speed>0.9551963149007642</speed>
  <fix>3d</fix>
</trkpt>
<trkpt lat="40.0713743" lon="-105.2294696">
  <ele>1583.0</ele>
  <time>2026-08-28T17:56:37Z</time>
  <course>338.83</course>
  <speed>0.98</speed>
  <fix>3d</fix>
</trkpt>
<trkpt lat="40.0713763" lon="-105.2294704">
  <ele>1583.16</ele>
  <time>2026-08-28T17:56:37Z</time>
  <course>343.28</course>
  <speed>0.9551963149007642</speed>
  <fix>3d</fix>
</trkpt>
<trkpt lat="40.0713743" lon="-105.2294696">
  <ele>1583.0</ele>
  <time>2026-08-28T17:56:37Z</time>
  <course>338.83</course>
  <speed>0.98</speed>
  <fix>3d</fix>
</trkpt>
<trkpt lat="40.0713771" lon="-105.2294708">
  <ele>1583.15</ele>
  <time>2026-08-28T17:56:37Z</time>
  <course>343.68</course>
  <speed>0.9646242791885347</speed>
  <fix>3d</fix>
</trkpt>
<trkpt lat="40.071376" lon="-105.2294704">
  <ele>1583.0</ele>
  <time>2026-08-28T17:56:37Z</time>
  <course>339.07</course>
  <speed>0.98</speed>
  <fix>3d</fix>
</trkpt>
<trkpt lat="40.071378" lon="-105.2294712">
  <ele>1583.15</ele>
  <time>2026-08-28T17:56:37Z</time>
  <course>344.08</course>
  <speed>0.9646242791885347</speed>
  <fix>3d</fix>
</trkpt>
<trkpt lat="40.071376" lon="-105.2294704">
  <ele>1583.0</ele>
  <time>2026-08-28T17:56:37Z</time>
  <course>339.07</course>
  <speed>0.98</speed>
  <fix>3d</fix>
</trkpt>
<trkpt lat="40.0713788" lon="-105.2294716">
  <ele>1583.15</ele>
  <time>2026-08-28T17:56:37Z</time>
  <course>344.48</course>
  <speed>0.9646242791885347</speed>
  <fix>3d</fix>
</trkpt>
<trkpt lat="40.0713777" lon="-105.2294713">
  <ele>1583.0</ele>
  <time>2026-08-28T17:56:37Z</time>
  <course>339.35</course>
  <speed>0.98</speed>
  <fix>3d</fix>
</trkpt>
<trkpt lat="40.0713796" lon="-105.229472">
  <ele>1583.15</ele>
  <time>2026-08-28T17:56:37Z</time>
  <course>344.84</course>
  <speed>0.9613532129243653</speed>
  <fix>3d</fix>
</trkpt>
<trkpt lat="40.0713777" lon="-105.2294713">
  <ele>1583.0</ele>
  <time>2026-08-28T17:56:37Z</time>
  <course>339.35</course>
  <speed>0.98</speed>
  <fix>3d</fix>
</trkpt>
<trkpt lat="40.0713805" lon="-105.2294724">
  <ele>1583.15</ele>
  <time>2026-08-28T17:56:37Z</time>
  <course>345.19</course>
  <speed>0.9613532129243653</speed>
  <fix>3d</fix>
</trkpt>
<trkpt lat="40.0713793" lon="-105.2294721">
  <ele>1583.0</ele>
  <time>2026-08-28T17:56:37Z</time>
  <course>339.67</course>
  <speed>0.98</speed>
  <fix>3d</fix>
</trkpt>
<trkpt lat="40.0713813" lon="-105.2294728">
  <ele>1583.15</ele>
  <time>2026-08-28T17:56:37Z</time>
  <course>345.54</course>
  <speed>0.9613532129243653</speed>
  <fix>3d</fix>
</trkpt>
<trkpt lat="40.0713793" lon="-105.2294721">
  <ele>1583.0</ele>
  <time>2026-08-28T17:56:37Z</time>
  <course>339.67</course>
  <speed>0.98</speed>
  <fix>3d</fix>
</trkpt>
<trkpt lat="40.0713821" lon="-105.2294732">
  <ele>1583.15</ele>
  <time>2026-08-28T17:56:37Z</time>
  <course>345.89</course>
  <speed>0.9581753492967766</speed>
  <fix>3d</fix>
</trkpt>
<trkpt lat="40.071381" lon="-105.2294728">
  <ele>1583.0</ele>
  <time>2026-08-28T17:56:37Z</time>
  <course>340.03</course>
  <speed>0.98</speed>
  <fix>3d</fix>
</trkpt>
<trkpt lat="40.0713829" lon="-105.2294736">
  <ele>1583.15</ele>
  <time>2026-08-28T17:56:37Z</time>
  <course>346.24</course>
  <speed>0.9676776322722356</speed>
  <fix>3d</fix>
</trkpt>
<trkpt lat="40.071381" lon="-105.2294728">
  <ele>1583.0</ele>
  <time>2026-08-28T17:56:37Z</time>
  <course>340.03</course>
  <speed>0.98</speed>
  <fix>3d</fix>
</trkpt>
<trkpt lat="40.0713838" lon="-105.2294739">
  <ele>1583.15</ele>
  <time>2026-08-28T17:56:37Z</time>
  <course>346.56</course>
  <speed>0.9676776322722356</speed>
  <fix>3d</fix>
</trkpt>
<trkpt lat="40.0713827" lon="-105.2294737">
  <ele>1583.0</ele>
  <time>2026-08-28T17:56:37Z</time>
  <course>340.41</course>
  <speed>0.98</speed>
  <fix>3d</fix>
</trkpt>
<trkpt lat="40.0713844" lon="-105.2294742">
  <ele>1583.15</ele>
  <time>2026-08-28T17:56:37Z</time>
  <course>346.85</course>
  <speed>0.9676776322722356</speed>
  <fix>3d</fix>
</trkpt>
<trkpt lat="40.0713827" lon="-105.2294737">
  <ele>1583.0</ele>
  <time>2026-08-28T17:56:37Z</time>
  <course>340.41</course>
  <speed>0.98</speed>
  <fix>3d</fix>
</trkpt>
<trkpt lat="40.0713853" lon="-105.2294746">
  <ele>1583.15</ele>
  <time>2026-08-28T17:56:37Z</time>
  <course>347.2</course>
  <speed>0.9646242791885347</speed>
  <fix>3d</fix>
</trkpt>
<trkpt lat="40.0713843" lon="-105.2294744">
  <ele>1583.0</ele>
  <time>2026-08-28T17:56:37Z</time>
  <course>340.82</course>
  <speed>0.99</speed>
  <fix>3d</fix>
</trkpt>
<trkpt lat="40.0713861" lon="-105.229475">
  <ele>1583.15</ele>
  <time>2026-08-28T17:56:37Z</time>
  <course>347.55</course>
  <speed>0.9646242791885347</speed>
  <fix>3d</fix>
</trkpt>
<trkpt lat="40.0713843" lon="-105.2294744">
  <ele>1583.0</ele>
  <time>2026-08-28T17:56:37Z</time>
  <course>340.82</course>
  <speed>0.99</speed>
  <fix>3d</fix>
</trkpt>
<trkpt lat="40.071387" lon="-105.2294754">
  <ele>1583.15</ele>
  <time>2026-08-28T17:56:37Z</time>
  <course>347.9</course>
  <speed>0.9616652224137046</speed>
  <fix>3d</fix>
</trkpt>
<trkpt lat="40.071386" lon="-105.2294752">
  <ele>1583.0</ele>
  <time>2026-08-28T17:56:37Z</time>
  <course>341.25</course>
  <speed>0.99</speed>
  <fix>3d</fix>
</trkpt>
<trkpt lat="40.0713878" lon="-105.2294757">
  <ele>1583.15</ele>
  <time>2026-08-28T17:56:37Z</time>
  <course>348.21</course>
  <speed>0.9616652224137046</speed>
  <fix>3d</fix>
</trkpt>
<trkpt lat="40.071386" lon="-105.2294752">
  <ele>1583.0</ele>
  <time>2026-08-28T17:56:37Z</time>
  <course>341.25</course>
  <speed>0.99</speed>
  <fix>3d</fix>
</trkpt>
<trkpt lat="40.0713887" lon="-105.2294761">
  <ele>1583.15</ele>
  <time>2026-08-28T17:56:37Z</time>
  <course>348.51</course>
  <speed>0.9712363255150623</speed>
  <fix>3d</fix>
</trkpt>
<trkpt lat="40.0713877" lon="-105.2294759">
  <ele>1583.0</ele>
  <time>2026-08-28T17:56:37Z</time>
  <course>341.7</course>
  <speed>0.99</speed>
  <fix>3d</fix>
</trkpt>
<trkpt lat="40.0713895" lon="-105.2294765">
  <ele>1583.15</ele>
  <time>2026-08-28T17:56:37Z</time>
  <course>348.81</course>
  <speed>0.9684007434941384</speed>
  <fix>3d</fix>
</trkpt>
<trkpt lat="40.0713877" lon="-105.2294759">
  <ele>1583.0</ele>
  <time>2026-08-28T17:56:37Z</time>
  <course>341.7</course>
  <speed>0.99</speed>
  <fix>3d</fix>
</trkpt>
<trkpt lat="40.0713904" lon="-105.2294768">
  <ele>1583.14</ele>
  <time>2026-08-28T17:56:37Z</time>
  <course>349.07</course>
  <speed>0.9684007434941384</speed>
  <fix>3d</fix>
</trkpt>
<trkpt lat="40.0713894" lon="-105.2294766">
  <ele>1583.0</ele>
  <time>2026-08-28T17:56:37Z</time>
  <course>342.16</course>
  <speed>0.99</speed>
  <fix>3d</fix>
</trkpt>
<trkpt lat="40.0713912" lon="-105.2294772">
  <ele>1583.14</ele>
  <time>2026-08-28T17:56:37Z</time>
  <course>349.33</course>
  <speed>0.9684007434941384</speed>
  <fix>3d</fix>
</trkpt>
<trkpt lat="40.0713894" lon="-105.2294766">
  <ele>1583.0</ele>
  <time>2026-08-28T17:56:37Z</time>
  <course>342.16</course>
  <speed>0.99</speed>
  <fix>3d</fix>
</trkpt>
<trkpt lat="40.0713921" lon="-105.2294775">
  <ele>1583.14</ele>
  <time>2026-08-28T17:56:37Z</time>
  <course>349.58</course>
  <speed>0.9656603957913983</speed>
  <fix>3d</fix>
</trkpt>
<trkpt lat="40.0713911" lon="-105.2294773">
  <ele>1583.0</ele>
  <time>2026-08-28T17:56:37Z</time>
  <course>342.64</course>
  <speed>0.99</speed>
  <fix>3d</fix>
</trkpt>
<trkpt lat="40.0713931" lon="-105.2294779">
  <ele>1583.14</ele>
  <time>2026-08-28T17:56:37Z</time>
  <course>349.88</course>
  <speed>0.9752948272189288</speed>
  <fix>3d</fix>
</trkpt>
<trkpt lat="40.0713911" lon="-105.2294773">
  <ele>1583.0</ele>
  <time>2026-08-28T17:56:37Z</time>
  <course>342.64</course>
  <speed>0.99</speed>
  <fix>3d</fix>
</trkpt>
<trkpt lat="40.071394" lon="-105.2294782">
  <ele>1583.14</ele>
  <time>2026-08-28T17:56:37Z</time>
  <course>350.1</course>
  <speed>0.9726767191621274</speed>
  <fix>3d</fix>
</trkpt>
<trkpt lat="40.0713928" lon="-105.229478">
  <ele>1583.0</ele>
  <time>2026-08-28T17:56:37Z</time>
  <course>343.12</course>
  <speed>0.99</speed>
  <fix>3d</fix>
</trkpt>
<trkpt lat="40.0713948" lon="-105.2294786">
  <ele>1583.14</ele>
  <time>2026-08-28T17:56:37Z</time>
  <course>350.3</course>
  <speed>0.9726767191621274</speed>
  <fix>3d</fix>
</trkpt>
<trkpt lat="40.0713928" lon="-105.229478">
  <ele>1583.0</ele>
  <time>2026-08-28T17:56:37Z</time>
  <course>343.12</course>
  <speed>0.99</speed>
  <fix>3d</fix>
</trkpt>
<trkpt lat="40.0713957" lon="-105.2294789">
  <ele>1583.14</ele>
  <time>2026-08-28T17:56:37Z</time>
  <course>350.5</course>
  <speed>0.9726767191621274</speed>
  <fix>3d</fix>
</trkpt>
<trkpt lat="40.0713945" lon="-105.2294787">
  <ele>1583.0</ele>
  <time>2026-08-28T17:56:37Z</time>
  <course>343.6</course>
  <speed>0.99</speed>
  <fix>3d</fix>
</trkpt>
<trkpt lat="40.0713966" lon="-105.2294792">
  <ele>1583.14</ele>
  <time>2026-08-28T17:56:37Z</time>
  <course>350.7</course>
  <speed>0.9701546268507922</speed>
  <fix>3d</fix>
</trkpt>
<trkpt lat="40.0713945" lon="-105.2294787">
  <ele>1583.0</ele>
  <time>2026-08-28T17:56:37Z</time>
  <course>343.6</course>
  <speed>0.99</speed>
  <fix>3d</fix>
</trkpt>
<trkpt lat="40.0713974" lon="-105.2294795">
  <ele>1583.15</ele>
  <time>2026-08-28T17:56:37Z</time>
  <course>350.9</course>
  <speed>0.9701546268507922</speed>
  <fix>3d</fix>
</trkpt>
<trkpt lat="40.0713962" lon="-105.2294794">
  <ele>1583.0</ele>
  <time>2026-08-28T17:56:37Z</time>
  <course>344.06</course>
  <speed>0.99</speed>
  <fix>3d</fix>
</trkpt>
<trkpt lat="40.0713983" lon="-105.2294798">
  <ele>1583.15</ele>
  <time>2026-08-28T17:56:37Z</time>
  <course>351.05</course>
  <speed>0.9677293009927931</speed>
  <fix>3d</fix>
</trkpt>
<trkpt lat="40.0713962" lon="-105.2294794">
  <ele>1583.0</ele>
  <time>2026-08-28T17:56:37Z</time>
  <course>344.06</course>
  <speed>0.99</speed>
  <fix>3d</fix>
</trkpt>
<trkpt lat="40.0713991" lon="-105.2294801">
  <ele>1583.15</ele>
  <time>2026-08-28T17:56:37Z</time>
  <course>351.2</course>
  <speed>0.9677293009927931</speed>
  <fix>3d</fix>
</trkpt>
<trkpt lat="40.071398" lon="-105.22948">
  <ele>1583.0</ele>
  <time>2026-08-28T17:56:37Z</time>
  <course>344.53</course>
  <speed>0.99</speed>
  <fix>3d</fix>
</trkpt>
<trkpt lat="40.0714" lon="-105.2294804">
  <ele>1583.16</ele>
  <time>2026-08-28T17:56:37Z</time>
  <course>351.35</course>
  <speed>0.9774456506629922</speed>
  <fix>3d</fix>
</trkpt>
<trkpt lat="40.071398" lon="-105.22948">
  <ele>1583.0</ele>
  <time>2026-08-28T17:56:37Z</time>
  <course>344.53</course>
  <speed>0.99</speed>
  <fix>3d</fix>
</trkpt>
<trkpt lat="40.0714009" lon="-105.2294807">
  <ele>1583.16</ele>
  <time>2026-08-28T17:56:37Z</time>
  <course>351.5</course>
  <speed>0.9751410154434076</speed>
  <fix>3d</fix>
</trkpt>
<trkpt lat="40.0713997" lon="-105.2294805">
  <ele>1583.0</ele>
  <time>2026-08-28T17:56:37Z</time>
  <course>344.98</course>
  <speed>0.99</speed>
  <fix>3d</fix>
</trkpt>
<trkpt lat="40.0714017" lon="-105.229481">
  <ele>1583.15</ele>
  <time>2026-08-28T17:56:37Z</time>
  <course>351.65</course>
  <speed>0.9751410154434076</speed>
  <fix>3d</fix>
</trkpt>
<trkpt lat="40.0713997" lon="-105.2294805">
  <ele>1583.0</ele>
  <time>2026-08-28T17:56:37Z</time>
  <course>344.98</course>
  <speed>0.99</speed>
  <fix>3d</fix>
</trkpt>
<trkpt lat="40.0714024" lon="-105.2294813">
  <ele>1583.15</ele>
  <time>2026-08-28T17:56:37Z</time>
  <course>351.77</course>
  <speed>0.9751410154434076</speed>
  <fix>3d</fix>
</trkpt>
<trkpt lat="40.0714014" lon="-105.2294812">
  <ele>1583.0</ele>
  <time>2026-08-28T17:56:37Z</time>
  <course>345.42</course>
  <speed>0.99</speed>
  <fix>3d</fix>
</trkpt>
<trkpt lat="40.0714033" lon="-105.2294816">
  <ele>1583.16</ele>
  <time>2026-08-28T17:56:37Z</time>
  <course>351.87</course>
  <speed>0.9729337079164233</speed>
  <fix>3d</fix>
</trkpt>
<trkpt lat="40.0714014" lon="-105.2294812">
  <ele>1583.0</ele>
  <time>2026-08-28T17:56:37Z</time>
  <course>345.42</course>
  <speed>0.99</speed>
  <fix>3d</fix>
</trkpt>
<trkpt lat="40.0714041" lon="-105.2294818">
  <ele>1583.16</ele>
  <time>2026-08-28T17:56:37Z</time>
  <course>351.95</course>
  <speed>0.9729337079164233</speed>
  <fix>3d</fix>
</trkpt>
<trkpt lat="40.0714031" lon="-105.2294818">
  <ele>1583.0</ele>
  <time>2026-08-28T17:56:37Z</time>
  <course>345.85</course>
  <speed>0.99</speed>
  <fix>3d</fix>
</trkpt>
<trkpt lat="40.071405" lon="-105.2294821">
  <ele>1583.16</ele>
  <time>2026-08-28T17:56:37Z</time>
  <course>352.04</course>
  <speed>0.9729337079164233</speed>
  <fix>3d</fix>
</trkpt>
<trkpt lat="40.0714031" lon="-105.2294818">
  <ele>1583.0</ele>
  <time>2026-08-28T17:56:37Z</time>
  <course>345.85</course>
  <speed>0.99</speed>
  <fix>3d</fix>
</trkpt>
<trkpt lat="40.0714059" lon="-105.2294824">
  <ele>1583.16</ele>
  <time>2026-08-28T17:56:37Z</time>
  <course>352.1</course>
  <speed>0.97082439194738</speed>
  <fix>3d</fix>
</trkpt>
<trkpt lat="40.0714049" lon="-105.2294824">
  <ele>1583.0</ele>
  <time>2026-08-28T17:56:37Z</time>
  <course>346.25</course>
  <speed>0.99</speed>
  <fix>3d</fix>
</trkpt>
<trkpt lat="40.0714068" lon="-105.2294827">
  <ele>1583.16</ele>
  <time>2026-08-28T17:56:37Z</time>
  <course>352.16</course>
  <speed>0.97082439194738</speed>
  <fix>3d</fix>
</trkpt>
<trkpt lat="40.0714049" lon="-105.2294824">
  <ele>1583.0</ele>
  <time>2026-08-28T17:56:37Z</time>
  <course>346.25</course>
  <speed>0.99</speed>
  <fix>3d</fix>
</trkpt>
<trkpt lat="40.0714076" lon="-105.2294829">
  <ele>1583.16</ele>
  <time>2026-08-28T17:56:37Z</time>
  <course>352.21</course>
  <speed>0.97082439194738</speed>
  <fix>3d</fix>
</trkpt>
<trkpt lat="40.0714067" lon="-105.2294829">
  <ele>1583.0</ele>
  <time>2026-08-28T17:56:37Z</time>
  <course>346.63</course>
  <speed>0.99</speed>
  <fix>3d</fix>
</trkpt>
<trkpt lat="40.0714085" lon="-105.2294832">
  <ele>1583.16</ele>
  <time>2026-08-28T17:56:37Z</time>
  <course>352.26</course>
  <speed>0.9688137075826292</speed>
  <fix>3d</fix>
</trkpt>
<trkpt lat="40.0714067" lon="-105.2294829">
  <ele>1583.0</ele>
  <time>2026-08-28T17:56:37Z</time>
  <course>346.63</course>
  <speed>0.99</speed>
  <fix>3d</fix>
</trkpt>
<trkpt lat="40.0714094" lon="-105.2294835">
  <ele>1583.15</ele>
  <time>2026-08-28T17:56:37Z</time>
  <course>352.31</course>
  <speed>0.9786214794290998</speed>
  <fix>3d</fix>
</trkpt>
<trkpt lat="40.0714084" lon="-105.2294834">
  <ele>1583.0</ele>
  <time>2026-08-28T17:56:37Z</time>
  <course>346.99</course>
  <speed>0.99</speed>
  <fix>3d</fix>
</trkpt>
<trkpt lat="40.0714105" lon="-105.2294838">
  <ele>1583.15</ele>
  <time>2026-08-28T17:56:37Z</time>
  <course>352.37</course>
  <speed>0.9786214794290998</speed>
  <fix>3d</fix>
</trkpt>
<trkpt lat="40.0714084" lon="-105.2294834">
  <ele>1583.0</ele>
  <time>2026-08-28T17:56:37Z</time>
  <course>346.99</course>
  <speed>0.99</speed>
  <fix>3d</fix>
</trkpt>
<trkpt lat="40.0714113" lon="-105.229484">
  <ele>1583.15</ele>
  <time>2026-08-28T17:56:37Z</time>
  <course>352.35</course>
  <speed>0.9786214794290998</speed>
  <fix>3d</fix>
</trkpt>
<trkpt lat="40.0714102" lon="-105.2294839">
  <ele>1583.0</ele>
  <time>2026-08-28T17:56:37Z</time>
  <course>347.33</course>
  <speed>0.99</speed>
  <fix>3d</fix>
</trkpt>
<trkpt lat="40.0714122" lon="-105.2294843">
  <ele>1583.15</ele>
  <time>2026-08-28T17:56:37Z</time>
  <course>352.32</course>
  <speed>0.9767292357659824</speed>
  <fix>3d</fix>
</trkpt>
<trkpt lat="40.0714102" lon="-105.2294839">
  <ele>1583.0</ele>
  <time>2026-08-28T17:56:37Z</time>
  <course>347.33</course>
  <speed>0.99</speed>
  <fix>3d</fix>
</trkpt>
<trkpt lat="40.0714131" lon="-105.2294845">
  <ele>1583.15</ele>
  <time>2026-08-28T17:56:37Z</time>
  <course>352.27</course>
  <speed>0.9767292357659824</speed>
  <fix>3d</fix>
</trkpt>
<trkpt lat="40.0714119" lon="-105.2294844">
  <ele>1583.0</ele>
  <time>2026-08-28T17:56:37Z</time>
  <course>347.65</course>
  <speed>0.99</speed>
  <fix>3d</fix>
</trkpt>
<trkpt lat="40.071414" lon="-105.2294848">
  <ele>1583.15</ele>
  <time>2026-08-28T17:56:37Z</time>
  <course>352.22</course>
  <speed>0.9767292357659824</speed>
  <fix>3d</fix>
</trkpt>
<trkpt lat="40.0714119" lon="-105.2294844">
  <ele>1583.0</ele>
  <time>2026-08-28T17:56:37Z</time>
  <course>347.65</course>
  <speed>0.99</speed>
  <fix>3d</fix>
</trkpt>
<trkpt lat="40.0714149" lon="-105.229485">
  <ele>1583.15</ele>
  <time>2026-08-28T17:56:37Z</time>
  <course>352.17</course>
  <speed>0.9767292357659824</speed>
  <fix>3d</fix>
</trkpt>
<trkpt lat="40.0714136" lon="-105.2294849">
  <ele>1583.0</ele>
  <time>2026-08-28T17:56:37Z</time>
  <course>347.93</course>
  <speed>0.99</speed>
  <fix>3d</fix>
</trkpt>
<trkpt lat="40.0714157" lon="-105.2294853">
  <ele>1583.16</ele>
  <time>2026-08-28T17:56:37Z</time>
  <course>352.12</course>
  <speed>0.9749358953285082</speed>
  <fix>3d</fix>
</trkpt>
<trkpt lat="40.0714136" lon="-105.2294849">
  <ele>1583.0</ele>
  <time>2026-08-28T17:56:37Z</time>
  <course>347.93</course>
  <speed>0.99</speed>
  <fix>3d</fix>
</trkpt>
<trkpt lat="40.0714166" lon="-105.2294855">
  <ele>1583.16</ele>
  <time>2026-08-28T17:56:37Z</time>
  <course>352.04</course>
  <speed>0.9749358953285082</speed>
  <fix>3d</fix>
</trkpt>
<trkpt lat="40.0714154" lon="-105.2294854">
  <ele>1583.0</ele>
  <time>2026-08-28T17:56:37Z</time>
  <course>348.19</course>
  <speed>0.99</speed>
  <fix>3d</fix>
</trkpt>
<trkpt lat="40.0714175" lon="-105.2294857">
  <ele>1583.16</ele>
  <time>2026-08-28T17:56:37Z</time>
  <course>351.95</course>
  <speed>0.9749358953285082</speed>
  <fix>3d</fix>
</trkpt>
<trkpt lat="40.0714154" lon="-105.2294854">
  <ele>1583.0</ele>
  <time>2026-08-28T17:56:37Z</time>
  <course>348.19</course>
  <speed>0.99</speed>
  <fix>3d</fix>
</trkpt>
<trkpt lat="40.0714184" lon="-105.2294859">
  <ele>1583.16</ele>
  <time>2026-08-28T17:56:37Z</time>
  <course>351.85</course>
  <speed>0.9749358953285082</speed>
  <fix>3d</fix>
</trkpt>
<trkpt lat="40.0714172" lon="-105.2294859">
  <ele>1583.0</ele>
  <time>2026-08-28T17:56:37Z</time>
  <course>348.41</course>
  <speed>0.99</speed>
  <fix>3d</fix>
</trkpt>
<trkpt lat="40.0714192" lon="-105.2294862">
  <ele>1583.16</ele>
  <time>2026-08-28T17:56:37Z</time>
  <course>351.75</course>
  <speed>0.9749358953285082</speed>
  <fix>3d</fix>
</trkpt>
<trkpt lat="40.0714172" lon="-105.2294859">
  <ele>1583.0</ele>
  <time>2026-08-28T17:56:37Z</time>
  <course>348.41</course>
  <speed>0.99</speed>
  <fix>3d</fix>
</trkpt>
<trkpt lat="40.0714201" lon="-105.2294864">
  <ele>1583.16</ele>
  <time>2026-08-28T17:56:37Z</time>
  <course>351.65</course>
  <speed>0.9749358953285082</speed>
  <fix>3d</fix>
</trkpt>
<trkpt lat="40.0714189" lon="-105.2294864">
  <ele>1583.0</ele>
  <time>2026-08-28T17:56:37Z</time>
  <course>348.6</course>
  <speed>0.99</speed>
  <fix>3d</fix>
</trkpt>
<trkpt lat="40.0714208" lon="-105.2294866">
  <ele>1583.16</ele>
  <time>2026-08-28T17:56:37Z</time>
  <course>351.57</course>
  <speed>0.9749358953285082</speed>
  <fix>3d</fix>
</trkpt>
<trkpt lat="40.0714189" lon="-105.2294864">
  <ele>1583.0</ele>
  <time>2026-08-28T17:56:37Z</time>
  <course>348.6</course>
  <speed>0.99</speed>
  <fix>3d</fix>
</trkpt>
<trkpt lat="40.0714217" lon="-105.2294868">
  <ele>1583.15</ele>
  <time>2026-08-28T17:56:37Z</time>
  <course>351.47</course>
  <speed>0.9732420048477151</speed>
  <fix>3d</fix>
</trkpt>
<trkpt lat="40.0714207" lon="-105.2294869">
  <ele>1583.0</ele>
  <time>2026-08-28T17:56:37Z</time>
  <course>348.76</course>
  <speed>0.99</speed>
  <fix>3d</fix>
</trkpt>
<trkpt lat="40.0714226" lon="-105.229487">
  <ele>1583.15</ele>
  <time>2026-08-28T17:56:37Z</time>
  <course>351.37</course>
  <speed>0.9732420048477151</speed>
  <fix>3d</fix>
</trkpt>
<trkpt lat="40.0714207" lon="-105.2294869">
  <ele>1583.0</ele>
  <time>2026-08-28T17:56:37Z</time>
  <course>348.76</course>
  <speed>0.99</speed>
  <fix>3d</fix>
</trkpt>
<trkpt lat="40.0714234" lon="-105.2294873">
  <ele>1583.15</ele>
  <time>2026-08-28T17:56:37Z</time>
  <course>351.27</course>
  <speed>0.9732420048477151</speed>
  <fix>3d</fix>
</trkpt>
<trkpt lat="40.0714225" lon="-105.2294873">
  <ele>1583.0</ele>
  <time>2026-08-28T17:56:37Z</time>
  <course>348.9</course>
  <speed>0.99</speed>
  <fix>3d</fix>
</trkpt>
<trkpt lat="40.0714243" lon="-105.2294875">
  <ele>1583.15</ele>
  <time>2026-08-28T17:56:37Z</time>
  <course>351.13</course>
  <speed>0.9732420048477151</speed>
  <fix>3d</fix>
</trkpt>
<trkpt lat="40.0714225" lon="-105.2294873">
  <ele>1583.0</ele>
  <time>2026-08-28T17:56:37Z</time>
  <course>348.9</course>
  <speed>0.99</speed>
  <fix>3d</fix>
</trkpt>
<trkpt lat="40.0714252" lon="-105.2294877">
  <ele>1583.15</ele>
  <time>2026-08-28T17:56:37Z</time>
  <course>351.0</course>
  <speed>0.9732420048477151</speed>
  <fix>3d</fix>
</trkpt>
<trkpt lat="40.0714242" lon="-105.2294877">
  <ele>1583.0</ele>
  <time>2026-08-28T17:56:37Z</time>
  <course>349.0</course>
  <speed>0.99</speed>
  <fix>3d</fix>
</trkpt>
<trkpt lat="40.0714261" lon="-105.229488">
  <ele>1583.15</ele>
  <time>2026-08-28T17:56:37Z</time>
  <course>350.85</course>
  <speed>0.9732420048477151</speed>
  <fix>3d</fix>
</trkpt>
<trkpt lat="40.0714242" lon="-105.2294877">
  <ele>1583.0</ele>
  <time>2026-08-28T17:56:37Z</time>
  <course>349.0</course>
  <speed>0.99</speed>
  <fix>3d</fix>
</trkpt>
<trkpt lat="40.071427" lon="-105.2294882">
  <ele>1583.14</ele>
  <time>2026-08-28T17:56:37Z</time>
  <course>350.7</course>
  <speed>0.9732420048477151</speed>
  <fix>3d</fix>
</trkpt>
<trkpt lat="40.071426" lon="-105.2294882">
  <ele>1583.0</ele>
  <time>2026-08-28T17:56:37Z</time>
  <course>349.06</course>
  <speed>0.99</speed>
  <fix>3d</fix>
</trkpt>
<trkpt lat="40.0714279" lon="-105.2294884">
  <ele>1583.14</ele>
  <time>2026-08-28T17:56:37Z</time>
  <course>350.55</course>
  <speed>0.9732420048477151</speed>
  <fix>3d</fix>
</trkpt>
<trkpt lat="40.071426" lon="-105.2294882">
  <ele>1583.0</ele>
  <time>2026-08-28T17:56:38Z</time>
  <course>349.06</course>
  <speed>0.99</speed>
  <fix>3d</fix>
</trkpt>
<trkpt lat="40.0714289" lon="-105.2294887">
  <ele>1583.13</ele>
  <time>2026-08-28T17:56:38Z</time>
  <course>350.37</course>
  <speed>0.9732420048477151</speed>
  <fix>3d</fix>
</trkpt>
<trkpt lat="40.0714277" lon="-105.2294886">
  <ele>1583.0</ele>
  <time>2026-08-28T17:56:38Z</time>
  <course>349.1</course>
  <speed>0.99</speed>
  <fix>3d</fix>
</trkpt>
<trkpt lat="40.0714298" lon="-105.2294889">
  <ele>1583.13</ele>
  <time>2026-08-28T17:56:38Z</time>
  <course>350.2</course>
  <speed>0.9732420048477151</speed>
  <fix>3d</fix>
</trkpt>
<trkpt lat="40.0714277" lon="-105.2294886">
  <ele>1583.0</ele>
  <time>2026-08-28T17:56:38Z</time>
  <course>349.1</course>
  <speed>0.99</speed>
  <fix>3d</fix>
</trkpt>
<trkpt lat="40.0714307" lon="-105.2294891">
  <ele>1583.12</ele>
  <time>2026-08-28T17:56:38Z</time>
  <course>350.12</course>
  <speed>0.9732420048477151</speed>
  <fix>3d</fix>
</trkpt>
<trkpt lat="40.0714295" lon="-105.2294891">
  <ele>1583.0</ele>
  <time>2026-08-28T17:56:38Z</time>
  <course>349.11</course>
  <speed>0.99</speed>
  <fix>3d</fix>
</trkpt>
<trkpt lat="40.0714316" lon="-105.2294893">
  <ele>1583.12</ele>
  <time>2026-08-28T17:56:38Z</time>
  <course>350.08</course>
  <speed>0.9732420048477151</speed>
  <fix>3d</fix>
</trkpt>
<trkpt lat="40.0714295" lon="-105.2294891">
  <ele>1583.0</ele>
  <time>2026-08-28T17:56:38Z</time>
  <course>349.11</course>
  <speed>0.99</speed>
  <fix>3d</fix>
</trkpt>
<trkpt lat="40.0714325" lon="-105.2294896">
  <ele>1583.12</ele>
  <time>2026-08-28T17:56:38Z</time>
  <course>350.09</course>
  <speed>0.9732420048477151</speed>
  <fix>3d</fix>
</trkpt>
<trkpt lat="40.0714313" lon="-105.2294895">
  <ele>1583.0</ele>
  <time>2026-08-28T17:56:38Z</time>
  <course>349.1</course>
  <speed>0.99</speed>
  <fix>3d</fix>
</trkpt>
<trkpt lat="40.0714333" lon="-105.2294898">
  <ele>1583.12</ele>
  <time>2026-08-28T17:56:38Z</time>
  <course>350.15</course>
  <speed>0.9633794683301072</speed>
  <fix>3d</fix>
</trkpt>
<trkpt lat="40.0714313" lon="-105.2294895">
  <ele>1583.0</ele>
  <time>2026-08-28T17:56:38Z</time>
  <course>349.1</course>
  <speed>0.99</speed>
  <fix>3d</fix>
</trkpt>
<trkpt lat="40.0714342" lon="-105.22949">
  <ele>1583.11</ele>
  <time>2026-08-28T17:56:38Z</time>
  <course>350.26</course>
  <speed>0.9633794683301072</speed>
  <fix>3d</fix>
</trkpt>
<trkpt lat="40.071433" lon="-105.22949">
  <ele>1583.0</ele>
  <time>2026-08-28T17:56:38Z</time>
  <course>349.09</course>
  <speed>0.99</speed>
  <fix>3d</fix>
</trkpt>
<trkpt lat="40.0714351" lon="-105.2294902">
  <ele>1583.11</ele>
  <time>2026-08-28T17:56:38Z</time>
  <course>350.46</course>
  <speed>0.9535197952848173</speed>
  <fix>3d</fix>
</trkpt>
<trkpt lat="40.071433" lon="-105.22949">
  <ele>1583.0</ele>
  <time>2026-08-28T17:56:38Z</time>
  <course>349.09</course>
  <speed>0.99</speed>
  <fix>3d</fix>
</trkpt>
<trkpt lat="40.0714359" lon="-105.2294904">
  <ele>1583.11</ele>
  <time>2026-08-28T17:56:38Z</time>
  <course>350.77</course>
  <speed>0.9436630754670864</speed>
  <fix>3d</fix>
</trkpt>
<trkpt lat="40.0714347" lon="-105.2294904">
  <ele>1583.0</ele>
  <time>2026-08-28T17:56:38Z</time>
  <course>349.09</course>
  <speed>0.97</speed>
  <fix>3d</fix>
</trkpt>
<trkpt lat="40.0714367" lon="-105.2294907">
  <ele>1583.11</ele>
  <time>2026-08-28T17:56:38Z</time>
  <course>351.16</course>
  <speed>0.9222797840135064</speed>
  <fix>3d</fix>
</trkpt>
<trkpt lat="40.0714347" lon="-105.2294904">
  <ele>1583.0</ele>
  <time>2026-08-28T17:56:38Z</time>
  <course>349.09</course>
  <speed>0.97</speed>
  <fix>3d</fix>
</trkpt>
<trkpt lat="40.0714376" lon="-105.2294909">
  <ele>1583.11</ele>
  <time>2026-08-28T17:56:38Z</time>
  <course>351.71</course>
  <speed>0.902551937563706</speed>
  <fix>3d</fix>
</trkpt>
<trkpt lat="40.0714365" lon="-105.2294909">
  <ele>1583.0</ele>
  <time>2026-08-28T17:56:38Z</time>
  <course>349.12</course>
  <speed>0.95</speed>
  <fix>3d</fix>
</trkpt>
<trkpt lat="40.0714382" lon="-105.229491">
  <ele>1583.11</ele>
  <time>2026-08-28T17:56:38Z</time>
  <course>352.24</course>
  <speed>0.8926925562588724</speed>
  <fix>3d</fix>
</trkpt>
<trkpt lat="40.0714365" lon="-105.2294909">
  <ele>1583.0</ele>
  <time>2026-08-28T17:56:38Z</time>
  <course>349.12</course>
  <speed>0.95</speed>
  <fix>3d</fix>
</trkpt>
<trkpt lat="40.071439" lon="-105.2294912">
  <ele>1583.11</ele>
  <time>2026-08-28T17:56:38Z</time>
  <course>352.97</course>
  <speed>0.8614522621712709</speed>
  <fix>3d</fix>
</trkpt>
<trkpt lat="40.0714382" lon="-105.2294912">
  <ele>1583.0</ele>
  <time>2026-08-28T17:56:38Z</time>
  <course>349.17</course>
  <speed>0.91</speed>
  <fix>3d</fix>
</trkpt>
<trkpt lat="40.0714398" lon="-105.2294914">
  <ele>1583.11</ele>
  <time>2026-08-28T17:56:38Z</time>
  <course>353.74</course>
  <speed>0.8318653737234168</speed>
  <fix>3d</fix>
</trkpt>
<trkpt lat="40.0714382" lon="-105.2294912">
  <ele>1583.0</ele>
  <time>2026-08-28T17:56:38Z</time>
  <course>349.17</course>
  <speed>0.91</speed>
  <fix>3d</fix>
</trkpt>
<trkpt lat="40.0714405" lon="-105.2294916">
  <ele>1583.11</ele>
  <time>2026-08-28T17:56:38Z</time>
  <course>354.56</course>
  <speed>0.8006247560499239</speed>
  <fix>3d</fix>
</trkpt>
<trkpt lat="40.0714397" lon="-105.2294917">
  <ele>1583.0</ele>
  <time>2026-08-28T17:56:38Z</time>
  <course>349.21</course>
  <speed>0.85</speed>
  <fix>3d</fix>
</trkpt>
<trkpt lat="40.0714412" lon="-105.2294918">
  <ele>1583.11</ele>
  <time>2026-08-28T17:56:38Z</time>
  <course>355.36</course>
  <speed>0.7611832893594026</speed>
  <fix>3d</fix>
</trkpt>
<trkpt lat="40.0714397" lon="-105.2294917">
  <ele>1583.0</ele>
  <time>2026-08-28T17:56:38Z</time>
  <course>349.21</course>
  <speed>0.85</speed>
  <fix>3d</fix>
</trkpt>
<trkpt lat="40.0714419" lon="-105.229492">
  <ele>1583.11</ele>
  <time>2026-08-28T17:56:38Z</time>
  <course>356.24</course>
  <speed>0.7299315036357864</speed>
  <fix>3d</fix>
</trkpt>
<trkpt lat="40.0714411" lon="-105.229492">
  <ele>1583.0</ele>
  <time>2026-08-28T17:56:38Z</time>
  <course>349.21</course>
  <speed>0.79</speed>
  <fix>3d</fix>
</trkpt>
<trkpt lat="40.0714425" lon="-105.2294921">
  <ele>1583.11</ele>
  <time>2026-08-28T17:56:38Z</time>
  <course>357.12</course>
  <speed>0.688839603971781</speed>
  <fix>3d</fix>
</trkpt>
<trkpt lat="40.0714411" lon="-105.229492">
  <ele>1583.0</ele>
  <time>2026-08-28T17:56:38Z</time>
  <course>349.21</course>
  <speed>0.79</speed>
  <fix>3d</fix>
</trkpt>
<trkpt lat="40.0714431" lon="-105.2294923">
  <ele>1583.11</ele>
  <time>2026-08-28T17:56:38Z</time>
  <course>357.93</course>
  <speed>0.6493843238021688</speed>
  <fix>3d</fix>
</trkpt>
<trkpt lat="40.0714424" lon="-105.2294923">
  <ele>1583.0</ele>
  <time>2026-08-28T17:56:38Z</time>
  <course>349.14</course>
  <speed>0.71</speed>
  <fix>3d</fix>
</trkpt>
<trkpt lat="40.0714437" lon="-105.2294925">
  <ele>1583.12</ele>
  <time>2026-08-28T17:56:38Z</time>
  <course>358.67</course>
  <speed>0.6181423784210236</speed>
  <fix>3d</fix>
</trkpt>
<trkpt lat="40.0714424" lon="-105.2294923">
  <ele>1583.0</ele>
  <time>2026-08-28T17:56:38Z</time>
  <course>349.14</course>
  <speed>0.71</speed>
  <fix>3d</fix>
</trkpt>
<trkpt lat="40.0714443" lon="-105.2294926">
  <ele>1583.12</ele>
  <time>2026-08-28T17:56:38Z</time>
  <course>359.32</course>
  <speed>0.5787054518492115</speed>
  <fix>3d</fix>
</trkpt>
<trkpt lat="40.0714436" lon="-105.2294926">
  <ele>1583.0</ele>
  <time>2026-08-28T17:56:38Z</time>
  <course>349.0</course>
  <speed>0.64</speed>
  <fix>3d</fix>
</trkpt>
<trkpt lat="40.0714449" lon="-105.2294928">
  <ele>1583.12</ele>
  <time>2026-08-28T17:56:38Z</time>
  <course>359.89</course>
  <speed>0.5474486277268398</speed>
  <fix>3d</fix>
</trkpt>
<trkpt lat="40.0714436" lon="-105.2294926">
  <ele>1583.0</ele>
  <time>2026-08-28T17:56:38Z</time>
  <course>349.0</course>
  <speed>0.64</speed>
  <fix>3d</fix>
</trkpt>
<trkpt lat="40.0714454" lon="-105.2294929">
  <ele>1583.12</ele>
  <time>2026-08-28T17:56:38Z</time>
  <course>0.11</course>
  <speed>0.5080354318352215</speed>
  <fix>3d</fix>
</trkpt>
<trkpt lat="40.0714447" lon="-105.2294929">
  <ele>1583.0</ele>
  <time>2026-08-28T17:56:38Z</time>
  <course>348.78</course>
  <speed>0.58</speed>
  <fix>3d</fix>
</trkpt>
<trkpt lat="40.0714458" lon="-105.229493">
  <ele>1583.12</ele>
  <time>2026-08-28T17:56:38Z</time>
  <course>359.69</course>
  <speed>0.47675989764240867</speed>
  <fix>3d</fix>
</trkpt>
<trkpt lat="40.0714447" lon="-105.2294929">
  <ele>1583.0</ele>
  <time>2026-08-28T17:56:38Z</time>
  <course>348.78</course>
  <speed>0.58</speed>
  <fix>3d</fix>
</trkpt>
<trkpt lat="40.0714462" lon="-105.2294931">
  <ele>1583.12</ele>
  <time>2026-08-28T17:56:38Z</time>
  <course>358.64</course>
  <speed>0.447213595499958</speed>
  <fix>3d</fix>
</trkpt>
<trkpt lat="40.0714457" lon="-105.2294932">
  <ele>1583.0</ele>
  <time>2026-08-28T17:56:38Z</time>
  <course>348.51</course>
  <speed>0.51</speed>
  <fix>3d</fix>
</trkpt>
<trkpt lat="40.0714466" lon="-105.2294932">
  <ele>1583.12</ele>
  <time>2026-08-28T17:56:38Z</time>
  <course>357.0</course>
  <speed>0.42755116652863895</speed>
  <fix>3d</fix>
</trkpt>
<trkpt lat="40.0714457" lon="-105.2294932">
  <ele>1583.0</ele>
  <time>2026-08-28T17:56:38Z</time>
  <course>348.51</course>
  <speed>0.51</speed>
  <fix>3d</fix>
</trkpt>
<trkpt lat="40.071447" lon="-105.2294934">
  <ele>1583.12</ele>
  <time>2026-08-28T17:56:38Z</time>
  <course>354.8</course>
  <speed>0.396232255123179</speed>
  <fix>3d</fix>
</trkpt>
<trkpt lat="40.0714466" lon="-105.2294934">
  <ele>1583.0</ele>
  <time>2026-08-28T17:56:38Z</time>
  <course>348.22</course>
  <speed>0.46</speed>
  <fix>3d</fix>
</trkpt>
<trkpt lat="40.0714474" lon="-105.2294935">
  <ele>1583.12</ele>
  <time>2026-08-28T17:56:38Z</time>
  <course>351.97</course>
  <speed>0.366742416417845</speed>
  <fix>3d</fix>
</trkpt>
<trkpt lat="40.0714466" lon="-105.2294934">
  <ele>1583.0</ele>
  <time>2026-08-28T17:56:38Z</time>
  <course>348.22</course>
  <speed>0.46</speed>
  <fix>3d</fix>
</trkpt>
<trkpt lat="40.0714477" lon="-105.2294936">
  <ele>1583.11</ele>
  <time>2026-08-28T17:56:38Z</time>
  <course>348.61</course>
  <speed>0.34525353003264136</speed>
  <fix>3d</fix>
</trkpt>
<trkpt lat="40.0714473" lon="-105.2294935">
  <ele>1583.0</ele>
  <time>2026-08-28T17:56:38Z</time>
  <course>348.0</course>
  <speed>0.4</speed>
  <fix>3d</fix>
</trkpt>
<trkpt lat="40.071448" lon="-105.2294936">
  <ele>1583.11</ele>
  <time>2026-08-28T17:56:38Z</time>
  <course>344.73</course>
  <speed>0.31400636936215165</speed>
  <fix>3d</fix>
</trkpt>
<trkpt lat="40.0714473" lon="-105.2294935">
  <ele>1583.0</ele>
  <time>2026-08-28T17:56:38Z</time>
  <course>348.0</course>
  <speed>0.4</speed>
  <fix>3d</fix>
</trkpt>
<trkpt lat="40.0714483" lon="-105.2294937">
  <ele>1583.11</ele>
  <time>2026-08-28T17:56:38Z</time>
  <course>340.35</course>
  <speed>0.2942787793912432</speed>
  <fix>3d</fix>
</trkpt>
<trkpt lat="40.071448" lon="-105.2294938">
  <ele>1583.0</ele>
  <time>2026-08-28T17:56:38Z</time>
  <course>348.02</course>
  <speed>0.35</speed>
  <fix>3d</fix>
</trkpt>
<trkpt lat="40.0714485" lon="-105.2294938">
  <ele>1583.12</ele>
  <time>2026-08-28T17:56:38Z</time>
  <course>335.54</course>
  <speed>0.27294688127912364</speed>
  <fix>3d</fix>
</trkpt>
<trkpt lat="40.071448" lon="-105.2294938">
  <ele>1583.0</ele>
  <time>2026-08-28T17:56:38Z</time>
  <course>348.02</course>
  <speed>0.35</speed>
  <fix>3d</fix>
</trkpt>
<trkpt lat="40.0714487" lon="-105.2294938">
  <ele>1583.12</ele>
  <time>2026-08-28T17:56:38Z</time>
  <course>331.38</course>
  <speed>0.25179356624028343</speed>
  <fix>3d</fix>
</trkpt>
<trkpt lat="40.0714486" lon="-105.2294939">
  <ele>1583.0</ele>
  <time>2026-08-28T17:56:38Z</time>
  <course>348.52</course>
  <speed>0.3</speed>
  <fix>3d</fix>
</trkpt>
<trkpt lat="40.071449" lon="-105.2294939">
  <ele>1583.12</ele>
  <time>2026-08-28T17:56:38Z</time>
  <course>326.01</course>
  <speed>0.23194827009486402</speed>
  <fix>3d</fix>
</trkpt>
<trkpt lat="40.0714486" lon="-105.2294939">
  <ele>1583.0</ele>
  <time>2026-08-28T17:56:38Z</time>
  <course>348.52</course>
  <speed>0.3</speed>
  <fix>3d</fix>
</trkpt>
<trkpt lat="40.0714492" lon="-105.2294939">
  <ele>1583.11</ele>
  <time>2026-08-28T17:56:38Z</time>
  <course>320.43</course>
  <speed>0.2109502310972899</speed>
  <fix>3d</fix>
</trkpt>
<trkpt lat="40.0714491" lon="-105.2294941">
  <ele>1583.0</ele>
  <time>2026-08-28T17:56:38Z</time>
  <course>349.72</course>
  <speed>0.26</speed>
  <fix>3d</fix>
</trkpt>
<trkpt lat="40.0714494" lon="-105.229494">
  <ele>1583.11</ele>
  <time>2026-08-28T17:56:38Z</time>
  <course>314.74</course>
  <speed>0.2002498439450079</speed>
  <fix>3d</fix>
</trkpt>
<trkpt lat="40.0714491" lon="-105.2294941">
  <ele>1583.0</ele>
  <time>2026-08-28T17:56:38Z</time>
  <course>349.72</course>
  <speed>0.26</speed>
  <fix>3d</fix>
</trkpt>
<trkpt lat="40.0714496" lon="-105.229494">
  <ele>1583.11</ele>
  <time>2026-08-28T17:56:38Z</time>
  <course>309.09</course>
  <speed>0.18027756377319945</speed>
  <fix>3d</fix>
</trkpt>
<trkpt lat="40.0714495" lon="-105.2294942">
  <ele>1583.0</ele>
  <time>2026-08-28T17:56:38Z</time>
  <course>351.52</course>
  <speed>0.23</speed>
  <fix>3d</fix>
</trkpt>
<trkpt lat="40.0714498" lon="-105.229494">
  <ele>1583.11</ele>
  <time>2026-08-28T17:56:38Z</time>
  <course>303.57</course>
  <speed>0.17</speed>
  <fix>3d</fix>
</trkpt>
<trkpt lat="40.0714495" lon="-105.2294942">
  <ele>1583.0</ele>
  <time>2026-08-28T17:56:38Z</time>
  <course>351.52</course>
  <speed>0.23</speed>
  <fix>3d</fix>
</trkpt>
<trkpt lat="40.0714499" lon="-105.2294941">
  <ele>1583.11</ele>
  <time>2026-08-28T17:56:38Z</time>
  <course>298.23</course>
  <speed>0.16</speed>
  <fix>3d</fix>
</trkpt>
<trkpt lat="40.07145" lon="-105.2294943">
  <ele>1583.0</ele>
  <time>2026-08-28T17:56:38Z</time>
  <course>353.14</course>
  <speed>0.2</speed>
  <fix>3d</fix>
</trkpt>
<trkpt lat="40.0714501" lon="-105.2294941">
  <ele>1583.11</ele>
  <time>2026-08-28T17:56:38Z</time>
  <course>293.16</course>
  <speed>0.16</speed>
  <fix>3d</fix>
</trkpt>
<trkpt lat="40.07145" lon="-105.2294943">
  <ele>1583.0</ele>
  <time>2026-08-28T17:56:38Z</time>
  <course>353.14</course>
  <speed>0.2</speed>
  <fix>3d</fix>
</trkpt>
<trkpt lat="40.0714503" lon="-105.2294941">
  <ele>1583.11</ele>
  <time>2026-08-28T17:56:38Z</time>
  <course>288.41</course>
  <speed>0.15</speed>
  <fix>3d</fix>
</trkpt>
<trkpt lat="40.0714503" lon="-105.2294943">
  <ele>1583.0</ele>
  <time>2026-08-28T17:56:38Z</time>
  <course>353.51</course>
  <speed>0.18</speed>
  <fix>3d</fix>
</trkpt>
<trkpt lat="40.0714504" lon="-105.2294941">
  <ele>1583.11</ele>
  <time>2026-08-28T17:56:38Z</time>
  <course>283.99</course>
  <speed>0.14</speed>
  <fix>3d</fix>
</trkpt>
<trkpt lat="40.0714503" lon="-105.2294943">
  <ele>1583.0</ele>
  <time>2026-08-28T17:56:38Z</time>
  <course>353.51</course>
  <speed>0.18</speed>
  <fix>3d</fix>
</trkpt>
<trkpt lat="40.0714506" lon="-105.2294942">
  <ele>1583.11</ele>
  <time>2026-08-28T17:56:38Z</time>
  <course>279.16</course>
  <speed>0.14</speed>
  <fix>3d</fix>
</trkpt>
<trkpt lat="40.0714506" lon="-105.2294943">
  <ele>1583.0</ele>
  <time>2026-08-28T17:56:38Z</time>
  <course>351.83</course>
  <speed>0.17</speed>
  <fix>3d</fix>
</trkpt>
<trkpt lat="40.0714508" lon="-105.2294942">
  <ele>1583.11</ele>
  <time>2026-08-28T17:56:38Z</time>
  <course>275.5</course>
  <speed>0.130384048104053</speed>
  <fix>3d</fix>
</trkpt>
<trkpt lat="40.0714506" lon="-105.2294943">
  <ele>1583.0</ele>
  <time>2026-08-28T17:56:38Z</time>
  <course>351.83</course>
  <speed>0.17</speed>
  <fix>3d</fix>
</trkpt>
<trkpt lat="40.0714509" lon="-105.2294942">
  <ele>1583.11</ele>
  <time>2026-08-28T17:56:38Z</time>
  <course>272.23</course>
  <speed>0.13152946437965907</speed>
  <fix>3d</fix>
</trkpt>
<trkpt lat="40.0714509" lon="-105.2294944">
  <ele>1583.0</ele>
  <time>2026-08-28T17:56:38Z</time>
  <course>347.77</course>
  <speed>0.16</speed>
  <fix>3d</fix>
</trkpt>
<trkpt lat="40.071451" lon="-105.2294943">
  <ele>1583.11</ele>
  <time>2026-08-28T17:56:38Z</time>
  <course>269.28</course>
  <speed>0.12165525060596438</speed>
  <fix>3d</fix>
</trkpt>
<trkpt lat="40.0714509" lon="-105.2294944">
  <ele>1583.0</ele>
  <time>2026-08-28T17:56:38Z</time>
  <course>347.77</course>
  <speed>0.16</speed>
  <fix>3d</fix>
</trkpt>
<trkpt lat="40.0714512" lon="-105.2294943">
  <ele>1583.11</ele>
  <time>2026-08-28T17:56:38Z</time>
  <course>266.62</course>
  <speed>0.12369316876852982</speed>
  <fix>3d</fix>
</trkpt>
<trkpt lat="40.0714512" lon="-105.2294945">
  <ele>1583.0</ele>
  <time>2026-08-28T17:56:38Z</time>
  <course>341.36</course>
  <speed>0.15</speed>
  <fix>3d</fix>
</trkpt>
<trkpt lat="40.0714513" lon="-105.2294944">
  <ele>1583.11</ele>
  <time>2026-08-28T17:56:38Z</time>
  <course>264.26</course>
  <speed>0.11704699910719625</speed>
  <fix>3d</fix>
</trkpt>
<trkpt lat="40.0714512" lon="-105.2294945">
  <ele>1583.0</ele>
  <time>2026-08-28T17:56:38Z</time>
  <course>341.36</course>
  <speed>0.15</speed>
  <fix>3d</fix>
</trkpt>
<trkpt lat="40.0714514" lon="-105.2294945">
  <ele>1583.11</ele>
  <time>2026-08-28T17:56:38Z</time>
  <course>262.17</course>
  <speed>0.1118033988749895</speed>
  <fix>3d</fix>
</trkpt>
<trkpt lat="40.0714514" lon="-105.2294947">
  <ele>1583.0</ele>
  <time>2026-08-28T17:56:38Z</time>
  <course>332.89</course>
  <speed>0.15</speed>
  <fix>3d</fix>
</trkpt>
<trkpt lat="40.0714515" lon="-105.2294946">
  <ele>1583.11</ele>
  <time>2026-08-28T17:56:38Z</time>
  <course>260.34</course>
  <speed>0.11661903789690602</speed>
  <fix>3d</fix>
</trkpt>
<trkpt lat="40.0714514" lon="-105.2294947">
  <ele>1583.0</ele>
  <time>2026-08-28T17:56:38Z</time>
  <course>332.89</course>
  <speed>0.15</speed>
  <fix>3d</fix>
</trkpt>
<trkpt lat="40.0714516" lon="-105.2294947">
  <ele>1583.11</ele>
  <time>2026-08-28T17:56:38Z</time>
  <course>258.74</course>
  <speed>0.11401754250991379</speed>
  <fix>3d</fix>
</trkpt>
<trkpt lat="40.0714517" lon="-105.2294948">
  <ele>1583.0</ele>
  <time>2026-08-28T17:56:38Z</time>
  <course>323.01</course>
  <speed>0.15</speed>
  <fix>3d</fix>
</trkpt>
<trkpt lat="40.0714517" lon="-105.2294948">
  <ele>1583.12</ele>
  <time>2026-08-28T17:56:38Z</time>
  <course>257.35</course>
  <speed>0.12041594578792296</speed>
  <fix>3d</fix>
</trkpt>
<trkpt lat="40.0714517" lon="-105.2294948">
  <ele>1583.0</ele>
  <time>2026-08-28T17:56:38Z</time>
  <course>323.01</course>
  <speed>0.15</speed>
  <fix>3d</fix>
</trkpt>
<trkpt lat="40.0714518" lon="-105.229495">
  <ele>1583.12</ele>
  <time>2026-08-28T17:56:38Z</time>
  <course>256.11</course>
  <speed>0.12806248474865697</speed>
  <fix>3d</fix>
</trkpt>
<trkpt lat="40.0714519" lon="-105.2294951">
  <ele>1583.0</ele>
  <time>2026-08-28T17:56:38Z</time>
  <course>312.56</course>
  <speed>0.15</speed>
  <fix>3d</fix>
</trkpt>
<trkpt lat="40.0714519" lon="-105.2294951">
  <ele>1583.12</ele>
  <time>2026-08-28T17:56:38Z</time>
  <course>255.22</course>
  <speed>0.130384048104053</speed>
  <fix>3d</fix>
</trkpt>
<trkpt lat="40.0714519" lon="-105.2294951">
  <ele>1583.0</ele>
  <time>2026-08-28T17:56:38Z</time>
  <course>312.56</course>
  <speed>0.15</speed>
  <fix>3d</fix>
</trkpt>
<trkpt lat="40.071452" lon="-105.2294953">
  <ele>1583.12</ele>
  <time>2026-08-28T17:56:38Z</time>
  <course>254.25</course>
  <speed>0.1341640786499874</speed>
  <fix>3d</fix>
</trkpt>
<trkpt lat="40.0714521" lon="-105.2294954">
  <ele>1583.0</ele>
  <time>2026-08-28T17:56:38Z</time>
  <course>302.43</course>
  <speed>0.16</speed>
  <fix>3d</fix>
</trkpt>
<trkpt lat="40.071452" lon="-105.2294955">
  <ele>1583.12</ele>
  <time>2026-08-28T17:56:38Z</time>
  <course>253.4</course>
  <speed>0.14317821063276354</speed>
  <fix>3d</fix>
</trkpt>
<trkpt lat="40.0714521" lon="-105.2294954">
  <ele>1583.0</ele>
  <time>2026-08-28T17:56:38Z</time>
  <course>302.43</course>
  <speed>0.16</speed>
  <fix>3d</fix>
</trkpt>
<trkpt lat="40.0714521" lon="-105.2294957">
  <ele>1583.13</ele>
  <time>2026-08-28T17:56:38Z</time>
  <course>252.68</course>
  <speed>0.14866068747318506</speed>
  <fix>3d</fix>
</trkpt>
<trkpt lat="40.0714522" lon="-105.2294958">
  <ele>1583.0</ele>
  <time>2026-08-28T17:56:38Z</time>
  <course>293.27</course>
  <speed>0.17</speed>
  <fix>3d</fix>
</trkpt>
<trkpt lat="40.0714522" lon="-105.2294959">
  <ele>1583.13</ele>
  <time>2026-08-28T17:56:38Z</time>
  <course>252.04</course>
  <speed>0.1649242250247064</speed>
  <fix>3d</fix>
</trkpt>
<trkpt lat="40.0714522" lon="-105.2294958">
  <ele>1583.0</ele>
  <time>2026-08-28T17:56:38Z</time>
  <course>293.27</course>
  <speed>0.17</speed>
  <fix>3d</fix>
</trkpt>
<trkpt lat="40.0714522" lon="-105.2294961">
  <ele>1583.13</ele>
  <time>2026-08-28T17:56:38Z</time>
  <course>251.45</course>
  <speed>0.17262676501632068</speed>
  <fix>3d</fix>
</trkpt>
<trkpt lat="40.0714523" lon="-105.2294962">
  <ele>1583.0</ele>
  <time>2026-08-28T17:56:38Z</time>
  <course>285.34</course>
  <speed>0.19</speed>
  <fix>3d</fix>
</trkpt>
<trkpt lat="40.0714523" lon="-105.2294964">
  <ele>1583.13</ele>
  <time>2026-08-28T17:56:38Z</time>
  <course>250.97</course>
  <speed>0.1824828759089466</speed>
  <fix>3d</fix>
</trkpt>
<trkpt lat="40.0714523" lon="-105.2294962">
  <ele>1583.0</ele>
  <time>2026-08-28T17:56:38Z</time>
  <course>285.34</course>
  <speed>0.19</speed>
  <fix>3d</fix>
</trkpt>
<trkpt lat="40.0714523" lon="-105.2294966">
  <ele>1583.14</ele>
  <time>2026-08-28T17:56:38Z</time>
  <course>250.56</course>
  <speed>0.2009975124224178</speed>
  <fix>3d</fix>
</trkpt>
<trkpt lat="40.0714524" lon="-105.2294966">
  <ele>1583.0</ele>
  <time>2026-08-28T17:56:38Z</time>
  <course>278.66</course>
  <speed>0.21</speed>
  <fix>3d</fix>
</trkpt>
<trkpt lat="40.0714523" lon="-105.2294969">
  <ele>1583.14</ele>
  <time>2026-08-28T17:56:38Z</time>
  <course>250.2</course>
  <speed>0.2102379604162864</speed>
  <fix>3d</fix>
</trkpt>
<trkpt lat="40.0714524" lon="-105.2294966">
  <ele>1583.0</ele>
  <time>2026-08-28T17:56:38Z</time>
  <course>278.66</course>
  <speed>0.21</speed>
  <fix>3d</fix>
</trkpt>
<trkpt lat="40.0714523" lon="-105.2294972">
  <ele>1583.14</ele>
  <time>2026-08-28T17:56:38Z</time>
  <course>249.88</course>
  <speed>0.23</speed>
  <fix>3d</fix>
</trkpt>
<trkpt lat="40.0714525" lon="-105.2294971">
  <ele>1583.0</ele>
  <time>2026-08-28T17:56:38Z</time>
  <course>273.11</course>
  <speed>0.23</speed>
  <fix>3d</fix>
</trkpt>
<trkpt lat="40.0714524" lon="-105.2294976">
  <ele>1583.14</ele>
  <time>2026-08-28T17:56:38Z</time>
  <course>249.55</course>
  <speed>0.25</speed>
  <fix>3d</fix>
</trkpt>
<trkpt lat="40.0714525" lon="-105.2294971">
  <ele>1583.0</ele>
  <time>2026-08-28T17:56:38Z</time>
  <course>273.11</course>
  <speed>0.23</speed>
  <fix>3d</fix>
</trkpt>
<trkpt lat="40.0714524" lon="-105.2294979">
  <ele>1583.14</ele>
  <time>2026-08-28T17:56:38Z</time>
  <course>249.32</course>
  <speed>0.2601922366251538</speed>
  <fix>3d</fix>
</trkpt>
<trkpt lat="40.0714525" lon="-105.2294977">
  <ele>1583.0</ele>
  <time>2026-08-28T17:56:38Z</time>
  <course>268.53</course>
  <speed>0.26</speed>
  <fix>3d</fix>
</trkpt>
<trkpt lat="40.0714523" lon="-105.2294983">
  <ele>1583.14</ele>
  <time>2026-08-28T17:56:38Z</time>
  <course>249.12</course>
  <speed>0.280713376952364</speed>
  <fix>3d</fix>
</trkpt>
<trkpt lat="40.0714525" lon="-105.2294977">
  <ele>1583.0</ele>
  <time>2026-08-28T17:56:38Z</time>
  <course>268.53</course>
  <speed>0.26</speed>
  <fix>3d</fix>
</trkpt>
<trkpt lat="40.0714523" lon="-105.2294986">
  <ele>1583.14</ele>
  <time>2026-08-28T17:56:38Z</time>
  <course>248.92</course>
  <speed>0.291547594742265</speed>
  <fix>3d</fix>
</trkpt>
<trkpt lat="40.0714524" lon="-105.2294984">
  <ele>1583.0</ele>
  <time>2026-08-28T17:56:38Z</time>
  <course>264.76</course>
  <speed>0.29</speed>
  <fix>3d</fix>
</trkpt>
<trkpt lat="40.0714523" lon="-105.229499">
  <ele>1583.13</ele>
  <time>2026-08-28T17:56:38Z</time>
  <course>248.73</course>
  <speed>0.31144823004794875</speed>
  <fix>3d</fix>
</trkpt>
<trkpt lat="40.0714524" lon="-105.2294984">
  <ele>1583.0</ele>
  <time>2026-08-28T17:56:38Z</time>
  <course>264.76</course>
  <speed>0.29</speed>
  <fix>3d</fix>
</trkpt>
<trkpt lat="40.0714523" lon="-105.2294994">
  <ele>1583.13</ele>
  <time>2026-08-28T17:56:38Z</time>
  <course>248.58</course>
  <speed>0.33241540277189324</speed>
  <fix>3d</fix>
</trkpt>
<trkpt lat="40.0714524" lon="-105.2294991">
  <ele>1583.0</ele>
  <time>2026-08-28T17:56:38Z</time>
  <course>261.66</course>
  <speed>0.33</speed>
  <fix>3d</fix>
</trkpt>
<trkpt lat="40.0714523" lon="-105.2294999">
  <ele>1583.13</ele>
  <time>2026-08-28T17:56:38Z</time>
  <course>248.42</course>
  <speed>0.3535533905932738</speed>
  <fix>3d</fix>
</trkpt>
<trkpt lat="40.0714524" lon="-105.2294991">
  <ele>1583.0</ele>
  <time>2026-08-28T17:56:38Z</time>
  <course>261.66</course>
  <speed>0.33</speed>
  <fix>3d</fix>
</trkpt>
<trkpt lat="40.0714522" lon="-105.2295003">
  <ele>1583.14</ele>
  <time>2026-08-28T17:56:38Z</time>
  <course>248.28</course>
  <speed>0.37483329627982626</speed>
  <fix>3d</fix>
</trkpt>
<trkpt lat="40.0714523" lon="-105.2294999">
  <ele>1583.0</ele>
  <time>2026-08-28T17:56:38Z</time>
  <course>259.11</course>
  <speed>0.37</speed>
  <fix>3d</fix>
</trkpt>
<trkpt lat="40.0714522" lon="-105.2295008">
  <ele>1583.14</ele>
  <time>2026-08-28T17:56:38Z</time>
  <course>248.14</course>
  <speed>0.396232255123179</speed>
  <fix>3d</fix>
</trkpt>
<trkpt lat="40.0714523" lon="-105.2294999">
  <ele>1583.0</ele>
  <time>2026-08-28T17:56:38Z</time>
  <course>259.11</course>
  <speed>0.37</speed>
  <fix>3d</fix>
</trkpt>
<trkpt lat="40.0714521" lon="-105.2295013">
  <ele>1583.14</ele>
  <time>2026-08-28T17:56:38Z</time>
  <course>248.0</course>
  <speed>0.41773197148410846</speed>
  <fix>3d</fix>
</trkpt>
<trkpt lat="40.0714521" lon="-105.2295008">
  <ele>1583.0</ele>
  <time>2026-08-28T17:56:38Z</time>
  <course>257.01</course>
  <speed>0.41</speed>
  <fix>3d</fix>
</trkpt>
<trkpt lat="40.071452" lon="-105.2295018">
  <ele>1583.14</ele>
  <time>2026-08-28T17:56:38Z</time>
  <course>247.86</course>
  <speed>0.4393176527297759</speed>
  <fix>3d</fix>
</trkpt>
<trkpt lat="40.0714521" lon="-105.2295008">
  <ele>1583.0</ele>
  <time>2026-08-28T17:56:38Z</time>
  <course>257.01</course>
  <speed>0.41</speed>
  <fix>3d</fix>
</trkpt>
<trkpt lat="40.0714519" lon="-105.2295022">
  <ele>1583.15</ele>
  <time>2026-08-28T17:56:38Z</time>
  <course>247.75</course>
  <speed>0.45122056690713913</speed>
  <fix>3d</fix>
</trkpt>
<trkpt lat="40.0714519" lon="-105.2295018">
  <ele>1583.0</ele>
  <time>2026-08-28T17:56:38Z</time>
  <course>255.27</course>
  <speed>0.45</speed>
  <fix>3d</fix>
</trkpt>
<trkpt lat="40.0714518" lon="-105.2295028">
  <ele>1583.15</ele>
  <time>2026-08-28T17:56:38Z</time>
  <course>247.6</course>
  <speed>0.4729693436154187</speed>
  <fix>3d</fix>
</trkpt>
<trkpt lat="40.0714519" lon="-105.2295018">
  <ele>1583.0</ele>
  <time>2026-08-28T17:56:38Z</time>
  <course>255.27</course>
  <speed>0.45</speed>
  <fix>3d</fix>
</trkpt>
<trkpt lat="40.0714517" lon="-105.2295034">
  <ele>1583.16</ele>
  <time>2026-08-28T17:56:38Z</time>
  <course>247.46</course>
  <speed>0.49729267036625424</speed>
  <fix>3d</fix>
</trkpt>
<trkpt lat="40.0714518" lon="-105.2295029">
  <ele>1583.0</ele>
  <time>2026-08-28T17:56:38Z</time>
  <course>253.83</course>
  <speed>0.49</speed>
  <fix>3d</fix>
</trkpt>
<trkpt lat="40.0714516" lon="-105.229504">
  <ele>1583.16</ele>
  <time>2026-08-28T17:56:38Z</time>
  <course>247.32</course>
  <speed>0.5288667128870941</speed>
  <fix>3d</fix>
</trkpt>
<trkpt lat="40.0714518" lon="-105.2295029">
  <ele>1583.0</ele>
  <time>2026-08-28T17:56:38Z</time>
  <course>253.83</course>
  <speed>0.49</speed>
  <fix>3d</fix>
</trkpt>
<trkpt lat="40.0714514" lon="-105.2295046">
  <ele>1583.16</ele>
  <time>2026-08-28T17:56:38Z</time>
  <course>247.14</course>
  <speed>0.5508175741568164</speed>
  <fix>3d</fix>
</trkpt>
<trkpt lat="40.0714515" lon="-105.229504">
  <ele>1583.0</ele>
  <time>2026-08-28T17:56:38Z</time>
  <course>252.62</course>
  <speed>0.54</speed>
  <fix>3d</fix>
</trkpt>
<trkpt lat="40.0714513" lon="-105.2295053">
  <ele>1583.16</ele>
  <time>2026-08-28T17:56:38Z</time>
  <course>246.97</course>
  <speed>0.5728001396647874</speed>
  <fix>3d</fix>
</trkpt>
<trkpt lat="40.0714515" lon="-105.229504">
  <ele>1583.0</ele>
  <time>2026-08-28T17:56:38Z</time>
  <course>252.62</course>
  <speed>0.54</speed>
  <fix>3d</fix>
</trkpt>
<trkpt lat="40.0714511" lon="-105.229506">
  <ele>1583.16</ele>
  <time>2026-08-28T17:56:38Z</time>
  <course>246.77</course>
  <speed>0.5948108943185221</speed>
  <fix>3d</fix>
</trkpt>
<trkpt lat="40.0714512" lon="-105.2295053">
  <ele>1583.0</ele>
  <time>2026-08-28T17:56:38Z</time>
  <course>251.59</course>
  <speed>0.59</speed>
  <fix>3d</fix>
</trkpt>
<trkpt lat="40.0714509" lon="-105.2295067">
  <ele>1583.16</ele>
  <time>2026-08-28T17:56:38Z</time>
  <course>246.57</course>
  <speed>0.6168468205316454</speed>
  <fix>3d</fix>
</trkpt>
<trkpt lat="40.0714512" lon="-105.2295053">
  <ele>1583.0</ele>
  <time>2026-08-28T17:56:38Z</time>
  <course>251.59</course>
  <speed>0.59</speed>
  <fix>3d</fix>
</trkpt>
<trkpt lat="40.0714507" lon="-105.2295074">
  <ele>1583.16</ele>
  <time>2026-08-28T17:56:38Z</time>
  <course>246.34</course>
  <speed>0.6389053137985315</speed>
  <fix>3d</fix>
</trkpt>
<trkpt lat="40.0714509" lon="-105.2295067">
  <ele>1583.0</ele>
  <time>2026-08-28T17:56:38Z</time>
  <course>250.69</course>
  <speed>0.63</speed>
  <fix>3d</fix>
</trkpt>
<trkpt lat="40.0714505" lon="-105.2295082">
  <ele>1583.16</ele>
  <time>2026-08-28T17:56:38Z</time>
  <course>246.09</course>
  <speed>0.6609841147864296</speed>
  <fix>3d</fix>
</trkpt>
<trkpt lat="40.0714509" lon="-105.2295067">
  <ele>1583.0</ele>
  <time>2026-08-28T17:56:38Z</time>
  <course>250.69</course>
  <speed>0.63</speed>
  <fix>3d</fix>
</trkpt>
<trkpt lat="40.0714503" lon="-105.2295091">
  <ele>1583.17</ele>
  <time>2026-08-28T17:56:38Z</time>
  <course>245.75</course>
  <speed>0.6830812543175226</speed>
  <fix>3d</fix>
</trkpt>
<trkpt lat="40.0714505" lon="-105.2295081">
  <ele>1583.0</ele>
  <time>2026-08-28T17:56:38Z</time>
  <course>249.9</course>
  <speed>0.68</speed>
  <fix>3d</fix>
</trkpt>
<trkpt lat="40.0714501" lon="-105.2295099">
  <ele>1583.17</ele>
  <time>2026-08-28T17:56:38Z</time>
  <course>245.45</course>
  <speed>0.7083784299369935</speed>
  <fix>3d</fix>
</trkpt>
<trkpt lat="40.0714505" lon="-105.2295081">
  <ele>1583.0</ele>
  <time>2026-08-28T17:56:38Z</time>
  <course>249.9</course>
  <speed>0.68</speed>
  <fix>3d</fix>
</trkpt>
<trkpt lat="40.0714499" lon="-105.2295107">
  <ele>1583.17</ele>
  <time>2026-08-28T17:56:38Z</time>
  <course>245.19</course>
  <speed>0.7305477397131552</speed>
  <fix>3d</fix>
</trkpt>
<trkpt lat="40.07145" lon="-105.2295097">
  <ele>1583.0</ele>
  <time>2026-08-28T17:56:38Z</time>
  <course>249.19</course>
  <speed>0.72</speed>
  <fix>3d</fix>
</trkpt>
<trkpt lat="40.0714496" lon="-105.2295116">
  <ele>1583.17</ele>
  <time>2026-08-28T17:56:38Z</time>
  <course>244.91</course>
  <speed>0.7433034373659253</speed>
  <fix>3d</fix>
</trkpt>
<trkpt lat="40.07145" lon="-105.2295097">
  <ele>1583.0</ele>
  <time>2026-08-28T17:56:38Z</time>
  <course>249.19</course>
  <speed>0.72</speed>
  <fix>3d</fix>
</trkpt>
<trkpt lat="40.0714494" lon="-105.2295124">
  <ele>1583.17</ele>
  <time>2026-08-28T17:56:38Z</time>
  <course>244.64</course>
  <speed>0.7655063683601856</speed>
  <fix>3d</fix>
</trkpt>
<trkpt lat="40.0714495" lon="-105.2295113">
  <ele>1583.0</ele>
  <time>2026-08-28T17:56:38Z</time>
  <course>248.53</course>
  <speed>0.76</speed>
  <fix>3d</fix>
</trkpt>
<trkpt lat="40.0714491" lon="-105.2295133">
  <ele>1583.16</ele>
  <time>2026-08-28T17:56:38Z</time>
  <course>244.37</course>
  <speed>0.7783315488916018</speed>
  <fix>3d</fix>
</trkpt>
<trkpt lat="40.0714495" lon="-105.2295113">
  <ele>1583.0</ele>
  <time>2026-08-28T17:56:38Z</time>
  <course>248.53</course>
  <speed>0.76</speed>
  <fix>3d</fix>
</trkpt>
<trkpt lat="40.0714488" lon="-105.2295142">
  <ele>1583.16</ele>
  <time>2026-08-28T17:56:38Z</time>
  <course>244.12</course>
  <speed>0.8005623023850174</speed>
  <fix>3d</fix>
</trkpt>
<trkpt lat="40.071449" lon="-105.229513">
  <ele>1583.0</ele>
  <time>2026-08-28T17:56:38Z</time>
  <course>247.91</course>
  <speed>0.79</speed>
  <fix>3d</fix>
</trkpt>
<trkpt lat="40.0714486" lon="-105.2295151">
  <ele>1583.16</ele>
  <time>2026-08-28T17:56:38Z</time>
  <course>243.92</course>
  <speed>0.8134494452638098</speed>
  <fix>3d</fix>
</trkpt>
<trkpt lat="40.071449" lon="-105.229513">
  <ele>1583.0</ele>
  <time>2026-08-28T17:56:38Z</time>
  <course>247.91</course>
  <speed>0.79</speed>
  <fix>3d</fix>
</trkpt>
<trkpt lat="40.0714483" lon="-105.229516">
  <ele>1583.16</ele>
  <time>2026-08-28T17:56:38Z</time>
  <course>243.73</course>
  <speed>0.8228000972289685</speed>
  <fix>3d</fix>
</trkpt>
<trkpt lat="40.0714485" lon="-105.2295148">
  <ele>1583.0</ele>
  <time>2026-08-28T17:56:38Z</time>
  <course>247.33</course>
  <speed>0.82</speed>
  <fix>3d</fix>
</trkpt>
<trkpt lat="40.071448" lon="-105.2295169">
  <ele>1583.16</ele>
  <time>2026-08-28T17:56:38Z</time>
  <course>243.53</course>
  <speed>0.8357032966310471</speed>
  <fix>3d</fix>
</trkpt>
<trkpt lat="40.0714485" lon="-105.2295148">
  <ele>1583.0</ele>
  <time>2026-08-28T17:56:38Z</time>
  <course>247.33</course>
  <speed>0.82</speed>
  <fix>3d</fix>
</trkpt>
<trkpt lat="40.0714477" lon="-105.2295179">
  <ele>1583.17</ele>
  <time>2026-08-28T17:56:38Z</time>
  <course>243.38</course>
  <speed>0.8486459803710851</speed>
  <fix>3d</fix>
</trkpt>
<trkpt lat="40.0714478" lon="-105.2295166">
  <ele>1583.0</ele>
  <time>2026-08-28T17:56:38Z</time>
  <course>246.79</course>
  <speed>0.85</speed>
  <fix>3d</fix>
</trkpt>
<trkpt lat="40.0714474" lon="-105.2295186">
  <ele>1583.17</ele>
  <time>2026-08-28T17:56:38Z</time>
  <course>243.25</course>
  <speed>0.8616263691415206</speed>
  <fix>3d</fix>
</trkpt>
<trkpt lat="40.0714478" lon="-105.2295166">
  <ele>1583.0</ele>
  <time>2026-08-28T17:56:38Z</time>
  <course>246.79</course>
  <speed>0.85</speed>
  <fix>3d</fix>
</trkpt>
<trkpt lat="40.0714471" lon="-105.2295196">
  <ele>1583.17</ele>
  <time>2026-08-28T17:56:38Z</time>
  <course>243.13</course>
  <speed>0.8746427842267951</speed>
  <fix>3d</fix>
</trkpt>
<trkpt lat="40.0714472" lon="-105.2295185">
  <ele>1583.0</ele>
  <time>2026-08-28T17:56:38Z</time>
  <course>246.29</course>
  <speed>0.88</speed>
  <fix>3d</fix>
</trkpt>
<trkpt lat="40.0714468" lon="-105.2295206">
  <ele>1583.16</ele>
  <time>2026-08-28T17:56:38Z</time>
  <course>242.99</course>
  <speed>0.8876936408468858</speed>
  <fix>3d</fix>
</trkpt>
<trkpt lat="40.0714472" lon="-105.2295185">
  <ele>1583.0</ele>
  <time>2026-08-28T17:56:38Z</time>
  <course>246.29</course>
  <speed>0.88</speed>
  <fix>3d</fix>
</trkpt>
<trkpt lat="40.0714464" lon="-105.2295216">
  <ele>1583.16</ele>
  <time>2026-08-28T17:56:38Z</time>
  <course>242.88</course>
  <speed>0.8969392398596462</speed>
  <fix>3d</fix>
</trkpt>
<trkpt lat="40.0714466" lon="-105.2295204">
  <ele>1583.0</ele>
  <time>2026-08-28T17:56:38Z</time>
  <course>245.83</course>
  <speed>0.9</speed>
  <fix>3d</fix>
</trkpt>
<trkpt lat="40.0714461" lon="-105.2295226">
  <ele>1583.16</ele>
  <time>2026-08-28T17:56:38Z</time>
  <course>242.78</course>
  <speed>0.91</speed>
  <fix>3d</fix>
</trkpt>
<trkpt lat="40.0714466" lon="-105.2295204">
  <ele>1583.0</ele>
  <time>2026-08-28T17:56:38Z</time>
  <course>245.83</course>
  <speed>0.9</speed>
  <fix>3d</fix>
</trkpt>
<trkpt lat="40.0714457" lon="-105.2295236">
  <ele>1583.16</ele>
  <time>2026-08-28T17:56:38Z</time>
  <course>242.71</course>
  <speed>0.9230926280715278</speed>
  <fix>3d</fix>
</trkpt>
<trkpt lat="40.0714459" lon="-105.2295223">
  <ele>1583.0</ele>
  <time>2026-08-28T17:56:38Z</time>
  <course>245.4</course>
  <speed>0.92</speed>
  <fix>3d</fix>
</trkpt>
<trkpt lat="40.0714454" lon="-105.2295246">
  <ele>1583.15</ele>
  <time>2026-08-28T17:56:38Z</time>
  <course>242.66</course>
  <speed>0.9270382947861431</speed>
  <fix>3d</fix>
</trkpt>
<trkpt lat="40.0714459" lon="-105.2295223">
  <ele>1583.0</ele>
  <time>2026-08-28T17:56:38Z</time>
  <course>245.4</course>
  <speed>0.92</speed>
  <fix>3d</fix>
</trkpt>
<trkpt lat="40.071445" lon="-105.2295256">
  <ele>1583.15</ele>
  <time>2026-08-28T17:56:38Z</time>
  <course>242.63</course>
  <speed>0.9362157870918435</speed>
  <fix>3d</fix>
</trkpt>
<trkpt lat="40.0714452" lon="-105.2295244">
  <ele>1583.0</ele>
  <time>2026-08-28T17:56:38Z</time>
  <course>245.01</course>
  <speed>0.94</speed>
  <fix>3d</fix>
</trkpt>
<trkpt lat="40.0714446" lon="-105.2295266">
  <ele>1583.15</ele>
  <time>2026-08-28T17:56:38Z</time>
  <course>242.6</course>
  <speed>0.9493682109698007</speed>
  <fix>3d</fix>
</trkpt>
<trkpt lat="40.0714452" lon="-105.2295244">
  <ele>1583.0</ele>
  <time>2026-08-28T17:56:38Z</time>
  <course>245.01</course>
  <speed>0.94</speed>
  <fix>3d</fix>
</trkpt>
<trkpt lat="40.0714442" lon="-105.2295279">
  <ele>1583.15</ele>
  <time>2026-08-28T17:56:38Z</time>
  <course>242.59</course>
  <speed>0.9493682109698007</speed>
  <fix>3d</fix>
</trkpt>
<trkpt lat="40.0714444" lon="-105.2295264">
  <ele>1583.0</ele>
  <time>2026-08-28T17:56:38Z</time>
  <course>244.67</course>
  <speed>0.96</speed>
  <fix>3d</fix>
</trkpt>
<trkpt lat="40.0714438" lon="-105.2295289">
  <ele>1583.15</ele>
  <time>2026-08-28T17:56:38Z</time>
  <course>242.61</course>
  <speed>0.9625487000666512</speed>
  <fix>3d</fix>
</trkpt>
<trkpt lat="40.0714444" lon="-105.2295264">
  <ele>1583.0</ele>
  <time>2026-08-28T17:56:38Z</time>
  <course>244.67</course>
  <speed>0.96</speed>
  <fix>3d</fix>
</trkpt>
<trkpt lat="40.0714434" lon="-105.22953">
  <ele>1583.15</ele>
  <time>2026-08-28T17:56:38Z</time>
  <course>242.65</course>
  <speed>0.9666436778875658</speed>
  <fix>3d</fix>
</trkpt>
<trkpt lat="40.0714437" lon="-105.2295284">
  <ele>1583.0</ele>
  <time>2026-08-28T17:56:38Z</time>
  <course>244.36</course>
  <speed>0.98</speed>
  <fix>3d</fix>
</trkpt>
<trkpt lat="40.071443" lon="-105.229531">
  <ele>1583.15</ele>
  <time>2026-08-28T17:56:38Z</time>
  <course>242.68</course>
  <speed>0.9757561170702442</speed>
  <fix>3d</fix>
</trkpt>
<trkpt lat="40.0714437" lon="-105.2295284">
  <ele>1583.0</ele>
  <time>2026-08-28T17:56:38Z</time>
  <course>244.36</course>
  <speed>0.98</speed>
  <fix>3d</fix>
</trkpt>
<trkpt lat="40.0714426" lon="-105.2295321">
  <ele>1583.15</ele>
  <time>2026-08-28T17:56:38Z</time>
  <course>242.75</course>
  <speed>0.9798979538707079</speed>
  <fix>3d</fix>
</trkpt>
<trkpt lat="40.0714429" lon="-105.2295305">
  <ele>1583.0</ele>
  <time>2026-08-28T17:56:38Z</time>
  <course>244.08</course>
  <speed>0.99</speed>
  <fix>3d</fix>
</trkpt>
<trkpt lat="40.0714422" lon="-105.2295331">
  <ele>1583.15</ele>
  <time>2026-08-28T17:56:38Z</time>
  <course>242.85</course>
  <speed>0.9889893831583835</speed>
  <fix>3d</fix>
</trkpt>
<trkpt lat="40.0714429" lon="-105.2295305">
  <ele>1583.0</ele>
  <time>2026-08-28T17:56:38Z</time>
  <course>244.08</course>
  <speed>0.99</speed>
  <fix>3d</fix>
</trkpt>
<trkpt lat="40.0714418" lon="-105.2295342">
  <ele>1583.14</ele>
  <time>2026-08-28T17:56:38Z</time>
  <course>242.94</course>
  <speed>0.9889893831583835</speed>
  <fix>3d</fix>
</trkpt>
<trkpt lat="40.0714421" lon="-105.2295326">
  <ele>1583.0</ele>
  <time>2026-08-28T17:56:38Z</time>
  <course>243.85</course>
  <speed>1.0</speed>
  <fix>3d</fix>
</trkpt>
<trkpt lat="40.0714414" lon="-105.2295353">
  <ele>1583.14</ele>
  <time>2026-08-28T17:56:38Z</time>
  <course>243.03</course>
  <speed>0.993176721434811</speed>
  <fix>3d</fix>
</trkpt>
<trkpt lat="40.0714421" lon="-105.2295326">
  <ele>1583.0</ele>
  <time>2026-08-28T17:56:38Z</time>
  <course>243.85</course>
  <speed>1.0</speed>
  <fix>3d</fix>
</trkpt>
<trkpt lat="40.071441" lon="-105.2295363">
  <ele>1583.14</ele>
  <time>2026-08-28T17:56:38Z</time>
  <course>243.18</course>
  <speed>0.993176721434811</speed>
  <fix>3d</fix>
</trkpt>
<trkpt lat="40.0714414" lon="-105.2295348">
  <ele>1583.0</ele>
  <time>2026-08-28T17:56:38Z</time>
  <course>243.66</course>
  <speed>1.01</speed>
  <fix>3d</fix>
</trkpt>
<trkpt lat="40.0714406" lon="-105.2295374">
  <ele>1583.14</ele>
  <time>2026-08-28T17:56:38Z</time>
  <course>243.34</course>
  <speed>1.0022474744293448</speed>
  <fix>3d</fix>
</trkpt>
<trkpt lat="40.0714414" lon="-105.2295348">
  <ele>1583.0</ele>
  <time>2026-08-28T17:56:38Z</time>
  <course>243.66</course>
  <speed>1.01</speed>
  <fix>3d</fix>
</trkpt>
<trkpt lat="40.0714402" lon="-105.2295385">
  <ele>1583.14</ele>
  <time>2026-08-28T17:56:38Z</time>
  <course>243.49</course>
  <speed>1.0022474744293448</speed>
  <fix>3d</fix>
</trkpt>
<trkpt lat="40.0714405" lon="-105.2295369">
  <ele>1583.0</ele>
  <time>2026-08-28T17:56:38Z</time>
  <course>243.51</course>
  <speed>1.02</speed>
  <fix>3d</fix>
</trkpt>
<trkpt lat="40.0714398" lon="-105.2295395">
  <ele>1583.14</ele>
  <time>2026-08-28T17:56:38Z</time>
  <course>243.68</course>
  <speed>1.0064790112068907</speed>
  <fix>3d</fix>
</trkpt>
<trkpt lat="40.0714405" lon="-105.2295369">
  <ele>1583.0</ele>
  <time>2026-08-28T17:56:38Z</time>
  <course>243.51</course>
  <speed>1.02</speed>
  <fix>3d</fix>
</trkpt>
<trkpt lat="40.0714394" lon="-105.2295404">
  <ele>1583.14</ele>
  <time>2026-08-28T17:56:38Z</time>
  <course>243.83</course>
  <speed>1.0064790112068907</speed>
  <fix>3d</fix>
</trkpt>
<trkpt lat="40.0714397" lon="-105.229539">
  <ele>1583.0</ele>
  <time>2026-08-28T17:56:38Z</time>
  <course>243.4</course>
  <speed>1.02</speed>
  <fix>3d</fix>
</trkpt>
<trkpt lat="40.071439" lon="-105.2295415">
  <ele>1583.13</ele>
  <time>2026-08-28T17:56:38Z</time>
  <course>244.05</course>
  <speed>1.0064790112068907</speed>
  <fix>3d</fix>
</trkpt>
<trkpt lat="40.0714397" lon="-105.229539">
  <ele>1583.0</ele>
  <time>2026-08-28T17:56:38Z</time>
  <course>243.4</course>
  <speed>1.02</speed>
  <fix>3d</fix>
</trkpt>
<trkpt lat="40.0714386" lon="-105.2295426">
  <ele>1583.13</ele>
  <time>2026-08-28T17:56:38Z</time>
  <course>244.24</course>
  <speed>1.0064790112068907</speed>
  <fix>3d</fix>
</trkpt>
<trkpt lat="40.0714389" lon="-105.2295412">
  <ele>1583.0</ele>
  <time>2026-08-28T17:56:38Z</time>
  <course>243.34</course>
  <speed>1.03</speed>
  <fix>3d</fix>
</trkpt>
<trkpt lat="40.0714382" lon="-105.2295436">
  <ele>1583.13</ele>
  <time>2026-08-28T17:56:38Z</time>
  <course>244.47</course>
  <speed>1.0155294185792945</speed>
  <fix>3d</fix>
</trkpt>
<trkpt lat="40.0714389" lon="-105.2295412">
  <ele>1583.0</ele>
  <time>2026-08-28T17:56:38Z</time>
  <course>243.34</course>
  <speed>1.03</speed>
  <fix>3d</fix>
</trkpt>
<trkpt lat="40.0714378" lon="-105.2295447">
  <ele>1583.13</ele>
  <time>2026-08-28T17:56:38Z</time>
  <course>244.72</course>
  <speed>1.0155294185792945</speed>
  <fix>3d</fix>
</trkpt>
<trkpt lat="40.071438" lon="-105.2295434">
  <ele>1583.0</ele>
  <time>2026-08-28T17:56:38Z</time>
  <course>243.32</course>
  <speed>1.03</speed>
  <fix>3d</fix>
</trkpt>
<trkpt lat="40.0714373" lon="-105.2295458">
  <ele>1583.13</ele>
  <time>2026-08-28T17:56:38Z</time>
  <course>244.96</course>
  <speed>1.0155294185792945</speed>
  <fix>3d</fix>
</trkpt>
<trkpt lat="40.071438" lon="-105.2295434">
  <ele>1583.0</ele>
  <time>2026-08-28T17:56:38Z</time>
  <course>243.32</course>
  <speed>1.03</speed>
  <fix>3d</fix>
</trkpt>
<trkpt lat="40.0714369" lon="-105.2295469">
  <ele>1583.13</ele>
  <time>2026-08-28T17:56:38Z</time>
  <course>245.22</course>
  <speed>1.0155294185792945</speed>
  <fix>3d</fix>
</trkpt>
<trkpt lat="40.0714372" lon="-105.2295456">
  <ele>1583.0</ele>
  <time>2026-08-28T17:56:38Z</time>
  <course>243.33</course>
  <speed>1.04</speed>
  <fix>3d</fix>
</trkpt>
<trkpt lat="40.0714365" lon="-105.229548">
  <ele>1583.13</ele>
  <time>2026-08-28T17:56:38Z</time>
  <course>245.5</course>
  <speed>1.0155294185792945</speed>
  <fix>3d</fix>
</trkpt>
<trkpt lat="40.0714372" lon="-105.2295456">
  <ele>1583.0</ele>
  <time>2026-08-28T17:56:38Z</time>
  <course>243.33</course>
  <speed>1.04</speed>
  <fix>3d</fix>
</trkpt>
<trkpt lat="40.0714361" lon="-105.2295491">
  <ele>1583.13</ele>
  <time>2026-08-28T17:56:38Z</time>
  <course>245.79</course>
  <speed>1.0155294185792945</speed>
  <fix>3d</fix>
</trkpt>
<trkpt lat="40.0714363" lon="-105.2295478">
  <ele>1583.0</ele>
  <time>2026-08-28T17:56:38Z</time>
  <course>243.39</course>
  <speed>1.04</speed>
  <fix>3d</fix>
</trkpt>
<trkpt lat="40.0714356" lon="-105.2295504">
  <ele>1583.14</ele>
  <time>2026-08-28T17:56:38Z</time>
  <course>246.13</course>
  <speed>1.0155294185792945</speed>
  <fix>3d</fix>
</trkpt>
<trkpt lat="40.0714363" lon="-105.2295478">
  <ele>1583.0</ele>
  <time>2026-08-28T17:56:38Z</time>
  <course>243.39</course>
  <speed>1.04</speed>
  <fix>3d</fix>
</trkpt>
<trkpt lat="40.0714352" lon="-105.2295515">
  <ele>1583.14</ele>
  <time>2026-08-28T17:56:38Z</time>
  <course>246.44</course>
  <speed>1.0155294185792945</speed>
  <fix>3d</fix>
</trkpt>
<trkpt lat="40.0714355" lon="-105.2295499">
  <ele>1583.0</ele>
  <time>2026-08-28T17:56:38Z</time>
  <course>243.49</course>
  <speed>1.04</speed>
  <fix>3d</fix>
</trkpt>
<trkpt lat="40.0714347" lon="-105.2295526">
  <ele>1583.14</ele>
  <time>2026-08-28T17:56:38Z</time>
  <course>246.76</course>
  <speed>1.0155294185792945</speed>
  <fix>3d</fix>
</trkpt>
<trkpt lat="40.0714355" lon="-105.2295499">
  <ele>1583.0</ele>
  <time>2026-08-28T17:56:38Z</time>
  <course>243.49</course>
  <speed>1.04</speed>
  <fix>3d</fix>
</trkpt>
<trkpt lat="40.0714343" lon="-105.2295537">
  <ele>1583.14</ele>
  <time>2026-08-28T17:56:38Z</time>
  <course>247.08</course>
  <speed>1.0155294185792945</speed>
  <fix>3d</fix>
</trkpt>
<trkpt lat="40.0714347" lon="-105.2295522">
  <ele>1583.0</ele>
  <time>2026-08-28T17:56:38Z</time>
  <course>243.63</course>
  <speed>1.04</speed>
  <fix>3d</fix>
</trkpt>
<trkpt lat="40.0714339" lon="-105.2295548">
  <ele>1583.13</ele>
  <time>2026-08-28T17:56:38Z</time>
  <course>247.41</course>
  <speed>1.0155294185792945</speed>
  <fix>3d</fix>
</trkpt>
<trkpt lat="40.0714347" lon="-105.2295522">
  <ele>1583.0</ele>
  <time>2026-08-28T17:56:38Z</time>
  <course>243.63</course>
  <speed>1.04</speed>
  <fix>3d</fix>
</trkpt>
<trkpt lat="40.0714335" lon="-105.2295559">
  <ele>1583.13</ele>
  <time>2026-08-28T17:56:38Z</time>
  <course>247.77</course>
  <speed>1.0113357503816425</speed>
  <fix>3d</fix>
</trkpt>
<trkpt lat="40.0714339" lon="-105.2295543">
  <ele>1583.0</ele>
  <time>2026-08-28T17:56:38Z</time>
  <course>243.8</course>
  <speed>1.04</speed>
  <fix>3d</fix>
</trkpt>
<trkpt lat="40.0714331" lon="-105.229557">
  <ele>1583.13</ele>
  <time>2026-08-28T17:56:38Z</time>
  <course>248.09</course>
  <speed>1.0113357503816425</speed>
  <fix>3d</fix>
</trkpt>
<trkpt lat="40.0714339" lon="-105.2295543">
  <ele>1583.0</ele>
  <time>2026-08-28T17:56:38Z</time>
  <course>243.8</course>
  <speed>1.04</speed>
  <fix>3d</fix>
</trkpt>
<trkpt lat="40.0714327" lon="-105.2295581">
  <ele>1583.12</ele>
  <time>2026-08-28T17:56:38Z</time>
  <course>248.43</course>
  <speed>1.0113357503816425</speed>
  <fix>3d</fix>
</trkpt>
<trkpt lat="40.071433" lon="-105.2295566">
  <ele>1583.0</ele>
  <time>2026-08-28T17:56:38Z</time>
  <course>244.02</course>
  <speed>1.04</speed>
  <fix>3d</fix>
</trkpt>
<trkpt lat="40.0714323" lon="-105.2295592">
  <ele>1583.12</ele>
  <time>2026-08-28T17:56:38Z</time>
  <course>248.78</course>
  <speed>1.0113357503816425</speed>
  <fix>3d</fix>
</trkpt>
<trkpt lat="40.071433" lon="-105.2295566">
  <ele>1583.0</ele>
  <time>2026-08-28T17:56:38Z</time>
  <course>244.02</course>
  <speed>1.04</speed>
  <fix>3d</fix>
</trkpt>
<trkpt lat="40.0714319" lon="-105.2295603">
  <ele>1583.12</ele>
  <time>2026-08-28T17:56:38Z</time>
  <course>249.14</course>
  <speed>1.0072239075796403</speed>
  <fix>3d</fix>
</trkpt>
<trkpt lat="40.0714322" lon="-105.2295588">
  <ele>1583.0</ele>
  <time>2026-08-28T17:56:38Z</time>
  <course>244.27</course>
  <speed>1.03</speed>
  <fix>3d</fix>
</trkpt>
<trkpt lat="40.0714315" lon="-105.2295614">
  <ele>1583.12</ele>
  <time>2026-08-28T17:56:38Z</time>
  <course>249.48</course>
  <speed>1.0072239075796403</speed>
  <fix>3d</fix>
</trkpt>
<trkpt lat="40.0714322" lon="-105.2295588">
  <ele>1583.0</ele>
  <time>2026-08-28T17:56:38Z</time>
  <course>244.27</course>
  <speed>1.03</speed>
  <fix>3d</fix>
</trkpt>
<trkpt lat="40.0714312" lon="-105.2295623">
  <ele>1583.12</ele>
  <time>2026-08-28T17:56:38Z</time>
  <course>249.76</course>
  <speed>1.0072239075796403</speed>
  <fix>3d</fix>
</trkpt>
<trkpt lat="40.0714313" lon="-105.2295609">
  <ele>1583.0</ele>
  <time>2026-08-28T17:56:38Z</time>
  <course>244.56</course>
  <speed>1.03</speed>
  <fix>3d</fix>
</trkpt>
<trkpt lat="40.0714308" lon="-105.2295634">
  <ele>1583.12</ele>
  <time>2026-08-28T17:56:38Z</time>
  <course>250.13</course>
  <speed>1.0031948963187562</speed>
  <fix>3d</fix>
</trkpt>
<trkpt lat="40.0714313" lon="-105.2295609">
  <ele>1583.0</ele>
  <time>2026-08-28T17:56:38Z</time>
  <course>244.56</course>
  <speed>1.03</speed>
  <fix>3d</fix>
</trkpt>
<trkpt lat="40.0714304" lon="-105.2295644">
  <ele>1583.12</ele>
  <time>2026-08-28T17:56:38Z</time>
  <course>250.49</course>
  <speed>1.0031948963187562</speed>
  <fix>3d</fix>
</trkpt>
<trkpt lat="40.0714306" lon="-105.2295632">
  <ele>1583.0</ele>
  <time>2026-08-28T17:56:38Z</time>
  <course>244.87</course>
  <speed>1.03</speed>
  <fix>3d</fix>
</trkpt>
<trkpt lat="40.07143" lon="-105.2295656">
  <ele>1583.12</ele>
  <time>2026-08-28T17:56:38Z</time>
  <course>250.82</course>
  <speed>1.0031948963187562</speed>
  <fix>3d</fix>
</trkpt>
<trkpt lat="40.0714306" lon="-105.2295632">
  <ele>1583.0</ele>
  <time>2026-08-28T17:56:38Z</time>
  <course>244.87</course>
  <speed>1.03</speed>
  <fix>3d</fix>
</trkpt>
<trkpt lat="40.0714296" lon="-105.2295667">
  <ele>1583.11</ele>
  <time>2026-08-28T17:56:38Z</time>
  <course>251.17</course>
  <speed>0.9992497185388645</speed>
  <fix>3d</fix>
</trkpt>
<trkpt lat="40.0714298" lon="-105.2295653">
  <ele>1583.0</ele>
  <time>2026-08-28T17:56:38Z</time>
  <course>245.22</course>
  <speed>1.03</speed>
  <fix>3d</fix>
</trkpt>
<trkpt lat="40.0714292" lon="-105.2295678">
  <ele>1583.11</ele>
  <time>2026-08-28T17:56:38Z</time>
  <course>251.53</course>
  <speed>0.9992497185388645</speed>
  <fix>3d</fix>
</trkpt>
<trkpt lat="40.0714298" lon="-105.2295653">
  <ele>1583.0</ele>
  <time>2026-08-28T17:56:38Z</time>
  <course>245.22</course>
  <speed>1.03</speed>
  <fix>3d</fix>
</trkpt>
<trkpt lat="40.0714288" lon="-105.2295688">
  <ele>1583.11</ele>
  <time>2026-08-28T17:56:38Z</time>
  <course>251.87</course>
  <speed>0.9992497185388645</speed>
  <fix>3d</fix>
</trkpt>
<trkpt lat="40.0714291" lon="-105.2295676">
  <ele>1583.0</ele>
  <time>2026-08-28T17:56:38Z</time>
  <course>245.59</course>
  <speed>1.02</speed>
  <fix>3d</fix>
</trkpt>
<trkpt lat="40.0714284" lon="-105.22957">
  <ele>1583.11</ele>
  <time>2026-08-28T17:56:38Z</time>
  <course>252.21</course>
  <speed>0.9953893710503443</speed>
  <fix>3d</fix>
</trkpt>
<trkpt lat="40.0714291" lon="-105.2295676">
  <ele>1583.0</ele>
  <time>2026-08-28T17:56:38Z</time>
  <course>245.59</course>
  <speed>1.02</speed>
  <fix>3d</fix>
</trkpt>
<trkpt lat="40.0714281" lon="-105.2295711">
  <ele>1583.1</ele>
  <time>2026-08-28T17:56:38Z</time>
  <course>252.55</course>
  <speed>0.9953893710503443</speed>
  <fix>3d</fix>
</trkpt>
<trkpt lat="40.0714283" lon="-105.2295698">
  <ele>1583.0</ele>
  <time>2026-08-28T17:56:38Z</time>
  <course>245.99</course>
  <speed>1.02</speed>
  <fix>3d</fix>
</trkpt>
<trkpt lat="40.0714277" lon="-105.2295722">
  <ele>1583.1</ele>
  <time>2026-08-28T17:56:38Z</time>
  <course>252.89</course>
  <speed>0.9916148445843276</speed>
  <fix>3d</fix>
</trkpt>
<trkpt lat="40.0714283" lon="-105.2295698">
  <ele>1583.0</ele>
  <time>2026-08-28T17:56:38Z</time>
  <course>245.99</course>
  <speed>1.02</speed>
  <fix>3d</fix>
</trkpt>
<trkpt lat="40.0714273" lon="-105.2295735">
  <ele>1583.1</ele>
  <time>2026-08-28T17:56:38Z</time>
  <course>253.26</course>
  <speed>0.9916148445843276</speed>
  <fix>3d</fix>
</trkpt>
<trkpt lat="40.0714275" lon="-105.2295719">
  <ele>1583.0</ele>
  <time>2026-08-28T17:56:38Z</time>
  <course>246.4</course>
  <speed>1.01</speed>
  <fix>3d</fix>
</trkpt>
<trkpt lat="40.0714269" lon="-105.2295746">
  <ele>1583.1</ele>
  <time>2026-08-28T17:56:38Z</time>
  <course>253.57</course>
  <speed>0.9879271228182774</speed>
  <fix>3d</fix>
</trkpt>
<trkpt lat="40.0714275" lon="-105.2295719">
  <ele>1583.0</ele>
  <time>2026-08-28T17:56:38Z</time>
  <course>246.4</course>
  <speed>1.01</speed>
  <fix>3d</fix>
</trkpt>
<trkpt lat="40.0714265" lon="-105.2295757">
  <ele>1583.1</ele>
  <time>2026-08-28T17:56:38Z</time>
  <course>253.89</course>
  <speed>0.9879271228182774</speed>
  <fix>3d</fix>
</trkpt>
<trkpt lat="40.0714268" lon="-105.2295742">
  <ele>1583.0</ele>
  <time>2026-08-28T17:56:38Z</time>
  <course>246.84</course>
  <speed>1.01</speed>
  <fix>3d</fix>
</trkpt>
<trkpt lat="40.0714262" lon="-105.2295768">
  <ele>1583.1</ele>
  <time>2026-08-28T17:56:38Z</time>
  <course>254.21</course>
  <speed>0.9879271228182774</speed>
  <fix>3d</fix>
</trkpt>
<trkpt lat="40.0714268" lon="-105.2295742">
  <ele>1583.0</ele>
  <time>2026-08-28T17:56:38Z</time>
  <course>246.84</course>
  <speed>1.01</speed>
  <fix>3d</fix>
</trkpt>
<trkpt lat="40.0714258" lon="-105.2295779">
  <ele>1583.1</ele>
  <time>2026-08-28T17:56:38Z</time>
  <course>254.48</course>
  <speed>0.9843271813782245</speed>
  <fix>3d</fix>
</trkpt>
<trkpt lat="40.0714261" lon="-105.2295763">
  <ele>1583.0</ele>
  <time>2026-08-28T17:56:38Z</time>
  <course>247.29</course>
  <speed>1.01</speed>
  <fix>3d</fix>
</trkpt>
<trkpt lat="40.0714255" lon="-105.229579">
  <ele>1583.1</ele>
  <time>2026-08-28T17:56:38Z</time>
  <course>254.77</course>
  <speed>0.9843271813782245</speed>
  <fix>3d</fix>
</trkpt>
<trkpt lat="40.0714261" lon="-105.2295763">
  <ele>1583.0</ele>
  <time>2026-08-28T17:56:38Z</time>
  <course>247.29</course>
  <speed>1.01</speed>
  <fix>3d</fix>
</trkpt>
<trkpt lat="40.0714252" lon="-105.2295801">
  <ele>1583.09</ele>
  <time>2026-08-28T17:56:38Z</time>
  <course>255.02</course>
  <speed>0.9714422267947797</speed>
  <fix>3d</fix>
</trkpt>
<trkpt lat="40.0714254" lon="-105.2295786">
  <ele>1583.0</ele>
  <time>2026-08-28T17:56:38Z</time>
  <course>247.75</course>
  <speed>1.0</speed>
  <fix>3d</fix>
</trkpt>
<trkpt lat="40.0714248" lon="-105.2295811">
  <ele>1583.09</ele>
  <time>2026-08-28T17:56:38Z</time>
  <course>255.31</course>
  <speed>0.9714422267947797</speed>
  <fix>3d</fix>
</trkpt>
<trkpt lat="40.0714254" lon="-105.2295786">
  <ele>1583.0</ele>
  <time>2026-08-28T17:56:38Z</time>
  <course>247.75</course>
  <speed>1.0</speed>
  <fix>3d</fix>
</trkpt>
<trkpt lat="40.0714245" lon="-105.2295822">
  <ele>1583.09</ele>
  <time>2026-08-28T17:56:38Z</time>
  <course>255.57</course>
  <speed>0.9679876032264049</speed>
  <fix>3d</fix>
</trkpt>
<trkpt lat="40.0714248" lon="-105.2295807">
  <ele>1583.0</ele>
  <time>2026-08-28T17:56:38Z</time>
  <course>248.22</course>
  <speed>1.0</speed>
  <fix>3d</fix>
</trkpt>
<trkpt lat="40.0714242" lon="-105.2295833">
  <ele>1583.09</ele>
  <time>2026-08-28T17:56:38Z</time>
  <course>255.8</course>
  <speed>0.9679876032264049</speed>
  <fix>3d</fix>
</trkpt>
<trkpt lat="40.0714248" lon="-105.2295807">
  <ele>1583.0</ele>
  <time>2026-08-28T17:56:38Z</time>
  <course>248.22</course>
  <speed>1.0</speed>
  <fix>3d</fix>
</trkpt>
<trkpt lat="40.0714239" lon="-105.2295844">
  <ele>1583.09</ele>
  <time>2026-08-28T17:56:38Z</time>
  <course>256.04</course>
  <speed>0.9646242791885347</speed>
  <fix>3d</fix>
</trkpt>
<trkpt lat="40.0714241" lon="-105.2295829">
  <ele>1583.0</ele>
  <time>2026-08-28T17:56:38Z</time>
  <course>248.69</course>
  <speed>0.99</speed>
  <fix>3d</fix>
</trkpt>
<trkpt lat="40.0714236" lon="-105.2295853">
  <ele>1583.09</ele>
  <time>2026-08-28T17:56:38Z</time>
  <course>256.23</course>
  <speed>0.9646242791885347</speed>
  <fix>3d</fix>
</trkpt>
<trkpt lat="40.0714241" lon="-105.2295829">
  <ele>1583.0</ele>
  <time>2026-08-28T17:56:38Z</time>
  <course>248.69</course>
  <speed>0.99</speed>
  <fix>3d</fix>
</trkpt>
<trkpt lat="40.0714233" lon="-105.2295863">
  <ele>1583.09</ele>
  <time>2026-08-28T17:56:38Z</time>
  <course>256.43</course>
  <speed>0.9613532129243653</speed>
  <fix>3d</fix>
</trkpt>
<trkpt lat="40.0714234" lon="-105.2295851">
  <ele>1583.0</ele>
  <time>2026-08-28T17:56:38Z</time>
  <course>249.16</course>
  <speed>0.99</speed>
  <fix>3d</fix>
</trkpt>
<trkpt lat="40.071423" lon="-105.2295874">
  <ele>1583.09</ele>
  <time>2026-08-28T17:56:38Z</time>
  <course>256.63</course>
  <speed>0.9613532129243653</speed>
  <fix>3d</fix>
</trkpt>
<trkpt lat="40.0714234" lon="-105.2295851">
  <ele>1583.0</ele>
  <time>2026-08-28T17:56:38Z</time>
  <course>249.16</course>
  <speed>0.99</speed>
  <fix>3d</fix>
</trkpt>
<trkpt lat="40.0714227" lon="-105.2295885">
  <ele>1583.09</ele>
  <time>2026-08-28T17:56:38Z</time>
  <course>256.84</course>
  <speed>0.9581753492967766</speed>
  <fix>3d</fix>
</trkpt>
<trkpt lat="40.0714228" lon="-105.2295872">
  <ele>1583.0</ele>
  <time>2026-08-28T17:56:38Z</time>
  <course>249.64</course>
  <speed>0.99</speed>
  <fix>3d</fix>
</trkpt>
<trkpt lat="40.0714224" lon="-105.2295896">
  <ele>1583.09</ele>
  <time>2026-08-28T17:56:38Z</time>
  <course>257.02</course>
  <speed>0.9581753492967766</speed>
  <fix>3d</fix>
</trkpt>
<trkpt lat="40.0714228" lon="-105.2295872">
  <ele>1583.0</ele>
  <time>2026-08-28T17:56:38Z</time>
  <course>249.64</course>
  <speed>0.99</speed>
  <fix>3d</fix>
</trkpt>
<trkpt lat="40.0714221" lon="-105.2295907">
  <ele>1583.09</ele>
  <time>2026-08-28T17:56:38Z</time>
  <course>257.17</course>
  <speed>0.9581753492967766</speed>
  <fix>3d</fix>
</trkpt>
<trkpt lat="40.0714222" lon="-105.2295895">
  <ele>1583.0</ele>
  <time>2026-08-28T17:56:38Z</time>
  <course>250.1</course>
  <speed>0.98</speed>
  <fix>3d</fix>
</trkpt>
<trkpt lat="40.0714218" lon="-105.2295918">
  <ele>1583.09</ele>
  <time>2026-08-28T17:56:38Z</time>
  <course>257.32</course>
  <speed>0.9550916186418976</speed>
  <fix>3d</fix>
</trkpt>
<trkpt lat="40.0714222" lon="-105.2295895">
  <ele>1583.0</ele>
  <time>2026-08-28T17:56:38Z</time>
  <course>250.1</course>
  <speed>0.98</speed>
  <fix>3d</fix>
</trkpt>
<trkpt lat="40.0714215" lon="-105.2295929">
  <ele>1583.09</ele>
  <time>2026-08-28T17:56:38Z</time>
  <course>257.44</course>
  <speed>0.9550916186418976</speed>
  <fix>3d</fix>
</trkpt>
<trkpt lat="40.0714216" lon="-105.2295916">
  <ele>1583.0</ele>
  <time>2026-08-28T17:56:38Z</time>
  <course>250.56</course>
  <speed>0.98</speed>
  <fix>3d</fix>
</trkpt>
<trkpt lat="40.0714212" lon="-105.229594">
  <ele>1583.09</ele>
  <time>2026-08-28T17:56:38Z</time>
  <course>257.59</course>
  <speed>0.9521029356114811</speed>
  <fix>3d</fix>
</trkpt>
<trkpt lat="40.0714216" lon="-105.2295916">
  <ele>1583.0</ele>
  <time>2026-08-28T17:56:38Z</time>
  <course>250.56</course>
  <speed>0.98</speed>
  <fix>3d</fix>
</trkpt>
<trkpt lat="40.0714209" lon="-105.2295951">
  <ele>1583.1</ele>
  <time>2026-08-28T17:56:38Z</time>
  <course>257.74</course>
  <speed>0.9521029356114811</speed>
  <fix>3d</fix>
</trkpt>
<trkpt lat="40.071421" lon="-105.2295938">
  <ele>1583.0</ele>
  <time>2026-08-28T17:56:38Z</time>
  <course>251.0</course>
  <speed>0.98</speed>
  <fix>3d</fix>
</trkpt>
<trkpt lat="40.0714206" lon="-105.2295964">
  <ele>1583.1</ele>
  <time>2026-08-28T17:56:38Z</time>
  <course>257.87</course>
  <speed>0.9521029356114811</speed>
  <fix>3d</fix>
</trkpt>
<trkpt lat="40.071421" lon="-105.2295938">
  <ele>1583.0</ele>
  <time>2026-08-28T17:56:38Z</time>
  <course>251.0</course>
  <speed>0.98</speed>
  <fix>3d</fix>
</trkpt>
<trkpt lat="40.0714203" lon="-105.2295975">
  <ele>1583.11</ele>
  <time>2026-08-28T17:56:38Z</time>
  <course>257.92</course>
  <speed>0.9492101980067429</speed>
  <fix>3d</fix>
</trkpt>
<trkpt lat="40.0714205" lon="-105.2295959">
  <ele>1583.0</ele>
  <time>2026-08-28T17:56:38Z</time>
  <course>251.44</course>
  <speed>0.97</speed>
  <fix>3d</fix>
</trkpt>
<trkpt lat="40.07142" lon="-105.2295985">
  <ele>1583.11</ele>
  <time>2026-08-28T17:56:38Z</time>
  <course>257.97</course>
  <speed>0.9492101980067429</speed>
  <fix>3d</fix>
</trkpt>
<trkpt lat="40.0714205" lon="-105.2295959">
  <ele>1583.0</ele>
  <time>2026-08-28T17:56:38Z</time>
  <course>251.44</course>
  <speed>0.97</speed>
  <fix>3d</fix>
</trkpt>
<trkpt lat="40.0714198" lon="-105.2295996">
  <ele>1583.12</ele>
  <time>2026-08-28T17:56:38Z</time>
  <course>258.02</course>
  <speed>0.9464142856064675</speed>
  <fix>3d</fix>
</trkpt>
<trkpt lat="40.0714199" lon="-105.2295982">
  <ele>1583.0</ele>
  <time>2026-08-28T17:56:38Z</time>
  <course>251.85</course>
  <speed>0.97</speed>
  <fix>3d</fix>
</trkpt>
<trkpt lat="40.0714195" lon="-105.2296007">
  <ele>1583.12</ele>
  <time>2026-08-28T17:56:38Z</time>
  <course>258.07</course>
  <speed>0.9464142856064675</speed>
  <fix>3d</fix>
</trkpt>
<trkpt lat="40.0714199" lon="-105.2295982">
  <ele>1583.0</ele>
  <time>2026-08-28T17:56:38Z</time>
  <course>251.85</course>
  <speed>0.97</speed>
  <fix>3d</fix>
</trkpt>
<trkpt lat="40.0714192" lon="-105.2296018">
  <ele>1583.12</ele>
  <time>2026-08-28T17:56:38Z</time>
  <course>258.08</course>
  <speed>0.9464142856064675</speed>
  <fix>3d</fix>
</trkpt>
<trkpt lat="40.0714193" lon="-105.2296003">
  <ele>1583.0</ele>
  <time>2026-08-28T17:56:38Z</time>
  <course>252.24</course>
  <speed>0.97</speed>
  <fix>3d</fix>
</trkpt>
<trkpt lat="40.071419" lon="-105.2296029">
  <ele>1583.12</ele>
  <time>2026-08-28T17:56:38Z</time>
  <course>258.12</course>
  <speed>0.943716058992322</speed>
  <fix>3d</fix>
</trkpt>
<trkpt lat="40.0714193" lon="-105.2296003">
  <ele>1583.0</ele>
  <time>2026-08-28T17:56:38Z</time>
  <course>252.24</course>
  <speed>0.97</speed>
  <fix>3d</fix>
</trkpt>
<trkpt lat="40.0714187" lon="-105.229604">
  <ele>1583.12</ele>
  <time>2026-08-28T17:56:38Z</time>
  <course>258.12</course>
  <speed>0.9340770846134703</speed>
  <fix>3d</fix>
</trkpt>
<trkpt lat="40.0714188" lon="-105.2296025">
  <ele>1583.0</ele>
  <time>2026-08-28T17:56:38Z</time>
  <course>252.61</course>
  <speed>0.96</speed>
  <fix>3d</fix>
</trkpt>
<trkpt lat="40.0714185" lon="-105.229605">
  <ele>1583.12</ele>
  <time>2026-08-28T17:56:38Z</time>
  <course>258.12</course>
  <speed>0.9340770846134703</speed>
  <fix>3d</fix>
</trkpt>
<trkpt lat="40.0714188" lon="-105.2296025">
  <ele>1583.0</ele>
  <time>2026-08-28T17:56:38Z</time>
  <course>252.61</course>
  <speed>0.96</speed>
  <fix>3d</fix>
</trkpt>
<trkpt lat="40.0714182" lon="-105.2296061">
  <ele>1583.12</ele>
  <time>2026-08-28T17:56:38Z</time>
  <course>258.12</course>
  <speed>0.9340770846134703</speed>
  <fix>3d</fix>
</trkpt>
<trkpt lat="40.0714183" lon="-105.2296047">
  <ele>1583.0</ele>
  <time>2026-08-28T17:56:38Z</time>
  <course>252.95</course>
  <speed>0.96</speed>
  <fix>3d</fix>
</trkpt>
<trkpt lat="40.071418" lon="-105.2296072">
  <ele>1583.12</ele>
  <time>2026-08-28T17:56:38Z</time>
  <course>258.12</course>
  <speed>0.9314504817756014</speed>
  <fix>3d</fix>
</trkpt>
<trkpt lat="40.0714183" lon="-105.2296047">
  <ele>1583.0</ele>
  <time>2026-08-28T17:56:38Z</time>
  <course>252.95</course>
  <speed>0.96</speed>
  <fix>3d</fix>
</trkpt>
<trkpt lat="40.0714178" lon="-105.2296081">
  <ele>1583.12</ele>
  <time>2026-08-28T17:56:38Z</time>
  <course>258.12</course>
  <speed>0.9314504817756014</speed>
  <fix>3d</fix>
</trkpt>
<trkpt lat="40.0714178" lon="-105.2296068">
  <ele>1583.0</ele>
  <time>2026-08-28T17:56:38Z</time>
  <course>253.27</course>
  <speed>0.96</speed>
  <fix>3d</fix>
</trkpt>
<trkpt lat="40.0714175" lon="-105.2296091">
  <ele>1583.13</ele>
  <time>2026-08-28T17:56:38Z</time>
  <course>258.1</course>
  <speed>0.9314504817756014</speed>
  <fix>3d</fix>
</trkpt>
<trkpt lat="40.0714178" lon="-105.2296068">
  <ele>1583.0</ele>
  <time>2026-08-28T17:56:38Z</time>
  <course>253.27</course>
  <speed>0.96</speed>
  <fix>3d</fix>
</trkpt>
<trkpt lat="40.0714173" lon="-105.2296102">
  <ele>1583.13</ele>
  <time>2026-08-28T17:56:38Z</time>
  <course>258.07</course>
  <speed>0.9314504817756014</speed>
  <fix>3d</fix>
</trkpt>
<trkpt lat="40.0714173" lon="-105.229609">
  <ele>1583.0</ele>
  <time>2026-08-28T17:56:38Z</time>
  <course>253.56</course>
  <speed>0.96</speed>
  <fix>3d</fix>
</trkpt>
<trkpt lat="40.071417" lon="-105.2296113">
  <ele>1583.13</ele>
  <time>2026-08-28T17:56:38Z</time>
  <course>258.0</course>
  <speed>0.9289241088485108</speed>
  <fix>3d</fix>
</trkpt>
<trkpt lat="40.0714173" lon="-105.229609">
  <ele>1583.0</ele>
  <time>2026-08-28T17:56:38Z</time>
  <course>253.56</course>
  <speed>0.96</speed>
  <fix>3d</fix>
</trkpt>
<trkpt lat="40.0714168" lon="-105.2296124">
  <ele>1583.13</ele>
  <time>2026-08-28T17:56:38Z</time>
  <course>257.91</course>
  <speed>0.9289241088485108</speed>
  <fix>3d</fix>
</trkpt>
<trkpt lat="40.0714169" lon="-105.2296111">
  <ele>1583.0</ele>
  <time>2026-08-28T17:56:38Z</time>
  <course>253.83</course>
  <speed>0.95</speed>
  <fix>3d</fix>
</trkpt>
<trkpt lat="40.0714165" lon="-105.2296135">
  <ele>1583.13</ele>
  <time>2026-08-28T17:56:38Z</time>
  <course>257.82</course>
  <speed>0.9289241088485108</speed>
  <fix>3d</fix>
</trkpt>
<trkpt lat="40.0714169" lon="-105.2296111">
  <ele>1583.0</ele>
  <time>2026-08-28T17:56:38Z</time>
  <course>253.83</course>
  <speed>0.95</speed>
  <fix>3d</fix>
</trkpt>
<trkpt lat="40.0714163" lon="-105.2296146">
  <ele>1583.13</ele>
  <time>2026-08-28T17:56:38Z</time>
  <course>257.72</course>
  <speed>0.9289241088485108</speed>
  <fix>3d</fix>
</trkpt>
<trkpt lat="40.0714164" lon="-105.2296133">
  <ele>1583.0</ele>
  <time>2026-08-28T17:56:38Z</time>
  <course>254.06</course>
  <speed>0.95</speed>
  <fix>3d</fix>
</trkpt>
<trkpt lat="40.0714161" lon="-105.2296156">
  <ele>1583.13</ele>
  <time>2026-08-28T17:56:38Z</time>
  <course>257.62</course>
  <speed>0.9289241088485108</speed>
  <fix>3d</fix>
</trkpt>
<trkpt lat="40.0714164" lon="-105.2296133">
  <ele>1583.0</ele>
  <time>2026-08-28T17:56:38Z</time>
  <course>254.06</course>
  <speed>0.95</speed>
  <fix>3d</fix>
</trkpt>
<trkpt lat="40.0714159" lon="-105.2296167">
  <ele>1583.13</ele>
  <time>2026-08-28T17:56:38Z</time>
  <course>257.5</course>
  <speed>0.9264987857520376</speed>
  <fix>3d</fix>
</trkpt>
<trkpt lat="40.0714159" lon="-105.2296155">
  <ele>1583.0</ele>
  <time>2026-08-28T17:56:38Z</time>
  <course>254.25</course>
  <speed>0.95</speed>
  <fix>3d</fix>
</trkpt>
<trkpt lat="40.0714156" lon="-105.2296178">
  <ele>1583.13</ele>
  <time>2026-08-28T17:56:38Z</time>
  <course>257.37</course>
  <speed>0.9264987857520376</speed>
  <fix>3d</fix>
</trkpt>
<trkpt lat="40.0714159" lon="-105.2296155">
  <ele>1583.0</ele>
  <time>2026-08-28T17:56:38Z</time>
  <course>254.25</course>
  <speed>0.95</speed>
  <fix>3d</fix>
</trkpt>
<trkpt lat="40.0714154" lon="-105.2296191">
  <ele>1583.13</ele>
  <time>2026-08-28T17:56:38Z</time>
  <course>257.24</course>
  <speed>0.9264987857520376</speed>
  <fix>3d</fix>
</trkpt>
<trkpt lat="40.0714155" lon="-105.2296177">
  <ele>1583.0</ele>
  <time>2026-08-28T17:56:38Z</time>
  <course>254.41</course>
  <speed>0.95</speed>
  <fix>3d</fix>
</trkpt>
<trkpt lat="40.0714151" lon="-105.2296202">
  <ele>1583.13</ele>
  <time>2026-08-28T17:56:38Z</time>
  <course>257.14</course>
  <speed>0.9264987857520376</speed>
  <fix>3d</fix>
</trkpt>
<trkpt lat="40.0714155" lon="-105.2296177">
  <ele>1583.0</ele>
  <time>2026-08-28T17:56:38Z</time>
  <course>254.41</course>
  <speed>0.95</speed>
  <fix>3d</fix>
</trkpt>
<trkpt lat="40.0714149" lon="-105.2296213">
  <ele>1583.13</ele>
  <time>2026-08-28T17:56:38Z</time>
  <course>257.03</course>
  <speed>0.9264987857520376</speed>
  <fix>3d</fix>
</trkpt>
<trkpt lat="40.071415" lon="-105.2296198">
  <ele>1583.0</ele>
  <time>2026-08-28T17:56:38Z</time>
  <course>254.54</course>
  <speed>0.95</speed>
  <fix>3d</fix>
</trkpt>
<trkpt lat="40.0714147" lon="-105.2296224">
  <ele>1583.13</ele>
  <time>2026-08-28T17:56:38Z</time>
  <course>256.88</course>
  <speed>0.9264987857520376</speed>
  <fix>3d</fix>
</trkpt>
<trkpt lat="40.071415" lon="-105.2296198">
  <ele>1583.0</ele>
  <time>2026-08-28T17:56:38Z</time>
  <course>254.54</course>
  <speed>0.95</speed>
  <fix>3d</fix>
</trkpt>
<trkpt lat="40.0714145" lon="-105.2296235">
  <ele>1583.13</ele>
  <time>2026-08-28T17:56:38Z</time>
  <course>256.73</course>
  <speed>0.9264987857520376</speed>
  <fix>3d</fix>
</trkpt>
<trkpt lat="40.0714145" lon="-105.229622">
  <ele>1583.0</ele>
  <time>2026-08-28T17:56:38Z</time>
  <course>254.64</course>
  <speed>0.95</speed>
  <fix>3d</fix>
</trkpt>
<trkpt lat="40.0714142" lon="-105.2296245">
  <ele>1583.13</ele>
  <time>2026-08-28T17:56:38Z</time>
  <course>256.57</course>
  <speed>0.9264987857520376</speed>
  <fix>3d</fix>
</trkpt>
<trkpt lat="40.0714145" lon="-105.229622">
  <ele>1583.0</ele>
  <time>2026-08-28T17:56:38Z</time>
  <course>254.64</course>
  <speed>0.95</speed>
  <fix>3d</fix>
</trkpt>
<trkpt lat="40.071414" lon="-105.2296256">
  <ele>1583.13</ele>
  <time>2026-08-28T17:56:38Z</time>
  <course>256.41</course>
  <speed>0.9264987857520376</speed>
  <fix>3d</fix>
</trkpt>
<trkpt lat="40.0714141" lon="-105.2296241">
  <ele>1583.0</ele>
  <time>2026-08-28T17:56:38Z</time>
  <course>254.71</course>
  <speed>0.95</speed>
  <fix>3d</fix>
</trkpt>
<trkpt lat="40.0714138" lon="-105.2296267">
  <ele>1583.13</ele>
  <time>2026-08-28T17:56:38Z</time>
  <course>256.26</course>
  <speed>0.9264987857520376</speed>
  <fix>3d</fix>
</trkpt>
<trkpt lat="40.0714141" lon="-105.2296241">
  <ele>1583.0</ele>
  <time>2026-08-28T17:56:38Z</time>
  <course>254.71</course>
  <speed>0.95</speed>
  <fix>3d</fix>
</trkpt>
<trkpt lat="40.0714136" lon="-105.2296278">
  <ele>1583.12</ele>
  <time>2026-08-28T17:56:38Z</time>
  <course>256.16</course>
  <speed>0.9264987857520376</speed>
  <fix>3d</fix>
</trkpt>
<trkpt lat="40.0714136" lon="-105.2296263">
  <ele>1583.0</ele>
  <time>2026-08-28T17:56:38Z</time>
  <course>254.75</course>
  <speed>0.95</speed>
  <fix>3d</fix>
</trkpt>
<trkpt lat="40.0714133" lon="-105.2296288">
  <ele>1583.12</ele>
  <time>2026-08-28T17:56:38Z</time>
  <course>256.01</course>
  <speed>0.9264987857520376</speed>
  <fix>3d</fix>
</trkpt>
<trkpt lat="40.0714136" lon="-105.2296263">
  <ele>1583.0</ele>
  <time>2026-08-28T17:56:38Z</time>
  <course>254.75</course>
  <speed>0.95</speed>
  <fix>3d</fix>
</trkpt>
<trkpt lat="40.0714131" lon="-105.2296299">
  <ele>1583.12</ele>
  <time>2026-08-28T17:56:38Z</time>
  <course>255.86</course>
  <speed>0.9264987857520376</speed>
  <fix>3d</fix>
</trkpt>
<trkpt lat="40.0714131" lon="-105.2296284">
  <ele>1583.0</ele>
  <time>2026-08-28T17:56:38Z</time>
  <course>254.77</course>
  <speed>0.95</speed>
  <fix>3d</fix>
</trkpt>
<trkpt lat="40.0714129" lon="-105.2296308">
  <ele>1583.12</ele>
  <time>2026-08-28T17:56:38Z</time>
  <course>255.73</course>
  <speed>0.9264987857520376</speed>
  <fix>3d</fix>
</trkpt>
<trkpt lat="40.0714131" lon="-105.2296284">
  <ele>1583.0</ele>
  <time>2026-08-28T17:56:38Z</time>
  <course>254.77</course>
  <speed>0.95</speed>
  <fix>3d</fix>
</trkpt>
<trkpt lat="40.0714127" lon="-105.2296318">
  <ele>1583.12</ele>
  <time>2026-08-28T17:56:38Z</time>
  <course>255.58</course>
  <speed>0.9264987857520376</speed>
  <fix>3d</fix>
</trkpt>
<trkpt lat="40.0714127" lon="-105.2296306">
  <ele>1583.0</ele>
  <time>2026-08-28T17:56:38Z</time>
  <course>254.77</course>
  <speed>0.95</speed>
  <fix>3d</fix>
</trkpt>
<trkpt lat="40.0714125" lon="-105.2296329">
  <ele>1583.12</ele>
  <time>2026-08-28T17:56:38Z</time>
  <course>255.43</course>
  <speed>0.9264987857520376</speed>
  <fix>3d</fix>
</trkpt>
<trkpt lat="40.0714127" lon="-105.2296306">
  <ele>1583.0</ele>
  <time>2026-08-28T17:56:38Z</time>
  <course>254.77</course>
  <speed>0.95</speed>
  <fix>3d</fix>
</trkpt>
<trkpt lat="40.0714122" lon="-105.229634">
  <ele>1583.12</ele>
  <time>2026-08-28T17:56:38Z</time>
  <course>255.25</course>
  <speed>0.9264987857520376</speed>
  <fix>3d</fix>
</trkpt>
<trkpt lat="40.0714123" lon="-105.2296327">
  <ele>1583.0</ele>
  <time>2026-08-28T17:56:38Z</time>
  <course>254.74</course>
  <speed>0.95</speed>
  <fix>3d</fix>
</trkpt>
<trkpt lat="40.071412" lon="-105.2296351">
  <ele>1583.12</ele>
  <time>2026-08-28T17:56:38Z</time>
  <course>255.07</course>
  <speed>0.9264987857520376</speed>
  <fix>3d</fix>
</trkpt>
<trkpt lat="40.0714123" lon="-105.2296327">
  <ele>1583.0</ele>
  <time>2026-08-28T17:56:38Z</time>
  <course>254.74</course>
  <speed>0.95</speed>
  <fix>3d</fix>
</trkpt>
<trkpt lat="40.0714118" lon="-105.2296361">
  <ele>1583.13</ele>
  <time>2026-08-28T17:56:38Z</time>
  <course>254.92</course>
  <speed>0.9264987857520376</speed>
  <fix>3d</fix>
</trkpt>
<trkpt lat="40.0714118" lon="-105.229635">
  <ele>1583.0</ele>
  <time>2026-08-28T17:56:38Z</time>
  <course>254.68</course>
  <speed>0.95</speed>
  <fix>3d</fix>
</trkpt>
<trkpt lat="40.0714116" lon="-105.2296372">
  <ele>1583.13</ele>
  <time>2026-08-28T17:56:38Z</time>
  <course>254.75</course>
  <speed>0.9264987857520376</speed>
  <fix>3d</fix>
</trkpt>
<trkpt lat="40.0714118" lon="-105.229635">
  <ele>1583.0</ele>
  <time>2026-08-28T17:56:38Z</time>
  <course>254.68</course>
  <speed>0.95</speed>
  <fix>3d</fix>
</trkpt>
<trkpt lat="40.0714113" lon="-105.2296383">
  <ele>1583.13</ele>
  <time>2026-08-28T17:56:38Z</time>
  <course>254.57</course>
  <speed>0.9264987857520376</speed>
  <fix>3d</fix>
</trkpt>
<trkpt lat="40.0714114" lon="-105.2296371">
  <ele>1583.0</ele>
  <time>2026-08-28T17:56:38Z</time>
  <course>254.6</course>
  <speed>0.95</speed>
  <fix>3d</fix>
</trkpt>
<trkpt lat="40.0714111" lon="-105.2296394">
  <ele>1583.14</ele>
  <time>2026-08-28T17:56:38Z</time>
  <course>254.41</course>
  <speed>0.9264987857520376</speed>
  <fix>3d</fix>
</trkpt>
<trkpt lat="40.0714114" lon="-105.2296371">
  <ele>1583.0</ele>
  <time>2026-08-28T17:56:38Z</time>
  <course>254.6</course>
  <speed>0.95</speed>
  <fix>3d</fix>
</trkpt>
<trkpt lat="40.0714109" lon="-105.2296405">
  <ele>1583.14</ele>
  <time>2026-08-28T17:56:38Z</time>
  <course>254.26</course>
  <speed>0.9264987857520376</speed>
  <fix>3d</fix>
</trkpt>
<trkpt lat="40.0714109" lon="-105.2296393">
  <ele>1583.0</ele>
  <time>2026-08-28T17:56:38Z</time>
  <course>254.5</course>
  <speed>0.95</speed>
  <fix>3d</fix>
</trkpt>
<trkpt lat="40.0714106" lon="-105.2296418">
  <ele>1583.15</ele>
  <time>2026-08-28T17:56:38Z</time>
  <course>254.11</course>
  <speed>0.9289241088485108</speed>
  <fix>3d</fix>
</trkpt>
<trkpt lat="40.0714109" lon="-105.2296393">
  <ele>1583.0</ele>
  <time>2026-08-28T17:56:38Z</time>
  <course>254.5</course>
  <speed>0.95</speed>
  <fix>3d</fix>
</trkpt>
<trkpt lat="40.0714104" lon="-105.2296429">
  <ele>1583.15</ele>
  <time>2026-08-28T17:56:38Z</time>
  <course>253.96</course>
  <speed>0.9386160024205852</speed>
  <fix>3d</fix>
</trkpt>
<trkpt lat="40.0714105" lon="-105.2296414">
  <ele>1583.0</ele>
  <time>2026-08-28T17:56:38Z</time>
  <course>254.39</course>
  <speed>0.95</speed>
  <fix>3d</fix>
</trkpt>
<trkpt lat="40.0714101" lon="-105.229644">
  <ele>1583.16</ele>
  <time>2026-08-28T17:56:38Z</time>
  <course>253.81</course>
  <speed>0.9386160024205852</speed>
  <fix>3d</fix>
</trkpt>
<trkpt lat="40.0714105" lon="-105.2296414">
  <ele>1583.0</ele>
  <time>2026-08-28T17:56:38Z</time>
  <course>254.39</course>
  <speed>0.95</speed>
  <fix>3d</fix>
</trkpt>
<trkpt lat="40.0714099" lon="-105.2296451">
  <ele>1583.16</ele>
  <time>2026-08-28T17:56:38Z</time>
  <course>253.66</course>
  <speed>0.9386160024205852</speed>
  <fix>3d</fix>
</trkpt>
<trkpt lat="40.07141" lon="-105.2296436">
  <ele>1583.0</ele>
  <time>2026-08-28T17:56:38Z</time>
  <course>254.26</course>
  <speed>0.95</speed>
  <fix>3d</fix>
</trkpt>
<trkpt lat="40.0714097" lon="-105.2296462">
  <ele>1583.16</ele>
  <time>2026-08-28T17:56:38Z</time>
  <course>253.5</course>
  <speed>0.9386160024205852</speed>
  <fix>3d</fix>
</trkpt>
<trkpt lat="40.07141" lon="-105.2296436">
  <ele>1583.0</ele>
  <time>2026-08-28T17:56:38Z</time>
  <course>254.26</course>
  <speed>0.95</speed>
  <fix>3d</fix>
</trkpt>
<trkpt lat="40.0714094" lon="-105.2296473">
  <ele>1583.16</ele>
  <time>2026-08-28T17:56:38Z</time>
  <course>253.35</course>
  <speed>0.9386160024205852</speed>
  <fix>3d</fix>
</trkpt>
<trkpt lat="40.0714095" lon="-105.2296457">
  <ele>1583.0</ele>
  <time>2026-08-28T17:56:38Z</time>
  <course>254.12</course>
  <speed>0.95</speed>
  <fix>3d</fix>
</trkpt>
<trkpt lat="40.0714092" lon="-105.2296483">
  <ele>1583.16</ele>
  <time>2026-08-28T17:56:38Z</time>
  <course>253.2</course>
  <speed>0.9386160024205852</speed>
  <fix>3d</fix>
</trkpt>
<trkpt lat="40.0714095" lon="-105.2296457">
  <ele>1583.0</ele>
  <time>2026-08-28T17:56:38Z</time>
  <course>254.12</course>
  <speed>0.95</speed>
  <fix>3d</fix>
</trkpt>
<trkpt lat="40.0714089" lon="-105.2296494">
  <ele>1583.16</ele>
  <time>2026-08-28T17:56:38Z</time>
  <course>253.05</course>
  <speed>0.9411163583744573</speed>
  <fix>3d</fix>
</trkpt>
<trkpt lat="40.071409" lon="-105.2296479">
  <ele>1583.0</ele>
  <time>2026-08-28T17:56:38Z</time>
  <course>253.96</course>
  <speed>0.95</speed>
  <fix>3d</fix>
</trkpt>
<trkpt lat="40.0714087" lon="-105.2296505">
  <ele>1583.16</ele>
  <time>2026-08-28T17:56:38Z</time>
  <course>252.88</course>
  <speed>0.9411163583744573</speed>
  <fix>3d</fix>
</trkpt>
<trkpt lat="40.071409" lon="-105.2296479">
  <ele>1583.0</ele>
  <time>2026-08-28T17:56:38Z</time>
  <course>253.96</course>
  <speed>0.95</speed>
  <fix>3d</fix>
</trkpt>
<trkpt lat="40.0714085" lon="-105.2296516">
  <ele>1583.16</ele>
  <time>2026-08-28T17:56:38Z</time>
  <course>252.78</course>
  <speed>0.9411163583744573</speed>
  <fix>3d</fix>
</trkpt>
<trkpt lat="40.0714086" lon="-105.22965">
  <ele>1583.0</ele>
  <time>2026-08-28T17:56:38Z</time>
  <course>253.79</course>
  <speed>0.96</speed>
  <fix>3d</fix>
</trkpt>
<trkpt lat="40.0714082" lon="-105.2296526">
  <ele>1583.16</ele>
  <time>2026-08-28T17:56:38Z</time>
  <course>252.67</course>
  <speed>0.9411163583744573</speed>
  <fix>3d</fix>
</trkpt>
<trkpt lat="40.0714086" lon="-105.22965">
  <ele>1583.0</ele>
  <time>2026-08-28T17:56:38Z</time>
  <course>253.79</course>
  <speed>0.96</speed>
  <fix>3d</fix>
</trkpt>
<trkpt lat="40.071408" lon="-105.2296535">
  <ele>1583.16</ele>
  <time>2026-08-28T17:56:38Z</time>
  <course>252.55</course>
  <speed>0.9314504817756014</speed>
  <fix>3d</fix>
</trkpt>
<trkpt lat="40.0714081" lon="-105.2296523">
  <ele>1583.0</ele>
  <time>2026-08-28T17:56:38Z</time>
  <course>253.61</course>
  <speed>0.96</speed>
  <fix>3d</fix>
</trkpt>
<trkpt lat="40.0714078" lon="-105.2296546">
  <ele>1583.16</ele>
  <time>2026-08-28T17:56:38Z</time>
  <course>252.44</course>
  <speed>0.9411163583744573</speed>
  <fix>3d</fix>
</trkpt>
<trkpt lat="40.0714081" lon="-105.2296523">
  <ele>1583.0</ele>
  <time>2026-08-28T17:56:38Z</time>
  <course>253.61</course>
  <speed>0.96</speed>
  <fix>3d</fix>
</trkpt>
<trkpt lat="40.0714075" lon="-105.2296556">
  <ele>1583.16</ele>
  <time>2026-08-28T17:56:38Z</time>
  <course>252.34</course>
  <speed>0.943716058992322</speed>
  <fix>3d</fix>
</trkpt>
<trkpt lat="40.0714076" lon="-105.2296544">
  <ele>1583.0</ele>
  <time>2026-08-28T17:56:38Z</time>
  <course>253.43</course>
  <speed>0.96</speed>
  <fix>3d</fix>
</trkpt>
<trkpt lat="40.0714073" lon="-105.2296567">
  <ele>1583.16</ele>
  <time>2026-08-28T17:56:38Z</time>
  <course>252.22</course>
  <speed>0.943716058992322</speed>
  <fix>3d</fix>
</trkpt>
<trkpt lat="40.0714076" lon="-105.2296544">
  <ele>1583.0</ele>
  <time>2026-08-28T17:56:38Z</time>
  <course>253.43</course>
  <speed>0.96</speed>
  <fix>3d</fix>
</trkpt>
<trkpt lat="40.071407" lon="-105.2296578">
  <ele>1583.16</ele>
  <time>2026-08-28T17:56:38Z</time>
  <course>252.07</course>
  <speed>0.943716058992322</speed>
  <fix>3d</fix>
</trkpt>
<trkpt lat="40.0714071" lon="-105.2296566">
  <ele>1583.0</ele>
  <time>2026-08-28T17:56:38Z</time>
  <course>253.24</course>
  <speed>0.96</speed>
  <fix>3d</fix>
</trkpt>
<trkpt lat="40.0714068" lon="-105.2296589">
  <ele>1583.16</ele>
  <time>2026-08-28T17:56:38Z</time>
  <course>251.96</course>
  <speed>0.943716058992322</speed>
  <fix>3d</fix>
</trkpt>
<trkpt lat="40.0714071" lon="-105.2296566">
  <ele>1583.0</ele>
  <time>2026-08-28T17:56:38Z</time>
  <course>253.24</course>
  <speed>0.96</speed>
  <fix>3d</fix>
</trkpt>
<trkpt lat="40.0714065" lon="-105.22966">
  <ele>1583.16</ele>
  <time>2026-08-28T17:56:38Z</time>
  <course>251.86</course>
  <speed>0.943716058992322</speed>
  <fix>3d</fix>
</trkpt>
<trkpt lat="40.0714066" lon="-105.2296588">
  <ele>1583.0</ele>
  <time>2026-08-28T17:56:38Z</time>
  <course>253.04</course>
  <speed>0.96</speed>
  <fix>3d</fix>
</trkpt>
<trkpt lat="40.0714063" lon="-105.2296611">
  <ele>1583.16</ele>
  <time>2026-08-28T17:56:38Z</time>
  <course>251.76</course>
  <speed>0.9464142856064675</speed>
  <fix>3d</fix>
</trkpt>
<trkpt lat="40.0714066" lon="-105.2296588">
  <ele>1583.0</ele>
  <time>2026-08-28T17:56:38Z</time>
  <course>253.04</course>
  <speed>0.96</speed>
  <fix>3d</fix>
</trkpt>
<trkpt lat="40.071406" lon="-105.2296622">
  <ele>1583.16</ele>
  <time>2026-08-28T17:56:38Z</time>
  <course>251.7</course>
  <speed>0.9464142856064675</speed>
  <fix>3d</fix>
</trkpt>
<trkpt lat="40.0714061" lon="-105.2296609">
  <ele>1583.0</ele>
  <time>2026-08-28T17:56:38Z</time>
  <course>252.84</course>
  <speed>0.96</speed>
  <fix>3d</fix>
</trkpt>
<trkpt lat="40.0714057" lon="-105.2296635">
  <ele>1583.16</ele>
  <time>2026-08-28T17:56:38Z</time>
  <course>251.64</course>
  <speed>0.9464142856064675</speed>
  <fix>3d</fix>
</trkpt>
<trkpt lat="40.0714061" lon="-105.2296609">
  <ele>1583.0</ele>
  <time>2026-08-28T17:56:38Z</time>
  <course>252.84</course>
  <speed>0.96</speed>
  <fix>3d</fix>
</trkpt>
<trkpt lat="40.0714054" lon="-105.2296646">
  <ele>1583.16</ele>
  <time>2026-08-28T17:56:38Z</time>
  <course>251.55</course>
  <speed>0.9464142856064675</speed>
  <fix>3d</fix>
</trkpt>
<trkpt lat="40.0714055" lon="-105.2296631">
  <ele>1583.0</ele>
  <time>2026-08-28T17:56:38Z</time>
  <course>252.65</course>
  <speed>0.96</speed>
  <fix>3d</fix>
</trkpt>
<trkpt lat="40.0714052" lon="-105.2296657">
  <ele>1583.16</ele>
  <time>2026-08-28T17:56:38Z</time>
  <course>251.46</course>
  <speed>0.9464142856064675</speed>
  <fix>3d</fix>
</trkpt>
<trkpt lat="40.0714055" lon="-105.2296631">
  <ele>1583.0</ele>
  <time>2026-08-28T17:56:38Z</time>
  <course>252.65</course>
  <speed>0.96</speed>
  <fix>3d</fix>
</trkpt>
<trkpt lat="40.0714049" lon="-105.2296668">
  <ele>1583.16</ele>
  <time>2026-08-28T17:56:38Z</time>
  <course>251.41</course>
  <speed>0.9464142856064675</speed>
  <fix>3d</fix>
</trkpt>
<trkpt lat="40.071405" lon="-105.2296652">
  <ele>1583.0</ele>
  <time>2026-08-28T17:56:38Z</time>
  <course>252.47</course>
  <speed>0.97</speed>
  <fix>3d</fix>
</trkpt>
<trkpt lat="40.0714046" lon="-105.2296679">
  <ele>1583.16</ele>
  <time>2026-08-28T17:56:38Z</time>
  <course>251.36</course>
  <speed>0.9492101980067429</speed>
  <fix>3d</fix>
</trkpt>
<trkpt lat="40.071405" lon="-105.2296652">
  <ele>1583.0</ele>
  <time>2026-08-28T17:56:38Z</time>
  <course>252.47</course>
  <speed>0.97</speed>
  <fix>3d</fix>
</trkpt>
<trkpt lat="40.0714044" lon="-105.229669">
  <ele>1583.16</ele>
  <time>2026-08-28T17:56:38Z</time>
  <course>251.31</course>
  <speed>0.9492101980067429</speed>
  <fix>3d</fix>
</trkpt>
<trkpt lat="40.0714045" lon="-105.2296675">
  <ele>1583.0</ele>
  <time>2026-08-28T17:56:38Z</time>
  <course>252.29</course>
  <speed>0.97</speed>
  <fix>3d</fix>
</trkpt>
<trkpt lat="40.0714041" lon="-105.22967">
  <ele>1583.16</ele>
  <time>2026-08-28T17:56:38Z</time>
  <course>251.26</course>
  <speed>0.9492101980067429</speed>
  <fix>3d</fix>
</trkpt>
<trkpt lat="40.0714045" lon="-105.2296675">
  <ele>1583.0</ele>
  <time>2026-08-28T17:56:38Z</time>
  <course>252.29</course>
  <speed>0.97</speed>
  <fix>3d</fix>
</trkpt>
<trkpt lat="40.0714038" lon="-105.2296711">
  <ele>1583.16</ele>
  <time>2026-08-28T17:56:38Z</time>
  <course>251.21</course>
  <speed>0.9492101980067429</speed>
  <fix>3d</fix>
</trkpt>
<trkpt lat="40.071404" lon="-105.2296696">
  <ele>1583.0</ele>
  <time>2026-08-28T17:56:38Z</time>
  <course>252.11</course>
  <speed>0.97</speed>
  <fix>3d</fix>
</trkpt>
<trkpt lat="40.0714035" lon="-105.2296722">
  <ele>1583.16</ele>
  <time>2026-08-28T17:56:38Z</time>
  <course>251.16</course>
  <speed>0.9492101980067429</speed>
  <fix>3d</fix>
</trkpt>
<trkpt lat="40.071404" lon="-105.2296696">
  <ele>1583.0</ele>
  <time>2026-08-28T17:56:38Z</time>
  <course>252.11</course>
  <speed>0.97</speed>
  <fix>3d</fix>
</trkpt>
<trkpt lat="40.0714033" lon="-105.2296733">
  <ele>1583.16</ele>
  <time>2026-08-28T17:56:38Z</time>
  <course>251.12</course>
  <speed>0.9492101980067429</speed>
  <fix>3d</fix>
</trkpt>
<trkpt lat="40.0714034" lon="-105.2296718">
  <ele>1583.0</ele>
  <time>2026-08-28T17:56:38Z</time>
  <course>251.94</course>
  <speed>0.97</speed>
  <fix>3d</fix>
</trkpt>
<trkpt lat="40.071403" lon="-105.2296744">
  <ele>1583.16</ele>
  <time>2026-08-28T17:56:38Z</time>
  <course>251.1</course>
  <speed>0.9521029356114811</speed>
  <fix>3d</fix>
</trkpt>
<trkpt lat="40.0714034" lon="-105.2296718">
  <ele>1583.0</ele>
  <time>2026-08-28T17:56:38Z</time>
  <course>251.94</course>
  <speed>0.97</speed>
  <fix>3d</fix>
</trkpt>
<trkpt lat="40.0714027" lon="-105.2296754">
  <ele>1583.16</ele>
  <time>2026-08-28T17:56:38Z</time>
  <course>251.1</course>
  <speed>0.9521029356114811</speed>
  <fix>3d</fix>
</trkpt>
<trkpt lat="40.0714029" lon="-105.2296739">
  <ele>1583.0</ele>
  <time>2026-08-28T17:56:38Z</time>
  <course>251.77</course>
  <speed>0.97</speed>
  <fix>3d</fix>
</trkpt>
<trkpt lat="40.0714025" lon="-105.2296763">
  <ele>1583.15</ele>
  <time>2026-08-28T17:56:38Z</time>
  <course>251.09</course>
  <speed>0.9521029356114811</speed>
  <fix>3d</fix>
</trkpt>
<trkpt lat="40.0714029" lon="-105.2296739">
  <ele>1583.0</ele>
  <time>2026-08-28T17:56:38Z</time>
  <course>251.77</course>
  <speed>0.97</speed>
  <fix>3d</fix>
</trkpt>
<trkpt lat="40.0714022" lon="-105.2296774">
  <ele>1583.15</ele>
  <time>2026-08-28T17:56:38Z</time>
  <course>251.08</course>
  <speed>0.9521029356114811</speed>
  <fix>3d</fix>
</trkpt>
<trkpt lat="40.0714023" lon="-105.2296762">
  <ele>1583.0</ele>
  <time>2026-08-28T17:56:38Z</time>
  <course>251.62</course>
  <speed>0.97</speed>
  <fix>3d</fix>
</trkpt>
<trkpt lat="40.0714019" lon="-105.2296785">
  <ele>1583.15</ele>
  <time>2026-08-28T17:56:38Z</time>
  <course>251.08</course>
  <speed>0.9521029356114811</speed>
  <fix>3d</fix>
</trkpt>
<trkpt lat="40.0714023" lon="-105.2296762">
  <ele>1583.0</ele>
  <time>2026-08-28T17:56:38Z</time>
  <course>251.62</course>
  <speed>0.97</speed>
  <fix>3d</fix>
</trkpt>
<trkpt lat="40.0714017" lon="-105.2296796">
  <ele>1583.15</ele>
  <time>2026-08-28T17:56:38Z</time>
  <course>251.08</course>
  <speed>0.9521029356114811</speed>
  <fix>3d</fix>
</trkpt>
<trkpt lat="40.0714018" lon="-105.2296783">
  <ele>1583.0</ele>
  <time>2026-08-28T17:56:38Z</time>
  <course>251.48</course>
  <speed>0.97</speed>
  <fix>3d</fix>
</trkpt>
<trkpt lat="40.0714014" lon="-105.2296807">
  <ele>1583.15</ele>
  <time>2026-08-28T17:56:38Z</time>
  <course>251.08</course>
  <speed>0.9521029356114811</speed>
  <fix>3d</fix>
</trkpt>
<trkpt lat="40.0714018" lon="-105.2296783">
  <ele>1583.0</ele>
  <time>2026-08-28T17:56:38Z</time>
  <course>251.48</course>
  <speed>0.97</speed>
  <fix>3d</fix>
</trkpt>
<trkpt lat="40.0714011" lon="-105.2296817">
  <ele>1583.15</ele>
  <time>2026-08-28T17:56:38Z</time>
  <course>251.08</course>
  <speed>0.9521029356114811</speed>
  <fix>3d</fix>
</trkpt>
<trkpt lat="40.0714012" lon="-105.2296805">
  <ele>1583.0</ele>
  <time>2026-08-28T17:56:38Z</time>
  <course>251.35</course>
  <speed>0.97</speed>
  <fix>3d</fix>
</trkpt>
<trkpt lat="40.0714008" lon="-105.2296828">
  <ele>1583.15</ele>
  <time>2026-08-28T17:56:38Z</time>
  <course>251.08</course>
  <speed>0.9550916186418976</speed>
  <fix>3d</fix>
</trkpt>
<trkpt lat="40.0714012" lon="-105.2296805">
  <ele>1583.0</ele>
  <time>2026-08-28T17:56:38Z</time>
  <course>251.35</course>
  <speed>0.97</speed>
  <fix>3d</fix>
</trkpt>
<trkpt lat="40.0714005" lon="-105.2296839">
  <ele>1583.15</ele>
  <time>2026-08-28T17:56:38Z</time>
  <course>251.08</course>
  <speed>0.9550916186418976</speed>
  <fix>3d</fix>
</trkpt>
<trkpt lat="40.0714007" lon="-105.2296826">
  <ele>1583.0</ele>
  <time>2026-08-28T17:56:38Z</time>
  <course>251.23</course>
  <speed>0.98</speed>
  <fix>3d</fix>
</trkpt>
<trkpt lat="40.0714002" lon="-105.229685">
  <ele>1583.15</ele>
  <time>2026-08-28T17:56:38Z</time>
  <course>251.08</course>
  <speed>0.9550916186418976</speed>
  <fix>3d</fix>
</trkpt>
<trkpt lat="40.0714007" lon="-105.2296826">
  <ele>1583.0</ele>
  <time>2026-08-28T17:56:38Z</time>
  <course>251.23</course>
  <speed>0.98</speed>
  <fix>3d</fix>
</trkpt>
<trkpt lat="40.0713999" lon="-105.2296863">
  <ele>1583.15</ele>
  <time>2026-08-28T17:56:38Z</time>
  <course>251.08</course>
  <speed>0.9550916186418976</speed>
  <fix>3d</fix>
</trkpt>
<trkpt lat="40.0714001" lon="-105.2296849">
  <ele>1583.0</ele>
  <time>2026-08-28T17:56:38Z</time>
  <course>251.12</course>
  <speed>0.98</speed>
  <fix>3d</fix>
</trkpt>
<trkpt lat="40.0713996" lon="-105.2296874">
  <ele>1583.15</ele>
  <time>2026-08-28T17:56:38Z</time>
  <course>251.08</course>
  <speed>0.9550916186418976</speed>
  <fix>3d</fix>
</trkpt>
<trkpt lat="40.0714001" lon="-105.2296849">
  <ele>1583.0</ele>
  <time>2026-08-28T17:56:38Z</time>
  <course>251.12</course>
  <speed>0.98</speed>
  <fix>3d</fix>
</trkpt>
<trkpt lat="40.0713993" lon="-105.2296885">
  <ele>1583.15</ele>
  <time>2026-08-28T17:56:38Z</time>
  <course>251.11</course>
  <speed>0.9550916186418976</speed>
  <fix>3d</fix>
</trkpt>
<trkpt lat="40.0713995" lon="-105.2296871">
  <ele>1583.0</ele>
  <time>2026-08-28T17:56:38Z</time>
  <course>251.02</course>
  <speed>0.98</speed>
  <fix>3d</fix>
</trkpt>
<trkpt lat="40.071399" lon="-105.2296896">
  <ele>1583.15</ele>
  <time>2026-08-28T17:56:38Z</time>
  <course>251.13</course>
  <speed>0.9646242791885347</speed>
  <fix>3d</fix>
</trkpt>
<trkpt lat="40.0713995" lon="-105.2296871">
  <ele>1583.0</ele>
  <time>2026-08-28T17:56:38Z</time>
  <course>251.02</course>
  <speed>0.98</speed>
  <fix>3d</fix>
</trkpt>
<trkpt lat="40.0713987" lon="-105.2296907">
  <ele>1583.15</ele>
  <time>2026-08-28T17:56:38Z</time>
  <course>251.18</course>
  <speed>0.9646242791885347</speed>
  <fix>3d</fix>
</trkpt>
<trkpt lat="40.071399" lon="-105.2296892">
  <ele>1583.0</ele>
  <time>2026-08-28T17:56:38Z</time>
  <course>250.93</course>
  <speed>0.98</speed>
  <fix>3d</fix>
</trkpt>
<trkpt lat="40.0713985" lon="-105.2296918">
  <ele>1583.15</ele>
  <time>2026-08-28T17:56:38Z</time>
  <course>251.23</course>
  <speed>0.9646242791885347</speed>
  <fix>3d</fix>
</trkpt>
<trkpt lat="40.071399" lon="-105.2296892">
  <ele>1583.0</ele>
  <time>2026-08-28T17:56:38Z</time>
  <course>250.93</course>
  <speed>0.98</speed>
  <fix>3d</fix>
</trkpt>
<trkpt lat="40.0713982" lon="-105.2296929">
  <ele>1583.14</ele>
  <time>2026-08-28T17:56:38Z</time>
  <course>251.29</course>
  <speed>0.9646242791885347</speed>
  <fix>3d</fix>
</trkpt>
<trkpt lat="40.0713983" lon="-105.2296914">
  <ele>1583.0</ele>
  <time>2026-08-28T17:56:38Z</time>
  <course>250.85</course>
  <speed>0.98</speed>
  <fix>3d</fix>
</trkpt>
<trkpt lat="40.0713979" lon="-105.229694">
  <ele>1583.14</ele>
  <time>2026-08-28T17:56:38Z</time>
  <course>251.39</course>
  <speed>0.9646242791885347</speed>
  <fix>3d</fix>
</trkpt>
<trkpt lat="40.0713983" lon="-105.2296914">
  <ele>1583.0</ele>
  <time>2026-08-28T17:56:38Z</time>
  <course>250.85</course>
  <speed>0.98</speed>
  <fix>3d</fix>
</trkpt>
<trkpt lat="40.0713976" lon="-105.2296951">
  <ele>1583.14</ele>
  <time>2026-08-28T17:56:38Z</time>
  <course>251.48</course>
  <speed>0.9676776322722356</speed>
  <fix>3d</fix>
</trkpt>
<trkpt lat="40.0713978" lon="-105.2296935">
  <ele>1583.0</ele>
  <time>2026-08-28T17:56:38Z</time>
  <course>250.78</course>
  <speed>0.98</speed>
  <fix>3d</fix>
</trkpt>
<trkpt lat="40.0713973" lon="-105.2296962">
  <ele>1583.14</ele>
  <time>2026-08-28T17:56:38Z</time>
  <course>251.54</course>
  <speed>0.9676776322722356</speed>
  <fix>3d</fix>
</trkpt>
<trkpt lat="40.0713978" lon="-105.2296935">
  <ele>1583.0</ele>
  <time>2026-08-28T17:56:38Z</time>
  <course>250.78</course>
  <speed>0.98</speed>
  <fix>3d</fix>
</trkpt>
<trkpt lat="40.071397" lon="-105.2296973">
  <ele>1583.14</ele>
  <time>2026-08-28T17:56:38Z</time>
  <course>251.59</course>
  <speed>0.9676776322722356</speed>
  <fix>3d</fix>
</trkpt>
<trkpt lat="40.0713971" lon="-105.2296958">
  <ele>1583.0</ele>
  <time>2026-08-28T17:56:38Z</time>
  <course>250.75</course>
  <speed>0.98</speed>
  <fix>3d</fix>
</trkpt>
<trkpt lat="40.0713968" lon="-105.2296981">
  <ele>1583.14</ele>
  <time>2026-08-28T17:56:38Z</time>
  <course>251.63</course>
  <speed>0.9676776322722356</speed>
  <fix>3d</fix>
</trkpt>
<trkpt lat="40.0713971" lon="-105.2296958">
  <ele>1583.0</ele>
  <time>2026-08-28T17:56:38Z</time>
  <course>250.75</course>
  <speed>0.98</speed>
  <fix>3d</fix>
</trkpt>
<trkpt lat="40.0713965" lon="-105.2296992">
  <ele>1583.14</ele>
  <time>2026-08-28T17:56:38Z</time>
  <course>251.72</course>
  <speed>0.9676776322722356</speed>
  <fix>3d</fix>
</trkpt>
<trkpt lat="40.0713966" lon="-105.2296979">
  <ele>1583.0</ele>
  <time>2026-08-28T17:56:38Z</time>
  <course>250.72</course>
  <speed>0.98</speed>
  <fix>3d</fix>
</trkpt>
<trkpt lat="40.0713962" lon="-105.2297003">
  <ele>1583.14</ele>
  <time>2026-08-28T17:56:38Z</time>
  <course>251.82</course>
  <speed>0.9676776322722356</speed>
  <fix>3d</fix>
</trkpt>
<trkpt lat="40.0713966" lon="-105.2296979">
  <ele>1583.0</ele>
  <time>2026-08-28T17:56:38Z</time>
  <course>250.72</course>
  <speed>0.98</speed>
  <fix>3d</fix>
</trkpt>
<trkpt lat="40.0713959" lon="-105.2297014">
  <ele>1583.14</ele>
  <time>2026-08-28T17:56:38Z</time>
  <course>251.92</course>
  <speed>0.9676776322722356</speed>
  <fix>3d</fix>
</trkpt>
<trkpt lat="40.0713961" lon="-105.2297002">
  <ele>1583.0</ele>
  <time>2026-08-28T17:56:38Z</time>
  <course>250.71</course>
  <speed>0.98</speed>
  <fix>3d</fix>
</trkpt>
<trkpt lat="40.0713956" lon="-105.2297025">
  <ele>1583.14</ele>
  <time>2026-08-28T17:56:38Z</time>
  <course>252.02</course>
  <speed>0.9676776322722356</speed>
  <fix>3d</fix>
</trkpt>
<trkpt lat="40.0713961" lon="-105.2297002">
  <ele>1583.0</ele>
  <time>2026-08-28T17:56:38Z</time>
  <course>250.71</course>
  <speed>0.98</speed>
  <fix>3d</fix>
</trkpt>
<trkpt lat="40.0713953" lon="-105.2297036">
  <ele>1583.14</ele>
  <time>2026-08-28T17:56:38Z</time>
  <course>252.12</course>
  <speed>0.9676776322722356</speed>
  <fix>3d</fix>
</trkpt>
<trkpt lat="40.0713954" lon="-105.2297024">
  <ele>1583.0</ele>
  <time>2026-08-28T17:56:38Z</time>
  <course>250.71</course>
  <speed>0.99</speed>
  <fix>3d</fix>
</trkpt>
<trkpt lat="40.071395" lon="-105.2297047">
  <ele>1583.14</ele>
  <time>2026-08-28T17:56:38Z</time>
  <course>252.22</course>
  <speed>0.9676776322722356</speed>
  <fix>3d</fix>
</trkpt>
<trkpt lat="40.0713954" lon="-105.2297024">
  <ele>1583.0</ele>
  <time>2026-08-28T17:56:38Z</time>
  <course>250.71</course>
  <speed>0.99</speed>
  <fix>3d</fix>
</trkpt>
<trkpt lat="40.0713947" lon="-105.2297058">
  <ele>1583.14</ele>
  <time>2026-08-28T17:56:38Z</time>
  <course>252.32</course>
  <speed>0.9676776322722356</speed>
  <fix>3d</fix>
</trkpt>
<trkpt lat="40.0713949" lon="-105.2297045">
  <ele>1583.0</ele>
  <time>2026-08-28T17:56:38Z</time>
  <course>250.73</course>
  <speed>0.99</speed>
  <fix>3d</fix>
</trkpt>
<trkpt lat="40.0713944" lon="-105.2297069">
  <ele>1583.15</ele>
  <time>2026-08-28T17:56:38Z</time>
  <course>252.42</course>
  <speed>0.9676776322722356</speed>
  <fix>3d</fix>
</trkpt>
<trkpt lat="40.0713949" lon="-105.2297045">
  <ele>1583.0</ele>
  <time>2026-08-28T17:56:38Z</time>
  <course>250.73</course>
  <speed>0.99</speed>
  <fix>3d</fix>
</trkpt>
<trkpt lat="40.0713941" lon="-105.229708">
  <ele>1583.15</ele>
  <time>2026-08-28T17:56:38Z</time>
  <course>252.52</course>
  <speed>0.9676776322722356</speed>
  <fix>3d</fix>
</trkpt>
<trkpt lat="40.0713942" lon="-105.2297068">
  <ele>1583.0</ele>
  <time>2026-08-28T17:56:38Z</time>
  <course>250.76</course>
  <speed>0.99</speed>
  <fix>3d</fix>
</trkpt>
<trkpt lat="40.0713938" lon="-105.2297094">
  <ele>1583.15</ele>
  <time>2026-08-28T17:56:38Z</time>
  <course>252.64</course>
  <speed>0.9676776322722356</speed>
  <fix>3d</fix>
</trkpt>
<trkpt lat="40.0713942" lon="-105.2297068">
  <ele>1583.0</ele>
  <time>2026-08-28T17:56:38Z</time>
  <course>250.76</course>
  <speed>0.99</speed>
  <fix>3d</fix>
</trkpt>
<trkpt lat="40.0713935" lon="-105.2297105">
  <ele>1583.15</ele>
  <time>2026-08-28T17:56:38Z</time>
  <course>252.74</course>
  <speed>0.9676776322722356</speed>
  <fix>3d</fix>
</trkpt>
<trkpt lat="40.0713937" lon="-105.2297089">
  <ele>1583.0</ele>
  <time>2026-08-28T17:56:38Z</time>
  <course>250.81</course>
  <speed>0.99</speed>
  <fix>3d</fix>
</trkpt>
<trkpt lat="40.0713932" lon="-105.2297116">
  <ele>1583.15</ele>
  <time>2026-08-28T17:56:38Z</time>
  <course>252.83</course>
  <speed>0.9676776322722356</speed>
  <fix>3d</fix>
</trkpt>
<trkpt lat="40.0713937" lon="-105.2297089">
  <ele>1583.0</ele>
  <time>2026-08-28T17:56:38Z</time>
  <course>250.81</course>
  <speed>0.99</speed>
  <fix>3d</fix>
</trkpt>
<trkpt lat="40.0713929" lon="-105.2297127">
  <ele>1583.15</ele>
  <time>2026-08-28T17:56:38Z</time>
  <course>252.91</course>
  <speed>0.9676776322722356</speed>
  <fix>3d</fix>
</trkpt>
<trkpt lat="40.071393" lon="-105.2297112">
  <ele>1583.0</ele>
  <time>2026-08-28T17:56:38Z</time>
  <course>250.87</course>
  <speed>0.99</speed>
  <fix>3d</fix>
</trkpt>
<trkpt lat="40.0713926" lon="-105.2297138">
  <ele>1583.15</ele>
  <time>2026-08-28T17:56:38Z</time>
  <course>252.96</course>
  <speed>0.9771898484941398</speed>
  <fix>3d</fix>
</trkpt>
<trkpt lat="40.071393" lon="-105.2297112">
  <ele>1583.0</ele>
  <time>2026-08-28T17:56:38Z</time>
  <course>250.87</course>
  <speed>0.99</speed>
  <fix>3d</fix>
</trkpt>
<trkpt lat="40.0713923" lon="-105.2297149">
  <ele>1583.16</ele>
  <time>2026-08-28T17:56:38Z</time>
  <course>253.01</course>
  <speed>0.9741663102366043</speed>
  <fix>3d</fix>
</trkpt>
<trkpt lat="40.0713925" lon="-105.2297134">
  <ele>1583.0</ele>
  <time>2026-08-28T17:56:38Z</time>
  <course>250.94</course>
  <speed>0.99</speed>
  <fix>3d</fix>
</trkpt>
<trkpt lat="40.071392" lon="-105.229716">
  <ele>1583.16</ele>
  <time>2026-08-28T17:56:38Z</time>
  <course>253.08</course>
  <speed>0.9741663102366043</speed>
  <fix>3d</fix>
</trkpt>
<trkpt lat="40.0713925" lon="-105.2297134">
  <ele>1583.0</ele>
  <time>2026-08-28T17:56:38Z</time>
  <course>250.94</course>
  <speed>0.99</speed>
  <fix>3d</fix>
</trkpt>
<trkpt lat="40.0713917" lon="-105.2297171">
  <ele>1583.16</ele>
  <time>2026-08-28T17:56:38Z</time>
  <course>253.13</course>
  <speed>0.9741663102366043</speed>
  <fix>3d</fix>
</trkpt>
<trkpt lat="40.071392" lon="-105.2297155">
  <ele>1583.0</ele>
  <time>2026-08-28T17:56:38Z</time>
  <course>251.02</course>
  <speed>0.99</speed>
  <fix>3d</fix>
</trkpt>
<trkpt lat="40.0713914" lon="-105.2297182">
  <ele>1583.16</ele>
  <time>2026-08-28T17:56:38Z</time>
  <course>253.18</course>
  <speed>0.9741663102366043</speed>
  <fix>3d</fix>
</trkpt>
<trkpt lat="40.071392" lon="-105.2297155">
  <ele>1583.0</ele>
  <time>2026-08-28T17:56:38Z</time>
  <course>251.02</course>
  <speed>0.99</speed>
  <fix>3d</fix>
</trkpt>
<trkpt lat="40.0713911" lon="-105.2297193">
  <ele>1583.16</ele>
  <time>2026-08-28T17:56:38Z</time>
  <course>253.27</course>
  <speed>0.9741663102366043</speed>
  <fix>3d</fix>
</trkpt>
<trkpt lat="40.0713913" lon="-105.2297178">
  <ele>1583.0</ele>
  <time>2026-08-28T17:56:38Z</time>
  <course>251.1</course>
  <speed>0.99</speed>
  <fix>3d</fix>
</trkpt>
<trkpt lat="40.0713909" lon="-105.2297204">
  <ele>1583.16</ele>
  <time>2026-08-28T17:56:38Z</time>
  <course>253.34</course>
  <speed>0.9741663102366043</speed>
  <fix>3d</fix>
</trkpt>
<trkpt lat="40.0713913" lon="-105.2297178">
  <ele>1583.0</ele>
  <time>2026-08-28T17:56:38Z</time>
  <course>251.1</course>
  <speed>0.99</speed>
  <fix>3d</fix>
</trkpt>
<trkpt lat="40.0713906" lon="-105.2297213">
  <ele>1583.16</ele>
  <time>2026-08-28T17:56:38Z</time>
  <course>253.43</course>
  <speed>0.9741663102366043</speed>
  <fix>3d</fix>
</trkpt>
<trkpt lat="40.0713908" lon="-105.2297199">
  <ele>1583.0</ele>
  <time>2026-08-28T17:56:38Z</time>
  <course>251.18</course>
  <speed>0.99</speed>
  <fix>3d</fix>
</trkpt>
<trkpt lat="40.0713903" lon="-105.2297224">
  <ele>1583.16</ele>
  <time>2026-08-28T17:56:38Z</time>
  <course>253.53</course>
  <speed>0.9741663102366043</speed>
  <fix>3d</fix>
</trkpt>
<trkpt lat="40.0713908" lon="-105.2297199">
  <ele>1583.0</ele>
  <time>2026-08-28T17:56:38Z</time>
  <course>251.18</course>
  <speed>0.99</speed>
  <fix>3d</fix>
</trkpt>
<trkpt lat="40.0713901" lon="-105.2297235">
  <ele>1583.16</ele>
  <time>2026-08-28T17:56:38Z</time>
  <course>253.62</course>
  <speed>0.9741663102366043</speed>
  <fix>3d</fix>
</trkpt>
<trkpt lat="40.0713901" lon="-105.2297222">
  <ele>1583.0</ele>
  <time>2026-08-28T17:56:38Z</time>
  <course>251.26</course>
  <speed>0.99</speed>
  <fix>3d</fix>
</trkpt>
<trkpt lat="40.0713898" lon="-105.2297246">
  <ele>1583.17</ele>
  <time>2026-08-28T17:56:38Z</time>
  <course>253.72</course>
  <speed>0.9741663102366043</speed>
  <fix>3d</fix>
</trkpt>
<trkpt lat="40.0713901" lon="-105.2297222">
  <ele>1583.0</ele>
  <time>2026-08-28T17:56:38Z</time>
  <course>251.26</course>
  <speed>0.99</speed>
  <fix>3d</fix>
</trkpt>
<trkpt lat="40.0713895" lon="-105.2297257">
  <ele>1583.17</ele>
  <time>2026-08-28T17:56:38Z</time>
  <course>253.82</course>
  <speed>0.9741663102366043</speed>
  <fix>3d</fix>
</trkpt>
<trkpt lat="40.0713896" lon="-105.2297245">
  <ele>1583.0</ele>
  <time>2026-08-28T17:56:38Z</time>
  <course>251.36</course>
  <speed>0.99</speed>
  <fix>3d</fix>
</trkpt>
<trkpt lat="40.0713892" lon="-105.2297268">
  <ele>1583.17</ele>
  <time>2026-08-28T17:56:38Z</time>
  <course>253.89</course>
  <speed>0.9741663102366043</speed>
  <fix>3d</fix>
</trkpt>
<trkpt lat="40.0713896" lon="-105.2297245">
  <ele>1583.0</ele>
  <time>2026-08-28T17:56:38Z</time>
  <course>251.36</course>
  <speed>0.99</speed>
  <fix>3d</fix>
</trkpt>
<trkpt lat="40.0713889" lon="-105.2297279">
  <ele>1583.17</ele>
  <time>2026-08-28T17:56:38Z</time>
  <course>253.96</course>
  <speed>0.9741663102366043</speed>
  <fix>3d</fix>
</trkpt>
<trkpt lat="40.0713891" lon="-105.2297266">
  <ele>1583.0</ele>
  <time>2026-08-28T17:56:38Z</time>
  <course>251.47</course>
  <speed>0.99</speed>
  <fix>3d</fix>
</trkpt>
<trkpt lat="40.0713886" lon="-105.2297291">
  <ele>1583.17</ele>
  <time>2026-08-28T17:56:38Z</time>
  <course>254.01</course>
  <speed>0.9741663102366043</speed>
  <fix>3d</fix>
</trkpt>
<trkpt lat="40.0713891" lon="-105.2297266">
  <ele>1583.0</ele>
  <time>2026-08-28T17:56:38Z</time>
  <course>251.47</course>
  <speed>0.99</speed>
  <fix>3d</fix>
</trkpt>
<trkpt lat="40.0713883" lon="-105.2297302">
  <ele>1583.17</ele>
  <time>2026-08-28T17:56:38Z</time>
  <course>254.06</course>
  <speed>0.9712363255150623</speed>
  <fix>3d</fix>
</trkpt>
<trkpt lat="40.0713885" lon="-105.2297289">
  <ele>1583.0</ele>
  <time>2026-08-28T17:56:38Z</time>
  <course>251.58</course>
  <speed>0.99</speed>
  <fix>3d</fix>
</trkpt>
<trkpt lat="40.0713881" lon="-105.2297313">
  <ele>1583.16</ele>
  <time>2026-08-28T17:56:38Z</time>
  <course>254.11</course>
  <speed>0.9712363255150623</speed>
  <fix>3d</fix>
</trkpt>
<trkpt lat="40.0713885" lon="-105.2297289">
  <ele>1583.0</ele>
  <time>2026-08-28T17:56:38Z</time>
  <course>251.58</course>
  <speed>0.99</speed>
  <fix>3d</fix>
</trkpt>
<trkpt lat="40.0713877" lon="-105.2297326">
  <ele>1583.17</ele>
  <time>2026-08-28T17:56:38Z</time>
  <course>254.17</course>
  <speed>0.9712363255150623</speed>
  <fix>3d</fix>
</trkpt>
<trkpt lat="40.0713879" lon="-105.2297311">
  <ele>1583.0</ele>
  <time>2026-08-28T17:56:38Z</time>
  <course>251.69</course>
  <speed>0.99</speed>
  <fix>3d</fix>
</trkpt>
<trkpt lat="40.0713874" lon="-105.2297337">
  <ele>1583.17</ele>
  <time>2026-08-28T17:56:38Z</time>
  <course>254.22</course>
  <speed>0.9712363255150623</speed>
  <fix>3d</fix>
</trkpt>
<trkpt lat="40.0713879" lon="-105.2297311">
  <ele>1583.0</ele>
  <time>2026-08-28T17:56:38Z</time>
  <course>251.69</course>
  <speed>0.99</speed>
  <fix>3d</fix>
</trkpt>
<trkpt lat="40.0713872" lon="-105.2297349">
  <ele>1583.17</ele>
  <time>2026-08-28T17:56:38Z</time>
  <course>254.27</course>
  <speed>0.9712363255150623</speed>
  <fix>3d</fix>
</trkpt>
<trkpt lat="40.0713873" lon="-105.2297333">
  <ele>1583.0</ele>
  <time>2026-08-28T17:56:38Z</time>
  <course>251.8</course>
  <speed>0.99</speed>
  <fix>3d</fix>
</trkpt>
<trkpt lat="40.0713869" lon="-105.229736">
  <ele>1583.17</ele>
  <time>2026-08-28T17:56:38Z</time>
  <course>254.32</course>
  <speed>0.9712363255150623</speed>
  <fix>3d</fix>
</trkpt>
<trkpt lat="40.0713873" lon="-105.2297333">
  <ele>1583.0</ele>
  <time>2026-08-28T17:56:38Z</time>
  <course>251.8</course>
  <speed>0.99</speed>
  <fix>3d</fix>
</trkpt>
<trkpt lat="40.0713866" lon="-105.2297371">
  <ele>1583.17</ele>
  <time>2026-08-28T17:56:38Z</time>
  <course>254.35</course>
  <speed>0.9712363255150623</speed>
  <fix>3d</fix>
</trkpt>
<trkpt lat="40.0713868" lon="-105.2297356">
  <ele>1583.0</ele>
  <time>2026-08-28T17:56:38Z</time>
  <course>251.91</course>
  <speed>0.99</speed>
  <fix>3d</fix>
</trkpt>
<trkpt lat="40.0713863" lon="-105.2297382">
  <ele>1583.17</ele>
  <time>2026-08-28T17:56:38Z</time>
  <course>254.39</course>
  <speed>0.9712363255150623</speed>
  <fix>3d</fix>
</trkpt>
<trkpt lat="40.0713868" lon="-105.2297356">
  <ele>1583.0</ele>
  <time>2026-08-28T17:56:38Z</time>
  <course>251.91</course>
  <speed>0.99</speed>
  <fix>3d</fix>
</trkpt>
<trkpt lat="40.0713861" lon="-105.2297393">
  <ele>1583.17</ele>
  <time>2026-08-28T17:56:38Z</time>
  <course>254.41</course>
  <speed>0.9712363255150623</speed>
  <fix>3d</fix>
</trkpt>
<trkpt lat="40.0713863" lon="-105.2297378">
  <ele>1583.0</ele>
  <time>2026-08-28T17:56:38Z</time>
  <course>252.02</course>
  <speed>0.99</speed>
  <fix>3d</fix>
</trkpt>
<trkpt lat="40.0713858" lon="-105.2297404">
  <ele>1583.17</ele>
  <time>2026-08-28T17:56:38Z</time>
  <course>254.41</course>
  <speed>0.9712363255150623</speed>
  <fix>3d</fix>
</trkpt>
<trkpt lat="40.0713863" lon="-105.2297378">
  <ele>1583.0</ele>
  <time>2026-08-28T17:56:38Z</time>
  <course>252.02</course>
  <speed>0.99</speed>
  <fix>3d</fix>
</trkpt>
<trkpt lat="40.0713855" lon="-105.2297415">
  <ele>1583.18</ele>
  <time>2026-08-28T17:56:38Z</time>
  <course>254.43</course>
  <speed>0.9684007434941384</speed>
  <fix>3d</fix>
</trkpt>
<trkpt lat="40.0713856" lon="-105.22974">
  <ele>1583.0</ele>
  <time>2026-08-28T17:56:38Z</time>
  <course>252.12</course>
  <speed>0.99</speed>
  <fix>3d</fix>
</trkpt>
<trkpt lat="40.0713852" lon="-105.2297427">
  <ele>1583.18</ele>
  <time>2026-08-28T17:56:38Z</time>
  <course>254.43</course>
  <speed>0.9684007434941384</speed>
  <fix>3d</fix>
</trkpt>
<trkpt lat="40.0713856" lon="-105.22974">
  <ele>1583.0</ele>
  <time>2026-08-28T17:56:38Z</time>
  <course>252.12</course>
  <speed>0.99</speed>
  <fix>3d</fix>
</trkpt>
<trkpt lat="40.071385" lon="-105.2297438">
  <ele>1583.18</ele>
  <time>2026-08-28T17:56:38Z</time>
  <course>254.45</course>
  <speed>0.9684007434941384</speed>
  <fix>3d</fix>
</trkpt>
<trkpt lat="40.0713851" lon="-105.2297423">
  <ele>1583.0</ele>
  <time>2026-08-28T17:56:38Z</time>
  <course>252.21</course>
  <speed>0.99</speed>
  <fix>3d</fix>
</trkpt>
<trkpt lat="40.0713848" lon="-105.2297447">
  <ele>1583.18</ele>
  <time>2026-08-28T17:56:38Z</time>
  <course>254.45</course>
  <speed>0.9684007434941384</speed>
  <fix>3d</fix>
</trkpt>
<trkpt lat="40.0713851" lon="-105.2297423">
  <ele>1583.0</ele>
  <time>2026-08-28T17:56:38Z</time>
  <course>252.21</course>
  <speed>0.99</speed>
  <fix>3d</fix>
</trkpt>
<trkpt lat="40.0713845" lon="-105.2297458">
  <ele>1583.17</ele>
  <time>2026-08-28T17:56:38Z</time>
  <course>254.46</course>
  <speed>0.9684007434941384</speed>
  <fix>3d</fix>
</trkpt>
<trkpt lat="40.0713846" lon="-105.2297445">
  <ele>1583.0</ele>
  <time>2026-08-28T17:56:38Z</time>
  <course>252.29</course>
  <speed>0.99</speed>
  <fix>3d</fix>
</trkpt>
<trkpt lat="40.0713842" lon="-105.2297469">
  <ele>1583.17</ele>
  <time>2026-08-28T17:56:38Z</time>
  <course>254.46</course>
  <speed>0.9684007434941384</speed>
  <fix>3d</fix>
</trkpt>
<trkpt lat="40.0713846" lon="-105.2297445">
  <ele>1583.0</ele>
  <time>2026-08-28T17:56:38Z</time>
  <course>252.29</course>
  <speed>0.99</speed>
  <fix>3d</fix>
</trkpt>
<trkpt lat="40.0713839" lon="-105.229748">
  <ele>1583.17</ele>
  <time>2026-08-28T17:56:38Z</time>
  <course>254.46</course>
  <speed>0.9684007434941384</speed>
  <fix>3d</fix>
</trkpt>
<trkpt lat="40.0713841" lon="-105.2297467">
  <ele>1583.0</ele>
  <time>2026-08-28T17:56:38Z</time>
  <course>252.37</course>
  <speed>0.99</speed>
  <fix>3d</fix>
</trkpt>
<trkpt lat="40.0713837" lon="-105.2297491">
  <ele>1583.17</ele>
  <time>2026-08-28T17:56:39Z</time>
  <course>254.46</course>
  <speed>0.9684007434941384</speed>
  <fix>3d</fix>
</trkpt>
<trkpt lat="40.0713841" lon="-105.2297467">
  <ele>1583.0</ele>
  <time>2026-08-28T17:56:39Z</time>
  <course>252.37</course>
  <speed>0.99</speed>
  <fix>3d</fix>
</trkpt>
<trkpt lat="40.0713834" lon="-105.2297502">
  <ele>1583.17</ele>
  <time>2026-08-28T17:56:39Z</time>
  <course>254.46</course>
  <speed>0.9684007434941384</speed>
  <fix>3d</fix>
</trkpt>
<trkpt lat="40.0713835" lon="-105.229749">
  <ele>1583.0</ele>
  <time>2026-08-28T17:56:39Z</time>
  <course>252.44</course>
  <speed>0.99</speed>
  <fix>3d</fix>
</trkpt>
<trkpt lat="40.0713831" lon="-105.2297514">
  <ele>1583.18</ele>
  <time>2026-08-28T17:56:39Z</time>
  <course>254.46</course>
  <speed>0.978008179924892</speed>
  <fix>3d</fix>
</trkpt>
<trkpt lat="40.0713835" lon="-105.229749">
  <ele>1583.0</ele>
  <time>2026-08-28T17:56:39Z</time>
  <course>252.44</course>
  <speed>0.99</speed>
  <fix>3d</fix>
</trkpt>
<trkpt lat="40.0713829" lon="-105.2297525">
  <ele>1583.18</ele>
  <time>2026-08-28T17:56:39Z</time>
  <course>254.46</course>
  <speed>0.978008179924892</speed>
  <fix>3d</fix>
</trkpt>
<trkpt lat="40.071383" lon="-105.2297512">
  <ele>1583.0</ele>
  <time>2026-08-28T17:56:39Z</time>
  <course>252.51</course>
  <speed>0.99</speed>
  <fix>3d</fix>
</trkpt>
<trkpt lat="40.0713826" lon="-105.2297536">
  <ele>1583.18</ele>
  <time>2026-08-28T17:56:39Z</time>
  <course>254.45</course>
  <speed>0.978008179924892</speed>
  <fix>3d</fix>
</trkpt>
<trkpt lat="40.071383" lon="-105.2297512">
  <ele>1583.0</ele>
  <time>2026-08-28T17:56:39Z</time>
  <course>252.51</course>
  <speed>0.99</speed>
  <fix>3d</fix>
</trkpt>
<trkpt lat="40.0713823" lon="-105.2297547">
  <ele>1583.18</ele>
  <time>2026-08-28T17:56:39Z</time>
  <course>254.45</course>
  <speed>0.978008179924892</speed>
  <fix>3d</fix>
</trkpt>
<trkpt lat="40.0713824" lon="-105.2297534">
  <ele>1583.0</ele>
  <time>2026-08-28T17:56:39Z</time>
  <course>252.57</course>
  <speed>0.99</speed>
  <fix>3d</fix>
</trkpt>
<trkpt lat="40.071382" lon="-105.2297561">
  <ele>1583.18</ele>
  <time>2026-08-28T17:56:39Z</time>
  <course>254.41</course>
  <speed>0.978008179924892</speed>
  <fix>3d</fix>
</trkpt>
<trkpt lat="40.0713824" lon="-105.2297534">
  <ele>1583.0</ele>
  <time>2026-08-28T17:56:39Z</time>
  <course>252.57</course>
  <speed>0.99</speed>
  <fix>3d</fix>
</trkpt>
<trkpt lat="40.0713817" lon="-105.2297572">
  <ele>1583.19</ele>
  <time>2026-08-28T17:56:39Z</time>
  <course>254.4</course>
  <speed>0.978008179924892</speed>
  <fix>3d</fix>
</trkpt>
<trkpt lat="40.0713819" lon="-105.2297557">
  <ele>1583.0</ele>
  <time>2026-08-28T17:56:39Z</time>
  <course>252.62</course>
  <speed>0.99</speed>
  <fix>3d</fix>
</trkpt>
<trkpt lat="40.0713815" lon="-105.2297583">
  <ele>1583.19</ele>
  <time>2026-08-28T17:56:39Z</time>
  <course>254.39</course>
  <speed>0.978008179924892</speed>
  <fix>3d</fix>
</trkpt>
<trkpt lat="40.0713819" lon="-105.2297557">
  <ele>1583.0</ele>
  <time>2026-08-28T17:56:39Z</time>
  <course>252.62</course>
  <speed>0.99</speed>
  <fix>3d</fix>
</trkpt>
<trkpt lat="40.0713812" lon="-105.2297595">
  <ele>1583.19</ele>
  <time>2026-08-28T17:56:39Z</time>
  <course>254.39</course>
  <speed>0.978008179924892</speed>
  <fix>3d</fix>
</trkpt>
<trkpt lat="40.0713813" lon="-105.2297579">
  <ele>1583.0</ele>
  <time>2026-08-28T17:56:39Z</time>
  <course>252.68</course>
  <speed>0.99</speed>
  <fix>3d</fix>
</trkpt>
<trkpt lat="40.0713809" lon="-105.2297606">
  <ele>1583.2</ele>
  <time>2026-08-28T17:56:39Z</time>
  <course>254.39</course>
  <speed>0.978008179924892</speed>
  <fix>3d</fix>
</trkpt>
<trkpt lat="40.0713813" lon="-105.2297579">
  <ele>1583.0</ele>
  <time>2026-08-28T17:56:39Z</time>
  <course>252.68</course>
  <speed>0.99</speed>
  <fix>3d</fix>
</trkpt>
<trkpt lat="40.0713807" lon="-105.2297617">
  <ele>1583.2</ele>
  <time>2026-08-28T17:56:39Z</time>
  <course>254.39</course>
  <speed>0.978008179924892</speed>
  <fix>3d</fix>
</trkpt>
<trkpt lat="40.0713808" lon="-105.2297601">
  <ele>1583.0</ele>
  <time>2026-08-28T17:56:39Z</time>
  <course>252.72</course>
  <speed>0.99</speed>
  <fix>3d</fix>
</trkpt>
<trkpt lat="40.0713804" lon="-105.2297628">
  <ele>1583.21</ele>
  <time>2026-08-28T17:56:39Z</time>
  <course>254.39</course>
  <speed>0.978008179924892</speed>
  <fix>3d</fix>
</trkpt>
<trkpt lat="40.0713808" lon="-105.2297601">
  <ele>1583.0</ele>
  <time>2026-08-28T17:56:39Z</time>
  <course>252.72</course>
  <speed>0.99</speed>
  <fix>3d</fix>
</trkpt>
<trkpt lat="40.0713801" lon="-105.2297639">
  <ele>1583.21</ele>
  <time>2026-08-28T17:56:39Z</time>
  <course>254.39</course>
  <speed>0.978008179924892</speed>
  <fix>3d</fix>
</trkpt>
<trkpt lat="40.0713803" lon="-105.2297624">
  <ele>1583.0</ele>
  <time>2026-08-28T17:56:39Z</time>
  <course>252.77</course>
  <speed>0.99</speed>
  <fix>3d</fix>
</trkpt>
<trkpt lat="40.0713799" lon="-105.2297651">
  <ele>1583.21</ele>
  <time>2026-08-28T17:56:39Z</time>
  <course>254.39</course>
  <speed>0.978008179924892</speed>
  <fix>3d</fix>
</trkpt>
<trkpt lat="40.0713803" lon="-105.2297624">
  <ele>1583.0</ele>
  <time>2026-08-28T17:56:39Z</time>
  <course>252.77</course>
  <speed>0.99</speed>
  <fix>3d</fix>
</trkpt>
<trkpt lat="40.0713796" lon="-105.2297662">
  <ele>1583.21</ele>
  <time>2026-08-28T17:56:39Z</time>
  <course>254.37</course>
  <speed>0.9752948272189288</speed>
  <fix>3d</fix>
</trkpt>
<trkpt lat="40.0713798" lon="-105.2297646">
  <ele>1583.0</ele>
  <time>2026-08-28T17:56:39Z</time>
  <course>252.8</course>
  <speed>0.99</speed>
  <fix>3d</fix>
</trkpt>
<trkpt lat="40.0713793" lon="-105.2297673">
  <ele>1583.21</ele>
  <time>2026-08-28T17:56:39Z</time>
  <course>254.32</course>
  <speed>0.9752948272189288</speed>
  <fix>3d</fix>
</trkpt>
<trkpt lat="40.0713798" lon="-105.2297646">
  <ele>1583.0</ele>
  <time>2026-08-28T17:56:39Z</time>
  <course>252.8</course>
  <speed>0.99</speed>
  <fix>3d</fix>
</trkpt>
<trkpt lat="40.0713791" lon="-105.2297682">
  <ele>1583.21</ele>
  <time>2026-08-28T17:56:39Z</time>
  <course>254.28</course>
  <speed>0.9752948272189288</speed>
  <fix>3d</fix>
</trkpt>
<trkpt lat="40.0713792" lon="-105.2297668">
  <ele>1583.0</ele>
  <time>2026-08-28T17:56:39Z</time>
  <course>252.84</course>
  <speed>0.99</speed>
  <fix>3d</fix>
</trkpt>
<trkpt lat="40.0713789" lon="-105.2297693">
  <ele>1583.21</ele>
  <time>2026-08-28T17:56:39Z</time>
  <course>254.23</course>
  <speed>0.9752948272189288</speed>
  <fix>3d</fix>
</trkpt>
<trkpt lat="40.0713792" lon="-105.2297668">
  <ele>1583.0</ele>
  <time>2026-08-28T17:56:39Z</time>
  <course>252.84</course>
  <speed>0.99</speed>
  <fix>3d</fix>
</trkpt>
<trkpt lat="40.0713786" lon="-105.2297704">
  <ele>1583.21</ele>
  <time>2026-08-28T17:56:39Z</time>
  <course>254.18</course>
  <speed>0.9752948272189288</speed>
  <fix>3d</fix>
</trkpt>
<trkpt lat="40.0713787" lon="-105.2297691">
  <ele>1583.0</ele>
  <time>2026-08-28T17:56:39Z</time>
  <course>252.87</course>
  <speed>0.99</speed>
  <fix>3d</fix>
</trkpt>
<trkpt lat="40.0713783" lon="-105.2297715">
  <ele>1583.2</ele>
  <time>2026-08-28T17:56:39Z</time>
  <course>254.14</course>
  <speed>0.9752948272189288</speed>
  <fix>3d</fix>
</trkpt>
<trkpt lat="40.0713787" lon="-105.2297691">
  <ele>1583.0</ele>
  <time>2026-08-28T17:56:39Z</time>
  <course>252.87</course>
  <speed>0.99</speed>
  <fix>3d</fix>
</trkpt>
<trkpt lat="40.0713781" lon="-105.2297726">
  <ele>1583.2</ele>
  <time>2026-08-28T17:56:39Z</time>
  <course>254.09</course>
  <speed>0.9752948272189288</speed>
  <fix>3d</fix>
</trkpt>
<trkpt lat="40.0713782" lon="-105.2297713">
  <ele>1583.0</ele>
  <time>2026-08-28T17:56:39Z</time>
  <course>252.88</course>
  <speed>0.99</speed>
  <fix>3d</fix>
</trkpt>
<trkpt lat="40.0713778" lon="-105.2297738">
  <ele>1583.2</ele>
  <time>2026-08-28T17:56:39Z</time>
  <course>254.04</course>
  <speed>0.9752948272189288</speed>
  <fix>3d</fix>
</trkpt>
<trkpt lat="40.0713782" lon="-105.2297713">
  <ele>1583.0</ele>
  <time>2026-08-28T17:56:39Z</time>
  <course>252.88</course>
  <speed>0.99</speed>
  <fix>3d</fix>
</trkpt>
<trkpt lat="40.0713775" lon="-105.2297749">
  <ele>1583.19</ele>
  <time>2026-08-28T17:56:39Z</time>
  <course>253.99</course>
  <speed>0.9752948272189288</speed>
  <fix>3d</fix>
</trkpt>
<trkpt lat="40.0713776" lon="-105.2297735">
  <ele>1583.0</ele>
  <time>2026-08-28T17:56:39Z</time>
  <course>252.89</course>
  <speed>0.99</speed>
  <fix>3d</fix>
</trkpt>
<trkpt lat="40.0713773" lon="-105.229776">
  <ele>1583.19</ele>
  <time>2026-08-28T17:56:39Z</time>
  <course>253.94</course>
  <speed>0.9752948272189288</speed>
  <fix>3d</fix>
</trkpt>
<trkpt lat="40.0713776" lon="-105.2297735">
  <ele>1583.0</ele>
  <time>2026-08-28T17:56:39Z</time>
  <course>252.89</course>
  <speed>0.99</speed>
  <fix>3d</fix>
</trkpt>
<trkpt lat="40.071377" lon="-105.2297771">
  <ele>1583.18</ele>
  <time>2026-08-28T17:56:39Z</time>
  <course>253.89</course>
  <speed>0.9752948272189288</speed>
  <fix>3d</fix>
</trkpt>
<trkpt lat="40.0713771" lon="-105.2297758">
  <ele>1583.0</ele>
  <time>2026-08-28T17:56:39Z</time>
  <course>252.89</course>
  <speed>0.99</speed>
  <fix>3d</fix>
</trkpt>
<trkpt lat="40.0713767" lon="-105.2297785">
  <ele>1583.17</ele>
  <time>2026-08-28T17:56:39Z</time>
  <course>253.83</course>
  <speed>0.9752948272189288</speed>
  <fix>3d</fix>
</trkpt>
<trkpt lat="40.0713771" lon="-105.2297758">
  <ele>1583.0</ele>
  <time>2026-08-28T17:56:39Z</time>
  <course>252.89</course>
  <speed>0.99</speed>
  <fix>3d</fix>
</trkpt>
<trkpt lat="40.0713764" lon="-105.2297796">
  <ele>1583.17</ele>
  <time>2026-08-28T17:56:39Z</time>
  <course>253.8</course>
  <speed>0.9752948272189288</speed>
  <fix>3d</fix>
</trkpt>
<trkpt lat="40.0713766" lon="-105.2297781">
  <ele>1583.0</ele>
  <time>2026-08-28T17:56:39Z</time>
  <course>252.88</course>
  <speed>0.99</speed>
  <fix>3d</fix>
</trkpt>
<trkpt lat="40.0713762" lon="-105.2297807">
  <ele>1583.17</ele>
  <time>2026-08-28T17:56:39Z</time>
  <course>253.81</course>
  <speed>0.9752948272189288</speed>
  <fix>3d</fix>
</trkpt>
<trkpt lat="40.0713766" lon="-105.2297781">
  <ele>1583.0</ele>
  <time>2026-08-28T17:56:39Z</time>
  <course>252.88</course>
  <speed>0.99</speed>
  <fix>3d</fix>
</trkpt>
<trkpt lat="40.0713759" lon="-105.2297818">
  <ele>1583.17</ele>
  <time>2026-08-28T17:56:39Z</time>
  <course>253.85</course>
  <speed>0.9752948272189288</speed>
  <fix>3d</fix>
</trkpt>
<trkpt lat="40.071376" lon="-105.2297802">
  <ele>1583.0</ele>
  <time>2026-08-28T17:56:39Z</time>
  <course>252.86</course>
  <speed>0.99</speed>
  <fix>3d</fix>
</trkpt>
<trkpt lat="40.0713756" lon="-105.229783">
  <ele>1583.17</ele>
  <time>2026-08-28T17:56:39Z</time>
  <course>253.9</course>
  <speed>0.9656603957913983</speed>
  <fix>3d</fix>
</trkpt>
<trkpt lat="40.071376" lon="-105.2297802">
  <ele>1583.0</ele>
  <time>2026-08-28T17:56:39Z</time>
  <course>252.86</course>
  <speed>0.99</speed>
  <fix>3d</fix>
</trkpt>
<trkpt lat="40.0713754" lon="-105.2297841">
  <ele>1583.17</ele>
  <time>2026-08-28T17:56:39Z</time>
  <course>253.97</course>
  <speed>0.9656603957913983</speed>
  <fix>3d</fix>
</trkpt>
<trkpt lat="40.0713755" lon="-105.2297825">
  <ele>1583.0</ele>
  <time>2026-08-28T17:56:39Z</time>
  <course>252.85</course>
  <speed>0.99</speed>
  <fix>3d</fix>
</trkpt>
<trkpt lat="40.0713751" lon="-105.2297852">
  <ele>1583.18</ele>
  <time>2026-08-28T17:56:39Z</time>
  <course>254.07</course>
  <speed>0.9560334722173696</speed>
  <fix>3d</fix>
</trkpt>
<trkpt lat="40.0713755" lon="-105.2297825">
  <ele>1583.0</ele>
  <time>2026-08-28T17:56:39Z</time>
  <course>252.85</course>
  <speed>0.99</speed>
  <fix>3d</fix>
</trkpt>
<trkpt lat="40.0713748" lon="-105.2297863">
  <ele>1583.18</ele>
  <time>2026-08-28T17:56:39Z</time>
  <course>254.2</course>
  <speed>0.9464142856064675</speed>
  <fix>3d</fix>
</trkpt>
<trkpt lat="40.071375" lon="-105.2297848">
  <ele>1583.0</ele>
  <time>2026-08-28T17:56:39Z</time>
  <course>252.85</course>
  <speed>0.98</speed>
  <fix>3d</fix>
</trkpt>
<trkpt lat="40.0713746" lon="-105.2297873">
  <ele>1583.18</ele>
  <time>2026-08-28T17:56:39Z</time>
  <course>254.37</course>
  <speed>0.9368030742904295</speed>
  <fix>3d</fix>
</trkpt>
<trkpt lat="40.071375" lon="-105.2297848">
  <ele>1583.0</ele>
  <time>2026-08-28T17:56:39Z</time>
  <course>252.85</course>
  <speed>0.98</speed>
  <fix>3d</fix>
</trkpt>
<trkpt lat="40.0713743" lon="-105.2297884">
  <ele>1583.18</ele>
  <time>2026-08-28T17:56:39Z</time>
  <course>254.59</course>
  <speed>0.9244457799135652</speed>
  <fix>3d</fix>
</trkpt>
<trkpt lat="40.0713745" lon="-105.2297869">
  <ele>1583.0</ele>
  <time>2026-08-28T17:56:39Z</time>
  <course>252.86</course>
  <speed>0.96</speed>
  <fix>3d</fix>
</trkpt>
<trkpt lat="40.0713741" lon="-105.2297894">
  <ele>1583.18</ele>
  <time>2026-08-28T17:56:39Z</time>
  <course>254.88</course>
  <speed>0.9052071586106685</speed>
  <fix>3d</fix>
</trkpt>
<trkpt lat="40.0713745" lon="-105.2297869">
  <ele>1583.0</ele>
  <time>2026-08-28T17:56:39Z</time>
  <course>252.86</course>
  <speed>0.96</speed>
  <fix>3d</fix>
</trkpt>
<trkpt lat="40.0713738" lon="-105.2297905">
  <ele>1583.18</ele>
  <time>2026-08-28T17:56:39Z</time>
  <course>255.25</course>
  <speed>0.8832326986700617</speed>
  <fix>3d</fix>
</trkpt>
<trkpt lat="40.071374" lon="-105.229789">
  <ele>1583.0</ele>
  <time>2026-08-28T17:56:39Z</time>
  <course>252.89</course>
  <speed>0.93</speed>
  <fix>3d</fix>
</trkpt>
<trkpt lat="40.0713737" lon="-105.2297913">
  <ele>1583.18</ele>
  <time>2026-08-28T17:56:39Z</time>
  <course>255.56</course>
  <speed>0.861278120005379</speed>
  <fix>3d</fix>
</trkpt>
<trkpt lat="40.071374" lon="-105.229789">
  <ele>1583.0</ele>
  <time>2026-08-28T17:56:39Z</time>
  <course>252.89</course>
  <speed>0.93</speed>
  <fix>3d</fix>
</trkpt>
<trkpt lat="40.0713734" lon="-105.2297922">
  <ele>1583.18</ele>
  <time>2026-08-28T17:56:39Z</time>
  <course>255.98</course>
  <speed>0.8296987405076617</speed>
  <fix>3d</fix>
</trkpt>
<trkpt lat="40.0713735" lon="-105.2297911">
  <ele>1583.0</ele>
  <time>2026-08-28T17:56:39Z</time>
  <course>252.92</course>
  <speed>0.88</speed>
  <fix>3d</fix>
</trkpt>
<trkpt lat="40.0713732" lon="-105.2297932">
  <ele>1583.18</ele>
  <time>2026-08-28T17:56:39Z</time>
  <course>256.42</course>
  <speed>0.800812087820857</speed>
  <fix>3d</fix>
</trkpt>
<trkpt lat="40.0713735" lon="-105.2297911">
  <ele>1583.0</ele>
  <time>2026-08-28T17:56:39Z</time>
  <course>252.92</course>
  <speed>0.88</speed>
  <fix>3d</fix>
</trkpt>
<trkpt lat="40.071373" lon="-105.229794">
  <ele>1583.18</ele>
  <time>2026-08-28T17:56:39Z</time>
  <course>256.89</course>
  <speed>0.7596051605933176</speed>
  <fix>3d</fix>
</trkpt>
<trkpt lat="40.0713731" lon="-105.229793">
  <ele>1583.0</ele>
  <time>2026-08-28T17:56:39Z</time>
  <course>252.93</course>
  <speed>0.82</speed>
  <fix>3d</fix>
</trkpt>
<trkpt lat="40.0713728" lon="-105.2297949">
  <ele>1583.17</ele>
  <time>2026-08-28T17:56:39Z</time>
  <course>257.41</course>
  <speed>0.7280109889280518</speed>
  <fix>3d</fix>
</trkpt>
<trkpt lat="40.0713731" lon="-105.229793">
  <ele>1583.0</ele>
  <time>2026-08-28T17:56:39Z</time>
  <course>252.93</course>
  <speed>0.82</speed>
  <fix>3d</fix>
</trkpt>
<trkpt lat="40.0713726" lon="-105.2297957">
  <ele>1583.17</ele>
  <time>2026-08-28T17:56:39Z</time>
  <course>257.9</course>
  <speed>0.6841052550594828</speed>
  <fix>3d</fix>
</trkpt>
<trkpt lat="40.0713727" lon="-105.2297948">
  <ele>1583.0</ele>
  <time>2026-08-28T17:56:39Z</time>
  <course>252.91</course>
  <speed>0.75</speed>
  <fix>3d</fix>
</trkpt>
<trkpt lat="40.0713724" lon="-105.2297965">
  <ele>1583.17</ele>
  <time>2026-08-28T17:56:39Z</time>
  <course>258.4</course>
  <speed>0.6552098900352467</speed>
  <fix>3d</fix>
</trkpt>
<trkpt lat="40.0713727" lon="-105.2297948">
  <ele>1583.0</ele>
  <time>2026-08-28T17:56:39Z</time>
  <course>252.91</course>
  <speed>0.75</speed>
  <fix>3d</fix>
</trkpt>
<trkpt lat="40.0713722" lon="-105.2297972">
  <ele>1583.17</ele>
  <time>2026-08-28T17:56:39Z</time>
  <course>258.86</course>
  <speed>0.6140032573203501</speed>
  <fix>3d</fix>
</trkpt>
<trkpt lat="40.0713722" lon="-105.2297964">
  <ele>1583.0</ele>
  <time>2026-08-28T17:56:39Z</time>
  <course>252.85</course>
  <speed>0.68</speed>
  <fix>3d</fix>
</trkpt>
<trkpt lat="40.0713721" lon="-105.2297979">
  <ele>1583.17</ele>
  <time>2026-08-28T17:56:39Z</time>
  <course>259.27</course>
  <speed>0.5824087911424415</speed>
  <fix>3d</fix>
</trkpt>
<trkpt lat="40.0713722" lon="-105.2297964">
  <ele>1583.0</ele>
  <time>2026-08-28T17:56:39Z</time>
  <course>252.85</course>
  <speed>0.68</speed>
  <fix>3d</fix>
</trkpt>
<trkpt lat="40.0713719" lon="-105.2297987">
  <ele>1583.17</ele>
  <time>2026-08-28T17:56:39Z</time>
  <course>259.62</course>
  <speed>0.5412023651093923</speed>
  <fix>3d</fix>
</trkpt>
<trkpt lat="40.0713719" lon="-105.2297979">
  <ele>1583.0</ele>
  <time>2026-08-28T17:56:39Z</time>
  <course>252.74</course>
  <speed>0.61</speed>
  <fix>3d</fix>
</trkpt>
<trkpt lat="40.0713717" lon="-105.2297993">
  <ele>1583.17</ele>
  <time>2026-08-28T17:56:39Z</time>
  <course>259.64</course>
  <speed>0.5096076922496363</speed>
  <fix>3d</fix>
</trkpt>
<trkpt lat="40.0713719" lon="-105.2297979">
  <ele>1583.0</ele>
  <time>2026-08-28T17:56:39Z</time>
  <course>252.74</course>
  <speed>0.61</speed>
  <fix>3d</fix>
</trkpt>
<trkpt lat="40.0713716" lon="-105.2297999">
  <ele>1583.16</ele>
  <time>2026-08-28T17:56:39Z</time>
  <course>259.65</course>
  <speed>0.4876474136094644</speed>
  <fix>3d</fix>
</trkpt>
<trkpt lat="40.0713716" lon="-105.2297992">
  <ele>1583.0</ele>
  <time>2026-08-28T17:56:39Z</time>
  <course>252.64</course>
  <speed>0.55</speed>
  <fix>3d</fix>
</trkpt>
<trkpt lat="40.0713715" lon="-105.2298005">
  <ele>1583.16</ele>
  <time>2026-08-28T17:56:39Z</time>
  <course>259.65</course>
  <speed>0.46840153714521476</speed>
  <fix>3d</fix>
</trkpt>
<trkpt lat="40.0713716" lon="-105.2297992">
  <ele>1583.0</ele>
  <time>2026-08-28T17:56:39Z</time>
  <course>252.64</course>
  <speed>0.55</speed>
  <fix>3d</fix>
</trkpt>
<trkpt lat="40.0713713" lon="-105.229801">
  <ele>1583.16</ele>
  <time>2026-08-28T17:56:39Z</time>
  <course>259.65</course>
  <speed>0.4464302857109943</speed>
  <fix>3d</fix>
</trkpt>
<trkpt lat="40.0713713" lon="-105.2298003">
  <ele>1583.0</ele>
  <time>2026-08-28T17:56:39Z</time>
  <course>252.6</course>
  <speed>0.5</speed>
  <fix>3d</fix>
</trkpt>
<trkpt lat="40.0713712" lon="-105.2298015">
  <ele>1583.16</ele>
  <time>2026-08-28T17:56:39Z</time>
  <course>259.65</course>
  <speed>0.42449970553582245</speed>
  <fix>3d</fix>
</trkpt>
<trkpt lat="40.0713713" lon="-105.2298003">
  <ele>1583.0</ele>
  <time>2026-08-28T17:56:39Z</time>
  <course>252.6</course>
  <speed>0.5</speed>
  <fix>3d</fix>
</trkpt>
<trkpt lat="40.0713711" lon="-105.229802">
  <ele>1583.16</ele>
  <time>2026-08-28T17:56:39Z</time>
  <course>259.65</course>
  <speed>0.4052159917870962</speed>
  <fix>3d</fix>
</trkpt>
<trkpt lat="40.0713711" lon="-105.2298014">
  <ele>1583.0</ele>
  <time>2026-08-28T17:56:39Z</time>
  <course>252.6</course>
  <speed>0.46</speed>
  <fix>3d</fix>
</trkpt>
<trkpt lat="40.071371" lon="-105.2298025">
  <ele>1583.16</ele>
  <time>2026-08-28T17:56:39Z</time>
  <course>259.65</course>
  <speed>0.383275357934736</speed>
  <fix>3d</fix>
</trkpt>
<trkpt lat="40.0713711" lon="-105.2298014">
  <ele>1583.0</ele>
  <time>2026-08-28T17:56:39Z</time>
  <course>252.6</course>
  <speed>0.46</speed>
  <fix>3d</fix>
</trkpt>
<trkpt lat="40.0713709" lon="-105.2298029">
  <ele>1583.16</ele>
  <time>2026-08-28T17:56:39Z</time>
  <course>259.65</course>
  <speed>0.3736308338453881</speed>
  <fix>3d</fix>
</trkpt>
<trkpt lat="40.0713708" lon="-105.2298024">
  <ele>1583.0</ele>
  <time>2026-08-28T17:56:39Z</time>
  <course>252.6</course>
  <speed>0.42</speed>
  <fix>3d</fix>
</trkpt>
<trkpt lat="40.0713708" lon="-105.2298033">
  <ele>1583.15</ele>
  <time>2026-08-28T17:56:39Z</time>
  <course>259.65</course>
  <speed>0.35171010790137947</speed>
  <fix>3d</fix>
</trkpt>
<trkpt lat="40.0713708" lon="-105.2298024">
  <ele>1583.0</ele>
  <time>2026-08-28T17:56:39Z</time>
  <course>252.6</course>
  <speed>0.42</speed>
  <fix>3d</fix>
</trkpt>
<trkpt lat="40.0713707" lon="-105.2298038">
  <ele>1583.15</ele>
  <time>2026-08-28T17:56:39Z</time>
  <course>259.65</course>
  <speed>0.33241540277189324</speed>
  <fix>3d</fix>
</trkpt>
<trkpt lat="40.0713705" lon="-105.2298033">
  <ele>1583.0</ele>
  <time>2026-08-28T17:56:39Z</time>
  <course>252.6</course>
  <speed>0.39</speed>
  <fix>3d</fix>
</trkpt>
<trkpt lat="40.0713705" lon="-105.2298041">
  <ele>1583.14</ele>
  <time>2026-08-28T17:56:39Z</time>
  <course>259.65</course>
  <speed>0.32015621187164245</speed>
  <fix>3d</fix>
</trkpt>
<trkpt lat="40.0713705" lon="-105.2298033">
  <ele>1583.0</ele>
  <time>2026-08-28T17:56:39Z</time>
  <course>252.6</course>
  <speed>0.39</speed>
  <fix>3d</fix>
</trkpt>
<trkpt lat="40.0713705" lon="-105.2298044">
  <ele>1583.13</ele>
  <time>2026-08-28T17:56:39Z</time>
  <course>259.65</course>
  <speed>0.31048349392520047</speed>
  <fix>3d</fix>
</trkpt>
<trkpt lat="40.0713704" lon="-105.2298041">
  <ele>1583.0</ele>
  <time>2026-08-28T17:56:39Z</time>
  <course>252.6</course>
  <speed>0.35</speed>
  <fix>3d</fix>
</trkpt>
<trkpt lat="40.0713704" lon="-105.2298048">
  <ele>1583.12</ele>
  <time>2026-08-28T17:56:39Z</time>
  <course>259.65</course>
  <speed>0.28861739379323625</speed>
  <fix>3d</fix>
</trkpt>
<trkpt lat="40.0713704" lon="-105.2298041">
  <ele>1583.0</ele>
  <time>2026-08-28T17:56:39Z</time>
  <course>252.6</course>
  <speed>0.35</speed>
  <fix>3d</fix>
</trkpt>
<trkpt lat="40.0713703" lon="-105.2298052">
  <ele>1583.12</ele>
  <time>2026-08-28T17:56:39Z</time>
  <course>259.66</course>
  <speed>0.27892651361962706</speed>
  <fix>3d</fix>
</trkpt>
<trkpt lat="40.0713702" lon="-105.2298049">
  <ele>1583.0</ele>
  <time>2026-08-28T17:56:39Z</time>
  <course>252.6</course>
  <speed>0.33</speed>
  <fix>3d</fix>
</trkpt>
<trkpt lat="40.0713702" lon="-105.2298055">
  <ele>1583.11</ele>
  <time>2026-08-28T17:56:39Z</time>
  <course>259.66</course>
  <speed>0.2692582403567252</speed>
  <fix>3d</fix>
</trkpt>
<trkpt lat="40.0713702" lon="-105.2298049">
  <ele>1583.0</ele>
  <time>2026-08-28T17:56:39Z</time>
  <course>252.6</course>
  <speed>0.33</speed>
  <fix>3d</fix>
</trkpt>
<trkpt lat="40.0713701" lon="-105.2298058">
  <ele>1583.11</ele>
  <time>2026-08-28T17:56:39Z</time>
  <course>259.66</course>
  <speed>0.2570992026436488</speed>
  <fix>3d</fix>
</trkpt>
<trkpt lat="40.07137" lon="-105.2298056">
  <ele>1583.0</ele>
  <time>2026-08-28T17:56:39Z</time>
  <course>252.6</course>
  <speed>0.3</speed>
  <fix>3d</fix>
</trkpt>
<trkpt lat="40.0713701" lon="-105.2298061">
  <ele>1583.1</ele>
  <time>2026-08-28T17:56:39Z</time>
  <course>259.66</course>
  <speed>0.24738633753705963</speed>
  <fix>3d</fix>
</trkpt>
<trkpt lat="40.07137" lon="-105.2298056">
  <ele>1583.0</ele>
  <time>2026-08-28T17:56:39Z</time>
  <course>252.6</course>
  <speed>0.3</speed>
  <fix>3d</fix>
</trkpt>
<trkpt lat="40.07137" lon="-105.2298064">
  <ele>1583.1</ele>
  <time>2026-08-28T17:56:39Z</time>
  <course>259.66</course>
  <speed>0.22561028345356957</speed>
  <fix>3d</fix>
</trkpt>
<trkpt lat="40.0713699" lon="-105.2298063">
  <ele>1583.0</ele>
  <time>2026-08-28T17:56:39Z</time>
  <course>252.6</course>
  <speed>0.27</speed>
  <fix>3d</fix>
</trkpt>
<trkpt lat="40.0713699" lon="-105.2298067">
  <ele>1583.1</ele>
  <time>2026-08-28T17:56:39Z</time>
  <course>259.66</course>
  <speed>0.215870331449229</speed>
  <fix>3d</fix>
</trkpt>
<trkpt lat="40.0713699" lon="-105.2298063">
  <ele>1583.0</ele>
  <time>2026-08-28T17:56:39Z</time>
  <course>252.6</course>
  <speed>0.27</speed>
  <fix>3d</fix>
</trkpt>
<trkpt lat="40.0713698" lon="-105.229807">
  <ele>1583.1</ele>
  <time>2026-08-28T17:56:39Z</time>
  <course>259.66</course>
  <speed>0.20615528128088303</speed>
  <fix>3d</fix>
</trkpt>
<trkpt lat="40.0713698" lon="-105.2298069">
  <ele>1583.0</ele>
  <time>2026-08-28T17:56:39Z</time>
  <course>252.6</course>
  <speed>0.25</speed>
  <fix>3d</fix>
</trkpt>
<trkpt lat="40.0713698" lon="-105.2298073">
  <ele>1583.1</ele>
  <time>2026-08-28T17:56:39Z</time>
  <course>259.66</course>
  <speed>0.194164878389476</speed>
  <fix>3d</fix>
</trkpt>
<trkpt lat="40.0713698" lon="-105.2298069">
  <ele>1583.0</ele>
  <time>2026-08-28T17:56:39Z</time>
  <course>252.6</course>
  <speed>0.25</speed>
  <fix>3d</fix>
</trkpt>
<trkpt lat="40.0713697" lon="-105.2298076">
  <ele>1583.09</ele>
  <time>2026-08-28T17:56:39Z</time>
  <course>259.66</course>
  <speed>0.18439088914585774</speed>
  <fix>3d</fix>
</trkpt>
<trkpt lat="40.0713696" lon="-105.2298074">
  <ele>1583.0</ele>
  <time>2026-08-28T17:56:39Z</time>
  <course>252.6</course>
  <speed>0.23</speed>
  <fix>3d</fix>
</trkpt>
<trkpt lat="40.0713697" lon="-105.2298078">
  <ele>1583.09</ele>
  <time>2026-08-28T17:56:39Z</time>
  <course>259.66</course>
  <speed>0.18439088914585774</speed>
  <fix>3d</fix>
</trkpt>
<trkpt lat="39.6561709" lon="-104.1394387">
  <ele>1566.59</ele>
  <time>2026-08-28T17:56:39Z</time>
  <course>0.0</course>
  <speed>0.0</speed>
  <fix>3d</fix>
</trkpt>
<trkpt lat="40.0713749" lon="-105.229789">
  <ele>1583.0</ele>
  <time>2026-08-28T17:56:39Z</time>
  <course>0.0</course>
  <speed>0.0</speed>
  <fix>3d</fix>
</trkpt>
<trkpt lat="40.0713749" lon="-105.229789">
  <ele>1583.0</ele>
  <time>2026-08-28T17:56:39Z</time>
  <course>238.36</course>
  <speed>0.0</speed>
  <fix>3d</fix>
</trkpt>
<trkpt lat="40.0713749" lon="-105.229789">
  <ele>1583.0</ele>
  <time>2026-08-28T17:56:39Z</time>
  <course>0.0</course>
  <speed>0.0</speed>
  <fix>3d</fix>
</trkpt>
<trkpt lat="40.0713749" lon="-105.229789">
  <ele>1583.0</ele>
  <time>2026-08-28T17:56:39Z</time>
  <course>238.45</course>
  <speed>0.0</speed>
  <fix>3d</fix>
</trkpt>
<trkpt lat="40.0713749" lon="-105.229789">
  <ele>1583.0</ele>
  <time>2026-08-28T17:56:39Z</time>
  <course>0.0</course>
  <speed>0.0</speed>
  <fix>3d</fix>
</trkpt>
<trkpt lat="40.0713749" lon="-105.229789">
  <ele>1583.0</ele>
  <time>2026-08-28T17:56:39Z</time>
  <course>238.65</course>
  <speed>0.0</speed>
  <fix>3d</fix>
</trkpt>
<trkpt lat="40.0713749" lon="-105.229789">
  <ele>1583.0</ele>
  <time>2026-08-28T17:56:39Z</time>
  <course>0.0</course>
  <speed>0.0</speed>
  <fix>3d</fix>
</trkpt>
<trkpt lat="40.0713749" lon="-105.229789">
  <ele>1583.0</ele>
  <time>2026-08-28T17:56:39Z</time>
  <course>238.93</course>
  <speed>0.0</speed>
  <fix>3d</fix>
</trkpt>
<trkpt lat="40.0713749" lon="-105.229789">
  <ele>1583.0</ele>
  <time>2026-08-28T17:56:39Z</time>
  <course>0.0</course>
  <speed>0.0</speed>
  <fix>3d</fix>
</trkpt>
<trkpt lat="40.0713749" lon="-105.229789">
  <ele>1583.0</ele>
  <time>2026-08-28T17:56:39Z</time>
  <course>239.26</course>
  <speed>0.0</speed>
  <fix>3d</fix>
</trkpt>
<trkpt lat="40.0713749" lon="-105.229789">
  <ele>1583.0</ele>
  <time>2026-08-28T17:56:39Z</time>
  <course>0.0</course>
  <speed>0.0</speed>
  <fix>3d</fix>
</trkpt>
<trkpt lat="40.0713749" lon="-105.229789">
  <ele>1583.0</ele>
  <time>2026-08-28T17:56:39Z</time>
  <course>239.61</course>
  <speed>0.0</speed>
  <fix>3d</fix>
</trkpt>
<trkpt lat="40.0713749" lon="-105.229789">
  <ele>1583.0</ele>
  <time>2026-08-28T17:56:39Z</time>
  <course>0.0</course>
  <speed>0.0</speed>
  <fix>3d</fix>
</trkpt>
<trkpt lat="40.0713749" lon="-105.229789">
  <ele>1583.0</ele>
  <time>2026-08-28T17:56:39Z</time>
  <course>239.96</course>
  <speed>0.0</speed>
  <fix>3d</fix>
</trkpt>
<trkpt lat="40.0713749" lon="-105.229789">
  <ele>1583.0</ele>
  <time>2026-08-28T17:56:39Z</time>
  <course>0.0</course>
  <speed>0.0</speed>
  <fix>3d</fix>
</trkpt>
<trkpt lat="40.0713749" lon="-105.229789">
  <ele>1583.0</ele>
  <time>2026-08-28T17:56:39Z</time>
  <course>240.3</course>
  <speed>0.0</speed>
  <fix>3d</fix>
</trkpt>
<trkpt lat="40.0713749" lon="-105.229789">
  <ele>1583.0</ele>
  <time>2026-08-28T17:56:39Z</time>
  <course>0.0</course>
  <speed>0.0</speed>
  <fix>3d</fix>
</trkpt>
<trkpt lat="40.0713749" lon="-105.229789">
  <ele>1583.0</ele>
  <time>2026-08-28T17:56:39Z</time>
  <course>240.61</course>
  <speed>0.0</speed>
  <fix>3d</fix>
</trkpt>
<trkpt lat="40.0713749" lon="-105.229789">
  <ele>1583.0</ele>
  <time>2026-08-28T17:56:39Z</time>
  <course>0.0</course>
  <speed>0.0</speed>
  <fix>3d</fix>
</trkpt>
<trkpt lat="40.0713749" lon="-105.229789">
  <ele>1583.0</ele>
  <time>2026-08-28T17:56:39Z</time>
  <course>240.92</course>
  <speed>0.0</speed>
  <fix>3d</fix>
</trkpt>
<trkpt lat="40.0713749" lon="-105.229789">
  <ele>1583.0</ele>
  <time>2026-08-28T17:56:39Z</time>
  <course>0.0</course>
  <speed>0.0</speed>
  <fix>3d</fix>
</trkpt>
<trkpt lat="40.0713749" lon="-105.229789">
  <ele>1583.0</ele>
  <time>2026-08-28T17:56:39Z</time>
  <course>241.21</course>
  <speed>0.0</speed>
  <fix>3d</fix>
</trkpt>
<trkpt lat="40.0713749" lon="-105.229789">
  <ele>1583.0</ele>
  <time>2026-08-28T17:56:39Z</time>
  <course>0.0</course>
  <speed>0.0</speed>
  <fix>3d</fix>
</trkpt>
<trkpt lat="40.0713749" lon="-105.229789">
  <ele>1583.0</ele>
  <time>2026-08-28T17:56:39Z</time>
  <course>241.49</course>
  <speed>0.0</speed>
  <fix>3d</fix>
</trkpt>
<trkpt lat="40.0713749" lon="-105.229789">
  <ele>1583.0</ele>
  <time>2026-08-28T17:56:39Z</time>
  <course>0.0</course>
  <speed>0.0</speed>
  <fix>3d</fix>
</trkpt>
<trkpt lat="40.0713749" lon="-105.229789">
  <ele>1583.0</ele>
  <time>2026-08-28T17:56:39Z</time>
  <course>241.77</course>
  <speed>0.0</speed>
  <fix>3d</fix>
</trkpt>
<trkpt lat="40.0713749" lon="-105.229789">
  <ele>1583.0</ele>
  <time>2026-08-28T17:56:39Z</time>
  <course>0.0</course>
  <speed>0.0</speed>
  <fix>3d</fix>
</trkpt>
<trkpt lat="40.0713749" lon="-105.229789">
  <ele>1583.0</ele>
  <time>2026-08-28T17:56:39Z</time>
  <course>242.03</course>
  <speed>0.0</speed>
  <fix>3d</fix>
</trkpt>
<trkpt lat="40.0713749" lon="-105.229789">
  <ele>1583.0</ele>
  <time>2026-08-28T17:56:39Z</time>
  <course>0.0</course>
  <speed>0.0</speed>
  <fix>3d</fix>
</trkpt>
<trkpt lat="40.0713749" lon="-105.229789">
  <ele>1583.0</ele>
  <time>2026-08-28T17:56:39Z</time>
  <course>242.29</course>
  <speed>0.0</speed>
  <fix>3d</fix>
</trkpt>
<trkpt lat="40.0713749" lon="-105.229789">
  <ele>1583.0</ele>
  <time>2026-08-28T17:56:39Z</time>
  <course>0.0</course>
  <speed>0.0</speed>
  <fix>3d</fix>
</trkpt>
<trkpt lat="40.0713749" lon="-105.229789">
  <ele>1583.0</ele>
  <time>2026-08-28T17:56:39Z</time>
  <course>242.54</course>
  <speed>0.0</speed>
  <fix>3d</fix>
</trkpt>
<trkpt lat="40.0713749" lon="-105.229789">
  <ele>1583.0</ele>
  <time>2026-08-28T17:56:39Z</time>
  <course>0.0</course>
  <speed>0.0</speed>
  <fix>3d</fix>
</trkpt>
<trkpt lat="40.0713749" lon="-105.229789">
  <ele>1583.0</ele>
  <time>2026-08-28T17:56:39Z</time>
  <course>242.79</course>
  <speed>0.0</speed>
  <fix>3d</fix>
</trkpt>
<trkpt lat="40.0713749" lon="-105.229789">
  <ele>1583.0</ele>
  <time>2026-08-28T17:56:39Z</time>
  <course>0.0</course>
  <speed>0.0</speed>
  <fix>3d</fix>
</trkpt>
<trkpt lat="40.0713749" lon="-105.229789">
  <ele>1583.0</ele>
  <time>2026-08-28T17:56:39Z</time>
  <course>243.02</course>
  <speed>0.0</speed>
  <fix>3d</fix>
</trkpt>
<trkpt lat="40.0713749" lon="-105.229789">
  <ele>1583.0</ele>
  <time>2026-08-28T17:56:39Z</time>
  <course>0.0</course>
  <speed>0.0</speed>
  <fix>3d</fix>
</trkpt>
<trkpt lat="40.0713749" lon="-105.229789">
  <ele>1583.0</ele>
  <time>2026-08-28T17:56:39Z</time>
  <course>243.25</course>
  <speed>0.0</speed>
  <fix>3d</fix>
</trkpt>
<trkpt lat="40.0713749" lon="-105.229789">
  <ele>1583.0</ele>
  <time>2026-08-28T17:56:39Z</time>
  <course>0.0</course>
  <speed>0.0</speed>
  <fix>3d</fix>
</trkpt>
<trkpt lat="40.0713749" lon="-105.229789">
  <ele>1583.0</ele>
  <time>2026-08-28T17:56:39Z</time>
  <course>243.47</course>
  <speed>0.0</speed>
  <fix>3d</fix>
</trkpt>
<trkpt lat="40.0713749" lon="-105.229789">
  <ele>1583.0</ele>
  <time>2026-08-28T17:56:39Z</time>
  <course>0.0</course>
  <speed>0.0</speed>
  <fix>3d</fix>
</trkpt>
<trkpt lat="40.0713749" lon="-105.229789">
  <ele>1583.0</ele>
  <time>2026-08-28T17:56:39Z</time>
  <course>243.68</course>
  <speed>0.0</speed>
  <fix>3d</fix>
</trkpt>
<trkpt lat="40.0713749" lon="-105.229789">
  <ele>1583.0</ele>
  <time>2026-08-28T17:56:39Z</time>
  <course>0.0</course>
  <speed>0.0</speed>
  <fix>3d</fix>
</trkpt>
<trkpt lat="40.0713749" lon="-105.229789">
  <ele>1583.0</ele>
  <time>2026-08-28T17:56:39Z</time>
  <course>243.89</course>
  <speed>0.0</speed>
  <fix>3d</fix>
</trkpt>
<trkpt lat="40.0713749" lon="-105.229789">
  <ele>1583.0</ele>
  <time>2026-08-28T17:56:39Z</time>
  <course>0.0</course>
  <speed>0.0</speed>
  <fix>3d</fix>
</trkpt>
<trkpt lat="40.0713749" lon="-105.229789">
  <ele>1583.0</ele>
  <time>2026-08-28T17:56:39Z</time>
  <course>244.09</course>
  <speed>0.0</speed>
  <fix>3d</fix>
</trkpt>
<trkpt lat="40.0713749" lon="-105.229789">
  <ele>1583.0</ele>
  <time>2026-08-28T17:56:39Z</time>
  <course>0.0</course>
  <speed>0.0</speed>
  <fix>3d</fix>
</trkpt>
<trkpt lat="40.0713749" lon="-105.229789">
  <ele>1583.0</ele>
  <time>2026-08-28T17:56:39Z</time>
  <course>244.28</course>
  <speed>0.0</speed>
  <fix>3d</fix>
</trkpt>
<trkpt lat="40.0713749" lon="-105.229789">
  <ele>1583.0</ele>
  <time>2026-08-28T17:56:39Z</time>
  <course>0.0</course>
  <speed>0.0</speed>
  <fix>3d</fix>
</trkpt>
<trkpt lat="40.0713749" lon="-105.229789">
  <ele>1583.0</ele>
  <time>2026-08-28T17:56:39Z</time>
  <course>244.46</course>
  <speed>0.0</speed>
  <fix>3d</fix>
</trkpt>
<trkpt lat="40.0713749" lon="-105.229789">
  <ele>1583.0</ele>
  <time>2026-08-28T17:56:39Z</time>
  <course>0.0</course>
  <speed>0.0</speed>
  <fix>3d</fix>
</trkpt>
<trkpt lat="40.0713749" lon="-105.229789">
  <ele>1583.0</ele>
  <time>2026-08-28T17:56:39Z</time>
  <course>244.64</course>
  <speed>0.0</speed>
  <fix>3d</fix>
</trkpt>
<trkpt lat="40.0713749" lon="-105.229789">
  <ele>1583.0</ele>
  <time>2026-08-28T17:56:39Z</time>
  <course>0.0</course>
  <speed>0.0</speed>
  <fix>3d</fix>
</trkpt>
<trkpt lat="40.0713749" lon="-105.229789">
  <ele>1583.0</ele>
  <time>2026-08-28T17:56:39Z</time>
  <course>244.81</course>
  <speed>0.0</speed>
  <fix>3d</fix>
</trkpt>
<trkpt lat="40.0713749" lon="-105.229789">
  <ele>1583.0</ele>
  <time>2026-08-28T17:56:39Z</time>
  <course>0.0</course>
  <speed>0.0</speed>
  <fix>3d</fix>
</trkpt>
<trkpt lat="40.0713749" lon="-105.229789">
  <ele>1583.0</ele>
  <time>2026-08-28T17:56:39Z</time>
  <course>244.97</course>
  <speed>0.0</speed>
  <fix>3d</fix>
</trkpt>
<trkpt lat="40.0713749" lon="-105.229789">
  <ele>1583.0</ele>
  <time>2026-08-28T17:56:39Z</time>
  <course>0.0</course>
  <speed>0.0</speed>
  <fix>3d</fix>
</trkpt>
<trkpt lat="40.0713749" lon="-105.229789">
  <ele>1583.0</ele>
  <time>2026-08-28T17:56:39Z</time>
  <course>245.13</course>
  <speed>0.0</speed>
  <fix>3d</fix>
</trkpt>
<trkpt lat="40.0713749" lon="-105.229789">
  <ele>1583.0</ele>
  <time>2026-08-28T17:56:39Z</time>
  <course>0.0</course>
  <speed>0.0</speed>
  <fix>3d</fix>
</trkpt>
<trkpt lat="40.0713749" lon="-105.229789">
  <ele>1583.0</ele>
  <time>2026-08-28T17:56:39Z</time>
  <course>245.29</course>
  <speed>0.0</speed>
  <fix>3d</fix>
</trkpt>
<trkpt lat="40.0713749" lon="-105.229789">
  <ele>1583.0</ele>
  <time>2026-08-28T17:56:39Z</time>
  <course>0.0</course>
  <speed>0.0</speed>
  <fix>3d</fix>
</trkpt>
<trkpt lat="40.0713749" lon="-105.229789">
  <ele>1583.0</ele>
  <time>2026-08-28T17:56:39Z</time>
  <course>245.43</course>
  <speed>0.0</speed>
  <fix>3d</fix>
</trkpt>
<trkpt lat="40.0713749" lon="-105.229789">
  <ele>1583.0</ele>
  <time>2026-08-28T17:56:39Z</time>
  <course>0.0</course>
  <speed>0.0</speed>
  <fix>3d</fix>
</trkpt>
<trkpt lat="40.0713749" lon="-105.229789">
  <ele>1583.0</ele>
  <time>2026-08-28T17:56:39Z</time>
  <course>245.57</course>
  <speed>0.0</speed>
  <fix>3d</fix>
</trkpt>
<trkpt lat="40.0713749" lon="-105.229789">
  <ele>1583.0</ele>
  <time>2026-08-28T17:56:39Z</time>
  <course>0.0</course>
  <speed>0.0</speed>
  <fix>3d</fix>
</trkpt>
<trkpt lat="40.0713749" lon="-105.229789">
  <ele>1583.0</ele>
  <time>2026-08-28T17:56:39Z</time>
  <course>245.71</course>
  <speed>0.0</speed>
  <fix>3d</fix>
</trkpt>
<trkpt lat="40.0713749" lon="-105.229789">
  <ele>1583.0</ele>
  <time>2026-08-28T17:56:39Z</time>
  <course>0.0</course>
  <speed>0.0</speed>
  <fix>3d</fix>
</trkpt>
<trkpt lat="40.0713749" lon="-105.229789">
  <ele>1583.0</ele>
  <time>2026-08-28T17:56:39Z</time>
  <course>245.83</course>
  <speed>0.0</speed>
  <fix>3d</fix>
</trkpt>
<trkpt lat="40.0713749" lon="-105.229789">
  <ele>1583.0</ele>
  <time>2026-08-28T17:56:39Z</time>
  <course>0.0</course>
  <speed>0.0</speed>
  <fix>3d</fix>
</trkpt>
<trkpt lat="40.0713749" lon="-105.229789">
  <ele>1583.0</ele>
  <time>2026-08-28T17:56:39Z</time>
  <course>245.96</course>
  <speed>0.0</speed>
  <fix>3d</fix>
</trkpt>
<trkpt lat="40.0713749" lon="-105.229789">
  <ele>1583.0</ele>
  <time>2026-08-28T17:56:39Z</time>
  <course>0.0</course>
  <speed>0.0</speed>
  <fix>3d</fix>
</trkpt>
<trkpt lat="40.0713749" lon="-105.229789">
  <ele>1583.0</ele>
  <time>2026-08-28T17:56:39Z</time>
  <course>246.08</course>
  <speed>0.0</speed>
  <fix>3d</fix>
</trkpt>
<trkpt lat="40.0713749" lon="-105.229789">
  <ele>1583.0</ele>
  <time>2026-08-28T17:56:39Z</time>
  <course>0.0</course>
  <speed>0.0</speed>
  <fix>3d</fix>
</trkpt>
<trkpt lat="40.0713749" lon="-105.229789">
  <ele>1583.0</ele>
  <time>2026-08-28T17:56:39Z</time>
  <course>246.19</course>
  <speed>0.0</speed>
  <fix>3d</fix>
</trkpt>
<trkpt lat="40.0713749" lon="-105.229789">
  <ele>1583.0</ele>
  <time>2026-08-28T17:56:39Z</time>
  <course>0.0</course>
  <speed>0.0</speed>
  <fix>3d</fix>
</trkpt>
<trkpt lat="40.0713749" lon="-105.229789">
  <ele>1583.0</ele>
  <time>2026-08-28T17:56:39Z</time>
  <course>246.3</course>
  <speed>0.0</speed>
  <fix>3d</fix>
</trkpt>
<trkpt lat="40.0713749" lon="-105.229789">
  <ele>1583.0</ele>
  <time>2026-08-28T17:56:39Z</time>
  <course>0.0</course>
  <speed>0.0</speed>
  <fix>3d</fix>
</trkpt>
<trkpt lat="40.0713749" lon="-105.229789">
  <ele>1583.0</ele>
  <time>2026-08-28T17:56:39Z</time>
  <course>246.41</course>
  <speed>0.0</speed>
  <fix>3d</fix>
</trkpt>
<trkpt lat="40.0713749" lon="-105.229789">
  <ele>1583.0</ele>
  <time>2026-08-28T17:56:39Z</time>
  <course>0.0</course>
  <speed>0.0</speed>
  <fix>3d</fix>
</trkpt>
<trkpt lat="40.0713749" lon="-105.229789">
  <ele>1583.0</ele>
  <time>2026-08-28T17:56:39Z</time>
  <course>246.51</course>
  <speed>0.0</speed>
  <fix>3d</fix>
</trkpt>
<trkpt lat="40.0713749" lon="-105.229789">
  <ele>1583.0</ele>
  <time>2026-08-28T17:56:39Z</time>
  <course>0.0</course>
  <speed>0.0</speed>
  <fix>3d</fix>
</trkpt>
<trkpt lat="40.0713749" lon="-105.229789">
  <ele>1583.0</ele>
  <time>2026-08-28T17:56:39Z</time>
  <course>246.6</course>
  <speed>0.0</speed>
  <fix>3d</fix>
</trkpt>
<trkpt lat="40.0713749" lon="-105.229789">
  <ele>1583.0</ele>
  <time>2026-08-28T17:56:39Z</time>
  <course>0.0</course>
  <speed>0.0</speed>
  <fix>3d</fix>
</trkpt>
<trkpt lat="40.0713749" lon="-105.229789">
  <ele>1583.0</ele>
  <time>2026-08-28T17:56:39Z</time>
  <course>246.69</course>
  <speed>0.0</speed>
  <fix>3d</fix>
</trkpt>
<trkpt lat="40.0713749" lon="-105.229789">
  <ele>1583.0</ele>
  <time>2026-08-28T17:56:39Z</time>
  <course>0.0</course>
  <speed>0.0</speed>
  <fix>3d</fix>
</trkpt>
<trkpt lat="40.0713749" lon="-105.229789">
  <ele>1583.0</ele>
  <time>2026-08-28T17:56:39Z</time>
  <course>246.78</course>
  <speed>0.0</speed>
  <fix>3d</fix>
</trkpt>
<trkpt lat="40.0713749" lon="-105.229789">
  <ele>1583.0</ele>
  <time>2026-08-28T17:56:39Z</time>
  <course>0.0</course>
  <speed>0.0</speed>
  <fix>3d</fix>
</trkpt>
<trkpt lat="40.0713749" lon="-105.229789">
  <ele>1583.0</ele>
  <time>2026-08-28T17:56:39Z</time>
  <course>246.86</course>
  <speed>0.0</speed>
  <fix>3d</fix>
</trkpt>
<trkpt lat="40.0713749" lon="-105.229789">
  <ele>1583.0</ele>
  <time>2026-08-28T17:56:39Z</time>
  <course>0.0</course>
  <speed>0.0</speed>
  <fix>3d</fix>
</trkpt>
<trkpt lat="40.0713749" lon="-105.229789">
  <ele>1583.0</ele>
  <time>2026-08-28T17:56:39Z</time>
  <course>246.95</course>
  <speed>0.0</speed>
  <fix>3d</fix>
</trkpt>
<trkpt lat="40.0713749" lon="-105.229789">
  <ele>1583.0</ele>
  <time>2026-08-28T17:56:39Z</time>
  <course>0.0</course>
  <speed>0.0</speed>
  <fix>3d</fix>
</trkpt>
<trkpt lat="40.0713749" lon="-105.229789">
  <ele>1583.0</ele>
  <time>2026-08-28T17:56:39Z</time>
  <course>247.02</course>
  <speed>0.0</speed>
  <fix>3d</fix>
</trkpt>
<trkpt lat="40.0713749" lon="-105.229789">
  <ele>1583.0</ele>
  <time>2026-08-28T17:56:39Z</time>
  <course>0.0</course>
  <speed>0.0</speed>
  <fix>3d</fix>
</trkpt>
<trkpt lat="40.0713749" lon="-105.229789">
  <ele>1583.0</ele>
  <time>2026-08-28T17:56:39Z</time>
  <course>247.1</course>
  <speed>0.0</speed>
  <fix>3d</fix>
</trkpt>
<trkpt lat="40.0713749" lon="-105.229789">
  <ele>1583.0</ele>
  <time>2026-08-28T17:56:39Z</time>
  <course>0.0</course>
  <speed>0.0</speed>
  <fix>3d</fix>
</trkpt>
<trkpt lat="40.0713749" lon="-105.229789">
  <ele>1583.0</ele>
  <time>2026-08-28T17:56:39Z</time>
  <course>247.17</course>
  <speed>0.0</speed>
  <fix>3d</fix>
</trkpt>
<trkpt lat="40.0713749" lon="-105.229789">
  <ele>1583.0</ele>
  <time>2026-08-28T17:56:39Z</time>
  <course>0.0</course>
  <speed>0.0</speed>
  <fix>3d</fix>
</trkpt>
<trkpt lat="40.0713749" lon="-105.229789">
  <ele>1583.0</ele>
  <time>2026-08-28T17:56:39Z</time>
  <course>247.23</course>
  <speed>0.0</speed>
  <fix>3d</fix>
</trkpt>
<trkpt lat="40.0713749" lon="-105.229789">
  <ele>1583.0</ele>
  <time>2026-08-28T17:56:39Z</time>
  <course>0.0</course>
  <speed>0.0</speed>
  <fix>3d</fix>
</trkpt>
<trkpt lat="40.0713749" lon="-105.229789">
  <ele>1583.0</ele>
  <time>2026-08-28T17:56:39Z</time>
  <course>247.3</course>
  <speed>0.0</speed>
  <fix>3d</fix>
</trkpt>
<trkpt lat="40.0713749" lon="-105.229789">
  <ele>1583.0</ele>
  <time>2026-08-28T17:56:39Z</time>
  <course>0.0</course>
  <speed>0.0</speed>
  <fix>3d</fix>
</trkpt>
<trkpt lat="40.0713749" lon="-105.229789">
  <ele>1583.0</ele>
  <time>2026-08-28T17:56:39Z</time>
  <course>247.36</course>
  <speed>0.0</speed>
  <fix>3d</fix>
</trkpt>
<trkpt lat="40.0713749" lon="-105.229789">
  <ele>1583.0</ele>
  <time>2026-08-28T17:56:39Z</time>
  <course>0.0</course>
  <speed>0.0</speed>
  <fix>3d</fix>
</trkpt>
<trkpt lat="40.0713749" lon="-105.229789">
  <ele>1583.0</ele>
  <time>2026-08-28T17:56:39Z</time>
  <course>247.42</course>
  <speed>0.0</speed>
  <fix>3d</fix>
</trkpt>
<trkpt lat="40.0713749" lon="-105.229789">
  <ele>1583.0</ele>
  <time>2026-08-28T17:56:39Z</time>
  <course>0.0</course>
  <speed>0.0</speed>
  <fix>3d</fix>
</trkpt>
<trkpt lat="40.0713749" lon="-105.229789">
  <ele>1583.0</ele>
  <time>2026-08-28T17:56:39Z</time>
  <course>247.47</course>
  <speed>0.0</speed>
  <fix>3d</fix>
</trkpt>
<trkpt lat="40.0713749" lon="-105.229789">
  <ele>1583.0</ele>
  <time>2026-08-28T17:56:39Z</time>
  <course>0.0</course>
  <speed>0.0</speed>
  <fix>3d</fix>
</trkpt>
<trkpt lat="40.0713749" lon="-105.229789">
  <ele>1583.0</ele>
  <time>2026-08-28T17:56:39Z</time>
  <course>247.52</course>
  <speed>0.0</speed>
  <fix>3d</fix>
</trkpt>
<trkpt lat="40.0713749" lon="-105.229789">
  <ele>1583.0</ele>
  <time>2026-08-28T17:56:39Z</time>
  <course>0.0</course>
  <speed>0.0</speed>
  <fix>3d</fix>
</trkpt>
<trkpt lat="40.0713749" lon="-105.229789">
  <ele>1583.0</ele>
  <time>2026-08-28T17:56:39Z</time>
  <course>247.57</course>
  <speed>0.0</speed>
  <fix>3d</fix>
</trkpt>
<trkpt lat="40.0713749" lon="-105.229789">
  <ele>1583.0</ele>
  <time>2026-08-28T17:56:39Z</time>
  <course>0.0</course>
  <speed>0.0</speed>
  <fix>3d</fix>
</trkpt>
<trkpt lat="40.0713749" lon="-105.229789">
  <ele>1583.0</ele>
  <time>2026-08-28T17:56:39Z</time>
  <course>247.62</course>
  <speed>0.0</speed>
  <fix>3d</fix>
</trkpt>
<trkpt lat="40.0713749" lon="-105.229789">
  <ele>1583.0</ele>
  <time>2026-08-28T17:56:39Z</time>
  <course>0.0</course>
  <speed>0.0</speed>
  <fix>3d</fix>
</trkpt>
<trkpt lat="40.0713749" lon="-105.229789">
  <ele>1583.0</ele>
  <time>2026-08-28T17:56:39Z</time>
  <course>247.67</course>
  <speed>0.0</speed>
  <fix>3d</fix>
</trkpt>
<trkpt lat="40.0713749" lon="-105.229789">
  <ele>1583.0</ele>
  <time>2026-08-28T17:56:39Z</time>
  <course>0.0</course>
  <speed>0.0</speed>
  <fix>3d</fix>
</trkpt>
<trkpt lat="40.0713749" lon="-105.229789">
  <ele>1583.0</ele>
  <time>2026-08-28T17:56:39Z</time>
  <course>247.71</course>
  <speed>0.0</speed>
  <fix>3d</fix>
</trkpt>
<trkpt lat="40.0713749" lon="-105.229789">
  <ele>1583.0</ele>
  <time>2026-08-28T17:56:39Z</time>
  <course>0.0</course>
  <speed>0.0</speed>
  <fix>3d</fix>
</trkpt>
<trkpt lat="40.0713749" lon="-105.229789">
  <ele>1583.0</ele>
  <time>2026-08-28T17:56:39Z</time>
  <course>247.75</course>
  <speed>0.0</speed>
  <fix>3d</fix>
</trkpt>
<trkpt lat="40.0713749" lon="-105.229789">
  <ele>1583.0</ele>
  <time>2026-08-28T17:56:39Z</time>
  <course>0.0</course>
  <speed>0.0</speed>
  <fix>3d</fix>
</trkpt>
<trkpt lat="40.0713749" lon="-105.229789">
  <ele>1583.0</ele>
  <time>2026-08-28T17:56:39Z</time>
  <course>247.79</course>
  <speed>0.0</speed>
  <fix>3d</fix>
</trkpt>
<trkpt lat="40.0713749" lon="-105.229789">
  <ele>1583.0</ele>
  <time>2026-08-28T17:56:39Z</time>
  <course>0.0</course>
  <speed>0.0</speed>
  <fix>3d</fix>
</trkpt>
<trkpt lat="40.0713749" lon="-105.229789">
  <ele>1583.0</ele>
  <time>2026-08-28T17:56:39Z</time>
  <course>247.83</course>
  <speed>0.0</speed>
  <fix>3d</fix>
</trkpt>
<trkpt lat="40.0713749" lon="-105.229789">
  <ele>1583.0</ele>
  <time>2026-08-28T17:56:39Z</time>
  <course>0.0</course>
  <speed>0.0</speed>
  <fix>3d</fix>
</trkpt>
<trkpt lat="40.0713749" lon="-105.229789">
  <ele>1583.0</ele>
  <time>2026-08-28T17:56:39Z</time>
  <course>247.87</course>
  <speed>0.0</speed>
  <fix>3d</fix>
</trkpt>
<trkpt lat="40.0713749" lon="-105.229789">
  <ele>1583.0</ele>
  <time>2026-08-28T17:56:39Z</time>
  <course>0.0</course>
  <speed>0.0</speed>
  <fix>3d</fix>
</trkpt>
<trkpt lat="40.0713749" lon="-105.229789">
  <ele>1583.0</ele>
  <time>2026-08-28T17:56:39Z</time>
  <course>247.9</course>
  <speed>0.0</speed>
  <fix>3d</fix>
</trkpt>
<trkpt lat="40.0713749" lon="-105.229789">
  <ele>1583.0</ele>
  <time>2026-08-28T17:56:39Z</time>
  <course>0.0</course>
  <speed>0.0</speed>
  <fix>3d</fix>
</trkpt>
<trkpt lat="40.0713749" lon="-105.229789">
  <ele>1583.0</ele>
  <time>2026-08-28T17:56:39Z</time>
  <course>247.93</course>
  <speed>0.0</speed>
  <fix>3d</fix>
</trkpt>
<trkpt lat="40.0713749" lon="-105.229789">
  <ele>1583.0</ele>
  <time>2026-08-28T17:56:39Z</time>
  <course>0.0</course>
  <speed>0.0</speed>
  <fix>3d</fix>
</trkpt>
<trkpt lat="40.0713749" lon="-105.229789">
  <ele>1583.0</ele>
  <time>2026-08-28T17:56:39Z</time>
  <course>247.96</course>
  <speed>0.0</speed>
  <fix>3d</fix>
</trkpt>
<trkpt lat="40.0713749" lon="-105.229789">
  <ele>1583.0</ele>
  <time>2026-08-28T17:56:39Z</time>
  <course>0.0</course>
  <speed>0.0</speed>
  <fix>3d</fix>
</trkpt>
<trkpt lat="40.0713749" lon="-105.229789">
  <ele>1583.0</ele>
  <time>2026-08-28T17:56:39Z</time>
  <course>247.99</course>
  <speed>0.0</speed>
  <fix>3d</fix>
</trkpt>
<trkpt lat="40.0713749" lon="-105.229789">
  <ele>1583.0</ele>
  <time>2026-08-28T17:56:39Z</time>
  <course>0.0</course>
  <speed>0.0</speed>
  <fix>3d</fix>
</trkpt>
<trkpt lat="40.0713749" lon="-105.229789">
  <ele>1583.0</ele>
  <time>2026-08-28T17:56:39Z</time>
  <course>248.02</course>
  <speed>0.0</speed>
  <fix>3d</fix>
</trkpt>
<trkpt lat="40.0713749" lon="-105.229789">
  <ele>1583.0</ele>
  <time>2026-08-28T17:56:39Z</time>
  <course>0.0</course>
  <speed>0.0</speed>
  <fix>3d</fix>
</trkpt>
<trkpt lat="40.0713749" lon="-105.229789">
  <ele>1583.0</ele>
  <time>2026-08-28T17:56:39Z</time>
  <course>248.05</course>
  <speed>0.0</speed>
  <fix>3d</fix>
</trkpt>
<trkpt lat="40.0713749" lon="-105.229789">
  <ele>1583.0</ele>
  <time>2026-08-28T17:56:39Z</time>
  <course>0.0</course>
  <speed>0.0</speed>
  <fix>3d</fix>
</trkpt>
<trkpt lat="40.0713749" lon="-105.229789">
  <ele>1583.0</ele>
  <time>2026-08-28T17:56:39Z</time>
  <course>248.07</course>
  <speed>0.0</speed>
  <fix>3d</fix>
</trkpt>
<trkpt lat="40.0713749" lon="-105.229789">
  <ele>1583.0</ele>
  <time>2026-08-28T17:56:39Z</time>
  <course>0.0</course>
  <speed>0.0</speed>
  <fix>3d</fix>
</trkpt>
<trkpt lat="40.0713749" lon="-105.229789">
  <ele>1583.0</ele>
  <time>2026-08-28T17:56:39Z</time>
  <course>248.1</course>
  <speed>0.0</speed>
  <fix>3d</fix>
</trkpt>
<trkpt lat="40.0713749" lon="-105.229789">
  <ele>1583.0</ele>
  <time>2026-08-28T17:56:39Z</time>
  <course>0.0</course>
  <speed>0.0</speed>
  <fix>3d</fix>
</trkpt>
<trkpt lat="40.0713749" lon="-105.229789">
  <ele>1583.0</ele>
  <time>2026-08-28T17:56:39Z</time>
  <course>248.12</course>
  <speed>0.0</speed>
  <fix>3d</fix>
</trkpt>
<trkpt lat="40.0713749" lon="-105.229789">
  <ele>1583.0</ele>
  <time>2026-08-28T17:56:39Z</time>
  <course>0.0</course>
  <speed>0.0</speed>
  <fix>3d</fix>
</trkpt>
<trkpt lat="40.0713749" lon="-105.229789">
  <ele>1583.0</ele>
  <time>2026-08-28T17:56:39Z</time>
  <course>248.14</course>
  <speed>0.0</speed>
  <fix>3d</fix>
</trkpt>
<trkpt lat="40.0713749" lon="-105.229789">
  <ele>1583.0</ele>
  <time>2026-08-28T17:56:39Z</time>
  <course>0.0</course>
  <speed>0.0</speed>
  <fix>3d</fix>
</trkpt>
<trkpt lat="40.0713749" lon="-105.229789">
  <ele>1583.0</ele>
  <time>2026-08-28T17:56:39Z</time>
  <course>248.16</course>
  <speed>0.0</speed>
  <fix>3d</fix>
</trkpt>
<trkpt lat="40.0713749" lon="-105.229789">
  <ele>1583.0</ele>
  <time>2026-08-28T17:56:39Z</time>
  <course>0.0</course>
  <speed>0.0</speed>
  <fix>3d</fix>
</trkpt>
<trkpt lat="40.0713749" lon="-105.229789">
  <ele>1583.0</ele>
  <time>2026-08-28T17:56:39Z</time>
  <course>248.18</course>
  <speed>0.0</speed>
  <fix>3d</fix>
</trkpt>
<trkpt lat="40.0713749" lon="-105.229789">
  <ele>1583.0</ele>
  <time>2026-08-28T17:56:39Z</time>
  <course>0.0</course>
  <speed>0.0</speed>
  <fix>3d</fix>
</trkpt>
<trkpt lat="40.0713749" lon="-105.229789">
  <ele>1583.0</ele>
  <time>2026-08-28T17:56:39Z</time>
  <course>248.2</course>
  <speed>0.0</speed>
  <fix>3d</fix>
</trkpt>
<trkpt lat="40.0713749" lon="-105.229789">
  <ele>1583.0</ele>
  <time>2026-08-28T17:56:39Z</time>
  <course>0.0</course>
  <speed>0.0</speed>
  <fix>3d</fix>
</trkpt>
<trkpt lat="40.0713749" lon="-105.229789">
  <ele>1583.0</ele>
  <time>2026-08-28T17:56:39Z</time>
  <course>248.21</course>
  <speed>0.0</speed>
  <fix>3d</fix>
</trkpt>
<trkpt lat="40.0713749" lon="-105.229789">
  <ele>1583.0</ele>
  <time>2026-08-28T17:56:39Z</time>
  <course>0.0</course>
  <speed>0.0</speed>
  <fix>3d</fix>
</trkpt>
<trkpt lat="40.0713749" lon="-105.229789">
  <ele>1583.0</ele>
  <time>2026-08-28T17:56:39Z</time>
  <course>248.23</course>
  <speed>0.0</speed>
  <fix>3d</fix>
</trkpt>
<trkpt lat="40.0713749" lon="-105.229789">
  <ele>1583.0</ele>
  <time>2026-08-28T17:56:39Z</time>
  <course>0.0</course>
  <speed>0.0</speed>
  <fix>3d</fix>
</trkpt>
<trkpt lat="40.0713749" lon="-105.229789">
  <ele>1583.0</ele>
  <time>2026-08-28T17:56:39Z</time>
  <course>248.24</course>
  <speed>0.0</speed>
  <fix>3d</fix>
</trkpt>
<trkpt lat="40.0713749" lon="-105.229789">
  <ele>1583.0</ele>
  <time>2026-08-28T17:56:39Z</time>
  <course>0.0</course>
  <speed>0.0</speed>
  <fix>3d</fix>
</trkpt>
<trkpt lat="40.0713749" lon="-105.229789">
  <ele>1583.0</ele>
  <time>2026-08-28T17:56:39Z</time>
  <course>248.26</course>
  <speed>0.0</speed>
  <fix>3d</fix>
</trkpt>
<trkpt lat="40.0713749" lon="-105.229789">
  <ele>1583.0</ele>
  <time>2026-08-28T17:56:39Z</time>
  <course>0.0</course>
  <speed>0.0</speed>
  <fix>3d</fix>
</trkpt>
<trkpt lat="40.0713749" lon="-105.229789">
  <ele>1583.0</ele>
  <time>2026-08-28T17:56:39Z</time>
  <course>248.27</course>
  <speed>0.0</speed>
  <fix>3d</fix>
</trkpt>
<trkpt lat="40.0713749" lon="-105.229789">
  <ele>1583.0</ele>
  <time>2026-08-28T17:56:39Z</time>
  <course>0.0</course>
  <speed>0.0</speed>
  <fix>3d</fix>
</trkpt>
<trkpt lat="40.0713749" lon="-105.229789">
  <ele>1583.0</ele>
  <time>2026-08-28T17:56:39Z</time>
  <course>248.28</course>
  <speed>0.0</speed>
  <fix>3d</fix>
</trkpt>
<trkpt lat="40.0713749" lon="-105.229789">
  <ele>1583.0</ele>
  <time>2026-08-28T17:56:39Z</time>
  <course>0.0</course>
  <speed>0.0</speed>
  <fix>3d</fix>
</trkpt>
<trkpt lat="40.0713749" lon="-105.229789">
  <ele>1583.0</ele>
  <time>2026-08-28T17:56:39Z</time>
  <course>248.29</course>
  <speed>0.0</speed>
  <fix>3d</fix>
</trkpt>
<trkpt lat="40.0713749" lon="-105.229789">
  <ele>1583.0</ele>
  <time>2026-08-28T17:56:39Z</time>
  <course>0.0</course>
  <speed>0.0</speed>
  <fix>3d</fix>
</trkpt>
<trkpt lat="40.0713749" lon="-105.229789">
  <ele>1583.0</ele>
  <time>2026-08-28T17:56:39Z</time>
  <course>248.3</course>
  <speed>0.0</speed>
  <fix>3d</fix>
</trkpt>
<trkpt lat="40.0713749" lon="-105.229789">
  <ele>1583.0</ele>
  <time>2026-08-28T17:56:39Z</time>
  <course>0.0</course>
  <speed>0.0</speed>
  <fix>3d</fix>
</trkpt>
<trkpt lat="40.0713749" lon="-105.229789">
  <ele>1583.0</ele>
  <time>2026-08-28T17:56:39Z</time>
  <course>248.31</course>
  <speed>0.0</speed>
  <fix>3d</fix>
</trkpt>
<trkpt lat="40.0713749" lon="-105.229789">
  <ele>1583.0</ele>
  <time>2026-08-28T17:56:39Z</time>
  <course>0.0</course>
  <speed>0.0</speed>
  <fix>3d</fix>
</trkpt>
<trkpt lat="40.0713749" lon="-105.229789">
  <ele>1583.0</ele>
  <time>2026-08-28T17:56:39Z</time>
  <course>248.32</course>
  <speed>0.0</speed>
  <fix>3d</fix>
</trkpt>
<trkpt lat="40.0713749" lon="-105.229789">
  <ele>1583.0</ele>
  <time>2026-08-28T17:56:39Z</time>
  <course>0.0</course>
  <speed>0.0</speed>
  <fix>3d</fix>
</trkpt>
<trkpt lat="40.0713749" lon="-105.229789">
  <ele>1583.0</ele>
  <time>2026-08-28T17:56:39Z</time>
  <course>248.33</course>
  <speed>0.0</speed>
  <fix>3d</fix>
</trkpt>
<trkpt lat="40.0713749" lon="-105.229789">
  <ele>1583.0</ele>
  <time>2026-08-28T17:56:39Z</time>
  <course>0.0</course>
  <speed>0.0</speed>
  <fix>3d</fix>
</trkpt>
<trkpt lat="40.0713749" lon="-105.229789">
  <ele>1583.0</ele>
  <time>2026-08-28T17:56:39Z</time>
  <course>248.34</course>
  <speed>0.0</speed>
  <fix>3d</fix>
</trkpt>
<trkpt lat="40.0713749" lon="-105.229789">
  <ele>1583.0</ele>
  <time>2026-08-28T17:56:39Z</time>
  <course>0.0</course>
  <speed>0.0</speed>
  <fix>3d</fix>
</trkpt>
<trkpt lat="40.0713749" lon="-105.229789">
  <ele>1583.0</ele>
  <time>2026-08-28T17:56:40Z</time>
  <course>248.35</course>
  <speed>0.0</speed>
  <fix>3d</fix>
</trkpt>
<trkpt lat="40.0713749" lon="-105.229789">
  <ele>1583.0</ele>
  <time>2026-08-28T17:56:40Z</time>
  <course>0.0</course>
  <speed>0.0</speed>
  <fix>3d</fix>
</trkpt>
<trkpt lat="40.0713749" lon="-105.229789">
  <ele>1583.0</ele>
  <time>2026-08-28T17:56:40Z</time>
  <course>248.36</course>
  <speed>0.0</speed>
  <fix>3d</fix>
</trkpt>
<trkpt lat="40.0713749" lon="-105.229789">
  <ele>1583.0</ele>
  <time>2026-08-28T17:56:40Z</time>
  <course>0.0</course>
  <speed>0.0</speed>
  <fix>3d</fix>
</trkpt>
<trkpt lat="40.0713749" lon="-105.229789">
  <ele>1583.0</ele>
  <time>2026-08-28T17:56:40Z</time>
  <course>248.36</course>
  <speed>0.0</speed>
  <fix>3d</fix>
</trkpt>
<trkpt lat="40.0713749" lon="-105.229789">
  <ele>1583.0</ele>
  <time>2026-08-28T17:56:40Z</time>
  <course>0.0</course>
  <speed>0.0</speed>
  <fix>3d</fix>
</trkpt>
<trkpt lat="40.0713749" lon="-105.229789">
  <ele>1583.0</ele>
  <time>2026-08-28T17:56:40Z</time>
  <course>248.37</course>
  <speed>0.0</speed>
  <fix>3d</fix>
</trkpt>
<trkpt lat="40.0713749" lon="-105.229789">
  <ele>1583.0</ele>
  <time>2026-08-28T17:56:40Z</time>
  <course>0.0</course>
  <speed>0.0</speed>
  <fix>3d</fix>
</trkpt>
<trkpt lat="40.0713749" lon="-105.229789">
  <ele>1583.0</ele>
  <time>2026-08-28T17:56:40Z</time>
  <course>248.37</course>
  <speed>0.0</speed>
  <fix>3d</fix>
</trkpt>
<trkpt lat="40.0713749" lon="-105.229789">
  <ele>1583.0</ele>
  <time>2026-08-28T17:56:40Z</time>
  <course>0.0</course>
  <speed>0.0</speed>
  <fix>3d</fix>
</trkpt>
<trkpt lat="40.0713749" lon="-105.229789">
  <ele>1583.0</ele>
  <time>2026-08-28T17:56:40Z</time>
  <course>248.38</course>
  <speed>0.0</speed>
  <fix>3d</fix>
</trkpt>
<trkpt lat="40.0713749" lon="-105.229789">
  <ele>1583.0</ele>
  <time>2026-08-28T17:56:40Z</time>
  <course>0.0</course>
  <speed>0.0</speed>
  <fix>3d</fix>
</trkpt>
<trkpt lat="40.0713749" lon="-105.229789">
  <ele>1583.0</ele>
  <time>2026-08-28T17:56:40Z</time>
  <course>248.38</course>
  <speed>0.0</speed>
  <fix>3d</fix>
</trkpt>
<trkpt lat="40.0713749" lon="-105.229789">
  <ele>1583.0</ele>
  <time>2026-08-28T17:56:40Z</time>
  <course>0.0</course>
  <speed>0.0</speed>
  <fix>3d</fix>
</trkpt>
<trkpt lat="40.0713749" lon="-105.229789">
  <ele>1583.0</ele>
  <time>2026-08-28T17:56:40Z</time>
  <course>248.39</course>
  <speed>0.0</speed>
  <fix>3d</fix>
</trkpt>
<trkpt lat="40.0713749" lon="-105.229789">
  <ele>1583.0</ele>
  <time>2026-08-28T17:56:40Z</time>
  <course>0.0</course>
  <speed>0.0</speed>
  <fix>3d</fix>
</trkpt>
<trkpt lat="40.0713749" lon="-105.229789">
  <ele>1583.0</ele>
  <time>2026-08-28T17:56:40Z</time>
  <course>248.39</course>
  <speed>0.0</speed>
  <fix>3d</fix>
</trkpt>
<trkpt lat="40.0713749" lon="-105.229789">
  <ele>1583.0</ele>
  <time>2026-08-28T17:56:40Z</time>
  <course>0.0</course>
  <speed>0.0</speed>
  <fix>3d</fix>
</trkpt>
<trkpt lat="40.0713749" lon="-105.229789">
  <ele>1583.0</ele>
  <time>2026-08-28T17:56:40Z</time>
  <course>248.39</course>
  <speed>0.0</speed>
  <fix>3d</fix>
</trkpt>
<trkpt lat="40.0713749" lon="-105.229789">
  <ele>1583.0</ele>
  <time>2026-08-28T17:56:40Z</time>
  <course>0.0</course>
  <speed>0.0</speed>
  <fix>3d</fix>
</trkpt>
<trkpt lat="40.0713749" lon="-105.229789">
  <ele>1583.0</ele>
  <time>2026-08-28T17:56:40Z</time>
  <course>248.4</course>
  <speed>0.0</speed>
  <fix>3d</fix>
</trkpt>
<trkpt lat="40.0713749" lon="-105.229789">
  <ele>1583.0</ele>
  <time>2026-08-28T17:56:40Z</time>
  <course>0.0</course>
  <speed>0.0</speed>
  <fix>3d</fix>
</trkpt>
<trkpt lat="40.0713749" lon="-105.229789">
  <ele>1583.0</ele>
  <time>2026-08-28T17:56:40Z</time>
  <course>248.4</course>
  <speed>0.0</speed>
  <fix>3d</fix>
</trkpt>
<trkpt lat="40.0713749" lon="-105.229789">
  <ele>1583.0</ele>
  <time>2026-08-28T17:56:40Z</time>
  <course>0.0</course>
  <speed>0.0</speed>
  <fix>3d</fix>
</trkpt>
<trkpt lat="40.0713749" lon="-105.229789">
  <ele>1583.0</ele>
  <time>2026-08-28T17:56:40Z</time>
  <course>248.4</course>
  <speed>0.0</speed>
  <fix>3d</fix>
</trkpt>
<trkpt lat="40.0713749" lon="-105.229789">
  <ele>1583.0</ele>
  <time>2026-08-28T17:56:40Z</time>
  <course>0.0</course>
  <speed>0.0</speed>
  <fix>3d</fix>
</trkpt>
<trkpt lat="40.0713749" lon="-105.229789">
  <ele>1583.0</ele>
  <time>2026-08-28T17:56:40Z</time>
  <course>248.4</course>
  <speed>0.0</speed>
  <fix>3d</fix>
</trkpt>
<trkpt lat="40.0713749" lon="-105.229789">
  <ele>1583.0</ele>
  <time>2026-08-28T17:56:40Z</time>
  <course>0.0</course>
  <speed>0.0</speed>
  <fix>3d</fix>
</trkpt>
<trkpt lat="40.0713749" lon="-105.229789">
  <ele>1583.0</ele>
  <time>2026-08-28T17:56:40Z</time>
  <course>248.4</course>
  <speed>0.0</speed>
  <fix>3d</fix>
</trkpt>
<trkpt lat="40.0713749" lon="-105.229789">
  <ele>1583.0</ele>
  <time>2026-08-28T17:56:40Z</time>
  <course>0.0</course>
  <speed>0.0</speed>
  <fix>3d</fix>
</trkpt>
<trkpt lat="40.0713749" lon="-105.229789">
  <ele>1583.0</ele>
  <time>2026-08-28T17:56:40Z</time>
  <course>248.4</course>
  <speed>0.0</speed>
  <fix>3d</fix>
</trkpt>
<trkpt lat="40.0713749" lon="-105.229789">
  <ele>1583.0</ele>
  <time>2026-08-28T17:56:40Z</time>
  <course>0.0</course>
  <speed>0.0</speed>
  <fix>3d</fix>
</trkpt>
<trkpt lat="40.0713749" lon="-105.229789">
  <ele>1583.0</ele>
  <time>2026-08-28T17:56:40Z</time>
  <course>248.4</course>
  <speed>0.0</speed>
  <fix>3d</fix>
</trkpt>
<trkpt lat="40.0713749" lon="-105.229789">
  <ele>1583.0</ele>
  <time>2026-08-28T17:56:40Z</time>
  <course>0.0</course>
  <speed>0.0</speed>
  <fix>3d</fix>
</trkpt>
<trkpt lat="40.0713749" lon="-105.229789">
  <ele>1583.0</ele>
  <time>2026-08-28T17:56:40Z</time>
  <course>248.41</course>
  <speed>0.0</speed>
  <fix>3d</fix>
</trkpt>
<trkpt lat="40.0713749" lon="-105.229789">
  <ele>1583.0</ele>
  <time>2026-08-28T17:56:40Z</time>
  <course>0.0</course>
  <speed>0.0</speed>
  <fix>3d</fix>
</trkpt>
<trkpt lat="40.0713749" lon="-105.229789">
  <ele>1583.0</ele>
  <time>2026-08-28T17:56:40Z</time>
  <course>248.41</course>
  <speed>0.0</speed>
  <fix>3d</fix>
</trkpt>
<trkpt lat="40.0713749" lon="-105.229789">
  <ele>1583.0</ele>
  <time>2026-08-28T17:56:40Z</time>
  <course>0.0</course>
  <speed>0.0</speed>
  <fix>3d</fix>
</trkpt>
<trkpt lat="40.0713749" lon="-105.229789">
  <ele>1583.0</ele>
  <time>2026-08-28T17:56:40Z</time>
  <course>248.41</course>
  <speed>0.0</speed>
  <fix>3d</fix>
</trkpt>
<trkpt lat="40.0713749" lon="-105.229789">
  <ele>1583.0</ele>
  <time>2026-08-28T17:56:40Z</time>
  <course>0.0</course>
  <speed>0.0</speed>
  <fix>3d</fix>
</trkpt>
<trkpt lat="40.0713749" lon="-105.229789">
  <ele>1583.0</ele>
  <time>2026-08-28T17:56:40Z</time>
  <course>248.41</course>
  <speed>0.0</speed>
  <fix>3d</fix>
</trkpt>
<trkpt lat="40.0713749" lon="-105.229789">
  <ele>1583.0</ele>
  <time>2026-08-28T17:56:40Z</time>
  <course>0.0</course>
  <speed>0.0</speed>
  <fix>3d</fix>
</trkpt>
<trkpt lat="40.0713749" lon="-105.229789">
  <ele>1583.0</ele>
  <time>2026-08-28T17:56:40Z</time>
  <course>248.41</course>
  <speed>0.0</speed>
  <fix>3d</fix>
</trkpt>
<trkpt lat="40.0713749" lon="-105.229789">
  <ele>1583.0</ele>
  <time>2026-08-28T17:56:40Z</time>
  <course>0.0</course>
  <speed>0.0</speed>
  <fix>3d</fix>
</trkpt>
<trkpt lat="40.0713749" lon="-105.229789">
  <ele>1583.0</ele>
  <time>2026-08-28T17:56:40Z</time>
  <course>248.41</course>
  <speed>0.0</speed>
  <fix>3d</fix>
</trkpt>
<trkpt lat="40.0713749" lon="-105.229789">
  <ele>1583.0</ele>
  <time>2026-08-28T17:56:40Z</time>
  <course>0.0</course>
  <speed>0.0</speed>
  <fix>3d</fix>
</trkpt>
<trkpt lat="40.0713749" lon="-105.229789">
  <ele>1583.0</ele>
  <time>2026-08-28T17:56:40Z</time>
  <course>248.4</course>
  <speed>0.0</speed>
  <fix>3d</fix>
</trkpt>
<trkpt lat="40.0713749" lon="-105.229789">
  <ele>1583.0</ele>
  <time>2026-08-28T17:56:40Z</time>
  <course>0.0</course>
  <speed>0.0</speed>
  <fix>3d</fix>
</trkpt>
<trkpt lat="40.0713749" lon="-105.229789">
  <ele>1583.0</ele>
  <time>2026-08-28T17:56:40Z</time>
  <course>248.4</course>
  <speed>0.0</speed>
  <fix>3d</fix>
</trkpt>
<trkpt lat="40.0713749" lon="-105.229789">
  <ele>1583.0</ele>
  <time>2026-08-28T17:56:40Z</time>
  <course>0.0</course>
  <speed>0.0</speed>
  <fix>3d</fix>
</trkpt>
<trkpt lat="40.0713749" lon="-105.229789">
  <ele>1583.0</ele>
  <time>2026-08-28T17:56:40Z</time>
  <course>248.4</course>
  <speed>0.0</speed>
  <fix>3d</fix>
</trkpt>
<trkpt lat="40.0713749" lon="-105.229789">
  <ele>1583.0</ele>
  <time>2026-08-28T17:56:40Z</time>
  <course>0.0</course>
  <speed>0.0</speed>
  <fix>3d</fix>
</trkpt>
<trkpt lat="40.0713749" lon="-105.229789">
  <ele>1583.0</ele>
  <time>2026-08-28T17:56:40Z</time>
  <course>248.4</course>
  <speed>0.0</speed>
  <fix>3d</fix>
</trkpt>
<trkpt lat="40.0713749" lon="-105.229789">
  <ele>1583.0</ele>
  <time>2026-08-28T17:56:40Z</time>
  <course>0.0</course>
  <speed>0.0</speed>
  <fix>3d</fix>
</trkpt>
<trkpt lat="40.0713749" lon="-105.229789">
  <ele>1583.0</ele>
  <time>2026-08-28T17:56:40Z</time>
  <course>248.4</course>
  <speed>0.0</speed>
  <fix>3d</fix>
</trkpt>
<trkpt lat="40.0713749" lon="-105.229789">
  <ele>1583.0</ele>
  <time>2026-08-28T17:56:40Z</time>
  <course>0.0</course>
  <speed>0.0</speed>
  <fix>3d</fix>
</trkpt>
<trkpt lat="40.0713749" lon="-105.229789">
  <ele>1583.0</ele>
  <time>2026-08-28T17:56:40Z</time>
  <course>248.4</course>
  <speed>0.0</speed>
  <fix>3d</fix>
</trkpt>
<trkpt lat="40.0713749" lon="-105.229789">
  <ele>1583.0</ele>
  <time>2026-08-28T17:56:40Z</time>
  <course>0.0</course>
  <speed>0.0</speed>
  <fix>3d</fix>
</trkpt>
<trkpt lat="40.0713749" lon="-105.229789">
  <ele>1583.0</ele>
  <time>2026-08-28T17:56:40Z</time>
  <course>248.4</course>
  <speed>0.0</speed>
  <fix>3d</fix>
</trkpt>
<trkpt lat="40.0713749" lon="-105.229789">
  <ele>1583.0</ele>
  <time>2026-08-28T17:56:40Z</time>
  <course>0.0</course>
  <speed>0.0</speed>
  <fix>3d</fix>
</trkpt>
<trkpt lat="40.0713749" lon="-105.229789">
  <ele>1583.0</ele>
  <time>2026-08-28T17:56:40Z</time>
  <course>248.39</course>
  <speed>0.01</speed>
  <fix>3d</fix>
</trkpt>
<trkpt lat="40.0713749" lon="-105.229789">
  <ele>1583.0</ele>
  <time>2026-08-28T17:56:40Z</time>
  <course>0.0</course>
  <speed>0.0</speed>
  <fix>3d</fix>
</trkpt>
<trkpt lat="40.0713749" lon="-105.229789">
  <ele>1583.0</ele>
  <time>2026-08-28T17:56:40Z</time>
  <course>248.39</course>
  <speed>0.01</speed>
  <fix>3d</fix>
</trkpt>
<trkpt lat="40.0713749" lon="-105.229789">
  <ele>1583.0</ele>
  <time>2026-08-28T17:56:40Z</time>
  <course>0.0</course>
  <speed>0.0</speed>
  <fix>3d</fix>
</trkpt>
<trkpt lat="40.0713749" lon="-105.229789">
  <ele>1583.0</ele>
  <time>2026-08-28T17:56:40Z</time>
  <course>248.39</course>
  <speed>0.01</speed>
  <fix>3d</fix>
</trkpt>
<trkpt lat="40.0713749" lon="-105.229789">
  <ele>1583.0</ele>
  <time>2026-08-28T17:56:40Z</time>
  <course>0.0</course>
  <speed>0.0</speed>
  <fix>3d</fix>
</trkpt>
<trkpt lat="40.0713749" lon="-105.229789">
  <ele>1583.0</ele>
  <time>2026-08-28T17:56:40Z</time>
  <course>248.39</course>
  <speed>0.01</speed>
  <fix>3d</fix>
</trkpt>
<trkpt lat="40.0713749" lon="-105.229789">
  <ele>1583.0</ele>
  <time>2026-08-28T17:56:40Z</time>
  <course>0.0</course>
  <speed>0.0</speed>
  <fix>3d</fix>
</trkpt>
<trkpt lat="40.0713749" lon="-105.229789">
  <ele>1583.0</ele>
  <time>2026-08-28T17:56:40Z</time>
  <course>248.38</course>
  <speed>0.01</speed>
  <fix>3d</fix>
</trkpt>
<trkpt lat="40.0713749" lon="-105.229789">
  <ele>1583.0</ele>
  <time>2026-08-28T17:56:40Z</time>
  <course>0.0</course>
  <speed>0.0</speed>
  <fix>3d</fix>
</trkpt>
<trkpt lat="40.0713749" lon="-105.229789">
  <ele>1583.0</ele>
  <time>2026-08-28T17:56:40Z</time>
  <course>248.38</course>
  <speed>0.01</speed>
  <fix>3d</fix>
</trkpt>
<trkpt lat="40.0713749" lon="-105.229789">
  <ele>1583.0</ele>
  <time>2026-08-28T17:56:40Z</time>
  <course>0.0</course>
  <speed>0.0</speed>
  <fix>3d</fix>
</trkpt>
<trkpt lat="40.0713749" lon="-105.229789">
  <ele>1583.0</ele>
  <time>2026-08-28T17:56:40Z</time>
  <course>248.38</course>
  <speed>0.01</speed>
  <fix>3d</fix>
</trkpt>
<trkpt lat="40.0713749" lon="-105.229789">
  <ele>1583.0</ele>
  <time>2026-08-28T17:56:40Z</time>
  <course>0.0</course>
  <speed>0.0</speed>
  <fix>3d</fix>
</trkpt>
<trkpt lat="40.0713749" lon="-105.229789">
  <ele>1583.0</ele>
  <time>2026-08-28T17:56:40Z</time>
  <course>248.37</course>
  <speed>0.01</speed>
  <fix>3d</fix>
</trkpt>
<trkpt lat="40.0713749" lon="-105.229789">
  <ele>1583.0</ele>
  <time>2026-08-28T17:56:40Z</time>
  <course>0.0</course>
  <speed>0.0</speed>
  <fix>3d</fix>
</trkpt>
<trkpt lat="40.0713749" lon="-105.229789">
  <ele>1583.0</ele>
  <time>2026-08-28T17:56:40Z</time>
  <course>248.37</course>
  <speed>0.01</speed>
  <fix>3d</fix>
</trkpt>
<trkpt lat="40.0713749" lon="-105.229789">
  <ele>1583.0</ele>
  <time>2026-08-28T17:56:40Z</time>
  <course>0.0</course>
  <speed>0.0</speed>
  <fix>3d</fix>
</trkpt>
<trkpt lat="40.0713749" lon="-105.229789">
  <ele>1583.0</ele>
  <time>2026-08-28T17:56:40Z</time>
  <course>248.37</course>
  <speed>0.01</speed>
  <fix>3d</fix>
</trkpt>
<trkpt lat="40.0713749" lon="-105.229789">
  <ele>1583.0</ele>
  <time>2026-08-28T17:56:40Z</time>
  <course>0.0</course>
  <speed>0.0</speed>
  <fix>3d</fix>
</trkpt>
<trkpt lat="40.0713749" lon="-105.229789">
  <ele>1583.0</ele>
  <time>2026-08-28T17:56:40Z</time>
  <course>248.36</course>
  <speed>0.01</speed>
  <fix>3d</fix>
</trkpt>
<trkpt lat="40.0713749" lon="-105.229789">
  <ele>1583.0</ele>
  <time>2026-08-28T17:56:40Z</time>
  <course>0.0</course>
  <speed>0.0</speed>
  <fix>3d</fix>
</trkpt>
<trkpt lat="40.0713749" lon="-105.229789">
  <ele>1583.0</ele>
  <time>2026-08-28T17:56:40Z</time>
  <course>248.36</course>
  <speed>0.01</speed>
  <fix>3d</fix>
</trkpt>
<trkpt lat="40.0713749" lon="-105.229789">
  <ele>1583.0</ele>
  <time>2026-08-28T17:56:40Z</time>
  <course>0.0</course>
  <speed>0.0</speed>
  <fix>3d</fix>
</trkpt>
<trkpt lat="40.0713749" lon="-105.229789">
  <ele>1583.0</ele>
  <time>2026-08-28T17:56:40Z</time>
  <course>248.36</course>
  <speed>0.01</speed>
  <fix>3d</fix>
</trkpt>
<trkpt lat="40.0713749" lon="-105.229789">
  <ele>1583.0</ele>
  <time>2026-08-28T17:56:40Z</time>
  <course>0.0</course>
  <speed>0.0</speed>
  <fix>3d</fix>
</trkpt>
<trkpt lat="40.0713749" lon="-105.229789">
  <ele>1583.0</ele>
  <time>2026-08-28T17:56:40Z</time>
  <course>248.35</course>
  <speed>0.01</speed>
  <fix>3d</fix>
</trkpt>
<trkpt lat="40.0713749" lon="-105.229789">
  <ele>1583.0</ele>
  <time>2026-08-28T17:56:40Z</time>
  <course>0.0</course>
  <speed>0.0</speed>
  <fix>3d</fix>
</trkpt>
<trkpt lat="40.0713749" lon="-105.229789">
  <ele>1583.0</ele>
  <time>2026-08-28T17:56:40Z</time>
  <course>248.35</course>
  <speed>0.01</speed>
  <fix>3d</fix>
</trkpt>
<trkpt lat="40.0713749" lon="-105.229789">
  <ele>1583.0</ele>
  <time>2026-08-28T17:56:40Z</time>
  <course>0.0</course>
  <speed>0.0</speed>
  <fix>3d</fix>
</trkpt>
<trkpt lat="40.0713749" lon="-105.229789">
  <ele>1583.0</ele>
  <time>2026-08-28T17:56:40Z</time>
  <course>248.35</course>
  <speed>0.01</speed>
  <fix>3d</fix>
</trkpt>
<trkpt lat="40.0713749" lon="-105.229789">
  <ele>1583.0</ele>
  <time>2026-08-28T17:56:40Z</time>
  <course>0.0</course>
  <speed>0.0</speed>
  <fix>3d</fix>
</trkpt>
<trkpt lat="40.0713749" lon="-105.229789">
  <ele>1583.0</ele>
  <time>2026-08-28T17:56:40Z</time>
  <course>248.34</course>
  <speed>0.01</speed>
  <fix>3d</fix>
</trkpt>
<trkpt lat="40.0713749" lon="-105.229789">
  <ele>1583.0</ele>
  <time>2026-08-28T17:56:40Z</time>
  <course>0.0</course>
  <speed>0.0</speed>
  <fix>3d</fix>
</trkpt>
<trkpt lat="40.0713749" lon="-105.229789">
  <ele>1583.0</ele>
  <time>2026-08-28T17:56:40Z</time>
  <course>248.34</course>
  <speed>0.01</speed>
  <fix>3d</fix>
</trkpt>
<trkpt lat="40.0713749" lon="-105.229789">
  <ele>1583.0</ele>
  <time>2026-08-28T17:56:40Z</time>
  <course>0.0</course>
  <speed>0.0</speed>
  <fix>3d</fix>
</trkpt>
<trkpt lat="40.0713749" lon="-105.229789">
  <ele>1583.0</ele>
  <time>2026-08-28T17:56:40Z</time>
  <course>248.34</course>
  <speed>0.01</speed>
  <fix>3d</fix>
</trkpt>
<trkpt lat="40.0713749" lon="-105.229789">
  <ele>1583.0</ele>
  <time>2026-08-28T17:56:40Z</time>
  <course>0.0</course>
  <speed>0.0</speed>
  <fix>3d</fix>
</trkpt>
<trkpt lat="40.0713749" lon="-105.229789">
  <ele>1583.0</ele>
  <time>2026-08-28T17:56:40Z</time>
  <course>248.33</course>
  <speed>0.01</speed>
  <fix>3d</fix>
</trkpt>
<trkpt lat="40.0713749" lon="-105.229789">
  <ele>1583.0</ele>
  <time>2026-08-28T17:56:40Z</time>
  <course>0.0</course>
  <speed>0.0</speed>
  <fix>3d</fix>
</trkpt>
<trkpt lat="40.0713749" lon="-105.229789">
  <ele>1583.0</ele>
  <time>2026-08-28T17:56:40Z</time>
  <course>248.33</course>
  <speed>0.01</speed>
  <fix>3d</fix>
</trkpt>
<trkpt lat="40.0713749" lon="-105.229789">
  <ele>1583.0</ele>
  <time>2026-08-28T17:56:40Z</time>
  <course>0.0</course>
  <speed>0.0</speed>
  <fix>3d</fix>
</trkpt>
<trkpt lat="40.0713749" lon="-105.229789">
  <ele>1583.0</ele>
  <time>2026-08-28T17:56:40Z</time>
  <course>248.32</course>
  <speed>0.01</speed>
  <fix>3d</fix>
</trkpt>
<trkpt lat="40.0713749" lon="-105.229789">
  <ele>1583.0</ele>
  <time>2026-08-28T17:56:40Z</time>
  <course>0.0</course>
  <speed>0.0</speed>
  <fix>3d</fix>
</trkpt>
<trkpt lat="40.0713749" lon="-105.229789">
  <ele>1583.0</ele>
  <time>2026-08-28T17:56:40Z</time>
  <course>248.32</course>
  <speed>0.01</speed>
  <fix>3d</fix>
</trkpt>
<trkpt lat="40.0713749" lon="-105.229789">
  <ele>1583.0</ele>
  <time>2026-08-28T17:56:40Z</time>
  <course>0.0</course>
  <speed>0.0</speed>
  <fix>3d</fix>
</trkpt>
<trkpt lat="40.0713749" lon="-105.229789">
  <ele>1583.0</ele>
  <time>2026-08-28T17:56:40Z</time>
  <course>248.31</course>
  <speed>0.01</speed>
  <fix>3d</fix>
</trkpt>
<trkpt lat="40.0713749" lon="-105.229789">
  <ele>1583.0</ele>
  <time>2026-08-28T17:56:40Z</time>
  <course>0.0</course>
  <speed>0.0</speed>
  <fix>3d</fix>
</trkpt>
<trkpt lat="40.0713749" lon="-105.229789">
  <ele>1583.0</ele>
  <time>2026-08-28T17:56:40Z</time>
  <course>248.31</course>
  <speed>0.01</speed>
  <fix>3d</fix>
</trkpt>
<trkpt lat="40.0713749" lon="-105.229789">
  <ele>1583.0</ele>
  <time>2026-08-28T17:56:40Z</time>
  <course>0.0</course>
  <speed>0.0</speed>
  <fix>3d</fix>
</trkpt>
<trkpt lat="40.0713749" lon="-105.229789">
  <ele>1583.0</ele>
  <time>2026-08-28T17:56:40Z</time>
  <course>248.31</course>
  <speed>0.01</speed>
  <fix>3d</fix>
</trkpt>
<trkpt lat="40.0713749" lon="-105.229789">
  <ele>1583.0</ele>
  <time>2026-08-28T17:56:40Z</time>
  <course>0.0</course>
  <speed>0.0</speed>
  <fix>3d</fix>
</trkpt>
<trkpt lat="40.0713749" lon="-105.229789">
  <ele>1583.0</ele>
  <time>2026-08-28T17:56:40Z</time>
  <course>248.3</course>
  <speed>0.01</speed>
  <fix>3d</fix>
</trkpt>
<trkpt lat="40.0713749" lon="-105.229789">
  <ele>1583.0</ele>
  <time>2026-08-28T17:56:40Z</time>
  <course>0.0</course>
  <speed>0.0</speed>
  <fix>3d</fix>
</trkpt>
<trkpt lat="40.0713749" lon="-105.229789">
  <ele>1583.0</ele>
  <time>2026-08-28T17:56:40Z</time>
  <course>248.3</course>
  <speed>0.01</speed>
  <fix>3d</fix>
</trkpt>
<trkpt lat="40.0713749" lon="-105.229789">
  <ele>1583.0</ele>
  <time>2026-08-28T17:56:40Z</time>
  <course>0.0</course>
  <speed>0.0</speed>
  <fix>3d</fix>
</trkpt>
<trkpt lat="40.0713749" lon="-105.229789">
  <ele>1583.0</ele>
  <time>2026-08-28T17:56:40Z</time>
  <course>248.29</course>
  <speed>0.01</speed>
  <fix>3d</fix>
</trkpt>
<trkpt lat="40.0713749" lon="-105.229789">
  <ele>1583.0</ele>
  <time>2026-08-28T17:56:40Z</time>
  <course>0.0</course>
  <speed>0.0</speed>
  <fix>3d</fix>
</trkpt>
<trkpt lat="40.0713749" lon="-105.229789">
  <ele>1583.0</ele>
  <time>2026-08-28T17:56:40Z</time>
  <course>248.29</course>
  <speed>0.01</speed>
  <fix>3d</fix>
</trkpt>
<trkpt lat="40.0713749" lon="-105.229789">
  <ele>1583.0</ele>
  <time>2026-08-28T17:56:40Z</time>
  <course>0.0</course>
  <speed>0.0</speed>
  <fix>3d</fix>
</trkpt>
<trkpt lat="40.0713749" lon="-105.229789">
  <ele>1583.0</ele>
  <time>2026-08-28T17:56:40Z</time>
  <course>248.28</course>
  <speed>0.01</speed>
  <fix>3d</fix>
</trkpt>
<trkpt lat="40.0713749" lon="-105.229789">
  <ele>1583.0</ele>
  <time>2026-08-28T17:56:40Z</time>
  <course>0.0</course>
  <speed>0.0</speed>
  <fix>3d</fix>
</trkpt>
<trkpt lat="40.0713749" lon="-105.229789">
  <ele>1583.0</ele>
  <time>2026-08-28T17:56:40Z</time>
  <course>248.28</course>
  <speed>0.01</speed>
  <fix>3d</fix>
</trkpt>
<trkpt lat="40.0713749" lon="-105.229789">
  <ele>1583.0</ele>
  <time>2026-08-28T17:56:40Z</time>
  <course>0.0</course>
  <speed>0.0</speed>
  <fix>3d</fix>
</trkpt>
<trkpt lat="40.0713749" lon="-105.229789">
  <ele>1583.0</ele>
  <time>2026-08-28T17:56:40Z</time>
  <course>248.27</course>
  <speed>0.01</speed>
  <fix>3d</fix>
</trkpt>
<trkpt lat="40.0713749" lon="-105.229789">
  <ele>1583.0</ele>
  <time>2026-08-28T17:56:40Z</time>
  <course>0.0</course>
  <speed>0.0</speed>
  <fix>3d</fix>
</trkpt>
<trkpt lat="40.0713749" lon="-105.229789">
  <ele>1583.0</ele>
  <time>2026-08-28T17:56:40Z</time>
  <course>248.27</course>
  <speed>0.01</speed>
  <fix>3d</fix>
</trkpt>
<trkpt lat="40.0713749" lon="-105.229789">
  <ele>1583.0</ele>
  <time>2026-08-28T17:56:40Z</time>
  <course>0.0</course>
  <speed>0.0</speed>
  <fix>3d</fix>
</trkpt>
<trkpt lat="40.0713749" lon="-105.229789">
  <ele>1583.0</ele>
  <time>2026-08-28T17:56:40Z</time>
  <course>248.26</course>
  <speed>0.01</speed>
  <fix>3d</fix>
</trkpt>
<trkpt lat="40.0713749" lon="-105.229789">
  <ele>1583.0</ele>
  <time>2026-08-28T17:56:40Z</time>
  <course>0.0</course>
  <speed>0.0</speed>
  <fix>3d</fix>
</trkpt>
<trkpt lat="40.0713749" lon="-105.229789">
  <ele>1583.0</ele>
  <time>2026-08-28T17:56:40Z</time>
  <course>248.26</course>
  <speed>0.01</speed>
  <fix>3d</fix>
</trkpt>
<trkpt lat="40.0713749" lon="-105.229789">
  <ele>1583.0</ele>
  <time>2026-08-28T17:56:40Z</time>
  <course>0.0</course>
  <speed>0.0</speed>
  <fix>3d</fix>
</trkpt>
<trkpt lat="40.0713749" lon="-105.229789">
  <ele>1583.0</ele>
  <time>2026-08-28T17:56:40Z</time>
  <course>248.25</course>
  <speed>0.01</speed>
  <fix>3d</fix>
</trkpt>
<trkpt lat="40.0713749" lon="-105.229789">
  <ele>1583.0</ele>
  <time>2026-08-28T17:56:40Z</time>
  <course>0.0</course>
  <speed>0.0</speed>
  <fix>3d</fix>
</trkpt>
<trkpt lat="40.0713749" lon="-105.229789">
  <ele>1583.0</ele>
  <time>2026-08-28T17:56:40Z</time>
  <course>248.25</course>
  <speed>0.01</speed>
  <fix>3d</fix>
</trkpt>
<trkpt lat="40.0713749" lon="-105.229789">
  <ele>1583.0</ele>
  <time>2026-08-28T17:56:40Z</time>
  <course>0.0</course>
  <speed>0.0</speed>
  <fix>3d</fix>
</trkpt>
<trkpt lat="40.0713749" lon="-105.229789">
  <ele>1583.0</ele>
  <time>2026-08-28T17:56:40Z</time>
  <course>248.25</course>
  <speed>0.01</speed>
  <fix>3d</fix>
</trkpt>
<trkpt lat="40.0713749" lon="-105.229789">
  <ele>1583.0</ele>
  <time>2026-08-28T17:56:40Z</time>
  <course>0.0</course>
  <speed>0.0</speed>
  <fix>3d</fix>
</trkpt>
<trkpt lat="40.0713749" lon="-105.229789">
  <ele>1583.0</ele>
  <time>2026-08-28T17:56:40Z</time>
  <course>248.24</course>
  <speed>0.01</speed>
  <fix>3d</fix>
</trkpt>
<trkpt lat="40.0713749" lon="-105.229789">
  <ele>1583.0</ele>
  <time>2026-08-28T17:56:40Z</time>
  <course>0.0</course>
  <speed>0.0</speed>
  <fix>3d</fix>
</trkpt>
<trkpt lat="40.0713749" lon="-105.229789">
  <ele>1583.0</ele>
  <time>2026-08-28T17:56:40Z</time>
  <course>248.24</course>
  <speed>0.01</speed>
  <fix>3d</fix>
</trkpt>
<trkpt lat="40.0713749" lon="-105.229789">
  <ele>1583.0</ele>
  <time>2026-08-28T17:56:40Z</time>
  <course>0.0</course>
  <speed>0.0</speed>
  <fix>3d</fix>
</trkpt>
<trkpt lat="40.0713749" lon="-105.229789">
  <ele>1583.0</ele>
  <time>2026-08-28T17:56:40Z</time>
  <course>248.23</course>
  <speed>0.01</speed>
  <fix>3d</fix>
</trkpt>
<trkpt lat="40.0713749" lon="-105.229789">
  <ele>1583.0</ele>
  <time>2026-08-28T17:56:40Z</time>
  <course>0.0</course>
  <speed>0.0</speed>
  <fix>3d</fix>
</trkpt>
<trkpt lat="40.0713749" lon="-105.229789">
  <ele>1583.0</ele>
  <time>2026-08-28T17:56:40Z</time>
  <course>248.23</course>
  <speed>0.01</speed>
  <fix>3d</fix>
</trkpt>
<trkpt lat="40.0713749" lon="-105.229789">
  <ele>1583.0</ele>
  <time>2026-08-28T17:56:40Z</time>
  <course>0.0</course>
  <speed>0.0</speed>
  <fix>3d</fix>
</trkpt>
<trkpt lat="40.0713749" lon="-105.229789">
  <ele>1583.0</ele>
  <time>2026-08-28T17:56:40Z</time>
  <course>248.22</course>
  <speed>0.01</speed>
  <fix>3d</fix>
</trkpt>
<trkpt lat="40.0713749" lon="-105.229789">
  <ele>1583.0</ele>
  <time>2026-08-28T17:56:40Z</time>
  <course>0.0</course>
  <speed>0.0</speed>
  <fix>3d</fix>
</trkpt>
<trkpt lat="40.0713749" lon="-105.229789">
  <ele>1583.0</ele>
  <time>2026-08-28T17:56:40Z</time>
  <course>248.22</course>
  <speed>0.01</speed>
  <fix>3d</fix>
</trkpt>
<trkpt lat="40.0713749" lon="-105.229789">
  <ele>1583.0</ele>
  <time>2026-08-28T17:56:40Z</time>
  <course>0.0</course>
  <speed>0.0</speed>
  <fix>3d</fix>
</trkpt>
<trkpt lat="40.0713749" lon="-105.229789">
  <ele>1583.0</ele>
  <time>2026-08-28T17:56:40Z</time>
  <course>248.21</course>
  <speed>0.01</speed>
  <fix>3d</fix>
</trkpt>
<trkpt lat="40.0713749" lon="-105.229789">
  <ele>1583.0</ele>
  <time>2026-08-28T17:56:40Z</time>
  <course>0.0</course>
  <speed>0.0</speed>
  <fix>3d</fix>
</trkpt>
<trkpt lat="40.0713749" lon="-105.229789">
  <ele>1583.0</ele>
  <time>2026-08-28T17:56:40Z</time>
  <course>248.21</course>
  <speed>0.01</speed>
  <fix>3d</fix>
</trkpt>
<trkpt lat="40.0713749" lon="-105.229789">
  <ele>1583.0</ele>
  <time>2026-08-28T17:56:40Z</time>
  <course>0.0</course>
  <speed>0.0</speed>
  <fix>3d</fix>
</trkpt>
<trkpt lat="40.0713749" lon="-105.229789">
  <ele>1583.0</ele>
  <time>2026-08-28T17:56:40Z</time>
  <course>248.2</course>
  <speed>0.01</speed>
  <fix>3d</fix>
</trkpt>
<trkpt lat="40.0713749" lon="-105.229789">
  <ele>1583.0</ele>
  <time>2026-08-28T17:56:40Z</time>
  <course>0.0</course>
  <speed>0.0</speed>
  <fix>3d</fix>
</trkpt>
<trkpt lat="40.0713749" lon="-105.229789">
  <ele>1583.0</ele>
  <time>2026-08-28T17:56:40Z</time>
  <course>248.2</course>
  <speed>0.01</speed>
  <fix>3d</fix>
</trkpt>
<trkpt lat="40.0713749" lon="-105.229789">
  <ele>1583.0</ele>
  <time>2026-08-28T17:56:40Z</time>
  <course>0.0</course>
  <speed>0.0</speed>
  <fix>3d</fix>
</trkpt>
<trkpt lat="40.0713749" lon="-105.229789">
  <ele>1583.0</ele>
  <time>2026-08-28T17:56:40Z</time>
  <course>248.19</course>
  <speed>0.01</speed>
  <fix>3d</fix>
</trkpt>
<trkpt lat="40.0713749" lon="-105.229789">
  <ele>1583.0</ele>
  <time>2026-08-28T17:56:40Z</time>
  <course>0.0</course>
  <speed>0.0</speed>
  <fix>3d</fix>
</trkpt>
<trkpt lat="40.0713749" lon="-105.229789">
  <ele>1583.0</ele>
  <time>2026-08-28T17:56:40Z</time>
  <course>248.19</course>
  <speed>0.01</speed>
  <fix>3d</fix>
</trkpt>
<trkpt lat="40.0713749" lon="-105.229789">
  <ele>1583.0</ele>
  <time>2026-08-28T17:56:40Z</time>
  <course>0.0</course>
  <speed>0.0</speed>
  <fix>3d</fix>
</trkpt>
<trkpt lat="40.0713749" lon="-105.229789">
  <ele>1583.0</ele>
  <time>2026-08-28T17:56:40Z</time>
  <course>248.18</course>
  <speed>0.01</speed>
  <fix>3d</fix>
</trkpt>
<trkpt lat="40.0713749" lon="-105.229789">
  <ele>1583.0</ele>
  <time>2026-08-28T17:56:40Z</time>
  <course>0.0</course>
  <speed>0.0</speed>
  <fix>3d</fix>
</trkpt>
<trkpt lat="40.0713749" lon="-105.229789">
  <ele>1583.0</ele>
  <time>2026-08-28T17:56:40Z</time>
  <course>248.18</course>
  <speed>0.01</speed>
  <fix>3d</fix>
</trkpt>
<trkpt lat="40.0713749" lon="-105.229789">
  <ele>1583.0</ele>
  <time>2026-08-28T17:56:40Z</time>
  <course>0.0</course>
  <speed>0.0</speed>
  <fix>3d</fix>
</trkpt>
<trkpt lat="40.0713749" lon="-105.229789">
  <ele>1583.0</ele>
  <time>2026-08-28T17:56:40Z</time>
  <course>248.17</course>
  <speed>0.01</speed>
  <fix>3d</fix>
</trkpt>
<trkpt lat="40.0713749" lon="-105.229789">
  <ele>1583.0</ele>
  <time>2026-08-28T17:56:40Z</time>
  <course>0.0</course>
  <speed>0.0</speed>
  <fix>3d</fix>
</trkpt>
<trkpt lat="40.0713749" lon="-105.229789">
  <ele>1583.0</ele>
  <time>2026-08-28T17:56:40Z</time>
  <course>248.17</course>
  <speed>0.02</speed>
  <fix>3d</fix>
</trkpt>
<trkpt lat="40.0713749" lon="-105.229789">
  <ele>1583.0</ele>
  <time>2026-08-28T17:56:40Z</time>
  <course>0.0</course>
  <speed>0.0</speed>
  <fix>3d</fix>
</trkpt>
<trkpt lat="40.0713749" lon="-105.229789">
  <ele>1583.0</ele>
  <time>2026-08-28T17:56:40Z</time>
  <course>248.16</course>
  <speed>0.02</speed>
  <fix>3d</fix>
</trkpt>
<trkpt lat="40.0713749" lon="-105.229789">
  <ele>1583.0</ele>
  <time>2026-08-28T17:56:40Z</time>
  <course>0.0</course>
  <speed>0.0</speed>
  <fix>3d</fix>
</trkpt>
<trkpt lat="40.0713749" lon="-105.229789">
  <ele>1583.0</ele>
  <time>2026-08-28T17:56:40Z</time>
  <course>248.16</course>
  <speed>0.022360679774997897</speed>
  <fix>3d</fix>
</trkpt>
<trkpt lat="40.0713749" lon="-105.229789">
  <ele>1583.0</ele>
  <time>2026-08-28T17:56:40Z</time>
  <course>0.0</course>
  <speed>0.0</speed>
  <fix>3d</fix>
</trkpt>
<trkpt lat="40.0713749" lon="-105.229789">
  <ele>1583.0</ele>
  <time>2026-08-28T17:56:40Z</time>
  <course>248.15</course>
  <speed>0.022360679774997897</speed>
  <fix>3d</fix>
</trkpt>
<trkpt lat="40.0713749" lon="-105.229789">
  <ele>1583.0</ele>
  <time>2026-08-28T17:56:40Z</time>
  <course>0.0</course>
  <speed>0.0</speed>
  <fix>3d</fix>
</trkpt>
<trkpt lat="40.0713749" lon="-105.229789">
  <ele>1583.0</ele>
  <time>2026-08-28T17:56:40Z</time>
  <course>248.15</course>
  <speed>0.022360679774997897</speed>
  <fix>3d</fix>
</trkpt>
<trkpt lat="40.0713749" lon="-105.229789">
  <ele>1583.0</ele>
  <time>2026-08-28T17:56:40Z</time>
  <course>0.0</course>
  <speed>0.0</speed>
  <fix>3d</fix>
</trkpt>
<trkpt lat="40.0713749" lon="-105.229789">
  <ele>1583.0</ele>
  <time>2026-08-28T17:56:40Z</time>
  <course>248.14</course>
  <speed>0.022360679774997897</speed>
  <fix>3d</fix>
</trkpt>
<trkpt lat="40.0713749" lon="-105.229789">
  <ele>1583.0</ele>
  <time>2026-08-28T17:56:40Z</time>
  <course>0.0</course>
  <speed>0.0</speed>
  <fix>3d</fix>
</trkpt>
<trkpt lat="40.0713749" lon="-105.229789">
  <ele>1583.0</ele>
  <time>2026-08-28T17:56:40Z</time>
  <course>248.14</course>
  <speed>0.022360679774997897</speed>
  <fix>3d</fix>
</trkpt>
<trkpt lat="40.0713749" lon="-105.229789">
  <ele>1583.0</ele>
  <time>2026-08-28T17:56:40Z</time>
  <course>0.0</course>
  <speed>0.0</speed>
  <fix>3d</fix>
</trkpt>
<trkpt lat="40.0713749" lon="-105.229789">
  <ele>1583.0</ele>
  <time>2026-08-28T17:56:40Z</time>
  <course>248.13</course>
  <speed>0.022360679774997897</speed>
  <fix>3d</fix>
</trkpt>
<trkpt lat="40.0713749" lon="-105.229789">
  <ele>1583.0</ele>
  <time>2026-08-28T17:56:40Z</time>
  <course>0.0</course>
  <speed>0.0</speed>
  <fix>3d</fix>
</trkpt>
<trkpt lat="40.0713749" lon="-105.229789">
  <ele>1583.0</ele>
  <time>2026-08-28T17:56:40Z</time>
  <course>248.13</course>
  <speed>0.022360679774997897</speed>
  <fix>3d</fix>
</trkpt>
<trkpt lat="40.0713749" lon="-105.229789">
  <ele>1583.0</ele>
  <time>2026-08-28T17:56:40Z</time>
  <course>0.0</course>
  <speed>0.0</speed>
  <fix>3d</fix>
</trkpt>
<trkpt lat="40.0713749" lon="-105.229789">
  <ele>1583.0</ele>
  <time>2026-08-28T17:56:40Z</time>
  <course>248.12</course>
  <speed>0.022360679774997897</speed>
  <fix>3d</fix>
</trkpt>
<trkpt lat="40.0713749" lon="-105.229789">
  <ele>1583.0</ele>
  <time>2026-08-28T17:56:40Z</time>
  <course>0.0</course>
  <speed>0.0</speed>
  <fix>3d</fix>
</trkpt>
<trkpt lat="40.0713749" lon="-105.229789">
  <ele>1583.0</ele>
  <time>2026-08-28T17:56:40Z</time>
  <course>248.12</course>
  <speed>0.022360679774997897</speed>
  <fix>3d</fix>
</trkpt>
<trkpt lat="40.0713749" lon="-105.229789">
  <ele>1583.0</ele>
  <time>2026-08-28T17:56:40Z</time>
  <course>0.0</course>
  <speed>0.0</speed>
  <fix>3d</fix>
</trkpt>
<trkpt lat="40.0713749" lon="-105.229789">
  <ele>1583.0</ele>
  <time>2026-08-28T17:56:40Z</time>
  <course>248.11</course>
  <speed>0.022360679774997897</speed>
  <fix>3d</fix>
</trkpt>
<trkpt lat="40.0713749" lon="-105.229789">
  <ele>1583.0</ele>
  <time>2026-08-28T17:56:40Z</time>
  <course>0.0</course>
  <speed>0.0</speed>
  <fix>3d</fix>
</trkpt>
<trkpt lat="40.0713749" lon="-105.229789">
  <ele>1583.0</ele>
  <time>2026-08-28T17:56:40Z</time>
  <course>248.11</course>
  <speed>0.022360679774997897</speed>
  <fix>3d</fix>
</trkpt>
<trkpt lat="40.0713749" lon="-105.229789">
  <ele>1583.0</ele>
  <time>2026-08-28T17:56:40Z</time>
  <course>0.0</course>
  <speed>0.0</speed>
  <fix>3d</fix>
</trkpt>
<trkpt lat="40.0713749" lon="-105.229789">
  <ele>1583.0</ele>
  <time>2026-08-28T17:56:40Z</time>
  <course>248.1</course>
  <speed>0.022360679774997897</speed>
  <fix>3d</fix>
</trkpt>
<trkpt lat="40.0713749" lon="-105.229789">
  <ele>1583.0</ele>
  <time>2026-08-28T17:56:40Z</time>
  <course>0.0</course>
  <speed>0.0</speed>
  <fix>3d</fix>
</trkpt>
<trkpt lat="40.0713749" lon="-105.229789">
  <ele>1583.0</ele>
  <time>2026-08-28T17:56:40Z</time>
  <course>248.1</course>
  <speed>0.022360679774997897</speed>
  <fix>3d</fix>
</trkpt>
<trkpt lat="40.0713749" lon="-105.229789">
  <ele>1583.0</ele>
  <time>2026-08-28T17:56:40Z</time>
  <course>0.0</course>
  <speed>0.0</speed>
  <fix>3d</fix>
</trkpt>
<trkpt lat="40.0713749" lon="-105.229789">
  <ele>1583.0</ele>
  <time>2026-08-28T17:56:40Z</time>
  <course>248.09</course>
  <speed>0.022360679774997897</speed>
  <fix>3d</fix>
</trkpt>
<trkpt lat="40.0713749" lon="-105.229789">
  <ele>1583.0</ele>
  <time>2026-08-28T17:56:40Z</time>
  <course>0.0</course>
  <speed>0.0</speed>
  <fix>3d</fix>
</trkpt>
<trkpt lat="40.0713749" lon="-105.229789">
  <ele>1583.0</ele>
  <time>2026-08-28T17:56:40Z</time>
  <course>248.09</course>
  <speed>0.022360679774997897</speed>
  <fix>3d</fix>
</trkpt>
<trkpt lat="40.0713749" lon="-105.229789">
  <ele>1583.0</ele>
  <time>2026-08-28T17:56:40Z</time>
  <course>0.0</course>
  <speed>0.0</speed>
  <fix>3d</fix>
</trkpt>
<trkpt lat="40.0713749" lon="-105.229789">
  <ele>1583.0</ele>
  <time>2026-08-28T17:56:40Z</time>
  <course>248.08</course>
  <speed>0.022360679774997897</speed>
  <fix>3d</fix>
</trkpt>
<trkpt lat="40.0713749" lon="-105.229789">
  <ele>1583.0</ele>
  <time>2026-08-28T17:56:40Z</time>
  <course>0.0</course>
  <speed>0.0</speed>
  <fix>3d</fix>
</trkpt>
<trkpt lat="40.0713749" lon="-105.229789">
  <ele>1583.0</ele>
  <time>2026-08-28T17:56:40Z</time>
  <course>248.08</course>
  <speed>0.022360679774997897</speed>
  <fix>3d</fix>
</trkpt>
<trkpt lat="40.0713749" lon="-105.229789">
  <ele>1583.0</ele>
  <time>2026-08-28T17:56:40Z</time>
  <course>0.0</course>
  <speed>0.0</speed>
  <fix>3d</fix>
</trkpt>
<trkpt lat="40.0713749" lon="-105.229789">
  <ele>1583.0</ele>
  <time>2026-08-28T17:56:40Z</time>
  <course>248.07</course>
  <speed>0.022360679774997897</speed>
  <fix>3d</fix>
</trkpt>
<trkpt lat="40.0713749" lon="-105.229789">
  <ele>1583.0</ele>
  <time>2026-08-28T17:56:40Z</time>
  <course>0.0</course>
  <speed>0.0</speed>
  <fix>3d</fix>
</trkpt>
<trkpt lat="40.0713749" lon="-105.229789">
  <ele>1583.0</ele>
  <time>2026-08-28T17:56:40Z</time>
  <course>248.07</course>
  <speed>0.022360679774997897</speed>
  <fix>3d</fix>
</trkpt>
<trkpt lat="40.0713749" lon="-105.229789">
  <ele>1583.0</ele>
  <time>2026-08-28T17:56:40Z</time>
  <course>0.0</course>
  <speed>0.0</speed>
  <fix>3d</fix>
</trkpt>
<trkpt lat="40.0713749" lon="-105.229789">
  <ele>1583.0</ele>
  <time>2026-08-28T17:56:40Z</time>
  <course>248.06</course>
  <speed>0.022360679774997897</speed>
  <fix>3d</fix>
</trkpt>
<trkpt lat="40.0713749" lon="-105.229789">
  <ele>1583.0</ele>
  <time>2026-08-28T17:56:40Z</time>
  <course>0.0</course>
  <speed>0.0</speed>
  <fix>3d</fix>
</trkpt>
<trkpt lat="40.0713749" lon="-105.229789">
  <ele>1583.0</ele>
  <time>2026-08-28T17:56:40Z</time>
  <course>248.06</course>
  <speed>0.022360679774997897</speed>
  <fix>3d</fix>
</trkpt>
<trkpt lat="40.0713749" lon="-105.229789">
  <ele>1583.0</ele>
  <time>2026-08-28T17:56:40Z</time>
  <course>0.0</course>
  <speed>0.0</speed>
  <fix>3d</fix>
</trkpt>
<trkpt lat="40.0713749" lon="-105.229789">
  <ele>1583.0</ele>
  <time>2026-08-28T17:56:40Z</time>
  <course>248.06</course>
  <speed>0.022360679774997897</speed>
  <fix>3d</fix>
</trkpt>
<trkpt lat="40.0713749" lon="-105.229789">
  <ele>1583.0</ele>
  <time>2026-08-28T17:56:40Z</time>
  <course>0.0</course>
  <speed>0.0</speed>
  <fix>3d</fix>
</trkpt>
<trkpt lat="40.0713749" lon="-105.229789">
  <ele>1583.0</ele>
  <time>2026-08-28T17:56:40Z</time>
  <course>248.05</course>
  <speed>0.022360679774997897</speed>
  <fix>3d</fix>
</trkpt>
<trkpt lat="40.0713749" lon="-105.229789">
  <ele>1583.0</ele>
  <time>2026-08-28T17:56:40Z</time>
  <course>0.0</course>
  <speed>0.0</speed>
  <fix>3d</fix>
</trkpt>
<trkpt lat="40.0713749" lon="-105.229789">
  <ele>1583.0</ele>
  <time>2026-08-28T17:56:40Z</time>
  <course>248.05</course>
  <speed>0.022360679774997897</speed>
  <fix>3d</fix>
</trkpt>
<trkpt lat="40.0713749" lon="-105.229789">
  <ele>1583.0</ele>
  <time>2026-08-28T17:56:40Z</time>
  <course>0.0</course>
  <speed>0.0</speed>
  <fix>3d</fix>
</trkpt>
<trkpt lat="40.0713749" lon="-105.229789">
  <ele>1583.0</ele>
  <time>2026-08-28T17:56:40Z</time>
  <course>248.04</course>
  <speed>0.022360679774997897</speed>
  <fix>3d</fix>
</trkpt>
<trkpt lat="40.0713749" lon="-105.229789">
  <ele>1583.0</ele>
  <time>2026-08-28T17:56:40Z</time>
  <course>0.0</course>
  <speed>0.0</speed>
  <fix>3d</fix>
</trkpt>
<trkpt lat="40.0713749" lon="-105.229789">
  <ele>1583.0</ele>
  <time>2026-08-28T17:56:40Z</time>
  <course>248.04</course>
  <speed>0.022360679774997897</speed>
  <fix>3d</fix>
</trkpt>
<trkpt lat="40.0713749" lon="-105.229789">
  <ele>1583.0</ele>
  <time>2026-08-28T17:56:40Z</time>
  <course>0.0</course>
  <speed>0.0</speed>
  <fix>3d</fix>
</trkpt>
<trkpt lat="40.0713749" lon="-105.229789">
  <ele>1583.0</ele>
  <time>2026-08-28T17:56:40Z</time>
  <course>248.03</course>
  <speed>0.022360679774997897</speed>
  <fix>3d</fix>
</trkpt>
<trkpt lat="40.0713749" lon="-105.229789">
  <ele>1583.0</ele>
  <time>2026-08-28T17:56:40Z</time>
  <course>0.0</course>
  <speed>0.0</speed>
  <fix>3d</fix>
</trkpt>
<trkpt lat="40.0713749" lon="-105.229789">
  <ele>1583.0</ele>
  <time>2026-08-28T17:56:40Z</time>
  <course>248.03</course>
  <speed>0.022360679774997897</speed>
  <fix>3d</fix>
</trkpt>
<trkpt lat="40.0713749" lon="-105.229789">
  <ele>1583.0</ele>
  <time>2026-08-28T17:56:40Z</time>
  <course>0.0</course>
  <speed>0.0</speed>
  <fix>3d</fix>
</trkpt>
<trkpt lat="40.0713749" lon="-105.229789">
  <ele>1583.0</ele>
  <time>2026-08-28T17:56:40Z</time>
  <course>248.02</course>
  <speed>0.022360679774997897</speed>
  <fix>3d</fix>
</trkpt>
<trkpt lat="40.0713749" lon="-105.229789">
  <ele>1583.0</ele>
  <time>2026-08-28T17:56:40Z</time>
  <course>0.0</course>
  <speed>0.0</speed>
  <fix>3d</fix>
</trkpt>
<trkpt lat="40.0713749" lon="-105.229789">
  <ele>1583.0</ele>
  <time>2026-08-28T17:56:40Z</time>
  <course>248.02</course>
  <speed>0.022360679774997897</speed>
  <fix>3d</fix>
</trkpt>
<trkpt lat="40.0713749" lon="-105.229789">
  <ele>1583.0</ele>
  <time>2026-08-28T17:56:40Z</time>
  <course>0.0</course>
  <speed>0.0</speed>
  <fix>3d</fix>
</trkpt>
<trkpt lat="40.0713749" lon="-105.229789">
  <ele>1583.0</ele>
  <time>2026-08-28T17:56:40Z</time>
  <course>248.01</course>
  <speed>0.022360679774997897</speed>
  <fix>3d</fix>
</trkpt>
<trkpt lat="40.0713749" lon="-105.229789">
  <ele>1583.0</ele>
  <time>2026-08-28T17:56:40Z</time>
  <course>0.0</course>
  <speed>0.0</speed>
  <fix>3d</fix>
</trkpt>
<trkpt lat="40.0713749" lon="-105.229789">
  <ele>1583.0</ele>
  <time>2026-08-28T17:56:40Z</time>
  <course>248.01</course>
  <speed>0.022360679774997897</speed>
  <fix>3d</fix>
</trkpt>
<trkpt lat="40.0713749" lon="-105.229789">
  <ele>1583.0</ele>
  <time>2026-08-28T17:56:40Z</time>
  <course>0.0</course>
  <speed>0.0</speed>
  <fix>3d</fix>
</trkpt>
<trkpt lat="40.0713749" lon="-105.229789">
  <ele>1583.0</ele>
  <time>2026-08-28T17:56:40Z</time>
  <course>248.0</course>
  <speed>0.022360679774997897</speed>
  <fix>3d</fix>
</trkpt>
<trkpt lat="40.0713749" lon="-105.229789">
  <ele>1583.0</ele>
  <time>2026-08-28T17:56:40Z</time>
  <course>0.0</course>
  <speed>0.0</speed>
  <fix>3d</fix>
</trkpt>
<trkpt lat="40.0713749" lon="-105.229789">
  <ele>1583.0</ele>
  <time>2026-08-28T17:56:40Z</time>
  <course>248.0</course>
  <speed>0.022360679774997897</speed>
  <fix>3d</fix>
</trkpt>
<trkpt lat="40.0713749" lon="-105.229789">
  <ele>1583.0</ele>
  <time>2026-08-28T17:56:40Z</time>
  <course>0.0</course>
  <speed>0.0</speed>
  <fix>3d</fix>
</trkpt>
<trkpt lat="40.0713749" lon="-105.229789">
  <ele>1583.0</ele>
  <time>2026-08-28T17:56:40Z</time>
  <course>247.99</course>
  <speed>0.022360679774997897</speed>
  <fix>3d</fix>
</trkpt>
<trkpt lat="40.0713749" lon="-105.229789">
  <ele>1583.0</ele>
  <time>2026-08-28T17:56:40Z</time>
  <course>0.0</course>
  <speed>0.0</speed>
  <fix>3d</fix>
</trkpt>
<trkpt lat="40.0713749" lon="-105.229789">
  <ele>1583.0</ele>
  <time>2026-08-28T17:56:40Z</time>
  <course>247.99</course>
  <speed>0.022360679774997897</speed>
  <fix>3d</fix>
</trkpt>
<trkpt lat="40.0713749" lon="-105.229789">
  <ele>1583.0</ele>
  <time>2026-08-28T17:56:40Z</time>
  <course>0.0</course>
  <speed>0.0</speed>
  <fix>3d</fix>
</trkpt>
<trkpt lat="40.0713749" lon="-105.229789">
  <ele>1583.0</ele>
  <time>2026-08-28T17:56:40Z</time>
  <course>247.99</course>
  <speed>0.022360679774997897</speed>
  <fix>3d</fix>
</trkpt>
<trkpt lat="40.0713749" lon="-105.229789">
  <ele>1583.0</ele>
  <time>2026-08-28T17:56:40Z</time>
  <course>0.0</course>
  <speed>0.0</speed>
  <fix>3d</fix>
</trkpt>
<trkpt lat="40.0713749" lon="-105.229789">
  <ele>1583.0</ele>
  <time>2026-08-28T17:56:40Z</time>
  <course>247.98</course>
  <speed>0.022360679774997897</speed>
  <fix>3d</fix>
</trkpt>
<trkpt lat="40.0713749" lon="-105.229789">
  <ele>1583.0</ele>
  <time>2026-08-28T17:56:40Z</time>
  <course>0.0</course>
  <speed>0.0</speed>
  <fix>3d</fix>
</trkpt>
<trkpt lat="40.0713749" lon="-105.229789">
  <ele>1583.0</ele>
  <time>2026-08-28T17:56:40Z</time>
  <course>247.98</course>
  <speed>0.022360679774997897</speed>
  <fix>3d</fix>
</trkpt>
<trkpt lat="40.0713749" lon="-105.229789">
  <ele>1583.0</ele>
  <time>2026-08-28T17:56:40Z</time>
  <course>0.0</course>
  <speed>0.0</speed>
  <fix>3d</fix>
</trkpt>
<trkpt lat="40.0713749" lon="-105.229789">
  <ele>1583.0</ele>
  <time>2026-08-28T17:56:40Z</time>
  <course>247.97</course>
  <speed>0.022360679774997897</speed>
  <fix>3d</fix>
</trkpt>
<trkpt lat="40.0713749" lon="-105.229789">
  <ele>1583.0</ele>
  <time>2026-08-28T17:56:40Z</time>
  <course>0.0</course>
  <speed>0.0</speed>
  <fix>3d</fix>
</trkpt>
<trkpt lat="40.0713749" lon="-105.229789">
  <ele>1583.0</ele>
  <time>2026-08-28T17:56:40Z</time>
  <course>247.97</course>
  <speed>0.022360679774997897</speed>
  <fix>3d</fix>
</trkpt>
<trkpt lat="40.0713749" lon="-105.229789">
  <ele>1583.0</ele>
  <time>2026-08-28T17:56:40Z</time>
  <course>0.0</course>
  <speed>0.0</speed>
  <fix>3d</fix>
</trkpt>
<trkpt lat="40.0713749" lon="-105.229789">
  <ele>1583.0</ele>
  <time>2026-08-28T17:56:40Z</time>
  <course>247.96</course>
  <speed>0.022360679774997897</speed>
  <fix>3d</fix>
</trkpt>
<trkpt lat="40.0713749" lon="-105.229789">
  <ele>1583.0</ele>
  <time>2026-08-28T17:56:40Z</time>
  <course>0.0</course>
  <speed>0.0</speed>
  <fix>3d</fix>
</trkpt>
<trkpt lat="40.0713749" lon="-105.229789">
  <ele>1583.0</ele>
  <time>2026-08-28T17:56:40Z</time>
  <course>247.96</course>
  <speed>0.022360679774997897</speed>
  <fix>3d</fix>
</trkpt>
<trkpt lat="40.0713749" lon="-105.229789">
  <ele>1583.0</ele>
  <time>2026-08-28T17:56:40Z</time>
  <course>0.0</course>
  <speed>0.0</speed>
  <fix>3d</fix>
</trkpt>
<trkpt lat="40.0713749" lon="-105.229789">
  <ele>1583.0</ele>
  <time>2026-08-28T17:56:40Z</time>
  <course>247.95</course>
  <speed>0.022360679774997897</speed>
  <fix>3d</fix>
</trkpt>
<trkpt lat="40.0713749" lon="-105.229789">
  <ele>1583.0</ele>
  <time>2026-08-28T17:56:40Z</time>
  <course>0.0</course>
  <speed>0.0</speed>
  <fix>3d</fix>
</trkpt>
<trkpt lat="40.0713749" lon="-105.229789">
  <ele>1583.0</ele>
  <time>2026-08-28T17:56:40Z</time>
  <course>247.95</course>
  <speed>0.022360679774997897</speed>
  <fix>3d</fix>
</trkpt>
<trkpt lat="40.0713749" lon="-105.229789">
  <ele>1583.0</ele>
  <time>2026-08-28T17:56:40Z</time>
  <course>0.0</course>
  <speed>0.0</speed>
  <fix>3d</fix>
</trkpt>
<trkpt lat="40.0713749" lon="-105.229789">
  <ele>1583.0</ele>
  <time>2026-08-28T17:56:40Z</time>
  <course>247.95</course>
  <speed>0.022360679774997897</speed>
  <fix>3d</fix>
</trkpt>
<trkpt lat="40.0713749" lon="-105.229789">
  <ele>1583.0</ele>
  <time>2026-08-28T17:56:40Z</time>
  <course>0.0</course>
  <speed>0.0</speed>
  <fix>3d</fix>
</trkpt>
<trkpt lat="40.0713749" lon="-105.229789">
  <ele>1583.0</ele>
  <time>2026-08-28T17:56:40Z</time>
  <course>247.94</course>
  <speed>0.022360679774997897</speed>
  <fix>3d</fix>
</trkpt>
<trkpt lat="40.0713749" lon="-105.229789">
  <ele>1583.0</ele>
  <time>2026-08-28T17:56:40Z</time>
  <course>0.0</course>
  <speed>0.0</speed>
  <fix>3d</fix>
</trkpt>
<trkpt lat="40.0713749" lon="-105.229789">
  <ele>1583.0</ele>
  <time>2026-08-28T17:56:40Z</time>
  <course>247.94</course>
  <speed>0.022360679774997897</speed>
  <fix>3d</fix>
</trkpt>
<trkpt lat="40.0713749" lon="-105.229789">
  <ele>1583.0</ele>
  <time>2026-08-28T17:56:40Z</time>
  <course>0.0</course>
  <speed>0.0</speed>
  <fix>3d</fix>
</trkpt>
<trkpt lat="40.0713749" lon="-105.229789">
  <ele>1583.0</ele>
  <time>2026-08-28T17:56:40Z</time>
  <course>247.93</course>
  <speed>0.022360679774997897</speed>
  <fix>3d</fix>
</trkpt>
<trkpt lat="40.0713749" lon="-105.229789">
  <ele>1583.0</ele>
  <time>2026-08-28T17:56:40Z</time>
  <course>0.0</course>
  <speed>0.0</speed>
  <fix>3d</fix>
</trkpt>
<trkpt lat="40.0713749" lon="-105.229789">
  <ele>1583.0</ele>
  <time>2026-08-28T17:56:40Z</time>
  <course>247.93</course>
  <speed>0.022360679774997897</speed>
  <fix>3d</fix>
</trkpt>
<trkpt lat="40.0713749" lon="-105.229789">
  <ele>1583.0</ele>
  <time>2026-08-28T17:56:40Z</time>
  <course>0.0</course>
  <speed>0.0</speed>
  <fix>3d</fix>
</trkpt>
<trkpt lat="40.0713749" lon="-105.229789">
  <ele>1583.0</ele>
  <time>2026-08-28T17:56:40Z</time>
  <course>247.92</course>
  <speed>0.022360679774997897</speed>
  <fix>3d</fix>
</trkpt>
<trkpt lat="40.0713749" lon="-105.229789">
  <ele>1583.0</ele>
  <time>2026-08-28T17:56:40Z</time>
  <course>0.0</course>
  <speed>0.0</speed>
  <fix>3d</fix>
</trkpt>
<trkpt lat="40.0713749" lon="-105.229789">
  <ele>1583.0</ele>
  <time>2026-08-28T17:56:40Z</time>
  <course>247.92</course>
  <speed>0.022360679774997897</speed>
  <fix>3d</fix>
</trkpt>
<trkpt lat="40.0713749" lon="-105.229789">
  <ele>1583.0</ele>
  <time>2026-08-28T17:56:40Z</time>
  <course>0.0</course>
  <speed>0.0</speed>
  <fix>3d</fix>
</trkpt>
<trkpt lat="40.0713749" lon="-105.229789">
  <ele>1583.0</ele>
  <time>2026-08-28T17:56:40Z</time>
  <course>247.91</course>
  <speed>0.022360679774997897</speed>
  <fix>3d</fix>
</trkpt>
<trkpt lat="40.0713749" lon="-105.229789">
  <ele>1583.0</ele>
  <time>2026-08-28T17:56:40Z</time>
  <course>0.0</course>
  <speed>0.0</speed>
  <fix>3d</fix>
</trkpt>
<trkpt lat="40.0713749" lon="-105.229789">
  <ele>1583.0</ele>
  <time>2026-08-28T17:56:40Z</time>
  <course>247.91</course>
  <speed>0.022360679774997897</speed>
  <fix>3d</fix>
</trkpt>
<trkpt lat="40.0713749" lon="-105.229789">
  <ele>1583.0</ele>
  <time>2026-08-28T17:56:40Z</time>
  <course>0.0</course>
  <speed>0.0</speed>
  <fix>3d</fix>
</trkpt>
<trkpt lat="40.0713749" lon="-105.229789">
  <ele>1583.0</ele>
  <time>2026-08-28T17:56:40Z</time>
  <course>247.91</course>
  <speed>0.022360679774997897</speed>
  <fix>3d</fix>
</trkpt>
<trkpt lat="40.0713749" lon="-105.229789">
  <ele>1583.0</ele>
  <time>2026-08-28T17:56:40Z</time>
  <course>0.0</course>
  <speed>0.0</speed>
  <fix>3d</fix>
</trkpt>
<trkpt lat="40.0713749" lon="-105.229789">
  <ele>1583.0</ele>
  <time>2026-08-28T17:56:40Z</time>
  <course>247.9</course>
  <speed>0.022360679774997897</speed>
  <fix>3d</fix>
</trkpt>
<trkpt lat="40.0713749" lon="-105.229789">
  <ele>1583.0</ele>
  <time>2026-08-28T17:56:40Z</time>
  <course>0.0</course>
  <speed>0.0</speed>
  <fix>3d</fix>
</trkpt>
<trkpt lat="40.0713749" lon="-105.229789">
  <ele>1583.0</ele>
  <time>2026-08-28T17:56:40Z</time>
  <course>247.9</course>
  <speed>0.022360679774997897</speed>
  <fix>3d</fix>
</trkpt>
<trkpt lat="40.0713749" lon="-105.229789">
  <ele>1583.0</ele>
  <time>2026-08-28T17:56:40Z</time>
  <course>0.0</course>
  <speed>0.0</speed>
  <fix>3d</fix>
</trkpt>
<trkpt lat="40.0713749" lon="-105.229789">
  <ele>1583.0</ele>
  <time>2026-08-28T17:56:40Z</time>
  <course>247.89</course>
  <speed>0.022360679774997897</speed>
  <fix>3d</fix>
</trkpt>
<trkpt lat="40.0713749" lon="-105.229789">
  <ele>1583.0</ele>
  <time>2026-08-28T17:56:40Z</time>
  <course>0.0</course>
  <speed>0.0</speed>
  <fix>3d</fix>
</trkpt>
<trkpt lat="40.0713749" lon="-105.229789">
  <ele>1583.0</ele>
  <time>2026-08-28T17:56:40Z</time>
  <course>247.89</course>
  <speed>0.022360679774997897</speed>
  <fix>3d</fix>
</trkpt>
<trkpt lat="40.0713749" lon="-105.229789">
  <ele>1583.0</ele>
  <time>2026-08-28T17:56:40Z</time>
  <course>0.0</course>
  <speed>0.0</speed>
  <fix>3d</fix>
</trkpt>
<trkpt lat="40.0713749" lon="-105.229789">
  <ele>1583.0</ele>
  <time>2026-08-28T17:56:40Z</time>
  <course>247.89</course>
  <speed>0.022360679774997897</speed>
  <fix>3d</fix>
</trkpt>
<trkpt lat="40.0713749" lon="-105.229789">
  <ele>1583.0</ele>
  <time>2026-08-28T17:56:40Z</time>
  <course>0.0</course>
  <speed>0.0</speed>
  <fix>3d</fix>
</trkpt>
<trkpt lat="40.0713749" lon="-105.229789">
  <ele>1583.0</ele>
  <time>2026-08-28T17:56:40Z</time>
  <course>247.88</course>
  <speed>0.022360679774997897</speed>
  <fix>3d</fix>
</trkpt>
<trkpt lat="40.0713749" lon="-105.229789">
  <ele>1583.0</ele>
  <time>2026-08-28T17:56:40Z</time>
  <course>0.0</course>
  <speed>0.0</speed>
  <fix>3d</fix>
</trkpt>
<trkpt lat="40.0713749" lon="-105.229789">
  <ele>1583.0</ele>
  <time>2026-08-28T17:56:40Z</time>
  <course>247.88</course>
  <speed>0.0316227766016838</speed>
  <fix>3d</fix>
</trkpt>
<trkpt lat="40.0713749" lon="-105.229789">
  <ele>1583.0</ele>
  <time>2026-08-28T17:56:40Z</time>
  <course>0.0</course>
  <speed>0.0</speed>
  <fix>3d</fix>
</trkpt>
<trkpt lat="40.0713749" lon="-105.229789">
  <ele>1583.0</ele>
  <time>2026-08-28T17:56:40Z</time>
  <course>247.87</course>
  <speed>0.0316227766016838</speed>
  <fix>3d</fix>
</trkpt>
<trkpt lat="40.0713749" lon="-105.229789">
  <ele>1583.0</ele>
  <time>2026-08-28T17:56:40Z</time>
  <course>0.0</course>
  <speed>0.0</speed>
  <fix>3d</fix>
</trkpt>
<trkpt lat="40.0713749" lon="-105.229789">
  <ele>1583.0</ele>
  <time>2026-08-28T17:56:40Z</time>
  <course>247.87</course>
  <speed>0.0316227766016838</speed>
  <fix>3d</fix>
</trkpt>
<trkpt lat="40.0713749" lon="-105.229789">
  <ele>1583.0</ele>
  <time>2026-08-28T17:56:40Z</time>
  <course>0.0</course>
  <speed>0.0</speed>
  <fix>3d</fix>
</trkpt>
<trkpt lat="40.0713749" lon="-105.229789">
  <ele>1583.0</ele>
  <time>2026-08-28T17:56:40Z</time>
  <course>247.87</course>
  <speed>0.0316227766016838</speed>
  <fix>3d</fix>
</trkpt>
<trkpt lat="40.0713749" lon="-105.229789">
  <ele>1583.0</ele>
  <time>2026-08-28T17:56:40Z</time>
  <course>0.0</course>
  <speed>0.0</speed>
  <fix>3d</fix>
</trkpt>
<trkpt lat="40.0713749" lon="-105.229789">
  <ele>1583.0</ele>
  <time>2026-08-28T17:56:40Z</time>
  <course>247.86</course>
  <speed>0.0316227766016838</speed>
  <fix>3d</fix>
</trkpt>
<trkpt lat="40.0713749" lon="-105.229789">
  <ele>1583.0</ele>
  <time>2026-08-28T17:56:40Z</time>
  <course>0.0</course>
  <speed>0.0</speed>
  <fix>3d</fix>
</trkpt>
<trkpt lat="40.0713749" lon="-105.229789">
  <ele>1583.0</ele>
  <time>2026-08-28T17:56:40Z</time>
  <course>247.86</course>
  <speed>0.0316227766016838</speed>
  <fix>3d</fix>
</trkpt>
<trkpt lat="40.0713749" lon="-105.229789">
  <ele>1583.0</ele>
  <time>2026-08-28T17:56:40Z</time>
  <course>0.0</course>
  <speed>0.0</speed>
  <fix>3d</fix>
</trkpt>
<trkpt lat="40.0713749" lon="-105.229789">
  <ele>1583.0</ele>
  <time>2026-08-28T17:56:40Z</time>
  <course>247.85</course>
  <speed>0.0316227766016838</speed>
  <fix>3d</fix>
</trkpt>
<trkpt lat="40.0713749" lon="-105.229789">
  <ele>1583.0</ele>
  <time>2026-08-28T17:56:40Z</time>
  <course>0.0</course>
  <speed>0.0</speed>
  <fix>3d</fix>
</trkpt>
<trkpt lat="40.0713749" lon="-105.229789">
  <ele>1583.0</ele>
  <time>2026-08-28T17:56:40Z</time>
  <course>247.85</course>
  <speed>0.0316227766016838</speed>
  <fix>3d</fix>
</trkpt>
<trkpt lat="40.0713749" lon="-105.229789">
  <ele>1583.0</ele>
  <time>2026-08-28T17:56:40Z</time>
  <course>0.0</course>
  <speed>0.0</speed>
  <fix>3d</fix>
</trkpt>
<trkpt lat="40.0713749" lon="-105.229789">
  <ele>1583.0</ele>
  <time>2026-08-28T17:56:40Z</time>
  <course>247.84</course>
  <speed>0.0316227766016838</speed>
  <fix>3d</fix>
</trkpt>
<trkpt lat="40.0713749" lon="-105.229789">
  <ele>1583.0</ele>
  <time>2026-08-28T17:56:40Z</time>
  <course>0.0</course>
  <speed>0.0</speed>
  <fix>3d</fix>
</trkpt>
<trkpt lat="40.0713749" lon="-105.229789">
  <ele>1583.0</ele>
  <time>2026-08-28T17:56:40Z</time>
  <course>247.84</course>
  <speed>0.0316227766016838</speed>
  <fix>3d</fix>
</trkpt>
<trkpt lat="40.0713749" lon="-105.229789">
  <ele>1583.0</ele>
  <time>2026-08-28T17:56:40Z</time>
  <course>0.0</course>
  <speed>0.0</speed>
  <fix>3d</fix>
</trkpt>
<trkpt lat="40.0713749" lon="-105.229789">
  <ele>1583.0</ele>
  <time>2026-08-28T17:56:40Z</time>
  <course>247.84</course>
  <speed>0.0316227766016838</speed>
  <fix>3d</fix>
</trkpt>
<trkpt lat="40.0713749" lon="-105.229789">
  <ele>1583.0</ele>
  <time>2026-08-28T17:56:40Z</time>
  <course>0.0</course>
  <speed>0.0</speed>
  <fix>3d</fix>
</trkpt>
<trkpt lat="40.0713749" lon="-105.229789">
  <ele>1583.0</ele>
  <time>2026-08-28T17:56:40Z</time>
  <course>247.83</course>
  <speed>0.0316227766016838</speed>
  <fix>3d</fix>
</trkpt>
<trkpt lat="40.0713749" lon="-105.229789">
  <ele>1583.0</ele>
  <time>2026-08-28T17:56:40Z</time>
  <course>0.0</course>
  <speed>0.0</speed>
  <fix>3d</fix>
</trkpt>
<trkpt lat="40.0713749" lon="-105.229789">
  <ele>1583.0</ele>
  <time>2026-08-28T17:56:40Z</time>
  <course>247.83</course>
  <speed>0.0316227766016838</speed>
  <fix>3d</fix>
</trkpt>
<trkpt lat="40.0713749" lon="-105.229789">
  <ele>1583.0</ele>
  <time>2026-08-28T17:56:40Z</time>
  <course>0.0</course>
  <speed>0.0</speed>
  <fix>3d</fix>
</trkpt>
<trkpt lat="40.0713749" lon="-105.229789">
  <ele>1583.0</ele>
  <time>2026-08-28T17:56:40Z</time>
  <course>247.83</course>
  <speed>0.0316227766016838</speed>
  <fix>3d</fix>
</trkpt>
<trkpt lat="40.0713749" lon="-105.229789">
  <ele>1583.0</ele>
  <time>2026-08-28T17:56:40Z</time>
  <course>0.0</course>
  <speed>0.0</speed>
  <fix>3d</fix>
</trkpt>
<trkpt lat="40.0713749" lon="-105.229789">
  <ele>1583.0</ele>
  <time>2026-08-28T17:56:40Z</time>
  <course>247.82</course>
  <speed>0.0316227766016838</speed>
  <fix>3d</fix>
</trkpt>
<trkpt lat="40.0713749" lon="-105.229789">
  <ele>1583.0</ele>
  <time>2026-08-28T17:56:40Z</time>
  <course>0.0</course>
  <speed>0.0</speed>
  <fix>3d</fix>
</trkpt>
<trkpt lat="40.0713749" lon="-105.229789">
  <ele>1583.0</ele>
  <time>2026-08-28T17:56:40Z</time>
  <course>247.82</course>
  <speed>0.0316227766016838</speed>
  <fix>3d</fix>
</trkpt>
<trkpt lat="40.0713749" lon="-105.229789">
  <ele>1583.0</ele>
  <time>2026-08-28T17:56:40Z</time>
  <course>0.0</course>
  <speed>0.0</speed>
  <fix>3d</fix>
</trkpt>
<trkpt lat="40.0713749" lon="-105.229789">
  <ele>1583.0</ele>
  <time>2026-08-28T17:56:40Z</time>
  <course>247.81</course>
  <speed>0.0316227766016838</speed>
  <fix>3d</fix>
</trkpt>
<trkpt lat="40.0713749" lon="-105.229789">
  <ele>1583.0</ele>
  <time>2026-08-28T17:56:40Z</time>
  <course>0.0</course>
  <speed>0.0</speed>
  <fix>3d</fix>
</trkpt>
<trkpt lat="40.0713749" lon="-105.229789">
  <ele>1583.0</ele>
  <time>2026-08-28T17:56:40Z</time>
  <course>247.81</course>
  <speed>0.0316227766016838</speed>
  <fix>3d</fix>
</trkpt>
<trkpt lat="40.0713749" lon="-105.229789">
  <ele>1583.0</ele>
  <time>2026-08-28T17:56:40Z</time>
  <course>0.0</course>
  <speed>0.0</speed>
  <fix>3d</fix>
</trkpt>
<trkpt lat="40.0713749" lon="-105.229789">
  <ele>1583.0</ele>
  <time>2026-08-28T17:56:40Z</time>
  <course>247.81</course>
  <speed>0.0316227766016838</speed>
  <fix>3d</fix>
</trkpt>
<trkpt lat="40.0713749" lon="-105.229789">
  <ele>1583.0</ele>
  <time>2026-08-28T17:56:40Z</time>
  <course>0.0</course>
  <speed>0.0</speed>
  <fix>3d</fix>
</trkpt>
<trkpt lat="40.0713749" lon="-105.229789">
  <ele>1583.0</ele>
  <time>2026-08-28T17:56:40Z</time>
  <course>247.8</course>
  <speed>0.0316227766016838</speed>
  <fix>3d</fix>
</trkpt>
<trkpt lat="40.0713749" lon="-105.229789">
  <ele>1583.0</ele>
  <time>2026-08-28T17:56:40Z</time>
  <course>0.0</course>
  <speed>0.0</speed>
  <fix>3d</fix>
</trkpt>
<trkpt lat="40.0713749" lon="-105.229789">
  <ele>1583.0</ele>
  <time>2026-08-28T17:56:40Z</time>
  <course>247.8</course>
  <speed>0.0316227766016838</speed>
  <fix>3d</fix>
</trkpt>
<trkpt lat="40.0713749" lon="-105.229789">
  <ele>1583.0</ele>
  <time>2026-08-28T17:56:40Z</time>
  <course>0.0</course>
  <speed>0.0</speed>
  <fix>3d</fix>
</trkpt>
<trkpt lat="40.0713749" lon="-105.229789">
  <ele>1583.0</ele>
  <time>2026-08-28T17:56:40Z</time>
  <course>247.8</course>
  <speed>0.0316227766016838</speed>
  <fix>3d</fix>
</trkpt>
<trkpt lat="40.0713749" lon="-105.229789">
  <ele>1583.0</ele>
  <time>2026-08-28T17:56:40Z</time>
  <course>0.0</course>
  <speed>0.0</speed>
  <fix>3d</fix>
</trkpt>
<trkpt lat="40.0713749" lon="-105.229789">
  <ele>1583.0</ele>
  <time>2026-08-28T17:56:40Z</time>
  <course>247.79</course>
  <speed>0.0316227766016838</speed>
  <fix>3d</fix>
</trkpt>
<trkpt lat="40.0713749" lon="-105.229789">
  <ele>1583.0</ele>
  <time>2026-08-28T17:56:40Z</time>
  <course>0.0</course>
  <speed>0.0</speed>
  <fix>3d</fix>
</trkpt>
<trkpt lat="40.0713749" lon="-105.229789">
  <ele>1583.0</ele>
  <time>2026-08-28T17:56:40Z</time>
  <course>247.79</course>
  <speed>0.0316227766016838</speed>
  <fix>3d</fix>
</trkpt>
<trkpt lat="40.0713749" lon="-105.229789">
  <ele>1583.0</ele>
  <time>2026-08-28T17:56:40Z</time>
  <course>0.0</course>
  <speed>0.0</speed>
  <fix>3d</fix>
</trkpt>
<trkpt lat="40.0713749" lon="-105.229789">
  <ele>1583.0</ele>
  <time>2026-08-28T17:56:40Z</time>
  <course>247.78</course>
  <speed>0.0316227766016838</speed>
  <fix>3d</fix>
</trkpt>
<trkpt lat="40.0713749" lon="-105.229789">
  <ele>1583.0</ele>
  <time>2026-08-28T17:56:40Z</time>
  <course>0.0</course>
  <speed>0.0</speed>
  <fix>3d</fix>
</trkpt>
<trkpt lat="40.0713749" lon="-105.229789">
  <ele>1583.0</ele>
  <time>2026-08-28T17:56:40Z</time>
  <course>247.78</course>
  <speed>0.0316227766016838</speed>
  <fix>3d</fix>
</trkpt>
<trkpt lat="40.0713749" lon="-105.229789">
  <ele>1583.0</ele>
  <time>2026-08-28T17:56:40Z</time>
  <course>0.0</course>
  <speed>0.0</speed>
  <fix>3d</fix>
</trkpt>
<trkpt lat="40.0713749" lon="-105.229789">
  <ele>1583.0</ele>
  <time>2026-08-28T17:56:40Z</time>
  <course>247.78</course>
  <speed>0.0316227766016838</speed>
  <fix>3d</fix>
</trkpt>
<trkpt lat="40.0713749" lon="-105.229789">
  <ele>1583.0</ele>
  <time>2026-08-28T17:56:40Z</time>
  <course>0.0</course>
  <speed>0.0</speed>
  <fix>3d</fix>
</trkpt>
<trkpt lat="40.0713749" lon="-105.229789">
  <ele>1583.0</ele>
  <time>2026-08-28T17:56:40Z</time>
  <course>247.77</course>
  <speed>0.0316227766016838</speed>
  <fix>3d</fix>
</trkpt>
<trkpt lat="40.0713749" lon="-105.229789">
  <ele>1583.0</ele>
  <time>2026-08-28T17:56:40Z</time>
  <course>0.0</course>
  <speed>0.0</speed>
  <fix>3d</fix>
</trkpt>
<trkpt lat="40.0713749" lon="-105.229789">
  <ele>1583.0</ele>
  <time>2026-08-28T17:56:40Z</time>
  <course>247.77</course>
  <speed>0.0316227766016838</speed>
  <fix>3d</fix>
</trkpt>
<trkpt lat="40.0713749" lon="-105.229789">
  <ele>1583.0</ele>
  <time>2026-08-28T17:56:40Z</time>
  <course>0.0</course>
  <speed>0.0</speed>
  <fix>3d</fix>
</trkpt>
<trkpt lat="40.0713749" lon="-105.229789">
  <ele>1583.0</ele>
  <time>2026-08-28T17:56:40Z</time>
  <course>247.77</course>
  <speed>0.0316227766016838</speed>
  <fix>3d</fix>
</trkpt>
<trkpt lat="40.0713749" lon="-105.229789">
  <ele>1583.0</ele>
  <time>2026-08-28T17:56:40Z</time>
  <course>0.0</course>
  <speed>0.0</speed>
  <fix>3d</fix>
</trkpt>
<trkpt lat="40.0713749" lon="-105.229789">
  <ele>1583.0</ele>
  <time>2026-08-28T17:56:40Z</time>
  <course>247.76</course>
  <speed>0.0316227766016838</speed>
  <fix>3d</fix>
</trkpt>
<trkpt lat="40.0713749" lon="-105.229789">
  <ele>1583.0</ele>
  <time>2026-08-28T17:56:40Z</time>
  <course>0.0</course>
  <speed>0.0</speed>
  <fix>3d</fix>
</trkpt>
<trkpt lat="40.0713749" lon="-105.229789">
  <ele>1583.0</ele>
  <time>2026-08-28T17:56:40Z</time>
  <course>247.76</course>
  <speed>0.0316227766016838</speed>
  <fix>3d</fix>
</trkpt>
<trkpt lat="40.0713749" lon="-105.229789">
  <ele>1583.0</ele>
  <time>2026-08-28T17:56:40Z</time>
  <course>0.0</course>
  <speed>0.0</speed>
  <fix>3d</fix>
</trkpt>
<trkpt lat="40.0713749" lon="-105.229789">
  <ele>1583.0</ele>
  <time>2026-08-28T17:56:40Z</time>
  <course>247.75</course>
  <speed>0.0316227766016838</speed>
  <fix>3d</fix>
</trkpt>
<trkpt lat="40.0713749" lon="-105.229789">
  <ele>1583.0</ele>
  <time>2026-08-28T17:56:40Z</time>
  <course>0.0</course>
  <speed>0.0</speed>
  <fix>3d</fix>
</trkpt>
<trkpt lat="40.0713749" lon="-105.229789">
  <ele>1583.0</ele>
  <time>2026-08-28T17:56:40Z</time>
  <course>247.75</course>
  <speed>0.0316227766016838</speed>
  <fix>3d</fix>
</trkpt>
<trkpt lat="40.0713749" lon="-105.229789">
  <ele>1583.0</ele>
  <time>2026-08-28T17:56:40Z</time>
  <course>0.0</course>
  <speed>0.0</speed>
  <fix>3d</fix>
</trkpt>
<trkpt lat="40.0713749" lon="-105.229789">
  <ele>1583.0</ele>
  <time>2026-08-28T17:56:40Z</time>
  <course>247.75</course>
  <speed>0.0316227766016838</speed>
  <fix>3d</fix>
</trkpt>
<trkpt lat="40.0713749" lon="-105.229789">
  <ele>1583.0</ele>
  <time>2026-08-28T17:56:40Z</time>
  <course>0.0</course>
  <speed>0.0</speed>
  <fix>3d</fix>
</trkpt>
<trkpt lat="40.0713749" lon="-105.229789">
  <ele>1583.0</ele>
  <time>2026-08-28T17:56:40Z</time>
  <course>247.74</course>
  <speed>0.0316227766016838</speed>
  <fix>3d</fix>
</trkpt>
<trkpt lat="40.0713749" lon="-105.229789">
  <ele>1583.0</ele>
  <time>2026-08-28T17:56:40Z</time>
  <course>0.0</course>
  <speed>0.0</speed>
  <fix>3d</fix>
</trkpt>
<trkpt lat="40.0713749" lon="-105.229789">
  <ele>1583.0</ele>
  <time>2026-08-28T17:56:40Z</time>
  <course>247.74</course>
  <speed>0.0316227766016838</speed>
  <fix>3d</fix>
</trkpt>
<trkpt lat="40.0713749" lon="-105.229789">
  <ele>1583.0</ele>
  <time>2026-08-28T17:56:40Z</time>
  <course>0.0</course>
  <speed>0.0</speed>
  <fix>3d</fix>
</trkpt>
<trkpt lat="40.0713749" lon="-105.229789">
  <ele>1583.0</ele>
  <time>2026-08-28T17:56:40Z</time>
  <course>247.74</course>
  <speed>0.0316227766016838</speed>
  <fix>3d</fix>
</trkpt>
<trkpt lat="40.0713749" lon="-105.229789">
  <ele>1583.0</ele>
  <time>2026-08-28T17:56:40Z</time>
  <course>0.0</course>
  <speed>0.0</speed>
  <fix>3d</fix>
</trkpt>
<trkpt lat="40.0713749" lon="-105.229789">
  <ele>1583.0</ele>
  <time>2026-08-28T17:56:40Z</time>
  <course>247.73</course>
  <speed>0.0316227766016838</speed>
  <fix>3d</fix>
</trkpt>
<trkpt lat="40.0713749" lon="-105.229789">
  <ele>1583.0</ele>
  <time>2026-08-28T17:56:40Z</time>
  <course>0.0</course>
  <speed>0.0</speed>
  <fix>3d</fix>
</trkpt>
<trkpt lat="40.0713749" lon="-105.229789">
  <ele>1583.0</ele>
  <time>2026-08-28T17:56:40Z</time>
  <course>247.73</course>
  <speed>0.0316227766016838</speed>
  <fix>3d</fix>
</trkpt>
<trkpt lat="40.0713749" lon="-105.229789">
  <ele>1583.0</ele>
  <time>2026-08-28T17:56:40Z</time>
  <course>0.0</course>
  <speed>0.0</speed>
  <fix>3d</fix>
</trkpt>
<trkpt lat="40.0713749" lon="-105.229789">
  <ele>1583.0</ele>
  <time>2026-08-28T17:56:40Z</time>
  <course>247.73</course>
  <speed>0.0316227766016838</speed>
  <fix>3d</fix>
</trkpt>
<trkpt lat="40.0713749" lon="-105.229789">
  <ele>1583.0</ele>
  <time>2026-08-28T17:56:40Z</time>
  <course>0.0</course>
  <speed>0.0</speed>
  <fix>3d</fix>
</trkpt>
<trkpt lat="40.0713749" lon="-105.229789">
  <ele>1583.0</ele>
  <time>2026-08-28T17:56:40Z</time>
  <course>247.72</course>
  <speed>0.0316227766016838</speed>
  <fix>3d</fix>
</trkpt>
<trkpt lat="40.0713749" lon="-105.229789">
  <ele>1583.0</ele>
  <time>2026-08-28T17:56:40Z</time>
  <course>0.0</course>
  <speed>0.0</speed>
  <fix>3d</fix>
</trkpt>
<trkpt lat="40.0713749" lon="-105.229789">
  <ele>1583.0</ele>
  <time>2026-08-28T17:56:40Z</time>
  <course>247.72</course>
  <speed>0.0316227766016838</speed>
  <fix>3d</fix>
</trkpt>
<trkpt lat="40.0713749" lon="-105.229789">
  <ele>1583.0</ele>
  <time>2026-08-28T17:56:40Z</time>
  <course>0.0</course>
  <speed>0.0</speed>
  <fix>3d</fix>
</trkpt>
<trkpt lat="40.0713749" lon="-105.229789">
  <ele>1583.0</ele>
  <time>2026-08-28T17:56:40Z</time>
  <course>247.72</course>
  <speed>0.0316227766016838</speed>
  <fix>3d</fix>
</trkpt>
<trkpt lat="40.0713749" lon="-105.229789">
  <ele>1583.0</ele>
  <time>2026-08-28T17:56:40Z</time>
  <course>0.0</course>
  <speed>0.0</speed>
  <fix>3d</fix>
</trkpt>
<trkpt lat="40.0713749" lon="-105.229789">
  <ele>1583.0</ele>
  <time>2026-08-28T17:56:40Z</time>
  <course>247.71</course>
  <speed>0.0316227766016838</speed>
  <fix>3d</fix>
</trkpt>
<trkpt lat="40.0713749" lon="-105.229789">
  <ele>1583.0</ele>
  <time>2026-08-28T17:56:40Z</time>
  <course>0.0</course>
  <speed>0.0</speed>
  <fix>3d</fix>
</trkpt>
<trkpt lat="40.0713749" lon="-105.229789">
  <ele>1583.0</ele>
  <time>2026-08-28T17:56:40Z</time>
  <course>247.71</course>
  <speed>0.0316227766016838</speed>
  <fix>3d</fix>
</trkpt>
<trkpt lat="40.0713749" lon="-105.229789">
  <ele>1583.0</ele>
  <time>2026-08-28T17:56:40Z</time>
  <course>0.0</course>
  <speed>0.0</speed>
  <fix>3d</fix>
</trkpt>
<trkpt lat="40.0713749" lon="-105.229789">
  <ele>1583.0</ele>
  <time>2026-08-28T17:56:40Z</time>
  <course>247.71</course>
  <speed>0.0316227766016838</speed>
  <fix>3d</fix>
</trkpt>
<trkpt lat="40.0713749" lon="-105.229789">
  <ele>1583.0</ele>
  <time>2026-08-28T17:56:40Z</time>
  <course>0.0</course>
  <speed>0.0</speed>
  <fix>3d</fix>
</trkpt>
<trkpt lat="40.0713749" lon="-105.229789">
  <ele>1583.0</ele>
  <time>2026-08-28T17:56:40Z</time>
  <course>247.7</course>
  <speed>0.0316227766016838</speed>
  <fix>3d</fix>
</trkpt>
<trkpt lat="40.0713749" lon="-105.229789">
  <ele>1583.0</ele>
  <time>2026-08-28T17:56:40Z</time>
  <course>0.0</course>
  <speed>0.0</speed>
  <fix>3d</fix>
</trkpt>
<trkpt lat="40.0713749" lon="-105.229789">
  <ele>1583.0</ele>
  <time>2026-08-28T17:56:40Z</time>
  <course>247.7</course>
  <speed>0.0316227766016838</speed>
  <fix>3d</fix>
</trkpt>
<trkpt lat="40.0713749" lon="-105.229789">
  <ele>1583.0</ele>
  <time>2026-08-28T17:56:40Z</time>
  <course>0.0</course>
  <speed>0.0</speed>
  <fix>3d</fix>
</trkpt>
<trkpt lat="40.0713749" lon="-105.229789">
  <ele>1583.0</ele>
  <time>2026-08-28T17:56:40Z</time>
  <course>247.7</course>
  <speed>0.0316227766016838</speed>
  <fix>3d</fix>
</trkpt>
<trkpt lat="40.0713749" lon="-105.229789">
  <ele>1583.0</ele>
  <time>2026-08-28T17:56:40Z</time>
  <course>0.0</course>
  <speed>0.0</speed>
  <fix>3d</fix>
</trkpt>
<trkpt lat="40.0713749" lon="-105.229789">
  <ele>1583.0</ele>
  <time>2026-08-28T17:56:40Z</time>
  <course>247.69</course>
  <speed>0.0316227766016838</speed>
  <fix>3d</fix>
</trkpt>
<trkpt lat="40.0713749" lon="-105.229789">
  <ele>1583.0</ele>
  <time>2026-08-28T17:56:40Z</time>
  <course>0.0</course>
  <speed>0.0</speed>
  <fix>3d</fix>
</trkpt>
<trkpt lat="40.0713749" lon="-105.229789">
  <ele>1583.0</ele>
  <time>2026-08-28T17:56:40Z</time>
  <course>247.69</course>
  <speed>0.0316227766016838</speed>
  <fix>3d</fix>
</trkpt>
<trkpt lat="40.0713749" lon="-105.229789">
  <ele>1583.0</ele>
  <time>2026-08-28T17:56:40Z</time>
  <course>0.0</course>
  <speed>0.0</speed>
  <fix>3d</fix>
</trkpt>
<trkpt lat="40.0713749" lon="-105.229789">
  <ele>1583.0</ele>
  <time>2026-08-28T17:56:40Z</time>
  <course>247.69</course>
  <speed>0.0316227766016838</speed>
  <fix>3d</fix>
</trkpt>
<trkpt lat="40.0713749" lon="-105.229789">
  <ele>1583.0</ele>
  <time>2026-08-28T17:56:40Z</time>
  <course>0.0</course>
  <speed>0.0</speed>
  <fix>3d</fix>
</trkpt>
<trkpt lat="40.0713749" lon="-105.229789">
  <ele>1583.0</ele>
  <time>2026-08-28T17:56:40Z</time>
  <course>247.68</course>
  <speed>0.0316227766016838</speed>
  <fix>3d</fix>
</trkpt>
<trkpt lat="40.0713749" lon="-105.229789">
  <ele>1583.0</ele>
  <time>2026-08-28T17:56:40Z</time>
  <course>0.0</course>
  <speed>0.0</speed>
  <fix>3d</fix>
</trkpt>
<trkpt lat="40.0713749" lon="-105.229789">
  <ele>1583.0</ele>
  <time>2026-08-28T17:56:40Z</time>
  <course>247.68</course>
  <speed>0.0316227766016838</speed>
  <fix>3d</fix>
</trkpt>
<trkpt lat="40.0713749" lon="-105.229789">
  <ele>1583.0</ele>
  <time>2026-08-28T17:56:40Z</time>
  <course>0.0</course>
  <speed>0.0</speed>
  <fix>3d</fix>
</trkpt>
<trkpt lat="40.0713749" lon="-105.229789">
  <ele>1583.0</ele>
  <time>2026-08-28T17:56:40Z</time>
  <course>247.68</course>
  <speed>0.0316227766016838</speed>
  <fix>3d</fix>
</trkpt>
<trkpt lat="40.0713749" lon="-105.229789">
  <ele>1583.0</ele>
  <time>2026-08-28T17:56:40Z</time>
  <course>0.0</course>
  <speed>0.0</speed>
  <fix>3d</fix>
</trkpt>
<trkpt lat="40.0713749" lon="-105.229789">
  <ele>1583.0</ele>
  <time>2026-08-28T17:56:40Z</time>
  <course>247.67</course>
  <speed>0.0316227766016838</speed>
  <fix>3d</fix>
</trkpt>
<trkpt lat="40.0713749" lon="-105.229789">
  <ele>1583.0</ele>
  <time>2026-08-28T17:56:40Z</time>
  <course>0.0</course>
  <speed>0.0</speed>
  <fix>3d</fix>
</trkpt>
<trkpt lat="40.0713749" lon="-105.229789">
  <ele>1583.0</ele>
  <time>2026-08-28T17:56:40Z</time>
  <course>247.67</course>
  <speed>0.0316227766016838</speed>
  <fix>3d</fix>
</trkpt>
<trkpt lat="40.0713749" lon="-105.229789">
  <ele>1583.0</ele>
  <time>2026-08-28T17:56:40Z</time>
  <course>0.0</course>
  <speed>0.0</speed>
  <fix>3d</fix>
</trkpt>
<trkpt lat="40.0713749" lon="-105.229789">
  <ele>1583.0</ele>
  <time>2026-08-28T17:56:40Z</time>
  <course>247.67</course>
  <speed>0.0316227766016838</speed>
  <fix>3d</fix>
</trkpt>
<trkpt lat="40.0713749" lon="-105.229789">
  <ele>1583.0</ele>
  <time>2026-08-28T17:56:40Z</time>
  <course>0.0</course>
  <speed>0.0</speed>
  <fix>3d</fix>
</trkpt>
<trkpt lat="40.0713749" lon="-105.229789">
  <ele>1583.0</ele>
  <time>2026-08-28T17:56:40Z</time>
  <course>247.66</course>
  <speed>0.0316227766016838</speed>
  <fix>3d</fix>
</trkpt>
<trkpt lat="40.0713749" lon="-105.229789">
  <ele>1583.0</ele>
  <time>2026-08-28T17:56:40Z</time>
  <course>0.0</course>
  <speed>0.0</speed>
  <fix>3d</fix>
</trkpt>
<trkpt lat="40.0713749" lon="-105.229789">
  <ele>1583.0</ele>
  <time>2026-08-28T17:56:40Z</time>
  <course>247.66</course>
  <speed>0.0316227766016838</speed>
  <fix>3d</fix>
</trkpt>
<trkpt lat="40.0713749" lon="-105.229789">
  <ele>1583.0</ele>
  <time>2026-08-28T17:56:40Z</time>
  <course>0.0</course>
  <speed>0.0</speed>
  <fix>3d</fix>
</trkpt>
<trkpt lat="40.0713749" lon="-105.229789">
  <ele>1583.0</ele>
  <time>2026-08-28T17:56:40Z</time>
  <course>247.66</course>
  <speed>0.0316227766016838</speed>
  <fix>3d</fix>
</trkpt>
<trkpt lat="40.0713749" lon="-105.229789">
  <ele>1583.0</ele>
  <time>2026-08-28T17:56:40Z</time>
  <course>0.0</course>
  <speed>0.0</speed>
  <fix>3d</fix>
</trkpt>
<trkpt lat="40.0713749" lon="-105.229789">
  <ele>1583.0</ele>
  <time>2026-08-28T17:56:40Z</time>
  <course>247.65</course>
  <speed>0.0316227766016838</speed>
  <fix>3d</fix>
</trkpt>
<trkpt lat="40.0713749" lon="-105.229789">
  <ele>1583.0</ele>
  <time>2026-08-28T17:56:40Z</time>
  <course>0.0</course>
  <speed>0.0</speed>
  <fix>3d</fix>
</trkpt>
<trkpt lat="40.0713749" lon="-105.229789">
  <ele>1583.0</ele>
  <time>2026-08-28T17:56:40Z</time>
  <course>247.65</course>
  <speed>0.0316227766016838</speed>
  <fix>3d</fix>
</trkpt>
<trkpt lat="40.0713749" lon="-105.229789">
  <ele>1583.0</ele>
  <time>2026-08-28T17:56:40Z</time>
  <course>0.0</course>
  <speed>0.0</speed>
  <fix>3d</fix>
</trkpt>
<trkpt lat="40.0713749" lon="-105.229789">
  <ele>1583.0</ele>
  <time>2026-08-28T17:56:40Z</time>
  <course>247.65</course>
  <speed>0.0316227766016838</speed>
  <fix>3d</fix>
</trkpt>
<trkpt lat="40.0713749" lon="-105.229789">
  <ele>1583.0</ele>
  <time>2026-08-28T17:56:40Z</time>
  <course>0.0</course>
  <speed>0.0</speed>
  <fix>3d</fix>
</trkpt>
<trkpt lat="40.0713749" lon="-105.229789">
  <ele>1583.0</ele>
  <time>2026-08-28T17:56:40Z</time>
  <course>247.65</course>
  <speed>0.0316227766016838</speed>
  <fix>3d</fix>
</trkpt>
<trkpt lat="40.0713749" lon="-105.229789">
  <ele>1583.0</ele>
  <time>2026-08-28T17:56:40Z</time>
  <course>0.0</course>
  <speed>0.0</speed>
  <fix>3d</fix>
</trkpt>
<trkpt lat="40.0713749" lon="-105.229789">
  <ele>1583.0</ele>
  <time>2026-08-28T17:56:40Z</time>
  <course>247.64</course>
  <speed>0.0316227766016838</speed>
  <fix>3d</fix>
</trkpt>
<trkpt lat="40.0713749" lon="-105.229789">
  <ele>1583.0</ele>
  <time>2026-08-28T17:56:40Z</time>
  <course>0.0</course>
  <speed>0.0</speed>
  <fix>3d</fix>
</trkpt>
<trkpt lat="40.0713749" lon="-105.229789">
  <ele>1583.0</ele>
  <time>2026-08-28T17:56:40Z</time>
  <course>247.64</course>
  <speed>0.0316227766016838</speed>
  <fix>3d</fix>
</trkpt>
<trkpt lat="40.0713749" lon="-105.229789">
  <ele>1583.0</ele>
  <time>2026-08-28T17:56:40Z</time>
  <course>0.0</course>
  <speed>0.0</speed>
  <fix>3d</fix>
</trkpt>
<trkpt lat="40.0713749" lon="-105.229789">
  <ele>1583.0</ele>
  <time>2026-08-28T17:56:40Z</time>
  <course>247.64</course>
  <speed>0.0316227766016838</speed>
  <fix>3d</fix>
</trkpt>
<trkpt lat="40.0713749" lon="-105.229789">
  <ele>1583.0</ele>
  <time>2026-08-28T17:56:40Z</time>
  <course>0.0</course>
  <speed>0.0</speed>
  <fix>3d</fix>
</trkpt>
<trkpt lat="40.0713749" lon="-105.229789">
  <ele>1583.0</ele>
  <time>2026-08-28T17:56:40Z</time>
  <course>247.63</course>
  <speed>0.0316227766016838</speed>
  <fix>3d</fix>
</trkpt>
<trkpt lat="40.0713749" lon="-105.229789">
  <ele>1583.0</ele>
  <time>2026-08-28T17:56:40Z</time>
  <course>0.0</course>
  <speed>0.0</speed>
  <fix>3d</fix>
</trkpt>
<trkpt lat="40.0713749" lon="-105.229789">
  <ele>1583.0</ele>
  <time>2026-08-28T17:56:40Z</time>
  <course>247.63</course>
  <speed>0.0316227766016838</speed>
  <fix>3d</fix>
</trkpt>
<trkpt lat="40.0713749" lon="-105.229789">
  <ele>1583.0</ele>
  <time>2026-08-28T17:56:40Z</time>
  <course>0.0</course>
  <speed>0.0</speed>
  <fix>3d</fix>
</trkpt>
<trkpt lat="40.0713749" lon="-105.229789">
  <ele>1583.0</ele>
  <time>2026-08-28T17:56:40Z</time>
  <course>247.63</course>
  <speed>0.0316227766016838</speed>
  <fix>3d</fix>
</trkpt>
<trkpt lat="40.0713749" lon="-105.229789">
  <ele>1583.0</ele>
  <time>2026-08-28T17:56:40Z</time>
  <course>0.0</course>
  <speed>0.0</speed>
  <fix>3d</fix>
</trkpt>
<trkpt lat="40.0713749" lon="-105.229789">
  <ele>1583.0</ele>
  <time>2026-08-28T17:56:40Z</time>
  <course>247.62</course>
  <speed>0.0316227766016838</speed>
  <fix>3d</fix>
</trkpt>
<trkpt lat="40.0713749" lon="-105.229789">
  <ele>1583.0</ele>
  <time>2026-08-28T17:56:40Z</time>
  <course>0.0</course>
  <speed>0.0</speed>
  <fix>3d</fix>
</trkpt>
<trkpt lat="40.0713749" lon="-105.229789">
  <ele>1583.0</ele>
  <time>2026-08-28T17:56:40Z</time>
  <course>247.62</course>
  <speed>0.0316227766016838</speed>
  <fix>3d</fix>
</trkpt>
<trkpt lat="40.0713749" lon="-105.229789">
  <ele>1583.0</ele>
  <time>2026-08-28T17:56:40Z</time>
  <course>0.0</course>
  <speed>0.0</speed>
  <fix>3d</fix>
</trkpt>
<trkpt lat="40.0713749" lon="-105.229789">
  <ele>1583.0</ele>
  <time>2026-08-28T17:56:40Z</time>
  <course>247.62</course>
  <speed>0.0316227766016838</speed>
  <fix>3d</fix>
</trkpt>
<trkpt lat="40.0713749" lon="-105.229789">
  <ele>1583.0</ele>
  <time>2026-08-28T17:56:40Z</time>
  <course>0.0</course>
  <speed>0.0</speed>
  <fix>3d</fix>
</trkpt>
<trkpt lat="40.0713749" lon="-105.229789">
  <ele>1583.0</ele>
  <time>2026-08-28T17:56:40Z</time>
  <course>247.62</course>
  <speed>0.0316227766016838</speed>
  <fix>3d</fix>
</trkpt>
<trkpt lat="40.0713749" lon="-105.229789">
  <ele>1583.0</ele>
  <time>2026-08-28T17:56:40Z</time>
  <course>0.0</course>
  <speed>0.0</speed>
  <fix>3d</fix>
</trkpt>
<trkpt lat="40.0713749" lon="-105.229789">
  <ele>1583.0</ele>
  <time>2026-08-28T17:56:40Z</time>
  <course>247.61</course>
  <speed>0.0316227766016838</speed>
  <fix>3d</fix>
</trkpt>
<trkpt lat="40.0713749" lon="-105.229789">
  <ele>1583.0</ele>
  <time>2026-08-28T17:56:40Z</time>
  <course>0.0</course>
  <speed>0.0</speed>
  <fix>3d</fix>
</trkpt>
<trkpt lat="40.0713749" lon="-105.229789">
  <ele>1583.0</ele>
  <time>2026-08-28T17:56:40Z</time>
  <course>247.61</course>
  <speed>0.0316227766016838</speed>
  <fix>3d</fix>
</trkpt>
<trkpt lat="40.0713749" lon="-105.229789">
  <ele>1583.0</ele>
  <time>2026-08-28T17:56:40Z</time>
  <course>0.0</course>
  <speed>0.0</speed>
  <fix>3d</fix>
</trkpt>
<trkpt lat="40.0713749" lon="-105.229789">
  <ele>1583.0</ele>
  <time>2026-08-28T17:56:40Z</time>
  <course>247.61</course>
  <speed>0.0316227766016838</speed>
  <fix>3d</fix>
</trkpt>
<trkpt lat="40.0713749" lon="-105.229789">
  <ele>1583.0</ele>
  <time>2026-08-28T17:56:40Z</time>
  <course>0.0</course>
  <speed>0.0</speed>
  <fix>3d</fix>
</trkpt>
<trkpt lat="40.0713749" lon="-105.229789">
  <ele>1583.0</ele>
  <time>2026-08-28T17:56:40Z</time>
  <course>247.6</course>
  <speed>0.0316227766016838</speed>
  <fix>3d</fix>
</trkpt>
<trkpt lat="40.0713749" lon="-105.229789">
  <ele>1583.0</ele>
  <time>2026-08-28T17:56:40Z</time>
  <course>0.0</course>
  <speed>0.0</speed>
  <fix>3d</fix>
</trkpt>
<trkpt lat="40.0713749" lon="-105.229789">
  <ele>1583.0</ele>
  <time>2026-08-28T17:56:40Z</time>
  <course>247.6</course>
  <speed>0.0316227766016838</speed>
  <fix>3d</fix>
</trkpt>
<trkpt lat="40.0713749" lon="-105.229789">
  <ele>1583.0</ele>
  <time>2026-08-28T17:56:40Z</time>
  <course>0.0</course>
  <speed>0.0</speed>
  <fix>3d</fix>
</trkpt>
<trkpt lat="40.0713749" lon="-105.229789">
  <ele>1583.0</ele>
  <time>2026-08-28T17:56:40Z</time>
  <course>247.6</course>
  <speed>0.0316227766016838</speed>
  <fix>3d</fix>
</trkpt>
<trkpt lat="40.0713749" lon="-105.229789">
  <ele>1583.0</ele>
  <time>2026-08-28T17:56:40Z</time>
  <course>0.0</course>
  <speed>0.0</speed>
  <fix>3d</fix>
</trkpt>
<trkpt lat="40.0713749" lon="-105.229789">
  <ele>1583.0</ele>
  <time>2026-08-28T17:56:40Z</time>
  <course>247.6</course>
  <speed>0.0316227766016838</speed>
  <fix>3d</fix>
</trkpt>
<trkpt lat="40.0713749" lon="-105.229789">
  <ele>1583.0</ele>
  <time>2026-08-28T17:56:40Z</time>
  <course>0.0</course>
  <speed>0.0</speed>
  <fix>3d</fix>
</trkpt>
<trkpt lat="40.0713749" lon="-105.229789">
  <ele>1583.0</ele>
  <time>2026-08-28T17:56:40Z</time>
  <course>247.59</course>
  <speed>0.0316227766016838</speed>
  <fix>3d</fix>
</trkpt>
<trkpt lat="40.0713749" lon="-105.229789">
  <ele>1583.0</ele>
  <time>2026-08-28T17:56:40Z</time>
  <course>0.0</course>
  <speed>0.0</speed>
  <fix>3d</fix>
</trkpt>
<trkpt lat="40.0713749" lon="-105.229789">
  <ele>1583.0</ele>
  <time>2026-08-28T17:56:40Z</time>
  <course>247.59</course>
  <speed>0.0316227766016838</speed>
  <fix>3d</fix>
</trkpt>
<trkpt lat="40.0713749" lon="-105.229789">
  <ele>1583.0</ele>
  <time>2026-08-28T17:56:40Z</time>
  <course>0.0</course>
  <speed>0.0</speed>
  <fix>3d</fix>
</trkpt>
<trkpt lat="40.0713749" lon="-105.229789">
  <ele>1583.0</ele>
  <time>2026-08-28T17:56:40Z</time>
  <course>247.59</course>
  <speed>0.0316227766016838</speed>
  <fix>3d</fix>
</trkpt>
<trkpt lat="40.0713749" lon="-105.229789">
  <ele>1583.0</ele>
  <time>2026-08-28T17:56:40Z</time>
  <course>0.0</course>
  <speed>0.0</speed>
  <fix>3d</fix>
</trkpt>
<trkpt lat="40.0713749" lon="-105.229789">
  <ele>1583.0</ele>
  <time>2026-08-28T17:56:40Z</time>
  <course>247.59</course>
  <speed>0.0</speed>
  <fix>3d</fix>
</trkpt>
<trkpt lat="40.0713749" lon="-105.229789">
  <ele>1583.0</ele>
  <time>2026-08-28T17:56:40Z</time>
  <course>0.0</course>
  <speed>0.0</speed>
  <fix>3d</fix>
</trkpt>
<trkpt lat="40.0713749" lon="-105.229789">
  <ele>1583.0</ele>
  <time>2026-08-28T17:56:40Z</time>
  <course>247.58</course>
  <speed>0.0</speed>
  <fix>3d</fix>
</trkpt>
<trkpt lat="40.0713749" lon="-105.229789">
  <ele>1583.0</ele>
  <time>2026-08-28T17:56:40Z</time>
  <course>0.0</course>
  <speed>0.0</speed>
  <fix>3d</fix>
</trkpt>
<trkpt lat="40.0713749" lon="-105.229789">
  <ele>1583.01</ele>
  <time>2026-08-28T17:56:40Z</time>
  <course>247.58</course>
  <speed>0.0</speed>
  <fix>3d</fix>
</trkpt>
<trkpt lat="40.0713749" lon="-105.229789">
  <ele>1583.0</ele>
  <time>2026-08-28T17:56:40Z</time>
  <course>0.0</course>
  <speed>0.0</speed>
  <fix>3d</fix>
</trkpt>
<trkpt lat="40.0713749" lon="-105.229789">
  <ele>1583.01</ele>
  <time>2026-08-28T17:56:40Z</time>
  <course>247.58</course>
  <speed>0.0</speed>
  <fix>3d</fix>
</trkpt>
<trkpt lat="40.0713749" lon="-105.229789">
  <ele>1583.0</ele>
  <time>2026-08-28T17:56:40Z</time>
  <course>0.0</course>
  <speed>0.0</speed>
  <fix>3d</fix>
</trkpt>
<trkpt lat="40.0713749" lon="-105.229789">
  <ele>1583.02</ele>
  <time>2026-08-28T17:56:40Z</time>
  <course>247.58</course>
  <speed>0.0</speed>
  <fix>3d</fix>
</trkpt>
<trkpt lat="40.0713749" lon="-105.229789">
  <ele>1583.0</ele>
  <time>2026-08-28T17:56:40Z</time>
  <course>0.0</course>
  <speed>0.0</speed>
  <fix>3d</fix>
</trkpt>
<trkpt lat="40.0713749" lon="-105.229789">
  <ele>1583.02</ele>
  <time>2026-08-28T17:56:40Z</time>
  <course>247.57</course>
  <speed>0.0</speed>
  <fix>3d</fix>
</trkpt>
<trkpt lat="40.0713749" lon="-105.229789">
  <ele>1583.0</ele>
  <time>2026-08-28T17:56:40Z</time>
  <course>0.0</course>
  <speed>0.0</speed>
  <fix>3d</fix>
</trkpt>
<trkpt lat="40.0713749" lon="-105.229789">
  <ele>1583.02</ele>
  <time>2026-08-28T17:56:40Z</time>
  <course>247.57</course>
  <speed>0.0</speed>
  <fix>3d</fix>
</trkpt>
<trkpt lat="40.0713749" lon="-105.229789">
  <ele>1583.0</ele>
  <time>2026-08-28T17:56:40Z</time>
  <course>0.0</course>
  <speed>0.0</speed>
  <fix>3d</fix>
</trkpt>
<trkpt lat="40.0713749" lon="-105.229789">
  <ele>1583.02</ele>
  <time>2026-08-28T17:56:40Z</time>
  <course>247.57</course>
  <speed>0.0</speed>
  <fix>3d</fix>
</trkpt>
<trkpt lat="40.0713749" lon="-105.229789">
  <ele>1583.0</ele>
  <time>2026-08-28T17:56:40Z</time>
  <course>0.0</course>
  <speed>0.0</speed>
  <fix>3d</fix>
</trkpt>
<trkpt lat="40.0713749" lon="-105.229789">
  <ele>1583.02</ele>
  <time>2026-08-28T17:56:40Z</time>
  <course>247.57</course>
  <speed>0.0</speed>
  <fix>3d</fix>
</trkpt>
<trkpt lat="40.0713749" lon="-105.229789">
  <ele>1583.0</ele>
  <time>2026-08-28T17:56:40Z</time>
  <course>0.0</course>
  <speed>0.0</speed>
  <fix>3d</fix>
</trkpt>
<trkpt lat="40.0713749" lon="-105.229789">
  <ele>1583.02</ele>
  <time>2026-08-28T17:56:40Z</time>
  <course>247.56</course>
  <speed>0.01</speed>
  <fix>3d</fix>
</trkpt>
<trkpt lat="40.0713749" lon="-105.229789">
  <ele>1583.0</ele>
  <time>2026-08-28T17:56:40Z</time>
  <course>0.0</course>
  <speed>0.0</speed>
  <fix>3d</fix>
</trkpt>
<trkpt lat="40.0713749" lon="-105.229789">
  <ele>1583.02</ele>
  <time>2026-08-28T17:56:40Z</time>
  <course>247.56</course>
  <speed>0.01</speed>
  <fix>3d</fix>
</trkpt>
<trkpt lat="40.0713749" lon="-105.229789">
  <ele>1583.0</ele>
  <time>2026-08-28T17:56:40Z</time>
  <course>0.0</course>
  <speed>0.0</speed>
  <fix>3d</fix>
</trkpt>
<trkpt lat="40.0713749" lon="-105.229789">
  <ele>1583.02</ele>
  <time>2026-08-28T17:56:40Z</time>
  <course>247.56</course>
  <speed>0.01</speed>
  <fix>3d</fix>
</trkpt>
<trkpt lat="40.0713749" lon="-105.229789">
  <ele>1583.0</ele>
  <time>2026-08-28T17:56:40Z</time>
  <course>0.0</course>
  <speed>0.0</speed>
  <fix>3d</fix>
</trkpt>
<trkpt lat="40.0713749" lon="-105.229789">
  <ele>1583.02</ele>
  <time>2026-08-28T17:56:40Z</time>
  <course>247.56</course>
  <speed>0.01</speed>
  <fix>3d</fix>
</trkpt>
<trkpt lat="40.0713749" lon="-105.229789">
  <ele>1583.0</ele>
  <time>2026-08-28T17:56:40Z</time>
  <course>0.0</course>
  <speed>0.0</speed>
  <fix>3d</fix>
</trkpt>
<trkpt lat="40.0713749" lon="-105.229789">
  <ele>1583.02</ele>
  <time>2026-08-28T17:56:40Z</time>
  <course>247.55</course>
  <speed>0.01</speed>
  <fix>3d</fix>
</trkpt>
<trkpt lat="40.0713749" lon="-105.229789">
  <ele>1583.0</ele>
  <time>2026-08-28T17:56:40Z</time>
  <course>0.0</course>
  <speed>0.0</speed>
  <fix>3d</fix>
</trkpt>
<trkpt lat="40.0713749" lon="-105.229789">
  <ele>1583.03</ele>
  <time>2026-08-28T17:56:40Z</time>
  <course>247.55</course>
  <speed>0.01</speed>
  <fix>3d</fix>
</trkpt>
<trkpt lat="40.0713749" lon="-105.229789">
  <ele>1583.0</ele>
  <time>2026-08-28T17:56:40Z</time>
  <course>0.0</course>
  <speed>0.0</speed>
  <fix>3d</fix>
</trkpt>
<trkpt lat="40.0713749" lon="-105.229789">
  <ele>1583.03</ele>
  <time>2026-08-28T17:56:40Z</time>
  <course>247.55</course>
  <speed>0.01</speed>
  <fix>3d</fix>
</trkpt>
<trkpt lat="40.0713749" lon="-105.229789">
  <ele>1583.0</ele>
  <time>2026-08-28T17:56:40Z</time>
  <course>0.0</course>
  <speed>0.0</speed>
  <fix>3d</fix>
</trkpt>
<trkpt lat="40.0713749" lon="-105.229789">
  <ele>1583.04</ele>
  <time>2026-08-28T17:56:40Z</time>
  <course>247.55</course>
  <speed>0.01</speed>
  <fix>3d</fix>
</trkpt>
<trkpt lat="40.0713749" lon="-105.229789">
  <ele>1583.0</ele>
  <time>2026-08-28T17:56:40Z</time>
  <course>0.0</course>
  <speed>0.0</speed>
  <fix>3d</fix>
</trkpt>
<trkpt lat="40.0713749" lon="-105.229789">
  <ele>1583.04</ele>
  <time>2026-08-28T17:56:40Z</time>
  <course>247.55</course>
  <speed>0.01</speed>
  <fix>3d</fix>
</trkpt>
<trkpt lat="40.0713749" lon="-105.229789">
  <ele>1583.0</ele>
  <time>2026-08-28T17:56:40Z</time>
  <course>0.0</course>
  <speed>0.0</speed>
  <fix>3d</fix>
</trkpt>
<trkpt lat="40.0713749" lon="-105.229789">
  <ele>1583.05</ele>
  <time>2026-08-28T17:56:40Z</time>
  <course>247.54</course>
  <speed>0.02</speed>
  <fix>3d</fix>
</trkpt>
<trkpt lat="40.0713749" lon="-105.229789">
  <ele>1583.0</ele>
  <time>2026-08-28T17:56:40Z</time>
  <course>0.0</course>
  <speed>0.0</speed>
  <fix>3d</fix>
</trkpt>
<trkpt lat="40.0713749" lon="-105.229789">
  <ele>1583.05</ele>
  <time>2026-08-28T17:56:40Z</time>
  <course>247.54</course>
  <speed>0.02</speed>
  <fix>3d</fix>
</trkpt>
<trkpt lat="40.0713749" lon="-105.229789">
  <ele>1583.0</ele>
  <time>2026-08-28T17:56:40Z</time>
  <course>0.0</course>
  <speed>0.0</speed>
  <fix>3d</fix>
</trkpt>
<trkpt lat="40.0713749" lon="-105.229789">
  <ele>1583.05</ele>
  <time>2026-08-28T17:56:40Z</time>
  <course>247.54</course>
  <speed>0.02</speed>
  <fix>3d</fix>
</trkpt>
<trkpt lat="40.0713749" lon="-105.229789">
  <ele>1583.0</ele>
  <time>2026-08-28T17:56:40Z</time>
  <course>0.0</course>
  <speed>0.0</speed>
  <fix>3d</fix>
</trkpt>
<trkpt lat="40.0713749" lon="-105.229789">
  <ele>1583.05</ele>
  <time>2026-08-28T17:56:40Z</time>
  <course>247.54</course>
  <speed>0.022360679774997897</speed>
  <fix>3d</fix>
</trkpt>
<trkpt lat="40.0713749" lon="-105.229789">
  <ele>1583.0</ele>
  <time>2026-08-28T17:56:40Z</time>
  <course>0.0</course>
  <speed>0.0</speed>
  <fix>3d</fix>
</trkpt>
<trkpt lat="40.0713749" lon="-105.229789">
  <ele>1583.05</ele>
  <time>2026-08-28T17:56:40Z</time>
  <course>247.54</course>
  <speed>0.022360679774997897</speed>
  <fix>3d</fix>
</trkpt>
<trkpt lat="40.0713749" lon="-105.229789">
  <ele>1583.0</ele>
  <time>2026-08-28T17:56:40Z</time>
  <course>0.0</course>
  <speed>0.0</speed>
  <fix>3d</fix>
</trkpt>
<trkpt lat="40.0713749" lon="-105.229789">
  <ele>1583.05</ele>
  <time>2026-08-28T17:56:40Z</time>
  <course>247.53</course>
  <speed>0.022360679774997897</speed>
  <fix>3d</fix>
</trkpt>
<trkpt lat="40.0713749" lon="-105.229789">
  <ele>1583.0</ele>
  <time>2026-08-28T17:56:40Z</time>
  <course>0.0</course>
  <speed>0.0</speed>
  <fix>3d</fix>
</trkpt>
<trkpt lat="40.0713749" lon="-105.229789">
  <ele>1583.05</ele>
  <time>2026-08-28T17:56:40Z</time>
  <course>247.53</course>
  <speed>0.022360679774997897</speed>
  <fix>3d</fix>
</trkpt>
<trkpt lat="40.0713749" lon="-105.229789">
  <ele>1583.0</ele>
  <time>2026-08-28T17:56:40Z</time>
  <course>0.0</course>
  <speed>0.0</speed>
  <fix>3d</fix>
</trkpt>
<trkpt lat="40.071375" lon="-105.229789">
  <ele>1583.04</ele>
  <time>2026-08-28T17:56:40Z</time>
  <course>247.53</course>
  <speed>0.022360679774997897</speed>
  <fix>3d</fix>
</trkpt>
<trkpt lat="40.0713749" lon="-105.229789">
  <ele>1583.0</ele>
  <time>2026-08-28T17:56:40Z</time>
  <course>0.0</course>
  <speed>0.0</speed>
  <fix>3d</fix>
</trkpt>
<trkpt lat="40.071375" lon="-105.229789">
  <ele>1583.05</ele>
  <time>2026-08-28T17:56:40Z</time>
  <course>247.53</course>
  <speed>0.02</speed>
  <fix>3d</fix>
</trkpt>
<trkpt lat="40.0713749" lon="-105.229789">
  <ele>1583.0</ele>
  <time>2026-08-28T17:56:40Z</time>
  <course>0.0</course>
  <speed>0.0</speed>
  <fix>3d</fix>
</trkpt>
<trkpt lat="40.071375" lon="-105.229789">
  <ele>1583.05</ele>
  <time>2026-08-28T17:56:40Z</time>
  <course>247.52</course>
  <speed>0.02</speed>
  <fix>3d</fix>
</trkpt>
<trkpt lat="40.0713749" lon="-105.229789">
  <ele>1583.0</ele>
  <time>2026-08-28T17:56:40Z</time>
  <course>0.0</course>
  <speed>0.0</speed>
  <fix>3d</fix>
</trkpt>
<trkpt lat="40.071375" lon="-105.229789">
  <ele>1583.05</ele>
  <time>2026-08-28T17:56:40Z</time>
  <course>247.52</course>
  <speed>0.02</speed>
  <fix>3d</fix>
</trkpt>
<trkpt lat="40.0713749" lon="-105.229789">
  <ele>1583.0</ele>
  <time>2026-08-28T17:56:40Z</time>
  <course>0.0</course>
  <speed>0.0</speed>
  <fix>3d</fix>
</trkpt>
<trkpt lat="40.071375" lon="-105.229789">
  <ele>1583.06</ele>
  <time>2026-08-28T17:56:40Z</time>
  <course>247.52</course>
  <speed>0.01</speed>
  <fix>3d</fix>
</trkpt>
<trkpt lat="40.0713749" lon="-105.229789">
  <ele>1583.0</ele>
  <time>2026-08-28T17:56:40Z</time>
  <course>0.0</course>
  <speed>0.0</speed>
  <fix>3d</fix>
</trkpt>
<trkpt lat="40.071375" lon="-105.229789">
  <ele>1583.06</ele>
  <time>2026-08-28T17:56:40Z</time>
  <course>247.52</course>
  <speed>0.01</speed>
  <fix>3d</fix>
</trkpt>
<trkpt lat="40.0713749" lon="-105.229789">
  <ele>1583.0</ele>
  <time>2026-08-28T17:56:40Z</time>
  <course>0.0</course>
  <speed>0.0</speed>
  <fix>3d</fix>
</trkpt>
<trkpt lat="40.071375" lon="-105.229789">
  <ele>1583.06</ele>
  <time>2026-08-28T17:56:40Z</time>
  <course>247.51</course>
  <speed>0.01</speed>
  <fix>3d</fix>
</trkpt>
<trkpt lat="40.0713749" lon="-105.229789">
  <ele>1583.0</ele>
  <time>2026-08-28T17:56:40Z</time>
  <course>0.0</course>
  <speed>0.0</speed>
  <fix>3d</fix>
</trkpt>
<trkpt lat="40.0713749" lon="-105.229789">
  <ele>1583.06</ele>
  <time>2026-08-28T17:56:40Z</time>
  <course>247.51</course>
  <speed>0.01</speed>
  <fix>3d</fix>
</trkpt>
<trkpt lat="40.0713749" lon="-105.229789">
  <ele>1583.0</ele>
  <time>2026-08-28T17:56:40Z</time>
  <course>0.0</course>
  <speed>0.0</speed>
  <fix>3d</fix>
</trkpt>
<trkpt lat="40.0713749" lon="-105.229789">
  <ele>1583.06</ele>
  <time>2026-08-28T17:56:40Z</time>
  <course>247.51</course>
  <speed>0.01</speed>
  <fix>3d</fix>
</trkpt>
<trkpt lat="40.0713749" lon="-105.229789">
  <ele>1583.0</ele>
  <time>2026-08-28T17:56:40Z</time>
  <course>0.0</course>
  <speed>0.0</speed>
  <fix>3d</fix>
</trkpt>
<trkpt lat="40.0713749" lon="-105.229789">
  <ele>1583.07</ele>
  <time>2026-08-28T17:56:40Z</time>
  <course>247.51</course>
  <speed>0.01</speed>
  <fix>3d</fix>
</trkpt>
<trkpt lat="40.0713749" lon="-105.229789">
  <ele>1583.0</ele>
  <time>2026-08-28T17:56:40Z</time>
  <course>0.0</course>
  <speed>0.0</speed>
  <fix>3d</fix>
</trkpt>
<trkpt lat="40.0713749" lon="-105.229789">
  <ele>1583.07</ele>
  <time>2026-08-28T17:56:40Z</time>
  <course>247.51</course>
  <speed>0.01</speed>
  <fix>3d</fix>
</trkpt>
<trkpt lat="40.0713749" lon="-105.229789">
  <ele>1583.0</ele>
  <time>2026-08-28T17:56:40Z</time>
  <course>0.0</course>
  <speed>0.0</speed>
  <fix>3d</fix>
</trkpt>
<trkpt lat="40.0713749" lon="-105.229789">
  <ele>1583.07</ele>
  <time>2026-08-28T17:56:40Z</time>
  <course>247.5</course>
  <speed>0.01</speed>
  <fix>3d</fix>
</trkpt>
<trkpt lat="40.0713749" lon="-105.229789">
  <ele>1583.0</ele>
  <time>2026-08-28T17:56:40Z</time>
  <course>0.0</course>
  <speed>0.0</speed>
  <fix>3d</fix>
</trkpt>
<trkpt lat="40.0713749" lon="-105.229789">
  <ele>1583.08</ele>
  <time>2026-08-28T17:56:40Z</time>
  <course>247.5</course>
  <speed>0.01</speed>
  <fix>3d</fix>
</trkpt>
<trkpt lat="40.0713749" lon="-105.229789">
  <ele>1583.0</ele>
  <time>2026-08-28T17:56:40Z</time>
  <course>0.0</course>
  <speed>0.0</speed>
  <fix>3d</fix>
</trkpt>
<trkpt lat="40.0713749" lon="-105.229789">
  <ele>1583.08</ele>
  <time>2026-08-28T17:56:40Z</time>
  <course>247.5</course>
  <speed>0.01</speed>
  <fix>3d</fix>
</trkpt>
<trkpt lat="40.0713749" lon="-105.229789">
  <ele>1583.0</ele>
  <time>2026-08-28T17:56:40Z</time>
  <course>0.0</course>
  <speed>0.0</speed>
  <fix>3d</fix>
</trkpt>
<trkpt lat="40.0713749" lon="-105.229789">
  <ele>1583.09</ele>
  <time>2026-08-28T17:56:40Z</time>
  <course>247.5</course>
  <speed>0.01</speed>
  <fix>3d</fix>
</trkpt>
<trkpt lat="40.0713749" lon="-105.229789">
  <ele>1583.0</ele>
  <time>2026-08-28T17:56:40Z</time>
  <course>0.0</course>
  <speed>0.0</speed>
  <fix>3d</fix>
</trkpt>
<trkpt lat="40.0713749" lon="-105.229789">
  <ele>1583.09</ele>
  <time>2026-08-28T17:56:40Z</time>
  <course>247.5</course>
  <speed>0.01</speed>
  <fix>3d</fix>
</trkpt>
<trkpt lat="40.0713749" lon="-105.229789">
  <ele>1583.0</ele>
  <time>2026-08-28T17:56:40Z</time>
  <course>0.0</course>
  <speed>0.0</speed>
  <fix>3d</fix>
</trkpt>
<trkpt lat="40.0713749" lon="-105.229789">
  <ele>1583.1</ele>
  <time>2026-08-28T17:56:40Z</time>
  <course>247.49</course>
  <speed>0.0</speed>
  <fix>3d</fix>
</trkpt>
<trkpt lat="40.0713749" lon="-105.229789">
  <ele>1583.0</ele>
  <time>2026-08-28T17:56:40Z</time>
  <course>0.0</course>
  <speed>0.0</speed>
  <fix>3d</fix>
</trkpt>
<trkpt lat="40.0713749" lon="-105.229789">
  <ele>1583.1</ele>
  <time>2026-08-28T17:56:40Z</time>
  <course>247.49</course>
  <speed>0.0</speed>
  <fix>3d</fix>
</trkpt>
<trkpt lat="40.0713749" lon="-105.229789">
  <ele>1583.0</ele>
  <time>2026-08-28T17:56:40Z</time>
  <course>0.0</course>
  <speed>0.0</speed>
  <fix>3d</fix>
</trkpt>
<trkpt lat="40.0713749" lon="-105.229789">
  <ele>1583.11</ele>
  <time>2026-08-28T17:56:40Z</time>
  <course>247.49</course>
  <speed>0.0</speed>
  <fix>3d</fix>
</trkpt>
<trkpt lat="40.0713749" lon="-105.229789">
  <ele>1583.0</ele>
  <time>2026-08-28T17:56:40Z</time>
  <course>0.0</course>
  <speed>0.0</speed>
  <fix>3d</fix>
</trkpt>
<trkpt lat="40.0713749" lon="-105.229789">
  <ele>1583.11</ele>
  <time>2026-08-28T17:56:40Z</time>
  <course>247.49</course>
  <speed>0.0</speed>
  <fix>3d</fix>
</trkpt>
<trkpt lat="40.0713749" lon="-105.229789">
  <ele>1583.0</ele>
  <time>2026-08-28T17:56:40Z</time>
  <course>0.0</course>
  <speed>0.0</speed>
  <fix>3d</fix>
</trkpt>
<trkpt lat="40.0713749" lon="-105.229789">
  <ele>1583.12</ele>
  <time>2026-08-28T17:56:40Z</time>
  <course>247.49</course>
  <speed>0.0</speed>
  <fix>3d</fix>
</trkpt>
<trkpt lat="40.0713749" lon="-105.229789">
  <ele>1583.0</ele>
  <time>2026-08-28T17:56:40Z</time>
  <course>0.0</course>
  <speed>0.0</speed>
  <fix>3d</fix>
</trkpt>
<trkpt lat="40.0713749" lon="-105.229789">
  <ele>1583.12</ele>
  <time>2026-08-28T17:56:40Z</time>
  <course>247.48</course>
  <speed>0.0</speed>
  <fix>3d</fix>
</trkpt>
<trkpt lat="40.0713749" lon="-105.229789">
  <ele>1583.0</ele>
  <time>2026-08-28T17:56:40Z</time>
  <course>0.0</course>
  <speed>0.0</speed>
  <fix>3d</fix>
</trkpt>
<trkpt lat="40.0713749" lon="-105.229789">
  <ele>1583.12</ele>
  <time>2026-08-28T17:56:40Z</time>
  <course>247.48</course>
  <speed>0.0</speed>
  <fix>3d</fix>
</trkpt>
<trkpt lat="40.0713749" lon="-105.229789">
  <ele>1583.0</ele>
  <time>2026-08-28T17:56:40Z</time>
  <course>0.0</course>
  <speed>0.0</speed>
  <fix>3d</fix>
</trkpt>
<trkpt lat="40.0713749" lon="-105.229789">
  <ele>1583.13</ele>
  <time>2026-08-28T17:56:40Z</time>
  <course>247.41</course>
  <speed>0.0</speed>
  <fix>3d</fix>
</trkpt>
<trkpt lat="40.0713749" lon="-105.229789">
  <ele>1583.0</ele>
  <time>2026-08-28T17:56:40Z</time>
  <course>0.0</course>
  <speed>0.0</speed>
  <fix>3d</fix>
</trkpt>
<trkpt lat="40.0713749" lon="-105.229789">
  <ele>1583.13</ele>
  <time>2026-08-28T17:56:40Z</time>
  <course>247.29</course>
  <speed>0.0</speed>
  <fix>3d</fix>
</trkpt>
<trkpt lat="40.0713749" lon="-105.229789">
  <ele>1583.0</ele>
  <time>2026-08-28T17:56:40Z</time>
  <course>245.81</course>
  <speed>0.0</speed>
  <fix>3d</fix>
</trkpt>
<trkpt lat="40.0713749" lon="-105.229789">
  <ele>1583.13</ele>
  <time>2026-08-28T17:56:40Z</time>
  <course>247.08</course>
  <speed>0.0</speed>
  <fix>3d</fix>
</trkpt>
<trkpt lat="40.0713749" lon="-105.229789">
  <ele>1583.0</ele>
  <time>2026-08-28T17:56:40Z</time>
  <course>245.81</course>
  <speed>0.0</speed>
  <fix>3d</fix>
</trkpt>
<trkpt lat="40.0713749" lon="-105.229789">
  <ele>1583.14</ele>
  <time>2026-08-28T17:56:40Z</time>
  <course>246.79</course>
  <speed>0.01</speed>
  <fix>3d</fix>
</trkpt>
<trkpt lat="40.0713749" lon="-105.229789">
  <ele>1583.0</ele>
  <time>2026-08-28T17:56:40Z</time>
  <course>245.38</course>
  <speed>0.01</speed>
  <fix>3d</fix>
</trkpt>
<trkpt lat="40.0713749" lon="-105.229789">
  <ele>1583.14</ele>
  <time>2026-08-28T17:56:40Z</time>
  <course>246.42</course>
  <speed>0.02</speed>
  <fix>3d</fix>
</trkpt>
<trkpt lat="40.0713749" lon="-105.229789">
  <ele>1583.0</ele>
  <time>2026-08-28T17:56:40Z</time>
  <course>245.38</course>
  <speed>0.01</speed>
  <fix>3d</fix>
</trkpt>
<trkpt lat="40.0713749" lon="-105.229789">
  <ele>1583.14</ele>
  <time>2026-08-28T17:56:40Z</time>
  <course>246.01</course>
  <speed>0.0412310562561766</speed>
  <fix>3d</fix>
</trkpt>
<trkpt lat="40.0713749" lon="-105.229789">
  <ele>1583.0</ele>
  <time>2026-08-28T17:56:40Z</time>
  <course>244.74</course>
  <speed>0.03</speed>
  <fix>3d</fix>
</trkpt>
<trkpt lat="40.0713749" lon="-105.2297891">
  <ele>1583.14</ele>
  <time>2026-08-28T17:56:40Z</time>
  <course>245.55</course>
  <speed>0.0632455532033676</speed>
  <fix>3d</fix>
</trkpt>
<trkpt lat="40.0713749" lon="-105.229789">
  <ele>1583.0</ele>
  <time>2026-08-28T17:56:40Z</time>
  <course>244.74</course>
  <speed>0.03</speed>
  <fix>3d</fix>
</trkpt>
<trkpt lat="40.0713749" lon="-105.2297892">
  <ele>1583.13</ele>
  <time>2026-08-28T17:56:40Z</time>
  <course>245.04</course>
  <speed>0.0854400374531753</speed>
  <fix>3d</fix>
</trkpt>
<trkpt lat="40.0713749" lon="-105.2297891">
  <ele>1583.0</ele>
  <time>2026-08-28T17:56:40Z</time>
  <course>243.88</course>
  <speed>0.07</speed>
  <fix>3d</fix>
</trkpt>
<trkpt lat="40.0713749" lon="-105.2297893">
  <ele>1583.13</ele>
  <time>2026-08-28T17:56:40Z</time>
  <course>244.52</course>
  <speed>0.11704699910719625</speed>
  <fix>3d</fix>
</trkpt>
<trkpt lat="40.0713749" lon="-105.2297891">
  <ele>1583.0</ele>
  <time>2026-08-28T17:56:40Z</time>
  <course>243.88</course>
  <speed>0.07</speed>
  <fix>3d</fix>
</trkpt>
<trkpt lat="40.0713748" lon="-105.2297895">
  <ele>1583.13</ele>
  <time>2026-08-28T17:56:40Z</time>
  <course>243.96</course>
  <speed>0.15231546211727817</speed>
  <fix>3d</fix>
</trkpt>
<trkpt lat="40.0713749" lon="-105.2297891">
  <ele>1583.0</ele>
  <time>2026-08-28T17:56:40Z</time>
  <course>243.88</course>
  <speed>0.07</speed>
  <fix>3d</fix>
</trkpt>
<trkpt lat="40.0713747" lon="-105.2297897">
  <ele>1583.13</ele>
  <time>2026-08-28T17:56:40Z</time>
  <course>243.39</course>
  <speed>0.19697715603592209</speed>
  <fix>3d</fix>
</trkpt>
<trkpt lat="40.0713748" lon="-105.2297893">
  <ele>1583.0</ele>
  <time>2026-08-28T17:56:40Z</time>
  <course>242.88</course>
  <speed>0.13</speed>
  <fix>3d</fix>
</trkpt>
<trkpt lat="40.0713746" lon="-105.2297899">
  <ele>1583.13</ele>
  <time>2026-08-28T17:56:40Z</time>
  <course>242.82</course>
  <speed>0.24166091947189144</speed>
  <fix>3d</fix>
</trkpt>
<trkpt lat="40.0713748" lon="-105.2297893">
  <ele>1583.0</ele>
  <time>2026-08-28T17:56:40Z</time>
  <course>242.88</course>
  <speed>0.13</speed>
  <fix>3d</fix>
</trkpt>
<trkpt lat="40.0713745" lon="-105.2297902">
  <ele>1583.13</ele>
  <time>2026-08-28T17:56:40Z</time>
  <course>242.26</course>
  <speed>0.29966648127543394</speed>
  <fix>3d</fix>
</trkpt>
<trkpt lat="40.0713747" lon="-105.2297897">
  <ele>1583.0</ele>
  <time>2026-08-28T17:56:40Z</time>
  <course>241.79</course>
  <speed>0.21</speed>
  <fix>3d</fix>
</trkpt>
<trkpt lat="40.0713744" lon="-105.2297906">
  <ele>1583.13</ele>
  <time>2026-08-28T17:56:40Z</time>
  <course>241.72</course>
  <speed>0.35777087639996635</speed>
  <fix>3d</fix>
</trkpt>
<trkpt lat="40.0713747" lon="-105.2297897">
  <ele>1583.0</ele>
  <time>2026-08-28T17:56:40Z</time>
  <course>241.79</course>
  <speed>0.21</speed>
  <fix>3d</fix>
</trkpt>
<trkpt lat="40.0713742" lon="-105.229791">
  <ele>1583.13</ele>
  <time>2026-08-28T17:56:40Z</time>
  <course>241.22</course>
  <speed>0.4205948168962618</speed>
  <fix>3d</fix>
</trkpt>
<trkpt lat="40.0713745" lon="-105.2297902">
  <ele>1583.0</ele>
  <time>2026-08-28T17:56:40Z</time>
  <course>240.7</course>
  <speed>0.31</speed>
  <fix>3d</fix>
</trkpt>
<trkpt lat="40.071374" lon="-105.2297915">
  <ele>1583.13</ele>
  <time>2026-08-28T17:56:40Z</time>
  <course>240.75</course>
  <speed>0.4876474136094644</speed>
  <fix>3d</fix>
</trkpt>
<trkpt lat="40.0713741" lon="-105.229791">
  <ele>1583.0</ele>
  <time>2026-08-28T17:56:40Z</time>
  <course>239.7</course>
  <speed>0.43</speed>
  <fix>3d</fix>
</trkpt>
<trkpt lat="40.0713737" lon="-105.229792">
  <ele>1583.13</ele>
  <time>2026-08-28T17:56:40Z</time>
  <course>240.35</course>
  <speed>0.5594640292279746</speed>
  <fix>3d</fix>
</trkpt>
<trkpt lat="40.0713741" lon="-105.229791">
  <ele>1583.0</ele>
  <time>2026-08-28T17:56:40Z</time>
  <course>239.7</course>
  <speed>0.43</speed>
  <fix>3d</fix>
</trkpt>
<trkpt lat="40.0713735" lon="-105.2297927">
  <ele>1583.14</ele>
  <time>2026-08-28T17:56:40Z</time>
  <course>239.99</course>
  <speed>0.6449806198638839</speed>
  <fix>3d</fix>
</trkpt>
<trkpt lat="40.0713737" lon="-105.229792">
  <ele>1583.0</ele>
  <time>2026-08-28T17:56:40Z</time>
  <course>238.86</course>
  <speed>0.57</speed>
  <fix>3d</fix>
</trkpt>
<trkpt lat="40.0713731" lon="-105.2297934">
  <ele>1583.14</ele>
  <time>2026-08-28T17:56:40Z</time>
  <course>239.68</course>
  <speed>0.7256031973468694</speed>
  <fix>3d</fix>
</trkpt>
<trkpt lat="40.0713737" lon="-105.229792">
  <ele>1583.0</ele>
  <time>2026-08-28T17:56:40Z</time>
  <course>238.86</course>
  <speed>0.57</speed>
  <fix>3d</fix>
</trkpt>
<trkpt lat="40.0713728" lon="-105.2297942">
  <ele>1583.14</ele>
  <time>2026-08-28T17:56:40Z</time>
  <course>239.41</course>
  <speed>0.8112336284942827</speed>
  <fix>3d</fix>
</trkpt>
<trkpt lat="40.0713731" lon="-105.2297933">
  <ele>1583.0</ele>
  <time>2026-08-28T17:56:40Z</time>
  <course>238.22</course>
  <speed>0.73</speed>
  <fix>3d</fix>
</trkpt>
<trkpt lat="40.0713723" lon="-105.2297951">
  <ele>1583.14</ele>
  <time>2026-08-28T17:56:40Z</time>
  <course>239.19</course>
  <speed>0.8918520056601319</speed>
  <fix>3d</fix>
</trkpt>
<trkpt lat="40.0713731" lon="-105.2297933">
  <ele>1583.0</ele>
  <time>2026-08-28T17:56:40Z</time>
  <course>238.22</course>
  <speed>0.73</speed>
  <fix>3d</fix>
</trkpt>
<trkpt lat="40.0713719" lon="-105.229796">
  <ele>1583.15</ele>
  <time>2026-08-28T17:56:40Z</time>
  <course>239.0</course>
  <speed>0.9775479527879949</speed>
  <fix>3d</fix>
</trkpt>
<trkpt lat="40.0713723" lon="-105.229795">
  <ele>1583.0</ele>
  <time>2026-08-28T17:56:40Z</time>
  <course>237.74</course>
  <speed>0.89</speed>
  <fix>3d</fix>
</trkpt>
<trkpt lat="40.0713714" lon="-105.2297971">
  <ele>1583.15</ele>
  <time>2026-08-28T17:56:40Z</time>
  <course>238.86</course>
  <speed>1.063296760081587</speed>
  <fix>3d</fix>
</trkpt>
<trkpt lat="40.0713723" lon="-105.229795">
  <ele>1583.0</ele>
  <time>2026-08-28T17:56:40Z</time>
  <course>237.74</course>
  <speed>0.89</speed>
  <fix>3d</fix>
</trkpt>
<trkpt lat="40.0713709" lon="-105.2297982">
  <ele>1583.15</ele>
  <time>2026-08-28T17:56:40Z</time>
  <course>238.75</course>
  <speed>1.1438968484964018</speed>
  <fix>3d</fix>
</trkpt>
<trkpt lat="40.0713713" lon="-105.2297969">
  <ele>1583.0</ele>
  <time>2026-08-28T17:56:40Z</time>
  <course>237.43</course>
  <speed>1.06</speed>
  <fix>3d</fix>
</trkpt>
<trkpt lat="40.0713703" lon="-105.2297995">
  <ele>1583.15</ele>
  <time>2026-08-28T17:56:40Z</time>
  <course>238.67</course>
  <speed>1.2382245353731285</speed>
  <fix>3d</fix>
</trkpt>
<trkpt lat="40.0713713" lon="-105.2297969">
  <ele>1583.0</ele>
  <time>2026-08-28T17:56:40Z</time>
  <course>237.43</course>
  <speed>1.06</speed>
  <fix>3d</fix>
</trkpt>
<trkpt lat="40.0713696" lon="-105.2298008">
  <ele>1583.15</ele>
  <time>2026-08-28T17:56:40Z</time>
  <course>238.6</course>
  <speed>1.3240090634130872</speed>
  <fix>3d</fix>
</trkpt>
<trkpt lat="40.0713703" lon="-105.2297992">
  <ele>1583.0</ele>
  <time>2026-08-28T17:56:40Z</time>
  <course>237.25</course>
  <speed>1.24</speed>
  <fix>3d</fix>
</trkpt>
<trkpt lat="40.0713689" lon="-105.2298022">
  <ele>1583.15</ele>
  <time>2026-08-28T17:56:40Z</time>
  <course>238.55</course>
  <speed>1.418344104933637</speed>
  <fix>3d</fix>
</trkpt>
<trkpt lat="40.0713703" lon="-105.2297992">
  <ele>1583.0</ele>
  <time>2026-08-28T17:56:41Z</time>
  <course>237.25</course>
  <speed>1.24</speed>
  <fix>3d</fix>
</trkpt>
<trkpt lat="40.0713682" lon="-105.2298037">
  <ele>1583.15</ele>
  <time>2026-08-28T17:56:41Z</time>
  <course>238.52</course>
  <speed>1.5126797413861268</speed>
  <fix>3d</fix>
</trkpt>
<trkpt lat="40.071369" lon="-105.2298017">
  <ele>1583.0</ele>
  <time>2026-08-28T17:56:41Z</time>
  <course>237.15</course>
  <speed>1.42</speed>
  <fix>3d</fix>
</trkpt>
<trkpt lat="40.0713675" lon="-105.2298052">
  <ele>1583.15</ele>
  <time>2026-08-28T17:56:41Z</time>
  <course>238.49</course>
  <speed>1.6070158679988196</speed>
  <fix>3d</fix>
</trkpt>
<trkpt lat="40.071369" lon="-105.2298017">
  <ele>1583.0</ele>
  <time>2026-08-28T17:56:41Z</time>
  <course>237.15</course>
  <speed>1.42</speed>
  <fix>3d</fix>
</trkpt>
<trkpt lat="40.0713667" lon="-105.2298069">
  <ele>1583.15</ele>
  <time>2026-08-28T17:56:41Z</time>
  <course>238.47</course>
  <speed>1.7013524032369074</speed>
  <fix>3d</fix>
</trkpt>
<trkpt lat="40.071369" lon="-105.2298017">
  <ele>1583.0</ele>
  <time>2026-08-28T17:56:41Z</time>
  <course>237.15</course>
  <speed>1.42</speed>
  <fix>3d</fix>
</trkpt>
<trkpt lat="40.0713658" lon="-105.2298087">
  <ele>1583.15</ele>
  <time>2026-08-28T17:56:41Z</time>
  <course>238.46</course>
  <speed>1.7956892826989863</speed>
  <fix>3d</fix>
</trkpt>
<trkpt lat="40.0713674" lon="-105.2298048">
  <ele>1583.0</ele>
  <time>2026-08-28T17:56:41Z</time>
  <course>237.1</course>
  <speed>1.6</speed>
  <fix>3d</fix>
</trkpt>
<trkpt lat="40.0713649" lon="-105.2298105">
  <ele>1583.15</ele>
  <time>2026-08-28T17:56:41Z</time>
  <course>238.46</course>
  <speed>1.890026454841307</speed>
  <fix>3d</fix>
</trkpt>
<trkpt lat="40.0713674" lon="-105.2298048">
  <ele>1583.0</ele>
  <time>2026-08-28T17:56:41Z</time>
  <course>237.1</course>
  <speed>1.6</speed>
  <fix>3d</fix>
</trkpt>
<trkpt lat="40.0713639" lon="-105.2298124">
  <ele>1583.15</ele>
  <time>2026-08-28T17:56:41Z</time>
  <course>238.46</course>
  <speed>1.9896230798822174</speed>
  <fix>3d</fix>
</trkpt>
<trkpt lat="40.0713658" lon="-105.2298081">
  <ele>1583.0</ele>
  <time>2026-08-28T17:56:41Z</time>
  <course>237.08</course>
  <speed>1.79</speed>
  <fix>3d</fix>
</trkpt>
<trkpt lat="40.071363" lon="-105.2298144">
  <ele>1583.16</ele>
  <time>2026-08-28T17:56:41Z</time>
  <course>238.46</course>
  <speed>2.083962571640863</speed>
  <fix>3d</fix>
</trkpt>
<trkpt lat="40.0713658" lon="-105.2298081">
  <ele>1583.0</ele>
  <time>2026-08-28T17:56:41Z</time>
  <course>237.08</course>
  <speed>1.79</speed>
  <fix>3d</fix>
</trkpt>
<trkpt lat="40.0713619" lon="-105.2298165">
  <ele>1583.16</ele>
  <time>2026-08-28T17:56:41Z</time>
  <course>238.48</course>
  <speed>2.1783020910791966</speed>
  <fix>3d</fix>
</trkpt>
<trkpt lat="40.071364" lon="-105.2298118">
  <ele>1583.0</ele>
  <time>2026-08-28T17:56:41Z</time>
  <course>237.1</course>
  <speed>1.98</speed>
  <fix>3d</fix>
</trkpt>
<trkpt lat="40.0713608" lon="-105.2298187">
  <ele>1583.15</ele>
  <time>2026-08-28T17:56:41Z</time>
  <course>238.48</course>
  <speed>2.2726416347501863</speed>
  <fix>3d</fix>
</trkpt>
<trkpt lat="40.071364" lon="-105.2298118">
  <ele>1583.0</ele>
  <time>2026-08-28T17:56:41Z</time>
  <course>237.1</course>
  <speed>1.98</speed>
  <fix>3d</fix>
</trkpt>
<trkpt lat="40.0713597" lon="-105.2298211">
  <ele>1583.15</ele>
  <time>2026-08-28T17:56:41Z</time>
  <course>238.5</course>
  <speed>2.375478899085403</speed>
  <fix>3d</fix>
</trkpt>
<trkpt lat="40.0713619" lon="-105.2298159">
  <ele>1583.0</ele>
  <time>2026-08-28T17:56:41Z</time>
  <course>237.13</course>
  <speed>2.17</speed>
  <fix>3d</fix>
</trkpt>
<trkpt lat="40.0713585" lon="-105.2298235">
  <ele>1583.15</ele>
  <time>2026-08-28T17:56:41Z</time>
  <course>238.51</course>
  <speed>2.4698178070456938</speed>
  <fix>3d</fix>
</trkpt>
<trkpt lat="40.0713597" lon="-105.2298204">
  <ele>1583.0</ele>
  <time>2026-08-28T17:56:41Z</time>
  <course>237.18</course>
  <speed>2.37</speed>
  <fix>3d</fix>
</trkpt>
<trkpt lat="40.0713573" lon="-105.229826">
  <ele>1583.15</ele>
  <time>2026-08-28T17:56:41Z</time>
  <course>238.53</course>
  <speed>2.569435735720977</speed>
  <fix>3d</fix>
</trkpt>
<trkpt lat="40.0713597" lon="-105.2298204">
  <ele>1583.0</ele>
  <time>2026-08-28T17:56:41Z</time>
  <course>237.18</course>
  <speed>2.37</speed>
  <fix>3d</fix>
</trkpt>
<trkpt lat="40.071356" lon="-105.2298286">
  <ele>1583.15</ele>
  <time>2026-08-28T17:56:41Z</time>
  <course>238.55</course>
  <speed>2.663775516067373</speed>
  <fix>3d</fix>
</trkpt>
<trkpt lat="40.0713573" lon="-105.2298253">
  <ele>1583.0</ele>
  <time>2026-08-28T17:56:41Z</time>
  <course>237.23</course>
  <speed>2.56</speed>
  <fix>3d</fix>
</trkpt>
<trkpt lat="40.0713547" lon="-105.2298313">
  <ele>1583.14</ele>
  <time>2026-08-28T17:56:41Z</time>
  <course>238.57</course>
  <speed>2.744339629127561</speed>
  <fix>3d</fix>
</trkpt>
<trkpt lat="40.0713573" lon="-105.2298253">
  <ele>1583.0</ele>
  <time>2026-08-28T17:56:41Z</time>
  <course>237.23</course>
  <speed>2.56</speed>
  <fix>3d</fix>
</trkpt>
<trkpt lat="40.0713533" lon="-105.2298341">
  <ele>1583.14</ele>
  <time>2026-08-28T17:56:41Z</time>
  <course>238.59</course>
  <speed>2.824907078117792</speed>
  <fix>3d</fix>
</trkpt>
<trkpt lat="40.0713547" lon="-105.2298305">
  <ele>1583.0</ele>
  <time>2026-08-28T17:56:41Z</time>
  <course>237.29</course>
  <speed>2.74</speed>
  <fix>3d</fix>
</trkpt>
<trkpt lat="40.0713519" lon="-105.229837">
  <ele>1583.14</ele>
  <time>2026-08-28T17:56:41Z</time>
  <course>238.62</course>
  <speed>2.8969811873741946</speed>
  <fix>3d</fix>
</trkpt>
<trkpt lat="40.0713547" lon="-105.2298305">
  <ele>1583.0</ele>
  <time>2026-08-28T17:56:41Z</time>
  <course>237.29</course>
  <speed>2.74</speed>
  <fix>3d</fix>
</trkpt>
<trkpt lat="40.0713504" lon="-105.2298399">
  <ele>1583.14</ele>
  <time>2026-08-28T17:56:41Z</time>
  <course>238.65</course>
  <speed>2.9467948690059846</speed>
  <fix>3d</fix>
</trkpt>
<trkpt lat="40.071352" lon="-105.2298361">
  <ele>1583.0</ele>
  <time>2026-08-28T17:56:41Z</time>
  <course>237.37</course>
  <speed>2.88</speed>
  <fix>3d</fix>
</trkpt>
<trkpt lat="40.071349" lon="-105.2298429">
  <ele>1583.14</ele>
  <time>2026-08-28T17:56:41Z</time>
  <course>238.68</course>
  <speed>2.999816661064472</speed>
  <fix>3d</fix>
</trkpt>
<trkpt lat="40.071352" lon="-105.2298361">
  <ele>1583.0</ele>
  <time>2026-08-28T17:56:41Z</time>
  <course>237.37</course>
  <speed>2.88</speed>
  <fix>3d</fix>
</trkpt>
<trkpt lat="40.0713475" lon="-105.2298459">
  <ele>1583.14</ele>
  <time>2026-08-28T17:56:41Z</time>
  <course>238.72</course>
  <speed>3.035852433831394</speed>
  <fix>3d</fix>
</trkpt>
<trkpt lat="40.0713491" lon="-105.2298419">
  <ele>1583.0</ele>
  <time>2026-08-28T17:56:41Z</time>
  <course>237.46</course>
  <speed>2.98</speed>
  <fix>3d</fix>
</trkpt>
<trkpt lat="40.071346" lon="-105.229849">
  <ele>1583.13</ele>
  <time>2026-08-28T17:56:41Z</time>
  <course>238.75</course>
  <speed>3.0581203377238113</speed>
  <fix>3d</fix>
</trkpt>
<trkpt lat="40.0713491" lon="-105.2298419">
  <ele>1583.0</ele>
  <time>2026-08-28T17:56:41Z</time>
  <course>237.46</course>
  <speed>2.98</speed>
  <fix>3d</fix>
</trkpt>
<trkpt lat="40.0713445" lon="-105.229852">
  <ele>1583.13</ele>
  <time>2026-08-28T17:56:41Z</time>
  <course>238.79</course>
  <speed>3.0718886698576826</speed>
  <fix>3d</fix>
</trkpt>
<trkpt lat="40.0713462" lon="-105.2298479">
  <ele>1583.0</ele>
  <time>2026-08-28T17:56:41Z</time>
  <course>237.54</course>
  <speed>3.04</speed>
  <fix>3d</fix>
</trkpt>
<trkpt lat="40.071343" lon="-105.2298551">
  <ele>1583.13</ele>
  <time>2026-08-28T17:56:41Z</time>
  <course>238.82</course>
  <speed>3.0718886698576826</speed>
  <fix>3d</fix>
</trkpt>
<trkpt lat="40.0713462" lon="-105.2298479">
  <ele>1583.0</ele>
  <time>2026-08-28T17:56:41Z</time>
  <course>237.54</course>
  <speed>3.04</speed>
  <fix>3d</fix>
</trkpt>
<trkpt lat="40.0713415" lon="-105.2298582">
  <ele>1583.13</ele>
  <time>2026-08-28T17:56:41Z</time>
  <course>238.87</course>
  <speed>3.0718886698576826</speed>
  <fix>3d</fix>
</trkpt>
<trkpt lat="40.0713462" lon="-105.2298479">
  <ele>1583.0</ele>
  <time>2026-08-28T17:56:41Z</time>
  <course>237.54</course>
  <speed>3.04</speed>
  <fix>3d</fix>
</trkpt>
<trkpt lat="40.0713401" lon="-105.2298612">
  <ele>1583.14</ele>
  <time>2026-08-28T17:56:41Z</time>
  <course>238.91</course>
  <speed>3.0718886698576826</speed>
  <fix>3d</fix>
</trkpt>
<trkpt lat="40.0713432" lon="-105.229854">
  <ele>1583.0</ele>
  <time>2026-08-28T17:56:41Z</time>
  <course>237.64</course>
  <speed>3.06</speed>
  <fix>3d</fix>
</trkpt>
<trkpt lat="40.0713386" lon="-105.2298643">
  <ele>1583.14</ele>
  <time>2026-08-28T17:56:41Z</time>
  <course>238.96</course>
  <speed>3.0581203377238113</speed>
  <fix>3d</fix>
</trkpt>
<trkpt lat="40.0713432" lon="-105.229854">
  <ele>1583.0</ele>
  <time>2026-08-28T17:56:41Z</time>
  <course>237.64</course>
  <speed>3.06</speed>
  <fix>3d</fix>
</trkpt>
<trkpt lat="40.0713371" lon="-105.2298673">
  <ele>1583.14</ele>
  <time>2026-08-28T17:56:41Z</time>
  <course>239.01</course>
  <speed>3.0581203377238113</speed>
  <fix>3d</fix>
</trkpt>
<trkpt lat="40.0713403" lon="-105.2298601">
  <ele>1583.0</ele>
  <time>2026-08-28T17:56:41Z</time>
  <course>237.73</course>
  <speed>3.06</speed>
  <fix>3d</fix>
</trkpt>
<trkpt lat="40.0713357" lon="-105.2298703">
  <ele>1583.14</ele>
  <time>2026-08-28T17:56:41Z</time>
  <course>239.05</course>
  <speed>3.0443554325998137</speed>
  <fix>3d</fix>
</trkpt>
<trkpt lat="40.0713403" lon="-105.2298601">
  <ele>1583.0</ele>
  <time>2026-08-28T17:56:41Z</time>
  <course>237.73</course>
  <speed>3.06</speed>
  <fix>3d</fix>
</trkpt>
<trkpt lat="40.0713342" lon="-105.2298733">
  <ele>1583.14</ele>
  <time>2026-08-28T17:56:41Z</time>
  <course>239.09</course>
  <speed>3.0305940011819468</speed>
  <fix>3d</fix>
</trkpt>
<trkpt lat="40.0713374" lon="-105.2298662">
  <ele>1583.0</ele>
  <time>2026-08-28T17:56:41Z</time>
  <course>237.84</course>
  <speed>3.05</speed>
  <fix>3d</fix>
</trkpt>
<trkpt lat="40.0713328" lon="-105.2298763">
  <ele>1583.15</ele>
  <time>2026-08-28T17:56:41Z</time>
  <course>239.14</course>
  <speed>3.0220853727186467</speed>
  <fix>3d</fix>
</trkpt>
<trkpt lat="40.0713374" lon="-105.2298662">
  <ele>1583.0</ele>
  <time>2026-08-28T17:56:41Z</time>
  <course>237.84</course>
  <speed>3.05</speed>
  <fix>3d</fix>
</trkpt>
<trkpt lat="40.0713313" lon="-105.2298792">
  <ele>1583.15</ele>
  <time>2026-08-28T17:56:41Z</time>
  <course>239.18</course>
  <speed>3.016836091006603</speed>
  <fix>3d</fix>
</trkpt>
<trkpt lat="40.0713345" lon="-105.2298722">
  <ele>1583.0</ele>
  <time>2026-08-28T17:56:41Z</time>
  <course>237.93</course>
  <speed>3.03</speed>
  <fix>3d</fix>
</trkpt>
<trkpt lat="40.0713299" lon="-105.2298822">
  <ele>1583.14</ele>
  <time>2026-08-28T17:56:41Z</time>
  <course>239.23</course>
  <speed>3.0083217912982643</speed>
  <fix>3d</fix>
</trkpt>
<trkpt lat="40.0713316" lon="-105.2298783">
  <ele>1583.0</ele>
  <time>2026-08-28T17:56:41Z</time>
  <course>238.03</course>
  <speed>3.02</speed>
  <fix>3d</fix>
</trkpt>
<trkpt lat="40.0713285" lon="-105.2298852">
  <ele>1583.14</ele>
  <time>2026-08-28T17:56:41Z</time>
  <course>239.26</course>
  <speed>3.0030817504690077</speed>
  <fix>3d</fix>
</trkpt>
<trkpt lat="40.0713316" lon="-105.2298783">
  <ele>1583.0</ele>
  <time>2026-08-28T17:56:41Z</time>
  <course>238.03</course>
  <speed>3.02</speed>
  <fix>3d</fix>
</trkpt>
<trkpt lat="40.071327" lon="-105.2298882">
  <ele>1583.14</ele>
  <time>2026-08-28T17:56:41Z</time>
  <course>239.32</course>
  <speed>2.9945617375502547</speed>
  <fix>3d</fix>
</trkpt>
<trkpt lat="40.0713288" lon="-105.2298843">
  <ele>1583.0</ele>
  <time>2026-08-28T17:56:41Z</time>
  <course>238.11</course>
  <speed>3.01</speed>
  <fix>3d</fix>
</trkpt>
<trkpt lat="40.0713256" lon="-105.2298912">
  <ele>1583.14</ele>
  <time>2026-08-28T17:56:41Z</time>
  <course>239.35</course>
  <speed>2.9893310288424066</speed>
  <fix>3d</fix>
</trkpt>
<trkpt lat="40.0713288" lon="-105.2298843">
  <ele>1583.0</ele>
  <time>2026-08-28T17:56:41Z</time>
  <course>238.11</course>
  <speed>3.01</speed>
  <fix>3d</fix>
</trkpt>
<trkpt lat="40.0713242" lon="-105.2298942">
  <ele>1583.14</ele>
  <time>2026-08-28T17:56:41Z</time>
  <course>239.39</course>
  <speed>2.9893310288424066</speed>
  <fix>3d</fix>
</trkpt>
<trkpt lat="40.0713259" lon="-105.2298902">
  <ele>1583.0</ele>
  <time>2026-08-28T17:56:41Z</time>
  <course>238.19</course>
  <speed>3.0</speed>
  <fix>3d</fix>
</trkpt>
<trkpt lat="40.0713228" lon="-105.2298972">
  <ele>1583.14</ele>
  <time>2026-08-28T17:56:41Z</time>
  <course>239.42</course>
  <speed>2.980805260328155</speed>
  <fix>3d</fix>
</trkpt>
<trkpt lat="40.0713259" lon="-105.2298902">
  <ele>1583.0</ele>
  <time>2026-08-28T17:56:41Z</time>
  <course>238.19</course>
  <speed>3.0</speed>
  <fix>3d</fix>
</trkpt>
<trkpt lat="40.0713213" lon="-105.2299002">
  <ele>1583.14</ele>
  <time>2026-08-28T17:56:41Z</time>
  <course>239.45</course>
  <speed>2.975583976297762</speed>
  <fix>3d</fix>
</trkpt>
<trkpt lat="40.0713231" lon="-105.2298963">
  <ele>1583.0</ele>
  <time>2026-08-28T17:56:41Z</time>
  <course>238.26</course>
  <speed>2.99</speed>
  <fix>3d</fix>
</trkpt>
<trkpt lat="40.0713199" lon="-105.2299032">
  <ele>1583.15</ele>
  <time>2026-08-28T17:56:41Z</time>
  <course>239.48</course>
  <speed>2.975583976297762</speed>
  <fix>3d</fix>
</trkpt>
<trkpt lat="40.0713231" lon="-105.2298963">
  <ele>1583.0</ele>
  <time>2026-08-28T17:56:41Z</time>
  <course>238.26</course>
  <speed>2.99</speed>
  <fix>3d</fix>
</trkpt>
<trkpt lat="40.0713185" lon="-105.2299062">
  <ele>1583.15</ele>
  <time>2026-08-28T17:56:41Z</time>
  <course>239.52</course>
  <speed>2.975583976297762</speed>
  <fix>3d</fix>
</trkpt>
<trkpt lat="40.0713202" lon="-105.2299022">
  <ele>1583.0</ele>
  <time>2026-08-28T17:56:41Z</time>
  <course>238.32</course>
  <speed>2.99</speed>
  <fix>3d</fix>
</trkpt>
<trkpt lat="40.0713171" lon="-105.2299092">
  <ele>1583.15</ele>
  <time>2026-08-28T17:56:41Z</time>
  <course>239.54</course>
  <speed>2.967052409378709</speed>
  <fix>3d</fix>
</trkpt>
<trkpt lat="40.0713202" lon="-105.2299022">
  <ele>1583.0</ele>
  <time>2026-08-28T17:56:41Z</time>
  <course>238.32</course>
  <speed>2.99</speed>
  <fix>3d</fix>
</trkpt>
<trkpt lat="40.0713157" lon="-105.2299122">
  <ele>1583.15</ele>
  <time>2026-08-28T17:56:41Z</time>
  <course>239.57</course>
  <speed>2.9618406439239773</speed>
  <fix>3d</fix>
</trkpt>
<trkpt lat="40.0713174" lon="-105.2299083">
  <ele>1583.0</ele>
  <time>2026-08-28T17:56:41Z</time>
  <course>238.38</course>
  <speed>2.98</speed>
  <fix>3d</fix>
</trkpt>
<trkpt lat="40.0713143" lon="-105.2299152">
  <ele>1583.14</ele>
  <time>2026-08-28T17:56:41Z</time>
  <course>239.6</course>
  <speed>2.9618406439239773</speed>
  <fix>3d</fix>
</trkpt>
<trkpt lat="40.0713174" lon="-105.2299083">
  <ele>1583.0</ele>
  <time>2026-08-28T17:56:41Z</time>
  <course>238.38</course>
  <speed>2.98</speed>
  <fix>3d</fix>
</trkpt>
<trkpt lat="40.0713129" lon="-105.2299181">
  <ele>1583.15</ele>
  <time>2026-08-28T17:56:41Z</time>
  <course>239.63</course>
  <speed>2.9618406439239773</speed>
  <fix>3d</fix>
</trkpt>
<trkpt lat="40.0713145" lon="-105.2299142">
  <ele>1583.0</ele>
  <time>2026-08-28T17:56:41Z</time>
  <course>238.43</course>
  <speed>2.98</speed>
  <fix>3d</fix>
</trkpt>
<trkpt lat="40.0713115" lon="-105.2299211">
  <ele>1583.14</ele>
  <time>2026-08-28T17:56:41Z</time>
  <course>239.65</course>
  <speed>2.9618406439239773</speed>
  <fix>3d</fix>
</trkpt>
<trkpt lat="40.0713145" lon="-105.2299142">
  <ele>1583.0</ele>
  <time>2026-08-28T17:56:41Z</time>
  <course>238.43</course>
  <speed>2.98</speed>
  <fix>3d</fix>
</trkpt>
<trkpt lat="40.0713101" lon="-105.2299241">
  <ele>1583.15</ele>
  <time>2026-08-28T17:56:41Z</time>
  <course>239.66</course>
  <speed>2.9618406439239773</speed>
  <fix>3d</fix>
</trkpt>
<trkpt lat="40.0713145" lon="-105.2299142">
  <ele>1583.0</ele>
  <time>2026-08-28T17:56:41Z</time>
  <course>238.43</course>
  <speed>2.98</speed>
  <fix>3d</fix>
</trkpt>
<trkpt lat="40.0713087" lon="-105.2299271">
  <ele>1583.15</ele>
  <time>2026-08-28T17:56:41Z</time>
  <course>239.67</course>
  <speed>2.9533032353620583</speed>
  <fix>3d</fix>
</trkpt>
<trkpt lat="40.0713118" lon="-105.2299202">
  <ele>1583.0</ele>
  <time>2026-08-28T17:56:41Z</time>
  <course>238.46</course>
  <speed>2.98</speed>
  <fix>3d</fix>
</trkpt>
<trkpt lat="40.0713073" lon="-105.2299301">
  <ele>1583.15</ele>
  <time>2026-08-28T17:56:41Z</time>
  <course>239.69</course>
  <speed>2.948101083748656</speed>
  <fix>3d</fix>
</trkpt>
<trkpt lat="40.0713118" lon="-105.2299202">
  <ele>1583.0</ele>
  <time>2026-08-28T17:56:41Z</time>
  <course>238.46</course>
  <speed>2.98</speed>
  <fix>3d</fix>
</trkpt>
<trkpt lat="40.0713059" lon="-105.229933">
  <ele>1583.15</ele>
  <time>2026-08-28T17:56:41Z</time>
  <course>239.71</course>
  <speed>2.948101083748656</speed>
  <fix>3d</fix>
</trkpt>
<trkpt lat="40.071309" lon="-105.2299262">
  <ele>1583.0</ele>
  <time>2026-08-28T17:56:41Z</time>
  <course>238.48</course>
  <speed>2.97</speed>
  <fix>3d</fix>
</trkpt>
<trkpt lat="40.0713045" lon="-105.229936">
  <ele>1583.16</ele>
  <time>2026-08-28T17:56:41Z</time>
  <course>239.72</course>
  <speed>2.948101083748656</speed>
  <fix>3d</fix>
</trkpt>
<trkpt lat="40.071309" lon="-105.2299262">
  <ele>1583.0</ele>
  <time>2026-08-28T17:56:41Z</time>
  <course>238.48</course>
  <speed>2.97</speed>
  <fix>3d</fix>
</trkpt>
<trkpt lat="40.0713031" lon="-105.2299389">
  <ele>1583.16</ele>
  <time>2026-08-28T17:56:41Z</time>
  <course>239.74</course>
  <speed>2.948101083748656</speed>
  <fix>3d</fix>
</trkpt>
<trkpt lat="40.0713061" lon="-105.2299321">
  <ele>1583.0</ele>
  <time>2026-08-28T17:56:41Z</time>
  <course>238.51</course>
  <speed>2.97</speed>
  <fix>3d</fix>
</trkpt>
<trkpt lat="40.0713017" lon="-105.2299419">
  <ele>1583.16</ele>
  <time>2026-08-28T17:56:41Z</time>
  <course>239.76</course>
  <speed>2.948101083748656</speed>
  <fix>3d</fix>
</trkpt>
<trkpt lat="40.0713034" lon="-105.2299381">
  <ele>1583.0</ele>
  <time>2026-08-28T17:56:41Z</time>
  <course>238.54</course>
  <speed>2.97</speed>
  <fix>3d</fix>
</trkpt>
<trkpt lat="40.0713003" lon="-105.2299448">
  <ele>1583.16</ele>
  <time>2026-08-28T17:56:41Z</time>
  <course>239.78</course>
  <speed>2.948101083748656</speed>
  <fix>3d</fix>
</trkpt>
<trkpt lat="40.0713034" lon="-105.2299381">
  <ele>1583.0</ele>
  <time>2026-08-28T17:56:41Z</time>
  <course>238.54</course>
  <speed>2.97</speed>
  <fix>3d</fix>
</trkpt>
<trkpt lat="40.0712989" lon="-105.2299478">
  <ele>1583.17</ele>
  <time>2026-08-28T17:56:41Z</time>
  <course>239.79</course>
  <speed>2.948101083748656</speed>
  <fix>3d</fix>
</trkpt>
<trkpt lat="40.0713006" lon="-105.229944">
  <ele>1583.0</ele>
  <time>2026-08-28T17:56:41Z</time>
  <course>238.56</course>
  <speed>2.98</speed>
  <fix>3d</fix>
</trkpt>
<trkpt lat="40.0712975" lon="-105.2299508">
  <ele>1583.17</ele>
  <time>2026-08-28T17:56:41Z</time>
  <course>239.8</course>
  <speed>2.948101083748656</speed>
  <fix>3d</fix>
</trkpt>
<trkpt lat="40.0713006" lon="-105.229944">
  <ele>1583.0</ele>
  <time>2026-08-28T17:56:41Z</time>
  <course>238.56</course>
  <speed>2.98</speed>
  <fix>3d</fix>
</trkpt>
<trkpt lat="40.0712962" lon="-105.2299538">
  <ele>1583.17</ele>
  <time>2026-08-28T17:56:41Z</time>
  <course>239.8</course>
  <speed>2.948101083748656</speed>
  <fix>3d</fix>
</trkpt>
<trkpt lat="40.0712978" lon="-105.22995">
  <ele>1583.0</ele>
  <time>2026-08-28T17:56:41Z</time>
  <course>238.58</course>
  <speed>2.98</speed>
  <fix>3d</fix>
</trkpt>
<trkpt lat="40.0712948" lon="-105.2299568">
  <ele>1583.17</ele>
  <time>2026-08-28T17:56:41Z</time>
  <course>239.81</course>
  <speed>2.948101083748656</speed>
  <fix>3d</fix>
</trkpt>
<trkpt lat="40.0712978" lon="-105.22995">
  <ele>1583.0</ele>
  <time>2026-08-28T17:56:41Z</time>
  <course>238.58</course>
  <speed>2.98</speed>
  <fix>3d</fix>
</trkpt>
<trkpt lat="40.0712934" lon="-105.2299598">
  <ele>1583.17</ele>
  <time>2026-08-28T17:56:41Z</time>
  <course>239.82</course>
  <speed>2.948101083748656</speed>
  <fix>3d</fix>
</trkpt>
<trkpt lat="40.0712951" lon="-105.2299559">
  <ele>1583.0</ele>
  <time>2026-08-28T17:56:41Z</time>
  <course>238.59</course>
  <speed>2.98</speed>
  <fix>3d</fix>
</trkpt>
<trkpt lat="40.071292" lon="-105.2299628">
  <ele>1583.17</ele>
  <time>2026-08-28T17:56:41Z</time>
  <course>239.82</course>
  <speed>2.948101083748656</speed>
  <fix>3d</fix>
</trkpt>
<trkpt lat="40.0712951" lon="-105.2299559">
  <ele>1583.0</ele>
  <time>2026-08-28T17:56:41Z</time>
  <course>238.59</course>
  <speed>2.98</speed>
  <fix>3d</fix>
</trkpt>
<trkpt lat="40.0712906" lon="-105.2299657">
  <ele>1583.17</ele>
  <time>2026-08-28T17:56:41Z</time>
  <course>239.82</course>
  <speed>2.948101083748656</speed>
  <fix>3d</fix>
</trkpt>
<trkpt lat="40.0712922" lon="-105.229962">
  <ele>1583.0</ele>
  <time>2026-08-28T17:56:41Z</time>
  <course>238.59</course>
  <speed>2.98</speed>
  <fix>3d</fix>
</trkpt>
<trkpt lat="40.0712892" lon="-105.2299687">
  <ele>1583.17</ele>
  <time>2026-08-28T17:56:41Z</time>
  <course>239.83</course>
  <speed>2.948101083748656</speed>
  <fix>3d</fix>
</trkpt>
<trkpt lat="40.0712922" lon="-105.229962">
  <ele>1583.0</ele>
  <time>2026-08-28T17:56:41Z</time>
  <course>238.59</course>
  <speed>2.98</speed>
  <fix>3d</fix>
</trkpt>
<trkpt lat="40.0712878" lon="-105.2299717">
  <ele>1583.16</ele>
  <time>2026-08-28T17:56:41Z</time>
  <course>239.84</course>
  <speed>2.9429237163066255</speed>
  <fix>3d</fix>
</trkpt>
<trkpt lat="40.0712895" lon="-105.2299679">
  <ele>1583.0</ele>
  <time>2026-08-28T17:56:41Z</time>
  <course>238.59</course>
  <speed>2.98</speed>
  <fix>3d</fix>
</trkpt>
<trkpt lat="40.0712864" lon="-105.2299747">
  <ele>1583.16</ele>
  <time>2026-08-28T17:56:41Z</time>
  <course>239.82</course>
  <speed>2.948101083748656</speed>
  <fix>3d</fix>
</trkpt>
<trkpt lat="40.0712895" lon="-105.2299679">
  <ele>1583.0</ele>
  <time>2026-08-28T17:56:41Z</time>
  <course>238.59</course>
  <speed>2.98</speed>
  <fix>3d</fix>
</trkpt>
<trkpt lat="40.071285" lon="-105.2299777">
  <ele>1583.16</ele>
  <time>2026-08-28T17:56:41Z</time>
  <course>239.83</course>
  <speed>2.9429237163066255</speed>
  <fix>3d</fix>
</trkpt>
<trkpt lat="40.0712867" lon="-105.2299739">
  <ele>1583.0</ele>
  <time>2026-08-28T17:56:41Z</time>
  <course>238.59</course>
  <speed>2.98</speed>
  <fix>3d</fix>
</trkpt>
<trkpt lat="40.0712836" lon="-105.2299807">
  <ele>1583.16</ele>
  <time>2026-08-28T17:56:41Z</time>
  <course>239.82</course>
  <speed>2.948101083748656</speed>
  <fix>3d</fix>
</trkpt>
<trkpt lat="40.0712867" lon="-105.2299739">
  <ele>1583.0</ele>
  <time>2026-08-28T17:56:41Z</time>
  <course>238.59</course>
  <speed>2.98</speed>
  <fix>3d</fix>
</trkpt>
<trkpt lat="40.0712822" lon="-105.2299837">
  <ele>1583.16</ele>
  <time>2026-08-28T17:56:41Z</time>
  <course>239.81</course>
  <speed>2.948101083748656</speed>
  <fix>3d</fix>
</trkpt>
<trkpt lat="40.0712867" lon="-105.2299739">
  <ele>1583.0</ele>
  <time>2026-08-28T17:56:41Z</time>
  <course>238.59</course>
  <speed>2.98</speed>
  <fix>3d</fix>
</trkpt>
<trkpt lat="40.0712808" lon="-105.2299867">
  <ele>1583.16</ele>
  <time>2026-08-28T17:56:41Z</time>
  <course>239.82</course>
  <speed>2.9429237163066255</speed>
  <fix>3d</fix>
</trkpt>
<trkpt lat="40.0712839" lon="-105.2299798">
  <ele>1583.0</ele>
  <time>2026-08-28T17:56:41Z</time>
  <course>238.57</course>
  <speed>2.98</speed>
  <fix>3d</fix>
</trkpt>
<trkpt lat="40.0712794" lon="-105.2299897">
  <ele>1583.17</ele>
  <time>2026-08-28T17:56:41Z</time>
  <course>239.82</course>
  <speed>2.9429237163066255</speed>
  <fix>3d</fix>
</trkpt>
<trkpt lat="40.0712839" lon="-105.2299798">
  <ele>1583.0</ele>
  <time>2026-08-28T17:56:41Z</time>
  <course>238.57</course>
  <speed>2.98</speed>
  <fix>3d</fix>
</trkpt>
<trkpt lat="40.071278" lon="-105.2299926">
  <ele>1583.17</ele>
  <time>2026-08-28T17:56:41Z</time>
  <course>239.83</course>
  <speed>2.9429237163066255</speed>
  <fix>3d</fix>
</trkpt>
<trkpt lat="40.071281" lon="-105.2299859">
  <ele>1583.0</ele>
  <time>2026-08-28T17:56:41Z</time>
  <course>238.56</course>
  <speed>2.98</speed>
  <fix>3d</fix>
</trkpt>
<trkpt lat="40.0712767" lon="-105.2299956">
  <ele>1583.17</ele>
  <time>2026-08-28T17:56:41Z</time>
  <course>239.82</course>
  <speed>2.9429237163066255</speed>
  <fix>3d</fix>
</trkpt>
<trkpt lat="40.071281" lon="-105.2299859">
  <ele>1583.0</ele>
  <time>2026-08-28T17:56:41Z</time>
  <course>238.56</course>
  <speed>2.98</speed>
  <fix>3d</fix>
</trkpt>
<trkpt lat="40.0712753" lon="-105.2299985">
  <ele>1583.16</ele>
  <time>2026-08-28T17:56:41Z</time>
  <course>239.81</course>
  <speed>2.9429237163066255</speed>
  <fix>3d</fix>
</trkpt>
<trkpt lat="40.0712783" lon="-105.2299918">
  <ele>1583.0</ele>
  <time>2026-08-28T17:56:41Z</time>
  <course>238.56</course>
  <speed>2.98</speed>
  <fix>3d</fix>
</trkpt>
<trkpt lat="40.0712739" lon="-105.2300015">
  <ele>1583.16</ele>
  <time>2026-08-28T17:56:41Z</time>
  <course>239.81</course>
  <speed>2.9429237163066255</speed>
  <fix>3d</fix>
</trkpt>
<trkpt lat="40.0712783" lon="-105.2299918">
  <ele>1583.0</ele>
  <time>2026-08-28T17:56:41Z</time>
  <course>238.56</course>
  <speed>2.98</speed>
  <fix>3d</fix>
</trkpt>
<trkpt lat="40.0712725" lon="-105.2300045">
  <ele>1583.16</ele>
  <time>2026-08-28T17:56:41Z</time>
  <course>239.81</course>
  <speed>2.9429237163066255</speed>
  <fix>3d</fix>
</trkpt>
<trkpt lat="40.0712755" lon="-105.2299978">
  <ele>1583.0</ele>
  <time>2026-08-28T17:56:41Z</time>
  <course>238.55</course>
  <speed>2.98</speed>
  <fix>3d</fix>
</trkpt>
<trkpt lat="40.0712711" lon="-105.2300074">
  <ele>1583.17</ele>
  <time>2026-08-28T17:56:41Z</time>
  <course>239.81</course>
  <speed>2.9429237163066255</speed>
  <fix>3d</fix>
</trkpt>
<trkpt lat="40.0712726" lon="-105.2300037">
  <ele>1583.0</ele>
  <time>2026-08-28T17:56:41Z</time>
  <course>238.53</course>
  <speed>2.98</speed>
  <fix>3d</fix>
</trkpt>
<trkpt lat="40.0712697" lon="-105.2300104">
  <ele>1583.17</ele>
  <time>2026-08-28T17:56:41Z</time>
  <course>239.81</course>
  <speed>2.9429237163066255</speed>
  <fix>3d</fix>
</trkpt>
<trkpt lat="40.0712726" lon="-105.2300037">
  <ele>1583.0</ele>
  <time>2026-08-28T17:56:41Z</time>
  <course>238.53</course>
  <speed>2.98</speed>
  <fix>3d</fix>
</trkpt>
<trkpt lat="40.0712683" lon="-105.2300134">
  <ele>1583.17</ele>
  <time>2026-08-28T17:56:41Z</time>
  <course>239.81</course>
  <speed>2.9429237163066255</speed>
  <fix>3d</fix>
</trkpt>
<trkpt lat="40.0712699" lon="-105.2300098">
  <ele>1583.0</ele>
  <time>2026-08-28T17:56:41Z</time>
  <course>238.52</course>
  <speed>2.98</speed>
  <fix>3d</fix>
</trkpt>
<trkpt lat="40.0712669" lon="-105.2300164">
  <ele>1583.17</ele>
  <time>2026-08-28T17:56:41Z</time>
  <course>239.81</course>
  <speed>2.948101083748656</speed>
  <fix>3d</fix>
</trkpt>
<trkpt lat="40.0712699" lon="-105.2300098">
  <ele>1583.0</ele>
  <time>2026-08-28T17:56:41Z</time>
  <course>238.52</course>
  <speed>2.98</speed>
  <fix>3d</fix>
</trkpt>
<trkpt lat="40.0712655" lon="-105.2300194">
  <ele>1583.17</ele>
  <time>2026-08-28T17:56:41Z</time>
  <course>239.81</course>
  <speed>2.948101083748656</speed>
  <fix>3d</fix>
</trkpt>
<trkpt lat="40.0712671" lon="-105.2300157">
  <ele>1583.0</ele>
  <time>2026-08-28T17:56:41Z</time>
  <course>238.52</course>
  <speed>2.99</speed>
  <fix>3d</fix>
</trkpt>
<trkpt lat="40.0712641" lon="-105.2300224">
  <ele>1583.17</ele>
  <time>2026-08-28T17:56:41Z</time>
  <course>239.81</course>
  <speed>2.948101083748656</speed>
  <fix>3d</fix>
</trkpt>
<trkpt lat="40.0712671" lon="-105.2300157">
  <ele>1583.0</ele>
  <time>2026-08-28T17:56:41Z</time>
  <course>238.52</course>
  <speed>2.99</speed>
  <fix>3d</fix>
</trkpt>
<trkpt lat="40.0712627" lon="-105.2300254">
  <ele>1583.17</ele>
  <time>2026-08-28T17:56:41Z</time>
  <course>239.82</course>
  <speed>2.948101083748656</speed>
  <fix>3d</fix>
</trkpt>
<trkpt lat="40.0712642" lon="-105.2300218">
  <ele>1583.0</ele>
  <time>2026-08-28T17:56:41Z</time>
  <course>238.51</course>
  <speed>2.99</speed>
  <fix>3d</fix>
</trkpt>
<trkpt lat="40.0712613" lon="-105.2300284">
  <ele>1583.17</ele>
  <time>2026-08-28T17:56:41Z</time>
  <course>239.81</course>
  <speed>2.956653513687392</speed>
  <fix>3d</fix>
</trkpt>
<trkpt lat="40.0712642" lon="-105.2300218">
  <ele>1583.0</ele>
  <time>2026-08-28T17:56:41Z</time>
  <course>238.51</course>
  <speed>2.99</speed>
  <fix>3d</fix>
</trkpt>
<trkpt lat="40.0712599" lon="-105.2300314">
  <ele>1583.17</ele>
  <time>2026-08-28T17:56:41Z</time>
  <course>239.8</course>
  <speed>2.956653513687392</speed>
  <fix>3d</fix>
</trkpt>
<trkpt lat="40.0712615" lon="-105.2300277">
  <ele>1583.0</ele>
  <time>2026-08-28T17:56:41Z</time>
  <course>238.5</course>
  <speed>2.99</speed>
  <fix>3d</fix>
</trkpt>
<trkpt lat="40.0712585" lon="-105.2300345">
  <ele>1583.17</ele>
  <time>2026-08-28T17:56:41Z</time>
  <course>239.78</course>
  <speed>2.956653513687392</speed>
  <fix>3d</fix>
</trkpt>
<trkpt lat="40.0712615" lon="-105.2300277">
  <ele>1583.0</ele>
  <time>2026-08-28T17:56:41Z</time>
  <course>238.5</course>
  <speed>2.99</speed>
  <fix>3d</fix>
</trkpt>
<trkpt lat="40.0712571" lon="-105.2300375">
  <ele>1583.17</ele>
  <time>2026-08-28T17:56:41Z</time>
  <course>239.78</course>
  <speed>2.956653513687392</speed>
  <fix>3d</fix>
</trkpt>
<trkpt lat="40.0712587" lon="-105.2300337">
  <ele>1583.0</ele>
  <time>2026-08-28T17:56:41Z</time>
  <course>238.48</course>
  <speed>2.99</speed>
  <fix>3d</fix>
</trkpt>
<trkpt lat="40.0712557" lon="-105.2300405">
  <ele>1583.16</ele>
  <time>2026-08-28T17:56:41Z</time>
  <course>239.77</course>
  <speed>2.956653513687392</speed>
  <fix>3d</fix>
</trkpt>
<trkpt lat="40.0712587" lon="-105.2300337">
  <ele>1583.0</ele>
  <time>2026-08-28T17:56:41Z</time>
  <course>238.48</course>
  <speed>2.99</speed>
  <fix>3d</fix>
</trkpt>
<trkpt lat="40.0712542" lon="-105.2300435">
  <ele>1583.16</ele>
  <time>2026-08-28T17:56:41Z</time>
  <course>239.75</course>
  <speed>2.956653513687392</speed>
  <fix>3d</fix>
</trkpt>
<trkpt lat="40.0712559" lon="-105.2300396">
  <ele>1583.0</ele>
  <time>2026-08-28T17:56:41Z</time>
  <course>238.45</course>
  <speed>2.99</speed>
  <fix>3d</fix>
</trkpt>
<trkpt lat="40.0712528" lon="-105.2300465">
  <ele>1583.16</ele>
  <time>2026-08-28T17:56:41Z</time>
  <course>239.74</course>
  <speed>2.956653513687392</speed>
  <fix>3d</fix>
</trkpt>
<trkpt lat="40.0712559" lon="-105.2300396">
  <ele>1583.0</ele>
  <time>2026-08-28T17:56:41Z</time>
  <course>238.45</course>
  <speed>2.99</speed>
  <fix>3d</fix>
</trkpt>
<trkpt lat="40.0712514" lon="-105.2300495">
  <ele>1583.16</ele>
  <time>2026-08-28T17:56:41Z</time>
  <course>239.73</course>
  <speed>2.956653513687392</speed>
  <fix>3d</fix>
</trkpt>
<trkpt lat="40.0712559" lon="-105.2300396">
  <ele>1583.0</ele>
  <time>2026-08-28T17:56:41Z</time>
  <course>238.45</course>
  <speed>2.99</speed>
  <fix>3d</fix>
</trkpt>
<trkpt lat="40.07125" lon="-105.2300525">
  <ele>1583.16</ele>
  <time>2026-08-28T17:56:41Z</time>
  <course>239.73</course>
  <speed>2.948101083748656</speed>
  <fix>3d</fix>
</trkpt>
<trkpt lat="40.071253" lon="-105.2300457">
  <ele>1583.0</ele>
  <time>2026-08-28T17:56:41Z</time>
  <course>238.42</course>
  <speed>2.98</speed>
  <fix>3d</fix>
</trkpt>
<trkpt lat="40.0712486" lon="-105.2300554">
  <ele>1583.16</ele>
  <time>2026-08-28T17:56:41Z</time>
  <course>239.71</course>
  <speed>2.948101083748656</speed>
  <fix>3d</fix>
</trkpt>
<trkpt lat="40.071253" lon="-105.2300457">
  <ele>1583.0</ele>
  <time>2026-08-28T17:56:41Z</time>
  <course>238.42</course>
  <speed>2.98</speed>
  <fix>3d</fix>
</trkpt>
<trkpt lat="40.0712472" lon="-105.2300584">
  <ele>1583.16</ele>
  <time>2026-08-28T17:56:41Z</time>
  <course>239.71</course>
  <speed>2.948101083748656</speed>
  <fix>3d</fix>
</trkpt>
<trkpt lat="40.0712501" lon="-105.2300516">
  <ele>1583.0</ele>
  <time>2026-08-28T17:56:41Z</time>
  <course>238.4</course>
  <speed>2.98</speed>
  <fix>3d</fix>
</trkpt>
<trkpt lat="40.0712458" lon="-105.2300614">
  <ele>1583.16</ele>
  <time>2026-08-28T17:56:41Z</time>
  <course>239.71</course>
  <speed>2.948101083748656</speed>
  <fix>3d</fix>
</trkpt>
<trkpt lat="40.0712501" lon="-105.2300516">
  <ele>1583.0</ele>
  <time>2026-08-28T17:56:41Z</time>
  <course>238.4</course>
  <speed>2.98</speed>
  <fix>3d</fix>
</trkpt>
<trkpt lat="40.0712444" lon="-105.2300643">
  <ele>1583.15</ele>
  <time>2026-08-28T17:56:41Z</time>
  <course>239.71</course>
  <speed>2.948101083748656</speed>
  <fix>3d</fix>
</trkpt>
<trkpt lat="40.0712474" lon="-105.2300577">
  <ele>1583.0</ele>
  <time>2026-08-28T17:56:41Z</time>
  <course>238.38</course>
  <speed>2.98</speed>
  <fix>3d</fix>
</trkpt>
<trkpt lat="40.071243" lon="-105.2300673">
  <ele>1583.15</ele>
  <time>2026-08-28T17:56:41Z</time>
  <course>239.72</course>
  <speed>2.948101083748656</speed>
  <fix>3d</fix>
</trkpt>
<trkpt lat="40.0712446" lon="-105.2300636">
  <ele>1583.0</ele>
  <time>2026-08-28T17:56:41Z</time>
  <course>238.38</course>
  <speed>2.98</speed>
  <fix>3d</fix>
</trkpt>
<trkpt lat="40.0712416" lon="-105.2300703">
  <ele>1583.15</ele>
  <time>2026-08-28T17:56:41Z</time>
  <course>239.72</course>
  <speed>2.948101083748656</speed>
  <fix>3d</fix>
</trkpt>
<trkpt lat="40.0712446" lon="-105.2300636">
  <ele>1583.0</ele>
  <time>2026-08-28T17:56:41Z</time>
  <course>238.38</course>
  <speed>2.98</speed>
  <fix>3d</fix>
</trkpt>
<trkpt lat="40.0712402" lon="-105.2300733">
  <ele>1583.15</ele>
  <time>2026-08-28T17:56:41Z</time>
  <course>239.69</course>
  <speed>2.948101083748656</speed>
  <fix>3d</fix>
</trkpt>
<trkpt lat="40.0712417" lon="-105.2300696">
  <ele>1583.0</ele>
  <time>2026-08-28T17:56:41Z</time>
  <course>238.36</course>
  <speed>2.99</speed>
  <fix>3d</fix>
</trkpt>
<trkpt lat="40.0712388" lon="-105.2300763">
  <ele>1583.15</ele>
  <time>2026-08-28T17:56:41Z</time>
  <course>239.45</course>
  <speed>2.9533032353620583</speed>
  <fix>3d</fix>
</trkpt>
<trkpt lat="40.0712417" lon="-105.2300696">
  <ele>1583.0</ele>
  <time>2026-08-28T17:56:41Z</time>
  <course>238.36</course>
  <speed>2.99</speed>
  <fix>3d</fix>
</trkpt>
<trkpt lat="40.0712374" lon="-105.2300793">
  <ele>1583.15</ele>
  <time>2026-08-28T17:56:41Z</time>
  <course>239.04</course>
  <speed>2.9467948690059846</speed>
  <fix>3d</fix>
</trkpt>
<trkpt lat="40.071239" lon="-105.2300755">
  <ele>1583.0</ele>
  <time>2026-08-28T17:56:41Z</time>
  <course>238.02</course>
  <speed>2.98</speed>
  <fix>3d</fix>
</trkpt>
<trkpt lat="40.0712359" lon="-105.2300822">
  <ele>1583.15</ele>
  <time>2026-08-28T17:56:41Z</time>
  <course>238.42</course>
  <speed>2.9321152774063983</speed>
  <fix>3d</fix>
</trkpt>
<trkpt lat="40.071239" lon="-105.2300755">
  <ele>1583.0</ele>
  <time>2026-08-28T17:56:41Z</time>
  <course>238.02</course>
  <speed>2.98</speed>
  <fix>3d</fix>
</trkpt>
<trkpt lat="40.0712344" lon="-105.2300851">
  <ele>1583.15</ele>
  <time>2026-08-28T17:56:41Z</time>
  <course>237.59</course>
  <speed>2.909450119868014</speed>
  <fix>3d</fix>
</trkpt>
<trkpt lat="40.0712361" lon="-105.2300815">
  <ele>1583.0</ele>
  <time>2026-08-28T17:56:41Z</time>
  <course>236.97</course>
  <speed>2.96</speed>
  <fix>3d</fix>
</trkpt>
<trkpt lat="40.0712329" lon="-105.230088">
  <ele>1583.15</ele>
  <time>2026-08-28T17:56:41Z</time>
  <course>236.53</course>
  <speed>2.876421387766403</speed>
  <fix>3d</fix>
</trkpt>
<trkpt lat="40.0712361" lon="-105.2300815">
  <ele>1583.0</ele>
  <time>2026-08-28T17:56:41Z</time>
  <course>236.97</course>
  <speed>2.96</speed>
  <fix>3d</fix>
</trkpt>
<trkpt lat="40.0712314" lon="-105.2300908">
  <ele>1583.15</ele>
  <time>2026-08-28T17:56:41Z</time>
  <course>235.21</course>
  <speed>2.8364766877236978</speed>
  <fix>3d</fix>
</trkpt>
<trkpt lat="40.0712331" lon="-105.2300871">
  <ele>1583.0</ele>
  <time>2026-08-28T17:56:41Z</time>
  <course>235.06</course>
  <speed>2.9</speed>
  <fix>3d</fix>
</trkpt>
<trkpt lat="40.0712299" lon="-105.2300934">
  <ele>1583.15</ele>
  <time>2026-08-28T17:56:41Z</time>
  <course>233.6</course>
  <speed>2.7741845648766774</speed>
  <fix>3d</fix>
</trkpt>
<trkpt lat="40.0712331" lon="-105.2300871">
  <ele>1583.0</ele>
  <time>2026-08-28T17:56:41Z</time>
  <course>235.06</course>
  <speed>2.9</speed>
  <fix>3d</fix>
</trkpt>
<trkpt lat="40.0712283" lon="-105.230096">
  <ele>1583.15</ele>
  <time>2026-08-28T17:56:41Z</time>
  <course>231.64</course>
  <speed>2.713116289435453</speed>
  <fix>3d</fix>
</trkpt>
<trkpt lat="40.0712301" lon="-105.2300925">
  <ele>1583.0</ele>
  <time>2026-08-28T17:56:41Z</time>
  <course>232.1</course>
  <speed>2.8</speed>
  <fix>3d</fix>
</trkpt>
<trkpt lat="40.0712267" lon="-105.2300983">
  <ele>1583.15</ele>
  <time>2026-08-28T17:56:41Z</time>
  <course>229.34</course>
  <speed>2.634236132164313</speed>
  <fix>3d</fix>
</trkpt>
<trkpt lat="40.0712301" lon="-105.2300925">
  <ele>1583.0</ele>
  <time>2026-08-28T17:56:41Z</time>
  <course>232.1</course>
  <speed>2.8</speed>
  <fix>3d</fix>
</trkpt>
<trkpt lat="40.0712251" lon="-105.2301005">
  <ele>1583.15</ele>
  <time>2026-08-28T17:56:41Z</time>
  <course>226.59</course>
  <speed>2.55266527378738</speed>
  <fix>3d</fix>
</trkpt>
<trkpt lat="40.0712269" lon="-105.2300975">
  <ele>1583.0</ele>
  <time>2026-08-28T17:56:41Z</time>
  <course>227.81</course>
  <speed>2.65</speed>
  <fix>3d</fix>
</trkpt>
<trkpt lat="40.0712234" lon="-105.2301026">
  <ele>1583.15</ele>
  <time>2026-08-28T17:56:41Z</time>
  <course>223.65</course>
  <speed>2.4640211038057287</speed>
  <fix>3d</fix>
</trkpt>
<trkpt lat="40.0712269" lon="-105.2300975">
  <ele>1583.0</ele>
  <time>2026-08-28T17:56:41Z</time>
  <course>227.81</course>
  <speed>2.65</speed>
  <fix>3d</fix>
</trkpt>
<trkpt lat="40.0712217" lon="-105.2301044">
  <ele>1583.15</ele>
  <time>2026-08-28T17:56:41Z</time>
  <course>220.5</course>
  <speed>2.3754157530840785</speed>
  <fix>3d</fix>
</trkpt>
<trkpt lat="40.0712269" lon="-105.2300975">
  <ele>1583.0</ele>
  <time>2026-08-28T17:56:41Z</time>
  <course>227.81</course>
  <speed>2.65</speed>
  <fix>3d</fix>
</trkpt>
<trkpt lat="40.07122" lon="-105.230106">
  <ele>1583.15</ele>
  <time>2026-08-28T17:56:41Z</time>
  <course>217.14</course>
  <speed>2.2889517251353295</speed>
  <fix>3d</fix>
</trkpt>
<trkpt lat="40.0712237" lon="-105.2301018">
  <ele>1583.0</ele>
  <time>2026-08-28T17:56:41Z</time>
  <course>222.24</course>
  <speed>2.48</speed>
  <fix>3d</fix>
</trkpt>
<trkpt lat="40.0712183" lon="-105.2301075">
  <ele>1583.15</ele>
  <time>2026-08-28T17:56:41Z</time>
  <course>213.54</course>
  <speed>2.2038375620721236</speed>
  <fix>3d</fix>
</trkpt>
<trkpt lat="40.0712237" lon="-105.2301018">
  <ele>1583.0</ele>
  <time>2026-08-28T17:56:41Z</time>
  <course>222.24</course>
  <speed>2.48</speed>
  <fix>3d</fix>
</trkpt>
<trkpt lat="40.0712166" lon="-105.2301087">
  <ele>1583.15</ele>
  <time>2026-08-28T17:56:41Z</time>
  <course>209.77</course>
  <speed>2.1335885264033454</speed>
  <fix>3d</fix>
</trkpt>
<trkpt lat="40.0712204" lon="-105.2301053">
  <ele>1583.0</ele>
  <time>2026-08-28T17:56:41Z</time>
  <course>215.72</course>
  <speed>2.3</speed>
  <fix>3d</fix>
</trkpt>
<trkpt lat="40.0712149" lon="-105.2301097">
  <ele>1583.15</ele>
  <time>2026-08-28T17:56:41Z</time>
  <course>205.83</course>
  <speed>2.060218435020908</speed>
  <fix>3d</fix>
</trkpt>
<trkpt lat="40.0712204" lon="-105.2301053">
  <ele>1583.0</ele>
  <time>2026-08-28T17:56:41Z</time>
  <course>215.72</course>
  <speed>2.3</speed>
  <fix>3d</fix>
</trkpt>
<trkpt lat="40.0712132" lon="-105.2301106">
  <ele>1583.15</ele>
  <time>2026-08-28T17:56:41Z</time>
  <course>201.74</course>
  <speed>2.0019240744843447</speed>
  <fix>3d</fix>
</trkpt>
<trkpt lat="40.071217" lon="-105.2301081">
  <ele>1583.0</ele>
  <time>2026-08-28T17:56:41Z</time>
  <course>208.39</course>
  <speed>2.14</speed>
  <fix>3d</fix>
</trkpt>
<trkpt lat="40.0712115" lon="-105.2301112">
  <ele>1583.15</ele>
  <time>2026-08-28T17:56:41Z</time>
  <course>197.55</course>
  <speed>1.9672569735548024</speed>
  <fix>3d</fix>
</trkpt>
<trkpt lat="40.071217" lon="-105.2301081">
  <ele>1583.0</ele>
  <time>2026-08-28T17:56:41Z</time>
  <course>208.39</course>
  <speed>2.14</speed>
  <fix>3d</fix>
</trkpt>
<trkpt lat="40.0712098" lon="-105.2301117">
  <ele>1583.15</ele>
  <time>2026-08-28T17:56:41Z</time>
  <course>193.25</course>
  <speed>1.9319679086361656</speed>
  <fix>3d</fix>
</trkpt>
<trkpt lat="40.0712136" lon="-105.2301101">
  <ele>1583.0</ele>
  <time>2026-08-28T17:56:41Z</time>
  <course>200.36</course>
  <speed>2.01</speed>
  <fix>3d</fix>
</trkpt>
<trkpt lat="40.0712081" lon="-105.230112">
  <ele>1583.15</ele>
  <time>2026-08-28T17:56:41Z</time>
  <course>188.99</course>
  <speed>1.91049731745428</speed>
  <fix>3d</fix>
</trkpt>
<trkpt lat="40.0712101" lon="-105.2301114">
  <ele>1583.0</ele>
  <time>2026-08-28T17:56:41Z</time>
  <course>191.91</course>
  <speed>1.93</speed>
  <fix>3d</fix>
</trkpt>
<trkpt lat="40.0712064" lon="-105.2301122">
  <ele>1583.15</ele>
  <time>2026-08-28T17:56:41Z</time>
  <course>184.76</course>
  <speed>1.9009471323527123</speed>
  <fix>3d</fix>
</trkpt>
<trkpt lat="40.0712101" lon="-105.2301114">
  <ele>1583.0</ele>
  <time>2026-08-28T17:56:41Z</time>
  <course>191.91</course>
  <speed>1.93</speed>
  <fix>3d</fix>
</trkpt>
<trkpt lat="40.0712046" lon="-105.2301121">
  <ele>1583.15</ele>
  <time>2026-08-28T17:56:41Z</time>
  <course>180.61</course>
  <speed>1.9012890364171355</speed>
  <fix>3d</fix>
</trkpt>
<trkpt lat="40.0712068" lon="-105.230112">
  <ele>1583.0</ele>
  <time>2026-08-28T17:56:41Z</time>
  <course>183.4</course>
  <speed>1.9</speed>
  <fix>3d</fix>
</trkpt>
<trkpt lat="40.0712029" lon="-105.2301119">
  <ele>1583.15</ele>
  <time>2026-08-28T17:56:41Z</time>
  <course>176.58</course>
  <speed>1.9215098230297967</speed>
  <fix>3d</fix>
</trkpt>
<trkpt lat="40.0712068" lon="-105.230112">
  <ele>1583.0</ele>
  <time>2026-08-28T17:56:41Z</time>
  <course>183.4</course>
  <speed>1.9</speed>
  <fix>3d</fix>
</trkpt>
<trkpt lat="40.0712012" lon="-105.2301117">
  <ele>1583.15</ele>
  <time>2026-08-28T17:56:41Z</time>
  <course>172.7</course>
  <speed>1.951640335717624</speed>
  <fix>3d</fix>
</trkpt>
<trkpt lat="40.0712034" lon="-105.230112">
  <ele>1583.0</ele>
  <time>2026-08-28T17:56:41Z</time>
  <course>175.2</course>
  <speed>1.91</speed>
  <fix>3d</fix>
</trkpt>
<trkpt lat="40.0711994" lon="-105.2301112">
  <ele>1583.15</ele>
  <time>2026-08-28T17:56:41Z</time>
  <course>169.01</course>
  <speed>1.998499437077729</speed>
  <fix>3d</fix>
</trkpt>
<trkpt lat="40.0712034" lon="-105.230112">
  <ele>1583.0</ele>
  <time>2026-08-28T17:56:41Z</time>
  <course>175.2</course>
  <speed>1.91</speed>
  <fix>3d</fix>
</trkpt>
<trkpt lat="40.0711977" lon="-105.2301105">
  <ele>1583.15</ele>
  <time>2026-08-28T17:56:41Z</time>
  <course>165.51</course>
  <speed>2.043183790068823</speed>
  <fix>3d</fix>
</trkpt>
<trkpt lat="40.0711999" lon="-105.2301114">
  <ele>1583.0</ele>
  <time>2026-08-28T17:56:41Z</time>
  <course>167.6</course>
  <speed>1.97</speed>
  <fix>3d</fix>
</trkpt>
<trkpt lat="40.0711959" lon="-105.2301097">
  <ele>1583.15</ele>
  <time>2026-08-28T17:56:41Z</time>
  <course>162.2</course>
  <speed>2.1079373804740977</speed>
  <fix>3d</fix>
</trkpt>
<trkpt lat="40.0711999" lon="-105.2301114">
  <ele>1583.0</ele>
  <time>2026-08-28T17:56:41Z</time>
  <course>167.6</course>
  <speed>1.97</speed>
  <fix>3d</fix>
</trkpt>
<trkpt lat="40.0711941" lon="-105.2301088">
  <ele>1583.15</ele>
  <time>2026-08-28T17:56:41Z</time>
  <course>159.11</course>
  <speed>2.185040045399626</speed>
  <fix>3d</fix>
</trkpt>
<trkpt lat="40.0711964" lon="-105.23011">
  <ele>1583.0</ele>
  <time>2026-08-28T17:56:41Z</time>
  <course>160.78</course>
  <speed>2.08</speed>
  <fix>3d</fix>
</trkpt>
<trkpt lat="40.0711923" lon="-105.2301076">
  <ele>1583.15</ele>
  <time>2026-08-28T17:56:41Z</time>
  <course>156.21</course>
  <speed>2.2629184695874485</speed>
  <fix>3d</fix>
</trkpt>
<trkpt lat="40.0711964" lon="-105.23011">
  <ele>1583.0</ele>
  <time>2026-08-28T17:56:41Z</time>
  <course>160.78</course>
  <speed>2.08</speed>
  <fix>3d</fix>
</trkpt>
<trkpt lat="40.0711905" lon="-105.2301064">
  <ele>1583.15</ele>
  <time>2026-08-28T17:56:41Z</time>
  <course>153.56</course>
  <speed>2.3505318547086316</speed>
  <fix>3d</fix>
</trkpt>
<trkpt lat="40.0711928" lon="-105.2301081">
  <ele>1583.0</ele>
  <time>2026-08-28T17:56:41Z</time>
  <course>154.78</course>
  <speed>2.22</speed>
  <fix>3d</fix>
</trkpt>
<trkpt lat="40.0711886" lon="-105.230105">
  <ele>1583.15</ele>
  <time>2026-08-28T17:56:41Z</time>
  <course>151.3</course>
  <speed>2.450816190578151</speed>
  <fix>3d</fix>
</trkpt>
<trkpt lat="40.0711928" lon="-105.2301081">
  <ele>1583.0</ele>
  <time>2026-08-28T17:56:41Z</time>
  <course>154.78</course>
  <speed>2.22</speed>
  <fix>3d</fix>
</trkpt>
<trkpt lat="40.0711867" lon="-105.2301034">
  <ele>1583.15</ele>
  <time>2026-08-28T17:56:41Z</time>
  <course>149.41</course>
  <speed>2.535054240050891</speed>
  <fix>3d</fix>
</trkpt>
<trkpt lat="40.0711891" lon="-105.2301056">
  <ele>1583.0</ele>
  <time>2026-08-28T17:56:41Z</time>
  <course>149.94</course>
  <speed>2.4</speed>
  <fix>3d</fix>
</trkpt>
<trkpt lat="40.0711847" lon="-105.2301017">
  <ele>1583.15</ele>
  <time>2026-08-28T17:56:41Z</time>
  <course>147.84</course>
  <speed>2.629752840097335</speed>
  <fix>3d</fix>
</trkpt>
<trkpt lat="40.0711891" lon="-105.2301056">
  <ele>1583.0</ele>
  <time>2026-08-28T17:56:41Z</time>
  <course>149.94</course>
  <speed>2.4</speed>
  <fix>3d</fix>
</trkpt>
<trkpt lat="40.0711827" lon="-105.2300999">
  <ele>1583.15</ele>
  <time>2026-08-28T17:56:41Z</time>
  <course>146.55</course>
  <speed>2.7202941017470885</speed>
  <fix>3d</fix>
</trkpt>
<trkpt lat="40.0711891" lon="-105.2301056">
  <ele>1583.0</ele>
  <time>2026-08-28T17:56:41Z</time>
  <course>149.94</course>
  <speed>2.4</speed>
  <fix>3d</fix>
</trkpt>
<trkpt lat="40.0711807" lon="-105.230098">
  <ele>1583.15</ele>
  <time>2026-08-28T17:56:41Z</time>
  <course>145.53</course>
  <speed>2.7920064469839603</speed>
  <fix>3d</fix>
</trkpt>
<trkpt lat="40.0711853" lon="-105.2301024">
  <ele>1583.0</ele>
  <time>2026-08-28T17:56:41Z</time>
  <course>146.46</course>
  <speed>2.58</speed>
  <fix>3d</fix>
</trkpt>
<trkpt lat="40.0711787" lon="-105.230096">
  <ele>1583.15</ele>
  <time>2026-08-28T17:56:41Z</time>
  <course>144.73</course>
  <speed>2.8662519079801765</speed>
  <fix>3d</fix>
</trkpt>
<trkpt lat="40.0711853" lon="-105.2301024">
  <ele>1583.0</ele>
  <time>2026-08-28T17:56:41Z</time>
  <course>146.46</course>
  <speed>2.58</speed>
  <fix>3d</fix>
</trkpt>
<trkpt lat="40.0711767" lon="-105.230094">
  <ele>1583.15</ele>
  <time>2026-08-28T17:56:41Z</time>
  <course>144.15</course>
  <speed>2.918938163099726</speed>
  <fix>3d</fix>
</trkpt>
<trkpt lat="40.0711814" lon="-105.2300989">
  <ele>1583.0</ele>
  <time>2026-08-28T17:56:41Z</time>
  <course>144.13</course>
  <speed>2.74</speed>
  <fix>3d</fix>
</trkpt>
<trkpt lat="40.0711746" lon="-105.2300919">
  <ele>1583.14</ele>
  <time>2026-08-28T17:56:41Z</time>
  <course>143.77</course>
  <speed>2.9673051747334656</speed>
  <fix>3d</fix>
</trkpt>
<trkpt lat="40.0711814" lon="-105.2300989">
  <ele>1583.0</ele>
  <time>2026-08-28T17:56:41Z</time>
  <course>144.13</course>
  <speed>2.74</speed>
  <fix>3d</fix>
</trkpt>
<trkpt lat="40.0711726" lon="-105.2300898">
  <ele>1583.14</ele>
  <time>2026-08-28T17:56:41Z</time>
  <course>143.58</course>
  <speed>3.0016662039607267</speed>
  <fix>3d</fix>
</trkpt>
<trkpt lat="40.0711773" lon="-105.230095">
  <ele>1583.0</ele>
  <time>2026-08-28T17:56:41Z</time>
  <course>142.77</course>
  <speed>2.87</speed>
  <fix>3d</fix>
</trkpt>
<trkpt lat="40.0711704" lon="-105.2300876">
  <ele>1583.14</ele>
  <time>2026-08-28T17:56:41Z</time>
  <course>143.57</course>
  <speed>3.023524433504714</speed>
  <fix>3d</fix>
</trkpt>
<trkpt lat="40.0711732" lon="-105.2300908">
  <ele>1583.0</ele>
  <time>2026-08-28T17:56:41Z</time>
  <course>142.2</course>
  <speed>2.96</speed>
  <fix>3d</fix>
</trkpt>
<trkpt lat="40.0711683" lon="-105.2300854">
  <ele>1583.14</ele>
  <time>2026-08-28T17:56:41Z</time>
  <course>143.56</course>
  <speed>3.0375812746328283</speed>
  <fix>3d</fix>
</trkpt>
<trkpt lat="40.0711732" lon="-105.2300908">
  <ele>1583.0</ele>
  <time>2026-08-28T17:56:41Z</time>
  <course>142.2</course>
  <speed>2.96</speed>
  <fix>3d</fix>
</trkpt>
<trkpt lat="40.0711662" lon="-105.2300833">
  <ele>1583.14</ele>
  <time>2026-08-28T17:56:41Z</time>
  <course>143.55</course>
  <speed>3.0375812746328283</speed>
  <fix>3d</fix>
</trkpt>
<trkpt lat="40.0711689" lon="-105.2300865">
  <ele>1583.0</ele>
  <time>2026-08-28T17:56:41Z</time>
  <course>142.09</course>
  <speed>3.0</speed>
  <fix>3d</fix>
</trkpt>
<trkpt lat="40.071164" lon="-105.2300811">
  <ele>1583.14</ele>
  <time>2026-08-28T17:56:41Z</time>
  <course>143.56</course>
  <speed>3.0375812746328283</speed>
  <fix>3d</fix>
</trkpt>
<trkpt lat="40.0711689" lon="-105.2300865">
  <ele>1583.0</ele>
  <time>2026-08-28T17:56:41Z</time>
  <course>142.09</course>
  <speed>3.0</speed>
  <fix>3d</fix>
</trkpt>
<trkpt lat="40.0711619" lon="-105.2300789">
  <ele>1583.14</ele>
  <time>2026-08-28T17:56:41Z</time>
  <course>143.54</course>
  <speed>3.0375812746328283</speed>
  <fix>3d</fix>
</trkpt>
<trkpt lat="40.0711647" lon="-105.2300822">
  <ele>1583.0</ele>
  <time>2026-08-28T17:56:41Z</time>
  <course>142.07</course>
  <speed>3.02</speed>
  <fix>3d</fix>
</trkpt>
<trkpt lat="40.0711598" lon="-105.2300767">
  <ele>1583.14</ele>
  <time>2026-08-28T17:56:41Z</time>
  <course>143.53</course>
  <speed>3.031336338976591</speed>
  <fix>3d</fix>
</trkpt>
<trkpt lat="40.0711647" lon="-105.2300822">
  <ele>1583.0</ele>
  <time>2026-08-28T17:56:41Z</time>
  <course>142.07</course>
  <speed>3.02</speed>
  <fix>3d</fix>
</trkpt>
<trkpt lat="40.0711576" lon="-105.2300745">
  <ele>1583.14</ele>
  <time>2026-08-28T17:56:41Z</time>
  <course>143.5</course>
  <speed>3.031336338976591</speed>
  <fix>3d</fix>
</trkpt>
<trkpt lat="40.0711604" lon="-105.2300778">
  <ele>1583.0</ele>
  <time>2026-08-28T17:56:41Z</time>
  <course>142.04</course>
  <speed>3.02</speed>
  <fix>3d</fix>
</trkpt>
<trkpt lat="40.0711555" lon="-105.2300724">
  <ele>1583.14</ele>
  <time>2026-08-28T17:56:41Z</time>
  <course>143.49</course>
  <speed>3.023524433504714</speed>
  <fix>3d</fix>
</trkpt>
<trkpt lat="40.0711604" lon="-105.2300778">
  <ele>1583.0</ele>
  <time>2026-08-28T17:56:41Z</time>
  <course>142.04</course>
  <speed>3.02</speed>
  <fix>3d</fix>
</trkpt>
<trkpt lat="40.0711533" lon="-105.2300702">
  <ele>1583.14</ele>
  <time>2026-08-28T17:56:41Z</time>
  <course>143.46</course>
  <speed>3.023524433504714</speed>
  <fix>3d</fix>
</trkpt>
<trkpt lat="40.0711561" lon="-105.2300734">
  <ele>1583.0</ele>
  <time>2026-08-28T17:56:41Z</time>
  <course>142.0</course>
  <speed>3.02</speed>
  <fix>3d</fix>
</trkpt>
<trkpt lat="40.0711512" lon="-105.230068">
  <ele>1583.14</ele>
  <time>2026-08-28T17:56:41Z</time>
  <course>143.43</course>
  <speed>3.017283546503377</speed>
  <fix>3d</fix>
</trkpt>
<trkpt lat="40.0711561" lon="-105.2300734">
  <ele>1583.0</ele>
  <time>2026-08-28T17:56:41Z</time>
  <course>142.0</course>
  <speed>3.02</speed>
  <fix>3d</fix>
</trkpt>
<trkpt lat="40.0711491" lon="-105.2300658">
  <ele>1583.14</ele>
  <time>2026-08-28T17:56:41Z</time>
  <course>143.4</course>
  <speed>3.017283546503377</speed>
  <fix>3d</fix>
</trkpt>
<trkpt lat="40.0711518" lon="-105.2300691">
  <ele>1583.0</ele>
  <time>2026-08-28T17:56:41Z</time>
  <course>141.95</course>
  <speed>3.02</speed>
  <fix>3d</fix>
</trkpt>
<trkpt lat="40.0711469" lon="-105.2300637">
  <ele>1583.15</ele>
  <time>2026-08-28T17:56:41Z</time>
  <course>143.37</course>
  <speed>3.0094683915934386</speed>
  <fix>3d</fix>
</trkpt>
<trkpt lat="40.0711518" lon="-105.2300691">
  <ele>1583.0</ele>
  <time>2026-08-28T17:56:41Z</time>
  <course>141.95</course>
  <speed>3.02</speed>
  <fix>3d</fix>
</trkpt>
<trkpt lat="40.0711448" lon="-105.2300615">
  <ele>1583.15</ele>
  <time>2026-08-28T17:56:41Z</time>
  <course>143.34</course>
  <speed>3.0094683915934386</speed>
  <fix>3d</fix>
</trkpt>
<trkpt lat="40.0711476" lon="-105.2300646">
  <ele>1583.0</ele>
  <time>2026-08-28T17:56:41Z</time>
  <course>141.89</course>
  <speed>3.02</speed>
  <fix>3d</fix>
</trkpt>
<trkpt lat="40.0711427" lon="-105.2300593">
  <ele>1583.15</ele>
  <time>2026-08-28T17:56:41Z</time>
  <course>143.31</course>
  <speed>3.0094683915934386</speed>
  <fix>3d</fix>
</trkpt>
<trkpt lat="40.0711476" lon="-105.2300646">
  <ele>1583.0</ele>
  <time>2026-08-28T17:56:41Z</time>
  <course>141.89</course>
  <speed>3.02</speed>
  <fix>3d</fix>
</trkpt>
<trkpt lat="40.0711405" lon="-105.2300571">
  <ele>1583.15</ele>
  <time>2026-08-28T17:56:41Z</time>
  <course>143.27</course>
  <speed>3.0032315928013276</speed>
  <fix>3d</fix>
</trkpt>
<trkpt lat="40.0711476" lon="-105.2300646">
  <ele>1583.0</ele>
  <time>2026-08-28T17:56:41Z</time>
  <course>141.89</course>
  <speed>3.02</speed>
  <fix>3d</fix>
</trkpt>
<trkpt lat="40.0711384" lon="-105.230055">
  <ele>1583.15</ele>
  <time>2026-08-28T17:56:41Z</time>
  <course>143.24</course>
  <speed>2.995413160150032</speed>
  <fix>3d</fix>
</trkpt>
<trkpt lat="40.0711433" lon="-105.2300602">
  <ele>1583.0</ele>
  <time>2026-08-28T17:56:41Z</time>
  <course>141.83</course>
  <speed>3.02</speed>
  <fix>3d</fix>
</trkpt>
<trkpt lat="40.0711363" lon="-105.2300528">
  <ele>1583.16</ele>
  <time>2026-08-28T17:56:41Z</time>
  <course>143.2</course>
  <speed>2.995413160150032</speed>
  <fix>3d</fix>
</trkpt>
<trkpt lat="40.0711433" lon="-105.2300602">
  <ele>1583.0</ele>
  <time>2026-08-28T17:56:41Z</time>
  <course>141.83</course>
  <speed>3.02</speed>
  <fix>3d</fix>
</trkpt>
<trkpt lat="40.0711342" lon="-105.2300506">
  <ele>1583.16</ele>
  <time>2026-08-28T17:56:41Z</time>
  <course>143.15</course>
  <speed>2.995413160150032</speed>
  <fix>3d</fix>
</trkpt>
<trkpt lat="40.071139" lon="-105.2300559">
  <ele>1583.0</ele>
  <time>2026-08-28T17:56:41Z</time>
  <course>141.77</course>
  <speed>3.01</speed>
  <fix>3d</fix>
</trkpt>
<trkpt lat="40.0711321" lon="-105.2300485">
  <ele>1583.16</ele>
  <time>2026-08-28T17:56:41Z</time>
  <course>143.11</course>
  <speed>2.995413160150032</speed>
  <fix>3d</fix>
</trkpt>
<trkpt lat="40.071139" lon="-105.2300559">
  <ele>1583.0</ele>
  <time>2026-08-28T17:56:41Z</time>
  <course>141.77</course>
  <speed>3.01</speed>
  <fix>3d</fix>
</trkpt>
<trkpt lat="40.07113" lon="-105.2300463">
  <ele>1583.16</ele>
  <time>2026-08-28T17:56:41Z</time>
  <course>143.05</course>
  <speed>2.9876077386430766</speed>
  <fix>3d</fix>
</trkpt>
<trkpt lat="40.0711347" lon="-105.2300515">
  <ele>1583.0</ele>
  <time>2026-08-28T17:56:41Z</time>
  <course>141.69</course>
  <speed>3.02</speed>
  <fix>3d</fix>
</trkpt>
<trkpt lat="40.0711279" lon="-105.2300442">
  <ele>1583.17</ele>
  <time>2026-08-28T17:56:41Z</time>
  <course>143.01</course>
  <speed>2.981358750637031</speed>
  <fix>3d</fix>
</trkpt>
<trkpt lat="40.0711305" lon="-105.230047">
  <ele>1583.0</ele>
  <time>2026-08-28T17:56:41Z</time>
  <course>141.6</course>
  <speed>3.02</speed>
  <fix>3d</fix>
</trkpt>
<trkpt lat="40.0711258" lon="-105.230042">
  <ele>1583.17</ele>
  <time>2026-08-28T17:56:41Z</time>
  <course>142.97</course>
  <speed>2.981358750637031</speed>
  <fix>3d</fix>
</trkpt>
<trkpt lat="40.0711305" lon="-105.230047">
  <ele>1583.0</ele>
  <time>2026-08-28T17:56:41Z</time>
  <course>141.6</course>
  <speed>3.02</speed>
  <fix>3d</fix>
</trkpt>
<trkpt lat="40.0711236" lon="-105.2300398">
  <ele>1583.17</ele>
  <time>2026-08-28T17:56:41Z</time>
  <course>142.92</course>
  <speed>2.981358750637031</speed>
  <fix>3d</fix>
</trkpt>
<trkpt lat="40.0711262" lon="-105.2300427">
  <ele>1583.0</ele>
  <time>2026-08-28T17:56:41Z</time>
  <course>141.52</course>
  <speed>3.02</speed>
  <fix>3d</fix>
</trkpt>
<trkpt lat="40.0711215" lon="-105.2300376">
  <ele>1583.17</ele>
  <time>2026-08-28T17:56:41Z</time>
  <course>142.87</course>
  <speed>2.981358750637031</speed>
  <fix>3d</fix>
</trkpt>
<trkpt lat="40.0711262" lon="-105.2300427">
  <ele>1583.0</ele>
  <time>2026-08-28T17:56:41Z</time>
  <course>141.52</course>
  <speed>3.02</speed>
  <fix>3d</fix>
</trkpt>
<trkpt lat="40.0711194" lon="-105.2300354">
  <ele>1583.17</ele>
  <time>2026-08-28T17:56:41Z</time>
  <course>142.84</course>
  <speed>2.981358750637031</speed>
  <fix>3d</fix>
</trkpt>
<trkpt lat="40.071122" lon="-105.2300382">
  <ele>1583.0</ele>
  <time>2026-08-28T17:56:41Z</time>
  <course>141.45</course>
  <speed>3.02</speed>
  <fix>3d</fix>
</trkpt>
<trkpt lat="40.0711172" lon="-105.2300332">
  <ele>1583.17</ele>
  <time>2026-08-28T17:56:41Z</time>
  <course>142.79</course>
  <speed>2.9876077386430766</speed>
  <fix>3d</fix>
</trkpt>
<trkpt lat="40.071122" lon="-105.2300382">
  <ele>1583.0</ele>
  <time>2026-08-28T17:56:41Z</time>
  <course>141.45</course>
  <speed>3.02</speed>
  <fix>3d</fix>
</trkpt>
<trkpt lat="40.0711151" lon="-105.230031">
  <ele>1583.17</ele>
  <time>2026-08-28T17:56:41Z</time>
  <course>142.68</course>
  <speed>2.9876077386430766</speed>
  <fix>3d</fix>
</trkpt>
<trkpt lat="40.0711177" lon="-105.2300339">
  <ele>1583.0</ele>
  <time>2026-08-28T17:56:41Z</time>
  <course>141.35</course>
  <speed>3.02</speed>
  <fix>3d</fix>
</trkpt>
<trkpt lat="40.071113" lon="-105.2300288">
  <ele>1583.17</ele>
  <time>2026-08-28T17:56:41Z</time>
  <course>142.38</course>
  <speed>2.9861011369342463</speed>
  <fix>3d</fix>
</trkpt>
<trkpt lat="40.0711177" lon="-105.2300339">
  <ele>1583.0</ele>
  <time>2026-08-28T17:56:41Z</time>
  <course>141.35</course>
  <speed>3.02</speed>
  <fix>3d</fix>
</trkpt>
<trkpt lat="40.0711109" lon="-105.2300265">
  <ele>1583.17</ele>
  <time>2026-08-28T17:56:41Z</time>
  <course>141.91</course>
  <speed>2.98328677803526</speed>
  <fix>3d</fix>
</trkpt>
<trkpt lat="40.0711134" lon="-105.2300294">
  <ele>1583.0</ele>
  <time>2026-08-28T17:56:41Z</time>
  <course>140.9</course>
  <speed>3.02</speed>
  <fix>3d</fix>
</trkpt>
<trkpt lat="40.0711088" lon="-105.2300242">
  <ele>1583.17</ele>
  <time>2026-08-28T17:56:41Z</time>
  <course>141.27</course>
  <speed>2.980738163609813</speed>
  <fix>3d</fix>
</trkpt>
<trkpt lat="40.0711134" lon="-105.2300294">
  <ele>1583.0</ele>
  <time>2026-08-28T17:56:41Z</time>
  <course>140.9</course>
  <speed>3.02</speed>
  <fix>3d</fix>
</trkpt>
<trkpt lat="40.0711067" lon="-105.230022">
  <ele>1583.17</ele>
  <time>2026-08-28T17:56:41Z</time>
  <course>140.43</course>
  <speed>2.963308961279603</speed>
  <fix>3d</fix>
</trkpt>
<trkpt lat="40.0711093" lon="-105.2300248">
  <ele>1583.0</ele>
  <time>2026-08-28T17:56:41Z</time>
  <course>139.79</course>
  <speed>3.0</speed>
  <fix>3d</fix>
</trkpt>
<trkpt lat="40.0711047" lon="-105.2300196">
  <ele>1583.18</ele>
  <time>2026-08-28T17:56:41Z</time>
  <course>139.39</course>
  <speed>2.945674795356745</speed>
  <fix>3d</fix>
</trkpt>
<trkpt lat="40.0711093" lon="-105.2300248">
  <ele>1583.0</ele>
  <time>2026-08-28T17:56:41Z</time>
  <course>139.79</course>
  <speed>3.0</speed>
  <fix>3d</fix>
</trkpt>
<trkpt lat="40.0711027" lon="-105.2300173">
  <ele>1583.18</ele>
  <time>2026-08-28T17:56:41Z</time>
  <course>138.15</course>
  <speed>2.90766229125736</speed>
  <fix>3d</fix>
</trkpt>
<trkpt lat="40.0711053" lon="-105.2300203">
  <ele>1583.0</ele>
  <time>2026-08-28T17:56:41Z</time>
  <course>137.91</course>
  <speed>2.97</speed>
  <fix>3d</fix>
</trkpt>
<trkpt lat="40.0711008" lon="-105.2300149">
  <ele>1583.17</ele>
  <time>2026-08-28T17:56:41Z</time>
  <course>136.67</course>
  <speed>2.8850303291300077</speed>
  <fix>3d</fix>
</trkpt>
<trkpt lat="40.0711053" lon="-105.2300203">
  <ele>1583.0</ele>
  <time>2026-08-28T17:56:41Z</time>
  <course>137.91</course>
  <speed>2.97</speed>
  <fix>3d</fix>
</trkpt>
<trkpt lat="40.071099" lon="-105.2300125">
  <ele>1583.17</ele>
  <time>2026-08-28T17:56:41Z</time>
  <course>134.95</course>
  <speed>2.843448610402516</speed>
  <fix>3d</fix>
</trkpt>
<trkpt lat="40.0711053" lon="-105.2300203">
  <ele>1583.0</ele>
  <time>2026-08-28T17:56:41Z</time>
  <course>137.91</course>
  <speed>2.97</speed>
  <fix>3d</fix>
</trkpt>
<trkpt lat="40.0710973" lon="-105.23001">
  <ele>1583.17</ele>
  <time>2026-08-28T17:56:41Z</time>
  <course>132.97</course>
  <speed>2.798660393831306</speed>
  <fix>3d</fix>
</trkpt>
<trkpt lat="40.0711014" lon="-105.2300155">
  <ele>1583.0</ele>
  <time>2026-08-28T17:56:41Z</time>
  <course>135.16</course>
  <speed>2.91</speed>
  <fix>3d</fix>
</trkpt>
<trkpt lat="40.0710957" lon="-105.2300075">
  <ele>1583.17</ele>
  <time>2026-08-28T17:56:41Z</time>
  <course>130.75</course>
  <speed>2.7503636123247412</speed>
  <fix>3d</fix>
</trkpt>
<trkpt lat="40.0711014" lon="-105.2300155">
  <ele>1583.0</ele>
  <time>2026-08-28T17:56:41Z</time>
  <course>135.16</course>
  <speed>2.91</speed>
  <fix>3d</fix>
</trkpt>
<trkpt lat="40.0710942" lon="-105.2300049">
  <ele>1583.16</ele>
  <time>2026-08-28T17:56:41Z</time>
  <course>128.54</course>
  <speed>2.7</speed>
  <fix>3d</fix>
</trkpt>
<trkpt lat="40.0710979" lon="-105.2300105">
  <ele>1583.0</ele>
  <time>2026-08-28T17:56:41Z</time>
  <course>131.47</course>
  <speed>2.82</speed>
  <fix>3d</fix>
</trkpt>
<trkpt lat="40.0710928" lon="-105.2300024">
  <ele>1583.16</ele>
  <time>2026-08-28T17:56:41Z</time>
  <course>126.22</course>
  <speed>2.660112779564054</speed>
  <fix>3d</fix>
</trkpt>
<trkpt lat="40.0710979" lon="-105.2300105">
  <ele>1583.0</ele>
  <time>2026-08-28T17:56:41Z</time>
  <course>131.47</course>
  <speed>2.82</speed>
  <fix>3d</fix>
</trkpt>
<trkpt lat="40.0710915" lon="-105.2299998">
  <ele>1583.16</ele>
  <time>2026-08-28T17:56:41Z</time>
  <course>123.86</course>
  <speed>2.6192556194461054</speed>
  <fix>3d</fix>
</trkpt>
<trkpt lat="40.0710947" lon="-105.2300055">
  <ele>1583.0</ele>
  <time>2026-08-28T17:56:41Z</time>
  <course>127.12</course>
  <speed>2.73</speed>
  <fix>3d</fix>
</trkpt>
<trkpt lat="40.0710903" lon="-105.2299972">
  <ele>1583.16</ele>
  <time>2026-08-28T17:56:41Z</time>
  <course>121.44</course>
  <speed>2.574975728040946</speed>
  <fix>3d</fix>
</trkpt>
<trkpt lat="40.0710947" lon="-105.2300055">
  <ele>1583.0</ele>
  <time>2026-08-28T17:56:41Z</time>
  <course>127.12</course>
  <speed>2.73</speed>
  <fix>3d</fix>
</trkpt>
<trkpt lat="40.0710892" lon="-105.2299945">
  <ele>1583.16</ele>
  <time>2026-08-28T17:56:41Z</time>
  <course>118.95</course>
  <speed>2.5357641846196977</speed>
  <fix>3d</fix>
</trkpt>
<trkpt lat="40.071092" lon="-105.2300004">
  <ele>1583.0</ele>
  <time>2026-08-28T17:56:41Z</time>
  <course>122.45</course>
  <speed>2.64</speed>
  <fix>3d</fix>
</trkpt>
<trkpt lat="40.0710883" lon="-105.2299918">
  <ele>1583.16</ele>
  <time>2026-08-28T17:56:41Z</time>
  <course>116.44</course>
  <speed>2.5059928172283334</speed>
  <fix>3d</fix>
</trkpt>
<trkpt lat="40.0710896" lon="-105.2299951">
  <ele>1583.0</ele>
  <time>2026-08-28T17:56:41Z</time>
  <course>117.55</course>
  <speed>2.57</speed>
  <fix>3d</fix>
</trkpt>
<trkpt lat="40.0710874" lon="-105.2299891">
  <ele>1583.16</ele>
  <time>2026-08-28T17:56:41Z</time>
  <course>113.91</course>
  <speed>2.477175811281872</speed>
  <fix>3d</fix>
</trkpt>
<trkpt lat="40.0710896" lon="-105.2299951">
  <ele>1583.0</ele>
  <time>2026-08-28T17:56:41Z</time>
  <course>117.55</course>
  <speed>2.57</speed>
  <fix>3d</fix>
</trkpt>
<trkpt lat="40.0710866" lon="-105.2299863">
  <ele>1583.15</ele>
  <time>2026-08-28T17:56:41Z</time>
  <course>111.36</course>
  <speed>2.466779276708802</speed>
  <fix>3d</fix>
</trkpt>
<trkpt lat="40.0710876" lon="-105.2299897">
  <ele>1583.0</ele>
  <time>2026-08-28T17:56:41Z</time>
  <course>112.51</course>
  <speed>2.51</speed>
  <fix>3d</fix>
</trkpt>
<trkpt lat="40.071086" lon="-105.2299836">
  <ele>1583.15</ele>
  <time>2026-08-28T17:56:41Z</time>
  <course>108.79</course>
  <speed>2.452039967047846</speed>
  <fix>3d</fix>
</trkpt>
<trkpt lat="40.0710876" lon="-105.2299897">
  <ele>1583.0</ele>
  <time>2026-08-28T17:56:41Z</time>
  <course>112.51</course>
  <speed>2.51</speed>
  <fix>3d</fix>
</trkpt>
<trkpt lat="40.0710854" lon="-105.2299808">
  <ele>1583.15</ele>
  <time>2026-08-28T17:56:41Z</time>
  <course>106.23</course>
  <speed>2.4423349483639627</speed>
  <fix>3d</fix>
</trkpt>
<trkpt lat="40.0710861" lon="-105.2299841">
  <ele>1583.0</ele>
  <time>2026-08-28T17:56:41Z</time>
  <course>107.38</course>
  <speed>2.47</speed>
  <fix>3d</fix>
</trkpt>
<trkpt lat="40.0710849" lon="-105.2299779">
  <ele>1583.16</ele>
  <time>2026-08-28T17:56:41Z</time>
  <course>103.67</course>
  <speed>2.4377243486497813</speed>
  <fix>3d</fix>
</trkpt>
<trkpt lat="40.0710861" lon="-105.2299841">
  <ele>1583.0</ele>
  <time>2026-08-28T17:56:41Z</time>
  <course>107.38</course>
  <speed>2.47</speed>
  <fix>3d</fix>
</trkpt>
<trkpt lat="40.0710845" lon="-105.229975">
  <ele>1583.16</ele>
  <time>2026-08-28T17:56:41Z</time>
  <course>101.13</course>
  <speed>2.448121728999602</speed>
  <fix>3d</fix>
</trkpt>
<trkpt lat="40.071085" lon="-105.2299786">
  <ele>1583.0</ele>
  <time>2026-08-28T17:56:41Z</time>
  <course>102.25</course>
  <speed>2.46</speed>
  <fix>3d</fix>
</trkpt>
<trkpt lat="40.0710842" lon="-105.2299721">
  <ele>1583.15</ele>
  <time>2026-08-28T17:56:41Z</time>
  <course>98.62</course>
  <speed>2.45381335883559</speed>
  <fix>3d</fix>
</trkpt>
<trkpt lat="40.071085" lon="-105.2299786">
  <ele>1583.0</ele>
  <time>2026-08-28T17:56:41Z</time>
  <course>102.25</course>
  <speed>2.46</speed>
  <fix>3d</fix>
</trkpt>
<trkpt lat="40.071084" lon="-105.2299692">
  <ele>1583.15</ele>
  <time>2026-08-28T17:56:41Z</time>
  <course>96.15</course>
  <speed>2.4651977608297475</speed>
  <fix>3d</fix>
</trkpt>
<trkpt lat="40.0710842" lon="-105.2299728">
  <ele>1583.0</ele>
  <time>2026-08-28T17:56:41Z</time>
  <course>97.19</course>
  <speed>2.46</speed>
  <fix>3d</fix>
</trkpt>
<trkpt lat="40.0710839" lon="-105.2299663">
  <ele>1583.15</ele>
  <time>2026-08-28T17:56:41Z</time>
  <course>93.72</course>
  <speed>2.490501957437496</speed>
  <fix>3d</fix>
</trkpt>
<trkpt lat="40.0710842" lon="-105.2299728">
  <ele>1583.0</ele>
  <time>2026-08-28T17:56:41Z</time>
  <course>97.19</course>
  <speed>2.46</speed>
  <fix>3d</fix>
</trkpt>
<trkpt lat="40.0710839" lon="-105.2299633">
  <ele>1583.15</ele>
  <time>2026-08-28T17:56:41Z</time>
  <course>91.34</course>
  <speed>2.5203174403237383</speed>
  <fix>3d</fix>
</trkpt>
<trkpt lat="40.0710839" lon="-105.2299671">
  <ele>1583.0</ele>
  <time>2026-08-28T17:56:41Z</time>
  <course>92.28</course>
  <speed>2.5</speed>
  <fix>3d</fix>
</trkpt>
<trkpt lat="40.071084" lon="-105.2299603">
  <ele>1583.15</ele>
  <time>2026-08-28T17:56:41Z</time>
  <course>89.04</course>
  <speed>2.55440795488896</speed>
  <fix>3d</fix>
</trkpt>
<trkpt lat="40.0710839" lon="-105.2299671">
  <ele>1583.0</ele>
  <time>2026-08-28T17:56:41Z</time>
  <course>92.28</course>
  <speed>2.5</speed>
  <fix>3d</fix>
</trkpt>
<trkpt lat="40.0710841" lon="-105.2299573">
  <ele>1583.15</ele>
  <time>2026-08-28T17:56:41Z</time>
  <course>86.79</course>
  <speed>2.5821309029559285</speed>
  <fix>3d</fix>
</trkpt>
<trkpt lat="40.0710838" lon="-105.2299611">
  <ele>1583.0</ele>
  <time>2026-08-28T17:56:41Z</time>
  <course>87.58</course>
  <speed>2.55</speed>
  <fix>3d</fix>
</trkpt>
<trkpt lat="40.0710844" lon="-105.2299542">
  <ele>1583.15</ele>
  <time>2026-08-28T17:56:41Z</time>
  <course>84.59</course>
  <speed>2.623451924468981</speed>
  <fix>3d</fix>
</trkpt>
<trkpt lat="40.0710838" lon="-105.2299611">
  <ele>1583.0</ele>
  <time>2026-08-28T17:56:41Z</time>
  <course>87.58</course>
  <speed>2.55</speed>
  <fix>3d</fix>
</trkpt>
<trkpt lat="40.0710847" lon="-105.2299511">
  <ele>1583.15</ele>
  <time>2026-08-28T17:56:41Z</time>
  <course>82.53</course>
  <speed>2.6699250925821874</speed>
  <fix>3d</fix>
</trkpt>
<trkpt lat="40.0710838" lon="-105.2299611">
  <ele>1583.0</ele>
  <time>2026-08-28T17:56:41Z</time>
  <course>87.58</course>
  <speed>2.55</speed>
  <fix>3d</fix>
</trkpt>
<trkpt lat="40.0710852" lon="-105.2299479">
  <ele>1583.15</ele>
  <time>2026-08-28T17:56:41Z</time>
  <course>80.76</course>
  <speed>2.7240594707164525</speed>
  <fix>3d</fix>
</trkpt>
<trkpt lat="40.0710842" lon="-105.2299551">
  <ele>1583.0</ele>
  <time>2026-08-28T17:56:41Z</time>
  <course>83.14</course>
  <speed>2.62</speed>
  <fix>3d</fix>
</trkpt>
<trkpt lat="40.0710857" lon="-105.2299448">
  <ele>1583.15</ele>
  <time>2026-08-28T17:56:41Z</time>
  <course>79.23</course>
  <speed>2.772525924134885</speed>
  <fix>3d</fix>
</trkpt>
<trkpt lat="40.0710842" lon="-105.2299551">
  <ele>1583.0</ele>
  <time>2026-08-28T17:56:41Z</time>
  <course>83.14</course>
  <speed>2.62</speed>
  <fix>3d</fix>
</trkpt>
<trkpt lat="40.0710863" lon="-105.2299416">
  <ele>1583.15</ele>
  <time>2026-08-28T17:56:41Z</time>
  <course>77.94</course>
  <speed>2.8183150994876356</speed>
  <fix>3d</fix>
</trkpt>
<trkpt lat="40.0710849" lon="-105.2299489">
  <ele>1583.0</ele>
  <time>2026-08-28T17:56:41Z</time>
  <course>79.37</course>
  <speed>2.71</speed>
  <fix>3d</fix>
</trkpt>
<trkpt lat="40.0710869" lon="-105.2299384">
  <ele>1583.15</ele>
  <time>2026-08-28T17:56:41Z</time>
  <course>76.86</course>
  <speed>2.862725973613262</speed>
  <fix>3d</fix>
</trkpt>
<trkpt lat="40.0710849" lon="-105.2299489">
  <ele>1583.0</ele>
  <time>2026-08-28T17:56:41Z</time>
  <course>79.37</course>
  <speed>2.71</speed>
  <fix>3d</fix>
</trkpt>
<trkpt lat="40.0710876" lon="-105.2299352">
  <ele>1583.16</ele>
  <time>2026-08-28T17:56:41Z</time>
  <course>76.0</course>
  <speed>2.905202230482415</speed>
  <fix>3d</fix>
</trkpt>
<trkpt lat="40.071086" lon="-105.2299425">
  <ele>1583.0</ele>
  <time>2026-08-28T17:56:41Z</time>
  <course>76.56</course>
  <speed>2.8</speed>
  <fix>3d</fix>
</trkpt>
<trkpt lat="40.0710883" lon="-105.2299319">
  <ele>1583.16</ele>
  <time>2026-08-28T17:56:41Z</time>
  <course>75.32</course>
  <speed>2.935745220553037</speed>
  <fix>3d</fix>
</trkpt>
<trkpt lat="40.0710873" lon="-105.2299361">
  <ele>1583.0</ele>
  <time>2026-08-28T17:56:41Z</time>
  <course>74.63</course>
  <speed>2.89</speed>
  <fix>3d</fix>
</trkpt>
<trkpt lat="40.0710891" lon="-105.2299286">
  <ele>1583.16</ele>
  <time>2026-08-28T17:56:41Z</time>
  <course>74.83</course>
  <speed>2.9636632737205484</speed>
  <fix>3d</fix>
</trkpt>
<trkpt lat="40.0710873" lon="-105.2299361">
  <ele>1583.0</ele>
  <time>2026-08-28T17:56:41Z</time>
  <course>74.63</course>
  <speed>2.89</speed>
  <fix>3d</fix>
</trkpt>
<trkpt lat="40.0710899" lon="-105.2299252">
  <ele>1583.16</ele>
  <time>2026-08-28T17:56:41Z</time>
  <course>74.54</course>
  <speed>2.988728826775691</speed>
  <fix>3d</fix>
</trkpt>
<trkpt lat="40.0710887" lon="-105.2299294">
  <ele>1583.0</ele>
  <time>2026-08-28T17:56:41Z</time>
  <course>73.49</course>
  <speed>2.96</speed>
  <fix>3d</fix>
</trkpt>
<trkpt lat="40.0710907" lon="-105.2299218">
  <ele>1583.16</ele>
  <time>2026-08-28T17:56:41Z</time>
  <course>74.42</course>
  <speed>3.0012830589599506</speed>
  <fix>3d</fix>
</trkpt>
<trkpt lat="40.0710887" lon="-105.2299294">
  <ele>1583.0</ele>
  <time>2026-08-28T17:56:41Z</time>
  <course>73.49</course>
  <speed>2.96</speed>
  <fix>3d</fix>
</trkpt>
<trkpt lat="40.0710915" lon="-105.2299184">
  <ele>1583.16</ele>
  <time>2026-08-28T17:56:41Z</time>
  <course>74.42</course>
  <speed>3.010813843464919</speed>
  <fix>3d</fix>
</trkpt>
<trkpt lat="40.0710902" lon="-105.2299227">
  <ele>1583.0</ele>
  <time>2026-08-28T17:56:41Z</time>
  <course>73.04</course>
  <speed>3.0</speed>
  <fix>3d</fix>
</trkpt>
<trkpt lat="40.0710923" lon="-105.229915">
  <ele>1583.16</ele>
  <time>2026-08-28T17:56:41Z</time>
  <course>74.4</course>
  <speed>3.0203476621077914</speed>
  <fix>3d</fix>
</trkpt>
<trkpt lat="40.0710902" lon="-105.2299227">
  <ele>1583.0</ele>
  <time>2026-08-28T17:56:41Z</time>
  <course>73.04</course>
  <speed>3.0</speed>
  <fix>3d</fix>
</trkpt>
<trkpt lat="40.0710931" lon="-105.2299116">
  <ele>1583.16</ele>
  <time>2026-08-28T17:56:41Z</time>
  <course>74.39</course>
  <speed>3.0203476621077914</speed>
  <fix>3d</fix>
</trkpt>
<trkpt lat="40.0710919" lon="-105.229916">
  <ele>1583.0</ele>
  <time>2026-08-28T17:56:41Z</time>
  <course>72.96</course>
  <speed>3.02</speed>
  <fix>3d</fix>
</trkpt>
<trkpt lat="40.0710939" lon="-105.2299082">
  <ele>1583.16</ele>
  <time>2026-08-28T17:56:41Z</time>
  <course>74.38</course>
  <speed>3.0203476621077914</speed>
  <fix>3d</fix>
</trkpt>
<trkpt lat="40.0710919" lon="-105.229916">
  <ele>1583.0</ele>
  <time>2026-08-28T17:56:41Z</time>
  <course>72.96</course>
  <speed>3.02</speed>
  <fix>3d</fix>
</trkpt>
<trkpt lat="40.0710947" lon="-105.2299048">
  <ele>1583.16</ele>
  <time>2026-08-28T17:56:41Z</time>
  <course>74.36</course>
  <speed>3.010813843464919</speed>
  <fix>3d</fix>
</trkpt>
<trkpt lat="40.0710935" lon="-105.2299092">
  <ele>1583.0</ele>
  <time>2026-08-28T17:56:41Z</time>
  <course>72.92</course>
  <speed>3.02</speed>
  <fix>3d</fix>
</trkpt>
<trkpt lat="40.0710955" lon="-105.2299014">
  <ele>1583.16</ele>
  <time>2026-08-28T17:56:41Z</time>
  <course>74.34</course>
  <speed>3.010813843464919</speed>
  <fix>3d</fix>
</trkpt>
<trkpt lat="40.0710935" lon="-105.2299092">
  <ele>1583.0</ele>
  <time>2026-08-28T17:56:41Z</time>
  <course>72.92</course>
  <speed>3.02</speed>
  <fix>3d</fix>
</trkpt>
<trkpt lat="40.0710963" lon="-105.229898">
  <ele>1583.15</ele>
  <time>2026-08-28T17:56:41Z</time>
  <course>74.31</course>
  <speed>3.010813843464919</speed>
  <fix>3d</fix>
</trkpt>
<trkpt lat="40.071095" lon="-105.2299023">
  <ele>1583.0</ele>
  <time>2026-08-28T17:56:41Z</time>
  <course>72.88</course>
  <speed>3.02</speed>
  <fix>3d</fix>
</trkpt>
<trkpt lat="40.0710971" lon="-105.2298946">
  <ele>1583.15</ele>
  <time>2026-08-28T17:56:41Z</time>
  <course>74.28</course>
  <speed>3.010813843464919</speed>
  <fix>3d</fix>
</trkpt>
<trkpt lat="40.071095" lon="-105.2299023">
  <ele>1583.0</ele>
  <time>2026-08-28T17:56:41Z</time>
  <course>72.88</course>
  <speed>3.02</speed>
  <fix>3d</fix>
</trkpt>
<trkpt lat="40.0710979" lon="-105.2298912">
  <ele>1583.16</ele>
  <time>2026-08-28T17:56:41Z</time>
  <course>74.25</course>
  <speed>3.010813843464919</speed>
  <fix>3d</fix>
</trkpt>
<trkpt lat="40.0710967" lon="-105.2298955">
  <ele>1583.0</ele>
  <time>2026-08-28T17:56:41Z</time>
  <course>72.82</course>
  <speed>3.02</speed>
  <fix>3d</fix>
</trkpt>
<trkpt lat="40.0710987" lon="-105.2298878">
  <ele>1583.15</ele>
  <time>2026-08-28T17:56:41Z</time>
  <course>74.23</course>
  <speed>3.010813843464919</speed>
  <fix>3d</fix>
</trkpt>
<trkpt lat="40.0710967" lon="-105.2298955">
  <ele>1583.0</ele>
  <time>2026-08-28T17:56:41Z</time>
  <course>72.82</course>
  <speed>3.02</speed>
  <fix>3d</fix>
</trkpt>
<trkpt lat="40.0710995" lon="-105.2298844">
  <ele>1583.15</ele>
  <time>2026-08-28T17:56:41Z</time>
  <course>74.21</course>
  <speed>3.0012830589599506</speed>
  <fix>3d</fix>
</trkpt>
<trkpt lat="40.0710967" lon="-105.2298955">
  <ele>1583.0</ele>
  <time>2026-08-28T17:56:41Z</time>
  <course>72.82</course>
  <speed>3.02</speed>
  <fix>3d</fix>
</trkpt>
<trkpt lat="40.0711003" lon="-105.229881">
  <ele>1583.15</ele>
  <time>2026-08-28T17:56:41Z</time>
  <course>74.18</course>
  <speed>3.0012830589599506</speed>
  <fix>3d</fix>
</trkpt>
<trkpt lat="40.0710983" lon="-105.2298888">
  <ele>1583.0</ele>
  <time>2026-08-28T17:56:41Z</time>
  <course>72.77</course>
  <speed>3.02</speed>
  <fix>3d</fix>
</trkpt>
<trkpt lat="40.0711011" lon="-105.2298776">
  <ele>1583.15</ele>
  <time>2026-08-28T17:56:41Z</time>
  <course>74.15</course>
  <speed>3.0012830589599506</speed>
  <fix>3d</fix>
</trkpt>
<trkpt lat="40.0710983" lon="-105.2298888">
  <ele>1583.0</ele>
  <time>2026-08-28T17:56:41Z</time>
  <course>72.77</course>
  <speed>3.02</speed>
  <fix>3d</fix>
</trkpt>
<trkpt lat="40.0711019" lon="-105.2298743">
  <ele>1583.15</ele>
  <time>2026-08-28T17:56:41Z</time>
  <course>74.12</course>
  <speed>3.0012830589599506</speed>
  <fix>3d</fix>
</trkpt>
<trkpt lat="40.0710998" lon="-105.229882">
  <ele>1583.0</ele>
  <time>2026-08-28T17:56:41Z</time>
  <course>72.72</course>
  <speed>3.02</speed>
  <fix>3d</fix>
</trkpt>
<trkpt lat="40.0711027" lon="-105.2298709">
  <ele>1583.15</ele>
  <time>2026-08-28T17:56:41Z</time>
  <course>74.09</course>
  <speed>2.9917553375902917</speed>
  <fix>3d</fix>
</trkpt>
<trkpt lat="40.0710998" lon="-105.229882">
  <ele>1583.0</ele>
  <time>2026-08-28T17:56:41Z</time>
  <course>72.72</course>
  <speed>3.02</speed>
  <fix>3d</fix>
</trkpt>
<trkpt lat="40.0711035" lon="-105.2298676">
  <ele>1583.15</ele>
  <time>2026-08-28T17:56:41Z</time>
  <course>74.06</course>
  <speed>2.9917553375902917</speed>
  <fix>3d</fix>
</trkpt>
<trkpt lat="40.0711015" lon="-105.2298752">
  <ele>1583.0</ele>
  <time>2026-08-28T17:56:41Z</time>
  <course>72.67</course>
  <speed>3.02</speed>
  <fix>3d</fix>
</trkpt>
<trkpt lat="40.0711043" lon="-105.2298642">
  <ele>1583.15</ele>
  <time>2026-08-28T17:56:41Z</time>
  <course>74.03</course>
  <speed>2.9917553375902917</speed>
  <fix>3d</fix>
</trkpt>
<trkpt lat="40.0711015" lon="-105.2298752">
  <ele>1583.0</ele>
  <time>2026-08-28T17:56:41Z</time>
  <course>72.67</course>
  <speed>3.02</speed>
  <fix>3d</fix>
</trkpt>
<trkpt lat="40.0711051" lon="-105.2298609">
  <ele>1583.14</ele>
  <time>2026-08-28T17:56:41Z</time>
  <course>73.98</course>
  <speed>2.9917553375902917</speed>
  <fix>3d</fix>
</trkpt>
<trkpt lat="40.0711031" lon="-105.2298683">
  <ele>1583.0</ele>
  <time>2026-08-28T17:56:41Z</time>
  <course>72.61</course>
  <speed>3.02</speed>
  <fix>3d</fix>
</trkpt>
<trkpt lat="40.0711059" lon="-105.2298575">
  <ele>1583.14</ele>
  <time>2026-08-28T17:56:41Z</time>
  <course>73.93</course>
  <speed>2.9822307087145354</speed>
  <fix>3d</fix>
</trkpt>
<trkpt lat="40.0711047" lon="-105.2298616">
  <ele>1583.0</ele>
  <time>2026-08-28T17:56:41Z</time>
  <course>72.54</course>
  <speed>3.02</speed>
  <fix>3d</fix>
</trkpt>
<trkpt lat="40.0711067" lon="-105.2298541">
  <ele>1583.14</ele>
  <time>2026-08-28T17:56:41Z</time>
  <course>73.9</course>
  <speed>2.9917553375902917</speed>
  <fix>3d</fix>
</trkpt>
<trkpt lat="40.0711047" lon="-105.2298616">
  <ele>1583.0</ele>
  <time>2026-08-28T17:56:41Z</time>
  <course>72.54</course>
  <speed>3.02</speed>
  <fix>3d</fix>
</trkpt>
<trkpt lat="40.0711075" lon="-105.2298508">
  <ele>1583.14</ele>
  <time>2026-08-28T17:56:41Z</time>
  <course>73.85</course>
  <speed>2.9822307087145354</speed>
  <fix>3d</fix>
</trkpt>
<trkpt lat="40.0711064" lon="-105.2298548">
  <ele>1583.0</ele>
  <time>2026-08-28T17:56:41Z</time>
  <course>72.46</course>
  <speed>3.03</speed>
  <fix>3d</fix>
</trkpt>
<trkpt lat="40.0711083" lon="-105.2298474">
  <ele>1583.14</ele>
  <time>2026-08-28T17:56:41Z</time>
  <course>73.82</course>
  <speed>2.9917553375902917</speed>
  <fix>3d</fix>
</trkpt>
<trkpt lat="40.0711064" lon="-105.2298548">
  <ele>1583.0</ele>
  <time>2026-08-28T17:56:41Z</time>
  <course>72.46</course>
  <speed>3.03</speed>
  <fix>3d</fix>
</trkpt>
<trkpt lat="40.0711091" lon="-105.229844">
  <ele>1583.14</ele>
  <time>2026-08-28T17:56:41Z</time>
  <course>73.78</course>
  <speed>2.9917553375902917</speed>
  <fix>3d</fix>
</trkpt>
<trkpt lat="40.071108" lon="-105.2298481">
  <ele>1583.0</ele>
  <time>2026-08-28T17:56:41Z</time>
  <course>72.39</course>
  <speed>3.03</speed>
  <fix>3d</fix>
</trkpt>
<trkpt lat="40.0711099" lon="-105.2298406">
  <ele>1583.14</ele>
  <time>2026-08-28T17:56:41Z</time>
  <course>73.74</course>
  <speed>2.9917553375902917</speed>
  <fix>3d</fix>
</trkpt>
<trkpt lat="40.071108" lon="-105.2298481">
  <ele>1583.0</ele>
  <time>2026-08-28T17:56:41Z</time>
  <course>72.39</course>
  <speed>3.03</speed>
  <fix>3d</fix>
</trkpt>
<trkpt lat="40.0711107" lon="-105.2298372">
  <ele>1583.13</ele>
  <time>2026-08-28T17:56:41Z</time>
  <course>73.71</course>
  <speed>2.9917553375902917</speed>
  <fix>3d</fix>
</trkpt>
<trkpt lat="40.0711096" lon="-105.2298413">
  <ele>1583.0</ele>
  <time>2026-08-28T17:56:41Z</time>
  <course>72.33</course>
  <speed>3.03</speed>
  <fix>3d</fix>
</trkpt>
<trkpt lat="40.0711115" lon="-105.2298338">
  <ele>1583.13</ele>
  <time>2026-08-28T17:56:41Z</time>
  <course>73.68</course>
  <speed>2.9917553375902917</speed>
  <fix>3d</fix>
</trkpt>
<trkpt lat="40.0711096" lon="-105.2298413">
  <ele>1583.0</ele>
  <time>2026-08-28T17:56:41Z</time>
  <course>72.33</course>
  <speed>3.03</speed>
  <fix>3d</fix>
</trkpt>
<trkpt lat="40.0711124" lon="-105.2298304">
  <ele>1583.13</ele>
  <time>2026-08-28T17:56:41Z</time>
  <course>73.64</course>
  <speed>2.9917553375902917</speed>
  <fix>3d</fix>
</trkpt>
<trkpt lat="40.0711113" lon="-105.2298345">
  <ele>1583.0</ele>
  <time>2026-08-28T17:56:41Z</time>
  <course>72.27</course>
  <speed>3.03</speed>
  <fix>3d</fix>
</trkpt>
<trkpt lat="40.0711132" lon="-105.2298269">
  <ele>1583.13</ele>
  <time>2026-08-28T17:56:41Z</time>
  <course>73.61</course>
  <speed>2.9917553375902917</speed>
  <fix>3d</fix>
</trkpt>
<trkpt lat="40.0711113" lon="-105.2298345">
  <ele>1583.0</ele>
  <time>2026-08-28T17:56:41Z</time>
  <course>72.27</course>
  <speed>3.03</speed>
  <fix>3d</fix>
</trkpt>
<trkpt lat="40.071114" lon="-105.2298236">
  <ele>1583.13</ele>
  <time>2026-08-28T17:56:41Z</time>
  <course>73.58</course>
  <speed>2.9917553375902917</speed>
  <fix>3d</fix>
</trkpt>
<trkpt lat="40.0711129" lon="-105.2298276">
  <ele>1583.0</ele>
  <time>2026-08-28T17:56:41Z</time>
  <course>72.21</course>
  <speed>3.03</speed>
  <fix>3d</fix>
</trkpt>
<trkpt lat="40.0711148" lon="-105.2298202">
  <ele>1583.13</ele>
  <time>2026-08-28T17:56:41Z</time>
  <course>73.54</course>
  <speed>2.9917553375902917</speed>
  <fix>3d</fix>
</trkpt>
<trkpt lat="40.0711129" lon="-105.2298276">
  <ele>1583.0</ele>
  <time>2026-08-28T17:56:41Z</time>
  <course>72.21</course>
  <speed>3.03</speed>
  <fix>3d</fix>
</trkpt>
<trkpt lat="40.0711157" lon="-105.2298168">
  <ele>1583.13</ele>
  <time>2026-08-28T17:56:41Z</time>
  <course>73.5</course>
  <speed>2.9917553375902917</speed>
  <fix>3d</fix>
</trkpt>
<trkpt lat="40.0711146" lon="-105.2298209">
  <ele>1583.0</ele>
  <time>2026-08-28T17:56:41Z</time>
  <course>72.15</course>
  <speed>3.03</speed>
  <fix>3d</fix>
</trkpt>
<trkpt lat="40.0711165" lon="-105.2298133">
  <ele>1583.13</ele>
  <time>2026-08-28T17:56:41Z</time>
  <course>73.46</course>
  <speed>2.9917553375902917</speed>
  <fix>3d</fix>
</trkpt>
<trkpt lat="40.0711146" lon="-105.2298209">
  <ele>1583.0</ele>
  <time>2026-08-28T17:56:41Z</time>
  <course>72.15</course>
  <speed>3.03</speed>
  <fix>3d</fix>
</trkpt>
<trkpt lat="40.0711173" lon="-105.2298099">
  <ele>1583.13</ele>
  <time>2026-08-28T17:56:41Z</time>
  <course>73.43</course>
  <speed>2.9917553375902917</speed>
  <fix>3d</fix>
</trkpt>
<trkpt lat="40.0711146" lon="-105.2298209">
  <ele>1583.0</ele>
  <time>2026-08-28T17:56:41Z</time>
  <course>72.15</course>
  <speed>3.03</speed>
  <fix>3d</fix>
</trkpt>
<trkpt lat="40.0711181" lon="-105.2298065">
  <ele>1583.13</ele>
  <time>2026-08-28T17:56:41Z</time>
  <course>73.38</course>
  <speed>2.9917553375902917</speed>
  <fix>3d</fix>
</trkpt>
<trkpt lat="40.0711163" lon="-105.2298141">
  <ele>1583.0</ele>
  <time>2026-08-28T17:56:41Z</time>
  <course>72.08</course>
  <speed>3.03</speed>
  <fix>3d</fix>
</trkpt>
<trkpt lat="40.071119" lon="-105.2298032">
  <ele>1583.13</ele>
  <time>2026-08-28T17:56:41Z</time>
  <course>73.35</course>
  <speed>2.9917553375902917</speed>
  <fix>3d</fix>
</trkpt>
<trkpt lat="40.0711163" lon="-105.2298141">
  <ele>1583.0</ele>
  <time>2026-08-28T17:56:41Z</time>
  <course>72.08</course>
  <speed>3.03</speed>
  <fix>3d</fix>
</trkpt>
<trkpt lat="40.0711198" lon="-105.2297998">
  <ele>1583.13</ele>
  <time>2026-08-28T17:56:41Z</time>
  <course>73.32</course>
  <speed>2.9822307087145354</speed>
  <fix>3d</fix>
</trkpt>
<trkpt lat="40.071118" lon="-105.2298074">
  <ele>1583.0</ele>
  <time>2026-08-28T17:56:41Z</time>
  <course>72.02</course>
  <speed>3.03</speed>
  <fix>3d</fix>
</trkpt>
<trkpt lat="40.0711206" lon="-105.2297965">
  <ele>1583.13</ele>
  <time>2026-08-28T17:56:41Z</time>
  <course>73.28</course>
  <speed>2.9822307087145354</speed>
  <fix>3d</fix>
</trkpt>
<trkpt lat="40.071118" lon="-105.2298074">
  <ele>1583.0</ele>
  <time>2026-08-28T17:56:41Z</time>
  <course>72.02</course>
  <speed>3.03</speed>
  <fix>3d</fix>
</trkpt>
<trkpt lat="40.0711215" lon="-105.2297931">
  <ele>1583.13</ele>
  <time>2026-08-28T17:56:41Z</time>
  <course>73.24</course>
  <speed>2.9822307087145354</speed>
  <fix>3d</fix>
</trkpt>
<trkpt lat="40.0711197" lon="-105.2298006">
  <ele>1583.0</ele>
  <time>2026-08-28T17:56:41Z</time>
  <course>71.95</course>
  <speed>3.03</speed>
  <fix>3d</fix>
</trkpt>
<trkpt lat="40.0711223" lon="-105.2297897">
  <ele>1583.13</ele>
  <time>2026-08-28T17:56:41Z</time>
  <course>73.2</course>
  <speed>2.9822307087145354</speed>
  <fix>3d</fix>
</trkpt>
<trkpt lat="40.0711214" lon="-105.2297938">
  <ele>1583.0</ele>
  <time>2026-08-28T17:56:41Z</time>
  <course>71.89</course>
  <speed>3.03</speed>
  <fix>3d</fix>
</trkpt>
<trkpt lat="40.0711231" lon="-105.2297864">
  <ele>1583.14</ele>
  <time>2026-08-28T17:56:41Z</time>
  <course>73.16</course>
  <speed>2.9822307087145354</speed>
  <fix>3d</fix>
</trkpt>
<trkpt lat="40.0711214" lon="-105.2297938">
  <ele>1583.0</ele>
  <time>2026-08-28T17:56:41Z</time>
  <course>71.89</course>
  <speed>3.03</speed>
  <fix>3d</fix>
</trkpt>
<trkpt lat="40.071124" lon="-105.229783">
  <ele>1583.14</ele>
  <time>2026-08-28T17:56:41Z</time>
  <course>73.13</course>
  <speed>2.9822307087145354</speed>
  <fix>3d</fix>
</trkpt>
<trkpt lat="40.0711231" lon="-105.229787">
  <ele>1583.0</ele>
  <time>2026-08-28T17:56:41Z</time>
  <course>71.82</course>
  <speed>3.03</speed>
  <fix>3d</fix>
</trkpt>
<trkpt lat="40.0711248" lon="-105.2297796">
  <ele>1583.14</ele>
  <time>2026-08-28T17:56:41Z</time>
  <course>73.09</course>
  <speed>2.9852973051272467</speed>
  <fix>3d</fix>
</trkpt>
<trkpt lat="40.0711231" lon="-105.229787">
  <ele>1583.0</ele>
  <time>2026-08-28T17:56:41Z</time>
  <course>71.82</course>
  <speed>3.03</speed>
  <fix>3d</fix>
</trkpt>
<trkpt lat="40.0711257" lon="-105.2297762">
  <ele>1583.14</ele>
  <time>2026-08-28T17:56:41Z</time>
  <course>73.06</course>
  <speed>2.9852973051272467</speed>
  <fix>3d</fix>
</trkpt>
<trkpt lat="40.0711248" lon="-105.2297802">
  <ele>1583.0</ele>
  <time>2026-08-28T17:56:41Z</time>
  <course>71.76</course>
  <speed>3.03</speed>
  <fix>3d</fix>
</trkpt>
<trkpt lat="40.0711265" lon="-105.2297728">
  <ele>1583.13</ele>
  <time>2026-08-28T17:56:41Z</time>
  <course>73.02</course>
  <speed>2.9852973051272467</speed>
  <fix>3d</fix>
</trkpt>
<trkpt lat="40.0711248" lon="-105.2297802">
  <ele>1583.0</ele>
  <time>2026-08-28T17:56:41Z</time>
  <course>71.76</course>
  <speed>3.03</speed>
  <fix>3d</fix>
</trkpt>
<trkpt lat="40.0711274" lon="-105.2297694">
  <ele>1583.13</ele>
  <time>2026-08-28T17:56:41Z</time>
  <course>72.99</course>
  <speed>2.9852973051272467</speed>
  <fix>3d</fix>
</trkpt>
<trkpt lat="40.0711265" lon="-105.2297734">
  <ele>1583.0</ele>
  <time>2026-08-28T17:56:41Z</time>
  <course>71.7</course>
  <speed>3.03</speed>
  <fix>3d</fix>
</trkpt>
<trkpt lat="40.0711282" lon="-105.229766">
  <ele>1583.14</ele>
  <time>2026-08-28T17:56:41Z</time>
  <course>72.98</course>
  <speed>2.9852973051272467</speed>
  <fix>3d</fix>
</trkpt>
<trkpt lat="40.0711265" lon="-105.2297734">
  <ele>1583.0</ele>
  <time>2026-08-28T17:56:41Z</time>
  <course>71.7</course>
  <speed>3.03</speed>
  <fix>3d</fix>
</trkpt>
<trkpt lat="40.0711291" lon="-105.2297626">
  <ele>1583.14</ele>
  <time>2026-08-28T17:56:41Z</time>
  <course>72.95</course>
  <speed>2.9852973051272467</speed>
  <fix>3d</fix>
</trkpt>
<trkpt lat="40.0711282" lon="-105.2297667">
  <ele>1583.0</ele>
  <time>2026-08-28T17:56:41Z</time>
  <course>71.66</course>
  <speed>3.03</speed>
  <fix>3d</fix>
</trkpt>
<trkpt lat="40.07113" lon="-105.2297592">
  <ele>1583.14</ele>
  <time>2026-08-28T17:56:41Z</time>
  <course>72.94</course>
  <speed>2.9852973051272467</speed>
  <fix>3d</fix>
</trkpt>
<trkpt lat="40.0711282" lon="-105.2297667">
  <ele>1583.0</ele>
  <time>2026-08-28T17:56:41Z</time>
  <course>71.66</course>
  <speed>3.03</speed>
  <fix>3d</fix>
</trkpt>
<trkpt lat="40.0711308" lon="-105.2297558">
  <ele>1583.14</ele>
  <time>2026-08-28T17:56:41Z</time>
  <course>72.93</course>
  <speed>2.9852973051272467</speed>
  <fix>3d</fix>
</trkpt>
<trkpt lat="40.0711299" lon="-105.22976">
  <ele>1583.0</ele>
  <time>2026-08-28T17:56:41Z</time>
  <course>71.65</course>
  <speed>3.03</speed>
  <fix>3d</fix>
</trkpt>
<trkpt lat="40.0711317" lon="-105.2297524">
  <ele>1583.15</ele>
  <time>2026-08-28T17:56:41Z</time>
  <course>72.9</course>
  <speed>2.9852973051272467</speed>
  <fix>3d</fix>
</trkpt>
<trkpt lat="40.0711299" lon="-105.22976">
  <ele>1583.0</ele>
  <time>2026-08-28T17:56:41Z</time>
  <course>71.65</course>
  <speed>3.03</speed>
  <fix>3d</fix>
</trkpt>
<trkpt lat="40.0711325" lon="-105.229749">
  <ele>1583.15</ele>
  <time>2026-08-28T17:56:41Z</time>
  <course>72.88</course>
  <speed>2.9852973051272467</speed>
  <fix>3d</fix>
</trkpt>
<trkpt lat="40.0711316" lon="-105.2297532">
  <ele>1583.0</ele>
  <time>2026-08-28T17:56:41Z</time>
  <course>71.62</course>
  <speed>3.03</speed>
  <fix>3d</fix>
</trkpt>
<trkpt lat="40.0711334" lon="-105.2297456">
  <ele>1583.15</ele>
  <time>2026-08-28T17:56:41Z</time>
  <course>72.87</course>
  <speed>2.9852973051272467</speed>
  <fix>3d</fix>
</trkpt>
<trkpt lat="40.0711316" lon="-105.2297532">
  <ele>1583.0</ele>
  <time>2026-08-28T17:56:41Z</time>
  <course>71.62</course>
  <speed>3.03</speed>
  <fix>3d</fix>
</trkpt>
<trkpt lat="40.0711342" lon="-105.2297423">
  <ele>1583.15</ele>
  <time>2026-08-28T17:56:41Z</time>
  <course>72.86</course>
  <speed>2.9852973051272467</speed>
  <fix>3d</fix>
</trkpt>
<trkpt lat="40.0711316" lon="-105.2297532">
  <ele>1583.0</ele>
  <time>2026-08-28T17:56:41Z</time>
  <course>71.62</course>
  <speed>3.03</speed>
  <fix>3d</fix>
</trkpt>
<trkpt lat="40.0711351" lon="-105.2297389">
  <ele>1583.15</ele>
  <time>2026-08-28T17:56:41Z</time>
  <course>72.85</course>
  <speed>2.9852973051272467</speed>
  <fix>3d</fix>
</trkpt>
<trkpt lat="40.0711333" lon="-105.2297465">
  <ele>1583.0</ele>
  <time>2026-08-28T17:56:41Z</time>
  <course>71.59</course>
  <speed>3.02</speed>
  <fix>3d</fix>
</trkpt>
<trkpt lat="40.0711359" lon="-105.2297355">
  <ele>1583.15</ele>
  <time>2026-08-28T17:56:41Z</time>
  <course>72.85</course>
  <speed>2.97578561055732</speed>
  <fix>3d</fix>
</trkpt>
<trkpt lat="40.0711333" lon="-105.2297465">
  <ele>1583.0</ele>
  <time>2026-08-28T17:56:41Z</time>
  <course>71.59</course>
  <speed>3.02</speed>
  <fix>3d</fix>
</trkpt>
<trkpt lat="40.0711368" lon="-105.2297322">
  <ele>1583.15</ele>
  <time>2026-08-28T17:56:41Z</time>
  <course>72.84</course>
  <speed>2.97578561055732</speed>
  <fix>3d</fix>
</trkpt>
<trkpt lat="40.0711351" lon="-105.2297397">
  <ele>1583.0</ele>
  <time>2026-08-28T17:56:41Z</time>
  <course>71.59</course>
  <speed>3.02</speed>
  <fix>3d</fix>
</trkpt>
<trkpt lat="40.0711376" lon="-105.2297288">
  <ele>1583.15</ele>
  <time>2026-08-28T17:56:41Z</time>
  <course>72.84</course>
  <speed>2.97578561055732</speed>
  <fix>3d</fix>
</trkpt>
<trkpt lat="40.0711351" lon="-105.2297397">
  <ele>1583.0</ele>
  <time>2026-08-28T17:56:41Z</time>
  <course>71.59</course>
  <speed>3.02</speed>
  <fix>3d</fix>
</trkpt>
<trkpt lat="40.0711385" lon="-105.2297255">
  <ele>1583.15</ele>
  <time>2026-08-28T17:56:41Z</time>
  <course>72.82</course>
  <speed>2.97578561055732</speed>
  <fix>3d</fix>
</trkpt>
<trkpt lat="40.0711368" lon="-105.2297329">
  <ele>1583.0</ele>
  <time>2026-08-28T17:56:41Z</time>
  <course>71.58</course>
  <speed>3.02</speed>
  <fix>3d</fix>
</trkpt>
<trkpt lat="40.0711393" lon="-105.2297222">
  <ele>1583.15</ele>
  <time>2026-08-28T17:56:41Z</time>
  <course>72.82</course>
  <speed>2.9727092020579478</speed>
  <fix>3d</fix>
</trkpt>
<trkpt lat="40.0711368" lon="-105.2297329">
  <ele>1583.0</ele>
  <time>2026-08-28T17:56:41Z</time>
  <course>71.58</course>
  <speed>3.02</speed>
  <fix>3d</fix>
</trkpt>
<trkpt lat="40.0711402" lon="-105.2297188">
  <ele>1583.15</ele>
  <time>2026-08-28T17:56:41Z</time>
  <course>72.82</course>
  <speed>2.9727092020579478</speed>
  <fix>3d</fix>
</trkpt>
<trkpt lat="40.0711385" lon="-105.2297262">
  <ele>1583.0</ele>
  <time>2026-08-28T17:56:41Z</time>
  <course>71.57</course>
  <speed>3.02</speed>
  <fix>3d</fix>
</trkpt>
<trkpt lat="40.071141" lon="-105.2297155">
  <ele>1583.15</ele>
  <time>2026-08-28T17:56:41Z</time>
  <course>72.82</course>
  <speed>2.9727092020579478</speed>
  <fix>3d</fix>
</trkpt>
<trkpt lat="40.0711402" lon="-105.2297194">
  <ele>1583.0</ele>
  <time>2026-08-28T17:56:41Z</time>
  <course>71.57</course>
  <speed>3.02</speed>
  <fix>3d</fix>
</trkpt>
<trkpt lat="40.0711419" lon="-105.2297121">
  <ele>1583.15</ele>
  <time>2026-08-28T17:56:41Z</time>
  <course>72.82</course>
  <speed>2.9727092020579478</speed>
  <fix>3d</fix>
</trkpt>
<trkpt lat="40.0711402" lon="-105.2297194">
  <ele>1583.0</ele>
  <time>2026-08-28T17:56:41Z</time>
  <course>71.57</course>
  <speed>3.02</speed>
  <fix>3d</fix>
</trkpt>
<trkpt lat="40.0711427" lon="-105.2297087">
  <ele>1583.15</ele>
  <time>2026-08-28T17:56:41Z</time>
  <course>72.82</course>
  <speed>2.9727092020579478</speed>
  <fix>3d</fix>
</trkpt>
<trkpt lat="40.0711419" lon="-105.2297127">
  <ele>1583.0</ele>
  <time>2026-08-28T17:56:41Z</time>
  <course>71.57</course>
  <speed>3.02</speed>
  <fix>3d</fix>
</trkpt>
<trkpt lat="40.0711436" lon="-105.2297053">
  <ele>1583.15</ele>
  <time>2026-08-28T17:56:41Z</time>
  <course>72.82</course>
  <speed>2.9727092020579478</speed>
  <fix>3d</fix>
</trkpt>
<trkpt lat="40.0711419" lon="-105.2297127">
  <ele>1583.0</ele>
  <time>2026-08-28T17:56:41Z</time>
  <course>71.57</course>
  <speed>3.02</speed>
  <fix>3d</fix>
</trkpt>
<trkpt lat="40.0711444" lon="-105.229702">
  <ele>1583.15</ele>
  <time>2026-08-28T17:56:41Z</time>
  <course>72.81</course>
  <speed>2.9727092020579478</speed>
  <fix>3d</fix>
</trkpt>
<trkpt lat="40.0711436" lon="-105.2297059">
  <ele>1583.0</ele>
  <time>2026-08-28T17:56:41Z</time>
  <course>71.58</course>
  <speed>3.02</speed>
  <fix>3d</fix>
</trkpt>
<trkpt lat="40.0711453" lon="-105.2296985">
  <ele>1583.15</ele>
  <time>2026-08-28T17:56:41Z</time>
  <course>72.81</course>
  <speed>2.9727092020579478</speed>
  <fix>3d</fix>
</trkpt>
<trkpt lat="40.0711436" lon="-105.2297059">
  <ele>1583.0</ele>
  <time>2026-08-28T17:56:41Z</time>
  <course>71.58</course>
  <speed>3.02</speed>
  <fix>3d</fix>
</trkpt>
<trkpt lat="40.0711462" lon="-105.2296952">
  <ele>1583.16</ele>
  <time>2026-08-28T17:56:41Z</time>
  <course>72.8</course>
  <speed>2.9727092020579478</speed>
  <fix>3d</fix>
</trkpt>
<trkpt lat="40.0711454" lon="-105.2296992">
  <ele>1583.0</ele>
  <time>2026-08-28T17:56:41Z</time>
  <course>71.58</course>
  <speed>3.02</speed>
  <fix>3d</fix>
</trkpt>
<trkpt lat="40.071147" lon="-105.2296918">
  <ele>1583.16</ele>
  <time>2026-08-28T17:56:41Z</time>
  <course>72.81</course>
  <speed>2.9727092020579478</speed>
  <fix>3d</fix>
</trkpt>
<trkpt lat="40.0711454" lon="-105.2296992">
  <ele>1583.0</ele>
  <time>2026-08-28T17:56:41Z</time>
  <course>71.58</course>
  <speed>3.02</speed>
  <fix>3d</fix>
</trkpt>
<trkpt lat="40.0711479" lon="-105.2296884">
  <ele>1583.15</ele>
  <time>2026-08-28T17:56:41Z</time>
  <course>72.8</course>
  <speed>2.9727092020579478</speed>
  <fix>3d</fix>
</trkpt>
<trkpt lat="40.0711471" lon="-105.2296925">
  <ele>1583.0</ele>
  <time>2026-08-28T17:56:41Z</time>
  <course>71.58</course>
  <speed>3.02</speed>
  <fix>3d</fix>
</trkpt>
<trkpt lat="40.0711487" lon="-105.229685">
  <ele>1583.15</ele>
  <time>2026-08-28T17:56:41Z</time>
  <course>72.81</course>
  <speed>2.9727092020579478</speed>
  <fix>3d</fix>
</trkpt>
<trkpt lat="40.0711471" lon="-105.2296925">
  <ele>1583.0</ele>
  <time>2026-08-28T17:56:41Z</time>
  <course>71.58</course>
  <speed>3.02</speed>
  <fix>3d</fix>
</trkpt>
<trkpt lat="40.0711496" lon="-105.2296816">
  <ele>1583.15</ele>
  <time>2026-08-28T17:56:41Z</time>
  <course>72.81</course>
  <speed>2.9727092020579478</speed>
  <fix>3d</fix>
</trkpt>
<trkpt lat="40.0711488" lon="-105.2296858">
  <ele>1583.0</ele>
  <time>2026-08-28T17:56:41Z</time>
  <course>71.59</course>
  <speed>3.02</speed>
  <fix>3d</fix>
</trkpt>
<trkpt lat="40.0711505" lon="-105.2296782">
  <ele>1583.15</ele>
  <time>2026-08-28T17:56:41Z</time>
  <course>72.81</course>
  <speed>2.9727092020579478</speed>
  <fix>3d</fix>
</trkpt>
<trkpt lat="40.0711488" lon="-105.2296858">
  <ele>1583.0</ele>
  <time>2026-08-28T17:56:41Z</time>
  <course>71.59</course>
  <speed>3.02</speed>
  <fix>3d</fix>
</trkpt>
<trkpt lat="40.0711513" lon="-105.2296749">
  <ele>1583.15</ele>
  <time>2026-08-28T17:56:41Z</time>
  <course>72.81</course>
  <speed>2.9727092020579478</speed>
  <fix>3d</fix>
</trkpt>
<trkpt lat="40.0711488" lon="-105.2296858">
  <ele>1583.0</ele>
  <time>2026-08-28T17:56:41Z</time>
  <course>71.59</course>
  <speed>3.02</speed>
  <fix>3d</fix>
</trkpt>
<trkpt lat="40.0711522" lon="-105.2296715">
  <ele>1583.15</ele>
  <time>2026-08-28T17:56:41Z</time>
  <course>72.81</course>
  <speed>2.9727092020579478</speed>
  <fix>3d</fix>
</trkpt>
<trkpt lat="40.0711505" lon="-105.229679">
  <ele>1583.0</ele>
  <time>2026-08-28T17:56:41Z</time>
  <course>71.61</course>
  <speed>3.01</speed>
  <fix>3d</fix>
</trkpt>
<trkpt lat="40.071153" lon="-105.2296681">
  <ele>1583.14</ele>
  <time>2026-08-28T17:56:41Z</time>
  <course>72.83</course>
  <speed>2.9727092020579478</speed>
  <fix>3d</fix>
</trkpt>
<trkpt lat="40.0711505" lon="-105.229679">
  <ele>1583.0</ele>
  <time>2026-08-28T17:56:41Z</time>
  <course>71.61</course>
  <speed>3.01</speed>
  <fix>3d</fix>
</trkpt>
<trkpt lat="40.0711539" lon="-105.2296648">
  <ele>1583.14</ele>
  <time>2026-08-28T17:56:41Z</time>
  <course>72.84</course>
  <speed>2.9727092020579478</speed>
  <fix>3d</fix>
</trkpt>
<trkpt lat="40.0711522" lon="-105.2296723">
  <ele>1583.0</ele>
  <time>2026-08-28T17:56:41Z</time>
  <course>71.62</course>
  <speed>3.01</speed>
  <fix>3d</fix>
</trkpt>
<trkpt lat="40.0711547" lon="-105.2296615">
  <ele>1583.14</ele>
  <time>2026-08-28T17:56:41Z</time>
  <course>72.84</course>
  <speed>2.9727092020579478</speed>
  <fix>3d</fix>
</trkpt>
<trkpt lat="40.0711522" lon="-105.2296723">
  <ele>1583.0</ele>
  <time>2026-08-28T17:56:41Z</time>
  <course>71.62</course>
  <speed>3.01</speed>
  <fix>3d</fix>
</trkpt>
<trkpt lat="40.0711556" lon="-105.2296581">
  <ele>1583.14</ele>
  <time>2026-08-28T17:56:41Z</time>
  <course>72.85</course>
  <speed>2.9727092020579478</speed>
  <fix>3d</fix>
</trkpt>
<trkpt lat="40.0711539" lon="-105.2296656">
  <ele>1583.0</ele>
  <time>2026-08-28T17:56:41Z</time>
  <course>71.64</course>
  <speed>3.01</speed>
  <fix>3d</fix>
</trkpt>
<trkpt lat="40.0711564" lon="-105.2296548">
  <ele>1583.14</ele>
  <time>2026-08-28T17:56:41Z</time>
  <course>72.86</course>
  <speed>2.9727092020579478</speed>
  <fix>3d</fix>
</trkpt>
<trkpt lat="40.0711539" lon="-105.2296656">
  <ele>1583.0</ele>
  <time>2026-08-28T17:56:41Z</time>
  <course>71.64</course>
  <speed>3.01</speed>
  <fix>3d</fix>
</trkpt>
<trkpt lat="40.0711573" lon="-105.2296515">
  <ele>1583.14</ele>
  <time>2026-08-28T17:56:41Z</time>
  <course>72.87</course>
  <speed>2.9727092020579478</speed>
  <fix>3d</fix>
</trkpt>
<trkpt lat="40.0711556" lon="-105.2296588">
  <ele>1583.0</ele>
  <time>2026-08-28T17:56:41Z</time>
  <course>71.66</course>
  <speed>3.01</speed>
  <fix>3d</fix>
</trkpt>
<trkpt lat="40.0711581" lon="-105.2296481">
  <ele>1583.14</ele>
  <time>2026-08-28T17:56:41Z</time>
  <course>72.87</course>
  <speed>2.9727092020579478</speed>
  <fix>3d</fix>
</trkpt>
<trkpt lat="40.0711573" lon="-105.2296521">
  <ele>1583.0</ele>
  <time>2026-08-28T17:56:41Z</time>
  <course>71.67</course>
  <speed>3.01</speed>
  <fix>3d</fix>
</trkpt>
<trkpt lat="40.0711589" lon="-105.2296448">
  <ele>1583.14</ele>
  <time>2026-08-28T17:56:41Z</time>
  <course>72.88</course>
  <speed>2.9727092020579478</speed>
  <fix>3d</fix>
</trkpt>
<trkpt lat="40.0711573" lon="-105.2296521">
  <ele>1583.0</ele>
  <time>2026-08-28T17:56:41Z</time>
  <course>71.67</course>
  <speed>3.01</speed>
  <fix>3d</fix>
</trkpt>
<trkpt lat="40.0711598" lon="-105.2296414">
  <ele>1583.14</ele>
  <time>2026-08-28T17:56:41Z</time>
  <course>72.88</course>
  <speed>2.9727092020579478</speed>
  <fix>3d</fix>
</trkpt>
<trkpt lat="40.071159" lon="-105.2296454">
  <ele>1583.0</ele>
  <time>2026-08-28T17:56:41Z</time>
  <course>71.69</course>
  <speed>3.01</speed>
  <fix>3d</fix>
</trkpt>
<trkpt lat="40.0711607" lon="-105.229638">
  <ele>1583.14</ele>
  <time>2026-08-28T17:56:41Z</time>
  <course>72.91</course>
  <speed>2.9727092020579478</speed>
  <fix>3d</fix>
</trkpt>
<trkpt lat="40.071159" lon="-105.2296454">
  <ele>1583.0</ele>
  <time>2026-08-28T17:56:41Z</time>
  <course>71.69</course>
  <speed>3.01</speed>
  <fix>3d</fix>
</trkpt>
<trkpt lat="40.0711615" lon="-105.2296346">
  <ele>1583.14</ele>
  <time>2026-08-28T17:56:41Z</time>
  <course>72.92</course>
  <speed>2.969663280575763</speed>
  <fix>3d</fix>
</trkpt>
<trkpt lat="40.0711607" lon="-105.2296387">
  <ele>1583.0</ele>
  <time>2026-08-28T17:56:41Z</time>
  <course>71.72</course>
  <speed>3.01</speed>
  <fix>3d</fix>
</trkpt>
<trkpt lat="40.0711624" lon="-105.2296312">
  <ele>1583.14</ele>
  <time>2026-08-28T17:56:41Z</time>
  <course>72.95</course>
  <speed>2.969663280575763</speed>
  <fix>3d</fix>
</trkpt>
<trkpt lat="40.0711607" lon="-105.2296387">
  <ele>1583.0</ele>
  <time>2026-08-28T17:56:41Z</time>
  <course>71.72</course>
  <speed>3.01</speed>
  <fix>3d</fix>
</trkpt>
<trkpt lat="40.0711632" lon="-105.2296279">
  <ele>1583.14</ele>
  <time>2026-08-28T17:56:41Z</time>
  <course>72.96</course>
  <speed>2.969663280575763</speed>
  <fix>3d</fix>
</trkpt>
<trkpt lat="40.0711624" lon="-105.229632">
  <ele>1583.0</ele>
  <time>2026-08-28T17:56:41Z</time>
  <course>71.76</course>
  <speed>3.01</speed>
  <fix>3d</fix>
</trkpt>
<trkpt lat="40.0711641" lon="-105.2296245">
  <ele>1583.14</ele>
  <time>2026-08-28T17:56:41Z</time>
  <course>72.96</course>
  <speed>2.969663280575763</speed>
  <fix>3d</fix>
</trkpt>
<trkpt lat="40.0711624" lon="-105.229632">
  <ele>1583.0</ele>
  <time>2026-08-28T17:56:41Z</time>
  <course>71.76</course>
  <speed>3.01</speed>
  <fix>3d</fix>
</trkpt>
<trkpt lat="40.0711649" lon="-105.2296211">
  <ele>1583.15</ele>
  <time>2026-08-28T17:56:41Z</time>
  <course>72.97</course>
  <speed>2.969663280575763</speed>
  <fix>3d</fix>
</trkpt>
<trkpt lat="40.0711641" lon="-105.2296253">
  <ele>1583.0</ele>
  <time>2026-08-28T17:56:41Z</time>
  <course>71.79</course>
  <speed>3.01</speed>
  <fix>3d</fix>
</trkpt>
<trkpt lat="40.0711658" lon="-105.2296177">
  <ele>1583.15</ele>
  <time>2026-08-28T17:56:41Z</time>
  <course>72.98</course>
  <speed>2.969663280575763</speed>
  <fix>3d</fix>
</trkpt>
<trkpt lat="40.0711641" lon="-105.2296253">
  <ele>1583.0</ele>
  <time>2026-08-28T17:56:41Z</time>
  <course>71.79</course>
  <speed>3.01</speed>
  <fix>3d</fix>
</trkpt>
<trkpt lat="40.0711666" lon="-105.2296144">
  <ele>1583.15</ele>
  <time>2026-08-28T17:56:41Z</time>
  <course>73.0</course>
  <speed>2.969663280575763</speed>
  <fix>3d</fix>
</trkpt>
<trkpt lat="40.0711658" lon="-105.2296185">
  <ele>1583.0</ele>
  <time>2026-08-28T17:56:41Z</time>
  <course>71.81</course>
  <speed>3.0</speed>
  <fix>3d</fix>
</trkpt>
<trkpt lat="40.0711674" lon="-105.229611">
  <ele>1583.15</ele>
  <time>2026-08-28T17:56:41Z</time>
  <course>73.02</course>
  <speed>2.969663280575763</speed>
  <fix>3d</fix>
</trkpt>
<trkpt lat="40.0711658" lon="-105.2296185">
  <ele>1583.0</ele>
  <time>2026-08-28T17:56:41Z</time>
  <course>71.81</course>
  <speed>3.0</speed>
  <fix>3d</fix>
</trkpt>
<trkpt lat="40.0711683" lon="-105.2296076">
  <ele>1583.15</ele>
  <time>2026-08-28T17:56:41Z</time>
  <course>73.03</course>
  <speed>2.969663280575763</speed>
  <fix>3d</fix>
</trkpt>
<trkpt lat="40.0711675" lon="-105.2296118">
  <ele>1583.0</ele>
  <time>2026-08-28T17:56:41Z</time>
  <course>71.85</course>
  <speed>3.0</speed>
  <fix>3d</fix>
</trkpt>
<trkpt lat="40.0711691" lon="-105.2296043">
  <ele>1583.16</ele>
  <time>2026-08-28T17:56:41Z</time>
  <course>73.05</course>
  <speed>2.969663280575763</speed>
  <fix>3d</fix>
</trkpt>
<trkpt lat="40.0711675" lon="-105.2296118">
  <ele>1583.0</ele>
  <time>2026-08-28T17:56:41Z</time>
  <course>71.85</course>
  <speed>3.0</speed>
  <fix>3d</fix>
</trkpt>
<trkpt lat="40.07117" lon="-105.2296009">
  <ele>1583.16</ele>
  <time>2026-08-28T17:56:41Z</time>
  <course>73.05</course>
  <speed>2.969663280575763</speed>
  <fix>3d</fix>
</trkpt>
<trkpt lat="40.0711675" lon="-105.2296118">
  <ele>1583.0</ele>
  <time>2026-08-28T17:56:41Z</time>
  <course>71.85</course>
  <speed>3.0</speed>
  <fix>3d</fix>
</trkpt>
<trkpt lat="40.0711708" lon="-105.2295975">
  <ele>1583.16</ele>
  <time>2026-08-28T17:56:41Z</time>
  <course>73.06</course>
  <speed>2.969663280575763</speed>
  <fix>3d</fix>
</trkpt>
<trkpt lat="40.0711692" lon="-105.2296051">
  <ele>1583.0</ele>
  <time>2026-08-28T17:56:41Z</time>
  <course>71.88</course>
  <speed>3.0</speed>
  <fix>3d</fix>
</trkpt>
<trkpt lat="40.0711717" lon="-105.2295942">
  <ele>1583.17</ele>
  <time>2026-08-28T17:56:41Z</time>
  <course>73.07</course>
  <speed>2.969663280575763</speed>
  <fix>3d</fix>
</trkpt>
<trkpt lat="40.0711692" lon="-105.2296051">
  <ele>1583.0</ele>
  <time>2026-08-28T17:56:41Z</time>
  <course>71.88</course>
  <speed>3.0</speed>
  <fix>3d</fix>
</trkpt>
<trkpt lat="40.0711725" lon="-105.2295908">
  <ele>1583.17</ele>
  <time>2026-08-28T17:56:41Z</time>
  <course>73.07</course>
  <speed>2.969663280575763</speed>
  <fix>3d</fix>
</trkpt>
<trkpt lat="40.0711709" lon="-105.2295984">
  <ele>1583.0</ele>
  <time>2026-08-28T17:56:41Z</time>
  <course>71.9</course>
  <speed>3.0</speed>
  <fix>3d</fix>
</trkpt>
<trkpt lat="40.0711733" lon="-105.2295875">
  <ele>1583.17</ele>
  <time>2026-08-28T17:56:41Z</time>
  <course>73.09</course>
  <speed>2.969663280575763</speed>
  <fix>3d</fix>
</trkpt>
<trkpt lat="40.0711709" lon="-105.2295984">
  <ele>1583.0</ele>
  <time>2026-08-28T17:56:41Z</time>
  <course>71.9</course>
  <speed>3.0</speed>
  <fix>3d</fix>
</trkpt>
<trkpt lat="40.0711742" lon="-105.2295842">
  <ele>1583.17</ele>
  <time>2026-08-28T17:56:41Z</time>
  <course>73.1</course>
  <speed>2.969663280575763</speed>
  <fix>3d</fix>
</trkpt>
<trkpt lat="40.0711726" lon="-105.2295917">
  <ele>1583.0</ele>
  <time>2026-08-28T17:56:41Z</time>
  <course>71.92</course>
  <speed>3.0</speed>
  <fix>3d</fix>
</trkpt>
<trkpt lat="40.071175" lon="-105.2295809">
  <ele>1583.17</ele>
  <time>2026-08-28T17:56:41Z</time>
  <course>73.12</course>
  <speed>2.969663280575763</speed>
  <fix>3d</fix>
</trkpt>
<trkpt lat="40.0711742" lon="-105.229585">
  <ele>1583.0</ele>
  <time>2026-08-28T17:56:41Z</time>
  <course>71.95</course>
  <speed>3.0</speed>
  <fix>3d</fix>
</trkpt>
<trkpt lat="40.0711759" lon="-105.2295775">
  <ele>1583.17</ele>
  <time>2026-08-28T17:56:41Z</time>
  <course>73.14</course>
  <speed>2.969663280575763</speed>
  <fix>3d</fix>
</trkpt>
<trkpt lat="40.0711742" lon="-105.229585">
  <ele>1583.0</ele>
  <time>2026-08-28T17:56:41Z</time>
  <course>71.95</course>
  <speed>3.0</speed>
  <fix>3d</fix>
</trkpt>
<trkpt lat="40.0711767" lon="-105.2295742">
  <ele>1583.17</ele>
  <time>2026-08-28T17:56:41Z</time>
  <course>73.15</course>
  <speed>2.969663280575763</speed>
  <fix>3d</fix>
</trkpt>
<trkpt lat="40.0711759" lon="-105.2295783">
  <ele>1583.0</ele>
  <time>2026-08-28T17:56:41Z</time>
  <course>71.98</course>
  <speed>3.0</speed>
  <fix>3d</fix>
</trkpt>
<trkpt lat="40.0711775" lon="-105.2295708">
  <ele>1583.17</ele>
  <time>2026-08-28T17:56:41Z</time>
  <course>73.16</course>
  <speed>2.969663280575763</speed>
  <fix>3d</fix>
</trkpt>
<trkpt lat="40.0711759" lon="-105.2295783">
  <ele>1583.0</ele>
  <time>2026-08-28T17:56:41Z</time>
  <course>71.98</course>
  <speed>3.0</speed>
  <fix>3d</fix>
</trkpt>
<trkpt lat="40.0711784" lon="-105.2295674">
  <ele>1583.18</ele>
  <time>2026-08-28T17:56:41Z</time>
  <course>73.17</course>
  <speed>2.969663280575763</speed>
  <fix>3d</fix>
</trkpt>
<trkpt lat="40.0711776" lon="-105.2295716">
  <ele>1583.0</ele>
  <time>2026-08-28T17:56:41Z</time>
  <course>72.0</course>
  <speed>3.0</speed>
  <fix>3d</fix>
</trkpt>
<trkpt lat="40.0711792" lon="-105.2295641">
  <ele>1583.18</ele>
  <time>2026-08-28T17:56:41Z</time>
  <course>73.18</course>
  <speed>2.9666479400158017</speed>
  <fix>3d</fix>
</trkpt>
<trkpt lat="40.0711776" lon="-105.2295716">
  <ele>1583.0</ele>
  <time>2026-08-28T17:56:41Z</time>
  <course>72.0</course>
  <speed>3.0</speed>
  <fix>3d</fix>
</trkpt>
<trkpt lat="40.0711801" lon="-105.2295607">
  <ele>1583.18</ele>
  <time>2026-08-28T17:56:41Z</time>
  <course>73.19</course>
  <speed>2.9666479400158017</speed>
  <fix>3d</fix>
</trkpt>
<trkpt lat="40.0711792" lon="-105.2295649">
  <ele>1583.0</ele>
  <time>2026-08-28T17:56:41Z</time>
  <course>72.03</course>
  <speed>3.0</speed>
  <fix>3d</fix>
</trkpt>
<trkpt lat="40.0711809" lon="-105.2295573">
  <ele>1583.18</ele>
  <time>2026-08-28T17:56:41Z</time>
  <course>73.21</course>
  <speed>2.9666479400158017</speed>
  <fix>3d</fix>
</trkpt>
<trkpt lat="40.0711792" lon="-105.2295649">
  <ele>1583.0</ele>
  <time>2026-08-28T17:56:41Z</time>
  <course>72.03</course>
  <speed>3.0</speed>
  <fix>3d</fix>
</trkpt>
<trkpt lat="40.0711817" lon="-105.229554">
  <ele>1583.18</ele>
  <time>2026-08-28T17:56:42Z</time>
  <course>73.23</course>
  <speed>2.9666479400158017</speed>
  <fix>3d</fix>
</trkpt>
<trkpt lat="40.0711809" lon="-105.2295582">
  <ele>1583.0</ele>
  <time>2026-08-28T17:56:42Z</time>
  <course>72.06</course>
  <speed>2.99</speed>
  <fix>3d</fix>
</trkpt>
<trkpt lat="40.0711826" lon="-105.2295506">
  <ele>1583.18</ele>
  <time>2026-08-28T17:56:42Z</time>
  <course>73.25</course>
  <speed>2.9666479400158017</speed>
  <fix>3d</fix>
</trkpt>
<trkpt lat="40.0711809" lon="-105.2295582">
  <ele>1583.0</ele>
  <time>2026-08-28T17:56:42Z</time>
  <course>72.06</course>
  <speed>2.99</speed>
  <fix>3d</fix>
</trkpt>
<trkpt lat="40.0711834" lon="-105.2295472">
  <ele>1583.18</ele>
  <time>2026-08-28T17:56:42Z</time>
  <course>73.27</course>
  <speed>2.9666479400158017</speed>
  <fix>3d</fix>
</trkpt>
<trkpt lat="40.0711826" lon="-105.2295515">
  <ele>1583.0</ele>
  <time>2026-08-28T17:56:42Z</time>
  <course>72.1</course>
  <speed>2.99</speed>
  <fix>3d</fix>
</trkpt>
<trkpt lat="40.0711842" lon="-105.2295439">
  <ele>1583.18</ele>
  <time>2026-08-28T17:56:42Z</time>
  <course>73.28</course>
  <speed>2.9666479400158017</speed>
  <fix>3d</fix>
</trkpt>
<trkpt lat="40.0711826" lon="-105.2295515">
  <ele>1583.0</ele>
  <time>2026-08-28T17:56:42Z</time>
  <course>72.1</course>
  <speed>2.99</speed>
  <fix>3d</fix>
</trkpt>
<trkpt lat="40.0711851" lon="-105.2295405">
  <ele>1583.18</ele>
  <time>2026-08-28T17:56:42Z</time>
  <course>73.3</course>
  <speed>2.9666479400158017</speed>
  <fix>3d</fix>
</trkpt>
<trkpt lat="40.0711842" lon="-105.2295448">
  <ele>1583.0</ele>
  <time>2026-08-28T17:56:42Z</time>
  <course>72.13</course>
  <speed>2.99</speed>
  <fix>3d</fix>
</trkpt>
<trkpt lat="40.0711859" lon="-105.2295372">
  <ele>1583.19</ele>
  <time>2026-08-28T17:56:42Z</time>
  <course>73.3</course>
  <speed>2.9666479400158017</speed>
  <fix>3d</fix>
</trkpt>
<trkpt lat="40.0711842" lon="-105.2295448">
  <ele>1583.0</ele>
  <time>2026-08-28T17:56:42Z</time>
  <course>72.13</course>
  <speed>2.99</speed>
  <fix>3d</fix>
</trkpt>
<trkpt lat="40.0711867" lon="-105.2295338">
  <ele>1583.19</ele>
  <time>2026-08-28T17:56:42Z</time>
  <course>73.3</course>
  <speed>2.9666479400158017</speed>
  <fix>3d</fix>
</trkpt>
<trkpt lat="40.0711842" lon="-105.2295448">
  <ele>1583.0</ele>
  <time>2026-08-28T17:56:42Z</time>
  <course>72.13</course>
  <speed>2.99</speed>
  <fix>3d</fix>
</trkpt>
<trkpt lat="40.0711876" lon="-105.2295305">
  <ele>1583.19</ele>
  <time>2026-08-28T17:56:42Z</time>
  <course>73.31</course>
  <speed>2.9666479400158017</speed>
  <fix>3d</fix>
</trkpt>
<trkpt lat="40.0711859" lon="-105.2295381">
  <ele>1583.0</ele>
  <time>2026-08-28T17:56:42Z</time>
  <course>72.15</course>
  <speed>2.99</speed>
  <fix>3d</fix>
</trkpt>
<trkpt lat="40.0711884" lon="-105.2295271">
  <ele>1583.18</ele>
  <time>2026-08-28T17:56:42Z</time>
  <course>73.31</course>
  <speed>2.9666479400158017</speed>
  <fix>3d</fix>
</trkpt>
<trkpt lat="40.0711859" lon="-105.2295381">
  <ele>1583.0</ele>
  <time>2026-08-28T17:56:42Z</time>
  <course>72.15</course>
  <speed>2.99</speed>
  <fix>3d</fix>
</trkpt>
<trkpt lat="40.0711892" lon="-105.2295238">
  <ele>1583.18</ele>
  <time>2026-08-28T17:56:42Z</time>
  <course>73.33</course>
  <speed>2.9666479400158017</speed>
  <fix>3d</fix>
</trkpt>
<trkpt lat="40.0711875" lon="-105.2295314">
  <ele>1583.0</ele>
  <time>2026-08-28T17:56:42Z</time>
  <course>72.16</course>
  <speed>2.99</speed>
  <fix>3d</fix>
</trkpt>
<trkpt lat="40.07119" lon="-105.2295205">
  <ele>1583.18</ele>
  <time>2026-08-28T17:56:42Z</time>
  <course>73.35</course>
  <speed>2.9666479400158017</speed>
  <fix>3d</fix>
</trkpt>
<trkpt lat="40.0711875" lon="-105.2295314">
  <ele>1583.0</ele>
  <time>2026-08-28T17:56:42Z</time>
  <course>72.16</course>
  <speed>2.99</speed>
  <fix>3d</fix>
</trkpt>
<trkpt lat="40.0711908" lon="-105.2295172">
  <ele>1583.17</ele>
  <time>2026-08-28T17:56:42Z</time>
  <course>73.35</course>
  <speed>2.9666479400158017</speed>
  <fix>3d</fix>
</trkpt>
<trkpt lat="40.0711892" lon="-105.2295247">
  <ele>1583.0</ele>
  <time>2026-08-28T17:56:42Z</time>
  <course>72.18</course>
  <speed>2.99</speed>
  <fix>3d</fix>
</trkpt>
<trkpt lat="40.0711916" lon="-105.2295139">
  <ele>1583.17</ele>
  <time>2026-08-28T17:56:42Z</time>
  <course>73.36</course>
  <speed>2.9666479400158017</speed>
  <fix>3d</fix>
</trkpt>
<trkpt lat="40.0711892" lon="-105.2295247">
  <ele>1583.0</ele>
  <time>2026-08-28T17:56:42Z</time>
  <course>72.18</course>
  <speed>2.99</speed>
  <fix>3d</fix>
</trkpt>
<trkpt lat="40.0711925" lon="-105.2295105">
  <ele>1583.17</ele>
  <time>2026-08-28T17:56:42Z</time>
  <course>73.36</course>
  <speed>2.9666479400158017</speed>
  <fix>3d</fix>
</trkpt>
<trkpt lat="40.0711907" lon="-105.229518">
  <ele>1583.0</ele>
  <time>2026-08-28T17:56:42Z</time>
  <course>72.21</course>
  <speed>2.99</speed>
  <fix>3d</fix>
</trkpt>
<trkpt lat="40.0711933" lon="-105.2295072">
  <ele>1583.17</ele>
  <time>2026-08-28T17:56:42Z</time>
  <course>73.36</course>
  <speed>2.9666479400158017</speed>
  <fix>3d</fix>
</trkpt>
<trkpt lat="40.0711924" lon="-105.2295113">
  <ele>1583.0</ele>
  <time>2026-08-28T17:56:42Z</time>
  <course>72.21</course>
  <speed>2.99</speed>
  <fix>3d</fix>
</trkpt>
<trkpt lat="40.0711941" lon="-105.2295039">
  <ele>1583.16</ele>
  <time>2026-08-28T17:56:42Z</time>
  <course>73.36</course>
  <speed>2.9666479400158017</speed>
  <fix>3d</fix>
</trkpt>
<trkpt lat="40.0711924" lon="-105.2295113">
  <ele>1583.0</ele>
  <time>2026-08-28T17:56:42Z</time>
  <course>72.21</course>
  <speed>2.99</speed>
  <fix>3d</fix>
</trkpt>
<trkpt lat="40.0711949" lon="-105.2295005">
  <ele>1583.16</ele>
  <time>2026-08-28T17:56:42Z</time>
  <course>73.36</course>
  <speed>2.9666479400158017</speed>
  <fix>3d</fix>
</trkpt>
<trkpt lat="40.0711941" lon="-105.2295046">
  <ele>1583.0</ele>
  <time>2026-08-28T17:56:42Z</time>
  <course>72.21</course>
  <speed>2.99</speed>
  <fix>3d</fix>
</trkpt>
<trkpt lat="40.0711957" lon="-105.2294971">
  <ele>1583.16</ele>
  <time>2026-08-28T17:56:42Z</time>
  <course>73.36</course>
  <speed>2.9666479400158017</speed>
  <fix>3d</fix>
</trkpt>
<trkpt lat="40.0711941" lon="-105.2295046">
  <ele>1583.0</ele>
  <time>2026-08-28T17:56:42Z</time>
  <course>72.21</course>
  <speed>2.99</speed>
  <fix>3d</fix>
</trkpt>
<trkpt lat="40.0711966" lon="-105.2294938">
  <ele>1583.15</ele>
  <time>2026-08-28T17:56:42Z</time>
  <course>73.36</course>
  <speed>2.9666479400158017</speed>
  <fix>3d</fix>
</trkpt>
<trkpt lat="40.0711957" lon="-105.2294979">
  <ele>1583.0</ele>
  <time>2026-08-28T17:56:42Z</time>
  <course>72.21</course>
  <speed>2.99</speed>
  <fix>3d</fix>
</trkpt>
<trkpt lat="40.0711974" lon="-105.2294904">
  <ele>1583.15</ele>
  <time>2026-08-28T17:56:42Z</time>
  <course>73.37</course>
  <speed>2.9666479400158017</speed>
  <fix>3d</fix>
</trkpt>
<trkpt lat="40.0711957" lon="-105.2294979">
  <ele>1583.0</ele>
  <time>2026-08-28T17:56:42Z</time>
  <course>72.21</course>
  <speed>2.99</speed>
  <fix>3d</fix>
</trkpt>
<trkpt lat="40.0711982" lon="-105.229487">
  <ele>1583.15</ele>
  <time>2026-08-28T17:56:42Z</time>
  <course>73.38</course>
  <speed>2.9666479400158017</speed>
  <fix>3d</fix>
</trkpt>
<trkpt lat="40.0711974" lon="-105.2294912">
  <ele>1583.0</ele>
  <time>2026-08-28T17:56:42Z</time>
  <course>72.22</course>
  <speed>2.99</speed>
  <fix>3d</fix>
</trkpt>
<trkpt lat="40.071199" lon="-105.2294837">
  <ele>1583.15</ele>
  <time>2026-08-28T17:56:42Z</time>
  <course>73.36</course>
  <speed>2.9666479400158017</speed>
  <fix>3d</fix>
</trkpt>
<trkpt lat="40.0711974" lon="-105.2294912">
  <ele>1583.0</ele>
  <time>2026-08-28T17:56:42Z</time>
  <course>72.22</course>
  <speed>2.99</speed>
  <fix>3d</fix>
</trkpt>
<trkpt lat="40.0711999" lon="-105.2294803">
  <ele>1583.14</ele>
  <time>2026-08-28T17:56:42Z</time>
  <course>73.13</course>
  <speed>2.969663280575763</speed>
  <fix>3d</fix>
</trkpt>
<trkpt lat="40.071199" lon="-105.2294845">
  <ele>1583.0</ele>
  <time>2026-08-28T17:56:42Z</time>
  <course>72.11</course>
  <speed>2.99</speed>
  <fix>3d</fix>
</trkpt>
<trkpt lat="40.0712007" lon="-105.2294769">
  <ele>1583.14</ele>
  <time>2026-08-28T17:56:42Z</time>
  <course>72.72</course>
  <speed>2.96627712798383</speed>
  <fix>3d</fix>
</trkpt>
<trkpt lat="40.071199" lon="-105.2294845">
  <ele>1583.0</ele>
  <time>2026-08-28T17:56:42Z</time>
  <course>72.11</course>
  <speed>2.99</speed>
  <fix>3d</fix>
</trkpt>
<trkpt lat="40.0712016" lon="-105.2294736">
  <ele>1583.14</ele>
  <time>2026-08-28T17:56:42Z</time>
  <course>72.12</course>
  <speed>2.9440957864852155</speed>
  <fix>3d</fix>
</trkpt>
<trkpt lat="40.0712007" lon="-105.2294778">
  <ele>1583.0</ele>
  <time>2026-08-28T17:56:42Z</time>
  <course>71.47</course>
  <speed>2.98</speed>
  <fix>3d</fix>
</trkpt>
<trkpt lat="40.0712025" lon="-105.2294703">
  <ele>1583.14</ele>
  <time>2026-08-28T17:56:42Z</time>
  <course>71.3</course>
  <speed>2.9288222889072664</speed>
  <fix>3d</fix>
</trkpt>
<trkpt lat="40.0712007" lon="-105.2294778">
  <ele>1583.0</ele>
  <time>2026-08-28T17:56:42Z</time>
  <course>71.47</course>
  <speed>2.98</speed>
  <fix>3d</fix>
</trkpt>
<trkpt lat="40.0712034" lon="-105.2294671">
  <ele>1583.14</ele>
  <time>2026-08-28T17:56:42Z</time>
  <course>70.25</course>
  <speed>2.904961273407961</speed>
  <fix>3d</fix>
</trkpt>
<trkpt lat="40.0712025" lon="-105.2294713">
  <ele>1583.0</ele>
  <time>2026-08-28T17:56:42Z</time>
  <course>70.03</course>
  <speed>2.95</speed>
  <fix>3d</fix>
</trkpt>
<trkpt lat="40.0712044" lon="-105.2294639">
  <ele>1583.14</ele>
  <time>2026-08-28T17:56:42Z</time>
  <course>68.95</course>
  <speed>2.867141433553636</speed>
  <fix>3d</fix>
</trkpt>
<trkpt lat="40.0712025" lon="-105.2294713">
  <ele>1583.0</ele>
  <time>2026-08-28T17:56:42Z</time>
  <course>70.03</course>
  <speed>2.95</speed>
  <fix>3d</fix>
</trkpt>
<trkpt lat="40.0712054" lon="-105.2294608">
  <ele>1583.13</ele>
  <time>2026-08-28T17:56:42Z</time>
  <course>67.39</course>
  <speed>2.816611439300778</speed>
  <fix>3d</fix>
</trkpt>
<trkpt lat="40.0712025" lon="-105.2294713">
  <ele>1583.0</ele>
  <time>2026-08-28T17:56:42Z</time>
  <course>70.03</course>
  <speed>2.95</speed>
  <fix>3d</fix>
</trkpt>
<trkpt lat="40.0712065" lon="-105.2294578">
  <ele>1583.13</ele>
  <time>2026-08-28T17:56:42Z</time>
  <course>65.51</course>
  <speed>2.7687722911066555</speed>
  <fix>3d</fix>
</trkpt>
<trkpt lat="40.0712043" lon="-105.2294649">
  <ele>1583.0</ele>
  <time>2026-08-28T17:56:42Z</time>
  <course>67.67</course>
  <speed>2.88</speed>
  <fix>3d</fix>
</trkpt>
<trkpt lat="40.0712076" lon="-105.2294549">
  <ele>1583.13</ele>
  <time>2026-08-28T17:56:42Z</time>
  <course>63.3</course>
  <speed>2.7017956991600975</speed>
  <fix>3d</fix>
</trkpt>
<trkpt lat="40.0712043" lon="-105.2294649">
  <ele>1583.0</ele>
  <time>2026-08-28T17:56:42Z</time>
  <course>67.67</course>
  <speed>2.88</speed>
  <fix>3d</fix>
</trkpt>
<trkpt lat="40.0712088" lon="-105.2294522">
  <ele>1583.13</ele>
  <time>2026-08-28T17:56:42Z</time>
  <course>60.74</course>
  <speed>2.630931394012394</speed>
  <fix>3d</fix>
</trkpt>
<trkpt lat="40.0712063" lon="-105.2294588">
  <ele>1583.0</ele>
  <time>2026-08-28T17:56:42Z</time>
  <course>64.21</course>
  <speed>2.78</speed>
  <fix>3d</fix>
</trkpt>
<trkpt lat="40.07121" lon="-105.2294496">
  <ele>1583.13</ele>
  <time>2026-08-28T17:56:42Z</time>
  <course>58.06</course>
  <speed>2.557264163124334</speed>
  <fix>3d</fix>
</trkpt>
<trkpt lat="40.0712063" lon="-105.2294588">
  <ele>1583.0</ele>
  <time>2026-08-28T17:56:42Z</time>
  <course>64.21</course>
  <speed>2.78</speed>
  <fix>3d</fix>
</trkpt>
<trkpt lat="40.0712113" lon="-105.2294472">
  <ele>1583.13</ele>
  <time>2026-08-28T17:56:42Z</time>
  <course>55.23</course>
  <speed>2.484290643221924</speed>
  <fix>3d</fix>
</trkpt>
<trkpt lat="40.0712087" lon="-105.2294532">
  <ele>1583.0</ele>
  <time>2026-08-28T17:56:42Z</time>
  <course>59.57</course>
  <speed>2.65</speed>
  <fix>3d</fix>
</trkpt>
<trkpt lat="40.0712127" lon="-105.2294449">
  <ele>1583.14</ele>
  <time>2026-08-28T17:56:42Z</time>
  <course>52.24</course>
  <speed>2.4239018131929355</speed>
  <fix>3d</fix>
</trkpt>
<trkpt lat="40.0712112" lon="-105.2294481">
  <ele>1583.0</ele>
  <time>2026-08-28T17:56:42Z</time>
  <course>54.06</course>
  <speed>2.51</speed>
  <fix>3d</fix>
</trkpt>
<trkpt lat="40.0712141" lon="-105.2294428">
  <ele>1583.14</ele>
  <time>2026-08-28T17:56:42Z</time>
  <course>49.14</course>
  <speed>2.357053245049844</speed>
  <fix>3d</fix>
</trkpt>
<trkpt lat="40.0712112" lon="-105.2294481">
  <ele>1583.0</ele>
  <time>2026-08-28T17:56:42Z</time>
  <course>54.06</course>
  <speed>2.51</speed>
  <fix>3d</fix>
</trkpt>
<trkpt lat="40.0712156" lon="-105.2294409">
  <ele>1583.14</ele>
  <time>2026-08-28T17:56:42Z</time>
  <course>45.92</course>
  <speed>2.2912005586591495</speed>
  <fix>3d</fix>
</trkpt>
<trkpt lat="40.071214" lon="-105.2294436">
  <ele>1583.0</ele>
  <time>2026-08-28T17:56:42Z</time>
  <course>48.0</course>
  <speed>2.37</speed>
  <fix>3d</fix>
</trkpt>
<trkpt lat="40.0712172" lon="-105.2294391">
  <ele>1583.13</ele>
  <time>2026-08-28T17:56:42Z</time>
  <course>42.6</course>
  <speed>2.247420743875076</speed>
  <fix>3d</fix>
</trkpt>
<trkpt lat="40.071214" lon="-105.2294436">
  <ele>1583.0</ele>
  <time>2026-08-28T17:56:42Z</time>
  <course>48.0</course>
  <speed>2.37</speed>
  <fix>3d</fix>
</trkpt>
<trkpt lat="40.0712187" lon="-105.2294375">
  <ele>1583.13</ele>
  <time>2026-08-28T17:56:42Z</time>
  <course>39.19</course>
  <speed>2.204109797628058</speed>
  <fix>3d</fix>
</trkpt>
<trkpt lat="40.0712169" lon="-105.2294398">
  <ele>1583.0</ele>
  <time>2026-08-28T17:56:42Z</time>
  <course>41.47</course>
  <speed>2.26</speed>
  <fix>3d</fix>
</trkpt>
<trkpt lat="40.0712204" lon="-105.229436">
  <ele>1583.13</ele>
  <time>2026-08-28T17:56:42Z</time>
  <course>35.73</course>
  <speed>2.1633307652783937</speed>
  <fix>3d</fix>
</trkpt>
<trkpt lat="40.0712169" lon="-105.2294398">
  <ele>1583.0</ele>
  <time>2026-08-28T17:56:42Z</time>
  <course>41.47</course>
  <speed>2.26</speed>
  <fix>3d</fix>
</trkpt>
<trkpt lat="40.071222" lon="-105.2294347">
  <ele>1583.13</ele>
  <time>2026-08-28T17:56:42Z</time>
  <course>32.22</course>
  <speed>2.1421717951648973</speed>
  <fix>3d</fix>
</trkpt>
<trkpt lat="40.0712201" lon="-105.2294366">
  <ele>1583.0</ele>
  <time>2026-08-28T17:56:42Z</time>
  <course>34.6</course>
  <speed>2.18</speed>
  <fix>3d</fix>
</trkpt>
<trkpt lat="40.0712238" lon="-105.2294335">
  <ele>1583.13</ele>
  <time>2026-08-28T17:56:42Z</time>
  <course>28.69</course>
  <speed>2.1242645786248002</speed>
  <fix>3d</fix>
</trkpt>
<trkpt lat="40.0712201" lon="-105.2294366">
  <ele>1583.0</ele>
  <time>2026-08-28T17:56:42Z</time>
  <course>34.6</course>
  <speed>2.18</speed>
  <fix>3d</fix>
</trkpt>
<trkpt lat="40.0712255" lon="-105.2294325">
  <ele>1583.13</ele>
  <time>2026-08-28T17:56:42Z</time>
  <course>25.2</course>
  <speed>2.1192923347193044</speed>
  <fix>3d</fix>
</trkpt>
<trkpt lat="40.0712233" lon="-105.229434">
  <ele>1583.0</ele>
  <time>2026-08-28T17:56:42Z</time>
  <course>27.57</course>
  <speed>2.13</speed>
  <fix>3d</fix>
</trkpt>
<trkpt lat="40.0712273" lon="-105.2294316">
  <ele>1583.13</ele>
  <time>2026-08-28T17:56:42Z</time>
  <course>21.74</course>
  <speed>2.122286502807762</speed>
  <fix>3d</fix>
</trkpt>
<trkpt lat="40.0712233" lon="-105.229434">
  <ele>1583.0</ele>
  <time>2026-08-28T17:56:42Z</time>
  <course>27.57</course>
  <speed>2.13</speed>
  <fix>3d</fix>
</trkpt>
<trkpt lat="40.0712292" lon="-105.2294308">
  <ele>1583.13</ele>
  <time>2026-08-28T17:56:42Z</time>
  <course>18.34</course>
  <speed>2.1332135383031865</speed>
  <fix>3d</fix>
</trkpt>
<trkpt lat="40.0712269" lon="-105.229432">
  <ele>1583.0</ele>
  <time>2026-08-28T17:56:42Z</time>
  <course>20.59</course>
  <speed>2.12</speed>
  <fix>3d</fix>
</trkpt>
<trkpt lat="40.071231" lon="-105.2294302">
  <ele>1583.14</ele>
  <time>2026-08-28T17:56:42Z</time>
  <course>15.06</course>
  <speed>2.154158768521949</speed>
  <fix>3d</fix>
</trkpt>
<trkpt lat="40.0712269" lon="-105.229432">
  <ele>1583.0</ele>
  <time>2026-08-28T17:56:42Z</time>
  <course>20.59</course>
  <speed>2.12</speed>
  <fix>3d</fix>
</trkpt>
<trkpt lat="40.071233" lon="-105.2294297">
  <ele>1583.14</ele>
  <time>2026-08-28T17:56:42Z</time>
  <course>11.86</course>
  <speed>2.189794510907359</speed>
  <fix>3d</fix>
</trkpt>
<trkpt lat="40.0712305" lon="-105.2294305">
  <ele>1583.0</ele>
  <time>2026-08-28T17:56:42Z</time>
  <course>13.88</course>
  <speed>2.14</speed>
  <fix>3d</fix>
</trkpt>
<trkpt lat="40.0712349" lon="-105.2294294">
  <ele>1583.14</ele>
  <time>2026-08-28T17:56:42Z</time>
  <course>8.77</course>
  <speed>2.2240953216982406</speed>
  <fix>3d</fix>
</trkpt>
<trkpt lat="40.0712305" lon="-105.2294305">
  <ele>1583.0</ele>
  <time>2026-08-28T17:56:42Z</time>
  <course>13.88</course>
  <speed>2.14</speed>
  <fix>3d</fix>
</trkpt>
<trkpt lat="40.071237" lon="-105.2294292">
  <ele>1583.14</ele>
  <time>2026-08-28T17:56:42Z</time>
  <course>5.81</course>
  <speed>2.2743130831088316</speed>
  <fix>3d</fix>
</trkpt>
<trkpt lat="40.0712305" lon="-105.2294305">
  <ele>1583.0</ele>
  <time>2026-08-28T17:56:42Z</time>
  <course>13.88</course>
  <speed>2.14</speed>
  <fix>3d</fix>
</trkpt>
<trkpt lat="40.0712391" lon="-105.2294291">
  <ele>1583.14</ele>
  <time>2026-08-28T17:56:42Z</time>
  <course>2.96</course>
  <speed>2.3301931250435017</speed>
  <fix>3d</fix>
</trkpt>
<trkpt lat="40.0712343" lon="-105.2294295">
  <ele>1583.0</ele>
  <time>2026-08-28T17:56:42Z</time>
  <course>7.57</course>
  <speed>2.21</speed>
  <fix>3d</fix>
</trkpt>
<trkpt lat="40.0712412" lon="-105.2294291">
  <ele>1583.14</ele>
  <time>2026-08-28T17:56:42Z</time>
  <course>0.27</course>
  <speed>2.3910248848558644</speed>
  <fix>3d</fix>
</trkpt>
<trkpt lat="40.0712343" lon="-105.2294295">
  <ele>1583.0</ele>
  <time>2026-08-28T17:56:42Z</time>
  <course>7.57</course>
  <speed>2.21</speed>
  <fix>3d</fix>
</trkpt>
<trkpt lat="40.0712433" lon="-105.2294292">
  <ele>1583.14</ele>
  <time>2026-08-28T17:56:42Z</time>
  <course>357.75</course>
  <speed>2.4566033460858105</speed>
  <fix>3d</fix>
</trkpt>
<trkpt lat="40.0712384" lon="-105.2294291">
  <ele>1583.0</ele>
  <time>2026-08-28T17:56:42Z</time>
  <course>1.76</course>
  <speed>2.31</speed>
  <fix>3d</fix>
</trkpt>
<trkpt lat="40.0712455" lon="-105.2294294">
  <ele>1583.15</ele>
  <time>2026-08-28T17:56:42Z</time>
  <course>355.6</course>
  <speed>2.5355078386784764</speed>
  <fix>3d</fix>
</trkpt>
<trkpt lat="40.0712384" lon="-105.2294291">
  <ele>1583.0</ele>
  <time>2026-08-28T17:56:42Z</time>
  <course>1.76</course>
  <speed>2.31</speed>
  <fix>3d</fix>
</trkpt>
<trkpt lat="40.0712478" lon="-105.2294298">
  <ele>1583.15</ele>
  <time>2026-08-28T17:56:42Z</time>
  <course>353.76</course>
  <speed>2.6063959791251983</speed>
  <fix>3d</fix>
</trkpt>
<trkpt lat="40.0712427" lon="-105.2294291">
  <ele>1583.0</ele>
  <time>2026-08-28T17:56:42Z</time>
  <course>356.67</course>
  <speed>2.43</speed>
  <fix>3d</fix>
</trkpt>
<trkpt lat="40.0712502" lon="-105.2294303">
  <ele>1583.15</ele>
  <time>2026-08-28T17:56:42Z</time>
  <course>352.22</course>
  <speed>2.6879360111431225</speed>
  <fix>3d</fix>
</trkpt>
<trkpt lat="40.0712427" lon="-105.2294291">
  <ele>1583.0</ele>
  <time>2026-08-28T17:56:42Z</time>
  <course>356.67</course>
  <speed>2.43</speed>
  <fix>3d</fix>
</trkpt>
<trkpt lat="40.0712526" lon="-105.2294308">
  <ele>1583.14</ele>
  <time>2026-08-28T17:56:42Z</time>
  <course>350.95</course>
  <speed>2.7496181553081147</speed>
  <fix>3d</fix>
</trkpt>
<trkpt lat="40.0712472" lon="-105.2294297">
  <ele>1583.0</ele>
  <time>2026-08-28T17:56:42Z</time>
  <course>352.67</course>
  <speed>2.58</speed>
  <fix>3d</fix>
</trkpt>
<trkpt lat="40.071255" lon="-105.2294315">
  <ele>1583.14</ele>
  <time>2026-08-28T17:56:42Z</time>
  <course>349.92</course>
  <speed>2.8202836736753985</speed>
  <fix>3d</fix>
</trkpt>
<trkpt lat="40.0712519" lon="-105.2294306">
  <ele>1583.0</ele>
  <time>2026-08-28T17:56:42Z</time>
  <course>349.86</course>
  <speed>2.72</speed>
  <fix>3d</fix>
</trkpt>
<trkpt lat="40.0712575" lon="-105.2294322">
  <ele>1583.14</ele>
  <time>2026-08-28T17:56:42Z</time>
  <course>349.13</course>
  <speed>2.877585793681919</speed>
  <fix>3d</fix>
</trkpt>
<trkpt lat="40.0712519" lon="-105.2294306">
  <ele>1583.0</ele>
  <time>2026-08-28T17:56:42Z</time>
  <course>349.86</course>
  <speed>2.72</speed>
  <fix>3d</fix>
</trkpt>
<trkpt lat="40.07126" lon="-105.2294329">
  <ele>1583.14</ele>
  <time>2026-08-28T17:56:42Z</time>
  <course>348.53</course>
  <speed>2.925423046330222</speed>
  <fix>3d</fix>
</trkpt>
<trkpt lat="40.0712568" lon="-105.2294319">
  <ele>1583.0</ele>
  <time>2026-08-28T17:56:42Z</time>
  <course>348.03</course>
  <speed>2.84</speed>
  <fix>3d</fix>
</trkpt>
<trkpt lat="40.0712626" lon="-105.2294337">
  <ele>1583.14</ele>
  <time>2026-08-28T17:56:42Z</time>
  <course>348.15</course>
  <speed>2.96150299679065</speed>
  <fix>3d</fix>
</trkpt>
<trkpt lat="40.0712568" lon="-105.2294319">
  <ele>1583.0</ele>
  <time>2026-08-28T17:56:42Z</time>
  <course>348.03</course>
  <speed>2.84</speed>
  <fix>3d</fix>
</trkpt>
<trkpt lat="40.0712653" lon="-105.2294345">
  <ele>1583.14</ele>
  <time>2026-08-28T17:56:42Z</time>
  <course>347.96</course>
  <speed>2.9953630831670472</speed>
  <fix>3d</fix>
</trkpt>
<trkpt lat="40.0712618" lon="-105.2294333">
  <ele>1583.0</ele>
  <time>2026-08-28T17:56:42Z</time>
  <course>347.05</course>
  <speed>2.93</speed>
  <fix>3d</fix>
</trkpt>
<trkpt lat="40.0712679" lon="-105.2294354">
  <ele>1583.14</ele>
  <time>2026-08-28T17:56:42Z</time>
  <course>347.94</course>
  <speed>3.014796842243271</speed>
  <fix>3d</fix>
</trkpt>
<trkpt lat="40.0712618" lon="-105.2294333">
  <ele>1583.0</ele>
  <time>2026-08-28T17:56:42Z</time>
  <course>347.05</course>
  <speed>2.93</speed>
  <fix>3d</fix>
</trkpt>
<trkpt lat="40.0712705" lon="-105.2294362">
  <ele>1583.14</ele>
  <time>2026-08-28T17:56:42Z</time>
  <course>347.93</course>
  <speed>3.024516490284025</speed>
  <fix>3d</fix>
</trkpt>
<trkpt lat="40.0712671" lon="-105.2294349">
  <ele>1583.0</ele>
  <time>2026-08-28T17:56:42Z</time>
  <course>346.74</course>
  <speed>2.98</speed>
  <fix>3d</fix>
</trkpt>
<trkpt lat="40.0712732" lon="-105.229437">
  <ele>1583.13</ele>
  <time>2026-08-28T17:56:42Z</time>
  <course>347.91</course>
  <speed>3.0365934861288237</speed>
  <fix>3d</fix>
</trkpt>
<trkpt lat="40.0712671" lon="-105.2294349">
  <ele>1583.0</ele>
  <time>2026-08-28T17:56:42Z</time>
  <course>346.74</course>
  <speed>2.98</speed>
  <fix>3d</fix>
</trkpt>
<trkpt lat="40.0712758" lon="-105.2294378">
  <ele>1583.13</ele>
  <time>2026-08-28T17:56:42Z</time>
  <course>347.9</course>
  <speed>3.0365934861288237</speed>
  <fix>3d</fix>
</trkpt>
<trkpt lat="40.0712723" lon="-105.2294365">
  <ele>1583.0</ele>
  <time>2026-08-28T17:56:42Z</time>
  <course>346.71</course>
  <speed>3.01</speed>
  <fix>3d</fix>
</trkpt>
<trkpt lat="40.0712785" lon="-105.2294386">
  <ele>1583.13</ele>
  <time>2026-08-28T17:56:42Z</time>
  <course>347.89</course>
  <speed>3.0365934861288237</speed>
  <fix>3d</fix>
</trkpt>
<trkpt lat="40.0712723" lon="-105.2294365">
  <ele>1583.0</ele>
  <time>2026-08-28T17:56:42Z</time>
  <course>346.71</course>
  <speed>3.01</speed>
  <fix>3d</fix>
</trkpt>
<trkpt lat="40.0712811" lon="-105.2294395">
  <ele>1583.12</ele>
  <time>2026-08-28T17:56:42Z</time>
  <course>347.87</course>
  <speed>3.026879581351065</speed>
  <fix>3d</fix>
</trkpt>
<trkpt lat="40.0712776" lon="-105.2294382">
  <ele>1583.0</ele>
  <time>2026-08-28T17:56:42Z</time>
  <course>346.67</course>
  <speed>3.01</speed>
  <fix>3d</fix>
</trkpt>
<trkpt lat="40.0712838" lon="-105.2294403">
  <ele>1583.12</ele>
  <time>2026-08-28T17:56:42Z</time>
  <course>347.87</course>
  <speed>3.024516490284025</speed>
  <fix>3d</fix>
</trkpt>
<trkpt lat="40.0712776" lon="-105.2294382">
  <ele>1583.0</ele>
  <time>2026-08-28T17:56:42Z</time>
  <course>346.67</course>
  <speed>3.01</speed>
  <fix>3d</fix>
</trkpt>
<trkpt lat="40.0712864" lon="-105.2294411">
  <ele>1583.12</ele>
  <time>2026-08-28T17:56:42Z</time>
  <course>347.84</course>
  <speed>3.024516490284025</speed>
  <fix>3d</fix>
</trkpt>
<trkpt lat="40.0712776" lon="-105.2294382">
  <ele>1583.0</ele>
  <time>2026-08-28T17:56:42Z</time>
  <course>346.67</course>
  <speed>3.01</speed>
  <fix>3d</fix>
</trkpt>
<trkpt lat="40.071289" lon="-105.2294419">
  <ele>1583.12</ele>
  <time>2026-08-28T17:56:42Z</time>
  <course>347.81</course>
  <speed>3.014796842243271</speed>
  <fix>3d</fix>
</trkpt>
<trkpt lat="40.0712828" lon="-105.2294398">
  <ele>1583.0</ele>
  <time>2026-08-28T17:56:42Z</time>
  <course>346.63</course>
  <speed>3.01</speed>
  <fix>3d</fix>
</trkpt>
<trkpt lat="40.0712917" lon="-105.2294427">
  <ele>1583.12</ele>
  <time>2026-08-28T17:56:42Z</time>
  <course>347.79</course>
  <speed>3.014796842243271</speed>
  <fix>3d</fix>
</trkpt>
<trkpt lat="40.0712828" lon="-105.2294398">
  <ele>1583.0</ele>
  <time>2026-08-28T17:56:42Z</time>
  <course>346.63</course>
  <speed>3.01</speed>
  <fix>3d</fix>
</trkpt>
<trkpt lat="40.0712943" lon="-105.2294435">
  <ele>1583.12</ele>
  <time>2026-08-28T17:56:42Z</time>
  <course>347.76</course>
  <speed>3.0050790339024367</speed>
  <fix>3d</fix>
</trkpt>
<trkpt lat="40.0712881" lon="-105.2294414">
  <ele>1583.0</ele>
  <time>2026-08-28T17:56:42Z</time>
  <course>346.59</course>
  <speed>3.0</speed>
  <fix>3d</fix>
</trkpt>
<trkpt lat="40.0712969" lon="-105.2294443">
  <ele>1583.12</ele>
  <time>2026-08-28T17:56:42Z</time>
  <course>347.73</course>
  <speed>3.0050790339024367</speed>
  <fix>3d</fix>
</trkpt>
<trkpt lat="40.0712881" lon="-105.2294414">
  <ele>1583.0</ele>
  <time>2026-08-28T17:56:42Z</time>
  <course>346.59</course>
  <speed>3.0</speed>
  <fix>3d</fix>
</trkpt>
<trkpt lat="40.0712995" lon="-105.2294451">
  <ele>1583.12</ele>
  <time>2026-08-28T17:56:42Z</time>
  <course>347.71</course>
  <speed>2.9953630831670472</speed>
  <fix>3d</fix>
</trkpt>
<trkpt lat="40.0712934" lon="-105.2294431">
  <ele>1583.0</ele>
  <time>2026-08-28T17:56:42Z</time>
  <course>346.53</course>
  <speed>3.0</speed>
  <fix>3d</fix>
</trkpt>
<trkpt lat="40.071302" lon="-105.229446">
  <ele>1583.13</ele>
  <time>2026-08-28T17:56:42Z</time>
  <course>347.69</course>
  <speed>2.9953630831670472</speed>
  <fix>3d</fix>
</trkpt>
<trkpt lat="40.0712934" lon="-105.2294431">
  <ele>1583.0</ele>
  <time>2026-08-28T17:56:42Z</time>
  <course>346.53</course>
  <speed>3.0</speed>
  <fix>3d</fix>
</trkpt>
<trkpt lat="40.0713046" lon="-105.2294468">
  <ele>1583.13</ele>
  <time>2026-08-28T17:56:42Z</time>
  <course>347.66</course>
  <speed>2.9953630831670472</speed>
  <fix>3d</fix>
</trkpt>
<trkpt lat="40.0712986" lon="-105.2294447">
  <ele>1583.0</ele>
  <time>2026-08-28T17:56:42Z</time>
  <course>346.48</course>
  <speed>3.0</speed>
  <fix>3d</fix>
</trkpt>
<trkpt lat="40.0713072" lon="-105.2294476">
  <ele>1583.13</ele>
  <time>2026-08-28T17:56:42Z</time>
  <course>347.64</course>
  <speed>2.9953630831670472</speed>
  <fix>3d</fix>
</trkpt>
<trkpt lat="40.0713038" lon="-105.2294464">
  <ele>1583.0</ele>
  <time>2026-08-28T17:56:42Z</time>
  <course>346.44</course>
  <speed>3.0</speed>
  <fix>3d</fix>
</trkpt>
<trkpt lat="40.0713099" lon="-105.2294484">
  <ele>1583.13</ele>
  <time>2026-08-28T17:56:42Z</time>
  <course>347.61</course>
  <speed>2.9953630831670472</speed>
  <fix>3d</fix>
</trkpt>
<trkpt lat="40.0713038" lon="-105.2294464">
  <ele>1583.0</ele>
  <time>2026-08-28T17:56:42Z</time>
  <course>346.44</course>
  <speed>3.0</speed>
  <fix>3d</fix>
</trkpt>
<trkpt lat="40.0713125" lon="-105.2294492">
  <ele>1583.13</ele>
  <time>2026-08-28T17:56:42Z</time>
  <course>347.58</course>
  <speed>2.9856490081722598</speed>
  <fix>3d</fix>
</trkpt>
<trkpt lat="40.0713091" lon="-105.229448">
  <ele>1583.0</ele>
  <time>2026-08-28T17:56:42Z</time>
  <course>346.38</course>
  <speed>3.0</speed>
  <fix>3d</fix>
</trkpt>
<trkpt lat="40.0713151" lon="-105.22945">
  <ele>1583.13</ele>
  <time>2026-08-28T17:56:42Z</time>
  <course>347.55</course>
  <speed>2.9856490081722598</speed>
  <fix>3d</fix>
</trkpt>
<trkpt lat="40.0713091" lon="-105.229448">
  <ele>1583.0</ele>
  <time>2026-08-28T17:56:42Z</time>
  <course>346.38</course>
  <speed>3.0</speed>
  <fix>3d</fix>
</trkpt>
<trkpt lat="40.0713177" lon="-105.2294509">
  <ele>1583.13</ele>
  <time>2026-08-28T17:56:42Z</time>
  <course>347.53</course>
  <speed>2.9856490081722598</speed>
  <fix>3d</fix>
</trkpt>
<trkpt lat="40.0713144" lon="-105.2294497">
  <ele>1583.0</ele>
  <time>2026-08-28T17:56:42Z</time>
  <course>346.33</course>
  <speed>3.01</speed>
  <fix>3d</fix>
</trkpt>
<trkpt lat="40.0713203" lon="-105.2294517">
  <ele>1583.13</ele>
  <time>2026-08-28T17:56:42Z</time>
  <course>347.5</course>
  <speed>2.9856490081722598</speed>
  <fix>3d</fix>
</trkpt>
<trkpt lat="40.0713144" lon="-105.2294497">
  <ele>1583.0</ele>
  <time>2026-08-28T17:56:42Z</time>
  <course>346.33</course>
  <speed>3.01</speed>
  <fix>3d</fix>
</trkpt>
<trkpt lat="40.071323" lon="-105.2294525">
  <ele>1583.13</ele>
  <time>2026-08-28T17:56:42Z</time>
  <course>347.47</course>
  <speed>2.9856490081722598</speed>
  <fix>3d</fix>
</trkpt>
<trkpt lat="40.0713196" lon="-105.2294513">
  <ele>1583.0</ele>
  <time>2026-08-28T17:56:42Z</time>
  <course>346.27</course>
  <speed>3.01</speed>
  <fix>3d</fix>
</trkpt>
<trkpt lat="40.0713256" lon="-105.2294534">
  <ele>1583.13</ele>
  <time>2026-08-28T17:56:42Z</time>
  <course>347.44</course>
  <speed>2.9856490081722598</speed>
  <fix>3d</fix>
</trkpt>
<trkpt lat="40.0713196" lon="-105.2294513">
  <ele>1583.0</ele>
  <time>2026-08-28T17:56:42Z</time>
  <course>346.27</course>
  <speed>3.01</speed>
  <fix>3d</fix>
</trkpt>
<trkpt lat="40.0713282" lon="-105.2294542">
  <ele>1583.13</ele>
  <time>2026-08-28T17:56:42Z</time>
  <course>347.41</course>
  <speed>2.9856490081722598</speed>
  <fix>3d</fix>
</trkpt>
<trkpt lat="40.0713248" lon="-105.229453">
  <ele>1583.0</ele>
  <time>2026-08-28T17:56:42Z</time>
  <course>346.21</course>
  <speed>3.01</speed>
  <fix>3d</fix>
</trkpt>
<trkpt lat="40.0713309" lon="-105.229455">
  <ele>1583.13</ele>
  <time>2026-08-28T17:56:42Z</time>
  <course>347.39</course>
  <speed>2.9856490081722598</speed>
  <fix>3d</fix>
</trkpt>
<trkpt lat="40.0713248" lon="-105.229453">
  <ele>1583.0</ele>
  <time>2026-08-28T17:56:42Z</time>
  <course>346.21</course>
  <speed>3.01</speed>
  <fix>3d</fix>
</trkpt>
<trkpt lat="40.0713335" lon="-105.2294558">
  <ele>1583.14</ele>
  <time>2026-08-28T17:56:42Z</time>
  <course>347.36</course>
  <speed>2.9856490081722598</speed>
  <fix>3d</fix>
</trkpt>
<trkpt lat="40.0713301" lon="-105.2294547">
  <ele>1583.0</ele>
  <time>2026-08-28T17:56:42Z</time>
  <course>346.16</course>
  <speed>3.01</speed>
  <fix>3d</fix>
</trkpt>
<trkpt lat="40.0713361" lon="-105.2294567">
  <ele>1583.14</ele>
  <time>2026-08-28T17:56:42Z</time>
  <course>347.33</course>
  <speed>2.9856490081722598</speed>
  <fix>3d</fix>
</trkpt>
<trkpt lat="40.0713301" lon="-105.2294547">
  <ele>1583.0</ele>
  <time>2026-08-28T17:56:42Z</time>
  <course>346.16</course>
  <speed>3.01</speed>
  <fix>3d</fix>
</trkpt>
<trkpt lat="40.0713387" lon="-105.2294575">
  <ele>1583.14</ele>
  <time>2026-08-28T17:56:42Z</time>
  <course>347.3</course>
  <speed>2.9856490081722598</speed>
  <fix>3d</fix>
</trkpt>
<trkpt lat="40.0713353" lon="-105.2294564">
  <ele>1583.0</ele>
  <time>2026-08-28T17:56:42Z</time>
  <course>346.1</course>
  <speed>3.01</speed>
  <fix>3d</fix>
</trkpt>
<trkpt lat="40.0713414" lon="-105.2294584">
  <ele>1583.15</ele>
  <time>2026-08-28T17:56:42Z</time>
  <course>347.27</course>
  <speed>2.9856490081722598</speed>
  <fix>3d</fix>
</trkpt>
<trkpt lat="40.0713353" lon="-105.2294564">
  <ele>1583.0</ele>
  <time>2026-08-28T17:56:42Z</time>
  <course>346.1</course>
  <speed>3.01</speed>
  <fix>3d</fix>
</trkpt>
<trkpt lat="40.071344" lon="-105.2294592">
  <ele>1583.15</ele>
  <time>2026-08-28T17:56:42Z</time>
  <course>347.25</course>
  <speed>2.9856490081722598</speed>
  <fix>3d</fix>
</trkpt>
<trkpt lat="40.0713353" lon="-105.2294564">
  <ele>1583.0</ele>
  <time>2026-08-28T17:56:42Z</time>
  <course>346.1</course>
  <speed>3.01</speed>
  <fix>3d</fix>
</trkpt>
<trkpt lat="40.0713466" lon="-105.22946">
  <ele>1583.15</ele>
  <time>2026-08-28T17:56:42Z</time>
  <course>347.24</course>
  <speed>2.9856490081722598</speed>
  <fix>3d</fix>
</trkpt>
<trkpt lat="40.0713406" lon="-105.2294581">
  <ele>1583.0</ele>
  <time>2026-08-28T17:56:42Z</time>
  <course>346.05</course>
  <speed>3.01</speed>
  <fix>3d</fix>
</trkpt>
<trkpt lat="40.0713492" lon="-105.2294609">
  <ele>1583.16</ele>
  <time>2026-08-28T17:56:42Z</time>
  <course>347.22</course>
  <speed>2.9759368272864934</speed>
  <fix>3d</fix>
</trkpt>
<trkpt lat="40.0713406" lon="-105.2294581">
  <ele>1583.0</ele>
  <time>2026-08-28T17:56:42Z</time>
  <course>346.05</course>
  <speed>3.01</speed>
  <fix>3d</fix>
</trkpt>
<trkpt lat="40.0713518" lon="-105.2294617">
  <ele>1583.16</ele>
  <time>2026-08-28T17:56:42Z</time>
  <course>347.2</course>
  <speed>2.9759368272864934</speed>
  <fix>3d</fix>
</trkpt>
<trkpt lat="40.0713459" lon="-105.2294598">
  <ele>1583.0</ele>
  <time>2026-08-28T17:56:42Z</time>
  <course>346.01</course>
  <speed>3.01</speed>
  <fix>3d</fix>
</trkpt>
<trkpt lat="40.0713544" lon="-105.2294626">
  <ele>1583.16</ele>
  <time>2026-08-28T17:56:42Z</time>
  <course>347.17</course>
  <speed>2.9759368272864934</speed>
  <fix>3d</fix>
</trkpt>
<trkpt lat="40.0713459" lon="-105.2294598">
  <ele>1583.0</ele>
  <time>2026-08-28T17:56:42Z</time>
  <course>346.01</course>
  <speed>3.01</speed>
  <fix>3d</fix>
</trkpt>
<trkpt lat="40.071357" lon="-105.2294634">
  <ele>1583.16</ele>
  <time>2026-08-28T17:56:42Z</time>
  <course>347.14</course>
  <speed>2.9759368272864934</speed>
  <fix>3d</fix>
</trkpt>
<trkpt lat="40.0713511" lon="-105.2294615">
  <ele>1583.0</ele>
  <time>2026-08-28T17:56:42Z</time>
  <course>345.97</course>
  <speed>3.01</speed>
  <fix>3d</fix>
</trkpt>
<trkpt lat="40.0713596" lon="-105.2294642">
  <ele>1583.16</ele>
  <time>2026-08-28T17:56:42Z</time>
  <course>347.13</course>
  <speed>2.9759368272864934</speed>
  <fix>3d</fix>
</trkpt>
<trkpt lat="40.0713564" lon="-105.2294632">
  <ele>1583.0</ele>
  <time>2026-08-28T17:56:42Z</time>
  <course>345.92</course>
  <speed>3.01</speed>
  <fix>3d</fix>
</trkpt>
<trkpt lat="40.0713622" lon="-105.2294651">
  <ele>1583.16</ele>
  <time>2026-08-28T17:56:42Z</time>
  <course>347.11</course>
  <speed>2.9759368272864934</speed>
  <fix>3d</fix>
</trkpt>
<trkpt lat="40.0713564" lon="-105.2294632">
  <ele>1583.0</ele>
  <time>2026-08-28T17:56:42Z</time>
  <course>345.92</course>
  <speed>3.01</speed>
  <fix>3d</fix>
</trkpt>
<trkpt lat="40.0713649" lon="-105.2294659">
  <ele>1583.16</ele>
  <time>2026-08-28T17:56:42Z</time>
  <course>347.1</course>
  <speed>2.9759368272864934</speed>
  <fix>3d</fix>
</trkpt>
<trkpt lat="40.0713617" lon="-105.229465">
  <ele>1583.0</ele>
  <time>2026-08-28T17:56:42Z</time>
  <course>345.89</course>
  <speed>3.01</speed>
  <fix>3d</fix>
</trkpt>
<trkpt lat="40.0713675" lon="-105.2294668">
  <ele>1583.17</ele>
  <time>2026-08-28T17:56:42Z</time>
  <course>347.08</course>
  <speed>2.9759368272864934</speed>
  <fix>3d</fix>
</trkpt>
<trkpt lat="40.0713617" lon="-105.229465">
  <ele>1583.0</ele>
  <time>2026-08-28T17:56:42Z</time>
  <course>345.89</course>
  <speed>3.01</speed>
  <fix>3d</fix>
</trkpt>
<trkpt lat="40.0713701" lon="-105.2294676">
  <ele>1583.17</ele>
  <time>2026-08-28T17:56:42Z</time>
  <course>347.06</course>
  <speed>2.9759368272864934</speed>
  <fix>3d</fix>
</trkpt>
<trkpt lat="40.0713669" lon="-105.2294667">
  <ele>1583.0</ele>
  <time>2026-08-28T17:56:42Z</time>
  <course>345.86</course>
  <speed>3.02</speed>
  <fix>3d</fix>
</trkpt>
<trkpt lat="40.0713728" lon="-105.2294685">
  <ele>1583.17</ele>
  <time>2026-08-28T17:56:42Z</time>
  <course>347.05</course>
  <speed>2.9759368272864934</speed>
  <fix>3d</fix>
</trkpt>
<trkpt lat="40.0713669" lon="-105.2294667">
  <ele>1583.0</ele>
  <time>2026-08-28T17:56:42Z</time>
  <course>345.86</course>
  <speed>3.02</speed>
  <fix>3d</fix>
</trkpt>
<trkpt lat="40.0713754" lon="-105.2294694">
  <ele>1583.17</ele>
  <time>2026-08-28T17:56:42Z</time>
  <course>347.03</course>
  <speed>2.9759368272864934</speed>
  <fix>3d</fix>
</trkpt>
<trkpt lat="40.0713722" lon="-105.2294685">
  <ele>1583.0</ele>
  <time>2026-08-28T17:56:42Z</time>
  <course>345.84</course>
  <speed>3.02</speed>
  <fix>3d</fix>
</trkpt>
<trkpt lat="40.0713781" lon="-105.2294702">
  <ele>1583.17</ele>
  <time>2026-08-28T17:56:42Z</time>
  <course>347.0</course>
  <speed>2.9759368272864934</speed>
  <fix>3d</fix>
</trkpt>
<trkpt lat="40.0713722" lon="-105.2294685">
  <ele>1583.0</ele>
  <time>2026-08-28T17:56:42Z</time>
  <course>345.84</course>
  <speed>3.02</speed>
  <fix>3d</fix>
</trkpt>
<trkpt lat="40.0713807" lon="-105.2294711">
  <ele>1583.17</ele>
  <time>2026-08-28T17:56:42Z</time>
  <course>346.98</course>
  <speed>2.9759368272864934</speed>
  <fix>3d</fix>
</trkpt>
<trkpt lat="40.0713774" lon="-105.2294702">
  <ele>1583.0</ele>
  <time>2026-08-28T17:56:42Z</time>
  <course>345.8</course>
  <speed>3.02</speed>
  <fix>3d</fix>
</trkpt>
<trkpt lat="40.0713833" lon="-105.229472">
  <ele>1583.17</ele>
  <time>2026-08-28T17:56:42Z</time>
  <course>346.96</course>
  <speed>2.9856490081722598</speed>
  <fix>3d</fix>
</trkpt>
<trkpt lat="40.0713774" lon="-105.2294702">
  <ele>1583.0</ele>
  <time>2026-08-28T17:56:42Z</time>
  <course>345.8</course>
  <speed>3.02</speed>
  <fix>3d</fix>
</trkpt>
<trkpt lat="40.071386" lon="-105.2294728">
  <ele>1583.17</ele>
  <time>2026-08-28T17:56:42Z</time>
  <course>346.94</course>
  <speed>2.9759368272864934</speed>
  <fix>3d</fix>
</trkpt>
<trkpt lat="40.0713827" lon="-105.2294719">
  <ele>1583.0</ele>
  <time>2026-08-28T17:56:42Z</time>
  <course>345.77</course>
  <speed>3.02</speed>
  <fix>3d</fix>
</trkpt>
<trkpt lat="40.0713886" lon="-105.2294737">
  <ele>1583.17</ele>
  <time>2026-08-28T17:56:42Z</time>
  <course>346.94</course>
  <speed>2.9759368272864934</speed>
  <fix>3d</fix>
</trkpt>
<trkpt lat="40.0713827" lon="-105.2294719">
  <ele>1583.0</ele>
  <time>2026-08-28T17:56:42Z</time>
  <course>345.77</course>
  <speed>3.02</speed>
  <fix>3d</fix>
</trkpt>
<trkpt lat="40.0713912" lon="-105.2294746">
  <ele>1583.17</ele>
  <time>2026-08-28T17:56:42Z</time>
  <course>346.93</course>
  <speed>2.9759368272864934</speed>
  <fix>3d</fix>
</trkpt>
<trkpt lat="40.071388" lon="-105.2294737">
  <ele>1583.0</ele>
  <time>2026-08-28T17:56:42Z</time>
  <course>345.75</course>
  <speed>3.01</speed>
  <fix>3d</fix>
</trkpt>
<trkpt lat="40.0713939" lon="-105.2294754">
  <ele>1583.17</ele>
  <time>2026-08-28T17:56:42Z</time>
  <course>346.93</course>
  <speed>2.9662265591151327</speed>
  <fix>3d</fix>
</trkpt>
<trkpt lat="40.071388" lon="-105.2294737">
  <ele>1583.0</ele>
  <time>2026-08-28T17:56:42Z</time>
  <course>345.75</course>
  <speed>3.01</speed>
  <fix>3d</fix>
</trkpt>
<trkpt lat="40.0713965" lon="-105.2294763">
  <ele>1583.16</ele>
  <time>2026-08-28T17:56:42Z</time>
  <course>346.93</course>
  <speed>2.9347061181658374</speed>
  <fix>3d</fix>
</trkpt>
<trkpt lat="40.071388" lon="-105.2294737">
  <ele>1583.0</ele>
  <time>2026-08-28T17:56:42Z</time>
  <course>345.75</course>
  <speed>3.01</speed>
  <fix>3d</fix>
</trkpt>
<trkpt lat="40.071399" lon="-105.2294772">
  <ele>1583.16</ele>
  <time>2026-08-28T17:56:42Z</time>
  <course>346.94</course>
  <speed>2.9055808369412133</speed>
  <fix>3d</fix>
</trkpt>
<trkpt lat="40.0713932" lon="-105.2294754">
  <ele>1583.0</ele>
  <time>2026-08-28T17:56:42Z</time>
  <course>345.74</course>
  <speed>2.99</speed>
  <fix>3d</fix>
</trkpt>
<trkpt lat="40.0714016" lon="-105.229478">
  <ele>1583.16</ele>
  <time>2026-08-28T17:56:42Z</time>
  <course>346.94</course>
  <speed>2.8619573721493476</speed>
  <fix>3d</fix>
</trkpt>
<trkpt lat="40.0713932" lon="-105.2294754">
  <ele>1583.0</ele>
  <time>2026-08-28T17:56:42Z</time>
  <course>345.74</course>
  <speed>2.99</speed>
  <fix>3d</fix>
</trkpt>
<trkpt lat="40.0714041" lon="-105.2294788">
  <ele>1583.15</ele>
  <time>2026-08-28T17:56:42Z</time>
  <course>346.95</course>
  <speed>2.81101405190369</speed>
  <fix>3d</fix>
</trkpt>
<trkpt lat="40.0713984" lon="-105.2294771">
  <ele>1583.0</ele>
  <time>2026-08-28T17:56:42Z</time>
  <course>345.75</course>
  <speed>2.94</speed>
  <fix>3d</fix>
</trkpt>
<trkpt lat="40.0714065" lon="-105.2294796">
  <ele>1583.15</ele>
  <time>2026-08-28T17:56:42Z</time>
  <course>346.97</course>
  <speed>2.7503636123247412</speed>
  <fix>3d</fix>
</trkpt>
<trkpt lat="40.0713984" lon="-105.2294771">
  <ele>1583.0</ele>
  <time>2026-08-28T17:56:42Z</time>
  <course>345.75</course>
  <speed>2.94</speed>
  <fix>3d</fix>
</trkpt>
<trkpt lat="40.0714089" lon="-105.2294804">
  <ele>1583.15</ele>
  <time>2026-08-28T17:56:42Z</time>
  <course>347.0</course>
  <speed>2.6679017972931462</speed>
  <fix>3d</fix>
</trkpt>
<trkpt lat="40.0714035" lon="-105.2294788">
  <ele>1583.0</ele>
  <time>2026-08-28T17:56:42Z</time>
  <course>345.77</course>
  <speed>2.84</speed>
  <fix>3d</fix>
</trkpt>
<trkpt lat="40.0714112" lon="-105.2294812">
  <ele>1583.14</ele>
  <time>2026-08-28T17:56:42Z</time>
  <course>347.02</course>
  <speed>2.5854400012377003</speed>
  <fix>3d</fix>
</trkpt>
<trkpt lat="40.0714035" lon="-105.2294788">
  <ele>1583.0</ele>
  <time>2026-08-28T17:56:42Z</time>
  <course>345.77</course>
  <speed>2.84</speed>
  <fix>3d</fix>
</trkpt>
<trkpt lat="40.0714134" lon="-105.2294819">
  <ele>1583.14</ele>
  <time>2026-08-28T17:56:42Z</time>
  <course>347.06</course>
  <speed>2.4908833774386148</speed>
  <fix>3d</fix>
</trkpt>
<trkpt lat="40.0714083" lon="-105.2294804">
  <ele>1583.0</ele>
  <time>2026-08-28T17:56:42Z</time>
  <course>345.8</course>
  <speed>2.7</speed>
  <fix>3d</fix>
</trkpt>
<trkpt lat="40.0714155" lon="-105.2294826">
  <ele>1583.14</ele>
  <time>2026-08-28T17:56:42Z</time>
  <course>347.09</course>
  <speed>2.3889956048515453</speed>
  <fix>3d</fix>
</trkpt>
<trkpt lat="40.0714129" lon="-105.2294819">
  <ele>1583.0</ele>
  <time>2026-08-28T17:56:42Z</time>
  <course>345.86</course>
  <speed>2.53</speed>
  <fix>3d</fix>
</trkpt>
<trkpt lat="40.0714176" lon="-105.2294833">
  <ele>1583.13</ele>
  <time>2026-08-28T17:56:42Z</time>
  <course>347.13</course>
  <speed>2.2847319317591728</speed>
  <fix>3d</fix>
</trkpt>
<trkpt lat="40.0714129" lon="-105.2294819">
  <ele>1583.0</ele>
  <time>2026-08-28T17:56:42Z</time>
  <course>345.86</course>
  <speed>2.53</speed>
  <fix>3d</fix>
</trkpt>
<trkpt lat="40.0714195" lon="-105.2294839">
  <ele>1583.13</ele>
  <time>2026-08-28T17:56:42Z</time>
  <course>347.17</course>
  <speed>2.173131381210073</speed>
  <fix>3d</fix>
</trkpt>
<trkpt lat="40.0714171" lon="-105.2294833">
  <ele>1583.0</ele>
  <time>2026-08-28T17:56:42Z</time>
  <course>345.93</course>
  <speed>2.33</speed>
  <fix>3d</fix>
</trkpt>
<trkpt lat="40.0714214" lon="-105.2294845">
  <ele>1583.13</ele>
  <time>2026-08-28T17:56:42Z</time>
  <course>347.21</course>
  <speed>2.0688644228175033</speed>
  <fix>3d</fix>
</trkpt>
<trkpt lat="40.0714171" lon="-105.2294833">
  <ele>1583.0</ele>
  <time>2026-08-28T17:56:42Z</time>
  <course>345.93</course>
  <speed>2.33</speed>
  <fix>3d</fix>
</trkpt>
<trkpt lat="40.0714232" lon="-105.2294851">
  <ele>1583.13</ele>
  <time>2026-08-28T17:56:42Z</time>
  <course>347.25</course>
  <speed>1.9669773765857095</speed>
  <fix>3d</fix>
</trkpt>
<trkpt lat="40.071421" lon="-105.2294846">
  <ele>1583.0</ele>
  <time>2026-08-28T17:56:42Z</time>
  <course>346.01</course>
  <speed>2.12</speed>
  <fix>3d</fix>
</trkpt>
<trkpt lat="40.0714249" lon="-105.2294857">
  <ele>1583.13</ele>
  <time>2026-08-28T17:56:42Z</time>
  <course>347.3</course>
  <speed>1.8529975715040752</speed>
  <fix>3d</fix>
</trkpt>
<trkpt lat="40.071421" lon="-105.2294846">
  <ele>1583.0</ele>
  <time>2026-08-28T17:56:42Z</time>
  <course>346.01</course>
  <speed>2.12</speed>
  <fix>3d</fix>
</trkpt>
<trkpt lat="40.0714265" lon="-105.2294862">
  <ele>1583.13</ele>
  <time>2026-08-28T17:56:42Z</time>
  <course>347.36</course>
  <speed>1.748742405273001</speed>
  <fix>3d</fix>
</trkpt>
<trkpt lat="40.0714245" lon="-105.2294857">
  <ele>1583.0</ele>
  <time>2026-08-28T17:56:42Z</time>
  <course>346.1</course>
  <speed>1.91</speed>
  <fix>3d</fix>
</trkpt>
<trkpt lat="40.071428" lon="-105.2294867">
  <ele>1583.13</ele>
  <time>2026-08-28T17:56:42Z</time>
  <course>347.43</course>
  <speed>1.6371316379570704</speed>
  <fix>3d</fix>
</trkpt>
<trkpt lat="40.0714245" lon="-105.2294857">
  <ele>1583.0</ele>
  <time>2026-08-28T17:56:42Z</time>
  <course>346.1</course>
  <speed>1.91</speed>
  <fix>3d</fix>
</trkpt>
<trkpt lat="40.0714294" lon="-105.2294872">
  <ele>1583.13</ele>
  <time>2026-08-28T17:56:42Z</time>
  <course>347.5</course>
  <speed>1.5328731193415845</speed>
  <fix>3d</fix>
</trkpt>
<trkpt lat="40.0714277" lon="-105.2294867">
  <ele>1583.0</ele>
  <time>2026-08-28T17:56:42Z</time>
  <course>346.23</course>
  <speed>1.69</speed>
  <fix>3d</fix>
</trkpt>
<trkpt lat="40.0714307" lon="-105.2294876">
  <ele>1583.13</ele>
  <time>2026-08-28T17:56:42Z</time>
  <course>347.58</course>
  <speed>1.4309786860746738</speed>
  <fix>3d</fix>
</trkpt>
<trkpt lat="40.0714277" lon="-105.2294867">
  <ele>1583.0</ele>
  <time>2026-08-28T17:56:42Z</time>
  <course>346.23</course>
  <speed>1.69</speed>
  <fix>3d</fix>
</trkpt>
<trkpt lat="40.0714319" lon="-105.229488">
  <ele>1583.13</ele>
  <time>2026-08-28T17:56:42Z</time>
  <course>347.66</course>
  <speed>1.3170041761513136</speed>
  <fix>3d</fix>
</trkpt>
<trkpt lat="40.0714304" lon="-105.2294876">
  <ele>1583.0</ele>
  <time>2026-08-28T17:56:42Z</time>
  <course>346.37</course>
  <speed>1.48</speed>
  <fix>3d</fix>
</trkpt>
<trkpt lat="40.071433" lon="-105.2294884">
  <ele>1583.13</ele>
  <time>2026-08-28T17:56:42Z</time>
  <course>347.76</course>
  <speed>1.2127654348636425</speed>
  <fix>3d</fix>
</trkpt>
<trkpt lat="40.0714304" lon="-105.2294876">
  <ele>1583.0</ele>
  <time>2026-08-28T17:56:42Z</time>
  <course>346.37</course>
  <speed>1.48</speed>
  <fix>3d</fix>
</trkpt>
<trkpt lat="40.0714341" lon="-105.2294887">
  <ele>1583.13</ele>
  <time>2026-08-28T17:56:42Z</time>
  <course>347.88</course>
  <speed>1.1108555261599051</speed>
  <fix>3d</fix>
</trkpt>
<trkpt lat="40.0714328" lon="-105.2294884">
  <ele>1583.0</ele>
  <time>2026-08-28T17:56:42Z</time>
  <course>346.56</course>
  <speed>1.27</speed>
  <fix>3d</fix>
</trkpt>
<trkpt lat="40.071435" lon="-105.229489">
  <ele>1583.13</ele>
  <time>2026-08-28T17:56:42Z</time>
  <course>348.01</course>
  <speed>1.006628034578811</speed>
  <fix>3d</fix>
</trkpt>
<trkpt lat="40.0714328" lon="-105.2294884">
  <ele>1583.0</ele>
  <time>2026-08-28T17:56:42Z</time>
  <course>346.56</course>
  <speed>1.27</speed>
  <fix>3d</fix>
</trkpt>
<trkpt lat="40.0714359" lon="-105.2294893">
  <ele>1583.13</ele>
  <time>2026-08-28T17:56:42Z</time>
  <course>348.15</course>
  <speed>0.8949860334105779</speed>
  <fix>3d</fix>
</trkpt>
<trkpt lat="40.0714328" lon="-105.2294884">
  <ele>1583.0</ele>
  <time>2026-08-28T17:56:42Z</time>
  <course>346.56</course>
  <speed>1.27</speed>
  <fix>3d</fix>
</trkpt>
<trkpt lat="40.0714366" lon="-105.2294895">
  <ele>1583.13</ele>
  <time>2026-08-28T17:56:42Z</time>
  <course>348.3</course>
  <speed>0.7907591289387687</speed>
  <fix>3d</fix>
</trkpt>
<trkpt lat="40.0714349" lon="-105.229489">
  <ele>1583.0</ele>
  <time>2026-08-28T17:56:42Z</time>
  <course>346.8</course>
  <speed>1.06</speed>
  <fix>3d</fix>
</trkpt>
<trkpt lat="40.0714373" lon="-105.2294897">
  <ele>1583.12</ele>
  <time>2026-08-28T17:56:42Z</time>
  <course>348.47</course>
  <speed>0.688839603971781</speed>
  <fix>3d</fix>
</trkpt>
<trkpt lat="40.0714349" lon="-105.229489">
  <ele>1583.0</ele>
  <time>2026-08-28T17:56:42Z</time>
  <course>346.8</course>
  <speed>1.06</speed>
  <fix>3d</fix>
</trkpt>
<trkpt lat="40.0714379" lon="-105.2294899">
  <ele>1583.12</ele>
  <time>2026-08-28T17:56:42Z</time>
  <course>348.65</course>
  <speed>0.5846366392897386</speed>
  <fix>3d</fix>
</trkpt>
<trkpt lat="40.0714365" lon="-105.2294895">
  <ele>1583.0</ele>
  <time>2026-08-28T17:56:42Z</time>
  <course>347.09</course>
  <speed>0.85</speed>
  <fix>3d</fix>
</trkpt>
<trkpt lat="40.0714384" lon="-105.22949">
  <ele>1583.12</ele>
  <time>2026-08-28T17:56:42Z</time>
  <course>348.86</course>
  <speed>0.4827007354458868</speed>
  <fix>3d</fix>
</trkpt>
<trkpt lat="40.0714365" lon="-105.2294895">
  <ele>1583.0</ele>
  <time>2026-08-28T17:56:42Z</time>
  <course>347.09</course>
  <speed>0.85</speed>
  <fix>3d</fix>
</trkpt>
<trkpt lat="40.0714388" lon="-105.2294901">
  <ele>1583.12</ele>
  <time>2026-08-28T17:56:42Z</time>
  <course>349.06</course>
  <speed>0.378549864614954</speed>
  <fix>3d</fix>
</trkpt>
<trkpt lat="40.0714379" lon="-105.2294899">
  <ele>1583.0</ele>
  <time>2026-08-28T17:56:42Z</time>
  <course>347.43</course>
  <speed>0.65</speed>
  <fix>3d</fix>
</trkpt>
<trkpt lat="40.0714391" lon="-105.2294902">
  <ele>1583.12</ele>
  <time>2026-08-28T17:56:42Z</time>
  <course>349.26</course>
  <speed>0.2765863337187866</speed>
  <fix>3d</fix>
</trkpt>
<trkpt lat="40.0714389" lon="-105.2294901">
  <ele>1583.0</ele>
  <time>2026-08-28T17:56:42Z</time>
  <course>347.81</course>
  <speed>0.44</speed>
  <fix>3d</fix>
</trkpt>
<trkpt lat="40.0714393" lon="-105.2294903">
  <ele>1583.12</ele>
  <time>2026-08-28T17:56:42Z</time>
  <course>349.43</course>
  <speed>0.17464249196572978</speed>
  <fix>3d</fix>
</trkpt>
<trkpt lat="40.0714389" lon="-105.2294901">
  <ele>1583.0</ele>
  <time>2026-08-28T17:56:42Z</time>
  <course>347.81</course>
  <speed>0.44</speed>
  <fix>3d</fix>
</trkpt>
<trkpt lat="40.0714394" lon="-105.2294903">
  <ele>1583.12</ele>
  <time>2026-08-28T17:56:42Z</time>
  <course>349.6</course>
  <speed>0.0824621125123532</speed>
  <fix>3d</fix>
</trkpt>
<trkpt lat="40.0714394" lon="-105.2294904">
  <ele>1583.0</ele>
  <time>2026-08-28T17:56:42Z</time>
  <course>348.17</course>
  <speed>0.25</speed>
  <fix>3d</fix>
</trkpt>
<trkpt lat="40.0714395" lon="-105.2294903">
  <ele>1583.12</ele>
  <time>2026-08-28T17:56:42Z</time>
  <course>349.74</course>
  <speed>0.01</speed>
  <fix>3d</fix>
</trkpt>
<trkpt lat="40.0714394" lon="-105.2294904">
  <ele>1583.0</ele>
  <time>2026-08-28T17:56:42Z</time>
  <course>348.17</course>
  <speed>0.25</speed>
  <fix>3d</fix>
</trkpt>
<trkpt lat="40.0714395" lon="-105.2294904">
  <ele>1583.11</ele>
  <time>2026-08-28T17:56:42Z</time>
  <course>349.86</course>
  <speed>0.04</speed>
  <fix>3d</fix>
</trkpt>
<trkpt lat="40.0714398" lon="-105.2294905">
  <ele>1583.0</ele>
  <time>2026-08-28T17:56:42Z</time>
  <course>348.42</course>
  <speed>0.09</speed>
  <fix>3d</fix>
</trkpt>
<trkpt lat="40.0714395" lon="-105.2294904">
  <ele>1583.11</ele>
  <time>2026-08-28T17:56:42Z</time>
  <course>349.95</course>
  <speed>0.07071067811865475</speed>
  <fix>3d</fix>
</trkpt>
<trkpt lat="40.0714398" lon="-105.2294905">
  <ele>1583.0</ele>
  <time>2026-08-28T17:56:42Z</time>
  <course>348.42</course>
  <speed>0.09</speed>
  <fix>3d</fix>
</trkpt>
<trkpt lat="40.0714394" lon="-105.2294903">
  <ele>1583.11</ele>
  <time>2026-08-28T17:56:42Z</time>
  <course>349.99</course>
  <speed>0.07071067811865475</speed>
  <fix>3d</fix>
</trkpt>
<trkpt lat="40.0714399" lon="-105.2294905">
  <ele>1583.0</ele>
  <time>2026-08-28T17:56:42Z</time>
  <course>348.54</course>
  <speed>0.0</speed>
  <fix>3d</fix>
</trkpt>
<trkpt lat="40.0714394" lon="-105.2294903">
  <ele>1583.12</ele>
  <time>2026-08-28T17:56:42Z</time>
  <course>349.99</course>
  <speed>0.06082762530298219</speed>
  <fix>3d</fix>
</trkpt>
<trkpt lat="40.0714399" lon="-105.2294905">
  <ele>1583.0</ele>
  <time>2026-08-28T17:56:42Z</time>
  <course>348.54</course>
  <speed>0.0</speed>
  <fix>3d</fix>
</trkpt>
<trkpt lat="40.0714394" lon="-105.2294903">
  <ele>1583.11</ele>
  <time>2026-08-28T17:56:42Z</time>
  <course>349.99</course>
  <speed>0.06082762530298219</speed>
  <fix>3d</fix>
</trkpt>
<trkpt lat="40.0714399" lon="-105.2294905">
  <ele>1583.0</ele>
  <time>2026-08-28T17:56:42Z</time>
  <course>169.46</course>
  <speed>0.0</speed>
  <fix>3d</fix>
</trkpt>
<trkpt lat="40.0714394" lon="-105.2294903">
  <ele>1583.11</ele>
  <time>2026-08-28T17:56:42Z</time>
  <course>349.97</course>
  <speed>0.06082762530298219</speed>
  <fix>3d</fix>
</trkpt>
<trkpt lat="40.0714399" lon="-105.2294905">
  <ele>1583.0</ele>
  <time>2026-08-28T17:56:42Z</time>
  <course>169.46</course>
  <speed>0.0</speed>
  <fix>3d</fix>
</trkpt>
<trkpt lat="40.0714394" lon="-105.2294903">
  <ele>1583.11</ele>
  <time>2026-08-28T17:56:42Z</time>
  <course>349.91</course>
  <speed>0.06082762530298219</speed>
  <fix>3d</fix>
</trkpt>
<trkpt lat="40.0714399" lon="-105.2294905">
  <ele>1583.0</ele>
  <time>2026-08-28T17:56:42Z</time>
  <course>170.1</course>
  <speed>0.0</speed>
  <fix>3d</fix>
</trkpt>
<trkpt lat="40.0714394" lon="-105.2294903">
  <ele>1583.11</ele>
  <time>2026-08-28T17:56:42Z</time>
  <course>349.87</course>
  <speed>0.0632455532033676</speed>
  <fix>3d</fix>
</trkpt>
<trkpt lat="40.0714399" lon="-105.2294905">
  <ele>1583.0</ele>
  <time>2026-08-28T17:56:42Z</time>
  <course>170.1</course>
  <speed>0.0</speed>
  <fix>3d</fix>
</trkpt>
<trkpt lat="40.0714394" lon="-105.2294903">
  <ele>1583.11</ele>
  <time>2026-08-28T17:56:42Z</time>
  <course>349.43</course>
  <speed>0.053851648071345036</speed>
  <fix>3d</fix>
</trkpt>
<trkpt lat="40.0714399" lon="-105.2294905">
  <ele>1583.0</ele>
  <time>2026-08-28T17:56:42Z</time>
  <course>171.24</course>
  <speed>0.0</speed>
  <fix>3d</fix>
</trkpt>
<trkpt lat="40.0714395" lon="-105.2294904">
  <ele>1583.11</ele>
  <time>2026-08-28T17:56:42Z</time>
  <course>348.39</course>
  <speed>0.053851648071345036</speed>
  <fix>3d</fix>
</trkpt>
<trkpt lat="40.0714399" lon="-105.2294905">
  <ele>1583.0</ele>
  <time>2026-08-28T17:56:42Z</time>
  <course>171.24</course>
  <speed>0.0</speed>
  <fix>3d</fix>
</trkpt>
<trkpt lat="40.0714395" lon="-105.2294904">
  <ele>1583.11</ele>
  <time>2026-08-28T17:56:42Z</time>
  <course>346.89</course>
  <speed>0.053851648071345036</speed>
  <fix>3d</fix>
</trkpt>
<trkpt lat="40.0714399" lon="-105.2294905">
  <ele>1583.0</ele>
  <time>2026-08-28T17:56:42Z</time>
  <course>171.24</course>
  <speed>0.0</speed>
  <fix>3d</fix>
</trkpt>
<trkpt lat="40.0714395" lon="-105.2294904">
  <ele>1583.11</ele>
  <time>2026-08-28T17:56:42Z</time>
  <course>344.85</course>
  <speed>0.053851648071345036</speed>
  <fix>3d</fix>
</trkpt>
<trkpt lat="40.0714399" lon="-105.2294905">
  <ele>1583.0</ele>
  <time>2026-08-28T17:56:42Z</time>
  <course>172.79</course>
  <speed>0.0</speed>
  <fix>3d</fix>
</trkpt>
<trkpt lat="40.0714395" lon="-105.2294903">
  <ele>1583.12</ele>
  <time>2026-08-28T17:56:42Z</time>
  <course>342.34</course>
  <speed>0.044721359549995794</speed>
  <fix>3d</fix>
</trkpt>
<trkpt lat="40.0714399" lon="-105.2294905">
  <ele>1583.0</ele>
  <time>2026-08-28T17:56:42Z</time>
  <course>172.79</course>
  <speed>0.0</speed>
  <fix>3d</fix>
</trkpt>
<trkpt lat="40.0714395" lon="-105.2294903">
  <ele>1583.12</ele>
  <time>2026-08-28T17:56:42Z</time>
  <course>339.39</course>
  <speed>0.03605551275463989</speed>
  <fix>3d</fix>
</trkpt>
<trkpt lat="40.0714399" lon="-105.2294905">
  <ele>1583.0</ele>
  <time>2026-08-28T17:56:42Z</time>
  <course>340.07</course>
  <speed>0.0</speed>
  <fix>3d</fix>
</trkpt>
<trkpt lat="40.0714395" lon="-105.2294903">
  <ele>1583.12</ele>
  <time>2026-08-28T17:56:42Z</time>
  <course>336.05</course>
  <speed>0.0282842712474619</speed>
  <fix>3d</fix>
</trkpt>
<trkpt lat="40.0714399" lon="-105.2294905">
  <ele>1583.0</ele>
  <time>2026-08-28T17:56:42Z</time>
  <course>340.07</course>
  <speed>0.0</speed>
  <fix>3d</fix>
</trkpt>
<trkpt lat="40.0714396" lon="-105.2294903">
  <ele>1583.12</ele>
  <time>2026-08-28T17:56:42Z</time>
  <course>332.34</course>
  <speed>0.01414213562373095</speed>
  <fix>3d</fix>
</trkpt>
<trkpt lat="40.0714399" lon="-105.2294905">
  <ele>1583.0</ele>
  <time>2026-08-28T17:56:42Z</time>
  <course>335.53</course>
  <speed>0.01</speed>
  <fix>3d</fix>
</trkpt>
<trkpt lat="40.0714396" lon="-105.2294903">
  <ele>1583.12</ele>
  <time>2026-08-28T17:56:42Z</time>
  <course>328.34</course>
  <speed>0.01</speed>
  <fix>3d</fix>
</trkpt>
<trkpt lat="40.0714399" lon="-105.2294905">
  <ele>1583.0</ele>
  <time>2026-08-28T17:56:42Z</time>
  <course>335.53</course>
  <speed>0.01</speed>
  <fix>3d</fix>
</trkpt>
<trkpt lat="40.0714396" lon="-105.2294904">
  <ele>1583.12</ele>
  <time>2026-08-28T17:56:42Z</time>
  <course>324.08</course>
  <speed>0.0</speed>
  <fix>3d</fix>
</trkpt>
<trkpt lat="40.0714399" lon="-105.2294905">
  <ele>1583.0</ele>
  <time>2026-08-28T17:56:42Z</time>
  <course>329.49</course>
  <speed>0.03</speed>
  <fix>3d</fix>
</trkpt>
<trkpt lat="40.0714396" lon="-105.2294904">
  <ele>1583.12</ele>
  <time>2026-08-28T17:56:42Z</time>
  <course>319.67</course>
  <speed>0.022360679774997897</speed>
  <fix>3d</fix>
</trkpt>
<trkpt lat="40.0714399" lon="-105.2294905">
  <ele>1583.0</ele>
  <time>2026-08-28T17:56:42Z</time>
  <course>321.49</course>
  <speed>0.05</speed>
  <fix>3d</fix>
</trkpt>
<trkpt lat="40.0714397" lon="-105.2294904">
  <ele>1583.12</ele>
  <time>2026-08-28T17:56:42Z</time>
  <course>315.16</course>
  <speed>0.04242640687119285</speed>
  <fix>3d</fix>
</trkpt>
<trkpt lat="40.0714399" lon="-105.2294905">
  <ele>1583.0</ele>
  <time>2026-08-28T17:56:42Z</time>
  <course>321.49</course>
  <speed>0.05</speed>
  <fix>3d</fix>
</trkpt>
<trkpt lat="40.0714398" lon="-105.2294904">
  <ele>1583.12</ele>
  <time>2026-08-28T17:56:42Z</time>
  <course>310.61</course>
  <speed>0.06403124237432849</speed>
  <fix>3d</fix>
</trkpt>
<trkpt lat="40.07144" lon="-105.2294906">
  <ele>1583.0</ele>
  <time>2026-08-28T17:56:42Z</time>
  <course>312.87</course>
  <speed>0.09</speed>
  <fix>3d</fix>
</trkpt>
<trkpt lat="40.0714398" lon="-105.2294906">
  <ele>1583.13</ele>
  <time>2026-08-28T17:56:42Z</time>
  <course>306.08</course>
  <speed>0.09433981132056603</speed>
  <fix>3d</fix>
</trkpt>
<trkpt lat="40.07144" lon="-105.2294906">
  <ele>1583.0</ele>
  <time>2026-08-28T17:56:42Z</time>
  <course>312.87</course>
  <speed>0.09</speed>
  <fix>3d</fix>
</trkpt>
<trkpt lat="40.0714399" lon="-105.2294907">
  <ele>1583.13</ele>
  <time>2026-08-28T17:56:42Z</time>
  <course>301.61</course>
  <speed>0.12529964086141668</speed>
  <fix>3d</fix>
</trkpt>
<trkpt lat="40.0714402" lon="-105.2294909">
  <ele>1583.0</ele>
  <time>2026-08-28T17:56:42Z</time>
  <course>304.04</course>
  <speed>0.14</speed>
  <fix>3d</fix>
</trkpt>
<trkpt lat="40.07144" lon="-105.2294909">
  <ele>1583.13</ele>
  <time>2026-08-28T17:56:42Z</time>
  <course>297.26</course>
  <speed>0.15231546211727817</speed>
  <fix>3d</fix>
</trkpt>
<trkpt lat="40.0714402" lon="-105.2294909">
  <ele>1583.0</ele>
  <time>2026-08-28T17:56:42Z</time>
  <course>304.04</course>
  <speed>0.14</speed>
  <fix>3d</fix>
</trkpt>
<trkpt lat="40.0714401" lon="-105.2294911">
  <ele>1583.12</ele>
  <time>2026-08-28T17:56:42Z</time>
  <course>293.03</course>
  <speed>0.18973665961010278</speed>
  <fix>3d</fix>
</trkpt>
<trkpt lat="40.0714403" lon="-105.2294912">
  <ele>1583.0</ele>
  <time>2026-08-28T17:56:42Z</time>
  <course>295.45</course>
  <speed>0.2</speed>
  <fix>3d</fix>
</trkpt>
<trkpt lat="40.0714402" lon="-105.2294914">
  <ele>1583.12</ele>
  <time>2026-08-28T17:56:42Z</time>
  <course>288.99</course>
  <speed>0.21840329667841554</speed>
  <fix>3d</fix>
</trkpt>
<trkpt lat="40.0714403" lon="-105.2294912">
  <ele>1583.0</ele>
  <time>2026-08-28T17:56:42Z</time>
  <course>295.45</course>
  <speed>0.2</speed>
  <fix>3d</fix>
</trkpt>
<trkpt lat="40.0714403" lon="-105.2294917">
  <ele>1583.12</ele>
  <time>2026-08-28T17:56:42Z</time>
  <course>285.11</course>
  <speed>0.25495097567963926</speed>
  <fix>3d</fix>
</trkpt>
<trkpt lat="40.0714404" lon="-105.2294918">
  <ele>1583.0</ele>
  <time>2026-08-28T17:56:42Z</time>
  <course>287.33</course>
  <speed>0.26</speed>
  <fix>3d</fix>
</trkpt>
<trkpt lat="40.0714404" lon="-105.2294921">
  <ele>1583.12</ele>
  <time>2026-08-28T17:56:42Z</time>
  <course>281.45</course>
  <speed>0.29274562336608895</speed>
  <fix>3d</fix>
</trkpt>
<trkpt lat="40.0714404" lon="-105.2294918">
  <ele>1583.0</ele>
  <time>2026-08-28T17:56:42Z</time>
  <course>287.33</course>
  <speed>0.26</speed>
  <fix>3d</fix>
</trkpt>
<trkpt lat="40.0714404" lon="-105.2294925">
  <ele>1583.11</ele>
  <time>2026-08-28T17:56:42Z</time>
  <course>278.03</course>
  <speed>0.34132096331752027</speed>
  <fix>3d</fix>
</trkpt>
<trkpt lat="40.0714406" lon="-105.2294924">
  <ele>1583.0</ele>
  <time>2026-08-28T17:56:42Z</time>
  <course>279.92</course>
  <speed>0.34</speed>
  <fix>3d</fix>
</trkpt>
<trkpt lat="40.0714405" lon="-105.229493">
  <ele>1583.11</ele>
  <time>2026-08-28T17:56:42Z</time>
  <course>274.8</course>
  <speed>0.38052595180880894</speed>
  <fix>3d</fix>
</trkpt>
<trkpt lat="40.0714406" lon="-105.2294924">
  <ele>1583.0</ele>
  <time>2026-08-28T17:56:42Z</time>
  <course>279.92</course>
  <speed>0.34</speed>
  <fix>3d</fix>
</trkpt>
<trkpt lat="40.0714405" lon="-105.2294935">
  <ele>1583.12</ele>
  <time>2026-08-28T17:56:42Z</time>
  <course>271.87</course>
  <speed>0.43</speed>
  <fix>3d</fix>
</trkpt>
<trkpt lat="40.0714406" lon="-105.2294934">
  <ele>1583.0</ele>
  <time>2026-08-28T17:56:42Z</time>
  <course>273.37</course>
  <speed>0.42</speed>
  <fix>3d</fix>
</trkpt>
<trkpt lat="40.0714405" lon="-105.2294941">
  <ele>1583.12</ele>
  <time>2026-08-28T17:56:42Z</time>
  <course>269.25</course>
  <speed>0.4801041553663121</speed>
  <fix>3d</fix>
</trkpt>
<trkpt lat="40.0714406" lon="-105.2294934">
  <ele>1583.0</ele>
  <time>2026-08-28T17:56:42Z</time>
  <course>273.37</course>
  <speed>0.42</speed>
  <fix>3d</fix>
</trkpt>
<trkpt lat="40.0714405" lon="-105.2294948">
  <ele>1583.12</ele>
  <time>2026-08-28T17:56:42Z</time>
  <course>266.89</course>
  <speed>0.5414794548272354</speed>
  <fix>3d</fix>
</trkpt>
<trkpt lat="40.0714406" lon="-105.2294934">
  <ele>1583.0</ele>
  <time>2026-08-28T17:56:42Z</time>
  <course>273.37</course>
  <speed>0.42</speed>
  <fix>3d</fix>
</trkpt>
<trkpt lat="40.0714404" lon="-105.2294955">
  <ele>1583.12</ele>
  <time>2026-08-28T17:56:42Z</time>
  <course>264.82</course>
  <speed>0.5930430001273095</speed>
  <fix>3d</fix>
</trkpt>
<trkpt lat="40.0714406" lon="-105.2294944">
  <ele>1583.0</ele>
  <time>2026-08-28T17:56:42Z</time>
  <course>267.88</course>
  <speed>0.51</speed>
  <fix>3d</fix>
</trkpt>
<trkpt lat="40.0714404" lon="-105.2294963">
  <ele>1583.13</ele>
  <time>2026-08-28T17:56:42Z</time>
  <course>262.99</course>
  <speed>0.6562011886609167</speed>
  <fix>3d</fix>
</trkpt>
<trkpt lat="40.0714406" lon="-105.2294944">
  <ele>1583.0</ele>
  <time>2026-08-28T17:56:42Z</time>
  <course>267.88</course>
  <speed>0.51</speed>
  <fix>3d</fix>
</trkpt>
<trkpt lat="40.0714404" lon="-105.2294972">
  <ele>1583.13</ele>
  <time>2026-08-28T17:56:42Z</time>
  <course>261.39</course>
  <speed>0.7200694410957876</speed>
  <fix>3d</fix>
</trkpt>
<trkpt lat="40.0714406" lon="-105.2294958">
  <ele>1583.0</ele>
  <time>2026-08-28T17:56:42Z</time>
  <course>263.52</course>
  <speed>0.63</speed>
  <fix>3d</fix>
</trkpt>
<trkpt lat="40.0714403" lon="-105.2294981">
  <ele>1583.13</ele>
  <time>2026-08-28T17:56:42Z</time>
  <course>260.0</course>
  <speed>0.7826237921249263</speed>
  <fix>3d</fix>
</trkpt>
<trkpt lat="40.0714406" lon="-105.2294958">
  <ele>1583.0</ele>
  <time>2026-08-28T17:56:42Z</time>
  <course>263.52</course>
  <speed>0.63</speed>
  <fix>3d</fix>
</trkpt>
<trkpt lat="40.0714401" lon="-105.2294991">
  <ele>1583.13</ele>
  <time>2026-08-28T17:56:42Z</time>
  <course>258.79</course>
  <speed>0.8570297544426332</speed>
  <fix>3d</fix>
</trkpt>
<trkpt lat="40.0714404" lon="-105.2294974">
  <ele>1583.0</ele>
  <time>2026-08-28T17:56:42Z</time>
  <course>260.14</course>
  <speed>0.75</speed>
  <fix>3d</fix>
</trkpt>
<trkpt lat="40.0714399" lon="-105.2295002">
  <ele>1583.12</ele>
  <time>2026-08-28T17:56:42Z</time>
  <course>257.75</course>
  <speed>0.9317188417113823</speed>
  <fix>3d</fix>
</trkpt>
<trkpt lat="40.0714402" lon="-105.2294992">
  <ele>1583.0</ele>
  <time>2026-08-28T17:56:42Z</time>
  <course>257.56</course>
  <speed>0.88</speed>
  <fix>3d</fix>
</trkpt>
<trkpt lat="40.0714397" lon="-105.2295013">
  <ele>1583.13</ele>
  <time>2026-08-28T17:56:42Z</time>
  <course>256.91</course>
  <speed>1.006628034578811</speed>
  <fix>3d</fix>
</trkpt>
<trkpt lat="40.0714402" lon="-105.2294992">
  <ele>1583.0</ele>
  <time>2026-08-28T17:56:42Z</time>
  <course>257.56</course>
  <speed>0.88</speed>
  <fix>3d</fix>
</trkpt>
<trkpt lat="40.0714395" lon="-105.2295026">
  <ele>1583.13</ele>
  <time>2026-08-28T17:56:42Z</time>
  <course>256.24</course>
  <speed>1.0817116066678771</speed>
  <fix>3d</fix>
</trkpt>
<trkpt lat="40.0714398" lon="-105.2295015">
  <ele>1583.0</ele>
  <time>2026-08-28T17:56:42Z</time>
  <course>255.73</course>
  <speed>1.03</speed>
  <fix>3d</fix>
</trkpt>
<trkpt lat="40.0714393" lon="-105.2295039">
  <ele>1583.13</ele>
  <time>2026-08-28T17:56:42Z</time>
  <course>255.69</course>
  <speed>1.1569356075426152</speed>
  <fix>3d</fix>
</trkpt>
<trkpt lat="40.0714398" lon="-105.2295015">
  <ele>1583.0</ele>
  <time>2026-08-28T17:56:42Z</time>
  <course>255.73</course>
  <speed>1.03</speed>
  <fix>3d</fix>
</trkpt>
<trkpt lat="40.071439" lon="-105.2295053">
  <ele>1583.13</ele>
  <time>2026-08-28T17:56:42Z</time>
  <course>255.25</course>
  <speed>1.2419339757008019</speed>
  <fix>3d</fix>
</trkpt>
<trkpt lat="40.0714393" lon="-105.229504">
  <ele>1583.0</ele>
  <time>2026-08-28T17:56:42Z</time>
  <course>254.51</course>
  <speed>1.18</speed>
  <fix>3d</fix>
</trkpt>
<trkpt lat="40.0714387" lon="-105.2295069">
  <ele>1583.12</ele>
  <time>2026-08-28T17:56:42Z</time>
  <course>254.88</course>
  <speed>1.3269890730522238</speed>
  <fix>3d</fix>
</trkpt>
<trkpt lat="40.0714393" lon="-105.229504">
  <ele>1583.0</ele>
  <time>2026-08-28T17:56:42Z</time>
  <course>254.51</course>
  <speed>1.18</speed>
  <fix>3d</fix>
</trkpt>
<trkpt lat="40.0714383" lon="-105.2295085">
  <ele>1583.12</ele>
  <time>2026-08-28T17:56:42Z</time>
  <course>254.58</course>
  <speed>1.4120906486483082</speed>
  <fix>3d</fix>
</trkpt>
<trkpt lat="40.0714387" lon="-105.2295068">
  <ele>1583.0</ele>
  <time>2026-08-28T17:56:42Z</time>
  <course>253.7</course>
  <speed>1.34</speed>
  <fix>3d</fix>
</trkpt>
<trkpt lat="40.071438" lon="-105.2295102">
  <ele>1583.12</ele>
  <time>2026-08-28T17:56:42Z</time>
  <course>254.33</course>
  <speed>1.4945233353815524</speed>
  <fix>3d</fix>
</trkpt>
<trkpt lat="40.0714387" lon="-105.2295068">
  <ele>1583.0</ele>
  <time>2026-08-28T17:56:42Z</time>
  <course>253.7</course>
  <speed>1.34</speed>
  <fix>3d</fix>
</trkpt>
<trkpt lat="40.0714376" lon="-105.229512">
  <ele>1583.12</ele>
  <time>2026-08-28T17:56:42Z</time>
  <course>254.13</course>
  <speed>1.5796518603793686</speed>
  <fix>3d</fix>
</trkpt>
<trkpt lat="40.071438" lon="-105.2295101">
  <ele>1583.0</ele>
  <time>2026-08-28T17:56:42Z</time>
  <course>253.16</course>
  <speed>1.5</speed>
  <fix>3d</fix>
</trkpt>
<trkpt lat="40.0714371" lon="-105.2295139">
  <ele>1583.12</ele>
  <time>2026-08-28T17:56:42Z</time>
  <course>253.97</course>
  <speed>1.6744252745345194</speed>
  <fix>3d</fix>
</trkpt>
<trkpt lat="40.071438" lon="-105.2295101">
  <ele>1583.0</ele>
  <time>2026-08-28T17:56:42Z</time>
  <course>253.16</course>
  <speed>1.5</speed>
  <fix>3d</fix>
</trkpt>
<trkpt lat="40.0714367" lon="-105.2295158">
  <ele>1583.12</ele>
  <time>2026-08-28T17:56:42Z</time>
  <course>253.83</course>
  <speed>1.7596022277776304</speed>
  <fix>3d</fix>
</trkpt>
<trkpt lat="40.0714371" lon="-105.2295136">
  <ele>1583.0</ele>
  <time>2026-08-28T17:56:42Z</time>
  <course>252.8</course>
  <speed>1.68</speed>
  <fix>3d</fix>
</trkpt>
<trkpt lat="40.0714362" lon="-105.2295179">
  <ele>1583.12</ele>
  <time>2026-08-28T17:56:42Z</time>
  <course>253.73</course>
  <speed>1.8544001725625459</speed>
  <fix>3d</fix>
</trkpt>
<trkpt lat="40.0714371" lon="-105.2295136">
  <ele>1583.0</ele>
  <time>2026-08-28T17:56:42Z</time>
  <course>252.8</course>
  <speed>1.68</speed>
  <fix>3d</fix>
</trkpt>
<trkpt lat="40.0714357" lon="-105.2295201">
  <ele>1583.12</ele>
  <time>2026-08-28T17:56:42Z</time>
  <course>253.64</course>
  <speed>1.9492049661336284</speed>
  <fix>3d</fix>
</trkpt>
<trkpt lat="40.0714361" lon="-105.2295176">
  <ele>1583.0</ele>
  <time>2026-08-28T17:56:42Z</time>
  <course>252.57</course>
  <speed>1.86</speed>
  <fix>3d</fix>
</trkpt>
<trkpt lat="40.0714352" lon="-105.2295224">
  <ele>1583.11</ele>
  <time>2026-08-28T17:56:42Z</time>
  <course>253.57</course>
  <speed>2.0440156555173443</speed>
  <fix>3d</fix>
</trkpt>
<trkpt lat="40.0714361" lon="-105.2295176">
  <ele>1583.0</ele>
  <time>2026-08-28T17:56:42Z</time>
  <course>252.57</course>
  <speed>1.86</speed>
  <fix>3d</fix>
</trkpt>
<trkpt lat="40.0714346" lon="-105.2295248">
  <ele>1583.11</ele>
  <time>2026-08-28T17:56:42Z</time>
  <course>253.53</course>
  <speed>2.1360009363293826</speed>
  <fix>3d</fix>
</trkpt>
<trkpt lat="40.0714361" lon="-105.2295176">
  <ele>1583.0</ele>
  <time>2026-08-28T17:56:42Z</time>
  <course>252.57</course>
  <speed>1.86</speed>
  <fix>3d</fix>
</trkpt>
<trkpt lat="40.071434" lon="-105.2295273">
  <ele>1583.11</ele>
  <time>2026-08-28T17:56:42Z</time>
  <course>253.49</course>
  <speed>2.2308070288574937</speed>
  <fix>3d</fix>
</trkpt>
<trkpt lat="40.0714351" lon="-105.229522">
  <ele>1583.0</ele>
  <time>2026-08-28T17:56:42Z</time>
  <course>252.43</course>
  <speed>2.04</speed>
  <fix>3d</fix>
</trkpt>
<trkpt lat="40.0714334" lon="-105.2295299">
  <ele>1583.11</ele>
  <time>2026-08-28T17:56:42Z</time>
  <course>253.47</course>
  <speed>2.325618197383225</speed>
  <fix>3d</fix>
</trkpt>
<trkpt lat="40.0714351" lon="-105.229522">
  <ele>1583.0</ele>
  <time>2026-08-28T17:56:42Z</time>
  <course>252.43</course>
  <speed>2.04</speed>
  <fix>3d</fix>
</trkpt>
<trkpt lat="40.0714328" lon="-105.2295326">
  <ele>1583.11</ele>
  <time>2026-08-28T17:56:42Z</time>
  <course>253.45</course>
  <speed>2.420433845408711</speed>
  <fix>3d</fix>
</trkpt>
<trkpt lat="40.0714339" lon="-105.2295268">
  <ele>1583.0</ele>
  <time>2026-08-28T17:56:42Z</time>
  <course>252.35</course>
  <speed>2.23</speed>
  <fix>3d</fix>
</trkpt>
<trkpt lat="40.0714321" lon="-105.2295354">
  <ele>1583.11</ele>
  <time>2026-08-28T17:56:42Z</time>
  <course>253.44</course>
  <speed>2.5152534663528443</speed>
  <fix>3d</fix>
</trkpt>
<trkpt lat="40.0714339" lon="-105.2295268">
  <ele>1583.0</ele>
  <time>2026-08-28T17:56:42Z</time>
  <course>252.35</course>
  <speed>2.23</speed>
  <fix>3d</fix>
</trkpt>
<trkpt lat="40.0714314" lon="-105.2295383">
  <ele>1583.11</ele>
  <time>2026-08-28T17:56:42Z</time>
  <course>253.44</course>
  <speed>2.6100766272276377</speed>
  <fix>3d</fix>
</trkpt>
<trkpt lat="40.0714327" lon="-105.229532">
  <ele>1583.0</ele>
  <time>2026-08-28T17:56:42Z</time>
  <course>252.32</course>
  <speed>2.41</speed>
  <fix>3d</fix>
</trkpt>
<trkpt lat="40.0714307" lon="-105.2295413">
  <ele>1583.12</ele>
  <time>2026-08-28T17:56:42Z</time>
  <course>253.44</course>
  <speed>2.6924524136927657</speed>
  <fix>3d</fix>
</trkpt>
<trkpt lat="40.0714313" lon="-105.2295376">
  <ele>1583.0</ele>
  <time>2026-08-28T17:56:42Z</time>
  <course>252.32</course>
  <speed>2.6</speed>
  <fix>3d</fix>
</trkpt>
<trkpt lat="40.07143" lon="-105.2295444">
  <ele>1583.12</ele>
  <time>2026-08-28T17:56:42Z</time>
  <course>253.45</course>
  <speed>2.7652486325826113</speed>
  <fix>3d</fix>
</trkpt>
<trkpt lat="40.0714313" lon="-105.2295376">
  <ele>1583.0</ele>
  <time>2026-08-28T17:56:42Z</time>
  <course>252.32</course>
  <speed>2.6</speed>
  <fix>3d</fix>
</trkpt>
<trkpt lat="40.0714292" lon="-105.2295476">
  <ele>1583.12</ele>
  <time>2026-08-28T17:56:42Z</time>
  <course>253.44</course>
  <speed>2.838045101826255</speed>
  <fix>3d</fix>
</trkpt>
<trkpt lat="40.0714299" lon="-105.2295436">
  <ele>1583.0</ele>
  <time>2026-08-28T17:56:42Z</time>
  <course>252.32</course>
  <speed>2.76</speed>
  <fix>3d</fix>
</trkpt>
<trkpt lat="40.0714284" lon="-105.2295508">
  <ele>1583.12</ele>
  <time>2026-08-28T17:56:42Z</time>
  <course>253.46</course>
  <speed>2.9012583476829494</speed>
  <fix>3d</fix>
</trkpt>
<trkpt lat="40.0714299" lon="-105.2295436">
  <ele>1583.0</ele>
  <time>2026-08-28T17:56:42Z</time>
  <course>252.32</course>
  <speed>2.76</speed>
  <fix>3d</fix>
</trkpt>
<trkpt lat="40.0714276" lon="-105.2295541">
  <ele>1583.13</ele>
  <time>2026-08-28T17:56:42Z</time>
  <course>253.47</course>
  <speed>2.9424479604574145</speed>
  <fix>3d</fix>
</trkpt>
<trkpt lat="40.0714283" lon="-105.2295499">
  <ele>1583.0</ele>
  <time>2026-08-28T17:56:42Z</time>
  <course>252.35</course>
  <speed>2.88</speed>
  <fix>3d</fix>
</trkpt>
<trkpt lat="40.0714268" lon="-105.2295575">
  <ele>1583.13</ele>
  <time>2026-08-28T17:56:42Z</time>
  <course>253.48</course>
  <speed>2.986502971704532</speed>
  <fix>3d</fix>
</trkpt>
<trkpt lat="40.0714283" lon="-105.2295499">
  <ele>1583.0</ele>
  <time>2026-08-28T17:56:42Z</time>
  <course>252.35</course>
  <speed>2.88</speed>
  <fix>3d</fix>
</trkpt>
<trkpt lat="40.071426" lon="-105.2295609">
  <ele>1583.13</ele>
  <time>2026-08-28T17:56:42Z</time>
  <course>253.5</course>
  <speed>3.0152446003599773</speed>
  <fix>3d</fix>
</trkpt>
<trkpt lat="40.0714268" lon="-105.2295565">
  <ele>1583.0</ele>
  <time>2026-08-28T17:56:42Z</time>
  <course>252.39</course>
  <speed>2.97</speed>
  <fix>3d</fix>
</trkpt>
<trkpt lat="40.0714252" lon="-105.2295643">
  <ele>1583.13</ele>
  <time>2026-08-28T17:56:42Z</time>
  <course>253.52</course>
  <speed>3.02768888758406</speed>
  <fix>3d</fix>
</trkpt>
<trkpt lat="40.0714268" lon="-105.2295565">
  <ele>1583.0</ele>
  <time>2026-08-28T17:56:42Z</time>
  <course>252.39</course>
  <speed>2.97</speed>
  <fix>3d</fix>
</trkpt>
<trkpt lat="40.0714243" lon="-105.2295678">
  <ele>1583.13</ele>
  <time>2026-08-28T17:56:42Z</time>
  <course>253.54</course>
  <speed>3.037268509697488</speed>
  <fix>3d</fix>
</trkpt>
<trkpt lat="40.0714251" lon="-105.2295632">
  <ele>1583.0</ele>
  <time>2026-08-28T17:56:42Z</time>
  <course>252.43</course>
  <speed>3.01</speed>
  <fix>3d</fix>
</trkpt>
<trkpt lat="40.0714235" lon="-105.2295712">
  <ele>1583.13</ele>
  <time>2026-08-28T17:56:42Z</time>
  <course>253.57</course>
  <speed>3.037268509697488</speed>
  <fix>3d</fix>
</trkpt>
<trkpt lat="40.0714251" lon="-105.2295632">
  <ele>1583.0</ele>
  <time>2026-08-28T17:56:42Z</time>
  <course>252.43</course>
  <speed>3.01</speed>
  <fix>3d</fix>
</trkpt>
<trkpt lat="40.0714227" lon="-105.2295746">
  <ele>1583.13</ele>
  <time>2026-08-28T17:56:42Z</time>
  <course>253.6</course>
  <speed>3.02768888758406</speed>
  <fix>3d</fix>
</trkpt>
<trkpt lat="40.0714234" lon="-105.2295699">
  <ele>1583.0</ele>
  <time>2026-08-28T17:56:42Z</time>
  <course>252.49</course>
  <speed>3.02</speed>
  <fix>3d</fix>
</trkpt>
<trkpt lat="40.0714219" lon="-105.229578">
  <ele>1583.13</ele>
  <time>2026-08-28T17:56:42Z</time>
  <course>253.63</course>
  <speed>3.02768888758406</speed>
  <fix>3d</fix>
</trkpt>
<trkpt lat="40.0714234" lon="-105.2295699">
  <ele>1583.0</ele>
  <time>2026-08-28T17:56:42Z</time>
  <course>252.49</course>
  <speed>3.02</speed>
  <fix>3d</fix>
</trkpt>
<trkpt lat="40.0714211" lon="-105.2295814">
  <ele>1583.13</ele>
  <time>2026-08-28T17:56:42Z</time>
  <course>253.67</course>
  <speed>3.0152446003599773</speed>
  <fix>3d</fix>
</trkpt>
<trkpt lat="40.0714219" lon="-105.2295767">
  <ele>1583.0</ele>
  <time>2026-08-28T17:56:42Z</time>
  <course>252.56</course>
  <speed>3.01</speed>
  <fix>3d</fix>
</trkpt>
<trkpt lat="40.0714202" lon="-105.2295848">
  <ele>1583.13</ele>
  <time>2026-08-28T17:56:42Z</time>
  <course>253.71</course>
  <speed>3.0056613249000628</speed>
  <fix>3d</fix>
</trkpt>
<trkpt lat="40.0714219" lon="-105.2295767">
  <ele>1583.0</ele>
  <time>2026-08-28T17:56:42Z</time>
  <course>252.56</course>
  <speed>3.01</speed>
  <fix>3d</fix>
</trkpt>
<trkpt lat="40.0714194" lon="-105.2295881">
  <ele>1583.14</ele>
  <time>2026-08-28T17:56:42Z</time>
  <course>253.76</course>
  <speed>3.0056613249000628</speed>
  <fix>3d</fix>
</trkpt>
<trkpt lat="40.0714219" lon="-105.2295767">
  <ele>1583.0</ele>
  <time>2026-08-28T17:56:42Z</time>
  <course>252.56</course>
  <speed>3.01</speed>
  <fix>3d</fix>
</trkpt>
<trkpt lat="40.0714186" lon="-105.2295915">
  <ele>1583.14</ele>
  <time>2026-08-28T17:56:42Z</time>
  <course>253.8</course>
  <speed>2.99322568477554</speed>
  <fix>3d</fix>
</trkpt>
<trkpt lat="40.0714203" lon="-105.2295834">
  <ele>1583.0</ele>
  <time>2026-08-28T17:56:42Z</time>
  <course>252.64</course>
  <speed>3.0</speed>
  <fix>3d</fix>
</trkpt>
<trkpt lat="40.0714178" lon="-105.2295948">
  <ele>1583.14</ele>
  <time>2026-08-28T17:56:42Z</time>
  <course>253.84</course>
  <speed>2.9836387180756323</speed>
  <fix>3d</fix>
</trkpt>
<trkpt lat="40.0714203" lon="-105.2295834">
  <ele>1583.0</ele>
  <time>2026-08-28T17:56:42Z</time>
  <course>252.64</course>
  <speed>3.0</speed>
  <fix>3d</fix>
</trkpt>
<trkpt lat="40.0714171" lon="-105.2295981">
  <ele>1583.14</ele>
  <time>2026-08-28T17:56:42Z</time>
  <course>253.89</course>
  <speed>2.9740544715926105</speed>
  <fix>3d</fix>
</trkpt>
<trkpt lat="40.0714186" lon="-105.2295901">
  <ele>1583.0</ele>
  <time>2026-08-28T17:56:42Z</time>
  <course>252.73</course>
  <speed>2.98</speed>
  <fix>3d</fix>
</trkpt>
<trkpt lat="40.0714163" lon="-105.2296014">
  <ele>1583.14</ele>
  <time>2026-08-28T17:56:42Z</time>
  <course>253.95</course>
  <speed>2.9712118739665807</speed>
  <fix>3d</fix>
</trkpt>
<trkpt lat="40.0714186" lon="-105.2295901">
  <ele>1583.0</ele>
  <time>2026-08-28T17:56:42Z</time>
  <course>252.73</course>
  <speed>2.98</speed>
  <fix>3d</fix>
</trkpt>
<trkpt lat="40.0714155" lon="-105.2296047">
  <ele>1583.14</ele>
  <time>2026-08-28T17:56:42Z</time>
  <course>253.99</course>
  <speed>2.961621177666043</speed>
  <fix>3d</fix>
</trkpt>
<trkpt lat="40.0714171" lon="-105.2295968">
  <ele>1583.0</ele>
  <time>2026-08-28T17:56:42Z</time>
  <course>252.82</course>
  <speed>2.97</speed>
  <fix>3d</fix>
</trkpt>
<trkpt lat="40.0714147" lon="-105.229608">
  <ele>1583.14</ele>
  <time>2026-08-28T17:56:42Z</time>
  <course>254.05</course>
  <speed>2.952033197645311</speed>
  <fix>3d</fix>
</trkpt>
<trkpt lat="40.0714171" lon="-105.2295968">
  <ele>1583.0</ele>
  <time>2026-08-28T17:56:42Z</time>
  <course>252.82</course>
  <speed>2.97</speed>
  <fix>3d</fix>
</trkpt>
<trkpt lat="40.0714139" lon="-105.2296113">
  <ele>1583.15</ele>
  <time>2026-08-28T17:56:42Z</time>
  <course>254.09</course>
  <speed>2.9492032822442065</speed>
  <fix>3d</fix>
</trkpt>
<trkpt lat="40.0714155" lon="-105.2296035">
  <ele>1583.0</ele>
  <time>2026-08-28T17:56:42Z</time>
  <course>252.92</course>
  <speed>2.96</speed>
  <fix>3d</fix>
</trkpt>
<trkpt lat="40.0714132" lon="-105.2296146">
  <ele>1583.15</ele>
  <time>2026-08-28T17:56:42Z</time>
  <course>254.13</course>
  <speed>2.9492032822442065</speed>
  <fix>3d</fix>
</trkpt>
<trkpt lat="40.0714139" lon="-105.2296102">
  <ele>1583.0</ele>
  <time>2026-08-28T17:56:42Z</time>
  <course>253.01</course>
  <speed>2.96</speed>
  <fix>3d</fix>
</trkpt>
<trkpt lat="40.0714124" lon="-105.2296179">
  <ele>1583.15</ele>
  <time>2026-08-28T17:56:42Z</time>
  <course>254.17</course>
  <speed>2.93960881751297</speed>
  <fix>3d</fix>
</trkpt>
<trkpt lat="40.0714139" lon="-105.2296102">
  <ele>1583.0</ele>
  <time>2026-08-28T17:56:42Z</time>
  <course>253.01</course>
  <speed>2.96</speed>
  <fix>3d</fix>
</trkpt>
<trkpt lat="40.0714116" lon="-105.2296212">
  <ele>1583.16</ele>
  <time>2026-08-28T17:56:42Z</time>
  <course>254.22</course>
  <speed>2.93960881751297</speed>
  <fix>3d</fix>
</trkpt>
<trkpt lat="40.0714124" lon="-105.2296168">
  <ele>1583.0</ele>
  <time>2026-08-28T17:56:42Z</time>
  <course>253.09</course>
  <speed>2.95</speed>
  <fix>3d</fix>
</trkpt>
<trkpt lat="40.0714109" lon="-105.2296245">
  <ele>1583.16</ele>
  <time>2026-08-28T17:56:42Z</time>
  <course>254.26</course>
  <speed>2.93960881751297</speed>
  <fix>3d</fix>
</trkpt>
<trkpt lat="40.0714124" lon="-105.2296168">
  <ele>1583.0</ele>
  <time>2026-08-28T17:56:42Z</time>
  <course>253.09</course>
  <speed>2.95</speed>
  <fix>3d</fix>
</trkpt>
<trkpt lat="40.0714101" lon="-105.2296278">
  <ele>1583.16</ele>
  <time>2026-08-28T17:56:42Z</time>
  <course>254.31</course>
  <speed>2.9368009806590574</speed>
  <fix>3d</fix>
</trkpt>
<trkpt lat="40.0714108" lon="-105.2296235">
  <ele>1583.0</ele>
  <time>2026-08-28T17:56:42Z</time>
  <course>253.18</course>
  <speed>2.95</speed>
  <fix>3d</fix>
</trkpt>
<trkpt lat="40.0714093" lon="-105.2296312">
  <ele>1583.16</ele>
  <time>2026-08-28T17:56:42Z</time>
  <course>254.36</course>
  <speed>2.9368009806590574</speed>
  <fix>3d</fix>
</trkpt>
<trkpt lat="40.0714108" lon="-105.2296235">
  <ele>1583.0</ele>
  <time>2026-08-28T17:56:42Z</time>
  <course>253.18</course>
  <speed>2.95</speed>
  <fix>3d</fix>
</trkpt>
<trkpt lat="40.0714085" lon="-105.2296345">
  <ele>1583.16</ele>
  <time>2026-08-28T17:56:42Z</time>
  <course>254.41</course>
  <speed>2.9368009806590574</speed>
  <fix>3d</fix>
</trkpt>
<trkpt lat="40.0714093" lon="-105.2296301">
  <ele>1583.0</ele>
  <time>2026-08-28T17:56:42Z</time>
  <course>253.27</course>
  <speed>2.95</speed>
  <fix>3d</fix>
</trkpt>
<trkpt lat="40.0714078" lon="-105.2296378">
  <ele>1583.16</ele>
  <time>2026-08-28T17:56:42Z</time>
  <course>254.45</course>
  <speed>2.9368009806590574</speed>
  <fix>3d</fix>
</trkpt>
<trkpt lat="40.0714093" lon="-105.2296301">
  <ele>1583.0</ele>
  <time>2026-08-28T17:56:42Z</time>
  <course>253.27</course>
  <speed>2.95</speed>
  <fix>3d</fix>
</trkpt>
<trkpt lat="40.071407" lon="-105.2296411">
  <ele>1583.16</ele>
  <time>2026-08-28T17:56:42Z</time>
  <course>254.5</course>
  <speed>2.9368009806590574</speed>
  <fix>3d</fix>
</trkpt>
<trkpt lat="40.0714078" lon="-105.2296367">
  <ele>1583.0</ele>
  <time>2026-08-28T17:56:42Z</time>
  <course>253.36</course>
  <speed>2.95</speed>
  <fix>3d</fix>
</trkpt>
<trkpt lat="40.0714062" lon="-105.2296445">
  <ele>1583.16</ele>
  <time>2026-08-28T17:56:42Z</time>
  <course>254.52</course>
  <speed>2.9272000273298717</speed>
  <fix>3d</fix>
</trkpt>
<trkpt lat="40.0714078" lon="-105.2296367">
  <ele>1583.0</ele>
  <time>2026-08-28T17:56:42Z</time>
  <course>253.36</course>
  <speed>2.95</speed>
  <fix>3d</fix>
</trkpt>
<trkpt lat="40.0714055" lon="-105.2296478">
  <ele>1583.16</ele>
  <time>2026-08-28T17:56:42Z</time>
  <course>254.56</course>
  <speed>2.924414471308744</speed>
  <fix>3d</fix>
</trkpt>
<trkpt lat="40.0714062" lon="-105.2296433">
  <ele>1583.0</ele>
  <time>2026-08-28T17:56:42Z</time>
  <course>253.44</course>
  <speed>2.95</speed>
  <fix>3d</fix>
</trkpt>
<trkpt lat="40.0714047" lon="-105.2296511">
  <ele>1583.16</ele>
  <time>2026-08-28T17:56:42Z</time>
  <course>254.61</course>
  <speed>2.924414471308744</speed>
  <fix>3d</fix>
</trkpt>
<trkpt lat="40.0714062" lon="-105.2296433">
  <ele>1583.0</ele>
  <time>2026-08-28T17:56:42Z</time>
  <course>253.44</course>
  <speed>2.95</speed>
  <fix>3d</fix>
</trkpt>
<trkpt lat="40.071404" lon="-105.2296544">
  <ele>1583.16</ele>
  <time>2026-08-28T17:56:42Z</time>
  <course>254.64</course>
  <speed>2.924414471308744</speed>
  <fix>3d</fix>
</trkpt>
<trkpt lat="40.0714047" lon="-105.22965">
  <ele>1583.0</ele>
  <time>2026-08-28T17:56:42Z</time>
  <course>253.5</course>
  <speed>2.94</speed>
  <fix>3d</fix>
</trkpt>
<trkpt lat="40.0714032" lon="-105.2296577">
  <ele>1583.16</ele>
  <time>2026-08-28T17:56:42Z</time>
  <course>254.68</course>
  <speed>2.924414471308744</speed>
  <fix>3d</fix>
</trkpt>
<trkpt lat="40.0714047" lon="-105.22965">
  <ele>1583.0</ele>
  <time>2026-08-28T17:56:42Z</time>
  <course>253.5</course>
  <speed>2.94</speed>
  <fix>3d</fix>
</trkpt>
<trkpt lat="40.0714025" lon="-105.229661">
  <ele>1583.16</ele>
  <time>2026-08-28T17:56:42Z</time>
  <course>254.71</course>
  <speed>2.924414471308744</speed>
  <fix>3d</fix>
</trkpt>
<trkpt lat="40.0714047" lon="-105.22965">
  <ele>1583.0</ele>
  <time>2026-08-28T17:56:42Z</time>
  <course>253.5</course>
  <speed>2.94</speed>
  <fix>3d</fix>
</trkpt>
<trkpt lat="40.0714017" lon="-105.2296644">
  <ele>1583.16</ele>
  <time>2026-08-28T17:56:42Z</time>
  <course>254.75</course>
  <speed>2.924414471308744</speed>
  <fix>3d</fix>
</trkpt>
<trkpt lat="40.0714032" lon="-105.2296566">
  <ele>1583.0</ele>
  <time>2026-08-28T17:56:42Z</time>
  <course>253.58</course>
  <speed>2.94</speed>
  <fix>3d</fix>
</trkpt>
<trkpt lat="40.071401" lon="-105.2296677">
  <ele>1583.16</ele>
  <time>2026-08-28T17:56:42Z</time>
  <course>254.79</course>
  <speed>2.921660486778024</speed>
  <fix>3d</fix>
</trkpt>
<trkpt lat="40.0714032" lon="-105.2296566">
  <ele>1583.0</ele>
  <time>2026-08-28T17:56:42Z</time>
  <course>253.58</course>
  <speed>2.94</speed>
  <fix>3d</fix>
</trkpt>
<trkpt lat="40.0714002" lon="-105.2296709">
  <ele>1583.16</ele>
  <time>2026-08-28T17:56:42Z</time>
  <course>254.82</course>
  <speed>2.921660486778024</speed>
  <fix>3d</fix>
</trkpt>
<trkpt lat="40.0714017" lon="-105.2296633">
  <ele>1583.0</ele>
  <time>2026-08-28T17:56:42Z</time>
  <course>253.65</course>
  <speed>2.95</speed>
  <fix>3d</fix>
</trkpt>
<trkpt lat="40.0713995" lon="-105.2296742">
  <ele>1583.16</ele>
  <time>2026-08-28T17:56:42Z</time>
  <course>254.85</course>
  <speed>2.921660486778024</speed>
  <fix>3d</fix>
</trkpt>
<trkpt lat="40.0714017" lon="-105.2296633">
  <ele>1583.0</ele>
  <time>2026-08-28T17:56:42Z</time>
  <course>253.65</course>
  <speed>2.95</speed>
  <fix>3d</fix>
</trkpt>
<trkpt lat="40.0713987" lon="-105.2296775">
  <ele>1583.16</ele>
  <time>2026-08-28T17:56:42Z</time>
  <course>254.88</course>
  <speed>2.921660486778024</speed>
  <fix>3d</fix>
</trkpt>
<trkpt lat="40.0714002" lon="-105.22967">
  <ele>1583.0</ele>
  <time>2026-08-28T17:56:42Z</time>
  <course>253.71</course>
  <speed>2.95</speed>
  <fix>3d</fix>
</trkpt>
<trkpt lat="40.071398" lon="-105.2296808">
  <ele>1583.16</ele>
  <time>2026-08-28T17:56:42Z</time>
  <course>254.92</course>
  <speed>2.921660486778024</speed>
  <fix>3d</fix>
</trkpt>
<trkpt lat="40.0713988" lon="-105.2296766">
  <ele>1583.0</ele>
  <time>2026-08-28T17:56:42Z</time>
  <course>253.77</course>
  <speed>2.95</speed>
  <fix>3d</fix>
</trkpt>
<trkpt lat="40.0713973" lon="-105.2296841">
  <ele>1583.16</ele>
  <time>2026-08-28T17:56:42Z</time>
  <course>254.95</course>
  <speed>2.921660486778024</speed>
  <fix>3d</fix>
</trkpt>
<trkpt lat="40.0713988" lon="-105.2296766">
  <ele>1583.0</ele>
  <time>2026-08-28T17:56:42Z</time>
  <course>253.77</course>
  <speed>2.95</speed>
  <fix>3d</fix>
</trkpt>
<trkpt lat="40.0713965" lon="-105.2296875">
  <ele>1583.16</ele>
  <time>2026-08-28T17:56:42Z</time>
  <course>254.98</course>
  <speed>2.921660486778024</speed>
  <fix>3d</fix>
</trkpt>
<trkpt lat="40.0713973" lon="-105.2296833">
  <ele>1583.0</ele>
  <time>2026-08-28T17:56:42Z</time>
  <course>253.83</course>
  <speed>2.95</speed>
  <fix>3d</fix>
</trkpt>
<trkpt lat="40.0713958" lon="-105.2296908">
  <ele>1583.16</ele>
  <time>2026-08-28T17:56:42Z</time>
  <course>255.01</course>
  <speed>2.931279584072458</speed>
  <fix>3d</fix>
</trkpt>
<trkpt lat="40.0713973" lon="-105.2296833">
  <ele>1583.0</ele>
  <time>2026-08-28T17:56:42Z</time>
  <course>253.83</course>
  <speed>2.95</speed>
  <fix>3d</fix>
</trkpt>
<trkpt lat="40.071395" lon="-105.2296941">
  <ele>1583.16</ele>
  <time>2026-08-28T17:56:42Z</time>
  <course>255.04</course>
  <speed>2.9285662020859284</speed>
  <fix>3d</fix>
</trkpt>
<trkpt lat="40.0713958" lon="-105.2296899">
  <ele>1583.0</ele>
  <time>2026-08-28T17:56:42Z</time>
  <course>253.88</course>
  <speed>2.96</speed>
  <fix>3d</fix>
</trkpt>
<trkpt lat="40.0713943" lon="-105.2296975">
  <ele>1583.16</ele>
  <time>2026-08-28T17:56:42Z</time>
  <course>255.07</course>
  <speed>2.9285662020859284</speed>
  <fix>3d</fix>
</trkpt>
<trkpt lat="40.0713958" lon="-105.2296899">
  <ele>1583.0</ele>
  <time>2026-08-28T17:56:42Z</time>
  <course>253.88</course>
  <speed>2.96</speed>
  <fix>3d</fix>
</trkpt>
<trkpt lat="40.0713936" lon="-105.2297008">
  <ele>1583.16</ele>
  <time>2026-08-28T17:56:42Z</time>
  <course>255.1</course>
  <speed>2.9285662020859284</speed>
  <fix>3d</fix>
</trkpt>
<trkpt lat="40.0713943" lon="-105.2296966">
  <ele>1583.0</ele>
  <time>2026-08-28T17:56:42Z</time>
  <course>253.94</course>
  <speed>2.96</speed>
  <fix>3d</fix>
</trkpt>
<trkpt lat="40.0713928" lon="-105.2297042">
  <ele>1583.16</ele>
  <time>2026-08-28T17:56:42Z</time>
  <course>255.11</course>
  <speed>2.9285662020859284</speed>
  <fix>3d</fix>
</trkpt>
<trkpt lat="40.0713943" lon="-105.2296966">
  <ele>1583.0</ele>
  <time>2026-08-28T17:56:42Z</time>
  <course>253.94</course>
  <speed>2.96</speed>
  <fix>3d</fix>
</trkpt>
<trkpt lat="40.0713921" lon="-105.2297075">
  <ele>1583.17</ele>
  <time>2026-08-28T17:56:42Z</time>
  <course>255.13</course>
  <speed>2.9285662020859284</speed>
  <fix>3d</fix>
</trkpt>
<trkpt lat="40.0713929" lon="-105.2297033">
  <ele>1583.0</ele>
  <time>2026-08-28T17:56:42Z</time>
  <course>253.98</course>
  <speed>2.96</speed>
  <fix>3d</fix>
</trkpt>
<trkpt lat="40.0713913" lon="-105.2297109">
  <ele>1583.17</ele>
  <time>2026-08-28T17:56:42Z</time>
  <course>255.15</course>
  <speed>2.9285662020859284</speed>
  <fix>3d</fix>
</trkpt>
<trkpt lat="40.0713929" lon="-105.2297033">
  <ele>1583.0</ele>
  <time>2026-08-28T17:56:42Z</time>
  <course>253.98</course>
  <speed>2.96</speed>
  <fix>3d</fix>
</trkpt>
<trkpt lat="40.0713906" lon="-105.2297142">
  <ele>1583.17</ele>
  <time>2026-08-28T17:56:42Z</time>
  <course>255.16</course>
  <speed>2.9285662020859284</speed>
  <fix>3d</fix>
</trkpt>
<trkpt lat="40.0713914" lon="-105.22971">
  <ele>1583.0</ele>
  <time>2026-08-28T17:56:42Z</time>
  <course>254.01</course>
  <speed>2.96</speed>
  <fix>3d</fix>
</trkpt>
<trkpt lat="40.0713899" lon="-105.2297176">
  <ele>1583.17</ele>
  <time>2026-08-28T17:56:42Z</time>
  <course>255.17</course>
  <speed>2.9285662020859284</speed>
  <fix>3d</fix>
</trkpt>
<trkpt lat="40.0713914" lon="-105.22971">
  <ele>1583.0</ele>
  <time>2026-08-28T17:56:42Z</time>
  <course>254.01</course>
  <speed>2.96</speed>
  <fix>3d</fix>
</trkpt>
<trkpt lat="40.0713892" lon="-105.2297209">
  <ele>1583.17</ele>
  <time>2026-08-28T17:56:42Z</time>
  <course>255.18</course>
  <speed>2.938196725884773</speed>
  <fix>3d</fix>
</trkpt>
<trkpt lat="40.0713899" lon="-105.2297167">
  <ele>1583.0</ele>
  <time>2026-08-28T17:56:42Z</time>
  <course>254.03</course>
  <speed>2.96</speed>
  <fix>3d</fix>
</trkpt>
<trkpt lat="40.0713884" lon="-105.2297243">
  <ele>1583.17</ele>
  <time>2026-08-28T17:56:42Z</time>
  <course>255.19</course>
  <speed>2.938196725884773</speed>
  <fix>3d</fix>
</trkpt>
<trkpt lat="40.0713899" lon="-105.2297167">
  <ele>1583.0</ele>
  <time>2026-08-28T17:56:42Z</time>
  <course>254.03</course>
  <speed>2.96</speed>
  <fix>3d</fix>
</trkpt>
<trkpt lat="40.0713877" lon="-105.2297277">
  <ele>1583.18</ele>
  <time>2026-08-28T17:56:42Z</time>
  <course>255.2</course>
  <speed>2.938196725884773</speed>
  <fix>3d</fix>
</trkpt>
<trkpt lat="40.0713899" lon="-105.2297167">
  <ele>1583.0</ele>
  <time>2026-08-28T17:56:42Z</time>
  <course>254.03</course>
  <speed>2.96</speed>
  <fix>3d</fix>
</trkpt>
<trkpt lat="40.071387" lon="-105.229731">
  <ele>1583.17</ele>
  <time>2026-08-28T17:56:42Z</time>
  <course>255.21</course>
  <speed>2.9285662020859284</speed>
  <fix>3d</fix>
</trkpt>
<trkpt lat="40.0713885" lon="-105.2297234">
  <ele>1583.0</ele>
  <time>2026-08-28T17:56:42Z</time>
  <course>254.05</course>
  <speed>2.96</speed>
  <fix>3d</fix>
</trkpt>
<trkpt lat="40.0713862" lon="-105.2297343">
  <ele>1583.17</ele>
  <time>2026-08-28T17:56:42Z</time>
  <course>255.23</course>
  <speed>2.9162475889402804</speed>
  <fix>3d</fix>
</trkpt>
<trkpt lat="40.0713885" lon="-105.2297234">
  <ele>1583.0</ele>
  <time>2026-08-28T17:56:42Z</time>
  <course>254.05</course>
  <speed>2.96</speed>
  <fix>3d</fix>
</trkpt>
<trkpt lat="40.0713855" lon="-105.2297376">
  <ele>1583.17</ele>
  <time>2026-08-28T17:56:42Z</time>
  <course>255.24</course>
  <speed>2.8969811873741946</speed>
  <fix>3d</fix>
</trkpt>
<trkpt lat="40.071387" lon="-105.2297301">
  <ele>1583.0</ele>
  <time>2026-08-28T17:56:42Z</time>
  <course>254.07</course>
  <speed>2.95</speed>
  <fix>3d</fix>
</trkpt>
<trkpt lat="40.0713848" lon="-105.2297409">
  <ele>1583.17</ele>
  <time>2026-08-28T17:56:42Z</time>
  <course>255.27</course>
  <speed>2.875030434621519</speed>
  <fix>3d</fix>
</trkpt>
<trkpt lat="40.071387" lon="-105.2297301">
  <ele>1583.0</ele>
  <time>2026-08-28T17:56:42Z</time>
  <course>254.07</course>
  <speed>2.95</speed>
  <fix>3d</fix>
</trkpt>
<trkpt lat="40.0713841" lon="-105.2297441">
  <ele>1583.17</ele>
  <time>2026-08-28T17:56:42Z</time>
  <course>255.28</course>
  <speed>2.833813684771813</speed>
  <fix>3d</fix>
</trkpt>
<trkpt lat="40.0713856" lon="-105.2297368">
  <ele>1583.0</ele>
  <time>2026-08-28T17:56:42Z</time>
  <course>254.09</course>
  <speed>2.93</speed>
  <fix>3d</fix>
</trkpt>
<trkpt lat="40.0713834" lon="-105.2297473">
  <ele>1583.17</ele>
  <time>2026-08-28T17:56:42Z</time>
  <course>255.31</course>
  <speed>2.7899283144912523</speed>
  <fix>3d</fix>
</trkpt>
<trkpt lat="40.0713856" lon="-105.2297368">
  <ele>1583.0</ele>
  <time>2026-08-28T17:56:42Z</time>
  <course>254.09</course>
  <speed>2.93</speed>
  <fix>3d</fix>
</trkpt>
<trkpt lat="40.0713827" lon="-105.2297504">
  <ele>1583.17</ele>
  <time>2026-08-28T17:56:42Z</time>
  <course>255.35</course>
  <speed>2.729432175380073</speed>
  <fix>3d</fix>
</trkpt>
<trkpt lat="40.0713841" lon="-105.2297433">
  <ele>1583.0</ele>
  <time>2026-08-28T17:56:42Z</time>
  <course>254.13</course>
  <speed>2.86</speed>
  <fix>3d</fix>
</trkpt>
<trkpt lat="40.0713821" lon="-105.2297535">
  <ele>1583.17</ele>
  <time>2026-08-28T17:56:42Z</time>
  <course>255.39</course>
  <speed>2.656633207652121</speed>
  <fix>3d</fix>
</trkpt>
<trkpt lat="40.0713827" lon="-105.2297497">
  <ele>1583.0</ele>
  <time>2026-08-28T17:56:42Z</time>
  <course>254.19</course>
  <speed>2.76</speed>
  <fix>3d</fix>
</trkpt>
<trkpt lat="40.0713814" lon="-105.2297565">
  <ele>1583.17</ele>
  <time>2026-08-28T17:56:42Z</time>
  <course>255.44</course>
  <speed>2.583834360016137</speed>
  <fix>3d</fix>
</trkpt>
<trkpt lat="40.0713827" lon="-105.2297497">
  <ele>1583.0</ele>
  <time>2026-08-28T17:56:42Z</time>
  <course>254.19</course>
  <speed>2.76</speed>
  <fix>3d</fix>
</trkpt>
<trkpt lat="40.0713808" lon="-105.2297594">
  <ele>1583.17</ele>
  <time>2026-08-28T17:56:42Z</time>
  <course>255.5</course>
  <speed>2.489096221522985</speed>
  <fix>3d</fix>
</trkpt>
<trkpt lat="40.0713814" lon="-105.2297557">
  <ele>1583.0</ele>
  <time>2026-08-28T17:56:42Z</time>
  <course>254.28</course>
  <speed>2.61</speed>
  <fix>3d</fix>
</trkpt>
<trkpt lat="40.0713802" lon="-105.2297621">
  <ele>1583.17</ele>
  <time>2026-08-28T17:56:42Z</time>
  <course>255.56</course>
  <speed>2.3847222060441338</speed>
  <fix>3d</fix>
</trkpt>
<trkpt lat="40.0713814" lon="-105.2297557">
  <ele>1583.0</ele>
  <time>2026-08-28T17:56:42Z</time>
  <course>254.28</course>
  <speed>2.61</speed>
  <fix>3d</fix>
</trkpt>
<trkpt lat="40.0713796" lon="-105.2297648">
  <ele>1583.16</ele>
  <time>2026-08-28T17:56:42Z</time>
  <course>255.62</course>
  <speed>2.29</speed>
  <fix>3d</fix>
</trkpt>
<trkpt lat="40.0713802" lon="-105.2297614">
  <ele>1583.0</ele>
  <time>2026-08-28T17:56:42Z</time>
  <course>254.39</course>
  <speed>2.43</speed>
  <fix>3d</fix>
</trkpt>
<trkpt lat="40.0713791" lon="-105.2297674">
  <ele>1583.16</ele>
  <time>2026-08-28T17:56:42Z</time>
  <course>255.69</course>
  <speed>2.1786234185833955</speed>
  <fix>3d</fix>
</trkpt>
<trkpt lat="40.0713802" lon="-105.2297614">
  <ele>1583.0</ele>
  <time>2026-08-28T17:56:42Z</time>
  <course>254.39</course>
  <speed>2.43</speed>
  <fix>3d</fix>
</trkpt>
<trkpt lat="40.0713785" lon="-105.2297698">
  <ele>1583.16</ele>
  <time>2026-08-28T17:56:42Z</time>
  <course>255.77</course>
  <speed>2.074246851269154</speed>
  <fix>3d</fix>
</trkpt>
<trkpt lat="40.0713791" lon="-105.2297667">
  <ele>1583.0</ele>
  <time>2026-08-28T17:56:42Z</time>
  <course>254.52</course>
  <speed>2.22</speed>
  <fix>3d</fix>
</trkpt>
<trkpt lat="40.071378" lon="-105.2297721">
  <ele>1583.16</ele>
  <time>2026-08-28T17:56:42Z</time>
  <course>255.85</course>
  <speed>1.9698730923589978</speed>
  <fix>3d</fix>
</trkpt>
<trkpt lat="40.0713791" lon="-105.2297667">
  <ele>1583.0</ele>
  <time>2026-08-28T17:56:42Z</time>
  <course>254.52</course>
  <speed>2.22</speed>
  <fix>3d</fix>
</trkpt>
<trkpt lat="40.0713776" lon="-105.2297743">
  <ele>1583.16</ele>
  <time>2026-08-28T17:56:42Z</time>
  <course>255.95</course>
  <speed>1.8558555978308227</speed>
  <fix>3d</fix>
</trkpt>
<trkpt lat="40.071378" lon="-105.2297715">
  <ele>1583.0</ele>
  <time>2026-08-28T17:56:42Z</time>
  <course>254.68</course>
  <speed>2.01</speed>
  <fix>3d</fix>
</trkpt>
<trkpt lat="40.0713771" lon="-105.2297764">
  <ele>1583.16</ele>
  <time>2026-08-28T17:56:42Z</time>
  <course>256.05</course>
  <speed>1.7514850841500191</speed>
  <fix>3d</fix>
</trkpt>
<trkpt lat="40.071378" lon="-105.2297715">
  <ele>1583.0</ele>
  <time>2026-08-28T17:56:42Z</time>
  <course>254.68</course>
  <speed>2.01</speed>
  <fix>3d</fix>
</trkpt>
<trkpt lat="40.0713767" lon="-105.2297783">
  <ele>1583.16</ele>
  <time>2026-08-28T17:56:42Z</time>
  <course>256.15</course>
  <speed>1.647118696390761</speed>
  <fix>3d</fix>
</trkpt>
<trkpt lat="40.0713772" lon="-105.2297758">
  <ele>1583.0</ele>
  <time>2026-08-28T17:56:42Z</time>
  <course>254.86</course>
  <speed>1.8</speed>
  <fix>3d</fix>
</trkpt>
<trkpt lat="40.0713763" lon="-105.2297801">
  <ele>1583.16</ele>
  <time>2026-08-28T17:56:42Z</time>
  <course>256.28</course>
  <speed>1.533101431738944</speed>
  <fix>3d</fix>
</trkpt>
<trkpt lat="40.0713772" lon="-105.2297758">
  <ele>1583.0</ele>
  <time>2026-08-28T17:56:42Z</time>
  <course>254.86</course>
  <speed>1.8</speed>
  <fix>3d</fix>
</trkpt>
<trkpt lat="40.071376" lon="-105.2297818">
  <ele>1583.15</ele>
  <time>2026-08-28T17:56:42Z</time>
  <course>256.42</course>
  <speed>1.4287407042567242</speed>
  <fix>3d</fix>
</trkpt>
<trkpt lat="40.0713764" lon="-105.2297797">
  <ele>1583.0</ele>
  <time>2026-08-28T17:56:42Z</time>
  <course>255.1</course>
  <speed>1.58</speed>
  <fix>3d</fix>
</trkpt>
<trkpt lat="40.0713757" lon="-105.2297834">
  <ele>1583.15</ele>
  <time>2026-08-28T17:56:42Z</time>
  <course>256.57</course>
  <speed>1.3243866504914643</speed>
  <fix>3d</fix>
</trkpt>
<trkpt lat="40.0713764" lon="-105.2297797">
  <ele>1583.0</ele>
  <time>2026-08-28T17:56:42Z</time>
  <course>255.1</course>
  <speed>1.58</speed>
  <fix>3d</fix>
</trkpt>
<trkpt lat="40.0713754" lon="-105.2297849">
  <ele>1583.15</ele>
  <time>2026-08-28T17:56:42Z</time>
  <course>256.75</course>
  <speed>1.2200409829181968</speed>
  <fix>3d</fix>
</trkpt>
<trkpt lat="40.0713764" lon="-105.2297797">
  <ele>1583.0</ele>
  <time>2026-08-28T17:56:42Z</time>
  <course>255.1</course>
  <speed>1.58</speed>
  <fix>3d</fix>
</trkpt>
<trkpt lat="40.0713751" lon="-105.2297862">
  <ele>1583.15</ele>
  <time>2026-08-28T17:56:42Z</time>
  <course>256.95</course>
  <speed>1.1060289327137875</speed>
  <fix>3d</fix>
</trkpt>
<trkpt lat="40.0713757" lon="-105.229783">
  <ele>1583.0</ele>
  <time>2026-08-28T17:56:42Z</time>
  <course>255.39</course>
  <speed>1.37</speed>
  <fix>3d</fix>
</trkpt>
<trkpt lat="40.0713749" lon="-105.2297874">
  <ele>1583.15</ele>
  <time>2026-08-28T17:56:42Z</time>
  <course>257.19</course>
  <speed>1.0016985574512922</speed>
  <fix>3d</fix>
</trkpt>
<trkpt lat="40.0713757" lon="-105.229783">
  <ele>1583.0</ele>
  <time>2026-08-28T17:56:42Z</time>
  <course>255.39</course>
  <speed>1.37</speed>
  <fix>3d</fix>
</trkpt>
<trkpt lat="40.0713747" lon="-105.2297885">
  <ele>1583.15</ele>
  <time>2026-08-28T17:56:42Z</time>
  <course>257.43</course>
  <speed>0.8973850901368933</speed>
  <fix>3d</fix>
</trkpt>
<trkpt lat="40.0713751" lon="-105.2297859">
  <ele>1583.0</ele>
  <time>2026-08-28T17:56:42Z</time>
  <course>255.76</course>
  <speed>1.16</speed>
  <fix>3d</fix>
</trkpt>
<trkpt lat="40.0713745" lon="-105.2297895">
  <ele>1583.15</ele>
  <time>2026-08-28T17:56:42Z</time>
  <course>257.71</course>
  <speed>0.7930952023559341</speed>
  <fix>3d</fix>
</trkpt>
<trkpt lat="40.0713751" lon="-105.2297859">
  <ele>1583.0</ele>
  <time>2026-08-28T17:56:42Z</time>
  <course>255.76</course>
  <speed>1.16</speed>
  <fix>3d</fix>
</trkpt>
<trkpt lat="40.0713743" lon="-105.2297904">
  <ele>1583.15</ele>
  <time>2026-08-28T17:56:42Z</time>
  <course>258.02</course>
  <speed>0.688839603971781</speed>
  <fix>3d</fix>
</trkpt>
<trkpt lat="40.0713746" lon="-105.2297883">
  <ele>1583.0</ele>
  <time>2026-08-28T17:56:42Z</time>
  <course>256.24</course>
  <speed>0.95</speed>
  <fix>3d</fix>
</trkpt>
<trkpt lat="40.0713742" lon="-105.2297911">
  <ele>1583.14</ele>
  <time>2026-08-28T17:56:42Z</time>
  <course>258.36</course>
  <speed>0.5846366392897386</speed>
  <fix>3d</fix>
</trkpt>
<trkpt lat="40.0713743" lon="-105.2297903">
  <ele>1583.0</ele>
  <time>2026-08-28T17:56:42Z</time>
  <course>256.81</course>
  <speed>0.75</speed>
  <fix>3d</fix>
</trkpt>
<trkpt lat="40.071374" lon="-105.2297917">
  <ele>1583.14</ele>
  <time>2026-08-28T17:56:42Z</time>
  <course>258.74</course>
  <speed>0.4827007354458868</speed>
  <fix>3d</fix>
</trkpt>
<trkpt lat="40.0713743" lon="-105.2297903">
  <ele>1583.0</ele>
  <time>2026-08-28T17:56:42Z</time>
  <course>256.81</course>
  <speed>0.75</speed>
  <fix>3d</fix>
</trkpt>
<trkpt lat="40.071374" lon="-105.2297922">
  <ele>1583.14</ele>
  <time>2026-08-28T17:56:42Z</time>
  <course>259.16</course>
  <speed>0.378549864614954</speed>
  <fix>3d</fix>
</trkpt>
<trkpt lat="40.0713741" lon="-105.2297918">
  <ele>1583.0</ele>
  <time>2026-08-28T17:56:42Z</time>
  <course>257.5</course>
  <speed>0.54</speed>
  <fix>3d</fix>
</trkpt>
<trkpt lat="40.0713739" lon="-105.2297927">
  <ele>1583.14</ele>
  <time>2026-08-28T17:56:42Z</time>
  <course>259.55</course>
  <speed>0.2765863337187866</speed>
  <fix>3d</fix>
</trkpt>
<trkpt lat="40.0713741" lon="-105.2297918">
  <ele>1583.0</ele>
  <time>2026-08-28T17:56:42Z</time>
  <course>257.5</course>
  <speed>0.54</speed>
  <fix>3d</fix>
</trkpt>
<trkpt lat="40.0713739" lon="-105.2297929">
  <ele>1583.14</ele>
  <time>2026-08-28T17:56:42Z</time>
  <course>259.93</course>
  <speed>0.17464249196572978</speed>
  <fix>3d</fix>
</trkpt>
<trkpt lat="40.0713739" lon="-105.2297929">
  <ele>1583.0</ele>
  <time>2026-08-28T17:56:42Z</time>
  <course>258.24</course>
  <speed>0.34</speed>
  <fix>3d</fix>
</trkpt>
<trkpt lat="40.0713738" lon="-105.2297931">
  <ele>1583.13</ele>
  <time>2026-08-28T17:56:42Z</time>
  <course>260.31</course>
  <speed>0.09219544457292887</speed>
  <fix>3d</fix>
</trkpt>
<trkpt lat="40.0713739" lon="-105.2297929">
  <ele>1583.0</ele>
  <time>2026-08-28T17:56:42Z</time>
  <course>258.24</course>
  <speed>0.34</speed>
  <fix>3d</fix>
</trkpt>
<trkpt lat="40.0713738" lon="-105.2297932">
  <ele>1583.13</ele>
  <time>2026-08-28T17:56:42Z</time>
  <course>260.66</course>
  <speed>0.01</speed>
  <fix>3d</fix>
</trkpt>
<trkpt lat="40.0713738" lon="-105.2297934">
  <ele>1583.0</ele>
  <time>2026-08-28T17:56:42Z</time>
  <course>258.93</course>
  <speed>0.16</speed>
  <fix>3d</fix>
</trkpt>
<trkpt lat="40.0713738" lon="-105.2297932">
  <ele>1583.13</ele>
  <time>2026-08-28T17:56:42Z</time>
  <course>260.99</course>
  <speed>0.04</speed>
  <fix>3d</fix>
</trkpt>
<trkpt lat="40.0713738" lon="-105.2297934">
  <ele>1583.0</ele>
  <time>2026-08-28T17:56:42Z</time>
  <course>258.93</course>
  <speed>0.16</speed>
  <fix>3d</fix>
</trkpt>
<trkpt lat="40.0713738" lon="-105.2297933">
  <ele>1583.12</ele>
  <time>2026-08-28T17:56:42Z</time>
  <course>261.24</course>
  <speed>0.06</speed>
  <fix>3d</fix>
</trkpt>
<trkpt lat="40.0713737" lon="-105.2297936">
  <ele>1583.0</ele>
  <time>2026-08-28T17:56:42Z</time>
  <course>259.52</course>
  <speed>0.04</speed>
  <fix>3d</fix>
</trkpt>
<trkpt lat="40.0713738" lon="-105.2297933">
  <ele>1583.12</ele>
  <time>2026-08-28T17:56:42Z</time>
  <course>261.46</course>
  <speed>0.06082762530298219</speed>
  <fix>3d</fix>
</trkpt>
<trkpt lat="40.0713737" lon="-105.2297936">
  <ele>1583.0</ele>
  <time>2026-08-28T17:56:42Z</time>
  <course>259.52</course>
  <speed>0.04</speed>
  <fix>3d</fix>
</trkpt>
<trkpt lat="40.0713738" lon="-105.2297932">
  <ele>1583.11</ele>
  <time>2026-08-28T17:56:42Z</time>
  <course>261.62</course>
  <speed>0.06082762530298219</speed>
  <fix>3d</fix>
</trkpt>
<trkpt lat="40.0713737" lon="-105.2297937">
  <ele>1583.0</ele>
  <time>2026-08-28T17:56:42Z</time>
  <course>261.38</course>
  <speed>0.0</speed>
  <fix>3d</fix>
</trkpt>
<trkpt lat="40.0713738" lon="-105.2297932">
  <ele>1583.11</ele>
  <time>2026-08-28T17:56:42Z</time>
  <course>261.72</course>
  <speed>0.06082762530298219</speed>
  <fix>3d</fix>
</trkpt>
<trkpt lat="40.0713737" lon="-105.2297937">
  <ele>1583.0</ele>
  <time>2026-08-28T17:56:42Z</time>
  <course>261.38</course>
  <speed>0.0</speed>
  <fix>3d</fix>
</trkpt>
<trkpt lat="40.0713738" lon="-105.2297932">
  <ele>1583.11</ele>
  <time>2026-08-28T17:56:42Z</time>
  <course>261.75</course>
  <speed>0.05099019513592785</speed>
  <fix>3d</fix>
</trkpt>
<trkpt lat="40.0713737" lon="-105.2297937">
  <ele>1583.0</ele>
  <time>2026-08-28T17:56:42Z</time>
  <course>262.89</course>
  <speed>0.0</speed>
  <fix>3d</fix>
</trkpt>
<trkpt lat="40.0713738" lon="-105.2297932">
  <ele>1583.11</ele>
  <time>2026-08-28T17:56:42Z</time>
  <course>261.75</course>
  <speed>0.05099019513592785</speed>
  <fix>3d</fix>
</trkpt>
<trkpt lat="40.0713737" lon="-105.2297937">
  <ele>1583.0</ele>
  <time>2026-08-28T17:56:42Z</time>
  <course>262.89</course>
  <speed>0.0</speed>
  <fix>3d</fix>
</trkpt>
<trkpt lat="40.0713738" lon="-105.2297932">
  <ele>1583.11</ele>
  <time>2026-08-28T17:56:42Z</time>
  <course>261.75</course>
  <speed>0.053851648071345036</speed>
  <fix>3d</fix>
</trkpt>
<trkpt lat="40.0713737" lon="-105.2297937">
  <ele>1583.0</ele>
  <time>2026-08-28T17:56:42Z</time>
  <course>262.89</course>
  <speed>0.0</speed>
  <fix>3d</fix>
</trkpt>
<trkpt lat="40.0713738" lon="-105.2297932">
  <ele>1583.12</ele>
  <time>2026-08-28T17:56:42Z</time>
  <course>261.75</course>
  <speed>0.053851648071345036</speed>
  <fix>3d</fix>
</trkpt>
<trkpt lat="40.0713737" lon="-105.2297937">
  <ele>1583.0</ele>
  <time>2026-08-28T17:56:42Z</time>
  <course>265.43</course>
  <speed>0.0</speed>
  <fix>3d</fix>
</trkpt>
<trkpt lat="40.0713738" lon="-105.2297932">
  <ele>1583.12</ele>
  <time>2026-08-28T17:56:42Z</time>
  <course>261.75</course>
  <speed>0.053851648071345036</speed>
  <fix>3d</fix>
</trkpt>
<trkpt lat="40.0713737" lon="-105.2297937">
  <ele>1583.0</ele>
  <time>2026-08-28T17:56:42Z</time>
  <course>265.43</course>
  <speed>0.0</speed>
  <fix>3d</fix>
</trkpt>
<trkpt lat="40.0713738" lon="-105.2297932">
  <ele>1583.12</ele>
  <time>2026-08-28T17:56:42Z</time>
  <course>261.75</course>
  <speed>0.044721359549995794</speed>
  <fix>3d</fix>
</trkpt>
<trkpt lat="40.0713737" lon="-105.2297937">
  <ele>1583.0</ele>
  <time>2026-08-28T17:56:42Z</time>
  <course>270.34</course>
  <speed>0.0</speed>
  <fix>3d</fix>
</trkpt>
<trkpt lat="40.0713738" lon="-105.2297932">
  <ele>1583.12</ele>
  <time>2026-08-28T17:56:42Z</time>
  <course>261.76</course>
  <speed>0.044721359549995794</speed>
  <fix>3d</fix>
</trkpt>
<trkpt lat="40.0713737" lon="-105.2297937">
  <ele>1583.0</ele>
  <time>2026-08-28T17:56:42Z</time>
  <course>270.34</course>
  <speed>0.0</speed>
  <fix>3d</fix>
</trkpt>
<trkpt lat="40.0713738" lon="-105.2297932">
  <ele>1583.12</ele>
  <time>2026-08-28T17:56:42Z</time>
  <course>261.76</course>
  <speed>0.044721359549995794</speed>
  <fix>3d</fix>
</trkpt>
<trkpt lat="40.0713737" lon="-105.2297937">
  <ele>1583.0</ele>
  <time>2026-08-28T17:56:42Z</time>
  <course>279.71</course>
  <speed>0.0</speed>
  <fix>3d</fix>
</trkpt>
<trkpt lat="40.0713738" lon="-105.2297932">
  <ele>1583.12</ele>
  <time>2026-08-28T17:56:42Z</time>
  <course>261.76</course>
  <speed>0.05</speed>
  <fix>3d</fix>
</trkpt>
<trkpt lat="40.0713737" lon="-105.2297937">
  <ele>1583.0</ele>
  <time>2026-08-28T17:56:42Z</time>
  <course>279.71</course>
  <speed>0.0</speed>
  <fix>3d</fix>
</trkpt>
<trkpt lat="40.0713738" lon="-105.2297932">
  <ele>1583.11</ele>
  <time>2026-08-28T17:56:42Z</time>
  <course>261.76</course>
  <speed>0.05</speed>
  <fix>3d</fix>
</trkpt>
<trkpt lat="40.0713737" lon="-105.2297937">
  <ele>1583.0</ele>
  <time>2026-08-28T17:56:42Z</time>
  <course>295.56</course>
  <speed>0.0</speed>
  <fix>3d</fix>
</trkpt>
<trkpt lat="40.0713738" lon="-105.2297932">
  <ele>1583.11</ele>
  <time>2026-08-28T17:56:42Z</time>
  <course>261.76</course>
  <speed>0.04242640687119285</speed>
  <fix>3d</fix>
</trkpt>
<trkpt lat="40.0713737" lon="-105.2297937">
  <ele>1583.0</ele>
  <time>2026-08-28T17:56:42Z</time>
  <course>315.23</course>
  <speed>0.0</speed>
  <fix>3d</fix>
</trkpt>
<trkpt lat="40.0713738" lon="-105.2297933">
  <ele>1583.1</ele>
  <time>2026-08-28T17:56:43Z</time>
  <course>261.76</course>
  <speed>0.04242640687119285</speed>
  <fix>3d</fix>
</trkpt>
<trkpt lat="40.0713737" lon="-105.2297937">
  <ele>1583.0</ele>
  <time>2026-08-28T17:56:43Z</time>
  <course>315.23</course>
  <speed>0.0</speed>
  <fix>3d</fix>
</trkpt>
<trkpt lat="40.0713739" lon="-105.2297933">
  <ele>1583.1</ele>
  <time>2026-08-28T17:56:43Z</time>
  <course>261.76</course>
  <speed>0.04242640687119285</speed>
  <fix>3d</fix>
</trkpt>
<trkpt lat="40.0713737" lon="-105.2297937">
  <ele>1583.0</ele>
  <time>2026-08-28T17:56:43Z</time>
  <course>331.18</course>
  <speed>0.0</speed>
  <fix>3d</fix>
</trkpt>
<trkpt lat="40.0713739" lon="-105.2297933">
  <ele>1583.09</ele>
  <time>2026-08-28T17:56:43Z</time>
  <course>261.76</course>
  <speed>0.04242640687119285</speed>
  <fix>3d</fix>
</trkpt>
<trkpt lat="40.0713737" lon="-105.2297937">
  <ele>1583.0</ele>
  <time>2026-08-28T17:56:43Z</time>
  <course>331.18</course>
  <speed>0.0</speed>
  <fix>3d</fix>
</trkpt>
<trkpt lat="40.0713739" lon="-105.2297933">
  <ele>1583.09</ele>
  <time>2026-08-28T17:56:43Z</time>
  <course>261.76</course>
  <speed>0.04242640687119285</speed>
  <fix>3d</fix>
</trkpt>
<trkpt lat="40.0713737" lon="-105.2297937">
  <ele>1583.0</ele>
  <time>2026-08-28T17:56:43Z</time>
  <course>340.65</course>
  <speed>0.0</speed>
  <fix>3d</fix>
</trkpt>
<trkpt lat="40.0713739" lon="-105.2297933">
  <ele>1583.08</ele>
  <time>2026-08-28T17:56:43Z</time>
  <course>261.76</course>
  <speed>0.03605551275463989</speed>
  <fix>3d</fix>
</trkpt>
<trkpt lat="40.0713737" lon="-105.2297937">
  <ele>1583.0</ele>
  <time>2026-08-28T17:56:43Z</time>
  <course>340.65</course>
  <speed>0.0</speed>
  <fix>3d</fix>
</trkpt>
<trkpt lat="40.0713739" lon="-105.2297933">
  <ele>1583.08</ele>
  <time>2026-08-28T17:56:43Z</time>
  <course>261.76</course>
  <speed>0.03605551275463989</speed>
  <fix>3d</fix>
</trkpt>
<trkpt lat="40.0713737" lon="-105.2297937">
  <ele>1583.0</ele>
  <time>2026-08-28T17:56:43Z</time>
  <course>345.6</course>
  <speed>0.0</speed>
  <fix>3d</fix>
</trkpt>
<trkpt lat="40.0713739" lon="-105.2297933">
  <ele>1583.07</ele>
  <time>2026-08-28T17:56:43Z</time>
  <course>261.76</course>
  <speed>0.03605551275463989</speed>
  <fix>3d</fix>
</trkpt>
<trkpt lat="40.0713737" lon="-105.2297937">
  <ele>1583.0</ele>
  <time>2026-08-28T17:56:43Z</time>
  <course>345.6</course>
  <speed>0.0</speed>
  <fix>3d</fix>
</trkpt>
<trkpt lat="40.0713739" lon="-105.2297933">
  <ele>1583.06</ele>
  <time>2026-08-28T17:56:43Z</time>
  <course>261.75</course>
  <speed>0.03605551275463989</speed>
  <fix>3d</fix>
</trkpt>
<trkpt lat="40.0713737" lon="-105.2297937">
  <ele>1583.0</ele>
  <time>2026-08-28T17:56:43Z</time>
  <course>348.09</course>
  <speed>0.0</speed>
  <fix>3d</fix>
</trkpt>
<trkpt lat="40.0713739" lon="-105.2297933">
  <ele>1583.06</ele>
  <time>2026-08-28T17:56:43Z</time>
  <course>261.75</course>
  <speed>0.03605551275463989</speed>
  <fix>3d</fix>
</trkpt>
<trkpt lat="40.0713737" lon="-105.2297937">
  <ele>1583.0</ele>
  <time>2026-08-28T17:56:43Z</time>
  <course>348.09</course>
  <speed>0.0</speed>
  <fix>3d</fix>
</trkpt>
<trkpt lat="40.0713739" lon="-105.2297933">
  <ele>1583.06</ele>
  <time>2026-08-28T17:56:43Z</time>
  <course>261.75</course>
  <speed>0.0316227766016838</speed>
  <fix>3d</fix>
</trkpt>
<trkpt lat="40.0713737" lon="-105.2297937">
  <ele>1583.0</ele>
  <time>2026-08-28T17:56:43Z</time>
  <course>349.33</course>
  <speed>0.0</speed>
  <fix>3d</fix>
</trkpt>
<trkpt lat="40.0713739" lon="-105.2297933">
  <ele>1583.06</ele>
  <time>2026-08-28T17:56:43Z</time>
  <course>261.75</course>
  <speed>0.0316227766016838</speed>
  <fix>3d</fix>
</trkpt>
<trkpt lat="40.0713737" lon="-105.2297937">
  <ele>1583.0</ele>
  <time>2026-08-28T17:56:43Z</time>
  <course>349.33</course>
  <speed>0.0</speed>
  <fix>3d</fix>
</trkpt>
<trkpt lat="40.0713739" lon="-105.2297933">
  <ele>1583.06</ele>
  <time>2026-08-28T17:56:43Z</time>
  <course>261.75</course>
  <speed>0.0316227766016838</speed>
  <fix>3d</fix>
</trkpt>
<trkpt lat="40.0713737" lon="-105.2297937">
  <ele>1583.0</ele>
  <time>2026-08-28T17:56:43Z</time>
  <course>349.33</course>
  <speed>0.0</speed>
  <fix>3d</fix>
</trkpt>
<trkpt lat="40.0713739" lon="-105.2297934">
  <ele>1583.06</ele>
  <time>2026-08-28T17:56:43Z</time>
  <course>261.74</course>
  <speed>0.0316227766016838</speed>
  <fix>3d</fix>
</trkpt>
<trkpt lat="40.0713737" lon="-105.2297937">
  <ele>1583.0</ele>
  <time>2026-08-28T17:56:43Z</time>
  <course>349.94</course>
  <speed>0.0</speed>
  <fix>3d</fix>
</trkpt>
<trkpt lat="40.0713739" lon="-105.2297934">
  <ele>1583.06</ele>
  <time>2026-08-28T17:56:43Z</time>
  <course>261.74</course>
  <speed>0.0412310562561766</speed>
  <fix>3d</fix>
</trkpt>
<trkpt lat="39.6561709" lon="-104.1394387">
  <ele>1566.59</ele>
  <time>2026-08-28T17:56:43Z</time>
  <course>0.0</course>
  <speed>0.0</speed>
  <fix>3d</fix>
</trkpt>
<trkpt lat="40.0713749" lon="-105.229789">
  <ele>1583.0</ele>
  <time>2026-08-28T17:56:43Z</time>
  <course>0.0</course>
  <speed>0.0</speed>
  <fix>3d</fix>
</trkpt>
<trkpt lat="40.0713749" lon="-105.229789">
  <ele>1583.0</ele>
  <time>2026-08-28T17:56:43Z</time>
  <course>238.36</course>
  <speed>0.0</speed>
  <fix>3d</fix>
</trkpt>
<trkpt lat="40.0713749" lon="-105.229789">
  <ele>1583.0</ele>
  <time>2026-08-28T17:56:43Z</time>
  <course>0.0</course>
  <speed>0.0</speed>
  <fix>3d</fix>
</trkpt>
<trkpt lat="40.0713749" lon="-105.229789">
  <ele>1583.0</ele>
  <time>2026-08-28T17:56:43Z</time>
  <course>238.45</course>
  <speed>0.0</speed>
  <fix>3d</fix>
</trkpt>
<trkpt lat="40.0713749" lon="-105.229789">
  <ele>1583.0</ele>
  <time>2026-08-28T17:56:43Z</time>
  <course>0.0</course>
  <speed>0.0</speed>
  <fix>3d</fix>
</trkpt>
<trkpt lat="40.0713749" lon="-105.229789">
  <ele>1583.0</ele>
  <time>2026-08-28T17:56:43Z</time>
  <course>238.65</course>
  <speed>0.0</speed>
  <fix>3d</fix>
</trkpt>
<trkpt lat="40.0713749" lon="-105.229789">
  <ele>1583.0</ele>
  <time>2026-08-28T17:56:43Z</time>
  <course>0.0</course>
  <speed>0.0</speed>
  <fix>3d</fix>
</trkpt>
<trkpt lat="40.0713749" lon="-105.229789">
  <ele>1583.0</ele>
  <time>2026-08-28T17:56:43Z</time>
  <course>238.93</course>
  <speed>0.0</speed>
  <fix>3d</fix>
</trkpt>
<trkpt lat="40.0713749" lon="-105.229789">
  <ele>1583.0</ele>
  <time>2026-08-28T17:56:43Z</time>
  <course>0.0</course>
  <speed>0.0</speed>
  <fix>3d</fix>
</trkpt>
<trkpt lat="40.0713749" lon="-105.229789">
  <ele>1583.0</ele>
  <time>2026-08-28T17:56:43Z</time>
  <course>239.26</course>
  <speed>0.0</speed>
  <fix>3d</fix>
</trkpt>
<trkpt lat="40.0713749" lon="-105.229789">
  <ele>1583.0</ele>
  <time>2026-08-28T17:56:43Z</time>
  <course>0.0</course>
  <speed>0.0</speed>
  <fix>3d</fix>
</trkpt>
<trkpt lat="40.0713749" lon="-105.229789">
  <ele>1583.0</ele>
  <time>2026-08-28T17:56:43Z</time>
  <course>239.61</course>
  <speed>0.0</speed>
  <fix>3d</fix>
</trkpt>
<trkpt lat="40.0713749" lon="-105.229789">
  <ele>1583.0</ele>
  <time>2026-08-28T17:56:43Z</time>
  <course>0.0</course>
  <speed>0.0</speed>
  <fix>3d</fix>
</trkpt>
<trkpt lat="40.0713749" lon="-105.229789">
  <ele>1583.0</ele>
  <time>2026-08-28T17:56:43Z</time>
  <course>239.96</course>
  <speed>0.0</speed>
  <fix>3d</fix>
</trkpt>
<trkpt lat="40.0713749" lon="-105.229789">
  <ele>1583.0</ele>
  <time>2026-08-28T17:56:43Z</time>
  <course>0.0</course>
  <speed>0.0</speed>
  <fix>3d</fix>
</trkpt>
<trkpt lat="40.0713749" lon="-105.229789">
  <ele>1583.0</ele>
  <time>2026-08-28T17:56:43Z</time>
  <course>240.3</course>
  <speed>0.0</speed>
  <fix>3d</fix>
</trkpt>
<trkpt lat="40.0713749" lon="-105.229789">
  <ele>1583.0</ele>
  <time>2026-08-28T17:56:43Z</time>
  <course>0.0</course>
  <speed>0.0</speed>
  <fix>3d</fix>
</trkpt>
<trkpt lat="40.0713749" lon="-105.229789">
  <ele>1583.0</ele>
  <time>2026-08-28T17:56:43Z</time>
  <course>240.61</course>
  <speed>0.0</speed>
  <fix>3d</fix>
</trkpt>
<trkpt lat="40.0713749" lon="-105.229789">
  <ele>1583.0</ele>
  <time>2026-08-28T17:56:43Z</time>
  <course>0.0</course>
  <speed>0.0</speed>
  <fix>3d</fix>
</trkpt>
<trkpt lat="40.0713749" lon="-105.229789">
  <ele>1583.0</ele>
  <time>2026-08-28T17:56:43Z</time>
  <course>240.92</course>
  <speed>0.0</speed>
  <fix>3d</fix>
</trkpt>
<trkpt lat="40.0713749" lon="-105.229789">
  <ele>1583.0</ele>
  <time>2026-08-28T17:56:43Z</time>
  <course>0.0</course>
  <speed>0.0</speed>
  <fix>3d</fix>
</trkpt>
<trkpt lat="40.0713749" lon="-105.229789">
  <ele>1583.0</ele>
  <time>2026-08-28T17:56:43Z</time>
  <course>241.21</course>
  <speed>0.0</speed>
  <fix>3d</fix>
</trkpt>
<trkpt lat="40.0713749" lon="-105.229789">
  <ele>1583.0</ele>
  <time>2026-08-28T17:56:43Z</time>
  <course>0.0</course>
  <speed>0.0</speed>
  <fix>3d</fix>
</trkpt>
<trkpt lat="40.0713749" lon="-105.229789">
  <ele>1583.0</ele>
  <time>2026-08-28T17:56:43Z</time>
  <course>241.49</course>
  <speed>0.0</speed>
  <fix>3d</fix>
</trkpt>
<trkpt lat="40.0713749" lon="-105.229789">
  <ele>1583.0</ele>
  <time>2026-08-28T17:56:43Z</time>
  <course>0.0</course>
  <speed>0.0</speed>
  <fix>3d</fix>
</trkpt>
<trkpt lat="40.0713749" lon="-105.229789">
  <ele>1583.0</ele>
  <time>2026-08-28T17:56:43Z</time>
  <course>241.77</course>
  <speed>0.0</speed>
  <fix>3d</fix>
</trkpt>
<trkpt lat="40.0713749" lon="-105.229789">
  <ele>1583.0</ele>
  <time>2026-08-28T17:56:43Z</time>
  <course>0.0</course>
  <speed>0.0</speed>
  <fix>3d</fix>
</trkpt>
<trkpt lat="40.0713749" lon="-105.229789">
  <ele>1583.0</ele>
  <time>2026-08-28T17:56:43Z</time>
  <course>242.03</course>
  <speed>0.0</speed>
  <fix>3d</fix>
</trkpt>
<trkpt lat="40.0713749" lon="-105.229789">
  <ele>1583.0</ele>
  <time>2026-08-28T17:56:43Z</time>
  <course>0.0</course>
  <speed>0.0</speed>
  <fix>3d</fix>
</trkpt>
<trkpt lat="40.0713749" lon="-105.229789">
  <ele>1583.0</ele>
  <time>2026-08-28T17:56:43Z</time>
  <course>242.29</course>
  <speed>0.0</speed>
  <fix>3d</fix>
</trkpt>
<trkpt lat="40.0713749" lon="-105.229789">
  <ele>1583.0</ele>
  <time>2026-08-28T17:56:43Z</time>
  <course>0.0</course>
  <speed>0.0</speed>
  <fix>3d</fix>
</trkpt>
<trkpt lat="40.0713749" lon="-105.229789">
  <ele>1583.0</ele>
  <time>2026-08-28T17:56:43Z</time>
  <course>242.54</course>
  <speed>0.0</speed>
  <fix>3d</fix>
</trkpt>
<trkpt lat="40.0713749" lon="-105.229789">
  <ele>1583.0</ele>
  <time>2026-08-28T17:56:43Z</time>
  <course>0.0</course>
  <speed>0.0</speed>
  <fix>3d</fix>
</trkpt>
<trkpt lat="40.0713749" lon="-105.229789">
  <ele>1583.0</ele>
  <time>2026-08-28T17:56:43Z</time>
  <course>242.79</course>
  <speed>0.0</speed>
  <fix>3d</fix>
</trkpt>
<trkpt lat="40.0713749" lon="-105.229789">
  <ele>1583.0</ele>
  <time>2026-08-28T17:56:43Z</time>
  <course>0.0</course>
  <speed>0.0</speed>
  <fix>3d</fix>
</trkpt>
<trkpt lat="40.0713749" lon="-105.229789">
  <ele>1583.0</ele>
  <time>2026-08-28T17:56:43Z</time>
  <course>243.02</course>
  <speed>0.0</speed>
  <fix>3d</fix>
</trkpt>
<trkpt lat="40.0713749" lon="-105.229789">
  <ele>1583.0</ele>
  <time>2026-08-28T17:56:43Z</time>
  <course>0.0</course>
  <speed>0.0</speed>
  <fix>3d</fix>
</trkpt>
<trkpt lat="40.0713749" lon="-105.229789">
  <ele>1583.0</ele>
  <time>2026-08-28T17:56:43Z</time>
  <course>243.25</course>
  <speed>0.0</speed>
  <fix>3d</fix>
</trkpt>
<trkpt lat="40.0713749" lon="-105.229789">
  <ele>1583.0</ele>
  <time>2026-08-28T17:56:43Z</time>
  <course>0.0</course>
  <speed>0.0</speed>
  <fix>3d</fix>
</trkpt>
<trkpt lat="40.0713749" lon="-105.229789">
  <ele>1583.0</ele>
  <time>2026-08-28T17:56:43Z</time>
  <course>243.47</course>
  <speed>0.0</speed>
  <fix>3d</fix>
</trkpt>
<trkpt lat="40.0713749" lon="-105.229789">
  <ele>1583.0</ele>
  <time>2026-08-28T17:56:43Z</time>
  <course>0.0</course>
  <speed>0.0</speed>
  <fix>3d</fix>
</trkpt>
<trkpt lat="40.0713749" lon="-105.229789">
  <ele>1583.0</ele>
  <time>2026-08-28T17:56:43Z</time>
  <course>243.68</course>
  <speed>0.0</speed>
  <fix>3d</fix>
</trkpt>
<trkpt lat="40.0713749" lon="-105.229789">
  <ele>1583.0</ele>
  <time>2026-08-28T17:56:43Z</time>
  <course>0.0</course>
  <speed>0.0</speed>
  <fix>3d</fix>
</trkpt>
<trkpt lat="40.0713749" lon="-105.229789">
  <ele>1583.0</ele>
  <time>2026-08-28T17:56:43Z</time>
  <course>243.89</course>
  <speed>0.0</speed>
  <fix>3d</fix>
</trkpt>
<trkpt lat="40.0713749" lon="-105.229789">
  <ele>1583.0</ele>
  <time>2026-08-28T17:56:43Z</time>
  <course>0.0</course>
  <speed>0.0</speed>
  <fix>3d</fix>
</trkpt>
<trkpt lat="40.0713749" lon="-105.229789">
  <ele>1583.0</ele>
  <time>2026-08-28T17:56:43Z</time>
  <course>244.09</course>
  <speed>0.0</speed>
  <fix>3d</fix>
</trkpt>
<trkpt lat="40.0713749" lon="-105.229789">
  <ele>1583.0</ele>
  <time>2026-08-28T17:56:43Z</time>
  <course>0.0</course>
  <speed>0.0</speed>
  <fix>3d</fix>
</trkpt>
<trkpt lat="40.0713749" lon="-105.229789">
  <ele>1583.0</ele>
  <time>2026-08-28T17:56:43Z</time>
  <course>244.28</course>
  <speed>0.0</speed>
  <fix>3d</fix>
</trkpt>
<trkpt lat="40.0713749" lon="-105.229789">
  <ele>1583.0</ele>
  <time>2026-08-28T17:56:43Z</time>
  <course>0.0</course>
  <speed>0.0</speed>
  <fix>3d</fix>
</trkpt>
<trkpt lat="40.0713749" lon="-105.229789">
  <ele>1583.0</ele>
  <time>2026-08-28T17:56:43Z</time>
  <course>244.46</course>
  <speed>0.0</speed>
  <fix>3d</fix>
</trkpt>
<trkpt lat="40.0713749" lon="-105.229789">
  <ele>1583.0</ele>
  <time>2026-08-28T17:56:43Z</time>
  <course>0.0</course>
  <speed>0.0</speed>
  <fix>3d</fix>
</trkpt>
<trkpt lat="40.0713749" lon="-105.229789">
  <ele>1583.0</ele>
  <time>2026-08-28T17:56:43Z</time>
  <course>244.64</course>
  <speed>0.0</speed>
  <fix>3d</fix>
</trkpt>
<trkpt lat="40.0713749" lon="-105.229789">
  <ele>1583.0</ele>
  <time>2026-08-28T17:56:43Z</time>
  <course>0.0</course>
  <speed>0.0</speed>
  <fix>3d</fix>
</trkpt>
<trkpt lat="40.0713749" lon="-105.229789">
  <ele>1583.0</ele>
  <time>2026-08-28T17:56:43Z</time>
  <course>244.81</course>
  <speed>0.0</speed>
  <fix>3d</fix>
</trkpt>
<trkpt lat="40.0713749" lon="-105.229789">
  <ele>1583.0</ele>
  <time>2026-08-28T17:56:43Z</time>
  <course>0.0</course>
  <speed>0.0</speed>
  <fix>3d</fix>
</trkpt>
<trkpt lat="40.0713749" lon="-105.229789">
  <ele>1583.0</ele>
  <time>2026-08-28T17:56:43Z</time>
  <course>244.97</course>
  <speed>0.0</speed>
  <fix>3d</fix>
</trkpt>
<trkpt lat="40.0713749" lon="-105.229789">
  <ele>1583.0</ele>
  <time>2026-08-28T17:56:43Z</time>
  <course>0.0</course>
  <speed>0.0</speed>
  <fix>3d</fix>
</trkpt>
<trkpt lat="40.0713749" lon="-105.229789">
  <ele>1583.0</ele>
  <time>2026-08-28T17:56:43Z</time>
  <course>245.13</course>
  <speed>0.0</speed>
  <fix>3d</fix>
</trkpt>
<trkpt lat="40.0713749" lon="-105.229789">
  <ele>1583.0</ele>
  <time>2026-08-28T17:56:43Z</time>
  <course>0.0</course>
  <speed>0.0</speed>
  <fix>3d</fix>
</trkpt>
<trkpt lat="40.0713749" lon="-105.229789">
  <ele>1583.0</ele>
  <time>2026-08-28T17:56:43Z</time>
  <course>245.29</course>
  <speed>0.0</speed>
  <fix>3d</fix>
</trkpt>
<trkpt lat="40.0713749" lon="-105.229789">
  <ele>1583.0</ele>
  <time>2026-08-28T17:56:43Z</time>
  <course>0.0</course>
  <speed>0.0</speed>
  <fix>3d</fix>
</trkpt>
<trkpt lat="40.0713749" lon="-105.229789">
  <ele>1583.0</ele>
  <time>2026-08-28T17:56:43Z</time>
  <course>245.43</course>
  <speed>0.0</speed>
  <fix>3d</fix>
</trkpt>
<trkpt lat="40.0713749" lon="-105.229789">
  <ele>1583.0</ele>
  <time>2026-08-28T17:56:43Z</time>
  <course>0.0</course>
  <speed>0.0</speed>
  <fix>3d</fix>
</trkpt>
<trkpt lat="40.0713749" lon="-105.229789">
  <ele>1583.0</ele>
  <time>2026-08-28T17:56:43Z</time>
  <course>245.57</course>
  <speed>0.0</speed>
  <fix>3d</fix>
</trkpt>
<trkpt lat="40.0713749" lon="-105.229789">
  <ele>1583.0</ele>
  <time>2026-08-28T17:56:43Z</time>
  <course>0.0</course>
  <speed>0.0</speed>
  <fix>3d</fix>
</trkpt>
<trkpt lat="40.0713749" lon="-105.229789">
  <ele>1583.0</ele>
  <time>2026-08-28T17:56:43Z</time>
  <course>245.71</course>
  <speed>0.0</speed>
  <fix>3d</fix>
</trkpt>
<trkpt lat="40.0713749" lon="-105.229789">
  <ele>1583.0</ele>
  <time>2026-08-28T17:56:43Z</time>
  <course>0.0</course>
  <speed>0.0</speed>
  <fix>3d</fix>
</trkpt>
<trkpt lat="40.0713749" lon="-105.229789">
  <ele>1583.0</ele>
  <time>2026-08-28T17:56:43Z</time>
  <course>245.83</course>
  <speed>0.0</speed>
  <fix>3d</fix>
</trkpt>
<trkpt lat="40.0713749" lon="-105.229789">
  <ele>1583.0</ele>
  <time>2026-08-28T17:56:43Z</time>
  <course>0.0</course>
  <speed>0.0</speed>
  <fix>3d</fix>
</trkpt>
<trkpt lat="40.0713749" lon="-105.229789">
  <ele>1583.0</ele>
  <time>2026-08-28T17:56:43Z</time>
  <course>245.96</course>
  <speed>0.0</speed>
  <fix>3d</fix>
</trkpt>
<trkpt lat="40.0713749" lon="-105.229789">
  <ele>1583.0</ele>
  <time>2026-08-28T17:56:43Z</time>
  <course>0.0</course>
  <speed>0.0</speed>
  <fix>3d</fix>
</trkpt>
<trkpt lat="40.0713749" lon="-105.229789">
  <ele>1583.0</ele>
  <time>2026-08-28T17:56:43Z</time>
  <course>246.08</course>
  <speed>0.0</speed>
  <fix>3d</fix>
</trkpt>
<trkpt lat="40.0713749" lon="-105.229789">
  <ele>1583.0</ele>
  <time>2026-08-28T17:56:43Z</time>
  <course>0.0</course>
  <speed>0.0</speed>
  <fix>3d</fix>
</trkpt>
<trkpt lat="40.0713749" lon="-105.229789">
  <ele>1583.0</ele>
  <time>2026-08-28T17:56:43Z</time>
  <course>246.19</course>
  <speed>0.0</speed>
  <fix>3d</fix>
</trkpt>
<trkpt lat="40.0713749" lon="-105.229789">
  <ele>1583.0</ele>
  <time>2026-08-28T17:56:43Z</time>
  <course>0.0</course>
  <speed>0.0</speed>
  <fix>3d</fix>
</trkpt>
<trkpt lat="40.0713749" lon="-105.229789">
  <ele>1583.0</ele>
  <time>2026-08-28T17:56:43Z</time>
  <course>246.3</course>
  <speed>0.0</speed>
  <fix>3d</fix>
</trkpt>
<trkpt lat="40.0713749" lon="-105.229789">
  <ele>1583.0</ele>
  <time>2026-08-28T17:56:43Z</time>
  <course>0.0</course>
  <speed>0.0</speed>
  <fix>3d</fix>
</trkpt>
<trkpt lat="40.0713749" lon="-105.229789">
  <ele>1583.0</ele>
  <time>2026-08-28T17:56:43Z</time>
  <course>246.41</course>
  <speed>0.0</speed>
  <fix>3d</fix>
</trkpt>
<trkpt lat="40.0713749" lon="-105.229789">
  <ele>1583.0</ele>
  <time>2026-08-28T17:56:43Z</time>
  <course>0.0</course>
  <speed>0.0</speed>
  <fix>3d</fix>
</trkpt>
<trkpt lat="40.0713749" lon="-105.229789">
  <ele>1583.0</ele>
  <time>2026-08-28T17:56:43Z</time>
  <course>246.51</course>
  <speed>0.0</speed>
  <fix>3d</fix>
</trkpt>
<trkpt lat="40.0713749" lon="-105.229789">
  <ele>1583.0</ele>
  <time>2026-08-28T17:56:43Z</time>
  <course>0.0</course>
  <speed>0.0</speed>
  <fix>3d</fix>
</trkpt>
<trkpt lat="40.0713749" lon="-105.229789">
  <ele>1583.0</ele>
  <time>2026-08-28T17:56:43Z</time>
  <course>246.6</course>
  <speed>0.0</speed>
  <fix>3d</fix>
</trkpt>
<trkpt lat="40.0713749" lon="-105.229789">
  <ele>1583.0</ele>
  <time>2026-08-28T17:56:43Z</time>
  <course>0.0</course>
  <speed>0.0</speed>
  <fix>3d</fix>
</trkpt>
<trkpt lat="40.0713749" lon="-105.229789">
  <ele>1583.0</ele>
  <time>2026-08-28T17:56:43Z</time>
  <course>246.69</course>
  <speed>0.0</speed>
  <fix>3d</fix>
</trkpt>
<trkpt lat="40.0713749" lon="-105.229789">
  <ele>1583.0</ele>
  <time>2026-08-28T17:56:43Z</time>
  <course>0.0</course>
  <speed>0.0</speed>
  <fix>3d</fix>
</trkpt>
<trkpt lat="40.0713749" lon="-105.229789">
  <ele>1583.0</ele>
  <time>2026-08-28T17:56:43Z</time>
  <course>246.78</course>
  <speed>0.0</speed>
  <fix>3d</fix>
</trkpt>
<trkpt lat="40.0713749" lon="-105.229789">
  <ele>1583.0</ele>
  <time>2026-08-28T17:56:43Z</time>
  <course>0.0</course>
  <speed>0.0</speed>
  <fix>3d</fix>
</trkpt>
<trkpt lat="40.0713749" lon="-105.229789">
  <ele>1583.0</ele>
  <time>2026-08-28T17:56:43Z</time>
  <course>246.86</course>
  <speed>0.0</speed>
  <fix>3d</fix>
</trkpt>
<trkpt lat="40.0713749" lon="-105.229789">
  <ele>1583.0</ele>
  <time>2026-08-28T17:56:43Z</time>
  <course>0.0</course>
  <speed>0.0</speed>
  <fix>3d</fix>
</trkpt>
<trkpt lat="40.0713749" lon="-105.229789">
  <ele>1583.0</ele>
  <time>2026-08-28T17:56:43Z</time>
  <course>246.95</course>
  <speed>0.0</speed>
  <fix>3d</fix>
</trkpt>
<trkpt lat="40.0713749" lon="-105.229789">
  <ele>1583.0</ele>
  <time>2026-08-28T17:56:43Z</time>
  <course>0.0</course>
  <speed>0.0</speed>
  <fix>3d</fix>
</trkpt>
<trkpt lat="40.0713749" lon="-105.229789">
  <ele>1583.0</ele>
  <time>2026-08-28T17:56:43Z</time>
  <course>247.02</course>
  <speed>0.0</speed>
  <fix>3d</fix>
</trkpt>
<trkpt lat="40.0713749" lon="-105.229789">
  <ele>1583.0</ele>
  <time>2026-08-28T17:56:43Z</time>
  <course>0.0</course>
  <speed>0.0</speed>
  <fix>3d</fix>
</trkpt>
<trkpt lat="40.0713749" lon="-105.229789">
  <ele>1583.0</ele>
  <time>2026-08-28T17:56:43Z</time>
  <course>247.1</course>
  <speed>0.0</speed>
  <fix>3d</fix>
</trkpt>
<trkpt lat="40.0713749" lon="-105.229789">
  <ele>1583.0</ele>
  <time>2026-08-28T17:56:43Z</time>
  <course>0.0</course>
  <speed>0.0</speed>
  <fix>3d</fix>
</trkpt>
<trkpt lat="40.0713749" lon="-105.229789">
  <ele>1583.0</ele>
  <time>2026-08-28T17:56:43Z</time>
  <course>247.17</course>
  <speed>0.0</speed>
  <fix>3d</fix>
</trkpt>
<trkpt lat="40.0713749" lon="-105.229789">
  <ele>1583.0</ele>
  <time>2026-08-28T17:56:43Z</time>
  <course>0.0</course>
  <speed>0.0</speed>
  <fix>3d</fix>
</trkpt>
<trkpt lat="40.0713749" lon="-105.229789">
  <ele>1583.0</ele>
  <time>2026-08-28T17:56:43Z</time>
  <course>247.23</course>
  <speed>0.0</speed>
  <fix>3d</fix>
</trkpt>
<trkpt lat="40.0713749" lon="-105.229789">
  <ele>1583.0</ele>
  <time>2026-08-28T17:56:43Z</time>
  <course>0.0</course>
  <speed>0.0</speed>
  <fix>3d</fix>
</trkpt>
<trkpt lat="40.0713749" lon="-105.229789">
  <ele>1583.0</ele>
  <time>2026-08-28T17:56:43Z</time>
  <course>247.3</course>
  <speed>0.0</speed>
  <fix>3d</fix>
</trkpt>
<trkpt lat="40.0713749" lon="-105.229789">
  <ele>1583.0</ele>
  <time>2026-08-28T17:56:43Z</time>
  <course>0.0</course>
  <speed>0.0</speed>
  <fix>3d</fix>
</trkpt>
<trkpt lat="40.0713749" lon="-105.229789">
  <ele>1583.0</ele>
  <time>2026-08-28T17:56:43Z</time>
  <course>247.36</course>
  <speed>0.0</speed>
  <fix>3d</fix>
</trkpt>
<trkpt lat="40.0713749" lon="-105.229789">
  <ele>1583.0</ele>
  <time>2026-08-28T17:56:43Z</time>
  <course>0.0</course>
  <speed>0.0</speed>
  <fix>3d</fix>
</trkpt>
<trkpt lat="40.0713749" lon="-105.229789">
  <ele>1583.0</ele>
  <time>2026-08-28T17:56:43Z</time>
  <course>247.42</course>
  <speed>0.0</speed>
  <fix>3d</fix>
</trkpt>
<trkpt lat="40.0713749" lon="-105.229789">
  <ele>1583.0</ele>
  <time>2026-08-28T17:56:43Z</time>
  <course>0.0</course>
  <speed>0.0</speed>
  <fix>3d</fix>
</trkpt>
<trkpt lat="40.0713749" lon="-105.229789">
  <ele>1583.0</ele>
  <time>2026-08-28T17:56:43Z</time>
  <course>247.47</course>
  <speed>0.0</speed>
  <fix>3d</fix>
</trkpt>
<trkpt lat="40.0713749" lon="-105.229789">
  <ele>1583.0</ele>
  <time>2026-08-28T17:56:43Z</time>
  <course>0.0</course>
  <speed>0.0</speed>
  <fix>3d</fix>
</trkpt>
<trkpt lat="40.0713749" lon="-105.229789">
  <ele>1583.0</ele>
  <time>2026-08-28T17:56:43Z</time>
  <course>247.52</course>
  <speed>0.0</speed>
  <fix>3d</fix>
</trkpt>
<trkpt lat="40.0713749" lon="-105.229789">
  <ele>1583.0</ele>
  <time>2026-08-28T17:56:43Z</time>
  <course>0.0</course>
  <speed>0.0</speed>
  <fix>3d</fix>
</trkpt>
<trkpt lat="40.0713749" lon="-105.229789">
  <ele>1583.0</ele>
  <time>2026-08-28T17:56:43Z</time>
  <course>247.57</course>
  <speed>0.0</speed>
  <fix>3d</fix>
</trkpt>
<trkpt lat="40.0713749" lon="-105.229789">
  <ele>1583.0</ele>
  <time>2026-08-28T17:56:43Z</time>
  <course>0.0</course>
  <speed>0.0</speed>
  <fix>3d</fix>
</trkpt>
<trkpt lat="40.0713749" lon="-105.229789">
  <ele>1583.0</ele>
  <time>2026-08-28T17:56:43Z</time>
  <course>247.62</course>
  <speed>0.0</speed>
  <fix>3d</fix>
</trkpt>
<trkpt lat="40.0713749" lon="-105.229789">
  <ele>1583.0</ele>
  <time>2026-08-28T17:56:43Z</time>
  <course>0.0</course>
  <speed>0.0</speed>
  <fix>3d</fix>
</trkpt>
<trkpt lat="40.0713749" lon="-105.229789">
  <ele>1583.0</ele>
  <time>2026-08-28T17:56:43Z</time>
  <course>247.67</course>
  <speed>0.0</speed>
  <fix>3d</fix>
</trkpt>
<trkpt lat="40.0713749" lon="-105.229789">
  <ele>1583.0</ele>
  <time>2026-08-28T17:56:43Z</time>
  <course>0.0</course>
  <speed>0.0</speed>
  <fix>3d</fix>
</trkpt>
<trkpt lat="40.0713749" lon="-105.229789">
  <ele>1583.0</ele>
  <time>2026-08-28T17:56:43Z</time>
  <course>247.71</course>
  <speed>0.0</speed>
  <fix>3d</fix>
</trkpt>
<trkpt lat="40.0713749" lon="-105.229789">
  <ele>1583.0</ele>
  <time>2026-08-28T17:56:43Z</time>
  <course>0.0</course>
  <speed>0.0</speed>
  <fix>3d</fix>
</trkpt>
<trkpt lat="40.0713749" lon="-105.229789">
  <ele>1583.0</ele>
  <time>2026-08-28T17:56:43Z</time>
  <course>247.75</course>
  <speed>0.0</speed>
  <fix>3d</fix>
</trkpt>
<trkpt lat="40.0713749" lon="-105.229789">
  <ele>1583.0</ele>
  <time>2026-08-28T17:56:43Z</time>
  <course>0.0</course>
  <speed>0.0</speed>
  <fix>3d</fix>
</trkpt>
<trkpt lat="40.0713749" lon="-105.229789">
  <ele>1583.0</ele>
  <time>2026-08-28T17:56:43Z</time>
  <course>247.79</course>
  <speed>0.0</speed>
  <fix>3d</fix>
</trkpt>
<trkpt lat="40.0713749" lon="-105.229789">
  <ele>1583.0</ele>
  <time>2026-08-28T17:56:43Z</time>
  <course>0.0</course>
  <speed>0.0</speed>
  <fix>3d</fix>
</trkpt>
<trkpt lat="40.0713749" lon="-105.229789">
  <ele>1583.0</ele>
  <time>2026-08-28T17:56:43Z</time>
  <course>247.83</course>
  <speed>0.0</speed>
  <fix>3d</fix>
</trkpt>
<trkpt lat="40.0713749" lon="-105.229789">
  <ele>1583.0</ele>
  <time>2026-08-28T17:56:43Z</time>
  <course>0.0</course>
  <speed>0.0</speed>
  <fix>3d</fix>
</trkpt>
<trkpt lat="40.0713749" lon="-105.229789">
  <ele>1583.0</ele>
  <time>2026-08-28T17:56:43Z</time>
  <course>247.87</course>
  <speed>0.0</speed>
  <fix>3d</fix>
</trkpt>
<trkpt lat="40.0713749" lon="-105.229789">
  <ele>1583.0</ele>
  <time>2026-08-28T17:56:43Z</time>
  <course>0.0</course>
  <speed>0.0</speed>
  <fix>3d</fix>
</trkpt>
<trkpt lat="40.0713749" lon="-105.229789">
  <ele>1583.0</ele>
  <time>2026-08-28T17:56:43Z</time>
  <course>247.9</course>
  <speed>0.0</speed>
  <fix>3d</fix>
</trkpt>
<trkpt lat="40.0713749" lon="-105.229789">
  <ele>1583.0</ele>
  <time>2026-08-28T17:56:43Z</time>
  <course>0.0</course>
  <speed>0.0</speed>
  <fix>3d</fix>
</trkpt>
<trkpt lat="40.0713749" lon="-105.229789">
  <ele>1583.0</ele>
  <time>2026-08-28T17:56:43Z</time>
  <course>247.93</course>
  <speed>0.0</speed>
  <fix>3d</fix>
</trkpt>
<trkpt lat="40.0713749" lon="-105.229789">
  <ele>1583.0</ele>
  <time>2026-08-28T17:56:43Z</time>
  <course>0.0</course>
  <speed>0.0</speed>
  <fix>3d</fix>
</trkpt>
<trkpt lat="40.0713749" lon="-105.229789">
  <ele>1583.0</ele>
  <time>2026-08-28T17:56:43Z</time>
  <course>247.96</course>
  <speed>0.0</speed>
  <fix>3d</fix>
</trkpt>
<trkpt lat="40.0713749" lon="-105.229789">
  <ele>1583.0</ele>
  <time>2026-08-28T17:56:43Z</time>
  <course>0.0</course>
  <speed>0.0</speed>
  <fix>3d</fix>
</trkpt>
<trkpt lat="40.0713749" lon="-105.229789">
  <ele>1583.0</ele>
  <time>2026-08-28T17:56:43Z</time>
  <course>247.99</course>
  <speed>0.0</speed>
  <fix>3d</fix>
</trkpt>
<trkpt lat="40.0713749" lon="-105.229789">
  <ele>1583.0</ele>
  <time>2026-08-28T17:56:43Z</time>
  <course>0.0</course>
  <speed>0.0</speed>
  <fix>3d</fix>
</trkpt>
<trkpt lat="40.0713749" lon="-105.229789">
  <ele>1583.0</ele>
  <time>2026-08-28T17:56:43Z</time>
  <course>248.02</course>
  <speed>0.0</speed>
  <fix>3d</fix>
</trkpt>
<trkpt lat="40.0713749" lon="-105.229789">
  <ele>1583.0</ele>
  <time>2026-08-28T17:56:43Z</time>
  <course>0.0</course>
  <speed>0.0</speed>
  <fix>3d</fix>
</trkpt>
<trkpt lat="40.0713749" lon="-105.229789">
  <ele>1583.0</ele>
  <time>2026-08-28T17:56:43Z</time>
  <course>248.05</course>
  <speed>0.0</speed>
  <fix>3d</fix>
</trkpt>
<trkpt lat="40.0713749" lon="-105.229789">
  <ele>1583.0</ele>
  <time>2026-08-28T17:56:43Z</time>
  <course>0.0</course>
  <speed>0.0</speed>
  <fix>3d</fix>
</trkpt>
<trkpt lat="40.0713749" lon="-105.229789">
  <ele>1583.0</ele>
  <time>2026-08-28T17:56:43Z</time>
  <course>248.07</course>
  <speed>0.0</speed>
  <fix>3d</fix>
</trkpt>
<trkpt lat="40.0713749" lon="-105.229789">
  <ele>1583.0</ele>
  <time>2026-08-28T17:56:43Z</time>
  <course>0.0</course>
  <speed>0.0</speed>
  <fix>3d</fix>
</trkpt>
<trkpt lat="40.0713749" lon="-105.229789">
  <ele>1583.0</ele>
  <time>2026-08-28T17:56:43Z</time>
  <course>248.1</course>
  <speed>0.0</speed>
  <fix>3d</fix>
</trkpt>
<trkpt lat="40.0713749" lon="-105.229789">
  <ele>1583.0</ele>
  <time>2026-08-28T17:56:43Z</time>
  <course>0.0</course>
  <speed>0.0</speed>
  <fix>3d</fix>
</trkpt>
<trkpt lat="40.0713749" lon="-105.229789">
  <ele>1583.0</ele>
  <time>2026-08-28T17:56:43Z</time>
  <course>248.12</course>
  <speed>0.0</speed>
  <fix>3d</fix>
</trkpt>
<trkpt lat="40.0713749" lon="-105.229789">
  <ele>1583.0</ele>
  <time>2026-08-28T17:56:43Z</time>
  <course>0.0</course>
  <speed>0.0</speed>
  <fix>3d</fix>
</trkpt>
<trkpt lat="40.0713749" lon="-105.229789">
  <ele>1583.0</ele>
  <time>2026-08-28T17:56:43Z</time>
  <course>248.14</course>
  <speed>0.0</speed>
  <fix>3d</fix>
</trkpt>
<trkpt lat="40.0713749" lon="-105.229789">
  <ele>1583.0</ele>
  <time>2026-08-28T17:56:43Z</time>
  <course>0.0</course>
  <speed>0.0</speed>
  <fix>3d</fix>
</trkpt>
<trkpt lat="40.0713749" lon="-105.229789">
  <ele>1583.0</ele>
  <time>2026-08-28T17:56:43Z</time>
  <course>248.16</course>
  <speed>0.0</speed>
  <fix>3d</fix>
</trkpt>
<trkpt lat="40.0713749" lon="-105.229789">
  <ele>1583.0</ele>
  <time>2026-08-28T17:56:43Z</time>
  <course>0.0</course>
  <speed>0.0</speed>
  <fix>3d</fix>
</trkpt>
<trkpt lat="40.0713749" lon="-105.229789">
  <ele>1583.0</ele>
  <time>2026-08-28T17:56:43Z</time>
  <course>248.18</course>
  <speed>0.0</speed>
  <fix>3d</fix>
</trkpt>
<trkpt lat="40.0713749" lon="-105.229789">
  <ele>1583.0</ele>
  <time>2026-08-28T17:56:43Z</time>
  <course>0.0</course>
  <speed>0.0</speed>
  <fix>3d</fix>
</trkpt>
<trkpt lat="40.0713749" lon="-105.229789">
  <ele>1583.0</ele>
  <time>2026-08-28T17:56:43Z</time>
  <course>248.2</course>
  <speed>0.0</speed>
  <fix>3d</fix>
</trkpt>
<trkpt lat="40.0713749" lon="-105.229789">
  <ele>1583.0</ele>
  <time>2026-08-28T17:56:43Z</time>
  <course>0.0</course>
  <speed>0.0</speed>
  <fix>3d</fix>
</trkpt>
<trkpt lat="40.0713749" lon="-105.229789">
  <ele>1583.0</ele>
  <time>2026-08-28T17:56:43Z</time>
  <course>248.21</course>
  <speed>0.0</speed>
  <fix>3d</fix>
</trkpt>
<trkpt lat="40.0713749" lon="-105.229789">
  <ele>1583.0</ele>
  <time>2026-08-28T17:56:43Z</time>
  <course>0.0</course>
  <speed>0.0</speed>
  <fix>3d</fix>
</trkpt>
<trkpt lat="40.0713749" lon="-105.229789">
  <ele>1583.0</ele>
  <time>2026-08-28T17:56:43Z</time>
  <course>248.23</course>
  <speed>0.0</speed>
  <fix>3d</fix>
</trkpt>
<trkpt lat="40.0713749" lon="-105.229789">
  <ele>1583.0</ele>
  <time>2026-08-28T17:56:43Z</time>
  <course>0.0</course>
  <speed>0.0</speed>
  <fix>3d</fix>
</trkpt>
<trkpt lat="40.0713749" lon="-105.229789">
  <ele>1583.0</ele>
  <time>2026-08-28T17:56:43Z</time>
  <course>248.24</course>
  <speed>0.0</speed>
  <fix>3d</fix>
</trkpt>
<trkpt lat="40.0713749" lon="-105.229789">
  <ele>1583.0</ele>
  <time>2026-08-28T17:56:43Z</time>
  <course>0.0</course>
  <speed>0.0</speed>
  <fix>3d</fix>
</trkpt>
<trkpt lat="40.0713749" lon="-105.229789">
  <ele>1583.0</ele>
  <time>2026-08-28T17:56:43Z</time>
  <course>248.26</course>
  <speed>0.0</speed>
  <fix>3d</fix>
</trkpt>
<trkpt lat="40.0713749" lon="-105.229789">
  <ele>1583.0</ele>
  <time>2026-08-28T17:56:43Z</time>
  <course>0.0</course>
  <speed>0.0</speed>
  <fix>3d</fix>
</trkpt>
<trkpt lat="40.0713749" lon="-105.229789">
  <ele>1583.0</ele>
  <time>2026-08-28T17:56:43Z</time>
  <course>248.27</course>
  <speed>0.0</speed>
  <fix>3d</fix>
</trkpt>
<trkpt lat="40.0713749" lon="-105.229789">
  <ele>1583.0</ele>
  <time>2026-08-28T17:56:43Z</time>
  <course>0.0</course>
  <speed>0.0</speed>
  <fix>3d</fix>
</trkpt>
<trkpt lat="40.0713749" lon="-105.229789">
  <ele>1583.0</ele>
  <time>2026-08-28T17:56:43Z</time>
  <course>248.28</course>
  <speed>0.0</speed>
  <fix>3d</fix>
</trkpt>
<trkpt lat="40.0713749" lon="-105.229789">
  <ele>1583.0</ele>
  <time>2026-08-28T17:56:43Z</time>
  <course>0.0</course>
  <speed>0.0</speed>
  <fix>3d</fix>
</trkpt>
<trkpt lat="40.0713749" lon="-105.229789">
  <ele>1583.0</ele>
  <time>2026-08-28T17:56:43Z</time>
  <course>248.29</course>
  <speed>0.0</speed>
  <fix>3d</fix>
</trkpt>
<trkpt lat="40.0713749" lon="-105.229789">
  <ele>1583.0</ele>
  <time>2026-08-28T17:56:43Z</time>
  <course>0.0</course>
  <speed>0.0</speed>
  <fix>3d</fix>
</trkpt>
<trkpt lat="40.0713749" lon="-105.229789">
  <ele>1583.0</ele>
  <time>2026-08-28T17:56:43Z</time>
  <course>248.3</course>
  <speed>0.0</speed>
  <fix>3d</fix>
</trkpt>
<trkpt lat="40.0713749" lon="-105.229789">
  <ele>1583.0</ele>
  <time>2026-08-28T17:56:43Z</time>
  <course>0.0</course>
  <speed>0.0</speed>
  <fix>3d</fix>
</trkpt>
<trkpt lat="40.0713749" lon="-105.229789">
  <ele>1583.0</ele>
  <time>2026-08-28T17:56:43Z</time>
  <course>248.31</course>
  <speed>0.0</speed>
  <fix>3d</fix>
</trkpt>
<trkpt lat="40.0713749" lon="-105.229789">
  <ele>1583.0</ele>
  <time>2026-08-28T17:56:43Z</time>
  <course>0.0</course>
  <speed>0.0</speed>
  <fix>3d</fix>
</trkpt>
<trkpt lat="40.0713749" lon="-105.229789">
  <ele>1583.0</ele>
  <time>2026-08-28T17:56:43Z</time>
  <course>248.32</course>
  <speed>0.0</speed>
  <fix>3d</fix>
</trkpt>
<trkpt lat="40.0713749" lon="-105.229789">
  <ele>1583.0</ele>
  <time>2026-08-28T17:56:43Z</time>
  <course>0.0</course>
  <speed>0.0</speed>
  <fix>3d</fix>
</trkpt>
<trkpt lat="40.0713749" lon="-105.229789">
  <ele>1583.0</ele>
  <time>2026-08-28T17:56:43Z</time>
  <course>248.33</course>
  <speed>0.0</speed>
  <fix>3d</fix>
</trkpt>
<trkpt lat="40.0713749" lon="-105.229789">
  <ele>1583.0</ele>
  <time>2026-08-28T17:56:43Z</time>
  <course>0.0</course>
  <speed>0.0</speed>
  <fix>3d</fix>
</trkpt>
<trkpt lat="40.0713749" lon="-105.229789">
  <ele>1583.0</ele>
  <time>2026-08-28T17:56:43Z</time>
  <course>248.34</course>
  <speed>0.0</speed>
  <fix>3d</fix>
</trkpt>
<trkpt lat="40.0713749" lon="-105.229789">
  <ele>1583.0</ele>
  <time>2026-08-28T17:56:43Z</time>
  <course>0.0</course>
  <speed>0.0</speed>
  <fix>3d</fix>
</trkpt>
<trkpt lat="40.0713749" lon="-105.229789">
  <ele>1583.0</ele>
  <time>2026-08-28T17:56:43Z</time>
  <course>248.35</course>
  <speed>0.0</speed>
  <fix>3d</fix>
</trkpt>
<trkpt lat="40.0713749" lon="-105.229789">
  <ele>1583.0</ele>
  <time>2026-08-28T17:56:43Z</time>
  <course>0.0</course>
  <speed>0.0</speed>
  <fix>3d</fix>
</trkpt>
<trkpt lat="40.0713749" lon="-105.229789">
  <ele>1583.0</ele>
  <time>2026-08-28T17:56:43Z</time>
  <course>248.36</course>
  <speed>0.0</speed>
  <fix>3d</fix>
</trkpt>
<trkpt lat="40.0713749" lon="-105.229789">
  <ele>1583.0</ele>
  <time>2026-08-28T17:56:43Z</time>
  <course>0.0</course>
  <speed>0.0</speed>
  <fix>3d</fix>
</trkpt>
<trkpt lat="40.0713749" lon="-105.229789">
  <ele>1583.0</ele>
  <time>2026-08-28T17:56:43Z</time>
  <course>248.36</course>
  <speed>0.0</speed>
  <fix>3d</fix>
</trkpt>
<trkpt lat="40.0713749" lon="-105.229789">
  <ele>1583.0</ele>
  <time>2026-08-28T17:56:43Z</time>
  <course>0.0</course>
  <speed>0.0</speed>
  <fix>3d</fix>
</trkpt>
<trkpt lat="40.0713749" lon="-105.229789">
  <ele>1583.0</ele>
  <time>2026-08-28T17:56:43Z</time>
  <course>248.37</course>
  <speed>0.0</speed>
  <fix>3d</fix>
</trkpt>
<trkpt lat="40.0713749" lon="-105.229789">
  <ele>1583.0</ele>
  <time>2026-08-28T17:56:43Z</time>
  <course>0.0</course>
  <speed>0.0</speed>
  <fix>3d</fix>
</trkpt>
<trkpt lat="40.0713749" lon="-105.229789">
  <ele>1583.0</ele>
  <time>2026-08-28T17:56:43Z</time>
  <course>248.37</course>
  <speed>0.0</speed>
  <fix>3d</fix>
</trkpt>
<trkpt lat="40.0713749" lon="-105.229789">
  <ele>1583.0</ele>
  <time>2026-08-28T17:56:43Z</time>
  <course>0.0</course>
  <speed>0.0</speed>
  <fix>3d</fix>
</trkpt>
<trkpt lat="40.0713749" lon="-105.229789">
  <ele>1583.0</ele>
  <time>2026-08-28T17:56:43Z</time>
  <course>248.38</course>
  <speed>0.0</speed>
  <fix>3d</fix>
</trkpt>
<trkpt lat="40.0713749" lon="-105.229789">
  <ele>1583.0</ele>
  <time>2026-08-28T17:56:43Z</time>
  <course>0.0</course>
  <speed>0.0</speed>
  <fix>3d</fix>
</trkpt>
<trkpt lat="40.0713749" lon="-105.229789">
  <ele>1583.0</ele>
  <time>2026-08-28T17:56:43Z</time>
  <course>248.38</course>
  <speed>0.0</speed>
  <fix>3d</fix>
</trkpt>
<trkpt lat="40.0713749" lon="-105.229789">
  <ele>1583.0</ele>
  <time>2026-08-28T17:56:43Z</time>
  <course>0.0</course>
  <speed>0.0</speed>
  <fix>3d</fix>
</trkpt>
<trkpt lat="40.0713749" lon="-105.229789">
  <ele>1583.0</ele>
  <time>2026-08-28T17:56:43Z</time>
  <course>248.39</course>
  <speed>0.0</speed>
  <fix>3d</fix>
</trkpt>
<trkpt lat="40.0713749" lon="-105.229789">
  <ele>1583.0</ele>
  <time>2026-08-28T17:56:43Z</time>
  <course>0.0</course>
  <speed>0.0</speed>
  <fix>3d</fix>
</trkpt>
<trkpt lat="40.0713749" lon="-105.229789">
  <ele>1583.0</ele>
  <time>2026-08-28T17:56:43Z</time>
  <course>248.39</course>
  <speed>0.0</speed>
  <fix>3d</fix>
</trkpt>
<trkpt lat="40.0713749" lon="-105.229789">
  <ele>1583.0</ele>
  <time>2026-08-28T17:56:43Z</time>
  <course>0.0</course>
  <speed>0.0</speed>
  <fix>3d</fix>
</trkpt>
<trkpt lat="40.0713749" lon="-105.229789">
  <ele>1583.0</ele>
  <time>2026-08-28T17:56:43Z</time>
  <course>248.39</course>
  <speed>0.0</speed>
  <fix>3d</fix>
</trkpt>
<trkpt lat="40.0713749" lon="-105.229789">
  <ele>1583.0</ele>
  <time>2026-08-28T17:56:43Z</time>
  <course>0.0</course>
  <speed>0.0</speed>
  <fix>3d</fix>
</trkpt>
<trkpt lat="40.0713749" lon="-105.229789">
  <ele>1583.0</ele>
  <time>2026-08-28T17:56:43Z</time>
  <course>248.4</course>
  <speed>0.0</speed>
  <fix>3d</fix>
</trkpt>
<trkpt lat="40.0713749" lon="-105.229789">
  <ele>1583.0</ele>
  <time>2026-08-28T17:56:43Z</time>
  <course>0.0</course>
  <speed>0.0</speed>
  <fix>3d</fix>
</trkpt>
<trkpt lat="40.0713749" lon="-105.229789">
  <ele>1583.0</ele>
  <time>2026-08-28T17:56:43Z</time>
  <course>248.4</course>
  <speed>0.0</speed>
  <fix>3d</fix>
</trkpt>
<trkpt lat="40.0713749" lon="-105.229789">
  <ele>1583.0</ele>
  <time>2026-08-28T17:56:43Z</time>
  <course>0.0</course>
  <speed>0.0</speed>
  <fix>3d</fix>
</trkpt>
<trkpt lat="40.0713749" lon="-105.229789">
  <ele>1583.0</ele>
  <time>2026-08-28T17:56:43Z</time>
  <course>248.4</course>
  <speed>0.0</speed>
  <fix>3d</fix>
</trkpt>
<trkpt lat="40.0713749" lon="-105.229789">
  <ele>1583.0</ele>
  <time>2026-08-28T17:56:43Z</time>
  <course>0.0</course>
  <speed>0.0</speed>
  <fix>3d</fix>
</trkpt>
<trkpt lat="40.0713749" lon="-105.229789">
  <ele>1583.0</ele>
  <time>2026-08-28T17:56:43Z</time>
  <course>248.4</course>
  <speed>0.0</speed>
  <fix>3d</fix>
</trkpt>
<trkpt lat="40.0713749" lon="-105.229789">
  <ele>1583.0</ele>
  <time>2026-08-28T17:56:43Z</time>
  <course>0.0</course>
  <speed>0.0</speed>
  <fix>3d</fix>
</trkpt>
<trkpt lat="40.0713749" lon="-105.229789">
  <ele>1583.0</ele>
  <time>2026-08-28T17:56:43Z</time>
  <course>248.4</course>
  <speed>0.0</speed>
  <fix>3d</fix>
</trkpt>
<trkpt lat="40.0713749" lon="-105.229789">
  <ele>1583.0</ele>
  <time>2026-08-28T17:56:43Z</time>
  <course>0.0</course>
  <speed>0.0</speed>
  <fix>3d</fix>
</trkpt>
<trkpt lat="40.0713749" lon="-105.229789">
  <ele>1583.0</ele>
  <time>2026-08-28T17:56:43Z</time>
  <course>248.4</course>
  <speed>0.0</speed>
  <fix>3d</fix>
</trkpt>
<trkpt lat="40.0713749" lon="-105.229789">
  <ele>1583.0</ele>
  <time>2026-08-28T17:56:43Z</time>
  <course>0.0</course>
  <speed>0.0</speed>
  <fix>3d</fix>
</trkpt>
<trkpt lat="40.0713749" lon="-105.229789">
  <ele>1583.0</ele>
  <time>2026-08-28T17:56:43Z</time>
  <course>248.4</course>
  <speed>0.0</speed>
  <fix>3d</fix>
</trkpt>
<trkpt lat="40.0713749" lon="-105.229789">
  <ele>1583.0</ele>
  <time>2026-08-28T17:56:43Z</time>
  <course>0.0</course>
  <speed>0.0</speed>
  <fix>3d</fix>
</trkpt>
<trkpt lat="40.0713749" lon="-105.229789">
  <ele>1583.0</ele>
  <time>2026-08-28T17:56:43Z</time>
  <course>248.41</course>
  <speed>0.0</speed>
  <fix>3d</fix>
</trkpt>
<trkpt lat="40.0713749" lon="-105.229789">
  <ele>1583.0</ele>
  <time>2026-08-28T17:56:43Z</time>
  <course>0.0</course>
  <speed>0.0</speed>
  <fix>3d</fix>
</trkpt>
<trkpt lat="40.0713749" lon="-105.229789">
  <ele>1583.0</ele>
  <time>2026-08-28T17:56:43Z</time>
  <course>248.41</course>
  <speed>0.0</speed>
  <fix>3d</fix>
</trkpt>
<trkpt lat="40.0713749" lon="-105.229789">
  <ele>1583.0</ele>
  <time>2026-08-28T17:56:43Z</time>
  <course>0.0</course>
  <speed>0.0</speed>
  <fix>3d</fix>
</trkpt>
<trkpt lat="40.0713749" lon="-105.229789">
  <ele>1583.0</ele>
  <time>2026-08-28T17:56:43Z</time>
  <course>248.41</course>
  <speed>0.0</speed>
  <fix>3d</fix>
</trkpt>
<trkpt lat="40.0713749" lon="-105.229789">
  <ele>1583.0</ele>
  <time>2026-08-28T17:56:43Z</time>
  <course>0.0</course>
  <speed>0.0</speed>
  <fix>3d</fix>
</trkpt>
<trkpt lat="40.0713749" lon="-105.229789">
  <ele>1583.0</ele>
  <time>2026-08-28T17:56:43Z</time>
  <course>248.41</course>
  <speed>0.0</speed>
  <fix>3d</fix>
</trkpt>
<trkpt lat="40.0713749" lon="-105.229789">
  <ele>1583.0</ele>
  <time>2026-08-28T17:56:43Z</time>
  <course>0.0</course>
  <speed>0.0</speed>
  <fix>3d</fix>
</trkpt>
<trkpt lat="40.0713749" lon="-105.229789">
  <ele>1583.0</ele>
  <time>2026-08-28T17:56:43Z</time>
  <course>248.41</course>
  <speed>0.0</speed>
  <fix>3d</fix>
</trkpt>
<trkpt lat="40.0713749" lon="-105.229789">
  <ele>1583.0</ele>
  <time>2026-08-28T17:56:43Z</time>
  <course>0.0</course>
  <speed>0.0</speed>
  <fix>3d</fix>
</trkpt>
<trkpt lat="40.0713749" lon="-105.229789">
  <ele>1583.0</ele>
  <time>2026-08-28T17:56:43Z</time>
  <course>248.41</course>
  <speed>0.0</speed>
  <fix>3d</fix>
</trkpt>
<trkpt lat="40.0713749" lon="-105.229789">
  <ele>1583.0</ele>
  <time>2026-08-28T17:56:43Z</time>
  <course>0.0</course>
  <speed>0.0</speed>
  <fix>3d</fix>
</trkpt>
<trkpt lat="40.0713749" lon="-105.229789">
  <ele>1583.0</ele>
  <time>2026-08-28T17:56:43Z</time>
  <course>248.4</course>
  <speed>0.0</speed>
  <fix>3d</fix>
</trkpt>
<trkpt lat="40.0713749" lon="-105.229789">
  <ele>1583.0</ele>
  <time>2026-08-28T17:56:43Z</time>
  <course>0.0</course>
  <speed>0.0</speed>
  <fix>3d</fix>
</trkpt>
<trkpt lat="40.0713749" lon="-105.229789">
  <ele>1583.0</ele>
  <time>2026-08-28T17:56:43Z</time>
  <course>248.4</course>
  <speed>0.0</speed>
  <fix>3d</fix>
</trkpt>
<trkpt lat="40.0713749" lon="-105.229789">
  <ele>1583.0</ele>
  <time>2026-08-28T17:56:43Z</time>
  <course>0.0</course>
  <speed>0.0</speed>
  <fix>3d</fix>
</trkpt>
<trkpt lat="40.0713749" lon="-105.229789">
  <ele>1583.0</ele>
  <time>2026-08-28T17:56:43Z</time>
  <course>248.4</course>
  <speed>0.0</speed>
  <fix>3d</fix>
</trkpt>
<trkpt lat="40.0713749" lon="-105.229789">
  <ele>1583.0</ele>
  <time>2026-08-28T17:56:43Z</time>
  <course>0.0</course>
  <speed>0.0</speed>
  <fix>3d</fix>
</trkpt>
<trkpt lat="40.0713749" lon="-105.229789">
  <ele>1583.0</ele>
  <time>2026-08-28T17:56:43Z</time>
  <course>248.4</course>
  <speed>0.0</speed>
  <fix>3d</fix>
</trkpt>
<trkpt lat="40.0713749" lon="-105.229789">
  <ele>1583.0</ele>
  <time>2026-08-28T17:56:43Z</time>
  <course>0.0</course>
  <speed>0.0</speed>
  <fix>3d</fix>
</trkpt>
<trkpt lat="40.0713749" lon="-105.229789">
  <ele>1583.0</ele>
  <time>2026-08-28T17:56:43Z</time>
  <course>248.4</course>
  <speed>0.0</speed>
  <fix>3d</fix>
</trkpt>
<trkpt lat="40.0713749" lon="-105.229789">
  <ele>1583.0</ele>
  <time>2026-08-28T17:56:43Z</time>
  <course>0.0</course>
  <speed>0.0</speed>
  <fix>3d</fix>
</trkpt>
<trkpt lat="40.0713749" lon="-105.229789">
  <ele>1583.0</ele>
  <time>2026-08-28T17:56:43Z</time>
  <course>248.4</course>
  <speed>0.0</speed>
  <fix>3d</fix>
</trkpt>
<trkpt lat="40.0713749" lon="-105.229789">
  <ele>1583.0</ele>
  <time>2026-08-28T17:56:43Z</time>
  <course>0.0</course>
  <speed>0.0</speed>
  <fix>3d</fix>
</trkpt>
<trkpt lat="40.0713749" lon="-105.229789">
  <ele>1583.0</ele>
  <time>2026-08-28T17:56:43Z</time>
  <course>248.4</course>
  <speed>0.0</speed>
  <fix>3d</fix>
</trkpt>
<trkpt lat="40.0713749" lon="-105.229789">
  <ele>1583.0</ele>
  <time>2026-08-28T17:56:43Z</time>
  <course>0.0</course>
  <speed>0.0</speed>
  <fix>3d</fix>
</trkpt>
<trkpt lat="40.0713749" lon="-105.229789">
  <ele>1583.0</ele>
  <time>2026-08-28T17:56:43Z</time>
  <course>248.39</course>
  <speed>0.01</speed>
  <fix>3d</fix>
</trkpt>
<trkpt lat="40.0713749" lon="-105.229789">
  <ele>1583.0</ele>
  <time>2026-08-28T17:56:43Z</time>
  <course>0.0</course>
  <speed>0.0</speed>
  <fix>3d</fix>
</trkpt>
<trkpt lat="40.0713749" lon="-105.229789">
  <ele>1583.0</ele>
  <time>2026-08-28T17:56:43Z</time>
  <course>248.39</course>
  <speed>0.01</speed>
  <fix>3d</fix>
</trkpt>
<trkpt lat="40.0713749" lon="-105.229789">
  <ele>1583.0</ele>
  <time>2026-08-28T17:56:43Z</time>
  <course>0.0</course>
  <speed>0.0</speed>
  <fix>3d</fix>
</trkpt>
<trkpt lat="40.0713749" lon="-105.229789">
  <ele>1583.0</ele>
  <time>2026-08-28T17:56:43Z</time>
  <course>248.39</course>
  <speed>0.01</speed>
  <fix>3d</fix>
</trkpt>
<trkpt lat="40.0713749" lon="-105.229789">
  <ele>1583.0</ele>
  <time>2026-08-28T17:56:43Z</time>
  <course>0.0</course>
  <speed>0.0</speed>
  <fix>3d</fix>
</trkpt>
<trkpt lat="40.0713749" lon="-105.229789">
  <ele>1583.0</ele>
  <time>2026-08-28T17:56:43Z</time>
  <course>248.39</course>
  <speed>0.01</speed>
  <fix>3d</fix>
</trkpt>
<trkpt lat="40.0713749" lon="-105.229789">
  <ele>1583.0</ele>
  <time>2026-08-28T17:56:43Z</time>
  <course>0.0</course>
  <speed>0.0</speed>
  <fix>3d</fix>
</trkpt>
<trkpt lat="40.0713749" lon="-105.229789">
  <ele>1583.0</ele>
  <time>2026-08-28T17:56:43Z</time>
  <course>248.38</course>
  <speed>0.01</speed>
  <fix>3d</fix>
</trkpt>
<trkpt lat="40.0713749" lon="-105.229789">
  <ele>1583.0</ele>
  <time>2026-08-28T17:56:43Z</time>
  <course>0.0</course>
  <speed>0.0</speed>
  <fix>3d</fix>
</trkpt>
<trkpt lat="40.0713749" lon="-105.229789">
  <ele>1583.0</ele>
  <time>2026-08-28T17:56:43Z</time>
  <course>248.38</course>
  <speed>0.01</speed>
  <fix>3d</fix>
</trkpt>
<trkpt lat="40.0713749" lon="-105.229789">
  <ele>1583.0</ele>
  <time>2026-08-28T17:56:43Z</time>
  <course>0.0</course>
  <speed>0.0</speed>
  <fix>3d</fix>
</trkpt>
<trkpt lat="40.0713749" lon="-105.229789">
  <ele>1583.0</ele>
  <time>2026-08-28T17:56:43Z</time>
  <course>248.38</course>
  <speed>0.01</speed>
  <fix>3d</fix>
</trkpt>
<trkpt lat="40.0713749" lon="-105.229789">
  <ele>1583.0</ele>
  <time>2026-08-28T17:56:43Z</time>
  <course>0.0</course>
  <speed>0.0</speed>
  <fix>3d</fix>
</trkpt>
<trkpt lat="40.0713749" lon="-105.229789">
  <ele>1583.0</ele>
  <time>2026-08-28T17:56:43Z</time>
  <course>248.37</course>
  <speed>0.01</speed>
  <fix>3d</fix>
</trkpt>
<trkpt lat="40.0713749" lon="-105.229789">
  <ele>1583.0</ele>
  <time>2026-08-28T17:56:43Z</time>
  <course>0.0</course>
  <speed>0.0</speed>
  <fix>3d</fix>
</trkpt>
<trkpt lat="40.0713749" lon="-105.229789">
  <ele>1583.0</ele>
  <time>2026-08-28T17:56:43Z</time>
  <course>248.37</course>
  <speed>0.01</speed>
  <fix>3d</fix>
</trkpt>
<trkpt lat="40.0713749" lon="-105.229789">
  <ele>1583.0</ele>
  <time>2026-08-28T17:56:43Z</time>
  <course>0.0</course>
  <speed>0.0</speed>
  <fix>3d</fix>
</trkpt>
<trkpt lat="40.0713749" lon="-105.229789">
  <ele>1583.0</ele>
  <time>2026-08-28T17:56:43Z</time>
  <course>248.37</course>
  <speed>0.01</speed>
  <fix>3d</fix>
</trkpt>
<trkpt lat="40.0713749" lon="-105.229789">
  <ele>1583.0</ele>
  <time>2026-08-28T17:56:43Z</time>
  <course>0.0</course>
  <speed>0.0</speed>
  <fix>3d</fix>
</trkpt>
<trkpt lat="40.0713749" lon="-105.229789">
  <ele>1583.0</ele>
  <time>2026-08-28T17:56:43Z</time>
  <course>248.36</course>
  <speed>0.01</speed>
  <fix>3d</fix>
</trkpt>
<trkpt lat="40.0713749" lon="-105.229789">
  <ele>1583.0</ele>
  <time>2026-08-28T17:56:43Z</time>
  <course>0.0</course>
  <speed>0.0</speed>
  <fix>3d</fix>
</trkpt>
<trkpt lat="40.0713749" lon="-105.229789">
  <ele>1583.0</ele>
  <time>2026-08-28T17:56:43Z</time>
  <course>248.36</course>
  <speed>0.01</speed>
  <fix>3d</fix>
</trkpt>
<trkpt lat="40.0713749" lon="-105.229789">
  <ele>1583.0</ele>
  <time>2026-08-28T17:56:43Z</time>
  <course>0.0</course>
  <speed>0.0</speed>
  <fix>3d</fix>
</trkpt>
<trkpt lat="40.0713749" lon="-105.229789">
  <ele>1583.0</ele>
  <time>2026-08-28T17:56:43Z</time>
  <course>248.36</course>
  <speed>0.01</speed>
  <fix>3d</fix>
</trkpt>
<trkpt lat="40.0713749" lon="-105.229789">
  <ele>1583.0</ele>
  <time>2026-08-28T17:56:43Z</time>
  <course>0.0</course>
  <speed>0.0</speed>
  <fix>3d</fix>
</trkpt>
<trkpt lat="40.0713749" lon="-105.229789">
  <ele>1583.0</ele>
  <time>2026-08-28T17:56:43Z</time>
  <course>248.35</course>
  <speed>0.01</speed>
  <fix>3d</fix>
</trkpt>
<trkpt lat="40.0713749" lon="-105.229789">
  <ele>1583.0</ele>
  <time>2026-08-28T17:56:43Z</time>
  <course>0.0</course>
  <speed>0.0</speed>
  <fix>3d</fix>
</trkpt>
<trkpt lat="40.0713749" lon="-105.229789">
  <ele>1583.0</ele>
  <time>2026-08-28T17:56:43Z</time>
  <course>248.35</course>
  <speed>0.01</speed>
  <fix>3d</fix>
</trkpt>
<trkpt lat="40.0713749" lon="-105.229789">
  <ele>1583.0</ele>
  <time>2026-08-28T17:56:43Z</time>
  <course>0.0</course>
  <speed>0.0</speed>
  <fix>3d</fix>
</trkpt>
<trkpt lat="40.0713749" lon="-105.229789">
  <ele>1583.0</ele>
  <time>2026-08-28T17:56:43Z</time>
  <course>248.35</course>
  <speed>0.01</speed>
  <fix>3d</fix>
</trkpt>
<trkpt lat="40.0713749" lon="-105.229789">
  <ele>1583.0</ele>
  <time>2026-08-28T17:56:43Z</time>
  <course>0.0</course>
  <speed>0.0</speed>
  <fix>3d</fix>
</trkpt>
<trkpt lat="40.0713749" lon="-105.229789">
  <ele>1583.0</ele>
  <time>2026-08-28T17:56:43Z</time>
  <course>248.34</course>
  <speed>0.01</speed>
  <fix>3d</fix>
</trkpt>
<trkpt lat="40.0713749" lon="-105.229789">
  <ele>1583.0</ele>
  <time>2026-08-28T17:56:43Z</time>
  <course>0.0</course>
  <speed>0.0</speed>
  <fix>3d</fix>
</trkpt>
<trkpt lat="40.0713749" lon="-105.229789">
  <ele>1583.0</ele>
  <time>2026-08-28T17:56:43Z</time>
  <course>248.34</course>
  <speed>0.01</speed>
  <fix>3d</fix>
</trkpt>
<trkpt lat="40.0713749" lon="-105.229789">
  <ele>1583.0</ele>
  <time>2026-08-28T17:56:43Z</time>
  <course>0.0</course>
  <speed>0.0</speed>
  <fix>3d</fix>
</trkpt>
<trkpt lat="40.0713749" lon="-105.229789">
  <ele>1583.0</ele>
  <time>2026-08-28T17:56:43Z</time>
  <course>248.34</course>
  <speed>0.01</speed>
  <fix>3d</fix>
</trkpt>
<trkpt lat="40.0713749" lon="-105.229789">
  <ele>1583.0</ele>
  <time>2026-08-28T17:56:43Z</time>
  <course>0.0</course>
  <speed>0.0</speed>
  <fix>3d</fix>
</trkpt>
<trkpt lat="40.0713749" lon="-105.229789">
  <ele>1583.0</ele>
  <time>2026-08-28T17:56:43Z</time>
  <course>248.33</course>
  <speed>0.01</speed>
  <fix>3d</fix>
</trkpt>
<trkpt lat="40.0713749" lon="-105.229789">
  <ele>1583.0</ele>
  <time>2026-08-28T17:56:43Z</time>
  <course>0.0</course>
  <speed>0.0</speed>
  <fix>3d</fix>
</trkpt>
<trkpt lat="40.0713749" lon="-105.229789">
  <ele>1583.0</ele>
  <time>2026-08-28T17:56:43Z</time>
  <course>248.33</course>
  <speed>0.01</speed>
  <fix>3d</fix>
</trkpt>
<trkpt lat="40.0713749" lon="-105.229789">
  <ele>1583.0</ele>
  <time>2026-08-28T17:56:43Z</time>
  <course>0.0</course>
  <speed>0.0</speed>
  <fix>3d</fix>
</trkpt>
<trkpt lat="40.0713749" lon="-105.229789">
  <ele>1583.0</ele>
  <time>2026-08-28T17:56:43Z</time>
  <course>248.32</course>
  <speed>0.01</speed>
  <fix>3d</fix>
</trkpt>
<trkpt lat="40.0713749" lon="-105.229789">
  <ele>1583.0</ele>
  <time>2026-08-28T17:56:43Z</time>
  <course>0.0</course>
  <speed>0.0</speed>
  <fix>3d</fix>
</trkpt>
<trkpt lat="40.0713749" lon="-105.229789">
  <ele>1583.0</ele>
  <time>2026-08-28T17:56:43Z</time>
  <course>248.32</course>
  <speed>0.01</speed>
  <fix>3d</fix>
</trkpt>
<trkpt lat="40.0713749" lon="-105.229789">
  <ele>1583.0</ele>
  <time>2026-08-28T17:56:43Z</time>
  <course>0.0</course>
  <speed>0.0</speed>
  <fix>3d</fix>
</trkpt>
<trkpt lat="40.0713749" lon="-105.229789">
  <ele>1583.0</ele>
  <time>2026-08-28T17:56:43Z</time>
  <course>248.31</course>
  <speed>0.01</speed>
  <fix>3d</fix>
</trkpt>
<trkpt lat="40.0713749" lon="-105.229789">
  <ele>1583.0</ele>
  <time>2026-08-28T17:56:43Z</time>
  <course>0.0</course>
  <speed>0.0</speed>
  <fix>3d</fix>
</trkpt>
<trkpt lat="40.0713749" lon="-105.229789">
  <ele>1583.0</ele>
  <time>2026-08-28T17:56:43Z</time>
  <course>248.31</course>
  <speed>0.01</speed>
  <fix>3d</fix>
</trkpt>
<trkpt lat="40.0713749" lon="-105.229789">
  <ele>1583.0</ele>
  <time>2026-08-28T17:56:43Z</time>
  <course>0.0</course>
  <speed>0.0</speed>
  <fix>3d</fix>
</trkpt>
<trkpt lat="40.0713749" lon="-105.229789">
  <ele>1583.0</ele>
  <time>2026-08-28T17:56:43Z</time>
  <course>248.31</course>
  <speed>0.01</speed>
  <fix>3d</fix>
</trkpt>
<trkpt lat="40.0713749" lon="-105.229789">
  <ele>1583.0</ele>
  <time>2026-08-28T17:56:43Z</time>
  <course>0.0</course>
  <speed>0.0</speed>
  <fix>3d</fix>
</trkpt>
<trkpt lat="40.0713749" lon="-105.229789">
  <ele>1583.0</ele>
  <time>2026-08-28T17:56:43Z</time>
  <course>248.3</course>
  <speed>0.01</speed>
  <fix>3d</fix>
</trkpt>
<trkpt lat="40.0713749" lon="-105.229789">
  <ele>1583.0</ele>
  <time>2026-08-28T17:56:43Z</time>
  <course>0.0</course>
  <speed>0.0</speed>
  <fix>3d</fix>
</trkpt>
<trkpt lat="40.0713749" lon="-105.229789">
  <ele>1583.0</ele>
  <time>2026-08-28T17:56:43Z</time>
  <course>248.3</course>
  <speed>0.01</speed>
  <fix>3d</fix>
</trkpt>
<trkpt lat="40.0713749" lon="-105.229789">
  <ele>1583.0</ele>
  <time>2026-08-28T17:56:43Z</time>
  <course>0.0</course>
  <speed>0.0</speed>
  <fix>3d</fix>
</trkpt>
<trkpt lat="40.0713749" lon="-105.229789">
  <ele>1583.0</ele>
  <time>2026-08-28T17:56:44Z</time>
  <course>248.29</course>
  <speed>0.01</speed>
  <fix>3d</fix>
</trkpt>
<trkpt lat="40.0713749" lon="-105.229789">
  <ele>1583.0</ele>
  <time>2026-08-28T17:56:44Z</time>
  <course>0.0</course>
  <speed>0.0</speed>
  <fix>3d</fix>
</trkpt>
<trkpt lat="40.0713749" lon="-105.229789">
  <ele>1583.0</ele>
  <time>2026-08-28T17:56:44Z</time>
  <course>248.29</course>
  <speed>0.01</speed>
  <fix>3d</fix>
</trkpt>
<trkpt lat="40.0713749" lon="-105.229789">
  <ele>1583.0</ele>
  <time>2026-08-28T17:56:44Z</time>
  <course>0.0</course>
  <speed>0.0</speed>
  <fix>3d</fix>
</trkpt>
<trkpt lat="40.0713749" lon="-105.229789">
  <ele>1583.0</ele>
  <time>2026-08-28T17:56:44Z</time>
  <course>248.28</course>
  <speed>0.01</speed>
  <fix>3d</fix>
</trkpt>
<trkpt lat="40.0713749" lon="-105.229789">
  <ele>1583.0</ele>
  <time>2026-08-28T17:56:44Z</time>
  <course>0.0</course>
  <speed>0.0</speed>
  <fix>3d</fix>
</trkpt>
<trkpt lat="40.0713749" lon="-105.229789">
  <ele>1583.0</ele>
  <time>2026-08-28T17:56:44Z</time>
  <course>248.28</course>
  <speed>0.01</speed>
  <fix>3d</fix>
</trkpt>
<trkpt lat="40.0713749" lon="-105.229789">
  <ele>1583.0</ele>
  <time>2026-08-28T17:56:44Z</time>
  <course>0.0</course>
  <speed>0.0</speed>
  <fix>3d</fix>
</trkpt>
<trkpt lat="40.0713749" lon="-105.229789">
  <ele>1583.0</ele>
  <time>2026-08-28T17:56:44Z</time>
  <course>248.27</course>
  <speed>0.01</speed>
  <fix>3d</fix>
</trkpt>
<trkpt lat="40.0713749" lon="-105.229789">
  <ele>1583.0</ele>
  <time>2026-08-28T17:56:44Z</time>
  <course>0.0</course>
  <speed>0.0</speed>
  <fix>3d</fix>
</trkpt>
<trkpt lat="40.0713749" lon="-105.229789">
  <ele>1583.0</ele>
  <time>2026-08-28T17:56:44Z</time>
  <course>248.27</course>
  <speed>0.01</speed>
  <fix>3d</fix>
</trkpt>
<trkpt lat="40.0713749" lon="-105.229789">
  <ele>1583.0</ele>
  <time>2026-08-28T17:56:44Z</time>
  <course>0.0</course>
  <speed>0.0</speed>
  <fix>3d</fix>
</trkpt>
<trkpt lat="40.0713749" lon="-105.229789">
  <ele>1583.0</ele>
  <time>2026-08-28T17:56:44Z</time>
  <course>248.26</course>
  <speed>0.01</speed>
  <fix>3d</fix>
</trkpt>
<trkpt lat="40.0713749" lon="-105.229789">
  <ele>1583.0</ele>
  <time>2026-08-28T17:56:44Z</time>
  <course>0.0</course>
  <speed>0.0</speed>
  <fix>3d</fix>
</trkpt>
<trkpt lat="40.0713749" lon="-105.229789">
  <ele>1583.0</ele>
  <time>2026-08-28T17:56:44Z</time>
  <course>248.26</course>
  <speed>0.01</speed>
  <fix>3d</fix>
</trkpt>
<trkpt lat="40.0713749" lon="-105.229789">
  <ele>1583.0</ele>
  <time>2026-08-28T17:56:44Z</time>
  <course>0.0</course>
  <speed>0.0</speed>
  <fix>3d</fix>
</trkpt>
<trkpt lat="40.0713749" lon="-105.229789">
  <ele>1583.0</ele>
  <time>2026-08-28T17:56:44Z</time>
  <course>248.25</course>
  <speed>0.01</speed>
  <fix>3d</fix>
</trkpt>
<trkpt lat="40.0713749" lon="-105.229789">
  <ele>1583.0</ele>
  <time>2026-08-28T17:56:44Z</time>
  <course>0.0</course>
  <speed>0.0</speed>
  <fix>3d</fix>
</trkpt>
<trkpt lat="40.0713749" lon="-105.229789">
  <ele>1583.0</ele>
  <time>2026-08-28T17:56:44Z</time>
  <course>248.25</course>
  <speed>0.01</speed>
  <fix>3d</fix>
</trkpt>
<trkpt lat="40.0713749" lon="-105.229789">
  <ele>1583.0</ele>
  <time>2026-08-28T17:56:44Z</time>
  <course>0.0</course>
  <speed>0.0</speed>
  <fix>3d</fix>
</trkpt>
<trkpt lat="40.0713749" lon="-105.229789">
  <ele>1583.0</ele>
  <time>2026-08-28T17:56:44Z</time>
  <course>248.25</course>
  <speed>0.01</speed>
  <fix>3d</fix>
</trkpt>
<trkpt lat="40.0713749" lon="-105.229789">
  <ele>1583.0</ele>
  <time>2026-08-28T17:56:44Z</time>
  <course>0.0</course>
  <speed>0.0</speed>
  <fix>3d</fix>
</trkpt>
<trkpt lat="40.0713749" lon="-105.229789">
  <ele>1583.0</ele>
  <time>2026-08-28T17:56:44Z</time>
  <course>248.24</course>
  <speed>0.01</speed>
  <fix>3d</fix>
</trkpt>
<trkpt lat="40.0713749" lon="-105.229789">
  <ele>1583.0</ele>
  <time>2026-08-28T17:56:44Z</time>
  <course>0.0</course>
  <speed>0.0</speed>
  <fix>3d</fix>
</trkpt>
<trkpt lat="40.0713749" lon="-105.229789">
  <ele>1583.0</ele>
  <time>2026-08-28T17:56:44Z</time>
  <course>248.24</course>
  <speed>0.01</speed>
  <fix>3d</fix>
</trkpt>
<trkpt lat="40.0713749" lon="-105.229789">
  <ele>1583.0</ele>
  <time>2026-08-28T17:56:44Z</time>
  <course>0.0</course>
  <speed>0.0</speed>
  <fix>3d</fix>
</trkpt>
<trkpt lat="40.0713749" lon="-105.229789">
  <ele>1583.0</ele>
  <time>2026-08-28T17:56:44Z</time>
  <course>248.23</course>
  <speed>0.01</speed>
  <fix>3d</fix>
</trkpt>
<trkpt lat="40.0713749" lon="-105.229789">
  <ele>1583.0</ele>
  <time>2026-08-28T17:56:44Z</time>
  <course>0.0</course>
  <speed>0.0</speed>
  <fix>3d</fix>
</trkpt>
<trkpt lat="40.0713749" lon="-105.229789">
  <ele>1583.0</ele>
  <time>2026-08-28T17:56:44Z</time>
  <course>248.23</course>
  <speed>0.01</speed>
  <fix>3d</fix>
</trkpt>
<trkpt lat="40.0713749" lon="-105.229789">
  <ele>1583.0</ele>
  <time>2026-08-28T17:56:44Z</time>
  <course>0.0</course>
  <speed>0.0</speed>
  <fix>3d</fix>
</trkpt>
<trkpt lat="40.0713749" lon="-105.229789">
  <ele>1583.0</ele>
  <time>2026-08-28T17:56:44Z</time>
  <course>248.22</course>
  <speed>0.01</speed>
  <fix>3d</fix>
</trkpt>
<trkpt lat="40.0713749" lon="-105.229789">
  <ele>1583.0</ele>
  <time>2026-08-28T17:56:44Z</time>
  <course>0.0</course>
  <speed>0.0</speed>
  <fix>3d</fix>
</trkpt>
<trkpt lat="40.0713749" lon="-105.229789">
  <ele>1583.0</ele>
  <time>2026-08-28T17:56:44Z</time>
  <course>248.22</course>
  <speed>0.01</speed>
  <fix>3d</fix>
</trkpt>
<trkpt lat="40.0713749" lon="-105.229789">
  <ele>1583.0</ele>
  <time>2026-08-28T17:56:44Z</time>
  <course>0.0</course>
  <speed>0.0</speed>
  <fix>3d</fix>
</trkpt>
<trkpt lat="40.0713749" lon="-105.229789">
  <ele>1583.0</ele>
  <time>2026-08-28T17:56:44Z</time>
  <course>248.21</course>
  <speed>0.01</speed>
  <fix>3d</fix>
</trkpt>
<trkpt lat="40.0713749" lon="-105.229789">
  <ele>1583.0</ele>
  <time>2026-08-28T17:56:44Z</time>
  <course>0.0</course>
  <speed>0.0</speed>
  <fix>3d</fix>
</trkpt>
<trkpt lat="40.0713749" lon="-105.229789">
  <ele>1583.0</ele>
  <time>2026-08-28T17:56:44Z</time>
  <course>248.21</course>
  <speed>0.01</speed>
  <fix>3d</fix>
</trkpt>
<trkpt lat="40.0713749" lon="-105.229789">
  <ele>1583.0</ele>
  <time>2026-08-28T17:56:44Z</time>
  <course>0.0</course>
  <speed>0.0</speed>
  <fix>3d</fix>
</trkpt>
<trkpt lat="40.0713749" lon="-105.229789">
  <ele>1583.0</ele>
  <time>2026-08-28T17:56:44Z</time>
  <course>248.2</course>
  <speed>0.01</speed>
  <fix>3d</fix>
</trkpt>
<trkpt lat="40.0713749" lon="-105.229789">
  <ele>1583.0</ele>
  <time>2026-08-28T17:56:44Z</time>
  <course>0.0</course>
  <speed>0.0</speed>
  <fix>3d</fix>
</trkpt>
<trkpt lat="40.0713749" lon="-105.229789">
  <ele>1583.0</ele>
  <time>2026-08-28T17:56:44Z</time>
  <course>248.2</course>
  <speed>0.01</speed>
  <fix>3d</fix>
</trkpt>
<trkpt lat="40.0713749" lon="-105.229789">
  <ele>1583.0</ele>
  <time>2026-08-28T17:56:44Z</time>
  <course>0.0</course>
  <speed>0.0</speed>
  <fix>3d</fix>
</trkpt>
<trkpt lat="40.0713749" lon="-105.229789">
  <ele>1583.0</ele>
  <time>2026-08-28T17:56:44Z</time>
  <course>248.19</course>
  <speed>0.01</speed>
  <fix>3d</fix>
</trkpt>
<trkpt lat="40.0713749" lon="-105.229789">
  <ele>1583.0</ele>
  <time>2026-08-28T17:56:44Z</time>
  <course>0.0</course>
  <speed>0.0</speed>
  <fix>3d</fix>
</trkpt>
<trkpt lat="40.0713749" lon="-105.229789">
  <ele>1583.0</ele>
  <time>2026-08-28T17:56:44Z</time>
  <course>248.19</course>
  <speed>0.01</speed>
  <fix>3d</fix>
</trkpt>
<trkpt lat="40.0713749" lon="-105.229789">
  <ele>1583.0</ele>
  <time>2026-08-28T17:56:44Z</time>
  <course>0.0</course>
  <speed>0.0</speed>
  <fix>3d</fix>
</trkpt>
<trkpt lat="40.0713749" lon="-105.229789">
  <ele>1583.0</ele>
  <time>2026-08-28T17:56:44Z</time>
  <course>248.18</course>
  <speed>0.01</speed>
  <fix>3d</fix>
</trkpt>
<trkpt lat="40.0713749" lon="-105.229789">
  <ele>1583.0</ele>
  <time>2026-08-28T17:56:44Z</time>
  <course>0.0</course>
  <speed>0.0</speed>
  <fix>3d</fix>
</trkpt>
<trkpt lat="40.0713749" lon="-105.229789">
  <ele>1583.0</ele>
  <time>2026-08-28T17:56:44Z</time>
  <course>248.18</course>
  <speed>0.01</speed>
  <fix>3d</fix>
</trkpt>
<trkpt lat="40.0713749" lon="-105.229789">
  <ele>1583.0</ele>
  <time>2026-08-28T17:56:44Z</time>
  <course>0.0</course>
  <speed>0.0</speed>
  <fix>3d</fix>
</trkpt>
<trkpt lat="40.0713749" lon="-105.229789">
  <ele>1583.0</ele>
  <time>2026-08-28T17:56:44Z</time>
  <course>248.17</course>
  <speed>0.01</speed>
  <fix>3d</fix>
</trkpt>
<trkpt lat="40.0713749" lon="-105.229789">
  <ele>1583.0</ele>
  <time>2026-08-28T17:56:44Z</time>
  <course>0.0</course>
  <speed>0.0</speed>
  <fix>3d</fix>
</trkpt>
<trkpt lat="40.0713749" lon="-105.229789">
  <ele>1583.0</ele>
  <time>2026-08-28T17:56:44Z</time>
  <course>248.17</course>
  <speed>0.02</speed>
  <fix>3d</fix>
</trkpt>
<trkpt lat="40.0713749" lon="-105.229789">
  <ele>1583.0</ele>
  <time>2026-08-28T17:56:44Z</time>
  <course>0.0</course>
  <speed>0.0</speed>
  <fix>3d</fix>
</trkpt>
<trkpt lat="40.0713749" lon="-105.229789">
  <ele>1583.0</ele>
  <time>2026-08-28T17:56:44Z</time>
  <course>248.16</course>
  <speed>0.02</speed>
  <fix>3d</fix>
</trkpt>
<trkpt lat="40.0713749" lon="-105.229789">
  <ele>1583.0</ele>
  <time>2026-08-28T17:56:44Z</time>
  <course>0.0</course>
  <speed>0.0</speed>
  <fix>3d</fix>
</trkpt>
<trkpt lat="40.0713749" lon="-105.229789">
  <ele>1583.0</ele>
  <time>2026-08-28T17:56:44Z</time>
  <course>248.16</course>
  <speed>0.022360679774997897</speed>
  <fix>3d</fix>
</trkpt>
<trkpt lat="40.0713749" lon="-105.229789">
  <ele>1583.0</ele>
  <time>2026-08-28T17:56:44Z</time>
  <course>0.0</course>
  <speed>0.0</speed>
  <fix>3d</fix>
</trkpt>
<trkpt lat="40.0713749" lon="-105.229789">
  <ele>1583.0</ele>
  <time>2026-08-28T17:56:44Z</time>
  <course>248.15</course>
  <speed>0.022360679774997897</speed>
  <fix>3d</fix>
</trkpt>
<trkpt lat="40.0713749" lon="-105.229789">
  <ele>1583.0</ele>
  <time>2026-08-28T17:56:44Z</time>
  <course>0.0</course>
  <speed>0.0</speed>
  <fix>3d</fix>
</trkpt>
<trkpt lat="40.0713749" lon="-105.229789">
  <ele>1583.0</ele>
  <time>2026-08-28T17:56:44Z</time>
  <course>248.15</course>
  <speed>0.022360679774997897</speed>
  <fix>3d</fix>
</trkpt>
<trkpt lat="40.0713749" lon="-105.229789">
  <ele>1583.0</ele>
  <time>2026-08-28T17:56:44Z</time>
  <course>0.0</course>
  <speed>0.0</speed>
  <fix>3d</fix>
</trkpt>
<trkpt lat="40.0713749" lon="-105.229789">
  <ele>1583.0</ele>
  <time>2026-08-28T17:56:44Z</time>
  <course>248.14</course>
  <speed>0.022360679774997897</speed>
  <fix>3d</fix>
</trkpt>
<trkpt lat="40.0713749" lon="-105.229789">
  <ele>1583.0</ele>
  <time>2026-08-28T17:56:44Z</time>
  <course>0.0</course>
  <speed>0.0</speed>
  <fix>3d</fix>
</trkpt>
<trkpt lat="40.0713749" lon="-105.229789">
  <ele>1583.0</ele>
  <time>2026-08-28T17:56:44Z</time>
  <course>248.14</course>
  <speed>0.022360679774997897</speed>
  <fix>3d</fix>
</trkpt>
<trkpt lat="40.0713749" lon="-105.229789">
  <ele>1583.0</ele>
  <time>2026-08-28T17:56:44Z</time>
  <course>0.0</course>
  <speed>0.0</speed>
  <fix>3d</fix>
</trkpt>
<trkpt lat="40.0713749" lon="-105.229789">
  <ele>1583.0</ele>
  <time>2026-08-28T17:56:44Z</time>
  <course>248.13</course>
  <speed>0.022360679774997897</speed>
  <fix>3d</fix>
</trkpt>
<trkpt lat="40.0713749" lon="-105.229789">
  <ele>1583.0</ele>
  <time>2026-08-28T17:56:44Z</time>
  <course>0.0</course>
  <speed>0.0</speed>
  <fix>3d</fix>
</trkpt>
<trkpt lat="40.0713749" lon="-105.229789">
  <ele>1583.0</ele>
  <time>2026-08-28T17:56:44Z</time>
  <course>248.13</course>
  <speed>0.022360679774997897</speed>
  <fix>3d</fix>
</trkpt>
<trkpt lat="40.0713749" lon="-105.229789">
  <ele>1583.0</ele>
  <time>2026-08-28T17:56:44Z</time>
  <course>0.0</course>
  <speed>0.0</speed>
  <fix>3d</fix>
</trkpt>
<trkpt lat="40.0713749" lon="-105.229789">
  <ele>1583.0</ele>
  <time>2026-08-28T17:56:44Z</time>
  <course>248.12</course>
  <speed>0.022360679774997897</speed>
  <fix>3d</fix>
</trkpt>
<trkpt lat="40.0713749" lon="-105.229789">
  <ele>1583.0</ele>
  <time>2026-08-28T17:56:44Z</time>
  <course>0.0</course>
  <speed>0.0</speed>
  <fix>3d</fix>
</trkpt>
<trkpt lat="40.0713749" lon="-105.229789">
  <ele>1583.0</ele>
  <time>2026-08-28T17:56:44Z</time>
  <course>248.12</course>
  <speed>0.022360679774997897</speed>
  <fix>3d</fix>
</trkpt>
<trkpt lat="40.0713749" lon="-105.229789">
  <ele>1583.0</ele>
  <time>2026-08-28T17:56:44Z</time>
  <course>0.0</course>
  <speed>0.0</speed>
  <fix>3d</fix>
</trkpt>
<trkpt lat="40.0713749" lon="-105.229789">
  <ele>1583.0</ele>
  <time>2026-08-28T17:56:44Z</time>
  <course>248.11</course>
  <speed>0.022360679774997897</speed>
  <fix>3d</fix>
</trkpt>
<trkpt lat="40.0713749" lon="-105.229789">
  <ele>1583.0</ele>
  <time>2026-08-28T17:56:44Z</time>
  <course>0.0</course>
  <speed>0.0</speed>
  <fix>3d</fix>
</trkpt>
<trkpt lat="40.0713749" lon="-105.229789">
  <ele>1583.0</ele>
  <time>2026-08-28T17:56:44Z</time>
  <course>248.11</course>
  <speed>0.022360679774997897</speed>
  <fix>3d</fix>
</trkpt>
<trkpt lat="40.0713749" lon="-105.229789">
  <ele>1583.0</ele>
  <time>2026-08-28T17:56:44Z</time>
  <course>0.0</course>
  <speed>0.0</speed>
  <fix>3d</fix>
</trkpt>
<trkpt lat="40.0713749" lon="-105.229789">
  <ele>1583.0</ele>
  <time>2026-08-28T17:56:44Z</time>
  <course>248.1</course>
  <speed>0.022360679774997897</speed>
  <fix>3d</fix>
</trkpt>
<trkpt lat="40.0713749" lon="-105.229789">
  <ele>1583.0</ele>
  <time>2026-08-28T17:56:44Z</time>
  <course>0.0</course>
  <speed>0.0</speed>
  <fix>3d</fix>
</trkpt>
<trkpt lat="40.0713749" lon="-105.229789">
  <ele>1583.0</ele>
  <time>2026-08-28T17:56:44Z</time>
  <course>248.1</course>
  <speed>0.022360679774997897</speed>
  <fix>3d</fix>
</trkpt>
<trkpt lat="40.0713749" lon="-105.229789">
  <ele>1583.0</ele>
  <time>2026-08-28T17:56:44Z</time>
  <course>0.0</course>
  <speed>0.0</speed>
  <fix>3d</fix>
</trkpt>
<trkpt lat="40.0713749" lon="-105.229789">
  <ele>1583.0</ele>
  <time>2026-08-28T17:56:44Z</time>
  <course>248.09</course>
  <speed>0.022360679774997897</speed>
  <fix>3d</fix>
</trkpt>
<trkpt lat="40.0713749" lon="-105.229789">
  <ele>1583.0</ele>
  <time>2026-08-28T17:56:44Z</time>
  <course>0.0</course>
  <speed>0.0</speed>
  <fix>3d</fix>
</trkpt>
<trkpt lat="40.0713749" lon="-105.229789">
  <ele>1583.0</ele>
  <time>2026-08-28T17:56:44Z</time>
  <course>248.09</course>
  <speed>0.022360679774997897</speed>
  <fix>3d</fix>
</trkpt>
<trkpt lat="40.0713749" lon="-105.229789">
  <ele>1583.0</ele>
  <time>2026-08-28T17:56:44Z</time>
  <course>0.0</course>
  <speed>0.0</speed>
  <fix>3d</fix>
</trkpt>
<trkpt lat="40.0713749" lon="-105.229789">
  <ele>1583.0</ele>
  <time>2026-08-28T17:56:44Z</time>
  <course>248.08</course>
  <speed>0.022360679774997897</speed>
  <fix>3d</fix>
</trkpt>
<trkpt lat="40.0713749" lon="-105.229789">
  <ele>1583.0</ele>
  <time>2026-08-28T17:56:44Z</time>
  <course>0.0</course>
  <speed>0.0</speed>
  <fix>3d</fix>
</trkpt>
<trkpt lat="40.0713749" lon="-105.229789">
  <ele>1583.0</ele>
  <time>2026-08-28T17:56:44Z</time>
  <course>248.08</course>
  <speed>0.022360679774997897</speed>
  <fix>3d</fix>
</trkpt>
<trkpt lat="40.0713749" lon="-105.229789">
  <ele>1583.0</ele>
  <time>2026-08-28T17:56:44Z</time>
  <course>0.0</course>
  <speed>0.0</speed>
  <fix>3d</fix>
</trkpt>
<trkpt lat="40.0713749" lon="-105.229789">
  <ele>1583.0</ele>
  <time>2026-08-28T17:56:44Z</time>
  <course>248.07</course>
  <speed>0.022360679774997897</speed>
  <fix>3d</fix>
</trkpt>
<trkpt lat="40.0713749" lon="-105.229789">
  <ele>1583.0</ele>
  <time>2026-08-28T17:56:44Z</time>
  <course>0.0</course>
  <speed>0.0</speed>
  <fix>3d</fix>
</trkpt>
<trkpt lat="40.0713749" lon="-105.229789">
  <ele>1583.0</ele>
  <time>2026-08-28T17:56:44Z</time>
  <course>248.07</course>
  <speed>0.022360679774997897</speed>
  <fix>3d</fix>
</trkpt>
<trkpt lat="40.0713749" lon="-105.229789">
  <ele>1583.0</ele>
  <time>2026-08-28T17:56:44Z</time>
  <course>0.0</course>
  <speed>0.0</speed>
  <fix>3d</fix>
</trkpt>
<trkpt lat="40.0713749" lon="-105.229789">
  <ele>1583.0</ele>
  <time>2026-08-28T17:56:44Z</time>
  <course>248.06</course>
  <speed>0.022360679774997897</speed>
  <fix>3d</fix>
</trkpt>
<trkpt lat="40.0713749" lon="-105.229789">
  <ele>1583.0</ele>
  <time>2026-08-28T17:56:44Z</time>
  <course>0.0</course>
  <speed>0.0</speed>
  <fix>3d</fix>
</trkpt>
<trkpt lat="40.0713749" lon="-105.229789">
  <ele>1583.0</ele>
  <time>2026-08-28T17:56:44Z</time>
  <course>248.06</course>
  <speed>0.022360679774997897</speed>
  <fix>3d</fix>
</trkpt>
<trkpt lat="40.0713749" lon="-105.229789">
  <ele>1583.0</ele>
  <time>2026-08-28T17:56:44Z</time>
  <course>0.0</course>
  <speed>0.0</speed>
  <fix>3d</fix>
</trkpt>
<trkpt lat="40.0713749" lon="-105.229789">
  <ele>1583.0</ele>
  <time>2026-08-28T17:56:44Z</time>
  <course>248.06</course>
  <speed>0.022360679774997897</speed>
  <fix>3d</fix>
</trkpt>
<trkpt lat="40.0713749" lon="-105.229789">
  <ele>1583.0</ele>
  <time>2026-08-28T17:56:44Z</time>
  <course>0.0</course>
  <speed>0.0</speed>
  <fix>3d</fix>
</trkpt>
<trkpt lat="40.0713749" lon="-105.229789">
  <ele>1583.0</ele>
  <time>2026-08-28T17:56:44Z</time>
  <course>248.05</course>
  <speed>0.022360679774997897</speed>
  <fix>3d</fix>
</trkpt>
<trkpt lat="40.0713749" lon="-105.229789">
  <ele>1583.0</ele>
  <time>2026-08-28T17:56:44Z</time>
  <course>0.0</course>
  <speed>0.0</speed>
  <fix>3d</fix>
</trkpt>
<trkpt lat="40.0713749" lon="-105.229789">
  <ele>1583.0</ele>
  <time>2026-08-28T17:56:44Z</time>
  <course>248.05</course>
  <speed>0.022360679774997897</speed>
  <fix>3d</fix>
</trkpt>
<trkpt lat="40.0713749" lon="-105.229789">
  <ele>1583.0</ele>
  <time>2026-08-28T17:56:44Z</time>
  <course>0.0</course>
  <speed>0.0</speed>
  <fix>3d</fix>
</trkpt>
<trkpt lat="40.0713749" lon="-105.229789">
  <ele>1583.0</ele>
  <time>2026-08-28T17:56:44Z</time>
  <course>248.04</course>
  <speed>0.022360679774997897</speed>
  <fix>3d</fix>
</trkpt>
<trkpt lat="40.0713749" lon="-105.229789">
  <ele>1583.0</ele>
  <time>2026-08-28T17:56:44Z</time>
  <course>0.0</course>
  <speed>0.0</speed>
  <fix>3d</fix>
</trkpt>
<trkpt lat="40.0713749" lon="-105.229789">
  <ele>1583.0</ele>
  <time>2026-08-28T17:56:44Z</time>
  <course>248.04</course>
  <speed>0.022360679774997897</speed>
  <fix>3d</fix>
</trkpt>
<trkpt lat="40.0713749" lon="-105.229789">
  <ele>1583.0</ele>
  <time>2026-08-28T17:56:44Z</time>
  <course>0.0</course>
  <speed>0.0</speed>
  <fix>3d</fix>
</trkpt>
<trkpt lat="40.0713749" lon="-105.229789">
  <ele>1583.0</ele>
  <time>2026-08-28T17:56:44Z</time>
  <course>248.03</course>
  <speed>0.022360679774997897</speed>
  <fix>3d</fix>
</trkpt>
<trkpt lat="40.0713749" lon="-105.229789">
  <ele>1583.0</ele>
  <time>2026-08-28T17:56:44Z</time>
  <course>0.0</course>
  <speed>0.0</speed>
  <fix>3d</fix>
</trkpt>
<trkpt lat="40.0713749" lon="-105.229789">
  <ele>1583.0</ele>
  <time>2026-08-28T17:56:44Z</time>
  <course>248.03</course>
  <speed>0.022360679774997897</speed>
  <fix>3d</fix>
</trkpt>
<trkpt lat="40.0713749" lon="-105.229789">
  <ele>1583.0</ele>
  <time>2026-08-28T17:56:44Z</time>
  <course>0.0</course>
  <speed>0.0</speed>
  <fix>3d</fix>
</trkpt>
<trkpt lat="40.0713749" lon="-105.229789">
  <ele>1583.0</ele>
  <time>2026-08-28T17:56:44Z</time>
  <course>248.02</course>
  <speed>0.022360679774997897</speed>
  <fix>3d</fix>
</trkpt>
<trkpt lat="40.0713749" lon="-105.229789">
  <ele>1583.0</ele>
  <time>2026-08-28T17:56:44Z</time>
  <course>0.0</course>
  <speed>0.0</speed>
  <fix>3d</fix>
</trkpt>
<trkpt lat="40.0713749" lon="-105.229789">
  <ele>1583.0</ele>
  <time>2026-08-28T17:56:44Z</time>
  <course>248.02</course>
  <speed>0.022360679774997897</speed>
  <fix>3d</fix>
</trkpt>
<trkpt lat="40.0713749" lon="-105.229789">
  <ele>1583.0</ele>
  <time>2026-08-28T17:56:44Z</time>
  <course>0.0</course>
  <speed>0.0</speed>
  <fix>3d</fix>
</trkpt>
<trkpt lat="40.0713749" lon="-105.229789">
  <ele>1583.0</ele>
  <time>2026-08-28T17:56:44Z</time>
  <course>248.01</course>
  <speed>0.022360679774997897</speed>
  <fix>3d</fix>
</trkpt>
<trkpt lat="40.0713749" lon="-105.229789">
  <ele>1583.0</ele>
  <time>2026-08-28T17:56:44Z</time>
  <course>0.0</course>
  <speed>0.0</speed>
  <fix>3d</fix>
</trkpt>
<trkpt lat="40.0713749" lon="-105.229789">
  <ele>1583.0</ele>
  <time>2026-08-28T17:56:44Z</time>
  <course>248.01</course>
  <speed>0.022360679774997897</speed>
  <fix>3d</fix>
</trkpt>
<trkpt lat="40.0713749" lon="-105.229789">
  <ele>1583.0</ele>
  <time>2026-08-28T17:56:44Z</time>
  <course>0.0</course>
  <speed>0.0</speed>
  <fix>3d</fix>
</trkpt>
<trkpt lat="40.0713749" lon="-105.229789">
  <ele>1583.0</ele>
  <time>2026-08-28T17:56:44Z</time>
  <course>248.0</course>
  <speed>0.022360679774997897</speed>
  <fix>3d</fix>
</trkpt>
<trkpt lat="40.0713749" lon="-105.229789">
  <ele>1583.0</ele>
  <time>2026-08-28T17:56:44Z</time>
  <course>0.0</course>
  <speed>0.0</speed>
  <fix>3d</fix>
</trkpt>
<trkpt lat="40.0713749" lon="-105.229789">
  <ele>1583.0</ele>
  <time>2026-08-28T17:56:44Z</time>
  <course>248.0</course>
  <speed>0.022360679774997897</speed>
  <fix>3d</fix>
</trkpt>
<trkpt lat="40.0713749" lon="-105.229789">
  <ele>1583.0</ele>
  <time>2026-08-28T17:56:44Z</time>
  <course>0.0</course>
  <speed>0.0</speed>
  <fix>3d</fix>
</trkpt>
<trkpt lat="40.0713749" lon="-105.229789">
  <ele>1583.0</ele>
  <time>2026-08-28T17:56:44Z</time>
  <course>247.99</course>
  <speed>0.022360679774997897</speed>
  <fix>3d</fix>
</trkpt>
<trkpt lat="40.0713749" lon="-105.229789">
  <ele>1583.0</ele>
  <time>2026-08-28T17:56:44Z</time>
  <course>0.0</course>
  <speed>0.0</speed>
  <fix>3d</fix>
</trkpt>
<trkpt lat="40.0713749" lon="-105.229789">
  <ele>1583.0</ele>
  <time>2026-08-28T17:56:44Z</time>
  <course>247.99</course>
  <speed>0.022360679774997897</speed>
  <fix>3d</fix>
</trkpt>
<trkpt lat="40.0713749" lon="-105.229789">
  <ele>1583.0</ele>
  <time>2026-08-28T17:56:44Z</time>
  <course>0.0</course>
  <speed>0.0</speed>
  <fix>3d</fix>
</trkpt>
<trkpt lat="40.0713749" lon="-105.229789">
  <ele>1583.0</ele>
  <time>2026-08-28T17:56:44Z</time>
  <course>247.99</course>
  <speed>0.022360679774997897</speed>
  <fix>3d</fix>
</trkpt>
<trkpt lat="40.0713749" lon="-105.229789">
  <ele>1583.0</ele>
  <time>2026-08-28T17:56:44Z</time>
  <course>0.0</course>
  <speed>0.0</speed>
  <fix>3d</fix>
</trkpt>
<trkpt lat="40.0713749" lon="-105.229789">
  <ele>1583.0</ele>
  <time>2026-08-28T17:56:44Z</time>
  <course>247.98</course>
  <speed>0.022360679774997897</speed>
  <fix>3d</fix>
</trkpt>
<trkpt lat="40.0713749" lon="-105.229789">
  <ele>1583.0</ele>
  <time>2026-08-28T17:56:44Z</time>
  <course>0.0</course>
  <speed>0.0</speed>
  <fix>3d</fix>
</trkpt>
<trkpt lat="40.0713749" lon="-105.229789">
  <ele>1583.0</ele>
  <time>2026-08-28T17:56:44Z</time>
  <course>247.98</course>
  <speed>0.022360679774997897</speed>
  <fix>3d</fix>
</trkpt>
<trkpt lat="40.0713749" lon="-105.229789">
  <ele>1583.0</ele>
  <time>2026-08-28T17:56:44Z</time>
  <course>0.0</course>
  <speed>0.0</speed>
  <fix>3d</fix>
</trkpt>
<trkpt lat="40.0713749" lon="-105.229789">
  <ele>1583.0</ele>
  <time>2026-08-28T17:56:44Z</time>
  <course>247.97</course>
  <speed>0.022360679774997897</speed>
  <fix>3d</fix>
</trkpt>
<trkpt lat="40.0713749" lon="-105.229789">
  <ele>1583.0</ele>
  <time>2026-08-28T17:56:44Z</time>
  <course>0.0</course>
  <speed>0.0</speed>
  <fix>3d</fix>
</trkpt>
<trkpt lat="40.0713749" lon="-105.229789">
  <ele>1583.0</ele>
  <time>2026-08-28T17:56:44Z</time>
  <course>247.97</course>
  <speed>0.022360679774997897</speed>
  <fix>3d</fix>
</trkpt>
<trkpt lat="40.0713749" lon="-105.229789">
  <ele>1583.0</ele>
  <time>2026-08-28T17:56:44Z</time>
  <course>0.0</course>
  <speed>0.0</speed>
  <fix>3d</fix>
</trkpt>
<trkpt lat="40.0713749" lon="-105.229789">
  <ele>1583.0</ele>
  <time>2026-08-28T17:56:44Z</time>
  <course>247.96</course>
  <speed>0.022360679774997897</speed>
  <fix>3d</fix>
</trkpt>
<trkpt lat="40.0713749" lon="-105.229789">
  <ele>1583.0</ele>
  <time>2026-08-28T17:56:44Z</time>
  <course>0.0</course>
  <speed>0.0</speed>
  <fix>3d</fix>
</trkpt>
<trkpt lat="40.0713749" lon="-105.229789">
  <ele>1583.0</ele>
  <time>2026-08-28T17:56:44Z</time>
  <course>247.96</course>
  <speed>0.022360679774997897</speed>
  <fix>3d</fix>
</trkpt>
<trkpt lat="40.0713749" lon="-105.229789">
  <ele>1583.0</ele>
  <time>2026-08-28T17:56:44Z</time>
  <course>0.0</course>
  <speed>0.0</speed>
  <fix>3d</fix>
</trkpt>
<trkpt lat="40.0713749" lon="-105.229789">
  <ele>1583.0</ele>
  <time>2026-08-28T17:56:44Z</time>
  <course>247.95</course>
  <speed>0.022360679774997897</speed>
  <fix>3d</fix>
</trkpt>
<trkpt lat="40.0713749" lon="-105.229789">
  <ele>1583.0</ele>
  <time>2026-08-28T17:56:44Z</time>
  <course>0.0</course>
  <speed>0.0</speed>
  <fix>3d</fix>
</trkpt>
<trkpt lat="40.0713749" lon="-105.229789">
  <ele>1583.0</ele>
  <time>2026-08-28T17:56:44Z</time>
  <course>247.95</course>
  <speed>0.022360679774997897</speed>
  <fix>3d</fix>
</trkpt>
<trkpt lat="40.0713749" lon="-105.229789">
  <ele>1583.0</ele>
  <time>2026-08-28T17:56:44Z</time>
  <course>0.0</course>
  <speed>0.0</speed>
  <fix>3d</fix>
</trkpt>
<trkpt lat="40.0713749" lon="-105.229789">
  <ele>1583.0</ele>
  <time>2026-08-28T17:56:44Z</time>
  <course>247.95</course>
  <speed>0.022360679774997897</speed>
  <fix>3d</fix>
</trkpt>
<trkpt lat="40.0713749" lon="-105.229789">
  <ele>1583.0</ele>
  <time>2026-08-28T17:56:44Z</time>
  <course>0.0</course>
  <speed>0.0</speed>
  <fix>3d</fix>
</trkpt>
<trkpt lat="40.0713749" lon="-105.229789">
  <ele>1583.0</ele>
  <time>2026-08-28T17:56:44Z</time>
  <course>247.94</course>
  <speed>0.022360679774997897</speed>
  <fix>3d</fix>
</trkpt>
<trkpt lat="40.0713749" lon="-105.229789">
  <ele>1583.0</ele>
  <time>2026-08-28T17:56:44Z</time>
  <course>0.0</course>
  <speed>0.0</speed>
  <fix>3d</fix>
</trkpt>
<trkpt lat="40.0713749" lon="-105.229789">
  <ele>1583.0</ele>
  <time>2026-08-28T17:56:44Z</time>
  <course>247.94</course>
  <speed>0.022360679774997897</speed>
  <fix>3d</fix>
</trkpt>
<trkpt lat="40.0713749" lon="-105.229789">
  <ele>1583.0</ele>
  <time>2026-08-28T17:56:44Z</time>
  <course>0.0</course>
  <speed>0.0</speed>
  <fix>3d</fix>
</trkpt>
<trkpt lat="40.0713749" lon="-105.229789">
  <ele>1583.0</ele>
  <time>2026-08-28T17:56:44Z</time>
  <course>247.93</course>
  <speed>0.022360679774997897</speed>
  <fix>3d</fix>
</trkpt>
<trkpt lat="40.0713749" lon="-105.229789">
  <ele>1583.0</ele>
  <time>2026-08-28T17:56:44Z</time>
  <course>0.0</course>
  <speed>0.0</speed>
  <fix>3d</fix>
</trkpt>
<trkpt lat="40.0713749" lon="-105.229789">
  <ele>1583.0</ele>
  <time>2026-08-28T17:56:44Z</time>
  <course>247.93</course>
  <speed>0.022360679774997897</speed>
  <fix>3d</fix>
</trkpt>
<trkpt lat="40.0713749" lon="-105.229789">
  <ele>1583.0</ele>
  <time>2026-08-28T17:56:44Z</time>
  <course>0.0</course>
  <speed>0.0</speed>
  <fix>3d</fix>
</trkpt>
<trkpt lat="40.0713749" lon="-105.229789">
  <ele>1583.0</ele>
  <time>2026-08-28T17:56:44Z</time>
  <course>247.92</course>
  <speed>0.022360679774997897</speed>
  <fix>3d</fix>
</trkpt>
<trkpt lat="40.0713749" lon="-105.229789">
  <ele>1583.0</ele>
  <time>2026-08-28T17:56:44Z</time>
  <course>0.0</course>
  <speed>0.0</speed>
  <fix>3d</fix>
</trkpt>
<trkpt lat="40.0713749" lon="-105.229789">
  <ele>1583.0</ele>
  <time>2026-08-28T17:56:44Z</time>
  <course>247.92</course>
  <speed>0.022360679774997897</speed>
  <fix>3d</fix>
</trkpt>
<trkpt lat="40.0713749" lon="-105.229789">
  <ele>1583.0</ele>
  <time>2026-08-28T17:56:44Z</time>
  <course>0.0</course>
  <speed>0.0</speed>
  <fix>3d</fix>
</trkpt>
<trkpt lat="40.0713749" lon="-105.229789">
  <ele>1583.0</ele>
  <time>2026-08-28T17:56:44Z</time>
  <course>247.91</course>
  <speed>0.022360679774997897</speed>
  <fix>3d</fix>
</trkpt>
<trkpt lat="40.0713749" lon="-105.229789">
  <ele>1583.0</ele>
  <time>2026-08-28T17:56:44Z</time>
  <course>0.0</course>
  <speed>0.0</speed>
  <fix>3d</fix>
</trkpt>
<trkpt lat="40.0713749" lon="-105.229789">
  <ele>1583.0</ele>
  <time>2026-08-28T17:56:44Z</time>
  <course>247.91</course>
  <speed>0.022360679774997897</speed>
  <fix>3d</fix>
</trkpt>
<trkpt lat="40.0713749" lon="-105.229789">
  <ele>1583.0</ele>
  <time>2026-08-28T17:56:44Z</time>
  <course>0.0</course>
  <speed>0.0</speed>
  <fix>3d</fix>
</trkpt>
<trkpt lat="40.0713749" lon="-105.229789">
  <ele>1583.0</ele>
  <time>2026-08-28T17:56:44Z</time>
  <course>247.91</course>
  <speed>0.022360679774997897</speed>
  <fix>3d</fix>
</trkpt>
<trkpt lat="40.0713749" lon="-105.229789">
  <ele>1583.0</ele>
  <time>2026-08-28T17:56:44Z</time>
  <course>0.0</course>
  <speed>0.0</speed>
  <fix>3d</fix>
</trkpt>
<trkpt lat="40.0713749" lon="-105.229789">
  <ele>1583.0</ele>
  <time>2026-08-28T17:56:44Z</time>
  <course>247.9</course>
  <speed>0.022360679774997897</speed>
  <fix>3d</fix>
</trkpt>
<trkpt lat="40.0713749" lon="-105.229789">
  <ele>1583.0</ele>
  <time>2026-08-28T17:56:44Z</time>
  <course>0.0</course>
  <speed>0.0</speed>
  <fix>3d</fix>
</trkpt>
<trkpt lat="40.0713749" lon="-105.229789">
  <ele>1583.0</ele>
  <time>2026-08-28T17:56:44Z</time>
  <course>247.9</course>
  <speed>0.022360679774997897</speed>
  <fix>3d</fix>
</trkpt>
<trkpt lat="40.0713749" lon="-105.229789">
  <ele>1583.0</ele>
  <time>2026-08-28T17:56:44Z</time>
  <course>0.0</course>
  <speed>0.0</speed>
  <fix>3d</fix>
</trkpt>
<trkpt lat="40.0713749" lon="-105.229789">
  <ele>1583.0</ele>
  <time>2026-08-28T17:56:44Z</time>
  <course>247.89</course>
  <speed>0.022360679774997897</speed>
  <fix>3d</fix>
</trkpt>
<trkpt lat="40.0713749" lon="-105.229789">
  <ele>1583.0</ele>
  <time>2026-08-28T17:56:44Z</time>
  <course>0.0</course>
  <speed>0.0</speed>
  <fix>3d</fix>
</trkpt>
<trkpt lat="40.0713749" lon="-105.229789">
  <ele>1583.0</ele>
  <time>2026-08-28T17:56:44Z</time>
  <course>247.89</course>
  <speed>0.022360679774997897</speed>
  <fix>3d</fix>
</trkpt>
<trkpt lat="40.0713749" lon="-105.229789">
  <ele>1583.0</ele>
  <time>2026-08-28T17:56:44Z</time>
  <course>0.0</course>
  <speed>0.0</speed>
  <fix>3d</fix>
</trkpt>
<trkpt lat="40.0713749" lon="-105.229789">
  <ele>1583.0</ele>
  <time>2026-08-28T17:56:44Z</time>
  <course>247.89</course>
  <speed>0.022360679774997897</speed>
  <fix>3d</fix>
</trkpt>
<trkpt lat="40.0713749" lon="-105.229789">
  <ele>1583.0</ele>
  <time>2026-08-28T17:56:44Z</time>
  <course>0.0</course>
  <speed>0.0</speed>
  <fix>3d</fix>
</trkpt>
<trkpt lat="40.0713749" lon="-105.229789">
  <ele>1583.0</ele>
  <time>2026-08-28T17:56:44Z</time>
  <course>247.88</course>
  <speed>0.022360679774997897</speed>
  <fix>3d</fix>
</trkpt>
<trkpt lat="40.0713749" lon="-105.229789">
  <ele>1583.0</ele>
  <time>2026-08-28T17:56:44Z</time>
  <course>0.0</course>
  <speed>0.0</speed>
  <fix>3d</fix>
</trkpt>
<trkpt lat="40.0713749" lon="-105.229789">
  <ele>1583.0</ele>
  <time>2026-08-28T17:56:44Z</time>
  <course>247.88</course>
  <speed>0.0316227766016838</speed>
  <fix>3d</fix>
</trkpt>
<trkpt lat="40.0713749" lon="-105.229789">
  <ele>1583.0</ele>
  <time>2026-08-28T17:56:44Z</time>
  <course>0.0</course>
  <speed>0.0</speed>
  <fix>3d</fix>
</trkpt>
<trkpt lat="40.0713749" lon="-105.229789">
  <ele>1583.0</ele>
  <time>2026-08-28T17:56:44Z</time>
  <course>247.87</course>
  <speed>0.0316227766016838</speed>
  <fix>3d</fix>
</trkpt>
<trkpt lat="40.0713749" lon="-105.229789">
  <ele>1583.0</ele>
  <time>2026-08-28T17:56:44Z</time>
  <course>0.0</course>
  <speed>0.0</speed>
  <fix>3d</fix>
</trkpt>
<trkpt lat="40.0713749" lon="-105.229789">
  <ele>1583.0</ele>
  <time>2026-08-28T17:56:44Z</time>
  <course>247.87</course>
  <speed>0.0316227766016838</speed>
  <fix>3d</fix>
</trkpt>
<trkpt lat="40.0713749" lon="-105.229789">
  <ele>1583.0</ele>
  <time>2026-08-28T17:56:44Z</time>
  <course>0.0</course>
  <speed>0.0</speed>
  <fix>3d</fix>
</trkpt>
<trkpt lat="40.0713749" lon="-105.229789">
  <ele>1583.0</ele>
  <time>2026-08-28T17:56:44Z</time>
  <course>247.87</course>
  <speed>0.0316227766016838</speed>
  <fix>3d</fix>
</trkpt>
<trkpt lat="40.0713749" lon="-105.229789">
  <ele>1583.0</ele>
  <time>2026-08-28T17:56:44Z</time>
  <course>0.0</course>
  <speed>0.0</speed>
  <fix>3d</fix>
</trkpt>
<trkpt lat="40.0713749" lon="-105.229789">
  <ele>1583.0</ele>
  <time>2026-08-28T17:56:44Z</time>
  <course>247.86</course>
  <speed>0.0316227766016838</speed>
  <fix>3d</fix>
</trkpt>
<trkpt lat="40.0713749" lon="-105.229789">
  <ele>1583.0</ele>
  <time>2026-08-28T17:56:44Z</time>
  <course>0.0</course>
  <speed>0.0</speed>
  <fix>3d</fix>
</trkpt>
<trkpt lat="40.0713749" lon="-105.229789">
  <ele>1583.0</ele>
  <time>2026-08-28T17:56:44Z</time>
  <course>247.86</course>
  <speed>0.0316227766016838</speed>
  <fix>3d</fix>
</trkpt>
<trkpt lat="40.0713749" lon="-105.229789">
  <ele>1583.0</ele>
  <time>2026-08-28T17:56:44Z</time>
  <course>0.0</course>
  <speed>0.0</speed>
  <fix>3d</fix>
</trkpt>
<trkpt lat="40.0713749" lon="-105.229789">
  <ele>1583.0</ele>
  <time>2026-08-28T17:56:44Z</time>
  <course>247.85</course>
  <speed>0.0316227766016838</speed>
  <fix>3d</fix>
</trkpt>
<trkpt lat="40.0713749" lon="-105.229789">
  <ele>1583.0</ele>
  <time>2026-08-28T17:56:44Z</time>
  <course>0.0</course>
  <speed>0.0</speed>
  <fix>3d</fix>
</trkpt>
<trkpt lat="40.0713749" lon="-105.229789">
  <ele>1583.0</ele>
  <time>2026-08-28T17:56:44Z</time>
  <course>247.85</course>
  <speed>0.0316227766016838</speed>
  <fix>3d</fix>
</trkpt>
<trkpt lat="40.0713749" lon="-105.229789">
  <ele>1583.0</ele>
  <time>2026-08-28T17:56:44Z</time>
  <course>0.0</course>
  <speed>0.0</speed>
  <fix>3d</fix>
</trkpt>
<trkpt lat="40.0713749" lon="-105.229789">
  <ele>1583.0</ele>
  <time>2026-08-28T17:56:44Z</time>
  <course>247.84</course>
  <speed>0.0316227766016838</speed>
  <fix>3d</fix>
</trkpt>
<trkpt lat="40.0713749" lon="-105.229789">
  <ele>1583.0</ele>
  <time>2026-08-28T17:56:44Z</time>
  <course>0.0</course>
  <speed>0.0</speed>
  <fix>3d</fix>
</trkpt>
<trkpt lat="40.0713749" lon="-105.229789">
  <ele>1583.0</ele>
  <time>2026-08-28T17:56:44Z</time>
  <course>247.84</course>
  <speed>0.0316227766016838</speed>
  <fix>3d</fix>
</trkpt>
<trkpt lat="40.0713749" lon="-105.229789">
  <ele>1583.0</ele>
  <time>2026-08-28T17:56:44Z</time>
  <course>0.0</course>
  <speed>0.0</speed>
  <fix>3d</fix>
</trkpt>
<trkpt lat="40.0713749" lon="-105.229789">
  <ele>1583.0</ele>
  <time>2026-08-28T17:56:44Z</time>
  <course>247.84</course>
  <speed>0.0316227766016838</speed>
  <fix>3d</fix>
</trkpt>
<trkpt lat="40.0713749" lon="-105.229789">
  <ele>1583.0</ele>
  <time>2026-08-28T17:56:44Z</time>
  <course>0.0</course>
  <speed>0.0</speed>
  <fix>3d</fix>
</trkpt>
<trkpt lat="40.0713749" lon="-105.229789">
  <ele>1583.0</ele>
  <time>2026-08-28T17:56:44Z</time>
  <course>247.83</course>
  <speed>0.0316227766016838</speed>
  <fix>3d</fix>
</trkpt>
<trkpt lat="40.0713749" lon="-105.229789">
  <ele>1583.0</ele>
  <time>2026-08-28T17:56:44Z</time>
  <course>0.0</course>
  <speed>0.0</speed>
  <fix>3d</fix>
</trkpt>
<trkpt lat="40.0713749" lon="-105.229789">
  <ele>1583.0</ele>
  <time>2026-08-28T17:56:44Z</time>
  <course>247.83</course>
  <speed>0.0316227766016838</speed>
  <fix>3d</fix>
</trkpt>
<trkpt lat="40.0713749" lon="-105.229789">
  <ele>1583.0</ele>
  <time>2026-08-28T17:56:44Z</time>
  <course>0.0</course>
  <speed>0.0</speed>
  <fix>3d</fix>
</trkpt>
<trkpt lat="40.0713749" lon="-105.229789">
  <ele>1583.0</ele>
  <time>2026-08-28T17:56:44Z</time>
  <course>247.83</course>
  <speed>0.0316227766016838</speed>
  <fix>3d</fix>
</trkpt>
<trkpt lat="40.0713749" lon="-105.229789">
  <ele>1583.0</ele>
  <time>2026-08-28T17:56:44Z</time>
  <course>0.0</course>
  <speed>0.0</speed>
  <fix>3d</fix>
</trkpt>
<trkpt lat="40.0713749" lon="-105.229789">
  <ele>1583.0</ele>
  <time>2026-08-28T17:56:44Z</time>
  <course>247.82</course>
  <speed>0.0316227766016838</speed>
  <fix>3d</fix>
</trkpt>
<trkpt lat="40.0713749" lon="-105.229789">
  <ele>1583.0</ele>
  <time>2026-08-28T17:56:44Z</time>
  <course>0.0</course>
  <speed>0.0</speed>
  <fix>3d</fix>
</trkpt>
<trkpt lat="40.0713749" lon="-105.229789">
  <ele>1583.0</ele>
  <time>2026-08-28T17:56:44Z</time>
  <course>247.82</course>
  <speed>0.0316227766016838</speed>
  <fix>3d</fix>
</trkpt>
<trkpt lat="40.0713749" lon="-105.229789">
  <ele>1583.0</ele>
  <time>2026-08-28T17:56:44Z</time>
  <course>0.0</course>
  <speed>0.0</speed>
  <fix>3d</fix>
</trkpt>
<trkpt lat="40.0713749" lon="-105.229789">
  <ele>1583.0</ele>
  <time>2026-08-28T17:56:44Z</time>
  <course>247.81</course>
  <speed>0.0316227766016838</speed>
  <fix>3d</fix>
</trkpt>
<trkpt lat="40.0713749" lon="-105.229789">
  <ele>1583.0</ele>
  <time>2026-08-28T17:56:44Z</time>
  <course>0.0</course>
  <speed>0.0</speed>
  <fix>3d</fix>
</trkpt>
<trkpt lat="40.0713749" lon="-105.229789">
  <ele>1583.0</ele>
  <time>2026-08-28T17:56:44Z</time>
  <course>247.81</course>
  <speed>0.0316227766016838</speed>
  <fix>3d</fix>
</trkpt>
<trkpt lat="40.0713749" lon="-105.229789">
  <ele>1583.0</ele>
  <time>2026-08-28T17:56:44Z</time>
  <course>0.0</course>
  <speed>0.0</speed>
  <fix>3d</fix>
</trkpt>
<trkpt lat="40.0713749" lon="-105.229789">
  <ele>1583.0</ele>
  <time>2026-08-28T17:56:44Z</time>
  <course>247.81</course>
  <speed>0.0316227766016838</speed>
  <fix>3d</fix>
</trkpt>
<trkpt lat="40.0713749" lon="-105.229789">
  <ele>1583.0</ele>
  <time>2026-08-28T17:56:44Z</time>
  <course>0.0</course>
  <speed>0.0</speed>
  <fix>3d</fix>
</trkpt>
<trkpt lat="40.0713749" lon="-105.229789">
  <ele>1583.0</ele>
  <time>2026-08-28T17:56:44Z</time>
  <course>247.8</course>
  <speed>0.0316227766016838</speed>
  <fix>3d</fix>
</trkpt>
<trkpt lat="40.0713749" lon="-105.229789">
  <ele>1583.0</ele>
  <time>2026-08-28T17:56:44Z</time>
  <course>0.0</course>
  <speed>0.0</speed>
  <fix>3d</fix>
</trkpt>
<trkpt lat="40.0713749" lon="-105.229789">
  <ele>1583.0</ele>
  <time>2026-08-28T17:56:44Z</time>
  <course>247.8</course>
  <speed>0.0316227766016838</speed>
  <fix>3d</fix>
</trkpt>
<trkpt lat="40.0713749" lon="-105.229789">
  <ele>1583.0</ele>
  <time>2026-08-28T17:56:44Z</time>
  <course>0.0</course>
  <speed>0.0</speed>
  <fix>3d</fix>
</trkpt>
<trkpt lat="40.0713749" lon="-105.229789">
  <ele>1583.0</ele>
  <time>2026-08-28T17:56:44Z</time>
  <course>247.8</course>
  <speed>0.0316227766016838</speed>
  <fix>3d</fix>
</trkpt>
<trkpt lat="40.0713749" lon="-105.229789">
  <ele>1583.0</ele>
  <time>2026-08-28T17:56:44Z</time>
  <course>0.0</course>
  <speed>0.0</speed>
  <fix>3d</fix>
</trkpt>
<trkpt lat="40.0713749" lon="-105.229789">
  <ele>1583.0</ele>
  <time>2026-08-28T17:56:44Z</time>
  <course>247.79</course>
  <speed>0.0316227766016838</speed>
  <fix>3d</fix>
</trkpt>
<trkpt lat="40.0713749" lon="-105.229789">
  <ele>1583.0</ele>
  <time>2026-08-28T17:56:44Z</time>
  <course>0.0</course>
  <speed>0.0</speed>
  <fix>3d</fix>
</trkpt>
<trkpt lat="40.0713749" lon="-105.229789">
  <ele>1583.0</ele>
  <time>2026-08-28T17:56:44Z</time>
  <course>247.79</course>
  <speed>0.0316227766016838</speed>
  <fix>3d</fix>
</trkpt>
<trkpt lat="40.0713749" lon="-105.229789">
  <ele>1583.0</ele>
  <time>2026-08-28T17:56:44Z</time>
  <course>0.0</course>
  <speed>0.0</speed>
  <fix>3d</fix>
</trkpt>
<trkpt lat="40.0713749" lon="-105.229789">
  <ele>1583.0</ele>
  <time>2026-08-28T17:56:44Z</time>
  <course>247.78</course>
  <speed>0.0316227766016838</speed>
  <fix>3d</fix>
</trkpt>
<trkpt lat="40.0713749" lon="-105.229789">
  <ele>1583.0</ele>
  <time>2026-08-28T17:56:44Z</time>
  <course>0.0</course>
  <speed>0.0</speed>
  <fix>3d</fix>
</trkpt>
<trkpt lat="40.0713749" lon="-105.229789">
  <ele>1583.0</ele>
  <time>2026-08-28T17:56:44Z</time>
  <course>247.78</course>
  <speed>0.0316227766016838</speed>
  <fix>3d</fix>
</trkpt>
<trkpt lat="40.0713749" lon="-105.229789">
  <ele>1583.0</ele>
  <time>2026-08-28T17:56:44Z</time>
  <course>0.0</course>
  <speed>0.0</speed>
  <fix>3d</fix>
</trkpt>
<trkpt lat="40.0713749" lon="-105.229789">
  <ele>1583.0</ele>
  <time>2026-08-28T17:56:44Z</time>
  <course>247.78</course>
  <speed>0.0316227766016838</speed>
  <fix>3d</fix>
</trkpt>
<trkpt lat="40.0713749" lon="-105.229789">
  <ele>1583.0</ele>
  <time>2026-08-28T17:56:44Z</time>
  <course>0.0</course>
  <speed>0.0</speed>
  <fix>3d</fix>
</trkpt>
<trkpt lat="40.0713749" lon="-105.229789">
  <ele>1583.0</ele>
  <time>2026-08-28T17:56:44Z</time>
  <course>247.77</course>
  <speed>0.0316227766016838</speed>
  <fix>3d</fix>
</trkpt>
<trkpt lat="40.0713749" lon="-105.229789">
  <ele>1583.0</ele>
  <time>2026-08-28T17:56:44Z</time>
  <course>0.0</course>
  <speed>0.0</speed>
  <fix>3d</fix>
</trkpt>
<trkpt lat="40.0713749" lon="-105.229789">
  <ele>1583.0</ele>
  <time>2026-08-28T17:56:44Z</time>
  <course>247.77</course>
  <speed>0.0316227766016838</speed>
  <fix>3d</fix>
</trkpt>
<trkpt lat="40.0713749" lon="-105.229789">
  <ele>1583.0</ele>
  <time>2026-08-28T17:56:44Z</time>
  <course>0.0</course>
  <speed>0.0</speed>
  <fix>3d</fix>
</trkpt>
<trkpt lat="40.0713749" lon="-105.229789">
  <ele>1583.0</ele>
  <time>2026-08-28T17:56:44Z</time>
  <course>247.77</course>
  <speed>0.0316227766016838</speed>
  <fix>3d</fix>
</trkpt>
<trkpt lat="40.0713749" lon="-105.229789">
  <ele>1583.0</ele>
  <time>2026-08-28T17:56:44Z</time>
  <course>0.0</course>
  <speed>0.0</speed>
  <fix>3d</fix>
</trkpt>
<trkpt lat="40.0713749" lon="-105.229789">
  <ele>1583.0</ele>
  <time>2026-08-28T17:56:44Z</time>
  <course>247.76</course>
  <speed>0.0316227766016838</speed>
  <fix>3d</fix>
</trkpt>
<trkpt lat="40.0713749" lon="-105.229789">
  <ele>1583.0</ele>
  <time>2026-08-28T17:56:44Z</time>
  <course>0.0</course>
  <speed>0.0</speed>
  <fix>3d</fix>
</trkpt>
<trkpt lat="40.0713749" lon="-105.229789">
  <ele>1583.0</ele>
  <time>2026-08-28T17:56:44Z</time>
  <course>247.76</course>
  <speed>0.0316227766016838</speed>
  <fix>3d</fix>
</trkpt>
<trkpt lat="40.0713749" lon="-105.229789">
  <ele>1583.0</ele>
  <time>2026-08-28T17:56:44Z</time>
  <course>0.0</course>
  <speed>0.0</speed>
  <fix>3d</fix>
</trkpt>
<trkpt lat="40.0713749" lon="-105.229789">
  <ele>1583.0</ele>
  <time>2026-08-28T17:56:44Z</time>
  <course>247.75</course>
  <speed>0.0316227766016838</speed>
  <fix>3d</fix>
</trkpt>
<trkpt lat="40.0713749" lon="-105.229789">
  <ele>1583.0</ele>
  <time>2026-08-28T17:56:44Z</time>
  <course>0.0</course>
  <speed>0.0</speed>
  <fix>3d</fix>
</trkpt>
<trkpt lat="40.0713749" lon="-105.229789">
  <ele>1583.0</ele>
  <time>2026-08-28T17:56:44Z</time>
  <course>247.75</course>
  <speed>0.0316227766016838</speed>
  <fix>3d</fix>
</trkpt>
<trkpt lat="40.0713749" lon="-105.229789">
  <ele>1583.0</ele>
  <time>2026-08-28T17:56:44Z</time>
  <course>0.0</course>
  <speed>0.0</speed>
  <fix>3d</fix>
</trkpt>
<trkpt lat="40.0713749" lon="-105.229789">
  <ele>1583.0</ele>
  <time>2026-08-28T17:56:44Z</time>
  <course>247.75</course>
  <speed>0.0316227766016838</speed>
  <fix>3d</fix>
</trkpt>
<trkpt lat="40.0713749" lon="-105.229789">
  <ele>1583.0</ele>
  <time>2026-08-28T17:56:44Z</time>
  <course>0.0</course>
  <speed>0.0</speed>
  <fix>3d</fix>
</trkpt>
<trkpt lat="40.0713749" lon="-105.229789">
  <ele>1583.0</ele>
  <time>2026-08-28T17:56:44Z</time>
  <course>247.74</course>
  <speed>0.0316227766016838</speed>
  <fix>3d</fix>
</trkpt>
<trkpt lat="40.0713749" lon="-105.229789">
  <ele>1583.0</ele>
  <time>2026-08-28T17:56:44Z</time>
  <course>0.0</course>
  <speed>0.0</speed>
  <fix>3d</fix>
</trkpt>
<trkpt lat="40.0713749" lon="-105.229789">
  <ele>1583.0</ele>
  <time>2026-08-28T17:56:44Z</time>
  <course>247.74</course>
  <speed>0.0316227766016838</speed>
  <fix>3d</fix>
</trkpt>
<trkpt lat="40.0713749" lon="-105.229789">
  <ele>1583.0</ele>
  <time>2026-08-28T17:56:44Z</time>
  <course>0.0</course>
  <speed>0.0</speed>
  <fix>3d</fix>
</trkpt>
<trkpt lat="40.0713749" lon="-105.229789">
  <ele>1583.0</ele>
  <time>2026-08-28T17:56:44Z</time>
  <course>247.74</course>
  <speed>0.0316227766016838</speed>
  <fix>3d</fix>
</trkpt>
<trkpt lat="40.0713749" lon="-105.229789">
  <ele>1583.0</ele>
  <time>2026-08-28T17:56:44Z</time>
  <course>0.0</course>
  <speed>0.0</speed>
  <fix>3d</fix>
</trkpt>
<trkpt lat="40.0713749" lon="-105.229789">
  <ele>1583.0</ele>
  <time>2026-08-28T17:56:44Z</time>
  <course>247.73</course>
  <speed>0.0316227766016838</speed>
  <fix>3d</fix>
</trkpt>
<trkpt lat="40.0713749" lon="-105.229789">
  <ele>1583.0</ele>
  <time>2026-08-28T17:56:44Z</time>
  <course>0.0</course>
  <speed>0.0</speed>
  <fix>3d</fix>
</trkpt>
<trkpt lat="40.0713749" lon="-105.229789">
  <ele>1583.0</ele>
  <time>2026-08-28T17:56:44Z</time>
  <course>247.73</course>
  <speed>0.0316227766016838</speed>
  <fix>3d</fix>
</trkpt>
<trkpt lat="40.0713749" lon="-105.229789">
  <ele>1583.0</ele>
  <time>2026-08-28T17:56:44Z</time>
  <course>0.0</course>
  <speed>0.0</speed>
  <fix>3d</fix>
</trkpt>
<trkpt lat="40.0713749" lon="-105.229789">
  <ele>1583.0</ele>
  <time>2026-08-28T17:56:44Z</time>
  <course>247.73</course>
  <speed>0.0316227766016838</speed>
  <fix>3d</fix>
</trkpt>
<trkpt lat="40.0713749" lon="-105.229789">
  <ele>1583.0</ele>
  <time>2026-08-28T17:56:44Z</time>
  <course>0.0</course>
  <speed>0.0</speed>
  <fix>3d</fix>
</trkpt>
<trkpt lat="40.0713749" lon="-105.229789">
  <ele>1583.0</ele>
  <time>2026-08-28T17:56:44Z</time>
  <course>247.72</course>
  <speed>0.0316227766016838</speed>
  <fix>3d</fix>
</trkpt>
<trkpt lat="40.0713749" lon="-105.229789">
  <ele>1583.0</ele>
  <time>2026-08-28T17:56:44Z</time>
  <course>0.0</course>
  <speed>0.0</speed>
  <fix>3d</fix>
</trkpt>
<trkpt lat="40.0713749" lon="-105.229789">
  <ele>1583.0</ele>
  <time>2026-08-28T17:56:44Z</time>
  <course>247.72</course>
  <speed>0.0316227766016838</speed>
  <fix>3d</fix>
</trkpt>
<trkpt lat="40.0713749" lon="-105.229789">
  <ele>1583.0</ele>
  <time>2026-08-28T17:56:44Z</time>
  <course>0.0</course>
  <speed>0.0</speed>
  <fix>3d</fix>
</trkpt>
<trkpt lat="40.0713749" lon="-105.229789">
  <ele>1583.0</ele>
  <time>2026-08-28T17:56:44Z</time>
  <course>247.72</course>
  <speed>0.0316227766016838</speed>
  <fix>3d</fix>
</trkpt>
<trkpt lat="40.0713749" lon="-105.229789">
  <ele>1583.0</ele>
  <time>2026-08-28T17:56:44Z</time>
  <course>0.0</course>
  <speed>0.0</speed>
  <fix>3d</fix>
</trkpt>
<trkpt lat="40.0713749" lon="-105.229789">
  <ele>1583.0</ele>
  <time>2026-08-28T17:56:44Z</time>
  <course>247.71</course>
  <speed>0.0316227766016838</speed>
  <fix>3d</fix>
</trkpt>
<trkpt lat="40.0713749" lon="-105.229789">
  <ele>1583.0</ele>
  <time>2026-08-28T17:56:44Z</time>
  <course>0.0</course>
  <speed>0.0</speed>
  <fix>3d</fix>
</trkpt>
<trkpt lat="40.0713749" lon="-105.229789">
  <ele>1583.0</ele>
  <time>2026-08-28T17:56:44Z</time>
  <course>247.71</course>
  <speed>0.0316227766016838</speed>
  <fix>3d</fix>
</trkpt>
<trkpt lat="40.0713749" lon="-105.229789">
  <ele>1583.0</ele>
  <time>2026-08-28T17:56:44Z</time>
  <course>0.0</course>
  <speed>0.0</speed>
  <fix>3d</fix>
</trkpt>
<trkpt lat="40.0713749" lon="-105.229789">
  <ele>1583.0</ele>
  <time>2026-08-28T17:56:44Z</time>
  <course>247.71</course>
  <speed>0.0316227766016838</speed>
  <fix>3d</fix>
</trkpt>
<trkpt lat="40.0713749" lon="-105.229789">
  <ele>1583.0</ele>
  <time>2026-08-28T17:56:44Z</time>
  <course>0.0</course>
  <speed>0.0</speed>
  <fix>3d</fix>
</trkpt>
<trkpt lat="40.0713749" lon="-105.229789">
  <ele>1583.0</ele>
  <time>2026-08-28T17:56:44Z</time>
  <course>247.7</course>
  <speed>0.0316227766016838</speed>
  <fix>3d</fix>
</trkpt>
<trkpt lat="40.0713749" lon="-105.229789">
  <ele>1583.0</ele>
  <time>2026-08-28T17:56:44Z</time>
  <course>0.0</course>
  <speed>0.0</speed>
  <fix>3d</fix>
</trkpt>
<trkpt lat="40.0713749" lon="-105.229789">
  <ele>1583.0</ele>
  <time>2026-08-28T17:56:44Z</time>
  <course>247.7</course>
  <speed>0.0316227766016838</speed>
  <fix>3d</fix>
</trkpt>
<trkpt lat="40.0713749" lon="-105.229789">
  <ele>1583.0</ele>
  <time>2026-08-28T17:56:44Z</time>
  <course>0.0</course>
  <speed>0.0</speed>
  <fix>3d</fix>
</trkpt>
<trkpt lat="40.0713749" lon="-105.229789">
  <ele>1583.0</ele>
  <time>2026-08-28T17:56:44Z</time>
  <course>247.7</course>
  <speed>0.0316227766016838</speed>
  <fix>3d</fix>
</trkpt>
<trkpt lat="40.0713749" lon="-105.229789">
  <ele>1583.0</ele>
  <time>2026-08-28T17:56:44Z</time>
  <course>0.0</course>
  <speed>0.0</speed>
  <fix>3d</fix>
</trkpt>
<trkpt lat="40.0713749" lon="-105.229789">
  <ele>1583.0</ele>
  <time>2026-08-28T17:56:44Z</time>
  <course>247.69</course>
  <speed>0.0316227766016838</speed>
  <fix>3d</fix>
</trkpt>
<trkpt lat="40.0713749" lon="-105.229789">
  <ele>1583.0</ele>
  <time>2026-08-28T17:56:44Z</time>
  <course>0.0</course>
  <speed>0.0</speed>
  <fix>3d</fix>
</trkpt>
<trkpt lat="40.0713749" lon="-105.229789">
  <ele>1583.0</ele>
  <time>2026-08-28T17:56:44Z</time>
  <course>247.69</course>
  <speed>0.0316227766016838</speed>
  <fix>3d</fix>
</trkpt>
<trkpt lat="40.0713749" lon="-105.229789">
  <ele>1583.0</ele>
  <time>2026-08-28T17:56:44Z</time>
  <course>0.0</course>
  <speed>0.0</speed>
  <fix>3d</fix>
</trkpt>
<trkpt lat="40.0713749" lon="-105.229789">
  <ele>1583.0</ele>
  <time>2026-08-28T17:56:44Z</time>
  <course>247.69</course>
  <speed>0.0316227766016838</speed>
  <fix>3d</fix>
</trkpt>
<trkpt lat="40.0713749" lon="-105.229789">
  <ele>1583.0</ele>
  <time>2026-08-28T17:56:44Z</time>
  <course>0.0</course>
  <speed>0.0</speed>
  <fix>3d</fix>
</trkpt>
<trkpt lat="40.0713749" lon="-105.229789">
  <ele>1583.0</ele>
  <time>2026-08-28T17:56:44Z</time>
  <course>247.68</course>
  <speed>0.0316227766016838</speed>
  <fix>3d</fix>
</trkpt>
<trkpt lat="40.0713749" lon="-105.229789">
  <ele>1583.0</ele>
  <time>2026-08-28T17:56:44Z</time>
  <course>0.0</course>
  <speed>0.0</speed>
  <fix>3d</fix>
</trkpt>
<trkpt lat="40.0713749" lon="-105.229789">
  <ele>1583.0</ele>
  <time>2026-08-28T17:56:44Z</time>
  <course>247.68</course>
  <speed>0.0316227766016838</speed>
  <fix>3d</fix>
</trkpt>
<trkpt lat="40.0713749" lon="-105.229789">
  <ele>1583.0</ele>
  <time>2026-08-28T17:56:44Z</time>
  <course>0.0</course>
  <speed>0.0</speed>
  <fix>3d</fix>
</trkpt>
<trkpt lat="40.0713749" lon="-105.229789">
  <ele>1583.0</ele>
  <time>2026-08-28T17:56:44Z</time>
  <course>247.68</course>
  <speed>0.0316227766016838</speed>
  <fix>3d</fix>
</trkpt>
<trkpt lat="40.0713749" lon="-105.229789">
  <ele>1583.0</ele>
  <time>2026-08-28T17:56:44Z</time>
  <course>0.0</course>
  <speed>0.0</speed>
  <fix>3d</fix>
</trkpt>
<trkpt lat="40.0713749" lon="-105.229789">
  <ele>1583.0</ele>
  <time>2026-08-28T17:56:44Z</time>
  <course>247.67</course>
  <speed>0.0316227766016838</speed>
  <fix>3d</fix>
</trkpt>
<trkpt lat="40.0713749" lon="-105.229789">
  <ele>1583.0</ele>
  <time>2026-08-28T17:56:44Z</time>
  <course>0.0</course>
  <speed>0.0</speed>
  <fix>3d</fix>
</trkpt>
<trkpt lat="40.0713749" lon="-105.229789">
  <ele>1583.0</ele>
  <time>2026-08-28T17:56:44Z</time>
  <course>247.67</course>
  <speed>0.0316227766016838</speed>
  <fix>3d</fix>
</trkpt>
<trkpt lat="40.0713749" lon="-105.229789">
  <ele>1583.0</ele>
  <time>2026-08-28T17:56:44Z</time>
  <course>0.0</course>
  <speed>0.0</speed>
  <fix>3d</fix>
</trkpt>
<trkpt lat="40.0713749" lon="-105.229789">
  <ele>1583.0</ele>
  <time>2026-08-28T17:56:44Z</time>
  <course>247.67</course>
  <speed>0.0316227766016838</speed>
  <fix>3d</fix>
</trkpt>
<trkpt lat="40.0713749" lon="-105.229789">
  <ele>1583.0</ele>
  <time>2026-08-28T17:56:44Z</time>
  <course>0.0</course>
  <speed>0.0</speed>
  <fix>3d</fix>
</trkpt>
<trkpt lat="40.0713749" lon="-105.229789">
  <ele>1583.0</ele>
  <time>2026-08-28T17:56:44Z</time>
  <course>247.66</course>
  <speed>0.0316227766016838</speed>
  <fix>3d</fix>
</trkpt>
<trkpt lat="40.0713749" lon="-105.229789">
  <ele>1583.0</ele>
  <time>2026-08-28T17:56:44Z</time>
  <course>0.0</course>
  <speed>0.0</speed>
  <fix>3d</fix>
</trkpt>
<trkpt lat="40.0713749" lon="-105.229789">
  <ele>1583.0</ele>
  <time>2026-08-28T17:56:44Z</time>
  <course>247.66</course>
  <speed>0.0316227766016838</speed>
  <fix>3d</fix>
</trkpt>
<trkpt lat="40.0713749" lon="-105.229789">
  <ele>1583.0</ele>
  <time>2026-08-28T17:56:44Z</time>
  <course>0.0</course>
  <speed>0.0</speed>
  <fix>3d</fix>
</trkpt>
<trkpt lat="40.0713749" lon="-105.229789">
  <ele>1583.0</ele>
  <time>2026-08-28T17:56:44Z</time>
  <course>247.66</course>
  <speed>0.0316227766016838</speed>
  <fix>3d</fix>
</trkpt>
<trkpt lat="40.0713749" lon="-105.229789">
  <ele>1583.0</ele>
  <time>2026-08-28T17:56:44Z</time>
  <course>0.0</course>
  <speed>0.0</speed>
  <fix>3d</fix>
</trkpt>
<trkpt lat="40.0713749" lon="-105.229789">
  <ele>1583.0</ele>
  <time>2026-08-28T17:56:44Z</time>
  <course>247.65</course>
  <speed>0.0316227766016838</speed>
  <fix>3d</fix>
</trkpt>
<trkpt lat="40.0713749" lon="-105.229789">
  <ele>1583.0</ele>
  <time>2026-08-28T17:56:44Z</time>
  <course>0.0</course>
  <speed>0.0</speed>
  <fix>3d</fix>
</trkpt>
<trkpt lat="40.0713749" lon="-105.229789">
  <ele>1583.0</ele>
  <time>2026-08-28T17:56:44Z</time>
  <course>247.65</course>
  <speed>0.0316227766016838</speed>
  <fix>3d</fix>
</trkpt>
<trkpt lat="40.0713749" lon="-105.229789">
  <ele>1583.0</ele>
  <time>2026-08-28T17:56:44Z</time>
  <course>0.0</course>
  <speed>0.0</speed>
  <fix>3d</fix>
</trkpt>
<trkpt lat="40.0713749" lon="-105.229789">
  <ele>1583.0</ele>
  <time>2026-08-28T17:56:44Z</time>
  <course>247.65</course>
  <speed>0.0316227766016838</speed>
  <fix>3d</fix>
</trkpt>
<trkpt lat="40.0713749" lon="-105.229789">
  <ele>1583.0</ele>
  <time>2026-08-28T17:56:44Z</time>
  <course>0.0</course>
  <speed>0.0</speed>
  <fix>3d</fix>
</trkpt>
<trkpt lat="40.0713749" lon="-105.229789">
  <ele>1583.0</ele>
  <time>2026-08-28T17:56:44Z</time>
  <course>247.65</course>
  <speed>0.0316227766016838</speed>
  <fix>3d</fix>
</trkpt>
<trkpt lat="40.0713749" lon="-105.229789">
  <ele>1583.0</ele>
  <time>2026-08-28T17:56:44Z</time>
  <course>0.0</course>
  <speed>0.0</speed>
  <fix>3d</fix>
</trkpt>
<trkpt lat="40.0713749" lon="-105.229789">
  <ele>1583.0</ele>
  <time>2026-08-28T17:56:44Z</time>
  <course>247.64</course>
  <speed>0.0316227766016838</speed>
  <fix>3d</fix>
</trkpt>
<trkpt lat="40.0713749" lon="-105.229789">
  <ele>1583.0</ele>
  <time>2026-08-28T17:56:44Z</time>
  <course>0.0</course>
  <speed>0.0</speed>
  <fix>3d</fix>
</trkpt>
<trkpt lat="40.0713749" lon="-105.229789">
  <ele>1583.0</ele>
  <time>2026-08-28T17:56:44Z</time>
  <course>247.64</course>
  <speed>0.0316227766016838</speed>
  <fix>3d</fix>
</trkpt>
<trkpt lat="40.0713749" lon="-105.229789">
  <ele>1583.0</ele>
  <time>2026-08-28T17:56:44Z</time>
  <course>0.0</course>
  <speed>0.0</speed>
  <fix>3d</fix>
</trkpt>
<trkpt lat="40.0713749" lon="-105.229789">
  <ele>1583.0</ele>
  <time>2026-08-28T17:56:44Z</time>
  <course>247.64</course>
  <speed>0.0316227766016838</speed>
  <fix>3d</fix>
</trkpt>
<trkpt lat="40.0713749" lon="-105.229789">
  <ele>1583.0</ele>
  <time>2026-08-28T17:56:44Z</time>
  <course>0.0</course>
  <speed>0.0</speed>
  <fix>3d</fix>
</trkpt>
<trkpt lat="40.0713749" lon="-105.229789">
  <ele>1583.0</ele>
  <time>2026-08-28T17:56:44Z</time>
  <course>247.63</course>
  <speed>0.0316227766016838</speed>
  <fix>3d</fix>
</trkpt>
<trkpt lat="40.0713749" lon="-105.229789">
  <ele>1583.0</ele>
  <time>2026-08-28T17:56:44Z</time>
  <course>0.0</course>
  <speed>0.0</speed>
  <fix>3d</fix>
</trkpt>
<trkpt lat="40.0713749" lon="-105.229789">
  <ele>1583.0</ele>
  <time>2026-08-28T17:56:44Z</time>
  <course>247.63</course>
  <speed>0.0316227766016838</speed>
  <fix>3d</fix>
</trkpt>
<trkpt lat="40.0713749" lon="-105.229789">
  <ele>1583.0</ele>
  <time>2026-08-28T17:56:44Z</time>
  <course>0.0</course>
  <speed>0.0</speed>
  <fix>3d</fix>
</trkpt>
<trkpt lat="40.0713749" lon="-105.229789">
  <ele>1583.0</ele>
  <time>2026-08-28T17:56:44Z</time>
  <course>247.63</course>
  <speed>0.0316227766016838</speed>
  <fix>3d</fix>
</trkpt>
<trkpt lat="40.0713749" lon="-105.229789">
  <ele>1583.0</ele>
  <time>2026-08-28T17:56:44Z</time>
  <course>0.0</course>
  <speed>0.0</speed>
  <fix>3d</fix>
</trkpt>
<trkpt lat="40.0713749" lon="-105.229789">
  <ele>1583.0</ele>
  <time>2026-08-28T17:56:44Z</time>
  <course>247.62</course>
  <speed>0.0316227766016838</speed>
  <fix>3d</fix>
</trkpt>
<trkpt lat="40.0713749" lon="-105.229789">
  <ele>1583.0</ele>
  <time>2026-08-28T17:56:44Z</time>
  <course>0.0</course>
  <speed>0.0</speed>
  <fix>3d</fix>
</trkpt>
<trkpt lat="40.0713749" lon="-105.229789">
  <ele>1583.0</ele>
  <time>2026-08-28T17:56:44Z</time>
  <course>247.62</course>
  <speed>0.0316227766016838</speed>
  <fix>3d</fix>
</trkpt>
<trkpt lat="40.0713749" lon="-105.229789">
  <ele>1583.0</ele>
  <time>2026-08-28T17:56:44Z</time>
  <course>0.0</course>
  <speed>0.0</speed>
  <fix>3d</fix>
</trkpt>
<trkpt lat="40.0713749" lon="-105.229789">
  <ele>1583.0</ele>
  <time>2026-08-28T17:56:44Z</time>
  <course>247.62</course>
  <speed>0.0316227766016838</speed>
  <fix>3d</fix>
</trkpt>
<trkpt lat="40.0713749" lon="-105.229789">
  <ele>1583.0</ele>
  <time>2026-08-28T17:56:44Z</time>
  <course>0.0</course>
  <speed>0.0</speed>
  <fix>3d</fix>
</trkpt>
<trkpt lat="40.0713749" lon="-105.229789">
  <ele>1583.0</ele>
  <time>2026-08-28T17:56:44Z</time>
  <course>247.62</course>
  <speed>0.0316227766016838</speed>
  <fix>3d</fix>
</trkpt>
<trkpt lat="40.0713749" lon="-105.229789">
  <ele>1583.0</ele>
  <time>2026-08-28T17:56:44Z</time>
  <course>0.0</course>
  <speed>0.0</speed>
  <fix>3d</fix>
</trkpt>
<trkpt lat="40.0713749" lon="-105.229789">
  <ele>1583.0</ele>
  <time>2026-08-28T17:56:44Z</time>
  <course>247.61</course>
  <speed>0.0316227766016838</speed>
  <fix>3d</fix>
</trkpt>
<trkpt lat="40.0713749" lon="-105.229789">
  <ele>1583.0</ele>
  <time>2026-08-28T17:56:44Z</time>
  <course>0.0</course>
  <speed>0.0</speed>
  <fix>3d</fix>
</trkpt>
<trkpt lat="40.0713749" lon="-105.229789">
  <ele>1583.0</ele>
  <time>2026-08-28T17:56:44Z</time>
  <course>247.61</course>
  <speed>0.0316227766016838</speed>
  <fix>3d</fix>
</trkpt>
<trkpt lat="40.0713749" lon="-105.229789">
  <ele>1583.0</ele>
  <time>2026-08-28T17:56:44Z</time>
  <course>0.0</course>
  <speed>0.0</speed>
  <fix>3d</fix>
</trkpt>
<trkpt lat="40.0713749" lon="-105.229789">
  <ele>1583.0</ele>
  <time>2026-08-28T17:56:44Z</time>
  <course>247.61</course>
  <speed>0.0316227766016838</speed>
  <fix>3d</fix>
</trkpt>
<trkpt lat="40.0713749" lon="-105.229789">
  <ele>1583.0</ele>
  <time>2026-08-28T17:56:44Z</time>
  <course>0.0</course>
  <speed>0.0</speed>
  <fix>3d</fix>
</trkpt>
<trkpt lat="40.0713749" lon="-105.229789">
  <ele>1583.0</ele>
  <time>2026-08-28T17:56:44Z</time>
  <course>247.6</course>
  <speed>0.0316227766016838</speed>
  <fix>3d</fix>
</trkpt>
<trkpt lat="40.0713749" lon="-105.229789">
  <ele>1583.0</ele>
  <time>2026-08-28T17:56:44Z</time>
  <course>0.0</course>
  <speed>0.0</speed>
  <fix>3d</fix>
</trkpt>
<trkpt lat="40.0713749" lon="-105.229789">
  <ele>1583.0</ele>
  <time>2026-08-28T17:56:44Z</time>
  <course>247.6</course>
  <speed>0.0316227766016838</speed>
  <fix>3d</fix>
</trkpt>
<trkpt lat="40.0713749" lon="-105.229789">
  <ele>1583.0</ele>
  <time>2026-08-28T17:56:44Z</time>
  <course>0.0</course>
  <speed>0.0</speed>
  <fix>3d</fix>
</trkpt>
<trkpt lat="40.0713749" lon="-105.229789">
  <ele>1583.0</ele>
  <time>2026-08-28T17:56:44Z</time>
  <course>247.6</course>
  <speed>0.0316227766016838</speed>
  <fix>3d</fix>
</trkpt>
<trkpt lat="40.0713749" lon="-105.229789">
  <ele>1583.0</ele>
  <time>2026-08-28T17:56:44Z</time>
  <course>0.0</course>
  <speed>0.0</speed>
  <fix>3d</fix>
</trkpt>
<trkpt lat="40.0713749" lon="-105.229789">
  <ele>1583.0</ele>
  <time>2026-08-28T17:56:44Z</time>
  <course>247.6</course>
  <speed>0.0316227766016838</speed>
  <fix>3d</fix>
</trkpt>
<trkpt lat="40.0713749" lon="-105.229789">
  <ele>1583.0</ele>
  <time>2026-08-28T17:56:44Z</time>
  <course>0.0</course>
  <speed>0.0</speed>
  <fix>3d</fix>
</trkpt>
<trkpt lat="40.0713749" lon="-105.229789">
  <ele>1583.0</ele>
  <time>2026-08-28T17:56:44Z</time>
  <course>247.59</course>
  <speed>0.0316227766016838</speed>
  <fix>3d</fix>
</trkpt>
<trkpt lat="40.0713749" lon="-105.229789">
  <ele>1583.0</ele>
  <time>2026-08-28T17:56:44Z</time>
  <course>0.0</course>
  <speed>0.0</speed>
  <fix>3d</fix>
</trkpt>
<trkpt lat="40.0713749" lon="-105.229789">
  <ele>1583.0</ele>
  <time>2026-08-28T17:56:44Z</time>
  <course>247.59</course>
  <speed>0.0316227766016838</speed>
  <fix>3d</fix>
</trkpt>
<trkpt lat="40.0713749" lon="-105.229789">
  <ele>1583.0</ele>
  <time>2026-08-28T17:56:44Z</time>
  <course>0.0</course>
  <speed>0.0</speed>
  <fix>3d</fix>
</trkpt>
<trkpt lat="40.0713749" lon="-105.229789">
  <ele>1583.0</ele>
  <time>2026-08-28T17:56:44Z</time>
  <course>247.59</course>
  <speed>0.0316227766016838</speed>
  <fix>3d</fix>
</trkpt>
<trkpt lat="40.0713749" lon="-105.229789">
  <ele>1583.0</ele>
  <time>2026-08-28T17:56:44Z</time>
  <course>0.0</course>
  <speed>0.0</speed>
  <fix>3d</fix>
</trkpt>
<trkpt lat="40.0713749" lon="-105.229789">
  <ele>1583.0</ele>
  <time>2026-08-28T17:56:44Z</time>
  <course>247.59</course>
  <speed>0.0</speed>
  <fix>3d</fix>
</trkpt>
<trkpt lat="40.0713749" lon="-105.229789">
  <ele>1583.0</ele>
  <time>2026-08-28T17:56:44Z</time>
  <course>0.0</course>
  <speed>0.0</speed>
  <fix>3d</fix>
</trkpt>
<trkpt lat="40.0713749" lon="-105.229789">
  <ele>1583.0</ele>
  <time>2026-08-28T17:56:44Z</time>
  <course>247.58</course>
  <speed>0.0</speed>
  <fix>3d</fix>
</trkpt>
<trkpt lat="40.0713749" lon="-105.229789">
  <ele>1583.0</ele>
  <time>2026-08-28T17:56:44Z</time>
  <course>0.0</course>
  <speed>0.0</speed>
  <fix>3d</fix>
</trkpt>
<trkpt lat="40.0713749" lon="-105.229789">
  <ele>1583.01</ele>
  <time>2026-08-28T17:56:44Z</time>
  <course>247.58</course>
  <speed>0.0</speed>
  <fix>3d</fix>
</trkpt>
<trkpt lat="40.0713749" lon="-105.229789">
  <ele>1583.0</ele>
  <time>2026-08-28T17:56:44Z</time>
  <course>0.0</course>
  <speed>0.0</speed>
  <fix>3d</fix>
</trkpt>
<trkpt lat="40.0713749" lon="-105.229789">
  <ele>1583.01</ele>
  <time>2026-08-28T17:56:44Z</time>
  <course>247.58</course>
  <speed>0.0</speed>
  <fix>3d</fix>
</trkpt>
<trkpt lat="40.0713749" lon="-105.229789">
  <ele>1583.0</ele>
  <time>2026-08-28T17:56:44Z</time>
  <course>0.0</course>
  <speed>0.0</speed>
  <fix>3d</fix>
</trkpt>
<trkpt lat="40.0713749" lon="-105.229789">
  <ele>1583.02</ele>
  <time>2026-08-28T17:56:44Z</time>
  <course>247.58</course>
  <speed>0.0</speed>
  <fix>3d</fix>
</trkpt>
<trkpt lat="40.0713749" lon="-105.229789">
  <ele>1583.0</ele>
  <time>2026-08-28T17:56:44Z</time>
  <course>0.0</course>
  <speed>0.0</speed>
  <fix>3d</fix>
</trkpt>
<trkpt lat="40.0713749" lon="-105.229789">
  <ele>1583.02</ele>
  <time>2026-08-28T17:56:44Z</time>
  <course>247.57</course>
  <speed>0.0</speed>
  <fix>3d</fix>
</trkpt>
<trkpt lat="40.0713749" lon="-105.229789">
  <ele>1583.0</ele>
  <time>2026-08-28T17:56:44Z</time>
  <course>0.0</course>
  <speed>0.0</speed>
  <fix>3d</fix>
</trkpt>
<trkpt lat="40.0713749" lon="-105.229789">
  <ele>1583.02</ele>
  <time>2026-08-28T17:56:44Z</time>
  <course>247.57</course>
  <speed>0.0</speed>
  <fix>3d</fix>
</trkpt>
<trkpt lat="40.0713749" lon="-105.229789">
  <ele>1583.0</ele>
  <time>2026-08-28T17:56:44Z</time>
  <course>0.0</course>
  <speed>0.0</speed>
  <fix>3d</fix>
</trkpt>
<trkpt lat="40.0713749" lon="-105.229789">
  <ele>1583.02</ele>
  <time>2026-08-28T17:56:44Z</time>
  <course>247.57</course>
  <speed>0.0</speed>
  <fix>3d</fix>
</trkpt>
<trkpt lat="40.0713749" lon="-105.229789">
  <ele>1583.0</ele>
  <time>2026-08-28T17:56:44Z</time>
  <course>0.0</course>
  <speed>0.0</speed>
  <fix>3d</fix>
</trkpt>
<trkpt lat="40.0713749" lon="-105.229789">
  <ele>1583.02</ele>
  <time>2026-08-28T17:56:44Z</time>
  <course>247.57</course>
  <speed>0.0</speed>
  <fix>3d</fix>
</trkpt>
<trkpt lat="40.0713749" lon="-105.229789">
  <ele>1583.0</ele>
  <time>2026-08-28T17:56:44Z</time>
  <course>0.0</course>
  <speed>0.0</speed>
  <fix>3d</fix>
</trkpt>
<trkpt lat="40.0713749" lon="-105.229789">
  <ele>1583.02</ele>
  <time>2026-08-28T17:56:44Z</time>
  <course>247.56</course>
  <speed>0.01</speed>
  <fix>3d</fix>
</trkpt>
<trkpt lat="40.0713749" lon="-105.229789">
  <ele>1583.0</ele>
  <time>2026-08-28T17:56:44Z</time>
  <course>0.0</course>
  <speed>0.0</speed>
  <fix>3d</fix>
</trkpt>
<trkpt lat="40.0713749" lon="-105.229789">
  <ele>1583.02</ele>
  <time>2026-08-28T17:56:44Z</time>
  <course>247.56</course>
  <speed>0.01</speed>
  <fix>3d</fix>
</trkpt>
<trkpt lat="40.0713749" lon="-105.229789">
  <ele>1583.0</ele>
  <time>2026-08-28T17:56:44Z</time>
  <course>0.0</course>
  <speed>0.0</speed>
  <fix>3d</fix>
</trkpt>
<trkpt lat="40.0713749" lon="-105.229789">
  <ele>1583.02</ele>
  <time>2026-08-28T17:56:44Z</time>
  <course>247.56</course>
  <speed>0.01</speed>
  <fix>3d</fix>
</trkpt>
<trkpt lat="40.0713749" lon="-105.229789">
  <ele>1583.0</ele>
  <time>2026-08-28T17:56:44Z</time>
  <course>0.0</course>
  <speed>0.0</speed>
  <fix>3d</fix>
</trkpt>
<trkpt lat="40.0713749" lon="-105.229789">
  <ele>1583.02</ele>
  <time>2026-08-28T17:56:44Z</time>
  <course>247.56</course>
  <speed>0.01</speed>
  <fix>3d</fix>
</trkpt>
<trkpt lat="40.0713749" lon="-105.229789">
  <ele>1583.0</ele>
  <time>2026-08-28T17:56:44Z</time>
  <course>0.0</course>
  <speed>0.0</speed>
  <fix>3d</fix>
</trkpt>
<trkpt lat="40.0713749" lon="-105.229789">
  <ele>1583.02</ele>
  <time>2026-08-28T17:56:44Z</time>
  <course>247.55</course>
  <speed>0.01</speed>
  <fix>3d</fix>
</trkpt>
<trkpt lat="40.0713749" lon="-105.229789">
  <ele>1583.0</ele>
  <time>2026-08-28T17:56:44Z</time>
  <course>0.0</course>
  <speed>0.0</speed>
  <fix>3d</fix>
</trkpt>
<trkpt lat="40.0713749" lon="-105.229789">
  <ele>1583.03</ele>
  <time>2026-08-28T17:56:44Z</time>
  <course>247.55</course>
  <speed>0.01</speed>
  <fix>3d</fix>
</trkpt>
<trkpt lat="40.0713749" lon="-105.229789">
  <ele>1583.0</ele>
  <time>2026-08-28T17:56:44Z</time>
  <course>0.0</course>
  <speed>0.0</speed>
  <fix>3d</fix>
</trkpt>
<trkpt lat="40.0713749" lon="-105.229789">
  <ele>1583.03</ele>
  <time>2026-08-28T17:56:44Z</time>
  <course>247.55</course>
  <speed>0.01</speed>
  <fix>3d</fix>
</trkpt>
<trkpt lat="40.0713749" lon="-105.229789">
  <ele>1583.0</ele>
  <time>2026-08-28T17:56:44Z</time>
  <course>0.0</course>
  <speed>0.0</speed>
  <fix>3d</fix>
</trkpt>
<trkpt lat="40.0713749" lon="-105.229789">
  <ele>1583.04</ele>
  <time>2026-08-28T17:56:44Z</time>
  <course>247.55</course>
  <speed>0.01</speed>
  <fix>3d</fix>
</trkpt>
<trkpt lat="40.0713749" lon="-105.229789">
  <ele>1583.0</ele>
  <time>2026-08-28T17:56:44Z</time>
  <course>0.0</course>
  <speed>0.0</speed>
  <fix>3d</fix>
</trkpt>
<trkpt lat="40.0713749" lon="-105.229789">
  <ele>1583.04</ele>
  <time>2026-08-28T17:56:44Z</time>
  <course>247.55</course>
  <speed>0.01</speed>
  <fix>3d</fix>
</trkpt>
<trkpt lat="40.0713749" lon="-105.229789">
  <ele>1583.0</ele>
  <time>2026-08-28T17:56:44Z</time>
  <course>0.0</course>
  <speed>0.0</speed>
  <fix>3d</fix>
</trkpt>
<trkpt lat="40.0713749" lon="-105.229789">
  <ele>1583.05</ele>
  <time>2026-08-28T17:56:44Z</time>
  <course>247.54</course>
  <speed>0.02</speed>
  <fix>3d</fix>
</trkpt>
<trkpt lat="40.0713749" lon="-105.229789">
  <ele>1583.0</ele>
  <time>2026-08-28T17:56:44Z</time>
  <course>0.0</course>
  <speed>0.0</speed>
  <fix>3d</fix>
</trkpt>
<trkpt lat="40.0713749" lon="-105.229789">
  <ele>1583.05</ele>
  <time>2026-08-28T17:56:44Z</time>
  <course>247.54</course>
  <speed>0.02</speed>
  <fix>3d</fix>
</trkpt>
<trkpt lat="40.0713749" lon="-105.229789">
  <ele>1583.0</ele>
  <time>2026-08-28T17:56:44Z</time>
  <course>0.0</course>
  <speed>0.0</speed>
  <fix>3d</fix>
</trkpt>
<trkpt lat="40.0713749" lon="-105.229789">
  <ele>1583.05</ele>
  <time>2026-08-28T17:56:44Z</time>
  <course>247.54</course>
  <speed>0.02</speed>
  <fix>3d</fix>
</trkpt>
<trkpt lat="40.0713749" lon="-105.229789">
  <ele>1583.0</ele>
  <time>2026-08-28T17:56:44Z</time>
  <course>0.0</course>
  <speed>0.0</speed>
  <fix>3d</fix>
</trkpt>
<trkpt lat="40.0713749" lon="-105.229789">
  <ele>1583.05</ele>
  <time>2026-08-28T17:56:44Z</time>
  <course>247.54</course>
  <speed>0.022360679774997897</speed>
  <fix>3d</fix>
</trkpt>
<trkpt lat="40.0713749" lon="-105.229789">
  <ele>1583.0</ele>
  <time>2026-08-28T17:56:44Z</time>
  <course>0.0</course>
  <speed>0.0</speed>
  <fix>3d</fix>
</trkpt>
<trkpt lat="40.0713749" lon="-105.229789">
  <ele>1583.05</ele>
  <time>2026-08-28T17:56:44Z</time>
  <course>247.54</course>
  <speed>0.022360679774997897</speed>
  <fix>3d</fix>
</trkpt>
<trkpt lat="40.0713749" lon="-105.229789">
  <ele>1583.0</ele>
  <time>2026-08-28T17:56:44Z</time>
  <course>0.0</course>
  <speed>0.0</speed>
  <fix>3d</fix>
</trkpt>
<trkpt lat="40.0713749" lon="-105.229789">
  <ele>1583.05</ele>
  <time>2026-08-28T17:56:44Z</time>
  <course>247.53</course>
  <speed>0.022360679774997897</speed>
  <fix>3d</fix>
</trkpt>
<trkpt lat="40.0713749" lon="-105.229789">
  <ele>1583.0</ele>
  <time>2026-08-28T17:56:44Z</time>
  <course>0.0</course>
  <speed>0.0</speed>
  <fix>3d</fix>
</trkpt>
<trkpt lat="40.0713749" lon="-105.229789">
  <ele>1583.05</ele>
  <time>2026-08-28T17:56:44Z</time>
  <course>247.53</course>
  <speed>0.022360679774997897</speed>
  <fix>3d</fix>
</trkpt>
<trkpt lat="40.0713749" lon="-105.229789">
  <ele>1583.0</ele>
  <time>2026-08-28T17:56:44Z</time>
  <course>0.0</course>
  <speed>0.0</speed>
  <fix>3d</fix>
</trkpt>
<trkpt lat="40.071375" lon="-105.229789">
  <ele>1583.04</ele>
  <time>2026-08-28T17:56:44Z</time>
  <course>247.53</course>
  <speed>0.022360679774997897</speed>
  <fix>3d</fix>
</trkpt>
<trkpt lat="40.0713749" lon="-105.229789">
  <ele>1583.0</ele>
  <time>2026-08-28T17:56:44Z</time>
  <course>0.0</course>
  <speed>0.0</speed>
  <fix>3d</fix>
</trkpt>
<trkpt lat="40.071375" lon="-105.229789">
  <ele>1583.05</ele>
  <time>2026-08-28T17:56:44Z</time>
  <course>247.53</course>
  <speed>0.02</speed>
  <fix>3d</fix>
</trkpt>
<trkpt lat="40.0713749" lon="-105.229789">
  <ele>1583.0</ele>
  <time>2026-08-28T17:56:44Z</time>
  <course>0.0</course>
  <speed>0.0</speed>
  <fix>3d</fix>
</trkpt>
<trkpt lat="40.071375" lon="-105.229789">
  <ele>1583.05</ele>
  <time>2026-08-28T17:56:44Z</time>
  <course>247.52</course>
  <speed>0.02</speed>
  <fix>3d</fix>
</trkpt>
<trkpt lat="40.0713749" lon="-105.229789">
  <ele>1583.0</ele>
  <time>2026-08-28T17:56:44Z</time>
  <course>0.0</course>
  <speed>0.0</speed>
  <fix>3d</fix>
</trkpt>
<trkpt lat="40.071375" lon="-105.229789">
  <ele>1583.05</ele>
  <time>2026-08-28T17:56:44Z</time>
  <course>247.52</course>
  <speed>0.02</speed>
  <fix>3d</fix>
</trkpt>
<trkpt lat="40.0713749" lon="-105.229789">
  <ele>1583.0</ele>
  <time>2026-08-28T17:56:44Z</time>
  <course>0.0</course>
  <speed>0.0</speed>
  <fix>3d</fix>
</trkpt>
<trkpt lat="40.071375" lon="-105.229789">
  <ele>1583.06</ele>
  <time>2026-08-28T17:56:44Z</time>
  <course>247.52</course>
  <speed>0.01</speed>
  <fix>3d</fix>
</trkpt>
<trkpt lat="40.0713749" lon="-105.229789">
  <ele>1583.0</ele>
  <time>2026-08-28T17:56:44Z</time>
  <course>0.0</course>
  <speed>0.0</speed>
  <fix>3d</fix>
</trkpt>
<trkpt lat="40.071375" lon="-105.229789">
  <ele>1583.06</ele>
  <time>2026-08-28T17:56:44Z</time>
  <course>247.52</course>
  <speed>0.01</speed>
  <fix>3d</fix>
</trkpt>
<trkpt lat="40.0713749" lon="-105.229789">
  <ele>1583.0</ele>
  <time>2026-08-28T17:56:44Z</time>
  <course>0.0</course>
  <speed>0.0</speed>
  <fix>3d</fix>
</trkpt>
<trkpt lat="40.071375" lon="-105.229789">
  <ele>1583.06</ele>
  <time>2026-08-28T17:56:44Z</time>
  <course>247.51</course>
  <speed>0.01</speed>
  <fix>3d</fix>
</trkpt>
<trkpt lat="40.0713749" lon="-105.229789">
  <ele>1583.0</ele>
  <time>2026-08-28T17:56:44Z</time>
  <course>0.0</course>
  <speed>0.0</speed>
  <fix>3d</fix>
</trkpt>
<trkpt lat="40.0713749" lon="-105.229789">
  <ele>1583.06</ele>
  <time>2026-08-28T17:56:44Z</time>
  <course>247.51</course>
  <speed>0.01</speed>
  <fix>3d</fix>
</trkpt>
<trkpt lat="40.0713749" lon="-105.229789">
  <ele>1583.0</ele>
  <time>2026-08-28T17:56:44Z</time>
  <course>0.0</course>
  <speed>0.0</speed>
  <fix>3d</fix>
</trkpt>
<trkpt lat="40.0713749" lon="-105.229789">
  <ele>1583.06</ele>
  <time>2026-08-28T17:56:44Z</time>
  <course>247.51</course>
  <speed>0.01</speed>
  <fix>3d</fix>
</trkpt>
<trkpt lat="40.0713749" lon="-105.229789">
  <ele>1583.0</ele>
  <time>2026-08-28T17:56:44Z</time>
  <course>0.0</course>
  <speed>0.0</speed>
  <fix>3d</fix>
</trkpt>
<trkpt lat="40.0713749" lon="-105.229789">
  <ele>1583.07</ele>
  <time>2026-08-28T17:56:44Z</time>
  <course>247.51</course>
  <speed>0.01</speed>
  <fix>3d</fix>
</trkpt>
<trkpt lat="40.0713749" lon="-105.229789">
  <ele>1583.0</ele>
  <time>2026-08-28T17:56:44Z</time>
  <course>0.0</course>
  <speed>0.0</speed>
  <fix>3d</fix>
</trkpt>
<trkpt lat="40.0713749" lon="-105.229789">
  <ele>1583.07</ele>
  <time>2026-08-28T17:56:44Z</time>
  <course>247.51</course>
  <speed>0.01</speed>
  <fix>3d</fix>
</trkpt>
<trkpt lat="40.0713749" lon="-105.229789">
  <ele>1583.0</ele>
  <time>2026-08-28T17:56:44Z</time>
  <course>0.0</course>
  <speed>0.0</speed>
  <fix>3d</fix>
</trkpt>
<trkpt lat="40.0713749" lon="-105.229789">
  <ele>1583.07</ele>
  <time>2026-08-28T17:56:44Z</time>
  <course>247.5</course>
  <speed>0.01</speed>
  <fix>3d</fix>
</trkpt>
<trkpt lat="40.0713749" lon="-105.229789">
  <ele>1583.0</ele>
  <time>2026-08-28T17:56:44Z</time>
  <course>0.0</course>
  <speed>0.0</speed>
  <fix>3d</fix>
</trkpt>
<trkpt lat="40.0713749" lon="-105.229789">
  <ele>1583.08</ele>
  <time>2026-08-28T17:56:44Z</time>
  <course>247.5</course>
  <speed>0.01</speed>
  <fix>3d</fix>
</trkpt>
<trkpt lat="40.0713749" lon="-105.229789">
  <ele>1583.0</ele>
  <time>2026-08-28T17:56:44Z</time>
  <course>0.0</course>
  <speed>0.0</speed>
  <fix>3d</fix>
</trkpt>
<trkpt lat="40.0713749" lon="-105.229789">
  <ele>1583.08</ele>
  <time>2026-08-28T17:56:44Z</time>
  <course>247.5</course>
  <speed>0.01</speed>
  <fix>3d</fix>
</trkpt>
<trkpt lat="40.0713749" lon="-105.229789">
  <ele>1583.0</ele>
  <time>2026-08-28T17:56:44Z</time>
  <course>0.0</course>
  <speed>0.0</speed>
  <fix>3d</fix>
</trkpt>
<trkpt lat="40.0713749" lon="-105.229789">
  <ele>1583.09</ele>
  <time>2026-08-28T17:56:44Z</time>
  <course>247.5</course>
  <speed>0.01</speed>
  <fix>3d</fix>
</trkpt>
<trkpt lat="40.0713749" lon="-105.229789">
  <ele>1583.0</ele>
  <time>2026-08-28T17:56:44Z</time>
  <course>0.0</course>
  <speed>0.0</speed>
  <fix>3d</fix>
</trkpt>
<trkpt lat="40.0713749" lon="-105.229789">
  <ele>1583.09</ele>
  <time>2026-08-28T17:56:44Z</time>
  <course>247.5</course>
  <speed>0.01</speed>
  <fix>3d</fix>
</trkpt>
<trkpt lat="40.0713749" lon="-105.229789">
  <ele>1583.0</ele>
  <time>2026-08-28T17:56:44Z</time>
  <course>0.0</course>
  <speed>0.0</speed>
  <fix>3d</fix>
</trkpt>
<trkpt lat="40.0713749" lon="-105.229789">
  <ele>1583.1</ele>
  <time>2026-08-28T17:56:44Z</time>
  <course>247.49</course>
  <speed>0.0</speed>
  <fix>3d</fix>
</trkpt>
<trkpt lat="40.0713749" lon="-105.229789">
  <ele>1583.0</ele>
  <time>2026-08-28T17:56:44Z</time>
  <course>0.0</course>
  <speed>0.0</speed>
  <fix>3d</fix>
</trkpt>
<trkpt lat="40.0713749" lon="-105.229789">
  <ele>1583.1</ele>
  <time>2026-08-28T17:56:44Z</time>
  <course>247.49</course>
  <speed>0.0</speed>
  <fix>3d</fix>
</trkpt>
<trkpt lat="40.0713749" lon="-105.229789">
  <ele>1583.0</ele>
  <time>2026-08-28T17:56:44Z</time>
  <course>0.0</course>
  <speed>0.0</speed>
  <fix>3d</fix>
</trkpt>
<trkpt lat="40.0713749" lon="-105.229789">
  <ele>1583.11</ele>
  <time>2026-08-28T17:56:44Z</time>
  <course>247.49</course>
  <speed>0.0</speed>
  <fix>3d</fix>
</trkpt>
<trkpt lat="40.0713749" lon="-105.229789">
  <ele>1583.0</ele>
  <time>2026-08-28T17:56:44Z</time>
  <course>0.0</course>
  <speed>0.0</speed>
  <fix>3d</fix>
</trkpt>
<trkpt lat="40.0713749" lon="-105.229789">
  <ele>1583.11</ele>
  <time>2026-08-28T17:56:44Z</time>
  <course>247.48</course>
  <speed>0.0</speed>
  <fix>3d</fix>
</trkpt>
<trkpt lat="40.0713749" lon="-105.229789">
  <ele>1583.0</ele>
  <time>2026-08-28T17:56:44Z</time>
  <course>0.0</course>
  <speed>0.0</speed>
  <fix>3d</fix>
</trkpt>
<trkpt lat="40.0713749" lon="-105.229789">
  <ele>1583.12</ele>
  <time>2026-08-28T17:56:44Z</time>
  <course>247.39</course>
  <speed>0.0</speed>
  <fix>3d</fix>
</trkpt>
<trkpt lat="40.0713749" lon="-105.229789">
  <ele>1583.0</ele>
  <time>2026-08-28T17:56:44Z</time>
  <course>245.9</course>
  <speed>0.0</speed>
  <fix>3d</fix>
</trkpt>
<trkpt lat="40.0713749" lon="-105.229789">
  <ele>1583.12</ele>
  <time>2026-08-28T17:56:44Z</time>
  <course>247.23</course>
  <speed>0.0</speed>
  <fix>3d</fix>
</trkpt>
<trkpt lat="40.0713749" lon="-105.229789">
  <ele>1583.0</ele>
  <time>2026-08-28T17:56:44Z</time>
  <course>245.9</course>
  <speed>0.0</speed>
  <fix>3d</fix>
</trkpt>
<trkpt lat="40.0713749" lon="-105.229789">
  <ele>1583.12</ele>
  <time>2026-08-28T17:56:44Z</time>
  <course>246.98</course>
  <speed>0.0</speed>
  <fix>3d</fix>
</trkpt>
<trkpt lat="40.0713749" lon="-105.229789">
  <ele>1583.0</ele>
  <time>2026-08-28T17:56:44Z</time>
  <course>245.55</course>
  <speed>0.0</speed>
  <fix>3d</fix>
</trkpt>
<trkpt lat="40.0713749" lon="-105.229789">
  <ele>1583.13</ele>
  <time>2026-08-28T17:56:44Z</time>
  <course>246.67</course>
  <speed>0.0</speed>
  <fix>3d</fix>
</trkpt>
<trkpt lat="40.0713749" lon="-105.229789">
  <ele>1583.0</ele>
  <time>2026-08-28T17:56:44Z</time>
  <course>245.55</course>
  <speed>0.0</speed>
  <fix>3d</fix>
</trkpt>
<trkpt lat="40.0713749" lon="-105.229789">
  <ele>1583.13</ele>
  <time>2026-08-28T17:56:44Z</time>
  <course>246.3</course>
  <speed>0.01</speed>
  <fix>3d</fix>
</trkpt>
<trkpt lat="40.0713749" lon="-105.229789">
  <ele>1583.0</ele>
  <time>2026-08-28T17:56:44Z</time>
  <course>244.97</course>
  <speed>0.01</speed>
  <fix>3d</fix>
</trkpt>
<trkpt lat="40.0713749" lon="-105.229789">
  <ele>1583.13</ele>
  <time>2026-08-28T17:56:44Z</time>
  <course>245.88</course>
  <speed>0.02</speed>
  <fix>3d</fix>
</trkpt>
<trkpt lat="40.0713749" lon="-105.229789">
  <ele>1583.0</ele>
  <time>2026-08-28T17:56:44Z</time>
  <course>244.97</course>
  <speed>0.01</speed>
  <fix>3d</fix>
</trkpt>
<trkpt lat="40.0713749" lon="-105.229789">
  <ele>1583.14</ele>
  <time>2026-08-28T17:56:44Z</time>
  <course>245.42</course>
  <speed>0.0316227766016838</speed>
  <fix>3d</fix>
</trkpt>
<trkpt lat="40.0713749" lon="-105.229789">
  <ele>1583.0</ele>
  <time>2026-08-28T17:56:44Z</time>
  <course>244.21</course>
  <speed>0.03</speed>
  <fix>3d</fix>
</trkpt>
<trkpt lat="40.0713749" lon="-105.2297891">
  <ele>1583.14</ele>
  <time>2026-08-28T17:56:44Z</time>
  <course>244.94</course>
  <speed>0.05099019513592785</speed>
  <fix>3d</fix>
</trkpt>
<trkpt lat="40.0713749" lon="-105.229789">
  <ele>1583.0</ele>
  <time>2026-08-28T17:56:44Z</time>
  <course>244.21</course>
  <speed>0.03</speed>
  <fix>3d</fix>
</trkpt>
<trkpt lat="40.0713749" lon="-105.2297892">
  <ele>1583.14</ele>
  <time>2026-08-28T17:56:44Z</time>
  <course>244.43</course>
  <speed>0.07280109889280519</speed>
  <fix>3d</fix>
</trkpt>
<trkpt lat="40.0713749" lon="-105.2297891">
  <ele>1583.0</ele>
  <time>2026-08-28T17:56:44Z</time>
  <course>243.3</course>
  <speed>0.06</speed>
  <fix>3d</fix>
</trkpt>
<trkpt lat="40.0713749" lon="-105.2297893">
  <ele>1583.14</ele>
  <time>2026-08-28T17:56:44Z</time>
  <course>243.91</course>
  <speed>0.09848857801796104</speed>
  <fix>3d</fix>
</trkpt>
<trkpt lat="40.0713749" lon="-105.2297891">
  <ele>1583.0</ele>
  <time>2026-08-28T17:56:44Z</time>
  <course>243.3</course>
  <speed>0.06</speed>
  <fix>3d</fix>
</trkpt>
<trkpt lat="40.0713748" lon="-105.2297894">
  <ele>1583.13</ele>
  <time>2026-08-28T17:56:44Z</time>
  <course>243.38</course>
  <speed>0.13</speed>
  <fix>3d</fix>
</trkpt>
<trkpt lat="40.0713749" lon="-105.2297892">
  <ele>1583.0</ele>
  <time>2026-08-28T17:56:44Z</time>
  <course>242.3</course>
  <speed>0.11</speed>
  <fix>3d</fix>
</trkpt>
<trkpt lat="40.0713748" lon="-105.2297896">
  <ele>1583.13</ele>
  <time>2026-08-28T17:56:44Z</time>
  <course>242.86</course>
  <speed>0.15231546211727817</speed>
  <fix>3d</fix>
</trkpt>
<trkpt lat="40.0713749" lon="-105.2297892">
  <ele>1583.0</ele>
  <time>2026-08-28T17:56:44Z</time>
  <course>242.3</course>
  <speed>0.11</speed>
  <fix>3d</fix>
</trkpt>
<trkpt lat="40.0713747" lon="-105.2297898">
  <ele>1583.13</ele>
  <time>2026-08-28T17:56:44Z</time>
  <course>242.35</course>
  <speed>0.18788294228055935</speed>
  <fix>3d</fix>
</trkpt>
<trkpt lat="40.0713749" lon="-105.2297892">
  <ele>1583.0</ele>
  <time>2026-08-28T17:56:44Z</time>
  <course>242.3</course>
  <speed>0.11</speed>
  <fix>3d</fix>
</trkpt>
<trkpt lat="40.0713746" lon="-105.22979">
  <ele>1583.13</ele>
  <time>2026-08-28T17:56:44Z</time>
  <course>241.84</course>
  <speed>0.23259406699226015</speed>
  <fix>3d</fix>
</trkpt>
<trkpt lat="40.0713748" lon="-105.2297896">
  <ele>1583.0</ele>
  <time>2026-08-28T17:56:44Z</time>
  <course>241.28</course>
  <speed>0.17</speed>
  <fix>3d</fix>
</trkpt>
<trkpt lat="40.0713745" lon="-105.2297903">
  <ele>1583.13</ele>
  <time>2026-08-28T17:56:44Z</time>
  <course>241.37</course>
  <speed>0.2683281572999748</speed>
  <fix>3d</fix>
</trkpt>
<trkpt lat="40.0713748" lon="-105.2297896">
  <ele>1583.0</ele>
  <time>2026-08-28T17:56:44Z</time>
  <course>241.28</course>
  <speed>0.17</speed>
  <fix>3d</fix>
</trkpt>
<trkpt lat="40.0713744" lon="-105.2297906">
  <ele>1583.13</ele>
  <time>2026-08-28T17:56:44Z</time>
  <course>240.92</course>
  <speed>0.3176476034853718</speed>
  <fix>3d</fix>
</trkpt>
<trkpt lat="40.0713746" lon="-105.22979">
  <ele>1583.0</ele>
  <time>2026-08-28T17:56:44Z</time>
  <course>240.3</course>
  <speed>0.24</speed>
  <fix>3d</fix>
</trkpt>
<trkpt lat="40.0713742" lon="-105.229791">
  <ele>1583.13</ele>
  <time>2026-08-28T17:56:44Z</time>
  <course>240.51</course>
  <speed>0.37589892258425</speed>
  <fix>3d</fix>
</trkpt>
<trkpt lat="40.0713746" lon="-105.22979">
  <ele>1583.0</ele>
  <time>2026-08-28T17:56:44Z</time>
  <course>240.3</course>
  <speed>0.24</speed>
  <fix>3d</fix>
</trkpt>
<trkpt lat="40.071374" lon="-105.2297914">
  <ele>1583.13</ele>
  <time>2026-08-28T17:56:44Z</time>
  <course>240.14</course>
  <speed>0.4341658669218482</speed>
  <fix>3d</fix>
</trkpt>
<trkpt lat="40.0713743" lon="-105.2297906">
  <ele>1583.0</ele>
  <time>2026-08-28T17:56:44Z</time>
  <course>239.4</course>
  <speed>0.33</speed>
  <fix>3d</fix>
</trkpt>
<trkpt lat="40.0713738" lon="-105.2297919">
  <ele>1583.13</ele>
  <time>2026-08-28T17:56:44Z</time>
  <course>239.82</course>
  <speed>0.49244289008980524</speed>
  <fix>3d</fix>
</trkpt>
<trkpt lat="40.071374" lon="-105.2297914">
  <ele>1583.0</ele>
  <time>2026-08-28T17:56:44Z</time>
  <course>238.66</course>
  <speed>0.44</speed>
  <fix>3d</fix>
</trkpt>
<trkpt lat="40.0713735" lon="-105.2297924">
  <ele>1583.13</ele>
  <time>2026-08-28T17:56:44Z</time>
  <course>239.54</course>
  <speed>0.5507267925205745</speed>
  <fix>3d</fix>
</trkpt>
<trkpt lat="40.071374" lon="-105.2297914">
  <ele>1583.0</ele>
  <time>2026-08-28T17:56:44Z</time>
  <course>238.66</course>
  <speed>0.44</speed>
  <fix>3d</fix>
</trkpt>
<trkpt lat="40.0713733" lon="-105.229793">
  <ele>1583.14</ele>
  <time>2026-08-28T17:56:44Z</time>
  <course>239.3</course>
  <speed>0.6226556030423239</speed>
  <fix>3d</fix>
</trkpt>
<trkpt lat="40.0713734" lon="-105.2297924">
  <ele>1583.0</ele>
  <time>2026-08-28T17:56:44Z</time>
  <course>238.07</course>
  <speed>0.56</speed>
  <fix>3d</fix>
</trkpt>
<trkpt lat="40.0713729" lon="-105.2297937">
  <ele>1583.14</ele>
  <time>2026-08-28T17:56:44Z</time>
  <course>239.1</course>
  <speed>0.6946221994724903</speed>
  <fix>3d</fix>
</trkpt>
<trkpt lat="40.0713734" lon="-105.2297924">
  <ele>1583.0</ele>
  <time>2026-08-28T17:56:44Z</time>
  <course>238.07</course>
  <speed>0.56</speed>
  <fix>3d</fix>
</trkpt>
<trkpt lat="40.0713726" lon="-105.2297945">
  <ele>1583.14</ele>
  <time>2026-08-28T17:56:44Z</time>
  <course>238.93</course>
  <speed>0.7666159403508382</speed>
  <fix>3d</fix>
</trkpt>
<trkpt lat="40.0713729" lon="-105.2297936">
  <ele>1583.0</ele>
  <time>2026-08-28T17:56:44Z</time>
  <course>237.64</course>
  <speed>0.7</speed>
  <fix>3d</fix>
</trkpt>
<trkpt lat="40.0713722" lon="-105.2297953">
  <ele>1583.14</ele>
  <time>2026-08-28T17:56:44Z</time>
  <course>238.79</course>
  <speed>0.8386298349093002</speed>
  <fix>3d</fix>
</trkpt>
<trkpt lat="40.0713729" lon="-105.2297936">
  <ele>1583.0</ele>
  <time>2026-08-28T17:56:44Z</time>
  <course>237.64</course>
  <speed>0.7</speed>
  <fix>3d</fix>
</trkpt>
<trkpt lat="40.0713718" lon="-105.2297962">
  <ele>1583.15</ele>
  <time>2026-08-28T17:56:44Z</time>
  <course>238.68</course>
  <speed>0.9243916918709297</speed>
  <fix>3d</fix>
</trkpt>
<trkpt lat="40.0713721" lon="-105.2297952">
  <ele>1583.0</ele>
  <time>2026-08-28T17:56:44Z</time>
  <course>237.35</course>
  <speed>0.85</speed>
  <fix>3d</fix>
</trkpt>
<trkpt lat="40.0713713" lon="-105.2297972">
  <ele>1583.15</ele>
  <time>2026-08-28T17:56:44Z</time>
  <course>238.6</course>
  <speed>1.004987562112089</speed>
  <fix>3d</fix>
</trkpt>
<trkpt lat="40.0713721" lon="-105.2297952">
  <ele>1583.0</ele>
  <time>2026-08-28T17:56:44Z</time>
  <course>237.35</course>
  <speed>0.85</speed>
  <fix>3d</fix>
</trkpt>
<trkpt lat="40.0713708" lon="-105.2297983">
  <ele>1583.15</ele>
  <time>2026-08-28T17:56:44Z</time>
  <course>238.54</course>
  <speed>1.0770329614269007</speed>
  <fix>3d</fix>
</trkpt>
<trkpt lat="40.0713712" lon="-105.2297971">
  <ele>1583.0</ele>
  <time>2026-08-28T17:56:44Z</time>
  <course>237.17</course>
  <speed>1.01</speed>
  <fix>3d</fix>
</trkpt>
<trkpt lat="40.0713702" lon="-105.2297995">
  <ele>1583.15</ele>
  <time>2026-08-28T17:56:44Z</time>
  <course>238.5</course>
  <speed>1.1713667231059623</speed>
  <fix>3d</fix>
</trkpt>
<trkpt lat="40.0713712" lon="-105.2297971">
  <ele>1583.0</ele>
  <time>2026-08-28T17:56:44Z</time>
  <course>237.17</course>
  <speed>1.01</speed>
  <fix>3d</fix>
</trkpt>
<trkpt lat="40.0713696" lon="-105.2298007">
  <ele>1583.15</ele>
  <time>2026-08-28T17:56:44Z</time>
  <course>238.47</course>
  <speed>1.257179382586272</speed>
  <fix>3d</fix>
</trkpt>
<trkpt lat="40.0713701" lon="-105.2297992">
  <ele>1583.0</ele>
  <time>2026-08-28T17:56:44Z</time>
  <course>237.08</course>
  <speed>1.17</speed>
  <fix>3d</fix>
</trkpt>
<trkpt lat="40.0713689" lon="-105.229802">
  <ele>1583.15</ele>
  <time>2026-08-28T17:56:44Z</time>
  <course>238.45</course>
  <speed>1.3377593206552516</speed>
  <fix>3d</fix>
</trkpt>
<trkpt lat="40.0713701" lon="-105.2297992">
  <ele>1583.0</ele>
  <time>2026-08-28T17:56:44Z</time>
  <course>237.08</course>
  <speed>1.17</speed>
  <fix>3d</fix>
</trkpt>
<trkpt lat="40.0713683" lon="-105.2298034">
  <ele>1583.15</ele>
  <time>2026-08-28T17:56:44Z</time>
  <course>238.44</course>
  <speed>1.432096365472659</speed>
  <fix>3d</fix>
</trkpt>
<trkpt lat="40.0713689" lon="-105.2298017">
  <ele>1583.0</ele>
  <time>2026-08-28T17:56:44Z</time>
  <course>237.04</course>
  <speed>1.34</speed>
  <fix>3d</fix>
</trkpt>
<trkpt lat="40.0713675" lon="-105.2298049">
  <ele>1583.15</ele>
  <time>2026-08-28T17:56:44Z</time>
  <course>238.43</course>
  <speed>1.517926216915697</speed>
  <fix>3d</fix>
</trkpt>
<trkpt lat="40.0713689" lon="-105.2298017">
  <ele>1583.0</ele>
  <time>2026-08-28T17:56:44Z</time>
  <course>237.04</course>
  <speed>1.34</speed>
  <fix>3d</fix>
</trkpt>
<trkpt lat="40.0713667" lon="-105.2298065">
  <ele>1583.15</ele>
  <time>2026-08-28T17:56:44Z</time>
  <course>238.43</course>
  <speed>1.6122654868228121</speed>
  <fix>3d</fix>
</trkpt>
<trkpt lat="40.0713689" lon="-105.2298017">
  <ele>1583.0</ele>
  <time>2026-08-28T17:56:44Z</time>
  <course>237.04</course>
  <speed>1.34</speed>
  <fix>3d</fix>
</trkpt>
<trkpt lat="40.0713659" lon="-105.2298082">
  <ele>1583.15</ele>
  <time>2026-08-28T17:56:44Z</time>
  <course>238.43</course>
  <speed>1.706604816587601</speed>
  <fix>3d</fix>
</trkpt>
<trkpt lat="40.0713675" lon="-105.2298045">
  <ele>1583.0</ele>
  <time>2026-08-28T17:56:44Z</time>
  <course>237.03</course>
  <speed>1.52</speed>
  <fix>3d</fix>
</trkpt>
<trkpt lat="40.0713651" lon="-105.2298099">
  <ele>1583.15</ele>
  <time>2026-08-28T17:56:44Z</time>
  <course>238.44</course>
  <speed>1.7871765441612084</speed>
  <fix>3d</fix>
</trkpt>
<trkpt lat="40.0713675" lon="-105.2298045">
  <ele>1583.0</ele>
  <time>2026-08-28T17:56:44Z</time>
  <course>237.03</course>
  <speed>1.52</speed>
  <fix>3d</fix>
</trkpt>
<trkpt lat="40.0713642" lon="-105.2298117">
  <ele>1583.15</ele>
  <time>2026-08-28T17:56:44Z</time>
  <course>238.45</course>
  <speed>1.8815153467351788</speed>
  <fix>3d</fix>
</trkpt>
<trkpt lat="40.0713659" lon="-105.2298077">
  <ele>1583.0</ele>
  <time>2026-08-28T17:56:44Z</time>
  <course>237.05</course>
  <speed>1.7</speed>
  <fix>3d</fix>
</trkpt>
<trkpt lat="40.0713632" lon="-105.2298137">
  <ele>1583.15</ele>
  <time>2026-08-28T17:56:44Z</time>
  <course>238.46</course>
  <speed>1.9758542456365549</speed>
  <fix>3d</fix>
</trkpt>
<trkpt lat="40.0713659" lon="-105.2298077">
  <ele>1583.0</ele>
  <time>2026-08-28T17:56:44Z</time>
  <course>237.05</course>
  <speed>1.7</speed>
  <fix>3d</fix>
</trkpt>
<trkpt lat="40.0713622" lon="-105.2298157">
  <ele>1583.16</ele>
  <time>2026-08-28T17:56:44Z</time>
  <course>238.47</course>
  <speed>2.070193227696391</speed>
  <fix>3d</fix>
</trkpt>
<trkpt lat="40.0713642" lon="-105.2298112">
  <ele>1583.0</ele>
  <time>2026-08-28T17:56:44Z</time>
  <course>237.08</course>
  <speed>1.88</speed>
  <fix>3d</fix>
</trkpt>
<trkpt lat="40.0713612" lon="-105.2298178">
  <ele>1583.15</ele>
  <time>2026-08-28T17:56:44Z</time>
  <course>238.49</course>
  <speed>2.16453228204155</speed>
  <fix>3d</fix>
</trkpt>
<trkpt lat="40.0713642" lon="-105.2298112">
  <ele>1583.0</ele>
  <time>2026-08-28T17:56:44Z</time>
  <course>237.08</course>
  <speed>1.88</speed>
  <fix>3d</fix>
</trkpt>
<trkpt lat="40.0713601" lon="-105.22982">
  <ele>1583.15</ele>
  <time>2026-08-28T17:56:44Z</time>
  <course>238.51</course>
  <speed>2.2726416347501863</speed>
  <fix>3d</fix>
</trkpt>
<trkpt lat="40.0713623" lon="-105.2298151">
  <ele>1583.0</ele>
  <time>2026-08-28T17:56:44Z</time>
  <course>237.13</course>
  <speed>2.07</speed>
  <fix>3d</fix>
</trkpt>
<trkpt lat="40.071359" lon="-105.2298223">
  <ele>1583.15</ele>
  <time>2026-08-28T17:56:44Z</time>
  <course>238.53</course>
  <speed>2.366981199756348</speed>
  <fix>3d</fix>
</trkpt>
<trkpt lat="40.0713602" lon="-105.2298194">
  <ele>1583.0</ele>
  <time>2026-08-28T17:56:44Z</time>
  <course>237.18</course>
  <speed>2.26</speed>
  <fix>3d</fix>
</trkpt>
<trkpt lat="40.0713578" lon="-105.2298247">
  <ele>1583.15</ele>
  <time>2026-08-28T17:56:44Z</time>
  <course>238.54</course>
  <speed>2.4613207836444237</speed>
  <fix>3d</fix>
</trkpt>
<trkpt lat="40.0713602" lon="-105.2298194">
  <ele>1583.0</ele>
  <time>2026-08-28T17:56:44Z</time>
  <course>237.18</course>
  <speed>2.26</speed>
  <fix>3d</fix>
</trkpt>
<trkpt lat="40.0713566" lon="-105.2298272">
  <ele>1583.15</ele>
  <time>2026-08-28T17:56:44Z</time>
  <course>238.56</course>
  <speed>2.5641567814780752</speed>
  <fix>3d</fix>
</trkpt>
<trkpt lat="40.0713578" lon="-105.2298241">
  <ele>1583.0</ele>
  <time>2026-08-28T17:56:44Z</time>
  <course>237.23</course>
  <speed>2.46</speed>
  <fix>3d</fix>
</trkpt>
<trkpt lat="40.0713553" lon="-105.2298299">
  <ele>1583.14</ele>
  <time>2026-08-28T17:56:44Z</time>
  <course>238.58</course>
  <speed>2.663775516067373</speed>
  <fix>3d</fix>
</trkpt>
<trkpt lat="40.0713578" lon="-105.2298241">
  <ele>1583.0</ele>
  <time>2026-08-28T17:56:44Z</time>
  <course>237.23</course>
  <speed>2.46</speed>
  <fix>3d</fix>
</trkpt>
<trkpt lat="40.071354" lon="-105.2298326">
  <ele>1583.14</ele>
  <time>2026-08-28T17:56:44Z</time>
  <course>238.6</course>
  <speed>2.766604416970377</speed>
  <fix>3d</fix>
</trkpt>
<trkpt lat="40.0713554" lon="-105.2298291">
  <ele>1583.0</ele>
  <time>2026-08-28T17:56:44Z</time>
  <course>237.29</course>
  <speed>2.66</speed>
  <fix>3d</fix>
</trkpt>
<trkpt lat="40.0713526" lon="-105.2298354">
  <ele>1583.14</ele>
  <time>2026-08-28T17:56:44Z</time>
  <course>238.62</course>
  <speed>2.8609439001839934</speed>
  <fix>3d</fix>
</trkpt>
<trkpt lat="40.0713554" lon="-105.2298291">
  <ele>1583.0</ele>
  <time>2026-08-28T17:56:44Z</time>
  <course>237.29</course>
  <speed>2.66</speed>
  <fix>3d</fix>
</trkpt>
<trkpt lat="40.0713512" lon="-105.2298383">
  <ele>1583.14</ele>
  <time>2026-08-28T17:56:44Z</time>
  <course>238.63</course>
  <speed>2.9637813684548324</speed>
  <fix>3d</fix>
</trkpt>
<trkpt lat="40.0713527" lon="-105.2298346">
  <ele>1583.0</ele>
  <time>2026-08-28T17:56:44Z</time>
  <course>237.35</course>
  <speed>2.86</speed>
  <fix>3d</fix>
</trkpt>
<trkpt lat="40.0713497" lon="-105.2298414">
  <ele>1583.14</ele>
  <time>2026-08-28T17:56:44Z</time>
  <course>238.65</course>
  <speed>3.0718886698576826</speed>
  <fix>3d</fix>
</trkpt>
<trkpt lat="40.0713527" lon="-105.2298346">
  <ele>1583.0</ele>
  <time>2026-08-28T17:56:44Z</time>
  <course>237.35</course>
  <speed>2.86</speed>
  <fix>3d</fix>
</trkpt>
<trkpt lat="40.0713482" lon="-105.2298445">
  <ele>1583.13</ele>
  <time>2026-08-28T17:56:44Z</time>
  <course>238.67</course>
  <speed>3.1662280397975127</speed>
  <fix>3d</fix>
</trkpt>
<trkpt lat="40.0713497" lon="-105.2298405">
  <ele>1583.0</ele>
  <time>2026-08-28T17:56:44Z</time>
  <course>237.41</course>
  <speed>3.06</speed>
  <fix>3d</fix>
</trkpt>
<trkpt lat="40.0713466" lon="-105.2298478">
  <ele>1583.13</ele>
  <time>2026-08-28T17:56:44Z</time>
  <course>238.69</course>
  <speed>3.2690671452266016</speed>
  <fix>3d</fix>
</trkpt>
<trkpt lat="40.0713497" lon="-105.2298405">
  <ele>1583.0</ele>
  <time>2026-08-28T17:56:44Z</time>
  <course>237.41</course>
  <speed>3.06</speed>
  <fix>3d</fix>
</trkpt>
<trkpt lat="40.071345" lon="-105.2298511">
  <ele>1583.13</ele>
  <time>2026-08-28T17:56:44Z</time>
  <course>238.71</course>
  <speed>3.3634060117684275</speed>
  <fix>3d</fix>
</trkpt>
<trkpt lat="40.0713467" lon="-105.2298467">
  <ele>1583.0</ele>
  <time>2026-08-28T17:56:44Z</time>
  <course>237.47</course>
  <speed>3.25</speed>
  <fix>3d</fix>
</trkpt>
<trkpt lat="40.0713433" lon="-105.2298545">
  <ele>1583.13</ele>
  <time>2026-08-28T17:56:44Z</time>
  <course>238.72</course>
  <speed>3.4715126386058284</speed>
  <fix>3d</fix>
</trkpt>
<trkpt lat="40.0713467" lon="-105.2298467">
  <ele>1583.0</ele>
  <time>2026-08-28T17:56:44Z</time>
  <course>237.47</course>
  <speed>3.25</speed>
  <fix>3d</fix>
</trkpt>
<trkpt lat="40.0713416" lon="-105.229858">
  <ele>1583.13</ele>
  <time>2026-08-28T17:56:44Z</time>
  <course>238.74</course>
  <speed>3.565851931867054</speed>
  <fix>3d</fix>
</trkpt>
<trkpt lat="40.0713467" lon="-105.2298467">
  <ele>1583.0</ele>
  <time>2026-08-28T17:56:44Z</time>
  <course>237.47</course>
  <speed>3.25</speed>
  <fix>3d</fix>
</trkpt>
<trkpt lat="40.0713398" lon="-105.2298616">
  <ele>1583.14</ele>
  <time>2026-08-28T17:56:44Z</time>
  <course>238.77</course>
  <speed>3.6686918649567724</speed>
  <fix>3d</fix>
</trkpt>
<trkpt lat="40.0713435" lon="-105.2298534">
  <ele>1583.0</ele>
  <time>2026-08-28T17:56:44Z</time>
  <course>237.53</course>
  <speed>3.45</speed>
  <fix>3d</fix>
</trkpt>
<trkpt lat="40.071338" lon="-105.2298654">
  <ele>1583.14</ele>
  <time>2026-08-28T17:56:44Z</time>
  <course>238.79</course>
  <speed>3.7630306934703577</speed>
  <fix>3d</fix>
</trkpt>
<trkpt lat="40.0713435" lon="-105.2298534">
  <ele>1583.0</ele>
  <time>2026-08-28T17:56:44Z</time>
  <course>237.53</course>
  <speed>3.45</speed>
  <fix>3d</fix>
</trkpt>
<trkpt lat="40.0713362" lon="-105.2298691">
  <ele>1583.14</ele>
  <time>2026-08-28T17:56:44Z</time>
  <course>238.81</course>
  <speed>3.8658763560155416</speed>
  <fix>3d</fix>
</trkpt>
<trkpt lat="40.07134" lon="-105.2298604">
  <ele>1583.0</ele>
  <time>2026-08-28T17:56:44Z</time>
  <course>237.59</course>
  <speed>3.65</speed>
  <fix>3d</fix>
</trkpt>
<trkpt lat="40.0713343" lon="-105.229873">
  <ele>1583.14</ele>
  <time>2026-08-28T17:56:44Z</time>
  <course>238.83</course>
  <speed>3.96547601177967</speed>
  <fix>3d</fix>
</trkpt>
<trkpt lat="40.07134" lon="-105.2298604">
  <ele>1583.0</ele>
  <time>2026-08-28T17:56:44Z</time>
  <course>237.59</course>
  <speed>3.65</speed>
  <fix>3d</fix>
</trkpt>
<trkpt lat="40.0713324" lon="-105.229877">
  <ele>1583.14</ele>
  <time>2026-08-28T17:56:44Z</time>
  <course>238.85</course>
  <speed>4.0683166051820505</speed>
  <fix>3d</fix>
</trkpt>
<trkpt lat="40.0713364" lon="-105.2298678">
  <ele>1583.0</ele>
  <time>2026-08-28T17:56:44Z</time>
  <course>237.65</course>
  <speed>3.85</speed>
  <fix>3d</fix>
</trkpt>
<trkpt lat="40.0713304" lon="-105.229881">
  <ele>1583.15</ele>
  <time>2026-08-28T17:56:44Z</time>
  <course>238.86</course>
  <speed>4.1626554025045115</speed>
  <fix>3d</fix>
</trkpt>
<trkpt lat="40.0713364" lon="-105.2298678">
  <ele>1583.0</ele>
  <time>2026-08-28T17:56:44Z</time>
  <course>237.65</course>
  <speed>3.85</speed>
  <fix>3d</fix>
</trkpt>
<trkpt lat="40.0713284" lon="-105.2298852">
  <ele>1583.15</ele>
  <time>2026-08-28T17:56:44Z</time>
  <course>238.88</course>
  <speed>4.256994244769424</speed>
  <fix>3d</fix>
</trkpt>
<trkpt lat="40.0713326" lon="-105.2298757">
  <ele>1583.0</ele>
  <time>2026-08-28T17:56:44Z</time>
  <course>237.71</course>
  <speed>4.05</speed>
  <fix>3d</fix>
</trkpt>
<trkpt lat="40.0713263" lon="-105.2298895">
  <ele>1583.15</ele>
  <time>2026-08-28T17:56:44Z</time>
  <course>238.9</course>
  <speed>4.359839446585161</speed>
  <fix>3d</fix>
</trkpt>
<trkpt lat="40.0713286" lon="-105.229884">
  <ele>1583.0</ele>
  <time>2026-08-28T17:56:44Z</time>
  <course>237.76</course>
  <speed>4.25</speed>
  <fix>3d</fix>
</trkpt>
<trkpt lat="40.0713242" lon="-105.2298939">
  <ele>1583.15</ele>
  <time>2026-08-28T17:56:44Z</time>
  <course>238.91</course>
  <speed>4.467941360403021</speed>
  <fix>3d</fix>
</trkpt>
<trkpt lat="40.0713286" lon="-105.229884">
  <ele>1583.0</ele>
  <time>2026-08-28T17:56:44Z</time>
  <course>237.76</course>
  <speed>4.25</speed>
  <fix>3d</fix>
</trkpt>
<trkpt lat="40.071322" lon="-105.2298984">
  <ele>1583.14</ele>
  <time>2026-08-28T17:56:44Z</time>
  <course>238.93</course>
  <speed>4.5622801316885395</speed>
  <fix>3d</fix>
</trkpt>
<trkpt lat="40.0713245" lon="-105.2298926">
  <ele>1583.0</ele>
  <time>2026-08-28T17:56:44Z</time>
  <course>237.82</course>
  <speed>4.45</speed>
  <fix>3d</fix>
</trkpt>
<trkpt lat="40.0713198" lon="-105.2299031">
  <ele>1583.15</ele>
  <time>2026-08-28T17:56:44Z</time>
  <course>238.95</course>
  <speed>4.665125936135058</speed>
  <fix>3d</fix>
</trkpt>
<trkpt lat="40.0713245" lon="-105.2298926">
  <ele>1583.0</ele>
  <time>2026-08-28T17:56:44Z</time>
  <course>237.82</course>
  <speed>4.45</speed>
  <fix>3d</fix>
</trkpt>
<trkpt lat="40.0713175" lon="-105.2299078">
  <ele>1583.15</ele>
  <time>2026-08-28T17:56:44Z</time>
  <course>238.97</course>
  <speed>4.767976510009252</speed>
  <fix>3d</fix>
</trkpt>
<trkpt lat="40.0713201" lon="-105.2299017">
  <ele>1583.0</ele>
  <time>2026-08-28T17:56:44Z</time>
  <course>237.87</course>
  <speed>4.66</speed>
  <fix>3d</fix>
</trkpt>
<trkpt lat="40.0713152" lon="-105.2299126">
  <ele>1583.15</ele>
  <time>2026-08-28T17:56:44Z</time>
  <course>238.98</course>
  <speed>4.876074240616113</speed>
  <fix>3d</fix>
</trkpt>
<trkpt lat="40.0713201" lon="-105.2299017">
  <ele>1583.0</ele>
  <time>2026-08-28T17:56:44Z</time>
  <course>237.87</course>
  <speed>4.66</speed>
  <fix>3d</fix>
</trkpt>
<trkpt lat="40.0713128" lon="-105.2299176">
  <ele>1583.15</ele>
  <time>2026-08-28T17:56:44Z</time>
  <course>239.0</course>
  <speed>4.970412457734267</speed>
  <fix>3d</fix>
</trkpt>
<trkpt lat="40.0713156" lon="-105.2299111">
  <ele>1583.0</ele>
  <time>2026-08-28T17:56:44Z</time>
  <course>237.92</course>
  <speed>4.86</speed>
  <fix>3d</fix>
</trkpt>
<trkpt lat="40.0713104" lon="-105.2299226">
  <ele>1583.15</ele>
  <time>2026-08-28T17:56:44Z</time>
  <course>239.01</course>
  <speed>5.073263249625432</speed>
  <fix>3d</fix>
</trkpt>
<trkpt lat="40.0713156" lon="-105.2299111">
  <ele>1583.0</ele>
  <time>2026-08-28T17:56:44Z</time>
  <course>237.92</course>
  <speed>4.86</speed>
  <fix>3d</fix>
</trkpt>
<trkpt lat="40.0713079" lon="-105.2299278">
  <ele>1583.15</ele>
  <time>2026-08-28T17:56:44Z</time>
  <course>239.04</course>
  <speed>5.162363799656123</speed>
  <fix>3d</fix>
</trkpt>
<trkpt lat="40.0713109" lon="-105.229921">
  <ele>1583.0</ele>
  <time>2026-08-28T17:56:44Z</time>
  <course>237.97</course>
  <speed>5.05</speed>
  <fix>3d</fix>
</trkpt>
<trkpt lat="40.0713054" lon="-105.229933">
  <ele>1583.15</ele>
  <time>2026-08-28T17:56:44Z</time>
  <course>239.06</course>
  <speed>5.24818063713512</speed>
  <fix>3d</fix>
</trkpt>
<trkpt lat="40.0713109" lon="-105.229921">
  <ele>1583.0</ele>
  <time>2026-08-28T17:56:44Z</time>
  <course>237.97</course>
  <speed>5.05</speed>
  <fix>3d</fix>
</trkpt>
<trkpt lat="40.0713029" lon="-105.2299383">
  <ele>1583.15</ele>
  <time>2026-08-28T17:56:44Z</time>
  <course>239.08</course>
  <speed>5.328761582206507</speed>
  <fix>3d</fix>
</trkpt>
<trkpt lat="40.071306" lon="-105.2299313">
  <ele>1583.0</ele>
  <time>2026-08-28T17:56:44Z</time>
  <course>238.03</course>
  <speed>5.22</speed>
  <fix>3d</fix>
</trkpt>
<trkpt lat="40.0713003" lon="-105.2299437">
  <ele>1583.15</ele>
  <time>2026-08-28T17:56:44Z</time>
  <course>239.1</course>
  <speed>5.395590792489735</speed>
  <fix>3d</fix>
</trkpt>
<trkpt lat="40.071306" lon="-105.2299313">
  <ele>1583.0</ele>
  <time>2026-08-28T17:56:44Z</time>
  <course>238.03</course>
  <speed>5.22</speed>
  <fix>3d</fix>
</trkpt>
<trkpt lat="40.0712978" lon="-105.2299491">
  <ele>1583.15</ele>
  <time>2026-08-28T17:56:44Z</time>
  <course>239.12</course>
  <speed>5.453897688809353</speed>
  <fix>3d</fix>
</trkpt>
<trkpt lat="40.0713009" lon="-105.2299418">
  <ele>1583.0</ele>
  <time>2026-08-28T17:56:44Z</time>
  <course>238.08</course>
  <speed>5.37</speed>
  <fix>3d</fix>
</trkpt>
<trkpt lat="40.0712951" lon="-105.2299546">
  <ele>1583.15</ele>
  <time>2026-08-28T17:56:44Z</time>
  <course>239.15</course>
  <speed>5.503680586661984</speed>
  <fix>3d</fix>
</trkpt>
<trkpt lat="40.0713009" lon="-105.2299418">
  <ele>1583.0</ele>
  <time>2026-08-28T17:56:44Z</time>
  <course>238.08</course>
  <speed>5.37</speed>
  <fix>3d</fix>
</trkpt>
<trkpt lat="40.0712925" lon="-105.2299602">
  <ele>1583.15</ele>
  <time>2026-08-28T17:56:44Z</time>
  <course>239.17</course>
  <speed>5.5482339532503495</speed>
  <fix>3d</fix>
</trkpt>
<trkpt lat="40.0713009" lon="-105.2299418">
  <ele>1583.0</ele>
  <time>2026-08-28T17:56:44Z</time>
  <course>238.08</course>
  <speed>5.37</speed>
  <fix>3d</fix>
</trkpt>
<trkpt lat="40.0712898" lon="-105.2299658">
  <ele>1583.15</ele>
  <time>2026-08-28T17:56:44Z</time>
  <course>239.19</course>
  <speed>5.570511646159624</speed>
  <fix>3d</fix>
</trkpt>
<trkpt lat="40.0712958" lon="-105.2299527">
  <ele>1583.0</ele>
  <time>2026-08-28T17:56:44Z</time>
  <course>238.14</course>
  <speed>5.48</speed>
  <fix>3d</fix>
</trkpt>
<trkpt lat="40.0712872" lon="-105.2299713">
  <ele>1583.15</ele>
  <time>2026-08-28T17:56:44Z</time>
  <course>239.22</course>
  <speed>5.584263604093202</speed>
  <fix>3d</fix>
</trkpt>
<trkpt lat="40.0712958" lon="-105.2299527">
  <ele>1583.0</ele>
  <time>2026-08-28T17:56:44Z</time>
  <course>238.14</course>
  <speed>5.48</speed>
  <fix>3d</fix>
</trkpt>
<trkpt lat="40.0712846" lon="-105.2299768">
  <ele>1583.16</ele>
  <time>2026-08-28T17:56:44Z</time>
  <course>239.25</course>
  <speed>5.5927900014214735</speed>
  <fix>3d</fix>
</trkpt>
<trkpt lat="40.0712905" lon="-105.2299637">
  <ele>1583.0</ele>
  <time>2026-08-28T17:56:44Z</time>
  <course>238.19</course>
  <speed>5.54</speed>
  <fix>3d</fix>
</trkpt>
<trkpt lat="40.071282" lon="-105.2299824">
  <ele>1583.16</ele>
  <time>2026-08-28T17:56:44Z</time>
  <course>239.28</course>
  <speed>5.579041136252716</speed>
  <fix>3d</fix>
</trkpt>
<trkpt lat="40.0712905" lon="-105.2299637">
  <ele>1583.0</ele>
  <time>2026-08-28T17:56:44Z</time>
  <course>238.19</course>
  <speed>5.54</speed>
  <fix>3d</fix>
</trkpt>
<trkpt lat="40.0712794" lon="-105.2299879">
  <ele>1583.16</ele>
  <time>2026-08-28T17:56:44Z</time>
  <course>239.32</course>
  <speed>5.556761646858717</speed>
  <fix>3d</fix>
</trkpt>
<trkpt lat="40.0712853" lon="-105.2299748">
  <ele>1583.0</ele>
  <time>2026-08-28T17:56:44Z</time>
  <course>238.25</course>
  <speed>5.56</speed>
  <fix>3d</fix>
</trkpt>
<trkpt lat="40.0712768" lon="-105.2299934">
  <ele>1583.17</ele>
  <time>2026-08-28T17:56:44Z</time>
  <course>239.35</course>
  <speed>5.520733646898752</speed>
  <fix>3d</fix>
</trkpt>
<trkpt lat="40.07128" lon="-105.2299859">
  <ele>1583.0</ele>
  <time>2026-08-28T17:56:44Z</time>
  <course>238.32</course>
  <speed>5.54</speed>
  <fix>3d</fix>
</trkpt>
<trkpt lat="40.0712742" lon="-105.2299989">
  <ele>1583.17</ele>
  <time>2026-08-28T17:56:44Z</time>
  <course>239.39</course>
  <speed>5.484706008529537</speed>
  <fix>3d</fix>
</trkpt>
<trkpt lat="40.07128" lon="-105.2299859">
  <ele>1583.0</ele>
  <time>2026-08-28T17:56:44Z</time>
  <course>238.32</course>
  <speed>5.54</speed>
  <fix>3d</fix>
</trkpt>
<trkpt lat="40.0712716" lon="-105.2300043">
  <ele>1583.17</ele>
  <time>2026-08-28T17:56:44Z</time>
  <course>239.43</course>
  <speed>5.42639843726942</speed>
  <fix>3d</fix>
</trkpt>
<trkpt lat="40.0712748" lon="-105.2299969">
  <ele>1583.0</ele>
  <time>2026-08-28T17:56:44Z</time>
  <course>238.39</course>
  <speed>5.47</speed>
  <fix>3d</fix>
</trkpt>
<trkpt lat="40.071269" lon="-105.2300097">
  <ele>1583.17</ele>
  <time>2026-08-28T17:56:44Z</time>
  <course>239.48</course>
  <speed>5.362881688047947</speed>
  <fix>3d</fix>
</trkpt>
<trkpt lat="40.0712748" lon="-105.2299969">
  <ele>1583.0</ele>
  <time>2026-08-28T17:56:44Z</time>
  <course>238.39</course>
  <speed>5.47</speed>
  <fix>3d</fix>
</trkpt>
<trkpt lat="40.0712665" lon="-105.230015">
  <ele>1583.17</ele>
  <time>2026-08-28T17:56:44Z</time>
  <course>239.53</course>
  <speed>5.282291169558906</speed>
  <fix>3d</fix>
</trkpt>
<trkpt lat="40.0712697" lon="-105.2300078">
  <ele>1583.0</ele>
  <time>2026-08-28T17:56:44Z</time>
  <course>238.47</course>
  <speed>5.36</speed>
  <fix>3d</fix>
</trkpt>
<trkpt lat="40.0712641" lon="-105.2300203">
  <ele>1583.18</ele>
  <time>2026-08-28T17:56:44Z</time>
  <course>239.58</course>
  <speed>5.19649882132191</speed>
  <fix>3d</fix>
</trkpt>
<trkpt lat="40.0712697" lon="-105.2300078">
  <ele>1583.0</ele>
  <time>2026-08-28T17:56:44Z</time>
  <course>238.47</course>
  <speed>5.36</speed>
  <fix>3d</fix>
</trkpt>
<trkpt lat="40.0712616" lon="-105.2300254">
  <ele>1583.18</ele>
  <time>2026-08-28T17:56:44Z</time>
  <course>239.63</course>
  <speed>5.088428048032123</speed>
  <fix>3d</fix>
</trkpt>
<trkpt lat="40.0712647" lon="-105.2300184">
  <ele>1583.0</ele>
  <time>2026-08-28T17:56:44Z</time>
  <course>238.57</course>
  <speed>5.19</speed>
  <fix>3d</fix>
</trkpt>
<trkpt lat="40.0712593" lon="-105.2300305">
  <ele>1583.17</ele>
  <time>2026-08-28T17:56:45Z</time>
  <course>239.69</course>
  <speed>4.980361432667312</speed>
  <fix>3d</fix>
</trkpt>
<trkpt lat="40.0712647" lon="-105.2300184">
  <ele>1583.0</ele>
  <time>2026-08-28T17:56:45Z</time>
  <course>238.57</course>
  <speed>5.19</speed>
  <fix>3d</fix>
</trkpt>
<trkpt lat="40.071257" lon="-105.2300354">
  <ele>1583.17</ele>
  <time>2026-08-28T17:56:45Z</time>
  <course>239.75</course>
  <speed>4.863743414284927</speed>
  <fix>3d</fix>
</trkpt>
<trkpt lat="40.07126" lon="-105.2300286">
  <ele>1583.0</ele>
  <time>2026-08-28T17:56:45Z</time>
  <course>238.67</course>
  <speed>4.99</speed>
  <fix>3d</fix>
</trkpt>
<trkpt lat="40.0712547" lon="-105.2300402">
  <ele>1583.17</ele>
  <time>2026-08-28T17:56:45Z</time>
  <course>239.81</course>
  <speed>4.733392018415547</speed>
  <fix>3d</fix>
</trkpt>
<trkpt lat="40.07126" lon="-105.2300286">
  <ele>1583.0</ele>
  <time>2026-08-28T17:56:45Z</time>
  <course>238.67</course>
  <speed>4.99</speed>
  <fix>3d</fix>
</trkpt>
<trkpt lat="40.0712525" lon="-105.2300449">
  <ele>1583.17</ele>
  <time>2026-08-28T17:56:45Z</time>
  <course>239.78</course>
  <speed>4.599673901484756</speed>
  <fix>3d</fix>
</trkpt>
<trkpt lat="40.0712554" lon="-105.2300383">
  <ele>1583.0</ele>
  <time>2026-08-28T17:56:45Z</time>
  <course>238.74</course>
  <speed>4.75</speed>
  <fix>3d</fix>
</trkpt>
<trkpt lat="40.0712504" lon="-105.2300494">
  <ele>1583.17</ele>
  <time>2026-08-28T17:56:45Z</time>
  <course>239.6</course>
  <speed>4.465982534672522</speed>
  <fix>3d</fix>
</trkpt>
<trkpt lat="40.0712554" lon="-105.2300383">
  <ele>1583.0</ele>
  <time>2026-08-28T17:56:45Z</time>
  <course>238.74</course>
  <speed>4.75</speed>
  <fix>3d</fix>
</trkpt>
<trkpt lat="40.0712483" lon="-105.2300538">
  <ele>1583.17</ele>
  <time>2026-08-28T17:56:45Z</time>
  <course>239.27</course>
  <speed>4.334339626748232</speed>
  <fix>3d</fix>
</trkpt>
<trkpt lat="40.0712511" lon="-105.2300475">
  <ele>1583.0</ele>
  <time>2026-08-28T17:56:45Z</time>
  <course>238.5</course>
  <speed>4.48</speed>
  <fix>3d</fix>
</trkpt>
<trkpt lat="40.0712463" lon="-105.230058">
  <ele>1583.17</ele>
  <time>2026-08-28T17:56:45Z</time>
  <course>238.77</course>
  <speed>4.194532155079992</speed>
  <fix>3d</fix>
</trkpt>
<trkpt lat="40.0712511" lon="-105.2300475">
  <ele>1583.0</ele>
  <time>2026-08-28T17:56:45Z</time>
  <course>238.5</course>
  <speed>4.48</speed>
  <fix>3d</fix>
</trkpt>
<trkpt lat="40.0712443" lon="-105.2300621">
  <ele>1583.17</ele>
  <time>2026-08-28T17:56:45Z</time>
  <course>238.09</course>
  <speed>4.0522216128933515</speed>
  <fix>3d</fix>
</trkpt>
<trkpt lat="40.0712511" lon="-105.2300475">
  <ele>1583.0</ele>
  <time>2026-08-28T17:56:45Z</time>
  <course>238.5</course>
  <speed>4.48</speed>
  <fix>3d</fix>
</trkpt>
<trkpt lat="40.0712423" lon="-105.2300659">
  <ele>1583.17</ele>
  <time>2026-08-28T17:56:45Z</time>
  <course>237.21</course>
  <speed>3.910716046966335</speed>
  <fix>3d</fix>
</trkpt>
<trkpt lat="40.071247" lon="-105.2300563">
  <ele>1583.0</ele>
  <time>2026-08-28T17:56:45Z</time>
  <course>237.65</course>
  <speed>4.21</speed>
  <fix>3d</fix>
</trkpt>
<trkpt lat="40.0712403" lon="-105.2300696">
  <ele>1583.17</ele>
  <time>2026-08-28T17:56:45Z</time>
  <course>236.1</course>
  <speed>3.773433449790787</speed>
  <fix>3d</fix>
</trkpt>
<trkpt lat="40.071247" lon="-105.2300563">
  <ele>1583.0</ele>
  <time>2026-08-28T17:56:45Z</time>
  <course>237.65</course>
  <speed>4.21</speed>
  <fix>3d</fix>
</trkpt>
<trkpt lat="40.0712384" lon="-105.230073">
  <ele>1583.17</ele>
  <time>2026-08-28T17:56:45Z</time>
  <course>234.78</course>
  <speed>3.6300137740785505</speed>
  <fix>3d</fix>
</trkpt>
<trkpt lat="40.0712429" lon="-105.2300643">
  <ele>1583.0</ele>
  <time>2026-08-28T17:56:45Z</time>
  <course>236.06</course>
  <speed>3.94</speed>
  <fix>3d</fix>
</trkpt>
<trkpt lat="40.0712365" lon="-105.2300763">
  <ele>1583.17</ele>
  <time>2026-08-28T17:56:45Z</time>
  <course>233.2</course>
  <speed>3.49521100936696</speed>
  <fix>3d</fix>
</trkpt>
<trkpt lat="40.0712429" lon="-105.2300643">
  <ele>1583.0</ele>
  <time>2026-08-28T17:56:45Z</time>
  <course>236.06</course>
  <speed>3.94</speed>
  <fix>3d</fix>
</trkpt>
<trkpt lat="40.0712345" lon="-105.2300794">
  <ele>1583.17</ele>
  <time>2026-08-28T17:56:45Z</time>
  <course>231.34</course>
  <speed>3.370059346658453</speed>
  <fix>3d</fix>
</trkpt>
<trkpt lat="40.071239" lon="-105.2300716">
  <ele>1583.0</ele>
  <time>2026-08-28T17:56:45Z</time>
  <course>233.62</course>
  <speed>3.67</speed>
  <fix>3d</fix>
</trkpt>
<trkpt lat="40.0712326" lon="-105.2300822">
  <ele>1583.17</ele>
  <time>2026-08-28T17:56:45Z</time>
  <course>229.29</course>
  <speed>3.2416353897377173</speed>
  <fix>3d</fix>
</trkpt>
<trkpt lat="40.071239" lon="-105.2300716">
  <ele>1583.0</ele>
  <time>2026-08-28T17:56:45Z</time>
  <course>233.62</course>
  <speed>3.67</speed>
  <fix>3d</fix>
</trkpt>
<trkpt lat="40.0712306" lon="-105.2300849">
  <ele>1583.17</ele>
  <time>2026-08-28T17:56:45Z</time>
  <course>227.12</course>
  <speed>3.1113019782721185</speed>
  <fix>3d</fix>
</trkpt>
<trkpt lat="40.0712351" lon="-105.2300782">
  <ele>1583.0</ele>
  <time>2026-08-28T17:56:45Z</time>
  <course>230.21</course>
  <speed>3.41</speed>
  <fix>3d</fix>
</trkpt>
<trkpt lat="40.0712286" lon="-105.2300874">
  <ele>1583.17</ele>
  <time>2026-08-28T17:56:45Z</time>
  <course>224.82</course>
  <speed>2.993476240092779</speed>
  <fix>3d</fix>
</trkpt>
<trkpt lat="40.0712312" lon="-105.2300839">
  <ele>1583.0</ele>
  <time>2026-08-28T17:56:45Z</time>
  <course>226.03</course>
  <speed>3.15</speed>
  <fix>3d</fix>
</trkpt>
<trkpt lat="40.0712267" lon="-105.2300896">
  <ele>1583.17</ele>
  <time>2026-08-28T17:56:45Z</time>
  <course>222.39</course>
  <speed>2.874456470360962</speed>
  <fix>3d</fix>
</trkpt>
<trkpt lat="40.0712312" lon="-105.2300839">
  <ele>1583.0</ele>
  <time>2026-08-28T17:56:45Z</time>
  <course>226.03</course>
  <speed>3.15</speed>
  <fix>3d</fix>
</trkpt>
<trkpt lat="40.0712247" lon="-105.2300917">
  <ele>1583.17</ele>
  <time>2026-08-28T17:56:45Z</time>
  <course>219.81</course>
  <speed>2.7540878707840823</speed>
  <fix>3d</fix>
</trkpt>
<trkpt lat="40.0712272" lon="-105.2300889">
  <ele>1583.0</ele>
  <time>2026-08-28T17:56:45Z</time>
  <course>221.29</course>
  <speed>2.91</speed>
  <fix>3d</fix>
</trkpt>
<trkpt lat="40.0712227" lon="-105.2300935">
  <ele>1583.17</ele>
  <time>2026-08-28T17:56:45Z</time>
  <course>217.1</course>
  <speed>2.646204829562519</speed>
  <fix>3d</fix>
</trkpt>
<trkpt lat="40.0712272" lon="-105.2300889">
  <ele>1583.0</ele>
  <time>2026-08-28T17:56:45Z</time>
  <course>221.29</course>
  <speed>2.91</speed>
  <fix>3d</fix>
</trkpt>
<trkpt lat="40.0712208" lon="-105.2300952">
  <ele>1583.17</ele>
  <time>2026-08-28T17:56:45Z</time>
  <course>214.27</course>
  <speed>2.5536836139193126</speed>
  <fix>3d</fix>
</trkpt>
<trkpt lat="40.0712233" lon="-105.230093">
  <ele>1583.0</ele>
  <time>2026-08-28T17:56:45Z</time>
  <course>216.0</course>
  <speed>2.69</speed>
  <fix>3d</fix>
</trkpt>
<trkpt lat="40.0712188" lon="-105.2300967">
  <ele>1583.17</ele>
  <time>2026-08-28T17:56:45Z</time>
  <course>211.32</course>
  <speed>2.4653194519169315</speed>
  <fix>3d</fix>
</trkpt>
<trkpt lat="40.0712233" lon="-105.230093">
  <ele>1583.0</ele>
  <time>2026-08-28T17:56:45Z</time>
  <course>216.0</course>
  <speed>2.69</speed>
  <fix>3d</fix>
</trkpt>
<trkpt lat="40.0712168" lon="-105.230098">
  <ele>1583.17</ele>
  <time>2026-08-28T17:56:45Z</time>
  <course>208.28</course>
  <speed>2.38447059113758</speed>
  <fix>3d</fix>
</trkpt>
<trkpt lat="40.0712194" lon="-105.2300963">
  <ele>1583.0</ele>
  <time>2026-08-28T17:56:45Z</time>
  <course>210.22</course>
  <speed>2.5</speed>
  <fix>3d</fix>
</trkpt>
<trkpt lat="40.0712149" lon="-105.2300991">
  <ele>1583.17</ele>
  <time>2026-08-28T17:56:45Z</time>
  <course>205.14</course>
  <speed>2.3156208670678367</speed>
  <fix>3d</fix>
</trkpt>
<trkpt lat="40.0712194" lon="-105.2300963">
  <ele>1583.0</ele>
  <time>2026-08-28T17:56:45Z</time>
  <course>210.22</course>
  <speed>2.5</speed>
  <fix>3d</fix>
</trkpt>
<trkpt lat="40.071213" lon="-105.2301">
  <ele>1583.16</ele>
  <time>2026-08-28T17:56:45Z</time>
  <course>201.93</course>
  <speed>2.2547061892849807</speed>
  <fix>3d</fix>
</trkpt>
<trkpt lat="40.0712156" lon="-105.2300989">
  <ele>1583.0</ele>
  <time>2026-08-28T17:56:45Z</time>
  <course>204.03</course>
  <speed>2.34</speed>
  <fix>3d</fix>
</trkpt>
<trkpt lat="40.071211" lon="-105.2301008">
  <ele>1583.16</ele>
  <time>2026-08-28T17:56:45Z</time>
  <course>198.67</course>
  <speed>2.2049489790015553</speed>
  <fix>3d</fix>
</trkpt>
<trkpt lat="40.0712156" lon="-105.2300989">
  <ele>1583.0</ele>
  <time>2026-08-28T17:56:45Z</time>
  <course>204.03</course>
  <speed>2.34</speed>
  <fix>3d</fix>
</trkpt>
<trkpt lat="40.0712091" lon="-105.2301014">
  <ele>1583.16</ele>
  <time>2026-08-28T17:56:45Z</time>
  <course>195.38</course>
  <speed>2.1631689716709603</speed>
  <fix>3d</fix>
</trkpt>
<trkpt lat="40.0712118" lon="-105.2301008">
  <ele>1583.0</ele>
  <time>2026-08-28T17:56:45Z</time>
  <course>197.55</course>
  <speed>2.22</speed>
  <fix>3d</fix>
</trkpt>
<trkpt lat="40.0712072" lon="-105.2301019">
  <ele>1583.16</ele>
  <time>2026-08-28T17:56:45Z</time>
  <course>192.1</course>
  <speed>2.1411212016137715</speed>
  <fix>3d</fix>
</trkpt>
<trkpt lat="40.0712118" lon="-105.2301008">
  <ele>1583.0</ele>
  <time>2026-08-28T17:56:45Z</time>
  <course>197.55</course>
  <speed>2.22</speed>
  <fix>3d</fix>
</trkpt>
<trkpt lat="40.0712053" lon="-105.2301022">
  <ele>1583.15</ele>
  <time>2026-08-28T17:56:45Z</time>
  <course>188.82</course>
  <speed>2.126805115660577</speed>
  <fix>3d</fix>
</trkpt>
<trkpt lat="40.071208" lon="-105.2301021">
  <ele>1583.0</ele>
  <time>2026-08-28T17:56:45Z</time>
  <course>190.95</course>
  <speed>2.15</speed>
  <fix>3d</fix>
</trkpt>
<trkpt lat="40.0712034" lon="-105.2301024">
  <ele>1583.15</ele>
  <time>2026-08-28T17:56:45Z</time>
  <course>185.57</course>
  <speed>2.1305867736377224</speed>
  <fix>3d</fix>
</trkpt>
<trkpt lat="40.071208" lon="-105.2301021">
  <ele>1583.0</ele>
  <time>2026-08-28T17:56:45Z</time>
  <course>190.95</course>
  <speed>2.15</speed>
  <fix>3d</fix>
</trkpt>
<trkpt lat="40.0712015" lon="-105.2301024">
  <ele>1583.15</ele>
  <time>2026-08-28T17:56:45Z</time>
  <course>182.38</course>
  <speed>2.1308449028495717</speed>
  <fix>3d</fix>
</trkpt>
<trkpt lat="40.071208" lon="-105.2301021">
  <ele>1583.0</ele>
  <time>2026-08-28T17:56:45Z</time>
  <course>190.95</course>
  <speed>2.15</speed>
  <fix>3d</fix>
</trkpt>
<trkpt lat="40.0711996" lon="-105.2301023">
  <ele>1583.15</ele>
  <time>2026-08-28T17:56:45Z</time>
  <course>179.23</course>
  <speed>2.1575217264259474</speed>
  <fix>3d</fix>
</trkpt>
<trkpt lat="40.0712041" lon="-105.2301028">
  <ele>1583.0</ele>
  <time>2026-08-28T17:56:45Z</time>
  <course>184.39</course>
  <speed>2.13</speed>
  <fix>3d</fix>
</trkpt>
<trkpt lat="40.0711977" lon="-105.2301021">
  <ele>1583.15</ele>
  <time>2026-08-28T17:56:45Z</time>
  <course>176.2</course>
  <speed>2.1793806459634353</speed>
  <fix>3d</fix>
</trkpt>
<trkpt lat="40.0712041" lon="-105.2301028">
  <ele>1583.0</ele>
  <time>2026-08-28T17:56:45Z</time>
  <course>184.39</course>
  <speed>2.13</speed>
  <fix>3d</fix>
</trkpt>
<trkpt lat="40.0711958" lon="-105.2301018">
  <ele>1583.15</ele>
  <time>2026-08-28T17:56:45Z</time>
  <course>173.28</course>
  <speed>2.2280484734403783</speed>
  <fix>3d</fix>
</trkpt>
<trkpt lat="40.0712003" lon="-105.2301029">
  <ele>1583.0</ele>
  <time>2026-08-28T17:56:45Z</time>
  <course>178.06</course>
  <speed>2.15</speed>
  <fix>3d</fix>
</trkpt>
<trkpt lat="40.0711938" lon="-105.2301014">
  <ele>1583.15</ele>
  <time>2026-08-28T17:56:45Z</time>
  <course>170.47</course>
  <speed>2.2703523955544878</speed>
  <fix>3d</fix>
</trkpt>
<trkpt lat="40.0712003" lon="-105.2301029">
  <ele>1583.0</ele>
  <time>2026-08-28T17:56:45Z</time>
  <course>178.06</course>
  <speed>2.15</speed>
  <fix>3d</fix>
</trkpt>
<trkpt lat="40.0711918" lon="-105.2301008">
  <ele>1583.15</ele>
  <time>2026-08-28T17:56:45Z</time>
  <course>167.77</course>
  <speed>2.329635164569766</speed>
  <fix>3d</fix>
</trkpt>
<trkpt lat="40.0711964" lon="-105.2301025">
  <ele>1583.0</ele>
  <time>2026-08-28T17:56:45Z</time>
  <course>172.1</course>
  <speed>2.21</speed>
  <fix>3d</fix>
</trkpt>
<trkpt lat="40.0711898" lon="-105.2301">
  <ele>1583.14</ele>
  <time>2026-08-28T17:56:45Z</time>
  <course>165.17</course>
  <speed>2.4033310217279684</speed>
  <fix>3d</fix>
</trkpt>
<trkpt lat="40.0711924" lon="-105.2301015">
  <ele>1583.0</ele>
  <time>2026-08-28T17:56:45Z</time>
  <course>166.59</course>
  <speed>2.31</speed>
  <fix>3d</fix>
</trkpt>
<trkpt lat="40.0711877" lon="-105.2300991">
  <ele>1583.14</ele>
  <time>2026-08-28T17:56:45Z</time>
  <course>162.72</course>
  <speed>2.481289987083332</speed>
  <fix>3d</fix>
</trkpt>
<trkpt lat="40.0711924" lon="-105.2301015">
  <ele>1583.0</ele>
  <time>2026-08-28T17:56:45Z</time>
  <course>166.59</course>
  <speed>2.31</speed>
  <fix>3d</fix>
</trkpt>
<trkpt lat="40.0711856" lon="-105.2300981">
  <ele>1583.14</ele>
  <time>2026-08-28T17:56:45Z</time>
  <course>160.39</course>
  <speed>2.563123094976127</speed>
  <fix>3d</fix>
</trkpt>
<trkpt lat="40.0711883" lon="-105.2300999">
  <ele>1583.0</ele>
  <time>2026-08-28T17:56:45Z</time>
  <course>161.55</course>
  <speed>2.45</speed>
  <fix>3d</fix>
</trkpt>
<trkpt lat="40.0711834" lon="-105.2300969">
  <ele>1583.14</ele>
  <time>2026-08-28T17:56:45Z</time>
  <course>158.18</course>
  <speed>2.6575364531836625</speed>
  <fix>3d</fix>
</trkpt>
<trkpt lat="40.0711883" lon="-105.2300999">
  <ele>1583.0</ele>
  <time>2026-08-28T17:56:45Z</time>
  <course>161.55</course>
  <speed>2.45</speed>
  <fix>3d</fix>
</trkpt>
<trkpt lat="40.0711812" lon="-105.2300956">
  <ele>1583.14</ele>
  <time>2026-08-28T17:56:45Z</time>
  <course>156.09</course>
  <speed>2.750454507895013</speed>
  <fix>3d</fix>
</trkpt>
<trkpt lat="40.071184" lon="-105.2300978">
  <ele>1583.0</ele>
  <time>2026-08-28T17:56:45Z</time>
  <course>157.0</course>
  <speed>2.62</speed>
  <fix>3d</fix>
</trkpt>
<trkpt lat="40.071179" lon="-105.2300941">
  <ele>1583.14</ele>
  <time>2026-08-28T17:56:45Z</time>
  <course>154.1</course>
  <speed>2.8555910071296973</speed>
  <fix>3d</fix>
</trkpt>
<trkpt lat="40.071184" lon="-105.2300978">
  <ele>1583.0</ele>
  <time>2026-08-28T17:56:45Z</time>
  <course>157.0</course>
  <speed>2.62</speed>
  <fix>3d</fix>
</trkpt>
<trkpt lat="40.0711767" lon="-105.2300924">
  <ele>1583.14</ele>
  <time>2026-08-28T17:56:45Z</time>
  <course>152.21</course>
  <speed>2.963545174280291</speed>
  <fix>3d</fix>
</trkpt>
<trkpt lat="40.0711795" lon="-105.2300951">
  <ele>1583.0</ele>
  <time>2026-08-28T17:56:45Z</time>
  <course>152.89</course>
  <speed>2.82</speed>
  <fix>3d</fix>
</trkpt>
<trkpt lat="40.0711743" lon="-105.2300906">
  <ele>1583.14</ele>
  <time>2026-08-28T17:56:45Z</time>
  <course>150.42</course>
  <speed>3.074020169094536</speed>
  <fix>3d</fix>
</trkpt>
<trkpt lat="40.0711795" lon="-105.2300951">
  <ele>1583.0</ele>
  <time>2026-08-28T17:56:45Z</time>
  <course>152.89</course>
  <speed>2.82</speed>
  <fix>3d</fix>
</trkpt>
<trkpt lat="40.071172" lon="-105.2300887">
  <ele>1583.14</ele>
  <time>2026-08-28T17:56:45Z</time>
  <course>148.77</course>
  <speed>3.1923189063751134</speed>
  <fix>3d</fix>
</trkpt>
<trkpt lat="40.0711749" lon="-105.2300918">
  <ele>1583.0</ele>
  <time>2026-08-28T17:56:45Z</time>
  <course>149.22</course>
  <speed>3.03</speed>
  <fix>3d</fix>
</trkpt>
<trkpt lat="40.0711695" lon="-105.2300866">
  <ele>1583.14</ele>
  <time>2026-08-28T17:56:45Z</time>
  <course>147.38</course>
  <speed>3.3015148038438356</speed>
  <fix>3d</fix>
</trkpt>
<trkpt lat="40.0711749" lon="-105.2300918">
  <ele>1583.0</ele>
  <time>2026-08-28T17:56:45Z</time>
  <course>149.22</course>
  <speed>3.03</speed>
  <fix>3d</fix>
</trkpt>
<trkpt lat="40.071167" lon="-105.2300843">
  <ele>1583.14</ele>
  <time>2026-08-28T17:56:45Z</time>
  <course>146.2</course>
  <speed>3.42023391012954</speed>
  <fix>3d</fix>
</trkpt>
<trkpt lat="40.0711702" lon="-105.2300879">
  <ele>1583.0</ele>
  <time>2026-08-28T17:56:45Z</time>
  <course>146.21</course>
  <speed>3.26</speed>
  <fix>3d</fix>
</trkpt>
<trkpt lat="40.0711645" lon="-105.230082">
  <ele>1583.14</ele>
  <time>2026-08-28T17:56:45Z</time>
  <course>145.22</course>
  <speed>3.534020373455705</speed>
  <fix>3d</fix>
</trkpt>
<trkpt lat="40.0711702" lon="-105.2300879">
  <ele>1583.0</ele>
  <time>2026-08-28T17:56:45Z</time>
  <course>146.21</course>
  <speed>3.26</speed>
  <fix>3d</fix>
</trkpt>
<trkpt lat="40.0711619" lon="-105.2300795">
  <ele>1583.14</ele>
  <time>2026-08-28T17:56:45Z</time>
  <course>144.41</course>
  <speed>3.6485613603172413</speed>
  <fix>3d</fix>
</trkpt>
<trkpt lat="40.0711652" lon="-105.2300833">
  <ele>1583.0</ele>
  <time>2026-08-28T17:56:45Z</time>
  <course>144.03</course>
  <speed>3.48</speed>
  <fix>3d</fix>
</trkpt>
<trkpt lat="40.0711593" lon="-105.2300768">
  <ele>1583.14</ele>
  <time>2026-08-28T17:56:45Z</time>
  <course>143.77</course>
  <speed>3.7513330963805385</speed>
  <fix>3d</fix>
</trkpt>
<trkpt lat="40.0711652" lon="-105.2300833">
  <ele>1583.0</ele>
  <time>2026-08-28T17:56:45Z</time>
  <course>144.03</course>
  <speed>3.48</speed>
  <fix>3d</fix>
</trkpt>
<trkpt lat="40.0711566" lon="-105.2300741">
  <ele>1583.14</ele>
  <time>2026-08-28T17:56:45Z</time>
  <course>143.27</course>
  <speed>3.8481294157031676</speed>
  <fix>3d</fix>
</trkpt>
<trkpt lat="40.0711652" lon="-105.2300833">
  <ele>1583.0</ele>
  <time>2026-08-28T17:56:45Z</time>
  <course>144.03</course>
  <speed>3.48</speed>
  <fix>3d</fix>
</trkpt>
<trkpt lat="40.0711538" lon="-105.2300713">
  <ele>1583.14</ele>
  <time>2026-08-28T17:56:45Z</time>
  <course>142.92</course>
  <speed>3.9387815374808492</speed>
  <fix>3d</fix>
</trkpt>
<trkpt lat="40.07116" lon="-105.2300782">
  <ele>1583.0</ele>
  <time>2026-08-28T17:56:45Z</time>
  <course>142.56</course>
  <speed>3.7</speed>
  <fix>3d</fix>
</trkpt>
<trkpt lat="40.071151" lon="-105.2300684">
  <ele>1583.14</ele>
  <time>2026-08-28T17:56:45Z</time>
  <course>142.7</course>
  <speed>4.015432728859992</speed>
  <fix>3d</fix>
</trkpt>
<trkpt lat="40.07116" lon="-105.2300782">
  <ele>1583.0</ele>
  <time>2026-08-28T17:56:45Z</time>
  <course>142.56</course>
  <speed>3.7</speed>
  <fix>3d</fix>
</trkpt>
<trkpt lat="40.0711482" lon="-105.2300655">
  <ele>1583.15</ele>
  <time>2026-08-28T17:56:45Z</time>
  <course>142.62</course>
  <speed>4.079460748677452</speed>
  <fix>3d</fix>
</trkpt>
<trkpt lat="40.0711546" lon="-105.2300727">
  <ele>1583.0</ele>
  <time>2026-08-28T17:56:45Z</time>
  <course>141.7</course>
  <speed>3.89</speed>
  <fix>3d</fix>
</trkpt>
<trkpt lat="40.0711454" lon="-105.2300625">
  <ele>1583.15</ele>
  <time>2026-08-28T17:56:45Z</time>
  <course>142.65</course>
  <speed>4.14348886809172</speed>
  <fix>3d</fix>
</trkpt>
<trkpt lat="40.0711546" lon="-105.2300727">
  <ele>1583.0</ele>
  <time>2026-08-28T17:56:45Z</time>
  <course>141.7</course>
  <speed>3.89</speed>
  <fix>3d</fix>
</trkpt>
<trkpt lat="40.0711425" lon="-105.2300595">
  <ele>1583.15</ele>
  <time>2026-08-28T17:56:45Z</time>
  <course>142.72</course>
  <speed>4.187135058724521</speed>
  <fix>3d</fix>
</trkpt>
<trkpt lat="40.071149" lon="-105.2300669">
  <ele>1583.0</ele>
  <time>2026-08-28T17:56:45Z</time>
  <course>141.39</course>
  <speed>4.04</speed>
  <fix>3d</fix>
</trkpt>
<trkpt lat="40.0711396" lon="-105.2300565">
  <ele>1583.15</ele>
  <time>2026-08-28T17:56:45Z</time>
  <course>142.66</course>
  <speed>4.215269860874865</speed>
  <fix>3d</fix>
</trkpt>
<trkpt lat="40.071149" lon="-105.2300669">
  <ele>1583.0</ele>
  <time>2026-08-28T17:56:45Z</time>
  <course>141.39</course>
  <speed>4.04</speed>
  <fix>3d</fix>
</trkpt>
<trkpt lat="40.0711366" lon="-105.2300535">
  <ele>1583.15</ele>
  <time>2026-08-28T17:56:45Z</time>
  <course>142.45</course>
  <speed>4.235658154289602</speed>
  <fix>3d</fix>
</trkpt>
<trkpt lat="40.0711433" lon="-105.2300609">
  <ele>1583.0</ele>
  <time>2026-08-28T17:56:45Z</time>
  <course>141.37</course>
  <speed>4.15</speed>
  <fix>3d</fix>
</trkpt>
<trkpt lat="40.0711337" lon="-105.2300504">
  <ele>1583.15</ele>
  <time>2026-08-28T17:56:45Z</time>
  <course>142.1</course>
  <speed>4.24062495394252</speed>
  <fix>3d</fix>
</trkpt>
<trkpt lat="40.0711374" lon="-105.2300547">
  <ele>1583.0</ele>
  <time>2026-08-28T17:56:45Z</time>
  <course>141.08</course>
  <speed>4.21</speed>
  <fix>3d</fix>
</trkpt>
<trkpt lat="40.0711307" lon="-105.2300473">
  <ele>1583.15</ele>
  <time>2026-08-28T17:56:45Z</time>
  <course>141.6</course>
  <speed>4.2444552065017715</speed>
  <fix>3d</fix>
</trkpt>
<trkpt lat="40.0711374" lon="-105.2300547">
  <ele>1583.0</ele>
  <time>2026-08-28T17:56:45Z</time>
  <course>141.08</course>
  <speed>4.21</speed>
  <fix>3d</fix>
</trkpt>
<trkpt lat="40.0711278" lon="-105.2300441">
  <ele>1583.15</ele>
  <time>2026-08-28T17:56:45Z</time>
  <course>140.95</course>
  <speed>4.233402886567731</speed>
  <fix>3d</fix>
</trkpt>
<trkpt lat="40.0711315" lon="-105.2300485">
  <ele>1583.0</ele>
  <time>2026-08-28T17:56:45Z</time>
  <course>140.22</course>
  <speed>4.23</speed>
  <fix>3d</fix>
</trkpt>
<trkpt lat="40.0711249" lon="-105.2300408">
  <ele>1583.15</ele>
  <time>2026-08-28T17:56:45Z</time>
  <course>140.14</course>
  <speed>4.207921101921945</speed>
  <fix>3d</fix>
</trkpt>
<trkpt lat="40.0711315" lon="-105.2300485">
  <ele>1583.0</ele>
  <time>2026-08-28T17:56:45Z</time>
  <course>140.22</course>
  <speed>4.23</speed>
  <fix>3d</fix>
</trkpt>
<trkpt lat="40.0711221" lon="-105.2300376">
  <ele>1583.15</ele>
  <time>2026-08-28T17:56:45Z</time>
  <course>139.17</course>
  <speed>4.175978927149896</speed>
  <fix>3d</fix>
</trkpt>
<trkpt lat="40.0711258" lon="-105.230042">
  <ele>1583.0</ele>
  <time>2026-08-28T17:56:45Z</time>
  <course>138.74</course>
  <speed>4.2</speed>
  <fix>3d</fix>
</trkpt>
<trkpt lat="40.0711194" lon="-105.2300343">
  <ele>1583.15</ele>
  <time>2026-08-28T17:56:45Z</time>
  <course>138.03</course>
  <speed>4.130690014997494</speed>
  <fix>3d</fix>
</trkpt>
<trkpt lat="40.0711258" lon="-105.230042">
  <ele>1583.0</ele>
  <time>2026-08-28T17:56:45Z</time>
  <course>138.74</course>
  <speed>4.2</speed>
  <fix>3d</fix>
</trkpt>
<trkpt lat="40.0711167" lon="-105.2300309">
  <ele>1583.15</ele>
  <time>2026-08-28T17:56:45Z</time>
  <course>136.69</course>
  <speed>4.080012254883556</speed>
  <fix>3d</fix>
</trkpt>
<trkpt lat="40.0711203" lon="-105.2300354">
  <ele>1583.0</ele>
  <time>2026-08-28T17:56:45Z</time>
  <course>136.61</course>
  <speed>4.12</speed>
  <fix>3d</fix>
</trkpt>
<trkpt lat="40.0711142" lon="-105.2300275">
  <ele>1583.15</ele>
  <time>2026-08-28T17:56:45Z</time>
  <course>135.17</course>
  <speed>4.017959681231258</speed>
  <fix>3d</fix>
</trkpt>
<trkpt lat="40.0711203" lon="-105.2300354">
  <ele>1583.0</ele>
  <time>2026-08-28T17:56:45Z</time>
  <course>136.61</course>
  <speed>4.12</speed>
  <fix>3d</fix>
</trkpt>
<trkpt lat="40.0711118" lon="-105.230024">
  <ele>1583.15</ele>
  <time>2026-08-28T17:56:45Z</time>
  <course>133.53</course>
  <speed>3.952138661535043</speed>
  <fix>3d</fix>
</trkpt>
<trkpt lat="40.0711151" lon="-105.2300287">
  <ele>1583.0</ele>
  <time>2026-08-28T17:56:45Z</time>
  <course>133.79</course>
  <speed>4.01</speed>
  <fix>3d</fix>
</trkpt>
<trkpt lat="40.0711095" lon="-105.2300206">
  <ele>1583.15</ele>
  <time>2026-08-28T17:56:45Z</time>
  <course>131.87</course>
  <speed>3.8756934863324783</speed>
  <fix>3d</fix>
</trkpt>
<trkpt lat="40.0711151" lon="-105.2300287">
  <ele>1583.0</ele>
  <time>2026-08-28T17:56:45Z</time>
  <course>133.79</course>
  <speed>4.01</speed>
  <fix>3d</fix>
</trkpt>
<trkpt lat="40.0711073" lon="-105.2300171">
  <ele>1583.15</ele>
  <time>2026-08-28T17:56:45Z</time>
  <course>130.17</course>
  <speed>3.7951152815164915</speed>
  <fix>3d</fix>
</trkpt>
<trkpt lat="40.0711103" lon="-105.2300219">
  <ele>1583.0</ele>
  <time>2026-08-28T17:56:45Z</time>
  <course>130.51</course>
  <speed>3.87</speed>
  <fix>3d</fix>
</trkpt>
<trkpt lat="40.0711053" lon="-105.2300136">
  <ele>1583.16</ele>
  <time>2026-08-28T17:56:45Z</time>
  <course>128.42</course>
  <speed>3.712155707941142</speed>
  <fix>3d</fix>
</trkpt>
<trkpt lat="40.0711103" lon="-105.2300219">
  <ele>1583.0</ele>
  <time>2026-08-28T17:56:45Z</time>
  <course>130.51</course>
  <speed>3.87</speed>
  <fix>3d</fix>
</trkpt>
<trkpt lat="40.0711034" lon="-105.2300101">
  <ele>1583.16</ele>
  <time>2026-08-28T17:56:45Z</time>
  <course>126.62</course>
  <speed>3.6309365183103934</speed>
  <fix>3d</fix>
</trkpt>
<trkpt lat="40.071106" lon="-105.230015">
  <ele>1583.0</ele>
  <time>2026-08-28T17:56:45Z</time>
  <course>127.04</course>
  <speed>3.71</speed>
  <fix>3d</fix>
</trkpt>
<trkpt lat="40.0711016" lon="-105.2300066">
  <ele>1583.16</ele>
  <time>2026-08-28T17:56:45Z</time>
  <course>124.79</course>
  <speed>3.5479853438254225</speed>
  <fix>3d</fix>
</trkpt>
<trkpt lat="40.071106" lon="-105.230015">
  <ele>1583.0</ele>
  <time>2026-08-28T17:56:45Z</time>
  <course>127.04</course>
  <speed>3.71</speed>
  <fix>3d</fix>
</trkpt>
<trkpt lat="40.0710999" lon="-105.2300031">
  <ele>1583.16</ele>
  <time>2026-08-28T17:56:45Z</time>
  <course>122.9</course>
  <speed>3.466020773163369</speed>
  <fix>3d</fix>
</trkpt>
<trkpt lat="40.071106" lon="-105.230015">
  <ele>1583.0</ele>
  <time>2026-08-28T17:56:45Z</time>
  <course>127.04</course>
  <speed>3.71</speed>
  <fix>3d</fix>
</trkpt>
<trkpt lat="40.0710984" lon="-105.2299996">
  <ele>1583.16</ele>
  <time>2026-08-28T17:56:45Z</time>
  <course>121.0</course>
  <speed>3.38309030325825</speed>
  <fix>3d</fix>
</trkpt>
<trkpt lat="40.0711022" lon="-105.230008">
  <ele>1583.0</ele>
  <time>2026-08-28T17:56:45Z</time>
  <course>123.39</course>
  <speed>3.54</speed>
  <fix>3d</fix>
</trkpt>
<trkpt lat="40.071097" lon="-105.2299962">
  <ele>1583.16</ele>
  <time>2026-08-28T17:56:45Z</time>
  <course>119.07</course>
  <speed>3.3138648131750936</speed>
  <fix>3d</fix>
</trkpt>
<trkpt lat="40.0711022" lon="-105.230008">
  <ele>1583.0</ele>
  <time>2026-08-28T17:56:45Z</time>
  <course>123.39</course>
  <speed>3.54</speed>
  <fix>3d</fix>
</trkpt>
<trkpt lat="40.0710958" lon="-105.2299928">
  <ele>1583.15</ele>
  <time>2026-08-28T17:56:45Z</time>
  <course>117.11</course>
  <speed>3.2351352367404984</speed>
  <fix>3d</fix>
</trkpt>
<trkpt lat="40.071099" lon="-105.230001">
  <ele>1583.0</ele>
  <time>2026-08-28T17:56:45Z</time>
  <course>119.6</course>
  <speed>3.39</speed>
  <fix>3d</fix>
</trkpt>
<trkpt lat="40.0710946" lon="-105.2299894">
  <ele>1583.15</ele>
  <time>2026-08-28T17:56:45Z</time>
  <course>115.13</course>
  <speed>3.173846247063648</speed>
  <fix>3d</fix>
</trkpt>
<trkpt lat="40.071099" lon="-105.230001">
  <ele>1583.0</ele>
  <time>2026-08-28T17:56:45Z</time>
  <course>119.6</course>
  <speed>3.39</speed>
  <fix>3d</fix>
</trkpt>
<trkpt lat="40.0710936" lon="-105.229986">
  <ele>1583.15</ele>
  <time>2026-08-28T17:56:45Z</time>
  <course>113.14</course>
  <speed>3.1203204963593083</speed>
  <fix>3d</fix>
</trkpt>
<trkpt lat="40.0710962" lon="-105.2299941">
  <ele>1583.0</ele>
  <time>2026-08-28T17:56:45Z</time>
  <course>115.71</course>
  <speed>3.25</speed>
  <fix>3d</fix>
</trkpt>
<trkpt lat="40.0710927" lon="-105.2299826">
  <ele>1583.14</ele>
  <time>2026-08-28T17:56:45Z</time>
  <course>111.11</course>
  <speed>3.0705862632402954</speed>
  <fix>3d</fix>
</trkpt>
<trkpt lat="40.0710939" lon="-105.2299873">
  <ele>1583.0</ele>
  <time>2026-08-28T17:56:45Z</time>
  <course>111.74</course>
  <speed>3.13</speed>
  <fix>3d</fix>
</trkpt>
<trkpt lat="40.0710918" lon="-105.2299792">
  <ele>1583.14</ele>
  <time>2026-08-28T17:56:45Z</time>
  <course>109.11</course>
  <speed>3.0344192195542132</speed>
  <fix>3d</fix>
</trkpt>
<trkpt lat="40.0710939" lon="-105.2299873">
  <ele>1583.0</ele>
  <time>2026-08-28T17:56:45Z</time>
  <course>111.74</course>
  <speed>3.13</speed>
  <fix>3d</fix>
</trkpt>
<trkpt lat="40.0710911" lon="-105.2299758">
  <ele>1583.14</ele>
  <time>2026-08-28T17:56:45Z</time>
  <course>107.1</course>
  <speed>3.005095672353877</speed>
  <fix>3d</fix>
</trkpt>
<trkpt lat="40.071092" lon="-105.2299804">
  <ele>1583.0</ele>
  <time>2026-08-28T17:56:45Z</time>
  <course>107.72</course>
  <speed>3.05</speed>
  <fix>3d</fix>
</trkpt>
<trkpt lat="40.0710905" lon="-105.2299724">
  <ele>1583.14</ele>
  <time>2026-08-28T17:56:45Z</time>
  <course>105.1</course>
  <speed>2.9893143026453406</speed>
  <fix>3d</fix>
</trkpt>
<trkpt lat="40.071092" lon="-105.2299804">
  <ele>1583.0</ele>
  <time>2026-08-28T17:56:45Z</time>
  <course>107.72</course>
  <speed>3.05</speed>
  <fix>3d</fix>
</trkpt>
<trkpt lat="40.0710899" lon="-105.229969">
  <ele>1583.14</ele>
  <time>2026-08-28T17:56:45Z</time>
  <course>103.11</course>
  <speed>2.9793455657241243</speed>
  <fix>3d</fix>
</trkpt>
<trkpt lat="40.0710905" lon="-105.2299735">
  <ele>1583.0</ele>
  <time>2026-08-28T17:56:45Z</time>
  <course>103.72</course>
  <speed>3.0</speed>
  <fix>3d</fix>
</trkpt>
<trkpt lat="40.0710895" lon="-105.2299655">
  <ele>1583.14</ele>
  <time>2026-08-28T17:56:45Z</time>
  <course>101.14</course>
  <speed>2.971279185805333</speed>
  <fix>3d</fix>
</trkpt>
<trkpt lat="40.0710905" lon="-105.2299735">
  <ele>1583.0</ele>
  <time>2026-08-28T17:56:45Z</time>
  <course>103.72</course>
  <speed>3.0</speed>
  <fix>3d</fix>
</trkpt>
<trkpt lat="40.0710891" lon="-105.2299621">
  <ele>1583.14</ele>
  <time>2026-08-28T17:56:45Z</time>
  <course>99.19</course>
  <speed>2.9783384629689085</speed>
  <fix>3d</fix>
</trkpt>
<trkpt lat="40.0710894" lon="-105.2299667">
  <ele>1583.0</ele>
  <time>2026-08-28T17:56:45Z</time>
  <course>99.75</course>
  <speed>2.99</speed>
  <fix>3d</fix>
</trkpt>
<trkpt lat="40.0710888" lon="-105.2299586">
  <ele>1583.14</ele>
  <time>2026-08-28T17:56:45Z</time>
  <course>97.27</course>
  <speed>2.989648808806814</speed>
  <fix>3d</fix>
</trkpt>
<trkpt lat="40.0710894" lon="-105.2299667">
  <ele>1583.0</ele>
  <time>2026-08-28T17:56:45Z</time>
  <course>99.75</course>
  <speed>2.99</speed>
  <fix>3d</fix>
</trkpt>
<trkpt lat="40.0710886" lon="-105.229955">
  <ele>1583.14</ele>
  <time>2026-08-28T17:56:45Z</time>
  <course>95.37</course>
  <speed>3.013254055004324</speed>
  <fix>3d</fix>
</trkpt>
<trkpt lat="40.0710887" lon="-105.2299597">
  <ele>1583.0</ele>
  <time>2026-08-28T17:56:45Z</time>
  <course>95.87</course>
  <speed>3.0</speed>
  <fix>3d</fix>
</trkpt>
<trkpt lat="40.0710885" lon="-105.2299515">
  <ele>1583.14</ele>
  <time>2026-08-28T17:56:45Z</time>
  <course>93.5</course>
  <speed>3.0402631465055783</speed>
  <fix>3d</fix>
</trkpt>
<trkpt lat="40.0710887" lon="-105.2299597">
  <ele>1583.0</ele>
  <time>2026-08-28T17:56:45Z</time>
  <course>95.87</course>
  <speed>3.0</speed>
  <fix>3d</fix>
</trkpt>
<trkpt lat="40.0710885" lon="-105.2299479">
  <ele>1583.14</ele>
  <time>2026-08-28T17:56:45Z</time>
  <course>91.67</course>
  <speed>3.0704071391266665</speed>
  <fix>3d</fix>
</trkpt>
<trkpt lat="40.0710883" lon="-105.2299527">
  <ele>1583.0</ele>
  <time>2026-08-28T17:56:45Z</time>
  <course>92.11</course>
  <speed>3.04</speed>
  <fix>3d</fix>
</trkpt>
<trkpt lat="40.0710886" lon="-105.2299442">
  <ele>1583.14</ele>
  <time>2026-08-28T17:56:45Z</time>
  <course>89.89</course>
  <speed>3.113149530620076</speed>
  <fix>3d</fix>
</trkpt>
<trkpt lat="40.0710883" lon="-105.2299527">
  <ele>1583.0</ele>
  <time>2026-08-28T17:56:45Z</time>
  <course>92.11</course>
  <speed>3.04</speed>
  <fix>3d</fix>
</trkpt>
<trkpt lat="40.0710886" lon="-105.2299406">
  <ele>1583.15</ele>
  <time>2026-08-28T17:56:45Z</time>
  <course>88.14</course>
  <speed>3.1591296269700617</speed>
  <fix>3d</fix>
</trkpt>
<trkpt lat="40.0710883" lon="-105.2299454">
  <ele>1583.0</ele>
  <time>2026-08-28T17:56:45Z</time>
  <course>88.48</course>
  <speed>3.11</speed>
  <fix>3d</fix>
</trkpt>
<trkpt lat="40.0710888" lon="-105.2299368">
  <ele>1583.15</ele>
  <time>2026-08-28T17:56:45Z</time>
  <course>86.42</course>
  <speed>3.208067954392488</speed>
  <fix>3d</fix>
</trkpt>
<trkpt lat="40.0710883" lon="-105.2299454">
  <ele>1583.0</ele>
  <time>2026-08-28T17:56:45Z</time>
  <course>88.48</course>
  <speed>3.11</speed>
  <fix>3d</fix>
</trkpt>
<trkpt lat="40.0710892" lon="-105.229933">
  <ele>1583.15</ele>
  <time>2026-08-28T17:56:45Z</time>
  <course>84.75</course>
  <speed>3.2584965858505974</speed>
  <fix>3d</fix>
</trkpt>
<trkpt lat="40.0710883" lon="-105.2299454">
  <ele>1583.0</ele>
  <time>2026-08-28T17:56:45Z</time>
  <course>88.48</course>
  <speed>3.11</speed>
  <fix>3d</fix>
</trkpt>
<trkpt lat="40.0710896" lon="-105.2299292">
  <ele>1583.15</ele>
  <time>2026-08-28T17:56:45Z</time>
  <course>83.11</course>
  <speed>3.322544205875973</speed>
  <fix>3d</fix>
</trkpt>
<trkpt lat="40.0710885" lon="-105.229938">
  <ele>1583.0</ele>
  <time>2026-08-28T17:56:45Z</time>
  <course>85.0</course>
  <speed>3.21</speed>
  <fix>3d</fix>
</trkpt>
<trkpt lat="40.0710901" lon="-105.2299253">
  <ele>1583.15</ele>
  <time>2026-08-28T17:56:45Z</time>
  <course>81.53</course>
  <speed>3.379245477913672</speed>
  <fix>3d</fix>
</trkpt>
<trkpt lat="40.0710885" lon="-105.229938">
  <ele>1583.0</ele>
  <time>2026-08-28T17:56:45Z</time>
  <course>85.0</course>
  <speed>3.21</speed>
  <fix>3d</fix>
</trkpt>
<trkpt lat="40.0710907" lon="-105.2299214">
  <ele>1583.15</ele>
  <time>2026-08-28T17:56:45Z</time>
  <course>80.0</course>
  <speed>3.4481589290518495</speed>
  <fix>3d</fix>
</trkpt>
<trkpt lat="40.0710892" lon="-105.2299304">
  <ele>1583.0</ele>
  <time>2026-08-28T17:56:45Z</time>
  <course>81.7</course>
  <speed>3.32</speed>
  <fix>3d</fix>
</trkpt>
<trkpt lat="40.0710913" lon="-105.2299174">
  <ele>1583.16</ele>
  <time>2026-08-28T17:56:45Z</time>
  <course>78.65</course>
  <speed>3.5169304798360743</speed>
  <fix>3d</fix>
</trkpt>
<trkpt lat="40.0710892" lon="-105.2299304">
  <ele>1583.0</ele>
  <time>2026-08-28T17:56:45Z</time>
  <course>81.7</course>
  <speed>3.32</speed>
  <fix>3d</fix>
</trkpt>
<trkpt lat="40.0710921" lon="-105.2299134">
  <ele>1583.16</ele>
  <time>2026-08-28T17:56:45Z</time>
  <course>77.47</course>
  <speed>3.5873388465546436</speed>
  <fix>3d</fix>
</trkpt>
<trkpt lat="40.0710903" lon="-105.2299225">
  <ele>1583.0</ele>
  <time>2026-08-28T17:56:45Z</time>
  <course>78.66</course>
  <speed>3.45</speed>
  <fix>3d</fix>
</trkpt>
<trkpt lat="40.0710929" lon="-105.2299093">
  <ele>1583.16</ele>
  <time>2026-08-28T17:56:45Z</time>
  <course>76.45</course>
  <speed>3.666196939609218</speed>
  <fix>3d</fix>
</trkpt>
<trkpt lat="40.0710916" lon="-105.2299144">
  <ele>1583.0</ele>
  <time>2026-08-28T17:56:45Z</time>
  <course>76.14</course>
  <speed>3.6</speed>
  <fix>3d</fix>
</trkpt>
<trkpt lat="40.0710938" lon="-105.229905">
  <ele>1583.16</ele>
  <time>2026-08-28T17:56:45Z</time>
  <course>75.61</course>
  <speed>3.7528122788117177</speed>
  <fix>3d</fix>
</trkpt>
<trkpt lat="40.0710916" lon="-105.2299144">
  <ele>1583.0</ele>
  <time>2026-08-28T17:56:45Z</time>
  <course>76.14</course>
  <speed>3.6</speed>
  <fix>3d</fix>
</trkpt>
<trkpt lat="40.0710947" lon="-105.2299008">
  <ele>1583.17</ele>
  <time>2026-08-28T17:56:45Z</time>
  <course>74.93</course>
  <speed>3.8370952555285878</speed>
  <fix>3d</fix>
</trkpt>
<trkpt lat="40.0710933" lon="-105.2299061">
  <ele>1583.0</ele>
  <time>2026-08-28T17:56:45Z</time>
  <course>74.3</course>
  <speed>3.76</speed>
  <fix>3d</fix>
</trkpt>
<trkpt lat="40.0710958" lon="-105.2298963">
  <ele>1583.17</ele>
  <time>2026-08-28T17:56:45Z</time>
  <course>74.4</course>
  <speed>3.9217343102255153</speed>
  <fix>3d</fix>
</trkpt>
<trkpt lat="40.0710933" lon="-105.2299061">
  <ele>1583.0</ele>
  <time>2026-08-28T17:56:45Z</time>
  <course>74.3</course>
  <speed>3.76</speed>
  <fix>3d</fix>
</trkpt>
<trkpt lat="40.0710968" lon="-105.2298919">
  <ele>1583.17</ele>
  <time>2026-08-28T17:56:45Z</time>
  <course>74.02</course>
  <speed>4.022660810955853</speed>
  <fix>3d</fix>
</trkpt>
<trkpt lat="40.0710953" lon="-105.2298974">
  <ele>1583.0</ele>
  <time>2026-08-28T17:56:45Z</time>
  <course>73.08</course>
  <speed>3.93</speed>
  <fix>3d</fix>
</trkpt>
<trkpt lat="40.0710979" lon="-105.2298872">
  <ele>1583.17</ele>
  <time>2026-08-28T17:56:45Z</time>
  <course>73.76</course>
  <speed>4.111082582483597</speed>
  <fix>3d</fix>
</trkpt>
<trkpt lat="40.0710953" lon="-105.2298974">
  <ele>1583.0</ele>
  <time>2026-08-28T17:56:45Z</time>
  <course>73.08</course>
  <speed>3.93</speed>
  <fix>3d</fix>
</trkpt>
<trkpt lat="40.0710991" lon="-105.2298825">
  <ele>1583.17</ele>
  <time>2026-08-28T17:56:45Z</time>
  <course>73.64</course>
  <speed>4.218554254718078</speed>
  <fix>3d</fix>
</trkpt>
<trkpt lat="40.0710974" lon="-105.2298884">
  <ele>1583.0</ele>
  <time>2026-08-28T17:56:45Z</time>
  <course>72.43</course>
  <speed>4.12</speed>
  <fix>3d</fix>
</trkpt>
<trkpt lat="40.0711003" lon="-105.2298777">
  <ele>1583.17</ele>
  <time>2026-08-28T17:56:45Z</time>
  <course>73.62</course>
  <speed>4.3229272489830315</speed>
  <fix>3d</fix>
</trkpt>
<trkpt lat="40.0710974" lon="-105.2298884">
  <ele>1583.0</ele>
  <time>2026-08-28T17:56:45Z</time>
  <course>72.43</course>
  <speed>4.12</speed>
  <fix>3d</fix>
</trkpt>
<trkpt lat="40.0711015" lon="-105.2298728">
  <ele>1583.17</ele>
  <time>2026-08-28T17:56:45Z</time>
  <course>73.62</course>
  <speed>4.427301661283089</speed>
  <fix>3d</fix>
</trkpt>
<trkpt lat="40.0710998" lon="-105.2298789">
  <ele>1583.0</ele>
  <time>2026-08-28T17:56:45Z</time>
  <course>72.23</course>
  <speed>4.33</speed>
  <fix>3d</fix>
</trkpt>
<trkpt lat="40.0711027" lon="-105.2298677">
  <ele>1583.17</ele>
  <time>2026-08-28T17:56:45Z</time>
  <course>73.61</course>
  <speed>4.541189271545506</speed>
  <fix>3d</fix>
</trkpt>
<trkpt lat="40.0710998" lon="-105.2298789">
  <ele>1583.0</ele>
  <time>2026-08-28T17:56:45Z</time>
  <course>72.23</course>
  <speed>4.33</speed>
  <fix>3d</fix>
</trkpt>
<trkpt lat="40.071104" lon="-105.2298625">
  <ele>1583.17</ele>
  <time>2026-08-28T17:56:45Z</time>
  <course>73.6</course>
  <speed>4.648655719667784</speed>
  <fix>3d</fix>
</trkpt>
<trkpt lat="40.0711022" lon="-105.229869">
  <ele>1583.0</ele>
  <time>2026-08-28T17:56:45Z</time>
  <course>72.2</course>
  <speed>4.55</speed>
  <fix>3d</fix>
</trkpt>
<trkpt lat="40.0711053" lon="-105.2298571">
  <ele>1583.17</ele>
  <time>2026-08-28T17:56:45Z</time>
  <course>73.58</course>
  <speed>4.7625413384032695</speed>
  <fix>3d</fix>
</trkpt>
<trkpt lat="40.0711022" lon="-105.229869">
  <ele>1583.0</ele>
  <time>2026-08-28T17:56:45Z</time>
  <course>72.2</course>
  <speed>4.55</speed>
  <fix>3d</fix>
</trkpt>
<trkpt lat="40.0711066" lon="-105.2298517">
  <ele>1583.17</ele>
  <time>2026-08-28T17:56:45Z</time>
  <course>73.57</course>
  <speed>4.876433122683013</speed>
  <fix>3d</fix>
</trkpt>
<trkpt lat="40.0711048" lon="-105.2298586">
  <ele>1583.0</ele>
  <time>2026-08-28T17:56:45Z</time>
  <course>72.16</course>
  <speed>4.77</speed>
  <fix>3d</fix>
</trkpt>
<trkpt lat="40.071108" lon="-105.2298461">
  <ele>1583.17</ele>
  <time>2026-08-28T17:56:45Z</time>
  <course>73.55</course>
  <speed>5.002919147857579</speed>
  <fix>3d</fix>
</trkpt>
<trkpt lat="40.0711048" lon="-105.2298586">
  <ele>1583.0</ele>
  <time>2026-08-28T17:56:45Z</time>
  <course>72.16</course>
  <speed>4.77</speed>
  <fix>3d</fix>
</trkpt>
<trkpt lat="40.0711094" lon="-105.2298404">
  <ele>1583.17</ele>
  <time>2026-08-28T17:56:45Z</time>
  <course>73.53</course>
  <speed>5.116815415861706</speed>
  <fix>3d</fix>
</trkpt>
<trkpt lat="40.0711048" lon="-105.2298586">
  <ele>1583.0</ele>
  <time>2026-08-28T17:56:45Z</time>
  <course>72.16</course>
  <speed>4.77</speed>
  <fix>3d</fix>
</trkpt>
<trkpt lat="40.0711108" lon="-105.2298346">
  <ele>1583.17</ele>
  <time>2026-08-28T17:56:45Z</time>
  <course>73.51</course>
  <speed>5.230716968064703</speed>
  <fix>3d</fix>
</trkpt>
<trkpt lat="40.0711074" lon="-105.2298476">
  <ele>1583.0</ele>
  <time>2026-08-28T17:56:45Z</time>
  <course>72.12</course>
  <speed>5.0</speed>
  <fix>3d</fix>
</trkpt>
<trkpt lat="40.0711122" lon="-105.2298286">
  <ele>1583.17</ele>
  <time>2026-08-28T17:56:45Z</time>
  <course>73.49</course>
  <speed>5.338164478545036</speed>
  <fix>3d</fix>
</trkpt>
<trkpt lat="40.0711074" lon="-105.2298476">
  <ele>1583.0</ele>
  <time>2026-08-28T17:56:45Z</time>
  <course>72.12</course>
  <speed>5.0</speed>
  <fix>3d</fix>
</trkpt>
<trkpt lat="40.0711137" lon="-105.2298226">
  <ele>1583.16</ele>
  <time>2026-08-28T17:56:45Z</time>
  <course>73.47</course>
  <speed>5.452063829413592</speed>
  <fix>3d</fix>
</trkpt>
<trkpt lat="40.0711103" lon="-105.2298362">
  <ele>1583.0</ele>
  <time>2026-08-28T17:56:45Z</time>
  <course>72.08</course>
  <speed>5.23</speed>
  <fix>3d</fix>
</trkpt>
<trkpt lat="40.0711152" lon="-105.2298164">
  <ele>1583.16</ele>
  <time>2026-08-28T17:56:45Z</time>
  <course>73.45</course>
  <speed>5.565968020030299</speed>
  <fix>3d</fix>
</trkpt>
<trkpt lat="40.0711103" lon="-105.2298362">
  <ele>1583.0</ele>
  <time>2026-08-28T17:56:45Z</time>
  <course>72.08</course>
  <speed>5.23</speed>
  <fix>3d</fix>
</trkpt>
<trkpt lat="40.0711167" lon="-105.2298102">
  <ele>1583.16</ele>
  <time>2026-08-28T17:56:45Z</time>
  <course>73.42</course>
  <speed>5.673411672001248</speed>
  <fix>3d</fix>
</trkpt>
<trkpt lat="40.0711132" lon="-105.2298242">
  <ele>1583.0</ele>
  <time>2026-08-28T17:56:45Z</time>
  <course>72.03</course>
  <speed>5.46</speed>
  <fix>3d</fix>
</trkpt>
<trkpt lat="40.0711183" lon="-105.2298038">
  <ele>1583.16</ele>
  <time>2026-08-28T17:56:45Z</time>
  <course>73.4</course>
  <speed>5.7873137119046865</speed>
  <fix>3d</fix>
</trkpt>
<trkpt lat="40.0711132" lon="-105.2298242">
  <ele>1583.0</ele>
  <time>2026-08-28T17:56:45Z</time>
  <course>72.03</course>
  <speed>5.46</speed>
  <fix>3d</fix>
</trkpt>
<trkpt lat="40.0711199" lon="-105.2297972">
  <ele>1583.16</ele>
  <time>2026-08-28T17:56:45Z</time>
  <course>73.37</course>
  <speed>5.894760385291331</speed>
  <fix>3d</fix>
</trkpt>
<trkpt lat="40.0711163" lon="-105.2298117">
  <ele>1583.0</ele>
  <time>2026-08-28T17:56:45Z</time>
  <course>71.99</course>
  <speed>5.69</speed>
  <fix>3d</fix>
</trkpt>
<trkpt lat="40.0711216" lon="-105.2297906">
  <ele>1583.16</ele>
  <time>2026-08-28T17:56:45Z</time>
  <course>73.35</course>
  <speed>6.008660416432268</speed>
  <fix>3d</fix>
</trkpt>
<trkpt lat="40.0711196" lon="-105.2297988">
  <ele>1583.0</ele>
  <time>2026-08-28T17:56:45Z</time>
  <course>71.94</course>
  <speed>5.92</speed>
  <fix>3d</fix>
</trkpt>
<trkpt lat="40.0711232" lon="-105.2297837">
  <ele>1583.16</ele>
  <time>2026-08-28T17:56:45Z</time>
  <course>73.33</course>
  <speed>6.113043431875812</speed>
  <fix>3d</fix>
</trkpt>
<trkpt lat="40.0711196" lon="-105.2297988">
  <ele>1583.0</ele>
  <time>2026-08-28T17:56:45Z</time>
  <course>71.94</course>
  <speed>5.92</speed>
  <fix>3d</fix>
</trkpt>
<trkpt lat="40.071125" lon="-105.2297768">
  <ele>1583.15</ele>
  <time>2026-08-28T17:56:45Z</time>
  <course>73.31</course>
  <speed>6.220490334370757</speed>
  <fix>3d</fix>
</trkpt>
<trkpt lat="40.071123" lon="-105.2297853">
  <ele>1583.0</ele>
  <time>2026-08-28T17:56:45Z</time>
  <course>71.9</course>
  <speed>6.14</speed>
  <fix>3d</fix>
</trkpt>
<trkpt lat="40.0711267" lon="-105.2297697">
  <ele>1583.15</ele>
  <time>2026-08-28T17:56:45Z</time>
  <course>73.29</course>
  <speed>6.334390262685115</speed>
  <fix>3d</fix>
</trkpt>
<trkpt lat="40.071123" lon="-105.2297853">
  <ele>1583.0</ele>
  <time>2026-08-28T17:56:45Z</time>
  <course>71.9</course>
  <speed>6.14</speed>
  <fix>3d</fix>
</trkpt>
<trkpt lat="40.0711285" lon="-105.2297625">
  <ele>1583.16</ele>
  <time>2026-08-28T17:56:45Z</time>
  <course>73.28</course>
  <speed>6.429253455884282</speed>
  <fix>3d</fix>
</trkpt>
<trkpt lat="40.0711264" lon="-105.2297714">
  <ele>1583.0</ele>
  <time>2026-08-28T17:56:45Z</time>
  <course>71.87</course>
  <speed>6.35</speed>
  <fix>3d</fix>
</trkpt>
<trkpt lat="40.0711303" lon="-105.2297551">
  <ele>1583.16</ele>
  <time>2026-08-28T17:56:45Z</time>
  <course>73.26</course>
  <speed>6.533636047408823</speed>
  <fix>3d</fix>
</trkpt>
<trkpt lat="40.0711264" lon="-105.2297714">
  <ele>1583.0</ele>
  <time>2026-08-28T17:56:45Z</time>
  <course>71.87</course>
  <speed>6.35</speed>
  <fix>3d</fix>
</trkpt>
<trkpt lat="40.0711322" lon="-105.2297477">
  <ele>1583.16</ele>
  <time>2026-08-28T17:56:45Z</time>
  <course>73.25</course>
  <speed>6.618980284001457</speed>
  <fix>3d</fix>
</trkpt>
<trkpt lat="40.07113" lon="-105.229757">
  <ele>1583.0</ele>
  <time>2026-08-28T17:56:45Z</time>
  <course>71.86</course>
  <speed>6.55</speed>
  <fix>3d</fix>
</trkpt>
<trkpt lat="40.0711341" lon="-105.2297401">
  <ele>1583.16</ele>
  <time>2026-08-28T17:56:45Z</time>
  <course>73.25</course>
  <speed>6.704326961000635</speed>
  <fix>3d</fix>
</trkpt>
<trkpt lat="40.07113" lon="-105.229757">
  <ele>1583.0</ele>
  <time>2026-08-28T17:56:45Z</time>
  <course>71.86</course>
  <speed>6.55</speed>
  <fix>3d</fix>
</trkpt>
<trkpt lat="40.071136" lon="-105.2297325">
  <ele>1583.15</ele>
  <time>2026-08-28T17:56:45Z</time>
  <course>73.24</course>
  <speed>6.7770863946094115</speed>
  <fix>3d</fix>
</trkpt>
<trkpt lat="40.0711338" lon="-105.2297422">
  <ele>1583.0</ele>
  <time>2026-08-28T17:56:45Z</time>
  <course>71.85</course>
  <speed>6.71</speed>
  <fix>3d</fix>
</trkpt>
<trkpt lat="40.0711379" lon="-105.2297248">
  <ele>1583.15</ele>
  <time>2026-08-28T17:56:45Z</time>
  <course>73.23</course>
  <speed>6.840328939458979</speed>
  <fix>3d</fix>
</trkpt>
<trkpt lat="40.0711338" lon="-105.2297422">
  <ele>1583.0</ele>
  <time>2026-08-28T17:56:45Z</time>
  <course>71.85</course>
  <speed>6.71</speed>
  <fix>3d</fix>
</trkpt>
<trkpt lat="40.0711398" lon="-105.229717">
  <ele>1583.15</ele>
  <time>2026-08-28T17:56:45Z</time>
  <course>73.23</course>
  <speed>6.890986866915362</speed>
  <fix>3d</fix>
</trkpt>
<trkpt lat="40.0711376" lon="-105.229727">
  <ele>1583.0</ele>
  <time>2026-08-28T17:56:45Z</time>
  <course>71.85</course>
  <speed>6.84</speed>
  <fix>3d</fix>
</trkpt>
<trkpt lat="40.0711418" lon="-105.2297093">
  <ele>1583.15</ele>
  <time>2026-08-28T17:56:45Z</time>
  <course>73.22</course>
  <speed>6.935192859611043</speed>
  <fix>3d</fix>
</trkpt>
<trkpt lat="40.0711376" lon="-105.229727">
  <ele>1583.0</ele>
  <time>2026-08-28T17:56:45Z</time>
  <course>71.85</course>
  <speed>6.84</speed>
  <fix>3d</fix>
</trkpt>
<trkpt lat="40.0711437" lon="-105.2297015">
  <ele>1583.15</ele>
  <time>2026-08-28T17:56:45Z</time>
  <course>73.22</course>
  <speed>6.957298326218303</speed>
  <fix>3d</fix>
</trkpt>
<trkpt lat="40.0711414" lon="-105.2297117">
  <ele>1583.0</ele>
  <time>2026-08-28T17:56:45Z</time>
  <course>71.85</course>
  <speed>6.93</speed>
  <fix>3d</fix>
</trkpt>
<trkpt lat="40.0711457" lon="-105.2296936">
  <ele>1583.16</ele>
  <time>2026-08-28T17:56:45Z</time>
  <course>73.23</course>
  <speed>6.976331414145976</speed>
  <fix>3d</fix>
</trkpt>
<trkpt lat="40.0711414" lon="-105.2297117">
  <ele>1583.0</ele>
  <time>2026-08-28T17:56:45Z</time>
  <course>71.85</course>
  <speed>6.93</speed>
  <fix>3d</fix>
</trkpt>
<trkpt lat="40.0711477" lon="-105.2296858">
  <ele>1583.16</ele>
  <time>2026-08-28T17:56:45Z</time>
  <course>73.23</course>
  <speed>6.976331414145976</speed>
  <fix>3d</fix>
</trkpt>
<trkpt lat="40.0711414" lon="-105.2297117">
  <ele>1583.0</ele>
  <time>2026-08-28T17:56:45Z</time>
  <course>71.85</course>
  <speed>6.93</speed>
  <fix>3d</fix>
</trkpt>
<trkpt lat="40.0711496" lon="-105.2296779">
  <ele>1583.16</ele>
  <time>2026-08-28T17:56:45Z</time>
  <course>73.24</course>
  <speed>6.966814193015341</speed>
  <fix>3d</fix>
</trkpt>
<trkpt lat="40.0711453" lon="-105.2296961">
  <ele>1583.0</ele>
  <time>2026-08-28T17:56:45Z</time>
  <course>71.86</course>
  <speed>6.97</speed>
  <fix>3d</fix>
</trkpt>
<trkpt lat="40.0711516" lon="-105.2296702">
  <ele>1583.16</ele>
  <time>2026-08-28T17:56:45Z</time>
  <course>73.26</course>
  <speed>6.9447102171364925</speed>
  <fix>3d</fix>
</trkpt>
<trkpt lat="40.0711453" lon="-105.2296961">
  <ele>1583.0</ele>
  <time>2026-08-28T17:56:45Z</time>
  <course>71.86</course>
  <speed>6.97</speed>
  <fix>3d</fix>
</trkpt>
<trkpt lat="40.0711535" lon="-105.2296625">
  <ele>1583.16</ele>
  <time>2026-08-28T17:56:45Z</time>
  <course>73.28</course>
  <speed>6.903571539427979</speed>
  <fix>3d</fix>
</trkpt>
<trkpt lat="40.0711492" lon="-105.2296805">
  <ele>1583.0</ele>
  <time>2026-08-28T17:56:45Z</time>
  <course>71.88</course>
  <speed>6.97</speed>
  <fix>3d</fix>
</trkpt>
<trkpt lat="40.0711554" lon="-105.2296548">
  <ele>1583.16</ele>
  <time>2026-08-28T17:56:45Z</time>
  <course>73.3</course>
  <speed>6.862433970538442</speed>
  <fix>3d</fix>
</trkpt>
<trkpt lat="40.0711492" lon="-105.2296805">
  <ele>1583.0</ele>
  <time>2026-08-28T17:56:45Z</time>
  <course>71.88</course>
  <speed>6.97</speed>
  <fix>3d</fix>
</trkpt>
<trkpt lat="40.0711573" lon="-105.2296473">
  <ele>1583.16</ele>
  <time>2026-08-28T17:56:45Z</time>
  <course>73.33</course>
  <speed>6.7991911283622555</speed>
  <fix>3d</fix>
</trkpt>
<trkpt lat="40.0711531" lon="-105.229665">
  <ele>1583.0</ele>
  <time>2026-08-28T17:56:45Z</time>
  <course>71.91</course>
  <speed>6.91</speed>
  <fix>3d</fix>
</trkpt>
<trkpt lat="40.0711592" lon="-105.2296397">
  <ele>1583.16</ele>
  <time>2026-08-28T17:56:45Z</time>
  <course>73.36</course>
  <speed>6.723362254110661</speed>
  <fix>3d</fix>
</trkpt>
<trkpt lat="40.0711569" lon="-105.2296497">
  <ele>1583.0</ele>
  <time>2026-08-28T17:56:45Z</time>
  <course>71.95</course>
  <speed>6.82</speed>
  <fix>3d</fix>
</trkpt>
<trkpt lat="40.071161" lon="-105.2296323">
  <ele>1583.16</ele>
  <time>2026-08-28T17:56:45Z</time>
  <course>73.39</course>
  <speed>6.650601476558341</speed>
  <fix>3d</fix>
</trkpt>
<trkpt lat="40.0711569" lon="-105.2296497">
  <ele>1583.0</ele>
  <time>2026-08-28T17:56:45Z</time>
  <course>71.95</course>
  <speed>6.82</speed>
  <fix>3d</fix>
</trkpt>
<trkpt lat="40.0711629" lon="-105.2296249">
  <ele>1583.16</ele>
  <time>2026-08-28T17:56:45Z</time>
  <course>73.41</course>
  <speed>6.555737944732081</speed>
  <fix>3d</fix>
</trkpt>
<trkpt lat="40.0711607" lon="-105.2296346">
  <ele>1583.0</ele>
  <time>2026-08-28T17:56:45Z</time>
  <course>72.01</course>
  <speed>6.67</speed>
  <fix>3d</fix>
</trkpt>
<trkpt lat="40.0711647" lon="-105.2296176">
  <ele>1583.17</ele>
  <time>2026-08-28T17:56:45Z</time>
  <course>73.45</course>
  <speed>6.460874553804616</speed>
  <fix>3d</fix>
</trkpt>
<trkpt lat="40.0711607" lon="-105.2296346">
  <ele>1583.0</ele>
  <time>2026-08-28T17:56:45Z</time>
  <course>72.01</course>
  <speed>6.67</speed>
  <fix>3d</fix>
</trkpt>
<trkpt lat="40.0711665" lon="-105.2296104">
  <ele>1583.16</ele>
  <time>2026-08-28T17:56:45Z</time>
  <course>73.48</course>
  <speed>6.343910465950793</speed>
  <fix>3d</fix>
</trkpt>
<trkpt lat="40.0711643" lon="-105.2296199">
  <ele>1583.0</ele>
  <time>2026-08-28T17:56:45Z</time>
  <course>72.07</course>
  <speed>6.49</speed>
  <fix>3d</fix>
</trkpt>
<trkpt lat="40.0711683" lon="-105.2296033">
  <ele>1583.17</ele>
  <time>2026-08-28T17:56:45Z</time>
  <course>73.51</course>
  <speed>6.230008025677014</speed>
  <fix>3d</fix>
</trkpt>
<trkpt lat="40.0711643" lon="-105.2296199">
  <ele>1583.0</ele>
  <time>2026-08-28T17:56:45Z</time>
  <course>72.07</course>
  <speed>6.49</speed>
  <fix>3d</fix>
</trkpt>
<trkpt lat="40.07117" lon="-105.2295964">
  <ele>1583.17</ele>
  <time>2026-08-28T17:56:45Z</time>
  <course>73.55</course>
  <speed>6.103523572494826</speed>
  <fix>3d</fix>
</trkpt>
<trkpt lat="40.0711678" lon="-105.2296056">
  <ele>1583.0</ele>
  <time>2026-08-28T17:56:45Z</time>
  <course>72.14</course>
  <speed>6.26</speed>
  <fix>3d</fix>
</trkpt>
<trkpt lat="40.0711717" lon="-105.2295896">
  <ele>1583.16</ele>
  <time>2026-08-28T17:56:45Z</time>
  <course>73.59</course>
  <speed>5.967520423090313</speed>
  <fix>3d</fix>
</trkpt>
<trkpt lat="40.0711678" lon="-105.2296056">
  <ele>1583.0</ele>
  <time>2026-08-28T17:56:45Z</time>
  <course>72.14</course>
  <speed>6.26</speed>
  <fix>3d</fix>
</trkpt>
<trkpt lat="40.0711733" lon="-105.229583">
  <ele>1583.16</ele>
  <time>2026-08-28T17:56:45Z</time>
  <course>73.62</course>
  <speed>5.831517812713943</speed>
  <fix>3d</fix>
</trkpt>
<trkpt lat="40.0711712" lon="-105.2295919">
  <ele>1583.0</ele>
  <time>2026-08-28T17:56:45Z</time>
  <course>72.22</course>
  <speed>6.01</speed>
  <fix>3d</fix>
</trkpt>
<trkpt lat="40.0711749" lon="-105.2295765">
  <ele>1583.16</ele>
  <time>2026-08-28T17:56:45Z</time>
  <course>73.66</course>
  <speed>5.692451141643642</speed>
  <fix>3d</fix>
</trkpt>
<trkpt lat="40.0711712" lon="-105.2295919">
  <ele>1583.0</ele>
  <time>2026-08-28T17:56:45Z</time>
  <course>72.22</course>
  <speed>6.01</speed>
  <fix>3d</fix>
</trkpt>
<trkpt lat="40.0711765" lon="-105.2295702">
  <ele>1583.16</ele>
  <time>2026-08-28T17:56:45Z</time>
  <course>73.7</course>
  <speed>5.556446706304309</speed>
  <fix>3d</fix>
</trkpt>
<trkpt lat="40.0711744" lon="-105.2295787">
  <ele>1583.0</ele>
  <time>2026-08-28T17:56:45Z</time>
  <course>72.29</course>
  <speed>5.74</speed>
  <fix>3d</fix>
</trkpt>
<trkpt lat="40.071178" lon="-105.2295641">
  <ele>1583.16</ele>
  <time>2026-08-28T17:56:45Z</time>
  <course>73.73</course>
  <speed>5.4204427863413525</speed>
  <fix>3d</fix>
</trkpt>
<trkpt lat="40.0711744" lon="-105.2295787">
  <ele>1583.0</ele>
  <time>2026-08-28T17:56:45Z</time>
  <course>72.29</course>
  <speed>5.74</speed>
  <fix>3d</fix>
</trkpt>
<trkpt lat="40.0711794" lon="-105.2295581">
  <ele>1583.16</ele>
  <time>2026-08-28T17:56:45Z</time>
  <course>73.77</course>
  <speed>5.281382394790212</speed>
  <fix>3d</fix>
</trkpt>
<trkpt lat="40.0711775" lon="-105.2295662">
  <ele>1583.0</ele>
  <time>2026-08-28T17:56:45Z</time>
  <course>72.37</course>
  <speed>5.47</speed>
  <fix>3d</fix>
</trkpt>
<trkpt lat="40.0711809" lon="-105.2295523">
  <ele>1583.16</ele>
  <time>2026-08-28T17:56:45Z</time>
  <course>73.81</course>
  <speed>5.135854359305762</speed>
  <fix>3d</fix>
</trkpt>
<trkpt lat="40.0711775" lon="-105.2295662">
  <ele>1583.0</ele>
  <time>2026-08-28T17:56:45Z</time>
  <course>72.37</course>
  <speed>5.47</speed>
  <fix>3d</fix>
</trkpt>
<trkpt lat="40.0711823" lon="-105.2295466">
  <ele>1583.15</ele>
  <time>2026-08-28T17:56:45Z</time>
  <course>73.84</course>
  <speed>4.999849997749933</speed>
  <fix>3d</fix>
</trkpt>
<trkpt lat="40.0711775" lon="-105.2295662">
  <ele>1583.0</ele>
  <time>2026-08-28T17:56:45Z</time>
  <course>72.37</course>
  <speed>5.47</speed>
  <fix>3d</fix>
</trkpt>
<trkpt lat="40.0711836" lon="-105.2295411">
  <ele>1583.15</ele>
  <time>2026-08-28T17:56:45Z</time>
  <course>73.88</course>
  <speed>4.860792116517636</speed>
  <fix>3d</fix>
</trkpt>
<trkpt lat="40.0711804" lon="-105.2295542">
  <ele>1583.0</ele>
  <time>2026-08-28T17:56:45Z</time>
  <course>72.44</course>
  <speed>5.2</speed>
  <fix>3d</fix>
</trkpt>
<trkpt lat="40.0711849" lon="-105.2295357">
  <ele>1583.15</ele>
  <time>2026-08-28T17:56:45Z</time>
  <course>73.91</course>
  <speed>4.734310931909732</speed>
  <fix>3d</fix>
</trkpt>
<trkpt lat="40.0711804" lon="-105.2295542">
  <ele>1583.0</ele>
  <time>2026-08-28T17:56:45Z</time>
  <course>72.44</course>
  <speed>5.2</speed>
  <fix>3d</fix>
</trkpt>
<trkpt lat="40.0711862" lon="-105.2295305">
  <ele>1583.15</ele>
  <time>2026-08-28T17:56:45Z</time>
  <course>73.94</course>
  <speed>4.598304035185146</speed>
  <fix>3d</fix>
</trkpt>
<trkpt lat="40.0711831" lon="-105.2295429">
  <ele>1583.0</ele>
  <time>2026-08-28T17:56:45Z</time>
  <course>72.52</course>
  <speed>4.93</speed>
  <fix>3d</fix>
</trkpt>
<trkpt lat="40.0711874" lon="-105.2295254">
  <ele>1583.15</ele>
  <time>2026-08-28T17:56:45Z</time>
  <course>73.86</course>
  <speed>4.474874299910557</speed>
  <fix>3d</fix>
</trkpt>
<trkpt lat="40.0711831" lon="-105.2295429">
  <ele>1583.0</ele>
  <time>2026-08-28T17:56:45Z</time>
  <course>72.52</course>
  <speed>4.93</speed>
  <fix>3d</fix>
</trkpt>
<trkpt lat="40.0711886" lon="-105.2295205">
  <ele>1583.15</ele>
  <time>2026-08-28T17:56:45Z</time>
  <course>73.63</course>
  <speed>4.345043152835194</speed>
  <fix>3d</fix>
</trkpt>
<trkpt lat="40.0711857" lon="-105.2295321">
  <ele>1583.0</ele>
  <time>2026-08-28T17:56:45Z</time>
  <course>72.53</course>
  <speed>4.67</speed>
  <fix>3d</fix>
</trkpt>
<trkpt lat="40.0711898" lon="-105.2295158">
  <ele>1583.15</ele>
  <time>2026-08-28T17:56:45Z</time>
  <course>73.26</course>
  <speed>4.227966414246925</speed>
  <fix>3d</fix>
</trkpt>
<trkpt lat="40.0711857" lon="-105.2295321">
  <ele>1583.0</ele>
  <time>2026-08-28T17:56:45Z</time>
  <course>72.53</course>
  <speed>4.67</speed>
  <fix>3d</fix>
</trkpt>
<trkpt lat="40.071191" lon="-105.2295111">
  <ele>1583.14</ele>
  <time>2026-08-28T17:56:45Z</time>
  <course>72.72</course>
  <speed>4.104875150354759</speed>
  <fix>3d</fix>
</trkpt>
<trkpt lat="40.0711881" lon="-105.2295219">
  <ele>1583.0</ele>
  <time>2026-08-28T17:56:45Z</time>
  <course>72.21</course>
  <speed>4.43</speed>
  <fix>3d</fix>
</trkpt>
<trkpt lat="40.0711922" lon="-105.2295066">
  <ele>1583.14</ele>
  <time>2026-08-28T17:56:45Z</time>
  <course>72.01</course>
  <speed>3.9950093867223893</speed>
  <fix>3d</fix>
</trkpt>
<trkpt lat="40.0711906" lon="-105.2295123">
  <ele>1583.0</ele>
  <time>2026-08-28T17:56:45Z</time>
  <course>71.3</course>
  <speed>4.2</speed>
  <fix>3d</fix>
</trkpt>
<trkpt lat="40.0711934" lon="-105.2295023">
  <ele>1583.14</ele>
  <time>2026-08-28T17:56:45Z</time>
  <course>71.12</course>
  <speed>3.8892801390488705</speed>
  <fix>3d</fix>
</trkpt>
<trkpt lat="40.0711906" lon="-105.2295123">
  <ele>1583.0</ele>
  <time>2026-08-28T17:56:45Z</time>
  <course>71.3</course>
  <speed>4.2</speed>
  <fix>3d</fix>
</trkpt>
<trkpt lat="40.0711946" lon="-105.229498">
  <ele>1583.14</ele>
  <time>2026-08-28T17:56:45Z</time>
  <course>70.03</course>
  <speed>3.7826181409177426</speed>
  <fix>3d</fix>
</trkpt>
<trkpt lat="40.071193" lon="-105.2295033">
  <ele>1583.0</ele>
  <time>2026-08-28T17:56:45Z</time>
  <course>69.71</course>
  <speed>3.98</speed>
  <fix>3d</fix>
</trkpt>
<trkpt lat="40.0711959" lon="-105.2294939">
  <ele>1583.14</ele>
  <time>2026-08-28T17:56:45Z</time>
  <course>68.74</course>
  <speed>3.6778934187928827</speed>
  <fix>3d</fix>
</trkpt>
<trkpt lat="40.071193" lon="-105.2295033">
  <ele>1583.0</ele>
  <time>2026-08-28T17:56:45Z</time>
  <course>69.71</course>
  <speed>3.98</speed>
  <fix>3d</fix>
</trkpt>
<trkpt lat="40.0711972" lon="-105.22949">
  <ele>1583.14</ele>
  <time>2026-08-28T17:56:45Z</time>
  <course>67.22</course>
  <speed>3.5794552658190883</speed>
  <fix>3d</fix>
</trkpt>
<trkpt lat="40.0711955" lon="-105.2294948">
  <ele>1583.0</ele>
  <time>2026-08-28T17:56:45Z</time>
  <course>67.33</course>
  <speed>3.77</speed>
  <fix>3d</fix>
</trkpt>
<trkpt lat="40.0711986" lon="-105.2294862">
  <ele>1583.13</ele>
  <time>2026-08-28T17:56:45Z</time>
  <course>65.48</course>
  <speed>3.488266044899672</speed>
  <fix>3d</fix>
</trkpt>
<trkpt lat="40.0711955" lon="-105.2294948">
  <ele>1583.0</ele>
  <time>2026-08-28T17:56:45Z</time>
  <course>67.33</course>
  <speed>3.77</speed>
  <fix>3d</fix>
</trkpt>
<trkpt lat="40.0712001" lon="-105.2294825">
  <ele>1583.13</ele>
  <time>2026-08-28T17:56:45Z</time>
  <course>63.64</course>
  <speed>3.391872639118397</speed>
  <fix>3d</fix>
</trkpt>
<trkpt lat="40.0711983" lon="-105.2294869">
  <ele>1583.0</ele>
  <time>2026-08-28T17:56:45Z</time>
  <course>64.14</course>
  <speed>3.57</speed>
  <fix>3d</fix>
</trkpt>
<trkpt lat="40.0712016" lon="-105.229479">
  <ele>1583.13</ele>
  <time>2026-08-28T17:56:45Z</time>
  <course>61.74</course>
  <speed>3.3032408328791285</speed>
  <fix>3d</fix>
</trkpt>
<trkpt lat="40.0711983" lon="-105.2294869">
  <ele>1583.0</ele>
  <time>2026-08-28T17:56:45Z</time>
  <course>64.14</course>
  <speed>3.57</speed>
  <fix>3d</fix>
</trkpt>
<trkpt lat="40.0712031" lon="-105.2294757">
  <ele>1583.13</ele>
  <time>2026-08-28T17:56:45Z</time>
  <course>59.76</course>
  <speed>3.2235539393656807</speed>
  <fix>3d</fix>
</trkpt>
<trkpt lat="40.0712012" lon="-105.2294797">
  <ele>1583.0</ele>
  <time>2026-08-28T17:56:45Z</time>
  <course>60.42</course>
  <speed>3.38</speed>
  <fix>3d</fix>
</trkpt>
<trkpt lat="40.0712047" lon="-105.2294725">
  <ele>1583.13</ele>
  <time>2026-08-28T17:56:45Z</time>
  <course>57.72</course>
  <speed>3.14836465486449</speed>
  <fix>3d</fix>
</trkpt>
<trkpt lat="40.0712012" lon="-105.2294797">
  <ele>1583.0</ele>
  <time>2026-08-28T17:56:45Z</time>
  <course>60.42</course>
  <speed>3.38</speed>
  <fix>3d</fix>
</trkpt>
<trkpt lat="40.0712063" lon="-105.2294695">
  <ele>1583.13</ele>
  <time>2026-08-28T17:56:45Z</time>
  <course>55.62</course>
  <speed>3.086000648088072</speed>
  <fix>3d</fix>
</trkpt>
<trkpt lat="40.0712043" lon="-105.2294731">
  <ele>1583.0</ele>
  <time>2026-08-28T17:56:45Z</time>
  <course>56.39</course>
  <speed>3.22</speed>
  <fix>3d</fix>
</trkpt>
<trkpt lat="40.0712081" lon="-105.2294666">
  <ele>1583.13</ele>
  <time>2026-08-28T17:56:45Z</time>
  <course>53.44</course>
  <speed>3.022002647252315</speed>
  <fix>3d</fix>
</trkpt>
<trkpt lat="40.0712043" lon="-105.2294731">
  <ele>1583.0</ele>
  <time>2026-08-28T17:56:45Z</time>
  <course>56.39</course>
  <speed>3.22</speed>
  <fix>3d</fix>
</trkpt>
<trkpt lat="40.0712098" lon="-105.2294639">
  <ele>1583.13</ele>
  <time>2026-08-28T17:56:45Z</time>
  <course>51.18</course>
  <speed>2.961418578992169</speed>
  <fix>3d</fix>
</trkpt>
<trkpt lat="40.0712076" lon="-105.2294671">
  <ele>1583.0</ele>
  <time>2026-08-28T17:56:45Z</time>
  <course>52.08</course>
  <speed>3.08</speed>
  <fix>3d</fix>
</trkpt>
<trkpt lat="40.0712116" lon="-105.2294612">
  <ele>1583.13</ele>
  <time>2026-08-28T17:56:45Z</time>
  <course>48.87</course>
  <speed>2.913829095880539</speed>
  <fix>3d</fix>
</trkpt>
<trkpt lat="40.0712076" lon="-105.2294671">
  <ele>1583.0</ele>
  <time>2026-08-28T17:56:45Z</time>
  <course>52.08</course>
  <speed>3.08</speed>
  <fix>3d</fix>
</trkpt>
<trkpt lat="40.0712135" lon="-105.2294588">
  <ele>1583.13</ele>
  <time>2026-08-28T17:56:45Z</time>
  <course>46.51</course>
  <speed>2.8714108030722456</speed>
  <fix>3d</fix>
</trkpt>
<trkpt lat="40.0712076" lon="-105.2294671">
  <ele>1583.0</ele>
  <time>2026-08-28T17:56:45Z</time>
  <course>52.08</course>
  <speed>3.08</speed>
  <fix>3d</fix>
</trkpt>
<trkpt lat="40.0712154" lon="-105.2294565">
  <ele>1583.13</ele>
  <time>2026-08-28T17:56:45Z</time>
  <course>44.07</course>
  <speed>2.834395879195424</speed>
  <fix>3d</fix>
</trkpt>
<trkpt lat="40.0712112" lon="-105.2294617">
  <ele>1583.0</ele>
  <time>2026-08-28T17:56:45Z</time>
  <course>47.5</course>
  <speed>2.97</speed>
  <fix>3d</fix>
</trkpt>
<trkpt lat="40.0712173" lon="-105.2294543">
  <ele>1583.13</ele>
  <time>2026-08-28T17:56:45Z</time>
  <course>41.61</course>
  <speed>2.795514263959317</speed>
  <fix>3d</fix>
</trkpt>
<trkpt lat="40.0712112" lon="-105.2294617">
  <ele>1583.0</ele>
  <time>2026-08-28T17:56:45Z</time>
  <course>47.5</course>
  <speed>2.97</speed>
  <fix>3d</fix>
</trkpt>
<trkpt lat="40.0712193" lon="-105.2294523">
  <ele>1583.12</ele>
  <time>2026-08-28T17:56:45Z</time>
  <course>39.11</course>
  <speed>2.7681221071332818</speed>
  <fix>3d</fix>
</trkpt>
<trkpt lat="40.0712149" lon="-105.2294568">
  <ele>1583.0</ele>
  <time>2026-08-28T17:56:45Z</time>
  <course>42.7</course>
  <speed>2.88</speed>
  <fix>3d</fix>
</trkpt>
<trkpt lat="40.0712213" lon="-105.2294504">
  <ele>1583.12</ele>
  <time>2026-08-28T17:56:45Z</time>
  <course>36.59</course>
  <speed>2.7540878707840823</speed>
  <fix>3d</fix>
</trkpt>
<trkpt lat="40.0712149" lon="-105.2294568">
  <ele>1583.0</ele>
  <time>2026-08-28T17:56:45Z</time>
  <course>42.7</course>
  <speed>2.88</speed>
  <fix>3d</fix>
</trkpt>
<trkpt lat="40.0712234" lon="-105.2294486">
  <ele>1583.12</ele>
  <time>2026-08-28T17:56:45Z</time>
  <course>34.05</course>
  <speed>2.7371518043396863</speed>
  <fix>3d</fix>
</trkpt>
<trkpt lat="40.0712187" lon="-105.2294524">
  <ele>1583.0</ele>
  <time>2026-08-28T17:56:45Z</time>
  <course>37.73</course>
  <speed>2.81</speed>
  <fix>3d</fix>
</trkpt>
<trkpt lat="40.0712255" lon="-105.229447">
  <ele>1583.13</ele>
  <time>2026-08-28T17:56:45Z</time>
  <course>31.48</course>
  <speed>2.7342457826610977</speed>
  <fix>3d</fix>
</trkpt>
<trkpt lat="40.0712228" lon="-105.2294487">
  <ele>1583.0</ele>
  <time>2026-08-28T17:56:45Z</time>
  <course>32.67</course>
  <speed>2.77</speed>
  <fix>3d</fix>
</trkpt>
<trkpt lat="40.0712277" lon="-105.2294454">
  <ele>1583.13</ele>
  <time>2026-08-28T17:56:45Z</time>
  <course>28.95</course>
  <speed>2.7370787347096903</speed>
  <fix>3d</fix>
</trkpt>
<trkpt lat="40.0712228" lon="-105.2294487">
  <ele>1583.0</ele>
  <time>2026-08-28T17:56:45Z</time>
  <course>32.67</course>
  <speed>2.77</speed>
  <fix>3d</fix>
</trkpt>
<trkpt lat="40.07123" lon="-105.229444">
  <ele>1583.13</ele>
  <time>2026-08-28T17:56:45Z</time>
  <course>26.42</course>
  <speed>2.736457564078054</speed>
  <fix>3d</fix>
</trkpt>
<trkpt lat="40.0712271" lon="-105.2294455">
  <ele>1583.0</ele>
  <time>2026-08-28T17:56:45Z</time>
  <course>27.58</course>
  <speed>2.76</speed>
  <fix>3d</fix>
</trkpt>
<trkpt lat="40.0712323" lon="-105.2294427">
  <ele>1583.13</ele>
  <time>2026-08-28T17:56:45Z</time>
  <course>23.93</course>
  <speed>2.7540878707840823</speed>
  <fix>3d</fix>
</trkpt>
<trkpt lat="40.0712271" lon="-105.2294455">
  <ele>1583.0</ele>
  <time>2026-08-28T17:56:45Z</time>
  <course>27.58</course>
  <speed>2.76</speed>
  <fix>3d</fix>
</trkpt>
<trkpt lat="40.0712346" lon="-105.2294416">
  <ele>1583.13</ele>
  <time>2026-08-28T17:56:45Z</time>
  <course>21.46</course>
  <speed>2.7733193108619862</speed>
  <fix>3d</fix>
</trkpt>
<trkpt lat="40.0712317" lon="-105.2294427">
  <ele>1583.0</ele>
  <time>2026-08-28T17:56:45Z</time>
  <course>22.54</course>
  <speed>2.77</speed>
  <fix>3d</fix>
</trkpt>
<trkpt lat="40.071237" lon="-105.2294406">
  <ele>1583.13</ele>
  <time>2026-08-28T17:56:45Z</time>
  <course>19.04</course>
  <speed>2.800803456153252</speed>
  <fix>3d</fix>
</trkpt>
<trkpt lat="40.0712317" lon="-105.2294427">
  <ele>1583.0</ele>
  <time>2026-08-28T17:56:45Z</time>
  <course>22.54</course>
  <speed>2.77</speed>
  <fix>3d</fix>
</trkpt>
<trkpt lat="40.0712395" lon="-105.2294397">
  <ele>1583.13</ele>
  <time>2026-08-28T17:56:45Z</time>
  <course>16.65</course>
  <speed>2.842534080710379</speed>
  <fix>3d</fix>
</trkpt>
<trkpt lat="40.0712363" lon="-105.2294405">
  <ele>1583.0</ele>
  <time>2026-08-28T17:56:45Z</time>
  <course>17.63</course>
  <speed>2.81</speed>
  <fix>3d</fix>
</trkpt>
<trkpt lat="40.071242" lon="-105.2294389">
  <ele>1583.13</ele>
  <time>2026-08-28T17:56:45Z</time>
  <course>14.33</course>
  <speed>2.879027613622349</speed>
  <fix>3d</fix>
</trkpt>
<trkpt lat="40.0712363" lon="-105.2294405">
  <ele>1583.0</ele>
  <time>2026-08-28T17:56:45Z</time>
  <course>17.63</course>
  <speed>2.81</speed>
  <fix>3d</fix>
</trkpt>
<trkpt lat="40.0712446" lon="-105.2294382">
  <ele>1583.13</ele>
  <time>2026-08-28T17:56:45Z</time>
  <course>12.06</course>
  <speed>2.9180986960690687</speed>
  <fix>3d</fix>
</trkpt>
<trkpt lat="40.0712413" lon="-105.2294387">
  <ele>1583.0</ele>
  <time>2026-08-28T17:56:45Z</time>
  <course>12.91</course>
  <speed>2.88</speed>
  <fix>3d</fix>
</trkpt>
<trkpt lat="40.0712473" lon="-105.2294377">
  <ele>1583.14</ele>
  <time>2026-08-28T17:56:45Z</time>
  <course>9.86</course>
  <speed>2.9731128468324237</speed>
  <fix>3d</fix>
</trkpt>
<trkpt lat="40.0712413" lon="-105.2294387">
  <ele>1583.0</ele>
  <time>2026-08-28T17:56:45Z</time>
  <course>12.91</course>
  <speed>2.88</speed>
  <fix>3d</fix>
</trkpt>
<trkpt lat="40.07125" lon="-105.2294373">
  <ele>1583.14</ele>
  <time>2026-08-28T17:56:45Z</time>
  <course>7.72</course>
  <speed>3.0320455141702602</speed>
  <fix>3d</fix>
</trkpt>
<trkpt lat="40.0712465" lon="-105.2294374">
  <ele>1583.0</ele>
  <time>2026-08-28T17:56:45Z</time>
  <course>8.43</course>
  <speed>2.97</speed>
  <fix>3d</fix>
</trkpt>
<trkpt lat="40.0712527" lon="-105.2294369">
  <ele>1583.14</ele>
  <time>2026-08-28T17:56:45Z</time>
  <course>5.67</course>
  <speed>3.0946728421595715</speed>
  <fix>3d</fix>
</trkpt>
<trkpt lat="40.0712465" lon="-105.2294374">
  <ele>1583.0</ele>
  <time>2026-08-28T17:56:45Z</time>
  <course>8.43</course>
  <speed>2.97</speed>
  <fix>3d</fix>
</trkpt>
<trkpt lat="40.0712555" lon="-105.2294368">
  <ele>1583.14</ele>
  <time>2026-08-28T17:56:45Z</time>
  <course>3.67</course>
  <speed>3.1505713767505727</speed>
  <fix>3d</fix>
</trkpt>
<trkpt lat="40.0712518" lon="-105.2294366">
  <ele>1583.0</ele>
  <time>2026-08-28T17:56:45Z</time>
  <course>4.2</course>
  <speed>3.08</speed>
  <fix>3d</fix>
</trkpt>
<trkpt lat="40.0712584" lon="-105.2294367">
  <ele>1583.15</ele>
  <time>2026-08-28T17:56:45Z</time>
  <course>1.73</course>
  <speed>3.2301393158809732</speed>
  <fix>3d</fix>
</trkpt>
<trkpt lat="40.0712518" lon="-105.2294366">
  <ele>1583.0</ele>
  <time>2026-08-28T17:56:45Z</time>
  <course>4.2</course>
  <speed>3.08</speed>
  <fix>3d</fix>
</trkpt>
<trkpt lat="40.0712614" lon="-105.2294368">
  <ele>1583.15</ele>
  <time>2026-08-28T17:56:45Z</time>
  <course>359.87</course>
  <speed>3.3029683619435413</speed>
  <fix>3d</fix>
</trkpt>
<trkpt lat="40.0712518" lon="-105.2294366">
  <ele>1583.0</ele>
  <time>2026-08-28T17:56:45Z</time>
  <course>4.2</course>
  <speed>3.08</speed>
  <fix>3d</fix>
</trkpt>
<trkpt lat="40.0712644" lon="-105.229437">
  <ele>1583.15</ele>
  <time>2026-08-28T17:56:45Z</time>
  <course>358.06</course>
  <speed>3.3785351855500925</speed>
  <fix>3d</fix>
</trkpt>
<trkpt lat="40.0712575" lon="-105.2294364">
  <ele>1583.0</ele>
  <time>2026-08-28T17:56:45Z</time>
  <course>0.24</course>
  <speed>3.21</speed>
  <fix>3d</fix>
</trkpt>
<trkpt lat="40.0712674" lon="-105.2294373">
  <ele>1583.15</ele>
  <time>2026-08-28T17:56:45Z</time>
  <course>356.34</course>
  <speed>3.457759390125345</speed>
  <fix>3d</fix>
</trkpt>
<trkpt lat="40.0712575" lon="-105.2294364">
  <ele>1583.0</ele>
  <time>2026-08-28T17:56:45Z</time>
  <course>0.24</course>
  <speed>3.21</speed>
  <fix>3d</fix>
</trkpt>
<trkpt lat="40.0712705" lon="-105.2294377">
  <ele>1583.14</ele>
  <time>2026-08-28T17:56:45Z</time>
  <course>354.68</course>
  <speed>3.549929576766277</speed>
  <fix>3d</fix>
</trkpt>
<trkpt lat="40.0712634" lon="-105.2294366">
  <ele>1583.0</ele>
  <time>2026-08-28T17:56:45Z</time>
  <course>356.56</course>
  <speed>3.36</speed>
  <fix>3d</fix>
</trkpt>
<trkpt lat="40.0712737" lon="-105.2294383">
  <ele>1583.14</ele>
  <time>2026-08-28T17:56:45Z</time>
  <course>353.2</course>
  <speed>3.633414372184929</speed>
  <fix>3d</fix>
</trkpt>
<trkpt lat="40.0712634" lon="-105.2294366">
  <ele>1583.0</ele>
  <time>2026-08-28T17:56:45Z</time>
  <course>356.56</course>
  <speed>3.36</speed>
  <fix>3d</fix>
</trkpt>
<trkpt lat="40.0712769" lon="-105.2294389">
  <ele>1583.14</ele>
  <time>2026-08-28T17:56:45Z</time>
  <course>351.92</course>
  <speed>3.7271168481817147</speed>
  <fix>3d</fix>
</trkpt>
<trkpt lat="40.0712696" lon="-105.2294373">
  <ele>1583.0</ele>
  <time>2026-08-28T17:56:45Z</time>
  <course>353.23</course>
  <speed>3.52</speed>
  <fix>3d</fix>
</trkpt>
<trkpt lat="40.0712803" lon="-105.2294397">
  <ele>1583.15</ele>
  <time>2026-08-28T17:56:45Z</time>
  <course>350.83</course>
  <speed>3.8203926499772245</speed>
  <fix>3d</fix>
</trkpt>
<trkpt lat="40.0712696" lon="-105.2294373">
  <ele>1583.0</ele>
  <time>2026-08-28T17:56:45Z</time>
  <course>353.23</course>
  <speed>3.52</speed>
  <fix>3d</fix>
</trkpt>
<trkpt lat="40.0712837" lon="-105.2294406">
  <ele>1583.15</ele>
  <time>2026-08-28T17:56:45Z</time>
  <course>349.91</course>
  <speed>3.9244999681488086</speed>
  <fix>3d</fix>
</trkpt>
<trkpt lat="40.071276" lon="-105.2294384">
  <ele>1583.0</ele>
  <time>2026-08-28T17:56:45Z</time>
  <course>350.49</course>
  <speed>3.71</speed>
  <fix>3d</fix>
</trkpt>
<trkpt lat="40.0712871" lon="-105.2294415">
  <ele>1583.15</ele>
  <time>2026-08-28T17:56:45Z</time>
  <course>349.18</course>
  <speed>4.0273192076119315</speed>
  <fix>3d</fix>
</trkpt>
<trkpt lat="40.0712827" lon="-105.2294401">
  <ele>1583.0</ele>
  <time>2026-08-28T17:56:45Z</time>
  <course>348.49</course>
  <speed>3.91</speed>
  <fix>3d</fix>
</trkpt>
<trkpt lat="40.0712907" lon="-105.2294426">
  <ele>1583.15</ele>
  <time>2026-08-28T17:56:45Z</time>
  <course>348.61</course>
  <speed>4.128437961263315</speed>
  <fix>3d</fix>
</trkpt>
<trkpt lat="40.0712827" lon="-105.2294401">
  <ele>1583.0</ele>
  <time>2026-08-28T17:56:45Z</time>
  <course>348.49</course>
  <speed>3.91</speed>
  <fix>3d</fix>
</trkpt>
<trkpt lat="40.0712944" lon="-105.2294437">
  <ele>1583.15</ele>
  <time>2026-08-28T17:56:45Z</time>
  <course>348.19</course>
  <speed>4.227552483411649</speed>
  <fix>3d</fix>
</trkpt>
<trkpt lat="40.0712897" lon="-105.2294421">
  <ele>1583.0</ele>
  <time>2026-08-28T17:56:45Z</time>
  <course>347.17</course>
  <speed>4.11</speed>
  <fix>3d</fix>
</trkpt>
<trkpt lat="40.0712982" lon="-105.2294449">
  <ele>1583.15</ele>
  <time>2026-08-28T17:56:45Z</time>
  <course>347.91</course>
  <speed>4.3341665865538666</speed>
  <fix>3d</fix>
</trkpt>
<trkpt lat="40.0712897" lon="-105.2294421">
  <ele>1583.0</ele>
  <time>2026-08-28T17:56:45Z</time>
  <course>347.17</course>
  <speed>4.11</speed>
  <fix>3d</fix>
</trkpt>
<trkpt lat="40.071302" lon="-105.2294461">
  <ele>1583.15</ele>
  <time>2026-08-28T17:56:45Z</time>
  <course>347.75</course>
  <speed>4.428724421320433</speed>
  <fix>3d</fix>
</trkpt>
<trkpt lat="40.0712971" lon="-105.2294443">
  <ele>1583.0</ele>
  <time>2026-08-28T17:56:45Z</time>
  <course>346.46</course>
  <speed>4.32</speed>
  <fix>3d</fix>
</trkpt>
<trkpt lat="40.0713059" lon="-105.2294473">
  <ele>1583.15</ele>
  <time>2026-08-28T17:56:45Z</time>
  <course>347.73</course>
  <speed>4.5208959289061275</speed>
  <fix>3d</fix>
</trkpt>
<trkpt lat="40.0712971" lon="-105.2294443">
  <ele>1583.0</ele>
  <time>2026-08-28T17:56:45Z</time>
  <course>346.46</course>
  <speed>4.32</speed>
  <fix>3d</fix>
</trkpt>
<trkpt lat="40.07131" lon="-105.2294486">
  <ele>1583.15</ele>
  <time>2026-08-28T17:56:45Z</time>
  <course>347.75</course>
  <speed>4.603357470368774</speed>
  <fix>3d</fix>
</trkpt>
<trkpt lat="40.0713049" lon="-105.2294468">
  <ele>1583.0</ele>
  <time>2026-08-28T17:56:45Z</time>
  <course>346.23</course>
  <speed>4.5</speed>
  <fix>3d</fix>
</trkpt>
<trkpt lat="40.0713141" lon="-105.2294499">
  <ele>1583.15</ele>
  <time>2026-08-28T17:56:45Z</time>
  <course>347.77</course>
  <speed>4.673724424909967</speed>
  <fix>3d</fix>
</trkpt>
<trkpt lat="40.0713049" lon="-105.2294468">
  <ele>1583.0</ele>
  <time>2026-08-28T17:56:45Z</time>
  <course>346.23</course>
  <speed>4.5</speed>
  <fix>3d</fix>
</trkpt>
<trkpt lat="40.0713182" lon="-105.2294512">
  <ele>1583.15</ele>
  <time>2026-08-28T17:56:45Z</time>
  <course>347.78</course>
  <speed>4.744101600935629</speed>
  <fix>3d</fix>
</trkpt>
<trkpt lat="40.0713129" lon="-105.2294493">
  <ele>1583.0</ele>
  <time>2026-08-28T17:56:45Z</time>
  <course>346.24</course>
  <speed>4.66</speed>
  <fix>3d</fix>
</trkpt>
<trkpt lat="40.0713224" lon="-105.2294525">
  <ele>1583.15</ele>
  <time>2026-08-28T17:56:45Z</time>
  <course>347.8</course>
  <speed>4.795049530505394</speed>
  <fix>3d</fix>
</trkpt>
<trkpt lat="40.0713129" lon="-105.2294493">
  <ele>1583.0</ele>
  <time>2026-08-28T17:56:45Z</time>
  <course>346.24</course>
  <speed>4.66</speed>
  <fix>3d</fix>
</trkpt>
<trkpt lat="40.0713266" lon="-105.2294538">
  <ele>1583.15</ele>
  <time>2026-08-28T17:56:45Z</time>
  <course>347.81</course>
  <speed>4.836279561811952</speed>
  <fix>3d</fix>
</trkpt>
<trkpt lat="40.0713212" lon="-105.229452">
  <ele>1583.0</ele>
  <time>2026-08-28T17:56:45Z</time>
  <course>346.26</course>
  <speed>4.78</speed>
  <fix>3d</fix>
</trkpt>
<trkpt lat="40.0713309" lon="-105.2294552">
  <ele>1583.15</ele>
  <time>2026-08-28T17:56:45Z</time>
  <course>347.82</course>
  <speed>4.858075750747409</speed>
  <fix>3d</fix>
</trkpt>
<trkpt lat="40.0713212" lon="-105.229452">
  <ele>1583.0</ele>
  <time>2026-08-28T17:56:45Z</time>
  <course>346.26</course>
  <speed>4.78</speed>
  <fix>3d</fix>
</trkpt>
<trkpt lat="40.0713352" lon="-105.2294565">
  <ele>1583.14</ele>
  <time>2026-08-28T17:56:45Z</time>
  <course>347.84</course>
  <speed>4.877509610446708</speed>
  <fix>3d</fix>
</trkpt>
<trkpt lat="40.0713212" lon="-105.229452">
  <ele>1583.0</ele>
  <time>2026-08-28T17:56:45Z</time>
  <course>346.26</course>
  <speed>4.78</speed>
  <fix>3d</fix>
</trkpt>
<trkpt lat="40.0713394" lon="-105.2294579">
  <ele>1583.14</ele>
  <time>2026-08-28T17:56:45Z</time>
  <course>347.86</course>
  <speed>4.877509610446708</speed>
  <fix>3d</fix>
</trkpt>
<trkpt lat="40.0713296" lon="-105.2294546">
  <ele>1583.0</ele>
  <time>2026-08-28T17:56:45Z</time>
  <course>346.28</course>
  <speed>4.85</speed>
  <fix>3d</fix>
</trkpt>
<trkpt lat="40.0713437" lon="-105.2294592">
  <ele>1583.14</ele>
  <time>2026-08-28T17:56:45Z</time>
  <course>347.87</course>
  <speed>4.865439342957632</speed>
  <fix>3d</fix>
</trkpt>
<trkpt lat="40.0713296" lon="-105.2294546">
  <ele>1583.0</ele>
  <time>2026-08-28T17:56:45Z</time>
  <course>346.28</course>
  <speed>4.85</speed>
  <fix>3d</fix>
</trkpt>
<trkpt lat="40.0713479" lon="-105.2294605">
  <ele>1583.14</ele>
  <time>2026-08-28T17:56:45Z</time>
  <course>347.9</course>
  <speed>4.8339321468138134</speed>
  <fix>3d</fix>
</trkpt>
<trkpt lat="40.0713381" lon="-105.2294574">
  <ele>1583.0</ele>
  <time>2026-08-28T17:56:45Z</time>
  <course>346.3</course>
  <speed>4.87</speed>
  <fix>3d</fix>
</trkpt>
<trkpt lat="40.0713521" lon="-105.2294618">
  <ele>1583.14</ele>
  <time>2026-08-28T17:56:45Z</time>
  <course>347.92</course>
  <speed>4.802426470025335</speed>
  <fix>3d</fix>
</trkpt>
<trkpt lat="40.0713381" lon="-105.2294574">
  <ele>1583.0</ele>
  <time>2026-08-28T17:56:45Z</time>
  <course>346.3</course>
  <speed>4.87</speed>
  <fix>3d</fix>
</trkpt>
<trkpt lat="40.0713562" lon="-105.2294631">
  <ele>1583.14</ele>
  <time>2026-08-28T17:56:45Z</time>
  <course>347.95</course>
  <speed>4.74175073153366</speed>
  <fix>3d</fix>
</trkpt>
<trkpt lat="40.0713466" lon="-105.2294601">
  <ele>1583.0</ele>
  <time>2026-08-28T17:56:45Z</time>
  <course>346.33</course>
  <speed>4.84</speed>
  <fix>3d</fix>
</trkpt>
<trkpt lat="40.0713603" lon="-105.2294644">
  <ele>1583.14</ele>
  <time>2026-08-28T17:56:45Z</time>
  <course>347.98</course>
  <speed>4.678739146394037</speed>
  <fix>3d</fix>
</trkpt>
<trkpt lat="40.0713466" lon="-105.2294601">
  <ele>1583.0</ele>
  <time>2026-08-28T17:56:45Z</time>
  <course>346.33</course>
  <speed>4.84</speed>
  <fix>3d</fix>
</trkpt>
<trkpt lat="40.0713644" lon="-105.2294657">
  <ele>1583.14</ele>
  <time>2026-08-28T17:56:45Z</time>
  <course>348.01</course>
  <speed>4.596281105415551</speed>
  <fix>3d</fix>
</trkpt>
<trkpt lat="40.0713549" lon="-105.2294627">
  <ele>1583.0</ele>
  <time>2026-08-28T17:56:45Z</time>
  <course>346.37</course>
  <speed>4.75</speed>
  <fix>3d</fix>
</trkpt>
<trkpt lat="40.0713683" lon="-105.2294669">
  <ele>1583.14</ele>
  <time>2026-08-28T17:56:45Z</time>
  <course>348.05</course>
  <speed>4.50409813392204</speed>
  <fix>3d</fix>
</trkpt>
<trkpt lat="40.0713631" lon="-105.2294653">
  <ele>1583.0</ele>
  <time>2026-08-28T17:56:45Z</time>
  <course>346.43</course>
  <speed>4.62</speed>
  <fix>3d</fix>
</trkpt>
<trkpt lat="40.0713722" lon="-105.2294682">
  <ele>1583.14</ele>
  <time>2026-08-28T17:56:45Z</time>
  <course>348.09</course>
  <speed>4.402192635494271</speed>
  <fix>3d</fix>
</trkpt>
<trkpt lat="40.0713631" lon="-105.2294653">
  <ele>1583.0</ele>
  <time>2026-08-28T17:56:45Z</time>
  <course>346.43</course>
  <speed>4.62</speed>
  <fix>3d</fix>
</trkpt>
<trkpt lat="40.071376" lon="-105.2294694">
  <ele>1583.14</ele>
  <time>2026-08-28T17:56:45Z</time>
  <course>348.13</course>
  <speed>4.288228072292797</speed>
  <fix>3d</fix>
</trkpt>
<trkpt lat="40.071371" lon="-105.2294678">
  <ele>1583.0</ele>
  <time>2026-08-28T17:56:45Z</time>
  <course>346.5</course>
  <speed>4.43</speed>
  <fix>3d</fix>
</trkpt>
<trkpt lat="40.0713797" lon="-105.2294705">
  <ele>1583.14</ele>
  <time>2026-08-28T17:56:45Z</time>
  <course>348.18</course>
  <speed>4.174266402614956</speed>
  <fix>3d</fix>
</trkpt>
<trkpt lat="40.071371" lon="-105.2294678">
  <ele>1583.0</ele>
  <time>2026-08-28T17:56:45Z</time>
  <course>346.5</course>
  <speed>4.43</speed>
  <fix>3d</fix>
</trkpt>
<trkpt lat="40.0713833" lon="-105.2294716">
  <ele>1583.14</ele>
  <time>2026-08-28T17:56:45Z</time>
  <course>348.22</course>
  <speed>4.040853870161602</speed>
  <fix>3d</fix>
</trkpt>
<trkpt lat="40.0713786" lon="-105.2294702">
  <ele>1583.0</ele>
  <time>2026-08-28T17:56:45Z</time>
  <course>346.58</course>
  <speed>4.21</speed>
  <fix>3d</fix>
</trkpt>
<trkpt lat="40.0713868" lon="-105.2294727">
  <ele>1583.14</ele>
  <time>2026-08-28T17:56:45Z</time>
  <course>348.26</course>
  <speed>3.907441618245882</speed>
  <fix>3d</fix>
</trkpt>
<trkpt lat="40.0713786" lon="-105.2294702">
  <ele>1583.0</ele>
  <time>2026-08-28T17:56:45Z</time>
  <course>346.58</course>
  <speed>4.21</speed>
  <fix>3d</fix>
</trkpt>
<trkpt lat="40.0713902" lon="-105.2294738">
  <ele>1583.14</ele>
  <time>2026-08-28T17:56:45Z</time>
  <course>348.31</course>
  <speed>3.774029676618879</speed>
  <fix>3d</fix>
</trkpt>
<trkpt lat="40.0713857" lon="-105.2294724">
  <ele>1583.0</ele>
  <time>2026-08-28T17:56:45Z</time>
  <course>346.66</course>
  <speed>3.95</speed>
  <fix>3d</fix>
</trkpt>
<trkpt lat="40.0713934" lon="-105.2294748">
  <ele>1583.14</ele>
  <time>2026-08-28T17:56:45Z</time>
  <course>348.36</course>
  <speed>3.6406180793925635</speed>
  <fix>3d</fix>
</trkpt>
<trkpt lat="40.0713857" lon="-105.2294724">
  <ele>1583.0</ele>
  <time>2026-08-28T17:56:45Z</time>
  <course>346.66</course>
  <speed>3.95</speed>
  <fix>3d</fix>
</trkpt>
<trkpt lat="40.0713966" lon="-105.2294758">
  <ele>1583.14</ele>
  <time>2026-08-28T17:56:45Z</time>
  <course>348.41</course>
  <speed>3.497484810546002</speed>
  <fix>3d</fix>
</trkpt>
<trkpt lat="40.0713924" lon="-105.2294745">
  <ele>1583.0</ele>
  <time>2026-08-28T17:56:45Z</time>
  <course>346.75</course>
  <speed>3.69</speed>
  <fix>3d</fix>
</trkpt>
<trkpt lat="40.0713996" lon="-105.2294767">
  <ele>1583.15</ele>
  <time>2026-08-28T17:56:45Z</time>
  <course>348.46</course>
  <speed>3.352014319778482</speed>
  <fix>3d</fix>
</trkpt>
<trkpt lat="40.0713924" lon="-105.2294745">
  <ele>1583.0</ele>
  <time>2026-08-28T17:56:45Z</time>
  <course>346.75</course>
  <speed>3.69</speed>
  <fix>3d</fix>
</trkpt>
<trkpt lat="40.0714025" lon="-105.2294776">
  <ele>1583.15</ele>
  <time>2026-08-28T17:56:45Z</time>
  <course>348.51</course>
  <speed>3.20887830869293</speed>
  <fix>3d</fix>
</trkpt>
<trkpt lat="40.0713986" lon="-105.2294764">
  <ele>1583.0</ele>
  <time>2026-08-28T17:56:45Z</time>
  <course>346.85</course>
  <speed>3.41</speed>
  <fix>3d</fix>
</trkpt>
<trkpt lat="40.0714052" lon="-105.2294785">
  <ele>1583.15</ele>
  <time>2026-08-28T17:56:45Z</time>
  <course>348.56</course>
  <speed>3.0754674441456866</speed>
  <fix>3d</fix>
</trkpt>
<trkpt lat="40.0713986" lon="-105.2294764">
  <ele>1583.0</ele>
  <time>2026-08-28T17:56:45Z</time>
  <course>346.85</course>
  <speed>3.41</speed>
  <fix>3d</fix>
</trkpt>
<trkpt lat="40.0714078" lon="-105.2294793">
  <ele>1583.15</ele>
  <time>2026-08-28T17:56:45Z</time>
  <course>348.61</course>
  <speed>2.942057103456696</speed>
  <fix>3d</fix>
</trkpt>
<trkpt lat="40.0714044" lon="-105.2294781">
  <ele>1583.0</ele>
  <time>2026-08-28T17:56:45Z</time>
  <course>346.95</course>
  <speed>3.14</speed>
  <fix>3d</fix>
</trkpt>
<trkpt lat="40.0714104" lon="-105.2294801">
  <ele>1583.15</ele>
  <time>2026-08-28T17:56:45Z</time>
  <course>348.66</course>
  <speed>2.796587205863604</speed>
  <fix>3d</fix>
</trkpt>
<trkpt lat="40.0714044" lon="-105.2294781">
  <ele>1583.0</ele>
  <time>2026-08-28T17:56:45Z</time>
  <course>346.95</course>
  <speed>3.14</speed>
  <fix>3d</fix>
</trkpt>
<trkpt lat="40.0714128" lon="-105.2294808">
  <ele>1583.16</ele>
  <time>2026-08-28T17:56:45Z</time>
  <course>348.71</course>
  <speed>2.663174797117155</speed>
  <fix>3d</fix>
</trkpt>
<trkpt lat="40.0714044" lon="-105.2294781">
  <ele>1583.0</ele>
  <time>2026-08-28T17:56:45Z</time>
  <course>346.95</course>
  <speed>3.14</speed>
  <fix>3d</fix>
</trkpt>
<trkpt lat="40.0714151" lon="-105.2294815">
  <ele>1583.16</ele>
  <time>2026-08-28T17:56:45Z</time>
  <course>348.76</course>
  <speed>2.5297628347337224</speed>
  <fix>3d</fix>
</trkpt>
<trkpt lat="40.0714096" lon="-105.2294797">
  <ele>1583.0</ele>
  <time>2026-08-28T17:56:45Z</time>
  <course>347.05</course>
  <speed>2.87</speed>
  <fix>3d</fix>
</trkpt>
<trkpt lat="40.0714172" lon="-105.2294822">
  <ele>1583.16</ele>
  <time>2026-08-28T17:56:45Z</time>
  <course>348.81</course>
  <speed>2.4060756430336934</speed>
  <fix>3d</fix>
</trkpt>
<trkpt lat="40.0714096" lon="-105.2294797">
  <ele>1583.0</ele>
  <time>2026-08-28T17:56:45Z</time>
  <course>347.05</course>
  <speed>2.87</speed>
  <fix>3d</fix>
</trkpt>
<trkpt lat="40.0714193" lon="-105.2294828">
  <ele>1583.16</ele>
  <time>2026-08-28T17:56:45Z</time>
  <course>348.86</course>
  <speed>2.2823890991677995</speed>
  <fix>3d</fix>
</trkpt>
<trkpt lat="40.0714145" lon="-105.2294812">
  <ele>1583.0</ele>
  <time>2026-08-28T17:56:45Z</time>
  <course>347.15</course>
  <speed>2.61</speed>
  <fix>3d</fix>
</trkpt>
<trkpt lat="40.0714212" lon="-105.2294834">
  <ele>1583.16</ele>
  <time>2026-08-28T17:56:45Z</time>
  <course>348.9</course>
  <speed>2.1587033144922905</speed>
  <fix>3d</fix>
</trkpt>
<trkpt lat="40.0714145" lon="-105.2294812">
  <ele>1583.0</ele>
  <time>2026-08-28T17:56:45Z</time>
  <course>347.15</course>
  <speed>2.61</speed>
  <fix>3d</fix>
</trkpt>
<trkpt lat="40.0714231" lon="-105.2294839">
  <ele>1583.17</ele>
  <time>2026-08-28T17:56:45Z</time>
  <course>348.95</course>
  <speed>2.04707107839469</speed>
  <fix>3d</fix>
</trkpt>
<trkpt lat="40.0714188" lon="-105.2294824">
  <ele>1583.0</ele>
  <time>2026-08-28T17:56:45Z</time>
  <course>347.26</course>
  <speed>2.36</speed>
  <fix>3d</fix>
</trkpt>
<trkpt lat="40.0714249" lon="-105.2294845">
  <ele>1583.17</ele>
  <time>2026-08-28T17:56:45Z</time>
  <course>349.0</course>
  <speed>1.9331063085097002</speed>
  <fix>3d</fix>
</trkpt>
<trkpt lat="40.0714228" lon="-105.2294836">
  <ele>1583.0</ele>
  <time>2026-08-28T17:56:45Z</time>
  <course>347.36</course>
  <speed>2.13</speed>
  <fix>3d</fix>
</trkpt>
<trkpt lat="40.0714265" lon="-105.2294849">
  <ele>1583.17</ele>
  <time>2026-08-28T17:56:45Z</time>
  <course>349.05</course>
  <speed>1.8191481522954638</speed>
  <fix>3d</fix>
</trkpt>
<trkpt lat="40.0714228" lon="-105.2294836">
  <ele>1583.0</ele>
  <time>2026-08-28T17:56:45Z</time>
  <course>347.36</course>
  <speed>2.13</speed>
  <fix>3d</fix>
</trkpt>
<trkpt lat="40.0714281" lon="-105.2294854">
  <ele>1583.17</ele>
  <time>2026-08-28T17:56:45Z</time>
  <course>349.1</course>
  <speed>1.7075128110793196</speed>
  <fix>3d</fix>
</trkpt>
<trkpt lat="40.0714263" lon="-105.2294846">
  <ele>1583.0</ele>
  <time>2026-08-28T17:56:45Z</time>
  <course>347.47</course>
  <speed>1.91</speed>
  <fix>3d</fix>
</trkpt>
<trkpt lat="40.0714296" lon="-105.2294858">
  <ele>1583.17</ele>
  <time>2026-08-28T17:56:45Z</time>
  <course>349.14</course>
  <speed>1.603277892319357</speed>
  <fix>3d</fix>
</trkpt>
<trkpt lat="40.0714263" lon="-105.2294846">
  <ele>1583.0</ele>
  <time>2026-08-28T17:56:45Z</time>
  <course>347.47</course>
  <speed>1.91</speed>
  <fix>3d</fix>
</trkpt>
<trkpt lat="40.071431" lon="-105.2294862">
  <ele>1583.17</ele>
  <time>2026-08-28T17:56:45Z</time>
  <course>349.19</course>
  <speed>1.50136604464068</speed>
  <fix>3d</fix>
</trkpt>
<trkpt lat="40.0714294" lon="-105.2294855">
  <ele>1583.0</ele>
  <time>2026-08-28T17:56:45Z</time>
  <course>347.58</course>
  <speed>1.7</speed>
  <fix>3d</fix>
</trkpt>
<trkpt lat="40.0714323" lon="-105.2294866">
  <ele>1583.17</ele>
  <time>2026-08-28T17:56:45Z</time>
  <course>349.23</course>
  <speed>1.3971399357258383</speed>
  <fix>3d</fix>
</trkpt>
<trkpt lat="40.0714294" lon="-105.2294855">
  <ele>1583.0</ele>
  <time>2026-08-28T17:56:45Z</time>
  <course>347.58</course>
  <speed>1.7</speed>
  <fix>3d</fix>
</trkpt>
<trkpt lat="40.0714335" lon="-105.2294869">
  <ele>1583.17</ele>
  <time>2026-08-28T17:56:45Z</time>
  <course>349.28</course>
  <speed>1.3049521064008442</speed>
  <fix>3d</fix>
</trkpt>
<trkpt lat="40.0714323" lon="-105.2294863">
  <ele>1583.0</ele>
  <time>2026-08-28T17:56:45Z</time>
  <course>347.69</course>
  <speed>1.5</speed>
  <fix>3d</fix>
</trkpt>
<trkpt lat="40.0714347" lon="-105.2294873">
  <ele>1583.17</ele>
  <time>2026-08-28T17:56:45Z</time>
  <course>349.33</course>
  <speed>1.2007497657713702</speed>
  <fix>3d</fix>
</trkpt>
<trkpt lat="40.0714323" lon="-105.2294863">
  <ele>1583.0</ele>
  <time>2026-08-28T17:56:45Z</time>
  <course>347.69</course>
  <speed>1.5</speed>
  <fix>3d</fix>
</trkpt>
<trkpt lat="40.0714358" lon="-105.2294875">
  <ele>1583.17</ele>
  <time>2026-08-28T17:56:45Z</time>
  <course>349.38</course>
  <speed>1.1085576214162258</speed>
  <fix>3d</fix>
</trkpt>
<trkpt lat="40.0714348" lon="-105.2294871">
  <ele>1583.0</ele>
  <time>2026-08-28T17:56:45Z</time>
  <course>347.8</course>
  <speed>1.3</speed>
  <fix>3d</fix>
</trkpt>
<trkpt lat="40.0714367" lon="-105.2294878">
  <ele>1583.17</ele>
  <time>2026-08-28T17:56:45Z</time>
  <course>349.44</course>
  <speed>1.006628034578811</speed>
  <fix>3d</fix>
</trkpt>
<trkpt lat="40.0714348" lon="-105.2294871">
  <ele>1583.0</ele>
  <time>2026-08-28T17:56:45Z</time>
  <course>347.8</course>
  <speed>1.3</speed>
  <fix>3d</fix>
</trkpt>
<trkpt lat="40.0714376" lon="-105.229488">
  <ele>1583.17</ele>
  <time>2026-08-28T17:56:45Z</time>
  <course>349.5</course>
  <speed>0.9121951545584969</speed>
  <fix>3d</fix>
</trkpt>
<trkpt lat="40.0714368" lon="-105.2294876">
  <ele>1583.0</ele>
  <time>2026-08-28T17:56:45Z</time>
  <course>347.92</course>
  <speed>1.11</speed>
  <fix>3d</fix>
</trkpt>
<trkpt lat="40.0714385" lon="-105.2294883">
  <ele>1583.18</ele>
  <time>2026-08-28T17:56:45Z</time>
  <course>349.57</course>
  <speed>0.82</speed>
  <fix>3d</fix>
</trkpt>
<trkpt lat="40.0714368" lon="-105.2294876">
  <ele>1583.0</ele>
  <time>2026-08-28T17:56:45Z</time>
  <course>347.92</course>
  <speed>1.11</speed>
  <fix>3d</fix>
</trkpt>
<trkpt lat="40.0714392" lon="-105.2294884">
  <ele>1583.18</ele>
  <time>2026-08-28T17:56:45Z</time>
  <course>349.64</course>
  <speed>0.7278049189171505</speed>
  <fix>3d</fix>
</trkpt>
<trkpt lat="40.0714387" lon="-105.2294881">
  <ele>1583.0</ele>
  <time>2026-08-28T17:56:45Z</time>
  <course>348.06</course>
  <speed>0.92</speed>
  <fix>3d</fix>
</trkpt>
<trkpt lat="40.0714398" lon="-105.2294886">
  <ele>1583.18</ele>
  <time>2026-08-28T17:56:45Z</time>
  <course>349.72</course>
  <speed>0.6356099432828282</speed>
  <fix>3d</fix>
</trkpt>
<trkpt lat="40.0714387" lon="-105.2294881">
  <ele>1583.0</ele>
  <time>2026-08-28T17:56:45Z</time>
  <course>348.06</course>
  <speed>0.92</speed>
  <fix>3d</fix>
</trkpt>
<trkpt lat="40.0714404" lon="-105.2294887">
  <ele>1583.18</ele>
  <time>2026-08-28T17:56:45Z</time>
  <course>349.81</course>
  <speed>0.5315072906367324</speed>
  <fix>3d</fix>
</trkpt>
<trkpt lat="40.0714387" lon="-105.2294881">
  <ele>1583.0</ele>
  <time>2026-08-28T17:56:45Z</time>
  <course>348.06</course>
  <speed>0.92</speed>
  <fix>3d</fix>
</trkpt>
<trkpt lat="40.0714409" lon="-105.2294889">
  <ele>1583.18</ele>
  <time>2026-08-28T17:56:45Z</time>
  <course>349.91</course>
  <speed>0.4393176527297759</speed>
  <fix>3d</fix>
</trkpt>
<trkpt lat="40.0714401" lon="-105.2294886">
  <ele>1583.0</ele>
  <time>2026-08-28T17:56:45Z</time>
  <course>348.23</course>
  <speed>0.73</speed>
  <fix>3d</fix>
</trkpt>
<trkpt lat="40.0714413" lon="-105.229489">
  <ele>1583.18</ele>
  <time>2026-08-28T17:56:45Z</time>
  <course>350.02</course>
  <speed>0.34713109915419565</speed>
  <fix>3d</fix>
</trkpt>
<trkpt lat="40.0714401" lon="-105.2294886">
  <ele>1583.0</ele>
  <time>2026-08-28T17:56:45Z</time>
  <course>348.23</course>
  <speed>0.73</speed>
  <fix>3d</fix>
</trkpt>
<trkpt lat="40.0714416" lon="-105.229489">
  <ele>1583.17</ele>
  <time>2026-08-28T17:56:45Z</time>
  <course>350.09</course>
  <speed>0.25495097567963926</speed>
  <fix>3d</fix>
</trkpt>
<trkpt lat="40.0714412" lon="-105.2294889">
  <ele>1583.0</ele>
  <time>2026-08-28T17:56:45Z</time>
  <course>348.41</course>
  <speed>0.54</speed>
  <fix>3d</fix>
</trkpt>
<trkpt lat="40.0714418" lon="-105.2294891">
  <ele>1583.17</ele>
  <time>2026-08-28T17:56:45Z</time>
  <course>350.14</course>
  <speed>0.15297058540778355</speed>
  <fix>3d</fix>
</trkpt>
<trkpt lat="40.0714412" lon="-105.2294889">
  <ele>1583.0</ele>
  <time>2026-08-28T17:56:45Z</time>
  <course>348.41</course>
  <speed>0.54</speed>
  <fix>3d</fix>
</trkpt>
<trkpt lat="40.071442" lon="-105.2294891">
  <ele>1583.17</ele>
  <time>2026-08-28T17:56:45Z</time>
  <course>350.15</course>
  <speed>0.06082762530298219</speed>
  <fix>3d</fix>
</trkpt>
<trkpt lat="40.0714421" lon="-105.2294891">
  <ele>1583.0</ele>
  <time>2026-08-28T17:56:45Z</time>
  <course>348.58</course>
  <speed>0.35</speed>
  <fix>3d</fix>
</trkpt>
<trkpt lat="40.0714421" lon="-105.2294891">
  <ele>1583.16</ele>
  <time>2026-08-28T17:56:45Z</time>
  <course>350.13</course>
  <speed>0.02</speed>
  <fix>3d</fix>
</trkpt>
<trkpt lat="40.0714421" lon="-105.2294891">
  <ele>1583.0</ele>
  <time>2026-08-28T17:56:45Z</time>
  <course>348.58</course>
  <speed>0.35</speed>
  <fix>3d</fix>
</trkpt>
<trkpt lat="40.0714421" lon="-105.2294891">
  <ele>1583.16</ele>
  <time>2026-08-28T17:56:45Z</time>
  <course>350.06</course>
  <speed>0.1019803902718557</speed>
  <fix>3d</fix>
</trkpt>
<trkpt lat="40.0714425" lon="-105.2294891">
  <ele>1583.0</ele>
  <time>2026-08-28T17:56:45Z</time>
  <course>348.66</course>
  <speed>0.16</speed>
  <fix>3d</fix>
</trkpt>
<trkpt lat="40.071442" lon="-105.2294891">
  <ele>1583.16</ele>
  <time>2026-08-28T17:56:45Z</time>
  <course>349.94</course>
  <speed>0.16278820596099705</speed>
  <fix>3d</fix>
</trkpt>
<trkpt lat="40.0714427" lon="-105.2294891">
  <ele>1583.0</ele>
  <time>2026-08-28T17:56:45Z</time>
  <course>166.89</course>
  <speed>0.0</speed>
  <fix>3d</fix>
</trkpt>
<trkpt lat="40.0714419" lon="-105.229489">
  <ele>1583.16</ele>
  <time>2026-08-28T17:56:45Z</time>
  <course>349.78</course>
  <speed>0.21377558326431947</speed>
  <fix>3d</fix>
</trkpt>
<trkpt lat="40.0714427" lon="-105.2294891">
  <ele>1583.0</ele>
  <time>2026-08-28T17:56:45Z</time>
  <course>166.89</course>
  <speed>0.0</speed>
  <fix>3d</fix>
</trkpt>
<trkpt lat="40.0714418" lon="-105.229489">
  <ele>1583.15</ele>
  <time>2026-08-28T17:56:45Z</time>
  <course>349.57</course>
  <speed>0.24515301344262524</speed>
  <fix>3d</fix>
</trkpt>
<trkpt lat="40.0714425" lon="-105.2294891">
  <ele>1583.0</ele>
  <time>2026-08-28T17:56:45Z</time>
  <course>168.26</course>
  <speed>0.11</speed>
  <fix>3d</fix>
</trkpt>
<trkpt lat="40.0714416" lon="-105.2294889">
  <ele>1583.15</ele>
  <time>2026-08-28T17:56:45Z</time>
  <course>349.32</course>
  <speed>0.2668332812825267</speed>
  <fix>3d</fix>
</trkpt>
<trkpt lat="40.0714425" lon="-105.2294891">
  <ele>1583.0</ele>
  <time>2026-08-28T17:56:45Z</time>
  <course>168.26</course>
  <speed>0.11</speed>
  <fix>3d</fix>
</trkpt>
<trkpt lat="40.0714414" lon="-105.2294889">
  <ele>1583.15</ele>
  <time>2026-08-28T17:56:45Z</time>
  <course>349.02</course>
  <speed>0.27892651361962706</speed>
  <fix>3d</fix>
</trkpt>
<trkpt lat="40.0714423" lon="-105.2294891">
  <ele>1583.0</ele>
  <time>2026-08-28T17:56:45Z</time>
  <course>167.83</course>
  <speed>0.18</speed>
  <fix>3d</fix>
</trkpt>
<trkpt lat="40.0714413" lon="-105.2294888">
  <ele>1583.14</ele>
  <time>2026-08-28T17:56:45Z</time>
  <course>348.69</course>
  <speed>0.27892651361962706</speed>
  <fix>3d</fix>
</trkpt>
<trkpt lat="40.0714423" lon="-105.2294891">
  <ele>1583.0</ele>
  <time>2026-08-28T17:56:45Z</time>
  <course>167.83</course>
  <speed>0.18</speed>
  <fix>3d</fix>
</trkpt>
<trkpt lat="40.0714411" lon="-105.2294888">
  <ele>1583.14</ele>
  <time>2026-08-28T17:56:45Z</time>
  <course>348.32</course>
  <speed>0.2816025568065745</speed>
  <fix>3d</fix>
</trkpt>
<trkpt lat="40.071442" lon="-105.2294891">
  <ele>1583.0</ele>
  <time>2026-08-28T17:56:45Z</time>
  <course>167.23</course>
  <speed>0.19</speed>
  <fix>3d</fix>
</trkpt>
<trkpt lat="40.071441" lon="-105.2294887">
  <ele>1583.14</ele>
  <time>2026-08-28T17:56:45Z</time>
  <course>348.03</course>
  <speed>0.2720294101747089</speed>
  <fix>3d</fix>
</trkpt>
<trkpt lat="40.071442" lon="-105.2294891">
  <ele>1583.0</ele>
  <time>2026-08-28T17:56:45Z</time>
  <course>167.23</course>
  <speed>0.19</speed>
  <fix>3d</fix>
</trkpt>
<trkpt lat="40.0714408" lon="-105.2294886">
  <ele>1583.14</ele>
  <time>2026-08-28T17:56:45Z</time>
  <course>347.62</course>
  <speed>0.26248809496813374</speed>
  <fix>3d</fix>
</trkpt>
<trkpt lat="40.0714416" lon="-105.229489">
  <ele>1583.0</ele>
  <time>2026-08-28T17:56:45Z</time>
  <course>166.54</course>
  <speed>0.19</speed>
  <fix>3d</fix>
</trkpt>
<trkpt lat="40.0714407" lon="-105.2294885">
  <ele>1583.14</ele>
  <time>2026-08-28T17:56:45Z</time>
  <course>346.62</course>
  <speed>0.25632011235952595</speed>
  <fix>3d</fix>
</trkpt>
<trkpt lat="40.0714416" lon="-105.229489">
  <ele>1583.0</ele>
  <time>2026-08-28T17:56:45Z</time>
  <course>166.54</course>
  <speed>0.19</speed>
  <fix>3d</fix>
</trkpt>
<trkpt lat="40.0714405" lon="-105.2294885">
  <ele>1583.14</ele>
  <time>2026-08-28T17:56:45Z</time>
  <course>345.11</course>
  <speed>0.23769728648009425</speed>
  <fix>3d</fix>
</trkpt>
<trkpt lat="40.0714413" lon="-105.2294889">
  <ele>1583.0</ele>
  <time>2026-08-28T17:56:45Z</time>
  <course>164.98</course>
  <speed>0.17</speed>
  <fix>3d</fix>
</trkpt>
<trkpt lat="40.0714404" lon="-105.2294884">
  <ele>1583.14</ele>
  <time>2026-08-28T17:56:45Z</time>
  <course>343.07</course>
  <speed>0.2193171219946131</speed>
  <fix>3d</fix>
</trkpt>
<trkpt lat="40.0714413" lon="-105.2294889">
  <ele>1583.0</ele>
  <time>2026-08-28T17:56:45Z</time>
  <course>164.98</course>
  <speed>0.17</speed>
  <fix>3d</fix>
</trkpt>
<trkpt lat="40.0714403" lon="-105.2294883">
  <ele>1583.14</ele>
  <time>2026-08-28T17:56:45Z</time>
  <course>340.55</course>
  <speed>0.19235384061671343</speed>
  <fix>3d</fix>
</trkpt>
<trkpt lat="40.0714411" lon="-105.2294888">
  <ele>1583.0</ele>
  <time>2026-08-28T17:56:45Z</time>
  <course>161.7</course>
  <speed>0.14</speed>
  <fix>3d</fix>
</trkpt>
<trkpt lat="40.0714402" lon="-105.2294883">
  <ele>1583.13</ele>
  <time>2026-08-28T17:56:45Z</time>
  <course>337.58</course>
  <speed>0.1664331697709324</speed>
  <fix>3d</fix>
</trkpt>
<trkpt lat="40.0714411" lon="-105.2294888">
  <ele>1583.0</ele>
  <time>2026-08-28T17:56:45Z</time>
  <course>161.7</course>
  <speed>0.14</speed>
  <fix>3d</fix>
</trkpt>
<trkpt lat="40.0714402" lon="-105.2294882">
  <ele>1583.13</ele>
  <time>2026-08-28T17:56:45Z</time>
  <course>334.2</course>
  <speed>0.12806248474865697</speed>
  <fix>3d</fix>
</trkpt>
<trkpt lat="40.0714411" lon="-105.2294888">
  <ele>1583.0</ele>
  <time>2026-08-28T17:56:45Z</time>
  <course>161.7</course>
  <speed>0.14</speed>
  <fix>3d</fix>
</trkpt>
<trkpt lat="40.0714402" lon="-105.2294882">
  <ele>1583.13</ele>
  <time>2026-08-28T17:56:45Z</time>
  <course>330.43</course>
  <speed>0.09899494936611665</speed>
  <fix>3d</fix>
</trkpt>
<trkpt lat="40.0714409" lon="-105.2294887">
  <ele>1583.0</ele>
  <time>2026-08-28T17:56:45Z</time>
  <course>156.94</course>
  <speed>0.09</speed>
  <fix>3d</fix>
</trkpt>
<trkpt lat="40.0714402" lon="-105.2294881">
  <ele>1583.13</ele>
  <time>2026-08-28T17:56:45Z</time>
  <course>326.39</course>
  <speed>0.05830951894845301</speed>
  <fix>3d</fix>
</trkpt>
<trkpt lat="40.0714409" lon="-105.2294887">
  <ele>1583.0</ele>
  <time>2026-08-28T17:56:45Z</time>
  <course>156.94</course>
  <speed>0.09</speed>
  <fix>3d</fix>
</trkpt>
<trkpt lat="40.0714403" lon="-105.2294882">
  <ele>1583.13</ele>
  <time>2026-08-28T17:56:45Z</time>
  <course>322.11</course>
  <speed>0.02</speed>
  <fix>3d</fix>
</trkpt>
<trkpt lat="40.0714408" lon="-105.2294886">
  <ele>1583.0</ele>
  <time>2026-08-28T17:56:45Z</time>
  <course>154.47</course>
  <speed>0.02</speed>
  <fix>3d</fix>
</trkpt>
<trkpt lat="40.0714403" lon="-105.2294882">
  <ele>1583.13</ele>
  <time>2026-08-28T17:56:45Z</time>
  <course>317.67</course>
  <speed>0.03</speed>
  <fix>3d</fix>
</trkpt>
<trkpt lat="40.0714408" lon="-105.2294886">
  <ele>1583.0</ele>
  <time>2026-08-28T17:56:45Z</time>
  <course>154.47</course>
  <speed>0.02</speed>
  <fix>3d</fix>
</trkpt>
<trkpt lat="40.0714404" lon="-105.2294883">
  <ele>1583.13</ele>
  <time>2026-08-28T17:56:45Z</time>
  <course>313.14</course>
  <speed>0.07211102550927978</speed>
  <fix>3d</fix>
</trkpt>
<trkpt lat="40.0714408" lon="-105.2294886">
  <ele>1583.0</ele>
  <time>2026-08-28T17:56:45Z</time>
  <course>317.07</course>
  <speed>0.05</speed>
  <fix>3d</fix>
</trkpt>
<trkpt lat="40.0714405" lon="-105.2294884">
  <ele>1583.13</ele>
  <time>2026-08-28T17:56:45Z</time>
  <course>308.56</course>
  <speed>0.1131370849898476</speed>
  <fix>3d</fix>
</trkpt>
<trkpt lat="40.0714408" lon="-105.2294887">
  <ele>1583.0</ele>
  <time>2026-08-28T17:56:45Z</time>
  <course>310.21</course>
  <speed>0.13</speed>
  <fix>3d</fix>
</trkpt>
<trkpt lat="40.0714406" lon="-105.2294885">
  <ele>1583.14</ele>
  <time>2026-08-28T17:56:45Z</time>
  <course>304.04</course>
  <speed>0.15620499351813308</speed>
  <fix>3d</fix>
</trkpt>
<trkpt lat="40.0714408" lon="-105.2294887">
  <ele>1583.0</ele>
  <time>2026-08-28T17:56:45Z</time>
  <course>310.21</course>
  <speed>0.13</speed>
  <fix>3d</fix>
</trkpt>
<trkpt lat="40.0714408" lon="-105.2294888">
  <ele>1583.14</ele>
  <time>2026-08-28T17:56:45Z</time>
  <course>299.59</course>
  <speed>0.1972308292331602</speed>
  <fix>3d</fix>
</trkpt>
<trkpt lat="40.071441" lon="-105.2294891">
  <ele>1583.0</ele>
  <time>2026-08-28T17:56:45Z</time>
  <course>301.77</course>
  <speed>0.22</speed>
  <fix>3d</fix>
</trkpt>
<trkpt lat="40.0714409" lon="-105.2294891">
  <ele>1583.13</ele>
  <time>2026-08-28T17:56:45Z</time>
  <course>295.25</course>
  <speed>0.23706539182259395</speed>
  <fix>3d</fix>
</trkpt>
<trkpt lat="40.071441" lon="-105.2294891">
  <ele>1583.0</ele>
  <time>2026-08-28T17:56:45Z</time>
  <course>301.77</course>
  <speed>0.22</speed>
  <fix>3d</fix>
</trkpt>
<trkpt lat="40.071441" lon="-105.2294894">
  <ele>1583.13</ele>
  <time>2026-08-28T17:56:45Z</time>
  <course>291.04</course>
  <speed>0.2785677655436824</speed>
  <fix>3d</fix>
</trkpt>
<trkpt lat="40.0714411" lon="-105.2294896">
  <ele>1583.0</ele>
  <time>2026-08-28T17:56:45Z</time>
  <course>293.3</course>
  <speed>0.3</speed>
  <fix>3d</fix>
</trkpt>
<trkpt lat="40.0714412" lon="-105.2294898">
  <ele>1583.13</ele>
  <time>2026-08-28T17:56:45Z</time>
  <course>287.0</course>
  <speed>0.3132091952673165</speed>
  <fix>3d</fix>
</trkpt>
<trkpt lat="40.0714411" lon="-105.2294896">
  <ele>1583.0</ele>
  <time>2026-08-28T17:56:45Z</time>
  <course>293.3</course>
  <speed>0.3</speed>
  <fix>3d</fix>
</trkpt>
<trkpt lat="40.0714413" lon="-105.2294903">
  <ele>1583.13</ele>
  <time>2026-08-28T17:56:45Z</time>
  <course>283.12</course>
  <speed>0.3590264614203248</speed>
  <fix>3d</fix>
</trkpt>
<trkpt lat="40.0714414" lon="-105.2294904">
  <ele>1583.0</ele>
  <time>2026-08-28T17:56:45Z</time>
  <course>285.22</course>
  <speed>0.37</speed>
  <fix>3d</fix>
</trkpt>
<trkpt lat="40.0714414" lon="-105.2294908">
  <ele>1583.14</ele>
  <time>2026-08-28T17:56:45Z</time>
  <course>279.44</course>
  <speed>0.3945883931389772</speed>
  <fix>3d</fix>
</trkpt>
<trkpt lat="40.0714414" lon="-105.2294904">
  <ele>1583.0</ele>
  <time>2026-08-28T17:56:45Z</time>
  <course>285.22</course>
  <speed>0.37</speed>
  <fix>3d</fix>
</trkpt>
<trkpt lat="40.0714414" lon="-105.2294914">
  <ele>1583.14</ele>
  <time>2026-08-28T17:56:45Z</time>
  <course>275.98</course>
  <speed>0.44181444068749043</speed>
  <fix>3d</fix>
</trkpt>
<trkpt lat="40.0714415" lon="-105.2294913">
  <ele>1583.0</ele>
  <time>2026-08-28T17:56:45Z</time>
  <course>277.79</course>
  <speed>0.45</speed>
  <fix>3d</fix>
</trkpt>
<trkpt lat="40.0714415" lon="-105.229492">
  <ele>1583.14</ele>
  <time>2026-08-28T17:56:45Z</time>
  <course>272.81</course>
  <speed>0.4801041553663121</speed>
  <fix>3d</fix>
</trkpt>
<trkpt lat="40.0714415" lon="-105.2294913">
  <ele>1583.0</ele>
  <time>2026-08-28T17:56:45Z</time>
  <course>277.79</course>
  <speed>0.45</speed>
  <fix>3d</fix>
</trkpt>
<trkpt lat="40.0714415" lon="-105.2294927">
  <ele>1583.14</ele>
  <time>2026-08-28T17:56:45Z</time>
  <course>269.97</course>
  <speed>0.52</speed>
  <fix>3d</fix>
</trkpt>
<trkpt lat="40.0714416" lon="-105.2294924">
  <ele>1583.0</ele>
  <time>2026-08-28T17:56:45Z</time>
  <course>271.29</course>
  <speed>0.53</speed>
  <fix>3d</fix>
</trkpt>
<trkpt lat="40.0714415" lon="-105.2294934">
  <ele>1583.14</ele>
  <time>2026-08-28T17:56:45Z</time>
  <course>267.46</course>
  <speed>0.5707889277132134</speed>
  <fix>3d</fix>
</trkpt>
<trkpt lat="40.0714416" lon="-105.2294924">
  <ele>1583.0</ele>
  <time>2026-08-28T17:56:45Z</time>
  <course>271.29</course>
  <speed>0.53</speed>
  <fix>3d</fix>
</trkpt>
<trkpt lat="40.0714414" lon="-105.2294942">
  <ele>1583.14</ele>
  <time>2026-08-28T17:56:45Z</time>
  <course>265.22</course>
  <speed>0.6220128616033594</speed>
  <fix>3d</fix>
</trkpt>
<trkpt lat="40.0714416" lon="-105.2294938">
  <ele>1583.0</ele>
  <time>2026-08-28T17:56:45Z</time>
  <course>265.96</course>
  <speed>0.62</speed>
  <fix>3d</fix>
</trkpt>
<trkpt lat="40.0714414" lon="-105.229495">
  <ele>1583.14</ele>
  <time>2026-08-28T17:56:45Z</time>
  <course>263.24</course>
  <speed>0.6747592163134936</speed>
  <fix>3d</fix>
</trkpt>
<trkpt lat="40.0714416" lon="-105.2294938">
  <ele>1583.0</ele>
  <time>2026-08-28T17:56:45Z</time>
  <course>265.96</course>
  <speed>0.62</speed>
  <fix>3d</fix>
</trkpt>
<trkpt lat="40.0714413" lon="-105.2294959">
  <ele>1583.14</ele>
  <time>2026-08-28T17:56:45Z</time>
  <course>261.52</course>
  <speed>0.7382411530116699</speed>
  <fix>3d</fix>
</trkpt>
<trkpt lat="40.0714416" lon="-105.2294938">
  <ele>1583.0</ele>
  <time>2026-08-28T17:56:45Z</time>
  <course>265.96</course>
  <speed>0.62</speed>
  <fix>3d</fix>
</trkpt>
<trkpt lat="40.0714412" lon="-105.2294969">
  <ele>1583.14</ele>
  <time>2026-08-28T17:56:45Z</time>
  <course>260.03</course>
  <speed>0.792464510246358</speed>
  <fix>3d</fix>
</trkpt>
<trkpt lat="40.0714415" lon="-105.2294954">
  <ele>1583.0</ele>
  <time>2026-08-28T17:56:45Z</time>
  <course>261.78</course>
  <speed>0.72</speed>
  <fix>3d</fix>
</trkpt>
<trkpt lat="40.0714411" lon="-105.2294979">
  <ele>1583.14</ele>
  <time>2026-08-28T17:56:45Z</time>
  <course>258.75</course>
  <speed>0.8570297544426332</speed>
  <fix>3d</fix>
</trkpt>
<trkpt lat="40.0714415" lon="-105.2294954">
  <ele>1583.0</ele>
  <time>2026-08-28T17:56:45Z</time>
  <course>261.78</course>
  <speed>0.72</speed>
  <fix>3d</fix>
</trkpt>
<trkpt lat="40.0714409" lon="-105.229499">
  <ele>1583.15</ele>
  <time>2026-08-28T17:56:45Z</time>
  <course>257.69</course>
  <speed>0.9219544457292888</speed>
  <fix>3d</fix>
</trkpt>
<trkpt lat="40.0714412" lon="-105.2294972">
  <ele>1583.0</ele>
  <time>2026-08-28T17:56:45Z</time>
  <course>258.6</course>
  <speed>0.83</speed>
  <fix>3d</fix>
</trkpt>
<trkpt lat="40.0714407" lon="-105.2295001">
  <ele>1583.15</ele>
  <time>2026-08-28T17:56:45Z</time>
  <course>256.86</course>
  <speed>0.9968951800465282</speed>
  <fix>3d</fix>
</trkpt>
<trkpt lat="40.0714412" lon="-105.2294972">
  <ele>1583.0</ele>
  <time>2026-08-28T17:56:45Z</time>
  <course>258.6</course>
  <speed>0.83</speed>
  <fix>3d</fix>
</trkpt>
<trkpt lat="40.0714405" lon="-105.2295014">
  <ele>1583.15</ele>
  <time>2026-08-28T17:56:45Z</time>
  <course>256.18</course>
  <speed>1.0720074626605918</speed>
  <fix>3d</fix>
</trkpt>
<trkpt lat="40.0714409" lon="-105.2294992">
  <ele>1583.0</ele>
  <time>2026-08-28T17:56:45Z</time>
  <course>256.31</course>
  <speed>0.96</speed>
  <fix>3d</fix>
</trkpt>
<trkpt lat="40.0714402" lon="-105.2295027">
  <ele>1583.15</ele>
  <time>2026-08-28T17:56:45Z</time>
  <course>255.64</course>
  <speed>1.1447707194019245</speed>
  <fix>3d</fix>
</trkpt>
<trkpt lat="40.0714409" lon="-105.2294992">
  <ele>1583.0</ele>
  <time>2026-08-28T17:56:45Z</time>
  <course>256.31</course>
  <speed>0.96</speed>
  <fix>3d</fix>
</trkpt>
<trkpt lat="40.07144" lon="-105.2295041">
  <ele>1583.15</ele>
  <time>2026-08-28T17:56:45Z</time>
  <course>255.2</course>
  <speed>1.2297154142320899</speed>
  <fix>3d</fix>
</trkpt>
<trkpt lat="40.0714405" lon="-105.2295016">
  <ele>1583.0</ele>
  <time>2026-08-28T17:56:45Z</time>
  <course>254.79</course>
  <speed>1.1</speed>
  <fix>3d</fix>
</trkpt>
<trkpt lat="40.0714397" lon="-105.2295056">
  <ele>1583.15</ele>
  <time>2026-08-28T17:56:46Z</time>
  <course>254.84</course>
  <speed>1.3147243057006286</speed>
  <fix>3d</fix>
</trkpt>
<trkpt lat="40.0714399" lon="-105.2295043">
  <ele>1583.0</ele>
  <time>2026-08-28T17:56:46Z</time>
  <course>253.81</course>
  <speed>1.26</speed>
  <fix>3d</fix>
</trkpt>
<trkpt lat="40.0714393" lon="-105.2295072">
  <ele>1583.15</ele>
  <time>2026-08-28T17:56:46Z</time>
  <course>254.55</course>
  <speed>1.3997856978837868</speed>
  <fix>3d</fix>
</trkpt>
<trkpt lat="40.0714399" lon="-105.2295043">
  <ele>1583.0</ele>
  <time>2026-08-28T17:56:46Z</time>
  <course>253.81</course>
  <speed>1.26</speed>
  <fix>3d</fix>
</trkpt>
<trkpt lat="40.0714389" lon="-105.2295089">
  <ele>1583.15</ele>
  <time>2026-08-28T17:56:46Z</time>
  <course>254.31</course>
  <speed>1.4848905683584903</speed>
  <fix>3d</fix>
</trkpt>
<trkpt lat="40.0714392" lon="-105.2295073">
  <ele>1583.0</ele>
  <time>2026-08-28T17:56:46Z</time>
  <course>253.17</course>
  <speed>1.42</speed>
  <fix>3d</fix>
</trkpt>
<trkpt lat="40.0714385" lon="-105.2295107">
  <ele>1583.14</ele>
  <time>2026-08-28T17:56:46Z</time>
  <course>254.12</course>
  <speed>1.5796518603793686</speed>
  <fix>3d</fix>
</trkpt>
<trkpt lat="40.0714392" lon="-105.2295073">
  <ele>1583.0</ele>
  <time>2026-08-28T17:56:46Z</time>
  <course>253.17</course>
  <speed>1.42</speed>
  <fix>3d</fix>
</trkpt>
<trkpt lat="40.0714381" lon="-105.2295126">
  <ele>1583.14</ele>
  <time>2026-08-28T17:56:46Z</time>
  <course>253.96</course>
  <speed>1.6744252745345194</speed>
  <fix>3d</fix>
</trkpt>
<trkpt lat="40.0714384" lon="-105.2295106">
  <ele>1583.0</ele>
  <time>2026-08-28T17:56:46Z</time>
  <course>252.74</course>
  <speed>1.6</speed>
  <fix>3d</fix>
</trkpt>
<trkpt lat="40.0714376" lon="-105.2295147">
  <ele>1583.14</ele>
  <time>2026-08-28T17:56:46Z</time>
  <course>253.83</course>
  <speed>1.7692088627406317</speed>
  <fix>3d</fix>
</trkpt>
<trkpt lat="40.0714384" lon="-105.2295106">
  <ele>1583.0</ele>
  <time>2026-08-28T17:56:46Z</time>
  <course>252.74</course>
  <speed>1.6</speed>
  <fix>3d</fix>
</trkpt>
<trkpt lat="40.0714372" lon="-105.2295168">
  <ele>1583.14</ele>
  <time>2026-08-28T17:56:46Z</time>
  <course>253.73</course>
  <speed>1.8640010729610645</speed>
  <fix>3d</fix>
</trkpt>
<trkpt lat="40.0714375" lon="-105.2295144">
  <ele>1583.0</ele>
  <time>2026-08-28T17:56:46Z</time>
  <course>252.46</course>
  <speed>1.78</speed>
  <fix>3d</fix>
</trkpt>
<trkpt lat="40.0714366" lon="-105.229519">
  <ele>1583.14</ele>
  <time>2026-08-28T17:56:46Z</time>
  <course>253.65</course>
  <speed>1.9588006534611937</speed>
  <fix>3d</fix>
</trkpt>
<trkpt lat="40.0714375" lon="-105.2295144">
  <ele>1583.0</ele>
  <time>2026-08-28T17:56:46Z</time>
  <course>252.46</course>
  <speed>1.78</speed>
  <fix>3d</fix>
</trkpt>
<trkpt lat="40.0714361" lon="-105.2295213">
  <ele>1583.14</ele>
  <time>2026-08-28T17:56:46Z</time>
  <course>253.59</course>
  <speed>2.0632013958894073</speed>
  <fix>3d</fix>
</trkpt>
<trkpt lat="40.0714365" lon="-105.2295187">
  <ele>1583.0</ele>
  <time>2026-08-28T17:56:46Z</time>
  <course>252.29</course>
  <speed>1.97</speed>
  <fix>3d</fix>
</trkpt>
<trkpt lat="40.0714355" lon="-105.2295238">
  <ele>1583.13</ele>
  <time>2026-08-28T17:56:46Z</time>
  <course>253.54</course>
  <speed>2.158008341040414</speed>
  <fix>3d</fix>
</trkpt>
<trkpt lat="40.0714365" lon="-105.2295187">
  <ele>1583.0</ele>
  <time>2026-08-28T17:56:46Z</time>
  <course>252.29</course>
  <speed>1.97</speed>
  <fix>3d</fix>
</trkpt>
<trkpt lat="40.0714349" lon="-105.2295263">
  <ele>1583.13</ele>
  <time>2026-08-28T17:56:46Z</time>
  <course>253.51</course>
  <speed>2.262410219213129</speed>
  <fix>3d</fix>
</trkpt>
<trkpt lat="40.0714354" lon="-105.2295233">
  <ele>1583.0</ele>
  <time>2026-08-28T17:56:46Z</time>
  <course>252.19</course>
  <speed>2.16</speed>
  <fix>3d</fix>
</trkpt>
<trkpt lat="40.0714343" lon="-105.2295289">
  <ele>1583.12</ele>
  <time>2026-08-28T17:56:46Z</time>
  <course>253.49</course>
  <speed>2.3572229423624744</speed>
  <fix>3d</fix>
</trkpt>
<trkpt lat="40.0714354" lon="-105.2295233">
  <ele>1583.0</ele>
  <time>2026-08-28T17:56:46Z</time>
  <course>252.19</course>
  <speed>2.16</speed>
  <fix>3d</fix>
</trkpt>
<trkpt lat="40.0714336" lon="-105.2295317">
  <ele>1583.12</ele>
  <time>2026-08-28T17:56:46Z</time>
  <course>253.47</course>
  <speed>2.4616254792311523</speed>
  <fix>3d</fix>
</trkpt>
<trkpt lat="40.0714354" lon="-105.2295233">
  <ele>1583.0</ele>
  <time>2026-08-28T17:56:46Z</time>
  <course>252.19</course>
  <speed>2.16</speed>
  <fix>3d</fix>
</trkpt>
<trkpt lat="40.0714329" lon="-105.2295345">
  <ele>1583.12</ele>
  <time>2026-08-28T17:56:46Z</time>
  <course>253.47</course>
  <speed>2.5660280590827527</speed>
  <fix>3d</fix>
</trkpt>
<trkpt lat="40.0714341" lon="-105.2295284">
  <ele>1583.0</ele>
  <time>2026-08-28T17:56:46Z</time>
  <course>252.14</course>
  <speed>2.36</speed>
  <fix>3d</fix>
</trkpt>
<trkpt lat="40.0714322" lon="-105.2295375">
  <ele>1583.12</ele>
  <time>2026-08-28T17:56:46Z</time>
  <course>253.47</course>
  <speed>2.660845730214362</speed>
  <fix>3d</fix>
</trkpt>
<trkpt lat="40.0714341" lon="-105.2295284">
  <ele>1583.0</ele>
  <time>2026-08-28T17:56:46Z</time>
  <course>252.14</course>
  <speed>2.36</speed>
  <fix>3d</fix>
</trkpt>
<trkpt lat="40.0714315" lon="-105.2295406">
  <ele>1583.12</ele>
  <time>2026-08-28T17:56:46Z</time>
  <course>253.48</course>
  <speed>2.7652486325826113</speed>
  <fix>3d</fix>
</trkpt>
<trkpt lat="40.0714327" lon="-105.2295339">
  <ele>1583.0</ele>
  <time>2026-08-28T17:56:46Z</time>
  <course>252.13</course>
  <speed>2.56</speed>
  <fix>3d</fix>
</trkpt>
<trkpt lat="40.0714307" lon="-105.2295438">
  <ele>1583.13</ele>
  <time>2026-08-28T17:56:46Z</time>
  <course>253.49</course>
  <speed>2.8696515467910033</speed>
  <fix>3d</fix>
</trkpt>
<trkpt lat="40.0714327" lon="-105.2295339">
  <ele>1583.0</ele>
  <time>2026-08-28T17:56:46Z</time>
  <course>252.13</course>
  <speed>2.56</speed>
  <fix>3d</fix>
</trkpt>
<trkpt lat="40.0714299" lon="-105.229547">
  <ele>1583.13</ele>
  <time>2026-08-28T17:56:46Z</time>
  <course>253.51</course>
  <speed>2.964472971710149</speed>
  <fix>3d</fix>
</trkpt>
<trkpt lat="40.0714313" lon="-105.2295398">
  <ele>1583.0</ele>
  <time>2026-08-28T17:56:46Z</time>
  <course>252.15</course>
  <speed>2.76</speed>
  <fix>3d</fix>
</trkpt>
<trkpt lat="40.0714291" lon="-105.2295504">
  <ele>1583.13</ele>
  <time>2026-08-28T17:56:46Z</time>
  <course>253.54</course>
  <speed>3.068876015742571</speed>
  <fix>3d</fix>
</trkpt>
<trkpt lat="40.0714313" lon="-105.2295398">
  <ele>1583.0</ele>
  <time>2026-08-28T17:56:46Z</time>
  <course>252.15</course>
  <speed>2.76</speed>
  <fix>3d</fix>
</trkpt>
<trkpt lat="40.0714282" lon="-105.2295539">
  <ele>1583.14</ele>
  <time>2026-08-28T17:56:46Z</time>
  <course>253.56</course>
  <speed>3.173279061160553</speed>
  <fix>3d</fix>
</trkpt>
<trkpt lat="40.0714297" lon="-105.2295463">
  <ele>1583.0</ele>
  <time>2026-08-28T17:56:46Z</time>
  <course>252.19</course>
  <speed>2.96</speed>
  <fix>3d</fix>
</trkpt>
<trkpt lat="40.0714274" lon="-105.2295576">
  <ele>1583.14</ele>
  <time>2026-08-28T17:56:46Z</time>
  <course>253.59</course>
  <speed>3.265241185578793</speed>
  <fix>3d</fix>
</trkpt>
<trkpt lat="40.071428" lon="-105.2295531">
  <ele>1583.0</ele>
  <time>2026-08-28T17:56:46Z</time>
  <course>252.24</course>
  <speed>3.16</speed>
  <fix>3d</fix>
</trkpt>
<trkpt lat="40.0714265" lon="-105.2295613">
  <ele>1583.13</ele>
  <time>2026-08-28T17:56:46Z</time>
  <course>253.62</course>
  <speed>3.3696438980996195</speed>
  <fix>3d</fix>
</trkpt>
<trkpt lat="40.071428" lon="-105.2295531">
  <ele>1583.0</ele>
  <time>2026-08-28T17:56:46Z</time>
  <course>252.24</course>
  <speed>3.16</speed>
  <fix>3d</fix>
</trkpt>
<trkpt lat="40.0714255" lon="-105.2295652">
  <ele>1583.14</ele>
  <time>2026-08-28T17:56:46Z</time>
  <course>253.66</course>
  <speed>3.4740466318113805</speed>
  <fix>3d</fix>
</trkpt>
<trkpt lat="40.0714263" lon="-105.2295604">
  <ele>1583.0</ele>
  <time>2026-08-28T17:56:46Z</time>
  <course>252.31</course>
  <speed>3.36</speed>
  <fix>3d</fix>
</trkpt>
<trkpt lat="40.0714245" lon="-105.2295692">
  <ele>1583.14</ele>
  <time>2026-08-28T17:56:46Z</time>
  <course>253.69</course>
  <speed>3.5784493848593137</speed>
  <fix>3d</fix>
</trkpt>
<trkpt lat="40.0714263" lon="-105.2295604">
  <ele>1583.0</ele>
  <time>2026-08-28T17:56:46Z</time>
  <course>252.31</course>
  <speed>3.36</speed>
  <fix>3d</fix>
</trkpt>
<trkpt lat="40.0714236" lon="-105.2295734">
  <ele>1583.14</ele>
  <time>2026-08-28T17:56:46Z</time>
  <course>253.72</course>
  <speed>3.682852155598973</speed>
  <fix>3d</fix>
</trkpt>
<trkpt lat="40.0714244" lon="-105.2295681">
  <ele>1583.0</ele>
  <time>2026-08-28T17:56:46Z</time>
  <course>252.39</course>
  <speed>3.57</speed>
  <fix>3d</fix>
</trkpt>
<trkpt lat="40.0714225" lon="-105.2295776">
  <ele>1583.13</ele>
  <time>2026-08-28T17:56:46Z</time>
  <course>253.76</course>
  <speed>3.787254942567242</speed>
  <fix>3d</fix>
</trkpt>
<trkpt lat="40.0714244" lon="-105.2295681">
  <ele>1583.0</ele>
  <time>2026-08-28T17:56:46Z</time>
  <course>252.39</course>
  <speed>3.57</speed>
  <fix>3d</fix>
</trkpt>
<trkpt lat="40.0714215" lon="-105.229582">
  <ele>1583.13</ele>
  <time>2026-08-28T17:56:46Z</time>
  <course>253.79</course>
  <speed>3.8916577444580094</speed>
  <fix>3d</fix>
</trkpt>
<trkpt lat="40.0714224" lon="-105.2295763">
  <ele>1583.0</ele>
  <time>2026-08-28T17:56:46Z</time>
  <course>252.47</course>
  <speed>3.77</speed>
  <fix>3d</fix>
</trkpt>
<trkpt lat="40.0714204" lon="-105.2295864">
  <ele>1583.13</ele>
  <time>2026-08-28T17:56:46Z</time>
  <course>253.83</course>
  <speed>3.9864771415373754</speed>
  <fix>3d</fix>
</trkpt>
<trkpt lat="40.0714224" lon="-105.2295763">
  <ele>1583.0</ele>
  <time>2026-08-28T17:56:46Z</time>
  <course>252.47</course>
  <speed>3.77</speed>
  <fix>3d</fix>
</trkpt>
<trkpt lat="40.0714193" lon="-105.229591">
  <ele>1583.14</ele>
  <time>2026-08-28T17:56:46Z</time>
  <course>253.86</course>
  <speed>4.088031311034689</speed>
  <fix>3d</fix>
</trkpt>
<trkpt lat="40.0714203" lon="-105.229585">
  <ele>1583.0</ele>
  <time>2026-08-28T17:56:46Z</time>
  <course>252.55</course>
  <speed>3.97</speed>
  <fix>3d</fix>
</trkpt>
<trkpt lat="40.0714182" lon="-105.2295957">
  <ele>1583.14</ele>
  <time>2026-08-28T17:56:46Z</time>
  <course>253.9</course>
  <speed>4.192433660775087</speed>
  <fix>3d</fix>
</trkpt>
<trkpt lat="40.0714203" lon="-105.229585">
  <ele>1583.0</ele>
  <time>2026-08-28T17:56:46Z</time>
  <course>252.55</course>
  <speed>3.97</speed>
  <fix>3d</fix>
</trkpt>
<trkpt lat="40.0714171" lon="-105.2296005">
  <ele>1583.14</ele>
  <time>2026-08-28T17:56:46Z</time>
  <course>253.94</course>
  <speed>4.287248534899744</speed>
  <fix>3d</fix>
</trkpt>
<trkpt lat="40.0714181" lon="-105.2295941">
  <ele>1583.0</ele>
  <time>2026-08-28T17:56:46Z</time>
  <course>252.64</course>
  <speed>4.16</speed>
  <fix>3d</fix>
</trkpt>
<trkpt lat="40.0714159" lon="-105.2296054">
  <ele>1583.14</ele>
  <time>2026-08-28T17:56:46Z</time>
  <course>253.98</course>
  <speed>4.37922367549318</speed>
  <fix>3d</fix>
</trkpt>
<trkpt lat="40.0714181" lon="-105.2295941">
  <ele>1583.0</ele>
  <time>2026-08-28T17:56:46Z</time>
  <course>252.64</course>
  <speed>4.16</speed>
  <fix>3d</fix>
</trkpt>
<trkpt lat="40.0714147" lon="-105.2296104">
  <ele>1583.15</ele>
  <time>2026-08-28T17:56:46Z</time>
  <course>254.02</course>
  <speed>4.474036209062238</speed>
  <fix>3d</fix>
</trkpt>
<trkpt lat="40.0714158" lon="-105.2296038">
  <ele>1583.0</ele>
  <time>2026-08-28T17:56:46Z</time>
  <course>252.73</course>
  <speed>4.35</speed>
  <fix>3d</fix>
</trkpt>
<trkpt lat="40.0714135" lon="-105.2296155">
  <ele>1583.15</ele>
  <time>2026-08-28T17:56:46Z</time>
  <course>254.05</course>
  <speed>4.55642403645666</speed>
  <fix>3d</fix>
</trkpt>
<trkpt lat="40.0714158" lon="-105.2296038">
  <ele>1583.0</ele>
  <time>2026-08-28T17:56:46Z</time>
  <course>252.73</course>
  <speed>4.35</speed>
  <fix>3d</fix>
</trkpt>
<trkpt lat="40.0714123" lon="-105.2296207">
  <ele>1583.16</ele>
  <time>2026-08-28T17:56:46Z</time>
  <course>254.09</course>
  <speed>4.638814503728296</speed>
  <fix>3d</fix>
</trkpt>
<trkpt lat="40.0714158" lon="-105.2296038">
  <ele>1583.0</ele>
  <time>2026-08-28T17:56:46Z</time>
  <course>252.73</course>
  <speed>4.35</speed>
  <fix>3d</fix>
</trkpt>
<trkpt lat="40.0714111" lon="-105.229626">
  <ele>1583.16</ele>
  <time>2026-08-28T17:56:46Z</time>
  <course>254.13</course>
  <speed>4.7020208421486185</speed>
  <fix>3d</fix>
</trkpt>
<trkpt lat="40.0714135" lon="-105.2296138">
  <ele>1583.0</ele>
  <time>2026-08-28T17:56:46Z</time>
  <course>252.81</course>
  <speed>4.52</speed>
  <fix>3d</fix>
</trkpt>
<trkpt lat="40.0714098" lon="-105.2296313">
  <ele>1583.16</ele>
  <time>2026-08-28T17:56:46Z</time>
  <course>254.18</course>
  <speed>4.762404854692637</speed>
  <fix>3d</fix>
</trkpt>
<trkpt lat="40.0714135" lon="-105.2296138">
  <ele>1583.0</ele>
  <time>2026-08-28T17:56:46Z</time>
  <course>252.81</course>
  <speed>4.52</speed>
  <fix>3d</fix>
</trkpt>
<trkpt lat="40.0714086" lon="-105.2296366">
  <ele>1583.16</ele>
  <time>2026-08-28T17:56:46Z</time>
  <course>254.22</course>
  <speed>4.803602814554925</speed>
  <fix>3d</fix>
</trkpt>
<trkpt lat="40.071411" lon="-105.2296241">
  <ele>1583.0</ele>
  <time>2026-08-28T17:56:46Z</time>
  <course>252.9</course>
  <speed>4.67</speed>
  <fix>3d</fix>
</trkpt>
<trkpt lat="40.0714073" lon="-105.229642">
  <ele>1583.16</ele>
  <time>2026-08-28T17:56:46Z</time>
  <course>254.26</course>
  <speed>4.835204235603705</speed>
  <fix>3d</fix>
</trkpt>
<trkpt lat="40.071411" lon="-105.2296241">
  <ele>1583.0</ele>
  <time>2026-08-28T17:56:46Z</time>
  <course>252.9</course>
  <speed>4.67</speed>
  <fix>3d</fix>
</trkpt>
<trkpt lat="40.071406" lon="-105.2296474">
  <ele>1583.16</ele>
  <time>2026-08-28T17:56:46Z</time>
  <course>254.31</course>
  <speed>4.86680593408038</speed>
  <fix>3d</fix>
</trkpt>
<trkpt lat="40.0714085" lon="-105.2296346">
  <ele>1583.0</ele>
  <time>2026-08-28T17:56:46Z</time>
  <course>252.99</course>
  <speed>4.77</speed>
  <fix>3d</fix>
</trkpt>
<trkpt lat="40.0714048" lon="-105.2296528">
  <ele>1583.16</ele>
  <time>2026-08-28T17:56:46Z</time>
  <course>254.36</course>
  <speed>4.8764023623979185</speed>
  <fix>3d</fix>
</trkpt>
<trkpt lat="40.0714059" lon="-105.2296455">
  <ele>1583.0</ele>
  <time>2026-08-28T17:56:46Z</time>
  <course>253.08</course>
  <speed>4.84</speed>
  <fix>3d</fix>
</trkpt>
<trkpt lat="40.0714035" lon="-105.2296583">
  <ele>1583.16</ele>
  <time>2026-08-28T17:56:46Z</time>
  <course>254.4</course>
  <speed>4.8860004093327705</speed>
  <fix>3d</fix>
</trkpt>
<trkpt lat="40.0714059" lon="-105.2296455">
  <ele>1583.0</ele>
  <time>2026-08-28T17:56:46Z</time>
  <course>253.08</course>
  <speed>4.84</speed>
  <fix>3d</fix>
</trkpt>
<trkpt lat="40.0714022" lon="-105.2296638">
  <ele>1583.17</ele>
  <time>2026-08-28T17:56:46Z</time>
  <course>254.45</course>
  <speed>4.873602363755172</speed>
  <fix>3d</fix>
</trkpt>
<trkpt lat="40.0714034" lon="-105.2296564">
  <ele>1583.0</ele>
  <time>2026-08-28T17:56:46Z</time>
  <course>253.18</course>
  <speed>4.86</speed>
  <fix>3d</fix>
</trkpt>
<trkpt lat="40.0714009" lon="-105.2296693">
  <ele>1583.17</ele>
  <time>2026-08-28T17:56:46Z</time>
  <course>254.5</course>
  <speed>4.854400065919577</speed>
  <fix>3d</fix>
</trkpt>
<trkpt lat="40.0714034" lon="-105.2296564">
  <ele>1583.0</ele>
  <time>2026-08-28T17:56:46Z</time>
  <course>253.18</course>
  <speed>4.86</speed>
  <fix>3d</fix>
</trkpt>
<trkpt lat="40.0713997" lon="-105.2296747">
  <ele>1583.17</ele>
  <time>2026-08-28T17:56:46Z</time>
  <course>254.56</course>
  <speed>4.832401059514825</speed>
  <fix>3d</fix>
</trkpt>
<trkpt lat="40.0714009" lon="-105.2296673">
  <ele>1583.0</ele>
  <time>2026-08-28T17:56:46Z</time>
  <course>253.29</course>
  <speed>4.84</speed>
  <fix>3d</fix>
</trkpt>
<trkpt lat="40.0713984" lon="-105.2296801">
  <ele>1583.17</ele>
  <time>2026-08-28T17:56:46Z</time>
  <course>254.61</course>
  <speed>4.778807382600809</speed>
  <fix>3d</fix>
</trkpt>
<trkpt lat="40.0714009" lon="-105.2296673">
  <ele>1583.0</ele>
  <time>2026-08-28T17:56:46Z</time>
  <course>253.29</course>
  <speed>4.84</speed>
  <fix>3d</fix>
</trkpt>
<trkpt lat="40.0713972" lon="-105.2296855">
  <ele>1583.18</ele>
  <time>2026-08-28T17:56:46Z</time>
  <course>254.67</course>
  <speed>4.728001692047075</speed>
  <fix>3d</fix>
</trkpt>
<trkpt lat="40.0713985" lon="-105.2296781">
  <ele>1583.0</ele>
  <time>2026-08-28T17:56:46Z</time>
  <course>253.4</course>
  <speed>4.77</speed>
  <fix>3d</fix>
</trkpt>
<trkpt lat="40.0713959" lon="-105.2296908">
  <ele>1583.18</ele>
  <time>2026-08-28T17:56:46Z</time>
  <course>254.74</course>
  <speed>4.664804390325494</speed>
  <fix>3d</fix>
</trkpt>
<trkpt lat="40.0713985" lon="-105.2296781">
  <ele>1583.0</ele>
  <time>2026-08-28T17:56:46Z</time>
  <course>253.4</course>
  <speed>4.77</speed>
  <fix>3d</fix>
</trkpt>
<trkpt lat="40.0713948" lon="-105.229696">
  <ele>1583.18</ele>
  <time>2026-08-28T17:56:46Z</time>
  <course>254.81</course>
  <speed>4.57961788799022</speed>
  <fix>3d</fix>
</trkpt>
<trkpt lat="40.0713961" lon="-105.2296887">
  <ele>1583.0</ele>
  <time>2026-08-28T17:56:46Z</time>
  <course>253.53</course>
  <speed>4.65</speed>
  <fix>3d</fix>
</trkpt>
<trkpt lat="40.0713936" lon="-105.2297011">
  <ele>1583.17</ele>
  <time>2026-08-28T17:56:46Z</time>
  <course>254.88</course>
  <speed>4.484829985629333</speed>
  <fix>3d</fix>
</trkpt>
<trkpt lat="40.0713961" lon="-105.2296887">
  <ele>1583.0</ele>
  <time>2026-08-28T17:56:46Z</time>
  <course>253.53</course>
  <speed>4.65</speed>
  <fix>3d</fix>
</trkpt>
<trkpt lat="40.0713925" lon="-105.2297061">
  <ele>1583.17</ele>
  <time>2026-08-28T17:56:46Z</time>
  <course>254.96</course>
  <speed>4.380433768475446</speed>
  <fix>3d</fix>
</trkpt>
<trkpt lat="40.0713937" lon="-105.229699">
  <ele>1583.0</ele>
  <time>2026-08-28T17:56:46Z</time>
  <course>253.67</course>
  <speed>4.48</speed>
  <fix>3d</fix>
</trkpt>
<trkpt lat="40.0713914" lon="-105.2297109">
  <ele>1583.17</ele>
  <time>2026-08-28T17:56:46Z</time>
  <course>255.03</course>
  <speed>4.276037885706814</speed>
  <fix>3d</fix>
</trkpt>
<trkpt lat="40.0713937" lon="-105.229699">
  <ele>1583.0</ele>
  <time>2026-08-28T17:56:46Z</time>
  <course>253.67</course>
  <speed>4.48</speed>
  <fix>3d</fix>
</trkpt>
<trkpt lat="40.0713903" lon="-105.2297156">
  <ele>1583.17</ele>
  <time>2026-08-28T17:56:46Z</time>
  <course>255.12</course>
  <speed>4.149662636889896</speed>
  <fix>3d</fix>
</trkpt>
<trkpt lat="40.0713915" lon="-105.2297088">
  <ele>1583.0</ele>
  <time>2026-08-28T17:56:46Z</time>
  <course>253.82</course>
  <speed>4.27</speed>
  <fix>3d</fix>
</trkpt>
<trkpt lat="40.0713893" lon="-105.2297202">
  <ele>1583.17</ele>
  <time>2026-08-28T17:56:46Z</time>
  <course>255.2</course>
  <speed>4.023294669794893</speed>
  <fix>3d</fix>
</trkpt>
<trkpt lat="40.0713915" lon="-105.2297088">
  <ele>1583.0</ele>
  <time>2026-08-28T17:56:46Z</time>
  <course>253.82</course>
  <speed>4.27</speed>
  <fix>3d</fix>
</trkpt>
<trkpt lat="40.0713883" lon="-105.2297247">
  <ele>1583.17</ele>
  <time>2026-08-28T17:56:46Z</time>
  <course>255.28</course>
  <speed>3.8900514135419852</speed>
  <fix>3d</fix>
</trkpt>
<trkpt lat="40.0713915" lon="-105.2297088">
  <ele>1583.0</ele>
  <time>2026-08-28T17:56:46Z</time>
  <course>253.82</course>
  <speed>4.27</speed>
  <fix>3d</fix>
</trkpt>
<trkpt lat="40.0713873" lon="-105.2297289">
  <ele>1583.17</ele>
  <time>2026-08-28T17:56:46Z</time>
  <course>255.37</course>
  <speed>3.7540644640176333</speed>
  <fix>3d</fix>
</trkpt>
<trkpt lat="40.0713894" lon="-105.2297183">
  <ele>1583.0</ele>
  <time>2026-08-28T17:56:46Z</time>
  <course>253.98</course>
  <speed>4.02</speed>
  <fix>3d</fix>
</trkpt>
<trkpt lat="40.0713864" lon="-105.229733">
  <ele>1583.16</ele>
  <time>2026-08-28T17:56:46Z</time>
  <course>255.46</course>
  <speed>3.6084622763720287</speed>
  <fix>3d</fix>
</trkpt>
<trkpt lat="40.0713894" lon="-105.2297183">
  <ele>1583.0</ele>
  <time>2026-08-28T17:56:46Z</time>
  <course>253.98</course>
  <speed>4.02</speed>
  <fix>3d</fix>
</trkpt>
<trkpt lat="40.0713855" lon="-105.229737">
  <ele>1583.16</ele>
  <time>2026-08-28T17:56:46Z</time>
  <course>255.56</course>
  <speed>3.472477501726973</speed>
  <fix>3d</fix>
</trkpt>
<trkpt lat="40.0713875" lon="-105.2297271">
  <ele>1583.0</ele>
  <time>2026-08-28T17:56:46Z</time>
  <course>254.15</course>
  <speed>3.76</speed>
  <fix>3d</fix>
</trkpt>
<trkpt lat="40.0713847" lon="-105.2297407">
  <ele>1583.15</ele>
  <time>2026-08-28T17:56:46Z</time>
  <course>255.65</course>
  <speed>3.3241540277189325</speed>
  <fix>3d</fix>
</trkpt>
<trkpt lat="40.0713875" lon="-105.2297271">
  <ele>1583.0</ele>
  <time>2026-08-28T17:56:46Z</time>
  <course>254.15</course>
  <speed>3.76</speed>
  <fix>3d</fix>
</trkpt>
<trkpt lat="40.0713839" lon="-105.2297443">
  <ele>1583.15</ele>
  <time>2026-08-28T17:56:46Z</time>
  <course>255.75</course>
  <speed>3.17855312996338</speed>
  <fix>3d</fix>
</trkpt>
<trkpt lat="40.0713858" lon="-105.2297353">
  <ele>1583.0</ele>
  <time>2026-08-28T17:56:46Z</time>
  <course>254.33</course>
  <speed>3.49</speed>
  <fix>3d</fix>
</trkpt>
<trkpt lat="40.0713831" lon="-105.2297478">
  <ele>1583.15</ele>
  <time>2026-08-28T17:56:46Z</time>
  <course>255.84</course>
  <speed>3.0425811410708508</speed>
  <fix>3d</fix>
</trkpt>
<trkpt lat="40.0713858" lon="-105.2297353">
  <ele>1583.0</ele>
  <time>2026-08-28T17:56:46Z</time>
  <course>254.33</course>
  <speed>3.49</speed>
  <fix>3d</fix>
</trkpt>
<trkpt lat="40.0713824" lon="-105.2297511">
  <ele>1583.14</ele>
  <time>2026-08-28T17:56:46Z</time>
  <course>255.94</course>
  <speed>2.9093126335957775</speed>
  <fix>3d</fix>
</trkpt>
<trkpt lat="40.0713842" lon="-105.2297428">
  <ele>1583.0</ele>
  <time>2026-08-28T17:56:46Z</time>
  <course>254.51</course>
  <speed>3.22</speed>
  <fix>3d</fix>
</trkpt>
<trkpt lat="40.0713817" lon="-105.2297543">
  <ele>1583.14</ele>
  <time>2026-08-28T17:56:46Z</time>
  <course>256.04</course>
  <speed>2.7733373397406957</speed>
  <fix>3d</fix>
</trkpt>
<trkpt lat="40.0713827" lon="-105.2297498">
  <ele>1583.0</ele>
  <time>2026-08-28T17:56:46Z</time>
  <course>254.7</course>
  <speed>2.95</speed>
  <fix>3d</fix>
</trkpt>
<trkpt lat="40.0713811" lon="-105.2297573">
  <ele>1583.14</ele>
  <time>2026-08-28T17:56:46Z</time>
  <course>256.14</course>
  <speed>2.637366110345699</speed>
  <fix>3d</fix>
</trkpt>
<trkpt lat="40.0713827" lon="-105.2297498">
  <ele>1583.0</ele>
  <time>2026-08-28T17:56:46Z</time>
  <course>254.7</course>
  <speed>2.95</speed>
  <fix>3d</fix>
</trkpt>
<trkpt lat="40.0713805" lon="-105.2297602">
  <ele>1583.14</ele>
  <time>2026-08-28T17:56:46Z</time>
  <course>256.24</course>
  <speed>2.511035642917081</speed>
  <fix>3d</fix>
</trkpt>
<trkpt lat="40.0713813" lon="-105.2297562">
  <ele>1583.0</ele>
  <time>2026-08-28T17:56:46Z</time>
  <course>254.9</course>
  <speed>2.69</speed>
  <fix>3d</fix>
</trkpt>
<trkpt lat="40.0713799" lon="-105.229763">
  <ele>1583.14</ele>
  <time>2026-08-28T17:56:46Z</time>
  <course>256.34</course>
  <speed>2.3873835050112917</speed>
  <fix>3d</fix>
</trkpt>
<trkpt lat="40.0713813" lon="-105.2297562">
  <ele>1583.0</ele>
  <time>2026-08-28T17:56:46Z</time>
  <course>254.9</course>
  <speed>2.69</speed>
  <fix>3d</fix>
</trkpt>
<trkpt lat="40.0713794" lon="-105.2297656">
  <ele>1583.14</ele>
  <time>2026-08-28T17:56:46Z</time>
  <course>256.45</course>
  <speed>2.2610616975217637</speed>
  <fix>3d</fix>
</trkpt>
<trkpt lat="40.0713801" lon="-105.229762">
  <ele>1583.0</ele>
  <time>2026-08-28T17:56:46Z</time>
  <course>255.1</course>
  <speed>2.45</speed>
  <fix>3d</fix>
</trkpt>
<trkpt lat="40.0713788" lon="-105.2297681">
  <ele>1583.14</ele>
  <time>2026-08-28T17:56:46Z</time>
  <course>256.55</course>
  <speed>2.1470444802099466</speed>
  <fix>3d</fix>
</trkpt>
<trkpt lat="40.0713801" lon="-105.229762">
  <ele>1583.0</ele>
  <time>2026-08-28T17:56:46Z</time>
  <course>255.1</course>
  <speed>2.45</speed>
  <fix>3d</fix>
</trkpt>
<trkpt lat="40.0713783" lon="-105.2297705">
  <ele>1583.13</ele>
  <time>2026-08-28T17:56:46Z</time>
  <course>256.66</course>
  <speed>2.0330272993740146</speed>
  <fix>3d</fix>
</trkpt>
<trkpt lat="40.0713791" lon="-105.2297673">
  <ele>1583.0</ele>
  <time>2026-08-28T17:56:46Z</time>
  <course>255.31</course>
  <speed>2.21</speed>
  <fix>3d</fix>
</trkpt>
<trkpt lat="40.0713779" lon="-105.2297727">
  <ele>1583.13</ele>
  <time>2026-08-28T17:56:46Z</time>
  <course>256.78</course>
  <speed>1.9190101615155664</speed>
  <fix>3d</fix>
</trkpt>
<trkpt lat="40.0713791" lon="-105.2297673">
  <ele>1583.0</ele>
  <time>2026-08-28T17:56:46Z</time>
  <course>255.31</course>
  <speed>2.21</speed>
  <fix>3d</fix>
</trkpt>
<trkpt lat="40.0713775" lon="-105.2297749">
  <ele>1583.13</ele>
  <time>2026-08-28T17:56:46Z</time>
  <course>256.9</course>
  <speed>1.8120154524727432</speed>
  <fix>3d</fix>
</trkpt>
<trkpt lat="40.0713781" lon="-105.2297721">
  <ele>1583.0</ele>
  <time>2026-08-28T17:56:46Z</time>
  <course>255.54</course>
  <speed>1.99</speed>
  <fix>3d</fix>
</trkpt>
<trkpt lat="40.0713771" lon="-105.2297769">
  <ele>1583.13</ele>
  <time>2026-08-28T17:56:46Z</time>
  <course>257.02</course>
  <speed>1.7076592165886026</speed>
  <fix>3d</fix>
</trkpt>
<trkpt lat="40.0713781" lon="-105.2297721">
  <ele>1583.0</ele>
  <time>2026-08-28T17:56:46Z</time>
  <course>255.54</course>
  <speed>1.99</speed>
  <fix>3d</fix>
</trkpt>
<trkpt lat="40.0713767" lon="-105.2297788">
  <ele>1583.13</ele>
  <time>2026-08-28T17:56:46Z</time>
  <course>257.15</course>
  <speed>1.603309078125612</speed>
  <fix>3d</fix>
</trkpt>
<trkpt lat="40.0713772" lon="-105.2297764">
  <ele>1583.0</ele>
  <time>2026-08-28T17:56:46Z</time>
  <course>255.79</course>
  <speed>1.78</speed>
  <fix>3d</fix>
</trkpt>
<trkpt lat="40.0713763" lon="-105.2297806">
  <ele>1583.13</ele>
  <time>2026-08-28T17:56:46Z</time>
  <course>257.29</course>
  <speed>1.5015325504297268</speed>
  <fix>3d</fix>
</trkpt>
<trkpt lat="40.0713772" lon="-105.2297764">
  <ele>1583.0</ele>
  <time>2026-08-28T17:56:46Z</time>
  <course>255.79</course>
  <speed>1.78</speed>
  <fix>3d</fix>
</trkpt>
<trkpt lat="40.071376" lon="-105.2297822">
  <ele>1583.13</ele>
  <time>2026-08-28T17:56:46Z</time>
  <course>257.44</course>
  <speed>1.3971757226634023</speed>
  <fix>3d</fix>
</trkpt>
<trkpt lat="40.0713765" lon="-105.2297802">
  <ele>1583.0</ele>
  <time>2026-08-28T17:56:46Z</time>
  <course>256.06</course>
  <speed>1.58</speed>
  <fix>3d</fix>
</trkpt>
<trkpt lat="40.0713757" lon="-105.2297838">
  <ele>1583.13</ele>
  <time>2026-08-28T17:56:46Z</time>
  <course>257.6</course>
  <speed>1.3024976007655444</speed>
  <fix>3d</fix>
</trkpt>
<trkpt lat="40.0713765" lon="-105.2297802">
  <ele>1583.0</ele>
  <time>2026-08-28T17:56:46Z</time>
  <course>256.06</course>
  <speed>1.58</speed>
  <fix>3d</fix>
</trkpt>
<trkpt lat="40.0713754" lon="-105.2297853">
  <ele>1583.13</ele>
  <time>2026-08-28T17:56:46Z</time>
  <course>257.78</course>
  <speed>1.1981652640600127</speed>
  <fix>3d</fix>
</trkpt>
<trkpt lat="40.0713765" lon="-105.2297802">
  <ele>1583.0</ele>
  <time>2026-08-28T17:56:46Z</time>
  <course>256.06</course>
  <speed>1.58</speed>
  <fix>3d</fix>
</trkpt>
<trkpt lat="40.0713752" lon="-105.2297866">
  <ele>1583.13</ele>
  <time>2026-08-28T17:56:46Z</time>
  <course>257.98</course>
  <speed>1.1035397591387452</speed>
  <fix>3d</fix>
</trkpt>
<trkpt lat="40.0713759" lon="-105.2297836">
  <ele>1583.0</ele>
  <time>2026-08-28T17:56:46Z</time>
  <course>256.38</course>
  <speed>1.38</speed>
  <fix>3d</fix>
</trkpt>
<trkpt lat="40.071375" lon="-105.2297879">
  <ele>1583.12</ele>
  <time>2026-08-28T17:56:46Z</time>
  <course>258.21</course>
  <speed>1.0113851887386922</speed>
  <fix>3d</fix>
</trkpt>
<trkpt lat="40.0713759" lon="-105.2297836">
  <ele>1583.0</ele>
  <time>2026-08-28T17:56:46Z</time>
  <course>256.38</course>
  <speed>1.38</speed>
  <fix>3d</fix>
</trkpt>
<trkpt lat="40.0713748" lon="-105.229789">
  <ele>1583.12</ele>
  <time>2026-08-28T17:56:46Z</time>
  <course>258.47</course>
  <speed>0.9167878707749137</speed>
  <fix>3d</fix>
</trkpt>
<trkpt lat="40.0713754" lon="-105.2297866">
  <ele>1583.0</ele>
  <time>2026-08-28T17:56:46Z</time>
  <course>256.76</course>
  <speed>1.19</speed>
  <fix>3d</fix>
</trkpt>
<trkpt lat="40.0713746" lon="-105.22979">
  <ele>1583.12</ele>
  <time>2026-08-28T17:56:46Z</time>
  <course>258.75</course>
  <speed>0.8222530024268686</speed>
  <fix>3d</fix>
</trkpt>
<trkpt lat="40.0713754" lon="-105.2297866">
  <ele>1583.0</ele>
  <time>2026-08-28T17:56:46Z</time>
  <course>256.76</course>
  <speed>1.19</speed>
  <fix>3d</fix>
</trkpt>
<trkpt lat="40.0713745" lon="-105.229791">
  <ele>1583.12</ele>
  <time>2026-08-28T17:56:46Z</time>
  <course>259.04</course>
  <speed>0.7300684899377592</speed>
  <fix>3d</fix>
</trkpt>
<trkpt lat="40.071375" lon="-105.2297891">
  <ele>1583.0</ele>
  <time>2026-08-28T17:56:46Z</time>
  <course>257.24</course>
  <speed>1.0</speed>
  <fix>3d</fix>
</trkpt>
<trkpt lat="40.0713743" lon="-105.2297918">
  <ele>1583.12</ele>
  <time>2026-08-28T17:56:46Z</time>
  <course>259.36</course>
  <speed>0.6356099432828282</speed>
  <fix>3d</fix>
</trkpt>
<trkpt lat="40.0713746" lon="-105.2297912">
  <ele>1583.0</ele>
  <time>2026-08-28T17:56:46Z</time>
  <course>257.81</course>
  <speed>0.82</speed>
  <fix>3d</fix>
</trkpt>
<trkpt lat="40.0713742" lon="-105.2297926">
  <ele>1583.12</ele>
  <time>2026-08-28T17:56:46Z</time>
  <course>259.72</course>
  <speed>0.5531726674375732</speed>
  <fix>3d</fix>
</trkpt>
<trkpt lat="40.0713746" lon="-105.2297912">
  <ele>1583.0</ele>
  <time>2026-08-28T17:56:46Z</time>
  <course>257.81</course>
  <speed>0.82</speed>
  <fix>3d</fix>
</trkpt>
<trkpt lat="40.0713741" lon="-105.2297932">
  <ele>1583.12</ele>
  <time>2026-08-28T17:56:46Z</time>
  <course>260.11</course>
  <speed>0.4609772228646444</speed>
  <fix>3d</fix>
</trkpt>
<trkpt lat="40.0713743" lon="-105.2297929">
  <ele>1583.0</ele>
  <time>2026-08-28T17:56:46Z</time>
  <course>258.47</course>
  <speed>0.64</speed>
  <fix>3d</fix>
</trkpt>
<trkpt lat="40.0713741" lon="-105.2297937">
  <ele>1583.11</ele>
  <time>2026-08-28T17:56:46Z</time>
  <course>260.55</course>
  <speed>0.366742416417845</speed>
  <fix>3d</fix>
</trkpt>
<trkpt lat="40.0713743" lon="-105.2297929">
  <ele>1583.0</ele>
  <time>2026-08-28T17:56:46Z</time>
  <course>258.47</course>
  <speed>0.64</speed>
  <fix>3d</fix>
</trkpt>
<trkpt lat="40.071374" lon="-105.2297942">
  <ele>1583.11</ele>
  <time>2026-08-28T17:56:46Z</time>
  <course>261.03</course>
  <speed>0.2745906043549196</speed>
  <fix>3d</fix>
</trkpt>
<trkpt lat="40.0713741" lon="-105.2297942">
  <ele>1583.0</ele>
  <time>2026-08-28T17:56:46Z</time>
  <course>259.27</course>
  <speed>0.46</speed>
  <fix>3d</fix>
</trkpt>
<trkpt lat="40.071374" lon="-105.2297945">
  <ele>1583.11</ele>
  <time>2026-08-28T17:56:46Z</time>
  <course>261.5</course>
  <speed>0.19235384061671343</speed>
  <fix>3d</fix>
</trkpt>
<trkpt lat="40.0713741" lon="-105.2297942">
  <ele>1583.0</ele>
  <time>2026-08-28T17:56:46Z</time>
  <course>259.27</course>
  <speed>0.46</speed>
  <fix>3d</fix>
</trkpt>
<trkpt lat="40.071374" lon="-105.2297948">
  <ele>1583.11</ele>
  <time>2026-08-28T17:56:46Z</time>
  <course>261.97</course>
  <speed>0.1019803902718557</speed>
  <fix>3d</fix>
</trkpt>
<trkpt lat="40.071374" lon="-105.229795">
  <ele>1583.0</ele>
  <time>2026-08-28T17:56:46Z</time>
  <course>260.14</course>
  <speed>0.28</speed>
  <fix>3d</fix>
</trkpt>
<trkpt lat="40.071374" lon="-105.2297949">
  <ele>1583.11</ele>
  <time>2026-08-28T17:56:46Z</time>
  <course>262.41</course>
  <speed>0.02</speed>
  <fix>3d</fix>
</trkpt>
<trkpt lat="40.071374" lon="-105.229795">
  <ele>1583.0</ele>
  <time>2026-08-28T17:56:46Z</time>
  <course>260.14</course>
  <speed>0.28</speed>
  <fix>3d</fix>
</trkpt>
<trkpt lat="40.071374" lon="-105.2297949">
  <ele>1583.11</ele>
  <time>2026-08-28T17:56:46Z</time>
  <course>262.82</course>
  <speed>0.05</speed>
  <fix>3d</fix>
</trkpt>
<trkpt lat="40.071374" lon="-105.2297955">
  <ele>1583.0</ele>
  <time>2026-08-28T17:56:46Z</time>
  <course>260.87</course>
  <speed>0.11</speed>
  <fix>3d</fix>
</trkpt>
<trkpt lat="40.071374" lon="-105.2297949">
  <ele>1583.11</ele>
  <time>2026-08-28T17:56:46Z</time>
  <course>263.18</course>
  <speed>0.12165525060596438</speed>
  <fix>3d</fix>
</trkpt>
<trkpt lat="40.071374" lon="-105.2297955">
  <ele>1583.0</ele>
  <time>2026-08-28T17:56:46Z</time>
  <course>260.87</course>
  <speed>0.11</speed>
  <fix>3d</fix>
</trkpt>
<trkpt lat="40.071374" lon="-105.2297948">
  <ele>1583.11</ele>
  <time>2026-08-28T17:56:46Z</time>
  <course>263.5</course>
  <speed>0.1824828759089466</speed>
  <fix>3d</fix>
</trkpt>
<trkpt lat="40.071374" lon="-105.2297956">
  <ele>1583.0</ele>
  <time>2026-08-28T17:56:46Z</time>
  <course>82.65</course>
  <speed>0.03</speed>
  <fix>3d</fix>
</trkpt>
<trkpt lat="40.071374" lon="-105.2297946">
  <ele>1583.11</ele>
  <time>2026-08-28T17:56:46Z</time>
  <course>263.76</course>
  <speed>0.23194827009486402</speed>
  <fix>3d</fix>
</trkpt>
<trkpt lat="40.071374" lon="-105.2297956">
  <ele>1583.0</ele>
  <time>2026-08-28T17:56:46Z</time>
  <course>82.65</course>
  <speed>0.03</speed>
  <fix>3d</fix>
</trkpt>
<trkpt lat="40.0713741" lon="-105.2297944">
  <ele>1583.11</ele>
  <time>2026-08-28T17:56:46Z</time>
  <course>263.96</course>
  <speed>0.26305892875931813</speed>
  <fix>3d</fix>
</trkpt>
<trkpt lat="40.071374" lon="-105.2297954">
  <ele>1583.0</ele>
  <time>2026-08-28T17:56:46Z</time>
  <course>82.59</course>
  <speed>0.14</speed>
  <fix>3d</fix>
</trkpt>
<trkpt lat="40.071374" lon="-105.2297943">
  <ele>1583.11</ele>
  <time>2026-08-28T17:56:46Z</time>
  <course>264.11</course>
  <speed>0.282842712474619</speed>
  <fix>3d</fix>
</trkpt>
<trkpt lat="40.071374" lon="-105.2297954">
  <ele>1583.0</ele>
  <time>2026-08-28T17:56:46Z</time>
  <course>82.59</course>
  <speed>0.14</speed>
  <fix>3d</fix>
</trkpt>
<trkpt lat="40.0713741" lon="-105.229794">
  <ele>1583.11</ele>
  <time>2026-08-28T17:56:46Z</time>
  <course>264.19</course>
  <speed>0.28442925306655786</speed>
  <fix>3d</fix>
</trkpt>
<trkpt lat="40.071374" lon="-105.2297954">
  <ele>1583.0</ele>
  <time>2026-08-28T17:56:46Z</time>
  <course>82.59</course>
  <speed>0.14</speed>
  <fix>3d</fix>
</trkpt>
<trkpt lat="40.0713741" lon="-105.2297937">
  <ele>1583.11</ele>
  <time>2026-08-28T17:56:46Z</time>
  <course>264.21</course>
  <speed>0.28442925306655786</speed>
  <fix>3d</fix>
</trkpt>
<trkpt lat="40.071374" lon="-105.229795">
  <ele>1583.0</ele>
  <time>2026-08-28T17:56:46Z</time>
  <course>82.88</course>
  <speed>0.19</speed>
  <fix>3d</fix>
</trkpt>
<trkpt lat="40.0713742" lon="-105.2297935">
  <ele>1583.11</ele>
  <time>2026-08-28T17:56:46Z</time>
  <course>264.18</course>
  <speed>0.2745906043549196</speed>
  <fix>3d</fix>
</trkpt>
<trkpt lat="40.071374" lon="-105.229795">
  <ele>1583.0</ele>
  <time>2026-08-28T17:56:46Z</time>
  <course>82.88</course>
  <speed>0.19</speed>
  <fix>3d</fix>
</trkpt>
<trkpt lat="40.0713742" lon="-105.2297933">
  <ele>1583.11</ele>
  <time>2026-08-28T17:56:46Z</time>
  <course>264.09</course>
  <speed>0.26476404589747454</speed>
  <fix>3d</fix>
</trkpt>
<trkpt lat="40.071374" lon="-105.2297946">
  <ele>1583.0</ele>
  <time>2026-08-28T17:56:46Z</time>
  <course>82.97</course>
  <speed>0.21</speed>
  <fix>3d</fix>
</trkpt>
<trkpt lat="40.0713742" lon="-105.229793">
  <ele>1583.11</ele>
  <time>2026-08-28T17:56:46Z</time>
  <course>263.97</course>
  <speed>0.24515301344262524</speed>
  <fix>3d</fix>
</trkpt>
<trkpt lat="40.071374" lon="-105.2297946">
  <ele>1583.0</ele>
  <time>2026-08-28T17:56:46Z</time>
  <course>82.97</course>
  <speed>0.21</speed>
  <fix>3d</fix>
</trkpt>
<trkpt lat="40.0713743" lon="-105.2297929">
  <ele>1583.11</ele>
  <time>2026-08-28T17:56:46Z</time>
  <course>263.82</course>
  <speed>0.22561028345356957</speed>
  <fix>3d</fix>
</trkpt>
<trkpt lat="40.071374" lon="-105.2297941">
  <ele>1583.0</ele>
  <time>2026-08-28T17:56:46Z</time>
  <course>82.87</course>
  <speed>0.19</speed>
  <fix>3d</fix>
</trkpt>
<trkpt lat="40.0713743" lon="-105.2297927">
  <ele>1583.11</ele>
  <time>2026-08-28T17:56:46Z</time>
  <course>263.79</course>
  <speed>0.215870331449229</speed>
  <fix>3d</fix>
</trkpt>
<trkpt lat="40.071374" lon="-105.2297941">
  <ele>1583.0</ele>
  <time>2026-08-28T17:56:46Z</time>
  <course>82.87</course>
  <speed>0.19</speed>
  <fix>3d</fix>
</trkpt>
<trkpt lat="40.0713743" lon="-105.2297925">
  <ele>1583.11</ele>
  <time>2026-08-28T17:56:46Z</time>
  <course>263.79</course>
  <speed>0.196468827043885</speed>
  <fix>3d</fix>
</trkpt>
<trkpt lat="40.071374" lon="-105.2297936">
  <ele>1583.0</ele>
  <time>2026-08-28T17:56:46Z</time>
  <course>82.67</course>
  <speed>0.16</speed>
  <fix>3d</fix>
</trkpt>
<trkpt lat="40.0713743" lon="-105.2297924">
  <ele>1583.11</ele>
  <time>2026-08-28T17:56:46Z</time>
  <course>263.79</course>
  <speed>0.18681541692269404</speed>
  <fix>3d</fix>
</trkpt>
<trkpt lat="40.0713741" lon="-105.2297933">
  <ele>1583.0</ele>
  <time>2026-08-28T17:56:46Z</time>
  <course>82.57</course>
  <speed>0.14</speed>
  <fix>3d</fix>
</trkpt>
<trkpt lat="40.0713744" lon="-105.2297923">
  <ele>1583.12</ele>
  <time>2026-08-28T17:56:46Z</time>
  <course>263.8</course>
  <speed>0.1772004514666935</speed>
  <fix>3d</fix>
</trkpt>
<trkpt lat="40.0713741" lon="-105.2297933">
  <ele>1583.0</ele>
  <time>2026-08-28T17:56:46Z</time>
  <course>82.57</course>
  <speed>0.14</speed>
  <fix>3d</fix>
</trkpt>
<trkpt lat="40.0713744" lon="-105.2297921">
  <ele>1583.12</ele>
  <time>2026-08-28T17:56:46Z</time>
  <course>263.8</course>
  <speed>0.1708800749063506</speed>
  <fix>3d</fix>
</trkpt>
<trkpt lat="40.0713741" lon="-105.229793">
  <ele>1583.0</ele>
  <time>2026-08-28T17:56:46Z</time>
  <course>82.57</course>
  <speed>0.13</speed>
  <fix>3d</fix>
</trkpt>
<trkpt lat="40.0713744" lon="-105.229792">
  <ele>1583.12</ele>
  <time>2026-08-28T17:56:46Z</time>
  <course>263.8</course>
  <speed>0.1615549442140351</speed>
  <fix>3d</fix>
</trkpt>
<trkpt lat="40.0713741" lon="-105.229793">
  <ele>1583.0</ele>
  <time>2026-08-28T17:56:46Z</time>
  <course>82.57</course>
  <speed>0.13</speed>
  <fix>3d</fix>
</trkpt>
<trkpt lat="40.0713744" lon="-105.2297919">
  <ele>1583.12</ele>
  <time>2026-08-28T17:56:46Z</time>
  <course>263.8</course>
  <speed>0.1615549442140351</speed>
  <fix>3d</fix>
</trkpt>
<trkpt lat="40.0713741" lon="-105.2297927">
  <ele>1583.0</ele>
  <time>2026-08-28T17:56:46Z</time>
  <course>82.57</course>
  <speed>0.11</speed>
  <fix>3d</fix>
</trkpt>
<trkpt lat="40.0713744" lon="-105.2297918">
  <ele>1583.12</ele>
  <time>2026-08-28T17:56:46Z</time>
  <course>263.8</course>
  <speed>0.15231546211727817</speed>
  <fix>3d</fix>
</trkpt>
<trkpt lat="40.0713741" lon="-105.2297927">
  <ele>1583.0</ele>
  <time>2026-08-28T17:56:46Z</time>
  <course>82.57</course>
  <speed>0.11</speed>
  <fix>3d</fix>
</trkpt>
<trkpt lat="40.0713745" lon="-105.2297917">
  <ele>1583.11</ele>
  <time>2026-08-28T17:56:46Z</time>
  <course>263.8</course>
  <speed>0.14317821063276354</speed>
  <fix>3d</fix>
</trkpt>
<trkpt lat="40.0713742" lon="-105.2297924">
  <ele>1583.0</ele>
  <time>2026-08-28T17:56:46Z</time>
  <course>82.57</course>
  <speed>0.1</speed>
  <fix>3d</fix>
</trkpt>
<trkpt lat="40.0713745" lon="-105.2297917">
  <ele>1583.1</ele>
  <time>2026-08-28T17:56:46Z</time>
  <course>263.8</course>
  <speed>0.1341640786499874</speed>
  <fix>3d</fix>
</trkpt>
<trkpt lat="40.0713742" lon="-105.2297924">
  <ele>1583.0</ele>
  <time>2026-08-28T17:56:46Z</time>
  <course>82.57</course>
  <speed>0.1</speed>
  <fix>3d</fix>
</trkpt>
<trkpt lat="40.0713745" lon="-105.2297916">
  <ele>1583.09</ele>
  <time>2026-08-28T17:56:46Z</time>
  <course>263.8</course>
  <speed>0.12529964086141668</speed>
  <fix>3d</fix>
</trkpt>
<trkpt lat="40.0713742" lon="-105.2297921">
  <ele>1583.0</ele>
  <time>2026-08-28T17:56:46Z</time>
  <course>82.57</course>
  <speed>0.09</speed>
  <fix>3d</fix>
</trkpt>
<trkpt lat="40.0713745" lon="-105.2297915">
  <ele>1583.08</ele>
  <time>2026-08-28T17:56:46Z</time>
  <course>263.8</course>
  <speed>0.12529964086141668</speed>
  <fix>3d</fix>
</trkpt>
<trkpt lat="40.0713742" lon="-105.2297921">
  <ele>1583.0</ele>
  <time>2026-08-28T17:56:46Z</time>
  <course>82.57</course>
  <speed>0.09</speed>
  <fix>3d</fix>
</trkpt>
<trkpt lat="40.0713745" lon="-105.2297914">
  <ele>1583.06</ele>
  <time>2026-08-28T17:56:46Z</time>
  <course>263.8</course>
  <speed>0.11661903789690602</speed>
  <fix>3d</fix>
</trkpt>
<trkpt lat="40.0713742" lon="-105.229792">
  <ele>1583.0</ele>
  <time>2026-08-28T17:56:46Z</time>
  <course>82.58</course>
  <speed>0.08</speed>
  <fix>3d</fix>
</trkpt>
<trkpt lat="40.0713745" lon="-105.2297914">
  <ele>1583.05</ele>
  <time>2026-08-28T17:56:46Z</time>
  <course>263.79</course>
  <speed>0.10816653826391968</speed>
  <fix>3d</fix>
</trkpt>
<trkpt lat="40.0713742" lon="-105.229792">
  <ele>1583.0</ele>
  <time>2026-08-28T17:56:46Z</time>
  <course>82.58</course>
  <speed>0.08</speed>
  <fix>3d</fix>
</trkpt>
<trkpt lat="40.0713746" lon="-105.2297913">
  <ele>1583.05</ele>
  <time>2026-08-28T17:56:46Z</time>
  <course>263.79</course>
  <speed>0.10816653826391968</speed>
  <fix>3d</fix>
</trkpt>
<trkpt lat="40.0713742" lon="-105.2297917">
  <ele>1583.0</ele>
  <time>2026-08-28T17:56:46Z</time>
  <course>82.58</course>
  <speed>0.07</speed>
  <fix>3d</fix>
</trkpt>
<trkpt lat="40.0713746" lon="-105.2297912">
  <ele>1583.04</ele>
  <time>2026-08-28T17:56:46Z</time>
  <course>263.79</course>
  <speed>0.09433981132056603</speed>
  <fix>3d</fix>
</trkpt>
<trkpt lat="40.0713742" lon="-105.2297917">
  <ele>1583.0</ele>
  <time>2026-08-28T17:56:46Z</time>
  <course>82.58</course>
  <speed>0.07</speed>
  <fix>3d</fix>
</trkpt>
<trkpt lat="40.0713746" lon="-105.2297912">
  <ele>1583.04</ele>
  <time>2026-08-28T17:56:46Z</time>
  <course>263.79</course>
  <speed>0.09433981132056603</speed>
  <fix>3d</fix>
</trkpt>
<trkpt lat="40.0713742" lon="-105.2297917">
  <ele>1583.0</ele>
  <time>2026-08-28T17:56:46Z</time>
  <course>82.58</course>
  <speed>0.07</speed>
  <fix>3d</fix>
</trkpt>
<trkpt lat="40.0713746" lon="-105.2297911">
  <ele>1583.03</ele>
  <time>2026-08-28T17:56:46Z</time>
  <course>263.78</course>
  <speed>0.08602325267042626</speed>
  <fix>3d</fix>
</trkpt>
<trkpt lat="40.0713742" lon="-105.2297916">
  <ele>1583.0</ele>
  <time>2026-08-28T17:56:46Z</time>
  <course>82.58</course>
  <speed>0.07</speed>
  <fix>3d</fix>
</trkpt>
<trkpt lat="40.0713746" lon="-105.2297911">
  <ele>1583.02</ele>
  <time>2026-08-28T17:56:46Z</time>
  <course>263.78</course>
  <speed>0.08602325267042626</speed>
  <fix>3d</fix>
</trkpt>
<trkpt lat="40.0713742" lon="-105.2297916">
  <ele>1583.0</ele>
  <time>2026-08-28T17:56:46Z</time>
  <course>82.58</course>
  <speed>0.07</speed>
  <fix>3d</fix>
</trkpt>
<trkpt lat="40.0713746" lon="-105.229791">
  <ele>1583.01</ele>
  <time>2026-08-28T17:56:46Z</time>
  <course>263.77</course>
  <speed>0.07810249675906654</speed>
  <fix>3d</fix>
</trkpt>
<trkpt lat="40.0713742" lon="-105.2297915">
  <ele>1583.0</ele>
  <time>2026-08-28T17:56:46Z</time>
  <course>82.58</course>
  <speed>0.06</speed>
  <fix>3d</fix>
</trkpt>
<trkpt lat="40.0713746" lon="-105.229791">
  <ele>1583.0</ele>
  <time>2026-08-28T17:56:46Z</time>
  <course>263.77</course>
  <speed>0.07810249675906654</speed>
  <fix>3d</fix>
</trkpt>
<trkpt lat="40.0713742" lon="-105.2297915">
  <ele>1583.0</ele>
  <time>2026-08-28T17:56:46Z</time>
  <course>82.58</course>
  <speed>0.06</speed>
  <fix>3d</fix>
</trkpt>
<trkpt lat="40.0713746" lon="-105.2297909">
  <ele>1582.99</ele>
  <time>2026-08-28T17:56:46Z</time>
  <course>263.77</course>
  <speed>0.07071067811865475</speed>
  <fix>3d</fix>
</trkpt>
<trkpt lat="40.0713742" lon="-105.2297913">
  <ele>1583.0</ele>
  <time>2026-08-28T17:56:46Z</time>
  <course>82.58</course>
  <speed>0.05</speed>
  <fix>3d</fix>
</trkpt>
<trkpt lat="40.0713746" lon="-105.2297909">
  <ele>1582.98</ele>
  <time>2026-08-28T17:56:46Z</time>
  <course>263.76</course>
  <speed>0.07071067811865475</speed>
  <fix>3d</fix>
</trkpt>
<trkpt lat="39.6561777" lon="-104.1394186">
  <ele>1566.59</ele>
  <time>2026-08-28T17:56:46Z</time>
  <course>66.0</course>
  <speed>0.71</speed>
  <fix>3d</fix>
</trkpt>
<trkpt lat="40.0713821" lon="-105.2297679">
  <ele>1583.0</ele>
  <time>2026-08-28T17:56:46Z</time>
  <course>66.0</course>
  <speed>0.72</speed>
  <fix>3d</fix>
</trkpt>
<trkpt lat="40.0713821" lon="-105.2297679">
  <ele>1583.0</ele>
  <time>2026-08-28T17:56:46Z</time>
  <course>236.31</course>
  <speed>0.09433981132056603</speed>
  <fix>3d</fix>
</trkpt>
<trkpt lat="40.0713821" lon="-105.2297679">
  <ele>1583.0</ele>
  <time>2026-08-28T17:56:46Z</time>
  <course>66.0</course>
  <speed>0.72</speed>
  <fix>3d</fix>
</trkpt>
<trkpt lat="40.0713821" lon="-105.2297679">
  <ele>1583.0</ele>
  <time>2026-08-28T17:56:46Z</time>
  <course>236.4</course>
  <speed>0.09433981132056603</speed>
  <fix>3d</fix>
</trkpt>
<trkpt lat="40.0713821" lon="-105.2297679">
  <ele>1583.0</ele>
  <time>2026-08-28T17:56:46Z</time>
  <course>66.0</course>
  <speed>0.72</speed>
  <fix>3d</fix>
</trkpt>
<trkpt lat="40.0713826" lon="-105.2297663">
  <ele>1583.0</ele>
  <time>2026-08-28T17:56:46Z</time>
  <course>236.61</course>
  <speed>0.09433981132056603</speed>
  <fix>3d</fix>
</trkpt>
<trkpt lat="40.0713826" lon="-105.2297663">
  <ele>1583.0</ele>
  <time>2026-08-28T17:56:46Z</time>
  <course>66.0</course>
  <speed>0.73</speed>
  <fix>3d</fix>
</trkpt>
<trkpt lat="40.0713826" lon="-105.2297663">
  <ele>1583.0</ele>
  <time>2026-08-28T17:56:46Z</time>
  <course>236.91</course>
  <speed>0.1</speed>
  <fix>3d</fix>
</trkpt>
<trkpt lat="40.0713826" lon="-105.2297663">
  <ele>1583.0</ele>
  <time>2026-08-28T17:56:46Z</time>
  <course>66.0</course>
  <speed>0.73</speed>
  <fix>3d</fix>
</trkpt>
<trkpt lat="40.0713832" lon="-105.2297648">
  <ele>1583.0</ele>
  <time>2026-08-28T17:56:46Z</time>
  <course>237.26</course>
  <speed>0.1</speed>
  <fix>3d</fix>
</trkpt>
<trkpt lat="40.0713832" lon="-105.2297648">
  <ele>1583.0</ele>
  <time>2026-08-28T17:56:46Z</time>
  <course>66.0</course>
  <speed>0.74</speed>
  <fix>3d</fix>
</trkpt>
<trkpt lat="40.0713832" lon="-105.2297648">
  <ele>1583.0</ele>
  <time>2026-08-28T17:56:46Z</time>
  <course>237.63</course>
  <speed>0.10816653826391968</speed>
  <fix>3d</fix>
</trkpt>
<trkpt lat="40.0713832" lon="-105.2297648">
  <ele>1583.0</ele>
  <time>2026-08-28T17:56:46Z</time>
  <course>66.0</course>
  <speed>0.74</speed>
  <fix>3d</fix>
</trkpt>
<trkpt lat="40.0713837" lon="-105.2297631">
  <ele>1583.0</ele>
  <time>2026-08-28T17:56:46Z</time>
  <course>238.0</course>
  <speed>0.10816653826391968</speed>
  <fix>3d</fix>
</trkpt>
<trkpt lat="40.0713837" lon="-105.2297631">
  <ele>1583.0</ele>
  <time>2026-08-28T17:56:46Z</time>
  <course>66.0</course>
  <speed>0.75</speed>
  <fix>3d</fix>
</trkpt>
<trkpt lat="40.0713837" lon="-105.2297631">
  <ele>1583.0</ele>
  <time>2026-08-28T17:56:46Z</time>
  <course>238.36</course>
  <speed>0.10816653826391968</speed>
  <fix>3d</fix>
</trkpt>
<trkpt lat="40.0713837" lon="-105.2297631">
  <ele>1583.0</ele>
  <time>2026-08-28T17:56:46Z</time>
  <course>66.0</course>
  <speed>0.75</speed>
  <fix>3d</fix>
</trkpt>
<trkpt lat="40.0713842" lon="-105.2297615">
  <ele>1583.0</ele>
  <time>2026-08-28T17:56:46Z</time>
  <course>238.7</course>
  <speed>0.1</speed>
  <fix>3d</fix>
</trkpt>
<trkpt lat="40.0713842" lon="-105.2297615">
  <ele>1583.0</ele>
  <time>2026-08-28T17:56:46Z</time>
  <course>66.0</course>
  <speed>0.76</speed>
  <fix>3d</fix>
</trkpt>
<trkpt lat="40.0713842" lon="-105.2297615">
  <ele>1583.0</ele>
  <time>2026-08-28T17:56:46Z</time>
  <course>239.04</course>
  <speed>0.1</speed>
  <fix>3d</fix>
</trkpt>
<trkpt lat="40.0713849" lon="-105.2297599">
  <ele>1583.0</ele>
  <time>2026-08-28T17:56:46Z</time>
  <course>66.0</course>
  <speed>0.76</speed>
  <fix>3d</fix>
</trkpt>
<trkpt lat="40.0713849" lon="-105.2297599">
  <ele>1583.0</ele>
  <time>2026-08-28T17:56:46Z</time>
  <course>239.36</course>
  <speed>0.1</speed>
  <fix>3d</fix>
</trkpt>
<trkpt lat="40.0713849" lon="-105.2297599">
  <ele>1583.0</ele>
  <time>2026-08-28T17:56:46Z</time>
  <course>66.0</course>
  <speed>0.76</speed>
  <fix>3d</fix>
</trkpt>
<trkpt lat="40.0713849" lon="-105.2297599">
  <ele>1583.0</ele>
  <time>2026-08-28T17:56:46Z</time>
  <course>239.68</course>
  <speed>0.1</speed>
  <fix>3d</fix>
</trkpt>
<trkpt lat="40.0713854" lon="-105.2297582">
  <ele>1583.0</ele>
  <time>2026-08-28T17:56:46Z</time>
  <course>66.0</course>
  <speed>0.77</speed>
  <fix>3d</fix>
</trkpt>
<trkpt lat="40.0713854" lon="-105.2297582">
  <ele>1583.0</ele>
  <time>2026-08-28T17:56:46Z</time>
  <course>240.0</course>
  <speed>0.08602325267042626</speed>
  <fix>3d</fix>
</trkpt>
<trkpt lat="40.0713854" lon="-105.2297582">
  <ele>1583.0</ele>
  <time>2026-08-28T17:56:46Z</time>
  <course>66.0</course>
  <speed>0.77</speed>
  <fix>3d</fix>
</trkpt>
<trkpt lat="40.0713854" lon="-105.2297582">
  <ele>1583.0</ele>
  <time>2026-08-28T17:56:46Z</time>
  <course>240.31</course>
  <speed>0.08602325267042626</speed>
  <fix>3d</fix>
</trkpt>
<trkpt lat="40.071386" lon="-105.2297566">
  <ele>1583.0</ele>
  <time>2026-08-28T17:56:46Z</time>
  <course>66.0</course>
  <speed>0.77</speed>
  <fix>3d</fix>
</trkpt>
<trkpt lat="40.071386" lon="-105.2297566">
  <ele>1583.0</ele>
  <time>2026-08-28T17:56:46Z</time>
  <course>240.61</course>
  <speed>0.07810249675906654</speed>
  <fix>3d</fix>
</trkpt>
<trkpt lat="40.071386" lon="-105.2297566">
  <ele>1583.0</ele>
  <time>2026-08-28T17:56:46Z</time>
  <course>66.0</course>
  <speed>0.77</speed>
  <fix>3d</fix>
</trkpt>
<trkpt lat="40.071386" lon="-105.2297566">
  <ele>1583.0</ele>
  <time>2026-08-28T17:56:46Z</time>
  <course>240.91</course>
  <speed>0.06403124237432849</speed>
  <fix>3d</fix>
</trkpt>
<trkpt lat="40.0713865" lon="-105.2297549">
  <ele>1583.0</ele>
  <time>2026-08-28T17:56:46Z</time>
  <course>66.0</course>
  <speed>0.77</speed>
  <fix>3d</fix>
</trkpt>
<trkpt lat="40.0713865" lon="-105.2297549">
  <ele>1583.0</ele>
  <time>2026-08-28T17:56:46Z</time>
  <course>241.21</course>
  <speed>0.06403124237432849</speed>
  <fix>3d</fix>
</trkpt>
<trkpt lat="40.0713865" lon="-105.2297549">
  <ele>1583.0</ele>
  <time>2026-08-28T17:56:46Z</time>
  <course>66.0</course>
  <speed>0.77</speed>
  <fix>3d</fix>
</trkpt>
<trkpt lat="40.0713865" lon="-105.2297549">
  <ele>1583.0</ele>
  <time>2026-08-28T17:56:46Z</time>
  <course>241.5</course>
  <speed>0.0565685424949238</speed>
  <fix>3d</fix>
</trkpt>
<trkpt lat="40.0713871" lon="-105.2297532">
  <ele>1583.0</ele>
  <time>2026-08-28T17:56:46Z</time>
  <course>66.0</course>
  <speed>0.78</speed>
  <fix>3d</fix>
</trkpt>
<trkpt lat="40.0713871" lon="-105.2297532">
  <ele>1583.0</ele>
  <time>2026-08-28T17:56:46Z</time>
  <course>241.79</course>
  <speed>0.05</speed>
  <fix>3d</fix>
</trkpt>
<trkpt lat="40.0713871" lon="-105.2297532">
  <ele>1583.0</ele>
  <time>2026-08-28T17:56:46Z</time>
  <course>66.0</course>
  <speed>0.78</speed>
  <fix>3d</fix>
</trkpt>
<trkpt lat="40.0713871" lon="-105.2297532">
  <ele>1583.0</ele>
  <time>2026-08-28T17:56:46Z</time>
  <course>242.06</course>
  <speed>0.04242640687119285</speed>
  <fix>3d</fix>
</trkpt>
<trkpt lat="40.0713877" lon="-105.2297515">
  <ele>1583.0</ele>
  <time>2026-08-28T17:56:46Z</time>
  <course>66.0</course>
  <speed>0.78</speed>
  <fix>3d</fix>
</trkpt>
<trkpt lat="40.0713877" lon="-105.2297515">
  <ele>1583.0</ele>
  <time>2026-08-28T17:56:46Z</time>
  <course>242.34</course>
  <speed>0.03605551275463989</speed>
  <fix>3d</fix>
</trkpt>
<trkpt lat="40.0713877" lon="-105.2297515">
  <ele>1583.0</ele>
  <time>2026-08-28T17:56:46Z</time>
  <course>66.0</course>
  <speed>0.78</speed>
  <fix>3d</fix>
</trkpt>
<trkpt lat="40.0713877" lon="-105.2297515">
  <ele>1583.0</ele>
  <time>2026-08-28T17:56:46Z</time>
  <course>242.6</course>
  <speed>0.0282842712474619</speed>
  <fix>3d</fix>
</trkpt>
<trkpt lat="40.0713882" lon="-105.2297499">
  <ele>1583.0</ele>
  <time>2026-08-28T17:56:46Z</time>
  <course>66.0</course>
  <speed>0.78</speed>
  <fix>3d</fix>
</trkpt>
<trkpt lat="40.0713882" lon="-105.2297499">
  <ele>1583.0</ele>
  <time>2026-08-28T17:56:46Z</time>
  <course>242.86</course>
  <speed>0.022360679774997897</speed>
  <fix>3d</fix>
</trkpt>
<trkpt lat="40.0713882" lon="-105.2297499">
  <ele>1583.0</ele>
  <time>2026-08-28T17:56:46Z</time>
  <course>66.0</course>
  <speed>0.78</speed>
  <fix>3d</fix>
</trkpt>
<trkpt lat="40.0713882" lon="-105.2297499">
  <ele>1583.0</ele>
  <time>2026-08-28T17:56:46Z</time>
  <course>243.12</course>
  <speed>0.02</speed>
  <fix>3d</fix>
</trkpt>
<trkpt lat="40.0713882" lon="-105.2297499">
  <ele>1583.0</ele>
  <time>2026-08-28T17:56:46Z</time>
  <course>66.0</course>
  <speed>0.78</speed>
  <fix>3d</fix>
</trkpt>
<trkpt lat="40.0713889" lon="-105.2297482">
  <ele>1583.0</ele>
  <time>2026-08-28T17:56:46Z</time>
  <course>243.37</course>
  <speed>0.01</speed>
  <fix>3d</fix>
</trkpt>
<trkpt lat="40.0713889" lon="-105.2297482">
  <ele>1583.0</ele>
  <time>2026-08-28T17:56:46Z</time>
  <course>66.0</course>
  <speed>0.79</speed>
  <fix>3d</fix>
</trkpt>
<trkpt lat="40.0713889" lon="-105.2297482">
  <ele>1583.0</ele>
  <time>2026-08-28T17:56:46Z</time>
  <course>243.61</course>
  <speed>0.01</speed>
  <fix>3d</fix>
</trkpt>
<trkpt lat="40.0713889" lon="-105.2297482">
  <ele>1583.0</ele>
  <time>2026-08-28T17:56:46Z</time>
  <course>66.0</course>
  <speed>0.79</speed>
  <fix>3d</fix>
</trkpt>
<trkpt lat="40.0713894" lon="-105.2297465">
  <ele>1583.0</ele>
  <time>2026-08-28T17:56:46Z</time>
  <course>243.85</course>
  <speed>0.01</speed>
  <fix>3d</fix>
</trkpt>
<trkpt lat="40.0713894" lon="-105.2297465">
  <ele>1583.0</ele>
  <time>2026-08-28T17:56:46Z</time>
  <course>66.0</course>
  <speed>0.79</speed>
  <fix>3d</fix>
</trkpt>
<trkpt lat="40.0713894" lon="-105.2297465">
  <ele>1583.0</ele>
  <time>2026-08-28T17:56:46Z</time>
  <course>244.08</course>
  <speed>0.01</speed>
  <fix>3d</fix>
</trkpt>
<trkpt lat="40.0713894" lon="-105.2297465">
  <ele>1583.0</ele>
  <time>2026-08-28T17:56:46Z</time>
  <course>66.0</course>
  <speed>0.79</speed>
  <fix>3d</fix>
</trkpt>
<trkpt lat="40.0713899" lon="-105.2297448">
  <ele>1583.0</ele>
  <time>2026-08-28T17:56:46Z</time>
  <course>244.3</course>
  <speed>0.01</speed>
  <fix>3d</fix>
</trkpt>
<trkpt lat="40.0713899" lon="-105.2297448">
  <ele>1583.0</ele>
  <time>2026-08-28T17:56:46Z</time>
  <course>66.0</course>
  <speed>0.79</speed>
  <fix>3d</fix>
</trkpt>
<trkpt lat="40.0713899" lon="-105.2297448">
  <ele>1583.0</ele>
  <time>2026-08-28T17:56:46Z</time>
  <course>244.52</course>
  <speed>0.02</speed>
  <fix>3d</fix>
</trkpt>
<trkpt lat="40.0713906" lon="-105.2297431">
  <ele>1583.0</ele>
  <time>2026-08-28T17:56:46Z</time>
  <course>66.0</course>
  <speed>0.79</speed>
  <fix>3d</fix>
</trkpt>
<trkpt lat="40.0713906" lon="-105.2297431">
  <ele>1583.0</ele>
  <time>2026-08-28T17:56:46Z</time>
  <course>244.73</course>
  <speed>0.03</speed>
  <fix>3d</fix>
</trkpt>
<trkpt lat="40.0713906" lon="-105.2297431">
  <ele>1583.0</ele>
  <time>2026-08-28T17:56:46Z</time>
  <course>66.0</course>
  <speed>0.79</speed>
  <fix>3d</fix>
</trkpt>
<trkpt lat="40.0713906" lon="-105.2297431">
  <ele>1583.0</ele>
  <time>2026-08-28T17:56:46Z</time>
  <course>244.94</course>
  <speed>0.03</speed>
  <fix>3d</fix>
</trkpt>
<trkpt lat="40.0713911" lon="-105.2297414">
  <ele>1583.0</ele>
  <time>2026-08-28T17:56:46Z</time>
  <course>66.0</course>
  <speed>0.79</speed>
  <fix>3d</fix>
</trkpt>
<trkpt lat="40.0713911" lon="-105.2297414">
  <ele>1583.0</ele>
  <time>2026-08-28T17:56:46Z</time>
  <course>245.14</course>
  <speed>0.04</speed>
  <fix>3d</fix>
</trkpt>
<trkpt lat="40.0713911" lon="-105.2297414">
  <ele>1583.0</ele>
  <time>2026-08-28T17:56:46Z</time>
  <course>66.0</course>
  <speed>0.79</speed>
  <fix>3d</fix>
</trkpt>
<trkpt lat="40.0713911" lon="-105.2297414">
  <ele>1583.0</ele>
  <time>2026-08-28T17:56:46Z</time>
  <course>245.34</course>
  <speed>0.0412310562561766</speed>
  <fix>3d</fix>
</trkpt>
<trkpt lat="40.0713918" lon="-105.2297396">
  <ele>1583.0</ele>
  <time>2026-08-28T17:56:46Z</time>
  <course>66.0</course>
  <speed>0.79</speed>
  <fix>3d</fix>
</trkpt>
<trkpt lat="40.0713918" lon="-105.2297396">
  <ele>1583.0</ele>
  <time>2026-08-28T17:56:46Z</time>
  <course>245.52</course>
  <speed>0.05099019513592785</speed>
  <fix>3d</fix>
</trkpt>
<trkpt lat="40.0713918" lon="-105.2297396">
  <ele>1583.0</ele>
  <time>2026-08-28T17:56:46Z</time>
  <course>66.0</course>
  <speed>0.79</speed>
  <fix>3d</fix>
</trkpt>
<trkpt lat="40.0713918" lon="-105.2297396">
  <ele>1583.0</ele>
  <time>2026-08-28T17:56:47Z</time>
  <course>245.71</course>
  <speed>0.05099019513592785</speed>
  <fix>3d</fix>
</trkpt>
<trkpt lat="40.0713923" lon="-105.2297379">
  <ele>1583.0</ele>
  <time>2026-08-28T17:56:47Z</time>
  <course>66.0</course>
  <speed>0.79</speed>
  <fix>3d</fix>
</trkpt>
<trkpt lat="40.0713923" lon="-105.2297379">
  <ele>1583.0</ele>
  <time>2026-08-28T17:56:47Z</time>
  <course>245.88</course>
  <speed>0.05099019513592785</speed>
  <fix>3d</fix>
</trkpt>
<trkpt lat="40.0713923" lon="-105.2297379">
  <ele>1583.0</ele>
  <time>2026-08-28T17:56:47Z</time>
  <course>66.0</course>
  <speed>0.79</speed>
  <fix>3d</fix>
</trkpt>
<trkpt lat="40.0713923" lon="-105.2297379">
  <ele>1583.0</ele>
  <time>2026-08-28T17:56:47Z</time>
  <course>246.06</course>
  <speed>0.0632455532033676</speed>
  <fix>3d</fix>
</trkpt>
<trkpt lat="40.0713928" lon="-105.2297362">
  <ele>1583.0</ele>
  <time>2026-08-28T17:56:47Z</time>
  <course>66.0</course>
  <speed>0.79</speed>
  <fix>3d</fix>
</trkpt>
<trkpt lat="40.0713928" lon="-105.2297362">
  <ele>1583.0</ele>
  <time>2026-08-28T17:56:47Z</time>
  <course>246.22</course>
  <speed>0.0632455532033676</speed>
  <fix>3d</fix>
</trkpt>
<trkpt lat="40.0713928" lon="-105.2297362">
  <ele>1583.0</ele>
  <time>2026-08-28T17:56:47Z</time>
  <course>66.0</course>
  <speed>0.79</speed>
  <fix>3d</fix>
</trkpt>
<trkpt lat="40.0713928" lon="-105.2297362">
  <ele>1583.0</ele>
  <time>2026-08-28T17:56:47Z</time>
  <course>246.38</course>
  <speed>0.07280109889280519</speed>
  <fix>3d</fix>
</trkpt>
<trkpt lat="40.0713935" lon="-105.2297345">
  <ele>1583.0</ele>
  <time>2026-08-28T17:56:47Z</time>
  <course>66.0</course>
  <speed>0.79</speed>
  <fix>3d</fix>
</trkpt>
<trkpt lat="40.0713935" lon="-105.2297345">
  <ele>1583.0</ele>
  <time>2026-08-28T17:56:47Z</time>
  <course>246.54</course>
  <speed>0.07280109889280519</speed>
  <fix>3d</fix>
</trkpt>
<trkpt lat="40.0713935" lon="-105.2297345">
  <ele>1583.0</ele>
  <time>2026-08-28T17:56:47Z</time>
  <course>66.0</course>
  <speed>0.79</speed>
  <fix>3d</fix>
</trkpt>
<trkpt lat="40.0713935" lon="-105.2297345">
  <ele>1583.0</ele>
  <time>2026-08-28T17:56:47Z</time>
  <course>246.69</course>
  <speed>0.07615773105863909</speed>
  <fix>3d</fix>
</trkpt>
<trkpt lat="40.071394" lon="-105.2297328">
  <ele>1583.0</ele>
  <time>2026-08-28T17:56:47Z</time>
  <course>66.0</course>
  <speed>0.79</speed>
  <fix>3d</fix>
</trkpt>
<trkpt lat="40.071394" lon="-105.2297328">
  <ele>1583.0</ele>
  <time>2026-08-28T17:56:47Z</time>
  <course>246.83</course>
  <speed>0.0854400374531753</speed>
  <fix>3d</fix>
</trkpt>
<trkpt lat="40.071394" lon="-105.2297328">
  <ele>1583.0</ele>
  <time>2026-08-28T17:56:47Z</time>
  <course>66.0</course>
  <speed>0.79</speed>
  <fix>3d</fix>
</trkpt>
<trkpt lat="40.071394" lon="-105.2297328">
  <ele>1583.0</ele>
  <time>2026-08-28T17:56:47Z</time>
  <course>246.97</course>
  <speed>0.0854400374531753</speed>
  <fix>3d</fix>
</trkpt>
<trkpt lat="40.071394" lon="-105.2297328">
  <ele>1583.0</ele>
  <time>2026-08-28T17:56:47Z</time>
  <course>66.0</course>
  <speed>0.79</speed>
  <fix>3d</fix>
</trkpt>
<trkpt lat="40.0713947" lon="-105.2297311">
  <ele>1583.0</ele>
  <time>2026-08-28T17:56:47Z</time>
  <course>247.11</course>
  <speed>0.09486832980505139</speed>
  <fix>3d</fix>
</trkpt>
<trkpt lat="40.0713947" lon="-105.2297311">
  <ele>1583.0</ele>
  <time>2026-08-28T17:56:47Z</time>
  <course>66.0</course>
  <speed>0.79</speed>
  <fix>3d</fix>
</trkpt>
<trkpt lat="40.0713947" lon="-105.2297311">
  <ele>1583.0</ele>
  <time>2026-08-28T17:56:47Z</time>
  <course>247.24</course>
  <speed>0.09486832980505139</speed>
  <fix>3d</fix>
</trkpt>
<trkpt lat="40.0713947" lon="-105.2297311">
  <ele>1583.0</ele>
  <time>2026-08-28T17:56:47Z</time>
  <course>66.0</course>
  <speed>0.79</speed>
  <fix>3d</fix>
</trkpt>
<trkpt lat="40.0713952" lon="-105.2297294">
  <ele>1583.0</ele>
  <time>2026-08-28T17:56:47Z</time>
  <course>247.37</course>
  <speed>0.09848857801796104</speed>
  <fix>3d</fix>
</trkpt>
<trkpt lat="40.0713952" lon="-105.2297294">
  <ele>1583.0</ele>
  <time>2026-08-28T17:56:47Z</time>
  <course>66.0</course>
  <speed>0.79</speed>
  <fix>3d</fix>
</trkpt>
<trkpt lat="40.0713952" lon="-105.2297294">
  <ele>1583.0</ele>
  <time>2026-08-28T17:56:47Z</time>
  <course>247.49</course>
  <speed>0.10770329614269007</speed>
  <fix>3d</fix>
</trkpt>
<trkpt lat="40.0713952" lon="-105.2297294">
  <ele>1583.0</ele>
  <time>2026-08-28T17:56:47Z</time>
  <course>66.0</course>
  <speed>0.79</speed>
  <fix>3d</fix>
</trkpt>
<trkpt lat="40.0713958" lon="-105.2297277">
  <ele>1583.0</ele>
  <time>2026-08-28T17:56:47Z</time>
  <course>247.6</course>
  <speed>0.10770329614269007</speed>
  <fix>3d</fix>
</trkpt>
<trkpt lat="40.0713958" lon="-105.2297277">
  <ele>1583.0</ele>
  <time>2026-08-28T17:56:47Z</time>
  <course>66.0</course>
  <speed>0.8</speed>
  <fix>3d</fix>
</trkpt>
<trkpt lat="40.0713958" lon="-105.2297277">
  <ele>1583.0</ele>
  <time>2026-08-28T17:56:47Z</time>
  <course>247.72</course>
  <speed>0.10770329614269007</speed>
  <fix>3d</fix>
</trkpt>
<trkpt lat="40.0713958" lon="-105.2297277">
  <ele>1583.0</ele>
  <time>2026-08-28T17:56:47Z</time>
  <course>66.0</course>
  <speed>0.8</speed>
  <fix>3d</fix>
</trkpt>
<trkpt lat="40.0713964" lon="-105.2297259">
  <ele>1583.0</ele>
  <time>2026-08-28T17:56:47Z</time>
  <course>247.83</course>
  <speed>0.10770329614269007</speed>
  <fix>3d</fix>
</trkpt>
<trkpt lat="40.0713964" lon="-105.2297259">
  <ele>1583.0</ele>
  <time>2026-08-28T17:56:47Z</time>
  <course>66.0</course>
  <speed>0.8</speed>
  <fix>3d</fix>
</trkpt>
<trkpt lat="40.0713964" lon="-105.2297259">
  <ele>1583.0</ele>
  <time>2026-08-28T17:56:47Z</time>
  <course>247.93</course>
  <speed>0.12083045973594572</speed>
  <fix>3d</fix>
</trkpt>
<trkpt lat="40.071397" lon="-105.2297242">
  <ele>1583.0</ele>
  <time>2026-08-28T17:56:47Z</time>
  <course>66.0</course>
  <speed>0.8</speed>
  <fix>3d</fix>
</trkpt>
<trkpt lat="40.071397" lon="-105.2297242">
  <ele>1583.0</ele>
  <time>2026-08-28T17:56:47Z</time>
  <course>248.03</course>
  <speed>0.12083045973594572</speed>
  <fix>3d</fix>
</trkpt>
<trkpt lat="40.071397" lon="-105.2297242">
  <ele>1583.0</ele>
  <time>2026-08-28T17:56:47Z</time>
  <course>66.0</course>
  <speed>0.8</speed>
  <fix>3d</fix>
</trkpt>
<trkpt lat="40.071397" lon="-105.2297242">
  <ele>1583.0</ele>
  <time>2026-08-28T17:56:47Z</time>
  <course>248.13</course>
  <speed>0.12083045973594572</speed>
  <fix>3d</fix>
</trkpt>
<trkpt lat="40.0713976" lon="-105.2297225">
  <ele>1583.0</ele>
  <time>2026-08-28T17:56:47Z</time>
  <course>65.99</course>
  <speed>0.8</speed>
  <fix>3d</fix>
</trkpt>
<trkpt lat="40.0713976" lon="-105.2297225">
  <ele>1583.0</ele>
  <time>2026-08-28T17:56:47Z</time>
  <course>248.22</course>
  <speed>0.13</speed>
  <fix>3d</fix>
</trkpt>
<trkpt lat="40.0713976" lon="-105.2297225">
  <ele>1583.0</ele>
  <time>2026-08-28T17:56:47Z</time>
  <course>65.99</course>
  <speed>0.8</speed>
  <fix>3d</fix>
</trkpt>
<trkpt lat="40.0713976" lon="-105.2297225">
  <ele>1583.0</ele>
  <time>2026-08-28T17:56:47Z</time>
  <course>248.32</course>
  <speed>0.13</speed>
  <fix>3d</fix>
</trkpt>
<trkpt lat="40.0713982" lon="-105.2297208">
  <ele>1583.0</ele>
  <time>2026-08-28T17:56:47Z</time>
  <course>65.99</course>
  <speed>0.8</speed>
  <fix>3d</fix>
</trkpt>
<trkpt lat="40.0713982" lon="-105.2297208">
  <ele>1583.0</ele>
  <time>2026-08-28T17:56:47Z</time>
  <course>248.4</course>
  <speed>0.13</speed>
  <fix>3d</fix>
</trkpt>
<trkpt lat="40.0713982" lon="-105.2297208">
  <ele>1583.0</ele>
  <time>2026-08-28T17:56:47Z</time>
  <course>65.99</course>
  <speed>0.8</speed>
  <fix>3d</fix>
</trkpt>
<trkpt lat="40.0713982" lon="-105.2297208">
  <ele>1583.0</ele>
  <time>2026-08-28T17:56:47Z</time>
  <course>248.49</course>
  <speed>0.13</speed>
  <fix>3d</fix>
</trkpt>
<trkpt lat="40.0713988" lon="-105.2297191">
  <ele>1583.0</ele>
  <time>2026-08-28T17:56:47Z</time>
  <course>66.0</course>
  <speed>0.8</speed>
  <fix>3d</fix>
</trkpt>
<trkpt lat="40.0713988" lon="-105.2297191">
  <ele>1583.0</ele>
  <time>2026-08-28T17:56:47Z</time>
  <course>248.57</course>
  <speed>0.14317821063276354</speed>
  <fix>3d</fix>
</trkpt>
<trkpt lat="40.0713988" lon="-105.2297191">
  <ele>1583.0</ele>
  <time>2026-08-28T17:56:47Z</time>
  <course>66.0</course>
  <speed>0.8</speed>
  <fix>3d</fix>
</trkpt>
<trkpt lat="40.0713988" lon="-105.2297191">
  <ele>1583.0</ele>
  <time>2026-08-28T17:56:47Z</time>
  <course>248.64</course>
  <speed>0.14317821063276354</speed>
  <fix>3d</fix>
</trkpt>
<trkpt lat="40.0713994" lon="-105.2297174">
  <ele>1583.0</ele>
  <time>2026-08-28T17:56:47Z</time>
  <course>66.0</course>
  <speed>0.8</speed>
  <fix>3d</fix>
</trkpt>
<trkpt lat="40.0713994" lon="-105.2297174">
  <ele>1583.0</ele>
  <time>2026-08-28T17:56:47Z</time>
  <course>248.72</course>
  <speed>0.14317821063276354</speed>
  <fix>3d</fix>
</trkpt>
<trkpt lat="40.0713994" lon="-105.2297174">
  <ele>1583.0</ele>
  <time>2026-08-28T17:56:47Z</time>
  <course>66.0</course>
  <speed>0.8</speed>
  <fix>3d</fix>
</trkpt>
<trkpt lat="40.0713994" lon="-105.2297174">
  <ele>1583.0</ele>
  <time>2026-08-28T17:56:47Z</time>
  <course>248.79</course>
  <speed>0.14317821063276354</speed>
  <fix>3d</fix>
</trkpt>
<trkpt lat="40.0713999" lon="-105.2297156">
  <ele>1583.0</ele>
  <time>2026-08-28T17:56:47Z</time>
  <course>66.0</course>
  <speed>0.8</speed>
  <fix>3d</fix>
</trkpt>
<trkpt lat="40.0713999" lon="-105.2297156">
  <ele>1583.0</ele>
  <time>2026-08-28T17:56:47Z</time>
  <course>248.86</course>
  <speed>0.14317821063276354</speed>
  <fix>3d</fix>
</trkpt>
<trkpt lat="40.0713999" lon="-105.2297156">
  <ele>1583.0</ele>
  <time>2026-08-28T17:56:47Z</time>
  <course>66.0</course>
  <speed>0.8</speed>
  <fix>3d</fix>
</trkpt>
<trkpt lat="40.0713999" lon="-105.2297156">
  <ele>1583.0</ele>
  <time>2026-08-28T17:56:47Z</time>
  <course>248.92</course>
  <speed>0.14317821063276354</speed>
  <fix>3d</fix>
</trkpt>
<trkpt lat="40.0713999" lon="-105.2297156">
  <ele>1583.0</ele>
  <time>2026-08-28T17:56:47Z</time>
  <course>66.0</course>
  <speed>0.8</speed>
  <fix>3d</fix>
</trkpt>
<trkpt lat="40.0714004" lon="-105.2297139">
  <ele>1583.0</ele>
  <time>2026-08-28T17:56:47Z</time>
  <course>248.98</course>
  <speed>0.15231546211727817</speed>
  <fix>3d</fix>
</trkpt>
<trkpt lat="40.0714004" lon="-105.2297139">
  <ele>1583.0</ele>
  <time>2026-08-28T17:56:47Z</time>
  <course>65.99</course>
  <speed>0.8</speed>
  <fix>3d</fix>
</trkpt>
<trkpt lat="40.0714004" lon="-105.2297139">
  <ele>1583.0</ele>
  <time>2026-08-28T17:56:47Z</time>
  <course>249.05</course>
  <speed>0.15231546211727817</speed>
  <fix>3d</fix>
</trkpt>
<trkpt lat="40.0714004" lon="-105.2297139">
  <ele>1583.0</ele>
  <time>2026-08-28T17:56:47Z</time>
  <course>65.99</course>
  <speed>0.8</speed>
  <fix>3d</fix>
</trkpt>
<trkpt lat="40.0714011" lon="-105.2297122">
  <ele>1583.0</ele>
  <time>2026-08-28T17:56:47Z</time>
  <course>249.1</course>
  <speed>0.15231546211727817</speed>
  <fix>3d</fix>
</trkpt>
<trkpt lat="40.0714011" lon="-105.2297122">
  <ele>1583.0</ele>
  <time>2026-08-28T17:56:47Z</time>
  <course>65.99</course>
  <speed>0.8</speed>
  <fix>3d</fix>
</trkpt>
<trkpt lat="40.0714011" lon="-105.2297122">
  <ele>1583.0</ele>
  <time>2026-08-28T17:56:47Z</time>
  <course>249.16</course>
  <speed>0.15652475842498528</speed>
  <fix>3d</fix>
</trkpt>
<trkpt lat="40.0714011" lon="-105.2297122">
  <ele>1583.0</ele>
  <time>2026-08-28T17:56:47Z</time>
  <course>65.99</course>
  <speed>0.8</speed>
  <fix>3d</fix>
</trkpt>
<trkpt lat="40.0714016" lon="-105.2297105">
  <ele>1583.0</ele>
  <time>2026-08-28T17:56:47Z</time>
  <course>249.21</course>
  <speed>0.15652475842498528</speed>
  <fix>3d</fix>
</trkpt>
<trkpt lat="40.0714016" lon="-105.2297105">
  <ele>1583.0</ele>
  <time>2026-08-28T17:56:47Z</time>
  <course>65.99</course>
  <speed>0.8</speed>
  <fix>3d</fix>
</trkpt>
<trkpt lat="40.0714016" lon="-105.2297105">
  <ele>1583.0</ele>
  <time>2026-08-28T17:56:47Z</time>
  <course>249.26</course>
  <speed>0.15652475842498528</speed>
  <fix>3d</fix>
</trkpt>
<trkpt lat="40.0714016" lon="-105.2297105">
  <ele>1583.0</ele>
  <time>2026-08-28T17:56:47Z</time>
  <course>65.99</course>
  <speed>0.8</speed>
  <fix>3d</fix>
</trkpt>
<trkpt lat="40.0714023" lon="-105.2297088">
  <ele>1583.0</ele>
  <time>2026-08-28T17:56:47Z</time>
  <course>249.31</course>
  <speed>0.16552945357246848</speed>
  <fix>3d</fix>
</trkpt>
<trkpt lat="40.0714023" lon="-105.2297088">
  <ele>1583.0</ele>
  <time>2026-08-28T17:56:47Z</time>
  <course>65.99</course>
  <speed>0.8</speed>
  <fix>3d</fix>
</trkpt>
<trkpt lat="40.0714023" lon="-105.2297088">
  <ele>1583.0</ele>
  <time>2026-08-28T17:56:47Z</time>
  <course>249.36</course>
  <speed>0.16552945357246848</speed>
  <fix>3d</fix>
</trkpt>
<trkpt lat="40.0714028" lon="-105.229707">
  <ele>1583.0</ele>
  <time>2026-08-28T17:56:47Z</time>
  <course>65.99</course>
  <speed>0.8</speed>
  <fix>3d</fix>
</trkpt>
<trkpt lat="40.0714028" lon="-105.229707">
  <ele>1583.0</ele>
  <time>2026-08-28T17:56:47Z</time>
  <course>249.4</course>
  <speed>0.16552945357246848</speed>
  <fix>3d</fix>
</trkpt>
<trkpt lat="40.0714028" lon="-105.229707">
  <ele>1583.0</ele>
  <time>2026-08-28T17:56:47Z</time>
  <course>65.99</course>
  <speed>0.8</speed>
  <fix>3d</fix>
</trkpt>
<trkpt lat="40.0714028" lon="-105.229707">
  <ele>1583.0</ele>
  <time>2026-08-28T17:56:47Z</time>
  <course>249.45</course>
  <speed>0.16552945357246848</speed>
  <fix>3d</fix>
</trkpt>
<trkpt lat="40.0714035" lon="-105.2297053">
  <ele>1583.0</ele>
  <time>2026-08-28T17:56:47Z</time>
  <course>65.99</course>
  <speed>0.8</speed>
  <fix>3d</fix>
</trkpt>
<trkpt lat="40.0714035" lon="-105.2297053">
  <ele>1583.0</ele>
  <time>2026-08-28T17:56:47Z</time>
  <course>249.49</course>
  <speed>0.16552945357246848</speed>
  <fix>3d</fix>
</trkpt>
<trkpt lat="40.0714035" lon="-105.2297053">
  <ele>1583.0</ele>
  <time>2026-08-28T17:56:47Z</time>
  <course>65.99</course>
  <speed>0.8</speed>
  <fix>3d</fix>
</trkpt>
<trkpt lat="40.0714035" lon="-105.2297053">
  <ele>1583.0</ele>
  <time>2026-08-28T17:56:47Z</time>
  <course>249.52</course>
  <speed>0.16552945357246848</speed>
  <fix>3d</fix>
</trkpt>
<trkpt lat="40.071404" lon="-105.2297036">
  <ele>1583.0</ele>
  <time>2026-08-28T17:56:47Z</time>
  <course>65.99</course>
  <speed>0.8</speed>
  <fix>3d</fix>
</trkpt>
<trkpt lat="40.071404" lon="-105.2297036">
  <ele>1583.0</ele>
  <time>2026-08-28T17:56:47Z</time>
  <course>249.56</course>
  <speed>0.16552945357246848</speed>
  <fix>3d</fix>
</trkpt>
<trkpt lat="40.071404" lon="-105.2297036">
  <ele>1583.0</ele>
  <time>2026-08-28T17:56:47Z</time>
  <course>65.99</course>
  <speed>0.8</speed>
  <fix>3d</fix>
</trkpt>
<trkpt lat="40.071404" lon="-105.2297036">
  <ele>1583.0</ele>
  <time>2026-08-28T17:56:47Z</time>
  <course>249.6</course>
  <speed>0.16552945357246848</speed>
  <fix>3d</fix>
</trkpt>
<trkpt lat="40.0714045" lon="-105.2297019">
  <ele>1583.0</ele>
  <time>2026-08-28T17:56:47Z</time>
  <course>65.99</course>
  <speed>0.8</speed>
  <fix>3d</fix>
</trkpt>
<trkpt lat="40.0714045" lon="-105.2297019">
  <ele>1583.0</ele>
  <time>2026-08-28T17:56:47Z</time>
  <course>249.63</course>
  <speed>0.17464249196572978</speed>
  <fix>3d</fix>
</trkpt>
<trkpt lat="40.0714045" lon="-105.2297019">
  <ele>1583.0</ele>
  <time>2026-08-28T17:56:47Z</time>
  <course>65.99</course>
  <speed>0.8</speed>
  <fix>3d</fix>
</trkpt>
<trkpt lat="40.0714045" lon="-105.2297019">
  <ele>1583.0</ele>
  <time>2026-08-28T17:56:47Z</time>
  <course>249.66</course>
  <speed>0.17464249196572978</speed>
  <fix>3d</fix>
</trkpt>
<trkpt lat="40.0714052" lon="-105.2297002">
  <ele>1583.0</ele>
  <time>2026-08-28T17:56:47Z</time>
  <course>65.99</course>
  <speed>0.8</speed>
  <fix>3d</fix>
</trkpt>
<trkpt lat="40.0714052" lon="-105.2297002">
  <ele>1583.0</ele>
  <time>2026-08-28T17:56:47Z</time>
  <course>249.69</course>
  <speed>0.17464249196572978</speed>
  <fix>3d</fix>
</trkpt>
<trkpt lat="40.0714052" lon="-105.2297002">
  <ele>1583.0</ele>
  <time>2026-08-28T17:56:47Z</time>
  <course>65.99</course>
  <speed>0.8</speed>
  <fix>3d</fix>
</trkpt>
<trkpt lat="40.0714052" lon="-105.2297002">
  <ele>1583.0</ele>
  <time>2026-08-28T17:56:47Z</time>
  <course>249.72</course>
  <speed>0.17888543819998318</speed>
  <fix>3d</fix>
</trkpt>
<trkpt lat="40.0714057" lon="-105.2296984">
  <ele>1583.0</ele>
  <time>2026-08-28T17:56:47Z</time>
  <course>65.99</course>
  <speed>0.8</speed>
  <fix>3d</fix>
</trkpt>
<trkpt lat="40.0714057" lon="-105.2296984">
  <ele>1583.0</ele>
  <time>2026-08-28T17:56:47Z</time>
  <course>249.75</course>
  <speed>0.17888543819998318</speed>
  <fix>3d</fix>
</trkpt>
<trkpt lat="40.0714057" lon="-105.2296984">
  <ele>1583.0</ele>
  <time>2026-08-28T17:56:47Z</time>
  <course>65.99</course>
  <speed>0.8</speed>
  <fix>3d</fix>
</trkpt>
<trkpt lat="40.0714057" lon="-105.2296984">
  <ele>1583.0</ele>
  <time>2026-08-28T17:56:47Z</time>
  <course>249.78</course>
  <speed>0.17888543819998318</speed>
  <fix>3d</fix>
</trkpt>
<trkpt lat="40.0714064" lon="-105.2296967">
  <ele>1583.0</ele>
  <time>2026-08-28T17:56:47Z</time>
  <course>65.99</course>
  <speed>0.8</speed>
  <fix>3d</fix>
</trkpt>
<trkpt lat="40.0714064" lon="-105.2296967">
  <ele>1583.0</ele>
  <time>2026-08-28T17:56:47Z</time>
  <course>249.8</course>
  <speed>0.17888543819998318</speed>
  <fix>3d</fix>
</trkpt>
<trkpt lat="40.0714064" lon="-105.2296967">
  <ele>1583.0</ele>
  <time>2026-08-28T17:56:47Z</time>
  <course>65.99</course>
  <speed>0.8</speed>
  <fix>3d</fix>
</trkpt>
<trkpt lat="40.0714064" lon="-105.2296967">
  <ele>1583.0</ele>
  <time>2026-08-28T17:56:47Z</time>
  <course>249.82</course>
  <speed>0.17888543819998318</speed>
  <fix>3d</fix>
</trkpt>
<trkpt lat="40.0714064" lon="-105.2296967">
  <ele>1583.0</ele>
  <time>2026-08-28T17:56:47Z</time>
  <course>65.99</course>
  <speed>0.8</speed>
  <fix>3d</fix>
</trkpt>
<trkpt lat="40.0714069" lon="-105.229695">
  <ele>1583.0</ele>
  <time>2026-08-28T17:56:47Z</time>
  <course>249.85</course>
  <speed>0.17888543819998318</speed>
  <fix>3d</fix>
</trkpt>
<trkpt lat="40.0714069" lon="-105.229695">
  <ele>1583.0</ele>
  <time>2026-08-28T17:56:47Z</time>
  <course>65.99</course>
  <speed>0.8</speed>
  <fix>3d</fix>
</trkpt>
<trkpt lat="40.0714069" lon="-105.229695">
  <ele>1583.0</ele>
  <time>2026-08-28T17:56:47Z</time>
  <course>249.87</course>
  <speed>0.17888543819998318</speed>
  <fix>3d</fix>
</trkpt>
<trkpt lat="40.0714069" lon="-105.229695">
  <ele>1583.0</ele>
  <time>2026-08-28T17:56:47Z</time>
  <course>65.99</course>
  <speed>0.8</speed>
  <fix>3d</fix>
</trkpt>
<trkpt lat="40.0714076" lon="-105.2296933">
  <ele>1583.0</ele>
  <time>2026-08-28T17:56:47Z</time>
  <course>249.89</course>
  <speed>0.17888543819998318</speed>
  <fix>3d</fix>
</trkpt>
<trkpt lat="40.0714076" lon="-105.2296933">
  <ele>1583.0</ele>
  <time>2026-08-28T17:56:47Z</time>
  <course>65.99</course>
  <speed>0.8</speed>
  <fix>3d</fix>
</trkpt>
<trkpt lat="40.0714076" lon="-105.2296933">
  <ele>1583.0</ele>
  <time>2026-08-28T17:56:47Z</time>
  <course>249.91</course>
  <speed>0.17888543819998318</speed>
  <fix>3d</fix>
</trkpt>
<trkpt lat="40.0714076" lon="-105.2296933">
  <ele>1583.0</ele>
  <time>2026-08-28T17:56:47Z</time>
  <course>65.99</course>
  <speed>0.8</speed>
  <fix>3d</fix>
</trkpt>
<trkpt lat="40.0714081" lon="-105.2296916">
  <ele>1583.0</ele>
  <time>2026-08-28T17:56:47Z</time>
  <course>249.93</course>
  <speed>0.18788294228055935</speed>
  <fix>3d</fix>
</trkpt>
<trkpt lat="40.0714081" lon="-105.2296916">
  <ele>1583.0</ele>
  <time>2026-08-28T17:56:47Z</time>
  <course>65.99</course>
  <speed>0.8</speed>
  <fix>3d</fix>
</trkpt>
<trkpt lat="40.0714081" lon="-105.2296916">
  <ele>1583.0</ele>
  <time>2026-08-28T17:56:47Z</time>
  <course>249.94</course>
  <speed>0.18788294228055935</speed>
  <fix>3d</fix>
</trkpt>
<trkpt lat="40.0714086" lon="-105.2296898">
  <ele>1583.0</ele>
  <time>2026-08-28T17:56:47Z</time>
  <course>65.99</course>
  <speed>0.8</speed>
  <fix>3d</fix>
</trkpt>
<trkpt lat="40.0714086" lon="-105.2296898">
  <ele>1583.0</ele>
  <time>2026-08-28T17:56:47Z</time>
  <course>249.96</course>
  <speed>0.18788294228055935</speed>
  <fix>3d</fix>
</trkpt>
<trkpt lat="40.0714086" lon="-105.2296898">
  <ele>1583.0</ele>
  <time>2026-08-28T17:56:47Z</time>
  <course>65.99</course>
  <speed>0.8</speed>
  <fix>3d</fix>
</trkpt>
<trkpt lat="40.0714086" lon="-105.2296898">
  <ele>1583.0</ele>
  <time>2026-08-28T17:56:47Z</time>
  <course>249.97</course>
  <speed>0.18788294228055935</speed>
  <fix>3d</fix>
</trkpt>
<trkpt lat="40.0714093" lon="-105.2296881">
  <ele>1583.0</ele>
  <time>2026-08-28T17:56:47Z</time>
  <course>65.99</course>
  <speed>0.8</speed>
  <fix>3d</fix>
</trkpt>
<trkpt lat="40.0714093" lon="-105.2296881">
  <ele>1583.0</ele>
  <time>2026-08-28T17:56:47Z</time>
  <course>249.99</course>
  <speed>0.18788294228055935</speed>
  <fix>3d</fix>
</trkpt>
<trkpt lat="40.0714093" lon="-105.2296881">
  <ele>1583.0</ele>
  <time>2026-08-28T17:56:47Z</time>
  <course>65.99</course>
  <speed>0.8</speed>
  <fix>3d</fix>
</trkpt>
<trkpt lat="40.0714093" lon="-105.2296881">
  <ele>1583.0</ele>
  <time>2026-08-28T17:56:47Z</time>
  <course>250.0</course>
  <speed>0.18788294228055935</speed>
  <fix>3d</fix>
</trkpt>
<trkpt lat="40.0714098" lon="-105.2296864">
  <ele>1583.0</ele>
  <time>2026-08-28T17:56:47Z</time>
  <course>65.99</course>
  <speed>0.8</speed>
  <fix>3d</fix>
</trkpt>
<trkpt lat="40.0714098" lon="-105.2296864">
  <ele>1583.0</ele>
  <time>2026-08-28T17:56:47Z</time>
  <course>250.01</course>
  <speed>0.18788294228055935</speed>
  <fix>3d</fix>
</trkpt>
<trkpt lat="40.0714098" lon="-105.2296864">
  <ele>1583.0</ele>
  <time>2026-08-28T17:56:47Z</time>
  <course>65.99</course>
  <speed>0.8</speed>
  <fix>3d</fix>
</trkpt>
<trkpt lat="40.0714098" lon="-105.2296864">
  <ele>1583.0</ele>
  <time>2026-08-28T17:56:47Z</time>
  <course>250.02</course>
  <speed>0.18788294228055935</speed>
  <fix>3d</fix>
</trkpt>
<trkpt lat="40.0714105" lon="-105.2296847">
  <ele>1583.0</ele>
  <time>2026-08-28T17:56:47Z</time>
  <course>65.99</course>
  <speed>0.8</speed>
  <fix>3d</fix>
</trkpt>
<trkpt lat="40.0714105" lon="-105.2296847">
  <ele>1583.0</ele>
  <time>2026-08-28T17:56:47Z</time>
  <course>250.03</course>
  <speed>0.18788294228055935</speed>
  <fix>3d</fix>
</trkpt>
<trkpt lat="40.0714105" lon="-105.2296847">
  <ele>1583.0</ele>
  <time>2026-08-28T17:56:47Z</time>
  <course>65.99</course>
  <speed>0.8</speed>
  <fix>3d</fix>
</trkpt>
<trkpt lat="40.0714105" lon="-105.2296847">
  <ele>1583.0</ele>
  <time>2026-08-28T17:56:47Z</time>
  <course>250.04</course>
  <speed>0.18788294228055935</speed>
  <fix>3d</fix>
</trkpt>
<trkpt lat="40.071411" lon="-105.229683">
  <ele>1583.0</ele>
  <time>2026-08-28T17:56:47Z</time>
  <course>65.99</course>
  <speed>0.8</speed>
  <fix>3d</fix>
</trkpt>
<trkpt lat="40.071411" lon="-105.229683">
  <ele>1583.0</ele>
  <time>2026-08-28T17:56:47Z</time>
  <course>250.05</course>
  <speed>0.18788294228055935</speed>
  <fix>3d</fix>
</trkpt>
<trkpt lat="40.071411" lon="-105.229683">
  <ele>1583.0</ele>
  <time>2026-08-28T17:56:47Z</time>
  <course>65.99</course>
  <speed>0.8</speed>
  <fix>3d</fix>
</trkpt>
<trkpt lat="40.071411" lon="-105.229683">
  <ele>1583.0</ele>
  <time>2026-08-28T17:56:47Z</time>
  <course>250.06</course>
  <speed>0.18788294228055935</speed>
  <fix>3d</fix>
</trkpt>
<trkpt lat="40.0714117" lon="-105.2296812">
  <ele>1583.0</ele>
  <time>2026-08-28T17:56:47Z</time>
  <course>65.99</course>
  <speed>0.8</speed>
  <fix>3d</fix>
</trkpt>
<trkpt lat="40.0714117" lon="-105.2296812">
  <ele>1583.0</ele>
  <time>2026-08-28T17:56:47Z</time>
  <course>250.07</course>
  <speed>0.18788294228055935</speed>
  <fix>3d</fix>
</trkpt>
<trkpt lat="40.0714117" lon="-105.2296812">
  <ele>1583.0</ele>
  <time>2026-08-28T17:56:47Z</time>
  <course>65.99</course>
  <speed>0.8</speed>
  <fix>3d</fix>
</trkpt>
<trkpt lat="40.0714117" lon="-105.2296812">
  <ele>1583.0</ele>
  <time>2026-08-28T17:56:47Z</time>
  <course>250.08</course>
  <speed>0.18788294228055935</speed>
  <fix>3d</fix>
</trkpt>
<trkpt lat="40.0714122" lon="-105.2296795">
  <ele>1583.0</ele>
  <time>2026-08-28T17:56:47Z</time>
  <course>65.99</course>
  <speed>0.8</speed>
  <fix>3d</fix>
</trkpt>
<trkpt lat="40.0714122" lon="-105.2296795">
  <ele>1583.0</ele>
  <time>2026-08-28T17:56:47Z</time>
  <course>250.08</course>
  <speed>0.18788294228055935</speed>
  <fix>3d</fix>
</trkpt>
<trkpt lat="40.0714122" lon="-105.2296795">
  <ele>1583.0</ele>
  <time>2026-08-28T17:56:47Z</time>
  <course>65.99</course>
  <speed>0.8</speed>
  <fix>3d</fix>
</trkpt>
<trkpt lat="40.0714122" lon="-105.2296795">
  <ele>1583.0</ele>
  <time>2026-08-28T17:56:47Z</time>
  <course>250.09</course>
  <speed>0.18788294228055935</speed>
  <fix>3d</fix>
</trkpt>
<trkpt lat="40.0714122" lon="-105.2296795">
  <ele>1583.0</ele>
  <time>2026-08-28T17:56:47Z</time>
  <course>65.99</course>
  <speed>0.8</speed>
  <fix>3d</fix>
</trkpt>
<trkpt lat="40.0714128" lon="-105.2296778">
  <ele>1583.0</ele>
  <time>2026-08-28T17:56:47Z</time>
  <course>250.09</course>
  <speed>0.18788294228055935</speed>
  <fix>3d</fix>
</trkpt>
<trkpt lat="40.0714128" lon="-105.2296778">
  <ele>1583.0</ele>
  <time>2026-08-28T17:56:47Z</time>
  <course>65.99</course>
  <speed>0.8</speed>
  <fix>3d</fix>
</trkpt>
<trkpt lat="40.0714128" lon="-105.2296778">
  <ele>1583.0</ele>
  <time>2026-08-28T17:56:47Z</time>
  <course>250.1</course>
  <speed>0.18788294228055935</speed>
  <fix>3d</fix>
</trkpt>
<trkpt lat="40.0714128" lon="-105.2296778">
  <ele>1583.0</ele>
  <time>2026-08-28T17:56:47Z</time>
  <course>65.99</course>
  <speed>0.8</speed>
  <fix>3d</fix>
</trkpt>
<trkpt lat="40.0714134" lon="-105.2296761">
  <ele>1583.0</ele>
  <time>2026-08-28T17:56:47Z</time>
  <course>250.1</course>
  <speed>0.18788294228055935</speed>
  <fix>3d</fix>
</trkpt>
<trkpt lat="40.0714134" lon="-105.2296761">
  <ele>1583.0</ele>
  <time>2026-08-28T17:56:47Z</time>
  <course>65.99</course>
  <speed>0.8</speed>
  <fix>3d</fix>
</trkpt>
<trkpt lat="40.0714134" lon="-105.2296761">
  <ele>1583.0</ele>
  <time>2026-08-28T17:56:47Z</time>
  <course>250.11</course>
  <speed>0.18788294228055935</speed>
  <fix>3d</fix>
</trkpt>
<trkpt lat="40.0714134" lon="-105.2296761">
  <ele>1583.0</ele>
  <time>2026-08-28T17:56:47Z</time>
  <course>65.99</course>
  <speed>0.8</speed>
  <fix>3d</fix>
</trkpt>
<trkpt lat="40.071414" lon="-105.2296743">
  <ele>1583.0</ele>
  <time>2026-08-28T17:56:47Z</time>
  <course>250.11</course>
  <speed>0.18788294228055935</speed>
  <fix>3d</fix>
</trkpt>
<trkpt lat="40.071414" lon="-105.2296743">
  <ele>1583.0</ele>
  <time>2026-08-28T17:56:47Z</time>
  <course>65.99</course>
  <speed>0.8</speed>
  <fix>3d</fix>
</trkpt>
<trkpt lat="40.071414" lon="-105.2296743">
  <ele>1583.0</ele>
  <time>2026-08-28T17:56:47Z</time>
  <course>250.11</course>
  <speed>0.18788294228055935</speed>
  <fix>3d</fix>
</trkpt>
<trkpt lat="40.071414" lon="-105.2296743">
  <ele>1583.0</ele>
  <time>2026-08-28T17:56:47Z</time>
  <course>65.99</course>
  <speed>0.8</speed>
  <fix>3d</fix>
</trkpt>
<trkpt lat="40.0714146" lon="-105.2296726">
  <ele>1583.0</ele>
  <time>2026-08-28T17:56:47Z</time>
  <course>250.11</course>
  <speed>0.18788294228055935</speed>
  <fix>3d</fix>
</trkpt>
<trkpt lat="40.0714146" lon="-105.2296726">
  <ele>1583.0</ele>
  <time>2026-08-28T17:56:47Z</time>
  <course>65.99</course>
  <speed>0.8</speed>
  <fix>3d</fix>
</trkpt>
<trkpt lat="40.0714146" lon="-105.2296726">
  <ele>1583.0</ele>
  <time>2026-08-28T17:56:47Z</time>
  <course>250.12</course>
  <speed>0.18788294228055935</speed>
  <fix>3d</fix>
</trkpt>
<trkpt lat="40.0714152" lon="-105.2296709">
  <ele>1583.0</ele>
  <time>2026-08-28T17:56:47Z</time>
  <course>65.99</course>
  <speed>0.8</speed>
  <fix>3d</fix>
</trkpt>
<trkpt lat="40.0714152" lon="-105.2296709">
  <ele>1583.0</ele>
  <time>2026-08-28T17:56:47Z</time>
  <course>250.12</course>
  <speed>0.18788294228055935</speed>
  <fix>3d</fix>
</trkpt>
<trkpt lat="40.0714152" lon="-105.2296709">
  <ele>1583.0</ele>
  <time>2026-08-28T17:56:47Z</time>
  <course>65.99</course>
  <speed>0.8</speed>
  <fix>3d</fix>
</trkpt>
<trkpt lat="40.0714152" lon="-105.2296709">
  <ele>1583.0</ele>
  <time>2026-08-28T17:56:47Z</time>
  <course>250.12</course>
  <speed>0.18788294228055935</speed>
  <fix>3d</fix>
</trkpt>
<trkpt lat="40.0714157" lon="-105.2296692">
  <ele>1583.0</ele>
  <time>2026-08-28T17:56:47Z</time>
  <course>65.99</course>
  <speed>0.8</speed>
  <fix>3d</fix>
</trkpt>
<trkpt lat="40.0714157" lon="-105.2296692">
  <ele>1583.0</ele>
  <time>2026-08-28T17:56:47Z</time>
  <course>250.12</course>
  <speed>0.18788294228055935</speed>
  <fix>3d</fix>
</trkpt>
<trkpt lat="40.0714157" lon="-105.2296692">
  <ele>1583.0</ele>
  <time>2026-08-28T17:56:47Z</time>
  <course>65.99</course>
  <speed>0.8</speed>
  <fix>3d</fix>
</trkpt>
<trkpt lat="40.0714157" lon="-105.2296692">
  <ele>1583.0</ele>
  <time>2026-08-28T17:56:47Z</time>
  <course>250.12</course>
  <speed>0.18788294228055935</speed>
  <fix>3d</fix>
</trkpt>
<trkpt lat="40.0714163" lon="-105.2296675">
  <ele>1583.0</ele>
  <time>2026-08-28T17:56:47Z</time>
  <course>65.99</course>
  <speed>0.8</speed>
  <fix>3d</fix>
</trkpt>
<trkpt lat="40.0714163" lon="-105.2296675">
  <ele>1583.0</ele>
  <time>2026-08-28T17:56:47Z</time>
  <course>250.11</course>
  <speed>0.18788294228055935</speed>
  <fix>3d</fix>
</trkpt>
<trkpt lat="40.0714163" lon="-105.2296675">
  <ele>1583.0</ele>
  <time>2026-08-28T17:56:47Z</time>
  <course>65.99</course>
  <speed>0.8</speed>
  <fix>3d</fix>
</trkpt>
<trkpt lat="40.0714163" lon="-105.2296675">
  <ele>1583.0</ele>
  <time>2026-08-28T17:56:47Z</time>
  <course>250.11</course>
  <speed>0.18788294228055935</speed>
  <fix>3d</fix>
</trkpt>
<trkpt lat="40.0714169" lon="-105.2296657">
  <ele>1583.0</ele>
  <time>2026-08-28T17:56:47Z</time>
  <course>65.99</course>
  <speed>0.8</speed>
  <fix>3d</fix>
</trkpt>
<trkpt lat="40.0714169" lon="-105.2296657">
  <ele>1583.0</ele>
  <time>2026-08-28T17:56:47Z</time>
  <course>250.11</course>
  <speed>0.18788294228055935</speed>
  <fix>3d</fix>
</trkpt>
<trkpt lat="40.0714169" lon="-105.2296657">
  <ele>1583.0</ele>
  <time>2026-08-28T17:56:47Z</time>
  <course>65.99</course>
  <speed>0.8</speed>
  <fix>3d</fix>
</trkpt>
<trkpt lat="40.0714169" lon="-105.2296657">
  <ele>1583.0</ele>
  <time>2026-08-28T17:56:47Z</time>
  <course>250.11</course>
  <speed>0.18788294228055935</speed>
  <fix>3d</fix>
</trkpt>
<trkpt lat="40.0714174" lon="-105.229664">
  <ele>1583.0</ele>
  <time>2026-08-28T17:56:47Z</time>
  <course>65.99</course>
  <speed>0.8</speed>
  <fix>3d</fix>
</trkpt>
<trkpt lat="40.0714174" lon="-105.229664">
  <ele>1583.0</ele>
  <time>2026-08-28T17:56:47Z</time>
  <course>250.11</course>
  <speed>0.18788294228055935</speed>
  <fix>3d</fix>
</trkpt>
<trkpt lat="40.0714174" lon="-105.229664">
  <ele>1583.0</ele>
  <time>2026-08-28T17:56:47Z</time>
  <course>65.99</course>
  <speed>0.8</speed>
  <fix>3d</fix>
</trkpt>
<trkpt lat="40.0714174" lon="-105.229664">
  <ele>1583.0</ele>
  <time>2026-08-28T17:56:47Z</time>
  <course>250.1</course>
  <speed>0.18788294228055935</speed>
  <fix>3d</fix>
</trkpt>
<trkpt lat="40.0714181" lon="-105.2296623">
  <ele>1583.0</ele>
  <time>2026-08-28T17:56:47Z</time>
  <course>65.99</course>
  <speed>0.8</speed>
  <fix>3d</fix>
</trkpt>
<trkpt lat="40.0714181" lon="-105.2296623">
  <ele>1583.0</ele>
  <time>2026-08-28T17:56:47Z</time>
  <course>250.1</course>
  <speed>0.18788294228055935</speed>
  <fix>3d</fix>
</trkpt>
<trkpt lat="40.0714181" lon="-105.2296623">
  <ele>1583.0</ele>
  <time>2026-08-28T17:56:47Z</time>
  <course>65.99</course>
  <speed>0.8</speed>
  <fix>3d</fix>
</trkpt>
<trkpt lat="40.0714181" lon="-105.2296623">
  <ele>1583.0</ele>
  <time>2026-08-28T17:56:47Z</time>
  <course>250.1</course>
  <speed>0.18788294228055935</speed>
  <fix>3d</fix>
</trkpt>
<trkpt lat="40.0714186" lon="-105.2296606">
  <ele>1583.0</ele>
  <time>2026-08-28T17:56:47Z</time>
  <course>65.99</course>
  <speed>0.8</speed>
  <fix>3d</fix>
</trkpt>
<trkpt lat="40.0714186" lon="-105.2296606">
  <ele>1583.0</ele>
  <time>2026-08-28T17:56:47Z</time>
  <course>250.09</course>
  <speed>0.18788294228055935</speed>
  <fix>3d</fix>
</trkpt>
<trkpt lat="40.0714186" lon="-105.2296606">
  <ele>1583.0</ele>
  <time>2026-08-28T17:56:47Z</time>
  <course>65.99</course>
  <speed>0.8</speed>
  <fix>3d</fix>
</trkpt>
<trkpt lat="40.0714186" lon="-105.2296606">
  <ele>1583.0</ele>
  <time>2026-08-28T17:56:47Z</time>
  <course>250.09</course>
  <speed>0.18788294228055935</speed>
  <fix>3d</fix>
</trkpt>
<trkpt lat="40.0714186" lon="-105.2296606">
  <ele>1583.0</ele>
  <time>2026-08-28T17:56:47Z</time>
  <course>65.99</course>
  <speed>0.8</speed>
  <fix>3d</fix>
</trkpt>
<trkpt lat="40.0714193" lon="-105.2296589">
  <ele>1583.0</ele>
  <time>2026-08-28T17:56:47Z</time>
  <course>250.09</course>
  <speed>0.18788294228055935</speed>
  <fix>3d</fix>
</trkpt>
<trkpt lat="40.0714193" lon="-105.2296589">
  <ele>1583.0</ele>
  <time>2026-08-28T17:56:47Z</time>
  <course>65.99</course>
  <speed>0.8</speed>
  <fix>3d</fix>
</trkpt>
<trkpt lat="40.0714193" lon="-105.2296589">
  <ele>1583.0</ele>
  <time>2026-08-28T17:56:47Z</time>
  <course>250.08</course>
  <speed>0.18788294228055935</speed>
  <fix>3d</fix>
</trkpt>
<trkpt lat="40.0714193" lon="-105.2296589">
  <ele>1583.0</ele>
  <time>2026-08-28T17:56:47Z</time>
  <course>65.99</course>
  <speed>0.8</speed>
  <fix>3d</fix>
</trkpt>
<trkpt lat="40.0714198" lon="-105.2296571">
  <ele>1583.0</ele>
  <time>2026-08-28T17:56:47Z</time>
  <course>250.08</course>
  <speed>0.18788294228055935</speed>
  <fix>3d</fix>
</trkpt>
<trkpt lat="40.0714198" lon="-105.2296571">
  <ele>1583.0</ele>
  <time>2026-08-28T17:56:47Z</time>
  <course>65.99</course>
  <speed>0.8</speed>
  <fix>3d</fix>
</trkpt>
<trkpt lat="40.0714198" lon="-105.2296571">
  <ele>1583.0</ele>
  <time>2026-08-28T17:56:47Z</time>
  <course>250.07</course>
  <speed>0.18788294228055935</speed>
  <fix>3d</fix>
</trkpt>
<trkpt lat="40.0714198" lon="-105.2296571">
  <ele>1583.0</ele>
  <time>2026-08-28T17:56:47Z</time>
  <course>65.99</course>
  <speed>0.8</speed>
  <fix>3d</fix>
</trkpt>
<trkpt lat="40.0714205" lon="-105.2296554">
  <ele>1583.0</ele>
  <time>2026-08-28T17:56:47Z</time>
  <course>250.07</course>
  <speed>0.18788294228055935</speed>
  <fix>3d</fix>
</trkpt>
<trkpt lat="40.0714205" lon="-105.2296554">
  <ele>1583.0</ele>
  <time>2026-08-28T17:56:47Z</time>
  <course>65.99</course>
  <speed>0.8</speed>
  <fix>3d</fix>
</trkpt>
<trkpt lat="40.0714205" lon="-105.2296554">
  <ele>1583.0</ele>
  <time>2026-08-28T17:56:47Z</time>
  <course>250.06</course>
  <speed>0.18788294228055935</speed>
  <fix>3d</fix>
</trkpt>
<trkpt lat="40.071421" lon="-105.2296537">
  <ele>1583.0</ele>
  <time>2026-08-28T17:56:47Z</time>
  <course>65.99</course>
  <speed>0.8</speed>
  <fix>3d</fix>
</trkpt>
<trkpt lat="40.071421" lon="-105.2296537">
  <ele>1583.0</ele>
  <time>2026-08-28T17:56:47Z</time>
  <course>250.05</course>
  <speed>0.17888543819998318</speed>
  <fix>3d</fix>
</trkpt>
<trkpt lat="40.071421" lon="-105.2296537">
  <ele>1583.0</ele>
  <time>2026-08-28T17:56:47Z</time>
  <course>65.99</course>
  <speed>0.8</speed>
  <fix>3d</fix>
</trkpt>
<trkpt lat="40.071421" lon="-105.2296537">
  <ele>1583.0</ele>
  <time>2026-08-28T17:56:47Z</time>
  <course>250.05</course>
  <speed>0.17888543819998318</speed>
  <fix>3d</fix>
</trkpt>
<trkpt lat="40.0714215" lon="-105.229652">
  <ele>1583.0</ele>
  <time>2026-08-28T17:56:47Z</time>
  <course>65.99</course>
  <speed>0.8</speed>
  <fix>3d</fix>
</trkpt>
<trkpt lat="40.0714215" lon="-105.229652">
  <ele>1583.0</ele>
  <time>2026-08-28T17:56:47Z</time>
  <course>250.04</course>
  <speed>0.17888543819998318</speed>
  <fix>3d</fix>
</trkpt>
<trkpt lat="40.0714215" lon="-105.229652">
  <ele>1583.0</ele>
  <time>2026-08-28T17:56:47Z</time>
  <course>65.99</course>
  <speed>0.8</speed>
  <fix>3d</fix>
</trkpt>
<trkpt lat="40.0714215" lon="-105.229652">
  <ele>1583.0</ele>
  <time>2026-08-28T17:56:47Z</time>
  <course>250.04</course>
  <speed>0.17888543819998318</speed>
  <fix>3d</fix>
</trkpt>
<trkpt lat="40.0714222" lon="-105.2296503">
  <ele>1583.0</ele>
  <time>2026-08-28T17:56:47Z</time>
  <course>65.99</course>
  <speed>0.8</speed>
  <fix>3d</fix>
</trkpt>
<trkpt lat="40.0714222" lon="-105.2296503">
  <ele>1583.0</ele>
  <time>2026-08-28T17:56:47Z</time>
  <course>250.03</course>
  <speed>0.17888543819998318</speed>
  <fix>3d</fix>
</trkpt>
<trkpt lat="40.0714222" lon="-105.2296503">
  <ele>1583.0</ele>
  <time>2026-08-28T17:56:47Z</time>
  <course>65.99</course>
  <speed>0.8</speed>
  <fix>3d</fix>
</trkpt>
<trkpt lat="40.0714222" lon="-105.2296503">
  <ele>1583.0</ele>
  <time>2026-08-28T17:56:47Z</time>
  <course>250.02</course>
  <speed>0.17888543819998318</speed>
  <fix>3d</fix>
</trkpt>
<trkpt lat="40.0714227" lon="-105.2296485">
  <ele>1583.0</ele>
  <time>2026-08-28T17:56:47Z</time>
  <course>65.99</course>
  <speed>0.8</speed>
  <fix>3d</fix>
</trkpt>
<trkpt lat="40.0714227" lon="-105.2296485">
  <ele>1583.0</ele>
  <time>2026-08-28T17:56:47Z</time>
  <course>250.01</course>
  <speed>0.17888543819998318</speed>
  <fix>3d</fix>
</trkpt>
<trkpt lat="40.0714227" lon="-105.2296485">
  <ele>1583.0</ele>
  <time>2026-08-28T17:56:47Z</time>
  <course>65.99</course>
  <speed>0.8</speed>
  <fix>3d</fix>
</trkpt>
<trkpt lat="40.0714227" lon="-105.2296485">
  <ele>1583.0</ele>
  <time>2026-08-28T17:56:47Z</time>
  <course>250.01</course>
  <speed>0.17888543819998318</speed>
  <fix>3d</fix>
</trkpt>
<trkpt lat="40.0714234" lon="-105.2296468">
  <ele>1583.0</ele>
  <time>2026-08-28T17:56:47Z</time>
  <course>65.99</course>
  <speed>0.8</speed>
  <fix>3d</fix>
</trkpt>
<trkpt lat="40.0714234" lon="-105.2296468">
  <ele>1583.0</ele>
  <time>2026-08-28T17:56:47Z</time>
  <course>250.0</course>
  <speed>0.17888543819998318</speed>
  <fix>3d</fix>
</trkpt>
<trkpt lat="40.0714234" lon="-105.2296468">
  <ele>1583.0</ele>
  <time>2026-08-28T17:56:47Z</time>
  <course>65.99</course>
  <speed>0.8</speed>
  <fix>3d</fix>
</trkpt>
<trkpt lat="40.0714234" lon="-105.2296468">
  <ele>1583.0</ele>
  <time>2026-08-28T17:56:47Z</time>
  <course>249.99</course>
  <speed>0.17888543819998318</speed>
  <fix>3d</fix>
</trkpt>
<trkpt lat="40.0714239" lon="-105.2296451">
  <ele>1583.0</ele>
  <time>2026-08-28T17:56:47Z</time>
  <course>65.99</course>
  <speed>0.8</speed>
  <fix>3d</fix>
</trkpt>
<trkpt lat="40.0714239" lon="-105.2296451">
  <ele>1583.0</ele>
  <time>2026-08-28T17:56:47Z</time>
  <course>249.98</course>
  <speed>0.17888543819998318</speed>
  <fix>3d</fix>
</trkpt>
<trkpt lat="40.0714239" lon="-105.2296451">
  <ele>1583.0</ele>
  <time>2026-08-28T17:56:47Z</time>
  <course>65.99</course>
  <speed>0.8</speed>
  <fix>3d</fix>
</trkpt>
<trkpt lat="40.0714239" lon="-105.2296451">
  <ele>1583.0</ele>
  <time>2026-08-28T17:56:47Z</time>
  <course>249.97</course>
  <speed>0.17888543819998318</speed>
  <fix>3d</fix>
</trkpt>
<trkpt lat="40.0714246" lon="-105.2296434">
  <ele>1583.0</ele>
  <time>2026-08-28T17:56:47Z</time>
  <course>65.99</course>
  <speed>0.8</speed>
  <fix>3d</fix>
</trkpt>
<trkpt lat="40.0714246" lon="-105.2296434">
  <ele>1583.0</ele>
  <time>2026-08-28T17:56:47Z</time>
  <course>249.97</course>
  <speed>0.17464249196572978</speed>
  <fix>3d</fix>
</trkpt>
<trkpt lat="40.0714246" lon="-105.2296434">
  <ele>1583.0</ele>
  <time>2026-08-28T17:56:47Z</time>
  <course>65.99</course>
  <speed>0.8</speed>
  <fix>3d</fix>
</trkpt>
<trkpt lat="40.0714246" lon="-105.2296434">
  <ele>1583.0</ele>
  <time>2026-08-28T17:56:47Z</time>
  <course>249.96</course>
  <speed>0.17464249196572978</speed>
  <fix>3d</fix>
</trkpt>
<trkpt lat="40.0714246" lon="-105.2296434">
  <ele>1583.0</ele>
  <time>2026-08-28T17:56:47Z</time>
  <course>65.99</course>
  <speed>0.8</speed>
  <fix>3d</fix>
</trkpt>
<trkpt lat="40.0714251" lon="-105.2296417">
  <ele>1583.0</ele>
  <time>2026-08-28T17:56:47Z</time>
  <course>249.95</course>
  <speed>0.16552945357246848</speed>
  <fix>3d</fix>
</trkpt>
<trkpt lat="40.0714251" lon="-105.2296417">
  <ele>1583.0</ele>
  <time>2026-08-28T17:56:47Z</time>
  <course>65.99</course>
  <speed>0.8</speed>
  <fix>3d</fix>
</trkpt>
<trkpt lat="40.0714251" lon="-105.2296417">
  <ele>1583.0</ele>
  <time>2026-08-28T17:56:47Z</time>
  <course>249.94</course>
  <speed>0.16552945357246848</speed>
  <fix>3d</fix>
</trkpt>
<trkpt lat="40.0714251" lon="-105.2296417">
  <ele>1583.0</ele>
  <time>2026-08-28T17:56:47Z</time>
  <course>65.99</course>
  <speed>0.8</speed>
  <fix>3d</fix>
</trkpt>
<trkpt lat="40.0714256" lon="-105.2296399">
  <ele>1583.0</ele>
  <time>2026-08-28T17:56:47Z</time>
  <course>249.93</course>
  <speed>0.16552945357246848</speed>
  <fix>3d</fix>
</trkpt>
<trkpt lat="40.0714256" lon="-105.2296399">
  <ele>1583.0</ele>
  <time>2026-08-28T17:56:47Z</time>
  <course>65.99</course>
  <speed>0.8</speed>
  <fix>3d</fix>
</trkpt>
<trkpt lat="40.0714256" lon="-105.2296399">
  <ele>1583.0</ele>
  <time>2026-08-28T17:56:47Z</time>
  <course>249.92</course>
  <speed>0.16552945357246848</speed>
  <fix>3d</fix>
</trkpt>
<trkpt lat="40.0714256" lon="-105.2296399">
  <ele>1583.0</ele>
  <time>2026-08-28T17:56:47Z</time>
  <course>65.99</course>
  <speed>0.8</speed>
  <fix>3d</fix>
</trkpt>
<trkpt lat="40.0714263" lon="-105.2296382">
  <ele>1583.0</ele>
  <time>2026-08-28T17:56:47Z</time>
  <course>249.92</course>
  <speed>0.16552945357246848</speed>
  <fix>3d</fix>
</trkpt>
<trkpt lat="40.0714263" lon="-105.2296382">
  <ele>1583.0</ele>
  <time>2026-08-28T17:56:47Z</time>
  <course>65.99</course>
  <speed>0.8</speed>
  <fix>3d</fix>
</trkpt>
<trkpt lat="40.0714263" lon="-105.2296382">
  <ele>1583.0</ele>
  <time>2026-08-28T17:56:47Z</time>
  <course>249.91</course>
  <speed>0.16552945357246848</speed>
  <fix>3d</fix>
</trkpt>
<trkpt lat="40.0714263" lon="-105.2296382">
  <ele>1583.0</ele>
  <time>2026-08-28T17:56:47Z</time>
  <course>65.99</course>
  <speed>0.8</speed>
  <fix>3d</fix>
</trkpt>
<trkpt lat="40.0714268" lon="-105.2296365">
  <ele>1583.0</ele>
  <time>2026-08-28T17:56:47Z</time>
  <course>249.9</course>
  <speed>0.16552945357246848</speed>
  <fix>3d</fix>
</trkpt>
<trkpt lat="40.0714268" lon="-105.2296365">
  <ele>1583.0</ele>
  <time>2026-08-28T17:56:47Z</time>
  <course>65.99</course>
  <speed>0.8</speed>
  <fix>3d</fix>
</trkpt>
<trkpt lat="40.0714268" lon="-105.2296365">
  <ele>1583.0</ele>
  <time>2026-08-28T17:56:47Z</time>
  <course>249.89</course>
  <speed>0.16552945357246848</speed>
  <fix>3d</fix>
</trkpt>
<trkpt lat="40.0714275" lon="-105.2296348">
  <ele>1583.0</ele>
  <time>2026-08-28T17:56:47Z</time>
  <course>65.99</course>
  <speed>0.8</speed>
  <fix>3d</fix>
</trkpt>
<trkpt lat="40.0714275" lon="-105.2296348">
  <ele>1583.0</ele>
  <time>2026-08-28T17:56:47Z</time>
  <course>249.88</course>
  <speed>0.16552945357246848</speed>
  <fix>3d</fix>
</trkpt>
<trkpt lat="40.0714275" lon="-105.2296348">
  <ele>1583.0</ele>
  <time>2026-08-28T17:56:47Z</time>
  <course>65.99</course>
  <speed>0.8</speed>
  <fix>3d</fix>
</trkpt>
<trkpt lat="40.0714275" lon="-105.2296348">
  <ele>1583.0</ele>
  <time>2026-08-28T17:56:47Z</time>
  <course>249.87</course>
  <speed>0.16552945357246848</speed>
  <fix>3d</fix>
</trkpt>
<trkpt lat="40.071428" lon="-105.2296331">
  <ele>1583.0</ele>
  <time>2026-08-28T17:56:47Z</time>
  <course>65.99</course>
  <speed>0.8</speed>
  <fix>3d</fix>
</trkpt>
<trkpt lat="40.071428" lon="-105.2296331">
  <ele>1583.0</ele>
  <time>2026-08-28T17:56:47Z</time>
  <course>249.86</course>
  <speed>0.16552945357246848</speed>
  <fix>3d</fix>
</trkpt>
<trkpt lat="40.071428" lon="-105.2296331">
  <ele>1583.0</ele>
  <time>2026-08-28T17:56:47Z</time>
  <course>65.99</course>
  <speed>0.8</speed>
  <fix>3d</fix>
</trkpt>
<trkpt lat="40.071428" lon="-105.2296331">
  <ele>1583.0</ele>
  <time>2026-08-28T17:56:47Z</time>
  <course>249.85</course>
  <speed>0.15652475842498528</speed>
  <fix>3d</fix>
</trkpt>
<trkpt lat="40.0714287" lon="-105.2296313">
  <ele>1583.0</ele>
  <time>2026-08-28T17:56:47Z</time>
  <course>65.99</course>
  <speed>0.8</speed>
  <fix>3d</fix>
</trkpt>
<trkpt lat="40.0714287" lon="-105.2296313">
  <ele>1583.0</ele>
  <time>2026-08-28T17:56:47Z</time>
  <course>249.84</course>
  <speed>0.15652475842498528</speed>
  <fix>3d</fix>
</trkpt>
<trkpt lat="40.0714287" lon="-105.2296313">
  <ele>1583.0</ele>
  <time>2026-08-28T17:56:47Z</time>
  <course>65.99</course>
  <speed>0.8</speed>
  <fix>3d</fix>
</trkpt>
<trkpt lat="40.0714287" lon="-105.2296313">
  <ele>1583.0</ele>
  <time>2026-08-28T17:56:47Z</time>
  <course>249.83</course>
  <speed>0.15652475842498528</speed>
  <fix>3d</fix>
</trkpt>
<trkpt lat="40.0714292" lon="-105.2296296">
  <ele>1583.0</ele>
  <time>2026-08-28T17:56:47Z</time>
  <course>65.99</course>
  <speed>0.8</speed>
  <fix>3d</fix>
</trkpt>
<trkpt lat="40.0714292" lon="-105.2296296">
  <ele>1583.0</ele>
  <time>2026-08-28T17:56:47Z</time>
  <course>249.82</course>
  <speed>0.15652475842498528</speed>
  <fix>3d</fix>
</trkpt>
<trkpt lat="40.0714292" lon="-105.2296296">
  <ele>1583.0</ele>
  <time>2026-08-28T17:56:47Z</time>
  <course>65.99</course>
  <speed>0.8</speed>
  <fix>3d</fix>
</trkpt>
<trkpt lat="40.0714292" lon="-105.2296296">
  <ele>1583.0</ele>
  <time>2026-08-28T17:56:47Z</time>
  <course>249.81</course>
  <speed>0.15652475842498528</speed>
  <fix>3d</fix>
</trkpt>
<trkpt lat="40.0714298" lon="-105.2296279">
  <ele>1583.0</ele>
  <time>2026-08-28T17:56:47Z</time>
  <course>65.99</course>
  <speed>0.8</speed>
  <fix>3d</fix>
</trkpt>
<trkpt lat="40.0714298" lon="-105.2296279">
  <ele>1583.0</ele>
  <time>2026-08-28T17:56:47Z</time>
  <course>249.8</course>
  <speed>0.15652475842498528</speed>
  <fix>3d</fix>
</trkpt>
<trkpt lat="40.0714298" lon="-105.2296279">
  <ele>1583.0</ele>
  <time>2026-08-28T17:56:47Z</time>
  <course>65.99</course>
  <speed>0.8</speed>
  <fix>3d</fix>
</trkpt>
<trkpt lat="40.0714298" lon="-105.2296279">
  <ele>1583.0</ele>
  <time>2026-08-28T17:56:47Z</time>
  <course>249.79</course>
  <speed>0.15652475842498528</speed>
  <fix>3d</fix>
</trkpt>
<trkpt lat="40.0714303" lon="-105.2296262">
  <ele>1583.0</ele>
  <time>2026-08-28T17:56:47Z</time>
  <course>65.99</course>
  <speed>0.8</speed>
  <fix>3d</fix>
</trkpt>
<trkpt lat="40.0714303" lon="-105.2296262">
  <ele>1583.0</ele>
  <time>2026-08-28T17:56:47Z</time>
  <course>249.78</course>
  <speed>0.15652475842498528</speed>
  <fix>3d</fix>
</trkpt>
<trkpt lat="40.0714303" lon="-105.2296262">
  <ele>1583.0</ele>
  <time>2026-08-28T17:56:47Z</time>
  <course>65.99</course>
  <speed>0.8</speed>
  <fix>3d</fix>
</trkpt>
<trkpt lat="40.0714303" lon="-105.2296262">
  <ele>1583.0</ele>
  <time>2026-08-28T17:56:47Z</time>
  <course>249.77</course>
  <speed>0.15652475842498528</speed>
  <fix>3d</fix>
</trkpt>
<trkpt lat="40.071431" lon="-105.2296245">
  <ele>1583.0</ele>
  <time>2026-08-28T17:56:47Z</time>
  <course>65.99</course>
  <speed>0.8</speed>
  <fix>3d</fix>
</trkpt>
<trkpt lat="40.071431" lon="-105.2296245">
  <ele>1583.0</ele>
  <time>2026-08-28T17:56:47Z</time>
  <course>249.76</course>
  <speed>0.15652475842498528</speed>
  <fix>3d</fix>
</trkpt>
<trkpt lat="40.071431" lon="-105.2296245">
  <ele>1583.0</ele>
  <time>2026-08-28T17:56:47Z</time>
  <course>65.99</course>
  <speed>0.8</speed>
  <fix>3d</fix>
</trkpt>
<trkpt lat="40.071431" lon="-105.2296245">
  <ele>1583.0</ele>
  <time>2026-08-28T17:56:47Z</time>
  <course>249.75</course>
  <speed>0.147648230602334</speed>
  <fix>3d</fix>
</trkpt>
<trkpt lat="40.071431" lon="-105.2296245">
  <ele>1583.0</ele>
  <time>2026-08-28T17:56:47Z</time>
  <course>65.99</course>
  <speed>0.8</speed>
  <fix>3d</fix>
</trkpt>
<trkpt lat="40.0714315" lon="-105.2296227">
  <ele>1583.0</ele>
  <time>2026-08-28T17:56:47Z</time>
  <course>249.73</course>
  <speed>0.147648230602334</speed>
  <fix>3d</fix>
</trkpt>
<trkpt lat="40.0714315" lon="-105.2296227">
  <ele>1583.0</ele>
  <time>2026-08-28T17:56:47Z</time>
  <course>65.99</course>
  <speed>0.8</speed>
  <fix>3d</fix>
</trkpt>
<trkpt lat="40.0714315" lon="-105.2296227">
  <ele>1583.0</ele>
  <time>2026-08-28T17:56:47Z</time>
  <course>249.72</course>
  <speed>0.147648230602334</speed>
  <fix>3d</fix>
</trkpt>
<trkpt lat="40.0714315" lon="-105.2296227">
  <ele>1583.0</ele>
  <time>2026-08-28T17:56:47Z</time>
  <course>65.99</course>
  <speed>0.8</speed>
  <fix>3d</fix>
</trkpt>
<trkpt lat="40.0714322" lon="-105.229621">
  <ele>1583.0</ele>
  <time>2026-08-28T17:56:47Z</time>
  <course>249.71</course>
  <speed>0.147648230602334</speed>
  <fix>3d</fix>
</trkpt>
<trkpt lat="40.0714322" lon="-105.229621">
  <ele>1583.0</ele>
  <time>2026-08-28T17:56:47Z</time>
  <course>65.99</course>
  <speed>0.8</speed>
  <fix>3d</fix>
</trkpt>
<trkpt lat="40.0714322" lon="-105.229621">
  <ele>1583.0</ele>
  <time>2026-08-28T17:56:47Z</time>
  <course>249.7</course>
  <speed>0.14317821063276354</speed>
  <fix>3d</fix>
</trkpt>
<trkpt lat="40.0714322" lon="-105.229621">
  <ele>1583.0</ele>
  <time>2026-08-28T17:56:47Z</time>
  <course>65.99</course>
  <speed>0.8</speed>
  <fix>3d</fix>
</trkpt>
<trkpt lat="40.0714327" lon="-105.2296193">
  <ele>1583.0</ele>
  <time>2026-08-28T17:56:47Z</time>
  <course>249.69</course>
  <speed>0.14317821063276354</speed>
  <fix>3d</fix>
</trkpt>
<trkpt lat="40.0714327" lon="-105.2296193">
  <ele>1583.0</ele>
  <time>2026-08-28T17:56:47Z</time>
  <course>65.99</course>
  <speed>0.8</speed>
  <fix>3d</fix>
</trkpt>
<trkpt lat="40.0714327" lon="-105.2296193">
  <ele>1583.0</ele>
  <time>2026-08-28T17:56:47Z</time>
  <course>249.68</course>
  <speed>0.14317821063276354</speed>
  <fix>3d</fix>
</trkpt>
<trkpt lat="40.0714333" lon="-105.2296176">
  <ele>1583.0</ele>
  <time>2026-08-28T17:56:47Z</time>
  <course>65.99</course>
  <speed>0.8</speed>
  <fix>3d</fix>
</trkpt>
<trkpt lat="40.0714333" lon="-105.2296176">
  <ele>1583.0</ele>
  <time>2026-08-28T17:56:47Z</time>
  <course>249.67</course>
  <speed>0.14317821063276354</speed>
  <fix>3d</fix>
</trkpt>
<trkpt lat="40.0714333" lon="-105.2296176">
  <ele>1583.0</ele>
  <time>2026-08-28T17:56:47Z</time>
  <course>65.99</course>
  <speed>0.8</speed>
  <fix>3d</fix>
</trkpt>
<trkpt lat="40.0714333" lon="-105.2296176">
  <ele>1583.0</ele>
  <time>2026-08-28T17:56:47Z</time>
  <course>249.66</course>
  <speed>0.14317821063276354</speed>
  <fix>3d</fix>
</trkpt>
<trkpt lat="40.0714339" lon="-105.2296159">
  <ele>1583.0</ele>
  <time>2026-08-28T17:56:47Z</time>
  <course>65.99</course>
  <speed>0.8</speed>
  <fix>3d</fix>
</trkpt>
<trkpt lat="40.0714339" lon="-105.2296159">
  <ele>1583.0</ele>
  <time>2026-08-28T17:56:47Z</time>
  <course>249.65</course>
  <speed>0.14317821063276354</speed>
  <fix>3d</fix>
</trkpt>
<trkpt lat="40.0714339" lon="-105.2296159">
  <ele>1583.0</ele>
  <time>2026-08-28T17:56:47Z</time>
  <course>65.99</course>
  <speed>0.8</speed>
  <fix>3d</fix>
</trkpt>
<trkpt lat="40.0714339" lon="-105.2296159">
  <ele>1583.0</ele>
  <time>2026-08-28T17:56:47Z</time>
  <course>249.64</course>
  <speed>0.1341640786499874</speed>
  <fix>3d</fix>
</trkpt>
<trkpt lat="40.0714344" lon="-105.2296141">
  <ele>1583.0</ele>
  <time>2026-08-28T17:56:47Z</time>
  <course>65.99</course>
  <speed>0.8</speed>
  <fix>3d</fix>
</trkpt>
<trkpt lat="40.0714344" lon="-105.2296141">
  <ele>1583.0</ele>
  <time>2026-08-28T17:56:47Z</time>
  <course>249.63</course>
  <speed>0.1341640786499874</speed>
  <fix>3d</fix>
</trkpt>
<trkpt lat="40.0714344" lon="-105.2296141">
  <ele>1583.0</ele>
  <time>2026-08-28T17:56:47Z</time>
  <course>65.99</course>
  <speed>0.8</speed>
  <fix>3d</fix>
</trkpt>
<trkpt lat="40.0714344" lon="-105.2296141">
  <ele>1583.0</ele>
  <time>2026-08-28T17:56:47Z</time>
  <course>249.61</course>
  <speed>0.1341640786499874</speed>
  <fix>3d</fix>
</trkpt>
<trkpt lat="40.0714351" lon="-105.2296124">
  <ele>1583.0</ele>
  <time>2026-08-28T17:56:47Z</time>
  <course>65.99</course>
  <speed>0.8</speed>
  <fix>3d</fix>
</trkpt>
<trkpt lat="40.0714351" lon="-105.2296124">
  <ele>1583.0</ele>
  <time>2026-08-28T17:56:47Z</time>
  <course>249.6</course>
  <speed>0.1341640786499874</speed>
  <fix>3d</fix>
</trkpt>
<trkpt lat="40.0714351" lon="-105.2296124">
  <ele>1583.0</ele>
  <time>2026-08-28T17:56:47Z</time>
  <course>65.99</course>
  <speed>0.8</speed>
  <fix>3d</fix>
</trkpt>
<trkpt lat="40.0714351" lon="-105.2296124">
  <ele>1583.0</ele>
  <time>2026-08-28T17:56:47Z</time>
  <course>249.59</course>
  <speed>0.1341640786499874</speed>
  <fix>3d</fix>
</trkpt>
<trkpt lat="40.0714356" lon="-105.2296107">
  <ele>1583.0</ele>
  <time>2026-08-28T17:56:47Z</time>
  <course>65.99</course>
  <speed>0.8</speed>
  <fix>3d</fix>
</trkpt>
<trkpt lat="40.0714356" lon="-105.2296107">
  <ele>1583.0</ele>
  <time>2026-08-28T17:56:47Z</time>
  <course>249.58</course>
  <speed>0.1341640786499874</speed>
  <fix>3d</fix>
</trkpt>
<trkpt lat="40.0714356" lon="-105.2296107">
  <ele>1583.0</ele>
  <time>2026-08-28T17:56:47Z</time>
  <course>65.99</course>
  <speed>0.8</speed>
  <fix>3d</fix>
</trkpt>
<trkpt lat="40.0714356" lon="-105.2296107">
  <ele>1583.0</ele>
  <time>2026-08-28T17:56:47Z</time>
  <course>249.57</course>
  <speed>0.1341640786499874</speed>
  <fix>3d</fix>
</trkpt>
<trkpt lat="40.0714363" lon="-105.229609">
  <ele>1583.0</ele>
  <time>2026-08-28T17:56:47Z</time>
  <course>65.99</course>
  <speed>0.8</speed>
  <fix>3d</fix>
</trkpt>
<trkpt lat="40.0714363" lon="-105.229609">
  <ele>1583.0</ele>
  <time>2026-08-28T17:56:47Z</time>
  <course>249.56</course>
  <speed>0.1341640786499874</speed>
  <fix>3d</fix>
</trkpt>
<trkpt lat="40.0714363" lon="-105.229609">
  <ele>1583.0</ele>
  <time>2026-08-28T17:56:47Z</time>
  <course>65.99</course>
  <speed>0.8</speed>
  <fix>3d</fix>
</trkpt>
<trkpt lat="40.0714363" lon="-105.229609">
  <ele>1583.0</ele>
  <time>2026-08-28T17:56:47Z</time>
  <course>249.55</course>
  <speed>0.1341640786499874</speed>
  <fix>3d</fix>
</trkpt>
<trkpt lat="40.0714368" lon="-105.2296073">
  <ele>1583.0</ele>
  <time>2026-08-28T17:56:47Z</time>
  <course>65.99</course>
  <speed>0.8</speed>
  <fix>3d</fix>
</trkpt>
<trkpt lat="40.0714368" lon="-105.2296073">
  <ele>1583.0</ele>
  <time>2026-08-28T17:56:47Z</time>
  <course>249.54</course>
  <speed>0.12529964086141668</speed>
  <fix>3d</fix>
</trkpt>
<trkpt lat="40.0714368" lon="-105.2296073">
  <ele>1583.0</ele>
  <time>2026-08-28T17:56:47Z</time>
  <course>65.99</course>
  <speed>0.8</speed>
  <fix>3d</fix>
</trkpt>
<trkpt lat="40.0714368" lon="-105.2296073">
  <ele>1583.0</ele>
  <time>2026-08-28T17:56:47Z</time>
  <course>249.53</course>
  <speed>0.12529964086141668</speed>
  <fix>3d</fix>
</trkpt>
<trkpt lat="40.0714368" lon="-105.2296073">
  <ele>1583.0</ele>
  <time>2026-08-28T17:56:47Z</time>
  <course>65.99</course>
  <speed>0.8</speed>
  <fix>3d</fix>
</trkpt>
<trkpt lat="40.0714374" lon="-105.2296055">
  <ele>1583.0</ele>
  <time>2026-08-28T17:56:47Z</time>
  <course>249.51</course>
  <speed>0.12529964086141668</speed>
  <fix>3d</fix>
</trkpt>
<trkpt lat="40.0714374" lon="-105.2296055">
  <ele>1583.0</ele>
  <time>2026-08-28T17:56:47Z</time>
  <course>65.99</course>
  <speed>0.8</speed>
  <fix>3d</fix>
</trkpt>
<trkpt lat="40.0714374" lon="-105.2296055">
  <ele>1583.0</ele>
  <time>2026-08-28T17:56:47Z</time>
  <course>249.5</course>
  <speed>0.12529964086141668</speed>
  <fix>3d</fix>
</trkpt>
<trkpt lat="40.0714374" lon="-105.2296055">
  <ele>1583.0</ele>
  <time>2026-08-28T17:56:47Z</time>
  <course>65.99</course>
  <speed>0.8</speed>
  <fix>3d</fix>
</trkpt>
<trkpt lat="40.071438" lon="-105.2296038">
  <ele>1583.0</ele>
  <time>2026-08-28T17:56:47Z</time>
  <course>249.49</course>
  <speed>0.12529964086141668</speed>
  <fix>3d</fix>
</trkpt>
<trkpt lat="40.071438" lon="-105.2296038">
  <ele>1583.0</ele>
  <time>2026-08-28T17:56:47Z</time>
  <course>65.99</course>
  <speed>0.8</speed>
  <fix>3d</fix>
</trkpt>
<trkpt lat="40.071438" lon="-105.2296038">
  <ele>1583.0</ele>
  <time>2026-08-28T17:56:47Z</time>
  <course>249.48</course>
  <speed>0.12529964086141668</speed>
  <fix>3d</fix>
</trkpt>
<trkpt lat="40.071438" lon="-105.2296038">
  <ele>1583.0</ele>
  <time>2026-08-28T17:56:47Z</time>
  <course>65.99</course>
  <speed>0.8</speed>
  <fix>3d</fix>
</trkpt>
<trkpt lat="40.0714385" lon="-105.2296021">
  <ele>1583.0</ele>
  <time>2026-08-28T17:56:47Z</time>
  <course>249.47</course>
  <speed>0.12529964086141668</speed>
  <fix>3d</fix>
</trkpt>
<trkpt lat="40.0714385" lon="-105.2296021">
  <ele>1583.0</ele>
  <time>2026-08-28T17:56:47Z</time>
  <course>65.99</course>
  <speed>0.8</speed>
  <fix>3d</fix>
</trkpt>
<trkpt lat="40.0714385" lon="-105.2296021">
  <ele>1583.0</ele>
  <time>2026-08-28T17:56:47Z</time>
  <course>249.46</course>
  <speed>0.12529964086141668</speed>
  <fix>3d</fix>
</trkpt>
<trkpt lat="40.0714392" lon="-105.2296004">
  <ele>1583.0</ele>
  <time>2026-08-28T17:56:47Z</time>
  <course>65.99</course>
  <speed>0.8</speed>
  <fix>3d</fix>
</trkpt>
<trkpt lat="40.0714392" lon="-105.2296004">
  <ele>1583.0</ele>
  <time>2026-08-28T17:56:47Z</time>
  <course>249.45</course>
  <speed>0.12083045973594572</speed>
  <fix>3d</fix>
</trkpt>
<trkpt lat="40.0714392" lon="-105.2296004">
  <ele>1583.0</ele>
  <time>2026-08-28T17:56:47Z</time>
  <course>65.99</course>
  <speed>0.8</speed>
  <fix>3d</fix>
</trkpt>
<trkpt lat="40.0714392" lon="-105.2296004">
  <ele>1583.0</ele>
  <time>2026-08-28T17:56:47Z</time>
  <course>249.44</course>
  <speed>0.12083045973594572</speed>
  <fix>3d</fix>
</trkpt>
<trkpt lat="40.0714397" lon="-105.2295987">
  <ele>1583.0</ele>
  <time>2026-08-28T17:56:47Z</time>
  <course>65.99</course>
  <speed>0.8</speed>
  <fix>3d</fix>
</trkpt>
<trkpt lat="40.0714397" lon="-105.2295987">
  <ele>1583.0</ele>
  <time>2026-08-28T17:56:47Z</time>
  <course>249.43</course>
  <speed>0.1118033988749895</speed>
  <fix>3d</fix>
</trkpt>
<trkpt lat="40.0714397" lon="-105.2295987">
  <ele>1583.0</ele>
  <time>2026-08-28T17:56:47Z</time>
  <course>65.99</course>
  <speed>0.8</speed>
  <fix>3d</fix>
</trkpt>
<trkpt lat="40.0714397" lon="-105.2295987">
  <ele>1583.0</ele>
  <time>2026-08-28T17:56:47Z</time>
  <course>249.41</course>
  <speed>0.1118033988749895</speed>
  <fix>3d</fix>
</trkpt>
<trkpt lat="40.0714404" lon="-105.229597">
  <ele>1583.0</ele>
  <time>2026-08-28T17:56:47Z</time>
  <course>65.99</course>
  <speed>0.8</speed>
  <fix>3d</fix>
</trkpt>
<trkpt lat="40.0714404" lon="-105.229597">
  <ele>1583.0</ele>
  <time>2026-08-28T17:56:47Z</time>
  <course>249.4</course>
  <speed>0.1118033988749895</speed>
  <fix>3d</fix>
</trkpt>
<trkpt lat="40.0714404" lon="-105.229597">
  <ele>1583.0</ele>
  <time>2026-08-28T17:56:47Z</time>
  <course>65.99</course>
  <speed>0.8</speed>
  <fix>3d</fix>
</trkpt>
<trkpt lat="40.0714404" lon="-105.229597">
  <ele>1583.0</ele>
  <time>2026-08-28T17:56:47Z</time>
  <course>249.39</course>
  <speed>0.1118033988749895</speed>
  <fix>3d</fix>
</trkpt>
<trkpt lat="40.0714409" lon="-105.2295952">
  <ele>1583.0</ele>
  <time>2026-08-28T17:56:47Z</time>
  <course>65.99</course>
  <speed>0.8</speed>
  <fix>3d</fix>
</trkpt>
<trkpt lat="40.0714409" lon="-105.2295952">
  <ele>1583.0</ele>
  <time>2026-08-28T17:56:47Z</time>
  <course>249.38</course>
  <speed>0.1118033988749895</speed>
  <fix>3d</fix>
</trkpt>
<trkpt lat="40.0714409" lon="-105.2295952">
  <ele>1583.0</ele>
  <time>2026-08-28T17:56:47Z</time>
  <course>65.99</course>
  <speed>0.8</speed>
  <fix>3d</fix>
</trkpt>
<trkpt lat="40.0714409" lon="-105.2295952">
  <ele>1583.0</ele>
  <time>2026-08-28T17:56:47Z</time>
  <course>249.37</course>
  <speed>0.1118033988749895</speed>
  <fix>3d</fix>
</trkpt>
<trkpt lat="40.0714415" lon="-105.2295935">
  <ele>1583.0</ele>
  <time>2026-08-28T17:56:47Z</time>
  <course>65.99</course>
  <speed>0.8</speed>
  <fix>3d</fix>
</trkpt>
<trkpt lat="40.0714415" lon="-105.2295935">
  <ele>1583.0</ele>
  <time>2026-08-28T17:56:47Z</time>
  <course>249.36</course>
  <speed>0.1118033988749895</speed>
  <fix>3d</fix>
</trkpt>
<trkpt lat="40.0714415" lon="-105.2295935">
  <ele>1583.0</ele>
  <time>2026-08-28T17:56:47Z</time>
  <course>65.99</course>
  <speed>0.8</speed>
  <fix>3d</fix>
</trkpt>
<trkpt lat="40.0714415" lon="-105.2295935">
  <ele>1583.0</ele>
  <time>2026-08-28T17:56:47Z</time>
  <course>249.35</course>
  <speed>0.1118033988749895</speed>
  <fix>3d</fix>
</trkpt>
<trkpt lat="40.0714421" lon="-105.2295918">
  <ele>1583.0</ele>
  <time>2026-08-28T17:56:47Z</time>
  <course>65.99</course>
  <speed>0.8</speed>
  <fix>3d</fix>
</trkpt>
<trkpt lat="40.0714421" lon="-105.2295918">
  <ele>1583.0</ele>
  <time>2026-08-28T17:56:47Z</time>
  <course>249.34</course>
  <speed>0.1118033988749895</speed>
  <fix>3d</fix>
</trkpt>
<trkpt lat="40.0714421" lon="-105.2295918">
  <ele>1583.0</ele>
  <time>2026-08-28T17:56:47Z</time>
  <course>65.99</course>
  <speed>0.8</speed>
  <fix>3d</fix>
</trkpt>
<trkpt lat="40.0714421" lon="-105.2295918">
  <ele>1583.0</ele>
  <time>2026-08-28T17:56:47Z</time>
  <course>249.32</course>
  <speed>0.1118033988749895</speed>
  <fix>3d</fix>
</trkpt>
<trkpt lat="40.0714426" lon="-105.2295901">
  <ele>1583.0</ele>
  <time>2026-08-28T17:56:47Z</time>
  <course>65.99</course>
  <speed>0.8</speed>
  <fix>3d</fix>
</trkpt>
<trkpt lat="40.0714426" lon="-105.2295901">
  <ele>1583.0</ele>
  <time>2026-08-28T17:56:47Z</time>
  <course>249.31</course>
  <speed>0.10295630140987001</speed>
  <fix>3d</fix>
</trkpt>
<trkpt lat="40.0714426" lon="-105.2295901">
  <ele>1583.0</ele>
  <time>2026-08-28T17:56:47Z</time>
  <course>65.99</course>
  <speed>0.8</speed>
  <fix>3d</fix>
</trkpt>
<trkpt lat="40.0714426" lon="-105.2295901">
  <ele>1583.0</ele>
  <time>2026-08-28T17:56:47Z</time>
  <course>249.3</course>
  <speed>0.10295630140987001</speed>
  <fix>3d</fix>
</trkpt>
<trkpt lat="40.0714426" lon="-105.2295901">
  <ele>1583.0</ele>
  <time>2026-08-28T17:56:47Z</time>
  <course>65.99</course>
  <speed>0.8</speed>
  <fix>3d</fix>
</trkpt>
<trkpt lat="40.0714433" lon="-105.2295884">
  <ele>1583.0</ele>
  <time>2026-08-28T17:56:47Z</time>
  <course>249.29</course>
  <speed>0.10295630140987001</speed>
  <fix>3d</fix>
</trkpt>
<trkpt lat="40.0714433" lon="-105.2295884">
  <ele>1583.0</ele>
  <time>2026-08-28T17:56:47Z</time>
  <course>65.99</course>
  <speed>0.8</speed>
  <fix>3d</fix>
</trkpt>
<trkpt lat="40.0714433" lon="-105.2295884">
  <ele>1583.0</ele>
  <time>2026-08-28T17:56:47Z</time>
  <course>249.28</course>
  <speed>0.10295630140987001</speed>
  <fix>3d</fix>
</trkpt>
<trkpt lat="40.0714433" lon="-105.2295884">
  <ele>1583.0</ele>
  <time>2026-08-28T17:56:47Z</time>
  <course>65.99</course>
  <speed>0.8</speed>
  <fix>3d</fix>
</trkpt>
<trkpt lat="40.0714438" lon="-105.2295866">
  <ele>1583.0</ele>
  <time>2026-08-28T17:56:47Z</time>
  <course>249.27</course>
  <speed>0.10295630140987001</speed>
  <fix>3d</fix>
</trkpt>
<trkpt lat="40.0714438" lon="-105.2295866">
  <ele>1583.0</ele>
  <time>2026-08-28T17:56:47Z</time>
  <course>65.99</course>
  <speed>0.8</speed>
  <fix>3d</fix>
</trkpt>
<trkpt lat="40.0714438" lon="-105.2295866">
  <ele>1583.0</ele>
  <time>2026-08-28T17:56:47Z</time>
  <course>249.26</course>
  <speed>0.10295630140987001</speed>
  <fix>3d</fix>
</trkpt>
<trkpt lat="40.0714438" lon="-105.2295866">
  <ele>1583.0</ele>
  <time>2026-08-28T17:56:47Z</time>
  <course>65.99</course>
  <speed>0.8</speed>
  <fix>3d</fix>
</trkpt>
<trkpt lat="40.0714445" lon="-105.2295849">
  <ele>1583.0</ele>
  <time>2026-08-28T17:56:47Z</time>
  <course>249.25</course>
  <speed>0.10295630140987001</speed>
  <fix>3d</fix>
</trkpt>
<trkpt lat="40.0714445" lon="-105.2295849">
  <ele>1583.0</ele>
  <time>2026-08-28T17:56:47Z</time>
  <course>65.99</course>
  <speed>0.8</speed>
  <fix>3d</fix>
</trkpt>
<trkpt lat="40.0714445" lon="-105.2295849">
  <ele>1583.0</ele>
  <time>2026-08-28T17:56:47Z</time>
  <course>249.24</course>
  <speed>0.10295630140987001</speed>
  <fix>3d</fix>
</trkpt>
<trkpt lat="40.0714445" lon="-105.2295849">
  <ele>1583.0</ele>
  <time>2026-08-28T17:56:47Z</time>
  <course>65.99</course>
  <speed>0.8</speed>
  <fix>3d</fix>
</trkpt>
<trkpt lat="40.071445" lon="-105.2295832">
  <ele>1583.0</ele>
  <time>2026-08-28T17:56:47Z</time>
  <course>249.23</course>
  <speed>0.10295630140987001</speed>
  <fix>3d</fix>
</trkpt>
<trkpt lat="40.071445" lon="-105.2295832">
  <ele>1583.0</ele>
  <time>2026-08-28T17:56:47Z</time>
  <course>65.99</course>
  <speed>0.8</speed>
  <fix>3d</fix>
</trkpt>
<trkpt lat="40.071445" lon="-105.2295832">
  <ele>1583.0</ele>
  <time>2026-08-28T17:56:47Z</time>
  <course>249.22</course>
  <speed>0.10295630140987001</speed>
  <fix>3d</fix>
</trkpt>
<trkpt lat="40.0714457" lon="-105.2295815">
  <ele>1583.0</ele>
  <time>2026-08-28T17:56:47Z</time>
  <course>65.99</course>
  <speed>0.8</speed>
  <fix>3d</fix>
</trkpt>
<trkpt lat="40.0714457" lon="-105.2295815">
  <ele>1583.0</ele>
  <time>2026-08-28T17:56:47Z</time>
  <course>249.2</course>
  <speed>0.10295630140987001</speed>
  <fix>3d</fix>
</trkpt>
<trkpt lat="40.0714457" lon="-105.2295815">
  <ele>1583.0</ele>
  <time>2026-08-28T17:56:47Z</time>
  <course>65.99</course>
  <speed>0.8</speed>
  <fix>3d</fix>
</trkpt>
<trkpt lat="40.0714457" lon="-105.2295815">
  <ele>1583.0</ele>
  <time>2026-08-28T17:56:47Z</time>
  <course>249.19</course>
  <speed>0.10295630140987001</speed>
  <fix>3d</fix>
</trkpt>
<trkpt lat="40.0714462" lon="-105.2295798">
  <ele>1583.0</ele>
  <time>2026-08-28T17:56:47Z</time>
  <course>65.99</course>
  <speed>0.8</speed>
  <fix>3d</fix>
</trkpt>
<trkpt lat="40.0714462" lon="-105.2295798">
  <ele>1583.0</ele>
  <time>2026-08-28T17:56:47Z</time>
  <course>249.18</course>
  <speed>0.09433981132056603</speed>
  <fix>3d</fix>
</trkpt>
<trkpt lat="40.0714462" lon="-105.2295798">
  <ele>1583.0</ele>
  <time>2026-08-28T17:56:47Z</time>
  <course>65.99</course>
  <speed>0.8</speed>
  <fix>3d</fix>
</trkpt>
<trkpt lat="40.0714462" lon="-105.2295798">
  <ele>1583.0</ele>
  <time>2026-08-28T17:56:47Z</time>
  <course>249.17</course>
  <speed>0.09433981132056603</speed>
  <fix>3d</fix>
</trkpt>
<trkpt lat="40.0714468" lon="-105.229578">
  <ele>1583.0</ele>
  <time>2026-08-28T17:56:47Z</time>
  <course>65.99</course>
  <speed>0.8</speed>
  <fix>3d</fix>
</trkpt>
<trkpt lat="40.0714468" lon="-105.229578">
  <ele>1583.0</ele>
  <time>2026-08-28T17:56:47Z</time>
  <course>249.16</course>
  <speed>0.09433981132056603</speed>
  <fix>3d</fix>
</trkpt>
<trkpt lat="40.0714468" lon="-105.229578">
  <ele>1583.0</ele>
  <time>2026-08-28T17:56:47Z</time>
  <course>65.99</course>
  <speed>0.8</speed>
  <fix>3d</fix>
</trkpt>
<trkpt lat="40.0714468" lon="-105.229578">
  <ele>1583.0</ele>
  <time>2026-08-28T17:56:47Z</time>
  <course>249.15</course>
  <speed>0.09433981132056603</speed>
  <fix>3d</fix>
</trkpt>
<trkpt lat="40.0714473" lon="-105.2295763">
  <ele>1583.0</ele>
  <time>2026-08-28T17:56:47Z</time>
  <course>65.99</course>
  <speed>0.8</speed>
  <fix>3d</fix>
</trkpt>
<trkpt lat="40.0714473" lon="-105.2295763">
  <ele>1583.0</ele>
  <time>2026-08-28T17:56:47Z</time>
  <course>249.14</course>
  <speed>0.09433981132056603</speed>
  <fix>3d</fix>
</trkpt>
<trkpt lat="40.0714473" lon="-105.2295763">
  <ele>1583.0</ele>
  <time>2026-08-28T17:56:47Z</time>
  <course>65.99</course>
  <speed>0.8</speed>
  <fix>3d</fix>
</trkpt>
<trkpt lat="40.0714473" lon="-105.2295763">
  <ele>1583.0</ele>
  <time>2026-08-28T17:56:47Z</time>
  <course>249.13</course>
  <speed>0.09433981132056603</speed>
  <fix>3d</fix>
</trkpt>
<trkpt lat="40.071448" lon="-105.2295746">
  <ele>1583.0</ele>
  <time>2026-08-28T17:56:47Z</time>
  <course>65.99</course>
  <speed>0.8</speed>
  <fix>3d</fix>
</trkpt>
<trkpt lat="40.071448" lon="-105.2295746">
  <ele>1583.0</ele>
  <time>2026-08-28T17:56:47Z</time>
  <course>249.12</course>
  <speed>0.09433981132056603</speed>
  <fix>3d</fix>
</trkpt>
<trkpt lat="40.071448" lon="-105.2295746">
  <ele>1583.0</ele>
  <time>2026-08-28T17:56:47Z</time>
  <course>65.99</course>
  <speed>0.8</speed>
  <fix>3d</fix>
</trkpt>
<trkpt lat="40.071448" lon="-105.2295746">
  <ele>1583.0</ele>
  <time>2026-08-28T17:56:47Z</time>
  <course>249.11</course>
  <speed>0.09433981132056603</speed>
  <fix>3d</fix>
</trkpt>
<trkpt lat="40.0714485" lon="-105.2295729">
  <ele>1583.0</ele>
  <time>2026-08-28T17:56:47Z</time>
  <course>65.99</course>
  <speed>0.8</speed>
  <fix>3d</fix>
</trkpt>
<trkpt lat="40.0714485" lon="-105.2295729">
  <ele>1583.0</ele>
  <time>2026-08-28T17:56:47Z</time>
  <course>249.1</course>
  <speed>0.09433981132056603</speed>
  <fix>3d</fix>
</trkpt>
<trkpt lat="40.0714485" lon="-105.2295729">
  <ele>1583.0</ele>
  <time>2026-08-28T17:56:47Z</time>
  <course>65.99</course>
  <speed>0.8</speed>
  <fix>3d</fix>
</trkpt>
<trkpt lat="40.0714485" lon="-105.2295729">
  <ele>1583.0</ele>
  <time>2026-08-28T17:56:47Z</time>
  <course>249.09</course>
  <speed>0.09433981132056603</speed>
  <fix>3d</fix>
</trkpt>
<trkpt lat="40.0714492" lon="-105.2295712">
  <ele>1583.0</ele>
  <time>2026-08-28T17:56:47Z</time>
  <course>65.99</course>
  <speed>0.8</speed>
  <fix>3d</fix>
</trkpt>
<trkpt lat="40.0714492" lon="-105.2295712">
  <ele>1583.0</ele>
  <time>2026-08-28T17:56:47Z</time>
  <course>249.08</course>
  <speed>0.08944271909999159</speed>
  <fix>3d</fix>
</trkpt>
<trkpt lat="40.0714492" lon="-105.2295712">
  <ele>1583.0</ele>
  <time>2026-08-28T17:56:47Z</time>
  <course>65.99</course>
  <speed>0.8</speed>
  <fix>3d</fix>
</trkpt>
<trkpt lat="40.0714492" lon="-105.2295712">
  <ele>1583.0</ele>
  <time>2026-08-28T17:56:47Z</time>
  <course>249.07</course>
  <speed>0.08944271909999159</speed>
  <fix>3d</fix>
</trkpt>
<trkpt lat="40.0714492" lon="-105.2295712">
  <ele>1583.0</ele>
  <time>2026-08-28T17:56:47Z</time>
  <course>65.99</course>
  <speed>0.8</speed>
  <fix>3d</fix>
</trkpt>
<trkpt lat="40.0714497" lon="-105.2295694">
  <ele>1583.0</ele>
  <time>2026-08-28T17:56:47Z</time>
  <course>249.06</course>
  <speed>0.08944271909999159</speed>
  <fix>3d</fix>
</trkpt>
<trkpt lat="40.0714497" lon="-105.2295694">
  <ele>1583.0</ele>
  <time>2026-08-28T17:56:47Z</time>
  <course>65.99</course>
  <speed>0.8</speed>
  <fix>3d</fix>
</trkpt>
<trkpt lat="40.0714497" lon="-105.2295694">
  <ele>1583.0</ele>
  <time>2026-08-28T17:56:47Z</time>
  <course>249.05</course>
  <speed>0.08062257748298549</speed>
  <fix>3d</fix>
</trkpt>
<trkpt lat="40.0714497" lon="-105.2295694">
  <ele>1583.0</ele>
  <time>2026-08-28T17:56:47Z</time>
  <course>65.99</course>
  <speed>0.8</speed>
  <fix>3d</fix>
</trkpt>
<trkpt lat="40.0714503" lon="-105.2295677">
  <ele>1583.0</ele>
  <time>2026-08-28T17:56:47Z</time>
  <course>249.04</course>
  <speed>0.08062257748298549</speed>
  <fix>3d</fix>
</trkpt>
<trkpt lat="40.0714503" lon="-105.2295677">
  <ele>1583.0</ele>
  <time>2026-08-28T17:56:47Z</time>
  <course>65.99</course>
  <speed>0.8</speed>
  <fix>3d</fix>
</trkpt>
<trkpt lat="40.0714503" lon="-105.2295677">
  <ele>1583.0</ele>
  <time>2026-08-28T17:56:47Z</time>
  <course>249.03</course>
  <speed>0.08062257748298549</speed>
  <fix>3d</fix>
</trkpt>
<trkpt lat="40.0714503" lon="-105.2295677">
  <ele>1583.0</ele>
  <time>2026-08-28T17:56:47Z</time>
  <course>65.99</course>
  <speed>0.8</speed>
  <fix>3d</fix>
</trkpt>
<trkpt lat="40.0714509" lon="-105.229566">
  <ele>1583.0</ele>
  <time>2026-08-28T17:56:47Z</time>
  <course>249.02</course>
  <speed>0.08062257748298549</speed>
  <fix>3d</fix>
</trkpt>
<trkpt lat="40.0714509" lon="-105.229566">
  <ele>1583.0</ele>
  <time>2026-08-28T17:56:47Z</time>
  <course>65.99</course>
  <speed>0.8</speed>
  <fix>3d</fix>
</trkpt>
<trkpt lat="40.0714509" lon="-105.229566">
  <ele>1583.0</ele>
  <time>2026-08-28T17:56:47Z</time>
  <course>249.01</course>
  <speed>0.08062257748298549</speed>
  <fix>3d</fix>
</trkpt>
<trkpt lat="40.0714514" lon="-105.2295643">
  <ele>1583.0</ele>
  <time>2026-08-28T17:56:47Z</time>
  <course>65.99</course>
  <speed>0.8</speed>
  <fix>3d</fix>
</trkpt>
<trkpt lat="40.0714514" lon="-105.2295643">
  <ele>1583.0</ele>
  <time>2026-08-28T17:56:47Z</time>
  <course>249.0</course>
  <speed>0.08062257748298549</speed>
  <fix>3d</fix>
</trkpt>
<trkpt lat="40.0714514" lon="-105.2295643">
  <ele>1583.0</ele>
  <time>2026-08-28T17:56:47Z</time>
  <course>65.99</course>
  <speed>0.8</speed>
  <fix>3d</fix>
</trkpt>
<trkpt lat="40.0714514" lon="-105.2295643">
  <ele>1583.0</ele>
  <time>2026-08-28T17:56:47Z</time>
  <course>248.99</course>
  <speed>0.08062257748298549</speed>
  <fix>3d</fix>
</trkpt>
<trkpt lat="40.0714521" lon="-105.2295626">
  <ele>1583.0</ele>
  <time>2026-08-28T17:56:47Z</time>
  <course>65.99</course>
  <speed>0.8</speed>
  <fix>3d</fix>
</trkpt>
<trkpt lat="40.0714521" lon="-105.2295626">
  <ele>1583.0</ele>
  <time>2026-08-28T17:56:47Z</time>
  <course>248.98</course>
  <speed>0.08062257748298549</speed>
  <fix>3d</fix>
</trkpt>
<trkpt lat="40.0714521" lon="-105.2295626">
  <ele>1583.0</ele>
  <time>2026-08-28T17:56:47Z</time>
  <course>65.99</course>
  <speed>0.8</speed>
  <fix>3d</fix>
</trkpt>
<trkpt lat="40.0714521" lon="-105.2295626">
  <ele>1583.0</ele>
  <time>2026-08-28T17:56:47Z</time>
  <course>248.97</course>
  <speed>0.08062257748298549</speed>
  <fix>3d</fix>
</trkpt>
<trkpt lat="40.0714526" lon="-105.2295608">
  <ele>1583.0</ele>
  <time>2026-08-28T17:56:47Z</time>
  <course>65.99</course>
  <speed>0.8</speed>
  <fix>3d</fix>
</trkpt>
<trkpt lat="40.0714526" lon="-105.2295608">
  <ele>1583.0</ele>
  <time>2026-08-28T17:56:47Z</time>
  <course>248.96</course>
  <speed>0.08062257748298549</speed>
  <fix>3d</fix>
</trkpt>
<trkpt lat="40.0714526" lon="-105.2295608">
  <ele>1583.0</ele>
  <time>2026-08-28T17:56:47Z</time>
  <course>65.99</course>
  <speed>0.8</speed>
  <fix>3d</fix>
</trkpt>
<trkpt lat="40.0714526" lon="-105.2295608">
  <ele>1583.0</ele>
  <time>2026-08-28T17:56:47Z</time>
  <course>248.95</course>
  <speed>0.08062257748298549</speed>
  <fix>3d</fix>
</trkpt>
<trkpt lat="40.0714533" lon="-105.2295591">
  <ele>1583.0</ele>
  <time>2026-08-28T17:56:47Z</time>
  <course>65.99</course>
  <speed>0.8</speed>
  <fix>3d</fix>
</trkpt>
<trkpt lat="40.0714533" lon="-105.2295591">
  <ele>1583.0</ele>
  <time>2026-08-28T17:56:47Z</time>
  <course>248.94</course>
  <speed>0.08062257748298549</speed>
  <fix>3d</fix>
</trkpt>
<trkpt lat="40.0714533" lon="-105.2295591">
  <ele>1583.0</ele>
  <time>2026-08-28T17:56:47Z</time>
  <course>65.99</course>
  <speed>0.8</speed>
  <fix>3d</fix>
</trkpt>
<trkpt lat="40.0714533" lon="-105.2295591">
  <ele>1583.0</ele>
  <time>2026-08-28T17:56:47Z</time>
  <course>248.93</course>
  <speed>0.08062257748298549</speed>
  <fix>3d</fix>
</trkpt>
<trkpt lat="40.0714538" lon="-105.2295574">
  <ele>1583.0</ele>
  <time>2026-08-28T17:56:47Z</time>
  <course>65.99</course>
  <speed>0.8</speed>
  <fix>3d</fix>
</trkpt>
<trkpt lat="40.0714538" lon="-105.2295574">
  <ele>1583.0</ele>
  <time>2026-08-28T17:56:47Z</time>
  <course>248.92</course>
  <speed>0.08062257748298549</speed>
  <fix>3d</fix>
</trkpt>
<trkpt lat="40.0714538" lon="-105.2295574">
  <ele>1583.0</ele>
  <time>2026-08-28T17:56:47Z</time>
  <course>65.99</course>
  <speed>0.8</speed>
  <fix>3d</fix>
</trkpt>
<trkpt lat="40.0714538" lon="-105.2295574">
  <ele>1583.0</ele>
  <time>2026-08-28T17:56:47Z</time>
  <course>248.91</course>
  <speed>0.08062257748298549</speed>
  <fix>3d</fix>
</trkpt>
<trkpt lat="40.0714544" lon="-105.2295557">
  <ele>1583.0</ele>
  <time>2026-08-28T17:56:47Z</time>
  <course>65.99</course>
  <speed>0.8</speed>
  <fix>3d</fix>
</trkpt>
<trkpt lat="40.0714544" lon="-105.2295557">
  <ele>1583.0</ele>
  <time>2026-08-28T17:56:47Z</time>
  <course>248.9</course>
  <speed>0.08062257748298549</speed>
  <fix>3d</fix>
</trkpt>
<trkpt lat="40.0714544" lon="-105.2295557">
  <ele>1583.0</ele>
  <time>2026-08-28T17:56:47Z</time>
  <course>65.99</course>
  <speed>0.8</speed>
  <fix>3d</fix>
</trkpt>
<trkpt lat="40.0714544" lon="-105.2295557">
  <ele>1583.0</ele>
  <time>2026-08-28T17:56:47Z</time>
  <course>248.89</course>
  <speed>0.08062257748298549</speed>
  <fix>3d</fix>
</trkpt>
<trkpt lat="40.071455" lon="-105.2295539">
  <ele>1583.0</ele>
  <time>2026-08-28T17:56:47Z</time>
  <course>65.99</course>
  <speed>0.8</speed>
  <fix>3d</fix>
</trkpt>
<trkpt lat="40.071455" lon="-105.2295539">
  <ele>1583.0</ele>
  <time>2026-08-28T17:56:47Z</time>
  <course>248.88</course>
  <speed>0.07211102550927978</speed>
  <fix>3d</fix>
</trkpt>
<trkpt lat="40.071455" lon="-105.2295539">
  <ele>1583.0</ele>
  <time>2026-08-28T17:56:47Z</time>
  <course>65.99</course>
  <speed>0.8</speed>
  <fix>3d</fix>
</trkpt>
<trkpt lat="40.071455" lon="-105.2295539">
  <ele>1583.0</ele>
  <time>2026-08-28T17:56:47Z</time>
  <course>248.87</course>
  <speed>0.07211102550927978</speed>
  <fix>3d</fix>
</trkpt>
<trkpt lat="40.071455" lon="-105.2295539">
  <ele>1583.0</ele>
  <time>2026-08-28T17:56:47Z</time>
  <course>65.99</course>
  <speed>0.8</speed>
  <fix>3d</fix>
</trkpt>
<trkpt lat="40.0714555" lon="-105.2295522">
  <ele>1583.0</ele>
  <time>2026-08-28T17:56:47Z</time>
  <course>248.86</course>
  <speed>0.07211102550927978</speed>
  <fix>3d</fix>
</trkpt>
<trkpt lat="40.0714555" lon="-105.2295522">
  <ele>1583.0</ele>
  <time>2026-08-28T17:56:47Z</time>
  <course>65.99</course>
  <speed>0.8</speed>
  <fix>3d</fix>
</trkpt>
<trkpt lat="40.0714555" lon="-105.2295522">
  <ele>1583.0</ele>
  <time>2026-08-28T17:56:47Z</time>
  <course>248.85</course>
  <speed>0.07211102550927978</speed>
  <fix>3d</fix>
</trkpt>
<trkpt lat="40.0714555" lon="-105.2295522">
  <ele>1583.0</ele>
  <time>2026-08-28T17:56:47Z</time>
  <course>65.99</course>
  <speed>0.8</speed>
  <fix>3d</fix>
</trkpt>
<trkpt lat="40.0714562" lon="-105.2295505">
  <ele>1583.0</ele>
  <time>2026-08-28T17:56:47Z</time>
  <course>248.84</course>
  <speed>0.07211102550927978</speed>
  <fix>3d</fix>
</trkpt>
<trkpt lat="40.0714562" lon="-105.2295505">
  <ele>1583.0</ele>
  <time>2026-08-28T17:56:47Z</time>
  <course>65.99</course>
  <speed>0.8</speed>
  <fix>3d</fix>
</trkpt>
<trkpt lat="40.0714562" lon="-105.2295505">
  <ele>1583.0</ele>
  <time>2026-08-28T17:56:47Z</time>
  <course>248.83</course>
  <speed>0.07211102550927978</speed>
  <fix>3d</fix>
</trkpt>
<trkpt lat="40.0714562" lon="-105.2295505">
  <ele>1583.0</ele>
  <time>2026-08-28T17:56:47Z</time>
  <course>65.99</course>
  <speed>0.8</speed>
  <fix>3d</fix>
</trkpt>
<trkpt lat="40.0714567" lon="-105.2295488">
  <ele>1583.0</ele>
  <time>2026-08-28T17:56:47Z</time>
  <course>248.82</course>
  <speed>0.07211102550927978</speed>
  <fix>3d</fix>
</trkpt>
<trkpt lat="40.0714567" lon="-105.2295488">
  <ele>1583.0</ele>
  <time>2026-08-28T17:56:47Z</time>
  <course>65.99</course>
  <speed>0.8</speed>
  <fix>3d</fix>
</trkpt>
<trkpt lat="40.0714567" lon="-105.2295488">
  <ele>1583.0</ele>
  <time>2026-08-28T17:56:47Z</time>
  <course>248.81</course>
  <speed>0.07211102550927978</speed>
  <fix>3d</fix>
</trkpt>
<trkpt lat="40.0714567" lon="-105.2295488">
  <ele>1583.0</ele>
  <time>2026-08-28T17:56:47Z</time>
  <course>65.99</course>
  <speed>0.8</speed>
  <fix>3d</fix>
</trkpt>
<trkpt lat="40.0714574" lon="-105.2295471">
  <ele>1583.0</ele>
  <time>2026-08-28T17:56:47Z</time>
  <course>248.8</course>
  <speed>0.07211102550927978</speed>
  <fix>3d</fix>
</trkpt>
<trkpt lat="40.0714574" lon="-105.2295471">
  <ele>1583.0</ele>
  <time>2026-08-28T17:56:47Z</time>
  <course>65.99</course>
  <speed>0.8</speed>
  <fix>3d</fix>
</trkpt>
<trkpt lat="40.0714574" lon="-105.2295471">
  <ele>1583.0</ele>
  <time>2026-08-28T17:56:47Z</time>
  <course>248.79</course>
  <speed>0.07211102550927978</speed>
  <fix>3d</fix>
</trkpt>
<trkpt lat="40.0714579" lon="-105.2295453">
  <ele>1583.0</ele>
  <time>2026-08-28T17:56:47Z</time>
  <course>65.99</course>
  <speed>0.8</speed>
  <fix>3d</fix>
</trkpt>
<trkpt lat="40.0714579" lon="-105.2295453">
  <ele>1583.0</ele>
  <time>2026-08-28T17:56:47Z</time>
  <course>248.78</course>
  <speed>0.07211102550927978</speed>
  <fix>3d</fix>
</trkpt>
<trkpt lat="40.0714579" lon="-105.2295453">
  <ele>1583.0</ele>
  <time>2026-08-28T17:56:47Z</time>
  <course>65.99</course>
  <speed>0.8</speed>
  <fix>3d</fix>
</trkpt>
<trkpt lat="40.0714579" lon="-105.2295453">
  <ele>1583.0</ele>
  <time>2026-08-28T17:56:47Z</time>
  <course>248.78</course>
  <speed>0.07211102550927978</speed>
  <fix>3d</fix>
</trkpt>
<trkpt lat="40.0714585" lon="-105.2295436">
  <ele>1583.0</ele>
  <time>2026-08-28T17:56:47Z</time>
  <course>65.99</course>
  <speed>0.8</speed>
  <fix>3d</fix>
</trkpt>
<trkpt lat="40.0714585" lon="-105.2295436">
  <ele>1583.0</ele>
  <time>2026-08-28T17:56:47Z</time>
  <course>248.77</course>
  <speed>0.07211102550927978</speed>
  <fix>3d</fix>
</trkpt>
<trkpt lat="40.0714585" lon="-105.2295436">
  <ele>1583.0</ele>
  <time>2026-08-28T17:56:47Z</time>
  <course>65.99</course>
  <speed>0.8</speed>
  <fix>3d</fix>
</trkpt>
<trkpt lat="40.0714585" lon="-105.2295436">
  <ele>1583.0</ele>
  <time>2026-08-28T17:56:47Z</time>
  <course>248.76</course>
  <speed>0.07211102550927978</speed>
  <fix>3d</fix>
</trkpt>
<trkpt lat="40.0714591" lon="-105.2295419">
  <ele>1583.0</ele>
  <time>2026-08-28T17:56:47Z</time>
  <course>65.99</course>
  <speed>0.8</speed>
  <fix>3d</fix>
</trkpt>
<trkpt lat="40.0714591" lon="-105.2295419">
  <ele>1583.0</ele>
  <time>2026-08-28T17:56:47Z</time>
  <course>248.75</course>
  <speed>0.07211102550927978</speed>
  <fix>3d</fix>
</trkpt>
<trkpt lat="40.0714591" lon="-105.2295419">
  <ele>1583.0</ele>
  <time>2026-08-28T17:56:47Z</time>
  <course>65.99</course>
  <speed>0.8</speed>
  <fix>3d</fix>
</trkpt>
<trkpt lat="40.0714591" lon="-105.2295419">
  <ele>1583.0</ele>
  <time>2026-08-28T17:56:47Z</time>
  <course>248.74</course>
  <speed>0.07211102550927978</speed>
  <fix>3d</fix>
</trkpt>
<trkpt lat="40.0714596" lon="-105.2295402">
  <ele>1583.0</ele>
  <time>2026-08-28T17:56:47Z</time>
  <course>65.99</course>
  <speed>0.8</speed>
  <fix>3d</fix>
</trkpt>
<trkpt lat="40.0714596" lon="-105.2295402">
  <ele>1583.0</ele>
  <time>2026-08-28T17:56:47Z</time>
  <course>248.73</course>
  <speed>0.07211102550927978</speed>
  <fix>3d</fix>
</trkpt>
<trkpt lat="40.0714596" lon="-105.2295402">
  <ele>1583.0</ele>
  <time>2026-08-28T17:56:47Z</time>
  <course>65.99</course>
  <speed>0.8</speed>
  <fix>3d</fix>
</trkpt>
<trkpt lat="40.0714596" lon="-105.2295402">
  <ele>1583.0</ele>
  <time>2026-08-28T17:56:47Z</time>
  <course>248.72</course>
  <speed>0.07211102550927978</speed>
  <fix>3d</fix>
</trkpt>
<trkpt lat="40.0714603" lon="-105.2295385">
  <ele>1583.0</ele>
  <time>2026-08-28T17:56:47Z</time>
  <course>65.99</course>
  <speed>0.8</speed>
  <fix>3d</fix>
</trkpt>
<trkpt lat="40.0714603" lon="-105.2295385">
  <ele>1583.0</ele>
  <time>2026-08-28T17:56:47Z</time>
  <course>248.71</course>
  <speed>0.07211102550927978</speed>
  <fix>3d</fix>
</trkpt>
<trkpt lat="40.0714603" lon="-105.2295385">
  <ele>1583.0</ele>
  <time>2026-08-28T17:56:47Z</time>
  <course>65.99</course>
  <speed>0.8</speed>
  <fix>3d</fix>
</trkpt>
<trkpt lat="40.0714603" lon="-105.2295385">
  <ele>1583.0</ele>
  <time>2026-08-28T17:56:47Z</time>
  <course>248.7</course>
  <speed>0.07211102550927978</speed>
  <fix>3d</fix>
</trkpt>
<trkpt lat="40.0714609" lon="-105.2295368">
  <ele>1583.0</ele>
  <time>2026-08-28T17:56:47Z</time>
  <course>65.99</course>
  <speed>0.8</speed>
  <fix>3d</fix>
</trkpt>
<trkpt lat="40.0714609" lon="-105.2295368">
  <ele>1583.0</ele>
  <time>2026-08-28T17:56:47Z</time>
  <course>248.69</course>
  <speed>0.07211102550927978</speed>
  <fix>3d</fix>
</trkpt>
<trkpt lat="40.0714609" lon="-105.2295368">
  <ele>1583.0</ele>
  <time>2026-08-28T17:56:47Z</time>
  <course>65.99</course>
  <speed>0.8</speed>
  <fix>3d</fix>
</trkpt>
<trkpt lat="40.0714609" lon="-105.2295368">
  <ele>1583.0</ele>
  <time>2026-08-28T17:56:47Z</time>
  <course>248.69</course>
  <speed>0.07211102550927978</speed>
  <fix>3d</fix>
</trkpt>
<trkpt lat="40.0714615" lon="-105.229535">
  <ele>1583.0</ele>
  <time>2026-08-28T17:56:47Z</time>
  <course>65.99</course>
  <speed>0.8</speed>
  <fix>3d</fix>
</trkpt>
<trkpt lat="40.0714615" lon="-105.229535">
  <ele>1583.0</ele>
  <time>2026-08-28T17:56:47Z</time>
  <course>248.68</course>
  <speed>0.07211102550927978</speed>
  <fix>3d</fix>
</trkpt>
<trkpt lat="40.0714615" lon="-105.229535">
  <ele>1583.0</ele>
  <time>2026-08-28T17:56:47Z</time>
  <course>65.99</course>
  <speed>0.8</speed>
  <fix>3d</fix>
</trkpt>
<trkpt lat="40.0714615" lon="-105.229535">
  <ele>1583.0</ele>
  <time>2026-08-28T17:56:47Z</time>
  <course>248.67</course>
  <speed>0.07211102550927978</speed>
  <fix>3d</fix>
</trkpt>
<trkpt lat="40.0714615" lon="-105.229535">
  <ele>1583.0</ele>
  <time>2026-08-28T17:56:47Z</time>
  <course>65.99</course>
  <speed>0.8</speed>
  <fix>3d</fix>
</trkpt>
<trkpt lat="40.0714621" lon="-105.2295333">
  <ele>1583.0</ele>
  <time>2026-08-28T17:56:47Z</time>
  <course>248.66</course>
  <speed>0.06403124237432849</speed>
  <fix>3d</fix>
</trkpt>
<trkpt lat="40.0714621" lon="-105.2295333">
  <ele>1583.0</ele>
  <time>2026-08-28T17:56:47Z</time>
  <course>65.99</course>
  <speed>0.8</speed>
  <fix>3d</fix>
</trkpt>
<trkpt lat="40.0714621" lon="-105.2295333">
  <ele>1583.0</ele>
  <time>2026-08-28T17:56:47Z</time>
  <course>248.65</course>
  <speed>0.06403124237432849</speed>
  <fix>3d</fix>
</trkpt>
<trkpt lat="40.0714621" lon="-105.2295333">
  <ele>1583.0</ele>
  <time>2026-08-28T17:56:47Z</time>
  <course>65.99</course>
  <speed>0.8</speed>
  <fix>3d</fix>
</trkpt>
<trkpt lat="40.0714626" lon="-105.2295316">
  <ele>1583.0</ele>
  <time>2026-08-28T17:56:47Z</time>
  <course>248.64</course>
  <speed>0.06403124237432849</speed>
  <fix>3d</fix>
</trkpt>
<trkpt lat="40.0714626" lon="-105.2295316">
  <ele>1583.0</ele>
  <time>2026-08-28T17:56:47Z</time>
  <course>65.99</course>
  <speed>0.8</speed>
  <fix>3d</fix>
</trkpt>
<trkpt lat="40.0714626" lon="-105.2295316">
  <ele>1583.0</ele>
  <time>2026-08-28T17:56:47Z</time>
  <course>248.64</course>
  <speed>0.06403124237432849</speed>
  <fix>3d</fix>
</trkpt>
<trkpt lat="40.0714626" lon="-105.2295316">
  <ele>1583.0</ele>
  <time>2026-08-28T17:56:47Z</time>
  <course>65.99</course>
  <speed>0.8</speed>
  <fix>3d</fix>
</trkpt>
<trkpt lat="40.0714631" lon="-105.2295299">
  <ele>1583.0</ele>
  <time>2026-08-28T17:56:47Z</time>
  <course>248.63</course>
  <speed>0.06403124237432849</speed>
  <fix>3d</fix>
</trkpt>
<trkpt lat="40.0714631" lon="-105.2295299">
  <ele>1583.0</ele>
  <time>2026-08-28T17:56:47Z</time>
  <course>65.99</course>
  <speed>0.8</speed>
  <fix>3d</fix>
</trkpt>
<trkpt lat="40.0714631" lon="-105.2295299">
  <ele>1583.0</ele>
  <time>2026-08-28T17:56:47Z</time>
  <course>248.62</course>
  <speed>0.06403124237432849</speed>
  <fix>3d</fix>
</trkpt>
<trkpt lat="40.0714638" lon="-105.2295282">
  <ele>1583.0</ele>
  <time>2026-08-28T17:56:47Z</time>
  <course>65.99</course>
  <speed>0.8</speed>
  <fix>3d</fix>
</trkpt>
<trkpt lat="40.0714638" lon="-105.2295282">
  <ele>1583.0</ele>
  <time>2026-08-28T17:56:47Z</time>
  <course>248.61</course>
  <speed>0.06403124237432849</speed>
  <fix>3d</fix>
</trkpt>
<trkpt lat="40.0714638" lon="-105.2295282">
  <ele>1583.0</ele>
  <time>2026-08-28T17:56:47Z</time>
  <course>65.99</course>
  <speed>0.8</speed>
  <fix>3d</fix>
</trkpt>
<trkpt lat="40.0714638" lon="-105.2295282">
  <ele>1583.0</ele>
  <time>2026-08-28T17:56:47Z</time>
  <course>248.6</course>
  <speed>0.06403124237432849</speed>
  <fix>3d</fix>
</trkpt>
<trkpt lat="40.0714643" lon="-105.2295264">
  <ele>1583.0</ele>
  <time>2026-08-28T17:56:47Z</time>
  <course>65.99</course>
  <speed>0.8</speed>
  <fix>3d</fix>
</trkpt>
<trkpt lat="40.0714643" lon="-105.2295264">
  <ele>1583.0</ele>
  <time>2026-08-28T17:56:47Z</time>
  <course>248.59</course>
  <speed>0.06403124237432849</speed>
  <fix>3d</fix>
</trkpt>
<trkpt lat="40.0714643" lon="-105.2295264">
  <ele>1583.0</ele>
  <time>2026-08-28T17:56:47Z</time>
  <course>65.99</course>
  <speed>0.8</speed>
  <fix>3d</fix>
</trkpt>
<trkpt lat="40.0714643" lon="-105.2295264">
  <ele>1583.0</ele>
  <time>2026-08-28T17:56:47Z</time>
  <course>248.59</course>
  <speed>0.06403124237432849</speed>
  <fix>3d</fix>
</trkpt>
<trkpt lat="40.071465" lon="-105.2295247">
  <ele>1583.0</ele>
  <time>2026-08-28T17:56:47Z</time>
  <course>65.99</course>
  <speed>0.8</speed>
  <fix>3d</fix>
</trkpt>
<trkpt lat="40.071465" lon="-105.2295247">
  <ele>1583.0</ele>
  <time>2026-08-28T17:56:47Z</time>
  <course>248.58</course>
  <speed>0.06403124237432849</speed>
  <fix>3d</fix>
</trkpt>
<trkpt lat="40.071465" lon="-105.2295247">
  <ele>1583.0</ele>
  <time>2026-08-28T17:56:47Z</time>
  <course>65.99</course>
  <speed>0.8</speed>
  <fix>3d</fix>
</trkpt>
<trkpt lat="40.071465" lon="-105.2295247">
  <ele>1583.0</ele>
  <time>2026-08-28T17:56:47Z</time>
  <course>248.57</course>
  <speed>0.06403124237432849</speed>
  <fix>3d</fix>
</trkpt>
<trkpt lat="40.0714655" lon="-105.229523">
  <ele>1583.0</ele>
  <time>2026-08-28T17:56:47Z</time>
  <course>65.99</course>
  <speed>0.8</speed>
  <fix>3d</fix>
</trkpt>
<trkpt lat="40.0714655" lon="-105.229523">
  <ele>1583.0</ele>
  <time>2026-08-28T17:56:47Z</time>
  <course>248.56</course>
  <speed>0.06403124237432849</speed>
  <fix>3d</fix>
</trkpt>
<trkpt lat="40.0714655" lon="-105.229523">
  <ele>1583.0</ele>
  <time>2026-08-28T17:56:47Z</time>
  <course>65.99</course>
  <speed>0.8</speed>
  <fix>3d</fix>
</trkpt>
<trkpt lat="40.0714655" lon="-105.229523">
  <ele>1583.0</ele>
  <time>2026-08-28T17:56:47Z</time>
  <course>248.55</course>
  <speed>0.06403124237432849</speed>
  <fix>3d</fix>
</trkpt>
<trkpt lat="40.0714662" lon="-105.2295213">
  <ele>1583.0</ele>
  <time>2026-08-28T17:56:47Z</time>
  <course>65.99</course>
  <speed>0.8</speed>
  <fix>3d</fix>
</trkpt>
<trkpt lat="40.0714662" lon="-105.2295213">
  <ele>1583.0</ele>
  <time>2026-08-28T17:56:47Z</time>
  <course>248.55</course>
  <speed>0.06403124237432849</speed>
  <fix>3d</fix>
</trkpt>
<trkpt lat="40.0714662" lon="-105.2295213">
  <ele>1583.0</ele>
  <time>2026-08-28T17:56:47Z</time>
  <course>65.99</course>
  <speed>0.8</speed>
  <fix>3d</fix>
</trkpt>
<trkpt lat="40.0714662" lon="-105.2295213">
  <ele>1583.0</ele>
  <time>2026-08-28T17:56:47Z</time>
  <course>248.54</course>
  <speed>0.06403124237432849</speed>
  <fix>3d</fix>
</trkpt>
<trkpt lat="40.0714667" lon="-105.2295196">
  <ele>1583.0</ele>
  <time>2026-08-28T17:56:47Z</time>
  <course>65.99</course>
  <speed>0.8</speed>
  <fix>3d</fix>
</trkpt>
<trkpt lat="40.0714667" lon="-105.2295196">
  <ele>1583.0</ele>
  <time>2026-08-28T17:56:47Z</time>
  <course>248.53</course>
  <speed>0.06403124237432849</speed>
  <fix>3d</fix>
</trkpt>
<trkpt lat="40.0714667" lon="-105.2295196">
  <ele>1583.0</ele>
  <time>2026-08-28T17:56:47Z</time>
  <course>65.99</course>
  <speed>0.8</speed>
  <fix>3d</fix>
</trkpt>
<trkpt lat="40.0714667" lon="-105.2295196">
  <ele>1583.0</ele>
  <time>2026-08-28T17:56:47Z</time>
  <course>248.52</course>
  <speed>0.06403124237432849</speed>
  <fix>3d</fix>
</trkpt>
<trkpt lat="40.0714672" lon="-105.2295178">
  <ele>1583.0</ele>
  <time>2026-08-28T17:56:47Z</time>
  <course>65.99</course>
  <speed>0.8</speed>
  <fix>3d</fix>
</trkpt>
<trkpt lat="40.0714672" lon="-105.2295178">
  <ele>1583.0</ele>
  <time>2026-08-28T17:56:47Z</time>
  <course>248.52</course>
  <speed>0.06403124237432849</speed>
  <fix>3d</fix>
</trkpt>
<trkpt lat="40.0714672" lon="-105.2295178">
  <ele>1583.0</ele>
  <time>2026-08-28T17:56:47Z</time>
  <course>65.99</course>
  <speed>0.8</speed>
  <fix>3d</fix>
</trkpt>
<trkpt lat="40.0714672" lon="-105.2295178">
  <ele>1583.0</ele>
  <time>2026-08-28T17:56:47Z</time>
  <course>248.51</course>
  <speed>0.06403124237432849</speed>
  <fix>3d</fix>
</trkpt>
<trkpt lat="40.0714672" lon="-105.2295178">
  <ele>1583.0</ele>
  <time>2026-08-28T17:56:47Z</time>
  <course>65.99</course>
  <speed>0.8</speed>
  <fix>3d</fix>
</trkpt>
<trkpt lat="40.0714679" lon="-105.2295161">
  <ele>1583.0</ele>
  <time>2026-08-28T17:56:47Z</time>
  <course>248.5</course>
  <speed>0.06403124237432849</speed>
  <fix>3d</fix>
</trkpt>
<trkpt lat="40.0714679" lon="-105.2295161">
  <ele>1583.0</ele>
  <time>2026-08-28T17:56:47Z</time>
  <course>65.99</course>
  <speed>0.8</speed>
  <fix>3d</fix>
</trkpt>
<trkpt lat="40.0714679" lon="-105.2295161">
  <ele>1583.0</ele>
  <time>2026-08-28T17:56:47Z</time>
  <course>248.49</course>
  <speed>0.06403124237432849</speed>
  <fix>3d</fix>
</trkpt>
<trkpt lat="40.0714679" lon="-105.2295161">
  <ele>1583.0</ele>
  <time>2026-08-28T17:56:47Z</time>
  <course>65.99</course>
  <speed>0.8</speed>
  <fix>3d</fix>
</trkpt>
<trkpt lat="40.0714684" lon="-105.2295144">
  <ele>1583.0</ele>
  <time>2026-08-28T17:56:47Z</time>
  <course>248.48</course>
  <speed>0.06403124237432849</speed>
  <fix>3d</fix>
</trkpt>
<trkpt lat="40.0714684" lon="-105.2295144">
  <ele>1583.0</ele>
  <time>2026-08-28T17:56:47Z</time>
  <course>65.99</course>
  <speed>0.8</speed>
  <fix>3d</fix>
</trkpt>
<trkpt lat="40.0714684" lon="-105.2295144">
  <ele>1583.0</ele>
  <time>2026-08-28T17:56:47Z</time>
  <course>248.48</course>
  <speed>0.06403124237432849</speed>
  <fix>3d</fix>
</trkpt>
<trkpt lat="40.0714684" lon="-105.2295144">
  <ele>1583.0</ele>
  <time>2026-08-28T17:56:47Z</time>
  <course>65.99</course>
  <speed>0.8</speed>
  <fix>3d</fix>
</trkpt>
<trkpt lat="40.0714691" lon="-105.2295126">
  <ele>1583.0</ele>
  <time>2026-08-28T17:56:47Z</time>
  <course>248.47</course>
  <speed>0.06403124237432849</speed>
  <fix>3d</fix>
</trkpt>
<trkpt lat="40.0714691" lon="-105.2295126">
  <ele>1583.0</ele>
  <time>2026-08-28T17:56:47Z</time>
  <course>65.99</course>
  <speed>0.8</speed>
  <fix>3d</fix>
</trkpt>
<trkpt lat="40.0714691" lon="-105.2295126">
  <ele>1583.0</ele>
  <time>2026-08-28T17:56:47Z</time>
  <course>248.46</course>
  <speed>0.06403124237432849</speed>
  <fix>3d</fix>
</trkpt>
<trkpt lat="40.0714691" lon="-105.2295126">
  <ele>1583.0</ele>
  <time>2026-08-28T17:56:47Z</time>
  <course>65.99</course>
  <speed>0.8</speed>
  <fix>3d</fix>
</trkpt>
<trkpt lat="40.0714696" lon="-105.2295109">
  <ele>1583.0</ele>
  <time>2026-08-28T17:56:47Z</time>
  <course>248.46</course>
  <speed>0.06403124237432849</speed>
  <fix>3d</fix>
</trkpt>
<trkpt lat="40.0714696" lon="-105.2295109">
  <ele>1583.0</ele>
  <time>2026-08-28T17:56:47Z</time>
  <course>65.99</course>
  <speed>0.8</speed>
  <fix>3d</fix>
</trkpt>
<trkpt lat="40.0714696" lon="-105.2295109">
  <ele>1583.0</ele>
  <time>2026-08-28T17:56:47Z</time>
  <course>248.45</course>
  <speed>0.06403124237432849</speed>
  <fix>3d</fix>
</trkpt>
<trkpt lat="40.0714703" lon="-105.2295092">
  <ele>1583.0</ele>
  <time>2026-08-28T17:56:47Z</time>
  <course>65.99</course>
  <speed>0.8</speed>
  <fix>3d</fix>
</trkpt>
<trkpt lat="40.0714703" lon="-105.2295092">
  <ele>1583.0</ele>
  <time>2026-08-28T17:56:47Z</time>
  <course>248.44</course>
  <speed>0.06403124237432849</speed>
  <fix>3d</fix>
</trkpt>
<trkpt lat="40.0714703" lon="-105.2295092">
  <ele>1583.0</ele>
  <time>2026-08-28T17:56:47Z</time>
  <course>65.99</course>
  <speed>0.8</speed>
  <fix>3d</fix>
</trkpt>
<trkpt lat="40.0714703" lon="-105.2295092">
  <ele>1583.0</ele>
  <time>2026-08-28T17:56:47Z</time>
  <course>248.43</course>
  <speed>0.06403124237432849</speed>
  <fix>3d</fix>
</trkpt>
<trkpt lat="40.0714708" lon="-105.2295075">
  <ele>1583.0</ele>
  <time>2026-08-28T17:56:47Z</time>
  <course>65.99</course>
  <speed>0.8</speed>
  <fix>3d</fix>
</trkpt>
<trkpt lat="40.0714708" lon="-105.2295075">
  <ele>1583.0</ele>
  <time>2026-08-28T17:56:47Z</time>
  <course>248.43</course>
  <speed>0.06403124237432849</speed>
  <fix>3d</fix>
</trkpt>
<trkpt lat="40.0714708" lon="-105.2295075">
  <ele>1583.0</ele>
  <time>2026-08-28T17:56:47Z</time>
  <course>65.99</course>
  <speed>0.8</speed>
  <fix>3d</fix>
</trkpt>
<trkpt lat="40.0714708" lon="-105.2295075">
  <ele>1583.0</ele>
  <time>2026-08-28T17:56:47Z</time>
  <course>248.42</course>
  <speed>0.06403124237432849</speed>
  <fix>3d</fix>
</trkpt>
<trkpt lat="40.0714714" lon="-105.2295058">
  <ele>1583.0</ele>
  <time>2026-08-28T17:56:47Z</time>
  <course>65.99</course>
  <speed>0.8</speed>
  <fix>3d</fix>
</trkpt>
<trkpt lat="40.0714714" lon="-105.2295058">
  <ele>1583.0</ele>
  <time>2026-08-28T17:56:47Z</time>
  <course>248.41</course>
  <speed>0.06403124237432849</speed>
  <fix>3d</fix>
</trkpt>
<trkpt lat="40.0714714" lon="-105.2295058">
  <ele>1583.0</ele>
  <time>2026-08-28T17:56:47Z</time>
  <course>65.99</course>
  <speed>0.8</speed>
  <fix>3d</fix>
</trkpt>
<trkpt lat="40.0714714" lon="-105.2295058">
  <ele>1583.0</ele>
  <time>2026-08-28T17:56:47Z</time>
  <course>248.4</course>
  <speed>0.06403124237432849</speed>
  <fix>3d</fix>
</trkpt>
<trkpt lat="40.071472" lon="-105.2295041">
  <ele>1583.0</ele>
  <time>2026-08-28T17:56:47Z</time>
  <course>65.99</course>
  <speed>0.8</speed>
  <fix>3d</fix>
</trkpt>
<trkpt lat="40.071472" lon="-105.2295041">
  <ele>1583.0</ele>
  <time>2026-08-28T17:56:47Z</time>
  <course>248.4</course>
  <speed>0.06403124237432849</speed>
  <fix>3d</fix>
</trkpt>
<trkpt lat="40.071472" lon="-105.2295041">
  <ele>1583.0</ele>
  <time>2026-08-28T17:56:47Z</time>
  <course>65.99</course>
  <speed>0.8</speed>
  <fix>3d</fix>
</trkpt>
<trkpt lat="40.071472" lon="-105.2295041">
  <ele>1583.0</ele>
  <time>2026-08-28T17:56:47Z</time>
  <course>248.39</course>
  <speed>0.06403124237432849</speed>
  <fix>3d</fix>
</trkpt>
<trkpt lat="40.0714725" lon="-105.2295024">
  <ele>1583.0</ele>
  <time>2026-08-28T17:56:47Z</time>
  <course>65.99</course>
  <speed>0.8</speed>
  <fix>3d</fix>
</trkpt>
<trkpt lat="40.0714725" lon="-105.2295024">
  <ele>1583.0</ele>
  <time>2026-08-28T17:56:47Z</time>
  <course>248.38</course>
  <speed>0.0565685424949238</speed>
  <fix>3d</fix>
</trkpt>
<trkpt lat="40.0714725" lon="-105.2295024">
  <ele>1583.0</ele>
  <time>2026-08-28T17:56:47Z</time>
  <course>65.99</course>
  <speed>0.8</speed>
  <fix>3d</fix>
</trkpt>
<trkpt lat="40.0714725" lon="-105.2295024">
  <ele>1583.0</ele>
  <time>2026-08-28T17:56:47Z</time>
  <course>248.38</course>
  <speed>0.0565685424949238</speed>
  <fix>3d</fix>
</trkpt>
<trkpt lat="40.0714732" lon="-105.2295006">
  <ele>1583.0</ele>
  <time>2026-08-28T17:56:47Z</time>
  <course>65.99</course>
  <speed>0.8</speed>
  <fix>3d</fix>
</trkpt>
<trkpt lat="40.0714732" lon="-105.2295006">
  <ele>1583.0</ele>
  <time>2026-08-28T17:56:47Z</time>
  <course>248.37</course>
  <speed>0.0565685424949238</speed>
  <fix>3d</fix>
</trkpt>
<trkpt lat="40.0714732" lon="-105.2295006">
  <ele>1583.0</ele>
  <time>2026-08-28T17:56:47Z</time>
  <course>65.99</course>
  <speed>0.8</speed>
  <fix>3d</fix>
</trkpt>
<trkpt lat="40.0714732" lon="-105.2295006">
  <ele>1583.0</ele>
  <time>2026-08-28T17:56:47Z</time>
  <course>248.36</course>
  <speed>0.0565685424949238</speed>
  <fix>3d</fix>
</trkpt>
<trkpt lat="40.0714732" lon="-105.2295006">
  <ele>1583.0</ele>
  <time>2026-08-28T17:56:47Z</time>
  <course>65.99</course>
  <speed>0.8</speed>
  <fix>3d</fix>
</trkpt>
<trkpt lat="40.0714737" lon="-105.2294989">
  <ele>1583.0</ele>
  <time>2026-08-28T17:56:47Z</time>
  <course>248.36</course>
  <speed>0.0565685424949238</speed>
  <fix>3d</fix>
</trkpt>
<trkpt lat="40.0714737" lon="-105.2294989">
  <ele>1583.0</ele>
  <time>2026-08-28T17:56:47Z</time>
  <course>65.99</course>
  <speed>0.8</speed>
  <fix>3d</fix>
</trkpt>
<trkpt lat="40.0714737" lon="-105.2294989">
  <ele>1583.0</ele>
  <time>2026-08-28T17:56:47Z</time>
  <course>248.35</course>
  <speed>0.0565685424949238</speed>
  <fix>3d</fix>
</trkpt>
<trkpt lat="40.0714737" lon="-105.2294989">
  <ele>1583.0</ele>
  <time>2026-08-28T17:56:47Z</time>
  <course>65.99</course>
  <speed>0.8</speed>
  <fix>3d</fix>
</trkpt>
<trkpt lat="40.0714744" lon="-105.2294972">
  <ele>1583.0</ele>
  <time>2026-08-28T17:56:47Z</time>
  <course>248.34</course>
  <speed>0.0565685424949238</speed>
  <fix>3d</fix>
</trkpt>
<trkpt lat="40.0714744" lon="-105.2294972">
  <ele>1583.0</ele>
  <time>2026-08-28T17:56:47Z</time>
  <course>65.99</course>
  <speed>0.8</speed>
  <fix>3d</fix>
</trkpt>
<trkpt lat="40.0714744" lon="-105.2294972">
  <ele>1583.0</ele>
  <time>2026-08-28T17:56:47Z</time>
  <course>248.33</course>
  <speed>0.0565685424949238</speed>
  <fix>3d</fix>
</trkpt>
<trkpt lat="40.0714744" lon="-105.2294972">
  <ele>1583.0</ele>
  <time>2026-08-28T17:56:47Z</time>
  <course>65.99</course>
  <speed>0.8</speed>
  <fix>3d</fix>
</trkpt>
<trkpt lat="40.0714749" lon="-105.2294955">
  <ele>1583.0</ele>
  <time>2026-08-28T17:56:47Z</time>
  <course>248.33</course>
  <speed>0.0565685424949238</speed>
  <fix>3d</fix>
</trkpt>
<trkpt lat="40.0714749" lon="-105.2294955">
  <ele>1583.0</ele>
  <time>2026-08-28T17:56:47Z</time>
  <course>65.99</course>
  <speed>0.8</speed>
  <fix>3d</fix>
</trkpt>
<trkpt lat="40.0714749" lon="-105.2294955">
  <ele>1583.0</ele>
  <time>2026-08-28T17:56:47Z</time>
  <course>248.32</course>
  <speed>0.0565685424949238</speed>
  <fix>3d</fix>
</trkpt>
<trkpt lat="40.0714749" lon="-105.2294955">
  <ele>1583.0</ele>
  <time>2026-08-28T17:56:47Z</time>
  <course>65.99</course>
  <speed>0.8</speed>
  <fix>3d</fix>
</trkpt>
<trkpt lat="40.0714755" lon="-105.2294937">
  <ele>1583.0</ele>
  <time>2026-08-28T17:56:47Z</time>
  <course>248.31</course>
  <speed>0.0565685424949238</speed>
  <fix>3d</fix>
</trkpt>
<trkpt lat="40.0714755" lon="-105.2294937">
  <ele>1583.0</ele>
  <time>2026-08-28T17:56:47Z</time>
  <course>65.99</course>
  <speed>0.8</speed>
  <fix>3d</fix>
</trkpt>
<trkpt lat="40.0714755" lon="-105.2294937">
  <ele>1583.0</ele>
  <time>2026-08-28T17:56:47Z</time>
  <course>248.31</course>
  <speed>0.0565685424949238</speed>
  <fix>3d</fix>
</trkpt>
<trkpt lat="40.0714761" lon="-105.229492">
  <ele>1583.0</ele>
  <time>2026-08-28T17:56:47Z</time>
  <course>65.99</course>
  <speed>0.8</speed>
  <fix>3d</fix>
</trkpt>
<trkpt lat="40.0714763" lon="-105.2294913">
  <ele>1582.95</ele>
  <time>2026-08-28T17:56:47Z</time>
  <course>248.3</course>
  <speed>0.797057087039567</speed>
  <fix>3d</fix>
</trkpt>
<trkpt lat="40.0714761" lon="-105.229492">
  <ele>1583.0</ele>
  <time>2026-08-28T17:56:47Z</time>
  <course>65.99</course>
  <speed>0.8</speed>
  <fix>3d</fix>
</trkpt>
<trkpt lat="40.0714767" lon="-105.2294901">
  <ele>1582.95</ele>
  <time>2026-08-28T17:56:47Z</time>
  <course>248.3</course>
  <speed>0.797057087039567</speed>
  <fix>3d</fix>
</trkpt>
<trkpt lat="40.0714767" lon="-105.2294903">
  <ele>1583.0</ele>
  <time>2026-08-28T17:56:47Z</time>
  <course>65.99</course>
  <speed>0.8</speed>
  <fix>3d</fix>
</trkpt>
<trkpt lat="40.0714771" lon="-105.2294889">
  <ele>1582.94</ele>
  <time>2026-08-28T17:56:47Z</time>
  <course>248.29</course>
  <speed>0.797057087039567</speed>
  <fix>3d</fix>
</trkpt>
<trkpt lat="40.0714767" lon="-105.2294903">
  <ele>1583.0</ele>
  <time>2026-08-28T17:56:47Z</time>
  <course>65.99</course>
  <speed>0.8</speed>
  <fix>3d</fix>
</trkpt>
<trkpt lat="40.0714774" lon="-105.2294879">
  <ele>1582.94</ele>
  <time>2026-08-28T17:56:47Z</time>
  <course>248.28</course>
  <speed>0.8011242100947892</speed>
  <fix>3d</fix>
</trkpt>
<trkpt lat="40.0714773" lon="-105.2294886">
  <ele>1583.0</ele>
  <time>2026-08-28T17:56:47Z</time>
  <course>65.99</course>
  <speed>0.8</speed>
  <fix>3d</fix>
</trkpt>
<trkpt lat="40.0714778" lon="-105.2294869">
  <ele>1582.94</ele>
  <time>2026-08-28T17:56:47Z</time>
  <course>248.28</course>
  <speed>0.8011242100947892</speed>
  <fix>3d</fix>
</trkpt>
<trkpt lat="40.0714773" lon="-105.2294886">
  <ele>1583.0</ele>
  <time>2026-08-28T17:56:47Z</time>
  <course>65.99</course>
  <speed>0.8</speed>
  <fix>3d</fix>
</trkpt>
<trkpt lat="40.0714781" lon="-105.2294859">
  <ele>1582.93</ele>
  <time>2026-08-28T17:56:47Z</time>
  <course>248.27</course>
  <speed>0.8011242100947892</speed>
  <fix>3d</fix>
</trkpt>
<trkpt lat="40.0714779" lon="-105.2294869">
  <ele>1583.0</ele>
  <time>2026-08-28T17:56:47Z</time>
  <course>65.99</course>
  <speed>0.8</speed>
  <fix>3d</fix>
</trkpt>
<trkpt lat="40.0714785" lon="-105.229485">
  <ele>1582.93</ele>
  <time>2026-08-28T17:56:47Z</time>
  <course>248.26</course>
  <speed>0.8011242100947892</speed>
  <fix>3d</fix>
</trkpt>
<trkpt lat="40.0714779" lon="-105.2294869">
  <ele>1583.0</ele>
  <time>2026-08-28T17:56:47Z</time>
  <course>65.99</course>
  <speed>0.8</speed>
  <fix>3d</fix>
</trkpt>
<trkpt lat="40.0714788" lon="-105.2294841">
  <ele>1582.93</ele>
  <time>2026-08-28T17:56:47Z</time>
  <course>248.26</course>
  <speed>0.8102468759581859</speed>
  <fix>3d</fix>
</trkpt>
<trkpt lat="40.0714785" lon="-105.2294852">
  <ele>1583.0</ele>
  <time>2026-08-28T17:56:47Z</time>
  <course>65.99</course>
  <speed>0.8</speed>
  <fix>3d</fix>
</trkpt>
<trkpt lat="40.0714791" lon="-105.2294832">
  <ele>1582.93</ele>
  <time>2026-08-28T17:56:47Z</time>
  <course>248.25</course>
  <speed>0.8102468759581859</speed>
  <fix>3d</fix>
</trkpt>
<trkpt lat="40.0714785" lon="-105.2294852">
  <ele>1583.0</ele>
  <time>2026-08-28T17:56:47Z</time>
  <course>65.99</course>
  <speed>0.8</speed>
  <fix>3d</fix>
</trkpt>
<trkpt lat="40.0714794" lon="-105.2294823">
  <ele>1582.93</ele>
  <time>2026-08-28T17:56:47Z</time>
  <course>248.25</course>
  <speed>0.8143709228600933</speed>
  <fix>3d</fix>
</trkpt>
<trkpt lat="40.0714791" lon="-105.2294834">
  <ele>1583.0</ele>
  <time>2026-08-28T17:56:47Z</time>
  <course>65.99</course>
  <speed>0.8</speed>
  <fix>3d</fix>
</trkpt>
<trkpt lat="40.0714797" lon="-105.2294814">
  <ele>1582.93</ele>
  <time>2026-08-28T17:56:47Z</time>
  <course>248.24</course>
  <speed>0.8143709228600933</speed>
  <fix>3d</fix>
</trkpt>
<trkpt lat="40.0714791" lon="-105.2294834">
  <ele>1583.0</ele>
  <time>2026-08-28T17:56:47Z</time>
  <course>65.99</course>
  <speed>0.8</speed>
  <fix>3d</fix>
</trkpt>
<trkpt lat="40.07148" lon="-105.2294805">
  <ele>1582.93</ele>
  <time>2026-08-28T17:56:47Z</time>
  <course>248.23</course>
  <speed>0.8143709228600933</speed>
  <fix>3d</fix>
</trkpt>
<trkpt lat="40.0714796" lon="-105.2294817">
  <ele>1583.0</ele>
  <time>2026-08-28T17:56:47Z</time>
  <course>65.99</course>
  <speed>0.8</speed>
  <fix>3d</fix>
</trkpt>
<trkpt lat="40.0714803" lon="-105.2294797">
  <ele>1582.93</ele>
  <time>2026-08-28T17:56:47Z</time>
  <course>248.23</course>
  <speed>0.8143709228600933</speed>
  <fix>3d</fix>
</trkpt>
<trkpt lat="40.0714796" lon="-105.2294817">
  <ele>1583.0</ele>
  <time>2026-08-28T17:56:47Z</time>
  <course>65.99</course>
  <speed>0.8</speed>
  <fix>3d</fix>
</trkpt>
<trkpt lat="40.0714806" lon="-105.2294788">
  <ele>1582.94</ele>
  <time>2026-08-28T17:56:47Z</time>
  <course>248.22</course>
  <speed>0.8143709228600933</speed>
  <fix>3d</fix>
</trkpt>
<trkpt lat="40.0714796" lon="-105.2294817">
  <ele>1583.0</ele>
  <time>2026-08-28T17:56:47Z</time>
  <course>65.99</course>
  <speed>0.8</speed>
  <fix>3d</fix>
</trkpt>
<trkpt lat="40.0714809" lon="-105.2294779">
  <ele>1582.93</ele>
  <time>2026-08-28T17:56:47Z</time>
  <course>248.22</course>
  <speed>0.836719785830358</speed>
  <fix>3d</fix>
</trkpt>
<trkpt lat="40.0714801" lon="-105.22948">
  <ele>1583.0</ele>
  <time>2026-08-28T17:56:47Z</time>
  <course>65.99</course>
  <speed>0.8</speed>
  <fix>3d</fix>
</trkpt>
<trkpt lat="40.0714813" lon="-105.2294768">
  <ele>1582.93</ele>
  <time>2026-08-28T17:56:47Z</time>
  <course>248.21</course>
  <speed>0.8590692637965812</speed>
  <fix>3d</fix>
</trkpt>
<trkpt lat="40.0714808" lon="-105.2294783">
  <ele>1583.0</ele>
  <time>2026-08-28T17:56:47Z</time>
  <course>65.99</course>
  <speed>0.82</speed>
  <fix>3d</fix>
</trkpt>
<trkpt lat="40.0714815" lon="-105.2294761">
  <ele>1582.94</ele>
  <time>2026-08-28T17:56:47Z</time>
  <course>248.21</course>
  <speed>0.8814193099768123</speed>
  <fix>3d</fix>
</trkpt>
<trkpt lat="40.0714808" lon="-105.2294783">
  <ele>1583.0</ele>
  <time>2026-08-28T17:56:47Z</time>
  <course>65.99</course>
  <speed>0.82</speed>
  <fix>3d</fix>
</trkpt>
<trkpt lat="40.0714819" lon="-105.2294752">
  <ele>1582.94</ele>
  <time>2026-08-28T17:56:47Z</time>
  <course>248.2</course>
  <speed>0.9128526715741155</speed>
  <fix>3d</fix>
</trkpt>
<trkpt lat="40.0714808" lon="-105.2294783">
  <ele>1583.0</ele>
  <time>2026-08-28T17:56:47Z</time>
  <course>65.99</course>
  <speed>0.82</speed>
  <fix>3d</fix>
</trkpt>
<trkpt lat="40.0714822" lon="-105.2294742">
  <ele>1582.95</ele>
  <time>2026-08-28T17:56:47Z</time>
  <course>248.2</course>
  <speed>0.9442986815621421</speed>
  <fix>3d</fix>
</trkpt>
<trkpt lat="40.0714814" lon="-105.2294765">
  <ele>1583.0</ele>
  <time>2026-08-28T17:56:47Z</time>
  <course>65.99</course>
  <speed>0.86</speed>
  <fix>3d</fix>
</trkpt>
<trkpt lat="40.0714825" lon="-105.2294732">
  <ele>1582.95</ele>
  <time>2026-08-28T17:56:47Z</time>
  <course>248.19</course>
  <speed>0.9889893831583835</speed>
  <fix>3d</fix>
</trkpt>
<trkpt lat="40.0714821" lon="-105.2294746">
  <ele>1583.0</ele>
  <time>2026-08-28T17:56:47Z</time>
  <course>65.99</course>
  <speed>0.92</speed>
  <fix>3d</fix>
</trkpt>
<trkpt lat="40.0714829" lon="-105.2294721">
  <ele>1582.96</ele>
  <time>2026-08-28T17:56:47Z</time>
  <course>248.19</course>
  <speed>1.0295630140987</speed>
  <fix>3d</fix>
</trkpt>
<trkpt lat="40.0714821" lon="-105.2294746">
  <ele>1583.0</ele>
  <time>2026-08-28T17:56:48Z</time>
  <course>65.99</course>
  <speed>0.92</speed>
  <fix>3d</fix>
</trkpt>
<trkpt lat="40.0714833" lon="-105.229471">
  <ele>1582.97</ele>
  <time>2026-08-28T17:56:48Z</time>
  <course>248.18</course>
  <speed>1.0742439201596627</speed>
  <fix>3d</fix>
</trkpt>
<trkpt lat="40.0714828" lon="-105.2294724">
  <ele>1583.0</ele>
  <time>2026-08-28T17:56:48Z</time>
  <course>65.99</course>
  <speed>1.0</speed>
  <fix>3d</fix>
</trkpt>
<trkpt lat="40.0714842" lon="-105.2294684">
  <ele>1582.99</ele>
  <time>2026-08-28T17:56:48Z</time>
  <course>248.17</course>
  <speed>1.1636150566231085</speed>
  <fix>3d</fix>
</trkpt>
<trkpt lat="40.0714835" lon="-105.2294702">
  <ele>1583.0</ele>
  <time>2026-08-28T17:56:48Z</time>
  <course>65.99</course>
  <speed>1.08</speed>
  <fix>3d</fix>
</trkpt>
<trkpt lat="40.0714846" lon="-105.2294671">
  <ele>1583.0</ele>
  <time>2026-08-28T17:56:48Z</time>
  <course>248.17</course>
  <speed>1.2042009799032718</speed>
  <fix>3d</fix>
</trkpt>
<trkpt lat="40.0714835" lon="-105.2294702">
  <ele>1583.0</ele>
  <time>2026-08-28T17:56:48Z</time>
  <course>65.99</course>
  <speed>1.08</speed>
  <fix>3d</fix>
</trkpt>
<trkpt lat="40.0714851" lon="-105.2294658">
  <ele>1583.01</ele>
  <time>2026-08-28T17:56:48Z</time>
  <course>248.16</course>
  <speed>1.248879497789919</speed>
  <fix>3d</fix>
</trkpt>
<trkpt lat="40.0714844" lon="-105.2294678">
  <ele>1583.0</ele>
  <time>2026-08-28T17:56:48Z</time>
  <course>65.99</course>
  <speed>1.16</speed>
  <fix>3d</fix>
</trkpt>
<trkpt lat="40.0714855" lon="-105.2294644">
  <ele>1583.02</ele>
  <time>2026-08-28T17:56:48Z</time>
  <course>248.16</course>
  <speed>1.2803515142334936</speed>
  <fix>3d</fix>
</trkpt>
<trkpt lat="40.0714844" lon="-105.2294678">
  <ele>1583.0</ele>
  <time>2026-08-28T17:56:48Z</time>
  <course>65.99</course>
  <speed>1.16</speed>
  <fix>3d</fix>
</trkpt>
<trkpt lat="40.071486" lon="-105.229463">
  <ele>1583.03</ele>
  <time>2026-08-28T17:56:48Z</time>
  <course>248.16</course>
  <speed>1.325028301584536</speed>
  <fix>3d</fix>
</trkpt>
<trkpt lat="40.0714852" lon="-105.2294652">
  <ele>1583.0</ele>
  <time>2026-08-28T17:56:48Z</time>
  <course>65.99</course>
  <speed>1.24</speed>
  <fix>3d</fix>
</trkpt>
<trkpt lat="40.0714865" lon="-105.2294616">
  <ele>1583.04</ele>
  <time>2026-08-28T17:56:48Z</time>
  <course>248.15</course>
  <speed>1.3565028566132842</speed>
  <fix>3d</fix>
</trkpt>
<trkpt lat="40.0714852" lon="-105.2294652">
  <ele>1583.0</ele>
  <time>2026-08-28T17:56:48Z</time>
  <course>65.99</course>
  <speed>1.24</speed>
  <fix>3d</fix>
</trkpt>
<trkpt lat="40.0714871" lon="-105.2294598">
  <ele>1583.05</ele>
  <time>2026-08-28T17:56:48Z</time>
  <course>248.15</course>
  <speed>1.4011780757633914</speed>
  <fix>3d</fix>
</trkpt>
<trkpt lat="40.0714861" lon="-105.2294625">
  <ele>1583.0</ele>
  <time>2026-08-28T17:56:48Z</time>
  <course>65.99</course>
  <speed>1.31</speed>
  <fix>3d</fix>
</trkpt>
<trkpt lat="40.0714876" lon="-105.2294583">
  <ele>1583.06</ele>
  <time>2026-08-28T17:56:48Z</time>
  <course>248.14</course>
  <speed>1.4326548781894402</speed>
  <fix>3d</fix>
</trkpt>
<trkpt lat="40.0714861" lon="-105.2294625">
  <ele>1583.0</ele>
  <time>2026-08-28T17:56:48Z</time>
  <course>65.99</course>
  <speed>1.31</speed>
  <fix>3d</fix>
</trkpt>
<trkpt lat="40.0714881" lon="-105.2294568">
  <ele>1583.06</ele>
  <time>2026-08-28T17:56:48Z</time>
  <course>248.14</course>
  <speed>1.4549914089093448</speed>
  <fix>3d</fix>
</trkpt>
<trkpt lat="40.0714872" lon="-105.2294596">
  <ele>1583.0</ele>
  <time>2026-08-28T17:56:48Z</time>
  <course>65.99</course>
  <speed>1.38</speed>
  <fix>3d</fix>
</trkpt>
<trkpt lat="40.0714886" lon="-105.2294552">
  <ele>1583.07</ele>
  <time>2026-08-28T17:56:48Z</time>
  <course>248.13</course>
  <speed>1.4864723340849637</speed>
  <fix>3d</fix>
</trkpt>
<trkpt lat="40.0714872" lon="-105.2294596">
  <ele>1583.0</ele>
  <time>2026-08-28T17:56:48Z</time>
  <course>65.99</course>
  <speed>1.38</speed>
  <fix>3d</fix>
</trkpt>
<trkpt lat="40.0714892" lon="-105.2294536">
  <ele>1583.07</ele>
  <time>2026-08-28T17:56:48Z</time>
  <course>248.13</course>
  <speed>1.5088074761214565</speed>
  <fix>3d</fix>
</trkpt>
<trkpt lat="40.0714882" lon="-105.2294566">
  <ele>1583.0</ele>
  <time>2026-08-28T17:56:48Z</time>
  <course>65.99</course>
  <speed>1.44</speed>
  <fix>3d</fix>
</trkpt>
<trkpt lat="40.0714897" lon="-105.229452">
  <ele>1583.08</ele>
  <time>2026-08-28T17:56:48Z</time>
  <course>248.13</course>
  <speed>1.5311433636338563</speed>
  <fix>3d</fix>
</trkpt>
<trkpt lat="40.0714882" lon="-105.2294566">
  <ele>1583.0</ele>
  <time>2026-08-28T17:56:48Z</time>
  <course>65.99</course>
  <speed>1.44</speed>
  <fix>3d</fix>
</trkpt>
<trkpt lat="40.0714903" lon="-105.2294504">
  <ele>1583.08</ele>
  <time>2026-08-28T17:56:48Z</time>
  <course>248.12</course>
  <speed>1.553479964466874</speed>
  <fix>3d</fix>
</trkpt>
<trkpt lat="40.0714892" lon="-105.2294535">
  <ele>1583.0</ele>
  <time>2026-08-28T17:56:48Z</time>
  <course>65.99</course>
  <speed>1.49</speed>
  <fix>3d</fix>
</trkpt>
<trkpt lat="40.0714908" lon="-105.2294488">
  <ele>1583.09</ele>
  <time>2026-08-28T17:56:48Z</time>
  <course>248.12</course>
  <speed>1.5758172482873767</speed>
  <fix>3d</fix>
</trkpt>
<trkpt lat="40.0714892" lon="-105.2294535">
  <ele>1583.0</ele>
  <time>2026-08-28T17:56:48Z</time>
  <course>65.99</course>
  <speed>1.49</speed>
  <fix>3d</fix>
</trkpt>
<trkpt lat="40.0714914" lon="-105.2294471">
  <ele>1583.09</ele>
  <time>2026-08-28T17:56:48Z</time>
  <course>248.11</course>
  <speed>1.5890248582070703</speed>
  <fix>3d</fix>
</trkpt>
<trkpt lat="40.0714903" lon="-105.2294502">
  <ele>1583.0</ele>
  <time>2026-08-28T17:56:48Z</time>
  <course>65.99</course>
  <speed>1.53</speed>
  <fix>3d</fix>
</trkpt>
<trkpt lat="40.0714919" lon="-105.2294455">
  <ele>1583.1</ele>
  <time>2026-08-28T17:56:48Z</time>
  <course>248.11</course>
  <speed>1.6072958657322554</speed>
  <fix>3d</fix>
</trkpt>
<trkpt lat="40.0714903" lon="-105.2294502">
  <ele>1583.0</ele>
  <time>2026-08-28T17:56:48Z</time>
  <course>65.99</course>
  <speed>1.53</speed>
  <fix>3d</fix>
</trkpt>
<trkpt lat="40.0714925" lon="-105.2294438">
  <ele>1583.1</ele>
  <time>2026-08-28T17:56:48Z</time>
  <course>248.11</course>
  <speed>1.6204937519163718</speed>
  <fix>3d</fix>
</trkpt>
<trkpt lat="40.0714915" lon="-105.2294469">
  <ele>1583.0</ele>
  <time>2026-08-28T17:56:48Z</time>
  <course>66.0</course>
  <speed>1.57</speed>
  <fix>3d</fix>
</trkpt>
<trkpt lat="40.071493" lon="-105.2294424">
  <ele>1583.11</ele>
  <time>2026-08-28T17:56:48Z</time>
  <course>248.1</course>
  <speed>1.6296318602678337</speed>
  <fix>3d</fix>
</trkpt>
<trkpt lat="40.0714915" lon="-105.2294469">
  <ele>1583.0</ele>
  <time>2026-08-28T17:56:48Z</time>
  <course>66.0</course>
  <speed>1.57</speed>
  <fix>3d</fix>
</trkpt>
<trkpt lat="40.0714936" lon="-105.2294407">
  <ele>1583.11</ele>
  <time>2026-08-28T17:56:48Z</time>
  <course>248.1</course>
  <speed>1.6428329190760695</speed>
  <fix>3d</fix>
</trkpt>
<trkpt lat="40.0714927" lon="-105.2294434">
  <ele>1583.0</ele>
  <time>2026-08-28T17:56:48Z</time>
  <course>66.0</course>
  <speed>1.61</speed>
  <fix>3d</fix>
</trkpt>
<trkpt lat="40.0714942" lon="-105.229439">
  <ele>1583.11</ele>
  <time>2026-08-28T17:56:48Z</time>
  <course>248.09</course>
  <speed>1.6560495161679194</speed>
  <fix>3d</fix>
</trkpt>
<trkpt lat="40.0714927" lon="-105.2294434">
  <ele>1583.0</ele>
  <time>2026-08-28T17:56:48Z</time>
  <course>66.0</course>
  <speed>1.61</speed>
  <fix>3d</fix>
</trkpt>
<trkpt lat="40.0714948" lon="-105.2294372">
  <ele>1583.12</ele>
  <time>2026-08-28T17:56:48Z</time>
  <course>248.09</course>
  <speed>1.665172663719892</speed>
  <fix>3d</fix>
</trkpt>
<trkpt lat="40.0714939" lon="-105.2294399">
  <ele>1583.0</ele>
  <time>2026-08-28T17:56:48Z</time>
  <course>66.0</course>
  <speed>1.64</speed>
  <fix>3d</fix>
</trkpt>
<trkpt lat="40.0714954" lon="-105.2294354">
  <ele>1583.12</ele>
  <time>2026-08-28T17:56:48Z</time>
  <course>248.08</course>
  <speed>1.6783920876839238</speed>
  <fix>3d</fix>
</trkpt>
<trkpt lat="40.0714939" lon="-105.2294399">
  <ele>1583.0</ele>
  <time>2026-08-28T17:56:48Z</time>
  <course>66.0</course>
  <speed>1.64</speed>
  <fix>3d</fix>
</trkpt>
<trkpt lat="40.071496" lon="-105.2294336">
  <ele>1583.12</ele>
  <time>2026-08-28T17:56:48Z</time>
  <course>248.08</course>
  <speed>1.6875129629131742</speed>
  <fix>3d</fix>
</trkpt>
<trkpt lat="40.0714951" lon="-105.2294364">
  <ele>1583.0</ele>
  <time>2026-08-28T17:56:48Z</time>
  <course>66.0</course>
  <speed>1.66</speed>
  <fix>3d</fix>
</trkpt>
<trkpt lat="40.0714966" lon="-105.2294319">
  <ele>1583.12</ele>
  <time>2026-08-28T17:56:48Z</time>
  <course>247.89</course>
  <speed>1.4003570973148243</speed>
  <fix>3d</fix>
</trkpt>
<trkpt lat="40.0714951" lon="-105.2294364">
  <ele>1583.0</ele>
  <time>2026-08-28T17:56:48Z</time>
  <course>66.0</course>
  <speed>1.66</speed>
  <fix>3d</fix>
</trkpt>
<trkpt lat="40.071497" lon="-105.2294307">
  <ele>1583.12</ele>
  <time>2026-08-28T17:56:48Z</time>
  <course>247.54</course>
  <speed>0.9481033698917013</speed>
  <fix>3d</fix>
</trkpt>
<trkpt lat="40.0714962" lon="-105.229433">
  <ele>1583.0</ele>
  <time>2026-08-28T17:56:48Z</time>
  <course>65.82</course>
  <speed>1.35</speed>
  <fix>3d</fix>
</trkpt>
<trkpt lat="40.0714973" lon="-105.2294301">
  <ele>1583.12</ele>
  <time>2026-08-28T17:56:48Z</time>
  <course>247.24</course>
  <speed>0.5333854141237835</speed>
  <fix>3d</fix>
</trkpt>
<trkpt lat="40.0714962" lon="-105.229433">
  <ele>1583.0</ele>
  <time>2026-08-28T17:56:48Z</time>
  <course>65.82</course>
  <speed>1.35</speed>
  <fix>3d</fix>
</trkpt>
<trkpt lat="40.0714974" lon="-105.2294298">
  <ele>1583.12</ele>
  <time>2026-08-28T17:56:48Z</time>
  <course>247.04</course>
  <speed>0.09848857801796104</speed>
  <fix>3d</fix>
</trkpt>
<trkpt lat="40.0714969" lon="-105.2294308">
  <ele>1583.0</ele>
  <time>2026-08-28T17:56:48Z</time>
  <course>65.43</course>
  <speed>0.63</speed>
  <fix>3d</fix>
</trkpt>
<trkpt lat="40.0714974" lon="-105.2294301">
  <ele>1583.12</ele>
  <time>2026-08-28T17:56:48Z</time>
  <course>246.97</course>
  <speed>0.2942787793912432</speed>
  <fix>3d</fix>
</trkpt>
<trkpt lat="40.0714969" lon="-105.2294308">
  <ele>1583.0</ele>
  <time>2026-08-28T17:56:48Z</time>
  <course>65.43</course>
  <speed>0.63</speed>
  <fix>3d</fix>
</trkpt>
<trkpt lat="40.0714972" lon="-105.2294307">
  <ele>1583.12</ele>
  <time>2026-08-28T17:56:48Z</time>
  <course>246.65</course>
  <speed>0.6389053137985315</speed>
  <fix>3d</fix>
</trkpt>
<trkpt lat="40.0714971" lon="-105.2294302">
  <ele>1583.0</ele>
  <time>2026-08-28T17:56:48Z</time>
  <course>244.5</course>
  <speed>0.11</speed>
  <fix>3d</fix>
</trkpt>
<trkpt lat="40.0714969" lon="-105.2294317">
  <ele>1583.12</ele>
  <time>2026-08-28T17:56:48Z</time>
  <course>246.07</course>
  <speed>0.9808159868191383</speed>
  <fix>3d</fix>
</trkpt>
<trkpt lat="40.0714971" lon="-105.2294302">
  <ele>1583.0</ele>
  <time>2026-08-28T17:56:48Z</time>
  <course>244.5</course>
  <speed>0.11</speed>
  <fix>3d</fix>
</trkpt>
<trkpt lat="40.0714964" lon="-105.2294331">
  <ele>1583.12</ele>
  <time>2026-08-28T17:56:48Z</time>
  <course>245.32</course>
  <speed>1.283160161476345</speed>
  <fix>3d</fix>
</trkpt>
<trkpt lat="40.0714969" lon="-105.2294311">
  <ele>1583.0</ele>
  <time>2026-08-28T17:56:48Z</time>
  <course>243.96</course>
  <speed>0.79</speed>
  <fix>3d</fix>
</trkpt>
<trkpt lat="40.0714959" lon="-105.2294346">
  <ele>1583.12</ele>
  <time>2026-08-28T17:56:48Z</time>
  <course>244.55</course>
  <speed>1.5809490820390135</speed>
  <fix>3d</fix>
</trkpt>
<trkpt lat="40.0714969" lon="-105.2294311">
  <ele>1583.0</ele>
  <time>2026-08-28T17:56:48Z</time>
  <course>243.96</course>
  <speed>0.79</speed>
  <fix>3d</fix>
</trkpt>
<trkpt lat="40.0714953" lon="-105.2294365">
  <ele>1583.12</ele>
  <time>2026-08-28T17:56:48Z</time>
  <course>243.83</course>
  <speed>1.8480530295421722</speed>
  <fix>3d</fix>
</trkpt>
<trkpt lat="40.071496" lon="-105.2294335">
  <ele>1583.0</ele>
  <time>2026-08-28T17:56:48Z</time>
  <course>242.77</course>
  <speed>1.4</speed>
  <fix>3d</fix>
</trkpt>
<trkpt lat="40.0714944" lon="-105.2294386">
  <ele>1583.13</ele>
  <time>2026-08-28T17:56:48Z</time>
  <course>243.19</course>
  <speed>2.0843224318708464</speed>
  <fix>3d</fix>
</trkpt>
<trkpt lat="40.071496" lon="-105.2294335">
  <ele>1583.0</ele>
  <time>2026-08-28T17:56:48Z</time>
  <course>242.77</course>
  <speed>1.4</speed>
  <fix>3d</fix>
</trkpt>
<trkpt lat="40.0714935" lon="-105.2294409">
  <ele>1583.13</ele>
  <time>2026-08-28T17:56:48Z</time>
  <course>242.66</course>
  <speed>2.3120986138138657</speed>
  <fix>3d</fix>
</trkpt>
<trkpt lat="40.0714946" lon="-105.2294369">
  <ele>1583.0</ele>
  <time>2026-08-28T17:56:48Z</time>
  <course>241.54</course>
  <speed>1.91</speed>
  <fix>3d</fix>
</trkpt>
<trkpt lat="40.0714924" lon="-105.2294433">
  <ele>1583.13</ele>
  <time>2026-08-28T17:56:48Z</time>
  <course>242.29</course>
  <speed>2.504495957273639</speed>
  <fix>3d</fix>
</trkpt>
<trkpt lat="40.0714946" lon="-105.2294369">
  <ele>1583.0</ele>
  <time>2026-08-28T17:56:48Z</time>
  <course>241.54</course>
  <speed>1.91</speed>
  <fix>3d</fix>
</trkpt>
<trkpt lat="40.0714913" lon="-105.229446">
  <ele>1583.14</ele>
  <time>2026-08-28T17:56:48Z</time>
  <course>242.06</course>
  <speed>2.692526694389491</speed>
  <fix>3d</fix>
</trkpt>
<trkpt lat="40.0714927" lon="-105.2294414">
  <ele>1583.0</ele>
  <time>2026-08-28T17:56:48Z</time>
  <course>240.71</course>
  <speed>2.35</speed>
  <fix>3d</fix>
</trkpt>
<trkpt lat="40.07149" lon="-105.2294488">
  <ele>1583.15</ele>
  <time>2026-08-28T17:56:48Z</time>
  <course>241.9</course>
  <speed>2.8582861998057507</speed>
  <fix>3d</fix>
</trkpt>
<trkpt lat="40.0714927" lon="-105.2294414">
  <ele>1583.0</ele>
  <time>2026-08-28T17:56:48Z</time>
  <course>240.71</course>
  <speed>2.35</speed>
  <fix>3d</fix>
</trkpt>
<trkpt lat="40.071489" lon="-105.2294512">
  <ele>1583.15</ele>
  <time>2026-08-28T17:56:48Z</time>
  <course>241.82</course>
  <speed>2.9882436312991616</speed>
  <fix>3d</fix>
</trkpt>
<trkpt lat="40.0714904" lon="-105.2294465">
  <ele>1583.0</ele>
  <time>2026-08-28T17:56:48Z</time>
  <course>240.33</course>
  <speed>2.71</speed>
  <fix>3d</fix>
</trkpt>
<trkpt lat="40.0714876" lon="-105.2294543">
  <ele>1583.15</ele>
  <time>2026-08-28T17:56:48Z</time>
  <course>241.76</course>
  <speed>3.118236681203016</speed>
  <fix>3d</fix>
</trkpt>
<trkpt lat="40.0714904" lon="-105.2294465">
  <ele>1583.0</ele>
  <time>2026-08-28T17:56:48Z</time>
  <course>240.33</course>
  <speed>2.71</speed>
  <fix>3d</fix>
</trkpt>
<trkpt lat="40.0714862" lon="-105.2294576">
  <ele>1583.15</ele>
  <time>2026-08-28T17:56:48Z</time>
  <course>241.72</course>
  <speed>3.2259107241211744</speed>
  <fix>3d</fix>
</trkpt>
<trkpt lat="40.0714879" lon="-105.2294524">
  <ele>1583.0</ele>
  <time>2026-08-28T17:56:48Z</time>
  <course>240.23</course>
  <speed>3.0</speed>
  <fix>3d</fix>
</trkpt>
<trkpt lat="40.0714847" lon="-105.2294609">
  <ele>1583.16</ele>
  <time>2026-08-28T17:56:48Z</time>
  <course>241.69</course>
  <speed>3.311268639056638</speed>
  <fix>3d</fix>
</trkpt>
<trkpt lat="40.0714879" lon="-105.2294524">
  <ele>1583.0</ele>
  <time>2026-08-28T17:56:48Z</time>
  <course>240.23</course>
  <speed>3.0</speed>
  <fix>3d</fix>
</trkpt>
<trkpt lat="40.0714832" lon="-105.2294643">
  <ele>1583.16</ele>
  <time>2026-08-28T17:56:48Z</time>
  <course>241.71</course>
  <speed>3.391872639118397</speed>
  <fix>3d</fix>
</trkpt>
<trkpt lat="40.0714852" lon="-105.2294588">
  <ele>1583.0</ele>
  <time>2026-08-28T17:56:48Z</time>
  <course>240.25</course>
  <speed>3.21</speed>
  <fix>3d</fix>
</trkpt>
<trkpt lat="40.0714817" lon="-105.2294678">
  <ele>1583.17</ele>
  <time>2026-08-28T17:56:48Z</time>
  <course>241.72</course>
  <speed>3.450130432317016</speed>
  <fix>3d</fix>
</trkpt>
<trkpt lat="40.0714852" lon="-105.2294588">
  <ele>1583.0</ele>
  <time>2026-08-28T17:56:48Z</time>
  <course>240.25</course>
  <speed>3.21</speed>
  <fix>3d</fix>
</trkpt>
<trkpt lat="40.0714801" lon="-105.2294713">
  <ele>1583.17</ele>
  <time>2026-08-28T17:56:48Z</time>
  <course>241.74</course>
  <speed>3.499614264458299</speed>
  <fix>3d</fix>
</trkpt>
<trkpt lat="40.0714823" lon="-105.2294655">
  <ele>1583.0</ele>
  <time>2026-08-28T17:56:48Z</time>
  <course>240.33</course>
  <speed>3.36</speed>
  <fix>3d</fix>
</trkpt>
<trkpt lat="40.0714785" lon="-105.2294749">
  <ele>1583.17</ele>
  <time>2026-08-28T17:56:48Z</time>
  <course>241.77</course>
  <speed>3.544305291591005</speed>
  <fix>3d</fix>
</trkpt>
<trkpt lat="40.0714823" lon="-105.2294655">
  <ele>1583.0</ele>
  <time>2026-08-28T17:56:48Z</time>
  <course>240.33</course>
  <speed>3.36</speed>
  <fix>3d</fix>
</trkpt>
<trkpt lat="40.071477" lon="-105.2294785">
  <ele>1583.18</ele>
  <time>2026-08-28T17:56:48Z</time>
  <course>241.81</course>
  <speed>3.571456285606755</speed>
  <fix>3d</fix>
</trkpt>
<trkpt lat="40.0714792" lon="-105.2294724">
  <ele>1583.0</ele>
  <time>2026-08-28T17:56:48Z</time>
  <course>240.42</course>
  <speed>3.45</speed>
  <fix>3d</fix>
</trkpt>
<trkpt lat="40.0714751" lon="-105.2294828">
  <ele>1583.18</ele>
  <time>2026-08-28T17:56:48Z</time>
  <course>241.86</course>
  <speed>3.6073813216792043</speed>
  <fix>3d</fix>
</trkpt>
<trkpt lat="40.0714792" lon="-105.2294724">
  <ele>1583.0</ele>
  <time>2026-08-28T17:56:48Z</time>
  <course>240.42</course>
  <speed>3.45</speed>
  <fix>3d</fix>
</trkpt>
<trkpt lat="40.0714735" lon="-105.2294865">
  <ele>1583.18</ele>
  <time>2026-08-28T17:56:48Z</time>
  <course>241.91</course>
  <speed>3.6297245074523214</speed>
  <fix>3d</fix>
</trkpt>
<trkpt lat="40.0714761" lon="-105.2294795">
  <ele>1583.0</ele>
  <time>2026-08-28T17:56:48Z</time>
  <course>240.54</course>
  <speed>3.52</speed>
  <fix>3d</fix>
</trkpt>
<trkpt lat="40.0714719" lon="-105.2294901">
  <ele>1583.18</ele>
  <time>2026-08-28T17:56:48Z</time>
  <course>241.97</course>
  <speed>3.638488697247801</speed>
  <fix>3d</fix>
</trkpt>
<trkpt lat="40.0714761" lon="-105.2294795">
  <ele>1583.0</ele>
  <time>2026-08-28T17:56:48Z</time>
  <course>240.54</course>
  <speed>3.52</speed>
  <fix>3d</fix>
</trkpt>
<trkpt lat="40.0714703" lon="-105.2294938">
  <ele>1583.19</ele>
  <time>2026-08-28T17:56:48Z</time>
  <course>242.01</course>
  <speed>3.6520679073642643</speed>
  <fix>3d</fix>
</trkpt>
<trkpt lat="40.071473" lon="-105.2294868">
  <ele>1583.0</ele>
  <time>2026-08-28T17:56:48Z</time>
  <course>240.66</course>
  <speed>3.56</speed>
  <fix>3d</fix>
</trkpt>
<trkpt lat="40.0714687" lon="-105.2294975">
  <ele>1583.19</ele>
  <time>2026-08-28T17:56:48Z</time>
  <course>242.05</course>
  <speed>3.660833238485468</speed>
  <fix>3d</fix>
</trkpt>
<trkpt lat="40.071473" lon="-105.2294868">
  <ele>1583.0</ele>
  <time>2026-08-28T17:56:48Z</time>
  <course>240.66</course>
  <speed>3.56</speed>
  <fix>3d</fix>
</trkpt>
<trkpt lat="40.0714671" lon="-105.2295012">
  <ele>1583.2</ele>
  <time>2026-08-28T17:56:48Z</time>
  <course>242.1</course>
  <speed>3.6656513745854227</speed>
  <fix>3d</fix>
</trkpt>
<trkpt lat="40.0714698" lon="-105.2294942">
  <ele>1583.0</ele>
  <time>2026-08-28T17:56:48Z</time>
  <course>240.76</course>
  <speed>3.6</speed>
  <fix>3d</fix>
</trkpt>
<trkpt lat="40.0714655" lon="-105.2295049">
  <ele>1583.2</ele>
  <time>2026-08-28T17:56:48Z</time>
  <course>242.15</course>
  <speed>3.67441151750862</speed>
  <fix>3d</fix>
</trkpt>
<trkpt lat="40.0714698" lon="-105.2294942">
  <ele>1583.0</ele>
  <time>2026-08-28T17:56:48Z</time>
  <course>240.76</course>
  <speed>3.6</speed>
  <fix>3d</fix>
</trkpt>
<trkpt lat="40.0714639" lon="-105.2295086">
  <ele>1583.2</ele>
  <time>2026-08-28T17:56:48Z</time>
  <course>242.2</course>
  <speed>3.67441151750862</speed>
  <fix>3d</fix>
</trkpt>
<trkpt lat="40.0714667" lon="-105.2295015">
  <ele>1583.0</ele>
  <time>2026-08-28T17:56:48Z</time>
  <course>240.86</course>
  <speed>3.62</speed>
  <fix>3d</fix>
</trkpt>
<trkpt lat="40.0714623" lon="-105.2295123">
  <ele>1583.2</ele>
  <time>2026-08-28T17:56:48Z</time>
  <course>242.25</course>
  <speed>3.67441151750862</speed>
  <fix>3d</fix>
</trkpt>
<trkpt lat="40.0714667" lon="-105.2295015">
  <ele>1583.0</ele>
  <time>2026-08-28T17:56:48Z</time>
  <course>240.86</course>
  <speed>3.62</speed>
  <fix>3d</fix>
</trkpt>
<trkpt lat="40.0714607" lon="-105.229516">
  <ele>1583.2</ele>
  <time>2026-08-28T17:56:48Z</time>
  <course>242.3</course>
  <speed>3.67441151750862</speed>
  <fix>3d</fix>
</trkpt>
<trkpt lat="40.0714634" lon="-105.229509">
  <ele>1583.0</ele>
  <time>2026-08-28T17:56:48Z</time>
  <course>240.96</course>
  <speed>3.63</speed>
  <fix>3d</fix>
</trkpt>
<trkpt lat="40.0714592" lon="-105.2295196">
  <ele>1583.2</ele>
  <time>2026-08-28T17:56:48Z</time>
  <course>242.35</course>
  <speed>3.67441151750862</speed>
  <fix>3d</fix>
</trkpt>
<trkpt lat="40.0714634" lon="-105.229509">
  <ele>1583.0</ele>
  <time>2026-08-28T17:56:48Z</time>
  <course>240.96</course>
  <speed>3.63</speed>
  <fix>3d</fix>
</trkpt>
<trkpt lat="40.0714579" lon="-105.2295226">
  <ele>1583.19</ele>
  <time>2026-08-28T17:56:48Z</time>
  <course>242.39</course>
  <speed>3.67441151750862</speed>
  <fix>3d</fix>
</trkpt>
<trkpt lat="40.0714603" lon="-105.2295165">
  <ele>1583.0</ele>
  <time>2026-08-28T17:56:48Z</time>
  <course>241.06</course>
  <speed>3.64</speed>
  <fix>3d</fix>
</trkpt>
<trkpt lat="40.0714563" lon="-105.2295263">
  <ele>1583.19</ele>
  <time>2026-08-28T17:56:48Z</time>
  <course>242.44</course>
  <speed>3.6696048833627852</speed>
  <fix>3d</fix>
</trkpt>
<trkpt lat="40.0714603" lon="-105.2295165">
  <ele>1583.0</ele>
  <time>2026-08-28T17:56:48Z</time>
  <course>241.06</course>
  <speed>3.64</speed>
  <fix>3d</fix>
</trkpt>
<trkpt lat="40.0714548" lon="-105.22953">
  <ele>1583.19</ele>
  <time>2026-08-28T17:56:48Z</time>
  <course>242.49</course>
  <speed>3.6696048833627852</speed>
  <fix>3d</fix>
</trkpt>
<trkpt lat="40.0714572" lon="-105.229524">
  <ele>1583.0</ele>
  <time>2026-08-28T17:56:48Z</time>
  <course>241.16</course>
  <speed>3.65</speed>
  <fix>3d</fix>
</trkpt>
<trkpt lat="40.0714532" lon="-105.2295337">
  <ele>1583.19</ele>
  <time>2026-08-28T17:56:48Z</time>
  <course>242.55</course>
  <speed>3.6696048833627852</speed>
  <fix>3d</fix>
</trkpt>
<trkpt lat="40.0714572" lon="-105.229524">
  <ele>1583.0</ele>
  <time>2026-08-28T17:56:48Z</time>
  <course>241.16</course>
  <speed>3.65</speed>
  <fix>3d</fix>
</trkpt>
<trkpt lat="40.0714516" lon="-105.2295374">
  <ele>1583.19</ele>
  <time>2026-08-28T17:56:48Z</time>
  <course>242.6</course>
  <speed>3.6696048833627852</speed>
  <fix>3d</fix>
</trkpt>
<trkpt lat="40.071454" lon="-105.2295315">
  <ele>1583.0</ele>
  <time>2026-08-28T17:56:48Z</time>
  <course>241.26</course>
  <speed>3.66</speed>
  <fix>3d</fix>
</trkpt>
<trkpt lat="40.07145" lon="-105.2295412">
  <ele>1583.19</ele>
  <time>2026-08-28T17:56:48Z</time>
  <course>242.65</course>
  <speed>3.6696048833627852</speed>
  <fix>3d</fix>
</trkpt>
<trkpt lat="40.071454" lon="-105.2295315">
  <ele>1583.0</ele>
  <time>2026-08-28T17:56:48Z</time>
  <course>241.26</course>
  <speed>3.66</speed>
  <fix>3d</fix>
</trkpt>
<trkpt lat="40.0714484" lon="-105.229545">
  <ele>1583.2</ele>
  <time>2026-08-28T17:56:48Z</time>
  <course>242.71</course>
  <speed>3.6648192315583588</speed>
  <fix>3d</fix>
</trkpt>
<trkpt lat="40.0714508" lon="-105.2295391">
  <ele>1583.0</ele>
  <time>2026-08-28T17:56:48Z</time>
  <course>241.36</course>
  <speed>3.66</speed>
  <fix>3d</fix>
</trkpt>
<trkpt lat="40.0714469" lon="-105.2295487">
  <ele>1583.2</ele>
  <time>2026-08-28T17:56:48Z</time>
  <course>242.76</course>
  <speed>3.6648192315583588</speed>
  <fix>3d</fix>
</trkpt>
<trkpt lat="40.0714508" lon="-105.2295391">
  <ele>1583.0</ele>
  <time>2026-08-28T17:56:48Z</time>
  <course>241.36</course>
  <speed>3.66</speed>
  <fix>3d</fix>
</trkpt>
<trkpt lat="40.0714453" lon="-105.2295525">
  <ele>1583.2</ele>
  <time>2026-08-28T17:56:48Z</time>
  <course>242.81</course>
  <speed>3.6648192315583588</speed>
  <fix>3d</fix>
</trkpt>
<trkpt lat="40.0714476" lon="-105.2295467">
  <ele>1583.0</ele>
  <time>2026-08-28T17:56:48Z</time>
  <course>241.46</course>
  <speed>3.67</speed>
  <fix>3d</fix>
</trkpt>
<trkpt lat="40.0714437" lon="-105.2295563">
  <ele>1583.21</ele>
  <time>2026-08-28T17:56:48Z</time>
  <course>242.87</course>
  <speed>3.6648192315583588</speed>
  <fix>3d</fix>
</trkpt>
<trkpt lat="40.0714476" lon="-105.2295467">
  <ele>1583.0</ele>
  <time>2026-08-28T17:56:48Z</time>
  <course>241.46</course>
  <speed>3.67</speed>
  <fix>3d</fix>
</trkpt>
<trkpt lat="40.0714418" lon="-105.2295609">
  <ele>1583.21</ele>
  <time>2026-08-28T17:56:48Z</time>
  <course>242.93</course>
  <speed>3.660054644400818</speed>
  <fix>3d</fix>
</trkpt>
<trkpt lat="40.0714445" lon="-105.2295542">
  <ele>1583.0</ele>
  <time>2026-08-28T17:56:48Z</time>
  <course>241.56</course>
  <speed>3.67</speed>
  <fix>3d</fix>
</trkpt>
<trkpt lat="40.0714402" lon="-105.2295647">
  <ele>1583.21</ele>
  <time>2026-08-28T17:56:48Z</time>
  <course>242.99</course>
  <speed>3.668855407344367</speed>
  <fix>3d</fix>
</trkpt>
<trkpt lat="40.0714445" lon="-105.2295542">
  <ele>1583.0</ele>
  <time>2026-08-28T17:56:48Z</time>
  <course>241.56</course>
  <speed>3.67</speed>
  <fix>3d</fix>
</trkpt>
<trkpt lat="40.0714387" lon="-105.2295684">
  <ele>1583.21</ele>
  <time>2026-08-28T17:56:48Z</time>
  <course>243.04</course>
  <speed>3.668855407344367</speed>
  <fix>3d</fix>
</trkpt>
<trkpt lat="40.0714414" lon="-105.2295618">
  <ele>1583.0</ele>
  <time>2026-08-28T17:56:48Z</time>
  <course>241.66</course>
  <speed>3.67</speed>
  <fix>3d</fix>
</trkpt>
<trkpt lat="40.0714371" lon="-105.2295722">
  <ele>1583.22</ele>
  <time>2026-08-28T17:56:48Z</time>
  <course>243.09</course>
  <speed>3.668855407344367</speed>
  <fix>3d</fix>
</trkpt>
<trkpt lat="40.0714414" lon="-105.2295618">
  <ele>1583.0</ele>
  <time>2026-08-28T17:56:48Z</time>
  <course>241.66</course>
  <speed>3.67</speed>
  <fix>3d</fix>
</trkpt>
<trkpt lat="40.0714355" lon="-105.229576">
  <ele>1583.22</ele>
  <time>2026-08-28T17:56:48Z</time>
  <course>243.15</course>
  <speed>3.6641233603687526</speed>
  <fix>3d</fix>
</trkpt>
<trkpt lat="40.0714382" lon="-105.2295694">
  <ele>1583.0</ele>
  <time>2026-08-28T17:56:48Z</time>
  <course>241.76</course>
  <speed>3.68</speed>
  <fix>3d</fix>
</trkpt>
<trkpt lat="40.071434" lon="-105.2295798">
  <ele>1583.22</ele>
  <time>2026-08-28T17:56:48Z</time>
  <course>243.2</course>
  <speed>3.6641233603687526</speed>
  <fix>3d</fix>
</trkpt>
<trkpt lat="40.0714382" lon="-105.2295694">
  <ele>1583.0</ele>
  <time>2026-08-28T17:56:48Z</time>
  <course>241.76</course>
  <speed>3.68</speed>
  <fix>3d</fix>
</trkpt>
<trkpt lat="40.0714324" lon="-105.2295836">
  <ele>1583.22</ele>
  <time>2026-08-28T17:56:48Z</time>
  <course>243.25</course>
  <speed>3.6641233603687526</speed>
  <fix>3d</fix>
</trkpt>
<trkpt lat="40.0714351" lon="-105.2295771">
  <ele>1583.0</ele>
  <time>2026-08-28T17:56:48Z</time>
  <course>241.86</course>
  <speed>3.68</speed>
  <fix>3d</fix>
</trkpt>
<trkpt lat="40.0714309" lon="-105.2295874">
  <ele>1583.21</ele>
  <time>2026-08-28T17:56:48Z</time>
  <course>243.29</course>
  <speed>3.6594125211569137</speed>
  <fix>3d</fix>
</trkpt>
<trkpt lat="40.0714351" lon="-105.2295771">
  <ele>1583.0</ele>
  <time>2026-08-28T17:56:48Z</time>
  <course>241.86</course>
  <speed>3.68</speed>
  <fix>3d</fix>
</trkpt>
<trkpt lat="40.0714293" lon="-105.2295911">
  <ele>1583.21</ele>
  <time>2026-08-28T17:56:48Z</time>
  <course>243.32</course>
  <speed>3.6594125211569137</speed>
  <fix>3d</fix>
</trkpt>
<trkpt lat="40.071432" lon="-105.2295847">
  <ele>1583.0</ele>
  <time>2026-08-28T17:56:48Z</time>
  <course>241.93</course>
  <speed>3.69</speed>
  <fix>3d</fix>
</trkpt>
<trkpt lat="40.0714278" lon="-105.2295949">
  <ele>1583.21</ele>
  <time>2026-08-28T17:56:48Z</time>
  <course>243.34</course>
  <speed>3.6594125211569137</speed>
  <fix>3d</fix>
</trkpt>
<trkpt lat="40.071432" lon="-105.2295847">
  <ele>1583.0</ele>
  <time>2026-08-28T17:56:48Z</time>
  <course>241.93</course>
  <speed>3.69</speed>
  <fix>3d</fix>
</trkpt>
<trkpt lat="40.0714263" lon="-105.2295987">
  <ele>1583.2</ele>
  <time>2026-08-28T17:56:48Z</time>
  <course>243.35</course>
  <speed>3.650588993573503</speed>
  <fix>3d</fix>
</trkpt>
<trkpt lat="40.0714289" lon="-105.2295924">
  <ele>1583.0</ele>
  <time>2026-08-28T17:56:48Z</time>
  <course>241.98</course>
  <speed>3.69</speed>
  <fix>3d</fix>
</trkpt>
<trkpt lat="40.071425" lon="-105.2296017">
  <ele>1583.2</ele>
  <time>2026-08-28T17:56:48Z</time>
  <course>243.36</course>
  <speed>3.650588993573503</speed>
  <fix>3d</fix>
</trkpt>
<trkpt lat="40.0714289" lon="-105.2295924">
  <ele>1583.0</ele>
  <time>2026-08-28T17:56:48Z</time>
  <course>241.98</course>
  <speed>3.69</speed>
  <fix>3d</fix>
</trkpt>
<trkpt lat="40.0714235" lon="-105.2296055">
  <ele>1583.2</ele>
  <time>2026-08-28T17:56:48Z</time>
  <course>243.38</course>
  <speed>3.650588993573503</speed>
  <fix>3d</fix>
</trkpt>
<trkpt lat="40.0714257" lon="-105.2296">
  <ele>1583.0</ele>
  <time>2026-08-28T17:56:48Z</time>
  <course>242.0</course>
  <speed>3.69</speed>
  <fix>3d</fix>
</trkpt>
<trkpt lat="40.071422" lon="-105.2296093">
  <ele>1583.2</ele>
  <time>2026-08-28T17:56:48Z</time>
  <course>243.38</course>
  <speed>3.650588993573503</speed>
  <fix>3d</fix>
</trkpt>
<trkpt lat="40.0714257" lon="-105.2296">
  <ele>1583.0</ele>
  <time>2026-08-28T17:56:48Z</time>
  <course>242.0</course>
  <speed>3.69</speed>
  <fix>3d</fix>
</trkpt>
<trkpt lat="40.0714204" lon="-105.2296131">
  <ele>1583.2</ele>
  <time>2026-08-28T17:56:48Z</time>
  <course>243.39</course>
  <speed>3.6458880948268284</speed>
  <fix>3d</fix>
</trkpt>
<trkpt lat="40.0714226" lon="-105.2296077">
  <ele>1583.0</ele>
  <time>2026-08-28T17:56:48Z</time>
  <course>242.02</course>
  <speed>3.69</speed>
  <fix>3d</fix>
</trkpt>
<trkpt lat="40.0714188" lon="-105.229617">
  <ele>1583.2</ele>
  <time>2026-08-28T17:56:48Z</time>
  <course>243.4</course>
  <speed>3.6458880948268284</speed>
  <fix>3d</fix>
</trkpt>
<trkpt lat="40.0714226" lon="-105.2296077">
  <ele>1583.0</ele>
  <time>2026-08-28T17:56:48Z</time>
  <course>242.02</course>
  <speed>3.69</speed>
  <fix>3d</fix>
</trkpt>
<trkpt lat="40.0714173" lon="-105.2296208">
  <ele>1583.19</ele>
  <time>2026-08-28T17:56:48Z</time>
  <course>243.41</course>
  <speed>3.6458880948268284</speed>
  <fix>3d</fix>
</trkpt>
<trkpt lat="40.0714195" lon="-105.2296153">
  <ele>1583.0</ele>
  <time>2026-08-28T17:56:48Z</time>
  <course>242.03</course>
  <speed>3.69</speed>
  <fix>3d</fix>
</trkpt>
<trkpt lat="40.0714157" lon="-105.2296247">
  <ele>1583.19</ele>
  <time>2026-08-28T17:56:48Z</time>
  <course>243.42</course>
  <speed>3.6458880948268284</speed>
  <fix>3d</fix>
</trkpt>
<trkpt lat="40.0714195" lon="-105.2296153">
  <ele>1583.0</ele>
  <time>2026-08-28T17:56:48Z</time>
  <course>242.03</course>
  <speed>3.69</speed>
  <fix>3d</fix>
</trkpt>
<trkpt lat="40.0714142" lon="-105.2296285">
  <ele>1583.19</ele>
  <time>2026-08-28T17:56:48Z</time>
  <course>243.42</course>
  <speed>3.6458880948268284</speed>
  <fix>3d</fix>
</trkpt>
<trkpt lat="40.0714164" lon="-105.229623">
  <ele>1583.0</ele>
  <time>2026-08-28T17:56:48Z</time>
  <course>242.03</course>
  <speed>3.7</speed>
  <fix>3d</fix>
</trkpt>
<trkpt lat="40.0714126" lon="-105.2296323">
  <ele>1583.18</ele>
  <time>2026-08-28T17:56:48Z</time>
  <course>243.43</course>
  <speed>3.6547229717175553</speed>
  <fix>3d</fix>
</trkpt>
<trkpt lat="40.0714164" lon="-105.229623">
  <ele>1583.0</ele>
  <time>2026-08-28T17:56:48Z</time>
  <course>242.03</course>
  <speed>3.7</speed>
  <fix>3d</fix>
</trkpt>
<trkpt lat="40.071411" lon="-105.2296362">
  <ele>1583.18</ele>
  <time>2026-08-28T17:56:48Z</time>
  <course>243.43</course>
  <speed>3.6547229717175553</speed>
  <fix>3d</fix>
</trkpt>
<trkpt lat="40.0714133" lon="-105.2296307">
  <ele>1583.0</ele>
  <time>2026-08-28T17:56:48Z</time>
  <course>242.03</course>
  <speed>3.7</speed>
  <fix>3d</fix>
</trkpt>
<trkpt lat="40.0714092" lon="-105.2296408">
  <ele>1583.17</ele>
  <time>2026-08-28T17:56:48Z</time>
  <course>243.44</course>
  <speed>3.6547229717175553</speed>
  <fix>3d</fix>
</trkpt>
<trkpt lat="40.0714133" lon="-105.2296307">
  <ele>1583.0</ele>
  <time>2026-08-28T17:56:48Z</time>
  <course>242.03</course>
  <speed>3.7</speed>
  <fix>3d</fix>
</trkpt>
<trkpt lat="40.0714076" lon="-105.2296447">
  <ele>1583.17</ele>
  <time>2026-08-28T17:56:48Z</time>
  <course>243.44</course>
  <speed>3.6547229717175553</speed>
  <fix>3d</fix>
</trkpt>
<trkpt lat="40.0714102" lon="-105.2296383">
  <ele>1583.0</ele>
  <time>2026-08-28T17:56:48Z</time>
  <course>242.03</course>
  <speed>3.7</speed>
  <fix>3d</fix>
</trkpt>
<trkpt lat="40.0714061" lon="-105.2296485">
  <ele>1583.17</ele>
  <time>2026-08-28T17:56:48Z</time>
  <course>243.45</course>
  <speed>3.6547229717175553</speed>
  <fix>3d</fix>
</trkpt>
<trkpt lat="40.0714102" lon="-105.2296383">
  <ele>1583.0</ele>
  <time>2026-08-28T17:56:48Z</time>
  <course>242.03</course>
  <speed>3.7</speed>
  <fix>3d</fix>
</trkpt>
<trkpt lat="40.0714045" lon="-105.2296523">
  <ele>1583.17</ele>
  <time>2026-08-28T17:56:48Z</time>
  <course>243.45</course>
  <speed>3.6547229717175553</speed>
  <fix>3d</fix>
</trkpt>
<trkpt lat="40.071407" lon="-105.229646">
  <ele>1583.0</ele>
  <time>2026-08-28T17:56:48Z</time>
  <course>242.03</course>
  <speed>3.7</speed>
  <fix>3d</fix>
</trkpt>
<trkpt lat="40.0714029" lon="-105.2296562">
  <ele>1583.17</ele>
  <time>2026-08-28T17:56:48Z</time>
  <course>243.46</course>
  <speed>3.6547229717175553</speed>
  <fix>3d</fix>
</trkpt>
<trkpt lat="40.071407" lon="-105.229646">
  <ele>1583.0</ele>
  <time>2026-08-28T17:56:48Z</time>
  <course>242.03</course>
  <speed>3.7</speed>
  <fix>3d</fix>
</trkpt>
<trkpt lat="40.0714014" lon="-105.22966">
  <ele>1583.16</ele>
  <time>2026-08-28T17:56:48Z</time>
  <course>243.46</course>
  <speed>3.6547229717175553</speed>
  <fix>3d</fix>
</trkpt>
<trkpt lat="40.0714039" lon="-105.2296537">
  <ele>1583.0</ele>
  <time>2026-08-28T17:56:48Z</time>
  <course>242.03</course>
  <speed>3.7</speed>
  <fix>3d</fix>
</trkpt>
<trkpt lat="40.0713998" lon="-105.2296639">
  <ele>1583.16</ele>
  <time>2026-08-28T17:56:48Z</time>
  <course>243.47</course>
  <speed>3.6547229717175553</speed>
  <fix>3d</fix>
</trkpt>
<trkpt lat="40.0714039" lon="-105.2296537">
  <ele>1583.0</ele>
  <time>2026-08-28T17:56:48Z</time>
  <course>242.03</course>
  <speed>3.7</speed>
  <fix>3d</fix>
</trkpt>
<trkpt lat="40.0713983" lon="-105.2296677">
  <ele>1583.16</ele>
  <time>2026-08-28T17:56:48Z</time>
  <course>243.47</course>
  <speed>3.6547229717175553</speed>
  <fix>3d</fix>
</trkpt>
<trkpt lat="40.0714008" lon="-105.2296614">
  <ele>1583.0</ele>
  <time>2026-08-28T17:56:48Z</time>
  <course>242.03</course>
  <speed>3.7</speed>
  <fix>3d</fix>
</trkpt>
<trkpt lat="40.0713967" lon="-105.2296715">
  <ele>1583.16</ele>
  <time>2026-08-28T17:56:48Z</time>
  <course>243.48</course>
  <speed>3.6547229717175553</speed>
  <fix>3d</fix>
</trkpt>
<trkpt lat="40.0714008" lon="-105.2296614">
  <ele>1583.0</ele>
  <time>2026-08-28T17:56:48Z</time>
  <course>242.03</course>
  <speed>3.7</speed>
  <fix>3d</fix>
</trkpt>
<trkpt lat="40.0713952" lon="-105.2296753">
  <ele>1583.16</ele>
  <time>2026-08-28T17:56:48Z</time>
  <course>243.48</course>
  <speed>3.6458880948268284</speed>
  <fix>3d</fix>
</trkpt>
<trkpt lat="40.0713977" lon="-105.2296691">
  <ele>1583.0</ele>
  <time>2026-08-28T17:56:48Z</time>
  <course>242.03</course>
  <speed>3.7</speed>
  <fix>3d</fix>
</trkpt>
<trkpt lat="40.0713937" lon="-105.2296791">
  <ele>1583.16</ele>
  <time>2026-08-28T17:56:48Z</time>
  <course>243.49</course>
  <speed>3.641208590564402</speed>
  <fix>3d</fix>
</trkpt>
<trkpt lat="40.0713977" lon="-105.2296691">
  <ele>1583.0</ele>
  <time>2026-08-28T17:56:48Z</time>
  <course>242.03</course>
  <speed>3.7</speed>
  <fix>3d</fix>
</trkpt>
<trkpt lat="40.0713924" lon="-105.2296821">
  <ele>1583.16</ele>
  <time>2026-08-28T17:56:48Z</time>
  <course>243.49</course>
  <speed>3.641208590564402</speed>
  <fix>3d</fix>
</trkpt>
<trkpt lat="40.0713946" lon="-105.2296768">
  <ele>1583.0</ele>
  <time>2026-08-28T17:56:48Z</time>
  <course>242.03</course>
  <speed>3.7</speed>
  <fix>3d</fix>
</trkpt>
<trkpt lat="40.0713909" lon="-105.229686">
  <ele>1583.17</ele>
  <time>2026-08-28T17:56:48Z</time>
  <course>243.5</course>
  <speed>3.641208590564402</speed>
  <fix>3d</fix>
</trkpt>
<trkpt lat="40.0713946" lon="-105.2296768">
  <ele>1583.0</ele>
  <time>2026-08-28T17:56:48Z</time>
  <course>242.03</course>
  <speed>3.7</speed>
  <fix>3d</fix>
</trkpt>
<trkpt lat="40.0713893" lon="-105.2296898">
  <ele>1583.17</ele>
  <time>2026-08-28T17:56:48Z</time>
  <course>243.5</course>
  <speed>3.641208590564402</speed>
  <fix>3d</fix>
</trkpt>
<trkpt lat="40.0713914" lon="-105.2296844">
  <ele>1583.0</ele>
  <time>2026-08-28T17:56:48Z</time>
  <course>242.03</course>
  <speed>3.7</speed>
  <fix>3d</fix>
</trkpt>
<trkpt lat="40.0713878" lon="-105.2296937">
  <ele>1583.17</ele>
  <time>2026-08-28T17:56:48Z</time>
  <course>243.51</course>
  <speed>3.641208590564402</speed>
  <fix>3d</fix>
</trkpt>
<trkpt lat="40.0713914" lon="-105.2296844">
  <ele>1583.0</ele>
  <time>2026-08-28T17:56:48Z</time>
  <course>242.03</course>
  <speed>3.7</speed>
  <fix>3d</fix>
</trkpt>
<trkpt lat="40.0713862" lon="-105.2296975">
  <ele>1583.17</ele>
  <time>2026-08-28T17:56:48Z</time>
  <course>243.51</course>
  <speed>3.650054794109261</speed>
  <fix>3d</fix>
</trkpt>
<trkpt lat="40.0713883" lon="-105.2296921">
  <ele>1583.0</ele>
  <time>2026-08-28T17:56:48Z</time>
  <course>242.03</course>
  <speed>3.7</speed>
  <fix>3d</fix>
</trkpt>
<trkpt lat="40.0713846" lon="-105.2297014">
  <ele>1583.17</ele>
  <time>2026-08-28T17:56:48Z</time>
  <course>243.52</course>
  <speed>3.650054794109261</speed>
  <fix>3d</fix>
</trkpt>
<trkpt lat="40.0713883" lon="-105.2296921">
  <ele>1583.0</ele>
  <time>2026-08-28T17:56:48Z</time>
  <course>242.03</course>
  <speed>3.7</speed>
  <fix>3d</fix>
</trkpt>
<trkpt lat="40.0713831" lon="-105.2297052">
  <ele>1583.17</ele>
  <time>2026-08-28T17:56:48Z</time>
  <course>243.53</course>
  <speed>3.650054794109261</speed>
  <fix>3d</fix>
</trkpt>
<trkpt lat="40.0713852" lon="-105.2296998">
  <ele>1583.0</ele>
  <time>2026-08-28T17:56:48Z</time>
  <course>242.03</course>
  <speed>3.7</speed>
  <fix>3d</fix>
</trkpt>
<trkpt lat="40.0713815" lon="-105.2297091">
  <ele>1583.17</ele>
  <time>2026-08-28T17:56:48Z</time>
  <course>243.53</course>
  <speed>3.650054794109261</speed>
  <fix>3d</fix>
</trkpt>
<trkpt lat="40.0713852" lon="-105.2296998">
  <ele>1583.0</ele>
  <time>2026-08-28T17:56:48Z</time>
  <course>242.03</course>
  <speed>3.7</speed>
  <fix>3d</fix>
</trkpt>
<trkpt lat="40.0713799" lon="-105.2297129">
  <ele>1583.17</ele>
  <time>2026-08-28T17:56:48Z</time>
  <course>243.54</course>
  <speed>3.650054794109261</speed>
  <fix>3d</fix>
</trkpt>
<trkpt lat="40.0713821" lon="-105.2297075">
  <ele>1583.0</ele>
  <time>2026-08-28T17:56:48Z</time>
  <course>242.03</course>
  <speed>3.7</speed>
  <fix>3d</fix>
</trkpt>
<trkpt lat="40.0713784" lon="-105.2297168">
  <ele>1583.17</ele>
  <time>2026-08-28T17:56:48Z</time>
  <course>243.54</course>
  <speed>3.650054794109261</speed>
  <fix>3d</fix>
</trkpt>
<trkpt lat="40.0713821" lon="-105.2297075">
  <ele>1583.0</ele>
  <time>2026-08-28T17:56:48Z</time>
  <course>242.03</course>
  <speed>3.7</speed>
  <fix>3d</fix>
</trkpt>
<trkpt lat="40.0713765" lon="-105.2297215">
  <ele>1583.17</ele>
  <time>2026-08-28T17:56:48Z</time>
  <course>243.55</course>
  <speed>3.650054794109261</speed>
  <fix>3d</fix>
</trkpt>
<trkpt lat="40.0713789" lon="-105.2297152">
  <ele>1583.0</ele>
  <time>2026-08-28T17:56:48Z</time>
  <course>242.03</course>
  <speed>3.7</speed>
  <fix>3d</fix>
</trkpt>
<trkpt lat="40.071375" lon="-105.2297253">
  <ele>1583.17</ele>
  <time>2026-08-28T17:56:48Z</time>
  <course>243.55</course>
  <speed>3.650054794109261</speed>
  <fix>3d</fix>
</trkpt>
<trkpt lat="40.0713789" lon="-105.2297152">
  <ele>1583.0</ele>
  <time>2026-08-28T17:56:48Z</time>
  <course>242.03</course>
  <speed>3.7</speed>
  <fix>3d</fix>
</trkpt>
<trkpt lat="40.0713734" lon="-105.2297291">
  <ele>1583.17</ele>
  <time>2026-08-28T17:56:48Z</time>
  <course>243.56</course>
  <speed>3.6589069406039827</speed>
  <fix>3d</fix>
</trkpt>
<trkpt lat="40.0713758" lon="-105.2297229">
  <ele>1583.0</ele>
  <time>2026-08-28T17:56:48Z</time>
  <course>242.03</course>
  <speed>3.7</speed>
  <fix>3d</fix>
</trkpt>
<trkpt lat="40.0713718" lon="-105.229733">
  <ele>1583.17</ele>
  <time>2026-08-28T17:56:48Z</time>
  <course>243.56</course>
  <speed>3.6589069406039827</speed>
  <fix>3d</fix>
</trkpt>
<trkpt lat="40.0713758" lon="-105.2297229">
  <ele>1583.0</ele>
  <time>2026-08-28T17:56:48Z</time>
  <course>242.03</course>
  <speed>3.7</speed>
  <fix>3d</fix>
</trkpt>
<trkpt lat="40.0713703" lon="-105.2297369">
  <ele>1583.17</ele>
  <time>2026-08-28T17:56:48Z</time>
  <course>243.57</course>
  <speed>3.6589069406039827</speed>
  <fix>3d</fix>
</trkpt>
<trkpt lat="40.0713727" lon="-105.2297306">
  <ele>1583.0</ele>
  <time>2026-08-28T17:56:48Z</time>
  <course>242.03</course>
  <speed>3.7</speed>
  <fix>3d</fix>
</trkpt>
<trkpt lat="40.0713687" lon="-105.2297407">
  <ele>1583.17</ele>
  <time>2026-08-28T17:56:48Z</time>
  <course>243.57</course>
  <speed>3.6589069406039827</speed>
  <fix>3d</fix>
</trkpt>
<trkpt lat="40.0713727" lon="-105.2297306">
  <ele>1583.0</ele>
  <time>2026-08-28T17:56:48Z</time>
  <course>242.03</course>
  <speed>3.7</speed>
  <fix>3d</fix>
</trkpt>
<trkpt lat="40.0713672" lon="-105.2297445">
  <ele>1583.16</ele>
  <time>2026-08-28T17:56:48Z</time>
  <course>243.58</course>
  <speed>3.6589069406039827</speed>
  <fix>3d</fix>
</trkpt>
<trkpt lat="40.0713696" lon="-105.2297382">
  <ele>1583.0</ele>
  <time>2026-08-28T17:56:48Z</time>
  <course>242.03</course>
  <speed>3.7</speed>
  <fix>3d</fix>
</trkpt>
<trkpt lat="40.0713656" lon="-105.2297484">
  <ele>1583.16</ele>
  <time>2026-08-28T17:56:48Z</time>
  <course>243.58</course>
  <speed>3.6589069406039827</speed>
  <fix>3d</fix>
</trkpt>
<trkpt lat="40.0713696" lon="-105.2297382">
  <ele>1583.0</ele>
  <time>2026-08-28T17:56:48Z</time>
  <course>242.03</course>
  <speed>3.7</speed>
  <fix>3d</fix>
</trkpt>
<trkpt lat="40.0713641" lon="-105.2297522">
  <ele>1583.16</ele>
  <time>2026-08-28T17:56:48Z</time>
  <course>243.59</course>
  <speed>3.6589069406039827</speed>
  <fix>3d</fix>
</trkpt>
<trkpt lat="40.0713664" lon="-105.2297459">
  <ele>1583.0</ele>
  <time>2026-08-28T17:56:48Z</time>
  <course>242.03</course>
  <speed>3.7</speed>
  <fix>3d</fix>
</trkpt>
<trkpt lat="40.0713625" lon="-105.229756">
  <ele>1583.16</ele>
  <time>2026-08-28T17:56:48Z</time>
  <course>243.59</course>
  <speed>3.6589069406039827</speed>
  <fix>3d</fix>
</trkpt>
<trkpt lat="40.0713664" lon="-105.2297459">
  <ele>1583.0</ele>
  <time>2026-08-28T17:56:48Z</time>
  <course>242.03</course>
  <speed>3.7</speed>
  <fix>3d</fix>
</trkpt>
<trkpt lat="40.071361" lon="-105.2297598">
  <ele>1583.16</ele>
  <time>2026-08-28T17:56:48Z</time>
  <course>243.59</course>
  <speed>3.650054794109261</speed>
  <fix>3d</fix>
</trkpt>
<trkpt lat="40.0713633" lon="-105.2297536">
  <ele>1583.0</ele>
  <time>2026-08-28T17:56:48Z</time>
  <course>242.03</course>
  <speed>3.7</speed>
  <fix>3d</fix>
</trkpt>
<trkpt lat="40.0713597" lon="-105.2297629">
  <ele>1583.16</ele>
  <time>2026-08-28T17:56:48Z</time>
  <course>243.6</course>
  <speed>3.645408070436011</speed>
  <fix>3d</fix>
</trkpt>
<trkpt lat="40.0713633" lon="-105.2297536">
  <ele>1583.0</ele>
  <time>2026-08-28T17:56:48Z</time>
  <course>242.03</course>
  <speed>3.7</speed>
  <fix>3d</fix>
</trkpt>
<trkpt lat="40.0713582" lon="-105.2297667">
  <ele>1583.16</ele>
  <time>2026-08-28T17:56:48Z</time>
  <course>243.6</course>
  <speed>3.645408070436011</speed>
  <fix>3d</fix>
</trkpt>
<trkpt lat="40.0713602" lon="-105.2297613">
  <ele>1583.0</ele>
  <time>2026-08-28T17:56:48Z</time>
  <course>242.03</course>
  <speed>3.7</speed>
  <fix>3d</fix>
</trkpt>
<trkpt lat="40.0713566" lon="-105.2297705">
  <ele>1583.16</ele>
  <time>2026-08-28T17:56:48Z</time>
  <course>243.61</course>
  <speed>3.645408070436011</speed>
  <fix>3d</fix>
</trkpt>
<trkpt lat="40.0713602" lon="-105.2297613">
  <ele>1583.0</ele>
  <time>2026-08-28T17:56:48Z</time>
  <course>242.03</course>
  <speed>3.7</speed>
  <fix>3d</fix>
</trkpt>
<trkpt lat="40.0713551" lon="-105.2297744">
  <ele>1583.16</ele>
  <time>2026-08-28T17:56:48Z</time>
  <course>243.61</course>
  <speed>3.645408070436011</speed>
  <fix>3d</fix>
</trkpt>
<trkpt lat="40.0713571" lon="-105.229769">
  <ele>1583.0</ele>
  <time>2026-08-28T17:56:48Z</time>
  <course>242.03</course>
  <speed>3.7</speed>
  <fix>3d</fix>
</trkpt>
<trkpt lat="40.0713535" lon="-105.2297782">
  <ele>1583.16</ele>
  <time>2026-08-28T17:56:48Z</time>
  <course>243.62</course>
  <speed>3.6542714732214407</speed>
  <fix>3d</fix>
</trkpt>
<trkpt lat="40.0713571" lon="-105.229769">
  <ele>1583.0</ele>
  <time>2026-08-28T17:56:48Z</time>
  <course>242.03</course>
  <speed>3.7</speed>
  <fix>3d</fix>
</trkpt>
<trkpt lat="40.0713519" lon="-105.2297821">
  <ele>1583.16</ele>
  <time>2026-08-28T17:56:48Z</time>
  <course>243.62</course>
  <speed>3.6542714732214407</speed>
  <fix>3d</fix>
</trkpt>
<trkpt lat="40.071354" lon="-105.2297767">
  <ele>1583.0</ele>
  <time>2026-08-28T17:56:48Z</time>
  <course>242.03</course>
  <speed>3.7</speed>
  <fix>3d</fix>
</trkpt>
<trkpt lat="40.0713504" lon="-105.229786">
  <ele>1583.15</ele>
  <time>2026-08-28T17:56:48Z</time>
  <course>243.62</course>
  <speed>3.6589069406039827</speed>
  <fix>3d</fix>
</trkpt>
<trkpt lat="40.071354" lon="-105.2297767">
  <ele>1583.0</ele>
  <time>2026-08-28T17:56:48Z</time>
  <course>242.03</course>
  <speed>3.7</speed>
  <fix>3d</fix>
</trkpt>
<trkpt lat="40.0713488" lon="-105.2297898">
  <ele>1583.15</ele>
  <time>2026-08-28T17:56:48Z</time>
  <course>243.63</course>
  <speed>3.6589069406039827</speed>
  <fix>3d</fix>
</trkpt>
<trkpt lat="40.0713509" lon="-105.2297844">
  <ele>1583.0</ele>
  <time>2026-08-28T17:56:48Z</time>
  <course>242.03</course>
  <speed>3.7</speed>
  <fix>3d</fix>
</trkpt>
<trkpt lat="40.0713472" lon="-105.2297937">
  <ele>1583.15</ele>
  <time>2026-08-28T17:56:48Z</time>
  <course>243.63</course>
  <speed>3.6589069406039827</speed>
  <fix>3d</fix>
</trkpt>
<trkpt lat="40.0713509" lon="-105.2297844">
  <ele>1583.0</ele>
  <time>2026-08-28T17:56:48Z</time>
  <course>242.03</course>
  <speed>3.7</speed>
  <fix>3d</fix>
</trkpt>
<trkpt lat="40.0713457" lon="-105.2297976">
  <ele>1583.15</ele>
  <time>2026-08-28T17:56:48Z</time>
  <course>243.63</course>
  <speed>3.6589069406039827</speed>
  <fix>3d</fix>
</trkpt>
<trkpt lat="40.0713477" lon="-105.2297921">
  <ele>1583.0</ele>
  <time>2026-08-28T17:56:48Z</time>
  <course>242.03</course>
  <speed>3.7</speed>
  <fix>3d</fix>
</trkpt>
<trkpt lat="40.0713438" lon="-105.2298022">
  <ele>1583.14</ele>
  <time>2026-08-28T17:56:48Z</time>
  <course>243.64</course>
  <speed>3.667764987018661</speed>
  <fix>3d</fix>
</trkpt>
<trkpt lat="40.0713477" lon="-105.2297921">
  <ele>1583.0</ele>
  <time>2026-08-28T17:56:48Z</time>
  <course>242.03</course>
  <speed>3.7</speed>
  <fix>3d</fix>
</trkpt>
<trkpt lat="40.0713422" lon="-105.2298061">
  <ele>1583.14</ele>
  <time>2026-08-28T17:56:48Z</time>
  <course>243.64</course>
  <speed>3.667764987018661</speed>
  <fix>3d</fix>
</trkpt>
<trkpt lat="40.0713446" lon="-105.2297997">
  <ele>1583.0</ele>
  <time>2026-08-28T17:56:48Z</time>
  <course>242.03</course>
  <speed>3.7</speed>
  <fix>3d</fix>
</trkpt>
<trkpt lat="40.0713407" lon="-105.2298099">
  <ele>1583.13</ele>
  <time>2026-08-28T17:56:48Z</time>
  <course>243.64</course>
  <speed>3.667764987018661</speed>
  <fix>3d</fix>
</trkpt>
<trkpt lat="40.0713446" lon="-105.2297997">
  <ele>1583.0</ele>
  <time>2026-08-28T17:56:48Z</time>
  <course>242.03</course>
  <speed>3.7</speed>
  <fix>3d</fix>
</trkpt>
<trkpt lat="40.0713391" lon="-105.2298138">
  <ele>1583.13</ele>
  <time>2026-08-28T17:56:48Z</time>
  <course>243.65</course>
  <speed>3.667764987018661</speed>
  <fix>3d</fix>
</trkpt>
<trkpt lat="40.0713415" lon="-105.2298074">
  <ele>1583.0</ele>
  <time>2026-08-28T17:56:48Z</time>
  <course>242.03</course>
  <speed>3.7</speed>
  <fix>3d</fix>
</trkpt>
<trkpt lat="40.0713375" lon="-105.2298177">
  <ele>1583.13</ele>
  <time>2026-08-28T17:56:48Z</time>
  <course>243.65</course>
  <speed>3.667764987018661</speed>
  <fix>3d</fix>
</trkpt>
<trkpt lat="40.0713415" lon="-105.2298074">
  <ele>1583.0</ele>
  <time>2026-08-28T17:56:48Z</time>
  <course>242.03</course>
  <speed>3.7</speed>
  <fix>3d</fix>
</trkpt>
<trkpt lat="40.071336" lon="-105.2298216">
  <ele>1583.13</ele>
  <time>2026-08-28T17:56:48Z</time>
  <course>243.65</course>
  <speed>3.667764987018661</speed>
  <fix>3d</fix>
</trkpt>
<trkpt lat="40.0713384" lon="-105.2298151">
  <ele>1583.0</ele>
  <time>2026-08-28T17:56:48Z</time>
  <course>242.03</course>
  <speed>3.7</speed>
  <fix>3d</fix>
</trkpt>
<trkpt lat="40.0713344" lon="-105.2298254">
  <ele>1583.12</ele>
  <time>2026-08-28T17:56:48Z</time>
  <course>243.65</course>
  <speed>3.667764987018661</speed>
  <fix>3d</fix>
</trkpt>
<trkpt lat="40.0713384" lon="-105.2298151">
  <ele>1583.0</ele>
  <time>2026-08-28T17:56:48Z</time>
  <course>242.03</course>
  <speed>3.7</speed>
  <fix>3d</fix>
</trkpt>
<trkpt lat="40.0713329" lon="-105.2298292">
  <ele>1583.12</ele>
  <time>2026-08-28T17:56:48Z</time>
  <course>243.66</course>
  <speed>3.667764987018661</speed>
  <fix>3d</fix>
</trkpt>
<trkpt lat="40.0713352" lon="-105.2298228">
  <ele>1583.0</ele>
  <time>2026-08-28T17:56:48Z</time>
  <course>242.03</course>
  <speed>3.7</speed>
  <fix>3d</fix>
</trkpt>
<trkpt lat="40.0713313" lon="-105.229833">
  <ele>1583.12</ele>
  <time>2026-08-28T17:56:48Z</time>
  <course>243.66</course>
  <speed>3.667764987018661</speed>
  <fix>3d</fix>
</trkpt>
<trkpt lat="40.0713352" lon="-105.2298228">
  <ele>1583.0</ele>
  <time>2026-08-28T17:56:48Z</time>
  <course>242.03</course>
  <speed>3.7</speed>
  <fix>3d</fix>
</trkpt>
<trkpt lat="40.0713298" lon="-105.2298369">
  <ele>1583.12</ele>
  <time>2026-08-28T17:56:48Z</time>
  <course>243.66</course>
  <speed>3.667764987018661</speed>
  <fix>3d</fix>
</trkpt>
<trkpt lat="40.0713321" lon="-105.2298305">
  <ele>1583.0</ele>
  <time>2026-08-28T17:56:48Z</time>
  <course>242.03</course>
  <speed>3.7</speed>
  <fix>3d</fix>
</trkpt>
<trkpt lat="40.0713282" lon="-105.2298407">
  <ele>1583.12</ele>
  <time>2026-08-28T17:56:48Z</time>
  <course>243.66</course>
  <speed>3.667764987018661</speed>
  <fix>3d</fix>
</trkpt>
<trkpt lat="40.0713321" lon="-105.2298305">
  <ele>1583.0</ele>
  <time>2026-08-28T17:56:48Z</time>
  <course>242.03</course>
  <speed>3.7</speed>
  <fix>3d</fix>
</trkpt>
<trkpt lat="40.071327" lon="-105.2298438">
  <ele>1583.12</ele>
  <time>2026-08-28T17:56:48Z</time>
  <course>243.66</course>
  <speed>3.667764987018661</speed>
  <fix>3d</fix>
</trkpt>
<trkpt lat="40.071329" lon="-105.2298382">
  <ele>1583.0</ele>
  <time>2026-08-28T17:56:48Z</time>
  <course>242.03</course>
  <speed>3.7</speed>
  <fix>3d</fix>
</trkpt>
<trkpt lat="40.0713254" lon="-105.2298476">
  <ele>1583.12</ele>
  <time>2026-08-28T17:56:48Z</time>
  <course>243.66</course>
  <speed>3.667764987018661</speed>
  <fix>3d</fix>
</trkpt>
<trkpt lat="40.071329" lon="-105.2298382">
  <ele>1583.0</ele>
  <time>2026-08-28T17:56:48Z</time>
  <course>242.03</course>
  <speed>3.7</speed>
  <fix>3d</fix>
</trkpt>
<trkpt lat="40.0713238" lon="-105.2298514">
  <ele>1583.12</ele>
  <time>2026-08-28T17:56:48Z</time>
  <course>243.66</course>
  <speed>3.667764987018661</speed>
  <fix>3d</fix>
</trkpt>
<trkpt lat="40.0713259" lon="-105.2298459">
  <ele>1583.0</ele>
  <time>2026-08-28T17:56:48Z</time>
  <course>242.03</course>
  <speed>3.7</speed>
  <fix>3d</fix>
</trkpt>
<trkpt lat="40.0713223" lon="-105.2298553">
  <ele>1583.12</ele>
  <time>2026-08-28T17:56:48Z</time>
  <course>243.67</course>
  <speed>3.667764987018661</speed>
  <fix>3d</fix>
</trkpt>
<trkpt lat="40.0713259" lon="-105.2298459">
  <ele>1583.0</ele>
  <time>2026-08-28T17:56:48Z</time>
  <course>242.03</course>
  <speed>3.7</speed>
  <fix>3d</fix>
</trkpt>
<trkpt lat="40.0713207" lon="-105.2298592">
  <ele>1583.12</ele>
  <time>2026-08-28T17:56:48Z</time>
  <course>243.67</course>
  <speed>3.667764987018661</speed>
  <fix>3d</fix>
</trkpt>
<trkpt lat="40.0713227" lon="-105.2298536">
  <ele>1583.0</ele>
  <time>2026-08-28T17:56:48Z</time>
  <course>242.03</course>
  <speed>3.7</speed>
  <fix>3d</fix>
</trkpt>
<trkpt lat="40.0713191" lon="-105.229863">
  <ele>1583.12</ele>
  <time>2026-08-28T17:56:48Z</time>
  <course>243.67</course>
  <speed>3.667764987018661</speed>
  <fix>3d</fix>
</trkpt>
<trkpt lat="40.0713227" lon="-105.2298536">
  <ele>1583.0</ele>
  <time>2026-08-28T17:56:48Z</time>
  <course>242.03</course>
  <speed>3.7</speed>
  <fix>3d</fix>
</trkpt>
<trkpt lat="40.0713176" lon="-105.2298669">
  <ele>1583.12</ele>
  <time>2026-08-28T17:56:48Z</time>
  <course>243.67</course>
  <speed>3.667764987018661</speed>
  <fix>3d</fix>
</trkpt>
<trkpt lat="40.0713196" lon="-105.2298613">
  <ele>1583.0</ele>
  <time>2026-08-28T17:56:48Z</time>
  <course>242.03</course>
  <speed>3.7</speed>
  <fix>3d</fix>
</trkpt>
<trkpt lat="40.071316" lon="-105.2298708">
  <ele>1583.12</ele>
  <time>2026-08-28T17:56:48Z</time>
  <course>243.67</course>
  <speed>3.6766288907095315</speed>
  <fix>3d</fix>
</trkpt>
<trkpt lat="40.0713196" lon="-105.2298613">
  <ele>1583.0</ele>
  <time>2026-08-28T17:56:48Z</time>
  <course>242.03</course>
  <speed>3.7</speed>
  <fix>3d</fix>
</trkpt>
<trkpt lat="40.0713144" lon="-105.2298746">
  <ele>1583.12</ele>
  <time>2026-08-28T17:56:48Z</time>
  <course>243.67</course>
  <speed>3.6766288907095315</speed>
  <fix>3d</fix>
</trkpt>
<trkpt lat="40.0713165" lon="-105.229869">
  <ele>1583.0</ele>
  <time>2026-08-28T17:56:48Z</time>
  <course>242.03</course>
  <speed>3.7</speed>
  <fix>3d</fix>
</trkpt>
<trkpt lat="40.0713125" lon="-105.2298793">
  <ele>1583.12</ele>
  <time>2026-08-28T17:56:48Z</time>
  <course>243.67</course>
  <speed>3.6766288907095315</speed>
  <fix>3d</fix>
</trkpt>
<trkpt lat="40.0713165" lon="-105.229869">
  <ele>1583.0</ele>
  <time>2026-08-28T17:56:48Z</time>
  <course>242.03</course>
  <speed>3.7</speed>
  <fix>3d</fix>
</trkpt>
<trkpt lat="40.071311" lon="-105.2298832">
  <ele>1583.12</ele>
  <time>2026-08-28T17:56:48Z</time>
  <course>243.67</course>
  <speed>3.6766288907095315</speed>
  <fix>3d</fix>
</trkpt>
<trkpt lat="40.0713133" lon="-105.2298767">
  <ele>1583.0</ele>
  <time>2026-08-28T17:56:48Z</time>
  <course>242.03</course>
  <speed>3.7</speed>
  <fix>3d</fix>
</trkpt>
<trkpt lat="40.0713094" lon="-105.229887">
  <ele>1583.12</ele>
  <time>2026-08-28T17:56:48Z</time>
  <course>243.67</course>
  <speed>3.6766288907095315</speed>
  <fix>3d</fix>
</trkpt>
<trkpt lat="40.0713133" lon="-105.2298767">
  <ele>1583.0</ele>
  <time>2026-08-28T17:56:48Z</time>
  <course>242.03</course>
  <speed>3.7</speed>
  <fix>3d</fix>
</trkpt>
<trkpt lat="40.0713078" lon="-105.2298909">
  <ele>1583.12</ele>
  <time>2026-08-28T17:56:48Z</time>
  <course>243.67</course>
  <speed>3.6766288907095315</speed>
  <fix>3d</fix>
</trkpt>
<trkpt lat="40.0713102" lon="-105.2298844">
  <ele>1583.0</ele>
  <time>2026-08-28T17:56:48Z</time>
  <course>242.03</course>
  <speed>3.7</speed>
  <fix>3d</fix>
</trkpt>
<trkpt lat="40.0713063" lon="-105.2298948">
  <ele>1583.12</ele>
  <time>2026-08-28T17:56:48Z</time>
  <course>243.67</course>
  <speed>3.6766288907095315</speed>
  <fix>3d</fix>
</trkpt>
<trkpt lat="40.0713102" lon="-105.2298844">
  <ele>1583.0</ele>
  <time>2026-08-28T17:56:48Z</time>
  <course>242.03</course>
  <speed>3.7</speed>
  <fix>3d</fix>
</trkpt>
<trkpt lat="40.0713047" lon="-105.2298986">
  <ele>1583.12</ele>
  <time>2026-08-28T17:56:48Z</time>
  <course>243.67</course>
  <speed>3.6766288907095315</speed>
  <fix>3d</fix>
</trkpt>
<trkpt lat="40.0713071" lon="-105.2298921">
  <ele>1583.0</ele>
  <time>2026-08-28T17:56:48Z</time>
  <course>242.03</course>
  <speed>3.7</speed>
  <fix>3d</fix>
</trkpt>
<trkpt lat="40.0713031" lon="-105.2299025">
  <ele>1583.12</ele>
  <time>2026-08-28T17:56:48Z</time>
  <course>243.67</course>
  <speed>3.6766288907095315</speed>
  <fix>3d</fix>
</trkpt>
<trkpt lat="40.0713071" lon="-105.2298921">
  <ele>1583.0</ele>
  <time>2026-08-28T17:56:48Z</time>
  <course>242.03</course>
  <speed>3.7</speed>
  <fix>3d</fix>
</trkpt>
<trkpt lat="40.0713016" lon="-105.2299063">
  <ele>1583.12</ele>
  <time>2026-08-28T17:56:48Z</time>
  <course>243.67</course>
  <speed>3.6766288907095315</speed>
  <fix>3d</fix>
</trkpt>
<trkpt lat="40.071304" lon="-105.2298998">
  <ele>1583.0</ele>
  <time>2026-08-28T17:56:48Z</time>
  <course>242.03</course>
  <speed>3.7</speed>
  <fix>3d</fix>
</trkpt>
<trkpt lat="40.0713" lon="-105.2299101">
  <ele>1583.12</ele>
  <time>2026-08-28T17:56:48Z</time>
  <course>243.67</course>
  <speed>3.6766288907095315</speed>
  <fix>3d</fix>
</trkpt>
<trkpt lat="40.071304" lon="-105.2298998">
  <ele>1583.0</ele>
  <time>2026-08-28T17:56:48Z</time>
  <course>242.03</course>
  <speed>3.7</speed>
  <fix>3d</fix>
</trkpt>
<trkpt lat="40.0712985" lon="-105.2299139">
  <ele>1583.12</ele>
  <time>2026-08-28T17:56:48Z</time>
  <course>243.67</course>
  <speed>3.6766288907095315</speed>
  <fix>3d</fix>
</trkpt>
<trkpt lat="40.0713009" lon="-105.2299075">
  <ele>1583.0</ele>
  <time>2026-08-28T17:56:48Z</time>
  <course>242.03</course>
  <speed>3.7</speed>
  <fix>3d</fix>
</trkpt>
<trkpt lat="40.0712969" lon="-105.2299177">
  <ele>1583.13</ele>
  <time>2026-08-28T17:56:48Z</time>
  <course>243.67</course>
  <speed>3.6766288907095315</speed>
  <fix>3d</fix>
</trkpt>
<trkpt lat="40.0713009" lon="-105.2299075">
  <ele>1583.0</ele>
  <time>2026-08-28T17:56:48Z</time>
  <course>242.03</course>
  <speed>3.7</speed>
  <fix>3d</fix>
</trkpt>
<trkpt lat="40.0712954" lon="-105.2299216">
  <ele>1583.13</ele>
  <time>2026-08-28T17:56:48Z</time>
  <course>243.67</course>
  <speed>3.6766288907095315</speed>
  <fix>3d</fix>
</trkpt>
<trkpt lat="40.0712977" lon="-105.2299151">
  <ele>1583.0</ele>
  <time>2026-08-28T17:56:48Z</time>
  <course>242.03</course>
  <speed>3.7</speed>
  <fix>3d</fix>
</trkpt>
<trkpt lat="40.0712941" lon="-105.2299246">
  <ele>1583.13</ele>
  <time>2026-08-28T17:56:48Z</time>
  <course>243.67</course>
  <speed>3.6766288907095315</speed>
  <fix>3d</fix>
</trkpt>
<trkpt lat="40.0712977" lon="-105.2299151">
  <ele>1583.0</ele>
  <time>2026-08-28T17:56:48Z</time>
  <course>242.03</course>
  <speed>3.7</speed>
  <fix>3d</fix>
</trkpt>
<trkpt lat="40.0712926" lon="-105.2299284">
  <ele>1583.13</ele>
  <time>2026-08-28T17:56:48Z</time>
  <course>243.67</course>
  <speed>3.667764987018661</speed>
  <fix>3d</fix>
</trkpt>
<trkpt lat="40.0712946" lon="-105.2299228">
  <ele>1583.0</ele>
  <time>2026-08-28T17:56:48Z</time>
  <course>242.03</course>
  <speed>3.7</speed>
  <fix>3d</fix>
</trkpt>
<trkpt lat="40.071291" lon="-105.2299323">
  <ele>1583.13</ele>
  <time>2026-08-28T17:56:48Z</time>
  <course>243.67</course>
  <speed>3.667764987018661</speed>
  <fix>3d</fix>
</trkpt>
<trkpt lat="40.0712946" lon="-105.2299228">
  <ele>1583.0</ele>
  <time>2026-08-28T17:56:48Z</time>
  <course>242.03</course>
  <speed>3.7</speed>
  <fix>3d</fix>
</trkpt>
<trkpt lat="40.0712895" lon="-105.2299361">
  <ele>1583.14</ele>
  <time>2026-08-28T17:56:48Z</time>
  <course>243.67</course>
  <speed>3.667764987018661</speed>
  <fix>3d</fix>
</trkpt>
<trkpt lat="40.0712915" lon="-105.2299305">
  <ele>1583.0</ele>
  <time>2026-08-28T17:56:48Z</time>
  <course>242.03</course>
  <speed>3.7</speed>
  <fix>3d</fix>
</trkpt>
<trkpt lat="40.0712879" lon="-105.22994">
  <ele>1583.14</ele>
  <time>2026-08-28T17:56:48Z</time>
  <course>243.67</course>
  <speed>3.6766288907095315</speed>
  <fix>3d</fix>
</trkpt>
<trkpt lat="40.0712915" lon="-105.2299305">
  <ele>1583.0</ele>
  <time>2026-08-28T17:56:48Z</time>
  <course>242.03</course>
  <speed>3.7</speed>
  <fix>3d</fix>
</trkpt>
<trkpt lat="40.0712863" lon="-105.2299438">
  <ele>1583.14</ele>
  <time>2026-08-28T17:56:48Z</time>
  <course>243.67</course>
  <speed>3.6766288907095315</speed>
  <fix>3d</fix>
</trkpt>
<trkpt lat="40.0712884" lon="-105.2299382">
  <ele>1583.0</ele>
  <time>2026-08-28T17:56:48Z</time>
  <course>242.03</course>
  <speed>3.7</speed>
  <fix>3d</fix>
</trkpt>
<trkpt lat="40.0712847" lon="-105.2299477">
  <ele>1583.14</ele>
  <time>2026-08-28T17:56:48Z</time>
  <course>243.67</course>
  <speed>3.6766288907095315</speed>
  <fix>3d</fix>
</trkpt>
<trkpt lat="40.0712884" lon="-105.2299382">
  <ele>1583.0</ele>
  <time>2026-08-28T17:56:48Z</time>
  <course>242.03</course>
  <speed>3.7</speed>
  <fix>3d</fix>
</trkpt>
<trkpt lat="40.0712832" lon="-105.2299516">
  <ele>1583.14</ele>
  <time>2026-08-28T17:56:48Z</time>
  <course>243.67</course>
  <speed>3.6766288907095315</speed>
  <fix>3d</fix>
</trkpt>
<trkpt lat="40.0712852" lon="-105.2299459">
  <ele>1583.0</ele>
  <time>2026-08-28T17:56:48Z</time>
  <course>242.03</course>
  <speed>3.7</speed>
  <fix>3d</fix>
</trkpt>
<trkpt lat="40.0712816" lon="-105.2299554">
  <ele>1583.14</ele>
  <time>2026-08-28T17:56:48Z</time>
  <course>243.67</course>
  <speed>3.6766288907095315</speed>
  <fix>3d</fix>
</trkpt>
<trkpt lat="40.0712852" lon="-105.2299459">
  <ele>1583.0</ele>
  <time>2026-08-28T17:56:48Z</time>
  <course>242.03</course>
  <speed>3.7</speed>
  <fix>3d</fix>
</trkpt>
<trkpt lat="40.0712797" lon="-105.2299601">
  <ele>1583.14</ele>
  <time>2026-08-28T17:56:48Z</time>
  <course>243.67</course>
  <speed>3.6766288907095315</speed>
  <fix>3d</fix>
</trkpt>
<trkpt lat="40.0712821" lon="-105.2299536">
  <ele>1583.0</ele>
  <time>2026-08-28T17:56:48Z</time>
  <course>242.03</course>
  <speed>3.7</speed>
  <fix>3d</fix>
</trkpt>
<trkpt lat="40.0712781" lon="-105.2299639">
  <ele>1583.14</ele>
  <time>2026-08-28T17:56:48Z</time>
  <course>243.68</course>
  <speed>3.6766288907095315</speed>
  <fix>3d</fix>
</trkpt>
<trkpt lat="40.0712821" lon="-105.2299536">
  <ele>1583.0</ele>
  <time>2026-08-28T17:56:48Z</time>
  <course>242.03</course>
  <speed>3.7</speed>
  <fix>3d</fix>
</trkpt>
<trkpt lat="40.0712766" lon="-105.2299678">
  <ele>1583.14</ele>
  <time>2026-08-28T17:56:48Z</time>
  <course>243.69</course>
  <speed>3.6766288907095315</speed>
  <fix>3d</fix>
</trkpt>
<trkpt lat="40.071279" lon="-105.2299613">
  <ele>1583.0</ele>
  <time>2026-08-28T17:56:48Z</time>
  <course>242.04</course>
  <speed>3.7</speed>
  <fix>3d</fix>
</trkpt>
<trkpt lat="40.071275" lon="-105.2299716">
  <ele>1583.14</ele>
  <time>2026-08-28T17:56:48Z</time>
  <course>243.7</course>
  <speed>3.6766288907095315</speed>
  <fix>3d</fix>
</trkpt>
<trkpt lat="40.071279" lon="-105.2299613">
  <ele>1583.0</ele>
  <time>2026-08-28T17:56:48Z</time>
  <course>242.04</course>
  <speed>3.7</speed>
  <fix>3d</fix>
</trkpt>
<trkpt lat="40.0712734" lon="-105.2299755">
  <ele>1583.14</ele>
  <time>2026-08-28T17:56:48Z</time>
  <course>243.71</course>
  <speed>3.685498609415014</speed>
  <fix>3d</fix>
</trkpt>
<trkpt lat="40.0712759" lon="-105.229969">
  <ele>1583.0</ele>
  <time>2026-08-28T17:56:48Z</time>
  <course>242.06</course>
  <speed>3.71</speed>
  <fix>3d</fix>
</trkpt>
<trkpt lat="40.0712719" lon="-105.2299794">
  <ele>1583.14</ele>
  <time>2026-08-28T17:56:48Z</time>
  <course>243.74</course>
  <speed>3.685498609415014</speed>
  <fix>3d</fix>
</trkpt>
<trkpt lat="40.0712759" lon="-105.229969">
  <ele>1583.0</ele>
  <time>2026-08-28T17:56:48Z</time>
  <course>242.06</course>
  <speed>3.71</speed>
  <fix>3d</fix>
</trkpt>
<trkpt lat="40.0712703" lon="-105.2299833">
  <ele>1583.15</ele>
  <time>2026-08-28T17:56:48Z</time>
  <course>243.77</course>
  <speed>3.685498609415014</speed>
  <fix>3d</fix>
</trkpt>
<trkpt lat="40.0712727" lon="-105.2299767">
  <ele>1583.0</ele>
  <time>2026-08-28T17:56:48Z</time>
  <course>242.11</course>
  <speed>3.71</speed>
  <fix>3d</fix>
</trkpt>
<trkpt lat="40.0712688" lon="-105.2299871">
  <ele>1583.15</ele>
  <time>2026-08-28T17:56:48Z</time>
  <course>243.8</course>
  <speed>3.685498609415014</speed>
  <fix>3d</fix>
</trkpt>
<trkpt lat="40.0712727" lon="-105.2299767">
  <ele>1583.0</ele>
  <time>2026-08-28T17:56:48Z</time>
  <course>242.11</course>
  <speed>3.71</speed>
  <fix>3d</fix>
</trkpt>
<trkpt lat="40.0712672" lon="-105.229991">
  <ele>1583.15</ele>
  <time>2026-08-28T17:56:48Z</time>
  <course>243.82</course>
  <speed>3.685498609415014</speed>
  <fix>3d</fix>
</trkpt>
<trkpt lat="40.0712696" lon="-105.2299844">
  <ele>1583.0</ele>
  <time>2026-08-28T17:56:48Z</time>
  <course>242.16</course>
  <speed>3.71</speed>
  <fix>3d</fix>
</trkpt>
<trkpt lat="40.0712657" lon="-105.2299948">
  <ele>1583.15</ele>
  <time>2026-08-28T17:56:48Z</time>
  <course>243.84</course>
  <speed>3.680896629898753</speed>
  <fix>3d</fix>
</trkpt>
<trkpt lat="40.0712696" lon="-105.2299844">
  <ele>1583.0</ele>
  <time>2026-08-28T17:56:48Z</time>
  <course>242.16</course>
  <speed>3.71</speed>
  <fix>3d</fix>
</trkpt>
<trkpt lat="40.0712641" lon="-105.2299986">
  <ele>1583.16</ele>
  <time>2026-08-28T17:56:48Z</time>
  <course>243.89</course>
  <speed>3.680896629898753</speed>
  <fix>3d</fix>
</trkpt>
<trkpt lat="40.0712665" lon="-105.2299921">
  <ele>1583.0</ele>
  <time>2026-08-28T17:56:48Z</time>
  <course>242.21</course>
  <speed>3.71</speed>
  <fix>3d</fix>
</trkpt>
<trkpt lat="40.0712629" lon="-105.2300017">
  <ele>1583.16</ele>
  <time>2026-08-28T17:56:48Z</time>
  <course>243.91</course>
  <speed>3.680896629898753</speed>
  <fix>3d</fix>
</trkpt>
<trkpt lat="40.0712665" lon="-105.2299921">
  <ele>1583.0</ele>
  <time>2026-08-28T17:56:48Z</time>
  <course>242.21</course>
  <speed>3.71</speed>
  <fix>3d</fix>
</trkpt>
<trkpt lat="40.0712613" lon="-105.2300055">
  <ele>1583.16</ele>
  <time>2026-08-28T17:56:48Z</time>
  <course>243.96</course>
  <speed>3.680896629898753</speed>
  <fix>3d</fix>
</trkpt>
<trkpt lat="40.0712634" lon="-105.2299998">
  <ele>1583.0</ele>
  <time>2026-08-28T17:56:48Z</time>
  <course>242.29</course>
  <speed>3.71</speed>
  <fix>3d</fix>
</trkpt>
<trkpt lat="40.0712598" lon="-105.2300094">
  <ele>1583.16</ele>
  <time>2026-08-28T17:56:48Z</time>
  <course>244.0</course>
  <speed>3.6763160908714037</speed>
  <fix>3d</fix>
</trkpt>
<trkpt lat="40.0712634" lon="-105.2299998">
  <ele>1583.0</ele>
  <time>2026-08-28T17:56:48Z</time>
  <course>242.29</course>
  <speed>3.71</speed>
  <fix>3d</fix>
</trkpt>
<trkpt lat="40.0712583" lon="-105.2300132">
  <ele>1583.16</ele>
  <time>2026-08-28T17:56:48Z</time>
  <course>244.05</course>
  <speed>3.6763160908714037</speed>
  <fix>3d</fix>
</trkpt>
<trkpt lat="40.0712603" lon="-105.2300075">
  <ele>1583.0</ele>
  <time>2026-08-28T17:56:48Z</time>
  <course>242.37</course>
  <speed>3.71</speed>
  <fix>3d</fix>
</trkpt>
<trkpt lat="40.0712567" lon="-105.2300171">
  <ele>1583.16</ele>
  <time>2026-08-28T17:56:48Z</time>
  <course>244.06</course>
  <speed>3.6852136980099264</speed>
  <fix>3d</fix>
</trkpt>
<trkpt lat="40.0712603" lon="-105.2300075">
  <ele>1583.0</ele>
  <time>2026-08-28T17:56:48Z</time>
  <course>242.37</course>
  <speed>3.71</speed>
  <fix>3d</fix>
</trkpt>
<trkpt lat="40.0712552" lon="-105.230021">
  <ele>1583.16</ele>
  <time>2026-08-28T17:56:48Z</time>
  <course>244.04</course>
  <speed>3.6852136980099264</speed>
  <fix>3d</fix>
</trkpt>
<trkpt lat="40.0712572" lon="-105.2300152">
  <ele>1583.0</ele>
  <time>2026-08-28T17:56:48Z</time>
  <course>242.42</course>
  <speed>3.71</speed>
  <fix>3d</fix>
</trkpt>
<trkpt lat="40.0712536" lon="-105.2300249">
  <ele>1583.16</ele>
  <time>2026-08-28T17:56:48Z</time>
  <course>243.92</course>
  <speed>3.680896629898753</speed>
  <fix>3d</fix>
</trkpt>
<trkpt lat="40.0712572" lon="-105.2300152">
  <ele>1583.0</ele>
  <time>2026-08-28T17:56:48Z</time>
  <course>242.42</course>
  <speed>3.71</speed>
  <fix>3d</fix>
</trkpt>
<trkpt lat="40.071252" lon="-105.2300287">
  <ele>1583.15</ele>
  <time>2026-08-28T17:56:48Z</time>
  <course>243.71</course>
  <speed>3.685498609415014</speed>
  <fix>3d</fix>
</trkpt>
<trkpt lat="40.0712541" lon="-105.230023">
  <ele>1583.0</ele>
  <time>2026-08-28T17:56:48Z</time>
  <course>242.29</course>
  <speed>3.71</speed>
  <fix>3d</fix>
</trkpt>
<trkpt lat="40.0712504" lon="-105.2300326">
  <ele>1583.15</ele>
  <time>2026-08-28T17:56:48Z</time>
  <course>243.4</course>
  <speed>3.6859191526673505</speed>
  <fix>3d</fix>
</trkpt>
<trkpt lat="40.0712541" lon="-105.230023">
  <ele>1583.0</ele>
  <time>2026-08-28T17:56:48Z</time>
  <course>242.29</course>
  <speed>3.71</speed>
  <fix>3d</fix>
</trkpt>
<trkpt lat="40.0712489" lon="-105.2300365">
  <ele>1583.15</ele>
  <time>2026-08-28T17:56:48Z</time>
  <course>242.96</course>
  <speed>3.69120576505835</speed>
  <fix>3d</fix>
</trkpt>
<trkpt lat="40.071251" lon="-105.2300307">
  <ele>1583.0</ele>
  <time>2026-08-28T17:56:48Z</time>
  <course>241.79</course>
  <speed>3.71</speed>
  <fix>3d</fix>
</trkpt>
<trkpt lat="40.0712469" lon="-105.2300411">
  <ele>1583.15</ele>
  <time>2026-08-28T17:56:48Z</time>
  <course>242.26</course>
  <speed>3.684087403957729</speed>
  <fix>3d</fix>
</trkpt>
<trkpt lat="40.071251" lon="-105.2300307">
  <ele>1583.0</ele>
  <time>2026-08-28T17:56:48Z</time>
  <course>241.79</course>
  <speed>3.71</speed>
  <fix>3d</fix>
</trkpt>
<trkpt lat="40.0712452" lon="-105.2300448">
  <ele>1583.15</ele>
  <time>2026-08-28T17:56:48Z</time>
  <course>241.54</course>
  <speed>3.6776351096866584</speed>
  <fix>3d</fix>
</trkpt>
<trkpt lat="40.0712478" lon="-105.2300384">
  <ele>1583.0</ele>
  <time>2026-08-28T17:56:48Z</time>
  <course>240.84</course>
  <speed>3.71</speed>
  <fix>3d</fix>
</trkpt>
<trkpt lat="40.0712435" lon="-105.2300486">
  <ele>1583.15</ele>
  <time>2026-08-28T17:56:48Z</time>
  <course>240.66</course>
  <speed>3.6718523935474314</speed>
  <fix>3d</fix>
</trkpt>
<trkpt lat="40.0712478" lon="-105.2300384">
  <ele>1583.0</ele>
  <time>2026-08-28T17:56:48Z</time>
  <course>240.84</course>
  <speed>3.71</speed>
  <fix>3d</fix>
</trkpt>
<trkpt lat="40.0712418" lon="-105.2300523">
  <ele>1583.15</ele>
  <time>2026-08-28T17:56:48Z</time>
  <course>239.61</course>
  <speed>3.660191251833707</speed>
  <fix>3d</fix>
</trkpt>
<trkpt lat="40.0712445" lon="-105.2300459">
  <ele>1583.0</ele>
  <time>2026-08-28T17:56:48Z</time>
  <course>239.33</course>
  <speed>3.69</speed>
  <fix>3d</fix>
</trkpt>
<trkpt lat="40.07124" lon="-105.2300559">
  <ele>1583.15</ele>
  <time>2026-08-28T17:56:48Z</time>
  <course>238.38</course>
  <speed>3.6501643798601733</speed>
  <fix>3d</fix>
</trkpt>
<trkpt lat="40.0712445" lon="-105.2300459">
  <ele>1583.0</ele>
  <time>2026-08-28T17:56:48Z</time>
  <course>239.33</course>
  <speed>3.69</speed>
  <fix>3d</fix>
</trkpt>
<trkpt lat="40.0712381" lon="-105.2300595">
  <ele>1583.14</ele>
  <time>2026-08-28T17:56:48Z</time>
  <course>236.94</course>
  <speed>3.6252724035581103</speed>
  <fix>3d</fix>
</trkpt>
<trkpt lat="40.071241" lon="-105.2300533">
  <ele>1583.0</ele>
  <time>2026-08-28T17:56:48Z</time>
  <course>237.17</course>
  <speed>3.67</speed>
  <fix>3d</fix>
</trkpt>
<trkpt lat="40.0712362" lon="-105.230063">
  <ele>1583.14</ele>
  <time>2026-08-28T17:56:48Z</time>
  <course>235.27</course>
  <speed>3.6062445840513924</speed>
  <fix>3d</fix>
</trkpt>
<trkpt lat="40.071241" lon="-105.2300533">
  <ele>1583.0</ele>
  <time>2026-08-28T17:56:48Z</time>
  <course>237.17</course>
  <speed>3.67</speed>
  <fix>3d</fix>
</trkpt>
<trkpt lat="40.0712343" lon="-105.2300663">
  <ele>1583.14</ele>
  <time>2026-08-28T17:56:48Z</time>
  <course>233.52</course>
  <speed>3.5845362322063368</speed>
  <fix>3d</fix>
</trkpt>
<trkpt lat="40.0712373" lon="-105.2300603">
  <ele>1583.0</ele>
  <time>2026-08-28T17:56:48Z</time>
  <course>234.27</course>
  <speed>3.63</speed>
  <fix>3d</fix>
</trkpt>
<trkpt lat="40.0712322" lon="-105.2300696">
  <ele>1583.14</ele>
  <time>2026-08-28T17:56:48Z</time>
  <course>231.64</course>
  <speed>3.5491970923013</speed>
  <fix>3d</fix>
</trkpt>
<trkpt lat="40.0712373" lon="-105.2300603">
  <ele>1583.0</ele>
  <time>2026-08-28T17:56:48Z</time>
  <course>234.27</course>
  <speed>3.63</speed>
  <fix>3d</fix>
</trkpt>
<trkpt lat="40.0712301" lon="-105.2300727">
  <ele>1583.15</ele>
  <time>2026-08-28T17:56:48Z</time>
  <course>229.63</course>
  <speed>3.512064919673325</speed>
  <fix>3d</fix>
</trkpt>
<trkpt lat="40.0712333" lon="-105.2300671">
  <ele>1583.0</ele>
  <time>2026-08-28T17:56:48Z</time>
  <course>230.73</course>
  <speed>3.57</speed>
  <fix>3d</fix>
</trkpt>
<trkpt lat="40.071228" lon="-105.2300756">
  <ele>1583.15</ele>
  <time>2026-08-28T17:56:48Z</time>
  <course>227.48</course>
  <speed>3.4581064182584087</speed>
  <fix>3d</fix>
</trkpt>
<trkpt lat="40.0712333" lon="-105.2300671">
  <ele>1583.0</ele>
  <time>2026-08-28T17:56:48Z</time>
  <course>230.73</course>
  <speed>3.57</speed>
  <fix>3d</fix>
</trkpt>
<trkpt lat="40.0712262" lon="-105.2300779">
  <ele>1583.15</ele>
  <time>2026-08-28T17:56:48Z</time>
  <course>225.63</course>
  <speed>3.415918617297549</speed>
  <fix>3d</fix>
</trkpt>
<trkpt lat="40.0712292" lon="-105.2300733">
  <ele>1583.0</ele>
  <time>2026-08-28T17:56:48Z</time>
  <course>226.68</course>
  <speed>3.49</speed>
  <fix>3d</fix>
</trkpt>
<trkpt lat="40.0712239" lon="-105.2300805">
  <ele>1583.15</ele>
  <time>2026-08-28T17:56:48Z</time>
  <course>223.19</course>
  <speed>3.3583924725975667</speed>
  <fix>3d</fix>
</trkpt>
<trkpt lat="40.0712292" lon="-105.2300733">
  <ele>1583.0</ele>
  <time>2026-08-28T17:56:48Z</time>
  <course>226.68</course>
  <speed>3.49</speed>
  <fix>3d</fix>
</trkpt>
<trkpt lat="40.0712216" lon="-105.230083">
  <ele>1583.15</ele>
  <time>2026-08-28T17:56:48Z</time>
  <course>220.58</course>
  <speed>3.2796493715029964</speed>
  <fix>3d</fix>
</trkpt>
<trkpt lat="40.0712248" lon="-105.2300789">
  <ele>1583.0</ele>
  <time>2026-08-28T17:56:48Z</time>
  <course>222.04</course>
  <speed>3.37</speed>
  <fix>3d</fix>
</trkpt>
<trkpt lat="40.0712192" lon="-105.2300853">
  <ele>1583.15</ele>
  <time>2026-08-28T17:56:48Z</time>
  <course>217.81</course>
  <speed>3.1945265689926576</speed>
  <fix>3d</fix>
</trkpt>
<trkpt lat="40.0712248" lon="-105.2300789">
  <ele>1583.0</ele>
  <time>2026-08-28T17:56:48Z</time>
  <course>222.04</course>
  <speed>3.37</speed>
  <fix>3d</fix>
</trkpt>
<trkpt lat="40.0712169" lon="-105.2300873">
  <ele>1583.15</ele>
  <time>2026-08-28T17:56:48Z</time>
  <course>214.86</course>
  <speed>3.1039490975207698</speed>
  <fix>3d</fix>
</trkpt>
<trkpt lat="40.0712202" lon="-105.2300839">
  <ele>1583.0</ele>
  <time>2026-08-28T17:56:48Z</time>
  <course>216.75</course>
  <speed>3.21</speed>
  <fix>3d</fix>
</trkpt>
<trkpt lat="40.0712145" lon="-105.2300892">
  <ele>1583.15</ele>
  <time>2026-08-28T17:56:48Z</time>
  <course>211.74</course>
  <speed>3.009119472536775</speed>
  <fix>3d</fix>
</trkpt>
<trkpt lat="40.0712202" lon="-105.2300839">
  <ele>1583.0</ele>
  <time>2026-08-28T17:56:48Z</time>
  <course>216.75</course>
  <speed>3.21</speed>
  <fix>3d</fix>
</trkpt>
<trkpt lat="40.0712121" lon="-105.2300908">
  <ele>1583.15</ele>
  <time>2026-08-28T17:56:48Z</time>
  <course>208.45</course>
  <speed>2.9025850547399985</speed>
  <fix>3d</fix>
</trkpt>
<trkpt lat="40.0712156" lon="-105.230088">
  <ele>1583.0</ele>
  <time>2026-08-28T17:56:48Z</time>
  <course>210.79</course>
  <speed>3.02</speed>
  <fix>3d</fix>
</trkpt>
<trkpt lat="40.0712097" lon="-105.2300921">
  <ele>1583.15</ele>
  <time>2026-08-28T17:56:48Z</time>
  <course>205.02</course>
  <speed>2.780017985553331</speed>
  <fix>3d</fix>
</trkpt>
<trkpt lat="40.0712156" lon="-105.230088">
  <ele>1583.0</ele>
  <time>2026-08-28T17:56:48Z</time>
  <course>210.79</course>
  <speed>3.02</speed>
  <fix>3d</fix>
</trkpt>
<trkpt lat="40.0712074" lon="-105.2300932">
  <ele>1583.15</ele>
  <time>2026-08-28T17:56:48Z</time>
  <course>201.47</course>
  <speed>2.659492432777352</speed>
  <fix>3d</fix>
</trkpt>
<trkpt lat="40.071211" lon="-105.2300911">
  <ele>1583.0</ele>
  <time>2026-08-28T17:56:48Z</time>
  <course>204.2</course>
  <speed>2.79</speed>
  <fix>3d</fix>
</trkpt>
<trkpt lat="40.0712052" lon="-105.230094">
  <ele>1583.15</ele>
  <time>2026-08-28T17:56:48Z</time>
  <course>197.88</course>
  <speed>2.515432368401106</speed>
  <fix>3d</fix>
</trkpt>
<trkpt lat="40.071211" lon="-105.2300911">
  <ele>1583.0</ele>
  <time>2026-08-28T17:56:48Z</time>
  <course>204.2</course>
  <speed>2.79</speed>
  <fix>3d</fix>
</trkpt>
<trkpt lat="40.0712027" lon="-105.2300948">
  <ele>1583.15</ele>
  <time>2026-08-28T17:56:48Z</time>
  <course>194.81</course>
  <speed>2.3475306174787156</speed>
  <fix>3d</fix>
</trkpt>
<trkpt lat="40.0712065" lon="-105.2300933">
  <ele>1583.0</ele>
  <time>2026-08-28T17:56:48Z</time>
  <course>197.51</course>
  <speed>2.52</speed>
  <fix>3d</fix>
</trkpt>
<trkpt lat="40.0712007" lon="-105.2300952">
  <ele>1583.15</ele>
  <time>2026-08-28T17:56:48Z</time>
  <course>193.46</course>
  <speed>2.2128714377477965</speed>
  <fix>3d</fix>
</trkpt>
<trkpt lat="40.0712065" lon="-105.2300933">
  <ele>1583.0</ele>
  <time>2026-08-28T17:56:48Z</time>
  <course>197.51</course>
  <speed>2.52</speed>
  <fix>3d</fix>
</trkpt>
<trkpt lat="40.0711988" lon="-105.2300957">
  <ele>1583.15</ele>
  <time>2026-08-28T17:56:48Z</time>
  <course>193.19</course>
  <speed>2.078003849852064</speed>
  <fix>3d</fix>
</trkpt>
<trkpt lat="40.0712023" lon="-105.2300947">
  <ele>1583.0</ele>
  <time>2026-08-28T17:56:48Z</time>
  <course>192.93</course>
  <speed>2.25</speed>
  <fix>3d</fix>
</trkpt>
<trkpt lat="40.071197" lon="-105.230096">
  <ele>1583.15</ele>
  <time>2026-08-28T17:56:48Z</time>
  <course>194.0</course>
  <speed>1.9695684806576288</speed>
  <fix>3d</fix>
</trkpt>
<trkpt lat="40.0712023" lon="-105.2300947">
  <ele>1583.0</ele>
  <time>2026-08-28T17:56:48Z</time>
  <course>192.93</course>
  <speed>2.25</speed>
  <fix>3d</fix>
</trkpt>
<trkpt lat="40.0711954" lon="-105.2300965">
  <ele>1583.15</ele>
  <time>2026-08-28T17:56:48Z</time>
  <course>195.91</course>
  <speed>1.859247159470736</speed>
  <fix>3d</fix>
</trkpt>
<trkpt lat="40.0711986" lon="-105.2300959">
  <ele>1583.0</ele>
  <time>2026-08-28T17:56:48Z</time>
  <course>192.54</course>
  <speed>2.01</speed>
  <fix>3d</fix>
</trkpt>
<trkpt lat="40.0711938" lon="-105.230097">
  <ele>1583.15</ele>
  <time>2026-08-28T17:56:48Z</time>
  <course>198.93</course>
  <speed>1.7778920102188434</speed>
  <fix>3d</fix>
</trkpt>
<trkpt lat="40.0711986" lon="-105.2300959">
  <ele>1583.0</ele>
  <time>2026-08-28T17:56:48Z</time>
  <course>192.54</course>
  <speed>2.01</speed>
  <fix>3d</fix>
</trkpt>
<trkpt lat="40.0711924" lon="-105.2300976">
  <ele>1583.15</ele>
  <time>2026-08-28T17:56:48Z</time>
  <course>203.06</course>
  <speed>1.7329743217947575</speed>
  <fix>3d</fix>
</trkpt>
<trkpt lat="40.0711953" lon="-105.230097">
  <ele>1583.0</ele>
  <time>2026-08-28T17:56:48Z</time>
  <course>196.6</course>
  <speed>1.83</speed>
  <fix>3d</fix>
</trkpt>
<trkpt lat="40.071191" lon="-105.2300984">
  <ele>1583.16</ele>
  <time>2026-08-28T17:56:48Z</time>
  <course>206.77</course>
  <speed>1.7253985046939155</speed>
  <fix>3d</fix>
</trkpt>
<trkpt lat="40.0711953" lon="-105.230097">
  <ele>1583.0</ele>
  <time>2026-08-28T17:56:48Z</time>
  <course>196.6</course>
  <speed>1.83</speed>
  <fix>3d</fix>
</trkpt>
<trkpt lat="40.0711896" lon="-105.2300993">
  <ele>1583.16</ele>
  <time>2026-08-28T17:56:48Z</time>
  <course>209.83</course>
  <speed>1.7262966141425407</speed>
  <fix>3d</fix>
</trkpt>
<trkpt lat="40.0711922" lon="-105.2300984">
  <ele>1583.0</ele>
  <time>2026-08-28T17:56:48Z</time>
  <course>203.57</course>
  <speed>1.77</speed>
  <fix>3d</fix>
</trkpt>
<trkpt lat="40.0711883" lon="-105.2301003">
  <ele>1583.16</ele>
  <time>2026-08-28T17:56:48Z</time>
  <course>212.4</course>
  <speed>1.7415223225672418</speed>
  <fix>3d</fix>
</trkpt>
<trkpt lat="40.0711922" lon="-105.2300984">
  <ele>1583.0</ele>
  <time>2026-08-28T17:56:48Z</time>
  <course>203.57</course>
  <speed>1.77</speed>
  <fix>3d</fix>
</trkpt>
<trkpt lat="40.0711869" lon="-105.2301014">
  <ele>1583.16</ele>
  <time>2026-08-28T17:56:48Z</time>
  <course>214.55</course>
  <speed>1.7596590578859304</speed>
  <fix>3d</fix>
</trkpt>
<trkpt lat="40.0711893" lon="-105.2301003">
  <ele>1583.0</ele>
  <time>2026-08-28T17:56:48Z</time>
  <course>209.82</course>
  <speed>1.8</speed>
  <fix>3d</fix>
</trkpt>
<trkpt lat="40.0711859" lon="-105.2301024">
  <ele>1583.17</ele>
  <time>2026-08-28T17:56:48Z</time>
  <course>216.02</course>
  <speed>1.7779201331893397</speed>
  <fix>3d</fix>
</trkpt>
<trkpt lat="40.0711893" lon="-105.2301003">
  <ele>1583.0</ele>
  <time>2026-08-28T17:56:48Z</time>
  <course>209.82</course>
  <speed>1.8</speed>
  <fix>3d</fix>
</trkpt>
<trkpt lat="40.0711845" lon="-105.2301037">
  <ele>1583.17</ele>
  <time>2026-08-28T17:56:48Z</time>
  <course>217.55</course>
  <speed>1.808867048735202</speed>
  <fix>3d</fix>
</trkpt>
<trkpt lat="40.0711866" lon="-105.2301026">
  <ele>1583.0</ele>
  <time>2026-08-28T17:56:48Z</time>
  <course>214.13</course>
  <speed>1.85</speed>
  <fix>3d</fix>
</trkpt>
<trkpt lat="40.0711832" lon="-105.2301051">
  <ele>1583.17</ele>
  <time>2026-08-28T17:56:48Z</time>
  <course>218.82</course>
  <speed>1.8580096878111265</speed>
  <fix>3d</fix>
</trkpt>
<trkpt lat="40.0711866" lon="-105.2301026">
  <ele>1583.0</ele>
  <time>2026-08-28T17:56:48Z</time>
  <course>214.13</course>
  <speed>1.85</speed>
  <fix>3d</fix>
</trkpt>
<trkpt lat="40.0711819" lon="-105.2301065">
  <ele>1583.17</ele>
  <time>2026-08-28T17:56:48Z</time>
  <course>219.89</course>
  <speed>1.91637678967368</speed>
  <fix>3d</fix>
</trkpt>
<trkpt lat="40.0711838" lon="-105.2301052">
  <ele>1583.0</ele>
  <time>2026-08-28T17:56:48Z</time>
  <course>217.12</course>
  <speed>1.93</speed>
  <fix>3d</fix>
</trkpt>
<trkpt lat="40.0711805" lon="-105.2301081">
  <ele>1583.17</ele>
  <time>2026-08-28T17:56:48Z</time>
  <course>220.76</course>
  <speed>1.9897738564972653</speed>
  <fix>3d</fix>
</trkpt>
<trkpt lat="40.0711838" lon="-105.2301052">
  <ele>1583.0</ele>
  <time>2026-08-28T17:56:48Z</time>
  <course>217.12</course>
  <speed>1.93</speed>
  <fix>3d</fix>
</trkpt>
<trkpt lat="40.071179" lon="-105.2301097">
  <ele>1583.17</ele>
  <time>2026-08-28T17:56:48Z</time>
  <course>221.49</course>
  <speed>2.065260274154326</speed>
  <fix>3d</fix>
</trkpt>
<trkpt lat="40.071181" lon="-105.2301081">
  <ele>1583.0</ele>
  <time>2026-08-28T17:56:48Z</time>
  <course>219.18</course>
  <speed>2.05</speed>
  <fix>3d</fix>
</trkpt>
<trkpt lat="40.0711776" lon="-105.2301114">
  <ele>1583.17</ele>
  <time>2026-08-28T17:56:48Z</time>
  <course>222.1</course>
  <speed>2.133565091577944</speed>
  <fix>3d</fix>
</trkpt>
<trkpt lat="40.071181" lon="-105.2301081">
  <ele>1583.0</ele>
  <time>2026-08-28T17:56:48Z</time>
  <course>219.18</course>
  <speed>2.05</speed>
  <fix>3d</fix>
</trkpt>
<trkpt lat="40.0711761" lon="-105.2301132">
  <ele>1583.17</ele>
  <time>2026-08-28T17:56:48Z</time>
  <course>222.59</course>
  <speed>2.2032022149589445</speed>
  <fix>3d</fix>
</trkpt>
<trkpt lat="40.0711781" lon="-105.2301112">
  <ele>1583.0</ele>
  <time>2026-08-28T17:56:48Z</time>
  <course>220.6</course>
  <speed>2.19</speed>
  <fix>3d</fix>
</trkpt>
<trkpt lat="40.0711745" lon="-105.230115">
  <ele>1583.17</ele>
  <time>2026-08-28T17:56:48Z</time>
  <course>223.0</course>
  <speed>2.2729936207565564</speed>
  <fix>3d</fix>
</trkpt>
<trkpt lat="40.0711781" lon="-105.2301112">
  <ele>1583.0</ele>
  <time>2026-08-28T17:56:48Z</time>
  <course>220.6</course>
  <speed>2.19</speed>
  <fix>3d</fix>
</trkpt>
<trkpt lat="40.0711729" lon="-105.2301169">
  <ele>1583.17</ele>
  <time>2026-08-28T17:56:48Z</time>
  <course>223.06</course>
  <speed>2.336193485137736</speed>
  <fix>3d</fix>
</trkpt>
<trkpt lat="40.071175" lon="-105.2301148">
  <ele>1583.0</ele>
  <time>2026-08-28T17:56:48Z</time>
  <course>221.51</course>
  <speed>2.32</speed>
  <fix>3d</fix>
</trkpt>
<trkpt lat="40.0711709" lon="-105.2301193">
  <ele>1583.17</ele>
  <time>2026-08-28T17:56:48Z</time>
  <course>221.61</course>
  <speed>2.4177055238386664</speed>
  <fix>3d</fix>
</trkpt>
<trkpt lat="40.071175" lon="-105.2301148">
  <ele>1583.0</ele>
  <time>2026-08-28T17:56:48Z</time>
  <course>221.51</course>
  <speed>2.32</speed>
  <fix>3d</fix>
</trkpt>
<trkpt lat="40.0711692" lon="-105.2301212">
  <ele>1583.17</ele>
  <time>2026-08-28T17:56:48Z</time>
  <course>219.2</course>
  <speed>2.4628844877500855</speed>
  <fix>3d</fix>
</trkpt>
<trkpt lat="40.0711718" lon="-105.2301185">
  <ele>1583.0</ele>
  <time>2026-08-28T17:56:48Z</time>
  <course>220.37</course>
  <speed>2.44</speed>
  <fix>3d</fix>
</trkpt>
<trkpt lat="40.0711674" lon="-105.230123">
  <ele>1583.17</ele>
  <time>2026-08-28T17:56:48Z</time>
  <course>215.65</course>
  <speed>2.493772243008571</speed>
  <fix>3d</fix>
</trkpt>
<trkpt lat="40.0711718" lon="-105.2301185">
  <ele>1583.0</ele>
  <time>2026-08-28T17:56:48Z</time>
  <course>220.37</course>
  <speed>2.44</speed>
  <fix>3d</fix>
</trkpt>
<trkpt lat="40.0711654" lon="-105.2301246">
  <ele>1583.17</ele>
  <time>2026-08-28T17:56:48Z</time>
  <course>211.01</course>
  <speed>2.481954874690513</speed>
  <fix>3d</fix>
</trkpt>
<trkpt lat="40.0711683" lon="-105.230122">
  <ele>1583.0</ele>
  <time>2026-08-28T17:56:48Z</time>
  <course>215.3</course>
  <speed>2.51</speed>
  <fix>3d</fix>
</trkpt>
<trkpt lat="40.0711634" lon="-105.230126">
  <ele>1583.16</ele>
  <time>2026-08-28T17:56:48Z</time>
  <course>205.45</course>
  <speed>2.4166091947189146</speed>
  <fix>3d</fix>
</trkpt>
<trkpt lat="40.0711683" lon="-105.230122">
  <ele>1583.0</ele>
  <time>2026-08-28T17:56:48Z</time>
  <course>215.3</course>
  <speed>2.51</speed>
  <fix>3d</fix>
</trkpt>
<trkpt lat="40.0711613" lon="-105.230127">
  <ele>1583.16</ele>
  <time>2026-08-28T17:56:48Z</time>
  <course>199.85</course>
  <speed>2.324327859833892</speed>
  <fix>3d</fix>
</trkpt>
<trkpt lat="40.0711644" lon="-105.2301251">
  <ele>1583.0</ele>
  <time>2026-08-28T17:56:48Z</time>
  <course>206.36</course>
  <speed>2.45</speed>
  <fix>3d</fix>
</trkpt>
<trkpt lat="40.0711593" lon="-105.2301277">
  <ele>1583.16</ele>
  <time>2026-08-28T17:56:48Z</time>
  <course>194.3</course>
  <speed>2.2073740054644118</speed>
  <fix>3d</fix>
</trkpt>
<trkpt lat="40.0711644" lon="-105.2301251">
  <ele>1583.0</ele>
  <time>2026-08-28T17:56:48Z</time>
  <course>206.36</course>
  <speed>2.45</speed>
  <fix>3d</fix>
</trkpt>
<trkpt lat="40.0711574" lon="-105.2301282">
  <ele>1583.15</ele>
  <time>2026-08-28T17:56:48Z</time>
  <course>188.76</course>
  <speed>2.076342938919291</speed>
  <fix>3d</fix>
</trkpt>
<trkpt lat="40.0711605" lon="-105.230127">
  <ele>1583.0</ele>
  <time>2026-08-28T17:56:48Z</time>
  <course>195.51</course>
  <speed>2.26</speed>
  <fix>3d</fix>
</trkpt>
<trkpt lat="40.0711556" lon="-105.2301283">
  <ele>1583.15</ele>
  <time>2026-08-28T17:56:48Z</time>
  <course>183.22</course>
  <speed>1.9206509313251068</speed>
  <fix>3d</fix>
</trkpt>
<trkpt lat="40.0711605" lon="-105.230127">
  <ele>1583.0</ele>
  <time>2026-08-28T17:56:48Z</time>
  <course>195.51</course>
  <speed>2.26</speed>
  <fix>3d</fix>
</trkpt>
<trkpt lat="40.0711539" lon="-105.2301282">
  <ele>1583.15</ele>
  <time>2026-08-28T17:56:48Z</time>
  <course>177.68</course>
  <speed>1.7740631330367023</speed>
  <fix>3d</fix>
</trkpt>
<trkpt lat="40.0711566" lon="-105.2301279">
  <ele>1583.0</ele>
  <time>2026-08-28T17:56:48Z</time>
  <course>184.56</course>
  <speed>1.99</speed>
  <fix>3d</fix>
</trkpt>
<trkpt lat="40.0711524" lon="-105.230128">
  <ele>1583.15</ele>
  <time>2026-08-28T17:56:48Z</time>
  <course>172.14</course>
  <speed>1.6637307474468337</speed>
  <fix>3d</fix>
</trkpt>
<trkpt lat="40.0711566" lon="-105.2301279">
  <ele>1583.0</ele>
  <time>2026-08-28T17:56:48Z</time>
  <course>184.56</course>
  <speed>1.99</speed>
  <fix>3d</fix>
</trkpt>
<trkpt lat="40.0711512" lon="-105.2301277">
  <ele>1583.14</ele>
  <time>2026-08-28T17:56:48Z</time>
  <course>167.66</course>
  <speed>1.6007810593582121</speed>
  <fix>3d</fix>
</trkpt>
<trkpt lat="40.0711533" lon="-105.2301279">
  <ele>1583.0</ele>
  <time>2026-08-28T17:56:48Z</time>
  <course>173.41</course>
  <speed>1.73</speed>
  <fix>3d</fix>
</trkpt>
<trkpt lat="40.0711499" lon="-105.2301271">
  <ele>1583.14</ele>
  <time>2026-08-28T17:56:48Z</time>
  <course>162.22</course>
  <speed>1.5660459763365824</speed>
  <fix>3d</fix>
</trkpt>
<trkpt lat="40.0711533" lon="-105.2301279">
  <ele>1583.0</ele>
  <time>2026-08-28T17:56:48Z</time>
  <course>173.41</course>
  <speed>1.73</speed>
  <fix>3d</fix>
</trkpt>
<trkpt lat="40.0711486" lon="-105.2301264">
  <ele>1583.14</ele>
  <time>2026-08-28T17:56:48Z</time>
  <course>157.63</course>
  <speed>1.574960316960399</speed>
  <fix>3d</fix>
</trkpt>
<trkpt lat="40.0711504" lon="-105.2301272">
  <ele>1583.0</ele>
  <time>2026-08-28T17:56:48Z</time>
  <course>162.46</course>
  <speed>1.59</speed>
  <fix>3d</fix>
</trkpt>
<trkpt lat="40.0711473" lon="-105.2301255">
  <ele>1583.14</ele>
  <time>2026-08-28T17:56:48Z</time>
  <course>153.81</course>
  <speed>1.6065490966665164</speed>
  <fix>3d</fix>
</trkpt>
<trkpt lat="40.0711504" lon="-105.2301272">
  <ele>1583.0</ele>
  <time>2026-08-28T17:56:48Z</time>
  <course>162.46</course>
  <speed>1.59</speed>
  <fix>3d</fix>
</trkpt>
<trkpt lat="40.071146" lon="-105.2301245">
  <ele>1583.15</ele>
  <time>2026-08-28T17:56:48Z</time>
  <course>150.61</course>
  <speed>1.6398170629676958</speed>
  <fix>3d</fix>
</trkpt>
<trkpt lat="40.0711478" lon="-105.2301258">
  <ele>1583.0</ele>
  <time>2026-08-28T17:56:48Z</time>
  <course>153.51</course>
  <speed>1.6</speed>
  <fix>3d</fix>
</trkpt>
<trkpt lat="40.0711447" lon="-105.2301234">
  <ele>1583.15</ele>
  <time>2026-08-28T17:56:48Z</time>
  <course>147.94</course>
  <speed>1.6836270370839261</speed>
  <fix>3d</fix>
</trkpt>
<trkpt lat="40.0711478" lon="-105.2301258">
  <ele>1583.0</ele>
  <time>2026-08-28T17:56:48Z</time>
  <course>153.51</course>
  <speed>1.6</speed>
  <fix>3d</fix>
</trkpt>
<trkpt lat="40.0711435" lon="-105.2301222">
  <ele>1583.15</ele>
  <time>2026-08-28T17:56:48Z</time>
  <course>145.71</course>
  <speed>1.7220046457544766</speed>
  <fix>3d</fix>
</trkpt>
<trkpt lat="40.0711453" lon="-105.2301239">
  <ele>1583.0</ele>
  <time>2026-08-28T17:56:48Z</time>
  <course>147.34</course>
  <speed>1.67</speed>
  <fix>3d</fix>
</trkpt>
<trkpt lat="40.0711422" lon="-105.2301209">
  <ele>1583.15</ele>
  <time>2026-08-28T17:56:48Z</time>
  <course>143.94</course>
  <speed>1.7507141400011597</speed>
  <fix>3d</fix>
</trkpt>
<trkpt lat="40.0711453" lon="-105.2301239">
  <ele>1583.0</ele>
  <time>2026-08-28T17:56:48Z</time>
  <course>147.34</course>
  <speed>1.67</speed>
  <fix>3d</fix>
</trkpt>
<trkpt lat="40.071141" lon="-105.2301196">
  <ele>1583.15</ele>
  <time>2026-08-28T17:56:48Z</time>
  <course>142.57</course>
  <speed>1.7681911661356076</speed>
  <fix>3d</fix>
</trkpt>
<trkpt lat="40.0711427" lon="-105.2301215">
  <ele>1583.0</ele>
  <time>2026-08-28T17:56:48Z</time>
  <course>143.19</course>
  <speed>1.73</speed>
  <fix>3d</fix>
</trkpt>
<trkpt lat="40.0711397" lon="-105.2301182">
  <ele>1583.14</ele>
  <time>2026-08-28T17:56:48Z</time>
  <course>141.32</course>
  <speed>1.8071247881648904</speed>
  <fix>3d</fix>
</trkpt>
<trkpt lat="40.0711427" lon="-105.2301215">
  <ele>1583.0</ele>
  <time>2026-08-28T17:56:48Z</time>
  <course>143.19</course>
  <speed>1.73</speed>
  <fix>3d</fix>
</trkpt>
<trkpt lat="40.0711382" lon="-105.2301165">
  <ele>1583.14</ele>
  <time>2026-08-28T17:56:48Z</time>
  <course>140.03</course>
  <speed>1.8969449122207</speed>
  <fix>3d</fix>
</trkpt>
<trkpt lat="40.0711402" lon="-105.230119">
  <ele>1583.0</ele>
  <time>2026-08-28T17:56:48Z</time>
  <course>140.34</course>
  <speed>1.8</speed>
  <fix>3d</fix>
</trkpt>
<trkpt lat="40.0711369" lon="-105.230115">
  <ele>1583.14</ele>
  <time>2026-08-28T17:56:48Z</time>
  <course>139.12</course>
  <speed>1.9811612756158947</speed>
  <fix>3d</fix>
</trkpt>
<trkpt lat="40.0711402" lon="-105.230119">
  <ele>1583.0</ele>
  <time>2026-08-28T17:56:48Z</time>
  <course>140.34</course>
  <speed>1.8</speed>
  <fix>3d</fix>
</trkpt>
<trkpt lat="40.0711356" lon="-105.2301133">
  <ele>1583.14</ele>
  <time>2026-08-28T17:56:48Z</time>
  <course>138.3</course>
  <speed>2.0651876428063383</speed>
  <fix>3d</fix>
</trkpt>
<trkpt lat="40.0711377" lon="-105.2301162">
  <ele>1583.0</ele>
  <time>2026-08-28T17:56:48Z</time>
  <course>138.21</course>
  <speed>1.93</speed>
  <fix>3d</fix>
</trkpt>
<trkpt lat="40.0711342" lon="-105.2301116">
  <ele>1583.14</ele>
  <time>2026-08-28T17:56:48Z</time>
  <course>137.58</course>
  <speed>2.1567800073257355</speed>
  <fix>3d</fix>
</trkpt>
<trkpt lat="40.0711377" lon="-105.2301162">
  <ele>1583.0</ele>
  <time>2026-08-28T17:56:48Z</time>
  <course>138.21</course>
  <speed>1.93</speed>
  <fix>3d</fix>
</trkpt>
<trkpt lat="40.0711327" lon="-105.2301098">
  <ele>1583.14</ele>
  <time>2026-08-28T17:56:48Z</time>
  <course>136.92</course>
  <speed>2.248599564173221</speed>
  <fix>3d</fix>
</trkpt>
<trkpt lat="40.0711351" lon="-105.2301129">
  <ele>1583.0</ele>
  <time>2026-08-28T17:56:48Z</time>
  <course>136.59</course>
  <speed>2.1</speed>
  <fix>3d</fix>
</trkpt>
<trkpt lat="40.0711313" lon="-105.2301079">
  <ele>1583.14</ele>
  <time>2026-08-28T17:56:48Z</time>
  <course>136.32</course>
  <speed>2.3264780248263683</speed>
  <fix>3d</fix>
</trkpt>
<trkpt lat="40.0711351" lon="-105.2301129">
  <ele>1583.0</ele>
  <time>2026-08-28T17:56:48Z</time>
  <course>136.59</course>
  <speed>2.1</speed>
  <fix>3d</fix>
</trkpt>
<trkpt lat="40.0711298" lon="-105.2301059">
  <ele>1583.14</ele>
  <time>2026-08-28T17:56:48Z</time>
  <course>135.74</course>
  <speed>2.4045373775427157</speed>
  <fix>3d</fix>
</trkpt>
<trkpt lat="40.0711322" lon="-105.2301093">
  <ele>1583.0</ele>
  <time>2026-08-28T17:56:48Z</time>
  <course>135.27</course>
  <speed>2.27</speed>
  <fix>3d</fix>
</trkpt>
<trkpt lat="40.0711283" lon="-105.2301039">
  <ele>1583.15</ele>
  <time>2026-08-28T17:56:48Z</time>
  <course>135.15</course>
  <speed>2.475883680627989</speed>
  <fix>3d</fix>
</trkpt>
<trkpt lat="40.0711322" lon="-105.2301093">
  <ele>1583.0</ele>
  <time>2026-08-28T17:56:48Z</time>
  <course>135.27</course>
  <speed>2.27</speed>
  <fix>3d</fix>
</trkpt>
<trkpt lat="40.0711267" lon="-105.2301017">
  <ele>1583.15</ele>
  <time>2026-08-28T17:56:48Z</time>
  <course>134.58</course>
  <speed>2.5543100829773975</speed>
  <fix>3d</fix>
</trkpt>
<trkpt lat="40.0711292" lon="-105.2301054">
  <ele>1583.0</ele>
  <time>2026-08-28T17:56:48Z</time>
  <course>134.09</course>
  <speed>2.43</speed>
  <fix>3d</fix>
</trkpt>
<trkpt lat="40.0711251" lon="-105.2300995">
  <ele>1583.15</ele>
  <time>2026-08-28T17:56:48Z</time>
  <course>133.99</course>
  <speed>2.611991577321795</speed>
  <fix>3d</fix>
</trkpt>
<trkpt lat="40.0711292" lon="-105.2301054">
  <ele>1583.0</ele>
  <time>2026-08-28T17:56:48Z</time>
  <course>134.09</course>
  <speed>2.43</speed>
  <fix>3d</fix>
</trkpt>
<trkpt lat="40.0711236" lon="-105.2300973">
  <ele>1583.15</ele>
  <time>2026-08-28T17:56:48Z</time>
  <course>133.38</course>
  <speed>2.6699250925821874</speed>
  <fix>3d</fix>
</trkpt>
<trkpt lat="40.0711261" lon="-105.2301011">
  <ele>1583.0</ele>
  <time>2026-08-28T17:56:48Z</time>
  <course>132.92</course>
  <speed>2.57</speed>
  <fix>3d</fix>
</trkpt>
<trkpt lat="40.0711223" lon="-105.2300954">
  <ele>1583.15</ele>
  <time>2026-08-28T17:56:48Z</time>
  <course>132.88</course>
  <speed>2.7205881717011122</speed>
  <fix>3d</fix>
</trkpt>
<trkpt lat="40.0711261" lon="-105.2301011">
  <ele>1583.0</ele>
  <time>2026-08-28T17:56:48Z</time>
  <course>132.92</course>
  <speed>2.57</speed>
  <fix>3d</fix>
</trkpt>
<trkpt lat="40.0711206" lon="-105.230093">
  <ele>1583.15</ele>
  <time>2026-08-28T17:56:48Z</time>
  <course>132.26</course>
  <speed>2.7723816476091456</speed>
  <fix>3d</fix>
</trkpt>
<trkpt lat="40.071123" lon="-105.2300966">
  <ele>1583.0</ele>
  <time>2026-08-28T17:56:48Z</time>
  <course>131.71</course>
  <speed>2.69</speed>
  <fix>3d</fix>
</trkpt>
<trkpt lat="40.071119" lon="-105.2300905">
  <ele>1583.15</ele>
  <time>2026-08-28T17:56:48Z</time>
  <course>131.59</course>
  <speed>2.8245353600194143</speed>
  <fix>3d</fix>
</trkpt>
<trkpt lat="40.071123" lon="-105.2300966">
  <ele>1583.0</ele>
  <time>2026-08-28T17:56:48Z</time>
  <course>131.71</course>
  <speed>2.69</speed>
  <fix>3d</fix>
</trkpt>
<trkpt lat="40.0711173" lon="-105.2300879">
  <ele>1583.16</ele>
  <time>2026-08-28T17:56:48Z</time>
  <course>130.9</course>
  <speed>2.8770297183032363</speed>
  <fix>3d</fix>
</trkpt>
<trkpt lat="40.0711197" lon="-105.2300917">
  <ele>1583.0</ele>
  <time>2026-08-28T17:56:48Z</time>
  <course>130.41</course>
  <speed>2.8</speed>
  <fix>3d</fix>
</trkpt>
<trkpt lat="40.0711157" lon="-105.2300852">
  <ele>1583.16</ele>
  <time>2026-08-28T17:56:48Z</time>
  <course>130.17</course>
  <speed>2.923576576729263</speed>
  <fix>3d</fix>
</trkpt>
<trkpt lat="40.0711197" lon="-105.2300917">
  <ele>1583.0</ele>
  <time>2026-08-28T17:56:48Z</time>
  <course>130.41</course>
  <speed>2.8</speed>
  <fix>3d</fix>
</trkpt>
<trkpt lat="40.071114" lon="-105.2300825">
  <ele>1583.15</ele>
  <time>2026-08-28T17:56:48Z</time>
  <course>129.4</course>
  <speed>2.9706059987820668</speed>
  <fix>3d</fix>
</trkpt>
<trkpt lat="40.0711164" lon="-105.2300865">
  <ele>1583.0</ele>
  <time>2026-08-28T17:56:48Z</time>
  <course>129.0</course>
  <speed>2.89</speed>
  <fix>3d</fix>
</trkpt>
<trkpt lat="40.0711124" lon="-105.2300797">
  <ele>1583.15</ele>
  <time>2026-08-28T17:56:48Z</time>
  <course>128.59</course>
  <speed>3.0120424963801553</speed>
  <fix>3d</fix>
</trkpt>
<trkpt lat="40.0711164" lon="-105.2300865">
  <ele>1583.0</ele>
  <time>2026-08-28T17:56:48Z</time>
  <course>129.0</course>
  <speed>2.89</speed>
  <fix>3d</fix>
</trkpt>
<trkpt lat="40.0711107" lon="-105.2300768">
  <ele>1583.16</ele>
  <time>2026-08-28T17:56:48Z</time>
  <course>127.72</course>
  <speed>3.0541283535568704</speed>
  <fix>3d</fix>
</trkpt>
<trkpt lat="40.0711132" lon="-105.2300812">
  <ele>1583.0</ele>
  <time>2026-08-28T17:56:48Z</time>
  <course>127.43</course>
  <speed>2.98</speed>
  <fix>3d</fix>
</trkpt>
<trkpt lat="40.0711091" lon="-105.2300739">
  <ele>1583.16</ele>
  <time>2026-08-28T17:56:48Z</time>
  <course>126.79</course>
  <speed>3.0968370961353457</speed>
  <fix>3d</fix>
</trkpt>
<trkpt lat="40.0711132" lon="-105.2300812">
  <ele>1583.0</ele>
  <time>2026-08-28T17:56:48Z</time>
  <course>127.43</course>
  <speed>2.98</speed>
  <fix>3d</fix>
</trkpt>
<trkpt lat="40.0711071" lon="-105.2300703">
  <ele>1583.16</ele>
  <time>2026-08-28T17:56:48Z</time>
  <course>125.59</course>
  <speed>3.1452980780841746</speed>
  <fix>3d</fix>
</trkpt>
<trkpt lat="40.07111" lon="-105.2300754">
  <ele>1583.0</ele>
  <time>2026-08-28T17:56:48Z</time>
  <course>125.65</course>
  <speed>3.07</speed>
  <fix>3d</fix>
</trkpt>
<trkpt lat="40.0711056" lon="-105.2300671">
  <ele>1583.17</ele>
  <time>2026-08-28T17:56:48Z</time>
  <course>124.5</course>
  <speed>3.192397218392473</speed>
  <fix>3d</fix>
</trkpt>
<trkpt lat="40.07111" lon="-105.2300754">
  <ele>1583.0</ele>
  <time>2026-08-28T17:56:48Z</time>
  <course>125.65</course>
  <speed>3.07</speed>
  <fix>3d</fix>
</trkpt>
<trkpt lat="40.071104" lon="-105.230064">
  <ele>1583.17</ele>
  <time>2026-08-28T17:56:48Z</time>
  <course>123.34</course>
  <speed>3.243593686021725</speed>
  <fix>3d</fix>
</trkpt>
<trkpt lat="40.0711067" lon="-105.2300694">
  <ele>1583.0</ele>
  <time>2026-08-28T17:56:48Z</time>
  <course>123.6</course>
  <speed>3.15</speed>
  <fix>3d</fix>
</trkpt>
<trkpt lat="40.0711025" lon="-105.2300607">
  <ele>1583.17</ele>
  <time>2026-08-28T17:56:48Z</time>
  <course>122.09</course>
  <speed>3.2824990479815828</speed>
  <fix>3d</fix>
</trkpt>
<trkpt lat="40.0711067" lon="-105.2300694">
  <ele>1583.0</ele>
  <time>2026-08-28T17:56:48Z</time>
  <course>123.6</course>
  <speed>3.15</speed>
  <fix>3d</fix>
</trkpt>
<trkpt lat="40.071101" lon="-105.2300573">
  <ele>1583.17</ele>
  <time>2026-08-28T17:56:48Z</time>
  <course>120.83</course>
  <speed>3.331606219228197</speed>
  <fix>3d</fix>
</trkpt>
<trkpt lat="40.0711036" lon="-105.2300631">
  <ele>1583.0</ele>
  <time>2026-08-28T17:56:48Z</time>
  <course>121.26</course>
  <speed>3.24</speed>
  <fix>3d</fix>
</trkpt>
<trkpt lat="40.0710995" lon="-105.2300538">
  <ele>1583.17</ele>
  <time>2026-08-28T17:56:48Z</time>
  <course>119.57</course>
  <speed>3.373558951611784</speed>
  <fix>3d</fix>
</trkpt>
<trkpt lat="40.0711036" lon="-105.2300631">
  <ele>1583.0</ele>
  <time>2026-08-28T17:56:48Z</time>
  <course>121.26</course>
  <speed>3.24</speed>
  <fix>3d</fix>
</trkpt>
<trkpt lat="40.0710981" lon="-105.2300502">
  <ele>1583.17</ele>
  <time>2026-08-28T17:56:48Z</time>
  <course>118.31</course>
  <speed>3.4212570789112005</speed>
  <fix>3d</fix>
</trkpt>
<trkpt lat="40.0711007" lon="-105.2300564">
  <ele>1583.0</ele>
  <time>2026-08-28T17:56:48Z</time>
  <course>118.75</course>
  <speed>3.33</speed>
  <fix>3d</fix>
</trkpt>
<trkpt lat="40.0710968" lon="-105.2300466">
  <ele>1583.17</ele>
  <time>2026-08-28T17:56:48Z</time>
  <course>117.05</course>
  <speed>3.466193878016635</speed>
  <fix>3d</fix>
</trkpt>
<trkpt lat="40.0711007" lon="-105.2300564">
  <ele>1583.0</ele>
  <time>2026-08-28T17:56:48Z</time>
  <course>118.75</course>
  <speed>3.33</speed>
  <fix>3d</fix>
</trkpt>
<trkpt lat="40.0710955" lon="-105.2300429">
  <ele>1583.16</ele>
  <time>2026-08-28T17:56:48Z</time>
  <course>115.79</course>
  <speed>3.5131894341182344</speed>
  <fix>3d</fix>
</trkpt>
<trkpt lat="40.0710979" lon="-105.2300493">
  <ele>1583.0</ele>
  <time>2026-08-28T17:56:48Z</time>
  <course>116.23</course>
  <speed>3.42</speed>
  <fix>3d</fix>
</trkpt>
<trkpt lat="40.0710942" lon="-105.2300392">
  <ele>1583.16</ele>
  <time>2026-08-28T17:56:48Z</time>
  <course>114.5</course>
  <speed>3.5570915085220958</speed>
  <fix>3d</fix>
</trkpt>
<trkpt lat="40.0710979" lon="-105.2300493">
  <ele>1583.0</ele>
  <time>2026-08-28T17:56:48Z</time>
  <course>116.23</course>
  <speed>3.42</speed>
  <fix>3d</fix>
</trkpt>
<trkpt lat="40.071093" lon="-105.2300353">
  <ele>1583.16</ele>
  <time>2026-08-28T17:56:48Z</time>
  <course>113.2</course>
  <speed>3.598777570231314</speed>
  <fix>3d</fix>
</trkpt>
<trkpt lat="40.0710952" lon="-105.2300419">
  <ele>1583.0</ele>
  <time>2026-08-28T17:56:48Z</time>
  <course>113.69</course>
  <speed>3.52</speed>
  <fix>3d</fix>
</trkpt>
<trkpt lat="40.0710918" lon="-105.2300314">
  <ele>1583.16</ele>
  <time>2026-08-28T17:56:48Z</time>
  <course>111.87</course>
  <speed>3.6423206887916937</speed>
  <fix>3d</fix>
</trkpt>
<trkpt lat="40.0710952" lon="-105.2300419">
  <ele>1583.0</ele>
  <time>2026-08-28T17:56:48Z</time>
  <course>113.69</course>
  <speed>3.52</speed>
  <fix>3d</fix>
</trkpt>
<trkpt lat="40.071091" lon="-105.2300282">
  <ele>1583.16</ele>
  <time>2026-08-28T17:56:48Z</time>
  <course>110.82</course>
  <speed>3.681548587211637</speed>
  <fix>3d</fix>
</trkpt>
<trkpt lat="40.0710928" lon="-105.2300342">
  <ele>1583.0</ele>
  <time>2026-08-28T17:56:48Z</time>
  <course>111.08</course>
  <speed>3.61</speed>
  <fix>3d</fix>
</trkpt>
<trkpt lat="40.0710899" lon="-105.230024">
  <ele>1583.15</ele>
  <time>2026-08-28T17:56:48Z</time>
  <course>109.47</course>
  <speed>3.725211403397128</speed>
  <fix>3d</fix>
</trkpt>
<trkpt lat="40.0710928" lon="-105.2300342">
  <ele>1583.0</ele>
  <time>2026-08-28T17:56:48Z</time>
  <course>111.08</course>
  <speed>3.61</speed>
  <fix>3d</fix>
</trkpt>
<trkpt lat="40.0710889" lon="-105.2300198">
  <ele>1583.15</ele>
  <time>2026-08-28T17:56:48Z</time>
  <course>108.11</course>
  <speed>3.7680897016923574</speed>
  <fix>3d</fix>
</trkpt>
<trkpt lat="40.0710906" lon="-105.2300261">
  <ele>1583.0</ele>
  <time>2026-08-28T17:56:48Z</time>
  <course>108.42</course>
  <speed>3.7</speed>
  <fix>3d</fix>
</trkpt>
<trkpt lat="40.071088" lon="-105.2300155">
  <ele>1583.15</ele>
  <time>2026-08-28T17:56:48Z</time>
  <course>106.73</course>
  <speed>3.816084380618437</speed>
  <fix>3d</fix>
</trkpt>
<trkpt lat="40.0710906" lon="-105.2300261">
  <ele>1583.0</ele>
  <time>2026-08-28T17:56:48Z</time>
  <course>108.42</course>
  <speed>3.7</speed>
  <fix>3d</fix>
</trkpt>
<trkpt lat="40.0710872" lon="-105.2300112">
  <ele>1583.15</ele>
  <time>2026-08-28T17:56:48Z</time>
  <course>105.33</course>
  <speed>3.8538941345086273</speed>
  <fix>3d</fix>
</trkpt>
<trkpt lat="40.0710886" lon="-105.2300177">
  <ele>1583.0</ele>
  <time>2026-08-28T17:56:48Z</time>
  <course>105.68</course>
  <speed>3.78</speed>
  <fix>3d</fix>
</trkpt>
<trkpt lat="40.0710864" lon="-105.2300067">
  <ele>1583.15</ele>
  <time>2026-08-28T17:56:48Z</time>
  <course>104.08</course>
  <speed>3.893905494487507</speed>
  <fix>3d</fix>
</trkpt>
<trkpt lat="40.0710886" lon="-105.2300177">
  <ele>1583.0</ele>
  <time>2026-08-28T17:56:48Z</time>
  <course>105.68</course>
  <speed>3.78</speed>
  <fix>3d</fix>
</trkpt>
<trkpt lat="40.0710856" lon="-105.2300022">
  <ele>1583.15</ele>
  <time>2026-08-28T17:56:48Z</time>
  <course>103.87</course>
  <speed>3.930801444998208</speed>
  <fix>3d</fix>
</trkpt>
<trkpt lat="40.0710869" lon="-105.230009">
  <ele>1583.0</ele>
  <time>2026-08-28T17:56:48Z</time>
  <course>103.41</course>
  <speed>3.86</speed>
  <fix>3d</fix>
</trkpt>
<trkpt lat="40.0710849" lon="-105.2299976">
  <ele>1583.15</ele>
  <time>2026-08-28T17:56:48Z</time>
  <course>104.77</course>
  <speed>3.9560839222645416</speed>
  <fix>3d</fix>
</trkpt>
<trkpt lat="40.0710869" lon="-105.230009">
  <ele>1583.0</ele>
  <time>2026-08-28T17:56:48Z</time>
  <course>103.41</course>
  <speed>3.86</speed>
  <fix>3d</fix>
</trkpt>
<trkpt lat="40.071084" lon="-105.2299931">
  <ele>1583.15</ele>
  <time>2026-08-28T17:56:48Z</time>
  <course>106.74</course>
  <speed>3.9713221979587603</speed>
  <fix>3d</fix>
</trkpt>
<trkpt lat="40.0710853" lon="-105.2300001">
  <ele>1583.0</ele>
  <time>2026-08-28T17:56:48Z</time>
  <course>103.77</course>
  <speed>3.93</speed>
  <fix>3d</fix>
</trkpt>
<trkpt lat="40.0710828" lon="-105.2299877">
  <ele>1583.15</ele>
  <time>2026-08-28T17:56:48Z</time>
  <course>108.53</course>
  <speed>3.9760407442580363</speed>
  <fix>3d</fix>
</trkpt>
<trkpt lat="40.0710853" lon="-105.2300001">
  <ele>1583.0</ele>
  <time>2026-08-28T17:56:48Z</time>
  <course>103.77</course>
  <speed>3.93</speed>
  <fix>3d</fix>
</trkpt>
<trkpt lat="40.0710817" lon="-105.2299832">
  <ele>1583.16</ele>
  <time>2026-08-28T17:56:48Z</time>
  <course>108.72</course>
  <speed>3.978994847948411</speed>
  <fix>3d</fix>
</trkpt>
<trkpt lat="40.0710835" lon="-105.2299911">
  <ele>1583.0</ele>
  <time>2026-08-28T17:56:48Z</time>
  <course>106.23</course>
  <speed>3.96</speed>
  <fix>3d</fix>
</trkpt>
<trkpt lat="40.0710807" lon="-105.2299788">
  <ele>1583.16</ele>
  <time>2026-08-28T17:56:48Z</time>
  <course>107.87</course>
  <speed>3.9808039389048036</speed>
  <fix>3d</fix>
</trkpt>
<trkpt lat="40.0710835" lon="-105.2299911">
  <ele>1583.0</ele>
  <time>2026-08-28T17:56:48Z</time>
  <course>106.23</course>
  <speed>3.96</speed>
  <fix>3d</fix>
</trkpt>
<trkpt lat="40.0710797" lon="-105.2299743">
  <ele>1583.16</ele>
  <time>2026-08-28T17:56:48Z</time>
  <course>105.94</course>
  <speed>3.984934127435484</speed>
  <fix>3d</fix>
</trkpt>
<trkpt lat="40.0710814" lon="-105.2299822">
  <ele>1583.0</ele>
  <time>2026-08-28T17:56:48Z</time>
  <course>106.5</course>
  <speed>3.97</speed>
  <fix>3d</fix>
</trkpt>
<trkpt lat="40.0710789" lon="-105.2299697">
  <ele>1583.16</ele>
  <time>2026-08-28T17:56:48Z</time>
  <course>103.02</course>
  <speed>4.000799920015996</speed>
  <fix>3d</fix>
</trkpt>
<trkpt lat="40.0710814" lon="-105.2299822">
  <ele>1583.0</ele>
  <time>2026-08-28T17:56:48Z</time>
  <course>106.5</course>
  <speed>3.97</speed>
  <fix>3d</fix>
</trkpt>
<trkpt lat="40.0710783" lon="-105.2299651">
  <ele>1583.17</ele>
  <time>2026-08-28T17:56:48Z</time>
  <course>100.19</course>
  <speed>4.026474885057648</speed>
  <fix>3d</fix>
</trkpt>
<trkpt lat="40.0710796" lon="-105.2299731">
  <ele>1583.0</ele>
  <time>2026-08-28T17:56:48Z</time>
  <course>102.74</course>
  <speed>3.99</speed>
  <fix>3d</fix>
</trkpt>
<trkpt lat="40.0710778" lon="-105.2299603">
  <ele>1583.17</ele>
  <time>2026-08-28T17:56:48Z</time>
  <course>97.45</course>
  <speed>4.051826748517266</speed>
  <fix>3d</fix>
</trkpt>
<trkpt lat="40.0710796" lon="-105.2299731">
  <ele>1583.0</ele>
  <time>2026-08-28T17:56:48Z</time>
  <course>102.74</course>
  <speed>3.99</speed>
  <fix>3d</fix>
</trkpt>
<trkpt lat="40.0710776" lon="-105.2299556">
  <ele>1583.16</ele>
  <time>2026-08-28T17:56:49Z</time>
  <course>94.82</course>
  <speed>4.066509559806788</speed>
  <fix>3d</fix>
</trkpt>
<trkpt lat="40.0710783" lon="-105.2299639">
  <ele>1583.0</ele>
  <time>2026-08-28T17:56:49Z</time>
  <course>97.24</course>
  <speed>4.02</speed>
  <fix>3d</fix>
</trkpt>
<trkpt lat="40.0710775" lon="-105.2299509">
  <ele>1583.16</ele>
  <time>2026-08-28T17:56:49Z</time>
  <course>92.3</course>
  <speed>4.090305612053945</speed>
  <fix>3d</fix>
</trkpt>
<trkpt lat="40.0710783" lon="-105.2299639">
  <ele>1583.0</ele>
  <time>2026-08-28T17:56:49Z</time>
  <course>97.24</course>
  <speed>4.02</speed>
  <fix>3d</fix>
</trkpt>
<trkpt lat="40.0710775" lon="-105.2299461">
  <ele>1583.16</ele>
  <time>2026-08-28T17:56:49Z</time>
  <course>89.86</course>
  <speed>4.11175145163226</speed>
  <fix>3d</fix>
</trkpt>
<trkpt lat="40.0710777" lon="-105.2299544">
  <ele>1583.0</ele>
  <time>2026-08-28T17:56:49Z</time>
  <course>92.02</course>
  <speed>4.06</speed>
  <fix>3d</fix>
</trkpt>
<trkpt lat="40.0710776" lon="-105.2299413">
  <ele>1583.16</ele>
  <time>2026-08-28T17:56:49Z</time>
  <course>87.52</course>
  <speed>4.130193700058146</speed>
  <fix>3d</fix>
</trkpt>
<trkpt lat="40.0710777" lon="-105.2299544">
  <ele>1583.0</ele>
  <time>2026-08-28T17:56:49Z</time>
  <course>92.02</course>
  <speed>4.06</speed>
  <fix>3d</fix>
</trkpt>
<trkpt lat="40.0710779" lon="-105.2299375">
  <ele>1583.16</ele>
  <time>2026-08-28T17:56:49Z</time>
  <course>85.7</course>
  <speed>4.151301000891166</speed>
  <fix>3d</fix>
</trkpt>
<trkpt lat="40.0710777" lon="-105.2299448">
  <ele>1583.0</ele>
  <time>2026-08-28T17:56:49Z</time>
  <course>87.17</course>
  <speed>4.11</speed>
  <fix>3d</fix>
</trkpt>
<trkpt lat="40.0710784" lon="-105.2299327">
  <ele>1583.16</ele>
  <time>2026-08-28T17:56:49Z</time>
  <course>83.55</course>
  <speed>4.181829743067023</speed>
  <fix>3d</fix>
</trkpt>
<trkpt lat="40.0710777" lon="-105.2299448">
  <ele>1583.0</ele>
  <time>2026-08-28T17:56:49Z</time>
  <course>87.17</course>
  <speed>4.11</speed>
  <fix>3d</fix>
</trkpt>
<trkpt lat="40.071079" lon="-105.2299278">
  <ele>1583.16</ele>
  <time>2026-08-28T17:56:49Z</time>
  <course>81.56</course>
  <speed>4.2154596427910445</speed>
  <fix>3d</fix>
</trkpt>
<trkpt lat="40.0710784" lon="-105.2299351">
  <ele>1583.0</ele>
  <time>2026-08-28T17:56:49Z</time>
  <course>82.73</course>
  <speed>4.16</speed>
  <fix>3d</fix>
</trkpt>
<trkpt lat="40.0710798" lon="-105.229923">
  <ele>1583.16</ele>
  <time>2026-08-28T17:56:49Z</time>
  <course>79.8</course>
  <speed>4.25</speed>
  <fix>3d</fix>
</trkpt>
<trkpt lat="40.0710784" lon="-105.2299351">
  <ele>1583.0</ele>
  <time>2026-08-28T17:56:49Z</time>
  <course>82.73</course>
  <speed>4.16</speed>
  <fix>3d</fix>
</trkpt>
<trkpt lat="40.0710806" lon="-105.2299181">
  <ele>1583.16</ele>
  <time>2026-08-28T17:56:49Z</time>
  <course>78.26</course>
  <speed>4.276178200215702</speed>
  <fix>3d</fix>
</trkpt>
<trkpt lat="40.0710796" lon="-105.2299254">
  <ele>1583.0</ele>
  <time>2026-08-28T17:56:49Z</time>
  <course>78.94</course>
  <speed>4.22</speed>
  <fix>3d</fix>
</trkpt>
<trkpt lat="40.0710816" lon="-105.2299132">
  <ele>1583.16</ele>
  <time>2026-08-28T17:56:49Z</time>
  <course>76.94</course>
  <speed>4.312644200487678</speed>
  <fix>3d</fix>
</trkpt>
<trkpt lat="40.0710796" lon="-105.2299254">
  <ele>1583.0</ele>
  <time>2026-08-28T17:56:49Z</time>
  <course>78.94</course>
  <speed>4.22</speed>
  <fix>3d</fix>
</trkpt>
<trkpt lat="40.0710827" lon="-105.2299082">
  <ele>1583.16</ele>
  <time>2026-08-28T17:56:49Z</time>
  <course>75.83</course>
  <speed>4.346090196947136</speed>
  <fix>3d</fix>
</trkpt>
<trkpt lat="40.0710812" lon="-105.2299156">
  <ele>1583.0</ele>
  <time>2026-08-28T17:56:49Z</time>
  <course>75.99</course>
  <speed>4.29</speed>
  <fix>3d</fix>
</trkpt>
<trkpt lat="40.0710838" lon="-105.2299033">
  <ele>1583.15</ele>
  <time>2026-08-28T17:56:49Z</time>
  <course>74.92</course>
  <speed>4.365775990588615</speed>
  <fix>3d</fix>
</trkpt>
<trkpt lat="40.0710812" lon="-105.2299156">
  <ele>1583.0</ele>
  <time>2026-08-28T17:56:49Z</time>
  <course>75.99</course>
  <speed>4.29</speed>
  <fix>3d</fix>
</trkpt>
<trkpt lat="40.071085" lon="-105.2298984">
  <ele>1583.15</ele>
  <time>2026-08-28T17:56:49Z</time>
  <course>74.2</course>
  <speed>4.383468945937681</speed>
  <fix>3d</fix>
</trkpt>
<trkpt lat="40.0710833" lon="-105.2299059">
  <ele>1583.0</ele>
  <time>2026-08-28T17:56:49Z</time>
  <course>73.89</course>
  <speed>4.34</speed>
  <fix>3d</fix>
</trkpt>
<trkpt lat="40.0710862" lon="-105.2298934">
  <ele>1583.15</ele>
  <time>2026-08-28T17:56:49Z</time>
  <course>73.65</course>
  <speed>4.39878392285868</speed>
  <fix>3d</fix>
</trkpt>
<trkpt lat="40.0710833" lon="-105.2299059">
  <ele>1583.0</ele>
  <time>2026-08-28T17:56:49Z</time>
  <course>73.89</course>
  <speed>4.34</speed>
  <fix>3d</fix>
</trkpt>
<trkpt lat="40.0710877" lon="-105.2298875">
  <ele>1583.14</ele>
  <time>2026-08-28T17:56:49Z</time>
  <course>73.2</course>
  <speed>4.411405671665212</speed>
  <fix>3d</fix>
</trkpt>
<trkpt lat="40.0710855" lon="-105.229896">
  <ele>1583.0</ele>
  <time>2026-08-28T17:56:49Z</time>
  <course>72.54</course>
  <speed>4.37</speed>
  <fix>3d</fix>
</trkpt>
<trkpt lat="40.071089" lon="-105.2298826">
  <ele>1583.14</ele>
  <time>2026-08-28T17:56:49Z</time>
  <course>72.9</course>
  <speed>4.417838838165105</speed>
  <fix>3d</fix>
</trkpt>
<trkpt lat="40.0710855" lon="-105.229896">
  <ele>1583.0</ele>
  <time>2026-08-28T17:56:49Z</time>
  <course>72.54</course>
  <speed>4.37</speed>
  <fix>3d</fix>
</trkpt>
<trkpt lat="40.0710902" lon="-105.2298777">
  <ele>1583.14</ele>
  <time>2026-08-28T17:56:49Z</time>
  <course>72.63</course>
  <speed>4.4149065675277885</speed>
  <fix>3d</fix>
</trkpt>
<trkpt lat="40.0710879" lon="-105.2298863">
  <ele>1583.0</ele>
  <time>2026-08-28T17:56:49Z</time>
  <course>71.75</course>
  <speed>4.39</speed>
  <fix>3d</fix>
</trkpt>
<trkpt lat="40.0710915" lon="-105.2298728">
  <ele>1583.14</ele>
  <time>2026-08-28T17:56:49Z</time>
  <course>72.39</course>
  <speed>4.421515577265334</speed>
  <fix>3d</fix>
</trkpt>
<trkpt lat="40.0710879" lon="-105.2298863">
  <ele>1583.0</ele>
  <time>2026-08-28T17:56:49Z</time>
  <course>71.75</course>
  <speed>4.39</speed>
  <fix>3d</fix>
</trkpt>
<trkpt lat="40.0710929" lon="-105.2298679">
  <ele>1583.14</ele>
  <time>2026-08-28T17:56:49Z</time>
  <course>72.2</course>
  <speed>4.415427499121687</speed>
  <fix>3d</fix>
</trkpt>
<trkpt lat="40.0710904" lon="-105.2298764">
  <ele>1583.0</ele>
  <time>2026-08-28T17:56:49Z</time>
  <course>71.24</course>
  <speed>4.4</speed>
  <fix>3d</fix>
</trkpt>
<trkpt lat="40.0710942" lon="-105.2298631">
  <ele>1583.14</ele>
  <time>2026-08-28T17:56:49Z</time>
  <course>72.02</course>
  <speed>4.409376373139404</speed>
  <fix>3d</fix>
</trkpt>
<trkpt lat="40.0710904" lon="-105.2298764">
  <ele>1583.0</ele>
  <time>2026-08-28T17:56:49Z</time>
  <course>71.24</course>
  <speed>4.4</speed>
  <fix>3d</fix>
</trkpt>
<trkpt lat="40.0710955" lon="-105.2298582">
  <ele>1583.13</ele>
  <time>2026-08-28T17:56:49Z</time>
  <course>71.86</course>
  <speed>4.412765572744602</speed>
  <fix>3d</fix>
</trkpt>
<trkpt lat="40.0710931" lon="-105.2298667">
  <ele>1583.0</ele>
  <time>2026-08-28T17:56:49Z</time>
  <course>70.84</course>
  <speed>4.4</speed>
  <fix>3d</fix>
</trkpt>
<trkpt lat="40.0710968" lon="-105.2298534">
  <ele>1583.13</ele>
  <time>2026-08-28T17:56:49Z</time>
  <course>71.73</course>
  <speed>4.406778868969942</speed>
  <fix>3d</fix>
</trkpt>
<trkpt lat="40.0710931" lon="-105.2298667">
  <ele>1583.0</ele>
  <time>2026-08-28T17:56:49Z</time>
  <course>70.84</course>
  <speed>4.4</speed>
  <fix>3d</fix>
</trkpt>
<trkpt lat="40.0710981" lon="-105.2298485">
  <ele>1583.14</ele>
  <time>2026-08-28T17:56:49Z</time>
  <course>71.6</course>
  <speed>4.397385586914115</speed>
  <fix>3d</fix>
</trkpt>
<trkpt lat="40.0710957" lon="-105.2298568">
  <ele>1583.0</ele>
  <time>2026-08-28T17:56:49Z</time>
  <course>70.55</course>
  <speed>4.4</speed>
  <fix>3d</fix>
</trkpt>
<trkpt lat="40.0710995" lon="-105.2298437">
  <ele>1583.14</ele>
  <time>2026-08-28T17:56:49Z</time>
  <course>71.48</course>
  <speed>4.391446231026858</speed>
  <fix>3d</fix>
</trkpt>
<trkpt lat="40.0710957" lon="-105.2298568">
  <ele>1583.0</ele>
  <time>2026-08-28T17:56:49Z</time>
  <course>70.55</course>
  <speed>4.4</speed>
  <fix>3d</fix>
</trkpt>
<trkpt lat="40.0711008" lon="-105.2298389">
  <ele>1583.14</ele>
  <time>2026-08-28T17:56:49Z</time>
  <course>71.41</course>
  <speed>4.391446231026858</speed>
  <fix>3d</fix>
</trkpt>
<trkpt lat="40.0710983" lon="-105.2298471">
  <ele>1583.0</ele>
  <time>2026-08-28T17:56:49Z</time>
  <course>70.33</course>
  <speed>4.4</speed>
  <fix>3d</fix>
</trkpt>
<trkpt lat="40.0711019" lon="-105.2298351">
  <ele>1583.14</ele>
  <time>2026-08-28T17:56:49Z</time>
  <course>71.36</course>
  <speed>4.382065722921097</speed>
  <fix>3d</fix>
</trkpt>
<trkpt lat="40.0710983" lon="-105.2298471">
  <ele>1583.0</ele>
  <time>2026-08-28T17:56:49Z</time>
  <course>70.33</course>
  <speed>4.4</speed>
  <fix>3d</fix>
</trkpt>
<trkpt lat="40.0711032" lon="-105.2298303">
  <ele>1583.15</ele>
  <time>2026-08-28T17:56:49Z</time>
  <course>71.29</course>
  <speed>4.382065722921097</speed>
  <fix>3d</fix>
</trkpt>
<trkpt lat="40.071101" lon="-105.2298374">
  <ele>1583.0</ele>
  <time>2026-08-28T17:56:49Z</time>
  <course>70.18</course>
  <speed>4.4</speed>
  <fix>3d</fix>
</trkpt>
<trkpt lat="40.0711045" lon="-105.2298254">
  <ele>1583.15</ele>
  <time>2026-08-28T17:56:49Z</time>
  <course>71.23</course>
  <speed>4.376174128162635</speed>
  <fix>3d</fix>
</trkpt>
<trkpt lat="40.071101" lon="-105.2298374">
  <ele>1583.0</ele>
  <time>2026-08-28T17:56:49Z</time>
  <course>70.18</course>
  <speed>4.4</speed>
  <fix>3d</fix>
</trkpt>
<trkpt lat="40.0711059" lon="-105.2298206">
  <ele>1583.15</ele>
  <time>2026-08-28T17:56:49Z</time>
  <course>71.17</course>
  <speed>4.376174128162635</speed>
  <fix>3d</fix>
</trkpt>
<trkpt lat="40.0711037" lon="-105.2298277">
  <ele>1583.0</ele>
  <time>2026-08-28T17:56:49Z</time>
  <course>70.06</course>
  <speed>4.4</speed>
  <fix>3d</fix>
</trkpt>
<trkpt lat="40.0711072" lon="-105.2298157">
  <ele>1583.16</ele>
  <time>2026-08-28T17:56:49Z</time>
  <course>71.1</course>
  <speed>4.36680661353351</speed>
  <fix>3d</fix>
</trkpt>
<trkpt lat="40.0711037" lon="-105.2298277">
  <ele>1583.0</ele>
  <time>2026-08-28T17:56:49Z</time>
  <course>70.06</course>
  <speed>4.4</speed>
  <fix>3d</fix>
</trkpt>
<trkpt lat="40.0711086" lon="-105.2298109">
  <ele>1583.16</ele>
  <time>2026-08-28T17:56:49Z</time>
  <course>71.08</course>
  <speed>4.36680661353351</speed>
  <fix>3d</fix>
</trkpt>
<trkpt lat="40.0711064" lon="-105.229818">
  <ele>1583.0</ele>
  <time>2026-08-28T17:56:49Z</time>
  <course>69.95</course>
  <speed>4.4</speed>
  <fix>3d</fix>
</trkpt>
<trkpt lat="40.07111" lon="-105.229806">
  <ele>1583.16</ele>
  <time>2026-08-28T17:56:49Z</time>
  <course>71.05</course>
  <speed>4.36680661353351</speed>
  <fix>3d</fix>
</trkpt>
<trkpt lat="40.0711064" lon="-105.229818">
  <ele>1583.0</ele>
  <time>2026-08-28T17:56:49Z</time>
  <course>69.95</course>
  <speed>4.4</speed>
  <fix>3d</fix>
</trkpt>
<trkpt lat="40.0711113" lon="-105.2298012">
  <ele>1583.16</ele>
  <time>2026-08-28T17:56:49Z</time>
  <course>71.05</course>
  <speed>4.36680661353351</speed>
  <fix>3d</fix>
</trkpt>
<trkpt lat="40.0711091" lon="-105.2298082">
  <ele>1583.0</ele>
  <time>2026-08-28T17:56:49Z</time>
  <course>69.89</course>
  <speed>4.4</speed>
  <fix>3d</fix>
</trkpt>
<trkpt lat="40.0711127" lon="-105.2297963">
  <ele>1583.16</ele>
  <time>2026-08-28T17:56:49Z</time>
  <course>71.04</course>
  <speed>4.36680661353351</speed>
  <fix>3d</fix>
</trkpt>
<trkpt lat="40.0711091" lon="-105.2298082">
  <ele>1583.0</ele>
  <time>2026-08-28T17:56:49Z</time>
  <course>69.89</course>
  <speed>4.4</speed>
  <fix>3d</fix>
</trkpt>
<trkpt lat="40.071114" lon="-105.2297914">
  <ele>1583.16</ele>
  <time>2026-08-28T17:56:49Z</time>
  <course>71.04</course>
  <speed>4.363312961500699</speed>
  <fix>3d</fix>
</trkpt>
<trkpt lat="40.0711118" lon="-105.2297985">
  <ele>1583.0</ele>
  <time>2026-08-28T17:56:49Z</time>
  <course>69.88</course>
  <speed>4.4</speed>
  <fix>3d</fix>
</trkpt>
<trkpt lat="40.0711157" lon="-105.2297856">
  <ele>1583.16</ele>
  <time>2026-08-28T17:56:49Z</time>
  <course>71.04</course>
  <speed>4.363312961500699</speed>
  <fix>3d</fix>
</trkpt>
<trkpt lat="40.0711118" lon="-105.2297985">
  <ele>1583.0</ele>
  <time>2026-08-28T17:56:49Z</time>
  <course>69.88</course>
  <speed>4.4</speed>
  <fix>3d</fix>
</trkpt>
<trkpt lat="40.071117" lon="-105.2297808">
  <ele>1583.16</ele>
  <time>2026-08-28T17:56:49Z</time>
  <course>71.03</course>
  <speed>4.363312961500699</speed>
  <fix>3d</fix>
</trkpt>
<trkpt lat="40.0711145" lon="-105.2297888">
  <ele>1583.0</ele>
  <time>2026-08-28T17:56:49Z</time>
  <course>69.88</course>
  <speed>4.39</speed>
  <fix>3d</fix>
</trkpt>
<trkpt lat="40.0711184" lon="-105.2297759">
  <ele>1583.16</ele>
  <time>2026-08-28T17:56:49Z</time>
  <course>71.03</course>
  <speed>4.363312961500699</speed>
  <fix>3d</fix>
</trkpt>
<trkpt lat="40.0711145" lon="-105.2297888">
  <ele>1583.0</ele>
  <time>2026-08-28T17:56:49Z</time>
  <course>69.88</course>
  <speed>4.39</speed>
  <fix>3d</fix>
</trkpt>
<trkpt lat="40.0711197" lon="-105.2297711">
  <ele>1583.16</ele>
  <time>2026-08-28T17:56:49Z</time>
  <course>71.02</course>
  <speed>4.363312961500699</speed>
  <fix>3d</fix>
</trkpt>
<trkpt lat="40.0711172" lon="-105.2297792">
  <ele>1583.0</ele>
  <time>2026-08-28T17:56:49Z</time>
  <course>69.88</course>
  <speed>4.39</speed>
  <fix>3d</fix>
</trkpt>
<trkpt lat="40.0711211" lon="-105.2297662">
  <ele>1583.16</ele>
  <time>2026-08-28T17:56:49Z</time>
  <course>71.02</course>
  <speed>4.359839446585161</speed>
  <fix>3d</fix>
</trkpt>
<trkpt lat="40.0711172" lon="-105.2297792">
  <ele>1583.0</ele>
  <time>2026-08-28T17:56:49Z</time>
  <course>69.88</course>
  <speed>4.39</speed>
  <fix>3d</fix>
</trkpt>
<trkpt lat="40.0711224" lon="-105.2297614">
  <ele>1583.16</ele>
  <time>2026-08-28T17:56:49Z</time>
  <course>71.01</course>
  <speed>4.359839446585161</speed>
  <fix>3d</fix>
</trkpt>
<trkpt lat="40.0711199" lon="-105.2297695">
  <ele>1583.0</ele>
  <time>2026-08-28T17:56:49Z</time>
  <course>69.88</course>
  <speed>4.39</speed>
  <fix>3d</fix>
</trkpt>
<trkpt lat="40.0711238" lon="-105.2297565">
  <ele>1583.16</ele>
  <time>2026-08-28T17:56:49Z</time>
  <course>71.01</course>
  <speed>4.3504597458199745</speed>
  <fix>3d</fix>
</trkpt>
<trkpt lat="40.0711199" lon="-105.2297695">
  <ele>1583.0</ele>
  <time>2026-08-28T17:56:49Z</time>
  <course>69.88</course>
  <speed>4.39</speed>
  <fix>3d</fix>
</trkpt>
<trkpt lat="40.0711251" lon="-105.2297517">
  <ele>1583.15</ele>
  <time>2026-08-28T17:56:49Z</time>
  <course>71.0</course>
  <speed>4.3504597458199745</speed>
  <fix>3d</fix>
</trkpt>
<trkpt lat="40.0711227" lon="-105.2297597">
  <ele>1583.0</ele>
  <time>2026-08-28T17:56:49Z</time>
  <course>69.88</course>
  <speed>4.39</speed>
  <fix>3d</fix>
</trkpt>
<trkpt lat="40.0711264" lon="-105.2297469">
  <ele>1583.15</ele>
  <time>2026-08-28T17:56:49Z</time>
  <course>70.99</course>
  <speed>4.3469989648031895</speed>
  <fix>3d</fix>
</trkpt>
<trkpt lat="40.0711227" lon="-105.2297597">
  <ele>1583.0</ele>
  <time>2026-08-28T17:56:49Z</time>
  <course>69.88</course>
  <speed>4.39</speed>
  <fix>3d</fix>
</trkpt>
<trkpt lat="40.0711277" lon="-105.2297421">
  <ele>1583.15</ele>
  <time>2026-08-28T17:56:49Z</time>
  <course>70.99</course>
  <speed>4.3469989648031895</speed>
  <fix>3d</fix>
</trkpt>
<trkpt lat="40.0711254" lon="-105.22975">
  <ele>1583.0</ele>
  <time>2026-08-28T17:56:49Z</time>
  <course>69.88</course>
  <speed>4.39</speed>
  <fix>3d</fix>
</trkpt>
<trkpt lat="40.0711291" lon="-105.2297373">
  <ele>1583.14</ele>
  <time>2026-08-28T17:56:49Z</time>
  <course>70.98</course>
  <speed>4.3469989648031895</speed>
  <fix>3d</fix>
</trkpt>
<trkpt lat="40.0711254" lon="-105.22975">
  <ele>1583.0</ele>
  <time>2026-08-28T17:56:49Z</time>
  <course>69.88</course>
  <speed>4.39</speed>
  <fix>3d</fix>
</trkpt>
<trkpt lat="40.0711302" lon="-105.2297334">
  <ele>1583.14</ele>
  <time>2026-08-28T17:56:49Z</time>
  <course>70.98</course>
  <speed>4.337614551801485</speed>
  <fix>3d</fix>
</trkpt>
<trkpt lat="40.0711281" lon="-105.2297404">
  <ele>1583.0</ele>
  <time>2026-08-28T17:56:49Z</time>
  <course>69.88</course>
  <speed>4.39</speed>
  <fix>3d</fix>
</trkpt>
<trkpt lat="40.0711315" lon="-105.2297286">
  <ele>1583.14</ele>
  <time>2026-08-28T17:56:49Z</time>
  <course>70.97</course>
  <speed>4.3341665865538666</speed>
  <fix>3d</fix>
</trkpt>
<trkpt lat="40.0711281" lon="-105.2297404">
  <ele>1583.0</ele>
  <time>2026-08-28T17:56:49Z</time>
  <course>69.88</course>
  <speed>4.39</speed>
  <fix>3d</fix>
</trkpt>
<trkpt lat="40.0711328" lon="-105.2297238">
  <ele>1583.13</ele>
  <time>2026-08-28T17:56:49Z</time>
  <course>70.96</course>
  <speed>4.3341665865538666</speed>
  <fix>3d</fix>
</trkpt>
<trkpt lat="40.0711308" lon="-105.2297307">
  <ele>1583.0</ele>
  <time>2026-08-28T17:56:49Z</time>
  <course>69.88</course>
  <speed>4.39</speed>
  <fix>3d</fix>
</trkpt>
<trkpt lat="40.0711342" lon="-105.2297189">
  <ele>1583.13</ele>
  <time>2026-08-28T17:56:49Z</time>
  <course>70.95</course>
  <speed>4.3341665865538666</speed>
  <fix>3d</fix>
</trkpt>
<trkpt lat="40.0711308" lon="-105.2297307">
  <ele>1583.0</ele>
  <time>2026-08-28T17:56:49Z</time>
  <course>69.88</course>
  <speed>4.39</speed>
  <fix>3d</fix>
</trkpt>
<trkpt lat="40.0711355" lon="-105.2297141">
  <ele>1583.13</ele>
  <time>2026-08-28T17:56:49Z</time>
  <course>70.95</course>
  <speed>4.343558449013895</speed>
  <fix>3d</fix>
</trkpt>
<trkpt lat="40.0711335" lon="-105.229721">
  <ele>1583.0</ele>
  <time>2026-08-28T17:56:49Z</time>
  <course>69.88</course>
  <speed>4.39</speed>
  <fix>3d</fix>
</trkpt>
<trkpt lat="40.0711369" lon="-105.2297092">
  <ele>1583.13</ele>
  <time>2026-08-28T17:56:49Z</time>
  <course>70.94</course>
  <speed>4.343558449013895</speed>
  <fix>3d</fix>
</trkpt>
<trkpt lat="40.0711335" lon="-105.229721">
  <ele>1583.0</ele>
  <time>2026-08-28T17:56:49Z</time>
  <course>69.88</course>
  <speed>4.39</speed>
  <fix>3d</fix>
</trkpt>
<trkpt lat="40.0711382" lon="-105.2297044">
  <ele>1583.12</ele>
  <time>2026-08-28T17:56:49Z</time>
  <course>70.93</course>
  <speed>4.343558449013895</speed>
  <fix>3d</fix>
</trkpt>
<trkpt lat="40.0711363" lon="-105.2297113">
  <ele>1583.0</ele>
  <time>2026-08-28T17:56:49Z</time>
  <course>69.88</course>
  <speed>4.39</speed>
  <fix>3d</fix>
</trkpt>
<trkpt lat="40.0711396" lon="-105.2296995">
  <ele>1583.12</ele>
  <time>2026-08-28T17:56:49Z</time>
  <course>70.92</course>
  <speed>4.340138246646067</speed>
  <fix>3d</fix>
</trkpt>
<trkpt lat="40.0711363" lon="-105.2297113">
  <ele>1583.0</ele>
  <time>2026-08-28T17:56:49Z</time>
  <course>69.88</course>
  <speed>4.39</speed>
  <fix>3d</fix>
</trkpt>
<trkpt lat="40.0711409" lon="-105.2296946">
  <ele>1583.12</ele>
  <time>2026-08-28T17:56:49Z</time>
  <course>70.92</course>
  <speed>4.340138246646067</speed>
  <fix>3d</fix>
</trkpt>
<trkpt lat="40.071139" lon="-105.2297016">
  <ele>1583.0</ele>
  <time>2026-08-28T17:56:49Z</time>
  <course>69.88</course>
  <speed>4.39</speed>
  <fix>3d</fix>
</trkpt>
<trkpt lat="40.0711423" lon="-105.2296898">
  <ele>1583.12</ele>
  <time>2026-08-28T17:56:49Z</time>
  <course>70.91</course>
  <speed>4.340138246646067</speed>
  <fix>3d</fix>
</trkpt>
<trkpt lat="40.071139" lon="-105.2297016">
  <ele>1583.0</ele>
  <time>2026-08-28T17:56:49Z</time>
  <course>69.88</course>
  <speed>4.39</speed>
  <fix>3d</fix>
</trkpt>
<trkpt lat="40.0711439" lon="-105.2296839">
  <ele>1583.12</ele>
  <time>2026-08-28T17:56:49Z</time>
  <course>70.9</course>
  <speed>4.340138246646067</speed>
  <fix>3d</fix>
</trkpt>
<trkpt lat="40.0711417" lon="-105.2296919">
  <ele>1583.0</ele>
  <time>2026-08-28T17:56:49Z</time>
  <course>69.88</course>
  <speed>4.39</speed>
  <fix>3d</fix>
</trkpt>
<trkpt lat="40.0711452" lon="-105.2296791">
  <ele>1583.12</ele>
  <time>2026-08-28T17:56:49Z</time>
  <course>70.9</course>
  <speed>4.340138246646067</speed>
  <fix>3d</fix>
</trkpt>
<trkpt lat="40.0711417" lon="-105.2296919">
  <ele>1583.0</ele>
  <time>2026-08-28T17:56:49Z</time>
  <course>69.88</course>
  <speed>4.39</speed>
  <fix>3d</fix>
</trkpt>
<trkpt lat="40.0711466" lon="-105.2296742">
  <ele>1583.11</ele>
  <time>2026-08-28T17:56:49Z</time>
  <course>70.89</course>
  <speed>4.340138246646067</speed>
  <fix>3d</fix>
</trkpt>
<trkpt lat="40.0711444" lon="-105.2296822">
  <ele>1583.0</ele>
  <time>2026-08-28T17:56:49Z</time>
  <course>69.88</course>
  <speed>4.39</speed>
  <fix>3d</fix>
</trkpt>
<trkpt lat="40.0711479" lon="-105.2296694">
  <ele>1583.11</ele>
  <time>2026-08-28T17:56:49Z</time>
  <course>70.88</course>
  <speed>4.340138246646067</speed>
  <fix>3d</fix>
</trkpt>
<trkpt lat="40.0711444" lon="-105.2296822">
  <ele>1583.0</ele>
  <time>2026-08-28T17:56:49Z</time>
  <course>69.88</course>
  <speed>4.39</speed>
  <fix>3d</fix>
</trkpt>
<trkpt lat="40.0711493" lon="-105.2296645">
  <ele>1583.11</ele>
  <time>2026-08-28T17:56:49Z</time>
  <course>70.88</course>
  <speed>4.340138246646067</speed>
  <fix>3d</fix>
</trkpt>
<trkpt lat="40.0711471" lon="-105.2296725">
  <ele>1583.0</ele>
  <time>2026-08-28T17:56:49Z</time>
  <course>69.88</course>
  <speed>4.39</speed>
  <fix>3d</fix>
</trkpt>
<trkpt lat="40.0711506" lon="-105.2296596">
  <ele>1583.11</ele>
  <time>2026-08-28T17:56:49Z</time>
  <course>70.87</course>
  <speed>4.340138246646067</speed>
  <fix>3d</fix>
</trkpt>
<trkpt lat="40.0711471" lon="-105.2296725">
  <ele>1583.0</ele>
  <time>2026-08-28T17:56:49Z</time>
  <course>69.88</course>
  <speed>4.39</speed>
  <fix>3d</fix>
</trkpt>
<trkpt lat="40.071152" lon="-105.2296548">
  <ele>1583.12</ele>
  <time>2026-08-28T17:56:49Z</time>
  <course>70.87</course>
  <speed>4.336738405760716</speed>
  <fix>3d</fix>
</trkpt>
<trkpt lat="40.0711498" lon="-105.2296628">
  <ele>1583.0</ele>
  <time>2026-08-28T17:56:49Z</time>
  <course>69.88</course>
  <speed>4.39</speed>
  <fix>3d</fix>
</trkpt>
<trkpt lat="40.0711533" lon="-105.22965">
  <ele>1583.12</ele>
  <time>2026-08-28T17:56:49Z</time>
  <course>70.89</course>
  <speed>4.336738405760716</speed>
  <fix>3d</fix>
</trkpt>
<trkpt lat="40.0711498" lon="-105.2296628">
  <ele>1583.0</ele>
  <time>2026-08-28T17:56:49Z</time>
  <course>69.88</course>
  <speed>4.39</speed>
  <fix>3d</fix>
</trkpt>
<trkpt lat="40.0711546" lon="-105.2296452">
  <ele>1583.12</ele>
  <time>2026-08-28T17:56:49Z</time>
  <course>70.9</course>
  <speed>4.336738405760716</speed>
  <fix>3d</fix>
</trkpt>
<trkpt lat="40.0711526" lon="-105.2296532">
  <ele>1583.0</ele>
  <time>2026-08-28T17:56:49Z</time>
  <course>69.89</course>
  <speed>4.39</speed>
  <fix>3d</fix>
</trkpt>
<trkpt lat="40.071156" lon="-105.2296404">
  <ele>1583.12</ele>
  <time>2026-08-28T17:56:49Z</time>
  <course>70.92</course>
  <speed>4.333358974283114</speed>
  <fix>3d</fix>
</trkpt>
<trkpt lat="40.0711526" lon="-105.2296532">
  <ele>1583.0</ele>
  <time>2026-08-28T17:56:49Z</time>
  <course>69.89</course>
  <speed>4.39</speed>
  <fix>3d</fix>
</trkpt>
<trkpt lat="40.0711573" lon="-105.2296356">
  <ele>1583.12</ele>
  <time>2026-08-28T17:56:49Z</time>
  <course>70.97</course>
  <speed>4.333358974283114</speed>
  <fix>3d</fix>
</trkpt>
<trkpt lat="40.0711553" lon="-105.2296435">
  <ele>1583.0</ele>
  <time>2026-08-28T17:56:49Z</time>
  <course>69.93</course>
  <speed>4.39</speed>
  <fix>3d</fix>
</trkpt>
<trkpt lat="40.0711584" lon="-105.2296318">
  <ele>1583.12</ele>
  <time>2026-08-28T17:56:49Z</time>
  <course>70.98</course>
  <speed>4.333358974283114</speed>
  <fix>3d</fix>
</trkpt>
<trkpt lat="40.0711553" lon="-105.2296435">
  <ele>1583.0</ele>
  <time>2026-08-28T17:56:49Z</time>
  <course>69.93</course>
  <speed>4.39</speed>
  <fix>3d</fix>
</trkpt>
<trkpt lat="40.0711597" lon="-105.229627">
  <ele>1583.12</ele>
  <time>2026-08-28T17:56:49Z</time>
  <course>71.01</course>
  <speed>4.33</speed>
  <fix>3d</fix>
</trkpt>
<trkpt lat="40.071158" lon="-105.2296338">
  <ele>1583.0</ele>
  <time>2026-08-28T17:56:49Z</time>
  <course>70.0</course>
  <speed>4.39</speed>
  <fix>3d</fix>
</trkpt>
<trkpt lat="40.071161" lon="-105.2296221">
  <ele>1583.12</ele>
  <time>2026-08-28T17:56:49Z</time>
  <course>71.05</course>
  <speed>4.33</speed>
  <fix>3d</fix>
</trkpt>
<trkpt lat="40.071158" lon="-105.2296338">
  <ele>1583.0</ele>
  <time>2026-08-28T17:56:49Z</time>
  <course>70.0</course>
  <speed>4.39</speed>
  <fix>3d</fix>
</trkpt>
<trkpt lat="40.0711624" lon="-105.2296173">
  <ele>1583.12</ele>
  <time>2026-08-28T17:56:49Z</time>
  <course>71.07</course>
  <speed>4.33</speed>
  <fix>3d</fix>
</trkpt>
<trkpt lat="40.0711607" lon="-105.2296241">
  <ele>1583.0</ele>
  <time>2026-08-28T17:56:49Z</time>
  <course>70.06</course>
  <speed>4.39</speed>
  <fix>3d</fix>
</trkpt>
<trkpt lat="40.0711637" lon="-105.2296124">
  <ele>1583.13</ele>
  <time>2026-08-28T17:56:49Z</time>
  <course>71.11</course>
  <speed>4.3266615305567875</speed>
  <fix>3d</fix>
</trkpt>
<trkpt lat="40.0711607" lon="-105.2296241">
  <ele>1583.0</ele>
  <time>2026-08-28T17:56:49Z</time>
  <course>70.06</course>
  <speed>4.39</speed>
  <fix>3d</fix>
</trkpt>
<trkpt lat="40.0711651" lon="-105.2296075">
  <ele>1583.13</ele>
  <time>2026-08-28T17:56:49Z</time>
  <course>71.15</course>
  <speed>4.336092711185959</speed>
  <fix>3d</fix>
</trkpt>
<trkpt lat="40.0711633" lon="-105.2296144">
  <ele>1583.0</ele>
  <time>2026-08-28T17:56:49Z</time>
  <course>70.14</course>
  <speed>4.39</speed>
  <fix>3d</fix>
</trkpt>
<trkpt lat="40.0711664" lon="-105.2296027">
  <ele>1583.13</ele>
  <time>2026-08-28T17:56:49Z</time>
  <course>71.16</course>
  <speed>4.336092711185959</speed>
  <fix>3d</fix>
</trkpt>
<trkpt lat="40.0711633" lon="-105.2296144">
  <ele>1583.0</ele>
  <time>2026-08-28T17:56:49Z</time>
  <course>70.14</course>
  <speed>4.39</speed>
  <fix>3d</fix>
</trkpt>
<trkpt lat="40.0711677" lon="-105.2295978">
  <ele>1583.14</ele>
  <time>2026-08-28T17:56:49Z</time>
  <course>71.19</course>
  <speed>4.336092711185959</speed>
  <fix>3d</fix>
</trkpt>
<trkpt lat="40.071166" lon="-105.2296047">
  <ele>1583.0</ele>
  <time>2026-08-28T17:56:49Z</time>
  <course>70.23</course>
  <speed>4.39</speed>
  <fix>3d</fix>
</trkpt>
<trkpt lat="40.0711691" lon="-105.2295929">
  <ele>1583.14</ele>
  <time>2026-08-28T17:56:49Z</time>
  <course>71.22</course>
  <speed>4.332782016210832</speed>
  <fix>3d</fix>
</trkpt>
<trkpt lat="40.071166" lon="-105.2296047">
  <ele>1583.0</ele>
  <time>2026-08-28T17:56:49Z</time>
  <course>70.23</course>
  <speed>4.39</speed>
  <fix>3d</fix>
</trkpt>
<trkpt lat="40.0711706" lon="-105.229587">
  <ele>1583.15</ele>
  <time>2026-08-28T17:56:49Z</time>
  <course>71.25</course>
  <speed>4.34222293301484</speed>
  <fix>3d</fix>
</trkpt>
<trkpt lat="40.0711687" lon="-105.229595">
  <ele>1583.0</ele>
  <time>2026-08-28T17:56:49Z</time>
  <course>70.28</course>
  <speed>4.39</speed>
  <fix>3d</fix>
</trkpt>
<trkpt lat="40.071172" lon="-105.2295821">
  <ele>1583.15</ele>
  <time>2026-08-28T17:56:49Z</time>
  <course>71.25</course>
  <speed>4.34222293301484</speed>
  <fix>3d</fix>
</trkpt>
<trkpt lat="40.0711687" lon="-105.229595">
  <ele>1583.0</ele>
  <time>2026-08-28T17:56:49Z</time>
  <course>70.28</course>
  <speed>4.39</speed>
  <fix>3d</fix>
</trkpt>
<trkpt lat="40.0711733" lon="-105.2295773">
  <ele>1583.15</ele>
  <time>2026-08-28T17:56:49Z</time>
  <course>71.27</course>
  <speed>4.34222293301484</speed>
  <fix>3d</fix>
</trkpt>
<trkpt lat="40.0711714" lon="-105.2295853">
  <ele>1583.0</ele>
  <time>2026-08-28T17:56:49Z</time>
  <course>70.34</course>
  <speed>4.39</speed>
  <fix>3d</fix>
</trkpt>
<trkpt lat="40.0711746" lon="-105.2295724">
  <ele>1583.16</ele>
  <time>2026-08-28T17:56:49Z</time>
  <course>71.3</course>
  <speed>4.34222293301484</speed>
  <fix>3d</fix>
</trkpt>
<trkpt lat="40.0711714" lon="-105.2295853">
  <ele>1583.0</ele>
  <time>2026-08-28T17:56:49Z</time>
  <course>70.34</course>
  <speed>4.39</speed>
  <fix>3d</fix>
</trkpt>
<trkpt lat="40.0711759" lon="-105.2295675">
  <ele>1583.16</ele>
  <time>2026-08-28T17:56:49Z</time>
  <course>71.3</course>
  <speed>4.34222293301484</speed>
  <fix>3d</fix>
</trkpt>
<trkpt lat="40.071174" lon="-105.2295756">
  <ele>1583.0</ele>
  <time>2026-08-28T17:56:49Z</time>
  <course>70.39</course>
  <speed>4.39</speed>
  <fix>3d</fix>
</trkpt>
<trkpt lat="40.0711773" lon="-105.2295626">
  <ele>1583.16</ele>
  <time>2026-08-28T17:56:49Z</time>
  <course>71.33</course>
  <speed>4.348390506842732</speed>
  <fix>3d</fix>
</trkpt>
<trkpt lat="40.071174" lon="-105.2295756">
  <ele>1583.0</ele>
  <time>2026-08-28T17:56:49Z</time>
  <course>70.39</course>
  <speed>4.39</speed>
  <fix>3d</fix>
</trkpt>
<trkpt lat="40.0711786" lon="-105.2295577">
  <ele>1583.16</ele>
  <time>2026-08-28T17:56:49Z</time>
  <course>71.35</course>
  <speed>4.348390506842732</speed>
  <fix>3d</fix>
</trkpt>
<trkpt lat="40.0711766" lon="-105.2295658">
  <ele>1583.0</ele>
  <time>2026-08-28T17:56:49Z</time>
  <course>70.43</course>
  <speed>4.39</speed>
  <fix>3d</fix>
</trkpt>
<trkpt lat="40.0711799" lon="-105.2295529">
  <ele>1583.16</ele>
  <time>2026-08-28T17:56:49Z</time>
  <course>71.34</course>
  <speed>4.348390506842732</speed>
  <fix>3d</fix>
</trkpt>
<trkpt lat="40.0711766" lon="-105.2295658">
  <ele>1583.0</ele>
  <time>2026-08-28T17:56:49Z</time>
  <course>70.43</course>
  <speed>4.39</speed>
  <fix>3d</fix>
</trkpt>
<trkpt lat="40.0711812" lon="-105.229548">
  <ele>1583.15</ele>
  <time>2026-08-28T17:56:49Z</time>
  <course>71.27</course>
  <speed>4.34222293301484</speed>
  <fix>3d</fix>
</trkpt>
<trkpt lat="40.0711793" lon="-105.2295561">
  <ele>1583.0</ele>
  <time>2026-08-28T17:56:49Z</time>
  <course>70.45</course>
  <speed>4.39</speed>
  <fix>3d</fix>
</trkpt>
<trkpt lat="40.0711825" lon="-105.2295432">
  <ele>1583.15</ele>
  <time>2026-08-28T17:56:49Z</time>
  <course>71.09</course>
  <speed>4.345526435312527</speed>
  <fix>3d</fix>
</trkpt>
<trkpt lat="40.0711793" lon="-105.2295561">
  <ele>1583.0</ele>
  <time>2026-08-28T17:56:49Z</time>
  <course>70.45</course>
  <speed>4.39</speed>
  <fix>3d</fix>
</trkpt>
<trkpt lat="40.0711839" lon="-105.2295384">
  <ele>1583.15</ele>
  <time>2026-08-28T17:56:49Z</time>
  <course>70.79</course>
  <speed>4.342775610136909</speed>
  <fix>3d</fix>
</trkpt>
<trkpt lat="40.0711819" lon="-105.2295464">
  <ele>1583.0</ele>
  <time>2026-08-28T17:56:49Z</time>
  <course>70.24</course>
  <speed>4.39</speed>
  <fix>3d</fix>
</trkpt>
<trkpt lat="40.0711852" lon="-105.2295336">
  <ele>1583.14</ele>
  <time>2026-08-28T17:56:49Z</time>
  <course>70.37</course>
  <speed>4.343558449013895</speed>
  <fix>3d</fix>
</trkpt>
<trkpt lat="40.0711819" lon="-105.2295464">
  <ele>1583.0</ele>
  <time>2026-08-28T17:56:49Z</time>
  <course>70.24</course>
  <speed>4.39</speed>
  <fix>3d</fix>
</trkpt>
<trkpt lat="40.0711863" lon="-105.2295298">
  <ele>1583.15</ele>
  <time>2026-08-28T17:56:49Z</time>
  <course>69.94</course>
  <speed>4.344571325228761</speed>
  <fix>3d</fix>
</trkpt>
<trkpt lat="40.0711847" lon="-105.2295367">
  <ele>1583.0</ele>
  <time>2026-08-28T17:56:49Z</time>
  <course>69.61</course>
  <speed>4.39</speed>
  <fix>3d</fix>
</trkpt>
<trkpt lat="40.0711878" lon="-105.2295249">
  <ele>1583.14</ele>
  <time>2026-08-28T17:56:49Z</time>
  <course>69.27</course>
  <speed>4.3436620494693186</speed>
  <fix>3d</fix>
</trkpt>
<trkpt lat="40.0711847" lon="-105.2295367">
  <ele>1583.0</ele>
  <time>2026-08-28T17:56:49Z</time>
  <course>69.61</course>
  <speed>4.39</speed>
  <fix>3d</fix>
</trkpt>
<trkpt lat="40.0711893" lon="-105.2295202">
  <ele>1583.15</ele>
  <time>2026-08-28T17:56:49Z</time>
  <course>68.46</course>
  <speed>4.347159992454844</speed>
  <fix>3d</fix>
</trkpt>
<trkpt lat="40.0711874" lon="-105.2295271">
  <ele>1583.0</ele>
  <time>2026-08-28T17:56:49Z</time>
  <course>68.48</course>
  <speed>4.39</speed>
  <fix>3d</fix>
</trkpt>
<trkpt lat="40.0711908" lon="-105.2295154">
  <ele>1583.15</ele>
  <time>2026-08-28T17:56:49Z</time>
  <course>67.49</course>
  <speed>4.3554678279147</speed>
  <fix>3d</fix>
</trkpt>
<trkpt lat="40.0711874" lon="-105.2295271">
  <ele>1583.0</ele>
  <time>2026-08-28T17:56:49Z</time>
  <course>68.48</course>
  <speed>4.39</speed>
  <fix>3d</fix>
</trkpt>
<trkpt lat="40.0711924" lon="-105.2295106">
  <ele>1583.15</ele>
  <time>2026-08-28T17:56:49Z</time>
  <course>66.34</course>
  <speed>4.364000458295118</speed>
  <fix>3d</fix>
</trkpt>
<trkpt lat="40.0711905" lon="-105.2295175">
  <ele>1583.0</ele>
  <time>2026-08-28T17:56:49Z</time>
  <course>66.74</course>
  <speed>4.4</speed>
  <fix>3d</fix>
</trkpt>
<trkpt lat="40.0711941" lon="-105.2295059">
  <ele>1583.15</ele>
  <time>2026-08-28T17:56:49Z</time>
  <course>65.0</course>
  <speed>4.365546930225353</speed>
  <fix>3d</fix>
</trkpt>
<trkpt lat="40.0711905" lon="-105.2295175">
  <ele>1583.0</ele>
  <time>2026-08-28T17:56:49Z</time>
  <course>66.74</course>
  <speed>4.4</speed>
  <fix>3d</fix>
</trkpt>
<trkpt lat="40.0711959" lon="-105.2295013">
  <ele>1583.15</ele>
  <time>2026-08-28T17:56:49Z</time>
  <course>63.52</course>
  <speed>4.36946220947155</speed>
  <fix>3d</fix>
</trkpt>
<trkpt lat="40.0711937" lon="-105.2295081">
  <ele>1583.0</ele>
  <time>2026-08-28T17:56:49Z</time>
  <course>64.33</course>
  <speed>4.4</speed>
  <fix>3d</fix>
</trkpt>
<trkpt lat="40.0711979" lon="-105.2294967">
  <ele>1583.15</ele>
  <time>2026-08-28T17:56:49Z</time>
  <course>61.96</course>
  <speed>4.376711093960853</speed>
  <fix>3d</fix>
</trkpt>
<trkpt lat="40.0711937" lon="-105.2295081">
  <ele>1583.0</ele>
  <time>2026-08-28T17:56:49Z</time>
  <course>64.33</course>
  <speed>4.4</speed>
  <fix>3d</fix>
</trkpt>
<trkpt lat="40.0711998" lon="-105.2294922">
  <ele>1583.15</ele>
  <time>2026-08-28T17:56:49Z</time>
  <course>60.32</course>
  <speed>4.3786413417862855</speed>
  <fix>3d</fix>
</trkpt>
<trkpt lat="40.0711973" lon="-105.2294989">
  <ele>1583.0</ele>
  <time>2026-08-28T17:56:49Z</time>
  <course>61.38</course>
  <speed>4.4</speed>
  <fix>3d</fix>
</trkpt>
<trkpt lat="40.0712024" lon="-105.2294869">
  <ele>1583.15</ele>
  <time>2026-08-28T17:56:49Z</time>
  <course>58.23</course>
  <speed>4.374768565307198</speed>
  <fix>3d</fix>
</trkpt>
<trkpt lat="40.0711973" lon="-105.2294989">
  <ele>1583.0</ele>
  <time>2026-08-28T17:56:49Z</time>
  <course>61.38</course>
  <speed>4.4</speed>
  <fix>3d</fix>
</trkpt>
<trkpt lat="40.0712046" lon="-105.2294825">
  <ele>1583.15</ele>
  <time>2026-08-28T17:56:49Z</time>
  <course>56.38</course>
  <speed>4.374128484624109</speed>
  <fix>3d</fix>
</trkpt>
<trkpt lat="40.0712013" lon="-105.22949">
  <ele>1583.0</ele>
  <time>2026-08-28T17:56:49Z</time>
  <course>58.04</course>
  <speed>4.4</speed>
  <fix>3d</fix>
</trkpt>
<trkpt lat="40.0712069" lon="-105.2294784">
  <ele>1583.15</ele>
  <time>2026-08-28T17:56:49Z</time>
  <course>54.45</course>
  <speed>4.3621325060112515</speed>
  <fix>3d</fix>
</trkpt>
<trkpt lat="40.0712013" lon="-105.22949">
  <ele>1583.0</ele>
  <time>2026-08-28T17:56:49Z</time>
  <course>58.04</course>
  <speed>4.4</speed>
  <fix>3d</fix>
</trkpt>
<trkpt lat="40.0712094" lon="-105.2294743">
  <ele>1583.14</ele>
  <time>2026-08-28T17:56:49Z</time>
  <course>52.4</course>
  <speed>4.355708897527474</speed>
  <fix>3d</fix>
</trkpt>
<trkpt lat="40.0712058" lon="-105.2294814">
  <ele>1583.0</ele>
  <time>2026-08-28T17:56:49Z</time>
  <course>54.32</course>
  <speed>4.39</speed>
  <fix>3d</fix>
</trkpt>
<trkpt lat="40.0712119" lon="-105.2294703">
  <ele>1583.15</ele>
  <time>2026-08-28T17:56:49Z</time>
  <course>50.23</course>
  <speed>4.339700450491946</speed>
  <fix>3d</fix>
</trkpt>
<trkpt lat="40.0712058" lon="-105.2294814">
  <ele>1583.0</ele>
  <time>2026-08-28T17:56:49Z</time>
  <course>54.32</course>
  <speed>4.39</speed>
  <fix>3d</fix>
</trkpt>
<trkpt lat="40.0712146" lon="-105.2294665">
  <ele>1583.15</ele>
  <time>2026-08-28T17:56:49Z</time>
  <course>47.96</course>
  <speed>4.322973513682451</speed>
  <fix>3d</fix>
</trkpt>
<trkpt lat="40.0712106" lon="-105.2294733">
  <ele>1583.0</ele>
  <time>2026-08-28T17:56:49Z</time>
  <course>50.17</course>
  <speed>4.36</speed>
  <fix>3d</fix>
</trkpt>
<trkpt lat="40.0712174" lon="-105.2294629">
  <ele>1583.15</ele>
  <time>2026-08-28T17:56:49Z</time>
  <course>45.54</course>
  <speed>4.306425431840194</speed>
  <fix>3d</fix>
</trkpt>
<trkpt lat="40.0712106" lon="-105.2294733">
  <ele>1583.0</ele>
  <time>2026-08-28T17:56:49Z</time>
  <course>50.17</course>
  <speed>4.36</speed>
  <fix>3d</fix>
</trkpt>
<trkpt lat="40.0712202" lon="-105.2294595">
  <ele>1583.15</ele>
  <time>2026-08-28T17:56:49Z</time>
  <course>43.04</course>
  <speed>4.276914775863554</speed>
  <fix>3d</fix>
</trkpt>
<trkpt lat="40.0712158" lon="-105.2294657">
  <ele>1583.0</ele>
  <time>2026-08-28T17:56:49Z</time>
  <course>45.59</course>
  <speed>4.32</speed>
  <fix>3d</fix>
</trkpt>
<trkpt lat="40.0712231" lon="-105.2294563">
  <ele>1583.15</ele>
  <time>2026-08-28T17:56:49Z</time>
  <course>40.43</course>
  <speed>4.249729403150276</speed>
  <fix>3d</fix>
</trkpt>
<trkpt lat="40.0712158" lon="-105.2294657">
  <ele>1583.0</ele>
  <time>2026-08-28T17:56:49Z</time>
  <course>45.59</course>
  <speed>4.32</speed>
  <fix>3d</fix>
</trkpt>
<trkpt lat="40.0712262" lon="-105.2294532">
  <ele>1583.15</ele>
  <time>2026-08-28T17:56:49Z</time>
  <course>37.72</course>
  <speed>4.232068052382901</speed>
  <fix>3d</fix>
</trkpt>
<trkpt lat="40.0712214" lon="-105.2294588">
  <ele>1583.0</ele>
  <time>2026-08-28T17:56:49Z</time>
  <course>40.58</course>
  <speed>4.27</speed>
  <fix>3d</fix>
</trkpt>
<trkpt lat="40.0712293" lon="-105.2294505">
  <ele>1583.14</ele>
  <time>2026-08-28T17:56:49Z</time>
  <course>34.94</course>
  <speed>4.196307901000592</speed>
  <fix>3d</fix>
</trkpt>
<trkpt lat="40.0712214" lon="-105.2294588">
  <ele>1583.0</ele>
  <time>2026-08-28T17:56:49Z</time>
  <course>40.58</course>
  <speed>4.27</speed>
  <fix>3d</fix>
</trkpt>
<trkpt lat="40.0712325" lon="-105.2294479">
  <ele>1583.14</ele>
  <time>2026-08-28T17:56:49Z</time>
  <course>32.05</course>
  <speed>4.17432629294836</speed>
  <fix>3d</fix>
</trkpt>
<trkpt lat="40.0712275" lon="-105.2294527">
  <ele>1583.0</ele>
  <time>2026-08-28T17:56:49Z</time>
  <course>35.16</course>
  <speed>4.21</speed>
  <fix>3d</fix>
</trkpt>
<trkpt lat="40.0712351" lon="-105.229446">
  <ele>1583.14</ele>
  <time>2026-08-28T17:56:49Z</time>
  <course>29.71</course>
  <speed>4.170047961354881</speed>
  <fix>3d</fix>
</trkpt>
<trkpt lat="40.0712275" lon="-105.2294527">
  <ele>1583.0</ele>
  <time>2026-08-28T17:56:49Z</time>
  <course>35.16</course>
  <speed>4.21</speed>
  <fix>3d</fix>
</trkpt>
<trkpt lat="40.0712385" lon="-105.2294438">
  <ele>1583.13</ele>
  <time>2026-08-28T17:56:49Z</time>
  <course>26.77</course>
  <speed>4.173367944478416</speed>
  <fix>3d</fix>
</trkpt>
<trkpt lat="40.0712338" lon="-105.2294474">
  <ele>1583.0</ele>
  <time>2026-08-28T17:56:49Z</time>
  <course>29.44</course>
  <speed>4.18</speed>
  <fix>3d</fix>
</trkpt>
<trkpt lat="40.0712419" lon="-105.2294419">
  <ele>1583.13</ele>
  <time>2026-08-28T17:56:49Z</time>
  <course>23.83</course>
  <speed>4.183897704294406</speed>
  <fix>3d</fix>
</trkpt>
<trkpt lat="40.0712338" lon="-105.2294474">
  <ele>1583.0</ele>
  <time>2026-08-28T17:56:49Z</time>
  <course>29.44</course>
  <speed>4.18</speed>
  <fix>3d</fix>
</trkpt>
<trkpt lat="40.0712455" lon="-105.2294401">
  <ele>1583.13</ele>
  <time>2026-08-28T17:56:49Z</time>
  <course>20.87</course>
  <speed>4.209619935338581</speed>
  <fix>3d</fix>
</trkpt>
<trkpt lat="40.0712405" lon="-105.229443">
  <ele>1583.0</ele>
  <time>2026-08-28T17:56:49Z</time>
  <course>23.55</course>
  <speed>4.18</speed>
  <fix>3d</fix>
</trkpt>
<trkpt lat="40.0712492" lon="-105.2294386">
  <ele>1583.12</ele>
  <time>2026-08-28T17:56:49Z</time>
  <course>17.93</course>
  <speed>4.252810835200644</speed>
  <fix>3d</fix>
</trkpt>
<trkpt lat="40.0712405" lon="-105.229443">
  <ele>1583.0</ele>
  <time>2026-08-28T17:56:49Z</time>
  <course>23.55</course>
  <speed>4.18</speed>
  <fix>3d</fix>
</trkpt>
<trkpt lat="40.0712529" lon="-105.2294374">
  <ele>1583.13</ele>
  <time>2026-08-28T17:56:49Z</time>
  <course>15.02</course>
  <speed>4.297953001139031</speed>
  <fix>3d</fix>
</trkpt>
<trkpt lat="40.0712476" lon="-105.2294395">
  <ele>1583.0</ele>
  <time>2026-08-28T17:56:49Z</time>
  <course>17.65</course>
  <speed>4.23</speed>
  <fix>3d</fix>
</trkpt>
<trkpt lat="40.0712568" lon="-105.2294363">
  <ele>1583.13</ele>
  <time>2026-08-28T17:56:49Z</time>
  <course>12.16</course>
  <speed>4.342464737910948</speed>
  <fix>3d</fix>
</trkpt>
<trkpt lat="40.0712476" lon="-105.2294395">
  <ele>1583.0</ele>
  <time>2026-08-28T17:56:49Z</time>
  <course>17.65</course>
  <speed>4.23</speed>
  <fix>3d</fix>
</trkpt>
<trkpt lat="40.0712607" lon="-105.2294355">
  <ele>1583.13</ele>
  <time>2026-08-28T17:56:49Z</time>
  <course>9.38</course>
  <speed>4.389829153850979</speed>
  <fix>3d</fix>
</trkpt>
<trkpt lat="40.0712549" lon="-105.229437">
  <ele>1583.0</ele>
  <time>2026-08-28T17:56:49Z</time>
  <course>11.88</course>
  <speed>4.31</speed>
  <fix>3d</fix>
</trkpt>
<trkpt lat="40.0712647" lon="-105.229435">
  <ele>1583.13</ele>
  <time>2026-08-28T17:56:49Z</time>
  <course>6.68</course>
  <speed>4.437172523127764</speed>
  <fix>3d</fix>
</trkpt>
<trkpt lat="40.0712549" lon="-105.229437">
  <ele>1583.0</ele>
  <time>2026-08-28T17:56:49Z</time>
  <course>11.88</course>
  <speed>4.31</speed>
  <fix>3d</fix>
</trkpt>
<trkpt lat="40.0712695" lon="-105.2294346">
  <ele>1583.13</ele>
  <time>2026-08-28T17:56:49Z</time>
  <course>3.55</course>
  <speed>4.5024993059410905</speed>
  <fix>3d</fix>
</trkpt>
<trkpt lat="40.0712627" lon="-105.2294354">
  <ele>1583.0</ele>
  <time>2026-08-28T17:56:49Z</time>
  <course>6.37</course>
  <speed>4.39</speed>
  <fix>3d</fix>
</trkpt>
<trkpt lat="40.0712736" lon="-105.2294346">
  <ele>1583.13</ele>
  <time>2026-08-28T17:56:49Z</time>
  <course>1.05</course>
  <speed>4.540176208034222</speed>
  <fix>3d</fix>
</trkpt>
<trkpt lat="40.0712627" lon="-105.2294354">
  <ele>1583.0</ele>
  <time>2026-08-28T17:56:49Z</time>
  <course>6.37</course>
  <speed>4.39</speed>
  <fix>3d</fix>
</trkpt>
<trkpt lat="40.0712777" lon="-105.2294348">
  <ele>1583.13</ele>
  <time>2026-08-28T17:56:49Z</time>
  <course>358.81</course>
  <speed>4.565303932927139</speed>
  <fix>3d</fix>
</trkpt>
<trkpt lat="40.0712707" lon="-105.2294348">
  <ele>1583.0</ele>
  <time>2026-08-28T17:56:49Z</time>
  <course>1.24</course>
  <speed>4.47</speed>
  <fix>3d</fix>
</trkpt>
<trkpt lat="40.0712818" lon="-105.2294351">
  <ele>1583.13</ele>
  <time>2026-08-28T17:56:49Z</time>
  <course>356.84</course>
  <speed>4.585771472718631</speed>
  <fix>3d</fix>
</trkpt>
<trkpt lat="40.0712707" lon="-105.2294348">
  <ele>1583.0</ele>
  <time>2026-08-28T17:56:49Z</time>
  <course>1.24</course>
  <speed>4.47</speed>
  <fix>3d</fix>
</trkpt>
<trkpt lat="40.0712859" lon="-105.2294357">
  <ele>1583.13</ele>
  <time>2026-08-28T17:56:49Z</time>
  <course>355.13</course>
  <speed>4.599489102063402</speed>
  <fix>3d</fix>
</trkpt>
<trkpt lat="40.0712788" lon="-105.2294349">
  <ele>1583.0</ele>
  <time>2026-08-28T17:56:49Z</time>
  <course>356.85</course>
  <speed>4.52</speed>
  <fix>3d</fix>
</trkpt>
<trkpt lat="40.07129" lon="-105.2294364">
  <ele>1583.13</ele>
  <time>2026-08-28T17:56:49Z</time>
  <course>353.71</course>
  <speed>4.593408320626417</speed>
  <fix>3d</fix>
</trkpt>
<trkpt lat="40.0712788" lon="-105.2294349">
  <ele>1583.0</ele>
  <time>2026-08-28T17:56:49Z</time>
  <course>356.85</course>
  <speed>4.52</speed>
  <fix>3d</fix>
</trkpt>
<trkpt lat="40.0712941" lon="-105.2294371">
  <ele>1583.13</ele>
  <time>2026-08-28T17:56:49Z</time>
  <course>352.52</course>
  <speed>4.586861672211186</speed>
  <fix>3d</fix>
</trkpt>
<trkpt lat="40.0712869" lon="-105.2294358">
  <ele>1583.0</ele>
  <time>2026-08-28T17:56:49Z</time>
  <course>353.51</course>
  <speed>4.53</speed>
  <fix>3d</fix>
</trkpt>
<trkpt lat="40.0712981" lon="-105.229438">
  <ele>1583.13</ele>
  <time>2026-08-28T17:56:49Z</time>
  <course>351.56</course>
  <speed>4.570557952810575</speed>
  <fix>3d</fix>
</trkpt>
<trkpt lat="40.0712869" lon="-105.2294358">
  <ele>1583.0</ele>
  <time>2026-08-28T17:56:49Z</time>
  <course>353.51</course>
  <speed>4.53</speed>
  <fix>3d</fix>
</trkpt>
<trkpt lat="40.071302" lon="-105.2294389">
  <ele>1583.13</ele>
  <time>2026-08-28T17:56:49Z</time>
  <course>350.83</course>
  <speed>4.559923244968056</speed>
  <fix>3d</fix>
</trkpt>
<trkpt lat="40.0712949" lon="-105.2294372">
  <ele>1583.0</ele>
  <time>2026-08-28T17:56:49Z</time>
  <course>351.19</course>
  <speed>4.52</speed>
  <fix>3d</fix>
</trkpt>
<trkpt lat="40.071306" lon="-105.2294399">
  <ele>1583.13</ele>
  <time>2026-08-28T17:56:49Z</time>
  <course>350.29</course>
  <speed>4.538127367097578</speed>
  <fix>3d</fix>
</trkpt>
<trkpt lat="40.0712949" lon="-105.2294372">
  <ele>1583.0</ele>
  <time>2026-08-28T17:56:49Z</time>
  <course>351.19</course>
  <speed>4.52</speed>
  <fix>3d</fix>
</trkpt>
<trkpt lat="40.0713099" lon="-105.2294409">
  <ele>1583.13</ele>
  <time>2026-08-28T17:56:49Z</time>
  <course>349.79</course>
  <speed>4.524522074208502</speed>
  <fix>3d</fix>
</trkpt>
<trkpt lat="40.071303" lon="-105.2294389">
  <ele>1583.0</ele>
  <time>2026-08-28T17:56:49Z</time>
  <course>349.73</course>
  <speed>4.5</speed>
  <fix>3d</fix>
</trkpt>
<trkpt lat="40.0713131" lon="-105.2294418">
  <ele>1583.13</ele>
  <time>2026-08-28T17:56:49Z</time>
  <course>349.44</course>
  <speed>4.5111639296305786</speed>
  <fix>3d</fix>
</trkpt>
<trkpt lat="40.071303" lon="-105.2294389">
  <ele>1583.0</ele>
  <time>2026-08-28T17:56:49Z</time>
  <course>349.73</course>
  <speed>4.5</speed>
  <fix>3d</fix>
</trkpt>
<trkpt lat="40.071317" lon="-105.2294429">
  <ele>1583.13</ele>
  <time>2026-08-28T17:56:49Z</time>
  <course>349.05</course>
  <speed>4.495887009256349</speed>
  <fix>3d</fix>
</trkpt>
<trkpt lat="40.0713109" lon="-105.2294409">
  <ele>1583.0</ele>
  <time>2026-08-28T17:56:49Z</time>
  <course>348.76</course>
  <speed>4.48</speed>
  <fix>3d</fix>
</trkpt>
<trkpt lat="40.0713209" lon="-105.229444">
  <ele>1583.13</ele>
  <time>2026-08-28T17:56:49Z</time>
  <course>348.69</course>
  <speed>4.492705198430006</speed>
  <fix>3d</fix>
</trkpt>
<trkpt lat="40.0713109" lon="-105.2294409">
  <ele>1583.0</ele>
  <time>2026-08-28T17:56:49Z</time>
  <course>348.76</course>
  <speed>4.48</speed>
  <fix>3d</fix>
</trkpt>
<trkpt lat="40.0713248" lon="-105.2294451">
  <ele>1583.12</ele>
  <time>2026-08-28T17:56:49Z</time>
  <course>348.37</course>
  <speed>4.4777226354476225</speed>
  <fix>3d</fix>
</trkpt>
<trkpt lat="40.0713188" lon="-105.229443">
  <ele>1583.0</ele>
  <time>2026-08-28T17:56:49Z</time>
  <course>347.98</course>
  <speed>4.46</speed>
  <fix>3d</fix>
</trkpt>
<trkpt lat="40.0713287" lon="-105.2294463">
  <ele>1583.12</ele>
  <time>2026-08-28T17:56:49Z</time>
  <course>348.07</course>
  <speed>4.472594325444685</speed>
  <fix>3d</fix>
</trkpt>
<trkpt lat="40.0713188" lon="-105.229443">
  <ele>1583.0</ele>
  <time>2026-08-28T17:56:49Z</time>
  <course>347.98</course>
  <speed>4.46</speed>
  <fix>3d</fix>
</trkpt>
<trkpt lat="40.0713326" lon="-105.2294475">
  <ele>1583.12</ele>
  <time>2026-08-28T17:56:49Z</time>
  <course>347.81</course>
  <speed>4.467572047544393</speed>
  <fix>3d</fix>
</trkpt>
<trkpt lat="40.0713265" lon="-105.2294452">
  <ele>1583.0</ele>
  <time>2026-08-28T17:56:49Z</time>
  <course>347.34</course>
  <speed>4.44</speed>
  <fix>3d</fix>
</trkpt>
<trkpt lat="40.0713365" lon="-105.2294487">
  <ele>1583.12</ele>
  <time>2026-08-28T17:56:49Z</time>
  <course>347.57</course>
  <speed>4.460246629952205</speed>
  <fix>3d</fix>
</trkpt>
<trkpt lat="40.0713265" lon="-105.2294452">
  <ele>1583.0</ele>
  <time>2026-08-28T17:56:49Z</time>
  <course>347.34</course>
  <speed>4.44</speed>
  <fix>3d</fix>
</trkpt>
<trkpt lat="40.0713404" lon="-105.2294499">
  <ele>1583.12</ele>
  <time>2026-08-28T17:56:49Z</time>
  <course>347.34</course>
  <speed>4.455389994153149</speed>
  <fix>3d</fix>
</trkpt>
<trkpt lat="40.0713343" lon="-105.2294476">
  <ele>1583.0</ele>
  <time>2026-08-28T17:56:49Z</time>
  <course>346.81</course>
  <speed>4.43</speed>
  <fix>3d</fix>
</trkpt>
<trkpt lat="40.0713442" lon="-105.2294511">
  <ele>1583.12</ele>
  <time>2026-08-28T17:56:49Z</time>
  <course>347.15</course>
  <speed>4.448156921692399</speed>
  <fix>3d</fix>
</trkpt>
<trkpt lat="40.0713343" lon="-105.2294476">
  <ele>1583.0</ele>
  <time>2026-08-28T17:56:49Z</time>
  <course>346.81</course>
  <speed>4.43</speed>
  <fix>3d</fix>
</trkpt>
<trkpt lat="40.0713481" lon="-105.2294524">
  <ele>1583.11</ele>
  <time>2026-08-28T17:56:49Z</time>
  <course>346.97</course>
  <speed>4.44095710404863</speed>
  <fix>3d</fix>
</trkpt>
<trkpt lat="40.071342" lon="-105.22945">
  <ele>1583.0</ele>
  <time>2026-08-28T17:56:49Z</time>
  <course>346.38</course>
  <speed>4.42</speed>
  <fix>3d</fix>
</trkpt>
<trkpt lat="40.0713527" lon="-105.2294539">
  <ele>1583.12</ele>
  <time>2026-08-28T17:56:49Z</time>
  <course>346.76</course>
  <speed>4.433790703224499</speed>
  <fix>3d</fix>
</trkpt>
<trkpt lat="40.071342" lon="-105.22945">
  <ele>1583.0</ele>
  <time>2026-08-28T17:56:49Z</time>
  <course>346.38</course>
  <speed>4.42</speed>
  <fix>3d</fix>
</trkpt>
<trkpt lat="40.0713566" lon="-105.2294552">
  <ele>1583.12</ele>
  <time>2026-08-28T17:56:49Z</time>
  <course>346.58</course>
  <speed>4.426657881517387</speed>
  <fix>3d</fix>
</trkpt>
<trkpt lat="40.0713498" lon="-105.2294525">
  <ele>1583.0</ele>
  <time>2026-08-28T17:56:49Z</time>
  <course>346.01</course>
  <speed>4.41</speed>
  <fix>3d</fix>
</trkpt>
<trkpt lat="40.0713604" lon="-105.2294564">
  <ele>1583.12</ele>
  <time>2026-08-28T17:56:49Z</time>
  <course>346.44</course>
  <speed>4.41955880150949</speed>
  <fix>3d</fix>
</trkpt>
<trkpt lat="40.0713498" lon="-105.2294525">
  <ele>1583.0</ele>
  <time>2026-08-28T17:56:49Z</time>
  <course>346.01</course>
  <speed>4.41</speed>
  <fix>3d</fix>
</trkpt>
<trkpt lat="40.0713642" lon="-105.2294577">
  <ele>1583.12</ele>
  <time>2026-08-28T17:56:49Z</time>
  <course>346.32</course>
  <speed>4.41955880150949</speed>
  <fix>3d</fix>
</trkpt>
<trkpt lat="40.0713575" lon="-105.229455">
  <ele>1583.0</ele>
  <time>2026-08-28T17:56:49Z</time>
  <course>345.68</course>
  <speed>4.41</speed>
  <fix>3d</fix>
</trkpt>
<trkpt lat="40.0713681" lon="-105.229459">
  <ele>1583.12</ele>
  <time>2026-08-28T17:56:49Z</time>
  <course>346.2</course>
  <speed>4.412493626057719</speed>
  <fix>3d</fix>
</trkpt>
<trkpt lat="40.0713575" lon="-105.229455">
  <ele>1583.0</ele>
  <time>2026-08-28T17:56:49Z</time>
  <course>345.68</course>
  <speed>4.41</speed>
  <fix>3d</fix>
</trkpt>
<trkpt lat="40.0713719" lon="-105.2294603">
  <ele>1583.12</ele>
  <time>2026-08-28T17:56:49Z</time>
  <course>346.09</course>
  <speed>4.405462518283409</speed>
  <fix>3d</fix>
</trkpt>
<trkpt lat="40.0713651" lon="-105.2294575">
  <ele>1583.0</ele>
  <time>2026-08-28T17:56:49Z</time>
  <course>345.42</course>
  <speed>4.4</speed>
  <fix>3d</fix>
</trkpt>
<trkpt lat="40.0713757" lon="-105.2294616">
  <ele>1583.12</ele>
  <time>2026-08-28T17:56:49Z</time>
  <course>345.96</course>
  <speed>4.405462518283409</speed>
  <fix>3d</fix>
</trkpt>
<trkpt lat="40.0713651" lon="-105.2294575">
  <ele>1583.0</ele>
  <time>2026-08-28T17:56:49Z</time>
  <course>345.42</course>
  <speed>4.4</speed>
  <fix>3d</fix>
</trkpt>
<trkpt lat="40.0713795" lon="-105.2294629">
  <ele>1583.12</ele>
  <time>2026-08-28T17:56:49Z</time>
  <course>345.85</course>
  <speed>4.398465641561839</speed>
  <fix>3d</fix>
</trkpt>
<trkpt lat="40.0713728" lon="-105.2294602">
  <ele>1583.0</ele>
  <time>2026-08-28T17:56:49Z</time>
  <course>345.18</course>
  <speed>4.4</speed>
  <fix>3d</fix>
</trkpt>
<trkpt lat="40.0713833" lon="-105.2294642">
  <ele>1583.12</ele>
  <time>2026-08-28T17:56:49Z</time>
  <course>345.72</course>
  <speed>4.388826722485179</speed>
  <fix>3d</fix>
</trkpt>
<trkpt lat="40.0713728" lon="-105.2294602">
  <ele>1583.0</ele>
  <time>2026-08-28T17:56:49Z</time>
  <course>345.18</course>
  <speed>4.4</speed>
  <fix>3d</fix>
</trkpt>
<trkpt lat="40.071387" lon="-105.2294656">
  <ele>1583.13</ele>
  <time>2026-08-28T17:56:49Z</time>
  <course>345.6</course>
  <speed>4.379189422712838</speed>
  <fix>3d</fix>
</trkpt>
<trkpt lat="40.0713804" lon="-105.2294629">
  <ele>1583.0</ele>
  <time>2026-08-28T17:56:49Z</time>
  <course>344.94</course>
  <speed>4.39</speed>
  <fix>3d</fix>
</trkpt>
<trkpt lat="40.0713908" lon="-105.2294669">
  <ele>1583.13</ele>
  <time>2026-08-28T17:56:49Z</time>
  <course>345.48</course>
  <speed>4.381871746183359</speed>
  <fix>3d</fix>
</trkpt>
<trkpt lat="40.0713804" lon="-105.2294629">
  <ele>1583.0</ele>
  <time>2026-08-28T17:56:49Z</time>
  <course>344.94</course>
  <speed>4.39</speed>
  <fix>3d</fix>
</trkpt>
<trkpt lat="40.0713938" lon="-105.229468">
  <ele>1583.13</ele>
  <time>2026-08-28T17:56:49Z</time>
  <course>345.38</course>
  <speed>4.372241987813575</speed>
  <fix>3d</fix>
</trkpt>
<trkpt lat="40.071388" lon="-105.2294656">
  <ele>1583.0</ele>
  <time>2026-08-28T17:56:49Z</time>
  <course>344.7</course>
  <speed>4.39</speed>
  <fix>3d</fix>
</trkpt>
<trkpt lat="40.0713976" lon="-105.2294693">
  <ele>1583.13</ele>
  <time>2026-08-28T17:56:49Z</time>
  <course>345.26</course>
  <speed>4.374951428301804</speed>
  <fix>3d</fix>
</trkpt>
<trkpt lat="40.071388" lon="-105.2294656">
  <ele>1583.0</ele>
  <time>2026-08-28T17:56:49Z</time>
  <course>344.7</course>
  <speed>4.39</speed>
  <fix>3d</fix>
</trkpt>
<trkpt lat="40.0714014" lon="-105.2294707">
  <ele>1583.13</ele>
  <time>2026-08-28T17:56:49Z</time>
  <course>345.14</course>
  <speed>4.365329311747282</speed>
  <fix>3d</fix>
</trkpt>
<trkpt lat="40.0713956" lon="-105.2294683">
  <ele>1583.0</ele>
  <time>2026-08-28T17:56:49Z</time>
  <course>344.47</course>
  <speed>4.39</speed>
  <fix>3d</fix>
</trkpt>
<trkpt lat="40.0714051" lon="-105.2294721">
  <ele>1583.13</ele>
  <time>2026-08-28T17:56:49Z</time>
  <course>345.02</course>
  <speed>4.368065933568311</speed>
  <fix>3d</fix>
</trkpt>
<trkpt lat="40.0713956" lon="-105.2294683">
  <ele>1583.0</ele>
  <time>2026-08-28T17:56:49Z</time>
  <course>344.47</course>
  <speed>4.39</speed>
  <fix>3d</fix>
</trkpt>
<trkpt lat="40.0714089" lon="-105.2294735">
  <ele>1583.13</ele>
  <time>2026-08-28T17:56:49Z</time>
  <course>344.91</course>
  <speed>4.3612154269194265</speed>
  <fix>3d</fix>
</trkpt>
<trkpt lat="40.0714033" lon="-105.2294711">
  <ele>1583.0</ele>
  <time>2026-08-28T17:56:49Z</time>
  <course>344.23</course>
  <speed>4.39</speed>
  <fix>3d</fix>
</trkpt>
<trkpt lat="40.0714127" lon="-105.2294749">
  <ele>1583.13</ele>
  <time>2026-08-28T17:56:49Z</time>
  <course>344.79</course>
  <speed>4.3612154269194265</speed>
  <fix>3d</fix>
</trkpt>
<trkpt lat="40.0714033" lon="-105.2294711">
  <ele>1583.0</ele>
  <time>2026-08-28T17:56:49Z</time>
  <course>344.23</course>
  <speed>4.39</speed>
  <fix>3d</fix>
</trkpt>
<trkpt lat="40.0714165" lon="-105.2294763">
  <ele>1583.14</ele>
  <time>2026-08-28T17:56:49Z</time>
  <course>344.67</course>
  <speed>4.354400073488884</speed>
  <fix>3d</fix>
</trkpt>
<trkpt lat="40.0714108" lon="-105.2294739">
  <ele>1583.0</ele>
  <time>2026-08-28T17:56:49Z</time>
  <course>343.99</course>
  <speed>4.38</speed>
  <fix>3d</fix>
</trkpt>
<trkpt lat="40.0714203" lon="-105.2294777">
  <ele>1583.14</ele>
  <time>2026-08-28T17:56:49Z</time>
  <course>344.55</course>
  <speed>4.354400073488884</speed>
  <fix>3d</fix>
</trkpt>
<trkpt lat="40.0714108" lon="-105.2294739">
  <ele>1583.0</ele>
  <time>2026-08-28T17:56:49Z</time>
  <course>343.99</course>
  <speed>4.38</speed>
  <fix>3d</fix>
</trkpt>
<trkpt lat="40.0714241" lon="-105.2294791">
  <ele>1583.14</ele>
  <time>2026-08-28T17:56:49Z</time>
  <course>344.43</course>
  <speed>4.357212411622826</speed>
  <fix>3d</fix>
</trkpt>
<trkpt lat="40.0714184" lon="-105.2294768">
  <ele>1583.0</ele>
  <time>2026-08-28T17:56:49Z</time>
  <course>343.75</course>
  <speed>4.38</speed>
  <fix>3d</fix>
</trkpt>
<trkpt lat="40.0714279" lon="-105.2294806">
  <ele>1583.14</ele>
  <time>2026-08-28T17:56:49Z</time>
  <course>344.31</course>
  <speed>4.3504597458199745</speed>
  <fix>3d</fix>
</trkpt>
<trkpt lat="40.0714184" lon="-105.2294768">
  <ele>1583.0</ele>
  <time>2026-08-28T17:56:49Z</time>
  <course>343.75</course>
  <speed>4.38</speed>
  <fix>3d</fix>
</trkpt>
<trkpt lat="40.0714324" lon="-105.2294823">
  <ele>1583.14</ele>
  <time>2026-08-28T17:56:49Z</time>
  <course>344.11</course>
  <speed>4.35332057170156</speed>
  <fix>3d</fix>
</trkpt>
<trkpt lat="40.071426" lon="-105.2294797">
  <ele>1583.0</ele>
  <time>2026-08-28T17:56:49Z</time>
  <course>343.5</course>
  <speed>4.38</speed>
  <fix>3d</fix>
</trkpt>
<trkpt lat="40.0714361" lon="-105.2294838">
  <ele>1583.14</ele>
  <time>2026-08-28T17:56:49Z</time>
  <course>343.93</course>
  <speed>4.346630879198278</speed>
  <fix>3d</fix>
</trkpt>
<trkpt lat="40.071426" lon="-105.2294797">
  <ele>1583.0</ele>
  <time>2026-08-28T17:56:49Z</time>
  <course>343.5</course>
  <speed>4.38</speed>
  <fix>3d</fix>
</trkpt>
<trkpt lat="40.0714399" lon="-105.2294853">
  <ele>1583.15</ele>
  <time>2026-08-28T17:56:49Z</time>
  <course>343.65</course>
  <speed>4.342913768427828</speed>
  <fix>3d</fix>
</trkpt>
<trkpt lat="40.0714335" lon="-105.2294826">
  <ele>1583.0</ele>
  <time>2026-08-28T17:56:49Z</time>
  <course>343.17</course>
  <speed>4.37</speed>
  <fix>3d</fix>
</trkpt>
<trkpt lat="40.0714437" lon="-105.2294868">
  <ele>1583.15</ele>
  <time>2026-08-28T17:56:49Z</time>
  <course>342.62</course>
  <speed>4.345043152835194</speed>
  <fix>3d</fix>
</trkpt>
<trkpt lat="40.0714335" lon="-105.2294826">
  <ele>1583.0</ele>
  <time>2026-08-28T17:56:49Z</time>
  <course>343.17</course>
  <speed>4.37</speed>
  <fix>3d</fix>
</trkpt>
<trkpt lat="40.0714474" lon="-105.2294885">
  <ele>1583.15</ele>
  <time>2026-08-28T17:56:49Z</time>
  <course>340.42</course>
  <speed>4.331708669797636</speed>
  <fix>3d</fix>
</trkpt>
<trkpt lat="40.071441" lon="-105.2294857">
  <ele>1583.0</ele>
  <time>2026-08-28T17:56:49Z</time>
  <course>341.77</course>
  <speed>4.37</speed>
  <fix>3d</fix>
</trkpt>
<trkpt lat="40.071451" lon="-105.2294904">
  <ele>1583.15</ele>
  <time>2026-08-28T17:56:49Z</time>
  <course>337.14</course>
  <speed>4.303080292069856</speed>
  <fix>3d</fix>
</trkpt>
<trkpt lat="40.071441" lon="-105.2294857">
  <ele>1583.0</ele>
  <time>2026-08-28T17:56:49Z</time>
  <course>341.77</course>
  <speed>4.37</speed>
  <fix>3d</fix>
</trkpt>
<trkpt lat="40.0714544" lon="-105.2294926">
  <ele>1583.15</ele>
  <time>2026-08-28T17:56:49Z</time>
  <course>332.72</course>
  <speed>4.263531400142375</speed>
  <fix>3d</fix>
</trkpt>
<trkpt lat="40.0714483" lon="-105.2294892">
  <ele>1583.0</ele>
  <time>2026-08-28T17:56:49Z</time>
  <course>337.19</course>
  <speed>4.33</speed>
  <fix>3d</fix>
</trkpt>
<trkpt lat="40.0714577" lon="-105.2294952">
  <ele>1583.16</ele>
  <time>2026-08-28T17:56:49Z</time>
  <course>327.24</course>
  <speed>4.2240501890957685</speed>
  <fix>3d</fix>
</trkpt>
<trkpt lat="40.0714483" lon="-105.2294892">
  <ele>1583.0</ele>
  <time>2026-08-28T17:56:49Z</time>
  <course>337.19</course>
  <speed>4.33</speed>
  <fix>3d</fix>
</trkpt>
<trkpt lat="40.0714607" lon="-105.2294982">
  <ele>1583.16</ele>
  <time>2026-08-28T17:56:49Z</time>
  <course>320.91</course>
  <speed>4.186884283091665</speed>
  <fix>3d</fix>
</trkpt>
<trkpt lat="40.0714552" lon="-105.2294938">
  <ele>1583.0</ele>
  <time>2026-08-28T17:56:49Z</time>
  <course>328.17</course>
  <speed>4.25</speed>
  <fix>3d</fix>
</trkpt>
<trkpt lat="40.0714634" lon="-105.2295016">
  <ele>1583.16</ele>
  <time>2026-08-28T17:56:49Z</time>
  <course>315.66</course>
  <speed>4.150867379235333</speed>
  <fix>3d</fix>
</trkpt>
<trkpt lat="40.0714552" lon="-105.2294938">
  <ele>1583.0</ele>
  <time>2026-08-28T17:56:49Z</time>
  <course>328.17</course>
  <speed>4.25</speed>
  <fix>3d</fix>
</trkpt>
<trkpt lat="40.0714658" lon="-105.2295052">
  <ele>1583.16</ele>
  <time>2026-08-28T17:56:49Z</time>
  <course>311.53</course>
  <speed>4.10114618125226</speed>
  <fix>3d</fix>
</trkpt>
<trkpt lat="40.0714613" lon="-105.2294998">
  <ele>1583.0</ele>
  <time>2026-08-28T17:56:49Z</time>
  <course>317.37</course>
  <speed>4.17</speed>
  <fix>3d</fix>
</trkpt>
<trkpt lat="40.0714676" lon="-105.2295082">
  <ele>1583.17</ele>
  <time>2026-08-28T17:56:49Z</time>
  <course>308.96</course>
  <speed>4.028361949974208</speed>
  <fix>3d</fix>
</trkpt>
<trkpt lat="40.0714613" lon="-105.2294998">
  <ele>1583.0</ele>
  <time>2026-08-28T17:56:49Z</time>
  <course>317.37</course>
  <speed>4.17</speed>
  <fix>3d</fix>
</trkpt>
<trkpt lat="40.0714697" lon="-105.229512">
  <ele>1583.17</ele>
  <time>2026-08-28T17:56:49Z</time>
  <course>306.79</course>
  <speed>3.923378646014172</speed>
  <fix>3d</fix>
</trkpt>
<trkpt lat="40.0714664" lon="-105.2295068">
  <ele>1583.0</ele>
  <time>2026-08-28T17:56:49Z</time>
  <course>309.27</course>
  <speed>4.05</speed>
  <fix>3d</fix>
</trkpt>
<trkpt lat="40.0714717" lon="-105.2295158">
  <ele>1583.17</ele>
  <time>2026-08-28T17:56:49Z</time>
  <course>305.73</course>
  <speed>3.8524926995388324</speed>
  <fix>3d</fix>
</trkpt>
<trkpt lat="40.0714664" lon="-105.2295068">
  <ele>1583.0</ele>
  <time>2026-08-28T17:56:49Z</time>
  <course>309.27</course>
  <speed>4.05</speed>
  <fix>3d</fix>
</trkpt>
<trkpt lat="40.0714736" lon="-105.2295196">
  <ele>1583.17</ele>
  <time>2026-08-28T17:56:49Z</time>
  <course>305.73</course>
  <speed>3.8442164351139234</speed>
  <fix>3d</fix>
</trkpt>
<trkpt lat="40.0714707" lon="-105.2295143">
  <ele>1583.0</ele>
  <time>2026-08-28T17:56:49Z</time>
  <course>305.52</course>
  <speed>3.92</speed>
  <fix>3d</fix>
</trkpt>
<trkpt lat="40.0714756" lon="-105.2295234">
  <ele>1583.18</ele>
  <time>2026-08-28T17:56:49Z</time>
  <course>306.82</course>
  <speed>3.8815589651582</speed>
  <fix>3d</fix>
</trkpt>
<trkpt lat="40.0714707" lon="-105.2295143">
  <ele>1583.0</ele>
  <time>2026-08-28T17:56:49Z</time>
  <course>305.52</course>
  <speed>3.92</speed>
  <fix>3d</fix>
</trkpt>
<trkpt lat="40.0714777" lon="-105.2295271">
  <ele>1583.18</ele>
  <time>2026-08-28T17:56:49Z</time>
  <course>309.03</course>
  <speed>3.922269751049767</speed>
  <fix>3d</fix>
</trkpt>
<trkpt lat="40.0714747" lon="-105.2295217">
  <ele>1583.0</ele>
  <time>2026-08-28T17:56:49Z</time>
  <course>306.21</course>
  <speed>3.9</speed>
  <fix>3d</fix>
</trkpt>
<trkpt lat="40.0714799" lon="-105.2295308">
  <ele>1583.18</ele>
  <time>2026-08-28T17:56:49Z</time>
  <course>312.22</course>
  <speed>3.963344547222712</speed>
  <fix>3d</fix>
</trkpt>
<trkpt lat="40.0714747" lon="-105.2295217">
  <ele>1583.0</ele>
  <time>2026-08-28T17:56:49Z</time>
  <course>306.21</course>
  <speed>3.9</speed>
  <fix>3d</fix>
</trkpt>
<trkpt lat="40.0714824" lon="-105.2295342">
  <ele>1583.18</ele>
  <time>2026-08-28T17:56:49Z</time>
  <course>315.43</course>
  <speed>3.9956601457080905</speed>
  <fix>3d</fix>
</trkpt>
<trkpt lat="40.0714791" lon="-105.229529">
  <ele>1583.0</ele>
  <time>2026-08-28T17:56:49Z</time>
  <course>310.81</course>
  <speed>3.98</speed>
  <fix>3d</fix>
</trkpt>
<trkpt lat="40.0714851" lon="-105.2295375">
  <ele>1583.18</ele>
  <time>2026-08-28T17:56:49Z</time>
  <course>318.62</course>
  <speed>4.026723233598257</speed>
  <fix>3d</fix>
</trkpt>
<trkpt lat="40.0714791" lon="-105.229529">
  <ele>1583.0</ele>
  <time>2026-08-28T17:56:49Z</time>
  <course>310.81</course>
  <speed>3.98</speed>
  <fix>3d</fix>
</trkpt>
<trkpt lat="40.0714878" lon="-105.2295407">
  <ele>1583.18</ele>
  <time>2026-08-28T17:56:49Z</time>
  <course>321.83</course>
  <speed>4.0358394418014205</speed>
  <fix>3d</fix>
</trkpt>
<trkpt lat="40.0714841" lon="-105.2295358">
  <ele>1583.0</ele>
  <time>2026-08-28T17:56:49Z</time>
  <course>317.14</course>
  <speed>4.05</speed>
  <fix>3d</fix>
</trkpt>
<trkpt lat="40.0714914" lon="-105.2295441">
  <ele>1583.18</ele>
  <time>2026-08-28T17:56:49Z</time>
  <course>325.78</course>
  <speed>4.025729747511623</speed>
  <fix>3d</fix>
</trkpt>
<trkpt lat="40.0714841" lon="-105.2295358">
  <ele>1583.0</ele>
  <time>2026-08-28T17:56:49Z</time>
  <course>317.14</course>
  <speed>4.05</speed>
  <fix>3d</fix>
</trkpt>
<trkpt lat="40.0714945" lon="-105.2295467">
  <ele>1583.18</ele>
  <time>2026-08-28T17:56:49Z</time>
  <course>329.18</course>
  <speed>4.032282232185639</speed>
  <fix>3d</fix>
</trkpt>
<trkpt lat="40.0714897" lon="-105.2295419">
  <ele>1583.0</ele>
  <time>2026-08-28T17:56:49Z</time>
  <course>323.65</course>
  <speed>4.08</speed>
  <fix>3d</fix>
</trkpt>
<trkpt lat="40.0714977" lon="-105.229549">
  <ele>1583.18</ele>
  <time>2026-08-28T17:56:49Z</time>
  <course>332.73</course>
  <speed>4.030595489502761</speed>
  <fix>3d</fix>
</trkpt>
<trkpt lat="40.0714897" lon="-105.2295419">
  <ele>1583.0</ele>
  <time>2026-08-28T17:56:49Z</time>
  <course>323.65</course>
  <speed>4.08</speed>
  <fix>3d</fix>
</trkpt>
<trkpt lat="40.071501" lon="-105.2295511">
  <ele>1583.18</ele>
  <time>2026-08-28T17:56:49Z</time>
  <course>336.48</course>
  <speed>4.05123437979093</speed>
  <fix>3d</fix>
</trkpt>
<trkpt lat="40.0714959" lon="-105.2295471">
  <ele>1583.0</ele>
  <time>2026-08-28T17:56:49Z</time>
  <course>330.57</course>
  <speed>4.09</speed>
  <fix>3d</fix>
</trkpt>
<trkpt lat="40.0715045" lon="-105.2295528">
  <ele>1583.17</ele>
  <time>2026-08-28T17:56:49Z</time>
  <course>340.43</course>
  <speed>4.083833982913605</speed>
  <fix>3d</fix>
</trkpt>
<trkpt lat="40.0714959" lon="-105.2295471">
  <ele>1583.0</ele>
  <time>2026-08-28T17:56:49Z</time>
  <course>330.57</course>
  <speed>4.09</speed>
  <fix>3d</fix>
</trkpt>
<trkpt lat="40.0715081" lon="-105.2295543">
  <ele>1583.17</ele>
  <time>2026-08-28T17:56:49Z</time>
  <course>344.67</course>
  <speed>4.1318881882258145</speed>
  <fix>3d</fix>
</trkpt>
<trkpt lat="40.0715026" lon="-105.2295513">
  <ele>1583.0</ele>
  <time>2026-08-28T17:56:49Z</time>
  <course>338.2</course>
  <speed>4.14</speed>
  <fix>3d</fix>
</trkpt>
<trkpt lat="40.0715118" lon="-105.2295554">
  <ele>1583.17</ele>
  <time>2026-08-28T17:56:49Z</time>
  <course>349.18</course>
  <speed>4.185235955116509</speed>
  <fix>3d</fix>
</trkpt>
<trkpt lat="40.0715026" lon="-105.2295513">
  <ele>1583.0</ele>
  <time>2026-08-28T17:56:49Z</time>
  <course>338.2</course>
  <speed>4.14</speed>
  <fix>3d</fix>
</trkpt>
<trkpt lat="40.0715156" lon="-105.2295561">
  <ele>1583.17</ele>
  <time>2026-08-28T17:56:49Z</time>
  <course>353.99</course>
  <speed>4.251799618984883</speed>
  <fix>3d</fix>
</trkpt>
<trkpt lat="40.0715098" lon="-105.2295543">
  <ele>1583.0</ele>
  <time>2026-08-28T17:56:49Z</time>
  <course>346.78</course>
  <speed>4.23</speed>
  <fix>3d</fix>
</trkpt>
<trkpt lat="40.0715195" lon="-105.2295563">
  <ele>1583.17</ele>
  <time>2026-08-28T17:56:49Z</time>
  <course>359.17</course>
  <speed>4.310185610852507</speed>
  <fix>3d</fix>
</trkpt>
<trkpt lat="40.0715098" lon="-105.2295543">
  <ele>1583.0</ele>
  <time>2026-08-28T17:56:49Z</time>
  <course>346.78</course>
  <speed>4.23</speed>
  <fix>3d</fix>
</trkpt>
<trkpt lat="40.0715235" lon="-105.229556">
  <ele>1583.17</ele>
  <time>2026-08-28T17:56:49Z</time>
  <course>4.81</course>
  <speed>4.368352092036538</speed>
  <fix>3d</fix>
</trkpt>
<trkpt lat="40.0715174" lon="-105.2295557">
  <ele>1583.0</ele>
  <time>2026-08-28T17:56:49Z</time>
  <course>356.58</course>
  <speed>4.34</speed>
  <fix>3d</fix>
</trkpt>
<trkpt lat="40.0715274" lon="-105.2295552">
  <ele>1583.18</ele>
  <time>2026-08-28T17:56:49Z</time>
  <course>11.59</course>
  <speed>4.389646910629601</speed>
  <fix>3d</fix>
</trkpt>
<trkpt lat="40.0715174" lon="-105.2295557">
  <ele>1583.0</ele>
  <time>2026-08-28T17:56:49Z</time>
  <course>356.58</course>
  <speed>4.34</speed>
  <fix>3d</fix>
</trkpt>
<trkpt lat="40.0715305" lon="-105.2295541">
  <ele>1583.18</ele>
  <time>2026-08-28T17:56:49Z</time>
  <course>17.37</course>
  <speed>4.376665397308778</speed>
  <fix>3d</fix>
</trkpt>
<trkpt lat="40.0715252" lon="-105.2295554">
  <ele>1583.0</ele>
  <time>2026-08-28T17:56:49Z</time>
  <course>8.51</course>
  <speed>4.41</speed>
  <fix>3d</fix>
</trkpt>
<trkpt lat="40.0715342" lon="-105.2295521">
  <ele>1583.18</ele>
  <time>2026-08-28T17:56:49Z</time>
  <course>24.49</course>
  <speed>4.343190071825086</speed>
  <fix>3d</fix>
</trkpt>
<trkpt lat="40.0715252" lon="-105.2295554">
  <ele>1583.0</ele>
  <time>2026-08-28T17:56:49Z</time>
  <course>8.51</course>
  <speed>4.41</speed>
  <fix>3d</fix>
</trkpt>
<trkpt lat="40.0715377" lon="-105.2295496">
  <ele>1583.18</ele>
  <time>2026-08-28T17:56:49Z</time>
  <course>31.36</course>
  <speed>4.29424032862624</speed>
  <fix>3d</fix>
</trkpt>
<trkpt lat="40.0715329" lon="-105.2295527">
  <ele>1583.0</ele>
  <time>2026-08-28T17:56:49Z</time>
  <course>22.22</course>
  <speed>4.37</speed>
  <fix>3d</fix>
</trkpt>
<trkpt lat="40.0715408" lon="-105.2295466">
  <ele>1583.18</ele>
  <time>2026-08-28T17:56:49Z</time>
  <course>37.09</course>
  <speed>4.249529385708493</speed>
  <fix>3d</fix>
</trkpt>
<trkpt lat="40.0715329" lon="-105.2295527">
  <ele>1583.0</ele>
  <time>2026-08-28T17:56:49Z</time>
  <course>22.22</course>
  <speed>4.37</speed>
  <fix>3d</fix>
</trkpt>
<trkpt lat="40.0715438" lon="-105.2295433">
  <ele>1583.18</ele>
  <time>2026-08-28T17:56:49Z</time>
  <course>41.71</course>
  <speed>4.209429890139519</speed>
  <fix>3d</fix>
</trkpt>
<trkpt lat="40.0715397" lon="-105.2295479">
  <ele>1583.0</ele>
  <time>2026-08-28T17:56:49Z</time>
  <course>34.67</course>
  <speed>4.29</speed>
  <fix>3d</fix>
</trkpt>
<trkpt lat="40.0715465" lon="-105.2295398">
  <ele>1583.18</ele>
  <time>2026-08-28T17:56:49Z</time>
  <course>45.23</course>
  <speed>4.173871104861768</speed>
  <fix>3d</fix>
</trkpt>
<trkpt lat="40.0715397" lon="-105.2295479">
  <ele>1583.0</ele>
  <time>2026-08-28T17:56:49Z</time>
  <course>34.67</course>
  <speed>4.29</speed>
  <fix>3d</fix>
</trkpt>
<trkpt lat="40.071549" lon="-105.2295361">
  <ele>1583.17</ele>
  <time>2026-08-28T17:56:49Z</time>
  <course>48.63</course>
  <speed>4.139432328230527</speed>
  <fix>3d</fix>
</trkpt>
<trkpt lat="40.0715455" lon="-105.2295415">
  <ele>1583.0</ele>
  <time>2026-08-28T17:56:49Z</time>
  <course>43.57</course>
  <speed>4.2</speed>
  <fix>3d</fix>
</trkpt>
<trkpt lat="40.0715513" lon="-105.2295322">
  <ele>1583.17</ele>
  <time>2026-08-28T17:56:49Z</time>
  <course>53.27</course>
  <speed>4.069950859654204</speed>
  <fix>3d</fix>
</trkpt>
<trkpt lat="40.0715455" lon="-105.2295415">
  <ele>1583.0</ele>
  <time>2026-08-28T17:56:49Z</time>
  <course>43.57</course>
  <speed>4.2</speed>
  <fix>3d</fix>
</trkpt>
<trkpt lat="40.0715533" lon="-105.2295282">
  <ele>1583.17</ele>
  <time>2026-08-28T17:56:49Z</time>
  <course>58.98</course>
  <speed>3.930814165029937</speed>
  <fix>3d</fix>
</trkpt>
<trkpt lat="40.0715505" lon="-105.2295343">
  <ele>1583.0</ele>
  <time>2026-08-28T17:56:49Z</time>
  <course>51.94</course>
  <speed>4.04</speed>
  <fix>3d</fix>
</trkpt>
<trkpt lat="40.0715551" lon="-105.2295233">
  <ele>1583.16</ele>
  <time>2026-08-28T17:56:49Z</time>
  <course>67.28</course>
  <speed>3.77</speed>
  <fix>3d</fix>
</trkpt>
<trkpt lat="40.0715505" lon="-105.2295343">
  <ele>1583.0</ele>
  <time>2026-08-28T17:56:49Z</time>
  <course>51.94</course>
  <speed>4.04</speed>
  <fix>3d</fix>
</trkpt>
<trkpt lat="40.0715561" lon="-105.2295192">
  <ele>1583.16</ele>
  <time>2026-08-28T17:56:49Z</time>
  <course>75.38</course>
  <speed>3.6509861681469022</speed>
  <fix>3d</fix>
</trkpt>
<trkpt lat="40.0715543" lon="-105.2295265">
  <ele>1583.0</ele>
  <time>2026-08-28T17:56:49Z</time>
  <course>63.94</course>
  <speed>3.78</speed>
  <fix>3d</fix>
</trkpt>
<trkpt lat="40.0715566" lon="-105.2295151">
  <ele>1583.16</ele>
  <time>2026-08-28T17:56:49Z</time>
  <course>83.91</course>
  <speed>3.51961645637703</speed>
  <fix>3d</fix>
</trkpt>
<trkpt lat="40.0715543" lon="-105.2295265">
  <ele>1583.0</ele>
  <time>2026-08-28T17:56:49Z</time>
  <course>63.94</course>
  <speed>3.78</speed>
  <fix>3d</fix>
</trkpt>
<trkpt lat="40.0715566" lon="-105.229511">
  <ele>1583.16</ele>
  <time>2026-08-28T17:56:49Z</time>
  <course>92.6</course>
  <speed>3.3892329515688355</speed>
  <fix>3d</fix>
</trkpt>
<trkpt lat="40.0715564" lon="-105.2295185">
  <ele>1583.0</ele>
  <time>2026-08-28T17:56:49Z</time>
  <course>79.61</course>
  <speed>3.49</speed>
  <fix>3d</fix>
</trkpt>
<trkpt lat="40.0715563" lon="-105.2295072">
  <ele>1583.16</ele>
  <time>2026-08-28T17:56:49Z</time>
  <course>100.28</course>
  <speed>3.271452276894774</speed>
  <fix>3d</fix>
</trkpt>
<trkpt lat="40.0715564" lon="-105.2295185">
  <ele>1583.0</ele>
  <time>2026-08-28T17:56:49Z</time>
  <course>79.61</course>
  <speed>3.49</speed>
  <fix>3d</fix>
</trkpt>
<trkpt lat="40.0715555" lon="-105.2295036">
  <ele>1583.16</ele>
  <time>2026-08-28T17:56:49Z</time>
  <course>106.87</course>
  <speed>3.1844151739369666</speed>
  <fix>3d</fix>
</trkpt>
<trkpt lat="40.0715566" lon="-105.2295106">
  <ele>1583.0</ele>
  <time>2026-08-28T17:56:49Z</time>
  <course>95.86</course>
  <speed>3.25</speed>
  <fix>3d</fix>
</trkpt>
<trkpt lat="40.0715545" lon="-105.2295002">
  <ele>1583.17</ele>
  <time>2026-08-28T17:56:49Z</time>
  <course>112.44</course>
  <speed>3.1292970456637703</speed>
  <fix>3d</fix>
</trkpt>
<trkpt lat="40.0715566" lon="-105.2295106">
  <ele>1583.0</ele>
  <time>2026-08-28T17:56:49Z</time>
  <course>95.86</course>
  <speed>3.25</speed>
  <fix>3d</fix>
</trkpt>
<trkpt lat="40.0715532" lon="-105.229497">
  <ele>1583.17</ele>
  <time>2026-08-28T17:56:49Z</time>
  <course>116.9</course>
  <speed>3.1053663229963706</speed>
  <fix>3d</fix>
</trkpt>
<trkpt lat="40.0715554" lon="-105.2295034">
  <ele>1583.0</ele>
  <time>2026-08-28T17:56:49Z</time>
  <course>109.01</course>
  <speed>3.09</speed>
  <fix>3d</fix>
</trkpt>
<trkpt lat="40.0715519" lon="-105.229494">
  <ele>1583.17</ele>
  <time>2026-08-28T17:56:49Z</time>
  <course>120.28</course>
  <speed>3.1026601489689454</speed>
  <fix>3d</fix>
</trkpt>
<trkpt lat="40.0715554" lon="-105.2295034">
  <ele>1583.0</ele>
  <time>2026-08-28T17:56:49Z</time>
  <course>109.01</course>
  <speed>3.09</speed>
  <fix>3d</fix>
</trkpt>
<trkpt lat="40.0715504" lon="-105.229491">
  <ele>1583.17</ele>
  <time>2026-08-28T17:56:49Z</time>
  <course>123.02</course>
  <speed>3.114883625434504</speed>
  <fix>3d</fix>
</trkpt>
<trkpt lat="40.0715533" lon="-105.2294968">
  <ele>1583.0</ele>
  <time>2026-08-28T17:56:49Z</time>
  <course>117.86</course>
  <speed>3.04</speed>
  <fix>3d</fix>
</trkpt>
<trkpt lat="40.0715489" lon="-105.2294881">
  <ele>1583.17</ele>
  <time>2026-08-28T17:56:49Z</time>
  <course>125.32</course>
  <speed>3.1440101781005736</speed>
  <fix>3d</fix>
</trkpt>
<trkpt lat="40.0715533" lon="-105.2294968">
  <ele>1583.0</ele>
  <time>2026-08-28T17:56:49Z</time>
  <course>117.86</course>
  <speed>3.04</speed>
  <fix>3d</fix>
</trkpt>
<trkpt lat="40.0715472" lon="-105.2294852">
  <ele>1583.17</ele>
  <time>2026-08-28T17:56:49Z</time>
  <course>127.25</course>
  <speed>3.181273329973393</speed>
  <fix>3d</fix>
</trkpt>
<trkpt lat="40.0715505" lon="-105.2294906">
  <ele>1583.0</ele>
  <time>2026-08-28T17:56:49Z</time>
  <course>123.52</course>
  <speed>3.07</speed>
  <fix>3d</fix>
</trkpt>
<trkpt lat="40.0715458" lon="-105.2294829">
  <ele>1583.17</ele>
  <time>2026-08-28T17:56:49Z</time>
  <course>128.55</course>
  <speed>3.2098909638802375</speed>
  <fix>3d</fix>
</trkpt>
<trkpt lat="40.0715505" lon="-105.2294906">
  <ele>1583.0</ele>
  <time>2026-08-28T17:56:49Z</time>
  <course>123.52</course>
  <speed>3.07</speed>
  <fix>3d</fix>
</trkpt>
<trkpt lat="40.071544" lon="-105.2294801">
  <ele>1583.17</ele>
  <time>2026-08-28T17:56:49Z</time>
  <course>129.94</course>
  <speed>3.2464442086689247</speed>
  <fix>3d</fix>
</trkpt>
<trkpt lat="40.0715472" lon="-105.2294848">
  <ele>1583.0</ele>
  <time>2026-08-28T17:56:49Z</time>
  <course>127.37</course>
  <speed>3.14</speed>
  <fix>3d</fix>
</trkpt>
<trkpt lat="40.0715422" lon="-105.2294773">
  <ele>1583.17</ele>
  <time>2026-08-28T17:56:49Z</time>
  <course>131.1</course>
  <speed>3.2712382976481553</speed>
  <fix>3d</fix>
</trkpt>
<trkpt lat="40.0715472" lon="-105.2294848">
  <ele>1583.0</ele>
  <time>2026-08-28T17:56:49Z</time>
  <course>127.37</course>
  <speed>3.14</speed>
  <fix>3d</fix>
</trkpt>
<trkpt lat="40.0715402" lon="-105.2294745">
  <ele>1583.17</ele>
  <time>2026-08-28T17:56:49Z</time>
  <course>132.06</course>
  <speed>3.2761104987469514</speed>
  <fix>3d</fix>
</trkpt>
<trkpt lat="40.0715436" lon="-105.229479">
  <ele>1583.0</ele>
  <time>2026-08-28T17:56:49Z</time>
  <course>130.05</course>
  <speed>3.2</speed>
  <fix>3d</fix>
</trkpt>
<trkpt lat="40.0715383" lon="-105.2294717">
  <ele>1583.17</ele>
  <time>2026-08-28T17:56:49Z</time>
  <course>132.85</course>
  <speed>3.2748282397707515</speed>
  <fix>3d</fix>
</trkpt>
<trkpt lat="40.0715436" lon="-105.229479">
  <ele>1583.0</ele>
  <time>2026-08-28T17:56:49Z</time>
  <course>130.05</course>
  <speed>3.2</speed>
  <fix>3d</fix>
</trkpt>
<trkpt lat="40.0715363" lon="-105.2294689">
  <ele>1583.18</ele>
  <time>2026-08-28T17:56:49Z</time>
  <course>133.51</course>
  <speed>3.267108813614876</speed>
  <fix>3d</fix>
</trkpt>
<trkpt lat="40.0715398" lon="-105.2294732">
  <ele>1583.0</ele>
  <time>2026-08-28T17:56:49Z</time>
  <course>131.89</course>
  <speed>3.22</speed>
  <fix>3d</fix>
</trkpt>
<trkpt lat="40.0715343" lon="-105.2294662">
  <ele>1583.18</ele>
  <time>2026-08-28T17:56:49Z</time>
  <course>134.04</course>
  <speed>3.2456894491001447</speed>
  <fix>3d</fix>
</trkpt>
<trkpt lat="40.0715398" lon="-105.2294732">
  <ele>1583.0</ele>
  <time>2026-08-28T17:56:49Z</time>
  <course>131.89</course>
  <speed>3.22</speed>
  <fix>3d</fix>
</trkpt>
<trkpt lat="40.0715323" lon="-105.2294635">
  <ele>1583.18</ele>
  <time>2026-08-28T17:56:49Z</time>
  <course>134.48</course>
  <speed>3.231485726411305</speed>
  <fix>3d</fix>
</trkpt>
<trkpt lat="40.0715359" lon="-105.2294676">
  <ele>1583.0</ele>
  <time>2026-08-28T17:56:49Z</time>
  <course>133.15</course>
  <speed>3.21</speed>
  <fix>3d</fix>
</trkpt>
<trkpt lat="40.0715303" lon="-105.2294608">
  <ele>1583.18</ele>
  <time>2026-08-28T17:56:49Z</time>
  <course>134.85</course>
  <speed>3.2032639604003914</speed>
  <fix>3d</fix>
</trkpt>
<trkpt lat="40.0715359" lon="-105.2294676">
  <ele>1583.0</ele>
  <time>2026-08-28T17:56:49Z</time>
  <course>133.15</course>
  <speed>3.21</speed>
  <fix>3d</fix>
</trkpt>
<trkpt lat="40.071528" lon="-105.2294576">
  <ele>1583.18</ele>
  <time>2026-08-28T17:56:49Z</time>
  <course>135.2</course>
  <speed>3.1751062974332056</speed>
  <fix>3d</fix>
</trkpt>
<trkpt lat="40.071532" lon="-105.2294623">
  <ele>1583.0</ele>
  <time>2026-08-28T17:56:49Z</time>
  <course>134.0</course>
  <speed>3.17</speed>
  <fix>3d</fix>
</trkpt>
<trkpt lat="40.071526" lon="-105.229455">
  <ele>1583.18</ele>
  <time>2026-08-28T17:56:49Z</time>
  <course>135.43</course>
  <speed>3.139840760293426</speed>
  <fix>3d</fix>
</trkpt>
<trkpt lat="40.071532" lon="-105.2294623">
  <ele>1583.0</ele>
  <time>2026-08-28T17:56:49Z</time>
  <course>134.0</course>
  <speed>3.17</speed>
  <fix>3d</fix>
</trkpt>
<trkpt lat="40.0715241" lon="-105.2294525">
  <ele>1583.18</ele>
  <time>2026-08-28T17:56:49Z</time>
  <course>135.61</course>
  <speed>3.1187337173923653</speed>
  <fix>3d</fix>
</trkpt>
<trkpt lat="40.071528" lon="-105.229457">
  <ele>1583.0</ele>
  <time>2026-08-28T17:56:49Z</time>
  <course>134.56</course>
  <speed>3.13</speed>
  <fix>3d</fix>
</trkpt>
<trkpt lat="40.0715221" lon="-105.2294499">
  <ele>1583.17</ele>
  <time>2026-08-28T17:56:49Z</time>
  <course>135.76</course>
  <speed>3.0976442662126327</speed>
  <fix>3d</fix>
</trkpt>
<trkpt lat="40.071528" lon="-105.229457">
  <ele>1583.0</ele>
  <time>2026-08-28T17:56:49Z</time>
  <course>134.56</course>
  <speed>3.13</speed>
  <fix>3d</fix>
</trkpt>
<trkpt lat="40.0715202" lon="-105.2294474">
  <ele>1583.17</ele>
  <time>2026-08-28T17:56:49Z</time>
  <course>135.87</course>
  <speed>3.07631272792608</speed>
  <fix>3d</fix>
</trkpt>
<trkpt lat="40.0715241" lon="-105.2294517">
  <ele>1583.0</ele>
  <time>2026-08-28T17:56:49Z</time>
  <course>134.93</course>
  <speed>3.08</speed>
  <fix>3d</fix>
</trkpt>
<trkpt lat="40.0715183" lon="-105.2294449">
  <ele>1583.18</ele>
  <time>2026-08-28T17:56:49Z</time>
  <course>135.96</course>
  <speed>3.048032152061392</speed>
  <fix>3d</fix>
</trkpt>
<trkpt lat="40.0715241" lon="-105.2294517">
  <ele>1583.0</ele>
  <time>2026-08-28T17:56:49Z</time>
  <course>134.93</course>
  <speed>3.08</speed>
  <fix>3d</fix>
</trkpt>
<trkpt lat="40.0715163" lon="-105.2294423">
  <ele>1583.18</ele>
  <time>2026-08-28T17:56:49Z</time>
  <course>136.02</course>
  <speed>3.033891889965758</speed>
  <fix>3d</fix>
</trkpt>
<trkpt lat="40.0715201" lon="-105.2294466">
  <ele>1583.0</ele>
  <time>2026-08-28T17:56:49Z</time>
  <course>135.15</course>
  <speed>3.05</speed>
  <fix>3d</fix>
</trkpt>
<trkpt lat="40.0715145" lon="-105.2294399">
  <ele>1583.18</ele>
  <time>2026-08-28T17:56:49Z</time>
  <course>136.07</course>
  <speed>3.012573650551966</speed>
  <fix>3d</fix>
</trkpt>
<trkpt lat="40.0715201" lon="-105.2294466">
  <ele>1583.0</ele>
  <time>2026-08-28T17:56:49Z</time>
  <course>135.15</course>
  <speed>3.05</speed>
  <fix>3d</fix>
</trkpt>
<trkpt lat="40.0715126" lon="-105.2294374">
  <ele>1583.18</ele>
  <time>2026-08-28T17:56:49Z</time>
  <course>136.11</course>
  <speed>2.9984329240454923</speed>
  <fix>3d</fix>
</trkpt>
<trkpt lat="40.0715163" lon="-105.2294417">
  <ele>1583.0</ele>
  <time>2026-08-28T17:56:49Z</time>
  <course>135.27</course>
  <speed>3.01</speed>
  <fix>3d</fix>
</trkpt>
<trkpt lat="40.0715107" lon="-105.229435">
  <ele>1583.18</ele>
  <time>2026-08-28T17:56:49Z</time>
  <course>136.63</course>
  <speed>2.977599704459953</speed>
  <fix>3d</fix>
</trkpt>
<trkpt lat="40.0715163" lon="-105.2294417">
  <ele>1583.0</ele>
  <time>2026-08-28T17:56:49Z</time>
  <course>135.27</course>
  <speed>3.01</speed>
  <fix>3d</fix>
</trkpt>
<trkpt lat="40.0715088" lon="-105.2294326">
  <ele>1583.18</ele>
  <time>2026-08-28T17:56:49Z</time>
  <course>138.33</course>
  <speed>2.91</speed>
  <fix>3d</fix>
</trkpt>
<trkpt lat="40.0715124" lon="-105.2294367">
  <ele>1583.0</ele>
  <time>2026-08-28T17:56:49Z</time>
  <course>136.02</course>
  <speed>2.99</speed>
  <fix>3d</fix>
</trkpt>
<trkpt lat="40.0715073" lon="-105.2294308">
  <ele>1583.18</ele>
  <time>2026-08-28T17:56:49Z</time>
  <course>138.71</course>
  <speed>2.832701890421934</speed>
  <fix>3d</fix>
</trkpt>
<trkpt lat="40.0715124" lon="-105.2294367">
  <ele>1583.0</ele>
  <time>2026-08-28T17:56:49Z</time>
  <course>136.02</course>
  <speed>2.99</speed>
  <fix>3d</fix>
</trkpt>
<trkpt lat="40.0715055" lon="-105.2294287">
  <ele>1583.18</ele>
  <time>2026-08-28T17:56:49Z</time>
  <course>138.71</course>
  <speed>2.712286857985342</speed>
  <fix>3d</fix>
</trkpt>
<trkpt lat="40.0715086" lon="-105.229432">
  <ele>1583.0</ele>
  <time>2026-08-28T17:56:49Z</time>
  <course>137.3</course>
  <speed>2.86</speed>
  <fix>3d</fix>
</trkpt>
<trkpt lat="40.0715038" lon="-105.2294266">
  <ele>1583.18</ele>
  <time>2026-08-28T17:56:49Z</time>
  <course>138.72</course>
  <speed>2.605993092853471</speed>
  <fix>3d</fix>
</trkpt>
<trkpt lat="40.0715086" lon="-105.229432">
  <ele>1583.0</ele>
  <time>2026-08-28T17:56:49Z</time>
  <course>137.3</course>
  <speed>2.86</speed>
  <fix>3d</fix>
</trkpt>
<trkpt lat="40.0715021" lon="-105.2294246">
  <ele>1583.18</ele>
  <time>2026-08-28T17:56:49Z</time>
  <course>138.73</course>
  <speed>2.5063918289046505</speed>
  <fix>3d</fix>
</trkpt>
<trkpt lat="40.0715049" lon="-105.2294277">
  <ele>1583.0</ele>
  <time>2026-08-28T17:56:49Z</time>
  <course>137.91</course>
  <speed>2.65</speed>
  <fix>3d</fix>
</trkpt>
<trkpt lat="40.0715005" lon="-105.2294226">
  <ele>1583.18</ele>
  <time>2026-08-28T17:56:49Z</time>
  <course>138.73</course>
  <speed>2.4142286552851617</speed>
  <fix>3d</fix>
</trkpt>
<trkpt lat="40.0715049" lon="-105.2294277">
  <ele>1583.0</ele>
  <time>2026-08-28T17:56:49Z</time>
  <course>137.91</course>
  <speed>2.65</speed>
  <fix>3d</fix>
</trkpt>
<trkpt lat="40.0714989" lon="-105.2294208">
  <ele>1583.17</ele>
  <time>2026-08-28T17:56:49Z</time>
  <course>138.73</course>
  <speed>2.336193485137736</speed>
  <fix>3d</fix>
</trkpt>
<trkpt lat="40.0715015" lon="-105.2294236">
  <ele>1583.0</ele>
  <time>2026-08-28T17:56:49Z</time>
  <course>137.91</course>
  <speed>2.46</speed>
  <fix>3d</fix>
</trkpt>
<trkpt lat="40.0714974" lon="-105.2294189">
  <ele>1583.17</ele>
  <time>2026-08-28T17:56:49Z</time>
  <course>138.74</course>
  <speed>2.258162970203878</speed>
  <fix>3d</fix>
</trkpt>
<trkpt lat="40.0715015" lon="-105.2294236">
  <ele>1583.0</ele>
  <time>2026-08-28T17:56:49Z</time>
  <course>137.91</course>
  <speed>2.46</speed>
  <fix>3d</fix>
</trkpt>
<trkpt lat="40.0714959" lon="-105.2294172">
  <ele>1583.17</ele>
  <time>2026-08-28T17:56:49Z</time>
  <course>138.74</course>
  <speed>2.1942652528807907</speed>
  <fix>3d</fix>
</trkpt>
<trkpt lat="40.0714983" lon="-105.2294198">
  <ele>1583.0</ele>
  <time>2026-08-28T17:56:49Z</time>
  <course>137.91</course>
  <speed>2.31</speed>
  <fix>3d</fix>
</trkpt>
<trkpt lat="40.0714945" lon="-105.2294154">
  <ele>1583.17</ele>
  <time>2026-08-28T17:56:49Z</time>
  <course>138.75</course>
  <speed>2.1236289694765422</speed>
  <fix>3d</fix>
</trkpt>
<trkpt lat="40.0714983" lon="-105.2294198">
  <ele>1583.0</ele>
  <time>2026-08-28T17:56:49Z</time>
  <course>137.91</course>
  <speed>2.31</speed>
  <fix>3d</fix>
</trkpt>
<trkpt lat="40.0714931" lon="-105.2294138">
  <ele>1583.17</ele>
  <time>2026-08-28T17:56:49Z</time>
  <course>138.75</course>
  <speed>2.0664946164943183</speed>
  <fix>3d</fix>
</trkpt>
<trkpt lat="40.0714953" lon="-105.2294163">
  <ele>1583.0</ele>
  <time>2026-08-28T17:56:49Z</time>
  <course>137.91</course>
  <speed>2.18</speed>
  <fix>3d</fix>
</trkpt>
<trkpt lat="40.0714915" lon="-105.2294118">
  <ele>1583.17</ele>
  <time>2026-08-28T17:56:49Z</time>
  <course>138.75</course>
  <speed>1.9958456854175877</speed>
  <fix>3d</fix>
</trkpt>
<trkpt lat="40.0714953" lon="-105.2294163">
  <ele>1583.0</ele>
  <time>2026-08-28T17:56:49Z</time>
  <course>137.91</course>
  <speed>2.18</speed>
  <fix>3d</fix>
</trkpt>
<trkpt lat="40.0714902" lon="-105.2294102">
  <ele>1583.17</ele>
  <time>2026-08-28T17:56:49Z</time>
  <course>138.75</course>
  <speed>1.9460986614249547</speed>
  <fix>3d</fix>
</trkpt>
<trkpt lat="40.0714925" lon="-105.2294129">
  <ele>1583.0</ele>
  <time>2026-08-28T17:56:49Z</time>
  <course>137.91</course>
  <speed>2.06</speed>
  <fix>3d</fix>
</trkpt>
<trkpt lat="40.0714889" lon="-105.2294087">
  <ele>1583.17</ele>
  <time>2026-08-28T17:56:49Z</time>
  <course>138.76</course>
  <speed>1.9037069102149102</speed>
  <fix>3d</fix>
</trkpt>
<trkpt lat="40.0714925" lon="-105.2294129">
  <ele>1583.0</ele>
  <time>2026-08-28T17:56:49Z</time>
  <course>137.91</course>
  <speed>2.06</speed>
  <fix>3d</fix>
</trkpt>
<trkpt lat="40.0714877" lon="-105.2294072">
  <ele>1583.18</ele>
  <time>2026-08-28T17:56:49Z</time>
  <course>138.76</course>
  <speed>1.8539687160251654</speed>
  <fix>3d</fix>
</trkpt>
<trkpt lat="40.0714898" lon="-105.2294098">
  <ele>1583.0</ele>
  <time>2026-08-28T17:56:49Z</time>
  <course>137.91</course>
  <speed>1.96</speed>
  <fix>3d</fix>
</trkpt>
<trkpt lat="40.0714865" lon="-105.2294057">
  <ele>1583.18</ele>
  <time>2026-08-28T17:56:49Z</time>
  <course>138.76</course>
  <speed>1.811573901335521</speed>
  <fix>3d</fix>
</trkpt>
<trkpt lat="40.0714898" lon="-105.2294098">
  <ele>1583.0</ele>
  <time>2026-08-28T17:56:49Z</time>
  <course>137.91</course>
  <speed>1.96</speed>
  <fix>3d</fix>
</trkpt>
<trkpt lat="40.0714853" lon="-105.2294043">
  <ele>1583.18</ele>
  <time>2026-08-28T17:56:49Z</time>
  <course>138.76</course>
  <speed>1.7691806012954132</speed>
  <fix>3d</fix>
</trkpt>
<trkpt lat="40.0714873" lon="-105.2294067">
  <ele>1583.0</ele>
  <time>2026-08-28T17:56:49Z</time>
  <course>137.91</course>
  <speed>1.87</speed>
  <fix>3d</fix>
</trkpt>
<trkpt lat="40.0714841" lon="-105.2294029">
  <ele>1583.18</ele>
  <time>2026-08-28T17:56:49Z</time>
  <course>138.76</course>
  <speed>1.7267889274604469</speed>
  <fix>3d</fix>
</trkpt>
<trkpt lat="40.0714873" lon="-105.2294067">
  <ele>1583.0</ele>
  <time>2026-08-28T17:56:49Z</time>
  <course>137.91</course>
  <speed>1.87</speed>
  <fix>3d</fix>
</trkpt>
<trkpt lat="40.071483" lon="-105.2294015">
  <ele>1583.17</ele>
  <time>2026-08-28T17:56:49Z</time>
  <course>138.77</course>
  <speed>1.6911830178901395</speed>
  <fix>3d</fix>
</trkpt>
<trkpt lat="40.0714848" lon="-105.2294039">
  <ele>1583.0</ele>
  <time>2026-08-28T17:56:49Z</time>
  <course>137.91</course>
  <speed>1.79</speed>
  <fix>3d</fix>
</trkpt>
<trkpt lat="40.0714818" lon="-105.2294002">
  <ele>1583.17</ele>
  <time>2026-08-28T17:56:49Z</time>
  <course>138.77</course>
  <speed>1.6555965692160635</speed>
  <fix>3d</fix>
</trkpt>
<trkpt lat="40.0714848" lon="-105.2294039">
  <ele>1583.0</ele>
  <time>2026-08-28T17:56:49Z</time>
  <course>137.91</course>
  <speed>1.79</speed>
  <fix>3d</fix>
</trkpt>
<trkpt lat="40.0714808" lon="-105.2293989">
  <ele>1583.17</ele>
  <time>2026-08-28T17:56:49Z</time>
  <course>138.77</course>
  <speed>1.620524606416083</speed>
  <fix>3d</fix>
</trkpt>
<trkpt lat="40.0714825" lon="-105.2294011">
  <ele>1583.0</ele>
  <time>2026-08-28T17:56:49Z</time>
  <course>137.91</course>
  <speed>1.72</speed>
  <fix>3d</fix>
</trkpt>
<trkpt lat="40.0714797" lon="-105.2293976">
  <ele>1583.17</ele>
  <time>2026-08-28T17:56:49Z</time>
  <course>138.77</course>
  <speed>1.584929020492716</speed>
  <fix>3d</fix>
</trkpt>
<trkpt lat="39.6561777" lon="-104.1394186">
  <ele>1566.59</ele>
  <time>2026-08-28T17:56:50Z</time>
  <course>66.0</course>
  <speed>0.71</speed>
  <fix>3d</fix>
</trkpt>
<trkpt lat="40.0713821" lon="-105.2297679">
  <ele>1583.0</ele>
  <time>2026-08-28T17:56:50Z</time>
  <course>66.0</course>
  <speed>0.72</speed>
  <fix>3d</fix>
</trkpt>
<trkpt lat="40.0713821" lon="-105.2297679">
  <ele>1583.0</ele>
  <time>2026-08-28T17:56:50Z</time>
  <course>236.31</course>
  <speed>0.09433981132056603</speed>
  <fix>3d</fix>
</trkpt>
<trkpt lat="40.0713821" lon="-105.2297679">
  <ele>1583.0</ele>
  <time>2026-08-28T17:56:50Z</time>
  <course>66.0</course>
  <speed>0.72</speed>
  <fix>3d</fix>
</trkpt>
<trkpt lat="40.0713821" lon="-105.2297679">
  <ele>1583.0</ele>
  <time>2026-08-28T17:56:50Z</time>
  <course>236.4</course>
  <speed>0.09433981132056603</speed>
  <fix>3d</fix>
</trkpt>
<trkpt lat="40.0713821" lon="-105.2297679">
  <ele>1583.0</ele>
  <time>2026-08-28T17:56:50Z</time>
  <course>66.0</course>
  <speed>0.72</speed>
  <fix>3d</fix>
</trkpt>
<trkpt lat="40.0713826" lon="-105.2297663">
  <ele>1583.0</ele>
  <time>2026-08-28T17:56:50Z</time>
  <course>236.61</course>
  <speed>0.09433981132056603</speed>
  <fix>3d</fix>
</trkpt>
<trkpt lat="40.0713826" lon="-105.2297663">
  <ele>1583.0</ele>
  <time>2026-08-28T17:56:50Z</time>
  <course>66.0</course>
  <speed>0.73</speed>
  <fix>3d</fix>
</trkpt>
<trkpt lat="40.0713826" lon="-105.2297663">
  <ele>1583.0</ele>
  <time>2026-08-28T17:56:50Z</time>
  <course>236.91</course>
  <speed>0.1</speed>
  <fix>3d</fix>
</trkpt>
<trkpt lat="40.0713826" lon="-105.2297663">
  <ele>1583.0</ele>
  <time>2026-08-28T17:56:50Z</time>
  <course>66.0</course>
  <speed>0.73</speed>
  <fix>3d</fix>
</trkpt>
<trkpt lat="40.0713832" lon="-105.2297648">
  <ele>1583.0</ele>
  <time>2026-08-28T17:56:50Z</time>
  <course>237.26</course>
  <speed>0.1</speed>
  <fix>3d</fix>
</trkpt>
<trkpt lat="40.0713832" lon="-105.2297648">
  <ele>1583.0</ele>
  <time>2026-08-28T17:56:50Z</time>
  <course>66.0</course>
  <speed>0.74</speed>
  <fix>3d</fix>
</trkpt>
<trkpt lat="40.0713832" lon="-105.2297648">
  <ele>1583.0</ele>
  <time>2026-08-28T17:56:50Z</time>
  <course>237.63</course>
  <speed>0.10816653826391968</speed>
  <fix>3d</fix>
</trkpt>
<trkpt lat="40.0713832" lon="-105.2297648">
  <ele>1583.0</ele>
  <time>2026-08-28T17:56:50Z</time>
  <course>66.0</course>
  <speed>0.74</speed>
  <fix>3d</fix>
</trkpt>
<trkpt lat="40.0713837" lon="-105.2297631">
  <ele>1583.0</ele>
  <time>2026-08-28T17:56:50Z</time>
  <course>238.0</course>
  <speed>0.10816653826391968</speed>
  <fix>3d</fix>
</trkpt>
<trkpt lat="40.0713837" lon="-105.2297631">
  <ele>1583.0</ele>
  <time>2026-08-28T17:56:50Z</time>
  <course>66.0</course>
  <speed>0.75</speed>
  <fix>3d</fix>
</trkpt>
<trkpt lat="40.0713837" lon="-105.2297631">
  <ele>1583.0</ele>
  <time>2026-08-28T17:56:50Z</time>
  <course>238.36</course>
  <speed>0.10816653826391968</speed>
  <fix>3d</fix>
</trkpt>
<trkpt lat="40.0713837" lon="-105.2297631">
  <ele>1583.0</ele>
  <time>2026-08-28T17:56:50Z</time>
  <course>66.0</course>
  <speed>0.75</speed>
  <fix>3d</fix>
</trkpt>
<trkpt lat="40.0713842" lon="-105.2297615">
  <ele>1583.0</ele>
  <time>2026-08-28T17:56:50Z</time>
  <course>238.7</course>
  <speed>0.1</speed>
  <fix>3d</fix>
</trkpt>
<trkpt lat="40.0713842" lon="-105.2297615">
  <ele>1583.0</ele>
  <time>2026-08-28T17:56:50Z</time>
  <course>66.0</course>
  <speed>0.76</speed>
  <fix>3d</fix>
</trkpt>
<trkpt lat="40.0713842" lon="-105.2297615">
  <ele>1583.0</ele>
  <time>2026-08-28T17:56:50Z</time>
  <course>239.04</course>
  <speed>0.1</speed>
  <fix>3d</fix>
</trkpt>
<trkpt lat="40.0713849" lon="-105.2297599">
  <ele>1583.0</ele>
  <time>2026-08-28T17:56:50Z</time>
  <course>66.0</course>
  <speed>0.76</speed>
  <fix>3d</fix>
</trkpt>
<trkpt lat="40.0713849" lon="-105.2297599">
  <ele>1583.0</ele>
  <time>2026-08-28T17:56:50Z</time>
  <course>239.36</course>
  <speed>0.1</speed>
  <fix>3d</fix>
</trkpt>
<trkpt lat="40.0713849" lon="-105.2297599">
  <ele>1583.0</ele>
  <time>2026-08-28T17:56:50Z</time>
  <course>66.0</course>
  <speed>0.76</speed>
  <fix>3d</fix>
</trkpt>
<trkpt lat="40.0713849" lon="-105.2297599">
  <ele>1583.0</ele>
  <time>2026-08-28T17:56:50Z</time>
  <course>239.68</course>
  <speed>0.1</speed>
  <fix>3d</fix>
</trkpt>
<trkpt lat="40.0713854" lon="-105.2297582">
  <ele>1583.0</ele>
  <time>2026-08-28T17:56:50Z</time>
  <course>66.0</course>
  <speed>0.77</speed>
  <fix>3d</fix>
</trkpt>
<trkpt lat="40.0713854" lon="-105.2297582">
  <ele>1583.0</ele>
  <time>2026-08-28T17:56:50Z</time>
  <course>240.0</course>
  <speed>0.08602325267042626</speed>
  <fix>3d</fix>
</trkpt>
<trkpt lat="40.0713854" lon="-105.2297582">
  <ele>1583.0</ele>
  <time>2026-08-28T17:56:50Z</time>
  <course>66.0</course>
  <speed>0.77</speed>
  <fix>3d</fix>
</trkpt>
<trkpt lat="40.0713854" lon="-105.2297582">
  <ele>1583.0</ele>
  <time>2026-08-28T17:56:50Z</time>
  <course>240.31</course>
  <speed>0.08602325267042626</speed>
  <fix>3d</fix>
</trkpt>
<trkpt lat="40.071386" lon="-105.2297566">
  <ele>1583.0</ele>
  <time>2026-08-28T17:56:50Z</time>
  <course>66.0</course>
  <speed>0.77</speed>
  <fix>3d</fix>
</trkpt>
<trkpt lat="40.071386" lon="-105.2297566">
  <ele>1583.0</ele>
  <time>2026-08-28T17:56:50Z</time>
  <course>240.61</course>
  <speed>0.07810249675906654</speed>
  <fix>3d</fix>
</trkpt>
<trkpt lat="40.071386" lon="-105.2297566">
  <ele>1583.0</ele>
  <time>2026-08-28T17:56:50Z</time>
  <course>66.0</course>
  <speed>0.77</speed>
  <fix>3d</fix>
</trkpt>
<trkpt lat="40.071386" lon="-105.2297566">
  <ele>1583.0</ele>
  <time>2026-08-28T17:56:50Z</time>
  <course>240.91</course>
  <speed>0.06403124237432849</speed>
  <fix>3d</fix>
</trkpt>
<trkpt lat="40.0713865" lon="-105.2297549">
  <ele>1583.0</ele>
  <time>2026-08-28T17:56:50Z</time>
  <course>66.0</course>
  <speed>0.77</speed>
  <fix>3d</fix>
</trkpt>
<trkpt lat="40.0713865" lon="-105.2297549">
  <ele>1583.0</ele>
  <time>2026-08-28T17:56:50Z</time>
  <course>241.21</course>
  <speed>0.06403124237432849</speed>
  <fix>3d</fix>
</trkpt>
<trkpt lat="40.0713865" lon="-105.2297549">
  <ele>1583.0</ele>
  <time>2026-08-28T17:56:50Z</time>
  <course>66.0</course>
  <speed>0.77</speed>
  <fix>3d</fix>
</trkpt>
<trkpt lat="40.0713865" lon="-105.2297549">
  <ele>1583.0</ele>
  <time>2026-08-28T17:56:50Z</time>
  <course>241.5</course>
  <speed>0.0565685424949238</speed>
  <fix>3d</fix>
</trkpt>
<trkpt lat="40.0713871" lon="-105.2297532">
  <ele>1583.0</ele>
  <time>2026-08-28T17:56:50Z</time>
  <course>66.0</course>
  <speed>0.78</speed>
  <fix>3d</fix>
</trkpt>
<trkpt lat="40.0713871" lon="-105.2297532">
  <ele>1583.0</ele>
  <time>2026-08-28T17:56:50Z</time>
  <course>241.79</course>
  <speed>0.05</speed>
  <fix>3d</fix>
</trkpt>
<trkpt lat="40.0713871" lon="-105.2297532">
  <ele>1583.0</ele>
  <time>2026-08-28T17:56:50Z</time>
  <course>66.0</course>
  <speed>0.78</speed>
  <fix>3d</fix>
</trkpt>
<trkpt lat="40.0713871" lon="-105.2297532">
  <ele>1583.0</ele>
  <time>2026-08-28T17:56:50Z</time>
  <course>242.06</course>
  <speed>0.04242640687119285</speed>
  <fix>3d</fix>
</trkpt>
<trkpt lat="40.0713877" lon="-105.2297515">
  <ele>1583.0</ele>
  <time>2026-08-28T17:56:50Z</time>
  <course>66.0</course>
  <speed>0.78</speed>
  <fix>3d</fix>
</trkpt>
<trkpt lat="40.0713877" lon="-105.2297515">
  <ele>1583.0</ele>
  <time>2026-08-28T17:56:50Z</time>
  <course>242.34</course>
  <speed>0.03605551275463989</speed>
  <fix>3d</fix>
</trkpt>
<trkpt lat="40.0713877" lon="-105.2297515">
  <ele>1583.0</ele>
  <time>2026-08-28T17:56:50Z</time>
  <course>66.0</course>
  <speed>0.78</speed>
  <fix>3d</fix>
</trkpt>
<trkpt lat="40.0713877" lon="-105.2297515">
  <ele>1583.0</ele>
  <time>2026-08-28T17:56:50Z</time>
  <course>242.6</course>
  <speed>0.0282842712474619</speed>
  <fix>3d</fix>
</trkpt>
<trkpt lat="40.0713882" lon="-105.2297499">
  <ele>1583.0</ele>
  <time>2026-08-28T17:56:50Z</time>
  <course>66.0</course>
  <speed>0.78</speed>
  <fix>3d</fix>
</trkpt>
<trkpt lat="40.0713882" lon="-105.2297499">
  <ele>1583.0</ele>
  <time>2026-08-28T17:56:50Z</time>
  <course>242.86</course>
  <speed>0.022360679774997897</speed>
  <fix>3d</fix>
</trkpt>
<trkpt lat="40.0713882" lon="-105.2297499">
  <ele>1583.0</ele>
  <time>2026-08-28T17:56:50Z</time>
  <course>66.0</course>
  <speed>0.78</speed>
  <fix>3d</fix>
</trkpt>
<trkpt lat="40.0713882" lon="-105.2297499">
  <ele>1583.0</ele>
  <time>2026-08-28T17:56:50Z</time>
  <course>243.12</course>
  <speed>0.02</speed>
  <fix>3d</fix>
</trkpt>
<trkpt lat="40.0713882" lon="-105.2297499">
  <ele>1583.0</ele>
  <time>2026-08-28T17:56:50Z</time>
  <course>66.0</course>
  <speed>0.78</speed>
  <fix>3d</fix>
</trkpt>
<trkpt lat="40.0713889" lon="-105.2297482">
  <ele>1583.0</ele>
  <time>2026-08-28T17:56:50Z</time>
  <course>243.37</course>
  <speed>0.01</speed>
  <fix>3d</fix>
</trkpt>
<trkpt lat="40.0713889" lon="-105.2297482">
  <ele>1583.0</ele>
  <time>2026-08-28T17:56:50Z</time>
  <course>66.0</course>
  <speed>0.79</speed>
  <fix>3d</fix>
</trkpt>
<trkpt lat="40.0713889" lon="-105.2297482">
  <ele>1583.0</ele>
  <time>2026-08-28T17:56:50Z</time>
  <course>243.61</course>
  <speed>0.01</speed>
  <fix>3d</fix>
</trkpt>
<trkpt lat="40.0713889" lon="-105.2297482">
  <ele>1583.0</ele>
  <time>2026-08-28T17:56:50Z</time>
  <course>66.0</course>
  <speed>0.79</speed>
  <fix>3d</fix>
</trkpt>
<trkpt lat="40.0713894" lon="-105.2297465">
  <ele>1583.0</ele>
  <time>2026-08-28T17:56:50Z</time>
  <course>243.85</course>
  <speed>0.01</speed>
  <fix>3d</fix>
</trkpt>
<trkpt lat="40.0713894" lon="-105.2297465">
  <ele>1583.0</ele>
  <time>2026-08-28T17:56:50Z</time>
  <course>66.0</course>
  <speed>0.79</speed>
  <fix>3d</fix>
</trkpt>
<trkpt lat="40.0713894" lon="-105.2297465">
  <ele>1583.0</ele>
  <time>2026-08-28T17:56:50Z</time>
  <course>244.08</course>
  <speed>0.01</speed>
  <fix>3d</fix>
</trkpt>
<trkpt lat="40.0713894" lon="-105.2297465">
  <ele>1583.0</ele>
  <time>2026-08-28T17:56:50Z</time>
  <course>66.0</course>
  <speed>0.79</speed>
  <fix>3d</fix>
</trkpt>
<trkpt lat="40.0713899" lon="-105.2297448">
  <ele>1583.0</ele>
  <time>2026-08-28T17:56:50Z</time>
  <course>244.3</course>
  <speed>0.01</speed>
  <fix>3d</fix>
</trkpt>
<trkpt lat="40.0713899" lon="-105.2297448">
  <ele>1583.0</ele>
  <time>2026-08-28T17:56:50Z</time>
  <course>66.0</course>
  <speed>0.79</speed>
  <fix>3d</fix>
</trkpt>
<trkpt lat="40.0713899" lon="-105.2297448">
  <ele>1583.0</ele>
  <time>2026-08-28T17:56:50Z</time>
  <course>244.52</course>
  <speed>0.02</speed>
  <fix>3d</fix>
</trkpt>
<trkpt lat="40.0713906" lon="-105.2297431">
  <ele>1583.0</ele>
  <time>2026-08-28T17:56:50Z</time>
  <course>66.0</course>
  <speed>0.79</speed>
  <fix>3d</fix>
</trkpt>
<trkpt lat="40.0713906" lon="-105.2297431">
  <ele>1583.0</ele>
  <time>2026-08-28T17:56:50Z</time>
  <course>244.73</course>
  <speed>0.03</speed>
  <fix>3d</fix>
</trkpt>
<trkpt lat="40.0713906" lon="-105.2297431">
  <ele>1583.0</ele>
  <time>2026-08-28T17:56:50Z</time>
  <course>66.0</course>
  <speed>0.79</speed>
  <fix>3d</fix>
</trkpt>
<trkpt lat="40.0713906" lon="-105.2297431">
  <ele>1583.0</ele>
  <time>2026-08-28T17:56:50Z</time>
  <course>244.94</course>
  <speed>0.03</speed>
  <fix>3d</fix>
</trkpt>
<trkpt lat="40.0713911" lon="-105.2297414">
  <ele>1583.0</ele>
  <time>2026-08-28T17:56:50Z</time>
  <course>66.0</course>
  <speed>0.79</speed>
  <fix>3d</fix>
</trkpt>
<trkpt lat="40.0713911" lon="-105.2297414">
  <ele>1583.0</ele>
  <time>2026-08-28T17:56:50Z</time>
  <course>245.14</course>
  <speed>0.04</speed>
  <fix>3d</fix>
</trkpt>
<trkpt lat="40.0713911" lon="-105.2297414">
  <ele>1583.0</ele>
  <time>2026-08-28T17:56:50Z</time>
  <course>66.0</course>
  <speed>0.79</speed>
  <fix>3d</fix>
</trkpt>
<trkpt lat="40.0713911" lon="-105.2297414">
  <ele>1583.0</ele>
  <time>2026-08-28T17:56:50Z</time>
  <course>245.34</course>
  <speed>0.0412310562561766</speed>
  <fix>3d</fix>
</trkpt>
<trkpt lat="40.0713918" lon="-105.2297396">
  <ele>1583.0</ele>
  <time>2026-08-28T17:56:50Z</time>
  <course>66.0</course>
  <speed>0.79</speed>
  <fix>3d</fix>
</trkpt>
<trkpt lat="40.0713918" lon="-105.2297396">
  <ele>1583.0</ele>
  <time>2026-08-28T17:56:50Z</time>
  <course>245.52</course>
  <speed>0.05099019513592785</speed>
  <fix>3d</fix>
</trkpt>
<trkpt lat="40.0713918" lon="-105.2297396">
  <ele>1583.0</ele>
  <time>2026-08-28T17:56:50Z</time>
  <course>66.0</course>
  <speed>0.79</speed>
  <fix>3d</fix>
</trkpt>
<trkpt lat="40.0713918" lon="-105.2297396">
  <ele>1583.0</ele>
  <time>2026-08-28T17:56:50Z</time>
  <course>245.71</course>
  <speed>0.05099019513592785</speed>
  <fix>3d</fix>
</trkpt>
<trkpt lat="40.0713923" lon="-105.2297379">
  <ele>1583.0</ele>
  <time>2026-08-28T17:56:50Z</time>
  <course>66.0</course>
  <speed>0.79</speed>
  <fix>3d</fix>
</trkpt>
<trkpt lat="40.0713923" lon="-105.2297379">
  <ele>1583.0</ele>
  <time>2026-08-28T17:56:50Z</time>
  <course>245.88</course>
  <speed>0.05099019513592785</speed>
  <fix>3d</fix>
</trkpt>
<trkpt lat="40.0713923" lon="-105.2297379">
  <ele>1583.0</ele>
  <time>2026-08-28T17:56:50Z</time>
  <course>66.0</course>
  <speed>0.79</speed>
  <fix>3d</fix>
</trkpt>
<trkpt lat="40.0713923" lon="-105.2297379">
  <ele>1583.0</ele>
  <time>2026-08-28T17:56:50Z</time>
  <course>246.06</course>
  <speed>0.0632455532033676</speed>
  <fix>3d</fix>
</trkpt>
<trkpt lat="40.0713928" lon="-105.2297362">
  <ele>1583.0</ele>
  <time>2026-08-28T17:56:50Z</time>
  <course>66.0</course>
  <speed>0.79</speed>
  <fix>3d</fix>
</trkpt>
<trkpt lat="40.0713928" lon="-105.2297362">
  <ele>1583.0</ele>
  <time>2026-08-28T17:56:50Z</time>
  <course>246.22</course>
  <speed>0.0632455532033676</speed>
  <fix>3d</fix>
</trkpt>
<trkpt lat="40.0713928" lon="-105.2297362">
  <ele>1583.0</ele>
  <time>2026-08-28T17:56:50Z</time>
  <course>66.0</course>
  <speed>0.79</speed>
  <fix>3d</fix>
</trkpt>
<trkpt lat="40.0713928" lon="-105.2297362">
  <ele>1583.0</ele>
  <time>2026-08-28T17:56:50Z</time>
  <course>246.38</course>
  <speed>0.07280109889280519</speed>
  <fix>3d</fix>
</trkpt>
<trkpt lat="40.0713935" lon="-105.2297345">
  <ele>1583.0</ele>
  <time>2026-08-28T17:56:50Z</time>
  <course>66.0</course>
  <speed>0.79</speed>
  <fix>3d</fix>
</trkpt>
<trkpt lat="40.0713935" lon="-105.2297345">
  <ele>1583.0</ele>
  <time>2026-08-28T17:56:50Z</time>
  <course>246.54</course>
  <speed>0.07280109889280519</speed>
  <fix>3d</fix>
</trkpt>
<trkpt lat="40.0713935" lon="-105.2297345">
  <ele>1583.0</ele>
  <time>2026-08-28T17:56:50Z</time>
  <course>66.0</course>
  <speed>0.79</speed>
  <fix>3d</fix>
</trkpt>
<trkpt lat="40.0713935" lon="-105.2297345">
  <ele>1583.0</ele>
  <time>2026-08-28T17:56:50Z</time>
  <course>246.69</course>
  <speed>0.07615773105863909</speed>
  <fix>3d</fix>
</trkpt>
<trkpt lat="40.071394" lon="-105.2297328">
  <ele>1583.0</ele>
  <time>2026-08-28T17:56:50Z</time>
  <course>66.0</course>
  <speed>0.79</speed>
  <fix>3d</fix>
</trkpt>
<trkpt lat="40.071394" lon="-105.2297328">
  <ele>1583.0</ele>
  <time>2026-08-28T17:56:50Z</time>
  <course>246.83</course>
  <speed>0.0854400374531753</speed>
  <fix>3d</fix>
</trkpt>
<trkpt lat="40.071394" lon="-105.2297328">
  <ele>1583.0</ele>
  <time>2026-08-28T17:56:50Z</time>
  <course>66.0</course>
  <speed>0.79</speed>
  <fix>3d</fix>
</trkpt>
<trkpt lat="40.071394" lon="-105.2297328">
  <ele>1583.0</ele>
  <time>2026-08-28T17:56:50Z</time>
  <course>246.97</course>
  <speed>0.0854400374531753</speed>
  <fix>3d</fix>
</trkpt>
<trkpt lat="40.071394" lon="-105.2297328">
  <ele>1583.0</ele>
  <time>2026-08-28T17:56:50Z</time>
  <course>66.0</course>
  <speed>0.79</speed>
  <fix>3d</fix>
</trkpt>
<trkpt lat="40.0713947" lon="-105.2297311">
  <ele>1583.0</ele>
  <time>2026-08-28T17:56:50Z</time>
  <course>247.11</course>
  <speed>0.09486832980505139</speed>
  <fix>3d</fix>
</trkpt>
<trkpt lat="40.0713947" lon="-105.2297311">
  <ele>1583.0</ele>
  <time>2026-08-28T17:56:50Z</time>
  <course>66.0</course>
  <speed>0.79</speed>
  <fix>3d</fix>
</trkpt>
<trkpt lat="40.0713947" lon="-105.2297311">
  <ele>1583.0</ele>
  <time>2026-08-28T17:56:50Z</time>
  <course>247.24</course>
  <speed>0.09486832980505139</speed>
  <fix>3d</fix>
</trkpt>
<trkpt lat="40.0713947" lon="-105.2297311">
  <ele>1583.0</ele>
  <time>2026-08-28T17:56:50Z</time>
  <course>66.0</course>
  <speed>0.79</speed>
  <fix>3d</fix>
</trkpt>
<trkpt lat="40.0713952" lon="-105.2297294">
  <ele>1583.0</ele>
  <time>2026-08-28T17:56:50Z</time>
  <course>247.37</course>
  <speed>0.09848857801796104</speed>
  <fix>3d</fix>
</trkpt>
<trkpt lat="40.0713952" lon="-105.2297294">
  <ele>1583.0</ele>
  <time>2026-08-28T17:56:50Z</time>
  <course>66.0</course>
  <speed>0.79</speed>
  <fix>3d</fix>
</trkpt>
<trkpt lat="40.0713952" lon="-105.2297294">
  <ele>1583.0</ele>
  <time>2026-08-28T17:56:50Z</time>
  <course>247.49</course>
  <speed>0.10770329614269007</speed>
  <fix>3d</fix>
</trkpt>
<trkpt lat="40.0713952" lon="-105.2297294">
  <ele>1583.0</ele>
  <time>2026-08-28T17:56:50Z</time>
  <course>66.0</course>
  <speed>0.79</speed>
  <fix>3d</fix>
</trkpt>
<trkpt lat="40.0713958" lon="-105.2297277">
  <ele>1583.0</ele>
  <time>2026-08-28T17:56:50Z</time>
  <course>247.6</course>
  <speed>0.10770329614269007</speed>
  <fix>3d</fix>
</trkpt>
<trkpt lat="40.0713958" lon="-105.2297277">
  <ele>1583.0</ele>
  <time>2026-08-28T17:56:50Z</time>
  <course>66.0</course>
  <speed>0.8</speed>
  <fix>3d</fix>
</trkpt>
<trkpt lat="40.0713958" lon="-105.2297277">
  <ele>1583.0</ele>
  <time>2026-08-28T17:56:50Z</time>
  <course>247.72</course>
  <speed>0.10770329614269007</speed>
  <fix>3d</fix>
</trkpt>
<trkpt lat="40.0713958" lon="-105.2297277">
  <ele>1583.0</ele>
  <time>2026-08-28T17:56:50Z</time>
  <course>66.0</course>
  <speed>0.8</speed>
  <fix>3d</fix>
</trkpt>
<trkpt lat="40.0713964" lon="-105.2297259">
  <ele>1583.0</ele>
  <time>2026-08-28T17:56:50Z</time>
  <course>247.83</course>
  <speed>0.10770329614269007</speed>
  <fix>3d</fix>
</trkpt>
<trkpt lat="40.0713964" lon="-105.2297259">
  <ele>1583.0</ele>
  <time>2026-08-28T17:56:50Z</time>
  <course>66.0</course>
  <speed>0.8</speed>
  <fix>3d</fix>
</trkpt>
<trkpt lat="40.0713964" lon="-105.2297259">
  <ele>1583.0</ele>
  <time>2026-08-28T17:56:50Z</time>
  <course>247.93</course>
  <speed>0.12083045973594572</speed>
  <fix>3d</fix>
</trkpt>
<trkpt lat="40.071397" lon="-105.2297242">
  <ele>1583.0</ele>
  <time>2026-08-28T17:56:50Z</time>
  <course>66.0</course>
  <speed>0.8</speed>
  <fix>3d</fix>
</trkpt>
<trkpt lat="40.071397" lon="-105.2297242">
  <ele>1583.0</ele>
  <time>2026-08-28T17:56:50Z</time>
  <course>248.03</course>
  <speed>0.12083045973594572</speed>
  <fix>3d</fix>
</trkpt>
<trkpt lat="40.071397" lon="-105.2297242">
  <ele>1583.0</ele>
  <time>2026-08-28T17:56:50Z</time>
  <course>66.0</course>
  <speed>0.8</speed>
  <fix>3d</fix>
</trkpt>
<trkpt lat="40.071397" lon="-105.2297242">
  <ele>1583.0</ele>
  <time>2026-08-28T17:56:50Z</time>
  <course>248.13</course>
  <speed>0.12083045973594572</speed>
  <fix>3d</fix>
</trkpt>
<trkpt lat="40.0713976" lon="-105.2297225">
  <ele>1583.0</ele>
  <time>2026-08-28T17:56:50Z</time>
  <course>65.99</course>
  <speed>0.8</speed>
  <fix>3d</fix>
</trkpt>
<trkpt lat="40.0713976" lon="-105.2297225">
  <ele>1583.0</ele>
  <time>2026-08-28T17:56:50Z</time>
  <course>248.22</course>
  <speed>0.13</speed>
  <fix>3d</fix>
</trkpt>
<trkpt lat="40.0713976" lon="-105.2297225">
  <ele>1583.0</ele>
  <time>2026-08-28T17:56:50Z</time>
  <course>65.99</course>
  <speed>0.8</speed>
  <fix>3d</fix>
</trkpt>
<trkpt lat="40.0713976" lon="-105.2297225">
  <ele>1583.0</ele>
  <time>2026-08-28T17:56:50Z</time>
  <course>248.32</course>
  <speed>0.13</speed>
  <fix>3d</fix>
</trkpt>
<trkpt lat="40.0713982" lon="-105.2297208">
  <ele>1583.0</ele>
  <time>2026-08-28T17:56:50Z</time>
  <course>65.99</course>
  <speed>0.8</speed>
  <fix>3d</fix>
</trkpt>
<trkpt lat="40.0713982" lon="-105.2297208">
  <ele>1583.0</ele>
  <time>2026-08-28T17:56:50Z</time>
  <course>248.4</course>
  <speed>0.13</speed>
  <fix>3d</fix>
</trkpt>
<trkpt lat="40.0713982" lon="-105.2297208">
  <ele>1583.0</ele>
  <time>2026-08-28T17:56:50Z</time>
  <course>65.99</course>
  <speed>0.8</speed>
  <fix>3d</fix>
</trkpt>
<trkpt lat="40.0713982" lon="-105.2297208">
  <ele>1583.0</ele>
  <time>2026-08-28T17:56:50Z</time>
  <course>248.49</course>
  <speed>0.13</speed>
  <fix>3d</fix>
</trkpt>
<trkpt lat="40.0713988" lon="-105.2297191">
  <ele>1583.0</ele>
  <time>2026-08-28T17:56:50Z</time>
  <course>66.0</course>
  <speed>0.8</speed>
  <fix>3d</fix>
</trkpt>
<trkpt lat="40.0713988" lon="-105.2297191">
  <ele>1583.0</ele>
  <time>2026-08-28T17:56:50Z</time>
  <course>248.57</course>
  <speed>0.14317821063276354</speed>
  <fix>3d</fix>
</trkpt>
<trkpt lat="40.0713988" lon="-105.2297191">
  <ele>1583.0</ele>
  <time>2026-08-28T17:56:50Z</time>
  <course>66.0</course>
  <speed>0.8</speed>
  <fix>3d</fix>
</trkpt>
<trkpt lat="40.0713988" lon="-105.2297191">
  <ele>1583.0</ele>
  <time>2026-08-28T17:56:50Z</time>
  <course>248.64</course>
  <speed>0.14317821063276354</speed>
  <fix>3d</fix>
</trkpt>
<trkpt lat="40.0713994" lon="-105.2297174">
  <ele>1583.0</ele>
  <time>2026-08-28T17:56:50Z</time>
  <course>66.0</course>
  <speed>0.8</speed>
  <fix>3d</fix>
</trkpt>
<trkpt lat="40.0713994" lon="-105.2297174">
  <ele>1583.0</ele>
  <time>2026-08-28T17:56:50Z</time>
  <course>248.72</course>
  <speed>0.14317821063276354</speed>
  <fix>3d</fix>
</trkpt>
<trkpt lat="40.0713994" lon="-105.2297174">
  <ele>1583.0</ele>
  <time>2026-08-28T17:56:50Z</time>
  <course>66.0</course>
  <speed>0.8</speed>
  <fix>3d</fix>
</trkpt>
<trkpt lat="40.0713994" lon="-105.2297174">
  <ele>1583.0</ele>
  <time>2026-08-28T17:56:50Z</time>
  <course>248.79</course>
  <speed>0.14317821063276354</speed>
  <fix>3d</fix>
</trkpt>
<trkpt lat="40.0713999" lon="-105.2297156">
  <ele>1583.0</ele>
  <time>2026-08-28T17:56:50Z</time>
  <course>66.0</course>
  <speed>0.8</speed>
  <fix>3d</fix>
</trkpt>
<trkpt lat="40.0713999" lon="-105.2297156">
  <ele>1583.0</ele>
  <time>2026-08-28T17:56:50Z</time>
  <course>248.86</course>
  <speed>0.14317821063276354</speed>
  <fix>3d</fix>
</trkpt>
<trkpt lat="40.0713999" lon="-105.2297156">
  <ele>1583.0</ele>
  <time>2026-08-28T17:56:50Z</time>
  <course>66.0</course>
  <speed>0.8</speed>
  <fix>3d</fix>
</trkpt>
<trkpt lat="40.0713999" lon="-105.2297156">
  <ele>1583.0</ele>
  <time>2026-08-28T17:56:50Z</time>
  <course>248.92</course>
  <speed>0.14317821063276354</speed>
  <fix>3d</fix>
</trkpt>
<trkpt lat="40.0713999" lon="-105.2297156">
  <ele>1583.0</ele>
  <time>2026-08-28T17:56:50Z</time>
  <course>66.0</course>
  <speed>0.8</speed>
  <fix>3d</fix>
</trkpt>
<trkpt lat="40.0714004" lon="-105.2297139">
  <ele>1583.0</ele>
  <time>2026-08-28T17:56:50Z</time>
  <course>248.98</course>
  <speed>0.15231546211727817</speed>
  <fix>3d</fix>
</trkpt>
<trkpt lat="40.0714004" lon="-105.2297139">
  <ele>1583.0</ele>
  <time>2026-08-28T17:56:50Z</time>
  <course>65.99</course>
  <speed>0.8</speed>
  <fix>3d</fix>
</trkpt>
<trkpt lat="40.0714004" lon="-105.2297139">
  <ele>1583.0</ele>
  <time>2026-08-28T17:56:50Z</time>
  <course>249.05</course>
  <speed>0.15231546211727817</speed>
  <fix>3d</fix>
</trkpt>
<trkpt lat="40.0714004" lon="-105.2297139">
  <ele>1583.0</ele>
  <time>2026-08-28T17:56:50Z</time>
  <course>65.99</course>
  <speed>0.8</speed>
  <fix>3d</fix>
</trkpt>
<trkpt lat="40.0714011" lon="-105.2297122">
  <ele>1583.0</ele>
  <time>2026-08-28T17:56:50Z</time>
  <course>249.1</course>
  <speed>0.15231546211727817</speed>
  <fix>3d</fix>
</trkpt>
<trkpt lat="40.0714011" lon="-105.2297122">
  <ele>1583.0</ele>
  <time>2026-08-28T17:56:50Z</time>
  <course>65.99</course>
  <speed>0.8</speed>
  <fix>3d</fix>
</trkpt>
<trkpt lat="40.0714011" lon="-105.2297122">
  <ele>1583.0</ele>
  <time>2026-08-28T17:56:50Z</time>
  <course>249.16</course>
  <speed>0.15652475842498528</speed>
  <fix>3d</fix>
</trkpt>
<trkpt lat="40.0714011" lon="-105.2297122">
  <ele>1583.0</ele>
  <time>2026-08-28T17:56:50Z</time>
  <course>65.99</course>
  <speed>0.8</speed>
  <fix>3d</fix>
</trkpt>
<trkpt lat="40.0714016" lon="-105.2297105">
  <ele>1583.0</ele>
  <time>2026-08-28T17:56:50Z</time>
  <course>249.21</course>
  <speed>0.15652475842498528</speed>
  <fix>3d</fix>
</trkpt>
<trkpt lat="40.0714016" lon="-105.2297105">
  <ele>1583.0</ele>
  <time>2026-08-28T17:56:50Z</time>
  <course>65.99</course>
  <speed>0.8</speed>
  <fix>3d</fix>
</trkpt>
<trkpt lat="40.0714016" lon="-105.2297105">
  <ele>1583.0</ele>
  <time>2026-08-28T17:56:50Z</time>
  <course>249.26</course>
  <speed>0.15652475842498528</speed>
  <fix>3d</fix>
</trkpt>
<trkpt lat="40.0714016" lon="-105.2297105">
  <ele>1583.0</ele>
  <time>2026-08-28T17:56:50Z</time>
  <course>65.99</course>
  <speed>0.8</speed>
  <fix>3d</fix>
</trkpt>
<trkpt lat="40.0714023" lon="-105.2297088">
  <ele>1583.0</ele>
  <time>2026-08-28T17:56:50Z</time>
  <course>249.31</course>
  <speed>0.16552945357246848</speed>
  <fix>3d</fix>
</trkpt>
<trkpt lat="40.0714023" lon="-105.2297088">
  <ele>1583.0</ele>
  <time>2026-08-28T17:56:50Z</time>
  <course>65.99</course>
  <speed>0.8</speed>
  <fix>3d</fix>
</trkpt>
<trkpt lat="40.0714023" lon="-105.2297088">
  <ele>1583.0</ele>
  <time>2026-08-28T17:56:50Z</time>
  <course>249.36</course>
  <speed>0.16552945357246848</speed>
  <fix>3d</fix>
</trkpt>
<trkpt lat="40.0714028" lon="-105.229707">
  <ele>1583.0</ele>
  <time>2026-08-28T17:56:50Z</time>
  <course>65.99</course>
  <speed>0.8</speed>
  <fix>3d</fix>
</trkpt>
<trkpt lat="40.0714028" lon="-105.229707">
  <ele>1583.0</ele>
  <time>2026-08-28T17:56:50Z</time>
  <course>249.4</course>
  <speed>0.16552945357246848</speed>
  <fix>3d</fix>
</trkpt>
<trkpt lat="40.0714028" lon="-105.229707">
  <ele>1583.0</ele>
  <time>2026-08-28T17:56:50Z</time>
  <course>65.99</course>
  <speed>0.8</speed>
  <fix>3d</fix>
</trkpt>
<trkpt lat="40.0714028" lon="-105.229707">
  <ele>1583.0</ele>
  <time>2026-08-28T17:56:50Z</time>
  <course>249.45</course>
  <speed>0.16552945357246848</speed>
  <fix>3d</fix>
</trkpt>
<trkpt lat="40.0714035" lon="-105.2297053">
  <ele>1583.0</ele>
  <time>2026-08-28T17:56:50Z</time>
  <course>65.99</course>
  <speed>0.8</speed>
  <fix>3d</fix>
</trkpt>
<trkpt lat="40.0714035" lon="-105.2297053">
  <ele>1583.0</ele>
  <time>2026-08-28T17:56:50Z</time>
  <course>249.49</course>
  <speed>0.16552945357246848</speed>
  <fix>3d</fix>
</trkpt>
<trkpt lat="40.0714035" lon="-105.2297053">
  <ele>1583.0</ele>
  <time>2026-08-28T17:56:50Z</time>
  <course>65.99</course>
  <speed>0.8</speed>
  <fix>3d</fix>
</trkpt>
<trkpt lat="40.0714035" lon="-105.2297053">
  <ele>1583.0</ele>
  <time>2026-08-28T17:56:50Z</time>
  <course>249.52</course>
  <speed>0.16552945357246848</speed>
  <fix>3d</fix>
</trkpt>
<trkpt lat="40.071404" lon="-105.2297036">
  <ele>1583.0</ele>
  <time>2026-08-28T17:56:50Z</time>
  <course>65.99</course>
  <speed>0.8</speed>
  <fix>3d</fix>
</trkpt>
<trkpt lat="40.071404" lon="-105.2297036">
  <ele>1583.0</ele>
  <time>2026-08-28T17:56:50Z</time>
  <course>249.56</course>
  <speed>0.16552945357246848</speed>
  <fix>3d</fix>
</trkpt>
<trkpt lat="40.071404" lon="-105.2297036">
  <ele>1583.0</ele>
  <time>2026-08-28T17:56:50Z</time>
  <course>65.99</course>
  <speed>0.8</speed>
  <fix>3d</fix>
</trkpt>
<trkpt lat="40.071404" lon="-105.2297036">
  <ele>1583.0</ele>
  <time>2026-08-28T17:56:50Z</time>
  <course>249.6</course>
  <speed>0.16552945357246848</speed>
  <fix>3d</fix>
</trkpt>
<trkpt lat="40.0714045" lon="-105.2297019">
  <ele>1583.0</ele>
  <time>2026-08-28T17:56:50Z</time>
  <course>65.99</course>
  <speed>0.8</speed>
  <fix>3d</fix>
</trkpt>
<trkpt lat="40.0714045" lon="-105.2297019">
  <ele>1583.0</ele>
  <time>2026-08-28T17:56:50Z</time>
  <course>249.63</course>
  <speed>0.17464249196572978</speed>
  <fix>3d</fix>
</trkpt>
<trkpt lat="40.0714045" lon="-105.2297019">
  <ele>1583.0</ele>
  <time>2026-08-28T17:56:50Z</time>
  <course>65.99</course>
  <speed>0.8</speed>
  <fix>3d</fix>
</trkpt>
<trkpt lat="40.0714045" lon="-105.2297019">
  <ele>1583.0</ele>
  <time>2026-08-28T17:56:50Z</time>
  <course>249.66</course>
  <speed>0.17464249196572978</speed>
  <fix>3d</fix>
</trkpt>
<trkpt lat="40.0714052" lon="-105.2297002">
  <ele>1583.0</ele>
  <time>2026-08-28T17:56:50Z</time>
  <course>65.99</course>
  <speed>0.8</speed>
  <fix>3d</fix>
</trkpt>
<trkpt lat="40.0714052" lon="-105.2297002">
  <ele>1583.0</ele>
  <time>2026-08-28T17:56:50Z</time>
  <course>249.69</course>
  <speed>0.17464249196572978</speed>
  <fix>3d</fix>
</trkpt>
<trkpt lat="40.0714052" lon="-105.2297002">
  <ele>1583.0</ele>
  <time>2026-08-28T17:56:50Z</time>
  <course>65.99</course>
  <speed>0.8</speed>
  <fix>3d</fix>
</trkpt>
<trkpt lat="40.0714052" lon="-105.2297002">
  <ele>1583.0</ele>
  <time>2026-08-28T17:56:50Z</time>
  <course>249.72</course>
  <speed>0.17888543819998318</speed>
  <fix>3d</fix>
</trkpt>
<trkpt lat="40.0714057" lon="-105.2296984">
  <ele>1583.0</ele>
  <time>2026-08-28T17:56:50Z</time>
  <course>65.99</course>
  <speed>0.8</speed>
  <fix>3d</fix>
</trkpt>
<trkpt lat="40.0714057" lon="-105.2296984">
  <ele>1583.0</ele>
  <time>2026-08-28T17:56:50Z</time>
  <course>249.75</course>
  <speed>0.17888543819998318</speed>
  <fix>3d</fix>
</trkpt>
<trkpt lat="40.0714057" lon="-105.2296984">
  <ele>1583.0</ele>
  <time>2026-08-28T17:56:50Z</time>
  <course>65.99</course>
  <speed>0.8</speed>
  <fix>3d</fix>
</trkpt>
<trkpt lat="40.0714057" lon="-105.2296984">
  <ele>1583.0</ele>
  <time>2026-08-28T17:56:50Z</time>
  <course>249.78</course>
  <speed>0.17888543819998318</speed>
  <fix>3d</fix>
</trkpt>
<trkpt lat="40.0714064" lon="-105.2296967">
  <ele>1583.0</ele>
  <time>2026-08-28T17:56:50Z</time>
  <course>65.99</course>
  <speed>0.8</speed>
  <fix>3d</fix>
</trkpt>
<trkpt lat="40.0714064" lon="-105.2296967">
  <ele>1583.0</ele>
  <time>2026-08-28T17:56:50Z</time>
  <course>249.8</course>
  <speed>0.17888543819998318</speed>
  <fix>3d</fix>
</trkpt>
<trkpt lat="40.0714064" lon="-105.2296967">
  <ele>1583.0</ele>
  <time>2026-08-28T17:56:50Z</time>
  <course>65.99</course>
  <speed>0.8</speed>
  <fix>3d</fix>
</trkpt>
<trkpt lat="40.0714064" lon="-105.2296967">
  <ele>1583.0</ele>
  <time>2026-08-28T17:56:50Z</time>
  <course>249.82</course>
  <speed>0.17888543819998318</speed>
  <fix>3d</fix>
</trkpt>
<trkpt lat="40.0714064" lon="-105.2296967">
  <ele>1583.0</ele>
  <time>2026-08-28T17:56:50Z</time>
  <course>65.99</course>
  <speed>0.8</speed>
  <fix>3d</fix>
</trkpt>
<trkpt lat="40.0714069" lon="-105.229695">
  <ele>1583.0</ele>
  <time>2026-08-28T17:56:50Z</time>
  <course>249.85</course>
  <speed>0.17888543819998318</speed>
  <fix>3d</fix>
</trkpt>
<trkpt lat="40.0714069" lon="-105.229695">
  <ele>1583.0</ele>
  <time>2026-08-28T17:56:50Z</time>
  <course>65.99</course>
  <speed>0.8</speed>
  <fix>3d</fix>
</trkpt>
<trkpt lat="40.0714069" lon="-105.229695">
  <ele>1583.0</ele>
  <time>2026-08-28T17:56:50Z</time>
  <course>249.87</course>
  <speed>0.17888543819998318</speed>
  <fix>3d</fix>
</trkpt>
<trkpt lat="40.0714069" lon="-105.229695">
  <ele>1583.0</ele>
  <time>2026-08-28T17:56:50Z</time>
  <course>65.99</course>
  <speed>0.8</speed>
  <fix>3d</fix>
</trkpt>
<trkpt lat="40.0714076" lon="-105.2296933">
  <ele>1583.0</ele>
  <time>2026-08-28T17:56:50Z</time>
  <course>249.89</course>
  <speed>0.17888543819998318</speed>
  <fix>3d</fix>
</trkpt>
<trkpt lat="40.0714076" lon="-105.2296933">
  <ele>1583.0</ele>
  <time>2026-08-28T17:56:50Z</time>
  <course>65.99</course>
  <speed>0.8</speed>
  <fix>3d</fix>
</trkpt>
<trkpt lat="40.0714076" lon="-105.2296933">
  <ele>1583.0</ele>
  <time>2026-08-28T17:56:50Z</time>
  <course>249.91</course>
  <speed>0.17888543819998318</speed>
  <fix>3d</fix>
</trkpt>
<trkpt lat="40.0714076" lon="-105.2296933">
  <ele>1583.0</ele>
  <time>2026-08-28T17:56:50Z</time>
  <course>65.99</course>
  <speed>0.8</speed>
  <fix>3d</fix>
</trkpt>
<trkpt lat="40.0714081" lon="-105.2296916">
  <ele>1583.0</ele>
  <time>2026-08-28T17:56:50Z</time>
  <course>249.93</course>
  <speed>0.18788294228055935</speed>
  <fix>3d</fix>
</trkpt>
<trkpt lat="40.0714081" lon="-105.2296916">
  <ele>1583.0</ele>
  <time>2026-08-28T17:56:50Z</time>
  <course>65.99</course>
  <speed>0.8</speed>
  <fix>3d</fix>
</trkpt>
<trkpt lat="40.0714081" lon="-105.2296916">
  <ele>1583.0</ele>
  <time>2026-08-28T17:56:50Z</time>
  <course>249.94</course>
  <speed>0.18788294228055935</speed>
  <fix>3d</fix>
</trkpt>
<trkpt lat="40.0714086" lon="-105.2296898">
  <ele>1583.0</ele>
  <time>2026-08-28T17:56:50Z</time>
  <course>65.99</course>
  <speed>0.8</speed>
  <fix>3d</fix>
</trkpt>
<trkpt lat="40.0714086" lon="-105.2296898">
  <ele>1583.0</ele>
  <time>2026-08-28T17:56:50Z</time>
  <course>249.96</course>
  <speed>0.18788294228055935</speed>
  <fix>3d</fix>
</trkpt>
<trkpt lat="40.0714086" lon="-105.2296898">
  <ele>1583.0</ele>
  <time>2026-08-28T17:56:50Z</time>
  <course>65.99</course>
  <speed>0.8</speed>
  <fix>3d</fix>
</trkpt>
<trkpt lat="40.0714086" lon="-105.2296898">
  <ele>1583.0</ele>
  <time>2026-08-28T17:56:50Z</time>
  <course>249.97</course>
  <speed>0.18788294228055935</speed>
  <fix>3d</fix>
</trkpt>
<trkpt lat="40.0714093" lon="-105.2296881">
  <ele>1583.0</ele>
  <time>2026-08-28T17:56:50Z</time>
  <course>65.99</course>
  <speed>0.8</speed>
  <fix>3d</fix>
</trkpt>
<trkpt lat="40.0714093" lon="-105.2296881">
  <ele>1583.0</ele>
  <time>2026-08-28T17:56:50Z</time>
  <course>249.99</course>
  <speed>0.18788294228055935</speed>
  <fix>3d</fix>
</trkpt>
<trkpt lat="40.0714093" lon="-105.2296881">
  <ele>1583.0</ele>
  <time>2026-08-28T17:56:50Z</time>
  <course>65.99</course>
  <speed>0.8</speed>
  <fix>3d</fix>
</trkpt>
<trkpt lat="40.0714093" lon="-105.2296881">
  <ele>1583.0</ele>
  <time>2026-08-28T17:56:50Z</time>
  <course>250.0</course>
  <speed>0.18788294228055935</speed>
  <fix>3d</fix>
</trkpt>
<trkpt lat="40.0714098" lon="-105.2296864">
  <ele>1583.0</ele>
  <time>2026-08-28T17:56:50Z</time>
  <course>65.99</course>
  <speed>0.8</speed>
  <fix>3d</fix>
</trkpt>
<trkpt lat="40.0714098" lon="-105.2296864">
  <ele>1583.0</ele>
  <time>2026-08-28T17:56:50Z</time>
  <course>250.01</course>
  <speed>0.18788294228055935</speed>
  <fix>3d</fix>
</trkpt>
<trkpt lat="40.0714098" lon="-105.2296864">
  <ele>1583.0</ele>
  <time>2026-08-28T17:56:50Z</time>
  <course>65.99</course>
  <speed>0.8</speed>
  <fix>3d</fix>
</trkpt>
<trkpt lat="40.0714098" lon="-105.2296864">
  <ele>1583.0</ele>
  <time>2026-08-28T17:56:50Z</time>
  <course>250.02</course>
  <speed>0.18788294228055935</speed>
  <fix>3d</fix>
</trkpt>
<trkpt lat="40.0714105" lon="-105.2296847">
  <ele>1583.0</ele>
  <time>2026-08-28T17:56:50Z</time>
  <course>65.99</course>
  <speed>0.8</speed>
  <fix>3d</fix>
</trkpt>
<trkpt lat="40.0714105" lon="-105.2296847">
  <ele>1583.0</ele>
  <time>2026-08-28T17:56:50Z</time>
  <course>250.03</course>
  <speed>0.18788294228055935</speed>
  <fix>3d</fix>
</trkpt>
<trkpt lat="40.0714105" lon="-105.2296847">
  <ele>1583.0</ele>
  <time>2026-08-28T17:56:50Z</time>
  <course>65.99</course>
  <speed>0.8</speed>
  <fix>3d</fix>
</trkpt>
<trkpt lat="40.0714105" lon="-105.2296847">
  <ele>1583.0</ele>
  <time>2026-08-28T17:56:50Z</time>
  <course>250.04</course>
  <speed>0.18788294228055935</speed>
  <fix>3d</fix>
</trkpt>
<trkpt lat="40.071411" lon="-105.229683">
  <ele>1583.0</ele>
  <time>2026-08-28T17:56:50Z</time>
  <course>65.99</course>
  <speed>0.8</speed>
  <fix>3d</fix>
</trkpt>
<trkpt lat="40.071411" lon="-105.229683">
  <ele>1583.0</ele>
  <time>2026-08-28T17:56:50Z</time>
  <course>250.05</course>
  <speed>0.18788294228055935</speed>
  <fix>3d</fix>
</trkpt>
<trkpt lat="40.071411" lon="-105.229683">
  <ele>1583.0</ele>
  <time>2026-08-28T17:56:50Z</time>
  <course>65.99</course>
  <speed>0.8</speed>
  <fix>3d</fix>
</trkpt>
<trkpt lat="40.071411" lon="-105.229683">
  <ele>1583.0</ele>
  <time>2026-08-28T17:56:50Z</time>
  <course>250.06</course>
  <speed>0.18788294228055935</speed>
  <fix>3d</fix>
</trkpt>
<trkpt lat="40.0714117" lon="-105.2296812">
  <ele>1583.0</ele>
  <time>2026-08-28T17:56:50Z</time>
  <course>65.99</course>
  <speed>0.8</speed>
  <fix>3d</fix>
</trkpt>
<trkpt lat="40.0714117" lon="-105.2296812">
  <ele>1583.0</ele>
  <time>2026-08-28T17:56:50Z</time>
  <course>250.07</course>
  <speed>0.18788294228055935</speed>
  <fix>3d</fix>
</trkpt>
<trkpt lat="40.0714117" lon="-105.2296812">
  <ele>1583.0</ele>
  <time>2026-08-28T17:56:50Z</time>
  <course>65.99</course>
  <speed>0.8</speed>
  <fix>3d</fix>
</trkpt>
<trkpt lat="40.0714117" lon="-105.2296812">
  <ele>1583.0</ele>
  <time>2026-08-28T17:56:50Z</time>
  <course>250.08</course>
  <speed>0.18788294228055935</speed>
  <fix>3d</fix>
</trkpt>
<trkpt lat="40.0714122" lon="-105.2296795">
  <ele>1583.0</ele>
  <time>2026-08-28T17:56:50Z</time>
  <course>65.99</course>
  <speed>0.8</speed>
  <fix>3d</fix>
</trkpt>
<trkpt lat="40.0714122" lon="-105.2296795">
  <ele>1583.0</ele>
  <time>2026-08-28T17:56:50Z</time>
  <course>250.08</course>
  <speed>0.18788294228055935</speed>
  <fix>3d</fix>
</trkpt>
<trkpt lat="40.0714122" lon="-105.2296795">
  <ele>1583.0</ele>
  <time>2026-08-28T17:56:50Z</time>
  <course>65.99</course>
  <speed>0.8</speed>
  <fix>3d</fix>
</trkpt>
<trkpt lat="40.0714122" lon="-105.2296795">
  <ele>1583.0</ele>
  <time>2026-08-28T17:56:50Z</time>
  <course>250.09</course>
  <speed>0.18788294228055935</speed>
  <fix>3d</fix>
</trkpt>
<trkpt lat="40.0714122" lon="-105.2296795">
  <ele>1583.0</ele>
  <time>2026-08-28T17:56:50Z</time>
  <course>65.99</course>
  <speed>0.8</speed>
  <fix>3d</fix>
</trkpt>
<trkpt lat="40.0714128" lon="-105.2296778">
  <ele>1583.0</ele>
  <time>2026-08-28T17:56:50Z</time>
  <course>250.09</course>
  <speed>0.18788294228055935</speed>
  <fix>3d</fix>
</trkpt>
<trkpt lat="40.0714128" lon="-105.2296778">
  <ele>1583.0</ele>
  <time>2026-08-28T17:56:50Z</time>
  <course>65.99</course>
  <speed>0.8</speed>
  <fix>3d</fix>
</trkpt>
<trkpt lat="40.0714128" lon="-105.2296778">
  <ele>1583.0</ele>
  <time>2026-08-28T17:56:50Z</time>
  <course>250.1</course>
  <speed>0.18788294228055935</speed>
  <fix>3d</fix>
</trkpt>
<trkpt lat="40.0714128" lon="-105.2296778">
  <ele>1583.0</ele>
  <time>2026-08-28T17:56:50Z</time>
  <course>65.99</course>
  <speed>0.8</speed>
  <fix>3d</fix>
</trkpt>
<trkpt lat="40.0714134" lon="-105.2296761">
  <ele>1583.0</ele>
  <time>2026-08-28T17:56:50Z</time>
  <course>250.1</course>
  <speed>0.18788294228055935</speed>
  <fix>3d</fix>
</trkpt>
<trkpt lat="40.0714134" lon="-105.2296761">
  <ele>1583.0</ele>
  <time>2026-08-28T17:56:50Z</time>
  <course>65.99</course>
  <speed>0.8</speed>
  <fix>3d</fix>
</trkpt>
<trkpt lat="40.0714134" lon="-105.2296761">
  <ele>1583.0</ele>
  <time>2026-08-28T17:56:50Z</time>
  <course>250.11</course>
  <speed>0.18788294228055935</speed>
  <fix>3d</fix>
</trkpt>
<trkpt lat="40.0714134" lon="-105.2296761">
  <ele>1583.0</ele>
  <time>2026-08-28T17:56:50Z</time>
  <course>65.99</course>
  <speed>0.8</speed>
  <fix>3d</fix>
</trkpt>
<trkpt lat="40.071414" lon="-105.2296743">
  <ele>1583.0</ele>
  <time>2026-08-28T17:56:50Z</time>
  <course>250.11</course>
  <speed>0.18788294228055935</speed>
  <fix>3d</fix>
</trkpt>
<trkpt lat="40.071414" lon="-105.2296743">
  <ele>1583.0</ele>
  <time>2026-08-28T17:56:50Z</time>
  <course>65.99</course>
  <speed>0.8</speed>
  <fix>3d</fix>
</trkpt>
<trkpt lat="40.071414" lon="-105.2296743">
  <ele>1583.0</ele>
  <time>2026-08-28T17:56:50Z</time>
  <course>250.11</course>
  <speed>0.18788294228055935</speed>
  <fix>3d</fix>
</trkpt>
<trkpt lat="40.071414" lon="-105.2296743">
  <ele>1583.0</ele>
  <time>2026-08-28T17:56:50Z</time>
  <course>65.99</course>
  <speed>0.8</speed>
  <fix>3d</fix>
</trkpt>
<trkpt lat="40.0714146" lon="-105.2296726">
  <ele>1583.0</ele>
  <time>2026-08-28T17:56:50Z</time>
  <course>250.11</course>
  <speed>0.18788294228055935</speed>
  <fix>3d</fix>
</trkpt>
<trkpt lat="40.0714146" lon="-105.2296726">
  <ele>1583.0</ele>
  <time>2026-08-28T17:56:50Z</time>
  <course>65.99</course>
  <speed>0.8</speed>
  <fix>3d</fix>
</trkpt>
<trkpt lat="40.0714146" lon="-105.2296726">
  <ele>1583.0</ele>
  <time>2026-08-28T17:56:50Z</time>
  <course>250.12</course>
  <speed>0.18788294228055935</speed>
  <fix>3d</fix>
</trkpt>
<trkpt lat="40.0714152" lon="-105.2296709">
  <ele>1583.0</ele>
  <time>2026-08-28T17:56:50Z</time>
  <course>65.99</course>
  <speed>0.8</speed>
  <fix>3d</fix>
</trkpt>
<trkpt lat="40.0714152" lon="-105.2296709">
  <ele>1583.0</ele>
  <time>2026-08-28T17:56:50Z</time>
  <course>250.12</course>
  <speed>0.18788294228055935</speed>
  <fix>3d</fix>
</trkpt>
<trkpt lat="40.0714152" lon="-105.2296709">
  <ele>1583.0</ele>
  <time>2026-08-28T17:56:50Z</time>
  <course>65.99</course>
  <speed>0.8</speed>
  <fix>3d</fix>
</trkpt>
<trkpt lat="40.0714152" lon="-105.2296709">
  <ele>1583.0</ele>
  <time>2026-08-28T17:56:50Z</time>
  <course>250.12</course>
  <speed>0.18788294228055935</speed>
  <fix>3d</fix>
</trkpt>
<trkpt lat="40.0714157" lon="-105.2296692">
  <ele>1583.0</ele>
  <time>2026-08-28T17:56:50Z</time>
  <course>65.99</course>
  <speed>0.8</speed>
  <fix>3d</fix>
</trkpt>
<trkpt lat="40.0714157" lon="-105.2296692">
  <ele>1583.0</ele>
  <time>2026-08-28T17:56:50Z</time>
  <course>250.12</course>
  <speed>0.18788294228055935</speed>
  <fix>3d</fix>
</trkpt>
<trkpt lat="40.0714157" lon="-105.2296692">
  <ele>1583.0</ele>
  <time>2026-08-28T17:56:50Z</time>
  <course>65.99</course>
  <speed>0.8</speed>
  <fix>3d</fix>
</trkpt>
<trkpt lat="40.0714157" lon="-105.2296692">
  <ele>1583.0</ele>
  <time>2026-08-28T17:56:50Z</time>
  <course>250.12</course>
  <speed>0.18788294228055935</speed>
  <fix>3d</fix>
</trkpt>
<trkpt lat="40.0714163" lon="-105.2296675">
  <ele>1583.0</ele>
  <time>2026-08-28T17:56:50Z</time>
  <course>65.99</course>
  <speed>0.8</speed>
  <fix>3d</fix>
</trkpt>
<trkpt lat="40.0714163" lon="-105.2296675">
  <ele>1583.0</ele>
  <time>2026-08-28T17:56:50Z</time>
  <course>250.11</course>
  <speed>0.18788294228055935</speed>
  <fix>3d</fix>
</trkpt>
<trkpt lat="40.0714163" lon="-105.2296675">
  <ele>1583.0</ele>
  <time>2026-08-28T17:56:50Z</time>
  <course>65.99</course>
  <speed>0.8</speed>
  <fix>3d</fix>
</trkpt>
<trkpt lat="40.0714163" lon="-105.2296675">
  <ele>1583.0</ele>
  <time>2026-08-28T17:56:50Z</time>
  <course>250.11</course>
  <speed>0.18788294228055935</speed>
  <fix>3d</fix>
</trkpt>
<trkpt lat="40.0714169" lon="-105.2296657">
  <ele>1583.0</ele>
  <time>2026-08-28T17:56:50Z</time>
  <course>65.99</course>
  <speed>0.8</speed>
  <fix>3d</fix>
</trkpt>
<trkpt lat="40.0714169" lon="-105.2296657">
  <ele>1583.0</ele>
  <time>2026-08-28T17:56:50Z</time>
  <course>250.11</course>
  <speed>0.18788294228055935</speed>
  <fix>3d</fix>
</trkpt>
<trkpt lat="40.0714169" lon="-105.2296657">
  <ele>1583.0</ele>
  <time>2026-08-28T17:56:50Z</time>
  <course>65.99</course>
  <speed>0.8</speed>
  <fix>3d</fix>
</trkpt>
<trkpt lat="40.0714169" lon="-105.2296657">
  <ele>1583.0</ele>
  <time>2026-08-28T17:56:50Z</time>
  <course>250.11</course>
  <speed>0.18788294228055935</speed>
  <fix>3d</fix>
</trkpt>
<trkpt lat="40.0714174" lon="-105.229664">
  <ele>1583.0</ele>
  <time>2026-08-28T17:56:50Z</time>
  <course>65.99</course>
  <speed>0.8</speed>
  <fix>3d</fix>
</trkpt>
<trkpt lat="40.0714174" lon="-105.229664">
  <ele>1583.0</ele>
  <time>2026-08-28T17:56:50Z</time>
  <course>250.11</course>
  <speed>0.18788294228055935</speed>
  <fix>3d</fix>
</trkpt>
<trkpt lat="40.0714174" lon="-105.229664">
  <ele>1583.0</ele>
  <time>2026-08-28T17:56:50Z</time>
  <course>65.99</course>
  <speed>0.8</speed>
  <fix>3d</fix>
</trkpt>
<trkpt lat="40.0714174" lon="-105.229664">
  <ele>1583.0</ele>
  <time>2026-08-28T17:56:50Z</time>
  <course>250.1</course>
  <speed>0.18788294228055935</speed>
  <fix>3d</fix>
</trkpt>
<trkpt lat="40.0714181" lon="-105.2296623">
  <ele>1583.0</ele>
  <time>2026-08-28T17:56:50Z</time>
  <course>65.99</course>
  <speed>0.8</speed>
  <fix>3d</fix>
</trkpt>
<trkpt lat="40.0714181" lon="-105.2296623">
  <ele>1583.0</ele>
  <time>2026-08-28T17:56:50Z</time>
  <course>250.1</course>
  <speed>0.18788294228055935</speed>
  <fix>3d</fix>
</trkpt>
<trkpt lat="40.0714181" lon="-105.2296623">
  <ele>1583.0</ele>
  <time>2026-08-28T17:56:50Z</time>
  <course>65.99</course>
  <speed>0.8</speed>
  <fix>3d</fix>
</trkpt>
<trkpt lat="40.0714181" lon="-105.2296623">
  <ele>1583.0</ele>
  <time>2026-08-28T17:56:50Z</time>
  <course>250.1</course>
  <speed>0.18788294228055935</speed>
  <fix>3d</fix>
</trkpt>
<trkpt lat="40.0714186" lon="-105.2296606">
  <ele>1583.0</ele>
  <time>2026-08-28T17:56:50Z</time>
  <course>65.99</course>
  <speed>0.8</speed>
  <fix>3d</fix>
</trkpt>
<trkpt lat="40.0714186" lon="-105.2296606">
  <ele>1583.0</ele>
  <time>2026-08-28T17:56:50Z</time>
  <course>250.09</course>
  <speed>0.18788294228055935</speed>
  <fix>3d</fix>
</trkpt>
<trkpt lat="40.0714186" lon="-105.2296606">
  <ele>1583.0</ele>
  <time>2026-08-28T17:56:50Z</time>
  <course>65.99</course>
  <speed>0.8</speed>
  <fix>3d</fix>
</trkpt>
<trkpt lat="40.0714186" lon="-105.2296606">
  <ele>1583.0</ele>
  <time>2026-08-28T17:56:50Z</time>
  <course>250.09</course>
  <speed>0.18788294228055935</speed>
  <fix>3d</fix>
</trkpt>
<trkpt lat="40.0714186" lon="-105.2296606">
  <ele>1583.0</ele>
  <time>2026-08-28T17:56:50Z</time>
  <course>65.99</course>
  <speed>0.8</speed>
  <fix>3d</fix>
</trkpt>
<trkpt lat="40.0714193" lon="-105.2296589">
  <ele>1583.0</ele>
  <time>2026-08-28T17:56:50Z</time>
  <course>250.09</course>
  <speed>0.18788294228055935</speed>
  <fix>3d</fix>
</trkpt>
<trkpt lat="40.0714193" lon="-105.2296589">
  <ele>1583.0</ele>
  <time>2026-08-28T17:56:50Z</time>
  <course>65.99</course>
  <speed>0.8</speed>
  <fix>3d</fix>
</trkpt>
<trkpt lat="40.0714193" lon="-105.2296589">
  <ele>1583.0</ele>
  <time>2026-08-28T17:56:50Z</time>
  <course>250.08</course>
  <speed>0.18788294228055935</speed>
  <fix>3d</fix>
</trkpt>
<trkpt lat="40.0714193" lon="-105.2296589">
  <ele>1583.0</ele>
  <time>2026-08-28T17:56:50Z</time>
  <course>65.99</course>
  <speed>0.8</speed>
  <fix>3d</fix>
</trkpt>
<trkpt lat="40.0714198" lon="-105.2296571">
  <ele>1583.0</ele>
  <time>2026-08-28T17:56:50Z</time>
  <course>250.08</course>
  <speed>0.18788294228055935</speed>
  <fix>3d</fix>
</trkpt>
<trkpt lat="40.0714198" lon="-105.2296571">
  <ele>1583.0</ele>
  <time>2026-08-28T17:56:50Z</time>
  <course>65.99</course>
  <speed>0.8</speed>
  <fix>3d</fix>
</trkpt>
<trkpt lat="40.0714198" lon="-105.2296571">
  <ele>1583.0</ele>
  <time>2026-08-28T17:56:50Z</time>
  <course>250.07</course>
  <speed>0.18788294228055935</speed>
  <fix>3d</fix>
</trkpt>
<trkpt lat="40.0714198" lon="-105.2296571">
  <ele>1583.0</ele>
  <time>2026-08-28T17:56:50Z</time>
  <course>65.99</course>
  <speed>0.8</speed>
  <fix>3d</fix>
</trkpt>
<trkpt lat="40.0714205" lon="-105.2296554">
  <ele>1583.0</ele>
  <time>2026-08-28T17:56:50Z</time>
  <course>250.07</course>
  <speed>0.18788294228055935</speed>
  <fix>3d</fix>
</trkpt>
<trkpt lat="40.0714205" lon="-105.2296554">
  <ele>1583.0</ele>
  <time>2026-08-28T17:56:50Z</time>
  <course>65.99</course>
  <speed>0.8</speed>
  <fix>3d</fix>
</trkpt>
<trkpt lat="40.0714205" lon="-105.2296554">
  <ele>1583.0</ele>
  <time>2026-08-28T17:56:50Z</time>
  <course>250.06</course>
  <speed>0.18788294228055935</speed>
  <fix>3d</fix>
</trkpt>
<trkpt lat="40.071421" lon="-105.2296537">
  <ele>1583.0</ele>
  <time>2026-08-28T17:56:50Z</time>
  <course>65.99</course>
  <speed>0.8</speed>
  <fix>3d</fix>
</trkpt>
<trkpt lat="40.071421" lon="-105.2296537">
  <ele>1583.0</ele>
  <time>2026-08-28T17:56:50Z</time>
  <course>250.05</course>
  <speed>0.17888543819998318</speed>
  <fix>3d</fix>
</trkpt>
<trkpt lat="40.071421" lon="-105.2296537">
  <ele>1583.0</ele>
  <time>2026-08-28T17:56:50Z</time>
  <course>65.99</course>
  <speed>0.8</speed>
  <fix>3d</fix>
</trkpt>
<trkpt lat="40.071421" lon="-105.2296537">
  <ele>1583.0</ele>
  <time>2026-08-28T17:56:50Z</time>
  <course>250.05</course>
  <speed>0.17888543819998318</speed>
  <fix>3d</fix>
</trkpt>
<trkpt lat="40.0714215" lon="-105.229652">
  <ele>1583.0</ele>
  <time>2026-08-28T17:56:50Z</time>
  <course>65.99</course>
  <speed>0.8</speed>
  <fix>3d</fix>
</trkpt>
<trkpt lat="40.0714215" lon="-105.229652">
  <ele>1583.0</ele>
  <time>2026-08-28T17:56:50Z</time>
  <course>250.04</course>
  <speed>0.17888543819998318</speed>
  <fix>3d</fix>
</trkpt>
<trkpt lat="40.0714215" lon="-105.229652">
  <ele>1583.0</ele>
  <time>2026-08-28T17:56:50Z</time>
  <course>65.99</course>
  <speed>0.8</speed>
  <fix>3d</fix>
</trkpt>
<trkpt lat="40.0714215" lon="-105.229652">
  <ele>1583.0</ele>
  <time>2026-08-28T17:56:50Z</time>
  <course>250.04</course>
  <speed>0.17888543819998318</speed>
  <fix>3d</fix>
</trkpt>
<trkpt lat="40.0714222" lon="-105.2296503">
  <ele>1583.0</ele>
  <time>2026-08-28T17:56:50Z</time>
  <course>65.99</course>
  <speed>0.8</speed>
  <fix>3d</fix>
</trkpt>
<trkpt lat="40.0714222" lon="-105.2296503">
  <ele>1583.0</ele>
  <time>2026-08-28T17:56:50Z</time>
  <course>250.03</course>
  <speed>0.17888543819998318</speed>
  <fix>3d</fix>
</trkpt>
<trkpt lat="40.0714222" lon="-105.2296503">
  <ele>1583.0</ele>
  <time>2026-08-28T17:56:50Z</time>
  <course>65.99</course>
  <speed>0.8</speed>
  <fix>3d</fix>
</trkpt>
<trkpt lat="40.0714222" lon="-105.2296503">
  <ele>1583.0</ele>
  <time>2026-08-28T17:56:50Z</time>
  <course>250.02</course>
  <speed>0.17888543819998318</speed>
  <fix>3d</fix>
</trkpt>
<trkpt lat="40.0714227" lon="-105.2296485">
  <ele>1583.0</ele>
  <time>2026-08-28T17:56:50Z</time>
  <course>65.99</course>
  <speed>0.8</speed>
  <fix>3d</fix>
</trkpt>
<trkpt lat="40.0714227" lon="-105.2296485">
  <ele>1583.0</ele>
  <time>2026-08-28T17:56:50Z</time>
  <course>250.01</course>
  <speed>0.17888543819998318</speed>
  <fix>3d</fix>
</trkpt>
<trkpt lat="40.0714227" lon="-105.2296485">
  <ele>1583.0</ele>
  <time>2026-08-28T17:56:50Z</time>
  <course>65.99</course>
  <speed>0.8</speed>
  <fix>3d</fix>
</trkpt>
<trkpt lat="40.0714227" lon="-105.2296485">
  <ele>1583.0</ele>
  <time>2026-08-28T17:56:50Z</time>
  <course>250.01</course>
  <speed>0.17888543819998318</speed>
  <fix>3d</fix>
</trkpt>
<trkpt lat="40.0714234" lon="-105.2296468">
  <ele>1583.0</ele>
  <time>2026-08-28T17:56:50Z</time>
  <course>65.99</course>
  <speed>0.8</speed>
  <fix>3d</fix>
</trkpt>
<trkpt lat="40.0714234" lon="-105.2296468">
  <ele>1583.0</ele>
  <time>2026-08-28T17:56:50Z</time>
  <course>250.0</course>
  <speed>0.17888543819998318</speed>
  <fix>3d</fix>
</trkpt>
<trkpt lat="40.0714234" lon="-105.2296468">
  <ele>1583.0</ele>
  <time>2026-08-28T17:56:50Z</time>
  <course>65.99</course>
  <speed>0.8</speed>
  <fix>3d</fix>
</trkpt>
<trkpt lat="40.0714234" lon="-105.2296468">
  <ele>1583.0</ele>
  <time>2026-08-28T17:56:50Z</time>
  <course>249.99</course>
  <speed>0.17888543819998318</speed>
  <fix>3d</fix>
</trkpt>
<trkpt lat="40.0714239" lon="-105.2296451">
  <ele>1583.0</ele>
  <time>2026-08-28T17:56:50Z</time>
  <course>65.99</course>
  <speed>0.8</speed>
  <fix>3d</fix>
</trkpt>
<trkpt lat="40.0714239" lon="-105.2296451">
  <ele>1583.0</ele>
  <time>2026-08-28T17:56:50Z</time>
  <course>249.98</course>
  <speed>0.17888543819998318</speed>
  <fix>3d</fix>
</trkpt>
<trkpt lat="40.0714239" lon="-105.2296451">
  <ele>1583.0</ele>
  <time>2026-08-28T17:56:50Z</time>
  <course>65.99</course>
  <speed>0.8</speed>
  <fix>3d</fix>
</trkpt>
<trkpt lat="40.0714239" lon="-105.2296451">
  <ele>1583.0</ele>
  <time>2026-08-28T17:56:50Z</time>
  <course>249.97</course>
  <speed>0.17888543819998318</speed>
  <fix>3d</fix>
</trkpt>
<trkpt lat="40.0714246" lon="-105.2296434">
  <ele>1583.0</ele>
  <time>2026-08-28T17:56:50Z</time>
  <course>65.99</course>
  <speed>0.8</speed>
  <fix>3d</fix>
</trkpt>
<trkpt lat="40.0714246" lon="-105.2296434">
  <ele>1583.0</ele>
  <time>2026-08-28T17:56:50Z</time>
  <course>249.97</course>
  <speed>0.17464249196572978</speed>
  <fix>3d</fix>
</trkpt>
<trkpt lat="40.0714246" lon="-105.2296434">
  <ele>1583.0</ele>
  <time>2026-08-28T17:56:50Z</time>
  <course>65.99</course>
  <speed>0.8</speed>
  <fix>3d</fix>
</trkpt>
<trkpt lat="40.0714246" lon="-105.2296434">
  <ele>1583.0</ele>
  <time>2026-08-28T17:56:50Z</time>
  <course>249.96</course>
  <speed>0.17464249196572978</speed>
  <fix>3d</fix>
</trkpt>
<trkpt lat="40.0714246" lon="-105.2296434">
  <ele>1583.0</ele>
  <time>2026-08-28T17:56:50Z</time>
  <course>65.99</course>
  <speed>0.8</speed>
  <fix>3d</fix>
</trkpt>
<trkpt lat="40.0714251" lon="-105.2296417">
  <ele>1583.0</ele>
  <time>2026-08-28T17:56:50Z</time>
  <course>249.95</course>
  <speed>0.16552945357246848</speed>
  <fix>3d</fix>
</trkpt>
<trkpt lat="40.0714251" lon="-105.2296417">
  <ele>1583.0</ele>
  <time>2026-08-28T17:56:50Z</time>
  <course>65.99</course>
  <speed>0.8</speed>
  <fix>3d</fix>
</trkpt>
<trkpt lat="40.0714251" lon="-105.2296417">
  <ele>1583.0</ele>
  <time>2026-08-28T17:56:50Z</time>
  <course>249.94</course>
  <speed>0.16552945357246848</speed>
  <fix>3d</fix>
</trkpt>
<trkpt lat="40.0714251" lon="-105.2296417">
  <ele>1583.0</ele>
  <time>2026-08-28T17:56:50Z</time>
  <course>65.99</course>
  <speed>0.8</speed>
  <fix>3d</fix>
</trkpt>
<trkpt lat="40.0714256" lon="-105.2296399">
  <ele>1583.0</ele>
  <time>2026-08-28T17:56:50Z</time>
  <course>249.93</course>
  <speed>0.16552945357246848</speed>
  <fix>3d</fix>
</trkpt>
<trkpt lat="40.0714256" lon="-105.2296399">
  <ele>1583.0</ele>
  <time>2026-08-28T17:56:50Z</time>
  <course>65.99</course>
  <speed>0.8</speed>
  <fix>3d</fix>
</trkpt>
<trkpt lat="40.0714256" lon="-105.2296399">
  <ele>1583.0</ele>
  <time>2026-08-28T17:56:50Z</time>
  <course>249.92</course>
  <speed>0.16552945357246848</speed>
  <fix>3d</fix>
</trkpt>
<trkpt lat="40.0714256" lon="-105.2296399">
  <ele>1583.0</ele>
  <time>2026-08-28T17:56:50Z</time>
  <course>65.99</course>
  <speed>0.8</speed>
  <fix>3d</fix>
</trkpt>
<trkpt lat="40.0714263" lon="-105.2296382">
  <ele>1583.0</ele>
  <time>2026-08-28T17:56:50Z</time>
  <course>249.92</course>
  <speed>0.16552945357246848</speed>
  <fix>3d</fix>
</trkpt>
<trkpt lat="40.0714263" lon="-105.2296382">
  <ele>1583.0</ele>
  <time>2026-08-28T17:56:50Z</time>
  <course>65.99</course>
  <speed>0.8</speed>
  <fix>3d</fix>
</trkpt>
<trkpt lat="40.0714263" lon="-105.2296382">
  <ele>1583.0</ele>
  <time>2026-08-28T17:56:50Z</time>
  <course>249.91</course>
  <speed>0.16552945357246848</speed>
  <fix>3d</fix>
</trkpt>
<trkpt lat="40.0714263" lon="-105.2296382">
  <ele>1583.0</ele>
  <time>2026-08-28T17:56:50Z</time>
  <course>65.99</course>
  <speed>0.8</speed>
  <fix>3d</fix>
</trkpt>
<trkpt lat="40.0714268" lon="-105.2296365">
  <ele>1583.0</ele>
  <time>2026-08-28T17:56:50Z</time>
  <course>249.9</course>
  <speed>0.16552945357246848</speed>
  <fix>3d</fix>
</trkpt>
<trkpt lat="40.0714268" lon="-105.2296365">
  <ele>1583.0</ele>
  <time>2026-08-28T17:56:50Z</time>
  <course>65.99</course>
  <speed>0.8</speed>
  <fix>3d</fix>
</trkpt>
<trkpt lat="40.0714268" lon="-105.2296365">
  <ele>1583.0</ele>
  <time>2026-08-28T17:56:50Z</time>
  <course>249.89</course>
  <speed>0.16552945357246848</speed>
  <fix>3d</fix>
</trkpt>
<trkpt lat="40.0714275" lon="-105.2296348">
  <ele>1583.0</ele>
  <time>2026-08-28T17:56:50Z</time>
  <course>65.99</course>
  <speed>0.8</speed>
  <fix>3d</fix>
</trkpt>
<trkpt lat="40.0714275" lon="-105.2296348">
  <ele>1583.0</ele>
  <time>2026-08-28T17:56:50Z</time>
  <course>249.88</course>
  <speed>0.16552945357246848</speed>
  <fix>3d</fix>
</trkpt>
<trkpt lat="40.0714275" lon="-105.2296348">
  <ele>1583.0</ele>
  <time>2026-08-28T17:56:50Z</time>
  <course>65.99</course>
  <speed>0.8</speed>
  <fix>3d</fix>
</trkpt>
<trkpt lat="40.0714275" lon="-105.2296348">
  <ele>1583.0</ele>
  <time>2026-08-28T17:56:50Z</time>
  <course>249.87</course>
  <speed>0.16552945357246848</speed>
  <fix>3d</fix>
</trkpt>
<trkpt lat="40.071428" lon="-105.2296331">
  <ele>1583.0</ele>
  <time>2026-08-28T17:56:50Z</time>
  <course>65.99</course>
  <speed>0.8</speed>
  <fix>3d</fix>
</trkpt>
<trkpt lat="40.071428" lon="-105.2296331">
  <ele>1583.0</ele>
  <time>2026-08-28T17:56:50Z</time>
  <course>249.86</course>
  <speed>0.16552945357246848</speed>
  <fix>3d</fix>
</trkpt>
<trkpt lat="40.071428" lon="-105.2296331">
  <ele>1583.0</ele>
  <time>2026-08-28T17:56:50Z</time>
  <course>65.99</course>
  <speed>0.8</speed>
  <fix>3d</fix>
</trkpt>
<trkpt lat="40.071428" lon="-105.2296331">
  <ele>1583.0</ele>
  <time>2026-08-28T17:56:50Z</time>
  <course>249.85</course>
  <speed>0.15652475842498528</speed>
  <fix>3d</fix>
</trkpt>
<trkpt lat="40.0714287" lon="-105.2296313">
  <ele>1583.0</ele>
  <time>2026-08-28T17:56:50Z</time>
  <course>65.99</course>
  <speed>0.8</speed>
  <fix>3d</fix>
</trkpt>
<trkpt lat="40.0714287" lon="-105.2296313">
  <ele>1583.0</ele>
  <time>2026-08-28T17:56:50Z</time>
  <course>249.84</course>
  <speed>0.15652475842498528</speed>
  <fix>3d</fix>
</trkpt>
<trkpt lat="40.0714287" lon="-105.2296313">
  <ele>1583.0</ele>
  <time>2026-08-28T17:56:50Z</time>
  <course>65.99</course>
  <speed>0.8</speed>
  <fix>3d</fix>
</trkpt>
<trkpt lat="40.0714287" lon="-105.2296313">
  <ele>1583.0</ele>
  <time>2026-08-28T17:56:50Z</time>
  <course>249.83</course>
  <speed>0.15652475842498528</speed>
  <fix>3d</fix>
</trkpt>
<trkpt lat="40.0714292" lon="-105.2296296">
  <ele>1583.0</ele>
  <time>2026-08-28T17:56:50Z</time>
  <course>65.99</course>
  <speed>0.8</speed>
  <fix>3d</fix>
</trkpt>
<trkpt lat="40.0714292" lon="-105.2296296">
  <ele>1583.0</ele>
  <time>2026-08-28T17:56:50Z</time>
  <course>249.82</course>
  <speed>0.15652475842498528</speed>
  <fix>3d</fix>
</trkpt>
<trkpt lat="40.0714292" lon="-105.2296296">
  <ele>1583.0</ele>
  <time>2026-08-28T17:56:50Z</time>
  <course>65.99</course>
  <speed>0.8</speed>
  <fix>3d</fix>
</trkpt>
<trkpt lat="40.0714292" lon="-105.2296296">
  <ele>1583.0</ele>
  <time>2026-08-28T17:56:50Z</time>
  <course>249.81</course>
  <speed>0.15652475842498528</speed>
  <fix>3d</fix>
</trkpt>
<trkpt lat="40.0714298" lon="-105.2296279">
  <ele>1583.0</ele>
  <time>2026-08-28T17:56:50Z</time>
  <course>65.99</course>
  <speed>0.8</speed>
  <fix>3d</fix>
</trkpt>
<trkpt lat="40.0714298" lon="-105.2296279">
  <ele>1583.0</ele>
  <time>2026-08-28T17:56:50Z</time>
  <course>249.8</course>
  <speed>0.15652475842498528</speed>
  <fix>3d</fix>
</trkpt>
<trkpt lat="40.0714298" lon="-105.2296279">
  <ele>1583.0</ele>
  <time>2026-08-28T17:56:50Z</time>
  <course>65.99</course>
  <speed>0.8</speed>
  <fix>3d</fix>
</trkpt>
<trkpt lat="40.0714298" lon="-105.2296279">
  <ele>1583.0</ele>
  <time>2026-08-28T17:56:50Z</time>
  <course>249.79</course>
  <speed>0.15652475842498528</speed>
  <fix>3d</fix>
</trkpt>
<trkpt lat="40.0714303" lon="-105.2296262">
  <ele>1583.0</ele>
  <time>2026-08-28T17:56:50Z</time>
  <course>65.99</course>
  <speed>0.8</speed>
  <fix>3d</fix>
</trkpt>
<trkpt lat="40.0714303" lon="-105.2296262">
  <ele>1583.0</ele>
  <time>2026-08-28T17:56:50Z</time>
  <course>249.78</course>
  <speed>0.15652475842498528</speed>
  <fix>3d</fix>
</trkpt>
<trkpt lat="40.0714303" lon="-105.2296262">
  <ele>1583.0</ele>
  <time>2026-08-28T17:56:50Z</time>
  <course>65.99</course>
  <speed>0.8</speed>
  <fix>3d</fix>
</trkpt>
<trkpt lat="40.0714303" lon="-105.2296262">
  <ele>1583.0</ele>
  <time>2026-08-28T17:56:50Z</time>
  <course>249.77</course>
  <speed>0.15652475842498528</speed>
  <fix>3d</fix>
</trkpt>
<trkpt lat="40.071431" lon="-105.2296245">
  <ele>1583.0</ele>
  <time>2026-08-28T17:56:50Z</time>
  <course>65.99</course>
  <speed>0.8</speed>
  <fix>3d</fix>
</trkpt>
<trkpt lat="40.071431" lon="-105.2296245">
  <ele>1583.0</ele>
  <time>2026-08-28T17:56:50Z</time>
  <course>249.76</course>
  <speed>0.15652475842498528</speed>
  <fix>3d</fix>
</trkpt>
<trkpt lat="40.071431" lon="-105.2296245">
  <ele>1583.0</ele>
  <time>2026-08-28T17:56:50Z</time>
  <course>65.99</course>
  <speed>0.8</speed>
  <fix>3d</fix>
</trkpt>
<trkpt lat="40.071431" lon="-105.2296245">
  <ele>1583.0</ele>
  <time>2026-08-28T17:56:50Z</time>
  <course>249.75</course>
  <speed>0.147648230602334</speed>
  <fix>3d</fix>
</trkpt>
<trkpt lat="40.071431" lon="-105.2296245">
  <ele>1583.0</ele>
  <time>2026-08-28T17:56:50Z</time>
  <course>65.99</course>
  <speed>0.8</speed>
  <fix>3d</fix>
</trkpt>
<trkpt lat="40.0714315" lon="-105.2296227">
  <ele>1583.0</ele>
  <time>2026-08-28T17:56:50Z</time>
  <course>249.73</course>
  <speed>0.147648230602334</speed>
  <fix>3d</fix>
</trkpt>
<trkpt lat="40.0714315" lon="-105.2296227">
  <ele>1583.0</ele>
  <time>2026-08-28T17:56:50Z</time>
  <course>65.99</course>
  <speed>0.8</speed>
  <fix>3d</fix>
</trkpt>
<trkpt lat="40.0714315" lon="-105.2296227">
  <ele>1583.0</ele>
  <time>2026-08-28T17:56:50Z</time>
  <course>249.72</course>
  <speed>0.147648230602334</speed>
  <fix>3d</fix>
</trkpt>
<trkpt lat="40.0714315" lon="-105.2296227">
  <ele>1583.0</ele>
  <time>2026-08-28T17:56:50Z</time>
  <course>65.99</course>
  <speed>0.8</speed>
  <fix>3d</fix>
</trkpt>
<trkpt lat="40.0714322" lon="-105.229621">
  <ele>1583.0</ele>
  <time>2026-08-28T17:56:50Z</time>
  <course>249.71</course>
  <speed>0.147648230602334</speed>
  <fix>3d</fix>
</trkpt>
<trkpt lat="40.0714322" lon="-105.229621">
  <ele>1583.0</ele>
  <time>2026-08-28T17:56:50Z</time>
  <course>65.99</course>
  <speed>0.8</speed>
  <fix>3d</fix>
</trkpt>
<trkpt lat="40.0714322" lon="-105.229621">
  <ele>1583.0</ele>
  <time>2026-08-28T17:56:50Z</time>
  <course>249.7</course>
  <speed>0.14317821063276354</speed>
  <fix>3d</fix>
</trkpt>
<trkpt lat="40.0714322" lon="-105.229621">
  <ele>1583.0</ele>
  <time>2026-08-28T17:56:50Z</time>
  <course>65.99</course>
  <speed>0.8</speed>
  <fix>3d</fix>
</trkpt>
<trkpt lat="40.0714327" lon="-105.2296193">
  <ele>1583.0</ele>
  <time>2026-08-28T17:56:50Z</time>
  <course>249.69</course>
  <speed>0.14317821063276354</speed>
  <fix>3d</fix>
</trkpt>
<trkpt lat="40.0714327" lon="-105.2296193">
  <ele>1583.0</ele>
  <time>2026-08-28T17:56:50Z</time>
  <course>65.99</course>
  <speed>0.8</speed>
  <fix>3d</fix>
</trkpt>
<trkpt lat="40.0714327" lon="-105.2296193">
  <ele>1583.0</ele>
  <time>2026-08-28T17:56:50Z</time>
  <course>249.68</course>
  <speed>0.14317821063276354</speed>
  <fix>3d</fix>
</trkpt>
<trkpt lat="40.0714333" lon="-105.2296176">
  <ele>1583.0</ele>
  <time>2026-08-28T17:56:50Z</time>
  <course>65.99</course>
  <speed>0.8</speed>
  <fix>3d</fix>
</trkpt>
<trkpt lat="40.0714333" lon="-105.2296176">
  <ele>1583.0</ele>
  <time>2026-08-28T17:56:50Z</time>
  <course>249.67</course>
  <speed>0.14317821063276354</speed>
  <fix>3d</fix>
</trkpt>
<trkpt lat="40.0714333" lon="-105.2296176">
  <ele>1583.0</ele>
  <time>2026-08-28T17:56:50Z</time>
  <course>65.99</course>
  <speed>0.8</speed>
  <fix>3d</fix>
</trkpt>
<trkpt lat="40.0714333" lon="-105.2296176">
  <ele>1583.0</ele>
  <time>2026-08-28T17:56:50Z</time>
  <course>249.66</course>
  <speed>0.14317821063276354</speed>
  <fix>3d</fix>
</trkpt>
<trkpt lat="40.0714339" lon="-105.2296159">
  <ele>1583.0</ele>
  <time>2026-08-28T17:56:50Z</time>
  <course>65.99</course>
  <speed>0.8</speed>
  <fix>3d</fix>
</trkpt>
<trkpt lat="40.0714339" lon="-105.2296159">
  <ele>1583.0</ele>
  <time>2026-08-28T17:56:50Z</time>
  <course>249.65</course>
  <speed>0.14317821063276354</speed>
  <fix>3d</fix>
</trkpt>
<trkpt lat="40.0714339" lon="-105.2296159">
  <ele>1583.0</ele>
  <time>2026-08-28T17:56:50Z</time>
  <course>65.99</course>
  <speed>0.8</speed>
  <fix>3d</fix>
</trkpt>
<trkpt lat="40.0714339" lon="-105.2296159">
  <ele>1583.0</ele>
  <time>2026-08-28T17:56:50Z</time>
  <course>249.64</course>
  <speed>0.1341640786499874</speed>
  <fix>3d</fix>
</trkpt>
<trkpt lat="40.0714344" lon="-105.2296141">
  <ele>1583.0</ele>
  <time>2026-08-28T17:56:50Z</time>
  <course>65.99</course>
  <speed>0.8</speed>
  <fix>3d</fix>
</trkpt>
<trkpt lat="40.0714344" lon="-105.2296141">
  <ele>1583.0</ele>
  <time>2026-08-28T17:56:50Z</time>
  <course>249.63</course>
  <speed>0.1341640786499874</speed>
  <fix>3d</fix>
</trkpt>
<trkpt lat="40.0714344" lon="-105.2296141">
  <ele>1583.0</ele>
  <time>2026-08-28T17:56:50Z</time>
  <course>65.99</course>
  <speed>0.8</speed>
  <fix>3d</fix>
</trkpt>
<trkpt lat="40.0714344" lon="-105.2296141">
  <ele>1583.0</ele>
  <time>2026-08-28T17:56:50Z</time>
  <course>249.61</course>
  <speed>0.1341640786499874</speed>
  <fix>3d</fix>
</trkpt>
<trkpt lat="40.0714351" lon="-105.2296124">
  <ele>1583.0</ele>
  <time>2026-08-28T17:56:50Z</time>
  <course>65.99</course>
  <speed>0.8</speed>
  <fix>3d</fix>
</trkpt>
<trkpt lat="40.0714351" lon="-105.2296124">
  <ele>1583.0</ele>
  <time>2026-08-28T17:56:50Z</time>
  <course>249.6</course>
  <speed>0.1341640786499874</speed>
  <fix>3d</fix>
</trkpt>
<trkpt lat="40.0714351" lon="-105.2296124">
  <ele>1583.0</ele>
  <time>2026-08-28T17:56:50Z</time>
  <course>65.99</course>
  <speed>0.8</speed>
  <fix>3d</fix>
</trkpt>
<trkpt lat="40.0714351" lon="-105.2296124">
  <ele>1583.0</ele>
  <time>2026-08-28T17:56:50Z</time>
  <course>249.59</course>
  <speed>0.1341640786499874</speed>
  <fix>3d</fix>
</trkpt>
<trkpt lat="40.0714356" lon="-105.2296107">
  <ele>1583.0</ele>
  <time>2026-08-28T17:56:50Z</time>
  <course>65.99</course>
  <speed>0.8</speed>
  <fix>3d</fix>
</trkpt>
<trkpt lat="40.0714356" lon="-105.2296107">
  <ele>1583.0</ele>
  <time>2026-08-28T17:56:50Z</time>
  <course>249.58</course>
  <speed>0.1341640786499874</speed>
  <fix>3d</fix>
</trkpt>
<trkpt lat="40.0714356" lon="-105.2296107">
  <ele>1583.0</ele>
  <time>2026-08-28T17:56:50Z</time>
  <course>65.99</course>
  <speed>0.8</speed>
  <fix>3d</fix>
</trkpt>
<trkpt lat="40.0714356" lon="-105.2296107">
  <ele>1583.0</ele>
  <time>2026-08-28T17:56:50Z</time>
  <course>249.57</course>
  <speed>0.1341640786499874</speed>
  <fix>3d</fix>
</trkpt>
<trkpt lat="40.0714363" lon="-105.229609">
  <ele>1583.0</ele>
  <time>2026-08-28T17:56:50Z</time>
  <course>65.99</course>
  <speed>0.8</speed>
  <fix>3d</fix>
</trkpt>
<trkpt lat="40.0714363" lon="-105.229609">
  <ele>1583.0</ele>
  <time>2026-08-28T17:56:50Z</time>
  <course>249.56</course>
  <speed>0.1341640786499874</speed>
  <fix>3d</fix>
</trkpt>
<trkpt lat="40.0714363" lon="-105.229609">
  <ele>1583.0</ele>
  <time>2026-08-28T17:56:50Z</time>
  <course>65.99</course>
  <speed>0.8</speed>
  <fix>3d</fix>
</trkpt>
<trkpt lat="40.0714363" lon="-105.229609">
  <ele>1583.0</ele>
  <time>2026-08-28T17:56:50Z</time>
  <course>249.55</course>
  <speed>0.1341640786499874</speed>
  <fix>3d</fix>
</trkpt>
<trkpt lat="40.0714368" lon="-105.2296073">
  <ele>1583.0</ele>
  <time>2026-08-28T17:56:50Z</time>
  <course>65.99</course>
  <speed>0.8</speed>
  <fix>3d</fix>
</trkpt>
<trkpt lat="40.0714368" lon="-105.2296073">
  <ele>1583.0</ele>
  <time>2026-08-28T17:56:50Z</time>
  <course>249.54</course>
  <speed>0.12529964086141668</speed>
  <fix>3d</fix>
</trkpt>
<trkpt lat="40.0714368" lon="-105.2296073">
  <ele>1583.0</ele>
  <time>2026-08-28T17:56:50Z</time>
  <course>65.99</course>
  <speed>0.8</speed>
  <fix>3d</fix>
</trkpt>
<trkpt lat="40.0714368" lon="-105.2296073">
  <ele>1583.0</ele>
  <time>2026-08-28T17:56:50Z</time>
  <course>249.53</course>
  <speed>0.12529964086141668</speed>
  <fix>3d</fix>
</trkpt>
<trkpt lat="40.0714368" lon="-105.2296073">
  <ele>1583.0</ele>
  <time>2026-08-28T17:56:50Z</time>
  <course>65.99</course>
  <speed>0.8</speed>
  <fix>3d</fix>
</trkpt>
<trkpt lat="40.0714374" lon="-105.2296055">
  <ele>1583.0</ele>
  <time>2026-08-28T17:56:50Z</time>
  <course>249.51</course>
  <speed>0.12529964086141668</speed>
  <fix>3d</fix>
</trkpt>
<trkpt lat="40.0714374" lon="-105.2296055">
  <ele>1583.0</ele>
  <time>2026-08-28T17:56:50Z</time>
  <course>65.99</course>
  <speed>0.8</speed>
  <fix>3d</fix>
</trkpt>
<trkpt lat="40.0714374" lon="-105.2296055">
  <ele>1583.0</ele>
  <time>2026-08-28T17:56:50Z</time>
  <course>249.5</course>
  <speed>0.12529964086141668</speed>
  <fix>3d</fix>
</trkpt>
<trkpt lat="40.0714374" lon="-105.2296055">
  <ele>1583.0</ele>
  <time>2026-08-28T17:56:50Z</time>
  <course>65.99</course>
  <speed>0.8</speed>
  <fix>3d</fix>
</trkpt>
<trkpt lat="40.071438" lon="-105.2296038">
  <ele>1583.0</ele>
  <time>2026-08-28T17:56:50Z</time>
  <course>249.49</course>
  <speed>0.12529964086141668</speed>
  <fix>3d</fix>
</trkpt>
<trkpt lat="40.071438" lon="-105.2296038">
  <ele>1583.0</ele>
  <time>2026-08-28T17:56:50Z</time>
  <course>65.99</course>
  <speed>0.8</speed>
  <fix>3d</fix>
</trkpt>
<trkpt lat="40.071438" lon="-105.2296038">
  <ele>1583.0</ele>
  <time>2026-08-28T17:56:50Z</time>
  <course>249.48</course>
  <speed>0.12529964086141668</speed>
  <fix>3d</fix>
</trkpt>
<trkpt lat="40.071438" lon="-105.2296038">
  <ele>1583.0</ele>
  <time>2026-08-28T17:56:50Z</time>
  <course>65.99</course>
  <speed>0.8</speed>
  <fix>3d</fix>
</trkpt>
<trkpt lat="40.0714385" lon="-105.2296021">
  <ele>1583.0</ele>
  <time>2026-08-28T17:56:50Z</time>
  <course>249.47</course>
  <speed>0.12529964086141668</speed>
  <fix>3d</fix>
</trkpt>
<trkpt lat="40.0714385" lon="-105.2296021">
  <ele>1583.0</ele>
  <time>2026-08-28T17:56:50Z</time>
  <course>65.99</course>
  <speed>0.8</speed>
  <fix>3d</fix>
</trkpt>
<trkpt lat="40.0714385" lon="-105.2296021">
  <ele>1583.0</ele>
  <time>2026-08-28T17:56:50Z</time>
  <course>249.46</course>
  <speed>0.12529964086141668</speed>
  <fix>3d</fix>
</trkpt>
<trkpt lat="40.0714392" lon="-105.2296004">
  <ele>1583.0</ele>
  <time>2026-08-28T17:56:50Z</time>
  <course>65.99</course>
  <speed>0.8</speed>
  <fix>3d</fix>
</trkpt>
<trkpt lat="40.0714392" lon="-105.2296004">
  <ele>1583.0</ele>
  <time>2026-08-28T17:56:50Z</time>
  <course>249.45</course>
  <speed>0.12083045973594572</speed>
  <fix>3d</fix>
</trkpt>
<trkpt lat="40.0714392" lon="-105.2296004">
  <ele>1583.0</ele>
  <time>2026-08-28T17:56:50Z</time>
  <course>65.99</course>
  <speed>0.8</speed>
  <fix>3d</fix>
</trkpt>
<trkpt lat="40.0714392" lon="-105.2296004">
  <ele>1583.0</ele>
  <time>2026-08-28T17:56:50Z</time>
  <course>249.44</course>
  <speed>0.12083045973594572</speed>
  <fix>3d</fix>
</trkpt>
<trkpt lat="40.0714397" lon="-105.2295987">
  <ele>1583.0</ele>
  <time>2026-08-28T17:56:50Z</time>
  <course>65.99</course>
  <speed>0.8</speed>
  <fix>3d</fix>
</trkpt>
<trkpt lat="40.0714397" lon="-105.2295987">
  <ele>1583.0</ele>
  <time>2026-08-28T17:56:50Z</time>
  <course>249.43</course>
  <speed>0.1118033988749895</speed>
  <fix>3d</fix>
</trkpt>
<trkpt lat="40.0714397" lon="-105.2295987">
  <ele>1583.0</ele>
  <time>2026-08-28T17:56:50Z</time>
  <course>65.99</course>
  <speed>0.8</speed>
  <fix>3d</fix>
</trkpt>
<trkpt lat="40.0714397" lon="-105.2295987">
  <ele>1583.0</ele>
  <time>2026-08-28T17:56:50Z</time>
  <course>249.41</course>
  <speed>0.1118033988749895</speed>
  <fix>3d</fix>
</trkpt>
<trkpt lat="40.0714404" lon="-105.229597">
  <ele>1583.0</ele>
  <time>2026-08-28T17:56:50Z</time>
  <course>65.99</course>
  <speed>0.8</speed>
  <fix>3d</fix>
</trkpt>
<trkpt lat="40.0714404" lon="-105.229597">
  <ele>1583.0</ele>
  <time>2026-08-28T17:56:50Z</time>
  <course>249.4</course>
  <speed>0.1118033988749895</speed>
  <fix>3d</fix>
</trkpt>
<trkpt lat="40.0714404" lon="-105.229597">
  <ele>1583.0</ele>
  <time>2026-08-28T17:56:50Z</time>
  <course>65.99</course>
  <speed>0.8</speed>
  <fix>3d</fix>
</trkpt>
<trkpt lat="40.0714404" lon="-105.229597">
  <ele>1583.0</ele>
  <time>2026-08-28T17:56:50Z</time>
  <course>249.39</course>
  <speed>0.1118033988749895</speed>
  <fix>3d</fix>
</trkpt>
<trkpt lat="40.0714409" lon="-105.2295952">
  <ele>1583.0</ele>
  <time>2026-08-28T17:56:50Z</time>
  <course>65.99</course>
  <speed>0.8</speed>
  <fix>3d</fix>
</trkpt>
<trkpt lat="40.0714409" lon="-105.2295952">
  <ele>1583.0</ele>
  <time>2026-08-28T17:56:50Z</time>
  <course>249.38</course>
  <speed>0.1118033988749895</speed>
  <fix>3d</fix>
</trkpt>
<trkpt lat="40.0714409" lon="-105.2295952">
  <ele>1583.0</ele>
  <time>2026-08-28T17:56:50Z</time>
  <course>65.99</course>
  <speed>0.8</speed>
  <fix>3d</fix>
</trkpt>
<trkpt lat="40.0714409" lon="-105.2295952">
  <ele>1583.0</ele>
  <time>2026-08-28T17:56:50Z</time>
  <course>249.37</course>
  <speed>0.1118033988749895</speed>
  <fix>3d</fix>
</trkpt>
<trkpt lat="40.0714415" lon="-105.2295935">
  <ele>1583.0</ele>
  <time>2026-08-28T17:56:50Z</time>
  <course>65.99</course>
  <speed>0.8</speed>
  <fix>3d</fix>
</trkpt>
<trkpt lat="40.0714415" lon="-105.2295935">
  <ele>1583.0</ele>
  <time>2026-08-28T17:56:50Z</time>
  <course>249.36</course>
  <speed>0.1118033988749895</speed>
  <fix>3d</fix>
</trkpt>
<trkpt lat="40.0714415" lon="-105.2295935">
  <ele>1583.0</ele>
  <time>2026-08-28T17:56:50Z</time>
  <course>65.99</course>
  <speed>0.8</speed>
  <fix>3d</fix>
</trkpt>
<trkpt lat="40.0714415" lon="-105.2295935">
  <ele>1583.0</ele>
  <time>2026-08-28T17:56:50Z</time>
  <course>249.35</course>
  <speed>0.1118033988749895</speed>
  <fix>3d</fix>
</trkpt>
<trkpt lat="40.0714421" lon="-105.2295918">
  <ele>1583.0</ele>
  <time>2026-08-28T17:56:50Z</time>
  <course>65.99</course>
  <speed>0.8</speed>
  <fix>3d</fix>
</trkpt>
<trkpt lat="40.0714421" lon="-105.2295918">
  <ele>1583.0</ele>
  <time>2026-08-28T17:56:50Z</time>
  <course>249.34</course>
  <speed>0.1118033988749895</speed>
  <fix>3d</fix>
</trkpt>
<trkpt lat="40.0714421" lon="-105.2295918">
  <ele>1583.0</ele>
  <time>2026-08-28T17:56:50Z</time>
  <course>65.99</course>
  <speed>0.8</speed>
  <fix>3d</fix>
</trkpt>
<trkpt lat="40.0714421" lon="-105.2295918">
  <ele>1583.0</ele>
  <time>2026-08-28T17:56:50Z</time>
  <course>249.32</course>
  <speed>0.1118033988749895</speed>
  <fix>3d</fix>
</trkpt>
<trkpt lat="40.0714426" lon="-105.2295901">
  <ele>1583.0</ele>
  <time>2026-08-28T17:56:50Z</time>
  <course>65.99</course>
  <speed>0.8</speed>
  <fix>3d</fix>
</trkpt>
<trkpt lat="40.0714426" lon="-105.2295901">
  <ele>1583.0</ele>
  <time>2026-08-28T17:56:50Z</time>
  <course>249.31</course>
  <speed>0.10295630140987001</speed>
  <fix>3d</fix>
</trkpt>
<trkpt lat="40.0714426" lon="-105.2295901">
  <ele>1583.0</ele>
  <time>2026-08-28T17:56:50Z</time>
  <course>65.99</course>
  <speed>0.8</speed>
  <fix>3d</fix>
</trkpt>
<trkpt lat="40.0714426" lon="-105.2295901">
  <ele>1583.0</ele>
  <time>2026-08-28T17:56:50Z</time>
  <course>249.3</course>
  <speed>0.10295630140987001</speed>
  <fix>3d</fix>
</trkpt>
<trkpt lat="40.0714426" lon="-105.2295901">
  <ele>1583.0</ele>
  <time>2026-08-28T17:56:50Z</time>
  <course>65.99</course>
  <speed>0.8</speed>
  <fix>3d</fix>
</trkpt>
<trkpt lat="40.0714433" lon="-105.2295884">
  <ele>1583.0</ele>
  <time>2026-08-28T17:56:50Z</time>
  <course>249.29</course>
  <speed>0.10295630140987001</speed>
  <fix>3d</fix>
</trkpt>
<trkpt lat="40.0714433" lon="-105.2295884">
  <ele>1583.0</ele>
  <time>2026-08-28T17:56:50Z</time>
  <course>65.99</course>
  <speed>0.8</speed>
  <fix>3d</fix>
</trkpt>
<trkpt lat="40.0714433" lon="-105.2295884">
  <ele>1583.0</ele>
  <time>2026-08-28T17:56:50Z</time>
  <course>249.28</course>
  <speed>0.10295630140987001</speed>
  <fix>3d</fix>
</trkpt>
<trkpt lat="40.0714433" lon="-105.2295884">
  <ele>1583.0</ele>
  <time>2026-08-28T17:56:50Z</time>
  <course>65.99</course>
  <speed>0.8</speed>
  <fix>3d</fix>
</trkpt>
<trkpt lat="40.0714438" lon="-105.2295866">
  <ele>1583.0</ele>
  <time>2026-08-28T17:56:50Z</time>
  <course>249.27</course>
  <speed>0.10295630140987001</speed>
  <fix>3d</fix>
</trkpt>
<trkpt lat="40.0714438" lon="-105.2295866">
  <ele>1583.0</ele>
  <time>2026-08-28T17:56:50Z</time>
  <course>65.99</course>
  <speed>0.8</speed>
  <fix>3d</fix>
</trkpt>
<trkpt lat="40.0714438" lon="-105.2295866">
  <ele>1583.0</ele>
  <time>2026-08-28T17:56:51Z</time>
  <course>249.26</course>
  <speed>0.10295630140987001</speed>
  <fix>3d</fix>
</trkpt>
<trkpt lat="40.0714438" lon="-105.2295866">
  <ele>1583.0</ele>
  <time>2026-08-28T17:56:51Z</time>
  <course>65.99</course>
  <speed>0.8</speed>
  <fix>3d</fix>
</trkpt>
<trkpt lat="40.0714445" lon="-105.2295849">
  <ele>1583.0</ele>
  <time>2026-08-28T17:56:51Z</time>
  <course>249.25</course>
  <speed>0.10295630140987001</speed>
  <fix>3d</fix>
</trkpt>
<trkpt lat="40.0714445" lon="-105.2295849">
  <ele>1583.0</ele>
  <time>2026-08-28T17:56:51Z</time>
  <course>65.99</course>
  <speed>0.8</speed>
  <fix>3d</fix>
</trkpt>
<trkpt lat="40.0714445" lon="-105.2295849">
  <ele>1583.0</ele>
  <time>2026-08-28T17:56:51Z</time>
  <course>249.24</course>
  <speed>0.10295630140987001</speed>
  <fix>3d</fix>
</trkpt>
<trkpt lat="40.0714445" lon="-105.2295849">
  <ele>1583.0</ele>
  <time>2026-08-28T17:56:51Z</time>
  <course>65.99</course>
  <speed>0.8</speed>
  <fix>3d</fix>
</trkpt>
<trkpt lat="40.071445" lon="-105.2295832">
  <ele>1583.0</ele>
  <time>2026-08-28T17:56:51Z</time>
  <course>249.23</course>
  <speed>0.10295630140987001</speed>
  <fix>3d</fix>
</trkpt>
<trkpt lat="40.071445" lon="-105.2295832">
  <ele>1583.0</ele>
  <time>2026-08-28T17:56:51Z</time>
  <course>65.99</course>
  <speed>0.8</speed>
  <fix>3d</fix>
</trkpt>
<trkpt lat="40.071445" lon="-105.2295832">
  <ele>1583.0</ele>
  <time>2026-08-28T17:56:51Z</time>
  <course>249.22</course>
  <speed>0.10295630140987001</speed>
  <fix>3d</fix>
</trkpt>
<trkpt lat="40.0714457" lon="-105.2295815">
  <ele>1583.0</ele>
  <time>2026-08-28T17:56:51Z</time>
  <course>65.99</course>
  <speed>0.8</speed>
  <fix>3d</fix>
</trkpt>
<trkpt lat="40.0714457" lon="-105.2295815">
  <ele>1583.0</ele>
  <time>2026-08-28T17:56:51Z</time>
  <course>249.2</course>
  <speed>0.10295630140987001</speed>
  <fix>3d</fix>
</trkpt>
<trkpt lat="40.0714457" lon="-105.2295815">
  <ele>1583.0</ele>
  <time>2026-08-28T17:56:51Z</time>
  <course>65.99</course>
  <speed>0.8</speed>
  <fix>3d</fix>
</trkpt>
<trkpt lat="40.0714457" lon="-105.2295815">
  <ele>1583.0</ele>
  <time>2026-08-28T17:56:51Z</time>
  <course>249.19</course>
  <speed>0.10295630140987001</speed>
  <fix>3d</fix>
</trkpt>
<trkpt lat="40.0714462" lon="-105.2295798">
  <ele>1583.0</ele>
  <time>2026-08-28T17:56:51Z</time>
  <course>65.99</course>
  <speed>0.8</speed>
  <fix>3d</fix>
</trkpt>
<trkpt lat="40.0714462" lon="-105.2295798">
  <ele>1583.0</ele>
  <time>2026-08-28T17:56:51Z</time>
  <course>249.18</course>
  <speed>0.09433981132056603</speed>
  <fix>3d</fix>
</trkpt>
<trkpt lat="40.0714462" lon="-105.2295798">
  <ele>1583.0</ele>
  <time>2026-08-28T17:56:51Z</time>
  <course>65.99</course>
  <speed>0.8</speed>
  <fix>3d</fix>
</trkpt>
<trkpt lat="40.0714462" lon="-105.2295798">
  <ele>1583.0</ele>
  <time>2026-08-28T17:56:51Z</time>
  <course>249.17</course>
  <speed>0.09433981132056603</speed>
  <fix>3d</fix>
</trkpt>
<trkpt lat="40.0714468" lon="-105.229578">
  <ele>1583.0</ele>
  <time>2026-08-28T17:56:51Z</time>
  <course>65.99</course>
  <speed>0.8</speed>
  <fix>3d</fix>
</trkpt>
<trkpt lat="40.0714468" lon="-105.229578">
  <ele>1583.0</ele>
  <time>2026-08-28T17:56:51Z</time>
  <course>249.16</course>
  <speed>0.09433981132056603</speed>
  <fix>3d</fix>
</trkpt>
<trkpt lat="40.0714468" lon="-105.229578">
  <ele>1583.0</ele>
  <time>2026-08-28T17:56:51Z</time>
  <course>65.99</course>
  <speed>0.8</speed>
  <fix>3d</fix>
</trkpt>
<trkpt lat="40.0714468" lon="-105.229578">
  <ele>1583.0</ele>
  <time>2026-08-28T17:56:51Z</time>
  <course>249.15</course>
  <speed>0.09433981132056603</speed>
  <fix>3d</fix>
</trkpt>
<trkpt lat="40.0714473" lon="-105.2295763">
  <ele>1583.0</ele>
  <time>2026-08-28T17:56:51Z</time>
  <course>65.99</course>
  <speed>0.8</speed>
  <fix>3d</fix>
</trkpt>
<trkpt lat="40.0714473" lon="-105.2295763">
  <ele>1583.0</ele>
  <time>2026-08-28T17:56:51Z</time>
  <course>249.14</course>
  <speed>0.09433981132056603</speed>
  <fix>3d</fix>
</trkpt>
<trkpt lat="40.0714473" lon="-105.2295763">
  <ele>1583.0</ele>
  <time>2026-08-28T17:56:51Z</time>
  <course>65.99</course>
  <speed>0.8</speed>
  <fix>3d</fix>
</trkpt>
<trkpt lat="40.0714473" lon="-105.2295763">
  <ele>1583.0</ele>
  <time>2026-08-28T17:56:51Z</time>
  <course>249.13</course>
  <speed>0.09433981132056603</speed>
  <fix>3d</fix>
</trkpt>
<trkpt lat="40.071448" lon="-105.2295746">
  <ele>1583.0</ele>
  <time>2026-08-28T17:56:51Z</time>
  <course>65.99</course>
  <speed>0.8</speed>
  <fix>3d</fix>
</trkpt>
<trkpt lat="40.071448" lon="-105.2295746">
  <ele>1583.0</ele>
  <time>2026-08-28T17:56:51Z</time>
  <course>249.12</course>
  <speed>0.09433981132056603</speed>
  <fix>3d</fix>
</trkpt>
<trkpt lat="40.071448" lon="-105.2295746">
  <ele>1583.0</ele>
  <time>2026-08-28T17:56:51Z</time>
  <course>65.99</course>
  <speed>0.8</speed>
  <fix>3d</fix>
</trkpt>
<trkpt lat="40.071448" lon="-105.2295746">
  <ele>1583.0</ele>
  <time>2026-08-28T17:56:51Z</time>
  <course>249.11</course>
  <speed>0.09433981132056603</speed>
  <fix>3d</fix>
</trkpt>
<trkpt lat="40.0714485" lon="-105.2295729">
  <ele>1583.0</ele>
  <time>2026-08-28T17:56:51Z</time>
  <course>65.99</course>
  <speed>0.8</speed>
  <fix>3d</fix>
</trkpt>
<trkpt lat="40.0714485" lon="-105.2295729">
  <ele>1583.0</ele>
  <time>2026-08-28T17:56:51Z</time>
  <course>249.1</course>
  <speed>0.09433981132056603</speed>
  <fix>3d</fix>
</trkpt>
<trkpt lat="40.0714485" lon="-105.2295729">
  <ele>1583.0</ele>
  <time>2026-08-28T17:56:51Z</time>
  <course>65.99</course>
  <speed>0.8</speed>
  <fix>3d</fix>
</trkpt>
<trkpt lat="40.0714485" lon="-105.2295729">
  <ele>1583.0</ele>
  <time>2026-08-28T17:56:51Z</time>
  <course>249.09</course>
  <speed>0.09433981132056603</speed>
  <fix>3d</fix>
</trkpt>
<trkpt lat="40.0714492" lon="-105.2295712">
  <ele>1583.0</ele>
  <time>2026-08-28T17:56:51Z</time>
  <course>65.99</course>
  <speed>0.8</speed>
  <fix>3d</fix>
</trkpt>
<trkpt lat="40.0714492" lon="-105.2295712">
  <ele>1583.0</ele>
  <time>2026-08-28T17:56:51Z</time>
  <course>249.08</course>
  <speed>0.08944271909999159</speed>
  <fix>3d</fix>
</trkpt>
<trkpt lat="40.0714492" lon="-105.2295712">
  <ele>1583.0</ele>
  <time>2026-08-28T17:56:51Z</time>
  <course>65.99</course>
  <speed>0.8</speed>
  <fix>3d</fix>
</trkpt>
<trkpt lat="40.0714492" lon="-105.2295712">
  <ele>1583.0</ele>
  <time>2026-08-28T17:56:51Z</time>
  <course>249.07</course>
  <speed>0.08944271909999159</speed>
  <fix>3d</fix>
</trkpt>
<trkpt lat="40.0714492" lon="-105.2295712">
  <ele>1583.0</ele>
  <time>2026-08-28T17:56:51Z</time>
  <course>65.99</course>
  <speed>0.8</speed>
  <fix>3d</fix>
</trkpt>
<trkpt lat="40.0714497" lon="-105.2295694">
  <ele>1583.0</ele>
  <time>2026-08-28T17:56:51Z</time>
  <course>249.06</course>
  <speed>0.08944271909999159</speed>
  <fix>3d</fix>
</trkpt>
<trkpt lat="40.0714497" lon="-105.2295694">
  <ele>1583.0</ele>
  <time>2026-08-28T17:56:51Z</time>
  <course>65.99</course>
  <speed>0.8</speed>
  <fix>3d</fix>
</trkpt>
<trkpt lat="40.0714497" lon="-105.2295694">
  <ele>1583.0</ele>
  <time>2026-08-28T17:56:51Z</time>
  <course>249.05</course>
  <speed>0.08062257748298549</speed>
  <fix>3d</fix>
</trkpt>
<trkpt lat="40.0714497" lon="-105.2295694">
  <ele>1583.0</ele>
  <time>2026-08-28T17:56:51Z</time>
  <course>65.99</course>
  <speed>0.8</speed>
  <fix>3d</fix>
</trkpt>
<trkpt lat="40.0714503" lon="-105.2295677">
  <ele>1583.0</ele>
  <time>2026-08-28T17:56:51Z</time>
  <course>249.04</course>
  <speed>0.08062257748298549</speed>
  <fix>3d</fix>
</trkpt>
<trkpt lat="40.0714503" lon="-105.2295677">
  <ele>1583.0</ele>
  <time>2026-08-28T17:56:51Z</time>
  <course>65.99</course>
  <speed>0.8</speed>
  <fix>3d</fix>
</trkpt>
<trkpt lat="40.0714503" lon="-105.2295677">
  <ele>1583.0</ele>
  <time>2026-08-28T17:56:51Z</time>
  <course>249.03</course>
  <speed>0.08062257748298549</speed>
  <fix>3d</fix>
</trkpt>
<trkpt lat="40.0714503" lon="-105.2295677">
  <ele>1583.0</ele>
  <time>2026-08-28T17:56:51Z</time>
  <course>65.99</course>
  <speed>0.8</speed>
  <fix>3d</fix>
</trkpt>
<trkpt lat="40.0714509" lon="-105.229566">
  <ele>1583.0</ele>
  <time>2026-08-28T17:56:51Z</time>
  <course>249.02</course>
  <speed>0.08062257748298549</speed>
  <fix>3d</fix>
</trkpt>
<trkpt lat="40.0714509" lon="-105.229566">
  <ele>1583.0</ele>
  <time>2026-08-28T17:56:51Z</time>
  <course>65.99</course>
  <speed>0.8</speed>
  <fix>3d</fix>
</trkpt>
<trkpt lat="40.0714509" lon="-105.229566">
  <ele>1583.0</ele>
  <time>2026-08-28T17:56:51Z</time>
  <course>249.01</course>
  <speed>0.08062257748298549</speed>
  <fix>3d</fix>
</trkpt>
<trkpt lat="40.0714514" lon="-105.2295643">
  <ele>1583.0</ele>
  <time>2026-08-28T17:56:51Z</time>
  <course>65.99</course>
  <speed>0.8</speed>
  <fix>3d</fix>
</trkpt>
<trkpt lat="40.0714514" lon="-105.2295643">
  <ele>1583.0</ele>
  <time>2026-08-28T17:56:51Z</time>
  <course>249.0</course>
  <speed>0.08062257748298549</speed>
  <fix>3d</fix>
</trkpt>
<trkpt lat="40.0714514" lon="-105.2295643">
  <ele>1583.0</ele>
  <time>2026-08-28T17:56:51Z</time>
  <course>65.99</course>
  <speed>0.8</speed>
  <fix>3d</fix>
</trkpt>
<trkpt lat="40.0714514" lon="-105.2295643">
  <ele>1583.0</ele>
  <time>2026-08-28T17:56:51Z</time>
  <course>248.99</course>
  <speed>0.08062257748298549</speed>
  <fix>3d</fix>
</trkpt>
<trkpt lat="40.0714521" lon="-105.2295626">
  <ele>1583.0</ele>
  <time>2026-08-28T17:56:51Z</time>
  <course>65.99</course>
  <speed>0.8</speed>
  <fix>3d</fix>
</trkpt>
<trkpt lat="40.0714521" lon="-105.2295626">
  <ele>1583.0</ele>
  <time>2026-08-28T17:56:51Z</time>
  <course>248.98</course>
  <speed>0.08062257748298549</speed>
  <fix>3d</fix>
</trkpt>
<trkpt lat="40.0714521" lon="-105.2295626">
  <ele>1583.0</ele>
  <time>2026-08-28T17:56:51Z</time>
  <course>65.99</course>
  <speed>0.8</speed>
  <fix>3d</fix>
</trkpt>
<trkpt lat="40.0714521" lon="-105.2295626">
  <ele>1583.0</ele>
  <time>2026-08-28T17:56:51Z</time>
  <course>248.97</course>
  <speed>0.08062257748298549</speed>
  <fix>3d</fix>
</trkpt>
<trkpt lat="40.0714526" lon="-105.2295608">
  <ele>1583.0</ele>
  <time>2026-08-28T17:56:51Z</time>
  <course>65.99</course>
  <speed>0.8</speed>
  <fix>3d</fix>
</trkpt>
<trkpt lat="40.0714526" lon="-105.2295608">
  <ele>1583.0</ele>
  <time>2026-08-28T17:56:51Z</time>
  <course>248.96</course>
  <speed>0.08062257748298549</speed>
  <fix>3d</fix>
</trkpt>
<trkpt lat="40.0714526" lon="-105.2295608">
  <ele>1583.0</ele>
  <time>2026-08-28T17:56:51Z</time>
  <course>65.99</course>
  <speed>0.8</speed>
  <fix>3d</fix>
</trkpt>
<trkpt lat="40.0714526" lon="-105.2295608">
  <ele>1583.0</ele>
  <time>2026-08-28T17:56:51Z</time>
  <course>248.95</course>
  <speed>0.08062257748298549</speed>
  <fix>3d</fix>
</trkpt>
<trkpt lat="40.0714533" lon="-105.2295591">
  <ele>1583.0</ele>
  <time>2026-08-28T17:56:51Z</time>
  <course>65.99</course>
  <speed>0.8</speed>
  <fix>3d</fix>
</trkpt>
<trkpt lat="40.0714533" lon="-105.2295591">
  <ele>1583.0</ele>
  <time>2026-08-28T17:56:51Z</time>
  <course>248.94</course>
  <speed>0.08062257748298549</speed>
  <fix>3d</fix>
</trkpt>
<trkpt lat="40.0714533" lon="-105.2295591">
  <ele>1583.0</ele>
  <time>2026-08-28T17:56:51Z</time>
  <course>65.99</course>
  <speed>0.8</speed>
  <fix>3d</fix>
</trkpt>
<trkpt lat="40.0714533" lon="-105.2295591">
  <ele>1583.0</ele>
  <time>2026-08-28T17:56:51Z</time>
  <course>248.93</course>
  <speed>0.08062257748298549</speed>
  <fix>3d</fix>
</trkpt>
<trkpt lat="40.0714538" lon="-105.2295574">
  <ele>1583.0</ele>
  <time>2026-08-28T17:56:51Z</time>
  <course>65.99</course>
  <speed>0.8</speed>
  <fix>3d</fix>
</trkpt>
<trkpt lat="40.0714538" lon="-105.2295574">
  <ele>1583.0</ele>
  <time>2026-08-28T17:56:51Z</time>
  <course>248.92</course>
  <speed>0.08062257748298549</speed>
  <fix>3d</fix>
</trkpt>
<trkpt lat="40.0714538" lon="-105.2295574">
  <ele>1583.0</ele>
  <time>2026-08-28T17:56:51Z</time>
  <course>65.99</course>
  <speed>0.8</speed>
  <fix>3d</fix>
</trkpt>
<trkpt lat="40.0714538" lon="-105.2295574">
  <ele>1583.0</ele>
  <time>2026-08-28T17:56:51Z</time>
  <course>248.91</course>
  <speed>0.08062257748298549</speed>
  <fix>3d</fix>
</trkpt>
<trkpt lat="40.0714544" lon="-105.2295557">
  <ele>1583.0</ele>
  <time>2026-08-28T17:56:51Z</time>
  <course>65.99</course>
  <speed>0.8</speed>
  <fix>3d</fix>
</trkpt>
<trkpt lat="40.0714544" lon="-105.2295557">
  <ele>1583.0</ele>
  <time>2026-08-28T17:56:51Z</time>
  <course>248.9</course>
  <speed>0.08062257748298549</speed>
  <fix>3d</fix>
</trkpt>
<trkpt lat="40.0714544" lon="-105.2295557">
  <ele>1583.0</ele>
  <time>2026-08-28T17:56:51Z</time>
  <course>65.99</course>
  <speed>0.8</speed>
  <fix>3d</fix>
</trkpt>
<trkpt lat="40.0714544" lon="-105.2295557">
  <ele>1583.0</ele>
  <time>2026-08-28T17:56:51Z</time>
  <course>248.89</course>
  <speed>0.08062257748298549</speed>
  <fix>3d</fix>
</trkpt>
<trkpt lat="40.071455" lon="-105.2295539">
  <ele>1583.0</ele>
  <time>2026-08-28T17:56:51Z</time>
  <course>65.99</course>
  <speed>0.8</speed>
  <fix>3d</fix>
</trkpt>
<trkpt lat="40.071455" lon="-105.2295539">
  <ele>1583.0</ele>
  <time>2026-08-28T17:56:51Z</time>
  <course>248.88</course>
  <speed>0.07211102550927978</speed>
  <fix>3d</fix>
</trkpt>
<trkpt lat="40.071455" lon="-105.2295539">
  <ele>1583.0</ele>
  <time>2026-08-28T17:56:51Z</time>
  <course>65.99</course>
  <speed>0.8</speed>
  <fix>3d</fix>
</trkpt>
<trkpt lat="40.071455" lon="-105.2295539">
  <ele>1583.0</ele>
  <time>2026-08-28T17:56:51Z</time>
  <course>248.87</course>
  <speed>0.07211102550927978</speed>
  <fix>3d</fix>
</trkpt>
<trkpt lat="40.071455" lon="-105.2295539">
  <ele>1583.0</ele>
  <time>2026-08-28T17:56:51Z</time>
  <course>65.99</course>
  <speed>0.8</speed>
  <fix>3d</fix>
</trkpt>
<trkpt lat="40.0714555" lon="-105.2295522">
  <ele>1583.0</ele>
  <time>2026-08-28T17:56:51Z</time>
  <course>248.86</course>
  <speed>0.07211102550927978</speed>
  <fix>3d</fix>
</trkpt>
<trkpt lat="40.0714555" lon="-105.2295522">
  <ele>1583.0</ele>
  <time>2026-08-28T17:56:51Z</time>
  <course>65.99</course>
  <speed>0.8</speed>
  <fix>3d</fix>
</trkpt>
<trkpt lat="40.0714555" lon="-105.2295522">
  <ele>1583.0</ele>
  <time>2026-08-28T17:56:51Z</time>
  <course>248.85</course>
  <speed>0.07211102550927978</speed>
  <fix>3d</fix>
</trkpt>
<trkpt lat="40.0714555" lon="-105.2295522">
  <ele>1583.0</ele>
  <time>2026-08-28T17:56:51Z</time>
  <course>65.99</course>
  <speed>0.8</speed>
  <fix>3d</fix>
</trkpt>
<trkpt lat="40.0714562" lon="-105.2295505">
  <ele>1583.0</ele>
  <time>2026-08-28T17:56:51Z</time>
  <course>248.84</course>
  <speed>0.07211102550927978</speed>
  <fix>3d</fix>
</trkpt>
<trkpt lat="40.0714562" lon="-105.2295505">
  <ele>1583.0</ele>
  <time>2026-08-28T17:56:51Z</time>
  <course>65.99</course>
  <speed>0.8</speed>
  <fix>3d</fix>
</trkpt>
<trkpt lat="40.0714562" lon="-105.2295505">
  <ele>1583.0</ele>
  <time>2026-08-28T17:56:51Z</time>
  <course>248.83</course>
  <speed>0.07211102550927978</speed>
  <fix>3d</fix>
</trkpt>
<trkpt lat="40.0714562" lon="-105.2295505">
  <ele>1583.0</ele>
  <time>2026-08-28T17:56:51Z</time>
  <course>65.99</course>
  <speed>0.8</speed>
  <fix>3d</fix>
</trkpt>
<trkpt lat="40.0714567" lon="-105.2295488">
  <ele>1583.0</ele>
  <time>2026-08-28T17:56:51Z</time>
  <course>248.82</course>
  <speed>0.07211102550927978</speed>
  <fix>3d</fix>
</trkpt>
<trkpt lat="40.0714567" lon="-105.2295488">
  <ele>1583.0</ele>
  <time>2026-08-28T17:56:51Z</time>
  <course>65.99</course>
  <speed>0.8</speed>
  <fix>3d</fix>
</trkpt>
<trkpt lat="40.0714567" lon="-105.2295488">
  <ele>1583.0</ele>
  <time>2026-08-28T17:56:51Z</time>
  <course>248.81</course>
  <speed>0.07211102550927978</speed>
  <fix>3d</fix>
</trkpt>
<trkpt lat="40.0714567" lon="-105.2295488">
  <ele>1583.0</ele>
  <time>2026-08-28T17:56:51Z</time>
  <course>65.99</course>
  <speed>0.8</speed>
  <fix>3d</fix>
</trkpt>
<trkpt lat="40.0714574" lon="-105.2295471">
  <ele>1583.0</ele>
  <time>2026-08-28T17:56:51Z</time>
  <course>248.8</course>
  <speed>0.07211102550927978</speed>
  <fix>3d</fix>
</trkpt>
<trkpt lat="40.0714574" lon="-105.2295471">
  <ele>1583.0</ele>
  <time>2026-08-28T17:56:51Z</time>
  <course>65.99</course>
  <speed>0.8</speed>
  <fix>3d</fix>
</trkpt>
<trkpt lat="40.0714574" lon="-105.2295471">
  <ele>1583.0</ele>
  <time>2026-08-28T17:56:51Z</time>
  <course>248.79</course>
  <speed>0.07211102550927978</speed>
  <fix>3d</fix>
</trkpt>
<trkpt lat="40.0714579" lon="-105.2295453">
  <ele>1583.0</ele>
  <time>2026-08-28T17:56:51Z</time>
  <course>65.99</course>
  <speed>0.8</speed>
  <fix>3d</fix>
</trkpt>
<trkpt lat="40.0714579" lon="-105.2295453">
  <ele>1583.0</ele>
  <time>2026-08-28T17:56:51Z</time>
  <course>248.78</course>
  <speed>0.07211102550927978</speed>
  <fix>3d</fix>
</trkpt>
<trkpt lat="40.0714579" lon="-105.2295453">
  <ele>1583.0</ele>
  <time>2026-08-28T17:56:51Z</time>
  <course>65.99</course>
  <speed>0.8</speed>
  <fix>3d</fix>
</trkpt>
<trkpt lat="40.0714579" lon="-105.2295453">
  <ele>1583.0</ele>
  <time>2026-08-28T17:56:51Z</time>
  <course>248.78</course>
  <speed>0.07211102550927978</speed>
  <fix>3d</fix>
</trkpt>
<trkpt lat="40.0714585" lon="-105.2295436">
  <ele>1583.0</ele>
  <time>2026-08-28T17:56:51Z</time>
  <course>65.99</course>
  <speed>0.8</speed>
  <fix>3d</fix>
</trkpt>
<trkpt lat="40.0714585" lon="-105.2295436">
  <ele>1583.0</ele>
  <time>2026-08-28T17:56:51Z</time>
  <course>248.77</course>
  <speed>0.07211102550927978</speed>
  <fix>3d</fix>
</trkpt>
<trkpt lat="40.0714585" lon="-105.2295436">
  <ele>1583.0</ele>
  <time>2026-08-28T17:56:51Z</time>
  <course>65.99</course>
  <speed>0.8</speed>
  <fix>3d</fix>
</trkpt>
<trkpt lat="40.0714585" lon="-105.2295436">
  <ele>1583.0</ele>
  <time>2026-08-28T17:56:51Z</time>
  <course>248.76</course>
  <speed>0.07211102550927978</speed>
  <fix>3d</fix>
</trkpt>
<trkpt lat="40.0714591" lon="-105.2295419">
  <ele>1583.0</ele>
  <time>2026-08-28T17:56:51Z</time>
  <course>65.99</course>
  <speed>0.8</speed>
  <fix>3d</fix>
</trkpt>
<trkpt lat="40.0714591" lon="-105.2295419">
  <ele>1583.0</ele>
  <time>2026-08-28T17:56:51Z</time>
  <course>248.75</course>
  <speed>0.07211102550927978</speed>
  <fix>3d</fix>
</trkpt>
<trkpt lat="40.0714591" lon="-105.2295419">
  <ele>1583.0</ele>
  <time>2026-08-28T17:56:51Z</time>
  <course>65.99</course>
  <speed>0.8</speed>
  <fix>3d</fix>
</trkpt>
<trkpt lat="40.0714591" lon="-105.2295419">
  <ele>1583.0</ele>
  <time>2026-08-28T17:56:51Z</time>
  <course>248.74</course>
  <speed>0.07211102550927978</speed>
  <fix>3d</fix>
</trkpt>
<trkpt lat="40.0714596" lon="-105.2295402">
  <ele>1583.0</ele>
  <time>2026-08-28T17:56:51Z</time>
  <course>65.99</course>
  <speed>0.8</speed>
  <fix>3d</fix>
</trkpt>
<trkpt lat="40.0714596" lon="-105.2295402">
  <ele>1583.0</ele>
  <time>2026-08-28T17:56:51Z</time>
  <course>248.73</course>
  <speed>0.07211102550927978</speed>
  <fix>3d</fix>
</trkpt>
<trkpt lat="40.0714596" lon="-105.2295402">
  <ele>1583.0</ele>
  <time>2026-08-28T17:56:51Z</time>
  <course>65.99</course>
  <speed>0.8</speed>
  <fix>3d</fix>
</trkpt>
<trkpt lat="40.0714596" lon="-105.2295402">
  <ele>1583.0</ele>
  <time>2026-08-28T17:56:51Z</time>
  <course>248.72</course>
  <speed>0.07211102550927978</speed>
  <fix>3d</fix>
</trkpt>
<trkpt lat="40.0714603" lon="-105.2295385">
  <ele>1583.0</ele>
  <time>2026-08-28T17:56:51Z</time>
  <course>65.99</course>
  <speed>0.8</speed>
  <fix>3d</fix>
</trkpt>
<trkpt lat="40.0714603" lon="-105.2295385">
  <ele>1583.0</ele>
  <time>2026-08-28T17:56:51Z</time>
  <course>248.71</course>
  <speed>0.07211102550927978</speed>
  <fix>3d</fix>
</trkpt>
<trkpt lat="40.0714603" lon="-105.2295385">
  <ele>1583.0</ele>
  <time>2026-08-28T17:56:51Z</time>
  <course>65.99</course>
  <speed>0.8</speed>
  <fix>3d</fix>
</trkpt>
<trkpt lat="40.0714603" lon="-105.2295385">
  <ele>1583.0</ele>
  <time>2026-08-28T17:56:51Z</time>
  <course>248.7</course>
  <speed>0.07211102550927978</speed>
  <fix>3d</fix>
</trkpt>
<trkpt lat="40.0714609" lon="-105.2295368">
  <ele>1583.0</ele>
  <time>2026-08-28T17:56:51Z</time>
  <course>65.99</course>
  <speed>0.8</speed>
  <fix>3d</fix>
</trkpt>
<trkpt lat="40.0714609" lon="-105.2295368">
  <ele>1583.0</ele>
  <time>2026-08-28T17:56:51Z</time>
  <course>248.69</course>
  <speed>0.07211102550927978</speed>
  <fix>3d</fix>
</trkpt>
<trkpt lat="40.0714609" lon="-105.2295368">
  <ele>1583.0</ele>
  <time>2026-08-28T17:56:51Z</time>
  <course>65.99</course>
  <speed>0.8</speed>
  <fix>3d</fix>
</trkpt>
<trkpt lat="40.0714609" lon="-105.2295368">
  <ele>1583.0</ele>
  <time>2026-08-28T17:56:51Z</time>
  <course>248.69</course>
  <speed>0.07211102550927978</speed>
  <fix>3d</fix>
</trkpt>
<trkpt lat="40.0714615" lon="-105.229535">
  <ele>1583.0</ele>
  <time>2026-08-28T17:56:51Z</time>
  <course>65.99</course>
  <speed>0.8</speed>
  <fix>3d</fix>
</trkpt>
<trkpt lat="40.0714615" lon="-105.229535">
  <ele>1583.0</ele>
  <time>2026-08-28T17:56:51Z</time>
  <course>248.68</course>
  <speed>0.07211102550927978</speed>
  <fix>3d</fix>
</trkpt>
<trkpt lat="40.0714615" lon="-105.229535">
  <ele>1583.0</ele>
  <time>2026-08-28T17:56:51Z</time>
  <course>65.99</course>
  <speed>0.8</speed>
  <fix>3d</fix>
</trkpt>
<trkpt lat="40.0714615" lon="-105.229535">
  <ele>1583.0</ele>
  <time>2026-08-28T17:56:51Z</time>
  <course>248.67</course>
  <speed>0.07211102550927978</speed>
  <fix>3d</fix>
</trkpt>
<trkpt lat="40.0714615" lon="-105.229535">
  <ele>1583.0</ele>
  <time>2026-08-28T17:56:51Z</time>
  <course>65.99</course>
  <speed>0.8</speed>
  <fix>3d</fix>
</trkpt>
<trkpt lat="40.0714621" lon="-105.2295333">
  <ele>1583.0</ele>
  <time>2026-08-28T17:56:51Z</time>
  <course>248.66</course>
  <speed>0.06403124237432849</speed>
  <fix>3d</fix>
</trkpt>
<trkpt lat="40.0714621" lon="-105.2295333">
  <ele>1583.0</ele>
  <time>2026-08-28T17:56:51Z</time>
  <course>65.99</course>
  <speed>0.8</speed>
  <fix>3d</fix>
</trkpt>
<trkpt lat="40.0714621" lon="-105.2295333">
  <ele>1583.0</ele>
  <time>2026-08-28T17:56:51Z</time>
  <course>248.65</course>
  <speed>0.06403124237432849</speed>
  <fix>3d</fix>
</trkpt>
<trkpt lat="40.0714621" lon="-105.2295333">
  <ele>1583.0</ele>
  <time>2026-08-28T17:56:51Z</time>
  <course>65.99</course>
  <speed>0.8</speed>
  <fix>3d</fix>
</trkpt>
<trkpt lat="40.0714626" lon="-105.2295316">
  <ele>1583.0</ele>
  <time>2026-08-28T17:56:51Z</time>
  <course>248.64</course>
  <speed>0.06403124237432849</speed>
  <fix>3d</fix>
</trkpt>
<trkpt lat="40.0714626" lon="-105.2295316">
  <ele>1583.0</ele>
  <time>2026-08-28T17:56:51Z</time>
  <course>65.99</course>
  <speed>0.8</speed>
  <fix>3d</fix>
</trkpt>
<trkpt lat="40.0714626" lon="-105.2295316">
  <ele>1583.0</ele>
  <time>2026-08-28T17:56:51Z</time>
  <course>248.64</course>
  <speed>0.06403124237432849</speed>
  <fix>3d</fix>
</trkpt>
<trkpt lat="40.0714626" lon="-105.2295316">
  <ele>1583.0</ele>
  <time>2026-08-28T17:56:51Z</time>
  <course>65.99</course>
  <speed>0.8</speed>
  <fix>3d</fix>
</trkpt>
<trkpt lat="40.0714631" lon="-105.2295299">
  <ele>1583.0</ele>
  <time>2026-08-28T17:56:51Z</time>
  <course>248.63</course>
  <speed>0.06403124237432849</speed>
  <fix>3d</fix>
</trkpt>
<trkpt lat="40.0714631" lon="-105.2295299">
  <ele>1583.0</ele>
  <time>2026-08-28T17:56:51Z</time>
  <course>65.99</course>
  <speed>0.8</speed>
  <fix>3d</fix>
</trkpt>
<trkpt lat="40.0714631" lon="-105.2295299">
  <ele>1583.0</ele>
  <time>2026-08-28T17:56:51Z</time>
  <course>248.62</course>
  <speed>0.06403124237432849</speed>
  <fix>3d</fix>
</trkpt>
<trkpt lat="40.0714638" lon="-105.2295282">
  <ele>1583.0</ele>
  <time>2026-08-28T17:56:51Z</time>
  <course>65.99</course>
  <speed>0.8</speed>
  <fix>3d</fix>
</trkpt>
<trkpt lat="40.0714638" lon="-105.2295282">
  <ele>1583.0</ele>
  <time>2026-08-28T17:56:51Z</time>
  <course>248.61</course>
  <speed>0.06403124237432849</speed>
  <fix>3d</fix>
</trkpt>
<trkpt lat="40.0714638" lon="-105.2295282">
  <ele>1583.0</ele>
  <time>2026-08-28T17:56:51Z</time>
  <course>65.99</course>
  <speed>0.8</speed>
  <fix>3d</fix>
</trkpt>
<trkpt lat="40.0714638" lon="-105.2295282">
  <ele>1583.0</ele>
  <time>2026-08-28T17:56:51Z</time>
  <course>248.6</course>
  <speed>0.06403124237432849</speed>
  <fix>3d</fix>
</trkpt>
<trkpt lat="40.0714643" lon="-105.2295264">
  <ele>1583.0</ele>
  <time>2026-08-28T17:56:51Z</time>
  <course>65.99</course>
  <speed>0.8</speed>
  <fix>3d</fix>
</trkpt>
<trkpt lat="40.0714643" lon="-105.2295264">
  <ele>1583.0</ele>
  <time>2026-08-28T17:56:51Z</time>
  <course>248.59</course>
  <speed>0.06403124237432849</speed>
  <fix>3d</fix>
</trkpt>
<trkpt lat="40.0714643" lon="-105.2295264">
  <ele>1583.0</ele>
  <time>2026-08-28T17:56:51Z</time>
  <course>65.99</course>
  <speed>0.8</speed>
  <fix>3d</fix>
</trkpt>
<trkpt lat="40.0714643" lon="-105.2295264">
  <ele>1583.0</ele>
  <time>2026-08-28T17:56:51Z</time>
  <course>248.59</course>
  <speed>0.06403124237432849</speed>
  <fix>3d</fix>
</trkpt>
<trkpt lat="40.071465" lon="-105.2295247">
  <ele>1583.0</ele>
  <time>2026-08-28T17:56:51Z</time>
  <course>65.99</course>
  <speed>0.8</speed>
  <fix>3d</fix>
</trkpt>
<trkpt lat="40.071465" lon="-105.2295247">
  <ele>1583.0</ele>
  <time>2026-08-28T17:56:51Z</time>
  <course>248.58</course>
  <speed>0.06403124237432849</speed>
  <fix>3d</fix>
</trkpt>
<trkpt lat="40.071465" lon="-105.2295247">
  <ele>1583.0</ele>
  <time>2026-08-28T17:56:51Z</time>
  <course>65.99</course>
  <speed>0.8</speed>
  <fix>3d</fix>
</trkpt>
<trkpt lat="40.071465" lon="-105.2295247">
  <ele>1583.0</ele>
  <time>2026-08-28T17:56:51Z</time>
  <course>248.57</course>
  <speed>0.06403124237432849</speed>
  <fix>3d</fix>
</trkpt>
<trkpt lat="40.0714655" lon="-105.229523">
  <ele>1583.0</ele>
  <time>2026-08-28T17:56:51Z</time>
  <course>65.99</course>
  <speed>0.8</speed>
  <fix>3d</fix>
</trkpt>
<trkpt lat="40.0714655" lon="-105.229523">
  <ele>1583.0</ele>
  <time>2026-08-28T17:56:51Z</time>
  <course>248.56</course>
  <speed>0.06403124237432849</speed>
  <fix>3d</fix>
</trkpt>
<trkpt lat="40.0714655" lon="-105.229523">
  <ele>1583.0</ele>
  <time>2026-08-28T17:56:51Z</time>
  <course>65.99</course>
  <speed>0.8</speed>
  <fix>3d</fix>
</trkpt>
<trkpt lat="40.0714655" lon="-105.229523">
  <ele>1583.0</ele>
  <time>2026-08-28T17:56:51Z</time>
  <course>248.55</course>
  <speed>0.06403124237432849</speed>
  <fix>3d</fix>
</trkpt>
<trkpt lat="40.0714662" lon="-105.2295213">
  <ele>1583.0</ele>
  <time>2026-08-28T17:56:51Z</time>
  <course>65.99</course>
  <speed>0.8</speed>
  <fix>3d</fix>
</trkpt>
<trkpt lat="40.0714662" lon="-105.2295213">
  <ele>1583.0</ele>
  <time>2026-08-28T17:56:51Z</time>
  <course>248.55</course>
  <speed>0.06403124237432849</speed>
  <fix>3d</fix>
</trkpt>
<trkpt lat="40.0714662" lon="-105.2295213">
  <ele>1583.0</ele>
  <time>2026-08-28T17:56:51Z</time>
  <course>65.99</course>
  <speed>0.8</speed>
  <fix>3d</fix>
</trkpt>
<trkpt lat="40.0714662" lon="-105.2295213">
  <ele>1583.0</ele>
  <time>2026-08-28T17:56:51Z</time>
  <course>248.54</course>
  <speed>0.06403124237432849</speed>
  <fix>3d</fix>
</trkpt>
<trkpt lat="40.0714667" lon="-105.2295196">
  <ele>1583.0</ele>
  <time>2026-08-28T17:56:51Z</time>
  <course>65.99</course>
  <speed>0.8</speed>
  <fix>3d</fix>
</trkpt>
<trkpt lat="40.0714667" lon="-105.2295196">
  <ele>1583.0</ele>
  <time>2026-08-28T17:56:51Z</time>
  <course>248.53</course>
  <speed>0.06403124237432849</speed>
  <fix>3d</fix>
</trkpt>
<trkpt lat="40.0714667" lon="-105.2295196">
  <ele>1583.0</ele>
  <time>2026-08-28T17:56:51Z</time>
  <course>65.99</course>
  <speed>0.8</speed>
  <fix>3d</fix>
</trkpt>
<trkpt lat="40.0714667" lon="-105.2295196">
  <ele>1583.0</ele>
  <time>2026-08-28T17:56:51Z</time>
  <course>248.52</course>
  <speed>0.06403124237432849</speed>
  <fix>3d</fix>
</trkpt>
<trkpt lat="40.0714672" lon="-105.2295178">
  <ele>1583.0</ele>
  <time>2026-08-28T17:56:51Z</time>
  <course>65.99</course>
  <speed>0.8</speed>
  <fix>3d</fix>
</trkpt>
<trkpt lat="40.0714672" lon="-105.2295178">
  <ele>1583.0</ele>
  <time>2026-08-28T17:56:51Z</time>
  <course>248.52</course>
  <speed>0.06403124237432849</speed>
  <fix>3d</fix>
</trkpt>
<trkpt lat="40.0714672" lon="-105.2295178">
  <ele>1583.0</ele>
  <time>2026-08-28T17:56:51Z</time>
  <course>65.99</course>
  <speed>0.8</speed>
  <fix>3d</fix>
</trkpt>
<trkpt lat="40.0714672" lon="-105.2295178">
  <ele>1583.0</ele>
  <time>2026-08-28T17:56:51Z</time>
  <course>248.51</course>
  <speed>0.06403124237432849</speed>
  <fix>3d</fix>
</trkpt>
<trkpt lat="40.0714672" lon="-105.2295178">
  <ele>1583.0</ele>
  <time>2026-08-28T17:56:51Z</time>
  <course>65.99</course>
  <speed>0.8</speed>
  <fix>3d</fix>
</trkpt>
<trkpt lat="40.0714679" lon="-105.2295161">
  <ele>1583.0</ele>
  <time>2026-08-28T17:56:51Z</time>
  <course>248.5</course>
  <speed>0.06403124237432849</speed>
  <fix>3d</fix>
</trkpt>
<trkpt lat="40.0714679" lon="-105.2295161">
  <ele>1583.0</ele>
  <time>2026-08-28T17:56:51Z</time>
  <course>65.99</course>
  <speed>0.8</speed>
  <fix>3d</fix>
</trkpt>
<trkpt lat="40.0714679" lon="-105.2295161">
  <ele>1583.0</ele>
  <time>2026-08-28T17:56:51Z</time>
  <course>248.49</course>
  <speed>0.06403124237432849</speed>
  <fix>3d</fix>
</trkpt>
<trkpt lat="40.0714679" lon="-105.2295161">
  <ele>1583.0</ele>
  <time>2026-08-28T17:56:51Z</time>
  <course>65.99</course>
  <speed>0.8</speed>
  <fix>3d</fix>
</trkpt>
<trkpt lat="40.0714684" lon="-105.2295144">
  <ele>1583.0</ele>
  <time>2026-08-28T17:56:51Z</time>
  <course>248.48</course>
  <speed>0.06403124237432849</speed>
  <fix>3d</fix>
</trkpt>
<trkpt lat="40.0714684" lon="-105.2295144">
  <ele>1583.0</ele>
  <time>2026-08-28T17:56:51Z</time>
  <course>65.99</course>
  <speed>0.8</speed>
  <fix>3d</fix>
</trkpt>
<trkpt lat="40.0714684" lon="-105.2295144">
  <ele>1583.0</ele>
  <time>2026-08-28T17:56:51Z</time>
  <course>248.48</course>
  <speed>0.06403124237432849</speed>
  <fix>3d</fix>
</trkpt>
<trkpt lat="40.0714684" lon="-105.2295144">
  <ele>1583.0</ele>
  <time>2026-08-28T17:56:51Z</time>
  <course>65.99</course>
  <speed>0.8</speed>
  <fix>3d</fix>
</trkpt>
<trkpt lat="40.0714691" lon="-105.2295126">
  <ele>1583.0</ele>
  <time>2026-08-28T17:56:51Z</time>
  <course>248.47</course>
  <speed>0.06403124237432849</speed>
  <fix>3d</fix>
</trkpt>
<trkpt lat="40.0714691" lon="-105.2295126">
  <ele>1583.0</ele>
  <time>2026-08-28T17:56:51Z</time>
  <course>65.99</course>
  <speed>0.8</speed>
  <fix>3d</fix>
</trkpt>
<trkpt lat="40.0714691" lon="-105.2295126">
  <ele>1583.0</ele>
  <time>2026-08-28T17:56:51Z</time>
  <course>248.46</course>
  <speed>0.06403124237432849</speed>
  <fix>3d</fix>
</trkpt>
<trkpt lat="40.0714691" lon="-105.2295126">
  <ele>1583.0</ele>
  <time>2026-08-28T17:56:51Z</time>
  <course>65.99</course>
  <speed>0.8</speed>
  <fix>3d</fix>
</trkpt>
<trkpt lat="40.0714696" lon="-105.2295109">
  <ele>1583.0</ele>
  <time>2026-08-28T17:56:51Z</time>
  <course>248.46</course>
  <speed>0.06403124237432849</speed>
  <fix>3d</fix>
</trkpt>
<trkpt lat="40.0714696" lon="-105.2295109">
  <ele>1583.0</ele>
  <time>2026-08-28T17:56:51Z</time>
  <course>65.99</course>
  <speed>0.8</speed>
  <fix>3d</fix>
</trkpt>
<trkpt lat="40.0714696" lon="-105.2295109">
  <ele>1583.0</ele>
  <time>2026-08-28T17:56:51Z</time>
  <course>248.45</course>
  <speed>0.06403124237432849</speed>
  <fix>3d</fix>
</trkpt>
<trkpt lat="40.0714703" lon="-105.2295092">
  <ele>1583.0</ele>
  <time>2026-08-28T17:56:51Z</time>
  <course>65.99</course>
  <speed>0.8</speed>
  <fix>3d</fix>
</trkpt>
<trkpt lat="40.0714703" lon="-105.2295092">
  <ele>1583.0</ele>
  <time>2026-08-28T17:56:51Z</time>
  <course>248.44</course>
  <speed>0.06403124237432849</speed>
  <fix>3d</fix>
</trkpt>
<trkpt lat="40.0714703" lon="-105.2295092">
  <ele>1583.0</ele>
  <time>2026-08-28T17:56:51Z</time>
  <course>65.99</course>
  <speed>0.8</speed>
  <fix>3d</fix>
</trkpt>
<trkpt lat="40.0714703" lon="-105.2295092">
  <ele>1583.0</ele>
  <time>2026-08-28T17:56:51Z</time>
  <course>248.43</course>
  <speed>0.06403124237432849</speed>
  <fix>3d</fix>
</trkpt>
<trkpt lat="40.0714708" lon="-105.2295075">
  <ele>1583.0</ele>
  <time>2026-08-28T17:56:51Z</time>
  <course>65.99</course>
  <speed>0.8</speed>
  <fix>3d</fix>
</trkpt>
<trkpt lat="40.0714708" lon="-105.2295075">
  <ele>1583.0</ele>
  <time>2026-08-28T17:56:51Z</time>
  <course>248.43</course>
  <speed>0.06403124237432849</speed>
  <fix>3d</fix>
</trkpt>
<trkpt lat="40.0714708" lon="-105.2295075">
  <ele>1583.0</ele>
  <time>2026-08-28T17:56:51Z</time>
  <course>65.99</course>
  <speed>0.8</speed>
  <fix>3d</fix>
</trkpt>
<trkpt lat="40.0714708" lon="-105.2295075">
  <ele>1583.0</ele>
  <time>2026-08-28T17:56:51Z</time>
  <course>248.42</course>
  <speed>0.06403124237432849</speed>
  <fix>3d</fix>
</trkpt>
<trkpt lat="40.0714714" lon="-105.2295058">
  <ele>1583.0</ele>
  <time>2026-08-28T17:56:51Z</time>
  <course>65.99</course>
  <speed>0.8</speed>
  <fix>3d</fix>
</trkpt>
<trkpt lat="40.0714714" lon="-105.2295058">
  <ele>1583.0</ele>
  <time>2026-08-28T17:56:51Z</time>
  <course>248.41</course>
  <speed>0.06403124237432849</speed>
  <fix>3d</fix>
</trkpt>
<trkpt lat="40.0714714" lon="-105.2295058">
  <ele>1583.0</ele>
  <time>2026-08-28T17:56:51Z</time>
  <course>65.99</course>
  <speed>0.8</speed>
  <fix>3d</fix>
</trkpt>
<trkpt lat="40.0714714" lon="-105.2295058">
  <ele>1583.0</ele>
  <time>2026-08-28T17:56:51Z</time>
  <course>248.4</course>
  <speed>0.06403124237432849</speed>
  <fix>3d</fix>
</trkpt>
<trkpt lat="40.071472" lon="-105.2295041">
  <ele>1583.0</ele>
  <time>2026-08-28T17:56:51Z</time>
  <course>65.99</course>
  <speed>0.8</speed>
  <fix>3d</fix>
</trkpt>
<trkpt lat="40.071472" lon="-105.2295041">
  <ele>1583.0</ele>
  <time>2026-08-28T17:56:51Z</time>
  <course>248.4</course>
  <speed>0.06403124237432849</speed>
  <fix>3d</fix>
</trkpt>
<trkpt lat="40.071472" lon="-105.2295041">
  <ele>1583.0</ele>
  <time>2026-08-28T17:56:51Z</time>
  <course>65.99</course>
  <speed>0.8</speed>
  <fix>3d</fix>
</trkpt>
<trkpt lat="40.071472" lon="-105.2295041">
  <ele>1583.0</ele>
  <time>2026-08-28T17:56:51Z</time>
  <course>248.39</course>
  <speed>0.06403124237432849</speed>
  <fix>3d</fix>
</trkpt>
<trkpt lat="40.0714725" lon="-105.2295024">
  <ele>1583.0</ele>
  <time>2026-08-28T17:56:51Z</time>
  <course>65.99</course>
  <speed>0.8</speed>
  <fix>3d</fix>
</trkpt>
<trkpt lat="40.0714725" lon="-105.2295024">
  <ele>1583.0</ele>
  <time>2026-08-28T17:56:51Z</time>
  <course>248.38</course>
  <speed>0.0565685424949238</speed>
  <fix>3d</fix>
</trkpt>
<trkpt lat="40.0714725" lon="-105.2295024">
  <ele>1583.0</ele>
  <time>2026-08-28T17:56:51Z</time>
  <course>65.99</course>
  <speed>0.8</speed>
  <fix>3d</fix>
</trkpt>
<trkpt lat="40.0714725" lon="-105.2295024">
  <ele>1583.0</ele>
  <time>2026-08-28T17:56:51Z</time>
  <course>248.38</course>
  <speed>0.0565685424949238</speed>
  <fix>3d</fix>
</trkpt>
<trkpt lat="40.0714732" lon="-105.2295006">
  <ele>1583.0</ele>
  <time>2026-08-28T17:56:51Z</time>
  <course>65.99</course>
  <speed>0.8</speed>
  <fix>3d</fix>
</trkpt>
<trkpt lat="40.0714732" lon="-105.2295006">
  <ele>1583.0</ele>
  <time>2026-08-28T17:56:51Z</time>
  <course>248.37</course>
  <speed>0.0565685424949238</speed>
  <fix>3d</fix>
</trkpt>
<trkpt lat="40.0714732" lon="-105.2295006">
  <ele>1583.0</ele>
  <time>2026-08-28T17:56:51Z</time>
  <course>65.99</course>
  <speed>0.8</speed>
  <fix>3d</fix>
</trkpt>
<trkpt lat="40.0714732" lon="-105.2295006">
  <ele>1583.0</ele>
  <time>2026-08-28T17:56:51Z</time>
  <course>248.36</course>
  <speed>0.0565685424949238</speed>
  <fix>3d</fix>
</trkpt>
<trkpt lat="40.0714732" lon="-105.2295006">
  <ele>1583.0</ele>
  <time>2026-08-28T17:56:51Z</time>
  <course>65.99</course>
  <speed>0.8</speed>
  <fix>3d</fix>
</trkpt>
<trkpt lat="40.0714737" lon="-105.2294989">
  <ele>1583.0</ele>
  <time>2026-08-28T17:56:51Z</time>
  <course>248.36</course>
  <speed>0.0565685424949238</speed>
  <fix>3d</fix>
</trkpt>
<trkpt lat="40.0714737" lon="-105.2294989">
  <ele>1583.0</ele>
  <time>2026-08-28T17:56:51Z</time>
  <course>65.99</course>
  <speed>0.8</speed>
  <fix>3d</fix>
</trkpt>
<trkpt lat="40.0714737" lon="-105.2294989">
  <ele>1583.0</ele>
  <time>2026-08-28T17:56:51Z</time>
  <course>248.35</course>
  <speed>0.0565685424949238</speed>
  <fix>3d</fix>
</trkpt>
<trkpt lat="40.0714737" lon="-105.2294989">
  <ele>1583.0</ele>
  <time>2026-08-28T17:56:51Z</time>
  <course>65.99</course>
  <speed>0.8</speed>
  <fix>3d</fix>
</trkpt>
<trkpt lat="40.0714744" lon="-105.2294972">
  <ele>1583.0</ele>
  <time>2026-08-28T17:56:51Z</time>
  <course>248.34</course>
  <speed>0.0565685424949238</speed>
  <fix>3d</fix>
</trkpt>
<trkpt lat="40.0714744" lon="-105.2294972">
  <ele>1583.0</ele>
  <time>2026-08-28T17:56:51Z</time>
  <course>65.99</course>
  <speed>0.8</speed>
  <fix>3d</fix>
</trkpt>
<trkpt lat="40.0714744" lon="-105.2294972">
  <ele>1583.0</ele>
  <time>2026-08-28T17:56:51Z</time>
  <course>248.33</course>
  <speed>0.0565685424949238</speed>
  <fix>3d</fix>
</trkpt>
<trkpt lat="40.0714744" lon="-105.2294972">
  <ele>1583.0</ele>
  <time>2026-08-28T17:56:51Z</time>
  <course>65.99</course>
  <speed>0.8</speed>
  <fix>3d</fix>
</trkpt>
<trkpt lat="40.0714749" lon="-105.2294955">
  <ele>1583.0</ele>
  <time>2026-08-28T17:56:51Z</time>
  <course>248.33</course>
  <speed>0.0565685424949238</speed>
  <fix>3d</fix>
</trkpt>
<trkpt lat="40.0714749" lon="-105.2294955">
  <ele>1583.0</ele>
  <time>2026-08-28T17:56:51Z</time>
  <course>65.99</course>
  <speed>0.8</speed>
  <fix>3d</fix>
</trkpt>
<trkpt lat="40.0714749" lon="-105.2294955">
  <ele>1583.0</ele>
  <time>2026-08-28T17:56:51Z</time>
  <course>248.32</course>
  <speed>0.0565685424949238</speed>
  <fix>3d</fix>
</trkpt>
<trkpt lat="40.0714749" lon="-105.2294955">
  <ele>1583.0</ele>
  <time>2026-08-28T17:56:51Z</time>
  <course>65.99</course>
  <speed>0.8</speed>
  <fix>3d</fix>
</trkpt>
<trkpt lat="40.0714755" lon="-105.2294937">
  <ele>1583.0</ele>
  <time>2026-08-28T17:56:51Z</time>
  <course>248.31</course>
  <speed>0.0565685424949238</speed>
  <fix>3d</fix>
</trkpt>
<trkpt lat="40.0714755" lon="-105.2294937">
  <ele>1583.0</ele>
  <time>2026-08-28T17:56:51Z</time>
  <course>65.99</course>
  <speed>0.8</speed>
  <fix>3d</fix>
</trkpt>
<trkpt lat="40.0714755" lon="-105.2294937">
  <ele>1583.0</ele>
  <time>2026-08-28T17:56:51Z</time>
  <course>248.31</course>
  <speed>0.0565685424949238</speed>
  <fix>3d</fix>
</trkpt>
<trkpt lat="40.0714761" lon="-105.229492">
  <ele>1583.0</ele>
  <time>2026-08-28T17:56:51Z</time>
  <course>65.99</course>
  <speed>0.8</speed>
  <fix>3d</fix>
</trkpt>
<trkpt lat="40.0714763" lon="-105.2294913">
  <ele>1582.95</ele>
  <time>2026-08-28T17:56:51Z</time>
  <course>248.3</course>
  <speed>0.797057087039567</speed>
  <fix>3d</fix>
</trkpt>
<trkpt lat="40.0714761" lon="-105.229492">
  <ele>1583.0</ele>
  <time>2026-08-28T17:56:51Z</time>
  <course>65.99</course>
  <speed>0.8</speed>
  <fix>3d</fix>
</trkpt>
<trkpt lat="40.0714767" lon="-105.2294901">
  <ele>1582.95</ele>
  <time>2026-08-28T17:56:51Z</time>
  <course>248.3</course>
  <speed>0.797057087039567</speed>
  <fix>3d</fix>
</trkpt>
<trkpt lat="40.0714767" lon="-105.2294903">
  <ele>1583.0</ele>
  <time>2026-08-28T17:56:51Z</time>
  <course>65.99</course>
  <speed>0.8</speed>
  <fix>3d</fix>
</trkpt>
<trkpt lat="40.0714771" lon="-105.2294889">
  <ele>1582.94</ele>
  <time>2026-08-28T17:56:51Z</time>
  <course>248.29</course>
  <speed>0.797057087039567</speed>
  <fix>3d</fix>
</trkpt>
<trkpt lat="40.0714767" lon="-105.2294903">
  <ele>1583.0</ele>
  <time>2026-08-28T17:56:51Z</time>
  <course>65.99</course>
  <speed>0.8</speed>
  <fix>3d</fix>
</trkpt>
<trkpt lat="40.0714774" lon="-105.2294879">
  <ele>1582.94</ele>
  <time>2026-08-28T17:56:51Z</time>
  <course>248.28</course>
  <speed>0.8011242100947892</speed>
  <fix>3d</fix>
</trkpt>
<trkpt lat="40.0714773" lon="-105.2294886">
  <ele>1583.0</ele>
  <time>2026-08-28T17:56:51Z</time>
  <course>65.99</course>
  <speed>0.8</speed>
  <fix>3d</fix>
</trkpt>
<trkpt lat="40.0714778" lon="-105.2294869">
  <ele>1582.94</ele>
  <time>2026-08-28T17:56:51Z</time>
  <course>248.28</course>
  <speed>0.8011242100947892</speed>
  <fix>3d</fix>
</trkpt>
<trkpt lat="40.0714773" lon="-105.2294886">
  <ele>1583.0</ele>
  <time>2026-08-28T17:56:51Z</time>
  <course>65.99</course>
  <speed>0.8</speed>
  <fix>3d</fix>
</trkpt>
<trkpt lat="40.0714781" lon="-105.2294859">
  <ele>1582.93</ele>
  <time>2026-08-28T17:56:51Z</time>
  <course>248.27</course>
  <speed>0.8011242100947892</speed>
  <fix>3d</fix>
</trkpt>
<trkpt lat="40.0714779" lon="-105.2294869">
  <ele>1583.0</ele>
  <time>2026-08-28T17:56:51Z</time>
  <course>65.99</course>
  <speed>0.8</speed>
  <fix>3d</fix>
</trkpt>
<trkpt lat="40.0714785" lon="-105.229485">
  <ele>1582.93</ele>
  <time>2026-08-28T17:56:51Z</time>
  <course>248.26</course>
  <speed>0.8011242100947892</speed>
  <fix>3d</fix>
</trkpt>
<trkpt lat="40.0714779" lon="-105.2294869">
  <ele>1583.0</ele>
  <time>2026-08-28T17:56:51Z</time>
  <course>65.99</course>
  <speed>0.8</speed>
  <fix>3d</fix>
</trkpt>
<trkpt lat="40.0714788" lon="-105.2294841">
  <ele>1582.93</ele>
  <time>2026-08-28T17:56:51Z</time>
  <course>248.26</course>
  <speed>0.8102468759581859</speed>
  <fix>3d</fix>
</trkpt>
<trkpt lat="40.0714785" lon="-105.2294852">
  <ele>1583.0</ele>
  <time>2026-08-28T17:56:51Z</time>
  <course>65.99</course>
  <speed>0.8</speed>
  <fix>3d</fix>
</trkpt>
<trkpt lat="40.0714791" lon="-105.2294832">
  <ele>1582.93</ele>
  <time>2026-08-28T17:56:51Z</time>
  <course>248.25</course>
  <speed>0.8102468759581859</speed>
  <fix>3d</fix>
</trkpt>
<trkpt lat="40.0714785" lon="-105.2294852">
  <ele>1583.0</ele>
  <time>2026-08-28T17:56:51Z</time>
  <course>65.99</course>
  <speed>0.8</speed>
  <fix>3d</fix>
</trkpt>
<trkpt lat="40.0714794" lon="-105.2294823">
  <ele>1582.93</ele>
  <time>2026-08-28T17:56:51Z</time>
  <course>248.25</course>
  <speed>0.8143709228600933</speed>
  <fix>3d</fix>
</trkpt>
<trkpt lat="40.0714791" lon="-105.2294834">
  <ele>1583.0</ele>
  <time>2026-08-28T17:56:51Z</time>
  <course>65.99</course>
  <speed>0.8</speed>
  <fix>3d</fix>
</trkpt>
<trkpt lat="40.0714797" lon="-105.2294814">
  <ele>1582.93</ele>
  <time>2026-08-28T17:56:51Z</time>
  <course>248.24</course>
  <speed>0.8143709228600933</speed>
  <fix>3d</fix>
</trkpt>
<trkpt lat="40.0714791" lon="-105.2294834">
  <ele>1583.0</ele>
  <time>2026-08-28T17:56:51Z</time>
  <course>65.99</course>
  <speed>0.8</speed>
  <fix>3d</fix>
</trkpt>
<trkpt lat="40.07148" lon="-105.2294805">
  <ele>1582.93</ele>
  <time>2026-08-28T17:56:51Z</time>
  <course>248.23</course>
  <speed>0.8143709228600933</speed>
  <fix>3d</fix>
</trkpt>
<trkpt lat="40.0714796" lon="-105.2294817">
  <ele>1583.0</ele>
  <time>2026-08-28T17:56:51Z</time>
  <course>65.99</course>
  <speed>0.8</speed>
  <fix>3d</fix>
</trkpt>
<trkpt lat="40.0714803" lon="-105.2294797">
  <ele>1582.93</ele>
  <time>2026-08-28T17:56:51Z</time>
  <course>248.23</course>
  <speed>0.8143709228600933</speed>
  <fix>3d</fix>
</trkpt>
<trkpt lat="40.0714796" lon="-105.2294817">
  <ele>1583.0</ele>
  <time>2026-08-28T17:56:51Z</time>
  <course>65.99</course>
  <speed>0.8</speed>
  <fix>3d</fix>
</trkpt>
<trkpt lat="40.0714806" lon="-105.2294788">
  <ele>1582.94</ele>
  <time>2026-08-28T17:56:51Z</time>
  <course>248.22</course>
  <speed>0.8234682750416071</speed>
  <fix>3d</fix>
</trkpt>
<trkpt lat="40.0714796" lon="-105.2294817">
  <ele>1583.0</ele>
  <time>2026-08-28T17:56:51Z</time>
  <course>65.99</course>
  <speed>0.8</speed>
  <fix>3d</fix>
</trkpt>
<trkpt lat="40.0714809" lon="-105.2294779">
  <ele>1582.93</ele>
  <time>2026-08-28T17:56:51Z</time>
  <course>248.22</course>
  <speed>0.836719785830358</speed>
  <fix>3d</fix>
</trkpt>
<trkpt lat="40.0714801" lon="-105.22948">
  <ele>1583.0</ele>
  <time>2026-08-28T17:56:51Z</time>
  <course>65.99</course>
  <speed>0.8</speed>
  <fix>3d</fix>
</trkpt>
<trkpt lat="40.0714812" lon="-105.229477">
  <ele>1582.93</ele>
  <time>2026-08-28T17:56:51Z</time>
  <course>248.21</course>
  <speed>0.8590692637965812</speed>
  <fix>3d</fix>
</trkpt>
<trkpt lat="40.0714801" lon="-105.22948">
  <ele>1583.0</ele>
  <time>2026-08-28T17:56:51Z</time>
  <course>65.99</course>
  <speed>0.8</speed>
  <fix>3d</fix>
</trkpt>
<trkpt lat="40.0714816" lon="-105.2294759">
  <ele>1582.94</ele>
  <time>2026-08-28T17:56:51Z</time>
  <course>248.21</course>
  <speed>0.8905054744357274</speed>
  <fix>3d</fix>
</trkpt>
<trkpt lat="40.0714808" lon="-105.2294783">
  <ele>1583.0</ele>
  <time>2026-08-28T17:56:51Z</time>
  <course>65.99</course>
  <speed>0.82</speed>
  <fix>3d</fix>
</trkpt>
<trkpt lat="40.0714819" lon="-105.2294751">
  <ele>1582.94</ele>
  <time>2026-08-28T17:56:51Z</time>
  <course>248.2</course>
  <speed>0.9219544457292888</speed>
  <fix>3d</fix>
</trkpt>
<trkpt lat="40.0714808" lon="-105.2294783">
  <ele>1583.0</ele>
  <time>2026-08-28T17:56:51Z</time>
  <course>65.99</course>
  <speed>0.82</speed>
  <fix>3d</fix>
</trkpt>
<trkpt lat="40.0714822" lon="-105.2294742">
  <ele>1582.94</ele>
  <time>2026-08-28T17:56:51Z</time>
  <course>248.2</course>
  <speed>0.9534149149242422</speed>
  <fix>3d</fix>
</trkpt>
<trkpt lat="40.0714814" lon="-105.2294764">
  <ele>1583.0</ele>
  <time>2026-08-28T17:56:51Z</time>
  <course>65.99</course>
  <speed>0.86</speed>
  <fix>3d</fix>
</trkpt>
<trkpt lat="40.0714826" lon="-105.2294731">
  <ele>1582.95</ele>
  <time>2026-08-28T17:56:51Z</time>
  <course>248.19</course>
  <speed>0.9980981915623331</speed>
  <fix>3d</fix>
</trkpt>
<trkpt lat="40.0714821" lon="-105.2294745">
  <ele>1583.0</ele>
  <time>2026-08-28T17:56:51Z</time>
  <course>65.99</course>
  <speed>0.93</speed>
  <fix>3d</fix>
</trkpt>
<trkpt lat="40.0714829" lon="-105.229472">
  <ele>1582.95</ele>
  <time>2026-08-28T17:56:51Z</time>
  <course>248.19</course>
  <speed>1.0336827366266692</speed>
  <fix>3d</fix>
</trkpt>
<trkpt lat="40.0714821" lon="-105.2294745">
  <ele>1583.0</ele>
  <time>2026-08-28T17:56:51Z</time>
  <course>65.99</course>
  <speed>0.93</speed>
  <fix>3d</fix>
</trkpt>
<trkpt lat="40.0714833" lon="-105.2294709">
  <ele>1582.96</ele>
  <time>2026-08-28T17:56:51Z</time>
  <course>248.18</course>
  <speed>1.0742439201596627</speed>
  <fix>3d</fix>
</trkpt>
<trkpt lat="40.0714828" lon="-105.2294724">
  <ele>1583.0</ele>
  <time>2026-08-28T17:56:51Z</time>
  <course>65.99</course>
  <speed>1.01</speed>
  <fix>3d</fix>
</trkpt>
<trkpt lat="40.0714842" lon="-105.2294683">
  <ele>1582.98</ele>
  <time>2026-08-28T17:56:51Z</time>
  <course>248.17</course>
  <speed>1.172731853408954</speed>
  <fix>3d</fix>
</trkpt>
<trkpt lat="40.0714835" lon="-105.2294702">
  <ele>1583.0</ele>
  <time>2026-08-28T17:56:51Z</time>
  <course>65.99</course>
  <speed>1.09</speed>
  <fix>3d</fix>
</trkpt>
<trkpt lat="40.0714846" lon="-105.229467">
  <ele>1582.98</ele>
  <time>2026-08-28T17:56:51Z</time>
  <course>248.17</course>
  <speed>1.2174152947946728</speed>
  <fix>3d</fix>
</trkpt>
<trkpt lat="40.0714835" lon="-105.2294702">
  <ele>1583.0</ele>
  <time>2026-08-28T17:56:51Z</time>
  <course>65.99</course>
  <speed>1.09</speed>
  <fix>3d</fix>
</trkpt>
<trkpt lat="40.0714851" lon="-105.2294657">
  <ele>1582.99</ele>
  <time>2026-08-28T17:56:51Z</time>
  <course>248.17</course>
  <speed>1.2580143083447024</speed>
  <fix>3d</fix>
</trkpt>
<trkpt lat="40.0714844" lon="-105.2294677">
  <ele>1583.0</ele>
  <time>2026-08-28T17:56:51Z</time>
  <course>65.99</course>
  <speed>1.17</speed>
  <fix>3d</fix>
</trkpt>
<trkpt lat="40.0714855" lon="-105.2294643">
  <ele>1583.0</ele>
  <time>2026-08-28T17:56:51Z</time>
  <course>248.16</course>
  <speed>1.293560976529518</speed>
  <fix>3d</fix>
</trkpt>
<trkpt lat="40.0714844" lon="-105.2294677">
  <ele>1583.0</ele>
  <time>2026-08-28T17:56:51Z</time>
  <course>65.99</course>
  <speed>1.17</speed>
  <fix>3d</fix>
</trkpt>
<trkpt lat="40.071486" lon="-105.2294629">
  <ele>1583.01</ele>
  <time>2026-08-28T17:56:51Z</time>
  <course>248.16</course>
  <speed>1.3341664064126335</speed>
  <fix>3d</fix>
</trkpt>
<trkpt lat="40.0714853" lon="-105.2294651">
  <ele>1583.0</ele>
  <time>2026-08-28T17:56:51Z</time>
  <course>65.99</course>
  <speed>1.24</speed>
  <fix>3d</fix>
</trkpt>
<trkpt lat="40.0714865" lon="-105.2294615">
  <ele>1583.03</ele>
  <time>2026-08-28T17:56:51Z</time>
  <course>248.15</course>
  <speed>1.3697079980784226</speed>
  <fix>3d</fix>
</trkpt>
<trkpt lat="40.0714853" lon="-105.2294651">
  <ele>1583.0</ele>
  <time>2026-08-28T17:56:51Z</time>
  <course>65.99</course>
  <speed>1.24</speed>
  <fix>3d</fix>
</trkpt>
<trkpt lat="40.0714871" lon="-105.2294597">
  <ele>1583.04</ele>
  <time>2026-08-28T17:56:51Z</time>
  <course>248.15</course>
  <speed>1.410319112825179</speed>
  <fix>3d</fix>
</trkpt>
<trkpt lat="40.0714862" lon="-105.2294623">
  <ele>1583.0</ele>
  <time>2026-08-28T17:56:51Z</time>
  <course>65.99</course>
  <speed>1.32</speed>
  <fix>3d</fix>
</trkpt>
<trkpt lat="40.0714876" lon="-105.2294582">
  <ele>1583.05</ele>
  <time>2026-08-28T17:56:51Z</time>
  <course>248.14</course>
  <speed>1.4326548781894402</speed>
  <fix>3d</fix>
</trkpt>
<trkpt lat="40.0714862" lon="-105.2294623">
  <ele>1583.0</ele>
  <time>2026-08-28T17:56:51Z</time>
  <course>65.99</course>
  <speed>1.32</speed>
  <fix>3d</fix>
</trkpt>
<trkpt lat="40.0714881" lon="-105.2294566">
  <ele>1583.05</ele>
  <time>2026-08-28T17:56:51Z</time>
  <course>248.14</course>
  <speed>1.4681961721786363</speed>
  <fix>3d</fix>
</trkpt>
<trkpt lat="40.0714872" lon="-105.2294594">
  <ele>1583.0</ele>
  <time>2026-08-28T17:56:51Z</time>
  <course>65.99</course>
  <speed>1.38</speed>
  <fix>3d</fix>
</trkpt>
<trkpt lat="40.0714887" lon="-105.2294551">
  <ele>1583.06</ele>
  <time>2026-08-28T17:56:51Z</time>
  <course>248.13</course>
  <speed>1.4996666296213967</speed>
  <fix>3d</fix>
</trkpt>
<trkpt lat="40.0714872" lon="-105.2294594">
  <ele>1583.0</ele>
  <time>2026-08-28T17:56:51Z</time>
  <course>65.99</course>
  <speed>1.38</speed>
  <fix>3d</fix>
</trkpt>
<trkpt lat="40.0714892" lon="-105.2294535">
  <ele>1583.06</ele>
  <time>2026-08-28T17:56:51Z</time>
  <course>248.13</course>
  <speed>1.5220052562327109</speed>
  <fix>3d</fix>
</trkpt>
<trkpt lat="40.0714882" lon="-105.2294564">
  <ele>1583.0</ele>
  <time>2026-08-28T17:56:51Z</time>
  <course>65.99</course>
  <speed>1.44</speed>
  <fix>3d</fix>
</trkpt>
<trkpt lat="40.0714898" lon="-105.2294519">
  <ele>1583.07</ele>
  <time>2026-08-28T17:56:51Z</time>
  <course>248.13</course>
  <speed>1.54434452114805</speed>
  <fix>3d</fix>
</trkpt>
<trkpt lat="40.0714882" lon="-105.2294564">
  <ele>1583.0</ele>
  <time>2026-08-28T17:56:51Z</time>
  <course>65.99</course>
  <speed>1.44</speed>
  <fix>3d</fix>
</trkpt>
<trkpt lat="40.0714903" lon="-105.2294502">
  <ele>1583.07</ele>
  <time>2026-08-28T17:56:51Z</time>
  <course>248.12</course>
  <speed>1.5666843970627906</speed>
  <fix>3d</fix>
</trkpt>
<trkpt lat="40.0714893" lon="-105.2294532">
  <ele>1583.0</ele>
  <time>2026-08-28T17:56:51Z</time>
  <course>65.99</course>
  <speed>1.49</speed>
  <fix>3d</fix>
</trkpt>
<trkpt lat="40.0714909" lon="-105.2294486">
  <ele>1583.08</ele>
  <time>2026-08-28T17:56:51Z</time>
  <course>248.12</course>
  <speed>1.5758172482873767</speed>
  <fix>3d</fix>
</trkpt>
<trkpt lat="40.0714893" lon="-105.2294532">
  <ele>1583.0</ele>
  <time>2026-08-28T17:56:51Z</time>
  <course>65.99</course>
  <speed>1.49</speed>
  <fix>3d</fix>
</trkpt>
<trkpt lat="40.0714914" lon="-105.2294469">
  <ele>1583.09</ele>
  <time>2026-08-28T17:56:51Z</time>
  <course>248.11</course>
  <speed>1.598155186457185</speed>
  <fix>3d</fix>
</trkpt>
<trkpt lat="40.0714904" lon="-105.22945">
  <ele>1583.0</ele>
  <time>2026-08-28T17:56:51Z</time>
  <course>65.99</course>
  <speed>1.54</speed>
  <fix>3d</fix>
</trkpt>
<trkpt lat="40.071492" lon="-105.2294453">
  <ele>1583.09</ele>
  <time>2026-08-28T17:56:51Z</time>
  <course>248.11</course>
  <speed>1.6113658802394943</speed>
  <fix>3d</fix>
</trkpt>
<trkpt lat="40.0714904" lon="-105.22945">
  <ele>1583.0</ele>
  <time>2026-08-28T17:56:51Z</time>
  <course>65.99</course>
  <speed>1.54</speed>
  <fix>3d</fix>
</trkpt>
<trkpt lat="40.0714926" lon="-105.2294436">
  <ele>1583.1</ele>
  <time>2026-08-28T17:56:51Z</time>
  <course>248.11</course>
  <speed>1.6296318602678337</speed>
  <fix>3d</fix>
</trkpt>
<trkpt lat="40.0714916" lon="-105.2294467">
  <ele>1583.0</ele>
  <time>2026-08-28T17:56:51Z</time>
  <course>66.0</course>
  <speed>1.58</speed>
  <fix>3d</fix>
</trkpt>
<trkpt lat="40.071493" lon="-105.2294422">
  <ele>1583.1</ele>
  <time>2026-08-28T17:56:51Z</time>
  <course>248.1</course>
  <speed>1.6337074401495513</speed>
  <fix>3d</fix>
</trkpt>
<trkpt lat="40.0714916" lon="-105.2294467">
  <ele>1583.0</ele>
  <time>2026-08-28T17:56:51Z</time>
  <course>66.0</course>
  <speed>1.58</speed>
  <fix>3d</fix>
</trkpt>
<trkpt lat="40.0714936" lon="-105.2294405">
  <ele>1583.1</ele>
  <time>2026-08-28T17:56:51Z</time>
  <course>248.1</course>
  <speed>1.6519685227025362</speed>
  <fix>3d</fix>
</trkpt>
<trkpt lat="40.0714928" lon="-105.2294432">
  <ele>1583.0</ele>
  <time>2026-08-28T17:56:51Z</time>
  <course>66.0</course>
  <speed>1.61</speed>
  <fix>3d</fix>
</trkpt>
<trkpt lat="40.0714942" lon="-105.2294387">
  <ele>1583.11</ele>
  <time>2026-08-28T17:56:51Z</time>
  <course>248.09</course>
  <speed>1.665172663719892</speed>
  <fix>3d</fix>
</trkpt>
<trkpt lat="40.0714928" lon="-105.2294432">
  <ele>1583.0</ele>
  <time>2026-08-28T17:56:51Z</time>
  <course>66.0</course>
  <speed>1.61</speed>
  <fix>3d</fix>
</trkpt>
<trkpt lat="40.0714948" lon="-105.229437">
  <ele>1583.11</ele>
  <time>2026-08-28T17:56:51Z</time>
  <course>248.09</course>
  <speed>1.6743058263053379</speed>
  <fix>3d</fix>
</trkpt>
<trkpt lat="40.071494" lon="-105.2294397">
  <ele>1583.0</ele>
  <time>2026-08-28T17:56:51Z</time>
  <course>66.0</course>
  <speed>1.64</speed>
  <fix>3d</fix>
</trkpt>
<trkpt lat="40.0714954" lon="-105.2294355">
  <ele>1583.11</ele>
  <time>2026-08-28T17:56:51Z</time>
  <course>247.76</course>
  <speed>1.1943617542436629</speed>
  <fix>3d</fix>
</trkpt>
<trkpt lat="40.071494" lon="-105.2294397">
  <ele>1583.0</ele>
  <time>2026-08-28T17:56:51Z</time>
  <course>66.0</course>
  <speed>1.64</speed>
  <fix>3d</fix>
</trkpt>
<trkpt lat="40.0714958" lon="-105.2294345">
  <ele>1583.12</ele>
  <time>2026-08-28T17:56:51Z</time>
  <course>247.42</course>
  <speed>0.7647875521999558</speed>
  <fix>3d</fix>
</trkpt>
<trkpt lat="40.071495" lon="-105.2294366">
  <ele>1583.0</ele>
  <time>2026-08-28T17:56:51Z</time>
  <course>65.79</course>
  <speed>1.24</speed>
  <fix>3d</fix>
</trkpt>
<trkpt lat="40.071496" lon="-105.229434">
  <ele>1583.12</ele>
  <time>2026-08-28T17:56:51Z</time>
  <course>247.16</course>
  <speed>0.3689173349139343</speed>
  <fix>3d</fix>
</trkpt>
<trkpt lat="40.071495" lon="-105.2294366">
  <ele>1583.0</ele>
  <time>2026-08-28T17:56:51Z</time>
  <course>65.79</course>
  <speed>1.24</speed>
  <fix>3d</fix>
</trkpt>
<trkpt lat="40.0714961" lon="-105.2294339">
  <ele>1583.12</ele>
  <time>2026-08-28T17:56:51Z</time>
  <course>247.05</course>
  <speed>0.0632455532033676</speed>
  <fix>3d</fix>
</trkpt>
<trkpt lat="40.0714956" lon="-105.2294347">
  <ele>1583.0</ele>
  <time>2026-08-28T17:56:51Z</time>
  <course>65.36</course>
  <speed>0.45</speed>
  <fix>3d</fix>
</trkpt>
<trkpt lat="40.071496" lon="-105.2294343">
  <ele>1583.12</ele>
  <time>2026-08-28T17:56:51Z</time>
  <course>246.94</course>
  <speed>0.3687817782917155</speed>
  <fix>3d</fix>
</trkpt>
<trkpt lat="40.0714956" lon="-105.2294347">
  <ele>1583.0</ele>
  <time>2026-08-28T17:56:51Z</time>
  <course>65.36</course>
  <speed>0.45</speed>
  <fix>3d</fix>
</trkpt>
<trkpt lat="40.0714957" lon="-105.2294351">
  <ele>1583.12</ele>
  <time>2026-08-28T17:56:51Z</time>
  <course>246.45</course>
  <speed>0.7810889834071404</speed>
  <fix>3d</fix>
</trkpt>
<trkpt lat="40.0714957" lon="-105.2294345">
  <ele>1583.0</ele>
  <time>2026-08-28T17:56:51Z</time>
  <course>244.55</course>
  <speed>0.26</speed>
  <fix>3d</fix>
</trkpt>
<trkpt lat="40.0714954" lon="-105.2294362">
  <ele>1583.12</ele>
  <time>2026-08-28T17:56:51Z</time>
  <course>245.76</course>
  <speed>1.104943437466371</speed>
  <fix>3d</fix>
</trkpt>
<trkpt lat="40.0714957" lon="-105.2294345">
  <ele>1583.0</ele>
  <time>2026-08-28T17:56:51Z</time>
  <course>244.55</course>
  <speed>0.26</speed>
  <fix>3d</fix>
</trkpt>
<trkpt lat="40.0714949" lon="-105.2294377">
  <ele>1583.12</ele>
  <time>2026-08-28T17:56:51Z</time>
  <course>245.0</course>
  <speed>1.4115594213493106</speed>
  <fix>3d</fix>
</trkpt>
<trkpt lat="40.0714953" lon="-105.2294358">
  <ele>1583.0</ele>
  <time>2026-08-28T17:56:51Z</time>
  <course>243.75</course>
  <speed>0.93</speed>
  <fix>3d</fix>
</trkpt>
<trkpt lat="40.0714943" lon="-105.2294394">
  <ele>1583.12</ele>
  <time>2026-08-28T17:56:51Z</time>
  <course>244.25</course>
  <speed>1.6875129629131742</speed>
  <fix>3d</fix>
</trkpt>
<trkpt lat="40.0714953" lon="-105.2294358">
  <ele>1583.0</ele>
  <time>2026-08-28T17:56:51Z</time>
  <course>243.75</course>
  <speed>0.93</speed>
  <fix>3d</fix>
</trkpt>
<trkpt lat="40.0714935" lon="-105.2294414">
  <ele>1583.12</ele>
  <time>2026-08-28T17:56:51Z</time>
  <course>243.56</course>
  <speed>1.9458931111445972</speed>
  <fix>3d</fix>
</trkpt>
<trkpt lat="40.0714943" lon="-105.2294383">
  <ele>1583.0</ele>
  <time>2026-08-28T17:56:51Z</time>
  <course>242.49</course>
  <speed>1.52</speed>
  <fix>3d</fix>
</trkpt>
<trkpt lat="40.0714926" lon="-105.2294436">
  <ele>1583.12</ele>
  <time>2026-08-28T17:56:51Z</time>
  <course>242.96</course>
  <speed>2.1824756585125984</speed>
  <fix>3d</fix>
</trkpt>
<trkpt lat="40.0714943" lon="-105.2294383">
  <ele>1583.0</ele>
  <time>2026-08-28T17:56:51Z</time>
  <course>242.49</course>
  <speed>1.52</speed>
  <fix>3d</fix>
</trkpt>
<trkpt lat="40.0714916" lon="-105.2294461">
  <ele>1583.12</ele>
  <time>2026-08-28T17:56:51Z</time>
  <course>242.5</course>
  <speed>2.3970815588961507</speed>
  <fix>3d</fix>
</trkpt>
<trkpt lat="40.0714928" lon="-105.2294421">
  <ele>1583.0</ele>
  <time>2026-08-28T17:56:51Z</time>
  <course>241.33</course>
  <speed>2.01</speed>
  <fix>3d</fix>
</trkpt>
<trkpt lat="40.0714905" lon="-105.2294487">
  <ele>1583.12</ele>
  <time>2026-08-28T17:56:51Z</time>
  <course>242.2</course>
  <speed>2.598499567057882</speed>
  <fix>3d</fix>
</trkpt>
<trkpt lat="40.0714928" lon="-105.2294421">
  <ele>1583.0</ele>
  <time>2026-08-28T17:56:51Z</time>
  <course>241.33</course>
  <speed>2.01</speed>
  <fix>3d</fix>
</trkpt>
<trkpt lat="40.0714893" lon="-105.2294515">
  <ele>1583.13</ele>
  <time>2026-08-28T17:56:51Z</time>
  <course>242.02</course>
  <speed>2.7777148881769707</speed>
  <fix>3d</fix>
</trkpt>
<trkpt lat="40.0714909" lon="-105.2294466">
  <ele>1583.0</ele>
  <time>2026-08-28T17:56:51Z</time>
  <course>240.61</course>
  <speed>2.43</speed>
  <fix>3d</fix>
</trkpt>
<trkpt lat="40.071488" lon="-105.2294544">
  <ele>1583.13</ele>
  <time>2026-08-28T17:56:51Z</time>
  <course>241.89</course>
  <speed>2.9435352894096583</speed>
  <fix>3d</fix>
</trkpt>
<trkpt lat="40.0714909" lon="-105.2294466">
  <ele>1583.0</ele>
  <time>2026-08-28T17:56:51Z</time>
  <course>240.61</course>
  <speed>2.43</speed>
  <fix>3d</fix>
</trkpt>
<trkpt lat="40.0714867" lon="-105.2294574">
  <ele>1583.14</ele>
  <time>2026-08-28T17:56:51Z</time>
  <course>241.83</course>
  <speed>3.073532169995948</speed>
  <fix>3d</fix>
</trkpt>
<trkpt lat="40.0714885" lon="-105.229452">
  <ele>1583.0</ele>
  <time>2026-08-28T17:56:51Z</time>
  <course>240.32</course>
  <speed>2.78</speed>
  <fix>3d</fix>
</trkpt>
<trkpt lat="40.0714853" lon="-105.2294606">
  <ele>1583.14</ele>
  <time>2026-08-28T17:56:51Z</time>
  <course>241.79</course>
  <speed>3.1900156739426846</speed>
  <fix>3d</fix>
</trkpt>
<trkpt lat="40.0714885" lon="-105.229452">
  <ele>1583.0</ele>
  <time>2026-08-28T17:56:51Z</time>
  <course>240.32</course>
  <speed>2.78</speed>
  <fix>3d</fix>
</trkpt>
<trkpt lat="40.0714842" lon="-105.2294632">
  <ele>1583.15</ele>
  <time>2026-08-28T17:56:51Z</time>
  <course>241.76</course>
  <speed>3.261809313862477</speed>
  <fix>3d</fix>
</trkpt>
<trkpt lat="40.0714859" lon="-105.2294579">
  <ele>1583.0</ele>
  <time>2026-08-28T17:56:51Z</time>
  <course>240.25</course>
  <speed>3.06</speed>
  <fix>3d</fix>
</trkpt>
<trkpt lat="40.0714827" lon="-105.2294665">
  <ele>1583.15</ele>
  <time>2026-08-28T17:56:51Z</time>
  <course>241.74</course>
  <speed>3.347177915797127</speed>
  <fix>3d</fix>
</trkpt>
<trkpt lat="40.0714859" lon="-105.2294579">
  <ele>1583.0</ele>
  <time>2026-08-28T17:56:51Z</time>
  <course>240.25</course>
  <speed>3.06</speed>
  <fix>3d</fix>
</trkpt>
<trkpt lat="40.0714812" lon="-105.22947">
  <ele>1583.15</ele>
  <time>2026-08-28T17:56:51Z</time>
  <course>241.75</course>
  <speed>3.4190057034172963</speed>
  <fix>3d</fix>
</trkpt>
<trkpt lat="40.0714831" lon="-105.2294644">
  <ele>1583.0</ele>
  <time>2026-08-28T17:56:51Z</time>
  <course>240.28</course>
  <speed>3.25</speed>
  <fix>3d</fix>
</trkpt>
<trkpt lat="40.0714796" lon="-105.2294734">
  <ele>1583.16</ele>
  <time>2026-08-28T17:56:51Z</time>
  <course>241.77</course>
  <speed>3.4772690433729743</speed>
  <fix>3d</fix>
</trkpt>
<trkpt lat="40.0714831" lon="-105.2294644">
  <ele>1583.0</ele>
  <time>2026-08-28T17:56:51Z</time>
  <course>240.28</course>
  <speed>3.25</speed>
  <fix>3d</fix>
</trkpt>
<trkpt lat="40.071478" lon="-105.229477">
  <ele>1583.16</ele>
  <time>2026-08-28T17:56:51Z</time>
  <course>241.79</course>
  <speed>3.5219596817680916</speed>
  <fix>3d</fix>
</trkpt>
<trkpt lat="40.0714801" lon="-105.2294712">
  <ele>1583.0</ele>
  <time>2026-08-28T17:56:51Z</time>
  <course>240.35</course>
  <speed>3.38</speed>
  <fix>3d</fix>
</trkpt>
<trkpt lat="40.0714765" lon="-105.2294806">
  <ele>1583.17</ele>
  <time>2026-08-28T17:56:51Z</time>
  <course>241.82</course>
  <speed>3.5578785814021257</speed>
  <fix>3d</fix>
</trkpt>
<trkpt lat="40.0714801" lon="-105.2294712">
  <ele>1583.0</ele>
  <time>2026-08-28T17:56:51Z</time>
  <course>240.35</course>
  <speed>3.38</speed>
  <fix>3d</fix>
</trkpt>
<trkpt lat="40.0714749" lon="-105.2294842">
  <ele>1583.17</ele>
  <time>2026-08-28T17:56:51Z</time>
  <course>241.86</course>
  <speed>3.5850383540486708</speed>
  <fix>3d</fix>
</trkpt>
<trkpt lat="40.0714771" lon="-105.2294782">
  <ele>1583.0</ele>
  <time>2026-08-28T17:56:51Z</time>
  <course>240.45</course>
  <speed>3.47</speed>
  <fix>3d</fix>
</trkpt>
<trkpt lat="40.0714733" lon="-105.2294878">
  <ele>1583.17</ele>
  <time>2026-08-28T17:56:51Z</time>
  <course>241.91</course>
  <speed>3.6073813216792043</speed>
  <fix>3d</fix>
</trkpt>
<trkpt lat="40.0714771" lon="-105.2294782">
  <ele>1583.0</ele>
  <time>2026-08-28T17:56:51Z</time>
  <course>240.45</course>
  <speed>3.47</speed>
  <fix>3d</fix>
</trkpt>
<trkpt lat="40.0714717" lon="-105.2294915">
  <ele>1583.18</ele>
  <time>2026-08-28T17:56:51Z</time>
  <course>241.95</course>
  <speed>3.6297245074523214</speed>
  <fix>3d</fix>
</trkpt>
<trkpt lat="40.071474" lon="-105.2294854">
  <ele>1583.0</ele>
  <time>2026-08-28T17:56:51Z</time>
  <course>240.56</course>
  <speed>3.53</speed>
  <fix>3d</fix>
</trkpt>
<trkpt lat="40.0714697" lon="-105.2294959">
  <ele>1583.18</ele>
  <time>2026-08-28T17:56:51Z</time>
  <course>242.02</course>
  <speed>3.6433089355694226</speed>
  <fix>3d</fix>
</trkpt>
<trkpt lat="40.071474" lon="-105.2294854">
  <ele>1583.0</ele>
  <time>2026-08-28T17:56:51Z</time>
  <course>240.56</course>
  <speed>3.53</speed>
  <fix>3d</fix>
</trkpt>
<trkpt lat="40.0714681" lon="-105.2294996">
  <ele>1583.18</ele>
  <time>2026-08-28T17:56:51Z</time>
  <course>242.06</course>
  <speed>3.6568975922221285</speed>
  <fix>3d</fix>
</trkpt>
<trkpt lat="40.0714708" lon="-105.2294926">
  <ele>1583.0</ele>
  <time>2026-08-28T17:56:51Z</time>
  <course>240.67</course>
  <speed>3.57</speed>
  <fix>3d</fix>
</trkpt>
<trkpt lat="40.0714665" lon="-105.2295033">
  <ele>1583.18</ele>
  <time>2026-08-28T17:56:51Z</time>
  <course>242.11</course>
  <speed>3.6656513745854227</speed>
  <fix>3d</fix>
</trkpt>
<trkpt lat="40.0714708" lon="-105.2294926">
  <ele>1583.0</ele>
  <time>2026-08-28T17:56:51Z</time>
  <course>240.67</course>
  <speed>3.57</speed>
  <fix>3d</fix>
</trkpt>
<trkpt lat="40.0714649" lon="-105.229507">
  <ele>1583.19</ele>
  <time>2026-08-28T17:56:51Z</time>
  <course>242.15</course>
  <speed>3.67441151750862</speed>
  <fix>3d</fix>
</trkpt>
<trkpt lat="40.0714677" lon="-105.2295">
  <ele>1583.0</ele>
  <time>2026-08-28T17:56:51Z</time>
  <course>240.78</course>
  <speed>3.6</speed>
  <fix>3d</fix>
</trkpt>
<trkpt lat="40.0714633" lon="-105.2295107">
  <ele>1583.19</ele>
  <time>2026-08-28T17:56:51Z</time>
  <course>242.2</course>
  <speed>3.6792390517605673</speed>
  <fix>3d</fix>
</trkpt>
<trkpt lat="40.0714677" lon="-105.2295">
  <ele>1583.0</ele>
  <time>2026-08-28T17:56:51Z</time>
  <course>240.78</course>
  <speed>3.6</speed>
  <fix>3d</fix>
</trkpt>
<trkpt lat="40.0714617" lon="-105.2295144">
  <ele>1583.19</ele>
  <time>2026-08-28T17:56:51Z</time>
  <course>242.25</course>
  <speed>3.6792390517605673</speed>
  <fix>3d</fix>
</trkpt>
<trkpt lat="40.0714646" lon="-105.2295074">
  <ele>1583.0</ele>
  <time>2026-08-28T17:56:51Z</time>
  <course>240.88</course>
  <speed>3.62</speed>
  <fix>3d</fix>
</trkpt>
<trkpt lat="40.0714601" lon="-105.2295182">
  <ele>1583.2</ele>
  <time>2026-08-28T17:56:51Z</time>
  <course>242.3</course>
  <speed>3.687994034702334</speed>
  <fix>3d</fix>
</trkpt>
<trkpt lat="40.0714646" lon="-105.2295074">
  <ele>1583.0</ele>
  <time>2026-08-28T17:56:51Z</time>
  <course>240.88</course>
  <speed>3.62</speed>
  <fix>3d</fix>
</trkpt>
<trkpt lat="40.0714586" lon="-105.2295219">
  <ele>1583.2</ele>
  <time>2026-08-28T17:56:51Z</time>
  <course>242.36</course>
  <speed>3.687994034702334</speed>
  <fix>3d</fix>
</trkpt>
<trkpt lat="40.0714614" lon="-105.2295149">
  <ele>1583.0</ele>
  <time>2026-08-28T17:56:51Z</time>
  <course>240.98</course>
  <speed>3.63</speed>
  <fix>3d</fix>
</trkpt>
<trkpt lat="40.071457" lon="-105.2295256">
  <ele>1583.2</ele>
  <time>2026-08-28T17:56:51Z</time>
  <course>242.41</course>
  <speed>3.67441151750862</speed>
  <fix>3d</fix>
</trkpt>
<trkpt lat="40.0714614" lon="-105.2295149">
  <ele>1583.0</ele>
  <time>2026-08-28T17:56:51Z</time>
  <course>240.98</course>
  <speed>3.63</speed>
  <fix>3d</fix>
</trkpt>
<trkpt lat="40.0714554" lon="-105.2295293">
  <ele>1583.2</ele>
  <time>2026-08-28T17:56:51Z</time>
  <course>242.46</course>
  <speed>3.67441151750862</speed>
  <fix>3d</fix>
</trkpt>
<trkpt lat="40.0714581" lon="-105.2295224">
  <ele>1583.0</ele>
  <time>2026-08-28T17:56:51Z</time>
  <course>241.08</course>
  <speed>3.64</speed>
  <fix>3d</fix>
</trkpt>
<trkpt lat="40.0714538" lon="-105.2295329">
  <ele>1583.2</ele>
  <time>2026-08-28T17:56:51Z</time>
  <course>242.51</course>
  <speed>3.67441151750862</speed>
  <fix>3d</fix>
</trkpt>
<trkpt lat="40.0714581" lon="-105.2295224">
  <ele>1583.0</ele>
  <time>2026-08-28T17:56:51Z</time>
  <course>241.08</course>
  <speed>3.64</speed>
  <fix>3d</fix>
</trkpt>
<trkpt lat="40.0714526" lon="-105.2295359">
  <ele>1583.19</ele>
  <time>2026-08-28T17:56:51Z</time>
  <course>242.56</course>
  <speed>3.67441151750862</speed>
  <fix>3d</fix>
</trkpt>
<trkpt lat="40.071455" lon="-105.2295298">
  <ele>1583.0</ele>
  <time>2026-08-28T17:56:51Z</time>
  <course>241.17</course>
  <speed>3.65</speed>
  <fix>3d</fix>
</trkpt>
<trkpt lat="40.071451" lon="-105.2295396">
  <ele>1583.19</ele>
  <time>2026-08-28T17:56:51Z</time>
  <course>242.61</course>
  <speed>3.6696048833627852</speed>
  <fix>3d</fix>
</trkpt>
<trkpt lat="40.071455" lon="-105.2295298">
  <ele>1583.0</ele>
  <time>2026-08-28T17:56:51Z</time>
  <course>241.17</course>
  <speed>3.65</speed>
  <fix>3d</fix>
</trkpt>
<trkpt lat="40.0714494" lon="-105.2295433">
  <ele>1583.19</ele>
  <time>2026-08-28T17:56:51Z</time>
  <course>242.66</course>
  <speed>3.6696048833627852</speed>
  <fix>3d</fix>
</trkpt>
<trkpt lat="40.0714519" lon="-105.2295374">
  <ele>1583.0</ele>
  <time>2026-08-28T17:56:51Z</time>
  <course>241.27</course>
  <speed>3.66</speed>
  <fix>3d</fix>
</trkpt>
<trkpt lat="40.0714479" lon="-105.2295471">
  <ele>1583.19</ele>
  <time>2026-08-28T17:56:51Z</time>
  <course>242.72</course>
  <speed>3.6696048833627852</speed>
  <fix>3d</fix>
</trkpt>
<trkpt lat="40.0714519" lon="-105.2295374">
  <ele>1583.0</ele>
  <time>2026-08-28T17:56:51Z</time>
  <course>241.27</course>
  <speed>3.66</speed>
  <fix>3d</fix>
</trkpt>
<trkpt lat="40.0714463" lon="-105.2295508">
  <ele>1583.19</ele>
  <time>2026-08-28T17:56:51Z</time>
  <course>242.77</course>
  <speed>3.6696048833627852</speed>
  <fix>3d</fix>
</trkpt>
<trkpt lat="40.0714487" lon="-105.229545">
  <ele>1583.0</ele>
  <time>2026-08-28T17:56:51Z</time>
  <course>241.37</course>
  <speed>3.66</speed>
  <fix>3d</fix>
</trkpt>
<trkpt lat="40.0714447" lon="-105.2295546">
  <ele>1583.19</ele>
  <time>2026-08-28T17:56:51Z</time>
  <course>242.82</course>
  <speed>3.6648192315583588</speed>
  <fix>3d</fix>
</trkpt>
<trkpt lat="40.0714487" lon="-105.229545">
  <ele>1583.0</ele>
  <time>2026-08-28T17:56:51Z</time>
  <course>241.37</course>
  <speed>3.66</speed>
  <fix>3d</fix>
</trkpt>
<trkpt lat="40.0714431" lon="-105.2295584">
  <ele>1583.19</ele>
  <time>2026-08-28T17:56:51Z</time>
  <course>242.88</course>
  <speed>3.6648192315583588</speed>
  <fix>3d</fix>
</trkpt>
<trkpt lat="40.0714456" lon="-105.2295525">
  <ele>1583.0</ele>
  <time>2026-08-28T17:56:51Z</time>
  <course>241.47</course>
  <speed>3.67</speed>
  <fix>3d</fix>
</trkpt>
<trkpt lat="40.0714416" lon="-105.2295622">
  <ele>1583.2</ele>
  <time>2026-08-28T17:56:51Z</time>
  <course>242.93</course>
  <speed>3.6648192315583588</speed>
  <fix>3d</fix>
</trkpt>
<trkpt lat="40.0714456" lon="-105.2295525">
  <ele>1583.0</ele>
  <time>2026-08-28T17:56:51Z</time>
  <course>241.47</course>
  <speed>3.67</speed>
  <fix>3d</fix>
</trkpt>
<trkpt lat="40.07144" lon="-105.2295659">
  <ele>1583.2</ele>
  <time>2026-08-28T17:56:51Z</time>
  <course>242.99</course>
  <speed>3.6648192315583588</speed>
  <fix>3d</fix>
</trkpt>
<trkpt lat="40.0714424" lon="-105.2295601">
  <ele>1583.0</ele>
  <time>2026-08-28T17:56:51Z</time>
  <course>241.57</course>
  <speed>3.67</speed>
  <fix>3d</fix>
</trkpt>
<trkpt lat="40.0714384" lon="-105.2295697">
  <ele>1583.2</ele>
  <time>2026-08-28T17:56:51Z</time>
  <course>243.04</course>
  <speed>3.660054644400818</speed>
  <fix>3d</fix>
</trkpt>
<trkpt lat="40.0714424" lon="-105.2295601">
  <ele>1583.0</ele>
  <time>2026-08-28T17:56:51Z</time>
  <course>241.57</course>
  <speed>3.67</speed>
  <fix>3d</fix>
</trkpt>
<trkpt lat="40.0714365" lon="-105.2295743">
  <ele>1583.21</ele>
  <time>2026-08-28T17:56:51Z</time>
  <course>243.1</course>
  <speed>3.668855407344367</speed>
  <fix>3d</fix>
</trkpt>
<trkpt lat="40.0714392" lon="-105.2295676">
  <ele>1583.0</ele>
  <time>2026-08-28T17:56:51Z</time>
  <course>241.67</course>
  <speed>3.68</speed>
  <fix>3d</fix>
</trkpt>
<trkpt lat="40.071435" lon="-105.2295781">
  <ele>1583.21</ele>
  <time>2026-08-28T17:56:51Z</time>
  <course>243.16</course>
  <speed>3.668855407344367</speed>
  <fix>3d</fix>
</trkpt>
<trkpt lat="40.0714392" lon="-105.2295676">
  <ele>1583.0</ele>
  <time>2026-08-28T17:56:51Z</time>
  <course>241.67</course>
  <speed>3.68</speed>
  <fix>3d</fix>
</trkpt>
<trkpt lat="40.0714334" lon="-105.2295819">
  <ele>1583.21</ele>
  <time>2026-08-28T17:56:51Z</time>
  <course>243.21</course>
  <speed>3.668855407344367</speed>
  <fix>3d</fix>
</trkpt>
<trkpt lat="40.0714361" lon="-105.2295753">
  <ele>1583.0</ele>
  <time>2026-08-28T17:56:51Z</time>
  <course>241.77</course>
  <speed>3.68</speed>
  <fix>3d</fix>
</trkpt>
<trkpt lat="40.0714318" lon="-105.2295857">
  <ele>1583.21</ele>
  <time>2026-08-28T17:56:51Z</time>
  <course>243.26</course>
  <speed>3.6641233603687526</speed>
  <fix>3d</fix>
</trkpt>
<trkpt lat="40.0714361" lon="-105.2295753">
  <ele>1583.0</ele>
  <time>2026-08-28T17:56:51Z</time>
  <course>241.77</course>
  <speed>3.68</speed>
  <fix>3d</fix>
</trkpt>
<trkpt lat="40.0714303" lon="-105.2295895">
  <ele>1583.22</ele>
  <time>2026-08-28T17:56:51Z</time>
  <course>243.3</course>
  <speed>3.6641233603687526</speed>
  <fix>3d</fix>
</trkpt>
<trkpt lat="40.071433" lon="-105.2295829">
  <ele>1583.0</ele>
  <time>2026-08-28T17:56:51Z</time>
  <course>241.86</course>
  <speed>3.68</speed>
  <fix>3d</fix>
</trkpt>
<trkpt lat="40.0714287" lon="-105.2295933">
  <ele>1583.22</ele>
  <time>2026-08-28T17:56:51Z</time>
  <course>243.32</course>
  <speed>3.6641233603687526</speed>
  <fix>3d</fix>
</trkpt>
<trkpt lat="40.071433" lon="-105.2295829">
  <ele>1583.0</ele>
  <time>2026-08-28T17:56:51Z</time>
  <course>241.86</course>
  <speed>3.68</speed>
  <fix>3d</fix>
</trkpt>
<trkpt lat="40.0714272" lon="-105.2295971">
  <ele>1583.21</ele>
  <time>2026-08-28T17:56:51Z</time>
  <course>243.35</course>
  <speed>3.6641233603687526</speed>
  <fix>3d</fix>
</trkpt>
<trkpt lat="40.0714299" lon="-105.2295906">
  <ele>1583.0</ele>
  <time>2026-08-28T17:56:51Z</time>
  <course>241.93</course>
  <speed>3.69</speed>
  <fix>3d</fix>
</trkpt>
<trkpt lat="40.0714256" lon="-105.2296009">
  <ele>1583.21</ele>
  <time>2026-08-28T17:56:51Z</time>
  <course>243.36</course>
  <speed>3.6641233603687526</speed>
  <fix>3d</fix>
</trkpt>
<trkpt lat="40.0714299" lon="-105.2295906">
  <ele>1583.0</ele>
  <time>2026-08-28T17:56:51Z</time>
  <course>241.93</course>
  <speed>3.69</speed>
  <fix>3d</fix>
</trkpt>
<trkpt lat="40.0714241" lon="-105.2296046">
  <ele>1583.21</ele>
  <time>2026-08-28T17:56:51Z</time>
  <course>243.37</course>
  <speed>3.6594125211569137</speed>
  <fix>3d</fix>
</trkpt>
<trkpt lat="40.0714267" lon="-105.2295982">
  <ele>1583.0</ele>
  <time>2026-08-28T17:56:51Z</time>
  <course>241.97</course>
  <speed>3.69</speed>
  <fix>3d</fix>
</trkpt>
<trkpt lat="40.0714226" lon="-105.2296084">
  <ele>1583.2</ele>
  <time>2026-08-28T17:56:51Z</time>
  <course>243.39</course>
  <speed>3.6594125211569137</speed>
  <fix>3d</fix>
</trkpt>
<trkpt lat="40.0714267" lon="-105.2295982">
  <ele>1583.0</ele>
  <time>2026-08-28T17:56:51Z</time>
  <course>241.97</course>
  <speed>3.69</speed>
  <fix>3d</fix>
</trkpt>
<trkpt lat="40.071421" lon="-105.2296122">
  <ele>1583.2</ele>
  <time>2026-08-28T17:56:51Z</time>
  <course>243.39</course>
  <speed>3.650588993573503</speed>
  <fix>3d</fix>
</trkpt>
<trkpt lat="40.0714236" lon="-105.2296059">
  <ele>1583.0</ele>
  <time>2026-08-28T17:56:51Z</time>
  <course>241.99</course>
  <speed>3.69</speed>
  <fix>3d</fix>
</trkpt>
<trkpt lat="40.0714198" lon="-105.2296152">
  <ele>1583.2</ele>
  <time>2026-08-28T17:56:51Z</time>
  <course>243.41</course>
  <speed>3.650588993573503</speed>
  <fix>3d</fix>
</trkpt>
<trkpt lat="40.0714236" lon="-105.2296059">
  <ele>1583.0</ele>
  <time>2026-08-28T17:56:51Z</time>
  <course>241.99</course>
  <speed>3.69</speed>
  <fix>3d</fix>
</trkpt>
<trkpt lat="40.0714183" lon="-105.229619">
  <ele>1583.2</ele>
  <time>2026-08-28T17:56:51Z</time>
  <course>243.41</course>
  <speed>3.650588993573503</speed>
  <fix>3d</fix>
</trkpt>
<trkpt lat="40.0714205" lon="-105.2296135">
  <ele>1583.0</ele>
  <time>2026-08-28T17:56:51Z</time>
  <course>242.0</course>
  <speed>3.69</speed>
  <fix>3d</fix>
</trkpt>
<trkpt lat="40.0714167" lon="-105.2296228">
  <ele>1583.2</ele>
  <time>2026-08-28T17:56:51Z</time>
  <course>243.42</course>
  <speed>3.650588993573503</speed>
  <fix>3d</fix>
</trkpt>
<trkpt lat="40.0714205" lon="-105.2296135">
  <ele>1583.0</ele>
  <time>2026-08-28T17:56:51Z</time>
  <course>242.0</course>
  <speed>3.69</speed>
  <fix>3d</fix>
</trkpt>
<trkpt lat="40.0714152" lon="-105.2296266">
  <ele>1583.2</ele>
  <time>2026-08-28T17:56:51Z</time>
  <course>243.43</course>
  <speed>3.650588993573503</speed>
  <fix>3d</fix>
</trkpt>
<trkpt lat="40.0714174" lon="-105.2296212">
  <ele>1583.0</ele>
  <time>2026-08-28T17:56:51Z</time>
  <course>242.01</course>
  <speed>3.7</speed>
  <fix>3d</fix>
</trkpt>
<trkpt lat="40.0714136" lon="-105.2296305">
  <ele>1583.2</ele>
  <time>2026-08-28T17:56:51Z</time>
  <course>243.43</course>
  <speed>3.650588993573503</speed>
  <fix>3d</fix>
</trkpt>
<trkpt lat="40.0714174" lon="-105.2296212">
  <ele>1583.0</ele>
  <time>2026-08-28T17:56:51Z</time>
  <course>242.01</course>
  <speed>3.7</speed>
  <fix>3d</fix>
</trkpt>
<trkpt lat="40.071412" lon="-105.2296343">
  <ele>1583.19</ele>
  <time>2026-08-28T17:56:51Z</time>
  <course>243.44</course>
  <speed>3.6458880948268284</speed>
  <fix>3d</fix>
</trkpt>
<trkpt lat="40.0714143" lon="-105.2296289">
  <ele>1583.0</ele>
  <time>2026-08-28T17:56:51Z</time>
  <course>242.01</course>
  <speed>3.7</speed>
  <fix>3d</fix>
</trkpt>
<trkpt lat="40.0714105" lon="-105.2296382">
  <ele>1583.19</ele>
  <time>2026-08-28T17:56:51Z</time>
  <course>243.44</course>
  <speed>3.6458880948268284</speed>
  <fix>3d</fix>
</trkpt>
<trkpt lat="40.0714143" lon="-105.2296289">
  <ele>1583.0</ele>
  <time>2026-08-28T17:56:51Z</time>
  <course>242.01</course>
  <speed>3.7</speed>
  <fix>3d</fix>
</trkpt>
<trkpt lat="40.0714089" lon="-105.229642">
  <ele>1583.18</ele>
  <time>2026-08-28T17:56:51Z</time>
  <course>243.44</course>
  <speed>3.6458880948268284</speed>
  <fix>3d</fix>
</trkpt>
<trkpt lat="40.0714111" lon="-105.2296366">
  <ele>1583.0</ele>
  <time>2026-08-28T17:56:51Z</time>
  <course>242.01</course>
  <speed>3.7</speed>
  <fix>3d</fix>
</trkpt>
<trkpt lat="40.0714074" lon="-105.2296459">
  <ele>1583.18</ele>
  <time>2026-08-28T17:56:51Z</time>
  <course>243.45</course>
  <speed>3.6458880948268284</speed>
  <fix>3d</fix>
</trkpt>
<trkpt lat="40.0714111" lon="-105.2296366">
  <ele>1583.0</ele>
  <time>2026-08-28T17:56:51Z</time>
  <course>242.01</course>
  <speed>3.7</speed>
  <fix>3d</fix>
</trkpt>
<trkpt lat="40.0714058" lon="-105.2296497">
  <ele>1583.18</ele>
  <time>2026-08-28T17:56:51Z</time>
  <course>243.45</course>
  <speed>3.6458880948268284</speed>
  <fix>3d</fix>
</trkpt>
<trkpt lat="40.071408" lon="-105.2296442">
  <ele>1583.0</ele>
  <time>2026-08-28T17:56:51Z</time>
  <course>242.01</course>
  <speed>3.7</speed>
  <fix>3d</fix>
</trkpt>
<trkpt lat="40.0714039" lon="-105.2296543">
  <ele>1583.17</ele>
  <time>2026-08-28T17:56:51Z</time>
  <course>243.46</course>
  <speed>3.6547229717175553</speed>
  <fix>3d</fix>
</trkpt>
<trkpt lat="40.071408" lon="-105.2296442">
  <ele>1583.0</ele>
  <time>2026-08-28T17:56:51Z</time>
  <course>242.01</course>
  <speed>3.7</speed>
  <fix>3d</fix>
</trkpt>
<trkpt lat="40.0714024" lon="-105.2296582">
  <ele>1583.17</ele>
  <time>2026-08-28T17:56:51Z</time>
  <course>243.46</course>
  <speed>3.6547229717175553</speed>
  <fix>3d</fix>
</trkpt>
<trkpt lat="40.0714049" lon="-105.2296519">
  <ele>1583.0</ele>
  <time>2026-08-28T17:56:51Z</time>
  <course>242.01</course>
  <speed>3.7</speed>
  <fix>3d</fix>
</trkpt>
<trkpt lat="40.0714008" lon="-105.229662">
  <ele>1583.17</ele>
  <time>2026-08-28T17:56:51Z</time>
  <course>243.47</course>
  <speed>3.6547229717175553</speed>
  <fix>3d</fix>
</trkpt>
<trkpt lat="40.0714049" lon="-105.2296519">
  <ele>1583.0</ele>
  <time>2026-08-28T17:56:51Z</time>
  <course>242.01</course>
  <speed>3.7</speed>
  <fix>3d</fix>
</trkpt>
<trkpt lat="40.0713992" lon="-105.2296659">
  <ele>1583.17</ele>
  <time>2026-08-28T17:56:51Z</time>
  <course>243.47</course>
  <speed>3.6547229717175553</speed>
  <fix>3d</fix>
</trkpt>
<trkpt lat="40.0714018" lon="-105.2296596">
  <ele>1583.0</ele>
  <time>2026-08-28T17:56:51Z</time>
  <course>242.01</course>
  <speed>3.7</speed>
  <fix>3d</fix>
</trkpt>
<trkpt lat="40.0713977" lon="-105.2296697">
  <ele>1583.16</ele>
  <time>2026-08-28T17:56:51Z</time>
  <course>243.47</course>
  <speed>3.6547229717175553</speed>
  <fix>3d</fix>
</trkpt>
<trkpt lat="40.0714018" lon="-105.2296596">
  <ele>1583.0</ele>
  <time>2026-08-28T17:56:51Z</time>
  <course>242.01</course>
  <speed>3.7</speed>
  <fix>3d</fix>
</trkpt>
<trkpt lat="40.0713961" lon="-105.2296736">
  <ele>1583.16</ele>
  <time>2026-08-28T17:56:51Z</time>
  <course>243.48</course>
  <speed>3.6547229717175553</speed>
  <fix>3d</fix>
</trkpt>
<trkpt lat="40.0713987" lon="-105.2296673">
  <ele>1583.0</ele>
  <time>2026-08-28T17:56:51Z</time>
  <course>242.01</course>
  <speed>3.7</speed>
  <fix>3d</fix>
</trkpt>
<trkpt lat="40.0713946" lon="-105.2296774">
  <ele>1583.16</ele>
  <time>2026-08-28T17:56:51Z</time>
  <course>243.48</course>
  <speed>3.6547229717175553</speed>
  <fix>3d</fix>
</trkpt>
<trkpt lat="40.0713987" lon="-105.2296673">
  <ele>1583.0</ele>
  <time>2026-08-28T17:56:51Z</time>
  <course>242.01</course>
  <speed>3.7</speed>
  <fix>3d</fix>
</trkpt>
<trkpt lat="40.071393" lon="-105.2296812">
  <ele>1583.16</ele>
  <time>2026-08-28T17:56:51Z</time>
  <course>243.49</course>
  <speed>3.6547229717175553</speed>
  <fix>3d</fix>
</trkpt>
<trkpt lat="40.0713955" lon="-105.229675">
  <ele>1583.0</ele>
  <time>2026-08-28T17:56:51Z</time>
  <course>242.01</course>
  <speed>3.7</speed>
  <fix>3d</fix>
</trkpt>
<trkpt lat="40.0713915" lon="-105.229685">
  <ele>1583.16</ele>
  <time>2026-08-28T17:56:51Z</time>
  <course>243.49</course>
  <speed>3.6547229717175553</speed>
  <fix>3d</fix>
</trkpt>
<trkpt lat="40.0713955" lon="-105.229675">
  <ele>1583.0</ele>
  <time>2026-08-28T17:56:51Z</time>
  <course>242.01</course>
  <speed>3.7</speed>
  <fix>3d</fix>
</trkpt>
<trkpt lat="40.0713899" lon="-105.2296888">
  <ele>1583.16</ele>
  <time>2026-08-28T17:56:51Z</time>
  <course>243.5</course>
  <speed>3.650054794109261</speed>
  <fix>3d</fix>
</trkpt>
<trkpt lat="40.0713924" lon="-105.2296827">
  <ele>1583.0</ele>
  <time>2026-08-28T17:56:51Z</time>
  <course>242.01</course>
  <speed>3.7</speed>
  <fix>3d</fix>
</trkpt>
<trkpt lat="40.0713884" lon="-105.2296926">
  <ele>1583.16</ele>
  <time>2026-08-28T17:56:51Z</time>
  <course>243.5</course>
  <speed>3.641208590564402</speed>
  <fix>3d</fix>
</trkpt>
<trkpt lat="40.0713924" lon="-105.2296827">
  <ele>1583.0</ele>
  <time>2026-08-28T17:56:51Z</time>
  <course>242.01</course>
  <speed>3.7</speed>
  <fix>3d</fix>
</trkpt>
<trkpt lat="40.0713872" lon="-105.2296957">
  <ele>1583.16</ele>
  <time>2026-08-28T17:56:51Z</time>
  <course>243.5</course>
  <speed>3.641208590564402</speed>
  <fix>3d</fix>
</trkpt>
<trkpt lat="40.0713893" lon="-105.2296904">
  <ele>1583.0</ele>
  <time>2026-08-28T17:56:51Z</time>
  <course>242.01</course>
  <speed>3.7</speed>
  <fix>3d</fix>
</trkpt>
<trkpt lat="40.0713856" lon="-105.2296996">
  <ele>1583.17</ele>
  <time>2026-08-28T17:56:51Z</time>
  <course>243.51</course>
  <speed>3.641208590564402</speed>
  <fix>3d</fix>
</trkpt>
<trkpt lat="40.0713893" lon="-105.2296904">
  <ele>1583.0</ele>
  <time>2026-08-28T17:56:51Z</time>
  <course>242.01</course>
  <speed>3.7</speed>
  <fix>3d</fix>
</trkpt>
<trkpt lat="40.071384" lon="-105.2297034">
  <ele>1583.17</ele>
  <time>2026-08-28T17:56:51Z</time>
  <course>243.51</course>
  <speed>3.641208590564402</speed>
  <fix>3d</fix>
</trkpt>
<trkpt lat="40.0713861" lon="-105.229698">
  <ele>1583.0</ele>
  <time>2026-08-28T17:56:51Z</time>
  <course>242.01</course>
  <speed>3.7</speed>
  <fix>3d</fix>
</trkpt>
<trkpt lat="40.0713825" lon="-105.2297073">
  <ele>1583.17</ele>
  <time>2026-08-28T17:56:51Z</time>
  <course>243.52</course>
  <speed>3.650054794109261</speed>
  <fix>3d</fix>
</trkpt>
<trkpt lat="40.0713861" lon="-105.229698">
  <ele>1583.0</ele>
  <time>2026-08-28T17:56:51Z</time>
  <course>242.01</course>
  <speed>3.7</speed>
  <fix>3d</fix>
</trkpt>
<trkpt lat="40.0713809" lon="-105.2297111">
  <ele>1583.17</ele>
  <time>2026-08-28T17:56:51Z</time>
  <course>243.53</course>
  <speed>3.650054794109261</speed>
  <fix>3d</fix>
</trkpt>
<trkpt lat="40.071383" lon="-105.2297057">
  <ele>1583.0</ele>
  <time>2026-08-28T17:56:51Z</time>
  <course>242.01</course>
  <speed>3.7</speed>
  <fix>3d</fix>
</trkpt>
<trkpt lat="40.0713794" lon="-105.229715">
  <ele>1583.17</ele>
  <time>2026-08-28T17:56:51Z</time>
  <course>243.53</course>
  <speed>3.650054794109261</speed>
  <fix>3d</fix>
</trkpt>
<trkpt lat="40.071383" lon="-105.2297057">
  <ele>1583.0</ele>
  <time>2026-08-28T17:56:51Z</time>
  <course>242.01</course>
  <speed>3.7</speed>
  <fix>3d</fix>
</trkpt>
<trkpt lat="40.0713778" lon="-105.2297188">
  <ele>1583.17</ele>
  <time>2026-08-28T17:56:51Z</time>
  <course>243.54</course>
  <speed>3.650054794109261</speed>
  <fix>3d</fix>
</trkpt>
<trkpt lat="40.0713799" lon="-105.2297134">
  <ele>1583.0</ele>
  <time>2026-08-28T17:56:51Z</time>
  <course>242.01</course>
  <speed>3.7</speed>
  <fix>3d</fix>
</trkpt>
<trkpt lat="40.0713762" lon="-105.2297227">
  <ele>1583.17</ele>
  <time>2026-08-28T17:56:51Z</time>
  <course>243.54</course>
  <speed>3.650054794109261</speed>
  <fix>3d</fix>
</trkpt>
<trkpt lat="40.0713799" lon="-105.2297134">
  <ele>1583.0</ele>
  <time>2026-08-28T17:56:51Z</time>
  <course>242.01</course>
  <speed>3.7</speed>
  <fix>3d</fix>
</trkpt>
<trkpt lat="40.0713747" lon="-105.2297265">
  <ele>1583.17</ele>
  <time>2026-08-28T17:56:51Z</time>
  <course>243.55</course>
  <speed>3.650054794109261</speed>
  <fix>3d</fix>
</trkpt>
<trkpt lat="40.0713768" lon="-105.229721">
  <ele>1583.0</ele>
  <time>2026-08-28T17:56:51Z</time>
  <course>242.01</course>
  <speed>3.7</speed>
  <fix>3d</fix>
</trkpt>
<trkpt lat="40.0713731" lon="-105.2297304">
  <ele>1583.17</ele>
  <time>2026-08-28T17:56:51Z</time>
  <course>243.55</course>
  <speed>3.650054794109261</speed>
  <fix>3d</fix>
</trkpt>
<trkpt lat="40.0713768" lon="-105.229721">
  <ele>1583.0</ele>
  <time>2026-08-28T17:56:51Z</time>
  <course>242.01</course>
  <speed>3.7</speed>
  <fix>3d</fix>
</trkpt>
<trkpt lat="40.0713712" lon="-105.229735">
  <ele>1583.17</ele>
  <time>2026-08-28T17:56:51Z</time>
  <course>243.56</course>
  <speed>3.6589069406039827</speed>
  <fix>3d</fix>
</trkpt>
<trkpt lat="40.0713736" lon="-105.2297287">
  <ele>1583.0</ele>
  <time>2026-08-28T17:56:51Z</time>
  <course>242.01</course>
  <speed>3.7</speed>
  <fix>3d</fix>
</trkpt>
<trkpt lat="40.0713697" lon="-105.2297389">
  <ele>1583.17</ele>
  <time>2026-08-28T17:56:51Z</time>
  <course>243.56</course>
  <speed>3.6589069406039827</speed>
  <fix>3d</fix>
</trkpt>
<trkpt lat="40.0713736" lon="-105.2297287">
  <ele>1583.0</ele>
  <time>2026-08-28T17:56:51Z</time>
  <course>242.01</course>
  <speed>3.7</speed>
  <fix>3d</fix>
</trkpt>
<trkpt lat="40.0713681" lon="-105.2297427">
  <ele>1583.17</ele>
  <time>2026-08-28T17:56:51Z</time>
  <course>243.57</course>
  <speed>3.6589069406039827</speed>
  <fix>3d</fix>
</trkpt>
<trkpt lat="40.0713705" lon="-105.2297364">
  <ele>1583.0</ele>
  <time>2026-08-28T17:56:51Z</time>
  <course>242.01</course>
  <speed>3.7</speed>
  <fix>3d</fix>
</trkpt>
<trkpt lat="40.0713665" lon="-105.2297466">
  <ele>1583.17</ele>
  <time>2026-08-28T17:56:51Z</time>
  <course>243.57</course>
  <speed>3.6589069406039827</speed>
  <fix>3d</fix>
</trkpt>
<trkpt lat="40.0713705" lon="-105.2297364">
  <ele>1583.0</ele>
  <time>2026-08-28T17:56:51Z</time>
  <course>242.01</course>
  <speed>3.7</speed>
  <fix>3d</fix>
</trkpt>
<trkpt lat="40.071365" lon="-105.2297504">
  <ele>1583.17</ele>
  <time>2026-08-28T17:56:51Z</time>
  <course>243.58</course>
  <speed>3.6589069406039827</speed>
  <fix>3d</fix>
</trkpt>
<trkpt lat="40.0713674" lon="-105.2297441">
  <ele>1583.0</ele>
  <time>2026-08-28T17:56:51Z</time>
  <course>242.01</course>
  <speed>3.7</speed>
  <fix>3d</fix>
</trkpt>
<trkpt lat="40.0713634" lon="-105.2297543">
  <ele>1583.17</ele>
  <time>2026-08-28T17:56:51Z</time>
  <course>243.58</course>
  <speed>3.6589069406039827</speed>
  <fix>3d</fix>
</trkpt>
<trkpt lat="40.0713674" lon="-105.2297441">
  <ele>1583.0</ele>
  <time>2026-08-28T17:56:51Z</time>
  <course>242.01</course>
  <speed>3.7</speed>
  <fix>3d</fix>
</trkpt>
<trkpt lat="40.0713618" lon="-105.2297581">
  <ele>1583.16</ele>
  <time>2026-08-28T17:56:51Z</time>
  <course>243.58</course>
  <speed>3.6589069406039827</speed>
  <fix>3d</fix>
</trkpt>
<trkpt lat="40.0713643" lon="-105.2297518">
  <ele>1583.0</ele>
  <time>2026-08-28T17:56:51Z</time>
  <course>242.01</course>
  <speed>3.7</speed>
  <fix>3d</fix>
</trkpt>
<trkpt lat="40.0713603" lon="-105.2297619">
  <ele>1583.16</ele>
  <time>2026-08-28T17:56:51Z</time>
  <course>243.59</course>
  <speed>3.6589069406039827</speed>
  <fix>3d</fix>
</trkpt>
<trkpt lat="40.0713643" lon="-105.2297518">
  <ele>1583.0</ele>
  <time>2026-08-28T17:56:51Z</time>
  <course>242.01</course>
  <speed>3.7</speed>
  <fix>3d</fix>
</trkpt>
<trkpt lat="40.0713588" lon="-105.2297657">
  <ele>1583.16</ele>
  <time>2026-08-28T17:56:51Z</time>
  <course>243.59</course>
  <speed>3.6589069406039827</speed>
  <fix>3d</fix>
</trkpt>
<trkpt lat="40.0713612" lon="-105.2297595">
  <ele>1583.0</ele>
  <time>2026-08-28T17:56:51Z</time>
  <course>242.01</course>
  <speed>3.7</speed>
  <fix>3d</fix>
</trkpt>
<trkpt lat="40.0713572" lon="-105.2297695">
  <ele>1583.16</ele>
  <time>2026-08-28T17:56:51Z</time>
  <course>243.6</course>
  <speed>3.6589069406039827</speed>
  <fix>3d</fix>
</trkpt>
<trkpt lat="40.0713612" lon="-105.2297595">
  <ele>1583.0</ele>
  <time>2026-08-28T17:56:51Z</time>
  <course>242.01</course>
  <speed>3.7</speed>
  <fix>3d</fix>
</trkpt>
<trkpt lat="40.0713557" lon="-105.2297733">
  <ele>1583.16</ele>
  <time>2026-08-28T17:56:51Z</time>
  <course>243.6</course>
  <speed>3.6589069406039827</speed>
  <fix>3d</fix>
</trkpt>
<trkpt lat="40.071358" lon="-105.2297672">
  <ele>1583.0</ele>
  <time>2026-08-28T17:56:51Z</time>
  <course>242.01</course>
  <speed>3.7</speed>
  <fix>3d</fix>
</trkpt>
<trkpt lat="40.0713544" lon="-105.2297764">
  <ele>1583.16</ele>
  <time>2026-08-28T17:56:51Z</time>
  <course>243.6</course>
  <speed>3.650054794109261</speed>
  <fix>3d</fix>
</trkpt>
<trkpt lat="40.071358" lon="-105.2297672">
  <ele>1583.0</ele>
  <time>2026-08-28T17:56:51Z</time>
  <course>242.01</course>
  <speed>3.7</speed>
  <fix>3d</fix>
</trkpt>
<trkpt lat="40.0713529" lon="-105.2297802">
  <ele>1583.16</ele>
  <time>2026-08-28T17:56:51Z</time>
  <course>243.61</course>
  <speed>3.645408070436011</speed>
  <fix>3d</fix>
</trkpt>
<trkpt lat="40.0713549" lon="-105.2297749">
  <ele>1583.0</ele>
  <time>2026-08-28T17:56:51Z</time>
  <course>242.01</course>
  <speed>3.7</speed>
  <fix>3d</fix>
</trkpt>
<trkpt lat="40.0713513" lon="-105.2297841">
  <ele>1583.16</ele>
  <time>2026-08-28T17:56:51Z</time>
  <course>243.61</course>
  <speed>3.6542714732214407</speed>
  <fix>3d</fix>
</trkpt>
<trkpt lat="40.0713549" lon="-105.2297749">
  <ele>1583.0</ele>
  <time>2026-08-28T17:56:51Z</time>
  <course>242.01</course>
  <speed>3.7</speed>
  <fix>3d</fix>
</trkpt>
<trkpt lat="40.0713498" lon="-105.2297879">
  <ele>1583.16</ele>
  <time>2026-08-28T17:56:51Z</time>
  <course>243.61</course>
  <speed>3.6542714732214407</speed>
  <fix>3d</fix>
</trkpt>
<trkpt lat="40.0713518" lon="-105.2297825">
  <ele>1583.0</ele>
  <time>2026-08-28T17:56:51Z</time>
  <course>242.01</course>
  <speed>3.7</speed>
  <fix>3d</fix>
</trkpt>
<trkpt lat="40.0713482" lon="-105.2297918">
  <ele>1583.16</ele>
  <time>2026-08-28T17:56:51Z</time>
  <course>243.62</course>
  <speed>3.6542714732214407</speed>
  <fix>3d</fix>
</trkpt>
<trkpt lat="40.0713518" lon="-105.2297825">
  <ele>1583.0</ele>
  <time>2026-08-28T17:56:51Z</time>
  <course>242.01</course>
  <speed>3.7</speed>
  <fix>3d</fix>
</trkpt>
<trkpt lat="40.0713466" lon="-105.2297957">
  <ele>1583.16</ele>
  <time>2026-08-28T17:56:51Z</time>
  <course>243.62</course>
  <speed>3.6542714732214407</speed>
  <fix>3d</fix>
</trkpt>
<trkpt lat="40.0713487" lon="-105.2297902">
  <ele>1583.0</ele>
  <time>2026-08-28T17:56:51Z</time>
  <course>242.01</course>
  <speed>3.7</speed>
  <fix>3d</fix>
</trkpt>
<trkpt lat="40.0713451" lon="-105.2297995">
  <ele>1583.16</ele>
  <time>2026-08-28T17:56:51Z</time>
  <course>243.62</course>
  <speed>3.6589069406039827</speed>
  <fix>3d</fix>
</trkpt>
<trkpt lat="40.0713487" lon="-105.2297902">
  <ele>1583.0</ele>
  <time>2026-08-28T17:56:51Z</time>
  <course>242.01</course>
  <speed>3.7</speed>
  <fix>3d</fix>
</trkpt>
<trkpt lat="40.0713435" lon="-105.2298034">
  <ele>1583.15</ele>
  <time>2026-08-28T17:56:51Z</time>
  <course>243.63</course>
  <speed>3.6589069406039827</speed>
  <fix>3d</fix>
</trkpt>
<trkpt lat="40.0713455" lon="-105.2297979">
  <ele>1583.0</ele>
  <time>2026-08-28T17:56:51Z</time>
  <course>242.01</course>
  <speed>3.7</speed>
  <fix>3d</fix>
</trkpt>
<trkpt lat="40.0713419" lon="-105.2298073">
  <ele>1583.15</ele>
  <time>2026-08-28T17:56:51Z</time>
  <course>243.63</course>
  <speed>3.6589069406039827</speed>
  <fix>3d</fix>
</trkpt>
<trkpt lat="40.0713455" lon="-105.2297979">
  <ele>1583.0</ele>
  <time>2026-08-28T17:56:51Z</time>
  <course>242.01</course>
  <speed>3.7</speed>
  <fix>3d</fix>
</trkpt>
<trkpt lat="40.0713404" lon="-105.2298111">
  <ele>1583.15</ele>
  <time>2026-08-28T17:56:51Z</time>
  <course>243.63</course>
  <speed>3.6589069406039827</speed>
  <fix>3d</fix>
</trkpt>
<trkpt lat="40.0713424" lon="-105.2298056">
  <ele>1583.0</ele>
  <time>2026-08-28T17:56:51Z</time>
  <course>242.01</course>
  <speed>3.7</speed>
  <fix>3d</fix>
</trkpt>
<trkpt lat="40.0713385" lon="-105.2298158">
  <ele>1583.14</ele>
  <time>2026-08-28T17:56:51Z</time>
  <course>243.64</course>
  <speed>3.667764987018661</speed>
  <fix>3d</fix>
</trkpt>
<trkpt lat="40.0713424" lon="-105.2298056">
  <ele>1583.0</ele>
  <time>2026-08-28T17:56:51Z</time>
  <course>242.01</course>
  <speed>3.7</speed>
  <fix>3d</fix>
</trkpt>
<trkpt lat="40.0713369" lon="-105.2298196">
  <ele>1583.14</ele>
  <time>2026-08-28T17:56:51Z</time>
  <course>243.64</course>
  <speed>3.667764987018661</speed>
  <fix>3d</fix>
</trkpt>
<trkpt lat="40.0713393" lon="-105.2298133">
  <ele>1583.0</ele>
  <time>2026-08-28T17:56:51Z</time>
  <course>242.01</course>
  <speed>3.7</speed>
  <fix>3d</fix>
</trkpt>
<trkpt lat="40.0713353" lon="-105.2298235">
  <ele>1583.13</ele>
  <time>2026-08-28T17:56:51Z</time>
  <course>243.64</course>
  <speed>3.667764987018661</speed>
  <fix>3d</fix>
</trkpt>
<trkpt lat="40.0713393" lon="-105.2298133">
  <ele>1583.0</ele>
  <time>2026-08-28T17:56:51Z</time>
  <course>242.01</course>
  <speed>3.7</speed>
  <fix>3d</fix>
</trkpt>
<trkpt lat="40.0713338" lon="-105.2298274">
  <ele>1583.13</ele>
  <time>2026-08-28T17:56:51Z</time>
  <course>243.64</course>
  <speed>3.667764987018661</speed>
  <fix>3d</fix>
</trkpt>
<trkpt lat="40.0713362" lon="-105.229821">
  <ele>1583.0</ele>
  <time>2026-08-28T17:56:51Z</time>
  <course>242.01</course>
  <speed>3.7</speed>
  <fix>3d</fix>
</trkpt>
<trkpt lat="40.0713322" lon="-105.2298312">
  <ele>1583.13</ele>
  <time>2026-08-28T17:56:51Z</time>
  <course>243.64</course>
  <speed>3.667764987018661</speed>
  <fix>3d</fix>
</trkpt>
<trkpt lat="40.0713362" lon="-105.229821">
  <ele>1583.0</ele>
  <time>2026-08-28T17:56:51Z</time>
  <course>242.01</course>
  <speed>3.7</speed>
  <fix>3d</fix>
</trkpt>
<trkpt lat="40.0713306" lon="-105.2298351">
  <ele>1583.13</ele>
  <time>2026-08-28T17:56:51Z</time>
  <course>243.65</course>
  <speed>3.667764987018661</speed>
  <fix>3d</fix>
</trkpt>
<trkpt lat="40.071333" lon="-105.2298287">
  <ele>1583.0</ele>
  <time>2026-08-28T17:56:51Z</time>
  <course>242.01</course>
  <speed>3.7</speed>
  <fix>3d</fix>
</trkpt>
<trkpt lat="40.0713291" lon="-105.229839">
  <ele>1583.12</ele>
  <time>2026-08-28T17:56:51Z</time>
  <course>243.65</course>
  <speed>3.667764987018661</speed>
  <fix>3d</fix>
</trkpt>
<trkpt lat="40.071333" lon="-105.2298287">
  <ele>1583.0</ele>
  <time>2026-08-28T17:56:51Z</time>
  <course>242.01</course>
  <speed>3.7</speed>
  <fix>3d</fix>
</trkpt>
<trkpt lat="40.0713275" lon="-105.2298428">
  <ele>1583.12</ele>
  <time>2026-08-28T17:56:51Z</time>
  <course>243.65</course>
  <speed>3.667764987018661</speed>
  <fix>3d</fix>
</trkpt>
<trkpt lat="40.0713299" lon="-105.2298364">
  <ele>1583.0</ele>
  <time>2026-08-28T17:56:51Z</time>
  <course>242.01</course>
  <speed>3.7</speed>
  <fix>3d</fix>
</trkpt>
<trkpt lat="40.071326" lon="-105.2298466">
  <ele>1583.12</ele>
  <time>2026-08-28T17:56:51Z</time>
  <course>243.65</course>
  <speed>3.667764987018661</speed>
  <fix>3d</fix>
</trkpt>
<trkpt lat="40.0713299" lon="-105.2298364">
  <ele>1583.0</ele>
  <time>2026-08-28T17:56:51Z</time>
  <course>242.01</course>
  <speed>3.7</speed>
  <fix>3d</fix>
</trkpt>
<trkpt lat="40.0713244" lon="-105.2298504">
  <ele>1583.12</ele>
  <time>2026-08-28T17:56:51Z</time>
  <course>243.65</course>
  <speed>3.667764987018661</speed>
  <fix>3d</fix>
</trkpt>
<trkpt lat="40.0713268" lon="-105.2298441">
  <ele>1583.0</ele>
  <time>2026-08-28T17:56:51Z</time>
  <course>242.01</course>
  <speed>3.7</speed>
  <fix>3d</fix>
</trkpt>
<trkpt lat="40.0713229" lon="-105.2298542">
  <ele>1583.12</ele>
  <time>2026-08-28T17:56:51Z</time>
  <course>243.65</course>
  <speed>3.667764987018661</speed>
  <fix>3d</fix>
</trkpt>
<trkpt lat="40.0713268" lon="-105.2298441">
  <ele>1583.0</ele>
  <time>2026-08-28T17:56:51Z</time>
  <course>242.01</course>
  <speed>3.7</speed>
  <fix>3d</fix>
</trkpt>
<trkpt lat="40.0713216" lon="-105.2298573">
  <ele>1583.12</ele>
  <time>2026-08-28T17:56:51Z</time>
  <course>243.65</course>
  <speed>3.667764987018661</speed>
  <fix>3d</fix>
</trkpt>
<trkpt lat="40.0713236" lon="-105.2298517">
  <ele>1583.0</ele>
  <time>2026-08-28T17:56:51Z</time>
  <course>242.01</course>
  <speed>3.7</speed>
  <fix>3d</fix>
</trkpt>
<trkpt lat="40.0713201" lon="-105.2298612">
  <ele>1583.12</ele>
  <time>2026-08-28T17:56:51Z</time>
  <course>243.65</course>
  <speed>3.667764987018661</speed>
  <fix>3d</fix>
</trkpt>
<trkpt lat="40.0713236" lon="-105.2298517">
  <ele>1583.0</ele>
  <time>2026-08-28T17:56:51Z</time>
  <course>242.01</course>
  <speed>3.7</speed>
  <fix>3d</fix>
</trkpt>
<trkpt lat="40.0713185" lon="-105.229865">
  <ele>1583.12</ele>
  <time>2026-08-28T17:56:51Z</time>
  <course>243.65</course>
  <speed>3.667764987018661</speed>
  <fix>3d</fix>
</trkpt>
<trkpt lat="40.0713205" lon="-105.2298594">
  <ele>1583.0</ele>
  <time>2026-08-28T17:56:51Z</time>
  <course>242.01</course>
  <speed>3.7</speed>
  <fix>3d</fix>
</trkpt>
<trkpt lat="40.0713169" lon="-105.2298689">
  <ele>1583.12</ele>
  <time>2026-08-28T17:56:51Z</time>
  <course>243.65</course>
  <speed>3.667764987018661</speed>
  <fix>3d</fix>
</trkpt>
<trkpt lat="40.0713205" lon="-105.2298594">
  <ele>1583.0</ele>
  <time>2026-08-28T17:56:51Z</time>
  <course>242.01</course>
  <speed>3.7</speed>
  <fix>3d</fix>
</trkpt>
<trkpt lat="40.0713154" lon="-105.2298727">
  <ele>1583.12</ele>
  <time>2026-08-28T17:56:51Z</time>
  <course>243.65</course>
  <speed>3.667764987018661</speed>
  <fix>3d</fix>
</trkpt>
<trkpt lat="40.0713174" lon="-105.2298671">
  <ele>1583.0</ele>
  <time>2026-08-28T17:56:51Z</time>
  <course>242.01</course>
  <speed>3.7</speed>
  <fix>3d</fix>
</trkpt>
<trkpt lat="40.0713138" lon="-105.2298766">
  <ele>1583.12</ele>
  <time>2026-08-28T17:56:51Z</time>
  <course>243.66</course>
  <speed>3.667764987018661</speed>
  <fix>3d</fix>
</trkpt>
<trkpt lat="40.0713174" lon="-105.2298671">
  <ele>1583.0</ele>
  <time>2026-08-28T17:56:51Z</time>
  <course>242.01</course>
  <speed>3.7</speed>
  <fix>3d</fix>
</trkpt>
<trkpt lat="40.0713122" lon="-105.2298805">
  <ele>1583.12</ele>
  <time>2026-08-28T17:56:51Z</time>
  <course>243.66</course>
  <speed>3.6766288907095315</speed>
  <fix>3d</fix>
</trkpt>
<trkpt lat="40.0713143" lon="-105.2298748">
  <ele>1583.0</ele>
  <time>2026-08-28T17:56:51Z</time>
  <course>242.01</course>
  <speed>3.7</speed>
  <fix>3d</fix>
</trkpt>
<trkpt lat="40.0713106" lon="-105.2298843">
  <ele>1583.12</ele>
  <time>2026-08-28T17:56:51Z</time>
  <course>243.66</course>
  <speed>3.6766288907095315</speed>
  <fix>3d</fix>
</trkpt>
<trkpt lat="40.0713143" lon="-105.2298748">
  <ele>1583.0</ele>
  <time>2026-08-28T17:56:51Z</time>
  <course>242.01</course>
  <speed>3.7</speed>
  <fix>3d</fix>
</trkpt>
<trkpt lat="40.0713091" lon="-105.2298882">
  <ele>1583.12</ele>
  <time>2026-08-28T17:56:51Z</time>
  <course>243.66</course>
  <speed>3.6766288907095315</speed>
  <fix>3d</fix>
</trkpt>
<trkpt lat="40.0713111" lon="-105.2298825">
  <ele>1583.0</ele>
  <time>2026-08-28T17:56:51Z</time>
  <course>242.01</course>
  <speed>3.7</speed>
  <fix>3d</fix>
</trkpt>
<trkpt lat="40.0713072" lon="-105.2298928">
  <ele>1583.12</ele>
  <time>2026-08-28T17:56:51Z</time>
  <course>243.66</course>
  <speed>3.6766288907095315</speed>
  <fix>3d</fix>
</trkpt>
<trkpt lat="40.0713111" lon="-105.2298825">
  <ele>1583.0</ele>
  <time>2026-08-28T17:56:51Z</time>
  <course>242.01</course>
  <speed>3.7</speed>
  <fix>3d</fix>
</trkpt>
<trkpt lat="40.0713056" lon="-105.2298967">
  <ele>1583.12</ele>
  <time>2026-08-28T17:56:51Z</time>
  <course>243.66</course>
  <speed>3.6766288907095315</speed>
  <fix>3d</fix>
</trkpt>
<trkpt lat="40.071308" lon="-105.2298902">
  <ele>1583.0</ele>
  <time>2026-08-28T17:56:51Z</time>
  <course>242.01</course>
  <speed>3.7</speed>
  <fix>3d</fix>
</trkpt>
<trkpt lat="40.071304" lon="-105.2299005">
  <ele>1583.12</ele>
  <time>2026-08-28T17:56:51Z</time>
  <course>243.66</course>
  <speed>3.6766288907095315</speed>
  <fix>3d</fix>
</trkpt>
<trkpt lat="40.071308" lon="-105.2298902">
  <ele>1583.0</ele>
  <time>2026-08-28T17:56:51Z</time>
  <course>242.01</course>
  <speed>3.7</speed>
  <fix>3d</fix>
</trkpt>
<trkpt lat="40.0713025" lon="-105.2299044">
  <ele>1583.12</ele>
  <time>2026-08-28T17:56:51Z</time>
  <course>243.66</course>
  <speed>3.6766288907095315</speed>
  <fix>3d</fix>
</trkpt>
<trkpt lat="40.0713049" lon="-105.2298979">
  <ele>1583.0</ele>
  <time>2026-08-28T17:56:51Z</time>
  <course>242.01</course>
  <speed>3.7</speed>
  <fix>3d</fix>
</trkpt>
<trkpt lat="40.0713009" lon="-105.2299083">
  <ele>1583.12</ele>
  <time>2026-08-28T17:56:51Z</time>
  <course>243.66</course>
  <speed>3.6766288907095315</speed>
  <fix>3d</fix>
</trkpt>
<trkpt lat="40.0713049" lon="-105.2298979">
  <ele>1583.0</ele>
  <time>2026-08-28T17:56:51Z</time>
  <course>242.01</course>
  <speed>3.7</speed>
  <fix>3d</fix>
</trkpt>
<trkpt lat="40.0712993" lon="-105.2299121">
  <ele>1583.12</ele>
  <time>2026-08-28T17:56:51Z</time>
  <course>243.65</course>
  <speed>3.6766288907095315</speed>
  <fix>3d</fix>
</trkpt>
<trkpt lat="40.0713018" lon="-105.2299056">
  <ele>1583.0</ele>
  <time>2026-08-28T17:56:51Z</time>
  <course>242.01</course>
  <speed>3.7</speed>
  <fix>3d</fix>
</trkpt>
<trkpt lat="40.0712978" lon="-105.229916">
  <ele>1583.12</ele>
  <time>2026-08-28T17:56:51Z</time>
  <course>243.65</course>
  <speed>3.6766288907095315</speed>
  <fix>3d</fix>
</trkpt>
<trkpt lat="40.0713018" lon="-105.2299056">
  <ele>1583.0</ele>
  <time>2026-08-28T17:56:51Z</time>
  <course>242.01</course>
  <speed>3.7</speed>
  <fix>3d</fix>
</trkpt>
<trkpt lat="40.0712962" lon="-105.2299198">
  <ele>1583.12</ele>
  <time>2026-08-28T17:56:51Z</time>
  <course>243.65</course>
  <speed>3.6766288907095315</speed>
  <fix>3d</fix>
</trkpt>
<trkpt lat="40.0712986" lon="-105.2299133">
  <ele>1583.0</ele>
  <time>2026-08-28T17:56:51Z</time>
  <course>242.01</course>
  <speed>3.7</speed>
  <fix>3d</fix>
</trkpt>
<trkpt lat="40.0712947" lon="-105.2299236">
  <ele>1583.12</ele>
  <time>2026-08-28T17:56:51Z</time>
  <course>243.65</course>
  <speed>3.6766288907095315</speed>
  <fix>3d</fix>
</trkpt>
<trkpt lat="40.0712986" lon="-105.2299133">
  <ele>1583.0</ele>
  <time>2026-08-28T17:56:51Z</time>
  <course>242.01</course>
  <speed>3.7</speed>
  <fix>3d</fix>
</trkpt>
<trkpt lat="40.0712931" lon="-105.2299274">
  <ele>1583.13</ele>
  <time>2026-08-28T17:56:51Z</time>
  <course>243.65</course>
  <speed>3.6766288907095315</speed>
  <fix>3d</fix>
</trkpt>
<trkpt lat="40.0712955" lon="-105.229921">
  <ele>1583.0</ele>
  <time>2026-08-28T17:56:51Z</time>
  <course>242.01</course>
  <speed>3.7</speed>
  <fix>3d</fix>
</trkpt>
<trkpt lat="40.0712916" lon="-105.2299312">
  <ele>1583.13</ele>
  <time>2026-08-28T17:56:51Z</time>
  <course>243.65</course>
  <speed>3.6766288907095315</speed>
  <fix>3d</fix>
</trkpt>
<trkpt lat="40.0712955" lon="-105.229921">
  <ele>1583.0</ele>
  <time>2026-08-28T17:56:51Z</time>
  <course>242.01</course>
  <speed>3.7</speed>
  <fix>3d</fix>
</trkpt>
<trkpt lat="40.07129" lon="-105.2299351">
  <ele>1583.13</ele>
  <time>2026-08-28T17:56:51Z</time>
  <course>243.65</course>
  <speed>3.6766288907095315</speed>
  <fix>3d</fix>
</trkpt>
<trkpt lat="40.0712924" lon="-105.2299287">
  <ele>1583.0</ele>
  <time>2026-08-28T17:56:51Z</time>
  <course>242.01</course>
  <speed>3.7</speed>
  <fix>3d</fix>
</trkpt>
<trkpt lat="40.0712888" lon="-105.2299381">
  <ele>1583.13</ele>
  <time>2026-08-28T17:56:51Z</time>
  <course>243.65</course>
  <speed>3.667764987018661</speed>
  <fix>3d</fix>
</trkpt>
<trkpt lat="40.0712924" lon="-105.2299287">
  <ele>1583.0</ele>
  <time>2026-08-28T17:56:51Z</time>
  <course>242.01</course>
  <speed>3.7</speed>
  <fix>3d</fix>
</trkpt>
<trkpt lat="40.0712872" lon="-105.2299419">
  <ele>1583.13</ele>
  <time>2026-08-28T17:56:51Z</time>
  <course>243.65</course>
  <speed>3.667764987018661</speed>
  <fix>3d</fix>
</trkpt>
<trkpt lat="40.0712893" lon="-105.2299364">
  <ele>1583.0</ele>
  <time>2026-08-28T17:56:51Z</time>
  <course>242.01</course>
  <speed>3.7</speed>
  <fix>3d</fix>
</trkpt>
<trkpt lat="40.0712857" lon="-105.2299458">
  <ele>1583.14</ele>
  <time>2026-08-28T17:56:51Z</time>
  <course>243.65</course>
  <speed>3.667764987018661</speed>
  <fix>3d</fix>
</trkpt>
<trkpt lat="40.0712893" lon="-105.2299364">
  <ele>1583.0</ele>
  <time>2026-08-28T17:56:51Z</time>
  <course>242.01</course>
  <speed>3.7</speed>
  <fix>3d</fix>
</trkpt>
<trkpt lat="40.0712841" lon="-105.2299496">
  <ele>1583.14</ele>
  <time>2026-08-28T17:56:51Z</time>
  <course>243.65</course>
  <speed>3.667764987018661</speed>
  <fix>3d</fix>
</trkpt>
<trkpt lat="40.0712861" lon="-105.229944">
  <ele>1583.0</ele>
  <time>2026-08-28T17:56:51Z</time>
  <course>242.01</course>
  <speed>3.7</speed>
  <fix>3d</fix>
</trkpt>
<trkpt lat="40.0712825" lon="-105.2299535">
  <ele>1583.14</ele>
  <time>2026-08-28T17:56:51Z</time>
  <course>243.65</course>
  <speed>3.6766288907095315</speed>
  <fix>3d</fix>
</trkpt>
<trkpt lat="40.0712861" lon="-105.229944">
  <ele>1583.0</ele>
  <time>2026-08-28T17:56:51Z</time>
  <course>242.01</course>
  <speed>3.7</speed>
  <fix>3d</fix>
</trkpt>
<trkpt lat="40.071281" lon="-105.2299573">
  <ele>1583.14</ele>
  <time>2026-08-28T17:56:51Z</time>
  <course>243.65</course>
  <speed>3.6766288907095315</speed>
  <fix>3d</fix>
</trkpt>
<trkpt lat="40.071283" lon="-105.2299517">
  <ele>1583.0</ele>
  <time>2026-08-28T17:56:51Z</time>
  <course>242.01</course>
  <speed>3.7</speed>
  <fix>3d</fix>
</trkpt>
<trkpt lat="40.0712794" lon="-105.2299612">
  <ele>1583.14</ele>
  <time>2026-08-28T17:56:51Z</time>
  <course>243.65</course>
  <speed>3.6766288907095315</speed>
  <fix>3d</fix>
</trkpt>
<trkpt lat="40.071283" lon="-105.2299517">
  <ele>1583.0</ele>
  <time>2026-08-28T17:56:51Z</time>
  <course>242.01</course>
  <speed>3.7</speed>
  <fix>3d</fix>
</trkpt>
<trkpt lat="40.0712778" lon="-105.2299651">
  <ele>1583.14</ele>
  <time>2026-08-28T17:56:51Z</time>
  <course>243.65</course>
  <speed>3.6766288907095315</speed>
  <fix>3d</fix>
</trkpt>
<trkpt lat="40.0712799" lon="-105.2299594">
  <ele>1583.0</ele>
  <time>2026-08-28T17:56:51Z</time>
  <course>242.01</course>
  <speed>3.7</speed>
  <fix>3d</fix>
</trkpt>
<trkpt lat="40.0712762" lon="-105.2299689">
  <ele>1583.14</ele>
  <time>2026-08-28T17:56:51Z</time>
  <course>243.64</course>
  <speed>3.6766288907095315</speed>
  <fix>3d</fix>
</trkpt>
<trkpt lat="40.0712799" lon="-105.2299594">
  <ele>1583.0</ele>
  <time>2026-08-28T17:56:51Z</time>
  <course>242.01</course>
  <speed>3.7</speed>
  <fix>3d</fix>
</trkpt>
<trkpt lat="40.0712744" lon="-105.2299736">
  <ele>1583.14</ele>
  <time>2026-08-28T17:56:51Z</time>
  <course>243.65</course>
  <speed>3.6766288907095315</speed>
  <fix>3d</fix>
</trkpt>
<trkpt lat="40.0712767" lon="-105.2299671">
  <ele>1583.0</ele>
  <time>2026-08-28T17:56:51Z</time>
  <course>242.02</course>
  <speed>3.7</speed>
  <fix>3d</fix>
</trkpt>
<trkpt lat="40.0712728" lon="-105.2299775">
  <ele>1583.14</ele>
  <time>2026-08-28T17:56:51Z</time>
  <course>243.67</course>
  <speed>3.6766288907095315</speed>
  <fix>3d</fix>
</trkpt>
<trkpt lat="40.0712767" lon="-105.2299671">
  <ele>1583.0</ele>
  <time>2026-08-28T17:56:51Z</time>
  <course>242.02</course>
  <speed>3.7</speed>
  <fix>3d</fix>
</trkpt>
<trkpt lat="40.0712712" lon="-105.2299813">
  <ele>1583.14</ele>
  <time>2026-08-28T17:56:51Z</time>
  <course>243.7</course>
  <speed>3.6766288907095315</speed>
  <fix>3d</fix>
</trkpt>
<trkpt lat="40.0712736" lon="-105.2299748">
  <ele>1583.0</ele>
  <time>2026-08-28T17:56:51Z</time>
  <course>242.04</course>
  <speed>3.7</speed>
  <fix>3d</fix>
</trkpt>
<trkpt lat="40.0712697" lon="-105.2299852">
  <ele>1583.14</ele>
  <time>2026-08-28T17:56:52Z</time>
  <course>243.72</course>
  <speed>3.6766288907095315</speed>
  <fix>3d</fix>
</trkpt>
<trkpt lat="40.0712736" lon="-105.2299748">
  <ele>1583.0</ele>
  <time>2026-08-28T17:56:52Z</time>
  <course>242.04</course>
  <speed>3.7</speed>
  <fix>3d</fix>
</trkpt>
<trkpt lat="40.0712681" lon="-105.229989">
  <ele>1583.14</ele>
  <time>2026-08-28T17:56:52Z</time>
  <course>243.74</course>
  <speed>3.685498609415014</speed>
  <fix>3d</fix>
</trkpt>
<trkpt lat="40.0712705" lon="-105.2299825">
  <ele>1583.0</ele>
  <time>2026-08-28T17:56:52Z</time>
  <course>242.08</course>
  <speed>3.7</speed>
  <fix>3d</fix>
</trkpt>
<trkpt lat="40.0712665" lon="-105.2299929">
  <ele>1583.14</ele>
  <time>2026-08-28T17:56:52Z</time>
  <course>243.77</course>
  <speed>3.685498609415014</speed>
  <fix>3d</fix>
</trkpt>
<trkpt lat="40.0712705" lon="-105.2299825">
  <ele>1583.0</ele>
  <time>2026-08-28T17:56:52Z</time>
  <course>242.08</course>
  <speed>3.7</speed>
  <fix>3d</fix>
</trkpt>
<trkpt lat="40.0712649" lon="-105.2299968">
  <ele>1583.15</ele>
  <time>2026-08-28T17:56:52Z</time>
  <course>243.81</course>
  <speed>3.685498609415014</speed>
  <fix>3d</fix>
</trkpt>
<trkpt lat="40.0712674" lon="-105.2299902">
  <ele>1583.0</ele>
  <time>2026-08-28T17:56:52Z</time>
  <course>242.13</course>
  <speed>3.71</speed>
  <fix>3d</fix>
</trkpt>
<trkpt lat="40.0712634" lon="-105.2300006">
  <ele>1583.15</ele>
  <time>2026-08-28T17:56:52Z</time>
  <course>243.83</course>
  <speed>3.685498609415014</speed>
  <fix>3d</fix>
</trkpt>
<trkpt lat="40.0712674" lon="-105.2299902">
  <ele>1583.0</ele>
  <time>2026-08-28T17:56:52Z</time>
  <course>242.13</course>
  <speed>3.71</speed>
  <fix>3d</fix>
</trkpt>
<trkpt lat="40.0712619" lon="-105.2300045">
  <ele>1583.15</ele>
  <time>2026-08-28T17:56:52Z</time>
  <course>243.87</course>
  <speed>3.680896629898753</speed>
  <fix>3d</fix>
</trkpt>
<trkpt lat="40.0712643" lon="-105.2299979">
  <ele>1583.0</ele>
  <time>2026-08-28T17:56:52Z</time>
  <course>242.2</course>
  <speed>3.71</speed>
  <fix>3d</fix>
</trkpt>
<trkpt lat="40.0712603" lon="-105.2300083">
  <ele>1583.16</ele>
  <time>2026-08-28T17:56:52Z</time>
  <course>243.92</course>
  <speed>3.680896629898753</speed>
  <fix>3d</fix>
</trkpt>
<trkpt lat="40.0712643" lon="-105.2299979">
  <ele>1583.0</ele>
  <time>2026-08-28T17:56:52Z</time>
  <course>242.2</course>
  <speed>3.71</speed>
  <fix>3d</fix>
</trkpt>
<trkpt lat="40.0712588" lon="-105.2300121">
  <ele>1583.16</ele>
  <time>2026-08-28T17:56:52Z</time>
  <course>243.97</course>
  <speed>3.680896629898753</speed>
  <fix>3d</fix>
</trkpt>
<trkpt lat="40.0712612" lon="-105.2300056">
  <ele>1583.0</ele>
  <time>2026-08-28T17:56:52Z</time>
  <course>242.29</course>
  <speed>3.71</speed>
  <fix>3d</fix>
</trkpt>
<trkpt lat="40.0712575" lon="-105.2300152">
  <ele>1583.16</ele>
  <time>2026-08-28T17:56:52Z</time>
  <course>244.0</course>
  <speed>3.6763160908714037</speed>
  <fix>3d</fix>
</trkpt>
<trkpt lat="40.0712612" lon="-105.2300056">
  <ele>1583.0</ele>
  <time>2026-08-28T17:56:52Z</time>
  <course>242.29</course>
  <speed>3.71</speed>
  <fix>3d</fix>
</trkpt>
<trkpt lat="40.071256" lon="-105.230019">
  <ele>1583.16</ele>
  <time>2026-08-28T17:56:52Z</time>
  <course>244.0</course>
  <speed>3.6763160908714037</speed>
  <fix>3d</fix>
</trkpt>
<trkpt lat="40.0712581" lon="-105.2300133">
  <ele>1583.0</ele>
  <time>2026-08-28T17:56:52Z</time>
  <course>242.36</course>
  <speed>3.71</speed>
  <fix>3d</fix>
</trkpt>
<trkpt lat="40.0712545" lon="-105.2300229">
  <ele>1583.16</ele>
  <time>2026-08-28T17:56:52Z</time>
  <course>243.95</course>
  <speed>3.680896629898753</speed>
  <fix>3d</fix>
</trkpt>
<trkpt lat="40.0712581" lon="-105.2300133">
  <ele>1583.0</ele>
  <time>2026-08-28T17:56:52Z</time>
  <course>242.36</course>
  <speed>3.71</speed>
  <fix>3d</fix>
</trkpt>
<trkpt lat="40.0712529" lon="-105.2300267">
  <ele>1583.16</ele>
  <time>2026-08-28T17:56:52Z</time>
  <course>243.8</course>
  <speed>3.685498609415014</speed>
  <fix>3d</fix>
</trkpt>
<trkpt lat="40.071255" lon="-105.230021">
  <ele>1583.0</ele>
  <time>2026-08-28T17:56:52Z</time>
  <course>242.3</course>
  <speed>3.71</speed>
  <fix>3d</fix>
</trkpt>
<trkpt lat="40.0712514" lon="-105.2300306">
  <ele>1583.16</ele>
  <time>2026-08-28T17:56:52Z</time>
  <course>243.53</course>
  <speed>3.6812633700945656</speed>
  <fix>3d</fix>
</trkpt>
<trkpt lat="40.071255" lon="-105.230021">
  <ele>1583.0</ele>
  <time>2026-08-28T17:56:52Z</time>
  <course>242.3</course>
  <speed>3.71</speed>
  <fix>3d</fix>
</trkpt>
<trkpt lat="40.0712498" lon="-105.2300345">
  <ele>1583.16</ele>
  <time>2026-08-28T17:56:52Z</time>
  <course>243.17</course>
  <speed>3.6817658806610725</speed>
  <fix>3d</fix>
</trkpt>
<trkpt lat="40.0712518" lon="-105.2300288">
  <ele>1583.0</ele>
  <time>2026-08-28T17:56:52Z</time>
  <course>241.93</course>
  <speed>3.71</speed>
  <fix>3d</fix>
</trkpt>
<trkpt lat="40.0712482" lon="-105.2300383">
  <ele>1583.16</ele>
  <time>2026-08-28T17:56:52Z</time>
  <course>242.68</course>
  <speed>3.6783827968279756</speed>
  <fix>3d</fix>
</trkpt>
<trkpt lat="40.0712518" lon="-105.2300288">
  <ele>1583.0</ele>
  <time>2026-08-28T17:56:52Z</time>
  <course>241.93</course>
  <speed>3.71</speed>
  <fix>3d</fix>
</trkpt>
<trkpt lat="40.0712465" lon="-105.2300421">
  <ele>1583.15</ele>
  <time>2026-08-28T17:56:52Z</time>
  <course>242.06</course>
  <speed>3.67535032343857</speed>
  <fix>3d</fix>
</trkpt>
<trkpt lat="40.0712487" lon="-105.2300365">
  <ele>1583.0</ele>
  <time>2026-08-28T17:56:52Z</time>
  <course>241.11</course>
  <speed>3.71</speed>
  <fix>3d</fix>
</trkpt>
<trkpt lat="40.0712448" lon="-105.2300459">
  <ele>1583.15</ele>
  <time>2026-08-28T17:56:52Z</time>
  <course>241.3</course>
  <speed>3.6739624385668397</speed>
  <fix>3d</fix>
</trkpt>
<trkpt lat="40.0712487" lon="-105.2300365">
  <ele>1583.0</ele>
  <time>2026-08-28T17:56:52Z</time>
  <course>241.11</course>
  <speed>3.71</speed>
  <fix>3d</fix>
</trkpt>
<trkpt lat="40.0712431" lon="-105.2300496">
  <ele>1583.15</ele>
  <time>2026-08-28T17:56:52Z</time>
  <course>240.38</course>
  <speed>3.659781414237741</speed>
  <fix>3d</fix>
</trkpt>
<trkpt lat="40.0712454" lon="-105.230044">
  <ele>1583.0</ele>
  <time>2026-08-28T17:56:52Z</time>
  <course>239.78</course>
  <speed>3.69</speed>
  <fix>3d</fix>
</trkpt>
<trkpt lat="40.071241" lon="-105.2300541">
  <ele>1583.15</ele>
  <time>2026-08-28T17:56:52Z</time>
  <course>239.05</course>
  <speed>3.6538472874492167</speed>
  <fix>3d</fix>
</trkpt>
<trkpt lat="40.0712454" lon="-105.230044">
  <ele>1583.0</ele>
  <time>2026-08-28T17:56:52Z</time>
  <course>239.78</course>
  <speed>3.69</speed>
  <fix>3d</fix>
</trkpt>
<trkpt lat="40.0712392" lon="-105.2300577">
  <ele>1583.15</ele>
  <time>2026-08-28T17:56:52Z</time>
  <course>237.73</course>
  <speed>3.6416067882186294</speed>
  <fix>3d</fix>
</trkpt>
<trkpt lat="40.071242" lon="-105.2300514">
  <ele>1583.0</ele>
  <time>2026-08-28T17:56:52Z</time>
  <course>237.82</course>
  <speed>3.67</speed>
  <fix>3d</fix>
</trkpt>
<trkpt lat="40.0712373" lon="-105.2300612">
  <ele>1583.15</ele>
  <time>2026-08-28T17:56:52Z</time>
  <course>236.21</course>
  <speed>3.6234927901128766</speed>
  <fix>3d</fix>
</trkpt>
<trkpt lat="40.071242" lon="-105.2300514">
  <ele>1583.0</ele>
  <time>2026-08-28T17:56:52Z</time>
  <course>237.82</course>
  <speed>3.67</speed>
  <fix>3d</fix>
</trkpt>
<trkpt lat="40.0712354" lon="-105.2300646">
  <ele>1583.15</ele>
  <time>2026-08-28T17:56:52Z</time>
  <course>234.5</course>
  <speed>3.592005011132362</speed>
  <fix>3d</fix>
</trkpt>
<trkpt lat="40.0712384" lon="-105.2300586">
  <ele>1583.0</ele>
  <time>2026-08-28T17:56:52Z</time>
  <course>235.13</course>
  <speed>3.64</speed>
  <fix>3d</fix>
</trkpt>
<trkpt lat="40.0712333" lon="-105.230068">
  <ele>1583.15</ele>
  <time>2026-08-28T17:56:52Z</time>
  <course>232.69</course>
  <speed>3.5701540583005658</speed>
  <fix>3d</fix>
</trkpt>
<trkpt lat="40.0712384" lon="-105.2300586">
  <ele>1583.0</ele>
  <time>2026-08-28T17:56:52Z</time>
  <course>235.13</course>
  <speed>3.64</speed>
  <fix>3d</fix>
</trkpt>
<trkpt lat="40.0712313" lon="-105.2300712">
  <ele>1583.14</ele>
  <time>2026-08-28T17:56:52Z</time>
  <course>230.76</course>
  <speed>3.538149233709624</speed>
  <fix>3d</fix>
</trkpt>
<trkpt lat="40.0712345" lon="-105.2300654">
  <ele>1583.0</ele>
  <time>2026-08-28T17:56:52Z</time>
  <course>231.75</course>
  <speed>3.59</speed>
  <fix>3d</fix>
</trkpt>
<trkpt lat="40.0712291" lon="-105.2300742">
  <ele>1583.14</ele>
  <time>2026-08-28T17:56:52Z</time>
  <course>228.66</course>
  <speed>3.4954255821001254</speed>
  <fix>3d</fix>
</trkpt>
<trkpt lat="40.0712345" lon="-105.2300654">
  <ele>1583.0</ele>
  <time>2026-08-28T17:56:52Z</time>
  <course>231.75</course>
  <speed>3.59</speed>
  <fix>3d</fix>
</trkpt>
<trkpt lat="40.0712269" lon="-105.2300771">
  <ele>1583.14</ele>
  <time>2026-08-28T17:56:52Z</time>
  <course>226.44</course>
  <speed>3.4365680554879168</speed>
  <fix>3d</fix>
</trkpt>
<trkpt lat="40.0712304" lon="-105.2300718">
  <ele>1583.0</ele>
  <time>2026-08-28T17:56:52Z</time>
  <course>227.84</course>
  <speed>3.51</speed>
  <fix>3d</fix>
</trkpt>
<trkpt lat="40.0712247" lon="-105.2300798">
  <ele>1583.14</ele>
  <time>2026-08-28T17:56:52Z</time>
  <course>224.07</course>
  <speed>3.383548433228051</speed>
  <fix>3d</fix>
</trkpt>
<trkpt lat="40.0712304" lon="-105.2300718">
  <ele>1583.0</ele>
  <time>2026-08-28T17:56:52Z</time>
  <course>227.84</course>
  <speed>3.51</speed>
  <fix>3d</fix>
</trkpt>
<trkpt lat="40.0712224" lon="-105.2300824">
  <ele>1583.15</ele>
  <time>2026-08-28T17:56:52Z</time>
  <course>221.52</course>
  <speed>3.3097734061412725</speed>
  <fix>3d</fix>
</trkpt>
<trkpt lat="40.071226" lon="-105.2300776">
  <ele>1583.0</ele>
  <time>2026-08-28T17:56:52Z</time>
  <course>223.37</course>
  <speed>3.4</speed>
  <fix>3d</fix>
</trkpt>
<trkpt lat="40.0712201" lon="-105.2300847">
  <ele>1583.15</ele>
  <time>2026-08-28T17:56:52Z</time>
  <course>218.81</course>
  <speed>3.228002478313795</speed>
  <fix>3d</fix>
</trkpt>
<trkpt lat="40.071226" lon="-105.2300776">
  <ele>1583.0</ele>
  <time>2026-08-28T17:56:52Z</time>
  <course>223.37</course>
  <speed>3.4</speed>
  <fix>3d</fix>
</trkpt>
<trkpt lat="40.0712182" lon="-105.2300864">
  <ele>1583.15</ele>
  <time>2026-08-28T17:56:52Z</time>
  <course>216.48</course>
  <speed>3.156596268134397</speed>
  <fix>3d</fix>
</trkpt>
<trkpt lat="40.0712215" lon="-105.2300827">
  <ele>1583.0</ele>
  <time>2026-08-28T17:56:52Z</time>
  <course>218.26</course>
  <speed>3.26</speed>
  <fix>3d</fix>
</trkpt>
<trkpt lat="40.0712158" lon="-105.2300884">
  <ele>1583.15</ele>
  <time>2026-08-28T17:56:52Z</time>
  <course>213.43</course>
  <speed>3.064718584144391</speed>
  <fix>3d</fix>
</trkpt>
<trkpt lat="40.0712215" lon="-105.2300827">
  <ele>1583.0</ele>
  <time>2026-08-28T17:56:52Z</time>
  <course>218.26</course>
  <speed>3.26</speed>
  <fix>3d</fix>
</trkpt>
<trkpt lat="40.0712135" lon="-105.2300901">
  <ele>1583.15</ele>
  <time>2026-08-28T17:56:52Z</time>
  <course>210.23</course>
  <speed>2.9570593500976603</speed>
  <fix>3d</fix>
</trkpt>
<trkpt lat="40.0712168" lon="-105.230087">
  <ele>1583.0</ele>
  <time>2026-08-28T17:56:52Z</time>
  <course>212.47</course>
  <speed>3.07</speed>
  <fix>3d</fix>
</trkpt>
<trkpt lat="40.0712111" lon="-105.2300915">
  <ele>1583.15</ele>
  <time>2026-08-28T17:56:52Z</time>
  <course>206.85</course>
  <speed>2.846137733842127</speed>
  <fix>3d</fix>
</trkpt>
<trkpt lat="40.0712168" lon="-105.230087">
  <ele>1583.0</ele>
  <time>2026-08-28T17:56:52Z</time>
  <course>212.47</course>
  <speed>3.07</speed>
  <fix>3d</fix>
</trkpt>
<trkpt lat="40.0712088" lon="-105.2300927">
  <ele>1583.15</ele>
  <time>2026-08-28T17:56:52Z</time>
  <course>203.36</course>
  <speed>2.715363695713707</speed>
  <fix>3d</fix>
</trkpt>
<trkpt lat="40.0712122" lon="-105.2300904">
  <ele>1583.0</ele>
  <time>2026-08-28T17:56:52Z</time>
  <course>206.02</course>
  <speed>2.85</speed>
  <fix>3d</fix>
</trkpt>
<trkpt lat="40.0712065" lon="-105.2300937">
  <ele>1583.15</ele>
  <time>2026-08-28T17:56:52Z</time>
  <course>199.76</course>
  <speed>2.593838853899756</speed>
  <fix>3d</fix>
</trkpt>
<trkpt lat="40.0712122" lon="-105.2300904">
  <ele>1583.0</ele>
  <time>2026-08-28T17:56:52Z</time>
  <course>206.02</course>
  <speed>2.85</speed>
  <fix>3d</fix>
</trkpt>
<trkpt lat="40.0712043" lon="-105.2300944">
  <ele>1583.15</ele>
  <time>2026-08-28T17:56:52Z</time>
  <course>196.41</course>
  <speed>2.447304639802736</speed>
  <fix>3d</fix>
</trkpt>
<trkpt lat="40.0712077" lon="-105.230093">
  <ele>1583.0</ele>
  <time>2026-08-28T17:56:52Z</time>
  <course>199.13</course>
  <speed>2.59</speed>
  <fix>3d</fix>
</trkpt>
<trkpt lat="40.0712022" lon="-105.230095">
  <ele>1583.15</ele>
  <time>2026-08-28T17:56:52Z</time>
  <course>194.19</course>
  <speed>2.3122499864850257</speed>
  <fix>3d</fix>
</trkpt>
<trkpt lat="40.0712077" lon="-105.230093">
  <ele>1583.0</ele>
  <time>2026-08-28T17:56:52Z</time>
  <course>199.13</course>
  <speed>2.59</speed>
  <fix>3d</fix>
</trkpt>
<trkpt lat="40.0712002" lon="-105.2300954">
  <ele>1583.15</ele>
  <time>2026-08-28T17:56:52Z</time>
  <course>193.06</course>
  <speed>2.1700691233230334</speed>
  <fix>3d</fix>
</trkpt>
<trkpt lat="40.0712034" lon="-105.2300946">
  <ele>1583.0</ele>
  <time>2026-08-28T17:56:52Z</time>
  <course>193.64</course>
  <speed>2.32</speed>
  <fix>3d</fix>
</trkpt>
<trkpt lat="40.0711984" lon="-105.2300958">
  <ele>1583.15</ele>
  <time>2026-08-28T17:56:52Z</time>
  <course>192.99</course>
  <speed>2.0467779557147865</speed>
  <fix>3d</fix>
</trkpt>
<trkpt lat="40.0712034" lon="-105.2300946">
  <ele>1583.0</ele>
  <time>2026-08-28T17:56:52Z</time>
  <course>193.64</course>
  <speed>2.32</speed>
  <fix>3d</fix>
</trkpt>
<trkpt lat="40.0711963" lon="-105.2300963">
  <ele>1583.15</ele>
  <time>2026-08-28T17:56:52Z</time>
  <course>194.35</course>
  <speed>1.91049731745428</speed>
  <fix>3d</fix>
</trkpt>
<trkpt lat="40.0711996" lon="-105.2300956">
  <ele>1583.0</ele>
  <time>2026-08-28T17:56:52Z</time>
  <course>191.92</course>
  <speed>2.07</speed>
  <fix>3d</fix>
</trkpt>
<trkpt lat="40.0711947" lon="-105.2300967">
  <ele>1583.15</ele>
  <time>2026-08-28T17:56:52Z</time>
  <course>196.67</course>
  <speed>1.8124568960391858</speed>
  <fix>3d</fix>
</trkpt>
<trkpt lat="40.0711996" lon="-105.2300956">
  <ele>1583.0</ele>
  <time>2026-08-28T17:56:52Z</time>
  <course>191.92</course>
  <speed>2.07</speed>
  <fix>3d</fix>
</trkpt>
<trkpt lat="40.0711932" lon="-105.2300973">
  <ele>1583.15</ele>
  <time>2026-08-28T17:56:52Z</time>
  <course>200.15</course>
  <speed>1.7472263734273243</speed>
  <fix>3d</fix>
</trkpt>
<trkpt lat="40.0711962" lon="-105.2300967">
  <ele>1583.0</ele>
  <time>2026-08-28T17:56:52Z</time>
  <course>194.6</course>
  <speed>1.86</speed>
  <fix>3d</fix>
</trkpt>
<trkpt lat="40.0711918" lon="-105.230098">
  <ele>1583.15</ele>
  <time>2026-08-28T17:56:52Z</time>
  <course>204.35</course>
  <speed>1.7053152201279387</speed>
  <fix>3d</fix>
</trkpt>
<trkpt lat="40.0711962" lon="-105.2300967">
  <ele>1583.0</ele>
  <time>2026-08-28T17:56:52Z</time>
  <course>194.6</course>
  <speed>1.86</speed>
  <fix>3d</fix>
</trkpt>
<trkpt lat="40.0711904" lon="-105.2300988">
  <ele>1583.15</ele>
  <time>2026-08-28T17:56:52Z</time>
  <course>207.81</course>
  <speed>1.70985379491932</speed>
  <fix>3d</fix>
</trkpt>
<trkpt lat="40.0711931" lon="-105.230098">
  <ele>1583.0</ele>
  <time>2026-08-28T17:56:52Z</time>
  <course>201.14</course>
  <speed>1.77</speed>
  <fix>3d</fix>
</trkpt>
<trkpt lat="40.071189" lon="-105.2300997">
  <ele>1583.15</ele>
  <time>2026-08-28T17:56:52Z</time>
  <course>210.71</course>
  <speed>1.7219175357722565</speed>
  <fix>3d</fix>
</trkpt>
<trkpt lat="40.0711931" lon="-105.230098">
  <ele>1583.0</ele>
  <time>2026-08-28T17:56:52Z</time>
  <course>201.14</course>
  <speed>1.77</speed>
  <fix>3d</fix>
</trkpt>
<trkpt lat="40.0711877" lon="-105.2301008">
  <ele>1583.16</ele>
  <time>2026-08-28T17:56:52Z</time>
  <course>213.16</course>
  <speed>1.7340415219942111</speed>
  <fix>3d</fix>
</trkpt>
<trkpt lat="40.0711902" lon="-105.2300997">
  <ele>1583.0</ele>
  <time>2026-08-28T17:56:52Z</time>
  <course>208.03</course>
  <speed>1.77</speed>
  <fix>3d</fix>
</trkpt>
<trkpt lat="40.0711864" lon="-105.2301019">
  <ele>1583.16</ele>
  <time>2026-08-28T17:56:52Z</time>
  <course>215.17</course>
  <speed>1.7532826355154492</speed>
  <fix>3d</fix>
</trkpt>
<trkpt lat="40.0711902" lon="-105.2300997">
  <ele>1583.0</ele>
  <time>2026-08-28T17:56:52Z</time>
  <course>208.03</course>
  <speed>1.77</speed>
  <fix>3d</fix>
</trkpt>
<trkpt lat="40.0711851" lon="-105.2301031">
  <ele>1583.16</ele>
  <time>2026-08-28T17:56:52Z</time>
  <course>216.85</course>
  <speed>1.7835358140502813</speed>
  <fix>3d</fix>
</trkpt>
<trkpt lat="40.0711874" lon="-105.2301018">
  <ele>1583.0</ele>
  <time>2026-08-28T17:56:52Z</time>
  <course>212.89</course>
  <speed>1.82</speed>
  <fix>3d</fix>
</trkpt>
<trkpt lat="40.0711838" lon="-105.2301045">
  <ele>1583.16</ele>
  <time>2026-08-28T17:56:52Z</time>
  <course>218.24</course>
  <speed>1.8262803727796015</speed>
  <fix>3d</fix>
</trkpt>
<trkpt lat="40.0711874" lon="-105.2301018">
  <ele>1583.0</ele>
  <time>2026-08-28T17:56:52Z</time>
  <course>212.89</course>
  <speed>1.82</speed>
  <fix>3d</fix>
</trkpt>
<trkpt lat="40.0711824" lon="-105.2301058">
  <ele>1583.17</ele>
  <time>2026-08-28T17:56:52Z</time>
  <course>219.4</course>
  <speed>1.88403821617291</speed>
  <fix>3d</fix>
</trkpt>
<trkpt lat="40.0711846" lon="-105.2301043">
  <ele>1583.0</ele>
  <time>2026-08-28T17:56:52Z</time>
  <course>216.28</course>
  <speed>1.89</speed>
  <fix>3d</fix>
</trkpt>
<trkpt lat="40.0711813" lon="-105.230107">
  <ele>1583.17</ele>
  <time>2026-08-28T17:56:52Z</time>
  <course>220.19</course>
  <speed>1.9365949499056327</speed>
  <fix>3d</fix>
</trkpt>
<trkpt lat="40.0711846" lon="-105.2301043">
  <ele>1583.0</ele>
  <time>2026-08-28T17:56:52Z</time>
  <course>216.28</course>
  <speed>1.89</speed>
  <fix>3d</fix>
</trkpt>
<trkpt lat="40.07118" lon="-105.2301086">
  <ele>1583.17</ele>
  <time>2026-08-28T17:56:52Z</time>
  <course>221.01</course>
  <speed>2.0038463014912096</speed>
  <fix>3d</fix>
</trkpt>
<trkpt lat="40.0711819" lon="-105.2301071">
  <ele>1583.0</ele>
  <time>2026-08-28T17:56:52Z</time>
  <course>218.61</course>
  <speed>2.0</speed>
  <fix>3d</fix>
</trkpt>
<trkpt lat="40.0711785" lon="-105.2301102">
  <ele>1583.17</ele>
  <time>2026-08-28T17:56:52Z</time>
  <course>221.69</course>
  <speed>2.0781963333621776</speed>
  <fix>3d</fix>
</trkpt>
<trkpt lat="40.0711819" lon="-105.2301071">
  <ele>1583.0</ele>
  <time>2026-08-28T17:56:52Z</time>
  <course>218.61</course>
  <speed>2.0</speed>
  <fix>3d</fix>
</trkpt>
<trkpt lat="40.0711771" lon="-105.2301119">
  <ele>1583.17</ele>
  <time>2026-08-28T17:56:52Z</time>
  <course>222.25</course>
  <speed>2.1476731594914527</speed>
  <fix>3d</fix>
</trkpt>
<trkpt lat="40.071179" lon="-105.2301102">
  <ele>1583.0</ele>
  <time>2026-08-28T17:56:52Z</time>
  <course>220.22</course>
  <speed>2.14</speed>
  <fix>3d</fix>
</trkpt>
<trkpt lat="40.0711755" lon="-105.2301138">
  <ele>1583.17</ele>
  <time>2026-08-28T17:56:52Z</time>
  <course>222.72</course>
  <speed>2.2239604313026793</speed>
  <fix>3d</fix>
</trkpt>
<trkpt lat="40.071179" lon="-105.2301102">
  <ele>1583.0</ele>
  <time>2026-08-28T17:56:52Z</time>
  <course>220.22</course>
  <speed>2.14</speed>
  <fix>3d</fix>
</trkpt>
<trkpt lat="40.071174" lon="-105.2301156">
  <ele>1583.17</ele>
  <time>2026-08-28T17:56:52Z</time>
  <course>223.11</course>
  <speed>2.2938177782901588</speed>
  <fix>3d</fix>
</trkpt>
<trkpt lat="40.0711759" lon="-105.2301136">
  <ele>1583.0</ele>
  <time>2026-08-28T17:56:52Z</time>
  <course>221.33</course>
  <speed>2.28</speed>
  <fix>3d</fix>
</trkpt>
<trkpt lat="40.0711724" lon="-105.2301176">
  <ele>1583.17</ele>
  <time>2026-08-28T17:56:52Z</time>
  <course>222.74</course>
  <speed>2.3577319610167735</speed>
  <fix>3d</fix>
</trkpt>
<trkpt lat="40.0711759" lon="-105.2301136">
  <ele>1583.0</ele>
  <time>2026-08-28T17:56:52Z</time>
  <course>221.33</course>
  <speed>2.28</speed>
  <fix>3d</fix>
</trkpt>
<trkpt lat="40.0711707" lon="-105.2301195">
  <ele>1583.17</ele>
  <time>2026-08-28T17:56:52Z</time>
  <course>221.19</course>
  <speed>2.418780684559888</speed>
  <fix>3d</fix>
</trkpt>
<trkpt lat="40.0711728" lon="-105.2301172">
  <ele>1583.0</ele>
  <time>2026-08-28T17:56:52Z</time>
  <course>221.04</course>
  <speed>2.4</speed>
  <fix>3d</fix>
</trkpt>
<trkpt lat="40.0711689" lon="-105.2301214">
  <ele>1583.17</ele>
  <time>2026-08-28T17:56:52Z</time>
  <course>218.53</course>
  <speed>2.466292764454374</speed>
  <fix>3d</fix>
</trkpt>
<trkpt lat="40.0711728" lon="-105.2301172">
  <ele>1583.0</ele>
  <time>2026-08-28T17:56:52Z</time>
  <course>221.04</course>
  <speed>2.4</speed>
  <fix>3d</fix>
</trkpt>
<trkpt lat="40.0711671" lon="-105.2301232">
  <ele>1583.17</ele>
  <time>2026-08-28T17:56:52Z</time>
  <course>214.77</course>
  <speed>2.4850955716028307</speed>
  <fix>3d</fix>
</trkpt>
<trkpt lat="40.0711694" lon="-105.230121">
  <ele>1583.0</ele>
  <time>2026-08-28T17:56:52Z</time>
  <course>217.31</course>
  <speed>2.49</speed>
  <fix>3d</fix>
</trkpt>
<trkpt lat="40.0711647" lon="-105.2301251">
  <ele>1583.17</ele>
  <time>2026-08-28T17:56:52Z</time>
  <course>208.81</course>
  <speed>2.4558908770545975</speed>
  <fix>3d</fix>
</trkpt>
<trkpt lat="40.0711694" lon="-105.230121">
  <ele>1583.0</ele>
  <time>2026-08-28T17:56:52Z</time>
  <course>217.31</course>
  <speed>2.49</speed>
  <fix>3d</fix>
</trkpt>
<trkpt lat="40.0711627" lon="-105.2301263">
  <ele>1583.17</ele>
  <time>2026-08-28T17:56:52Z</time>
  <course>203.22</course>
  <speed>2.386231338324095</speed>
  <fix>3d</fix>
</trkpt>
<trkpt lat="40.0711657" lon="-105.2301242">
  <ele>1583.0</ele>
  <time>2026-08-28T17:56:52Z</time>
  <course>209.36</course>
  <speed>2.48</speed>
  <fix>3d</fix>
</trkpt>
<trkpt lat="40.0711606" lon="-105.2301272">
  <ele>1583.17</ele>
  <time>2026-08-28T17:56:52Z</time>
  <course>197.67</course>
  <speed>2.284425529536912</speed>
  <fix>3d</fix>
</trkpt>
<trkpt lat="40.0711657" lon="-105.2301242">
  <ele>1583.0</ele>
  <time>2026-08-28T17:56:52Z</time>
  <course>209.36</course>
  <speed>2.48</speed>
  <fix>3d</fix>
</trkpt>
<trkpt lat="40.0711586" lon="-105.2301278">
  <ele>1583.17</ele>
  <time>2026-08-28T17:56:52Z</time>
  <course>192.12</course>
  <speed>2.157405849625888</speed>
  <fix>3d</fix>
</trkpt>
<trkpt lat="40.0711618" lon="-105.2301266">
  <ele>1583.0</ele>
  <time>2026-08-28T17:56:52Z</time>
  <course>198.89</course>
  <speed>2.33</speed>
  <fix>3d</fix>
</trkpt>
<trkpt lat="40.0711567" lon="-105.2301281">
  <ele>1583.16</ele>
  <time>2026-08-28T17:56:52Z</time>
  <course>186.58</course>
  <speed>2.0180436070610566</speed>
  <fix>3d</fix>
</trkpt>
<trkpt lat="40.0711618" lon="-105.2301266">
  <ele>1583.0</ele>
  <time>2026-08-28T17:56:52Z</time>
  <course>198.89</course>
  <speed>2.33</speed>
  <fix>3d</fix>
</trkpt>
<trkpt lat="40.0711549" lon="-105.2301282">
  <ele>1583.16</ele>
  <time>2026-08-28T17:56:52Z</time>
  <course>181.0</course>
  <speed>1.8601075237738274</speed>
  <fix>3d</fix>
</trkpt>
<trkpt lat="40.0711578" lon="-105.2301277">
  <ele>1583.0</ele>
  <time>2026-08-28T17:56:52Z</time>
  <course>187.92</course>
  <speed>2.08</speed>
  <fix>3d</fix>
</trkpt>
<trkpt lat="40.0711533" lon="-105.230128">
  <ele>1583.15</ele>
  <time>2026-08-28T17:56:52Z</time>
  <course>175.46</course>
  <speed>1.7304623659588787</speed>
  <fix>3d</fix>
</trkpt>
<trkpt lat="40.0711578" lon="-105.2301277">
  <ele>1583.0</ele>
  <time>2026-08-28T17:56:52Z</time>
  <course>187.92</course>
  <speed>2.08</speed>
  <fix>3d</fix>
</trkpt>
<trkpt lat="40.0711518" lon="-105.2301277">
  <ele>1583.15</ele>
  <time>2026-08-28T17:56:52Z</time>
  <course>169.93</course>
  <speed>1.6259458785580778</speed>
  <fix>3d</fix>
</trkpt>
<trkpt lat="40.0711544" lon="-105.230128">
  <ele>1583.0</ele>
  <time>2026-08-28T17:56:52Z</time>
  <course>176.84</course>
  <speed>1.8</speed>
  <fix>3d</fix>
</trkpt>
<trkpt lat="40.0711504" lon="-105.2301272">
  <ele>1583.15</ele>
  <time>2026-08-28T17:56:52Z</time>
  <course>164.39</course>
  <speed>1.5749285698088025</speed>
  <fix>3d</fix>
</trkpt>
<trkpt lat="40.0711544" lon="-105.230128">
  <ele>1583.0</ele>
  <time>2026-08-28T17:56:52Z</time>
  <course>176.84</course>
  <speed>1.8</speed>
  <fix>3d</fix>
</trkpt>
<trkpt lat="40.0711491" lon="-105.2301265">
  <ele>1583.15</ele>
  <time>2026-08-28T17:56:52Z</time>
  <course>159.42</course>
  <speed>1.563873396410336</speed>
  <fix>3d</fix>
</trkpt>
<trkpt lat="40.0711514" lon="-105.2301274">
  <ele>1583.0</ele>
  <time>2026-08-28T17:56:52Z</time>
  <course>165.65</course>
  <speed>1.61</speed>
  <fix>3d</fix>
</trkpt>
<trkpt lat="40.0711478" lon="-105.2301257">
  <ele>1583.14</ele>
  <time>2026-08-28T17:56:52Z</time>
  <course>155.3</course>
  <speed>1.5921055241409094</speed>
  <fix>3d</fix>
</trkpt>
<trkpt lat="40.0711514" lon="-105.2301274">
  <ele>1583.0</ele>
  <time>2026-08-28T17:56:52Z</time>
  <course>165.65</course>
  <speed>1.61</speed>
  <fix>3d</fix>
</trkpt>
<trkpt lat="40.0711468" lon="-105.2301251">
  <ele>1583.14</ele>
  <time>2026-08-28T17:56:52Z</time>
  <course>152.47</course>
  <speed>1.6124515496597098</speed>
  <fix>3d</fix>
</trkpt>
<trkpt lat="40.0711486" lon="-105.2301262">
  <ele>1583.0</ele>
  <time>2026-08-28T17:56:52Z</time>
  <course>155.93</course>
  <speed>1.58</speed>
  <fix>3d</fix>
</trkpt>
<trkpt lat="40.0711455" lon="-105.230124">
  <ele>1583.14</ele>
  <time>2026-08-28T17:56:52Z</time>
  <course>149.49</course>
  <speed>1.6559287424282483</speed>
  <fix>3d</fix>
</trkpt>
<trkpt lat="40.0711486" lon="-105.2301262">
  <ele>1583.0</ele>
  <time>2026-08-28T17:56:52Z</time>
  <course>155.93</course>
  <speed>1.58</speed>
  <fix>3d</fix>
</trkpt>
<trkpt lat="40.0711443" lon="-105.2301229">
  <ele>1583.14</ele>
  <time>2026-08-28T17:56:52Z</time>
  <course>147.01</course>
  <speed>1.6925720073308552</speed>
  <fix>3d</fix>
</trkpt>
<trkpt lat="40.0711461" lon="-105.2301244">
  <ele>1583.0</ele>
  <time>2026-08-28T17:56:52Z</time>
  <course>149.03</course>
  <speed>1.64</speed>
  <fix>3d</fix>
</trkpt>
<trkpt lat="40.071143" lon="-105.2301217">
  <ele>1583.14</ele>
  <time>2026-08-28T17:56:52Z</time>
  <course>144.94</course>
  <speed>1.7340415219942111</speed>
  <fix>3d</fix>
</trkpt>
<trkpt lat="40.0711461" lon="-105.2301244">
  <ele>1583.0</ele>
  <time>2026-08-28T17:56:52Z</time>
  <course>149.03</course>
  <speed>1.64</speed>
  <fix>3d</fix>
</trkpt>
<trkpt lat="40.0711418" lon="-105.2301204">
  <ele>1583.15</ele>
  <time>2026-08-28T17:56:52Z</time>
  <course>143.39</course>
  <speed>1.756957597667058</speed>
  <fix>3d</fix>
</trkpt>
<trkpt lat="40.0711435" lon="-105.2301222">
  <ele>1583.0</ele>
  <time>2026-08-28T17:56:52Z</time>
  <course>144.32</course>
  <speed>1.71</speed>
  <fix>3d</fix>
</trkpt>
<trkpt lat="40.0711405" lon="-105.2301191">
  <ele>1583.15</ele>
  <time>2026-08-28T17:56:52Z</time>
  <course>142.06</course>
  <speed>1.7810390225932726</speed>
  <fix>3d</fix>
</trkpt>
<trkpt lat="40.0711435" lon="-105.2301222">
  <ele>1583.0</ele>
  <time>2026-08-28T17:56:52Z</time>
  <course>144.32</course>
  <speed>1.71</speed>
  <fix>3d</fix>
</trkpt>
<trkpt lat="40.0711393" lon="-105.2301177">
  <ele>1583.15</ele>
  <time>2026-08-28T17:56:52Z</time>
  <course>140.87</course>
  <speed>1.8278402556022229</speed>
  <fix>3d</fix>
</trkpt>
<trkpt lat="40.0711411" lon="-105.2301197">
  <ele>1583.0</ele>
  <time>2026-08-28T17:56:52Z</time>
  <course>141.14</course>
  <speed>1.77</speed>
  <fix>3d</fix>
</trkpt>
<trkpt lat="40.071138" lon="-105.2301162">
  <ele>1583.15</ele>
  <time>2026-08-28T17:56:52Z</time>
  <course>139.84</course>
  <speed>1.9110729970359583</speed>
  <fix>3d</fix>
</trkpt>
<trkpt lat="40.0711411" lon="-105.2301197">
  <ele>1583.0</ele>
  <time>2026-08-28T17:56:52Z</time>
  <course>141.14</course>
  <speed>1.77</speed>
  <fix>3d</fix>
</trkpt>
<trkpt lat="40.0711367" lon="-105.2301146">
  <ele>1583.15</ele>
  <time>2026-08-28T17:56:52Z</time>
  <course>138.94</course>
  <speed>2.002123872291622</speed>
  <fix>3d</fix>
</trkpt>
<trkpt lat="40.0711386" lon="-105.230117">
  <ele>1583.0</ele>
  <time>2026-08-28T17:56:52Z</time>
  <course>138.84</course>
  <speed>1.88</speed>
  <fix>3d</fix>
</trkpt>
<trkpt lat="40.0711354" lon="-105.230113">
  <ele>1583.14</ele>
  <time>2026-08-28T17:56:52Z</time>
  <course>138.14</course>
  <speed>2.0862646045025066</speed>
  <fix>3d</fix>
</trkpt>
<trkpt lat="40.0711386" lon="-105.230117">
  <ele>1583.0</ele>
  <time>2026-08-28T17:56:52Z</time>
  <course>138.84</course>
  <speed>1.88</speed>
  <fix>3d</fix>
</trkpt>
<trkpt lat="40.0711337" lon="-105.2301109">
  <ele>1583.14</ele>
  <time>2026-08-28T17:56:52Z</time>
  <course>137.3</course>
  <speed>2.1920766409959302</speed>
  <fix>3d</fix>
</trkpt>
<trkpt lat="40.0711359" lon="-105.2301139">
  <ele>1583.0</ele>
  <time>2026-08-28T17:56:52Z</time>
  <course>137.08</course>
  <speed>2.05</speed>
  <fix>3d</fix>
</trkpt>
<trkpt lat="40.0711322" lon="-105.230109">
  <ele>1583.14</ele>
  <time>2026-08-28T17:56:52Z</time>
  <course>136.67</course>
  <speed>2.276883835420683</speed>
  <fix>3d</fix>
</trkpt>
<trkpt lat="40.0711359" lon="-105.2301139">
  <ele>1583.0</ele>
  <time>2026-08-28T17:56:52Z</time>
  <course>137.08</course>
  <speed>2.05</speed>
  <fix>3d</fix>
</trkpt>
<trkpt lat="40.0711307" lon="-105.2301071">
  <ele>1583.14</ele>
  <time>2026-08-28T17:56:52Z</time>
  <course>136.08</course>
  <speed>2.361906009984309</speed>
  <fix>3d</fix>
</trkpt>
<trkpt lat="40.0711332" lon="-105.2301104">
  <ele>1583.0</ele>
  <time>2026-08-28T17:56:52Z</time>
  <course>135.69</course>
  <speed>2.22</speed>
  <fix>3d</fix>
</trkpt>
<trkpt lat="40.0711292" lon="-105.2301051">
  <ele>1583.14</ele>
  <time>2026-08-28T17:56:52Z</time>
  <course>135.5</course>
  <speed>2.4400204917172315</speed>
  <fix>3d</fix>
</trkpt>
<trkpt lat="40.0711332" lon="-105.2301104">
  <ele>1583.0</ele>
  <time>2026-08-28T17:56:52Z</time>
  <course>135.69</course>
  <speed>2.22</speed>
  <fix>3d</fix>
</trkpt>
<trkpt lat="40.0711277" lon="-105.230103">
  <ele>1583.14</ele>
  <time>2026-08-28T17:56:52Z</time>
  <course>134.94</course>
  <speed>2.511433853399289</speed>
  <fix>3d</fix>
</trkpt>
<trkpt lat="40.0711302" lon="-105.2301066">
  <ele>1583.0</ele>
  <time>2026-08-28T17:56:52Z</time>
  <course>134.48</course>
  <speed>2.38</speed>
  <fix>3d</fix>
</trkpt>
<trkpt lat="40.0711261" lon="-105.2301008">
  <ele>1583.14</ele>
  <time>2026-08-28T17:56:52Z</time>
  <course>134.35</course>
  <speed>2.5757717290163735</speed>
  <fix>3d</fix>
</trkpt>
<trkpt lat="40.0711302" lon="-105.2301066">
  <ele>1583.0</ele>
  <time>2026-08-28T17:56:52Z</time>
  <course>134.48</course>
  <speed>2.38</speed>
  <fix>3d</fix>
</trkpt>
<trkpt lat="40.0711245" lon="-105.2300985">
  <ele>1583.14</ele>
  <time>2026-08-28T17:56:52Z</time>
  <course>133.76</course>
  <speed>2.6402462006411445</speed>
  <fix>3d</fix>
</trkpt>
<trkpt lat="40.0711271" lon="-105.2301024">
  <ele>1583.0</ele>
  <time>2026-08-28T17:56:52Z</time>
  <course>133.32</course>
  <speed>2.52</speed>
  <fix>3d</fix>
</trkpt>
<trkpt lat="40.0711229" lon="-105.2300962">
  <ele>1583.15</ele>
  <time>2026-08-28T17:56:52Z</time>
  <course>133.15</course>
  <speed>2.7056237728109944</speed>
  <fix>3d</fix>
</trkpt>
<trkpt lat="40.0711271" lon="-105.2301024">
  <ele>1583.0</ele>
  <time>2026-08-28T17:56:52Z</time>
  <course>133.32</course>
  <speed>2.52</speed>
  <fix>3d</fix>
</trkpt>
<trkpt lat="40.0711213" lon="-105.2300939">
  <ele>1583.15</ele>
  <time>2026-08-28T17:56:52Z</time>
  <course>132.52</course>
  <speed>2.7572631357924475</speed>
  <fix>3d</fix>
</trkpt>
<trkpt lat="40.071124" lon="-105.230098">
  <ele>1583.0</ele>
  <time>2026-08-28T17:56:52Z</time>
  <course>132.13</course>
  <speed>2.65</speed>
  <fix>3d</fix>
</trkpt>
<trkpt lat="40.0711197" lon="-105.2300914">
  <ele>1583.15</ele>
  <time>2026-08-28T17:56:52Z</time>
  <course>131.89</course>
  <speed>2.8016602220826137</speed>
  <fix>3d</fix>
</trkpt>
<trkpt lat="40.071124" lon="-105.230098">
  <ele>1583.0</ele>
  <time>2026-08-28T17:56:52Z</time>
  <course>132.13</course>
  <speed>2.65</speed>
  <fix>3d</fix>
</trkpt>
<trkpt lat="40.071118" lon="-105.2300889">
  <ele>1583.15</ele>
  <time>2026-08-28T17:56:52Z</time>
  <course>131.21</course>
  <speed>2.853944638566067</speed>
  <fix>3d</fix>
</trkpt>
<trkpt lat="40.0711208" lon="-105.2300932">
  <ele>1583.0</ele>
  <time>2026-08-28T17:56:52Z</time>
  <course>130.87</course>
  <speed>2.76</speed>
  <fix>3d</fix>
</trkpt>
<trkpt lat="40.0711167" lon="-105.2300868">
  <ele>1583.15</ele>
  <time>2026-08-28T17:56:52Z</time>
  <course>130.65</course>
  <speed>2.892490276561012</speed>
  <fix>3d</fix>
</trkpt>
<trkpt lat="40.0711208" lon="-105.2300932">
  <ele>1583.0</ele>
  <time>2026-08-28T17:56:52Z</time>
  <course>130.87</course>
  <speed>2.76</speed>
  <fix>3d</fix>
</trkpt>
<trkpt lat="40.0711151" lon="-105.2300842">
  <ele>1583.15</ele>
  <time>2026-08-28T17:56:52Z</time>
  <course>129.91</course>
  <speed>2.931381926668717</speed>
  <fix>3d</fix>
</trkpt>
<trkpt lat="40.0711175" lon="-105.2300882">
  <ele>1583.0</ele>
  <time>2026-08-28T17:56:52Z</time>
  <course>129.52</course>
  <speed>2.86</speed>
  <fix>3d</fix>
</trkpt>
<trkpt lat="40.0711134" lon="-105.2300815">
  <ele>1583.16</ele>
  <time>2026-08-28T17:56:52Z</time>
  <course>129.13</course>
  <speed>2.9784895500907838</speed>
  <fix>3d</fix>
</trkpt>
<trkpt lat="40.0711175" lon="-105.2300882">
  <ele>1583.0</ele>
  <time>2026-08-28T17:56:52Z</time>
  <course>129.52</course>
  <speed>2.86</speed>
  <fix>3d</fix>
</trkpt>
<trkpt lat="40.0711118" lon="-105.2300787">
  <ele>1583.16</ele>
  <time>2026-08-28T17:56:52Z</time>
  <course>128.29</course>
  <speed>3.0200165562460084</speed>
  <fix>3d</fix>
</trkpt>
<trkpt lat="40.0711142" lon="-105.2300828">
  <ele>1583.0</ele>
  <time>2026-08-28T17:56:52Z</time>
  <course>128.0</course>
  <speed>2.95</speed>
  <fix>3d</fix>
</trkpt>
<trkpt lat="40.0711101" lon="-105.2300758">
  <ele>1583.16</ele>
  <time>2026-08-28T17:56:52Z</time>
  <course>127.4</course>
  <speed>3.0702605752606735</speed>
  <fix>3d</fix>
</trkpt>
<trkpt lat="40.0711142" lon="-105.2300828">
  <ele>1583.0</ele>
  <time>2026-08-28T17:56:52Z</time>
  <course>128.0</course>
  <speed>2.95</speed>
  <fix>3d</fix>
</trkpt>
<trkpt lat="40.0711085" lon="-105.2300728">
  <ele>1583.15</ele>
  <time>2026-08-28T17:56:52Z</time>
  <course>126.45</course>
  <speed>3.1073622254252884</speed>
  <fix>3d</fix>
</trkpt>
<trkpt lat="40.071111" lon="-105.2300772">
  <ele>1583.0</ele>
  <time>2026-08-28T17:56:52Z</time>
  <course>126.3</course>
  <speed>3.04</speed>
  <fix>3d</fix>
</trkpt>
<trkpt lat="40.0711069" lon="-105.2300698">
  <ele>1583.15</ele>
  <time>2026-08-28T17:56:52Z</time>
  <course>125.43</course>
  <speed>3.1535694062442956</speed>
  <fix>3d</fix>
</trkpt>
<trkpt lat="40.071111" lon="-105.2300772">
  <ele>1583.0</ele>
  <time>2026-08-28T17:56:52Z</time>
  <course>126.3</course>
  <speed>3.04</speed>
  <fix>3d</fix>
</trkpt>
<trkpt lat="40.0711053" lon="-105.2300666">
  <ele>1583.16</ele>
  <time>2026-08-28T17:56:52Z</time>
  <course>124.33</course>
  <speed>3.200765533431026</speed>
  <fix>3d</fix>
</trkpt>
<trkpt lat="40.0711077" lon="-105.2300712">
  <ele>1583.0</ele>
  <time>2026-08-28T17:56:52Z</time>
  <course>124.34</course>
  <speed>3.13</speed>
  <fix>3d</fix>
</trkpt>
<trkpt lat="40.0711038" lon="-105.2300634">
  <ele>1583.16</ele>
  <time>2026-08-28T17:56:52Z</time>
  <course>123.14</course>
  <speed>3.238302024209601</speed>
  <fix>3d</fix>
</trkpt>
<trkpt lat="40.0711077" lon="-105.2300712">
  <ele>1583.0</ele>
  <time>2026-08-28T17:56:52Z</time>
  <course>124.34</course>
  <speed>3.13</speed>
  <fix>3d</fix>
</trkpt>
<trkpt lat="40.0711019" lon="-105.2300594">
  <ele>1583.17</ele>
  <time>2026-08-28T17:56:52Z</time>
  <course>121.63</course>
  <speed>3.2946168214224856</speed>
  <fix>3d</fix>
</trkpt>
<trkpt lat="40.0711046" lon="-105.230065">
  <ele>1583.0</ele>
  <time>2026-08-28T17:56:52Z</time>
  <course>122.09</course>
  <speed>3.21</speed>
  <fix>3d</fix>
</trkpt>
<trkpt lat="40.0711005" lon="-105.230056">
  <ele>1583.17</ele>
  <time>2026-08-28T17:56:52Z</time>
  <course>120.38</course>
  <speed>3.3441441356496586</speed>
  <fix>3d</fix>
</trkpt>
<trkpt lat="40.0711046" lon="-105.230065">
  <ele>1583.0</ele>
  <time>2026-08-28T17:56:52Z</time>
  <course>122.09</course>
  <speed>3.21</speed>
  <fix>3d</fix>
</trkpt>
<trkpt lat="40.071099" lon="-105.2300525">
  <ele>1583.17</ele>
  <time>2026-08-28T17:56:52Z</time>
  <course>119.12</course>
  <speed>3.3906341589738047</speed>
  <fix>3d</fix>
</trkpt>
<trkpt lat="40.0711016" lon="-105.2300585">
  <ele>1583.0</ele>
  <time>2026-08-28T17:56:52Z</time>
  <course>119.62</course>
  <speed>3.3</speed>
  <fix>3d</fix>
</trkpt>
<trkpt lat="40.0710976" lon="-105.230049">
  <ele>1583.17</ele>
  <time>2026-08-28T17:56:52Z</time>
  <course>117.87</course>
  <speed>3.434603324985289</speed>
  <fix>3d</fix>
</trkpt>
<trkpt lat="40.0711016" lon="-105.2300585">
  <ele>1583.0</ele>
  <time>2026-08-28T17:56:52Z</time>
  <course>119.62</course>
  <speed>3.3</speed>
  <fix>3d</fix>
</trkpt>
<trkpt lat="40.0710963" lon="-105.2300453">
  <ele>1583.17</ele>
  <time>2026-08-28T17:56:52Z</time>
  <course>116.61</course>
  <speed>3.4846233655877357</speed>
  <fix>3d</fix>
</trkpt>
<trkpt lat="40.0710988" lon="-105.2300515">
  <ele>1583.0</ele>
  <time>2026-08-28T17:56:52Z</time>
  <course>117.1</course>
  <speed>3.39</speed>
  <fix>3d</fix>
</trkpt>
<trkpt lat="40.071095" lon="-105.2300415">
  <ele>1583.17</ele>
  <time>2026-08-28T17:56:52Z</time>
  <course>115.33</course>
  <speed>3.536453025278294</speed>
  <fix>3d</fix>
</trkpt>
<trkpt lat="40.0710988" lon="-105.2300515">
  <ele>1583.0</ele>
  <time>2026-08-28T17:56:52Z</time>
  <course>117.1</course>
  <speed>3.39</speed>
  <fix>3d</fix>
</trkpt>
<trkpt lat="40.0710937" lon="-105.2300376">
  <ele>1583.17</ele>
  <time>2026-08-28T17:56:52Z</time>
  <course>114.03</course>
  <speed>3.5769260545893315</speed>
  <fix>3d</fix>
</trkpt>
<trkpt lat="40.0710961" lon="-105.2300443">
  <ele>1583.0</ele>
  <time>2026-08-28T17:56:52Z</time>
  <course>114.56</course>
  <speed>3.48</speed>
  <fix>3d</fix>
</trkpt>
<trkpt lat="40.0710925" lon="-105.2300337">
  <ele>1583.17</ele>
  <time>2026-08-28T17:56:52Z</time>
  <course>112.73</course>
  <speed>3.6192955115602263</speed>
  <fix>3d</fix>
</trkpt>
<trkpt lat="40.0710961" lon="-105.2300443">
  <ele>1583.0</ele>
  <time>2026-08-28T17:56:52Z</time>
  <course>114.56</course>
  <speed>3.48</speed>
  <fix>3d</fix>
</trkpt>
<trkpt lat="40.0710914" lon="-105.2300297">
  <ele>1583.16</ele>
  <time>2026-08-28T17:56:52Z</time>
  <course>111.41</course>
  <speed>3.6634955984687627</speed>
  <fix>3d</fix>
</trkpt>
<trkpt lat="40.0710936" lon="-105.2300367">
  <ele>1583.0</ele>
  <time>2026-08-28T17:56:52Z</time>
  <course>111.96</course>
  <speed>3.58</speed>
  <fix>3d</fix>
</trkpt>
<trkpt lat="40.0710903" lon="-105.2300257">
  <ele>1583.16</ele>
  <time>2026-08-28T17:56:52Z</time>
  <course>110.07</course>
  <speed>3.7062379848034586</speed>
  <fix>3d</fix>
</trkpt>
<trkpt lat="40.0710936" lon="-105.2300367">
  <ele>1583.0</ele>
  <time>2026-08-28T17:56:52Z</time>
  <course>111.96</course>
  <speed>3.58</speed>
  <fix>3d</fix>
</trkpt>
<trkpt lat="40.0710893" lon="-105.2300216">
  <ele>1583.16</ele>
  <time>2026-08-28T17:56:52Z</time>
  <course>108.72</course>
  <speed>3.7511065034200244</speed>
  <fix>3d</fix>
</trkpt>
<trkpt lat="40.0710913" lon="-105.2300286">
  <ele>1583.0</ele>
  <time>2026-08-28T17:56:52Z</time>
  <course>109.31</course>
  <speed>3.67</speed>
  <fix>3d</fix>
</trkpt>
<trkpt lat="40.0710884" lon="-105.2300173">
  <ele>1583.16</ele>
  <time>2026-08-28T17:56:52Z</time>
  <course>107.33</course>
  <speed>3.795273376187808</speed>
  <fix>3d</fix>
</trkpt>
<trkpt lat="40.0710913" lon="-105.2300286">
  <ele>1583.0</ele>
  <time>2026-08-28T17:56:52Z</time>
  <course>109.31</course>
  <speed>3.67</speed>
  <fix>3d</fix>
</trkpt>
<trkpt lat="40.0710877" lon="-105.2300139">
  <ele>1583.16</ele>
  <time>2026-08-28T17:56:52Z</time>
  <course>106.22</course>
  <speed>3.827584094438684</speed>
  <fix>3d</fix>
</trkpt>
<trkpt lat="40.0710892" lon="-105.2300204">
  <ele>1583.0</ele>
  <time>2026-08-28T17:56:52Z</time>
  <course>106.6</course>
  <speed>3.75</speed>
  <fix>3d</fix>
</trkpt>
<trkpt lat="40.0710869" lon="-105.2300095">
  <ele>1583.15</ele>
  <time>2026-08-28T17:56:52Z</time>
  <course>104.82</course>
  <speed>3.8662126170194004</speed>
  <fix>3d</fix>
</trkpt>
<trkpt lat="40.0710892" lon="-105.2300204">
  <ele>1583.0</ele>
  <time>2026-08-28T17:56:52Z</time>
  <course>106.6</course>
  <speed>3.75</speed>
  <fix>3d</fix>
</trkpt>
<trkpt lat="40.0710861" lon="-105.2300051">
  <ele>1583.15</ele>
  <time>2026-08-28T17:56:52Z</time>
  <course>103.72</course>
  <speed>3.909130338067535</speed>
  <fix>3d</fix>
</trkpt>
<trkpt lat="40.0710874" lon="-105.2300118">
  <ele>1583.0</ele>
  <time>2026-08-28T17:56:52Z</time>
  <course>103.9</course>
  <speed>3.84</speed>
  <fix>3d</fix>
</trkpt>
<trkpt lat="40.0710854" lon="-105.2300006">
  <ele>1583.15</ele>
  <time>2026-08-28T17:56:52Z</time>
  <course>103.72</course>
  <speed>3.9405710246105197</speed>
  <fix>3d</fix>
</trkpt>
<trkpt lat="40.0710874" lon="-105.2300118">
  <ele>1583.0</ele>
  <time>2026-08-28T17:56:52Z</time>
  <course>103.9</course>
  <speed>3.84</speed>
  <fix>3d</fix>
</trkpt>
<trkpt lat="40.0710846" lon="-105.229996">
  <ele>1583.15</ele>
  <time>2026-08-28T17:56:52Z</time>
  <course>104.84</course>
  <speed>3.9681229819651507</speed>
  <fix>3d</fix>
</trkpt>
<trkpt lat="40.0710858" lon="-105.2300028">
  <ele>1583.0</ele>
  <time>2026-08-28T17:56:52Z</time>
  <course>102.94</course>
  <speed>3.91</speed>
  <fix>3d</fix>
</trkpt>
<trkpt lat="40.0710837" lon="-105.2299915">
  <ele>1583.15</ele>
  <time>2026-08-28T17:56:52Z</time>
  <course>106.75</course>
  <speed>3.980967219156671</speed>
  <fix>3d</fix>
</trkpt>
<trkpt lat="40.0710858" lon="-105.2300028">
  <ele>1583.0</ele>
  <time>2026-08-28T17:56:52Z</time>
  <course>102.94</course>
  <speed>3.91</speed>
  <fix>3d</fix>
</trkpt>
<trkpt lat="40.0710827" lon="-105.229987">
  <ele>1583.15</ele>
  <time>2026-08-28T17:56:52Z</time>
  <course>107.61</course>
  <speed>3.9876057979695037</speed>
  <fix>3d</fix>
</trkpt>
<trkpt lat="40.0710841" lon="-105.2299939">
  <ele>1583.0</ele>
  <time>2026-08-28T17:56:52Z</time>
  <course>104.79</course>
  <speed>3.96</speed>
  <fix>3d</fix>
</trkpt>
<trkpt lat="40.0710817" lon="-105.2299825">
  <ele>1583.15</ele>
  <time>2026-08-28T17:56:52Z</time>
  <course>107.38</course>
  <speed>3.9820848810641896</speed>
  <fix>3d</fix>
</trkpt>
<trkpt lat="40.0710841" lon="-105.2299939">
  <ele>1583.0</ele>
  <time>2026-08-28T17:56:52Z</time>
  <course>104.79</course>
  <speed>3.96</speed>
  <fix>3d</fix>
</trkpt>
<trkpt lat="40.0710808" lon="-105.2299779">
  <ele>1583.15</ele>
  <time>2026-08-28T17:56:52Z</time>
  <course>106.09</course>
  <speed>3.9899498743718573</speed>
  <fix>3d</fix>
</trkpt>
<trkpt lat="40.0710821" lon="-105.2299849">
  <ele>1583.0</ele>
  <time>2026-08-28T17:56:52Z</time>
  <course>105.73</course>
  <speed>3.98</speed>
  <fix>3d</fix>
</trkpt>
<trkpt lat="40.0710798" lon="-105.2299724">
  <ele>1583.16</ele>
  <time>2026-08-28T17:56:52Z</time>
  <course>103.12</course>
  <speed>4.012605138809449</speed>
  <fix>3d</fix>
</trkpt>
<trkpt lat="40.0710821" lon="-105.2299849">
  <ele>1583.0</ele>
  <time>2026-08-28T17:56:52Z</time>
  <course>105.73</course>
  <speed>3.98</speed>
  <fix>3d</fix>
</trkpt>
<trkpt lat="40.0710791" lon="-105.2299677">
  <ele>1583.16</ele>
  <time>2026-08-28T17:56:52Z</time>
  <course>100.38</course>
  <speed>4.037883108758845</speed>
  <fix>3d</fix>
</trkpt>
<trkpt lat="40.0710804" lon="-105.2299759">
  <ele>1583.0</ele>
  <time>2026-08-28T17:56:52Z</time>
  <course>102.67</course>
  <speed>4.0</speed>
  <fix>3d</fix>
</trkpt>
<trkpt lat="40.0710787" lon="-105.2299631">
  <ele>1583.16</ele>
  <time>2026-08-28T17:56:52Z</time>
  <course>97.8</course>
  <speed>4.064984624817171</speed>
  <fix>3d</fix>
</trkpt>
<trkpt lat="40.0710804" lon="-105.2299759">
  <ele>1583.0</ele>
  <time>2026-08-28T17:56:52Z</time>
  <course>102.67</course>
  <speed>4.0</speed>
  <fix>3d</fix>
</trkpt>
<trkpt lat="40.0710784" lon="-105.2299583">
  <ele>1583.16</ele>
  <time>2026-08-28T17:56:52Z</time>
  <course>95.26</course>
  <speed>4.088924063858364</speed>
  <fix>3d</fix>
</trkpt>
<trkpt lat="40.0710791" lon="-105.2299665">
  <ele>1583.0</ele>
  <time>2026-08-28T17:56:52Z</time>
  <course>97.57</course>
  <speed>4.03</speed>
  <fix>3d</fix>
</trkpt>
<trkpt lat="40.0710782" lon="-105.2299534">
  <ele>1583.16</ele>
  <time>2026-08-28T17:56:52Z</time>
  <course>92.81</course>
  <speed>4.110985283359696</speed>
  <fix>3d</fix>
</trkpt>
<trkpt lat="40.0710791" lon="-105.2299665">
  <ele>1583.0</ele>
  <time>2026-08-28T17:56:52Z</time>
  <course>97.57</course>
  <speed>4.03</speed>
  <fix>3d</fix>
</trkpt>
<trkpt lat="40.0710782" lon="-105.2299486">
  <ele>1583.17</ele>
  <time>2026-08-28T17:56:52Z</time>
  <course>90.45</course>
  <speed>4.13059317774094</speed>
  <fix>3d</fix>
</trkpt>
<trkpt lat="40.0710785" lon="-105.229957">
  <ele>1583.0</ele>
  <time>2026-08-28T17:56:52Z</time>
  <course>92.51</course>
  <speed>4.08</speed>
  <fix>3d</fix>
</trkpt>
<trkpt lat="40.0710784" lon="-105.2299437">
  <ele>1583.17</ele>
  <time>2026-08-28T17:56:52Z</time>
  <course>88.15</course>
  <speed>4.156933966278512</speed>
  <fix>3d</fix>
</trkpt>
<trkpt lat="40.0710785" lon="-105.229957">
  <ele>1583.0</ele>
  <time>2026-08-28T17:56:52Z</time>
  <course>92.51</course>
  <speed>4.08</speed>
  <fix>3d</fix>
</trkpt>
<trkpt lat="40.0710787" lon="-105.2299389">
  <ele>1583.16</ele>
  <time>2026-08-28T17:56:52Z</time>
  <course>85.95</course>
  <speed>4.180155499499988</speed>
  <fix>3d</fix>
</trkpt>
<trkpt lat="40.0710785" lon="-105.2299474">
  <ele>1583.0</ele>
  <time>2026-08-28T17:56:52Z</time>
  <course>87.78</course>
  <speed>4.12</speed>
  <fix>3d</fix>
</trkpt>
<trkpt lat="40.0710792" lon="-105.229934">
  <ele>1583.16</ele>
  <time>2026-08-28T17:56:52Z</time>
  <course>83.84</course>
  <speed>4.208776544317837</speed>
  <fix>3d</fix>
</trkpt>
<trkpt lat="40.0710785" lon="-105.2299474">
  <ele>1583.0</ele>
  <time>2026-08-28T17:56:52Z</time>
  <course>87.78</course>
  <speed>4.12</speed>
  <fix>3d</fix>
</trkpt>
<trkpt lat="40.0710797" lon="-105.2299292">
  <ele>1583.16</ele>
  <time>2026-08-28T17:56:52Z</time>
  <course>81.84</course>
  <speed>4.231701785334122</speed>
  <fix>3d</fix>
</trkpt>
<trkpt lat="40.071079" lon="-105.2299377">
  <ele>1583.0</ele>
  <time>2026-08-28T17:56:52Z</time>
  <course>83.41</course>
  <speed>4.17</speed>
  <fix>3d</fix>
</trkpt>
<trkpt lat="40.0710804" lon="-105.2299244">
  <ele>1583.16</ele>
  <time>2026-08-28T17:56:52Z</time>
  <course>80.06</course>
  <speed>4.265548030441106</speed>
  <fix>3d</fix>
</trkpt>
<trkpt lat="40.071079" lon="-105.2299377">
  <ele>1583.0</ele>
  <time>2026-08-28T17:56:52Z</time>
  <course>83.41</course>
  <speed>4.17</speed>
  <fix>3d</fix>
</trkpt>
<trkpt lat="40.0710811" lon="-105.2299204">
  <ele>1583.16</ele>
  <time>2026-08-28T17:56:52Z</time>
  <course>78.77</course>
  <speed>4.286595385617821</speed>
  <fix>3d</fix>
</trkpt>
<trkpt lat="40.07108" lon="-105.229928">
  <ele>1583.0</ele>
  <time>2026-08-28T17:56:52Z</time>
  <course>79.55</course>
  <speed>4.23</speed>
  <fix>3d</fix>
</trkpt>
<trkpt lat="40.071082" lon="-105.2299156">
  <ele>1583.16</ele>
  <time>2026-08-28T17:56:52Z</time>
  <course>77.39</course>
  <speed>4.312307966738925</speed>
  <fix>3d</fix>
</trkpt>
<trkpt lat="40.07108" lon="-105.229928">
  <ele>1583.0</ele>
  <time>2026-08-28T17:56:52Z</time>
  <course>79.55</course>
  <speed>4.23</speed>
  <fix>3d</fix>
</trkpt>
<trkpt lat="40.071083" lon="-105.2299107">
  <ele>1583.16</ele>
  <time>2026-08-28T17:56:52Z</time>
  <course>76.19</course>
  <speed>4.337971876349592</speed>
  <fix>3d</fix>
</trkpt>
<trkpt lat="40.0710816" lon="-105.2299181">
  <ele>1583.0</ele>
  <time>2026-08-28T17:56:52Z</time>
  <course>76.47</course>
  <speed>4.29</speed>
  <fix>3d</fix>
</trkpt>
<trkpt lat="40.0710841" lon="-105.2299058">
  <ele>1583.16</ele>
  <time>2026-08-28T17:56:52Z</time>
  <course>75.21</course>
  <speed>4.360045871318328</speed>
  <fix>3d</fix>
</trkpt>
<trkpt lat="40.0710816" lon="-105.2299181">
  <ele>1583.0</ele>
  <time>2026-08-28T17:56:52Z</time>
  <course>76.47</course>
  <speed>4.29</speed>
  <fix>3d</fix>
</trkpt>
<trkpt lat="40.0710853" lon="-105.2299009">
  <ele>1583.16</ele>
  <time>2026-08-28T17:56:52Z</time>
  <course>74.41</course>
  <speed>4.377487864060847</speed>
  <fix>3d</fix>
</trkpt>
<trkpt lat="40.0710837" lon="-105.2299084">
  <ele>1583.0</ele>
  <time>2026-08-28T17:56:52Z</time>
  <course>74.23</course>
  <speed>4.34</speed>
  <fix>3d</fix>
</trkpt>
<trkpt lat="40.0710865" lon="-105.229896">
  <ele>1583.16</ele>
  <time>2026-08-28T17:56:52Z</time>
  <course>73.81</course>
  <speed>4.392596043343844</speed>
  <fix>3d</fix>
</trkpt>
<trkpt lat="40.0710837" lon="-105.2299084">
  <ele>1583.0</ele>
  <time>2026-08-28T17:56:52Z</time>
  <course>74.23</course>
  <speed>4.34</speed>
  <fix>3d</fix>
</trkpt>
<trkpt lat="40.0710877" lon="-105.2298911">
  <ele>1583.15</ele>
  <time>2026-08-28T17:56:52Z</time>
  <course>73.36</course>
  <speed>4.405053915674586</speed>
  <fix>3d</fix>
</trkpt>
<trkpt lat="40.0710859" lon="-105.2298985">
  <ele>1583.0</ele>
  <time>2026-08-28T17:56:52Z</time>
  <course>72.75</course>
  <speed>4.38</speed>
  <fix>3d</fix>
</trkpt>
<trkpt lat="40.071089" lon="-105.2298862">
  <ele>1583.15</ele>
  <time>2026-08-28T17:56:52Z</time>
  <course>73.05</course>
  <speed>4.411405671665212</speed>
  <fix>3d</fix>
</trkpt>
<trkpt lat="40.0710859" lon="-105.2298985">
  <ele>1583.0</ele>
  <time>2026-08-28T17:56:52Z</time>
  <course>72.75</course>
  <speed>4.38</speed>
  <fix>3d</fix>
</trkpt>
<trkpt lat="40.0710902" lon="-105.2298812">
  <ele>1583.15</ele>
  <time>2026-08-28T17:56:52Z</time>
  <course>72.77</course>
  <speed>4.408378386663286</speed>
  <fix>3d</fix>
</trkpt>
<trkpt lat="40.0710883" lon="-105.2298888">
  <ele>1583.0</ele>
  <time>2026-08-28T17:56:52Z</time>
  <course>71.88</course>
  <speed>4.39</speed>
  <fix>3d</fix>
</trkpt>
<trkpt lat="40.0710915" lon="-105.2298763">
  <ele>1583.15</ele>
  <time>2026-08-28T17:56:52Z</time>
  <course>72.53</course>
  <speed>4.4149065675277885</speed>
  <fix>3d</fix>
</trkpt>
<trkpt lat="40.0710883" lon="-105.2298888">
  <ele>1583.0</ele>
  <time>2026-08-28T17:56:52Z</time>
  <course>71.88</course>
  <speed>4.39</speed>
  <fix>3d</fix>
</trkpt>
<trkpt lat="40.0710931" lon="-105.2298704">
  <ele>1583.14</ele>
  <time>2026-08-28T17:56:52Z</time>
  <course>72.3</course>
  <speed>4.412085674598806</speed>
  <fix>3d</fix>
</trkpt>
<trkpt lat="40.0710908" lon="-105.2298789">
  <ele>1583.0</ele>
  <time>2026-08-28T17:56:52Z</time>
  <course>71.36</course>
  <speed>4.4</speed>
  <fix>3d</fix>
</trkpt>
<trkpt lat="40.0710944" lon="-105.2298655">
  <ele>1583.14</ele>
  <time>2026-08-28T17:56:52Z</time>
  <course>72.12</course>
  <speed>4.415427499121687</speed>
  <fix>3d</fix>
</trkpt>
<trkpt lat="40.0710908" lon="-105.2298789">
  <ele>1583.0</ele>
  <time>2026-08-28T17:56:52Z</time>
  <course>71.36</course>
  <speed>4.4</speed>
  <fix>3d</fix>
</trkpt>
<trkpt lat="40.0710957" lon="-105.2298607">
  <ele>1583.14</ele>
  <time>2026-08-28T17:56:52Z</time>
  <course>71.98</course>
  <speed>4.409376373139404</speed>
  <fix>3d</fix>
</trkpt>
<trkpt lat="40.0710933" lon="-105.2298692">
  <ele>1583.0</ele>
  <time>2026-08-28T17:56:52Z</time>
  <course>70.97</course>
  <speed>4.4</speed>
  <fix>3d</fix>
</trkpt>
<trkpt lat="40.0710971" lon="-105.2298558">
  <ele>1583.14</ele>
  <time>2026-08-28T17:56:52Z</time>
  <course>71.86</course>
  <speed>4.403362351658106</speed>
  <fix>3d</fix>
</trkpt>
<trkpt lat="40.0710933" lon="-105.2298692">
  <ele>1583.0</ele>
  <time>2026-08-28T17:56:52Z</time>
  <course>70.97</course>
  <speed>4.4</speed>
  <fix>3d</fix>
</trkpt>
<trkpt lat="40.0710984" lon="-105.2298509">
  <ele>1583.14</ele>
  <time>2026-08-28T17:56:52Z</time>
  <course>71.73</course>
  <speed>4.406778868969942</speed>
  <fix>3d</fix>
</trkpt>
<trkpt lat="40.071096" lon="-105.2298594">
  <ele>1583.0</ele>
  <time>2026-08-28T17:56:52Z</time>
  <course>70.68</course>
  <speed>4.4</speed>
  <fix>3d</fix>
</trkpt>
<trkpt lat="40.0710997" lon="-105.2298461">
  <ele>1583.14</ele>
  <time>2026-08-28T17:56:52Z</time>
  <course>71.63</course>
  <speed>4.397385586914115</speed>
  <fix>3d</fix>
</trkpt>
<trkpt lat="40.071096" lon="-105.2298594">
  <ele>1583.0</ele>
  <time>2026-08-28T17:56:52Z</time>
  <course>70.68</course>
  <speed>4.4</speed>
  <fix>3d</fix>
</trkpt>
<trkpt lat="40.0711011" lon="-105.2298412">
  <ele>1583.13</ele>
  <time>2026-08-28T17:56:52Z</time>
  <course>71.56</course>
  <speed>4.397385586914115</speed>
  <fix>3d</fix>
</trkpt>
<trkpt lat="40.0710986" lon="-105.2298496">
  <ele>1583.0</ele>
  <time>2026-08-28T17:56:52Z</time>
  <course>70.47</course>
  <speed>4.4</speed>
  <fix>3d</fix>
</trkpt>
<trkpt lat="40.0711024" lon="-105.2298364">
  <ele>1583.14</ele>
  <time>2026-08-28T17:56:52Z</time>
  <course>71.49</course>
  <speed>4.387994986323481</speed>
  <fix>3d</fix>
</trkpt>
<trkpt lat="40.0710986" lon="-105.2298496">
  <ele>1583.0</ele>
  <time>2026-08-28T17:56:52Z</time>
  <course>70.47</course>
  <speed>4.4</speed>
  <fix>3d</fix>
</trkpt>
<trkpt lat="40.0711037" lon="-105.2298316">
  <ele>1583.14</ele>
  <time>2026-08-28T17:56:52Z</time>
  <course>71.42</course>
  <speed>4.382065722921097</speed>
  <fix>3d</fix>
</trkpt>
<trkpt lat="40.0711012" lon="-105.2298398">
  <ele>1583.0</ele>
  <time>2026-08-28T17:56:52Z</time>
  <course>70.33</course>
  <speed>4.4</speed>
  <fix>3d</fix>
</trkpt>
<trkpt lat="40.071105" lon="-105.2298268">
  <ele>1583.14</ele>
  <time>2026-08-28T17:56:52Z</time>
  <course>71.35</course>
  <speed>4.382065722921097</speed>
  <fix>3d</fix>
</trkpt>
<trkpt lat="40.0711012" lon="-105.2298398">
  <ele>1583.0</ele>
  <time>2026-08-28T17:56:52Z</time>
  <course>70.33</course>
  <speed>4.4</speed>
  <fix>3d</fix>
</trkpt>
<trkpt lat="40.0711064" lon="-105.229822">
  <ele>1583.14</ele>
  <time>2026-08-28T17:56:52Z</time>
  <course>71.28</course>
  <speed>4.372687960511246</speed>
  <fix>3d</fix>
</trkpt>
<trkpt lat="40.0711039" lon="-105.2298301">
  <ele>1583.0</ele>
  <time>2026-08-28T17:56:52Z</time>
  <course>70.21</course>
  <speed>4.4</speed>
  <fix>3d</fix>
</trkpt>
<trkpt lat="40.0711074" lon="-105.2298182">
  <ele>1583.14</ele>
  <time>2026-08-28T17:56:52Z</time>
  <course>71.23</course>
  <speed>4.372687960511246</speed>
  <fix>3d</fix>
</trkpt>
<trkpt lat="40.0711039" lon="-105.2298301">
  <ele>1583.0</ele>
  <time>2026-08-28T17:56:52Z</time>
  <course>70.21</course>
  <speed>4.4</speed>
  <fix>3d</fix>
</trkpt>
<trkpt lat="40.0711088" lon="-105.2298134">
  <ele>1583.15</ele>
  <time>2026-08-28T17:56:52Z</time>
  <course>71.21</course>
  <speed>4.363312961500699</speed>
  <fix>3d</fix>
</trkpt>
<trkpt lat="40.0711066" lon="-105.2298204">
  <ele>1583.0</ele>
  <time>2026-08-28T17:56:52Z</time>
  <course>70.1</course>
  <speed>4.4</speed>
  <fix>3d</fix>
</trkpt>
<trkpt lat="40.0711101" lon="-105.2298085">
  <ele>1583.15</ele>
  <time>2026-08-28T17:56:52Z</time>
  <course>71.17</course>
  <speed>4.363312961500699</speed>
  <fix>3d</fix>
</trkpt>
<trkpt lat="40.0711066" lon="-105.2298204">
  <ele>1583.0</ele>
  <time>2026-08-28T17:56:52Z</time>
  <course>70.1</course>
  <speed>4.4</speed>
  <fix>3d</fix>
</trkpt>
<trkpt lat="40.0711115" lon="-105.2298037">
  <ele>1583.15</ele>
  <time>2026-08-28T17:56:52Z</time>
  <course>71.16</course>
  <speed>4.363312961500699</speed>
  <fix>3d</fix>
</trkpt>
<trkpt lat="40.0711093" lon="-105.2298106">
  <ele>1583.0</ele>
  <time>2026-08-28T17:56:52Z</time>
  <course>70.05</course>
  <speed>4.4</speed>
  <fix>3d</fix>
</trkpt>
<trkpt lat="40.0711128" lon="-105.2297988">
  <ele>1583.16</ele>
  <time>2026-08-28T17:56:52Z</time>
  <course>71.16</course>
  <speed>4.359839446585161</speed>
  <fix>3d</fix>
</trkpt>
<trkpt lat="40.0711093" lon="-105.2298106">
  <ele>1583.0</ele>
  <time>2026-08-28T17:56:52Z</time>
  <course>70.05</course>
  <speed>4.4</speed>
  <fix>3d</fix>
</trkpt>
<trkpt lat="40.0711142" lon="-105.229794">
  <ele>1583.16</ele>
  <time>2026-08-28T17:56:52Z</time>
  <course>71.16</course>
  <speed>4.359839446585161</speed>
  <fix>3d</fix>
</trkpt>
<trkpt lat="40.071112" lon="-105.2298009">
  <ele>1583.0</ele>
  <time>2026-08-28T17:56:52Z</time>
  <course>70.03</course>
  <speed>4.4</speed>
  <fix>3d</fix>
</trkpt>
<trkpt lat="40.0711155" lon="-105.2297891">
  <ele>1583.16</ele>
  <time>2026-08-28T17:56:52Z</time>
  <course>71.16</course>
  <speed>4.359839446585161</speed>
  <fix>3d</fix>
</trkpt>
<trkpt lat="40.071112" lon="-105.2298009">
  <ele>1583.0</ele>
  <time>2026-08-28T17:56:52Z</time>
  <course>70.03</course>
  <speed>4.4</speed>
  <fix>3d</fix>
</trkpt>
<trkpt lat="40.0711168" lon="-105.2297842">
  <ele>1583.16</ele>
  <time>2026-08-28T17:56:52Z</time>
  <course>71.15</course>
  <speed>4.359839446585161</speed>
  <fix>3d</fix>
</trkpt>
<trkpt lat="40.0711147" lon="-105.2297912">
  <ele>1583.0</ele>
  <time>2026-08-28T17:56:52Z</time>
  <course>70.03</course>
  <speed>4.39</speed>
  <fix>3d</fix>
</trkpt>
<trkpt lat="40.0711182" lon="-105.2297794">
  <ele>1583.16</ele>
  <time>2026-08-28T17:56:52Z</time>
  <course>71.15</course>
  <speed>4.359839446585161</speed>
  <fix>3d</fix>
</trkpt>
<trkpt lat="40.0711147" lon="-105.2297912">
  <ele>1583.0</ele>
  <time>2026-08-28T17:56:52Z</time>
  <course>70.03</course>
  <speed>4.39</speed>
  <fix>3d</fix>
</trkpt>
<trkpt lat="40.0711195" lon="-105.2297745">
  <ele>1583.16</ele>
  <time>2026-08-28T17:56:52Z</time>
  <course>71.14</course>
  <speed>4.3563861169552</speed>
  <fix>3d</fix>
</trkpt>
<trkpt lat="40.0711174" lon="-105.2297815">
  <ele>1583.0</ele>
  <time>2026-08-28T17:56:52Z</time>
  <course>70.03</course>
  <speed>4.39</speed>
  <fix>3d</fix>
</trkpt>
<trkpt lat="40.0711212" lon="-105.2297686">
  <ele>1583.16</ele>
  <time>2026-08-28T17:56:52Z</time>
  <course>71.14</course>
  <speed>4.3563861169552</speed>
  <fix>3d</fix>
</trkpt>
<trkpt lat="40.0711174" lon="-105.2297815">
  <ele>1583.0</ele>
  <time>2026-08-28T17:56:52Z</time>
  <course>70.03</course>
  <speed>4.39</speed>
  <fix>3d</fix>
</trkpt>
<trkpt lat="40.0711225" lon="-105.2297638">
  <ele>1583.16</ele>
  <time>2026-08-28T17:56:52Z</time>
  <course>71.13</course>
  <speed>4.3563861169552</speed>
  <fix>3d</fix>
</trkpt>
<trkpt lat="40.0711201" lon="-105.2297718">
  <ele>1583.0</ele>
  <time>2026-08-28T17:56:52Z</time>
  <course>70.03</course>
  <speed>4.39</speed>
  <fix>3d</fix>
</trkpt>
<trkpt lat="40.0711238" lon="-105.2297589">
  <ele>1583.16</ele>
  <time>2026-08-28T17:56:52Z</time>
  <course>71.13</course>
  <speed>4.3563861169552</speed>
  <fix>3d</fix>
</trkpt>
<trkpt lat="40.0711201" lon="-105.2297718">
  <ele>1583.0</ele>
  <time>2026-08-28T17:56:52Z</time>
  <course>70.03</course>
  <speed>4.39</speed>
  <fix>3d</fix>
</trkpt>
<trkpt lat="40.0711252" lon="-105.2297541">
  <ele>1583.16</ele>
  <time>2026-08-28T17:56:52Z</time>
  <course>71.12</course>
  <speed>4.3563861169552</speed>
  <fix>3d</fix>
</trkpt>
<trkpt lat="40.0711228" lon="-105.2297621">
  <ele>1583.0</ele>
  <time>2026-08-28T17:56:52Z</time>
  <course>70.03</course>
  <speed>4.39</speed>
  <fix>3d</fix>
</trkpt>
<trkpt lat="40.0711265" lon="-105.2297492">
  <ele>1583.16</ele>
  <time>2026-08-28T17:56:52Z</time>
  <course>71.12</course>
  <speed>4.352953020651612</speed>
  <fix>3d</fix>
</trkpt>
<trkpt lat="40.0711228" lon="-105.2297621">
  <ele>1583.0</ele>
  <time>2026-08-28T17:56:52Z</time>
  <course>70.03</course>
  <speed>4.39</speed>
  <fix>3d</fix>
</trkpt>
<trkpt lat="40.0711279" lon="-105.2297444">
  <ele>1583.16</ele>
  <time>2026-08-28T17:56:52Z</time>
  <course>71.11</course>
  <speed>4.352953020651612</speed>
  <fix>3d</fix>
</trkpt>
<trkpt lat="40.0711255" lon="-105.2297524">
  <ele>1583.0</ele>
  <time>2026-08-28T17:56:52Z</time>
  <course>70.03</course>
  <speed>4.39</speed>
  <fix>3d</fix>
</trkpt>
<trkpt lat="40.0711292" lon="-105.2297395">
  <ele>1583.16</ele>
  <time>2026-08-28T17:56:52Z</time>
  <course>71.11</course>
  <speed>4.352953020651612</speed>
  <fix>3d</fix>
</trkpt>
<trkpt lat="40.0711255" lon="-105.2297524">
  <ele>1583.0</ele>
  <time>2026-08-28T17:56:52Z</time>
  <course>70.03</course>
  <speed>4.39</speed>
  <fix>3d</fix>
</trkpt>
<trkpt lat="40.0711305" lon="-105.2297347">
  <ele>1583.15</ele>
  <time>2026-08-28T17:56:52Z</time>
  <course>71.1</course>
  <speed>4.352953020651612</speed>
  <fix>3d</fix>
</trkpt>
<trkpt lat="40.0711282" lon="-105.2297427">
  <ele>1583.0</ele>
  <time>2026-08-28T17:56:52Z</time>
  <course>70.03</course>
  <speed>4.39</speed>
  <fix>3d</fix>
</trkpt>
<trkpt lat="40.0711319" lon="-105.2297299">
  <ele>1583.15</ele>
  <time>2026-08-28T17:56:52Z</time>
  <course>71.1</course>
  <speed>4.343558449013895</speed>
  <fix>3d</fix>
</trkpt>
<trkpt lat="40.0711282" lon="-105.2297427">
  <ele>1583.0</ele>
  <time>2026-08-28T17:56:52Z</time>
  <course>70.03</course>
  <speed>4.39</speed>
  <fix>3d</fix>
</trkpt>
<trkpt lat="40.0711332" lon="-105.2297251">
  <ele>1583.15</ele>
  <time>2026-08-28T17:56:52Z</time>
  <course>71.09</course>
  <speed>4.340138246646067</speed>
  <fix>3d</fix>
</trkpt>
<trkpt lat="40.0711309" lon="-105.229733">
  <ele>1583.0</ele>
  <time>2026-08-28T17:56:52Z</time>
  <course>70.03</course>
  <speed>4.39</speed>
  <fix>3d</fix>
</trkpt>
<trkpt lat="40.0711345" lon="-105.2297203">
  <ele>1583.14</ele>
  <time>2026-08-28T17:56:52Z</time>
  <course>71.08</course>
  <speed>4.340138246646067</speed>
  <fix>3d</fix>
</trkpt>
<trkpt lat="40.0711309" lon="-105.229733">
  <ele>1583.0</ele>
  <time>2026-08-28T17:56:52Z</time>
  <course>70.03</course>
  <speed>4.39</speed>
  <fix>3d</fix>
</trkpt>
<trkpt lat="40.0711356" lon="-105.2297164">
  <ele>1583.14</ele>
  <time>2026-08-28T17:56:52Z</time>
  <course>71.08</course>
  <speed>4.340138246646067</speed>
  <fix>3d</fix>
</trkpt>
<trkpt lat="40.0711336" lon="-105.2297233">
  <ele>1583.0</ele>
  <time>2026-08-28T17:56:52Z</time>
  <course>70.03</course>
  <speed>4.39</speed>
  <fix>3d</fix>
</trkpt>
<trkpt lat="40.0711369" lon="-105.2297116">
  <ele>1583.14</ele>
  <time>2026-08-28T17:56:52Z</time>
  <course>71.07</course>
  <speed>4.340138246646067</speed>
  <fix>3d</fix>
</trkpt>
<trkpt lat="40.0711336" lon="-105.2297233">
  <ele>1583.0</ele>
  <time>2026-08-28T17:56:52Z</time>
  <course>70.03</course>
  <speed>4.39</speed>
  <fix>3d</fix>
</trkpt>
<trkpt lat="40.0711382" lon="-105.2297067">
  <ele>1583.13</ele>
  <time>2026-08-28T17:56:52Z</time>
  <course>71.07</course>
  <speed>4.340138246646067</speed>
  <fix>3d</fix>
</trkpt>
<trkpt lat="40.0711363" lon="-105.2297136">
  <ele>1583.0</ele>
  <time>2026-08-28T17:56:52Z</time>
  <course>70.03</course>
  <speed>4.39</speed>
  <fix>3d</fix>
</trkpt>
<trkpt lat="40.0711396" lon="-105.2297019">
  <ele>1583.13</ele>
  <time>2026-08-28T17:56:52Z</time>
  <course>71.06</course>
  <speed>4.336738405760716</speed>
  <fix>3d</fix>
</trkpt>
<trkpt lat="40.0711363" lon="-105.2297136">
  <ele>1583.0</ele>
  <time>2026-08-28T17:56:52Z</time>
  <course>70.03</course>
  <speed>4.39</speed>
  <fix>3d</fix>
</trkpt>
<trkpt lat="40.0711409" lon="-105.229697">
  <ele>1583.13</ele>
  <time>2026-08-28T17:56:52Z</time>
  <course>71.05</course>
  <speed>4.336738405760716</speed>
  <fix>3d</fix>
</trkpt>
<trkpt lat="40.071139" lon="-105.2297039">
  <ele>1583.0</ele>
  <time>2026-08-28T17:56:52Z</time>
  <course>70.03</course>
  <speed>4.39</speed>
  <fix>3d</fix>
</trkpt>
<trkpt lat="40.0711423" lon="-105.2296921">
  <ele>1583.13</ele>
  <time>2026-08-28T17:56:52Z</time>
  <course>71.04</course>
  <speed>4.336738405760716</speed>
  <fix>3d</fix>
</trkpt>
<trkpt lat="40.071139" lon="-105.2297039">
  <ele>1583.0</ele>
  <time>2026-08-28T17:56:52Z</time>
  <course>70.03</course>
  <speed>4.39</speed>
  <fix>3d</fix>
</trkpt>
<trkpt lat="40.0711436" lon="-105.2296873">
  <ele>1583.12</ele>
  <time>2026-08-28T17:56:52Z</time>
  <course>71.04</course>
  <speed>4.336738405760716</speed>
  <fix>3d</fix>
</trkpt>
<trkpt lat="40.0711416" lon="-105.2296942">
  <ele>1583.0</ele>
  <time>2026-08-28T17:56:52Z</time>
  <course>70.03</course>
  <speed>4.39</speed>
  <fix>3d</fix>
</trkpt>
<trkpt lat="40.0711449" lon="-105.2296824">
  <ele>1583.12</ele>
  <time>2026-08-28T17:56:52Z</time>
  <course>71.03</course>
  <speed>4.336738405760716</speed>
  <fix>3d</fix>
</trkpt>
<trkpt lat="40.0711416" lon="-105.2296942">
  <ele>1583.0</ele>
  <time>2026-08-28T17:56:52Z</time>
  <course>70.03</course>
  <speed>4.39</speed>
  <fix>3d</fix>
</trkpt>
<trkpt lat="40.0711463" lon="-105.2296775">
  <ele>1583.12</ele>
  <time>2026-08-28T17:56:52Z</time>
  <course>71.02</course>
  <speed>4.336738405760716</speed>
  <fix>3d</fix>
</trkpt>
<trkpt lat="40.0711443" lon="-105.2296845">
  <ele>1583.0</ele>
  <time>2026-08-28T17:56:52Z</time>
  <course>70.03</course>
  <speed>4.39</speed>
  <fix>3d</fix>
</trkpt>
<trkpt lat="40.0711476" lon="-105.2296726">
  <ele>1583.12</ele>
  <time>2026-08-28T17:56:52Z</time>
  <course>71.01</course>
  <speed>4.346147719532782</speed>
  <fix>3d</fix>
</trkpt>
<trkpt lat="40.0711443" lon="-105.2296845">
  <ele>1583.0</ele>
  <time>2026-08-28T17:56:52Z</time>
  <course>70.03</course>
  <speed>4.39</speed>
  <fix>3d</fix>
</trkpt>
<trkpt lat="40.0711492" lon="-105.2296668">
  <ele>1583.12</ele>
  <time>2026-08-28T17:56:52Z</time>
  <course>71.0</course>
  <speed>4.346147719532782</speed>
  <fix>3d</fix>
</trkpt>
<trkpt lat="40.071147" lon="-105.2296748">
  <ele>1583.0</ele>
  <time>2026-08-28T17:56:52Z</time>
  <course>70.03</course>
  <speed>4.39</speed>
  <fix>3d</fix>
</trkpt>
<trkpt lat="40.0711505" lon="-105.229662">
  <ele>1583.12</ele>
  <time>2026-08-28T17:56:52Z</time>
  <course>71.0</course>
  <speed>4.346147719532782</speed>
  <fix>3d</fix>
</trkpt>
<trkpt lat="40.071147" lon="-105.2296748">
  <ele>1583.0</ele>
  <time>2026-08-28T17:56:52Z</time>
  <course>70.03</course>
  <speed>4.39</speed>
  <fix>3d</fix>
</trkpt>
<trkpt lat="40.0711519" lon="-105.2296571">
  <ele>1583.11</ele>
  <time>2026-08-28T17:56:52Z</time>
  <course>70.99</course>
  <speed>4.342775610136909</speed>
  <fix>3d</fix>
</trkpt>
<trkpt lat="40.0711497" lon="-105.2296651">
  <ele>1583.0</ele>
  <time>2026-08-28T17:56:52Z</time>
  <course>70.03</course>
  <speed>4.39</speed>
  <fix>3d</fix>
</trkpt>
<trkpt lat="40.0711532" lon="-105.2296522">
  <ele>1583.11</ele>
  <time>2026-08-28T17:56:52Z</time>
  <course>70.98</course>
  <speed>4.342775610136909</speed>
  <fix>3d</fix>
</trkpt>
<trkpt lat="40.0711497" lon="-105.2296651">
  <ele>1583.0</ele>
  <time>2026-08-28T17:56:52Z</time>
  <course>70.03</course>
  <speed>4.39</speed>
  <fix>3d</fix>
</trkpt>
<trkpt lat="40.0711546" lon="-105.2296474">
  <ele>1583.11</ele>
  <time>2026-08-28T17:56:52Z</time>
  <course>71.0</course>
  <speed>4.342775610136909</speed>
  <fix>3d</fix>
</trkpt>
<trkpt lat="40.0711524" lon="-105.2296554">
  <ele>1583.0</ele>
  <time>2026-08-28T17:56:52Z</time>
  <course>70.03</course>
  <speed>4.39</speed>
  <fix>3d</fix>
</trkpt>
<trkpt lat="40.0711559" lon="-105.2296425">
  <ele>1583.11</ele>
  <time>2026-08-28T17:56:52Z</time>
  <course>71.0</course>
  <speed>4.342775610136909</speed>
  <fix>3d</fix>
</trkpt>
<trkpt lat="40.0711524" lon="-105.2296554">
  <ele>1583.0</ele>
  <time>2026-08-28T17:56:52Z</time>
  <course>70.03</course>
  <speed>4.39</speed>
  <fix>3d</fix>
</trkpt>
<trkpt lat="40.0711572" lon="-105.2296377">
  <ele>1583.12</ele>
  <time>2026-08-28T17:56:52Z</time>
  <course>71.03</course>
  <speed>4.342775610136909</speed>
  <fix>3d</fix>
</trkpt>
<trkpt lat="40.0711551" lon="-105.2296457">
  <ele>1583.0</ele>
  <time>2026-08-28T17:56:52Z</time>
  <course>70.06</course>
  <speed>4.39</speed>
  <fix>3d</fix>
</trkpt>
<trkpt lat="40.0711585" lon="-105.2296329">
  <ele>1583.12</ele>
  <time>2026-08-28T17:56:52Z</time>
  <course>71.07</course>
  <speed>4.339423924900632</speed>
  <fix>3d</fix>
</trkpt>
<trkpt lat="40.0711551" lon="-105.2296457">
  <ele>1583.0</ele>
  <time>2026-08-28T17:56:52Z</time>
  <course>70.06</course>
  <speed>4.39</speed>
  <fix>3d</fix>
</trkpt>
<trkpt lat="40.0711598" lon="-105.2296281">
  <ele>1583.12</ele>
  <time>2026-08-28T17:56:52Z</time>
  <course>71.09</course>
  <speed>4.339423924900632</speed>
  <fix>3d</fix>
</trkpt>
<trkpt lat="40.0711578" lon="-105.229636">
  <ele>1583.0</ele>
  <time>2026-08-28T17:56:52Z</time>
  <course>70.11</course>
  <speed>4.39</speed>
  <fix>3d</fix>
</trkpt>
<trkpt lat="40.0711612" lon="-105.2296233">
  <ele>1583.12</ele>
  <time>2026-08-28T17:56:52Z</time>
  <course>71.11</course>
  <speed>4.336092711185959</speed>
  <fix>3d</fix>
</trkpt>
<trkpt lat="40.0711578" lon="-105.229636">
  <ele>1583.0</ele>
  <time>2026-08-28T17:56:52Z</time>
  <course>70.11</course>
  <speed>4.39</speed>
  <fix>3d</fix>
</trkpt>
<trkpt lat="40.0711625" lon="-105.2296185">
  <ele>1583.12</ele>
  <time>2026-08-28T17:56:52Z</time>
  <course>71.14</course>
  <speed>4.336092711185959</speed>
  <fix>3d</fix>
</trkpt>
<trkpt lat="40.0711605" lon="-105.2296263">
  <ele>1583.0</ele>
  <time>2026-08-28T17:56:52Z</time>
  <course>70.16</course>
  <speed>4.39</speed>
  <fix>3d</fix>
</trkpt>
<trkpt lat="40.0711635" lon="-105.2296146">
  <ele>1583.12</ele>
  <time>2026-08-28T17:56:52Z</time>
  <course>71.18</course>
  <speed>4.336092711185959</speed>
  <fix>3d</fix>
</trkpt>
<trkpt lat="40.0711605" lon="-105.2296263">
  <ele>1583.0</ele>
  <time>2026-08-28T17:56:52Z</time>
  <course>70.16</course>
  <speed>4.39</speed>
  <fix>3d</fix>
</trkpt>
<trkpt lat="40.0711648" lon="-105.2296098">
  <ele>1583.12</ele>
  <time>2026-08-28T17:56:52Z</time>
  <course>71.2</course>
  <speed>4.332782016210832</speed>
  <fix>3d</fix>
</trkpt>
<trkpt lat="40.0711632" lon="-105.2296166">
  <ele>1583.0</ele>
  <time>2026-08-28T17:56:52Z</time>
  <course>70.23</course>
  <speed>4.39</speed>
  <fix>3d</fix>
</trkpt>
<trkpt lat="40.0711662" lon="-105.2296049">
  <ele>1583.12</ele>
  <time>2026-08-28T17:56:52Z</time>
  <course>71.23</course>
  <speed>4.332782016210832</speed>
  <fix>3d</fix>
</trkpt>
<trkpt lat="40.0711632" lon="-105.2296166">
  <ele>1583.0</ele>
  <time>2026-08-28T17:56:52Z</time>
  <course>70.23</course>
  <speed>4.39</speed>
  <fix>3d</fix>
</trkpt>
<trkpt lat="40.0711675" lon="-105.2296001">
  <ele>1583.12</ele>
  <time>2026-08-28T17:56:52Z</time>
  <course>71.27</course>
  <speed>4.332782016210832</speed>
  <fix>3d</fix>
</trkpt>
<trkpt lat="40.0711658" lon="-105.2296069">
  <ele>1583.0</ele>
  <time>2026-08-28T17:56:52Z</time>
  <course>70.3</course>
  <speed>4.39</speed>
  <fix>3d</fix>
</trkpt>
<trkpt lat="40.0711688" lon="-105.2295952">
  <ele>1583.13</ele>
  <time>2026-08-28T17:56:52Z</time>
  <course>71.27</course>
  <speed>4.332782016210832</speed>
  <fix>3d</fix>
</trkpt>
<trkpt lat="40.0711658" lon="-105.2296069">
  <ele>1583.0</ele>
  <time>2026-08-28T17:56:52Z</time>
  <course>70.3</course>
  <speed>4.39</speed>
  <fix>3d</fix>
</trkpt>
<trkpt lat="40.0711701" lon="-105.2295903">
  <ele>1583.13</ele>
  <time>2026-08-28T17:56:52Z</time>
  <course>71.29</course>
  <speed>4.332782016210832</speed>
  <fix>3d</fix>
</trkpt>
<trkpt lat="40.0711685" lon="-105.2295972">
  <ele>1583.0</ele>
  <time>2026-08-28T17:56:52Z</time>
  <course>70.36</course>
  <speed>4.39</speed>
  <fix>3d</fix>
</trkpt>
<trkpt lat="40.0711715" lon="-105.2295854">
  <ele>1583.13</ele>
  <time>2026-08-28T17:56:52Z</time>
  <course>71.32</course>
  <speed>4.338939962709786</speed>
  <fix>3d</fix>
</trkpt>
<trkpt lat="40.0711685" lon="-105.2295972">
  <ele>1583.0</ele>
  <time>2026-08-28T17:56:52Z</time>
  <course>70.36</course>
  <speed>4.39</speed>
  <fix>3d</fix>
</trkpt>
<trkpt lat="40.0711728" lon="-105.2295805">
  <ele>1583.14</ele>
  <time>2026-08-28T17:56:52Z</time>
  <course>71.33</course>
  <speed>4.338939962709786</speed>
  <fix>3d</fix>
</trkpt>
<trkpt lat="40.0711711" lon="-105.2295875">
  <ele>1583.0</ele>
  <time>2026-08-28T17:56:52Z</time>
  <course>70.41</course>
  <speed>4.39</speed>
  <fix>3d</fix>
</trkpt>
<trkpt lat="40.0711741" lon="-105.2295756">
  <ele>1583.14</ele>
  <time>2026-08-28T17:56:52Z</time>
  <course>71.34</course>
  <speed>4.338939962709786</speed>
  <fix>3d</fix>
</trkpt>
<trkpt lat="40.0711711" lon="-105.2295875">
  <ele>1583.0</ele>
  <time>2026-08-28T17:56:52Z</time>
  <course>70.41</course>
  <speed>4.39</speed>
  <fix>3d</fix>
</trkpt>
<trkpt lat="40.0711757" lon="-105.2295698">
  <ele>1583.15</ele>
  <time>2026-08-28T17:56:52Z</time>
  <course>71.36</course>
  <speed>4.338939962709786</speed>
  <fix>3d</fix>
</trkpt>
<trkpt lat="40.0711737" lon="-105.2295778">
  <ele>1583.0</ele>
  <time>2026-08-28T17:56:52Z</time>
  <course>70.46</course>
  <speed>4.39</speed>
  <fix>3d</fix>
</trkpt>
<trkpt lat="40.071177" lon="-105.2295649">
  <ele>1583.15</ele>
  <time>2026-08-28T17:56:52Z</time>
  <course>71.39</course>
  <speed>4.338939962709786</speed>
  <fix>3d</fix>
</trkpt>
<trkpt lat="40.0711737" lon="-105.2295778">
  <ele>1583.0</ele>
  <time>2026-08-28T17:56:52Z</time>
  <course>70.46</course>
  <speed>4.39</speed>
  <fix>3d</fix>
</trkpt>
<trkpt lat="40.0711783" lon="-105.22956">
  <ele>1583.16</ele>
  <time>2026-08-28T17:56:52Z</time>
  <course>71.41</course>
  <speed>4.345135210784585</speed>
  <fix>3d</fix>
</trkpt>
<trkpt lat="40.0711764" lon="-105.2295681">
  <ele>1583.0</ele>
  <time>2026-08-28T17:56:52Z</time>
  <course>70.5</course>
  <speed>4.39</speed>
  <fix>3d</fix>
</trkpt>
<trkpt lat="40.0711796" lon="-105.2295551">
  <ele>1583.16</ele>
  <time>2026-08-28T17:56:52Z</time>
  <course>71.41</course>
  <speed>4.345135210784585</speed>
  <fix>3d</fix>
</trkpt>
<trkpt lat="40.0711764" lon="-105.2295681">
  <ele>1583.0</ele>
  <time>2026-08-28T17:56:52Z</time>
  <course>70.5</course>
  <speed>4.39</speed>
  <fix>3d</fix>
</trkpt>
<trkpt lat="40.0711809" lon="-105.2295503">
  <ele>1583.16</ele>
  <time>2026-08-28T17:56:52Z</time>
  <course>71.38</course>
  <speed>4.348390506842732</speed>
  <fix>3d</fix>
</trkpt>
<trkpt lat="40.071179" lon="-105.2295584">
  <ele>1583.0</ele>
  <time>2026-08-28T17:56:52Z</time>
  <course>70.53</course>
  <speed>4.39</speed>
  <fix>3d</fix>
</trkpt>
<trkpt lat="40.0711823" lon="-105.2295454">
  <ele>1583.16</ele>
  <time>2026-08-28T17:56:52Z</time>
  <course>71.24</course>
  <speed>4.351666347504137</speed>
  <fix>3d</fix>
</trkpt>
<trkpt lat="40.071179" lon="-105.2295584">
  <ele>1583.0</ele>
  <time>2026-08-28T17:56:52Z</time>
  <course>70.53</course>
  <speed>4.39</speed>
  <fix>3d</fix>
</trkpt>
<trkpt lat="40.0711836" lon="-105.2295405">
  <ele>1583.16</ele>
  <time>2026-08-28T17:56:52Z</time>
  <course>70.98</course>
  <speed>4.348850422812907</speed>
  <fix>3d</fix>
</trkpt>
<trkpt lat="40.0711817" lon="-105.2295486">
  <ele>1583.0</ele>
  <time>2026-08-28T17:56:52Z</time>
  <course>70.4</course>
  <speed>4.39</speed>
  <fix>3d</fix>
</trkpt>
<trkpt lat="40.0711849" lon="-105.2295356">
  <ele>1583.16</ele>
  <time>2026-08-28T17:56:52Z</time>
  <course>70.61</course>
  <speed>4.346147719532782</speed>
  <fix>3d</fix>
</trkpt>
<trkpt lat="40.0711817" lon="-105.2295486">
  <ele>1583.0</ele>
  <time>2026-08-28T17:56:52Z</time>
  <course>70.4</course>
  <speed>4.39</speed>
  <fix>3d</fix>
</trkpt>
<trkpt lat="40.0711863" lon="-105.2295308">
  <ele>1583.15</ele>
  <time>2026-08-28T17:56:52Z</time>
  <course>70.12</course>
  <speed>4.3504597458199745</speed>
  <fix>3d</fix>
</trkpt>
<trkpt lat="40.0711844" lon="-105.2295389">
  <ele>1583.0</ele>
  <time>2026-08-28T17:56:52Z</time>
  <course>69.87</course>
  <speed>4.39</speed>
  <fix>3d</fix>
</trkpt>
<trkpt lat="40.0711877" lon="-105.2295261">
  <ele>1583.15</ele>
  <time>2026-08-28T17:56:52Z</time>
  <course>69.49</course>
  <speed>4.345814077937527</speed>
  <fix>3d</fix>
</trkpt>
<trkpt lat="40.0711844" lon="-105.2295389">
  <ele>1583.0</ele>
  <time>2026-08-28T17:56:52Z</time>
  <course>69.87</course>
  <speed>4.39</speed>
  <fix>3d</fix>
</trkpt>
<trkpt lat="40.0711892" lon="-105.2295213">
  <ele>1583.15</ele>
  <time>2026-08-28T17:56:52Z</time>
  <course>68.71</course>
  <speed>4.348988388119702</speed>
  <fix>3d</fix>
</trkpt>
<trkpt lat="40.0711872" lon="-105.2295293">
  <ele>1583.0</ele>
  <time>2026-08-28T17:56:52Z</time>
  <course>68.84</course>
  <speed>4.39</speed>
  <fix>3d</fix>
</trkpt>
<trkpt lat="40.0711907" lon="-105.2295165">
  <ele>1583.15</ele>
  <time>2026-08-28T17:56:52Z</time>
  <course>67.76</course>
  <speed>4.3569255215117</speed>
  <fix>3d</fix>
</trkpt>
<trkpt lat="40.0711872" lon="-105.2295293">
  <ele>1583.0</ele>
  <time>2026-08-28T17:56:52Z</time>
  <course>68.84</course>
  <speed>4.39</speed>
  <fix>3d</fix>
</trkpt>
<trkpt lat="40.071192" lon="-105.2295128">
  <ele>1583.15</ele>
  <time>2026-08-28T17:56:52Z</time>
  <course>66.88</course>
  <speed>4.35289558799657</speed>
  <fix>3d</fix>
</trkpt>
<trkpt lat="40.0711901" lon="-105.2295197">
  <ele>1583.0</ele>
  <time>2026-08-28T17:56:52Z</time>
  <course>67.22</course>
  <speed>4.4</speed>
  <fix>3d</fix>
</trkpt>
<trkpt lat="40.0711937" lon="-105.2295081">
  <ele>1583.15</ele>
  <time>2026-08-28T17:56:52Z</time>
  <course>65.63</course>
  <speed>4.357533706123224</speed>
  <fix>3d</fix>
</trkpt>
<trkpt lat="40.0711901" lon="-105.2295197">
  <ele>1583.0</ele>
  <time>2026-08-28T17:56:52Z</time>
  <course>67.22</course>
  <speed>4.4</speed>
  <fix>3d</fix>
</trkpt>
<trkpt lat="40.0711954" lon="-105.2295034">
  <ele>1583.15</ele>
  <time>2026-08-28T17:56:52Z</time>
  <course>64.18</course>
  <speed>4.364825311510187</speed>
  <fix>3d</fix>
</trkpt>
<trkpt lat="40.0711933" lon="-105.2295102">
  <ele>1583.0</ele>
  <time>2026-08-28T17:56:52Z</time>
  <course>64.95</course>
  <speed>4.4</speed>
  <fix>3d</fix>
</trkpt>
<trkpt lat="40.0711973" lon="-105.2294988">
  <ele>1583.15</ele>
  <time>2026-08-28T17:56:52Z</time>
  <course>62.66</course>
  <speed>4.370594925178951</speed>
  <fix>3d</fix>
</trkpt>
<trkpt lat="40.0711933" lon="-105.2295102">
  <ele>1583.0</ele>
  <time>2026-08-28T17:56:52Z</time>
  <course>64.95</course>
  <speed>4.4</speed>
  <fix>3d</fix>
</trkpt>
<trkpt lat="40.0711992" lon="-105.2294943">
  <ele>1583.15</ele>
  <time>2026-08-28T17:56:52Z</time>
  <course>61.07</course>
  <speed>4.370995309995196</speed>
  <fix>3d</fix>
</trkpt>
<trkpt lat="40.0711968" lon="-105.229501">
  <ele>1583.0</ele>
  <time>2026-08-28T17:56:52Z</time>
  <course>62.09</course>
  <speed>4.4</speed>
  <fix>3d</fix>
</trkpt>
<trkpt lat="40.0712013" lon="-105.2294898">
  <ele>1583.15</ele>
  <time>2026-08-28T17:56:52Z</time>
  <course>59.37</course>
  <speed>4.37498571426239</speed>
  <fix>3d</fix>
</trkpt>
<trkpt lat="40.0711968" lon="-105.229501">
  <ele>1583.0</ele>
  <time>2026-08-28T17:56:52Z</time>
  <course>62.09</course>
  <speed>4.4</speed>
  <fix>3d</fix>
</trkpt>
<trkpt lat="40.0712034" lon="-105.2294854">
  <ele>1583.15</ele>
  <time>2026-08-28T17:56:52Z</time>
  <course>57.6</course>
  <speed>4.371235523281719</speed>
  <fix>3d</fix>
</trkpt>
<trkpt lat="40.0712007" lon="-105.2294919">
  <ele>1583.0</ele>
  <time>2026-08-28T17:56:52Z</time>
  <course>58.84</course>
  <speed>4.4</speed>
  <fix>3d</fix>
</trkpt>
<trkpt lat="40.0712057" lon="-105.2294812">
  <ele>1583.15</ele>
  <time>2026-08-28T17:56:52Z</time>
  <course>55.72</course>
  <speed>4.364057744805859</speed>
  <fix>3d</fix>
</trkpt>
<trkpt lat="40.0712007" lon="-105.2294919">
  <ele>1583.0</ele>
  <time>2026-08-28T17:56:52Z</time>
  <course>58.84</course>
  <speed>4.4</speed>
  <fix>3d</fix>
</trkpt>
<trkpt lat="40.0712081" lon="-105.229477">
  <ele>1583.15</ele>
  <time>2026-08-28T17:56:52Z</time>
  <course>53.73</course>
  <speed>4.354055580720117</speed>
  <fix>3d</fix>
</trkpt>
<trkpt lat="40.071205" lon="-105.2294833">
  <ele>1583.0</ele>
  <time>2026-08-28T17:56:52Z</time>
  <course>55.21</course>
  <speed>4.39</speed>
  <fix>3d</fix>
</trkpt>
<trkpt lat="40.0712111" lon="-105.2294721">
  <ele>1583.15</ele>
  <time>2026-08-28T17:56:52Z</time>
  <course>51.21</course>
  <speed>4.3391819505524305</speed>
  <fix>3d</fix>
</trkpt>
<trkpt lat="40.071205" lon="-105.2294833">
  <ele>1583.0</ele>
  <time>2026-08-28T17:56:52Z</time>
  <course>55.21</course>
  <speed>4.39</speed>
  <fix>3d</fix>
</trkpt>
<trkpt lat="40.0712137" lon="-105.2294683">
  <ele>1583.15</ele>
  <time>2026-08-28T17:56:52Z</time>
  <course>48.98</course>
  <speed>4.326719311441407</speed>
  <fix>3d</fix>
</trkpt>
<trkpt lat="40.0712097" lon="-105.2294751">
  <ele>1583.0</ele>
  <time>2026-08-28T17:56:52Z</time>
  <course>51.18</course>
  <speed>4.37</speed>
  <fix>3d</fix>
</trkpt>
<trkpt lat="40.0712164" lon="-105.2294646">
  <ele>1583.15</ele>
  <time>2026-08-28T17:56:52Z</time>
  <course>46.66</course>
  <speed>4.306564756276167</speed>
  <fix>3d</fix>
</trkpt>
<trkpt lat="40.0712097" lon="-105.2294751">
  <ele>1583.0</ele>
  <time>2026-08-28T17:56:52Z</time>
  <course>51.18</course>
  <speed>4.37</speed>
  <fix>3d</fix>
</trkpt>
<trkpt lat="40.0712192" lon="-105.229461">
  <ele>1583.14</ele>
  <time>2026-08-28T17:56:52Z</time>
  <course>44.21</course>
  <speed>4.2874001446097845</speed>
  <fix>3d</fix>
</trkpt>
<trkpt lat="40.0712149" lon="-105.2294674">
  <ele>1583.0</ele>
  <time>2026-08-28T17:56:52Z</time>
  <course>46.7</course>
  <speed>4.33</speed>
  <fix>3d</fix>
</trkpt>
<trkpt lat="40.0712222" lon="-105.2294577">
  <ele>1583.14</ele>
  <time>2026-08-28T17:56:52Z</time>
  <course>41.65</course>
  <speed>4.27029273001278</speed>
  <fix>3d</fix>
</trkpt>
<trkpt lat="40.0712149" lon="-105.2294674">
  <ele>1583.0</ele>
  <time>2026-08-28T17:56:52Z</time>
  <course>46.7</course>
  <speed>4.33</speed>
  <fix>3d</fix>
</trkpt>
<trkpt lat="40.0712252" lon="-105.2294545">
  <ele>1583.15</ele>
  <time>2026-08-28T17:56:52Z</time>
  <course>38.99</course>
  <speed>4.240577790820492</speed>
  <fix>3d</fix>
</trkpt>
<trkpt lat="40.0712204" lon="-105.2294603">
  <ele>1583.0</ele>
  <time>2026-08-28T17:56:52Z</time>
  <course>41.77</course>
  <speed>4.28</speed>
  <fix>3d</fix>
</trkpt>
<trkpt lat="40.0712283" lon="-105.2294516">
  <ele>1583.15</ele>
  <time>2026-08-28T17:56:52Z</time>
  <course>36.2</course>
  <speed>4.2223216362565275</speed>
  <fix>3d</fix>
</trkpt>
<trkpt lat="40.0712204" lon="-105.2294603">
  <ele>1583.0</ele>
  <time>2026-08-28T17:56:52Z</time>
  <course>41.77</course>
  <speed>4.28</speed>
  <fix>3d</fix>
</trkpt>
<trkpt lat="40.0712314" lon="-105.2294489">
  <ele>1583.15</ele>
  <time>2026-08-28T17:56:52Z</time>
  <course>33.37</course>
  <speed>4.1923024700038045</speed>
  <fix>3d</fix>
</trkpt>
<trkpt lat="40.0712264" lon="-105.2294539">
  <ele>1583.0</ele>
  <time>2026-08-28T17:56:52Z</time>
  <course>36.43</course>
  <speed>4.23</speed>
  <fix>3d</fix>
</trkpt>
<trkpt lat="40.0712347" lon="-105.2294465">
  <ele>1583.15</ele>
  <time>2026-08-28T17:56:52Z</time>
  <course>30.47</course>
  <speed>4.176529659897078</speed>
  <fix>3d</fix>
</trkpt>
<trkpt lat="40.0712264" lon="-105.2294539">
  <ele>1583.0</ele>
  <time>2026-08-28T17:56:52Z</time>
  <course>36.43</course>
  <speed>4.23</speed>
  <fix>3d</fix>
</trkpt>
<trkpt lat="40.071238" lon="-105.2294442">
  <ele>1583.14</ele>
  <time>2026-08-28T17:56:52Z</time>
  <course>27.52</course>
  <speed>4.17709229009846</speed>
  <fix>3d</fix>
</trkpt>
<trkpt lat="40.0712326" lon="-105.2294484">
  <ele>1583.0</ele>
  <time>2026-08-28T17:56:52Z</time>
  <course>30.76</course>
  <speed>4.18</speed>
  <fix>3d</fix>
</trkpt>
<trkpt lat="40.0712414" lon="-105.2294422">
  <ele>1583.14</ele>
  <time>2026-08-28T17:56:52Z</time>
  <course>24.53</course>
  <speed>4.184746109383459</speed>
  <fix>3d</fix>
</trkpt>
<trkpt lat="40.0712326" lon="-105.2294484">
  <ele>1583.0</ele>
  <time>2026-08-28T17:56:52Z</time>
  <course>30.76</course>
  <speed>4.18</speed>
  <fix>3d</fix>
</trkpt>
<trkpt lat="40.071245" lon="-105.2294404">
  <ele>1583.14</ele>
  <time>2026-08-28T17:56:52Z</time>
  <course>21.54</course>
  <speed>4.204295422541095</speed>
  <fix>3d</fix>
</trkpt>
<trkpt lat="40.0712393" lon="-105.2294439">
  <ele>1583.0</ele>
  <time>2026-08-28T17:56:52Z</time>
  <course>24.86</course>
  <speed>4.17</speed>
  <fix>3d</fix>
</trkpt>
<trkpt lat="40.0712478" lon="-105.2294392">
  <ele>1583.14</ele>
  <time>2026-08-28T17:56:52Z</time>
  <course>19.16</course>
  <speed>4.231430018327138</speed>
  <fix>3d</fix>
</trkpt>
<trkpt lat="40.0712393" lon="-105.2294439">
  <ele>1583.0</ele>
  <time>2026-08-28T17:56:52Z</time>
  <course>24.86</course>
  <speed>4.17</speed>
  <fix>3d</fix>
</trkpt>
<trkpt lat="40.0712515" lon="-105.2294378">
  <ele>1583.13</ele>
  <time>2026-08-28T17:56:52Z</time>
  <course>16.23</course>
  <speed>4.281086310739366</speed>
  <fix>3d</fix>
</trkpt>
<trkpt lat="40.0712463" lon="-105.2294402">
  <ele>1583.0</ele>
  <time>2026-08-28T17:56:52Z</time>
  <course>18.92</course>
  <speed>4.22</speed>
  <fix>3d</fix>
</trkpt>
<trkpt lat="40.0712553" lon="-105.2294367">
  <ele>1583.13</ele>
  <time>2026-08-28T17:56:52Z</time>
  <course>13.35</course>
  <speed>4.320567092408125</speed>
  <fix>3d</fix>
</trkpt>
<trkpt lat="40.0712463" lon="-105.2294402">
  <ele>1583.0</ele>
  <time>2026-08-28T17:56:52Z</time>
  <course>18.92</course>
  <speed>4.22</speed>
  <fix>3d</fix>
</trkpt>
<trkpt lat="40.0712592" lon="-105.2294358">
  <ele>1583.12</ele>
  <time>2026-08-28T17:56:52Z</time>
  <course>10.53</course>
  <speed>4.363312961500699</speed>
  <fix>3d</fix>
</trkpt>
<trkpt lat="40.0712536" lon="-105.2294375">
  <ele>1583.0</ele>
  <time>2026-08-28T17:56:52Z</time>
  <course>13.09</course>
  <speed>4.29</speed>
  <fix>3d</fix>
</trkpt>
<trkpt lat="40.0712631" lon="-105.2294352">
  <ele>1583.12</ele>
  <time>2026-08-28T17:56:52Z</time>
  <course>7.78</course>
  <speed>4.416163493350308</speed>
  <fix>3d</fix>
</trkpt>
<trkpt lat="40.0712536" lon="-105.2294375">
  <ele>1583.0</ele>
  <time>2026-08-28T17:56:52Z</time>
  <course>13.09</course>
  <speed>4.29</speed>
  <fix>3d</fix>
</trkpt>
<trkpt lat="40.0712671" lon="-105.2294347">
  <ele>1583.12</ele>
  <time>2026-08-28T17:56:52Z</time>
  <course>5.13</course>
  <speed>4.4681651715217505</speed>
  <fix>3d</fix>
</trkpt>
<trkpt lat="40.0712613" lon="-105.2294357">
  <ele>1583.0</ele>
  <time>2026-08-28T17:56:52Z</time>
  <course>7.51</course>
  <speed>4.37</speed>
  <fix>3d</fix>
</trkpt>
<trkpt lat="40.0712712" lon="-105.2294346">
  <ele>1583.12</ele>
  <time>2026-08-28T17:56:52Z</time>
  <course>2.57</course>
  <speed>4.510543204537564</speed>
  <fix>3d</fix>
</trkpt>
<trkpt lat="40.0712613" lon="-105.2294357">
  <ele>1583.0</ele>
  <time>2026-08-28T17:56:52Z</time>
  <course>7.51</course>
  <speed>4.37</speed>
  <fix>3d</fix>
</trkpt>
<trkpt lat="40.0712753" lon="-105.2294346">
  <ele>1583.12</ele>
  <time>2026-08-28T17:56:52Z</time>
  <course>0.15</course>
  <speed>4.541332403601393</speed>
  <fix>3d</fix>
</trkpt>
<trkpt lat="40.0712692" lon="-105.2294347">
  <ele>1583.0</ele>
  <time>2026-08-28T17:56:52Z</time>
  <course>2.28</course>
  <speed>4.45</speed>
  <fix>3d</fix>
</trkpt>
<trkpt lat="40.0712794" lon="-105.2294349">
  <ele>1583.13</ele>
  <time>2026-08-28T17:56:52Z</time>
  <course>358.01</course>
  <speed>4.568588403434917</speed>
  <fix>3d</fix>
</trkpt>
<trkpt lat="40.0712692" lon="-105.2294347">
  <ele>1583.0</ele>
  <time>2026-08-28T17:56:52Z</time>
  <course>2.28</course>
  <speed>4.45</speed>
  <fix>3d</fix>
</trkpt>
<trkpt lat="40.0712843" lon="-105.2294354">
  <ele>1583.12</ele>
  <time>2026-08-28T17:56:52Z</time>
  <course>355.8</course>
  <speed>4.59309264004113</speed>
  <fix>3d</fix>
</trkpt>
<trkpt lat="40.0712772" lon="-105.2294348">
  <ele>1583.0</ele>
  <time>2026-08-28T17:56:52Z</time>
  <course>357.72</course>
  <speed>4.51</speed>
  <fix>3d</fix>
</trkpt>
<trkpt lat="40.0712885" lon="-105.2294361">
  <ele>1583.13</ele>
  <time>2026-08-28T17:56:52Z</time>
  <course>354.26</course>
  <speed>4.596737973824482</speed>
  <fix>3d</fix>
</trkpt>
<trkpt lat="40.0712772" lon="-105.2294348">
  <ele>1583.0</ele>
  <time>2026-08-28T17:56:52Z</time>
  <course>357.72</course>
  <speed>4.51</speed>
  <fix>3d</fix>
</trkpt>
<trkpt lat="40.0712925" lon="-105.2294367">
  <ele>1583.13</ele>
  <time>2026-08-28T17:56:52Z</time>
  <course>352.99</course>
  <speed>4.590642656535139</speed>
  <fix>3d</fix>
</trkpt>
<trkpt lat="40.0712853" lon="-105.2294356">
  <ele>1583.0</ele>
  <time>2026-08-28T17:56:52Z</time>
  <course>354.16</course>
  <speed>4.53</speed>
  <fix>3d</fix>
</trkpt>
<trkpt lat="40.0712966" lon="-105.2294376">
  <ele>1583.13</ele>
  <time>2026-08-28T17:56:52Z</time>
  <course>351.95</course>
  <speed>4.585117228599504</speed>
  <fix>3d</fix>
</trkpt>
<trkpt lat="40.0712853" lon="-105.2294356">
  <ele>1583.0</ele>
  <time>2026-08-28T17:56:52Z</time>
  <course>354.16</course>
  <speed>4.53</speed>
  <fix>3d</fix>
</trkpt>
<trkpt lat="40.0713006" lon="-105.2294385">
  <ele>1583.13</ele>
  <time>2026-08-28T17:56:52Z</time>
  <course>351.13</course>
  <speed>4.56607052069939</speed>
  <fix>3d</fix>
</trkpt>
<trkpt lat="40.0712934" lon="-105.2294369">
  <ele>1583.0</ele>
  <time>2026-08-28T17:56:52Z</time>
  <course>351.63</course>
  <speed>4.53</speed>
  <fix>3d</fix>
</trkpt>
<trkpt lat="40.0713046" lon="-105.2294395">
  <ele>1583.13</ele>
  <time>2026-08-28T17:56:52Z</time>
  <course>350.5</course>
  <speed>4.555798503006909</speed>
  <fix>3d</fix>
</trkpt>
<trkpt lat="40.0712934" lon="-105.2294369">
  <ele>1583.0</ele>
  <time>2026-08-28T17:56:52Z</time>
  <course>351.63</course>
  <speed>4.53</speed>
  <fix>3d</fix>
</trkpt>
<trkpt lat="40.0713086" lon="-105.2294405">
  <ele>1583.13</ele>
  <time>2026-08-28T17:56:52Z</time>
  <course>350.01</course>
  <speed>4.542092029010421</speed>
  <fix>3d</fix>
</trkpt>
<trkpt lat="40.0713015" lon="-105.2294386">
  <ele>1583.0</ele>
  <time>2026-08-28T17:56:52Z</time>
  <course>350.01</course>
  <speed>4.5</speed>
  <fix>3d</fix>
</trkpt>
<trkpt lat="40.0713125" lon="-105.2294416">
  <ele>1583.13</ele>
  <time>2026-08-28T17:56:52Z</time>
  <course>349.55</course>
  <speed>4.518849411078001</speed>
  <fix>3d</fix>
</trkpt>
<trkpt lat="40.0713015" lon="-105.2294386">
  <ele>1583.0</ele>
  <time>2026-08-28T17:56:52Z</time>
  <course>350.01</course>
  <speed>4.5</speed>
  <fix>3d</fix>
</trkpt>
<trkpt lat="40.0713164" lon="-105.2294427">
  <ele>1583.13</ele>
  <time>2026-08-28T17:56:52Z</time>
  <course>349.13</course>
  <speed>4.505652006091904</speed>
  <fix>3d</fix>
</trkpt>
<trkpt lat="40.0713094" lon="-105.2294405">
  <ele>1583.0</ele>
  <time>2026-08-28T17:56:52Z</time>
  <course>348.95</course>
  <speed>4.48</speed>
  <fix>3d</fix>
</trkpt>
<trkpt lat="40.0713203" lon="-105.2294438">
  <ele>1583.13</ele>
  <time>2026-08-28T17:56:52Z</time>
  <course>348.76</course>
  <speed>4.502454885948331</speed>
  <fix>3d</fix>
</trkpt>
<trkpt lat="40.0713094" lon="-105.2294405">
  <ele>1583.0</ele>
  <time>2026-08-28T17:56:52Z</time>
  <course>348.95</course>
  <speed>4.48</speed>
  <fix>3d</fix>
</trkpt>
<trkpt lat="40.0713242" lon="-105.2294449">
  <ele>1583.13</ele>
  <time>2026-08-28T17:56:52Z</time>
  <course>348.42</course>
  <speed>4.487460306231132</speed>
  <fix>3d</fix>
</trkpt>
<trkpt lat="40.0713173" lon="-105.2294426">
  <ele>1583.0</ele>
  <time>2026-08-28T17:56:52Z</time>
  <course>348.13</course>
  <speed>4.46</speed>
  <fix>3d</fix>
</trkpt>
<trkpt lat="40.0713273" lon="-105.2294458">
  <ele>1583.13</ele>
  <time>2026-08-28T17:56:52Z</time>
  <course>348.17</course>
  <speed>4.470279633311545</speed>
  <fix>3d</fix>
</trkpt>
<trkpt lat="40.0713173" lon="-105.2294426">
  <ele>1583.0</ele>
  <time>2026-08-28T17:56:52Z</time>
  <course>348.13</course>
  <speed>4.46</speed>
  <fix>3d</fix>
</trkpt>
<trkpt lat="40.0713311" lon="-105.229447">
  <ele>1583.13</ele>
  <time>2026-08-28T17:56:52Z</time>
  <course>347.88</course>
  <speed>4.465209961468777</speed>
  <fix>3d</fix>
</trkpt>
<trkpt lat="40.0713252" lon="-105.2294448">
  <ele>1583.0</ele>
  <time>2026-08-28T17:56:52Z</time>
  <course>347.46</course>
  <speed>4.44</speed>
  <fix>3d</fix>
</trkpt>
<trkpt lat="40.071335" lon="-105.2294482">
  <ele>1583.13</ele>
  <time>2026-08-28T17:56:52Z</time>
  <course>347.64</course>
  <speed>4.460246629952205</speed>
  <fix>3d</fix>
</trkpt>
<trkpt lat="40.0713252" lon="-105.2294448">
  <ele>1583.0</ele>
  <time>2026-08-28T17:56:52Z</time>
  <course>347.46</course>
  <speed>4.44</speed>
  <fix>3d</fix>
</trkpt>
<trkpt lat="40.0713389" lon="-105.2294494">
  <ele>1583.13</ele>
  <time>2026-08-28T17:56:52Z</time>
  <course>347.4</course>
  <speed>4.452954075667074</speed>
  <fix>3d</fix>
</trkpt>
<trkpt lat="40.0713329" lon="-105.2294471">
  <ele>1583.0</ele>
  <time>2026-08-28T17:56:52Z</time>
  <course>346.92</course>
  <speed>4.43</speed>
  <fix>3d</fix>
</trkpt>
<trkpt lat="40.0713427" lon="-105.2294506">
  <ele>1583.12</ele>
  <time>2026-08-28T17:56:52Z</time>
  <course>347.19</course>
  <speed>4.445694546412293</speed>
  <fix>3d</fix>
</trkpt>
<trkpt lat="40.0713329" lon="-105.2294471">
  <ele>1583.0</ele>
  <time>2026-08-28T17:56:52Z</time>
  <course>346.92</course>
  <speed>4.43</speed>
  <fix>3d</fix>
</trkpt>
<trkpt lat="40.0713466" lon="-105.2294519">
  <ele>1583.12</ele>
  <time>2026-08-28T17:56:52Z</time>
  <course>347.02</course>
  <speed>4.438468204234429</speed>
  <fix>3d</fix>
</trkpt>
<trkpt lat="40.0713406" lon="-105.2294495">
  <ele>1583.0</ele>
  <time>2026-08-28T17:56:52Z</time>
  <course>346.48</course>
  <speed>4.42</speed>
  <fix>3d</fix>
</trkpt>
<trkpt lat="40.0713505" lon="-105.2294531">
  <ele>1583.12</ele>
  <time>2026-08-28T17:56:52Z</time>
  <course>346.84</course>
  <speed>4.431275211493865</speed>
  <fix>3d</fix>
</trkpt>
<trkpt lat="40.0713406" lon="-105.2294495">
  <ele>1583.0</ele>
  <time>2026-08-28T17:56:52Z</time>
  <course>346.48</course>
  <speed>4.42</speed>
  <fix>3d</fix>
</trkpt>
<trkpt lat="40.0713543" lon="-105.2294544">
  <ele>1583.12</ele>
  <time>2026-08-28T17:56:52Z</time>
  <course>346.66</course>
  <speed>4.42411573085515</speed>
  <fix>3d</fix>
</trkpt>
<trkpt lat="40.0713484" lon="-105.2294519">
  <ele>1583.0</ele>
  <time>2026-08-28T17:56:52Z</time>
  <course>346.09</course>
  <speed>4.41</speed>
  <fix>3d</fix>
</trkpt>
<trkpt lat="40.0713582" lon="-105.2294556">
  <ele>1583.12</ele>
  <time>2026-08-28T17:56:52Z</time>
  <course>346.49</course>
  <speed>4.416989925277168</speed>
  <fix>3d</fix>
</trkpt>
<trkpt lat="40.0713484" lon="-105.2294519">
  <ele>1583.0</ele>
  <time>2026-08-28T17:56:52Z</time>
  <course>346.09</course>
  <speed>4.41</speed>
  <fix>3d</fix>
</trkpt>
<trkpt lat="40.071362" lon="-105.2294569">
  <ele>1583.12</ele>
  <time>2026-08-28T17:56:52Z</time>
  <course>346.36</course>
  <speed>4.41955880150949</speed>
  <fix>3d</fix>
</trkpt>
<trkpt lat="40.0713561" lon="-105.2294545">
  <ele>1583.0</ele>
  <time>2026-08-28T17:56:52Z</time>
  <course>345.75</course>
  <speed>4.41</speed>
  <fix>3d</fix>
</trkpt>
<trkpt lat="40.0713666" lon="-105.2294585">
  <ele>1583.12</ele>
  <time>2026-08-28T17:56:52Z</time>
  <course>346.22</course>
  <speed>4.412493626057719</speed>
  <fix>3d</fix>
</trkpt>
<trkpt lat="40.0713561" lon="-105.2294545">
  <ele>1583.0</ele>
  <time>2026-08-28T17:56:52Z</time>
  <course>345.75</course>
  <speed>4.41</speed>
  <fix>3d</fix>
</trkpt>
<trkpt lat="40.0713705" lon="-105.2294598">
  <ele>1583.12</ele>
  <time>2026-08-28T17:56:52Z</time>
  <course>346.1</course>
  <speed>4.412493626057719</speed>
  <fix>3d</fix>
</trkpt>
<trkpt lat="40.0713637" lon="-105.229457">
  <ele>1583.0</ele>
  <time>2026-08-28T17:56:52Z</time>
  <course>345.47</course>
  <speed>4.4</speed>
  <fix>3d</fix>
</trkpt>
<trkpt lat="40.0713743" lon="-105.2294611">
  <ele>1583.12</ele>
  <time>2026-08-28T17:56:52Z</time>
  <course>345.98</course>
  <speed>4.405462518283409</speed>
  <fix>3d</fix>
</trkpt>
<trkpt lat="40.0713637" lon="-105.229457">
  <ele>1583.0</ele>
  <time>2026-08-28T17:56:52Z</time>
  <course>345.47</course>
  <speed>4.4</speed>
  <fix>3d</fix>
</trkpt>
<trkpt lat="40.0713781" lon="-105.2294624">
  <ele>1583.12</ele>
  <time>2026-08-28T17:56:52Z</time>
  <course>345.87</course>
  <speed>4.395816192699599</speed>
  <fix>3d</fix>
</trkpt>
<trkpt lat="40.0713714" lon="-105.2294597">
  <ele>1583.0</ele>
  <time>2026-08-28T17:56:52Z</time>
  <course>345.23</course>
  <speed>4.4</speed>
  <fix>3d</fix>
</trkpt>
<trkpt lat="40.0713819" lon="-105.2294637">
  <ele>1583.12</ele>
  <time>2026-08-28T17:56:52Z</time>
  <course>345.75</course>
  <speed>4.398465641561839</speed>
  <fix>3d</fix>
</trkpt>
<trkpt lat="40.0713714" lon="-105.2294597">
  <ele>1583.0</ele>
  <time>2026-08-28T17:56:52Z</time>
  <course>345.23</course>
  <speed>4.4</speed>
  <fix>3d</fix>
</trkpt>
<trkpt lat="40.0713857" lon="-105.2294651">
  <ele>1583.12</ele>
  <time>2026-08-28T17:56:52Z</time>
  <course>345.63</course>
  <speed>4.388826722485179</speed>
  <fix>3d</fix>
</trkpt>
<trkpt lat="40.0713791" lon="-105.2294623">
  <ele>1583.0</ele>
  <time>2026-08-28T17:56:52Z</time>
  <course>344.99</course>
  <speed>4.39</speed>
  <fix>3d</fix>
</trkpt>
<trkpt lat="40.0713895" lon="-105.2294664">
  <ele>1583.12</ele>
  <time>2026-08-28T17:56:52Z</time>
  <course>345.51</course>
  <speed>4.391503159511559</speed>
  <fix>3d</fix>
</trkpt>
<trkpt lat="40.0713791" lon="-105.2294623">
  <ele>1583.0</ele>
  <time>2026-08-28T17:56:52Z</time>
  <course>344.99</course>
  <speed>4.39</speed>
  <fix>3d</fix>
</trkpt>
<trkpt lat="40.0713933" lon="-105.2294677">
  <ele>1583.12</ele>
  <time>2026-08-28T17:56:52Z</time>
  <course>345.39</course>
  <speed>4.384575235983527</speed>
  <fix>3d</fix>
</trkpt>
<trkpt lat="40.0713867" lon="-105.229465">
  <ele>1583.0</ele>
  <time>2026-08-28T17:56:52Z</time>
  <course>344.75</course>
  <speed>4.39</speed>
  <fix>3d</fix>
</trkpt>
<trkpt lat="40.0713971" lon="-105.2294691">
  <ele>1583.12</ele>
  <time>2026-08-28T17:56:52Z</time>
  <course>345.27</course>
  <speed>4.374951428301804</speed>
  <fix>3d</fix>
</trkpt>
<trkpt lat="40.0713867" lon="-105.229465">
  <ele>1583.0</ele>
  <time>2026-08-28T17:56:52Z</time>
  <course>344.75</course>
  <speed>4.39</speed>
  <fix>3d</fix>
</trkpt>
<trkpt lat="40.0714008" lon="-105.2294704">
  <ele>1583.13</ele>
  <time>2026-08-28T17:56:52Z</time>
  <course>345.15</course>
  <speed>4.377682035050056</speed>
  <fix>3d</fix>
</trkpt>
<trkpt lat="40.0713942" lon="-105.2294677">
  <ele>1583.0</ele>
  <time>2026-08-28T17:56:52Z</time>
  <course>344.51</course>
  <speed>4.39</speed>
  <fix>3d</fix>
</trkpt>
<trkpt lat="40.0714045" lon="-105.2294718">
  <ele>1583.13</ele>
  <time>2026-08-28T17:56:52Z</time>
  <course>345.03</course>
  <speed>4.368065933568311</speed>
  <fix>3d</fix>
</trkpt>
<trkpt lat="40.0713942" lon="-105.2294677">
  <ele>1583.0</ele>
  <time>2026-08-28T17:56:52Z</time>
  <course>344.51</course>
  <speed>4.39</speed>
  <fix>3d</fix>
</trkpt>
<trkpt lat="40.0714076" lon="-105.2294729">
  <ele>1583.13</ele>
  <time>2026-08-28T17:56:52Z</time>
  <course>344.94</course>
  <speed>4.358451559900603</speed>
  <fix>3d</fix>
</trkpt>
<trkpt lat="40.0714019" lon="-105.2294704">
  <ele>1583.0</ele>
  <time>2026-08-28T17:56:52Z</time>
  <course>344.28</course>
  <speed>4.39</speed>
  <fix>3d</fix>
</trkpt>
<trkpt lat="40.0714113" lon="-105.2294743">
  <ele>1583.13</ele>
  <time>2026-08-28T17:56:52Z</time>
  <course>344.82</course>
  <speed>4.3612154269194265</speed>
  <fix>3d</fix>
</trkpt>
<trkpt lat="40.0714019" lon="-105.2294704">
  <ele>1583.0</ele>
  <time>2026-08-28T17:56:52Z</time>
  <course>344.28</course>
  <speed>4.39</speed>
  <fix>3d</fix>
</trkpt>
<trkpt lat="40.0714151" lon="-105.2294757">
  <ele>1583.13</ele>
  <time>2026-08-28T17:56:52Z</time>
  <course>344.7</course>
  <speed>4.351608897867546</speed>
  <fix>3d</fix>
</trkpt>
<trkpt lat="40.0714095" lon="-105.2294733">
  <ele>1583.0</ele>
  <time>2026-08-28T17:56:52Z</time>
  <course>344.04</course>
  <speed>4.38</speed>
  <fix>3d</fix>
</trkpt>
<trkpt lat="40.0714189" lon="-105.2294771">
  <ele>1583.13</ele>
  <time>2026-08-28T17:56:52Z</time>
  <course>344.58</course>
  <speed>4.354400073488884</speed>
  <fix>3d</fix>
</trkpt>
<trkpt lat="40.0714095" lon="-105.2294733">
  <ele>1583.0</ele>
  <time>2026-08-28T17:56:52Z</time>
  <course>344.04</course>
  <speed>4.38</speed>
  <fix>3d</fix>
</trkpt>
<trkpt lat="40.0714227" lon="-105.2294785">
  <ele>1583.13</ele>
  <time>2026-08-28T17:56:52Z</time>
  <course>344.46</course>
  <speed>4.357212411622826</speed>
  <fix>3d</fix>
</trkpt>
<trkpt lat="40.0714171" lon="-105.2294761">
  <ele>1583.0</ele>
  <time>2026-08-28T17:56:52Z</time>
  <course>343.8</course>
  <speed>4.38</speed>
  <fix>3d</fix>
</trkpt>
<trkpt lat="40.0714265" lon="-105.2294799">
  <ele>1583.13</ele>
  <time>2026-08-28T17:56:52Z</time>
  <course>344.33</course>
  <speed>4.34762003859583</speed>
  <fix>3d</fix>
</trkpt>
<trkpt lat="40.0714171" lon="-105.2294761">
  <ele>1583.0</ele>
  <time>2026-08-28T17:56:52Z</time>
  <course>343.8</course>
  <speed>4.38</speed>
  <fix>3d</fix>
</trkpt>
<trkpt lat="40.0714302" lon="-105.2294814">
  <ele>1583.14</ele>
  <time>2026-08-28T17:56:52Z</time>
  <course>344.16</course>
  <speed>4.3504597458199745</speed>
  <fix>3d</fix>
</trkpt>
<trkpt lat="40.0714246" lon="-105.229479">
  <ele>1583.0</ele>
  <time>2026-08-28T17:56:52Z</time>
  <course>343.54</course>
  <speed>4.38</speed>
  <fix>3d</fix>
</trkpt>
<trkpt lat="40.071434" lon="-105.2294828">
  <ele>1583.14</ele>
  <time>2026-08-28T17:56:52Z</time>
  <course>343.96</course>
  <speed>4.343742625893022</speed>
  <fix>3d</fix>
</trkpt>
<trkpt lat="40.0714246" lon="-105.229479">
  <ele>1583.0</ele>
  <time>2026-08-28T17:56:52Z</time>
  <course>343.54</course>
  <speed>4.38</speed>
  <fix>3d</fix>
</trkpt>
<trkpt lat="40.0714378" lon="-105.2294843">
  <ele>1583.14</ele>
  <time>2026-08-28T17:56:52Z</time>
  <course>343.7</course>
  <speed>4.349540205584954</speed>
  <fix>3d</fix>
</trkpt>
<trkpt lat="40.0714321" lon="-105.229482">
  <ele>1583.0</ele>
  <time>2026-08-28T17:56:52Z</time>
  <course>343.18</course>
  <speed>4.38</speed>
  <fix>3d</fix>
</trkpt>
<trkpt lat="40.0714415" lon="-105.2294858">
  <ele>1583.14</ele>
  <time>2026-08-28T17:56:52Z</time>
  <course>343.23</course>
  <speed>4.3393087007033735</speed>
  <fix>3d</fix>
</trkpt>
<trkpt lat="40.0714321" lon="-105.229482">
  <ele>1583.0</ele>
  <time>2026-08-28T17:56:52Z</time>
  <course>343.18</course>
  <speed>4.38</speed>
  <fix>3d</fix>
</trkpt>
<trkpt lat="40.071446" lon="-105.2294877">
  <ele>1583.14</ele>
  <time>2026-08-28T17:56:52Z</time>
  <course>341.25</course>
  <speed>4.336092711185959</speed>
  <fix>3d</fix>
</trkpt>
<trkpt lat="40.0714396" lon="-105.229485">
  <ele>1583.0</ele>
  <time>2026-08-28T17:56:52Z</time>
  <course>342.13</course>
  <speed>4.37</speed>
  <fix>3d</fix>
</trkpt>
<trkpt lat="40.0714497" lon="-105.2294896">
  <ele>1583.14</ele>
  <time>2026-08-28T17:56:52Z</time>
  <course>338.39</course>
  <speed>4.313896150813091</speed>
  <fix>3d</fix>
</trkpt>
<trkpt lat="40.0714396" lon="-105.229485">
  <ele>1583.0</ele>
  <time>2026-08-28T17:56:52Z</time>
  <course>342.13</course>
  <speed>4.37</speed>
  <fix>3d</fix>
</trkpt>
<trkpt lat="40.0714532" lon="-105.2294917">
  <ele>1583.15</ele>
  <time>2026-08-28T17:56:52Z</time>
  <course>334.41</course>
  <speed>4.284343590329795</speed>
  <fix>3d</fix>
</trkpt>
<trkpt lat="40.071447" lon="-105.2294884">
  <ele>1583.0</ele>
  <time>2026-08-28T17:56:52Z</time>
  <course>338.31</course>
  <speed>4.34</speed>
  <fix>3d</fix>
</trkpt>
<trkpt lat="40.0714566" lon="-105.2294941">
  <ele>1583.15</ele>
  <time>2026-08-28T17:56:52Z</time>
  <course>329.32</course>
  <speed>4.246504444834598</speed>
  <fix>3d</fix>
</trkpt>
<trkpt lat="40.071447" lon="-105.2294884">
  <ele>1583.0</ele>
  <time>2026-08-28T17:56:52Z</time>
  <course>338.31</course>
  <speed>4.34</speed>
  <fix>3d</fix>
</trkpt>
<trkpt lat="40.0714597" lon="-105.229497">
  <ele>1583.15</ele>
  <time>2026-08-28T17:56:52Z</time>
  <course>323.13</course>
  <speed>4.204616510456097</speed>
  <fix>3d</fix>
</trkpt>
<trkpt lat="40.071454" lon="-105.2294928">
  <ele>1583.0</ele>
  <time>2026-08-28T17:56:52Z</time>
  <course>330.09</course>
  <speed>4.26</speed>
  <fix>3d</fix>
</trkpt>
<trkpt lat="40.0714625" lon="-105.2295003">
  <ele>1583.15</ele>
  <time>2026-08-28T17:56:52Z</time>
  <course>317.31</course>
  <speed>4.172792829748441</speed>
  <fix>3d</fix>
</trkpt>
<trkpt lat="40.071454" lon="-105.2294928">
  <ele>1583.0</ele>
  <time>2026-08-28T17:56:52Z</time>
  <course>330.09</course>
  <speed>4.26</speed>
  <fix>3d</fix>
</trkpt>
<trkpt lat="40.0714651" lon="-105.2295039">
  <ele>1583.15</ele>
  <time>2026-08-28T17:56:52Z</time>
  <course>312.66</course>
  <speed>4.123226891646881</speed>
  <fix>3d</fix>
</trkpt>
<trkpt lat="40.0714602" lon="-105.2294985">
  <ele>1583.0</ele>
  <time>2026-08-28T17:56:52Z</time>
  <course>319.19</course>
  <speed>4.18</speed>
  <fix>3d</fix>
</trkpt>
<trkpt lat="40.0714673" lon="-105.2295076">
  <ele>1583.16</ele>
  <time>2026-08-28T17:56:52Z</time>
  <course>309.14</course>
  <speed>4.048505897241598</speed>
  <fix>3d</fix>
</trkpt>
<trkpt lat="40.0714602" lon="-105.2294985">
  <ele>1583.0</ele>
  <time>2026-08-28T17:56:52Z</time>
  <course>319.19</course>
  <speed>4.18</speed>
  <fix>3d</fix>
</trkpt>
<trkpt lat="40.0714694" lon="-105.2295114">
  <ele>1583.16</ele>
  <time>2026-08-28T17:56:52Z</time>
  <course>306.71</course>
  <speed>3.937321424522006</speed>
  <fix>3d</fix>
</trkpt>
<trkpt lat="40.0714654" lon="-105.2295054">
  <ele>1583.0</ele>
  <time>2026-08-28T17:56:52Z</time>
  <course>310.14</course>
  <speed>4.08</speed>
  <fix>3d</fix>
</trkpt>
<trkpt lat="40.0714714" lon="-105.2295152">
  <ele>1583.16</ele>
  <time>2026-08-28T17:56:52Z</time>
  <course>305.38</course>
  <speed>3.8551913052402473</speed>
  <fix>3d</fix>
</trkpt>
<trkpt lat="40.0714654" lon="-105.2295054">
  <ele>1583.0</ele>
  <time>2026-08-28T17:56:52Z</time>
  <course>310.14</course>
  <speed>4.08</speed>
  <fix>3d</fix>
</trkpt>
<trkpt lat="40.0714732" lon="-105.2295189">
  <ele>1583.16</ele>
  <time>2026-08-28T17:56:52Z</time>
  <course>305.14</course>
  <speed>3.83020887158912</speed>
  <fix>3d</fix>
</trkpt>
<trkpt lat="40.0714698" lon="-105.2295129">
  <ele>1583.0</ele>
  <time>2026-08-28T17:56:52Z</time>
  <course>305.46</course>
  <speed>3.92</speed>
  <fix>3d</fix>
</trkpt>
<trkpt lat="40.0714748" lon="-105.229522">
  <ele>1583.17</ele>
  <time>2026-08-28T17:56:52Z</time>
  <course>305.72</course>
  <speed>3.858108344772085</speed>
  <fix>3d</fix>
</trkpt>
<trkpt lat="40.0714698" lon="-105.2295129">
  <ele>1583.0</ele>
  <time>2026-08-28T17:56:52Z</time>
  <course>305.46</course>
  <speed>3.92</speed>
  <fix>3d</fix>
</trkpt>
<trkpt lat="40.0714768" lon="-105.2295257">
  <ele>1583.17</ele>
  <time>2026-08-28T17:56:52Z</time>
  <course>307.44</course>
  <speed>3.902524823751926</speed>
  <fix>3d</fix>
</trkpt>
<trkpt lat="40.0714738" lon="-105.2295204">
  <ele>1583.0</ele>
  <time>2026-08-28T17:56:52Z</time>
  <course>305.19</course>
  <speed>3.88</speed>
  <fix>3d</fix>
</trkpt>
<trkpt lat="40.0714789" lon="-105.2295294">
  <ele>1583.17</ele>
  <time>2026-08-28T17:56:52Z</time>
  <course>310.28</course>
  <speed>3.940279177926356</speed>
  <fix>3d</fix>
</trkpt>
<trkpt lat="40.0714738" lon="-105.2295204">
  <ele>1583.0</ele>
  <time>2026-08-28T17:56:52Z</time>
  <course>305.19</course>
  <speed>3.88</speed>
  <fix>3d</fix>
</trkpt>
<trkpt lat="40.0714812" lon="-105.2295329">
  <ele>1583.17</ele>
  <time>2026-08-28T17:56:52Z</time>
  <course>313.53</course>
  <speed>3.9788691860879264</speed>
  <fix>3d</fix>
</trkpt>
<trkpt lat="40.071478" lon="-105.2295278">
  <ele>1583.0</ele>
  <time>2026-08-28T17:56:52Z</time>
  <course>309.12</course>
  <speed>3.96</speed>
  <fix>3d</fix>
</trkpt>
<trkpt lat="40.0714838" lon="-105.2295363">
  <ele>1583.18</ele>
  <time>2026-08-28T17:56:52Z</time>
  <course>316.71</course>
  <speed>4.009451334035618</speed>
  <fix>3d</fix>
</trkpt>
<trkpt lat="40.071478" lon="-105.2295278">
  <ele>1583.0</ele>
  <time>2026-08-28T17:56:52Z</time>
  <course>309.12</course>
  <speed>3.96</speed>
  <fix>3d</fix>
</trkpt>
<trkpt lat="40.0714865" lon="-105.2295396">
  <ele>1583.18</ele>
  <time>2026-08-28T17:56:52Z</time>
  <course>319.92</course>
  <speed>4.031935019317648</speed>
  <fix>3d</fix>
</trkpt>
<trkpt lat="40.0714829" lon="-105.2295348">
  <ele>1583.0</ele>
  <time>2026-08-28T17:56:52Z</time>
  <course>315.24</course>
  <speed>4.04</speed>
  <fix>3d</fix>
</trkpt>
<trkpt lat="40.0714894" lon="-105.2295426">
  <ele>1583.18</ele>
  <time>2026-08-28T17:56:52Z</time>
  <course>323.15</course>
  <speed>4.040606390135025</speed>
  <fix>3d</fix>
</trkpt>
<trkpt lat="40.0714829" lon="-105.2295348">
  <ele>1583.0</ele>
  <time>2026-08-28T17:56:52Z</time>
  <course>315.24</course>
  <speed>4.04</speed>
  <fix>3d</fix>
</trkpt>
<trkpt lat="40.0714924" lon="-105.2295454">
  <ele>1583.18</ele>
  <time>2026-08-28T17:56:52Z</time>
  <course>326.48</course>
  <speed>4.027505431405401</speed>
  <fix>3d</fix>
</trkpt>
<trkpt lat="40.0714884" lon="-105.2295411">
  <ele>1583.0</ele>
  <time>2026-08-28T17:56:52Z</time>
  <course>321.68</course>
  <speed>4.08</speed>
  <fix>3d</fix>
</trkpt>
<trkpt lat="40.0714955" lon="-105.229548">
  <ele>1583.18</ele>
  <time>2026-08-28T17:56:53Z</time>
  <course>329.92</course>
  <speed>4.031935019317648</speed>
  <fix>3d</fix>
</trkpt>
<trkpt lat="40.0714884" lon="-105.2295411">
  <ele>1583.0</ele>
  <time>2026-08-28T17:56:53Z</time>
  <course>321.68</course>
  <speed>4.08</speed>
  <fix>3d</fix>
</trkpt>
<trkpt lat="40.0714987" lon="-105.2295503">
  <ele>1583.18</ele>
  <time>2026-08-28T17:56:53Z</time>
  <course>333.53</course>
  <speed>4.042969205917849</speed>
  <fix>3d</fix>
</trkpt>
<trkpt lat="40.0714944" lon="-105.2295466">
  <ele>1583.0</ele>
  <time>2026-08-28T17:56:53Z</time>
  <course>328.45</course>
  <speed>4.09</speed>
  <fix>3d</fix>
</trkpt>
<trkpt lat="40.0715028" lon="-105.2295526">
  <ele>1583.18</ele>
  <time>2026-08-28T17:56:53Z</time>
  <course>338.12</course>
  <speed>4.063151486223471</speed>
  <fix>3d</fix>
</trkpt>
<trkpt lat="40.0714944" lon="-105.2295466">
  <ele>1583.0</ele>
  <time>2026-08-28T17:56:53Z</time>
  <course>328.45</course>
  <speed>4.09</speed>
  <fix>3d</fix>
</trkpt>
<trkpt lat="40.0715063" lon="-105.2295543">
  <ele>1583.18</ele>
  <time>2026-08-28T17:56:53Z</time>
  <course>342.16</course>
  <speed>4.101572869034512</speed>
  <fix>3d</fix>
</trkpt>
<trkpt lat="40.0715009" lon="-105.2295511">
  <ele>1583.0</ele>
  <time>2026-08-28T17:56:53Z</time>
  <course>335.86</course>
  <speed>4.12</speed>
  <fix>3d</fix>
</trkpt>
<trkpt lat="40.07151" lon="-105.2295556">
  <ele>1583.18</ele>
  <time>2026-08-28T17:56:53Z</time>
  <course>346.5</course>
  <speed>4.157162493817147</speed>
  <fix>3d</fix>
</trkpt>
<trkpt lat="40.0715009" lon="-105.2295511">
  <ele>1583.0</ele>
  <time>2026-08-28T17:56:53Z</time>
  <course>335.86</course>
  <speed>4.12</speed>
  <fix>3d</fix>
</trkpt>
<trkpt lat="40.0715138" lon="-105.2295565">
  <ele>1583.18</ele>
  <time>2026-08-28T17:56:53Z</time>
  <course>351.16</course>
  <speed>4.21882685115187</speed>
  <fix>3d</fix>
</trkpt>
<trkpt lat="40.0715079" lon="-105.2295544">
  <ele>1583.0</ele>
  <time>2026-08-28T17:56:53Z</time>
  <course>344.16</course>
  <speed>4.2</speed>
  <fix>3d</fix>
</trkpt>
<trkpt lat="40.0715177" lon="-105.229557">
  <ele>1583.17</ele>
  <time>2026-08-28T17:56:53Z</time>
  <course>356.17</course>
  <speed>4.287889923960268</speed>
  <fix>3d</fix>
</trkpt>
<trkpt lat="40.0715079" lon="-105.2295544">
  <ele>1583.0</ele>
  <time>2026-08-28T17:56:53Z</time>
  <course>344.16</course>
  <speed>4.2</speed>
  <fix>3d</fix>
</trkpt>
<trkpt lat="40.0715216" lon="-105.229557">
  <ele>1583.17</ele>
  <time>2026-08-28T17:56:53Z</time>
  <course>1.59</course>
  <speed>4.3525854385640725</speed>
  <fix>3d</fix>
</trkpt>
<trkpt lat="40.0715154" lon="-105.2295564">
  <ele>1583.0</ele>
  <time>2026-08-28T17:56:53Z</time>
  <course>353.66</course>
  <speed>4.31</speed>
  <fix>3d</fix>
</trkpt>
<trkpt lat="40.0715256" lon="-105.2295565">
  <ele>1583.17</ele>
  <time>2026-08-28T17:56:53Z</time>
  <course>7.7</course>
  <speed>4.395383942273985</speed>
  <fix>3d</fix>
</trkpt>
<trkpt lat="40.0715154" lon="-105.2295564">
  <ele>1583.0</ele>
  <time>2026-08-28T17:56:53Z</time>
  <course>353.66</course>
  <speed>4.31</speed>
  <fix>3d</fix>
</trkpt>
<trkpt lat="40.0715295" lon="-105.2295554">
  <ele>1583.17</ele>
  <time>2026-08-28T17:56:53Z</time>
  <course>14.77</course>
  <speed>4.398465641561839</speed>
  <fix>3d</fix>
</trkpt>
<trkpt lat="40.0715232" lon="-105.2295566">
  <ele>1583.0</ele>
  <time>2026-08-28T17:56:53Z</time>
  <course>5.0</course>
  <speed>4.4</speed>
  <fix>3d</fix>
</trkpt>
<trkpt lat="40.0715333" lon="-105.2295538">
  <ele>1583.17</ele>
  <time>2026-08-28T17:56:53Z</time>
  <course>21.85</course>
  <speed>4.370011441632618</speed>
  <fix>3d</fix>
</trkpt>
<trkpt lat="40.0715232" lon="-105.2295566">
  <ele>1583.0</ele>
  <time>2026-08-28T17:56:53Z</time>
  <course>5.0</course>
  <speed>4.4</speed>
  <fix>3d</fix>
</trkpt>
<trkpt lat="40.0715368" lon="-105.2295515">
  <ele>1583.17</ele>
  <time>2026-08-28T17:56:53Z</time>
  <course>28.94</course>
  <speed>4.318935053922436</speed>
  <fix>3d</fix>
</trkpt>
<trkpt lat="40.0715309" lon="-105.2295545">
  <ele>1583.0</ele>
  <time>2026-08-28T17:56:53Z</time>
  <course>18.29</course>
  <speed>4.39</speed>
  <fix>3d</fix>
</trkpt>
<trkpt lat="40.07154" lon="-105.2295487">
  <ele>1583.18</ele>
  <time>2026-08-28T17:56:53Z</time>
  <course>35.13</course>
  <speed>4.256207231796873</speed>
  <fix>3d</fix>
</trkpt>
<trkpt lat="40.0715309" lon="-105.2295545">
  <ele>1583.0</ele>
  <time>2026-08-28T17:56:53Z</time>
  <course>18.29</course>
  <speed>4.39</speed>
  <fix>3d</fix>
</trkpt>
<trkpt lat="40.0715424" lon="-105.2295462">
  <ele>1583.18</ele>
  <time>2026-08-28T17:56:53Z</time>
  <course>39.29</course>
  <speed>4.226890109761549</speed>
  <fix>3d</fix>
</trkpt>
<trkpt lat="40.0715381" lon="-105.2295502">
  <ele>1583.0</ele>
  <time>2026-08-28T17:56:53Z</time>
  <course>31.44</course>
  <speed>4.31</speed>
  <fix>3d</fix>
</trkpt>
<trkpt lat="40.0715452" lon="-105.2295428">
  <ele>1583.18</ele>
  <time>2026-08-28T17:56:53Z</time>
  <course>43.45</course>
  <speed>4.186096033298806</speed>
  <fix>3d</fix>
</trkpt>
<trkpt lat="40.0715381" lon="-105.2295502">
  <ele>1583.0</ele>
  <time>2026-08-28T17:56:53Z</time>
  <course>31.44</course>
  <speed>4.31</speed>
  <fix>3d</fix>
</trkpt>
<trkpt lat="40.0715478" lon="-105.2295392">
  <ele>1583.18</ele>
  <time>2026-08-28T17:56:53Z</time>
  <course>46.82</course>
  <speed>4.150614412349093</speed>
  <fix>3d</fix>
</trkpt>
<trkpt lat="40.0715442" lon="-105.2295442">
  <ele>1583.0</ele>
  <time>2026-08-28T17:56:53Z</time>
  <course>41.43</course>
  <speed>4.22</speed>
  <fix>3d</fix>
</trkpt>
<trkpt lat="40.0715503" lon="-105.2295354">
  <ele>1583.18</ele>
  <time>2026-08-28T17:56:53Z</time>
  <course>51.22</course>
  <speed>4.0960957020069735</speed>
  <fix>3d</fix>
</trkpt>
<trkpt lat="40.0715442" lon="-105.2295442">
  <ele>1583.0</ele>
  <time>2026-08-28T17:56:53Z</time>
  <course>41.43</course>
  <speed>4.22</speed>
  <fix>3d</fix>
</trkpt>
<trkpt lat="40.0715524" lon="-105.2295315">
  <ele>1583.18</ele>
  <time>2026-08-28T17:56:53Z</time>
  <course>56.73</course>
  <speed>3.982486660366862</speed>
  <fix>3d</fix>
</trkpt>
<trkpt lat="40.0715494" lon="-105.2295373">
  <ele>1583.0</ele>
  <time>2026-08-28T17:56:53Z</time>
  <course>50.0</course>
  <speed>4.09</speed>
  <fix>3d</fix>
</trkpt>
<trkpt lat="40.0715541" lon="-105.2295274">
  <ele>1583.18</ele>
  <time>2026-08-28T17:56:53Z</time>
  <course>63.32</course>
  <speed>3.829529997271206</speed>
  <fix>3d</fix>
</trkpt>
<trkpt lat="40.0715494" lon="-105.2295373">
  <ele>1583.0</ele>
  <time>2026-08-28T17:56:53Z</time>
  <course>50.0</course>
  <speed>4.09</speed>
  <fix>3d</fix>
</trkpt>
<trkpt lat="40.0715553" lon="-105.2295233">
  <ele>1583.17</ele>
  <time>2026-08-28T17:56:53Z</time>
  <course>71.0</course>
  <speed>3.694455304913026</speed>
  <fix>3d</fix>
</trkpt>
<trkpt lat="40.0715535" lon="-105.2295296">
  <ele>1583.0</ele>
  <time>2026-08-28T17:56:53Z</time>
  <course>61.48</course>
  <speed>3.83</speed>
  <fix>3d</fix>
</trkpt>
<trkpt lat="40.0715561" lon="-105.2295191">
  <ele>1583.17</ele>
  <time>2026-08-28T17:56:53Z</time>
  <course>79.54</course>
  <speed>3.559676951634797</speed>
  <fix>3d</fix>
</trkpt>
<trkpt lat="40.0715535" lon="-105.2295296">
  <ele>1583.0</ele>
  <time>2026-08-28T17:56:53Z</time>
  <course>61.48</course>
  <speed>3.83</speed>
  <fix>3d</fix>
</trkpt>
<trkpt lat="40.0715563" lon="-105.229515">
  <ele>1583.17</ele>
  <time>2026-08-28T17:56:53Z</time>
  <course>88.33</course>
  <speed>3.43</speed>
  <fix>3d</fix>
</trkpt>
<trkpt lat="40.0715559" lon="-105.2295216">
  <ele>1583.0</ele>
  <time>2026-08-28T17:56:53Z</time>
  <course>76.92</course>
  <speed>3.53</speed>
  <fix>3d</fix>
</trkpt>
<trkpt lat="40.071556" lon="-105.2295104">
  <ele>1583.16</ele>
  <time>2026-08-28T17:56:53Z</time>
  <course>98.07</course>
  <speed>3.2781854737034024</speed>
  <fix>3d</fix>
</trkpt>
<trkpt lat="40.0715559" lon="-105.2295216">
  <ele>1583.0</ele>
  <time>2026-08-28T17:56:53Z</time>
  <course>76.92</course>
  <speed>3.53</speed>
  <fix>3d</fix>
</trkpt>
<trkpt lat="40.0715553" lon="-105.2295067">
  <ele>1583.16</ele>
  <time>2026-08-28T17:56:53Z</time>
  <course>104.93</course>
  <speed>3.1828603488057716</speed>
  <fix>3d</fix>
</trkpt>
<trkpt lat="40.0715564" lon="-105.2295137">
  <ele>1583.0</ele>
  <time>2026-08-28T17:56:53Z</time>
  <course>93.39</course>
  <speed>3.27</speed>
  <fix>3d</fix>
</trkpt>
<trkpt lat="40.0715544" lon="-105.2295033">
  <ele>1583.16</ele>
  <time>2026-08-28T17:56:53Z</time>
  <course>110.7</course>
  <speed>3.12541197284454</speed>
  <fix>3d</fix>
</trkpt>
<trkpt lat="40.0715564" lon="-105.2295137">
  <ele>1583.0</ele>
  <time>2026-08-28T17:56:53Z</time>
  <course>93.39</course>
  <speed>3.27</speed>
  <fix>3d</fix>
</trkpt>
<trkpt lat="40.0715533" lon="-105.2295001">
  <ele>1583.16</ele>
  <time>2026-08-28T17:56:53Z</time>
  <course>115.43</course>
  <speed>3.0904045042680095</speed>
  <fix>3d</fix>
</trkpt>
<trkpt lat="40.0715554" lon="-105.2295063">
  <ele>1583.0</ele>
  <time>2026-08-28T17:56:53Z</time>
  <course>107.09</course>
  <speed>3.09</speed>
  <fix>3d</fix>
</trkpt>
<trkpt lat="40.071552" lon="-105.2294969">
  <ele>1583.16</ele>
  <time>2026-08-28T17:56:53Z</time>
  <course>119.09</course>
  <speed>3.0852714629348257</speed>
  <fix>3d</fix>
</trkpt>
<trkpt lat="40.0715554" lon="-105.2295063">
  <ele>1583.0</ele>
  <time>2026-08-28T17:56:53Z</time>
  <course>107.09</course>
  <speed>3.09</speed>
  <fix>3d</fix>
</trkpt>
<trkpt lat="40.0715505" lon="-105.2294939">
  <ele>1583.16</ele>
  <time>2026-08-28T17:56:53Z</time>
  <course>122.03</course>
  <speed>3.1090995481007035</speed>
  <fix>3d</fix>
</trkpt>
<trkpt lat="40.0715533" lon="-105.2294997">
  <ele>1583.0</ele>
  <time>2026-08-28T17:56:53Z</time>
  <course>116.5</course>
  <speed>3.04</speed>
  <fix>3d</fix>
</trkpt>
<trkpt lat="40.071549" lon="-105.2294909">
  <ele>1583.17</ele>
  <time>2026-08-28T17:56:53Z</time>
  <course>124.51</course>
  <speed>3.1364310928187153</speed>
  <fix>3d</fix>
</trkpt>
<trkpt lat="40.0715533" lon="-105.2294997">
  <ele>1583.0</ele>
  <time>2026-08-28T17:56:53Z</time>
  <course>116.5</course>
  <speed>3.04</speed>
  <fix>3d</fix>
</trkpt>
<trkpt lat="40.0715473" lon="-105.229488">
  <ele>1583.17</ele>
  <time>2026-08-28T17:56:53Z</time>
  <course>126.55</course>
  <speed>3.170567772497538</speed>
  <fix>3d</fix>
</trkpt>
<trkpt lat="40.0715505" lon="-105.2294935">
  <ele>1583.0</ele>
  <time>2026-08-28T17:56:53Z</time>
  <course>122.58</course>
  <speed>3.06</speed>
  <fix>3d</fix>
</trkpt>
<trkpt lat="40.0715456" lon="-105.2294852">
  <ele>1583.17</ele>
  <time>2026-08-28T17:56:53Z</time>
  <course>128.26</course>
  <speed>3.2098909638802375</speed>
  <fix>3d</fix>
</trkpt>
<trkpt lat="40.0715505" lon="-105.2294935">
  <ele>1583.0</ele>
  <time>2026-08-28T17:56:53Z</time>
  <course>122.58</course>
  <speed>3.06</speed>
  <fix>3d</fix>
</trkpt>
<trkpt lat="40.0715438" lon="-105.2294823">
  <ele>1583.17</ele>
  <time>2026-08-28T17:56:53Z</time>
  <course>129.69</course>
  <speed>3.2464442086689247</speed>
  <fix>3d</fix>
</trkpt>
<trkpt lat="40.0715474" lon="-105.2294875">
  <ele>1583.0</ele>
  <time>2026-08-28T17:56:53Z</time>
  <course>126.69</course>
  <speed>3.13</speed>
  <fix>3d</fix>
</trkpt>
<trkpt lat="40.071542" lon="-105.2294795">
  <ele>1583.17</ele>
  <time>2026-08-28T17:56:53Z</time>
  <course>130.86</course>
  <speed>3.2712382976481553</speed>
  <fix>3d</fix>
</trkpt>
<trkpt lat="40.0715474" lon="-105.2294875">
  <ele>1583.0</ele>
  <time>2026-08-28T17:56:53Z</time>
  <course>126.69</course>
  <speed>3.13</speed>
  <fix>3d</fix>
</trkpt>
<trkpt lat="40.0715401" lon="-105.2294767">
  <ele>1583.17</ele>
  <time>2026-08-28T17:56:53Z</time>
  <course>131.86</course>
  <speed>3.2829255245893108</speed>
  <fix>3d</fix>
</trkpt>
<trkpt lat="40.0715439" lon="-105.2294816">
  <ele>1583.0</ele>
  <time>2026-08-28T17:56:53Z</time>
  <course>129.54</course>
  <speed>3.2</speed>
  <fix>3d</fix>
</trkpt>
<trkpt lat="40.0715385" lon="-105.2294744">
  <ele>1583.17</ele>
  <time>2026-08-28T17:56:53Z</time>
  <course>132.53</course>
  <speed>3.2820725159569526</speed>
  <fix>3d</fix>
</trkpt>
<trkpt lat="40.0715439" lon="-105.2294816">
  <ele>1583.0</ele>
  <time>2026-08-28T17:56:53Z</time>
  <course>129.54</course>
  <speed>3.2</speed>
  <fix>3d</fix>
</trkpt>
<trkpt lat="40.0715366" lon="-105.2294717">
  <ele>1583.17</ele>
  <time>2026-08-28T17:56:53Z</time>
  <course>133.23</course>
  <speed>3.2742785464892874</speed>
  <fix>3d</fix>
</trkpt>
<trkpt lat="40.0715401" lon="-105.2294759">
  <ele>1583.0</ele>
  <time>2026-08-28T17:56:53Z</time>
  <course>131.51</course>
  <speed>3.23</speed>
  <fix>3d</fix>
</trkpt>
<trkpt lat="40.0715346" lon="-105.2294689">
  <ele>1583.17</ele>
  <time>2026-08-28T17:56:53Z</time>
  <course>133.8</course>
  <speed>3.259831283977746</speed>
  <fix>3d</fix>
</trkpt>
<trkpt lat="40.0715401" lon="-105.2294759">
  <ele>1583.0</ele>
  <time>2026-08-28T17:56:53Z</time>
  <course>131.51</course>
  <speed>3.23</speed>
  <fix>3d</fix>
</trkpt>
<trkpt lat="40.0715326" lon="-105.2294662">
  <ele>1583.17</ele>
  <time>2026-08-28T17:56:53Z</time>
  <course>134.28</course>
  <speed>3.238549057834388</speed>
  <fix>3d</fix>
</trkpt>
<trkpt lat="40.0715362" lon="-105.2294703">
  <ele>1583.0</ele>
  <time>2026-08-28T17:56:53Z</time>
  <course>132.86</course>
  <speed>3.21</speed>
  <fix>3d</fix>
</trkpt>
<trkpt lat="40.0715307" lon="-105.2294635">
  <ele>1583.18</ele>
  <time>2026-08-28T17:56:53Z</time>
  <course>134.67</course>
  <speed>3.2102959365142647</speed>
  <fix>3d</fix>
</trkpt>
<trkpt lat="40.0715362" lon="-105.2294703">
  <ele>1583.0</ele>
  <time>2026-08-28T17:56:53Z</time>
  <course>132.86</course>
  <speed>3.21</speed>
  <fix>3d</fix>
</trkpt>
<trkpt lat="40.0715287" lon="-105.2294609">
  <ele>1583.18</ele>
  <time>2026-08-28T17:56:53Z</time>
  <course>134.99</course>
  <speed>3.182106220728654</speed>
  <fix>3d</fix>
</trkpt>
<trkpt lat="40.0715323" lon="-105.2294649">
  <ele>1583.0</ele>
  <time>2026-08-28T17:56:53Z</time>
  <course>133.78</course>
  <speed>3.18</speed>
  <fix>3d</fix>
</trkpt>
<trkpt lat="40.0715267" lon="-105.2294583">
  <ele>1583.18</ele>
  <time>2026-08-28T17:56:53Z</time>
  <course>135.26</course>
  <speed>3.1609650425147064</speed>
  <fix>3d</fix>
</trkpt>
<trkpt lat="40.0715323" lon="-105.2294649">
  <ele>1583.0</ele>
  <time>2026-08-28T17:56:53Z</time>
  <course>133.78</course>
  <speed>3.18</speed>
  <fix>3d</fix>
</trkpt>
<trkpt lat="40.0715248" lon="-105.2294557">
  <ele>1583.18</ele>
  <time>2026-08-28T17:56:53Z</time>
  <course>135.47</course>
  <speed>3.1328740798187216</speed>
  <fix>3d</fix>
</trkpt>
<trkpt lat="40.0715283" lon="-105.2294595">
  <ele>1583.0</ele>
  <time>2026-08-28T17:56:53Z</time>
  <course>134.4</course>
  <speed>3.14</speed>
  <fix>3d</fix>
</trkpt>
<trkpt lat="40.0715228" lon="-105.2294531">
  <ele>1583.18</ele>
  <time>2026-08-28T17:56:53Z</time>
  <course>135.64</course>
  <speed>3.104593371119638</speed>
  <fix>3d</fix>
</trkpt>
<trkpt lat="40.0715283" lon="-105.2294595">
  <ele>1583.0</ele>
  <time>2026-08-28T17:56:53Z</time>
  <course>134.4</course>
  <speed>3.14</speed>
  <fix>3d</fix>
</trkpt>
<trkpt lat="40.0715205" lon="-105.22945">
  <ele>1583.18</ele>
  <time>2026-08-28T17:56:53Z</time>
  <course>135.79</course>
  <speed>3.0835044997534866</speed>
  <fix>3d</fix>
</trkpt>
<trkpt lat="40.0715244" lon="-105.2294543">
  <ele>1583.0</ele>
  <time>2026-08-28T17:56:53Z</time>
  <course>134.8</course>
  <speed>3.09</speed>
  <fix>3d</fix>
</trkpt>
<trkpt lat="40.0715186" lon="-105.2294475">
  <ele>1583.18</ele>
  <time>2026-08-28T17:56:53Z</time>
  <course>135.88</course>
  <speed>3.0621724314610375</speed>
  <fix>3d</fix>
</trkpt>
<trkpt lat="40.0715244" lon="-105.2294543">
  <ele>1583.0</ele>
  <time>2026-08-28T17:56:53Z</time>
  <course>134.8</course>
  <speed>3.09</speed>
  <fix>3d</fix>
</trkpt>
<trkpt lat="40.0715167" lon="-105.229445">
  <ele>1583.18</ele>
  <time>2026-08-28T17:56:53Z</time>
  <course>135.96</course>
  <speed>3.048032152061392</speed>
  <fix>3d</fix>
</trkpt>
<trkpt lat="40.0715205" lon="-105.2294492">
  <ele>1583.0</ele>
  <time>2026-08-28T17:56:53Z</time>
  <course>135.04</course>
  <speed>3.05</speed>
  <fix>3d</fix>
</trkpt>
<trkpt lat="40.0715148" lon="-105.2294425">
  <ele>1583.18</ele>
  <time>2026-08-28T17:56:53Z</time>
  <course>136.0</course>
  <speed>3.026714390225811</speed>
  <fix>3d</fix>
</trkpt>
<trkpt lat="40.0715205" lon="-105.2294492">
  <ele>1583.0</ele>
  <time>2026-08-28T17:56:53Z</time>
  <course>135.04</course>
  <speed>3.05</speed>
  <fix>3d</fix>
</trkpt>
<trkpt lat="40.0715129" lon="-105.22944">
  <ele>1583.18</ele>
  <time>2026-08-28T17:56:53Z</time>
  <course>136.05</course>
  <speed>3.012573650551966</speed>
  <fix>3d</fix>
</trkpt>
<trkpt lat="40.0715166" lon="-105.2294441">
  <ele>1583.0</ele>
  <time>2026-08-28T17:56:53Z</time>
  <course>135.18</course>
  <speed>3.02</speed>
  <fix>3d</fix>
</trkpt>
<trkpt lat="40.071511" lon="-105.2294375">
  <ele>1583.18</ele>
  <time>2026-08-28T17:56:53Z</time>
  <course>136.12</course>
  <speed>2.9984329240454923</speed>
  <fix>3d</fix>
</trkpt>
<trkpt lat="40.0715166" lon="-105.2294441">
  <ele>1583.0</ele>
  <time>2026-08-28T17:56:53Z</time>
  <course>135.18</course>
  <speed>3.02</speed>
  <fix>3d</fix>
</trkpt>
<trkpt lat="40.0715091" lon="-105.229435">
  <ele>1583.18</ele>
  <time>2026-08-28T17:56:53Z</time>
  <course>137.13</course>
  <speed>2.9783384629689085</speed>
  <fix>3d</fix>
</trkpt>
<trkpt lat="40.0715128" lon="-105.2294392">
  <ele>1583.0</ele>
  <time>2026-08-28T17:56:53Z</time>
  <course>135.5</course>
  <speed>2.99</speed>
  <fix>3d</fix>
</trkpt>
<trkpt lat="40.0715072" lon="-105.2294327">
  <ele>1583.18</ele>
  <time>2026-08-28T17:56:53Z</time>
  <course>138.67</course>
  <speed>2.8825162618795406</speed>
  <fix>3d</fix>
</trkpt>
<trkpt lat="40.0715128" lon="-105.2294392">
  <ele>1583.0</ele>
  <time>2026-08-28T17:56:53Z</time>
  <course>135.5</course>
  <speed>2.99</speed>
  <fix>3d</fix>
</trkpt>
<trkpt lat="40.0715053" lon="-105.2294305">
  <ele>1583.18</ele>
  <time>2026-08-28T17:56:53Z</time>
  <course>138.67</course>
  <speed>2.7687722911066555</speed>
  <fix>3d</fix>
</trkpt>
<trkpt lat="40.0715089" lon="-105.2294343">
  <ele>1583.0</ele>
  <time>2026-08-28T17:56:53Z</time>
  <course>136.78</course>
  <speed>2.9</speed>
  <fix>3d</fix>
</trkpt>
<trkpt lat="40.0715036" lon="-105.2294284">
  <ele>1583.18</ele>
  <time>2026-08-28T17:56:53Z</time>
  <course>138.68</course>
  <speed>2.6483579818445997</speed>
  <fix>3d</fix>
</trkpt>
<trkpt lat="40.0715089" lon="-105.2294343">
  <ele>1583.0</ele>
  <time>2026-08-28T17:56:53Z</time>
  <course>136.78</course>
  <speed>2.9</speed>
  <fix>3d</fix>
</trkpt>
<trkpt lat="40.0715019" lon="-105.2294263">
  <ele>1583.18</ele>
  <time>2026-08-28T17:56:53Z</time>
  <course>138.68</course>
  <speed>2.548764406531133</speed>
  <fix>3d</fix>
</trkpt>
<trkpt lat="40.0715052" lon="-105.2294298">
  <ele>1583.0</ele>
  <time>2026-08-28T17:56:53Z</time>
  <course>137.84</course>
  <speed>2.71</speed>
  <fix>3d</fix>
</trkpt>
<trkpt lat="40.0715006" lon="-105.2294247">
  <ele>1583.18</ele>
  <time>2026-08-28T17:56:53Z</time>
  <course>138.69</course>
  <speed>2.4707286374670936</speed>
  <fix>3d</fix>
</trkpt>
<trkpt lat="40.0715052" lon="-105.2294298">
  <ele>1583.0</ele>
  <time>2026-08-28T17:56:53Z</time>
  <course>137.84</course>
  <speed>2.71</speed>
  <fix>3d</fix>
</trkpt>
<trkpt lat="40.0714991" lon="-105.2294228">
  <ele>1583.18</ele>
  <time>2026-08-28T17:56:53Z</time>
  <course>138.69</course>
  <speed>2.378570999570961</speed>
  <fix>3d</fix>
</trkpt>
<trkpt lat="40.0715017" lon="-105.2294258">
  <ele>1583.0</ele>
  <time>2026-08-28T17:56:53Z</time>
  <course>137.84</course>
  <speed>2.51</speed>
  <fix>3d</fix>
</trkpt>
<trkpt lat="40.0714975" lon="-105.229421">
  <ele>1583.18</ele>
  <time>2026-08-28T17:56:53Z</time>
  <course>138.7</course>
  <speed>2.3005434140654684</speed>
  <fix>3d</fix>
</trkpt>
<trkpt lat="40.0715017" lon="-105.2294258">
  <ele>1583.0</ele>
  <time>2026-08-28T17:56:53Z</time>
  <course>137.84</course>
  <speed>2.51</speed>
  <fix>3d</fix>
</trkpt>
<trkpt lat="40.0714961" lon="-105.2294192">
  <ele>1583.18</ele>
  <time>2026-08-28T17:56:53Z</time>
  <course>138.7</course>
  <speed>2.2225210910135362</speed>
  <fix>3d</fix>
</trkpt>
<trkpt lat="40.0714985" lon="-105.2294219">
  <ele>1583.0</ele>
  <time>2026-08-28T17:56:53Z</time>
  <course>137.84</course>
  <speed>2.35</speed>
  <fix>3d</fix>
</trkpt>
<trkpt lat="40.0714946" lon="-105.2294175">
  <ele>1583.18</ele>
  <time>2026-08-28T17:56:53Z</time>
  <course>138.7</course>
  <speed>2.158633827215723</speed>
  <fix>3d</fix>
</trkpt>
<trkpt lat="40.0714985" lon="-105.2294219">
  <ele>1583.0</ele>
  <time>2026-08-28T17:56:53Z</time>
  <course>137.84</course>
  <speed>2.35</speed>
  <fix>3d</fix>
</trkpt>
<trkpt lat="40.0714932" lon="-105.2294158">
  <ele>1583.17</ele>
  <time>2026-08-28T17:56:53Z</time>
  <course>138.7</course>
  <speed>2.0947553556441862</speed>
  <fix>3d</fix>
</trkpt>
<trkpt lat="40.0714954" lon="-105.2294183">
  <ele>1583.0</ele>
  <time>2026-08-28T17:56:53Z</time>
  <course>137.84</course>
  <speed>2.21</speed>
  <fix>3d</fix>
</trkpt>
<trkpt lat="40.0714919" lon="-105.2294141">
  <ele>1583.17</ele>
  <time>2026-08-28T17:56:53Z</time>
  <course>138.71</course>
  <speed>2.0382345301755636</speed>
  <fix>3d</fix>
</trkpt>
<trkpt lat="40.0714954" lon="-105.2294183">
  <ele>1583.0</ele>
  <time>2026-08-28T17:56:53Z</time>
  <course>137.84</course>
  <speed>2.21</speed>
  <fix>3d</fix>
</trkpt>
<trkpt lat="40.0714905" lon="-105.2294125">
  <ele>1583.17</ele>
  <time>2026-08-28T17:56:53Z</time>
  <course>138.71</course>
  <speed>1.9743606560099396</speed>
  <fix>3d</fix>
</trkpt>
<trkpt lat="40.0714926" lon="-105.2294149">
  <ele>1583.0</ele>
  <time>2026-08-28T17:56:53Z</time>
  <course>137.84</course>
  <speed>2.09</speed>
  <fix>3d</fix>
</trkpt>
<trkpt lat="40.0714892" lon="-105.2294109">
  <ele>1583.17</ele>
  <time>2026-08-28T17:56:53Z</time>
  <course>138.71</course>
  <speed>1.9319679086361656</speed>
  <fix>3d</fix>
</trkpt>
<trkpt lat="40.0714926" lon="-105.2294149">
  <ele>1583.0</ele>
  <time>2026-08-28T17:56:53Z</time>
  <course>137.84</course>
  <speed>2.09</speed>
  <fix>3d</fix>
</trkpt>
<trkpt lat="40.071488" lon="-105.2294094">
  <ele>1583.17</ele>
  <time>2026-08-28T17:56:53Z</time>
  <course>138.71</course>
  <speed>1.8822327167489146</speed>
  <fix>3d</fix>
</trkpt>
<trkpt lat="40.0714898" lon="-105.2294117">
  <ele>1583.0</ele>
  <time>2026-08-28T17:56:53Z</time>
  <course>137.84</course>
  <speed>1.98</speed>
  <fix>3d</fix>
</trkpt>
<trkpt lat="40.0714865" lon="-105.2294076">
  <ele>1583.17</ele>
  <time>2026-08-28T17:56:53Z</time>
  <course>138.72</course>
  <speed>1.825705343148231</speed>
  <fix>3d</fix>
</trkpt>
<trkpt lat="40.0714898" lon="-105.2294117">
  <ele>1583.0</ele>
  <time>2026-08-28T17:56:53Z</time>
  <course>137.84</course>
  <speed>1.98</speed>
  <fix>3d</fix>
</trkpt>
<trkpt lat="40.0714853" lon="-105.2294061">
  <ele>1583.17</ele>
  <time>2026-08-28T17:56:53Z</time>
  <course>138.72</course>
  <speed>1.790111728356641</speed>
  <fix>3d</fix>
</trkpt>
<trkpt lat="40.0714873" lon="-105.2294086">
  <ele>1583.0</ele>
  <time>2026-08-28T17:56:53Z</time>
  <course>137.84</course>
  <speed>1.89</speed>
  <fix>3d</fix>
</trkpt>
<trkpt lat="40.0714841" lon="-105.2294047">
  <ele>1583.17</ele>
  <time>2026-08-28T17:56:53Z</time>
  <course>138.72</course>
  <speed>1.7404022523543228</speed>
  <fix>3d</fix>
</trkpt>
<trkpt lat="40.0714873" lon="-105.2294086">
  <ele>1583.0</ele>
  <time>2026-08-28T17:56:53Z</time>
  <course>137.84</course>
  <speed>1.89</speed>
  <fix>3d</fix>
</trkpt>
<trkpt lat="40.0714829" lon="-105.2294033">
  <ele>1583.17</ele>
  <time>2026-08-28T17:56:53Z</time>
  <course>138.72</course>
  <speed>1.7053152201279387</speed>
  <fix>3d</fix>
</trkpt>
<trkpt lat="40.0714848" lon="-105.2294058">
  <ele>1583.0</ele>
  <time>2026-08-28T17:56:53Z</time>
  <course>137.84</course>
  <speed>1.81</speed>
  <fix>3d</fix>
</trkpt>
<trkpt lat="40.0714818" lon="-105.229402">
  <ele>1583.18</ele>
  <time>2026-08-28T17:56:53Z</time>
  <course>138.72</course>
  <speed>1.6697305171793442</speed>
  <fix>3d</fix>
</trkpt>
<trkpt lat="40.0714848" lon="-105.2294058">
  <ele>1583.0</ele>
  <time>2026-08-28T17:56:53Z</time>
  <course>137.84</course>
  <speed>1.81</speed>
  <fix>3d</fix>
</trkpt>
<trkpt lat="40.0714807" lon="-105.2294006">
  <ele>1583.18</ele>
  <time>2026-08-28T17:56:53Z</time>
  <course>138.72</course>
  <speed>1.6341664541900252</speed>
  <fix>3d</fix>
</trkpt>
<trkpt lat="40.0714824" lon="-105.2294029">
  <ele>1583.0</ele>
  <time>2026-08-28T17:56:53Z</time>
  <course>137.84</course>
  <speed>1.73</speed>
  <fix>3d</fix>
</trkpt>
<trkpt lat="40.0714796" lon="-105.2293993">
  <ele>1583.17</ele>
  <time>2026-08-28T17:56:53Z</time>
  <course>138.72</course>
  <speed>1.5990622251807463</speed>
  <fix>3d</fix>
</trkpt>
<trkpt lat="40.0714824" lon="-105.2294029">
  <ele>1583.0</ele>
  <time>2026-08-28T17:56:53Z</time>
  <course>137.84</course>
  <speed>1.73</speed>
  <fix>3d</fix>
</trkpt>
<trkpt lat="40.0714785" lon="-105.2293981">
  <ele>1583.17</ele>
  <time>2026-08-28T17:56:53Z</time>
  <course>138.73</course>
  <speed>1.5634896865665602</speed>
  <fix>3d</fix>
</trkpt>
<trkpt lat="40.0714801" lon="-105.2294003">
  <ele>1583.0</ele>
  <time>2026-08-28T17:56:53Z</time>
  <course>137.84</course>
  <speed>1.67</speed>
  <fix>3d</fix>
</trkpt>
<trkpt lat="40.0714775" lon="-105.2293968">
  <ele>1583.17</ele>
  <time>2026-08-28T17:56:53Z</time>
  <course>138.73</course>
  <speed>1.5352198539622917</speed>
  <fix>3d</fix>
</trkpt>
<trkpt lat="40.0714801" lon="-105.2294003">
  <ele>1583.0</ele>
  <time>2026-08-28T17:56:53Z</time>
  <course>137.84</course>
  <speed>1.67</speed>
  <fix>3d</fix>
</trkpt>
<trkpt lat="40.0714765" lon="-105.2293956">
  <ele>1583.17</ele>
  <time>2026-08-28T17:56:53Z</time>
  <course>138.73</course>
  <speed>1.5069505632236249</speed>
  <fix>3d</fix>
</trkpt>
<trkpt lat="40.071478" lon="-105.2293976">
  <ele>1583.0</ele>
  <time>2026-08-28T17:56:53Z</time>
  <course>137.84</course>
  <speed>1.6</speed>
  <fix>3d</fix>
</trkpt>
<trkpt lat="40.0714755" lon="-105.2293944">
  <ele>1583.17</ele>
  <time>2026-08-28T17:56:53Z</time>
  <course>138.73</course>
  <speed>1.478681845428556</speed>
  <fix>3d</fix>
</trkpt>
<trkpt lat="40.071478" lon="-105.2293976">
  <ele>1583.0</ele>
  <time>2026-08-28T17:56:53Z</time>
  <course>137.84</course>
  <speed>1.6</speed>
  <fix>3d</fix>
</trkpt>
<trkpt lat="40.0714747" lon="-105.2293935">
  <ele>1583.17</ele>
  <time>2026-08-28T17:56:53Z</time>
  <course>138.73</course>
  <speed>1.4645477117526762</speed>
  <fix>3d</fix>
</trkpt>
<trkpt lat="40.0714758" lon="-105.2293952">
  <ele>1583.0</ele>
  <time>2026-08-28T17:56:53Z</time>
  <course>137.84</course>
  <speed>1.55</speed>
  <fix>3d</fix>
</trkpt>
<trkpt lat="40.0714737" lon="-105.2293923">
  <ele>1583.17</ele>
  <time>2026-08-28T17:56:53Z</time>
  <course>138.73</course>
  <speed>1.4362799170078233</speed>
  <fix>3d</fix>
</trkpt>
<trkpt lat="40.0714758" lon="-105.2293952">
  <ele>1583.0</ele>
  <time>2026-08-28T17:56:53Z</time>
  <course>137.84</course>
  <speed>1.55</speed>
  <fix>3d</fix>
</trkpt>
<trkpt lat="40.0714727" lon="-105.2293911">
  <ele>1583.17</ele>
  <time>2026-08-28T17:56:53Z</time>
  <course>138.74</course>
  <speed>1.4080127840328722</speed>
  <fix>3d</fix>
</trkpt>
<trkpt lat="40.0714739" lon="-105.2293928">
  <ele>1583.0</ele>
  <time>2026-08-28T17:56:53Z</time>
  <course>137.84</course>
  <speed>1.5</speed>
  <fix>3d</fix>
</trkpt>
<trkpt lat="40.0714717" lon="-105.22939">
  <ele>1583.17</ele>
  <time>2026-08-28T17:56:53Z</time>
  <course>138.74</course>
  <speed>1.3797463535012513</speed>
  <fix>3d</fix>
</trkpt>
<trkpt lat="40.0714739" lon="-105.2293928">
  <ele>1583.0</ele>
  <time>2026-08-28T17:56:53Z</time>
  <course>137.84</course>
  <speed>1.5</speed>
  <fix>3d</fix>
</trkpt>
<trkpt lat="40.0714708" lon="-105.2293889">
  <ele>1583.17</ele>
  <time>2026-08-28T17:56:53Z</time>
  <course>138.74</course>
  <speed>1.3656134152826707</speed>
  <fix>3d</fix>
</trkpt>
<trkpt lat="40.0714719" lon="-105.2293904">
  <ele>1583.0</ele>
  <time>2026-08-28T17:56:53Z</time>
  <course>137.84</course>
  <speed>1.45</speed>
  <fix>3d</fix>
</trkpt>
<trkpt lat="40.0714699" lon="-105.2293878">
  <ele>1583.17</ele>
  <time>2026-08-28T17:56:53Z</time>
  <course>138.74</course>
  <speed>1.3373481222179961</speed>
  <fix>3d</fix>
</trkpt>
<trkpt lat="40.0714719" lon="-105.2293904">
  <ele>1583.0</ele>
  <time>2026-08-28T17:56:53Z</time>
  <course>137.84</course>
  <speed>1.45</speed>
  <fix>3d</fix>
</trkpt>
<trkpt lat="40.0714689" lon="-105.2293867">
  <ele>1583.16</ele>
  <time>2026-08-28T17:56:53Z</time>
  <course>138.75</course>
  <speed>1.3232157798333575</speed>
  <fix>3d</fix>
</trkpt>
<trkpt lat="40.07147" lon="-105.2293881">
  <ele>1583.0</ele>
  <time>2026-08-28T17:56:53Z</time>
  <course>137.84</course>
  <speed>1.4</speed>
  <fix>3d</fix>
</trkpt>
<trkpt lat="40.071468" lon="-105.2293856">
  <ele>1583.15</ele>
  <time>2026-08-28T17:56:53Z</time>
  <course>138.75</course>
  <speed>1.2949517365523704</speed>
  <fix>3d</fix>
</trkpt>
<trkpt lat="40.07147" lon="-105.2293881">
  <ele>1583.0</ele>
  <time>2026-08-28T17:56:53Z</time>
  <course>137.84</course>
  <speed>1.4</speed>
  <fix>3d</fix>
</trkpt>
<trkpt lat="40.0714671" lon="-105.2293846">
  <ele>1583.14</ele>
  <time>2026-08-28T17:56:53Z</time>
  <course>138.75</course>
  <speed>1.2808200498118385</speed>
  <fix>3d</fix>
</trkpt>
<trkpt lat="40.0714681" lon="-105.229386">
  <ele>1583.0</ele>
  <time>2026-08-28T17:56:53Z</time>
  <course>137.84</course>
  <speed>1.36</speed>
  <fix>3d</fix>
</trkpt>
<trkpt lat="40.0714663" lon="-105.2293835">
  <ele>1583.14</ele>
  <time>2026-08-28T17:56:53Z</time>
  <course>138.76</course>
  <speed>1.2666885963013956</speed>
  <fix>3d</fix>
</trkpt>
<trkpt lat="40.0714681" lon="-105.229386">
  <ele>1583.0</ele>
  <time>2026-08-28T17:56:53Z</time>
  <course>137.84</course>
  <speed>1.36</speed>
  <fix>3d</fix>
</trkpt>
<trkpt lat="40.0714652" lon="-105.2293823">
  <ele>1583.13</ele>
  <time>2026-08-28T17:56:53Z</time>
  <course>138.76</course>
  <speed>1.2384264209067892</speed>
  <fix>3d</fix>
</trkpt>
<trkpt lat="40.0714663" lon="-105.2293839">
  <ele>1583.0</ele>
  <time>2026-08-28T17:56:53Z</time>
  <course>137.84</course>
  <speed>1.32</speed>
  <fix>3d</fix>
</trkpt>
<trkpt lat="40.0714644" lon="-105.2293813">
  <ele>1583.12</ele>
  <time>2026-08-28T17:56:53Z</time>
  <course>138.76</course>
  <speed>1.2242957159118053</speed>
  <fix>3d</fix>
</trkpt>
<trkpt lat="40.0714663" lon="-105.2293839">
  <ele>1583.0</ele>
  <time>2026-08-28T17:56:53Z</time>
  <course>137.84</course>
  <speed>1.32</speed>
  <fix>3d</fix>
</trkpt>
<trkpt lat="40.0714635" lon="-105.2293803">
  <ele>1583.11</ele>
  <time>2026-08-28T17:56:53Z</time>
  <course>138.77</course>
  <speed>1.2101652779682617</speed>
  <fix>3d</fix>
</trkpt>
<trkpt lat="40.0714646" lon="-105.2293818">
  <ele>1583.0</ele>
  <time>2026-08-28T17:56:53Z</time>
  <course>137.84</course>
  <speed>1.29</speed>
  <fix>3d</fix>
</trkpt>
<trkpt lat="40.0714627" lon="-105.2293793">
  <ele>1583.1</ele>
  <time>2026-08-28T17:56:53Z</time>
  <course>138.77</course>
  <speed>1.1960351165413163</speed>
  <fix>3d</fix>
</trkpt>
<trkpt lat="40.0714646" lon="-105.2293818">
  <ele>1583.0</ele>
  <time>2026-08-28T17:56:53Z</time>
  <course>137.84</course>
  <speed>1.29</speed>
  <fix>3d</fix>
</trkpt>
<trkpt lat="40.0714618" lon="-105.2293783">
  <ele>1583.09</ele>
  <time>2026-08-28T17:56:53Z</time>
  <course>138.77</course>
  <speed>1.1892854997854805</speed>
  <fix>3d</fix>
</trkpt>
<trkpt lat="40.0714629" lon="-105.2293798">
  <ele>1583.0</ele>
  <time>2026-08-28T17:56:53Z</time>
  <course>137.84</course>
  <speed>1.26</speed>
  <fix>3d</fix>
</trkpt>
<trkpt lat="40.071461" lon="-105.2293774">
  <ele>1583.09</ele>
  <time>2026-08-28T17:56:53Z</time>
  <course>138.78</course>
  <speed>1.175159563633807</speed>
  <fix>3d</fix>
</trkpt>
<trkpt lat="40.0714629" lon="-105.2293798">
  <ele>1583.0</ele>
  <time>2026-08-28T17:56:53Z</time>
  <course>137.84</course>
  <speed>1.26</speed>
  <fix>3d</fix>
</trkpt>
<trkpt lat="40.0714602" lon="-105.2293764">
  <ele>1583.09</ele>
  <time>2026-08-28T17:56:53Z</time>
  <course>138.78</course>
  <speed>1.175159563633807</speed>
  <fix>3d</fix>
</trkpt>
<trkpt lat="40.0714612" lon="-105.2293779">
  <ele>1583.0</ele>
  <time>2026-08-28T17:56:53Z</time>
  <course>137.84</course>
  <speed>1.24</speed>
  <fix>3d</fix>
</trkpt>
<trkpt lat="40.0714594" lon="-105.2293755">
  <ele>1583.09</ele>
  <time>2026-08-28T17:56:53Z</time>
  <course>138.78</course>
  <speed>1.1610340218959994</speed>
  <fix>3d</fix>
</trkpt>
<trkpt lat="40.0714612" lon="-105.2293779">
  <ele>1583.0</ele>
  <time>2026-08-28T17:56:53Z</time>
  <course>137.84</course>
  <speed>1.24</speed>
  <fix>3d</fix>
</trkpt>
<trkpt lat="39.655741" lon="-104.1383097">
  <ele>1566.58</ele>
  <time>2026-08-28T17:56:53Z</time>
  <course>0.0</course>
  <speed>0.0</speed>
  <fix>3d</fix>
</trkpt>
<trkpt lat="40.0713749" lon="-105.229789">
  <ele>1583.0</ele>
  <time>2026-08-28T17:56:53Z</time>
  <course>0.0</course>
  <speed>0.0</speed>
  <fix>3d</fix>
</trkpt>
<trkpt lat="40.0713749" lon="-105.229789">
  <ele>1583.0</ele>
  <time>2026-08-28T17:56:53Z</time>
  <course>238.36</course>
  <speed>0.0</speed>
  <fix>3d</fix>
</trkpt>
<trkpt lat="40.0713749" lon="-105.229789">
  <ele>1583.0</ele>
  <time>2026-08-28T17:56:53Z</time>
  <course>0.0</course>
  <speed>0.0</speed>
  <fix>3d</fix>
</trkpt>
<trkpt lat="40.0713749" lon="-105.229789">
  <ele>1583.0</ele>
  <time>2026-08-28T17:56:53Z</time>
  <course>238.44</course>
  <speed>0.0</speed>
  <fix>3d</fix>
</trkpt>
<trkpt lat="40.0713749" lon="-105.229789">
  <ele>1583.0</ele>
  <time>2026-08-28T17:56:53Z</time>
  <course>0.0</course>
  <speed>0.0</speed>
  <fix>3d</fix>
</trkpt>
<trkpt lat="40.0713749" lon="-105.229789">
  <ele>1583.0</ele>
  <time>2026-08-28T17:56:53Z</time>
  <course>238.64</course>
  <speed>0.0</speed>
  <fix>3d</fix>
</trkpt>
<trkpt lat="40.0713749" lon="-105.229789">
  <ele>1583.0</ele>
  <time>2026-08-28T17:56:53Z</time>
  <course>0.0</course>
  <speed>0.0</speed>
  <fix>3d</fix>
</trkpt>
<trkpt lat="40.0713749" lon="-105.229789">
  <ele>1583.0</ele>
  <time>2026-08-28T17:56:53Z</time>
  <course>238.93</course>
  <speed>0.0</speed>
  <fix>3d</fix>
</trkpt>
<trkpt lat="40.0713749" lon="-105.229789">
  <ele>1583.0</ele>
  <time>2026-08-28T17:56:53Z</time>
  <course>0.0</course>
  <speed>0.0</speed>
  <fix>3d</fix>
</trkpt>
<trkpt lat="40.0713749" lon="-105.229789">
  <ele>1583.0</ele>
  <time>2026-08-28T17:56:53Z</time>
  <course>239.26</course>
  <speed>0.0</speed>
  <fix>3d</fix>
</trkpt>
<trkpt lat="40.0713749" lon="-105.229789">
  <ele>1583.0</ele>
  <time>2026-08-28T17:56:53Z</time>
  <course>0.0</course>
  <speed>0.0</speed>
  <fix>3d</fix>
</trkpt>
<trkpt lat="40.0713749" lon="-105.229789">
  <ele>1583.0</ele>
  <time>2026-08-28T17:56:53Z</time>
  <course>239.61</course>
  <speed>0.0</speed>
  <fix>3d</fix>
</trkpt>
<trkpt lat="40.0713749" lon="-105.229789">
  <ele>1583.0</ele>
  <time>2026-08-28T17:56:53Z</time>
  <course>0.0</course>
  <speed>0.0</speed>
  <fix>3d</fix>
</trkpt>
<trkpt lat="40.0713749" lon="-105.229789">
  <ele>1583.0</ele>
  <time>2026-08-28T17:56:53Z</time>
  <course>239.96</course>
  <speed>0.0</speed>
  <fix>3d</fix>
</trkpt>
<trkpt lat="40.0713749" lon="-105.229789">
  <ele>1583.0</ele>
  <time>2026-08-28T17:56:53Z</time>
  <course>0.0</course>
  <speed>0.0</speed>
  <fix>3d</fix>
</trkpt>
<trkpt lat="40.0713749" lon="-105.229789">
  <ele>1583.0</ele>
  <time>2026-08-28T17:56:53Z</time>
  <course>240.29</course>
  <speed>0.0</speed>
  <fix>3d</fix>
</trkpt>
<trkpt lat="40.0713749" lon="-105.229789">
  <ele>1583.0</ele>
  <time>2026-08-28T17:56:53Z</time>
  <course>0.0</course>
  <speed>0.0</speed>
  <fix>3d</fix>
</trkpt>
<trkpt lat="40.0713749" lon="-105.229789">
  <ele>1583.0</ele>
  <time>2026-08-28T17:56:53Z</time>
  <course>240.61</course>
  <speed>0.0</speed>
  <fix>3d</fix>
</trkpt>
<trkpt lat="40.0713749" lon="-105.229789">
  <ele>1583.0</ele>
  <time>2026-08-28T17:56:53Z</time>
  <course>0.0</course>
  <speed>0.0</speed>
  <fix>3d</fix>
</trkpt>
<trkpt lat="40.0713749" lon="-105.229789">
  <ele>1583.0</ele>
  <time>2026-08-28T17:56:53Z</time>
  <course>240.92</course>
  <speed>0.0</speed>
  <fix>3d</fix>
</trkpt>
<trkpt lat="40.0713749" lon="-105.229789">
  <ele>1583.0</ele>
  <time>2026-08-28T17:56:53Z</time>
  <course>0.0</course>
  <speed>0.0</speed>
  <fix>3d</fix>
</trkpt>
<trkpt lat="40.0713749" lon="-105.229789">
  <ele>1583.0</ele>
  <time>2026-08-28T17:56:53Z</time>
  <course>241.21</course>
  <speed>0.0</speed>
  <fix>3d</fix>
</trkpt>
<trkpt lat="40.0713749" lon="-105.229789">
  <ele>1583.0</ele>
  <time>2026-08-28T17:56:53Z</time>
  <course>0.0</course>
  <speed>0.0</speed>
  <fix>3d</fix>
</trkpt>
<trkpt lat="40.0713749" lon="-105.229789">
  <ele>1583.0</ele>
  <time>2026-08-28T17:56:53Z</time>
  <course>241.49</course>
  <speed>0.0</speed>
  <fix>3d</fix>
</trkpt>
<trkpt lat="40.0713749" lon="-105.229789">
  <ele>1583.0</ele>
  <time>2026-08-28T17:56:53Z</time>
  <course>0.0</course>
  <speed>0.0</speed>
  <fix>3d</fix>
</trkpt>
<trkpt lat="40.0713749" lon="-105.229789">
  <ele>1583.0</ele>
  <time>2026-08-28T17:56:53Z</time>
  <course>241.77</course>
  <speed>0.0</speed>
  <fix>3d</fix>
</trkpt>
<trkpt lat="40.0713749" lon="-105.229789">
  <ele>1583.0</ele>
  <time>2026-08-28T17:56:53Z</time>
  <course>0.0</course>
  <speed>0.0</speed>
  <fix>3d</fix>
</trkpt>
<trkpt lat="40.0713749" lon="-105.229789">
  <ele>1583.0</ele>
  <time>2026-08-28T17:56:53Z</time>
  <course>242.03</course>
  <speed>0.0</speed>
  <fix>3d</fix>
</trkpt>
<trkpt lat="40.0713749" lon="-105.229789">
  <ele>1583.0</ele>
  <time>2026-08-28T17:56:53Z</time>
  <course>0.0</course>
  <speed>0.0</speed>
  <fix>3d</fix>
</trkpt>
<trkpt lat="40.0713749" lon="-105.229789">
  <ele>1583.0</ele>
  <time>2026-08-28T17:56:53Z</time>
  <course>242.29</course>
  <speed>0.0</speed>
  <fix>3d</fix>
</trkpt>
<trkpt lat="40.0713749" lon="-105.229789">
  <ele>1583.0</ele>
  <time>2026-08-28T17:56:53Z</time>
  <course>0.0</course>
  <speed>0.0</speed>
  <fix>3d</fix>
</trkpt>
<trkpt lat="40.0713749" lon="-105.229789">
  <ele>1583.0</ele>
  <time>2026-08-28T17:56:53Z</time>
  <course>242.54</course>
  <speed>0.0</speed>
  <fix>3d</fix>
</trkpt>
<trkpt lat="40.0713749" lon="-105.229789">
  <ele>1583.0</ele>
  <time>2026-08-28T17:56:53Z</time>
  <course>0.0</course>
  <speed>0.0</speed>
  <fix>3d</fix>
</trkpt>
<trkpt lat="40.0713749" lon="-105.229789">
  <ele>1583.0</ele>
  <time>2026-08-28T17:56:53Z</time>
  <course>242.79</course>
  <speed>0.0</speed>
  <fix>3d</fix>
</trkpt>
<trkpt lat="40.0713749" lon="-105.229789">
  <ele>1583.0</ele>
  <time>2026-08-28T17:56:53Z</time>
  <course>0.0</course>
  <speed>0.0</speed>
  <fix>3d</fix>
</trkpt>
<trkpt lat="40.0713749" lon="-105.229789">
  <ele>1583.0</ele>
  <time>2026-08-28T17:56:54Z</time>
  <course>243.02</course>
  <speed>0.0</speed>
  <fix>3d</fix>
</trkpt>
<trkpt lat="40.0713749" lon="-105.229789">
  <ele>1583.0</ele>
  <time>2026-08-28T17:56:54Z</time>
  <course>0.0</course>
  <speed>0.0</speed>
  <fix>3d</fix>
</trkpt>
<trkpt lat="40.0713749" lon="-105.229789">
  <ele>1583.0</ele>
  <time>2026-08-28T17:56:54Z</time>
  <course>243.25</course>
  <speed>0.0</speed>
  <fix>3d</fix>
</trkpt>
<trkpt lat="40.0713749" lon="-105.229789">
  <ele>1583.0</ele>
  <time>2026-08-28T17:56:54Z</time>
  <course>0.0</course>
  <speed>0.0</speed>
  <fix>3d</fix>
</trkpt>
<trkpt lat="40.0713749" lon="-105.229789">
  <ele>1583.0</ele>
  <time>2026-08-28T17:56:54Z</time>
  <course>243.47</course>
  <speed>0.0</speed>
  <fix>3d</fix>
</trkpt>
<trkpt lat="40.0713749" lon="-105.229789">
  <ele>1583.0</ele>
  <time>2026-08-28T17:56:54Z</time>
  <course>0.0</course>
  <speed>0.0</speed>
  <fix>3d</fix>
</trkpt>
<trkpt lat="40.0713749" lon="-105.229789">
  <ele>1583.0</ele>
  <time>2026-08-28T17:56:54Z</time>
  <course>243.68</course>
  <speed>0.0</speed>
  <fix>3d</fix>
</trkpt>
<trkpt lat="40.0713749" lon="-105.229789">
  <ele>1583.0</ele>
  <time>2026-08-28T17:56:54Z</time>
  <course>0.0</course>
  <speed>0.0</speed>
  <fix>3d</fix>
</trkpt>
<trkpt lat="40.0713749" lon="-105.229789">
  <ele>1583.0</ele>
  <time>2026-08-28T17:56:54Z</time>
  <course>243.89</course>
  <speed>0.0</speed>
  <fix>3d</fix>
</trkpt>
<trkpt lat="40.0713749" lon="-105.229789">
  <ele>1583.0</ele>
  <time>2026-08-28T17:56:54Z</time>
  <course>0.0</course>
  <speed>0.0</speed>
  <fix>3d</fix>
</trkpt>
<trkpt lat="40.0713749" lon="-105.229789">
  <ele>1583.0</ele>
  <time>2026-08-28T17:56:54Z</time>
  <course>244.09</course>
  <speed>0.0</speed>
  <fix>3d</fix>
</trkpt>
<trkpt lat="40.0713749" lon="-105.229789">
  <ele>1583.0</ele>
  <time>2026-08-28T17:56:54Z</time>
  <course>0.0</course>
  <speed>0.0</speed>
  <fix>3d</fix>
</trkpt>
<trkpt lat="40.0713749" lon="-105.229789">
  <ele>1583.0</ele>
  <time>2026-08-28T17:56:54Z</time>
  <course>244.28</course>
  <speed>0.0</speed>
  <fix>3d</fix>
</trkpt>
<trkpt lat="40.0713749" lon="-105.229789">
  <ele>1583.0</ele>
  <time>2026-08-28T17:56:54Z</time>
  <course>0.0</course>
  <speed>0.0</speed>
  <fix>3d</fix>
</trkpt>
<trkpt lat="40.0713749" lon="-105.229789">
  <ele>1583.0</ele>
  <time>2026-08-28T17:56:54Z</time>
  <course>244.46</course>
  <speed>0.0</speed>
  <fix>3d</fix>
</trkpt>
<trkpt lat="40.0713749" lon="-105.229789">
  <ele>1583.0</ele>
  <time>2026-08-28T17:56:54Z</time>
  <course>0.0</course>
  <speed>0.0</speed>
  <fix>3d</fix>
</trkpt>
<trkpt lat="40.0713749" lon="-105.229789">
  <ele>1583.0</ele>
  <time>2026-08-28T17:56:54Z</time>
  <course>244.64</course>
  <speed>0.0</speed>
  <fix>3d</fix>
</trkpt>
<trkpt lat="40.0713749" lon="-105.229789">
  <ele>1583.0</ele>
  <time>2026-08-28T17:56:54Z</time>
  <course>0.0</course>
  <speed>0.0</speed>
  <fix>3d</fix>
</trkpt>
<trkpt lat="40.0713749" lon="-105.229789">
  <ele>1583.0</ele>
  <time>2026-08-28T17:56:54Z</time>
  <course>244.81</course>
  <speed>0.0</speed>
  <fix>3d</fix>
</trkpt>
<trkpt lat="40.0713749" lon="-105.229789">
  <ele>1583.0</ele>
  <time>2026-08-28T17:56:54Z</time>
  <course>0.0</course>
  <speed>0.0</speed>
  <fix>3d</fix>
</trkpt>
<trkpt lat="40.0713749" lon="-105.229789">
  <ele>1583.0</ele>
  <time>2026-08-28T17:56:54Z</time>
  <course>244.97</course>
  <speed>0.0</speed>
  <fix>3d</fix>
</trkpt>
<trkpt lat="40.0713749" lon="-105.229789">
  <ele>1583.0</ele>
  <time>2026-08-28T17:56:54Z</time>
  <course>0.0</course>
  <speed>0.0</speed>
  <fix>3d</fix>
</trkpt>
<trkpt lat="40.0713749" lon="-105.229789">
  <ele>1583.0</ele>
  <time>2026-08-28T17:56:54Z</time>
  <course>245.13</course>
  <speed>0.0</speed>
  <fix>3d</fix>
</trkpt>
<trkpt lat="40.0713749" lon="-105.229789">
  <ele>1583.0</ele>
  <time>2026-08-28T17:56:54Z</time>
  <course>0.0</course>
  <speed>0.0</speed>
  <fix>3d</fix>
</trkpt>
<trkpt lat="40.0713749" lon="-105.229789">
  <ele>1583.0</ele>
  <time>2026-08-28T17:56:54Z</time>
  <course>245.29</course>
  <speed>0.0</speed>
  <fix>3d</fix>
</trkpt>
<trkpt lat="40.0713749" lon="-105.229789">
  <ele>1583.0</ele>
  <time>2026-08-28T17:56:54Z</time>
  <course>0.0</course>
  <speed>0.0</speed>
  <fix>3d</fix>
</trkpt>
<trkpt lat="40.0713749" lon="-105.229789">
  <ele>1583.0</ele>
  <time>2026-08-28T17:56:54Z</time>
  <course>245.43</course>
  <speed>0.0</speed>
  <fix>3d</fix>
</trkpt>
<trkpt lat="40.0713749" lon="-105.229789">
  <ele>1583.0</ele>
  <time>2026-08-28T17:56:54Z</time>
  <course>0.0</course>
  <speed>0.0</speed>
  <fix>3d</fix>
</trkpt>
<trkpt lat="40.0713749" lon="-105.229789">
  <ele>1583.0</ele>
  <time>2026-08-28T17:56:54Z</time>
  <course>245.57</course>
  <speed>0.0</speed>
  <fix>3d</fix>
</trkpt>
<trkpt lat="40.0713749" lon="-105.229789">
  <ele>1583.0</ele>
  <time>2026-08-28T17:56:54Z</time>
  <course>0.0</course>
  <speed>0.0</speed>
  <fix>3d</fix>
</trkpt>
<trkpt lat="40.0713749" lon="-105.229789">
  <ele>1583.0</ele>
  <time>2026-08-28T17:56:54Z</time>
  <course>245.71</course>
  <speed>0.0</speed>
  <fix>3d</fix>
</trkpt>
<trkpt lat="40.0713749" lon="-105.229789">
  <ele>1583.0</ele>
  <time>2026-08-28T17:56:54Z</time>
  <course>0.0</course>
  <speed>0.0</speed>
  <fix>3d</fix>
</trkpt>
<trkpt lat="40.0713749" lon="-105.229789">
  <ele>1583.0</ele>
  <time>2026-08-28T17:56:54Z</time>
  <course>245.84</course>
  <speed>0.0</speed>
  <fix>3d</fix>
</trkpt>
<trkpt lat="40.0713749" lon="-105.229789">
  <ele>1583.0</ele>
  <time>2026-08-28T17:56:54Z</time>
  <course>0.0</course>
  <speed>0.0</speed>
  <fix>3d</fix>
</trkpt>
<trkpt lat="40.0713749" lon="-105.229789">
  <ele>1583.0</ele>
  <time>2026-08-28T17:56:54Z</time>
  <course>245.96</course>
  <speed>0.0</speed>
  <fix>3d</fix>
</trkpt>
<trkpt lat="40.0713749" lon="-105.229789">
  <ele>1583.0</ele>
  <time>2026-08-28T17:56:54Z</time>
  <course>0.0</course>
  <speed>0.0</speed>
  <fix>3d</fix>
</trkpt>
<trkpt lat="40.0713749" lon="-105.229789">
  <ele>1583.0</ele>
  <time>2026-08-28T17:56:54Z</time>
  <course>246.08</course>
  <speed>0.0</speed>
  <fix>3d</fix>
</trkpt>
<trkpt lat="40.0713749" lon="-105.229789">
  <ele>1583.0</ele>
  <time>2026-08-28T17:56:54Z</time>
  <course>0.0</course>
  <speed>0.0</speed>
  <fix>3d</fix>
</trkpt>
<trkpt lat="40.0713749" lon="-105.229789">
  <ele>1583.0</ele>
  <time>2026-08-28T17:56:54Z</time>
  <course>246.19</course>
  <speed>0.0</speed>
  <fix>3d</fix>
</trkpt>
<trkpt lat="40.0713749" lon="-105.229789">
  <ele>1583.0</ele>
  <time>2026-08-28T17:56:54Z</time>
  <course>0.0</course>
  <speed>0.0</speed>
  <fix>3d</fix>
</trkpt>
<trkpt lat="40.0713749" lon="-105.229789">
  <ele>1583.0</ele>
  <time>2026-08-28T17:56:54Z</time>
  <course>246.3</course>
  <speed>0.0</speed>
  <fix>3d</fix>
</trkpt>
<trkpt lat="40.0713749" lon="-105.229789">
  <ele>1583.0</ele>
  <time>2026-08-28T17:56:54Z</time>
  <course>0.0</course>
  <speed>0.0</speed>
  <fix>3d</fix>
</trkpt>
<trkpt lat="40.0713749" lon="-105.229789">
  <ele>1583.0</ele>
  <time>2026-08-28T17:56:54Z</time>
  <course>246.41</course>
  <speed>0.0</speed>
  <fix>3d</fix>
</trkpt>
<trkpt lat="40.0713749" lon="-105.229789">
  <ele>1583.0</ele>
  <time>2026-08-28T17:56:54Z</time>
  <course>0.0</course>
  <speed>0.0</speed>
  <fix>3d</fix>
</trkpt>
<trkpt lat="40.0713749" lon="-105.229789">
  <ele>1583.0</ele>
  <time>2026-08-28T17:56:54Z</time>
  <course>246.51</course>
  <speed>0.0</speed>
  <fix>3d</fix>
</trkpt>
<trkpt lat="40.0713749" lon="-105.229789">
  <ele>1583.0</ele>
  <time>2026-08-28T17:56:54Z</time>
  <course>0.0</course>
  <speed>0.0</speed>
  <fix>3d</fix>
</trkpt>
<trkpt lat="40.0713749" lon="-105.229789">
  <ele>1583.0</ele>
  <time>2026-08-28T17:56:54Z</time>
  <course>246.6</course>
  <speed>0.0</speed>
  <fix>3d</fix>
</trkpt>
<trkpt lat="40.0713749" lon="-105.229789">
  <ele>1583.0</ele>
  <time>2026-08-28T17:56:54Z</time>
  <course>0.0</course>
  <speed>0.0</speed>
  <fix>3d</fix>
</trkpt>
<trkpt lat="40.0713749" lon="-105.229789">
  <ele>1583.0</ele>
  <time>2026-08-28T17:56:54Z</time>
  <course>246.7</course>
  <speed>0.0</speed>
  <fix>3d</fix>
</trkpt>
<trkpt lat="40.0713749" lon="-105.229789">
  <ele>1583.0</ele>
  <time>2026-08-28T17:56:54Z</time>
  <course>0.0</course>
  <speed>0.0</speed>
  <fix>3d</fix>
</trkpt>
<trkpt lat="40.0713749" lon="-105.229789">
  <ele>1583.0</ele>
  <time>2026-08-28T17:56:54Z</time>
  <course>246.78</course>
  <speed>0.0</speed>
  <fix>3d</fix>
</trkpt>
<trkpt lat="40.0713749" lon="-105.229789">
  <ele>1583.0</ele>
  <time>2026-08-28T17:56:54Z</time>
  <course>0.0</course>
  <speed>0.0</speed>
  <fix>3d</fix>
</trkpt>
<trkpt lat="40.0713749" lon="-105.229789">
  <ele>1583.0</ele>
  <time>2026-08-28T17:56:54Z</time>
  <course>246.87</course>
  <speed>0.0</speed>
  <fix>3d</fix>
</trkpt>
<trkpt lat="40.0713749" lon="-105.229789">
  <ele>1583.0</ele>
  <time>2026-08-28T17:56:54Z</time>
  <course>0.0</course>
  <speed>0.0</speed>
  <fix>3d</fix>
</trkpt>
<trkpt lat="40.0713749" lon="-105.229789">
  <ele>1583.0</ele>
  <time>2026-08-28T17:56:54Z</time>
  <course>246.95</course>
  <speed>0.0</speed>
  <fix>3d</fix>
</trkpt>
<trkpt lat="40.0713749" lon="-105.229789">
  <ele>1583.0</ele>
  <time>2026-08-28T17:56:54Z</time>
  <course>0.0</course>
  <speed>0.0</speed>
  <fix>3d</fix>
</trkpt>
<trkpt lat="40.0713749" lon="-105.229789">
  <ele>1583.0</ele>
  <time>2026-08-28T17:56:54Z</time>
  <course>247.02</course>
  <speed>0.0</speed>
  <fix>3d</fix>
</trkpt>
<trkpt lat="40.0713749" lon="-105.229789">
  <ele>1583.0</ele>
  <time>2026-08-28T17:56:54Z</time>
  <course>0.0</course>
  <speed>0.0</speed>
  <fix>3d</fix>
</trkpt>
<trkpt lat="40.0713749" lon="-105.229789">
  <ele>1583.0</ele>
  <time>2026-08-28T17:56:54Z</time>
  <course>247.1</course>
  <speed>0.0</speed>
  <fix>3d</fix>
</trkpt>
<trkpt lat="40.0713749" lon="-105.229789">
  <ele>1583.0</ele>
  <time>2026-08-28T17:56:54Z</time>
  <course>0.0</course>
  <speed>0.0</speed>
  <fix>3d</fix>
</trkpt>
<trkpt lat="40.0713749" lon="-105.229789">
  <ele>1583.0</ele>
  <time>2026-08-28T17:56:54Z</time>
  <course>247.17</course>
  <speed>0.0</speed>
  <fix>3d</fix>
</trkpt>
<trkpt lat="40.0713749" lon="-105.229789">
  <ele>1583.0</ele>
  <time>2026-08-28T17:56:54Z</time>
  <course>0.0</course>
  <speed>0.0</speed>
  <fix>3d</fix>
</trkpt>
<trkpt lat="40.0713749" lon="-105.229789">
  <ele>1583.0</ele>
  <time>2026-08-28T17:56:54Z</time>
  <course>247.24</course>
  <speed>0.0</speed>
  <fix>3d</fix>
</trkpt>
<trkpt lat="40.0713749" lon="-105.229789">
  <ele>1583.0</ele>
  <time>2026-08-28T17:56:54Z</time>
  <course>0.0</course>
  <speed>0.0</speed>
  <fix>3d</fix>
</trkpt>
<trkpt lat="40.0713749" lon="-105.229789">
  <ele>1583.0</ele>
  <time>2026-08-28T17:56:54Z</time>
  <course>247.3</course>
  <speed>0.0</speed>
  <fix>3d</fix>
</trkpt>
<trkpt lat="40.0713749" lon="-105.229789">
  <ele>1583.0</ele>
  <time>2026-08-28T17:56:54Z</time>
  <course>0.0</course>
  <speed>0.0</speed>
  <fix>3d</fix>
</trkpt>
<trkpt lat="40.0713749" lon="-105.229789">
  <ele>1583.0</ele>
  <time>2026-08-28T17:56:54Z</time>
  <course>247.36</course>
  <speed>0.0</speed>
  <fix>3d</fix>
</trkpt>
<trkpt lat="40.0713749" lon="-105.229789">
  <ele>1583.0</ele>
  <time>2026-08-28T17:56:54Z</time>
  <course>0.0</course>
  <speed>0.0</speed>
  <fix>3d</fix>
</trkpt>
<trkpt lat="40.0713749" lon="-105.229789">
  <ele>1583.0</ele>
  <time>2026-08-28T17:56:54Z</time>
  <course>247.42</course>
  <speed>0.0</speed>
  <fix>3d</fix>
</trkpt>
<trkpt lat="40.0713749" lon="-105.229789">
  <ele>1583.0</ele>
  <time>2026-08-28T17:56:54Z</time>
  <course>0.0</course>
  <speed>0.0</speed>
  <fix>3d</fix>
</trkpt>
<trkpt lat="40.0713749" lon="-105.229789">
  <ele>1583.0</ele>
  <time>2026-08-28T17:56:54Z</time>
  <course>247.47</course>
  <speed>0.0</speed>
  <fix>3d</fix>
</trkpt>
<trkpt lat="40.0713749" lon="-105.229789">
  <ele>1583.0</ele>
  <time>2026-08-28T17:56:54Z</time>
  <course>0.0</course>
  <speed>0.0</speed>
  <fix>3d</fix>
</trkpt>
<trkpt lat="40.0713749" lon="-105.229789">
  <ele>1583.0</ele>
  <time>2026-08-28T17:56:54Z</time>
  <course>247.53</course>
  <speed>0.0</speed>
  <fix>3d</fix>
</trkpt>
<trkpt lat="40.0713749" lon="-105.229789">
  <ele>1583.0</ele>
  <time>2026-08-28T17:56:54Z</time>
  <course>0.0</course>
  <speed>0.0</speed>
  <fix>3d</fix>
</trkpt>
<trkpt lat="40.0713749" lon="-105.229789">
  <ele>1583.0</ele>
  <time>2026-08-28T17:56:54Z</time>
  <course>247.58</course>
  <speed>0.0</speed>
  <fix>3d</fix>
</trkpt>
<trkpt lat="40.0713749" lon="-105.229789">
  <ele>1583.0</ele>
  <time>2026-08-28T17:56:54Z</time>
  <course>0.0</course>
  <speed>0.0</speed>
  <fix>3d</fix>
</trkpt>
<trkpt lat="40.0713749" lon="-105.229789">
  <ele>1583.0</ele>
  <time>2026-08-28T17:56:54Z</time>
  <course>247.63</course>
  <speed>0.0</speed>
  <fix>3d</fix>
</trkpt>
<trkpt lat="40.0713749" lon="-105.229789">
  <ele>1583.0</ele>
  <time>2026-08-28T17:56:54Z</time>
  <course>0.0</course>
  <speed>0.0</speed>
  <fix>3d</fix>
</trkpt>
<trkpt lat="40.0713749" lon="-105.229789">
  <ele>1583.0</ele>
  <time>2026-08-28T17:56:54Z</time>
  <course>247.67</course>
  <speed>0.0</speed>
  <fix>3d</fix>
</trkpt>
<trkpt lat="40.0713749" lon="-105.229789">
  <ele>1583.0</ele>
  <time>2026-08-28T17:56:54Z</time>
  <course>0.0</course>
  <speed>0.0</speed>
  <fix>3d</fix>
</trkpt>
<trkpt lat="40.0713749" lon="-105.229789">
  <ele>1583.0</ele>
  <time>2026-08-28T17:56:54Z</time>
  <course>247.72</course>
  <speed>0.0</speed>
  <fix>3d</fix>
</trkpt>
<trkpt lat="40.0713749" lon="-105.229789">
  <ele>1583.0</ele>
  <time>2026-08-28T17:56:54Z</time>
  <course>0.0</course>
  <speed>0.0</speed>
  <fix>3d</fix>
</trkpt>
<trkpt lat="40.0713749" lon="-105.229789">
  <ele>1583.0</ele>
  <time>2026-08-28T17:56:54Z</time>
  <course>247.76</course>
  <speed>0.0</speed>
  <fix>3d</fix>
</trkpt>
<trkpt lat="40.0713749" lon="-105.229789">
  <ele>1583.0</ele>
  <time>2026-08-28T17:56:54Z</time>
  <course>0.0</course>
  <speed>0.0</speed>
  <fix>3d</fix>
</trkpt>
<trkpt lat="40.0713749" lon="-105.229789">
  <ele>1583.0</ele>
  <time>2026-08-28T17:56:54Z</time>
  <course>247.8</course>
  <speed>0.0</speed>
  <fix>3d</fix>
</trkpt>
<trkpt lat="40.0713749" lon="-105.229789">
  <ele>1583.0</ele>
  <time>2026-08-28T17:56:54Z</time>
  <course>0.0</course>
  <speed>0.0</speed>
  <fix>3d</fix>
</trkpt>
<trkpt lat="40.0713749" lon="-105.229789">
  <ele>1583.0</ele>
  <time>2026-08-28T17:56:54Z</time>
  <course>247.83</course>
  <speed>0.0</speed>
  <fix>3d</fix>
</trkpt>
<trkpt lat="40.0713749" lon="-105.229789">
  <ele>1583.0</ele>
  <time>2026-08-28T17:56:54Z</time>
  <course>0.0</course>
  <speed>0.0</speed>
  <fix>3d</fix>
</trkpt>
<trkpt lat="40.0713749" lon="-105.229789">
  <ele>1583.0</ele>
  <time>2026-08-28T17:56:54Z</time>
  <course>247.87</course>
  <speed>0.0</speed>
  <fix>3d</fix>
</trkpt>
<trkpt lat="40.0713749" lon="-105.229789">
  <ele>1583.0</ele>
  <time>2026-08-28T17:56:54Z</time>
  <course>0.0</course>
  <speed>0.0</speed>
  <fix>3d</fix>
</trkpt>
<trkpt lat="40.0713749" lon="-105.229789">
  <ele>1583.0</ele>
  <time>2026-08-28T17:56:54Z</time>
  <course>247.9</course>
  <speed>0.0</speed>
  <fix>3d</fix>
</trkpt>
<trkpt lat="40.0713749" lon="-105.229789">
  <ele>1583.0</ele>
  <time>2026-08-28T17:56:54Z</time>
  <course>0.0</course>
  <speed>0.0</speed>
  <fix>3d</fix>
</trkpt>
<trkpt lat="40.0713749" lon="-105.229789">
  <ele>1583.0</ele>
  <time>2026-08-28T17:56:54Z</time>
  <course>247.94</course>
  <speed>0.0</speed>
  <fix>3d</fix>
</trkpt>
<trkpt lat="40.0713749" lon="-105.229789">
  <ele>1583.0</ele>
  <time>2026-08-28T17:56:54Z</time>
  <course>0.0</course>
  <speed>0.0</speed>
  <fix>3d</fix>
</trkpt>
<trkpt lat="40.0713749" lon="-105.229789">
  <ele>1583.0</ele>
  <time>2026-08-28T17:56:54Z</time>
  <course>247.97</course>
  <speed>0.0</speed>
  <fix>3d</fix>
</trkpt>
<trkpt lat="40.0713749" lon="-105.229789">
  <ele>1583.0</ele>
  <time>2026-08-28T17:56:54Z</time>
  <course>0.0</course>
  <speed>0.0</speed>
  <fix>3d</fix>
</trkpt>
<trkpt lat="40.0713749" lon="-105.229789">
  <ele>1583.0</ele>
  <time>2026-08-28T17:56:54Z</time>
  <course>248.0</course>
  <speed>0.0</speed>
  <fix>3d</fix>
</trkpt>
<trkpt lat="40.0713749" lon="-105.229789">
  <ele>1583.0</ele>
  <time>2026-08-28T17:56:54Z</time>
  <course>0.0</course>
  <speed>0.0</speed>
  <fix>3d</fix>
</trkpt>
<trkpt lat="40.0713749" lon="-105.229789">
  <ele>1583.0</ele>
  <time>2026-08-28T17:56:54Z</time>
  <course>248.02</course>
  <speed>0.0</speed>
  <fix>3d</fix>
</trkpt>
<trkpt lat="40.0713749" lon="-105.229789">
  <ele>1583.0</ele>
  <time>2026-08-28T17:56:54Z</time>
  <course>0.0</course>
  <speed>0.0</speed>
  <fix>3d</fix>
</trkpt>
<trkpt lat="40.0713749" lon="-105.229789">
  <ele>1583.0</ele>
  <time>2026-08-28T17:56:54Z</time>
  <course>248.05</course>
  <speed>0.0</speed>
  <fix>3d</fix>
</trkpt>
<trkpt lat="40.0713749" lon="-105.229789">
  <ele>1583.0</ele>
  <time>2026-08-28T17:56:54Z</time>
  <course>0.0</course>
  <speed>0.0</speed>
  <fix>3d</fix>
</trkpt>
<trkpt lat="40.0713749" lon="-105.229789">
  <ele>1583.0</ele>
  <time>2026-08-28T17:56:54Z</time>
  <course>248.08</course>
  <speed>0.0</speed>
  <fix>3d</fix>
</trkpt>
<trkpt lat="40.0713749" lon="-105.229789">
  <ele>1583.0</ele>
  <time>2026-08-28T17:56:54Z</time>
  <course>0.0</course>
  <speed>0.0</speed>
  <fix>3d</fix>
</trkpt>
<trkpt lat="40.0713749" lon="-105.229789">
  <ele>1583.0</ele>
  <time>2026-08-28T17:56:54Z</time>
  <course>248.1</course>
  <speed>0.0</speed>
  <fix>3d</fix>
</trkpt>
<trkpt lat="40.0713749" lon="-105.229789">
  <ele>1583.0</ele>
  <time>2026-08-28T17:56:54Z</time>
  <course>0.0</course>
  <speed>0.0</speed>
  <fix>3d</fix>
</trkpt>
<trkpt lat="40.0713749" lon="-105.229789">
  <ele>1583.0</ele>
  <time>2026-08-28T17:56:54Z</time>
  <course>248.12</course>
  <speed>0.0</speed>
  <fix>3d</fix>
</trkpt>
<trkpt lat="40.0713749" lon="-105.229789">
  <ele>1583.0</ele>
  <time>2026-08-28T17:56:54Z</time>
  <course>0.0</course>
  <speed>0.0</speed>
  <fix>3d</fix>
</trkpt>
<trkpt lat="40.0713749" lon="-105.229789">
  <ele>1583.0</ele>
  <time>2026-08-28T17:56:54Z</time>
  <course>248.14</course>
  <speed>0.0</speed>
  <fix>3d</fix>
</trkpt>
<trkpt lat="40.0713749" lon="-105.229789">
  <ele>1583.0</ele>
  <time>2026-08-28T17:56:54Z</time>
  <course>0.0</course>
  <speed>0.0</speed>
  <fix>3d</fix>
</trkpt>
<trkpt lat="40.0713749" lon="-105.229789">
  <ele>1583.0</ele>
  <time>2026-08-28T17:56:54Z</time>
  <course>248.16</course>
  <speed>0.0</speed>
  <fix>3d</fix>
</trkpt>
<trkpt lat="40.0713749" lon="-105.229789">
  <ele>1583.0</ele>
  <time>2026-08-28T17:56:54Z</time>
  <course>0.0</course>
  <speed>0.0</speed>
  <fix>3d</fix>
</trkpt>
<trkpt lat="40.0713749" lon="-105.229789">
  <ele>1583.0</ele>
  <time>2026-08-28T17:56:54Z</time>
  <course>248.18</course>
  <speed>0.0</speed>
  <fix>3d</fix>
</trkpt>
<trkpt lat="40.0713749" lon="-105.229789">
  <ele>1583.0</ele>
  <time>2026-08-28T17:56:54Z</time>
  <course>0.0</course>
  <speed>0.0</speed>
  <fix>3d</fix>
</trkpt>
<trkpt lat="40.0713749" lon="-105.229789">
  <ele>1583.0</ele>
  <time>2026-08-28T17:56:54Z</time>
  <course>248.2</course>
  <speed>0.0</speed>
  <fix>3d</fix>
</trkpt>
<trkpt lat="40.0713749" lon="-105.229789">
  <ele>1583.0</ele>
  <time>2026-08-28T17:56:54Z</time>
  <course>0.0</course>
  <speed>0.0</speed>
  <fix>3d</fix>
</trkpt>
<trkpt lat="40.0713749" lon="-105.229789">
  <ele>1583.0</ele>
  <time>2026-08-28T17:56:54Z</time>
  <course>248.22</course>
  <speed>0.0</speed>
  <fix>3d</fix>
</trkpt>
<trkpt lat="40.0713749" lon="-105.229789">
  <ele>1583.0</ele>
  <time>2026-08-28T17:56:54Z</time>
  <course>0.0</course>
  <speed>0.0</speed>
  <fix>3d</fix>
</trkpt>
<trkpt lat="40.0713749" lon="-105.229789">
  <ele>1583.0</ele>
  <time>2026-08-28T17:56:54Z</time>
  <course>248.23</course>
  <speed>0.0</speed>
  <fix>3d</fix>
</trkpt>
<trkpt lat="40.0713749" lon="-105.229789">
  <ele>1583.0</ele>
  <time>2026-08-28T17:56:54Z</time>
  <course>0.0</course>
  <speed>0.0</speed>
  <fix>3d</fix>
</trkpt>
<trkpt lat="40.0713749" lon="-105.229789">
  <ele>1583.0</ele>
  <time>2026-08-28T17:56:54Z</time>
  <course>248.25</course>
  <speed>0.0</speed>
  <fix>3d</fix>
</trkpt>
<trkpt lat="40.0713749" lon="-105.229789">
  <ele>1583.0</ele>
  <time>2026-08-28T17:56:54Z</time>
  <course>0.0</course>
  <speed>0.0</speed>
  <fix>3d</fix>
</trkpt>
<trkpt lat="40.0713749" lon="-105.229789">
  <ele>1583.0</ele>
  <time>2026-08-28T17:56:54Z</time>
  <course>248.26</course>
  <speed>0.0</speed>
  <fix>3d</fix>
</trkpt>
<trkpt lat="40.0713749" lon="-105.229789">
  <ele>1583.0</ele>
  <time>2026-08-28T17:56:54Z</time>
  <course>0.0</course>
  <speed>0.0</speed>
  <fix>3d</fix>
</trkpt>
<trkpt lat="40.0713749" lon="-105.229789">
  <ele>1583.0</ele>
  <time>2026-08-28T17:56:54Z</time>
  <course>248.28</course>
  <speed>0.0</speed>
  <fix>3d</fix>
</trkpt>
<trkpt lat="40.0713749" lon="-105.229789">
  <ele>1583.0</ele>
  <time>2026-08-28T17:56:54Z</time>
  <course>0.0</course>
  <speed>0.0</speed>
  <fix>3d</fix>
</trkpt>
<trkpt lat="40.0713749" lon="-105.229789">
  <ele>1583.0</ele>
  <time>2026-08-28T17:56:54Z</time>
  <course>248.29</course>
  <speed>0.0</speed>
  <fix>3d</fix>
</trkpt>
<trkpt lat="40.0713749" lon="-105.229789">
  <ele>1583.0</ele>
  <time>2026-08-28T17:56:54Z</time>
  <course>0.0</course>
  <speed>0.0</speed>
  <fix>3d</fix>
</trkpt>
<trkpt lat="40.0713749" lon="-105.229789">
  <ele>1583.0</ele>
  <time>2026-08-28T17:56:54Z</time>
  <course>248.3</course>
  <speed>0.0</speed>
  <fix>3d</fix>
</trkpt>
<trkpt lat="40.0713749" lon="-105.229789">
  <ele>1583.0</ele>
  <time>2026-08-28T17:56:54Z</time>
  <course>0.0</course>
  <speed>0.0</speed>
  <fix>3d</fix>
</trkpt>
<trkpt lat="40.0713749" lon="-105.229789">
  <ele>1583.0</ele>
  <time>2026-08-28T17:56:54Z</time>
  <course>248.31</course>
  <speed>0.0</speed>
  <fix>3d</fix>
</trkpt>
<trkpt lat="40.0713749" lon="-105.229789">
  <ele>1583.0</ele>
  <time>2026-08-28T17:56:54Z</time>
  <course>0.0</course>
  <speed>0.0</speed>
  <fix>3d</fix>
</trkpt>
<trkpt lat="40.0713749" lon="-105.229789">
  <ele>1583.0</ele>
  <time>2026-08-28T17:56:54Z</time>
  <course>248.32</course>
  <speed>0.0</speed>
  <fix>3d</fix>
</trkpt>
<trkpt lat="40.0713749" lon="-105.229789">
  <ele>1583.0</ele>
  <time>2026-08-28T17:56:54Z</time>
  <course>0.0</course>
  <speed>0.0</speed>
  <fix>3d</fix>
</trkpt>
<trkpt lat="40.0713749" lon="-105.229789">
  <ele>1583.0</ele>
  <time>2026-08-28T17:56:54Z</time>
  <course>248.33</course>
  <speed>0.0</speed>
  <fix>3d</fix>
</trkpt>
<trkpt lat="40.0713749" lon="-105.229789">
  <ele>1583.0</ele>
  <time>2026-08-28T17:56:54Z</time>
  <course>0.0</course>
  <speed>0.0</speed>
  <fix>3d</fix>
</trkpt>
<trkpt lat="40.0713749" lon="-105.229789">
  <ele>1583.0</ele>
  <time>2026-08-28T17:56:54Z</time>
  <course>248.34</course>
  <speed>0.0</speed>
  <fix>3d</fix>
</trkpt>
<trkpt lat="40.0713749" lon="-105.229789">
  <ele>1583.0</ele>
  <time>2026-08-28T17:56:54Z</time>
  <course>0.0</course>
  <speed>0.0</speed>
  <fix>3d</fix>
</trkpt>
<trkpt lat="40.0713749" lon="-105.229789">
  <ele>1583.0</ele>
  <time>2026-08-28T17:56:54Z</time>
  <course>248.35</course>
  <speed>0.0</speed>
  <fix>3d</fix>
</trkpt>
<trkpt lat="40.0713749" lon="-105.229789">
  <ele>1583.0</ele>
  <time>2026-08-28T17:56:54Z</time>
  <course>0.0</course>
  <speed>0.0</speed>
  <fix>3d</fix>
</trkpt>
<trkpt lat="40.0713749" lon="-105.229789">
  <ele>1583.0</ele>
  <time>2026-08-28T17:56:54Z</time>
  <course>248.35</course>
  <speed>0.0</speed>
  <fix>3d</fix>
</trkpt>
<trkpt lat="40.0713749" lon="-105.229789">
  <ele>1583.0</ele>
  <time>2026-08-28T17:56:54Z</time>
  <course>0.0</course>
  <speed>0.0</speed>
  <fix>3d</fix>
</trkpt>
<trkpt lat="40.0713749" lon="-105.229789">
  <ele>1583.0</ele>
  <time>2026-08-28T17:56:54Z</time>
  <course>248.36</course>
  <speed>0.0</speed>
  <fix>3d</fix>
</trkpt>
<trkpt lat="40.0713749" lon="-105.229789">
  <ele>1583.0</ele>
  <time>2026-08-28T17:56:54Z</time>
  <course>0.0</course>
  <speed>0.0</speed>
  <fix>3d</fix>
</trkpt>
<trkpt lat="40.0713749" lon="-105.229789">
  <ele>1583.0</ele>
  <time>2026-08-28T17:56:54Z</time>
  <course>248.37</course>
  <speed>0.0</speed>
  <fix>3d</fix>
</trkpt>
<trkpt lat="40.0713749" lon="-105.229789">
  <ele>1583.0</ele>
  <time>2026-08-28T17:56:54Z</time>
  <course>0.0</course>
  <speed>0.0</speed>
  <fix>3d</fix>
</trkpt>
<trkpt lat="40.0713749" lon="-105.229789">
  <ele>1583.0</ele>
  <time>2026-08-28T17:56:54Z</time>
  <course>248.37</course>
  <speed>0.0</speed>
  <fix>3d</fix>
</trkpt>
<trkpt lat="40.0713749" lon="-105.229789">
  <ele>1583.0</ele>
  <time>2026-08-28T17:56:54Z</time>
  <course>0.0</course>
  <speed>0.0</speed>
  <fix>3d</fix>
</trkpt>
<trkpt lat="40.0713749" lon="-105.229789">
  <ele>1583.0</ele>
  <time>2026-08-28T17:56:54Z</time>
  <course>248.38</course>
  <speed>0.0</speed>
  <fix>3d</fix>
</trkpt>
<trkpt lat="40.0713749" lon="-105.229789">
  <ele>1583.0</ele>
  <time>2026-08-28T17:56:54Z</time>
  <course>0.0</course>
  <speed>0.0</speed>
  <fix>3d</fix>
</trkpt>
<trkpt lat="40.0713749" lon="-105.229789">
  <ele>1583.0</ele>
  <time>2026-08-28T17:56:54Z</time>
  <course>248.38</course>
  <speed>0.0</speed>
  <fix>3d</fix>
</trkpt>
<trkpt lat="40.0713749" lon="-105.229789">
  <ele>1583.0</ele>
  <time>2026-08-28T17:56:54Z</time>
  <course>0.0</course>
  <speed>0.0</speed>
  <fix>3d</fix>
</trkpt>
<trkpt lat="40.0713749" lon="-105.229789">
  <ele>1583.0</ele>
  <time>2026-08-28T17:56:54Z</time>
  <course>248.39</course>
  <speed>0.0</speed>
  <fix>3d</fix>
</trkpt>
<trkpt lat="40.0713749" lon="-105.229789">
  <ele>1583.0</ele>
  <time>2026-08-28T17:56:54Z</time>
  <course>0.0</course>
  <speed>0.0</speed>
  <fix>3d</fix>
</trkpt>
<trkpt lat="40.0713749" lon="-105.229789">
  <ele>1583.0</ele>
  <time>2026-08-28T17:56:54Z</time>
  <course>248.39</course>
  <speed>0.0</speed>
  <fix>3d</fix>
</trkpt>
<trkpt lat="40.0713749" lon="-105.229789">
  <ele>1583.0</ele>
  <time>2026-08-28T17:56:54Z</time>
  <course>0.0</course>
  <speed>0.0</speed>
  <fix>3d</fix>
</trkpt>
<trkpt lat="40.0713749" lon="-105.229789">
  <ele>1583.0</ele>
  <time>2026-08-28T17:56:54Z</time>
  <course>248.4</course>
  <speed>0.0</speed>
  <fix>3d</fix>
</trkpt>
<trkpt lat="40.0713749" lon="-105.229789">
  <ele>1583.0</ele>
  <time>2026-08-28T17:56:54Z</time>
  <course>0.0</course>
  <speed>0.0</speed>
  <fix>3d</fix>
</trkpt>
<trkpt lat="40.0713749" lon="-105.229789">
  <ele>1583.0</ele>
  <time>2026-08-28T17:56:54Z</time>
  <course>248.4</course>
  <speed>0.0</speed>
  <fix>3d</fix>
</trkpt>
<trkpt lat="40.0713749" lon="-105.229789">
  <ele>1583.0</ele>
  <time>2026-08-28T17:56:54Z</time>
  <course>0.0</course>
  <speed>0.0</speed>
  <fix>3d</fix>
</trkpt>
<trkpt lat="40.0713749" lon="-105.229789">
  <ele>1583.0</ele>
  <time>2026-08-28T17:56:54Z</time>
  <course>248.4</course>
  <speed>0.0</speed>
  <fix>3d</fix>
</trkpt>
<trkpt lat="40.0713749" lon="-105.229789">
  <ele>1583.0</ele>
  <time>2026-08-28T17:56:54Z</time>
  <course>0.0</course>
  <speed>0.0</speed>
  <fix>3d</fix>
</trkpt>
<trkpt lat="40.0713749" lon="-105.229789">
  <ele>1583.0</ele>
  <time>2026-08-28T17:56:54Z</time>
  <course>248.4</course>
  <speed>0.0</speed>
  <fix>3d</fix>
</trkpt>
<trkpt lat="40.0713749" lon="-105.229789">
  <ele>1583.0</ele>
  <time>2026-08-28T17:56:54Z</time>
  <course>0.0</course>
  <speed>0.0</speed>
  <fix>3d</fix>
</trkpt>
<trkpt lat="40.0713749" lon="-105.229789">
  <ele>1583.0</ele>
  <time>2026-08-28T17:56:54Z</time>
  <course>248.41</course>
  <speed>0.0</speed>
  <fix>3d</fix>
</trkpt>
<trkpt lat="40.0713749" lon="-105.229789">
  <ele>1583.0</ele>
  <time>2026-08-28T17:56:54Z</time>
  <course>0.0</course>
  <speed>0.0</speed>
  <fix>3d</fix>
</trkpt>
<trkpt lat="40.0713749" lon="-105.229789">
  <ele>1583.0</ele>
  <time>2026-08-28T17:56:54Z</time>
  <course>248.41</course>
  <speed>0.0</speed>
  <fix>3d</fix>
</trkpt>
<trkpt lat="40.0713749" lon="-105.229789">
  <ele>1583.0</ele>
  <time>2026-08-28T17:56:54Z</time>
  <course>0.0</course>
  <speed>0.0</speed>
  <fix>3d</fix>
</trkpt>
<trkpt lat="40.0713749" lon="-105.229789">
  <ele>1583.0</ele>
  <time>2026-08-28T17:56:54Z</time>
  <course>248.41</course>
  <speed>0.0</speed>
  <fix>3d</fix>
</trkpt>
<trkpt lat="40.0713749" lon="-105.229789">
  <ele>1583.0</ele>
  <time>2026-08-28T17:56:54Z</time>
  <course>0.0</course>
  <speed>0.0</speed>
  <fix>3d</fix>
</trkpt>
<trkpt lat="40.0713749" lon="-105.229789">
  <ele>1583.0</ele>
  <time>2026-08-28T17:56:54Z</time>
  <course>248.41</course>
  <speed>0.0</speed>
  <fix>3d</fix>
</trkpt>
<trkpt lat="40.0713749" lon="-105.229789">
  <ele>1583.0</ele>
  <time>2026-08-28T17:56:54Z</time>
  <course>0.0</course>
  <speed>0.0</speed>
  <fix>3d</fix>
</trkpt>
<trkpt lat="40.0713749" lon="-105.229789">
  <ele>1583.0</ele>
  <time>2026-08-28T17:56:54Z</time>
  <course>248.41</course>
  <speed>0.0</speed>
  <fix>3d</fix>
</trkpt>
<trkpt lat="40.0713749" lon="-105.229789">
  <ele>1583.0</ele>
  <time>2026-08-28T17:56:54Z</time>
  <course>0.0</course>
  <speed>0.0</speed>
  <fix>3d</fix>
</trkpt>
<trkpt lat="40.0713749" lon="-105.229789">
  <ele>1583.0</ele>
  <time>2026-08-28T17:56:54Z</time>
  <course>248.41</course>
  <speed>0.0</speed>
  <fix>3d</fix>
</trkpt>
<trkpt lat="40.0713749" lon="-105.229789">
  <ele>1583.0</ele>
  <time>2026-08-28T17:56:54Z</time>
  <course>0.0</course>
  <speed>0.0</speed>
  <fix>3d</fix>
</trkpt>
<trkpt lat="40.0713749" lon="-105.229789">
  <ele>1583.0</ele>
  <time>2026-08-28T17:56:54Z</time>
  <course>248.41</course>
  <speed>0.0</speed>
  <fix>3d</fix>
</trkpt>
<trkpt lat="40.0713749" lon="-105.229789">
  <ele>1583.0</ele>
  <time>2026-08-28T17:56:54Z</time>
  <course>0.0</course>
  <speed>0.0</speed>
  <fix>3d</fix>
</trkpt>
<trkpt lat="40.0713749" lon="-105.229789">
  <ele>1583.0</ele>
  <time>2026-08-28T17:56:54Z</time>
  <course>248.41</course>
  <speed>0.0</speed>
  <fix>3d</fix>
</trkpt>
<trkpt lat="40.0713749" lon="-105.229789">
  <ele>1583.0</ele>
  <time>2026-08-28T17:56:54Z</time>
  <course>0.0</course>
  <speed>0.0</speed>
  <fix>3d</fix>
</trkpt>
<trkpt lat="40.0713749" lon="-105.229789">
  <ele>1583.0</ele>
  <time>2026-08-28T17:56:54Z</time>
  <course>248.41</course>
  <speed>0.0</speed>
  <fix>3d</fix>
</trkpt>
<trkpt lat="40.0713749" lon="-105.229789">
  <ele>1583.0</ele>
  <time>2026-08-28T17:56:54Z</time>
  <course>0.0</course>
  <speed>0.0</speed>
  <fix>3d</fix>
</trkpt>
<trkpt lat="40.0713749" lon="-105.229789">
  <ele>1583.0</ele>
  <time>2026-08-28T17:56:54Z</time>
  <course>248.41</course>
  <speed>0.0</speed>
  <fix>3d</fix>
</trkpt>
<trkpt lat="40.0713749" lon="-105.229789">
  <ele>1583.0</ele>
  <time>2026-08-28T17:56:54Z</time>
  <course>0.0</course>
  <speed>0.0</speed>
  <fix>3d</fix>
</trkpt>
<trkpt lat="40.0713749" lon="-105.229789">
  <ele>1583.0</ele>
  <time>2026-08-28T17:56:54Z</time>
  <course>248.41</course>
  <speed>0.0</speed>
  <fix>3d</fix>
</trkpt>
<trkpt lat="40.0713749" lon="-105.229789">
  <ele>1583.0</ele>
  <time>2026-08-28T17:56:54Z</time>
  <course>0.0</course>
  <speed>0.0</speed>
  <fix>3d</fix>
</trkpt>
<trkpt lat="40.0713749" lon="-105.229789">
  <ele>1583.0</ele>
  <time>2026-08-28T17:56:54Z</time>
  <course>248.41</course>
  <speed>0.0</speed>
  <fix>3d</fix>
</trkpt>
<trkpt lat="40.0713749" lon="-105.229789">
  <ele>1583.0</ele>
  <time>2026-08-28T17:56:54Z</time>
  <course>0.0</course>
  <speed>0.0</speed>
  <fix>3d</fix>
</trkpt>
<trkpt lat="40.0713749" lon="-105.229789">
  <ele>1583.0</ele>
  <time>2026-08-28T17:56:54Z</time>
  <course>248.41</course>
  <speed>0.0</speed>
  <fix>3d</fix>
</trkpt>
<trkpt lat="40.0713749" lon="-105.229789">
  <ele>1583.0</ele>
  <time>2026-08-28T17:56:54Z</time>
  <course>0.0</course>
  <speed>0.0</speed>
  <fix>3d</fix>
</trkpt>
<trkpt lat="40.0713749" lon="-105.229789">
  <ele>1583.0</ele>
  <time>2026-08-28T17:56:54Z</time>
  <course>248.41</course>
  <speed>0.0</speed>
  <fix>3d</fix>
</trkpt>
<trkpt lat="40.0713749" lon="-105.229789">
  <ele>1583.0</ele>
  <time>2026-08-28T17:56:54Z</time>
  <course>0.0</course>
  <speed>0.0</speed>
  <fix>3d</fix>
</trkpt>
<trkpt lat="40.0713749" lon="-105.229789">
  <ele>1583.0</ele>
  <time>2026-08-28T17:56:54Z</time>
  <course>248.41</course>
  <speed>0.0</speed>
  <fix>3d</fix>
</trkpt>
<trkpt lat="40.0713749" lon="-105.229789">
  <ele>1583.0</ele>
  <time>2026-08-28T17:56:54Z</time>
  <course>0.0</course>
  <speed>0.0</speed>
  <fix>3d</fix>
</trkpt>
<trkpt lat="40.0713749" lon="-105.229789">
  <ele>1583.0</ele>
  <time>2026-08-28T17:56:54Z</time>
  <course>248.41</course>
  <speed>0.0</speed>
  <fix>3d</fix>
</trkpt>
<trkpt lat="40.0713749" lon="-105.229789">
  <ele>1583.0</ele>
  <time>2026-08-28T17:56:54Z</time>
  <course>0.0</course>
  <speed>0.0</speed>
  <fix>3d</fix>
</trkpt>
<trkpt lat="40.0713749" lon="-105.229789">
  <ele>1583.0</ele>
  <time>2026-08-28T17:56:54Z</time>
  <course>248.4</course>
  <speed>0.0</speed>
  <fix>3d</fix>
</trkpt>
<trkpt lat="40.0713749" lon="-105.229789">
  <ele>1583.0</ele>
  <time>2026-08-28T17:56:54Z</time>
  <course>0.0</course>
  <speed>0.0</speed>
  <fix>3d</fix>
</trkpt>
<trkpt lat="40.0713749" lon="-105.229789">
  <ele>1583.0</ele>
  <time>2026-08-28T17:56:54Z</time>
  <course>248.4</course>
  <speed>0.01</speed>
  <fix>3d</fix>
</trkpt>
<trkpt lat="40.0713749" lon="-105.229789">
  <ele>1583.0</ele>
  <time>2026-08-28T17:56:54Z</time>
  <course>0.0</course>
  <speed>0.0</speed>
  <fix>3d</fix>
</trkpt>
<trkpt lat="40.0713749" lon="-105.229789">
  <ele>1583.0</ele>
  <time>2026-08-28T17:56:54Z</time>
  <course>248.4</course>
  <speed>0.01</speed>
  <fix>3d</fix>
</trkpt>
<trkpt lat="40.0713749" lon="-105.229789">
  <ele>1583.0</ele>
  <time>2026-08-28T17:56:54Z</time>
  <course>0.0</course>
  <speed>0.0</speed>
  <fix>3d</fix>
</trkpt>
<trkpt lat="40.0713749" lon="-105.229789">
  <ele>1583.0</ele>
  <time>2026-08-28T17:56:54Z</time>
  <course>248.4</course>
  <speed>0.01</speed>
  <fix>3d</fix>
</trkpt>
<trkpt lat="40.0713749" lon="-105.229789">
  <ele>1583.0</ele>
  <time>2026-08-28T17:56:54Z</time>
  <course>0.0</course>
  <speed>0.0</speed>
  <fix>3d</fix>
</trkpt>
<trkpt lat="40.0713749" lon="-105.229789">
  <ele>1583.0</ele>
  <time>2026-08-28T17:56:54Z</time>
  <course>248.4</course>
  <speed>0.01</speed>
  <fix>3d</fix>
</trkpt>
<trkpt lat="40.0713749" lon="-105.229789">
  <ele>1583.0</ele>
  <time>2026-08-28T17:56:54Z</time>
  <course>0.0</course>
  <speed>0.0</speed>
  <fix>3d</fix>
</trkpt>
<trkpt lat="40.0713749" lon="-105.229789">
  <ele>1583.0</ele>
  <time>2026-08-28T17:56:54Z</time>
  <course>248.39</course>
  <speed>0.01</speed>
  <fix>3d</fix>
</trkpt>
<trkpt lat="40.0713749" lon="-105.229789">
  <ele>1583.0</ele>
  <time>2026-08-28T17:56:54Z</time>
  <course>0.0</course>
  <speed>0.0</speed>
  <fix>3d</fix>
</trkpt>
<trkpt lat="40.0713749" lon="-105.229789">
  <ele>1583.0</ele>
  <time>2026-08-28T17:56:54Z</time>
  <course>248.39</course>
  <speed>0.01</speed>
  <fix>3d</fix>
</trkpt>
<trkpt lat="40.0713749" lon="-105.229789">
  <ele>1583.0</ele>
  <time>2026-08-28T17:56:54Z</time>
  <course>0.0</course>
  <speed>0.0</speed>
  <fix>3d</fix>
</trkpt>
<trkpt lat="40.0713749" lon="-105.229789">
  <ele>1583.0</ele>
  <time>2026-08-28T17:56:54Z</time>
  <course>248.39</course>
  <speed>0.01</speed>
  <fix>3d</fix>
</trkpt>
<trkpt lat="40.0713749" lon="-105.229789">
  <ele>1583.0</ele>
  <time>2026-08-28T17:56:54Z</time>
  <course>0.0</course>
  <speed>0.0</speed>
  <fix>3d</fix>
</trkpt>
<trkpt lat="40.0713749" lon="-105.229789">
  <ele>1583.0</ele>
  <time>2026-08-28T17:56:54Z</time>
  <course>248.38</course>
  <speed>0.01</speed>
  <fix>3d</fix>
</trkpt>
<trkpt lat="40.0713749" lon="-105.229789">
  <ele>1583.0</ele>
  <time>2026-08-28T17:56:54Z</time>
  <course>0.0</course>
  <speed>0.0</speed>
  <fix>3d</fix>
</trkpt>
<trkpt lat="40.0713749" lon="-105.229789">
  <ele>1583.0</ele>
  <time>2026-08-28T17:56:54Z</time>
  <course>248.38</course>
  <speed>0.01</speed>
  <fix>3d</fix>
</trkpt>
<trkpt lat="40.0713749" lon="-105.229789">
  <ele>1583.0</ele>
  <time>2026-08-28T17:56:54Z</time>
  <course>0.0</course>
  <speed>0.0</speed>
  <fix>3d</fix>
</trkpt>
<trkpt lat="40.0713749" lon="-105.229789">
  <ele>1583.0</ele>
  <time>2026-08-28T17:56:54Z</time>
  <course>248.38</course>
  <speed>0.01</speed>
  <fix>3d</fix>
</trkpt>
<trkpt lat="40.0713749" lon="-105.229789">
  <ele>1583.0</ele>
  <time>2026-08-28T17:56:54Z</time>
  <course>0.0</course>
  <speed>0.0</speed>
  <fix>3d</fix>
</trkpt>
<trkpt lat="40.0713749" lon="-105.229789">
  <ele>1583.0</ele>
  <time>2026-08-28T17:56:54Z</time>
  <course>248.37</course>
  <speed>0.01</speed>
  <fix>3d</fix>
</trkpt>
<trkpt lat="40.0713749" lon="-105.229789">
  <ele>1583.0</ele>
  <time>2026-08-28T17:56:54Z</time>
  <course>0.0</course>
  <speed>0.0</speed>
  <fix>3d</fix>
</trkpt>
<trkpt lat="40.0713749" lon="-105.229789">
  <ele>1583.0</ele>
  <time>2026-08-28T17:56:54Z</time>
  <course>248.37</course>
  <speed>0.01</speed>
  <fix>3d</fix>
</trkpt>
<trkpt lat="40.0713749" lon="-105.229789">
  <ele>1583.0</ele>
  <time>2026-08-28T17:56:54Z</time>
  <course>0.0</course>
  <speed>0.0</speed>
  <fix>3d</fix>
</trkpt>
<trkpt lat="40.0713749" lon="-105.229789">
  <ele>1583.0</ele>
  <time>2026-08-28T17:56:54Z</time>
  <course>248.37</course>
  <speed>0.01</speed>
  <fix>3d</fix>
</trkpt>
<trkpt lat="40.0713749" lon="-105.229789">
  <ele>1583.0</ele>
  <time>2026-08-28T17:56:54Z</time>
  <course>0.0</course>
  <speed>0.0</speed>
  <fix>3d</fix>
</trkpt>
<trkpt lat="40.0713749" lon="-105.229789">
  <ele>1583.0</ele>
  <time>2026-08-28T17:56:54Z</time>
  <course>248.36</course>
  <speed>0.01</speed>
  <fix>3d</fix>
</trkpt>
<trkpt lat="40.0713749" lon="-105.229789">
  <ele>1583.0</ele>
  <time>2026-08-28T17:56:54Z</time>
  <course>0.0</course>
  <speed>0.0</speed>
  <fix>3d</fix>
</trkpt>
<trkpt lat="40.0713749" lon="-105.229789">
  <ele>1583.0</ele>
  <time>2026-08-28T17:56:54Z</time>
  <course>248.36</course>
  <speed>0.01</speed>
  <fix>3d</fix>
</trkpt>
<trkpt lat="40.0713749" lon="-105.229789">
  <ele>1583.0</ele>
  <time>2026-08-28T17:56:54Z</time>
  <course>0.0</course>
  <speed>0.0</speed>
  <fix>3d</fix>
</trkpt>
<trkpt lat="40.0713749" lon="-105.229789">
  <ele>1583.0</ele>
  <time>2026-08-28T17:56:54Z</time>
  <course>248.36</course>
  <speed>0.01</speed>
  <fix>3d</fix>
</trkpt>
<trkpt lat="40.0713749" lon="-105.229789">
  <ele>1583.0</ele>
  <time>2026-08-28T17:56:54Z</time>
  <course>0.0</course>
  <speed>0.0</speed>
  <fix>3d</fix>
</trkpt>
<trkpt lat="40.0713749" lon="-105.229789">
  <ele>1583.0</ele>
  <time>2026-08-28T17:56:54Z</time>
  <course>248.35</course>
  <speed>0.01</speed>
  <fix>3d</fix>
</trkpt>
<trkpt lat="40.0713749" lon="-105.229789">
  <ele>1583.0</ele>
  <time>2026-08-28T17:56:54Z</time>
  <course>0.0</course>
  <speed>0.0</speed>
  <fix>3d</fix>
</trkpt>
<trkpt lat="40.0713749" lon="-105.229789">
  <ele>1583.0</ele>
  <time>2026-08-28T17:56:54Z</time>
  <course>248.35</course>
  <speed>0.01</speed>
  <fix>3d</fix>
</trkpt>
<trkpt lat="40.0713749" lon="-105.229789">
  <ele>1583.0</ele>
  <time>2026-08-28T17:56:54Z</time>
  <course>0.0</course>
  <speed>0.0</speed>
  <fix>3d</fix>
</trkpt>
<trkpt lat="40.0713749" lon="-105.229789">
  <ele>1583.0</ele>
  <time>2026-08-28T17:56:54Z</time>
  <course>248.35</course>
  <speed>0.01</speed>
  <fix>3d</fix>
</trkpt>
<trkpt lat="40.0713749" lon="-105.229789">
  <ele>1583.0</ele>
  <time>2026-08-28T17:56:54Z</time>
  <course>0.0</course>
  <speed>0.0</speed>
  <fix>3d</fix>
</trkpt>
<trkpt lat="40.0713749" lon="-105.229789">
  <ele>1583.0</ele>
  <time>2026-08-28T17:56:54Z</time>
  <course>248.34</course>
  <speed>0.01</speed>
  <fix>3d</fix>
</trkpt>
<trkpt lat="40.0713749" lon="-105.229789">
  <ele>1583.0</ele>
  <time>2026-08-28T17:56:54Z</time>
  <course>0.0</course>
  <speed>0.0</speed>
  <fix>3d</fix>
</trkpt>
<trkpt lat="40.0713749" lon="-105.229789">
  <ele>1583.0</ele>
  <time>2026-08-28T17:56:54Z</time>
  <course>248.34</course>
  <speed>0.01</speed>
  <fix>3d</fix>
</trkpt>
<trkpt lat="40.0713749" lon="-105.229789">
  <ele>1583.0</ele>
  <time>2026-08-28T17:56:54Z</time>
  <course>0.0</course>
  <speed>0.0</speed>
  <fix>3d</fix>
</trkpt>
<trkpt lat="40.0713749" lon="-105.229789">
  <ele>1583.0</ele>
  <time>2026-08-28T17:56:54Z</time>
  <course>248.33</course>
  <speed>0.01</speed>
  <fix>3d</fix>
</trkpt>
<trkpt lat="40.0713749" lon="-105.229789">
  <ele>1583.0</ele>
  <time>2026-08-28T17:56:54Z</time>
  <course>0.0</course>
  <speed>0.0</speed>
  <fix>3d</fix>
</trkpt>
<trkpt lat="40.0713749" lon="-105.229789">
  <ele>1583.0</ele>
  <time>2026-08-28T17:56:54Z</time>
  <course>248.33</course>
  <speed>0.01</speed>
  <fix>3d</fix>
</trkpt>
<trkpt lat="40.0713749" lon="-105.229789">
  <ele>1583.0</ele>
  <time>2026-08-28T17:56:54Z</time>
  <course>0.0</course>
  <speed>0.0</speed>
  <fix>3d</fix>
</trkpt>
<trkpt lat="40.0713749" lon="-105.229789">
  <ele>1583.0</ele>
  <time>2026-08-28T17:56:54Z</time>
  <course>248.32</course>
  <speed>0.01</speed>
  <fix>3d</fix>
</trkpt>
<trkpt lat="40.0713749" lon="-105.229789">
  <ele>1583.0</ele>
  <time>2026-08-28T17:56:54Z</time>
  <course>0.0</course>
  <speed>0.0</speed>
  <fix>3d</fix>
</trkpt>
<trkpt lat="40.0713749" lon="-105.229789">
  <ele>1583.0</ele>
  <time>2026-08-28T17:56:54Z</time>
  <course>248.32</course>
  <speed>0.01</speed>
  <fix>3d</fix>
</trkpt>
<trkpt lat="40.0713749" lon="-105.229789">
  <ele>1583.0</ele>
  <time>2026-08-28T17:56:54Z</time>
  <course>0.0</course>
  <speed>0.0</speed>
  <fix>3d</fix>
</trkpt>
<trkpt lat="40.0713749" lon="-105.229789">
  <ele>1583.0</ele>
  <time>2026-08-28T17:56:54Z</time>
  <course>248.32</course>
  <speed>0.01</speed>
  <fix>3d</fix>
</trkpt>
<trkpt lat="40.0713749" lon="-105.229789">
  <ele>1583.0</ele>
  <time>2026-08-28T17:56:54Z</time>
  <course>0.0</course>
  <speed>0.0</speed>
  <fix>3d</fix>
</trkpt>
<trkpt lat="40.0713749" lon="-105.229789">
  <ele>1583.0</ele>
  <time>2026-08-28T17:56:54Z</time>
  <course>248.31</course>
  <speed>0.01</speed>
  <fix>3d</fix>
</trkpt>
<trkpt lat="40.0713749" lon="-105.229789">
  <ele>1583.0</ele>
  <time>2026-08-28T17:56:54Z</time>
  <course>0.0</course>
  <speed>0.0</speed>
  <fix>3d</fix>
</trkpt>
<trkpt lat="40.0713749" lon="-105.229789">
  <ele>1583.0</ele>
  <time>2026-08-28T17:56:54Z</time>
  <course>248.31</course>
  <speed>0.01</speed>
  <fix>3d</fix>
</trkpt>
<trkpt lat="40.0713749" lon="-105.229789">
  <ele>1583.0</ele>
  <time>2026-08-28T17:56:54Z</time>
  <course>0.0</course>
  <speed>0.0</speed>
  <fix>3d</fix>
</trkpt>
<trkpt lat="40.0713749" lon="-105.229789">
  <ele>1583.0</ele>
  <time>2026-08-28T17:56:54Z</time>
  <course>248.3</course>
  <speed>0.01</speed>
  <fix>3d</fix>
</trkpt>
<trkpt lat="40.0713749" lon="-105.229789">
  <ele>1583.0</ele>
  <time>2026-08-28T17:56:54Z</time>
  <course>0.0</course>
  <speed>0.0</speed>
  <fix>3d</fix>
</trkpt>
<trkpt lat="40.0713749" lon="-105.229789">
  <ele>1583.0</ele>
  <time>2026-08-28T17:56:54Z</time>
  <course>248.3</course>
  <speed>0.01</speed>
  <fix>3d</fix>
</trkpt>
<trkpt lat="40.0713749" lon="-105.229789">
  <ele>1583.0</ele>
  <time>2026-08-28T17:56:54Z</time>
  <course>0.0</course>
  <speed>0.0</speed>
  <fix>3d</fix>
</trkpt>
<trkpt lat="40.0713749" lon="-105.229789">
  <ele>1583.0</ele>
  <time>2026-08-28T17:56:54Z</time>
  <course>248.29</course>
  <speed>0.01</speed>
  <fix>3d</fix>
</trkpt>
<trkpt lat="40.0713749" lon="-105.229789">
  <ele>1583.0</ele>
  <time>2026-08-28T17:56:54Z</time>
  <course>0.0</course>
  <speed>0.0</speed>
  <fix>3d</fix>
</trkpt>
<trkpt lat="40.0713749" lon="-105.229789">
  <ele>1583.0</ele>
  <time>2026-08-28T17:56:54Z</time>
  <course>248.29</course>
  <speed>0.01</speed>
  <fix>3d</fix>
</trkpt>
<trkpt lat="40.0713749" lon="-105.229789">
  <ele>1583.0</ele>
  <time>2026-08-28T17:56:54Z</time>
  <course>0.0</course>
  <speed>0.0</speed>
  <fix>3d</fix>
</trkpt>
<trkpt lat="40.0713749" lon="-105.229789">
  <ele>1583.0</ele>
  <time>2026-08-28T17:56:54Z</time>
  <course>248.28</course>
  <speed>0.01</speed>
  <fix>3d</fix>
</trkpt>
<trkpt lat="40.0713749" lon="-105.229789">
  <ele>1583.0</ele>
  <time>2026-08-28T17:56:54Z</time>
  <course>0.0</course>
  <speed>0.0</speed>
  <fix>3d</fix>
</trkpt>
<trkpt lat="40.0713749" lon="-105.229789">
  <ele>1583.0</ele>
  <time>2026-08-28T17:56:54Z</time>
  <course>248.28</course>
  <speed>0.01</speed>
  <fix>3d</fix>
</trkpt>
<trkpt lat="40.0713749" lon="-105.229789">
  <ele>1583.0</ele>
  <time>2026-08-28T17:56:54Z</time>
  <course>0.0</course>
  <speed>0.0</speed>
  <fix>3d</fix>
</trkpt>
<trkpt lat="40.0713749" lon="-105.229789">
  <ele>1583.0</ele>
  <time>2026-08-28T17:56:54Z</time>
  <course>248.27</course>
  <speed>0.01</speed>
  <fix>3d</fix>
</trkpt>
<trkpt lat="40.0713749" lon="-105.229789">
  <ele>1583.0</ele>
  <time>2026-08-28T17:56:54Z</time>
  <course>0.0</course>
  <speed>0.0</speed>
  <fix>3d</fix>
</trkpt>
<trkpt lat="40.0713749" lon="-105.229789">
  <ele>1583.0</ele>
  <time>2026-08-28T17:56:54Z</time>
  <course>248.27</course>
  <speed>0.01</speed>
  <fix>3d</fix>
</trkpt>
<trkpt lat="40.0713749" lon="-105.229789">
  <ele>1583.0</ele>
  <time>2026-08-28T17:56:54Z</time>
  <course>0.0</course>
  <speed>0.0</speed>
  <fix>3d</fix>
</trkpt>
<trkpt lat="40.0713749" lon="-105.229789">
  <ele>1583.0</ele>
  <time>2026-08-28T17:56:54Z</time>
  <course>248.26</course>
  <speed>0.01</speed>
  <fix>3d</fix>
</trkpt>
<trkpt lat="40.0713749" lon="-105.229789">
  <ele>1583.0</ele>
  <time>2026-08-28T17:56:54Z</time>
  <course>0.0</course>
  <speed>0.0</speed>
  <fix>3d</fix>
</trkpt>
<trkpt lat="40.0713749" lon="-105.229789">
  <ele>1583.0</ele>
  <time>2026-08-28T17:56:54Z</time>
  <course>248.26</course>
  <speed>0.01</speed>
  <fix>3d</fix>
</trkpt>
<trkpt lat="40.0713749" lon="-105.229789">
  <ele>1583.0</ele>
  <time>2026-08-28T17:56:54Z</time>
  <course>0.0</course>
  <speed>0.0</speed>
  <fix>3d</fix>
</trkpt>
<trkpt lat="40.0713749" lon="-105.229789">
  <ele>1583.0</ele>
  <time>2026-08-28T17:56:54Z</time>
  <course>248.26</course>
  <speed>0.01</speed>
  <fix>3d</fix>
</trkpt>
<trkpt lat="40.0713749" lon="-105.229789">
  <ele>1583.0</ele>
  <time>2026-08-28T17:56:54Z</time>
  <course>0.0</course>
  <speed>0.0</speed>
  <fix>3d</fix>
</trkpt>
<trkpt lat="40.0713749" lon="-105.229789">
  <ele>1583.0</ele>
  <time>2026-08-28T17:56:54Z</time>
  <course>248.25</course>
  <speed>0.01</speed>
  <fix>3d</fix>
</trkpt>
<trkpt lat="40.0713749" lon="-105.229789">
  <ele>1583.0</ele>
  <time>2026-08-28T17:56:54Z</time>
  <course>0.0</course>
  <speed>0.0</speed>
  <fix>3d</fix>
</trkpt>
<trkpt lat="40.0713749" lon="-105.229789">
  <ele>1583.0</ele>
  <time>2026-08-28T17:56:54Z</time>
  <course>248.25</course>
  <speed>0.01</speed>
  <fix>3d</fix>
</trkpt>
<trkpt lat="40.0713749" lon="-105.229789">
  <ele>1583.0</ele>
  <time>2026-08-28T17:56:54Z</time>
  <course>0.0</course>
  <speed>0.0</speed>
  <fix>3d</fix>
</trkpt>
<trkpt lat="40.0713749" lon="-105.229789">
  <ele>1583.0</ele>
  <time>2026-08-28T17:56:54Z</time>
  <course>248.24</course>
  <speed>0.01</speed>
  <fix>3d</fix>
</trkpt>
<trkpt lat="40.0713749" lon="-105.229789">
  <ele>1583.0</ele>
  <time>2026-08-28T17:56:54Z</time>
  <course>0.0</course>
  <speed>0.0</speed>
  <fix>3d</fix>
</trkpt>
<trkpt lat="40.0713749" lon="-105.229789">
  <ele>1583.0</ele>
  <time>2026-08-28T17:56:54Z</time>
  <course>248.24</course>
  <speed>0.01</speed>
  <fix>3d</fix>
</trkpt>
<trkpt lat="40.0713749" lon="-105.229789">
  <ele>1583.0</ele>
  <time>2026-08-28T17:56:54Z</time>
  <course>0.0</course>
  <speed>0.0</speed>
  <fix>3d</fix>
</trkpt>
<trkpt lat="40.0713749" lon="-105.229789">
  <ele>1583.0</ele>
  <time>2026-08-28T17:56:54Z</time>
  <course>248.23</course>
  <speed>0.01</speed>
  <fix>3d</fix>
</trkpt>
<trkpt lat="40.0713749" lon="-105.229789">
  <ele>1583.0</ele>
  <time>2026-08-28T17:56:54Z</time>
  <course>0.0</course>
  <speed>0.0</speed>
  <fix>3d</fix>
</trkpt>
<trkpt lat="40.0713749" lon="-105.229789">
  <ele>1583.0</ele>
  <time>2026-08-28T17:56:54Z</time>
  <course>248.23</course>
  <speed>0.01</speed>
  <fix>3d</fix>
</trkpt>
<trkpt lat="40.0713749" lon="-105.229789">
  <ele>1583.0</ele>
  <time>2026-08-28T17:56:54Z</time>
  <course>0.0</course>
  <speed>0.0</speed>
  <fix>3d</fix>
</trkpt>
<trkpt lat="40.0713749" lon="-105.229789">
  <ele>1583.0</ele>
  <time>2026-08-28T17:56:54Z</time>
  <course>248.22</course>
  <speed>0.01</speed>
  <fix>3d</fix>
</trkpt>
<trkpt lat="40.0713749" lon="-105.229789">
  <ele>1583.0</ele>
  <time>2026-08-28T17:56:54Z</time>
  <course>0.0</course>
  <speed>0.0</speed>
  <fix>3d</fix>
</trkpt>
<trkpt lat="40.0713749" lon="-105.229789">
  <ele>1583.0</ele>
  <time>2026-08-28T17:56:54Z</time>
  <course>248.22</course>
  <speed>0.01</speed>
  <fix>3d</fix>
</trkpt>
<trkpt lat="40.0713749" lon="-105.229789">
  <ele>1583.0</ele>
  <time>2026-08-28T17:56:54Z</time>
  <course>0.0</course>
  <speed>0.0</speed>
  <fix>3d</fix>
</trkpt>
<trkpt lat="40.0713749" lon="-105.229789">
  <ele>1583.0</ele>
  <time>2026-08-28T17:56:54Z</time>
  <course>248.21</course>
  <speed>0.01</speed>
  <fix>3d</fix>
</trkpt>
<trkpt lat="40.0713749" lon="-105.229789">
  <ele>1583.0</ele>
  <time>2026-08-28T17:56:54Z</time>
  <course>0.0</course>
  <speed>0.0</speed>
  <fix>3d</fix>
</trkpt>
<trkpt lat="40.0713749" lon="-105.229789">
  <ele>1583.0</ele>
  <time>2026-08-28T17:56:54Z</time>
  <course>248.21</course>
  <speed>0.01</speed>
  <fix>3d</fix>
</trkpt>
<trkpt lat="40.0713749" lon="-105.229789">
  <ele>1583.0</ele>
  <time>2026-08-28T17:56:54Z</time>
  <course>0.0</course>
  <speed>0.0</speed>
  <fix>3d</fix>
</trkpt>
<trkpt lat="40.0713749" lon="-105.229789">
  <ele>1583.0</ele>
  <time>2026-08-28T17:56:54Z</time>
  <course>248.2</course>
  <speed>0.01</speed>
  <fix>3d</fix>
</trkpt>
<trkpt lat="40.0713749" lon="-105.229789">
  <ele>1583.0</ele>
  <time>2026-08-28T17:56:54Z</time>
  <course>0.0</course>
  <speed>0.0</speed>
  <fix>3d</fix>
</trkpt>
<trkpt lat="40.0713749" lon="-105.229789">
  <ele>1583.0</ele>
  <time>2026-08-28T17:56:54Z</time>
  <course>248.2</course>
  <speed>0.01</speed>
  <fix>3d</fix>
</trkpt>
<trkpt lat="40.0713749" lon="-105.229789">
  <ele>1583.0</ele>
  <time>2026-08-28T17:56:54Z</time>
  <course>0.0</course>
  <speed>0.0</speed>
  <fix>3d</fix>
</trkpt>
<trkpt lat="40.0713749" lon="-105.229789">
  <ele>1583.0</ele>
  <time>2026-08-28T17:56:54Z</time>
  <course>248.19</course>
  <speed>0.01</speed>
  <fix>3d</fix>
</trkpt>
<trkpt lat="40.0713749" lon="-105.229789">
  <ele>1583.0</ele>
  <time>2026-08-28T17:56:54Z</time>
  <course>0.0</course>
  <speed>0.0</speed>
  <fix>3d</fix>
</trkpt>
<trkpt lat="40.0713749" lon="-105.229789">
  <ele>1583.0</ele>
  <time>2026-08-28T17:56:54Z</time>
  <course>248.19</course>
  <speed>0.01</speed>
  <fix>3d</fix>
</trkpt>
<trkpt lat="40.0713749" lon="-105.229789">
  <ele>1583.0</ele>
  <time>2026-08-28T17:56:54Z</time>
  <course>0.0</course>
  <speed>0.0</speed>
  <fix>3d</fix>
</trkpt>
<trkpt lat="40.0713749" lon="-105.229789">
  <ele>1583.0</ele>
  <time>2026-08-28T17:56:54Z</time>
  <course>248.18</course>
  <speed>0.01</speed>
  <fix>3d</fix>
</trkpt>
<trkpt lat="40.0713749" lon="-105.229789">
  <ele>1583.0</ele>
  <time>2026-08-28T17:56:54Z</time>
  <course>0.0</course>
  <speed>0.0</speed>
  <fix>3d</fix>
</trkpt>
<trkpt lat="40.0713749" lon="-105.229789">
  <ele>1583.0</ele>
  <time>2026-08-28T17:56:54Z</time>
  <course>248.18</course>
  <speed>0.01</speed>
  <fix>3d</fix>
</trkpt>
<trkpt lat="40.0713749" lon="-105.229789">
  <ele>1583.0</ele>
  <time>2026-08-28T17:56:54Z</time>
  <course>0.0</course>
  <speed>0.0</speed>
  <fix>3d</fix>
</trkpt>
<trkpt lat="40.0713749" lon="-105.229789">
  <ele>1583.0</ele>
  <time>2026-08-28T17:56:54Z</time>
  <course>248.17</course>
  <speed>0.022360679774997897</speed>
  <fix>3d</fix>
</trkpt>
<trkpt lat="40.0713749" lon="-105.229789">
  <ele>1583.0</ele>
  <time>2026-08-28T17:56:54Z</time>
  <course>0.0</course>
  <speed>0.0</speed>
  <fix>3d</fix>
</trkpt>
<trkpt lat="40.0713749" lon="-105.229789">
  <ele>1583.0</ele>
  <time>2026-08-28T17:56:54Z</time>
  <course>248.17</course>
  <speed>0.022360679774997897</speed>
  <fix>3d</fix>
</trkpt>
<trkpt lat="40.0713749" lon="-105.229789">
  <ele>1583.0</ele>
  <time>2026-08-28T17:56:54Z</time>
  <course>0.0</course>
  <speed>0.0</speed>
  <fix>3d</fix>
</trkpt>
<trkpt lat="40.0713749" lon="-105.229789">
  <ele>1583.0</ele>
  <time>2026-08-28T17:56:54Z</time>
  <course>248.16</course>
  <speed>0.022360679774997897</speed>
  <fix>3d</fix>
</trkpt>
<trkpt lat="40.0713749" lon="-105.229789">
  <ele>1583.0</ele>
  <time>2026-08-28T17:56:54Z</time>
  <course>0.0</course>
  <speed>0.0</speed>
  <fix>3d</fix>
</trkpt>
<trkpt lat="40.0713749" lon="-105.229789">
  <ele>1583.0</ele>
  <time>2026-08-28T17:56:54Z</time>
  <course>248.16</course>
  <speed>0.022360679774997897</speed>
  <fix>3d</fix>
</trkpt>
<trkpt lat="40.0713749" lon="-105.229789">
  <ele>1583.0</ele>
  <time>2026-08-28T17:56:54Z</time>
  <course>0.0</course>
  <speed>0.0</speed>
  <fix>3d</fix>
</trkpt>
<trkpt lat="40.0713749" lon="-105.229789">
  <ele>1583.0</ele>
  <time>2026-08-28T17:56:54Z</time>
  <course>248.15</course>
  <speed>0.022360679774997897</speed>
  <fix>3d</fix>
</trkpt>
<trkpt lat="40.0713749" lon="-105.229789">
  <ele>1583.0</ele>
  <time>2026-08-28T17:56:54Z</time>
  <course>0.0</course>
  <speed>0.0</speed>
  <fix>3d</fix>
</trkpt>
<trkpt lat="40.0713749" lon="-105.229789">
  <ele>1583.0</ele>
  <time>2026-08-28T17:56:54Z</time>
  <course>248.15</course>
  <speed>0.022360679774997897</speed>
  <fix>3d</fix>
</trkpt>
<trkpt lat="40.0713749" lon="-105.229789">
  <ele>1583.0</ele>
  <time>2026-08-28T17:56:54Z</time>
  <course>0.0</course>
  <speed>0.0</speed>
  <fix>3d</fix>
</trkpt>
<trkpt lat="40.0713749" lon="-105.229789">
  <ele>1583.0</ele>
  <time>2026-08-28T17:56:54Z</time>
  <course>248.14</course>
  <speed>0.022360679774997897</speed>
  <fix>3d</fix>
</trkpt>
<trkpt lat="40.0713749" lon="-105.229789">
  <ele>1583.0</ele>
  <time>2026-08-28T17:56:54Z</time>
  <course>0.0</course>
  <speed>0.0</speed>
  <fix>3d</fix>
</trkpt>
<trkpt lat="40.0713749" lon="-105.229789">
  <ele>1583.0</ele>
  <time>2026-08-28T17:56:54Z</time>
  <course>248.14</course>
  <speed>0.022360679774997897</speed>
  <fix>3d</fix>
</trkpt>
<trkpt lat="40.0713749" lon="-105.229789">
  <ele>1583.0</ele>
  <time>2026-08-28T17:56:54Z</time>
  <course>0.0</course>
  <speed>0.0</speed>
  <fix>3d</fix>
</trkpt>
<trkpt lat="40.0713749" lon="-105.229789">
  <ele>1583.0</ele>
  <time>2026-08-28T17:56:54Z</time>
  <course>248.13</course>
  <speed>0.022360679774997897</speed>
  <fix>3d</fix>
</trkpt>
<trkpt lat="40.0713749" lon="-105.229789">
  <ele>1583.0</ele>
  <time>2026-08-28T17:56:54Z</time>
  <course>0.0</course>
  <speed>0.0</speed>
  <fix>3d</fix>
</trkpt>
<trkpt lat="40.0713749" lon="-105.229789">
  <ele>1583.0</ele>
  <time>2026-08-28T17:56:54Z</time>
  <course>248.13</course>
  <speed>0.022360679774997897</speed>
  <fix>3d</fix>
</trkpt>
<trkpt lat="40.0713749" lon="-105.229789">
  <ele>1583.0</ele>
  <time>2026-08-28T17:56:54Z</time>
  <course>0.0</course>
  <speed>0.0</speed>
  <fix>3d</fix>
</trkpt>
<trkpt lat="40.0713749" lon="-105.229789">
  <ele>1583.0</ele>
  <time>2026-08-28T17:56:54Z</time>
  <course>248.12</course>
  <speed>0.022360679774997897</speed>
  <fix>3d</fix>
</trkpt>
<trkpt lat="40.0713749" lon="-105.229789">
  <ele>1583.0</ele>
  <time>2026-08-28T17:56:54Z</time>
  <course>0.0</course>
  <speed>0.0</speed>
  <fix>3d</fix>
</trkpt>
<trkpt lat="40.0713749" lon="-105.229789">
  <ele>1583.0</ele>
  <time>2026-08-28T17:56:54Z</time>
  <course>248.12</course>
  <speed>0.022360679774997897</speed>
  <fix>3d</fix>
</trkpt>
<trkpt lat="40.0713749" lon="-105.229789">
  <ele>1583.0</ele>
  <time>2026-08-28T17:56:54Z</time>
  <course>0.0</course>
  <speed>0.0</speed>
  <fix>3d</fix>
</trkpt>
<trkpt lat="40.0713749" lon="-105.229789">
  <ele>1583.0</ele>
  <time>2026-08-28T17:56:54Z</time>
  <course>248.11</course>
  <speed>0.022360679774997897</speed>
  <fix>3d</fix>
</trkpt>
<trkpt lat="40.0713749" lon="-105.229789">
  <ele>1583.0</ele>
  <time>2026-08-28T17:56:54Z</time>
  <course>0.0</course>
  <speed>0.0</speed>
  <fix>3d</fix>
</trkpt>
<trkpt lat="40.0713749" lon="-105.229789">
  <ele>1583.0</ele>
  <time>2026-08-28T17:56:54Z</time>
  <course>248.11</course>
  <speed>0.022360679774997897</speed>
  <fix>3d</fix>
</trkpt>
<trkpt lat="40.0713749" lon="-105.229789">
  <ele>1583.0</ele>
  <time>2026-08-28T17:56:54Z</time>
  <course>0.0</course>
  <speed>0.0</speed>
  <fix>3d</fix>
</trkpt>
<trkpt lat="40.0713749" lon="-105.229789">
  <ele>1583.0</ele>
  <time>2026-08-28T17:56:54Z</time>
  <course>248.1</course>
  <speed>0.022360679774997897</speed>
  <fix>3d</fix>
</trkpt>
<trkpt lat="40.0713749" lon="-105.229789">
  <ele>1583.0</ele>
  <time>2026-08-28T17:56:54Z</time>
  <course>0.0</course>
  <speed>0.0</speed>
  <fix>3d</fix>
</trkpt>
<trkpt lat="40.0713749" lon="-105.229789">
  <ele>1583.0</ele>
  <time>2026-08-28T17:56:54Z</time>
  <course>248.1</course>
  <speed>0.022360679774997897</speed>
  <fix>3d</fix>
</trkpt>
<trkpt lat="40.0713749" lon="-105.229789">
  <ele>1583.0</ele>
  <time>2026-08-28T17:56:54Z</time>
  <course>0.0</course>
  <speed>0.0</speed>
  <fix>3d</fix>
</trkpt>
<trkpt lat="40.0713749" lon="-105.229789">
  <ele>1583.0</ele>
  <time>2026-08-28T17:56:54Z</time>
  <course>248.09</course>
  <speed>0.022360679774997897</speed>
  <fix>3d</fix>
</trkpt>
<trkpt lat="40.0713749" lon="-105.229789">
  <ele>1583.0</ele>
  <time>2026-08-28T17:56:54Z</time>
  <course>0.0</course>
  <speed>0.0</speed>
  <fix>3d</fix>
</trkpt>
<trkpt lat="40.0713749" lon="-105.229789">
  <ele>1583.0</ele>
  <time>2026-08-28T17:56:54Z</time>
  <course>248.09</course>
  <speed>0.022360679774997897</speed>
  <fix>3d</fix>
</trkpt>
<trkpt lat="40.0713749" lon="-105.229789">
  <ele>1583.0</ele>
  <time>2026-08-28T17:56:54Z</time>
  <course>0.0</course>
  <speed>0.0</speed>
  <fix>3d</fix>
</trkpt>
<trkpt lat="40.0713749" lon="-105.229789">
  <ele>1583.0</ele>
  <time>2026-08-28T17:56:54Z</time>
  <course>248.08</course>
  <speed>0.022360679774997897</speed>
  <fix>3d</fix>
</trkpt>
<trkpt lat="40.0713749" lon="-105.229789">
  <ele>1583.0</ele>
  <time>2026-08-28T17:56:54Z</time>
  <course>0.0</course>
  <speed>0.0</speed>
  <fix>3d</fix>
</trkpt>
<trkpt lat="40.0713749" lon="-105.229789">
  <ele>1583.0</ele>
  <time>2026-08-28T17:56:54Z</time>
  <course>248.08</course>
  <speed>0.022360679774997897</speed>
  <fix>3d</fix>
</trkpt>
<trkpt lat="40.0713749" lon="-105.229789">
  <ele>1583.0</ele>
  <time>2026-08-28T17:56:54Z</time>
  <course>0.0</course>
  <speed>0.0</speed>
  <fix>3d</fix>
</trkpt>
<trkpt lat="40.0713749" lon="-105.229789">
  <ele>1583.0</ele>
  <time>2026-08-28T17:56:54Z</time>
  <course>248.07</course>
  <speed>0.022360679774997897</speed>
  <fix>3d</fix>
</trkpt>
<trkpt lat="40.0713749" lon="-105.229789">
  <ele>1583.0</ele>
  <time>2026-08-28T17:56:54Z</time>
  <course>0.0</course>
  <speed>0.0</speed>
  <fix>3d</fix>
</trkpt>
<trkpt lat="40.0713749" lon="-105.229789">
  <ele>1583.0</ele>
  <time>2026-08-28T17:56:54Z</time>
  <course>248.07</course>
  <speed>0.022360679774997897</speed>
  <fix>3d</fix>
</trkpt>
<trkpt lat="40.0713749" lon="-105.229789">
  <ele>1583.0</ele>
  <time>2026-08-28T17:56:54Z</time>
  <course>0.0</course>
  <speed>0.0</speed>
  <fix>3d</fix>
</trkpt>
<trkpt lat="40.0713749" lon="-105.229789">
  <ele>1583.0</ele>
  <time>2026-08-28T17:56:54Z</time>
  <course>248.06</course>
  <speed>0.022360679774997897</speed>
  <fix>3d</fix>
</trkpt>
<trkpt lat="40.0713749" lon="-105.229789">
  <ele>1583.0</ele>
  <time>2026-08-28T17:56:54Z</time>
  <course>0.0</course>
  <speed>0.0</speed>
  <fix>3d</fix>
</trkpt>
<trkpt lat="40.0713749" lon="-105.229789">
  <ele>1583.0</ele>
  <time>2026-08-28T17:56:54Z</time>
  <course>248.06</course>
  <speed>0.022360679774997897</speed>
  <fix>3d</fix>
</trkpt>
<trkpt lat="40.0713749" lon="-105.229789">
  <ele>1583.0</ele>
  <time>2026-08-28T17:56:54Z</time>
  <course>0.0</course>
  <speed>0.0</speed>
  <fix>3d</fix>
</trkpt>
<trkpt lat="40.0713749" lon="-105.229789">
  <ele>1583.0</ele>
  <time>2026-08-28T17:56:54Z</time>
  <course>248.05</course>
  <speed>0.022360679774997897</speed>
  <fix>3d</fix>
</trkpt>
<trkpt lat="40.0713749" lon="-105.229789">
  <ele>1583.0</ele>
  <time>2026-08-28T17:56:54Z</time>
  <course>0.0</course>
  <speed>0.0</speed>
  <fix>3d</fix>
</trkpt>
<trkpt lat="40.0713749" lon="-105.229789">
  <ele>1583.0</ele>
  <time>2026-08-28T17:56:54Z</time>
  <course>248.05</course>
  <speed>0.022360679774997897</speed>
  <fix>3d</fix>
</trkpt>
<trkpt lat="40.0713749" lon="-105.229789">
  <ele>1583.0</ele>
  <time>2026-08-28T17:56:54Z</time>
  <course>0.0</course>
  <speed>0.0</speed>
  <fix>3d</fix>
</trkpt>
<trkpt lat="40.0713749" lon="-105.229789">
  <ele>1583.0</ele>
  <time>2026-08-28T17:56:54Z</time>
  <course>248.05</course>
  <speed>0.022360679774997897</speed>
  <fix>3d</fix>
</trkpt>
<trkpt lat="40.0713749" lon="-105.229789">
  <ele>1583.0</ele>
  <time>2026-08-28T17:56:54Z</time>
  <course>0.0</course>
  <speed>0.0</speed>
  <fix>3d</fix>
</trkpt>
<trkpt lat="40.0713749" lon="-105.229789">
  <ele>1583.0</ele>
  <time>2026-08-28T17:56:54Z</time>
  <course>248.04</course>
  <speed>0.022360679774997897</speed>
  <fix>3d</fix>
</trkpt>
<trkpt lat="40.0713749" lon="-105.229789">
  <ele>1583.0</ele>
  <time>2026-08-28T17:56:54Z</time>
  <course>0.0</course>
  <speed>0.0</speed>
  <fix>3d</fix>
</trkpt>
<trkpt lat="40.0713749" lon="-105.229789">
  <ele>1583.0</ele>
  <time>2026-08-28T17:56:54Z</time>
  <course>248.04</course>
  <speed>0.022360679774997897</speed>
  <fix>3d</fix>
</trkpt>
<trkpt lat="40.0713749" lon="-105.229789">
  <ele>1583.0</ele>
  <time>2026-08-28T17:56:54Z</time>
  <course>0.0</course>
  <speed>0.0</speed>
  <fix>3d</fix>
</trkpt>
<trkpt lat="40.0713749" lon="-105.229789">
  <ele>1583.0</ele>
  <time>2026-08-28T17:56:54Z</time>
  <course>248.03</course>
  <speed>0.022360679774997897</speed>
  <fix>3d</fix>
</trkpt>
<trkpt lat="40.0713749" lon="-105.229789">
  <ele>1583.0</ele>
  <time>2026-08-28T17:56:54Z</time>
  <course>0.0</course>
  <speed>0.0</speed>
  <fix>3d</fix>
</trkpt>
<trkpt lat="40.0713749" lon="-105.229789">
  <ele>1583.0</ele>
  <time>2026-08-28T17:56:54Z</time>
  <course>248.03</course>
  <speed>0.022360679774997897</speed>
  <fix>3d</fix>
</trkpt>
<trkpt lat="40.0713749" lon="-105.229789">
  <ele>1583.0</ele>
  <time>2026-08-28T17:56:54Z</time>
  <course>0.0</course>
  <speed>0.0</speed>
  <fix>3d</fix>
</trkpt>
<trkpt lat="40.0713749" lon="-105.229789">
  <ele>1583.0</ele>
  <time>2026-08-28T17:56:54Z</time>
  <course>248.02</course>
  <speed>0.022360679774997897</speed>
  <fix>3d</fix>
</trkpt>
<trkpt lat="40.0713749" lon="-105.229789">
  <ele>1583.0</ele>
  <time>2026-08-28T17:56:54Z</time>
  <course>0.0</course>
  <speed>0.0</speed>
  <fix>3d</fix>
</trkpt>
<trkpt lat="40.0713749" lon="-105.229789">
  <ele>1583.0</ele>
  <time>2026-08-28T17:56:54Z</time>
  <course>248.02</course>
  <speed>0.022360679774997897</speed>
  <fix>3d</fix>
</trkpt>
<trkpt lat="40.0713749" lon="-105.229789">
  <ele>1583.0</ele>
  <time>2026-08-28T17:56:54Z</time>
  <course>0.0</course>
  <speed>0.0</speed>
  <fix>3d</fix>
</trkpt>
<trkpt lat="40.0713749" lon="-105.229789">
  <ele>1583.0</ele>
  <time>2026-08-28T17:56:54Z</time>
  <course>248.01</course>
  <speed>0.022360679774997897</speed>
  <fix>3d</fix>
</trkpt>
<trkpt lat="40.0713749" lon="-105.229789">
  <ele>1583.0</ele>
  <time>2026-08-28T17:56:54Z</time>
  <course>0.0</course>
  <speed>0.0</speed>
  <fix>3d</fix>
</trkpt>
<trkpt lat="40.0713749" lon="-105.229789">
  <ele>1583.0</ele>
  <time>2026-08-28T17:56:54Z</time>
  <course>248.01</course>
  <speed>0.022360679774997897</speed>
  <fix>3d</fix>
</trkpt>
<trkpt lat="40.0713749" lon="-105.229789">
  <ele>1583.0</ele>
  <time>2026-08-28T17:56:54Z</time>
  <course>0.0</course>
  <speed>0.0</speed>
  <fix>3d</fix>
</trkpt>
<trkpt lat="40.0713749" lon="-105.229789">
  <ele>1583.0</ele>
  <time>2026-08-28T17:56:54Z</time>
  <course>248.0</course>
  <speed>0.022360679774997897</speed>
  <fix>3d</fix>
</trkpt>
<trkpt lat="40.0713749" lon="-105.229789">
  <ele>1583.0</ele>
  <time>2026-08-28T17:56:54Z</time>
  <course>0.0</course>
  <speed>0.0</speed>
  <fix>3d</fix>
</trkpt>
<trkpt lat="40.0713749" lon="-105.229789">
  <ele>1583.0</ele>
  <time>2026-08-28T17:56:54Z</time>
  <course>248.0</course>
  <speed>0.022360679774997897</speed>
  <fix>3d</fix>
</trkpt>
<trkpt lat="40.0713749" lon="-105.229789">
  <ele>1583.0</ele>
  <time>2026-08-28T17:56:54Z</time>
  <course>0.0</course>
  <speed>0.0</speed>
  <fix>3d</fix>
</trkpt>
<trkpt lat="40.0713749" lon="-105.229789">
  <ele>1583.0</ele>
  <time>2026-08-28T17:56:54Z</time>
  <course>247.99</course>
  <speed>0.022360679774997897</speed>
  <fix>3d</fix>
</trkpt>
<trkpt lat="40.0713749" lon="-105.229789">
  <ele>1583.0</ele>
  <time>2026-08-28T17:56:54Z</time>
  <course>0.0</course>
  <speed>0.0</speed>
  <fix>3d</fix>
</trkpt>
<trkpt lat="40.0713749" lon="-105.229789">
  <ele>1583.0</ele>
  <time>2026-08-28T17:56:54Z</time>
  <course>247.99</course>
  <speed>0.022360679774997897</speed>
  <fix>3d</fix>
</trkpt>
<trkpt lat="40.0713749" lon="-105.229789">
  <ele>1583.0</ele>
  <time>2026-08-28T17:56:54Z</time>
  <course>0.0</course>
  <speed>0.0</speed>
  <fix>3d</fix>
</trkpt>
<trkpt lat="40.0713749" lon="-105.229789">
  <ele>1583.0</ele>
  <time>2026-08-28T17:56:54Z</time>
  <course>247.99</course>
  <speed>0.022360679774997897</speed>
  <fix>3d</fix>
</trkpt>
<trkpt lat="40.0713749" lon="-105.229789">
  <ele>1583.0</ele>
  <time>2026-08-28T17:56:54Z</time>
  <course>0.0</course>
  <speed>0.0</speed>
  <fix>3d</fix>
</trkpt>
<trkpt lat="40.0713749" lon="-105.229789">
  <ele>1583.0</ele>
  <time>2026-08-28T17:56:54Z</time>
  <course>247.98</course>
  <speed>0.022360679774997897</speed>
  <fix>3d</fix>
</trkpt>
<trkpt lat="40.0713749" lon="-105.229789">
  <ele>1583.0</ele>
  <time>2026-08-28T17:56:54Z</time>
  <course>0.0</course>
  <speed>0.0</speed>
  <fix>3d</fix>
</trkpt>
<trkpt lat="40.0713749" lon="-105.229789">
  <ele>1583.0</ele>
  <time>2026-08-28T17:56:54Z</time>
  <course>247.98</course>
  <speed>0.022360679774997897</speed>
  <fix>3d</fix>
</trkpt>
<trkpt lat="40.0713749" lon="-105.229789">
  <ele>1583.0</ele>
  <time>2026-08-28T17:56:54Z</time>
  <course>0.0</course>
  <speed>0.0</speed>
  <fix>3d</fix>
</trkpt>
<trkpt lat="40.0713749" lon="-105.229789">
  <ele>1583.0</ele>
  <time>2026-08-28T17:56:54Z</time>
  <course>247.97</course>
  <speed>0.022360679774997897</speed>
  <fix>3d</fix>
</trkpt>
<trkpt lat="40.0713749" lon="-105.229789">
  <ele>1583.0</ele>
  <time>2026-08-28T17:56:54Z</time>
  <course>0.0</course>
  <speed>0.0</speed>
  <fix>3d</fix>
</trkpt>
<trkpt lat="40.0713749" lon="-105.229789">
  <ele>1583.0</ele>
  <time>2026-08-28T17:56:54Z</time>
  <course>247.97</course>
  <speed>0.022360679774997897</speed>
  <fix>3d</fix>
</trkpt>
<trkpt lat="40.0713749" lon="-105.229789">
  <ele>1583.0</ele>
  <time>2026-08-28T17:56:54Z</time>
  <course>0.0</course>
  <speed>0.0</speed>
  <fix>3d</fix>
</trkpt>
<trkpt lat="40.0713749" lon="-105.229789">
  <ele>1583.0</ele>
  <time>2026-08-28T17:56:54Z</time>
  <course>247.96</course>
  <speed>0.022360679774997897</speed>
  <fix>3d</fix>
</trkpt>
<trkpt lat="40.0713749" lon="-105.229789">
  <ele>1583.0</ele>
  <time>2026-08-28T17:56:54Z</time>
  <course>0.0</course>
  <speed>0.0</speed>
  <fix>3d</fix>
</trkpt>
<trkpt lat="40.0713749" lon="-105.229789">
  <ele>1583.0</ele>
  <time>2026-08-28T17:56:54Z</time>
  <course>247.96</course>
  <speed>0.022360679774997897</speed>
  <fix>3d</fix>
</trkpt>
<trkpt lat="40.0713749" lon="-105.229789">
  <ele>1583.0</ele>
  <time>2026-08-28T17:56:54Z</time>
  <course>0.0</course>
  <speed>0.0</speed>
  <fix>3d</fix>
</trkpt>
<trkpt lat="40.0713749" lon="-105.229789">
  <ele>1583.0</ele>
  <time>2026-08-28T17:56:54Z</time>
  <course>247.95</course>
  <speed>0.022360679774997897</speed>
  <fix>3d</fix>
</trkpt>
<trkpt lat="40.0713749" lon="-105.229789">
  <ele>1583.0</ele>
  <time>2026-08-28T17:56:54Z</time>
  <course>0.0</course>
  <speed>0.0</speed>
  <fix>3d</fix>
</trkpt>
<trkpt lat="40.0713749" lon="-105.229789">
  <ele>1583.0</ele>
  <time>2026-08-28T17:56:54Z</time>
  <course>247.95</course>
  <speed>0.022360679774997897</speed>
  <fix>3d</fix>
</trkpt>
<trkpt lat="40.0713749" lon="-105.229789">
  <ele>1583.0</ele>
  <time>2026-08-28T17:56:54Z</time>
  <course>0.0</course>
  <speed>0.0</speed>
  <fix>3d</fix>
</trkpt>
<trkpt lat="40.0713749" lon="-105.229789">
  <ele>1583.0</ele>
  <time>2026-08-28T17:56:54Z</time>
  <course>247.95</course>
  <speed>0.022360679774997897</speed>
  <fix>3d</fix>
</trkpt>
<trkpt lat="40.0713749" lon="-105.229789">
  <ele>1583.0</ele>
  <time>2026-08-28T17:56:54Z</time>
  <course>0.0</course>
  <speed>0.0</speed>
  <fix>3d</fix>
</trkpt>
<trkpt lat="40.0713749" lon="-105.229789">
  <ele>1583.0</ele>
  <time>2026-08-28T17:56:54Z</time>
  <course>247.94</course>
  <speed>0.022360679774997897</speed>
  <fix>3d</fix>
</trkpt>
<trkpt lat="40.0713749" lon="-105.229789">
  <ele>1583.0</ele>
  <time>2026-08-28T17:56:54Z</time>
  <course>0.0</course>
  <speed>0.0</speed>
  <fix>3d</fix>
</trkpt>
<trkpt lat="40.0713749" lon="-105.229789">
  <ele>1583.0</ele>
  <time>2026-08-28T17:56:54Z</time>
  <course>247.94</course>
  <speed>0.022360679774997897</speed>
  <fix>3d</fix>
</trkpt>
<trkpt lat="40.0713749" lon="-105.229789">
  <ele>1583.0</ele>
  <time>2026-08-28T17:56:54Z</time>
  <course>0.0</course>
  <speed>0.0</speed>
  <fix>3d</fix>
</trkpt>
<trkpt lat="40.0713749" lon="-105.229789">
  <ele>1583.0</ele>
  <time>2026-08-28T17:56:54Z</time>
  <course>247.93</course>
  <speed>0.022360679774997897</speed>
  <fix>3d</fix>
</trkpt>
<trkpt lat="40.0713749" lon="-105.229789">
  <ele>1583.0</ele>
  <time>2026-08-28T17:56:54Z</time>
  <course>0.0</course>
  <speed>0.0</speed>
  <fix>3d</fix>
</trkpt>
<trkpt lat="40.0713749" lon="-105.229789">
  <ele>1583.0</ele>
  <time>2026-08-28T17:56:54Z</time>
  <course>247.93</course>
  <speed>0.022360679774997897</speed>
  <fix>3d</fix>
</trkpt>
<trkpt lat="40.0713749" lon="-105.229789">
  <ele>1583.0</ele>
  <time>2026-08-28T17:56:54Z</time>
  <course>0.0</course>
  <speed>0.0</speed>
  <fix>3d</fix>
</trkpt>
<trkpt lat="40.0713749" lon="-105.229789">
  <ele>1583.0</ele>
  <time>2026-08-28T17:56:54Z</time>
  <course>247.92</course>
  <speed>0.022360679774997897</speed>
  <fix>3d</fix>
</trkpt>
<trkpt lat="40.0713749" lon="-105.229789">
  <ele>1583.0</ele>
  <time>2026-08-28T17:56:54Z</time>
  <course>0.0</course>
  <speed>0.0</speed>
  <fix>3d</fix>
</trkpt>
<trkpt lat="40.0713749" lon="-105.229789">
  <ele>1583.0</ele>
  <time>2026-08-28T17:56:54Z</time>
  <course>247.92</course>
  <speed>0.022360679774997897</speed>
  <fix>3d</fix>
</trkpt>
<trkpt lat="40.0713749" lon="-105.229789">
  <ele>1583.0</ele>
  <time>2026-08-28T17:56:54Z</time>
  <course>0.0</course>
  <speed>0.0</speed>
  <fix>3d</fix>
</trkpt>
<trkpt lat="40.0713749" lon="-105.229789">
  <ele>1583.0</ele>
  <time>2026-08-28T17:56:54Z</time>
  <course>247.92</course>
  <speed>0.022360679774997897</speed>
  <fix>3d</fix>
</trkpt>
<trkpt lat="40.0713749" lon="-105.229789">
  <ele>1583.0</ele>
  <time>2026-08-28T17:56:54Z</time>
  <course>0.0</course>
  <speed>0.0</speed>
  <fix>3d</fix>
</trkpt>
<trkpt lat="40.0713749" lon="-105.229789">
  <ele>1583.0</ele>
  <time>2026-08-28T17:56:54Z</time>
  <course>247.91</course>
  <speed>0.022360679774997897</speed>
  <fix>3d</fix>
</trkpt>
<trkpt lat="40.0713749" lon="-105.229789">
  <ele>1583.0</ele>
  <time>2026-08-28T17:56:54Z</time>
  <course>0.0</course>
  <speed>0.0</speed>
  <fix>3d</fix>
</trkpt>
<trkpt lat="40.0713749" lon="-105.229789">
  <ele>1583.0</ele>
  <time>2026-08-28T17:56:54Z</time>
  <course>247.91</course>
  <speed>0.022360679774997897</speed>
  <fix>3d</fix>
</trkpt>
<trkpt lat="40.0713749" lon="-105.229789">
  <ele>1583.0</ele>
  <time>2026-08-28T17:56:54Z</time>
  <course>0.0</course>
  <speed>0.0</speed>
  <fix>3d</fix>
</trkpt>
<trkpt lat="40.0713749" lon="-105.229789">
  <ele>1583.0</ele>
  <time>2026-08-28T17:56:54Z</time>
  <course>247.9</course>
  <speed>0.022360679774997897</speed>
  <fix>3d</fix>
</trkpt>
<trkpt lat="40.0713749" lon="-105.229789">
  <ele>1583.0</ele>
  <time>2026-08-28T17:56:54Z</time>
  <course>0.0</course>
  <speed>0.0</speed>
  <fix>3d</fix>
</trkpt>
<trkpt lat="40.0713749" lon="-105.229789">
  <ele>1583.0</ele>
  <time>2026-08-28T17:56:54Z</time>
  <course>247.9</course>
  <speed>0.022360679774997897</speed>
  <fix>3d</fix>
</trkpt>
<trkpt lat="40.0713749" lon="-105.229789">
  <ele>1583.0</ele>
  <time>2026-08-28T17:56:54Z</time>
  <course>0.0</course>
  <speed>0.0</speed>
  <fix>3d</fix>
</trkpt>
<trkpt lat="40.0713749" lon="-105.229789">
  <ele>1583.0</ele>
  <time>2026-08-28T17:56:54Z</time>
  <course>247.89</course>
  <speed>0.022360679774997897</speed>
  <fix>3d</fix>
</trkpt>
<trkpt lat="40.0713749" lon="-105.229789">
  <ele>1583.0</ele>
  <time>2026-08-28T17:56:54Z</time>
  <course>0.0</course>
  <speed>0.0</speed>
  <fix>3d</fix>
</trkpt>
<trkpt lat="40.0713749" lon="-105.229789">
  <ele>1583.0</ele>
  <time>2026-08-28T17:56:54Z</time>
  <course>247.89</course>
  <speed>0.022360679774997897</speed>
  <fix>3d</fix>
</trkpt>
<trkpt lat="40.0713749" lon="-105.229789">
  <ele>1583.0</ele>
  <time>2026-08-28T17:56:54Z</time>
  <course>0.0</course>
  <speed>0.0</speed>
  <fix>3d</fix>
</trkpt>
<trkpt lat="40.0713749" lon="-105.229789">
  <ele>1583.0</ele>
  <time>2026-08-28T17:56:54Z</time>
  <course>247.89</course>
  <speed>0.022360679774997897</speed>
  <fix>3d</fix>
</trkpt>
<trkpt lat="40.0713749" lon="-105.229789">
  <ele>1583.0</ele>
  <time>2026-08-28T17:56:54Z</time>
  <course>0.0</course>
  <speed>0.0</speed>
  <fix>3d</fix>
</trkpt>
<trkpt lat="40.0713749" lon="-105.229789">
  <ele>1583.0</ele>
  <time>2026-08-28T17:56:54Z</time>
  <course>247.88</course>
  <speed>0.0316227766016838</speed>
  <fix>3d</fix>
</trkpt>
<trkpt lat="40.0713749" lon="-105.229789">
  <ele>1583.0</ele>
  <time>2026-08-28T17:56:54Z</time>
  <course>0.0</course>
  <speed>0.0</speed>
  <fix>3d</fix>
</trkpt>
<trkpt lat="40.0713749" lon="-105.229789">
  <ele>1583.0</ele>
  <time>2026-08-28T17:56:54Z</time>
  <course>247.88</course>
  <speed>0.0316227766016838</speed>
  <fix>3d</fix>
</trkpt>
<trkpt lat="40.0713749" lon="-105.229789">
  <ele>1583.0</ele>
  <time>2026-08-28T17:56:54Z</time>
  <course>0.0</course>
  <speed>0.0</speed>
  <fix>3d</fix>
</trkpt>
<trkpt lat="40.0713749" lon="-105.229789">
  <ele>1583.0</ele>
  <time>2026-08-28T17:56:54Z</time>
  <course>247.87</course>
  <speed>0.0316227766016838</speed>
  <fix>3d</fix>
</trkpt>
<trkpt lat="40.0713749" lon="-105.229789">
  <ele>1583.0</ele>
  <time>2026-08-28T17:56:54Z</time>
  <course>0.0</course>
  <speed>0.0</speed>
  <fix>3d</fix>
</trkpt>
<trkpt lat="40.0713749" lon="-105.229789">
  <ele>1583.0</ele>
  <time>2026-08-28T17:56:54Z</time>
  <course>247.87</course>
  <speed>0.0316227766016838</speed>
  <fix>3d</fix>
</trkpt>
<trkpt lat="40.0713749" lon="-105.229789">
  <ele>1583.0</ele>
  <time>2026-08-28T17:56:54Z</time>
  <course>0.0</course>
  <speed>0.0</speed>
  <fix>3d</fix>
</trkpt>
<trkpt lat="40.0713749" lon="-105.229789">
  <ele>1583.0</ele>
  <time>2026-08-28T17:56:54Z</time>
  <course>247.87</course>
  <speed>0.0316227766016838</speed>
  <fix>3d</fix>
</trkpt>
<trkpt lat="40.0713749" lon="-105.229789">
  <ele>1583.0</ele>
  <time>2026-08-28T17:56:54Z</time>
  <course>0.0</course>
  <speed>0.0</speed>
  <fix>3d</fix>
</trkpt>
<trkpt lat="40.0713749" lon="-105.229789">
  <ele>1583.0</ele>
  <time>2026-08-28T17:56:54Z</time>
  <course>247.86</course>
  <speed>0.0316227766016838</speed>
  <fix>3d</fix>
</trkpt>
<trkpt lat="40.0713749" lon="-105.229789">
  <ele>1583.0</ele>
  <time>2026-08-28T17:56:54Z</time>
  <course>0.0</course>
  <speed>0.0</speed>
  <fix>3d</fix>
</trkpt>
<trkpt lat="40.0713749" lon="-105.229789">
  <ele>1583.0</ele>
  <time>2026-08-28T17:56:54Z</time>
  <course>247.86</course>
  <speed>0.0316227766016838</speed>
  <fix>3d</fix>
</trkpt>
<trkpt lat="40.0713749" lon="-105.229789">
  <ele>1583.0</ele>
  <time>2026-08-28T17:56:54Z</time>
  <course>0.0</course>
  <speed>0.0</speed>
  <fix>3d</fix>
</trkpt>
<trkpt lat="40.0713749" lon="-105.229789">
  <ele>1583.0</ele>
  <time>2026-08-28T17:56:54Z</time>
  <course>247.85</course>
  <speed>0.0316227766016838</speed>
  <fix>3d</fix>
</trkpt>
<trkpt lat="40.0713749" lon="-105.229789">
  <ele>1583.0</ele>
  <time>2026-08-28T17:56:54Z</time>
  <course>0.0</course>
  <speed>0.0</speed>
  <fix>3d</fix>
</trkpt>
<trkpt lat="40.0713749" lon="-105.229789">
  <ele>1583.0</ele>
  <time>2026-08-28T17:56:54Z</time>
  <course>247.85</course>
  <speed>0.0316227766016838</speed>
  <fix>3d</fix>
</trkpt>
<trkpt lat="40.0713749" lon="-105.229789">
  <ele>1583.0</ele>
  <time>2026-08-28T17:56:54Z</time>
  <course>0.0</course>
  <speed>0.0</speed>
  <fix>3d</fix>
</trkpt>
<trkpt lat="40.0713749" lon="-105.229789">
  <ele>1583.0</ele>
  <time>2026-08-28T17:56:54Z</time>
  <course>247.85</course>
  <speed>0.0316227766016838</speed>
  <fix>3d</fix>
</trkpt>
<trkpt lat="40.0713749" lon="-105.229789">
  <ele>1583.0</ele>
  <time>2026-08-28T17:56:54Z</time>
  <course>0.0</course>
  <speed>0.0</speed>
  <fix>3d</fix>
</trkpt>
<trkpt lat="40.0713749" lon="-105.229789">
  <ele>1583.0</ele>
  <time>2026-08-28T17:56:54Z</time>
  <course>247.84</course>
  <speed>0.0316227766016838</speed>
  <fix>3d</fix>
</trkpt>
<trkpt lat="40.0713749" lon="-105.229789">
  <ele>1583.0</ele>
  <time>2026-08-28T17:56:54Z</time>
  <course>0.0</course>
  <speed>0.0</speed>
  <fix>3d</fix>
</trkpt>
<trkpt lat="40.0713749" lon="-105.229789">
  <ele>1583.0</ele>
  <time>2026-08-28T17:56:54Z</time>
  <course>247.84</course>
  <speed>0.0316227766016838</speed>
  <fix>3d</fix>
</trkpt>
<trkpt lat="40.0713749" lon="-105.229789">
  <ele>1583.0</ele>
  <time>2026-08-28T17:56:54Z</time>
  <course>0.0</course>
  <speed>0.0</speed>
  <fix>3d</fix>
</trkpt>
<trkpt lat="40.0713749" lon="-105.229789">
  <ele>1583.0</ele>
  <time>2026-08-28T17:56:54Z</time>
  <course>247.83</course>
  <speed>0.0316227766016838</speed>
  <fix>3d</fix>
</trkpt>
<trkpt lat="40.0713749" lon="-105.229789">
  <ele>1583.0</ele>
  <time>2026-08-28T17:56:54Z</time>
  <course>0.0</course>
  <speed>0.0</speed>
  <fix>3d</fix>
</trkpt>
<trkpt lat="40.0713749" lon="-105.229789">
  <ele>1583.0</ele>
  <time>2026-08-28T17:56:54Z</time>
  <course>247.83</course>
  <speed>0.0316227766016838</speed>
  <fix>3d</fix>
</trkpt>
<trkpt lat="40.0713749" lon="-105.229789">
  <ele>1583.0</ele>
  <time>2026-08-28T17:56:54Z</time>
  <course>0.0</course>
  <speed>0.0</speed>
  <fix>3d</fix>
</trkpt>
<trkpt lat="40.0713749" lon="-105.229789">
  <ele>1583.0</ele>
  <time>2026-08-28T17:56:54Z</time>
  <course>247.83</course>
  <speed>0.0316227766016838</speed>
  <fix>3d</fix>
</trkpt>
<trkpt lat="40.0713749" lon="-105.229789">
  <ele>1583.0</ele>
  <time>2026-08-28T17:56:54Z</time>
  <course>0.0</course>
  <speed>0.0</speed>
  <fix>3d</fix>
</trkpt>
<trkpt lat="40.0713749" lon="-105.229789">
  <ele>1583.0</ele>
  <time>2026-08-28T17:56:54Z</time>
  <course>247.82</course>
  <speed>0.0316227766016838</speed>
  <fix>3d</fix>
</trkpt>
<trkpt lat="40.0713749" lon="-105.229789">
  <ele>1583.0</ele>
  <time>2026-08-28T17:56:54Z</time>
  <course>0.0</course>
  <speed>0.0</speed>
  <fix>3d</fix>
</trkpt>
<trkpt lat="40.0713749" lon="-105.229789">
  <ele>1583.0</ele>
  <time>2026-08-28T17:56:54Z</time>
  <course>247.82</course>
  <speed>0.0316227766016838</speed>
  <fix>3d</fix>
</trkpt>
<trkpt lat="40.0713749" lon="-105.229789">
  <ele>1583.0</ele>
  <time>2026-08-28T17:56:54Z</time>
  <course>0.0</course>
  <speed>0.0</speed>
  <fix>3d</fix>
</trkpt>
<trkpt lat="40.0713749" lon="-105.229789">
  <ele>1583.0</ele>
  <time>2026-08-28T17:56:54Z</time>
  <course>247.82</course>
  <speed>0.0316227766016838</speed>
  <fix>3d</fix>
</trkpt>
<trkpt lat="40.0713749" lon="-105.229789">
  <ele>1583.0</ele>
  <time>2026-08-28T17:56:54Z</time>
  <course>0.0</course>
  <speed>0.0</speed>
  <fix>3d</fix>
</trkpt>
<trkpt lat="40.0713749" lon="-105.229789">
  <ele>1583.0</ele>
  <time>2026-08-28T17:56:54Z</time>
  <course>247.81</course>
  <speed>0.0316227766016838</speed>
  <fix>3d</fix>
</trkpt>
<trkpt lat="40.0713749" lon="-105.229789">
  <ele>1583.0</ele>
  <time>2026-08-28T17:56:54Z</time>
  <course>0.0</course>
  <speed>0.0</speed>
  <fix>3d</fix>
</trkpt>
<trkpt lat="40.0713749" lon="-105.229789">
  <ele>1583.0</ele>
  <time>2026-08-28T17:56:54Z</time>
  <course>247.81</course>
  <speed>0.0316227766016838</speed>
  <fix>3d</fix>
</trkpt>
<trkpt lat="40.0713749" lon="-105.229789">
  <ele>1583.0</ele>
  <time>2026-08-28T17:56:54Z</time>
  <course>0.0</course>
  <speed>0.0</speed>
  <fix>3d</fix>
</trkpt>
<trkpt lat="40.0713749" lon="-105.229789">
  <ele>1583.0</ele>
  <time>2026-08-28T17:56:54Z</time>
  <course>247.8</course>
  <speed>0.0316227766016838</speed>
  <fix>3d</fix>
</trkpt>
<trkpt lat="40.0713749" lon="-105.229789">
  <ele>1583.0</ele>
  <time>2026-08-28T17:56:54Z</time>
  <course>0.0</course>
  <speed>0.0</speed>
  <fix>3d</fix>
</trkpt>
<trkpt lat="40.0713749" lon="-105.229789">
  <ele>1583.0</ele>
  <time>2026-08-28T17:56:54Z</time>
  <course>247.8</course>
  <speed>0.0316227766016838</speed>
  <fix>3d</fix>
</trkpt>
<trkpt lat="40.0713749" lon="-105.229789">
  <ele>1583.0</ele>
  <time>2026-08-28T17:56:54Z</time>
  <course>0.0</course>
  <speed>0.0</speed>
  <fix>3d</fix>
</trkpt>
<trkpt lat="40.0713749" lon="-105.229789">
  <ele>1583.0</ele>
  <time>2026-08-28T17:56:54Z</time>
  <course>247.8</course>
  <speed>0.0316227766016838</speed>
  <fix>3d</fix>
</trkpt>
<trkpt lat="40.0713749" lon="-105.229789">
  <ele>1583.0</ele>
  <time>2026-08-28T17:56:54Z</time>
  <course>0.0</course>
  <speed>0.0</speed>
  <fix>3d</fix>
</trkpt>
<trkpt lat="40.0713749" lon="-105.229789">
  <ele>1583.0</ele>
  <time>2026-08-28T17:56:54Z</time>
  <course>247.79</course>
  <speed>0.0316227766016838</speed>
  <fix>3d</fix>
</trkpt>
<trkpt lat="40.0713749" lon="-105.229789">
  <ele>1583.0</ele>
  <time>2026-08-28T17:56:54Z</time>
  <course>0.0</course>
  <speed>0.0</speed>
  <fix>3d</fix>
</trkpt>
<trkpt lat="40.0713749" lon="-105.229789">
  <ele>1583.0</ele>
  <time>2026-08-28T17:56:54Z</time>
  <course>247.79</course>
  <speed>0.0316227766016838</speed>
  <fix>3d</fix>
</trkpt>
<trkpt lat="40.0713749" lon="-105.229789">
  <ele>1583.0</ele>
  <time>2026-08-28T17:56:54Z</time>
  <course>0.0</course>
  <speed>0.0</speed>
  <fix>3d</fix>
</trkpt>
<trkpt lat="40.0713749" lon="-105.229789">
  <ele>1583.0</ele>
  <time>2026-08-28T17:56:54Z</time>
  <course>247.79</course>
  <speed>0.0316227766016838</speed>
  <fix>3d</fix>
</trkpt>
<trkpt lat="40.0713749" lon="-105.229789">
  <ele>1583.0</ele>
  <time>2026-08-28T17:56:54Z</time>
  <course>0.0</course>
  <speed>0.0</speed>
  <fix>3d</fix>
</trkpt>
<trkpt lat="40.0713749" lon="-105.229789">
  <ele>1583.0</ele>
  <time>2026-08-28T17:56:54Z</time>
  <course>247.78</course>
  <speed>0.0316227766016838</speed>
  <fix>3d</fix>
</trkpt>
<trkpt lat="40.0713749" lon="-105.229789">
  <ele>1583.0</ele>
  <time>2026-08-28T17:56:54Z</time>
  <course>0.0</course>
  <speed>0.0</speed>
  <fix>3d</fix>
</trkpt>
<trkpt lat="40.0713749" lon="-105.229789">
  <ele>1583.0</ele>
  <time>2026-08-28T17:56:54Z</time>
  <course>247.78</course>
  <speed>0.0316227766016838</speed>
  <fix>3d</fix>
</trkpt>
<trkpt lat="40.0713749" lon="-105.229789">
  <ele>1583.0</ele>
  <time>2026-08-28T17:56:54Z</time>
  <course>0.0</course>
  <speed>0.0</speed>
  <fix>3d</fix>
</trkpt>
<trkpt lat="40.0713749" lon="-105.229789">
  <ele>1583.0</ele>
  <time>2026-08-28T17:56:54Z</time>
  <course>247.78</course>
  <speed>0.0316227766016838</speed>
  <fix>3d</fix>
</trkpt>
<trkpt lat="40.0713749" lon="-105.229789">
  <ele>1583.0</ele>
  <time>2026-08-28T17:56:54Z</time>
  <course>0.0</course>
  <speed>0.0</speed>
  <fix>3d</fix>
</trkpt>
<trkpt lat="40.0713749" lon="-105.229789">
  <ele>1583.0</ele>
  <time>2026-08-28T17:56:54Z</time>
  <course>247.77</course>
  <speed>0.0316227766016838</speed>
  <fix>3d</fix>
</trkpt>
<trkpt lat="40.0713749" lon="-105.229789">
  <ele>1583.0</ele>
  <time>2026-08-28T17:56:54Z</time>
  <course>0.0</course>
  <speed>0.0</speed>
  <fix>3d</fix>
</trkpt>
<trkpt lat="40.0713749" lon="-105.229789">
  <ele>1583.0</ele>
  <time>2026-08-28T17:56:54Z</time>
  <course>247.77</course>
  <speed>0.0316227766016838</speed>
  <fix>3d</fix>
</trkpt>
<trkpt lat="40.0713749" lon="-105.229789">
  <ele>1583.0</ele>
  <time>2026-08-28T17:56:54Z</time>
  <course>0.0</course>
  <speed>0.0</speed>
  <fix>3d</fix>
</trkpt>
<trkpt lat="40.0713749" lon="-105.229789">
  <ele>1583.0</ele>
  <time>2026-08-28T17:56:54Z</time>
  <course>247.76</course>
  <speed>0.0316227766016838</speed>
  <fix>3d</fix>
</trkpt>
<trkpt lat="40.0713749" lon="-105.229789">
  <ele>1583.0</ele>
  <time>2026-08-28T17:56:54Z</time>
  <course>0.0</course>
  <speed>0.0</speed>
  <fix>3d</fix>
</trkpt>
<trkpt lat="40.0713749" lon="-105.229789">
  <ele>1583.0</ele>
  <time>2026-08-28T17:56:54Z</time>
  <course>247.76</course>
  <speed>0.0316227766016838</speed>
  <fix>3d</fix>
</trkpt>
<trkpt lat="40.0713749" lon="-105.229789">
  <ele>1583.0</ele>
  <time>2026-08-28T17:56:54Z</time>
  <course>0.0</course>
  <speed>0.0</speed>
  <fix>3d</fix>
</trkpt>
<trkpt lat="40.0713749" lon="-105.229789">
  <ele>1583.0</ele>
  <time>2026-08-28T17:56:54Z</time>
  <course>247.76</course>
  <speed>0.0316227766016838</speed>
  <fix>3d</fix>
</trkpt>
<trkpt lat="40.0713749" lon="-105.229789">
  <ele>1583.0</ele>
  <time>2026-08-28T17:56:54Z</time>
  <course>0.0</course>
  <speed>0.0</speed>
  <fix>3d</fix>
</trkpt>
<trkpt lat="40.0713749" lon="-105.229789">
  <ele>1583.0</ele>
  <time>2026-08-28T17:56:54Z</time>
  <course>247.75</course>
  <speed>0.0316227766016838</speed>
  <fix>3d</fix>
</trkpt>
<trkpt lat="40.0713749" lon="-105.229789">
  <ele>1583.0</ele>
  <time>2026-08-28T17:56:54Z</time>
  <course>0.0</course>
  <speed>0.0</speed>
  <fix>3d</fix>
</trkpt>
<trkpt lat="40.0713749" lon="-105.229789">
  <ele>1583.0</ele>
  <time>2026-08-28T17:56:54Z</time>
  <course>247.75</course>
  <speed>0.0316227766016838</speed>
  <fix>3d</fix>
</trkpt>
<trkpt lat="40.0713749" lon="-105.229789">
  <ele>1583.0</ele>
  <time>2026-08-28T17:56:54Z</time>
  <course>0.0</course>
  <speed>0.0</speed>
  <fix>3d</fix>
</trkpt>
<trkpt lat="40.0713749" lon="-105.229789">
  <ele>1583.0</ele>
  <time>2026-08-28T17:56:54Z</time>
  <course>247.75</course>
  <speed>0.0316227766016838</speed>
  <fix>3d</fix>
</trkpt>
<trkpt lat="40.0713749" lon="-105.229789">
  <ele>1583.0</ele>
  <time>2026-08-28T17:56:54Z</time>
  <course>0.0</course>
  <speed>0.0</speed>
  <fix>3d</fix>
</trkpt>
<trkpt lat="40.0713749" lon="-105.229789">
  <ele>1583.0</ele>
  <time>2026-08-28T17:56:54Z</time>
  <course>247.74</course>
  <speed>0.0316227766016838</speed>
  <fix>3d</fix>
</trkpt>
<trkpt lat="40.0713749" lon="-105.229789">
  <ele>1583.0</ele>
  <time>2026-08-28T17:56:54Z</time>
  <course>0.0</course>
  <speed>0.0</speed>
  <fix>3d</fix>
</trkpt>
<trkpt lat="40.0713749" lon="-105.229789">
  <ele>1583.0</ele>
  <time>2026-08-28T17:56:54Z</time>
  <course>247.74</course>
  <speed>0.0316227766016838</speed>
  <fix>3d</fix>
</trkpt>
<trkpt lat="40.0713749" lon="-105.229789">
  <ele>1583.0</ele>
  <time>2026-08-28T17:56:54Z</time>
  <course>0.0</course>
  <speed>0.0</speed>
  <fix>3d</fix>
</trkpt>
<trkpt lat="40.0713749" lon="-105.229789">
  <ele>1583.0</ele>
  <time>2026-08-28T17:56:54Z</time>
  <course>247.74</course>
  <speed>0.0316227766016838</speed>
  <fix>3d</fix>
</trkpt>
<trkpt lat="40.0713749" lon="-105.229789">
  <ele>1583.0</ele>
  <time>2026-08-28T17:56:54Z</time>
  <course>0.0</course>
  <speed>0.0</speed>
  <fix>3d</fix>
</trkpt>
<trkpt lat="40.0713749" lon="-105.229789">
  <ele>1583.0</ele>
  <time>2026-08-28T17:56:54Z</time>
  <course>247.73</course>
  <speed>0.0316227766016838</speed>
  <fix>3d</fix>
</trkpt>
<trkpt lat="40.0713749" lon="-105.229789">
  <ele>1583.0</ele>
  <time>2026-08-28T17:56:54Z</time>
  <course>0.0</course>
  <speed>0.0</speed>
  <fix>3d</fix>
</trkpt>
<trkpt lat="40.0713749" lon="-105.229789">
  <ele>1583.0</ele>
  <time>2026-08-28T17:56:54Z</time>
  <course>247.73</course>
  <speed>0.0316227766016838</speed>
  <fix>3d</fix>
</trkpt>
<trkpt lat="40.0713749" lon="-105.229789">
  <ele>1583.0</ele>
  <time>2026-08-28T17:56:54Z</time>
  <course>0.0</course>
  <speed>0.0</speed>
  <fix>3d</fix>
</trkpt>
<trkpt lat="40.0713749" lon="-105.229789">
  <ele>1583.0</ele>
  <time>2026-08-28T17:56:54Z</time>
  <course>247.73</course>
  <speed>0.0316227766016838</speed>
  <fix>3d</fix>
</trkpt>
<trkpt lat="40.0713749" lon="-105.229789">
  <ele>1583.0</ele>
  <time>2026-08-28T17:56:54Z</time>
  <course>0.0</course>
  <speed>0.0</speed>
  <fix>3d</fix>
</trkpt>
<trkpt lat="40.0713749" lon="-105.229789">
  <ele>1583.0</ele>
  <time>2026-08-28T17:56:54Z</time>
  <course>247.72</course>
  <speed>0.0316227766016838</speed>
  <fix>3d</fix>
</trkpt>
<trkpt lat="40.0713749" lon="-105.229789">
  <ele>1583.0</ele>
  <time>2026-08-28T17:56:54Z</time>
  <course>0.0</course>
  <speed>0.0</speed>
  <fix>3d</fix>
</trkpt>
<trkpt lat="40.0713749" lon="-105.229789">
  <ele>1583.0</ele>
  <time>2026-08-28T17:56:54Z</time>
  <course>247.72</course>
  <speed>0.0316227766016838</speed>
  <fix>3d</fix>
</trkpt>
<trkpt lat="40.0713749" lon="-105.229789">
  <ele>1583.0</ele>
  <time>2026-08-28T17:56:54Z</time>
  <course>0.0</course>
  <speed>0.0</speed>
  <fix>3d</fix>
</trkpt>
<trkpt lat="40.0713749" lon="-105.229789">
  <ele>1583.0</ele>
  <time>2026-08-28T17:56:54Z</time>
  <course>247.72</course>
  <speed>0.0316227766016838</speed>
  <fix>3d</fix>
</trkpt>
<trkpt lat="40.0713749" lon="-105.229789">
  <ele>1583.0</ele>
  <time>2026-08-28T17:56:54Z</time>
  <course>0.0</course>
  <speed>0.0</speed>
  <fix>3d</fix>
</trkpt>
<trkpt lat="40.0713749" lon="-105.229789">
  <ele>1583.0</ele>
  <time>2026-08-28T17:56:54Z</time>
  <course>247.71</course>
  <speed>0.0316227766016838</speed>
  <fix>3d</fix>
</trkpt>
<trkpt lat="40.0713749" lon="-105.229789">
  <ele>1583.0</ele>
  <time>2026-08-28T17:56:54Z</time>
  <course>0.0</course>
  <speed>0.0</speed>
  <fix>3d</fix>
</trkpt>
<trkpt lat="40.0713749" lon="-105.229789">
  <ele>1583.0</ele>
  <time>2026-08-28T17:56:54Z</time>
  <course>247.71</course>
  <speed>0.0316227766016838</speed>
  <fix>3d</fix>
</trkpt>
<trkpt lat="40.0713749" lon="-105.229789">
  <ele>1583.0</ele>
  <time>2026-08-28T17:56:54Z</time>
  <course>0.0</course>
  <speed>0.0</speed>
  <fix>3d</fix>
</trkpt>
<trkpt lat="40.0713749" lon="-105.229789">
  <ele>1583.0</ele>
  <time>2026-08-28T17:56:54Z</time>
  <course>247.71</course>
  <speed>0.0316227766016838</speed>
  <fix>3d</fix>
</trkpt>
<trkpt lat="40.0713749" lon="-105.229789">
  <ele>1583.0</ele>
  <time>2026-08-28T17:56:54Z</time>
  <course>0.0</course>
  <speed>0.0</speed>
  <fix>3d</fix>
</trkpt>
<trkpt lat="40.0713749" lon="-105.229789">
  <ele>1583.0</ele>
  <time>2026-08-28T17:56:54Z</time>
  <course>247.7</course>
  <speed>0.0316227766016838</speed>
  <fix>3d</fix>
</trkpt>
<trkpt lat="40.0713749" lon="-105.229789">
  <ele>1583.0</ele>
  <time>2026-08-28T17:56:54Z</time>
  <course>0.0</course>
  <speed>0.0</speed>
  <fix>3d</fix>
</trkpt>
<trkpt lat="40.0713749" lon="-105.229789">
  <ele>1583.0</ele>
  <time>2026-08-28T17:56:54Z</time>
  <course>247.7</course>
  <speed>0.0316227766016838</speed>
  <fix>3d</fix>
</trkpt>
<trkpt lat="40.0713749" lon="-105.229789">
  <ele>1583.0</ele>
  <time>2026-08-28T17:56:54Z</time>
  <course>0.0</course>
  <speed>0.0</speed>
  <fix>3d</fix>
</trkpt>
<trkpt lat="40.0713749" lon="-105.229789">
  <ele>1583.0</ele>
  <time>2026-08-28T17:56:54Z</time>
  <course>247.7</course>
  <speed>0.0316227766016838</speed>
  <fix>3d</fix>
</trkpt>
<trkpt lat="40.0713749" lon="-105.229789">
  <ele>1583.0</ele>
  <time>2026-08-28T17:56:54Z</time>
  <course>0.0</course>
  <speed>0.0</speed>
  <fix>3d</fix>
</trkpt>
<trkpt lat="40.0713749" lon="-105.229789">
  <ele>1583.0</ele>
  <time>2026-08-28T17:56:54Z</time>
  <course>247.69</course>
  <speed>0.0316227766016838</speed>
  <fix>3d</fix>
</trkpt>
<trkpt lat="40.0713749" lon="-105.229789">
  <ele>1583.0</ele>
  <time>2026-08-28T17:56:54Z</time>
  <course>0.0</course>
  <speed>0.0</speed>
  <fix>3d</fix>
</trkpt>
<trkpt lat="40.0713749" lon="-105.229789">
  <ele>1583.0</ele>
  <time>2026-08-28T17:56:54Z</time>
  <course>247.69</course>
  <speed>0.0316227766016838</speed>
  <fix>3d</fix>
</trkpt>
<trkpt lat="40.0713749" lon="-105.229789">
  <ele>1583.0</ele>
  <time>2026-08-28T17:56:54Z</time>
  <course>0.0</course>
  <speed>0.0</speed>
  <fix>3d</fix>
</trkpt>
<trkpt lat="40.0713749" lon="-105.229789">
  <ele>1583.0</ele>
  <time>2026-08-28T17:56:54Z</time>
  <course>247.69</course>
  <speed>0.0316227766016838</speed>
  <fix>3d</fix>
</trkpt>
<trkpt lat="40.0713749" lon="-105.229789">
  <ele>1583.0</ele>
  <time>2026-08-28T17:56:54Z</time>
  <course>0.0</course>
  <speed>0.0</speed>
  <fix>3d</fix>
</trkpt>
<trkpt lat="40.0713749" lon="-105.229789">
  <ele>1583.0</ele>
  <time>2026-08-28T17:56:54Z</time>
  <course>247.68</course>
  <speed>0.0316227766016838</speed>
  <fix>3d</fix>
</trkpt>
<trkpt lat="40.0713749" lon="-105.229789">
  <ele>1583.0</ele>
  <time>2026-08-28T17:56:54Z</time>
  <course>0.0</course>
  <speed>0.0</speed>
  <fix>3d</fix>
</trkpt>
<trkpt lat="40.0713749" lon="-105.229789">
  <ele>1583.0</ele>
  <time>2026-08-28T17:56:54Z</time>
  <course>247.68</course>
  <speed>0.0316227766016838</speed>
  <fix>3d</fix>
</trkpt>
<trkpt lat="40.0713749" lon="-105.229789">
  <ele>1583.0</ele>
  <time>2026-08-28T17:56:54Z</time>
  <course>0.0</course>
  <speed>0.0</speed>
  <fix>3d</fix>
</trkpt>
<trkpt lat="40.0713749" lon="-105.229789">
  <ele>1583.0</ele>
  <time>2026-08-28T17:56:54Z</time>
  <course>247.68</course>
  <speed>0.0316227766016838</speed>
  <fix>3d</fix>
</trkpt>
<trkpt lat="40.0713749" lon="-105.229789">
  <ele>1583.0</ele>
  <time>2026-08-28T17:56:54Z</time>
  <course>0.0</course>
  <speed>0.0</speed>
  <fix>3d</fix>
</trkpt>
<trkpt lat="40.0713749" lon="-105.229789">
  <ele>1583.0</ele>
  <time>2026-08-28T17:56:54Z</time>
  <course>247.67</course>
  <speed>0.0316227766016838</speed>
  <fix>3d</fix>
</trkpt>
<trkpt lat="40.0713749" lon="-105.229789">
  <ele>1583.0</ele>
  <time>2026-08-28T17:56:54Z</time>
  <course>0.0</course>
  <speed>0.0</speed>
  <fix>3d</fix>
</trkpt>
<trkpt lat="40.0713749" lon="-105.229789">
  <ele>1583.0</ele>
  <time>2026-08-28T17:56:54Z</time>
  <course>247.67</course>
  <speed>0.0316227766016838</speed>
  <fix>3d</fix>
</trkpt>
<trkpt lat="40.0713749" lon="-105.229789">
  <ele>1583.0</ele>
  <time>2026-08-28T17:56:54Z</time>
  <course>0.0</course>
  <speed>0.0</speed>
  <fix>3d</fix>
</trkpt>
<trkpt lat="40.0713749" lon="-105.229789">
  <ele>1583.0</ele>
  <time>2026-08-28T17:56:54Z</time>
  <course>247.67</course>
  <speed>0.0316227766016838</speed>
  <fix>3d</fix>
</trkpt>
<trkpt lat="40.0713749" lon="-105.229789">
  <ele>1583.0</ele>
  <time>2026-08-28T17:56:54Z</time>
  <course>0.0</course>
  <speed>0.0</speed>
  <fix>3d</fix>
</trkpt>
<trkpt lat="40.0713749" lon="-105.229789">
  <ele>1583.0</ele>
  <time>2026-08-28T17:56:54Z</time>
  <course>247.66</course>
  <speed>0.0316227766016838</speed>
  <fix>3d</fix>
</trkpt>
<trkpt lat="40.0713749" lon="-105.229789">
  <ele>1583.0</ele>
  <time>2026-08-28T17:56:54Z</time>
  <course>0.0</course>
  <speed>0.0</speed>
  <fix>3d</fix>
</trkpt>
<trkpt lat="40.0713749" lon="-105.229789">
  <ele>1583.0</ele>
  <time>2026-08-28T17:56:54Z</time>
  <course>247.66</course>
  <speed>0.0316227766016838</speed>
  <fix>3d</fix>
</trkpt>
<trkpt lat="40.0713749" lon="-105.229789">
  <ele>1583.0</ele>
  <time>2026-08-28T17:56:54Z</time>
  <course>0.0</course>
  <speed>0.0</speed>
  <fix>3d</fix>
</trkpt>
<trkpt lat="40.0713749" lon="-105.229789">
  <ele>1583.0</ele>
  <time>2026-08-28T17:56:54Z</time>
  <course>247.66</course>
  <speed>0.0316227766016838</speed>
  <fix>3d</fix>
</trkpt>
<trkpt lat="40.0713749" lon="-105.229789">
  <ele>1583.0</ele>
  <time>2026-08-28T17:56:54Z</time>
  <course>0.0</course>
  <speed>0.0</speed>
  <fix>3d</fix>
</trkpt>
<trkpt lat="40.0713749" lon="-105.229789">
  <ele>1583.0</ele>
  <time>2026-08-28T17:56:54Z</time>
  <course>247.65</course>
  <speed>0.0316227766016838</speed>
  <fix>3d</fix>
</trkpt>
<trkpt lat="40.0713749" lon="-105.229789">
  <ele>1583.0</ele>
  <time>2026-08-28T17:56:54Z</time>
  <course>0.0</course>
  <speed>0.0</speed>
  <fix>3d</fix>
</trkpt>
<trkpt lat="40.0713749" lon="-105.229789">
  <ele>1583.0</ele>
  <time>2026-08-28T17:56:54Z</time>
  <course>247.65</course>
  <speed>0.0316227766016838</speed>
  <fix>3d</fix>
</trkpt>
<trkpt lat="40.0713749" lon="-105.229789">
  <ele>1583.0</ele>
  <time>2026-08-28T17:56:54Z</time>
  <course>0.0</course>
  <speed>0.0</speed>
  <fix>3d</fix>
</trkpt>
<trkpt lat="40.0713749" lon="-105.229789">
  <ele>1583.0</ele>
  <time>2026-08-28T17:56:54Z</time>
  <course>247.65</course>
  <speed>0.0316227766016838</speed>
  <fix>3d</fix>
</trkpt>
<trkpt lat="40.0713749" lon="-105.229789">
  <ele>1583.0</ele>
  <time>2026-08-28T17:56:54Z</time>
  <course>0.0</course>
  <speed>0.0</speed>
  <fix>3d</fix>
</trkpt>
<trkpt lat="40.0713749" lon="-105.229789">
  <ele>1583.0</ele>
  <time>2026-08-28T17:56:54Z</time>
  <course>247.64</course>
  <speed>0.0316227766016838</speed>
  <fix>3d</fix>
</trkpt>
<trkpt lat="40.0713749" lon="-105.229789">
  <ele>1583.0</ele>
  <time>2026-08-28T17:56:54Z</time>
  <course>0.0</course>
  <speed>0.0</speed>
  <fix>3d</fix>
</trkpt>
<trkpt lat="40.0713749" lon="-105.229789">
  <ele>1583.0</ele>
  <time>2026-08-28T17:56:54Z</time>
  <course>247.64</course>
  <speed>0.0316227766016838</speed>
  <fix>3d</fix>
</trkpt>
<trkpt lat="40.0713749" lon="-105.229789">
  <ele>1583.0</ele>
  <time>2026-08-28T17:56:54Z</time>
  <course>0.0</course>
  <speed>0.0</speed>
  <fix>3d</fix>
</trkpt>
<trkpt lat="40.0713749" lon="-105.229789">
  <ele>1583.0</ele>
  <time>2026-08-28T17:56:54Z</time>
  <course>247.64</course>
  <speed>0.0316227766016838</speed>
  <fix>3d</fix>
</trkpt>
<trkpt lat="40.0713749" lon="-105.229789">
  <ele>1583.0</ele>
  <time>2026-08-28T17:56:54Z</time>
  <course>0.0</course>
  <speed>0.0</speed>
  <fix>3d</fix>
</trkpt>
<trkpt lat="40.0713749" lon="-105.229789">
  <ele>1583.0</ele>
  <time>2026-08-28T17:56:54Z</time>
  <course>247.64</course>
  <speed>0.0316227766016838</speed>
  <fix>3d</fix>
</trkpt>
<trkpt lat="40.0713749" lon="-105.229789">
  <ele>1583.0</ele>
  <time>2026-08-28T17:56:54Z</time>
  <course>0.0</course>
  <speed>0.0</speed>
  <fix>3d</fix>
</trkpt>
<trkpt lat="40.0713749" lon="-105.229789">
  <ele>1583.0</ele>
  <time>2026-08-28T17:56:54Z</time>
  <course>247.63</course>
  <speed>0.0316227766016838</speed>
  <fix>3d</fix>
</trkpt>
<trkpt lat="40.0713749" lon="-105.229789">
  <ele>1583.0</ele>
  <time>2026-08-28T17:56:54Z</time>
  <course>0.0</course>
  <speed>0.0</speed>
  <fix>3d</fix>
</trkpt>
<trkpt lat="40.0713749" lon="-105.229789">
  <ele>1583.0</ele>
  <time>2026-08-28T17:56:54Z</time>
  <course>247.63</course>
  <speed>0.0316227766016838</speed>
  <fix>3d</fix>
</trkpt>
<trkpt lat="40.0713749" lon="-105.229789">
  <ele>1583.0</ele>
  <time>2026-08-28T17:56:54Z</time>
  <course>0.0</course>
  <speed>0.0</speed>
  <fix>3d</fix>
</trkpt>
<trkpt lat="40.0713749" lon="-105.229789">
  <ele>1583.0</ele>
  <time>2026-08-28T17:56:54Z</time>
  <course>247.63</course>
  <speed>0.0316227766016838</speed>
  <fix>3d</fix>
</trkpt>
<trkpt lat="40.0713749" lon="-105.229789">
  <ele>1583.0</ele>
  <time>2026-08-28T17:56:54Z</time>
  <course>0.0</course>
  <speed>0.0</speed>
  <fix>3d</fix>
</trkpt>
<trkpt lat="40.0713749" lon="-105.229789">
  <ele>1583.0</ele>
  <time>2026-08-28T17:56:54Z</time>
  <course>247.62</course>
  <speed>0.0316227766016838</speed>
  <fix>3d</fix>
</trkpt>
<trkpt lat="40.0713749" lon="-105.229789">
  <ele>1583.0</ele>
  <time>2026-08-28T17:56:54Z</time>
  <course>0.0</course>
  <speed>0.0</speed>
  <fix>3d</fix>
</trkpt>
<trkpt lat="40.0713749" lon="-105.229789">
  <ele>1583.0</ele>
  <time>2026-08-28T17:56:54Z</time>
  <course>247.62</course>
  <speed>0.0316227766016838</speed>
  <fix>3d</fix>
</trkpt>
<trkpt lat="40.0713749" lon="-105.229789">
  <ele>1583.0</ele>
  <time>2026-08-28T17:56:54Z</time>
  <course>0.0</course>
  <speed>0.0</speed>
  <fix>3d</fix>
</trkpt>
<trkpt lat="40.0713749" lon="-105.229789">
  <ele>1583.0</ele>
  <time>2026-08-28T17:56:54Z</time>
  <course>247.62</course>
  <speed>0.0316227766016838</speed>
  <fix>3d</fix>
</trkpt>
<trkpt lat="40.0713749" lon="-105.229789">
  <ele>1583.0</ele>
  <time>2026-08-28T17:56:54Z</time>
  <course>0.0</course>
  <speed>0.0</speed>
  <fix>3d</fix>
</trkpt>
<trkpt lat="40.0713749" lon="-105.229789">
  <ele>1583.0</ele>
  <time>2026-08-28T17:56:54Z</time>
  <course>247.62</course>
  <speed>0.0316227766016838</speed>
  <fix>3d</fix>
</trkpt>
<trkpt lat="40.0713749" lon="-105.229789">
  <ele>1583.0</ele>
  <time>2026-08-28T17:56:54Z</time>
  <course>0.0</course>
  <speed>0.0</speed>
  <fix>3d</fix>
</trkpt>
<trkpt lat="40.0713749" lon="-105.229789">
  <ele>1583.0</ele>
  <time>2026-08-28T17:56:54Z</time>
  <course>247.61</course>
  <speed>0.0316227766016838</speed>
  <fix>3d</fix>
</trkpt>
<trkpt lat="40.0713749" lon="-105.229789">
  <ele>1583.0</ele>
  <time>2026-08-28T17:56:54Z</time>
  <course>0.0</course>
  <speed>0.0</speed>
  <fix>3d</fix>
</trkpt>
<trkpt lat="40.0713749" lon="-105.229789">
  <ele>1583.0</ele>
  <time>2026-08-28T17:56:54Z</time>
  <course>247.61</course>
  <speed>0.0316227766016838</speed>
  <fix>3d</fix>
</trkpt>
<trkpt lat="40.0713749" lon="-105.229789">
  <ele>1583.0</ele>
  <time>2026-08-28T17:56:54Z</time>
  <course>0.0</course>
  <speed>0.0</speed>
  <fix>3d</fix>
</trkpt>
<trkpt lat="40.0713749" lon="-105.229789">
  <ele>1583.0</ele>
  <time>2026-08-28T17:56:54Z</time>
  <course>247.61</course>
  <speed>0.0316227766016838</speed>
  <fix>3d</fix>
</trkpt>
<trkpt lat="40.0713749" lon="-105.229789">
  <ele>1583.0</ele>
  <time>2026-08-28T17:56:54Z</time>
  <course>0.0</course>
  <speed>0.0</speed>
  <fix>3d</fix>
</trkpt>
<trkpt lat="40.0713749" lon="-105.229789">
  <ele>1583.0</ele>
  <time>2026-08-28T17:56:54Z</time>
  <course>247.6</course>
  <speed>0.0316227766016838</speed>
  <fix>3d</fix>
</trkpt>
<trkpt lat="40.0713749" lon="-105.229789">
  <ele>1583.0</ele>
  <time>2026-08-28T17:56:54Z</time>
  <course>0.0</course>
  <speed>0.0</speed>
  <fix>3d</fix>
</trkpt>
<trkpt lat="40.0713749" lon="-105.229789">
  <ele>1583.0</ele>
  <time>2026-08-28T17:56:54Z</time>
  <course>247.6</course>
  <speed>0.0316227766016838</speed>
  <fix>3d</fix>
</trkpt>
<trkpt lat="40.0713749" lon="-105.229789">
  <ele>1583.0</ele>
  <time>2026-08-28T17:56:54Z</time>
  <course>0.0</course>
  <speed>0.0</speed>
  <fix>3d</fix>
</trkpt>
<trkpt lat="40.0713749" lon="-105.229789">
  <ele>1583.0</ele>
  <time>2026-08-28T17:56:54Z</time>
  <course>247.6</course>
  <speed>0.0316227766016838</speed>
  <fix>3d</fix>
</trkpt>
<trkpt lat="40.0713749" lon="-105.229789">
  <ele>1583.0</ele>
  <time>2026-08-28T17:56:54Z</time>
  <course>0.0</course>
  <speed>0.0</speed>
  <fix>3d</fix>
</trkpt>
<trkpt lat="40.0713749" lon="-105.229789">
  <ele>1583.0</ele>
  <time>2026-08-28T17:56:54Z</time>
  <course>247.6</course>
  <speed>0.0316227766016838</speed>
  <fix>3d</fix>
</trkpt>
<trkpt lat="40.0713749" lon="-105.229789">
  <ele>1583.0</ele>
  <time>2026-08-28T17:56:54Z</time>
  <course>0.0</course>
  <speed>0.0</speed>
  <fix>3d</fix>
</trkpt>
<trkpt lat="40.0713749" lon="-105.229789">
  <ele>1583.0</ele>
  <time>2026-08-28T17:56:54Z</time>
  <course>247.59</course>
  <speed>0.0316227766016838</speed>
  <fix>3d</fix>
</trkpt>
<trkpt lat="40.0713749" lon="-105.229789">
  <ele>1583.0</ele>
  <time>2026-08-28T17:56:54Z</time>
  <course>0.0</course>
  <speed>0.0</speed>
  <fix>3d</fix>
</trkpt>
<trkpt lat="40.0713749" lon="-105.229789">
  <ele>1582.92</ele>
  <time>2026-08-28T17:56:54Z</time>
  <course>247.59</course>
  <speed>0.0</speed>
  <fix>3d</fix>
</trkpt>
<trkpt lat="40.0713749" lon="-105.229789">
  <ele>1583.0</ele>
  <time>2026-08-28T17:56:54Z</time>
  <course>0.0</course>
  <speed>0.0</speed>
  <fix>3d</fix>
</trkpt>
<trkpt lat="40.0713749" lon="-105.229789">
  <ele>1582.92</ele>
  <time>2026-08-28T17:56:54Z</time>
  <course>247.59</course>
  <speed>0.0</speed>
  <fix>3d</fix>
</trkpt>
<trkpt lat="40.0713749" lon="-105.229789">
  <ele>1583.0</ele>
  <time>2026-08-28T17:56:54Z</time>
  <course>0.0</course>
  <speed>0.0</speed>
  <fix>3d</fix>
</trkpt>
<trkpt lat="40.0713749" lon="-105.229789">
  <ele>1582.91</ele>
  <time>2026-08-28T17:56:54Z</time>
  <course>247.58</course>
  <speed>0.0</speed>
  <fix>3d</fix>
</trkpt>
<trkpt lat="40.0713749" lon="-105.229789">
  <ele>1583.0</ele>
  <time>2026-08-28T17:56:54Z</time>
  <course>0.0</course>
  <speed>0.0</speed>
  <fix>3d</fix>
</trkpt>
<trkpt lat="40.0713749" lon="-105.229789">
  <ele>1582.91</ele>
  <time>2026-08-28T17:56:54Z</time>
  <course>247.58</course>
  <speed>0.0</speed>
  <fix>3d</fix>
</trkpt>
<trkpt lat="40.0713749" lon="-105.229789">
  <ele>1583.0</ele>
  <time>2026-08-28T17:56:54Z</time>
  <course>0.0</course>
  <speed>0.0</speed>
  <fix>3d</fix>
</trkpt>
<trkpt lat="40.0713749" lon="-105.229789">
  <ele>1582.9</ele>
  <time>2026-08-28T17:56:54Z</time>
  <course>247.58</course>
  <speed>0.0</speed>
  <fix>3d</fix>
</trkpt>
<trkpt lat="40.0713749" lon="-105.229789">
  <ele>1583.0</ele>
  <time>2026-08-28T17:56:54Z</time>
  <course>0.0</course>
  <speed>0.0</speed>
  <fix>3d</fix>
</trkpt>
<trkpt lat="40.0713749" lon="-105.229789">
  <ele>1582.9</ele>
  <time>2026-08-28T17:56:55Z</time>
  <course>247.58</course>
  <speed>0.0</speed>
  <fix>3d</fix>
</trkpt>
<trkpt lat="40.0713749" lon="-105.229789">
  <ele>1583.0</ele>
  <time>2026-08-28T17:56:55Z</time>
  <course>0.0</course>
  <speed>0.0</speed>
  <fix>3d</fix>
</trkpt>
<trkpt lat="40.0713749" lon="-105.229789">
  <ele>1582.9</ele>
  <time>2026-08-28T17:56:55Z</time>
  <course>247.57</course>
  <speed>0.0</speed>
  <fix>3d</fix>
</trkpt>
<trkpt lat="40.0713749" lon="-105.229789">
  <ele>1583.0</ele>
  <time>2026-08-28T17:56:55Z</time>
  <course>0.0</course>
  <speed>0.0</speed>
  <fix>3d</fix>
</trkpt>
<trkpt lat="40.0713749" lon="-105.229789">
  <ele>1582.9</ele>
  <time>2026-08-28T17:56:55Z</time>
  <course>247.57</course>
  <speed>0.0</speed>
  <fix>3d</fix>
</trkpt>
<trkpt lat="40.0713749" lon="-105.229789">
  <ele>1583.0</ele>
  <time>2026-08-28T17:56:55Z</time>
  <course>0.0</course>
  <speed>0.0</speed>
  <fix>3d</fix>
</trkpt>
<trkpt lat="40.0713749" lon="-105.229789">
  <ele>1582.9</ele>
  <time>2026-08-28T17:56:55Z</time>
  <course>247.57</course>
  <speed>0.0</speed>
  <fix>3d</fix>
</trkpt>
<trkpt lat="40.0713749" lon="-105.229789">
  <ele>1583.0</ele>
  <time>2026-08-28T17:56:55Z</time>
  <course>0.0</course>
  <speed>0.0</speed>
  <fix>3d</fix>
</trkpt>
<trkpt lat="40.0713749" lon="-105.229789">
  <ele>1582.9</ele>
  <time>2026-08-28T17:56:55Z</time>
  <course>247.57</course>
  <speed>0.01</speed>
  <fix>3d</fix>
</trkpt>
<trkpt lat="40.0713749" lon="-105.229789">
  <ele>1583.0</ele>
  <time>2026-08-28T17:56:55Z</time>
  <course>0.0</course>
  <speed>0.0</speed>
  <fix>3d</fix>
</trkpt>
<trkpt lat="40.0713749" lon="-105.229789">
  <ele>1582.9</ele>
  <time>2026-08-28T17:56:55Z</time>
  <course>247.56</course>
  <speed>0.01</speed>
  <fix>3d</fix>
</trkpt>
<trkpt lat="40.0713749" lon="-105.229789">
  <ele>1583.0</ele>
  <time>2026-08-28T17:56:55Z</time>
  <course>0.0</course>
  <speed>0.0</speed>
  <fix>3d</fix>
</trkpt>
<trkpt lat="40.0713749" lon="-105.229789">
  <ele>1582.91</ele>
  <time>2026-08-28T17:56:55Z</time>
  <course>247.56</course>
  <speed>0.01</speed>
  <fix>3d</fix>
</trkpt>
<trkpt lat="40.0713749" lon="-105.229789">
  <ele>1583.0</ele>
  <time>2026-08-28T17:56:55Z</time>
  <course>0.0</course>
  <speed>0.0</speed>
  <fix>3d</fix>
</trkpt>
<trkpt lat="40.0713749" lon="-105.229789">
  <ele>1582.91</ele>
  <time>2026-08-28T17:56:55Z</time>
  <course>247.56</course>
  <speed>0.01</speed>
  <fix>3d</fix>
</trkpt>
<trkpt lat="40.0713749" lon="-105.229789">
  <ele>1583.0</ele>
  <time>2026-08-28T17:56:55Z</time>
  <course>0.0</course>
  <speed>0.0</speed>
  <fix>3d</fix>
</trkpt>
<trkpt lat="40.0713749" lon="-105.229789">
  <ele>1582.92</ele>
  <time>2026-08-28T17:56:55Z</time>
  <course>247.56</course>
  <speed>0.01</speed>
  <fix>3d</fix>
</trkpt>
<trkpt lat="40.0713749" lon="-105.229789">
  <ele>1583.0</ele>
  <time>2026-08-28T17:56:55Z</time>
  <course>0.0</course>
  <speed>0.0</speed>
  <fix>3d</fix>
</trkpt>
<trkpt lat="40.0713749" lon="-105.229789">
  <ele>1582.92</ele>
  <time>2026-08-28T17:56:55Z</time>
  <course>247.55</course>
  <speed>0.01</speed>
  <fix>3d</fix>
</trkpt>
<trkpt lat="40.0713749" lon="-105.229789">
  <ele>1583.0</ele>
  <time>2026-08-28T17:56:55Z</time>
  <course>0.0</course>
  <speed>0.0</speed>
  <fix>3d</fix>
</trkpt>
<trkpt lat="40.0713749" lon="-105.229789">
  <ele>1582.92</ele>
  <time>2026-08-28T17:56:55Z</time>
  <course>247.55</course>
  <speed>0.01</speed>
  <fix>3d</fix>
</trkpt>
<trkpt lat="40.0713749" lon="-105.229789">
  <ele>1583.0</ele>
  <time>2026-08-28T17:56:55Z</time>
  <course>0.0</course>
  <speed>0.0</speed>
  <fix>3d</fix>
</trkpt>
<trkpt lat="40.0713749" lon="-105.229789">
  <ele>1582.93</ele>
  <time>2026-08-28T17:56:55Z</time>
  <course>247.55</course>
  <speed>0.01</speed>
  <fix>3d</fix>
</trkpt>
<trkpt lat="40.0713749" lon="-105.229789">
  <ele>1583.0</ele>
  <time>2026-08-28T17:56:55Z</time>
  <course>0.0</course>
  <speed>0.0</speed>
  <fix>3d</fix>
</trkpt>
<trkpt lat="40.0713749" lon="-105.229789">
  <ele>1582.93</ele>
  <time>2026-08-28T17:56:55Z</time>
  <course>247.55</course>
  <speed>0.01</speed>
  <fix>3d</fix>
</trkpt>
<trkpt lat="40.0713749" lon="-105.229789">
  <ele>1583.0</ele>
  <time>2026-08-28T17:56:55Z</time>
  <course>0.0</course>
  <speed>0.0</speed>
  <fix>3d</fix>
</trkpt>
<trkpt lat="40.0713749" lon="-105.229789">
  <ele>1582.93</ele>
  <time>2026-08-28T17:56:55Z</time>
  <course>247.54</course>
  <speed>0.02</speed>
  <fix>3d</fix>
</trkpt>
<trkpt lat="40.0713749" lon="-105.229789">
  <ele>1583.0</ele>
  <time>2026-08-28T17:56:55Z</time>
  <course>0.0</course>
  <speed>0.0</speed>
  <fix>3d</fix>
</trkpt>
<trkpt lat="40.0713749" lon="-105.229789">
  <ele>1582.93</ele>
  <time>2026-08-28T17:56:55Z</time>
  <course>247.54</course>
  <speed>0.02</speed>
  <fix>3d</fix>
</trkpt>
<trkpt lat="40.0713749" lon="-105.229789">
  <ele>1583.0</ele>
  <time>2026-08-28T17:56:55Z</time>
  <course>0.0</course>
  <speed>0.0</speed>
  <fix>3d</fix>
</trkpt>
<trkpt lat="40.0713749" lon="-105.229789">
  <ele>1582.93</ele>
  <time>2026-08-28T17:56:55Z</time>
  <course>247.54</course>
  <speed>0.02</speed>
  <fix>3d</fix>
</trkpt>
<trkpt lat="40.0713749" lon="-105.229789">
  <ele>1583.0</ele>
  <time>2026-08-28T17:56:55Z</time>
  <course>0.0</course>
  <speed>0.0</speed>
  <fix>3d</fix>
</trkpt>
<trkpt lat="40.0713749" lon="-105.229789">
  <ele>1582.93</ele>
  <time>2026-08-28T17:56:55Z</time>
  <course>247.54</course>
  <speed>0.022360679774997897</speed>
  <fix>3d</fix>
</trkpt>
<trkpt lat="40.0713749" lon="-105.229789">
  <ele>1583.0</ele>
  <time>2026-08-28T17:56:55Z</time>
  <course>0.0</course>
  <speed>0.0</speed>
  <fix>3d</fix>
</trkpt>
<trkpt lat="40.0713749" lon="-105.229789">
  <ele>1582.94</ele>
  <time>2026-08-28T17:56:55Z</time>
  <course>247.53</course>
  <speed>0.022360679774997897</speed>
  <fix>3d</fix>
</trkpt>
<trkpt lat="40.0713749" lon="-105.229789">
  <ele>1583.0</ele>
  <time>2026-08-28T17:56:55Z</time>
  <course>0.0</course>
  <speed>0.0</speed>
  <fix>3d</fix>
</trkpt>
<trkpt lat="40.0713749" lon="-105.229789">
  <ele>1582.94</ele>
  <time>2026-08-28T17:56:55Z</time>
  <course>247.53</course>
  <speed>0.022360679774997897</speed>
  <fix>3d</fix>
</trkpt>
<trkpt lat="40.0713749" lon="-105.229789">
  <ele>1583.0</ele>
  <time>2026-08-28T17:56:55Z</time>
  <course>0.0</course>
  <speed>0.0</speed>
  <fix>3d</fix>
</trkpt>
<trkpt lat="40.071375" lon="-105.229789">
  <ele>1582.94</ele>
  <time>2026-08-28T17:56:55Z</time>
  <course>247.53</course>
  <speed>0.022360679774997897</speed>
  <fix>3d</fix>
</trkpt>
<trkpt lat="40.0713749" lon="-105.229789">
  <ele>1583.0</ele>
  <time>2026-08-28T17:56:55Z</time>
  <course>0.0</course>
  <speed>0.0</speed>
  <fix>3d</fix>
</trkpt>
<trkpt lat="40.071375" lon="-105.229789">
  <ele>1582.95</ele>
  <time>2026-08-28T17:56:55Z</time>
  <course>247.53</course>
  <speed>0.022360679774997897</speed>
  <fix>3d</fix>
</trkpt>
<trkpt lat="40.0713749" lon="-105.229789">
  <ele>1583.0</ele>
  <time>2026-08-28T17:56:55Z</time>
  <course>0.0</course>
  <speed>0.0</speed>
  <fix>3d</fix>
</trkpt>
<trkpt lat="40.071375" lon="-105.229789">
  <ele>1582.95</ele>
  <time>2026-08-28T17:56:55Z</time>
  <course>247.53</course>
  <speed>0.022360679774997897</speed>
  <fix>3d</fix>
</trkpt>
<trkpt lat="40.0713749" lon="-105.229789">
  <ele>1583.0</ele>
  <time>2026-08-28T17:56:55Z</time>
  <course>0.0</course>
  <speed>0.0</speed>
  <fix>3d</fix>
</trkpt>
<trkpt lat="40.071375" lon="-105.229789">
  <ele>1582.95</ele>
  <time>2026-08-28T17:56:55Z</time>
  <course>247.52</course>
  <speed>0.022360679774997897</speed>
  <fix>3d</fix>
</trkpt>
<trkpt lat="40.0713749" lon="-105.229789">
  <ele>1583.0</ele>
  <time>2026-08-28T17:56:55Z</time>
  <course>0.0</course>
  <speed>0.0</speed>
  <fix>3d</fix>
</trkpt>
<trkpt lat="40.071375" lon="-105.229789">
  <ele>1582.95</ele>
  <time>2026-08-28T17:56:55Z</time>
  <course>247.52</course>
  <speed>0.022360679774997897</speed>
  <fix>3d</fix>
</trkpt>
<trkpt lat="40.0713749" lon="-105.229789">
  <ele>1583.0</ele>
  <time>2026-08-28T17:56:55Z</time>
  <course>0.0</course>
  <speed>0.0</speed>
  <fix>3d</fix>
</trkpt>
<trkpt lat="40.071375" lon="-105.229789">
  <ele>1582.95</ele>
  <time>2026-08-28T17:56:55Z</time>
  <course>247.52</course>
  <speed>0.022360679774997897</speed>
  <fix>3d</fix>
</trkpt>
<trkpt lat="40.0713749" lon="-105.229789">
  <ele>1583.0</ele>
  <time>2026-08-28T17:56:55Z</time>
  <course>0.0</course>
  <speed>0.0</speed>
  <fix>3d</fix>
</trkpt>
<trkpt lat="40.071375" lon="-105.229789">
  <ele>1582.95</ele>
  <time>2026-08-28T17:56:55Z</time>
  <course>247.52</course>
  <speed>0.022360679774997897</speed>
  <fix>3d</fix>
</trkpt>
<trkpt lat="40.0713749" lon="-105.229789">
  <ele>1583.0</ele>
  <time>2026-08-28T17:56:55Z</time>
  <course>0.0</course>
  <speed>0.0</speed>
  <fix>3d</fix>
</trkpt>
<trkpt lat="40.071375" lon="-105.229789">
  <ele>1582.95</ele>
  <time>2026-08-28T17:56:55Z</time>
  <course>247.51</course>
  <speed>0.0316227766016838</speed>
  <fix>3d</fix>
</trkpt>
<trkpt lat="40.0713749" lon="-105.229789">
  <ele>1583.0</ele>
  <time>2026-08-28T17:56:55Z</time>
  <course>0.0</course>
  <speed>0.0</speed>
  <fix>3d</fix>
</trkpt>
<trkpt lat="40.071375" lon="-105.229789">
  <ele>1582.95</ele>
  <time>2026-08-28T17:56:55Z</time>
  <course>247.51</course>
  <speed>0.0316227766016838</speed>
  <fix>3d</fix>
</trkpt>
<trkpt lat="40.0713749" lon="-105.229789">
  <ele>1583.0</ele>
  <time>2026-08-28T17:56:55Z</time>
  <course>0.0</course>
  <speed>0.0</speed>
  <fix>3d</fix>
</trkpt>
<trkpt lat="40.071375" lon="-105.229789">
  <ele>1582.95</ele>
  <time>2026-08-28T17:56:55Z</time>
  <course>247.51</course>
  <speed>0.0316227766016838</speed>
  <fix>3d</fix>
</trkpt>
<trkpt lat="40.0713749" lon="-105.229789">
  <ele>1583.0</ele>
  <time>2026-08-28T17:56:55Z</time>
  <course>0.0</course>
  <speed>0.0</speed>
  <fix>3d</fix>
</trkpt>
<trkpt lat="40.071375" lon="-105.229789">
  <ele>1582.95</ele>
  <time>2026-08-28T17:56:55Z</time>
  <course>247.51</course>
  <speed>0.0316227766016838</speed>
  <fix>3d</fix>
</trkpt>
<trkpt lat="40.0713749" lon="-105.229789">
  <ele>1583.0</ele>
  <time>2026-08-28T17:56:55Z</time>
  <course>0.0</course>
  <speed>0.0</speed>
  <fix>3d</fix>
</trkpt>
<trkpt lat="39.655741" lon="-104.1383097">
  <ele>1566.58</ele>
  <time>2026-08-28T17:56:55Z</time>
  <course>0.0</course>
  <speed>0.0</speed>
  <fix>3d</fix>
</trkpt>
<trkpt lat="40.0713749" lon="-105.229789">
  <ele>1583.0</ele>
  <time>2026-08-28T17:56:55Z</time>
  <course>0.0</course>
  <speed>0.0</speed>
  <fix>3d</fix>
</trkpt>
<trkpt lat="40.0713749" lon="-105.229789">
  <ele>1583.0</ele>
  <time>2026-08-28T17:56:55Z</time>
  <course>238.36</course>
  <speed>0.0</speed>
  <fix>3d</fix>
</trkpt>
<trkpt lat="40.0713749" lon="-105.229789">
  <ele>1583.0</ele>
  <time>2026-08-28T17:56:55Z</time>
  <course>0.0</course>
  <speed>0.0</speed>
  <fix>3d</fix>
</trkpt>
<trkpt lat="40.0713749" lon="-105.229789">
  <ele>1583.0</ele>
  <time>2026-08-28T17:56:55Z</time>
  <course>238.44</course>
  <speed>0.0</speed>
  <fix>3d</fix>
</trkpt>
<trkpt lat="40.0713749" lon="-105.229789">
  <ele>1583.0</ele>
  <time>2026-08-28T17:56:55Z</time>
  <course>0.0</course>
  <speed>0.0</speed>
  <fix>3d</fix>
</trkpt>
<trkpt lat="40.0713749" lon="-105.229789">
  <ele>1583.0</ele>
  <time>2026-08-28T17:56:55Z</time>
  <course>238.64</course>
  <speed>0.0</speed>
  <fix>3d</fix>
</trkpt>
<trkpt lat="40.0713749" lon="-105.229789">
  <ele>1583.0</ele>
  <time>2026-08-28T17:56:55Z</time>
  <course>0.0</course>
  <speed>0.0</speed>
  <fix>3d</fix>
</trkpt>
<trkpt lat="40.0713749" lon="-105.229789">
  <ele>1583.0</ele>
  <time>2026-08-28T17:56:55Z</time>
  <course>238.93</course>
  <speed>0.0</speed>
  <fix>3d</fix>
</trkpt>
<trkpt lat="40.0713749" lon="-105.229789">
  <ele>1583.0</ele>
  <time>2026-08-28T17:56:55Z</time>
  <course>0.0</course>
  <speed>0.0</speed>
  <fix>3d</fix>
</trkpt>
<trkpt lat="40.0713749" lon="-105.229789">
  <ele>1583.0</ele>
  <time>2026-08-28T17:56:55Z</time>
  <course>239.26</course>
  <speed>0.0</speed>
  <fix>3d</fix>
</trkpt>
<trkpt lat="40.0713749" lon="-105.229789">
  <ele>1583.0</ele>
  <time>2026-08-28T17:56:55Z</time>
  <course>0.0</course>
  <speed>0.0</speed>
  <fix>3d</fix>
</trkpt>
<trkpt lat="40.0713749" lon="-105.229789">
  <ele>1583.0</ele>
  <time>2026-08-28T17:56:55Z</time>
  <course>239.61</course>
  <speed>0.0</speed>
  <fix>3d</fix>
</trkpt>
<trkpt lat="40.0713749" lon="-105.229789">
  <ele>1583.0</ele>
  <time>2026-08-28T17:56:55Z</time>
  <course>0.0</course>
  <speed>0.0</speed>
  <fix>3d</fix>
</trkpt>
<trkpt lat="40.0713749" lon="-105.229789">
  <ele>1583.0</ele>
  <time>2026-08-28T17:56:55Z</time>
  <course>239.96</course>
  <speed>0.0</speed>
  <fix>3d</fix>
</trkpt>
<trkpt lat="40.0713749" lon="-105.229789">
  <ele>1583.0</ele>
  <time>2026-08-28T17:56:55Z</time>
  <course>0.0</course>
  <speed>0.0</speed>
  <fix>3d</fix>
</trkpt>
<trkpt lat="40.0713749" lon="-105.229789">
  <ele>1583.0</ele>
  <time>2026-08-28T17:56:55Z</time>
  <course>240.29</course>
  <speed>0.0</speed>
  <fix>3d</fix>
</trkpt>
<trkpt lat="40.0713749" lon="-105.229789">
  <ele>1583.0</ele>
  <time>2026-08-28T17:56:55Z</time>
  <course>0.0</course>
  <speed>0.0</speed>
  <fix>3d</fix>
</trkpt>
<trkpt lat="40.0713749" lon="-105.229789">
  <ele>1583.0</ele>
  <time>2026-08-28T17:56:55Z</time>
  <course>240.61</course>
  <speed>0.0</speed>
  <fix>3d</fix>
</trkpt>
<trkpt lat="40.0713749" lon="-105.229789">
  <ele>1583.0</ele>
  <time>2026-08-28T17:56:55Z</time>
  <course>0.0</course>
  <speed>0.0</speed>
  <fix>3d</fix>
</trkpt>
<trkpt lat="40.0713749" lon="-105.229789">
  <ele>1583.0</ele>
  <time>2026-08-28T17:56:55Z</time>
  <course>240.92</course>
  <speed>0.0</speed>
  <fix>3d</fix>
</trkpt>
<trkpt lat="40.0713749" lon="-105.229789">
  <ele>1583.0</ele>
  <time>2026-08-28T17:56:55Z</time>
  <course>0.0</course>
  <speed>0.0</speed>
  <fix>3d</fix>
</trkpt>
<trkpt lat="40.0713749" lon="-105.229789">
  <ele>1583.0</ele>
  <time>2026-08-28T17:56:55Z</time>
  <course>241.21</course>
  <speed>0.0</speed>
  <fix>3d</fix>
</trkpt>
<trkpt lat="40.0713749" lon="-105.229789">
  <ele>1583.0</ele>
  <time>2026-08-28T17:56:55Z</time>
  <course>0.0</course>
  <speed>0.0</speed>
  <fix>3d</fix>
</trkpt>
<trkpt lat="40.0713749" lon="-105.229789">
  <ele>1583.0</ele>
  <time>2026-08-28T17:56:55Z</time>
  <course>241.49</course>
  <speed>0.0</speed>
  <fix>3d</fix>
</trkpt>
<trkpt lat="40.0713749" lon="-105.229789">
  <ele>1583.0</ele>
  <time>2026-08-28T17:56:55Z</time>
  <course>0.0</course>
  <speed>0.0</speed>
  <fix>3d</fix>
</trkpt>
<trkpt lat="40.0713749" lon="-105.229789">
  <ele>1583.0</ele>
  <time>2026-08-28T17:56:55Z</time>
  <course>241.77</course>
  <speed>0.0</speed>
  <fix>3d</fix>
</trkpt>
<trkpt lat="40.0713749" lon="-105.229789">
  <ele>1583.0</ele>
  <time>2026-08-28T17:56:55Z</time>
  <course>0.0</course>
  <speed>0.0</speed>
  <fix>3d</fix>
</trkpt>
<trkpt lat="40.0713749" lon="-105.229789">
  <ele>1583.0</ele>
  <time>2026-08-28T17:56:55Z</time>
  <course>242.03</course>
  <speed>0.0</speed>
  <fix>3d</fix>
</trkpt>
<trkpt lat="40.0713749" lon="-105.229789">
  <ele>1583.0</ele>
  <time>2026-08-28T17:56:55Z</time>
  <course>0.0</course>
  <speed>0.0</speed>
  <fix>3d</fix>
</trkpt>
<trkpt lat="40.0713749" lon="-105.229789">
  <ele>1583.0</ele>
  <time>2026-08-28T17:56:55Z</time>
  <course>242.29</course>
  <speed>0.0</speed>
  <fix>3d</fix>
</trkpt>
<trkpt lat="40.0713749" lon="-105.229789">
  <ele>1583.0</ele>
  <time>2026-08-28T17:56:55Z</time>
  <course>0.0</course>
  <speed>0.0</speed>
  <fix>3d</fix>
</trkpt>
<trkpt lat="40.0713749" lon="-105.229789">
  <ele>1583.0</ele>
  <time>2026-08-28T17:56:55Z</time>
  <course>242.54</course>
  <speed>0.0</speed>
  <fix>3d</fix>
</trkpt>
<trkpt lat="40.0713749" lon="-105.229789">
  <ele>1583.0</ele>
  <time>2026-08-28T17:56:55Z</time>
  <course>0.0</course>
  <speed>0.0</speed>
  <fix>3d</fix>
</trkpt>
<trkpt lat="40.0713749" lon="-105.229789">
  <ele>1583.0</ele>
  <time>2026-08-28T17:56:55Z</time>
  <course>242.79</course>
  <speed>0.0</speed>
  <fix>3d</fix>
</trkpt>
<trkpt lat="40.0713749" lon="-105.229789">
  <ele>1583.0</ele>
  <time>2026-08-28T17:56:55Z</time>
  <course>0.0</course>
  <speed>0.0</speed>
  <fix>3d</fix>
</trkpt>
<trkpt lat="40.0713749" lon="-105.229789">
  <ele>1583.0</ele>
  <time>2026-08-28T17:56:55Z</time>
  <course>243.02</course>
  <speed>0.0</speed>
  <fix>3d</fix>
</trkpt>
<trkpt lat="40.0713749" lon="-105.229789">
  <ele>1583.0</ele>
  <time>2026-08-28T17:56:55Z</time>
  <course>0.0</course>
  <speed>0.0</speed>
  <fix>3d</fix>
</trkpt>
<trkpt lat="40.0713749" lon="-105.229789">
  <ele>1583.0</ele>
  <time>2026-08-28T17:56:55Z</time>
  <course>243.25</course>
  <speed>0.0</speed>
  <fix>3d</fix>
</trkpt>
<trkpt lat="40.0713749" lon="-105.229789">
  <ele>1583.0</ele>
  <time>2026-08-28T17:56:55Z</time>
  <course>0.0</course>
  <speed>0.0</speed>
  <fix>3d</fix>
</trkpt>
<trkpt lat="40.0713749" lon="-105.229789">
  <ele>1583.0</ele>
  <time>2026-08-28T17:56:55Z</time>
  <course>243.47</course>
  <speed>0.0</speed>
  <fix>3d</fix>
</trkpt>
<trkpt lat="40.0713749" lon="-105.229789">
  <ele>1583.0</ele>
  <time>2026-08-28T17:56:55Z</time>
  <course>0.0</course>
  <speed>0.0</speed>
  <fix>3d</fix>
</trkpt>
<trkpt lat="40.0713749" lon="-105.229789">
  <ele>1583.0</ele>
  <time>2026-08-28T17:56:55Z</time>
  <course>243.68</course>
  <speed>0.0</speed>
  <fix>3d</fix>
</trkpt>
<trkpt lat="40.0713749" lon="-105.229789">
  <ele>1583.0</ele>
  <time>2026-08-28T17:56:55Z</time>
  <course>0.0</course>
  <speed>0.0</speed>
  <fix>3d</fix>
</trkpt>
<trkpt lat="40.0713749" lon="-105.229789">
  <ele>1583.0</ele>
  <time>2026-08-28T17:56:55Z</time>
  <course>243.89</course>
  <speed>0.0</speed>
  <fix>3d</fix>
</trkpt>
<trkpt lat="40.0713749" lon="-105.229789">
  <ele>1583.0</ele>
  <time>2026-08-28T17:56:55Z</time>
  <course>0.0</course>
  <speed>0.0</speed>
  <fix>3d</fix>
</trkpt>
<trkpt lat="40.0713749" lon="-105.229789">
  <ele>1583.0</ele>
  <time>2026-08-28T17:56:55Z</time>
  <course>244.09</course>
  <speed>0.0</speed>
  <fix>3d</fix>
</trkpt>
<trkpt lat="40.0713749" lon="-105.229789">
  <ele>1583.0</ele>
  <time>2026-08-28T17:56:55Z</time>
  <course>0.0</course>
  <speed>0.0</speed>
  <fix>3d</fix>
</trkpt>
<trkpt lat="40.0713749" lon="-105.229789">
  <ele>1583.0</ele>
  <time>2026-08-28T17:56:55Z</time>
  <course>244.28</course>
  <speed>0.0</speed>
  <fix>3d</fix>
</trkpt>
<trkpt lat="40.0713749" lon="-105.229789">
  <ele>1583.0</ele>
  <time>2026-08-28T17:56:55Z</time>
  <course>0.0</course>
  <speed>0.0</speed>
  <fix>3d</fix>
</trkpt>
<trkpt lat="40.0713749" lon="-105.229789">
  <ele>1583.0</ele>
  <time>2026-08-28T17:56:55Z</time>
  <course>244.46</course>
  <speed>0.0</speed>
  <fix>3d</fix>
</trkpt>
<trkpt lat="40.0713749" lon="-105.229789">
  <ele>1583.0</ele>
  <time>2026-08-28T17:56:55Z</time>
  <course>0.0</course>
  <speed>0.0</speed>
  <fix>3d</fix>
</trkpt>
<trkpt lat="40.0713749" lon="-105.229789">
  <ele>1583.0</ele>
  <time>2026-08-28T17:56:55Z</time>
  <course>244.64</course>
  <speed>0.0</speed>
  <fix>3d</fix>
</trkpt>
<trkpt lat="40.0713749" lon="-105.229789">
  <ele>1583.0</ele>
  <time>2026-08-28T17:56:55Z</time>
  <course>0.0</course>
  <speed>0.0</speed>
  <fix>3d</fix>
</trkpt>
<trkpt lat="40.0713749" lon="-105.229789">
  <ele>1583.0</ele>
  <time>2026-08-28T17:56:55Z</time>
  <course>244.81</course>
  <speed>0.0</speed>
  <fix>3d</fix>
</trkpt>
<trkpt lat="40.0713749" lon="-105.229789">
  <ele>1583.0</ele>
  <time>2026-08-28T17:56:55Z</time>
  <course>0.0</course>
  <speed>0.0</speed>
  <fix>3d</fix>
</trkpt>
<trkpt lat="40.0713749" lon="-105.229789">
  <ele>1583.0</ele>
  <time>2026-08-28T17:56:55Z</time>
  <course>244.97</course>
  <speed>0.0</speed>
  <fix>3d</fix>
</trkpt>
<trkpt lat="40.0713749" lon="-105.229789">
  <ele>1583.0</ele>
  <time>2026-08-28T17:56:55Z</time>
  <course>0.0</course>
  <speed>0.0</speed>
  <fix>3d</fix>
</trkpt>
<trkpt lat="40.0713749" lon="-105.229789">
  <ele>1583.0</ele>
  <time>2026-08-28T17:56:55Z</time>
  <course>245.13</course>
  <speed>0.0</speed>
  <fix>3d</fix>
</trkpt>
<trkpt lat="40.0713749" lon="-105.229789">
  <ele>1583.0</ele>
  <time>2026-08-28T17:56:55Z</time>
  <course>0.0</course>
  <speed>0.0</speed>
  <fix>3d</fix>
</trkpt>
<trkpt lat="40.0713749" lon="-105.229789">
  <ele>1583.0</ele>
  <time>2026-08-28T17:56:55Z</time>
  <course>245.29</course>
  <speed>0.0</speed>
  <fix>3d</fix>
</trkpt>
<trkpt lat="40.0713749" lon="-105.229789">
  <ele>1583.0</ele>
  <time>2026-08-28T17:56:55Z</time>
  <course>0.0</course>
  <speed>0.0</speed>
  <fix>3d</fix>
</trkpt>
<trkpt lat="40.0713749" lon="-105.229789">
  <ele>1583.0</ele>
  <time>2026-08-28T17:56:55Z</time>
  <course>245.43</course>
  <speed>0.0</speed>
  <fix>3d</fix>
</trkpt>
<trkpt lat="40.0713749" lon="-105.229789">
  <ele>1583.0</ele>
  <time>2026-08-28T17:56:55Z</time>
  <course>0.0</course>
  <speed>0.0</speed>
  <fix>3d</fix>
</trkpt>
<trkpt lat="40.0713749" lon="-105.229789">
  <ele>1583.0</ele>
  <time>2026-08-28T17:56:55Z</time>
  <course>245.57</course>
  <speed>0.0</speed>
  <fix>3d</fix>
</trkpt>
<trkpt lat="40.0713749" lon="-105.229789">
  <ele>1583.0</ele>
  <time>2026-08-28T17:56:55Z</time>
  <course>0.0</course>
  <speed>0.0</speed>
  <fix>3d</fix>
</trkpt>
<trkpt lat="40.0713749" lon="-105.229789">
  <ele>1583.0</ele>
  <time>2026-08-28T17:56:55Z</time>
  <course>245.71</course>
  <speed>0.0</speed>
  <fix>3d</fix>
</trkpt>
<trkpt lat="40.0713749" lon="-105.229789">
  <ele>1583.0</ele>
  <time>2026-08-28T17:56:55Z</time>
  <course>0.0</course>
  <speed>0.0</speed>
  <fix>3d</fix>
</trkpt>
<trkpt lat="40.0713749" lon="-105.229789">
  <ele>1583.0</ele>
  <time>2026-08-28T17:56:55Z</time>
  <course>245.84</course>
  <speed>0.0</speed>
  <fix>3d</fix>
</trkpt>
<trkpt lat="40.0713749" lon="-105.229789">
  <ele>1583.0</ele>
  <time>2026-08-28T17:56:55Z</time>
  <course>0.0</course>
  <speed>0.0</speed>
  <fix>3d</fix>
</trkpt>
<trkpt lat="40.0713749" lon="-105.229789">
  <ele>1583.0</ele>
  <time>2026-08-28T17:56:55Z</time>
  <course>245.96</course>
  <speed>0.0</speed>
  <fix>3d</fix>
</trkpt>
<trkpt lat="40.0713749" lon="-105.229789">
  <ele>1583.0</ele>
  <time>2026-08-28T17:56:55Z</time>
  <course>0.0</course>
  <speed>0.0</speed>
  <fix>3d</fix>
</trkpt>
<trkpt lat="40.0713749" lon="-105.229789">
  <ele>1583.0</ele>
  <time>2026-08-28T17:56:55Z</time>
  <course>246.08</course>
  <speed>0.0</speed>
  <fix>3d</fix>
</trkpt>
<trkpt lat="40.0713749" lon="-105.229789">
  <ele>1583.0</ele>
  <time>2026-08-28T17:56:55Z</time>
  <course>0.0</course>
  <speed>0.0</speed>
  <fix>3d</fix>
</trkpt>
<trkpt lat="40.0713749" lon="-105.229789">
  <ele>1583.0</ele>
  <time>2026-08-28T17:56:55Z</time>
  <course>246.19</course>
  <speed>0.0</speed>
  <fix>3d</fix>
</trkpt>
<trkpt lat="40.0713749" lon="-105.229789">
  <ele>1583.0</ele>
  <time>2026-08-28T17:56:55Z</time>
  <course>0.0</course>
  <speed>0.0</speed>
  <fix>3d</fix>
</trkpt>
<trkpt lat="40.0713749" lon="-105.229789">
  <ele>1583.0</ele>
  <time>2026-08-28T17:56:55Z</time>
  <course>246.3</course>
  <speed>0.0</speed>
  <fix>3d</fix>
</trkpt>
<trkpt lat="40.0713749" lon="-105.229789">
  <ele>1583.0</ele>
  <time>2026-08-28T17:56:55Z</time>
  <course>0.0</course>
  <speed>0.0</speed>
  <fix>3d</fix>
</trkpt>
<trkpt lat="40.0713749" lon="-105.229789">
  <ele>1583.0</ele>
  <time>2026-08-28T17:56:55Z</time>
  <course>246.41</course>
  <speed>0.0</speed>
  <fix>3d</fix>
</trkpt>
<trkpt lat="40.0713749" lon="-105.229789">
  <ele>1583.0</ele>
  <time>2026-08-28T17:56:55Z</time>
  <course>0.0</course>
  <speed>0.0</speed>
  <fix>3d</fix>
</trkpt>
<trkpt lat="40.0713749" lon="-105.229789">
  <ele>1583.0</ele>
  <time>2026-08-28T17:56:55Z</time>
  <course>246.51</course>
  <speed>0.0</speed>
  <fix>3d</fix>
</trkpt>
<trkpt lat="40.0713749" lon="-105.229789">
  <ele>1583.0</ele>
  <time>2026-08-28T17:56:55Z</time>
  <course>0.0</course>
  <speed>0.0</speed>
  <fix>3d</fix>
</trkpt>
<trkpt lat="40.0713749" lon="-105.229789">
  <ele>1583.0</ele>
  <time>2026-08-28T17:56:55Z</time>
  <course>246.6</course>
  <speed>0.0</speed>
  <fix>3d</fix>
</trkpt>
<trkpt lat="40.0713749" lon="-105.229789">
  <ele>1583.0</ele>
  <time>2026-08-28T17:56:55Z</time>
  <course>0.0</course>
  <speed>0.0</speed>
  <fix>3d</fix>
</trkpt>
<trkpt lat="40.0713749" lon="-105.229789">
  <ele>1583.0</ele>
  <time>2026-08-28T17:56:55Z</time>
  <course>246.7</course>
  <speed>0.0</speed>
  <fix>3d</fix>
</trkpt>
<trkpt lat="40.0713749" lon="-105.229789">
  <ele>1583.0</ele>
  <time>2026-08-28T17:56:55Z</time>
  <course>0.0</course>
  <speed>0.0</speed>
  <fix>3d</fix>
</trkpt>
<trkpt lat="40.0713749" lon="-105.229789">
  <ele>1583.0</ele>
  <time>2026-08-28T17:56:55Z</time>
  <course>246.78</course>
  <speed>0.0</speed>
  <fix>3d</fix>
</trkpt>
<trkpt lat="40.0713749" lon="-105.229789">
  <ele>1583.0</ele>
  <time>2026-08-28T17:56:55Z</time>
  <course>0.0</course>
  <speed>0.0</speed>
  <fix>3d</fix>
</trkpt>
<trkpt lat="40.0713749" lon="-105.229789">
  <ele>1583.0</ele>
  <time>2026-08-28T17:56:55Z</time>
  <course>246.87</course>
  <speed>0.0</speed>
  <fix>3d</fix>
</trkpt>
<trkpt lat="40.0713749" lon="-105.229789">
  <ele>1583.0</ele>
  <time>2026-08-28T17:56:55Z</time>
  <course>0.0</course>
  <speed>0.0</speed>
  <fix>3d</fix>
</trkpt>
<trkpt lat="40.0713749" lon="-105.229789">
  <ele>1583.0</ele>
  <time>2026-08-28T17:56:55Z</time>
  <course>246.95</course>
  <speed>0.0</speed>
  <fix>3d</fix>
</trkpt>
<trkpt lat="40.0713749" lon="-105.229789">
  <ele>1583.0</ele>
  <time>2026-08-28T17:56:55Z</time>
  <course>0.0</course>
  <speed>0.0</speed>
  <fix>3d</fix>
</trkpt>
<trkpt lat="40.0713749" lon="-105.229789">
  <ele>1583.0</ele>
  <time>2026-08-28T17:56:55Z</time>
  <course>247.02</course>
  <speed>0.0</speed>
  <fix>3d</fix>
</trkpt>
<trkpt lat="40.0713749" lon="-105.229789">
  <ele>1583.0</ele>
  <time>2026-08-28T17:56:55Z</time>
  <course>0.0</course>
  <speed>0.0</speed>
  <fix>3d</fix>
</trkpt>
<trkpt lat="40.0713749" lon="-105.229789">
  <ele>1583.0</ele>
  <time>2026-08-28T17:56:55Z</time>
  <course>247.1</course>
  <speed>0.0</speed>
  <fix>3d</fix>
</trkpt>
<trkpt lat="40.0713749" lon="-105.229789">
  <ele>1583.0</ele>
  <time>2026-08-28T17:56:55Z</time>
  <course>0.0</course>
  <speed>0.0</speed>
  <fix>3d</fix>
</trkpt>
<trkpt lat="40.0713749" lon="-105.229789">
  <ele>1583.0</ele>
  <time>2026-08-28T17:56:55Z</time>
  <course>247.17</course>
  <speed>0.0</speed>
  <fix>3d</fix>
</trkpt>
<trkpt lat="40.0713749" lon="-105.229789">
  <ele>1583.0</ele>
  <time>2026-08-28T17:56:55Z</time>
  <course>0.0</course>
  <speed>0.0</speed>
  <fix>3d</fix>
</trkpt>
<trkpt lat="40.0713749" lon="-105.229789">
  <ele>1583.0</ele>
  <time>2026-08-28T17:56:55Z</time>
  <course>247.24</course>
  <speed>0.0</speed>
  <fix>3d</fix>
</trkpt>
<trkpt lat="40.0713749" lon="-105.229789">
  <ele>1583.0</ele>
  <time>2026-08-28T17:56:55Z</time>
  <course>0.0</course>
  <speed>0.0</speed>
  <fix>3d</fix>
</trkpt>
<trkpt lat="40.0713749" lon="-105.229789">
  <ele>1583.0</ele>
  <time>2026-08-28T17:56:55Z</time>
  <course>247.3</course>
  <speed>0.0</speed>
  <fix>3d</fix>
</trkpt>
<trkpt lat="40.0713749" lon="-105.229789">
  <ele>1583.0</ele>
  <time>2026-08-28T17:56:55Z</time>
  <course>0.0</course>
  <speed>0.0</speed>
  <fix>3d</fix>
</trkpt>
<trkpt lat="40.0713749" lon="-105.229789">
  <ele>1583.0</ele>
  <time>2026-08-28T17:56:55Z</time>
  <course>247.36</course>
  <speed>0.0</speed>
  <fix>3d</fix>
</trkpt>
<trkpt lat="40.0713749" lon="-105.229789">
  <ele>1583.0</ele>
  <time>2026-08-28T17:56:55Z</time>
  <course>0.0</course>
  <speed>0.0</speed>
  <fix>3d</fix>
</trkpt>
<trkpt lat="40.0713749" lon="-105.229789">
  <ele>1583.0</ele>
  <time>2026-08-28T17:56:55Z</time>
  <course>247.42</course>
  <speed>0.0</speed>
  <fix>3d</fix>
</trkpt>
<trkpt lat="40.0713749" lon="-105.229789">
  <ele>1583.0</ele>
  <time>2026-08-28T17:56:55Z</time>
  <course>0.0</course>
  <speed>0.0</speed>
  <fix>3d</fix>
</trkpt>
<trkpt lat="40.0713749" lon="-105.229789">
  <ele>1583.0</ele>
  <time>2026-08-28T17:56:55Z</time>
  <course>247.47</course>
  <speed>0.0</speed>
  <fix>3d</fix>
</trkpt>
<trkpt lat="40.0713749" lon="-105.229789">
  <ele>1583.0</ele>
  <time>2026-08-28T17:56:55Z</time>
  <course>0.0</course>
  <speed>0.0</speed>
  <fix>3d</fix>
</trkpt>
<trkpt lat="40.0713749" lon="-105.229789">
  <ele>1583.0</ele>
  <time>2026-08-28T17:56:55Z</time>
  <course>247.53</course>
  <speed>0.0</speed>
  <fix>3d</fix>
</trkpt>
<trkpt lat="40.0713749" lon="-105.229789">
  <ele>1583.0</ele>
  <time>2026-08-28T17:56:55Z</time>
  <course>0.0</course>
  <speed>0.0</speed>
  <fix>3d</fix>
</trkpt>
<trkpt lat="40.0713749" lon="-105.229789">
  <ele>1583.0</ele>
  <time>2026-08-28T17:56:55Z</time>
  <course>247.58</course>
  <speed>0.0</speed>
  <fix>3d</fix>
</trkpt>
<trkpt lat="40.0713749" lon="-105.229789">
  <ele>1583.0</ele>
  <time>2026-08-28T17:56:55Z</time>
  <course>0.0</course>
  <speed>0.0</speed>
  <fix>3d</fix>
</trkpt>
<trkpt lat="40.0713749" lon="-105.229789">
  <ele>1583.0</ele>
  <time>2026-08-28T17:56:55Z</time>
  <course>247.63</course>
  <speed>0.0</speed>
  <fix>3d</fix>
</trkpt>
<trkpt lat="40.0713749" lon="-105.229789">
  <ele>1583.0</ele>
  <time>2026-08-28T17:56:55Z</time>
  <course>0.0</course>
  <speed>0.0</speed>
  <fix>3d</fix>
</trkpt>
<trkpt lat="40.0713749" lon="-105.229789">
  <ele>1583.0</ele>
  <time>2026-08-28T17:56:55Z</time>
  <course>247.67</course>
  <speed>0.0</speed>
  <fix>3d</fix>
</trkpt>
<trkpt lat="40.0713749" lon="-105.229789">
  <ele>1583.0</ele>
  <time>2026-08-28T17:56:55Z</time>
  <course>0.0</course>
  <speed>0.0</speed>
  <fix>3d</fix>
</trkpt>
<trkpt lat="40.0713749" lon="-105.229789">
  <ele>1583.0</ele>
  <time>2026-08-28T17:56:55Z</time>
  <course>247.72</course>
  <speed>0.0</speed>
  <fix>3d</fix>
</trkpt>
<trkpt lat="40.0713749" lon="-105.229789">
  <ele>1583.0</ele>
  <time>2026-08-28T17:56:55Z</time>
  <course>0.0</course>
  <speed>0.0</speed>
  <fix>3d</fix>
</trkpt>
<trkpt lat="40.0713749" lon="-105.229789">
  <ele>1583.0</ele>
  <time>2026-08-28T17:56:55Z</time>
  <course>247.76</course>
  <speed>0.0</speed>
  <fix>3d</fix>
</trkpt>
<trkpt lat="40.0713749" lon="-105.229789">
  <ele>1583.0</ele>
  <time>2026-08-28T17:56:55Z</time>
  <course>0.0</course>
  <speed>0.0</speed>
  <fix>3d</fix>
</trkpt>
<trkpt lat="40.0713749" lon="-105.229789">
  <ele>1583.0</ele>
  <time>2026-08-28T17:56:55Z</time>
  <course>247.8</course>
  <speed>0.0</speed>
  <fix>3d</fix>
</trkpt>
<trkpt lat="40.0713749" lon="-105.229789">
  <ele>1583.0</ele>
  <time>2026-08-28T17:56:55Z</time>
  <course>0.0</course>
  <speed>0.0</speed>
  <fix>3d</fix>
</trkpt>
<trkpt lat="40.0713749" lon="-105.229789">
  <ele>1583.0</ele>
  <time>2026-08-28T17:56:55Z</time>
  <course>247.83</course>
  <speed>0.0</speed>
  <fix>3d</fix>
</trkpt>
<trkpt lat="40.0713749" lon="-105.229789">
  <ele>1583.0</ele>
  <time>2026-08-28T17:56:55Z</time>
  <course>0.0</course>
  <speed>0.0</speed>
  <fix>3d</fix>
</trkpt>
<trkpt lat="40.0713749" lon="-105.229789">
  <ele>1583.0</ele>
  <time>2026-08-28T17:56:55Z</time>
  <course>247.87</course>
  <speed>0.0</speed>
  <fix>3d</fix>
</trkpt>
<trkpt lat="40.0713749" lon="-105.229789">
  <ele>1583.0</ele>
  <time>2026-08-28T17:56:55Z</time>
  <course>0.0</course>
  <speed>0.0</speed>
  <fix>3d</fix>
</trkpt>
<trkpt lat="40.0713749" lon="-105.229789">
  <ele>1583.0</ele>
  <time>2026-08-28T17:56:55Z</time>
  <course>247.9</course>
  <speed>0.0</speed>
  <fix>3d</fix>
</trkpt>
<trkpt lat="40.0713749" lon="-105.229789">
  <ele>1583.0</ele>
  <time>2026-08-28T17:56:55Z</time>
  <course>0.0</course>
  <speed>0.0</speed>
  <fix>3d</fix>
</trkpt>
<trkpt lat="40.0713749" lon="-105.229789">
  <ele>1583.0</ele>
  <time>2026-08-28T17:56:55Z</time>
  <course>247.94</course>
  <speed>0.0</speed>
  <fix>3d</fix>
</trkpt>
<trkpt lat="40.0713749" lon="-105.229789">
  <ele>1583.0</ele>
  <time>2026-08-28T17:56:55Z</time>
  <course>0.0</course>
  <speed>0.0</speed>
  <fix>3d</fix>
</trkpt>
<trkpt lat="40.0713749" lon="-105.229789">
  <ele>1583.0</ele>
  <time>2026-08-28T17:56:55Z</time>
  <course>247.97</course>
  <speed>0.0</speed>
  <fix>3d</fix>
</trkpt>
<trkpt lat="40.0713749" lon="-105.229789">
  <ele>1583.0</ele>
  <time>2026-08-28T17:56:55Z</time>
  <course>0.0</course>
  <speed>0.0</speed>
  <fix>3d</fix>
</trkpt>
<trkpt lat="40.0713749" lon="-105.229789">
  <ele>1583.0</ele>
  <time>2026-08-28T17:56:55Z</time>
  <course>248.0</course>
  <speed>0.0</speed>
  <fix>3d</fix>
</trkpt>
<trkpt lat="40.0713749" lon="-105.229789">
  <ele>1583.0</ele>
  <time>2026-08-28T17:56:55Z</time>
  <course>0.0</course>
  <speed>0.0</speed>
  <fix>3d</fix>
</trkpt>
<trkpt lat="40.0713749" lon="-105.229789">
  <ele>1583.0</ele>
  <time>2026-08-28T17:56:55Z</time>
  <course>248.02</course>
  <speed>0.0</speed>
  <fix>3d</fix>
</trkpt>
<trkpt lat="40.0713749" lon="-105.229789">
  <ele>1583.0</ele>
  <time>2026-08-28T17:56:55Z</time>
  <course>0.0</course>
  <speed>0.0</speed>
  <fix>3d</fix>
</trkpt>
<trkpt lat="40.0713749" lon="-105.229789">
  <ele>1583.0</ele>
  <time>2026-08-28T17:56:55Z</time>
  <course>248.05</course>
  <speed>0.0</speed>
  <fix>3d</fix>
</trkpt>
<trkpt lat="40.0713749" lon="-105.229789">
  <ele>1583.0</ele>
  <time>2026-08-28T17:56:55Z</time>
  <course>0.0</course>
  <speed>0.0</speed>
  <fix>3d</fix>
</trkpt>
<trkpt lat="40.0713749" lon="-105.229789">
  <ele>1583.0</ele>
  <time>2026-08-28T17:56:55Z</time>
  <course>248.08</course>
  <speed>0.0</speed>
  <fix>3d</fix>
</trkpt>
<trkpt lat="40.0713749" lon="-105.229789">
  <ele>1583.0</ele>
  <time>2026-08-28T17:56:55Z</time>
  <course>0.0</course>
  <speed>0.0</speed>
  <fix>3d</fix>
</trkpt>
<trkpt lat="40.0713749" lon="-105.229789">
  <ele>1583.0</ele>
  <time>2026-08-28T17:56:55Z</time>
  <course>248.1</course>
  <speed>0.0</speed>
  <fix>3d</fix>
</trkpt>
<trkpt lat="40.0713749" lon="-105.229789">
  <ele>1583.0</ele>
  <time>2026-08-28T17:56:55Z</time>
  <course>0.0</course>
  <speed>0.0</speed>
  <fix>3d</fix>
</trkpt>
<trkpt lat="40.0713749" lon="-105.229789">
  <ele>1583.0</ele>
  <time>2026-08-28T17:56:55Z</time>
  <course>248.12</course>
  <speed>0.0</speed>
  <fix>3d</fix>
</trkpt>
<trkpt lat="40.0713749" lon="-105.229789">
  <ele>1583.0</ele>
  <time>2026-08-28T17:56:55Z</time>
  <course>0.0</course>
  <speed>0.0</speed>
  <fix>3d</fix>
</trkpt>
<trkpt lat="40.0713749" lon="-105.229789">
  <ele>1583.0</ele>
  <time>2026-08-28T17:56:55Z</time>
  <course>248.14</course>
  <speed>0.0</speed>
  <fix>3d</fix>
</trkpt>
<trkpt lat="40.0713749" lon="-105.229789">
  <ele>1583.0</ele>
  <time>2026-08-28T17:56:55Z</time>
  <course>0.0</course>
  <speed>0.0</speed>
  <fix>3d</fix>
</trkpt>
<trkpt lat="40.0713749" lon="-105.229789">
  <ele>1583.0</ele>
  <time>2026-08-28T17:56:55Z</time>
  <course>248.16</course>
  <speed>0.0</speed>
  <fix>3d</fix>
</trkpt>
<trkpt lat="40.0713749" lon="-105.229789">
  <ele>1583.0</ele>
  <time>2026-08-28T17:56:55Z</time>
  <course>0.0</course>
  <speed>0.0</speed>
  <fix>3d</fix>
</trkpt>
<trkpt lat="40.0713749" lon="-105.229789">
  <ele>1583.0</ele>
  <time>2026-08-28T17:56:55Z</time>
  <course>248.18</course>
  <speed>0.0</speed>
  <fix>3d</fix>
</trkpt>
<trkpt lat="40.0713749" lon="-105.229789">
  <ele>1583.0</ele>
  <time>2026-08-28T17:56:55Z</time>
  <course>0.0</course>
  <speed>0.0</speed>
  <fix>3d</fix>
</trkpt>
<trkpt lat="40.0713749" lon="-105.229789">
  <ele>1583.0</ele>
  <time>2026-08-28T17:56:55Z</time>
  <course>248.2</course>
  <speed>0.0</speed>
  <fix>3d</fix>
</trkpt>
<trkpt lat="40.0713749" lon="-105.229789">
  <ele>1583.0</ele>
  <time>2026-08-28T17:56:55Z</time>
  <course>0.0</course>
  <speed>0.0</speed>
  <fix>3d</fix>
</trkpt>
<trkpt lat="40.0713749" lon="-105.229789">
  <ele>1583.0</ele>
  <time>2026-08-28T17:56:55Z</time>
  <course>248.22</course>
  <speed>0.0</speed>
  <fix>3d</fix>
</trkpt>
<trkpt lat="40.0713749" lon="-105.229789">
  <ele>1583.0</ele>
  <time>2026-08-28T17:56:55Z</time>
  <course>0.0</course>
  <speed>0.0</speed>
  <fix>3d</fix>
</trkpt>
<trkpt lat="40.0713749" lon="-105.229789">
  <ele>1583.0</ele>
  <time>2026-08-28T17:56:55Z</time>
  <course>248.23</course>
  <speed>0.0</speed>
  <fix>3d</fix>
</trkpt>
<trkpt lat="40.0713749" lon="-105.229789">
  <ele>1583.0</ele>
  <time>2026-08-28T17:56:55Z</time>
  <course>0.0</course>
  <speed>0.0</speed>
  <fix>3d</fix>
</trkpt>
<trkpt lat="40.0713749" lon="-105.229789">
  <ele>1583.0</ele>
  <time>2026-08-28T17:56:55Z</time>
  <course>248.25</course>
  <speed>0.0</speed>
  <fix>3d</fix>
</trkpt>
<trkpt lat="40.0713749" lon="-105.229789">
  <ele>1583.0</ele>
  <time>2026-08-28T17:56:55Z</time>
  <course>0.0</course>
  <speed>0.0</speed>
  <fix>3d</fix>
</trkpt>
<trkpt lat="40.0713749" lon="-105.229789">
  <ele>1583.0</ele>
  <time>2026-08-28T17:56:55Z</time>
  <course>248.26</course>
  <speed>0.0</speed>
  <fix>3d</fix>
</trkpt>
<trkpt lat="40.0713749" lon="-105.229789">
  <ele>1583.0</ele>
  <time>2026-08-28T17:56:55Z</time>
  <course>0.0</course>
  <speed>0.0</speed>
  <fix>3d</fix>
</trkpt>
<trkpt lat="40.0713749" lon="-105.229789">
  <ele>1583.0</ele>
  <time>2026-08-28T17:56:55Z</time>
  <course>248.28</course>
  <speed>0.0</speed>
  <fix>3d</fix>
</trkpt>
<trkpt lat="40.0713749" lon="-105.229789">
  <ele>1583.0</ele>
  <time>2026-08-28T17:56:55Z</time>
  <course>0.0</course>
  <speed>0.0</speed>
  <fix>3d</fix>
</trkpt>
<trkpt lat="40.0713749" lon="-105.229789">
  <ele>1583.0</ele>
  <time>2026-08-28T17:56:55Z</time>
  <course>248.29</course>
  <speed>0.0</speed>
  <fix>3d</fix>
</trkpt>
<trkpt lat="40.0713749" lon="-105.229789">
  <ele>1583.0</ele>
  <time>2026-08-28T17:56:55Z</time>
  <course>0.0</course>
  <speed>0.0</speed>
  <fix>3d</fix>
</trkpt>
<trkpt lat="40.0713749" lon="-105.229789">
  <ele>1583.0</ele>
  <time>2026-08-28T17:56:55Z</time>
  <course>248.3</course>
  <speed>0.0</speed>
  <fix>3d</fix>
</trkpt>
<trkpt lat="40.0713749" lon="-105.229789">
  <ele>1583.0</ele>
  <time>2026-08-28T17:56:55Z</time>
  <course>0.0</course>
  <speed>0.0</speed>
  <fix>3d</fix>
</trkpt>
<trkpt lat="40.0713749" lon="-105.229789">
  <ele>1583.0</ele>
  <time>2026-08-28T17:56:55Z</time>
  <course>248.31</course>
  <speed>0.0</speed>
  <fix>3d</fix>
</trkpt>
<trkpt lat="40.0713749" lon="-105.229789">
  <ele>1583.0</ele>
  <time>2026-08-28T17:56:55Z</time>
  <course>0.0</course>
  <speed>0.0</speed>
  <fix>3d</fix>
</trkpt>
<trkpt lat="40.0713749" lon="-105.229789">
  <ele>1583.0</ele>
  <time>2026-08-28T17:56:55Z</time>
  <course>248.32</course>
  <speed>0.0</speed>
  <fix>3d</fix>
</trkpt>
<trkpt lat="40.0713749" lon="-105.229789">
  <ele>1583.0</ele>
  <time>2026-08-28T17:56:55Z</time>
  <course>0.0</course>
  <speed>0.0</speed>
  <fix>3d</fix>
</trkpt>
<trkpt lat="40.0713749" lon="-105.229789">
  <ele>1583.0</ele>
  <time>2026-08-28T17:56:55Z</time>
  <course>248.33</course>
  <speed>0.0</speed>
  <fix>3d</fix>
</trkpt>
<trkpt lat="40.0713749" lon="-105.229789">
  <ele>1583.0</ele>
  <time>2026-08-28T17:56:55Z</time>
  <course>0.0</course>
  <speed>0.0</speed>
  <fix>3d</fix>
</trkpt>
<trkpt lat="40.0713749" lon="-105.229789">
  <ele>1583.0</ele>
  <time>2026-08-28T17:56:55Z</time>
  <course>248.34</course>
  <speed>0.0</speed>
  <fix>3d</fix>
</trkpt>
<trkpt lat="40.0713749" lon="-105.229789">
  <ele>1583.0</ele>
  <time>2026-08-28T17:56:55Z</time>
  <course>0.0</course>
  <speed>0.0</speed>
  <fix>3d</fix>
</trkpt>
<trkpt lat="40.0713749" lon="-105.229789">
  <ele>1583.0</ele>
  <time>2026-08-28T17:56:55Z</time>
  <course>248.35</course>
  <speed>0.0</speed>
  <fix>3d</fix>
</trkpt>
<trkpt lat="40.0713749" lon="-105.229789">
  <ele>1583.0</ele>
  <time>2026-08-28T17:56:55Z</time>
  <course>0.0</course>
  <speed>0.0</speed>
  <fix>3d</fix>
</trkpt>
<trkpt lat="40.0713749" lon="-105.229789">
  <ele>1583.0</ele>
  <time>2026-08-28T17:56:55Z</time>
  <course>248.35</course>
  <speed>0.0</speed>
  <fix>3d</fix>
</trkpt>
<trkpt lat="40.0713749" lon="-105.229789">
  <ele>1583.0</ele>
  <time>2026-08-28T17:56:55Z</time>
  <course>0.0</course>
  <speed>0.0</speed>
  <fix>3d</fix>
</trkpt>
<trkpt lat="40.0713749" lon="-105.229789">
  <ele>1583.0</ele>
  <time>2026-08-28T17:56:55Z</time>
  <course>248.36</course>
  <speed>0.0</speed>
  <fix>3d</fix>
</trkpt>
<trkpt lat="40.0713749" lon="-105.229789">
  <ele>1583.0</ele>
  <time>2026-08-28T17:56:55Z</time>
  <course>0.0</course>
  <speed>0.0</speed>
  <fix>3d</fix>
</trkpt>
<trkpt lat="40.0713749" lon="-105.229789">
  <ele>1583.0</ele>
  <time>2026-08-28T17:56:55Z</time>
  <course>248.37</course>
  <speed>0.0</speed>
  <fix>3d</fix>
</trkpt>
<trkpt lat="40.0713749" lon="-105.229789">
  <ele>1583.0</ele>
  <time>2026-08-28T17:56:55Z</time>
  <course>0.0</course>
  <speed>0.0</speed>
  <fix>3d</fix>
</trkpt>
<trkpt lat="40.0713749" lon="-105.229789">
  <ele>1583.0</ele>
  <time>2026-08-28T17:56:55Z</time>
  <course>248.37</course>
  <speed>0.0</speed>
  <fix>3d</fix>
</trkpt>
<trkpt lat="40.0713749" lon="-105.229789">
  <ele>1583.0</ele>
  <time>2026-08-28T17:56:55Z</time>
  <course>0.0</course>
  <speed>0.0</speed>
  <fix>3d</fix>
</trkpt>
<trkpt lat="40.0713749" lon="-105.229789">
  <ele>1583.0</ele>
  <time>2026-08-28T17:56:55Z</time>
  <course>248.38</course>
  <speed>0.0</speed>
  <fix>3d</fix>
</trkpt>
<trkpt lat="40.0713749" lon="-105.229789">
  <ele>1583.0</ele>
  <time>2026-08-28T17:56:55Z</time>
  <course>0.0</course>
  <speed>0.0</speed>
  <fix>3d</fix>
</trkpt>
<trkpt lat="40.0713749" lon="-105.229789">
  <ele>1583.0</ele>
  <time>2026-08-28T17:56:55Z</time>
  <course>248.38</course>
  <speed>0.0</speed>
  <fix>3d</fix>
</trkpt>
<trkpt lat="40.0713749" lon="-105.229789">
  <ele>1583.0</ele>
  <time>2026-08-28T17:56:55Z</time>
  <course>0.0</course>
  <speed>0.0</speed>
  <fix>3d</fix>
</trkpt>
<trkpt lat="40.0713749" lon="-105.229789">
  <ele>1583.0</ele>
  <time>2026-08-28T17:56:55Z</time>
  <course>248.39</course>
  <speed>0.0</speed>
  <fix>3d</fix>
</trkpt>
<trkpt lat="40.0713749" lon="-105.229789">
  <ele>1583.0</ele>
  <time>2026-08-28T17:56:55Z</time>
  <course>0.0</course>
  <speed>0.0</speed>
  <fix>3d</fix>
</trkpt>
<trkpt lat="40.0713749" lon="-105.229789">
  <ele>1583.0</ele>
  <time>2026-08-28T17:56:55Z</time>
  <course>248.39</course>
  <speed>0.0</speed>
  <fix>3d</fix>
</trkpt>
<trkpt lat="40.0713749" lon="-105.229789">
  <ele>1583.0</ele>
  <time>2026-08-28T17:56:55Z</time>
  <course>0.0</course>
  <speed>0.0</speed>
  <fix>3d</fix>
</trkpt>
<trkpt lat="40.0713749" lon="-105.229789">
  <ele>1583.0</ele>
  <time>2026-08-28T17:56:55Z</time>
  <course>248.4</course>
  <speed>0.0</speed>
  <fix>3d</fix>
</trkpt>
<trkpt lat="40.0713749" lon="-105.229789">
  <ele>1583.0</ele>
  <time>2026-08-28T17:56:55Z</time>
  <course>0.0</course>
  <speed>0.0</speed>
  <fix>3d</fix>
</trkpt>
<trkpt lat="40.0713749" lon="-105.229789">
  <ele>1583.0</ele>
  <time>2026-08-28T17:56:55Z</time>
  <course>248.4</course>
  <speed>0.0</speed>
  <fix>3d</fix>
</trkpt>
<trkpt lat="40.0713749" lon="-105.229789">
  <ele>1583.0</ele>
  <time>2026-08-28T17:56:55Z</time>
  <course>0.0</course>
  <speed>0.0</speed>
  <fix>3d</fix>
</trkpt>
<trkpt lat="40.0713749" lon="-105.229789">
  <ele>1583.0</ele>
  <time>2026-08-28T17:56:55Z</time>
  <course>248.4</course>
  <speed>0.0</speed>
  <fix>3d</fix>
</trkpt>
<trkpt lat="40.0713749" lon="-105.229789">
  <ele>1583.0</ele>
  <time>2026-08-28T17:56:55Z</time>
  <course>0.0</course>
  <speed>0.0</speed>
  <fix>3d</fix>
</trkpt>
<trkpt lat="40.0713749" lon="-105.229789">
  <ele>1583.0</ele>
  <time>2026-08-28T17:56:55Z</time>
  <course>248.4</course>
  <speed>0.0</speed>
  <fix>3d</fix>
</trkpt>
<trkpt lat="40.0713749" lon="-105.229789">
  <ele>1583.0</ele>
  <time>2026-08-28T17:56:55Z</time>
  <course>0.0</course>
  <speed>0.0</speed>
  <fix>3d</fix>
</trkpt>
<trkpt lat="40.0713749" lon="-105.229789">
  <ele>1583.0</ele>
  <time>2026-08-28T17:56:55Z</time>
  <course>248.41</course>
  <speed>0.0</speed>
  <fix>3d</fix>
</trkpt>
<trkpt lat="40.0713749" lon="-105.229789">
  <ele>1583.0</ele>
  <time>2026-08-28T17:56:55Z</time>
  <course>0.0</course>
  <speed>0.0</speed>
  <fix>3d</fix>
</trkpt>
<trkpt lat="40.0713749" lon="-105.229789">
  <ele>1583.0</ele>
  <time>2026-08-28T17:56:55Z</time>
  <course>248.41</course>
  <speed>0.0</speed>
  <fix>3d</fix>
</trkpt>
<trkpt lat="40.0713749" lon="-105.229789">
  <ele>1583.0</ele>
  <time>2026-08-28T17:56:55Z</time>
  <course>0.0</course>
  <speed>0.0</speed>
  <fix>3d</fix>
</trkpt>
<trkpt lat="40.0713749" lon="-105.229789">
  <ele>1583.0</ele>
  <time>2026-08-28T17:56:55Z</time>
  <course>248.41</course>
  <speed>0.0</speed>
  <fix>3d</fix>
</trkpt>
<trkpt lat="40.0713749" lon="-105.229789">
  <ele>1583.0</ele>
  <time>2026-08-28T17:56:55Z</time>
  <course>0.0</course>
  <speed>0.0</speed>
  <fix>3d</fix>
</trkpt>
<trkpt lat="40.0713749" lon="-105.229789">
  <ele>1583.0</ele>
  <time>2026-08-28T17:56:55Z</time>
  <course>248.41</course>
  <speed>0.0</speed>
  <fix>3d</fix>
</trkpt>
<trkpt lat="40.0713749" lon="-105.229789">
  <ele>1583.0</ele>
  <time>2026-08-28T17:56:55Z</time>
  <course>0.0</course>
  <speed>0.0</speed>
  <fix>3d</fix>
</trkpt>
<trkpt lat="40.0713749" lon="-105.229789">
  <ele>1583.0</ele>
  <time>2026-08-28T17:56:55Z</time>
  <course>248.41</course>
  <speed>0.0</speed>
  <fix>3d</fix>
</trkpt>
<trkpt lat="40.0713749" lon="-105.229789">
  <ele>1583.0</ele>
  <time>2026-08-28T17:56:55Z</time>
  <course>0.0</course>
  <speed>0.0</speed>
  <fix>3d</fix>
</trkpt>
<trkpt lat="40.0713749" lon="-105.229789">
  <ele>1583.0</ele>
  <time>2026-08-28T17:56:55Z</time>
  <course>248.41</course>
  <speed>0.0</speed>
  <fix>3d</fix>
</trkpt>
<trkpt lat="40.0713749" lon="-105.229789">
  <ele>1583.0</ele>
  <time>2026-08-28T17:56:55Z</time>
  <course>0.0</course>
  <speed>0.0</speed>
  <fix>3d</fix>
</trkpt>
<trkpt lat="40.0713749" lon="-105.229789">
  <ele>1583.0</ele>
  <time>2026-08-28T17:56:55Z</time>
  <course>248.41</course>
  <speed>0.0</speed>
  <fix>3d</fix>
</trkpt>
<trkpt lat="40.0713749" lon="-105.229789">
  <ele>1583.0</ele>
  <time>2026-08-28T17:56:55Z</time>
  <course>0.0</course>
  <speed>0.0</speed>
  <fix>3d</fix>
</trkpt>
<trkpt lat="40.0713749" lon="-105.229789">
  <ele>1583.0</ele>
  <time>2026-08-28T17:56:55Z</time>
  <course>248.41</course>
  <speed>0.0</speed>
  <fix>3d</fix>
</trkpt>
<trkpt lat="40.0713749" lon="-105.229789">
  <ele>1583.0</ele>
  <time>2026-08-28T17:56:55Z</time>
  <course>0.0</course>
  <speed>0.0</speed>
  <fix>3d</fix>
</trkpt>
<trkpt lat="40.0713749" lon="-105.229789">
  <ele>1583.0</ele>
  <time>2026-08-28T17:56:55Z</time>
  <course>248.41</course>
  <speed>0.0</speed>
  <fix>3d</fix>
</trkpt>
<trkpt lat="40.0713749" lon="-105.229789">
  <ele>1583.0</ele>
  <time>2026-08-28T17:56:55Z</time>
  <course>0.0</course>
  <speed>0.0</speed>
  <fix>3d</fix>
</trkpt>
<trkpt lat="40.0713749" lon="-105.229789">
  <ele>1583.0</ele>
  <time>2026-08-28T17:56:55Z</time>
  <course>248.41</course>
  <speed>0.0</speed>
  <fix>3d</fix>
</trkpt>
<trkpt lat="40.0713749" lon="-105.229789">
  <ele>1583.0</ele>
  <time>2026-08-28T17:56:55Z</time>
  <course>0.0</course>
  <speed>0.0</speed>
  <fix>3d</fix>
</trkpt>
<trkpt lat="40.0713749" lon="-105.229789">
  <ele>1583.0</ele>
  <time>2026-08-28T17:56:55Z</time>
  <course>248.41</course>
  <speed>0.0</speed>
  <fix>3d</fix>
</trkpt>
<trkpt lat="40.0713749" lon="-105.229789">
  <ele>1583.0</ele>
  <time>2026-08-28T17:56:55Z</time>
  <course>0.0</course>
  <speed>0.0</speed>
  <fix>3d</fix>
</trkpt>
<trkpt lat="40.0713749" lon="-105.229789">
  <ele>1583.0</ele>
  <time>2026-08-28T17:56:55Z</time>
  <course>248.41</course>
  <speed>0.0</speed>
  <fix>3d</fix>
</trkpt>
<trkpt lat="40.0713749" lon="-105.229789">
  <ele>1583.0</ele>
  <time>2026-08-28T17:56:55Z</time>
  <course>0.0</course>
  <speed>0.0</speed>
  <fix>3d</fix>
</trkpt>
<trkpt lat="40.0713749" lon="-105.229789">
  <ele>1583.0</ele>
  <time>2026-08-28T17:56:55Z</time>
  <course>248.41</course>
  <speed>0.0</speed>
  <fix>3d</fix>
</trkpt>
<trkpt lat="40.0713749" lon="-105.229789">
  <ele>1583.0</ele>
  <time>2026-08-28T17:56:55Z</time>
  <course>0.0</course>
  <speed>0.0</speed>
  <fix>3d</fix>
</trkpt>
<trkpt lat="40.0713749" lon="-105.229789">
  <ele>1583.0</ele>
  <time>2026-08-28T17:56:55Z</time>
  <course>248.41</course>
  <speed>0.0</speed>
  <fix>3d</fix>
</trkpt>
<trkpt lat="40.0713749" lon="-105.229789">
  <ele>1583.0</ele>
  <time>2026-08-28T17:56:55Z</time>
  <course>0.0</course>
  <speed>0.0</speed>
  <fix>3d</fix>
</trkpt>
<trkpt lat="40.0713749" lon="-105.229789">
  <ele>1583.0</ele>
  <time>2026-08-28T17:56:55Z</time>
  <course>248.41</course>
  <speed>0.0</speed>
  <fix>3d</fix>
</trkpt>
<trkpt lat="40.0713749" lon="-105.229789">
  <ele>1583.0</ele>
  <time>2026-08-28T17:56:55Z</time>
  <course>0.0</course>
  <speed>0.0</speed>
  <fix>3d</fix>
</trkpt>
<trkpt lat="40.0713749" lon="-105.229789">
  <ele>1583.0</ele>
  <time>2026-08-28T17:56:55Z</time>
  <course>248.41</course>
  <speed>0.0</speed>
  <fix>3d</fix>
</trkpt>
<trkpt lat="40.0713749" lon="-105.229789">
  <ele>1583.0</ele>
  <time>2026-08-28T17:56:55Z</time>
  <course>0.0</course>
  <speed>0.0</speed>
  <fix>3d</fix>
</trkpt>
<trkpt lat="40.0713749" lon="-105.229789">
  <ele>1583.0</ele>
  <time>2026-08-28T17:56:55Z</time>
  <course>248.4</course>
  <speed>0.0</speed>
  <fix>3d</fix>
</trkpt>
<trkpt lat="40.0713749" lon="-105.229789">
  <ele>1583.0</ele>
  <time>2026-08-28T17:56:55Z</time>
  <course>0.0</course>
  <speed>0.0</speed>
  <fix>3d</fix>
</trkpt>
<trkpt lat="40.0713749" lon="-105.229789">
  <ele>1583.0</ele>
  <time>2026-08-28T17:56:55Z</time>
  <course>248.4</course>
  <speed>0.0</speed>
  <fix>3d</fix>
</trkpt>
<trkpt lat="40.0713749" lon="-105.229789">
  <ele>1583.0</ele>
  <time>2026-08-28T17:56:55Z</time>
  <course>0.0</course>
  <speed>0.0</speed>
  <fix>3d</fix>
</trkpt>
<trkpt lat="40.0713749" lon="-105.229789">
  <ele>1583.0</ele>
  <time>2026-08-28T17:56:55Z</time>
  <course>248.4</course>
  <speed>0.0</speed>
  <fix>3d</fix>
</trkpt>
<trkpt lat="40.0713749" lon="-105.229789">
  <ele>1583.0</ele>
  <time>2026-08-28T17:56:55Z</time>
  <course>0.0</course>
  <speed>0.0</speed>
  <fix>3d</fix>
</trkpt>
<trkpt lat="40.0713749" lon="-105.229789">
  <ele>1583.0</ele>
  <time>2026-08-28T17:56:55Z</time>
  <course>248.4</course>
  <speed>0.0</speed>
  <fix>3d</fix>
</trkpt>
<trkpt lat="40.0713749" lon="-105.229789">
  <ele>1583.0</ele>
  <time>2026-08-28T17:56:55Z</time>
  <course>0.0</course>
  <speed>0.0</speed>
  <fix>3d</fix>
</trkpt>
<trkpt lat="40.0713749" lon="-105.229789">
  <ele>1583.0</ele>
  <time>2026-08-28T17:56:55Z</time>
  <course>248.4</course>
  <speed>0.0</speed>
  <fix>3d</fix>
</trkpt>
<trkpt lat="40.0713749" lon="-105.229789">
  <ele>1583.0</ele>
  <time>2026-08-28T17:56:55Z</time>
  <course>0.0</course>
  <speed>0.0</speed>
  <fix>3d</fix>
</trkpt>
<trkpt lat="40.0713749" lon="-105.229789">
  <ele>1583.0</ele>
  <time>2026-08-28T17:56:55Z</time>
  <course>248.39</course>
  <speed>0.01</speed>
  <fix>3d</fix>
</trkpt>
<trkpt lat="40.0713749" lon="-105.229789">
  <ele>1583.0</ele>
  <time>2026-08-28T17:56:55Z</time>
  <course>0.0</course>
  <speed>0.0</speed>
  <fix>3d</fix>
</trkpt>
<trkpt lat="40.0713749" lon="-105.229789">
  <ele>1583.0</ele>
  <time>2026-08-28T17:56:55Z</time>
  <course>248.39</course>
  <speed>0.01</speed>
  <fix>3d</fix>
</trkpt>
<trkpt lat="40.0713749" lon="-105.229789">
  <ele>1583.0</ele>
  <time>2026-08-28T17:56:55Z</time>
  <course>0.0</course>
  <speed>0.0</speed>
  <fix>3d</fix>
</trkpt>
<trkpt lat="40.0713749" lon="-105.229789">
  <ele>1583.0</ele>
  <time>2026-08-28T17:56:55Z</time>
  <course>248.39</course>
  <speed>0.01</speed>
  <fix>3d</fix>
</trkpt>
<trkpt lat="40.0713749" lon="-105.229789">
  <ele>1583.0</ele>
  <time>2026-08-28T17:56:55Z</time>
  <course>0.0</course>
  <speed>0.0</speed>
  <fix>3d</fix>
</trkpt>
<trkpt lat="40.0713749" lon="-105.229789">
  <ele>1583.0</ele>
  <time>2026-08-28T17:56:55Z</time>
  <course>248.38</course>
  <speed>0.01</speed>
  <fix>3d</fix>
</trkpt>
<trkpt lat="40.0713749" lon="-105.229789">
  <ele>1583.0</ele>
  <time>2026-08-28T17:56:55Z</time>
  <course>0.0</course>
  <speed>0.0</speed>
  <fix>3d</fix>
</trkpt>
<trkpt lat="40.0713749" lon="-105.229789">
  <ele>1583.0</ele>
  <time>2026-08-28T17:56:55Z</time>
  <course>248.38</course>
  <speed>0.01</speed>
  <fix>3d</fix>
</trkpt>
<trkpt lat="40.0713749" lon="-105.229789">
  <ele>1583.0</ele>
  <time>2026-08-28T17:56:55Z</time>
  <course>0.0</course>
  <speed>0.0</speed>
  <fix>3d</fix>
</trkpt>
<trkpt lat="40.0713749" lon="-105.229789">
  <ele>1583.0</ele>
  <time>2026-08-28T17:56:55Z</time>
  <course>248.38</course>
  <speed>0.01</speed>
  <fix>3d</fix>
</trkpt>
<trkpt lat="40.0713749" lon="-105.229789">
  <ele>1583.0</ele>
  <time>2026-08-28T17:56:55Z</time>
  <course>0.0</course>
  <speed>0.0</speed>
  <fix>3d</fix>
</trkpt>
<trkpt lat="40.0713749" lon="-105.229789">
  <ele>1583.0</ele>
  <time>2026-08-28T17:56:55Z</time>
  <course>248.37</course>
  <speed>0.01</speed>
  <fix>3d</fix>
</trkpt>
<trkpt lat="40.0713749" lon="-105.229789">
  <ele>1583.0</ele>
  <time>2026-08-28T17:56:55Z</time>
  <course>0.0</course>
  <speed>0.0</speed>
  <fix>3d</fix>
</trkpt>
<trkpt lat="40.0713749" lon="-105.229789">
  <ele>1583.0</ele>
  <time>2026-08-28T17:56:55Z</time>
  <course>248.37</course>
  <speed>0.01</speed>
  <fix>3d</fix>
</trkpt>
<trkpt lat="40.0713749" lon="-105.229789">
  <ele>1583.0</ele>
  <time>2026-08-28T17:56:55Z</time>
  <course>0.0</course>
  <speed>0.0</speed>
  <fix>3d</fix>
</trkpt>
<trkpt lat="40.0713749" lon="-105.229789">
  <ele>1583.0</ele>
  <time>2026-08-28T17:56:55Z</time>
  <course>248.37</course>
  <speed>0.01</speed>
  <fix>3d</fix>
</trkpt>
<trkpt lat="40.0713749" lon="-105.229789">
  <ele>1583.0</ele>
  <time>2026-08-28T17:56:55Z</time>
  <course>0.0</course>
  <speed>0.0</speed>
  <fix>3d</fix>
</trkpt>
<trkpt lat="40.0713749" lon="-105.229789">
  <ele>1583.0</ele>
  <time>2026-08-28T17:56:55Z</time>
  <course>248.36</course>
  <speed>0.01</speed>
  <fix>3d</fix>
</trkpt>
<trkpt lat="40.0713749" lon="-105.229789">
  <ele>1583.0</ele>
  <time>2026-08-28T17:56:55Z</time>
  <course>0.0</course>
  <speed>0.0</speed>
  <fix>3d</fix>
</trkpt>
<trkpt lat="40.0713749" lon="-105.229789">
  <ele>1583.0</ele>
  <time>2026-08-28T17:56:55Z</time>
  <course>248.36</course>
  <speed>0.01</speed>
  <fix>3d</fix>
</trkpt>
<trkpt lat="40.0713749" lon="-105.229789">
  <ele>1583.0</ele>
  <time>2026-08-28T17:56:55Z</time>
  <course>0.0</course>
  <speed>0.0</speed>
  <fix>3d</fix>
</trkpt>
<trkpt lat="40.0713749" lon="-105.229789">
  <ele>1583.0</ele>
  <time>2026-08-28T17:56:55Z</time>
  <course>248.36</course>
  <speed>0.01</speed>
  <fix>3d</fix>
</trkpt>
<trkpt lat="40.0713749" lon="-105.229789">
  <ele>1583.0</ele>
  <time>2026-08-28T17:56:55Z</time>
  <course>0.0</course>
  <speed>0.0</speed>
  <fix>3d</fix>
</trkpt>
<trkpt lat="40.0713749" lon="-105.229789">
  <ele>1583.0</ele>
  <time>2026-08-28T17:56:55Z</time>
  <course>248.35</course>
  <speed>0.01</speed>
  <fix>3d</fix>
</trkpt>
<trkpt lat="40.0713749" lon="-105.229789">
  <ele>1583.0</ele>
  <time>2026-08-28T17:56:55Z</time>
  <course>0.0</course>
  <speed>0.0</speed>
  <fix>3d</fix>
</trkpt>
<trkpt lat="40.0713749" lon="-105.229789">
  <ele>1583.0</ele>
  <time>2026-08-28T17:56:55Z</time>
  <course>248.35</course>
  <speed>0.01</speed>
  <fix>3d</fix>
</trkpt>
<trkpt lat="40.0713749" lon="-105.229789">
  <ele>1583.0</ele>
  <time>2026-08-28T17:56:55Z</time>
  <course>0.0</course>
  <speed>0.0</speed>
  <fix>3d</fix>
</trkpt>
<trkpt lat="40.0713749" lon="-105.229789">
  <ele>1583.0</ele>
  <time>2026-08-28T17:56:55Z</time>
  <course>248.35</course>
  <speed>0.01</speed>
  <fix>3d</fix>
</trkpt>
<trkpt lat="40.0713749" lon="-105.229789">
  <ele>1583.0</ele>
  <time>2026-08-28T17:56:55Z</time>
  <course>0.0</course>
  <speed>0.0</speed>
  <fix>3d</fix>
</trkpt>
<trkpt lat="40.0713749" lon="-105.229789">
  <ele>1583.0</ele>
  <time>2026-08-28T17:56:55Z</time>
  <course>248.34</course>
  <speed>0.01</speed>
  <fix>3d</fix>
</trkpt>
<trkpt lat="40.0713749" lon="-105.229789">
  <ele>1583.0</ele>
  <time>2026-08-28T17:56:55Z</time>
  <course>0.0</course>
  <speed>0.0</speed>
  <fix>3d</fix>
</trkpt>
<trkpt lat="40.0713749" lon="-105.229789">
  <ele>1583.0</ele>
  <time>2026-08-28T17:56:55Z</time>
  <course>248.34</course>
  <speed>0.01</speed>
  <fix>3d</fix>
</trkpt>
<trkpt lat="40.0713749" lon="-105.229789">
  <ele>1583.0</ele>
  <time>2026-08-28T17:56:55Z</time>
  <course>0.0</course>
  <speed>0.0</speed>
  <fix>3d</fix>
</trkpt>
<trkpt lat="40.0713749" lon="-105.229789">
  <ele>1583.0</ele>
  <time>2026-08-28T17:56:55Z</time>
  <course>248.33</course>
  <speed>0.01</speed>
  <fix>3d</fix>
</trkpt>
<trkpt lat="40.0713749" lon="-105.229789">
  <ele>1583.0</ele>
  <time>2026-08-28T17:56:55Z</time>
  <course>0.0</course>
  <speed>0.0</speed>
  <fix>3d</fix>
</trkpt>
<trkpt lat="40.0713749" lon="-105.229789">
  <ele>1583.0</ele>
  <time>2026-08-28T17:56:55Z</time>
  <course>248.33</course>
  <speed>0.01</speed>
  <fix>3d</fix>
</trkpt>
<trkpt lat="40.0713749" lon="-105.229789">
  <ele>1583.0</ele>
  <time>2026-08-28T17:56:55Z</time>
  <course>0.0</course>
  <speed>0.0</speed>
  <fix>3d</fix>
</trkpt>
<trkpt lat="40.0713749" lon="-105.229789">
  <ele>1583.0</ele>
  <time>2026-08-28T17:56:55Z</time>
  <course>248.32</course>
  <speed>0.01</speed>
  <fix>3d</fix>
</trkpt>
<trkpt lat="40.0713749" lon="-105.229789">
  <ele>1583.0</ele>
  <time>2026-08-28T17:56:55Z</time>
  <course>0.0</course>
  <speed>0.0</speed>
  <fix>3d</fix>
</trkpt>
<trkpt lat="40.0713749" lon="-105.229789">
  <ele>1583.0</ele>
  <time>2026-08-28T17:56:55Z</time>
  <course>248.32</course>
  <speed>0.01</speed>
  <fix>3d</fix>
</trkpt>
<trkpt lat="40.0713749" lon="-105.229789">
  <ele>1583.0</ele>
  <time>2026-08-28T17:56:55Z</time>
  <course>0.0</course>
  <speed>0.0</speed>
  <fix>3d</fix>
</trkpt>
<trkpt lat="40.0713749" lon="-105.229789">
  <ele>1583.0</ele>
  <time>2026-08-28T17:56:55Z</time>
  <course>248.32</course>
  <speed>0.01</speed>
  <fix>3d</fix>
</trkpt>
<trkpt lat="40.0713749" lon="-105.229789">
  <ele>1583.0</ele>
  <time>2026-08-28T17:56:55Z</time>
  <course>0.0</course>
  <speed>0.0</speed>
  <fix>3d</fix>
</trkpt>
<trkpt lat="40.0713749" lon="-105.229789">
  <ele>1583.0</ele>
  <time>2026-08-28T17:56:55Z</time>
  <course>248.31</course>
  <speed>0.01</speed>
  <fix>3d</fix>
</trkpt>
<trkpt lat="40.0713749" lon="-105.229789">
  <ele>1583.0</ele>
  <time>2026-08-28T17:56:55Z</time>
  <course>0.0</course>
  <speed>0.0</speed>
  <fix>3d</fix>
</trkpt>
<trkpt lat="40.0713749" lon="-105.229789">
  <ele>1583.0</ele>
  <time>2026-08-28T17:56:55Z</time>
  <course>248.31</course>
  <speed>0.01</speed>
  <fix>3d</fix>
</trkpt>
<trkpt lat="40.0713749" lon="-105.229789">
  <ele>1583.0</ele>
  <time>2026-08-28T17:56:55Z</time>
  <course>0.0</course>
  <speed>0.0</speed>
  <fix>3d</fix>
</trkpt>
<trkpt lat="40.0713749" lon="-105.229789">
  <ele>1583.0</ele>
  <time>2026-08-28T17:56:55Z</time>
  <course>248.3</course>
  <speed>0.01</speed>
  <fix>3d</fix>
</trkpt>
<trkpt lat="40.0713749" lon="-105.229789">
  <ele>1583.0</ele>
  <time>2026-08-28T17:56:55Z</time>
  <course>0.0</course>
  <speed>0.0</speed>
  <fix>3d</fix>
</trkpt>
<trkpt lat="40.0713749" lon="-105.229789">
  <ele>1583.0</ele>
  <time>2026-08-28T17:56:55Z</time>
  <course>248.3</course>
  <speed>0.01</speed>
  <fix>3d</fix>
</trkpt>
<trkpt lat="40.0713749" lon="-105.229789">
  <ele>1583.0</ele>
  <time>2026-08-28T17:56:55Z</time>
  <course>0.0</course>
  <speed>0.0</speed>
  <fix>3d</fix>
</trkpt>
<trkpt lat="40.0713749" lon="-105.229789">
  <ele>1583.0</ele>
  <time>2026-08-28T17:56:55Z</time>
  <course>248.29</course>
  <speed>0.01</speed>
  <fix>3d</fix>
</trkpt>
<trkpt lat="40.0713749" lon="-105.229789">
  <ele>1583.0</ele>
  <time>2026-08-28T17:56:55Z</time>
  <course>0.0</course>
  <speed>0.0</speed>
  <fix>3d</fix>
</trkpt>
<trkpt lat="40.0713749" lon="-105.229789">
  <ele>1583.0</ele>
  <time>2026-08-28T17:56:55Z</time>
  <course>248.29</course>
  <speed>0.01</speed>
  <fix>3d</fix>
</trkpt>
<trkpt lat="40.0713749" lon="-105.229789">
  <ele>1583.0</ele>
  <time>2026-08-28T17:56:55Z</time>
  <course>0.0</course>
  <speed>0.0</speed>
  <fix>3d</fix>
</trkpt>
<trkpt lat="40.0713749" lon="-105.229789">
  <ele>1583.0</ele>
  <time>2026-08-28T17:56:55Z</time>
  <course>248.28</course>
  <speed>0.01</speed>
  <fix>3d</fix>
</trkpt>
<trkpt lat="40.0713749" lon="-105.229789">
  <ele>1583.0</ele>
  <time>2026-08-28T17:56:55Z</time>
  <course>0.0</course>
  <speed>0.0</speed>
  <fix>3d</fix>
</trkpt>
<trkpt lat="40.0713749" lon="-105.229789">
  <ele>1583.0</ele>
  <time>2026-08-28T17:56:55Z</time>
  <course>248.28</course>
  <speed>0.01</speed>
  <fix>3d</fix>
</trkpt>
<trkpt lat="40.0713749" lon="-105.229789">
  <ele>1583.0</ele>
  <time>2026-08-28T17:56:55Z</time>
  <course>0.0</course>
  <speed>0.0</speed>
  <fix>3d</fix>
</trkpt>
<trkpt lat="40.0713749" lon="-105.229789">
  <ele>1583.0</ele>
  <time>2026-08-28T17:56:55Z</time>
  <course>248.27</course>
  <speed>0.01</speed>
  <fix>3d</fix>
</trkpt>
<trkpt lat="40.0713749" lon="-105.229789">
  <ele>1583.0</ele>
  <time>2026-08-28T17:56:55Z</time>
  <course>0.0</course>
  <speed>0.0</speed>
  <fix>3d</fix>
</trkpt>
<trkpt lat="40.0713749" lon="-105.229789">
  <ele>1583.0</ele>
  <time>2026-08-28T17:56:55Z</time>
  <course>248.27</course>
  <speed>0.01</speed>
  <fix>3d</fix>
</trkpt>
<trkpt lat="40.0713749" lon="-105.229789">
  <ele>1583.0</ele>
  <time>2026-08-28T17:56:55Z</time>
  <course>0.0</course>
  <speed>0.0</speed>
  <fix>3d</fix>
</trkpt>
<trkpt lat="40.0713749" lon="-105.229789">
  <ele>1583.0</ele>
  <time>2026-08-28T17:56:55Z</time>
  <course>248.26</course>
  <speed>0.01</speed>
  <fix>3d</fix>
</trkpt>
<trkpt lat="40.0713749" lon="-105.229789">
  <ele>1583.0</ele>
  <time>2026-08-28T17:56:55Z</time>
  <course>0.0</course>
  <speed>0.0</speed>
  <fix>3d</fix>
</trkpt>
<trkpt lat="40.0713749" lon="-105.229789">
  <ele>1583.0</ele>
  <time>2026-08-28T17:56:55Z</time>
  <course>248.26</course>
  <speed>0.01</speed>
  <fix>3d</fix>
</trkpt>
<trkpt lat="40.0713749" lon="-105.229789">
  <ele>1583.0</ele>
  <time>2026-08-28T17:56:55Z</time>
  <course>0.0</course>
  <speed>0.0</speed>
  <fix>3d</fix>
</trkpt>
<trkpt lat="40.0713749" lon="-105.229789">
  <ele>1583.0</ele>
  <time>2026-08-28T17:56:55Z</time>
  <course>248.26</course>
  <speed>0.01</speed>
  <fix>3d</fix>
</trkpt>
<trkpt lat="40.0713749" lon="-105.229789">
  <ele>1583.0</ele>
  <time>2026-08-28T17:56:55Z</time>
  <course>0.0</course>
  <speed>0.0</speed>
  <fix>3d</fix>
</trkpt>
<trkpt lat="40.0713749" lon="-105.229789">
  <ele>1583.0</ele>
  <time>2026-08-28T17:56:55Z</time>
  <course>248.25</course>
  <speed>0.01</speed>
  <fix>3d</fix>
</trkpt>
<trkpt lat="40.0713749" lon="-105.229789">
  <ele>1583.0</ele>
  <time>2026-08-28T17:56:55Z</time>
  <course>0.0</course>
  <speed>0.0</speed>
  <fix>3d</fix>
</trkpt>
<trkpt lat="40.0713749" lon="-105.229789">
  <ele>1583.0</ele>
  <time>2026-08-28T17:56:55Z</time>
  <course>248.25</course>
  <speed>0.01</speed>
  <fix>3d</fix>
</trkpt>
<trkpt lat="40.0713749" lon="-105.229789">
  <ele>1583.0</ele>
  <time>2026-08-28T17:56:55Z</time>
  <course>0.0</course>
  <speed>0.0</speed>
  <fix>3d</fix>
</trkpt>
<trkpt lat="40.0713749" lon="-105.229789">
  <ele>1583.0</ele>
  <time>2026-08-28T17:56:55Z</time>
  <course>248.24</course>
  <speed>0.01</speed>
  <fix>3d</fix>
</trkpt>
<trkpt lat="40.0713749" lon="-105.229789">
  <ele>1583.0</ele>
  <time>2026-08-28T17:56:55Z</time>
  <course>0.0</course>
  <speed>0.0</speed>
  <fix>3d</fix>
</trkpt>
<trkpt lat="40.0713749" lon="-105.229789">
  <ele>1583.0</ele>
  <time>2026-08-28T17:56:55Z</time>
  <course>248.24</course>
  <speed>0.01</speed>
  <fix>3d</fix>
</trkpt>
<trkpt lat="40.0713749" lon="-105.229789">
  <ele>1583.0</ele>
  <time>2026-08-28T17:56:55Z</time>
  <course>0.0</course>
  <speed>0.0</speed>
  <fix>3d</fix>
</trkpt>
<trkpt lat="40.0713749" lon="-105.229789">
  <ele>1583.0</ele>
  <time>2026-08-28T17:56:55Z</time>
  <course>248.23</course>
  <speed>0.01</speed>
  <fix>3d</fix>
</trkpt>
<trkpt lat="40.0713749" lon="-105.229789">
  <ele>1583.0</ele>
  <time>2026-08-28T17:56:55Z</time>
  <course>0.0</course>
  <speed>0.0</speed>
  <fix>3d</fix>
</trkpt>
<trkpt lat="40.0713749" lon="-105.229789">
  <ele>1583.0</ele>
  <time>2026-08-28T17:56:55Z</time>
  <course>248.22</course>
  <speed>0.01</speed>
  <fix>3d</fix>
</trkpt>
<trkpt lat="40.0713749" lon="-105.229789">
  <ele>1583.0</ele>
  <time>2026-08-28T17:56:55Z</time>
  <course>0.0</course>
  <speed>0.0</speed>
  <fix>3d</fix>
</trkpt>
<trkpt lat="40.0713749" lon="-105.229789">
  <ele>1583.0</ele>
  <time>2026-08-28T17:56:55Z</time>
  <course>248.22</course>
  <speed>0.01</speed>
  <fix>3d</fix>
</trkpt>
<trkpt lat="40.0713749" lon="-105.229789">
  <ele>1583.0</ele>
  <time>2026-08-28T17:56:55Z</time>
  <course>0.0</course>
  <speed>0.0</speed>
  <fix>3d</fix>
</trkpt>
<trkpt lat="40.0713749" lon="-105.229789">
  <ele>1583.0</ele>
  <time>2026-08-28T17:56:55Z</time>
  <course>248.22</course>
  <speed>0.01</speed>
  <fix>3d</fix>
</trkpt>
<trkpt lat="40.0713749" lon="-105.229789">
  <ele>1583.0</ele>
  <time>2026-08-28T17:56:55Z</time>
  <course>0.0</course>
  <speed>0.0</speed>
  <fix>3d</fix>
</trkpt>
<trkpt lat="40.0713749" lon="-105.229789">
  <ele>1583.0</ele>
  <time>2026-08-28T17:56:55Z</time>
  <course>248.21</course>
  <speed>0.01</speed>
  <fix>3d</fix>
</trkpt>
<trkpt lat="40.0713749" lon="-105.229789">
  <ele>1583.0</ele>
  <time>2026-08-28T17:56:55Z</time>
  <course>0.0</course>
  <speed>0.0</speed>
  <fix>3d</fix>
</trkpt>
<trkpt lat="40.0713749" lon="-105.229789">
  <ele>1583.0</ele>
  <time>2026-08-28T17:56:55Z</time>
  <course>248.21</course>
  <speed>0.01</speed>
  <fix>3d</fix>
</trkpt>
<trkpt lat="40.0713749" lon="-105.229789">
  <ele>1583.0</ele>
  <time>2026-08-28T17:56:55Z</time>
  <course>0.0</course>
  <speed>0.0</speed>
  <fix>3d</fix>
</trkpt>
<trkpt lat="40.0713749" lon="-105.229789">
  <ele>1583.0</ele>
  <time>2026-08-28T17:56:55Z</time>
  <course>248.2</course>
  <speed>0.01</speed>
  <fix>3d</fix>
</trkpt>
<trkpt lat="40.0713749" lon="-105.229789">
  <ele>1583.0</ele>
  <time>2026-08-28T17:56:55Z</time>
  <course>0.0</course>
  <speed>0.0</speed>
  <fix>3d</fix>
</trkpt>
<trkpt lat="40.0713749" lon="-105.229789">
  <ele>1583.0</ele>
  <time>2026-08-28T17:56:55Z</time>
  <course>248.19</course>
  <speed>0.01</speed>
  <fix>3d</fix>
</trkpt>
<trkpt lat="40.0713749" lon="-105.229789">
  <ele>1583.0</ele>
  <time>2026-08-28T17:56:55Z</time>
  <course>0.0</course>
  <speed>0.0</speed>
  <fix>3d</fix>
</trkpt>
<trkpt lat="40.0713749" lon="-105.229789">
  <ele>1583.0</ele>
  <time>2026-08-28T17:56:55Z</time>
  <course>248.19</course>
  <speed>0.01</speed>
  <fix>3d</fix>
</trkpt>
<trkpt lat="40.0713749" lon="-105.229789">
  <ele>1583.0</ele>
  <time>2026-08-28T17:56:55Z</time>
  <course>0.0</course>
  <speed>0.0</speed>
  <fix>3d</fix>
</trkpt>
<trkpt lat="40.0713749" lon="-105.229789">
  <ele>1583.0</ele>
  <time>2026-08-28T17:56:55Z</time>
  <course>248.19</course>
  <speed>0.01</speed>
  <fix>3d</fix>
</trkpt>
<trkpt lat="40.0713749" lon="-105.229789">
  <ele>1583.0</ele>
  <time>2026-08-28T17:56:55Z</time>
  <course>0.0</course>
  <speed>0.0</speed>
  <fix>3d</fix>
</trkpt>
<trkpt lat="40.0713749" lon="-105.229789">
  <ele>1583.0</ele>
  <time>2026-08-28T17:56:55Z</time>
  <course>248.18</course>
  <speed>0.01</speed>
  <fix>3d</fix>
</trkpt>
<trkpt lat="40.0713749" lon="-105.229789">
  <ele>1583.0</ele>
  <time>2026-08-28T17:56:55Z</time>
  <course>0.0</course>
  <speed>0.0</speed>
  <fix>3d</fix>
</trkpt>
<trkpt lat="40.0713749" lon="-105.229789">
  <ele>1583.0</ele>
  <time>2026-08-28T17:56:55Z</time>
  <course>248.18</course>
  <speed>0.01</speed>
  <fix>3d</fix>
</trkpt>
<trkpt lat="40.0713749" lon="-105.229789">
  <ele>1583.0</ele>
  <time>2026-08-28T17:56:55Z</time>
  <course>0.0</course>
  <speed>0.0</speed>
  <fix>3d</fix>
</trkpt>
<trkpt lat="40.0713749" lon="-105.229789">
  <ele>1583.0</ele>
  <time>2026-08-28T17:56:55Z</time>
  <course>248.17</course>
  <speed>0.01</speed>
  <fix>3d</fix>
</trkpt>
<trkpt lat="40.0713749" lon="-105.229789">
  <ele>1583.0</ele>
  <time>2026-08-28T17:56:55Z</time>
  <course>0.0</course>
  <speed>0.0</speed>
  <fix>3d</fix>
</trkpt>
<trkpt lat="40.0713749" lon="-105.229789">
  <ele>1583.0</ele>
  <time>2026-08-28T17:56:55Z</time>
  <course>248.17</course>
  <speed>0.022360679774997897</speed>
  <fix>3d</fix>
</trkpt>
<trkpt lat="40.0713749" lon="-105.229789">
  <ele>1583.0</ele>
  <time>2026-08-28T17:56:55Z</time>
  <course>0.0</course>
  <speed>0.0</speed>
  <fix>3d</fix>
</trkpt>
<trkpt lat="40.0713749" lon="-105.229789">
  <ele>1583.0</ele>
  <time>2026-08-28T17:56:55Z</time>
  <course>248.16</course>
  <speed>0.022360679774997897</speed>
  <fix>3d</fix>
</trkpt>
<trkpt lat="40.0713749" lon="-105.229789">
  <ele>1583.0</ele>
  <time>2026-08-28T17:56:55Z</time>
  <course>0.0</course>
  <speed>0.0</speed>
  <fix>3d</fix>
</trkpt>
<trkpt lat="40.0713749" lon="-105.229789">
  <ele>1583.0</ele>
  <time>2026-08-28T17:56:55Z</time>
  <course>248.16</course>
  <speed>0.022360679774997897</speed>
  <fix>3d</fix>
</trkpt>
<trkpt lat="40.0713749" lon="-105.229789">
  <ele>1583.0</ele>
  <time>2026-08-28T17:56:55Z</time>
  <course>0.0</course>
  <speed>0.0</speed>
  <fix>3d</fix>
</trkpt>
<trkpt lat="40.0713749" lon="-105.229789">
  <ele>1583.0</ele>
  <time>2026-08-28T17:56:56Z</time>
  <course>248.15</course>
  <speed>0.022360679774997897</speed>
  <fix>3d</fix>
</trkpt>
<trkpt lat="40.0713749" lon="-105.229789">
  <ele>1583.0</ele>
  <time>2026-08-28T17:56:56Z</time>
  <course>0.0</course>
  <speed>0.0</speed>
  <fix>3d</fix>
</trkpt>
<trkpt lat="40.0713749" lon="-105.229789">
  <ele>1583.0</ele>
  <time>2026-08-28T17:56:56Z</time>
  <course>248.15</course>
  <speed>0.022360679774997897</speed>
  <fix>3d</fix>
</trkpt>
<trkpt lat="40.0713749" lon="-105.229789">
  <ele>1583.0</ele>
  <time>2026-08-28T17:56:56Z</time>
  <course>0.0</course>
  <speed>0.0</speed>
  <fix>3d</fix>
</trkpt>
<trkpt lat="40.0713749" lon="-105.229789">
  <ele>1583.0</ele>
  <time>2026-08-28T17:56:56Z</time>
  <course>248.14</course>
  <speed>0.022360679774997897</speed>
  <fix>3d</fix>
</trkpt>
<trkpt lat="40.0713749" lon="-105.229789">
  <ele>1583.0</ele>
  <time>2026-08-28T17:56:56Z</time>
  <course>0.0</course>
  <speed>0.0</speed>
  <fix>3d</fix>
</trkpt>
<trkpt lat="40.0713749" lon="-105.229789">
  <ele>1583.0</ele>
  <time>2026-08-28T17:56:56Z</time>
  <course>248.14</course>
  <speed>0.022360679774997897</speed>
  <fix>3d</fix>
</trkpt>
<trkpt lat="40.0713749" lon="-105.229789">
  <ele>1583.0</ele>
  <time>2026-08-28T17:56:56Z</time>
  <course>0.0</course>
  <speed>0.0</speed>
  <fix>3d</fix>
</trkpt>
<trkpt lat="40.0713749" lon="-105.229789">
  <ele>1583.0</ele>
  <time>2026-08-28T17:56:56Z</time>
  <course>248.13</course>
  <speed>0.022360679774997897</speed>
  <fix>3d</fix>
</trkpt>
<trkpt lat="40.0713749" lon="-105.229789">
  <ele>1583.0</ele>
  <time>2026-08-28T17:56:56Z</time>
  <course>0.0</course>
  <speed>0.0</speed>
  <fix>3d</fix>
</trkpt>
<trkpt lat="40.0713749" lon="-105.229789">
  <ele>1583.0</ele>
  <time>2026-08-28T17:56:56Z</time>
  <course>248.13</course>
  <speed>0.022360679774997897</speed>
  <fix>3d</fix>
</trkpt>
<trkpt lat="40.0713749" lon="-105.229789">
  <ele>1583.0</ele>
  <time>2026-08-28T17:56:56Z</time>
  <course>0.0</course>
  <speed>0.0</speed>
  <fix>3d</fix>
</trkpt>
<trkpt lat="40.0713749" lon="-105.229789">
  <ele>1583.0</ele>
  <time>2026-08-28T17:56:56Z</time>
  <course>248.12</course>
  <speed>0.022360679774997897</speed>
  <fix>3d</fix>
</trkpt>
<trkpt lat="40.0713749" lon="-105.229789">
  <ele>1583.0</ele>
  <time>2026-08-28T17:56:56Z</time>
  <course>0.0</course>
  <speed>0.0</speed>
  <fix>3d</fix>
</trkpt>
<trkpt lat="40.0713749" lon="-105.229789">
  <ele>1583.0</ele>
  <time>2026-08-28T17:56:56Z</time>
  <course>248.12</course>
  <speed>0.022360679774997897</speed>
  <fix>3d</fix>
</trkpt>
<trkpt lat="40.0713749" lon="-105.229789">
  <ele>1583.0</ele>
  <time>2026-08-28T17:56:56Z</time>
  <course>0.0</course>
  <speed>0.0</speed>
  <fix>3d</fix>
</trkpt>
<trkpt lat="40.0713749" lon="-105.229789">
  <ele>1583.0</ele>
  <time>2026-08-28T17:56:56Z</time>
  <course>248.11</course>
  <speed>0.022360679774997897</speed>
  <fix>3d</fix>
</trkpt>
<trkpt lat="40.0713749" lon="-105.229789">
  <ele>1583.0</ele>
  <time>2026-08-28T17:56:56Z</time>
  <course>0.0</course>
  <speed>0.0</speed>
  <fix>3d</fix>
</trkpt>
<trkpt lat="40.0713749" lon="-105.229789">
  <ele>1583.0</ele>
  <time>2026-08-28T17:56:56Z</time>
  <course>248.11</course>
  <speed>0.022360679774997897</speed>
  <fix>3d</fix>
</trkpt>
<trkpt lat="40.0713749" lon="-105.229789">
  <ele>1583.0</ele>
  <time>2026-08-28T17:56:56Z</time>
  <course>0.0</course>
  <speed>0.0</speed>
  <fix>3d</fix>
</trkpt>
<trkpt lat="40.0713749" lon="-105.229789">
  <ele>1583.0</ele>
  <time>2026-08-28T17:56:56Z</time>
  <course>248.1</course>
  <speed>0.022360679774997897</speed>
  <fix>3d</fix>
</trkpt>
<trkpt lat="40.0713749" lon="-105.229789">
  <ele>1583.0</ele>
  <time>2026-08-28T17:56:56Z</time>
  <course>0.0</course>
  <speed>0.0</speed>
  <fix>3d</fix>
</trkpt>
<trkpt lat="40.0713749" lon="-105.229789">
  <ele>1583.0</ele>
  <time>2026-08-28T17:56:56Z</time>
  <course>248.1</course>
  <speed>0.022360679774997897</speed>
  <fix>3d</fix>
</trkpt>
<trkpt lat="40.0713749" lon="-105.229789">
  <ele>1583.0</ele>
  <time>2026-08-28T17:56:56Z</time>
  <course>0.0</course>
  <speed>0.0</speed>
  <fix>3d</fix>
</trkpt>
<trkpt lat="40.0713749" lon="-105.229789">
  <ele>1583.0</ele>
  <time>2026-08-28T17:56:56Z</time>
  <course>248.09</course>
  <speed>0.022360679774997897</speed>
  <fix>3d</fix>
</trkpt>
<trkpt lat="40.0713749" lon="-105.229789">
  <ele>1583.0</ele>
  <time>2026-08-28T17:56:56Z</time>
  <course>0.0</course>
  <speed>0.0</speed>
  <fix>3d</fix>
</trkpt>
<trkpt lat="40.0713749" lon="-105.229789">
  <ele>1583.0</ele>
  <time>2026-08-28T17:56:56Z</time>
  <course>248.09</course>
  <speed>0.022360679774997897</speed>
  <fix>3d</fix>
</trkpt>
<trkpt lat="40.0713749" lon="-105.229789">
  <ele>1583.0</ele>
  <time>2026-08-28T17:56:56Z</time>
  <course>0.0</course>
  <speed>0.0</speed>
  <fix>3d</fix>
</trkpt>
<trkpt lat="40.0713749" lon="-105.229789">
  <ele>1583.0</ele>
  <time>2026-08-28T17:56:56Z</time>
  <course>248.08</course>
  <speed>0.022360679774997897</speed>
  <fix>3d</fix>
</trkpt>
<trkpt lat="40.0713749" lon="-105.229789">
  <ele>1583.0</ele>
  <time>2026-08-28T17:56:56Z</time>
  <course>0.0</course>
  <speed>0.0</speed>
  <fix>3d</fix>
</trkpt>
<trkpt lat="40.0713749" lon="-105.229789">
  <ele>1583.0</ele>
  <time>2026-08-28T17:56:56Z</time>
  <course>248.08</course>
  <speed>0.022360679774997897</speed>
  <fix>3d</fix>
</trkpt>
<trkpt lat="40.0713749" lon="-105.229789">
  <ele>1583.0</ele>
  <time>2026-08-28T17:56:56Z</time>
  <course>0.0</course>
  <speed>0.0</speed>
  <fix>3d</fix>
</trkpt>
<trkpt lat="40.0713749" lon="-105.229789">
  <ele>1583.0</ele>
  <time>2026-08-28T17:56:56Z</time>
  <course>248.07</course>
  <speed>0.022360679774997897</speed>
  <fix>3d</fix>
</trkpt>
<trkpt lat="40.0713749" lon="-105.229789">
  <ele>1583.0</ele>
  <time>2026-08-28T17:56:56Z</time>
  <course>0.0</course>
  <speed>0.0</speed>
  <fix>3d</fix>
</trkpt>
<trkpt lat="40.0713749" lon="-105.229789">
  <ele>1583.0</ele>
  <time>2026-08-28T17:56:56Z</time>
  <course>248.07</course>
  <speed>0.022360679774997897</speed>
  <fix>3d</fix>
</trkpt>
<trkpt lat="40.0713749" lon="-105.229789">
  <ele>1583.0</ele>
  <time>2026-08-28T17:56:56Z</time>
  <course>0.0</course>
  <speed>0.0</speed>
  <fix>3d</fix>
</trkpt>
<trkpt lat="40.0713749" lon="-105.229789">
  <ele>1583.0</ele>
  <time>2026-08-28T17:56:56Z</time>
  <course>248.06</course>
  <speed>0.022360679774997897</speed>
  <fix>3d</fix>
</trkpt>
<trkpt lat="40.0713749" lon="-105.229789">
  <ele>1583.0</ele>
  <time>2026-08-28T17:56:56Z</time>
  <course>0.0</course>
  <speed>0.0</speed>
  <fix>3d</fix>
</trkpt>
<trkpt lat="40.0713749" lon="-105.229789">
  <ele>1583.0</ele>
  <time>2026-08-28T17:56:56Z</time>
  <course>248.06</course>
  <speed>0.022360679774997897</speed>
  <fix>3d</fix>
</trkpt>
<trkpt lat="40.0713749" lon="-105.229789">
  <ele>1583.0</ele>
  <time>2026-08-28T17:56:56Z</time>
  <course>0.0</course>
  <speed>0.0</speed>
  <fix>3d</fix>
</trkpt>
<trkpt lat="39.6557536" lon="-104.1383298">
  <ele>1563.61</ele>
  <time>2026-08-28T17:56:56Z</time>
  <course>0.0</course>
  <speed>0.0</speed>
  <fix>3d</fix>
</trkpt>
<trkpt lat="40.0713877" lon="-105.2298092">
  <ele>1580.0</ele>
  <time>2026-08-28T17:56:56Z</time>
  <course>238.36</course>
  <speed>0.0</speed>
  <fix>3d</fix>
</trkpt>
<trkpt lat="40.0713877" lon="-105.2298092">
  <ele>1580.0</ele>
  <time>2026-08-28T17:56:56Z</time>
  <course>0.0</course>
  <speed>0.0</speed>
  <fix>3d</fix>
</trkpt>
<trkpt lat="40.0713877" lon="-105.2298092">
  <ele>1580.0</ele>
  <time>2026-08-28T17:56:56Z</time>
  <course>238.36</course>
  <speed>0.0</speed>
  <fix>3d</fix>
</trkpt>
<trkpt lat="40.0713877" lon="-105.2298092">
  <ele>1580.0</ele>
  <time>2026-08-28T17:56:56Z</time>
  <course>0.0</course>
  <speed>0.0</speed>
  <fix>3d</fix>
</trkpt>
<trkpt lat="40.0713877" lon="-105.2298092">
  <ele>1580.0</ele>
  <time>2026-08-28T17:56:56Z</time>
  <course>238.47</course>
  <speed>0.0</speed>
  <fix>3d</fix>
</trkpt>
<trkpt lat="40.0713877" lon="-105.2298092">
  <ele>1580.0</ele>
  <time>2026-08-28T17:56:56Z</time>
  <course>0.0</course>
  <speed>0.0</speed>
  <fix>3d</fix>
</trkpt>
<trkpt lat="40.0713877" lon="-105.2298092">
  <ele>1580.0</ele>
  <time>2026-08-28T17:56:56Z</time>
  <course>238.69</course>
  <speed>0.0</speed>
  <fix>3d</fix>
</trkpt>
<trkpt lat="40.0713877" lon="-105.2298092">
  <ele>1580.0</ele>
  <time>2026-08-28T17:56:56Z</time>
  <course>0.0</course>
  <speed>0.0</speed>
  <fix>3d</fix>
</trkpt>
<trkpt lat="40.0713877" lon="-105.2298092">
  <ele>1580.0</ele>
  <time>2026-08-28T17:56:56Z</time>
  <course>238.98</course>
  <speed>0.0</speed>
  <fix>3d</fix>
</trkpt>
<trkpt lat="40.0713877" lon="-105.2298092">
  <ele>1580.0</ele>
  <time>2026-08-28T17:56:56Z</time>
  <course>0.0</course>
  <speed>0.0</speed>
  <fix>3d</fix>
</trkpt>
<trkpt lat="40.0713877" lon="-105.2298092">
  <ele>1580.0</ele>
  <time>2026-08-28T17:56:56Z</time>
  <course>239.32</course>
  <speed>0.0</speed>
  <fix>3d</fix>
</trkpt>
<trkpt lat="40.0713877" lon="-105.2298092">
  <ele>1580.0</ele>
  <time>2026-08-28T17:56:56Z</time>
  <course>0.0</course>
  <speed>0.0</speed>
  <fix>3d</fix>
</trkpt>
<trkpt lat="40.0713877" lon="-105.2298092">
  <ele>1580.0</ele>
  <time>2026-08-28T17:56:56Z</time>
  <course>239.67</course>
  <speed>0.0</speed>
  <fix>3d</fix>
</trkpt>
<trkpt lat="40.0713877" lon="-105.2298092">
  <ele>1580.0</ele>
  <time>2026-08-28T17:56:56Z</time>
  <course>0.0</course>
  <speed>0.0</speed>
  <fix>3d</fix>
</trkpt>
<trkpt lat="40.0713877" lon="-105.2298092">
  <ele>1580.0</ele>
  <time>2026-08-28T17:56:56Z</time>
  <course>240.02</course>
  <speed>0.0</speed>
  <fix>3d</fix>
</trkpt>
<trkpt lat="40.0713877" lon="-105.2298092">
  <ele>1580.0</ele>
  <time>2026-08-28T17:56:56Z</time>
  <course>0.0</course>
  <speed>0.0</speed>
  <fix>3d</fix>
</trkpt>
<trkpt lat="40.0713877" lon="-105.2298092">
  <ele>1580.0</ele>
  <time>2026-08-28T17:56:56Z</time>
  <course>240.35</course>
  <speed>0.0</speed>
  <fix>3d</fix>
</trkpt>
<trkpt lat="40.0713877" lon="-105.2298092">
  <ele>1580.0</ele>
  <time>2026-08-28T17:56:56Z</time>
  <course>0.0</course>
  <speed>0.0</speed>
  <fix>3d</fix>
</trkpt>
<trkpt lat="40.0713877" lon="-105.2298092">
  <ele>1580.0</ele>
  <time>2026-08-28T17:56:56Z</time>
  <course>240.61</course>
  <speed>0.0</speed>
  <fix>3d</fix>
</trkpt>
<trkpt lat="40.0713877" lon="-105.2298092">
  <ele>1580.0</ele>
  <time>2026-08-28T17:56:56Z</time>
  <course>0.0</course>
  <speed>0.0</speed>
  <fix>3d</fix>
</trkpt>
<trkpt lat="40.0713877" lon="-105.2298092">
  <ele>1580.0</ele>
  <time>2026-08-28T17:56:56Z</time>
  <course>240.92</course>
  <speed>0.0</speed>
  <fix>3d</fix>
</trkpt>
<trkpt lat="40.0713877" lon="-105.2298092">
  <ele>1580.0</ele>
  <time>2026-08-28T17:56:56Z</time>
  <course>0.0</course>
  <speed>0.0</speed>
  <fix>3d</fix>
</trkpt>
<trkpt lat="40.0713877" lon="-105.2298092">
  <ele>1580.0</ele>
  <time>2026-08-28T17:56:56Z</time>
  <course>241.21</course>
  <speed>0.0</speed>
  <fix>3d</fix>
</trkpt>
<trkpt lat="40.0713877" lon="-105.2298092">
  <ele>1580.0</ele>
  <time>2026-08-28T17:56:56Z</time>
  <course>0.0</course>
  <speed>0.0</speed>
  <fix>3d</fix>
</trkpt>
<trkpt lat="40.0713877" lon="-105.2298092">
  <ele>1580.0</ele>
  <time>2026-08-28T17:56:56Z</time>
  <course>241.49</course>
  <speed>0.0</speed>
  <fix>3d</fix>
</trkpt>
<trkpt lat="40.0713877" lon="-105.2298092">
  <ele>1580.0</ele>
  <time>2026-08-28T17:56:56Z</time>
  <course>0.0</course>
  <speed>0.0</speed>
  <fix>3d</fix>
</trkpt>
<trkpt lat="40.0713877" lon="-105.2298092">
  <ele>1580.0</ele>
  <time>2026-08-28T17:56:56Z</time>
  <course>241.77</course>
  <speed>0.0</speed>
  <fix>3d</fix>
</trkpt>
<trkpt lat="40.0713877" lon="-105.2298092">
  <ele>1580.0</ele>
  <time>2026-08-28T17:56:56Z</time>
  <course>0.0</course>
  <speed>0.0</speed>
  <fix>3d</fix>
</trkpt>
<trkpt lat="40.0713877" lon="-105.2298092">
  <ele>1580.0</ele>
  <time>2026-08-28T17:56:56Z</time>
  <course>242.03</course>
  <speed>0.0</speed>
  <fix>3d</fix>
</trkpt>
<trkpt lat="40.0713877" lon="-105.2298092">
  <ele>1580.0</ele>
  <time>2026-08-28T17:56:56Z</time>
  <course>0.0</course>
  <speed>0.0</speed>
  <fix>3d</fix>
</trkpt>
<trkpt lat="40.0713877" lon="-105.2298092">
  <ele>1580.0</ele>
  <time>2026-08-28T17:56:56Z</time>
  <course>242.29</course>
  <speed>0.0</speed>
  <fix>3d</fix>
</trkpt>
<trkpt lat="40.0713877" lon="-105.2298092">
  <ele>1580.0</ele>
  <time>2026-08-28T17:56:56Z</time>
  <course>0.0</course>
  <speed>0.0</speed>
  <fix>3d</fix>
</trkpt>
<trkpt lat="40.0713877" lon="-105.2298092">
  <ele>1580.0</ele>
  <time>2026-08-28T17:56:56Z</time>
  <course>242.54</course>
  <speed>0.0</speed>
  <fix>3d</fix>
</trkpt>
<trkpt lat="40.0713877" lon="-105.2298092">
  <ele>1580.0</ele>
  <time>2026-08-28T17:56:56Z</time>
  <course>0.0</course>
  <speed>0.0</speed>
  <fix>3d</fix>
</trkpt>
<trkpt lat="40.0713877" lon="-105.2298092">
  <ele>1580.0</ele>
  <time>2026-08-28T17:56:56Z</time>
  <course>242.79</course>
  <speed>0.0</speed>
  <fix>3d</fix>
</trkpt>
<trkpt lat="40.0713877" lon="-105.2298092">
  <ele>1580.0</ele>
  <time>2026-08-28T17:56:56Z</time>
  <course>0.0</course>
  <speed>0.0</speed>
  <fix>3d</fix>
</trkpt>
<trkpt lat="40.0713877" lon="-105.2298092">
  <ele>1580.0</ele>
  <time>2026-08-28T17:56:56Z</time>
  <course>243.02</course>
  <speed>0.0</speed>
  <fix>3d</fix>
</trkpt>
<trkpt lat="40.0713877" lon="-105.2298092">
  <ele>1580.0</ele>
  <time>2026-08-28T17:56:56Z</time>
  <course>0.0</course>
  <speed>0.0</speed>
  <fix>3d</fix>
</trkpt>
<trkpt lat="40.0713877" lon="-105.2298092">
  <ele>1580.0</ele>
  <time>2026-08-28T17:56:56Z</time>
  <course>243.29</course>
  <speed>0.0</speed>
  <fix>3d</fix>
</trkpt>
<trkpt lat="40.0713877" lon="-105.2298092">
  <ele>1580.0</ele>
  <time>2026-08-28T17:56:56Z</time>
  <course>0.0</course>
  <speed>0.0</speed>
  <fix>3d</fix>
</trkpt>
<trkpt lat="40.0713877" lon="-105.2298092">
  <ele>1580.0</ele>
  <time>2026-08-28T17:56:56Z</time>
  <course>243.51</course>
  <speed>0.0</speed>
  <fix>3d</fix>
</trkpt>
<trkpt lat="40.0713877" lon="-105.2298092">
  <ele>1580.0</ele>
  <time>2026-08-28T17:56:56Z</time>
  <course>0.0</course>
  <speed>0.0</speed>
  <fix>3d</fix>
</trkpt>
<trkpt lat="40.0713877" lon="-105.2298092">
  <ele>1580.0</ele>
  <time>2026-08-28T17:56:56Z</time>
  <course>243.72</course>
  <speed>0.0</speed>
  <fix>3d</fix>
</trkpt>
<trkpt lat="40.0713877" lon="-105.2298092">
  <ele>1580.0</ele>
  <time>2026-08-28T17:56:56Z</time>
  <course>0.0</course>
  <speed>0.0</speed>
  <fix>3d</fix>
</trkpt>
<trkpt lat="40.0713877" lon="-105.2298092">
  <ele>1580.0</ele>
  <time>2026-08-28T17:56:56Z</time>
  <course>243.93</course>
  <speed>0.0</speed>
  <fix>3d</fix>
</trkpt>
<trkpt lat="40.0713877" lon="-105.2298092">
  <ele>1580.0</ele>
  <time>2026-08-28T17:56:56Z</time>
  <course>0.0</course>
  <speed>0.0</speed>
  <fix>3d</fix>
</trkpt>
<trkpt lat="40.0713877" lon="-105.2298092">
  <ele>1580.0</ele>
  <time>2026-08-28T17:56:56Z</time>
  <course>244.12</course>
  <speed>0.0</speed>
  <fix>3d</fix>
</trkpt>
<trkpt lat="40.0713877" lon="-105.2298092">
  <ele>1580.0</ele>
  <time>2026-08-28T17:56:56Z</time>
  <course>0.0</course>
  <speed>0.0</speed>
  <fix>3d</fix>
</trkpt>
<trkpt lat="40.0713877" lon="-105.2298092">
  <ele>1580.0</ele>
  <time>2026-08-28T17:56:56Z</time>
  <course>244.31</course>
  <speed>0.0</speed>
  <fix>3d</fix>
</trkpt>
<trkpt lat="40.0713877" lon="-105.2298092">
  <ele>1580.0</ele>
  <time>2026-08-28T17:56:56Z</time>
  <course>0.0</course>
  <speed>0.0</speed>
  <fix>3d</fix>
</trkpt>
<trkpt lat="40.0713877" lon="-105.2298092">
  <ele>1580.0</ele>
  <time>2026-08-28T17:56:56Z</time>
  <course>244.5</course>
  <speed>0.0</speed>
  <fix>3d</fix>
</trkpt>
<trkpt lat="40.0713877" lon="-105.2298092">
  <ele>1580.0</ele>
  <time>2026-08-28T17:56:56Z</time>
  <course>0.0</course>
  <speed>0.0</speed>
  <fix>3d</fix>
</trkpt>
<trkpt lat="40.0713877" lon="-105.2298092">
  <ele>1580.0</ele>
  <time>2026-08-28T17:56:56Z</time>
  <course>244.67</course>
  <speed>0.0</speed>
  <fix>3d</fix>
</trkpt>
<trkpt lat="40.0713877" lon="-105.2298092">
  <ele>1580.0</ele>
  <time>2026-08-28T17:56:56Z</time>
  <course>0.0</course>
  <speed>0.0</speed>
  <fix>3d</fix>
</trkpt>
<trkpt lat="40.0713877" lon="-105.2298092">
  <ele>1580.0</ele>
  <time>2026-08-28T17:56:56Z</time>
  <course>244.84</course>
  <speed>0.0</speed>
  <fix>3d</fix>
</trkpt>
<trkpt lat="40.0713877" lon="-105.2298092">
  <ele>1580.0</ele>
  <time>2026-08-28T17:56:56Z</time>
  <course>0.0</course>
  <speed>0.0</speed>
  <fix>3d</fix>
</trkpt>
<trkpt lat="40.0713877" lon="-105.2298092">
  <ele>1580.0</ele>
  <time>2026-08-28T17:56:56Z</time>
  <course>245.01</course>
  <speed>0.0</speed>
  <fix>3d</fix>
</trkpt>
<trkpt lat="40.0713877" lon="-105.2298092">
  <ele>1580.0</ele>
  <time>2026-08-28T17:56:56Z</time>
  <course>0.0</course>
  <speed>0.0</speed>
  <fix>3d</fix>
</trkpt>
<trkpt lat="40.0713877" lon="-105.2298092">
  <ele>1580.0</ele>
  <time>2026-08-28T17:56:56Z</time>
  <course>245.16</course>
  <speed>0.0</speed>
  <fix>3d</fix>
</trkpt>
<trkpt lat="40.0713877" lon="-105.2298092">
  <ele>1580.0</ele>
  <time>2026-08-28T17:56:56Z</time>
  <course>0.0</course>
  <speed>0.0</speed>
  <fix>3d</fix>
</trkpt>
<trkpt lat="40.0713877" lon="-105.2298092">
  <ele>1580.0</ele>
  <time>2026-08-28T17:56:56Z</time>
  <course>245.29</course>
  <speed>0.0</speed>
  <fix>3d</fix>
</trkpt>
<trkpt lat="40.0713877" lon="-105.2298092">
  <ele>1580.0</ele>
  <time>2026-08-28T17:56:56Z</time>
  <course>0.0</course>
  <speed>0.0</speed>
  <fix>3d</fix>
</trkpt>
<trkpt lat="40.0713877" lon="-105.2298092">
  <ele>1580.0</ele>
  <time>2026-08-28T17:56:56Z</time>
  <course>245.43</course>
  <speed>0.0</speed>
  <fix>3d</fix>
</trkpt>
<trkpt lat="40.0713877" lon="-105.2298092">
  <ele>1580.0</ele>
  <time>2026-08-28T17:56:56Z</time>
  <course>0.0</course>
  <speed>0.0</speed>
  <fix>3d</fix>
</trkpt>
<trkpt lat="40.0713877" lon="-105.2298092">
  <ele>1580.0</ele>
  <time>2026-08-28T17:56:56Z</time>
  <course>245.57</course>
  <speed>0.0</speed>
  <fix>3d</fix>
</trkpt>
<trkpt lat="40.0713877" lon="-105.2298092">
  <ele>1580.0</ele>
  <time>2026-08-28T17:56:56Z</time>
  <course>0.0</course>
  <speed>0.0</speed>
  <fix>3d</fix>
</trkpt>
<trkpt lat="40.0713877" lon="-105.2298092">
  <ele>1580.0</ele>
  <time>2026-08-28T17:56:56Z</time>
  <course>245.71</course>
  <speed>0.0</speed>
  <fix>3d</fix>
</trkpt>
<trkpt lat="40.0713877" lon="-105.2298092">
  <ele>1580.0</ele>
  <time>2026-08-28T17:56:56Z</time>
  <course>0.0</course>
  <speed>0.0</speed>
  <fix>3d</fix>
</trkpt>
<trkpt lat="40.0713877" lon="-105.2298092">
  <ele>1580.0</ele>
  <time>2026-08-28T17:56:56Z</time>
  <course>245.84</course>
  <speed>0.0</speed>
  <fix>3d</fix>
</trkpt>
<trkpt lat="40.0713877" lon="-105.2298092">
  <ele>1580.0</ele>
  <time>2026-08-28T17:56:56Z</time>
  <course>0.0</course>
  <speed>0.0</speed>
  <fix>3d</fix>
</trkpt>
<trkpt lat="40.0713877" lon="-105.2298092">
  <ele>1580.0</ele>
  <time>2026-08-28T17:56:56Z</time>
  <course>245.96</course>
  <speed>0.0</speed>
  <fix>3d</fix>
</trkpt>
<trkpt lat="40.0713877" lon="-105.2298092">
  <ele>1580.0</ele>
  <time>2026-08-28T17:56:56Z</time>
  <course>0.0</course>
  <speed>0.0</speed>
  <fix>3d</fix>
</trkpt>
<trkpt lat="40.0713877" lon="-105.2298092">
  <ele>1580.0</ele>
  <time>2026-08-28T17:56:56Z</time>
  <course>246.08</course>
  <speed>0.0</speed>
  <fix>3d</fix>
</trkpt>
<trkpt lat="40.0713877" lon="-105.2298092">
  <ele>1580.0</ele>
  <time>2026-08-28T17:56:56Z</time>
  <course>0.0</course>
  <speed>0.0</speed>
  <fix>3d</fix>
</trkpt>
<trkpt lat="40.0713877" lon="-105.2298092">
  <ele>1580.0</ele>
  <time>2026-08-28T17:56:56Z</time>
  <course>246.19</course>
  <speed>0.0</speed>
  <fix>3d</fix>
</trkpt>
<trkpt lat="40.0713877" lon="-105.2298092">
  <ele>1580.0</ele>
  <time>2026-08-28T17:56:56Z</time>
  <course>0.0</course>
  <speed>0.0</speed>
  <fix>3d</fix>
</trkpt>
<trkpt lat="40.0713877" lon="-105.2298092">
  <ele>1580.0</ele>
  <time>2026-08-28T17:56:56Z</time>
  <course>246.3</course>
  <speed>0.0</speed>
  <fix>3d</fix>
</trkpt>
<trkpt lat="40.0713877" lon="-105.2298092">
  <ele>1580.0</ele>
  <time>2026-08-28T17:56:56Z</time>
  <course>0.0</course>
  <speed>0.0</speed>
  <fix>3d</fix>
</trkpt>
<trkpt lat="40.0713877" lon="-105.2298092">
  <ele>1580.0</ele>
  <time>2026-08-28T17:56:56Z</time>
  <course>246.41</course>
  <speed>0.0</speed>
  <fix>3d</fix>
</trkpt>
<trkpt lat="40.0713877" lon="-105.2298092">
  <ele>1580.0</ele>
  <time>2026-08-28T17:56:56Z</time>
  <course>0.0</course>
  <speed>0.0</speed>
  <fix>3d</fix>
</trkpt>
<trkpt lat="40.0713877" lon="-105.2298092">
  <ele>1580.0</ele>
  <time>2026-08-28T17:56:56Z</time>
  <course>246.53</course>
  <speed>0.0</speed>
  <fix>3d</fix>
</trkpt>
<trkpt lat="40.0713877" lon="-105.2298092">
  <ele>1580.0</ele>
  <time>2026-08-28T17:56:56Z</time>
  <course>0.0</course>
  <speed>0.0</speed>
  <fix>3d</fix>
</trkpt>
<trkpt lat="40.0713877" lon="-105.2298092">
  <ele>1580.0</ele>
  <time>2026-08-28T17:56:56Z</time>
  <course>246.62</course>
  <speed>0.0</speed>
  <fix>3d</fix>
</trkpt>
<trkpt lat="40.0713877" lon="-105.2298092">
  <ele>1580.0</ele>
  <time>2026-08-28T17:56:56Z</time>
  <course>0.0</course>
  <speed>0.0</speed>
  <fix>3d</fix>
</trkpt>
<trkpt lat="40.0713877" lon="-105.2298092">
  <ele>1580.0</ele>
  <time>2026-08-28T17:56:56Z</time>
  <course>246.71</course>
  <speed>0.0</speed>
  <fix>3d</fix>
</trkpt>
<trkpt lat="40.0713877" lon="-105.2298092">
  <ele>1580.0</ele>
  <time>2026-08-28T17:56:56Z</time>
  <course>0.0</course>
  <speed>0.0</speed>
  <fix>3d</fix>
</trkpt>
<trkpt lat="40.0713877" lon="-105.2298092">
  <ele>1580.0</ele>
  <time>2026-08-28T17:56:56Z</time>
  <course>246.8</course>
  <speed>0.0</speed>
  <fix>3d</fix>
</trkpt>
<trkpt lat="40.0713877" lon="-105.2298092">
  <ele>1580.0</ele>
  <time>2026-08-28T17:56:56Z</time>
  <course>0.0</course>
  <speed>0.0</speed>
  <fix>3d</fix>
</trkpt>
<trkpt lat="40.0713877" lon="-105.2298092">
  <ele>1580.0</ele>
  <time>2026-08-28T17:56:56Z</time>
  <course>246.88</course>
  <speed>0.0</speed>
  <fix>3d</fix>
</trkpt>
<trkpt lat="40.0713877" lon="-105.2298092">
  <ele>1580.0</ele>
  <time>2026-08-28T17:56:56Z</time>
  <course>0.0</course>
  <speed>0.0</speed>
  <fix>3d</fix>
</trkpt>
<trkpt lat="40.0713877" lon="-105.2298092">
  <ele>1580.0</ele>
  <time>2026-08-28T17:56:56Z</time>
  <course>246.96</course>
  <speed>0.0</speed>
  <fix>3d</fix>
</trkpt>
<trkpt lat="40.0713877" lon="-105.2298092">
  <ele>1580.0</ele>
  <time>2026-08-28T17:56:56Z</time>
  <course>0.0</course>
  <speed>0.0</speed>
  <fix>3d</fix>
</trkpt>
<trkpt lat="40.0713877" lon="-105.2298092">
  <ele>1580.0</ele>
  <time>2026-08-28T17:56:56Z</time>
  <course>247.04</course>
  <speed>0.0</speed>
  <fix>3d</fix>
</trkpt>
<trkpt lat="40.0713877" lon="-105.2298092">
  <ele>1580.0</ele>
  <time>2026-08-28T17:56:56Z</time>
  <course>0.0</course>
  <speed>0.0</speed>
  <fix>3d</fix>
</trkpt>
<trkpt lat="40.0713877" lon="-105.2298092">
  <ele>1580.0</ele>
  <time>2026-08-28T17:56:56Z</time>
  <course>247.11</course>
  <speed>0.0</speed>
  <fix>3d</fix>
</trkpt>
<trkpt lat="40.0713877" lon="-105.2298092">
  <ele>1580.0</ele>
  <time>2026-08-28T17:56:56Z</time>
  <course>0.0</course>
  <speed>0.0</speed>
  <fix>3d</fix>
</trkpt>
<trkpt lat="40.0713877" lon="-105.2298092">
  <ele>1580.0</ele>
  <time>2026-08-28T17:56:56Z</time>
  <course>247.18</course>
  <speed>0.0</speed>
  <fix>3d</fix>
</trkpt>
<trkpt lat="40.0713877" lon="-105.2298092">
  <ele>1580.0</ele>
  <time>2026-08-28T17:56:56Z</time>
  <course>0.0</course>
  <speed>0.0</speed>
  <fix>3d</fix>
</trkpt>
<trkpt lat="40.0713877" lon="-105.2298092">
  <ele>1580.0</ele>
  <time>2026-08-28T17:56:56Z</time>
  <course>247.25</course>
  <speed>0.0</speed>
  <fix>3d</fix>
</trkpt>
<trkpt lat="40.0713877" lon="-105.2298092">
  <ele>1580.0</ele>
  <time>2026-08-28T17:56:56Z</time>
  <course>0.0</course>
  <speed>0.0</speed>
  <fix>3d</fix>
</trkpt>
<trkpt lat="40.0713877" lon="-105.2298092">
  <ele>1580.0</ele>
  <time>2026-08-28T17:56:56Z</time>
  <course>247.31</course>
  <speed>0.0</speed>
  <fix>3d</fix>
</trkpt>
<trkpt lat="40.0713877" lon="-105.2298092">
  <ele>1580.0</ele>
  <time>2026-08-28T17:56:56Z</time>
  <course>0.0</course>
  <speed>0.0</speed>
  <fix>3d</fix>
</trkpt>
<trkpt lat="40.0713877" lon="-105.2298092">
  <ele>1580.0</ele>
  <time>2026-08-28T17:56:56Z</time>
  <course>247.36</course>
  <speed>0.0</speed>
  <fix>3d</fix>
</trkpt>
<trkpt lat="40.0713877" lon="-105.2298092">
  <ele>1580.0</ele>
  <time>2026-08-28T17:56:56Z</time>
  <course>0.0</course>
  <speed>0.0</speed>
  <fix>3d</fix>
</trkpt>
<trkpt lat="40.0713877" lon="-105.2298092">
  <ele>1580.0</ele>
  <time>2026-08-28T17:56:56Z</time>
  <course>247.42</course>
  <speed>0.0</speed>
  <fix>3d</fix>
</trkpt>
<trkpt lat="40.0713877" lon="-105.2298092">
  <ele>1580.0</ele>
  <time>2026-08-28T17:56:56Z</time>
  <course>0.0</course>
  <speed>0.0</speed>
  <fix>3d</fix>
</trkpt>
<trkpt lat="40.0713877" lon="-105.2298092">
  <ele>1580.0</ele>
  <time>2026-08-28T17:56:56Z</time>
  <course>247.47</course>
  <speed>0.0</speed>
  <fix>3d</fix>
</trkpt>
<trkpt lat="40.0713877" lon="-105.2298092">
  <ele>1580.0</ele>
  <time>2026-08-28T17:56:56Z</time>
  <course>0.0</course>
  <speed>0.0</speed>
  <fix>3d</fix>
</trkpt>
<trkpt lat="40.0713877" lon="-105.2298092">
  <ele>1580.0</ele>
  <time>2026-08-28T17:56:56Z</time>
  <course>247.53</course>
  <speed>0.0</speed>
  <fix>3d</fix>
</trkpt>
<trkpt lat="40.0713877" lon="-105.2298092">
  <ele>1580.0</ele>
  <time>2026-08-28T17:56:56Z</time>
  <course>0.0</course>
  <speed>0.0</speed>
  <fix>3d</fix>
</trkpt>
<trkpt lat="40.0713877" lon="-105.2298092">
  <ele>1580.0</ele>
  <time>2026-08-28T17:56:56Z</time>
  <course>247.58</course>
  <speed>0.0</speed>
  <fix>3d</fix>
</trkpt>
<trkpt lat="40.0713877" lon="-105.2298092">
  <ele>1580.0</ele>
  <time>2026-08-28T17:56:56Z</time>
  <course>0.0</course>
  <speed>0.0</speed>
  <fix>3d</fix>
</trkpt>
<trkpt lat="40.0713877" lon="-105.2298092">
  <ele>1580.0</ele>
  <time>2026-08-28T17:56:56Z</time>
  <course>247.63</course>
  <speed>0.0</speed>
  <fix>3d</fix>
</trkpt>
<trkpt lat="40.0713877" lon="-105.2298092">
  <ele>1580.0</ele>
  <time>2026-08-28T17:56:56Z</time>
  <course>0.0</course>
  <speed>0.0</speed>
  <fix>3d</fix>
</trkpt>
<trkpt lat="40.0713877" lon="-105.2298092">
  <ele>1580.0</ele>
  <time>2026-08-28T17:56:56Z</time>
  <course>247.67</course>
  <speed>0.0</speed>
  <fix>3d</fix>
</trkpt>
<trkpt lat="40.0713877" lon="-105.2298092">
  <ele>1580.0</ele>
  <time>2026-08-28T17:56:56Z</time>
  <course>0.0</course>
  <speed>0.0</speed>
  <fix>3d</fix>
</trkpt>
<trkpt lat="40.0713877" lon="-105.2298092">
  <ele>1580.0</ele>
  <time>2026-08-28T17:56:56Z</time>
  <course>247.72</course>
  <speed>0.0</speed>
  <fix>3d</fix>
</trkpt>
<trkpt lat="40.0713877" lon="-105.2298092">
  <ele>1580.0</ele>
  <time>2026-08-28T17:56:56Z</time>
  <course>0.0</course>
  <speed>0.0</speed>
  <fix>3d</fix>
</trkpt>
<trkpt lat="40.0713877" lon="-105.2298092">
  <ele>1580.0</ele>
  <time>2026-08-28T17:56:56Z</time>
  <course>247.76</course>
  <speed>0.0</speed>
  <fix>3d</fix>
</trkpt>
<trkpt lat="40.0713877" lon="-105.2298092">
  <ele>1580.0</ele>
  <time>2026-08-28T17:56:56Z</time>
  <course>0.0</course>
  <speed>0.0</speed>
  <fix>3d</fix>
</trkpt>
<trkpt lat="40.0713877" lon="-105.2298092">
  <ele>1580.0</ele>
  <time>2026-08-28T17:56:56Z</time>
  <course>247.81</course>
  <speed>0.0</speed>
  <fix>3d</fix>
</trkpt>
<trkpt lat="40.0713877" lon="-105.2298092">
  <ele>1580.0</ele>
  <time>2026-08-28T17:56:56Z</time>
  <course>0.0</course>
  <speed>0.0</speed>
  <fix>3d</fix>
</trkpt>
<trkpt lat="40.0713877" lon="-105.2298092">
  <ele>1580.0</ele>
  <time>2026-08-28T17:56:56Z</time>
  <course>247.84</course>
  <speed>0.0</speed>
  <fix>3d</fix>
</trkpt>
<trkpt lat="40.0713877" lon="-105.2298092">
  <ele>1580.0</ele>
  <time>2026-08-28T17:56:56Z</time>
  <course>0.0</course>
  <speed>0.0</speed>
  <fix>3d</fix>
</trkpt>
<trkpt lat="40.0713877" lon="-105.2298092">
  <ele>1580.0</ele>
  <time>2026-08-28T17:56:56Z</time>
  <course>247.88</course>
  <speed>0.0</speed>
  <fix>3d</fix>
</trkpt>
<trkpt lat="40.0713877" lon="-105.2298092">
  <ele>1580.0</ele>
  <time>2026-08-28T17:56:56Z</time>
  <course>0.0</course>
  <speed>0.0</speed>
  <fix>3d</fix>
</trkpt>
<trkpt lat="40.0713877" lon="-105.2298092">
  <ele>1580.0</ele>
  <time>2026-08-28T17:56:56Z</time>
  <course>247.91</course>
  <speed>0.0</speed>
  <fix>3d</fix>
</trkpt>
<trkpt lat="40.0713877" lon="-105.2298092">
  <ele>1580.0</ele>
  <time>2026-08-28T17:56:56Z</time>
  <course>0.0</course>
  <speed>0.0</speed>
  <fix>3d</fix>
</trkpt>
<trkpt lat="40.0713877" lon="-105.2298092">
  <ele>1580.0</ele>
  <time>2026-08-28T17:56:56Z</time>
  <course>247.94</course>
  <speed>0.0</speed>
  <fix>3d</fix>
</trkpt>
<trkpt lat="40.0713877" lon="-105.2298092">
  <ele>1580.0</ele>
  <time>2026-08-28T17:56:56Z</time>
  <course>0.0</course>
  <speed>0.0</speed>
  <fix>3d</fix>
</trkpt>
<trkpt lat="40.0713877" lon="-105.2298092">
  <ele>1580.0</ele>
  <time>2026-08-28T17:56:56Z</time>
  <course>247.97</course>
  <speed>0.0</speed>
  <fix>3d</fix>
</trkpt>
<trkpt lat="40.0713877" lon="-105.2298092">
  <ele>1580.0</ele>
  <time>2026-08-28T17:56:56Z</time>
  <course>0.0</course>
  <speed>0.0</speed>
  <fix>3d</fix>
</trkpt>
<trkpt lat="40.0713877" lon="-105.2298092">
  <ele>1580.0</ele>
  <time>2026-08-28T17:56:56Z</time>
  <course>248.0</course>
  <speed>0.0</speed>
  <fix>3d</fix>
</trkpt>
<trkpt lat="40.0713877" lon="-105.2298092">
  <ele>1580.0</ele>
  <time>2026-08-28T17:56:56Z</time>
  <course>0.0</course>
  <speed>0.0</speed>
  <fix>3d</fix>
</trkpt>
<trkpt lat="40.0713877" lon="-105.2298092">
  <ele>1580.0</ele>
  <time>2026-08-28T17:56:56Z</time>
  <course>248.03</course>
  <speed>0.0</speed>
  <fix>3d</fix>
</trkpt>
<trkpt lat="40.0713877" lon="-105.2298092">
  <ele>1580.0</ele>
  <time>2026-08-28T17:56:56Z</time>
  <course>0.0</course>
  <speed>0.0</speed>
  <fix>3d</fix>
</trkpt>
<trkpt lat="40.0713877" lon="-105.2298092">
  <ele>1580.0</ele>
  <time>2026-08-28T17:56:56Z</time>
  <course>248.06</course>
  <speed>0.0</speed>
  <fix>3d</fix>
</trkpt>
<trkpt lat="40.0713877" lon="-105.2298092">
  <ele>1580.0</ele>
  <time>2026-08-28T17:56:56Z</time>
  <course>0.0</course>
  <speed>0.0</speed>
  <fix>3d</fix>
</trkpt>
<trkpt lat="40.0713877" lon="-105.2298092">
  <ele>1580.0</ele>
  <time>2026-08-28T17:56:56Z</time>
  <course>248.08</course>
  <speed>0.0</speed>
  <fix>3d</fix>
</trkpt>
<trkpt lat="40.0713877" lon="-105.2298092">
  <ele>1580.0</ele>
  <time>2026-08-28T17:56:56Z</time>
  <course>0.0</course>
  <speed>0.0</speed>
  <fix>3d</fix>
</trkpt>
<trkpt lat="40.0713877" lon="-105.2298092">
  <ele>1580.0</ele>
  <time>2026-08-28T17:56:56Z</time>
  <course>248.11</course>
  <speed>0.0</speed>
  <fix>3d</fix>
</trkpt>
<trkpt lat="40.0713877" lon="-105.2298092">
  <ele>1580.0</ele>
  <time>2026-08-28T17:56:56Z</time>
  <course>0.0</course>
  <speed>0.0</speed>
  <fix>3d</fix>
</trkpt>
<trkpt lat="40.0713877" lon="-105.2298092">
  <ele>1580.0</ele>
  <time>2026-08-28T17:56:56Z</time>
  <course>248.12</course>
  <speed>0.0</speed>
  <fix>3d</fix>
</trkpt>
<trkpt lat="40.0713877" lon="-105.2298092">
  <ele>1580.0</ele>
  <time>2026-08-28T17:56:56Z</time>
  <course>0.0</course>
  <speed>0.0</speed>
  <fix>3d</fix>
</trkpt>
<trkpt lat="40.0713877" lon="-105.2298092">
  <ele>1580.0</ele>
  <time>2026-08-28T17:56:56Z</time>
  <course>248.14</course>
  <speed>0.0</speed>
  <fix>3d</fix>
</trkpt>
<trkpt lat="40.0713877" lon="-105.2298092">
  <ele>1580.0</ele>
  <time>2026-08-28T17:56:56Z</time>
  <course>0.0</course>
  <speed>0.0</speed>
  <fix>3d</fix>
</trkpt>
<trkpt lat="40.0713877" lon="-105.2298092">
  <ele>1580.0</ele>
  <time>2026-08-28T17:56:56Z</time>
  <course>248.16</course>
  <speed>0.0</speed>
  <fix>3d</fix>
</trkpt>
<trkpt lat="40.0713877" lon="-105.2298092">
  <ele>1580.0</ele>
  <time>2026-08-28T17:56:56Z</time>
  <course>0.0</course>
  <speed>0.0</speed>
  <fix>3d</fix>
</trkpt>
<trkpt lat="40.0713877" lon="-105.2298092">
  <ele>1580.0</ele>
  <time>2026-08-28T17:56:56Z</time>
  <course>248.18</course>
  <speed>0.0</speed>
  <fix>3d</fix>
</trkpt>
<trkpt lat="40.0713877" lon="-105.2298092">
  <ele>1580.0</ele>
  <time>2026-08-28T17:56:56Z</time>
  <course>0.0</course>
  <speed>0.0</speed>
  <fix>3d</fix>
</trkpt>
<trkpt lat="40.0713877" lon="-105.2298092">
  <ele>1580.0</ele>
  <time>2026-08-28T17:56:56Z</time>
  <course>248.2</course>
  <speed>0.0</speed>
  <fix>3d</fix>
</trkpt>
<trkpt lat="40.0713877" lon="-105.2298092">
  <ele>1580.0</ele>
  <time>2026-08-28T17:56:56Z</time>
  <course>0.0</course>
  <speed>0.0</speed>
  <fix>3d</fix>
</trkpt>
<trkpt lat="40.0713877" lon="-105.2298092">
  <ele>1580.0</ele>
  <time>2026-08-28T17:56:56Z</time>
  <course>248.22</course>
  <speed>0.0</speed>
  <fix>3d</fix>
</trkpt>
<trkpt lat="40.0713877" lon="-105.2298092">
  <ele>1580.0</ele>
  <time>2026-08-28T17:56:56Z</time>
  <course>0.0</course>
  <speed>0.0</speed>
  <fix>3d</fix>
</trkpt>
<trkpt lat="40.0713877" lon="-105.2298092">
  <ele>1580.0</ele>
  <time>2026-08-28T17:56:56Z</time>
  <course>248.23</course>
  <speed>0.0</speed>
  <fix>3d</fix>
</trkpt>
<trkpt lat="40.0713877" lon="-105.2298092">
  <ele>1580.0</ele>
  <time>2026-08-28T17:56:56Z</time>
  <course>0.0</course>
  <speed>0.0</speed>
  <fix>3d</fix>
</trkpt>
<trkpt lat="40.0713877" lon="-105.2298092">
  <ele>1580.0</ele>
  <time>2026-08-28T17:56:56Z</time>
  <course>248.25</course>
  <speed>0.0</speed>
  <fix>3d</fix>
</trkpt>
<trkpt lat="40.0713877" lon="-105.2298092">
  <ele>1580.0</ele>
  <time>2026-08-28T17:56:56Z</time>
  <course>0.0</course>
  <speed>0.0</speed>
  <fix>3d</fix>
</trkpt>
<trkpt lat="40.0713877" lon="-105.2298092">
  <ele>1580.0</ele>
  <time>2026-08-28T17:56:56Z</time>
  <course>248.26</course>
  <speed>0.0</speed>
  <fix>3d</fix>
</trkpt>
<trkpt lat="40.0713877" lon="-105.2298092">
  <ele>1580.0</ele>
  <time>2026-08-28T17:56:56Z</time>
  <course>0.0</course>
  <speed>0.0</speed>
  <fix>3d</fix>
</trkpt>
<trkpt lat="40.0713877" lon="-105.2298092">
  <ele>1580.0</ele>
  <time>2026-08-28T17:56:56Z</time>
  <course>248.28</course>
  <speed>0.0</speed>
  <fix>3d</fix>
</trkpt>
<trkpt lat="40.0713877" lon="-105.2298092">
  <ele>1580.0</ele>
  <time>2026-08-28T17:56:56Z</time>
  <course>0.0</course>
  <speed>0.0</speed>
  <fix>3d</fix>
</trkpt>
<trkpt lat="40.0713877" lon="-105.2298092">
  <ele>1580.0</ele>
  <time>2026-08-28T17:56:56Z</time>
  <course>248.29</course>
  <speed>0.0</speed>
  <fix>3d</fix>
</trkpt>
<trkpt lat="40.0713877" lon="-105.2298092">
  <ele>1580.0</ele>
  <time>2026-08-28T17:56:56Z</time>
  <course>0.0</course>
  <speed>0.0</speed>
  <fix>3d</fix>
</trkpt>
<trkpt lat="40.0713877" lon="-105.2298092">
  <ele>1580.0</ele>
  <time>2026-08-28T17:56:56Z</time>
  <course>248.3</course>
  <speed>0.0</speed>
  <fix>3d</fix>
</trkpt>
<trkpt lat="40.0713877" lon="-105.2298092">
  <ele>1580.0</ele>
  <time>2026-08-28T17:56:56Z</time>
  <course>0.0</course>
  <speed>0.0</speed>
  <fix>3d</fix>
</trkpt>
<trkpt lat="40.0713877" lon="-105.2298092">
  <ele>1580.0</ele>
  <time>2026-08-28T17:56:56Z</time>
  <course>248.31</course>
  <speed>0.0</speed>
  <fix>3d</fix>
</trkpt>
<trkpt lat="40.0713877" lon="-105.2298092">
  <ele>1580.0</ele>
  <time>2026-08-28T17:56:56Z</time>
  <course>0.0</course>
  <speed>0.0</speed>
  <fix>3d</fix>
</trkpt>
<trkpt lat="40.0713877" lon="-105.2298092">
  <ele>1580.0</ele>
  <time>2026-08-28T17:56:56Z</time>
  <course>248.32</course>
  <speed>0.0</speed>
  <fix>3d</fix>
</trkpt>
<trkpt lat="40.0713877" lon="-105.2298092">
  <ele>1580.0</ele>
  <time>2026-08-28T17:56:56Z</time>
  <course>0.0</course>
  <speed>0.0</speed>
  <fix>3d</fix>
</trkpt>
<trkpt lat="40.0713877" lon="-105.2298092">
  <ele>1580.0</ele>
  <time>2026-08-28T17:56:56Z</time>
  <course>248.33</course>
  <speed>0.0</speed>
  <fix>3d</fix>
</trkpt>
<trkpt lat="40.0713877" lon="-105.2298092">
  <ele>1580.0</ele>
  <time>2026-08-28T17:56:56Z</time>
  <course>0.0</course>
  <speed>0.0</speed>
  <fix>3d</fix>
</trkpt>
<trkpt lat="40.0713877" lon="-105.2298092">
  <ele>1580.0</ele>
  <time>2026-08-28T17:56:56Z</time>
  <course>248.34</course>
  <speed>0.0</speed>
  <fix>3d</fix>
</trkpt>
<trkpt lat="40.0713877" lon="-105.2298092">
  <ele>1580.0</ele>
  <time>2026-08-28T17:56:56Z</time>
  <course>0.0</course>
  <speed>0.0</speed>
  <fix>3d</fix>
</trkpt>
<trkpt lat="40.0713877" lon="-105.2298092">
  <ele>1580.0</ele>
  <time>2026-08-28T17:56:56Z</time>
  <course>248.35</course>
  <speed>0.0</speed>
  <fix>3d</fix>
</trkpt>
<trkpt lat="40.0713877" lon="-105.2298092">
  <ele>1580.0</ele>
  <time>2026-08-28T17:56:56Z</time>
  <course>0.0</course>
  <speed>0.0</speed>
  <fix>3d</fix>
</trkpt>
<trkpt lat="40.0713877" lon="-105.2298092">
  <ele>1580.0</ele>
  <time>2026-08-28T17:56:56Z</time>
  <course>248.36</course>
  <speed>0.0</speed>
  <fix>3d</fix>
</trkpt>
<trkpt lat="40.0713877" lon="-105.2298092">
  <ele>1580.0</ele>
  <time>2026-08-28T17:56:56Z</time>
  <course>0.0</course>
  <speed>0.0</speed>
  <fix>3d</fix>
</trkpt>
<trkpt lat="40.0713877" lon="-105.2298092">
  <ele>1580.0</ele>
  <time>2026-08-28T17:56:56Z</time>
  <course>248.36</course>
  <speed>0.0</speed>
  <fix>3d</fix>
</trkpt>
<trkpt lat="40.0713877" lon="-105.2298092">
  <ele>1580.0</ele>
  <time>2026-08-28T17:56:56Z</time>
  <course>0.0</course>
  <speed>0.0</speed>
  <fix>3d</fix>
</trkpt>
<trkpt lat="40.0713877" lon="-105.2298092">
  <ele>1580.0</ele>
  <time>2026-08-28T17:56:56Z</time>
  <course>248.37</course>
  <speed>0.0</speed>
  <fix>3d</fix>
</trkpt>
<trkpt lat="40.0713877" lon="-105.2298092">
  <ele>1580.0</ele>
  <time>2026-08-28T17:56:56Z</time>
  <course>0.0</course>
  <speed>0.0</speed>
  <fix>3d</fix>
</trkpt>
<trkpt lat="40.0713877" lon="-105.2298092">
  <ele>1580.0</ele>
  <time>2026-08-28T17:56:56Z</time>
  <course>248.38</course>
  <speed>0.0</speed>
  <fix>3d</fix>
</trkpt>
<trkpt lat="40.0713877" lon="-105.2298092">
  <ele>1580.0</ele>
  <time>2026-08-28T17:56:56Z</time>
  <course>0.0</course>
  <speed>0.0</speed>
  <fix>3d</fix>
</trkpt>
<trkpt lat="40.0713877" lon="-105.2298092">
  <ele>1580.0</ele>
  <time>2026-08-28T17:56:56Z</time>
  <course>248.38</course>
  <speed>0.0</speed>
  <fix>3d</fix>
</trkpt>
<trkpt lat="40.0713877" lon="-105.2298092">
  <ele>1580.0</ele>
  <time>2026-08-28T17:56:56Z</time>
  <course>0.0</course>
  <speed>0.0</speed>
  <fix>3d</fix>
</trkpt>
<trkpt lat="40.0713877" lon="-105.2298092">
  <ele>1580.0</ele>
  <time>2026-08-28T17:56:56Z</time>
  <course>248.38</course>
  <speed>0.0</speed>
  <fix>3d</fix>
</trkpt>
<trkpt lat="40.0713877" lon="-105.2298092">
  <ele>1580.0</ele>
  <time>2026-08-28T17:56:56Z</time>
  <course>0.0</course>
  <speed>0.0</speed>
  <fix>3d</fix>
</trkpt>
<trkpt lat="40.0713877" lon="-105.2298092">
  <ele>1580.0</ele>
  <time>2026-08-28T17:56:56Z</time>
  <course>248.39</course>
  <speed>0.0</speed>
  <fix>3d</fix>
</trkpt>
<trkpt lat="40.0713877" lon="-105.2298092">
  <ele>1580.0</ele>
  <time>2026-08-28T17:56:56Z</time>
  <course>0.0</course>
  <speed>0.0</speed>
  <fix>3d</fix>
</trkpt>
<trkpt lat="40.0713877" lon="-105.2298092">
  <ele>1580.0</ele>
  <time>2026-08-28T17:56:56Z</time>
  <course>248.39</course>
  <speed>0.0</speed>
  <fix>3d</fix>
</trkpt>
<trkpt lat="40.0713877" lon="-105.2298092">
  <ele>1580.0</ele>
  <time>2026-08-28T17:56:56Z</time>
  <course>0.0</course>
  <speed>0.0</speed>
  <fix>3d</fix>
</trkpt>
<trkpt lat="40.0713877" lon="-105.2298092">
  <ele>1580.0</ele>
  <time>2026-08-28T17:56:56Z</time>
  <course>248.4</course>
  <speed>0.0</speed>
  <fix>3d</fix>
</trkpt>
<trkpt lat="40.0713877" lon="-105.2298092">
  <ele>1580.0</ele>
  <time>2026-08-28T17:56:56Z</time>
  <course>0.0</course>
  <speed>0.0</speed>
  <fix>3d</fix>
</trkpt>
<trkpt lat="40.0713877" lon="-105.2298092">
  <ele>1580.0</ele>
  <time>2026-08-28T17:56:56Z</time>
  <course>248.4</course>
  <speed>0.0</speed>
  <fix>3d</fix>
</trkpt>
<trkpt lat="40.0713877" lon="-105.2298092">
  <ele>1580.0</ele>
  <time>2026-08-28T17:56:56Z</time>
  <course>0.0</course>
  <speed>0.0</speed>
  <fix>3d</fix>
</trkpt>
<trkpt lat="40.0713877" lon="-105.2298092">
  <ele>1580.0</ele>
  <time>2026-08-28T17:56:56Z</time>
  <course>248.4</course>
  <speed>0.0</speed>
  <fix>3d</fix>
</trkpt>
<trkpt lat="40.0713877" lon="-105.2298092">
  <ele>1580.0</ele>
  <time>2026-08-28T17:56:56Z</time>
  <course>0.0</course>
  <speed>0.0</speed>
  <fix>3d</fix>
</trkpt>
<trkpt lat="40.0713877" lon="-105.2298092">
  <ele>1580.0</ele>
  <time>2026-08-28T17:56:56Z</time>
  <course>248.4</course>
  <speed>0.0</speed>
  <fix>3d</fix>
</trkpt>
<trkpt lat="40.0713877" lon="-105.2298092">
  <ele>1580.0</ele>
  <time>2026-08-28T17:56:56Z</time>
  <course>0.0</course>
  <speed>0.0</speed>
  <fix>3d</fix>
</trkpt>
<trkpt lat="40.0713877" lon="-105.2298092">
  <ele>1580.0</ele>
  <time>2026-08-28T17:56:56Z</time>
  <course>248.41</course>
  <speed>0.0</speed>
  <fix>3d</fix>
</trkpt>
<trkpt lat="40.0713877" lon="-105.2298092">
  <ele>1580.0</ele>
  <time>2026-08-28T17:56:56Z</time>
  <course>0.0</course>
  <speed>0.0</speed>
  <fix>3d</fix>
</trkpt>
<trkpt lat="40.0713877" lon="-105.2298092">
  <ele>1580.0</ele>
  <time>2026-08-28T17:56:56Z</time>
  <course>248.41</course>
  <speed>0.0</speed>
  <fix>3d</fix>
</trkpt>
<trkpt lat="40.0713877" lon="-105.2298092">
  <ele>1580.0</ele>
  <time>2026-08-28T17:56:56Z</time>
  <course>0.0</course>
  <speed>0.0</speed>
  <fix>3d</fix>
</trkpt>
<trkpt lat="40.0713877" lon="-105.2298092">
  <ele>1580.0</ele>
  <time>2026-08-28T17:56:56Z</time>
  <course>248.41</course>
  <speed>0.0</speed>
  <fix>3d</fix>
</trkpt>
<trkpt lat="40.0713877" lon="-105.2298092">
  <ele>1580.0</ele>
  <time>2026-08-28T17:56:56Z</time>
  <course>0.0</course>
  <speed>0.0</speed>
  <fix>3d</fix>
</trkpt>
<trkpt lat="40.0713877" lon="-105.2298092">
  <ele>1580.0</ele>
  <time>2026-08-28T17:56:56Z</time>
  <course>248.41</course>
  <speed>0.0</speed>
  <fix>3d</fix>
</trkpt>
<trkpt lat="40.0713877" lon="-105.2298092">
  <ele>1580.0</ele>
  <time>2026-08-28T17:56:56Z</time>
  <course>0.0</course>
  <speed>0.0</speed>
  <fix>3d</fix>
</trkpt>
<trkpt lat="40.0713877" lon="-105.2298092">
  <ele>1580.0</ele>
  <time>2026-08-28T17:56:56Z</time>
  <course>248.41</course>
  <speed>0.0</speed>
  <fix>3d</fix>
</trkpt>
<trkpt lat="40.0713877" lon="-105.2298092">
  <ele>1580.0</ele>
  <time>2026-08-28T17:56:56Z</time>
  <course>0.0</course>
  <speed>0.0</speed>
  <fix>3d</fix>
</trkpt>
<trkpt lat="40.0713877" lon="-105.2298092">
  <ele>1580.0</ele>
  <time>2026-08-28T17:56:56Z</time>
  <course>248.41</course>
  <speed>0.0</speed>
  <fix>3d</fix>
</trkpt>
<trkpt lat="40.0713877" lon="-105.2298092">
  <ele>1580.0</ele>
  <time>2026-08-28T17:56:56Z</time>
  <course>0.0</course>
  <speed>0.0</speed>
  <fix>3d</fix>
</trkpt>
<trkpt lat="40.0713877" lon="-105.2298092">
  <ele>1580.0</ele>
  <time>2026-08-28T17:56:56Z</time>
  <course>248.41</course>
  <speed>0.0</speed>
  <fix>3d</fix>
</trkpt>
<trkpt lat="40.0713877" lon="-105.2298092">
  <ele>1580.0</ele>
  <time>2026-08-28T17:56:56Z</time>
  <course>0.0</course>
  <speed>0.0</speed>
  <fix>3d</fix>
</trkpt>
<trkpt lat="40.0713877" lon="-105.2298092">
  <ele>1580.0</ele>
  <time>2026-08-28T17:56:56Z</time>
  <course>248.41</course>
  <speed>0.0</speed>
  <fix>3d</fix>
</trkpt>
<trkpt lat="40.0713877" lon="-105.2298092">
  <ele>1580.0</ele>
  <time>2026-08-28T17:56:56Z</time>
  <course>0.0</course>
  <speed>0.0</speed>
  <fix>3d</fix>
</trkpt>
<trkpt lat="40.0713877" lon="-105.2298092">
  <ele>1580.0</ele>
  <time>2026-08-28T17:56:56Z</time>
  <course>248.41</course>
  <speed>0.0</speed>
  <fix>3d</fix>
</trkpt>
<trkpt lat="40.0713877" lon="-105.2298092">
  <ele>1580.0</ele>
  <time>2026-08-28T17:56:56Z</time>
  <course>0.0</course>
  <speed>0.0</speed>
  <fix>3d</fix>
</trkpt>
<trkpt lat="40.0713877" lon="-105.2298092">
  <ele>1580.0</ele>
  <time>2026-08-28T17:56:56Z</time>
  <course>248.41</course>
  <speed>0.0</speed>
  <fix>3d</fix>
</trkpt>
<trkpt lat="40.0713877" lon="-105.2298092">
  <ele>1580.0</ele>
  <time>2026-08-28T17:56:56Z</time>
  <course>0.0</course>
  <speed>0.0</speed>
  <fix>3d</fix>
</trkpt>
<trkpt lat="40.0713877" lon="-105.2298092">
  <ele>1580.0</ele>
  <time>2026-08-28T17:56:56Z</time>
  <course>248.41</course>
  <speed>0.0</speed>
  <fix>3d</fix>
</trkpt>
<trkpt lat="40.0713877" lon="-105.2298092">
  <ele>1580.0</ele>
  <time>2026-08-28T17:56:56Z</time>
  <course>0.0</course>
  <speed>0.0</speed>
  <fix>3d</fix>
</trkpt>
<trkpt lat="40.0713877" lon="-105.2298092">
  <ele>1580.0</ele>
  <time>2026-08-28T17:56:56Z</time>
  <course>248.41</course>
  <speed>0.0</speed>
  <fix>3d</fix>
</trkpt>
<trkpt lat="40.0713877" lon="-105.2298092">
  <ele>1580.0</ele>
  <time>2026-08-28T17:56:56Z</time>
  <course>0.0</course>
  <speed>0.0</speed>
  <fix>3d</fix>
</trkpt>
<trkpt lat="40.0713877" lon="-105.2298092">
  <ele>1580.0</ele>
  <time>2026-08-28T17:56:56Z</time>
  <course>248.41</course>
  <speed>0.0</speed>
  <fix>3d</fix>
</trkpt>
<trkpt lat="40.0713877" lon="-105.2298092">
  <ele>1580.0</ele>
  <time>2026-08-28T17:56:56Z</time>
  <course>0.0</course>
  <speed>0.0</speed>
  <fix>3d</fix>
</trkpt>
<trkpt lat="40.0713877" lon="-105.2298092">
  <ele>1580.0</ele>
  <time>2026-08-28T17:56:56Z</time>
  <course>248.41</course>
  <speed>0.0</speed>
  <fix>3d</fix>
</trkpt>
<trkpt lat="40.0713877" lon="-105.2298092">
  <ele>1580.0</ele>
  <time>2026-08-28T17:56:56Z</time>
  <course>0.0</course>
  <speed>0.0</speed>
  <fix>3d</fix>
</trkpt>
<trkpt lat="40.0713877" lon="-105.2298092">
  <ele>1580.0</ele>
  <time>2026-08-28T17:56:56Z</time>
  <course>248.41</course>
  <speed>0.0</speed>
  <fix>3d</fix>
</trkpt>
<trkpt lat="40.0713877" lon="-105.2298092">
  <ele>1580.0</ele>
  <time>2026-08-28T17:56:56Z</time>
  <course>0.0</course>
  <speed>0.0</speed>
  <fix>3d</fix>
</trkpt>
<trkpt lat="40.0713877" lon="-105.2298092">
  <ele>1580.0</ele>
  <time>2026-08-28T17:56:56Z</time>
  <course>248.41</course>
  <speed>0.0</speed>
  <fix>3d</fix>
</trkpt>
<trkpt lat="40.0713877" lon="-105.2298092">
  <ele>1580.0</ele>
  <time>2026-08-28T17:56:56Z</time>
  <course>0.0</course>
  <speed>0.0</speed>
  <fix>3d</fix>
</trkpt>
<trkpt lat="40.0713877" lon="-105.2298092">
  <ele>1580.0</ele>
  <time>2026-08-28T17:56:56Z</time>
  <course>248.4</course>
  <speed>0.0</speed>
  <fix>3d</fix>
</trkpt>
<trkpt lat="40.0713877" lon="-105.2298092">
  <ele>1580.0</ele>
  <time>2026-08-28T17:56:56Z</time>
  <course>0.0</course>
  <speed>0.0</speed>
  <fix>3d</fix>
</trkpt>
<trkpt lat="40.0713877" lon="-105.2298092">
  <ele>1580.0</ele>
  <time>2026-08-28T17:56:56Z</time>
  <course>248.4</course>
  <speed>0.01</speed>
  <fix>3d</fix>
</trkpt>
<trkpt lat="40.0713877" lon="-105.2298092">
  <ele>1580.0</ele>
  <time>2026-08-28T17:56:56Z</time>
  <course>0.0</course>
  <speed>0.0</speed>
  <fix>3d</fix>
</trkpt>
<trkpt lat="40.0713877" lon="-105.2298092">
  <ele>1580.0</ele>
  <time>2026-08-28T17:56:56Z</time>
  <course>248.4</course>
  <speed>0.01</speed>
  <fix>3d</fix>
</trkpt>
<trkpt lat="40.0713877" lon="-105.2298092">
  <ele>1580.0</ele>
  <time>2026-08-28T17:56:56Z</time>
  <course>0.0</course>
  <speed>0.0</speed>
  <fix>3d</fix>
</trkpt>
<trkpt lat="40.0713877" lon="-105.2298092">
  <ele>1580.0</ele>
  <time>2026-08-28T17:56:56Z</time>
  <course>248.4</course>
  <speed>0.01</speed>
  <fix>3d</fix>
</trkpt>
<trkpt lat="40.0713877" lon="-105.2298092">
  <ele>1580.0</ele>
  <time>2026-08-28T17:56:56Z</time>
  <course>0.0</course>
  <speed>0.0</speed>
  <fix>3d</fix>
</trkpt>
<trkpt lat="40.0713877" lon="-105.2298092">
  <ele>1580.0</ele>
  <time>2026-08-28T17:56:56Z</time>
  <course>248.4</course>
  <speed>0.01</speed>
  <fix>3d</fix>
</trkpt>
<trkpt lat="40.0713877" lon="-105.2298092">
  <ele>1580.0</ele>
  <time>2026-08-28T17:56:56Z</time>
  <course>0.0</course>
  <speed>0.0</speed>
  <fix>3d</fix>
</trkpt>
<trkpt lat="40.0713877" lon="-105.2298092">
  <ele>1580.0</ele>
  <time>2026-08-28T17:56:56Z</time>
  <course>248.39</course>
  <speed>0.01</speed>
  <fix>3d</fix>
</trkpt>
<trkpt lat="40.0713877" lon="-105.2298092">
  <ele>1580.0</ele>
  <time>2026-08-28T17:56:56Z</time>
  <course>0.0</course>
  <speed>0.0</speed>
  <fix>3d</fix>
</trkpt>
<trkpt lat="40.0713877" lon="-105.2298092">
  <ele>1580.0</ele>
  <time>2026-08-28T17:56:56Z</time>
  <course>248.39</course>
  <speed>0.01</speed>
  <fix>3d</fix>
</trkpt>
<trkpt lat="40.0713877" lon="-105.2298092">
  <ele>1580.0</ele>
  <time>2026-08-28T17:56:56Z</time>
  <course>0.0</course>
  <speed>0.0</speed>
  <fix>3d</fix>
</trkpt>
<trkpt lat="40.0713877" lon="-105.2298092">
  <ele>1580.0</ele>
  <time>2026-08-28T17:56:56Z</time>
  <course>248.39</course>
  <speed>0.01</speed>
  <fix>3d</fix>
</trkpt>
<trkpt lat="40.0713877" lon="-105.2298092">
  <ele>1580.0</ele>
  <time>2026-08-28T17:56:56Z</time>
  <course>0.0</course>
  <speed>0.0</speed>
  <fix>3d</fix>
</trkpt>
<trkpt lat="40.0713877" lon="-105.2298092">
  <ele>1580.0</ele>
  <time>2026-08-28T17:56:56Z</time>
  <course>248.38</course>
  <speed>0.01</speed>
  <fix>3d</fix>
</trkpt>
<trkpt lat="40.0713877" lon="-105.2298092">
  <ele>1580.0</ele>
  <time>2026-08-28T17:56:56Z</time>
  <course>0.0</course>
  <speed>0.0</speed>
  <fix>3d</fix>
</trkpt>
<trkpt lat="40.0713877" lon="-105.2298092">
  <ele>1580.0</ele>
  <time>2026-08-28T17:56:56Z</time>
  <course>248.38</course>
  <speed>0.01</speed>
  <fix>3d</fix>
</trkpt>
<trkpt lat="40.0713877" lon="-105.2298092">
  <ele>1580.0</ele>
  <time>2026-08-28T17:56:56Z</time>
  <course>0.0</course>
  <speed>0.0</speed>
  <fix>3d</fix>
</trkpt>
<trkpt lat="40.0713877" lon="-105.2298092">
  <ele>1580.0</ele>
  <time>2026-08-28T17:56:56Z</time>
  <course>248.38</course>
  <speed>0.01</speed>
  <fix>3d</fix>
</trkpt>
<trkpt lat="40.0713877" lon="-105.2298092">
  <ele>1580.0</ele>
  <time>2026-08-28T17:56:56Z</time>
  <course>0.0</course>
  <speed>0.0</speed>
  <fix>3d</fix>
</trkpt>
<trkpt lat="40.0713877" lon="-105.2298092">
  <ele>1580.0</ele>
  <time>2026-08-28T17:56:56Z</time>
  <course>248.38</course>
  <speed>0.01</speed>
  <fix>3d</fix>
</trkpt>
<trkpt lat="40.0713877" lon="-105.2298092">
  <ele>1580.0</ele>
  <time>2026-08-28T17:56:56Z</time>
  <course>0.0</course>
  <speed>0.0</speed>
  <fix>3d</fix>
</trkpt>
<trkpt lat="40.0713877" lon="-105.2298092">
  <ele>1580.0</ele>
  <time>2026-08-28T17:56:56Z</time>
  <course>248.37</course>
  <speed>0.01</speed>
  <fix>3d</fix>
</trkpt>
<trkpt lat="40.0713877" lon="-105.2298092">
  <ele>1580.0</ele>
  <time>2026-08-28T17:56:56Z</time>
  <course>0.0</course>
  <speed>0.0</speed>
  <fix>3d</fix>
</trkpt>
<trkpt lat="40.0713877" lon="-105.2298092">
  <ele>1580.0</ele>
  <time>2026-08-28T17:56:56Z</time>
  <course>248.37</course>
  <speed>0.01</speed>
  <fix>3d</fix>
</trkpt>
<trkpt lat="40.0713877" lon="-105.2298092">
  <ele>1580.0</ele>
  <time>2026-08-28T17:56:56Z</time>
  <course>0.0</course>
  <speed>0.0</speed>
  <fix>3d</fix>
</trkpt>
<trkpt lat="40.0713877" lon="-105.2298092">
  <ele>1580.0</ele>
  <time>2026-08-28T17:56:56Z</time>
  <course>248.37</course>
  <speed>0.01</speed>
  <fix>3d</fix>
</trkpt>
<trkpt lat="40.0713877" lon="-105.2298092">
  <ele>1580.0</ele>
  <time>2026-08-28T17:56:56Z</time>
  <course>0.0</course>
  <speed>0.0</speed>
  <fix>3d</fix>
</trkpt>
<trkpt lat="40.0713877" lon="-105.2298092">
  <ele>1580.0</ele>
  <time>2026-08-28T17:56:56Z</time>
  <course>248.36</course>
  <speed>0.01</speed>
  <fix>3d</fix>
</trkpt>
<trkpt lat="40.0713877" lon="-105.2298092">
  <ele>1580.0</ele>
  <time>2026-08-28T17:56:56Z</time>
  <course>0.0</course>
  <speed>0.0</speed>
  <fix>3d</fix>
</trkpt>
<trkpt lat="40.0713877" lon="-105.2298092">
  <ele>1580.0</ele>
  <time>2026-08-28T17:56:56Z</time>
  <course>248.36</course>
  <speed>0.01</speed>
  <fix>3d</fix>
</trkpt>
<trkpt lat="40.0713877" lon="-105.2298092">
  <ele>1580.0</ele>
  <time>2026-08-28T17:56:56Z</time>
  <course>0.0</course>
  <speed>0.0</speed>
  <fix>3d</fix>
</trkpt>
<trkpt lat="40.0713877" lon="-105.2298092">
  <ele>1580.0</ele>
  <time>2026-08-28T17:56:56Z</time>
  <course>248.35</course>
  <speed>0.01</speed>
  <fix>3d</fix>
</trkpt>
<trkpt lat="40.0713877" lon="-105.2298092">
  <ele>1580.0</ele>
  <time>2026-08-28T17:56:56Z</time>
  <course>0.0</course>
  <speed>0.0</speed>
  <fix>3d</fix>
</trkpt>
<trkpt lat="40.0713877" lon="-105.2298092">
  <ele>1580.0</ele>
  <time>2026-08-28T17:56:56Z</time>
  <course>248.35</course>
  <speed>0.01</speed>
  <fix>3d</fix>
</trkpt>
<trkpt lat="40.0713877" lon="-105.2298092">
  <ele>1580.0</ele>
  <time>2026-08-28T17:56:56Z</time>
  <course>0.0</course>
  <speed>0.0</speed>
  <fix>3d</fix>
</trkpt>
<trkpt lat="40.0713877" lon="-105.2298092">
  <ele>1580.0</ele>
  <time>2026-08-28T17:56:56Z</time>
  <course>248.35</course>
  <speed>0.01</speed>
  <fix>3d</fix>
</trkpt>
<trkpt lat="40.0713877" lon="-105.2298092">
  <ele>1580.0</ele>
  <time>2026-08-28T17:56:56Z</time>
  <course>0.0</course>
  <speed>0.0</speed>
  <fix>3d</fix>
</trkpt>
<trkpt lat="40.0713877" lon="-105.2298092">
  <ele>1580.0</ele>
  <time>2026-08-28T17:56:56Z</time>
  <course>248.34</course>
  <speed>0.01</speed>
  <fix>3d</fix>
</trkpt>
<trkpt lat="40.0713877" lon="-105.2298092">
  <ele>1580.0</ele>
  <time>2026-08-28T17:56:56Z</time>
  <course>0.0</course>
  <speed>0.0</speed>
  <fix>3d</fix>
</trkpt>
<trkpt lat="40.0713877" lon="-105.2298092">
  <ele>1580.0</ele>
  <time>2026-08-28T17:56:56Z</time>
  <course>248.34</course>
  <speed>0.01</speed>
  <fix>3d</fix>
</trkpt>
<trkpt lat="40.0713877" lon="-105.2298092">
  <ele>1580.0</ele>
  <time>2026-08-28T17:56:56Z</time>
  <course>0.0</course>
  <speed>0.0</speed>
  <fix>3d</fix>
</trkpt>
<trkpt lat="40.0713877" lon="-105.2298092">
  <ele>1580.0</ele>
  <time>2026-08-28T17:56:56Z</time>
  <course>248.33</course>
  <speed>0.01</speed>
  <fix>3d</fix>
</trkpt>
<trkpt lat="40.0713877" lon="-105.2298092">
  <ele>1580.0</ele>
  <time>2026-08-28T17:56:56Z</time>
  <course>0.0</course>
  <speed>0.0</speed>
  <fix>3d</fix>
</trkpt>
<trkpt lat="40.0713877" lon="-105.2298092">
  <ele>1580.0</ele>
  <time>2026-08-28T17:56:56Z</time>
  <course>248.33</course>
  <speed>0.01</speed>
  <fix>3d</fix>
</trkpt>
<trkpt lat="40.0713877" lon="-105.2298092">
  <ele>1580.0</ele>
  <time>2026-08-28T17:56:56Z</time>
  <course>0.0</course>
  <speed>0.0</speed>
  <fix>3d</fix>
</trkpt>
<trkpt lat="40.0713877" lon="-105.2298092">
  <ele>1580.0</ele>
  <time>2026-08-28T17:56:56Z</time>
  <course>248.32</course>
  <speed>0.01</speed>
  <fix>3d</fix>
</trkpt>
<trkpt lat="40.0713877" lon="-105.2298092">
  <ele>1580.0</ele>
  <time>2026-08-28T17:56:56Z</time>
  <course>0.0</course>
  <speed>0.0</speed>
  <fix>3d</fix>
</trkpt>
<trkpt lat="40.0713877" lon="-105.2298092">
  <ele>1580.0</ele>
  <time>2026-08-28T17:56:56Z</time>
  <course>248.32</course>
  <speed>0.01</speed>
  <fix>3d</fix>
</trkpt>
<trkpt lat="40.0713877" lon="-105.2298092">
  <ele>1580.0</ele>
  <time>2026-08-28T17:56:56Z</time>
  <course>0.0</course>
  <speed>0.0</speed>
  <fix>3d</fix>
</trkpt>
<trkpt lat="40.0713877" lon="-105.2298092">
  <ele>1580.0</ele>
  <time>2026-08-28T17:56:56Z</time>
  <course>248.32</course>
  <speed>0.01</speed>
  <fix>3d</fix>
</trkpt>
<trkpt lat="40.0713877" lon="-105.2298092">
  <ele>1580.0</ele>
  <time>2026-08-28T17:56:56Z</time>
  <course>0.0</course>
  <speed>0.0</speed>
  <fix>3d</fix>
</trkpt>
<trkpt lat="40.0713877" lon="-105.2298092">
  <ele>1580.0</ele>
  <time>2026-08-28T17:56:56Z</time>
  <course>248.31</course>
  <speed>0.01</speed>
  <fix>3d</fix>
</trkpt>
<trkpt lat="40.0713877" lon="-105.2298092">
  <ele>1580.0</ele>
  <time>2026-08-28T17:56:56Z</time>
  <course>0.0</course>
  <speed>0.0</speed>
  <fix>3d</fix>
</trkpt>
<trkpt lat="40.0713877" lon="-105.2298092">
  <ele>1580.0</ele>
  <time>2026-08-28T17:56:56Z</time>
  <course>248.31</course>
  <speed>0.01</speed>
  <fix>3d</fix>
</trkpt>
<trkpt lat="40.0713877" lon="-105.2298092">
  <ele>1580.0</ele>
  <time>2026-08-28T17:56:56Z</time>
  <course>0.0</course>
  <speed>0.0</speed>
  <fix>3d</fix>
</trkpt>
<trkpt lat="40.0713877" lon="-105.2298092">
  <ele>1580.0</ele>
  <time>2026-08-28T17:56:56Z</time>
  <course>248.3</course>
  <speed>0.01</speed>
  <fix>3d</fix>
</trkpt>
<trkpt lat="40.0713877" lon="-105.2298092">
  <ele>1580.0</ele>
  <time>2026-08-28T17:56:56Z</time>
  <course>0.0</course>
  <speed>0.0</speed>
  <fix>3d</fix>
</trkpt>
<trkpt lat="40.0713877" lon="-105.2298092">
  <ele>1580.0</ele>
  <time>2026-08-28T17:56:56Z</time>
  <course>248.3</course>
  <speed>0.01</speed>
  <fix>3d</fix>
</trkpt>
<trkpt lat="40.0713877" lon="-105.2298092">
  <ele>1580.0</ele>
  <time>2026-08-28T17:56:56Z</time>
  <course>0.0</course>
  <speed>0.0</speed>
  <fix>3d</fix>
</trkpt>
<trkpt lat="40.0713877" lon="-105.2298092">
  <ele>1580.0</ele>
  <time>2026-08-28T17:56:56Z</time>
  <course>248.29</course>
  <speed>0.01</speed>
  <fix>3d</fix>
</trkpt>
<trkpt lat="40.0713877" lon="-105.2298092">
  <ele>1580.0</ele>
  <time>2026-08-28T17:56:56Z</time>
  <course>0.0</course>
  <speed>0.0</speed>
  <fix>3d</fix>
</trkpt>
<trkpt lat="40.0713877" lon="-105.2298092">
  <ele>1580.0</ele>
  <time>2026-08-28T17:56:56Z</time>
  <course>248.29</course>
  <speed>0.01</speed>
  <fix>3d</fix>
</trkpt>
<trkpt lat="40.0713877" lon="-105.2298092">
  <ele>1580.0</ele>
  <time>2026-08-28T17:56:56Z</time>
  <course>0.0</course>
  <speed>0.0</speed>
  <fix>3d</fix>
</trkpt>
<trkpt lat="40.0713877" lon="-105.2298092">
  <ele>1580.0</ele>
  <time>2026-08-28T17:56:56Z</time>
  <course>248.28</course>
  <speed>0.01</speed>
  <fix>3d</fix>
</trkpt>
<trkpt lat="40.0713877" lon="-105.2298092">
  <ele>1580.0</ele>
  <time>2026-08-28T17:56:56Z</time>
  <course>0.0</course>
  <speed>0.0</speed>
  <fix>3d</fix>
</trkpt>
<trkpt lat="40.0713877" lon="-105.2298092">
  <ele>1580.0</ele>
  <time>2026-08-28T17:56:56Z</time>
  <course>248.28</course>
  <speed>0.01</speed>
  <fix>3d</fix>
</trkpt>
<trkpt lat="40.0713877" lon="-105.2298092">
  <ele>1580.0</ele>
  <time>2026-08-28T17:56:56Z</time>
  <course>0.0</course>
  <speed>0.0</speed>
  <fix>3d</fix>
</trkpt>
<trkpt lat="40.0713877" lon="-105.2298092">
  <ele>1580.0</ele>
  <time>2026-08-28T17:56:56Z</time>
  <course>248.27</course>
  <speed>0.01</speed>
  <fix>3d</fix>
</trkpt>
<trkpt lat="40.0713877" lon="-105.2298092">
  <ele>1580.0</ele>
  <time>2026-08-28T17:56:56Z</time>
  <course>0.0</course>
  <speed>0.0</speed>
  <fix>3d</fix>
</trkpt>
<trkpt lat="40.0713877" lon="-105.2298092">
  <ele>1580.0</ele>
  <time>2026-08-28T17:56:56Z</time>
  <course>248.27</course>
  <speed>0.01</speed>
  <fix>3d</fix>
</trkpt>
<trkpt lat="40.0713877" lon="-105.2298092">
  <ele>1580.0</ele>
  <time>2026-08-28T17:56:56Z</time>
  <course>0.0</course>
  <speed>0.0</speed>
  <fix>3d</fix>
</trkpt>
<trkpt lat="40.0713877" lon="-105.2298092">
  <ele>1580.0</ele>
  <time>2026-08-28T17:56:56Z</time>
  <course>248.27</course>
  <speed>0.01</speed>
  <fix>3d</fix>
</trkpt>
<trkpt lat="40.0713877" lon="-105.2298092">
  <ele>1580.0</ele>
  <time>2026-08-28T17:56:56Z</time>
  <course>0.0</course>
  <speed>0.0</speed>
  <fix>3d</fix>
</trkpt>
<trkpt lat="40.0713877" lon="-105.2298092">
  <ele>1580.0</ele>
  <time>2026-08-28T17:56:56Z</time>
  <course>248.26</course>
  <speed>0.01</speed>
  <fix>3d</fix>
</trkpt>
<trkpt lat="40.0713877" lon="-105.2298092">
  <ele>1580.0</ele>
  <time>2026-08-28T17:56:56Z</time>
  <course>0.0</course>
  <speed>0.0</speed>
  <fix>3d</fix>
</trkpt>
<trkpt lat="40.0713877" lon="-105.2298092">
  <ele>1580.0</ele>
  <time>2026-08-28T17:56:56Z</time>
  <course>248.26</course>
  <speed>0.01</speed>
  <fix>3d</fix>
</trkpt>
<trkpt lat="40.0713877" lon="-105.2298092">
  <ele>1580.0</ele>
  <time>2026-08-28T17:56:56Z</time>
  <course>0.0</course>
  <speed>0.0</speed>
  <fix>3d</fix>
</trkpt>
<trkpt lat="40.0713877" lon="-105.2298092">
  <ele>1580.0</ele>
  <time>2026-08-28T17:56:56Z</time>
  <course>248.25</course>
  <speed>0.01</speed>
  <fix>3d</fix>
</trkpt>
<trkpt lat="40.0713877" lon="-105.2298092">
  <ele>1580.0</ele>
  <time>2026-08-28T17:56:56Z</time>
  <course>0.0</course>
  <speed>0.0</speed>
  <fix>3d</fix>
</trkpt>
<trkpt lat="40.0713877" lon="-105.2298092">
  <ele>1580.0</ele>
  <time>2026-08-28T17:56:56Z</time>
  <course>248.25</course>
  <speed>0.01</speed>
  <fix>3d</fix>
</trkpt>
<trkpt lat="40.0713877" lon="-105.2298092">
  <ele>1580.0</ele>
  <time>2026-08-28T17:56:56Z</time>
  <course>0.0</course>
  <speed>0.0</speed>
  <fix>3d</fix>
</trkpt>
<trkpt lat="40.0713877" lon="-105.2298092">
  <ele>1580.0</ele>
  <time>2026-08-28T17:56:56Z</time>
  <course>248.24</course>
  <speed>0.01</speed>
  <fix>3d</fix>
</trkpt>
<trkpt lat="40.0713877" lon="-105.2298092">
  <ele>1580.0</ele>
  <time>2026-08-28T17:56:56Z</time>
  <course>0.0</course>
  <speed>0.0</speed>
  <fix>3d</fix>
</trkpt>
<trkpt lat="40.0713877" lon="-105.2298092">
  <ele>1580.0</ele>
  <time>2026-08-28T17:56:56Z</time>
  <course>248.24</course>
  <speed>0.01</speed>
  <fix>3d</fix>
</trkpt>
<trkpt lat="40.0713877" lon="-105.2298092">
  <ele>1580.0</ele>
  <time>2026-08-28T17:56:56Z</time>
  <course>0.0</course>
  <speed>0.0</speed>
  <fix>3d</fix>
</trkpt>
<trkpt lat="40.0713877" lon="-105.2298092">
  <ele>1580.0</ele>
  <time>2026-08-28T17:56:56Z</time>
  <course>248.23</course>
  <speed>0.01</speed>
  <fix>3d</fix>
</trkpt>
<trkpt lat="40.0713877" lon="-105.2298092">
  <ele>1580.0</ele>
  <time>2026-08-28T17:56:56Z</time>
  <course>0.0</course>
  <speed>0.0</speed>
  <fix>3d</fix>
</trkpt>
<trkpt lat="40.0713877" lon="-105.2298092">
  <ele>1580.0</ele>
  <time>2026-08-28T17:56:56Z</time>
  <course>248.23</course>
  <speed>0.01</speed>
  <fix>3d</fix>
</trkpt>
<trkpt lat="40.0713877" lon="-105.2298092">
  <ele>1580.0</ele>
  <time>2026-08-28T17:56:56Z</time>
  <course>0.0</course>
  <speed>0.0</speed>
  <fix>3d</fix>
</trkpt>
<trkpt lat="40.0713877" lon="-105.2298092">
  <ele>1580.0</ele>
  <time>2026-08-28T17:56:56Z</time>
  <course>248.22</course>
  <speed>0.01</speed>
  <fix>3d</fix>
</trkpt>
<trkpt lat="40.0713877" lon="-105.2298092">
  <ele>1580.0</ele>
  <time>2026-08-28T17:56:56Z</time>
  <course>0.0</course>
  <speed>0.0</speed>
  <fix>3d</fix>
</trkpt>
<trkpt lat="40.0713877" lon="-105.2298092">
  <ele>1580.0</ele>
  <time>2026-08-28T17:56:56Z</time>
  <course>248.22</course>
  <speed>0.01</speed>
  <fix>3d</fix>
</trkpt>
<trkpt lat="40.0713877" lon="-105.2298092">
  <ele>1580.0</ele>
  <time>2026-08-28T17:56:56Z</time>
  <course>0.0</course>
  <speed>0.0</speed>
  <fix>3d</fix>
</trkpt>
<trkpt lat="40.0713877" lon="-105.2298092">
  <ele>1580.0</ele>
  <time>2026-08-28T17:56:56Z</time>
  <course>248.21</course>
  <speed>0.01</speed>
  <fix>3d</fix>
</trkpt>
<trkpt lat="40.0713877" lon="-105.2298092">
  <ele>1580.0</ele>
  <time>2026-08-28T17:56:56Z</time>
  <course>0.0</course>
  <speed>0.0</speed>
  <fix>3d</fix>
</trkpt>
<trkpt lat="40.0713877" lon="-105.2298092">
  <ele>1580.0</ele>
  <time>2026-08-28T17:56:56Z</time>
  <course>248.21</course>
  <speed>0.01</speed>
  <fix>3d</fix>
</trkpt>
<trkpt lat="40.0713877" lon="-105.2298092">
  <ele>1580.0</ele>
  <time>2026-08-28T17:56:56Z</time>
  <course>0.0</course>
  <speed>0.0</speed>
  <fix>3d</fix>
</trkpt>
<trkpt lat="40.0713877" lon="-105.2298092">
  <ele>1580.0</ele>
  <time>2026-08-28T17:56:56Z</time>
  <course>248.2</course>
  <speed>0.01</speed>
  <fix>3d</fix>
</trkpt>
<trkpt lat="40.0713877" lon="-105.2298092">
  <ele>1580.0</ele>
  <time>2026-08-28T17:56:56Z</time>
  <course>0.0</course>
  <speed>0.0</speed>
  <fix>3d</fix>
</trkpt>
<trkpt lat="40.0713877" lon="-105.2298092">
  <ele>1580.0</ele>
  <time>2026-08-28T17:56:56Z</time>
  <course>248.2</course>
  <speed>0.01</speed>
  <fix>3d</fix>
</trkpt>
<trkpt lat="40.0713877" lon="-105.2298092">
  <ele>1580.0</ele>
  <time>2026-08-28T17:56:56Z</time>
  <course>0.0</course>
  <speed>0.0</speed>
  <fix>3d</fix>
</trkpt>
<trkpt lat="40.0713877" lon="-105.2298092">
  <ele>1580.0</ele>
  <time>2026-08-28T17:56:56Z</time>
  <course>248.19</course>
  <speed>0.01</speed>
  <fix>3d</fix>
</trkpt>
<trkpt lat="40.0713877" lon="-105.2298092">
  <ele>1580.0</ele>
  <time>2026-08-28T17:56:56Z</time>
  <course>0.0</course>
  <speed>0.0</speed>
  <fix>3d</fix>
</trkpt>
<trkpt lat="40.0713877" lon="-105.2298092">
  <ele>1580.0</ele>
  <time>2026-08-28T17:56:56Z</time>
  <course>248.19</course>
  <speed>0.01</speed>
  <fix>3d</fix>
</trkpt>
<trkpt lat="40.0713877" lon="-105.2298092">
  <ele>1580.0</ele>
  <time>2026-08-28T17:56:56Z</time>
  <course>0.0</course>
  <speed>0.0</speed>
  <fix>3d</fix>
</trkpt>
<trkpt lat="40.0713877" lon="-105.2298092">
  <ele>1580.0</ele>
  <time>2026-08-28T17:56:56Z</time>
  <course>248.18</course>
  <speed>0.01</speed>
  <fix>3d</fix>
</trkpt>
<trkpt lat="40.0713877" lon="-105.2298092">
  <ele>1580.0</ele>
  <time>2026-08-28T17:56:56Z</time>
  <course>0.0</course>
  <speed>0.0</speed>
  <fix>3d</fix>
</trkpt>
<trkpt lat="40.0713877" lon="-105.2298092">
  <ele>1580.0</ele>
  <time>2026-08-28T17:56:56Z</time>
  <course>248.18</course>
  <speed>0.01</speed>
  <fix>3d</fix>
</trkpt>
<trkpt lat="40.0713877" lon="-105.2298092">
  <ele>1580.0</ele>
  <time>2026-08-28T17:56:56Z</time>
  <course>0.0</course>
  <speed>0.0</speed>
  <fix>3d</fix>
</trkpt>
<trkpt lat="40.0713877" lon="-105.2298092">
  <ele>1580.0</ele>
  <time>2026-08-28T17:56:56Z</time>
  <course>248.17</course>
  <speed>0.022360679774997897</speed>
  <fix>3d</fix>
</trkpt>
<trkpt lat="40.0713877" lon="-105.2298092">
  <ele>1580.0</ele>
  <time>2026-08-28T17:56:56Z</time>
  <course>0.0</course>
  <speed>0.0</speed>
  <fix>3d</fix>
</trkpt>
<trkpt lat="40.0713877" lon="-105.2298092">
  <ele>1580.0</ele>
  <time>2026-08-28T17:56:56Z</time>
  <course>248.17</course>
  <speed>0.022360679774997897</speed>
  <fix>3d</fix>
</trkpt>
<trkpt lat="40.0713877" lon="-105.2298092">
  <ele>1580.0</ele>
  <time>2026-08-28T17:56:56Z</time>
  <course>0.0</course>
  <speed>0.0</speed>
  <fix>3d</fix>
</trkpt>
<trkpt lat="40.0713877" lon="-105.2298092">
  <ele>1580.0</ele>
  <time>2026-08-28T17:56:56Z</time>
  <course>248.16</course>
  <speed>0.022360679774997897</speed>
  <fix>3d</fix>
</trkpt>
<trkpt lat="40.0713877" lon="-105.2298092">
  <ele>1580.0</ele>
  <time>2026-08-28T17:56:56Z</time>
  <course>0.0</course>
  <speed>0.0</speed>
  <fix>3d</fix>
</trkpt>
<trkpt lat="40.0713877" lon="-105.2298092">
  <ele>1580.0</ele>
  <time>2026-08-28T17:56:56Z</time>
  <course>248.16</course>
  <speed>0.022360679774997897</speed>
  <fix>3d</fix>
</trkpt>
<trkpt lat="40.0713877" lon="-105.2298092">
  <ele>1580.0</ele>
  <time>2026-08-28T17:56:56Z</time>
  <course>0.0</course>
  <speed>0.0</speed>
  <fix>3d</fix>
</trkpt>
<trkpt lat="40.0713877" lon="-105.2298092">
  <ele>1580.0</ele>
  <time>2026-08-28T17:56:56Z</time>
  <course>248.15</course>
  <speed>0.022360679774997897</speed>
  <fix>3d</fix>
</trkpt>
<trkpt lat="40.0713877" lon="-105.2298092">
  <ele>1580.0</ele>
  <time>2026-08-28T17:56:56Z</time>
  <course>0.0</course>
  <speed>0.0</speed>
  <fix>3d</fix>
</trkpt>
<trkpt lat="40.0713877" lon="-105.2298092">
  <ele>1580.0</ele>
  <time>2026-08-28T17:56:56Z</time>
  <course>248.15</course>
  <speed>0.022360679774997897</speed>
  <fix>3d</fix>
</trkpt>
<trkpt lat="40.0713877" lon="-105.2298092">
  <ele>1580.0</ele>
  <time>2026-08-28T17:56:56Z</time>
  <course>0.0</course>
  <speed>0.0</speed>
  <fix>3d</fix>
</trkpt>
<trkpt lat="40.0713877" lon="-105.2298092">
  <ele>1580.0</ele>
  <time>2026-08-28T17:56:56Z</time>
  <course>248.14</course>
  <speed>0.022360679774997897</speed>
  <fix>3d</fix>
</trkpt>
<trkpt lat="40.0713877" lon="-105.2298092">
  <ele>1580.0</ele>
  <time>2026-08-28T17:56:56Z</time>
  <course>0.0</course>
  <speed>0.0</speed>
  <fix>3d</fix>
</trkpt>
<trkpt lat="40.0713877" lon="-105.2298092">
  <ele>1580.0</ele>
  <time>2026-08-28T17:56:56Z</time>
  <course>248.14</course>
  <speed>0.022360679774997897</speed>
  <fix>3d</fix>
</trkpt>
<trkpt lat="40.0713877" lon="-105.2298092">
  <ele>1580.0</ele>
  <time>2026-08-28T17:56:56Z</time>
  <course>0.0</course>
  <speed>0.0</speed>
  <fix>3d</fix>
</trkpt>
<trkpt lat="40.0713877" lon="-105.2298092">
  <ele>1580.0</ele>
  <time>2026-08-28T17:56:56Z</time>
  <course>248.13</course>
  <speed>0.022360679774997897</speed>
  <fix>3d</fix>
</trkpt>
<trkpt lat="40.0713877" lon="-105.2298092">
  <ele>1580.0</ele>
  <time>2026-08-28T17:56:56Z</time>
  <course>0.0</course>
  <speed>0.0</speed>
  <fix>3d</fix>
</trkpt>
<trkpt lat="40.0713877" lon="-105.2298092">
  <ele>1580.0</ele>
  <time>2026-08-28T17:56:56Z</time>
  <course>248.13</course>
  <speed>0.022360679774997897</speed>
  <fix>3d</fix>
</trkpt>
<trkpt lat="40.0713877" lon="-105.2298092">
  <ele>1580.0</ele>
  <time>2026-08-28T17:56:56Z</time>
  <course>0.0</course>
  <speed>0.0</speed>
  <fix>3d</fix>
</trkpt>
<trkpt lat="40.0713877" lon="-105.2298092">
  <ele>1580.0</ele>
  <time>2026-08-28T17:56:56Z</time>
  <course>248.12</course>
  <speed>0.022360679774997897</speed>
  <fix>3d</fix>
</trkpt>
<trkpt lat="40.0713877" lon="-105.2298092">
  <ele>1580.0</ele>
  <time>2026-08-28T17:56:56Z</time>
  <course>0.0</course>
  <speed>0.0</speed>
  <fix>3d</fix>
</trkpt>
<trkpt lat="40.0713877" lon="-105.2298092">
  <ele>1580.0</ele>
  <time>2026-08-28T17:56:56Z</time>
  <course>248.12</course>
  <speed>0.022360679774997897</speed>
  <fix>3d</fix>
</trkpt>
<trkpt lat="40.0713877" lon="-105.2298092">
  <ele>1580.0</ele>
  <time>2026-08-28T17:56:56Z</time>
  <course>0.0</course>
  <speed>0.0</speed>
  <fix>3d</fix>
</trkpt>
<trkpt lat="40.0713877" lon="-105.2298092">
  <ele>1580.0</ele>
  <time>2026-08-28T17:56:56Z</time>
  <course>248.11</course>
  <speed>0.022360679774997897</speed>
  <fix>3d</fix>
</trkpt>
<trkpt lat="40.0713877" lon="-105.2298092">
  <ele>1580.0</ele>
  <time>2026-08-28T17:56:56Z</time>
  <course>0.0</course>
  <speed>0.0</speed>
  <fix>3d</fix>
</trkpt>
<trkpt lat="40.0713877" lon="-105.2298092">
  <ele>1580.0</ele>
  <time>2026-08-28T17:56:57Z</time>
  <course>248.11</course>
  <speed>0.022360679774997897</speed>
  <fix>3d</fix>
</trkpt>
<trkpt lat="40.0713877" lon="-105.2298092">
  <ele>1580.0</ele>
  <time>2026-08-28T17:56:57Z</time>
  <course>0.0</course>
  <speed>0.0</speed>
  <fix>3d</fix>
</trkpt>
<trkpt lat="40.0713877" lon="-105.2298092">
  <ele>1580.0</ele>
  <time>2026-08-28T17:56:57Z</time>
  <course>248.1</course>
  <speed>0.022360679774997897</speed>
  <fix>3d</fix>
</trkpt>
<trkpt lat="40.0713877" lon="-105.2298092">
  <ele>1580.0</ele>
  <time>2026-08-28T17:56:57Z</time>
  <course>0.0</course>
  <speed>0.0</speed>
  <fix>3d</fix>
</trkpt>
<trkpt lat="40.0713877" lon="-105.2298092">
  <ele>1580.0</ele>
  <time>2026-08-28T17:56:57Z</time>
  <course>248.1</course>
  <speed>0.022360679774997897</speed>
  <fix>3d</fix>
</trkpt>
<trkpt lat="40.0713877" lon="-105.2298092">
  <ele>1580.0</ele>
  <time>2026-08-28T17:56:57Z</time>
  <course>0.0</course>
  <speed>0.0</speed>
  <fix>3d</fix>
</trkpt>
<trkpt lat="40.0713877" lon="-105.2298092">
  <ele>1580.0</ele>
  <time>2026-08-28T17:56:57Z</time>
  <course>248.09</course>
  <speed>0.022360679774997897</speed>
  <fix>3d</fix>
</trkpt>
<trkpt lat="40.0713877" lon="-105.2298092">
  <ele>1580.0</ele>
  <time>2026-08-28T17:56:57Z</time>
  <course>0.0</course>
  <speed>0.0</speed>
  <fix>3d</fix>
</trkpt>
<trkpt lat="40.0713877" lon="-105.2298092">
  <ele>1580.0</ele>
  <time>2026-08-28T17:56:57Z</time>
  <course>248.09</course>
  <speed>0.022360679774997897</speed>
  <fix>3d</fix>
</trkpt>
<trkpt lat="40.0713877" lon="-105.2298092">
  <ele>1580.0</ele>
  <time>2026-08-28T17:56:57Z</time>
  <course>0.0</course>
  <speed>0.0</speed>
  <fix>3d</fix>
</trkpt>
<trkpt lat="40.0713877" lon="-105.2298092">
  <ele>1580.0</ele>
  <time>2026-08-28T17:56:57Z</time>
  <course>248.08</course>
  <speed>0.022360679774997897</speed>
  <fix>3d</fix>
</trkpt>
<trkpt lat="40.0713877" lon="-105.2298092">
  <ele>1580.0</ele>
  <time>2026-08-28T17:56:57Z</time>
  <course>0.0</course>
  <speed>0.0</speed>
  <fix>3d</fix>
</trkpt>
<trkpt lat="40.0713877" lon="-105.2298092">
  <ele>1580.0</ele>
  <time>2026-08-28T17:56:57Z</time>
  <course>248.08</course>
  <speed>0.022360679774997897</speed>
  <fix>3d</fix>
</trkpt>
<trkpt lat="40.0713877" lon="-105.2298092">
  <ele>1580.0</ele>
  <time>2026-08-28T17:56:57Z</time>
  <course>0.0</course>
  <speed>0.0</speed>
  <fix>3d</fix>
</trkpt>
<trkpt lat="40.0713877" lon="-105.2298092">
  <ele>1580.0</ele>
  <time>2026-08-28T17:56:57Z</time>
  <course>248.07</course>
  <speed>0.022360679774997897</speed>
  <fix>3d</fix>
</trkpt>
<trkpt lat="40.0713877" lon="-105.2298092">
  <ele>1580.0</ele>
  <time>2026-08-28T17:56:57Z</time>
  <course>0.0</course>
  <speed>0.0</speed>
  <fix>3d</fix>
</trkpt>
<trkpt lat="40.0713877" lon="-105.2298092">
  <ele>1580.0</ele>
  <time>2026-08-28T17:56:57Z</time>
  <course>248.07</course>
  <speed>0.022360679774997897</speed>
  <fix>3d</fix>
</trkpt>
<trkpt lat="40.0713877" lon="-105.2298092">
  <ele>1580.0</ele>
  <time>2026-08-28T17:56:57Z</time>
  <course>0.0</course>
  <speed>0.0</speed>
  <fix>3d</fix>
</trkpt>
<trkpt lat="40.0713877" lon="-105.2298092">
  <ele>1580.0</ele>
  <time>2026-08-28T17:56:57Z</time>
  <course>248.06</course>
  <speed>0.022360679774997897</speed>
  <fix>3d</fix>
</trkpt>
<trkpt lat="40.0713877" lon="-105.2298092">
  <ele>1580.0</ele>
  <time>2026-08-28T17:56:57Z</time>
  <course>0.0</course>
  <speed>0.0</speed>
  <fix>3d</fix>
</trkpt>
<trkpt lat="40.0713877" lon="-105.2298092">
  <ele>1580.0</ele>
  <time>2026-08-28T17:56:57Z</time>
  <course>248.06</course>
  <speed>0.022360679774997897</speed>
  <fix>3d</fix>
</trkpt>
<trkpt lat="40.0713877" lon="-105.2298092">
  <ele>1580.0</ele>
  <time>2026-08-28T17:56:57Z</time>
  <course>0.0</course>
  <speed>0.0</speed>
  <fix>3d</fix>
</trkpt>
<trkpt lat="40.0713877" lon="-105.2298092">
  <ele>1580.0</ele>
  <time>2026-08-28T17:56:57Z</time>
  <course>248.06</course>
  <speed>0.022360679774997897</speed>
  <fix>3d</fix>
</trkpt>
<trkpt lat="40.0713877" lon="-105.2298092">
  <ele>1580.0</ele>
  <time>2026-08-28T17:56:57Z</time>
  <course>0.0</course>
  <speed>0.0</speed>
  <fix>3d</fix>
</trkpt>
<trkpt lat="40.0713877" lon="-105.2298092">
  <ele>1580.0</ele>
  <time>2026-08-28T17:56:57Z</time>
  <course>248.05</course>
  <speed>0.022360679774997897</speed>
  <fix>3d</fix>
</trkpt>
<trkpt lat="40.0713877" lon="-105.2298092">
  <ele>1580.0</ele>
  <time>2026-08-28T17:56:57Z</time>
  <course>0.0</course>
  <speed>0.0</speed>
  <fix>3d</fix>
</trkpt>
<trkpt lat="40.0713877" lon="-105.2298092">
  <ele>1580.0</ele>
  <time>2026-08-28T17:56:57Z</time>
  <course>248.05</course>
  <speed>0.022360679774997897</speed>
  <fix>3d</fix>
</trkpt>
<trkpt lat="40.0713877" lon="-105.2298092">
  <ele>1580.0</ele>
  <time>2026-08-28T17:56:57Z</time>
  <course>0.0</course>
  <speed>0.0</speed>
  <fix>3d</fix>
</trkpt>
<trkpt lat="40.0713877" lon="-105.2298092">
  <ele>1580.0</ele>
  <time>2026-08-28T17:56:57Z</time>
  <course>248.04</course>
  <speed>0.022360679774997897</speed>
  <fix>3d</fix>
</trkpt>
<trkpt lat="40.0713877" lon="-105.2298092">
  <ele>1580.0</ele>
  <time>2026-08-28T17:56:57Z</time>
  <course>0.0</course>
  <speed>0.0</speed>
  <fix>3d</fix>
</trkpt>
<trkpt lat="40.0713877" lon="-105.2298092">
  <ele>1580.0</ele>
  <time>2026-08-28T17:56:57Z</time>
  <course>248.04</course>
  <speed>0.022360679774997897</speed>
  <fix>3d</fix>
</trkpt>
<trkpt lat="40.0713877" lon="-105.2298092">
  <ele>1580.0</ele>
  <time>2026-08-28T17:56:57Z</time>
  <course>0.0</course>
  <speed>0.0</speed>
  <fix>3d</fix>
</trkpt>
<trkpt lat="40.0713877" lon="-105.2298092">
  <ele>1580.0</ele>
  <time>2026-08-28T17:56:57Z</time>
  <course>248.03</course>
  <speed>0.022360679774997897</speed>
  <fix>3d</fix>
</trkpt>
<trkpt lat="40.0713877" lon="-105.2298092">
  <ele>1580.0</ele>
  <time>2026-08-28T17:56:57Z</time>
  <course>0.0</course>
  <speed>0.0</speed>
  <fix>3d</fix>
</trkpt>
<trkpt lat="40.0713877" lon="-105.2298092">
  <ele>1580.0</ele>
  <time>2026-08-28T17:56:57Z</time>
  <course>248.03</course>
  <speed>0.022360679774997897</speed>
  <fix>3d</fix>
</trkpt>
<trkpt lat="40.0713877" lon="-105.2298092">
  <ele>1580.0</ele>
  <time>2026-08-28T17:56:57Z</time>
  <course>0.0</course>
  <speed>0.0</speed>
  <fix>3d</fix>
</trkpt>
<trkpt lat="40.0713877" lon="-105.2298092">
  <ele>1580.0</ele>
  <time>2026-08-28T17:56:57Z</time>
  <course>248.02</course>
  <speed>0.022360679774997897</speed>
  <fix>3d</fix>
</trkpt>
<trkpt lat="40.0713877" lon="-105.2298092">
  <ele>1580.0</ele>
  <time>2026-08-28T17:56:57Z</time>
  <course>0.0</course>
  <speed>0.0</speed>
  <fix>3d</fix>
</trkpt>
<trkpt lat="40.0713877" lon="-105.2298092">
  <ele>1580.0</ele>
  <time>2026-08-28T17:56:57Z</time>
  <course>248.02</course>
  <speed>0.022360679774997897</speed>
  <fix>3d</fix>
</trkpt>
<trkpt lat="40.0713877" lon="-105.2298092">
  <ele>1580.0</ele>
  <time>2026-08-28T17:56:57Z</time>
  <course>0.0</course>
  <speed>0.0</speed>
  <fix>3d</fix>
</trkpt>
<trkpt lat="40.0713877" lon="-105.2298092">
  <ele>1580.0</ele>
  <time>2026-08-28T17:56:57Z</time>
  <course>248.01</course>
  <speed>0.022360679774997897</speed>
  <fix>3d</fix>
</trkpt>
<trkpt lat="40.0713877" lon="-105.2298092">
  <ele>1580.0</ele>
  <time>2026-08-28T17:56:57Z</time>
  <course>0.0</course>
  <speed>0.0</speed>
  <fix>3d</fix>
</trkpt>
<trkpt lat="40.0713877" lon="-105.2298092">
  <ele>1580.0</ele>
  <time>2026-08-28T17:56:57Z</time>
  <course>248.01</course>
  <speed>0.022360679774997897</speed>
  <fix>3d</fix>
</trkpt>
<trkpt lat="40.0713877" lon="-105.2298092">
  <ele>1580.0</ele>
  <time>2026-08-28T17:56:57Z</time>
  <course>0.0</course>
  <speed>0.0</speed>
  <fix>3d</fix>
</trkpt>
<trkpt lat="40.0713877" lon="-105.2298092">
  <ele>1580.0</ele>
  <time>2026-08-28T17:56:57Z</time>
  <course>248.0</course>
  <speed>0.022360679774997897</speed>
  <fix>3d</fix>
</trkpt>
<trkpt lat="40.0713877" lon="-105.2298092">
  <ele>1580.0</ele>
  <time>2026-08-28T17:56:57Z</time>
  <course>0.0</course>
  <speed>0.0</speed>
  <fix>3d</fix>
</trkpt>
<trkpt lat="40.0713877" lon="-105.2298092">
  <ele>1580.0</ele>
  <time>2026-08-28T17:56:57Z</time>
  <course>248.0</course>
  <speed>0.022360679774997897</speed>
  <fix>3d</fix>
</trkpt>
<trkpt lat="40.0713877" lon="-105.2298092">
  <ele>1580.0</ele>
  <time>2026-08-28T17:56:57Z</time>
  <course>0.0</course>
  <speed>0.0</speed>
  <fix>3d</fix>
</trkpt>
<trkpt lat="40.0713877" lon="-105.2298092">
  <ele>1580.0</ele>
  <time>2026-08-28T17:56:57Z</time>
  <course>247.99</course>
  <speed>0.022360679774997897</speed>
  <fix>3d</fix>
</trkpt>
<trkpt lat="40.0713877" lon="-105.2298092">
  <ele>1580.0</ele>
  <time>2026-08-28T17:56:57Z</time>
  <course>0.0</course>
  <speed>0.0</speed>
  <fix>3d</fix>
</trkpt>
<trkpt lat="40.0713877" lon="-105.2298092">
  <ele>1580.0</ele>
  <time>2026-08-28T17:56:57Z</time>
  <course>247.99</course>
  <speed>0.022360679774997897</speed>
  <fix>3d</fix>
</trkpt>
<trkpt lat="40.0713877" lon="-105.2298092">
  <ele>1580.0</ele>
  <time>2026-08-28T17:56:57Z</time>
  <course>0.0</course>
  <speed>0.0</speed>
  <fix>3d</fix>
</trkpt>
<trkpt lat="40.0713877" lon="-105.2298092">
  <ele>1580.0</ele>
  <time>2026-08-28T17:56:57Z</time>
  <course>247.99</course>
  <speed>0.022360679774997897</speed>
  <fix>3d</fix>
</trkpt>
<trkpt lat="40.0713877" lon="-105.2298092">
  <ele>1580.0</ele>
  <time>2026-08-28T17:56:57Z</time>
  <course>0.0</course>
  <speed>0.0</speed>
  <fix>3d</fix>
</trkpt>
<trkpt lat="40.0713877" lon="-105.2298092">
  <ele>1580.0</ele>
  <time>2026-08-28T17:56:57Z</time>
  <course>247.98</course>
  <speed>0.022360679774997897</speed>
  <fix>3d</fix>
</trkpt>
<trkpt lat="40.0713877" lon="-105.2298092">
  <ele>1580.0</ele>
  <time>2026-08-28T17:56:57Z</time>
  <course>0.0</course>
  <speed>0.0</speed>
  <fix>3d</fix>
</trkpt>
<trkpt lat="40.0713877" lon="-105.2298092">
  <ele>1580.0</ele>
  <time>2026-08-28T17:56:57Z</time>
  <course>247.98</course>
  <speed>0.022360679774997897</speed>
  <fix>3d</fix>
</trkpt>
<trkpt lat="40.0713877" lon="-105.2298092">
  <ele>1580.0</ele>
  <time>2026-08-28T17:56:57Z</time>
  <course>0.0</course>
  <speed>0.0</speed>
  <fix>3d</fix>
</trkpt>
<trkpt lat="40.0713877" lon="-105.2298092">
  <ele>1580.0</ele>
  <time>2026-08-28T17:56:57Z</time>
  <course>247.97</course>
  <speed>0.022360679774997897</speed>
  <fix>3d</fix>
</trkpt>
<trkpt lat="40.0713877" lon="-105.2298092">
  <ele>1580.0</ele>
  <time>2026-08-28T17:56:57Z</time>
  <course>0.0</course>
  <speed>0.0</speed>
  <fix>3d</fix>
</trkpt>
<trkpt lat="40.0713877" lon="-105.2298092">
  <ele>1580.0</ele>
  <time>2026-08-28T17:56:57Z</time>
  <course>247.97</course>
  <speed>0.022360679774997897</speed>
  <fix>3d</fix>
</trkpt>
<trkpt lat="40.0713877" lon="-105.2298092">
  <ele>1580.0</ele>
  <time>2026-08-28T17:56:57Z</time>
  <course>0.0</course>
  <speed>0.0</speed>
  <fix>3d</fix>
</trkpt>
<trkpt lat="40.0713877" lon="-105.2298092">
  <ele>1580.0</ele>
  <time>2026-08-28T17:56:57Z</time>
  <course>247.96</course>
  <speed>0.022360679774997897</speed>
  <fix>3d</fix>
</trkpt>
<trkpt lat="40.0713877" lon="-105.2298092">
  <ele>1580.0</ele>
  <time>2026-08-28T17:56:57Z</time>
  <course>0.0</course>
  <speed>0.0</speed>
  <fix>3d</fix>
</trkpt>
<trkpt lat="40.0713877" lon="-105.2298092">
  <ele>1580.0</ele>
  <time>2026-08-28T17:56:57Z</time>
  <course>247.96</course>
  <speed>0.022360679774997897</speed>
  <fix>3d</fix>
</trkpt>
<trkpt lat="40.0713877" lon="-105.2298092">
  <ele>1580.0</ele>
  <time>2026-08-28T17:56:57Z</time>
  <course>0.0</course>
  <speed>0.0</speed>
  <fix>3d</fix>
</trkpt>
<trkpt lat="40.0713877" lon="-105.2298092">
  <ele>1580.0</ele>
  <time>2026-08-28T17:56:57Z</time>
  <course>247.95</course>
  <speed>0.022360679774997897</speed>
  <fix>3d</fix>
</trkpt>
<trkpt lat="40.0713877" lon="-105.2298092">
  <ele>1580.0</ele>
  <time>2026-08-28T17:56:57Z</time>
  <course>0.0</course>
  <speed>0.0</speed>
  <fix>3d</fix>
</trkpt>
<trkpt lat="40.0713877" lon="-105.2298092">
  <ele>1580.0</ele>
  <time>2026-08-28T17:56:57Z</time>
  <course>247.95</course>
  <speed>0.022360679774997897</speed>
  <fix>3d</fix>
</trkpt>
<trkpt lat="40.0713877" lon="-105.2298092">
  <ele>1580.0</ele>
  <time>2026-08-28T17:56:57Z</time>
  <course>0.0</course>
  <speed>0.0</speed>
  <fix>3d</fix>
</trkpt>
<trkpt lat="40.0713877" lon="-105.2298092">
  <ele>1580.0</ele>
  <time>2026-08-28T17:56:57Z</time>
  <course>247.95</course>
  <speed>0.022360679774997897</speed>
  <fix>3d</fix>
</trkpt>
<trkpt lat="40.0713877" lon="-105.2298092">
  <ele>1580.0</ele>
  <time>2026-08-28T17:56:57Z</time>
  <course>0.0</course>
  <speed>0.0</speed>
  <fix>3d</fix>
</trkpt>
<trkpt lat="40.0713877" lon="-105.2298092">
  <ele>1580.0</ele>
  <time>2026-08-28T17:56:57Z</time>
  <course>247.94</course>
  <speed>0.022360679774997897</speed>
  <fix>3d</fix>
</trkpt>
<trkpt lat="40.0713877" lon="-105.2298092">
  <ele>1580.0</ele>
  <time>2026-08-28T17:56:57Z</time>
  <course>0.0</course>
  <speed>0.0</speed>
  <fix>3d</fix>
</trkpt>
<trkpt lat="40.0713877" lon="-105.2298092">
  <ele>1580.0</ele>
  <time>2026-08-28T17:56:57Z</time>
  <course>247.94</course>
  <speed>0.022360679774997897</speed>
  <fix>3d</fix>
</trkpt>
<trkpt lat="40.0713877" lon="-105.2298092">
  <ele>1580.0</ele>
  <time>2026-08-28T17:56:57Z</time>
  <course>0.0</course>
  <speed>0.0</speed>
  <fix>3d</fix>
</trkpt>
<trkpt lat="40.0713877" lon="-105.2298092">
  <ele>1580.0</ele>
  <time>2026-08-28T17:56:57Z</time>
  <course>247.93</course>
  <speed>0.022360679774997897</speed>
  <fix>3d</fix>
</trkpt>
<trkpt lat="40.0713877" lon="-105.2298092">
  <ele>1580.0</ele>
  <time>2026-08-28T17:56:57Z</time>
  <course>0.0</course>
  <speed>0.0</speed>
  <fix>3d</fix>
</trkpt>
<trkpt lat="40.0713877" lon="-105.2298092">
  <ele>1580.0</ele>
  <time>2026-08-28T17:56:57Z</time>
  <course>247.93</course>
  <speed>0.022360679774997897</speed>
  <fix>3d</fix>
</trkpt>
<trkpt lat="40.0713877" lon="-105.2298092">
  <ele>1580.0</ele>
  <time>2026-08-28T17:56:57Z</time>
  <course>0.0</course>
  <speed>0.0</speed>
  <fix>3d</fix>
</trkpt>
<trkpt lat="40.0713877" lon="-105.2298092">
  <ele>1580.0</ele>
  <time>2026-08-28T17:56:57Z</time>
  <course>247.92</course>
  <speed>0.022360679774997897</speed>
  <fix>3d</fix>
</trkpt>
<trkpt lat="40.0713877" lon="-105.2298092">
  <ele>1580.0</ele>
  <time>2026-08-28T17:56:57Z</time>
  <course>0.0</course>
  <speed>0.0</speed>
  <fix>3d</fix>
</trkpt>
<trkpt lat="40.0713877" lon="-105.2298092">
  <ele>1580.0</ele>
  <time>2026-08-28T17:56:57Z</time>
  <course>247.92</course>
  <speed>0.022360679774997897</speed>
  <fix>3d</fix>
</trkpt>
<trkpt lat="40.0713877" lon="-105.2298092">
  <ele>1580.0</ele>
  <time>2026-08-28T17:56:57Z</time>
  <course>0.0</course>
  <speed>0.0</speed>
  <fix>3d</fix>
</trkpt>
<trkpt lat="40.0713877" lon="-105.2298092">
  <ele>1580.0</ele>
  <time>2026-08-28T17:56:57Z</time>
  <course>247.92</course>
  <speed>0.022360679774997897</speed>
  <fix>3d</fix>
</trkpt>
<trkpt lat="40.0713877" lon="-105.2298092">
  <ele>1580.0</ele>
  <time>2026-08-28T17:56:57Z</time>
  <course>0.0</course>
  <speed>0.0</speed>
  <fix>3d</fix>
</trkpt>
<trkpt lat="40.0713877" lon="-105.2298092">
  <ele>1580.0</ele>
  <time>2026-08-28T17:56:57Z</time>
  <course>247.91</course>
  <speed>0.022360679774997897</speed>
  <fix>3d</fix>
</trkpt>
<trkpt lat="40.0713877" lon="-105.2298092">
  <ele>1580.0</ele>
  <time>2026-08-28T17:56:57Z</time>
  <course>0.0</course>
  <speed>0.0</speed>
  <fix>3d</fix>
</trkpt>
<trkpt lat="40.0713877" lon="-105.2298092">
  <ele>1580.0</ele>
  <time>2026-08-28T17:56:57Z</time>
  <course>247.91</course>
  <speed>0.022360679774997897</speed>
  <fix>3d</fix>
</trkpt>
<trkpt lat="40.0713877" lon="-105.2298092">
  <ele>1580.0</ele>
  <time>2026-08-28T17:56:57Z</time>
  <course>0.0</course>
  <speed>0.0</speed>
  <fix>3d</fix>
</trkpt>
<trkpt lat="40.0713877" lon="-105.2298092">
  <ele>1580.0</ele>
  <time>2026-08-28T17:56:57Z</time>
  <course>247.9</course>
  <speed>0.022360679774997897</speed>
  <fix>3d</fix>
</trkpt>
<trkpt lat="40.0713877" lon="-105.2298092">
  <ele>1580.0</ele>
  <time>2026-08-28T17:56:57Z</time>
  <course>0.0</course>
  <speed>0.0</speed>
  <fix>3d</fix>
</trkpt>
<trkpt lat="40.0713877" lon="-105.2298092">
  <ele>1580.0</ele>
  <time>2026-08-28T17:56:57Z</time>
  <course>247.9</course>
  <speed>0.022360679774997897</speed>
  <fix>3d</fix>
</trkpt>
<trkpt lat="40.0713877" lon="-105.2298092">
  <ele>1580.0</ele>
  <time>2026-08-28T17:56:57Z</time>
  <course>0.0</course>
  <speed>0.0</speed>
  <fix>3d</fix>
</trkpt>
<trkpt lat="40.0713877" lon="-105.2298092">
  <ele>1580.0</ele>
  <time>2026-08-28T17:56:57Z</time>
  <course>247.89</course>
  <speed>0.022360679774997897</speed>
  <fix>3d</fix>
</trkpt>
<trkpt lat="40.0713877" lon="-105.2298092">
  <ele>1580.0</ele>
  <time>2026-08-28T17:56:57Z</time>
  <course>0.0</course>
  <speed>0.0</speed>
  <fix>3d</fix>
</trkpt>
<trkpt lat="40.0713877" lon="-105.2298092">
  <ele>1580.0</ele>
  <time>2026-08-28T17:56:57Z</time>
  <course>247.89</course>
  <speed>0.022360679774997897</speed>
  <fix>3d</fix>
</trkpt>
<trkpt lat="40.0713877" lon="-105.2298092">
  <ele>1580.0</ele>
  <time>2026-08-28T17:56:57Z</time>
  <course>0.0</course>
  <speed>0.0</speed>
  <fix>3d</fix>
</trkpt>
<trkpt lat="40.0713877" lon="-105.2298092">
  <ele>1580.0</ele>
  <time>2026-08-28T17:56:57Z</time>
  <course>247.89</course>
  <speed>0.022360679774997897</speed>
  <fix>3d</fix>
</trkpt>
<trkpt lat="40.0713877" lon="-105.2298092">
  <ele>1580.0</ele>
  <time>2026-08-28T17:56:57Z</time>
  <course>0.0</course>
  <speed>0.0</speed>
  <fix>3d</fix>
</trkpt>
<trkpt lat="40.0713877" lon="-105.2298092">
  <ele>1580.0</ele>
  <time>2026-08-28T17:56:57Z</time>
  <course>247.88</course>
  <speed>0.0316227766016838</speed>
  <fix>3d</fix>
</trkpt>
<trkpt lat="40.0713877" lon="-105.2298092">
  <ele>1580.0</ele>
  <time>2026-08-28T17:56:57Z</time>
  <course>0.0</course>
  <speed>0.0</speed>
  <fix>3d</fix>
</trkpt>
<trkpt lat="40.0713877" lon="-105.2298092">
  <ele>1580.0</ele>
  <time>2026-08-28T17:56:57Z</time>
  <course>247.88</course>
  <speed>0.0316227766016838</speed>
  <fix>3d</fix>
</trkpt>
<trkpt lat="40.0713877" lon="-105.2298092">
  <ele>1580.0</ele>
  <time>2026-08-28T17:56:57Z</time>
  <course>0.0</course>
  <speed>0.0</speed>
  <fix>3d</fix>
</trkpt>
<trkpt lat="40.0713877" lon="-105.2298092">
  <ele>1580.0</ele>
  <time>2026-08-28T17:56:57Z</time>
  <course>247.87</course>
  <speed>0.0316227766016838</speed>
  <fix>3d</fix>
</trkpt>
<trkpt lat="40.0713877" lon="-105.2298092">
  <ele>1580.0</ele>
  <time>2026-08-28T17:56:57Z</time>
  <course>0.0</course>
  <speed>0.0</speed>
  <fix>3d</fix>
</trkpt>
<trkpt lat="40.0713877" lon="-105.2298092">
  <ele>1580.0</ele>
  <time>2026-08-28T17:56:57Z</time>
  <course>247.87</course>
  <speed>0.0316227766016838</speed>
  <fix>3d</fix>
</trkpt>
<trkpt lat="40.0713877" lon="-105.2298092">
  <ele>1580.0</ele>
  <time>2026-08-28T17:56:57Z</time>
  <course>0.0</course>
  <speed>0.0</speed>
  <fix>3d</fix>
</trkpt>
<trkpt lat="40.0713877" lon="-105.2298092">
  <ele>1580.0</ele>
  <time>2026-08-28T17:56:57Z</time>
  <course>247.87</course>
  <speed>0.0316227766016838</speed>
  <fix>3d</fix>
</trkpt>
<trkpt lat="40.0713877" lon="-105.2298092">
  <ele>1580.0</ele>
  <time>2026-08-28T17:56:57Z</time>
  <course>0.0</course>
  <speed>0.0</speed>
  <fix>3d</fix>
</trkpt>
<trkpt lat="40.0713877" lon="-105.2298092">
  <ele>1580.0</ele>
  <time>2026-08-28T17:56:57Z</time>
  <course>247.86</course>
  <speed>0.0316227766016838</speed>
  <fix>3d</fix>
</trkpt>
<trkpt lat="40.0713877" lon="-105.2298092">
  <ele>1580.0</ele>
  <time>2026-08-28T17:56:57Z</time>
  <course>0.0</course>
  <speed>0.0</speed>
  <fix>3d</fix>
</trkpt>
<trkpt lat="40.0713877" lon="-105.2298092">
  <ele>1580.0</ele>
  <time>2026-08-28T17:56:57Z</time>
  <course>247.86</course>
  <speed>0.0316227766016838</speed>
  <fix>3d</fix>
</trkpt>
<trkpt lat="40.0713877" lon="-105.2298092">
  <ele>1580.0</ele>
  <time>2026-08-28T17:56:57Z</time>
  <course>0.0</course>
  <speed>0.0</speed>
  <fix>3d</fix>
</trkpt>
<trkpt lat="40.0713877" lon="-105.2298092">
  <ele>1580.0</ele>
  <time>2026-08-28T17:56:57Z</time>
  <course>247.85</course>
  <speed>0.0316227766016838</speed>
  <fix>3d</fix>
</trkpt>
<trkpt lat="40.0713877" lon="-105.2298092">
  <ele>1580.0</ele>
  <time>2026-08-28T17:56:57Z</time>
  <course>0.0</course>
  <speed>0.0</speed>
  <fix>3d</fix>
</trkpt>
<trkpt lat="40.0713877" lon="-105.2298092">
  <ele>1580.0</ele>
  <time>2026-08-28T17:56:57Z</time>
  <course>247.85</course>
  <speed>0.0316227766016838</speed>
  <fix>3d</fix>
</trkpt>
<trkpt lat="40.0713877" lon="-105.2298092">
  <ele>1580.0</ele>
  <time>2026-08-28T17:56:57Z</time>
  <course>0.0</course>
  <speed>0.0</speed>
  <fix>3d</fix>
</trkpt>
<trkpt lat="40.0713877" lon="-105.2298092">
  <ele>1580.0</ele>
  <time>2026-08-28T17:56:57Z</time>
  <course>247.85</course>
  <speed>0.0316227766016838</speed>
  <fix>3d</fix>
</trkpt>
<trkpt lat="40.0713877" lon="-105.2298092">
  <ele>1580.0</ele>
  <time>2026-08-28T17:56:57Z</time>
  <course>0.0</course>
  <speed>0.0</speed>
  <fix>3d</fix>
</trkpt>
<trkpt lat="40.0713877" lon="-105.2298092">
  <ele>1580.0</ele>
  <time>2026-08-28T17:56:57Z</time>
  <course>247.84</course>
  <speed>0.0316227766016838</speed>
  <fix>3d</fix>
</trkpt>
<trkpt lat="40.0713877" lon="-105.2298092">
  <ele>1580.0</ele>
  <time>2026-08-28T17:56:57Z</time>
  <course>0.0</course>
  <speed>0.0</speed>
  <fix>3d</fix>
</trkpt>
<trkpt lat="40.0713877" lon="-105.2298092">
  <ele>1580.0</ele>
  <time>2026-08-28T17:56:57Z</time>
  <course>247.84</course>
  <speed>0.0316227766016838</speed>
  <fix>3d</fix>
</trkpt>
<trkpt lat="40.0713877" lon="-105.2298092">
  <ele>1580.0</ele>
  <time>2026-08-28T17:56:57Z</time>
  <course>0.0</course>
  <speed>0.0</speed>
  <fix>3d</fix>
</trkpt>
<trkpt lat="40.0713877" lon="-105.2298092">
  <ele>1580.0</ele>
  <time>2026-08-28T17:56:57Z</time>
  <course>247.83</course>
  <speed>0.0316227766016838</speed>
  <fix>3d</fix>
</trkpt>
<trkpt lat="40.0713877" lon="-105.2298092">
  <ele>1580.0</ele>
  <time>2026-08-28T17:56:57Z</time>
  <course>0.0</course>
  <speed>0.0</speed>
  <fix>3d</fix>
</trkpt>
<trkpt lat="40.0713877" lon="-105.2298092">
  <ele>1580.0</ele>
  <time>2026-08-28T17:56:57Z</time>
  <course>247.83</course>
  <speed>0.0316227766016838</speed>
  <fix>3d</fix>
</trkpt>
<trkpt lat="40.0713877" lon="-105.2298092">
  <ele>1580.0</ele>
  <time>2026-08-28T17:56:57Z</time>
  <course>0.0</course>
  <speed>0.0</speed>
  <fix>3d</fix>
</trkpt>
<trkpt lat="40.0713877" lon="-105.2298092">
  <ele>1580.0</ele>
  <time>2026-08-28T17:56:57Z</time>
  <course>247.83</course>
  <speed>0.0316227766016838</speed>
  <fix>3d</fix>
</trkpt>
<trkpt lat="40.0713877" lon="-105.2298092">
  <ele>1580.0</ele>
  <time>2026-08-28T17:56:57Z</time>
  <course>0.0</course>
  <speed>0.0</speed>
  <fix>3d</fix>
</trkpt>
<trkpt lat="40.0713877" lon="-105.2298092">
  <ele>1580.0</ele>
  <time>2026-08-28T17:56:57Z</time>
  <course>247.82</course>
  <speed>0.0316227766016838</speed>
  <fix>3d</fix>
</trkpt>
<trkpt lat="40.0713877" lon="-105.2298092">
  <ele>1580.0</ele>
  <time>2026-08-28T17:56:57Z</time>
  <course>0.0</course>
  <speed>0.0</speed>
  <fix>3d</fix>
</trkpt>
<trkpt lat="40.0713877" lon="-105.2298092">
  <ele>1580.0</ele>
  <time>2026-08-28T17:56:57Z</time>
  <course>247.82</course>
  <speed>0.0316227766016838</speed>
  <fix>3d</fix>
</trkpt>
<trkpt lat="40.0713877" lon="-105.2298092">
  <ele>1580.0</ele>
  <time>2026-08-28T17:56:57Z</time>
  <course>0.0</course>
  <speed>0.0</speed>
  <fix>3d</fix>
</trkpt>
<trkpt lat="40.0713877" lon="-105.2298092">
  <ele>1580.0</ele>
  <time>2026-08-28T17:56:57Z</time>
  <course>247.82</course>
  <speed>0.0316227766016838</speed>
  <fix>3d</fix>
</trkpt>
<trkpt lat="40.0713877" lon="-105.2298092">
  <ele>1580.0</ele>
  <time>2026-08-28T17:56:57Z</time>
  <course>0.0</course>
  <speed>0.0</speed>
  <fix>3d</fix>
</trkpt>
<trkpt lat="40.0713877" lon="-105.2298092">
  <ele>1580.0</ele>
  <time>2026-08-28T17:56:57Z</time>
  <course>247.81</course>
  <speed>0.0316227766016838</speed>
  <fix>3d</fix>
</trkpt>
<trkpt lat="40.0713877" lon="-105.2298092">
  <ele>1580.0</ele>
  <time>2026-08-28T17:56:57Z</time>
  <course>0.0</course>
  <speed>0.0</speed>
  <fix>3d</fix>
</trkpt>
<trkpt lat="40.0713877" lon="-105.2298092">
  <ele>1580.0</ele>
  <time>2026-08-28T17:56:57Z</time>
  <course>247.81</course>
  <speed>0.0316227766016838</speed>
  <fix>3d</fix>
</trkpt>
<trkpt lat="40.0713877" lon="-105.2298092">
  <ele>1580.0</ele>
  <time>2026-08-28T17:56:57Z</time>
  <course>0.0</course>
  <speed>0.0</speed>
  <fix>3d</fix>
</trkpt>
<trkpt lat="40.0713877" lon="-105.2298092">
  <ele>1580.0</ele>
  <time>2026-08-28T17:56:57Z</time>
  <course>247.8</course>
  <speed>0.0316227766016838</speed>
  <fix>3d</fix>
</trkpt>
<trkpt lat="40.0713877" lon="-105.2298092">
  <ele>1580.0</ele>
  <time>2026-08-28T17:56:57Z</time>
  <course>0.0</course>
  <speed>0.0</speed>
  <fix>3d</fix>
</trkpt>
<trkpt lat="40.0713877" lon="-105.2298092">
  <ele>1580.0</ele>
  <time>2026-08-28T17:56:57Z</time>
  <course>247.8</course>
  <speed>0.0316227766016838</speed>
  <fix>3d</fix>
</trkpt>
<trkpt lat="40.0713877" lon="-105.2298092">
  <ele>1580.0</ele>
  <time>2026-08-28T17:56:57Z</time>
  <course>0.0</course>
  <speed>0.0</speed>
  <fix>3d</fix>
</trkpt>
<trkpt lat="40.0713877" lon="-105.2298092">
  <ele>1580.0</ele>
  <time>2026-08-28T17:56:57Z</time>
  <course>247.8</course>
  <speed>0.0316227766016838</speed>
  <fix>3d</fix>
</trkpt>
<trkpt lat="40.0713877" lon="-105.2298092">
  <ele>1580.0</ele>
  <time>2026-08-28T17:56:57Z</time>
  <course>0.0</course>
  <speed>0.0</speed>
  <fix>3d</fix>
</trkpt>
<trkpt lat="40.0713877" lon="-105.2298092">
  <ele>1580.0</ele>
  <time>2026-08-28T17:56:57Z</time>
  <course>247.79</course>
  <speed>0.0316227766016838</speed>
  <fix>3d</fix>
</trkpt>
<trkpt lat="40.0713877" lon="-105.2298092">
  <ele>1580.0</ele>
  <time>2026-08-28T17:56:57Z</time>
  <course>0.0</course>
  <speed>0.0</speed>
  <fix>3d</fix>
</trkpt>
<trkpt lat="40.0713877" lon="-105.2298092">
  <ele>1580.0</ele>
  <time>2026-08-28T17:56:57Z</time>
  <course>247.79</course>
  <speed>0.0316227766016838</speed>
  <fix>3d</fix>
</trkpt>
<trkpt lat="40.0713877" lon="-105.2298092">
  <ele>1580.0</ele>
  <time>2026-08-28T17:56:57Z</time>
  <course>0.0</course>
  <speed>0.0</speed>
  <fix>3d</fix>
</trkpt>
<trkpt lat="40.0713877" lon="-105.2298092">
  <ele>1580.0</ele>
  <time>2026-08-28T17:56:57Z</time>
  <course>247.79</course>
  <speed>0.0316227766016838</speed>
  <fix>3d</fix>
</trkpt>
<trkpt lat="40.0713877" lon="-105.2298092">
  <ele>1580.0</ele>
  <time>2026-08-28T17:56:57Z</time>
  <course>0.0</course>
  <speed>0.0</speed>
  <fix>3d</fix>
</trkpt>
<trkpt lat="40.0713877" lon="-105.2298092">
  <ele>1580.0</ele>
  <time>2026-08-28T17:56:57Z</time>
  <course>247.78</course>
  <speed>0.0316227766016838</speed>
  <fix>3d</fix>
</trkpt>
<trkpt lat="40.0713877" lon="-105.2298092">
  <ele>1580.0</ele>
  <time>2026-08-28T17:56:57Z</time>
  <course>0.0</course>
  <speed>0.0</speed>
  <fix>3d</fix>
</trkpt>
<trkpt lat="40.0713877" lon="-105.2298092">
  <ele>1580.0</ele>
  <time>2026-08-28T17:56:57Z</time>
  <course>247.78</course>
  <speed>0.0316227766016838</speed>
  <fix>3d</fix>
</trkpt>
<trkpt lat="40.0713877" lon="-105.2298092">
  <ele>1580.0</ele>
  <time>2026-08-28T17:56:57Z</time>
  <course>0.0</course>
  <speed>0.0</speed>
  <fix>3d</fix>
</trkpt>
<trkpt lat="40.0713877" lon="-105.2298092">
  <ele>1580.0</ele>
  <time>2026-08-28T17:56:57Z</time>
  <course>247.78</course>
  <speed>0.0316227766016838</speed>
  <fix>3d</fix>
</trkpt>
<trkpt lat="40.0713877" lon="-105.2298092">
  <ele>1580.0</ele>
  <time>2026-08-28T17:56:57Z</time>
  <course>0.0</course>
  <speed>0.0</speed>
  <fix>3d</fix>
</trkpt>
<trkpt lat="40.0713877" lon="-105.2298092">
  <ele>1580.0</ele>
  <time>2026-08-28T17:56:57Z</time>
  <course>247.77</course>
  <speed>0.0316227766016838</speed>
  <fix>3d</fix>
</trkpt>
<trkpt lat="40.0713877" lon="-105.2298092">
  <ele>1580.0</ele>
  <time>2026-08-28T17:56:57Z</time>
  <course>0.0</course>
  <speed>0.0</speed>
  <fix>3d</fix>
</trkpt>
<trkpt lat="40.0713877" lon="-105.2298092">
  <ele>1580.0</ele>
  <time>2026-08-28T17:56:57Z</time>
  <course>247.77</course>
  <speed>0.0316227766016838</speed>
  <fix>3d</fix>
</trkpt>
<trkpt lat="40.0713877" lon="-105.2298092">
  <ele>1580.0</ele>
  <time>2026-08-28T17:56:57Z</time>
  <course>0.0</course>
  <speed>0.0</speed>
  <fix>3d</fix>
</trkpt>
<trkpt lat="40.0713877" lon="-105.2298092">
  <ele>1580.0</ele>
  <time>2026-08-28T17:56:57Z</time>
  <course>247.76</course>
  <speed>0.0316227766016838</speed>
  <fix>3d</fix>
</trkpt>
<trkpt lat="40.0713877" lon="-105.2298092">
  <ele>1580.0</ele>
  <time>2026-08-28T17:56:57Z</time>
  <course>0.0</course>
  <speed>0.0</speed>
  <fix>3d</fix>
</trkpt>
<trkpt lat="40.0713877" lon="-105.2298092">
  <ele>1580.0</ele>
  <time>2026-08-28T17:56:57Z</time>
  <course>247.76</course>
  <speed>0.0316227766016838</speed>
  <fix>3d</fix>
</trkpt>
<trkpt lat="40.0713877" lon="-105.2298092">
  <ele>1580.0</ele>
  <time>2026-08-28T17:56:57Z</time>
  <course>0.0</course>
  <speed>0.0</speed>
  <fix>3d</fix>
</trkpt>
<trkpt lat="40.0713877" lon="-105.2298092">
  <ele>1580.0</ele>
  <time>2026-08-28T17:56:57Z</time>
  <course>247.76</course>
  <speed>0.0316227766016838</speed>
  <fix>3d</fix>
</trkpt>
<trkpt lat="40.0713877" lon="-105.2298092">
  <ele>1580.0</ele>
  <time>2026-08-28T17:56:57Z</time>
  <course>0.0</course>
  <speed>0.0</speed>
  <fix>3d</fix>
</trkpt>
<trkpt lat="40.0713877" lon="-105.2298092">
  <ele>1580.0</ele>
  <time>2026-08-28T17:56:57Z</time>
  <course>247.75</course>
  <speed>0.0316227766016838</speed>
  <fix>3d</fix>
</trkpt>
<trkpt lat="40.0713877" lon="-105.2298092">
  <ele>1580.0</ele>
  <time>2026-08-28T17:56:57Z</time>
  <course>0.0</course>
  <speed>0.0</speed>
  <fix>3d</fix>
</trkpt>
<trkpt lat="40.0713877" lon="-105.2298092">
  <ele>1580.0</ele>
  <time>2026-08-28T17:56:57Z</time>
  <course>247.75</course>
  <speed>0.0316227766016838</speed>
  <fix>3d</fix>
</trkpt>
<trkpt lat="40.0713877" lon="-105.2298092">
  <ele>1580.0</ele>
  <time>2026-08-28T17:56:57Z</time>
  <course>0.0</course>
  <speed>0.0</speed>
  <fix>3d</fix>
</trkpt>
<trkpt lat="40.0713877" lon="-105.2298092">
  <ele>1580.0</ele>
  <time>2026-08-28T17:56:57Z</time>
  <course>247.75</course>
  <speed>0.0316227766016838</speed>
  <fix>3d</fix>
</trkpt>
<trkpt lat="40.0713877" lon="-105.2298092">
  <ele>1580.0</ele>
  <time>2026-08-28T17:56:57Z</time>
  <course>0.0</course>
  <speed>0.0</speed>
  <fix>3d</fix>
</trkpt>
<trkpt lat="40.0713877" lon="-105.2298092">
  <ele>1580.0</ele>
  <time>2026-08-28T17:56:57Z</time>
  <course>247.74</course>
  <speed>0.0316227766016838</speed>
  <fix>3d</fix>
</trkpt>
<trkpt lat="40.0713877" lon="-105.2298092">
  <ele>1580.0</ele>
  <time>2026-08-28T17:56:57Z</time>
  <course>0.0</course>
  <speed>0.0</speed>
  <fix>3d</fix>
</trkpt>
<trkpt lat="40.0713877" lon="-105.2298092">
  <ele>1580.0</ele>
  <time>2026-08-28T17:56:57Z</time>
  <course>247.74</course>
  <speed>0.0316227766016838</speed>
  <fix>3d</fix>
</trkpt>
<trkpt lat="40.0713877" lon="-105.2298092">
  <ele>1580.0</ele>
  <time>2026-08-28T17:56:57Z</time>
  <course>0.0</course>
  <speed>0.0</speed>
  <fix>3d</fix>
</trkpt>
<trkpt lat="40.0713877" lon="-105.2298092">
  <ele>1580.0</ele>
  <time>2026-08-28T17:56:57Z</time>
  <course>247.74</course>
  <speed>0.0316227766016838</speed>
  <fix>3d</fix>
</trkpt>
<trkpt lat="40.0713877" lon="-105.2298092">
  <ele>1580.0</ele>
  <time>2026-08-28T17:56:57Z</time>
  <course>0.0</course>
  <speed>0.0</speed>
  <fix>3d</fix>
</trkpt>
<trkpt lat="40.0713877" lon="-105.2298092">
  <ele>1580.0</ele>
  <time>2026-08-28T17:56:57Z</time>
  <course>247.73</course>
  <speed>0.0316227766016838</speed>
  <fix>3d</fix>
</trkpt>
<trkpt lat="40.0713877" lon="-105.2298092">
  <ele>1580.0</ele>
  <time>2026-08-28T17:56:57Z</time>
  <course>0.0</course>
  <speed>0.0</speed>
  <fix>3d</fix>
</trkpt>
<trkpt lat="40.0713877" lon="-105.2298092">
  <ele>1580.0</ele>
  <time>2026-08-28T17:56:57Z</time>
  <course>247.73</course>
  <speed>0.0316227766016838</speed>
  <fix>3d</fix>
</trkpt>
<trkpt lat="40.0713877" lon="-105.2298092">
  <ele>1580.0</ele>
  <time>2026-08-28T17:56:57Z</time>
  <course>0.0</course>
  <speed>0.0</speed>
  <fix>3d</fix>
</trkpt>
<trkpt lat="40.0713877" lon="-105.2298092">
  <ele>1580.0</ele>
  <time>2026-08-28T17:56:57Z</time>
  <course>247.73</course>
  <speed>0.0316227766016838</speed>
  <fix>3d</fix>
</trkpt>
<trkpt lat="40.0713877" lon="-105.2298092">
  <ele>1580.0</ele>
  <time>2026-08-28T17:56:57Z</time>
  <course>0.0</course>
  <speed>0.0</speed>
  <fix>3d</fix>
</trkpt>
<trkpt lat="40.0713877" lon="-105.2298092">
  <ele>1580.0</ele>
  <time>2026-08-28T17:56:57Z</time>
  <course>247.72</course>
  <speed>0.0316227766016838</speed>
  <fix>3d</fix>
</trkpt>
<trkpt lat="40.0713877" lon="-105.2298092">
  <ele>1580.0</ele>
  <time>2026-08-28T17:56:57Z</time>
  <course>0.0</course>
  <speed>0.0</speed>
  <fix>3d</fix>
</trkpt>
<trkpt lat="40.0713877" lon="-105.2298092">
  <ele>1580.0</ele>
  <time>2026-08-28T17:56:57Z</time>
  <course>247.72</course>
  <speed>0.0316227766016838</speed>
  <fix>3d</fix>
</trkpt>
<trkpt lat="40.0713877" lon="-105.2298092">
  <ele>1580.0</ele>
  <time>2026-08-28T17:56:57Z</time>
  <course>0.0</course>
  <speed>0.0</speed>
  <fix>3d</fix>
</trkpt>
<trkpt lat="40.0713877" lon="-105.2298092">
  <ele>1580.0</ele>
  <time>2026-08-28T17:56:57Z</time>
  <course>247.72</course>
  <speed>0.0316227766016838</speed>
  <fix>3d</fix>
</trkpt>
<trkpt lat="40.0713877" lon="-105.2298092">
  <ele>1580.0</ele>
  <time>2026-08-28T17:56:57Z</time>
  <course>0.0</course>
  <speed>0.0</speed>
  <fix>3d</fix>
</trkpt>
<trkpt lat="40.0713877" lon="-105.2298092">
  <ele>1580.0</ele>
  <time>2026-08-28T17:56:57Z</time>
  <course>247.71</course>
  <speed>0.0316227766016838</speed>
  <fix>3d</fix>
</trkpt>
<trkpt lat="40.0713877" lon="-105.2298092">
  <ele>1580.0</ele>
  <time>2026-08-28T17:56:57Z</time>
  <course>0.0</course>
  <speed>0.0</speed>
  <fix>3d</fix>
</trkpt>
<trkpt lat="40.0713877" lon="-105.2298092">
  <ele>1580.0</ele>
  <time>2026-08-28T17:56:57Z</time>
  <course>247.71</course>
  <speed>0.0316227766016838</speed>
  <fix>3d</fix>
</trkpt>
<trkpt lat="40.0713877" lon="-105.2298092">
  <ele>1580.0</ele>
  <time>2026-08-28T17:56:57Z</time>
  <course>0.0</course>
  <speed>0.0</speed>
  <fix>3d</fix>
</trkpt>
<trkpt lat="40.0713877" lon="-105.2298092">
  <ele>1580.0</ele>
  <time>2026-08-28T17:56:57Z</time>
  <course>247.71</course>
  <speed>0.0316227766016838</speed>
  <fix>3d</fix>
</trkpt>
<trkpt lat="40.0713877" lon="-105.2298092">
  <ele>1580.0</ele>
  <time>2026-08-28T17:56:57Z</time>
  <course>0.0</course>
  <speed>0.0</speed>
  <fix>3d</fix>
</trkpt>
<trkpt lat="40.0713877" lon="-105.2298092">
  <ele>1580.0</ele>
  <time>2026-08-28T17:56:57Z</time>
  <course>247.7</course>
  <speed>0.0316227766016838</speed>
  <fix>3d</fix>
</trkpt>
<trkpt lat="40.0713877" lon="-105.2298092">
  <ele>1580.0</ele>
  <time>2026-08-28T17:56:57Z</time>
  <course>0.0</course>
  <speed>0.0</speed>
  <fix>3d</fix>
</trkpt>
<trkpt lat="40.0713877" lon="-105.2298092">
  <ele>1580.0</ele>
  <time>2026-08-28T17:56:57Z</time>
  <course>247.7</course>
  <speed>0.0316227766016838</speed>
  <fix>3d</fix>
</trkpt>
<trkpt lat="40.0713877" lon="-105.2298092">
  <ele>1580.0</ele>
  <time>2026-08-28T17:56:57Z</time>
  <course>0.0</course>
  <speed>0.0</speed>
  <fix>3d</fix>
</trkpt>
<trkpt lat="40.0713877" lon="-105.2298092">
  <ele>1580.0</ele>
  <time>2026-08-28T17:56:57Z</time>
  <course>247.7</course>
  <speed>0.0316227766016838</speed>
  <fix>3d</fix>
</trkpt>
<trkpt lat="40.0713877" lon="-105.2298092">
  <ele>1580.0</ele>
  <time>2026-08-28T17:56:57Z</time>
  <course>0.0</course>
  <speed>0.0</speed>
  <fix>3d</fix>
</trkpt>
<trkpt lat="40.0713877" lon="-105.2298092">
  <ele>1580.0</ele>
  <time>2026-08-28T17:56:57Z</time>
  <course>247.69</course>
  <speed>0.0316227766016838</speed>
  <fix>3d</fix>
</trkpt>
<trkpt lat="40.0713877" lon="-105.2298092">
  <ele>1580.0</ele>
  <time>2026-08-28T17:56:57Z</time>
  <course>0.0</course>
  <speed>0.0</speed>
  <fix>3d</fix>
</trkpt>
<trkpt lat="40.0713877" lon="-105.2298092">
  <ele>1580.0</ele>
  <time>2026-08-28T17:56:57Z</time>
  <course>247.69</course>
  <speed>0.0316227766016838</speed>
  <fix>3d</fix>
</trkpt>
<trkpt lat="40.0713877" lon="-105.2298092">
  <ele>1580.0</ele>
  <time>2026-08-28T17:56:57Z</time>
  <course>0.0</course>
  <speed>0.0</speed>
  <fix>3d</fix>
</trkpt>
<trkpt lat="40.0713877" lon="-105.2298092">
  <ele>1580.0</ele>
  <time>2026-08-28T17:56:57Z</time>
  <course>247.69</course>
  <speed>0.0316227766016838</speed>
  <fix>3d</fix>
</trkpt>
<trkpt lat="40.0713877" lon="-105.2298092">
  <ele>1580.0</ele>
  <time>2026-08-28T17:56:57Z</time>
  <course>0.0</course>
  <speed>0.0</speed>
  <fix>3d</fix>
</trkpt>
<trkpt lat="40.0713877" lon="-105.2298092">
  <ele>1580.0</ele>
  <time>2026-08-28T17:56:57Z</time>
  <course>247.68</course>
  <speed>0.0316227766016838</speed>
  <fix>3d</fix>
</trkpt>
<trkpt lat="40.0713877" lon="-105.2298092">
  <ele>1580.0</ele>
  <time>2026-08-28T17:56:57Z</time>
  <course>0.0</course>
  <speed>0.0</speed>
  <fix>3d</fix>
</trkpt>
<trkpt lat="40.0713877" lon="-105.2298092">
  <ele>1580.0</ele>
  <time>2026-08-28T17:56:57Z</time>
  <course>247.68</course>
  <speed>0.0316227766016838</speed>
  <fix>3d</fix>
</trkpt>
<trkpt lat="40.0713877" lon="-105.2298092">
  <ele>1580.0</ele>
  <time>2026-08-28T17:56:57Z</time>
  <course>0.0</course>
  <speed>0.0</speed>
  <fix>3d</fix>
</trkpt>
<trkpt lat="40.0713877" lon="-105.2298092">
  <ele>1580.0</ele>
  <time>2026-08-28T17:56:57Z</time>
  <course>247.68</course>
  <speed>0.0316227766016838</speed>
  <fix>3d</fix>
</trkpt>
<trkpt lat="40.0713877" lon="-105.2298092">
  <ele>1580.0</ele>
  <time>2026-08-28T17:56:57Z</time>
  <course>0.0</course>
  <speed>0.0</speed>
  <fix>3d</fix>
</trkpt>
<trkpt lat="40.0713877" lon="-105.2298092">
  <ele>1580.0</ele>
  <time>2026-08-28T17:56:57Z</time>
  <course>247.67</course>
  <speed>0.0316227766016838</speed>
  <fix>3d</fix>
</trkpt>
<trkpt lat="40.0713877" lon="-105.2298092">
  <ele>1580.0</ele>
  <time>2026-08-28T17:56:57Z</time>
  <course>0.0</course>
  <speed>0.0</speed>
  <fix>3d</fix>
</trkpt>
<trkpt lat="40.0713877" lon="-105.2298092">
  <ele>1580.0</ele>
  <time>2026-08-28T17:56:57Z</time>
  <course>247.67</course>
  <speed>0.0316227766016838</speed>
  <fix>3d</fix>
</trkpt>
<trkpt lat="40.0713877" lon="-105.2298092">
  <ele>1580.0</ele>
  <time>2026-08-28T17:56:57Z</time>
  <course>0.0</course>
  <speed>0.0</speed>
  <fix>3d</fix>
</trkpt>
<trkpt lat="40.0713877" lon="-105.2298092">
  <ele>1580.0</ele>
  <time>2026-08-28T17:56:57Z</time>
  <course>247.67</course>
  <speed>0.0316227766016838</speed>
  <fix>3d</fix>
</trkpt>
<trkpt lat="40.0713877" lon="-105.2298092">
  <ele>1580.0</ele>
  <time>2026-08-28T17:56:57Z</time>
  <course>0.0</course>
  <speed>0.0</speed>
  <fix>3d</fix>
</trkpt>
<trkpt lat="40.0713877" lon="-105.2298092">
  <ele>1580.0</ele>
  <time>2026-08-28T17:56:57Z</time>
  <course>247.66</course>
  <speed>0.0316227766016838</speed>
  <fix>3d</fix>
</trkpt>
<trkpt lat="40.0713877" lon="-105.2298092">
  <ele>1580.0</ele>
  <time>2026-08-28T17:56:57Z</time>
  <course>0.0</course>
  <speed>0.0</speed>
  <fix>3d</fix>
</trkpt>
<trkpt lat="40.0713877" lon="-105.2298092">
  <ele>1580.0</ele>
  <time>2026-08-28T17:56:57Z</time>
  <course>247.66</course>
  <speed>0.0316227766016838</speed>
  <fix>3d</fix>
</trkpt>
<trkpt lat="40.0713877" lon="-105.2298092">
  <ele>1580.0</ele>
  <time>2026-08-28T17:56:57Z</time>
  <course>0.0</course>
  <speed>0.0</speed>
  <fix>3d</fix>
</trkpt>
<trkpt lat="40.0713877" lon="-105.2298092">
  <ele>1580.0</ele>
  <time>2026-08-28T17:56:57Z</time>
  <course>247.66</course>
  <speed>0.0316227766016838</speed>
  <fix>3d</fix>
</trkpt>
<trkpt lat="40.0713877" lon="-105.2298092">
  <ele>1580.0</ele>
  <time>2026-08-28T17:56:57Z</time>
  <course>0.0</course>
  <speed>0.0</speed>
  <fix>3d</fix>
</trkpt>
<trkpt lat="40.0713877" lon="-105.2298092">
  <ele>1580.0</ele>
  <time>2026-08-28T17:56:57Z</time>
  <course>247.65</course>
  <speed>0.0316227766016838</speed>
  <fix>3d</fix>
</trkpt>
<trkpt lat="40.0713877" lon="-105.2298092">
  <ele>1580.0</ele>
  <time>2026-08-28T17:56:57Z</time>
  <course>0.0</course>
  <speed>0.0</speed>
  <fix>3d</fix>
</trkpt>
<trkpt lat="40.0713877" lon="-105.2298092">
  <ele>1580.0</ele>
  <time>2026-08-28T17:56:57Z</time>
  <course>247.65</course>
  <speed>0.0316227766016838</speed>
  <fix>3d</fix>
</trkpt>
<trkpt lat="40.0713877" lon="-105.2298092">
  <ele>1580.0</ele>
  <time>2026-08-28T17:56:57Z</time>
  <course>0.0</course>
  <speed>0.0</speed>
  <fix>3d</fix>
</trkpt>
<trkpt lat="40.0713877" lon="-105.2298092">
  <ele>1580.0</ele>
  <time>2026-08-28T17:56:57Z</time>
  <course>247.65</course>
  <speed>0.0316227766016838</speed>
  <fix>3d</fix>
</trkpt>
<trkpt lat="40.0713877" lon="-105.2298092">
  <ele>1580.0</ele>
  <time>2026-08-28T17:56:57Z</time>
  <course>0.0</course>
  <speed>0.0</speed>
  <fix>3d</fix>
</trkpt>
<trkpt lat="40.0713877" lon="-105.2298092">
  <ele>1580.0</ele>
  <time>2026-08-28T17:56:57Z</time>
  <course>247.64</course>
  <speed>0.0316227766016838</speed>
  <fix>3d</fix>
</trkpt>
<trkpt lat="40.0713877" lon="-105.2298092">
  <ele>1580.0</ele>
  <time>2026-08-28T17:56:57Z</time>
  <course>0.0</course>
  <speed>0.0</speed>
  <fix>3d</fix>
</trkpt>
<trkpt lat="40.0713877" lon="-105.2298092">
  <ele>1580.0</ele>
  <time>2026-08-28T17:56:57Z</time>
  <course>247.64</course>
  <speed>0.0316227766016838</speed>
  <fix>3d</fix>
</trkpt>
<trkpt lat="40.0713877" lon="-105.2298092">
  <ele>1580.0</ele>
  <time>2026-08-28T17:56:57Z</time>
  <course>0.0</course>
  <speed>0.0</speed>
  <fix>3d</fix>
</trkpt>
<trkpt lat="40.0713877" lon="-105.2298092">
  <ele>1580.0</ele>
  <time>2026-08-28T17:56:57Z</time>
  <course>247.64</course>
  <speed>0.0316227766016838</speed>
  <fix>3d</fix>
</trkpt>
<trkpt lat="40.0713877" lon="-105.2298092">
  <ele>1580.0</ele>
  <time>2026-08-28T17:56:57Z</time>
  <course>0.0</course>
  <speed>0.0</speed>
  <fix>3d</fix>
</trkpt>
<trkpt lat="40.0713877" lon="-105.2298092">
  <ele>1580.0</ele>
  <time>2026-08-28T17:56:57Z</time>
  <course>247.64</course>
  <speed>0.0316227766016838</speed>
  <fix>3d</fix>
</trkpt>
<trkpt lat="40.0713877" lon="-105.2298092">
  <ele>1580.0</ele>
  <time>2026-08-28T17:56:57Z</time>
  <course>0.0</course>
  <speed>0.0</speed>
  <fix>3d</fix>
</trkpt>
<trkpt lat="40.0713877" lon="-105.2298092">
  <ele>1580.0</ele>
  <time>2026-08-28T17:56:57Z</time>
  <course>247.63</course>
  <speed>0.0316227766016838</speed>
  <fix>3d</fix>
</trkpt>
<trkpt lat="40.0713877" lon="-105.2298092">
  <ele>1580.0</ele>
  <time>2026-08-28T17:56:57Z</time>
  <course>0.0</course>
  <speed>0.0</speed>
  <fix>3d</fix>
</trkpt>
<trkpt lat="40.0713877" lon="-105.2298092">
  <ele>1580.0</ele>
  <time>2026-08-28T17:56:57Z</time>
  <course>247.63</course>
  <speed>0.0316227766016838</speed>
  <fix>3d</fix>
</trkpt>
<trkpt lat="40.0713877" lon="-105.2298092">
  <ele>1580.0</ele>
  <time>2026-08-28T17:56:57Z</time>
  <course>0.0</course>
  <speed>0.0</speed>
  <fix>3d</fix>
</trkpt>
<trkpt lat="40.0713877" lon="-105.2298092">
  <ele>1580.0</ele>
  <time>2026-08-28T17:56:57Z</time>
  <course>247.63</course>
  <speed>0.0316227766016838</speed>
  <fix>3d</fix>
</trkpt>
<trkpt lat="40.0713877" lon="-105.2298092">
  <ele>1580.0</ele>
  <time>2026-08-28T17:56:57Z</time>
  <course>0.0</course>
  <speed>0.0</speed>
  <fix>3d</fix>
</trkpt>
<trkpt lat="40.0713877" lon="-105.2298092">
  <ele>1580.0</ele>
  <time>2026-08-28T17:56:57Z</time>
  <course>247.62</course>
  <speed>0.0316227766016838</speed>
  <fix>3d</fix>
</trkpt>
<trkpt lat="40.0713877" lon="-105.2298092">
  <ele>1580.0</ele>
  <time>2026-08-28T17:56:57Z</time>
  <course>0.0</course>
  <speed>0.0</speed>
  <fix>3d</fix>
</trkpt>
<trkpt lat="40.0713877" lon="-105.2298092">
  <ele>1580.0</ele>
  <time>2026-08-28T17:56:57Z</time>
  <course>247.62</course>
  <speed>0.0316227766016838</speed>
  <fix>3d</fix>
</trkpt>
<trkpt lat="40.0713877" lon="-105.2298092">
  <ele>1580.0</ele>
  <time>2026-08-28T17:56:57Z</time>
  <course>0.0</course>
  <speed>0.0</speed>
  <fix>3d</fix>
</trkpt>
<trkpt lat="40.0713877" lon="-105.2298092">
  <ele>1580.0</ele>
  <time>2026-08-28T17:56:57Z</time>
  <course>247.62</course>
  <speed>0.0316227766016838</speed>
  <fix>3d</fix>
</trkpt>
<trkpt lat="40.0713877" lon="-105.2298092">
  <ele>1580.0</ele>
  <time>2026-08-28T17:56:57Z</time>
  <course>0.0</course>
  <speed>0.0</speed>
  <fix>3d</fix>
</trkpt>
<trkpt lat="40.0713877" lon="-105.2298092">
  <ele>1580.0</ele>
  <time>2026-08-28T17:56:57Z</time>
  <course>247.61</course>
  <speed>0.0316227766016838</speed>
  <fix>3d</fix>
</trkpt>
<trkpt lat="40.0713877" lon="-105.2298092">
  <ele>1580.0</ele>
  <time>2026-08-28T17:56:57Z</time>
  <course>0.0</course>
  <speed>0.0</speed>
  <fix>3d</fix>
</trkpt>
<trkpt lat="40.0713877" lon="-105.2298092">
  <ele>1580.0</ele>
  <time>2026-08-28T17:56:57Z</time>
  <course>247.61</course>
  <speed>0.0316227766016838</speed>
  <fix>3d</fix>
</trkpt>
<trkpt lat="40.0713877" lon="-105.2298092">
  <ele>1580.0</ele>
  <time>2026-08-28T17:56:57Z</time>
  <course>0.0</course>
  <speed>0.0</speed>
  <fix>3d</fix>
</trkpt>
<trkpt lat="40.0713877" lon="-105.2298092">
  <ele>1580.0</ele>
  <time>2026-08-28T17:56:57Z</time>
  <course>247.61</course>
  <speed>0.0316227766016838</speed>
  <fix>3d</fix>
</trkpt>
<trkpt lat="40.0713877" lon="-105.2298092">
  <ele>1580.0</ele>
  <time>2026-08-28T17:56:57Z</time>
  <course>0.0</course>
  <speed>0.0</speed>
  <fix>3d</fix>
</trkpt>
<trkpt lat="40.0713877" lon="-105.2298092">
  <ele>1580.0</ele>
  <time>2026-08-28T17:56:57Z</time>
  <course>247.61</course>
  <speed>0.0316227766016838</speed>
  <fix>3d</fix>
</trkpt>
<trkpt lat="40.0713877" lon="-105.2298092">
  <ele>1580.0</ele>
  <time>2026-08-28T17:56:57Z</time>
  <course>0.0</course>
  <speed>0.0</speed>
  <fix>3d</fix>
</trkpt>
<trkpt lat="40.0713877" lon="-105.2298092">
  <ele>1580.0</ele>
  <time>2026-08-28T17:56:57Z</time>
  <course>247.6</course>
  <speed>0.0316227766016838</speed>
  <fix>3d</fix>
</trkpt>
<trkpt lat="40.0713877" lon="-105.2298092">
  <ele>1580.0</ele>
  <time>2026-08-28T17:56:57Z</time>
  <course>0.0</course>
  <speed>0.0</speed>
  <fix>3d</fix>
</trkpt>
<trkpt lat="40.0713877" lon="-105.2298092">
  <ele>1580.0</ele>
  <time>2026-08-28T17:56:57Z</time>
  <course>247.6</course>
  <speed>0.0316227766016838</speed>
  <fix>3d</fix>
</trkpt>
<trkpt lat="40.0713877" lon="-105.2298092">
  <ele>1580.0</ele>
  <time>2026-08-28T17:56:57Z</time>
  <course>0.0</course>
  <speed>0.0</speed>
  <fix>3d</fix>
</trkpt>
<trkpt lat="40.0713877" lon="-105.2298092">
  <ele>1580.0</ele>
  <time>2026-08-28T17:56:57Z</time>
  <course>247.6</course>
  <speed>0.0316227766016838</speed>
  <fix>3d</fix>
</trkpt>
<trkpt lat="40.0713877" lon="-105.2298092">
  <ele>1580.0</ele>
  <time>2026-08-28T17:56:57Z</time>
  <course>0.0</course>
  <speed>0.0</speed>
  <fix>3d</fix>
</trkpt>
<trkpt lat="40.0713877" lon="-105.2298092">
  <ele>1580.0</ele>
  <time>2026-08-28T17:56:57Z</time>
  <course>247.6</course>
  <speed>0.0316227766016838</speed>
  <fix>3d</fix>
</trkpt>
<trkpt lat="40.0713877" lon="-105.2298092">
  <ele>1580.0</ele>
  <time>2026-08-28T17:56:57Z</time>
  <course>0.0</course>
  <speed>0.0</speed>
  <fix>3d</fix>
</trkpt>
<trkpt lat="40.0713877" lon="-105.2298092">
  <ele>1580.0</ele>
  <time>2026-08-28T17:56:57Z</time>
  <course>247.59</course>
  <speed>0.0316227766016838</speed>
  <fix>3d</fix>
</trkpt>
<trkpt lat="40.0713877" lon="-105.2298092">
  <ele>1580.0</ele>
  <time>2026-08-28T17:56:57Z</time>
  <course>0.0</course>
  <speed>0.0</speed>
  <fix>3d</fix>
</trkpt>
<trkpt lat="40.0713877" lon="-105.2298092">
  <ele>1579.92</ele>
  <time>2026-08-28T17:56:57Z</time>
  <course>247.59</course>
  <speed>0.0</speed>
  <fix>3d</fix>
</trkpt>
<trkpt lat="40.0713877" lon="-105.2298092">
  <ele>1580.0</ele>
  <time>2026-08-28T17:56:57Z</time>
  <course>0.0</course>
  <speed>0.0</speed>
  <fix>3d</fix>
</trkpt>
<trkpt lat="40.0713877" lon="-105.2298092">
  <ele>1579.92</ele>
  <time>2026-08-28T17:56:57Z</time>
  <course>247.59</course>
  <speed>0.0</speed>
  <fix>3d</fix>
</trkpt>
<trkpt lat="40.0713877" lon="-105.2298092">
  <ele>1580.0</ele>
  <time>2026-08-28T17:56:57Z</time>
  <course>0.0</course>
  <speed>0.0</speed>
  <fix>3d</fix>
</trkpt>
<trkpt lat="40.0713877" lon="-105.2298092">
  <ele>1579.92</ele>
  <time>2026-08-28T17:56:57Z</time>
  <course>247.58</course>
  <speed>0.0</speed>
  <fix>3d</fix>
</trkpt>
<trkpt lat="40.0713877" lon="-105.2298092">
  <ele>1580.0</ele>
  <time>2026-08-28T17:56:57Z</time>
  <course>0.0</course>
  <speed>0.0</speed>
  <fix>3d</fix>
</trkpt>
<trkpt lat="40.0713877" lon="-105.2298092">
  <ele>1579.91</ele>
  <time>2026-08-28T17:56:57Z</time>
  <course>247.58</course>
  <speed>0.0</speed>
  <fix>3d</fix>
</trkpt>
<trkpt lat="40.0713877" lon="-105.2298092">
  <ele>1580.0</ele>
  <time>2026-08-28T17:56:57Z</time>
  <course>0.0</course>
  <speed>0.0</speed>
  <fix>3d</fix>
</trkpt>
<trkpt lat="40.0713877" lon="-105.2298092">
  <ele>1579.9</ele>
  <time>2026-08-28T17:56:57Z</time>
  <course>247.58</course>
  <speed>0.0</speed>
  <fix>3d</fix>
</trkpt>
<trkpt lat="40.0713877" lon="-105.2298092">
  <ele>1580.0</ele>
  <time>2026-08-28T17:56:57Z</time>
  <course>0.0</course>
  <speed>0.0</speed>
  <fix>3d</fix>
</trkpt>
<trkpt lat="40.0713877" lon="-105.2298092">
  <ele>1579.9</ele>
  <time>2026-08-28T17:56:57Z</time>
  <course>247.58</course>
  <speed>0.0</speed>
  <fix>3d</fix>
</trkpt>
<trkpt lat="40.0713877" lon="-105.2298092">
  <ele>1580.0</ele>
  <time>2026-08-28T17:56:57Z</time>
  <course>0.0</course>
  <speed>0.0</speed>
  <fix>3d</fix>
</trkpt>
<trkpt lat="40.0713877" lon="-105.2298092">
  <ele>1579.9</ele>
  <time>2026-08-28T17:56:57Z</time>
  <course>247.57</course>
  <speed>0.0</speed>
  <fix>3d</fix>
</trkpt>
<trkpt lat="40.0713877" lon="-105.2298092">
  <ele>1580.0</ele>
  <time>2026-08-28T17:56:57Z</time>
  <course>0.0</course>
  <speed>0.0</speed>
  <fix>3d</fix>
</trkpt>
<trkpt lat="40.0713877" lon="-105.2298092">
  <ele>1579.9</ele>
  <time>2026-08-28T17:56:57Z</time>
  <course>247.57</course>
  <speed>0.0</speed>
  <fix>3d</fix>
</trkpt>
<trkpt lat="40.0713877" lon="-105.2298092">
  <ele>1580.0</ele>
  <time>2026-08-28T17:56:57Z</time>
  <course>0.0</course>
  <speed>0.0</speed>
  <fix>3d</fix>
</trkpt>
<trkpt lat="40.0713877" lon="-105.2298092">
  <ele>1579.9</ele>
  <time>2026-08-28T17:56:57Z</time>
  <course>247.57</course>
  <speed>0.0</speed>
  <fix>3d</fix>
</trkpt>
<trkpt lat="40.0713877" lon="-105.2298092">
  <ele>1580.0</ele>
  <time>2026-08-28T17:56:57Z</time>
  <course>0.0</course>
  <speed>0.0</speed>
  <fix>3d</fix>
</trkpt>
<trkpt lat="40.0713877" lon="-105.2298092">
  <ele>1579.91</ele>
  <time>2026-08-28T17:56:57Z</time>
  <course>247.57</course>
  <speed>0.01</speed>
  <fix>3d</fix>
</trkpt>
<trkpt lat="40.0713877" lon="-105.2298092">
  <ele>1580.0</ele>
  <time>2026-08-28T17:56:57Z</time>
  <course>0.0</course>
  <speed>0.0</speed>
  <fix>3d</fix>
</trkpt>
<trkpt lat="40.0713877" lon="-105.2298092">
  <ele>1579.91</ele>
  <time>2026-08-28T17:56:57Z</time>
  <course>247.56</course>
  <speed>0.01</speed>
  <fix>3d</fix>
</trkpt>
<trkpt lat="40.0713877" lon="-105.2298092">
  <ele>1580.0</ele>
  <time>2026-08-28T17:56:57Z</time>
  <course>0.0</course>
  <speed>0.0</speed>
  <fix>3d</fix>
</trkpt>
<trkpt lat="40.0713877" lon="-105.2298092">
  <ele>1579.91</ele>
  <time>2026-08-28T17:56:57Z</time>
  <course>247.56</course>
  <speed>0.01</speed>
  <fix>3d</fix>
</trkpt>
<trkpt lat="40.0713877" lon="-105.2298092">
  <ele>1580.0</ele>
  <time>2026-08-28T17:56:57Z</time>
  <course>0.0</course>
  <speed>0.0</speed>
  <fix>3d</fix>
</trkpt>
<trkpt lat="40.0713877" lon="-105.2298092">
  <ele>1579.91</ele>
  <time>2026-08-28T17:56:57Z</time>
  <course>247.56</course>
  <speed>0.01</speed>
  <fix>3d</fix>
</trkpt>
<trkpt lat="40.0713877" lon="-105.2298092">
  <ele>1580.0</ele>
  <time>2026-08-28T17:56:57Z</time>
  <course>0.0</course>
  <speed>0.0</speed>
  <fix>3d</fix>
</trkpt>
<trkpt lat="40.0713877" lon="-105.2298091">
  <ele>1579.92</ele>
  <time>2026-08-28T17:56:57Z</time>
  <course>247.56</course>
  <speed>0.01414213562373095</speed>
  <fix>3d</fix>
</trkpt>
<trkpt lat="40.0713813" lon="-105.2297991">
  <ele>1581.5</ele>
  <time>2026-08-28T17:56:57Z</time>
  <course>0.0</course>
  <speed>0.0</speed>
  <fix>3d</fix>
</trkpt>
<trkpt lat="40.0713873" lon="-105.2298085">
  <ele>1579.92</ele>
  <time>2026-08-28T17:56:57Z</time>
  <course>247.55</course>
  <speed>0.03</speed>
  <fix>3d</fix>
</trkpt>
<trkpt lat="40.0713813" lon="-105.2297991">
  <ele>1581.5</ele>
  <time>2026-08-28T17:56:57Z</time>
  <course>0.0</course>
  <speed>0.0</speed>
  <fix>3d</fix>
</trkpt>
<trkpt lat="40.071387" lon="-105.229808">
  <ele>1579.92</ele>
  <time>2026-08-28T17:56:57Z</time>
  <course>247.55</course>
  <speed>0.0412310562561766</speed>
  <fix>3d</fix>
</trkpt>
<trkpt lat="40.0713749" lon="-105.229789">
  <ele>1583.0</ele>
  <time>2026-08-28T17:56:57Z</time>
  <course>0.0</course>
  <speed>0.0</speed>
  <fix>3d</fix>
</trkpt>
<trkpt lat="40.0713861" lon="-105.2298065">
  <ele>1579.93</ele>
  <time>2026-08-28T17:56:57Z</time>
  <course>247.55</course>
  <speed>0.10295630140987001</speed>
  <fix>3d</fix>
</trkpt>
<trkpt lat="40.0713749" lon="-105.229789">
  <ele>1583.0</ele>
  <time>2026-08-28T17:56:57Z</time>
  <course>0.0</course>
  <speed>0.0</speed>
  <fix>3d</fix>
</trkpt>
<trkpt lat="40.0713854" lon="-105.2298054">
  <ele>1579.93</ele>
  <time>2026-08-28T17:56:57Z</time>
  <course>247.55</course>
  <speed>0.15264337522473748</speed>
  <fix>3d</fix>
</trkpt>
<trkpt lat="40.0713749" lon="-105.229789">
  <ele>1583.0</ele>
  <time>2026-08-28T17:56:57Z</time>
  <course>0.0</course>
  <speed>0.0</speed>
  <fix>3d</fix>
</trkpt>
<trkpt lat="40.0713843" lon="-105.2298037">
  <ele>1579.93</ele>
  <time>2026-08-28T17:56:57Z</time>
  <course>247.55</course>
  <speed>0.21633307652783937</speed>
  <fix>3d</fix>
</trkpt>
<trkpt lat="40.0713749" lon="-105.229789">
  <ele>1583.0</ele>
  <time>2026-08-28T17:56:57Z</time>
  <course>0.0</course>
  <speed>0.0</speed>
  <fix>3d</fix>
</trkpt>
<trkpt lat="40.0713834" lon="-105.2298022">
  <ele>1579.93</ele>
  <time>2026-08-28T17:56:57Z</time>
  <course>247.55</course>
  <speed>0.25238858928247926</speed>
  <fix>3d</fix>
</trkpt>
<trkpt lat="40.0713749" lon="-105.229789">
  <ele>1583.0</ele>
  <time>2026-08-28T17:56:57Z</time>
  <course>0.0</course>
  <speed>0.0</speed>
  <fix>3d</fix>
</trkpt>
<trkpt lat="40.0713824" lon="-105.2298007">
  <ele>1579.93</ele>
  <time>2026-08-28T17:56:57Z</time>
  <course>247.55</course>
  <speed>0.3080584360149873</speed>
  <fix>3d</fix>
</trkpt>
<trkpt lat="40.0713749" lon="-105.229789">
  <ele>1583.0</ele>
  <time>2026-08-28T17:56:57Z</time>
  <course>0.0</course>
  <speed>0.0</speed>
  <fix>3d</fix>
</trkpt>
<trkpt lat="40.0713817" lon="-105.2297996">
  <ele>1579.93</ele>
  <time>2026-08-28T17:56:57Z</time>
  <course>247.55</course>
  <speed>0.34409301068170506</speed>
  <fix>3d</fix>
</trkpt>
<trkpt lat="40.0713749" lon="-105.229789">
  <ele>1583.0</ele>
  <time>2026-08-28T17:56:57Z</time>
  <course>0.0</course>
  <speed>0.0</speed>
  <fix>3d</fix>
</trkpt>
<trkpt lat="40.0713808" lon="-105.2297981">
  <ele>1579.94</ele>
  <time>2026-08-28T17:56:57Z</time>
  <course>247.54</course>
  <speed>0.38013155617496425</speed>
  <fix>3d</fix>
</trkpt>
<trkpt lat="40.0713749" lon="-105.229789">
  <ele>1583.0</ele>
  <time>2026-08-28T17:56:57Z</time>
  <course>0.0</course>
  <speed>0.0</speed>
  <fix>3d</fix>
</trkpt>
<trkpt lat="40.07138" lon="-105.2297969">
  <ele>1579.94</ele>
  <time>2026-08-28T17:56:57Z</time>
  <course>247.54</course>
  <speed>0.4080441152620633</speed>
  <fix>3d</fix>
</trkpt>
<trkpt lat="40.0713749" lon="-105.229789">
  <ele>1583.0</ele>
  <time>2026-08-28T17:56:57Z</time>
  <course>0.0</course>
  <speed>0.0</speed>
  <fix>3d</fix>
</trkpt>
<trkpt lat="40.0713792" lon="-105.2297956">
  <ele>1579.95</ele>
  <time>2026-08-28T17:56:57Z</time>
  <course>247.54</course>
  <speed>0.43600458713183277</speed>
  <fix>3d</fix>
</trkpt>
<trkpt lat="40.0713749" lon="-105.229789">
  <ele>1583.0</ele>
  <time>2026-08-28T17:56:57Z</time>
  <course>0.0</course>
  <speed>0.0</speed>
  <fix>3d</fix>
</trkpt>
<trkpt lat="39.655741" lon="-104.1383097">
  <ele>1566.58</ele>
  <time>2026-08-28T17:56:57Z</time>
  <course>0.0</course>
  <speed>0.0</speed>
  <fix>3d</fix>
</trkpt>
<trkpt lat="40.0713749" lon="-105.229789">
  <ele>1583.0</ele>
  <time>2026-08-28T17:56:57Z</time>
  <course>0.0</course>
  <speed>0.0</speed>
  <fix>3d</fix>
</trkpt>
<trkpt lat="40.0713749" lon="-105.229789">
  <ele>1583.0</ele>
  <time>2026-08-28T17:56:57Z</time>
  <course>238.36</course>
  <speed>0.0</speed>
  <fix>3d</fix>
</trkpt>
<trkpt lat="40.0713749" lon="-105.229789">
  <ele>1583.0</ele>
  <time>2026-08-28T17:56:57Z</time>
  <course>0.0</course>
  <speed>0.0</speed>
  <fix>3d</fix>
</trkpt>
<trkpt lat="40.0713749" lon="-105.229789">
  <ele>1583.0</ele>
  <time>2026-08-28T17:56:57Z</time>
  <course>238.44</course>
  <speed>0.0</speed>
  <fix>3d</fix>
</trkpt>
<trkpt lat="40.0713749" lon="-105.229789">
  <ele>1583.0</ele>
  <time>2026-08-28T17:56:57Z</time>
  <course>0.0</course>
  <speed>0.0</speed>
  <fix>3d</fix>
</trkpt>
<trkpt lat="40.0713749" lon="-105.229789">
  <ele>1583.0</ele>
  <time>2026-08-28T17:56:57Z</time>
  <course>238.64</course>
  <speed>0.0</speed>
  <fix>3d</fix>
</trkpt>
<trkpt lat="40.0713749" lon="-105.229789">
  <ele>1583.0</ele>
  <time>2026-08-28T17:56:57Z</time>
  <course>0.0</course>
  <speed>0.0</speed>
  <fix>3d</fix>
</trkpt>
<trkpt lat="40.0713749" lon="-105.229789">
  <ele>1583.0</ele>
  <time>2026-08-28T17:56:57Z</time>
  <course>238.93</course>
  <speed>0.0</speed>
  <fix>3d</fix>
</trkpt>
<trkpt lat="40.0713749" lon="-105.229789">
  <ele>1583.0</ele>
  <time>2026-08-28T17:56:57Z</time>
  <course>0.0</course>
  <speed>0.0</speed>
  <fix>3d</fix>
</trkpt>
<trkpt lat="40.0713749" lon="-105.229789">
  <ele>1583.0</ele>
  <time>2026-08-28T17:56:57Z</time>
  <course>239.26</course>
  <speed>0.0</speed>
  <fix>3d</fix>
</trkpt>
<trkpt lat="40.0713749" lon="-105.229789">
  <ele>1583.0</ele>
  <time>2026-08-28T17:56:57Z</time>
  <course>0.0</course>
  <speed>0.0</speed>
  <fix>3d</fix>
</trkpt>
<trkpt lat="40.0713749" lon="-105.229789">
  <ele>1583.0</ele>
  <time>2026-08-28T17:56:57Z</time>
  <course>239.61</course>
  <speed>0.0</speed>
  <fix>3d</fix>
</trkpt>
<trkpt lat="40.0713749" lon="-105.229789">
  <ele>1583.0</ele>
  <time>2026-08-28T17:56:57Z</time>
  <course>0.0</course>
  <speed>0.0</speed>
  <fix>3d</fix>
</trkpt>
<trkpt lat="40.0713749" lon="-105.229789">
  <ele>1583.0</ele>
  <time>2026-08-28T17:56:57Z</time>
  <course>239.96</course>
  <speed>0.0</speed>
  <fix>3d</fix>
</trkpt>
<trkpt lat="40.0713749" lon="-105.229789">
  <ele>1583.0</ele>
  <time>2026-08-28T17:56:57Z</time>
  <course>0.0</course>
  <speed>0.0</speed>
  <fix>3d</fix>
</trkpt>
<trkpt lat="40.0713749" lon="-105.229789">
  <ele>1583.0</ele>
  <time>2026-08-28T17:56:57Z</time>
  <course>240.29</course>
  <speed>0.0</speed>
  <fix>3d</fix>
</trkpt>
<trkpt lat="40.0713749" lon="-105.229789">
  <ele>1583.0</ele>
  <time>2026-08-28T17:56:57Z</time>
  <course>0.0</course>
  <speed>0.0</speed>
  <fix>3d</fix>
</trkpt>
<trkpt lat="40.0713749" lon="-105.229789">
  <ele>1583.0</ele>
  <time>2026-08-28T17:56:57Z</time>
  <course>240.61</course>
  <speed>0.0</speed>
  <fix>3d</fix>
</trkpt>
<trkpt lat="40.0713749" lon="-105.229789">
  <ele>1583.0</ele>
  <time>2026-08-28T17:56:57Z</time>
  <course>0.0</course>
  <speed>0.0</speed>
  <fix>3d</fix>
</trkpt>
<trkpt lat="40.0713749" lon="-105.229789">
  <ele>1583.0</ele>
  <time>2026-08-28T17:56:57Z</time>
  <course>240.92</course>
  <speed>0.0</speed>
  <fix>3d</fix>
</trkpt>
<trkpt lat="40.0713749" lon="-105.229789">
  <ele>1583.0</ele>
  <time>2026-08-28T17:56:57Z</time>
  <course>0.0</course>
  <speed>0.0</speed>
  <fix>3d</fix>
</trkpt>
<trkpt lat="40.0713749" lon="-105.229789">
  <ele>1583.0</ele>
  <time>2026-08-28T17:56:57Z</time>
  <course>241.21</course>
  <speed>0.0</speed>
  <fix>3d</fix>
</trkpt>
<trkpt lat="40.0713749" lon="-105.229789">
  <ele>1583.0</ele>
  <time>2026-08-28T17:56:57Z</time>
  <course>0.0</course>
  <speed>0.0</speed>
  <fix>3d</fix>
</trkpt>
<trkpt lat="40.0713749" lon="-105.229789">
  <ele>1583.0</ele>
  <time>2026-08-28T17:56:57Z</time>
  <course>241.49</course>
  <speed>0.0</speed>
  <fix>3d</fix>
</trkpt>
<trkpt lat="40.0713749" lon="-105.229789">
  <ele>1583.0</ele>
  <time>2026-08-28T17:56:57Z</time>
  <course>0.0</course>
  <speed>0.0</speed>
  <fix>3d</fix>
</trkpt>
<trkpt lat="40.0713749" lon="-105.229789">
  <ele>1583.0</ele>
  <time>2026-08-28T17:56:57Z</time>
  <course>241.77</course>
  <speed>0.0</speed>
  <fix>3d</fix>
</trkpt>
<trkpt lat="40.0713749" lon="-105.229789">
  <ele>1583.0</ele>
  <time>2026-08-28T17:56:57Z</time>
  <course>0.0</course>
  <speed>0.0</speed>
  <fix>3d</fix>
</trkpt>
<trkpt lat="40.0713749" lon="-105.229789">
  <ele>1583.0</ele>
  <time>2026-08-28T17:56:57Z</time>
  <course>242.03</course>
  <speed>0.0</speed>
  <fix>3d</fix>
</trkpt>
<trkpt lat="40.0713749" lon="-105.229789">
  <ele>1583.0</ele>
  <time>2026-08-28T17:56:57Z</time>
  <course>0.0</course>
  <speed>0.0</speed>
  <fix>3d</fix>
</trkpt>
<trkpt lat="40.0713749" lon="-105.229789">
  <ele>1583.0</ele>
  <time>2026-08-28T17:56:57Z</time>
  <course>242.29</course>
  <speed>0.0</speed>
  <fix>3d</fix>
</trkpt>
<trkpt lat="40.0713749" lon="-105.229789">
  <ele>1583.0</ele>
  <time>2026-08-28T17:56:57Z</time>
  <course>0.0</course>
  <speed>0.0</speed>
  <fix>3d</fix>
</trkpt>
<trkpt lat="40.0713749" lon="-105.229789">
  <ele>1583.0</ele>
  <time>2026-08-28T17:56:57Z</time>
  <course>242.54</course>
  <speed>0.0</speed>
  <fix>3d</fix>
</trkpt>
<trkpt lat="40.0713749" lon="-105.229789">
  <ele>1583.0</ele>
  <time>2026-08-28T17:56:57Z</time>
  <course>0.0</course>
  <speed>0.0</speed>
  <fix>3d</fix>
</trkpt>
<trkpt lat="40.0713749" lon="-105.229789">
  <ele>1583.0</ele>
  <time>2026-08-28T17:56:57Z</time>
  <course>242.79</course>
  <speed>0.0</speed>
  <fix>3d</fix>
</trkpt>
<trkpt lat="40.0713749" lon="-105.229789">
  <ele>1583.0</ele>
  <time>2026-08-28T17:56:57Z</time>
  <course>0.0</course>
  <speed>0.0</speed>
  <fix>3d</fix>
</trkpt>
<trkpt lat="40.0713749" lon="-105.229789">
  <ele>1583.0</ele>
  <time>2026-08-28T17:56:57Z</time>
  <course>243.02</course>
  <speed>0.0</speed>
  <fix>3d</fix>
</trkpt>
<trkpt lat="40.0713749" lon="-105.229789">
  <ele>1583.0</ele>
  <time>2026-08-28T17:56:57Z</time>
  <course>0.0</course>
  <speed>0.0</speed>
  <fix>3d</fix>
</trkpt>
<trkpt lat="40.0713749" lon="-105.229789">
  <ele>1583.0</ele>
  <time>2026-08-28T17:56:57Z</time>
  <course>243.25</course>
  <speed>0.0</speed>
  <fix>3d</fix>
</trkpt>
<trkpt lat="40.0713749" lon="-105.229789">
  <ele>1583.0</ele>
  <time>2026-08-28T17:56:57Z</time>
  <course>0.0</course>
  <speed>0.0</speed>
  <fix>3d</fix>
</trkpt>
<trkpt lat="40.0713749" lon="-105.229789">
  <ele>1583.0</ele>
  <time>2026-08-28T17:56:57Z</time>
  <course>243.47</course>
  <speed>0.0</speed>
  <fix>3d</fix>
</trkpt>
<trkpt lat="40.0713749" lon="-105.229789">
  <ele>1583.0</ele>
  <time>2026-08-28T17:56:57Z</time>
  <course>0.0</course>
  <speed>0.0</speed>
  <fix>3d</fix>
</trkpt>
<trkpt lat="40.0713749" lon="-105.229789">
  <ele>1583.0</ele>
  <time>2026-08-28T17:56:57Z</time>
  <course>243.68</course>
  <speed>0.0</speed>
  <fix>3d</fix>
</trkpt>
<trkpt lat="40.0713749" lon="-105.229789">
  <ele>1583.0</ele>
  <time>2026-08-28T17:56:57Z</time>
  <course>0.0</course>
  <speed>0.0</speed>
  <fix>3d</fix>
</trkpt>
<trkpt lat="40.0713749" lon="-105.229789">
  <ele>1583.0</ele>
  <time>2026-08-28T17:56:57Z</time>
  <course>243.89</course>
  <speed>0.0</speed>
  <fix>3d</fix>
</trkpt>
<trkpt lat="40.0713749" lon="-105.229789">
  <ele>1583.0</ele>
  <time>2026-08-28T17:56:57Z</time>
  <course>0.0</course>
  <speed>0.0</speed>
  <fix>3d</fix>
</trkpt>
<trkpt lat="40.0713749" lon="-105.229789">
  <ele>1583.0</ele>
  <time>2026-08-28T17:56:57Z</time>
  <course>244.09</course>
  <speed>0.0</speed>
  <fix>3d</fix>
</trkpt>
<trkpt lat="40.0713749" lon="-105.229789">
  <ele>1583.0</ele>
  <time>2026-08-28T17:56:57Z</time>
  <course>0.0</course>
  <speed>0.0</speed>
  <fix>3d</fix>
</trkpt>
<trkpt lat="40.0713749" lon="-105.229789">
  <ele>1583.0</ele>
  <time>2026-08-28T17:56:57Z</time>
  <course>244.28</course>
  <speed>0.0</speed>
  <fix>3d</fix>
</trkpt>
<trkpt lat="40.0713749" lon="-105.229789">
  <ele>1583.0</ele>
  <time>2026-08-28T17:56:57Z</time>
  <course>0.0</course>
  <speed>0.0</speed>
  <fix>3d</fix>
</trkpt>
<trkpt lat="40.0713749" lon="-105.229789">
  <ele>1583.0</ele>
  <time>2026-08-28T17:56:57Z</time>
  <course>244.46</course>
  <speed>0.0</speed>
  <fix>3d</fix>
</trkpt>
<trkpt lat="40.0713749" lon="-105.229789">
  <ele>1583.0</ele>
  <time>2026-08-28T17:56:57Z</time>
  <course>0.0</course>
  <speed>0.0</speed>
  <fix>3d</fix>
</trkpt>
<trkpt lat="40.0713749" lon="-105.229789">
  <ele>1583.0</ele>
  <time>2026-08-28T17:56:57Z</time>
  <course>244.64</course>
  <speed>0.0</speed>
  <fix>3d</fix>
</trkpt>
<trkpt lat="40.0713749" lon="-105.229789">
  <ele>1583.0</ele>
  <time>2026-08-28T17:56:57Z</time>
  <course>0.0</course>
  <speed>0.0</speed>
  <fix>3d</fix>
</trkpt>
<trkpt lat="40.0713749" lon="-105.229789">
  <ele>1583.0</ele>
  <time>2026-08-28T17:56:57Z</time>
  <course>244.81</course>
  <speed>0.0</speed>
  <fix>3d</fix>
</trkpt>
<trkpt lat="40.0713749" lon="-105.229789">
  <ele>1583.0</ele>
  <time>2026-08-28T17:56:57Z</time>
  <course>0.0</course>
  <speed>0.0</speed>
  <fix>3d</fix>
</trkpt>
<trkpt lat="40.0713749" lon="-105.229789">
  <ele>1583.0</ele>
  <time>2026-08-28T17:56:57Z</time>
  <course>244.97</course>
  <speed>0.0</speed>
  <fix>3d</fix>
</trkpt>
<trkpt lat="40.0713749" lon="-105.229789">
  <ele>1583.0</ele>
  <time>2026-08-28T17:56:57Z</time>
  <course>0.0</course>
  <speed>0.0</speed>
  <fix>3d</fix>
</trkpt>
<trkpt lat="40.0713749" lon="-105.229789">
  <ele>1583.0</ele>
  <time>2026-08-28T17:56:57Z</time>
  <course>245.13</course>
  <speed>0.0</speed>
  <fix>3d</fix>
</trkpt>
<trkpt lat="40.0713749" lon="-105.229789">
  <ele>1583.0</ele>
  <time>2026-08-28T17:56:57Z</time>
  <course>0.0</course>
  <speed>0.0</speed>
  <fix>3d</fix>
</trkpt>
<trkpt lat="40.0713749" lon="-105.229789">
  <ele>1583.0</ele>
  <time>2026-08-28T17:56:57Z</time>
  <course>245.29</course>
  <speed>0.0</speed>
  <fix>3d</fix>
</trkpt>
<trkpt lat="40.0713749" lon="-105.229789">
  <ele>1583.0</ele>
  <time>2026-08-28T17:56:57Z</time>
  <course>0.0</course>
  <speed>0.0</speed>
  <fix>3d</fix>
</trkpt>
<trkpt lat="40.0713749" lon="-105.229789">
  <ele>1583.0</ele>
  <time>2026-08-28T17:56:57Z</time>
  <course>245.43</course>
  <speed>0.0</speed>
  <fix>3d</fix>
</trkpt>
<trkpt lat="40.0713749" lon="-105.229789">
  <ele>1583.0</ele>
  <time>2026-08-28T17:56:57Z</time>
  <course>0.0</course>
  <speed>0.0</speed>
  <fix>3d</fix>
</trkpt>
<trkpt lat="40.0713749" lon="-105.229789">
  <ele>1583.0</ele>
  <time>2026-08-28T17:56:57Z</time>
  <course>245.57</course>
  <speed>0.0</speed>
  <fix>3d</fix>
</trkpt>
<trkpt lat="40.0713749" lon="-105.229789">
  <ele>1583.0</ele>
  <time>2026-08-28T17:56:57Z</time>
  <course>0.0</course>
  <speed>0.0</speed>
  <fix>3d</fix>
</trkpt>
<trkpt lat="40.0713749" lon="-105.229789">
  <ele>1583.0</ele>
  <time>2026-08-28T17:56:57Z</time>
  <course>245.71</course>
  <speed>0.0</speed>
  <fix>3d</fix>
</trkpt>
<trkpt lat="40.0713749" lon="-105.229789">
  <ele>1583.0</ele>
  <time>2026-08-28T17:56:57Z</time>
  <course>0.0</course>
  <speed>0.0</speed>
  <fix>3d</fix>
</trkpt>
<trkpt lat="40.0713749" lon="-105.229789">
  <ele>1583.0</ele>
  <time>2026-08-28T17:56:57Z</time>
  <course>245.84</course>
  <speed>0.0</speed>
  <fix>3d</fix>
</trkpt>
<trkpt lat="40.0713749" lon="-105.229789">
  <ele>1583.0</ele>
  <time>2026-08-28T17:56:57Z</time>
  <course>0.0</course>
  <speed>0.0</speed>
  <fix>3d</fix>
</trkpt>
<trkpt lat="40.0713749" lon="-105.229789">
  <ele>1583.0</ele>
  <time>2026-08-28T17:56:57Z</time>
  <course>245.96</course>
  <speed>0.0</speed>
  <fix>3d</fix>
</trkpt>
<trkpt lat="40.0713749" lon="-105.229789">
  <ele>1583.0</ele>
  <time>2026-08-28T17:56:57Z</time>
  <course>0.0</course>
  <speed>0.0</speed>
  <fix>3d</fix>
</trkpt>
<trkpt lat="40.0713749" lon="-105.229789">
  <ele>1583.0</ele>
  <time>2026-08-28T17:56:57Z</time>
  <course>246.08</course>
  <speed>0.0</speed>
  <fix>3d</fix>
</trkpt>
<trkpt lat="40.0713749" lon="-105.229789">
  <ele>1583.0</ele>
  <time>2026-08-28T17:56:57Z</time>
  <course>0.0</course>
  <speed>0.0</speed>
  <fix>3d</fix>
</trkpt>
<trkpt lat="40.0713749" lon="-105.229789">
  <ele>1583.0</ele>
  <time>2026-08-28T17:56:57Z</time>
  <course>246.19</course>
  <speed>0.0</speed>
  <fix>3d</fix>
</trkpt>
<trkpt lat="40.0713749" lon="-105.229789">
  <ele>1583.0</ele>
  <time>2026-08-28T17:56:57Z</time>
  <course>0.0</course>
  <speed>0.0</speed>
  <fix>3d</fix>
</trkpt>
<trkpt lat="40.0713749" lon="-105.229789">
  <ele>1583.0</ele>
  <time>2026-08-28T17:56:57Z</time>
  <course>246.3</course>
  <speed>0.0</speed>
  <fix>3d</fix>
</trkpt>
<trkpt lat="40.0713749" lon="-105.229789">
  <ele>1583.0</ele>
  <time>2026-08-28T17:56:57Z</time>
  <course>0.0</course>
  <speed>0.0</speed>
  <fix>3d</fix>
</trkpt>
<trkpt lat="40.0713749" lon="-105.229789">
  <ele>1583.0</ele>
  <time>2026-08-28T17:56:57Z</time>
  <course>246.41</course>
  <speed>0.0</speed>
  <fix>3d</fix>
</trkpt>
<trkpt lat="40.0713749" lon="-105.229789">
  <ele>1583.0</ele>
  <time>2026-08-28T17:56:57Z</time>
  <course>0.0</course>
  <speed>0.0</speed>
  <fix>3d</fix>
</trkpt>
<trkpt lat="40.0713749" lon="-105.229789">
  <ele>1583.0</ele>
  <time>2026-08-28T17:56:57Z</time>
  <course>246.51</course>
  <speed>0.0</speed>
  <fix>3d</fix>
</trkpt>
<trkpt lat="40.0713749" lon="-105.229789">
  <ele>1583.0</ele>
  <time>2026-08-28T17:56:57Z</time>
  <course>0.0</course>
  <speed>0.0</speed>
  <fix>3d</fix>
</trkpt>
<trkpt lat="40.0713749" lon="-105.229789">
  <ele>1583.0</ele>
  <time>2026-08-28T17:56:57Z</time>
  <course>246.6</course>
  <speed>0.0</speed>
  <fix>3d</fix>
</trkpt>
<trkpt lat="40.0713749" lon="-105.229789">
  <ele>1583.0</ele>
  <time>2026-08-28T17:56:57Z</time>
  <course>0.0</course>
  <speed>0.0</speed>
  <fix>3d</fix>
</trkpt>
<trkpt lat="40.0713749" lon="-105.229789">
  <ele>1583.0</ele>
  <time>2026-08-28T17:56:57Z</time>
  <course>246.7</course>
  <speed>0.0</speed>
  <fix>3d</fix>
</trkpt>
<trkpt lat="40.0713749" lon="-105.229789">
  <ele>1583.0</ele>
  <time>2026-08-28T17:56:57Z</time>
  <course>0.0</course>
  <speed>0.0</speed>
  <fix>3d</fix>
</trkpt>
<trkpt lat="40.0713749" lon="-105.229789">
  <ele>1583.0</ele>
  <time>2026-08-28T17:56:57Z</time>
  <course>246.78</course>
  <speed>0.0</speed>
  <fix>3d</fix>
</trkpt>
<trkpt lat="40.0713749" lon="-105.229789">
  <ele>1583.0</ele>
  <time>2026-08-28T17:56:57Z</time>
  <course>0.0</course>
  <speed>0.0</speed>
  <fix>3d</fix>
</trkpt>
<trkpt lat="40.0713749" lon="-105.229789">
  <ele>1583.0</ele>
  <time>2026-08-28T17:56:57Z</time>
  <course>246.87</course>
  <speed>0.0</speed>
  <fix>3d</fix>
</trkpt>
<trkpt lat="40.0713749" lon="-105.229789">
  <ele>1583.0</ele>
  <time>2026-08-28T17:56:57Z</time>
  <course>0.0</course>
  <speed>0.0</speed>
  <fix>3d</fix>
</trkpt>
<trkpt lat="40.0713749" lon="-105.229789">
  <ele>1583.0</ele>
  <time>2026-08-28T17:56:58Z</time>
  <course>246.95</course>
  <speed>0.0</speed>
  <fix>3d</fix>
</trkpt>
<trkpt lat="40.0713749" lon="-105.229789">
  <ele>1583.0</ele>
  <time>2026-08-28T17:56:58Z</time>
  <course>0.0</course>
  <speed>0.0</speed>
  <fix>3d</fix>
</trkpt>
<trkpt lat="40.0713749" lon="-105.229789">
  <ele>1583.0</ele>
  <time>2026-08-28T17:56:58Z</time>
  <course>247.02</course>
  <speed>0.0</speed>
  <fix>3d</fix>
</trkpt>
<trkpt lat="40.0713749" lon="-105.229789">
  <ele>1583.0</ele>
  <time>2026-08-28T17:56:58Z</time>
  <course>0.0</course>
  <speed>0.0</speed>
  <fix>3d</fix>
</trkpt>
<trkpt lat="40.0713749" lon="-105.229789">
  <ele>1583.0</ele>
  <time>2026-08-28T17:56:58Z</time>
  <course>247.1</course>
  <speed>0.0</speed>
  <fix>3d</fix>
</trkpt>
<trkpt lat="40.0713749" lon="-105.229789">
  <ele>1583.0</ele>
  <time>2026-08-28T17:56:58Z</time>
  <course>0.0</course>
  <speed>0.0</speed>
  <fix>3d</fix>
</trkpt>
<trkpt lat="40.0713749" lon="-105.229789">
  <ele>1583.0</ele>
  <time>2026-08-28T17:56:58Z</time>
  <course>247.17</course>
  <speed>0.0</speed>
  <fix>3d</fix>
</trkpt>
<trkpt lat="40.0713749" lon="-105.229789">
  <ele>1583.0</ele>
  <time>2026-08-28T17:56:58Z</time>
  <course>0.0</course>
  <speed>0.0</speed>
  <fix>3d</fix>
</trkpt>
<trkpt lat="40.0713749" lon="-105.229789">
  <ele>1583.0</ele>
  <time>2026-08-28T17:56:58Z</time>
  <course>247.24</course>
  <speed>0.0</speed>
  <fix>3d</fix>
</trkpt>
<trkpt lat="40.0713749" lon="-105.229789">
  <ele>1583.0</ele>
  <time>2026-08-28T17:56:58Z</time>
  <course>0.0</course>
  <speed>0.0</speed>
  <fix>3d</fix>
</trkpt>
<trkpt lat="40.0713749" lon="-105.229789">
  <ele>1583.0</ele>
  <time>2026-08-28T17:56:58Z</time>
  <course>247.3</course>
  <speed>0.0</speed>
  <fix>3d</fix>
</trkpt>
<trkpt lat="40.0713749" lon="-105.229789">
  <ele>1583.0</ele>
  <time>2026-08-28T17:56:58Z</time>
  <course>0.0</course>
  <speed>0.0</speed>
  <fix>3d</fix>
</trkpt>
<trkpt lat="40.0713749" lon="-105.229789">
  <ele>1583.0</ele>
  <time>2026-08-28T17:56:58Z</time>
  <course>247.36</course>
  <speed>0.0</speed>
  <fix>3d</fix>
</trkpt>
<trkpt lat="40.0713749" lon="-105.229789">
  <ele>1583.0</ele>
  <time>2026-08-28T17:56:58Z</time>
  <course>0.0</course>
  <speed>0.0</speed>
  <fix>3d</fix>
</trkpt>
<trkpt lat="40.0713749" lon="-105.229789">
  <ele>1583.0</ele>
  <time>2026-08-28T17:56:58Z</time>
  <course>247.42</course>
  <speed>0.0</speed>
  <fix>3d</fix>
</trkpt>
<trkpt lat="40.0713749" lon="-105.229789">
  <ele>1583.0</ele>
  <time>2026-08-28T17:56:58Z</time>
  <course>0.0</course>
  <speed>0.0</speed>
  <fix>3d</fix>
</trkpt>
<trkpt lat="40.0713749" lon="-105.229789">
  <ele>1583.0</ele>
  <time>2026-08-28T17:56:58Z</time>
  <course>247.47</course>
  <speed>0.0</speed>
  <fix>3d</fix>
</trkpt>
<trkpt lat="40.0713749" lon="-105.229789">
  <ele>1583.0</ele>
  <time>2026-08-28T17:56:58Z</time>
  <course>0.0</course>
  <speed>0.0</speed>
  <fix>3d</fix>
</trkpt>
<trkpt lat="40.0713749" lon="-105.229789">
  <ele>1583.0</ele>
  <time>2026-08-28T17:56:58Z</time>
  <course>247.53</course>
  <speed>0.0</speed>
  <fix>3d</fix>
</trkpt>
<trkpt lat="40.0713749" lon="-105.229789">
  <ele>1583.0</ele>
  <time>2026-08-28T17:56:58Z</time>
  <course>0.0</course>
  <speed>0.0</speed>
  <fix>3d</fix>
</trkpt>
<trkpt lat="40.0713749" lon="-105.229789">
  <ele>1583.0</ele>
  <time>2026-08-28T17:56:58Z</time>
  <course>247.58</course>
  <speed>0.0</speed>
  <fix>3d</fix>
</trkpt>
<trkpt lat="40.0713749" lon="-105.229789">
  <ele>1583.0</ele>
  <time>2026-08-28T17:56:58Z</time>
  <course>0.0</course>
  <speed>0.0</speed>
  <fix>3d</fix>
</trkpt>
<trkpt lat="40.0713749" lon="-105.229789">
  <ele>1583.0</ele>
  <time>2026-08-28T17:56:58Z</time>
  <course>247.63</course>
  <speed>0.0</speed>
  <fix>3d</fix>
</trkpt>
<trkpt lat="40.0713749" lon="-105.229789">
  <ele>1583.0</ele>
  <time>2026-08-28T17:56:58Z</time>
  <course>0.0</course>
  <speed>0.0</speed>
  <fix>3d</fix>
</trkpt>
<trkpt lat="40.0713749" lon="-105.229789">
  <ele>1583.0</ele>
  <time>2026-08-28T17:56:58Z</time>
  <course>247.67</course>
  <speed>0.0</speed>
  <fix>3d</fix>
</trkpt>
<trkpt lat="40.0713749" lon="-105.229789">
  <ele>1583.0</ele>
  <time>2026-08-28T17:56:58Z</time>
  <course>0.0</course>
  <speed>0.0</speed>
  <fix>3d</fix>
</trkpt>
<trkpt lat="40.0713749" lon="-105.229789">
  <ele>1583.0</ele>
  <time>2026-08-28T17:56:58Z</time>
  <course>247.72</course>
  <speed>0.0</speed>
  <fix>3d</fix>
</trkpt>
<trkpt lat="40.0713749" lon="-105.229789">
  <ele>1583.0</ele>
  <time>2026-08-28T17:56:58Z</time>
  <course>0.0</course>
  <speed>0.0</speed>
  <fix>3d</fix>
</trkpt>
<trkpt lat="40.0713749" lon="-105.229789">
  <ele>1583.0</ele>
  <time>2026-08-28T17:56:58Z</time>
  <course>247.76</course>
  <speed>0.0</speed>
  <fix>3d</fix>
</trkpt>
<trkpt lat="40.0713749" lon="-105.229789">
  <ele>1583.0</ele>
  <time>2026-08-28T17:56:58Z</time>
  <course>0.0</course>
  <speed>0.0</speed>
  <fix>3d</fix>
</trkpt>
<trkpt lat="40.0713749" lon="-105.229789">
  <ele>1583.0</ele>
  <time>2026-08-28T17:56:58Z</time>
  <course>247.8</course>
  <speed>0.0</speed>
  <fix>3d</fix>
</trkpt>
<trkpt lat="40.0713749" lon="-105.229789">
  <ele>1583.0</ele>
  <time>2026-08-28T17:56:58Z</time>
  <course>0.0</course>
  <speed>0.0</speed>
  <fix>3d</fix>
</trkpt>
<trkpt lat="40.0713749" lon="-105.229789">
  <ele>1583.0</ele>
  <time>2026-08-28T17:56:58Z</time>
  <course>247.83</course>
  <speed>0.0</speed>
  <fix>3d</fix>
</trkpt>
<trkpt lat="40.0713749" lon="-105.229789">
  <ele>1583.0</ele>
  <time>2026-08-28T17:56:58Z</time>
  <course>0.0</course>
  <speed>0.0</speed>
  <fix>3d</fix>
</trkpt>
<trkpt lat="40.0713749" lon="-105.229789">
  <ele>1583.0</ele>
  <time>2026-08-28T17:56:58Z</time>
  <course>247.87</course>
  <speed>0.0</speed>
  <fix>3d</fix>
</trkpt>
<trkpt lat="40.0713749" lon="-105.229789">
  <ele>1583.0</ele>
  <time>2026-08-28T17:56:58Z</time>
  <course>0.0</course>
  <speed>0.0</speed>
  <fix>3d</fix>
</trkpt>
<trkpt lat="40.0713749" lon="-105.229789">
  <ele>1583.0</ele>
  <time>2026-08-28T17:56:58Z</time>
  <course>247.9</course>
  <speed>0.0</speed>
  <fix>3d</fix>
</trkpt>
<trkpt lat="40.0713749" lon="-105.229789">
  <ele>1583.0</ele>
  <time>2026-08-28T17:56:58Z</time>
  <course>0.0</course>
  <speed>0.0</speed>
  <fix>3d</fix>
</trkpt>
<trkpt lat="40.0713749" lon="-105.229789">
  <ele>1583.0</ele>
  <time>2026-08-28T17:56:58Z</time>
  <course>247.94</course>
  <speed>0.0</speed>
  <fix>3d</fix>
</trkpt>
<trkpt lat="40.0713749" lon="-105.229789">
  <ele>1583.0</ele>
  <time>2026-08-28T17:56:58Z</time>
  <course>0.0</course>
  <speed>0.0</speed>
  <fix>3d</fix>
</trkpt>
<trkpt lat="40.0713749" lon="-105.229789">
  <ele>1583.0</ele>
  <time>2026-08-28T17:56:58Z</time>
  <course>247.97</course>
  <speed>0.0</speed>
  <fix>3d</fix>
</trkpt>
<trkpt lat="40.0713749" lon="-105.229789">
  <ele>1583.0</ele>
  <time>2026-08-28T17:56:58Z</time>
  <course>0.0</course>
  <speed>0.0</speed>
  <fix>3d</fix>
</trkpt>
<trkpt lat="40.0713749" lon="-105.229789">
  <ele>1583.0</ele>
  <time>2026-08-28T17:56:58Z</time>
  <course>248.0</course>
  <speed>0.0</speed>
  <fix>3d</fix>
</trkpt>
<trkpt lat="40.0713749" lon="-105.229789">
  <ele>1583.0</ele>
  <time>2026-08-28T17:56:58Z</time>
  <course>0.0</course>
  <speed>0.0</speed>
  <fix>3d</fix>
</trkpt>
<trkpt lat="40.0713749" lon="-105.229789">
  <ele>1583.0</ele>
  <time>2026-08-28T17:56:58Z</time>
  <course>248.02</course>
  <speed>0.0</speed>
  <fix>3d</fix>
</trkpt>
<trkpt lat="40.0713749" lon="-105.229789">
  <ele>1583.0</ele>
  <time>2026-08-28T17:56:58Z</time>
  <course>0.0</course>
  <speed>0.0</speed>
  <fix>3d</fix>
</trkpt>
<trkpt lat="40.0713749" lon="-105.229789">
  <ele>1583.0</ele>
  <time>2026-08-28T17:56:58Z</time>
  <course>248.05</course>
  <speed>0.0</speed>
  <fix>3d</fix>
</trkpt>
<trkpt lat="40.0713749" lon="-105.229789">
  <ele>1583.0</ele>
  <time>2026-08-28T17:56:58Z</time>
  <course>0.0</course>
  <speed>0.0</speed>
  <fix>3d</fix>
</trkpt>
<trkpt lat="40.0713749" lon="-105.229789">
  <ele>1583.0</ele>
  <time>2026-08-28T17:56:58Z</time>
  <course>248.08</course>
  <speed>0.0</speed>
  <fix>3d</fix>
</trkpt>
<trkpt lat="40.0713749" lon="-105.229789">
  <ele>1583.0</ele>
  <time>2026-08-28T17:56:58Z</time>
  <course>0.0</course>
  <speed>0.0</speed>
  <fix>3d</fix>
</trkpt>
<trkpt lat="40.0713749" lon="-105.229789">
  <ele>1583.0</ele>
  <time>2026-08-28T17:56:58Z</time>
  <course>248.1</course>
  <speed>0.0</speed>
  <fix>3d</fix>
</trkpt>
<trkpt lat="40.0713749" lon="-105.229789">
  <ele>1583.0</ele>
  <time>2026-08-28T17:56:58Z</time>
  <course>0.0</course>
  <speed>0.0</speed>
  <fix>3d</fix>
</trkpt>
<trkpt lat="40.0713749" lon="-105.229789">
  <ele>1583.0</ele>
  <time>2026-08-28T17:56:58Z</time>
  <course>248.12</course>
  <speed>0.0</speed>
  <fix>3d</fix>
</trkpt>
<trkpt lat="40.0713749" lon="-105.229789">
  <ele>1583.0</ele>
  <time>2026-08-28T17:56:58Z</time>
  <course>0.0</course>
  <speed>0.0</speed>
  <fix>3d</fix>
</trkpt>
<trkpt lat="40.0713749" lon="-105.229789">
  <ele>1583.0</ele>
  <time>2026-08-28T17:56:58Z</time>
  <course>248.14</course>
  <speed>0.0</speed>
  <fix>3d</fix>
</trkpt>
<trkpt lat="40.0713749" lon="-105.229789">
  <ele>1583.0</ele>
  <time>2026-08-28T17:56:58Z</time>
  <course>0.0</course>
  <speed>0.0</speed>
  <fix>3d</fix>
</trkpt>
<trkpt lat="40.0713749" lon="-105.229789">
  <ele>1583.0</ele>
  <time>2026-08-28T17:56:58Z</time>
  <course>248.16</course>
  <speed>0.0</speed>
  <fix>3d</fix>
</trkpt>
<trkpt lat="40.0713749" lon="-105.229789">
  <ele>1583.0</ele>
  <time>2026-08-28T17:56:58Z</time>
  <course>0.0</course>
  <speed>0.0</speed>
  <fix>3d</fix>
</trkpt>
<trkpt lat="40.0713749" lon="-105.229789">
  <ele>1583.0</ele>
  <time>2026-08-28T17:56:58Z</time>
  <course>248.18</course>
  <speed>0.0</speed>
  <fix>3d</fix>
</trkpt>
<trkpt lat="40.0713749" lon="-105.229789">
  <ele>1583.0</ele>
  <time>2026-08-28T17:56:58Z</time>
  <course>0.0</course>
  <speed>0.0</speed>
  <fix>3d</fix>
</trkpt>
<trkpt lat="40.0713749" lon="-105.229789">
  <ele>1583.0</ele>
  <time>2026-08-28T17:56:58Z</time>
  <course>248.2</course>
  <speed>0.0</speed>
  <fix>3d</fix>
</trkpt>
<trkpt lat="40.0713749" lon="-105.229789">
  <ele>1583.0</ele>
  <time>2026-08-28T17:56:58Z</time>
  <course>0.0</course>
  <speed>0.0</speed>
  <fix>3d</fix>
</trkpt>
<trkpt lat="40.0713749" lon="-105.229789">
  <ele>1583.0</ele>
  <time>2026-08-28T17:56:58Z</time>
  <course>248.22</course>
  <speed>0.0</speed>
  <fix>3d</fix>
</trkpt>
<trkpt lat="40.0713749" lon="-105.229789">
  <ele>1583.0</ele>
  <time>2026-08-28T17:56:58Z</time>
  <course>0.0</course>
  <speed>0.0</speed>
  <fix>3d</fix>
</trkpt>
<trkpt lat="40.0713749" lon="-105.229789">
  <ele>1583.0</ele>
  <time>2026-08-28T17:56:58Z</time>
  <course>248.23</course>
  <speed>0.0</speed>
  <fix>3d</fix>
</trkpt>
<trkpt lat="40.0713749" lon="-105.229789">
  <ele>1583.0</ele>
  <time>2026-08-28T17:56:58Z</time>
  <course>0.0</course>
  <speed>0.0</speed>
  <fix>3d</fix>
</trkpt>
<trkpt lat="40.0713749" lon="-105.229789">
  <ele>1583.0</ele>
  <time>2026-08-28T17:56:58Z</time>
  <course>248.25</course>
  <speed>0.0</speed>
  <fix>3d</fix>
</trkpt>
<trkpt lat="40.0713749" lon="-105.229789">
  <ele>1583.0</ele>
  <time>2026-08-28T17:56:58Z</time>
  <course>0.0</course>
  <speed>0.0</speed>
  <fix>3d</fix>
</trkpt>
<trkpt lat="40.0713749" lon="-105.229789">
  <ele>1583.0</ele>
  <time>2026-08-28T17:56:58Z</time>
  <course>248.26</course>
  <speed>0.0</speed>
  <fix>3d</fix>
</trkpt>
<trkpt lat="40.0713749" lon="-105.229789">
  <ele>1583.0</ele>
  <time>2026-08-28T17:56:58Z</time>
  <course>0.0</course>
  <speed>0.0</speed>
  <fix>3d</fix>
</trkpt>
<trkpt lat="40.0713749" lon="-105.229789">
  <ele>1583.0</ele>
  <time>2026-08-28T17:56:58Z</time>
  <course>248.28</course>
  <speed>0.0</speed>
  <fix>3d</fix>
</trkpt>
<trkpt lat="40.0713749" lon="-105.229789">
  <ele>1583.0</ele>
  <time>2026-08-28T17:56:58Z</time>
  <course>0.0</course>
  <speed>0.0</speed>
  <fix>3d</fix>
</trkpt>
<trkpt lat="40.0713749" lon="-105.229789">
  <ele>1583.0</ele>
  <time>2026-08-28T17:56:58Z</time>
  <course>248.29</course>
  <speed>0.0</speed>
  <fix>3d</fix>
</trkpt>
<trkpt lat="40.0713749" lon="-105.229789">
  <ele>1583.0</ele>
  <time>2026-08-28T17:56:58Z</time>
  <course>0.0</course>
  <speed>0.0</speed>
  <fix>3d</fix>
</trkpt>
<trkpt lat="40.0713749" lon="-105.229789">
  <ele>1583.0</ele>
  <time>2026-08-28T17:56:58Z</time>
  <course>248.3</course>
  <speed>0.0</speed>
  <fix>3d</fix>
</trkpt>
<trkpt lat="40.0713749" lon="-105.229789">
  <ele>1583.0</ele>
  <time>2026-08-28T17:56:58Z</time>
  <course>0.0</course>
  <speed>0.0</speed>
  <fix>3d</fix>
</trkpt>
<trkpt lat="40.0713749" lon="-105.229789">
  <ele>1583.0</ele>
  <time>2026-08-28T17:56:58Z</time>
  <course>248.31</course>
  <speed>0.0</speed>
  <fix>3d</fix>
</trkpt>
<trkpt lat="40.0713749" lon="-105.229789">
  <ele>1583.0</ele>
  <time>2026-08-28T17:56:58Z</time>
  <course>0.0</course>
  <speed>0.0</speed>
  <fix>3d</fix>
</trkpt>
<trkpt lat="40.0713749" lon="-105.229789">
  <ele>1583.0</ele>
  <time>2026-08-28T17:56:58Z</time>
  <course>248.32</course>
  <speed>0.0</speed>
  <fix>3d</fix>
</trkpt>
<trkpt lat="40.0713749" lon="-105.229789">
  <ele>1583.0</ele>
  <time>2026-08-28T17:56:58Z</time>
  <course>0.0</course>
  <speed>0.0</speed>
  <fix>3d</fix>
</trkpt>
<trkpt lat="40.0713749" lon="-105.229789">
  <ele>1583.0</ele>
  <time>2026-08-28T17:56:58Z</time>
  <course>248.33</course>
  <speed>0.0</speed>
  <fix>3d</fix>
</trkpt>
<trkpt lat="40.0713749" lon="-105.229789">
  <ele>1583.0</ele>
  <time>2026-08-28T17:56:58Z</time>
  <course>0.0</course>
  <speed>0.0</speed>
  <fix>3d</fix>
</trkpt>
<trkpt lat="40.0713749" lon="-105.229789">
  <ele>1583.0</ele>
  <time>2026-08-28T17:56:58Z</time>
  <course>248.34</course>
  <speed>0.0</speed>
  <fix>3d</fix>
</trkpt>
<trkpt lat="40.0713749" lon="-105.229789">
  <ele>1583.0</ele>
  <time>2026-08-28T17:56:58Z</time>
  <course>0.0</course>
  <speed>0.0</speed>
  <fix>3d</fix>
</trkpt>
<trkpt lat="40.0713749" lon="-105.229789">
  <ele>1583.0</ele>
  <time>2026-08-28T17:56:58Z</time>
  <course>248.35</course>
  <speed>0.0</speed>
  <fix>3d</fix>
</trkpt>
<trkpt lat="40.0713749" lon="-105.229789">
  <ele>1583.0</ele>
  <time>2026-08-28T17:56:58Z</time>
  <course>0.0</course>
  <speed>0.0</speed>
  <fix>3d</fix>
</trkpt>
<trkpt lat="40.0713749" lon="-105.229789">
  <ele>1583.0</ele>
  <time>2026-08-28T17:56:58Z</time>
  <course>248.35</course>
  <speed>0.0</speed>
  <fix>3d</fix>
</trkpt>
<trkpt lat="40.0713749" lon="-105.229789">
  <ele>1583.0</ele>
  <time>2026-08-28T17:56:58Z</time>
  <course>0.0</course>
  <speed>0.0</speed>
  <fix>3d</fix>
</trkpt>
<trkpt lat="40.0713749" lon="-105.229789">
  <ele>1583.0</ele>
  <time>2026-08-28T17:56:58Z</time>
  <course>248.36</course>
  <speed>0.0</speed>
  <fix>3d</fix>
</trkpt>
<trkpt lat="40.0713749" lon="-105.229789">
  <ele>1583.0</ele>
  <time>2026-08-28T17:56:58Z</time>
  <course>0.0</course>
  <speed>0.0</speed>
  <fix>3d</fix>
</trkpt>
<trkpt lat="40.0713749" lon="-105.229789">
  <ele>1583.0</ele>
  <time>2026-08-28T17:56:58Z</time>
  <course>248.37</course>
  <speed>0.0</speed>
  <fix>3d</fix>
</trkpt>
<trkpt lat="40.0713749" lon="-105.229789">
  <ele>1583.0</ele>
  <time>2026-08-28T17:56:58Z</time>
  <course>0.0</course>
  <speed>0.0</speed>
  <fix>3d</fix>
</trkpt>
<trkpt lat="40.0713749" lon="-105.229789">
  <ele>1583.0</ele>
  <time>2026-08-28T17:56:58Z</time>
  <course>248.37</course>
  <speed>0.0</speed>
  <fix>3d</fix>
</trkpt>
<trkpt lat="40.0713749" lon="-105.229789">
  <ele>1583.0</ele>
  <time>2026-08-28T17:56:58Z</time>
  <course>0.0</course>
  <speed>0.0</speed>
  <fix>3d</fix>
</trkpt>
<trkpt lat="40.0713749" lon="-105.229789">
  <ele>1583.0</ele>
  <time>2026-08-28T17:56:58Z</time>
  <course>248.38</course>
  <speed>0.0</speed>
  <fix>3d</fix>
</trkpt>
<trkpt lat="40.0713749" lon="-105.229789">
  <ele>1583.0</ele>
  <time>2026-08-28T17:56:58Z</time>
  <course>0.0</course>
  <speed>0.0</speed>
  <fix>3d</fix>
</trkpt>
<trkpt lat="40.0713749" lon="-105.229789">
  <ele>1583.0</ele>
  <time>2026-08-28T17:56:58Z</time>
  <course>248.38</course>
  <speed>0.0</speed>
  <fix>3d</fix>
</trkpt>
<trkpt lat="40.0713749" lon="-105.229789">
  <ele>1583.0</ele>
  <time>2026-08-28T17:56:58Z</time>
  <course>0.0</course>
  <speed>0.0</speed>
  <fix>3d</fix>
</trkpt>
<trkpt lat="40.0713749" lon="-105.229789">
  <ele>1583.0</ele>
  <time>2026-08-28T17:56:58Z</time>
  <course>248.39</course>
  <speed>0.0</speed>
  <fix>3d</fix>
</trkpt>
<trkpt lat="40.0713749" lon="-105.229789">
  <ele>1583.0</ele>
  <time>2026-08-28T17:56:58Z</time>
  <course>0.0</course>
  <speed>0.0</speed>
  <fix>3d</fix>
</trkpt>
<trkpt lat="40.0713749" lon="-105.229789">
  <ele>1583.0</ele>
  <time>2026-08-28T17:56:58Z</time>
  <course>248.39</course>
  <speed>0.0</speed>
  <fix>3d</fix>
</trkpt>
<trkpt lat="40.0713749" lon="-105.229789">
  <ele>1583.0</ele>
  <time>2026-08-28T17:56:58Z</time>
  <course>0.0</course>
  <speed>0.0</speed>
  <fix>3d</fix>
</trkpt>
<trkpt lat="40.0713749" lon="-105.229789">
  <ele>1583.0</ele>
  <time>2026-08-28T17:56:58Z</time>
  <course>248.4</course>
  <speed>0.0</speed>
  <fix>3d</fix>
</trkpt>
<trkpt lat="40.0713749" lon="-105.229789">
  <ele>1583.0</ele>
  <time>2026-08-28T17:56:58Z</time>
  <course>0.0</course>
  <speed>0.0</speed>
  <fix>3d</fix>
</trkpt>
<trkpt lat="40.0713749" lon="-105.229789">
  <ele>1583.0</ele>
  <time>2026-08-28T17:56:58Z</time>
  <course>248.4</course>
  <speed>0.0</speed>
  <fix>3d</fix>
</trkpt>
<trkpt lat="40.0713749" lon="-105.229789">
  <ele>1583.0</ele>
  <time>2026-08-28T17:56:58Z</time>
  <course>0.0</course>
  <speed>0.0</speed>
  <fix>3d</fix>
</trkpt>
<trkpt lat="40.0713749" lon="-105.229789">
  <ele>1583.0</ele>
  <time>2026-08-28T17:56:58Z</time>
  <course>248.4</course>
  <speed>0.0</speed>
  <fix>3d</fix>
</trkpt>
<trkpt lat="40.0713749" lon="-105.229789">
  <ele>1583.0</ele>
  <time>2026-08-28T17:56:58Z</time>
  <course>0.0</course>
  <speed>0.0</speed>
  <fix>3d</fix>
</trkpt>
<trkpt lat="40.0713749" lon="-105.229789">
  <ele>1583.0</ele>
  <time>2026-08-28T17:56:58Z</time>
  <course>248.4</course>
  <speed>0.0</speed>
  <fix>3d</fix>
</trkpt>
<trkpt lat="40.0713749" lon="-105.229789">
  <ele>1583.0</ele>
  <time>2026-08-28T17:56:58Z</time>
  <course>0.0</course>
  <speed>0.0</speed>
  <fix>3d</fix>
</trkpt>
<trkpt lat="40.0713749" lon="-105.229789">
  <ele>1583.0</ele>
  <time>2026-08-28T17:56:58Z</time>
  <course>248.41</course>
  <speed>0.0</speed>
  <fix>3d</fix>
</trkpt>
<trkpt lat="40.0713749" lon="-105.229789">
  <ele>1583.0</ele>
  <time>2026-08-28T17:56:58Z</time>
  <course>0.0</course>
  <speed>0.0</speed>
  <fix>3d</fix>
</trkpt>
<trkpt lat="40.0713749" lon="-105.229789">
  <ele>1583.0</ele>
  <time>2026-08-28T17:56:58Z</time>
  <course>248.41</course>
  <speed>0.0</speed>
  <fix>3d</fix>
</trkpt>
<trkpt lat="40.0713749" lon="-105.229789">
  <ele>1583.0</ele>
  <time>2026-08-28T17:56:58Z</time>
  <course>0.0</course>
  <speed>0.0</speed>
  <fix>3d</fix>
</trkpt>
<trkpt lat="40.0713749" lon="-105.229789">
  <ele>1583.0</ele>
  <time>2026-08-28T17:56:58Z</time>
  <course>248.41</course>
  <speed>0.0</speed>
  <fix>3d</fix>
</trkpt>
<trkpt lat="40.0713749" lon="-105.229789">
  <ele>1583.0</ele>
  <time>2026-08-28T17:56:58Z</time>
  <course>0.0</course>
  <speed>0.0</speed>
  <fix>3d</fix>
</trkpt>
<trkpt lat="40.0713749" lon="-105.229789">
  <ele>1583.0</ele>
  <time>2026-08-28T17:56:58Z</time>
  <course>248.41</course>
  <speed>0.0</speed>
  <fix>3d</fix>
</trkpt>
<trkpt lat="40.0713749" lon="-105.229789">
  <ele>1583.0</ele>
  <time>2026-08-28T17:56:58Z</time>
  <course>0.0</course>
  <speed>0.0</speed>
  <fix>3d</fix>
</trkpt>
<trkpt lat="40.0713749" lon="-105.229789">
  <ele>1583.0</ele>
  <time>2026-08-28T17:56:58Z</time>
  <course>248.41</course>
  <speed>0.0</speed>
  <fix>3d</fix>
</trkpt>
<trkpt lat="40.0713749" lon="-105.229789">
  <ele>1583.0</ele>
  <time>2026-08-28T17:56:58Z</time>
  <course>0.0</course>
  <speed>0.0</speed>
  <fix>3d</fix>
</trkpt>
<trkpt lat="40.0713749" lon="-105.229789">
  <ele>1583.0</ele>
  <time>2026-08-28T17:56:58Z</time>
  <course>248.41</course>
  <speed>0.0</speed>
  <fix>3d</fix>
</trkpt>
<trkpt lat="40.0713749" lon="-105.229789">
  <ele>1583.0</ele>
  <time>2026-08-28T17:56:58Z</time>
  <course>0.0</course>
  <speed>0.0</speed>
  <fix>3d</fix>
</trkpt>
<trkpt lat="40.0713749" lon="-105.229789">
  <ele>1583.0</ele>
  <time>2026-08-28T17:56:58Z</time>
  <course>248.41</course>
  <speed>0.0</speed>
  <fix>3d</fix>
</trkpt>
<trkpt lat="40.0713749" lon="-105.229789">
  <ele>1583.0</ele>
  <time>2026-08-28T17:56:58Z</time>
  <course>0.0</course>
  <speed>0.0</speed>
  <fix>3d</fix>
</trkpt>
<trkpt lat="40.0713749" lon="-105.229789">
  <ele>1583.0</ele>
  <time>2026-08-28T17:56:58Z</time>
  <course>248.41</course>
  <speed>0.0</speed>
  <fix>3d</fix>
</trkpt>
<trkpt lat="40.0713749" lon="-105.229789">
  <ele>1583.0</ele>
  <time>2026-08-28T17:56:58Z</time>
  <course>0.0</course>
  <speed>0.0</speed>
  <fix>3d</fix>
</trkpt>
<trkpt lat="40.0713749" lon="-105.229789">
  <ele>1583.0</ele>
  <time>2026-08-28T17:56:58Z</time>
  <course>248.41</course>
  <speed>0.0</speed>
  <fix>3d</fix>
</trkpt>
<trkpt lat="40.0713749" lon="-105.229789">
  <ele>1583.0</ele>
  <time>2026-08-28T17:56:58Z</time>
  <course>0.0</course>
  <speed>0.0</speed>
  <fix>3d</fix>
</trkpt>
<trkpt lat="40.0713749" lon="-105.229789">
  <ele>1583.0</ele>
  <time>2026-08-28T17:56:58Z</time>
  <course>248.41</course>
  <speed>0.0</speed>
  <fix>3d</fix>
</trkpt>
<trkpt lat="40.0713749" lon="-105.229789">
  <ele>1583.0</ele>
  <time>2026-08-28T17:56:58Z</time>
  <course>0.0</course>
  <speed>0.0</speed>
  <fix>3d</fix>
</trkpt>
<trkpt lat="40.0713749" lon="-105.229789">
  <ele>1583.0</ele>
  <time>2026-08-28T17:56:58Z</time>
  <course>248.41</course>
  <speed>0.0</speed>
  <fix>3d</fix>
</trkpt>
<trkpt lat="40.0713749" lon="-105.229789">
  <ele>1583.0</ele>
  <time>2026-08-28T17:56:58Z</time>
  <course>0.0</course>
  <speed>0.0</speed>
  <fix>3d</fix>
</trkpt>
<trkpt lat="40.0713749" lon="-105.229789">
  <ele>1583.0</ele>
  <time>2026-08-28T17:56:58Z</time>
  <course>248.41</course>
  <speed>0.0</speed>
  <fix>3d</fix>
</trkpt>
<trkpt lat="40.0713749" lon="-105.229789">
  <ele>1583.0</ele>
  <time>2026-08-28T17:56:58Z</time>
  <course>0.0</course>
  <speed>0.0</speed>
  <fix>3d</fix>
</trkpt>
<trkpt lat="40.0713749" lon="-105.229789">
  <ele>1583.0</ele>
  <time>2026-08-28T17:56:58Z</time>
  <course>248.41</course>
  <speed>0.0</speed>
  <fix>3d</fix>
</trkpt>
<trkpt lat="40.0713749" lon="-105.229789">
  <ele>1583.0</ele>
  <time>2026-08-28T17:56:58Z</time>
  <course>0.0</course>
  <speed>0.0</speed>
  <fix>3d</fix>
</trkpt>
<trkpt lat="40.0713749" lon="-105.229789">
  <ele>1583.0</ele>
  <time>2026-08-28T17:56:58Z</time>
  <course>248.41</course>
  <speed>0.0</speed>
  <fix>3d</fix>
</trkpt>
<trkpt lat="40.0713749" lon="-105.229789">
  <ele>1583.0</ele>
  <time>2026-08-28T17:56:58Z</time>
  <course>0.0</course>
  <speed>0.0</speed>
  <fix>3d</fix>
</trkpt>
<trkpt lat="40.0713749" lon="-105.229789">
  <ele>1583.0</ele>
  <time>2026-08-28T17:56:58Z</time>
  <course>248.41</course>
  <speed>0.0</speed>
  <fix>3d</fix>
</trkpt>
<trkpt lat="40.0713749" lon="-105.229789">
  <ele>1583.0</ele>
  <time>2026-08-28T17:56:58Z</time>
  <course>0.0</course>
  <speed>0.0</speed>
  <fix>3d</fix>
</trkpt>
<trkpt lat="40.0713749" lon="-105.229789">
  <ele>1583.0</ele>
  <time>2026-08-28T17:56:58Z</time>
  <course>248.41</course>
  <speed>0.0</speed>
  <fix>3d</fix>
</trkpt>
<trkpt lat="40.0713749" lon="-105.229789">
  <ele>1583.0</ele>
  <time>2026-08-28T17:56:58Z</time>
  <course>0.0</course>
  <speed>0.0</speed>
  <fix>3d</fix>
</trkpt>
<trkpt lat="40.0713749" lon="-105.229789">
  <ele>1583.0</ele>
  <time>2026-08-28T17:56:58Z</time>
  <course>248.4</course>
  <speed>0.0</speed>
  <fix>3d</fix>
</trkpt>
<trkpt lat="40.0713749" lon="-105.229789">
  <ele>1583.0</ele>
  <time>2026-08-28T17:56:58Z</time>
  <course>0.0</course>
  <speed>0.0</speed>
  <fix>3d</fix>
</trkpt>
<trkpt lat="40.0713749" lon="-105.229789">
  <ele>1583.0</ele>
  <time>2026-08-28T17:56:58Z</time>
  <course>248.4</course>
  <speed>0.01</speed>
  <fix>3d</fix>
</trkpt>
<trkpt lat="40.0713749" lon="-105.229789">
  <ele>1583.0</ele>
  <time>2026-08-28T17:56:58Z</time>
  <course>0.0</course>
  <speed>0.0</speed>
  <fix>3d</fix>
</trkpt>
<trkpt lat="40.0713749" lon="-105.229789">
  <ele>1583.0</ele>
  <time>2026-08-28T17:56:58Z</time>
  <course>248.4</course>
  <speed>0.01</speed>
  <fix>3d</fix>
</trkpt>
<trkpt lat="40.0713749" lon="-105.229789">
  <ele>1583.0</ele>
  <time>2026-08-28T17:56:58Z</time>
  <course>0.0</course>
  <speed>0.0</speed>
  <fix>3d</fix>
</trkpt>
<trkpt lat="40.0713749" lon="-105.229789">
  <ele>1583.0</ele>
  <time>2026-08-28T17:56:58Z</time>
  <course>248.4</course>
  <speed>0.01</speed>
  <fix>3d</fix>
</trkpt>
<trkpt lat="40.0713749" lon="-105.229789">
  <ele>1583.0</ele>
  <time>2026-08-28T17:56:58Z</time>
  <course>0.0</course>
  <speed>0.0</speed>
  <fix>3d</fix>
</trkpt>
<trkpt lat="40.0713749" lon="-105.229789">
  <ele>1583.0</ele>
  <time>2026-08-28T17:56:58Z</time>
  <course>248.4</course>
  <speed>0.01</speed>
  <fix>3d</fix>
</trkpt>
<trkpt lat="40.0713749" lon="-105.229789">
  <ele>1583.0</ele>
  <time>2026-08-28T17:56:58Z</time>
  <course>0.0</course>
  <speed>0.0</speed>
  <fix>3d</fix>
</trkpt>
<trkpt lat="40.0713749" lon="-105.229789">
  <ele>1583.0</ele>
  <time>2026-08-28T17:56:58Z</time>
  <course>248.39</course>
  <speed>0.01</speed>
  <fix>3d</fix>
</trkpt>
<trkpt lat="40.0713749" lon="-105.229789">
  <ele>1583.0</ele>
  <time>2026-08-28T17:56:58Z</time>
  <course>0.0</course>
  <speed>0.0</speed>
  <fix>3d</fix>
</trkpt>
<trkpt lat="40.0713749" lon="-105.229789">
  <ele>1583.0</ele>
  <time>2026-08-28T17:56:58Z</time>
  <course>248.39</course>
  <speed>0.01</speed>
  <fix>3d</fix>
</trkpt>
<trkpt lat="40.0713749" lon="-105.229789">
  <ele>1583.0</ele>
  <time>2026-08-28T17:56:58Z</time>
  <course>0.0</course>
  <speed>0.0</speed>
  <fix>3d</fix>
</trkpt>
<trkpt lat="40.0713749" lon="-105.229789">
  <ele>1583.0</ele>
  <time>2026-08-28T17:56:58Z</time>
  <course>248.39</course>
  <speed>0.01</speed>
  <fix>3d</fix>
</trkpt>
<trkpt lat="40.0713749" lon="-105.229789">
  <ele>1583.0</ele>
  <time>2026-08-28T17:56:58Z</time>
  <course>0.0</course>
  <speed>0.0</speed>
  <fix>3d</fix>
</trkpt>
<trkpt lat="40.0713749" lon="-105.229789">
  <ele>1583.0</ele>
  <time>2026-08-28T17:56:58Z</time>
  <course>248.38</course>
  <speed>0.01</speed>
  <fix>3d</fix>
</trkpt>
<trkpt lat="40.0713749" lon="-105.229789">
  <ele>1583.0</ele>
  <time>2026-08-28T17:56:58Z</time>
  <course>0.0</course>
  <speed>0.0</speed>
  <fix>3d</fix>
</trkpt>
<trkpt lat="40.0713749" lon="-105.229789">
  <ele>1583.0</ele>
  <time>2026-08-28T17:56:58Z</time>
  <course>248.38</course>
  <speed>0.01</speed>
  <fix>3d</fix>
</trkpt>
<trkpt lat="40.0713749" lon="-105.229789">
  <ele>1583.0</ele>
  <time>2026-08-28T17:56:58Z</time>
  <course>0.0</course>
  <speed>0.0</speed>
  <fix>3d</fix>
</trkpt>
<trkpt lat="40.0713749" lon="-105.229789">
  <ele>1583.0</ele>
  <time>2026-08-28T17:56:58Z</time>
  <course>248.38</course>
  <speed>0.01</speed>
  <fix>3d</fix>
</trkpt>
<trkpt lat="40.0713749" lon="-105.229789">
  <ele>1583.0</ele>
  <time>2026-08-28T17:56:58Z</time>
  <course>0.0</course>
  <speed>0.0</speed>
  <fix>3d</fix>
</trkpt>
<trkpt lat="40.0713749" lon="-105.229789">
  <ele>1583.0</ele>
  <time>2026-08-28T17:56:58Z</time>
  <course>248.37</course>
  <speed>0.01</speed>
  <fix>3d</fix>
</trkpt>
<trkpt lat="40.0713749" lon="-105.229789">
  <ele>1583.0</ele>
  <time>2026-08-28T17:56:58Z</time>
  <course>0.0</course>
  <speed>0.0</speed>
  <fix>3d</fix>
</trkpt>
<trkpt lat="40.0713749" lon="-105.229789">
  <ele>1583.0</ele>
  <time>2026-08-28T17:56:58Z</time>
  <course>248.37</course>
  <speed>0.01</speed>
  <fix>3d</fix>
</trkpt>
<trkpt lat="40.0713749" lon="-105.229789">
  <ele>1583.0</ele>
  <time>2026-08-28T17:56:58Z</time>
  <course>0.0</course>
  <speed>0.0</speed>
  <fix>3d</fix>
</trkpt>
<trkpt lat="40.0713749" lon="-105.229789">
  <ele>1583.0</ele>
  <time>2026-08-28T17:56:58Z</time>
  <course>248.37</course>
  <speed>0.01</speed>
  <fix>3d</fix>
</trkpt>
<trkpt lat="40.0713749" lon="-105.229789">
  <ele>1583.0</ele>
  <time>2026-08-28T17:56:58Z</time>
  <course>0.0</course>
  <speed>0.0</speed>
  <fix>3d</fix>
</trkpt>
<trkpt lat="40.0713749" lon="-105.229789">
  <ele>1583.0</ele>
  <time>2026-08-28T17:56:58Z</time>
  <course>248.36</course>
  <speed>0.01</speed>
  <fix>3d</fix>
</trkpt>
<trkpt lat="40.0713749" lon="-105.229789">
  <ele>1583.0</ele>
  <time>2026-08-28T17:56:58Z</time>
  <course>0.0</course>
  <speed>0.0</speed>
  <fix>3d</fix>
</trkpt>
<trkpt lat="40.0713749" lon="-105.229789">
  <ele>1583.0</ele>
  <time>2026-08-28T17:56:58Z</time>
  <course>248.36</course>
  <speed>0.01</speed>
  <fix>3d</fix>
</trkpt>
<trkpt lat="40.0713749" lon="-105.229789">
  <ele>1583.0</ele>
  <time>2026-08-28T17:56:58Z</time>
  <course>0.0</course>
  <speed>0.0</speed>
  <fix>3d</fix>
</trkpt>
<trkpt lat="40.0713749" lon="-105.229789">
  <ele>1583.0</ele>
  <time>2026-08-28T17:56:58Z</time>
  <course>248.36</course>
  <speed>0.01</speed>
  <fix>3d</fix>
</trkpt>
<trkpt lat="40.0713749" lon="-105.229789">
  <ele>1583.0</ele>
  <time>2026-08-28T17:56:58Z</time>
  <course>0.0</course>
  <speed>0.0</speed>
  <fix>3d</fix>
</trkpt>
<trkpt lat="40.0713749" lon="-105.229789">
  <ele>1583.0</ele>
  <time>2026-08-28T17:56:58Z</time>
  <course>248.35</course>
  <speed>0.01</speed>
  <fix>3d</fix>
</trkpt>
<trkpt lat="40.0713749" lon="-105.229789">
  <ele>1583.0</ele>
  <time>2026-08-28T17:56:58Z</time>
  <course>0.0</course>
  <speed>0.0</speed>
  <fix>3d</fix>
</trkpt>
<trkpt lat="40.0713749" lon="-105.229789">
  <ele>1583.0</ele>
  <time>2026-08-28T17:56:58Z</time>
  <course>248.35</course>
  <speed>0.01</speed>
  <fix>3d</fix>
</trkpt>
<trkpt lat="40.0713749" lon="-105.229789">
  <ele>1583.0</ele>
  <time>2026-08-28T17:56:58Z</time>
  <course>0.0</course>
  <speed>0.0</speed>
  <fix>3d</fix>
</trkpt>
<trkpt lat="40.0713749" lon="-105.229789">
  <ele>1583.0</ele>
  <time>2026-08-28T17:56:58Z</time>
  <course>248.35</course>
  <speed>0.01</speed>
  <fix>3d</fix>
</trkpt>
<trkpt lat="40.0713749" lon="-105.229789">
  <ele>1583.0</ele>
  <time>2026-08-28T17:56:58Z</time>
  <course>0.0</course>
  <speed>0.0</speed>
  <fix>3d</fix>
</trkpt>
<trkpt lat="40.0713749" lon="-105.229789">
  <ele>1583.0</ele>
  <time>2026-08-28T17:56:58Z</time>
  <course>248.34</course>
  <speed>0.01</speed>
  <fix>3d</fix>
</trkpt>
<trkpt lat="40.0713749" lon="-105.229789">
  <ele>1583.0</ele>
  <time>2026-08-28T17:56:58Z</time>
  <course>0.0</course>
  <speed>0.0</speed>
  <fix>3d</fix>
</trkpt>
<trkpt lat="40.0713749" lon="-105.229789">
  <ele>1583.0</ele>
  <time>2026-08-28T17:56:58Z</time>
  <course>248.34</course>
  <speed>0.01</speed>
  <fix>3d</fix>
</trkpt>
<trkpt lat="40.0713749" lon="-105.229789">
  <ele>1583.0</ele>
  <time>2026-08-28T17:56:58Z</time>
  <course>0.0</course>
  <speed>0.0</speed>
  <fix>3d</fix>
</trkpt>
<trkpt lat="40.0713749" lon="-105.229789">
  <ele>1583.0</ele>
  <time>2026-08-28T17:56:58Z</time>
  <course>248.33</course>
  <speed>0.01</speed>
  <fix>3d</fix>
</trkpt>
<trkpt lat="40.0713749" lon="-105.229789">
  <ele>1583.0</ele>
  <time>2026-08-28T17:56:58Z</time>
  <course>0.0</course>
  <speed>0.0</speed>
  <fix>3d</fix>
</trkpt>
<trkpt lat="40.0713749" lon="-105.229789">
  <ele>1583.0</ele>
  <time>2026-08-28T17:56:58Z</time>
  <course>248.33</course>
  <speed>0.01</speed>
  <fix>3d</fix>
</trkpt>
<trkpt lat="40.0713749" lon="-105.229789">
  <ele>1583.0</ele>
  <time>2026-08-28T17:56:58Z</time>
  <course>0.0</course>
  <speed>0.0</speed>
  <fix>3d</fix>
</trkpt>
<trkpt lat="40.0713749" lon="-105.229789">
  <ele>1583.0</ele>
  <time>2026-08-28T17:56:58Z</time>
  <course>248.32</course>
  <speed>0.01</speed>
  <fix>3d</fix>
</trkpt>
<trkpt lat="40.0713749" lon="-105.229789">
  <ele>1583.0</ele>
  <time>2026-08-28T17:56:58Z</time>
  <course>0.0</course>
  <speed>0.0</speed>
  <fix>3d</fix>
</trkpt>
<trkpt lat="40.0713749" lon="-105.229789">
  <ele>1583.0</ele>
  <time>2026-08-28T17:56:58Z</time>
  <course>248.32</course>
  <speed>0.01</speed>
  <fix>3d</fix>
</trkpt>
<trkpt lat="40.0713749" lon="-105.229789">
  <ele>1583.0</ele>
  <time>2026-08-28T17:56:58Z</time>
  <course>0.0</course>
  <speed>0.0</speed>
  <fix>3d</fix>
</trkpt>
<trkpt lat="40.0713749" lon="-105.229789">
  <ele>1583.0</ele>
  <time>2026-08-28T17:56:58Z</time>
  <course>248.32</course>
  <speed>0.01</speed>
  <fix>3d</fix>
</trkpt>
<trkpt lat="40.0713749" lon="-105.229789">
  <ele>1583.0</ele>
  <time>2026-08-28T17:56:58Z</time>
  <course>0.0</course>
  <speed>0.0</speed>
  <fix>3d</fix>
</trkpt>
<trkpt lat="40.0713749" lon="-105.229789">
  <ele>1583.0</ele>
  <time>2026-08-28T17:56:58Z</time>
  <course>248.31</course>
  <speed>0.01</speed>
  <fix>3d</fix>
</trkpt>
<trkpt lat="40.0713749" lon="-105.229789">
  <ele>1583.0</ele>
  <time>2026-08-28T17:56:58Z</time>
  <course>0.0</course>
  <speed>0.0</speed>
  <fix>3d</fix>
</trkpt>
<trkpt lat="40.0713749" lon="-105.229789">
  <ele>1583.0</ele>
  <time>2026-08-28T17:56:58Z</time>
  <course>248.31</course>
  <speed>0.01</speed>
  <fix>3d</fix>
</trkpt>
<trkpt lat="40.0713749" lon="-105.229789">
  <ele>1583.0</ele>
  <time>2026-08-28T17:56:58Z</time>
  <course>0.0</course>
  <speed>0.0</speed>
  <fix>3d</fix>
</trkpt>
<trkpt lat="40.0713749" lon="-105.229789">
  <ele>1583.0</ele>
  <time>2026-08-28T17:56:58Z</time>
  <course>248.3</course>
  <speed>0.01</speed>
  <fix>3d</fix>
</trkpt>
<trkpt lat="40.0713749" lon="-105.229789">
  <ele>1583.0</ele>
  <time>2026-08-28T17:56:58Z</time>
  <course>0.0</course>
  <speed>0.0</speed>
  <fix>3d</fix>
</trkpt>
<trkpt lat="40.0713749" lon="-105.229789">
  <ele>1583.0</ele>
  <time>2026-08-28T17:56:58Z</time>
  <course>248.3</course>
  <speed>0.01</speed>
  <fix>3d</fix>
</trkpt>
<trkpt lat="40.0713749" lon="-105.229789">
  <ele>1583.0</ele>
  <time>2026-08-28T17:56:58Z</time>
  <course>0.0</course>
  <speed>0.0</speed>
  <fix>3d</fix>
</trkpt>
<trkpt lat="40.0713749" lon="-105.229789">
  <ele>1583.0</ele>
  <time>2026-08-28T17:56:58Z</time>
  <course>248.29</course>
  <speed>0.01</speed>
  <fix>3d</fix>
</trkpt>
<trkpt lat="40.0713749" lon="-105.229789">
  <ele>1583.0</ele>
  <time>2026-08-28T17:56:58Z</time>
  <course>0.0</course>
  <speed>0.0</speed>
  <fix>3d</fix>
</trkpt>
<trkpt lat="40.0713749" lon="-105.229789">
  <ele>1583.0</ele>
  <time>2026-08-28T17:56:58Z</time>
  <course>248.29</course>
  <speed>0.01</speed>
  <fix>3d</fix>
</trkpt>
<trkpt lat="40.0713749" lon="-105.229789">
  <ele>1583.0</ele>
  <time>2026-08-28T17:56:58Z</time>
  <course>0.0</course>
  <speed>0.0</speed>
  <fix>3d</fix>
</trkpt>
<trkpt lat="40.0713749" lon="-105.229789">
  <ele>1583.0</ele>
  <time>2026-08-28T17:56:58Z</time>
  <course>248.28</course>
  <speed>0.01</speed>
  <fix>3d</fix>
</trkpt>
<trkpt lat="40.0713749" lon="-105.229789">
  <ele>1583.0</ele>
  <time>2026-08-28T17:56:58Z</time>
  <course>0.0</course>
  <speed>0.0</speed>
  <fix>3d</fix>
</trkpt>
<trkpt lat="40.0713749" lon="-105.229789">
  <ele>1583.0</ele>
  <time>2026-08-28T17:56:58Z</time>
  <course>248.28</course>
  <speed>0.01</speed>
  <fix>3d</fix>
</trkpt>
<trkpt lat="40.0713749" lon="-105.229789">
  <ele>1583.0</ele>
  <time>2026-08-28T17:56:58Z</time>
  <course>0.0</course>
  <speed>0.0</speed>
  <fix>3d</fix>
</trkpt>
<trkpt lat="40.0713749" lon="-105.229789">
  <ele>1583.0</ele>
  <time>2026-08-28T17:56:58Z</time>
  <course>248.27</course>
  <speed>0.01</speed>
  <fix>3d</fix>
</trkpt>
<trkpt lat="40.0713749" lon="-105.229789">
  <ele>1583.0</ele>
  <time>2026-08-28T17:56:58Z</time>
  <course>0.0</course>
  <speed>0.0</speed>
  <fix>3d</fix>
</trkpt>
<trkpt lat="40.0713749" lon="-105.229789">
  <ele>1583.0</ele>
  <time>2026-08-28T17:56:58Z</time>
  <course>248.27</course>
  <speed>0.01</speed>
  <fix>3d</fix>
</trkpt>
<trkpt lat="40.0713749" lon="-105.229789">
  <ele>1583.0</ele>
  <time>2026-08-28T17:56:58Z</time>
  <course>0.0</course>
  <speed>0.0</speed>
  <fix>3d</fix>
</trkpt>
<trkpt lat="40.0713749" lon="-105.229789">
  <ele>1583.0</ele>
  <time>2026-08-28T17:56:58Z</time>
  <course>248.26</course>
  <speed>0.01</speed>
  <fix>3d</fix>
</trkpt>
<trkpt lat="40.0713749" lon="-105.229789">
  <ele>1583.0</ele>
  <time>2026-08-28T17:56:58Z</time>
  <course>0.0</course>
  <speed>0.0</speed>
  <fix>3d</fix>
</trkpt>
<trkpt lat="40.0713749" lon="-105.229789">
  <ele>1583.0</ele>
  <time>2026-08-28T17:56:58Z</time>
  <course>248.26</course>
  <speed>0.01</speed>
  <fix>3d</fix>
</trkpt>
<trkpt lat="40.0713749" lon="-105.229789">
  <ele>1583.0</ele>
  <time>2026-08-28T17:56:58Z</time>
  <course>0.0</course>
  <speed>0.0</speed>
  <fix>3d</fix>
</trkpt>
<trkpt lat="40.0713749" lon="-105.229789">
  <ele>1583.0</ele>
  <time>2026-08-28T17:56:58Z</time>
  <course>248.26</course>
  <speed>0.01</speed>
  <fix>3d</fix>
</trkpt>
<trkpt lat="40.0713749" lon="-105.229789">
  <ele>1583.0</ele>
  <time>2026-08-28T17:56:58Z</time>
  <course>0.0</course>
  <speed>0.0</speed>
  <fix>3d</fix>
</trkpt>
<trkpt lat="40.0713749" lon="-105.229789">
  <ele>1583.0</ele>
  <time>2026-08-28T17:56:58Z</time>
  <course>248.25</course>
  <speed>0.01</speed>
  <fix>3d</fix>
</trkpt>
<trkpt lat="40.0713749" lon="-105.229789">
  <ele>1583.0</ele>
  <time>2026-08-28T17:56:58Z</time>
  <course>0.0</course>
  <speed>0.0</speed>
  <fix>3d</fix>
</trkpt>
<trkpt lat="40.0713749" lon="-105.229789">
  <ele>1583.0</ele>
  <time>2026-08-28T17:56:58Z</time>
  <course>248.25</course>
  <speed>0.01</speed>
  <fix>3d</fix>
</trkpt>
<trkpt lat="40.0713749" lon="-105.229789">
  <ele>1583.0</ele>
  <time>2026-08-28T17:56:58Z</time>
  <course>0.0</course>
  <speed>0.0</speed>
  <fix>3d</fix>
</trkpt>
<trkpt lat="40.0713749" lon="-105.229789">
  <ele>1583.0</ele>
  <time>2026-08-28T17:56:58Z</time>
  <course>248.24</course>
  <speed>0.01</speed>
  <fix>3d</fix>
</trkpt>
<trkpt lat="40.0713749" lon="-105.229789">
  <ele>1583.0</ele>
  <time>2026-08-28T17:56:58Z</time>
  <course>0.0</course>
  <speed>0.0</speed>
  <fix>3d</fix>
</trkpt>
<trkpt lat="40.0713749" lon="-105.229789">
  <ele>1583.0</ele>
  <time>2026-08-28T17:56:58Z</time>
  <course>248.24</course>
  <speed>0.01</speed>
  <fix>3d</fix>
</trkpt>
<trkpt lat="40.0713749" lon="-105.229789">
  <ele>1583.0</ele>
  <time>2026-08-28T17:56:58Z</time>
  <course>0.0</course>
  <speed>0.0</speed>
  <fix>3d</fix>
</trkpt>
<trkpt lat="40.0713749" lon="-105.229789">
  <ele>1583.0</ele>
  <time>2026-08-28T17:56:58Z</time>
  <course>248.23</course>
  <speed>0.01</speed>
  <fix>3d</fix>
</trkpt>
<trkpt lat="40.0713749" lon="-105.229789">
  <ele>1583.0</ele>
  <time>2026-08-28T17:56:58Z</time>
  <course>0.0</course>
  <speed>0.0</speed>
  <fix>3d</fix>
</trkpt>
<trkpt lat="40.0713749" lon="-105.229789">
  <ele>1583.0</ele>
  <time>2026-08-28T17:56:58Z</time>
  <course>248.23</course>
  <speed>0.01</speed>
  <fix>3d</fix>
</trkpt>
<trkpt lat="40.0713749" lon="-105.229789">
  <ele>1583.0</ele>
  <time>2026-08-28T17:56:58Z</time>
  <course>0.0</course>
  <speed>0.0</speed>
  <fix>3d</fix>
</trkpt>
<trkpt lat="40.0713749" lon="-105.229789">
  <ele>1583.0</ele>
  <time>2026-08-28T17:56:58Z</time>
  <course>248.22</course>
  <speed>0.01</speed>
  <fix>3d</fix>
</trkpt>
<trkpt lat="40.0713749" lon="-105.229789">
  <ele>1583.0</ele>
  <time>2026-08-28T17:56:58Z</time>
  <course>0.0</course>
  <speed>0.0</speed>
  <fix>3d</fix>
</trkpt>
<trkpt lat="40.0713749" lon="-105.229789">
  <ele>1583.0</ele>
  <time>2026-08-28T17:56:58Z</time>
  <course>248.22</course>
  <speed>0.01</speed>
  <fix>3d</fix>
</trkpt>
<trkpt lat="40.0713749" lon="-105.229789">
  <ele>1583.0</ele>
  <time>2026-08-28T17:56:58Z</time>
  <course>0.0</course>
  <speed>0.0</speed>
  <fix>3d</fix>
</trkpt>
<trkpt lat="40.0713749" lon="-105.229789">
  <ele>1583.0</ele>
  <time>2026-08-28T17:56:58Z</time>
  <course>248.21</course>
  <speed>0.01</speed>
  <fix>3d</fix>
</trkpt>
<trkpt lat="40.0713749" lon="-105.229789">
  <ele>1583.0</ele>
  <time>2026-08-28T17:56:58Z</time>
  <course>0.0</course>
  <speed>0.0</speed>
  <fix>3d</fix>
</trkpt>
<trkpt lat="40.0713749" lon="-105.229789">
  <ele>1583.0</ele>
  <time>2026-08-28T17:56:58Z</time>
  <course>248.21</course>
  <speed>0.01</speed>
  <fix>3d</fix>
</trkpt>
<trkpt lat="40.0713749" lon="-105.229789">
  <ele>1583.0</ele>
  <time>2026-08-28T17:56:58Z</time>
  <course>0.0</course>
  <speed>0.0</speed>
  <fix>3d</fix>
</trkpt>
<trkpt lat="40.0713749" lon="-105.229789">
  <ele>1583.0</ele>
  <time>2026-08-28T17:56:58Z</time>
  <course>248.2</course>
  <speed>0.01</speed>
  <fix>3d</fix>
</trkpt>
<trkpt lat="40.0713749" lon="-105.229789">
  <ele>1583.0</ele>
  <time>2026-08-28T17:56:58Z</time>
  <course>0.0</course>
  <speed>0.0</speed>
  <fix>3d</fix>
</trkpt>
<trkpt lat="40.0713749" lon="-105.229789">
  <ele>1583.0</ele>
  <time>2026-08-28T17:56:58Z</time>
  <course>248.2</course>
  <speed>0.01</speed>
  <fix>3d</fix>
</trkpt>
<trkpt lat="40.0713749" lon="-105.229789">
  <ele>1583.0</ele>
  <time>2026-08-28T17:56:58Z</time>
  <course>0.0</course>
  <speed>0.0</speed>
  <fix>3d</fix>
</trkpt>
<trkpt lat="40.0713749" lon="-105.229789">
  <ele>1583.0</ele>
  <time>2026-08-28T17:56:58Z</time>
  <course>248.19</course>
  <speed>0.01</speed>
  <fix>3d</fix>
</trkpt>
<trkpt lat="40.0713749" lon="-105.229789">
  <ele>1583.0</ele>
  <time>2026-08-28T17:56:58Z</time>
  <course>0.0</course>
  <speed>0.0</speed>
  <fix>3d</fix>
</trkpt>
<trkpt lat="40.0713749" lon="-105.229789">
  <ele>1583.0</ele>
  <time>2026-08-28T17:56:58Z</time>
  <course>248.19</course>
  <speed>0.01</speed>
  <fix>3d</fix>
</trkpt>
<trkpt lat="40.0713749" lon="-105.229789">
  <ele>1583.0</ele>
  <time>2026-08-28T17:56:58Z</time>
  <course>0.0</course>
  <speed>0.0</speed>
  <fix>3d</fix>
</trkpt>
<trkpt lat="40.0713749" lon="-105.229789">
  <ele>1583.0</ele>
  <time>2026-08-28T17:56:58Z</time>
  <course>248.18</course>
  <speed>0.01</speed>
  <fix>3d</fix>
</trkpt>
<trkpt lat="40.0713749" lon="-105.229789">
  <ele>1583.0</ele>
  <time>2026-08-28T17:56:58Z</time>
  <course>0.0</course>
  <speed>0.0</speed>
  <fix>3d</fix>
</trkpt>
<trkpt lat="40.0713749" lon="-105.229789">
  <ele>1583.0</ele>
  <time>2026-08-28T17:56:58Z</time>
  <course>248.18</course>
  <speed>0.01</speed>
  <fix>3d</fix>
</trkpt>
<trkpt lat="40.0713749" lon="-105.229789">
  <ele>1583.0</ele>
  <time>2026-08-28T17:56:58Z</time>
  <course>0.0</course>
  <speed>0.0</speed>
  <fix>3d</fix>
</trkpt>
<trkpt lat="40.0713749" lon="-105.229789">
  <ele>1583.0</ele>
  <time>2026-08-28T17:56:58Z</time>
  <course>248.17</course>
  <speed>0.022360679774997897</speed>
  <fix>3d</fix>
</trkpt>
<trkpt lat="40.0713749" lon="-105.229789">
  <ele>1583.0</ele>
  <time>2026-08-28T17:56:58Z</time>
  <course>0.0</course>
  <speed>0.0</speed>
  <fix>3d</fix>
</trkpt>
<trkpt lat="40.0713749" lon="-105.229789">
  <ele>1583.0</ele>
  <time>2026-08-28T17:56:58Z</time>
  <course>248.17</course>
  <speed>0.022360679774997897</speed>
  <fix>3d</fix>
</trkpt>
<trkpt lat="40.0713749" lon="-105.229789">
  <ele>1583.0</ele>
  <time>2026-08-28T17:56:58Z</time>
  <course>0.0</course>
  <speed>0.0</speed>
  <fix>3d</fix>
</trkpt>
<trkpt lat="40.0713749" lon="-105.229789">
  <ele>1583.0</ele>
  <time>2026-08-28T17:56:58Z</time>
  <course>248.16</course>
  <speed>0.022360679774997897</speed>
  <fix>3d</fix>
</trkpt>
<trkpt lat="40.0713749" lon="-105.229789">
  <ele>1583.0</ele>
  <time>2026-08-28T17:56:58Z</time>
  <course>0.0</course>
  <speed>0.0</speed>
  <fix>3d</fix>
</trkpt>
<trkpt lat="40.0713749" lon="-105.229789">
  <ele>1583.0</ele>
  <time>2026-08-28T17:56:58Z</time>
  <course>248.16</course>
  <speed>0.022360679774997897</speed>
  <fix>3d</fix>
</trkpt>
<trkpt lat="40.0713749" lon="-105.229789">
  <ele>1583.0</ele>
  <time>2026-08-28T17:56:58Z</time>
  <course>0.0</course>
  <speed>0.0</speed>
  <fix>3d</fix>
</trkpt>
<trkpt lat="40.0713749" lon="-105.229789">
  <ele>1583.0</ele>
  <time>2026-08-28T17:56:58Z</time>
  <course>248.15</course>
  <speed>0.022360679774997897</speed>
  <fix>3d</fix>
</trkpt>
<trkpt lat="40.0713749" lon="-105.229789">
  <ele>1583.0</ele>
  <time>2026-08-28T17:56:58Z</time>
  <course>0.0</course>
  <speed>0.0</speed>
  <fix>3d</fix>
</trkpt>
<trkpt lat="40.0713749" lon="-105.229789">
  <ele>1583.0</ele>
  <time>2026-08-28T17:56:58Z</time>
  <course>248.15</course>
  <speed>0.022360679774997897</speed>
  <fix>3d</fix>
</trkpt>
<trkpt lat="40.0713749" lon="-105.229789">
  <ele>1583.0</ele>
  <time>2026-08-28T17:56:58Z</time>
  <course>0.0</course>
  <speed>0.0</speed>
  <fix>3d</fix>
</trkpt>
<trkpt lat="40.0713749" lon="-105.229789">
  <ele>1583.0</ele>
  <time>2026-08-28T17:56:58Z</time>
  <course>248.14</course>
  <speed>0.022360679774997897</speed>
  <fix>3d</fix>
</trkpt>
<trkpt lat="40.0713749" lon="-105.229789">
  <ele>1583.0</ele>
  <time>2026-08-28T17:56:58Z</time>
  <course>0.0</course>
  <speed>0.0</speed>
  <fix>3d</fix>
</trkpt>
<trkpt lat="40.0713749" lon="-105.229789">
  <ele>1583.0</ele>
  <time>2026-08-28T17:56:58Z</time>
  <course>248.14</course>
  <speed>0.022360679774997897</speed>
  <fix>3d</fix>
</trkpt>
<trkpt lat="40.0713749" lon="-105.229789">
  <ele>1583.0</ele>
  <time>2026-08-28T17:56:58Z</time>
  <course>0.0</course>
  <speed>0.0</speed>
  <fix>3d</fix>
</trkpt>
<trkpt lat="40.0713749" lon="-105.229789">
  <ele>1583.0</ele>
  <time>2026-08-28T17:56:58Z</time>
  <course>248.13</course>
  <speed>0.022360679774997897</speed>
  <fix>3d</fix>
</trkpt>
<trkpt lat="40.0713749" lon="-105.229789">
  <ele>1583.0</ele>
  <time>2026-08-28T17:56:58Z</time>
  <course>0.0</course>
  <speed>0.0</speed>
  <fix>3d</fix>
</trkpt>
<trkpt lat="40.0713749" lon="-105.229789">
  <ele>1583.0</ele>
  <time>2026-08-28T17:56:58Z</time>
  <course>248.13</course>
  <speed>0.022360679774997897</speed>
  <fix>3d</fix>
</trkpt>
<trkpt lat="40.0713749" lon="-105.229789">
  <ele>1583.0</ele>
  <time>2026-08-28T17:56:58Z</time>
  <course>0.0</course>
  <speed>0.0</speed>
  <fix>3d</fix>
</trkpt>
<trkpt lat="40.0713749" lon="-105.229789">
  <ele>1583.0</ele>
  <time>2026-08-28T17:56:58Z</time>
  <course>248.12</course>
  <speed>0.022360679774997897</speed>
  <fix>3d</fix>
</trkpt>
<trkpt lat="40.0713749" lon="-105.229789">
  <ele>1583.0</ele>
  <time>2026-08-28T17:56:58Z</time>
  <course>0.0</course>
  <speed>0.0</speed>
  <fix>3d</fix>
</trkpt>
<trkpt lat="40.0713749" lon="-105.229789">
  <ele>1583.0</ele>
  <time>2026-08-28T17:56:58Z</time>
  <course>248.12</course>
  <speed>0.022360679774997897</speed>
  <fix>3d</fix>
</trkpt>
<trkpt lat="40.0713749" lon="-105.229789">
  <ele>1583.0</ele>
  <time>2026-08-28T17:56:58Z</time>
  <course>0.0</course>
  <speed>0.0</speed>
  <fix>3d</fix>
</trkpt>
<trkpt lat="40.0713749" lon="-105.229789">
  <ele>1583.0</ele>
  <time>2026-08-28T17:56:58Z</time>
  <course>248.11</course>
  <speed>0.022360679774997897</speed>
  <fix>3d</fix>
</trkpt>
<trkpt lat="40.0713749" lon="-105.229789">
  <ele>1583.0</ele>
  <time>2026-08-28T17:56:58Z</time>
  <course>0.0</course>
  <speed>0.0</speed>
  <fix>3d</fix>
</trkpt>
<trkpt lat="40.0713749" lon="-105.229789">
  <ele>1583.0</ele>
  <time>2026-08-28T17:56:58Z</time>
  <course>248.11</course>
  <speed>0.022360679774997897</speed>
  <fix>3d</fix>
</trkpt>
<trkpt lat="40.0713749" lon="-105.229789">
  <ele>1583.0</ele>
  <time>2026-08-28T17:56:58Z</time>
  <course>0.0</course>
  <speed>0.0</speed>
  <fix>3d</fix>
</trkpt>
<trkpt lat="40.0713749" lon="-105.229789">
  <ele>1583.0</ele>
  <time>2026-08-28T17:56:58Z</time>
  <course>248.1</course>
  <speed>0.022360679774997897</speed>
  <fix>3d</fix>
</trkpt>
<trkpt lat="40.0713749" lon="-105.229789">
  <ele>1583.0</ele>
  <time>2026-08-28T17:56:58Z</time>
  <course>0.0</course>
  <speed>0.0</speed>
  <fix>3d</fix>
</trkpt>
<trkpt lat="40.0713749" lon="-105.229789">
  <ele>1583.0</ele>
  <time>2026-08-28T17:56:58Z</time>
  <course>248.1</course>
  <speed>0.022360679774997897</speed>
  <fix>3d</fix>
</trkpt>
<trkpt lat="40.0713749" lon="-105.229789">
  <ele>1583.0</ele>
  <time>2026-08-28T17:56:58Z</time>
  <course>0.0</course>
  <speed>0.0</speed>
  <fix>3d</fix>
</trkpt>
<trkpt lat="40.0713749" lon="-105.229789">
  <ele>1583.0</ele>
  <time>2026-08-28T17:56:58Z</time>
  <course>248.09</course>
  <speed>0.022360679774997897</speed>
  <fix>3d</fix>
</trkpt>
<trkpt lat="40.0713749" lon="-105.229789">
  <ele>1583.0</ele>
  <time>2026-08-28T17:56:58Z</time>
  <course>0.0</course>
  <speed>0.0</speed>
  <fix>3d</fix>
</trkpt>
<trkpt lat="40.0713749" lon="-105.229789">
  <ele>1583.0</ele>
  <time>2026-08-28T17:56:58Z</time>
  <course>248.09</course>
  <speed>0.022360679774997897</speed>
  <fix>3d</fix>
</trkpt>
<trkpt lat="40.0713749" lon="-105.229789">
  <ele>1583.0</ele>
  <time>2026-08-28T17:56:58Z</time>
  <course>0.0</course>
  <speed>0.0</speed>
  <fix>3d</fix>
</trkpt>
<trkpt lat="40.0713749" lon="-105.229789">
  <ele>1583.0</ele>
  <time>2026-08-28T17:56:58Z</time>
  <course>248.08</course>
  <speed>0.022360679774997897</speed>
  <fix>3d</fix>
</trkpt>
<trkpt lat="40.0713749" lon="-105.229789">
  <ele>1583.0</ele>
  <time>2026-08-28T17:56:58Z</time>
  <course>0.0</course>
  <speed>0.0</speed>
  <fix>3d</fix>
</trkpt>
<trkpt lat="40.0713749" lon="-105.229789">
  <ele>1583.0</ele>
  <time>2026-08-28T17:56:58Z</time>
  <course>248.08</course>
  <speed>0.022360679774997897</speed>
  <fix>3d</fix>
</trkpt>
<trkpt lat="40.0713749" lon="-105.229789">
  <ele>1583.0</ele>
  <time>2026-08-28T17:56:58Z</time>
  <course>0.0</course>
  <speed>0.0</speed>
  <fix>3d</fix>
</trkpt>
<trkpt lat="40.0713749" lon="-105.229789">
  <ele>1583.0</ele>
  <time>2026-08-28T17:56:58Z</time>
  <course>248.07</course>
  <speed>0.022360679774997897</speed>
  <fix>3d</fix>
</trkpt>
<trkpt lat="40.0713749" lon="-105.229789">
  <ele>1583.0</ele>
  <time>2026-08-28T17:56:58Z</time>
  <course>0.0</course>
  <speed>0.0</speed>
  <fix>3d</fix>
</trkpt>
<trkpt lat="40.0713749" lon="-105.229789">
  <ele>1583.0</ele>
  <time>2026-08-28T17:56:58Z</time>
  <course>248.07</course>
  <speed>0.022360679774997897</speed>
  <fix>3d</fix>
</trkpt>
<trkpt lat="40.0713749" lon="-105.229789">
  <ele>1583.0</ele>
  <time>2026-08-28T17:56:58Z</time>
  <course>0.0</course>
  <speed>0.0</speed>
  <fix>3d</fix>
</trkpt>
<trkpt lat="40.0713749" lon="-105.229789">
  <ele>1583.0</ele>
  <time>2026-08-28T17:56:58Z</time>
  <course>248.06</course>
  <speed>0.022360679774997897</speed>
  <fix>3d</fix>
</trkpt>
<trkpt lat="40.0713749" lon="-105.229789">
  <ele>1583.0</ele>
  <time>2026-08-28T17:56:58Z</time>
  <course>0.0</course>
  <speed>0.0</speed>
  <fix>3d</fix>
</trkpt>
<trkpt lat="40.0713749" lon="-105.229789">
  <ele>1583.0</ele>
  <time>2026-08-28T17:56:58Z</time>
  <course>248.06</course>
  <speed>0.022360679774997897</speed>
  <fix>3d</fix>
</trkpt>
<trkpt lat="40.0713749" lon="-105.229789">
  <ele>1583.0</ele>
  <time>2026-08-28T17:56:58Z</time>
  <course>0.0</course>
  <speed>0.0</speed>
  <fix>3d</fix>
</trkpt>
<trkpt lat="40.0713749" lon="-105.229789">
  <ele>1583.0</ele>
  <time>2026-08-28T17:56:58Z</time>
  <course>248.05</course>
  <speed>0.022360679774997897</speed>
  <fix>3d</fix>
</trkpt>
<trkpt lat="40.0713749" lon="-105.229789">
  <ele>1583.0</ele>
  <time>2026-08-28T17:56:58Z</time>
  <course>0.0</course>
  <speed>0.0</speed>
  <fix>3d</fix>
</trkpt>
<trkpt lat="40.0713749" lon="-105.229789">
  <ele>1583.0</ele>
  <time>2026-08-28T17:56:58Z</time>
  <course>248.05</course>
  <speed>0.022360679774997897</speed>
  <fix>3d</fix>
</trkpt>
<trkpt lat="40.0713749" lon="-105.229789">
  <ele>1583.0</ele>
  <time>2026-08-28T17:56:58Z</time>
  <course>0.0</course>
  <speed>0.0</speed>
  <fix>3d</fix>
</trkpt>
<trkpt lat="40.0713749" lon="-105.229789">
  <ele>1583.0</ele>
  <time>2026-08-28T17:56:58Z</time>
  <course>248.05</course>
  <speed>0.022360679774997897</speed>
  <fix>3d</fix>
</trkpt>
<trkpt lat="40.0713749" lon="-105.229789">
  <ele>1583.0</ele>
  <time>2026-08-28T17:56:58Z</time>
  <course>0.0</course>
  <speed>0.0</speed>
  <fix>3d</fix>
</trkpt>
<trkpt lat="40.0713749" lon="-105.229789">
  <ele>1583.0</ele>
  <time>2026-08-28T17:56:58Z</time>
  <course>248.04</course>
  <speed>0.022360679774997897</speed>
  <fix>3d</fix>
</trkpt>
<trkpt lat="40.0713749" lon="-105.229789">
  <ele>1583.0</ele>
  <time>2026-08-28T17:56:58Z</time>
  <course>0.0</course>
  <speed>0.0</speed>
  <fix>3d</fix>
</trkpt>
<trkpt lat="40.0713749" lon="-105.229789">
  <ele>1583.0</ele>
  <time>2026-08-28T17:56:58Z</time>
  <course>248.04</course>
  <speed>0.022360679774997897</speed>
  <fix>3d</fix>
</trkpt>
<trkpt lat="40.0713749" lon="-105.229789">
  <ele>1583.0</ele>
  <time>2026-08-28T17:56:58Z</time>
  <course>0.0</course>
  <speed>0.0</speed>
  <fix>3d</fix>
</trkpt>
<trkpt lat="40.0713749" lon="-105.229789">
  <ele>1583.0</ele>
  <time>2026-08-28T17:56:58Z</time>
  <course>248.03</course>
  <speed>0.022360679774997897</speed>
  <fix>3d</fix>
</trkpt>
<trkpt lat="40.0713749" lon="-105.229789">
  <ele>1583.0</ele>
  <time>2026-08-28T17:56:58Z</time>
  <course>0.0</course>
  <speed>0.0</speed>
  <fix>3d</fix>
</trkpt>
<trkpt lat="40.0713749" lon="-105.229789">
  <ele>1583.0</ele>
  <time>2026-08-28T17:56:58Z</time>
  <course>248.03</course>
  <speed>0.022360679774997897</speed>
  <fix>3d</fix>
</trkpt>
<trkpt lat="40.0713749" lon="-105.229789">
  <ele>1583.0</ele>
  <time>2026-08-28T17:56:58Z</time>
  <course>0.0</course>
  <speed>0.0</speed>
  <fix>3d</fix>
</trkpt>
<trkpt lat="40.0713749" lon="-105.229789">
  <ele>1583.0</ele>
  <time>2026-08-28T17:56:58Z</time>
  <course>248.02</course>
  <speed>0.022360679774997897</speed>
  <fix>3d</fix>
</trkpt>
<trkpt lat="40.0713749" lon="-105.229789">
  <ele>1583.0</ele>
  <time>2026-08-28T17:56:58Z</time>
  <course>0.0</course>
  <speed>0.0</speed>
  <fix>3d</fix>
</trkpt>
<trkpt lat="40.0713749" lon="-105.229789">
  <ele>1583.0</ele>
  <time>2026-08-28T17:56:58Z</time>
  <course>248.02</course>
  <speed>0.022360679774997897</speed>
  <fix>3d</fix>
</trkpt>
<trkpt lat="40.0713749" lon="-105.229789">
  <ele>1583.0</ele>
  <time>2026-08-28T17:56:58Z</time>
  <course>0.0</course>
  <speed>0.0</speed>
  <fix>3d</fix>
</trkpt>
<trkpt lat="40.0713749" lon="-105.229789">
  <ele>1583.0</ele>
  <time>2026-08-28T17:56:58Z</time>
  <course>248.01</course>
  <speed>0.022360679774997897</speed>
  <fix>3d</fix>
</trkpt>
<trkpt lat="40.0713749" lon="-105.229789">
  <ele>1583.0</ele>
  <time>2026-08-28T17:56:58Z</time>
  <course>0.0</course>
  <speed>0.0</speed>
  <fix>3d</fix>
</trkpt>
<trkpt lat="40.0713749" lon="-105.229789">
  <ele>1583.0</ele>
  <time>2026-08-28T17:56:58Z</time>
  <course>248.01</course>
  <speed>0.022360679774997897</speed>
  <fix>3d</fix>
</trkpt>
<trkpt lat="40.0713749" lon="-105.229789">
  <ele>1583.0</ele>
  <time>2026-08-28T17:56:58Z</time>
  <course>0.0</course>
  <speed>0.0</speed>
  <fix>3d</fix>
</trkpt>
<trkpt lat="40.0713749" lon="-105.229789">
  <ele>1583.0</ele>
  <time>2026-08-28T17:56:58Z</time>
  <course>248.0</course>
  <speed>0.022360679774997897</speed>
  <fix>3d</fix>
</trkpt>
<trkpt lat="40.0713749" lon="-105.229789">
  <ele>1583.0</ele>
  <time>2026-08-28T17:56:58Z</time>
  <course>0.0</course>
  <speed>0.0</speed>
  <fix>3d</fix>
</trkpt>
<trkpt lat="40.0713749" lon="-105.229789">
  <ele>1583.0</ele>
  <time>2026-08-28T17:56:58Z</time>
  <course>248.0</course>
  <speed>0.022360679774997897</speed>
  <fix>3d</fix>
</trkpt>
<trkpt lat="40.0713749" lon="-105.229789">
  <ele>1583.0</ele>
  <time>2026-08-28T17:56:58Z</time>
  <course>0.0</course>
  <speed>0.0</speed>
  <fix>3d</fix>
</trkpt>
<trkpt lat="40.0713749" lon="-105.229789">
  <ele>1583.0</ele>
  <time>2026-08-28T17:56:58Z</time>
  <course>247.99</course>
  <speed>0.022360679774997897</speed>
  <fix>3d</fix>
</trkpt>
<trkpt lat="40.0713749" lon="-105.229789">
  <ele>1583.0</ele>
  <time>2026-08-28T17:56:58Z</time>
  <course>0.0</course>
  <speed>0.0</speed>
  <fix>3d</fix>
</trkpt>
<trkpt lat="40.0713749" lon="-105.229789">
  <ele>1583.0</ele>
  <time>2026-08-28T17:56:58Z</time>
  <course>247.99</course>
  <speed>0.022360679774997897</speed>
  <fix>3d</fix>
</trkpt>
<trkpt lat="40.0713749" lon="-105.229789">
  <ele>1583.0</ele>
  <time>2026-08-28T17:56:58Z</time>
  <course>0.0</course>
  <speed>0.0</speed>
  <fix>3d</fix>
</trkpt>
<trkpt lat="40.0713749" lon="-105.229789">
  <ele>1583.0</ele>
  <time>2026-08-28T17:56:58Z</time>
  <course>247.99</course>
  <speed>0.022360679774997897</speed>
  <fix>3d</fix>
</trkpt>
<trkpt lat="40.0713749" lon="-105.229789">
  <ele>1583.0</ele>
  <time>2026-08-28T17:56:58Z</time>
  <course>0.0</course>
  <speed>0.0</speed>
  <fix>3d</fix>
</trkpt>
<trkpt lat="40.0713749" lon="-105.229789">
  <ele>1583.0</ele>
  <time>2026-08-28T17:56:58Z</time>
  <course>247.98</course>
  <speed>0.022360679774997897</speed>
  <fix>3d</fix>
</trkpt>
<trkpt lat="40.0713749" lon="-105.229789">
  <ele>1583.0</ele>
  <time>2026-08-28T17:56:58Z</time>
  <course>0.0</course>
  <speed>0.0</speed>
  <fix>3d</fix>
</trkpt>
<trkpt lat="40.0713749" lon="-105.229789">
  <ele>1583.0</ele>
  <time>2026-08-28T17:56:58Z</time>
  <course>247.98</course>
  <speed>0.022360679774997897</speed>
  <fix>3d</fix>
</trkpt>
<trkpt lat="40.0713749" lon="-105.229789">
  <ele>1583.0</ele>
  <time>2026-08-28T17:56:58Z</time>
  <course>0.0</course>
  <speed>0.0</speed>
  <fix>3d</fix>
</trkpt>
<trkpt lat="40.0713749" lon="-105.229789">
  <ele>1583.0</ele>
  <time>2026-08-28T17:56:58Z</time>
  <course>247.97</course>
  <speed>0.022360679774997897</speed>
  <fix>3d</fix>
</trkpt>
<trkpt lat="40.0713749" lon="-105.229789">
  <ele>1583.0</ele>
  <time>2026-08-28T17:56:58Z</time>
  <course>0.0</course>
  <speed>0.0</speed>
  <fix>3d</fix>
</trkpt>
<trkpt lat="40.0713749" lon="-105.229789">
  <ele>1583.0</ele>
  <time>2026-08-28T17:56:58Z</time>
  <course>247.97</course>
  <speed>0.022360679774997897</speed>
  <fix>3d</fix>
</trkpt>
<trkpt lat="40.0713749" lon="-105.229789">
  <ele>1583.0</ele>
  <time>2026-08-28T17:56:58Z</time>
  <course>0.0</course>
  <speed>0.0</speed>
  <fix>3d</fix>
</trkpt>
<trkpt lat="40.0713749" lon="-105.229789">
  <ele>1583.0</ele>
  <time>2026-08-28T17:56:58Z</time>
  <course>247.96</course>
  <speed>0.022360679774997897</speed>
  <fix>3d</fix>
</trkpt>
<trkpt lat="40.0713749" lon="-105.229789">
  <ele>1583.0</ele>
  <time>2026-08-28T17:56:58Z</time>
  <course>0.0</course>
  <speed>0.0</speed>
  <fix>3d</fix>
</trkpt>
<trkpt lat="40.0713749" lon="-105.229789">
  <ele>1583.0</ele>
  <time>2026-08-28T17:56:58Z</time>
  <course>247.96</course>
  <speed>0.022360679774997897</speed>
  <fix>3d</fix>
</trkpt>
<trkpt lat="40.0713749" lon="-105.229789">
  <ele>1583.0</ele>
  <time>2026-08-28T17:56:58Z</time>
  <course>0.0</course>
  <speed>0.0</speed>
  <fix>3d</fix>
</trkpt>
<trkpt lat="40.0713749" lon="-105.229789">
  <ele>1583.0</ele>
  <time>2026-08-28T17:56:58Z</time>
  <course>247.95</course>
  <speed>0.022360679774997897</speed>
  <fix>3d</fix>
</trkpt>
<trkpt lat="40.0713749" lon="-105.229789">
  <ele>1583.0</ele>
  <time>2026-08-28T17:56:58Z</time>
  <course>0.0</course>
  <speed>0.0</speed>
  <fix>3d</fix>
</trkpt>
<trkpt lat="40.0713749" lon="-105.229789">
  <ele>1583.0</ele>
  <time>2026-08-28T17:56:58Z</time>
  <course>247.95</course>
  <speed>0.022360679774997897</speed>
  <fix>3d</fix>
</trkpt>
<trkpt lat="40.0713749" lon="-105.229789">
  <ele>1583.0</ele>
  <time>2026-08-28T17:56:58Z</time>
  <course>0.0</course>
  <speed>0.0</speed>
  <fix>3d</fix>
</trkpt>
<trkpt lat="40.0713749" lon="-105.229789">
  <ele>1583.0</ele>
  <time>2026-08-28T17:56:58Z</time>
  <course>247.95</course>
  <speed>0.022360679774997897</speed>
  <fix>3d</fix>
</trkpt>
<trkpt lat="40.0713749" lon="-105.229789">
  <ele>1583.0</ele>
  <time>2026-08-28T17:56:58Z</time>
  <course>0.0</course>
  <speed>0.0</speed>
  <fix>3d</fix>
</trkpt>
<trkpt lat="40.0713749" lon="-105.229789">
  <ele>1583.0</ele>
  <time>2026-08-28T17:56:58Z</time>
  <course>247.94</course>
  <speed>0.022360679774997897</speed>
  <fix>3d</fix>
</trkpt>
<trkpt lat="40.0713749" lon="-105.229789">
  <ele>1583.0</ele>
  <time>2026-08-28T17:56:58Z</time>
  <course>0.0</course>
  <speed>0.0</speed>
  <fix>3d</fix>
</trkpt>
<trkpt lat="40.0713749" lon="-105.229789">
  <ele>1583.0</ele>
  <time>2026-08-28T17:56:58Z</time>
  <course>247.94</course>
  <speed>0.022360679774997897</speed>
  <fix>3d</fix>
</trkpt>
<trkpt lat="40.0713749" lon="-105.229789">
  <ele>1583.0</ele>
  <time>2026-08-28T17:56:58Z</time>
  <course>0.0</course>
  <speed>0.0</speed>
  <fix>3d</fix>
</trkpt>
<trkpt lat="40.0713749" lon="-105.229789">
  <ele>1583.0</ele>
  <time>2026-08-28T17:56:58Z</time>
  <course>247.93</course>
  <speed>0.022360679774997897</speed>
  <fix>3d</fix>
</trkpt>
<trkpt lat="40.0713749" lon="-105.229789">
  <ele>1583.0</ele>
  <time>2026-08-28T17:56:58Z</time>
  <course>0.0</course>
  <speed>0.0</speed>
  <fix>3d</fix>
</trkpt>
<trkpt lat="40.0713749" lon="-105.229789">
  <ele>1583.0</ele>
  <time>2026-08-28T17:56:58Z</time>
  <course>247.93</course>
  <speed>0.022360679774997897</speed>
  <fix>3d</fix>
</trkpt>
<trkpt lat="40.0713749" lon="-105.229789">
  <ele>1583.0</ele>
  <time>2026-08-28T17:56:58Z</time>
  <course>0.0</course>
  <speed>0.0</speed>
  <fix>3d</fix>
</trkpt>
<trkpt lat="40.0713749" lon="-105.229789">
  <ele>1583.0</ele>
  <time>2026-08-28T17:56:58Z</time>
  <course>247.92</course>
  <speed>0.022360679774997897</speed>
  <fix>3d</fix>
</trkpt>
<trkpt lat="40.0713749" lon="-105.229789">
  <ele>1583.0</ele>
  <time>2026-08-28T17:56:58Z</time>
  <course>0.0</course>
  <speed>0.0</speed>
  <fix>3d</fix>
</trkpt>
<trkpt lat="40.0713749" lon="-105.229789">
  <ele>1583.0</ele>
  <time>2026-08-28T17:56:58Z</time>
  <course>247.92</course>
  <speed>0.022360679774997897</speed>
  <fix>3d</fix>
</trkpt>
<trkpt lat="40.0713749" lon="-105.229789">
  <ele>1583.0</ele>
  <time>2026-08-28T17:56:58Z</time>
  <course>0.0</course>
  <speed>0.0</speed>
  <fix>3d</fix>
</trkpt>
<trkpt lat="40.0713749" lon="-105.229789">
  <ele>1583.0</ele>
  <time>2026-08-28T17:56:58Z</time>
  <course>247.92</course>
  <speed>0.022360679774997897</speed>
  <fix>3d</fix>
</trkpt>
<trkpt lat="40.0713749" lon="-105.229789">
  <ele>1583.0</ele>
  <time>2026-08-28T17:56:58Z</time>
  <course>0.0</course>
  <speed>0.0</speed>
  <fix>3d</fix>
</trkpt>
<trkpt lat="40.0713749" lon="-105.229789">
  <ele>1583.0</ele>
  <time>2026-08-28T17:56:58Z</time>
  <course>247.91</course>
  <speed>0.022360679774997897</speed>
  <fix>3d</fix>
</trkpt>
<trkpt lat="40.0713749" lon="-105.229789">
  <ele>1583.0</ele>
  <time>2026-08-28T17:56:58Z</time>
  <course>0.0</course>
  <speed>0.0</speed>
  <fix>3d</fix>
</trkpt>
<trkpt lat="40.0713749" lon="-105.229789">
  <ele>1583.0</ele>
  <time>2026-08-28T17:56:58Z</time>
  <course>247.91</course>
  <speed>0.022360679774997897</speed>
  <fix>3d</fix>
</trkpt>
<trkpt lat="40.0713749" lon="-105.229789">
  <ele>1583.0</ele>
  <time>2026-08-28T17:56:58Z</time>
  <course>0.0</course>
  <speed>0.0</speed>
  <fix>3d</fix>
</trkpt>
<trkpt lat="40.0713749" lon="-105.229789">
  <ele>1583.0</ele>
  <time>2026-08-28T17:56:58Z</time>
  <course>247.9</course>
  <speed>0.022360679774997897</speed>
  <fix>3d</fix>
</trkpt>
<trkpt lat="40.0713749" lon="-105.229789">
  <ele>1583.0</ele>
  <time>2026-08-28T17:56:58Z</time>
  <course>0.0</course>
  <speed>0.0</speed>
  <fix>3d</fix>
</trkpt>
<trkpt lat="40.0713749" lon="-105.229789">
  <ele>1583.0</ele>
  <time>2026-08-28T17:56:58Z</time>
  <course>247.9</course>
  <speed>0.022360679774997897</speed>
  <fix>3d</fix>
</trkpt>
<trkpt lat="40.0713749" lon="-105.229789">
  <ele>1583.0</ele>
  <time>2026-08-28T17:56:58Z</time>
  <course>0.0</course>
  <speed>0.0</speed>
  <fix>3d</fix>
</trkpt>
<trkpt lat="40.0713749" lon="-105.229789">
  <ele>1583.0</ele>
  <time>2026-08-28T17:56:58Z</time>
  <course>247.89</course>
  <speed>0.022360679774997897</speed>
  <fix>3d</fix>
</trkpt>
<trkpt lat="40.0713749" lon="-105.229789">
  <ele>1583.0</ele>
  <time>2026-08-28T17:56:58Z</time>
  <course>0.0</course>
  <speed>0.0</speed>
  <fix>3d</fix>
</trkpt>
<trkpt lat="40.0713749" lon="-105.229789">
  <ele>1583.0</ele>
  <time>2026-08-28T17:56:58Z</time>
  <course>247.89</course>
  <speed>0.022360679774997897</speed>
  <fix>3d</fix>
</trkpt>
<trkpt lat="40.0713749" lon="-105.229789">
  <ele>1583.0</ele>
  <time>2026-08-28T17:56:58Z</time>
  <course>0.0</course>
  <speed>0.0</speed>
  <fix>3d</fix>
</trkpt>
<trkpt lat="40.0713749" lon="-105.229789">
  <ele>1583.0</ele>
  <time>2026-08-28T17:56:58Z</time>
  <course>247.89</course>
  <speed>0.022360679774997897</speed>
  <fix>3d</fix>
</trkpt>
<trkpt lat="40.0713749" lon="-105.229789">
  <ele>1583.0</ele>
  <time>2026-08-28T17:56:58Z</time>
  <course>0.0</course>
  <speed>0.0</speed>
  <fix>3d</fix>
</trkpt>
<trkpt lat="40.0713749" lon="-105.229789">
  <ele>1583.0</ele>
  <time>2026-08-28T17:56:58Z</time>
  <course>247.88</course>
  <speed>0.0316227766016838</speed>
  <fix>3d</fix>
</trkpt>
<trkpt lat="40.0713749" lon="-105.229789">
  <ele>1583.0</ele>
  <time>2026-08-28T17:56:58Z</time>
  <course>0.0</course>
  <speed>0.0</speed>
  <fix>3d</fix>
</trkpt>
<trkpt lat="40.0713749" lon="-105.229789">
  <ele>1583.0</ele>
  <time>2026-08-28T17:56:58Z</time>
  <course>247.88</course>
  <speed>0.0316227766016838</speed>
  <fix>3d</fix>
</trkpt>
<trkpt lat="40.0713749" lon="-105.229789">
  <ele>1583.0</ele>
  <time>2026-08-28T17:56:58Z</time>
  <course>0.0</course>
  <speed>0.0</speed>
  <fix>3d</fix>
</trkpt>
<trkpt lat="40.0713749" lon="-105.229789">
  <ele>1583.0</ele>
  <time>2026-08-28T17:56:58Z</time>
  <course>247.87</course>
  <speed>0.0316227766016838</speed>
  <fix>3d</fix>
</trkpt>
<trkpt lat="40.0713749" lon="-105.229789">
  <ele>1583.0</ele>
  <time>2026-08-28T17:56:58Z</time>
  <course>0.0</course>
  <speed>0.0</speed>
  <fix>3d</fix>
</trkpt>
<trkpt lat="40.0713749" lon="-105.229789">
  <ele>1583.0</ele>
  <time>2026-08-28T17:56:58Z</time>
  <course>247.87</course>
  <speed>0.0316227766016838</speed>
  <fix>3d</fix>
</trkpt>
<trkpt lat="40.0713749" lon="-105.229789">
  <ele>1583.0</ele>
  <time>2026-08-28T17:56:58Z</time>
  <course>0.0</course>
  <speed>0.0</speed>
  <fix>3d</fix>
</trkpt>
<trkpt lat="40.0713749" lon="-105.229789">
  <ele>1583.0</ele>
  <time>2026-08-28T17:56:58Z</time>
  <course>247.87</course>
  <speed>0.0316227766016838</speed>
  <fix>3d</fix>
</trkpt>
<trkpt lat="40.0713749" lon="-105.229789">
  <ele>1583.0</ele>
  <time>2026-08-28T17:56:58Z</time>
  <course>0.0</course>
  <speed>0.0</speed>
  <fix>3d</fix>
</trkpt>
<trkpt lat="40.0713749" lon="-105.229789">
  <ele>1583.0</ele>
  <time>2026-08-28T17:56:58Z</time>
  <course>247.86</course>
  <speed>0.0316227766016838</speed>
  <fix>3d</fix>
</trkpt>
<trkpt lat="40.0713749" lon="-105.229789">
  <ele>1583.0</ele>
  <time>2026-08-28T17:56:58Z</time>
  <course>0.0</course>
  <speed>0.0</speed>
  <fix>3d</fix>
</trkpt>
<trkpt lat="40.0713749" lon="-105.229789">
  <ele>1583.0</ele>
  <time>2026-08-28T17:56:58Z</time>
  <course>247.86</course>
  <speed>0.0316227766016838</speed>
  <fix>3d</fix>
</trkpt>
<trkpt lat="40.0713749" lon="-105.229789">
  <ele>1583.0</ele>
  <time>2026-08-28T17:56:58Z</time>
  <course>0.0</course>
  <speed>0.0</speed>
  <fix>3d</fix>
</trkpt>
<trkpt lat="40.0713749" lon="-105.229789">
  <ele>1583.0</ele>
  <time>2026-08-28T17:56:58Z</time>
  <course>247.85</course>
  <speed>0.0316227766016838</speed>
  <fix>3d</fix>
</trkpt>
<trkpt lat="40.0713749" lon="-105.229789">
  <ele>1583.0</ele>
  <time>2026-08-28T17:56:58Z</time>
  <course>0.0</course>
  <speed>0.0</speed>
  <fix>3d</fix>
</trkpt>
<trkpt lat="40.0713749" lon="-105.229789">
  <ele>1583.0</ele>
  <time>2026-08-28T17:56:58Z</time>
  <course>247.85</course>
  <speed>0.0316227766016838</speed>
  <fix>3d</fix>
</trkpt>
<trkpt lat="40.0713749" lon="-105.229789">
  <ele>1583.0</ele>
  <time>2026-08-28T17:56:58Z</time>
  <course>0.0</course>
  <speed>0.0</speed>
  <fix>3d</fix>
</trkpt>
<trkpt lat="40.0713749" lon="-105.229789">
  <ele>1583.0</ele>
  <time>2026-08-28T17:56:58Z</time>
  <course>247.85</course>
  <speed>0.0316227766016838</speed>
  <fix>3d</fix>
</trkpt>
<trkpt lat="40.0713749" lon="-105.229789">
  <ele>1583.0</ele>
  <time>2026-08-28T17:56:58Z</time>
  <course>0.0</course>
  <speed>0.0</speed>
  <fix>3d</fix>
</trkpt>
<trkpt lat="40.0713749" lon="-105.229789">
  <ele>1583.0</ele>
  <time>2026-08-28T17:56:58Z</time>
  <course>247.84</course>
  <speed>0.0316227766016838</speed>
  <fix>3d</fix>
</trkpt>
<trkpt lat="40.0713749" lon="-105.229789">
  <ele>1583.0</ele>
  <time>2026-08-28T17:56:58Z</time>
  <course>0.0</course>
  <speed>0.0</speed>
  <fix>3d</fix>
</trkpt>
<trkpt lat="40.0713749" lon="-105.229789">
  <ele>1583.0</ele>
  <time>2026-08-28T17:56:58Z</time>
  <course>247.84</course>
  <speed>0.0316227766016838</speed>
  <fix>3d</fix>
</trkpt>
<trkpt lat="40.0713749" lon="-105.229789">
  <ele>1583.0</ele>
  <time>2026-08-28T17:56:58Z</time>
  <course>0.0</course>
  <speed>0.0</speed>
  <fix>3d</fix>
</trkpt>
<trkpt lat="40.0713749" lon="-105.229789">
  <ele>1583.0</ele>
  <time>2026-08-28T17:56:58Z</time>
  <course>247.83</course>
  <speed>0.0316227766016838</speed>
  <fix>3d</fix>
</trkpt>
<trkpt lat="40.0713749" lon="-105.229789">
  <ele>1583.0</ele>
  <time>2026-08-28T17:56:58Z</time>
  <course>0.0</course>
  <speed>0.0</speed>
  <fix>3d</fix>
</trkpt>
<trkpt lat="40.0713749" lon="-105.229789">
  <ele>1583.0</ele>
  <time>2026-08-28T17:56:58Z</time>
  <course>247.83</course>
  <speed>0.0316227766016838</speed>
  <fix>3d</fix>
</trkpt>
<trkpt lat="40.0713749" lon="-105.229789">
  <ele>1583.0</ele>
  <time>2026-08-28T17:56:58Z</time>
  <course>0.0</course>
  <speed>0.0</speed>
  <fix>3d</fix>
</trkpt>
<trkpt lat="40.0713749" lon="-105.229789">
  <ele>1583.0</ele>
  <time>2026-08-28T17:56:58Z</time>
  <course>247.83</course>
  <speed>0.0316227766016838</speed>
  <fix>3d</fix>
</trkpt>
<trkpt lat="40.0713749" lon="-105.229789">
  <ele>1583.0</ele>
  <time>2026-08-28T17:56:58Z</time>
  <course>0.0</course>
  <speed>0.0</speed>
  <fix>3d</fix>
</trkpt>
<trkpt lat="40.0713749" lon="-105.229789">
  <ele>1583.0</ele>
  <time>2026-08-28T17:56:58Z</time>
  <course>247.82</course>
  <speed>0.0316227766016838</speed>
  <fix>3d</fix>
</trkpt>
<trkpt lat="40.0713749" lon="-105.229789">
  <ele>1583.0</ele>
  <time>2026-08-28T17:56:58Z</time>
  <course>0.0</course>
  <speed>0.0</speed>
  <fix>3d</fix>
</trkpt>
<trkpt lat="40.0713749" lon="-105.229789">
  <ele>1583.0</ele>
  <time>2026-08-28T17:56:58Z</time>
  <course>247.82</course>
  <speed>0.0316227766016838</speed>
  <fix>3d</fix>
</trkpt>
<trkpt lat="40.0713749" lon="-105.229789">
  <ele>1583.0</ele>
  <time>2026-08-28T17:56:58Z</time>
  <course>0.0</course>
  <speed>0.0</speed>
  <fix>3d</fix>
</trkpt>
<trkpt lat="40.0713749" lon="-105.229789">
  <ele>1583.0</ele>
  <time>2026-08-28T17:56:58Z</time>
  <course>247.82</course>
  <speed>0.0316227766016838</speed>
  <fix>3d</fix>
</trkpt>
<trkpt lat="40.0713749" lon="-105.229789">
  <ele>1583.0</ele>
  <time>2026-08-28T17:56:58Z</time>
  <course>0.0</course>
  <speed>0.0</speed>
  <fix>3d</fix>
</trkpt>
<trkpt lat="40.0713749" lon="-105.229789">
  <ele>1583.0</ele>
  <time>2026-08-28T17:56:58Z</time>
  <course>247.81</course>
  <speed>0.0316227766016838</speed>
  <fix>3d</fix>
</trkpt>
<trkpt lat="40.0713749" lon="-105.229789">
  <ele>1583.0</ele>
  <time>2026-08-28T17:56:58Z</time>
  <course>0.0</course>
  <speed>0.0</speed>
  <fix>3d</fix>
</trkpt>
<trkpt lat="40.0713749" lon="-105.229789">
  <ele>1583.0</ele>
  <time>2026-08-28T17:56:58Z</time>
  <course>247.81</course>
  <speed>0.0316227766016838</speed>
  <fix>3d</fix>
</trkpt>
<trkpt lat="40.0713749" lon="-105.229789">
  <ele>1583.0</ele>
  <time>2026-08-28T17:56:58Z</time>
  <course>0.0</course>
  <speed>0.0</speed>
  <fix>3d</fix>
</trkpt>
<trkpt lat="40.0713749" lon="-105.229789">
  <ele>1583.0</ele>
  <time>2026-08-28T17:56:58Z</time>
  <course>247.8</course>
  <speed>0.0316227766016838</speed>
  <fix>3d</fix>
</trkpt>
<trkpt lat="40.0713749" lon="-105.229789">
  <ele>1583.0</ele>
  <time>2026-08-28T17:56:58Z</time>
  <course>0.0</course>
  <speed>0.0</speed>
  <fix>3d</fix>
</trkpt>
<trkpt lat="40.0713749" lon="-105.229789">
  <ele>1583.0</ele>
  <time>2026-08-28T17:56:58Z</time>
  <course>247.8</course>
  <speed>0.0316227766016838</speed>
  <fix>3d</fix>
</trkpt>
<trkpt lat="40.0713749" lon="-105.229789">
  <ele>1583.0</ele>
  <time>2026-08-28T17:56:58Z</time>
  <course>0.0</course>
  <speed>0.0</speed>
  <fix>3d</fix>
</trkpt>
<trkpt lat="40.0713749" lon="-105.229789">
  <ele>1583.0</ele>
  <time>2026-08-28T17:56:58Z</time>
  <course>247.8</course>
  <speed>0.0316227766016838</speed>
  <fix>3d</fix>
</trkpt>
<trkpt lat="40.0713749" lon="-105.229789">
  <ele>1583.0</ele>
  <time>2026-08-28T17:56:58Z</time>
  <course>0.0</course>
  <speed>0.0</speed>
  <fix>3d</fix>
</trkpt>
<trkpt lat="40.0713749" lon="-105.229789">
  <ele>1583.0</ele>
  <time>2026-08-28T17:56:58Z</time>
  <course>247.79</course>
  <speed>0.0316227766016838</speed>
  <fix>3d</fix>
</trkpt>
<trkpt lat="40.0713749" lon="-105.229789">
  <ele>1583.0</ele>
  <time>2026-08-28T17:56:58Z</time>
  <course>0.0</course>
  <speed>0.0</speed>
  <fix>3d</fix>
</trkpt>
<trkpt lat="40.0713749" lon="-105.229789">
  <ele>1583.0</ele>
  <time>2026-08-28T17:56:58Z</time>
  <course>247.79</course>
  <speed>0.0316227766016838</speed>
  <fix>3d</fix>
</trkpt>
<trkpt lat="40.0713749" lon="-105.229789">
  <ele>1583.0</ele>
  <time>2026-08-28T17:56:58Z</time>
  <course>0.0</course>
  <speed>0.0</speed>
  <fix>3d</fix>
</trkpt>
<trkpt lat="40.0713749" lon="-105.229789">
  <ele>1583.0</ele>
  <time>2026-08-28T17:56:58Z</time>
  <course>247.79</course>
  <speed>0.0316227766016838</speed>
  <fix>3d</fix>
</trkpt>
<trkpt lat="40.0713749" lon="-105.229789">
  <ele>1583.0</ele>
  <time>2026-08-28T17:56:58Z</time>
  <course>0.0</course>
  <speed>0.0</speed>
  <fix>3d</fix>
</trkpt>
<trkpt lat="40.0713749" lon="-105.229789">
  <ele>1583.0</ele>
  <time>2026-08-28T17:56:58Z</time>
  <course>247.78</course>
  <speed>0.0316227766016838</speed>
  <fix>3d</fix>
</trkpt>
<trkpt lat="40.0713749" lon="-105.229789">
  <ele>1583.0</ele>
  <time>2026-08-28T17:56:58Z</time>
  <course>0.0</course>
  <speed>0.0</speed>
  <fix>3d</fix>
</trkpt>
<trkpt lat="40.0713749" lon="-105.229789">
  <ele>1583.0</ele>
  <time>2026-08-28T17:56:58Z</time>
  <course>247.78</course>
  <speed>0.0316227766016838</speed>
  <fix>3d</fix>
</trkpt>
<trkpt lat="40.0713749" lon="-105.229789">
  <ele>1583.0</ele>
  <time>2026-08-28T17:56:58Z</time>
  <course>0.0</course>
  <speed>0.0</speed>
  <fix>3d</fix>
</trkpt>
<trkpt lat="40.0713749" lon="-105.229789">
  <ele>1583.0</ele>
  <time>2026-08-28T17:56:58Z</time>
  <course>247.78</course>
  <speed>0.0316227766016838</speed>
  <fix>3d</fix>
</trkpt>
<trkpt lat="40.0713749" lon="-105.229789">
  <ele>1583.0</ele>
  <time>2026-08-28T17:56:58Z</time>
  <course>0.0</course>
  <speed>0.0</speed>
  <fix>3d</fix>
</trkpt>
<trkpt lat="40.0713749" lon="-105.229789">
  <ele>1583.0</ele>
  <time>2026-08-28T17:56:58Z</time>
  <course>247.77</course>
  <speed>0.0316227766016838</speed>
  <fix>3d</fix>
</trkpt>
<trkpt lat="40.0713749" lon="-105.229789">
  <ele>1583.0</ele>
  <time>2026-08-28T17:56:58Z</time>
  <course>0.0</course>
  <speed>0.0</speed>
  <fix>3d</fix>
</trkpt>
<trkpt lat="40.0713749" lon="-105.229789">
  <ele>1583.0</ele>
  <time>2026-08-28T17:56:58Z</time>
  <course>247.77</course>
  <speed>0.0316227766016838</speed>
  <fix>3d</fix>
</trkpt>
<trkpt lat="40.0713749" lon="-105.229789">
  <ele>1583.0</ele>
  <time>2026-08-28T17:56:58Z</time>
  <course>0.0</course>
  <speed>0.0</speed>
  <fix>3d</fix>
</trkpt>
<trkpt lat="40.0713749" lon="-105.229789">
  <ele>1583.0</ele>
  <time>2026-08-28T17:56:58Z</time>
  <course>247.76</course>
  <speed>0.0316227766016838</speed>
  <fix>3d</fix>
</trkpt>
<trkpt lat="40.0713749" lon="-105.229789">
  <ele>1583.0</ele>
  <time>2026-08-28T17:56:58Z</time>
  <course>0.0</course>
  <speed>0.0</speed>
  <fix>3d</fix>
</trkpt>
<trkpt lat="40.0713749" lon="-105.229789">
  <ele>1583.0</ele>
  <time>2026-08-28T17:56:58Z</time>
  <course>247.76</course>
  <speed>0.0316227766016838</speed>
  <fix>3d</fix>
</trkpt>
<trkpt lat="40.0713749" lon="-105.229789">
  <ele>1583.0</ele>
  <time>2026-08-28T17:56:58Z</time>
  <course>0.0</course>
  <speed>0.0</speed>
  <fix>3d</fix>
</trkpt>
<trkpt lat="40.0713749" lon="-105.229789">
  <ele>1583.0</ele>
  <time>2026-08-28T17:56:58Z</time>
  <course>247.76</course>
  <speed>0.0316227766016838</speed>
  <fix>3d</fix>
</trkpt>
<trkpt lat="40.0713749" lon="-105.229789">
  <ele>1583.0</ele>
  <time>2026-08-28T17:56:58Z</time>
  <course>0.0</course>
  <speed>0.0</speed>
  <fix>3d</fix>
</trkpt>
<trkpt lat="40.0713749" lon="-105.229789">
  <ele>1583.0</ele>
  <time>2026-08-28T17:56:58Z</time>
  <course>247.75</course>
  <speed>0.0316227766016838</speed>
  <fix>3d</fix>
</trkpt>
<trkpt lat="40.0713749" lon="-105.229789">
  <ele>1583.0</ele>
  <time>2026-08-28T17:56:58Z</time>
  <course>0.0</course>
  <speed>0.0</speed>
  <fix>3d</fix>
</trkpt>
<trkpt lat="40.0713749" lon="-105.229789">
  <ele>1583.0</ele>
  <time>2026-08-28T17:56:58Z</time>
  <course>247.75</course>
  <speed>0.0316227766016838</speed>
  <fix>3d</fix>
</trkpt>
<trkpt lat="40.0713749" lon="-105.229789">
  <ele>1583.0</ele>
  <time>2026-08-28T17:56:58Z</time>
  <course>0.0</course>
  <speed>0.0</speed>
  <fix>3d</fix>
</trkpt>
<trkpt lat="40.0713749" lon="-105.229789">
  <ele>1583.0</ele>
  <time>2026-08-28T17:56:58Z</time>
  <course>247.75</course>
  <speed>0.0316227766016838</speed>
  <fix>3d</fix>
</trkpt>
<trkpt lat="40.0713749" lon="-105.229789">
  <ele>1583.0</ele>
  <time>2026-08-28T17:56:58Z</time>
  <course>0.0</course>
  <speed>0.0</speed>
  <fix>3d</fix>
</trkpt>
<trkpt lat="40.0713749" lon="-105.229789">
  <ele>1583.0</ele>
  <time>2026-08-28T17:56:58Z</time>
  <course>247.74</course>
  <speed>0.0316227766016838</speed>
  <fix>3d</fix>
</trkpt>
<trkpt lat="40.0713749" lon="-105.229789">
  <ele>1583.0</ele>
  <time>2026-08-28T17:56:58Z</time>
  <course>0.0</course>
  <speed>0.0</speed>
  <fix>3d</fix>
</trkpt>
<trkpt lat="40.0713749" lon="-105.229789">
  <ele>1583.0</ele>
  <time>2026-08-28T17:56:58Z</time>
  <course>247.74</course>
  <speed>0.0316227766016838</speed>
  <fix>3d</fix>
</trkpt>
<trkpt lat="40.0713749" lon="-105.229789">
  <ele>1583.0</ele>
  <time>2026-08-28T17:56:58Z</time>
  <course>0.0</course>
  <speed>0.0</speed>
  <fix>3d</fix>
</trkpt>
<trkpt lat="40.0713749" lon="-105.229789">
  <ele>1583.0</ele>
  <time>2026-08-28T17:56:58Z</time>
  <course>247.74</course>
  <speed>0.0316227766016838</speed>
  <fix>3d</fix>
</trkpt>
<trkpt lat="40.0713749" lon="-105.229789">
  <ele>1583.0</ele>
  <time>2026-08-28T17:56:58Z</time>
  <course>0.0</course>
  <speed>0.0</speed>
  <fix>3d</fix>
</trkpt>
<trkpt lat="40.0713749" lon="-105.229789">
  <ele>1583.0</ele>
  <time>2026-08-28T17:56:58Z</time>
  <course>247.73</course>
  <speed>0.0316227766016838</speed>
  <fix>3d</fix>
</trkpt>
<trkpt lat="40.0713749" lon="-105.229789">
  <ele>1583.0</ele>
  <time>2026-08-28T17:56:58Z</time>
  <course>0.0</course>
  <speed>0.0</speed>
  <fix>3d</fix>
</trkpt>
<trkpt lat="40.0713749" lon="-105.229789">
  <ele>1583.0</ele>
  <time>2026-08-28T17:56:58Z</time>
  <course>247.73</course>
  <speed>0.0316227766016838</speed>
  <fix>3d</fix>
</trkpt>
<trkpt lat="40.0713749" lon="-105.229789">
  <ele>1583.0</ele>
  <time>2026-08-28T17:56:58Z</time>
  <course>0.0</course>
  <speed>0.0</speed>
  <fix>3d</fix>
</trkpt>
<trkpt lat="40.0713749" lon="-105.229789">
  <ele>1583.0</ele>
  <time>2026-08-28T17:56:58Z</time>
  <course>247.73</course>
  <speed>0.0316227766016838</speed>
  <fix>3d</fix>
</trkpt>
<trkpt lat="40.0713749" lon="-105.229789">
  <ele>1583.0</ele>
  <time>2026-08-28T17:56:58Z</time>
  <course>0.0</course>
  <speed>0.0</speed>
  <fix>3d</fix>
</trkpt>
<trkpt lat="40.0713749" lon="-105.229789">
  <ele>1583.0</ele>
  <time>2026-08-28T17:56:58Z</time>
  <course>247.72</course>
  <speed>0.0316227766016838</speed>
  <fix>3d</fix>
</trkpt>
<trkpt lat="40.0713749" lon="-105.229789">
  <ele>1583.0</ele>
  <time>2026-08-28T17:56:58Z</time>
  <course>0.0</course>
  <speed>0.0</speed>
  <fix>3d</fix>
</trkpt>
<trkpt lat="40.0713749" lon="-105.229789">
  <ele>1583.0</ele>
  <time>2026-08-28T17:56:58Z</time>
  <course>247.72</course>
  <speed>0.0316227766016838</speed>
  <fix>3d</fix>
</trkpt>
<trkpt lat="40.0713749" lon="-105.229789">
  <ele>1583.0</ele>
  <time>2026-08-28T17:56:58Z</time>
  <course>0.0</course>
  <speed>0.0</speed>
  <fix>3d</fix>
</trkpt>
<trkpt lat="40.0713749" lon="-105.229789">
  <ele>1583.0</ele>
  <time>2026-08-28T17:56:58Z</time>
  <course>247.72</course>
  <speed>0.0316227766016838</speed>
  <fix>3d</fix>
</trkpt>
<trkpt lat="40.0713749" lon="-105.229789">
  <ele>1583.0</ele>
  <time>2026-08-28T17:56:58Z</time>
  <course>0.0</course>
  <speed>0.0</speed>
  <fix>3d</fix>
</trkpt>
<trkpt lat="40.0713749" lon="-105.229789">
  <ele>1583.0</ele>
  <time>2026-08-28T17:56:58Z</time>
  <course>247.71</course>
  <speed>0.0316227766016838</speed>
  <fix>3d</fix>
</trkpt>
<trkpt lat="40.0713749" lon="-105.229789">
  <ele>1583.0</ele>
  <time>2026-08-28T17:56:58Z</time>
  <course>0.0</course>
  <speed>0.0</speed>
  <fix>3d</fix>
</trkpt>
<trkpt lat="40.0713749" lon="-105.229789">
  <ele>1583.0</ele>
  <time>2026-08-28T17:56:58Z</time>
  <course>247.71</course>
  <speed>0.0316227766016838</speed>
  <fix>3d</fix>
</trkpt>
<trkpt lat="40.0713749" lon="-105.229789">
  <ele>1583.0</ele>
  <time>2026-08-28T17:56:58Z</time>
  <course>0.0</course>
  <speed>0.0</speed>
  <fix>3d</fix>
</trkpt>
<trkpt lat="40.0713749" lon="-105.229789">
  <ele>1583.0</ele>
  <time>2026-08-28T17:56:58Z</time>
  <course>247.71</course>
  <speed>0.0316227766016838</speed>
  <fix>3d</fix>
</trkpt>
<trkpt lat="40.0713749" lon="-105.229789">
  <ele>1583.0</ele>
  <time>2026-08-28T17:56:58Z</time>
  <course>0.0</course>
  <speed>0.0</speed>
  <fix>3d</fix>
</trkpt>
<trkpt lat="40.0713749" lon="-105.229789">
  <ele>1583.0</ele>
  <time>2026-08-28T17:56:58Z</time>
  <course>247.7</course>
  <speed>0.0316227766016838</speed>
  <fix>3d</fix>
</trkpt>
<trkpt lat="40.0713749" lon="-105.229789">
  <ele>1583.0</ele>
  <time>2026-08-28T17:56:58Z</time>
  <course>0.0</course>
  <speed>0.0</speed>
  <fix>3d</fix>
</trkpt>
<trkpt lat="40.0713749" lon="-105.229789">
  <ele>1583.0</ele>
  <time>2026-08-28T17:56:58Z</time>
  <course>247.7</course>
  <speed>0.0316227766016838</speed>
  <fix>3d</fix>
</trkpt>
<trkpt lat="40.0713749" lon="-105.229789">
  <ele>1583.0</ele>
  <time>2026-08-28T17:56:58Z</time>
  <course>0.0</course>
  <speed>0.0</speed>
  <fix>3d</fix>
</trkpt>
<trkpt lat="40.0713749" lon="-105.229789">
  <ele>1583.0</ele>
  <time>2026-08-28T17:56:58Z</time>
  <course>247.7</course>
  <speed>0.0316227766016838</speed>
  <fix>3d</fix>
</trkpt>
<trkpt lat="40.0713749" lon="-105.229789">
  <ele>1583.0</ele>
  <time>2026-08-28T17:56:58Z</time>
  <course>0.0</course>
  <speed>0.0</speed>
  <fix>3d</fix>
</trkpt>
<trkpt lat="40.0713749" lon="-105.229789">
  <ele>1583.0</ele>
  <time>2026-08-28T17:56:58Z</time>
  <course>247.69</course>
  <speed>0.0316227766016838</speed>
  <fix>3d</fix>
</trkpt>
<trkpt lat="40.0713749" lon="-105.229789">
  <ele>1583.0</ele>
  <time>2026-08-28T17:56:58Z</time>
  <course>0.0</course>
  <speed>0.0</speed>
  <fix>3d</fix>
</trkpt>
<trkpt lat="40.0713749" lon="-105.229789">
  <ele>1583.0</ele>
  <time>2026-08-28T17:56:58Z</time>
  <course>247.69</course>
  <speed>0.0316227766016838</speed>
  <fix>3d</fix>
</trkpt>
<trkpt lat="40.0713749" lon="-105.229789">
  <ele>1583.0</ele>
  <time>2026-08-28T17:56:58Z</time>
  <course>0.0</course>
  <speed>0.0</speed>
  <fix>3d</fix>
</trkpt>
<trkpt lat="40.0713749" lon="-105.229789">
  <ele>1583.0</ele>
  <time>2026-08-28T17:56:58Z</time>
  <course>247.69</course>
  <speed>0.0316227766016838</speed>
  <fix>3d</fix>
</trkpt>
<trkpt lat="40.0713749" lon="-105.229789">
  <ele>1583.0</ele>
  <time>2026-08-28T17:56:58Z</time>
  <course>0.0</course>
  <speed>0.0</speed>
  <fix>3d</fix>
</trkpt>
<trkpt lat="40.0713749" lon="-105.229789">
  <ele>1583.0</ele>
  <time>2026-08-28T17:56:58Z</time>
  <course>247.68</course>
  <speed>0.0316227766016838</speed>
  <fix>3d</fix>
</trkpt>
<trkpt lat="40.0713749" lon="-105.229789">
  <ele>1583.0</ele>
  <time>2026-08-28T17:56:58Z</time>
  <course>0.0</course>
  <speed>0.0</speed>
  <fix>3d</fix>
</trkpt>
<trkpt lat="40.0713749" lon="-105.229789">
  <ele>1583.0</ele>
  <time>2026-08-28T17:56:58Z</time>
  <course>247.68</course>
  <speed>0.0316227766016838</speed>
  <fix>3d</fix>
</trkpt>
<trkpt lat="40.0713749" lon="-105.229789">
  <ele>1583.0</ele>
  <time>2026-08-28T17:56:58Z</time>
  <course>0.0</course>
  <speed>0.0</speed>
  <fix>3d</fix>
</trkpt>
<trkpt lat="40.0713749" lon="-105.229789">
  <ele>1583.0</ele>
  <time>2026-08-28T17:56:58Z</time>
  <course>247.68</course>
  <speed>0.0316227766016838</speed>
  <fix>3d</fix>
</trkpt>
<trkpt lat="40.0713749" lon="-105.229789">
  <ele>1583.0</ele>
  <time>2026-08-28T17:56:58Z</time>
  <course>0.0</course>
  <speed>0.0</speed>
  <fix>3d</fix>
</trkpt>
<trkpt lat="40.0713749" lon="-105.229789">
  <ele>1583.0</ele>
  <time>2026-08-28T17:56:58Z</time>
  <course>247.67</course>
  <speed>0.0316227766016838</speed>
  <fix>3d</fix>
</trkpt>
<trkpt lat="40.0713749" lon="-105.229789">
  <ele>1583.0</ele>
  <time>2026-08-28T17:56:58Z</time>
  <course>0.0</course>
  <speed>0.0</speed>
  <fix>3d</fix>
</trkpt>
<trkpt lat="40.0713749" lon="-105.229789">
  <ele>1583.0</ele>
  <time>2026-08-28T17:56:58Z</time>
  <course>247.67</course>
  <speed>0.0316227766016838</speed>
  <fix>3d</fix>
</trkpt>
<trkpt lat="40.0713749" lon="-105.229789">
  <ele>1583.0</ele>
  <time>2026-08-28T17:56:58Z</time>
  <course>0.0</course>
  <speed>0.0</speed>
  <fix>3d</fix>
</trkpt>
<trkpt lat="40.0713749" lon="-105.229789">
  <ele>1583.0</ele>
  <time>2026-08-28T17:56:58Z</time>
  <course>247.67</course>
  <speed>0.0316227766016838</speed>
  <fix>3d</fix>
</trkpt>
<trkpt lat="40.0713749" lon="-105.229789">
  <ele>1583.0</ele>
  <time>2026-08-28T17:56:58Z</time>
  <course>0.0</course>
  <speed>0.0</speed>
  <fix>3d</fix>
</trkpt>
<trkpt lat="40.0713749" lon="-105.229789">
  <ele>1583.0</ele>
  <time>2026-08-28T17:56:58Z</time>
  <course>247.66</course>
  <speed>0.0316227766016838</speed>
  <fix>3d</fix>
</trkpt>
<trkpt lat="40.0713749" lon="-105.229789">
  <ele>1583.0</ele>
  <time>2026-08-28T17:56:58Z</time>
  <course>0.0</course>
  <speed>0.0</speed>
  <fix>3d</fix>
</trkpt>
<trkpt lat="40.0713749" lon="-105.229789">
  <ele>1583.0</ele>
  <time>2026-08-28T17:56:58Z</time>
  <course>247.66</course>
  <speed>0.0316227766016838</speed>
  <fix>3d</fix>
</trkpt>
<trkpt lat="40.0713749" lon="-105.229789">
  <ele>1583.0</ele>
  <time>2026-08-28T17:56:58Z</time>
  <course>0.0</course>
  <speed>0.0</speed>
  <fix>3d</fix>
</trkpt>
<trkpt lat="40.0713749" lon="-105.229789">
  <ele>1583.0</ele>
  <time>2026-08-28T17:56:58Z</time>
  <course>247.66</course>
  <speed>0.0316227766016838</speed>
  <fix>3d</fix>
</trkpt>
<trkpt lat="40.0713749" lon="-105.229789">
  <ele>1583.0</ele>
  <time>2026-08-28T17:56:58Z</time>
  <course>0.0</course>
  <speed>0.0</speed>
  <fix>3d</fix>
</trkpt>
<trkpt lat="40.0713749" lon="-105.229789">
  <ele>1583.0</ele>
  <time>2026-08-28T17:56:58Z</time>
  <course>247.65</course>
  <speed>0.0316227766016838</speed>
  <fix>3d</fix>
</trkpt>
<trkpt lat="40.0713749" lon="-105.229789">
  <ele>1583.0</ele>
  <time>2026-08-28T17:56:58Z</time>
  <course>0.0</course>
  <speed>0.0</speed>
  <fix>3d</fix>
</trkpt>
<trkpt lat="40.0713749" lon="-105.229789">
  <ele>1583.0</ele>
  <time>2026-08-28T17:56:58Z</time>
  <course>247.65</course>
  <speed>0.0316227766016838</speed>
  <fix>3d</fix>
</trkpt>
<trkpt lat="40.0713749" lon="-105.229789">
  <ele>1583.0</ele>
  <time>2026-08-28T17:56:58Z</time>
  <course>0.0</course>
  <speed>0.0</speed>
  <fix>3d</fix>
</trkpt>
<trkpt lat="40.0713749" lon="-105.229789">
  <ele>1583.0</ele>
  <time>2026-08-28T17:56:58Z</time>
  <course>247.65</course>
  <speed>0.0316227766016838</speed>
  <fix>3d</fix>
</trkpt>
<trkpt lat="40.0713749" lon="-105.229789">
  <ele>1583.0</ele>
  <time>2026-08-28T17:56:58Z</time>
  <course>0.0</course>
  <speed>0.0</speed>
  <fix>3d</fix>
</trkpt>
<trkpt lat="40.0713749" lon="-105.229789">
  <ele>1583.0</ele>
  <time>2026-08-28T17:56:58Z</time>
  <course>247.64</course>
  <speed>0.0316227766016838</speed>
  <fix>3d</fix>
</trkpt>
<trkpt lat="40.0713749" lon="-105.229789">
  <ele>1583.0</ele>
  <time>2026-08-28T17:56:58Z</time>
  <course>0.0</course>
  <speed>0.0</speed>
  <fix>3d</fix>
</trkpt>
<trkpt lat="40.0713749" lon="-105.229789">
  <ele>1583.0</ele>
  <time>2026-08-28T17:56:58Z</time>
  <course>247.64</course>
  <speed>0.0316227766016838</speed>
  <fix>3d</fix>
</trkpt>
<trkpt lat="40.0713749" lon="-105.229789">
  <ele>1583.0</ele>
  <time>2026-08-28T17:56:58Z</time>
  <course>0.0</course>
  <speed>0.0</speed>
  <fix>3d</fix>
</trkpt>
<trkpt lat="40.0713749" lon="-105.229789">
  <ele>1583.0</ele>
  <time>2026-08-28T17:56:58Z</time>
  <course>247.64</course>
  <speed>0.0316227766016838</speed>
  <fix>3d</fix>
</trkpt>
<trkpt lat="40.0713749" lon="-105.229789">
  <ele>1583.0</ele>
  <time>2026-08-28T17:56:58Z</time>
  <course>0.0</course>
  <speed>0.0</speed>
  <fix>3d</fix>
</trkpt>
<trkpt lat="40.0713749" lon="-105.229789">
  <ele>1583.0</ele>
  <time>2026-08-28T17:56:58Z</time>
  <course>247.64</course>
  <speed>0.0316227766016838</speed>
  <fix>3d</fix>
</trkpt>
<trkpt lat="40.0713749" lon="-105.229789">
  <ele>1583.0</ele>
  <time>2026-08-28T17:56:58Z</time>
  <course>0.0</course>
  <speed>0.0</speed>
  <fix>3d</fix>
</trkpt>
<trkpt lat="40.0713749" lon="-105.229789">
  <ele>1583.0</ele>
  <time>2026-08-28T17:56:58Z</time>
  <course>247.63</course>
  <speed>0.0316227766016838</speed>
  <fix>3d</fix>
</trkpt>
<trkpt lat="40.0713749" lon="-105.229789">
  <ele>1583.0</ele>
  <time>2026-08-28T17:56:58Z</time>
  <course>0.0</course>
  <speed>0.0</speed>
  <fix>3d</fix>
</trkpt>
<trkpt lat="40.0713749" lon="-105.229789">
  <ele>1583.0</ele>
  <time>2026-08-28T17:56:58Z</time>
  <course>247.63</course>
  <speed>0.0316227766016838</speed>
  <fix>3d</fix>
</trkpt>
<trkpt lat="40.0713749" lon="-105.229789">
  <ele>1583.0</ele>
  <time>2026-08-28T17:56:58Z</time>
  <course>0.0</course>
  <speed>0.0</speed>
  <fix>3d</fix>
</trkpt>
<trkpt lat="40.0713749" lon="-105.229789">
  <ele>1583.0</ele>
  <time>2026-08-28T17:56:58Z</time>
  <course>247.63</course>
  <speed>0.0316227766016838</speed>
  <fix>3d</fix>
</trkpt>
<trkpt lat="40.0713749" lon="-105.229789">
  <ele>1583.0</ele>
  <time>2026-08-28T17:56:58Z</time>
  <course>0.0</course>
  <speed>0.0</speed>
  <fix>3d</fix>
</trkpt>
<trkpt lat="40.0713749" lon="-105.229789">
  <ele>1583.0</ele>
  <time>2026-08-28T17:56:58Z</time>
  <course>247.62</course>
  <speed>0.0316227766016838</speed>
  <fix>3d</fix>
</trkpt>
<trkpt lat="40.0713749" lon="-105.229789">
  <ele>1583.0</ele>
  <time>2026-08-28T17:56:58Z</time>
  <course>0.0</course>
  <speed>0.0</speed>
  <fix>3d</fix>
</trkpt>
<trkpt lat="40.0713749" lon="-105.229789">
  <ele>1583.0</ele>
  <time>2026-08-28T17:56:58Z</time>
  <course>247.62</course>
  <speed>0.0316227766016838</speed>
  <fix>3d</fix>
</trkpt>
<trkpt lat="40.0713749" lon="-105.229789">
  <ele>1583.0</ele>
  <time>2026-08-28T17:56:58Z</time>
  <course>0.0</course>
  <speed>0.0</speed>
  <fix>3d</fix>
</trkpt>
<trkpt lat="40.0713749" lon="-105.229789">
  <ele>1583.0</ele>
  <time>2026-08-28T17:56:58Z</time>
  <course>247.62</course>
  <speed>0.0316227766016838</speed>
  <fix>3d</fix>
</trkpt>
<trkpt lat="40.0713749" lon="-105.229789">
  <ele>1583.0</ele>
  <time>2026-08-28T17:56:58Z</time>
  <course>0.0</course>
  <speed>0.0</speed>
  <fix>3d</fix>
</trkpt>
<trkpt lat="40.0713749" lon="-105.229789">
  <ele>1583.0</ele>
  <time>2026-08-28T17:56:58Z</time>
  <course>247.62</course>
  <speed>0.0316227766016838</speed>
  <fix>3d</fix>
</trkpt>
<trkpt lat="40.0713749" lon="-105.229789">
  <ele>1583.0</ele>
  <time>2026-08-28T17:56:58Z</time>
  <course>0.0</course>
  <speed>0.0</speed>
  <fix>3d</fix>
</trkpt>
<trkpt lat="40.0713749" lon="-105.229789">
  <ele>1583.0</ele>
  <time>2026-08-28T17:56:58Z</time>
  <course>247.61</course>
  <speed>0.0316227766016838</speed>
  <fix>3d</fix>
</trkpt>
<trkpt lat="40.0713749" lon="-105.229789">
  <ele>1583.0</ele>
  <time>2026-08-28T17:56:58Z</time>
  <course>0.0</course>
  <speed>0.0</speed>
  <fix>3d</fix>
</trkpt>
<trkpt lat="40.0713749" lon="-105.229789">
  <ele>1583.0</ele>
  <time>2026-08-28T17:56:58Z</time>
  <course>247.61</course>
  <speed>0.0316227766016838</speed>
  <fix>3d</fix>
</trkpt>
<trkpt lat="40.0713749" lon="-105.229789">
  <ele>1583.0</ele>
  <time>2026-08-28T17:56:58Z</time>
  <course>0.0</course>
  <speed>0.0</speed>
  <fix>3d</fix>
</trkpt>
<trkpt lat="40.0713749" lon="-105.229789">
  <ele>1583.0</ele>
  <time>2026-08-28T17:56:58Z</time>
  <course>247.61</course>
  <speed>0.0316227766016838</speed>
  <fix>3d</fix>
</trkpt>
<trkpt lat="40.0713749" lon="-105.229789">
  <ele>1583.0</ele>
  <time>2026-08-28T17:56:58Z</time>
  <course>0.0</course>
  <speed>0.0</speed>
  <fix>3d</fix>
</trkpt>
<trkpt lat="40.0713749" lon="-105.229789">
  <ele>1583.0</ele>
  <time>2026-08-28T17:56:58Z</time>
  <course>247.6</course>
  <speed>0.0316227766016838</speed>
  <fix>3d</fix>
</trkpt>
<trkpt lat="40.0713749" lon="-105.229789">
  <ele>1583.0</ele>
  <time>2026-08-28T17:56:58Z</time>
  <course>0.0</course>
  <speed>0.0</speed>
  <fix>3d</fix>
</trkpt>
<trkpt lat="40.0713749" lon="-105.229789">
  <ele>1583.0</ele>
  <time>2026-08-28T17:56:58Z</time>
  <course>247.6</course>
  <speed>0.0316227766016838</speed>
  <fix>3d</fix>
</trkpt>
<trkpt lat="40.0713749" lon="-105.229789">
  <ele>1583.0</ele>
  <time>2026-08-28T17:56:58Z</time>
  <course>0.0</course>
  <speed>0.0</speed>
  <fix>3d</fix>
</trkpt>
<trkpt lat="40.0713749" lon="-105.229789">
  <ele>1583.0</ele>
  <time>2026-08-28T17:56:58Z</time>
  <course>247.6</course>
  <speed>0.0316227766016838</speed>
  <fix>3d</fix>
</trkpt>
<trkpt lat="40.0713749" lon="-105.229789">
  <ele>1583.0</ele>
  <time>2026-08-28T17:56:58Z</time>
  <course>0.0</course>
  <speed>0.0</speed>
  <fix>3d</fix>
</trkpt>
<trkpt lat="40.0713749" lon="-105.229789">
  <ele>1583.0</ele>
  <time>2026-08-28T17:56:58Z</time>
  <course>247.6</course>
  <speed>0.0316227766016838</speed>
  <fix>3d</fix>
</trkpt>
<trkpt lat="40.0713749" lon="-105.229789">
  <ele>1583.0</ele>
  <time>2026-08-28T17:56:58Z</time>
  <course>0.0</course>
  <speed>0.0</speed>
  <fix>3d</fix>
</trkpt>
<trkpt lat="40.0713749" lon="-105.229789">
  <ele>1583.0</ele>
  <time>2026-08-28T17:56:58Z</time>
  <course>247.59</course>
  <speed>0.0316227766016838</speed>
  <fix>3d</fix>
</trkpt>
<trkpt lat="40.0713749" lon="-105.229789">
  <ele>1583.0</ele>
  <time>2026-08-28T17:56:58Z</time>
  <course>0.0</course>
  <speed>0.0</speed>
  <fix>3d</fix>
</trkpt>
<trkpt lat="40.0713749" lon="-105.229789">
  <ele>1582.92</ele>
  <time>2026-08-28T17:56:58Z</time>
  <course>247.59</course>
  <speed>0.0</speed>
  <fix>3d</fix>
</trkpt>
<trkpt lat="40.0713749" lon="-105.229789">
  <ele>1583.0</ele>
  <time>2026-08-28T17:56:58Z</time>
  <course>0.0</course>
  <speed>0.0</speed>
  <fix>3d</fix>
</trkpt>
<trkpt lat="40.0713749" lon="-105.229789">
  <ele>1582.92</ele>
  <time>2026-08-28T17:56:58Z</time>
  <course>247.59</course>
  <speed>0.0</speed>
  <fix>3d</fix>
</trkpt>
<trkpt lat="40.0713749" lon="-105.229789">
  <ele>1583.0</ele>
  <time>2026-08-28T17:56:58Z</time>
  <course>0.0</course>
  <speed>0.0</speed>
  <fix>3d</fix>
</trkpt>
<trkpt lat="40.0713749" lon="-105.229789">
  <ele>1582.91</ele>
  <time>2026-08-28T17:56:58Z</time>
  <course>247.58</course>
  <speed>0.0</speed>
  <fix>3d</fix>
</trkpt>
<trkpt lat="40.0713749" lon="-105.229789">
  <ele>1583.0</ele>
  <time>2026-08-28T17:56:58Z</time>
  <course>0.0</course>
  <speed>0.0</speed>
  <fix>3d</fix>
</trkpt>
<trkpt lat="40.0713749" lon="-105.229789">
  <ele>1582.91</ele>
  <time>2026-08-28T17:56:58Z</time>
  <course>247.58</course>
  <speed>0.0</speed>
  <fix>3d</fix>
</trkpt>
<trkpt lat="40.0713749" lon="-105.229789">
  <ele>1583.0</ele>
  <time>2026-08-28T17:56:58Z</time>
  <course>0.0</course>
  <speed>0.0</speed>
  <fix>3d</fix>
</trkpt>
<trkpt lat="40.0713749" lon="-105.229789">
  <ele>1582.9</ele>
  <time>2026-08-28T17:56:58Z</time>
  <course>247.58</course>
  <speed>0.0</speed>
  <fix>3d</fix>
</trkpt>
<trkpt lat="40.0713749" lon="-105.229789">
  <ele>1583.0</ele>
  <time>2026-08-28T17:56:58Z</time>
  <course>0.0</course>
  <speed>0.0</speed>
  <fix>3d</fix>
</trkpt>
<trkpt lat="40.0713749" lon="-105.229789">
  <ele>1582.9</ele>
  <time>2026-08-28T17:56:58Z</time>
  <course>247.58</course>
  <speed>0.0</speed>
  <fix>3d</fix>
</trkpt>
<trkpt lat="40.0713749" lon="-105.229789">
  <ele>1583.0</ele>
  <time>2026-08-28T17:56:58Z</time>
  <course>0.0</course>
  <speed>0.0</speed>
  <fix>3d</fix>
</trkpt>
<trkpt lat="40.0713749" lon="-105.229789">
  <ele>1582.9</ele>
  <time>2026-08-28T17:56:58Z</time>
  <course>247.57</course>
  <speed>0.0</speed>
  <fix>3d</fix>
</trkpt>
<trkpt lat="40.0713749" lon="-105.229789">
  <ele>1583.0</ele>
  <time>2026-08-28T17:56:58Z</time>
  <course>0.0</course>
  <speed>0.0</speed>
  <fix>3d</fix>
</trkpt>
<trkpt lat="40.0713749" lon="-105.229789">
  <ele>1582.9</ele>
  <time>2026-08-28T17:56:58Z</time>
  <course>247.57</course>
  <speed>0.0</speed>
  <fix>3d</fix>
</trkpt>
<trkpt lat="40.0713749" lon="-105.229789">
  <ele>1583.0</ele>
  <time>2026-08-28T17:56:58Z</time>
  <course>0.0</course>
  <speed>0.0</speed>
  <fix>3d</fix>
</trkpt>
<trkpt lat="40.0713749" lon="-105.229789">
  <ele>1582.9</ele>
  <time>2026-08-28T17:56:58Z</time>
  <course>247.57</course>
  <speed>0.0</speed>
  <fix>3d</fix>
</trkpt>
<trkpt lat="40.0713749" lon="-105.229789">
  <ele>1583.0</ele>
  <time>2026-08-28T17:56:58Z</time>
  <course>0.0</course>
  <speed>0.0</speed>
  <fix>3d</fix>
</trkpt>
<trkpt lat="40.0713749" lon="-105.229789">
  <ele>1582.9</ele>
  <time>2026-08-28T17:56:58Z</time>
  <course>247.57</course>
  <speed>0.01</speed>
  <fix>3d</fix>
</trkpt>
<trkpt lat="40.0713749" lon="-105.229789">
  <ele>1583.0</ele>
  <time>2026-08-28T17:56:58Z</time>
  <course>0.0</course>
  <speed>0.0</speed>
  <fix>3d</fix>
</trkpt>
<trkpt lat="40.0713749" lon="-105.229789">
  <ele>1582.9</ele>
  <time>2026-08-28T17:56:58Z</time>
  <course>247.56</course>
  <speed>0.01</speed>
  <fix>3d</fix>
</trkpt>
<trkpt lat="40.0713749" lon="-105.229789">
  <ele>1583.0</ele>
  <time>2026-08-28T17:56:58Z</time>
  <course>0.0</course>
  <speed>0.0</speed>
  <fix>3d</fix>
</trkpt>
<trkpt lat="40.0713749" lon="-105.229789">
  <ele>1582.91</ele>
  <time>2026-08-28T17:56:58Z</time>
  <course>247.56</course>
  <speed>0.01</speed>
  <fix>3d</fix>
</trkpt>
<trkpt lat="40.0713749" lon="-105.229789">
  <ele>1583.0</ele>
  <time>2026-08-28T17:56:58Z</time>
  <course>0.0</course>
  <speed>0.0</speed>
  <fix>3d</fix>
</trkpt>
<trkpt lat="40.0713749" lon="-105.229789">
  <ele>1582.91</ele>
  <time>2026-08-28T17:56:58Z</time>
  <course>247.56</course>
  <speed>0.01</speed>
  <fix>3d</fix>
</trkpt>
<trkpt lat="40.0713749" lon="-105.229789">
  <ele>1583.0</ele>
  <time>2026-08-28T17:56:58Z</time>
  <course>0.0</course>
  <speed>0.0</speed>
  <fix>3d</fix>
</trkpt>
<trkpt lat="40.0713749" lon="-105.229789">
  <ele>1582.92</ele>
  <time>2026-08-28T17:56:58Z</time>
  <course>247.56</course>
  <speed>0.01</speed>
  <fix>3d</fix>
</trkpt>
<trkpt lat="40.0713749" lon="-105.229789">
  <ele>1583.0</ele>
  <time>2026-08-28T17:56:58Z</time>
  <course>0.0</course>
  <speed>0.0</speed>
  <fix>3d</fix>
</trkpt>
<trkpt lat="40.0713749" lon="-105.229789">
  <ele>1582.92</ele>
  <time>2026-08-28T17:56:58Z</time>
  <course>247.55</course>
  <speed>0.01</speed>
  <fix>3d</fix>
</trkpt>
<trkpt lat="40.0713749" lon="-105.229789">
  <ele>1583.0</ele>
  <time>2026-08-28T17:56:58Z</time>
  <course>0.0</course>
  <speed>0.0</speed>
  <fix>3d</fix>
</trkpt>
<trkpt lat="40.0713749" lon="-105.229789">
  <ele>1582.92</ele>
  <time>2026-08-28T17:56:58Z</time>
  <course>247.55</course>
  <speed>0.01</speed>
  <fix>3d</fix>
</trkpt>
<trkpt lat="40.0713749" lon="-105.229789">
  <ele>1583.0</ele>
  <time>2026-08-28T17:56:58Z</time>
  <course>0.0</course>
  <speed>0.0</speed>
  <fix>3d</fix>
</trkpt>
<trkpt lat="40.0713749" lon="-105.229789">
  <ele>1582.93</ele>
  <time>2026-08-28T17:56:58Z</time>
  <course>247.55</course>
  <speed>0.01</speed>
  <fix>3d</fix>
</trkpt>
<trkpt lat="40.0713749" lon="-105.229789">
  <ele>1583.0</ele>
  <time>2026-08-28T17:56:58Z</time>
  <course>0.0</course>
  <speed>0.0</speed>
  <fix>3d</fix>
</trkpt>
<trkpt lat="40.0713749" lon="-105.229789">
  <ele>1582.93</ele>
  <time>2026-08-28T17:56:58Z</time>
  <course>247.55</course>
  <speed>0.01</speed>
  <fix>3d</fix>
</trkpt>
<trkpt lat="40.0713749" lon="-105.229789">
  <ele>1583.0</ele>
  <time>2026-08-28T17:56:58Z</time>
  <course>0.0</course>
  <speed>0.0</speed>
  <fix>3d</fix>
</trkpt>
<trkpt lat="40.0713749" lon="-105.229789">
  <ele>1582.93</ele>
  <time>2026-08-28T17:56:58Z</time>
  <course>247.54</course>
  <speed>0.02</speed>
  <fix>3d</fix>
</trkpt>
<trkpt lat="40.0713749" lon="-105.229789">
  <ele>1583.0</ele>
  <time>2026-08-28T17:56:58Z</time>
  <course>0.0</course>
  <speed>0.0</speed>
  <fix>3d</fix>
</trkpt>
<trkpt lat="40.0713749" lon="-105.229789">
  <ele>1582.93</ele>
  <time>2026-08-28T17:56:58Z</time>
  <course>247.54</course>
  <speed>0.02</speed>
  <fix>3d</fix>
</trkpt>
<trkpt lat="40.0713749" lon="-105.229789">
  <ele>1583.0</ele>
  <time>2026-08-28T17:56:58Z</time>
  <course>0.0</course>
  <speed>0.0</speed>
  <fix>3d</fix>
</trkpt>
<trkpt lat="40.0713749" lon="-105.229789">
  <ele>1582.93</ele>
  <time>2026-08-28T17:56:58Z</time>
  <course>247.54</course>
  <speed>0.02</speed>
  <fix>3d</fix>
</trkpt>
<trkpt lat="40.0713749" lon="-105.229789">
  <ele>1583.0</ele>
  <time>2026-08-28T17:56:58Z</time>
  <course>0.0</course>
  <speed>0.0</speed>
  <fix>3d</fix>
</trkpt>
<trkpt lat="40.0713749" lon="-105.229789">
  <ele>1582.93</ele>
  <time>2026-08-28T17:56:58Z</time>
  <course>247.54</course>
  <speed>0.022360679774997897</speed>
  <fix>3d</fix>
</trkpt>
<trkpt lat="40.0713749" lon="-105.229789">
  <ele>1583.0</ele>
  <time>2026-08-28T17:56:58Z</time>
  <course>0.0</course>
  <speed>0.0</speed>
  <fix>3d</fix>
</trkpt>
<trkpt lat="40.0713749" lon="-105.229789">
  <ele>1582.94</ele>
  <time>2026-08-28T17:56:58Z</time>
  <course>247.53</course>
  <speed>0.022360679774997897</speed>
  <fix>3d</fix>
</trkpt>
<trkpt lat="40.0713749" lon="-105.229789">
  <ele>1583.0</ele>
  <time>2026-08-28T17:56:58Z</time>
  <course>0.0</course>
  <speed>0.0</speed>
  <fix>3d</fix>
</trkpt>
<trkpt lat="40.0713749" lon="-105.229789">
  <ele>1582.94</ele>
  <time>2026-08-28T17:56:58Z</time>
  <course>247.53</course>
  <speed>0.022360679774997897</speed>
  <fix>3d</fix>
</trkpt>
<trkpt lat="40.0713749" lon="-105.229789">
  <ele>1583.0</ele>
  <time>2026-08-28T17:56:58Z</time>
  <course>0.0</course>
  <speed>0.0</speed>
  <fix>3d</fix>
</trkpt>
<trkpt lat="40.071375" lon="-105.229789">
  <ele>1582.94</ele>
  <time>2026-08-28T17:56:58Z</time>
  <course>247.53</course>
  <speed>0.022360679774997897</speed>
  <fix>3d</fix>
</trkpt>
<trkpt lat="40.0713749" lon="-105.229789">
  <ele>1583.0</ele>
  <time>2026-08-28T17:56:58Z</time>
  <course>0.0</course>
  <speed>0.0</speed>
  <fix>3d</fix>
</trkpt>
<trkpt lat="39.655741" lon="-104.1383097">
  <ele>1566.58</ele>
  <time>2026-08-28T17:56:59Z</time>
  <course>0.0</course>
  <speed>0.0</speed>
  <fix>3d</fix>
</trkpt>
<trkpt lat="40.0713749" lon="-105.229789">
  <ele>1583.0</ele>
  <time>2026-08-28T17:56:59Z</time>
  <course>238.36</course>
  <speed>0.0</speed>
  <fix>3d</fix>
</trkpt>
<trkpt lat="40.0713749" lon="-105.229789">
  <ele>1583.0</ele>
  <time>2026-08-28T17:56:59Z</time>
  <course>0.0</course>
  <speed>0.0</speed>
  <fix>3d</fix>
</trkpt>
<trkpt lat="40.0713749" lon="-105.229789">
  <ele>1583.0</ele>
  <time>2026-08-28T17:56:59Z</time>
  <course>238.36</course>
  <speed>0.0</speed>
  <fix>3d</fix>
</trkpt>
<trkpt lat="40.0713749" lon="-105.229789">
  <ele>1583.0</ele>
  <time>2026-08-28T17:56:59Z</time>
  <course>0.0</course>
  <speed>0.0</speed>
  <fix>3d</fix>
</trkpt>
<trkpt lat="40.0713749" lon="-105.229789">
  <ele>1583.0</ele>
  <time>2026-08-28T17:56:59Z</time>
  <course>238.47</course>
  <speed>0.0</speed>
  <fix>3d</fix>
</trkpt>
<trkpt lat="40.0713749" lon="-105.229789">
  <ele>1583.0</ele>
  <time>2026-08-28T17:56:59Z</time>
  <course>0.0</course>
  <speed>0.0</speed>
  <fix>3d</fix>
</trkpt>
<trkpt lat="40.0713749" lon="-105.229789">
  <ele>1583.0</ele>
  <time>2026-08-28T17:56:59Z</time>
  <course>238.69</course>
  <speed>0.0</speed>
  <fix>3d</fix>
</trkpt>
<trkpt lat="40.0713749" lon="-105.229789">
  <ele>1583.0</ele>
  <time>2026-08-28T17:56:59Z</time>
  <course>0.0</course>
  <speed>0.0</speed>
  <fix>3d</fix>
</trkpt>
<trkpt lat="40.0713749" lon="-105.229789">
  <ele>1583.0</ele>
  <time>2026-08-28T17:56:59Z</time>
  <course>238.98</course>
  <speed>0.0</speed>
  <fix>3d</fix>
</trkpt>
<trkpt lat="40.0713749" lon="-105.229789">
  <ele>1583.0</ele>
  <time>2026-08-28T17:56:59Z</time>
  <course>0.0</course>
  <speed>0.0</speed>
  <fix>3d</fix>
</trkpt>
<trkpt lat="40.0713749" lon="-105.229789">
  <ele>1583.0</ele>
  <time>2026-08-28T17:56:59Z</time>
  <course>239.32</course>
  <speed>0.0</speed>
  <fix>3d</fix>
</trkpt>
<trkpt lat="40.0713749" lon="-105.229789">
  <ele>1583.0</ele>
  <time>2026-08-28T17:56:59Z</time>
  <course>0.0</course>
  <speed>0.0</speed>
  <fix>3d</fix>
</trkpt>
<trkpt lat="40.0713749" lon="-105.229789">
  <ele>1583.0</ele>
  <time>2026-08-28T17:56:59Z</time>
  <course>239.67</course>
  <speed>0.0</speed>
  <fix>3d</fix>
</trkpt>
<trkpt lat="40.0713749" lon="-105.229789">
  <ele>1583.0</ele>
  <time>2026-08-28T17:56:59Z</time>
  <course>0.0</course>
  <speed>0.0</speed>
  <fix>3d</fix>
</trkpt>
<trkpt lat="40.0713749" lon="-105.229789">
  <ele>1583.0</ele>
  <time>2026-08-28T17:56:59Z</time>
  <course>240.02</course>
  <speed>0.0</speed>
  <fix>3d</fix>
</trkpt>
<trkpt lat="40.0713749" lon="-105.229789">
  <ele>1583.0</ele>
  <time>2026-08-28T17:56:59Z</time>
  <course>0.0</course>
  <speed>0.0</speed>
  <fix>3d</fix>
</trkpt>
<trkpt lat="40.0713749" lon="-105.229789">
  <ele>1583.0</ele>
  <time>2026-08-28T17:56:59Z</time>
  <course>240.35</course>
  <speed>0.0</speed>
  <fix>3d</fix>
</trkpt>
<trkpt lat="40.0713749" lon="-105.229789">
  <ele>1583.0</ele>
  <time>2026-08-28T17:56:59Z</time>
  <course>0.0</course>
  <speed>0.0</speed>
  <fix>3d</fix>
</trkpt>
<trkpt lat="40.0713749" lon="-105.229789">
  <ele>1583.0</ele>
  <time>2026-08-28T17:56:59Z</time>
  <course>240.61</course>
  <speed>0.0</speed>
  <fix>3d</fix>
</trkpt>
<trkpt lat="40.0713749" lon="-105.229789">
  <ele>1583.0</ele>
  <time>2026-08-28T17:56:59Z</time>
  <course>0.0</course>
  <speed>0.0</speed>
  <fix>3d</fix>
</trkpt>
<trkpt lat="40.0713749" lon="-105.229789">
  <ele>1583.0</ele>
  <time>2026-08-28T17:56:59Z</time>
  <course>240.92</course>
  <speed>0.0</speed>
  <fix>3d</fix>
</trkpt>
<trkpt lat="40.0713749" lon="-105.229789">
  <ele>1583.0</ele>
  <time>2026-08-28T17:56:59Z</time>
  <course>0.0</course>
  <speed>0.0</speed>
  <fix>3d</fix>
</trkpt>
<trkpt lat="40.0713749" lon="-105.229789">
  <ele>1583.0</ele>
  <time>2026-08-28T17:56:59Z</time>
  <course>241.21</course>
  <speed>0.0</speed>
  <fix>3d</fix>
</trkpt>
<trkpt lat="40.0713749" lon="-105.229789">
  <ele>1583.0</ele>
  <time>2026-08-28T17:56:59Z</time>
  <course>0.0</course>
  <speed>0.0</speed>
  <fix>3d</fix>
</trkpt>
<trkpt lat="40.0713749" lon="-105.229789">
  <ele>1583.0</ele>
  <time>2026-08-28T17:56:59Z</time>
  <course>241.49</course>
  <speed>0.0</speed>
  <fix>3d</fix>
</trkpt>
<trkpt lat="40.0713749" lon="-105.229789">
  <ele>1583.0</ele>
  <time>2026-08-28T17:56:59Z</time>
  <course>0.0</course>
  <speed>0.0</speed>
  <fix>3d</fix>
</trkpt>
<trkpt lat="40.0713749" lon="-105.229789">
  <ele>1583.0</ele>
  <time>2026-08-28T17:56:59Z</time>
  <course>241.77</course>
  <speed>0.0</speed>
  <fix>3d</fix>
</trkpt>
<trkpt lat="40.0713749" lon="-105.229789">
  <ele>1583.0</ele>
  <time>2026-08-28T17:56:59Z</time>
  <course>0.0</course>
  <speed>0.0</speed>
  <fix>3d</fix>
</trkpt>
<trkpt lat="40.0713749" lon="-105.229789">
  <ele>1583.0</ele>
  <time>2026-08-28T17:56:59Z</time>
  <course>242.03</course>
  <speed>0.0</speed>
  <fix>3d</fix>
</trkpt>
<trkpt lat="40.0713749" lon="-105.229789">
  <ele>1583.0</ele>
  <time>2026-08-28T17:56:59Z</time>
  <course>0.0</course>
  <speed>0.0</speed>
  <fix>3d</fix>
</trkpt>
<trkpt lat="40.0713749" lon="-105.229789">
  <ele>1583.0</ele>
  <time>2026-08-28T17:56:59Z</time>
  <course>242.29</course>
  <speed>0.0</speed>
  <fix>3d</fix>
</trkpt>
<trkpt lat="40.0713749" lon="-105.229789">
  <ele>1583.0</ele>
  <time>2026-08-28T17:56:59Z</time>
  <course>0.0</course>
  <speed>0.0</speed>
  <fix>3d</fix>
</trkpt>
<trkpt lat="40.0713749" lon="-105.229789">
  <ele>1583.0</ele>
  <time>2026-08-28T17:56:59Z</time>
  <course>242.54</course>
  <speed>0.0</speed>
  <fix>3d</fix>
</trkpt>
<trkpt lat="40.0713749" lon="-105.229789">
  <ele>1583.0</ele>
  <time>2026-08-28T17:56:59Z</time>
  <course>0.0</course>
  <speed>0.0</speed>
  <fix>3d</fix>
</trkpt>
<trkpt lat="40.0713749" lon="-105.229789">
  <ele>1583.0</ele>
  <time>2026-08-28T17:56:59Z</time>
  <course>242.79</course>
  <speed>0.0</speed>
  <fix>3d</fix>
</trkpt>
<trkpt lat="40.0713749" lon="-105.229789">
  <ele>1583.0</ele>
  <time>2026-08-28T17:56:59Z</time>
  <course>0.0</course>
  <speed>0.0</speed>
  <fix>3d</fix>
</trkpt>
<trkpt lat="40.0713749" lon="-105.229789">
  <ele>1583.0</ele>
  <time>2026-08-28T17:56:59Z</time>
  <course>243.02</course>
  <speed>0.0</speed>
  <fix>3d</fix>
</trkpt>
<trkpt lat="40.0713749" lon="-105.229789">
  <ele>1583.0</ele>
  <time>2026-08-28T17:56:59Z</time>
  <course>0.0</course>
  <speed>0.0</speed>
  <fix>3d</fix>
</trkpt>
<trkpt lat="40.0713749" lon="-105.229789">
  <ele>1583.0</ele>
  <time>2026-08-28T17:56:59Z</time>
  <course>243.29</course>
  <speed>0.0</speed>
  <fix>3d</fix>
</trkpt>
<trkpt lat="40.0713749" lon="-105.229789">
  <ele>1583.0</ele>
  <time>2026-08-28T17:56:59Z</time>
  <course>0.0</course>
  <speed>0.0</speed>
  <fix>3d</fix>
</trkpt>
<trkpt lat="40.0713749" lon="-105.229789">
  <ele>1583.0</ele>
  <time>2026-08-28T17:56:59Z</time>
  <course>243.51</course>
  <speed>0.0</speed>
  <fix>3d</fix>
</trkpt>
<trkpt lat="40.0713749" lon="-105.229789">
  <ele>1583.0</ele>
  <time>2026-08-28T17:56:59Z</time>
  <course>0.0</course>
  <speed>0.0</speed>
  <fix>3d</fix>
</trkpt>
<trkpt lat="40.0713749" lon="-105.229789">
  <ele>1583.0</ele>
  <time>2026-08-28T17:56:59Z</time>
  <course>243.72</course>
  <speed>0.0</speed>
  <fix>3d</fix>
</trkpt>
<trkpt lat="40.0713749" lon="-105.229789">
  <ele>1583.0</ele>
  <time>2026-08-28T17:56:59Z</time>
  <course>0.0</course>
  <speed>0.0</speed>
  <fix>3d</fix>
</trkpt>
<trkpt lat="40.0713749" lon="-105.229789">
  <ele>1583.0</ele>
  <time>2026-08-28T17:56:59Z</time>
  <course>243.93</course>
  <speed>0.0</speed>
  <fix>3d</fix>
</trkpt>
<trkpt lat="40.0713749" lon="-105.229789">
  <ele>1583.0</ele>
  <time>2026-08-28T17:56:59Z</time>
  <course>0.0</course>
  <speed>0.0</speed>
  <fix>3d</fix>
</trkpt>
<trkpt lat="40.0713749" lon="-105.229789">
  <ele>1583.0</ele>
  <time>2026-08-28T17:56:59Z</time>
  <course>244.12</course>
  <speed>0.0</speed>
  <fix>3d</fix>
</trkpt>
<trkpt lat="40.0713749" lon="-105.229789">
  <ele>1583.0</ele>
  <time>2026-08-28T17:56:59Z</time>
  <course>0.0</course>
  <speed>0.0</speed>
  <fix>3d</fix>
</trkpt>
<trkpt lat="40.0713749" lon="-105.229789">
  <ele>1583.0</ele>
  <time>2026-08-28T17:56:59Z</time>
  <course>244.31</course>
  <speed>0.0</speed>
  <fix>3d</fix>
</trkpt>
<trkpt lat="40.0713749" lon="-105.229789">
  <ele>1583.0</ele>
  <time>2026-08-28T17:56:59Z</time>
  <course>0.0</course>
  <speed>0.0</speed>
  <fix>3d</fix>
</trkpt>
<trkpt lat="40.0713749" lon="-105.229789">
  <ele>1583.0</ele>
  <time>2026-08-28T17:56:59Z</time>
  <course>244.5</course>
  <speed>0.0</speed>
  <fix>3d</fix>
</trkpt>
<trkpt lat="40.0713749" lon="-105.229789">
  <ele>1583.0</ele>
  <time>2026-08-28T17:56:59Z</time>
  <course>0.0</course>
  <speed>0.0</speed>
  <fix>3d</fix>
</trkpt>
<trkpt lat="40.0713749" lon="-105.229789">
  <ele>1583.0</ele>
  <time>2026-08-28T17:56:59Z</time>
  <course>244.67</course>
  <speed>0.0</speed>
  <fix>3d</fix>
</trkpt>
<trkpt lat="40.0713749" lon="-105.229789">
  <ele>1583.0</ele>
  <time>2026-08-28T17:56:59Z</time>
  <course>0.0</course>
  <speed>0.0</speed>
  <fix>3d</fix>
</trkpt>
<trkpt lat="40.0713749" lon="-105.229789">
  <ele>1583.0</ele>
  <time>2026-08-28T17:56:59Z</time>
  <course>244.84</course>
  <speed>0.0</speed>
  <fix>3d</fix>
</trkpt>
<trkpt lat="40.0713749" lon="-105.229789">
  <ele>1583.0</ele>
  <time>2026-08-28T17:56:59Z</time>
  <course>0.0</course>
  <speed>0.0</speed>
  <fix>3d</fix>
</trkpt>
<trkpt lat="40.0713749" lon="-105.229789">
  <ele>1583.0</ele>
  <time>2026-08-28T17:56:59Z</time>
  <course>245.01</course>
  <speed>0.0</speed>
  <fix>3d</fix>
</trkpt>
<trkpt lat="40.0713749" lon="-105.229789">
  <ele>1583.0</ele>
  <time>2026-08-28T17:56:59Z</time>
  <course>0.0</course>
  <speed>0.0</speed>
  <fix>3d</fix>
</trkpt>
<trkpt lat="40.0713749" lon="-105.229789">
  <ele>1583.0</ele>
  <time>2026-08-28T17:56:59Z</time>
  <course>245.16</course>
  <speed>0.0</speed>
  <fix>3d</fix>
</trkpt>
<trkpt lat="40.0713749" lon="-105.229789">
  <ele>1583.0</ele>
  <time>2026-08-28T17:56:59Z</time>
  <course>0.0</course>
  <speed>0.0</speed>
  <fix>3d</fix>
</trkpt>
<trkpt lat="40.0713749" lon="-105.229789">
  <ele>1583.0</ele>
  <time>2026-08-28T17:56:59Z</time>
  <course>245.29</course>
  <speed>0.0</speed>
  <fix>3d</fix>
</trkpt>
<trkpt lat="40.0713749" lon="-105.229789">
  <ele>1583.0</ele>
  <time>2026-08-28T17:56:59Z</time>
  <course>0.0</course>
  <speed>0.0</speed>
  <fix>3d</fix>
</trkpt>
<trkpt lat="40.0713749" lon="-105.229789">
  <ele>1583.0</ele>
  <time>2026-08-28T17:56:59Z</time>
  <course>245.43</course>
  <speed>0.0</speed>
  <fix>3d</fix>
</trkpt>
<trkpt lat="40.0713749" lon="-105.229789">
  <ele>1583.0</ele>
  <time>2026-08-28T17:56:59Z</time>
  <course>0.0</course>
  <speed>0.0</speed>
  <fix>3d</fix>
</trkpt>
<trkpt lat="40.0713749" lon="-105.229789">
  <ele>1583.0</ele>
  <time>2026-08-28T17:56:59Z</time>
  <course>245.57</course>
  <speed>0.0</speed>
  <fix>3d</fix>
</trkpt>
<trkpt lat="40.0713749" lon="-105.229789">
  <ele>1583.0</ele>
  <time>2026-08-28T17:56:59Z</time>
  <course>0.0</course>
  <speed>0.0</speed>
  <fix>3d</fix>
</trkpt>
<trkpt lat="40.0713749" lon="-105.229789">
  <ele>1583.0</ele>
  <time>2026-08-28T17:56:59Z</time>
  <course>245.71</course>
  <speed>0.0</speed>
  <fix>3d</fix>
</trkpt>
<trkpt lat="40.0713749" lon="-105.229789">
  <ele>1583.0</ele>
  <time>2026-08-28T17:56:59Z</time>
  <course>0.0</course>
  <speed>0.0</speed>
  <fix>3d</fix>
</trkpt>
<trkpt lat="40.0713749" lon="-105.229789">
  <ele>1583.0</ele>
  <time>2026-08-28T17:56:59Z</time>
  <course>245.84</course>
  <speed>0.0</speed>
  <fix>3d</fix>
</trkpt>
<trkpt lat="40.0713749" lon="-105.229789">
  <ele>1583.0</ele>
  <time>2026-08-28T17:56:59Z</time>
  <course>0.0</course>
  <speed>0.0</speed>
  <fix>3d</fix>
</trkpt>
<trkpt lat="40.0713749" lon="-105.229789">
  <ele>1583.0</ele>
  <time>2026-08-28T17:56:59Z</time>
  <course>245.96</course>
  <speed>0.0</speed>
  <fix>3d</fix>
</trkpt>
<trkpt lat="40.0713749" lon="-105.229789">
  <ele>1583.0</ele>
  <time>2026-08-28T17:56:59Z</time>
  <course>0.0</course>
  <speed>0.0</speed>
  <fix>3d</fix>
</trkpt>
<trkpt lat="40.0713749" lon="-105.229789">
  <ele>1583.0</ele>
  <time>2026-08-28T17:56:59Z</time>
  <course>246.08</course>
  <speed>0.0</speed>
  <fix>3d</fix>
</trkpt>
<trkpt lat="40.0713749" lon="-105.229789">
  <ele>1583.0</ele>
  <time>2026-08-28T17:56:59Z</time>
  <course>0.0</course>
  <speed>0.0</speed>
  <fix>3d</fix>
</trkpt>
<trkpt lat="40.0713749" lon="-105.229789">
  <ele>1583.0</ele>
  <time>2026-08-28T17:56:59Z</time>
  <course>246.19</course>
  <speed>0.0</speed>
  <fix>3d</fix>
</trkpt>
<trkpt lat="40.0713749" lon="-105.229789">
  <ele>1583.0</ele>
  <time>2026-08-28T17:56:59Z</time>
  <course>0.0</course>
  <speed>0.0</speed>
  <fix>3d</fix>
</trkpt>
<trkpt lat="40.0713749" lon="-105.229789">
  <ele>1583.0</ele>
  <time>2026-08-28T17:56:59Z</time>
  <course>246.3</course>
  <speed>0.0</speed>
  <fix>3d</fix>
</trkpt>
<trkpt lat="40.0713749" lon="-105.229789">
  <ele>1583.0</ele>
  <time>2026-08-28T17:56:59Z</time>
  <course>0.0</course>
  <speed>0.0</speed>
  <fix>3d</fix>
</trkpt>
<trkpt lat="40.0713749" lon="-105.229789">
  <ele>1583.0</ele>
  <time>2026-08-28T17:56:59Z</time>
  <course>246.41</course>
  <speed>0.0</speed>
  <fix>3d</fix>
</trkpt>
<trkpt lat="40.0713749" lon="-105.229789">
  <ele>1583.0</ele>
  <time>2026-08-28T17:56:59Z</time>
  <course>0.0</course>
  <speed>0.0</speed>
  <fix>3d</fix>
</trkpt>
<trkpt lat="40.0713749" lon="-105.229789">
  <ele>1583.0</ele>
  <time>2026-08-28T17:56:59Z</time>
  <course>246.53</course>
  <speed>0.0</speed>
  <fix>3d</fix>
</trkpt>
<trkpt lat="40.0713749" lon="-105.229789">
  <ele>1583.0</ele>
  <time>2026-08-28T17:56:59Z</time>
  <course>0.0</course>
  <speed>0.0</speed>
  <fix>3d</fix>
</trkpt>
<trkpt lat="40.0713749" lon="-105.229789">
  <ele>1583.0</ele>
  <time>2026-08-28T17:56:59Z</time>
  <course>246.62</course>
  <speed>0.0</speed>
  <fix>3d</fix>
</trkpt>
<trkpt lat="40.0713749" lon="-105.229789">
  <ele>1583.0</ele>
  <time>2026-08-28T17:56:59Z</time>
  <course>0.0</course>
  <speed>0.0</speed>
  <fix>3d</fix>
</trkpt>
<trkpt lat="40.0713749" lon="-105.229789">
  <ele>1583.0</ele>
  <time>2026-08-28T17:56:59Z</time>
  <course>246.71</course>
  <speed>0.0</speed>
  <fix>3d</fix>
</trkpt>
<trkpt lat="40.0713749" lon="-105.229789">
  <ele>1583.0</ele>
  <time>2026-08-28T17:56:59Z</time>
  <course>0.0</course>
  <speed>0.0</speed>
  <fix>3d</fix>
</trkpt>
<trkpt lat="40.0713749" lon="-105.229789">
  <ele>1583.0</ele>
  <time>2026-08-28T17:56:59Z</time>
  <course>246.8</course>
  <speed>0.0</speed>
  <fix>3d</fix>
</trkpt>
<trkpt lat="40.0713749" lon="-105.229789">
  <ele>1583.0</ele>
  <time>2026-08-28T17:56:59Z</time>
  <course>0.0</course>
  <speed>0.0</speed>
  <fix>3d</fix>
</trkpt>
<trkpt lat="40.0713749" lon="-105.229789">
  <ele>1583.0</ele>
  <time>2026-08-28T17:56:59Z</time>
  <course>246.88</course>
  <speed>0.0</speed>
  <fix>3d</fix>
</trkpt>
<trkpt lat="40.0713749" lon="-105.229789">
  <ele>1583.0</ele>
  <time>2026-08-28T17:56:59Z</time>
  <course>0.0</course>
  <speed>0.0</speed>
  <fix>3d</fix>
</trkpt>
<trkpt lat="40.0713749" lon="-105.229789">
  <ele>1583.0</ele>
  <time>2026-08-28T17:56:59Z</time>
  <course>246.96</course>
  <speed>0.0</speed>
  <fix>3d</fix>
</trkpt>
<trkpt lat="40.0713749" lon="-105.229789">
  <ele>1583.0</ele>
  <time>2026-08-28T17:56:59Z</time>
  <course>0.0</course>
  <speed>0.0</speed>
  <fix>3d</fix>
</trkpt>
<trkpt lat="40.0713749" lon="-105.229789">
  <ele>1583.0</ele>
  <time>2026-08-28T17:56:59Z</time>
  <course>247.04</course>
  <speed>0.0</speed>
  <fix>3d</fix>
</trkpt>
<trkpt lat="40.0713749" lon="-105.229789">
  <ele>1583.0</ele>
  <time>2026-08-28T17:56:59Z</time>
  <course>0.0</course>
  <speed>0.0</speed>
  <fix>3d</fix>
</trkpt>
<trkpt lat="40.0713749" lon="-105.229789">
  <ele>1583.0</ele>
  <time>2026-08-28T17:56:59Z</time>
  <course>247.11</course>
  <speed>0.0</speed>
  <fix>3d</fix>
</trkpt>
<trkpt lat="40.0713749" lon="-105.229789">
  <ele>1583.0</ele>
  <time>2026-08-28T17:56:59Z</time>
  <course>0.0</course>
  <speed>0.0</speed>
  <fix>3d</fix>
</trkpt>
<trkpt lat="40.0713749" lon="-105.229789">
  <ele>1583.0</ele>
  <time>2026-08-28T17:56:59Z</time>
  <course>247.18</course>
  <speed>0.0</speed>
  <fix>3d</fix>
</trkpt>
<trkpt lat="40.0713749" lon="-105.229789">
  <ele>1583.0</ele>
  <time>2026-08-28T17:56:59Z</time>
  <course>0.0</course>
  <speed>0.0</speed>
  <fix>3d</fix>
</trkpt>
<trkpt lat="40.0713749" lon="-105.229789">
  <ele>1583.0</ele>
  <time>2026-08-28T17:56:59Z</time>
  <course>247.25</course>
  <speed>0.0</speed>
  <fix>3d</fix>
</trkpt>
<trkpt lat="40.0713749" lon="-105.229789">
  <ele>1583.0</ele>
  <time>2026-08-28T17:56:59Z</time>
  <course>0.0</course>
  <speed>0.0</speed>
  <fix>3d</fix>
</trkpt>
<trkpt lat="40.0713749" lon="-105.229789">
  <ele>1583.0</ele>
  <time>2026-08-28T17:56:59Z</time>
  <course>247.31</course>
  <speed>0.0</speed>
  <fix>3d</fix>
</trkpt>
<trkpt lat="40.0713749" lon="-105.229789">
  <ele>1583.0</ele>
  <time>2026-08-28T17:56:59Z</time>
  <course>0.0</course>
  <speed>0.0</speed>
  <fix>3d</fix>
</trkpt>
<trkpt lat="40.0713749" lon="-105.229789">
  <ele>1583.0</ele>
  <time>2026-08-28T17:56:59Z</time>
  <course>247.36</course>
  <speed>0.0</speed>
  <fix>3d</fix>
</trkpt>
<trkpt lat="40.0713749" lon="-105.229789">
  <ele>1583.0</ele>
  <time>2026-08-28T17:56:59Z</time>
  <course>0.0</course>
  <speed>0.0</speed>
  <fix>3d</fix>
</trkpt>
<trkpt lat="40.0713749" lon="-105.229789">
  <ele>1583.0</ele>
  <time>2026-08-28T17:56:59Z</time>
  <course>247.42</course>
  <speed>0.0</speed>
  <fix>3d</fix>
</trkpt>
<trkpt lat="40.0713749" lon="-105.229789">
  <ele>1583.0</ele>
  <time>2026-08-28T17:56:59Z</time>
  <course>0.0</course>
  <speed>0.0</speed>
  <fix>3d</fix>
</trkpt>
<trkpt lat="40.0713749" lon="-105.229789">
  <ele>1583.0</ele>
  <time>2026-08-28T17:56:59Z</time>
  <course>247.47</course>
  <speed>0.0</speed>
  <fix>3d</fix>
</trkpt>
<trkpt lat="40.0713749" lon="-105.229789">
  <ele>1583.0</ele>
  <time>2026-08-28T17:56:59Z</time>
  <course>0.0</course>
  <speed>0.0</speed>
  <fix>3d</fix>
</trkpt>
<trkpt lat="40.0713749" lon="-105.229789">
  <ele>1583.0</ele>
  <time>2026-08-28T17:56:59Z</time>
  <course>247.53</course>
  <speed>0.0</speed>
  <fix>3d</fix>
</trkpt>
<trkpt lat="40.0713749" lon="-105.229789">
  <ele>1583.0</ele>
  <time>2026-08-28T17:56:59Z</time>
  <course>0.0</course>
  <speed>0.0</speed>
  <fix>3d</fix>
</trkpt>
<trkpt lat="40.0713749" lon="-105.229789">
  <ele>1583.0</ele>
  <time>2026-08-28T17:56:59Z</time>
  <course>247.58</course>
  <speed>0.0</speed>
  <fix>3d</fix>
</trkpt>
<trkpt lat="40.0713749" lon="-105.229789">
  <ele>1583.0</ele>
  <time>2026-08-28T17:56:59Z</time>
  <course>0.0</course>
  <speed>0.0</speed>
  <fix>3d</fix>
</trkpt>
<trkpt lat="40.0713749" lon="-105.229789">
  <ele>1583.0</ele>
  <time>2026-08-28T17:56:59Z</time>
  <course>247.63</course>
  <speed>0.0</speed>
  <fix>3d</fix>
</trkpt>
<trkpt lat="40.0713749" lon="-105.229789">
  <ele>1583.0</ele>
  <time>2026-08-28T17:56:59Z</time>
  <course>0.0</course>
  <speed>0.0</speed>
  <fix>3d</fix>
</trkpt>
<trkpt lat="40.0713749" lon="-105.229789">
  <ele>1583.0</ele>
  <time>2026-08-28T17:56:59Z</time>
  <course>247.67</course>
  <speed>0.0</speed>
  <fix>3d</fix>
</trkpt>
<trkpt lat="40.0713749" lon="-105.229789">
  <ele>1583.0</ele>
  <time>2026-08-28T17:56:59Z</time>
  <course>0.0</course>
  <speed>0.0</speed>
  <fix>3d</fix>
</trkpt>
<trkpt lat="40.0713749" lon="-105.229789">
  <ele>1583.0</ele>
  <time>2026-08-28T17:56:59Z</time>
  <course>247.72</course>
  <speed>0.0</speed>
  <fix>3d</fix>
</trkpt>
<trkpt lat="40.0713749" lon="-105.229789">
  <ele>1583.0</ele>
  <time>2026-08-28T17:56:59Z</time>
  <course>0.0</course>
  <speed>0.0</speed>
  <fix>3d</fix>
</trkpt>
<trkpt lat="40.0713749" lon="-105.229789">
  <ele>1583.0</ele>
  <time>2026-08-28T17:56:59Z</time>
  <course>247.76</course>
  <speed>0.0</speed>
  <fix>3d</fix>
</trkpt>
<trkpt lat="40.0713749" lon="-105.229789">
  <ele>1583.0</ele>
  <time>2026-08-28T17:56:59Z</time>
  <course>0.0</course>
  <speed>0.0</speed>
  <fix>3d</fix>
</trkpt>
<trkpt lat="40.0713749" lon="-105.229789">
  <ele>1583.0</ele>
  <time>2026-08-28T17:56:59Z</time>
  <course>247.81</course>
  <speed>0.0</speed>
  <fix>3d</fix>
</trkpt>
<trkpt lat="40.0713749" lon="-105.229789">
  <ele>1583.0</ele>
  <time>2026-08-28T17:56:59Z</time>
  <course>0.0</course>
  <speed>0.0</speed>
  <fix>3d</fix>
</trkpt>
<trkpt lat="40.0713749" lon="-105.229789">
  <ele>1583.0</ele>
  <time>2026-08-28T17:56:59Z</time>
  <course>247.84</course>
  <speed>0.0</speed>
  <fix>3d</fix>
</trkpt>
<trkpt lat="40.0713749" lon="-105.229789">
  <ele>1583.0</ele>
  <time>2026-08-28T17:56:59Z</time>
  <course>0.0</course>
  <speed>0.0</speed>
  <fix>3d</fix>
</trkpt>
<trkpt lat="40.0713749" lon="-105.229789">
  <ele>1583.0</ele>
  <time>2026-08-28T17:56:59Z</time>
  <course>247.88</course>
  <speed>0.0</speed>
  <fix>3d</fix>
</trkpt>
<trkpt lat="40.0713749" lon="-105.229789">
  <ele>1583.0</ele>
  <time>2026-08-28T17:56:59Z</time>
  <course>0.0</course>
  <speed>0.0</speed>
  <fix>3d</fix>
</trkpt>
<trkpt lat="40.0713749" lon="-105.229789">
  <ele>1583.0</ele>
  <time>2026-08-28T17:56:59Z</time>
  <course>247.91</course>
  <speed>0.0</speed>
  <fix>3d</fix>
</trkpt>
<trkpt lat="40.0713749" lon="-105.229789">
  <ele>1583.0</ele>
  <time>2026-08-28T17:56:59Z</time>
  <course>0.0</course>
  <speed>0.0</speed>
  <fix>3d</fix>
</trkpt>
<trkpt lat="40.0713749" lon="-105.229789">
  <ele>1583.0</ele>
  <time>2026-08-28T17:56:59Z</time>
  <course>247.94</course>
  <speed>0.0</speed>
  <fix>3d</fix>
</trkpt>
<trkpt lat="40.0713749" lon="-105.229789">
  <ele>1583.0</ele>
  <time>2026-08-28T17:56:59Z</time>
  <course>0.0</course>
  <speed>0.0</speed>
  <fix>3d</fix>
</trkpt>
<trkpt lat="40.0713749" lon="-105.229789">
  <ele>1583.0</ele>
  <time>2026-08-28T17:56:59Z</time>
  <course>247.97</course>
  <speed>0.0</speed>
  <fix>3d</fix>
</trkpt>
<trkpt lat="40.0713749" lon="-105.229789">
  <ele>1583.0</ele>
  <time>2026-08-28T17:56:59Z</time>
  <course>0.0</course>
  <speed>0.0</speed>
  <fix>3d</fix>
</trkpt>
<trkpt lat="40.0713749" lon="-105.229789">
  <ele>1583.0</ele>
  <time>2026-08-28T17:56:59Z</time>
  <course>248.0</course>
  <speed>0.0</speed>
  <fix>3d</fix>
</trkpt>
<trkpt lat="40.0713749" lon="-105.229789">
  <ele>1583.0</ele>
  <time>2026-08-28T17:56:59Z</time>
  <course>0.0</course>
  <speed>0.0</speed>
  <fix>3d</fix>
</trkpt>
<trkpt lat="40.0713749" lon="-105.229789">
  <ele>1583.0</ele>
  <time>2026-08-28T17:56:59Z</time>
  <course>248.03</course>
  <speed>0.0</speed>
  <fix>3d</fix>
</trkpt>
<trkpt lat="40.0713749" lon="-105.229789">
  <ele>1583.0</ele>
  <time>2026-08-28T17:56:59Z</time>
  <course>0.0</course>
  <speed>0.0</speed>
  <fix>3d</fix>
</trkpt>
<trkpt lat="40.0713749" lon="-105.229789">
  <ele>1583.0</ele>
  <time>2026-08-28T17:56:59Z</time>
  <course>248.06</course>
  <speed>0.0</speed>
  <fix>3d</fix>
</trkpt>
<trkpt lat="40.0713749" lon="-105.229789">
  <ele>1583.0</ele>
  <time>2026-08-28T17:56:59Z</time>
  <course>0.0</course>
  <speed>0.0</speed>
  <fix>3d</fix>
</trkpt>
<trkpt lat="40.0713749" lon="-105.229789">
  <ele>1583.0</ele>
  <time>2026-08-28T17:56:59Z</time>
  <course>248.08</course>
  <speed>0.0</speed>
  <fix>3d</fix>
</trkpt>
<trkpt lat="40.0713749" lon="-105.229789">
  <ele>1583.0</ele>
  <time>2026-08-28T17:56:59Z</time>
  <course>0.0</course>
  <speed>0.0</speed>
  <fix>3d</fix>
</trkpt>
<trkpt lat="40.0713749" lon="-105.229789">
  <ele>1583.0</ele>
  <time>2026-08-28T17:56:59Z</time>
  <course>248.11</course>
  <speed>0.0</speed>
  <fix>3d</fix>
</trkpt>
<trkpt lat="40.0713749" lon="-105.229789">
  <ele>1583.0</ele>
  <time>2026-08-28T17:56:59Z</time>
  <course>0.0</course>
  <speed>0.0</speed>
  <fix>3d</fix>
</trkpt>
<trkpt lat="40.0713749" lon="-105.229789">
  <ele>1583.0</ele>
  <time>2026-08-28T17:56:59Z</time>
  <course>248.12</course>
  <speed>0.0</speed>
  <fix>3d</fix>
</trkpt>
<trkpt lat="40.0713749" lon="-105.229789">
  <ele>1583.0</ele>
  <time>2026-08-28T17:56:59Z</time>
  <course>0.0</course>
  <speed>0.0</speed>
  <fix>3d</fix>
</trkpt>
<trkpt lat="40.0713749" lon="-105.229789">
  <ele>1583.0</ele>
  <time>2026-08-28T17:56:59Z</time>
  <course>248.14</course>
  <speed>0.0</speed>
  <fix>3d</fix>
</trkpt>
<trkpt lat="40.0713749" lon="-105.229789">
  <ele>1583.0</ele>
  <time>2026-08-28T17:56:59Z</time>
  <course>0.0</course>
  <speed>0.0</speed>
  <fix>3d</fix>
</trkpt>
<trkpt lat="40.0713749" lon="-105.229789">
  <ele>1583.0</ele>
  <time>2026-08-28T17:56:59Z</time>
  <course>248.16</course>
  <speed>0.0</speed>
  <fix>3d</fix>
</trkpt>
<trkpt lat="40.0713749" lon="-105.229789">
  <ele>1583.0</ele>
  <time>2026-08-28T17:56:59Z</time>
  <course>0.0</course>
  <speed>0.0</speed>
  <fix>3d</fix>
</trkpt>
<trkpt lat="40.0713749" lon="-105.229789">
  <ele>1583.0</ele>
  <time>2026-08-28T17:56:59Z</time>
  <course>248.18</course>
  <speed>0.0</speed>
  <fix>3d</fix>
</trkpt>
<trkpt lat="40.0713749" lon="-105.229789">
  <ele>1583.0</ele>
  <time>2026-08-28T17:56:59Z</time>
  <course>0.0</course>
  <speed>0.0</speed>
  <fix>3d</fix>
</trkpt>
<trkpt lat="40.0713749" lon="-105.229789">
  <ele>1583.0</ele>
  <time>2026-08-28T17:56:59Z</time>
  <course>248.2</course>
  <speed>0.0</speed>
  <fix>3d</fix>
</trkpt>
<trkpt lat="40.0713749" lon="-105.229789">
  <ele>1583.0</ele>
  <time>2026-08-28T17:56:59Z</time>
  <course>0.0</course>
  <speed>0.0</speed>
  <fix>3d</fix>
</trkpt>
<trkpt lat="40.0713749" lon="-105.229789">
  <ele>1583.0</ele>
  <time>2026-08-28T17:56:59Z</time>
  <course>248.22</course>
  <speed>0.0</speed>
  <fix>3d</fix>
</trkpt>
<trkpt lat="40.0713749" lon="-105.229789">
  <ele>1583.0</ele>
  <time>2026-08-28T17:56:59Z</time>
  <course>0.0</course>
  <speed>0.0</speed>
  <fix>3d</fix>
</trkpt>
<trkpt lat="40.0713749" lon="-105.229789">
  <ele>1583.0</ele>
  <time>2026-08-28T17:56:59Z</time>
  <course>248.23</course>
  <speed>0.0</speed>
  <fix>3d</fix>
</trkpt>
<trkpt lat="40.0713749" lon="-105.229789">
  <ele>1583.0</ele>
  <time>2026-08-28T17:56:59Z</time>
  <course>0.0</course>
  <speed>0.0</speed>
  <fix>3d</fix>
</trkpt>
<trkpt lat="40.0713749" lon="-105.229789">
  <ele>1583.0</ele>
  <time>2026-08-28T17:56:59Z</time>
  <course>248.25</course>
  <speed>0.0</speed>
  <fix>3d</fix>
</trkpt>
<trkpt lat="40.0713749" lon="-105.229789">
  <ele>1583.0</ele>
  <time>2026-08-28T17:56:59Z</time>
  <course>0.0</course>
  <speed>0.0</speed>
  <fix>3d</fix>
</trkpt>
<trkpt lat="40.0713749" lon="-105.229789">
  <ele>1583.0</ele>
  <time>2026-08-28T17:56:59Z</time>
  <course>248.26</course>
  <speed>0.0</speed>
  <fix>3d</fix>
</trkpt>
<trkpt lat="40.0713749" lon="-105.229789">
  <ele>1583.0</ele>
  <time>2026-08-28T17:56:59Z</time>
  <course>0.0</course>
  <speed>0.0</speed>
  <fix>3d</fix>
</trkpt>
<trkpt lat="40.0713749" lon="-105.229789">
  <ele>1583.0</ele>
  <time>2026-08-28T17:56:59Z</time>
  <course>248.28</course>
  <speed>0.0</speed>
  <fix>3d</fix>
</trkpt>
<trkpt lat="40.0713749" lon="-105.229789">
  <ele>1583.0</ele>
  <time>2026-08-28T17:56:59Z</time>
  <course>0.0</course>
  <speed>0.0</speed>
  <fix>3d</fix>
</trkpt>
<trkpt lat="40.0713749" lon="-105.229789">
  <ele>1583.0</ele>
  <time>2026-08-28T17:56:59Z</time>
  <course>248.29</course>
  <speed>0.0</speed>
  <fix>3d</fix>
</trkpt>
<trkpt lat="40.0713749" lon="-105.229789">
  <ele>1583.0</ele>
  <time>2026-08-28T17:56:59Z</time>
  <course>0.0</course>
  <speed>0.0</speed>
  <fix>3d</fix>
</trkpt>
<trkpt lat="40.0713749" lon="-105.229789">
  <ele>1583.0</ele>
  <time>2026-08-28T17:56:59Z</time>
  <course>248.3</course>
  <speed>0.0</speed>
  <fix>3d</fix>
</trkpt>
<trkpt lat="40.0713749" lon="-105.229789">
  <ele>1583.0</ele>
  <time>2026-08-28T17:56:59Z</time>
  <course>0.0</course>
  <speed>0.0</speed>
  <fix>3d</fix>
</trkpt>
<trkpt lat="40.0713749" lon="-105.229789">
  <ele>1583.0</ele>
  <time>2026-08-28T17:56:59Z</time>
  <course>248.31</course>
  <speed>0.0</speed>
  <fix>3d</fix>
</trkpt>
<trkpt lat="40.0713749" lon="-105.229789">
  <ele>1583.0</ele>
  <time>2026-08-28T17:56:59Z</time>
  <course>0.0</course>
  <speed>0.0</speed>
  <fix>3d</fix>
</trkpt>
<trkpt lat="40.0713749" lon="-105.229789">
  <ele>1583.0</ele>
  <time>2026-08-28T17:56:59Z</time>
  <course>248.32</course>
  <speed>0.0</speed>
  <fix>3d</fix>
</trkpt>
<trkpt lat="40.0713749" lon="-105.229789">
  <ele>1583.0</ele>
  <time>2026-08-28T17:56:59Z</time>
  <course>0.0</course>
  <speed>0.0</speed>
  <fix>3d</fix>
</trkpt>
<trkpt lat="40.0713749" lon="-105.229789">
  <ele>1583.0</ele>
  <time>2026-08-28T17:56:59Z</time>
  <course>248.33</course>
  <speed>0.0</speed>
  <fix>3d</fix>
</trkpt>
<trkpt lat="40.0713749" lon="-105.229789">
  <ele>1583.0</ele>
  <time>2026-08-28T17:56:59Z</time>
  <course>0.0</course>
  <speed>0.0</speed>
  <fix>3d</fix>
</trkpt>
<trkpt lat="40.0713749" lon="-105.229789">
  <ele>1583.0</ele>
  <time>2026-08-28T17:56:59Z</time>
  <course>248.34</course>
  <speed>0.0</speed>
  <fix>3d</fix>
</trkpt>
<trkpt lat="40.0713749" lon="-105.229789">
  <ele>1583.0</ele>
  <time>2026-08-28T17:56:59Z</time>
  <course>0.0</course>
  <speed>0.0</speed>
  <fix>3d</fix>
</trkpt>
<trkpt lat="40.0713749" lon="-105.229789">
  <ele>1583.0</ele>
  <time>2026-08-28T17:56:59Z</time>
  <course>248.35</course>
  <speed>0.0</speed>
  <fix>3d</fix>
</trkpt>
<trkpt lat="40.0713749" lon="-105.229789">
  <ele>1583.0</ele>
  <time>2026-08-28T17:56:59Z</time>
  <course>0.0</course>
  <speed>0.0</speed>
  <fix>3d</fix>
</trkpt>
<trkpt lat="40.0713749" lon="-105.229789">
  <ele>1583.0</ele>
  <time>2026-08-28T17:56:59Z</time>
  <course>248.36</course>
  <speed>0.0</speed>
  <fix>3d</fix>
</trkpt>
<trkpt lat="40.0713749" lon="-105.229789">
  <ele>1583.0</ele>
  <time>2026-08-28T17:56:59Z</time>
  <course>0.0</course>
  <speed>0.0</speed>
  <fix>3d</fix>
</trkpt>
<trkpt lat="40.0713749" lon="-105.229789">
  <ele>1583.0</ele>
  <time>2026-08-28T17:56:59Z</time>
  <course>248.36</course>
  <speed>0.0</speed>
  <fix>3d</fix>
</trkpt>
<trkpt lat="40.0713749" lon="-105.229789">
  <ele>1583.0</ele>
  <time>2026-08-28T17:56:59Z</time>
  <course>0.0</course>
  <speed>0.0</speed>
  <fix>3d</fix>
</trkpt>
<trkpt lat="40.0713749" lon="-105.229789">
  <ele>1583.0</ele>
  <time>2026-08-28T17:56:59Z</time>
  <course>248.37</course>
  <speed>0.0</speed>
  <fix>3d</fix>
</trkpt>
<trkpt lat="40.0713749" lon="-105.229789">
  <ele>1583.0</ele>
  <time>2026-08-28T17:56:59Z</time>
  <course>0.0</course>
  <speed>0.0</speed>
  <fix>3d</fix>
</trkpt>
<trkpt lat="40.0713749" lon="-105.229789">
  <ele>1583.0</ele>
  <time>2026-08-28T17:56:59Z</time>
  <course>248.38</course>
  <speed>0.0</speed>
  <fix>3d</fix>
</trkpt>
<trkpt lat="40.0713749" lon="-105.229789">
  <ele>1583.0</ele>
  <time>2026-08-28T17:56:59Z</time>
  <course>0.0</course>
  <speed>0.0</speed>
  <fix>3d</fix>
</trkpt>
<trkpt lat="40.0713749" lon="-105.229789">
  <ele>1583.0</ele>
  <time>2026-08-28T17:56:59Z</time>
  <course>248.38</course>
  <speed>0.0</speed>
  <fix>3d</fix>
</trkpt>
<trkpt lat="40.0713749" lon="-105.229789">
  <ele>1583.0</ele>
  <time>2026-08-28T17:56:59Z</time>
  <course>0.0</course>
  <speed>0.0</speed>
  <fix>3d</fix>
</trkpt>
<trkpt lat="40.0713749" lon="-105.229789">
  <ele>1583.0</ele>
  <time>2026-08-28T17:56:59Z</time>
  <course>248.38</course>
  <speed>0.0</speed>
  <fix>3d</fix>
</trkpt>
<trkpt lat="40.0713749" lon="-105.229789">
  <ele>1583.0</ele>
  <time>2026-08-28T17:56:59Z</time>
  <course>0.0</course>
  <speed>0.0</speed>
  <fix>3d</fix>
</trkpt>
<trkpt lat="40.0713749" lon="-105.229789">
  <ele>1583.0</ele>
  <time>2026-08-28T17:56:59Z</time>
  <course>248.39</course>
  <speed>0.0</speed>
  <fix>3d</fix>
</trkpt>
<trkpt lat="40.0713749" lon="-105.229789">
  <ele>1583.0</ele>
  <time>2026-08-28T17:56:59Z</time>
  <course>0.0</course>
  <speed>0.0</speed>
  <fix>3d</fix>
</trkpt>
<trkpt lat="40.0713749" lon="-105.229789">
  <ele>1583.0</ele>
  <time>2026-08-28T17:56:59Z</time>
  <course>248.39</course>
  <speed>0.0</speed>
  <fix>3d</fix>
</trkpt>
<trkpt lat="40.0713749" lon="-105.229789">
  <ele>1583.0</ele>
  <time>2026-08-28T17:56:59Z</time>
  <course>0.0</course>
  <speed>0.0</speed>
  <fix>3d</fix>
</trkpt>
<trkpt lat="40.0713749" lon="-105.229789">
  <ele>1583.0</ele>
  <time>2026-08-28T17:56:59Z</time>
  <course>248.4</course>
  <speed>0.0</speed>
  <fix>3d</fix>
</trkpt>
<trkpt lat="40.0713749" lon="-105.229789">
  <ele>1583.0</ele>
  <time>2026-08-28T17:56:59Z</time>
  <course>0.0</course>
  <speed>0.0</speed>
  <fix>3d</fix>
</trkpt>
<trkpt lat="40.0713749" lon="-105.229789">
  <ele>1583.0</ele>
  <time>2026-08-28T17:56:59Z</time>
  <course>248.4</course>
  <speed>0.0</speed>
  <fix>3d</fix>
</trkpt>
<trkpt lat="40.0713749" lon="-105.229789">
  <ele>1583.0</ele>
  <time>2026-08-28T17:56:59Z</time>
  <course>0.0</course>
  <speed>0.0</speed>
  <fix>3d</fix>
</trkpt>
<trkpt lat="40.0713749" lon="-105.229789">
  <ele>1583.0</ele>
  <time>2026-08-28T17:56:59Z</time>
  <course>248.4</course>
  <speed>0.0</speed>
  <fix>3d</fix>
</trkpt>
<trkpt lat="40.0713749" lon="-105.229789">
  <ele>1583.0</ele>
  <time>2026-08-28T17:56:59Z</time>
  <course>0.0</course>
  <speed>0.0</speed>
  <fix>3d</fix>
</trkpt>
<trkpt lat="40.0713749" lon="-105.229789">
  <ele>1583.0</ele>
  <time>2026-08-28T17:56:59Z</time>
  <course>248.4</course>
  <speed>0.0</speed>
  <fix>3d</fix>
</trkpt>
<trkpt lat="40.0713749" lon="-105.229789">
  <ele>1583.0</ele>
  <time>2026-08-28T17:56:59Z</time>
  <course>0.0</course>
  <speed>0.0</speed>
  <fix>3d</fix>
</trkpt>
<trkpt lat="40.0713749" lon="-105.229789">
  <ele>1583.0</ele>
  <time>2026-08-28T17:56:59Z</time>
  <course>248.41</course>
  <speed>0.0</speed>
  <fix>3d</fix>
</trkpt>
<trkpt lat="40.0713749" lon="-105.229789">
  <ele>1583.0</ele>
  <time>2026-08-28T17:56:59Z</time>
  <course>0.0</course>
  <speed>0.0</speed>
  <fix>3d</fix>
</trkpt>
<trkpt lat="40.0713749" lon="-105.229789">
  <ele>1583.0</ele>
  <time>2026-08-28T17:56:59Z</time>
  <course>248.41</course>
  <speed>0.0</speed>
  <fix>3d</fix>
</trkpt>
<trkpt lat="40.0713749" lon="-105.229789">
  <ele>1583.0</ele>
  <time>2026-08-28T17:56:59Z</time>
  <course>0.0</course>
  <speed>0.0</speed>
  <fix>3d</fix>
</trkpt>
<trkpt lat="40.0713749" lon="-105.229789">
  <ele>1583.0</ele>
  <time>2026-08-28T17:56:59Z</time>
  <course>248.41</course>
  <speed>0.0</speed>
  <fix>3d</fix>
</trkpt>
<trkpt lat="40.0713749" lon="-105.229789">
  <ele>1583.0</ele>
  <time>2026-08-28T17:56:59Z</time>
  <course>0.0</course>
  <speed>0.0</speed>
  <fix>3d</fix>
</trkpt>
<trkpt lat="40.0713749" lon="-105.229789">
  <ele>1583.0</ele>
  <time>2026-08-28T17:56:59Z</time>
  <course>248.41</course>
  <speed>0.0</speed>
  <fix>3d</fix>
</trkpt>
<trkpt lat="40.0713749" lon="-105.229789">
  <ele>1583.0</ele>
  <time>2026-08-28T17:56:59Z</time>
  <course>0.0</course>
  <speed>0.0</speed>
  <fix>3d</fix>
</trkpt>
<trkpt lat="40.0713749" lon="-105.229789">
  <ele>1583.0</ele>
  <time>2026-08-28T17:56:59Z</time>
  <course>248.41</course>
  <speed>0.0</speed>
  <fix>3d</fix>
</trkpt>
<trkpt lat="40.0713749" lon="-105.229789">
  <ele>1583.0</ele>
  <time>2026-08-28T17:56:59Z</time>
  <course>0.0</course>
  <speed>0.0</speed>
  <fix>3d</fix>
</trkpt>
<trkpt lat="40.0713749" lon="-105.229789">
  <ele>1583.0</ele>
  <time>2026-08-28T17:56:59Z</time>
  <course>248.41</course>
  <speed>0.0</speed>
  <fix>3d</fix>
</trkpt>
<trkpt lat="40.0713749" lon="-105.229789">
  <ele>1583.0</ele>
  <time>2026-08-28T17:56:59Z</time>
  <course>0.0</course>
  <speed>0.0</speed>
  <fix>3d</fix>
</trkpt>
<trkpt lat="40.0713749" lon="-105.229789">
  <ele>1583.0</ele>
  <time>2026-08-28T17:56:59Z</time>
  <course>248.41</course>
  <speed>0.0</speed>
  <fix>3d</fix>
</trkpt>
<trkpt lat="40.0713749" lon="-105.229789">
  <ele>1583.0</ele>
  <time>2026-08-28T17:56:59Z</time>
  <course>0.0</course>
  <speed>0.0</speed>
  <fix>3d</fix>
</trkpt>
<trkpt lat="40.0713749" lon="-105.229789">
  <ele>1583.0</ele>
  <time>2026-08-28T17:56:59Z</time>
  <course>248.41</course>
  <speed>0.0</speed>
  <fix>3d</fix>
</trkpt>
<trkpt lat="40.0713749" lon="-105.229789">
  <ele>1583.0</ele>
  <time>2026-08-28T17:56:59Z</time>
  <course>0.0</course>
  <speed>0.0</speed>
  <fix>3d</fix>
</trkpt>
<trkpt lat="40.0713749" lon="-105.229789">
  <ele>1583.0</ele>
  <time>2026-08-28T17:56:59Z</time>
  <course>248.41</course>
  <speed>0.0</speed>
  <fix>3d</fix>
</trkpt>
<trkpt lat="40.0713749" lon="-105.229789">
  <ele>1583.0</ele>
  <time>2026-08-28T17:56:59Z</time>
  <course>0.0</course>
  <speed>0.0</speed>
  <fix>3d</fix>
</trkpt>
<trkpt lat="40.0713749" lon="-105.229789">
  <ele>1583.0</ele>
  <time>2026-08-28T17:56:59Z</time>
  <course>248.41</course>
  <speed>0.0</speed>
  <fix>3d</fix>
</trkpt>
<trkpt lat="40.0713749" lon="-105.229789">
  <ele>1583.0</ele>
  <time>2026-08-28T17:56:59Z</time>
  <course>0.0</course>
  <speed>0.0</speed>
  <fix>3d</fix>
</trkpt>
<trkpt lat="40.0713749" lon="-105.229789">
  <ele>1583.0</ele>
  <time>2026-08-28T17:56:59Z</time>
  <course>248.41</course>
  <speed>0.0</speed>
  <fix>3d</fix>
</trkpt>
<trkpt lat="40.0713749" lon="-105.229789">
  <ele>1583.0</ele>
  <time>2026-08-28T17:56:59Z</time>
  <course>0.0</course>
  <speed>0.0</speed>
  <fix>3d</fix>
</trkpt>
<trkpt lat="40.0713749" lon="-105.229789">
  <ele>1583.0</ele>
  <time>2026-08-28T17:56:59Z</time>
  <course>248.41</course>
  <speed>0.0</speed>
  <fix>3d</fix>
</trkpt>
<trkpt lat="40.0713749" lon="-105.229789">
  <ele>1583.0</ele>
  <time>2026-08-28T17:56:59Z</time>
  <course>0.0</course>
  <speed>0.0</speed>
  <fix>3d</fix>
</trkpt>
<trkpt lat="40.0713749" lon="-105.229789">
  <ele>1583.0</ele>
  <time>2026-08-28T17:56:59Z</time>
  <course>248.41</course>
  <speed>0.0</speed>
  <fix>3d</fix>
</trkpt>
<trkpt lat="40.0713749" lon="-105.229789">
  <ele>1583.0</ele>
  <time>2026-08-28T17:56:59Z</time>
  <course>0.0</course>
  <speed>0.0</speed>
  <fix>3d</fix>
</trkpt>
<trkpt lat="40.0713749" lon="-105.229789">
  <ele>1583.0</ele>
  <time>2026-08-28T17:56:59Z</time>
  <course>248.41</course>
  <speed>0.0</speed>
  <fix>3d</fix>
</trkpt>
<trkpt lat="40.0713749" lon="-105.229789">
  <ele>1583.0</ele>
  <time>2026-08-28T17:56:59Z</time>
  <course>0.0</course>
  <speed>0.0</speed>
  <fix>3d</fix>
</trkpt>
<trkpt lat="40.0713749" lon="-105.229789">
  <ele>1583.0</ele>
  <time>2026-08-28T17:56:59Z</time>
  <course>248.41</course>
  <speed>0.0</speed>
  <fix>3d</fix>
</trkpt>
<trkpt lat="40.0713749" lon="-105.229789">
  <ele>1583.0</ele>
  <time>2026-08-28T17:56:59Z</time>
  <course>0.0</course>
  <speed>0.0</speed>
  <fix>3d</fix>
</trkpt>
<trkpt lat="40.0713749" lon="-105.229789">
  <ele>1583.0</ele>
  <time>2026-08-28T17:56:59Z</time>
  <course>248.41</course>
  <speed>0.0</speed>
  <fix>3d</fix>
</trkpt>
<trkpt lat="40.0713749" lon="-105.229789">
  <ele>1583.0</ele>
  <time>2026-08-28T17:56:59Z</time>
  <course>0.0</course>
  <speed>0.0</speed>
  <fix>3d</fix>
</trkpt>
<trkpt lat="40.0713749" lon="-105.229789">
  <ele>1583.0</ele>
  <time>2026-08-28T17:56:59Z</time>
  <course>248.4</course>
  <speed>0.0</speed>
  <fix>3d</fix>
</trkpt>
<trkpt lat="40.0713749" lon="-105.229789">
  <ele>1583.0</ele>
  <time>2026-08-28T17:56:59Z</time>
  <course>0.0</course>
  <speed>0.0</speed>
  <fix>3d</fix>
</trkpt>
<trkpt lat="40.0713749" lon="-105.229789">
  <ele>1583.0</ele>
  <time>2026-08-28T17:56:59Z</time>
  <course>248.4</course>
  <speed>0.01</speed>
  <fix>3d</fix>
</trkpt>
<trkpt lat="40.0713749" lon="-105.229789">
  <ele>1583.0</ele>
  <time>2026-08-28T17:56:59Z</time>
  <course>0.0</course>
  <speed>0.0</speed>
  <fix>3d</fix>
</trkpt>
<trkpt lat="40.0713749" lon="-105.229789">
  <ele>1583.0</ele>
  <time>2026-08-28T17:56:59Z</time>
  <course>248.4</course>
  <speed>0.01</speed>
  <fix>3d</fix>
</trkpt>
<trkpt lat="40.0713749" lon="-105.229789">
  <ele>1583.0</ele>
  <time>2026-08-28T17:56:59Z</time>
  <course>0.0</course>
  <speed>0.0</speed>
  <fix>3d</fix>
</trkpt>
<trkpt lat="40.0713749" lon="-105.229789">
  <ele>1583.0</ele>
  <time>2026-08-28T17:56:59Z</time>
  <course>248.4</course>
  <speed>0.01</speed>
  <fix>3d</fix>
</trkpt>
<trkpt lat="40.0713749" lon="-105.229789">
  <ele>1583.0</ele>
  <time>2026-08-28T17:56:59Z</time>
  <course>0.0</course>
  <speed>0.0</speed>
  <fix>3d</fix>
</trkpt>
<trkpt lat="40.0713749" lon="-105.229789">
  <ele>1583.0</ele>
  <time>2026-08-28T17:56:59Z</time>
  <course>248.4</course>
  <speed>0.01</speed>
  <fix>3d</fix>
</trkpt>
<trkpt lat="40.0713749" lon="-105.229789">
  <ele>1583.0</ele>
  <time>2026-08-28T17:56:59Z</time>
  <course>0.0</course>
  <speed>0.0</speed>
  <fix>3d</fix>
</trkpt>
<trkpt lat="40.0713749" lon="-105.229789">
  <ele>1583.0</ele>
  <time>2026-08-28T17:56:59Z</time>
  <course>248.39</course>
  <speed>0.01</speed>
  <fix>3d</fix>
</trkpt>
<trkpt lat="40.0713749" lon="-105.229789">
  <ele>1583.0</ele>
  <time>2026-08-28T17:56:59Z</time>
  <course>0.0</course>
  <speed>0.0</speed>
  <fix>3d</fix>
</trkpt>
<trkpt lat="40.0713749" lon="-105.229789">
  <ele>1583.0</ele>
  <time>2026-08-28T17:56:59Z</time>
  <course>248.39</course>
  <speed>0.01</speed>
  <fix>3d</fix>
</trkpt>
<trkpt lat="40.0713749" lon="-105.229789">
  <ele>1583.0</ele>
  <time>2026-08-28T17:56:59Z</time>
  <course>0.0</course>
  <speed>0.0</speed>
  <fix>3d</fix>
</trkpt>
<trkpt lat="40.0713749" lon="-105.229789">
  <ele>1583.0</ele>
  <time>2026-08-28T17:56:59Z</time>
  <course>248.39</course>
  <speed>0.01</speed>
  <fix>3d</fix>
</trkpt>
<trkpt lat="40.0713749" lon="-105.229789">
  <ele>1583.0</ele>
  <time>2026-08-28T17:56:59Z</time>
  <course>0.0</course>
  <speed>0.0</speed>
  <fix>3d</fix>
</trkpt>
<trkpt lat="40.0713749" lon="-105.229789">
  <ele>1583.0</ele>
  <time>2026-08-28T17:56:59Z</time>
  <course>248.38</course>
  <speed>0.01</speed>
  <fix>3d</fix>
</trkpt>
<trkpt lat="40.0713749" lon="-105.229789">
  <ele>1583.0</ele>
  <time>2026-08-28T17:56:59Z</time>
  <course>0.0</course>
  <speed>0.0</speed>
  <fix>3d</fix>
</trkpt>
<trkpt lat="40.0713749" lon="-105.229789">
  <ele>1583.0</ele>
  <time>2026-08-28T17:56:59Z</time>
  <course>248.38</course>
  <speed>0.01</speed>
  <fix>3d</fix>
</trkpt>
<trkpt lat="40.0713749" lon="-105.229789">
  <ele>1583.0</ele>
  <time>2026-08-28T17:56:59Z</time>
  <course>0.0</course>
  <speed>0.0</speed>
  <fix>3d</fix>
</trkpt>
<trkpt lat="40.0713749" lon="-105.229789">
  <ele>1583.0</ele>
  <time>2026-08-28T17:56:59Z</time>
  <course>248.38</course>
  <speed>0.01</speed>
  <fix>3d</fix>
</trkpt>
<trkpt lat="40.0713749" lon="-105.229789">
  <ele>1583.0</ele>
  <time>2026-08-28T17:56:59Z</time>
  <course>0.0</course>
  <speed>0.0</speed>
  <fix>3d</fix>
</trkpt>
<trkpt lat="40.0713749" lon="-105.229789">
  <ele>1583.0</ele>
  <time>2026-08-28T17:56:59Z</time>
  <course>248.38</course>
  <speed>0.01</speed>
  <fix>3d</fix>
</trkpt>
<trkpt lat="40.0713749" lon="-105.229789">
  <ele>1583.0</ele>
  <time>2026-08-28T17:56:59Z</time>
  <course>0.0</course>
  <speed>0.0</speed>
  <fix>3d</fix>
</trkpt>
<trkpt lat="40.0713749" lon="-105.229789">
  <ele>1583.0</ele>
  <time>2026-08-28T17:56:59Z</time>
  <course>248.37</course>
  <speed>0.01</speed>
  <fix>3d</fix>
</trkpt>
<trkpt lat="40.0713749" lon="-105.229789">
  <ele>1583.0</ele>
  <time>2026-08-28T17:56:59Z</time>
  <course>0.0</course>
  <speed>0.0</speed>
  <fix>3d</fix>
</trkpt>
<trkpt lat="40.0713749" lon="-105.229789">
  <ele>1583.0</ele>
  <time>2026-08-28T17:56:59Z</time>
  <course>248.37</course>
  <speed>0.01</speed>
  <fix>3d</fix>
</trkpt>
<trkpt lat="40.0713749" lon="-105.229789">
  <ele>1583.0</ele>
  <time>2026-08-28T17:56:59Z</time>
  <course>0.0</course>
  <speed>0.0</speed>
  <fix>3d</fix>
</trkpt>
<trkpt lat="40.0713749" lon="-105.229789">
  <ele>1583.0</ele>
  <time>2026-08-28T17:56:59Z</time>
  <course>248.37</course>
  <speed>0.01</speed>
  <fix>3d</fix>
</trkpt>
<trkpt lat="40.0713749" lon="-105.229789">
  <ele>1583.0</ele>
  <time>2026-08-28T17:56:59Z</time>
  <course>0.0</course>
  <speed>0.0</speed>
  <fix>3d</fix>
</trkpt>
<trkpt lat="40.0713749" lon="-105.229789">
  <ele>1583.0</ele>
  <time>2026-08-28T17:56:59Z</time>
  <course>248.36</course>
  <speed>0.01</speed>
  <fix>3d</fix>
</trkpt>
<trkpt lat="40.0713749" lon="-105.229789">
  <ele>1583.0</ele>
  <time>2026-08-28T17:56:59Z</time>
  <course>0.0</course>
  <speed>0.0</speed>
  <fix>3d</fix>
</trkpt>
<trkpt lat="40.0713749" lon="-105.229789">
  <ele>1583.0</ele>
  <time>2026-08-28T17:56:59Z</time>
  <course>248.36</course>
  <speed>0.01</speed>
  <fix>3d</fix>
</trkpt>
<trkpt lat="40.0713749" lon="-105.229789">
  <ele>1583.0</ele>
  <time>2026-08-28T17:56:59Z</time>
  <course>0.0</course>
  <speed>0.0</speed>
  <fix>3d</fix>
</trkpt>
<trkpt lat="40.0713749" lon="-105.229789">
  <ele>1583.0</ele>
  <time>2026-08-28T17:56:59Z</time>
  <course>248.35</course>
  <speed>0.01</speed>
  <fix>3d</fix>
</trkpt>
<trkpt lat="40.0713749" lon="-105.229789">
  <ele>1583.0</ele>
  <time>2026-08-28T17:56:59Z</time>
  <course>0.0</course>
  <speed>0.0</speed>
  <fix>3d</fix>
</trkpt>
<trkpt lat="40.0713749" lon="-105.229789">
  <ele>1583.0</ele>
  <time>2026-08-28T17:56:59Z</time>
  <course>248.35</course>
  <speed>0.01</speed>
  <fix>3d</fix>
</trkpt>
<trkpt lat="40.0713749" lon="-105.229789">
  <ele>1583.0</ele>
  <time>2026-08-28T17:56:59Z</time>
  <course>0.0</course>
  <speed>0.0</speed>
  <fix>3d</fix>
</trkpt>
<trkpt lat="40.0713749" lon="-105.229789">
  <ele>1583.0</ele>
  <time>2026-08-28T17:56:59Z</time>
  <course>248.35</course>
  <speed>0.01</speed>
  <fix>3d</fix>
</trkpt>
<trkpt lat="40.0713749" lon="-105.229789">
  <ele>1583.0</ele>
  <time>2026-08-28T17:56:59Z</time>
  <course>0.0</course>
  <speed>0.0</speed>
  <fix>3d</fix>
</trkpt>
<trkpt lat="40.0713749" lon="-105.229789">
  <ele>1583.0</ele>
  <time>2026-08-28T17:56:59Z</time>
  <course>248.34</course>
  <speed>0.01</speed>
  <fix>3d</fix>
</trkpt>
<trkpt lat="40.0713749" lon="-105.229789">
  <ele>1583.0</ele>
  <time>2026-08-28T17:56:59Z</time>
  <course>0.0</course>
  <speed>0.0</speed>
  <fix>3d</fix>
</trkpt>
<trkpt lat="40.0713749" lon="-105.229789">
  <ele>1583.0</ele>
  <time>2026-08-28T17:56:59Z</time>
  <course>248.34</course>
  <speed>0.01</speed>
  <fix>3d</fix>
</trkpt>
<trkpt lat="40.0713749" lon="-105.229789">
  <ele>1583.0</ele>
  <time>2026-08-28T17:56:59Z</time>
  <course>0.0</course>
  <speed>0.0</speed>
  <fix>3d</fix>
</trkpt>
<trkpt lat="40.0713749" lon="-105.229789">
  <ele>1583.0</ele>
  <time>2026-08-28T17:56:59Z</time>
  <course>248.33</course>
  <speed>0.01</speed>
  <fix>3d</fix>
</trkpt>
<trkpt lat="40.0713749" lon="-105.229789">
  <ele>1583.0</ele>
  <time>2026-08-28T17:56:59Z</time>
  <course>0.0</course>
  <speed>0.0</speed>
  <fix>3d</fix>
</trkpt>
<trkpt lat="40.0713749" lon="-105.229789">
  <ele>1583.0</ele>
  <time>2026-08-28T17:56:59Z</time>
  <course>248.33</course>
  <speed>0.01</speed>
  <fix>3d</fix>
</trkpt>
<trkpt lat="40.0713749" lon="-105.229789">
  <ele>1583.0</ele>
  <time>2026-08-28T17:56:59Z</time>
  <course>0.0</course>
  <speed>0.0</speed>
  <fix>3d</fix>
</trkpt>
<trkpt lat="40.0713749" lon="-105.229789">
  <ele>1583.0</ele>
  <time>2026-08-28T17:56:59Z</time>
  <course>248.32</course>
  <speed>0.01</speed>
  <fix>3d</fix>
</trkpt>
<trkpt lat="40.0713749" lon="-105.229789">
  <ele>1583.0</ele>
  <time>2026-08-28T17:56:59Z</time>
  <course>0.0</course>
  <speed>0.0</speed>
  <fix>3d</fix>
</trkpt>
<trkpt lat="40.0713749" lon="-105.229789">
  <ele>1583.0</ele>
  <time>2026-08-28T17:56:59Z</time>
  <course>248.32</course>
  <speed>0.01</speed>
  <fix>3d</fix>
</trkpt>
<trkpt lat="40.0713749" lon="-105.229789">
  <ele>1583.0</ele>
  <time>2026-08-28T17:56:59Z</time>
  <course>0.0</course>
  <speed>0.0</speed>
  <fix>3d</fix>
</trkpt>
<trkpt lat="40.0713749" lon="-105.229789">
  <ele>1583.0</ele>
  <time>2026-08-28T17:56:59Z</time>
  <course>248.32</course>
  <speed>0.01</speed>
  <fix>3d</fix>
</trkpt>
<trkpt lat="40.0713749" lon="-105.229789">
  <ele>1583.0</ele>
  <time>2026-08-28T17:56:59Z</time>
  <course>0.0</course>
  <speed>0.0</speed>
  <fix>3d</fix>
</trkpt>
<trkpt lat="40.0713749" lon="-105.229789">
  <ele>1583.0</ele>
  <time>2026-08-28T17:56:59Z</time>
  <course>248.31</course>
  <speed>0.01</speed>
  <fix>3d</fix>
</trkpt>
<trkpt lat="40.0713749" lon="-105.229789">
  <ele>1583.0</ele>
  <time>2026-08-28T17:56:59Z</time>
  <course>0.0</course>
  <speed>0.0</speed>
  <fix>3d</fix>
</trkpt>
<trkpt lat="40.0713749" lon="-105.229789">
  <ele>1583.0</ele>
  <time>2026-08-28T17:56:59Z</time>
  <course>248.31</course>
  <speed>0.01</speed>
  <fix>3d</fix>
</trkpt>
<trkpt lat="40.0713749" lon="-105.229789">
  <ele>1583.0</ele>
  <time>2026-08-28T17:56:59Z</time>
  <course>0.0</course>
  <speed>0.0</speed>
  <fix>3d</fix>
</trkpt>
<trkpt lat="40.0713749" lon="-105.229789">
  <ele>1583.0</ele>
  <time>2026-08-28T17:56:59Z</time>
  <course>248.3</course>
  <speed>0.01</speed>
  <fix>3d</fix>
</trkpt>
<trkpt lat="40.0713749" lon="-105.229789">
  <ele>1583.0</ele>
  <time>2026-08-28T17:56:59Z</time>
  <course>0.0</course>
  <speed>0.0</speed>
  <fix>3d</fix>
</trkpt>
<trkpt lat="40.0713749" lon="-105.229789">
  <ele>1583.0</ele>
  <time>2026-08-28T17:56:59Z</time>
  <course>248.3</course>
  <speed>0.01</speed>
  <fix>3d</fix>
</trkpt>
<trkpt lat="40.0713749" lon="-105.229789">
  <ele>1583.0</ele>
  <time>2026-08-28T17:56:59Z</time>
  <course>0.0</course>
  <speed>0.0</speed>
  <fix>3d</fix>
</trkpt>
<trkpt lat="40.0713749" lon="-105.229789">
  <ele>1583.0</ele>
  <time>2026-08-28T17:56:59Z</time>
  <course>248.29</course>
  <speed>0.01</speed>
  <fix>3d</fix>
</trkpt>
<trkpt lat="40.0713749" lon="-105.229789">
  <ele>1583.0</ele>
  <time>2026-08-28T17:56:59Z</time>
  <course>0.0</course>
  <speed>0.0</speed>
  <fix>3d</fix>
</trkpt>
<trkpt lat="40.0713749" lon="-105.229789">
  <ele>1583.0</ele>
  <time>2026-08-28T17:56:59Z</time>
  <course>248.29</course>
  <speed>0.01</speed>
  <fix>3d</fix>
</trkpt>
<trkpt lat="40.0713749" lon="-105.229789">
  <ele>1583.0</ele>
  <time>2026-08-28T17:56:59Z</time>
  <course>0.0</course>
  <speed>0.0</speed>
  <fix>3d</fix>
</trkpt>
<trkpt lat="40.0713749" lon="-105.229789">
  <ele>1583.0</ele>
  <time>2026-08-28T17:56:59Z</time>
  <course>248.28</course>
  <speed>0.01</speed>
  <fix>3d</fix>
</trkpt>
<trkpt lat="40.0713749" lon="-105.229789">
  <ele>1583.0</ele>
  <time>2026-08-28T17:56:59Z</time>
  <course>0.0</course>
  <speed>0.0</speed>
  <fix>3d</fix>
</trkpt>
<trkpt lat="40.0713749" lon="-105.229789">
  <ele>1583.0</ele>
  <time>2026-08-28T17:56:59Z</time>
  <course>248.28</course>
  <speed>0.01</speed>
  <fix>3d</fix>
</trkpt>
<trkpt lat="40.0713749" lon="-105.229789">
  <ele>1583.0</ele>
  <time>2026-08-28T17:56:59Z</time>
  <course>0.0</course>
  <speed>0.0</speed>
  <fix>3d</fix>
</trkpt>
<trkpt lat="40.0713749" lon="-105.229789">
  <ele>1583.0</ele>
  <time>2026-08-28T17:56:59Z</time>
  <course>248.27</course>
  <speed>0.01</speed>
  <fix>3d</fix>
</trkpt>
<trkpt lat="40.0713749" lon="-105.229789">
  <ele>1583.0</ele>
  <time>2026-08-28T17:56:59Z</time>
  <course>0.0</course>
  <speed>0.0</speed>
  <fix>3d</fix>
</trkpt>
<trkpt lat="40.0713749" lon="-105.229789">
  <ele>1583.0</ele>
  <time>2026-08-28T17:56:59Z</time>
  <course>248.27</course>
  <speed>0.01</speed>
  <fix>3d</fix>
</trkpt>
<trkpt lat="40.0713749" lon="-105.229789">
  <ele>1583.0</ele>
  <time>2026-08-28T17:56:59Z</time>
  <course>0.0</course>
  <speed>0.0</speed>
  <fix>3d</fix>
</trkpt>
<trkpt lat="40.0713749" lon="-105.229789">
  <ele>1583.0</ele>
  <time>2026-08-28T17:56:59Z</time>
  <course>248.27</course>
  <speed>0.01</speed>
  <fix>3d</fix>
</trkpt>
<trkpt lat="40.0713749" lon="-105.229789">
  <ele>1583.0</ele>
  <time>2026-08-28T17:56:59Z</time>
  <course>0.0</course>
  <speed>0.0</speed>
  <fix>3d</fix>
</trkpt>
<trkpt lat="40.0713749" lon="-105.229789">
  <ele>1583.0</ele>
  <time>2026-08-28T17:56:59Z</time>
  <course>248.26</course>
  <speed>0.01</speed>
  <fix>3d</fix>
</trkpt>
<trkpt lat="40.0713749" lon="-105.229789">
  <ele>1583.0</ele>
  <time>2026-08-28T17:56:59Z</time>
  <course>0.0</course>
  <speed>0.0</speed>
  <fix>3d</fix>
</trkpt>
<trkpt lat="40.0713749" lon="-105.229789">
  <ele>1583.0</ele>
  <time>2026-08-28T17:56:59Z</time>
  <course>248.26</course>
  <speed>0.01</speed>
  <fix>3d</fix>
</trkpt>
<trkpt lat="40.0713749" lon="-105.229789">
  <ele>1583.0</ele>
  <time>2026-08-28T17:56:59Z</time>
  <course>0.0</course>
  <speed>0.0</speed>
  <fix>3d</fix>
</trkpt>
<trkpt lat="40.0713749" lon="-105.229789">
  <ele>1583.0</ele>
  <time>2026-08-28T17:56:59Z</time>
  <course>248.25</course>
  <speed>0.01</speed>
  <fix>3d</fix>
</trkpt>
<trkpt lat="40.0713749" lon="-105.229789">
  <ele>1583.0</ele>
  <time>2026-08-28T17:56:59Z</time>
  <course>0.0</course>
  <speed>0.0</speed>
  <fix>3d</fix>
</trkpt>
<trkpt lat="40.0713749" lon="-105.229789">
  <ele>1583.0</ele>
  <time>2026-08-28T17:56:59Z</time>
  <course>248.25</course>
  <speed>0.01</speed>
  <fix>3d</fix>
</trkpt>
<trkpt lat="40.0713749" lon="-105.229789">
  <ele>1583.0</ele>
  <time>2026-08-28T17:56:59Z</time>
  <course>0.0</course>
  <speed>0.0</speed>
  <fix>3d</fix>
</trkpt>
<trkpt lat="40.0713749" lon="-105.229789">
  <ele>1583.0</ele>
  <time>2026-08-28T17:56:59Z</time>
  <course>248.24</course>
  <speed>0.01</speed>
  <fix>3d</fix>
</trkpt>
<trkpt lat="40.0713749" lon="-105.229789">
  <ele>1583.0</ele>
  <time>2026-08-28T17:56:59Z</time>
  <course>0.0</course>
  <speed>0.0</speed>
  <fix>3d</fix>
</trkpt>
<trkpt lat="40.0713749" lon="-105.229789">
  <ele>1583.0</ele>
  <time>2026-08-28T17:56:59Z</time>
  <course>248.24</course>
  <speed>0.01</speed>
  <fix>3d</fix>
</trkpt>
<trkpt lat="40.0713749" lon="-105.229789">
  <ele>1583.0</ele>
  <time>2026-08-28T17:56:59Z</time>
  <course>0.0</course>
  <speed>0.0</speed>
  <fix>3d</fix>
</trkpt>
<trkpt lat="40.0713749" lon="-105.229789">
  <ele>1583.0</ele>
  <time>2026-08-28T17:56:59Z</time>
  <course>248.23</course>
  <speed>0.01</speed>
  <fix>3d</fix>
</trkpt>
<trkpt lat="40.0713749" lon="-105.229789">
  <ele>1583.0</ele>
  <time>2026-08-28T17:56:59Z</time>
  <course>0.0</course>
  <speed>0.0</speed>
  <fix>3d</fix>
</trkpt>
<trkpt lat="40.0713749" lon="-105.229789">
  <ele>1583.0</ele>
  <time>2026-08-28T17:56:59Z</time>
  <course>248.23</course>
  <speed>0.01</speed>
  <fix>3d</fix>
</trkpt>
<trkpt lat="40.0713749" lon="-105.229789">
  <ele>1583.0</ele>
  <time>2026-08-28T17:56:59Z</time>
  <course>0.0</course>
  <speed>0.0</speed>
  <fix>3d</fix>
</trkpt>
<trkpt lat="40.0713749" lon="-105.229789">
  <ele>1583.0</ele>
  <time>2026-08-28T17:56:59Z</time>
  <course>248.22</course>
  <speed>0.01</speed>
  <fix>3d</fix>
</trkpt>
<trkpt lat="40.0713749" lon="-105.229789">
  <ele>1583.0</ele>
  <time>2026-08-28T17:56:59Z</time>
  <course>0.0</course>
  <speed>0.0</speed>
  <fix>3d</fix>
</trkpt>
<trkpt lat="40.0713749" lon="-105.229789">
  <ele>1583.0</ele>
  <time>2026-08-28T17:56:59Z</time>
  <course>248.22</course>
  <speed>0.01</speed>
  <fix>3d</fix>
</trkpt>
<trkpt lat="40.0713749" lon="-105.229789">
  <ele>1583.0</ele>
  <time>2026-08-28T17:56:59Z</time>
  <course>0.0</course>
  <speed>0.0</speed>
  <fix>3d</fix>
</trkpt>
<trkpt lat="40.0713749" lon="-105.229789">
  <ele>1583.0</ele>
  <time>2026-08-28T17:56:59Z</time>
  <course>248.21</course>
  <speed>0.01</speed>
  <fix>3d</fix>
</trkpt>
<trkpt lat="40.0713749" lon="-105.229789">
  <ele>1583.0</ele>
  <time>2026-08-28T17:56:59Z</time>
  <course>0.0</course>
  <speed>0.0</speed>
  <fix>3d</fix>
</trkpt>
<trkpt lat="40.0713749" lon="-105.229789">
  <ele>1583.0</ele>
  <time>2026-08-28T17:56:59Z</time>
  <course>248.21</course>
  <speed>0.01</speed>
  <fix>3d</fix>
</trkpt>
<trkpt lat="40.0713749" lon="-105.229789">
  <ele>1583.0</ele>
  <time>2026-08-28T17:56:59Z</time>
  <course>0.0</course>
  <speed>0.0</speed>
  <fix>3d</fix>
</trkpt>
<trkpt lat="40.0713749" lon="-105.229789">
  <ele>1583.0</ele>
  <time>2026-08-28T17:56:59Z</time>
  <course>248.2</course>
  <speed>0.01</speed>
  <fix>3d</fix>
</trkpt>
<trkpt lat="40.0713749" lon="-105.229789">
  <ele>1583.0</ele>
  <time>2026-08-28T17:56:59Z</time>
  <course>0.0</course>
  <speed>0.0</speed>
  <fix>3d</fix>
</trkpt>
<trkpt lat="40.0713749" lon="-105.229789">
  <ele>1583.0</ele>
  <time>2026-08-28T17:56:59Z</time>
  <course>248.2</course>
  <speed>0.01</speed>
  <fix>3d</fix>
</trkpt>
<trkpt lat="40.0713749" lon="-105.229789">
  <ele>1583.0</ele>
  <time>2026-08-28T17:56:59Z</time>
  <course>0.0</course>
  <speed>0.0</speed>
  <fix>3d</fix>
</trkpt>
<trkpt lat="40.0713749" lon="-105.229789">
  <ele>1583.0</ele>
  <time>2026-08-28T17:56:59Z</time>
  <course>248.19</course>
  <speed>0.01</speed>
  <fix>3d</fix>
</trkpt>
<trkpt lat="40.0713749" lon="-105.229789">
  <ele>1583.0</ele>
  <time>2026-08-28T17:56:59Z</time>
  <course>0.0</course>
  <speed>0.0</speed>
  <fix>3d</fix>
</trkpt>
<trkpt lat="40.0713749" lon="-105.229789">
  <ele>1583.0</ele>
  <time>2026-08-28T17:56:59Z</time>
  <course>248.19</course>
  <speed>0.01</speed>
  <fix>3d</fix>
</trkpt>
<trkpt lat="40.0713749" lon="-105.229789">
  <ele>1583.0</ele>
  <time>2026-08-28T17:56:59Z</time>
  <course>0.0</course>
  <speed>0.0</speed>
  <fix>3d</fix>
</trkpt>
<trkpt lat="40.0713749" lon="-105.229789">
  <ele>1583.0</ele>
  <time>2026-08-28T17:56:59Z</time>
  <course>248.18</course>
  <speed>0.01</speed>
  <fix>3d</fix>
</trkpt>
<trkpt lat="40.0713749" lon="-105.229789">
  <ele>1583.0</ele>
  <time>2026-08-28T17:56:59Z</time>
  <course>0.0</course>
  <speed>0.0</speed>
  <fix>3d</fix>
</trkpt>
<trkpt lat="40.0713749" lon="-105.229789">
  <ele>1583.0</ele>
  <time>2026-08-28T17:56:59Z</time>
  <course>248.18</course>
  <speed>0.01</speed>
  <fix>3d</fix>
</trkpt>
<trkpt lat="40.0713749" lon="-105.229789">
  <ele>1583.0</ele>
  <time>2026-08-28T17:56:59Z</time>
  <course>0.0</course>
  <speed>0.0</speed>
  <fix>3d</fix>
</trkpt>
<trkpt lat="40.0713749" lon="-105.229789">
  <ele>1583.0</ele>
  <time>2026-08-28T17:56:59Z</time>
  <course>248.17</course>
  <speed>0.022360679774997897</speed>
  <fix>3d</fix>
</trkpt>
<trkpt lat="40.0713749" lon="-105.229789">
  <ele>1583.0</ele>
  <time>2026-08-28T17:56:59Z</time>
  <course>0.0</course>
  <speed>0.0</speed>
  <fix>3d</fix>
</trkpt>
<trkpt lat="40.0713749" lon="-105.229789">
  <ele>1583.0</ele>
  <time>2026-08-28T17:56:59Z</time>
  <course>248.17</course>
  <speed>0.022360679774997897</speed>
  <fix>3d</fix>
</trkpt>
<trkpt lat="40.0713749" lon="-105.229789">
  <ele>1583.0</ele>
  <time>2026-08-28T17:56:59Z</time>
  <course>0.0</course>
  <speed>0.0</speed>
  <fix>3d</fix>
</trkpt>
<trkpt lat="40.0713749" lon="-105.229789">
  <ele>1583.0</ele>
  <time>2026-08-28T17:56:59Z</time>
  <course>248.16</course>
  <speed>0.022360679774997897</speed>
  <fix>3d</fix>
</trkpt>
<trkpt lat="40.0713749" lon="-105.229789">
  <ele>1583.0</ele>
  <time>2026-08-28T17:56:59Z</time>
  <course>0.0</course>
  <speed>0.0</speed>
  <fix>3d</fix>
</trkpt>
<trkpt lat="40.0713749" lon="-105.229789">
  <ele>1583.0</ele>
  <time>2026-08-28T17:56:59Z</time>
  <course>248.16</course>
  <speed>0.022360679774997897</speed>
  <fix>3d</fix>
</trkpt>
<trkpt lat="40.0713749" lon="-105.229789">
  <ele>1583.0</ele>
  <time>2026-08-28T17:56:59Z</time>
  <course>0.0</course>
  <speed>0.0</speed>
  <fix>3d</fix>
</trkpt>
<trkpt lat="40.0713749" lon="-105.229789">
  <ele>1583.0</ele>
  <time>2026-08-28T17:56:59Z</time>
  <course>248.15</course>
  <speed>0.022360679774997897</speed>
  <fix>3d</fix>
</trkpt>
<trkpt lat="40.0713749" lon="-105.229789">
  <ele>1583.0</ele>
  <time>2026-08-28T17:56:59Z</time>
  <course>0.0</course>
  <speed>0.0</speed>
  <fix>3d</fix>
</trkpt>
<trkpt lat="40.0713749" lon="-105.229789">
  <ele>1583.0</ele>
  <time>2026-08-28T17:56:59Z</time>
  <course>248.15</course>
  <speed>0.022360679774997897</speed>
  <fix>3d</fix>
</trkpt>
<trkpt lat="40.0713749" lon="-105.229789">
  <ele>1583.0</ele>
  <time>2026-08-28T17:56:59Z</time>
  <course>0.0</course>
  <speed>0.0</speed>
  <fix>3d</fix>
</trkpt>
<trkpt lat="40.0713749" lon="-105.229789">
  <ele>1583.0</ele>
  <time>2026-08-28T17:56:59Z</time>
  <course>248.14</course>
  <speed>0.022360679774997897</speed>
  <fix>3d</fix>
</trkpt>
<trkpt lat="40.0713749" lon="-105.229789">
  <ele>1583.0</ele>
  <time>2026-08-28T17:56:59Z</time>
  <course>0.0</course>
  <speed>0.0</speed>
  <fix>3d</fix>
</trkpt>
<trkpt lat="40.0713749" lon="-105.229789">
  <ele>1583.0</ele>
  <time>2026-08-28T17:56:59Z</time>
  <course>248.14</course>
  <speed>0.022360679774997897</speed>
  <fix>3d</fix>
</trkpt>
<trkpt lat="40.0713749" lon="-105.229789">
  <ele>1583.0</ele>
  <time>2026-08-28T17:56:59Z</time>
  <course>0.0</course>
  <speed>0.0</speed>
  <fix>3d</fix>
</trkpt>
<trkpt lat="40.0713749" lon="-105.229789">
  <ele>1583.0</ele>
  <time>2026-08-28T17:56:59Z</time>
  <course>248.13</course>
  <speed>0.022360679774997897</speed>
  <fix>3d</fix>
</trkpt>
<trkpt lat="40.0713749" lon="-105.229789">
  <ele>1583.0</ele>
  <time>2026-08-28T17:56:59Z</time>
  <course>0.0</course>
  <speed>0.0</speed>
  <fix>3d</fix>
</trkpt>
<trkpt lat="40.0713749" lon="-105.229789">
  <ele>1583.0</ele>
  <time>2026-08-28T17:56:59Z</time>
  <course>248.13</course>
  <speed>0.022360679774997897</speed>
  <fix>3d</fix>
</trkpt>
<trkpt lat="40.0713749" lon="-105.229789">
  <ele>1583.0</ele>
  <time>2026-08-28T17:56:59Z</time>
  <course>0.0</course>
  <speed>0.0</speed>
  <fix>3d</fix>
</trkpt>
<trkpt lat="40.0713749" lon="-105.229789">
  <ele>1583.0</ele>
  <time>2026-08-28T17:56:59Z</time>
  <course>248.12</course>
  <speed>0.022360679774997897</speed>
  <fix>3d</fix>
</trkpt>
<trkpt lat="40.0713749" lon="-105.229789">
  <ele>1583.0</ele>
  <time>2026-08-28T17:56:59Z</time>
  <course>0.0</course>
  <speed>0.0</speed>
  <fix>3d</fix>
</trkpt>
<trkpt lat="40.0713749" lon="-105.229789">
  <ele>1583.0</ele>
  <time>2026-08-28T17:56:59Z</time>
  <course>248.12</course>
  <speed>0.022360679774997897</speed>
  <fix>3d</fix>
</trkpt>
<trkpt lat="40.0713749" lon="-105.229789">
  <ele>1583.0</ele>
  <time>2026-08-28T17:56:59Z</time>
  <course>0.0</course>
  <speed>0.0</speed>
  <fix>3d</fix>
</trkpt>
<trkpt lat="40.0713749" lon="-105.229789">
  <ele>1583.0</ele>
  <time>2026-08-28T17:56:59Z</time>
  <course>248.11</course>
  <speed>0.022360679774997897</speed>
  <fix>3d</fix>
</trkpt>
<trkpt lat="40.0713749" lon="-105.229789">
  <ele>1583.0</ele>
  <time>2026-08-28T17:56:59Z</time>
  <course>0.0</course>
  <speed>0.0</speed>
  <fix>3d</fix>
</trkpt>
<trkpt lat="40.0713749" lon="-105.229789">
  <ele>1583.0</ele>
  <time>2026-08-28T17:56:59Z</time>
  <course>248.11</course>
  <speed>0.022360679774997897</speed>
  <fix>3d</fix>
</trkpt>
<trkpt lat="40.0713749" lon="-105.229789">
  <ele>1583.0</ele>
  <time>2026-08-28T17:56:59Z</time>
  <course>0.0</course>
  <speed>0.0</speed>
  <fix>3d</fix>
</trkpt>
<trkpt lat="40.0713749" lon="-105.229789">
  <ele>1583.0</ele>
  <time>2026-08-28T17:56:59Z</time>
  <course>248.1</course>
  <speed>0.022360679774997897</speed>
  <fix>3d</fix>
</trkpt>
<trkpt lat="40.0713749" lon="-105.229789">
  <ele>1583.0</ele>
  <time>2026-08-28T17:56:59Z</time>
  <course>0.0</course>
  <speed>0.0</speed>
  <fix>3d</fix>
</trkpt>
<trkpt lat="40.0713749" lon="-105.229789">
  <ele>1583.0</ele>
  <time>2026-08-28T17:56:59Z</time>
  <course>248.1</course>
  <speed>0.022360679774997897</speed>
  <fix>3d</fix>
</trkpt>
<trkpt lat="40.0713749" lon="-105.229789">
  <ele>1583.0</ele>
  <time>2026-08-28T17:56:59Z</time>
  <course>0.0</course>
  <speed>0.0</speed>
  <fix>3d</fix>
</trkpt>
<trkpt lat="40.0713749" lon="-105.229789">
  <ele>1583.0</ele>
  <time>2026-08-28T17:56:59Z</time>
  <course>248.09</course>
  <speed>0.022360679774997897</speed>
  <fix>3d</fix>
</trkpt>
<trkpt lat="40.0713749" lon="-105.229789">
  <ele>1583.0</ele>
  <time>2026-08-28T17:56:59Z</time>
  <course>0.0</course>
  <speed>0.0</speed>
  <fix>3d</fix>
</trkpt>
<trkpt lat="40.0713749" lon="-105.229789">
  <ele>1583.0</ele>
  <time>2026-08-28T17:56:59Z</time>
  <course>248.09</course>
  <speed>0.022360679774997897</speed>
  <fix>3d</fix>
</trkpt>
<trkpt lat="40.0713749" lon="-105.229789">
  <ele>1583.0</ele>
  <time>2026-08-28T17:56:59Z</time>
  <course>0.0</course>
  <speed>0.0</speed>
  <fix>3d</fix>
</trkpt>
<trkpt lat="40.0713749" lon="-105.229789">
  <ele>1583.0</ele>
  <time>2026-08-28T17:56:59Z</time>
  <course>248.08</course>
  <speed>0.022360679774997897</speed>
  <fix>3d</fix>
</trkpt>
<trkpt lat="40.0713749" lon="-105.229789">
  <ele>1583.0</ele>
  <time>2026-08-28T17:56:59Z</time>
  <course>0.0</course>
  <speed>0.0</speed>
  <fix>3d</fix>
</trkpt>
<trkpt lat="40.0713749" lon="-105.229789">
  <ele>1583.0</ele>
  <time>2026-08-28T17:56:59Z</time>
  <course>248.08</course>
  <speed>0.022360679774997897</speed>
  <fix>3d</fix>
</trkpt>
<trkpt lat="40.0713749" lon="-105.229789">
  <ele>1583.0</ele>
  <time>2026-08-28T17:56:59Z</time>
  <course>0.0</course>
  <speed>0.0</speed>
  <fix>3d</fix>
</trkpt>
<trkpt lat="40.0713749" lon="-105.229789">
  <ele>1583.0</ele>
  <time>2026-08-28T17:56:59Z</time>
  <course>248.07</course>
  <speed>0.022360679774997897</speed>
  <fix>3d</fix>
</trkpt>
<trkpt lat="40.0713749" lon="-105.229789">
  <ele>1583.0</ele>
  <time>2026-08-28T17:56:59Z</time>
  <course>0.0</course>
  <speed>0.0</speed>
  <fix>3d</fix>
</trkpt>
<trkpt lat="40.0713749" lon="-105.229789">
  <ele>1583.0</ele>
  <time>2026-08-28T17:56:59Z</time>
  <course>248.07</course>
  <speed>0.022360679774997897</speed>
  <fix>3d</fix>
</trkpt>
<trkpt lat="40.0713749" lon="-105.229789">
  <ele>1583.0</ele>
  <time>2026-08-28T17:56:59Z</time>
  <course>0.0</course>
  <speed>0.0</speed>
  <fix>3d</fix>
</trkpt>
<trkpt lat="40.0713749" lon="-105.229789">
  <ele>1583.0</ele>
  <time>2026-08-28T17:56:59Z</time>
  <course>248.06</course>
  <speed>0.022360679774997897</speed>
  <fix>3d</fix>
</trkpt>
<trkpt lat="40.0713749" lon="-105.229789">
  <ele>1583.0</ele>
  <time>2026-08-28T17:56:59Z</time>
  <course>0.0</course>
  <speed>0.0</speed>
  <fix>3d</fix>
</trkpt>
<trkpt lat="40.0713749" lon="-105.229789">
  <ele>1583.0</ele>
  <time>2026-08-28T17:56:59Z</time>
  <course>248.06</course>
  <speed>0.022360679774997897</speed>
  <fix>3d</fix>
</trkpt>
<trkpt lat="40.0713749" lon="-105.229789">
  <ele>1583.0</ele>
  <time>2026-08-28T17:56:59Z</time>
  <course>0.0</course>
  <speed>0.0</speed>
  <fix>3d</fix>
</trkpt>
<trkpt lat="40.0713749" lon="-105.229789">
  <ele>1583.0</ele>
  <time>2026-08-28T17:56:59Z</time>
  <course>248.05</course>
  <speed>0.022360679774997897</speed>
  <fix>3d</fix>
</trkpt>
<trkpt lat="40.0713749" lon="-105.229789">
  <ele>1583.0</ele>
  <time>2026-08-28T17:56:59Z</time>
  <course>0.0</course>
  <speed>0.0</speed>
  <fix>3d</fix>
</trkpt>
<trkpt lat="40.0713749" lon="-105.229789">
  <ele>1583.0</ele>
  <time>2026-08-28T17:56:59Z</time>
  <course>248.05</course>
  <speed>0.022360679774997897</speed>
  <fix>3d</fix>
</trkpt>
<trkpt lat="40.0713749" lon="-105.229789">
  <ele>1583.0</ele>
  <time>2026-08-28T17:56:59Z</time>
  <course>0.0</course>
  <speed>0.0</speed>
  <fix>3d</fix>
</trkpt>
<trkpt lat="40.0713749" lon="-105.229789">
  <ele>1583.0</ele>
  <time>2026-08-28T17:56:59Z</time>
  <course>248.05</course>
  <speed>0.022360679774997897</speed>
  <fix>3d</fix>
</trkpt>
<trkpt lat="40.0713749" lon="-105.229789">
  <ele>1583.0</ele>
  <time>2026-08-28T17:56:59Z</time>
  <course>0.0</course>
  <speed>0.0</speed>
  <fix>3d</fix>
</trkpt>
<trkpt lat="40.0713749" lon="-105.229789">
  <ele>1583.0</ele>
  <time>2026-08-28T17:56:59Z</time>
  <course>248.04</course>
  <speed>0.022360679774997897</speed>
  <fix>3d</fix>
</trkpt>
<trkpt lat="40.0713749" lon="-105.229789">
  <ele>1583.0</ele>
  <time>2026-08-28T17:56:59Z</time>
  <course>0.0</course>
  <speed>0.0</speed>
  <fix>3d</fix>
</trkpt>
<trkpt lat="40.0713749" lon="-105.229789">
  <ele>1583.0</ele>
  <time>2026-08-28T17:56:59Z</time>
  <course>248.04</course>
  <speed>0.022360679774997897</speed>
  <fix>3d</fix>
</trkpt>
<trkpt lat="40.0713749" lon="-105.229789">
  <ele>1583.0</ele>
  <time>2026-08-28T17:56:59Z</time>
  <course>0.0</course>
  <speed>0.0</speed>
  <fix>3d</fix>
</trkpt>
<trkpt lat="40.0713749" lon="-105.229789">
  <ele>1583.0</ele>
  <time>2026-08-28T17:56:59Z</time>
  <course>248.03</course>
  <speed>0.022360679774997897</speed>
  <fix>3d</fix>
</trkpt>
<trkpt lat="40.0713749" lon="-105.229789">
  <ele>1583.0</ele>
  <time>2026-08-28T17:56:59Z</time>
  <course>0.0</course>
  <speed>0.0</speed>
  <fix>3d</fix>
</trkpt>
<trkpt lat="40.0713749" lon="-105.229789">
  <ele>1583.0</ele>
  <time>2026-08-28T17:56:59Z</time>
  <course>248.03</course>
  <speed>0.022360679774997897</speed>
  <fix>3d</fix>
</trkpt>
<trkpt lat="40.0713749" lon="-105.229789">
  <ele>1583.0</ele>
  <time>2026-08-28T17:56:59Z</time>
  <course>0.0</course>
  <speed>0.0</speed>
  <fix>3d</fix>
</trkpt>
<trkpt lat="40.0713749" lon="-105.229789">
  <ele>1583.0</ele>
  <time>2026-08-28T17:56:59Z</time>
  <course>248.02</course>
  <speed>0.022360679774997897</speed>
  <fix>3d</fix>
</trkpt>
<trkpt lat="40.0713749" lon="-105.229789">
  <ele>1583.0</ele>
  <time>2026-08-28T17:56:59Z</time>
  <course>0.0</course>
  <speed>0.0</speed>
  <fix>3d</fix>
</trkpt>
<trkpt lat="40.0713749" lon="-105.229789">
  <ele>1583.0</ele>
  <time>2026-08-28T17:56:59Z</time>
  <course>248.02</course>
  <speed>0.022360679774997897</speed>
  <fix>3d</fix>
</trkpt>
<trkpt lat="40.0713749" lon="-105.229789">
  <ele>1583.0</ele>
  <time>2026-08-28T17:56:59Z</time>
  <course>0.0</course>
  <speed>0.0</speed>
  <fix>3d</fix>
</trkpt>
<trkpt lat="40.0713749" lon="-105.229789">
  <ele>1583.0</ele>
  <time>2026-08-28T17:56:59Z</time>
  <course>248.01</course>
  <speed>0.022360679774997897</speed>
  <fix>3d</fix>
</trkpt>
<trkpt lat="40.0713749" lon="-105.229789">
  <ele>1583.0</ele>
  <time>2026-08-28T17:56:59Z</time>
  <course>0.0</course>
  <speed>0.0</speed>
  <fix>3d</fix>
</trkpt>
<trkpt lat="40.0713749" lon="-105.229789">
  <ele>1583.0</ele>
  <time>2026-08-28T17:56:59Z</time>
  <course>248.01</course>
  <speed>0.022360679774997897</speed>
  <fix>3d</fix>
</trkpt>
<trkpt lat="40.0713749" lon="-105.229789">
  <ele>1583.0</ele>
  <time>2026-08-28T17:56:59Z</time>
  <course>0.0</course>
  <speed>0.0</speed>
  <fix>3d</fix>
</trkpt>
<trkpt lat="40.0713749" lon="-105.229789">
  <ele>1583.0</ele>
  <time>2026-08-28T17:56:59Z</time>
  <course>248.0</course>
  <speed>0.022360679774997897</speed>
  <fix>3d</fix>
</trkpt>
<trkpt lat="40.0713749" lon="-105.229789">
  <ele>1583.0</ele>
  <time>2026-08-28T17:56:59Z</time>
  <course>0.0</course>
  <speed>0.0</speed>
  <fix>3d</fix>
</trkpt>
<trkpt lat="40.0713749" lon="-105.229789">
  <ele>1583.0</ele>
  <time>2026-08-28T17:57:00Z</time>
  <course>248.0</course>
  <speed>0.022360679774997897</speed>
  <fix>3d</fix>
</trkpt>
<trkpt lat="40.0713749" lon="-105.229789">
  <ele>1583.0</ele>
  <time>2026-08-28T17:57:00Z</time>
  <course>0.0</course>
  <speed>0.0</speed>
  <fix>3d</fix>
</trkpt>
<trkpt lat="40.0713749" lon="-105.229789">
  <ele>1583.0</ele>
  <time>2026-08-28T17:57:00Z</time>
  <course>247.99</course>
  <speed>0.022360679774997897</speed>
  <fix>3d</fix>
</trkpt>
<trkpt lat="40.0713749" lon="-105.229789">
  <ele>1583.0</ele>
  <time>2026-08-28T17:57:00Z</time>
  <course>0.0</course>
  <speed>0.0</speed>
  <fix>3d</fix>
</trkpt>
<trkpt lat="40.0713749" lon="-105.229789">
  <ele>1583.0</ele>
  <time>2026-08-28T17:57:00Z</time>
  <course>247.99</course>
  <speed>0.022360679774997897</speed>
  <fix>3d</fix>
</trkpt>
<trkpt lat="40.0713749" lon="-105.229789">
  <ele>1583.0</ele>
  <time>2026-08-28T17:57:00Z</time>
  <course>0.0</course>
  <speed>0.0</speed>
  <fix>3d</fix>
</trkpt>
<trkpt lat="40.0713749" lon="-105.229789">
  <ele>1583.0</ele>
  <time>2026-08-28T17:57:00Z</time>
  <course>247.99</course>
  <speed>0.022360679774997897</speed>
  <fix>3d</fix>
</trkpt>
<trkpt lat="40.0713749" lon="-105.229789">
  <ele>1583.0</ele>
  <time>2026-08-28T17:57:00Z</time>
  <course>0.0</course>
  <speed>0.0</speed>
  <fix>3d</fix>
</trkpt>
<trkpt lat="40.0713749" lon="-105.229789">
  <ele>1583.0</ele>
  <time>2026-08-28T17:57:00Z</time>
  <course>247.98</course>
  <speed>0.022360679774997897</speed>
  <fix>3d</fix>
</trkpt>
<trkpt lat="40.0713749" lon="-105.229789">
  <ele>1583.0</ele>
  <time>2026-08-28T17:57:00Z</time>
  <course>0.0</course>
  <speed>0.0</speed>
  <fix>3d</fix>
</trkpt>
<trkpt lat="40.0713749" lon="-105.229789">
  <ele>1583.0</ele>
  <time>2026-08-28T17:57:00Z</time>
  <course>247.98</course>
  <speed>0.022360679774997897</speed>
  <fix>3d</fix>
</trkpt>
<trkpt lat="40.0713749" lon="-105.229789">
  <ele>1583.0</ele>
  <time>2026-08-28T17:57:00Z</time>
  <course>0.0</course>
  <speed>0.0</speed>
  <fix>3d</fix>
</trkpt>
<trkpt lat="40.0713749" lon="-105.229789">
  <ele>1583.0</ele>
  <time>2026-08-28T17:57:00Z</time>
  <course>247.97</course>
  <speed>0.022360679774997897</speed>
  <fix>3d</fix>
</trkpt>
<trkpt lat="40.0713749" lon="-105.229789">
  <ele>1583.0</ele>
  <time>2026-08-28T17:57:00Z</time>
  <course>0.0</course>
  <speed>0.0</speed>
  <fix>3d</fix>
</trkpt>
<trkpt lat="40.0713749" lon="-105.229789">
  <ele>1583.0</ele>
  <time>2026-08-28T17:57:00Z</time>
  <course>247.97</course>
  <speed>0.022360679774997897</speed>
  <fix>3d</fix>
</trkpt>
<trkpt lat="40.0713749" lon="-105.229789">
  <ele>1583.0</ele>
  <time>2026-08-28T17:57:00Z</time>
  <course>0.0</course>
  <speed>0.0</speed>
  <fix>3d</fix>
</trkpt>
<trkpt lat="40.0713749" lon="-105.229789">
  <ele>1583.0</ele>
  <time>2026-08-28T17:57:00Z</time>
  <course>247.96</course>
  <speed>0.022360679774997897</speed>
  <fix>3d</fix>
</trkpt>
<trkpt lat="40.0713749" lon="-105.229789">
  <ele>1583.0</ele>
  <time>2026-08-28T17:57:00Z</time>
  <course>0.0</course>
  <speed>0.0</speed>
  <fix>3d</fix>
</trkpt>
<trkpt lat="40.0713749" lon="-105.229789">
  <ele>1583.0</ele>
  <time>2026-08-28T17:57:00Z</time>
  <course>247.96</course>
  <speed>0.022360679774997897</speed>
  <fix>3d</fix>
</trkpt>
<trkpt lat="40.0713749" lon="-105.229789">
  <ele>1583.0</ele>
  <time>2026-08-28T17:57:00Z</time>
  <course>0.0</course>
  <speed>0.0</speed>
  <fix>3d</fix>
</trkpt>
<trkpt lat="40.0713749" lon="-105.229789">
  <ele>1583.0</ele>
  <time>2026-08-28T17:57:00Z</time>
  <course>247.95</course>
  <speed>0.022360679774997897</speed>
  <fix>3d</fix>
</trkpt>
<trkpt lat="40.0713749" lon="-105.229789">
  <ele>1583.0</ele>
  <time>2026-08-28T17:57:00Z</time>
  <course>0.0</course>
  <speed>0.0</speed>
  <fix>3d</fix>
</trkpt>
<trkpt lat="40.0713749" lon="-105.229789">
  <ele>1583.0</ele>
  <time>2026-08-28T17:57:00Z</time>
  <course>247.95</course>
  <speed>0.022360679774997897</speed>
  <fix>3d</fix>
</trkpt>
<trkpt lat="40.0713749" lon="-105.229789">
  <ele>1583.0</ele>
  <time>2026-08-28T17:57:00Z</time>
  <course>0.0</course>
  <speed>0.0</speed>
  <fix>3d</fix>
</trkpt>
<trkpt lat="40.0713749" lon="-105.229789">
  <ele>1583.0</ele>
  <time>2026-08-28T17:57:00Z</time>
  <course>247.95</course>
  <speed>0.022360679774997897</speed>
  <fix>3d</fix>
</trkpt>
<trkpt lat="40.0713749" lon="-105.229789">
  <ele>1583.0</ele>
  <time>2026-08-28T17:57:00Z</time>
  <course>0.0</course>
  <speed>0.0</speed>
  <fix>3d</fix>
</trkpt>
<trkpt lat="40.0713749" lon="-105.229789">
  <ele>1583.0</ele>
  <time>2026-08-28T17:57:00Z</time>
  <course>247.94</course>
  <speed>0.022360679774997897</speed>
  <fix>3d</fix>
</trkpt>
<trkpt lat="40.0713749" lon="-105.229789">
  <ele>1583.0</ele>
  <time>2026-08-28T17:57:00Z</time>
  <course>0.0</course>
  <speed>0.0</speed>
  <fix>3d</fix>
</trkpt>
<trkpt lat="40.0713749" lon="-105.229789">
  <ele>1583.0</ele>
  <time>2026-08-28T17:57:00Z</time>
  <course>247.94</course>
  <speed>0.022360679774997897</speed>
  <fix>3d</fix>
</trkpt>
<trkpt lat="40.0713749" lon="-105.229789">
  <ele>1583.0</ele>
  <time>2026-08-28T17:57:00Z</time>
  <course>0.0</course>
  <speed>0.0</speed>
  <fix>3d</fix>
</trkpt>
<trkpt lat="40.0713749" lon="-105.229789">
  <ele>1583.0</ele>
  <time>2026-08-28T17:57:00Z</time>
  <course>247.93</course>
  <speed>0.022360679774997897</speed>
  <fix>3d</fix>
</trkpt>
<trkpt lat="40.0713749" lon="-105.229789">
  <ele>1583.0</ele>
  <time>2026-08-28T17:57:00Z</time>
  <course>0.0</course>
  <speed>0.0</speed>
  <fix>3d</fix>
</trkpt>
<trkpt lat="40.0713749" lon="-105.229789">
  <ele>1583.0</ele>
  <time>2026-08-28T17:57:00Z</time>
  <course>247.93</course>
  <speed>0.022360679774997897</speed>
  <fix>3d</fix>
</trkpt>
<trkpt lat="40.0713749" lon="-105.229789">
  <ele>1583.0</ele>
  <time>2026-08-28T17:57:00Z</time>
  <course>0.0</course>
  <speed>0.0</speed>
  <fix>3d</fix>
</trkpt>
<trkpt lat="40.0713749" lon="-105.229789">
  <ele>1583.0</ele>
  <time>2026-08-28T17:57:00Z</time>
  <course>247.92</course>
  <speed>0.022360679774997897</speed>
  <fix>3d</fix>
</trkpt>
<trkpt lat="40.0713749" lon="-105.229789">
  <ele>1583.0</ele>
  <time>2026-08-28T17:57:00Z</time>
  <course>0.0</course>
  <speed>0.0</speed>
  <fix>3d</fix>
</trkpt>
<trkpt lat="40.0713749" lon="-105.229789">
  <ele>1583.0</ele>
  <time>2026-08-28T17:57:00Z</time>
  <course>247.92</course>
  <speed>0.022360679774997897</speed>
  <fix>3d</fix>
</trkpt>
<trkpt lat="40.0713749" lon="-105.229789">
  <ele>1583.0</ele>
  <time>2026-08-28T17:57:00Z</time>
  <course>0.0</course>
  <speed>0.0</speed>
  <fix>3d</fix>
</trkpt>
<trkpt lat="40.0713749" lon="-105.229789">
  <ele>1583.0</ele>
  <time>2026-08-28T17:57:00Z</time>
  <course>247.92</course>
  <speed>0.022360679774997897</speed>
  <fix>3d</fix>
</trkpt>
<trkpt lat="40.0713749" lon="-105.229789">
  <ele>1583.0</ele>
  <time>2026-08-28T17:57:00Z</time>
  <course>0.0</course>
  <speed>0.0</speed>
  <fix>3d</fix>
</trkpt>
<trkpt lat="40.0713749" lon="-105.229789">
  <ele>1583.0</ele>
  <time>2026-08-28T17:57:00Z</time>
  <course>247.91</course>
  <speed>0.022360679774997897</speed>
  <fix>3d</fix>
</trkpt>
<trkpt lat="40.0713749" lon="-105.229789">
  <ele>1583.0</ele>
  <time>2026-08-28T17:57:00Z</time>
  <course>0.0</course>
  <speed>0.0</speed>
  <fix>3d</fix>
</trkpt>
<trkpt lat="40.0713749" lon="-105.229789">
  <ele>1583.0</ele>
  <time>2026-08-28T17:57:00Z</time>
  <course>247.91</course>
  <speed>0.022360679774997897</speed>
  <fix>3d</fix>
</trkpt>
<trkpt lat="40.0713749" lon="-105.229789">
  <ele>1583.0</ele>
  <time>2026-08-28T17:57:00Z</time>
  <course>0.0</course>
  <speed>0.0</speed>
  <fix>3d</fix>
</trkpt>
<trkpt lat="40.0713749" lon="-105.229789">
  <ele>1583.0</ele>
  <time>2026-08-28T17:57:00Z</time>
  <course>247.9</course>
  <speed>0.022360679774997897</speed>
  <fix>3d</fix>
</trkpt>
<trkpt lat="40.0713749" lon="-105.229789">
  <ele>1583.0</ele>
  <time>2026-08-28T17:57:00Z</time>
  <course>0.0</course>
  <speed>0.0</speed>
  <fix>3d</fix>
</trkpt>
<trkpt lat="40.0713749" lon="-105.229789">
  <ele>1583.0</ele>
  <time>2026-08-28T17:57:00Z</time>
  <course>247.9</course>
  <speed>0.022360679774997897</speed>
  <fix>3d</fix>
</trkpt>
<trkpt lat="40.0713749" lon="-105.229789">
  <ele>1583.0</ele>
  <time>2026-08-28T17:57:00Z</time>
  <course>0.0</course>
  <speed>0.0</speed>
  <fix>3d</fix>
</trkpt>
<trkpt lat="40.0713749" lon="-105.229789">
  <ele>1583.0</ele>
  <time>2026-08-28T17:57:00Z</time>
  <course>247.89</course>
  <speed>0.022360679774997897</speed>
  <fix>3d</fix>
</trkpt>
<trkpt lat="40.0713749" lon="-105.229789">
  <ele>1583.0</ele>
  <time>2026-08-28T17:57:00Z</time>
  <course>0.0</course>
  <speed>0.0</speed>
  <fix>3d</fix>
</trkpt>
<trkpt lat="40.0713749" lon="-105.229789">
  <ele>1583.0</ele>
  <time>2026-08-28T17:57:00Z</time>
  <course>247.89</course>
  <speed>0.022360679774997897</speed>
  <fix>3d</fix>
</trkpt>
<trkpt lat="40.0713749" lon="-105.229789">
  <ele>1583.0</ele>
  <time>2026-08-28T17:57:00Z</time>
  <course>0.0</course>
  <speed>0.0</speed>
  <fix>3d</fix>
</trkpt>
<trkpt lat="40.0713749" lon="-105.229789">
  <ele>1583.0</ele>
  <time>2026-08-28T17:57:00Z</time>
  <course>247.89</course>
  <speed>0.022360679774997897</speed>
  <fix>3d</fix>
</trkpt>
<trkpt lat="40.0713749" lon="-105.229789">
  <ele>1583.0</ele>
  <time>2026-08-28T17:57:00Z</time>
  <course>0.0</course>
  <speed>0.0</speed>
  <fix>3d</fix>
</trkpt>
<trkpt lat="40.0713749" lon="-105.229789">
  <ele>1583.0</ele>
  <time>2026-08-28T17:57:00Z</time>
  <course>247.88</course>
  <speed>0.0316227766016838</speed>
  <fix>3d</fix>
</trkpt>
<trkpt lat="40.0713749" lon="-105.229789">
  <ele>1583.0</ele>
  <time>2026-08-28T17:57:00Z</time>
  <course>0.0</course>
  <speed>0.0</speed>
  <fix>3d</fix>
</trkpt>
<trkpt lat="40.0713749" lon="-105.229789">
  <ele>1583.0</ele>
  <time>2026-08-28T17:57:00Z</time>
  <course>247.88</course>
  <speed>0.0316227766016838</speed>
  <fix>3d</fix>
</trkpt>
<trkpt lat="40.0713749" lon="-105.229789">
  <ele>1583.0</ele>
  <time>2026-08-28T17:57:00Z</time>
  <course>0.0</course>
  <speed>0.0</speed>
  <fix>3d</fix>
</trkpt>
<trkpt lat="40.0713749" lon="-105.229789">
  <ele>1583.0</ele>
  <time>2026-08-28T17:57:00Z</time>
  <course>247.87</course>
  <speed>0.0316227766016838</speed>
  <fix>3d</fix>
</trkpt>
<trkpt lat="40.0713749" lon="-105.229789">
  <ele>1583.0</ele>
  <time>2026-08-28T17:57:00Z</time>
  <course>0.0</course>
  <speed>0.0</speed>
  <fix>3d</fix>
</trkpt>
<trkpt lat="40.0713749" lon="-105.229789">
  <ele>1583.0</ele>
  <time>2026-08-28T17:57:00Z</time>
  <course>247.87</course>
  <speed>0.0316227766016838</speed>
  <fix>3d</fix>
</trkpt>
<trkpt lat="40.0713749" lon="-105.229789">
  <ele>1583.0</ele>
  <time>2026-08-28T17:57:00Z</time>
  <course>0.0</course>
  <speed>0.0</speed>
  <fix>3d</fix>
</trkpt>
<trkpt lat="40.0713749" lon="-105.229789">
  <ele>1583.0</ele>
  <time>2026-08-28T17:57:00Z</time>
  <course>247.87</course>
  <speed>0.0316227766016838</speed>
  <fix>3d</fix>
</trkpt>
<trkpt lat="40.0713749" lon="-105.229789">
  <ele>1583.0</ele>
  <time>2026-08-28T17:57:00Z</time>
  <course>0.0</course>
  <speed>0.0</speed>
  <fix>3d</fix>
</trkpt>
<trkpt lat="40.0713749" lon="-105.229789">
  <ele>1583.0</ele>
  <time>2026-08-28T17:57:00Z</time>
  <course>247.86</course>
  <speed>0.0316227766016838</speed>
  <fix>3d</fix>
</trkpt>
<trkpt lat="40.0713749" lon="-105.229789">
  <ele>1583.0</ele>
  <time>2026-08-28T17:57:00Z</time>
  <course>0.0</course>
  <speed>0.0</speed>
  <fix>3d</fix>
</trkpt>
<trkpt lat="40.0713749" lon="-105.229789">
  <ele>1583.0</ele>
  <time>2026-08-28T17:57:00Z</time>
  <course>247.86</course>
  <speed>0.0316227766016838</speed>
  <fix>3d</fix>
</trkpt>
<trkpt lat="40.0713749" lon="-105.229789">
  <ele>1583.0</ele>
  <time>2026-08-28T17:57:00Z</time>
  <course>0.0</course>
  <speed>0.0</speed>
  <fix>3d</fix>
</trkpt>
<trkpt lat="40.0713749" lon="-105.229789">
  <ele>1583.0</ele>
  <time>2026-08-28T17:57:00Z</time>
  <course>247.85</course>
  <speed>0.0316227766016838</speed>
  <fix>3d</fix>
</trkpt>
<trkpt lat="40.0713749" lon="-105.229789">
  <ele>1583.0</ele>
  <time>2026-08-28T17:57:00Z</time>
  <course>0.0</course>
  <speed>0.0</speed>
  <fix>3d</fix>
</trkpt>
<trkpt lat="40.0713749" lon="-105.229789">
  <ele>1583.0</ele>
  <time>2026-08-28T17:57:00Z</time>
  <course>247.85</course>
  <speed>0.0316227766016838</speed>
  <fix>3d</fix>
</trkpt>
<trkpt lat="40.0713749" lon="-105.229789">
  <ele>1583.0</ele>
  <time>2026-08-28T17:57:00Z</time>
  <course>0.0</course>
  <speed>0.0</speed>
  <fix>3d</fix>
</trkpt>
<trkpt lat="40.0713749" lon="-105.229789">
  <ele>1583.0</ele>
  <time>2026-08-28T17:57:00Z</time>
  <course>247.85</course>
  <speed>0.0316227766016838</speed>
  <fix>3d</fix>
</trkpt>
<trkpt lat="40.0713749" lon="-105.229789">
  <ele>1583.0</ele>
  <time>2026-08-28T17:57:00Z</time>
  <course>0.0</course>
  <speed>0.0</speed>
  <fix>3d</fix>
</trkpt>
<trkpt lat="40.0713749" lon="-105.229789">
  <ele>1583.0</ele>
  <time>2026-08-28T17:57:00Z</time>
  <course>247.84</course>
  <speed>0.0316227766016838</speed>
  <fix>3d</fix>
</trkpt>
<trkpt lat="40.0713749" lon="-105.229789">
  <ele>1583.0</ele>
  <time>2026-08-28T17:57:00Z</time>
  <course>0.0</course>
  <speed>0.0</speed>
  <fix>3d</fix>
</trkpt>
<trkpt lat="40.0713749" lon="-105.229789">
  <ele>1583.0</ele>
  <time>2026-08-28T17:57:00Z</time>
  <course>247.84</course>
  <speed>0.0316227766016838</speed>
  <fix>3d</fix>
</trkpt>
<trkpt lat="40.0713749" lon="-105.229789">
  <ele>1583.0</ele>
  <time>2026-08-28T17:57:00Z</time>
  <course>0.0</course>
  <speed>0.0</speed>
  <fix>3d</fix>
</trkpt>
<trkpt lat="40.0713749" lon="-105.229789">
  <ele>1583.0</ele>
  <time>2026-08-28T17:57:00Z</time>
  <course>247.83</course>
  <speed>0.0316227766016838</speed>
  <fix>3d</fix>
</trkpt>
<trkpt lat="40.0713749" lon="-105.229789">
  <ele>1583.0</ele>
  <time>2026-08-28T17:57:00Z</time>
  <course>0.0</course>
  <speed>0.0</speed>
  <fix>3d</fix>
</trkpt>
<trkpt lat="40.0713749" lon="-105.229789">
  <ele>1583.0</ele>
  <time>2026-08-28T17:57:00Z</time>
  <course>247.83</course>
  <speed>0.0316227766016838</speed>
  <fix>3d</fix>
</trkpt>
<trkpt lat="40.0713749" lon="-105.229789">
  <ele>1583.0</ele>
  <time>2026-08-28T17:57:00Z</time>
  <course>0.0</course>
  <speed>0.0</speed>
  <fix>3d</fix>
</trkpt>
<trkpt lat="40.0713749" lon="-105.229789">
  <ele>1583.0</ele>
  <time>2026-08-28T17:57:00Z</time>
  <course>247.83</course>
  <speed>0.0316227766016838</speed>
  <fix>3d</fix>
</trkpt>
<trkpt lat="40.0713749" lon="-105.229789">
  <ele>1583.0</ele>
  <time>2026-08-28T17:57:00Z</time>
  <course>0.0</course>
  <speed>0.0</speed>
  <fix>3d</fix>
</trkpt>
<trkpt lat="40.0713749" lon="-105.229789">
  <ele>1583.0</ele>
  <time>2026-08-28T17:57:00Z</time>
  <course>247.82</course>
  <speed>0.0316227766016838</speed>
  <fix>3d</fix>
</trkpt>
<trkpt lat="40.0713749" lon="-105.229789">
  <ele>1583.0</ele>
  <time>2026-08-28T17:57:00Z</time>
  <course>0.0</course>
  <speed>0.0</speed>
  <fix>3d</fix>
</trkpt>
<trkpt lat="40.0713749" lon="-105.229789">
  <ele>1583.0</ele>
  <time>2026-08-28T17:57:00Z</time>
  <course>247.82</course>
  <speed>0.0316227766016838</speed>
  <fix>3d</fix>
</trkpt>
<trkpt lat="40.0713749" lon="-105.229789">
  <ele>1583.0</ele>
  <time>2026-08-28T17:57:00Z</time>
  <course>0.0</course>
  <speed>0.0</speed>
  <fix>3d</fix>
</trkpt>
<trkpt lat="40.0713749" lon="-105.229789">
  <ele>1583.0</ele>
  <time>2026-08-28T17:57:00Z</time>
  <course>247.82</course>
  <speed>0.0316227766016838</speed>
  <fix>3d</fix>
</trkpt>
<trkpt lat="40.0713749" lon="-105.229789">
  <ele>1583.0</ele>
  <time>2026-08-28T17:57:00Z</time>
  <course>0.0</course>
  <speed>0.0</speed>
  <fix>3d</fix>
</trkpt>
<trkpt lat="40.0713749" lon="-105.229789">
  <ele>1583.0</ele>
  <time>2026-08-28T17:57:00Z</time>
  <course>247.81</course>
  <speed>0.0316227766016838</speed>
  <fix>3d</fix>
</trkpt>
<trkpt lat="40.0713749" lon="-105.229789">
  <ele>1583.0</ele>
  <time>2026-08-28T17:57:00Z</time>
  <course>0.0</course>
  <speed>0.0</speed>
  <fix>3d</fix>
</trkpt>
<trkpt lat="40.0713749" lon="-105.229789">
  <ele>1583.0</ele>
  <time>2026-08-28T17:57:00Z</time>
  <course>247.81</course>
  <speed>0.0316227766016838</speed>
  <fix>3d</fix>
</trkpt>
<trkpt lat="40.0713749" lon="-105.229789">
  <ele>1583.0</ele>
  <time>2026-08-28T17:57:00Z</time>
  <course>0.0</course>
  <speed>0.0</speed>
  <fix>3d</fix>
</trkpt>
<trkpt lat="40.0713749" lon="-105.229789">
  <ele>1583.0</ele>
  <time>2026-08-28T17:57:00Z</time>
  <course>247.8</course>
  <speed>0.0316227766016838</speed>
  <fix>3d</fix>
</trkpt>
<trkpt lat="40.0713749" lon="-105.229789">
  <ele>1583.0</ele>
  <time>2026-08-28T17:57:00Z</time>
  <course>0.0</course>
  <speed>0.0</speed>
  <fix>3d</fix>
</trkpt>
<trkpt lat="40.0713749" lon="-105.229789">
  <ele>1583.0</ele>
  <time>2026-08-28T17:57:00Z</time>
  <course>247.8</course>
  <speed>0.0316227766016838</speed>
  <fix>3d</fix>
</trkpt>
<trkpt lat="40.0713749" lon="-105.229789">
  <ele>1583.0</ele>
  <time>2026-08-28T17:57:00Z</time>
  <course>0.0</course>
  <speed>0.0</speed>
  <fix>3d</fix>
</trkpt>
<trkpt lat="40.0713749" lon="-105.229789">
  <ele>1583.0</ele>
  <time>2026-08-28T17:57:00Z</time>
  <course>247.8</course>
  <speed>0.0316227766016838</speed>
  <fix>3d</fix>
</trkpt>
<trkpt lat="40.0713749" lon="-105.229789">
  <ele>1583.0</ele>
  <time>2026-08-28T17:57:00Z</time>
  <course>0.0</course>
  <speed>0.0</speed>
  <fix>3d</fix>
</trkpt>
<trkpt lat="40.0713749" lon="-105.229789">
  <ele>1583.0</ele>
  <time>2026-08-28T17:57:00Z</time>
  <course>247.79</course>
  <speed>0.0316227766016838</speed>
  <fix>3d</fix>
</trkpt>
<trkpt lat="40.0713749" lon="-105.229789">
  <ele>1583.0</ele>
  <time>2026-08-28T17:57:00Z</time>
  <course>0.0</course>
  <speed>0.0</speed>
  <fix>3d</fix>
</trkpt>
<trkpt lat="40.0713749" lon="-105.229789">
  <ele>1583.0</ele>
  <time>2026-08-28T17:57:00Z</time>
  <course>247.79</course>
  <speed>0.0316227766016838</speed>
  <fix>3d</fix>
</trkpt>
<trkpt lat="40.0713749" lon="-105.229789">
  <ele>1583.0</ele>
  <time>2026-08-28T17:57:00Z</time>
  <course>0.0</course>
  <speed>0.0</speed>
  <fix>3d</fix>
</trkpt>
<trkpt lat="40.0713749" lon="-105.229789">
  <ele>1583.0</ele>
  <time>2026-08-28T17:57:00Z</time>
  <course>247.79</course>
  <speed>0.0316227766016838</speed>
  <fix>3d</fix>
</trkpt>
<trkpt lat="40.0713749" lon="-105.229789">
  <ele>1583.0</ele>
  <time>2026-08-28T17:57:00Z</time>
  <course>0.0</course>
  <speed>0.0</speed>
  <fix>3d</fix>
</trkpt>
<trkpt lat="40.0713749" lon="-105.229789">
  <ele>1583.0</ele>
  <time>2026-08-28T17:57:00Z</time>
  <course>247.78</course>
  <speed>0.0316227766016838</speed>
  <fix>3d</fix>
</trkpt>
<trkpt lat="40.0713749" lon="-105.229789">
  <ele>1583.0</ele>
  <time>2026-08-28T17:57:00Z</time>
  <course>0.0</course>
  <speed>0.0</speed>
  <fix>3d</fix>
</trkpt>
<trkpt lat="40.0713749" lon="-105.229789">
  <ele>1583.0</ele>
  <time>2026-08-28T17:57:00Z</time>
  <course>247.78</course>
  <speed>0.0316227766016838</speed>
  <fix>3d</fix>
</trkpt>
<trkpt lat="40.0713749" lon="-105.229789">
  <ele>1583.0</ele>
  <time>2026-08-28T17:57:00Z</time>
  <course>0.0</course>
  <speed>0.0</speed>
  <fix>3d</fix>
</trkpt>
<trkpt lat="40.0713749" lon="-105.229789">
  <ele>1583.0</ele>
  <time>2026-08-28T17:57:00Z</time>
  <course>247.78</course>
  <speed>0.0316227766016838</speed>
  <fix>3d</fix>
</trkpt>
<trkpt lat="40.0713749" lon="-105.229789">
  <ele>1583.0</ele>
  <time>2026-08-28T17:57:00Z</time>
  <course>0.0</course>
  <speed>0.0</speed>
  <fix>3d</fix>
</trkpt>
<trkpt lat="40.0713749" lon="-105.229789">
  <ele>1583.0</ele>
  <time>2026-08-28T17:57:00Z</time>
  <course>247.77</course>
  <speed>0.0316227766016838</speed>
  <fix>3d</fix>
</trkpt>
<trkpt lat="40.0713749" lon="-105.229789">
  <ele>1583.0</ele>
  <time>2026-08-28T17:57:00Z</time>
  <course>0.0</course>
  <speed>0.0</speed>
  <fix>3d</fix>
</trkpt>
<trkpt lat="40.0713749" lon="-105.229789">
  <ele>1583.0</ele>
  <time>2026-08-28T17:57:00Z</time>
  <course>247.77</course>
  <speed>0.0316227766016838</speed>
  <fix>3d</fix>
</trkpt>
<trkpt lat="40.0713749" lon="-105.229789">
  <ele>1583.0</ele>
  <time>2026-08-28T17:57:00Z</time>
  <course>0.0</course>
  <speed>0.0</speed>
  <fix>3d</fix>
</trkpt>
<trkpt lat="40.0713749" lon="-105.229789">
  <ele>1583.0</ele>
  <time>2026-08-28T17:57:00Z</time>
  <course>247.76</course>
  <speed>0.0316227766016838</speed>
  <fix>3d</fix>
</trkpt>
<trkpt lat="40.0713749" lon="-105.229789">
  <ele>1583.0</ele>
  <time>2026-08-28T17:57:00Z</time>
  <course>0.0</course>
  <speed>0.0</speed>
  <fix>3d</fix>
</trkpt>
<trkpt lat="40.0713749" lon="-105.229789">
  <ele>1583.0</ele>
  <time>2026-08-28T17:57:00Z</time>
  <course>247.76</course>
  <speed>0.0316227766016838</speed>
  <fix>3d</fix>
</trkpt>
<trkpt lat="40.0713749" lon="-105.229789">
  <ele>1583.0</ele>
  <time>2026-08-28T17:57:00Z</time>
  <course>0.0</course>
  <speed>0.0</speed>
  <fix>3d</fix>
</trkpt>
<trkpt lat="40.0713749" lon="-105.229789">
  <ele>1583.0</ele>
  <time>2026-08-28T17:57:00Z</time>
  <course>247.76</course>
  <speed>0.0316227766016838</speed>
  <fix>3d</fix>
</trkpt>
<trkpt lat="40.0713749" lon="-105.229789">
  <ele>1583.0</ele>
  <time>2026-08-28T17:57:00Z</time>
  <course>0.0</course>
  <speed>0.0</speed>
  <fix>3d</fix>
</trkpt>
<trkpt lat="40.0713749" lon="-105.229789">
  <ele>1583.0</ele>
  <time>2026-08-28T17:57:00Z</time>
  <course>247.75</course>
  <speed>0.0316227766016838</speed>
  <fix>3d</fix>
</trkpt>
<trkpt lat="40.0713749" lon="-105.229789">
  <ele>1583.0</ele>
  <time>2026-08-28T17:57:00Z</time>
  <course>0.0</course>
  <speed>0.0</speed>
  <fix>3d</fix>
</trkpt>
<trkpt lat="40.0713749" lon="-105.229789">
  <ele>1583.0</ele>
  <time>2026-08-28T17:57:00Z</time>
  <course>247.75</course>
  <speed>0.0316227766016838</speed>
  <fix>3d</fix>
</trkpt>
<trkpt lat="40.0713749" lon="-105.229789">
  <ele>1583.0</ele>
  <time>2026-08-28T17:57:00Z</time>
  <course>0.0</course>
  <speed>0.0</speed>
  <fix>3d</fix>
</trkpt>
<trkpt lat="40.0713749" lon="-105.229789">
  <ele>1583.0</ele>
  <time>2026-08-28T17:57:00Z</time>
  <course>247.75</course>
  <speed>0.0316227766016838</speed>
  <fix>3d</fix>
</trkpt>
<trkpt lat="40.0713749" lon="-105.229789">
  <ele>1583.0</ele>
  <time>2026-08-28T17:57:00Z</time>
  <course>0.0</course>
  <speed>0.0</speed>
  <fix>3d</fix>
</trkpt>
<trkpt lat="40.0713749" lon="-105.229789">
  <ele>1583.0</ele>
  <time>2026-08-28T17:57:00Z</time>
  <course>247.74</course>
  <speed>0.0316227766016838</speed>
  <fix>3d</fix>
</trkpt>
<trkpt lat="40.0713749" lon="-105.229789">
  <ele>1583.0</ele>
  <time>2026-08-28T17:57:00Z</time>
  <course>0.0</course>
  <speed>0.0</speed>
  <fix>3d</fix>
</trkpt>
<trkpt lat="40.0713749" lon="-105.229789">
  <ele>1583.0</ele>
  <time>2026-08-28T17:57:00Z</time>
  <course>247.74</course>
  <speed>0.0316227766016838</speed>
  <fix>3d</fix>
</trkpt>
<trkpt lat="40.0713749" lon="-105.229789">
  <ele>1583.0</ele>
  <time>2026-08-28T17:57:00Z</time>
  <course>0.0</course>
  <speed>0.0</speed>
  <fix>3d</fix>
</trkpt>
<trkpt lat="40.0713749" lon="-105.229789">
  <ele>1583.0</ele>
  <time>2026-08-28T17:57:00Z</time>
  <course>247.74</course>
  <speed>0.0316227766016838</speed>
  <fix>3d</fix>
</trkpt>
<trkpt lat="40.0713749" lon="-105.229789">
  <ele>1583.0</ele>
  <time>2026-08-28T17:57:00Z</time>
  <course>0.0</course>
  <speed>0.0</speed>
  <fix>3d</fix>
</trkpt>
<trkpt lat="40.0713749" lon="-105.229789">
  <ele>1583.0</ele>
  <time>2026-08-28T17:57:00Z</time>
  <course>247.73</course>
  <speed>0.0316227766016838</speed>
  <fix>3d</fix>
</trkpt>
<trkpt lat="40.0713749" lon="-105.229789">
  <ele>1583.0</ele>
  <time>2026-08-28T17:57:00Z</time>
  <course>0.0</course>
  <speed>0.0</speed>
  <fix>3d</fix>
</trkpt>
<trkpt lat="40.0713749" lon="-105.229789">
  <ele>1583.0</ele>
  <time>2026-08-28T17:57:00Z</time>
  <course>247.73</course>
  <speed>0.0316227766016838</speed>
  <fix>3d</fix>
</trkpt>
<trkpt lat="40.0713749" lon="-105.229789">
  <ele>1583.0</ele>
  <time>2026-08-28T17:57:00Z</time>
  <course>0.0</course>
  <speed>0.0</speed>
  <fix>3d</fix>
</trkpt>
<trkpt lat="40.0713749" lon="-105.229789">
  <ele>1583.0</ele>
  <time>2026-08-28T17:57:00Z</time>
  <course>247.73</course>
  <speed>0.0316227766016838</speed>
  <fix>3d</fix>
</trkpt>
<trkpt lat="40.0713749" lon="-105.229789">
  <ele>1583.0</ele>
  <time>2026-08-28T17:57:00Z</time>
  <course>0.0</course>
  <speed>0.0</speed>
  <fix>3d</fix>
</trkpt>
<trkpt lat="40.0713749" lon="-105.229789">
  <ele>1583.0</ele>
  <time>2026-08-28T17:57:00Z</time>
  <course>247.72</course>
  <speed>0.0316227766016838</speed>
  <fix>3d</fix>
</trkpt>
<trkpt lat="40.0713749" lon="-105.229789">
  <ele>1583.0</ele>
  <time>2026-08-28T17:57:00Z</time>
  <course>0.0</course>
  <speed>0.0</speed>
  <fix>3d</fix>
</trkpt>
<trkpt lat="40.0713749" lon="-105.229789">
  <ele>1583.0</ele>
  <time>2026-08-28T17:57:00Z</time>
  <course>247.72</course>
  <speed>0.0316227766016838</speed>
  <fix>3d</fix>
</trkpt>
<trkpt lat="40.0713749" lon="-105.229789">
  <ele>1583.0</ele>
  <time>2026-08-28T17:57:00Z</time>
  <course>0.0</course>
  <speed>0.0</speed>
  <fix>3d</fix>
</trkpt>
<trkpt lat="40.0713749" lon="-105.229789">
  <ele>1583.0</ele>
  <time>2026-08-28T17:57:00Z</time>
  <course>247.72</course>
  <speed>0.0316227766016838</speed>
  <fix>3d</fix>
</trkpt>
<trkpt lat="40.0713749" lon="-105.229789">
  <ele>1583.0</ele>
  <time>2026-08-28T17:57:00Z</time>
  <course>0.0</course>
  <speed>0.0</speed>
  <fix>3d</fix>
</trkpt>
<trkpt lat="40.0713749" lon="-105.229789">
  <ele>1583.0</ele>
  <time>2026-08-28T17:57:00Z</time>
  <course>247.71</course>
  <speed>0.0316227766016838</speed>
  <fix>3d</fix>
</trkpt>
<trkpt lat="40.0713749" lon="-105.229789">
  <ele>1583.0</ele>
  <time>2026-08-28T17:57:00Z</time>
  <course>0.0</course>
  <speed>0.0</speed>
  <fix>3d</fix>
</trkpt>
<trkpt lat="40.0713749" lon="-105.229789">
  <ele>1583.0</ele>
  <time>2026-08-28T17:57:00Z</time>
  <course>247.71</course>
  <speed>0.0316227766016838</speed>
  <fix>3d</fix>
</trkpt>
<trkpt lat="40.0713749" lon="-105.229789">
  <ele>1583.0</ele>
  <time>2026-08-28T17:57:00Z</time>
  <course>0.0</course>
  <speed>0.0</speed>
  <fix>3d</fix>
</trkpt>
<trkpt lat="40.0713749" lon="-105.229789">
  <ele>1583.0</ele>
  <time>2026-08-28T17:57:00Z</time>
  <course>247.71</course>
  <speed>0.0316227766016838</speed>
  <fix>3d</fix>
</trkpt>
<trkpt lat="40.0713749" lon="-105.229789">
  <ele>1583.0</ele>
  <time>2026-08-28T17:57:00Z</time>
  <course>0.0</course>
  <speed>0.0</speed>
  <fix>3d</fix>
</trkpt>
<trkpt lat="40.0713749" lon="-105.229789">
  <ele>1583.0</ele>
  <time>2026-08-28T17:57:00Z</time>
  <course>247.7</course>
  <speed>0.0316227766016838</speed>
  <fix>3d</fix>
</trkpt>
<trkpt lat="40.0713749" lon="-105.229789">
  <ele>1583.0</ele>
  <time>2026-08-28T17:57:00Z</time>
  <course>0.0</course>
  <speed>0.0</speed>
  <fix>3d</fix>
</trkpt>
<trkpt lat="40.0713749" lon="-105.229789">
  <ele>1583.0</ele>
  <time>2026-08-28T17:57:00Z</time>
  <course>247.7</course>
  <speed>0.0316227766016838</speed>
  <fix>3d</fix>
</trkpt>
<trkpt lat="40.0713749" lon="-105.229789">
  <ele>1583.0</ele>
  <time>2026-08-28T17:57:00Z</time>
  <course>0.0</course>
  <speed>0.0</speed>
  <fix>3d</fix>
</trkpt>
<trkpt lat="40.0713749" lon="-105.229789">
  <ele>1583.0</ele>
  <time>2026-08-28T17:57:00Z</time>
  <course>247.7</course>
  <speed>0.0316227766016838</speed>
  <fix>3d</fix>
</trkpt>
<trkpt lat="40.0713749" lon="-105.229789">
  <ele>1583.0</ele>
  <time>2026-08-28T17:57:00Z</time>
  <course>0.0</course>
  <speed>0.0</speed>
  <fix>3d</fix>
</trkpt>
<trkpt lat="40.0713749" lon="-105.229789">
  <ele>1583.0</ele>
  <time>2026-08-28T17:57:00Z</time>
  <course>247.69</course>
  <speed>0.0316227766016838</speed>
  <fix>3d</fix>
</trkpt>
<trkpt lat="40.0713749" lon="-105.229789">
  <ele>1583.0</ele>
  <time>2026-08-28T17:57:00Z</time>
  <course>0.0</course>
  <speed>0.0</speed>
  <fix>3d</fix>
</trkpt>
<trkpt lat="40.0713749" lon="-105.229789">
  <ele>1583.0</ele>
  <time>2026-08-28T17:57:00Z</time>
  <course>247.69</course>
  <speed>0.0316227766016838</speed>
  <fix>3d</fix>
</trkpt>
<trkpt lat="40.0713749" lon="-105.229789">
  <ele>1583.0</ele>
  <time>2026-08-28T17:57:00Z</time>
  <course>0.0</course>
  <speed>0.0</speed>
  <fix>3d</fix>
</trkpt>
<trkpt lat="40.0713749" lon="-105.229789">
  <ele>1583.0</ele>
  <time>2026-08-28T17:57:00Z</time>
  <course>247.69</course>
  <speed>0.0316227766016838</speed>
  <fix>3d</fix>
</trkpt>
<trkpt lat="40.0713749" lon="-105.229789">
  <ele>1583.0</ele>
  <time>2026-08-28T17:57:00Z</time>
  <course>0.0</course>
  <speed>0.0</speed>
  <fix>3d</fix>
</trkpt>
<trkpt lat="40.0713749" lon="-105.229789">
  <ele>1583.0</ele>
  <time>2026-08-28T17:57:00Z</time>
  <course>247.68</course>
  <speed>0.0316227766016838</speed>
  <fix>3d</fix>
</trkpt>
<trkpt lat="40.0713749" lon="-105.229789">
  <ele>1583.0</ele>
  <time>2026-08-28T17:57:00Z</time>
  <course>0.0</course>
  <speed>0.0</speed>
  <fix>3d</fix>
</trkpt>
<trkpt lat="40.0713749" lon="-105.229789">
  <ele>1583.0</ele>
  <time>2026-08-28T17:57:00Z</time>
  <course>247.68</course>
  <speed>0.0316227766016838</speed>
  <fix>3d</fix>
</trkpt>
<trkpt lat="40.0713749" lon="-105.229789">
  <ele>1583.0</ele>
  <time>2026-08-28T17:57:00Z</time>
  <course>0.0</course>
  <speed>0.0</speed>
  <fix>3d</fix>
</trkpt>
<trkpt lat="40.0713749" lon="-105.229789">
  <ele>1583.0</ele>
  <time>2026-08-28T17:57:00Z</time>
  <course>247.68</course>
  <speed>0.0316227766016838</speed>
  <fix>3d</fix>
</trkpt>
<trkpt lat="40.0713749" lon="-105.229789">
  <ele>1583.0</ele>
  <time>2026-08-28T17:57:00Z</time>
  <course>0.0</course>
  <speed>0.0</speed>
  <fix>3d</fix>
</trkpt>
<trkpt lat="40.0713749" lon="-105.229789">
  <ele>1583.0</ele>
  <time>2026-08-28T17:57:00Z</time>
  <course>247.67</course>
  <speed>0.0316227766016838</speed>
  <fix>3d</fix>
</trkpt>
<trkpt lat="40.0713749" lon="-105.229789">
  <ele>1583.0</ele>
  <time>2026-08-28T17:57:00Z</time>
  <course>0.0</course>
  <speed>0.0</speed>
  <fix>3d</fix>
</trkpt>
<trkpt lat="40.0713749" lon="-105.229789">
  <ele>1583.0</ele>
  <time>2026-08-28T17:57:00Z</time>
  <course>247.67</course>
  <speed>0.0316227766016838</speed>
  <fix>3d</fix>
</trkpt>
<trkpt lat="40.0713749" lon="-105.229789">
  <ele>1583.0</ele>
  <time>2026-08-28T17:57:00Z</time>
  <course>0.0</course>
  <speed>0.0</speed>
  <fix>3d</fix>
</trkpt>
<trkpt lat="40.0713749" lon="-105.229789">
  <ele>1583.0</ele>
  <time>2026-08-28T17:57:00Z</time>
  <course>247.67</course>
  <speed>0.0316227766016838</speed>
  <fix>3d</fix>
</trkpt>
<trkpt lat="40.0713749" lon="-105.229789">
  <ele>1583.0</ele>
  <time>2026-08-28T17:57:00Z</time>
  <course>0.0</course>
  <speed>0.0</speed>
  <fix>3d</fix>
</trkpt>
<trkpt lat="40.0713749" lon="-105.229789">
  <ele>1583.0</ele>
  <time>2026-08-28T17:57:00Z</time>
  <course>247.66</course>
  <speed>0.0316227766016838</speed>
  <fix>3d</fix>
</trkpt>
<trkpt lat="40.0713749" lon="-105.229789">
  <ele>1583.0</ele>
  <time>2026-08-28T17:57:00Z</time>
  <course>0.0</course>
  <speed>0.0</speed>
  <fix>3d</fix>
</trkpt>
<trkpt lat="40.0713749" lon="-105.229789">
  <ele>1583.0</ele>
  <time>2026-08-28T17:57:00Z</time>
  <course>247.66</course>
  <speed>0.0316227766016838</speed>
  <fix>3d</fix>
</trkpt>
<trkpt lat="40.0713749" lon="-105.229789">
  <ele>1583.0</ele>
  <time>2026-08-28T17:57:00Z</time>
  <course>0.0</course>
  <speed>0.0</speed>
  <fix>3d</fix>
</trkpt>
<trkpt lat="40.0713749" lon="-105.229789">
  <ele>1583.0</ele>
  <time>2026-08-28T17:57:00Z</time>
  <course>247.66</course>
  <speed>0.0316227766016838</speed>
  <fix>3d</fix>
</trkpt>
<trkpt lat="40.0713749" lon="-105.229789">
  <ele>1583.0</ele>
  <time>2026-08-28T17:57:00Z</time>
  <course>0.0</course>
  <speed>0.0</speed>
  <fix>3d</fix>
</trkpt>
<trkpt lat="40.0713749" lon="-105.229789">
  <ele>1583.0</ele>
  <time>2026-08-28T17:57:00Z</time>
  <course>247.65</course>
  <speed>0.0316227766016838</speed>
  <fix>3d</fix>
</trkpt>
<trkpt lat="40.0713749" lon="-105.229789">
  <ele>1583.0</ele>
  <time>2026-08-28T17:57:00Z</time>
  <course>0.0</course>
  <speed>0.0</speed>
  <fix>3d</fix>
</trkpt>
<trkpt lat="40.0713749" lon="-105.229789">
  <ele>1583.0</ele>
  <time>2026-08-28T17:57:00Z</time>
  <course>247.65</course>
  <speed>0.0316227766016838</speed>
  <fix>3d</fix>
</trkpt>
<trkpt lat="40.0713749" lon="-105.229789">
  <ele>1583.0</ele>
  <time>2026-08-28T17:57:00Z</time>
  <course>0.0</course>
  <speed>0.0</speed>
  <fix>3d</fix>
</trkpt>
<trkpt lat="40.0713749" lon="-105.229789">
  <ele>1583.0</ele>
  <time>2026-08-28T17:57:00Z</time>
  <course>247.65</course>
  <speed>0.0316227766016838</speed>
  <fix>3d</fix>
</trkpt>
<trkpt lat="40.0713749" lon="-105.229789">
  <ele>1583.0</ele>
  <time>2026-08-28T17:57:00Z</time>
  <course>0.0</course>
  <speed>0.0</speed>
  <fix>3d</fix>
</trkpt>
<trkpt lat="40.0713749" lon="-105.229789">
  <ele>1583.0</ele>
  <time>2026-08-28T17:57:00Z</time>
  <course>247.64</course>
  <speed>0.0316227766016838</speed>
  <fix>3d</fix>
</trkpt>
<trkpt lat="40.0713749" lon="-105.229789">
  <ele>1583.0</ele>
  <time>2026-08-28T17:57:00Z</time>
  <course>0.0</course>
  <speed>0.0</speed>
  <fix>3d</fix>
</trkpt>
<trkpt lat="40.0713749" lon="-105.229789">
  <ele>1583.0</ele>
  <time>2026-08-28T17:57:00Z</time>
  <course>247.64</course>
  <speed>0.0316227766016838</speed>
  <fix>3d</fix>
</trkpt>
<trkpt lat="40.0713749" lon="-105.229789">
  <ele>1583.0</ele>
  <time>2026-08-28T17:57:00Z</time>
  <course>0.0</course>
  <speed>0.0</speed>
  <fix>3d</fix>
</trkpt>
<trkpt lat="40.0713749" lon="-105.229789">
  <ele>1583.0</ele>
  <time>2026-08-28T17:57:00Z</time>
  <course>247.64</course>
  <speed>0.0316227766016838</speed>
  <fix>3d</fix>
</trkpt>
<trkpt lat="40.0713749" lon="-105.229789">
  <ele>1583.0</ele>
  <time>2026-08-28T17:57:00Z</time>
  <course>0.0</course>
  <speed>0.0</speed>
  <fix>3d</fix>
</trkpt>
<trkpt lat="40.0713749" lon="-105.229789">
  <ele>1583.0</ele>
  <time>2026-08-28T17:57:00Z</time>
  <course>247.64</course>
  <speed>0.0316227766016838</speed>
  <fix>3d</fix>
</trkpt>
<trkpt lat="40.0713749" lon="-105.229789">
  <ele>1583.0</ele>
  <time>2026-08-28T17:57:00Z</time>
  <course>0.0</course>
  <speed>0.0</speed>
  <fix>3d</fix>
</trkpt>
<trkpt lat="40.0713749" lon="-105.229789">
  <ele>1583.0</ele>
  <time>2026-08-28T17:57:00Z</time>
  <course>247.63</course>
  <speed>0.0316227766016838</speed>
  <fix>3d</fix>
</trkpt>
<trkpt lat="40.0713749" lon="-105.229789">
  <ele>1583.0</ele>
  <time>2026-08-28T17:57:00Z</time>
  <course>0.0</course>
  <speed>0.0</speed>
  <fix>3d</fix>
</trkpt>
<trkpt lat="40.0713749" lon="-105.229789">
  <ele>1583.0</ele>
  <time>2026-08-28T17:57:00Z</time>
  <course>247.63</course>
  <speed>0.0316227766016838</speed>
  <fix>3d</fix>
</trkpt>
<trkpt lat="40.0713749" lon="-105.229789">
  <ele>1583.0</ele>
  <time>2026-08-28T17:57:00Z</time>
  <course>0.0</course>
  <speed>0.0</speed>
  <fix>3d</fix>
</trkpt>
<trkpt lat="40.0713749" lon="-105.229789">
  <ele>1583.0</ele>
  <time>2026-08-28T17:57:00Z</time>
  <course>247.63</course>
  <speed>0.0316227766016838</speed>
  <fix>3d</fix>
</trkpt>
<trkpt lat="40.0713749" lon="-105.229789">
  <ele>1583.0</ele>
  <time>2026-08-28T17:57:00Z</time>
  <course>0.0</course>
  <speed>0.0</speed>
  <fix>3d</fix>
</trkpt>
<trkpt lat="40.0713749" lon="-105.229789">
  <ele>1583.0</ele>
  <time>2026-08-28T17:57:00Z</time>
  <course>247.62</course>
  <speed>0.0316227766016838</speed>
  <fix>3d</fix>
</trkpt>
<trkpt lat="40.0713749" lon="-105.229789">
  <ele>1583.0</ele>
  <time>2026-08-28T17:57:00Z</time>
  <course>0.0</course>
  <speed>0.0</speed>
  <fix>3d</fix>
</trkpt>
<trkpt lat="40.0713749" lon="-105.229789">
  <ele>1583.0</ele>
  <time>2026-08-28T17:57:00Z</time>
  <course>247.62</course>
  <speed>0.0316227766016838</speed>
  <fix>3d</fix>
</trkpt>
<trkpt lat="40.0713749" lon="-105.229789">
  <ele>1583.0</ele>
  <time>2026-08-28T17:57:00Z</time>
  <course>0.0</course>
  <speed>0.0</speed>
  <fix>3d</fix>
</trkpt>
<trkpt lat="40.0713749" lon="-105.229789">
  <ele>1583.0</ele>
  <time>2026-08-28T17:57:00Z</time>
  <course>247.62</course>
  <speed>0.0316227766016838</speed>
  <fix>3d</fix>
</trkpt>
<trkpt lat="40.0713749" lon="-105.229789">
  <ele>1583.0</ele>
  <time>2026-08-28T17:57:00Z</time>
  <course>0.0</course>
  <speed>0.0</speed>
  <fix>3d</fix>
</trkpt>
<trkpt lat="40.0713749" lon="-105.229789">
  <ele>1583.0</ele>
  <time>2026-08-28T17:57:00Z</time>
  <course>247.61</course>
  <speed>0.0316227766016838</speed>
  <fix>3d</fix>
</trkpt>
<trkpt lat="40.0713749" lon="-105.229789">
  <ele>1583.0</ele>
  <time>2026-08-28T17:57:00Z</time>
  <course>0.0</course>
  <speed>0.0</speed>
  <fix>3d</fix>
</trkpt>
<trkpt lat="40.0713749" lon="-105.229789">
  <ele>1583.0</ele>
  <time>2026-08-28T17:57:00Z</time>
  <course>247.61</course>
  <speed>0.0316227766016838</speed>
  <fix>3d</fix>
</trkpt>
<trkpt lat="40.0713749" lon="-105.229789">
  <ele>1583.0</ele>
  <time>2026-08-28T17:57:00Z</time>
  <course>0.0</course>
  <speed>0.0</speed>
  <fix>3d</fix>
</trkpt>
<trkpt lat="40.0713749" lon="-105.229789">
  <ele>1583.0</ele>
  <time>2026-08-28T17:57:00Z</time>
  <course>247.61</course>
  <speed>0.0316227766016838</speed>
  <fix>3d</fix>
</trkpt>
<trkpt lat="40.0713749" lon="-105.229789">
  <ele>1583.0</ele>
  <time>2026-08-28T17:57:00Z</time>
  <course>0.0</course>
  <speed>0.0</speed>
  <fix>3d</fix>
</trkpt>
<trkpt lat="40.0713749" lon="-105.229789">
  <ele>1583.0</ele>
  <time>2026-08-28T17:57:00Z</time>
  <course>247.61</course>
  <speed>0.0316227766016838</speed>
  <fix>3d</fix>
</trkpt>
<trkpt lat="40.0713749" lon="-105.229789">
  <ele>1583.0</ele>
  <time>2026-08-28T17:57:00Z</time>
  <course>0.0</course>
  <speed>0.0</speed>
  <fix>3d</fix>
</trkpt>
<trkpt lat="40.0713749" lon="-105.229789">
  <ele>1583.0</ele>
  <time>2026-08-28T17:57:00Z</time>
  <course>247.6</course>
  <speed>0.0316227766016838</speed>
  <fix>3d</fix>
</trkpt>
<trkpt lat="40.0713749" lon="-105.229789">
  <ele>1583.0</ele>
  <time>2026-08-28T17:57:00Z</time>
  <course>0.0</course>
  <speed>0.0</speed>
  <fix>3d</fix>
</trkpt>
<trkpt lat="40.0713749" lon="-105.229789">
  <ele>1583.0</ele>
  <time>2026-08-28T17:57:00Z</time>
  <course>247.6</course>
  <speed>0.0316227766016838</speed>
  <fix>3d</fix>
</trkpt>
<trkpt lat="40.0713749" lon="-105.229789">
  <ele>1583.0</ele>
  <time>2026-08-28T17:57:00Z</time>
  <course>0.0</course>
  <speed>0.0</speed>
  <fix>3d</fix>
</trkpt>
<trkpt lat="40.0713749" lon="-105.229789">
  <ele>1583.0</ele>
  <time>2026-08-28T17:57:00Z</time>
  <course>247.6</course>
  <speed>0.0316227766016838</speed>
  <fix>3d</fix>
</trkpt>
<trkpt lat="40.0713749" lon="-105.229789">
  <ele>1583.0</ele>
  <time>2026-08-28T17:57:00Z</time>
  <course>0.0</course>
  <speed>0.0</speed>
  <fix>3d</fix>
</trkpt>
<trkpt lat="40.0713749" lon="-105.229789">
  <ele>1583.0</ele>
  <time>2026-08-28T17:57:00Z</time>
  <course>247.6</course>
  <speed>0.0316227766016838</speed>
  <fix>3d</fix>
</trkpt>
<trkpt lat="40.0713749" lon="-105.229789">
  <ele>1583.0</ele>
  <time>2026-08-28T17:57:00Z</time>
  <course>0.0</course>
  <speed>0.0</speed>
  <fix>3d</fix>
</trkpt>
<trkpt lat="40.0713749" lon="-105.229789">
  <ele>1583.0</ele>
  <time>2026-08-28T17:57:00Z</time>
  <course>247.59</course>
  <speed>0.0316227766016838</speed>
  <fix>3d</fix>
</trkpt>
<trkpt lat="40.0713749" lon="-105.229789">
  <ele>1583.0</ele>
  <time>2026-08-28T17:57:00Z</time>
  <course>0.0</course>
  <speed>0.0</speed>
  <fix>3d</fix>
</trkpt>
<trkpt lat="40.0713749" lon="-105.229789">
  <ele>1582.92</ele>
  <time>2026-08-28T17:57:00Z</time>
  <course>247.59</course>
  <speed>0.0</speed>
  <fix>3d</fix>
</trkpt>
<trkpt lat="40.0713749" lon="-105.229789">
  <ele>1583.0</ele>
  <time>2026-08-28T17:57:00Z</time>
  <course>0.0</course>
  <speed>0.0</speed>
  <fix>3d</fix>
</trkpt>
<trkpt lat="40.0713749" lon="-105.229789">
  <ele>1582.92</ele>
  <time>2026-08-28T17:57:00Z</time>
  <course>247.59</course>
  <speed>0.0</speed>
  <fix>3d</fix>
</trkpt>
<trkpt lat="40.0713749" lon="-105.229789">
  <ele>1583.0</ele>
  <time>2026-08-28T17:57:00Z</time>
  <course>0.0</course>
  <speed>0.0</speed>
  <fix>3d</fix>
</trkpt>
<trkpt lat="40.0713749" lon="-105.229789">
  <ele>1582.91</ele>
  <time>2026-08-28T17:57:00Z</time>
  <course>247.58</course>
  <speed>0.0</speed>
  <fix>3d</fix>
</trkpt>
<trkpt lat="40.0713749" lon="-105.229789">
  <ele>1583.0</ele>
  <time>2026-08-28T17:57:00Z</time>
  <course>0.0</course>
  <speed>0.0</speed>
  <fix>3d</fix>
</trkpt>
<trkpt lat="40.0713749" lon="-105.229789">
  <ele>1582.91</ele>
  <time>2026-08-28T17:57:00Z</time>
  <course>247.58</course>
  <speed>0.0</speed>
  <fix>3d</fix>
</trkpt>
<trkpt lat="40.0713749" lon="-105.229789">
  <ele>1583.0</ele>
  <time>2026-08-28T17:57:00Z</time>
  <course>0.0</course>
  <speed>0.0</speed>
  <fix>3d</fix>
</trkpt>
<trkpt lat="40.0713749" lon="-105.229789">
  <ele>1582.9</ele>
  <time>2026-08-28T17:57:00Z</time>
  <course>247.58</course>
  <speed>0.0</speed>
  <fix>3d</fix>
</trkpt>
<trkpt lat="40.0713749" lon="-105.229789">
  <ele>1583.0</ele>
  <time>2026-08-28T17:57:00Z</time>
  <course>0.0</course>
  <speed>0.0</speed>
  <fix>3d</fix>
</trkpt>
<trkpt lat="40.0713749" lon="-105.229789">
  <ele>1582.9</ele>
  <time>2026-08-28T17:57:00Z</time>
  <course>247.58</course>
  <speed>0.0</speed>
  <fix>3d</fix>
</trkpt>
<trkpt lat="40.0713749" lon="-105.229789">
  <ele>1583.0</ele>
  <time>2026-08-28T17:57:00Z</time>
  <course>0.0</course>
  <speed>0.0</speed>
  <fix>3d</fix>
</trkpt>
<trkpt lat="40.0713749" lon="-105.229789">
  <ele>1582.9</ele>
  <time>2026-08-28T17:57:00Z</time>
  <course>247.57</course>
  <speed>0.0</speed>
  <fix>3d</fix>
</trkpt>
<trkpt lat="40.0713749" lon="-105.229789">
  <ele>1583.0</ele>
  <time>2026-08-28T17:57:00Z</time>
  <course>0.0</course>
  <speed>0.0</speed>
  <fix>3d</fix>
</trkpt>
<trkpt lat="40.0713749" lon="-105.229789">
  <ele>1582.9</ele>
  <time>2026-08-28T17:57:00Z</time>
  <course>247.57</course>
  <speed>0.0</speed>
  <fix>3d</fix>
</trkpt>
<trkpt lat="40.0713749" lon="-105.229789">
  <ele>1583.0</ele>
  <time>2026-08-28T17:57:00Z</time>
  <course>0.0</course>
  <speed>0.0</speed>
  <fix>3d</fix>
</trkpt>
<trkpt lat="40.0713749" lon="-105.229789">
  <ele>1582.9</ele>
  <time>2026-08-28T17:57:00Z</time>
  <course>247.57</course>
  <speed>0.0</speed>
  <fix>3d</fix>
</trkpt>
<trkpt lat="40.0713749" lon="-105.229789">
  <ele>1583.0</ele>
  <time>2026-08-28T17:57:00Z</time>
  <course>0.0</course>
  <speed>0.0</speed>
  <fix>3d</fix>
</trkpt>
<trkpt lat="40.0713749" lon="-105.229789">
  <ele>1582.9</ele>
  <time>2026-08-28T17:57:00Z</time>
  <course>247.57</course>
  <speed>0.01</speed>
  <fix>3d</fix>
</trkpt>
<trkpt lat="40.0713749" lon="-105.229789">
  <ele>1583.0</ele>
  <time>2026-08-28T17:57:00Z</time>
  <course>0.0</course>
  <speed>0.0</speed>
  <fix>3d</fix>
</trkpt>
<trkpt lat="40.0713749" lon="-105.229789">
  <ele>1582.91</ele>
  <time>2026-08-28T17:57:00Z</time>
  <course>247.56</course>
  <speed>0.01</speed>
  <fix>3d</fix>
</trkpt>
<trkpt lat="40.0713749" lon="-105.229789">
  <ele>1583.0</ele>
  <time>2026-08-28T17:57:00Z</time>
  <course>0.0</course>
  <speed>0.0</speed>
  <fix>3d</fix>
</trkpt>
<trkpt lat="40.0713749" lon="-105.229789">
  <ele>1582.91</ele>
  <time>2026-08-28T17:57:00Z</time>
  <course>247.56</course>
  <speed>0.01</speed>
  <fix>3d</fix>
</trkpt>
<trkpt lat="40.0713749" lon="-105.229789">
  <ele>1583.0</ele>
  <time>2026-08-28T17:57:00Z</time>
  <course>0.0</course>
  <speed>0.0</speed>
  <fix>3d</fix>
</trkpt>
<trkpt lat="40.0713749" lon="-105.229789">
  <ele>1582.91</ele>
  <time>2026-08-28T17:57:00Z</time>
  <course>247.56</course>
  <speed>0.01</speed>
  <fix>3d</fix>
</trkpt>
<trkpt lat="40.0713749" lon="-105.229789">
  <ele>1583.0</ele>
  <time>2026-08-28T17:57:00Z</time>
  <course>0.0</course>
  <speed>0.0</speed>
  <fix>3d</fix>
</trkpt>
<trkpt lat="40.0713749" lon="-105.229789">
  <ele>1582.92</ele>
  <time>2026-08-28T17:57:00Z</time>
  <course>247.56</course>
  <speed>0.01</speed>
  <fix>3d</fix>
</trkpt>
<trkpt lat="40.0713749" lon="-105.229789">
  <ele>1583.0</ele>
  <time>2026-08-28T17:57:00Z</time>
  <course>0.0</course>
  <speed>0.0</speed>
  <fix>3d</fix>
</trkpt>
<trkpt lat="40.0713749" lon="-105.229789">
  <ele>1582.92</ele>
  <time>2026-08-28T17:57:00Z</time>
  <course>247.55</course>
  <speed>0.01</speed>
  <fix>3d</fix>
</trkpt>
<trkpt lat="40.0713749" lon="-105.229789">
  <ele>1583.0</ele>
  <time>2026-08-28T17:57:00Z</time>
  <course>0.0</course>
  <speed>0.0</speed>
  <fix>3d</fix>
</trkpt>
<trkpt lat="40.0713749" lon="-105.229789">
  <ele>1582.92</ele>
  <time>2026-08-28T17:57:00Z</time>
  <course>247.55</course>
  <speed>0.01</speed>
  <fix>3d</fix>
</trkpt>
<trkpt lat="40.0713749" lon="-105.229789">
  <ele>1583.0</ele>
  <time>2026-08-28T17:57:00Z</time>
  <course>0.0</course>
  <speed>0.0</speed>
  <fix>3d</fix>
</trkpt>
<trkpt lat="40.0713749" lon="-105.229789">
  <ele>1582.93</ele>
  <time>2026-08-28T17:57:00Z</time>
  <course>247.55</course>
  <speed>0.01</speed>
  <fix>3d</fix>
</trkpt>
<trkpt lat="40.0713749" lon="-105.229789">
  <ele>1583.0</ele>
  <time>2026-08-28T17:57:00Z</time>
  <course>0.0</course>
  <speed>0.0</speed>
  <fix>3d</fix>
</trkpt>
<trkpt lat="40.0713749" lon="-105.229789">
  <ele>1582.93</ele>
  <time>2026-08-28T17:57:00Z</time>
  <course>247.55</course>
  <speed>0.02</speed>
  <fix>3d</fix>
</trkpt>
<trkpt lat="40.0713749" lon="-105.229789">
  <ele>1583.0</ele>
  <time>2026-08-28T17:57:00Z</time>
  <course>0.0</course>
  <speed>0.0</speed>
  <fix>3d</fix>
</trkpt>
<trkpt lat="40.0713749" lon="-105.229789">
  <ele>1582.93</ele>
  <time>2026-08-28T17:57:00Z</time>
  <course>247.54</course>
  <speed>0.02</speed>
  <fix>3d</fix>
</trkpt>
<trkpt lat="40.0713749" lon="-105.229789">
  <ele>1583.0</ele>
  <time>2026-08-28T17:57:00Z</time>
  <course>0.0</course>
  <speed>0.0</speed>
  <fix>3d</fix>
</trkpt>
<trkpt lat="40.0713749" lon="-105.229789">
  <ele>1582.93</ele>
  <time>2026-08-28T17:57:00Z</time>
  <course>247.54</course>
  <speed>0.02</speed>
  <fix>3d</fix>
</trkpt>
<trkpt lat="40.0713749" lon="-105.229789">
  <ele>1583.0</ele>
  <time>2026-08-28T17:57:00Z</time>
  <course>0.0</course>
  <speed>0.0</speed>
  <fix>3d</fix>
</trkpt>
<trkpt lat="40.0713749" lon="-105.229789">
  <ele>1582.93</ele>
  <time>2026-08-28T17:57:00Z</time>
  <course>247.54</course>
  <speed>0.02</speed>
  <fix>3d</fix>
</trkpt>
<trkpt lat="40.0713749" lon="-105.229789">
  <ele>1583.0</ele>
  <time>2026-08-28T17:57:00Z</time>
  <course>0.0</course>
  <speed>0.0</speed>
  <fix>3d</fix>
</trkpt>
<trkpt lat="40.0713749" lon="-105.229789">
  <ele>1582.93</ele>
  <time>2026-08-28T17:57:00Z</time>
  <course>247.54</course>
  <speed>0.022360679774997897</speed>
  <fix>3d</fix>
</trkpt>
<trkpt lat="40.0713749" lon="-105.229789">
  <ele>1583.0</ele>
  <time>2026-08-28T17:57:00Z</time>
  <course>0.0</course>
  <speed>0.0</speed>
  <fix>3d</fix>
</trkpt>
<trkpt lat="40.071375" lon="-105.229789">
  <ele>1582.95</ele>
  <time>2026-08-28T17:57:00Z</time>
  <course>247.53</course>
  <speed>0.022360679774997897</speed>
  <fix>3d</fix>
</trkpt>
<trkpt lat="40.0713749" lon="-105.229789">
  <ele>1583.0</ele>
  <time>2026-08-28T17:57:00Z</time>
  <course>0.0</course>
  <speed>0.0</speed>
  <fix>3d</fix>
</trkpt>
<trkpt lat="40.071375" lon="-105.229789">
  <ele>1582.95</ele>
  <time>2026-08-28T17:57:00Z</time>
  <course>247.52</course>
  <speed>0.022360679774997897</speed>
  <fix>3d</fix>
</trkpt>
<trkpt lat="40.0713749" lon="-105.229789">
  <ele>1583.0</ele>
  <time>2026-08-28T17:57:00Z</time>
  <course>0.0</course>
  <speed>0.0</speed>
  <fix>3d</fix>
</trkpt>
<trkpt lat="40.071375" lon="-105.229789">
  <ele>1582.95</ele>
  <time>2026-08-28T17:57:00Z</time>
  <course>247.52</course>
  <speed>0.022360679774997897</speed>
  <fix>3d</fix>
</trkpt>
<trkpt lat="40.0713749" lon="-105.229789">
  <ele>1583.0</ele>
  <time>2026-08-28T17:57:00Z</time>
  <course>0.0</course>
  <speed>0.0</speed>
  <fix>3d</fix>
</trkpt>
<trkpt lat="40.071375" lon="-105.229789">
  <ele>1582.95</ele>
  <time>2026-08-28T17:57:00Z</time>
  <course>247.52</course>
  <speed>0.022360679774997897</speed>
  <fix>3d</fix>
</trkpt>
<trkpt lat="40.0713749" lon="-105.229789">
  <ele>1583.0</ele>
  <time>2026-08-28T17:57:00Z</time>
  <course>0.0</course>
  <speed>0.0</speed>
  <fix>3d</fix>
</trkpt>
<trkpt lat="40.071375" lon="-105.229789">
  <ele>1582.95</ele>
  <time>2026-08-28T17:57:00Z</time>
  <course>247.52</course>
  <speed>0.022360679774997897</speed>
  <fix>3d</fix>
</trkpt>
<trkpt lat="40.0713749" lon="-105.229789">
  <ele>1583.0</ele>
  <time>2026-08-28T17:57:00Z</time>
  <course>0.0</course>
  <speed>0.0</speed>
  <fix>3d</fix>
</trkpt>
<trkpt lat="40.071375" lon="-105.229789">
  <ele>1582.95</ele>
  <time>2026-08-28T17:57:00Z</time>
  <course>247.52</course>
  <speed>0.022360679774997897</speed>
  <fix>3d</fix>
</trkpt>
<trkpt lat="40.0713749" lon="-105.229789">
  <ele>1583.0</ele>
  <time>2026-08-28T17:57:00Z</time>
  <course>0.0</course>
  <speed>0.0</speed>
  <fix>3d</fix>
</trkpt>
<trkpt lat="40.071375" lon="-105.229789">
  <ele>1582.95</ele>
  <time>2026-08-28T17:57:00Z</time>
  <course>247.51</course>
  <speed>0.0316227766016838</speed>
  <fix>3d</fix>
</trkpt>
<trkpt lat="40.0713749" lon="-105.229789">
  <ele>1583.0</ele>
  <time>2026-08-28T17:57:00Z</time>
  <course>0.0</course>
  <speed>0.0</speed>
  <fix>3d</fix>
</trkpt>
<trkpt lat="40.071375" lon="-105.229789">
  <ele>1582.95</ele>
  <time>2026-08-28T17:57:00Z</time>
  <course>247.51</course>
  <speed>0.0316227766016838</speed>
  <fix>3d</fix>
</trkpt>
<trkpt lat="40.0713749" lon="-105.229789">
  <ele>1583.0</ele>
  <time>2026-08-28T17:57:00Z</time>
  <course>0.0</course>
  <speed>0.0</speed>
  <fix>3d</fix>
</trkpt>
<trkpt lat="40.071375" lon="-105.2297889">
  <ele>1582.95</ele>
  <time>2026-08-28T17:57:00Z</time>
  <course>247.51</course>
  <speed>0.0316227766016838</speed>
  <fix>3d</fix>
</trkpt>
<trkpt lat="40.0713749" lon="-105.229789">
  <ele>1583.0</ele>
  <time>2026-08-28T17:57:00Z</time>
  <course>0.0</course>
  <speed>0.0</speed>
  <fix>3d</fix>
</trkpt>
<trkpt lat="40.071375" lon="-105.2297889">
  <ele>1582.95</ele>
  <time>2026-08-28T17:57:00Z</time>
  <course>247.5</course>
  <speed>0.0316227766016838</speed>
  <fix>3d</fix>
</trkpt>
<trkpt lat="40.0713749" lon="-105.229789">
  <ele>1583.0</ele>
  <time>2026-08-28T17:57:00Z</time>
  <course>0.0</course>
  <speed>0.0</speed>
  <fix>3d</fix>
</trkpt>
<trkpt lat="40.071375" lon="-105.2297889">
  <ele>1582.95</ele>
  <time>2026-08-28T17:57:00Z</time>
  <course>247.5</course>
  <speed>0.0316227766016838</speed>
  <fix>3d</fix>
</trkpt>
<trkpt lat="40.0713749" lon="-105.229789">
  <ele>1583.0</ele>
  <time>2026-08-28T17:57:00Z</time>
  <course>0.0</course>
  <speed>0.0</speed>
  <fix>3d</fix>
</trkpt>
<trkpt lat="40.0713751" lon="-105.2297889">
  <ele>1582.95</ele>
  <time>2026-08-28T17:57:00Z</time>
  <course>247.5</course>
  <speed>0.0316227766016838</speed>
  <fix>3d</fix>
</trkpt>
<trkpt lat="40.0713749" lon="-105.229789">
  <ele>1583.0</ele>
  <time>2026-08-28T17:57:00Z</time>
  <course>0.0</course>
  <speed>0.0</speed>
  <fix>3d</fix>
</trkpt>
<trkpt lat="40.0713751" lon="-105.2297889">
  <ele>1582.95</ele>
  <time>2026-08-28T17:57:00Z</time>
  <course>247.5</course>
  <speed>0.0316227766016838</speed>
  <fix>3d</fix>
</trkpt>
<trkpt lat="40.0713749" lon="-105.229789">
  <ele>1583.0</ele>
  <time>2026-08-28T17:57:00Z</time>
  <course>0.0</course>
  <speed>0.0</speed>
  <fix>3d</fix>
</trkpt>
<trkpt lat="40.0713751" lon="-105.2297889">
  <ele>1582.95</ele>
  <time>2026-08-28T17:57:00Z</time>
  <course>247.5</course>
  <speed>0.0316227766016838</speed>
  <fix>3d</fix>
</trkpt>
<trkpt lat="40.0713749" lon="-105.229789">
  <ele>1583.0</ele>
  <time>2026-08-28T17:57:00Z</time>
  <course>0.0</course>
  <speed>0.0</speed>
  <fix>3d</fix>
</trkpt>
<trkpt lat="40.0713751" lon="-105.2297889">
  <ele>1582.96</ele>
  <time>2026-08-28T17:57:00Z</time>
  <course>247.49</course>
  <speed>0.0316227766016838</speed>
  <fix>3d</fix>
</trkpt>
<trkpt lat="40.0713749" lon="-105.229789">
  <ele>1583.0</ele>
  <time>2026-08-28T17:57:00Z</time>
  <course>0.0</course>
  <speed>0.0</speed>
  <fix>3d</fix>
</trkpt>
<trkpt lat="40.0713751" lon="-105.2297889">
  <ele>1582.96</ele>
  <time>2026-08-28T17:57:00Z</time>
  <course>247.49</course>
  <speed>0.0316227766016838</speed>
  <fix>3d</fix>
</trkpt>
<trkpt lat="40.0713749" lon="-105.229789">
  <ele>1583.0</ele>
  <time>2026-08-28T17:57:00Z</time>
  <course>0.0</course>
  <speed>0.0</speed>
  <fix>3d</fix>
</trkpt>
<trkpt lat="40.0713751" lon="-105.2297889">
  <ele>1582.97</ele>
  <time>2026-08-28T17:57:00Z</time>
  <course>247.49</course>
  <speed>0.0316227766016838</speed>
  <fix>3d</fix>
</trkpt>
<trkpt lat="40.0713749" lon="-105.229789">
  <ele>1583.0</ele>
  <time>2026-08-28T17:57:00Z</time>
  <course>0.0</course>
  <speed>0.0</speed>
  <fix>3d</fix>
</trkpt>
<trkpt lat="40.0713751" lon="-105.2297889">
  <ele>1582.98</ele>
  <time>2026-08-28T17:57:00Z</time>
  <course>247.49</course>
  <speed>0.0316227766016838</speed>
  <fix>3d</fix>
</trkpt>
<trkpt lat="40.0713749" lon="-105.229789">
  <ele>1583.0</ele>
  <time>2026-08-28T17:57:00Z</time>
  <course>0.0</course>
  <speed>0.0</speed>
  <fix>3d</fix>
</trkpt>
<trkpt lat="40.0713751" lon="-105.2297889">
  <ele>1582.98</ele>
  <time>2026-08-28T17:57:00Z</time>
  <course>247.49</course>
  <speed>0.0316227766016838</speed>
  <fix>3d</fix>
</trkpt>
<trkpt lat="40.0713749" lon="-105.229789">
  <ele>1583.0</ele>
  <time>2026-08-28T17:57:00Z</time>
  <course>0.0</course>
  <speed>0.0</speed>
  <fix>3d</fix>
</trkpt>
<trkpt lat="40.0713751" lon="-105.2297889">
  <ele>1583.0</ele>
  <time>2026-08-28T17:57:00Z</time>
  <course>247.48</course>
  <speed>0.0316227766016838</speed>
  <fix>3d</fix>
</trkpt>
<trkpt lat="40.0713749" lon="-105.229789">
  <ele>1583.0</ele>
  <time>2026-08-28T17:57:00Z</time>
  <course>0.0</course>
  <speed>0.0</speed>
  <fix>3d</fix>
</trkpt>
<trkpt lat="40.0713751" lon="-105.2297889">
  <ele>1583.0</ele>
  <time>2026-08-28T17:57:00Z</time>
  <course>247.48</course>
  <speed>0.022360679774997897</speed>
  <fix>3d</fix>
</trkpt>
<trkpt lat="40.0713749" lon="-105.229789">
  <ele>1583.0</ele>
  <time>2026-08-28T17:57:00Z</time>
  <course>0.0</course>
  <speed>0.0</speed>
  <fix>3d</fix>
</trkpt>
<trkpt lat="40.0713751" lon="-105.2297889">
  <ele>1583.01</ele>
  <time>2026-08-28T17:57:00Z</time>
  <course>247.48</course>
  <speed>0.022360679774997897</speed>
  <fix>3d</fix>
</trkpt>
<trkpt lat="40.0713749" lon="-105.229789">
  <ele>1583.0</ele>
  <time>2026-08-28T17:57:00Z</time>
  <course>0.0</course>
  <speed>0.0</speed>
  <fix>3d</fix>
</trkpt>
<trkpt lat="40.0713751" lon="-105.2297889">
  <ele>1583.01</ele>
  <time>2026-08-28T17:57:00Z</time>
  <course>247.48</course>
  <speed>0.022360679774997897</speed>
  <fix>3d</fix>
</trkpt>
<trkpt lat="40.0713749" lon="-105.229789">
  <ele>1583.0</ele>
  <time>2026-08-28T17:57:00Z</time>
  <course>0.0</course>
  <speed>0.0</speed>
  <fix>3d</fix>
</trkpt>
<trkpt lat="40.0713751" lon="-105.2297889">
  <ele>1583.01</ele>
  <time>2026-08-28T17:57:00Z</time>
  <course>247.47</course>
  <speed>0.022360679774997897</speed>
  <fix>3d</fix>
</trkpt>
<trkpt lat="40.0713749" lon="-105.229789">
  <ele>1583.0</ele>
  <time>2026-08-28T17:57:00Z</time>
  <course>0.0</course>
  <speed>0.0</speed>
  <fix>3d</fix>
</trkpt>
<trkpt lat="40.0713751" lon="-105.2297889">
  <ele>1583.01</ele>
  <time>2026-08-28T17:57:00Z</time>
  <course>247.47</course>
  <speed>0.022360679774997897</speed>
  <fix>3d</fix>
</trkpt>
<trkpt lat="40.0713749" lon="-105.229789">
  <ele>1583.0</ele>
  <time>2026-08-28T17:57:00Z</time>
  <course>0.0</course>
  <speed>0.0</speed>
  <fix>3d</fix>
</trkpt>
<trkpt lat="40.0713751" lon="-105.2297889">
  <ele>1583.01</ele>
  <time>2026-08-28T17:57:00Z</time>
  <course>247.47</course>
  <speed>0.022360679774997897</speed>
  <fix>3d</fix>
</trkpt>
<trkpt lat="40.0713749" lon="-105.229789">
  <ele>1583.0</ele>
  <time>2026-08-28T17:57:00Z</time>
  <course>0.0</course>
  <speed>0.0</speed>
  <fix>3d</fix>
</trkpt>
<trkpt lat="40.071375" lon="-105.2297889">
  <ele>1583.0</ele>
  <time>2026-08-28T17:57:00Z</time>
  <course>247.47</course>
  <speed>0.022360679774997897</speed>
  <fix>3d</fix>
</trkpt>
<trkpt lat="40.0713749" lon="-105.229789">
  <ele>1583.0</ele>
  <time>2026-08-28T17:57:00Z</time>
  <course>0.0</course>
  <speed>0.0</speed>
  <fix>3d</fix>
</trkpt>
<trkpt lat="40.071375" lon="-105.2297889">
  <ele>1583.0</ele>
  <time>2026-08-28T17:57:00Z</time>
  <course>247.47</course>
  <speed>0.022360679774997897</speed>
  <fix>3d</fix>
</trkpt>
<trkpt lat="40.0713749" lon="-105.229789">
  <ele>1583.0</ele>
  <time>2026-08-28T17:57:00Z</time>
  <course>0.0</course>
  <speed>0.0</speed>
  <fix>3d</fix>
</trkpt>
<trkpt lat="40.071375" lon="-105.2297889">
  <ele>1582.99</ele>
  <time>2026-08-28T17:57:00Z</time>
  <course>247.46</course>
  <speed>0.022360679774997897</speed>
  <fix>3d</fix>
</trkpt>
<trkpt lat="40.0713749" lon="-105.229789">
  <ele>1583.0</ele>
  <time>2026-08-28T17:57:00Z</time>
  <course>0.0</course>
  <speed>0.0</speed>
  <fix>3d</fix>
</trkpt>
<trkpt lat="40.071375" lon="-105.2297889">
  <ele>1582.99</ele>
  <time>2026-08-28T17:57:00Z</time>
  <course>247.46</course>
  <speed>0.022360679774997897</speed>
  <fix>3d</fix>
</trkpt>
<trkpt lat="40.0713749" lon="-105.229789">
  <ele>1583.0</ele>
  <time>2026-08-28T17:57:00Z</time>
  <course>0.0</course>
  <speed>0.0</speed>
  <fix>3d</fix>
</trkpt>
<trkpt lat="40.071375" lon="-105.2297889">
  <ele>1582.99</ele>
  <time>2026-08-28T17:57:00Z</time>
  <course>247.46</course>
  <speed>0.022360679774997897</speed>
  <fix>3d</fix>
</trkpt>
<trkpt lat="40.0713749" lon="-105.229789">
  <ele>1583.0</ele>
  <time>2026-08-28T17:57:00Z</time>
  <course>0.0</course>
  <speed>0.0</speed>
  <fix>3d</fix>
</trkpt>
<trkpt lat="40.071375" lon="-105.2297889">
  <ele>1582.99</ele>
  <time>2026-08-28T17:57:00Z</time>
  <course>247.46</course>
  <speed>0.022360679774997897</speed>
  <fix>3d</fix>
</trkpt>
<trkpt lat="40.0713749" lon="-105.229789">
  <ele>1583.0</ele>
  <time>2026-08-28T17:57:00Z</time>
  <course>0.0</course>
  <speed>0.0</speed>
  <fix>3d</fix>
</trkpt>
<trkpt lat="40.071375" lon="-105.2297889">
  <ele>1582.99</ele>
  <time>2026-08-28T17:57:00Z</time>
  <course>247.45</course>
  <speed>0.022360679774997897</speed>
  <fix>3d</fix>
</trkpt>
<trkpt lat="40.0713749" lon="-105.229789">
  <ele>1583.0</ele>
  <time>2026-08-28T17:57:00Z</time>
  <course>0.0</course>
  <speed>0.0</speed>
  <fix>3d</fix>
</trkpt>
<trkpt lat="40.071375" lon="-105.2297889">
  <ele>1582.99</ele>
  <time>2026-08-28T17:57:00Z</time>
  <course>247.45</course>
  <speed>0.022360679774997897</speed>
  <fix>3d</fix>
</trkpt>
<trkpt lat="40.0713749" lon="-105.229789">
  <ele>1583.0</ele>
  <time>2026-08-28T17:57:00Z</time>
  <course>0.0</course>
  <speed>0.0</speed>
  <fix>3d</fix>
</trkpt>
<trkpt lat="40.071375" lon="-105.2297889">
  <ele>1582.99</ele>
  <time>2026-08-28T17:57:00Z</time>
  <course>247.45</course>
  <speed>0.022360679774997897</speed>
  <fix>3d</fix>
</trkpt>
<trkpt lat="40.0713749" lon="-105.229789">
  <ele>1583.0</ele>
  <time>2026-08-28T17:57:00Z</time>
  <course>0.0</course>
  <speed>0.0</speed>
  <fix>3d</fix>
</trkpt>
<trkpt lat="40.071375" lon="-105.2297889">
  <ele>1582.99</ele>
  <time>2026-08-28T17:57:00Z</time>
  <course>247.45</course>
  <speed>0.022360679774997897</speed>
  <fix>3d</fix>
</trkpt>
<trkpt lat="40.0713749" lon="-105.229789">
  <ele>1583.0</ele>
  <time>2026-08-28T17:57:00Z</time>
  <course>0.0</course>
  <speed>0.0</speed>
  <fix>3d</fix>
</trkpt>
<trkpt lat="40.071375" lon="-105.2297889">
  <ele>1583.0</ele>
  <time>2026-08-28T17:57:00Z</time>
  <course>247.45</course>
  <speed>0.022360679774997897</speed>
  <fix>3d</fix>
</trkpt>
<trkpt lat="40.0713749" lon="-105.229789">
  <ele>1583.0</ele>
  <time>2026-08-28T17:57:00Z</time>
  <course>0.0</course>
  <speed>0.0</speed>
  <fix>3d</fix>
</trkpt>
<trkpt lat="40.071375" lon="-105.2297889">
  <ele>1583.0</ele>
  <time>2026-08-28T17:57:00Z</time>
  <course>247.44</course>
  <speed>0.02</speed>
  <fix>3d</fix>
</trkpt>
<trkpt lat="40.0713749" lon="-105.229789">
  <ele>1583.0</ele>
  <time>2026-08-28T17:57:00Z</time>
  <course>246.0</course>
  <speed>0.0</speed>
  <fix>3d</fix>
</trkpt>
<trkpt lat="40.071375" lon="-105.229789">
  <ele>1583.0</ele>
  <time>2026-08-28T17:57:00Z</time>
  <course>247.44</course>
  <speed>0.02</speed>
  <fix>3d</fix>
</trkpt>
<trkpt lat="40.0713749" lon="-105.229789">
  <ele>1583.0</ele>
  <time>2026-08-28T17:57:00Z</time>
  <course>246.0</course>
  <speed>0.0</speed>
  <fix>3d</fix>
</trkpt>
<trkpt lat="40.071375" lon="-105.229789">
  <ele>1583.0</ele>
  <time>2026-08-28T17:57:00Z</time>
  <course>247.43</course>
  <speed>0.02</speed>
  <fix>3d</fix>
</trkpt>
<trkpt lat="40.0713749" lon="-105.229789">
  <ele>1583.0</ele>
  <time>2026-08-28T17:57:00Z</time>
  <course>245.99</course>
  <speed>0.0</speed>
  <fix>3d</fix>
</trkpt>
<trkpt lat="40.071375" lon="-105.229789">
  <ele>1583.0</ele>
  <time>2026-08-28T17:57:00Z</time>
  <course>247.41</course>
  <speed>0.01</speed>
  <fix>3d</fix>
</trkpt>
<trkpt lat="40.0713749" lon="-105.229789">
  <ele>1583.0</ele>
  <time>2026-08-28T17:57:00Z</time>
  <course>245.99</course>
  <speed>0.0</speed>
  <fix>3d</fix>
</trkpt>
<trkpt lat="40.071375" lon="-105.229789">
  <ele>1583.01</ele>
  <time>2026-08-28T17:57:00Z</time>
  <course>247.43</course>
  <speed>0.01414213562373095</speed>
  <fix>3d</fix>
</trkpt>
<trkpt lat="40.0713749" lon="-105.229789">
  <ele>1583.0</ele>
  <time>2026-08-28T17:57:00Z</time>
  <course>245.99</course>
  <speed>0.01</speed>
  <fix>3d</fix>
</trkpt>
<trkpt lat="40.071375" lon="-105.229789">
  <ele>1583.01</ele>
  <time>2026-08-28T17:57:00Z</time>
  <course>247.54</course>
  <speed>0.03</speed>
  <fix>3d</fix>
</trkpt>
<trkpt lat="40.0713749" lon="-105.229789">
  <ele>1583.0</ele>
  <time>2026-08-28T17:57:00Z</time>
  <course>245.99</course>
  <speed>0.01</speed>
  <fix>3d</fix>
</trkpt>
<trkpt lat="40.071375" lon="-105.229789">
  <ele>1583.02</ele>
  <time>2026-08-28T17:57:00Z</time>
  <course>247.76</course>
  <speed>0.05</speed>
  <fix>3d</fix>
</trkpt>
<trkpt lat="40.0713749" lon="-105.229789">
  <ele>1583.0</ele>
  <time>2026-08-28T17:57:00Z</time>
  <course>246.23</course>
  <speed>0.04</speed>
  <fix>3d</fix>
</trkpt>
<trkpt lat="40.071375" lon="-105.2297891">
  <ele>1583.02</ele>
  <time>2026-08-28T17:57:00Z</time>
  <course>248.14</course>
  <speed>0.08062257748298549</speed>
  <fix>3d</fix>
</trkpt>
<trkpt lat="40.0713749" lon="-105.229789">
  <ele>1583.0</ele>
  <time>2026-08-28T17:57:00Z</time>
  <course>246.23</course>
  <speed>0.04</speed>
  <fix>3d</fix>
</trkpt>
<trkpt lat="40.071375" lon="-105.2297892">
  <ele>1583.03</ele>
  <time>2026-08-28T17:57:00Z</time>
  <course>248.72</course>
  <speed>0.11401754250991379</speed>
  <fix>3d</fix>
</trkpt>
<trkpt lat="40.0713749" lon="-105.2297892">
  <ele>1583.0</ele>
  <time>2026-08-28T17:57:00Z</time>
  <course>246.96</course>
  <speed>0.1</speed>
  <fix>3d</fix>
</trkpt>
<trkpt lat="40.0713749" lon="-105.2297894">
  <ele>1583.03</ele>
  <time>2026-08-28T17:57:00Z</time>
  <course>249.58</course>
  <speed>0.15524174696260024</speed>
  <fix>3d</fix>
</trkpt>
<trkpt lat="40.0713749" lon="-105.2297892">
  <ele>1583.0</ele>
  <time>2026-08-28T17:57:00Z</time>
  <course>246.96</course>
  <speed>0.1</speed>
  <fix>3d</fix>
</trkpt>
<trkpt lat="40.0713749" lon="-105.2297897">
  <ele>1583.04</ele>
  <time>2026-08-28T17:57:00Z</time>
  <course>251.05</course>
  <speed>0.215870331449229</speed>
  <fix>3d</fix>
</trkpt>
<trkpt lat="40.0713748" lon="-105.2297895">
  <ele>1583.0</ele>
  <time>2026-08-28T17:57:00Z</time>
  <course>248.57</course>
  <speed>0.17</speed>
  <fix>3d</fix>
</trkpt>
<trkpt lat="40.0713748" lon="-105.22979">
  <ele>1583.04</ele>
  <time>2026-08-28T17:57:00Z</time>
  <course>252.64</course>
  <speed>0.2668332812825267</speed>
  <fix>3d</fix>
</trkpt>
<trkpt lat="40.0713748" lon="-105.2297895">
  <ele>1583.0</ele>
  <time>2026-08-28T17:57:00Z</time>
  <course>248.57</course>
  <speed>0.17</speed>
  <fix>3d</fix>
</trkpt>
<trkpt lat="40.0713747" lon="-105.2297903">
  <ele>1583.04</ele>
  <time>2026-08-28T17:57:00Z</time>
  <course>254.54</course>
  <speed>0.3178049716414141</speed>
  <fix>3d</fix>
</trkpt>
<trkpt lat="40.0713747" lon="-105.22979">
  <ele>1583.0</ele>
  <time>2026-08-28T17:57:00Z</time>
  <course>251.35</course>
  <speed>0.26</speed>
  <fix>3d</fix>
</trkpt>
<trkpt lat="40.0713746" lon="-105.2297908">
  <ele>1583.05</ele>
  <time>2026-08-28T17:57:00Z</time>
  <course>256.77</course>
  <speed>0.37656340767525465</speed>
  <fix>3d</fix>
</trkpt>
<trkpt lat="40.0713747" lon="-105.22979">
  <ele>1583.0</ele>
  <time>2026-08-28T17:57:00Z</time>
  <course>251.35</course>
  <speed>0.26</speed>
  <fix>3d</fix>
</trkpt>
<trkpt lat="40.0713745" lon="-105.2297913">
  <ele>1583.05</ele>
  <time>2026-08-28T17:57:00Z</time>
  <course>258.8</course>
  <speed>0.42579337712087534</speed>
  <fix>3d</fix>
</trkpt>
<trkpt lat="40.0713746" lon="-105.2297907">
  <ele>1583.0</ele>
  <time>2026-08-28T17:57:00Z</time>
  <course>255.39</course>
  <speed>0.36</speed>
  <fix>3d</fix>
</trkpt>
<trkpt lat="40.0713744" lon="-105.2297918">
  <ele>1583.05</ele>
  <time>2026-08-28T17:57:00Z</time>
  <course>258.79</course>
  <speed>0.4159326868617084</speed>
  <fix>3d</fix>
</trkpt>
<trkpt lat="40.0713746" lon="-105.2297907">
  <ele>1583.0</ele>
  <time>2026-08-28T17:57:00Z</time>
  <course>255.39</course>
  <speed>0.36</speed>
  <fix>3d</fix>
</trkpt>
<trkpt lat="40.0713744" lon="-105.2297922">
  <ele>1583.05</ele>
  <time>2026-08-28T17:57:00Z</time>
  <course>258.79</course>
  <speed>0.3945883931389772</speed>
  <fix>3d</fix>
</trkpt>
<trkpt lat="40.0713743" lon="-105.2297916">
  <ele>1583.0</ele>
  <time>2026-08-28T17:57:00Z</time>
  <course>257.39</course>
  <speed>0.4</speed>
  <fix>3d</fix>
</trkpt>
<trkpt lat="40.0713743" lon="-105.2297927">
  <ele>1583.05</ele>
  <time>2026-08-28T17:57:00Z</time>
  <course>258.78</course>
  <speed>0.37483329627982626</speed>
  <fix>3d</fix>
</trkpt>
<trkpt lat="40.0713743" lon="-105.2297916">
  <ele>1583.0</ele>
  <time>2026-08-28T17:57:00Z</time>
  <course>257.39</course>
  <speed>0.4</speed>
  <fix>3d</fix>
</trkpt>
<trkpt lat="40.0713742" lon="-105.2297931">
  <ele>1583.05</ele>
  <time>2026-08-28T17:57:00Z</time>
  <course>258.78</course>
  <speed>0.35510561809129404</speed>
  <fix>3d</fix>
</trkpt>
<trkpt lat="40.0713742" lon="-105.2297925">
  <ele>1583.0</ele>
  <time>2026-08-28T17:57:00Z</time>
  <course>257.39</course>
  <speed>0.37</speed>
  <fix>3d</fix>
</trkpt>
<trkpt lat="40.0713741" lon="-105.2297935">
  <ele>1583.06</ele>
  <time>2026-08-28T17:57:00Z</time>
  <course>258.78</course>
  <speed>0.33541019662496846</speed>
  <fix>3d</fix>
</trkpt>
<trkpt lat="40.0713742" lon="-105.2297925">
  <ele>1583.0</ele>
  <time>2026-08-28T17:57:00Z</time>
  <course>257.39</course>
  <speed>0.37</speed>
  <fix>3d</fix>
</trkpt>
<trkpt lat="40.0713741" lon="-105.2297939">
  <ele>1583.06</ele>
  <time>2026-08-28T17:57:00Z</time>
  <course>258.77</course>
  <speed>0.3255764119219941</speed>
  <fix>3d</fix>
</trkpt>
<trkpt lat="40.0713741" lon="-105.2297933">
  <ele>1583.0</ele>
  <time>2026-08-28T17:57:00Z</time>
  <course>257.39</course>
  <speed>0.34</speed>
  <fix>3d</fix>
</trkpt>
<trkpt lat="40.071374" lon="-105.2297942">
  <ele>1583.06</ele>
  <time>2026-08-28T17:57:00Z</time>
  <course>258.77</course>
  <speed>0.3059411708155671</speed>
  <fix>3d</fix>
</trkpt>
<trkpt lat="40.0713741" lon="-105.2297933">
  <ele>1583.0</ele>
  <time>2026-08-28T17:57:00Z</time>
  <course>257.39</course>
  <speed>0.34</speed>
  <fix>3d</fix>
</trkpt>
<trkpt lat="40.071374" lon="-105.2297945">
  <ele>1583.06</ele>
  <time>2026-08-28T17:57:00Z</time>
  <course>258.77</course>
  <speed>0.2942787793912432</speed>
  <fix>3d</fix>
</trkpt>
<trkpt lat="40.0713739" lon="-105.229794">
  <ele>1583.0</ele>
  <time>2026-08-28T17:57:00Z</time>
  <course>257.39</course>
  <speed>0.3</speed>
  <fix>3d</fix>
</trkpt>
<trkpt lat="40.0713739" lon="-105.2297948">
  <ele>1583.06</ele>
  <time>2026-08-28T17:57:00Z</time>
  <course>258.77</course>
  <speed>0.2745906043549196</speed>
  <fix>3d</fix>
</trkpt>
<trkpt lat="40.0713739" lon="-105.229794">
  <ele>1583.0</ele>
  <time>2026-08-28T17:57:00Z</time>
  <course>257.39</course>
  <speed>0.3</speed>
  <fix>3d</fix>
</trkpt>
<trkpt lat="40.0713738" lon="-105.2297951">
  <ele>1583.06</ele>
  <time>2026-08-28T17:57:00Z</time>
  <course>258.77</course>
  <speed>0.26476404589747454</speed>
  <fix>3d</fix>
</trkpt>
<trkpt lat="40.0713738" lon="-105.2297946">
  <ele>1583.0</ele>
  <time>2026-08-28T17:57:00Z</time>
  <course>257.39</course>
  <speed>0.27</speed>
  <fix>3d</fix>
</trkpt>
<trkpt lat="40.0713738" lon="-105.2297954">
  <ele>1583.06</ele>
  <time>2026-08-28T17:57:00Z</time>
  <course>258.76</course>
  <speed>0.25495097567963926</speed>
  <fix>3d</fix>
</trkpt>
<trkpt lat="40.0713738" lon="-105.2297946">
  <ele>1583.0</ele>
  <time>2026-08-28T17:57:00Z</time>
  <course>257.39</course>
  <speed>0.27</speed>
  <fix>3d</fix>
</trkpt>
<trkpt lat="40.0713737" lon="-105.2297957">
  <ele>1583.06</ele>
  <time>2026-08-28T17:57:00Z</time>
  <course>258.76</course>
  <speed>0.2353720459187964</speed>
  <fix>3d</fix>
</trkpt>
<trkpt lat="40.0713737" lon="-105.2297952">
  <ele>1583.0</ele>
  <time>2026-08-28T17:57:00Z</time>
  <course>257.39</course>
  <speed>0.25</speed>
  <fix>3d</fix>
</trkpt>
<trkpt lat="40.0713737" lon="-105.2297959">
  <ele>1583.06</ele>
  <time>2026-08-28T17:57:00Z</time>
  <course>258.76</course>
  <speed>0.223606797749979</speed>
  <fix>3d</fix>
</trkpt>
<trkpt lat="40.0713737" lon="-105.2297952">
  <ele>1583.0</ele>
  <time>2026-08-28T17:57:00Z</time>
  <course>257.39</course>
  <speed>0.25</speed>
  <fix>3d</fix>
</trkpt>
<trkpt lat="40.0713736" lon="-105.2297962">
  <ele>1583.07</ele>
  <time>2026-08-28T17:57:00Z</time>
  <course>258.76</course>
  <speed>0.21377558326431947</speed>
  <fix>3d</fix>
</trkpt>
<trkpt lat="40.0713736" lon="-105.2297959">
  <ele>1583.0</ele>
  <time>2026-08-28T17:57:00Z</time>
  <course>257.39</course>
  <speed>0.22</speed>
  <fix>3d</fix>
</trkpt>
<trkpt lat="40.0713736" lon="-105.2297964">
  <ele>1583.07</ele>
  <time>2026-08-28T17:57:00Z</time>
  <course>258.76</course>
  <speed>0.2039607805437114</speed>
  <fix>3d</fix>
</trkpt>
<trkpt lat="40.0713736" lon="-105.2297959">
  <ele>1583.0</ele>
  <time>2026-08-28T17:57:00Z</time>
  <course>257.39</course>
  <speed>0.22</speed>
  <fix>3d</fix>
</trkpt>
<trkpt lat="40.0713735" lon="-105.2297967">
  <ele>1583.07</ele>
  <time>2026-08-28T17:57:00Z</time>
  <course>258.76</course>
  <speed>0.194164878389476</speed>
  <fix>3d</fix>
</trkpt>
<trkpt lat="40.0713735" lon="-105.2297964">
  <ele>1583.0</ele>
  <time>2026-08-28T17:57:00Z</time>
  <course>257.39</course>
  <speed>0.2</speed>
  <fix>3d</fix>
</trkpt>
<trkpt lat="40.0713735" lon="-105.2297969">
  <ele>1583.07</ele>
  <time>2026-08-28T17:57:00Z</time>
  <course>258.75</course>
  <speed>0.18439088914585774</speed>
  <fix>3d</fix>
</trkpt>
<trkpt lat="40.0713735" lon="-105.2297964">
  <ele>1583.0</ele>
  <time>2026-08-28T17:57:00Z</time>
  <course>257.39</course>
  <speed>0.2</speed>
  <fix>3d</fix>
</trkpt>
<trkpt lat="40.0713734" lon="-105.2297971">
  <ele>1583.08</ele>
  <time>2026-08-28T17:57:00Z</time>
  <course>258.75</course>
  <speed>0.17262676501632068</speed>
  <fix>3d</fix>
</trkpt>
<trkpt lat="40.0713735" lon="-105.2297968">
  <ele>1583.0</ele>
  <time>2026-08-28T17:57:00Z</time>
  <course>257.39</course>
  <speed>0.18</speed>
  <fix>3d</fix>
</trkpt>
<trkpt lat="40.0713734" lon="-105.2297973">
  <ele>1583.08</ele>
  <time>2026-08-28T17:57:00Z</time>
  <course>258.75</course>
  <speed>0.16278820596099705</speed>
  <fix>3d</fix>
</trkpt>
<trkpt lat="40.0713735" lon="-105.2297968">
  <ele>1583.0</ele>
  <time>2026-08-28T17:57:00Z</time>
  <course>257.39</course>
  <speed>0.18</speed>
  <fix>3d</fix>
</trkpt>
<trkpt lat="40.0713734" lon="-105.2297975">
  <ele>1583.08</ele>
  <time>2026-08-28T17:57:00Z</time>
  <course>258.75</course>
  <speed>0.15297058540778355</speed>
  <fix>3d</fix>
</trkpt>
<trkpt lat="40.0713734" lon="-105.2297972">
  <ele>1583.0</ele>
  <time>2026-08-28T17:57:00Z</time>
  <course>257.39</course>
  <speed>0.16</speed>
  <fix>3d</fix>
</trkpt>
<trkpt lat="40.0713734" lon="-105.2297977">
  <ele>1583.08</ele>
  <time>2026-08-28T17:57:00Z</time>
  <course>258.75</course>
  <speed>0.14317821063276354</speed>
  <fix>3d</fix>
</trkpt>
<trkpt lat="40.0713734" lon="-105.2297972">
  <ele>1583.0</ele>
  <time>2026-08-28T17:57:00Z</time>
  <course>257.39</course>
  <speed>0.16</speed>
  <fix>3d</fix>
</trkpt>
<trkpt lat="40.0713733" lon="-105.2297978">
  <ele>1583.08</ele>
  <time>2026-08-28T17:57:00Z</time>
  <course>258.75</course>
  <speed>0.13152946437965907</speed>
  <fix>3d</fix>
</trkpt>
<trkpt lat="40.0713733" lon="-105.2297976">
  <ele>1583.0</ele>
  <time>2026-08-28T17:57:00Z</time>
  <course>257.39</course>
  <speed>0.15</speed>
  <fix>3d</fix>
</trkpt>
<trkpt lat="40.0713733" lon="-105.229798">
  <ele>1583.08</ele>
  <time>2026-08-28T17:57:00Z</time>
  <course>258.75</course>
  <speed>0.13152946437965907</speed>
  <fix>3d</fix>
</trkpt>
<trkpt lat="40.0713733" lon="-105.2297976">
  <ele>1583.0</ele>
  <time>2026-08-28T17:57:00Z</time>
  <course>257.39</course>
  <speed>0.15</speed>
  <fix>3d</fix>
</trkpt>
<trkpt lat="40.0713733" lon="-105.2297981">
  <ele>1583.08</ele>
  <time>2026-08-28T17:57:00Z</time>
  <course>258.75</course>
  <speed>0.12165525060596438</speed>
  <fix>3d</fix>
</trkpt>
<trkpt lat="40.0713733" lon="-105.2297979">
  <ele>1583.0</ele>
  <time>2026-08-28T17:57:00Z</time>
  <course>257.39</course>
  <speed>0.13</speed>
  <fix>3d</fix>
</trkpt>
<trkpt lat="40.0713733" lon="-105.2297983">
  <ele>1583.08</ele>
  <time>2026-08-28T17:57:00Z</time>
  <course>258.75</course>
  <speed>0.1118033988749895</speed>
  <fix>3d</fix>
</trkpt>
<trkpt lat="40.0713733" lon="-105.2297979">
  <ele>1583.0</ele>
  <time>2026-08-28T17:57:00Z</time>
  <course>257.39</course>
  <speed>0.13</speed>
  <fix>3d</fix>
</trkpt>
<trkpt lat="40.0713732" lon="-105.2297984">
  <ele>1583.08</ele>
  <time>2026-08-28T17:57:00Z</time>
  <course>258.74</course>
  <speed>0.1118033988749895</speed>
  <fix>3d</fix>
</trkpt>
<trkpt lat="40.0713732" lon="-105.2297982">
  <ele>1583.0</ele>
  <time>2026-08-28T17:57:00Z</time>
  <course>257.39</course>
  <speed>0.12</speed>
  <fix>3d</fix>
</trkpt>
<trkpt lat="40.0713732" lon="-105.2297985">
  <ele>1583.08</ele>
  <time>2026-08-28T17:57:00Z</time>
  <course>258.74</course>
  <speed>0.1019803902718557</speed>
  <fix>3d</fix>
</trkpt>
<trkpt lat="40.0713732" lon="-105.2297982">
  <ele>1583.0</ele>
  <time>2026-08-28T17:57:00Z</time>
  <course>257.39</course>
  <speed>0.12</speed>
  <fix>3d</fix>
</trkpt>
<trkpt lat="40.0713732" lon="-105.2297986">
  <ele>1583.08</ele>
  <time>2026-08-28T17:57:00Z</time>
  <course>258.74</course>
  <speed>0.1004987562112089</speed>
  <fix>3d</fix>
</trkpt>
<trkpt lat="40.0713731" lon="-105.2297985">
  <ele>1583.0</ele>
  <time>2026-08-28T17:57:00Z</time>
  <course>257.39</course>
  <speed>0.11</speed>
  <fix>3d</fix>
</trkpt>
<trkpt lat="40.0713732" lon="-105.2297987">
  <ele>1583.08</ele>
  <time>2026-08-28T17:57:00Z</time>
  <course>258.74</course>
  <speed>0.09055385138137417</speed>
  <fix>3d</fix>
</trkpt>
<trkpt lat="40.0713731" lon="-105.2297985">
  <ele>1583.0</ele>
  <time>2026-08-28T17:57:00Z</time>
  <course>257.39</course>
  <speed>0.11</speed>
  <fix>3d</fix>
</trkpt>
<trkpt lat="40.0713732" lon="-105.2297988">
  <ele>1583.07</ele>
  <time>2026-08-28T17:57:00Z</time>
  <course>258.74</course>
  <speed>0.09055385138137417</speed>
  <fix>3d</fix>
</trkpt>
<trkpt lat="40.0713731" lon="-105.2297988">
  <ele>1583.0</ele>
  <time>2026-08-28T17:57:00Z</time>
  <course>257.39</course>
  <speed>0.1</speed>
  <fix>3d</fix>
</trkpt>
<trkpt lat="40.0713731" lon="-105.2297989">
  <ele>1583.07</ele>
  <time>2026-08-28T17:57:00Z</time>
  <course>258.74</course>
  <speed>0.08062257748298549</speed>
  <fix>3d</fix>
</trkpt>
<trkpt lat="40.0713731" lon="-105.2297988">
  <ele>1583.0</ele>
  <time>2026-08-28T17:57:00Z</time>
  <course>257.39</course>
  <speed>0.1</speed>
  <fix>3d</fix>
</trkpt>
<trkpt lat="40.0713731" lon="-105.229799">
  <ele>1583.07</ele>
  <time>2026-08-28T17:57:00Z</time>
  <course>258.74</course>
  <speed>0.08062257748298549</speed>
  <fix>3d</fix>
</trkpt>
<trkpt lat="40.0713731" lon="-105.2297989">
  <ele>1583.0</ele>
  <time>2026-08-28T17:57:00Z</time>
  <course>257.39</course>
  <speed>0.09</speed>
  <fix>3d</fix>
</trkpt>
<trkpt lat="40.0713731" lon="-105.2297991">
  <ele>1583.06</ele>
  <time>2026-08-28T17:57:00Z</time>
  <course>258.74</course>
  <speed>0.07071067811865475</speed>
  <fix>3d</fix>
</trkpt>
<trkpt lat="40.0713731" lon="-105.2297989">
  <ele>1583.0</ele>
  <time>2026-08-28T17:57:00Z</time>
  <course>257.39</course>
  <speed>0.09</speed>
  <fix>3d</fix>
</trkpt>
<trkpt lat="40.0713731" lon="-105.2297992">
  <ele>1583.06</ele>
  <time>2026-08-28T17:57:00Z</time>
  <course>258.74</course>
  <speed>0.07071067811865475</speed>
  <fix>3d</fix>
</trkpt>
<trkpt lat="40.071373" lon="-105.2297992">
  <ele>1583.0</ele>
  <time>2026-08-28T17:57:00Z</time>
  <course>257.39</course>
  <speed>0.08</speed>
  <fix>3d</fix>
</trkpt>
<trkpt lat="40.0713731" lon="-105.2297993">
  <ele>1583.05</ele>
  <time>2026-08-28T17:57:00Z</time>
  <course>258.74</course>
  <speed>0.06</speed>
  <fix>3d</fix>
</trkpt>
<trkpt lat="40.071373" lon="-105.2297992">
  <ele>1583.0</ele>
  <time>2026-08-28T17:57:00Z</time>
  <course>257.39</course>
  <speed>0.08</speed>
  <fix>3d</fix>
</trkpt>
<trkpt lat="40.0713731" lon="-105.2297994">
  <ele>1583.05</ele>
  <time>2026-08-28T17:57:00Z</time>
  <course>258.74</course>
  <speed>0.06</speed>
  <fix>3d</fix>
</trkpt>
<trkpt lat="40.071373" lon="-105.2297993">
  <ele>1583.0</ele>
  <time>2026-08-28T17:57:00Z</time>
  <course>257.39</course>
  <speed>0.07</speed>
  <fix>3d</fix>
</trkpt>
<trkpt lat="40.0713731" lon="-105.2297995">
  <ele>1583.04</ele>
  <time>2026-08-28T17:57:00Z</time>
  <course>258.74</course>
  <speed>0.05</speed>
  <fix>3d</fix>
</trkpt>
<trkpt lat="40.071373" lon="-105.2297993">
  <ele>1583.0</ele>
  <time>2026-08-28T17:57:00Z</time>
  <course>257.39</course>
  <speed>0.07</speed>
  <fix>3d</fix>
</trkpt>
<trkpt lat="40.0713731" lon="-105.2297995">
  <ele>1583.04</ele>
  <time>2026-08-28T17:57:00Z</time>
  <course>258.73</course>
  <speed>0.05</speed>
  <fix>3d</fix>
</trkpt>
<trkpt lat="40.071373" lon="-105.2297995">
  <ele>1583.0</ele>
  <time>2026-08-28T17:57:00Z</time>
  <course>257.39</course>
  <speed>0.06</speed>
  <fix>3d</fix>
</trkpt>
<trkpt lat="40.071373" lon="-105.2297996">
  <ele>1583.03</ele>
  <time>2026-08-28T17:57:00Z</time>
  <course>258.73</course>
  <speed>0.05</speed>
  <fix>3d</fix>
</trkpt>
<trkpt lat="40.071373" lon="-105.2297995">
  <ele>1583.0</ele>
  <time>2026-08-28T17:57:00Z</time>
  <course>257.39</course>
  <speed>0.06</speed>
  <fix>3d</fix>
</trkpt>
<trkpt lat="40.071373" lon="-105.2297997">
  <ele>1583.03</ele>
  <time>2026-08-28T17:57:00Z</time>
  <course>258.73</course>
  <speed>0.04</speed>
  <fix>3d</fix>
</trkpt>
<trkpt lat="40.071373" lon="-105.2297997">
  <ele>1583.0</ele>
  <time>2026-08-28T17:57:00Z</time>
  <course>257.39</course>
  <speed>0.06</speed>
  <fix>3d</fix>
</trkpt>
<trkpt lat="40.071373" lon="-105.2297997">
  <ele>1583.03</ele>
  <time>2026-08-28T17:57:00Z</time>
  <course>258.73</course>
  <speed>0.04</speed>
  <fix>3d</fix>
</trkpt>
<trkpt lat="40.071373" lon="-105.2297997">
  <ele>1583.0</ele>
  <time>2026-08-28T17:57:00Z</time>
  <course>257.39</course>
  <speed>0.06</speed>
  <fix>3d</fix>
</trkpt>
<trkpt lat="40.071373" lon="-105.2297998">
  <ele>1583.02</ele>
  <time>2026-08-28T17:57:00Z</time>
  <course>258.73</course>
  <speed>0.04</speed>
  <fix>3d</fix>
</trkpt>
<trkpt lat="40.071373" lon="-105.2297998">
  <ele>1583.0</ele>
  <time>2026-08-28T17:57:00Z</time>
  <course>257.39</course>
  <speed>0.05</speed>
  <fix>3d</fix>
</trkpt>
<trkpt lat="40.071373" lon="-105.2297998">
  <ele>1583.02</ele>
  <time>2026-08-28T17:57:00Z</time>
  <course>258.73</course>
  <speed>0.04</speed>
  <fix>3d</fix>
</trkpt>
<trkpt lat="40.071373" lon="-105.2297998">
  <ele>1583.0</ele>
  <time>2026-08-28T17:57:00Z</time>
  <course>257.39</course>
  <speed>0.05</speed>
  <fix>3d</fix>
</trkpt>
<trkpt lat="40.071373" lon="-105.2297999">
  <ele>1583.02</ele>
  <time>2026-08-28T17:57:00Z</time>
  <course>258.73</course>
  <speed>0.03</speed>
  <fix>3d</fix>
</trkpt>
<trkpt lat="40.071373" lon="-105.2297999">
  <ele>1583.0</ele>
  <time>2026-08-28T17:57:00Z</time>
  <course>257.39</course>
  <speed>0.05</speed>
  <fix>3d</fix>
</trkpt>
<trkpt lat="40.071373" lon="-105.2297999">
  <ele>1583.01</ele>
  <time>2026-08-28T17:57:00Z</time>
  <course>258.73</course>
  <speed>0.03</speed>
  <fix>3d</fix>
</trkpt>
<trkpt lat="40.071373" lon="-105.2297999">
  <ele>1583.0</ele>
  <time>2026-08-28T17:57:00Z</time>
  <course>257.39</course>
  <speed>0.05</speed>
  <fix>3d</fix>
</trkpt>
<trkpt lat="40.071373" lon="-105.2298">
  <ele>1583.01</ele>
  <time>2026-08-28T17:57:00Z</time>
  <course>258.73</course>
  <speed>0.03</speed>
  <fix>3d</fix>
</trkpt>
<trkpt lat="40.0713729" lon="-105.2298">
  <ele>1583.0</ele>
  <time>2026-08-28T17:57:00Z</time>
  <course>257.39</course>
  <speed>0.04</speed>
  <fix>3d</fix>
</trkpt>
<trkpt lat="40.071373" lon="-105.2298">
  <ele>1583.01</ele>
  <time>2026-08-28T17:57:00Z</time>
  <course>258.75</course>
  <speed>0.03</speed>
  <fix>3d</fix>
</trkpt>
<trkpt lat="40.0713729" lon="-105.2298">
  <ele>1583.0</ele>
  <time>2026-08-28T17:57:00Z</time>
  <course>257.39</course>
  <speed>0.04</speed>
  <fix>3d</fix>
</trkpt>
<trkpt lat="40.071373" lon="-105.2298001">
  <ele>1583.01</ele>
  <time>2026-08-28T17:57:00Z</time>
  <course>258.77</course>
  <speed>0.03</speed>
  <fix>3d</fix>
</trkpt>
<trkpt lat="40.0713729" lon="-105.2298001">
  <ele>1583.0</ele>
  <time>2026-08-28T17:57:00Z</time>
  <course>257.41</course>
  <speed>0.04</speed>
  <fix>3d</fix>
</trkpt>
<trkpt lat="40.071373" lon="-105.2298001">
  <ele>1583.01</ele>
  <time>2026-08-28T17:57:00Z</time>
  <course>258.83</course>
  <speed>0.03</speed>
  <fix>3d</fix>
</trkpt>
<trkpt lat="40.0713729" lon="-105.2298001">
  <ele>1583.0</ele>
  <time>2026-08-28T17:57:00Z</time>
  <course>257.41</course>
  <speed>0.04</speed>
  <fix>3d</fix>
</trkpt>
<trkpt lat="40.071373" lon="-105.2298002">
  <ele>1583.01</ele>
  <time>2026-08-28T17:57:00Z</time>
  <course>258.91</course>
  <speed>0.03</speed>
  <fix>3d</fix>
</trkpt>
<trkpt lat="40.0713729" lon="-105.2298002">
  <ele>1583.0</ele>
  <time>2026-08-28T17:57:00Z</time>
  <course>257.51</course>
  <speed>0.04</speed>
  <fix>3d</fix>
</trkpt>
<trkpt lat="40.071373" lon="-105.2298002">
  <ele>1583.01</ele>
  <time>2026-08-28T17:57:00Z</time>
  <course>259.04</course>
  <speed>0.04</speed>
  <fix>3d</fix>
</trkpt>
<trkpt lat="40.0713729" lon="-105.2298002">
  <ele>1583.0</ele>
  <time>2026-08-28T17:57:00Z</time>
  <course>257.51</course>
  <speed>0.04</speed>
  <fix>3d</fix>
</trkpt>
<trkpt lat="40.071373" lon="-105.2298003">
  <ele>1583.0</ele>
  <time>2026-08-28T17:57:00Z</time>
  <course>259.25</course>
  <speed>0.05</speed>
  <fix>3d</fix>
</trkpt>
<trkpt lat="40.0713729" lon="-105.2298003">
  <ele>1583.0</ele>
  <time>2026-08-28T17:57:00Z</time>
  <course>257.78</course>
  <speed>0.05</speed>
  <fix>3d</fix>
</trkpt>
<trkpt lat="40.071373" lon="-105.2298004">
  <ele>1583.0</ele>
  <time>2026-08-28T17:57:00Z</time>
  <course>259.61</course>
  <speed>0.08</speed>
  <fix>3d</fix>
</trkpt>
<trkpt lat="40.0713729" lon="-105.2298003">
  <ele>1583.0</ele>
  <time>2026-08-28T17:57:00Z</time>
  <course>257.78</course>
  <speed>0.05</speed>
  <fix>3d</fix>
</trkpt>
<trkpt lat="40.071373" lon="-105.2298005">
  <ele>1583.0</ele>
  <time>2026-08-28T17:57:00Z</time>
  <course>260.2</course>
  <speed>0.11045361017187261</speed>
  <fix>3d</fix>
</trkpt>
<trkpt lat="40.0713729" lon="-105.2298005">
  <ele>1583.0</ele>
  <time>2026-08-28T17:57:00Z</time>
  <course>258.53</course>
  <speed>0.09</speed>
  <fix>3d</fix>
</trkpt>
<trkpt lat="40.0713729" lon="-105.2298007">
  <ele>1583.0</ele>
  <time>2026-08-28T17:57:00Z</time>
  <course>261.11</course>
  <speed>0.16031219541881397</speed>
  <fix>3d</fix>
</trkpt>
<trkpt lat="40.0713729" lon="-105.2298005">
  <ele>1583.0</ele>
  <time>2026-08-28T17:57:00Z</time>
  <course>258.53</course>
  <speed>0.09</speed>
  <fix>3d</fix>
</trkpt>
<trkpt lat="40.0713729" lon="-105.2298009">
  <ele>1583.0</ele>
  <time>2026-08-28T17:57:00Z</time>
  <course>262.38</course>
  <speed>0.22022715545545238</speed>
  <fix>3d</fix>
</trkpt>
<trkpt lat="40.0713728" lon="-105.2298008">
  <ele>1583.0</ele>
  <time>2026-08-28T17:57:00Z</time>
  <course>260.27</course>
  <speed>0.17</speed>
  <fix>3d</fix>
</trkpt>
<trkpt lat="40.0713729" lon="-105.2298013">
  <ele>1582.99</ele>
  <time>2026-08-28T17:57:00Z</time>
  <course>264.03</course>
  <speed>0.29017236257093815</speed>
  <fix>3d</fix>
</trkpt>
<trkpt lat="40.0713728" lon="-105.2298008">
  <ele>1583.0</ele>
  <time>2026-08-28T17:57:00Z</time>
  <course>260.27</course>
  <speed>0.17</speed>
  <fix>3d</fix>
</trkpt>
<trkpt lat="40.0713728" lon="-105.2298018">
  <ele>1582.99</ele>
  <time>2026-08-28T17:57:00Z</time>
  <course>266.62</course>
  <speed>0.38013155617496425</speed>
  <fix>3d</fix>
</trkpt>
<trkpt lat="40.0713727" lon="-105.2298013">
  <ele>1583.0</ele>
  <time>2026-08-28T17:57:00Z</time>
  <course>263.39</course>
  <speed>0.29</speed>
  <fix>3d</fix>
</trkpt>
<trkpt lat="40.0713728" lon="-105.2298023">
  <ele>1582.99</ele>
  <time>2026-08-28T17:57:00Z</time>
  <course>269.37</course>
  <speed>0.48</speed>
  <fix>3d</fix>
</trkpt>
<trkpt lat="40.0713727" lon="-105.2298013">
  <ele>1583.0</ele>
  <time>2026-08-28T17:57:00Z</time>
  <course>263.39</course>
  <speed>0.29</speed>
  <fix>3d</fix>
</trkpt>
<trkpt lat="40.0713728" lon="-105.229803">
  <ele>1582.99</ele>
  <time>2026-08-28T17:57:00Z</time>
  <course>272.01</course>
  <speed>0.5707889277132134</speed>
  <fix>3d</fix>
</trkpt>
<trkpt lat="40.0713727" lon="-105.2298022">
  <ele>1583.0</ele>
  <time>2026-08-28T17:57:00Z</time>
  <course>268.33</course>
  <speed>0.46</speed>
  <fix>3d</fix>
</trkpt>
<trkpt lat="40.0713728" lon="-105.2298037">
  <ele>1582.98</ele>
  <time>2026-08-28T17:57:00Z</time>
  <course>272.01</course>
  <speed>0.5907622195096772</speed>
  <fix>3d</fix>
</trkpt>
<trkpt lat="40.0713727" lon="-105.2298022">
  <ele>1583.0</ele>
  <time>2026-08-28T17:57:00Z</time>
  <course>268.33</course>
  <speed>0.46</speed>
  <fix>3d</fix>
</trkpt>
<trkpt lat="40.0713729" lon="-105.2298044">
  <ele>1582.98</ele>
  <time>2026-08-28T17:57:00Z</time>
  <course>272.0</course>
  <speed>0.5707889277132134</speed>
  <fix>3d</fix>
</trkpt>
<trkpt lat="40.0713727" lon="-105.2298035">
  <ele>1583.0</ele>
  <time>2026-08-28T17:57:00Z</time>
  <course>270.68</course>
  <speed>0.56</speed>
  <fix>3d</fix>
</trkpt>
<trkpt lat="40.0713728" lon="-105.2298051">
  <ele>1582.98</ele>
  <time>2026-08-28T17:57:00Z</time>
  <course>272.0</course>
  <speed>0.5403702434442519</speed>
  <fix>3d</fix>
</trkpt>
<trkpt lat="40.0713727" lon="-105.2298035">
  <ele>1583.0</ele>
  <time>2026-08-28T17:57:00Z</time>
  <course>270.68</course>
  <speed>0.56</speed>
  <fix>3d</fix>
</trkpt>
<trkpt lat="40.0713728" lon="-105.2298057">
  <ele>1582.97</ele>
  <time>2026-08-28T17:57:00Z</time>
  <course>272.0</course>
  <speed>0.5103920062069939</speed>
  <fix>3d</fix>
</trkpt>
<trkpt lat="40.0713727" lon="-105.2298048">
  <ele>1583.0</ele>
  <time>2026-08-28T17:57:00Z</time>
  <course>270.68</course>
  <speed>0.54</speed>
  <fix>3d</fix>
</trkpt>
<trkpt lat="40.0713728" lon="-105.2298063">
  <ele>1582.97</ele>
  <time>2026-08-28T17:57:00Z</time>
  <course>271.99</course>
  <speed>0.49040799340956914</speed>
  <fix>3d</fix>
</trkpt>
<trkpt lat="40.0713727" lon="-105.2298048">
  <ele>1583.0</ele>
  <time>2026-08-28T17:57:00Z</time>
  <course>270.68</course>
  <speed>0.54</speed>
  <fix>3d</fix>
</trkpt>
<trkpt lat="40.0713728" lon="-105.2298068">
  <ele>1582.96</ele>
  <time>2026-08-28T17:57:00Z</time>
  <course>271.99</course>
  <speed>0.4604345773288535</speed>
  <fix>3d</fix>
</trkpt>
<trkpt lat="40.0713727" lon="-105.229806">
  <ele>1583.0</ele>
  <time>2026-08-28T17:57:00Z</time>
  <course>270.68</course>
  <speed>0.48</speed>
  <fix>3d</fix>
</trkpt>
<trkpt lat="40.0713728" lon="-105.2298074">
  <ele>1582.96</ele>
  <time>2026-08-28T17:57:00Z</time>
  <course>271.99</course>
  <speed>0.44045431091090476</speed>
  <fix>3d</fix>
</trkpt>
<trkpt lat="40.0713727" lon="-105.229806">
  <ele>1583.0</ele>
  <time>2026-08-28T17:57:00Z</time>
  <course>270.68</course>
  <speed>0.48</speed>
  <fix>3d</fix>
</trkpt>
<trkpt lat="40.0713728" lon="-105.2298079">
  <ele>1582.96</ele>
  <time>2026-08-28T17:57:00Z</time>
  <course>271.99</course>
  <speed>0.4204759208325728</speed>
  <fix>3d</fix>
</trkpt>
<trkpt lat="40.0713727" lon="-105.2298071">
  <ele>1583.0</ele>
  <time>2026-08-28T17:57:00Z</time>
  <course>270.68</course>
  <speed>0.44</speed>
  <fix>3d</fix>
</trkpt>
<trkpt lat="40.0713728" lon="-105.2298082">
  <ele>1582.95</ele>
  <time>2026-08-28T17:57:00Z</time>
  <course>271.99</course>
  <speed>0.4004996878900158</speed>
  <fix>3d</fix>
</trkpt>
<trkpt lat="40.0713727" lon="-105.2298071">
  <ele>1583.0</ele>
  <time>2026-08-28T17:57:00Z</time>
  <course>270.68</course>
  <speed>0.44</speed>
  <fix>3d</fix>
</trkpt>
<trkpt lat="40.0713728" lon="-105.2298087">
  <ele>1582.95</ele>
  <time>2026-08-28T17:57:00Z</time>
  <course>271.98</course>
  <speed>0.38052595180880894</speed>
  <fix>3d</fix>
</trkpt>
<trkpt lat="40.0713727" lon="-105.2298081">
  <ele>1583.0</ele>
  <time>2026-08-28T17:57:00Z</time>
  <course>270.68</course>
  <speed>0.4</speed>
  <fix>3d</fix>
</trkpt>
<trkpt lat="40.0713728" lon="-105.2298091">
  <ele>1582.95</ele>
  <time>2026-08-28T17:57:00Z</time>
  <course>271.98</course>
  <speed>0.3605551275463989</speed>
  <fix>3d</fix>
</trkpt>
<trkpt lat="40.0713727" lon="-105.2298081">
  <ele>1583.0</ele>
  <time>2026-08-28T17:57:00Z</time>
  <course>270.68</course>
  <speed>0.4</speed>
  <fix>3d</fix>
</trkpt>
<trkpt lat="40.0713728" lon="-105.2298095">
  <ele>1582.95</ele>
  <time>2026-08-28T17:57:00Z</time>
  <course>271.98</course>
  <speed>0.3505709628591621</speed>
  <fix>3d</fix>
</trkpt>
<trkpt lat="40.0713727" lon="-105.2298089">
  <ele>1583.0</ele>
  <time>2026-08-28T17:57:00Z</time>
  <course>270.68</course>
  <speed>0.36</speed>
  <fix>3d</fix>
</trkpt>
<trkpt lat="40.0713728" lon="-105.2298099">
  <ele>1582.95</ele>
  <time>2026-08-28T17:57:00Z</time>
  <course>271.98</course>
  <speed>0.3306055050963308</speed>
  <fix>3d</fix>
</trkpt>
<trkpt lat="40.0713727" lon="-105.2298089">
  <ele>1583.0</ele>
  <time>2026-08-28T17:57:00Z</time>
  <course>270.68</course>
  <speed>0.36</speed>
  <fix>3d</fix>
</trkpt>
<trkpt lat="40.0713728" lon="-105.2298103">
  <ele>1582.95</ele>
  <time>2026-08-28T17:57:00Z</time>
  <course>271.98</course>
  <speed>0.31064449134018135</speed>
  <fix>3d</fix>
</trkpt>
<trkpt lat="40.0713727" lon="-105.2298098">
  <ele>1583.0</ele>
  <time>2026-08-28T17:57:00Z</time>
  <course>270.68</course>
  <speed>0.32</speed>
  <fix>3d</fix>
</trkpt>
<trkpt lat="40.0713728" lon="-105.2298106">
  <ele>1582.94</ele>
  <time>2026-08-28T17:57:00Z</time>
  <course>271.98</course>
  <speed>0.30016662039607267</speed>
  <fix>3d</fix>
</trkpt>
<trkpt lat="40.0713727" lon="-105.2298098">
  <ele>1583.0</ele>
  <time>2026-08-28T17:57:00Z</time>
  <course>270.68</course>
  <speed>0.32</speed>
  <fix>3d</fix>
</trkpt>
<trkpt lat="40.0713728" lon="-105.229811">
  <ele>1582.94</ele>
  <time>2026-08-28T17:57:00Z</time>
  <course>271.98</course>
  <speed>0.280178514522438</speed>
  <fix>3d</fix>
</trkpt>
<trkpt lat="40.0713727" lon="-105.2298105">
  <ele>1583.0</ele>
  <time>2026-08-28T17:57:00Z</time>
  <course>270.68</course>
  <speed>0.29</speed>
  <fix>3d</fix>
</trkpt>
<trkpt lat="40.0713728" lon="-105.2298113">
  <ele>1582.94</ele>
  <time>2026-08-28T17:57:00Z</time>
  <course>271.98</course>
  <speed>0.27018512172212594</speed>
  <fix>3d</fix>
</trkpt>
<trkpt lat="40.0713727" lon="-105.2298105">
  <ele>1583.0</ele>
  <time>2026-08-28T17:57:00Z</time>
  <course>270.68</course>
  <speed>0.29</speed>
  <fix>3d</fix>
</trkpt>
<trkpt lat="40.0713728" lon="-105.2298116">
  <ele>1582.93</ele>
  <time>2026-08-28T17:57:00Z</time>
  <course>271.98</course>
  <speed>0.2501999200639361</speed>
  <fix>3d</fix>
</trkpt>
<trkpt lat="40.0713727" lon="-105.2298112">
  <ele>1583.0</ele>
  <time>2026-08-28T17:57:00Z</time>
  <course>270.68</course>
  <speed>0.26</speed>
  <fix>3d</fix>
</trkpt>
<trkpt lat="40.0713728" lon="-105.2298119">
  <ele>1582.93</ele>
  <time>2026-08-28T17:57:00Z</time>
  <course>271.98</course>
  <speed>0.24020824298928628</speed>
  <fix>3d</fix>
</trkpt>
<trkpt lat="40.0713727" lon="-105.2298112">
  <ele>1583.0</ele>
  <time>2026-08-28T17:57:00Z</time>
  <course>270.68</course>
  <speed>0.26</speed>
  <fix>3d</fix>
</trkpt>
<trkpt lat="40.0713728" lon="-105.2298122">
  <ele>1582.93</ele>
  <time>2026-08-28T17:57:00Z</time>
  <course>271.98</course>
  <speed>0.23021728866442676</speed>
  <fix>3d</fix>
</trkpt>
<trkpt lat="40.0713727" lon="-105.2298117">
  <ele>1583.0</ele>
  <time>2026-08-28T17:57:00Z</time>
  <course>270.68</course>
  <speed>0.24</speed>
  <fix>3d</fix>
</trkpt>
<trkpt lat="40.0713728" lon="-105.2298125">
  <ele>1582.93</ele>
  <time>2026-08-28T17:57:00Z</time>
  <course>271.98</course>
  <speed>0.2102379604162864</speed>
  <fix>3d</fix>
</trkpt>
<trkpt lat="40.0713727" lon="-105.2298117">
  <ele>1583.0</ele>
  <time>2026-08-28T17:57:00Z</time>
  <course>270.68</course>
  <speed>0.24</speed>
  <fix>3d</fix>
</trkpt>
<trkpt lat="40.0713728" lon="-105.2298127">
  <ele>1582.94</ele>
  <time>2026-08-28T17:57:00Z</time>
  <course>271.98</course>
  <speed>0.2002498439450079</speed>
  <fix>3d</fix>
</trkpt>
<trkpt lat="40.0713727" lon="-105.2298123">
  <ele>1583.0</ele>
  <time>2026-08-28T17:57:00Z</time>
  <course>270.68</course>
  <speed>0.21</speed>
  <fix>3d</fix>
</trkpt>
<trkpt lat="40.0713728" lon="-105.2298129">
  <ele>1582.94</ele>
  <time>2026-08-28T17:57:00Z</time>
  <course>271.98</course>
  <speed>0.19026297590440447</speed>
  <fix>3d</fix>
</trkpt>
<trkpt lat="40.0713727" lon="-105.2298123">
  <ele>1583.0</ele>
  <time>2026-08-28T17:57:00Z</time>
  <course>270.68</course>
  <speed>0.21</speed>
  <fix>3d</fix>
</trkpt>
<trkpt lat="40.0713728" lon="-105.2298131">
  <ele>1582.95</ele>
  <time>2026-08-28T17:57:00Z</time>
  <course>271.98</course>
  <speed>0.18027756377319945</speed>
  <fix>3d</fix>
</trkpt>
<trkpt lat="40.0713727" lon="-105.2298128">
  <ele>1583.0</ele>
  <time>2026-08-28T17:57:00Z</time>
  <course>270.68</course>
  <speed>0.19</speed>
  <fix>3d</fix>
</trkpt>
<trkpt lat="40.0713728" lon="-105.2298139">
  <ele>1582.97</ele>
  <time>2026-08-28T17:57:01Z</time>
  <course>271.98</course>
  <speed>0.140356688476182</speed>
  <fix>3d</fix>
</trkpt>
<trkpt lat="40.0713727" lon="-105.2298136">
  <ele>1583.0</ele>
  <time>2026-08-28T17:57:01Z</time>
  <course>270.68</course>
  <speed>0.16</speed>
  <fix>3d</fix>
</trkpt>
<trkpt lat="40.0713728" lon="-105.2298143">
  <ele>1582.99</ele>
  <time>2026-08-28T17:57:01Z</time>
  <course>271.99</course>
  <speed>0.12041594578792296</speed>
  <fix>3d</fix>
</trkpt>
<trkpt lat="40.0713727" lon="-105.229814">
  <ele>1583.0</ele>
  <time>2026-08-28T17:57:01Z</time>
  <course>270.68</course>
  <speed>0.14</speed>
  <fix>3d</fix>
</trkpt>
<trkpt lat="40.0713728" lon="-105.2298145">
  <ele>1582.99</ele>
  <time>2026-08-28T17:57:01Z</time>
  <course>271.99</course>
  <speed>0.11045361017187261</speed>
  <fix>3d</fix>
</trkpt>
<trkpt lat="40.0713727" lon="-105.2298144">
  <ele>1583.0</ele>
  <time>2026-08-28T17:57:01Z</time>
  <course>270.68</course>
  <speed>0.13</speed>
  <fix>3d</fix>
</trkpt>
<trkpt lat="40.0713728" lon="-105.2298146">
  <ele>1582.99</ele>
  <time>2026-08-28T17:57:01Z</time>
  <course>271.99</course>
  <speed>0.11045361017187261</speed>
  <fix>3d</fix>
</trkpt>
<trkpt lat="40.0713727" lon="-105.2298144">
  <ele>1583.0</ele>
  <time>2026-08-28T17:57:01Z</time>
  <course>270.68</course>
  <speed>0.13</speed>
  <fix>3d</fix>
</trkpt>
<trkpt lat="40.0713728" lon="-105.2298147">
  <ele>1582.99</ele>
  <time>2026-08-28T17:57:01Z</time>
  <course>271.99</course>
  <speed>0.1004987562112089</speed>
  <fix>3d</fix>
</trkpt>
<trkpt lat="40.0713727" lon="-105.2298146">
  <ele>1583.0</ele>
  <time>2026-08-28T17:57:01Z</time>
  <course>270.68</course>
  <speed>0.12</speed>
  <fix>3d</fix>
</trkpt>
<trkpt lat="40.0713728" lon="-105.2298149">
  <ele>1582.99</ele>
  <time>2026-08-28T17:57:01Z</time>
  <course>271.99</course>
  <speed>0.09055385138137417</speed>
  <fix>3d</fix>
</trkpt>
<trkpt lat="40.0713727" lon="-105.2298146">
  <ele>1583.0</ele>
  <time>2026-08-28T17:57:01Z</time>
  <course>270.68</course>
  <speed>0.12</speed>
  <fix>3d</fix>
</trkpt>
</trkseg>
</trk>
</gpx>
